#Info	Device Log	from Device	manufactured by	PyroScience GmbH
#Link	https://pyroscience.com
#Log Name	PH2ROV2
#Comment	pK8_AF_mit_CU_Netz_alte_Kappe_frisch_kalibriert_in_pH2_und_pH11
#Device Name	AquapHOx-LX
#DeviceID	12
#UniqueID	2411E505575BA512
#Serial number	0
#Firmware	410
#Build	6
#Number of Channels	1
#Available Sensors	35
#Supported Analytes	7
#Channel	1
#
#settings	temp (0.001 C)	pressure (0.001 mbar)	salinity (0.001 g/L)	duration (1=1ms, 8=128ms)	intensity (0=10%, 7=100%)	amp (3=40x, 4=80x, 5=200x, 6=400x)	frequency (Hz)	crcEnable	writeLock	options (bit0=autoFlashDur., bit1=autoAmpl., bit2=1000xOxygen)	broadcast	analyte (0=none, 1=O2, 2=T, 3=pH, 4=CO2)	fiberType (0=230um, 1=430um, 2=1mm)	dual frequency (Hz)
#0	-300000	-1	35000	5	3	6	3000	0	0	2	3080192	3	2	0	0	0	0	0	0	0
#calibration	R1 (10e-6)	pH1 (0.001)	temp1 (0.001 C)	salinity1 (0.001 g/L)	R2 (10e-6)	pH2 (0.001)	temp2 (0.001 C)	salinity2 (0.001 g/L)	offset (0.001)	dPhi_ref (0.001 )	attenuation_coefficient (10e-6 1/m)	bkgdAmpl (0.001 mV)	bkgdDphi (0.001 )	dsf_dye (10e-6)	dtf_dye (10e-6)	pka (0.001 pH)	slope (10e-6)	bottom_t (10e-6 1/K)	top_t (10e-6 1/K)	slope_t (10e-6 1/K)	pka_t (10e-6 pH/K)	pka_is1 (0.001)	pka_is2 (0.001)
#1	1317933	2225	29830	2000	55888	11322	29816	6000	0	57800	33900	44	0	904700	-5670	8106	1034000	-1108	-803	0	-16280	970	126	623252	1656148	38723	0	0	0	0
#analogOutput	aoSelectA	aoSelectB	aoSelectC	aoSelectD	aoMinA	aoMinB	aoMinC	aoMinD	aoMaxA	aoMaxB	aoMaxC	aoMaxD
#4	259	261	265	266	0	0	0	0	250000	50000	2500000	250000
#temperatureSettings	sensorType	enableAverage	resistorRef (0.001 Ohm)	a (E-10/K)	b (E-11/K)	c (E-13/K)	tempOffset (0.001 C)	gain
#20	0	1	200000	4700000	25000	4000000	1000	0
#settingsStatus	sensorCodeType	sensorCodeLED	sensorCodePD	sensorCodeMiddleBlock	sensorCodeLastBlock	sensorSerialNumber	backgroundCompensation	fiberLength	medium	unitsGas	unitsWater	activeSensors	sensorName0	sensorName1	sensorName2	sampleInterval	uidTemperature0	uidTemperature1	uidPressure0	uidPressure1	uidSalinity0	uidSalinity1	measValidityTime
#30	1179189248	3	6	877	428	557	0	1000	1	0	8	0	0	0	0	60000	0	0	0	0	0	0	0	0	0
#calibrationStatus	lastCal1	lastCal2	lastCal3
#31	1059240709	1065240709	10101	0	0	0	0	0
#loggingStatus	filename0	filename1	filename2	mode	interval	duration	active
#32	1379027024	3298895	553648128	1	5	18	0	0	0	0	0	0	0	0	0	0
#deviceStatus	deviceName0	deviceName1	deviceName2	deviceName3	deviceName4	deviceName5	uidLastConfig0	uidLastConfig1	settingsMode	dimPortLed	slaveAddress
#34	1097954657	1883787128	759978029	855638016	0	0	471265734	199895871	0	1000	1	0	0	0	0	0
#nonOpticalSensorsStatus	sampleIntervalSampleTemp	meaValTimeSampleTemp	sampleIntervalCaseTemp	meaValTimeCaseTemp	sampleIntervalPressure	meaValTimePressure	sampleIntervalHumidity	meaValTimeHumidity
#35	30000	90	0	900	0	900	0	900	0	0	0	0	0	0	0	0
#referenceSettings	referenceMode (0=standard, 1=averaging, 2=smart averaging)	refDurationAveragingMode (ms)	refDurationStandardMode (ms)	timeLimitSmartAveragingMode (s)
#41	2	20	50	10	0	0
#
DateTime (YYYY-MM-DD hh:mm:ss)	Fraction of Second (ms)	Comment	status	dphi (0.001 )	umolar (0.001 umol/L)	mbar (0.001 mbar)	airSat (0.001 %air sat)	tempSample (0.001 C)	tempCase (0.001 C)	signalIntensity (0.001 mV)	ambientLight (0.001 mV)	pressure (0.001 mbar)	humidity (0.001 %RH)	resistorTemp (0.001 Ohm or 0.001 mV)	percentO2 (0.001 %O2)	tempOptical (0.001 C)	pH (0.001 pH)	ldev (0.001 nm)	-	-
2024-07-09 17:47:47			0	55135	0	0	0	29805	30530	108152	26658	1049672	41388	111090	0	0	-300000	54891	0	0
2024-07-09 17:48:47			0	48126	0	0	0	29838	29890	118243	65933	1049748	42056	111103	0	0	8747	219419	0	0
2024-07-09 17:49:47			0	41035	0	0	0	29870	29350	137516	45092	1049756	42744	111115	0	0	8283	428521	0	0
2024-07-09 17:50:47			0	35079	0	0	0	29849	29070	159967	45614	1049657	43064	111107	0	0	7936	656564	0	0
2024-07-09 17:51:47			0	31849	0	0	0	29867	28900	176263	46972	1049473	43239	111114	0	0	7714	810952	0	0
2024-07-09 17:52:47			0	29901	0	0	0	29857	28820	188237	47163	1049431	43387	111110	0	0	7547	918309	0	0
2024-07-09 17:53:47			0	28592	0	0	0	29870	28740	196992	48747	1049262	43457	111115	0	0	7407	998044	0	0
2024-07-09 17:54:47			0	27751	0	0	0	29880	28680	203375	48646	1049273	43519	111119	0	0	7297	1052965	0	0
2024-07-09 17:55:47			0	27058	0	0	0	29950	28640	209030	56903	1049283	43592	111146	0	0	7186	1100531	0	0
2024-07-09 17:56:47			0	26723	0	0	0	29945	28600	211826	57898	1049410	43633	111144	0	0	7124	1124479	0	0
2024-07-09 17:57:47			0	26519	0	0	0	29924	28590	213497	58167	1049446	43656	111136	0	0	7082	1139244	0	0
2024-07-09 17:58:47			0	26867	0	0	0	29394	28580	245370	114144	1049428	43709	110932	0	0	7161	1114356	0	0
2024-07-09 17:59:47			0	25361	0	0	0	29586	28560	239436	87122	1049438	43751	111006	0	0	6751	1227058	0	0
2024-07-09 18:00:47			0	25767	0	0	0	29412	28560	235433	68316	1049474	43797	110939	0	0	6900	1195505	0	0
2024-07-09 18:01:47			0	26600	0	0	0	29618	28560	226629	97544	1049528	43853	111018	0	0	7104	1133579	0	0
2024-07-09 18:02:47			0	27320	0	0	0	30148	28560	221230	30757	1049788	43864	111222	0	0	7225	1082881	0	0
2024-07-09 18:03:47			0	27687	0	0	0	30129	28560	218267	30509	1049797	43853	111215	0	0	7282	1057977	0	0
2024-07-09 18:04:47			0	27888	0	0	0	30161	28560	216707	30595	1049788	43875	111227	0	0	7310	1044594	0	0
2024-07-09 18:05:47			0	27978	0	0	0	30394	28550	215611	32176	1050076	43897	111317	0	0	7318	1038719	0	0
2024-07-09 18:06:47			0	28152	0	0	0	29836	28570	214471	45036	1050291	43943	111102	0	0	7351	1027224	0	0
2024-07-09 18:07:47			0	28650	0	0	0	28566	28520	209792	28050	1048083	43738	110613	0	0	7435	995657	0	0
2024-07-09 18:08:47			0	28981	0	0	0	28020	28360	207616	27258	1046481	43565	110403	0	0	7481	975937	0	0
2024-07-09 18:09:47			0	29223	0	0	0	28337	28160	205968	28143	1045437	43513	110525	0	0	7500	962227	0	0
2024-07-09 18:10:47			0	29429	0	0	0	28633	28010	205069	27239	1045289	43589	110639	0	0	7515	950593	0	0
2024-07-09 18:11:47			0	29616	0	0	0	28407	27930	204045	27618	1045140	43669	110552	0	0	7537	939847	0	0
2024-07-09 18:12:47			0	29773	0	0	0	28451	27860	203397	27434	1044855	43663	110569	0	0	7551	930931	0	0
2024-07-09 18:13:47			0	29908	0	0	0	28353	27780	202417	27301	1044490	43677	110531	0	0	7565	923434	0	0
2024-07-09 18:14:47			0	30057	0	0	0	28441	27720	201793	27791	1044483	43715	110565	0	0	7577	915078	0	0
2024-07-09 18:15:47			0	30172	0	0	0	28322	27660	201025	27289	1044036	43677	110519	0	0	7590	908748	0	0
2024-07-09 18:16:47			0	30297	0	0	0	28485	27610	200478	27171	1044163	43728	110582	0	0	7598	901837	0	0
2024-07-09 18:17:47			0	30422	0	0	0	28280	27580	199946	27523	1043967	43735	110503	0	0	7613	894871	0	0
2024-07-09 18:18:47			0	30537	0	0	0	28290	27540	199370	27085	1043735	43743	110507	0	0	7623	888571	0	0
2024-07-09 18:19:47			0	30647	0	0	0	28171	27510	198626	26967	1043512	43718	110461	0	0	7634	882541	0	0
2024-07-09 18:20:47			0	30757	0	0	0	28309	27450	198234	27137	1043218	43691	110514	0	0	7641	876700	0	0
2024-07-09 18:21:47			0	30868	0	0	0	28122	27410	197646	27748	1043094	43708	110442	0	0	7653	870739	0	0
2024-07-09 18:22:47			0	30965	0	0	0	28231	27380	197138	27614	1043014	43728	110484	0	0	7660	865536	0	0
2024-07-09 18:23:47			0	31066	0	0	0	28171	27350	196734	27353	1042899	43714	110461	0	0	7669	860142	0	0
2024-07-09 18:24:47			0	31177	0	0	0	28249	27300	196295	27334	1042712	43699	110491	0	0	7676	854332	0	0
2024-07-09 18:25:47			0	31280	0	0	0	28392	27280	195975	27364	1042838	43752	110546	0	0	7682	848844	0	0
2024-07-09 18:26:47			0	31363	0	0	0	28384	27270	195631	27310	1042901	43761	110543	0	0	7689	844415	0	0
2024-07-09 18:27:47			0	31466	0	0	0	28493	27270	195087	27159	1043027	43772	110585	0	0	7696	838888	0	0
2024-07-09 18:28:47			0	31564	0	0	0	28181	27270	194623	27045	1042982	43794	110465	0	0	7709	833659	0	0
2024-07-09 18:29:47			0	31644	0	0	0	28428	27260	194115	27204	1042911	43772	110560	0	0	7711	829460	0	0
2024-07-09 18:30:47			0	31739	0	0	0	28309	27260	193899	27261	1042848	43805	110514	0	0	7720	824441	0	0
2024-07-09 18:31:47			0	31826	0	0	0	28472	27250	193367	27194	1042911	43791	110577	0	0	7724	819916	0	0
2024-07-09 18:32:47			0	31911	0	0	0	28511	27240	193079	27170	1042974	43791	110592	0	0	7730	815517	0	0
2024-07-09 18:33:47			0	32011	0	0	0	28423	27250	192516	27000	1042911	43791	110558	0	0	7740	810266	0	0
2024-07-09 18:34:47			0	32079	0	0	0	28290	27240	192060	26824	1042921	43791	110507	0	0	7747	806791	0	0
2024-07-09 18:35:47			0	32183	0	0	0	28436	27240	191604	27289	1042983	43803	110563	0	0	7752	801430	0	0
2024-07-09 18:36:47			0	32262	0	0	0	28633	27240	191300	27848	1042983	43803	110639	0	0	7755	797378	0	0
2024-07-09 18:37:47			0	32348	0	0	0	28420	27240	190532	27786	1043010	43791	110557	0	0	7765	792988	0	0
2024-07-09 18:38:47			0	32445	0	0	0	28781	27250	190252	26909	1043073	43814	110696	0	0	7766	788015	0	0
2024-07-09 18:39:47			0	32534	0	0	0	28646	27240	189536	27663	1042956	43791	110644	0	0	7775	783563	0	0
2024-07-09 18:40:47			0	32605	0	0	0	28628	27240	188872	27511	1042974	43791	110637	0	0	7780	779990	0	0
2024-07-09 18:41:47			0	32715	0	0	0	28612	27240	188636	27175	1043225	43826	110631	0	0	7789	774483	0	0
2024-07-09 18:42:47			0	32802	0	0	0	28657	27260	187973	27402	1043233	43816	110648	0	0	7794	770062	0	0
2024-07-09 18:43:47			0	32865	0	0	0	28724	27260	187497	27289	1043153	43793	110674	0	0	7798	766937	0	0
2024-07-09 18:44:47			0	32969	0	0	0	28771	27260	187085	27783	1043395	43838	110692	0	0	7804	761802	0	0
2024-07-09 18:45:47			0	33060	0	0	0	28742	27290	186441	26819	1043493	43841	110681	0	0	7811	757203	0	0
2024-07-09 18:46:47			0	33154	0	0	0	28625	27300	185937	26736	1043403	43842	110636	0	0	7820	752567	0	0
2024-07-09 18:47:47			0	33229	0	0	0	28768	27310	185453	27048	1043582	43832	110691	0	0	7823	748876	0	0
2024-07-09 18:48:47			0	33327	0	0	0	28758	27310	185053	26797	1043590	43832	110687	0	0	7830	744131	0	0
2024-07-09 18:49:47			0	33414	0	0	0	28722	27310	184605	27039	1043662	43843	110673	0	0	7836	739940	0	0
2024-07-09 18:50:47			0	33482	0	0	0	28719	27330	184013	26948	1043652	43823	110672	0	0	7841	736593	0	0
2024-07-09 18:51:47			0	33570	0	0	0	28636	27330	183630	27045	1043733	43856	110640	0	0	7849	732389	0	0
2024-07-09 18:52:47			0	33655	0	0	0	28753	27340	183150	27043	1043796	43857	110685	0	0	7853	728305	0	0
2024-07-09 18:53:47			0	33723	0	0	0	28768	27350	182670	26675	1043795	43847	110691	0	0	7857	725042	0	0
2024-07-09 18:54:47			0	33813	0	0	0	28768	27360	182218	26967	1043804	43836	110691	0	0	7863	720756	0	0
2024-07-09 18:55:47			0	33882	0	0	0	28722	27350	181698	26994	1043714	43847	110673	0	0	7868	717556	0	0
2024-07-09 18:56:47			0	33961	0	0	0	28758	27350	181250	27020	1043714	43836	110687	0	0	7873	713860	0	0
2024-07-09 18:57:47			0	34040	0	0	0	28724	27360	180862	26741	1043696	43836	110674	0	0	7879	710138	0	0
2024-07-09 18:58:47			0	34122	0	0	0	28758	27360	180318	26967	1043813	43848	110687	0	0	7884	706332	0	0
2024-07-09 18:59:47			0	34207	0	0	0	28812	27360	180078	26757	1043786	43860	110708	0	0	7888	702405	0	0
2024-07-09 19:00:47			0	34261	0	0	0	28833	27370	179678	26987	1043929	43849	110716	0	0	7892	699878	0	0
2024-07-09 19:01:47			0	34360	0	0	0	28745	27400	179098	26804	1044009	43863	110682	0	0	7900	695219	0	0
2024-07-09 19:02:47			0	34442	0	0	0	28807	27390	178699	27199	1043919	43851	110706	0	0	7904	691516	0	0
2024-07-09 19:03:47			0	34526	0	0	0	28789	27400	178347	27402	1044017	43875	110699	0	0	7910	687659	0	0
2024-07-09 19:04:47			0	34605	0	0	0	28766	27410	177835	27222	1044062	43853	110690	0	0	7915	684044	0	0
2024-07-09 19:05:47			0	34675	0	0	0	28781	27410	177411	26908	1044026	43864	110696	0	0	7920	680888	0	0
2024-07-09 19:06:47			0	34777	0	0	0	28763	27410	177063	27142	1044035	43842	110689	0	0	7926	676310	0	0
2024-07-09 19:07:47			0	34843	0	0	0	28807	27420	176591	27192	1044080	43843	110706	0	0	7930	673321	0	0
2024-07-09 19:08:47			0	34925	0	0	0	28771	27420	176183	27291	1044071	43854	110692	0	0	7936	669669	0	0
2024-07-09 19:09:47			0	35011	0	0	0	28646	27420	175731	27036	1043856	43832	110644	0	0	7943	665855	0	0
2024-07-09 19:10:47			0	35107	0	0	0	28597	27400	175384	27031	1043578	43807	110625	0	0	7950	661693	0	0
2024-07-09 19:11:47			0	35178	0	0	0	28651	27370	174916	26987	1043588	43816	110646	0	0	7953	658685	0	0
2024-07-09 19:12:47			0	35260	0	0	0	28623	27360	174548	26859	1043624	43815	110635	0	0	7959	655130	0	0
2024-07-09 19:13:47			0	35313	0	0	0	28763	27360	174308	27149	1043678	43837	110689	0	0	7960	652816	0	0
2024-07-09 19:14:47			0	35414	0	0	0	28667	27360	173720	26955	1043597	43848	110652	0	0	7968	648422	0	0
2024-07-09 19:15:47			0	35487	0	0	0	28612	27350	173312	26996	1043580	43836	110631	0	0	7973	645297	0	0
2024-07-09 19:16:47			0	35559	0	0	0	28631	27350	173004	26998	1043499	43836	110638	0	0	7977	642190	0	0
2024-07-09 19:17:47			0	35642	0	0	0	28638	27350	172772	26918	1043490	43836	110641	0	0	7982	638621	0	0
2024-07-09 19:18:47			0	35716	0	0	0	28659	27340	172376	26733	1043482	43846	110649	0	0	7986	635487	0	0
2024-07-09 19:19:47			0	35789	0	0	0	28753	27340	171996	26889	1043562	43835	110685	0	0	7989	632371	0	0
2024-07-09 19:20:47			0	35864	0	0	0	28792	27340	171729	26946	1043661	43857	110700	0	0	7993	629181	0	0
2024-07-09 19:21:47			0	35952	0	0	0	28784	27360	171369	26750	1043831	43881	110697	0	0	7999	625381	0	0
2024-07-09 19:22:47			0	35993	0	0	0	28799	27360	171061	26759	1043884	43870	110703	0	0	8001	623649	0	0
2024-07-09 19:23:47			0	36071	0	0	0	28799	27370	170617	26986	1043965	43882	110703	0	0	8006	620329	0	0
2024-07-09 19:24:47			0	36136	0	0	0	28802	27390	170285	26724	1043946	43874	110704	0	0	8010	617530	0	0
2024-07-09 19:25:47			0	36215	0	0	0	28706	27400	170053	26589	1043901	43863	110667	0	0	8016	614191	0	0
2024-07-09 19:26:47			0	36282	0	0	0	28618	27400	169553	26557	1043874	43840	110633	0	0	8022	611400	0	0
2024-07-09 19:27:47			0	36358	0	0	0	28618	27390	169221	26889	1043776	43829	110633	0	0	8026	608279	0	0
2024-07-09 19:28:47			0	36429	0	0	0	28573	27370	168921	26965	1043534	43828	110616	0	0	8031	605410	0	0
2024-07-09 19:29:47			0	36506	0	0	0	28602	27360	168553	27033	1043508	43836	110627	0	0	8035	602269	0	0
2024-07-09 19:30:47			0	36561	0	0	0	28553	27340	168301	26764	1043455	43835	110608	0	0	8039	600076	0	0
2024-07-09 19:31:47			0	36613	0	0	0	28475	27330	167922	26955	1043249	43811	110578	0	0	8043	597978	0	0
2024-07-09 19:32:47			0	36705	0	0	0	28303	27300	167398	26902	1042981	43809	110512	0	0	8052	594319	0	0
2024-07-09 19:33:47			0	36757	0	0	0	28384	27280	167190	27026	1042919	43808	110543	0	0	8053	592268	0	0
2024-07-09 19:34:47			0	36855	0	0	0	28522	27270	167106	26719	1043000	43816	110596	0	0	8057	588321	0	0
2024-07-09 19:35:47			0	36903	0	0	0	28319	27270	166530	26811	1042920	43838	110518	0	0	8063	586378	0	0
2024-07-09 19:36:47			0	36963	0	0	0	28353	27250	166290	26540	1042750	43814	110531	0	0	8066	584023	0	0
2024-07-09 19:37:47			0	37029	0	0	0	28153	27210	165898	26831	1042428	43779	110454	0	0	8073	581499	0	0
2024-07-09 19:38:47			0	37104	0	0	0	28028	27180	165558	26710	1042179	43763	110406	0	0	8079	578588	0	0
2024-07-09 19:39:47			0	37162	0	0	0	28244	27150	165330	26856	1042081	43773	110489	0	0	8079	576365	0	0
2024-07-09 19:40:47			0	37223	0	0	0	28498	27130	165310	26571	1042342	43815	110587	0	0	8078	573996	0	0
2024-07-09 19:41:47			0	37277	0	0	0	28545	27140	165178	26844	1042565	43837	110605	0	0	8080	571813	0	0
2024-07-09 19:42:47			0	37332	0	0	0	28129	27150	164775	26637	1042430	43829	110445	0	0	8091	569595	0	0
2024-07-09 19:43:47			0	37397	0	0	0	28548	27160	164659	26661	1042547	43839	110606	0	0	8087	566988	0	0
2024-07-09 19:44:47			0	37443	0	0	0	28550	27160	164403	26571	1042762	43862	110607	0	0	8090	565171	0	0
2024-07-09 19:45:47			0	37500	0	0	0	28516	27170	164219	26701	1042815	43852	110594	0	0	8094	562892	0	0
2024-07-09 19:46:47			0	37562	0	0	0	28571	27190	164035	26708	1042868	43866	110615	0	0	8097	560390	0	0
2024-07-09 19:47:47			0	37597	0	0	0	28467	27190	163699	26942	1042922	43854	110575	0	0	8101	559018	0	0
2024-07-09 19:48:47			0	37657	0	0	0	28418	27210	163463	26986	1042957	43867	110556	0	0	8105	556606	0	0
2024-07-09 19:49:47			0	37714	0	0	0	28415	27200	163167	26871	1042725	43832	110555	0	0	8108	554413	0	0
2024-07-09 19:50:47			0	37772	0	0	0	28410	27190	162943	26859	1042797	43832	110553	0	0	8112	552188	0	0
2024-07-09 19:51:47			0	37827	0	0	0	28374	27180	162651	26896	1042618	43809	110539	0	0	8115	550084	0	0
2024-07-09 19:52:47			0	37895	0	0	0	27802	27160	162163	26831	1042233	43774	110319	0	0	8129	547513	0	0
2024-07-09 19:53:47			0	37950	0	0	0	28348	27120	162191	26599	1042028	43770	110529	0	0	8123	545514	0	0
2024-07-09 19:54:47			0	38019	0	0	0	28392	27110	162075	26785	1042145	43812	110546	0	0	8126	542887	0	0
2024-07-09 19:55:47			0	38060	0	0	0	27875	27110	161488	27022	1042190	43824	110347	0	0	8137	541312	0	0
2024-07-09 19:56:47			0	38126	0	0	0	27784	27090	161228	26981	1041707	43777	110312	0	0	8142	538843	0	0
2024-07-09 19:57:47			0	38176	0	0	0	27935	27060	161120	26975	1041565	43763	110370	0	0	8142	537024	0	0
2024-07-09 19:58:47			0	38238	0	0	0	28368	27040	161240	26906	1041771	43784	110537	0	0	8139	534719	0	0
2024-07-09 19:59:47			0	38274	0	0	0	28137	27030	160920	26748	1041924	43816	110448	0	0	8145	533379	0	0
2024-07-09 20:00:47			0	38335	0	0	0	27927	27040	160588	26769	1041969	43829	110367	0	0	8152	531031	0	0
2024-07-09 20:01:47			0	38387	0	0	0	28031	27040	160304	26798	1041754	43806	110407	0	0	8153	529060	0	0
2024-07-09 20:02:47			0	38438	0	0	0	28454	27030	160396	26693	1041915	43815	110570	0	0	8149	527162	0	0
2024-07-09 20:03:47			0	38448	0	0	0	28225	27050	160196	26684	1042147	43851	110482	0	0	8153	526723	0	0
2024-07-09 20:04:47			0	38508	0	0	0	28425	27050	160004	26887	1042121	43840	110559	0	0	8153	524461	0	0
2024-07-09 20:05:47			0	38550	0	0	0	28545	27060	159952	26915	1042210	43831	110605	0	0	8154	522851	0	0
2024-07-09 20:06:47			0	38585	0	0	0	28602	27080	159808	26736	1042460	43854	110627	0	0	8155	521477	0	0
2024-07-09 20:07:47			0	38643	0	0	0	28223	27100	159392	26639	1042585	43868	110481	0	0	8165	519244	0	0
2024-07-09 20:08:47			0	38689	0	0	0	28467	27110	159308	26835	1042540	43857	110575	0	0	8163	517494	0	0
2024-07-09 20:09:47			0	38724	0	0	0	28454	27110	159225	26838	1042548	43857	110570	0	0	8165	516188	0	0
2024-07-09 20:10:47			0	38775	0	0	0	28361	27120	159057	26975	1042566	43847	110534	0	0	8170	514259	0	0
2024-07-09 20:11:47			0	38827	0	0	0	28332	27120	158661	26889	1042530	43835	110523	0	0	8173	512327	0	0
2024-07-09 20:12:47			0	38842	0	0	0	28415	27130	158649	26798	1042602	43847	110555	0	0	8173	511741	0	0
2024-07-09 20:13:47			0	38888	0	0	0	27646	27130	157989	26798	1042368	43860	110259	0	0	8188	510036	0	0
2024-07-09 20:14:47			0	38959	0	0	0	27680	27120	157781	26736	1042073	43791	110272	0	0	8192	507441	0	0
2024-07-09 20:15:47			0	39021	0	0	0	28033	27090	157781	26734	1042056	43789	110408	0	0	8189	505243	0	0
2024-07-09 20:16:47			0	39046	0	0	0	28441	27090	157861	26767	1042263	43822	110565	0	0	8184	504323	0	0
2024-07-09 20:17:47			0	39087	0	0	0	27799	27090	157481	26955	1042056	43811	110318	0	0	8197	502816	0	0
2024-07-09 20:18:47			0	39116	0	0	0	27940	27050	157393	26674	1041547	43751	110372	0	0	8196	501868	0	0
2024-07-09 20:19:47			0	39179	0	0	0	27496	27000	157117	26878	1040957	43703	110201	0	0	8207	499704	0	0
2024-07-09 20:20:47			0	39222	0	0	0	28059	26930	157169	27031	1040835	43707	110418	0	0	8200	498332	0	0
2024-07-09 20:21:47			0	39253	0	0	0	28096	26900	157153	26937	1040997	43737	110432	0	0	8201	497286	0	0
2024-07-09 20:22:47			0	39299	0	0	0	27999	26870	157037	26779	1040953	43746	110395	0	0	8205	495694	0	0
2024-07-09 20:23:47			0	39336	0	0	0	28340	26870	156981	26615	1041141	43791	110526	0	0	8201	494347	0	0
2024-07-09 20:24:47			0	39369	0	0	0	28038	26870	156725	26637	1041060	43791	110410	0	0	8208	493148	0	0
2024-07-09 20:25:47			0	39416	0	0	0	27875	26870	156534	26734	1041025	43790	110347	0	0	8214	491443	0	0
2024-07-09 20:26:47			0	39463	0	0	0	28135	26840	156418	26705	1040793	43764	110447	0	0	8212	489825	0	0
2024-07-09 20:27:47			0	39502	0	0	0	28062	26830	156358	26743	1040936	43786	110419	0	0	8215	488443	0	0
2024-07-09 20:28:47			0	39524	0	0	0	28109	26820	156246	26817	1040785	43774	110437	0	0	8216	487677	0	0
2024-07-09 20:29:47			0	39564	0	0	0	28238	26830	156150	26566	1041062	43808	110487	0	0	8216	486207	0	0
2024-07-09 20:30:47			0	39596	0	0	0	27992	26840	155914	26583	1041079	43831	110392	0	0	8222	485027	0	0
2024-07-09 20:31:47			0	39645	0	0	0	27992	26830	155790	26542	1040793	43786	110392	0	0	8224	483294	0	0
2024-07-09 20:32:47			0	39690	0	0	0	27940	26800	155458	26719	1040535	43760	110372	0	0	8228	481762	0	0
2024-07-09 20:33:47			0	39717	0	0	0	28186	26800	155546	26689	1040687	43782	110467	0	0	8225	480795	0	0
2024-07-09 20:34:47			0	39766	0	0	0	28296	26800	155526	26868	1040929	43815	110509	0	0	8226	479043	0	0
2024-07-09 20:35:47			0	39777	0	0	0	28173	26810	155354	26684	1041054	43850	110462	0	0	8229	478622	0	0
2024-07-09 20:36:47			0	39810	0	0	0	27844	26810	155130	26587	1040624	43784	110335	0	0	8236	477445	0	0
2024-07-09 20:37:47			0	39845	0	0	0	27854	26780	155094	26635	1040392	43759	110339	0	0	8238	476279	0	0
2024-07-09 20:38:47			0	39882	0	0	0	27753	26750	154782	26651	1040116	43744	110300	0	0	8242	475044	0	0
2024-07-09 20:39:47			0	39922	0	0	0	28150	26710	154834	26791	1040296	43762	110453	0	0	8237	473731	0	0
2024-07-09 20:40:47			0	39945	0	0	0	28046	26730	154802	26863	1040483	43820	110413	0	0	8240	472861	0	0
2024-07-09 20:41:47			0	39963	0	0	0	28189	26730	154822	26779	1040618	43842	110468	0	0	8239	472223	0	0
2024-07-09 20:42:47			0	40000	0	0	0	28161	26740	154738	26849	1040769	43832	110457	0	0	8241	470885	0	0
2024-07-09 20:43:47			0	40038	0	0	0	27867	26740	154434	26379	1040563	43811	110344	0	0	8249	469541	0	0
2024-07-09 20:44:47			0	40084	0	0	0	27997	26740	154350	26667	1040313	43788	110394	0	0	8249	467917	0	0
2024-07-09 20:45:47			0	40100	0	0	0	28101	26720	154182	26680	1040385	43797	110434	0	0	8248	467407	0	0
2024-07-09 20:46:47			0	40118	0	0	0	28215	26720	154207	26701	1040636	43820	110478	0	0	8247	466772	0	0
2024-07-09 20:47:47			0	40147	0	0	0	28109	26740	154071	26987	1040725	43833	110437	0	0	8251	465698	0	0
2024-07-09 20:48:47			0	40180	0	0	0	28158	26740	153971	26896	1040886	43844	110456	0	0	8252	464538	0	0
2024-07-09 20:49:47			0	40199	0	0	0	27999	26750	153759	26710	1040653	43822	110395	0	0	8256	463844	0	0
2024-07-09 20:50:47			0	40241	0	0	0	27966	26740	153659	26857	1040429	43799	110382	0	0	8258	462398	0	0
2024-07-09 20:51:47			0	40284	0	0	0	27997	26720	153559	26700	1040367	43787	110394	0	0	8260	460945	0	0
2024-07-09 20:52:47			0	40317	0	0	0	28036	26720	153499	26951	1040528	43820	110409	0	0	8262	459792	0	0
2024-07-09 20:53:47			0	40329	0	0	0	28124	26720	153399	26871	1040520	43819	110443	0	0	8261	459373	0	0
2024-07-09 20:54:47			0	40355	0	0	0	28083	26720	153211	26771	1040663	43842	110427	0	0	8263	458465	0	0
2024-07-09 20:55:47			0	40389	0	0	0	28218	26730	153199	26823	1040788	43853	110479	0	0	8263	457254	0	0
2024-07-09 20:56:47			0	40411	0	0	0	28231	26760	153191	27116	1040885	43845	110484	0	0	8264	456410	0	0
2024-07-09 20:57:47			0	40443	0	0	0	28031	26760	152991	26989	1040840	43846	110407	0	0	8269	455297	0	0
2024-07-09 20:58:47			0	40440	0	0	0	28101	26770	152811	26653	1040741	43835	110434	0	0	8268	455375	0	0
2024-07-09 20:59:47			0	40470	0	0	0	28275	26780	152911	26781	1040947	43847	110501	0	0	8266	454307	0	0
2024-07-09 21:00:47			0	40495	0	0	0	28176	26790	152727	26941	1041099	43860	110463	0	0	8270	453414	0	0
2024-07-09 21:01:47			0	40515	0	0	0	28199	26800	152691	26748	1041152	43850	110472	0	0	8270	452695	0	0
2024-07-09 21:02:47			0	40537	0	0	0	28267	26810	152535	27116	1041188	43873	110498	0	0	8271	451908	0	0
2024-07-09 21:03:47			0	40549	0	0	0	28254	26830	152479	26601	1041259	43864	110493	0	0	8272	451441	0	0
2024-07-09 21:04:47			0	40574	0	0	0	28316	26850	152535	26991	1041374	43855	110517	0	0	8272	450525	0	0
2024-07-09 21:05:47			0	40590	0	0	0	28371	26860	152343	26573	1041437	43855	110538	0	0	8272	449947	0	0
2024-07-09 21:06:47			0	40616	0	0	0	28202	26880	152211	26469	1041534	43857	110473	0	0	8276	448998	0	0
2024-07-09 21:07:47			0	40612	0	0	0	28293	26880	152135	26897	1041534	43868	110508	0	0	8275	449136	0	0
2024-07-09 21:08:47			0	40639	0	0	0	28381	26900	152187	26772	1041561	43859	110542	0	0	8275	448154	0	0
2024-07-09 21:09:47			0	40670	0	0	0	28381	26910	152187	26724	1041695	43861	110542	0	0	8277	447062	0	0
2024-07-09 21:10:47			0	40668	0	0	0	28231	26910	152079	26674	1041614	43872	110484	0	0	8279	447130	0	0
2024-07-09 21:11:47			0	40670	0	0	0	28288	26920	151831	26798	1041596	43838	110506	0	0	8278	447036	0	0
2024-07-09 21:12:47			0	40712	0	0	0	28111	26920	151819	26786	1041551	43850	110438	0	0	8284	445593	0	0
2024-07-09 21:13:47			0	40737	0	0	0	28049	26920	151659	26580	1041381	43849	110414	0	0	8286	444735	0	0
2024-07-09 21:14:47			0	40736	0	0	0	28225	26910	151571	26616	1041372	43838	110482	0	0	8283	444794	0	0
2024-07-09 21:15:47			0	40763	0	0	0	28220	26900	151655	26257	1041435	43860	110480	0	0	8285	443894	0	0
2024-07-09 21:16:47			0	40764	0	0	0	28054	26910	151407	26493	1041390	43849	110416	0	0	8288	443834	0	0
2024-07-09 21:17:47			0	40797	0	0	0	28083	26890	151292	26400	1041337	43826	110427	0	0	8289	442755	0	0
2024-07-09 21:18:47			0	40809	0	0	0	28163	26880	151452	26795	1041230	43813	110458	0	0	8288	442370	0	0
2024-07-09 21:19:47			0	40843	0	0	0	28072	26870	151364	26795	1041114	43824	110423	0	0	8292	441233	0	0
2024-07-09 21:20:47			0	40866	0	0	0	28155	26860	151288	26774	1041123	43811	110455	0	0	8291	440473	0	0
2024-07-09 21:21:47			0	40892	0	0	0	28049	26850	151184	26620	1040971	43811	110414	0	0	8295	439611	0	0
2024-07-09 21:22:47			0	40916	0	0	0	28077	26830	151160	26908	1040990	43808	110425	0	0	8295	438843	0	0
2024-07-09 21:23:47			0	40946	0	0	0	28067	26840	151072	26986	1040972	43820	110421	0	0	8297	437797	0	0
2024-07-09 21:24:47			0	40973	0	0	0	28142	26820	151020	26698	1040883	43817	110450	0	0	8298	436928	0	0
2024-07-09 21:25:47			0	41003	0	0	0	28080	26810	150880	26750	1040955	43839	110426	0	0	8300	435934	0	0
2024-07-09 21:26:47			0	41017	0	0	0	27961	26810	150784	26521	1040848	43817	110380	0	0	8303	435459	0	0
2024-07-09 21:27:47			0	41044	0	0	0	27992	26800	150676	26543	1040687	43804	110392	0	0	8304	434568	0	0
2024-07-09 21:28:47			0	41068	0	0	0	28173	26790	150704	26575	1040732	43815	110462	0	0	8302	433779	0	0
2024-07-09 21:29:47			0	41078	0	0	0	28186	26790	150720	27072	1040884	43849	110467	0	0	8303	433441	0	0
2024-07-09 21:30:47			0	41077	0	0	0	28210	26790	150660	26712	1041001	43837	110476	0	0	8302	433474	0	0
2024-07-09 21:31:47			0	41107	0	0	0	28283	26810	150588	26672	1041143	43850	110504	0	0	8303	432410	0	0
2024-07-09 21:32:47			0	41133	0	0	0	28298	26820	150488	26490	1041286	43862	110510	0	0	8304	431506	0	0
2024-07-09 21:33:47			0	41146	0	0	0	28210	26840	150468	26691	1041276	43875	110476	0	0	8306	431018	0	0
2024-07-09 21:34:47			0	41170	0	0	0	28246	26850	150320	26731	1041285	43843	110490	0	0	8307	430183	0	0
2024-07-09 21:35:47			0	41166	0	0	0	28327	26850	150368	26840	1041321	43867	110521	0	0	8306	430318	0	0
2024-07-09 21:36:47			0	41182	0	0	0	28342	26870	150352	26791	1041428	43878	110527	0	0	8306	429730	0	0
2024-07-09 21:37:47			0	41193	0	0	0	28358	26870	150344	26727	1041508	43878	110533	0	0	8307	429359	0	0
2024-07-09 21:38:47			0	41208	0	0	0	28324	26890	150144	26746	1041570	43891	110520	0	0	8308	428805	0	0
2024-07-09 21:39:47			0	41221	0	0	0	28272	26890	150072	26989	1041516	43869	110500	0	0	8310	428367	0	0
2024-07-09 21:40:47			0	41219	0	0	0	28353	26910	150116	26668	1041587	43861	110531	0	0	8309	428385	0	0
2024-07-09 21:41:47			0	41249	0	0	0	28386	26910	150020	26807	1041695	43872	110544	0	0	8310	427377	0	0
2024-07-09 21:42:47			0	41257	0	0	0	28374	26920	149988	26715	1041793	43884	110539	0	0	8310	427083	0	0
2024-07-09 21:43:47			0	41247	0	0	0	28428	26930	149940	26946	1041784	43884	110560	0	0	8309	427395	0	0
2024-07-09 21:44:47			0	41272	0	0	0	28394	26950	149944	26578	1041864	43909	110547	0	0	8311	426506	0	0
2024-07-09 21:45:47			0	41270	0	0	0	28389	26960	149812	26791	1041989	43876	110545	0	0	8311	426549	0	0
2024-07-09 21:46:47			0	41292	0	0	0	28350	26970	149756	26627	1041944	43876	110530	0	0	8313	425786	0	0
2024-07-09 21:47:47			0	41315	0	0	0	28340	26980	149644	26925	1041943	43878	110526	0	0	8315	424991	0	0
2024-07-09 21:48:47			0	41310	0	0	0	28316	26980	149736	27090	1041908	43867	110517	0	0	8315	425158	0	0
2024-07-09 21:49:47			0	41337	0	0	0	28249	26980	149456	26913	1041746	43855	110491	0	0	8317	424254	0	0
2024-07-09 21:50:47			0	41363	0	0	0	28270	26970	149456	26589	1041738	43844	110499	0	0	8318	423409	0	0
2024-07-09 21:51:47			0	41409	0	0	0	28293	26960	149396	26963	1041711	43853	110508	0	0	8321	421896	0	0
2024-07-09 21:52:47			0	41401	0	0	0	28241	26960	149228	26913	1041586	43832	110488	0	0	8321	422163	0	0
2024-07-09 21:53:47			0	41425	0	0	0	28257	26950	149188	26840	1041595	43853	110494	0	0	8322	421386	0	0
2024-07-09 21:54:47			0	41439	0	0	0	28223	26940	149157	26925	1041551	43841	110481	0	0	8324	420943	0	0
2024-07-09 21:55:47			0	41470	0	0	0	28220	26920	149081	26748	1041471	43862	110480	0	0	8325	419958	0	0
2024-07-09 21:56:47			0	41491	0	0	0	28199	26930	149061	26837	1041542	43840	110472	0	0	8327	419235	0	0
2024-07-09 21:57:47			0	41524	0	0	0	28103	26910	148825	26889	1041372	43838	110435	0	0	8330	418185	0	0
2024-07-09 21:58:47			0	41516	0	0	0	28179	26910	148805	26798	1041363	43837	110464	0	0	8329	418451	0	0
2024-07-09 21:59:47			0	41567	0	0	0	28124	26900	148837	27152	1041292	43859	110443	0	0	8332	416781	0	0
2024-07-09 22:00:47			0	41595	0	0	0	28098	26900	148717	27045	1041274	43849	110433	0	0	8334	415852	0	0
2024-07-09 22:01:47			0	41600	0	0	0	28142	26880	148601	26982	1041185	43834	110450	0	0	8334	415734	0	0
2024-07-09 22:02:47			0	41636	0	0	0	28153	26870	148557	26833	1041159	43845	110454	0	0	8336	414565	0	0
2024-07-09 22:03:47			0	41644	0	0	0	28127	26850	148461	26797	1041186	43855	110444	0	0	8337	414348	0	0
2024-07-09 22:04:47			0	41655	0	0	0	28173	26860	148397	26835	1041123	43844	110462	0	0	8337	413961	0	0
2024-07-09 22:05:47			0	41686	0	0	0	28186	26850	148457	26686	1041106	43855	110467	0	0	8338	412959	0	0
2024-07-09 22:06:47			0	41688	0	0	0	28223	26860	148361	26932	1041195	43855	110481	0	0	8338	412870	0	0
2024-07-09 22:07:47			0	41730	0	0	0	28212	26850	148365	27095	1041159	43855	110477	0	0	8340	411507	0	0
2024-07-09 22:08:47			0	41715	0	0	0	28215	26860	148293	27268	1041249	43855	110478	0	0	8339	411978	0	0
2024-07-09 22:09:47			0	41742	0	0	0	28215	26840	148213	26932	1041249	43865	110478	0	0	8341	411135	0	0
2024-07-09 22:10:47			0	41764	0	0	0	28202	26860	148145	26987	1041284	43867	110473	0	0	8342	410363	0	0
2024-07-09 22:11:47			0	41770	0	0	0	28223	26870	148129	26537	1041293	43868	110481	0	0	8342	410141	0	0
2024-07-09 22:12:47			0	41791	0	0	0	28259	26860	148077	26807	1041303	43877	110495	0	0	8343	409474	0	0
2024-07-09 22:13:47			0	41811	0	0	0	28251	26880	147997	26887	1041338	43879	110492	0	0	8344	408769	0	0
2024-07-09 22:14:47			0	41836	0	0	0	28231	26860	148033	26760	1041338	43888	110484	0	0	8346	407994	0	0
2024-07-09 22:15:47			0	41832	0	0	0	28220	26870	147921	26821	1041240	43845	110480	0	0	8346	408102	0	0
2024-07-09 22:16:47			0	41843	0	0	0	28233	26860	147893	26837	1041338	43855	110485	0	0	8346	407764	0	0
2024-07-09 22:17:47			0	41866	0	0	0	28233	26860	147837	26642	1041231	43855	110485	0	0	8348	407009	0	0
2024-07-09 22:18:47			0	41884	0	0	0	28246	26860	147809	26826	1041258	43867	110490	0	0	8349	406419	0	0
2024-07-09 22:19:47			0	41887	0	0	0	28272	26860	147729	26840	1041365	43867	110500	0	0	8348	406321	0	0
2024-07-09 22:20:47			0	41886	0	0	0	28259	26870	147693	26830	1041374	43868	110495	0	0	8348	406330	0	0
2024-07-09 22:21:47			0	41906	0	0	0	28267	26870	147601	26974	1041329	43868	110498	0	0	8350	405675	0	0
2024-07-09 22:22:47			0	41947	0	0	0	28306	26870	147625	26753	1041436	43890	110513	0	0	8351	404333	0	0
2024-07-09 22:23:47			0	41933	0	0	0	28329	26880	147585	26765	1041445	43890	110522	0	0	8350	404768	0	0
2024-07-09 22:24:47			0	41958	0	0	0	28355	26880	147585	27026	1041481	43879	110532	0	0	8351	403950	0	0
2024-07-09 22:25:47			0	41970	0	0	0	28337	26890	147473	27076	1041490	43880	110525	0	0	8352	403535	0	0
2024-07-09 22:26:47			0	41991	0	0	0	28327	26900	147509	26757	1041543	43871	110521	0	0	8354	402826	0	0
2024-07-09 22:27:47			0	41985	0	0	0	28340	26910	147349	26719	1041605	43882	110526	0	0	8353	402999	0	0
2024-07-09 22:28:47			0	41992	0	0	0	28316	26910	147297	27208	1041587	43894	110517	0	0	8354	402770	0	0
2024-07-09 22:29:47			0	41999	0	0	0	28319	26930	147233	27092	1041596	43884	110518	0	0	8354	402496	0	0
2024-07-09 22:30:47			0	42013	0	0	0	28316	26930	147341	27059	1041614	43884	110517	0	0	8355	402039	0	0
2024-07-09 22:31:47			0	42027	0	0	0	28316	26920	147117	26802	1041605	43884	110517	0	0	8356	401606	0	0
2024-07-09 22:32:47			0	42034	0	0	0	28314	26920	147169	26800	1041596	43883	110516	0	0	8356	401378	0	0
2024-07-09 22:33:47			0	42035	0	0	0	28306	26920	147069	26991	1041596	43905	110513	0	0	8357	401345	0	0
2024-07-09 22:34:47			0	42057	0	0	0	28285	26930	147121	26923	1041533	43873	110505	0	0	8358	400606	0	0
2024-07-09 22:35:47			0	42057	0	0	0	28254	26930	147049	26965	1041614	43873	110493	0	0	8359	400606	0	0
2024-07-09 22:36:47			0	42070	0	0	0	28236	26910	147021	26646	1041507	43883	110486	0	0	8360	400228	0	0
2024-07-09 22:37:47			0	42096	0	0	0	28241	26910	147018	26757	1041417	43849	110488	0	0	8361	399383	0	0
2024-07-09 22:38:47			0	42096	0	0	0	28218	26890	146986	26552	1041310	43870	110479	0	0	8361	399428	0	0
2024-07-09 22:39:47			0	42090	0	0	0	28207	26880	146922	26909	1041293	43846	110475	0	0	8361	399646	0	0
2024-07-09 22:40:47			0	42104	0	0	0	28199	26870	146826	26646	1041240	43868	110472	0	0	8362	399214	0	0
2024-07-09 22:41:47			0	42111	0	0	0	28199	26870	146902	26573	1041266	43856	110472	0	0	8363	398987	0	0
2024-07-09 22:42:47			0	42124	0	0	0	28202	26870	146842	26882	1041213	43868	110473	0	0	8363	398564	0	0
2024-07-09 22:43:47			0	42123	0	0	0	28215	26870	146862	26693	1041248	43868	110478	0	0	8363	398597	0	0
2024-07-09 22:44:47			0	42137	0	0	0	28223	26870	146766	26620	1041240	43856	110481	0	0	8364	398142	0	0
2024-07-09 22:45:47			0	42140	0	0	0	28210	26850	146670	26504	1041204	43876	110476	0	0	8364	398090	0	0
2024-07-09 22:46:47			0	42142	0	0	0	28197	26860	146774	26620	1041168	43867	110471	0	0	8364	398003	0	0
2024-07-09 22:47:47			0	42153	0	0	0	28210	26850	146706	26748	1041178	43866	110476	0	0	8365	397669	0	0
2024-07-09 22:48:47			0	42177	0	0	0	28212	26860	146650	26755	1041204	43877	110477	0	0	8366	396867	0	0
2024-07-09 22:49:47			0	42173	0	0	0	28207	26850	146714	26746	1041151	43876	110475	0	0	8366	397020	0	0
2024-07-09 22:50:47			0	42208	0	0	0	28220	26850	146646	26767	1041178	43876	110480	0	0	8368	395886	0	0
2024-07-09 22:51:47			0	42205	0	0	0	28220	26840	146606	26890	1041133	43875	110480	0	0	8368	396006	0	0
2024-07-09 22:52:47			0	42219	0	0	0	28225	26840	146594	26857	1041169	43875	110482	0	0	8368	395552	0	0
2024-07-09 22:53:47			0	42221	0	0	0	28223	26850	146462	26982	1041204	43876	110481	0	0	8369	395465	0	0
2024-07-09 22:54:47			0	42230	0	0	0	28215	26850	146478	26901	1041159	43867	110478	0	0	8369	395174	0	0
2024-07-09 22:55:47			0	42244	0	0	0	28215	26850	146450	26660	1041178	43876	110478	0	0	8370	394721	0	0
2024-07-09 22:56:47			0	42260	0	0	0	28223	26850	146402	26842	1041204	43876	110481	0	0	8371	394204	0	0
2024-07-09 22:57:47			0	42264	0	0	0	28215	26830	146366	26965	1041205	43875	110478	0	0	8371	394120	0	0
2024-07-09 22:58:47			0	42256	0	0	0	28212	26840	146386	26677	1041187	43875	110477	0	0	8371	394356	0	0
2024-07-09 22:59:47			0	42269	0	0	0	28205	26840	146250	27072	1041133	43875	110474	0	0	8372	393936	0	0
2024-07-09 23:00:47			0	42294	0	0	0	28205	26830	146354	27111	1041178	43875	110474	0	0	8373	393151	0	0
2024-07-09 23:01:47			0	42302	0	0	0	28205	26820	146278	26961	1041107	43863	110474	0	0	8373	392915	0	0
2024-07-09 23:02:47			0	42319	0	0	0	28199	26830	146258	26717	1041089	43885	110472	0	0	8375	392344	0	0
2024-07-09 23:03:47			0	42328	0	0	0	28197	26820	146286	27036	1041053	43874	110471	0	0	8375	392077	0	0
2024-07-09 23:04:47			0	42344	0	0	0	28197	26830	146202	26679	1041062	43885	110471	0	0	8376	391539	0	0
2024-07-09 23:05:47			0	42336	0	0	0	28197	26820	146226	26694	1041080	43884	110471	0	0	8376	391819	0	0
2024-07-09 23:06:47			0	42369	0	0	0	28189	26830	146094	27003	1041035	43864	110468	0	0	8378	390734	0	0
2024-07-09 23:07:47			0	42373	0	0	0	28192	26820	146182	26790	1041018	43873	110469	0	0	8378	390627	0	0
2024-07-09 23:08:47			0	42369	0	0	0	28173	26810	146226	26831	1041036	43873	110462	0	0	8378	390779	0	0
2024-07-09 23:09:47			0	42405	0	0	0	28179	26810	146150	27088	1041000	43884	110464	0	0	8380	389621	0	0
2024-07-09 23:10:47			0	42384	0	0	0	28163	26810	146146	26922	1040946	43873	110458	0	0	8379	390296	0	0
2024-07-09 23:11:47			0	42388	0	0	0	28166	26810	146046	26438	1040982	43873	110459	0	0	8379	390167	0	0
2024-07-09 23:12:47			0	42394	0	0	0	28161	26800	146026	26424	1040964	43883	110457	0	0	8379	389996	0	0
2024-07-09 23:13:47			0	42396	0	0	0	28158	26790	146006	26729	1040920	43871	110456	0	0	8380	389955	0	0
2024-07-09 23:14:47			0	42427	0	0	0	28150	26790	146030	26604	1040884	43871	110453	0	0	8382	388958	0	0
2024-07-09 23:15:47			0	42426	0	0	0	28153	26790	145982	26627	1040911	43860	110454	0	0	8381	388991	0	0
2024-07-09 23:16:47			0	42424	0	0	0	28150	26780	146038	26878	1040821	43881	110453	0	0	8381	389077	0	0
2024-07-09 23:17:47			0	42424	0	0	0	28145	26780	146074	26831	1040848	43892	110451	0	0	8381	389077	0	0
2024-07-09 23:18:47			0	42433	0	0	0	28137	26770	146058	26748	1040831	43869	110448	0	0	8382	388810	0	0
2024-07-09 23:19:47			0	42447	0	0	0	28129	26770	146030	26504	1040777	43880	110445	0	0	8383	388361	0	0
2024-07-09 23:20:47			0	42444	0	0	0	28132	26770	145942	26488	1040795	43880	110446	0	0	8383	388457	0	0
2024-07-09 23:21:47			0	42460	0	0	0	28124	26760	145918	26752	1040760	43857	110443	0	0	8384	387966	0	0
2024-07-09 23:22:47			0	42469	0	0	0	28111	26750	145894	26875	1040706	43867	110438	0	0	8385	387699	0	0
2024-07-09 23:23:47			0	42458	0	0	0	28111	26750	145986	26889	1040653	43867	110438	0	0	8384	388052	0	0
2024-07-09 23:24:47			0	42479	0	0	0	28109	26750	145842	26790	1040661	43877	110437	0	0	8385	387378	0	0
2024-07-09 23:25:47			0	42495	0	0	0	28109	26750	145838	26866	1040661	43867	110437	0	0	8386	386866	0	0
2024-07-09 23:26:47			0	42477	0	0	0	28101	26740	145942	26710	1040698	43877	110434	0	0	8385	387465	0	0
2024-07-09 23:27:47			0	42490	0	0	0	28093	26750	145890	26856	1040653	43877	110431	0	0	8386	387026	0	0
2024-07-09 23:28:47			0	42492	0	0	0	28103	26740	145842	26849	1040608	43876	110435	0	0	8386	386984	0	0
2024-07-09 23:29:47			0	42496	0	0	0	28111	26740	145706	26689	1040635	43866	110438	0	0	8386	386856	0	0
2024-07-09 23:30:47			0	42496	0	0	0	28096	26730	145794	26511	1040591	43886	110432	0	0	8386	386878	0	0
2024-07-09 23:31:47			0	42520	0	0	0	28096	26720	145786	26670	1040609	43875	110432	0	0	8388	386131	0	0
2024-07-09 23:32:47			0	42522	0	0	0	28096	26730	145714	26342	1040573	43875	110432	0	0	8388	386045	0	0
2024-07-09 23:33:47			0	42520	0	0	0	28096	26720	145742	27123	1040582	43875	110432	0	0	8388	386131	0	0
2024-07-09 23:34:47			0	42539	0	0	0	28096	26730	145682	27005	1040591	43875	110432	0	0	8389	385501	0	0
2024-07-09 23:35:47			0	42538	0	0	0	28090	26720	145682	26646	1040582	43886	110430	0	0	8389	385555	0	0
2024-07-09 23:36:47			0	42548	0	0	0	28088	26720	145638	26720	1040520	43885	110429	0	0	8389	385235	0	0
2024-07-09 23:37:47			0	42569	0	0	0	28083	26720	145674	26793	1040609	43886	110427	0	0	8391	384564	0	0
2024-07-09 23:38:47			0	42557	0	0	0	28088	26710	145618	26710	1040538	43863	110429	0	0	8390	384970	0	0
2024-07-09 23:39:47			0	42573	0	0	0	28083	26720	145606	26622	1040546	43864	110427	0	0	8391	384436	0	0
2024-07-09 23:40:47			0	42588	0	0	0	28083	26710	145562	26486	1040556	43874	110427	0	0	8392	383979	0	0
2024-07-09 23:41:47			0	42587	0	0	0	28085	26710	145646	26769	1040556	43885	110428	0	0	8392	384011	0	0
2024-07-09 23:42:47			0	42580	0	0	0	28080	26700	145610	26901	1040466	43874	110426	0	0	8391	384256	0	0
2024-07-09 23:43:47			0	42590	0	0	0	28077	26700	145566	26845	1040466	43874	110425	0	0	8392	383937	0	0
2024-07-09 23:44:47			0	42603	0	0	0	28070	26700	145510	26786	1040493	43896	110422	0	0	8393	383522	0	0
2024-07-09 23:45:47			0	42613	0	0	0	28067	26700	145486	26967	1040431	43884	110421	0	0	8394	383203	0	0
2024-07-09 23:46:47			0	42622	0	0	0	28057	26700	145510	26901	1040511	43873	110417	0	0	8394	382916	0	0
2024-07-09 23:47:47			0	42623	0	0	0	28067	26690	145410	26675	1040449	43872	110421	0	0	8394	382906	0	0
2024-07-09 23:48:47			0	42604	0	0	0	28067	26690	145454	26828	1040449	43872	110421	0	0	8393	383512	0	0
2024-07-09 23:49:47			0	42631	0	0	0	28057	26680	145410	26781	1040431	43871	110417	0	0	8395	382672	0	0
2024-07-09 23:50:47			0	42657	0	0	0	28057	26690	145346	26831	1040422	43883	110417	0	0	8396	381822	0	0
2024-07-09 23:51:47			0	42662	0	0	0	28059	26690	145418	26788	1040413	43860	110418	0	0	8397	381663	0	0
2024-07-09 23:52:47			0	42652	0	0	0	28051	26680	145314	27050	1040405	43871	110415	0	0	8396	382003	0	0
2024-07-09 23:53:47			0	42660	0	0	0	28049	26690	145234	26996	1040440	43882	110414	0	0	8397	381726	0	0
2024-07-09 23:54:47			0	42664	0	0	0	28051	26680	145250	26866	1040423	43882	110415	0	0	8397	381621	0	0
2024-07-09 23:55:47			0	42661	0	0	0	28067	26680	145318	26691	1040405	43893	110421	0	0	8396	381716	0	0
2024-07-09 23:56:47			0	42695	0	0	0	28067	26660	145238	26675	1040369	43880	110421	0	0	8398	380678	0	0
2024-07-09 23:57:47			0	42687	0	0	0	28077	26680	145350	26748	1040396	43893	110425	0	0	8398	380889	0	0
2024-07-09 23:58:47			0	42692	0	0	0	28090	26680	145318	26904	1040485	43882	110430	0	0	8398	380729	0	0
2024-07-09 23:59:47			0	42701	0	0	0	28090	26680	145290	26861	1040423	43882	110430	0	0	8398	380443	0	0
2024-07-10 00:00:47			0	42693	0	0	0	28085	26680	145262	26571	1040485	43871	110428	0	0	8398	380697	0	0
2024-07-10 00:01:47			0	42707	0	0	0	28093	26680	145142	26800	1040449	43893	110431	0	0	8399	380252	0	0
2024-07-10 00:02:47			0	42725	0	0	0	28088	26680	145207	26618	1040458	43893	110429	0	0	8400	379680	0	0
2024-07-10 00:03:47			0	42720	0	0	0	28098	26680	145218	26670	1040476	43882	110433	0	0	8399	379839	0	0
2024-07-10 00:04:47			0	42721	0	0	0	28090	26690	145151	26958	1040494	43882	110430	0	0	8400	379785	0	0
2024-07-10 00:05:47			0	42724	0	0	0	28098	26690	145207	26923	1040529	43872	110433	0	0	8400	379690	0	0
2024-07-10 00:06:47			0	42731	0	0	0	28106	26690	145155	26649	1040529	43894	110436	0	0	8400	379468	0	0
2024-07-10 00:07:47			0	42737	0	0	0	28098	26700	145179	27039	1040574	43885	110433	0	0	8400	379255	0	0
2024-07-10 00:08:47			0	42737	0	0	0	28101	26700	145131	26955	1040565	43873	110434	0	0	8400	379255	0	0
2024-07-10 00:09:47			0	42743	0	0	0	28106	26700	145127	26739	1040538	43884	110436	0	0	8401	379065	0	0
2024-07-10 00:10:47			0	42774	0	0	0	28106	26700	145091	26894	1040565	43895	110436	0	0	8402	378081	0	0
2024-07-10 00:11:47			0	42766	0	0	0	28103	26710	145003	26493	1040556	43885	110435	0	0	8402	378313	0	0
2024-07-10 00:12:47			0	42756	0	0	0	28106	26690	144987	26911	1040556	43894	110436	0	0	8401	378674	0	0
2024-07-10 00:13:47			0	42740	0	0	0	28098	26700	145011	26864	1040565	43884	110433	0	0	8401	379160	0	0
2024-07-10 00:14:47			0	42755	0	0	0	28098	26710	144987	26533	1040609	43885	110433	0	0	8401	378662	0	0
2024-07-10 00:15:47			0	42768	0	0	0	28090	26700	145011	26785	1040547	43885	110430	0	0	8402	378271	0	0
2024-07-10 00:16:47			0	42744	0	0	0	28090	26690	145011	26679	1040556	43872	110430	0	0	8401	379055	0	0
2024-07-10 00:17:47			0	42762	0	0	0	28093	26700	144943	26557	1040538	43895	110431	0	0	8402	378462	0	0
2024-07-10 00:18:47			0	42763	0	0	0	28096	26700	144979	26694	1040511	43884	110432	0	0	8402	378430	0	0
2024-07-10 00:19:47			0	42763	0	0	0	28096	26700	144923	26783	1040485	43884	110432	0	0	8402	378430	0	0
2024-07-10 00:20:47			0	42780	0	0	0	28088	26700	144955	26632	1040511	43895	110429	0	0	8403	377891	0	0
2024-07-10 00:21:47			0	42778	0	0	0	28090	26700	144855	26644	1040520	43896	110430	0	0	8403	377954	0	0
2024-07-10 00:22:47			0	42770	0	0	0	28090	26690	144847	26696	1040529	43872	110430	0	0	8402	378230	0	0
2024-07-10 00:23:47			0	42781	0	0	0	28093	26680	144855	26615	1040539	43882	110431	0	0	8403	377903	0	0
2024-07-10 00:24:47			0	42773	0	0	0	28080	26700	144931	26913	1040511	43873	110426	0	0	8403	378113	0	0
2024-07-10 00:25:47			0	42792	0	0	0	28077	26690	144907	26776	1040529	43883	110425	0	0	8404	377532	0	0
2024-07-10 00:26:47			0	42790	0	0	0	28072	26690	144899	26696	1040467	43860	110423	0	0	8404	377595	0	0
2024-07-10 00:27:47			0	42793	0	0	0	28064	26680	144935	26481	1040431	43882	110420	0	0	8404	377522	0	0
2024-07-10 00:28:47			0	42793	0	0	0	28067	26690	144887	26762	1040440	43882	110421	0	0	8404	377500	0	0
2024-07-10 00:29:47			0	42794	0	0	0	28059	26690	144871	26750	1040449	43894	110418	0	0	8404	377469	0	0
2024-07-10 00:30:47			0	42789	0	0	0	28059	26690	144815	26856	1040360	43882	110418	0	0	8404	377627	0	0
2024-07-10 00:31:47			0	42798	0	0	0	28049	26680	144803	26675	1040423	43882	110414	0	0	8405	377364	0	0
2024-07-10 00:32:47			0	42792	0	0	0	28054	26680	144751	26845	1040351	43893	110416	0	0	8404	377554	0	0
2024-07-10 00:33:47			0	42805	0	0	0	28041	26670	144791	27045	1040333	43870	110411	0	0	8405	377163	0	0
2024-07-10 00:34:47			0	42821	0	0	0	28049	26670	144759	26729	1040387	43859	110414	0	0	8406	376657	0	0
2024-07-10 00:35:47			0	42825	0	0	0	28038	26660	144799	26724	1040280	43880	110410	0	0	8406	376551	0	0
2024-07-10 00:36:47			0	42830	0	0	0	28031	26660	144815	26762	1040315	43880	110407	0	0	8407	376393	0	0
2024-07-10 00:37:47			0	42846	0	0	0	28023	26660	144799	26849	1040262	43880	110404	0	0	8408	375887	0	0
2024-07-10 00:38:47			0	42848	0	0	0	28025	26660	144691	26641	1040342	43869	110405	0	0	8408	375824	0	0
2024-07-10 00:39:47			0	42856	0	0	0	28020	26660	144751	26798	1040333	43858	110403	0	0	8409	375571	0	0
2024-07-10 00:40:47			0	42852	0	0	0	28018	26650	144603	26837	1040217	43879	110402	0	0	8408	375719	0	0
2024-07-10 00:41:47			0	42862	0	0	0	28020	26640	144623	26759	1040235	43856	110403	0	0	8409	375424	0	0
2024-07-10 00:42:47			0	42871	0	0	0	28015	26640	144615	26965	1040146	43868	110401	0	0	8409	375139	0	0
2024-07-10 00:43:47			0	42862	0	0	0	28005	26630	144615	26800	1040191	43889	110397	0	0	8409	375445	0	0
2024-07-10 00:44:47			0	42883	0	0	0	28005	26630	144639	26802	1040236	43877	110397	0	0	8410	374781	0	0
2024-07-10 00:45:47			0	42882	0	0	0	28002	26620	144531	26630	1040147	43887	110396	0	0	8410	374835	0	0
2024-07-10 00:46:47			0	42888	0	0	0	27997	26620	144511	26970	1040200	43876	110394	0	0	8411	374645	0	0
2024-07-10 00:47:47			0	42908	0	0	0	27999	26620	144519	26797	1040173	43887	110395	0	0	8412	374013	0	0
2024-07-10 00:48:47			0	42923	0	0	0	27997	26620	144571	26585	1040173	43876	110394	0	0	8413	373540	0	0
2024-07-10 00:49:47			0	42926	0	0	0	27986	26610	144479	27019	1040129	43875	110390	0	0	8413	373467	0	0
2024-07-10 00:50:47			0	42932	0	0	0	27997	26610	144515	27060	1040049	43886	110394	0	0	8413	373277	0	0
2024-07-10 00:51:47			0	42951	0	0	0	28005	26610	144483	26821	1040067	43875	110397	0	0	8414	372678	0	0
2024-07-10 00:52:47			0	42955	0	0	0	27999	26620	144415	26786	1040111	43875	110395	0	0	8415	372531	0	0
2024-07-10 00:53:47			0	42961	0	0	0	27989	26610	144427	26760	1040120	43886	110391	0	0	8415	372363	0	0
2024-07-10 00:54:47			0	42966	0	0	0	27989	26610	144423	27000	1040102	43886	110391	0	0	8415	372206	0	0
2024-07-10 00:55:47			0	42971	0	0	0	27992	26600	144367	26842	1040138	43875	110392	0	0	8416	372069	0	0
2024-07-10 00:56:47			0	42979	0	0	0	27997	26600	144327	26776	1040058	43885	110394	0	0	8416	371817	0	0
2024-07-10 00:57:47			0	42995	0	0	0	27997	26610	144319	26934	1040129	43898	110394	0	0	8417	371293	0	0
2024-07-10 00:58:47			0	42995	0	0	0	27997	26600	144187	26932	1040085	43885	110394	0	0	8417	371314	0	0
2024-07-10 00:59:47			0	43013	0	0	0	28002	26610	144315	26998	1040093	43886	110396	0	0	8418	370726	0	0
2024-07-10 01:00:47			0	43026	0	0	0	27992	26610	144259	26887	1040174	43875	110392	0	0	8419	370317	0	0
2024-07-10 01:01:47			0	43013	0	0	0	27997	26600	144191	27071	1040085	43875	110394	0	0	8418	370747	0	0
2024-07-10 01:02:47			0	43042	0	0	0	27989	26590	144131	27034	1040040	43885	110391	0	0	8420	369857	0	0
2024-07-10 01:03:47			0	43056	0	0	0	27981	26600	144159	27034	1040058	43885	110388	0	0	8421	369396	0	0
2024-07-10 01:04:47			0	43049	0	0	0	27997	26600	144083	26831	1040076	43896	110394	0	0	8420	369616	0	0
2024-07-10 01:05:47			0	43062	0	0	0	27992	26590	144023	26816	1039960	43885	110392	0	0	8421	369229	0	0
2024-07-10 01:06:47			0	43069	0	0	0	27986	26590	144067	26785	1040032	43885	110390	0	0	8422	369009	0	0
2024-07-10 01:07:47			0	43081	0	0	0	27986	26590	143999	26949	1040067	43874	110390	0	0	8422	368633	0	0
2024-07-10 01:08:47			0	43060	0	0	0	27992	26590	143999	26790	1040040	43874	110392	0	0	8421	369292	0	0
2024-07-10 01:09:47			0	43072	0	0	0	27994	26590	143979	26949	1040067	43885	110393	0	0	8422	368915	0	0
2024-07-10 01:10:47			0	43087	0	0	0	27989	26590	143975	26835	1040032	43885	110391	0	0	8423	368444	0	0
2024-07-10 01:11:47			0	43105	0	0	0	27971	26590	144007	26920	1040058	43863	110384	0	0	8424	367880	0	0
2024-07-10 01:12:47			0	43141	0	0	0	27979	26580	143903	26493	1039996	43873	110387	0	0	8426	366774	0	0
2024-07-10 01:13:47			0	43113	0	0	0	27966	26590	143807	26918	1039978	43885	110382	0	0	8425	367629	0	0
2024-07-10 01:14:47			0	43111	0	0	0	27963	26580	143859	26922	1040023	43895	110381	0	0	8424	367713	0	0
2024-07-10 01:15:47			0	43125	0	0	0	27966	26580	143819	27147	1039996	43884	110382	0	0	8425	367274	0	0
2024-07-10 01:16:47			0	43111	0	0	0	27968	26570	143959	26724	1039943	43894	110383	0	0	8424	367734	0	0
2024-07-10 01:17:47			0	43126	0	0	0	27971	26580	143927	26687	1039934	43872	110384	0	0	8425	367243	0	0
2024-07-10 01:18:47			0	43126	0	0	0	27971	26580	143839	26722	1039969	43873	110384	0	0	8425	367243	0	0
2024-07-10 01:19:47			0	43127	0	0	0	27979	26580	143835	27083	1039960	43872	110387	0	0	8425	367212	0	0
2024-07-10 01:20:47			0	43160	0	0	0	27958	26570	143887	26857	1039943	43872	110379	0	0	8427	366200	0	0
2024-07-10 01:21:47			0	43128	0	0	0	27953	26570	143891	26960	1039925	43872	110377	0	0	8426	367202	0	0
2024-07-10 01:22:47			0	43136	0	0	0	27953	26580	143859	26739	1039934	43894	110377	0	0	8426	366930	0	0
2024-07-10 01:23:47			0	43155	0	0	0	27953	26570	143867	26927	1039943	43872	110377	0	0	8427	366356	0	0
2024-07-10 01:24:47			0	43155	0	0	0	27958	26560	143811	26857	1039934	43882	110379	0	0	8427	366377	0	0
2024-07-10 01:25:47			0	43163	0	0	0	27958	26560	143787	27043	1039961	43871	110379	0	0	8428	366127	0	0
2024-07-10 01:26:47			0	43164	0	0	0	27955	26560	143791	26661	1039898	43881	110378	0	0	8428	366096	0	0
2024-07-10 01:27:47			0	43194	0	0	0	27953	26560	143735	26890	1039880	43893	110377	0	0	8429	365158	0	0
2024-07-10 01:28:47			0	43181	0	0	0	27955	26550	143783	26935	1039890	43881	110378	0	0	8429	365585	0	0
2024-07-10 01:29:47			0	43194	0	0	0	27955	26570	143703	26965	1039862	43883	110378	0	0	8429	365137	0	0
2024-07-10 01:30:47			0	43201	0	0	0	27945	26570	143735	27003	1039862	43894	110374	0	0	8430	364918	0	0
2024-07-10 01:31:47			0	43208	0	0	0	27961	26550	143655	26880	1039943	43881	110380	0	0	8430	364741	0	0
2024-07-10 01:32:47			0	43192	0	0	0	27955	26560	143763	27249	1039845	43881	110378	0	0	8429	365220	0	0
2024-07-10 01:33:47			0	43215	0	0	0	27948	26560	143627	26776	1039872	43870	110375	0	0	8431	364502	0	0
2024-07-10 01:34:47			0	43208	0	0	0	27942	26570	143683	27071	1039862	43894	110373	0	0	8431	364700	0	0
2024-07-10 01:35:47			0	43216	0	0	0	27937	26550	143683	27109	1039890	43870	110371	0	0	8431	364492	0	0
2024-07-10 01:36:47			0	43227	0	0	0	27932	26550	143699	26637	1039836	43892	110369	0	0	8432	364148	0	0
2024-07-10 01:37:47			0	43227	0	0	0	27929	26560	143675	27036	1039845	43881	110368	0	0	8432	364127	0	0
2024-07-10 01:38:47			0	43220	0	0	0	27932	26560	143691	26797	1039845	43870	110369	0	0	8431	364346	0	0
2024-07-10 01:39:47			0	43232	0	0	0	27929	26540	143583	26864	1039711	43869	110368	0	0	8432	364013	0	0
2024-07-10 01:40:47			0	43256	0	0	0	27932	26540	143555	26733	1039765	43858	110369	0	0	8433	363264	0	0
2024-07-10 01:41:47			0	43255	0	0	0	27919	26550	143547	26948	1039800	43858	110364	0	0	8434	363275	0	0
2024-07-10 01:42:47			0	43251	0	0	0	27932	26550	143619	26517	1039827	43891	110369	0	0	8433	363400	0	0
2024-07-10 01:43:47			0	43244	0	0	0	27929	26550	143555	26556	1039774	43880	110368	0	0	8433	363618	0	0
2024-07-10 01:44:47			0	43239	0	0	0	27935	26530	143611	26807	1039693	43889	110370	0	0	8432	363815	0	0
2024-07-10 01:45:47			0	43239	0	0	0	27924	26540	143535	26706	1039809	43879	110366	0	0	8433	363795	0	0
2024-07-10 01:46:47			0	43248	0	0	0	27929	26540	143535	26746	1039738	43869	110368	0	0	8433	363514	0	0
2024-07-10 01:47:47			0	43242	0	0	0	27940	26540	143511	26722	1039702	43869	110372	0	0	8432	363701	0	0
2024-07-10 01:48:47			0	43246	0	0	0	27927	26540	143535	26738	1039756	43879	110367	0	0	8433	363576	0	0
2024-07-10 01:49:47			0	43257	0	0	0	27932	26530	143523	26517	1039765	43878	110369	0	0	8433	363254	0	0
2024-07-10 01:50:47			0	43249	0	0	0	27927	26540	143667	26771	1039729	43902	110367	0	0	8433	363483	0	0
2024-07-10 01:51:47			0	43258	0	0	0	27922	26530	143547	26831	1039640	43868	110365	0	0	8434	363223	0	0
2024-07-10 01:52:47			0	43271	0	0	0	27924	26530	143623	26682	1039685	43889	110366	0	0	8434	362818	0	0
2024-07-10 01:53:47			0	43254	0	0	0	27924	26530	143647	26925	1039685	43878	110366	0	0	8433	363348	0	0
2024-07-10 01:54:47			0	43248	0	0	0	27922	26530	143551	26703	1039738	43868	110365	0	0	8433	363535	0	0
2024-07-10 01:55:47			0	43261	0	0	0	27911	26530	143591	26739	1039658	43868	110361	0	0	8434	363129	0	0
2024-07-10 01:56:47			0	43266	0	0	0	27911	26530	143543	26797	1039685	43878	110361	0	0	8434	362974	0	0
2024-07-10 01:57:47			0	43274	0	0	0	27909	26530	143571	26748	1039631	43868	110360	0	0	8435	362724	0	0
2024-07-10 01:58:47			0	43269	0	0	0	27906	26520	143559	26897	1039613	43877	110359	0	0	8435	362901	0	0
2024-07-10 01:59:47			0	43262	0	0	0	27906	26520	143611	27029	1039622	43878	110359	0	0	8434	363119	0	0
2024-07-10 02:00:47			0	43264	0	0	0	27914	26530	143555	27001	1039658	43878	110362	0	0	8434	363036	0	0
2024-07-10 02:01:47			0	43267	0	0	0	27909	26510	143495	26828	1039631	43887	110360	0	0	8434	362984	0	0
2024-07-10 02:02:47			0	43266	0	0	0	27901	26510	143587	26396	1039658	43876	110357	0	0	8434	363015	0	0
2024-07-10 02:03:47			0	43262	0	0	0	27903	26520	143519	26791	1039613	43877	110358	0	0	8434	363119	0	0
2024-07-10 02:04:47			0	43272	0	0	0	27919	26520	143443	26720	1039613	43877	110364	0	0	8435	362807	0	0
2024-07-10 02:05:47			0	43274	0	0	0	27916	26510	143555	27133	1039631	43887	110363	0	0	8435	362766	0	0
2024-07-10 02:06:47			0	43269	0	0	0	27903	26520	143475	27111	1039613	43877	110358	0	0	8435	362901	0	0
2024-07-10 02:07:47			0	43280	0	0	0	27903	26520	143387	26739	1039586	43867	110358	0	0	8435	362558	0	0
2024-07-10 02:08:47			0	43272	0	0	0	27901	26510	143419	26970	1039542	43876	110357	0	0	8435	362828	0	0
2024-07-10 02:09:47			0	43275	0	0	0	27893	26510	143515	26755	1039631	43887	110354	0	0	8435	362735	0	0
2024-07-10 02:10:47			0	43262	0	0	0	27893	26510	143495	26847	1039605	43876	110354	0	0	8434	363140	0	0
2024-07-10 02:11:47			0	43259	0	0	0	27888	26500	143523	26864	1039587	43866	110352	0	0	8434	363254	0	0
2024-07-10 02:12:47			0	43273	0	0	0	27880	26510	143555	26819	1039605	43876	110349	0	0	8435	362797	0	0
2024-07-10 02:13:47			0	43258	0	0	0	27880	26500	143491	26800	1039551	43875	110349	0	0	8434	363285	0	0
2024-07-10 02:14:47			0	43274	0	0	0	27872	26500	143611	27043	1039587	43876	110346	0	0	8435	362786	0	0
2024-07-10 02:15:47			0	43249	0	0	0	27875	26500	143635	27156	1039578	43875	110347	0	0	8434	363566	0	0
2024-07-10 02:16:47			0	43252	0	0	0	27870	26490	143571	27013	1039543	43885	110345	0	0	8434	363493	0	0
2024-07-10 02:17:47			0	43255	0	0	0	27867	26490	143619	27154	1039516	43875	110344	0	0	8434	363399	0	0
2024-07-10 02:18:47			0	43274	0	0	0	27870	26500	143623	27119	1039551	43875	110345	0	0	8435	362786	0	0
2024-07-10 02:19:47			0	43252	0	0	0	27859	26500	143535	26675	1039498	43875	110341	0	0	8434	363472	0	0
2024-07-10 02:20:47			0	43245	0	0	0	27857	26480	143543	26868	1039445	43863	110340	0	0	8434	363732	0	0
2024-07-10 02:21:47			0	43261	0	0	0	27846	26490	143559	26996	1039480	43875	110336	0	0	8435	363212	0	0
2024-07-10 02:22:47			0	43242	0	0	0	27846	26480	143539	26582	1039490	43874	110336	0	0	8434	363826	0	0
2024-07-10 02:23:47			0	43247	0	0	0	27833	26480	143575	26845	1039445	43851	110331	0	0	8434	363670	0	0
2024-07-10 02:24:47			0	43256	0	0	0	27831	26470	143539	26686	1039365	43873	110330	0	0	8435	363410	0	0
2024-07-10 02:25:47			0	43264	0	0	0	27818	26470	143507	26868	1039347	43862	110325	0	0	8436	363160	0	0
2024-07-10 02:26:47			0	43262	0	0	0	27799	26450	143435	26507	1039285	43871	110318	0	0	8436	363264	0	0
2024-07-10 02:27:47			0	43237	0	0	0	27789	26450	143507	26863	1039258	43871	110314	0	0	8434	364044	0	0
2024-07-10 02:28:47			0	43275	0	0	0	27786	26450	143479	26847	1039204	43860	110313	0	0	8437	362859	0	0
2024-07-10 02:29:47			0	43268	0	0	0	27776	26450	143507	26908	1039222	43871	110309	0	0	8436	363077	0	0
2024-07-10 02:30:47			0	43241	0	0	0	27758	26440	143547	26920	1039133	43870	110302	0	0	8435	363940	0	0
2024-07-10 02:31:47			0	43263	0	0	0	27745	26430	143583	26849	1039134	43846	110297	0	0	8437	363275	0	0
2024-07-10 02:32:47			0	43269	0	0	0	27735	26420	143483	26646	1039035	43856	110293	0	0	8437	363108	0	0
2024-07-10 02:33:47			0	43282	0	0	0	27724	26410	143511	26854	1038973	43833	110289	0	0	8438	362724	0	0
2024-07-10 02:34:47			0	43274	0	0	0	27709	26410	143547	27007	1038973	43856	110283	0	0	8438	362973	0	0
2024-07-10 02:35:47			0	43263	0	0	0	27703	26390	143479	26930	1038938	43843	110281	0	0	8437	363358	0	0
2024-07-10 02:36:47			0	43262	0	0	0	27690	26380	143571	26897	1038867	43842	110276	0	0	8437	363410	0	0
2024-07-10 02:37:47			0	43273	0	0	0	27680	26360	143579	27232	1038805	43852	110272	0	0	8438	363108	0	0
2024-07-10 02:38:47			0	43253	0	0	0	27664	26370	143559	27029	1038760	43840	110266	0	0	8437	363711	0	0
2024-07-10 02:39:47			0	43265	0	0	0	27651	26360	143523	27052	1038697	43852	110261	0	0	8438	363358	0	0
2024-07-10 02:40:47			0	43281	0	0	0	27633	26340	143643	27119	1038671	43838	110254	0	0	8439	362900	0	0
2024-07-10 02:41:47			0	43270	0	0	0	27631	26330	143551	27038	1038600	43849	110253	0	0	8439	363264	0	0
2024-07-10 02:42:47			0	43267	0	0	0	27618	26320	143575	26944	1038528	43848	110248	0	0	8439	363378	0	0
2024-07-10 02:43:47			0	43271	0	0	0	27615	26300	143599	27062	1038493	43845	110247	0	0	8439	363295	0	0
2024-07-10 02:44:47			0	43276	0	0	0	27625	26290	143603	26925	1038530	43845	110251	0	0	8439	363160	0	0
2024-07-10 02:45:47			0	43271	0	0	0	27599	26280	143611	26826	1038431	43843	110241	0	0	8439	363336	0	0
2024-07-10 02:46:47			0	43276	0	0	0	27589	26280	143627	27123	1038378	43854	110237	0	0	8439	363180	0	0
2024-07-10 02:47:47			0	43296	0	0	0	27576	26280	143683	26698	1038315	43821	110232	0	0	8441	362557	0	0
2024-07-10 02:48:47			0	43264	0	0	0	27566	26260	143543	26831	1038235	43831	110228	0	0	8439	363597	0	0
2024-07-10 02:49:47			0	43286	0	0	0	27558	26260	143647	26816	1038262	43831	110225	0	0	8440	362910	0	0
2024-07-10 02:50:47			0	43285	0	0	0	27555	26240	143583	27086	1038200	43851	110224	0	0	8440	362983	0	0
2024-07-10 02:51:47			0	43275	0	0	0	27550	26240	143627	26637	1038200	43851	110222	0	0	8440	363295	0	0
2024-07-10 02:52:47			0	43281	0	0	0	27550	26240	143587	27008	1038138	43828	110222	0	0	8440	363107	0	0
2024-07-10 02:53:47			0	43279	0	0	0	27529	26230	143555	26974	1038075	43828	110214	0	0	8440	363191	0	0
2024-07-10 02:54:47			0	43286	0	0	0	27519	26220	143635	27093	1037995	43836	110210	0	0	8441	362993	0	0
2024-07-10 02:55:47			0	43276	0	0	0	27493	26210	143531	27076	1038014	43848	110200	0	0	8441	363326	0	0
2024-07-10 02:56:47			0	43280	0	0	0	27485	26200	143551	26762	1037987	43846	110197	0	0	8441	363222	0	0
2024-07-10 02:57:47			0	43283	0	0	0	27483	26190	143607	26797	1037871	43834	110196	0	0	8441	363149	0	0
2024-07-10 02:58:47			0	43301	0	0	0	27470	26180	143567	26738	1037854	43812	110191	0	0	8443	362608	0	0
2024-07-10 02:59:47			0	43297	0	0	0	27462	26170	143627	26847	1037783	43821	110188	0	0	8442	362753	0	0
2024-07-10 03:00:47			0	43282	0	0	0	27446	26170	143603	26828	1037773	43821	110182	0	0	8442	363221	0	0
2024-07-10 03:01:47			0	43305	0	0	0	27444	26150	143511	27163	1037720	43819	110181	0	0	8443	362545	0	0
2024-07-10 03:02:47			0	43281	0	0	0	27425	26140	143567	27215	1037649	43831	110174	0	0	8442	363315	0	0
2024-07-10 03:03:47			0	43296	0	0	0	27423	26140	143527	26953	1037640	43818	110173	0	0	8443	362847	0	0
2024-07-10 03:04:47			0	43292	0	0	0	27412	26130	143535	27138	1037543	43829	110169	0	0	8443	362992	0	0
2024-07-10 03:05:47			0	43296	0	0	0	27407	26110	143595	26991	1037534	43826	110167	0	0	8443	362909	0	0
2024-07-10 03:06:47			0	43291	0	0	0	27397	26100	143515	27036	1037445	43826	110163	0	0	8443	363086	0	0
2024-07-10 03:07:47			0	43316	0	0	0	27394	26100	143515	26847	1037463	43815	110162	0	0	8444	362305	0	0
2024-07-10 03:08:47			0	43310	0	0	0	27392	26090	143547	27170	1037428	43847	110161	0	0	8444	362513	0	0
2024-07-10 03:09:47			0	43325	0	0	0	27394	26090	143499	26979	1037401	43825	110162	0	0	8445	362045	0	0
2024-07-10 03:10:47			0	43327	0	0	0	27386	26070	143475	27137	1037330	43833	110159	0	0	8445	362024	0	0
2024-07-10 03:11:47			0	43363	0	0	0	27384	26070	143544	26970	1037339	43823	110158	0	0	8447	360903	0	0
2024-07-10 03:12:47			0	43340	0	0	0	27384	26060	143487	26680	1037295	43833	110158	0	0	8446	361640	0	0
2024-07-10 03:13:47			0	43352	0	0	0	27381	26050	143639	26984	1037250	43833	110157	0	0	8447	361286	0	0
2024-07-10 03:14:47			0	43353	0	0	0	27381	26050	143475	27144	1037358	43833	110157	0	0	8447	361255	0	0
2024-07-10 03:15:47			0	43360	0	0	0	27379	26050	143503	27007	1037277	43833	110156	0	0	8447	361037	0	0
2024-07-10 03:16:47			0	43396	0	0	0	27379	26040	143332	26745	1037269	43842	110156	0	0	8449	359937	0	0
2024-07-10 03:17:47			0	43381	0	0	0	27376	26030	143376	27211	1037161	43831	110155	0	0	8448	360425	0	0
2024-07-10 03:18:47			0	43394	0	0	0	27376	26030	143336	27095	1037143	43819	110155	0	0	8449	360020	0	0
2024-07-10 03:19:47			0	43423	0	0	0	27366	26020	143364	27027	1037180	43840	110151	0	0	8451	359139	0	0
2024-07-10 03:20:47			0	43411	0	0	0	27368	26030	143348	26932	1037215	43841	110152	0	0	8450	359492	0	0
2024-07-10 03:21:47			0	43433	0	0	0	27363	26020	143392	27010	1037064	43829	110150	0	0	8452	358828	0	0
2024-07-10 03:22:47			0	43420	0	0	0	27363	26010	143332	26890	1037153	43817	110150	0	0	8451	359253	0	0
2024-07-10 03:23:47			0	43450	0	0	0	27358	26010	143268	26993	1037073	43829	110148	0	0	8453	358321	0	0
2024-07-10 03:24:47			0	43444	0	0	0	27358	26000	143332	26894	1037109	43827	110148	0	0	8452	358528	0	0
2024-07-10 03:25:47			0	43441	0	0	0	27361	26000	143300	27192	1037109	43827	110149	0	0	8452	358621	0	0
2024-07-10 03:26:47			0	43459	0	0	0	27353	26000	143244	26693	1037082	43827	110146	0	0	8453	358062	0	0
2024-07-10 03:27:47			0	43494	0	0	0	27350	25990	143276	27104	1037047	43827	110145	0	0	8455	356997	0	0
2024-07-10 03:28:47			0	43466	0	0	0	27345	25990	143208	26809	1037038	43804	110143	0	0	8454	357865	0	0
2024-07-10 03:29:47			0	43493	0	0	0	27353	25990	143176	26908	1037065	43827	110146	0	0	8455	357028	0	0
2024-07-10 03:30:47			0	43493	0	0	0	27358	25990	143172	27178	1037073	43837	110148	0	0	8455	357028	0	0
2024-07-10 03:31:47			0	43484	0	0	0	27350	25980	143152	27100	1037083	43826	110145	0	0	8455	357327	0	0
2024-07-10 03:32:47			0	43527	0	0	0	27361	25980	143120	27209	1036994	43825	110149	0	0	8457	355994	0	0
2024-07-10 03:33:47			0	43517	0	0	0	27353	25990	143112	27137	1037011	43837	110146	0	0	8457	356284	0	0
2024-07-10 03:34:47			0	43527	0	0	0	27353	25980	143084	26972	1036994	43825	110146	0	0	8457	355994	0	0
2024-07-10 03:35:47			0	43535	0	0	0	27350	25980	143004	27083	1037056	43836	110145	0	0	8458	355747	0	0
2024-07-10 03:36:47			0	43533	0	0	0	27348	25980	143012	27223	1037020	43835	110144	0	0	8458	355809	0	0
2024-07-10 03:37:47			0	43531	0	0	0	27361	25980	142948	27048	1037020	43835	110149	0	0	8457	355871	0	0
2024-07-10 03:38:47			0	43544	0	0	0	27350	25980	142972	26812	1037047	43825	110145	0	0	8458	355468	0	0
2024-07-10 03:39:47			0	43570	0	0	0	27350	25970	142980	27033	1036949	43834	110145	0	0	8460	354684	0	0
2024-07-10 03:40:47			0	43565	0	0	0	27353	25990	142956	27046	1037065	43849	110146	0	0	8460	354798	0	0
2024-07-10 03:41:47			0	43579	0	0	0	27355	25980	142804	26850	1036967	43835	110147	0	0	8460	354386	0	0
2024-07-10 03:42:47			0	43578	0	0	0	27366	25980	142940	26644	1037074	43825	110151	0	0	8460	354417	0	0
2024-07-10 03:43:47			0	43580	0	0	0	27363	25980	142944	26755	1036994	43825	110150	0	0	8460	354355	0	0
2024-07-10 03:44:47			0	43576	0	0	0	27368	25980	142904	26748	1037047	43825	110152	0	0	8460	354479	0	0
2024-07-10 03:45:47			0	43614	0	0	0	27373	25970	142860	27038	1037146	43825	110154	0	0	8462	353325	0	0
2024-07-10 03:46:47			0	43606	0	0	0	27371	25970	142828	27060	1037092	43847	110153	0	0	8462	353572	0	0
2024-07-10 03:47:47			0	43609	0	0	0	27373	25980	142852	27317	1037128	43835	110154	0	0	8462	353459	0	0
2024-07-10 03:48:47			0	43611	0	0	0	27381	25990	142820	27128	1037065	43837	110157	0	0	8462	353377	0	0
2024-07-10 03:49:47			0	43613	0	0	0	27389	25990	142684	26852	1037199	43827	110160	0	0	8462	353316	0	0
2024-07-10 03:50:47			0	43632	0	0	0	27394	25990	142844	26812	1037154	43837	110162	0	0	8463	352729	0	0
2024-07-10 03:51:47			0	43639	0	0	0	27397	26000	142788	26866	1037163	43837	110163	0	0	8464	352493	0	0
2024-07-10 03:52:47			0	43629	0	0	0	27402	26000	142708	27076	1037136	43849	110165	0	0	8463	352802	0	0
2024-07-10 03:53:47			0	43643	0	0	0	27399	26000	142652	27067	1037171	43850	110164	0	0	8464	352370	0	0
2024-07-10 03:54:47			0	43629	0	0	0	27392	26000	142716	27138	1037163	43827	110161	0	0	8463	352802	0	0
2024-07-10 03:55:47			0	43639	0	0	0	27397	26000	142692	27152	1037216	43849	110163	0	0	8464	352493	0	0
2024-07-10 03:56:47			0	43636	0	0	0	27389	26010	142644	26838	1037180	43839	110160	0	0	8463	352566	0	0
2024-07-10 03:57:47			0	43666	0	0	0	27397	26010	142672	26996	1037180	43829	110163	0	0	8465	351641	0	0
2024-07-10 03:58:47			0	43653	0	0	0	27431	26010	142624	26953	1037234	43851	110176	0	0	8464	352042	0	0
2024-07-10 03:59:47			0	43657	0	0	0	27433	26020	142616	26982	1037341	43840	110177	0	0	8464	351898	0	0
2024-07-10 04:00:47			0	43665	0	0	0	27433	26020	142576	26967	1037367	43852	110177	0	0	8465	351652	0	0
2024-07-10 04:01:47			0	43651	0	0	0	27444	26040	142604	27197	1037394	43841	110181	0	0	8464	352043	0	0
2024-07-10 04:02:47			0	43650	0	0	0	27438	26040	142720	26861	1037420	43841	110179	0	0	8464	352074	0	0
2024-07-10 04:03:47			0	43656	0	0	0	27438	26050	142712	26755	1037438	43854	110179	0	0	8464	351869	0	0
2024-07-10 04:04:47			0	43651	0	0	0	27433	26050	142636	26811	1037438	43843	110177	0	0	8464	352023	0	0
2024-07-10 04:05:47			0	43651	0	0	0	27436	26050	142648	26979	1037393	43833	110178	0	0	8464	352023	0	0
2024-07-10 04:06:47			0	43644	0	0	0	27412	26050	142668	26785	1037411	43821	110169	0	0	8464	352239	0	0
2024-07-10 04:07:47			0	43632	0	0	0	27410	26050	142672	26922	1037438	43833	110168	0	0	8463	352609	0	0
2024-07-10 04:08:47			0	43649	0	0	0	27420	26040	142720	26934	1037403	43832	110172	0	0	8464	352105	0	0
2024-07-10 04:09:47			0	43636	0	0	0	27415	26050	142672	26920	1037385	43843	110170	0	0	8463	352485	0	0
2024-07-10 04:10:47			0	43627	0	0	0	27431	26040	142644	26944	1037349	43842	110176	0	0	8462	352783	0	0
2024-07-10 04:11:47			0	43636	0	0	0	27438	26060	142780	27074	1037402	43855	110179	0	0	8463	352465	0	0
2024-07-10 04:12:47			0	43610	0	0	0	27467	26050	142796	27026	1037474	43844	110190	0	0	8461	353287	0	0
2024-07-10 04:13:47			0	43610	0	0	0	27477	26050	142840	27180	1037447	43822	110194	0	0	8461	353287	0	0
2024-07-10 04:14:47			0	43599	0	0	0	27485	26060	142804	26854	1037483	43844	110197	0	0	8460	353606	0	0
2024-07-10 04:15:47			0	43616	0	0	0	27496	26070	142780	27182	1037518	43844	110201	0	0	8461	353062	0	0
2024-07-10 04:16:47			0	43616	0	0	0	27501	26070	142816	27045	1037500	43834	110203	0	0	8461	353062	0	0
2024-07-10 04:17:47			0	43572	0	0	0	27496	26080	142832	26856	1037589	43857	110201	0	0	8458	354400	0	0
2024-07-10 04:18:47			0	43601	0	0	0	27496	26090	142816	26920	1037580	43834	110201	0	0	8460	353484	0	0
2024-07-10 04:19:47			0	43567	0	0	0	27470	26070	142776	26517	1037473	43834	110191	0	0	8458	354575	0	0
2024-07-10 04:20:47			0	43553	0	0	0	27462	26070	142784	26746	1037446	43823	110188	0	0	8457	355007	0	0
2024-07-10 04:21:47			0	43541	0	0	0	27446	26070	142840	27043	1037464	43822	110182	0	0	8457	355379	0	0
2024-07-10 04:22:47			0	43515	0	0	0	27436	26060	143048	26739	1037375	43844	110178	0	0	8456	356204	0	0
2024-07-10 04:23:47			0	43484	0	0	0	27423	26060	143072	26783	1037402	43844	110173	0	0	8454	357164	0	0
2024-07-10 04:24:47			0	43460	0	0	0	27428	26070	143076	26580	1037357	43844	110175	0	0	8452	357888	0	0
2024-07-10 04:25:47			0	43437	0	0	0	27438	26060	143160	26781	1037402	43844	110179	0	0	8451	358622	0	0
2024-07-10 04:26:47			0	43413	0	0	0	27428	26060	143276	26968	1037375	43833	110175	0	0	8450	359368	0	0
2024-07-10 04:27:47			0	43397	0	0	0	27438	26050	143360	26585	1037411	43843	110179	0	0	8448	359886	0	0
2024-07-10 04:28:47			0	43379	0	0	0	27436	26050	143416	26693	1037411	43843	110178	0	0	8447	360446	0	0
2024-07-10 04:29:47			0	43345	0	0	0	27444	26050	143455	26795	1037340	43844	110181	0	0	8445	361505	0	0
2024-07-10 04:30:47			0	43336	0	0	0	27449	26050	143599	26989	1037447	43844	110183	0	0	8444	361785	0	0
2024-07-10 04:31:47			0	43323	0	0	0	27449	26050	143747	26779	1037438	43854	110183	0	0	8444	362190	0	0
2024-07-10 04:32:47			0	43322	0	0	0	27451	26050	143759	26941	1037385	43854	110184	0	0	8444	362222	0	0
2024-07-10 04:33:47			0	43294	0	0	0	27451	26050	143723	26745	1037438	43843	110184	0	0	8442	363095	0	0
2024-07-10 04:34:47			0	43274	0	0	0	27457	26060	143663	27092	1037483	43833	110186	0	0	8441	363699	0	0
2024-07-10 04:35:47			0	43266	0	0	0	27454	26050	143851	27039	1037420	43844	110185	0	0	8440	363970	0	0
2024-07-10 04:36:47			0	43270	0	0	0	27462	26050	143771	26920	1037447	43855	110188	0	0	8440	363845	0	0
2024-07-10 04:37:47			0	43274	0	0	0	27454	26050	143791	27033	1037474	43822	110185	0	0	8441	363720	0	0
2024-07-10 04:38:47			0	43252	0	0	0	27467	26050	143815	26816	1037474	43855	110190	0	0	8439	364408	0	0
2024-07-10 04:39:47			0	43233	0	0	0	27464	26070	143771	26968	1037491	43844	110189	0	0	8438	364960	0	0
2024-07-10 04:40:47			0	43224	0	0	0	27470	26070	143855	26909	1037518	43844	110191	0	0	8437	365242	0	0
2024-07-10 04:41:47			0	43225	0	0	0	27477	26070	143835	26967	1037473	43834	110194	0	0	8437	365211	0	0
2024-07-10 04:42:47			0	43216	0	0	0	27462	26080	143903	26611	1037509	43857	110188	0	0	8437	365471	0	0
2024-07-10 04:43:47			0	43232	0	0	0	27459	26050	143863	26637	1037527	43855	110187	0	0	8438	365033	0	0
2024-07-10 04:44:47			0	43216	0	0	0	27457	26080	143907	26901	1037482	43857	110186	0	0	8437	365471	0	0
2024-07-10 04:45:47			0	43213	0	0	0	27446	26070	143911	26939	1037491	43855	110182	0	0	8437	365586	0	0
2024-07-10 04:46:47			0	43209	0	0	0	27444	26070	143991	26823	1037438	43833	110181	0	0	8437	365711	0	0
2024-07-10 04:47:47			0	43213	0	0	0	27441	26070	143899	26946	1037446	43845	110180	0	0	8437	365586	0	0
2024-07-10 04:48:47			0	43210	0	0	0	27433	26060	143943	26845	1037429	43833	110177	0	0	8437	365701	0	0
2024-07-10 04:49:47			0	43200	0	0	0	27438	26060	143987	26675	1037402	43833	110179	0	0	8437	366014	0	0
2024-07-10 04:50:47			0	43176	0	0	0	27433	26060	143903	26722	1037429	43833	110177	0	0	8435	366767	0	0
2024-07-10 04:51:47			0	43194	0	0	0	27436	26050	143967	26857	1037366	43844	110178	0	0	8436	366223	0	0
2024-07-10 04:52:47			0	43174	0	0	0	27425	26050	144067	26830	1037358	43833	110174	0	0	8435	366850	0	0
2024-07-10 04:53:47			0	43154	0	0	0	27433	26050	144067	26939	1037358	43833	110177	0	0	8434	367478	0	0
2024-07-10 04:54:47			0	43156	0	0	0	27431	26050	144139	26776	1037420	43833	110176	0	0	8434	367415	0	0
2024-07-10 04:55:47			0	43141	0	0	0	27431	26040	144187	27204	1037340	43841	110176	0	0	8433	367907	0	0
2024-07-10 04:56:47			0	43124	0	0	0	27436	26040	144175	26675	1037403	43832	110178	0	0	8432	368441	0	0
2024-07-10 04:57:47			0	43116	0	0	0	27428	26040	144235	27140	1037340	43841	110175	0	0	8432	368692	0	0
2024-07-10 04:58:47			0	43109	0	0	0	27438	26040	144307	26856	1037322	43853	110179	0	0	8431	368912	0	0
2024-07-10 04:59:47			0	43109	0	0	0	27423	26030	144279	26824	1037304	43831	110173	0	0	8431	368933	0	0
2024-07-10 05:00:47			0	43094	0	0	0	27436	26040	144311	26677	1037313	43841	110178	0	0	8430	369384	0	0
2024-07-10 05:01:47			0	43074	0	0	0	27431	26020	144503	26845	1037287	43840	110176	0	0	8429	370055	0	0
2024-07-10 05:02:47			0	43090	0	0	0	27433	26030	144479	26840	1037296	43841	110177	0	0	8430	369531	0	0
2024-07-10 05:03:47			0	43062	0	0	0	27438	26030	144491	26793	1037278	43841	110179	0	0	8428	370412	0	0
2024-07-10 05:04:47			0	43046	0	0	0	27431	26020	144375	26935	1037314	43840	110176	0	0	8427	370937	0	0
2024-07-10 05:05:47			0	43045	0	0	0	27428	26040	144479	26680	1037394	43841	110175	0	0	8427	370926	0	0
2024-07-10 05:06:47			0	43046	0	0	0	27444	26030	144463	26949	1037331	43819	110181	0	0	8427	370916	0	0
2024-07-10 05:07:47			0	43034	0	0	0	27446	26030	144555	26776	1037376	43852	110182	0	0	8426	371294	0	0
2024-07-10 05:08:47			0	43028	0	0	0	27446	26040	144503	26901	1037313	43852	110182	0	0	8426	371462	0	0
2024-07-10 05:09:47			0	43020	0	0	0	27433	26040	144475	27013	1037394	43841	110177	0	0	8426	371715	0	0
2024-07-10 05:10:47			0	43025	0	0	0	27438	26030	144531	26712	1037376	43852	110179	0	0	8426	371578	0	0
2024-07-10 05:11:47			0	43009	0	0	0	27449	26030	144511	27085	1037296	43852	110183	0	0	8425	372083	0	0
2024-07-10 05:12:47			0	42973	0	0	0	27438	26030	144623	26724	1037331	43841	110179	0	0	8423	373220	0	0
2024-07-10 05:13:47			0	43014	0	0	0	27436	26020	144587	26798	1037305	43839	110178	0	0	8425	371946	0	0
2024-07-10 05:14:47			0	42990	0	0	0	27438	26030	144675	27081	1037376	43831	110179	0	0	8424	372682	0	0
2024-07-10 05:15:47			0	42964	0	0	0	27436	26030	144623	27026	1037349	43852	110178	0	0	8422	373504	0	0
2024-07-10 05:16:47			0	42982	0	0	0	27449	26010	144639	27152	1037261	43829	110183	0	0	8423	372978	0	0
2024-07-10 05:17:47			0	42963	0	0	0	27433	26030	144615	26918	1037296	43841	110177	0	0	8422	373536	0	0
2024-07-10 05:18:47			0	42963	0	0	0	27449	26020	144715	26868	1037287	43852	110183	0	0	8422	373557	0	0
2024-07-10 05:19:47			0	42983	0	0	0	27444	26020	144655	26856	1037305	43851	110181	0	0	8423	372925	0	0
2024-07-10 05:20:47			0	42973	0	0	0	27436	26020	144563	26981	1037341	43852	110178	0	0	8423	373241	0	0
2024-07-10 05:21:47			0	42951	0	0	0	27441	26020	144727	27294	1037341	43840	110180	0	0	8421	373936	0	0
2024-07-10 05:22:47			0	42944	0	0	0	27451	26010	144643	27118	1037323	43839	110184	0	0	8421	374179	0	0
2024-07-10 05:23:47			0	42951	0	0	0	27454	26030	144671	27057	1037331	43841	110185	0	0	8421	373915	0	0
2024-07-10 05:24:47			0	42948	0	0	0	27446	26020	144687	26779	1037359	43862	110182	0	0	8421	374031	0	0
2024-07-10 05:25:47			0	42944	0	0	0	27451	26020	144715	27173	1037287	43840	110184	0	0	8421	374158	0	0
2024-07-10 05:26:47			0	42940	0	0	0	27441	26030	144639	27199	1037349	43841	110180	0	0	8421	374263	0	0
2024-07-10 05:27:47			0	42940	0	0	0	27451	26030	144659	27007	1037349	43864	110184	0	0	8421	374263	0	0
2024-07-10 05:28:47			0	42932	0	0	0	27457	26030	144779	27230	1037376	43875	110186	0	0	8420	374516	0	0
2024-07-10 05:29:47			0	42942	0	0	0	27459	26030	144731	27050	1037385	43852	110187	0	0	8421	374200	0	0
2024-07-10 05:30:47			0	42927	0	0	0	27457	26030	144679	27095	1037322	43841	110186	0	0	8420	374674	0	0
2024-07-10 05:31:47			0	42950	0	0	0	27457	26030	144663	26823	1037376	43841	110186	0	0	8421	373947	0	0
2024-07-10 05:32:47			0	42956	0	0	0	27454	26040	144667	26965	1037394	43852	110185	0	0	8422	373736	0	0
2024-07-10 05:33:47			0	42945	0	0	0	27441	26030	144715	27066	1037412	43841	110180	0	0	8421	374105	0	0
2024-07-10 05:34:47			0	42961	0	0	0	27431	26030	144727	27145	1037403	43852	110176	0	0	8422	373599	0	0
2024-07-10 05:35:47			0	42952	0	0	0	27431	26040	144575	27060	1037474	43852	110176	0	0	8422	373862	0	0
2024-07-10 05:36:47			0	42987	0	0	0	27444	26030	144599	27001	1037385	43852	110181	0	0	8424	372777	0	0
2024-07-10 05:37:47			0	42984	0	0	0	27464	26050	144579	26977	1037411	43866	110189	0	0	8423	372830	0	0
2024-07-10 05:38:47			0	42981	0	0	0	27457	26040	144563	27036	1037456	43865	110186	0	0	8423	372946	0	0
2024-07-10 05:39:47			0	43000	0	0	0	27470	26040	144571	26901	1037456	43853	110191	0	0	8424	372346	0	0
2024-07-10 05:40:47			0	42989	0	0	0	27457	26050	144495	27194	1037519	43843	110186	0	0	8424	372672	0	0
2024-07-10 05:41:47			0	42999	0	0	0	27449	26050	144535	27126	1037438	43833	110183	0	0	8424	372356	0	0
2024-07-10 05:42:47			0	42997	0	0	0	27451	26050	144459	27053	1037465	43843	110184	0	0	8424	372419	0	0
2024-07-10 05:43:47			0	43035	0	0	0	27446	26050	144355	27005	1037438	43843	110182	0	0	8426	371220	0	0
2024-07-10 05:44:47			0	43023	0	0	0	27449	26060	144431	27119	1037509	43844	110183	0	0	8426	371578	0	0
2024-07-10 05:45:47			0	43043	0	0	0	27459	26050	144359	27274	1037519	43843	110187	0	0	8427	370968	0	0
2024-07-10 05:46:47			0	43049	0	0	0	27464	26050	144339	27137	1037492	43843	110189	0	0	8427	370779	0	0
2024-07-10 05:47:47			0	43042	0	0	0	27457	26050	144307	27473	1037519	43854	110186	0	0	8427	371000	0	0
2024-07-10 05:48:47			0	43068	0	0	0	27462	26050	144367	27300	1037492	43854	110188	0	0	8428	370181	0	0
2024-07-10 05:49:47			0	43071	0	0	0	27470	26050	144295	26800	1037474	43844	110191	0	0	8428	370086	0	0
2024-07-10 05:50:47			0	43063	0	0	0	27464	26050	144243	27187	1037492	43843	110189	0	0	8428	370338	0	0
2024-07-10 05:51:47			0	43092	0	0	0	27470	26050	144283	27053	1037474	43855	110191	0	0	8429	369425	0	0
2024-07-10 05:52:47			0	43095	0	0	0	27462	26060	144155	26870	1037483	43833	110188	0	0	8430	369310	0	0
2024-07-10 05:53:47			0	43100	0	0	0	27459	26050	144187	26960	1037501	43855	110187	0	0	8430	369174	0	0
2024-07-10 05:54:47			0	43095	0	0	0	27470	26050	144171	27182	1037438	43854	110191	0	0	8430	369331	0	0
2024-07-10 05:55:47			0	43122	0	0	0	27472	26050	144255	27197	1037501	43844	110192	0	0	8431	368482	0	0
2024-07-10 05:56:47			0	43134	0	0	0	27459	26060	144103	27260	1037456	43833	110187	0	0	8432	368084	0	0
2024-07-10 05:57:47			0	43128	0	0	0	27451	26060	144031	27121	1037509	43855	110184	0	0	8432	368273	0	0
2024-07-10 05:58:47			0	43123	0	0	0	27457	26070	144067	26915	1037580	43856	110186	0	0	8432	368409	0	0
2024-07-10 05:59:47			0	43134	0	0	0	27459	26060	144071	27175	1037483	43855	110187	0	0	8432	368084	0	0
2024-07-10 06:00:47			0	43151	0	0	0	27449	26040	144047	27007	1037537	43832	110183	0	0	8433	367593	0	0
2024-07-10 06:01:47			0	43149	0	0	0	27446	26050	144071	27192	1037527	43855	110182	0	0	8433	367635	0	0
2024-07-10 06:02:47			0	43161	0	0	0	27459	26060	144111	27157	1037509	43833	110187	0	0	8434	367237	0	0
2024-07-10 06:03:47			0	43162	0	0	0	27449	26060	144039	27067	1037456	43867	110183	0	0	8434	367206	0	0
2024-07-10 06:04:47			0	43169	0	0	0	27457	26050	143971	27287	1037492	43854	110186	0	0	8434	367007	0	0
2024-07-10 06:05:47			0	43161	0	0	0	27457	26050	144051	26987	1037501	43844	110186	0	0	8434	367258	0	0
2024-07-10 06:06:47			0	43179	0	0	0	27464	26060	143987	27039	1037536	43844	110189	0	0	8435	366672	0	0
2024-07-10 06:07:47			0	43177	0	0	0	27459	26050	143939	27237	1037474	43844	110187	0	0	8435	366756	0	0
2024-07-10 06:08:47			0	43181	0	0	0	27462	26050	144027	27234	1037519	43854	110188	0	0	8435	366631	0	0
2024-07-10 06:09:47			0	43194	0	0	0	27459	26050	143863	27079	1037527	43844	110187	0	0	8436	366223	0	0
2024-07-10 06:10:47			0	43167	0	0	0	27462	26060	143887	27322	1037563	43855	110188	0	0	8434	367049	0	0
2024-07-10 06:11:47			0	43206	0	0	0	27464	26060	143855	27242	1037536	43855	110189	0	0	8436	365826	0	0
2024-07-10 06:12:47			0	43190	0	0	0	27454	26070	143923	26993	1037545	43855	110185	0	0	8436	366307	0	0
2024-07-10 06:13:47			0	43205	0	0	0	27462	26070	143923	27019	1037545	43844	110188	0	0	8436	365837	0	0
2024-07-10 06:14:47			0	43183	0	0	0	27472	26070	143807	27298	1037518	43855	110192	0	0	8435	366526	0	0
2024-07-10 06:15:47			0	43202	0	0	0	27470	26070	143823	27374	1037527	43845	110191	0	0	8436	365931	0	0
2024-07-10 06:16:47			0	43201	0	0	0	27459	26070	143927	27164	1037438	43855	110187	0	0	8436	365962	0	0
2024-07-10 06:17:47			0	43184	0	0	0	27459	26060	143839	27232	1037509	43855	110187	0	0	8435	366516	0	0
2024-07-10 06:18:47			0	43221	0	0	0	27438	26050	143783	27078	1037358	43843	110179	0	0	8438	365378	0	0
2024-07-10 06:19:47			0	43206	0	0	0	27431	26040	143855	27166	1037313	43819	110176	0	0	8437	365868	0	0
2024-07-10 06:20:47			0	43208	0	0	0	27418	26030	143803	27078	1037242	43819	110171	0	0	8437	365826	0	0
2024-07-10 06:21:47			0	43197	0	0	0	27418	26010	143827	26882	1037180	43817	110171	0	0	8436	366213	0	0
2024-07-10 06:22:47			0	43182	0	0	0	27392	26000	143887	27128	1037118	43828	110161	0	0	8436	366704	0	0
2024-07-10 06:23:47			0	43180	0	0	0	27394	25990	143911	27112	1037100	43827	110162	0	0	8436	366787	0	0
2024-07-10 06:24:47			0	43194	0	0	0	27368	25980	143859	27079	1037029	43826	110152	0	0	8437	366369	0	0
2024-07-10 06:25:47			0	43188	0	0	0	27350	25980	143943	27097	1037074	43825	110145	0	0	8437	366558	0	0
2024-07-10 06:26:47			0	43202	0	0	0	27353	25970	143967	27083	1036949	43824	110146	0	0	8438	366140	0	0
2024-07-10 06:27:47			0	43158	0	0	0	27332	25970	143971	27248	1037065	43825	110138	0	0	8435	367520	0	0
2024-07-10 06:28:47			0	43176	0	0	0	27324	25960	143895	27015	1036985	43812	110135	0	0	8437	366976	0	0
2024-07-10 06:29:47			0	43178	0	0	0	27309	25940	143955	27277	1036906	43833	110129	0	0	8437	366955	0	0
2024-07-10 06:30:47			0	43170	0	0	0	27319	25950	144035	27253	1036914	43822	110133	0	0	8436	367185	0	0
2024-07-10 06:31:47			0	43168	0	0	0	27327	25940	143935	27140	1036924	43843	110136	0	0	8436	367269	0	0
2024-07-10 06:32:47			0	43156	0	0	0	27335	25930	143995	27114	1036915	43832	110139	0	0	8435	367666	0	0
2024-07-10 06:33:47			0	43146	0	0	0	27332	25940	144087	27098	1036924	43843	110138	0	0	8435	367959	0	0
2024-07-10 06:34:47			0	43146	0	0	0	27337	25930	144119	27265	1036834	43842	110140	0	0	8434	367980	0	0
2024-07-10 06:35:47			0	43136	0	0	0	27345	25930	144159	27315	1036853	43853	110143	0	0	8434	368295	0	0
2024-07-10 06:36:47			0	43133	0	0	0	27329	25930	144211	27218	1036915	43842	110137	0	0	8434	368389	0	0
2024-07-10 06:37:47			0	43144	0	0	0	27322	25930	144151	27377	1036888	43842	110134	0	0	8435	368043	0	0
2024-07-10 06:38:47			0	43122	0	0	0	27329	25930	144175	27294	1036861	43842	110137	0	0	8433	368735	0	0
2024-07-10 06:39:47			0	43118	0	0	0	27319	25930	144171	27616	1036888	43842	110133	0	0	8433	368860	0	0
2024-07-10 06:40:47			0	43116	0	0	0	27324	25940	144131	27523	1036897	43833	110135	0	0	8433	368902	0	0
2024-07-10 06:41:47			0	43113	0	0	0	27329	25940	144199	27234	1036977	43854	110137	0	0	8433	368997	0	0
2024-07-10 06:42:47			0	43099	0	0	0	27342	25950	144227	27308	1036968	43855	110142	0	0	8432	369416	0	0
2024-07-10 06:43:47			0	43056	0	0	0	27358	25950	144339	27788	1037048	43855	110148	0	0	8429	370770	0	0
2024-07-10 06:44:47			0	43043	0	0	0	27366	25950	144363	27015	1037048	43855	110151	0	0	8428	371180	0	0
2024-07-10 06:45:47			0	43012	0	0	0	27358	25960	144543	27907	1037075	43857	110148	0	0	8426	372137	0	0
2024-07-10 06:46:47			0	43011	0	0	0	27363	25960	144435	27611	1037120	43845	110150	0	0	8426	372168	0	0
2024-07-10 06:47:47			0	43003	0	0	0	27353	25960	144555	27464	1037048	43834	110146	0	0	8426	372421	0	0
2024-07-10 06:48:47			0	42971	0	0	0	27340	25950	144651	27429	1037004	43844	110141	0	0	8424	373453	0	0
2024-07-10 06:49:47			0	42936	0	0	0	27335	25960	144655	27412	1037021	43857	110139	0	0	8422	374539	0	0
2024-07-10 06:50:47			0	42919	0	0	0	27322	25960	144767	27530	1036985	43833	110134	0	0	8421	375077	0	0
2024-07-10 06:51:47			0	42922	0	0	0	27324	25950	144783	27514	1036941	43844	110135	0	0	8421	375004	0	0
2024-07-10 06:52:47			0	42903	0	0	0	27322	25950	144855	27717	1036914	43844	110134	0	0	8420	375606	0	0
2024-07-10 06:53:47			0	42896	0	0	0	27309	25950	144863	27466	1036968	43844	110129	0	0	8420	375828	0	0
2024-07-10 06:54:47			0	42858	0	0	0	27306	25940	144883	27298	1036879	43833	110128	0	0	8418	377055	0	0
2024-07-10 06:55:47			0	42867	0	0	0	27298	25930	144867	27815	1036915	43832	110125	0	0	8418	376791	0	0
2024-07-10 06:56:47			0	42858	0	0	0	27301	25940	144959	28103	1036924	43843	110126	0	0	8418	377055	0	0
2024-07-10 06:57:47			0	42859	0	0	0	27298	25940	145035	27438	1036924	43843	110125	0	0	8418	377023	0	0
2024-07-10 06:58:47			0	42835	0	0	0	27306	25940	145071	27409	1036897	43843	110128	0	0	8416	377785	0	0
2024-07-10 06:59:47			0	42824	0	0	0	27298	25940	145163	27646	1036870	43843	110125	0	0	8416	378135	0	0
2024-07-10 07:00:47			0	42797	0	0	0	27306	25930	145139	27630	1036888	43832	110128	0	0	8414	379016	0	0
2024-07-10 07:01:47			0	42796	0	0	0	27311	25930	145187	27459	1036888	43832	110130	0	0	8414	379047	0	0
2024-07-10 07:02:47			0	42766	0	0	0	27309	25930	145243	27691	1036853	43842	110129	0	0	8412	380003	0	0
2024-07-10 07:03:47			0	42770	0	0	0	27301	25930	145275	28098	1036799	43832	110126	0	0	8413	379875	0	0
2024-07-10 07:04:47			0	42756	0	0	0	27301	25930	145215	27343	1036853	43832	110126	0	0	8412	380321	0	0
2024-07-10 07:05:47			0	42744	0	0	0	27319	25930	145335	27640	1036879	43832	110133	0	0	8411	380704	0	0
2024-07-10 07:06:47			0	42726	0	0	0	27319	25930	145287	27573	1036906	43853	110133	0	0	8410	381278	0	0
2024-07-10 07:07:47			0	42740	0	0	0	27329	25920	145315	27696	1036924	43842	110137	0	0	8410	380853	0	0
2024-07-10 07:08:47			0	42726	0	0	0	27324	25930	145354	27793	1036879	43853	110135	0	0	8410	381278	0	0
2024-07-10 07:09:47			0	42700	0	0	0	27332	25930	145358	27883	1036879	43842	110138	0	0	8408	382108	0	0
2024-07-10 07:10:47			0	42703	0	0	0	27329	25920	145410	27885	1036924	43842	110137	0	0	8408	382034	0	0
2024-07-10 07:11:47			0	42704	0	0	0	27324	25930	145462	28018	1036933	43842	110135	0	0	8408	381981	0	0
2024-07-10 07:12:47			0	42706	0	0	0	27327	25930	145450	27438	1036969	43842	110136	0	0	8408	381917	0	0
2024-07-10 07:13:47			0	42709	0	0	0	27337	25920	145574	27592	1036897	43832	110140	0	0	8408	381843	0	0
2024-07-10 07:14:47			0	42702	0	0	0	27322	25930	145486	27942	1036915	43832	110134	0	0	8408	382044	0	0
2024-07-10 07:15:47			0	42696	0	0	0	27335	25940	145458	28096	1036897	43833	110139	0	0	8408	382214	0	0
2024-07-10 07:16:47			0	42717	0	0	0	27329	25930	145438	27599	1036906	43842	110137	0	0	8409	381566	0	0
2024-07-10 07:17:47			0	42728	0	0	0	27324	25930	145475	27517	1036906	43842	110135	0	0	8410	381214	0	0
2024-07-10 07:18:47			0	42708	0	0	0	27324	25930	145478	28166	1036942	43842	110135	0	0	8409	381853	0	0
2024-07-10 07:19:47			0	42718	0	0	0	27329	25940	145458	28150	1036950	43843	110137	0	0	8409	381512	0	0
2024-07-10 07:20:47			0	42704	0	0	0	27340	25940	145466	27628	1036924	43843	110141	0	0	8408	381959	0	0
2024-07-10 07:21:47			0	42712	0	0	0	27335	25940	145486	28124	1036950	43833	110139	0	0	8409	381703	0	0
2024-07-10 07:22:47			0	42724	0	0	0	27337	25930	145542	27772	1036906	43832	110140	0	0	8409	381342	0	0
2024-07-10 07:23:47			0	42713	0	0	0	27342	25940	145382	27575	1036950	43843	110142	0	0	8409	381671	0	0
2024-07-10 07:24:47			0	42719	0	0	0	27335	25940	145498	27654	1036950	43854	110139	0	0	8409	381480	0	0
2024-07-10 07:25:47			0	42699	0	0	0	27335	25940	145546	27842	1036924	43843	110139	0	0	8408	382119	0	0
2024-07-10 07:26:47			0	42713	0	0	0	27332	25940	145362	28547	1036897	43843	110138	0	0	8409	381671	0	0
2024-07-10 07:27:47			0	42726	0	0	0	27332	25940	145406	28116	1036977	43843	110138	0	0	8410	381257	0	0
2024-07-10 07:28:47			0	42707	0	0	0	27335	25940	145510	27635	1036950	43843	110139	0	0	8408	381863	0	0
2024-07-10 07:29:47			0	42724	0	0	0	27327	25940	145539	27462	1036924	43833	110136	0	0	8410	381320	0	0
2024-07-10 07:30:47			0	42693	0	0	0	27329	25940	145406	27547	1036986	43844	110137	0	0	8408	382310	0	0
2024-07-10 07:31:47			0	42716	0	0	0	27324	25940	145466	27507	1036897	43833	110135	0	0	8409	381576	0	0
2024-07-10 07:32:47			0	42689	0	0	0	27327	25940	145510	27592	1036950	43843	110136	0	0	8407	382438	0	0
2024-07-10 07:33:47			0	42701	0	0	0	27332	25940	145454	27732	1036924	43833	110138	0	0	8408	382055	0	0
2024-07-10 07:34:47			0	42717	0	0	0	27335	25940	145450	28185	1036959	43844	110139	0	0	8409	381544	0	0
2024-07-10 07:35:47			0	42689	0	0	0	27335	25930	145486	27630	1036942	43842	110139	0	0	8407	382460	0	0
2024-07-10 07:36:47			0	42708	0	0	0	27327	25930	145486	28093	1036995	43842	110136	0	0	8409	381853	0	0
2024-07-10 07:37:47			0	42697	0	0	0	27319	25930	145462	27930	1036942	43842	110133	0	0	8408	382204	0	0
2024-07-10 07:38:47			0	42712	0	0	0	27332	25940	145442	27810	1036977	43843	110138	0	0	8409	381703	0	0
2024-07-10 07:39:47			0	42683	0	0	0	27358	25940	145526	28010	1036950	43833	110148	0	0	8407	382630	0	0
2024-07-10 07:40:47			0	42691	0	0	0	27361	25940	145506	27862	1037031	43843	110149	0	0	8407	382374	0	0
2024-07-10 07:41:47			0	42666	0	0	0	27363	25940	145530	27763	1037013	43833	110150	0	0	8405	383173	0	0
2024-07-10 07:42:47			0	42663	0	0	0	27386	25940	145650	28013	1036986	43833	110159	0	0	8405	383269	0	0
2024-07-10 07:43:47			0	42659	0	0	0	27394	25940	145646	28232	1037040	43855	110162	0	0	8405	383397	0	0
2024-07-10 07:44:47			0	42651	0	0	0	27397	25960	145726	28036	1037120	43868	110163	0	0	8404	383609	0	0
2024-07-10 07:45:47			0	42649	0	0	0	27389	25940	145746	27750	1037093	43867	110160	0	0	8404	383717	0	0
2024-07-10 07:46:47			0	42626	0	0	0	27399	25960	145782	27528	1037101	43857	110164	0	0	8403	384410	0	0
2024-07-10 07:47:47			0	42629	0	0	0	27399	25960	145722	27201	1037155	43846	110164	0	0	8403	384314	0	0
2024-07-10 07:48:47			0	42615	0	0	0	27407	25970	145834	27741	1037191	43857	110167	0	0	8402	384740	0	0
2024-07-10 07:49:47			0	42612	0	0	0	27412	25970	145762	27699	1037191	43846	110169	0	0	8402	384836	0	0
2024-07-10 07:50:47			0	42600	0	0	0	27397	25970	145778	27583	1037137	43846	110163	0	0	8401	385221	0	0
2024-07-10 07:51:47			0	42611	0	0	0	27379	25970	145742	28362	1037110	43846	110156	0	0	8402	384868	0	0
2024-07-10 07:52:47			0	42622	0	0	0	27373	25970	145774	27666	1037083	43846	110154	0	0	8403	384516	0	0
2024-07-10 07:53:47			0	42586	0	0	0	27399	25960	145850	27533	1037155	43834	110164	0	0	8400	385692	0	0
2024-07-10 07:54:47			0	42587	0	0	0	27399	25970	145778	28617	1037119	43847	110164	0	0	8400	385638	0	0
2024-07-10 07:55:47			0	42570	0	0	0	27399	25970	145826	27507	1037110	43834	110164	0	0	8399	386183	0	0
2024-07-10 07:56:47			0	42556	0	0	0	27373	25970	145838	27909	1037110	43857	110154	0	0	8399	386633	0	0
2024-07-10 07:57:47			0	42583	0	0	0	27366	25960	145830	28259	1037101	43846	110151	0	0	8401	385788	0	0
2024-07-10 07:58:47			0	42559	0	0	0	27348	25960	145906	27599	1037066	43845	110144	0	0	8400	386559	0	0
2024-07-10 07:59:47			0	42520	0	0	0	27358	25960	145882	28107	1037066	43856	110148	0	0	8397	387812	0	0
2024-07-10 08:00:47			0	42540	0	0	0	27376	25960	145994	27895	1037075	43846	110155	0	0	8398	387169	0	0
2024-07-10 08:01:47			0	42534	0	0	0	27368	25960	145946	27571	1037120	43845	110152	0	0	8398	387361	0	0
2024-07-10 08:02:47			0	42505	0	0	0	27371	25970	145986	27918	1037083	43857	110153	0	0	8396	388272	0	0
2024-07-10 08:03:47			0	42501	0	0	0	27384	25970	146066	27800	1037137	43834	110158	0	0	8396	388401	0	0
2024-07-10 08:04:47			0	42505	0	0	0	27386	25960	146098	27956	1037128	43846	110159	0	0	8396	388294	0	0
2024-07-10 08:05:47			0	42495	0	0	0	27386	25980	146110	27557	1037208	43858	110159	0	0	8395	388572	0	0
2024-07-10 08:06:47			0	42492	0	0	0	27405	25980	145986	27845	1037217	43859	110166	0	0	8395	388668	0	0
2024-07-10 08:07:47			0	42493	0	0	0	27394	25980	146226	27998	1037217	43848	110162	0	0	8395	388636	0	0
2024-07-10 08:08:47			0	42498	0	0	0	27397	25990	146162	27296	1037226	43860	110163	0	0	8395	388453	0	0
2024-07-10 08:09:47			0	42491	0	0	0	27399	25980	146130	27900	1037208	43869	110164	0	0	8395	388700	0	0
2024-07-10 08:10:47			0	42492	0	0	0	27394	25990	146142	27753	1037226	43849	110162	0	0	8395	388646	0	0
2024-07-10 08:11:47			0	42475	0	0	0	27405	25990	146198	27821	1037306	43849	110166	0	0	8394	389193	0	0
2024-07-10 08:12:47			0	42491	0	0	0	27405	25990	146070	27352	1037199	43849	110166	0	0	8395	388678	0	0
2024-07-10 08:13:47			0	42486	0	0	0	27407	25990	145998	27913	1037226	43849	110167	0	0	8394	388839	0	0
2024-07-10 08:14:47			0	42464	0	0	0	27399	25990	145994	27614	1037279	43849	110164	0	0	8393	389548	0	0
2024-07-10 08:15:47			0	42481	0	0	0	27405	26000	146046	27542	1037243	43849	110166	0	0	8394	388978	0	0
2024-07-10 08:16:47			0	42502	0	0	0	27407	25990	146018	27588	1037306	43837	110167	0	0	8395	388324	0	0
2024-07-10 08:17:47			0	42494	0	0	0	27405	26000	145946	28164	1037297	43860	110166	0	0	8395	388559	0	0
2024-07-10 08:18:47			0	42488	0	0	0	27415	26000	145970	27906	1037324	43849	110170	0	0	8394	388753	0	0
2024-07-10 08:19:47			0	42482	0	0	0	27410	26000	145954	28090	1037306	43850	110168	0	0	8394	388946	0	0
2024-07-10 08:20:47			0	42486	0	0	0	27410	26000	145930	27673	1037359	43850	110168	0	0	8394	388817	0	0
2024-07-10 08:21:47			0	42497	0	0	0	27412	26000	145994	28025	1037324	43849	110169	0	0	8395	388463	0	0
2024-07-10 08:22:47			0	42499	0	0	0	27410	26000	146006	27471	1037270	43827	110168	0	0	8395	388399	0	0
2024-07-10 08:23:47			0	42487	0	0	0	27402	26000	145978	27862	1037377	43849	110165	0	0	8395	388785	0	0
2024-07-10 08:24:47			0	42492	0	0	0	27394	25990	146002	27511	1037261	43849	110162	0	0	8395	388646	0	0
2024-07-10 08:25:47			0	42501	0	0	0	27407	26000	146058	27857	1037297	43849	110167	0	0	8395	388334	0	0
2024-07-10 08:26:47			0	42478	0	0	0	27428	26010	146074	27892	1037314	43851	110175	0	0	8394	389052	0	0
2024-07-10 08:27:47			0	42486	0	0	0	27407	26000	145978	27552	1037279	43861	110167	0	0	8394	388817	0	0
2024-07-10 08:28:47			0	42491	0	0	0	27379	26000	145982	27789	1037324	43837	110156	0	0	8395	388656	0	0
2024-07-10 08:29:47			0	42487	0	0	0	27384	26010	146022	27377	1037314	43851	110158	0	0	8395	388763	0	0
2024-07-10 08:30:47			0	42479	0	0	0	27376	26000	145966	27319	1037306	43850	110155	0	0	8394	389042	0	0
2024-07-10 08:31:47			0	42478	0	0	0	27379	26000	146078	27277	1037270	43837	110156	0	0	8394	389075	0	0
2024-07-10 08:32:47			0	42465	0	0	0	27373	25990	146062	26875	1037234	43849	110154	0	0	8394	389516	0	0
2024-07-10 08:33:47			0	42456	0	0	0	27371	26000	146038	27383	1037332	43838	110153	0	0	8393	389783	0	0
2024-07-10 08:34:47			0	42447	0	0	0	27373	26000	146058	27147	1037297	43837	110154	0	0	8393	390073	0	0
2024-07-10 08:35:47			0	42447	0	0	0	27376	25990	146122	26863	1037226	43827	110155	0	0	8393	390096	0	0
2024-07-10 08:36:47			0	42457	0	0	0	27361	25990	146122	27190	1037172	43837	110149	0	0	8393	389773	0	0
2024-07-10 08:37:47			0	42442	0	0	0	27361	25980	146122	27027	1037235	43825	110149	0	0	8392	390279	0	0
2024-07-10 08:38:47			0	42440	0	0	0	27373	25970	146142	27355	1037199	43835	110154	0	0	8392	390366	0	0
2024-07-10 08:39:47			0	42441	0	0	0	27381	25990	146054	26878	1037226	43849	110157	0	0	8392	390289	0	0
2024-07-10 08:40:47			0	42432	0	0	0	27394	25980	146086	27249	1037271	43848	110162	0	0	8391	390602	0	0
2024-07-10 08:41:47			0	42426	0	0	0	27412	25990	146214	27277	1037279	43849	110169	0	0	8391	390773	0	0
2024-07-10 08:42:47			0	42448	0	0	0	27428	25990	146158	26811	1037369	43849	110175	0	0	8392	390063	0	0
2024-07-10 08:43:47			0	42458	0	0	0	27415	26000	146194	27000	1037377	43860	110170	0	0	8393	389719	0	0
2024-07-10 08:44:47			0	42457	0	0	0	27446	26010	146102	27164	1037395	43862	110182	0	0	8392	389729	0	0
2024-07-10 08:45:47			0	42442	0	0	0	27470	26020	146122	27211	1037493	43851	110191	0	0	8391	390190	0	0
2024-07-10 08:46:47			0	42452	0	0	0	27475	26030	146138	27222	1037537	43875	110193	0	0	8391	389845	0	0
2024-07-10 08:47:47			0	42441	0	0	0	27475	26030	146062	27156	1037546	43852	110193	0	0	8391	390200	0	0
2024-07-10 08:48:47			0	42443	0	0	0	27472	26040	146162	27208	1037555	43852	110192	0	0	8391	390113	0	0
2024-07-10 08:49:47			0	42447	0	0	0	27470	26040	146082	27081	1037617	43853	110191	0	0	8391	389984	0	0
2024-07-10 08:50:47			0	42422	0	0	0	27477	26050	146122	26915	1037626	43854	110194	0	0	8390	390768	0	0
2024-07-10 08:51:47			0	42438	0	0	0	27485	26050	146090	26996	1037626	43866	110197	0	0	8390	390252	0	0
2024-07-10 08:52:47			0	42453	0	0	0	27480	26050	146122	26949	1037572	43854	110195	0	0	8391	389769	0	0
2024-07-10 08:53:47			0	42434	0	0	0	27483	26050	146058	27272	1037635	43867	110196	0	0	8390	390381	0	0
2024-07-10 08:54:47			0	42452	0	0	0	27480	26050	146030	27050	1037635	43855	110195	0	0	8391	389801	0	0
2024-07-10 08:55:47			0	42432	0	0	0	27464	26070	146046	27128	1037706	43855	110189	0	0	8391	390401	0	0
2024-07-10 08:56:47			0	42436	0	0	0	27467	26070	146114	26897	1037679	43867	110190	0	0	8391	390272	0	0
2024-07-10 08:57:47			0	42436	0	0	0	27477	26080	146306	27105	1037670	43857	110194	0	0	8391	390250	0	0
2024-07-10 08:58:47			0	42414	0	0	0	27470	26080	146218	27135	1037750	43857	110191	0	0	8389	390960	0	0
2024-07-10 08:59:47			0	42415	0	0	0	27444	26080	146214	27305	1037670	43857	110181	0	0	8390	390927	0	0
2024-07-10 09:00:47			0	42423	0	0	0	27441	26070	146246	26955	1037634	43856	110180	0	0	8390	390691	0	0
2024-07-10 09:01:47			0	42387	0	0	0	27485	26090	146282	26979	1037714	43857	110197	0	0	8388	391809	0	0
2024-07-10 09:02:47			0	42404	0	0	0	27532	26090	146238	27066	1037776	43869	110215	0	0	8388	391260	0	0
2024-07-10 09:03:47			0	42403	0	0	0	27548	26100	146274	26979	1037901	43892	110221	0	0	8388	391270	0	0
2024-07-10 09:04:47			0	42368	0	0	0	27553	26120	146310	27059	1038008	43883	110223	0	0	8385	392356	0	0
2024-07-10 09:05:47			0	42392	0	0	0	27535	26130	146286	26885	1037972	43884	110216	0	0	8387	391558	0	0
2024-07-10 09:06:47			0	42380	0	0	0	27540	26120	146222	27007	1037963	43884	110218	0	0	8386	391968	0	0
2024-07-10 09:07:47			0	42379	0	0	0	27568	26150	146242	27015	1038141	43864	110229	0	0	8386	391933	0	0
2024-07-10 09:08:47			0	42379	0	0	0	27610	26140	146274	26975	1038132	43864	110245	0	0	8385	391955	0	0
2024-07-10 09:09:47			0	42358	0	0	0	27618	26160	146254	26786	1038212	43875	110248	0	0	8384	392589	0	0
2024-07-10 09:10:47			0	42393	0	0	0	27612	26170	146274	27213	1038256	43866	110246	0	0	8386	391436	0	0
2024-07-10 09:11:47			0	42384	0	0	0	27649	26180	146294	27102	1038355	43877	110260	0	0	8385	391705	0	0
2024-07-10 09:12:47			0	42379	0	0	0	27638	26200	146226	26892	1038443	43890	110256	0	0	8385	391821	0	0
2024-07-10 09:13:47			0	42388	0	0	0	27644	26200	146162	26993	1038452	43891	110258	0	0	8385	391531	0	0
2024-07-10 09:14:47			0	42377	0	0	0	27638	26200	146202	27111	1038452	43880	110256	0	0	8385	391886	0	0
2024-07-10 09:15:47			0	42370	0	0	0	27628	26220	146278	26904	1038505	43881	110252	0	0	8385	392067	0	0
2024-07-10 09:16:47			0	42360	0	0	0	27620	26210	146210	27131	1038434	43870	110249	0	0	8384	392412	0	0
2024-07-10 09:17:47			0	42351	0	0	0	27625	26230	146238	27015	1038496	43883	110251	0	0	8384	392658	0	0
2024-07-10 09:18:47			0	42372	0	0	0	27599	26230	146170	27114	1038415	43861	110241	0	0	8385	391980	0	0
2024-07-10 09:19:47			0	42374	0	0	0	27574	26230	146166	27163	1038389	43872	110231	0	0	8386	391915	0	0
2024-07-10 09:20:47			0	42382	0	0	0	27558	26220	146122	26830	1038398	43859	110225	0	0	8387	391680	0	0
2024-07-10 09:21:47			0	42376	0	0	0	27563	26220	146146	26734	1038407	43871	110227	0	0	8386	391873	0	0
2024-07-10 09:22:47			0	42359	0	0	0	27555	26210	146118	26866	1038416	43859	110224	0	0	8385	392445	0	0
2024-07-10 09:23:47			0	42358	0	0	0	27568	26210	146270	27365	1038309	43848	110229	0	0	8385	392477	0	0
2024-07-10 09:24:47			0	42353	0	0	0	27571	26220	146234	26937	1038380	43860	110230	0	0	8385	392616	0	0
2024-07-10 09:25:47			0	42368	0	0	0	27579	26220	146190	26757	1038344	43870	110233	0	0	8385	392132	0	0
2024-07-10 09:26:47			0	42364	0	0	0	27563	26220	146182	26729	1038344	43859	110227	0	0	8385	392261	0	0
2024-07-10 09:27:47			0	42343	0	0	0	27623	26220	146210	26993	1038407	43871	110250	0	0	8383	392939	0	0
2024-07-10 09:28:47			0	42339	0	0	0	27644	26230	146354	26817	1038442	43883	110258	0	0	8383	393046	0	0
2024-07-10 09:29:47			0	42360	0	0	0	27625	26230	146274	27275	1038496	43883	110251	0	0	8384	392368	0	0
2024-07-10 09:30:47			0	42354	0	0	0	27631	26240	146286	27329	1038522	43873	110253	0	0	8384	392539	0	0
2024-07-10 09:31:47			0	42351	0	0	0	27607	26240	146146	27277	1038540	43861	110244	0	0	8384	392636	0	0
2024-07-10 09:32:47			0	42363	0	0	0	27615	26240	146314	27246	1038549	43862	110247	0	0	8385	392248	0	0
2024-07-10 09:33:47			0	42337	0	0	0	27711	26250	146286	27353	1038585	43874	110284	0	0	8381	393066	0	0
2024-07-10 09:34:47			0	42347	0	0	0	27677	26250	146278	27353	1038620	43863	110271	0	0	8383	392743	0	0
2024-07-10 09:35:47			0	42349	0	0	0	27677	26260	146318	27260	1038638	43875	110271	0	0	8383	392656	0	0
2024-07-10 09:36:47			0	42370	0	0	0	27602	26260	146342	27260	1038548	43864	110242	0	0	8385	391977	0	0
2024-07-10 09:37:47			0	42364	0	0	0	27605	26260	146150	27045	1038522	43875	110243	0	0	8385	392171	0	0
2024-07-10 09:38:47			0	42375	0	0	0	27602	26240	146226	27048	1038469	43851	110242	0	0	8386	391861	0	0
2024-07-10 09:39:47			0	42344	0	0	0	27618	26240	146158	27414	1038513	43872	110248	0	0	8383	392862	0	0
2024-07-10 09:40:47			0	42370	0	0	0	27610	26240	146266	27045	1038522	43851	110245	0	0	8385	392022	0	0
2024-07-10 09:41:47			0	42368	0	0	0	27589	26240	146270	26838	1038433	43861	110237	0	0	8385	392087	0	0
2024-07-10 09:42:47			0	42363	0	0	0	27529	26230	146242	26837	1038442	43850	110214	0	0	8386	392271	0	0
2024-07-10 09:43:47			0	42359	0	0	0	27548	26220	146242	27291	1038299	43837	110221	0	0	8385	392422	0	0
2024-07-10 09:44:47			0	42361	0	0	0	27592	26220	146170	27260	1038344	43859	110238	0	0	8385	392358	0	0
2024-07-10 09:45:47			0	42364	0	0	0	27625	26220	146210	26974	1038371	43881	110251	0	0	8384	392261	0	0
2024-07-10 09:46:47			0	42360	0	0	0	27628	26230	146246	27201	1038442	43872	110252	0	0	8384	392368	0	0
2024-07-10 09:47:47			0	42345	0	0	0	27633	26230	146174	27144	1038523	43872	110254	0	0	8383	392852	0	0
2024-07-10 09:48:47			0	42348	0	0	0	27625	26230	146310	27291	1038532	43883	110251	0	0	8384	392755	0	0
2024-07-10 09:49:47			0	42350	0	0	0	27620	26230	146290	27066	1038496	43850	110249	0	0	8384	392691	0	0
2024-07-10 09:50:47			0	42361	0	0	0	27586	26230	146282	27234	1038442	43872	110236	0	0	8385	392335	0	0
2024-07-10 09:51:47			0	42353	0	0	0	27586	26230	146258	27235	1038415	43861	110236	0	0	8384	392594	0	0
2024-07-10 09:52:47			0	42356	0	0	0	27586	26230	146234	26955	1038442	43872	110236	0	0	8385	392497	0	0
2024-07-10 09:53:47			0	42363	0	0	0	27584	26220	146206	26920	1038434	43871	110235	0	0	8385	392293	0	0
2024-07-10 09:54:47			0	42362	0	0	0	27589	26220	146282	26868	1038371	43881	110237	0	0	8385	392325	0	0
2024-07-10 09:55:47			0	42368	0	0	0	27602	26210	146234	27144	1038416	43870	110242	0	0	8385	392154	0	0
2024-07-10 09:56:47			0	42360	0	0	0	27594	26210	146206	27201	1038362	43870	110239	0	0	8385	392412	0	0
2024-07-10 09:57:47			0	42367	0	0	0	27579	26210	146238	27038	1038362	43870	110233	0	0	8385	392186	0	0
2024-07-10 09:58:47			0	42369	0	0	0	27579	26210	146278	27176	1038336	43870	110233	0	0	8385	392122	0	0
2024-07-10 09:59:47			0	42378	0	0	0	27574	26210	146270	27045	1038327	43881	110231	0	0	8386	391831	0	0
2024-07-10 10:00:47			0	42375	0	0	0	27566	26210	146206	27137	1038389	43870	110228	0	0	8386	391928	0	0
2024-07-10 10:01:47			0	42381	0	0	0	27550	26210	146290	26667	1038389	43870	110222	0	0	8387	391734	0	0
2024-07-10 10:02:47			0	42372	0	0	0	27599	26210	146134	27152	1038434	43859	110241	0	0	8385	392025	0	0
2024-07-10 10:03:47			0	42382	0	0	0	27555	26220	146134	27076	1038398	43859	110224	0	0	8387	391680	0	0
2024-07-10 10:04:47			0	42366	0	0	0	27524	26200	146122	27111	1038238	43847	110212	0	0	8386	392241	0	0
2024-07-10 10:05:47			0	42384	0	0	0	27516	26190	146082	27352	1038158	43857	110209	0	0	8387	391682	0	0
2024-07-10 10:06:47			0	42388	0	0	0	27477	26180	146042	27220	1038042	43845	110194	0	0	8388	391575	0	0
2024-07-10 10:07:47			0	42400	0	0	0	27480	26170	146150	27104	1038051	43843	110195	0	0	8389	391210	0	0
2024-07-10 10:08:47			0	42384	0	0	0	27449	26160	146226	27131	1037926	43854	110183	0	0	8388	391749	0	0
2024-07-10 10:09:47			0	42383	0	0	0	27433	26150	146190	27041	1037855	43819	110177	0	0	8388	391804	0	0
2024-07-10 10:10:47			0	42395	0	0	0	27420	26130	146166	27213	1037784	43829	110172	0	0	8389	391461	0	0
2024-07-10 10:11:47			0	42369	0	0	0	27438	26130	146110	27088	1037784	43839	110179	0	0	8387	392301	0	0
2024-07-10 10:12:47			0	42381	0	0	0	27428	26120	146094	27208	1037793	43850	110175	0	0	8388	391935	0	0
2024-07-10 10:13:47			0	42393	0	0	0	27415	26130	146166	27135	1037784	43829	110170	0	0	8389	391526	0	0
2024-07-10 10:14:47			0	42386	0	0	0	27451	26110	146154	27008	1037722	43848	110184	0	0	8388	391796	0	0
2024-07-10 10:15:47			0	42370	0	0	0	27451	26110	146234	27072	1037758	43860	110184	0	0	8387	392313	0	0
2024-07-10 10:16:47			0	42389	0	0	0	27454	26110	146274	27206	1037830	43859	110185	0	0	8388	391699	0	0
2024-07-10 10:17:47			0	42370	0	0	0	27451	26110	146282	26885	1037776	43859	110184	0	0	8387	392313	0	0
2024-07-10 10:18:47			0	42361	0	0	0	27441	26110	146206	27393	1037776	43859	110180	0	0	8387	392604	0	0
2024-07-10 10:19:47			0	42380	0	0	0	27467	26100	146354	27197	1037767	43870	110190	0	0	8388	392013	0	0
2024-07-10 10:20:47			0	42377	0	0	0	27480	26110	146254	26982	1037883	43870	110195	0	0	8387	392087	0	0
2024-07-10 10:21:47			0	42378	0	0	0	27446	26110	146354	27319	1037803	43859	110182	0	0	8388	392055	0	0
2024-07-10 10:22:47			0	42376	0	0	0	27488	26110	146314	27149	1037811	43849	110198	0	0	8387	392119	0	0
2024-07-10 10:23:47			0	42395	0	0	0	27449	26100	146290	27013	1037794	43859	110183	0	0	8389	391528	0	0
2024-07-10 10:24:47			0	42377	0	0	0	27483	26110	146206	27341	1037811	43860	110196	0	0	8387	392087	0	0
2024-07-10 10:25:47			0	42391	0	0	0	27516	26100	146266	27215	1037848	43870	110209	0	0	8387	391657	0	0
2024-07-10 10:26:47			0	42380	0	0	0	27542	26110	146378	27131	1037856	43859	110219	0	0	8386	391990	0	0
2024-07-10 10:27:47			0	42385	0	0	0	27524	26120	146322	27066	1037928	43861	110212	0	0	8387	391806	0	0
2024-07-10 10:28:47			0	42365	0	0	0	27477	26110	146350	27059	1037919	43849	110194	0	0	8387	392475	0	0
2024-07-10 10:29:47			0	42357	0	0	0	27493	26110	146326	27272	1037838	43849	110200	0	0	8386	392734	0	0
2024-07-10 10:30:47			0	42361	0	0	0	27553	26120	146258	27171	1037954	43861	110223	0	0	8385	392582	0	0
2024-07-10 10:31:47			0	42364	0	0	0	27550	26120	146238	27343	1038044	43895	110222	0	0	8385	392485	0	0
2024-07-10 10:32:47			0	42378	0	0	0	27550	26140	146342	27175	1038043	43885	110222	0	0	8386	391988	0	0
2024-07-10 10:33:47			0	42374	0	0	0	27584	26140	146250	27289	1038150	43874	110235	0	0	8385	392117	0	0
2024-07-10 10:34:47			0	42369	0	0	0	27576	26150	146226	27052	1038168	43875	110232	0	0	8385	392256	0	0
2024-07-10 10:35:47			0	42374	0	0	0	27607	26150	146346	27377	1038257	43875	110244	0	0	8385	392094	0	0
2024-07-10 10:36:47			0	42375	0	0	0	27680	26160	146366	27064	1038382	43899	110272	0	0	8384	392040	0	0
2024-07-10 10:37:47			0	42369	0	0	0	27693	26190	146318	27005	1038533	43902	110277	0	0	8383	392167	0	0
2024-07-10 10:38:47			0	42345	0	0	0	27620	26210	146258	27163	1038497	43892	110249	0	0	8383	392897	0	0
2024-07-10 10:39:47			0	42372	0	0	0	27664	26210	146234	27327	1038568	43881	110266	0	0	8384	392025	0	0
2024-07-10 10:40:47			0	42376	0	0	0	27727	26220	146246	27305	1038595	43893	110290	0	0	8383	391873	0	0
2024-07-10 10:41:47			0	42365	0	0	0	27773	26230	146334	27341	1038746	43916	110308	0	0	8382	392206	0	0
2024-07-10 10:42:47			0	42363	0	0	0	27794	26250	146306	27149	1038915	43918	110316	0	0	8382	392226	0	0
2024-07-10 10:43:47			0	42365	0	0	0	27815	26270	146298	27258	1039022	43920	110324	0	0	8381	392116	0	0
2024-07-10 10:44:47			0	42347	0	0	0	27836	26290	146182	27229	1039111	43921	110332	0	0	8380	392653	0	0
2024-07-10 10:45:47			0	42365	0	0	0	27846	26320	146182	27346	1039217	43924	110336	0	0	8381	392004	0	0
2024-07-10 10:46:47			0	42362	0	0	0	27867	26340	146202	27201	1039315	43938	110344	0	0	8381	392057	0	0
2024-07-10 10:47:47			0	42375	0	0	0	27812	26370	146186	26977	1039323	43918	110323	0	0	8383	391570	0	0
2024-07-10 10:48:47			0	42364	0	0	0	27841	26370	146146	27234	1039493	43896	110334	0	0	8381	391925	0	0
2024-07-10 10:49:47			0	42345	0	0	0	27864	26400	146202	27263	1039644	43910	110343	0	0	8380	392471	0	0
2024-07-10 10:50:47			0	42350	0	0	0	27857	26410	146114	27249	1039644	43912	110340	0	0	8380	392287	0	0
2024-07-10 10:51:47			0	42363	0	0	0	27909	26430	146206	27556	1039706	43914	110360	0	0	8380	391823	0	0
2024-07-10 10:52:47			0	42335	0	0	0	27999	26450	146242	27126	1039902	43926	110395	0	0	8377	392682	0	0
2024-07-10 10:53:47			0	42338	0	0	0	28023	26480	146278	27104	1040026	43940	110404	0	0	8377	392517	0	0
2024-07-10 10:54:47			0	42352	0	0	0	28025	26500	146174	27371	1040142	43920	110405	0	0	8378	392021	0	0
2024-07-10 10:55:47			0	42330	0	0	0	28057	26510	146262	27114	1040222	43921	110417	0	0	8376	392708	0	0
2024-07-10 10:56:47			0	42338	0	0	0	28054	26530	146118	27604	1040248	43922	110416	0	0	8377	392405	0	0
2024-07-10 10:57:47			0	42310	0	0	0	28098	26540	146202	27434	1040356	43924	110433	0	0	8375	393287	0	0
2024-07-10 10:58:47			0	42328	0	0	0	28155	26560	146270	26904	1040579	43949	110455	0	0	8375	392661	0	0
2024-07-10 10:59:47			0	42331	0	0	0	28124	26590	146170	26979	1040649	43929	110443	0	0	8376	392496	0	0
2024-07-10 11:00:47			0	42314	0	0	0	28166	26610	146130	27315	1040774	43942	110459	0	0	8374	393000	0	0
2024-07-10 11:01:47			0	42312	0	0	0	28223	26630	146094	27313	1040880	43933	110481	0	0	8373	393020	0	0
2024-07-10 11:02:47			0	42318	0	0	0	28259	26640	146054	27249	1041014	43945	110495	0	0	8373	392804	0	0
2024-07-10 11:03:47			0	42312	0	0	0	28173	26680	146074	27206	1041076	43959	110462	0	0	8374	392907	0	0
2024-07-10 11:04:47			0	42309	0	0	0	28132	26700	145946	27440	1041111	43940	110446	0	0	8375	392959	0	0
2024-07-10 11:05:47			0	42335	0	0	0	28116	26710	145954	26890	1041012	43929	110440	0	0	8376	392098	0	0
2024-07-10 11:06:47			0	42310	0	0	0	28114	26710	145942	27277	1041021	43918	110439	0	0	8375	392905	0	0
2024-07-10 11:07:47			0	42325	0	0	0	28145	26720	145890	27118	1041057	43919	110451	0	0	8375	392398	0	0
2024-07-10 11:08:47			0	42329	0	0	0	28142	26740	145990	27201	1041119	43921	110450	0	0	8376	392224	0	0
2024-07-10 11:09:47			0	42326	0	0	0	28205	26740	145878	26965	1041172	43932	110474	0	0	8375	392321	0	0
2024-07-10 11:10:47			0	42307	0	0	0	28168	26740	145914	26937	1041235	43933	110460	0	0	8374	392934	0	0
2024-07-10 11:11:47			0	42319	0	0	0	28220	26760	145894	27194	1041234	43912	110480	0	0	8374	392502	0	0
2024-07-10 11:12:47			0	42311	0	0	0	28233	26770	145998	27254	1041314	43924	110485	0	0	8373	392737	0	0
2024-07-10 11:13:47			0	42307	0	0	0	28254	26780	145866	27149	1041431	43936	110493	0	0	8373	392844	0	0
2024-07-10 11:14:47			0	42293	0	0	0	28270	26790	145890	27438	1041430	43938	110499	0	0	8372	393273	0	0
2024-07-10 11:15:47			0	42313	0	0	0	28277	26800	145918	27308	1041475	43950	110502	0	0	8373	392605	0	0
2024-07-10 11:16:47			0	42289	0	0	0	28262	26810	145910	27339	1041573	43951	110496	0	0	8372	393357	0	0
2024-07-10 11:17:47			0	42304	0	0	0	28277	26810	145874	27067	1041600	43939	110502	0	0	8372	392873	0	0
2024-07-10 11:18:47			0	42298	0	0	0	28283	26820	145978	27024	1041644	43918	110504	0	0	8372	393044	0	0
2024-07-10 11:19:47			0	42299	0	0	0	28314	26830	145986	27161	1041662	43941	110516	0	0	8371	392990	0	0
2024-07-10 11:20:47			0	42285	0	0	0	28340	26850	146014	27017	1041750	43956	110526	0	0	8370	393396	0	0
2024-07-10 11:21:47			0	42290	0	0	0	28371	26860	146078	27242	1041840	43966	110538	0	0	8370	393212	0	0
2024-07-10 11:22:47			0	42264	0	0	0	28376	26870	145910	26856	1041938	43957	110540	0	0	8369	394029	0	0
2024-07-10 11:23:47			0	42286	0	0	0	28399	26880	145974	27343	1041956	43957	110549	0	0	8369	393297	0	0
2024-07-10 11:24:47			0	42279	0	0	0	28379	26910	145930	27173	1042089	43938	110541	0	0	8370	393455	0	0
2024-07-10 11:25:47			0	42281	0	0	0	28397	26910	145938	27206	1042089	43959	110548	0	0	8369	393390	0	0
2024-07-10 11:26:47			0	42260	0	0	0	28386	26920	145918	27055	1042107	43972	110544	0	0	8368	394046	0	0
2024-07-10 11:27:47			0	42280	0	0	0	28405	26940	145882	26790	1042142	43953	110551	0	0	8369	393355	0	0
2024-07-10 11:28:47			0	42274	0	0	0	28399	26940	145866	27282	1042222	43941	110549	0	0	8369	393548	0	0
2024-07-10 11:29:47			0	42293	0	0	0	28410	26950	145878	27088	1042240	43942	110553	0	0	8370	392913	0	0
2024-07-10 11:30:47			0	42292	0	0	0	28428	26950	145862	27081	1042231	43941	110560	0	0	8370	392945	0	0
2024-07-10 11:31:47			0	42286	0	0	0	28428	26960	145830	27116	1042311	43965	110560	0	0	8369	393116	0	0
2024-07-10 11:32:47			0	42279	0	0	0	28428	26980	145818	27336	1042364	43956	110560	0	0	8369	393297	0	0
2024-07-10 11:33:47			0	42305	0	0	0	28431	26970	145806	27329	1042329	43966	110561	0	0	8370	392481	0	0
2024-07-10 11:34:47			0	42276	0	0	0	28431	26990	145758	27232	1042418	43946	110561	0	0	8369	393371	0	0
2024-07-10 11:35:47			0	42287	0	0	0	28428	26990	145842	27390	1042364	43946	110560	0	0	8369	393016	0	0
2024-07-10 11:36:47			0	42297	0	0	0	28433	27000	145842	27046	1042400	43957	110562	0	0	8370	392671	0	0
2024-07-10 11:37:47			0	42306	0	0	0	28415	27010	145798	26887	1042417	43947	110555	0	0	8371	392359	0	0
2024-07-10 11:38:47			0	42301	0	0	0	28402	27010	145690	27168	1042390	43947	110550	0	0	8371	392520	0	0
2024-07-10 11:39:47			0	42319	0	0	0	28392	27010	145730	27107	1042363	43947	110546	0	0	8372	391940	0	0
2024-07-10 11:40:47			0	42308	0	0	0	28392	27010	145626	27029	1042336	43947	110546	0	0	8371	392294	0	0
2024-07-10 11:41:47			0	42320	0	0	0	28389	27010	145630	27353	1042336	43947	110545	0	0	8372	391907	0	0
2024-07-10 11:42:47			0	42318	0	0	0	28392	27000	145750	27268	1042328	43936	110546	0	0	8372	391994	0	0
2024-07-10 11:43:47			0	42312	0	0	0	28415	27000	145686	27024	1042355	43958	110555	0	0	8371	392188	0	0
2024-07-10 11:44:47			0	42309	0	0	0	28428	27010	145646	26892	1042444	43958	110560	0	0	8371	392262	0	0
2024-07-10 11:45:47			0	42316	0	0	0	28467	27020	145702	27102	1042605	43971	110575	0	0	8371	392014	0	0
2024-07-10 11:46:47			0	42322	0	0	0	28493	27040	145762	27227	1042631	43951	110585	0	0	8371	391776	0	0
2024-07-10 11:47:47			0	42322	0	0	0	28527	27040	145710	27022	1042739	43961	110598	0	0	8370	391776	0	0
2024-07-10 11:48:47			0	42312	0	0	0	28535	27060	145742	27289	1042774	43975	110601	0	0	8369	392053	0	0
2024-07-10 11:49:47			0	42316	0	0	0	28548	27070	145702	27168	1042908	43975	110606	0	0	8369	391901	0	0
2024-07-10 11:50:47			0	42336	0	0	0	28553	27080	145706	27353	1042971	43965	110608	0	0	8371	391235	0	0
2024-07-10 11:51:47			0	42326	0	0	0	28568	27090	145722	26975	1043042	43966	110614	0	0	8370	391535	0	0
2024-07-10 11:52:47			0	42320	0	0	0	28566	27100	145678	27208	1042952	43990	110613	0	0	8370	391705	0	0
2024-07-10 11:53:47			0	42321	0	0	0	28586	27110	145618	26960	1043059	43968	110621	0	0	8369	391651	0	0
2024-07-10 11:54:47			0	42322	0	0	0	28576	27130	145582	26948	1043166	43970	110617	0	0	8370	391574	0	0
2024-07-10 11:55:47			0	42324	0	0	0	28586	27130	145610	27163	1043058	43970	110621	0	0	8370	391509	0	0
2024-07-10 11:56:47			0	42331	0	0	0	28571	27130	145482	27256	1043202	43971	110615	0	0	8370	391284	0	0
2024-07-10 11:57:47			0	42325	0	0	0	28540	27130	145538	27369	1043085	43958	110603	0	0	8370	391477	0	0
2024-07-10 11:58:47			0	42347	0	0	0	28522	27130	145498	27341	1043032	43958	110596	0	0	8372	390769	0	0
2024-07-10 11:59:47			0	42351	0	0	0	28519	27120	145394	27059	1042987	43958	110595	0	0	8372	390663	0	0
2024-07-10 12:00:47			0	42365	0	0	0	28498	27120	145398	27182	1042942	43958	110587	0	0	8373	390213	0	0
2024-07-10 12:01:47			0	42348	0	0	0	28503	27120	145418	27013	1042960	43958	110589	0	0	8372	390760	0	0
2024-07-10 12:02:47			0	42367	0	0	0	28480	27120	145398	27196	1042880	43947	110580	0	0	8374	390149	0	0
2024-07-10 12:03:47			0	42389	0	0	0	28472	27110	145402	27041	1042951	43957	110577	0	0	8375	389464	0	0
2024-07-10 12:04:47			0	42372	0	0	0	28475	27110	145402	27301	1042835	43957	110578	0	0	8374	390010	0	0
2024-07-10 12:05:47			0	42368	0	0	0	28483	27100	145314	27156	1042880	43946	110581	0	0	8374	390161	0	0
2024-07-10 12:06:47			0	42384	0	0	0	28490	27100	145358	27313	1042871	43956	110584	0	0	8375	389647	0	0
2024-07-10 12:07:47			0	42368	0	0	0	28516	27110	145394	27220	1042943	43968	110594	0	0	8373	390139	0	0
2024-07-10 12:08:47			0	42392	0	0	0	28558	27110	145334	27173	1043005	43968	110610	0	0	8374	389368	0	0
2024-07-10 12:09:47			0	42386	0	0	0	28589	27110	145258	27263	1043086	43991	110622	0	0	8373	389561	0	0
2024-07-10 12:10:47			0	42384	0	0	0	28589	27130	145394	27055	1043175	43982	110622	0	0	8373	389580	0	0
2024-07-10 12:11:47			0	42395	0	0	0	28607	27130	145350	27239	1043228	43982	110629	0	0	8373	389227	0	0
2024-07-10 12:12:47			0	42396	0	0	0	28594	27150	145194	26970	1043210	43973	110624	0	0	8374	389150	0	0
2024-07-10 12:13:47			0	42390	0	0	0	28607	27150	145338	26842	1043317	43984	110629	0	0	8373	389343	0	0
2024-07-10 12:14:47			0	42389	0	0	0	28623	27160	145278	26776	1043353	43984	110635	0	0	8373	389353	0	0
2024-07-10 12:15:47			0	42400	0	0	0	28584	27170	145310	27119	1043290	43986	110620	0	0	8374	388977	0	0
2024-07-10 12:16:47			0	42386	0	0	0	28589	27170	145234	27322	1043344	43986	110622	0	0	8373	389427	0	0
2024-07-10 12:17:47			0	42401	0	0	0	28586	27170	145250	27279	1043371	43997	110621	0	0	8374	388945	0	0
2024-07-10 12:18:47			0	42402	0	0	0	28599	27170	145130	27230	1043371	43997	110626	0	0	8374	388913	0	0
2024-07-10 12:19:47			0	42416	0	0	0	28568	27170	145194	27180	1043272	43963	110614	0	0	8375	388464	0	0
2024-07-10 12:20:47			0	42395	0	0	0	28558	27180	145158	26944	1043308	43963	110610	0	0	8374	389116	0	0
2024-07-10 12:21:47			0	42407	0	0	0	28537	27170	145074	26963	1043299	43963	110602	0	0	8375	388753	0	0
2024-07-10 12:22:47			0	42414	0	0	0	28488	27170	145094	27177	1043192	43963	110583	0	0	8377	388528	0	0
2024-07-10 12:23:47			0	42432	0	0	0	28441	27170	145094	27215	1042995	43953	110565	0	0	8379	387951	0	0
2024-07-10 12:24:47			0	42430	0	0	0	28407	27140	145130	27248	1042897	43950	110552	0	0	8379	388082	0	0
2024-07-10 12:25:47			0	42441	0	0	0	28389	27130	145098	27121	1042817	43937	110545	0	0	8380	387752	0	0
2024-07-10 12:26:47			0	42438	0	0	0	28371	27120	145054	26937	1042691	43924	110538	0	0	8380	387871	0	0
2024-07-10 12:27:47			0	42431	0	0	0	28366	27090	145090	27196	1042639	43921	110536	0	0	8379	388162	0	0
2024-07-10 12:28:47			0	42445	0	0	0	28366	27070	145086	27362	1042586	43931	110536	0	0	8380	387757	0	0
2024-07-10 12:29:47			0	42437	0	0	0	28376	27070	145114	27072	1042523	43931	110540	0	0	8379	388014	0	0
2024-07-10 12:30:47			0	42439	0	0	0	28386	27060	145050	27100	1042559	43953	110544	0	0	8379	387972	0	0
2024-07-10 12:31:47			0	42438	0	0	0	28389	27040	145118	27119	1042443	43951	110545	0	0	8379	388049	0	0
2024-07-10 12:32:47			0	42454	0	0	0	28397	27050	145214	27291	1042550	43952	110548	0	0	8380	387514	0	0
2024-07-10 12:33:47			0	42455	0	0	0	28438	27040	145166	27098	1042587	43951	110564	0	0	8379	387504	0	0
2024-07-10 12:34:47			0	42454	0	0	0	28446	27050	145098	27126	1042658	43952	110567	0	0	8379	387514	0	0
2024-07-10 12:35:47			0	42449	0	0	0	28472	27060	145170	27300	1042694	43975	110577	0	0	8379	387652	0	0
2024-07-10 12:36:47			0	42440	0	0	0	28514	27060	145182	27045	1042747	43986	110593	0	0	8377	387940	0	0
2024-07-10 12:37:47			0	42435	0	0	0	28537	27080	145194	27208	1042971	43988	110602	0	0	8377	388056	0	0
2024-07-10 12:38:47			0	42440	0	0	0	28540	27080	145334	27310	1042997	43976	110603	0	0	8377	387895	0	0
2024-07-10 12:39:47			0	42439	0	0	0	28522	27090	145182	27199	1043042	43966	110596	0	0	8377	387905	0	0
2024-07-10 12:40:47			0	42432	0	0	0	28532	27100	145194	27216	1042979	43967	110600	0	0	8377	388107	0	0
2024-07-10 12:41:47			0	42450	0	0	0	28511	27100	145158	27260	1043041	43957	110592	0	0	8378	387531	0	0
2024-07-10 12:42:47			0	42428	0	0	0	28488	27100	145094	27428	1042952	43978	110583	0	0	8377	388235	0	0
2024-07-10 12:43:47			0	42442	0	0	0	28490	27110	145078	27261	1042943	43979	110584	0	0	8378	387765	0	0
2024-07-10 12:44:47			0	42451	0	0	0	28483	27100	145134	27291	1042880	43968	110581	0	0	8379	387498	0	0
2024-07-10 12:45:47			0	42452	0	0	0	28475	27100	145102	27327	1042871	43956	110578	0	0	8379	387466	0	0
2024-07-10 12:46:47			0	42444	0	0	0	28483	27100	145086	27116	1042818	43956	110581	0	0	8378	387723	0	0
2024-07-10 12:47:47			0	42474	0	0	0	28467	27090	145010	27434	1042836	43966	110575	0	0	8380	386784	0	0
2024-07-10 12:48:47			0	42446	0	0	0	28449	27090	144990	27397	1042728	43956	110568	0	0	8379	387681	0	0
2024-07-10 12:49:47			0	42442	0	0	0	28449	27090	144962	27256	1042773	43966	110568	0	0	8379	387809	0	0
2024-07-10 12:50:47			0	42476	0	0	0	28436	27080	144934	27320	1042711	43956	110563	0	0	8381	386742	0	0
2024-07-10 12:51:47			0	42473	0	0	0	28428	27070	145010	27350	1042684	43954	110560	0	0	8381	386861	0	0
2024-07-10 12:52:47			0	42472	0	0	0	28418	27060	144930	27026	1042622	43963	110556	0	0	8381	386915	0	0
2024-07-10 12:53:47			0	42467	0	0	0	28418	27060	144982	27159	1042613	43953	110556	0	0	8380	387075	0	0
2024-07-10 12:54:47			0	42470	0	0	0	28425	27050	145042	27215	1042685	43962	110559	0	0	8381	387001	0	0
2024-07-10 12:55:47			0	42472	0	0	0	28724	27070	144994	27092	1043177	44020	110674	0	0	8376	386893	0	0
2024-07-10 12:56:47			0	42456	0	0	0	28607	27110	145118	27232	1043319	44035	110629	0	0	8377	387316	0	0
2024-07-10 12:57:47			0	42464	0	0	0	28667	27140	144966	27227	1043461	44049	110652	0	0	8376	386993	0	0
2024-07-10 12:58:47			0	42480	0	0	0	28633	27160	145046	27260	1043487	44006	110639	0	0	8378	386437	0	0
2024-07-10 12:59:47			0	42470	0	0	0	28659	27170	145006	27149	1043505	44008	110649	0	0	8377	386735	0	0
2024-07-10 13:00:47			0	42461	0	0	0	28646	27170	144942	27140	1043460	43986	110644	0	0	8377	387023	0	0
2024-07-10 13:01:47			0	42481	0	0	0	28646	27180	144954	27287	1043505	43987	110644	0	0	8378	386361	0	0
2024-07-10 13:02:47			0	42486	0	0	0	28628	27180	145030	26913	1043478	43998	110637	0	0	8379	386201	0	0
2024-07-10 13:03:47			0	42473	0	0	0	28589	27200	145010	27072	1043432	43977	110622	0	0	8379	386572	0	0
2024-07-10 13:04:47			0	42472	0	0	0	28599	27190	144926	27057	1043460	43988	110626	0	0	8378	386626	0	0
2024-07-10 13:05:47			0	42493	0	0	0	28571	27180	144894	26968	1043362	43963	110615	0	0	8380	385977	0	0
2024-07-10 13:06:47			0	42462	0	0	0	28553	27180	144994	27149	1043308	43963	110608	0	0	8378	386968	0	0
2024-07-10 13:07:47			0	42479	0	0	0	28532	27180	144898	27319	1043254	43986	110600	0	0	8380	386425	0	0
2024-07-10 13:08:47			0	42464	0	0	0	28548	27170	144890	27265	1043299	43974	110606	0	0	8379	386927	0	0
2024-07-10 13:09:47			0	42487	0	0	0	28566	27170	144886	27552	1043290	43974	110613	0	0	8380	386191	0	0
2024-07-10 13:10:47			0	42459	0	0	0	28592	27170	144982	27327	1043299	43986	110623	0	0	8378	387087	0	0
2024-07-10 13:11:47			0	42486	0	0	0	28612	27180	145006	27609	1043469	43997	110631	0	0	8379	386201	0	0
2024-07-10 13:12:47			0	42479	0	0	0	28623	27180	144970	27239	1043451	43975	110635	0	0	8378	386425	0	0
2024-07-10 13:13:47			0	42468	0	0	0	28625	27190	144922	27319	1043514	43999	110636	0	0	8378	386754	0	0
2024-07-10 13:14:47			0	42452	0	0	0	28633	27190	144962	26889	1043540	43988	110639	0	0	8377	387266	0	0
2024-07-10 13:15:47			0	42454	0	0	0	28636	27200	145018	27355	1043558	43988	110640	0	0	8377	387180	0	0
2024-07-10 13:16:47			0	42462	0	0	0	28618	27200	144978	27170	1043567	43977	110633	0	0	8377	386924	0	0
2024-07-10 13:17:47			0	42462	0	0	0	28618	27220	144974	27161	1043620	43979	110633	0	0	8377	386880	0	0
2024-07-10 13:18:47			0	42485	0	0	0	28644	27210	144986	27187	1043710	44000	110643	0	0	8378	386166	0	0
2024-07-10 13:19:47			0	42456	0	0	0	28696	27240	145006	27234	1043808	44003	110663	0	0	8376	387027	0	0
2024-07-10 13:20:47			0	42454	0	0	0	28662	27240	144926	27459	1043781	44003	110650	0	0	8376	387091	0	0
2024-07-10 13:21:47			0	42458	0	0	0	28662	27250	144978	27277	1043852	44014	110650	0	0	8377	386941	0	0
2024-07-10 13:22:47			0	42456	0	0	0	28631	27260	144986	27300	1043870	44005	110638	0	0	8377	386983	0	0
2024-07-10 13:23:47			0	42459	0	0	0	28644	27260	144958	27478	1043843	44005	110643	0	0	8377	386887	0	0
2024-07-10 13:24:47			0	42464	0	0	0	28683	27270	145026	27407	1043950	44006	110658	0	0	8377	386704	0	0
2024-07-10 13:25:47			0	42442	0	0	0	28667	27270	144918	27223	1043896	44006	110652	0	0	8376	387409	0	0
2024-07-10 13:26:47			0	42451	0	0	0	28649	27280	145038	27222	1043914	43997	110645	0	0	8377	387098	0	0
2024-07-10 13:27:47			0	42447	0	0	0	28670	27280	145066	27234	1043932	43985	110653	0	0	8376	387226	0	0
2024-07-10 13:28:47			0	42464	0	0	0	28680	27280	145050	27074	1043914	43986	110657	0	0	8377	386682	0	0
2024-07-10 13:29:47			0	42437	0	0	0	28670	27280	145114	27320	1043905	43985	110653	0	0	8375	387546	0	0
2024-07-10 13:30:47			0	42458	0	0	0	28662	27280	144998	27341	1043797	43985	110650	0	0	8377	386874	0	0
2024-07-10 13:31:47			0	42452	0	0	0	28685	27280	144986	27256	1043905	43985	110659	0	0	8376	387066	0	0
2024-07-10 13:32:47			0	42458	0	0	0	28753	27280	145070	27428	1043932	43996	110685	0	0	8375	386874	0	0
2024-07-10 13:33:47			0	42460	0	0	0	28729	27290	145082	27208	1044093	43997	110676	0	0	8376	386788	0	0
2024-07-10 13:34:47			0	42460	0	0	0	28662	27290	145110	27258	1043958	43986	110650	0	0	8377	386788	0	0
2024-07-10 13:35:47			0	42465	0	0	0	28636	27290	145030	27376	1043842	43974	110640	0	0	8378	386628	0	0
2024-07-10 13:36:47			0	42465	0	0	0	28633	27290	144950	27121	1043950	43997	110639	0	0	8378	386628	0	0
2024-07-10 13:37:47			0	42476	0	0	0	28651	27290	145038	27064	1043869	43997	110646	0	0	8378	386276	0	0
2024-07-10 13:38:47			0	42465	0	0	0	28670	27290	144994	27173	1043896	43974	110653	0	0	8377	386628	0	0
2024-07-10 13:39:47			0	42467	0	0	0	28670	27280	144998	26913	1043905	43996	110653	0	0	8377	386586	0	0
2024-07-10 13:40:47			0	42459	0	0	0	28672	27280	144926	27268	1043941	44008	110654	0	0	8377	386842	0	0
2024-07-10 13:41:47			0	42466	0	0	0	28732	27280	144950	27183	1044048	43997	110677	0	0	8376	386618	0	0
2024-07-10 13:42:47			0	42473	0	0	0	28774	27300	145058	26942	1044110	43999	110693	0	0	8376	386350	0	0
2024-07-10 13:43:47			0	42466	0	0	0	28833	27300	145082	27190	1044272	44032	110716	0	0	8374	386574	0	0
2024-07-10 13:44:47			0	42480	0	0	0	28885	27340	145094	26861	1044476	44046	110736	0	0	8375	386038	0	0
2024-07-10 13:45:47			0	42455	0	0	0	28888	27360	145074	27260	1044664	44047	110737	0	0	8373	386792	0	0
2024-07-10 13:46:47			0	42449	0	0	0	28851	27390	145202	27161	1044717	44041	110723	0	0	8373	386918	0	0
2024-07-10 13:47:47			0	42481	0	0	0	28807	27400	144966	27336	1044663	44019	110706	0	0	8376	385873	0	0
2024-07-10 13:48:47			0	42477	0	0	0	28820	27400	144986	27279	1044573	43996	110711	0	0	8376	386000	0	0
2024-07-10 13:49:47			0	42491	0	0	0	28820	27410	145006	26736	1044698	44009	110711	0	0	8377	385531	0	0
2024-07-10 13:50:47			0	42489	0	0	0	28831	27420	144894	27147	1044609	44021	110715	0	0	8376	385573	0	0
2024-07-10 13:51:47			0	42460	0	0	0	28797	27420	145034	26977	1044752	44009	110702	0	0	8375	386499	0	0
2024-07-10 13:52:47			0	42486	0	0	0	28849	27420	144874	27019	1044743	44021	110722	0	0	8376	385669	0	0
2024-07-10 13:53:47			0	42489	0	0	0	28937	27440	144966	27031	1044913	44034	110756	0	0	8375	385529	0	0
2024-07-10 13:54:47			0	42478	0	0	0	28849	27450	144966	27114	1044966	44046	110722	0	0	8375	385858	0	0
2024-07-10 13:55:47			0	42482	0	0	0	28693	27460	144766	27303	1044706	44013	110662	0	0	8378	385708	0	0
2024-07-10 13:56:47			0	42511	0	0	0	28586	27440	144750	26675	1044518	43978	110621	0	0	8382	384826	0	0
2024-07-10 13:57:47			0	42523	0	0	0	28516	27400	144602	26857	1044098	43930	110594	0	0	8384	384532	0	0
2024-07-10 13:58:47			0	42531	0	0	0	28573	27370	144666	27076	1043956	43938	110616	0	0	8383	384343	0	0
2024-07-10 13:59:47			0	42511	0	0	0	28654	27350	144822	26826	1044055	43970	110647	0	0	8380	385025	0	0
2024-07-10 14:00:47			0	42520	0	0	0	28680	27350	144830	27081	1044109	43992	110657	0	0	8380	384738	0	0
2024-07-10 14:01:47			0	42502	0	0	0	28685	27350	144878	27286	1044225	43981	110659	0	0	8379	385313	0	0
2024-07-10 14:02:47			0	42502	0	0	0	28729	27340	144878	26965	1044288	43992	110676	0	0	8378	385335	0	0
2024-07-10 14:03:47			0	42512	0	0	0	28797	27360	144846	27119	1044476	44026	110702	0	0	8378	384972	0	0
2024-07-10 14:04:47			0	42495	0	0	0	28761	27380	144842	27213	1044439	44017	110688	0	0	8378	385470	0	0
2024-07-10 14:05:47			0	42512	0	0	0	28750	27380	144822	27078	1044493	43995	110684	0	0	8379	384927	0	0
2024-07-10 14:06:47			0	42519	0	0	0	28732	27390	144890	27235	1044529	44007	110677	0	0	8380	384682	0	0
2024-07-10 14:07:47			0	42513	0	0	0	28722	27390	144754	26833	1044502	44007	110673	0	0	8379	384873	0	0
2024-07-10 14:08:47			0	42511	0	0	0	28685	27400	144754	26819	1044493	44007	110659	0	0	8380	384915	0	0
2024-07-10 14:09:47			0	42532	0	0	0	28742	27400	144710	27315	1044528	43997	110681	0	0	8380	384245	0	0
2024-07-10 14:10:47			0	42518	0	0	0	28724	27380	144770	27395	1044439	43995	110674	0	0	8380	384736	0	0
2024-07-10 14:11:47			0	42516	0	0	0	28729	27400	144666	27230	1044412	44007	110676	0	0	8380	384756	0	0
2024-07-10 14:12:47			0	42528	0	0	0	28771	27390	144650	27223	1044529	44007	110692	0	0	8379	384395	0	0
2024-07-10 14:13:47			0	42557	0	0	0	28781	27400	144658	26951	1044501	43997	110696	0	0	8381	383449	0	0
2024-07-10 14:14:47			0	42533	0	0	0	28799	27400	144702	27116	1044528	43986	110703	0	0	8379	384213	0	0
2024-07-10 14:15:47			0	42539	0	0	0	28807	27410	144734	27388	1044707	44009	110706	0	0	8380	384000	0	0
2024-07-10 14:16:47			0	42535	0	0	0	28761	27410	144602	27215	1044627	44020	110688	0	0	8380	384128	0	0
2024-07-10 14:17:47			0	42542	0	0	0	28789	27430	144658	27104	1044689	44011	110699	0	0	8380	383860	0	0
2024-07-10 14:18:47			0	42550	0	0	0	28784	27420	144606	27152	1044725	44009	110697	0	0	8381	383627	0	0
2024-07-10 14:19:47			0	42557	0	0	0	28714	27420	144570	27317	1044617	43999	110670	0	0	8382	383405	0	0
2024-07-10 14:20:47			0	42560	0	0	0	28683	27420	144550	27098	1044564	43999	110658	0	0	8383	383309	0	0
2024-07-10 14:21:47			0	42552	0	0	0	28670	27410	144550	27048	1044519	43987	110653	0	0	8383	383586	0	0
2024-07-10 14:22:47			0	42568	0	0	0	28716	27420	144466	26871	1044510	43988	110671	0	0	8383	383054	0	0
2024-07-10 14:23:47			0	42555	0	0	0	28786	27420	144526	27194	1044528	44009	110698	0	0	8381	383468	0	0
2024-07-10 14:24:47			0	42545	0	0	0	28706	27420	144586	27013	1044564	43988	110667	0	0	8382	383787	0	0
2024-07-10 14:25:47			0	42565	0	0	0	28701	27420	144534	27085	1044501	43988	110665	0	0	8383	383150	0	0
2024-07-10 14:26:47			0	42557	0	0	0	28831	27410	144506	26949	1044600	44009	110715	0	0	8380	383427	0	0
2024-07-10 14:27:47			0	42544	0	0	0	28896	27420	144622	27069	1044725	44021	110740	0	0	8378	383819	0	0
2024-07-10 14:28:47			0	42547	0	0	0	28859	27440	144654	27038	1044895	44011	110726	0	0	8379	383679	0	0
2024-07-10 14:29:47			0	42546	0	0	0	28779	27450	144550	27185	1044885	44025	110695	0	0	8381	383689	0	0
2024-07-10 14:30:47			0	42554	0	0	0	28670	27450	144514	27244	1044661	43979	110653	0	0	8383	383434	0	0
2024-07-10 14:31:47			0	42558	0	0	0	28685	27430	144470	27246	1044554	43967	110659	0	0	8383	383351	0	0
2024-07-10 14:32:47			0	42568	0	0	0	28703	27420	144458	27319	1044564	43976	110666	0	0	8383	383054	0	0
2024-07-10 14:33:47			0	42572	0	0	0	28701	27420	144446	26955	1044501	43999	110665	0	0	8383	382927	0	0
2024-07-10 14:34:47			0	42554	0	0	0	28833	27420	144602	27168	1044609	43999	110716	0	0	8380	383500	0	0
2024-07-10 14:35:47			0	42558	0	0	0	29051	27440	144650	27225	1045047	44034	110800	0	0	8377	383329	0	0
2024-07-10 14:36:47			0	42553	0	0	0	29015	27460	144626	27331	1045279	44058	110786	0	0	8377	383444	0	0
2024-07-10 14:37:47			0	42544	0	0	0	28890	27490	144554	26838	1045189	44028	110738	0	0	8379	383664	0	0
2024-07-10 14:38:47			0	42558	0	0	0	28909	27500	144522	27093	1045215	44029	110745	0	0	8379	383196	0	0
2024-07-10 14:39:47			0	42543	0	0	0	29025	27510	144602	27123	1045278	44041	110790	0	0	8377	383652	0	0
2024-07-10 14:40:47			0	42549	0	0	0	29033	27540	144662	27055	1045430	44043	110793	0	0	8377	383395	0	0
2024-07-10 14:41:47			0	42539	0	0	0	29002	27550	144566	27213	1045510	44034	110781	0	0	8377	383691	0	0
2024-07-10 14:42:47			0	42538	0	0	0	28994	27570	144526	27022	1045536	44024	110778	0	0	8377	383679	0	0
2024-07-10 14:43:47			0	42540	0	0	0	28932	27570	144642	27298	1045510	44012	110754	0	0	8378	383615	0	0
2024-07-10 14:44:47			0	42538	0	0	0	29031	27570	144570	27253	1045518	44002	110792	0	0	8376	383679	0	0
2024-07-10 14:45:47			0	42527	0	0	0	29075	27580	144638	26998	1045635	44036	110809	0	0	8375	384007	0	0
2024-07-10 14:46:47			0	42520	0	0	0	29067	27590	144542	27019	1045715	44048	110806	0	0	8375	384208	0	0
2024-07-10 14:47:47			0	42545	0	0	0	29007	27590	144546	27267	1045634	44038	110783	0	0	8377	383412	0	0
2024-07-10 14:48:47			0	42531	0	0	0	28976	27610	144646	27173	1045661	44027	110771	0	0	8377	383813	0	0
2024-07-10 14:49:47			0	42544	0	0	0	28953	27600	144498	27268	1045482	44005	110762	0	0	8378	383422	0	0
2024-07-10 14:50:47			0	42540	0	0	0	28922	27590	144506	27050	1045500	43993	110750	0	0	8378	383571	0	0
2024-07-10 14:51:47			0	42537	0	0	0	28953	27580	144358	27244	1045482	44003	110762	0	0	8378	383689	0	0
2024-07-10 14:52:47			0	42543	0	0	0	28903	27590	144398	27020	1045464	43992	110743	0	0	8379	383475	0	0
2024-07-10 14:53:47			0	42544	0	0	0	28888	27580	144326	27066	1045321	43992	110737	0	0	8379	383466	0	0
2024-07-10 14:54:47			0	42550	0	0	0	28906	27560	144374	27161	1045304	44000	110744	0	0	8379	383319	0	0
2024-07-10 14:55:47			0	42543	0	0	0	28953	27560	144422	27206	1045447	44001	110762	0	0	8378	383542	0	0
2024-07-10 14:56:47			0	42543	0	0	0	28948	27570	144534	27213	1045518	44013	110760	0	0	8378	383520	0	0
2024-07-10 14:57:47			0	42528	0	0	0	28893	27580	144458	26989	1045446	44025	110739	0	0	8378	383975	0	0
2024-07-10 14:58:47			0	42530	0	0	0	28890	27570	144318	27242	1045411	44002	110738	0	0	8378	383933	0	0
2024-07-10 14:59:47			0	42541	0	0	0	28919	27570	144414	27284	1045375	44012	110749	0	0	8378	383583	0	0
2024-07-10 15:00:47			0	42541	0	0	0	28870	27560	144330	27293	1045366	44001	110730	0	0	8379	383605	0	0
2024-07-10 15:01:47			0	42544	0	0	0	28851	27560	144254	27145	1045232	43991	110723	0	0	8380	383510	0	0
2024-07-10 15:02:47			0	42552	0	0	0	28909	27560	144346	27093	1045250	44000	110745	0	0	8379	383255	0	0
2024-07-10 15:03:47			0	42549	0	0	0	28948	27550	144434	27208	1045322	44011	110760	0	0	8378	383373	0	0
2024-07-10 15:04:47			0	42543	0	0	0	28914	27550	144442	27007	1045340	44022	110747	0	0	8379	383564	0	0
2024-07-10 15:05:47			0	42547	0	0	0	28870	27550	144386	27081	1045187	44000	110730	0	0	8380	383436	0	0
2024-07-10 15:06:47			0	42565	0	0	0	28875	27550	144318	26889	1045205	44010	110732	0	0	8381	382864	0	0
2024-07-10 15:07:47			0	42554	0	0	0	28922	27550	144398	27261	1045232	44010	110750	0	0	8379	383213	0	0
2024-07-10 15:08:47			0	42540	0	0	0	28914	27550	144386	26890	1045322	44011	110747	0	0	8378	383659	0	0
2024-07-10 15:09:47			0	42543	0	0	0	28922	27550	144478	27041	1045241	44011	110750	0	0	8378	383564	0	0
2024-07-10 15:10:47			0	42556	0	0	0	28885	27560	144374	27306	1045331	44011	110736	0	0	8380	383128	0	0
2024-07-10 15:11:47			0	42562	0	0	0	28932	27550	144402	27170	1045268	44000	110754	0	0	8379	382959	0	0
2024-07-10 15:12:47			0	42559	0	0	0	28971	27560	144310	27274	1045411	44023	110769	0	0	8379	383032	0	0
2024-07-10 15:13:47			0	42540	0	0	0	28953	27560	144434	27147	1045465	44034	110762	0	0	8378	383637	0	0
2024-07-10 15:14:47			0	42566	0	0	0	28831	27570	144326	26951	1045438	44013	110715	0	0	8381	382788	0	0
2024-07-10 15:15:47			0	42542	0	0	0	28997	27580	144330	26941	1045500	44025	110779	0	0	8377	383529	0	0
2024-07-10 15:16:47			0	42551	0	0	0	29025	27580	144378	27017	1045662	44058	110790	0	0	8377	383243	0	0
2024-07-10 15:17:47			0	42559	0	0	0	28844	27600	144306	26769	1045589	44039	110720	0	0	8381	382944	0	0
2024-07-10 15:18:47			0	42564	0	0	0	28859	27590	144338	27067	1045437	44014	110726	0	0	8381	382807	0	0
2024-07-10 15:19:47			0	42554	0	0	0	29059	27590	144322	26814	1045580	44027	110803	0	0	8377	383125	0	0
2024-07-10 15:20:47			0	42534	0	0	0	29038	27600	144346	27130	1045670	44039	110795	0	0	8376	383740	0	0
2024-07-10 15:21:47			0	42538	0	0	0	28973	27620	144370	26993	1045678	44018	110770	0	0	8378	383568	0	0
2024-07-10 15:22:47			0	42565	0	0	0	28953	27610	144318	26970	1045607	44016	110762	0	0	8379	382731	0	0
2024-07-10 15:23:47			0	42552	0	0	0	29122	27610	144390	27029	1045723	44028	110827	0	0	8376	383145	0	0
2024-07-10 15:24:47			0	42536	0	0	0	29155	27630	144366	27038	1045974	44075	110840	0	0	8374	383610	0	0
2024-07-10 15:25:47			0	42532	0	0	0	29225	27650	144406	27320	1046144	44065	110867	0	0	8373	383693	0	0
2024-07-10 15:26:47			0	42522	0	0	0	29319	27690	144570	27022	1046394	44069	110903	0	0	8371	383923	0	0
2024-07-10 15:27:47			0	42522	0	0	0	29366	27710	144450	26974	1046546	44083	110921	0	0	8370	383879	0	0
2024-07-10 15:28:47			0	42515	0	0	0	29402	27750	144450	27098	1046903	44098	110935	0	0	8370	384013	0	0
2024-07-10 15:29:47			0	42508	0	0	0	29402	27790	144482	26911	1046893	44113	110935	0	0	8369	384148	0	0
2024-07-10 15:30:47			0	42530	0	0	0	29399	27810	144374	26918	1047027	44091	110934	0	0	8371	383403	0	0
2024-07-10 15:31:47			0	42527	0	0	0	29399	27830	144422	26967	1047044	44105	110934	0	0	8371	383455	0	0
2024-07-10 15:32:47			0	42533	0	0	0	29392	27850	144370	26984	1047152	44083	110931	0	0	8371	383219	0	0
2024-07-10 15:33:47			0	42532	0	0	0	29345	27880	144282	26930	1047151	44087	110913	0	0	8372	383185	0	0
2024-07-10 15:34:47			0	42535	0	0	0	29345	27870	144238	27145	1047142	44064	110913	0	0	8372	383112	0	0
2024-07-10 15:35:47			0	42524	0	0	0	29335	27880	144118	27241	1047151	44077	110909	0	0	8372	383440	0	0
2024-07-10 15:36:47			0	42558	0	0	0	29319	27890	144138	27251	1047114	44066	110903	0	0	8374	382337	0	0
2024-07-10 15:37:47			0	42570	0	0	0	29303	27880	144118	27260	1047124	44065	110897	0	0	8375	381978	0	0
2024-07-10 15:38:47			0	42572	0	0	0	29301	27880	144030	26987	1047133	44055	110896	0	0	8375	381914	0	0
2024-07-10 15:39:47			0	42571	0	0	0	29264	27890	143934	26871	1047042	44044	110882	0	0	8376	381924	0	0
2024-07-10 15:40:47			0	42563	0	0	0	29145	27890	143862	26941	1046926	44044	110836	0	0	8377	382178	0	0
2024-07-10 15:41:47			0	42593	0	0	0	29103	27890	143854	26873	1046872	44033	110820	0	0	8380	381226	0	0
2024-07-10 15:42:47			0	42597	0	0	0	29119	27880	143858	26781	1046855	44043	110826	0	0	8380	381121	0	0
2024-07-10 15:43:47			0	42617	0	0	0	29153	27870	143774	27175	1046810	44031	110839	0	0	8380	380509	0	0
2024-07-10 15:44:47			0	42612	0	0	0	29114	27860	143878	27138	1046766	44041	110824	0	0	8381	380690	0	0
2024-07-10 15:45:47			0	42623	0	0	0	29088	27850	143790	27218	1046595	43996	110814	0	0	8382	380363	0	0
2024-07-10 15:46:47			0	42611	0	0	0	29225	27840	143834	27144	1046712	44028	110867	0	0	8379	380765	0	0
2024-07-10 15:47:47			0	42610	0	0	0	29194	27840	143826	27055	1046793	44040	110855	0	0	8379	380797	0	0
2024-07-10 15:48:47			0	42628	0	0	0	28984	27840	143778	27258	1046551	44028	110774	0	0	8384	380226	0	0
2024-07-10 15:49:47			0	42623	0	0	0	29124	27830	143738	27253	1046587	44027	110828	0	0	8381	380407	0	0
2024-07-10 15:50:47			0	42628	0	0	0	29038	27830	143778	27154	1046417	44015	110795	0	0	8383	380248	0	0
2024-07-10 15:51:47			0	42656	0	0	0	29051	27810	143694	27237	1046417	44026	110800	0	0	8384	379405	0	0
2024-07-10 15:52:47			0	42671	0	0	0	29046	27790	143698	27150	1046409	44012	110798	0	0	8385	378974	0	0
2024-07-10 15:53:47			0	42646	0	0	0	29077	27780	143798	26741	1046373	44023	110810	0	0	8383	379788	0	0
2024-07-10 15:54:47			0	42663	0	0	0	29002	27780	143786	27121	1046337	44022	110781	0	0	8385	379249	0	0
2024-07-10 15:55:47			0	42650	0	0	0	29025	27760	143690	27175	1046203	44009	110790	0	0	8384	379705	0	0
2024-07-10 15:56:47			0	42666	0	0	0	29166	27770	143830	27369	1046346	44010	110844	0	0	8382	379176	0	0
2024-07-10 15:57:47			0	42660	0	0	0	29083	27770	143854	27287	1046355	44033	110812	0	0	8384	379366	0	0
2024-07-10 15:58:47			0	42658	0	0	0	29181	27770	143786	27301	1046409	44033	110850	0	0	8382	379429	0	0
2024-07-10 15:59:47			0	42653	0	0	0	29150	27780	143878	27031	1046552	44055	110838	0	0	8382	379566	0	0
2024-07-10 16:00:47			0	42667	0	0	0	29148	27780	143806	27192	1046552	44044	110837	0	0	8383	379123	0	0
2024-07-10 16:01:47			0	42662	0	0	0	29228	27780	143846	27015	1046525	44044	110868	0	0	8381	379281	0	0
2024-07-10 16:02:47			0	42668	0	0	0	29246	27780	143954	26944	1046669	44045	110875	0	0	8381	379091	0	0
2024-07-10 16:03:47			0	42675	0	0	0	29327	27810	143870	27147	1046866	44069	110906	0	0	8380	378804	0	0
2024-07-10 16:04:47			0	42655	0	0	0	29337	27830	143846	26974	1046955	44083	110910	0	0	8379	379393	0	0
2024-07-10 16:05:47			0	42658	0	0	0	29186	27850	143834	27215	1046909	44062	110852	0	0	8382	379255	0	0
2024-07-10 16:06:47			0	42682	0	0	0	29135	27850	143726	27476	1046784	44041	110832	0	0	8384	378495	0	0
2024-07-10 16:07:47			0	42664	0	0	0	29033	27840	143698	27128	1046685	44028	110793	0	0	8385	379087	0	0
2024-07-10 16:08:47			0	42675	0	0	0	28924	27820	143618	27168	1046489	44015	110751	0	0	8387	378782	0	0
2024-07-10 16:09:47			0	42681	0	0	0	29129	27800	143694	27083	1046480	44025	110830	0	0	8384	378636	0	0
2024-07-10 16:10:47			0	42675	0	0	0	29335	27810	143846	27164	1046740	44059	110909	0	0	8380	378804	0	0
2024-07-10 16:11:47			0	42657	0	0	0	29342	27830	143934	27331	1047009	44071	110912	0	0	8379	379330	0	0
2024-07-10 16:12:47			0	42658	0	0	0	29335	27860	143870	27251	1047115	44063	110909	0	0	8380	379233	0	0
2024-07-10 16:13:47			0	42654	0	0	0	29412	27880	143998	27227	1047312	44099	110939	0	0	8378	379316	0	0
2024-07-10 16:14:47			0	42637	0	0	0	29519	27890	144050	27566	1047500	44111	110980	0	0	8375	379832	0	0
2024-07-10 16:15:47			0	42621	0	0	0	29561	27930	143970	27235	1047705	44116	110996	0	0	8374	380251	0	0
2024-07-10 16:16:47			0	42612	0	0	0	29612	27970	144026	27173	1047929	44108	111016	0	0	8373	380448	0	0
2024-07-10 16:17:47			0	42605	0	0	0	29581	28000	143970	27123	1048017	44144	111004	0	0	8373	380604	0	0
2024-07-10 16:18:47			0	42601	0	0	0	29535	28020	143910	27159	1048097	44113	110986	0	0	8373	380687	0	0
2024-07-10 16:19:47			0	42633	0	0	0	29485	28040	143842	27072	1047980	44103	110967	0	0	8376	379630	0	0
2024-07-10 16:20:47			0	42617	0	0	0	29501	28030	143782	27147	1048017	44092	110973	0	0	8375	380158	0	0
2024-07-10 16:21:47			0	42607	0	0	0	29527	28040	143802	27055	1048061	44081	110983	0	0	8374	380453	0	0
2024-07-10 16:22:47			0	42596	0	0	0	29571	28060	143818	27357	1048150	44106	111000	0	0	8373	380757	0	0
2024-07-10 16:23:47			0	42608	0	0	0	29602	28080	143858	27163	1048231	44107	111012	0	0	8373	380333	0	0
2024-07-10 16:24:47			0	42592	0	0	0	29605	28090	143862	27322	1048410	44130	111013	0	0	8372	380818	0	0
2024-07-10 16:25:47			0	42604	0	0	0	29646	28110	143810	27111	1048499	44122	111029	0	0	8372	380394	0	0
2024-07-10 16:26:47			0	42597	0	0	0	29675	28140	143886	27118	1048579	44125	111040	0	0	8371	380550	0	0
2024-07-10 16:27:47			0	42586	0	0	0	29633	28160	143798	27114	1048695	44126	111024	0	0	8371	380855	0	0
2024-07-10 16:28:47			0	42599	0	0	0	29659	28180	143758	27102	1048775	44106	111034	0	0	8372	380399	0	0
2024-07-10 16:29:47			0	42587	0	0	0	29709	28190	143826	27161	1048793	44117	111053	0	0	8370	380757	0	0
2024-07-10 16:30:47			0	42613	0	0	0	29646	28190	143750	27222	1048909	44118	111029	0	0	8373	379934	0	0
2024-07-10 16:31:47			0	42601	0	0	0	29633	28210	143718	27405	1048837	44098	111024	0	0	8373	380270	0	0
2024-07-10 16:32:47			0	42606	0	0	0	29722	28230	143726	27377	1048917	44122	111058	0	0	8371	380068	0	0
2024-07-10 16:33:47			0	42605	0	0	0	29472	28230	143662	27163	1048864	44133	110962	0	0	8376	380099	0	0
2024-07-10 16:34:47			0	42620	0	0	0	29573	28230	143554	27085	1048818	44088	111001	0	0	8375	379625	0	0
2024-07-10 16:35:47			0	42619	0	0	0	29628	28230	143670	27154	1048810	44099	111022	0	0	8374	379656	0	0
2024-07-10 16:36:47			0	42602	0	0	0	29664	28230	143686	27095	1048953	44088	111036	0	0	8372	380194	0	0
2024-07-10 16:37:47			0	42603	0	0	0	29594	28240	143630	27197	1048917	44113	111009	0	0	8373	380140	0	0
2024-07-10 16:38:47			0	42613	0	0	0	29462	28240	143526	27498	1048800	44079	110958	0	0	8376	379824	0	0
2024-07-10 16:39:47			0	42607	0	0	0	29418	28220	143554	27476	1048523	44054	110941	0	0	8377	380058	0	0
2024-07-10 16:40:47			0	42619	0	0	0	29553	28200	143534	26793	1048604	44063	110993	0	0	8375	379722	0	0
2024-07-10 16:41:47			0	42587	0	0	0	29633	28210	143554	27012	1048694	44086	111024	0	0	8372	380713	0	0
2024-07-10 16:42:47			0	42600	0	0	0	29677	28200	143678	27253	1048846	44097	111041	0	0	8372	380323	0	0
2024-07-10 16:43:47			0	42591	0	0	0	29641	28230	143666	27010	1048971	44122	111027	0	0	8372	380542	0	0
2024-07-10 16:44:47			0	42584	0	0	0	29641	28240	143578	27332	1049025	44124	111027	0	0	8372	380742	0	0
2024-07-10 16:45:47			0	42576	0	0	0	29696	28250	143606	27189	1049150	44101	111048	0	0	8370	380973	0	0
2024-07-10 16:46:47			0	42595	0	0	0	29602	28270	143674	27130	1049150	44103	111012	0	0	8373	380328	0	0
2024-07-10 16:47:47			0	42580	0	0	0	29667	28280	143578	27194	1049033	44104	111037	0	0	8371	380780	0	0
2024-07-10 16:48:47			0	42581	0	0	0	29722	28280	143710	27324	1049168	44093	111058	0	0	8370	380749	0	0
2024-07-10 16:49:47			0	42577	0	0	0	29766	28300	143622	27137	1049257	44095	111075	0	0	8369	380831	0	0
2024-07-10 16:50:47			0	42555	0	0	0	29758	28300	143690	27280	1049293	44118	111072	0	0	8368	381528	0	0
2024-07-10 16:51:47			0	42543	0	0	0	29750	28300	143818	27230	1049338	44117	111069	0	0	8368	381909	0	0
2024-07-10 16:52:47			0	42562	0	0	0	29758	28320	143706	27270	1049319	44108	111072	0	0	8369	381262	0	0
2024-07-10 16:53:47			0	42571	0	0	0	29753	28320	143654	27479	1049355	44109	111070	0	0	8369	380978	0	0
2024-07-10 16:54:47			0	42565	0	0	0	29750	28330	143606	27256	1049373	44110	111069	0	0	8369	381145	0	0
2024-07-10 16:55:47			0	42555	0	0	0	29748	28330	143518	27296	1049426	44121	111068	0	0	8368	381462	0	0
2024-07-10 16:56:47			0	42552	0	0	0	29841	28340	143630	27421	1049489	44132	111104	0	0	8367	381535	0	0
2024-07-10 16:57:47			0	42580	0	0	0	29942	28360	143670	27235	1049722	44146	111143	0	0	8367	380604	0	0
2024-07-10 16:58:47			0	42577	0	0	0	29945	28390	143634	27286	1050062	44160	111144	0	0	8367	380633	0	0
2024-07-10 16:59:47			0	42589	0	0	0	29911	28410	143646	27211	1049981	44138	111131	0	0	8368	380210	0	0
2024-07-10 17:00:47			0	42582	0	0	0	29859	28420	143550	27227	1049981	44140	111111	0	0	8368	380409	0	0
2024-07-10 17:01:47			0	42580	0	0	0	29851	28430	143462	27220	1049909	44107	111108	0	0	8369	380450	0	0
2024-07-10 17:02:47			0	42587	0	0	0	29844	28430	143498	27255	1049855	44118	111105	0	0	8369	380229	0	0
2024-07-10 17:03:47			0	42582	0	0	0	29838	28420	143442	27362	1049954	44118	111103	0	0	8369	380409	0	0
2024-07-10 17:04:47			0	42596	0	0	0	29849	28430	143582	27332	1049945	44141	111107	0	0	8370	379945	0	0
2024-07-10 17:05:47			0	42588	0	0	0	29802	28440	143470	27052	1049980	44120	111089	0	0	8370	380175	0	0
2024-07-10 17:06:47			0	42591	0	0	0	29820	28440	143414	27313	1049962	44121	111096	0	0	8370	380081	0	0
2024-07-10 17:07:47			0	42598	0	0	0	29831	28440	143402	27019	1049989	44098	111100	0	0	8370	379859	0	0
2024-07-10 17:08:47			0	42612	0	0	0	29849	28450	143414	27256	1049971	44098	111107	0	0	8371	379395	0	0
2024-07-10 17:09:47			0	42599	0	0	0	29825	28450	143370	27258	1049998	44110	111098	0	0	8370	379806	0	0
2024-07-10 17:10:47			0	42633	0	0	0	29802	28440	143370	27206	1049873	44120	111089	0	0	8373	378754	0	0
2024-07-10 17:11:47			0	42602	0	0	0	29724	28440	143322	27287	1049855	44121	111059	0	0	8372	379733	0	0
2024-07-10 17:12:47			0	42630	0	0	0	29636	28430	143246	27267	1049702	44097	111025	0	0	8375	378870	0	0
2024-07-10 17:13:47			0	42630	0	0	0	29516	28420	143170	27222	1049577	44074	110979	0	0	8377	378892	0	0
2024-07-10 17:14:47			0	42642	0	0	0	29335	28400	143058	27282	1049128	44060	110909	0	0	8381	378557	0	0
2024-07-10 17:15:47			0	42665	0	0	0	29241	28350	142914	27104	1048699	44011	110873	0	0	8384	377941	0	0
2024-07-10 17:16:47			0	42661	0	0	0	29350	28300	143062	27163	1048422	44028	110915	0	0	8381	378176	0	0
2024-07-10 17:17:47			0	42664	0	0	0	29410	28250	143262	27222	1048477	44035	110938	0	0	8380	378191	0	0
2024-07-10 17:18:47			0	42649	0	0	0	29457	28230	143266	27107	1048460	44066	110956	0	0	8378	378708	0	0
2024-07-10 17:19:47			0	42649	0	0	0	29438	28230	143226	27124	1048513	44055	110949	0	0	8379	378708	0	0
2024-07-10 17:20:47			0	42649	0	0	0	29337	28210	143242	27367	1048352	44064	110910	0	0	8380	378752	0	0
2024-07-10 17:21:47			0	42663	0	0	0	29189	28190	143290	27320	1048120	44028	110853	0	0	8384	378354	0	0
2024-07-10 17:22:47			0	42659	0	0	0	29394	28170	143202	27237	1048165	44060	110932	0	0	8380	378523	0	0
2024-07-10 17:23:47			0	42653	0	0	0	29571	28160	143382	27168	1048426	44093	111000	0	0	8376	378735	0	0
2024-07-10 17:24:47			0	42645	0	0	0	29262	28170	143382	27405	1048219	44071	110881	0	0	8381	378966	0	0
2024-07-10 17:25:47			0	42659	0	0	0	29205	28140	143266	27329	1048013	44046	110859	0	0	8383	378589	0	0
2024-07-10 17:26:47			0	42648	0	0	0	29163	28120	143290	27282	1047754	44022	110843	0	0	8383	378980	0	0
2024-07-10 17:27:47			0	42627	0	0	0	29064	28080	143306	27175	1047755	44007	110805	0	0	8383	379732	0	0
2024-07-10 17:28:47			0	42654	0	0	0	28929	28030	143270	27187	1047128	43958	110753	0	0	8387	378988	0	0
2024-07-10 17:29:47			0	42663	0	0	0	29220	27980	143354	27123	1047013	43964	110865	0	0	8382	378812	0	0
2024-07-10 17:30:47			0	42624	0	0	0	29233	27950	143454	27281	1047086	44006	110870	0	0	8380	380112	0	0
2024-07-10 17:31:47			0	42630	0	0	0	29267	27950	143546	27138	1047283	44061	110883	0	0	8379	379922	0	0
2024-07-10 17:32:47			0	42592	0	0	0	29272	27950	143626	27284	1047283	44050	110885	0	0	8377	381126	0	0
2024-07-10 17:33:47			0	42600	0	0	0	29384	27960	143762	26821	1047453	44083	110928	0	0	8376	380850	0	0
2024-07-10 17:34:47			0	42605	0	0	0	29290	27960	143722	27426	1047435	44074	110892	0	0	8378	380692	0	0
2024-07-10 17:35:47			0	42562	0	0	0	29444	27980	143922	27176	1047623	44075	110951	0	0	8373	382011	0	0
2024-07-10 17:36:47			0	42566	0	0	0	29389	27990	143878	27074	1047641	44087	110930	0	0	8374	381863	0	0
2024-07-10 17:37:47			0	42534	0	0	0	29410	27980	143850	27457	1047659	44098	110938	0	0	8371	382901	0	0
2024-07-10 17:38:47			0	42529	0	0	0	29516	27990	144050	27173	1047784	44110	110979	0	0	8369	383037	0	0
2024-07-10 17:39:47			0	42517	0	0	0	29477	28010	144010	27348	1047954	44113	110964	0	0	8369	383375	0	0
2024-07-10 17:40:47			0	42497	0	0	0	29519	28030	144126	26974	1048017	44115	110980	0	0	8368	383966	0	0
2024-07-10 17:41:47			0	42479	0	0	0	29581	28040	144238	27523	1048115	44125	111004	0	0	8366	384517	0	0
2024-07-10 17:42:47			0	42456	0	0	0	29599	28060	144286	27170	1048222	44127	111011	0	0	8364	385204	0	0
2024-07-10 17:43:47			0	42442	0	0	0	29483	28070	144262	27249	1048240	44118	110966	0	0	8365	385628	0	0
2024-07-10 17:44:47			0	42431	0	0	0	29558	28080	144322	27341	1048239	44119	110995	0	0	8363	385957	0	0
2024-07-10 17:45:47			0	42414	0	0	0	29449	28080	144354	27372	1048185	44108	110953	0	0	8364	386499	0	0
2024-07-10 17:46:47			0	42405	0	0	0	29184	28090	144158	27384	1047988	44076	110851	0	0	8368	386764	0	0
2024-07-10 17:47:47			0	42412	0	0	0	29199	28070	144170	27469	1047701	44050	110857	0	0	8368	386585	0	0
2024-07-10 17:48:47			0	42404	0	0	0	28851	28010	144078	27098	1047173	44001	110723	0	0	8373	386974	0	0
2024-07-10 17:49:47			0	42417	0	0	0	29010	27960	144018	27239	1046807	43961	110784	0	0	8371	386671	0	0
2024-07-10 17:50:47			0	42425	0	0	0	29090	27930	144230	26795	1047024	44026	110815	0	0	8370	386482	0	0
2024-07-10 17:51:47			0	42412	0	0	0	28973	27920	144166	27441	1046979	44036	110770	0	0	8371	386920	0	0
2024-07-10 17:52:47			0	42386	0	0	0	29163	27900	144350	27268	1047006	44035	110843	0	0	8367	387795	0	0
2024-07-10 17:53:47			0	42397	0	0	0	29145	27910	144358	26706	1047105	44057	110836	0	0	8368	387421	0	0
2024-07-10 17:54:47			0	42403	0	0	0	29290	27920	144514	27319	1047338	44092	110892	0	0	8366	387207	0	0
2024-07-10 17:55:47			0	42398	0	0	0	29067	27920	144394	27298	1047230	44082	110806	0	0	8369	387367	0	0
2024-07-10 17:56:47			0	42376	0	0	0	29225	27930	144494	27315	1047347	44060	110867	0	0	8365	388047	0	0
2024-07-10 17:57:47			0	42389	0	0	0	29316	27940	144626	27351	1047337	44071	110902	0	0	8364	387609	0	0
2024-07-10 17:58:47			0	42371	0	0	0	29444	27940	144810	26953	1047526	44071	110951	0	0	8361	388185	0	0
2024-07-10 17:59:47			0	42367	0	0	0	29340	27950	144554	26994	1047651	44106	110911	0	0	8363	388290	0	0
2024-07-10 18:00:47			0	42385	0	0	0	29348	27990	144634	27182	1047641	44087	110914	0	0	8364	387626	0	0
2024-07-10 18:01:47			0	42382	0	0	0	29181	27990	144534	27232	1047650	44077	110850	0	0	8366	387721	0	0
2024-07-10 18:02:47			0	42380	0	0	0	29194	27990	144462	27512	1047479	44043	110855	0	0	8366	387785	0	0
2024-07-10 18:03:47			0	42384	0	0	0	29236	27960	144426	26974	1047319	44040	110871	0	0	8366	387725	0	0
2024-07-10 18:04:47			0	42385	0	0	0	29314	27960	144478	27062	1047426	44050	110901	0	0	8364	387693	0	0
2024-07-10 18:05:47			0	42382	0	0	0	29314	27960	144518	27256	1047426	44073	110901	0	0	8364	387788	0	0
2024-07-10 18:06:47			0	42399	0	0	0	29415	27960	144626	27270	1047507	44073	110940	0	0	8363	387245	0	0
2024-07-10 18:07:47			0	42376	0	0	0	29553	27980	144670	26864	1047785	44108	110993	0	0	8360	387936	0	0
2024-07-10 18:08:47			0	42376	0	0	0	29511	27990	144622	27398	1047973	44132	110977	0	0	8361	387913	0	0
2024-07-10 18:09:47			0	42387	0	0	0	29532	28040	144638	27036	1048214	44137	110985	0	0	8361	387450	0	0
2024-07-10 18:10:47			0	42402	0	0	0	29355	28060	144466	27123	1048114	44105	110917	0	0	8365	386926	0	0
2024-07-10 18:11:47			0	42376	0	0	0	29314	28050	144458	27213	1047998	44094	110901	0	0	8364	387779	0	0
2024-07-10 18:12:47			0	42402	0	0	0	29306	28050	144366	27393	1047935	44071	110898	0	0	8366	386948	0	0
2024-07-10 18:13:47			0	42379	0	0	0	29381	28050	144478	27367	1047917	44105	110927	0	0	8363	387683	0	0
2024-07-10 18:14:47			0	42385	0	0	0	29490	28060	144550	27447	1048069	44083	110969	0	0	8362	387469	0	0
2024-07-10 18:15:47			0	42385	0	0	0	29420	28070	144534	26954	1048222	44107	110942	0	0	8363	387447	0	0
2024-07-10 18:16:47			0	42379	0	0	0	29475	28090	144526	27078	1048194	44108	110963	0	0	8362	387594	0	0
2024-07-10 18:17:47			0	42359	0	0	0	29457	28090	144554	27263	1048176	44098	110956	0	0	8361	388232	0	0
2024-07-10 18:18:47			0	42394	0	0	0	29363	28100	144510	27279	1048185	44099	110920	0	0	8365	387092	0	0
2024-07-10 18:19:47			0	42360	0	0	0	29428	28080	144406	26961	1048096	44074	110945	0	0	8361	388223	0	0
2024-07-10 18:20:47			0	42364	0	0	0	29418	28090	144474	27319	1048087	44085	110941	0	0	8362	388073	0	0
2024-07-10 18:21:47			0	42377	0	0	0	29322	28080	144426	26864	1048024	44075	110904	0	0	8364	387680	0	0
2024-07-10 18:22:47			0	42378	0	0	0	29355	28080	144426	27213	1048015	44062	110917	0	0	8364	387648	0	0
2024-07-10 18:23:47			0	42393	0	0	0	29244	28080	144350	27013	1047827	44062	110874	0	0	8366	387169	0	0
2024-07-10 18:24:47			0	42387	0	0	0	29298	28070	144530	26975	1047998	44083	110895	0	0	8365	387383	0	0
2024-07-10 18:25:47			0	42403	0	0	0	29322	28050	144374	27369	1047783	44049	110904	0	0	8366	386917	0	0
2024-07-10 18:26:47			0	42394	0	0	0	29353	28040	144470	27213	1047765	44047	110916	0	0	8364	387226	0	0
2024-07-10 18:27:47			0	42385	0	0	0	29438	28030	144426	27327	1047765	44058	110949	0	0	8362	387536	0	0
2024-07-10 18:28:47			0	42375	0	0	0	29410	28030	144530	27313	1047936	44081	110938	0	0	8362	387855	0	0
2024-07-10 18:29:47			0	42379	0	0	0	29371	28030	144458	26856	1047828	44070	110923	0	0	8363	387728	0	0
2024-07-10 18:30:47			0	42379	0	0	0	29459	28040	144542	27161	1047891	44081	110957	0	0	8362	387705	0	0
2024-07-10 18:31:47			0	42358	0	0	0	29477	28040	144594	26817	1048061	44115	110964	0	0	8360	388376	0	0
2024-07-10 18:32:47			0	42374	0	0	0	29477	28050	144606	27203	1048025	44094	110964	0	0	8361	387843	0	0
2024-07-10 18:33:47			0	42368	0	0	0	29316	28070	144550	26885	1048105	44095	110902	0	0	8364	387990	0	0
2024-07-10 18:34:47			0	42356	0	0	0	29366	28060	144478	27211	1047962	44061	110921	0	0	8362	388396	0	0
2024-07-10 18:35:47			0	42380	0	0	0	29399	28060	144462	27074	1047899	44072	110934	0	0	8363	387629	0	0
2024-07-10 18:36:47			0	42365	0	0	0	29361	28050	144502	27086	1047881	44071	110919	0	0	8363	388130	0	0
2024-07-10 18:37:47			0	42363	0	0	0	29483	28040	144546	26972	1047900	44103	110966	0	0	8360	388217	0	0
2024-07-10 18:38:47			0	42364	0	0	0	29555	28050	144590	27384	1048016	44104	110994	0	0	8359	388162	0	0
2024-07-10 18:39:47			0	42351	0	0	0	29555	28060	144646	27131	1048141	44105	110994	0	0	8359	388555	0	0
2024-07-10 18:40:47			0	42345	0	0	0	29542	28070	144690	27213	1048222	44129	110989	0	0	8359	388725	0	0
2024-07-10 18:41:47			0	42356	0	0	0	29553	28080	144630	27201	1048266	44097	110993	0	0	8359	388351	0	0
2024-07-10 18:42:47			0	42352	0	0	0	29584	28090	144586	27015	1048383	44119	111005	0	0	8358	388456	0	0
2024-07-10 18:43:47			0	42327	0	0	0	29594	28110	144710	27085	1048436	44121	111009	0	0	8357	389211	0	0
2024-07-10 18:44:47			0	42347	0	0	0	29599	28120	144686	27327	1048454	44111	111011	0	0	8358	388549	0	0
2024-07-10 18:45:47			0	42338	0	0	0	29605	28120	144726	26942	1048508	44122	111013	0	0	8357	388837	0	0
2024-07-10 18:46:47			0	42343	0	0	0	29612	28140	144614	27348	1048543	44124	111016	0	0	8357	388632	0	0
2024-07-10 18:47:47			0	42330	0	0	0	29620	28140	144706	27183	1048570	44113	111019	0	0	8357	389048	0	0
2024-07-10 18:48:47			0	42326	0	0	0	29615	28150	144718	27104	1048677	44125	111017	0	0	8356	389153	0	0
2024-07-10 18:49:47			0	42332	0	0	0	29610	28150	144750	27029	1048623	44125	111015	0	0	8357	388961	0	0
2024-07-10 18:50:47			0	42333	0	0	0	29592	28160	144774	27244	1048659	44125	111008	0	0	8357	388907	0	0
2024-07-10 18:51:47			0	42318	0	0	0	29612	28160	144682	27279	1048632	44115	111016	0	0	8356	389387	0	0
2024-07-10 18:52:47			0	42315	0	0	0	29602	28160	144714	27384	1048632	44115	111012	0	0	8356	389483	0	0
2024-07-10 18:53:47			0	42314	0	0	0	29625	28170	144718	26790	1048686	44117	111021	0	0	8356	389492	0	0
2024-07-10 18:54:47			0	42335	0	0	0	29623	28180	144682	26981	1048721	44106	111020	0	0	8357	388798	0	0
2024-07-10 18:55:47			0	42330	0	0	0	29636	28180	144730	27013	1048757	44117	111025	0	0	8356	388958	0	0
2024-07-10 18:56:47			0	42309	0	0	0	29566	28190	144618	27159	1048685	44117	110998	0	0	8356	389607	0	0
2024-07-10 18:57:47			0	42315	0	0	0	29618	28170	144618	27166	1048659	44105	111018	0	0	8356	389460	0	0
2024-07-10 18:58:47			0	42309	0	0	0	29532	28190	144582	27086	1048685	44106	110985	0	0	8357	389607	0	0
2024-07-10 18:59:47			0	42320	0	0	0	29467	28180	144558	27246	1048461	44095	110960	0	0	8359	389278	0	0
2024-07-10 19:00:47			0	42306	0	0	0	29542	28170	144594	27312	1048551	44094	110989	0	0	8357	389748	0	0
2024-07-10 19:01:47			0	42326	0	0	0	29514	28170	144586	27204	1048569	44116	110978	0	0	8358	389108	0	0
2024-07-10 19:02:47			0	42309	0	0	0	29615	28180	144654	27166	1048668	44128	111017	0	0	8356	389630	0	0
2024-07-10 19:03:47			0	42310	0	0	0	29592	28180	144646	27317	1048668	44117	111008	0	0	8356	389598	0	0
2024-07-10 19:04:47			0	42299	0	0	0	29542	28170	144630	26767	1048578	44094	110989	0	0	8356	389972	0	0
2024-07-10 19:05:47			0	42307	0	0	0	29573	28180	144610	26878	1048650	44095	111001	0	0	8356	389694	0	0
2024-07-10 19:06:47			0	42302	0	0	0	29233	28180	144558	27086	1048398	44095	110870	0	0	8362	389854	0	0
2024-07-10 19:07:47			0	42314	0	0	0	29335	28150	144438	27182	1048130	44058	110909	0	0	8361	389537	0	0
2024-07-10 19:08:47			0	42305	0	0	0	29485	28130	144582	27026	1048103	44080	110967	0	0	8357	389870	0	0
2024-07-10 19:09:47			0	42302	0	0	0	29392	28120	144578	27345	1048140	44089	110931	0	0	8359	389989	0	0
2024-07-10 19:10:47			0	42285	0	0	0	29467	28110	144618	27315	1048113	44077	110960	0	0	8356	390556	0	0
2024-07-10 19:11:47			0	42297	0	0	0	29571	28100	144750	27100	1048266	44110	111000	0	0	8355	390194	0	0
2024-07-10 19:12:47			0	42278	0	0	0	29490	28110	144662	27254	1048283	44088	110969	0	0	8356	390780	0	0
2024-07-10 19:13:47			0	42275	0	0	0	29454	28120	144650	27039	1048238	44111	110955	0	0	8356	390854	0	0
2024-07-10 19:14:47			0	42283	0	0	0	29496	28110	144702	27142	1048230	44088	110971	0	0	8356	390620	0	0
2024-07-10 19:15:47			0	42280	0	0	0	29490	28120	144786	27076	1048265	44100	110969	0	0	8356	390694	0	0
2024-07-10 19:16:47			0	42271	0	0	0	29477	28110	144722	27244	1048194	44099	110964	0	0	8355	391005	0	0
2024-07-10 19:17:47			0	42289	0	0	0	29514	28110	144802	27315	1048275	44087	110978	0	0	8356	390428	0	0
2024-07-10 19:18:47			0	42260	0	0	0	29542	28120	144734	27124	1048355	44112	110989	0	0	8354	391335	0	0
2024-07-10 19:19:47			0	42287	0	0	0	29412	28120	144814	27255	1048265	44122	110939	0	0	8358	390469	0	0
2024-07-10 19:20:47			0	42278	0	0	0	29394	28100	144750	27126	1048104	44087	110932	0	0	8357	390803	0	0
2024-07-10 19:21:47			0	42278	0	0	0	29311	28100	144810	27234	1048050	44087	110900	0	0	8359	390803	0	0
2024-07-10 19:22:47			0	42273	0	0	0	29384	28080	144810	26958	1048015	44074	110928	0	0	8357	391008	0	0
2024-07-10 19:23:47			0	42277	0	0	0	29329	28090	144770	27265	1047925	44085	110907	0	0	8358	390857	0	0
2024-07-10 19:24:47			0	42279	0	0	0	29181	28060	144710	27052	1047746	44061	110850	0	0	8361	390861	0	0
2024-07-10 19:25:47			0	42298	0	0	0	29233	28040	144730	27196	1047514	44047	110870	0	0	8361	390297	0	0
2024-07-10 19:26:47			0	42299	0	0	0	29332	28020	144730	26856	1047640	44068	110908	0	0	8359	390310	0	0
2024-07-10 19:27:47			0	42261	0	0	0	29228	28000	144818	27171	1047560	44078	110868	0	0	8359	391574	0	0
2024-07-10 19:28:47			0	42288	0	0	0	29262	28000	144894	27353	1047470	44078	110881	0	0	8360	390708	0	0
2024-07-10 19:29:47			0	42291	0	0	0	29402	27990	144862	27369	1047560	44065	110935	0	0	8357	390634	0	0
2024-07-10 19:30:47			0	42290	0	0	0	29464	27990	144930	27216	1047748	44110	110959	0	0	8356	390666	0	0
2024-07-10 19:31:47			0	42284	0	0	0	29436	28000	145010	27232	1047883	44111	110948	0	0	8356	390836	0	0
2024-07-10 19:32:47			0	42268	0	0	0	29441	28020	145038	27364	1047828	44124	110950	0	0	8356	391304	0	0
2024-07-10 19:33:47			0	42268	0	0	0	29394	28020	144922	26932	1047891	44101	110932	0	0	8356	391304	0	0
2024-07-10 19:34:47			0	42257	0	0	0	29379	28020	144850	27182	1047837	44101	110926	0	0	8356	391657	0	0
2024-07-10 19:35:47			0	42261	0	0	0	29394	28010	144970	27215	1047739	44101	110932	0	0	8356	391551	0	0
2024-07-10 19:36:47			0	42265	0	0	0	29397	28020	144950	27367	1047801	44090	110933	0	0	8356	391400	0	0
2024-07-10 19:37:47			0	42237	0	0	0	29337	28020	144990	27126	1047756	44101	110910	0	0	8355	392300	0	0
2024-07-10 19:38:47			0	42270	0	0	0	29207	28000	144886	26876	1047613	44100	110860	0	0	8359	391285	0	0
2024-07-10 19:39:47			0	42269	0	0	0	29236	27980	144966	27128	1047390	44053	110871	0	0	8359	391362	0	0
2024-07-10 19:40:47			0	42236	0	0	0	29309	27970	145062	27218	1047363	44063	110899	0	0	8356	392445	0	0
2024-07-10 19:41:47			0	42247	0	0	0	29298	27950	145014	26993	1047418	44073	110895	0	0	8356	392137	0	0
2024-07-10 19:42:47			0	42227	0	0	0	29366	27950	145006	26875	1047525	44083	110921	0	0	8354	392779	0	0
2024-07-10 19:43:47			0	42239	0	0	0	29423	27960	145038	26925	1047597	44107	110943	0	0	8354	392371	0	0
2024-07-10 19:44:47			0	42242	0	0	0	29438	27960	145138	27305	1047704	44119	110949	0	0	8354	392275	0	0
2024-07-10 19:45:47			0	42214	0	0	0	29384	27990	145130	27275	1047668	44110	110928	0	0	8353	393107	0	0
2024-07-10 19:46:47			0	42219	0	0	0	29438	27990	145082	27045	1047757	44121	110949	0	0	8353	392946	0	0
2024-07-10 19:47:47			0	42221	0	0	0	29407	27990	145150	27286	1047838	44099	110937	0	0	8353	392882	0	0
2024-07-10 19:48:47			0	42224	0	0	0	29270	27990	145102	27083	1047623	44077	110884	0	0	8356	392785	0	0
2024-07-10 19:49:47			0	42204	0	0	0	29444	27980	145162	27225	1047596	44097	110951	0	0	8352	393451	0	0
2024-07-10 19:50:47			0	42210	0	0	0	29503	27990	145198	27024	1047829	44121	110974	0	0	8351	393235	0	0
2024-07-10 19:51:47			0	42191	0	0	0	29563	28000	145262	27105	1047955	44133	110997	0	0	8349	393824	0	0
2024-07-10 19:52:47			0	42206	0	0	0	29579	28020	145270	27270	1048151	44157	111003	0	0	8350	393296	0	0
2024-07-10 19:53:47			0	42200	0	0	0	29592	28050	145246	27078	1048321	44150	111008	0	0	8349	393421	0	0
2024-07-10 19:54:47			0	42211	0	0	0	29612	28070	145246	26951	1048410	44140	111016	0	0	8349	393022	0	0
2024-07-10 19:55:47			0	42196	0	0	0	29651	28090	145302	27060	1048526	44154	111031	0	0	8348	393459	0	0
2024-07-10 19:56:47			0	42177	0	0	0	29737	28120	145382	27052	1048642	44166	111064	0	0	8346	394002	0	0
2024-07-10 19:57:47			0	42187	0	0	0	29831	28140	145306	27097	1048839	44168	111100	0	0	8345	393635	0	0
2024-07-10 19:58:47			0	42171	0	0	0	29745	28170	145342	27111	1048982	44183	111067	0	0	8345	394081	0	0
2024-07-10 19:59:47			0	42155	0	0	0	29701	28190	145198	26809	1049062	44162	111050	0	0	8345	394551	0	0
2024-07-10 20:00:47			0	42151	0	0	0	29586	28210	145238	26852	1048909	44154	111006	0	0	8347	394634	0	0
2024-07-10 20:01:47			0	42152	0	0	0	29555	28190	145130	26902	1048748	44118	110994	0	0	8348	394647	0	0
2024-07-10 20:02:47			0	42157	0	0	0	29589	28180	145210	27170	1048748	44106	111007	0	0	8347	394509	0	0
2024-07-10 20:03:47			0	42124	0	0	0	29703	28190	145354	26930	1048874	44151	111051	0	0	8343	395549	0	0
2024-07-10 20:04:47			0	42129	0	0	0	29815	28200	145406	27038	1049080	44164	111094	0	0	8342	395365	0	0
2024-07-10 20:05:47			0	42116	0	0	0	29859	28240	145358	27326	1049258	44167	111111	0	0	8340	395693	0	0
2024-07-10 20:06:47			0	42114	0	0	0	29776	28250	145334	27417	1049392	44191	111079	0	0	8342	395735	0	0
2024-07-10 20:07:47			0	42121	0	0	0	29623	28260	145202	27220	1049401	44169	111020	0	0	8345	395486	0	0
2024-07-10 20:08:47			0	42120	0	0	0	29745	28270	145330	26948	1049239	44148	111067	0	0	8343	395496	0	0
2024-07-10 20:09:47			0	42096	0	0	0	29812	28270	145386	26989	1049311	44159	111093	0	0	8340	396269	0	0
2024-07-10 20:10:47			0	42067	0	0	0	29833	28300	145465	27059	1049526	44173	111101	0	0	8338	397136	0	0
2024-07-10 20:11:47			0	42057	0	0	0	29831	28320	145369	26970	1049615	44174	111100	0	0	8338	397413	0	0
2024-07-10 20:12:47			0	42066	0	0	0	29833	28320	145513	27092	1049705	44165	111101	0	0	8338	397123	0	0
2024-07-10 20:13:47			0	42038	0	0	0	29794	28340	145401	26935	1049660	44155	111086	0	0	8337	397981	0	0
2024-07-10 20:14:47			0	42064	0	0	0	29690	28350	145325	26823	1049588	44156	111046	0	0	8341	397118	0	0
2024-07-10 20:15:47			0	42043	0	0	0	29667	28340	145345	27149	1049552	44144	111037	0	0	8340	397819	0	0
2024-07-10 20:16:47			0	42054	0	0	0	29846	28340	145405	26942	1049597	44143	111106	0	0	8338	397464	0	0
2024-07-10 20:17:47			0	42039	0	0	0	29805	28340	145373	26896	1049686	44144	111090	0	0	8337	397949	0	0
2024-07-10 20:18:47			0	42034	0	0	0	29418	28340	145381	26720	1049471	44155	110941	0	0	8344	398110	0	0
2024-07-10 20:19:47			0	42040	0	0	0	29436	28340	145253	26984	1049220	44098	110948	0	0	8344	397916	0	0
2024-07-10 20:20:47			0	42029	0	0	0	29568	28320	145257	26961	1049113	44098	110999	0	0	8341	398318	0	0
2024-07-10 20:21:47			0	42012	0	0	0	29701	28310	145453	26828	1049221	44119	111050	0	0	8337	398891	0	0
2024-07-10 20:22:47			0	42018	0	0	0	29618	28300	145357	26876	1049293	44129	111018	0	0	8339	398720	0	0
2024-07-10 20:23:47			0	42024	0	0	0	29176	28300	145233	26706	1049050	44096	110848	0	0	8347	398526	0	0
2024-07-10 20:24:47			0	42015	0	0	0	29101	28250	145049	27128	1048261	44023	110819	0	0	8347	398932	0	0
2024-07-10 20:25:47			0	42056	0	0	0	29062	28190	145189	27005	1047985	43995	110804	0	0	8350	397744	0	0
2024-07-10 20:26:47			0	42071	0	0	0	28202	28120	144897	27048	1047027	43955	110473	0	0	8365	397420	0	0
2024-07-10 20:27:47			0	42066	0	0	0	28270	28010	144833	26805	1046303	43867	110499	0	0	8363	397834	0	0
2024-07-10 20:28:47			0	42048	0	0	0	29306	27910	145245	27097	1046450	43946	110898	0	0	8345	398646	0	0
2024-07-10 20:29:47			0	42073	0	0	0	28477	27910	145325	27126	1046746	44045	110579	0	0	8360	397837	0	0
2024-07-10 20:30:47			0	42084	0	0	0	29005	27870	145210	27088	1046218	43953	110782	0	0	8352	397573	0	0
2024-07-10 20:31:47			0	42074	0	0	0	29272	27850	145549	26833	1046775	44050	110885	0	0	8346	397942	0	0
2024-07-10 20:32:47			0	42075	0	0	0	29194	27870	145545	27211	1047106	44109	110855	0	0	8348	397864	0	0
2024-07-10 20:33:47			0	42075	0	0	0	29493	27890	145685	26745	1047312	44111	110970	0	0	8343	397818	0	0
2024-07-10 20:34:47			0	42070	0	0	0	29148	27920	145705	27147	1047517	44114	110837	0	0	8348	397911	0	0
2024-07-10 20:35:47			0	42053	0	0	0	29407	27930	145713	26922	1047481	44104	110937	0	0	8343	398438	0	0
2024-07-10 20:36:47			0	42060	0	0	0	29423	27940	145693	26880	1047642	44117	110943	0	0	8343	398189	0	0
2024-07-10 20:37:47			0	42046	0	0	0	29251	27950	145729	27017	1047687	44118	110877	0	0	8345	398619	0	0
2024-07-10 20:38:47			0	42036	0	0	0	29192	27950	145701	26842	1047391	44083	110854	0	0	8346	398943	0	0
2024-07-10 20:39:47			0	42038	0	0	0	29163	27930	145745	26876	1047212	44048	110843	0	0	8346	398924	0	0
2024-07-10 20:40:47			0	42023	0	0	0	29202	27920	145677	26890	1047141	44058	110858	0	0	8345	399433	0	0
2024-07-10 20:41:47			0	42011	0	0	0	29171	27900	145817	26798	1047141	44090	110846	0	0	8345	399868	0	0
2024-07-10 20:42:47			0	42006	0	0	0	28833	27890	145761	26863	1047042	44066	110716	0	0	8350	400053	0	0
2024-07-10 20:43:47			0	42026	0	0	0	28864	27870	145565	26608	1046460	44008	110728	0	0	8351	399451	0	0
2024-07-10 20:44:47			0	42018	0	0	0	28594	27830	145613	26934	1046282	44026	110624	0	0	8354	399802	0	0
2024-07-10 20:45:47			0	42031	0	0	0	28511	27760	145485	27008	1045665	43943	110592	0	0	8356	399542	0	0
2024-07-10 20:46:47			0	42040	0	0	0	28914	27720	145613	26870	1045667	43950	110747	0	0	8350	399342	0	0
2024-07-10 20:47:47			0	42022	0	0	0	29080	27680	145825	26944	1045928	44013	110811	0	0	8346	400018	0	0
2024-07-10 20:48:47			0	42017	0	0	0	29124	27700	145921	26765	1046259	44071	110828	0	0	8345	400135	0	0
2024-07-10 20:49:47			0	42008	0	0	0	29324	27710	145913	26873	1046411	44094	110905	0	0	8341	400404	0	0
2024-07-10 20:50:47			0	41992	0	0	0	29392	27750	145997	27178	1046876	44142	110931	0	0	8339	400831	0	0
2024-07-10 20:51:47			0	42001	0	0	0	29283	27790	146109	26974	1047108	44135	110889	0	0	8342	400446	0	0
2024-07-10 20:52:47			0	42009	0	0	0	29049	27810	145941	26807	1046893	44114	110799	0	0	8346	400141	0	0
2024-07-10 20:53:47			0	41978	0	0	0	28735	27790	145845	26932	1046525	44058	110678	0	0	8350	401193	0	0
2024-07-10 20:54:47			0	41985	0	0	0	28929	27780	145689	27074	1046310	44022	110753	0	0	8347	400989	0	0
2024-07-10 20:55:47			0	41977	0	0	0	29155	27760	145925	27071	1046517	44076	110840	0	0	8342	401295	0	0
2024-07-10 20:56:47			0	41975	0	0	0	29397	27780	146033	27092	1046875	44100	110933	0	0	8338	401314	0	0
2024-07-10 20:57:47			0	41939	0	0	0	29205	27800	146173	27066	1047072	44136	110859	0	0	8339	402438	0	0
2024-07-10 20:58:47			0	41951	0	0	0	28945	27800	145857	27142	1046561	44058	110759	0	0	8345	402048	0	0
2024-07-10 20:59:47			0	41947	0	0	0	29012	27800	145953	26989	1046669	44058	110785	0	0	8343	402178	0	0
2024-07-10 21:00:47			0	41936	0	0	0	29371	27790	146117	27026	1046813	44080	110923	0	0	8336	402559	0	0
2024-07-10 21:01:47			0	41920	0	0	0	29444	27820	146229	26974	1047179	44116	110951	0	0	8334	403010	0	0
2024-07-10 21:02:47			0	41907	0	0	0	29412	27840	146337	26790	1047358	44128	110939	0	0	8334	403387	0	0
2024-07-10 21:03:47			0	41891	0	0	0	29431	27870	146301	26811	1047465	44131	110946	0	0	8333	403839	0	0
2024-07-10 21:04:47			0	41870	0	0	0	29472	27890	146285	27001	1047608	44156	110962	0	0	8331	404477	0	0
2024-07-10 21:05:47			0	41853	0	0	0	29449	27920	146325	26977	1047688	44137	110953	0	0	8331	404961	0	0
2024-07-10 21:06:47			0	41846	0	0	0	29485	27930	146349	27138	1047732	44138	110967	0	0	8330	405166	0	0
2024-07-10 21:07:47			0	41829	0	0	0	29514	27950	146493	27001	1047813	44139	110978	0	0	8328	405674	0	0
2024-07-10 21:08:47			0	41833	0	0	0	29584	27970	146457	27235	1048009	44153	111005	0	0	8328	405497	0	0
2024-07-10 21:09:47			0	41817	0	0	0	29527	28000	146473	27104	1048116	44155	110983	0	0	8328	405949	0	0
2024-07-10 21:10:47			0	41800	0	0	0	29537	28010	146461	27294	1048142	44146	110987	0	0	8327	406481	0	0
2024-07-10 21:11:47			0	41792	0	0	0	29540	28030	146425	26928	1048151	44125	110988	0	0	8326	406696	0	0
2024-07-10 21:12:47			0	41802	0	0	0	29548	28050	146501	26871	1048178	44149	110991	0	0	8327	406322	0	0
2024-07-10 21:13:47			0	41787	0	0	0	29412	28040	146477	27150	1048196	44125	110939	0	0	8328	406836	0	0
2024-07-10 21:14:47			0	41793	0	0	0	29327	28060	146361	27170	1048150	44128	110906	0	0	8330	406592	0	0
2024-07-10 21:15:47			0	41785	0	0	0	29522	28060	146373	27138	1048231	44118	110981	0	0	8326	406854	0	0
2024-07-10 21:16:47			0	41773	0	0	0	29501	28070	146365	27012	1048276	44129	110973	0	0	8326	407223	0	0
2024-07-10 21:17:47			0	41782	0	0	0	29207	28080	146357	27268	1048177	44129	110860	0	0	8331	406905	0	0
2024-07-10 21:18:47			0	41786	0	0	0	29186	28060	146321	26788	1047872	44083	110852	0	0	8332	406821	0	0
2024-07-10 21:19:47			0	41803	0	0	0	28929	28040	146177	27310	1047541	44037	110753	0	0	8337	406313	0	0
2024-07-10 21:20:47			0	41803	0	0	0	28893	27990	146161	26844	1047219	44021	110739	0	0	8338	406430	0	0
2024-07-10 21:21:47			0	41777	0	0	0	28654	27960	146109	26968	1046888	44006	110647	0	0	8340	407350	0	0
2024-07-10 21:22:47			0	41800	0	0	0	28901	27900	145953	27012	1046549	43979	110742	0	0	8337	406739	0	0
2024-07-10 21:23:47			0	41800	0	0	0	28527	27860	146137	27083	1046263	43975	110598	0	0	8343	406833	0	0
2024-07-10 21:24:47			0	41818	0	0	0	28568	27790	146025	27130	1045772	43935	110614	0	0	8343	406408	0	0
2024-07-10 21:25:47			0	41812	0	0	0	28649	27730	146233	27031	1045630	43952	110645	0	0	8341	406745	0	0
2024-07-10 21:26:47			0	41839	0	0	0	28483	27690	146205	26949	1045452	43969	110581	0	0	8345	405956	0	0
2024-07-10 21:27:47			0	41848	0	0	0	28677	27650	146045	26930	1045355	43954	110656	0	0	8342	405755	0	0
2024-07-10 21:28:47			0	41849	0	0	0	28545	27600	146253	26752	1045159	43983	110605	0	0	8345	405839	0	0
2024-07-10 21:29:47			0	41857	0	0	0	28735	27570	146241	26890	1044837	43968	110678	0	0	8342	405648	0	0
2024-07-10 21:30:47			0	41866	0	0	0	28810	27540	146297	26956	1045080	43999	110707	0	0	8341	405423	0	0
2024-07-10 21:31:47			0	41843	0	0	0	28631	27540	146429	26902	1045277	44033	110638	0	0	8342	406175	0	0
2024-07-10 21:32:47			0	41875	0	0	0	28454	27530	146293	27019	1044910	43999	110570	0	0	8347	405153	0	0
2024-07-10 21:33:47			0	41875	0	0	0	28519	27480	146305	26743	1044535	43960	110595	0	0	8346	405269	0	0
2024-07-10 21:34:47			0	41911	0	0	0	28524	27440	146397	27149	1044464	43967	110597	0	0	8348	404186	0	0
2024-07-10 21:35:47			0	41901	0	0	0	28285	27420	146365	27078	1044349	43976	110505	0	0	8351	404559	0	0
2024-07-10 21:36:47			0	41916	0	0	0	28815	27400	146337	26871	1044358	43973	110709	0	0	8343	404116	0	0
2024-07-10 21:37:47			0	41921	0	0	0	28472	27390	146573	27105	1044529	44041	110577	0	0	8349	403976	0	0
2024-07-10 21:38:47			0	41927	0	0	0	28483	27380	146489	26981	1044323	44016	110581	0	0	8349	403804	0	0
2024-07-10 21:39:47			0	41923	0	0	0	28472	27360	146385	27140	1044081	43982	110577	0	0	8349	403981	0	0
2024-07-10 21:40:47			0	41914	0	0	0	28542	27340	146505	26618	1044127	43992	110604	0	0	8347	404321	0	0
2024-07-10 21:41:47			0	41927	0	0	0	28664	27330	146429	26965	1044181	44000	110651	0	0	8346	403920	0	0
2024-07-10 21:42:47			0	41909	0	0	0	28605	27310	146513	27013	1044209	44021	110628	0	0	8346	404554	0	0
2024-07-10 21:43:47			0	41919	0	0	0	28644	27310	146601	27303	1044200	44021	110643	0	0	8346	404227	0	0
2024-07-10 21:44:47			0	41927	0	0	0	28571	27300	146561	26942	1044137	43999	110615	0	0	8347	403989	0	0
2024-07-10 21:45:47			0	41946	0	0	0	28792	27300	146485	27000	1044245	44032	110700	0	0	8345	403369	0	0
2024-07-10 21:46:47			0	41932	0	0	0	28880	27330	146501	26925	1044620	44067	110734	0	0	8343	403757	0	0
2024-07-10 21:47:47			0	41919	0	0	0	28636	27370	146401	27112	1044816	44094	110640	0	0	8346	404088	0	0
2024-07-10 21:48:47			0	41931	0	0	0	28418	27380	146305	27130	1044565	44072	110556	0	0	8351	403673	0	0
2024-07-10 21:49:47			0	41968	0	0	0	28402	27360	146253	26939	1044162	43993	110550	0	0	8353	402513	0	0
2024-07-10 21:50:47			0	41932	0	0	0	28755	27350	146277	27138	1044647	44047	110686	0	0	8345	403710	0	0
2024-07-10 21:51:47			0	41932	0	0	0	28625	27380	146393	27149	1044941	44083	110636	0	0	8347	403641	0	0
2024-07-10 21:52:47			0	41937	0	0	0	28540	27400	146205	27251	1044788	44063	110603	0	0	8349	403431	0	0
2024-07-10 21:53:47			0	41926	0	0	0	28670	27410	146341	27196	1044842	44064	110653	0	0	8346	403767	0	0
2024-07-10 21:54:47			0	41933	0	0	0	28646	27420	146413	27053	1045120	44065	110644	0	0	8347	403515	0	0
2024-07-10 21:55:47			0	41937	0	0	0	28496	27440	146401	27015	1044886	44045	110586	0	0	8350	403338	0	0
2024-07-10 21:56:47			0	41929	0	0	0	28438	27410	146289	26804	1044456	43987	110564	0	0	8350	403669	0	0
2024-07-10 21:57:47			0	41940	0	0	0	28433	27380	146281	27067	1044251	43961	110562	0	0	8351	403380	0	0
2024-07-10 21:58:47			0	41936	0	0	0	28470	27350	146297	27019	1044243	43981	110576	0	0	8350	403580	0	0
2024-07-10 21:59:47			0	41925	0	0	0	28693	27340	146449	26972	1044423	44025	110662	0	0	8345	403962	0	0
2024-07-10 22:00:47			0	41928	0	0	0	28631	27370	146589	27057	1044736	44061	110638	0	0	8347	403794	0	0
2024-07-10 22:01:47			0	41943	0	0	0	28438	27380	146429	26953	1044511	44005	110564	0	0	8351	403282	0	0
2024-07-10 22:02:47			0	41942	0	0	0	28472	27350	146409	27083	1044216	43958	110577	0	0	8350	403384	0	0
2024-07-10 22:03:47			0	41937	0	0	0	28789	27330	146525	27062	1044405	43990	110699	0	0	8344	403593	0	0
2024-07-10 22:04:47			0	41938	0	0	0	28633	27360	146521	26951	1044691	44047	110639	0	0	8347	403491	0	0
2024-07-10 22:05:47			0	41918	0	0	0	28799	27380	146413	27145	1044869	44073	110703	0	0	8343	404097	0	0
2024-07-10 22:06:47			0	41926	0	0	0	29044	27420	146513	26665	1045227	44077	110797	0	0	8340	403743	0	0
2024-07-10 22:07:47			0	41896	0	0	0	28896	27460	146585	27249	1045566	44102	110740	0	0	8341	404630	0	0
2024-07-10 22:08:47			0	41934	0	0	0	28610	27480	146461	26953	1045261	44072	110630	0	0	8348	403343	0	0
2024-07-10 22:09:47			0	41925	0	0	0	28514	27480	146269	26800	1044929	43993	110593	0	0	8349	403637	0	0
2024-07-10 22:10:47			0	41921	0	0	0	28441	27420	146229	26991	1044402	43954	110565	0	0	8350	403906	0	0
2024-07-10 22:11:47			0	41922	0	0	0	28397	27380	146273	26882	1044215	43938	110548	0	0	8350	403967	0	0
2024-07-10 22:12:47			0	41922	0	0	0	28410	27340	146361	26870	1043993	43947	110553	0	0	8350	404060	0	0
2024-07-10 22:13:47			0	41943	0	0	0	28511	27320	146397	27119	1044002	43977	110592	0	0	8349	403421	0	0
2024-07-10 22:14:47			0	41906	0	0	0	28903	27330	146493	27222	1044504	44045	110743	0	0	8341	404605	0	0
2024-07-10 22:15:47			0	41923	0	0	0	28794	27350	146697	26679	1044897	44070	110701	0	0	8344	404004	0	0
2024-07-10 22:16:47			0	41923	0	0	0	28571	27390	146525	27038	1044833	44074	110615	0	0	8348	403911	0	0
2024-07-10 22:17:47			0	41934	0	0	0	28548	27380	146457	26781	1044511	44005	110606	0	0	8348	403575	0	0
2024-07-10 22:18:47			0	41929	0	0	0	28636	27370	146477	27095	1044583	44028	110640	0	0	8347	403761	0	0
2024-07-10 22:19:47			0	41939	0	0	0	28919	27390	146573	27159	1044959	44063	110749	0	0	8343	403389	0	0
2024-07-10 22:20:47			0	41920	0	0	0	28714	27420	146573	27097	1045200	44087	110670	0	0	8345	403939	0	0
2024-07-10 22:21:47			0	41916	0	0	0	29028	27450	146637	26800	1045423	44081	110791	0	0	8340	404000	0	0
2024-07-10 22:22:47			0	41919	0	0	0	28761	27490	146553	26530	1045601	44083	110688	0	0	8344	403809	0	0
2024-07-10 22:23:47			0	41909	0	0	0	28579	27530	146381	26967	1045412	44064	110618	0	0	8347	404043	0	0
2024-07-10 22:24:47			0	41918	0	0	0	28844	27510	146401	27039	1045341	44030	110720	0	0	8343	403795	0	0
2024-07-10 22:25:47			0	41907	0	0	0	28942	27520	146469	27055	1045538	44030	110758	0	0	8341	404131	0	0
2024-07-10 22:26:47			0	41905	0	0	0	28844	27530	146501	26923	1045600	44076	110720	0	0	8342	404173	0	0
2024-07-10 22:27:47			0	41891	0	0	0	29119	27550	146585	27137	1045860	44089	110826	0	0	8337	404583	0	0
2024-07-10 22:28:47			0	41883	0	0	0	28924	27590	146477	27093	1046002	44103	110751	0	0	8340	404752	0	0
2024-07-10 22:29:47			0	41901	0	0	0	28906	27600	146513	26956	1045993	44061	110744	0	0	8341	404141	0	0
2024-07-10 22:30:47			0	41897	0	0	0	28862	27620	146549	27020	1045920	44051	110727	0	0	8342	404225	0	0
2024-07-10 22:31:47			0	41882	0	0	0	29015	27620	146529	27071	1046037	44063	110786	0	0	8339	404714	0	0
2024-07-10 22:32:47			0	41884	0	0	0	29041	27630	146501	27156	1046189	44063	110796	0	0	8338	404626	0	0
2024-07-10 22:33:47			0	41866	0	0	0	29176	27660	146573	27137	1046287	44078	110848	0	0	8335	405143	0	0
2024-07-10 22:34:47			0	41849	0	0	0	29093	27680	146617	27008	1046484	44090	110816	0	0	8336	405652	0	0
2024-07-10 22:35:47			0	41867	0	0	0	29124	27710	146509	27038	1046617	44083	110828	0	0	8336	404994	0	0
2024-07-10 22:36:47			0	41882	0	0	0	28864	27720	146473	27178	1046482	44050	110728	0	0	8342	404481	0	0
2024-07-10 22:37:47			0	41872	0	0	0	28844	27700	146473	27057	1046071	44027	110720	0	0	8341	404854	0	0
2024-07-10 22:38:47			0	41877	0	0	0	29064	27680	146365	27017	1045973	44012	110805	0	0	8338	404738	0	0
2024-07-10 22:39:47			0	41877	0	0	0	28818	27670	146433	26974	1046072	44034	110710	0	0	8342	404761	0	0
2024-07-10 22:40:47			0	41874	0	0	0	29046	27680	146453	27072	1046027	44035	110798	0	0	8338	404836	0	0
2024-07-10 22:41:47			0	41865	0	0	0	29155	27680	146497	26967	1046242	44057	110840	0	0	8335	405129	0	0
2024-07-10 22:42:47			0	41856	0	0	0	29199	27690	146557	27166	1046457	44081	110857	0	0	8334	405400	0	0
2024-07-10 22:43:47			0	41850	0	0	0	29064	27700	146461	26847	1046582	44083	110805	0	0	8336	405573	0	0
2024-07-10 22:44:47			0	41851	0	0	0	28714	27710	146405	26798	1046223	44039	110670	0	0	8342	405517	0	0
2024-07-10 22:45:47			0	41865	0	0	0	28677	27680	146301	27074	1045766	43980	110656	0	0	8344	405129	0	0
2024-07-10 22:46:47			0	41862	0	0	0	29059	27650	146297	26778	1045713	43999	110803	0	0	8337	405298	0	0
2024-07-10 22:47:47			0	41852	0	0	0	28979	27650	146525	26748	1045973	44043	110772	0	0	8338	405624	0	0
2024-07-10 22:48:47			0	41863	0	0	0	28950	27660	146441	26713	1046072	44044	110761	0	0	8339	405242	0	0
2024-07-10 22:49:47			0	41855	0	0	0	28831	27660	146385	26656	1046018	44022	110715	0	0	8340	405503	0	0
2024-07-10 22:50:47			0	41858	0	0	0	28742	27660	146445	27055	1045776	44010	110681	0	0	8342	405405	0	0
2024-07-10 22:51:47			0	41859	0	0	0	29168	27640	146589	26909	1045911	44020	110845	0	0	8335	405419	0	0
2024-07-10 22:52:47			0	41837	0	0	0	29075	27650	146585	26961	1046197	44065	110809	0	0	8335	406115	0	0
2024-07-10 22:53:47			0	41823	0	0	0	28948	27670	146701	26641	1046260	44089	110760	0	0	8336	406525	0	0
2024-07-10 22:54:47			0	41843	0	0	0	28857	27680	146541	26705	1046161	44046	110725	0	0	8339	405848	0	0
2024-07-10 22:55:47			0	41833	0	0	0	28937	27670	146557	26970	1046045	44045	110756	0	0	8337	406198	0	0
2024-07-10 22:56:47			0	41860	0	0	0	29025	27680	146581	26951	1046188	44035	110790	0	0	8337	405293	0	0
2024-07-10 22:57:47			0	41816	0	0	0	28901	27670	146605	27152	1046090	44023	110742	0	0	8337	406754	0	0
2024-07-10 22:58:47			0	41830	0	0	0	28792	27650	146617	27308	1045848	44009	110700	0	0	8339	406343	0	0
2024-07-10 22:59:47			0	41842	0	0	0	28823	27640	146473	27034	1045723	44008	110712	0	0	8340	405974	0	0
2024-07-10 23:00:47			0	41846	0	0	0	28909	27620	146481	27083	1045651	44007	110745	0	0	8338	405890	0	0
2024-07-10 23:01:47			0	41835	0	0	0	28846	27600	146469	26772	1045571	44016	110721	0	0	8339	406297	0	0
2024-07-10 23:02:47			0	41825	0	0	0	28781	27580	146545	27015	1045473	43991	110696	0	0	8339	406671	0	0
2024-07-10 23:03:47			0	41833	0	0	0	28727	27560	146365	27145	1045223	43978	110675	0	0	8340	406456	0	0
2024-07-10 23:04:47			0	41872	0	0	0	28690	27540	146397	27059	1045080	43988	110661	0	0	8343	405227	0	0
2024-07-10 23:05:47			0	41840	0	0	0	28654	27510	146469	26909	1044955	43973	110647	0	0	8342	406344	0	0
2024-07-10 23:06:47			0	41876	0	0	0	28631	27480	146465	26857	1044857	43972	110638	0	0	8344	405236	0	0
2024-07-10 23:07:47			0	41878	0	0	0	28618	27460	146441	27187	1044679	43980	110633	0	0	8344	405218	0	0
2024-07-10 23:08:47			0	41886	0	0	0	28558	27430	146365	27124	1044546	43989	110610	0	0	8346	405026	0	0
2024-07-10 23:09:47			0	41899	0	0	0	28599	27420	146457	27230	1044501	43988	110626	0	0	8346	404625	0	0
2024-07-10 23:10:47			0	41892	0	0	0	28571	27390	146473	27144	1044349	43985	110615	0	0	8346	404923	0	0
2024-07-10 23:11:47			0	41906	0	0	0	28573	27380	146501	27060	1044269	43994	110616	0	0	8346	404489	0	0
2024-07-10 23:12:47			0	41918	0	0	0	28579	27350	146425	27208	1044198	43992	110618	0	0	8347	404167	0	0
2024-07-10 23:13:47			0	41922	0	0	0	28571	27330	146465	27062	1044163	44000	110615	0	0	8347	404083	0	0
2024-07-10 23:14:47			0	41923	0	0	0	28605	27330	146413	26890	1044208	44000	110628	0	0	8347	404050	0	0
2024-07-10 23:15:47			0	41949	0	0	0	28745	27310	146477	27038	1044262	44009	110682	0	0	8346	403248	0	0
2024-07-10 23:16:47			0	41936	0	0	0	28836	27330	146581	27090	1044459	44056	110717	0	0	8344	403626	0	0
2024-07-10 23:17:47			0	41936	0	0	0	28867	27340	146545	26785	1044665	44058	110729	0	0	8343	403603	0	0
2024-07-10 23:18:47			0	41935	0	0	0	28888	27370	146585	27088	1044852	44083	110737	0	0	8343	403566	0	0
2024-07-10 23:19:47			0	41934	0	0	0	28896	27380	146545	27215	1044888	44072	110740	0	0	8343	403575	0	0
2024-07-10 23:20:47			0	41961	0	0	0	28893	27410	146445	26951	1045021	44086	110739	0	0	8344	402625	0	0
2024-07-10 23:21:47			0	41950	0	0	0	28935	27420	146453	27031	1045093	44077	110755	0	0	8343	402961	0	0
2024-07-10 23:22:47			0	41949	0	0	0	28986	27430	146445	27261	1045307	44100	110775	0	0	8342	402970	0	0
2024-07-10 23:23:47			0	41946	0	0	0	29020	27450	146537	27206	1045369	44114	110788	0	0	8342	403022	0	0
2024-07-10 23:24:47			0	41960	0	0	0	29041	27470	146433	27048	1045566	44104	110796	0	0	8342	402519	0	0
2024-07-10 23:25:47			0	41952	0	0	0	29116	27490	146381	27104	1045655	44106	110825	0	0	8340	402733	0	0
2024-07-10 23:26:47			0	41964	0	0	0	29153	27530	146529	26963	1045869	44109	110839	0	0	8341	402250	0	0
2024-07-10 23:27:47			0	41949	0	0	0	29127	27560	146417	27095	1046030	44112	110829	0	0	8340	402669	0	0
2024-07-10 23:28:47			0	41964	0	0	0	29124	27580	146405	26960	1046011	44114	110828	0	0	8341	402134	0	0
2024-07-10 23:29:47			0	41955	0	0	0	29116	27590	146321	27296	1046065	44093	110825	0	0	8341	402404	0	0
2024-07-10 23:30:47			0	41944	0	0	0	29140	27600	146345	27126	1046109	44117	110834	0	0	8340	402739	0	0
2024-07-10 23:31:47			0	41957	0	0	0	29098	27630	146189	26968	1046243	44108	110818	0	0	8342	402246	0	0
2024-07-10 23:32:47			0	41962	0	0	0	29142	27650	146293	27090	1046269	44099	110835	0	0	8341	402037	0	0
2024-07-10 23:33:47			0	41940	0	0	0	29241	27650	146221	26975	1046332	44099	110873	0	0	8338	402754	0	0
2024-07-10 23:34:47			0	41953	0	0	0	29262	27670	146317	26826	1046520	44123	110881	0	0	8339	402284	0	0
2024-07-10 23:35:47			0	41938	0	0	0	29259	27690	146265	26854	1046636	44114	110880	0	0	8338	402726	0	0
2024-07-10 23:36:47			0	41958	0	0	0	29296	27710	146333	26928	1046680	44138	110894	0	0	8339	402029	0	0
2024-07-10 23:37:47			0	41951	0	0	0	29314	27730	146277	26745	1046787	44129	110901	0	0	8338	402210	0	0
2024-07-10 23:38:47			0	41944	0	0	0	29335	27740	146289	26930	1046894	44119	110909	0	0	8337	402415	0	0
2024-07-10 23:39:47			0	41955	0	0	0	29311	27770	146337	26946	1046965	44122	110900	0	0	8338	401987	0	0
2024-07-10 23:40:47			0	41935	0	0	0	29327	27790	146269	27001	1047001	44135	110906	0	0	8337	402592	0	0
2024-07-10 23:41:47			0	41948	0	0	0	29337	27790	146105	26986	1047055	44101	110910	0	0	8338	402169	0	0
2024-07-10 23:42:47			0	41943	0	0	0	29311	27820	146157	26967	1047126	44116	110900	0	0	8338	402262	0	0
2024-07-10 23:43:47			0	41945	0	0	0	29329	27820	146173	26686	1047134	44116	110907	0	0	8338	402197	0	0
2024-07-10 23:44:47			0	41935	0	0	0	29345	27840	146289	26963	1047134	44106	110913	0	0	8337	402476	0	0
2024-07-10 23:45:47			0	41935	0	0	0	29327	27850	146161	26920	1047152	44128	110906	0	0	8337	402452	0	0
2024-07-10 23:46:47			0	41937	0	0	0	29366	27860	146185	27078	1047277	44108	110921	0	0	8337	402364	0	0
2024-07-10 23:47:47			0	41943	0	0	0	29366	27860	146197	27152	1047339	44131	110921	0	0	8337	402169	0	0
2024-07-10 23:48:47			0	41951	0	0	0	29397	27870	146145	26767	1047348	44120	110933	0	0	8337	401886	0	0
2024-07-10 23:49:47			0	41955	0	0	0	29374	27890	146221	26866	1047437	44122	110924	0	0	8338	401709	0	0
2024-07-10 23:50:47			0	41927	0	0	0	29332	27880	146253	26623	1047509	44144	110908	0	0	8337	402643	0	0
2024-07-10 23:51:47			0	41930	0	0	0	29275	27890	146197	26628	1047392	44122	110886	0	0	8338	402522	0	0
2024-07-10 23:52:47			0	41946	0	0	0	29303	27900	146081	26706	1047374	44112	110897	0	0	8339	401979	0	0
2024-07-10 23:53:47			0	41937	0	0	0	29345	27890	146141	26994	1047419	44100	110913	0	0	8337	402295	0	0
2024-07-10 23:54:47			0	41939	0	0	0	29379	27890	146161	26743	1047437	44111	110926	0	0	8337	402230	0	0
2024-07-10 23:55:47			0	41941	0	0	0	29381	27900	146125	27041	1047455	44112	110927	0	0	8337	402141	0	0
2024-07-10 23:56:47			0	41926	0	0	0	29407	27900	146181	26842	1047544	44124	110937	0	0	8336	402629	0	0
2024-07-10 23:57:47			0	41932	0	0	0	29415	27910	146205	26788	1047562	44124	110940	0	0	8336	402411	0	0
2024-07-10 23:58:47			0	41933	0	0	0	29397	27920	146221	26970	1047661	44125	110933	0	0	8336	402355	0	0
2024-07-10 23:59:47			0	41937	0	0	0	29412	27930	146133	26953	1047652	44116	110939	0	0	8336	402202	0	0
2024-07-11 00:00:47			0	41934	0	0	0	29412	27930	146085	26864	1047598	44126	110939	0	0	8336	402299	0	0
2024-07-11 00:01:47			0	41941	0	0	0	29415	27940	146105	26861	1047642	44127	110940	0	0	8337	402049	0	0
2024-07-11 00:02:47			0	41938	0	0	0	29423	27940	146057	26913	1047723	44094	110943	0	0	8336	402146	0	0
2024-07-11 00:03:47			0	41959	0	0	0	29412	27950	146161	26958	1047678	44106	110939	0	0	8338	401441	0	0
2024-07-11 00:04:47			0	41930	0	0	0	29415	27950	146101	26856	1047714	44118	110940	0	0	8336	402383	0	0
2024-07-11 00:05:47			0	41951	0	0	0	29425	27950	146061	26720	1047714	44128	110944	0	0	8337	401700	0	0
2024-07-11 00:06:47			0	41944	0	0	0	29428	27980	146037	26942	1047758	44130	110945	0	0	8337	401858	0	0
2024-07-11 00:07:47			0	41957	0	0	0	29407	27960	146057	27008	1047749	44118	110937	0	0	8338	401482	0	0
2024-07-11 00:08:47			0	41946	0	0	0	29425	27960	145985	26717	1047785	44119	110944	0	0	8337	401840	0	0
2024-07-11 00:09:47			0	41964	0	0	0	29428	27970	146041	26774	1047740	44119	110945	0	0	8338	401232	0	0
2024-07-11 00:10:47			0	41961	0	0	0	29436	27960	145985	26982	1047812	44119	110948	0	0	8337	401352	0	0
2024-07-11 00:11:47			0	41970	0	0	0	29423	27970	146029	26970	1047821	44130	110943	0	0	8338	401037	0	0
2024-07-11 00:12:47			0	41971	0	0	0	29423	27980	146005	27131	1047865	44119	110943	0	0	8338	400981	0	0
2024-07-11 00:13:47			0	41967	0	0	0	29397	27980	145965	27255	1047839	44119	110933	0	0	8339	401111	0	0
2024-07-11 00:14:47			0	41989	0	0	0	29418	27980	145937	26885	1047874	44120	110941	0	0	8339	400397	0	0
2024-07-11 00:15:47			0	41989	0	0	0	29420	27990	145929	27104	1047865	44121	110942	0	0	8339	400374	0	0
2024-07-11 00:16:47			0	41975	0	0	0	29433	27980	145877	26946	1047874	44131	110947	0	0	8338	400852	0	0
2024-07-11 00:17:47			0	42005	0	0	0	29457	27990	145765	26913	1047865	44121	110956	0	0	8340	399855	0	0
2024-07-11 00:18:47			0	41990	0	0	0	29444	27990	145825	27114	1047892	44143	110951	0	0	8339	400342	0	0
2024-07-11 00:19:47			0	42003	0	0	0	29441	28000	145761	26863	1047963	44133	110950	0	0	8340	399897	0	0
2024-07-11 00:20:47			0	42000	0	0	0	29454	28010	145737	27246	1047972	44123	110955	0	0	8340	399971	0	0
2024-07-11 00:21:47			0	42008	0	0	0	29441	28000	145745	26984	1047936	44144	110950	0	0	8340	399735	0	0
2024-07-11 00:22:47			0	42025	0	0	0	29454	28010	145833	26897	1047999	44134	110955	0	0	8341	399161	0	0
2024-07-11 00:23:47			0	42025	0	0	0	29459	28010	145657	27039	1048008	44124	110957	0	0	8341	399161	0	0
2024-07-11 00:24:47			0	42010	0	0	0	29459	28020	145693	27085	1048017	44135	110957	0	0	8340	399624	0	0
2024-07-11 00:25:47			0	42024	0	0	0	29444	28020	145773	26814	1047990	44135	110951	0	0	8341	399170	0	0
2024-07-11 00:26:47			0	42033	0	0	0	29454	28020	145645	27074	1048071	44124	110955	0	0	8342	398879	0	0
2024-07-11 00:27:47			0	42050	0	0	0	29454	28010	145633	27230	1048062	44124	110955	0	0	8343	398352	0	0
2024-07-11 00:28:47			0	42029	0	0	0	29454	28020	145709	27255	1048052	44135	110955	0	0	8341	399009	0	0
2024-07-11 00:29:47			0	42037	0	0	0	29459	28030	145637	26944	1047980	44147	110957	0	0	8342	398727	0	0
2024-07-11 00:30:47			0	42049	0	0	0	29464	28020	145677	27149	1048079	44113	110959	0	0	8342	398361	0	0
2024-07-11 00:31:47			0	42045	0	0	0	29454	28030	145549	26930	1048061	44125	110955	0	0	8342	398468	0	0
2024-07-11 00:32:47			0	42057	0	0	0	29441	28020	145541	27085	1048044	44135	110950	0	0	8343	398102	0	0
2024-07-11 00:33:47			0	42060	0	0	0	29449	28030	145505	27055	1048007	44136	110953	0	0	8343	397982	0	0
2024-07-11 00:34:47			0	42087	0	0	0	29431	28020	145526	26941	1047972	44135	110946	0	0	8345	397132	0	0
2024-07-11 00:35:47			0	42077	0	0	0	29438	28030	145485	26816	1048115	44125	110949	0	0	8344	397433	0	0
2024-07-11 00:36:47			0	42075	0	0	0	29444	28040	145477	26831	1048052	44125	110951	0	0	8344	397474	0	0
2024-07-11 00:37:47			0	42088	0	0	0	29433	28030	145370	26981	1048007	44125	110947	0	0	8345	397077	0	0
2024-07-11 00:38:47			0	42100	0	0	0	29425	28020	145418	27013	1048044	44135	110944	0	0	8346	396712	0	0
2024-07-11 00:39:47			0	42102	0	0	0	29423	28020	145386	27065	1047963	44113	110943	0	0	8346	396648	0	0
2024-07-11 00:40:47			0	42115	0	0	0	29399	28020	145394	26909	1047990	44135	110934	0	0	8347	396228	0	0
2024-07-11 00:41:47			0	42119	0	0	0	29381	28020	145310	26967	1047963	44124	110927	0	0	8348	396099	0	0
2024-07-11 00:42:47			0	42123	0	0	0	29379	28010	145402	27149	1047891	44123	110926	0	0	8348	395993	0	0
2024-07-11 00:43:47			0	42136	0	0	0	29371	28010	145262	27149	1047838	44112	110923	0	0	8349	395573	0	0
2024-07-11 00:44:47			0	42132	0	0	0	29366	28000	145266	27100	1047802	44122	110921	0	0	8349	395725	0	0
2024-07-11 00:45:47			0	42153	0	0	0	29353	28000	145210	27057	1047820	44122	110916	0	0	8350	395048	0	0
2024-07-11 00:46:47			0	42136	0	0	0	29366	27990	145210	26823	1047838	44110	110921	0	0	8349	395619	0	0
2024-07-11 00:47:47			0	42157	0	0	0	29358	27990	145126	26578	1047757	44121	110918	0	0	8350	394942	0	0
2024-07-11 00:48:47			0	42142	0	0	0	29342	27970	145298	27029	1047686	44119	110912	0	0	8350	395471	0	0
2024-07-11 00:49:47			0	42170	0	0	0	29337	27980	145170	27059	1047731	44130	110910	0	0	8351	394546	0	0
2024-07-11 00:50:47			0	42147	0	0	0	29348	27980	145174	26849	1047731	44108	110914	0	0	8350	395287	0	0
2024-07-11 00:51:47			0	42191	0	0	0	29335	27980	145146	27239	1047731	44119	110909	0	0	8353	393869	0	0
2024-07-11 00:52:47			0	42164	0	0	0	29319	27960	145242	27041	1047642	44128	110903	0	0	8351	394784	0	0
2024-07-11 00:53:47			0	42172	0	0	0	29267	27960	145114	26708	1047624	44119	110883	0	0	8353	394527	0	0
2024-07-11 00:54:47			0	42201	0	0	0	29241	27960	145098	27078	1047489	44107	110873	0	0	8355	393593	0	0
2024-07-11 00:55:47			0	42183	0	0	0	29225	27930	145066	27036	1047436	44093	110867	0	0	8354	394241	0	0
2024-07-11 00:56:47			0	42212	0	0	0	29225	27930	145018	26899	1047347	44104	110867	0	0	8356	393307	0	0
2024-07-11 00:57:47			0	42208	0	0	0	29223	27910	145066	26979	1047320	44113	110866	0	0	8355	393481	0	0
2024-07-11 00:58:47			0	42228	0	0	0	29215	27910	145078	27083	1047285	44101	110863	0	0	8357	392838	0	0
2024-07-11 00:59:47			0	42231	0	0	0	29199	27890	145006	27128	1047204	44088	110857	0	0	8357	392787	0	0
2024-07-11 01:00:47			0	42217	0	0	0	29215	27880	145026	27189	1047204	44110	110863	0	0	8356	393260	0	0
2024-07-11 01:01:47			0	42227	0	0	0	29220	27880	145062	26844	1047151	44099	110865	0	0	8356	392938	0	0
2024-07-11 01:02:47			0	42224	0	0	0	29215	27870	145002	27052	1047142	44109	110863	0	0	8356	393057	0	0
2024-07-11 01:03:47			0	42235	0	0	0	29197	27870	145022	27159	1047079	44120	110856	0	0	8357	392703	0	0
2024-07-11 01:04:47			0	42239	0	0	0	29163	27860	145026	27098	1047115	44108	110843	0	0	8358	392597	0	0
2024-07-11 01:05:47			0	42235	0	0	0	29163	27860	145022	27152	1047070	44109	110843	0	0	8358	392726	0	0
2024-07-11 01:06:47			0	42243	0	0	0	29101	27850	145034	26578	1046990	44106	110819	0	0	8359	392491	0	0
2024-07-11 01:07:47			0	42241	0	0	0	29080	27830	145018	26807	1046856	44083	110811	0	0	8359	392601	0	0
2024-07-11 01:08:47			0	42249	0	0	0	29077	27810	145014	26804	1046794	44092	110810	0	0	8360	392389	0	0
2024-07-11 01:09:47			0	42277	0	0	0	29127	27810	144922	26875	1046740	44092	110829	0	0	8360	391489	0	0
2024-07-11 01:10:47			0	42263	0	0	0	29140	27810	144930	26847	1046731	44091	110834	0	0	8359	391939	0	0
2024-07-11 01:11:47			0	42261	0	0	0	29101	27780	145054	26811	1046696	44100	110819	0	0	8360	392071	0	0
2024-07-11 01:12:47			0	42268	0	0	0	29077	27780	145038	26961	1046669	44100	110810	0	0	8361	391846	0	0
2024-07-11 01:13:47			0	42265	0	0	0	29083	27770	144974	26495	1046642	44078	110812	0	0	8360	391965	0	0
2024-07-11 01:14:47			0	42261	0	0	0	29122	27760	144978	26885	1046634	44087	110827	0	0	8359	392116	0	0
2024-07-11 01:15:47			0	42291	0	0	0	29124	27760	145098	26722	1046652	44109	110828	0	0	8361	391152	0	0
2024-07-11 01:16:47			0	42283	0	0	0	29111	27750	145010	26986	1046616	44109	110823	0	0	8361	391432	0	0
2024-07-11 01:17:47			0	42273	0	0	0	29093	27760	144990	26774	1046652	44098	110816	0	0	8361	391730	0	0
2024-07-11 01:18:47			0	42291	0	0	0	29090	27760	145018	26795	1046598	44109	110815	0	0	8362	391152	0	0
2024-07-11 01:19:47			0	42285	0	0	0	29098	27750	144966	26909	1046580	44109	110818	0	0	8361	391368	0	0
2024-07-11 01:20:47			0	42274	0	0	0	29111	27740	145022	27043	1046509	44096	110823	0	0	8360	391743	0	0
2024-07-11 01:21:47			0	42291	0	0	0	29119	27730	145042	26783	1046518	44096	110826	0	0	8361	391220	0	0
2024-07-11 01:22:47			0	42305	0	0	0	29098	27740	144982	26979	1046563	44096	110818	0	0	8362	390748	0	0
2024-07-11 01:23:47			0	42294	0	0	0	29106	27720	145058	26817	1046482	44106	110821	0	0	8361	391146	0	0
2024-07-11 01:24:47			0	42278	0	0	0	29080	27730	144986	26778	1046464	44107	110811	0	0	8361	391638	0	0
2024-07-11 01:25:47			0	42314	0	0	0	29077	27730	145058	26989	1046464	44107	110810	0	0	8363	390482	0	0
2024-07-11 01:26:47			0	42296	0	0	0	29070	27720	145054	26793	1046447	44094	110807	0	0	8362	391082	0	0
2024-07-11 01:27:47			0	42289	0	0	0	29057	27720	145062	27111	1046447	44105	110802	0	0	8362	391307	0	0
2024-07-11 01:28:47			0	42297	0	0	0	29062	27700	144990	26987	1046393	44116	110804	0	0	8362	391095	0	0
2024-07-11 01:29:47			0	42303	0	0	0	29033	27700	144930	27031	1046358	44092	110793	0	0	8363	390902	0	0
2024-07-11 01:30:47			0	42301	0	0	0	29031	27700	144930	27140	1046304	44082	110792	0	0	8363	390966	0	0
2024-07-11 01:31:47			0	42320	0	0	0	29025	27690	144966	26906	1046322	44091	110790	0	0	8364	390379	0	0
2024-07-11 01:32:47			0	42325	0	0	0	29012	27690	145006	27046	1046259	44091	110785	0	0	8365	390219	0	0
2024-07-11 01:33:47			0	42316	0	0	0	29005	27670	144822	27270	1046260	44089	110782	0	0	8364	390552	0	0
2024-07-11 01:34:47			0	42333	0	0	0	29002	27670	144914	26705	1046179	44089	110781	0	0	8365	390007	0	0
2024-07-11 01:35:47			0	42306	0	0	0	29007	27670	144850	26994	1046197	44089	110783	0	0	8364	390873	0	0
2024-07-11 01:36:47			0	42330	0	0	0	28997	27670	144918	26928	1046143	44100	110779	0	0	8365	390103	0	0
2024-07-11 01:37:47			0	42333	0	0	0	28992	27660	144938	26741	1046135	44100	110777	0	0	8365	390029	0	0
2024-07-11 01:38:47			0	42331	0	0	0	28981	27650	144942	26981	1046117	44065	110773	0	0	8365	390116	0	0
2024-07-11 01:39:47			0	42352	0	0	0	28997	27650	144906	27133	1046081	44077	110779	0	0	8366	389443	0	0
2024-07-11 01:40:47			0	42336	0	0	0	29010	27640	144942	27102	1046126	44098	110784	0	0	8365	389978	0	0
2024-07-11 01:41:47			0	42341	0	0	0	29010	27650	144894	27225	1046000	44099	110784	0	0	8366	389795	0	0
2024-07-11 01:42:47			0	42340	0	0	0	28999	27640	144874	27086	1046045	44098	110780	0	0	8366	389850	0	0
2024-07-11 01:43:47			0	42365	0	0	0	28989	27630	144886	27104	1046027	44085	110776	0	0	8367	389071	0	0
2024-07-11 01:44:47			0	42358	0	0	0	28999	27630	144842	27017	1046054	44085	110780	0	0	8367	389295	0	0
2024-07-11 01:45:47			0	42356	0	0	0	29002	27630	144874	26623	1046081	44085	110781	0	0	8366	389359	0	0
2024-07-11 01:46:47			0	42360	0	0	0	28989	27630	144910	26876	1046027	44097	110776	0	0	8367	389231	0	0
2024-07-11 01:47:47			0	42370	0	0	0	29002	27620	144850	27027	1046037	44096	110781	0	0	8367	388933	0	0
2024-07-11 01:48:47			0	42356	0	0	0	29005	27620	144854	27149	1045983	44096	110782	0	0	8366	389382	0	0
2024-07-11 01:49:47			0	42372	0	0	0	29005	27620	144898	27029	1046082	44107	110782	0	0	8367	388869	0	0
2024-07-11 01:50:47			0	42362	0	0	0	29007	27630	144890	27270	1045965	44097	110783	0	0	8367	389167	0	0
2024-07-11 01:51:47			0	42369	0	0	0	29005	27620	144858	27232	1046001	44119	110782	0	0	8367	388965	0	0
2024-07-11 01:52:47			0	42368	0	0	0	29002	27620	144870	26984	1046001	44119	110781	0	0	8367	388997	0	0
2024-07-11 01:53:47			0	42367	0	0	0	28992	27620	144874	26949	1045974	44096	110777	0	0	8367	389029	0	0
2024-07-11 01:54:47			0	42377	0	0	0	28979	27610	144822	27118	1045938	44106	110772	0	0	8368	388731	0	0
2024-07-11 01:55:47			0	42398	0	0	0	28971	27610	144710	27102	1045911	44095	110769	0	0	8369	388059	0	0
2024-07-11 01:56:47			0	42380	0	0	0	28961	27600	144890	27019	1045894	44094	110765	0	0	8368	388658	0	0
2024-07-11 01:57:47			0	42384	0	0	0	28942	27590	144826	26906	1045822	44093	110758	0	0	8369	388552	0	0
2024-07-11 01:58:47			0	42388	0	0	0	28929	27600	144862	26894	1045813	44094	110753	0	0	8369	388401	0	0
2024-07-11 01:59:47			0	42408	0	0	0	28927	27590	144814	27116	1045814	44082	110752	0	0	8371	387784	0	0
2024-07-11 02:00:47			0	42384	0	0	0	28898	27590	144746	26927	1045787	44082	110741	0	0	8370	388552	0	0
2024-07-11 02:01:47			0	42408	0	0	0	28875	27580	144834	27003	1045662	44091	110732	0	0	8371	387806	0	0
2024-07-11 02:02:47			0	42404	0	0	0	28864	27570	144826	26979	1045590	44080	110728	0	0	8371	387956	0	0
2024-07-11 02:03:47			0	42416	0	0	0	28872	27560	144786	27109	1045519	44067	110731	0	0	8372	387595	0	0
2024-07-11 02:04:47			0	42411	0	0	0	28880	27550	144786	27412	1045528	44078	110734	0	0	8371	387777	0	0
2024-07-11 02:05:47			0	42420	0	0	0	28859	27540	144826	27332	1045457	44077	110726	0	0	8372	387511	0	0
2024-07-11 02:06:47			0	42418	0	0	0	28838	27540	144774	27097	1045511	44065	110718	0	0	8372	387575	0	0
2024-07-11 02:07:47			0	42421	0	0	0	28831	27530	144806	27045	1045439	44064	110715	0	0	8373	387501	0	0
2024-07-11 02:08:47			0	42426	0	0	0	28831	27510	144850	26949	1045367	44085	110715	0	0	8373	387386	0	0
2024-07-11 02:09:47			0	42415	0	0	0	28820	27500	144722	26986	1045296	44074	110711	0	0	8372	387760	0	0
2024-07-11 02:10:47			0	42410	0	0	0	28812	27490	144790	27100	1045278	44073	110708	0	0	8372	387943	0	0
2024-07-11 02:11:47			0	42434	0	0	0	28802	27490	144810	26675	1045278	44062	110704	0	0	8374	387175	0	0
2024-07-11 02:12:47			0	42424	0	0	0	28799	27480	144790	27067	1045234	44072	110703	0	0	8373	387517	0	0
2024-07-11 02:13:47			0	42430	0	0	0	28805	27470	144758	26889	1045127	44059	110705	0	0	8373	387347	0	0
2024-07-11 02:14:47			0	42425	0	0	0	28807	27470	144782	26928	1045154	44082	110706	0	0	8373	387507	0	0
2024-07-11 02:15:47			0	42408	0	0	0	28807	27470	144810	27116	1045154	44082	110706	0	0	8372	388051	0	0
2024-07-11 02:16:47			0	42420	0	0	0	28818	27460	144782	27060	1045145	44058	110710	0	0	8373	387690	0	0
2024-07-11 02:17:47			0	42418	0	0	0	28807	27460	144774	27161	1045163	44102	110706	0	0	8373	387753	0	0
2024-07-11 02:18:47			0	42426	0	0	0	28815	27450	144782	26864	1045119	44068	110709	0	0	8373	387520	0	0
2024-07-11 02:19:47			0	42404	0	0	0	28799	27450	144778	26797	1045172	44080	110703	0	0	8372	388224	0	0
2024-07-11 02:20:47			0	42434	0	0	0	28805	27450	144794	26760	1045092	44090	110705	0	0	8374	387264	0	0
2024-07-11 02:21:47			0	42423	0	0	0	28807	27440	144770	26944	1045128	44079	110706	0	0	8373	387638	0	0
2024-07-11 02:22:47			0	42426	0	0	0	28820	27440	144782	26967	1045137	44089	110711	0	0	8373	387542	0	0
2024-07-11 02:23:47			0	42422	0	0	0	28823	27440	144790	27131	1045164	44079	110712	0	0	8373	387670	0	0
2024-07-11 02:24:47			0	42430	0	0	0	28828	27440	144778	26712	1045101	44079	110714	0	0	8373	387414	0	0
2024-07-11 02:25:47			0	42418	0	0	0	28831	27450	144882	26871	1045145	44090	110715	0	0	8372	387776	0	0
2024-07-11 02:26:47			0	42436	0	0	0	28825	27430	144882	27067	1045110	44088	110713	0	0	8373	387244	0	0
2024-07-11 02:27:47			0	42424	0	0	0	28820	27440	144790	27208	1045128	44079	110711	0	0	8373	387606	0	0
2024-07-11 02:28:47			0	42419	0	0	0	28818	27440	144902	27046	1045074	44100	110710	0	0	8372	387766	0	0
2024-07-11 02:29:47			0	42446	0	0	0	28810	27440	144954	27057	1045128	44089	110707	0	0	8374	386902	0	0
2024-07-11 02:30:47			0	42410	0	0	0	28805	27440	144906	26944	1045074	44089	110705	0	0	8372	388054	0	0
2024-07-11 02:31:47			0	42432	0	0	0	28810	27430	144926	27010	1045056	44088	110707	0	0	8373	387372	0	0
2024-07-11 02:32:47			0	42450	0	0	0	28805	27440	144854	27020	1045074	44079	110705	0	0	8375	386774	0	0
2024-07-11 02:33:47			0	42433	0	0	0	28815	27430	144894	27332	1045083	44088	110709	0	0	8373	387340	0	0
2024-07-11 02:34:47			0	42444	0	0	0	28802	27430	144918	26876	1045056	44088	110704	0	0	8374	386988	0	0
2024-07-11 02:35:47			0	42447	0	0	0	28805	27420	144858	26765	1045101	44077	110705	0	0	8374	386915	0	0
2024-07-11 02:36:47			0	42436	0	0	0	28797	27430	144834	27066	1045056	44078	110702	0	0	8374	387244	0	0
2024-07-11 02:37:47			0	42448	0	0	0	28810	27420	144814	27022	1045075	44087	110707	0	0	8374	386883	0	0
2024-07-11 02:38:47			0	42444	0	0	0	28784	27420	144818	26961	1045048	44099	110697	0	0	8374	387011	0	0
2024-07-11 02:39:47			0	42464	0	0	0	28774	27410	144826	27187	1044967	44086	110693	0	0	8376	386394	0	0
2024-07-11 02:40:47			0	42428	0	0	0	28771	27420	144806	26844	1044985	44099	110692	0	0	8374	387523	0	0
2024-07-11 02:41:47			0	42444	0	0	0	28771	27410	144958	26852	1044887	44086	110692	0	0	8375	387033	0	0
2024-07-11 02:42:47			0	42456	0	0	0	28768	27400	144726	26783	1044905	44085	110691	0	0	8375	386671	0	0
2024-07-11 02:43:47			0	42452	0	0	0	28753	27400	144774	26613	1044905	44064	110685	0	0	8375	386799	0	0
2024-07-11 02:44:47			0	42453	0	0	0	28742	27390	144774	27052	1044860	44074	110681	0	0	8376	386790	0	0
2024-07-11 02:45:47			0	42456	0	0	0	28735	27380	144810	27043	1044843	44083	110678	0	0	8376	386716	0	0
2024-07-11 02:46:47			0	42445	0	0	0	28740	27390	144714	27171	1044878	44074	110680	0	0	8375	387045	0	0
2024-07-11 02:47:47			0	42440	0	0	0	28735	27390	144810	26812	1044771	44063	110678	0	0	8375	387206	0	0
2024-07-11 02:48:47			0	42466	0	0	0	28724	27380	144782	26923	1044807	44061	110674	0	0	8377	386396	0	0
2024-07-11 02:49:47			0	42457	0	0	0	28716	27360	144750	27159	1044691	44059	110671	0	0	8376	386729	0	0
2024-07-11 02:50:47			0	42455	0	0	0	28709	27380	144722	26961	1044672	44072	110668	0	0	8376	386748	0	0
2024-07-11 02:51:47			0	42457	0	0	0	28698	27360	144726	26949	1044691	44082	110664	0	0	8376	386729	0	0
2024-07-11 02:52:47			0	42466	0	0	0	28703	27350	144798	27088	1044628	44092	110666	0	0	8377	386463	0	0
2024-07-11 02:53:47			0	42453	0	0	0	28688	27350	144706	27079	1044655	44059	110660	0	0	8376	386879	0	0
2024-07-11 02:54:47			0	42471	0	0	0	28690	27340	144842	27175	1044611	44069	110661	0	0	8377	386325	0	0
2024-07-11 02:55:47			0	42455	0	0	0	28664	27340	144874	27242	1044584	44069	110651	0	0	8377	386837	0	0
2024-07-11 02:56:47			0	42464	0	0	0	28659	27330	144834	26831	1044504	44079	110649	0	0	8377	386571	0	0
2024-07-11 02:57:47			0	42480	0	0	0	28654	27330	144858	27307	1044566	44056	110647	0	0	8378	386060	0	0
2024-07-11 02:58:47			0	42469	0	0	0	28651	27320	144834	27076	1044433	44066	110646	0	0	8378	386434	0	0
2024-07-11 02:59:47			0	42483	0	0	0	28625	27310	144770	27246	1044388	44054	110636	0	0	8379	386008	0	0
2024-07-11 03:00:47			0	42484	0	0	0	28631	27300	144894	27093	1044325	44065	110638	0	0	8379	385999	0	0
2024-07-11 03:01:47			0	42490	0	0	0	28618	27290	144866	26748	1044281	44064	110633	0	0	8379	385829	0	0
2024-07-11 03:02:47			0	42471	0	0	0	28620	27280	144738	27078	1044263	44064	110634	0	0	8378	386458	0	0
2024-07-11 03:03:47			0	42481	0	0	0	28610	27280	144730	27008	1044254	44063	110630	0	0	8379	386139	0	0
2024-07-11 03:04:47			0	42480	0	0	0	28612	27280	144778	26800	1044227	44063	110631	0	0	8379	386171	0	0
2024-07-11 03:05:47			0	42475	0	0	0	28615	27270	144698	27168	1044156	44061	110632	0	0	8378	386353	0	0
2024-07-11 03:06:47			0	42491	0	0	0	28602	27260	144730	27076	1044201	44072	110627	0	0	8380	385863	0	0
2024-07-11 03:07:47			0	42470	0	0	0	28594	27260	144758	27048	1044138	44061	110624	0	0	8379	386535	0	0
2024-07-11 03:08:47			0	42470	0	0	0	28584	27260	144806	27157	1044120	44061	110620	0	0	8379	386535	0	0
2024-07-11 03:09:47			0	42485	0	0	0	28589	27250	144806	26861	1044130	44060	110622	0	0	8379	386078	0	0
2024-07-11 03:10:47			0	42487	0	0	0	28586	27250	144886	26800	1044094	44059	110621	0	0	8380	386014	0	0
2024-07-11 03:11:47			0	42487	0	0	0	28568	27240	144770	26960	1044085	44059	110614	0	0	8380	386036	0	0
2024-07-11 03:12:47			0	42503	0	0	0	28576	27240	144814	27097	1044050	44047	110617	0	0	8381	385525	0	0
2024-07-11 03:13:47			0	42502	0	0	0	28568	27230	144662	26972	1044014	44046	110614	0	0	8381	385579	0	0
2024-07-11 03:14:47			0	42497	0	0	0	28566	27210	144786	26807	1043934	44068	110613	0	0	8380	385783	0	0
2024-07-11 03:15:47			0	42483	0	0	0	28555	27230	144802	26972	1043871	44057	110609	0	0	8380	386186	0	0
2024-07-11 03:16:47			0	42521	0	0	0	28561	27200	144754	27001	1043916	44055	110611	0	0	8382	385038	0	0
2024-07-11 03:17:47			0	42510	0	0	0	28555	27200	144794	26677	1043943	44066	110609	0	0	8381	385389	0	0
2024-07-11 03:18:47			0	42520	0	0	0	28561	27200	144842	26994	1043961	44054	110611	0	0	8382	385070	0	0
2024-07-11 03:19:47			0	42511	0	0	0	28558	27190	144814	26798	1043872	44054	110610	0	0	8381	385379	0	0
2024-07-11 03:20:47			0	42503	0	0	0	28555	27200	144650	26703	1043854	44077	110609	0	0	8381	385613	0	0
2024-07-11 03:21:47			0	42515	0	0	0	28555	27180	144714	26793	1043827	44064	110609	0	0	8381	385274	0	0
2024-07-11 03:22:47			0	42514	0	0	0	28545	27200	144658	26946	1043934	44065	110605	0	0	8382	385262	0	0
2024-07-11 03:23:47			0	42522	0	0	0	28524	27180	144710	27020	1043774	44053	110597	0	0	8382	385050	0	0
2024-07-11 03:24:47			0	42526	0	0	0	28514	27170	144642	26828	1043756	44041	110593	0	0	8383	384945	0	0
2024-07-11 03:25:47			0	42530	0	0	0	28498	27180	144766	27081	1043819	44041	110587	0	0	8383	384795	0	0
2024-07-11 03:26:47			0	42529	0	0	0	28490	27160	144650	27048	1043729	44062	110584	0	0	8383	384871	0	0
2024-07-11 03:27:47			0	42555	0	0	0	28485	27160	144578	27102	1043649	44050	110582	0	0	8385	384041	0	0
2024-07-11 03:28:47			0	42525	0	0	0	28490	27150	144694	27135	1043604	44062	110584	0	0	8383	385021	0	0
2024-07-11 03:29:47			0	42543	0	0	0	28480	27150	144690	27088	1043577	44062	110580	0	0	8384	384446	0	0
2024-07-11 03:30:47			0	42545	0	0	0	28475	27150	144718	26807	1043586	44062	110578	0	0	8384	384383	0	0
2024-07-11 03:31:47			0	42540	0	0	0	28475	27140	144646	27003	1043560	44048	110578	0	0	8384	384564	0	0
2024-07-11 03:32:47			0	42516	0	0	0	28475	27140	144678	26625	1043560	44048	110578	0	0	8383	385331	0	0
2024-07-11 03:33:47			0	42526	0	0	0	28475	27120	144746	27097	1043498	44058	110578	0	0	8383	385055	0	0
2024-07-11 03:34:47			0	42532	0	0	0	28470	27120	144738	27069	1043480	44047	110576	0	0	8384	384864	0	0
2024-07-11 03:35:47			0	42528	0	0	0	28462	27120	144762	26897	1043444	44058	110573	0	0	8384	384991	0	0
2024-07-11 03:36:47			0	42543	0	0	0	28454	27120	144710	27088	1043417	44046	110570	0	0	8385	384513	0	0
2024-07-11 03:37:47			0	42548	0	0	0	28451	27110	144674	27118	1043373	44035	110569	0	0	8385	384375	0	0
2024-07-11 03:38:47			0	42521	0	0	0	28451	27100	144730	26899	1043355	44056	110569	0	0	8383	385259	0	0
2024-07-11 03:39:47			0	42538	0	0	0	28446	27100	144594	27053	1043328	44056	110567	0	0	8384	384716	0	0
2024-07-11 03:40:47			0	42540	0	0	0	28436	27100	144742	26868	1043328	44045	110563	0	0	8385	384652	0	0
2024-07-11 03:41:47			0	42535	0	0	0	28438	27090	144726	26873	1043284	44055	110564	0	0	8384	384834	0	0
2024-07-11 03:42:47			0	42551	0	0	0	28428	27080	144758	26982	1043302	44044	110560	0	0	8385	384346	0	0
2024-07-11 03:43:47			0	42542	0	0	0	28415	27080	144694	26526	1043239	44065	110555	0	0	8385	384633	0	0
2024-07-11 03:44:47			0	42549	0	0	0	28420	27070	144750	27147	1043257	44042	110557	0	0	8385	384431	0	0
2024-07-11 03:45:47			0	42544	0	0	0	28407	27070	144822	26882	1043249	44042	110552	0	0	8385	384591	0	0
2024-07-11 03:46:47			0	42559	0	0	0	28415	27070	144810	26928	1043257	44064	110555	0	0	8386	384112	0	0
2024-07-11 03:47:47			0	42548	0	0	0	28418	27070	144758	26831	1043222	44042	110556	0	0	8385	384463	0	0
2024-07-11 03:48:47			0	42545	0	0	0	28412	27060	144674	26852	1043159	44052	110554	0	0	8385	384581	0	0
2024-07-11 03:49:47			0	42537	0	0	0	28405	27050	144830	26618	1043169	44051	110551	0	0	8385	384859	0	0
2024-07-11 03:50:47			0	42541	0	0	0	28397	27050	144786	26890	1043142	44051	110548	0	0	8385	384731	0	0
2024-07-11 03:51:47			0	42555	0	0	0	28392	27040	144674	26791	1043124	44050	110546	0	0	8386	384306	0	0
2024-07-11 03:52:47			0	42551	0	0	0	28381	27040	144730	26897	1042981	44050	110542	0	0	8386	384434	0	0
2024-07-11 03:53:47			0	42560	0	0	0	28381	27030	144802	27039	1043079	44061	110542	0	0	8386	384168	0	0
2024-07-11 03:54:47			0	42569	0	0	0	28366	27030	144718	27007	1042963	44048	110536	0	0	8387	383881	0	0
2024-07-11 03:55:47			0	42581	0	0	0	28363	27030	144758	26854	1042936	44048	110535	0	0	8388	383498	0	0
2024-07-11 03:56:47			0	42562	0	0	0	28358	27010	144842	27010	1042883	44047	110533	0	0	8387	384149	0	0
2024-07-11 03:57:47			0	42565	0	0	0	28345	27010	144682	26733	1042910	44037	110528	0	0	8387	384053	0	0
2024-07-11 03:58:47			0	42552	0	0	0	28353	27010	144758	26632	1042901	44036	110531	0	0	8386	384468	0	0
2024-07-11 03:59:47			0	42559	0	0	0	28345	27020	144690	26840	1042892	44027	110528	0	0	8387	384223	0	0
2024-07-11 04:00:47			0	42582	0	0	0	28353	27000	144650	26920	1042856	44035	110531	0	0	8388	383533	0	0
2024-07-11 04:01:47			0	42574	0	0	0	28350	27000	144718	27161	1042829	44068	110530	0	0	8388	383788	0	0
2024-07-11 04:02:47			0	42574	0	0	0	28342	26990	144774	27182	1042794	44057	110527	0	0	8388	383810	0	0
2024-07-11 04:03:47			0	42570	0	0	0	28342	26980	144758	27180	1042830	44056	110527	0	0	8388	383960	0	0
2024-07-11 04:04:47			0	42543	0	0	0	28337	26990	144702	27194	1042785	44034	110525	0	0	8386	384800	0	0
2024-07-11 04:05:47			0	42553	0	0	0	28332	26980	144710	27156	1042741	44033	110523	0	0	8387	384502	0	0
2024-07-11 04:06:47			0	42554	0	0	0	28337	26970	144790	27100	1042786	44044	110525	0	0	8387	384492	0	0
2024-07-11 04:07:47			0	42553	0	0	0	28335	26980	144734	27242	1042794	44044	110524	0	0	8387	384502	0	0
2024-07-11 04:08:47			0	42569	0	0	0	28340	26970	144774	27315	1042759	44044	110526	0	0	8387	384013	0	0
2024-07-11 04:09:47			0	42559	0	0	0	28337	26960	144702	27144	1042714	44043	110525	0	0	8387	384355	0	0
2024-07-11 04:10:47			0	42555	0	0	0	28335	26960	144738	27133	1042732	44042	110524	0	0	8387	384482	0	0
2024-07-11 04:11:47			0	42561	0	0	0	28332	26970	144766	27102	1042750	44054	110523	0	0	8387	384269	0	0
2024-07-11 04:12:47			0	42549	0	0	0	28332	26970	144766	27026	1042777	44054	110523	0	0	8386	384652	0	0
2024-07-11 04:13:47			0	42538	0	0	0	28337	26960	144778	27166	1042732	44042	110525	0	0	8386	385025	0	0
2024-07-11 04:14:47			0	42548	0	0	0	28327	26960	144838	27064	1042714	44054	110521	0	0	8386	384706	0	0
2024-07-11 04:15:47			0	42551	0	0	0	28322	26960	144742	26769	1042660	44043	110519	0	0	8387	384610	0	0
2024-07-11 04:16:47			0	42546	0	0	0	28316	26950	144794	26932	1042661	44041	110517	0	0	8386	384792	0	0
2024-07-11 04:17:47			0	42560	0	0	0	28324	26950	144846	26790	1042589	44042	110520	0	0	8387	384345	0	0
2024-07-11 04:18:47			0	42543	0	0	0	28311	26930	144878	26946	1042643	44041	110515	0	0	8386	384932	0	0
2024-07-11 04:19:47			0	42548	0	0	0	28303	26950	144750	27066	1042589	44053	110512	0	0	8387	384728	0	0
2024-07-11 04:20:47			0	42546	0	0	0	28303	26950	144870	27242	1042607	44052	110512	0	0	8387	384792	0	0
2024-07-11 04:21:47			0	42546	0	0	0	28306	26930	144814	26960	1042563	44041	110513	0	0	8387	384836	0	0
2024-07-11 04:22:47			0	42550	0	0	0	28311	26930	144834	27102	1042563	44051	110515	0	0	8387	384708	0	0
2024-07-11 04:23:47			0	42535	0	0	0	28296	26930	144782	27024	1042563	44051	110509	0	0	8386	385188	0	0
2024-07-11 04:24:47			0	42563	0	0	0	28296	26930	144754	27133	1042590	44041	110509	0	0	8388	384293	0	0
2024-07-11 04:25:47			0	42554	0	0	0	28288	26930	144862	26882	1042581	44040	110506	0	0	8387	384580	0	0
2024-07-11 04:26:47			0	42564	0	0	0	28290	26930	144826	27085	1042527	44040	110507	0	0	8388	384261	0	0
2024-07-11 04:27:47			0	42557	0	0	0	28296	26930	144850	26989	1042447	44050	110509	0	0	8387	384485	0	0
2024-07-11 04:28:47			0	42557	0	0	0	28293	26920	144786	27157	1042572	44050	110508	0	0	8387	384507	0	0
2024-07-11 04:29:47			0	42548	0	0	0	28306	26930	144822	27024	1042581	44029	110513	0	0	8387	384772	0	0
2024-07-11 04:30:47			0	42572	0	0	0	28298	26910	144814	26896	1042528	44028	110510	0	0	8388	384050	0	0
2024-07-11 04:31:47			0	42560	0	0	0	28303	26920	144790	26953	1042545	44040	110512	0	0	8387	384411	0	0
2024-07-11 04:32:47			0	42564	0	0	0	28298	26910	144778	26953	1042555	44049	110510	0	0	8388	384305	0	0
2024-07-11 04:33:47			0	42555	0	0	0	28296	26910	144818	26679	1042474	44049	110509	0	0	8387	384593	0	0
2024-07-11 04:34:47			0	42572	0	0	0	28296	26920	144818	27192	1042563	44039	110509	0	0	8388	384028	0	0
2024-07-11 04:35:47			0	42572	0	0	0	28298	26910	144830	26941	1042545	44060	110510	0	0	8388	384050	0	0
2024-07-11 04:36:47			0	42555	0	0	0	28303	26900	144762	27133	1042420	44047	110512	0	0	8387	384615	0	0
2024-07-11 04:37:47			0	42574	0	0	0	28301	26910	144830	26847	1042572	44038	110511	0	0	8388	383986	0	0
2024-07-11 04:38:47			0	42576	0	0	0	28301	26910	144742	27081	1042492	44048	110511	0	0	8388	383922	0	0
2024-07-11 04:39:47			0	42559	0	0	0	28301	26900	144838	26753	1042456	44038	110511	0	0	8387	384487	0	0
2024-07-11 04:40:47			0	42584	0	0	0	28296	26910	144802	26883	1042411	44027	110509	0	0	8389	383667	0	0
2024-07-11 04:41:47			0	42576	0	0	0	28303	26910	144690	26956	1042519	44048	110512	0	0	8388	383922	0	0
2024-07-11 04:42:47			0	42578	0	0	0	28301	26900	144750	26790	1042420	44047	110511	0	0	8388	383880	0	0
2024-07-11 04:43:47			0	42579	0	0	0	28298	26910	144802	26948	1042492	44038	110510	0	0	8389	383826	0	0
2024-07-11 04:44:47			0	42597	0	0	0	28298	26910	144774	26779	1042492	44060	110510	0	0	8390	383252	0	0
2024-07-11 04:45:47			0	42587	0	0	0	28293	26900	144806	26986	1042447	44037	110508	0	0	8389	383593	0	0
2024-07-11 04:46:47			0	42592	0	0	0	28296	26900	144674	27039	1042456	44038	110509	0	0	8389	383434	0	0
2024-07-11 04:47:47			0	42582	0	0	0	28293	26900	144738	26951	1042483	44038	110508	0	0	8389	383753	0	0
2024-07-11 04:48:47			0	42592	0	0	0	28290	26900	144794	26993	1042510	44048	110507	0	0	8389	383434	0	0
2024-07-11 04:49:47			0	42613	0	0	0	28293	26900	144806	26648	1042429	44048	110508	0	0	8391	382764	0	0
2024-07-11 04:50:47			0	42606	0	0	0	28298	26900	144746	26720	1042456	44038	110510	0	0	8390	382987	0	0
2024-07-11 04:51:47			0	42618	0	0	0	28290	26900	144694	26823	1042456	44027	110507	0	0	8391	382605	0	0
2024-07-11 04:52:47			0	42621	0	0	0	28298	26900	144642	27131	1042447	44047	110510	0	0	8391	382509	0	0
2024-07-11 04:53:47			0	42621	0	0	0	28290	26890	144754	26927	1042376	44046	110507	0	0	8391	382531	0	0
2024-07-11 04:54:47			0	42611	0	0	0	28293	26900	144734	26974	1042447	44047	110508	0	0	8390	382828	0	0
2024-07-11 04:55:47			0	42617	0	0	0	28285	26900	144726	26870	1042447	44037	110505	0	0	8391	382637	0	0
2024-07-11 04:56:47			0	42629	0	0	0	28283	26890	144670	27246	1042412	44047	110504	0	0	8392	382276	0	0
2024-07-11 04:57:47			0	42625	0	0	0	28272	26900	144590	27159	1042456	44038	110500	0	0	8392	382382	0	0
2024-07-11 04:58:47			0	42609	0	0	0	28277	26890	144662	26972	1042430	44036	110502	0	0	8391	382913	0	0
2024-07-11 04:59:47			0	42604	0	0	0	28275	26890	144626	26918	1042349	44046	110501	0	0	8390	383073	0	0
2024-07-11 05:00:47			0	42627	0	0	0	28280	26880	144690	26922	1042340	44035	110503	0	0	8392	382362	0	0
2024-07-11 05:01:47			0	42621	0	0	0	28272	26880	144698	26958	1042340	44024	110500	0	0	8391	382553	0	0
2024-07-11 05:02:47			0	42632	0	0	0	28267	26870	144746	26897	1042377	44035	110498	0	0	8392	382224	0	0
2024-07-11 05:03:47			0	42634	0	0	0	28267	26870	144790	26911	1042377	44046	110498	0	0	8392	382161	0	0
2024-07-11 05:04:47			0	42633	0	0	0	28270	26860	144646	26949	1042413	44055	110499	0	0	8392	382214	0	0
2024-07-11 05:05:47			0	42633	0	0	0	28267	26870	144630	27123	1042296	44035	110498	0	0	8392	382193	0	0
2024-07-11 05:06:47			0	42639	0	0	0	28264	26880	144658	27154	1042358	44035	110497	0	0	8392	381980	0	0
2024-07-11 05:07:47			0	42639	0	0	0	28267	26870	144666	27074	1042395	44056	110498	0	0	8392	382001	0	0
2024-07-11 05:08:47			0	42632	0	0	0	28264	26870	144622	26970	1042287	44034	110497	0	0	8392	382224	0	0
2024-07-11 05:09:47			0	42623	0	0	0	28251	26870	144762	27043	1042296	44046	110492	0	0	8392	382511	0	0
2024-07-11 05:10:47			0	42642	0	0	0	28251	26870	144642	27069	1042233	44045	110492	0	0	8393	381906	0	0
2024-07-11 05:11:47			0	42625	0	0	0	28246	26860	144634	27079	1042278	44033	110490	0	0	8392	382469	0	0
2024-07-11 05:12:47			0	42623	0	0	0	28244	26850	144678	27085	1042180	44044	110489	0	0	8392	382555	0	0
2024-07-11 05:13:47			0	42640	0	0	0	28233	26860	144746	26748	1042252	44022	110485	0	0	8393	381991	0	0
2024-07-11 05:14:47			0	42629	0	0	0	28238	26850	144698	26928	1042252	44054	110487	0	0	8392	382364	0	0
2024-07-11 05:15:47			0	42635	0	0	0	28225	26850	144674	27255	1042261	44044	110482	0	0	8393	382173	0	0
2024-07-11 05:16:47			0	42635	0	0	0	28233	26840	144758	26920	1042208	44042	110485	0	0	8393	382195	0	0
2024-07-11 05:17:47			0	42635	0	0	0	28220	26850	144690	27171	1042171	44043	110480	0	0	8393	382173	0	0
2024-07-11 05:18:47			0	42632	0	0	0	28223	26840	144794	26915	1042082	44031	110481	0	0	8393	382290	0	0
2024-07-11 05:19:47			0	42645	0	0	0	28225	26840	144758	27085	1042154	44020	110482	0	0	8393	381876	0	0
2024-07-11 05:20:47			0	42627	0	0	0	28212	26830	144734	27282	1042118	44041	110477	0	0	8392	382471	0	0
2024-07-11 05:21:47			0	42614	0	0	0	28218	26830	144738	26700	1042118	44041	110479	0	0	8392	382886	0	0
2024-07-11 05:22:47			0	42642	0	0	0	28212	26830	144786	27211	1042091	44030	110477	0	0	8393	381993	0	0
2024-07-11 05:23:47			0	42630	0	0	0	28215	26820	144846	26982	1042065	44040	110478	0	0	8393	382398	0	0
2024-07-11 05:24:47			0	42637	0	0	0	28202	26830	144822	27055	1042056	44041	110473	0	0	8393	382153	0	0
2024-07-11 05:25:47			0	42630	0	0	0	28197	26820	144786	27000	1042074	44041	110471	0	0	8393	382398	0	0
2024-07-11 05:26:47			0	42671	0	0	0	28199	26820	144678	27168	1041958	44040	110472	0	0	8395	381092	0	0
2024-07-11 05:27:47			0	42647	0	0	0	28192	26820	144746	27076	1042038	44040	110469	0	0	8394	381856	0	0
2024-07-11 05:28:47			0	42647	0	0	0	28194	26810	144746	26937	1042003	44028	110470	0	0	8394	381878	0	0
2024-07-11 05:29:47			0	42639	0	0	0	28192	26810	144762	26974	1042083	44017	110469	0	0	8393	382133	0	0
2024-07-11 05:30:47			0	42635	0	0	0	28197	26810	144690	27069	1041967	44028	110471	0	0	8393	382260	0	0
2024-07-11 05:31:47			0	42636	0	0	0	28202	26800	144694	26906	1041985	44049	110473	0	0	8393	382250	0	0
2024-07-11 05:32:47			0	42660	0	0	0	28194	26800	144690	26823	1042066	44039	110470	0	0	8395	381486	0	0
2024-07-11 05:33:47			0	42634	0	0	0	28194	26810	144682	26963	1042029	44040	110470	0	0	8393	382292	0	0
2024-07-11 05:34:47			0	42652	0	0	0	28199	26800	144674	27119	1041985	44028	110472	0	0	8394	381741	0	0
2024-07-11 05:35:47			0	42641	0	0	0	28189	26800	144646	27119	1042012	44016	110468	0	0	8394	382091	0	0
2024-07-11 05:36:47			0	42655	0	0	0	28189	26810	144778	26864	1041940	44050	110468	0	0	8394	381623	0	0
2024-07-11 05:37:47			0	42663	0	0	0	28184	26800	144634	27364	1041976	44038	110466	0	0	8395	381390	0	0
2024-07-11 05:38:47			0	42659	0	0	0	28181	26800	144694	27168	1041958	44049	110465	0	0	8395	381518	0	0
2024-07-11 05:39:47			0	42666	0	0	0	28179	26790	144634	27053	1041968	44048	110464	0	0	8395	381317	0	0
2024-07-11 05:40:47			0	42685	0	0	0	28171	26790	144678	27001	1041887	44038	110461	0	0	8396	380712	0	0
2024-07-11 05:41:47			0	42667	0	0	0	28166	26790	144646	27137	1041941	44038	110459	0	0	8395	381285	0	0
2024-07-11 05:42:47			0	42672	0	0	0	28158	26790	144722	27156	1041878	44038	110456	0	0	8396	381126	0	0
2024-07-11 05:43:47			0	42678	0	0	0	28161	26780	144602	26842	1041842	44026	110457	0	0	8396	380957	0	0
2024-07-11 05:44:47			0	42683	0	0	0	28150	26780	144626	27128	1041842	44026	110453	0	0	8397	380798	0	0
2024-07-11 05:45:47			0	42690	0	0	0	28158	26780	144698	27145	1041833	44036	110456	0	0	8397	380575	0	0
2024-07-11 05:46:47			0	42696	0	0	0	28148	26780	144590	27020	1041842	44037	110452	0	0	8397	380384	0	0
2024-07-11 05:47:47			0	42704	0	0	0	28142	26760	144570	27140	1041753	44035	110450	0	0	8398	380174	0	0
2024-07-11 05:48:47			0	42720	0	0	0	28148	26770	144606	26915	1041762	44036	110452	0	0	8399	379643	0	0
2024-07-11 05:49:47			0	42693	0	0	0	28145	26760	144634	27003	1041726	44046	110451	0	0	8397	380523	0	0
2024-07-11 05:50:47			0	42714	0	0	0	28142	26770	144550	27041	1041789	44036	110450	0	0	8399	379834	0	0
2024-07-11 05:51:47			0	42698	0	0	0	28148	26760	144550	26967	1041745	44023	110452	0	0	8397	380364	0	0
2024-07-11 05:52:47			0	42718	0	0	0	28142	26760	144490	26965	1041771	44023	110450	0	0	8399	379729	0	0
2024-07-11 05:53:47			0	42719	0	0	0	28132	26750	144490	26897	1041736	44055	110446	0	0	8399	379718	0	0
2024-07-11 05:54:47			0	42726	0	0	0	28135	26750	144447	26970	1041682	44033	110447	0	0	8399	379496	0	0
2024-07-11 05:55:47			0	42715	0	0	0	28129	26750	144442	27123	1041673	44044	110445	0	0	8399	379846	0	0
2024-07-11 05:56:47			0	42747	0	0	0	28129	26750	144531	27138	1041700	44033	110445	0	0	8401	378829	0	0
2024-07-11 05:57:47			0	42732	0	0	0	28122	26740	144391	27137	1041638	44022	110442	0	0	8400	379327	0	0
2024-07-11 05:58:47			0	42745	0	0	0	28119	26730	144359	26698	1041620	44020	110441	0	0	8401	378936	0	0
2024-07-11 05:59:47			0	42760	0	0	0	28111	26730	144379	27062	1041585	44031	110438	0	0	8402	378460	0	0
2024-07-11 06:00:47			0	42756	0	0	0	28122	26740	144483	26840	1041602	44032	110442	0	0	8401	378565	0	0
2024-07-11 06:01:47			0	42759	0	0	0	28119	26730	144359	26935	1041647	44020	110441	0	0	8401	378492	0	0
2024-07-11 06:02:47			0	42763	0	0	0	28119	26730	144371	27026	1041638	44042	110441	0	0	8402	378365	0	0
2024-07-11 06:03:47			0	42747	0	0	0	28109	26730	144387	26892	1041585	44031	110437	0	0	8401	378873	0	0
2024-07-11 06:04:47			0	42755	0	0	0	28111	26730	144431	27076	1041692	44031	110438	0	0	8401	378619	0	0
2024-07-11 06:05:47			0	42770	0	0	0	28116	26730	144371	26871	1041585	44031	110440	0	0	8402	378143	0	0
2024-07-11 06:06:47			0	42765	0	0	0	28114	26740	144407	27026	1041656	44032	110439	0	0	8402	378280	0	0
2024-07-11 06:07:47			0	42769	0	0	0	28114	26720	144395	26736	1041603	44042	110439	0	0	8402	378196	0	0
2024-07-11 06:08:47			0	42752	0	0	0	28122	26730	144459	26902	1041585	44031	110442	0	0	8401	378714	0	0
2024-07-11 06:09:47			0	42747	0	0	0	28116	26730	144447	27126	1041611	44042	110440	0	0	8401	378873	0	0
2024-07-11 06:10:47			0	42738	0	0	0	28119	26720	144487	27026	1041648	44041	110441	0	0	8400	379180	0	0
2024-07-11 06:11:47			0	42763	0	0	0	28111	26720	144419	27182	1041576	44042	110438	0	0	8402	378387	0	0
2024-07-11 06:12:47			0	42754	0	0	0	28109	26720	144459	27144	1041576	44031	110437	0	0	8401	378672	0	0
2024-07-11 06:13:47			0	42738	0	0	0	28109	26720	144455	27067	1041629	44031	110437	0	0	8400	379180	0	0
2024-07-11 06:14:47			0	42746	0	0	0	28116	26720	144475	27194	1041576	44042	110440	0	0	8401	378926	0	0
2024-07-11 06:15:47			0	42739	0	0	0	28114	26720	144463	27107	1041603	44042	110439	0	0	8400	379149	0	0
2024-07-11 06:16:47			0	42721	0	0	0	28114	26720	144511	27237	1041603	44053	110439	0	0	8399	379720	0	0
2024-07-11 06:17:47			0	42715	0	0	0	28116	26720	144566	27052	1041629	44042	110440	0	0	8399	379911	0	0
2024-07-11 06:18:47			0	42710	0	0	0	28122	26720	144634	27242	1041567	44041	110442	0	0	8398	380070	0	0
2024-07-11 06:19:47			0	42673	0	0	0	28122	26710	144618	26946	1041630	44041	110442	0	0	8396	381269	0	0
2024-07-11 06:20:47			0	42677	0	0	0	28132	26730	144730	27079	1041746	44042	110446	0	0	8396	381098	0	0
2024-07-11 06:21:47			0	42663	0	0	0	28122	26720	144882	27081	1041656	44053	110442	0	0	8396	381565	0	0
2024-07-11 06:22:47			0	42673	0	0	0	28132	26730	144766	26908	1041611	44042	110446	0	0	8396	381225	0	0
2024-07-11 06:23:47			0	42655	0	0	0	28137	26720	144670	27305	1041648	44041	110448	0	0	8395	381820	0	0
2024-07-11 06:24:47			0	42634	0	0	0	28145	26730	144762	26776	1041692	44031	110451	0	0	8394	382467	0	0
2024-07-11 06:25:47			0	42625	0	0	0	28145	26730	144750	26880	1041692	44053	110451	0	0	8393	382754	0	0
2024-07-11 06:26:47			0	42608	0	0	0	28150	26750	144818	27157	1041727	44055	110453	0	0	8392	383252	0	0
2024-07-11 06:27:47			0	42605	0	0	0	28142	26740	144750	27066	1041763	44032	110450	0	0	8392	383370	0	0
2024-07-11 06:28:47			0	42611	0	0	0	28148	26730	144810	27204	1041719	44042	110452	0	0	8392	383201	0	0
2024-07-11 06:29:47			0	42608	0	0	0	28148	26740	144878	27100	1041718	44044	110452	0	0	8392	383274	0	0
2024-07-11 06:30:47			0	42592	0	0	0	28148	26740	144878	27034	1041736	44032	110452	0	0	8391	383785	0	0
2024-07-11 06:31:47			0	42570	0	0	0	28142	26740	144958	27114	1041710	44032	110450	0	0	8390	384488	0	0
2024-07-11 06:32:47			0	42583	0	0	0	28153	26740	144922	27218	1041718	44033	110454	0	0	8390	384073	0	0
2024-07-11 06:33:47			0	42581	0	0	0	28155	26740	144914	26786	1041710	44054	110455	0	0	8390	384136	0	0
2024-07-11 06:34:47			0	42573	0	0	0	28132	26740	144978	27017	1041718	44044	110446	0	0	8390	384392	0	0
2024-07-11 06:35:47			0	42542	0	0	0	28111	26740	145006	27201	1041691	44022	110438	0	0	8389	385383	0	0
2024-07-11 06:36:47			0	42559	0	0	0	28083	26740	144966	27183	1041548	44021	110427	0	0	8390	384840	0	0
2024-07-11 06:37:47			0	42533	0	0	0	28075	26720	144958	27258	1041495	44031	110424	0	0	8389	385715	0	0
2024-07-11 06:38:47			0	42539	0	0	0	28070	26720	145010	27196	1041486	43997	110422	0	0	8389	385523	0	0
2024-07-11 06:39:47			0	42533	0	0	0	28075	26700	145114	27118	1041487	44029	110424	0	0	8389	385759	0	0
2024-07-11 06:40:47			0	42519	0	0	0	28080	26700	145150	27495	1041514	44051	110426	0	0	8388	386208	0	0
2024-07-11 06:41:47			0	42516	0	0	0	28054	26700	145106	27464	1041487	44029	110416	0	0	8388	386304	0	0
2024-07-11 06:42:47			0	42505	0	0	0	28059	26690	145154	27313	1041496	44039	110418	0	0	8387	386678	0	0
2024-07-11 06:43:47			0	42506	0	0	0	28062	26700	145238	27479	1041460	44029	110419	0	0	8387	386624	0	0
2024-07-11 06:44:47			0	42502	0	0	0	28067	26690	145110	27519	1041389	44016	110421	0	0	8387	386774	0	0
2024-07-11 06:45:47			0	42492	0	0	0	28059	26700	145194	27180	1041451	44028	110418	0	0	8387	387073	0	0
2024-07-11 06:46:47			0	42490	0	0	0	28044	26700	145190	27531	1041478	44050	110412	0	0	8387	387137	0	0
2024-07-11 06:47:47			0	42485	0	0	0	28059	26690	145222	27107	1041407	44015	110418	0	0	8386	387319	0	0
2024-07-11 06:48:47			0	42511	0	0	0	28057	26690	145278	27474	1041416	44039	110417	0	0	8388	386486	0	0
2024-07-11 06:49:47			0	42483	0	0	0	28059	26690	145246	27414	1041416	44049	110418	0	0	8386	387383	0	0
2024-07-11 06:50:47			0	42474	0	0	0	28072	26690	145262	27578	1041496	44028	110423	0	0	8385	387672	0	0
2024-07-11 06:51:47			0	42480	0	0	0	28080	26690	145330	27194	1041434	44027	110426	0	0	8385	387479	0	0
2024-07-11 06:52:47			0	42457	0	0	0	28075	26680	145282	27412	1041506	44027	110424	0	0	8384	388240	0	0
2024-07-11 06:53:47			0	42478	0	0	0	28083	26690	145362	27549	1041523	44028	110427	0	0	8385	387544	0	0
2024-07-11 06:54:47			0	42459	0	0	0	28077	26690	145350	27493	1041461	44038	110425	0	0	8384	388153	0	0
2024-07-11 06:55:47			0	42468	0	0	0	28088	26680	145326	27509	1041398	44027	110429	0	0	8385	387887	0	0
2024-07-11 06:56:47			0	42476	0	0	0	28098	26690	145370	27497	1041443	44039	110433	0	0	8385	387608	0	0
2024-07-11 06:57:47			0	42458	0	0	0	28093	26700	145350	27932	1041505	44050	110431	0	0	8384	388163	0	0
2024-07-11 06:58:47			0	42455	0	0	0	28106	26690	145366	28279	1041541	44027	110436	0	0	8384	388282	0	0
2024-07-11 06:59:47			0	42449	0	0	0	28111	26690	145426	27474	1041568	44027	110438	0	0	8383	388474	0	0
2024-07-11 07:00:47			0	42449	0	0	0	28103	26700	145374	27670	1041532	44040	110435	0	0	8383	388452	0	0
2024-07-11 07:01:47			0	42442	0	0	0	28109	26700	145422	28603	1041612	44040	110437	0	0	8383	388677	0	0
2024-07-11 07:02:47			0	42447	0	0	0	28106	26700	145338	28034	1041532	44028	110436	0	0	8383	388516	0	0
2024-07-11 07:03:47			0	42422	0	0	0	28114	26700	145390	27502	1041621	44051	110439	0	0	8382	389320	0	0
2024-07-11 07:04:47			0	42436	0	0	0	28124	26700	145418	27737	1041621	44051	110443	0	0	8382	388870	0	0
2024-07-11 07:05:47			0	42427	0	0	0	28098	26700	145530	27497	1041594	44029	110433	0	0	8382	389159	0	0
2024-07-11 07:06:47			0	42428	0	0	0	28088	26700	145454	27857	1041568	44041	110429	0	0	8382	389127	0	0
2024-07-11 07:07:47			0	42434	0	0	0	28101	26700	145478	27431	1041532	44017	110434	0	0	8382	388934	0	0
2024-07-11 07:08:47			0	42420	0	0	0	28096	26700	145430	27514	1041541	44029	110432	0	0	8382	389384	0	0
2024-07-11 07:09:47			0	42407	0	0	0	28101	26700	145402	27949	1041568	44029	110434	0	0	8381	389802	0	0
2024-07-11 07:10:47			0	42426	0	0	0	28103	26700	145510	27319	1041594	44041	110435	0	0	8382	389191	0	0
2024-07-11 07:11:47			0	42400	0	0	0	28103	26700	145490	27791	1041586	44028	110435	0	0	8380	390027	0	0
2024-07-11 07:12:47			0	42399	0	0	0	28109	26710	145490	27592	1041657	44029	110437	0	0	8380	390037	0	0
2024-07-11 07:13:47			0	42402	0	0	0	28096	26710	145534	27637	1041576	44041	110432	0	0	8381	389940	0	0
2024-07-11 07:14:47			0	42399	0	0	0	28096	26700	145490	27713	1041514	44029	110432	0	0	8380	390059	0	0
2024-07-11 07:15:47			0	42398	0	0	0	28085	26710	145562	27611	1041549	44029	110428	0	0	8381	390069	0	0
2024-07-11 07:16:47			0	42382	0	0	0	28085	26710	145574	27367	1041576	44029	110428	0	0	8380	390584	0	0
2024-07-11 07:17:47			0	42390	0	0	0	28088	26700	145650	27457	1041568	44041	110429	0	0	8380	390349	0	0
2024-07-11 07:18:47			0	42385	0	0	0	28085	26700	145546	27521	1041559	44040	110428	0	0	8380	390510	0	0
2024-07-11 07:19:47			0	42388	0	0	0	28090	26700	145554	27367	1041568	44029	110430	0	0	8380	390413	0	0
2024-07-11 07:20:47			0	42388	0	0	0	28093	26700	145622	27540	1041478	44017	110431	0	0	8380	390413	0	0
2024-07-11 07:21:47			0	42371	0	0	0	28080	26710	145542	27724	1041558	44051	110426	0	0	8379	390938	0	0
2024-07-11 07:22:47			0	42367	0	0	0	28080	26700	145670	27959	1041487	44018	110426	0	0	8379	391089	0	0
2024-07-11 07:23:47			0	42356	0	0	0	28057	26700	145642	27526	1041460	44041	110417	0	0	8379	391444	0	0
2024-07-11 07:24:47			0	42361	0	0	0	28070	26690	145638	27441	1041469	44039	110422	0	0	8379	391305	0	0
2024-07-11 07:25:47			0	42365	0	0	0	28075	26690	145686	27611	1041469	44049	110424	0	0	8379	391176	0	0
2024-07-11 07:26:47			0	42337	0	0	0	28083	26690	145626	28020	1041469	44028	110427	0	0	8377	392078	0	0
2024-07-11 07:27:47			0	42337	0	0	0	28077	26690	145650	27604	1041469	44028	110425	0	0	8377	392078	0	0
2024-07-11 07:28:47			0	42344	0	0	0	28083	26690	145770	27985	1041514	44038	110427	0	0	8377	391853	0	0
2024-07-11 07:29:47			0	42347	0	0	0	28090	26690	145738	27757	1041523	44039	110430	0	0	8377	391756	0	0
2024-07-11 07:30:47			0	42311	0	0	0	28096	26690	145842	28383	1041523	44061	110432	0	0	8375	392917	0	0
2024-07-11 07:31:47			0	42335	0	0	0	28093	26690	145838	27680	1041487	44038	110431	0	0	8377	392143	0	0
2024-07-11 07:32:47			0	42308	0	0	0	28098	26700	145770	27911	1041594	44051	110433	0	0	8375	392992	0	0
2024-07-11 07:33:47			0	42292	0	0	0	28096	26700	145862	27906	1041568	44029	110432	0	0	8374	393508	0	0
2024-07-11 07:34:47			0	42291	0	0	0	28103	26700	145838	27698	1041586	44040	110435	0	0	8374	393541	0	0
2024-07-11 07:35:47			0	42319	0	0	0	28090	26700	145918	27580	1041594	44041	110430	0	0	8376	392637	0	0
2024-07-11 07:36:47			0	42310	0	0	0	28098	26700	145822	27448	1041559	44040	110433	0	0	8375	392927	0	0
2024-07-11 07:37:47			0	42301	0	0	0	28101	26700	145850	27973	1041621	44051	110434	0	0	8375	393218	0	0
2024-07-11 07:38:47			0	42285	0	0	0	28096	26710	145866	27781	1041585	44062	110432	0	0	8374	393712	0	0
2024-07-11 07:39:47			0	42296	0	0	0	28103	26720	145850	27970	1041621	44052	110435	0	0	8374	393334	0	0
2024-07-11 07:40:47			0	42278	0	0	0	28103	26710	145926	27918	1041630	44051	110435	0	0	8373	393938	0	0
2024-07-11 07:41:47			0	42280	0	0	0	28109	26710	145862	27587	1041639	44041	110437	0	0	8373	393874	0	0
2024-07-11 07:42:47			0	42271	0	0	0	28116	26710	145946	28024	1041639	44029	110440	0	0	8373	394164	0	0
2024-07-11 07:43:47			0	42276	0	0	0	28116	26720	145974	28140	1041701	44041	110440	0	0	8373	393980	0	0
2024-07-11 07:44:47			0	42262	0	0	0	28119	26710	145910	27644	1041666	44041	110441	0	0	8372	394455	0	0
2024-07-11 07:45:47			0	42241	0	0	0	28114	26710	145938	28090	1041666	44041	110439	0	0	8371	395135	0	0
2024-07-11 07:46:47			0	42267	0	0	0	28098	26720	145942	27757	1041674	44030	110433	0	0	8373	394271	0	0
2024-07-11 07:47:47			0	42260	0	0	0	28103	26720	146022	27786	1041629	44031	110435	0	0	8372	394498	0	0
2024-07-11 07:48:47			0	42248	0	0	0	28090	26720	145986	28395	1041656	44042	110430	0	0	8372	394886	0	0
2024-07-11 07:49:47			0	42255	0	0	0	28096	26720	145974	27668	1041621	44041	110432	0	0	8372	394659	0	0
2024-07-11 07:50:47			0	42231	0	0	0	28098	26700	145934	27663	1041621	44029	110433	0	0	8371	395481	0	0
2024-07-11 07:51:47			0	42245	0	0	0	28090	26710	146098	27623	1041630	44029	110430	0	0	8372	395005	0	0
2024-07-11 07:52:47			0	42228	0	0	0	28106	26710	146130	27691	1041630	44041	110436	0	0	8370	395556	0	0
2024-07-11 07:53:47			0	42238	0	0	0	28101	26710	146170	27507	1041549	44051	110434	0	0	8371	395232	0	0
2024-07-11 07:54:47			0	42222	0	0	0	28096	26720	146214	27777	1041648	44052	110432	0	0	8370	395727	0	0
2024-07-11 07:55:47			0	42235	0	0	0	28098	26710	146210	27883	1041612	44041	110433	0	0	8371	395329	0	0
2024-07-11 07:56:47			0	42220	0	0	0	28098	26720	146122	27763	1041621	44030	110433	0	0	8370	395792	0	0
2024-07-11 07:57:47			0	42215	0	0	0	28093	26710	146158	27873	1041603	44029	110431	0	0	8370	395976	0	0
2024-07-11 07:58:47			0	42208	0	0	0	28096	26710	146190	27944	1041585	44029	110432	0	0	8369	396203	0	0
2024-07-11 07:59:47			0	42210	0	0	0	28096	26710	146162	27848	1041576	44041	110432	0	0	8369	396139	0	0
2024-07-11 08:00:47			0	42203	0	0	0	28083	26710	146154	27562	1041585	44029	110427	0	0	8369	396365	0	0
2024-07-11 08:01:47			0	42215	0	0	0	28067	26710	146246	27512	1041585	44051	110421	0	0	8370	395976	0	0
2024-07-11 08:02:47			0	42203	0	0	0	28038	26700	146194	27807	1041514	44029	110410	0	0	8370	396388	0	0
2024-07-11 08:03:47			0	42221	0	0	0	28020	26700	146162	27500	1041460	44029	110403	0	0	8371	395805	0	0
2024-07-11 08:04:47			0	42209	0	0	0	28025	26690	146126	27810	1041434	44027	110405	0	0	8371	396216	0	0
2024-07-11 08:05:47			0	42201	0	0	0	28038	26690	146226	27685	1041416	44028	110410	0	0	8370	396476	0	0
2024-07-11 08:06:47			0	42192	0	0	0	28031	26690	146218	27545	1041380	44015	110407	0	0	8369	396767	0	0
2024-07-11 08:07:47			0	42209	0	0	0	28023	26690	146254	27720	1041380	44015	110404	0	0	8371	396216	0	0
2024-07-11 08:08:47			0	42185	0	0	0	28031	26680	146210	27639	1041363	44038	110407	0	0	8369	397017	0	0
2024-07-11 08:09:47			0	42195	0	0	0	28025	26670	146278	27920	1041372	44025	110405	0	0	8370	396716	0	0
2024-07-11 08:10:47			0	42186	0	0	0	28018	26660	146282	27829	1041309	44025	110402	0	0	8369	397030	0	0
2024-07-11 08:11:47			0	42183	0	0	0	28012	26660	146326	27777	1041300	44025	110400	0	0	8369	397128	0	0
2024-07-11 08:12:47			0	42185	0	0	0	28018	26650	146330	27812	1041265	44024	110402	0	0	8369	397085	0	0
2024-07-11 08:13:47			0	42174	0	0	0	28015	26650	146258	27956	1041238	44012	110401	0	0	8368	397442	0	0
2024-07-11 08:14:47			0	42163	0	0	0	28015	26660	146350	27895	1041247	44036	110401	0	0	8368	397777	0	0
2024-07-11 08:15:47			0	42189	0	0	0	28002	26640	146462	27961	1041220	44045	110396	0	0	8370	396978	0	0
2024-07-11 08:16:47			0	42174	0	0	0	28007	26650	146450	27932	1041318	44035	110398	0	0	8369	397442	0	0
2024-07-11 08:17:47			0	42173	0	0	0	28002	26650	146430	27523	1041184	44024	110396	0	0	8369	397475	0	0
2024-07-11 08:18:47			0	42175	0	0	0	28012	26630	146374	28057	1041238	44023	110400	0	0	8368	397455	0	0
2024-07-11 08:19:47			0	42164	0	0	0	28007	26640	146382	28358	1041247	44023	110398	0	0	8368	397790	0	0
2024-07-11 08:20:47			0	42190	0	0	0	27992	26630	146382	28039	1041131	44023	110392	0	0	8370	396969	0	0
2024-07-11 08:21:47			0	42172	0	0	0	27979	26630	146298	27845	1041185	44011	110387	0	0	8369	397553	0	0
2024-07-11 08:22:47			0	42171	0	0	0	27974	26630	146374	27890	1041185	44023	110385	0	0	8369	397585	0	0
2024-07-11 08:23:47			0	42175	0	0	0	27958	26630	146266	28710	1041122	44010	110379	0	0	8369	397455	0	0
2024-07-11 08:24:47			0	42177	0	0	0	27958	26610	146274	28034	1041033	43998	110379	0	0	8369	397436	0	0
2024-07-11 08:25:47			0	42183	0	0	0	27966	26610	146278	28072	1041042	44020	110382	0	0	8370	397241	0	0
2024-07-11 08:26:47			0	42157	0	0	0	27953	26610	146322	27386	1041123	44009	110377	0	0	8368	398085	0	0
2024-07-11 08:27:47			0	42192	0	0	0	27953	26610	146422	27864	1040872	44031	110377	0	0	8370	396949	0	0
2024-07-11 08:28:47			0	42177	0	0	0	27966	26600	146358	27925	1041043	44007	110382	0	0	8369	397459	0	0
2024-07-11 08:29:47			0	42172	0	0	0	27945	26600	146346	27699	1040971	44019	110374	0	0	8369	397621	0	0
2024-07-11 08:30:47			0	42172	0	0	0	27929	26590	146274	27346	1040971	44007	110368	0	0	8370	397644	0	0
2024-07-11 08:31:47			0	42176	0	0	0	27927	26590	146410	27194	1040891	44018	110367	0	0	8370	397514	0	0
2024-07-11 08:32:47			0	42178	0	0	0	27909	26580	146398	27241	1040793	44027	110360	0	0	8370	397472	0	0
2024-07-11 08:33:47			0	42188	0	0	0	27870	26570	146346	27208	1040802	44005	110345	0	0	8371	397170	0	0
2024-07-11 08:34:47			0	42186	0	0	0	27820	26560	146282	27171	1040713	44004	110326	0	0	8372	397257	0	0
2024-07-11 08:35:47			0	42194	0	0	0	27802	26540	146254	27111	1040570	44002	110319	0	0	8373	397043	0	0
2024-07-11 08:36:47			0	42170	0	0	0	27807	26530	146278	26955	1040526	43978	110321	0	0	8371	397845	0	0
2024-07-11 08:37:47			0	42182	0	0	0	27799	26530	146410	27251	1040517	43978	110318	0	0	8372	397456	0	0
2024-07-11 08:38:47			0	42205	0	0	0	27789	26510	146266	27507	1040410	43988	110314	0	0	8374	396754	0	0
2024-07-11 08:39:47			0	42170	0	0	0	27802	26500	146370	27338	1040419	43988	110319	0	0	8371	397914	0	0
2024-07-11 08:40:47			0	42176	0	0	0	27820	26490	146410	27486	1040402	43986	110326	0	0	8371	397741	0	0
2024-07-11 08:41:47			0	42178	0	0	0	27825	26490	146482	27241	1040429	43997	110328	0	0	8371	397676	0	0
2024-07-11 08:42:47			0	42176	0	0	0	27833	26490	146470	27284	1040420	44008	110331	0	0	8371	397741	0	0
2024-07-11 08:43:47			0	42178	0	0	0	27849	26490	146478	27142	1040420	44008	110337	0	0	8371	397676	0	0
2024-07-11 08:44:47			0	42192	0	0	0	27825	26480	146458	27024	1040384	44018	110328	0	0	8372	397244	0	0
2024-07-11 08:45:47			0	42195	0	0	0	27799	26480	146446	27319	1040429	44007	110318	0	0	8373	397147	0	0
2024-07-11 08:46:47			0	42181	0	0	0	27802	26480	146414	27258	1040331	44007	110319	0	0	8372	397602	0	0
2024-07-11 08:47:47			0	42195	0	0	0	27820	26480	146294	26819	1040438	44018	110326	0	0	8372	397147	0	0
2024-07-11 08:48:47			0	42180	0	0	0	27841	26490	146470	27142	1040527	44030	110334	0	0	8371	397611	0	0
2024-07-11 08:49:47			0	42208	0	0	0	27883	26480	146422	27218	1040599	44041	110350	0	0	8372	396725	0	0
2024-07-11 08:50:47			0	42193	0	0	0	27924	26500	146406	27064	1040715	44054	110366	0	0	8370	397167	0	0
2024-07-11 08:51:47			0	42180	0	0	0	27971	26510	146434	26863	1040866	44054	110384	0	0	8369	397566	0	0
2024-07-11 08:52:47			0	42165	0	0	0	27986	26530	146410	26772	1040920	44067	110390	0	0	8368	398008	0	0
2024-07-11 08:53:47			0	42184	0	0	0	27981	26550	146390	26705	1040901	44036	110388	0	0	8369	397345	0	0
2024-07-11 08:54:47			0	42173	0	0	0	27984	26560	146374	27322	1040946	44037	110389	0	0	8369	397680	0	0
2024-07-11 08:55:47			0	42187	0	0	0	27997	26570	146422	27177	1041017	44039	110394	0	0	8369	397202	0	0
2024-07-11 08:56:47			0	42199	0	0	0	27999	26570	146394	26901	1041106	44061	110395	0	0	8370	396813	0	0
2024-07-11 08:57:47			0	42197	0	0	0	28002	26580	146330	27100	1041169	44039	110396	0	0	8370	396855	0	0
2024-07-11 08:58:47			0	42196	0	0	0	28010	26590	146362	26726	1041186	44051	110399	0	0	8370	396865	0	0
2024-07-11 08:59:47			0	42176	0	0	0	28041	26600	146402	27026	1041258	44041	110411	0	0	8368	397491	0	0
2024-07-11 09:00:47			0	42195	0	0	0	28098	26610	146462	26868	1041418	44064	110433	0	0	8368	396852	0	0
2024-07-11 09:01:47			0	42192	0	0	0	28142	26630	146382	27315	1041498	44078	110450	0	0	8367	396904	0	0
2024-07-11 09:02:47			0	42176	0	0	0	28142	26660	146386	27324	1041623	44069	110450	0	0	8366	397355	0	0
2024-07-11 09:03:47			0	42179	0	0	0	28168	26680	146402	27189	1041739	44071	110460	0	0	8366	397212	0	0
2024-07-11 09:04:47			0	42176	0	0	0	28194	26690	146362	27377	1041819	44072	110470	0	0	8366	397286	0	0
2024-07-11 09:05:47			0	42171	0	0	0	28210	26720	146434	27019	1041916	44085	110476	0	0	8365	397380	0	0
2024-07-11 09:06:47			0	42147	0	0	0	28218	26740	146506	27097	1042005	44087	110479	0	0	8364	398114	0	0
2024-07-11 09:07:47			0	42139	0	0	0	28225	26750	146338	26998	1042058	44066	110482	0	0	8363	398351	0	0
2024-07-11 09:08:47			0	42139	0	0	0	28236	26760	146390	27119	1042067	44079	110486	0	0	8363	398328	0	0
2024-07-11 09:09:47			0	42146	0	0	0	28233	26780	146438	27351	1042138	44082	110485	0	0	8364	398055	0	0
2024-07-11 09:10:47			0	42150	0	0	0	28241	26780	146482	27003	1042102	44058	110488	0	0	8364	397925	0	0
2024-07-11 09:11:47			0	42117	0	0	0	28233	26800	146422	27031	1042227	44049	110485	0	0	8362	398952	0	0
2024-07-11 09:12:47			0	42111	0	0	0	28236	26810	146446	27081	1042262	44062	110486	0	0	8362	399124	0	0
2024-07-11 09:13:47			0	42123	0	0	0	28236	26810	146450	27027	1042262	44062	110486	0	0	8362	398734	0	0
2024-07-11 09:14:47			0	42102	0	0	0	28223	26810	146430	27235	1042191	44040	110481	0	0	8361	399416	0	0
2024-07-11 09:15:47			0	42101	0	0	0	28202	26810	146414	27019	1042218	44050	110473	0	0	8362	399449	0	0
2024-07-11 09:16:47			0	42093	0	0	0	28215	26820	146394	27227	1042235	44051	110478	0	0	8361	399686	0	0
2024-07-11 09:17:47			0	42089	0	0	0	28199	26820	146366	26788	1042226	44040	110472	0	0	8361	399816	0	0
2024-07-11 09:18:47			0	42092	0	0	0	28189	26820	146422	27248	1042173	44040	110468	0	0	8361	399719	0	0
2024-07-11 09:19:47			0	42086	0	0	0	28186	26820	146406	26885	1042173	44040	110467	0	0	8361	399914	0	0
2024-07-11 09:20:47			0	42098	0	0	0	28202	26830	146418	27223	1042217	44041	110473	0	0	8362	399501	0	0
2024-07-11 09:21:47			0	42081	0	0	0	28205	26830	146457	26989	1042226	44063	110474	0	0	8361	400054	0	0
2024-07-11 09:22:47			0	42063	0	0	0	28212	26840	146513	26854	1042270	44053	110477	0	0	8359	400617	0	0
2024-07-11 09:23:47			0	42076	0	0	0	28231	26840	146433	27029	1042324	44064	110484	0	0	8360	400194	0	0
2024-07-11 09:24:47			0	42071	0	0	0	28262	26850	146601	27041	1042476	44066	110496	0	0	8359	400333	0	0
2024-07-11 09:25:47			0	42062	0	0	0	28241	26860	146569	26857	1042592	44078	110488	0	0	8359	400603	0	0
2024-07-11 09:26:47			0	42063	0	0	0	28246	26890	146613	26738	1042618	44069	110490	0	0	8359	400502	0	0
2024-07-11 09:27:47			0	42073	0	0	0	28228	26890	146489	27033	1042510	44058	110483	0	0	8360	400176	0	0
2024-07-11 09:28:47			0	42048	0	0	0	28225	26900	146361	26857	1042617	44071	110482	0	0	8359	400967	0	0
2024-07-11 09:29:47			0	42064	0	0	0	28231	26900	146461	27029	1042609	44047	110484	0	0	8359	400447	0	0
2024-07-11 09:30:47			0	42060	0	0	0	28236	26900	146465	26878	1042617	44048	110486	0	0	8359	400577	0	0
2024-07-11 09:31:47			0	42086	0	0	0	28251	26910	146514	27230	1042626	44048	110492	0	0	8360	399708	0	0
2024-07-11 09:32:47			0	42061	0	0	0	28259	26910	146545	27204	1042635	44049	110495	0	0	8359	400521	0	0
2024-07-11 09:33:47			0	42049	0	0	0	28259	26910	146505	27338	1042626	44048	110495	0	0	8358	400912	0	0
2024-07-11 09:34:47			0	42067	0	0	0	28283	26910	146521	26979	1042689	44072	110504	0	0	8359	400326	0	0
2024-07-11 09:35:47			0	42066	0	0	0	28355	26920	146581	26982	1042814	44062	110532	0	0	8358	400335	0	0
2024-07-11 09:36:47			0	42048	0	0	0	28371	26940	146577	27507	1043002	44085	110538	0	0	8356	400876	0	0
2024-07-11 09:37:47			0	42044	0	0	0	28332	26960	146497	27249	1043055	44064	110523	0	0	8357	400960	0	0
2024-07-11 09:38:47			0	42053	0	0	0	28332	26970	146589	27083	1043054	44078	110523	0	0	8357	400644	0	0
2024-07-11 09:39:47			0	42041	0	0	0	28342	26970	146485	27012	1043045	44065	110527	0	0	8356	401035	0	0
2024-07-11 09:40:47			0	42054	0	0	0	28358	26980	146521	27313	1043072	44067	110533	0	0	8357	400588	0	0
2024-07-11 09:41:47			0	42041	0	0	0	28363	26980	146521	27409	1043072	44056	110535	0	0	8356	401012	0	0
2024-07-11 09:42:47			0	42038	0	0	0	28374	27000	146553	26868	1043134	44069	110539	0	0	8356	401063	0	0
2024-07-11 09:43:47			0	42051	0	0	0	28371	27010	146565	26790	1043169	44058	110538	0	0	8357	400617	0	0
2024-07-11 09:44:47			0	42034	0	0	0	28389	27010	146497	26970	1043205	44059	110545	0	0	8355	401170	0	0
2024-07-11 09:45:47			0	42048	0	0	0	28381	27020	146589	27199	1043241	44071	110542	0	0	8356	400692	0	0
2024-07-11 09:46:47			0	42045	0	0	0	28397	27020	146521	27000	1043295	44071	110548	0	0	8356	400789	0	0
2024-07-11 09:47:47			0	42031	0	0	0	28431	27040	146445	27284	1043357	44073	110561	0	0	8355	401199	0	0
2024-07-11 09:48:47			0	42048	0	0	0	28371	27040	146493	27145	1043393	44083	110538	0	0	8357	400646	0	0
2024-07-11 09:49:47			0	42038	0	0	0	28410	27050	146521	26963	1043437	44084	110553	0	0	8356	400948	0	0
2024-07-11 09:50:47			0	42034	0	0	0	28363	27050	146477	27159	1043384	44074	110535	0	0	8356	401078	0	0
2024-07-11 09:51:47			0	42045	0	0	0	28368	27060	146461	27170	1043374	44075	110537	0	0	8357	400697	0	0
2024-07-11 09:52:47			0	42031	0	0	0	28366	27050	146461	27170	1043276	44063	110536	0	0	8356	401176	0	0
2024-07-11 09:53:47			0	42037	0	0	0	28363	27060	146465	27301	1043285	44041	110535	0	0	8356	400958	0	0
2024-07-11 09:54:47			0	42034	0	0	0	28361	27050	146549	27050	1043195	44051	110534	0	0	8356	401078	0	0
2024-07-11 09:55:47			0	42043	0	0	0	28361	27040	146421	27196	1043169	44050	110534	0	0	8357	400808	0	0
2024-07-11 09:56:47			0	42018	0	0	0	28374	27040	146433	27076	1043196	44062	110539	0	0	8355	401623	0	0
2024-07-11 09:57:47			0	42017	0	0	0	28376	27030	146533	26894	1043259	44048	110540	0	0	8355	401678	0	0
2024-07-11 09:58:47			0	42017	0	0	0	28384	27030	146477	27126	1043232	44038	110543	0	0	8355	401678	0	0
2024-07-11 09:59:47			0	42021	0	0	0	28394	27040	146549	27027	1043249	44050	110547	0	0	8355	401525	0	0
2024-07-11 10:00:47			0	42017	0	0	0	28394	27020	146609	26965	1043250	44060	110547	0	0	8354	401701	0	0
2024-07-11 10:01:47			0	41993	0	0	0	28399	27040	146637	27628	1043276	44062	110549	0	0	8353	402437	0	0
2024-07-11 10:02:47			0	41999	0	0	0	28423	27040	146693	27166	1043303	44073	110558	0	0	8353	402242	0	0
2024-07-11 10:03:47			0	42024	0	0	0	28470	27040	146545	27324	1043339	44083	110576	0	0	8354	401427	0	0
2024-07-11 10:04:47			0	41998	0	0	0	28483	27050	146677	27209	1043545	44084	110581	0	0	8352	402251	0	0
2024-07-11 10:05:47			0	41993	0	0	0	28493	27070	146645	27464	1043571	44086	110585	0	0	8352	402368	0	0
2024-07-11 10:06:47			0	41997	0	0	0	28503	27070	146521	27003	1043607	44086	110589	0	0	8352	402238	0	0
2024-07-11 10:07:47			0	41982	0	0	0	28535	27100	146685	27036	1043624	44079	110601	0	0	8350	402658	0	0
2024-07-11 10:08:47			0	41982	0	0	0	28511	27090	146661	27209	1043687	44078	110592	0	0	8351	402681	0	0
2024-07-11 10:09:47			0	41991	0	0	0	28480	27110	146757	27326	1043722	44090	110580	0	0	8352	402341	0	0
2024-07-11 10:10:47			0	41968	0	0	0	28506	27110	146625	27144	1043704	44080	110590	0	0	8350	403091	0	0
2024-07-11 10:11:47			0	41968	0	0	0	28493	27110	146545	27045	1043695	44068	110585	0	0	8350	403091	0	0
2024-07-11 10:12:47			0	41961	0	0	0	28516	27110	146581	26852	1043704	44068	110594	0	0	8349	403320	0	0
2024-07-11 10:13:47			0	41947	0	0	0	28519	27120	146561	27253	1043740	44058	110595	0	0	8349	403754	0	0
2024-07-11 10:14:47			0	41975	0	0	0	28535	27120	146693	27327	1043713	44069	110601	0	0	8350	402840	0	0
2024-07-11 10:15:47			0	41952	0	0	0	28548	27120	146617	26996	1043802	44092	110606	0	0	8348	403590	0	0
2024-07-11 10:16:47			0	41957	0	0	0	28561	27130	146609	27351	1043900	44071	110611	0	0	8349	403404	0	0
2024-07-11 10:17:47			0	41960	0	0	0	28537	27130	146709	27180	1043900	44083	110602	0	0	8349	403306	0	0
2024-07-11 10:18:47			0	41954	0	0	0	28529	27140	146649	27182	1043918	44083	110599	0	0	8349	403479	0	0
2024-07-11 10:19:47			0	41957	0	0	0	28522	27150	146685	27161	1043900	44083	110596	0	0	8349	403358	0	0
2024-07-11 10:20:47			0	41978	0	0	0	28524	27140	146705	27060	1043829	44083	110597	0	0	8350	402696	0	0
2024-07-11 10:21:47			0	41963	0	0	0	28537	27140	146669	27156	1043810	44061	110602	0	0	8349	403185	0	0
2024-07-11 10:22:47			0	41960	0	0	0	28542	27140	146689	26710	1043864	44061	110604	0	0	8349	403283	0	0
2024-07-11 10:23:47			0	41957	0	0	0	28555	27130	146529	27069	1043811	44070	110609	0	0	8349	403404	0	0
2024-07-11 10:24:47			0	41948	0	0	0	28568	27140	146645	27183	1043855	44093	110614	0	0	8348	403675	0	0
2024-07-11 10:25:47			0	41956	0	0	0	28592	27150	146613	27088	1043936	44106	110623	0	0	8348	403390	0	0
2024-07-11 10:26:47			0	41954	0	0	0	28586	27160	146677	27183	1043971	44095	110621	0	0	8348	403432	0	0
2024-07-11 10:27:47			0	41943	0	0	0	28607	27160	146701	27137	1043971	44083	110629	0	0	8347	403792	0	0
2024-07-11 10:28:47			0	41941	0	0	0	28625	27160	146845	27185	1044079	44083	110636	0	0	8347	403857	0	0
2024-07-11 10:29:47			0	41935	0	0	0	28625	27160	146729	26880	1044061	44107	110636	0	0	8346	404053	0	0
2024-07-11 10:30:47			0	41933	0	0	0	28579	27170	146661	26793	1044079	44097	110618	0	0	8347	404095	0	0
2024-07-11 10:31:47			0	41942	0	0	0	28579	27180	146745	27019	1044060	44085	110618	0	0	8348	403778	0	0
2024-07-11 10:32:47			0	41942	0	0	0	28586	27170	146717	27119	1043998	44075	110621	0	0	8347	403801	0	0
2024-07-11 10:33:47			0	41946	0	0	0	28584	27180	146653	27189	1044042	44098	110620	0	0	8348	403647	0	0
2024-07-11 10:34:47			0	41941	0	0	0	28586	27180	146741	26986	1044015	44086	110621	0	0	8347	403810	0	0
2024-07-11 10:35:47			0	41930	0	0	0	28592	27190	146709	27133	1044051	44087	110623	0	0	8347	404146	0	0
2024-07-11 10:36:47			0	41924	0	0	0	28579	27180	146725	27324	1043989	44076	110618	0	0	8347	404366	0	0
2024-07-11 10:37:47			0	41940	0	0	0	28618	27180	146749	27305	1044042	44076	110633	0	0	8347	403843	0	0
2024-07-11 10:38:47			0	41942	0	0	0	28607	27190	146777	27183	1044114	44087	110629	0	0	8347	403755	0	0
2024-07-11 10:39:47			0	41931	0	0	0	28615	27200	146637	27324	1044176	44099	110632	0	0	8346	404091	0	0
2024-07-11 10:40:47			0	41941	0	0	0	28651	27200	146717	27218	1044212	44122	110646	0	0	8346	403764	0	0
2024-07-11 10:41:47			0	41908	0	0	0	28657	27210	146737	27098	1044221	44100	110648	0	0	8344	404819	0	0
2024-07-11 10:42:47			0	41923	0	0	0	28667	27210	146713	27124	1044391	44101	110652	0	0	8345	404329	0	0
2024-07-11 10:43:47			0	41922	0	0	0	28696	27230	146677	27017	1044408	44101	110663	0	0	8345	404315	0	0
2024-07-11 10:44:47			0	41926	0	0	0	28701	27240	146741	27287	1044453	44125	110665	0	0	8345	404161	0	0
2024-07-11 10:45:47			0	41929	0	0	0	28719	27250	146685	27126	1044524	44103	110672	0	0	8345	404040	0	0
2024-07-11 10:46:47			0	41962	0	0	0	28748	27260	146641	26885	1044596	44117	110683	0	0	8346	402940	0	0
2024-07-11 10:47:47			0	41946	0	0	0	28755	27260	146681	27175	1044658	44127	110686	0	0	8345	403462	0	0
2024-07-11 10:48:47			0	41942	0	0	0	28753	27280	146633	27078	1044711	44119	110685	0	0	8345	403546	0	0
2024-07-11 10:49:47			0	41937	0	0	0	28755	27300	146649	27315	1044801	44120	110686	0	0	8345	403663	0	0
2024-07-11 10:50:47			0	41942	0	0	0	28748	27290	146609	27317	1044765	44119	110683	0	0	8345	403523	0	0
2024-07-11 10:51:47			0	41930	0	0	0	28755	27290	146593	27213	1044819	44108	110686	0	0	8344	403914	0	0
2024-07-11 10:52:47			0	41922	0	0	0	28789	27310	146653	27180	1044791	44110	110699	0	0	8343	404129	0	0
2024-07-11 10:53:47			0	41930	0	0	0	28799	27310	146577	27092	1044881	44121	110703	0	0	8344	403868	0	0
2024-07-11 10:54:47			0	41918	0	0	0	28818	27330	146705	27178	1044988	44112	110710	0	0	8343	404213	0	0
2024-07-11 10:55:47			0	41915	0	0	0	28815	27340	146685	27194	1044979	44124	110709	0	0	8343	404288	0	0
2024-07-11 10:56:47			0	41921	0	0	0	28792	27350	146621	27157	1045032	44115	110700	0	0	8343	404069	0	0
2024-07-11 10:57:47			0	41907	0	0	0	28755	27360	146709	27190	1044987	44103	110686	0	0	8343	404503	0	0
2024-07-11 10:58:47			0	41910	0	0	0	28802	27360	146597	27130	1045103	44116	110704	0	0	8343	404405	0	0
2024-07-11 10:59:47			0	41891	0	0	0	28823	27370	146669	27156	1045139	44138	110712	0	0	8341	405002	0	0
2024-07-11 11:00:47			0	41908	0	0	0	28836	27370	146697	26892	1045201	44127	110717	0	0	8342	404447	0	0
2024-07-11 11:01:47			0	41911	0	0	0	28857	27390	146681	26953	1045201	44129	110725	0	0	8342	404303	0	0
2024-07-11 11:02:47			0	41865	0	0	0	28875	27380	146733	27428	1045264	44138	110732	0	0	8339	405829	0	0
2024-07-11 11:03:47			0	41874	0	0	0	28864	27410	146693	27131	1045344	44142	110728	0	0	8340	405465	0	0
2024-07-11 11:04:47			0	41864	0	0	0	28880	27420	146765	27038	1045370	44143	110734	0	0	8339	405769	0	0
2024-07-11 11:05:47			0	41873	0	0	0	28867	27430	146745	27303	1045460	44133	110729	0	0	8340	405451	0	0
2024-07-11 11:06:47			0	41875	0	0	0	28872	27430	146645	27333	1045442	44134	110731	0	0	8340	405386	0	0
2024-07-11 11:07:47			0	41877	0	0	0	28883	27440	146705	27443	1045424	44134	110735	0	0	8340	405297	0	0
2024-07-11 11:08:47			0	41881	0	0	0	28901	27450	146677	27201	1045495	44135	110742	0	0	8340	405143	0	0
2024-07-11 11:09:47			0	41853	0	0	0	28909	27450	146729	27315	1045522	44135	110745	0	0	8338	406059	0	0
2024-07-11 11:10:47			0	41878	0	0	0	28932	27460	146761	27412	1045593	44147	110754	0	0	8339	405218	0	0
2024-07-11 11:11:47			0	41861	0	0	0	28927	27460	146649	27157	1045647	44136	110752	0	0	8338	405774	0	0
2024-07-11 11:12:47			0	41845	0	0	0	28927	27480	146721	27206	1045610	44127	110752	0	0	8337	406250	0	0
2024-07-11 11:13:47			0	41856	0	0	0	28924	27480	146713	27265	1045691	44127	110751	0	0	8338	405890	0	0
2024-07-11 11:14:47			0	41859	0	0	0	28914	27490	146589	27434	1045700	44127	110747	0	0	8338	405769	0	0
2024-07-11 11:15:47			0	41883	0	0	0	28909	27500	146665	27267	1045744	44139	110745	0	0	8340	404961	0	0
2024-07-11 11:16:47			0	41870	0	0	0	28924	27500	146573	27355	1045726	44140	110751	0	0	8339	405386	0	0
2024-07-11 11:17:47			0	41886	0	0	0	28929	27490	146537	26996	1045736	44139	110753	0	0	8340	404886	0	0
2024-07-11 11:18:47			0	41880	0	0	0	28942	27500	146593	27279	1045807	44140	110758	0	0	8339	405059	0	0
2024-07-11 11:19:47			0	41866	0	0	0	28950	27510	146573	27303	1045816	44129	110761	0	0	8338	405493	0	0
2024-07-11 11:20:47			0	41855	0	0	0	28950	27510	146665	27253	1045843	44129	110761	0	0	8338	405853	0	0
2024-07-11 11:21:47			0	41868	0	0	0	28955	27530	146545	26982	1045842	44131	110763	0	0	8338	405381	0	0
2024-07-11 11:22:47			0	41874	0	0	0	28958	27530	146629	27175	1045878	44143	110764	0	0	8339	405185	0	0
2024-07-11 11:23:47			0	41864	0	0	0	29007	27540	146697	26987	1045995	44155	110783	0	0	8337	405489	0	0
2024-07-11 11:24:47			0	41863	0	0	0	29028	27550	146633	27211	1046039	44156	110791	0	0	8337	405498	0	0
2024-07-11 11:25:47			0	41862	0	0	0	29044	27560	146629	27197	1046137	44156	110797	0	0	8337	405508	0	0
2024-07-11 11:26:47			0	41880	0	0	0	29062	27570	146573	27291	1046155	44157	110804	0	0	8337	404896	0	0
2024-07-11 11:27:47			0	41853	0	0	0	29059	27580	146581	26960	1046226	44147	110803	0	0	8336	405755	0	0
2024-07-11 11:28:47			0	41861	0	0	0	29067	27590	146557	26958	1046217	44170	110806	0	0	8336	405470	0	0
2024-07-11 11:29:47			0	41874	0	0	0	29080	27600	146661	27024	1046369	44138	110811	0	0	8337	405022	0	0
2024-07-11 11:30:47			0	41853	0	0	0	29088	27610	146569	27279	1046333	44138	110814	0	0	8336	405685	0	0
2024-07-11 11:31:47			0	41864	0	0	0	29080	27610	146565	27218	1046333	44161	110811	0	0	8336	405325	0	0
2024-07-11 11:32:47			0	41875	0	0	0	29083	27610	146561	27124	1046423	44151	110812	0	0	8337	404966	0	0
2024-07-11 11:33:47			0	41862	0	0	0	29083	27630	146481	27026	1046422	44153	110812	0	0	8336	405344	0	0
2024-07-11 11:34:47			0	41842	0	0	0	29080	27620	146493	27001	1046431	44152	110811	0	0	8335	406021	0	0
2024-07-11 11:35:47			0	41852	0	0	0	29085	27640	146621	27013	1046413	44165	110813	0	0	8336	405647	0	0
2024-07-11 11:36:47			0	41851	0	0	0	29088	27640	146609	27085	1046476	44165	110814	0	0	8336	405680	0	0
2024-07-11 11:37:47			0	41838	0	0	0	29103	27650	146629	27433	1046511	44166	110820	0	0	8335	406082	0	0
2024-07-11 11:38:47			0	41828	0	0	0	29148	27660	146549	27260	1046610	44177	110837	0	0	8333	406385	0	0
2024-07-11 11:39:47			0	41845	0	0	0	29155	27670	146649	27286	1046708	44167	110840	0	0	8334	405806	0	0
2024-07-11 11:40:47			0	41835	0	0	0	29114	27690	146521	27121	1046744	44180	110824	0	0	8334	406086	0	0
2024-07-11 11:41:47			0	41823	0	0	0	29085	27700	146605	27071	1046788	44159	110813	0	0	8334	406455	0	0
2024-07-11 11:42:47			0	41808	0	0	0	29096	27690	146541	27173	1046699	44147	110817	0	0	8333	406970	0	0
2024-07-11 11:43:47			0	41822	0	0	0	29101	27690	146605	26682	1046672	44136	110819	0	0	8334	406512	0	0
2024-07-11 11:44:47			0	41817	0	0	0	29111	27680	146569	26956	1046654	44147	110823	0	0	8333	406698	0	0
2024-07-11 11:45:47			0	41806	0	0	0	29140	27690	146577	26975	1046726	44158	110834	0	0	8332	407035	0	0
2024-07-11 11:46:47			0	41806	0	0	0	29150	27700	146649	27251	1046788	44159	110838	0	0	8332	407011	0	0
2024-07-11 11:47:47			0	41782	0	0	0	29155	27710	146661	27327	1046761	44150	110840	0	0	8331	407774	0	0
2024-07-11 11:48:47			0	41794	0	0	0	29163	27710	146689	27213	1046806	44160	110843	0	0	8331	407381	0	0
2024-07-11 11:49:47			0	41803	0	0	0	29161	27710	146677	27013	1046868	44150	110842	0	0	8332	407086	0	0
2024-07-11 11:50:47			0	41799	0	0	0	29148	27720	146677	27154	1046850	44161	110837	0	0	8332	407194	0	0
2024-07-11 11:51:47			0	41801	0	0	0	29140	27730	146721	27036	1046895	44163	110834	0	0	8332	407105	0	0
2024-07-11 11:52:47			0	41799	0	0	0	29129	27730	146665	26878	1046868	44152	110830	0	0	8332	407170	0	0
2024-07-11 11:53:47			0	41800	0	0	0	29116	27720	146689	26819	1046823	44150	110825	0	0	8333	407161	0	0
2024-07-11 11:54:47			0	41793	0	0	0	29070	27720	146621	27287	1046778	44151	110807	0	0	8333	407390	0	0
2024-07-11 11:55:47			0	41793	0	0	0	29054	27710	146637	27474	1046734	44150	110801	0	0	8333	407414	0	0
2024-07-11 11:56:47			0	41781	0	0	0	29070	27710	146613	27196	1046653	44127	110807	0	0	8332	407807	0	0
2024-07-11 11:57:47			0	41795	0	0	0	29109	27700	146621	27071	1046716	44149	110822	0	0	8332	407372	0	0
2024-07-11 11:58:47			0	41804	0	0	0	29075	27700	146645	27130	1046716	44160	110809	0	0	8333	407077	0	0
2024-07-11 11:59:47			0	41801	0	0	0	29077	27700	146653	27246	1046689	44138	110810	0	0	8333	407175	0	0
2024-07-11 12:00:47			0	41801	0	0	0	29192	27710	146705	27235	1046860	44171	110854	0	0	8331	407152	0	0
2024-07-11 12:01:47			0	41803	0	0	0	29181	27740	146665	26889	1047002	44197	110850	0	0	8332	407016	0	0
2024-07-11 12:02:47			0	41802	0	0	0	29142	27740	146717	27060	1046993	44152	110835	0	0	8332	407049	0	0
2024-07-11 12:03:47			0	41792	0	0	0	29096	27750	146677	27043	1046966	44165	110817	0	0	8333	407353	0	0
2024-07-11 12:04:47			0	41763	0	0	0	29096	27750	146701	27007	1046939	44154	110817	0	0	8331	408302	0	0
2024-07-11 12:05:47			0	41769	0	0	0	29088	27740	146697	26956	1046912	44140	110814	0	0	8331	408129	0	0
2024-07-11 12:06:47			0	41757	0	0	0	29096	27740	146769	27135	1046886	44140	110817	0	0	8330	408523	0	0
2024-07-11 12:07:47			0	41735	0	0	0	29088	27740	146825	27346	1046832	44140	110814	0	0	8329	409244	0	0
2024-07-11 12:08:47			0	41730	0	0	0	29096	27730	146953	27130	1046796	44152	110817	0	0	8329	409432	0	0
2024-07-11 12:09:47			0	41744	0	0	0	29119	27730	146893	27085	1046787	44140	110826	0	0	8329	408972	0	0
2024-07-11 12:10:47			0	41718	0	0	0	29093	27730	146941	27118	1046814	44140	110816	0	0	8328	409826	0	0
2024-07-11 12:11:47			0	41685	0	0	0	29106	27730	147001	26991	1046787	44152	110821	0	0	8326	410910	0	0
2024-07-11 12:12:47			0	41667	0	0	0	29103	27720	147089	26772	1046913	44151	110820	0	0	8325	411526	0	0
2024-07-11 12:13:47			0	41668	0	0	0	29150	27720	147061	27111	1046859	44151	110838	0	0	8324	411493	0	0
2024-07-11 12:14:47			0	41652	0	0	0	29184	27730	147049	26951	1046984	44174	110851	0	0	8323	411995	0	0
2024-07-11 12:15:47			0	41645	0	0	0	29212	27740	147109	26953	1047074	44174	110862	0	0	8322	412202	0	0
2024-07-11 12:16:47			0	41628	0	0	0	29189	27750	147225	27114	1047046	44175	110853	0	0	8321	412738	0	0
2024-07-11 12:17:47			0	41620	0	0	0	29210	27750	147141	27166	1047127	44154	110861	0	0	8321	413002	0	0
2024-07-11 12:18:47			0	41622	0	0	0	29228	27760	147157	26885	1047172	44155	110868	0	0	8321	412912	0	0
2024-07-11 12:19:47			0	41622	0	0	0	29220	27780	147265	27119	1047198	44166	110865	0	0	8321	412865	0	0
2024-07-11 12:20:47			0	41619	0	0	0	29228	27770	147221	27097	1047216	44177	110868	0	0	8320	412987	0	0
2024-07-11 12:21:47			0	41618	0	0	0	29228	27780	147241	26996	1047180	44178	110868	0	0	8320	412996	0	0
2024-07-11 12:22:47			0	41588	0	0	0	29215	27780	147301	27112	1047207	44167	110863	0	0	8319	413986	0	0
2024-07-11 12:23:47			0	41612	0	0	0	29210	27790	147329	27281	1047243	44168	110861	0	0	8320	413170	0	0
2024-07-11 12:24:47			0	41603	0	0	0	29210	27790	147321	27157	1047216	44168	110861	0	0	8320	413467	0	0
2024-07-11 12:25:47			0	41590	0	0	0	29225	27790	147437	27182	1047225	44158	110867	0	0	8319	413896	0	0
2024-07-11 12:26:47			0	41601	0	0	0	29212	27800	147341	27196	1047207	44158	110862	0	0	8320	413509	0	0
2024-07-11 12:27:47			0	41585	0	0	0	29220	27810	147353	27135	1047243	44169	110865	0	0	8319	414013	0	0
2024-07-11 12:28:47			0	41579	0	0	0	29238	27790	147369	27085	1047252	44169	110872	0	0	8318	414259	0	0
2024-07-11 12:29:47			0	41583	0	0	0	29238	27820	147417	26908	1047395	44160	110872	0	0	8318	414055	0	0
2024-07-11 12:30:47			0	41586	0	0	0	29210	27810	147321	27176	1047305	44170	110861	0	0	8319	413980	0	0
2024-07-11 12:31:47			0	41598	0	0	0	29197	27810	147361	26949	1047305	44170	110856	0	0	8320	413584	0	0
2024-07-11 12:32:47			0	41585	0	0	0	29176	27810	147233	27112	1047171	44159	110848	0	0	8319	414013	0	0
2024-07-11 12:33:47			0	41583	0	0	0	29155	27800	147313	27215	1047153	44147	110840	0	0	8320	414103	0	0
2024-07-11 12:34:47			0	41571	0	0	0	29155	27800	147297	27313	1047153	44158	110840	0	0	8319	414499	0	0
2024-07-11 12:35:47			0	41591	0	0	0	29161	27790	147269	27251	1047171	44147	110842	0	0	8320	413863	0	0
2024-07-11 12:36:47			0	41584	0	0	0	29161	27780	147301	26795	1047127	44156	110842	0	0	8320	414118	0	0
2024-07-11 12:37:47			0	41581	0	0	0	29184	27800	147333	27261	1047180	44158	110851	0	0	8319	414169	0	0
2024-07-11 12:38:47			0	41572	0	0	0	29158	27780	147353	26920	1047127	44156	110841	0	0	8319	414514	0	0
2024-07-11 12:39:47			0	41575	0	0	0	29148	27780	147417	27237	1047091	44156	110837	0	0	8319	414415	0	0
2024-07-11 12:40:47			0	41562	0	0	0	29127	27780	147333	27495	1047046	44167	110829	0	0	8319	414844	0	0
2024-07-11 12:41:47			0	41570	0	0	0	29140	27770	147369	26805	1047055	44166	110834	0	0	8319	414604	0	0
2024-07-11 12:42:47			0	41566	0	0	0	29153	27770	147389	27086	1047109	44156	110839	0	0	8319	414736	0	0
2024-07-11 12:43:47			0	41545	0	0	0	29150	27770	147321	26906	1046992	44166	110838	0	0	8317	415429	0	0
2024-07-11 12:44:47			0	41546	0	0	0	29142	27770	147449	27024	1047046	44166	110835	0	0	8318	415396	0	0
2024-07-11 12:45:47			0	41554	0	0	0	29150	27760	147425	26986	1046983	44155	110838	0	0	8318	415156	0	0
2024-07-11 12:46:47			0	41567	0	0	0	29158	27770	147409	27102	1047073	44156	110841	0	0	8319	414703	0	0
2024-07-11 12:47:47			0	41558	0	0	0	29166	27760	147517	26984	1047082	44165	110844	0	0	8318	415024	0	0
2024-07-11 12:48:47			0	41545	0	0	0	29155	27760	147485	27137	1047064	44155	110840	0	0	8317	415453	0	0
2024-07-11 12:49:47			0	41536	0	0	0	29171	27760	147509	26837	1047064	44166	110846	0	0	8317	415751	0	0
2024-07-11 12:50:47			0	41550	0	0	0	29161	27760	147517	27041	1047091	44166	110842	0	0	8318	415288	0	0
2024-07-11 12:51:47			0	41535	0	0	0	29171	27760	147453	27133	1047109	44165	110846	0	0	8316	415784	0	0
2024-07-11 12:52:47			0	41547	0	0	0	29173	27770	147477	27081	1047082	44156	110847	0	0	8317	415363	0	0
2024-07-11 12:53:47			0	41562	0	0	0	29161	27760	147509	27076	1047109	44165	110842	0	0	8318	414892	0	0
2024-07-11 12:54:47			0	41533	0	0	0	29158	27770	147481	26684	1047073	44166	110841	0	0	8317	415826	0	0
2024-07-11 12:55:47			0	41546	0	0	0	29150	27770	147433	26797	1047046	44156	110838	0	0	8318	415396	0	0
2024-07-11 12:56:47			0	41553	0	0	0	29145	27770	147429	26889	1047028	44144	110836	0	0	8318	415165	0	0
2024-07-11 12:57:47			0	41543	0	0	0	29153	27760	147437	27052	1047064	44166	110839	0	0	8317	415520	0	0
2024-07-11 12:58:47			0	41552	0	0	0	29236	27760	147465	26967	1047145	44176	110871	0	0	8316	415222	0	0
2024-07-11 12:59:47			0	41542	0	0	0	29249	27780	147513	27128	1047288	44201	110876	0	0	8316	415505	0	0
2024-07-11 13:00:47			0	41528	0	0	0	29285	27800	147513	27232	1047422	44203	110890	0	0	8314	415920	0	0
2024-07-11 13:01:47			0	41525	0	0	0	29322	27820	147461	26833	1047556	44205	110904	0	0	8314	415971	0	0
2024-07-11 13:02:47			0	41536	0	0	0	29309	27840	147465	27133	1047564	44207	110899	0	0	8315	415559	0	0
2024-07-11 13:03:47			0	41528	0	0	0	29322	27850	147469	27183	1047725	44196	110904	0	0	8314	415800	0	0
2024-07-11 13:04:47			0	41535	0	0	0	29296	27860	147529	27260	1047734	44197	110894	0	0	8315	415545	0	0
2024-07-11 13:05:47			0	41528	0	0	0	29288	27870	147429	27317	1047707	44187	110891	0	0	8315	415752	0	0
2024-07-11 13:06:47			0	41557	0	0	0	29280	27880	147429	27133	1047778	44177	110888	0	0	8316	414770	0	0
2024-07-11 13:07:47			0	41538	0	0	0	29262	27880	147477	26783	1047671	44189	110881	0	0	8316	415398	0	0
2024-07-11 13:08:47			0	41541	0	0	0	29277	27870	147473	27003	1047680	44165	110887	0	0	8315	415322	0	0
2024-07-11 13:09:47			0	41558	0	0	0	29251	27880	147425	27204	1047698	44177	110877	0	0	8317	414737	0	0
2024-07-11 13:10:47			0	41554	0	0	0	29249	27890	147353	27194	1047742	44200	110876	0	0	8317	414845	0	0
2024-07-11 13:11:47			0	41548	0	0	0	29257	27890	147425	27102	1047796	44189	110879	0	0	8316	415043	0	0
2024-07-11 13:12:47			0	41566	0	0	0	29264	27890	147401	27107	1047742	44166	110882	0	0	8317	414449	0	0
2024-07-11 13:13:47			0	41547	0	0	0	29272	27890	147401	27000	1047769	44177	110885	0	0	8316	415076	0	0
2024-07-11 13:14:47			0	41546	0	0	0	29275	27900	147361	26922	1047867	44191	110886	0	0	8316	415085	0	0
2024-07-11 13:15:47			0	41553	0	0	0	29275	27910	147369	27066	1047877	44179	110886	0	0	8316	414830	0	0
2024-07-11 13:16:47			0	41548	0	0	0	29296	27920	147361	27121	1047849	44193	110894	0	0	8316	414971	0	0
2024-07-11 13:17:47			0	41561	0	0	0	29283	27920	147333	27098	1047894	44180	110889	0	0	8317	414542	0	0
2024-07-11 13:18:47			0	41564	0	0	0	29296	27920	147381	27045	1047849	44170	110894	0	0	8317	414443	0	0
2024-07-11 13:19:47			0	41547	0	0	0	29290	27920	147261	26970	1047876	44170	110892	0	0	8316	415004	0	0
2024-07-11 13:20:47			0	41587	0	0	0	29301	27920	147281	27007	1047840	44180	110896	0	0	8318	413685	0	0
2024-07-11 13:21:47			0	41576	0	0	0	29329	27930	147309	27138	1047885	44182	110907	0	0	8317	414024	0	0
2024-07-11 13:22:47			0	41569	0	0	0	29355	27930	147241	26937	1047939	44193	110917	0	0	8316	414255	0	0
2024-07-11 13:23:47			0	41563	0	0	0	29366	27930	147345	26939	1047939	44193	110921	0	0	8316	414452	0	0
2024-07-11 13:24:47			0	41554	0	0	0	29436	27930	147293	27216	1048055	44193	110948	0	0	8314	414749	0	0
2024-07-11 13:25:47			0	41579	0	0	0	29384	27950	147225	26686	1048252	44195	110928	0	0	8316	413877	0	0
2024-07-11 13:26:47			0	41584	0	0	0	29335	27960	147233	27225	1048081	44174	110909	0	0	8317	413688	0	0
2024-07-11 13:27:47			0	41562	0	0	0	29361	27960	147225	27213	1048081	44174	110919	0	0	8316	414414	0	0
2024-07-11 13:28:47			0	41559	0	0	0	29428	27980	147225	27249	1048350	44219	110945	0	0	8314	414465	0	0
2024-07-11 13:29:47			0	41571	0	0	0	29327	28000	147301	27069	1048385	44211	110906	0	0	8317	414021	0	0
2024-07-11 13:30:47			0	41567	0	0	0	29293	28000	147117	27199	1048278	44166	110893	0	0	8317	414153	0	0
2024-07-11 13:31:47			0	41554	0	0	0	29267	27990	147193	27235	1048125	44166	110883	0	0	8317	414606	0	0
2024-07-11 13:32:47			0	41558	0	0	0	29251	27980	147129	27284	1048054	44153	110877	0	0	8317	414498	0	0
2024-07-11 13:33:47			0	41569	0	0	0	29249	27970	147141	27178	1047955	44164	110876	0	0	8318	414159	0	0
2024-07-11 13:34:47			0	41566	0	0	0	29254	27960	147181	27088	1047938	44162	110878	0	0	8318	414282	0	0
2024-07-11 13:35:47			0	41583	0	0	0	29244	27960	147197	27163	1047938	44162	110874	0	0	8319	413721	0	0
2024-07-11 13:36:47			0	41568	0	0	0	29244	27940	147301	27085	1047911	44161	110874	0	0	8318	414263	0	0
2024-07-11 13:37:47			0	41595	0	0	0	29231	27930	147117	27537	1047777	44160	110869	0	0	8320	413397	0	0
2024-07-11 13:38:47			0	41593	0	0	0	29207	27930	147093	27358	1047750	44160	110860	0	0	8320	413463	0	0
2024-07-11 13:39:47			0	41601	0	0	0	29223	27920	147049	27069	1047760	44180	110866	0	0	8320	413223	0	0
2024-07-11 13:40:47			0	41605	0	0	0	29210	27920	147141	27090	1047768	44170	110861	0	0	8321	413092	0	0
2024-07-11 13:41:47			0	41610	0	0	0	29218	27920	147157	27147	1047760	44147	110864	0	0	8321	412927	0	0
2024-07-11 13:42:47			0	41602	0	0	0	29264	27910	147093	27228	1047715	44157	110882	0	0	8319	413214	0	0
2024-07-11 13:43:47			0	41623	0	0	0	29288	27900	147145	27123	1047724	44167	110891	0	0	8320	412546	0	0
2024-07-11 13:44:47			0	41611	0	0	0	29316	27910	147097	27104	1047805	44168	110902	0	0	8319	412918	0	0
2024-07-11 13:45:47			0	41615	0	0	0	29306	27910	147077	26847	1047858	44179	110898	0	0	8319	412786	0	0
2024-07-11 13:46:47			0	41617	0	0	0	29293	27910	147133	27027	1047823	44157	110893	0	0	8320	412720	0	0
2024-07-11 13:47:47			0	41644	0	0	0	29283	27910	147057	27467	1047805	44179	110889	0	0	8321	411831	0	0
2024-07-11 13:48:47			0	41622	0	0	0	29319	27910	147109	26897	1047877	44179	110903	0	0	8320	412555	0	0
2024-07-11 13:49:47			0	41606	0	0	0	29309	27920	147085	27147	1047894	44180	110899	0	0	8319	413059	0	0
2024-07-11 13:50:47			0	41621	0	0	0	29350	27920	147089	26920	1048011	44193	110915	0	0	8319	412565	0	0
2024-07-11 13:51:47			0	41630	0	0	0	29314	27930	146989	27253	1047939	44205	110901	0	0	8320	412245	0	0
2024-07-11 13:52:47			0	41634	0	0	0	29316	27930	147045	27059	1047948	44171	110902	0	0	8320	412113	0	0
2024-07-11 13:53:47			0	41631	0	0	0	29309	27920	146937	26852	1047984	44170	110899	0	0	8320	412236	0	0
2024-07-11 13:54:47			0	41623	0	0	0	29316	27930	147017	27353	1047975	44182	110902	0	0	8320	412475	0	0
2024-07-11 13:55:47			0	41641	0	0	0	29327	27930	147049	27203	1048020	44193	110906	0	0	8321	411883	0	0
2024-07-11 13:56:47			0	41629	0	0	0	29298	27940	146961	26809	1048037	44193	110895	0	0	8320	412254	0	0
2024-07-11 13:57:47			0	41634	0	0	0	29368	27940	146961	27170	1048037	44193	110922	0	0	8320	412089	0	0
2024-07-11 13:58:47			0	41646	0	0	0	29457	27950	147061	27149	1048216	44195	110956	0	0	8319	411671	0	0
2024-07-11 13:59:47			0	41642	0	0	0	29438	27960	146937	27085	1048342	44217	110949	0	0	8319	411779	0	0
2024-07-11 14:00:47			0	41615	0	0	0	29480	27980	147069	27149	1048466	44209	110965	0	0	8317	412619	0	0
2024-07-11 14:01:47			0	41632	0	0	0	29477	28000	147021	27128	1048520	44222	110964	0	0	8318	412012	0	0
2024-07-11 14:02:47			0	41627	0	0	0	29459	28010	147013	27519	1048519	44212	110957	0	0	8318	412153	0	0
2024-07-11 14:03:47			0	41625	0	0	0	29524	28020	147073	27383	1048672	44212	110982	0	0	8317	412195	0	0
2024-07-11 14:04:47			0	41627	0	0	0	29563	28040	147001	27230	1048752	44214	110997	0	0	8316	412082	0	0
2024-07-11 14:05:47			0	41635	0	0	0	29589	28060	147009	27192	1048922	44228	111007	0	0	8316	411771	0	0
2024-07-11 14:06:47			0	41640	0	0	0	29581	28080	147005	27211	1048957	44230	111004	0	0	8317	411559	0	0
2024-07-11 14:07:47			0	41643	0	0	0	29605	28110	147017	27357	1049028	44232	111013	0	0	8317	411389	0	0
2024-07-11 14:08:47			0	41645	0	0	0	29594	28110	146981	26863	1049145	44233	111009	0	0	8317	411324	0	0
2024-07-11 14:09:47			0	41619	0	0	0	29620	28120	147069	27161	1049189	44234	111019	0	0	8315	412155	0	0
2024-07-11 14:10:47			0	41629	0	0	0	29594	28130	146969	27166	1049180	44224	111009	0	0	8316	411802	0	0
2024-07-11 14:11:47			0	41616	0	0	0	29610	28150	147001	27045	1049261	44236	111015	0	0	8315	412182	0	0
2024-07-11 14:12:47			0	41643	0	0	0	29586	28150	146957	27379	1049242	44226	111006	0	0	8317	411294	0	0
2024-07-11 14:13:47			0	41625	0	0	0	29592	28170	146957	27133	1049296	44227	111008	0	0	8316	411838	0	0
2024-07-11 14:14:47			0	41614	0	0	0	29620	28180	146873	27119	1049314	44240	111019	0	0	8315	412176	0	0
2024-07-11 14:15:47			0	41639	0	0	0	29618	28200	146929	27168	1049349	44242	111018	0	0	8317	411307	0	0
2024-07-11 14:16:47			0	41624	0	0	0	29625	28180	146913	26967	1049368	44217	111021	0	0	8316	411848	0	0
2024-07-11 14:17:47			0	41624	0	0	0	29618	28190	146937	27255	1049305	44207	111018	0	0	8316	411824	0	0
2024-07-11 14:18:47			0	41646	0	0	0	29641	28180	146829	26946	1049376	44229	111027	0	0	8317	411125	0	0
2024-07-11 14:19:47			0	41634	0	0	0	29675	28200	146861	27279	1049430	44231	111040	0	0	8316	411471	0	0
2024-07-11 14:20:47			0	41649	0	0	0	29729	28210	146885	26981	1049645	44231	111061	0	0	8315	410955	0	0
2024-07-11 14:21:47			0	41626	0	0	0	29729	28230	146841	26996	1049725	44233	111061	0	0	8314	411663	0	0
2024-07-11 14:22:47			0	41644	0	0	0	29654	28240	146861	27067	1049689	44223	111032	0	0	8317	411048	0	0
2024-07-11 14:23:47			0	41640	0	0	0	29667	28240	146757	27249	1049563	44212	111037	0	0	8316	411179	0	0
2024-07-11 14:24:47			0	41635	0	0	0	29677	28240	146845	26864	1049725	44212	111041	0	0	8316	411344	0	0
2024-07-11 14:25:47			0	41651	0	0	0	29612	28260	146789	27060	1049733	44226	111016	0	0	8318	410771	0	0
2024-07-11 14:26:47			0	41651	0	0	0	29703	28260	146725	27072	1049787	44237	111051	0	0	8316	410771	0	0
2024-07-11 14:27:47			0	41649	0	0	0	29631	28270	146809	27036	1049715	44226	111023	0	0	8317	410813	0	0
2024-07-11 14:28:47			0	41631	0	0	0	29820	28280	146773	27164	1050011	44228	111096	0	0	8313	411380	0	0
2024-07-11 14:29:47			0	41636	0	0	0	29922	28310	146837	27039	1050226	44264	111135	0	0	8312	411144	0	0
2024-07-11 14:30:47			0	41616	0	0	0	29755	28340	147009	26752	1050378	44277	111071	0	0	8314	411730	0	0
2024-07-11 14:31:47			0	41639	0	0	0	29633	28350	146777	26850	1050216	44234	111024	0	0	8317	410951	0	0
2024-07-11 14:32:47			0	41633	0	0	0	29589	28350	146749	26887	1049884	44190	111007	0	0	8318	411148	0	0
2024-07-11 14:33:47			0	41639	0	0	0	29703	28320	146785	27015	1050055	44209	111051	0	0	8316	411022	0	0
2024-07-11 14:34:47			0	41611	0	0	0	29748	28340	146745	26944	1050279	44255	111068	0	0	8314	411894	0	0
2024-07-11 14:35:47			0	41615	0	0	0	29550	28360	146721	26868	1050225	44234	110992	0	0	8317	411715	0	0
2024-07-11 14:36:47			0	41634	0	0	0	29716	28350	146805	27116	1050108	44211	111056	0	0	8315	411115	0	0
2024-07-11 14:37:47			0	41635	0	0	0	29740	28360	146825	26795	1050171	44223	111065	0	0	8315	411059	0	0
2024-07-11 14:38:47			0	41627	0	0	0	29786	28370	146785	27067	1050350	44236	111083	0	0	8314	411297	0	0
2024-07-11 14:39:47			0	41606	0	0	0	29732	28390	146769	26958	1050412	44227	111062	0	0	8314	411939	0	0
2024-07-11 14:40:47			0	41613	0	0	0	29722	28380	146825	26915	1050296	44214	111058	0	0	8314	411733	0	0
2024-07-11 14:41:47			0	41615	0	0	0	29651	28370	146801	26769	1050170	44204	111031	0	0	8316	411691	0	0
2024-07-11 14:42:47			0	41616	0	0	0	29690	28370	146657	26760	1050189	44203	111046	0	0	8315	411658	0	0
2024-07-11 14:43:47			0	41618	0	0	0	29657	28360	146741	27071	1050126	44212	111033	0	0	8316	411617	0	0
2024-07-11 14:44:47			0	41597	0	0	0	29641	28360	146817	26866	1050009	44178	111027	0	0	8315	412307	0	0
2024-07-11 14:45:47			0	41609	0	0	0	29696	28350	146817	26880	1050126	44201	111048	0	0	8314	411936	0	0
2024-07-11 14:46:47			0	41617	0	0	0	29703	28350	146761	26772	1050045	44190	111051	0	0	8315	411673	0	0
2024-07-11 14:47:47			0	41600	0	0	0	29698	28350	146821	26745	1050054	44211	111049	0	0	8314	412232	0	0
2024-07-11 14:48:47			0	41601	0	0	0	29722	28340	146809	26785	1050090	44200	111058	0	0	8313	412223	0	0
2024-07-11 14:49:47			0	41606	0	0	0	29651	28350	146825	26889	1050180	44223	111031	0	0	8315	412035	0	0
2024-07-11 14:50:47			0	41613	0	0	0	29568	28360	146709	26935	1050009	44190	110999	0	0	8317	411781	0	0
2024-07-11 14:51:47			0	41624	0	0	0	29514	28330	146729	27019	1049642	44166	110978	0	0	8318	411491	0	0
2024-07-11 14:52:47			0	41631	0	0	0	29485	28310	146733	27112	1049571	44164	110967	0	0	8319	411309	0	0
2024-07-11 14:53:47			0	41615	0	0	0	29535	28280	146709	27258	1049572	44171	110986	0	0	8317	411905	0	0
2024-07-11 14:54:47			0	41617	0	0	0	29464	28280	146801	27313	1049545	44182	110959	0	0	8318	411840	0	0
2024-07-11 14:55:47			0	41643	0	0	0	29509	28280	146681	27085	1049572	44205	110976	0	0	8319	410986	0	0
2024-07-11 14:56:47			0	41631	0	0	0	29490	28270	146697	26901	1049527	44193	110969	0	0	8319	411404	0	0
2024-07-11 14:57:47			0	41640	0	0	0	29470	28260	146729	27164	1049383	44181	110961	0	0	8320	411132	0	0
2024-07-11 14:58:47			0	41623	0	0	0	29441	28240	146677	27126	1049285	44156	110950	0	0	8319	411738	0	0
2024-07-11 14:59:47			0	41642	0	0	0	29444	28220	146701	26889	1049205	44176	110951	0	0	8320	411161	0	0
2024-07-11 15:00:47			0	41637	0	0	0	29433	28200	146737	26906	1049134	44164	110947	0	0	8320	411373	0	0
2024-07-11 15:01:47			0	41637	0	0	0	29446	28180	146805	26835	1049018	44162	110952	0	0	8319	411420	0	0
2024-07-11 15:02:47			0	41641	0	0	0	29449	28170	146737	27137	1049027	44160	110953	0	0	8320	411313	0	0
2024-07-11 15:03:47			0	41642	0	0	0	29433	28160	146737	27213	1048991	44182	110947	0	0	8320	411304	0	0
2024-07-11 15:04:47			0	41649	0	0	0	29441	28150	146737	27109	1048892	44170	110950	0	0	8320	411097	0	0
2024-07-11 15:05:47			0	41638	0	0	0	29428	28130	146825	27131	1048911	44191	110945	0	0	8320	411506	0	0
2024-07-11 15:06:47			0	41646	0	0	0	29412	28140	146717	26994	1048920	44179	110939	0	0	8320	411220	0	0
2024-07-11 15:07:47			0	41648	0	0	0	29425	28130	146841	27258	1048821	44167	110944	0	0	8320	411178	0	0
2024-07-11 15:08:47			0	41637	0	0	0	29527	28120	146809	27093	1048885	44189	110983	0	0	8318	411563	0	0
2024-07-11 15:09:47			0	41620	0	0	0	29573	28140	146873	27246	1049225	44225	111001	0	0	8316	412074	0	0
2024-07-11 15:10:47			0	41634	0	0	0	29522	28160	146973	26875	1049305	44237	110981	0	0	8318	411566	0	0
2024-07-11 15:11:47			0	41627	0	0	0	29563	28170	146829	27405	1049296	44227	110997	0	0	8317	411773	0	0
2024-07-11 15:12:47			0	41628	0	0	0	29516	28180	146773	27086	1049215	44207	110979	0	0	8318	411716	0	0
2024-07-11 15:13:47			0	41617	0	0	0	29475	28170	146733	27090	1049116	44183	110963	0	0	8318	412101	0	0
2024-07-11 15:14:47			0	41630	0	0	0	29584	28170	146837	27209	1049188	44193	111005	0	0	8317	411674	0	0
2024-07-11 15:15:47			0	41627	0	0	0	29579	28180	146837	27118	1049350	44217	111003	0	0	8317	411749	0	0
2024-07-11 15:16:47			0	41619	0	0	0	29558	28180	146805	27078	1049323	44240	110995	0	0	8317	412012	0	0
2024-07-11 15:17:47			0	41622	0	0	0	29509	28200	146813	27007	1049349	44219	110976	0	0	8318	411866	0	0
2024-07-11 15:18:47			0	41628	0	0	0	29459	28180	146713	26856	1049206	44207	110957	0	0	8319	411716	0	0
2024-07-11 15:19:47			0	41624	0	0	0	29457	28170	146773	27012	1049027	44171	110956	0	0	8318	411871	0	0
2024-07-11 15:20:47			0	41635	0	0	0	29516	28180	146853	27121	1049179	44217	110979	0	0	8318	411486	0	0
2024-07-11 15:21:47			0	41646	0	0	0	29537	28170	146893	27076	1049278	44194	110987	0	0	8318	411148	0	0
2024-07-11 15:22:47			0	41629	0	0	0	29550	28170	146809	27105	1049278	44206	110992	0	0	8317	411707	0	0
2024-07-11 15:23:47			0	41613	0	0	0	29573	28180	146893	27301	1049350	44217	111001	0	0	8316	412209	0	0
2024-07-11 15:24:47			0	41627	0	0	0	29571	28180	146809	27281	1049314	44229	111000	0	0	8317	411749	0	0
2024-07-11 15:25:47			0	41617	0	0	0	29592	28180	146813	27369	1049403	44207	111008	0	0	8316	412078	0	0
2024-07-11 15:26:47			0	41607	0	0	0	29584	28200	146937	27263	1049376	44219	111005	0	0	8315	412359	0	0
2024-07-11 15:27:47			0	41635	0	0	0	29651	28210	146989	27059	1049564	44231	111031	0	0	8316	411415	0	0
2024-07-11 15:28:47			0	41627	0	0	0	29620	28220	146853	27043	1049689	44232	111019	0	0	8316	411654	0	0
2024-07-11 15:29:47			0	41615	0	0	0	29631	28220	146797	26781	1049636	44221	111023	0	0	8315	412048	0	0
2024-07-11 15:30:47			0	41610	0	0	0	29625	28230	146837	27225	1049591	44222	111021	0	0	8315	412189	0	0
2024-07-11 15:31:47			0	41593	0	0	0	29631	28240	146781	26837	1049662	44212	111023	0	0	8314	412724	0	0
2024-07-11 15:32:47			0	41600	0	0	0	29636	28240	146857	27057	1049644	44224	111025	0	0	8314	412494	0	0
2024-07-11 15:33:47			0	41614	0	0	0	29672	28250	146889	27026	1049707	44235	111039	0	0	8315	412010	0	0
2024-07-11 15:34:47			0	41605	0	0	0	29667	28250	146913	26994	1049760	44235	111037	0	0	8314	412306	0	0
2024-07-11 15:35:47			0	41606	0	0	0	29709	28250	146849	27031	1049734	44224	111053	0	0	8314	412273	0	0
2024-07-11 15:36:47			0	41595	0	0	0	29680	28270	146865	27182	1049886	44259	111042	0	0	8313	412587	0	0
2024-07-11 15:37:47			0	41578	0	0	0	29657	28270	146885	27093	1049859	44214	111033	0	0	8313	413146	0	0
2024-07-11 15:38:47			0	41592	0	0	0	29623	28280	146869	27183	1049769	44216	111020	0	0	8314	412662	0	0
2024-07-11 15:39:47			0	41595	0	0	0	29649	28270	146781	27092	1049697	44204	111030	0	0	8314	412587	0	0
2024-07-11 15:40:47			0	41602	0	0	0	29683	28270	146809	27234	1049751	44204	111043	0	0	8314	412357	0	0
2024-07-11 15:41:47			0	41584	0	0	0	29698	28280	146865	26791	1049841	44238	111049	0	0	8313	412925	0	0
2024-07-11 15:42:47			0	41589	0	0	0	29729	28280	146893	27142	1049868	44227	111061	0	0	8312	412760	0	0
2024-07-11 15:43:47			0	41594	0	0	0	29742	28290	146897	27317	1049975	44240	111066	0	0	8312	412572	0	0
2024-07-11 15:44:47			0	41570	0	0	0	29672	28300	146837	27164	1049957	44240	111039	0	0	8312	413338	0	0
2024-07-11 15:45:47			0	41592	0	0	0	29659	28290	146877	26871	1049948	44229	111034	0	0	8314	412638	0	0
2024-07-11 15:46:47			0	41596	0	0	0	29654	28300	146813	26791	1049885	44218	111032	0	0	8314	412482	0	0
2024-07-11 15:47:47			0	41592	0	0	0	29675	28300	146865	26762	1049957	44207	111040	0	0	8314	412614	0	0
2024-07-11 15:48:47			0	41583	0	0	0	29644	28300	146869	26996	1049957	44217	111028	0	0	8314	412910	0	0
2024-07-11 15:49:47			0	41564	0	0	0	29677	28300	146837	27180	1049912	44218	111041	0	0	8312	413535	0	0
2024-07-11 15:50:47			0	41566	0	0	0	29706	28310	146877	26961	1050038	44219	111052	0	0	8312	413446	0	0
2024-07-11 15:51:47			0	41554	0	0	0	29696	28310	146921	27041	1050002	44231	111048	0	0	8311	413841	0	0
2024-07-11 15:52:47			0	41546	0	0	0	29722	28310	147029	27112	1050038	44242	111058	0	0	8310	414104	0	0
2024-07-11 15:53:47			0	41551	0	0	0	29690	28310	146997	27097	1049984	44219	111046	0	0	8311	413940	0	0
2024-07-11 15:54:47			0	41531	0	0	0	29672	28320	146969	27078	1049939	44219	111039	0	0	8310	414575	0	0
2024-07-11 15:55:47			0	41540	0	0	0	29667	28330	146941	27275	1050046	44221	111037	0	0	8311	414254	0	0
2024-07-11 15:56:47			0	41542	0	0	0	29683	28310	147097	27060	1050038	44231	111043	0	0	8311	414236	0	0
2024-07-11 15:57:47			0	41527	0	0	0	29644	28320	146981	27116	1049885	44208	111028	0	0	8310	414707	0	0
2024-07-11 15:58:47			0	41515	0	0	0	29654	28320	147041	27187	1049912	44208	111032	0	0	8310	415102	0	0
2024-07-11 15:59:47			0	41522	0	0	0	29670	28300	147041	27227	1049858	44218	111038	0	0	8310	414919	0	0
2024-07-11 16:00:47			0	41526	0	0	0	29680	28310	146973	26993	1049921	44219	111042	0	0	8310	414763	0	0
2024-07-11 16:01:47			0	41500	0	0	0	29690	28310	147077	27312	1050064	44219	111046	0	0	8308	415621	0	0
2024-07-11 16:02:47			0	41492	0	0	0	29729	28320	147077	26767	1050082	44253	111061	0	0	8307	415861	0	0
2024-07-11 16:03:47			0	41482	0	0	0	29711	28330	147089	26956	1050172	44244	111054	0	0	8307	416167	0	0
2024-07-11 16:04:47			0	41487	0	0	0	29703	28340	147097	26589	1050136	44232	111051	0	0	8307	415978	0	0
2024-07-11 16:05:47			0	41496	0	0	0	29802	28340	147017	27055	1050279	44233	111089	0	0	8306	415681	0	0
2024-07-11 16:06:47			0	41480	0	0	0	29823	28380	147133	26974	1050556	44270	111097	0	0	8305	416113	0	0
2024-07-11 16:07:47			0	41476	0	0	0	29862	28400	147113	27066	1050672	44272	111112	0	0	8304	416197	0	0
2024-07-11 16:08:47			0	41463	0	0	0	29846	28410	147289	27126	1050798	44273	111106	0	0	8304	416602	0	0
2024-07-11 16:09:47			0	41451	0	0	0	29961	28450	147145	27119	1050941	44277	111150	0	0	8301	416902	0	0
2024-07-11 16:10:47			0	41458	0	0	0	30111	28470	147221	27131	1051174	44301	111208	0	0	8299	416623	0	0
2024-07-11 16:11:47			0	41438	0	0	0	30122	28510	147237	27135	1051424	44317	111212	0	0	8298	417187	0	0
2024-07-11 16:12:47			0	41420	0	0	0	30064	28540	147416	26915	1051477	44308	111190	0	0	8298	417710	0	0
2024-07-11 16:13:47			0	41431	0	0	0	30174	28550	147257	27001	1051612	44288	111232	0	0	8297	417322	0	0
2024-07-11 16:14:47			0	41419	0	0	0	30244	28570	147384	27147	1051863	44311	111259	0	0	8295	417670	0	0
2024-07-11 16:15:47			0	41417	0	0	0	30298	28630	147380	27150	1052095	44328	111280	0	0	8294	417592	0	0
2024-07-11 16:16:47			0	41378	0	0	0	30199	28650	147552	27050	1052139	44308	111242	0	0	8294	418833	0	0
2024-07-11 16:17:47			0	41387	0	0	0	30179	28680	147388	26729	1052076	44300	111234	0	0	8295	418462	0	0
2024-07-11 16:18:47			0	41342	0	0	0	30231	28690	147432	27261	1052282	44312	111254	0	0	8291	419928	0	0
2024-07-11 16:19:47			0	41348	0	0	0	30368	28720	147644	27178	1052416	44315	111307	0	0	8290	419657	0	0
2024-07-11 16:20:47			0	41340	0	0	0	30251	28740	147604	27076	1052577	44316	111262	0	0	8291	419873	0	0
2024-07-11 16:21:47			0	41309	0	0	0	30350	28770	147644	27031	1052657	44308	111300	0	0	8288	420828	0	0
2024-07-11 16:22:47			0	41292	0	0	0	30233	28790	147568	27052	1052801	44310	111255	0	0	8289	421343	0	0
2024-07-11 16:23:47			0	41275	0	0	0	30101	28790	147516	27008	1052567	44299	111204	0	0	8290	421907	0	0
2024-07-11 16:24:47			0	41310	0	0	0	29875	28780	147352	26937	1052244	44243	111117	0	0	8296	420770	0	0
2024-07-11 16:25:47			0	41298	0	0	0	29955	28750	147392	26776	1052092	44217	111148	0	0	8294	421241	0	0
2024-07-11 16:26:47			0	41261	0	0	0	29973	28750	147408	27156	1052110	44250	111155	0	0	8291	422470	0	0
2024-07-11 16:27:47			0	41260	0	0	0	29854	28730	147576	27123	1051895	44227	111109	0	0	8293	422552	0	0
2024-07-11 16:28:47			0	41267	0	0	0	29818	28700	147388	26892	1051653	44202	111095	0	0	8294	422393	0	0
2024-07-11 16:29:47			0	41259	0	0	0	29688	28660	147360	27611	1051295	44187	111045	0	0	8296	422757	0	0
2024-07-11 16:30:47			0	41263	0	0	0	29625	28620	147328	26948	1051062	44182	111021	0	0	8297	422722	0	0
2024-07-11 16:31:47			0	41280	0	0	0	29599	28580	147392	27206	1050713	44133	111011	0	0	8298	422254	0	0
2024-07-11 16:32:47			0	41284	0	0	0	29649	28540	147372	26870	1050624	44164	111030	0	0	8297	422219	0	0
2024-07-11 16:33:47			0	41275	0	0	0	29599	28520	147548	26986	1050553	44172	111011	0	0	8297	422567	0	0
2024-07-11 16:34:47			0	41258	0	0	0	29641	28500	147424	26951	1050437	44204	111027	0	0	8296	423182	0	0
2024-07-11 16:35:47			0	41272	0	0	0	29602	28470	147388	27088	1050365	44178	111012	0	0	8297	422789	0	0
2024-07-11 16:36:47			0	41266	0	0	0	29657	28460	147596	27097	1050474	44222	111033	0	0	8296	423013	0	0
2024-07-11 16:37:47			0	41294	0	0	0	29740	28460	147624	27222	1050581	44222	111065	0	0	8296	422082	0	0
2024-07-11 16:38:47			0	41266	0	0	0	29748	28470	147660	27175	1050545	44211	111068	0	0	8294	422989	0	0
2024-07-11 16:39:47			0	41282	0	0	0	29667	28450	147728	26989	1050456	44210	111037	0	0	8296	422505	0	0
2024-07-11 16:40:47			0	41277	0	0	0	29680	28450	147656	26844	1050492	44221	111042	0	0	8296	422672	0	0
2024-07-11 16:41:47			0	41285	0	0	0	29688	28440	147540	27019	1050438	44231	111045	0	0	8296	422430	0	0
2024-07-11 16:42:47			0	41277	0	0	0	29633	28440	147676	26812	1050438	44220	111024	0	0	8297	422696	0	0
2024-07-11 16:43:47			0	41286	0	0	0	29540	28420	147568	26939	1050277	44208	110988	0	0	8299	422446	0	0
2024-07-11 16:44:47			0	41274	0	0	0	29586	28410	147500	27277	1050233	44207	111006	0	0	8297	422869	0	0
2024-07-11 16:45:47			0	41284	0	0	0	29646	28410	147536	26705	1050394	44217	111029	0	0	8297	422537	0	0
2024-07-11 16:46:47			0	41287	0	0	0	29514	28410	147680	26942	1050313	44217	110978	0	0	8299	422437	0	0
2024-07-11 16:47:47			0	41279	0	0	0	29709	28400	147616	27046	1050215	44183	111053	0	0	8295	422727	0	0
2024-07-11 16:48:47			0	41286	0	0	0	29464	28390	147576	26835	1050143	44215	110959	0	0	8300	422519	0	0
2024-07-11 16:49:47			0	41291	0	0	0	29501	28360	147564	26890	1050018	44191	110973	0	0	8299	422426	0	0
2024-07-11 16:50:47			0	41286	0	0	0	29563	28350	147604	26889	1049938	44211	110997	0	0	8298	422617	0	0
2024-07-11 16:51:47			0	41297	0	0	0	29483	28340	147604	27133	1049956	44189	110966	0	0	8300	422275	0	0
2024-07-11 16:52:47			0	41282	0	0	0	29509	28330	147716	26923	1049911	44188	110976	0	0	8299	422799	0	0
2024-07-11 16:53:47			0	41291	0	0	0	29340	28310	147568	27230	1049418	44141	110911	0	0	8302	422548	0	0
2024-07-11 16:54:47			0	41302	0	0	0	29446	28270	147488	27140	1049338	44148	110952	0	0	8301	422280	0	0
2024-07-11 16:55:47			0	41299	0	0	0	29420	28250	147576	26902	1049276	44157	110942	0	0	8301	422428	0	0
2024-07-11 16:56:47			0	41311	0	0	0	29470	28220	147780	27218	1049232	44166	110961	0	0	8300	422102	0	0
2024-07-11 16:57:47			0	41300	0	0	0	29397	28200	147568	27034	1049188	44174	110933	0	0	8301	422517	0	0
2024-07-11 16:58:47			0	41318	0	0	0	29332	28200	147672	26739	1049053	44174	110908	0	0	8303	421918	0	0
2024-07-11 16:59:47			0	41335	0	0	0	29238	28170	147716	27216	1048865	44149	110872	0	0	8306	421426	0	0
2024-07-11 17:00:47			0	41310	0	0	0	29192	28140	147544	27166	1048570	44124	110854	0	0	8305	422330	0	0
2024-07-11 17:01:47			0	41315	0	0	0	29186	28100	147532	27225	1048400	44121	110852	0	0	8305	422261	0	0
2024-07-11 17:02:47			0	41325	0	0	0	29228	28070	147700	27013	1048329	44118	110868	0	0	8305	422002	0	0
2024-07-11 17:03:47			0	41326	0	0	0	29171	28050	147688	27353	1048124	44116	110846	0	0	8306	422017	0	0
2024-07-11 17:04:47			0	41330	0	0	0	29148	28020	147748	27038	1048079	44135	110837	0	0	8306	421957	0	0
2024-07-11 17:05:47			0	41324	0	0	0	29254	28000	147624	27140	1048017	44133	110878	0	0	8304	422205	0	0
2024-07-11 17:06:47			0	41326	0	0	0	29259	27970	147892	26987	1047982	44164	110880	0	0	8304	422212	0	0
2024-07-11 17:07:47			0	41352	0	0	0	29158	27980	147852	26961	1048000	44153	110841	0	0	8307	421322	0	0
2024-07-11 17:08:47			0	41341	0	0	0	29251	27960	147856	27121	1048019	44162	110877	0	0	8305	421737	0	0
2024-07-11 17:09:47			0	41343	0	0	0	29501	27980	147936	27227	1048377	44208	110973	0	0	8301	421622	0	0
2024-07-11 17:10:47			0	41335	0	0	0	29322	27990	147960	27078	1048502	44244	110904	0	0	8303	421864	0	0
2024-07-11 17:11:47			0	41327	0	0	0	29238	28000	147856	26668	1048313	44177	110872	0	0	8304	422106	0	0
2024-07-11 17:12:47			0	41349	0	0	0	29496	27990	147852	27192	1048457	44221	110971	0	0	8301	421398	0	0
2024-07-11 17:13:47			0	41310	0	0	0	29405	28030	147904	27256	1048761	44248	110936	0	0	8301	422598	0	0
2024-07-11 17:14:47			0	41307	0	0	0	29451	28060	147984	27197	1048814	44250	110954	0	0	8300	422625	0	0
2024-07-11 17:15:47			0	41329	0	0	0	29431	28050	147908	27112	1048698	44194	110946	0	0	8301	421917	0	0
2024-07-11 17:16:47			0	41314	0	0	0	29571	28070	147984	27069	1048994	44217	111000	0	0	8298	422368	0	0
2024-07-11 17:17:47			0	41317	0	0	0	29529	28080	148020	27157	1049101	44252	110984	0	0	8299	422243	0	0
2024-07-11 17:18:47			0	41315	0	0	0	29467	28130	147940	26778	1049342	44280	110960	0	0	8300	422188	0	0
2024-07-11 17:19:47			0	41325	0	0	0	29522	28160	147980	27194	1049655	44282	110981	0	0	8300	421782	0	0
2024-07-11 17:20:47			0	41312	0	0	0	29527	28170	147852	27306	1049413	44239	110983	0	0	8299	422191	0	0
2024-07-11 17:21:47			0	41305	0	0	0	29646	28180	147948	27029	1049556	44240	111029	0	0	8297	422399	0	0
2024-07-11 17:22:47			0	41313	0	0	0	29555	28190	148064	27098	1049547	44217	110994	0	0	8299	422109	0	0
2024-07-11 17:23:47			0	41284	0	0	0	29459	28190	147920	27046	1049340	44196	110957	0	0	8299	423074	0	0
2024-07-11 17:24:47			0	41292	0	0	0	29550	28190	147908	26996	1049493	44207	110992	0	0	8298	422808	0	0
2024-07-11 17:25:47			0	41314	0	0	0	29472	28200	147840	26563	1049618	44231	110962	0	0	8301	422051	0	0
2024-07-11 17:26:47			0	41285	0	0	0	29740	28220	147976	27033	1049708	44232	111065	0	0	8294	422968	0	0
2024-07-11 17:27:47			0	41293	0	0	0	29693	28240	148080	26791	1049913	44257	111047	0	0	8296	422652	0	0
2024-07-11 17:28:47			0	41303	0	0	0	29690	28250	147996	27003	1049841	44235	111046	0	0	8296	422295	0	0
2024-07-11 17:29:47			0	41295	0	0	0	29566	28260	147976	27105	1049868	44237	110998	0	0	8298	422537	0	0
2024-07-11 17:30:47			0	41293	0	0	0	29519	28260	147884	27530	1049778	44213	110980	0	0	8299	422603	0	0
2024-07-11 17:31:47			0	41288	0	0	0	29441	28250	147892	27253	1049581	44212	110950	0	0	8300	422794	0	0
2024-07-11 17:32:47			0	41274	0	0	0	29620	28230	147884	26899	1049572	44189	111019	0	0	8296	423310	0	0
2024-07-11 17:33:47			0	41273	0	0	0	29690	28240	147980	27320	1049743	44246	111046	0	0	8295	423318	0	0
2024-07-11 17:34:47			0	41266	0	0	0	29511	28260	147960	27246	1049760	44226	110977	0	0	8297	423503	0	0
2024-07-11 17:35:47			0	41287	0	0	0	29475	28240	147976	26956	1049536	44202	110963	0	0	8299	422852	0	0
2024-07-11 17:36:47			0	41284	0	0	0	29386	28230	147772	27270	1049330	44177	110929	0	0	8300	422976	0	0
2024-07-11 17:37:47			0	41292	0	0	0	29301	28210	147772	27085	1049044	44175	110896	0	0	8302	422759	0	0
2024-07-11 17:38:47			0	41276	0	0	0	29311	28170	147836	26958	1048785	44126	110900	0	0	8301	423390	0	0
2024-07-11 17:39:47			0	41263	0	0	0	29415	28140	147852	27031	1048974	44157	110940	0	0	8298	423896	0	0
2024-07-11 17:40:47			0	41286	0	0	0	29384	28140	147828	27168	1048947	44179	110928	0	0	8300	423130	0	0
2024-07-11 17:41:47			0	41280	0	0	0	29275	28130	147808	26934	1048794	44167	110886	0	0	8302	423354	0	0
2024-07-11 17:42:47			0	41306	0	0	0	29275	28110	147800	27133	1048741	44155	110886	0	0	8303	422537	0	0
2024-07-11 17:43:47			0	41286	0	0	0	29298	28100	147752	26902	1048670	44176	110895	0	0	8301	423227	0	0
2024-07-11 17:44:47			0	41297	0	0	0	29309	28080	147752	27315	1048616	44164	110899	0	0	8302	422910	0	0
2024-07-11 17:45:47			0	41292	0	0	0	29446	28060	147828	26982	1048662	44184	110952	0	0	8299	423125	0	0
2024-07-11 17:46:47			0	41296	0	0	0	29423	28080	148012	27322	1048742	44196	110943	0	0	8300	422943	0	0
2024-07-11 17:47:47			0	41291	0	0	0	29348	28080	147992	27182	1048742	44196	110914	0	0	8301	423109	0	0
2024-07-11 17:48:47			0	41311	0	0	0	29301	28080	147992	27237	1048742	44185	110896	0	0	8303	422443	0	0
2024-07-11 17:49:47			0	41306	0	0	0	29405	28080	147972	27123	1048858	44197	110936	0	0	8301	422610	0	0
2024-07-11 17:50:47			0	41273	0	0	0	29322	28090	147904	27192	1048813	44197	110904	0	0	8300	423685	0	0
2024-07-11 17:51:47			0	41306	0	0	0	29384	28080	147860	27341	1048778	44186	110928	0	0	8301	422610	0	0
2024-07-11 17:52:47			0	41277	0	0	0	29540	28080	147996	27329	1048966	44208	110988	0	0	8297	423576	0	0
2024-07-11 17:53:47			0	41284	0	0	0	29485	28090	148112	27170	1049038	44231	110967	0	0	8298	423318	0	0
2024-07-11 17:54:47			0	41287	0	0	0	29488	28120	148008	26729	1049046	44222	110968	0	0	8298	423145	0	0
2024-07-11 17:55:47			0	41280	0	0	0	29511	28130	148004	27081	1049091	44212	110977	0	0	8298	423354	0	0
2024-07-11 17:56:47			0	41272	0	0	0	29480	28120	148056	27199	1049073	44211	110965	0	0	8298	423645	0	0
2024-07-11 17:57:47			0	41265	0	0	0	29638	28140	148180	27301	1049270	44224	111026	0	0	8295	423830	0	0
2024-07-11 17:58:47			0	41264	0	0	0	29675	28160	148048	26897	1049494	44237	111040	0	0	8294	423814	0	0
2024-07-11 17:59:47			0	41249	0	0	0	29620	28180	148144	27232	1049673	44273	111019	0	0	8294	424265	0	0
2024-07-11 18:00:47			0	41236	0	0	0	29563	28200	148052	27168	1049618	44242	110997	0	0	8295	424650	0	0
2024-07-11 18:01:47			0	41245	0	0	0	29794	28210	148128	26930	1049744	44231	111086	0	0	8291	424325	0	0
2024-07-11 18:02:47			0	41227	0	0	0	29831	28250	148240	26937	1050003	44257	111100	0	0	8290	424828	0	0
2024-07-11 18:03:47			0	41245	0	0	0	29610	28260	148212	27012	1049994	44258	111015	0	0	8294	424203	0	0
2024-07-11 18:04:47			0	41234	0	0	0	29535	28260	148104	27095	1049814	44226	110986	0	0	8295	424570	0	0
2024-07-11 18:05:47			0	41214	0	0	0	29496	28250	147928	27072	1049608	44179	110971	0	0	8295	425262	0	0
2024-07-11 18:06:47			0	41217	0	0	0	29514	28230	148036	26892	1049564	44200	110978	0	0	8294	425211	0	0
2024-07-11 18:07:47			0	41220	0	0	0	29584	28230	148056	27052	1049599	44211	111005	0	0	8293	425111	0	0
2024-07-11 18:08:47			0	41227	0	0	0	29420	28220	148020	27064	1049465	44199	110942	0	0	8296	424901	0	0
2024-07-11 18:09:47			0	41218	0	0	0	29431	28220	148092	26949	1049357	44199	110946	0	0	8296	425202	0	0
2024-07-11 18:10:47			0	41220	0	0	0	29524	28200	148128	27109	1049358	44186	110982	0	0	8294	425184	0	0
2024-07-11 18:11:47			0	41223	0	0	0	29716	28220	148224	27222	1049743	44232	111056	0	0	8291	425035	0	0
2024-07-11 18:12:47			0	41212	0	0	0	29719	28220	148404	27294	1049878	44244	111057	0	0	8291	425402	0	0
2024-07-11 18:13:47			0	41199	0	0	0	29618	28250	148312	27041	1049814	44247	111018	0	0	8292	425763	0	0
2024-07-11 18:14:47			0	41203	0	0	0	29649	28250	148232	27124	1049689	44224	111030	0	0	8291	425629	0	0
2024-07-11 18:15:47			0	41195	0	0	0	29701	28250	148224	27098	1049850	44224	111050	0	0	8290	425897	0	0
2024-07-11 18:16:47			0	41178	0	0	0	29716	28270	148296	27267	1049985	44237	111056	0	0	8289	426415	0	0
2024-07-11 18:17:47			0	41206	0	0	0	29742	28270	148204	27144	1050020	44237	111066	0	0	8290	425480	0	0
2024-07-11 18:18:47			0	41161	0	0	0	29729	28290	148352	27178	1050182	44250	111061	0	0	8288	426935	0	0
2024-07-11 18:19:47			0	41180	0	0	0	29490	28310	148220	27396	1050163	44242	110969	0	0	8293	426250	0	0
2024-07-11 18:20:47			0	41176	0	0	0	29402	28300	148192	27031	1049777	44196	110935	0	0	8294	426409	0	0
2024-07-11 18:21:47			0	41183	0	0	0	29379	28270	148196	27237	1049563	44181	110926	0	0	8295	426249	0	0
2024-07-11 18:22:47			0	41184	0	0	0	29441	28260	148168	27048	1049401	44180	110950	0	0	8294	426240	0	0
2024-07-11 18:23:47			0	41185	0	0	0	29418	28230	148260	27150	1049321	44177	110941	0	0	8294	426280	0	0
2024-07-11 18:24:47			0	41185	0	0	0	29638	28220	148332	27322	1049438	44199	111026	0	0	8290	426305	0	0
2024-07-11 18:25:47			0	41169	0	0	0	29841	28230	148496	27206	1049815	44233	111104	0	0	8286	426815	0	0
2024-07-11 18:26:47			0	41187	0	0	0	29955	28270	148592	26883	1050335	44292	111148	0	0	8285	426115	0	0
2024-07-11 18:27:47			0	41154	0	0	0	29888	28320	148520	26873	1050477	44297	111122	0	0	8285	427095	0	0
2024-07-11 18:28:47			0	41160	0	0	0	29948	28350	148612	26840	1050584	44312	111145	0	0	8284	426820	0	0
2024-07-11 18:29:47			0	41165	0	0	0	29870	28380	148592	27062	1050718	44282	111115	0	0	8286	426579	0	0
2024-07-11 18:30:47			0	41145	0	0	0	29828	28390	148376	27270	1050709	44271	111099	0	0	8286	427223	0	0
2024-07-11 18:31:47			0	41144	0	0	0	29820	28410	148592	27287	1050690	44262	111096	0	0	8286	427207	0	0
2024-07-11 18:32:47			0	41139	0	0	0	29828	28410	148400	26904	1050682	44250	111099	0	0	8285	427375	0	0
2024-07-11 18:33:47			0	41137	0	0	0	29823	28420	148448	26982	1050645	44251	111097	0	0	8285	427417	0	0
2024-07-11 18:34:47			0	41152	0	0	0	29810	28420	148460	26953	1050645	44241	111092	0	0	8286	426915	0	0
2024-07-11 18:35:47			0	41129	0	0	0	29774	28420	148388	27159	1050672	44251	111078	0	0	8286	427685	0	0
2024-07-11 18:36:47			0	41113	0	0	0	29662	28420	148408	27098	1050565	44230	111035	0	0	8287	428221	0	0
2024-07-11 18:37:47			0	41129	0	0	0	29659	28410	148376	26899	1050439	44239	111034	0	0	8288	427709	0	0
2024-07-11 18:38:47			0	41134	0	0	0	29586	28400	148348	26953	1050313	44206	111006	0	0	8289	427567	0	0
2024-07-11 18:39:47			0	41132	0	0	0	29719	28400	148432	26911	1050376	44216	111057	0	0	8287	427634	0	0
2024-07-11 18:40:47			0	41118	0	0	0	29810	28400	148464	27426	1050475	44228	111092	0	0	8284	428103	0	0
2024-07-11 18:41:47			0	41120	0	0	0	29786	28390	148436	27209	1050493	44227	111083	0	0	8285	428060	0	0
2024-07-11 18:42:47			0	41132	0	0	0	29792	28410	148512	27287	1050610	44240	111085	0	0	8286	427609	0	0
2024-07-11 18:43:47			0	41137	0	0	0	29363	28390	148368	27034	1050008	44171	110920	0	0	8293	427491	0	0
2024-07-11 18:44:47			0	41135	0	0	0	29477	28350	148272	27189	1049920	44178	110964	0	0	8291	427657	0	0
2024-07-11 18:45:47			0	41127	0	0	0	29594	28340	148344	27447	1049947	44199	111009	0	0	8288	427950	0	0
2024-07-11 18:46:47			0	41137	0	0	0	29698	28330	148388	27020	1050091	44221	111049	0	0	8287	427639	0	0
2024-07-11 18:47:47			0	41122	0	0	0	29792	28340	148504	27154	1050216	44244	111085	0	0	8285	428117	0	0
2024-07-11 18:48:47			0	41120	0	0	0	29831	28360	148484	27024	1050476	44269	111100	0	0	8284	428134	0	0
2024-07-11 18:49:47			0	41121	0	0	0	29794	28380	148500	27093	1050610	44282	111086	0	0	8285	428052	0	0
2024-07-11 18:50:47			0	41141	0	0	0	29701	28390	148512	27398	1050412	44227	111050	0	0	8288	427357	0	0
2024-07-11 18:51:47			0	41126	0	0	0	29797	28370	148600	27274	1050413	44237	111087	0	0	8285	427909	0	0
2024-07-11 18:52:47			0	41139	0	0	0	29794	28400	148592	26897	1050538	44250	111086	0	0	8286	427399	0	0
2024-07-11 18:53:47			0	41121	0	0	0	29792	28400	148504	27300	1050610	44261	111085	0	0	8285	428002	0	0
2024-07-11 18:54:47			0	41133	0	0	0	29820	28400	148584	27020	1050592	44250	111096	0	0	8285	427600	0	0
2024-07-11 18:55:47			0	41116	0	0	0	29745	28420	148492	27149	1050538	44241	111067	0	0	8285	428120	0	0
2024-07-11 18:56:47			0	41124	0	0	0	29748	28400	148508	27053	1050457	44228	111068	0	0	8286	427902	0	0
2024-07-11 18:57:47			0	41130	0	0	0	29833	28390	148524	27346	1050574	44250	111101	0	0	8285	427725	0	0
2024-07-11 18:58:47			0	41114	0	0	0	29823	28410	148612	26857	1050547	44239	111097	0	0	8284	428212	0	0
2024-07-11 18:59:47			0	41123	0	0	0	29792	28420	148596	27320	1050627	44241	111085	0	0	8285	427886	0	0
2024-07-11 19:00:47			0	41129	0	0	0	29792	28410	148580	27081	1050610	44240	111085	0	0	8285	427709	0	0
2024-07-11 19:01:47			0	41103	0	0	0	29763	28410	148560	26972	1050583	44240	111074	0	0	8284	428580	0	0
2024-07-11 19:02:47			0	41101	0	0	0	29745	28420	148544	27097	1050573	44241	111067	0	0	8285	428623	0	0
2024-07-11 19:03:47			0	41110	0	0	0	29729	28400	148516	27301	1050430	44228	111061	0	0	8285	428370	0	0
2024-07-11 19:04:47			0	41099	0	0	0	29680	28400	148528	26946	1050457	44228	111042	0	0	8286	428739	0	0
2024-07-11 19:05:47			0	41102	0	0	0	29618	28390	148420	27166	1050224	44193	111018	0	0	8287	428663	0	0
2024-07-11 19:06:47			0	41125	0	0	0	29664	28370	148492	27173	1050215	44225	111036	0	0	8287	427942	0	0
2024-07-11 19:07:47			0	41117	0	0	0	29677	28370	148576	27095	1050135	44203	111041	0	0	8286	428210	0	0
2024-07-11 19:08:47			0	41108	0	0	0	29698	28350	148528	27303	1050081	44234	111049	0	0	8286	428561	0	0
2024-07-11 19:09:47			0	41114	0	0	0	29677	28350	148532	26960	1050162	44246	111041	0	0	8286	428360	0	0
2024-07-11 19:10:47			0	41094	0	0	0	29506	28340	148492	27220	1049947	44221	110975	0	0	8288	429055	0	0
2024-07-11 19:11:47			0	41120	0	0	0	29576	28310	148356	27332	1049849	44219	111002	0	0	8288	428258	0	0
2024-07-11 19:12:47			0	41131	0	0	0	29477	28310	148400	26946	1049813	44208	110964	0	0	8290	427890	0	0
2024-07-11 19:13:47			0	41114	0	0	0	29485	28290	148412	27223	1049751	44194	110967	0	0	8289	428509	0	0
2024-07-11 19:14:47			0	41128	0	0	0	29488	28270	148476	26930	1049590	44214	110968	0	0	8290	428089	0	0
2024-07-11 19:15:47			0	41129	0	0	0	29540	28280	148484	27102	1049653	44215	110988	0	0	8289	428031	0	0
2024-07-11 19:16:47			0	41133	0	0	0	29571	28270	148500	27074	1049688	44226	111000	0	0	8289	427922	0	0
2024-07-11 19:17:47			0	41139	0	0	0	29566	28260	148536	27085	1049670	44225	110998	0	0	8289	427745	0	0
2024-07-11 19:18:47			0	41133	0	0	0	29649	28250	148576	27235	1049823	44224	111030	0	0	8287	427971	0	0
2024-07-11 19:19:47			0	41132	0	0	0	29561	28270	148496	27071	1049796	44226	110996	0	0	8289	427955	0	0
2024-07-11 19:20:47			0	41133	0	0	0	29540	28250	148508	26981	1049689	44202	110988	0	0	8289	427971	0	0
2024-07-11 19:21:47			0	41119	0	0	0	29589	28240	148544	27201	1049662	44223	111007	0	0	8288	428465	0	0
2024-07-11 19:22:47			0	41145	0	0	0	29423	28220	148568	27388	1049447	44210	110943	0	0	8292	427643	0	0
2024-07-11 19:23:47			0	41127	0	0	0	29431	28220	148524	27189	1049339	44176	110946	0	0	8291	428246	0	0
2024-07-11 19:24:47			0	41130	0	0	0	29558	28190	148544	27206	1049286	44196	110995	0	0	8288	428220	0	0
2024-07-11 19:25:47			0	41142	0	0	0	29566	28190	148580	26920	1049331	44217	110998	0	0	8289	427818	0	0
2024-07-11 19:26:47			0	41146	0	0	0	29623	28190	148692	27095	1049574	44217	111020	0	0	8288	427684	0	0
2024-07-11 19:27:47			0	41138	0	0	0	29662	28200	148720	27026	1049618	44252	111035	0	0	8287	427927	0	0
2024-07-11 19:28:47			0	41117	0	0	0	29716	28220	148688	27097	1049788	44266	111056	0	0	8285	428582	0	0
2024-07-11 19:29:47			0	41116	0	0	0	29696	28240	148680	26759	1049940	44280	111048	0	0	8286	428566	0	0
2024-07-11 19:30:47			0	41123	0	0	0	29706	28250	148820	27097	1049985	44247	111052	0	0	8286	428306	0	0
2024-07-11 19:31:47			0	41106	0	0	0	29722	28260	148816	26944	1050002	44259	111058	0	0	8285	428851	0	0
2024-07-11 19:32:47			0	41098	0	0	0	29742	28280	148836	27298	1050056	44283	111066	0	0	8284	429070	0	0
2024-07-11 19:33:47			0	41110	0	0	0	29836	28290	148804	27175	1050182	44284	111102	0	0	8283	428643	0	0
2024-07-11 19:34:47			0	41080	0	0	0	29805	28310	148812	27005	1050361	44297	111090	0	0	8282	429600	0	0
2024-07-11 19:35:47			0	41071	0	0	0	29789	28320	148832	27086	1050378	44276	111084	0	0	8282	429877	0	0
2024-07-11 19:36:47			0	41081	0	0	0	29857	28340	148824	27119	1050468	44267	111110	0	0	8281	429492	0	0
2024-07-11 19:37:47			0	41060	0	0	0	29867	28360	148892	27135	1050548	44301	111114	0	0	8280	430147	0	0
2024-07-11 19:38:47			0	41057	0	0	0	29779	28380	148804	26982	1050637	44282	111080	0	0	8281	430198	0	0
2024-07-11 19:39:47			0	41075	0	0	0	29701	28370	148788	26987	1050413	44259	111050	0	0	8284	429618	0	0
2024-07-11 19:40:47			0	41070	0	0	0	29690	28360	148720	27317	1050287	44224	111046	0	0	8284	429811	0	0
2024-07-11 19:41:47			0	41065	0	0	0	29792	28360	148728	26821	1050386	44246	111085	0	0	8282	429979	0	0
2024-07-11 19:42:47			0	41061	0	0	0	29815	28370	148844	26984	1050566	44291	111094	0	0	8281	430088	0	0
2024-07-11 19:43:47			0	41063	0	0	0	29890	28380	148744	27241	1050745	44282	111123	0	0	8280	429996	0	0
2024-07-11 19:44:47			0	41051	0	0	0	29875	28420	148708	26918	1050861	44296	111117	0	0	8280	430300	0	0
2024-07-11 19:45:47			0	41049	0	0	0	29870	28430	148792	27123	1050887	44297	111115	0	0	8280	430342	0	0
2024-07-11 19:46:47			0	41042	0	0	0	29888	28430	148792	26826	1050852	44263	111122	0	0	8279	430577	0	0
2024-07-11 19:47:47			0	41069	0	0	0	29867	28440	148832	27034	1050851	44288	111114	0	0	8281	429646	0	0
2024-07-11 19:48:47			0	41060	0	0	0	29880	28440	148844	26776	1050851	44277	111119	0	0	8280	429948	0	0
2024-07-11 19:49:47			0	41069	0	0	0	29898	28460	148828	26873	1050878	44278	111126	0	0	8280	429596	0	0
2024-07-11 19:50:47			0	41050	0	0	0	29875	28450	148880	27098	1050977	44288	111117	0	0	8280	430259	0	0
2024-07-11 19:51:47			0	41048	0	0	0	29909	28460	148800	27029	1050940	44290	111130	0	0	8279	430301	0	0
2024-07-11 19:52:47			0	41056	0	0	0	29932	28470	148808	27013	1050958	44279	111139	0	0	8279	430008	0	0
2024-07-11 19:53:47			0	41051	0	0	0	29948	28480	148708	27194	1051030	44281	111145	0	0	8279	430151	0	0
2024-07-11 19:54:47			0	41054	0	0	0	29971	28490	148728	27085	1051119	44281	111154	0	0	8278	430025	0	0
2024-07-11 19:55:47			0	41026	0	0	0	30002	28500	148720	27142	1051272	44304	111166	0	0	8276	430940	0	0
2024-07-11 19:56:47			0	41026	0	0	0	30036	28510	148776	27282	1051379	44306	111179	0	0	8276	430915	0	0
2024-07-11 19:57:47			0	41043	0	0	0	30025	28520	148744	27017	1051370	44307	111175	0	0	8277	430320	0	0
2024-07-11 19:58:47			0	41033	0	0	0	30015	28540	148800	26819	1051405	44297	111171	0	0	8277	430605	0	0
2024-07-11 19:59:47			0	41041	0	0	0	30015	28550	148780	26764	1051414	44298	111171	0	0	8277	430312	0	0
2024-07-11 20:00:47			0	41030	0	0	0	30018	28560	148652	26731	1051513	44298	111172	0	0	8277	430656	0	0
2024-07-11 20:01:47			0	41022	0	0	0	30015	28560	148660	27083	1051513	44276	111171	0	0	8276	430925	0	0
2024-07-11 20:02:47			0	41036	0	0	0	29997	28570	148704	27118	1051477	44300	111164	0	0	8277	430430	0	0
2024-07-11 20:03:47			0	41027	0	0	0	30002	28570	148524	27060	1051504	44289	111166	0	0	8277	430732	0	0
2024-07-11 20:04:47			0	41034	0	0	0	29997	28570	148524	27244	1051458	44278	111164	0	0	8277	430497	0	0
2024-07-11 20:05:47			0	41040	0	0	0	29997	28570	148616	27241	1051504	44289	111164	0	0	8278	430296	0	0
2024-07-11 20:06:47			0	41030	0	0	0	30002	28570	148568	27196	1051504	44278	111166	0	0	8277	430631	0	0
2024-07-11 20:07:47			0	41012	0	0	0	29973	28570	148588	27156	1051512	44278	111155	0	0	8276	431236	0	0
2024-07-11 20:08:47			0	41024	0	0	0	29927	28560	148596	27046	1051414	44266	111137	0	0	8278	430858	0	0
2024-07-11 20:09:47			0	41029	0	0	0	29906	28570	148568	26937	1051288	44267	111129	0	0	8278	430665	0	0
2024-07-11 20:10:47			0	41027	0	0	0	29844	28550	148572	26902	1051253	44265	111105	0	0	8279	430782	0	0
2024-07-11 20:11:47			0	41029	0	0	0	29823	28550	148568	27128	1051154	44265	111097	0	0	8280	430715	0	0
2024-07-11 20:12:47			0	41043	0	0	0	29833	28540	148568	27190	1051100	44251	111101	0	0	8280	430270	0	0
2024-07-11 20:13:47			0	41037	0	0	0	29916	28520	148596	26833	1051100	44262	111133	0	0	8279	430521	0	0
2024-07-11 20:14:47			0	41035	0	0	0	29885	28530	148720	27050	1051136	44263	111121	0	0	8279	430563	0	0
2024-07-11 20:15:47			0	41012	0	0	0	29909	28530	148660	27098	1051110	44274	111130	0	0	8277	431336	0	0
2024-07-11 20:16:47			0	41020	0	0	0	29924	28520	148656	27112	1051145	44272	111136	0	0	8277	431092	0	0
2024-07-11 20:17:47			0	41032	0	0	0	29922	28520	148632	27215	1051208	44285	111135	0	0	8278	430689	0	0
2024-07-11 20:18:47			0	41034	0	0	0	29922	28530	148668	27251	1051190	44274	111135	0	0	8278	430597	0	0
2024-07-11 20:19:47			0	41014	0	0	0	29927	28520	148608	26887	1051181	44295	111137	0	0	8277	431294	0	0
2024-07-11 20:20:47			0	41027	0	0	0	29896	28520	148588	27112	1051154	44262	111125	0	0	8278	430857	0	0
2024-07-11 20:21:47			0	41015	0	0	0	29888	28520	148712	27100	1051100	44285	111122	0	0	8278	431260	0	0
2024-07-11 20:22:47			0	41033	0	0	0	29919	28520	148640	26802	1051154	44285	111134	0	0	8278	430655	0	0
2024-07-11 20:23:47			0	41013	0	0	0	29940	28530	148728	27265	1051163	44286	111142	0	0	8277	431302	0	0
2024-07-11 20:24:47			0	41024	0	0	0	29916	28520	148660	26908	1051181	44307	111133	0	0	8278	430958	0	0
2024-07-11 20:25:47			0	41024	0	0	0	29919	28510	148740	27305	1051244	44272	111134	0	0	8278	430983	0	0
2024-07-11 20:26:47			0	41021	0	0	0	29911	28530	148668	27059	1051217	44308	111131	0	0	8278	431033	0	0
2024-07-11 20:27:47			0	41024	0	0	0	29929	28520	148780	27057	1051154	44285	111138	0	0	8278	430958	0	0
2024-07-11 20:28:47			0	41009	0	0	0	29924	28530	148688	27079	1051190	44274	111136	0	0	8277	431437	0	0
2024-07-11 20:29:47			0	41017	0	0	0	29927	28520	148664	26915	1051235	44273	111137	0	0	8277	431193	0	0
2024-07-11 20:30:47			0	41025	0	0	0	29927	28530	148636	26989	1051217	44296	111137	0	0	8278	430899	0	0
2024-07-11 20:31:47			0	41006	0	0	0	29919	28520	148700	26771	1051235	44273	111134	0	0	8277	431562	0	0
2024-07-11 20:32:47			0	41031	0	0	0	29914	28520	148648	26878	1051208	44285	111132	0	0	8278	430723	0	0
2024-07-11 20:33:47			0	41022	0	0	0	29906	28530	148640	27029	1051190	44286	111129	0	0	8278	431000	0	0
2024-07-11 20:34:47			0	41020	0	0	0	29901	28520	148624	27178	1051199	44261	111127	0	0	8278	431092	0	0
2024-07-11 20:35:47			0	41024	0	0	0	29914	28520	148724	27019	1051145	44261	111132	0	0	8278	430958	0	0
2024-07-11 20:36:47			0	41013	0	0	0	29919	28510	148692	26663	1051137	44261	111134	0	0	8277	431352	0	0
2024-07-11 20:37:47			0	41018	0	0	0	29914	28510	148724	26965	1051110	44284	111132	0	0	8277	431184	0	0
2024-07-11 20:38:47			0	41010	0	0	0	29919	28520	148732	26864	1051172	44306	111134	0	0	8277	431428	0	0
2024-07-11 20:39:47			0	41023	0	0	0	29924	28520	148744	27033	1051208	44285	111136	0	0	8278	430991	0	0
2024-07-11 20:40:47			0	41022	0	0	0	29924	28520	148676	27008	1051154	44273	111136	0	0	8278	431025	0	0
2024-07-11 20:41:47			0	41013	0	0	0	29919	28520	148668	27095	1051172	44284	111134	0	0	8277	431327	0	0
2024-07-11 20:42:47			0	41022	0	0	0	29924	28530	148600	27041	1051217	44296	111136	0	0	8278	431000	0	0
2024-07-11 20:43:47			0	41033	0	0	0	29903	28510	148712	27216	1051190	44284	111128	0	0	8278	430680	0	0
2024-07-11 20:44:47			0	41021	0	0	0	29903	28520	148712	26946	1051172	44272	111128	0	0	8278	431058	0	0
2024-07-11 20:45:47			0	41023	0	0	0	29911	28520	148708	27182	1051199	44317	111131	0	0	8278	430991	0	0
2024-07-11 20:46:47			0	41011	0	0	0	29916	28520	148700	27152	1051118	44284	111133	0	0	8277	431394	0	0
2024-07-11 20:47:47			0	41030	0	0	0	29903	28510	148748	27039	1051163	44294	111128	0	0	8278	430781	0	0
2024-07-11 20:48:47			0	41022	0	0	0	29898	28520	148704	27138	1051172	44306	111126	0	0	8278	431025	0	0
2024-07-11 20:49:47			0	41019	0	0	0	29846	28520	148684	27124	1051145	44272	111106	0	0	8279	431126	0	0
2024-07-11 20:50:47			0	41022	0	0	0	29610	28520	148552	26821	1051020	44262	111015	0	0	8283	431025	0	0
2024-07-11 20:51:47			0	41016	0	0	0	29329	28480	148356	27059	1050545	44258	110907	0	0	8287	431326	0	0
2024-07-11 20:52:47			0	41055	0	0	0	29163	28460	148284	27119	1050177	44189	110843	0	0	8292	430066	0	0
2024-07-11 20:53:47			0	41058	0	0	0	29140	28380	148252	27261	1049569	44125	110834	0	0	8292	430164	0	0
2024-07-11 20:54:47			0	41047	0	0	0	29132	28320	148372	27343	1049292	44141	110831	0	0	8291	430683	0	0
2024-07-11 20:55:47			0	41047	0	0	0	29659	28290	148512	27038	1049616	44206	111034	0	0	8282	430758	0	0
2024-07-11 20:56:47			0	41043	0	0	0	29763	28300	148792	26979	1050101	44251	111074	0	0	8281	430867	0	0
2024-07-11 20:57:47			0	41042	0	0	0	29854	28320	148804	26904	1050316	44297	111109	0	0	8279	430851	0	0
2024-07-11 20:58:47			0	41038	0	0	0	29750	28350	149004	26715	1050503	44290	111069	0	0	8281	430911	0	0
2024-07-11 20:59:47			0	41034	0	0	0	29657	28360	148876	26830	1050413	44290	111033	0	0	8282	431020	0	0
2024-07-11 21:00:47			0	41023	0	0	0	29444	28350	148660	27156	1050027	44234	110951	0	0	8285	431415	0	0
2024-07-11 21:01:47			0	41039	0	0	0	29584	28320	148736	27085	1049840	44198	111005	0	0	8283	430952	0	0
2024-07-11 21:02:47			0	41017	0	0	0	29724	28320	148816	26998	1050019	44242	111059	0	0	8280	431692	0	0
2024-07-11 21:03:47			0	41014	0	0	0	29703	28320	148908	27066	1050100	44264	111051	0	0	8280	431793	0	0
2024-07-11 21:04:47			0	41016	0	0	0	29722	28320	148940	26755	1050163	44276	111058	0	0	8280	431725	0	0
2024-07-11 21:05:47			0	40994	0	0	0	29586	28330	148872	27258	1050145	44254	111006	0	0	8281	432441	0	0
2024-07-11 21:06:47			0	41006	0	0	0	29467	28320	148776	26826	1049858	44231	110960	0	0	8283	432062	0	0
2024-07-11 21:07:47			0	41020	0	0	0	29537	28300	148776	26878	1049777	44208	110987	0	0	8283	431641	0	0
2024-07-11 21:08:47			0	41003	0	0	0	29628	28270	148928	27424	1049886	44237	111022	0	0	8280	432288	0	0
2024-07-11 21:09:47			0	40996	0	0	0	29654	28280	148908	26913	1049868	44250	111032	0	0	8280	432499	0	0
2024-07-11 21:10:47			0	40994	0	0	0	29573	28270	148992	26878	1049913	44249	111001	0	0	8281	432591	0	0
2024-07-11 21:11:47			0	41008	0	0	0	29342	28270	148888	27001	1049608	44237	110912	0	0	8285	432119	0	0
2024-07-11 21:12:47			0	41005	0	0	0	29290	28230	148804	26970	1049195	44189	110892	0	0	8286	432320	0	0
2024-07-11 21:13:47			0	41017	0	0	0	29285	28200	148676	26916	1049080	44186	110890	0	0	8287	431991	0	0
2024-07-11 21:14:47			0	41016	0	0	0	29389	28170	148820	27116	1049116	44194	110930	0	0	8285	432100	0	0
2024-07-11 21:15:47			0	41005	0	0	0	29327	28150	148928	27107	1049027	44193	110906	0	0	8285	432520	0	0
2024-07-11 21:16:47			0	41021	0	0	0	29358	28140	148856	26958	1048974	44202	110918	0	0	8285	432006	0	0
2024-07-11 21:17:47			0	41009	0	0	0	29397	28130	148916	27329	1048965	44235	110933	0	0	8284	432435	0	0
2024-07-11 21:18:47			0	41010	0	0	0	29402	28120	148908	27230	1048938	44233	110935	0	0	8284	432427	0	0
2024-07-11 21:19:47			0	41015	0	0	0	29381	28120	148956	26918	1048938	44211	110927	0	0	8285	432258	0	0
2024-07-11 21:20:47			0	41027	0	0	0	29296	28090	148868	27097	1048876	44209	110894	0	0	8287	431929	0	0
2024-07-11 21:21:47			0	41032	0	0	0	29189	28070	148772	27076	1048491	44185	110853	0	0	8289	431810	0	0
2024-07-11 21:22:47			0	41034	0	0	0	29270	28050	148756	27173	1048447	44171	110884	0	0	8287	431793	0	0
2024-07-11 21:23:47			0	41059	0	0	0	29324	28030	148888	27171	1048501	44204	110905	0	0	8288	431001	0	0
2024-07-11 21:24:47			0	41043	0	0	0	29207	28010	148816	27118	1048349	44201	110860	0	0	8289	431589	0	0
2024-07-11 21:25:47			0	41067	0	0	0	29207	28000	148800	27267	1048259	44189	110860	0	0	8290	430806	0	0
2024-07-11 21:26:47			0	41068	0	0	0	29231	27990	148692	27118	1048188	44199	110869	0	0	8290	430798	0	0
2024-07-11 21:27:47			0	41060	0	0	0	29277	27970	148772	27048	1048252	44208	110887	0	0	8288	431116	0	0
2024-07-11 21:28:47			0	41074	0	0	0	29244	27970	148788	26776	1048252	44208	110874	0	0	8290	430645	0	0
2024-07-11 21:29:47			0	41072	0	0	0	29309	27960	148732	26750	1048243	44218	110899	0	0	8288	430738	0	0
2024-07-11 21:30:47			0	41084	0	0	0	29335	27960	148872	27163	1048270	44218	110909	0	0	8289	430334	0	0
2024-07-11 21:31:47			0	41080	0	0	0	29361	27960	148892	27211	1048431	44251	110919	0	0	8288	430468	0	0
2024-07-11 21:32:47			0	41091	0	0	0	29335	27980	148764	27211	1048431	44252	110909	0	0	8289	430049	0	0
2024-07-11 21:33:47			0	41079	0	0	0	29267	27970	148788	27215	1048278	44208	110883	0	0	8290	430477	0	0
2024-07-11 21:34:47			0	41104	0	0	0	29392	27960	148824	27164	1048342	44195	110931	0	0	8289	429662	0	0
2024-07-11 21:35:47			0	41104	0	0	0	29537	27960	148852	26987	1048611	44273	110987	0	0	8286	429662	0	0
2024-07-11 21:36:47			0	41076	0	0	0	29558	27990	149052	27133	1048807	44288	110995	0	0	8285	430528	0	0
2024-07-11 21:37:47			0	41087	0	0	0	29568	28020	148968	27232	1048905	44302	110999	0	0	8285	430084	0	0
2024-07-11 21:38:47			0	41073	0	0	0	29610	28050	149012	27015	1049120	44293	111015	0	0	8284	430480	0	0
2024-07-11 21:39:47			0	41082	0	0	0	29597	28060	149088	26833	1049137	44294	111010	0	0	8285	430153	0	0
2024-07-11 21:40:47			0	41072	0	0	0	29540	28080	148972	26920	1049182	44275	110988	0	0	8285	430440	0	0
2024-07-11 21:41:47			0	41072	0	0	0	29561	28080	148960	27033	1049101	44287	110996	0	0	8285	430440	0	0
2024-07-11 21:42:47			0	41092	0	0	0	29540	28090	149000	27225	1049172	44276	110988	0	0	8286	429743	0	0
2024-07-11 21:43:47			0	41080	0	0	0	29511	28090	148928	27102	1049145	44265	110977	0	0	8286	430146	0	0
2024-07-11 21:44:47			0	41079	0	0	0	29537	28090	148912	27098	1049145	44276	110987	0	0	8285	430179	0	0
2024-07-11 21:45:47			0	41058	0	0	0	29561	28110	148972	26935	1049163	44277	110996	0	0	8284	430836	0	0
2024-07-11 21:46:47			0	41053	0	0	0	29581	28120	148948	27239	1049234	44278	111004	0	0	8283	430979	0	0
2024-07-11 21:47:47			0	41069	0	0	0	29597	28130	148916	26977	1049333	44268	111010	0	0	8284	430416	0	0
2024-07-11 21:48:47			0	41060	0	0	0	29610	28130	148924	27050	1049396	44280	111015	0	0	8283	430719	0	0
2024-07-11 21:49:47			0	41038	0	0	0	29612	28130	148952	26989	1049423	44257	111016	0	0	8282	431459	0	0
2024-07-11 21:50:47			0	41053	0	0	0	29602	28150	149028	26975	1049368	44291	111012	0	0	8283	430904	0	0
2024-07-11 21:51:47			0	41067	0	0	0	29589	28150	148988	26788	1049458	44270	111007	0	0	8284	430434	0	0
2024-07-11 21:52:47			0	41055	0	0	0	29576	28160	148920	26651	1049395	44271	111002	0	0	8284	430812	0	0
2024-07-11 21:53:47			0	41060	0	0	0	29573	28160	148924	27123	1049386	44249	111001	0	0	8284	430644	0	0
2024-07-11 21:54:47			0	41055	0	0	0	29566	28160	148908	26731	1049395	44271	110998	0	0	8284	430812	0	0
2024-07-11 21:55:47			0	41048	0	0	0	29573	28160	148996	26956	1049395	44260	111001	0	0	8283	431048	0	0
2024-07-11 21:56:47			0	41045	0	0	0	29576	28160	148896	26828	1049395	44271	111002	0	0	8283	431149	0	0
2024-07-11 21:57:47			0	41061	0	0	0	29594	28160	148964	26852	1049395	44250	111009	0	0	8284	430610	0	0
2024-07-11 21:58:47			0	41044	0	0	0	29599	28170	148912	26941	1049520	44261	111011	0	0	8283	431157	0	0
2024-07-11 21:59:47			0	41049	0	0	0	29592	28170	149024	26849	1049512	44271	111008	0	0	8283	430989	0	0
2024-07-11 22:00:47			0	41045	0	0	0	29586	28170	149020	26981	1049547	44272	111006	0	0	8283	431124	0	0
2024-07-11 22:01:47			0	41047	0	0	0	29605	28170	148980	26868	1049547	44294	111013	0	0	8283	431056	0	0
2024-07-11 22:02:47			0	41034	0	0	0	29573	28180	148956	26805	1049529	44262	111001	0	0	8283	431469	0	0
2024-07-11 22:03:47			0	41047	0	0	0	29433	28180	148884	26852	1049484	44262	110947	0	0	8286	431031	0	0
2024-07-11 22:04:47			0	41055	0	0	0	29361	28180	148888	26823	1049296	44250	110919	0	0	8287	430762	0	0
2024-07-11 22:05:47			0	41065	0	0	0	29280	28160	148832	26984	1049009	44204	110888	0	0	8289	430476	0	0
2024-07-11 22:06:47			0	41066	0	0	0	29153	28120	148812	26899	1048624	44167	110839	0	0	8291	430542	0	0
2024-07-11 22:07:47			0	41078	0	0	0	29070	28060	148620	26831	1048177	44118	110807	0	0	8293	430288	0	0
2024-07-11 22:08:47			0	41067	0	0	0	29020	28020	148680	27066	1047909	44124	110788	0	0	8293	430757	0	0
2024-07-11 22:09:47			0	41067	0	0	0	28953	27960	148748	26922	1047651	44129	110762	0	0	8294	430906	0	0
2024-07-11 22:10:47			0	41081	0	0	0	28922	27910	148600	26915	1047482	44124	110750	0	0	8295	430559	0	0
2024-07-11 22:11:47			0	41097	0	0	0	28880	27880	148644	26906	1047231	44132	110734	0	0	8297	430095	0	0
2024-07-11 22:12:47			0	41079	0	0	0	28929	27840	148652	26604	1047116	44151	110753	0	0	8295	430800	0	0
2024-07-11 22:13:47			0	41094	0	0	0	28690	27790	148740	26703	1046741	44114	110661	0	0	8299	430419	0	0
2024-07-11 22:14:47			0	41109	0	0	0	28706	27730	148664	26831	1046437	44084	110667	0	0	8300	430063	0	0
2024-07-11 22:15:47			0	41121	0	0	0	28703	27700	148728	27310	1046331	44103	110666	0	0	8300	429734	0	0
2024-07-11 22:16:47			0	41118	0	0	0	28753	27660	148820	27067	1046269	44134	110685	0	0	8299	429934	0	0
2024-07-11 22:17:47			0	41133	0	0	0	28768	27650	148804	26786	1046350	44166	110691	0	0	8300	429454	0	0
2024-07-11 22:18:47			0	41113	0	0	0	28968	27650	148908	26814	1046619	44221	110768	0	0	8295	430127	0	0
2024-07-11 22:19:47			0	41098	0	0	0	29288	27680	149064	26840	1047183	44268	110891	0	0	8289	430558	0	0
2024-07-11 22:20:47			0	41108	0	0	0	29418	27720	149124	26790	1047586	44306	110941	0	0	8288	430122	0	0
2024-07-11 22:21:47			0	41102	0	0	0	29389	27770	149236	26807	1047907	44300	110930	0	0	8288	430200	0	0
2024-07-11 22:22:47			0	41097	0	0	0	29405	27810	149248	26887	1048077	44303	110936	0	0	8288	430269	0	0
2024-07-11 22:23:47			0	41097	0	0	0	29376	27850	149240	26875	1048120	44285	110925	0	0	8288	430170	0	0
2024-07-11 22:24:47			0	41096	0	0	0	29319	27870	149176	27185	1048075	44253	110903	0	0	8289	430154	0	0
2024-07-11 22:25:47			0	41085	0	0	0	29345	27860	149064	26906	1048120	44276	110913	0	0	8288	430548	0	0
2024-07-11 22:26:47			0	41084	0	0	0	29405	27890	149068	26937	1048334	44300	110936	0	0	8287	430508	0	0
2024-07-11 22:27:47			0	41074	0	0	0	29399	27910	149108	27024	1048478	44280	110934	0	0	8287	430794	0	0
2024-07-11 22:28:47			0	41086	0	0	0	29392	27920	149152	27081	1048414	44259	110931	0	0	8288	430366	0	0
2024-07-11 22:29:47			0	41069	0	0	0	29342	27940	149056	26845	1048414	44260	110912	0	0	8288	430888	0	0
2024-07-11 22:30:47			0	41072	0	0	0	29225	27940	149040	26911	1048252	44238	110867	0	0	8290	430787	0	0
2024-07-11 22:31:47			0	41083	0	0	0	29236	27920	149072	27175	1048118	44214	110871	0	0	8290	430467	0	0
2024-07-11 22:32:47			0	41073	0	0	0	29275	27910	148992	27092	1048101	44224	110886	0	0	8289	430828	0	0
2024-07-11 22:33:47			0	41091	0	0	0	29290	27910	148948	26989	1048155	44202	110892	0	0	8290	430223	0	0
2024-07-11 22:34:47			0	41095	0	0	0	29293	27900	148960	26991	1048137	44224	110893	0	0	8290	430113	0	0
2024-07-11 22:35:47			0	41071	0	0	0	29319	27910	148960	27171	1048181	44247	110903	0	0	8288	430895	0	0
2024-07-11 22:36:47			0	41091	0	0	0	29342	27900	149084	26949	1048137	44247	110912	0	0	8289	430247	0	0
2024-07-11 22:37:47			0	41081	0	0	0	29363	27920	149128	26998	1048271	44248	110920	0	0	8288	430534	0	0
2024-07-11 22:38:47			0	41077	0	0	0	29379	27920	149028	27204	1048352	44248	110926	0	0	8287	430669	0	0
2024-07-11 22:39:47			0	41080	0	0	0	29386	27930	149028	26856	1048405	44260	110929	0	0	8287	430543	0	0
2024-07-11 22:40:47			0	41073	0	0	0	29402	27940	149020	26972	1048450	44261	110935	0	0	8287	430754	0	0
2024-07-11 22:41:47			0	41092	0	0	0	29402	27950	149016	26901	1048575	44262	110935	0	0	8288	430090	0	0
2024-07-11 22:42:47			0	41090	0	0	0	29353	27950	149032	27074	1048440	44262	110916	0	0	8289	430157	0	0
2024-07-11 22:43:47			0	41102	0	0	0	29332	27960	148984	27128	1048431	44251	110908	0	0	8290	429729	0	0
2024-07-11 22:44:47			0	41109	0	0	0	29267	27960	148896	26597	1048288	44217	110883	0	0	8291	429494	0	0
2024-07-11 22:45:47			0	41097	0	0	0	29212	27940	148880	27268	1048154	44216	110862	0	0	8291	429947	0	0
2024-07-11 22:46:47			0	41091	0	0	0	29173	27920	148908	27137	1047948	44192	110847	0	0	8292	430198	0	0
2024-07-11 22:47:47			0	41121	0	0	0	29137	27910	148772	26594	1047805	44168	110833	0	0	8294	429215	0	0
2024-07-11 22:48:47			0	41108	0	0	0	29109	27880	148812	27038	1047725	44177	110822	0	0	8293	429726	0	0
2024-07-11 22:49:47			0	41115	0	0	0	29103	27870	148824	26932	1047734	44198	110820	0	0	8294	429515	0	0
2024-07-11 22:50:47			0	41101	0	0	0	29083	27860	148696	26819	1047600	44186	110812	0	0	8293	430010	0	0
2024-07-11 22:51:47			0	41118	0	0	0	29070	27850	148860	26833	1047528	44184	110807	0	0	8295	429464	0	0
2024-07-11 22:52:47			0	41129	0	0	0	29077	27830	148856	26729	1047475	44194	110810	0	0	8295	429144	0	0
2024-07-11 22:53:47			0	41116	0	0	0	29161	27830	148848	26658	1047628	44227	110842	0	0	8293	429581	0	0
2024-07-11 22:54:47			0	41116	0	0	0	29241	27840	148884	26949	1047780	44240	110873	0	0	8292	429556	0	0
2024-07-11 22:55:47			0	41107	0	0	0	29309	27850	149068	26909	1047887	44241	110899	0	0	8290	429834	0	0
2024-07-11 22:56:47			0	41086	0	0	0	29285	27860	149052	26864	1047985	44253	110890	0	0	8289	430515	0	0
2024-07-11 22:57:47			0	41108	0	0	0	29251	27860	148956	26552	1047931	44243	110877	0	0	8291	429775	0	0
2024-07-11 22:58:47			0	41111	0	0	0	29233	27870	148936	26922	1047913	44220	110870	0	0	8292	429649	0	0
2024-07-11 22:59:47			0	41115	0	0	0	29244	27880	148920	27111	1047823	44232	110874	0	0	8292	429490	0	0
2024-07-11 23:00:47			0	41120	0	0	0	29275	27880	148868	27166	1047931	44232	110886	0	0	8291	429322	0	0
2024-07-11 23:01:47			0	41121	0	0	0	29301	27880	148872	27001	1048039	44244	110896	0	0	8291	429289	0	0
2024-07-11 23:02:47			0	41133	0	0	0	29322	27890	148892	26970	1048110	44255	110904	0	0	8291	428861	0	0
2024-07-11 23:03:47			0	41124	0	0	0	29316	27890	148892	26547	1048083	44245	110902	0	0	8291	429163	0	0
2024-07-11 23:04:47			0	41141	0	0	0	29311	27880	148876	26979	1048155	44245	110900	0	0	8292	428617	0	0
2024-07-11 23:05:47			0	41141	0	0	0	29322	27890	148832	27145	1048173	44233	110904	0	0	8292	428593	0	0
2024-07-11 23:06:47			0	41136	0	0	0	29311	27900	148792	26739	1048128	44246	110900	0	0	8292	428736	0	0
2024-07-11 23:07:47			0	41140	0	0	0	29314	27900	148804	26778	1048137	44247	110901	0	0	8292	428601	0	0
2024-07-11 23:08:47			0	41159	0	0	0	29327	27910	148728	26974	1048200	44257	110906	0	0	8293	427939	0	0
2024-07-11 23:09:47			0	41160	0	0	0	29327	27920	148664	26913	1048253	44249	110906	0	0	8293	427881	0	0
2024-07-11 23:10:47			0	41151	0	0	0	29332	27920	148780	26847	1048280	44249	110908	0	0	8292	428183	0	0
2024-07-11 23:11:47			0	41151	0	0	0	29319	27920	148736	27071	1048244	44248	110903	0	0	8293	428183	0	0
2024-07-11 23:12:47			0	41196	0	0	0	29309	27930	148696	26654	1048297	44250	110899	0	0	8295	426650	0	0
2024-07-11 23:13:47			0	41164	0	0	0	29309	27910	148700	26894	1048155	44247	110899	0	0	8293	427772	0	0
2024-07-11 23:14:47			0	41153	0	0	0	29303	27910	148708	26651	1048208	44235	110897	0	0	8293	428141	0	0
2024-07-11 23:15:47			0	41177	0	0	0	29311	27910	148636	27078	1048262	44247	110900	0	0	8294	427336	0	0
2024-07-11 23:16:47			0	41194	0	0	0	29322	27920	148672	26800	1048307	44249	110904	0	0	8295	426742	0	0
2024-07-11 23:17:47			0	41193	0	0	0	29322	27930	148708	26837	1048262	44250	110904	0	0	8295	426751	0	0
2024-07-11 23:18:47			0	41185	0	0	0	29335	27940	148516	26691	1048306	44250	110909	0	0	8294	426994	0	0
2024-07-11 23:19:47			0	41190	0	0	0	29348	27940	148580	26833	1048396	44250	110914	0	0	8294	426827	0	0
2024-07-11 23:20:47			0	41203	0	0	0	29371	27930	148540	26951	1048378	44238	110923	0	0	8295	426416	0	0
2024-07-11 23:21:47			0	41190	0	0	0	29384	27950	148584	27173	1048432	44250	110928	0	0	8294	426802	0	0
2024-07-11 23:22:47			0	41198	0	0	0	29381	27950	148588	26942	1048458	44250	110927	0	0	8294	426534	0	0
2024-07-11 23:23:47			0	41215	0	0	0	29394	27960	148624	27291	1048422	44240	110932	0	0	8295	425941	0	0
2024-07-11 23:24:47			0	41222	0	0	0	29389	27950	148476	27076	1048413	44250	110930	0	0	8296	425731	0	0
2024-07-11 23:25:47			0	41226	0	0	0	29379	27960	148544	26720	1048449	44240	110926	0	0	8296	425573	0	0
2024-07-11 23:26:47			0	41219	0	0	0	29361	27950	148528	27005	1048360	44250	110919	0	0	8296	425831	0	0
2024-07-11 23:27:47			0	41242	0	0	0	29348	27960	148444	27255	1048404	44251	110914	0	0	8297	425038	0	0
2024-07-11 23:28:47			0	41233	0	0	0	29332	27960	148384	26965	1048368	44250	110908	0	0	8297	425339	0	0
2024-07-11 23:29:47			0	41233	0	0	0	29311	27950	148476	27142	1048279	44217	110900	0	0	8298	425363	0	0
2024-07-11 23:30:47			0	41246	0	0	0	29301	27950	148412	27017	1048333	44229	110896	0	0	8298	424929	0	0
2024-07-11 23:31:47			0	41230	0	0	0	29309	27940	148456	27000	1048315	44228	110899	0	0	8297	425488	0	0
2024-07-11 23:32:47			0	41240	0	0	0	29303	27940	148408	26920	1048261	44250	110897	0	0	8298	425154	0	0
2024-07-11 23:33:47			0	41253	0	0	0	29293	27930	148420	26724	1048217	44227	110893	0	0	8299	424744	0	0
2024-07-11 23:34:47			0	41241	0	0	0	29277	27940	148424	26830	1048234	44228	110887	0	0	8299	425121	0	0
2024-07-11 23:35:47			0	41238	0	0	0	29259	27930	148432	26925	1048181	44227	110880	0	0	8299	425245	0	0
2024-07-11 23:36:47			0	41238	0	0	0	29257	27930	148332	27048	1048190	44250	110879	0	0	8299	425245	0	0
2024-07-11 23:37:47			0	41265	0	0	0	29241	27910	148404	26748	1048020	44224	110873	0	0	8300	424392	0	0
2024-07-11 23:38:47			0	41264	0	0	0	29241	27910	148384	26873	1047984	44224	110873	0	0	8300	424426	0	0
2024-07-11 23:39:47			0	41273	0	0	0	29241	27910	148288	27092	1048047	44212	110873	0	0	8301	424125	0	0
2024-07-11 23:40:47			0	41255	0	0	0	29249	27890	148412	26935	1048038	44233	110876	0	0	8300	424775	0	0
2024-07-11 23:41:47			0	41259	0	0	0	29262	27900	148448	26975	1048110	44257	110881	0	0	8300	424617	0	0
2024-07-11 23:42:47			0	41271	0	0	0	29244	27900	148344	26802	1048083	44247	110874	0	0	8301	424216	0	0
2024-07-11 23:43:47			0	41268	0	0	0	29241	27890	148360	27029	1048092	44233	110873	0	0	8300	424341	0	0
2024-07-11 23:44:47			0	41260	0	0	0	29231	27900	148376	26779	1048083	44257	110869	0	0	8300	424584	0	0
2024-07-11 23:45:47			0	41261	0	0	0	29233	27890	148252	26731	1048038	44233	110870	0	0	8300	424575	0	0
2024-07-11 23:46:47			0	41269	0	0	0	29249	27890	148308	27128	1048065	44245	110876	0	0	8300	424308	0	0
2024-07-11 23:47:47			0	41292	0	0	0	29254	27900	148380	26890	1047966	44256	110878	0	0	8302	423516	0	0
2024-07-11 23:48:47			0	41270	0	0	0	29267	27900	148428	27048	1048083	44257	110883	0	0	8300	424250	0	0
2024-07-11 23:49:47			0	41285	0	0	0	29244	27900	148344	26871	1048074	44246	110874	0	0	8301	423749	0	0
2024-07-11 23:50:47			0	41280	0	0	0	29223	27890	148320	26658	1047904	44233	110866	0	0	8301	423940	0	0
2024-07-11 23:51:47			0	41294	0	0	0	29184	27890	148328	26866	1047895	44233	110851	0	0	8303	423473	0	0
2024-07-11 23:52:47			0	41286	0	0	0	29155	27880	148288	27163	1047823	44210	110840	0	0	8303	423765	0	0
2024-07-11 23:53:47			0	41298	0	0	0	29150	27860	148276	26701	1047770	44198	110838	0	0	8304	423413	0	0
2024-07-11 23:54:47			0	41298	0	0	0	29153	27860	148240	26849	1047743	44231	110839	0	0	8304	423413	0	0
2024-07-11 23:55:47			0	41306	0	0	0	29122	27850	148220	26769	1047752	44196	110827	0	0	8305	423171	0	0
2024-07-11 23:56:47			0	41263	0	0	0	29119	27850	148192	27131	1047672	44196	110826	0	0	8302	424606	0	0
2024-07-11 23:57:47			0	41300	0	0	0	29132	27840	148204	26906	1047645	44217	110831	0	0	8304	423395	0	0
2024-07-11 23:58:47			0	41311	0	0	0	29137	27830	148184	26760	1047628	44205	110833	0	0	8304	423053	0	0
2024-07-11 23:59:47			0	41292	0	0	0	29145	27830	148204	27005	1047655	44227	110836	0	0	8303	423687	0	0
2024-07-12 00:00:47			0	41290	0	0	0	29163	27830	148240	26967	1047583	44239	110843	0	0	8303	423753	0	0
2024-07-12 00:01:47			0	41296	0	0	0	29194	27830	148308	26871	1047717	44239	110855	0	0	8303	423553	0	0
2024-07-12 00:02:47			0	41323	0	0	0	29212	27820	148360	27071	1047619	44238	110862	0	0	8304	422677	0	0
2024-07-12 00:03:47			0	41323	0	0	0	29223	27840	148316	27130	1047735	44217	110866	0	0	8304	422628	0	0
2024-07-12 00:04:47			0	41319	0	0	0	29231	27830	148328	26582	1047771	44239	110869	0	0	8303	422786	0	0
2024-07-12 00:05:47			0	41319	0	0	0	29244	27840	148280	26727	1047780	44240	110874	0	0	8303	422762	0	0
2024-07-12 00:06:47			0	41314	0	0	0	29257	27840	148284	26882	1047842	44240	110879	0	0	8303	422928	0	0
2024-07-12 00:07:47			0	41309	0	0	0	29257	27850	148272	27202	1047833	44263	110879	0	0	8302	423071	0	0
2024-07-12 00:08:47			0	41309	0	0	0	29270	27850	148308	26838	1047851	44240	110884	0	0	8302	423071	0	0
2024-07-12 00:09:47			0	41314	0	0	0	29267	27850	148132	27112	1047833	44263	110883	0	0	8303	422904	0	0
2024-07-12 00:10:47			0	41337	0	0	0	29267	27850	148212	26949	1047860	44251	110883	0	0	8304	422137	0	0
2024-07-12 00:11:47			0	41332	0	0	0	29264	27850	148352	27209	1047878	44250	110882	0	0	8304	422304	0	0
2024-07-12 00:12:47			0	41324	0	0	0	29270	27860	148256	26743	1047851	44265	110884	0	0	8303	422546	0	0
2024-07-12 00:13:47			0	41317	0	0	0	29267	27860	148244	27265	1047869	44252	110883	0	0	8303	422780	0	0
2024-07-12 00:14:47			0	41339	0	0	0	29259	27860	148200	26984	1047842	44231	110880	0	0	8304	422047	0	0
2024-07-12 00:15:47			0	41312	0	0	0	29259	27850	148396	26935	1047887	44241	110880	0	0	8303	422971	0	0
2024-07-12 00:16:47			0	41309	0	0	0	29262	27850	148192	26823	1047914	44251	110881	0	0	8302	423071	0	0
2024-07-12 00:17:47			0	41298	0	0	0	29262	27850	148396	27022	1047887	44251	110881	0	0	8302	423438	0	0
2024-07-12 00:18:47			0	41296	0	0	0	29262	27850	148272	26920	1047887	44251	110881	0	0	8302	423504	0	0
2024-07-12 00:19:47			0	41306	0	0	0	29257	27860	148272	27241	1047896	44252	110879	0	0	8302	423146	0	0
2024-07-12 00:20:47			0	41299	0	0	0	29246	27860	148224	27227	1047851	44253	110875	0	0	8302	423380	0	0
2024-07-12 00:21:47			0	41292	0	0	0	29246	27850	148400	27008	1047860	44230	110875	0	0	8302	423638	0	0
2024-07-12 00:22:47			0	41282	0	0	0	29244	27860	148364	26911	1047896	44242	110874	0	0	8301	423947	0	0
2024-07-12 00:23:47			0	41290	0	0	0	29241	27850	148336	26989	1047824	44240	110873	0	0	8302	423704	0	0
2024-07-12 00:24:47			0	41280	0	0	0	29246	27850	148364	26909	1047860	44241	110875	0	0	8301	424038	0	0
2024-07-12 00:25:47			0	41288	0	0	0	29244	27840	148488	26894	1047815	44240	110874	0	0	8301	423796	0	0
2024-07-12 00:26:47			0	41289	0	0	0	29246	27850	148496	26876	1047860	44263	110875	0	0	8301	423738	0	0
2024-07-12 00:27:47			0	41285	0	0	0	29251	27850	148348	26849	1047860	44241	110877	0	0	8301	423871	0	0
2024-07-12 00:28:47			0	41277	0	0	0	29254	27860	148384	27010	1047896	44231	110878	0	0	8301	424114	0	0
2024-07-12 00:29:47			0	41279	0	0	0	29254	27850	148484	26989	1047878	44250	110878	0	0	8301	424072	0	0
2024-07-12 00:30:47			0	41281	0	0	0	29249	27860	148424	27090	1047869	44252	110876	0	0	8301	423981	0	0
2024-07-12 00:31:47			0	41271	0	0	0	29254	27840	148440	26913	1047815	44250	110878	0	0	8300	424363	0	0
2024-07-12 00:32:47			0	41285	0	0	0	29244	27840	148360	26899	1047834	44240	110874	0	0	8301	423896	0	0
2024-07-12 00:33:47			0	41289	0	0	0	29262	27840	148352	26857	1047815	44250	110881	0	0	8301	423762	0	0
2024-07-12 00:34:47			0	41293	0	0	0	29249	27850	148312	27223	1047860	44251	110876	0	0	8302	423604	0	0
2024-07-12 00:35:47			0	41279	0	0	0	29249	27850	148396	27048	1047770	44250	110876	0	0	8301	424072	0	0
2024-07-12 00:36:47			0	41293	0	0	0	29246	27850	148392	27019	1047878	44262	110875	0	0	8302	423604	0	0
2024-07-12 00:37:47			0	41297	0	0	0	29244	27850	148356	26866	1047878	44240	110874	0	0	8302	423471	0	0
2024-07-12 00:38:47			0	41281	0	0	0	29238	27850	148416	27038	1047770	44262	110872	0	0	8301	424005	0	0
2024-07-12 00:39:47			0	41313	0	0	0	29241	27850	148428	27060	1047833	44241	110873	0	0	8303	422937	0	0
2024-07-12 00:40:47			0	41279	0	0	0	29238	27850	148380	26750	1047824	44240	110872	0	0	8301	424072	0	0
2024-07-12 00:41:47			0	41281	0	0	0	29233	27840	148356	26679	1047789	44240	110870	0	0	8301	424029	0	0
2024-07-12 00:42:47			0	41307	0	0	0	29228	27840	148304	26857	1047842	44240	110868	0	0	8303	423162	0	0
2024-07-12 00:43:47			0	41303	0	0	0	29225	27840	148316	26923	1047789	44250	110867	0	0	8303	423295	0	0
2024-07-12 00:44:47			0	41300	0	0	0	29228	27840	148300	26981	1047699	44240	110868	0	0	8302	423395	0	0
2024-07-12 00:45:47			0	41298	0	0	0	29225	27840	148292	26961	1047780	44250	110867	0	0	8302	423462	0	0
2024-07-12 00:46:47			0	41302	0	0	0	29225	27840	148188	26894	1047807	44250	110867	0	0	8302	423329	0	0
2024-07-12 00:47:47			0	41305	0	0	0	29223	27840	148292	26975	1047726	44240	110866	0	0	8303	423228	0	0
2024-07-12 00:48:47			0	41300	0	0	0	29205	27840	148328	26882	1047699	44262	110859	0	0	8303	423395	0	0
2024-07-12 00:49:47			0	41305	0	0	0	29215	27830	148272	27085	1047681	44227	110863	0	0	8303	423253	0	0
2024-07-12 00:50:47			0	41291	0	0	0	29202	27840	148224	26753	1047726	44250	110858	0	0	8302	423695	0	0
2024-07-12 00:51:47			0	41317	0	0	0	29207	27830	148272	26953	1047708	44227	110860	0	0	8304	422853	0	0
2024-07-12 00:52:47			0	41305	0	0	0	29205	27820	148248	27015	1047673	44238	110859	0	0	8303	423277	0	0
2024-07-12 00:53:47			0	41311	0	0	0	29212	27830	148324	27059	1047708	44249	110862	0	0	8303	423053	0	0
2024-07-12 00:54:47			0	41317	0	0	0	29197	27820	148312	26573	1047673	44260	110856	0	0	8304	422877	0	0
2024-07-12 00:55:47			0	41318	0	0	0	29197	27820	148272	26897	1047664	44238	110856	0	0	8304	422844	0	0
2024-07-12 00:56:47			0	41310	0	0	0	29199	27820	148256	26932	1047753	44260	110857	0	0	8303	423110	0	0
2024-07-12 00:57:47			0	41334	0	0	0	29197	27820	148208	27331	1047583	44238	110856	0	0	8305	422310	0	0
2024-07-12 00:58:47			0	41319	0	0	0	29197	27820	148328	27064	1047637	44249	110856	0	0	8304	422810	0	0
2024-07-12 00:59:47			0	41324	0	0	0	29199	27800	148212	27152	1047584	44248	110857	0	0	8304	422692	0	0
2024-07-12 01:00:47			0	41330	0	0	0	29197	27810	148228	27142	1047628	44249	110856	0	0	8304	422468	0	0
2024-07-12 01:01:47			0	41346	0	0	0	29192	27810	148260	27161	1047628	44249	110854	0	0	8305	421935	0	0
2024-07-12 01:02:47			0	41331	0	0	0	29197	27810	148212	26870	1047592	44248	110856	0	0	8305	422435	0	0
2024-07-12 01:03:47			0	41361	0	0	0	29184	27820	148152	26765	1047610	44249	110851	0	0	8306	421411	0	0
2024-07-12 01:04:47			0	41354	0	0	0	29192	27790	148232	27201	1047521	44248	110854	0	0	8306	421717	0	0
2024-07-12 01:05:47			0	41365	0	0	0	29189	27790	148096	27052	1047593	44247	110853	0	0	8307	421351	0	0
2024-07-12 01:06:47			0	41351	0	0	0	29179	27800	148176	27147	1047557	44225	110849	0	0	8306	421793	0	0
2024-07-12 01:07:47			0	41378	0	0	0	29171	27790	148184	26812	1047512	44235	110846	0	0	8308	420919	0	0
2024-07-12 01:08:47			0	41376	0	0	0	29179	27800	148180	26949	1047530	44248	110849	0	0	8307	420961	0	0
2024-07-12 01:09:47			0	41382	0	0	0	29168	27800	148060	27168	1047610	44248	110845	0	0	8308	420761	0	0
2024-07-12 01:10:47			0	41385	0	0	0	29173	27770	148148	27105	1047512	44245	110847	0	0	8308	420734	0	0
2024-07-12 01:11:47			0	41382	0	0	0	29166	27780	148056	26889	1047530	44223	110844	0	0	8308	420810	0	0
2024-07-12 01:12:47			0	41383	0	0	0	29173	27790	148108	26878	1047539	44247	110847	0	0	8308	420752	0	0
2024-07-12 01:13:47			0	41378	0	0	0	29171	27790	148024	26967	1047539	44257	110846	0	0	8308	420919	0	0
2024-07-12 01:14:47			0	41381	0	0	0	29163	27780	147984	27220	1047503	44234	110843	0	0	8308	420843	0	0
2024-07-12 01:15:47			0	41388	0	0	0	29168	27780	148016	26861	1047494	44245	110845	0	0	8308	420610	0	0
2024-07-12 01:16:47			0	41390	0	0	0	29163	27770	147956	26856	1047485	44222	110843	0	0	8308	420568	0	0
2024-07-12 01:17:47			0	41416	0	0	0	29158	27780	148056	26781	1047467	44233	110841	0	0	8310	419680	0	0
2024-07-12 01:18:47			0	41387	0	0	0	29158	27770	148012	26939	1047458	44255	110841	0	0	8308	420668	0	0
2024-07-12 01:19:47			0	41391	0	0	0	29155	27760	148116	26694	1047495	44244	110840	0	0	8308	420559	0	0
2024-07-12 01:20:47			0	41421	0	0	0	29163	27770	148056	27031	1047450	44233	110843	0	0	8310	419538	0	0
2024-07-12 01:21:47			0	41406	0	0	0	29142	27770	148100	27175	1047423	44255	110835	0	0	8310	420036	0	0
2024-07-12 01:22:47			0	41412	0	0	0	29132	27760	148040	26868	1047414	44244	110831	0	0	8310	419861	0	0
2024-07-12 01:23:47			0	41419	0	0	0	29124	27760	148072	26916	1047351	44231	110828	0	0	8311	419628	0	0
2024-07-12 01:24:47			0	41401	0	0	0	29116	27750	148048	26677	1047316	44231	110825	0	0	8310	420251	0	0
2024-07-12 01:25:47			0	41409	0	0	0	29090	27750	148104	26937	1047289	44231	110815	0	0	8311	419985	0	0
2024-07-12 01:26:47			0	41416	0	0	0	29083	27740	148004	26878	1047235	44218	110812	0	0	8311	419776	0	0
2024-07-12 01:27:47			0	41423	0	0	0	29088	27730	148076	26861	1047245	44218	110814	0	0	8311	419568	0	0
2024-07-12 01:28:47			0	41414	0	0	0	29072	27740	148020	26953	1047208	44218	110808	0	0	8311	419843	0	0
2024-07-12 01:29:47			0	41415	0	0	0	29070	27730	148020	26854	1047110	44230	110807	0	0	8311	419834	0	0
2024-07-12 01:30:47			0	41428	0	0	0	29075	27730	148041	26798	1047146	44241	110809	0	0	8312	419402	0	0
2024-07-12 01:31:47			0	41415	0	0	0	29057	27720	148068	27052	1047119	44228	110802	0	0	8311	419858	0	0
2024-07-12 01:32:47			0	41423	0	0	0	29031	27710	148065	26949	1047057	44228	110792	0	0	8312	419616	0	0
2024-07-12 01:33:47			0	41413	0	0	0	28994	27690	148060	26856	1046941	44203	110778	0	0	8312	419997	0	0
2024-07-12 01:34:47			0	41407	0	0	0	28948	27680	148092	27156	1046780	44191	110760	0	0	8313	420220	0	0
2024-07-12 01:35:47			0	41421	0	0	0	28906	27650	148093	26812	1046628	44176	110744	0	0	8314	419828	0	0
2024-07-12 01:36:47			0	41429	0	0	0	28872	27630	148048	27313	1046512	44186	110731	0	0	8315	419610	0	0
2024-07-12 01:37:47			0	41431	0	0	0	28844	27610	148013	27116	1046342	44173	110720	0	0	8315	419592	0	0
2024-07-12 01:38:47			0	41407	0	0	0	28825	27590	148068	27216	1046226	44171	110713	0	0	8314	420438	0	0
2024-07-12 01:39:47			0	41410	0	0	0	28799	27570	148124	27275	1046245	44169	110703	0	0	8315	420387	0	0
2024-07-12 01:40:47			0	41406	0	0	0	28781	27550	148120	27079	1046093	44166	110696	0	0	8315	420568	0	0
2024-07-12 01:41:47			0	41403	0	0	0	28768	27540	148264	27213	1045941	44166	110691	0	0	8315	420692	0	0
2024-07-12 01:42:47			0	41415	0	0	0	28740	27510	148268	27163	1045870	44163	110680	0	0	8316	420366	0	0
2024-07-12 01:43:47			0	41396	0	0	0	28711	27490	148228	27057	1045736	44162	110669	0	0	8315	421046	0	0
2024-07-12 01:44:47			0	41389	0	0	0	28690	27470	148128	26928	1045566	44160	110661	0	0	8315	421328	0	0
2024-07-12 01:45:47			0	41393	0	0	0	28670	27430	148268	27060	1045469	44167	110653	0	0	8315	421292	0	0
2024-07-12 01:46:47			0	41405	0	0	0	28644	27430	148208	26946	1045469	44178	110643	0	0	8317	420892	0	0
2024-07-12 01:47:47			0	41409	0	0	0	28628	27410	148256	26882	1045380	44175	110637	0	0	8317	420807	0	0
2024-07-12 01:48:47			0	41396	0	0	0	28649	27390	148268	26996	1045344	44196	110645	0	0	8316	421289	0	0
2024-07-12 01:49:47			0	41374	0	0	0	28649	27410	148332	27107	1045397	44209	110645	0	0	8315	421973	0	0
2024-07-12 01:50:47			0	41391	0	0	0	28636	27390	148380	26795	1045371	44163	110640	0	0	8316	421455	0	0
2024-07-12 01:51:47			0	41378	0	0	0	28620	27380	148356	26958	1045353	44195	110634	0	0	8315	421913	0	0
2024-07-12 01:52:47			0	41391	0	0	0	28631	27370	148360	26911	1045309	44206	110638	0	0	8316	421504	0	0
2024-07-12 01:53:47			0	41387	0	0	0	28649	27370	148348	26609	1045300	44194	110645	0	0	8315	421637	0	0
2024-07-12 01:54:47			0	41391	0	0	0	28690	27360	148384	26961	1045336	44204	110661	0	0	8315	421528	0	0
2024-07-12 01:55:47			0	41386	0	0	0	28724	27360	148420	26771	1045363	44214	110674	0	0	8314	421695	0	0
2024-07-12 01:56:47			0	41377	0	0	0	28740	27370	148480	26998	1045497	44216	110680	0	0	8313	421970	0	0
2024-07-12 01:57:47			0	41381	0	0	0	28740	27370	148524	26686	1045524	44206	110680	0	0	8313	421837	0	0
2024-07-12 01:58:47			0	41384	0	0	0	28729	27370	148388	27048	1045435	44194	110676	0	0	8314	421737	0	0
2024-07-12 01:59:47			0	41394	0	0	0	28740	27370	148456	27118	1045443	44194	110680	0	0	8314	421404	0	0
2024-07-12 02:00:47			0	41415	0	0	0	28745	27380	148432	26979	1045452	44206	110682	0	0	8315	420680	0	0
2024-07-12 02:01:47			0	41392	0	0	0	28745	27370	148432	27175	1045488	44206	110682	0	0	8314	421470	0	0
2024-07-12 02:02:47			0	41376	0	0	0	28732	27370	148424	26781	1045417	44206	110677	0	0	8313	422004	0	0
2024-07-12 02:03:47			0	41423	0	0	0	28729	27370	148393	26715	1045497	44206	110676	0	0	8316	420438	0	0
2024-07-12 02:04:47			0	41403	0	0	0	28727	27370	148428	26812	1045443	44206	110675	0	0	8315	421104	0	0
2024-07-12 02:05:47			0	41385	0	0	0	28729	27360	148396	26639	1045372	44205	110676	0	0	8314	421728	0	0
2024-07-12 02:06:47			0	41416	0	0	0	28724	27370	148284	26816	1045417	44206	110674	0	0	8316	420671	0	0
2024-07-12 02:07:47			0	41429	0	0	0	28727	27360	148369	27105	1045399	44205	110675	0	0	8316	420262	0	0
2024-07-12 02:08:47			0	41419	0	0	0	28719	27360	148376	27225	1045372	44193	110672	0	0	8316	420595	0	0
2024-07-12 02:09:47			0	41429	0	0	0	28701	27350	148261	26850	1045354	44193	110665	0	0	8317	420286	0	0
2024-07-12 02:10:47			0	41419	0	0	0	28685	27360	148401	26637	1045318	44193	110659	0	0	8316	420595	0	0
2024-07-12 02:11:47			0	41436	0	0	0	28670	27350	148261	26864	1045238	44181	110653	0	0	8318	420054	0	0
2024-07-12 02:12:47			0	41445	0	0	0	28664	27350	148265	27008	1045292	44193	110651	0	0	8318	419754	0	0
2024-07-12 02:13:47			0	41442	0	0	0	28644	27340	148289	27029	1045220	44191	110643	0	0	8318	419878	0	0
2024-07-12 02:14:47			0	41465	0	0	0	28620	27330	148253	26946	1045158	44178	110634	0	0	8320	419137	0	0
2024-07-12 02:15:47			0	41463	0	0	0	28586	27330	148209	26786	1045131	44190	110621	0	0	8320	419204	0	0
2024-07-12 02:16:47			0	41470	0	0	0	28597	27330	148209	26915	1045149	44190	110625	0	0	8321	418971	0	0
2024-07-12 02:17:47			0	41452	0	0	0	28602	27310	148185	26811	1045123	44199	110627	0	0	8319	419618	0	0
2024-07-12 02:18:47			0	41440	0	0	0	28602	27300	148181	26961	1045105	44188	110627	0	0	8319	420041	0	0
2024-07-12 02:19:47			0	41443	0	0	0	28610	27300	148225	26804	1045078	44188	110630	0	0	8319	419941	0	0
2024-07-12 02:20:47			0	41455	0	0	0	28644	27300	148301	26949	1045051	44155	110643	0	0	8319	419542	0	0
2024-07-12 02:21:47			0	41454	0	0	0	28638	27290	148305	27078	1045061	44174	110641	0	0	8319	419599	0	0
2024-07-12 02:22:47			0	41453	0	0	0	28623	27280	148345	26786	1044962	44186	110635	0	0	8319	419657	0	0
2024-07-12 02:23:47			0	41450	0	0	0	28602	27280	148385	26764	1044828	44174	110627	0	0	8319	419757	0	0
2024-07-12 02:24:47			0	41461	0	0	0	28579	27270	148209	26883	1044810	44162	110618	0	0	8320	419415	0	0
2024-07-12 02:25:47			0	41461	0	0	0	28558	27250	148293	27124	1044739	44148	110610	0	0	8320	419463	0	0
2024-07-12 02:26:47			0	41458	0	0	0	28548	27240	148341	26899	1044677	44159	110606	0	0	8320	419587	0	0
2024-07-12 02:27:47			0	41448	0	0	0	28529	27230	148329	27190	1044623	44146	110599	0	0	8320	419944	0	0
2024-07-12 02:28:47			0	41472	0	0	0	28529	27220	148301	27026	1044641	44179	110599	0	0	8321	419169	0	0
2024-07-12 02:29:47			0	41447	0	0	0	28527	27210	148277	27187	1044597	44145	110598	0	0	8320	420025	0	0
2024-07-12 02:30:47			0	41471	0	0	0	28516	27210	148297	26925	1044516	44178	110594	0	0	8322	419227	0	0
2024-07-12 02:31:47			0	41464	0	0	0	28516	27190	148237	27161	1044463	44166	110594	0	0	8321	419508	0	0
2024-07-12 02:32:47			0	41475	0	0	0	28514	27180	148213	27131	1044499	44175	110593	0	0	8322	419166	0	0
2024-07-12 02:33:47			0	41465	0	0	0	28514	27180	148361	26897	1044464	44174	110593	0	0	8321	419499	0	0
2024-07-12 02:34:47			0	41474	0	0	0	28506	27180	148305	27168	1044419	44175	110590	0	0	8322	419199	0	0
2024-07-12 02:35:47			0	41475	0	0	0	28498	27170	148297	26932	1044365	44164	110587	0	0	8322	419190	0	0
2024-07-12 02:36:47			0	41488	0	0	0	28501	27170	148181	26941	1044374	44164	110588	0	0	8323	418758	0	0
2024-07-12 02:37:47			0	41483	0	0	0	28511	27160	148185	27196	1044383	44173	110592	0	0	8322	418948	0	0
2024-07-12 02:38:47			0	41496	0	0	0	28514	27160	148217	26979	1044464	44163	110593	0	0	8323	418516	0	0
2024-07-12 02:39:47			0	41497	0	0	0	28514	27160	148185	26778	1044383	44173	110593	0	0	8323	418483	0	0
2024-07-12 02:40:47			0	41486	0	0	0	28509	27160	148245	27150	1044374	44162	110591	0	0	8322	418848	0	0
2024-07-12 02:41:47			0	41509	0	0	0	28506	27150	148297	27253	1044339	44172	110590	0	0	8324	418108	0	0
2024-07-12 02:42:47			0	41521	0	0	0	28496	27140	148229	27052	1044321	44183	110586	0	0	8324	417734	0	0
2024-07-12 02:43:47			0	41508	0	0	0	28490	27140	148201	27130	1044294	44172	110584	0	0	8324	418165	0	0
2024-07-12 02:44:47			0	41524	0	0	0	28483	27130	148177	26826	1044277	44171	110581	0	0	8325	417658	0	0
2024-07-12 02:45:47			0	41524	0	0	0	28480	27130	148117	27000	1044250	44182	110580	0	0	8325	417658	0	0
2024-07-12 02:46:47			0	41514	0	0	0	28475	27130	148121	26883	1044160	44181	110578	0	0	8324	417990	0	0
2024-07-12 02:47:47			0	41538	0	0	0	28467	27120	148189	26866	1044152	44148	110575	0	0	8326	417217	0	0
2024-07-12 02:48:47			0	41531	0	0	0	28464	27120	148153	27057	1044089	44180	110574	0	0	8326	417450	0	0
2024-07-12 02:49:47			0	41544	0	0	0	28449	27110	148149	27015	1044053	44179	110568	0	0	8326	417042	0	0
2024-07-12 02:50:47			0	41534	0	0	0	28451	27110	148097	27076	1044053	44179	110569	0	0	8326	417374	0	0
2024-07-12 02:51:47			0	41554	0	0	0	28451	27100	148161	27019	1044000	44178	110569	0	0	8327	416734	0	0
2024-07-12 02:52:47			0	41552	0	0	0	28444	27100	148041	27242	1044027	44156	110566	0	0	8327	416801	0	0
2024-07-12 02:53:47			0	41548	0	0	0	28449	27090	148133	27244	1043991	44155	110568	0	0	8327	416957	0	0
2024-07-12 02:54:47			0	41552	0	0	0	28449	27090	148073	27303	1044036	44189	110568	0	0	8327	416825	0	0
2024-07-12 02:55:47			0	41559	0	0	0	28457	27090	148117	27203	1043983	44189	110571	0	0	8327	416592	0	0
2024-07-12 02:56:47			0	41560	0	0	0	28470	27100	148181	26890	1044027	44178	110576	0	0	8327	416535	0	0
2024-07-12 02:57:47			0	41568	0	0	0	28459	27090	148225	26819	1044045	44189	110572	0	0	8328	416294	0	0
2024-07-12 02:58:47			0	41560	0	0	0	28470	27080	148249	26708	1044054	44189	110576	0	0	8327	416583	0	0
2024-07-12 02:59:47			0	41555	0	0	0	28475	27100	148177	27019	1044108	44190	110578	0	0	8327	416701	0	0
2024-07-12 03:00:47			0	41546	0	0	0	28480	27100	148245	27055	1044108	44178	110580	0	0	8326	417000	0	0
2024-07-12 03:01:47			0	41563	0	0	0	28488	27100	148225	27126	1044188	44190	110583	0	0	8327	416436	0	0
2024-07-12 03:02:47			0	41554	0	0	0	28490	27100	148225	27383	1044224	44191	110584	0	0	8326	416734	0	0
2024-07-12 03:03:47			0	41553	0	0	0	28511	27110	148193	26987	1044260	44191	110592	0	0	8326	416744	0	0
2024-07-12 03:04:47			0	41568	0	0	0	28532	27120	148153	26863	1044304	44213	110600	0	0	8326	416222	0	0
2024-07-12 03:05:47			0	41551	0	0	0	28540	27120	148181	27003	1044393	44204	110603	0	0	8325	416786	0	0
2024-07-12 03:06:47			0	41558	0	0	0	28540	27120	148181	26896	1044367	44192	110603	0	0	8326	416554	0	0
2024-07-12 03:07:47			0	41565	0	0	0	28555	27130	148073	26868	1044438	44215	110609	0	0	8326	416298	0	0
2024-07-12 03:08:47			0	41557	0	0	0	28566	27140	148165	26916	1044447	44205	110613	0	0	8325	416539	0	0
2024-07-12 03:09:47			0	41576	0	0	0	28571	27150	148005	26830	1044437	44184	110615	0	0	8326	415886	0	0
2024-07-12 03:10:47			0	41576	0	0	0	28571	27150	148081	26861	1044500	44195	110615	0	0	8326	415886	0	0
2024-07-12 03:11:47			0	41589	0	0	0	28573	27150	148129	27057	1044446	44195	110616	0	0	8327	415455	0	0
2024-07-12 03:12:47			0	41586	0	0	0	28579	27160	148021	26804	1044563	44195	110618	0	0	8327	415531	0	0
2024-07-12 03:13:47			0	41613	0	0	0	28584	27160	148117	27109	1044599	44196	110620	0	0	8328	414637	0	0
2024-07-12 03:14:47			0	41583	0	0	0	28586	27170	148033	27086	1044554	44197	110621	0	0	8327	415606	0	0
2024-07-12 03:15:47			0	41617	0	0	0	28589	27170	148009	27211	1044580	44197	110622	0	0	8329	414481	0	0
2024-07-12 03:16:47			0	41582	0	0	0	28597	27180	148021	26953	1044652	44197	110625	0	0	8326	415615	0	0
2024-07-12 03:17:47			0	41586	0	0	0	28594	27180	148001	27090	1044553	44198	110624	0	0	8327	415483	0	0
2024-07-12 03:18:47			0	41574	0	0	0	28605	27180	148029	26819	1044598	44186	110628	0	0	8326	415880	0	0
2024-07-12 03:19:47			0	41582	0	0	0	28597	27180	148013	26845	1044661	44198	110625	0	0	8326	415615	0	0
2024-07-12 03:20:47			0	41585	0	0	0	28599	27170	147929	26986	1044616	44186	110626	0	0	8327	415540	0	0
2024-07-12 03:21:47			0	41582	0	0	0	28592	27180	148065	26909	1044634	44198	110623	0	0	8327	415615	0	0
2024-07-12 03:22:47			0	41583	0	0	0	28605	27190	148101	27036	1044624	44209	110628	0	0	8326	415558	0	0
2024-07-12 03:23:47			0	41583	0	0	0	28599	27190	148093	26979	1044642	44199	110626	0	0	8327	415558	0	0
2024-07-12 03:24:47			0	41566	0	0	0	28612	27190	148029	27034	1044678	44209	110631	0	0	8325	416121	0	0
2024-07-12 03:25:47			0	41575	0	0	0	28607	27190	148117	26948	1044624	44209	110629	0	0	8326	415823	0	0
2024-07-12 03:26:47			0	41562	0	0	0	28618	27200	148089	26805	1044750	44200	110633	0	0	8325	416230	0	0
2024-07-12 03:27:47			0	41544	0	0	0	28625	27200	148149	26955	1044669	44189	110636	0	0	8324	416827	0	0
2024-07-12 03:28:47			0	41551	0	0	0	28618	27210	148117	26788	1044794	44202	110633	0	0	8324	416571	0	0
2024-07-12 03:29:47			0	41550	0	0	0	28631	27210	147989	26719	1044812	44190	110638	0	0	8324	416604	0	0
2024-07-12 03:30:47			0	41538	0	0	0	28646	27230	148089	26866	1044812	44191	110644	0	0	8323	416954	0	0
2024-07-12 03:31:47			0	41543	0	0	0	28644	27220	148085	26927	1044803	44202	110643	0	0	8324	416812	0	0
2024-07-12 03:32:47			0	41531	0	0	0	28644	27220	148197	26764	1044857	44212	110643	0	0	8323	417210	0	0
2024-07-12 03:33:47			0	41517	0	0	0	28657	27220	148149	26750	1044803	44202	110648	0	0	8322	417675	0	0
2024-07-12 03:34:47			0	41510	0	0	0	28654	27240	148229	26804	1044910	44204	110647	0	0	8322	417859	0	0
2024-07-12 03:35:47			0	41516	0	0	0	28662	27240	148169	26651	1044919	44204	110650	0	0	8322	417660	0	0
2024-07-12 03:36:47			0	41501	0	0	0	28657	27240	148201	26868	1044919	44214	110648	0	0	8321	418158	0	0
2024-07-12 03:37:47			0	41480	0	0	0	28654	27240	148277	26729	1044999	44204	110647	0	0	8320	418855	0	0
2024-07-12 03:38:47			0	41494	0	0	0	28657	27240	148317	27105	1044883	44214	110648	0	0	8321	418390	0	0
2024-07-12 03:39:47			0	41488	0	0	0	28657	27240	148273	27029	1044910	44192	110648	0	0	8320	418590	0	0
2024-07-12 03:40:47			0	41476	0	0	0	28657	27240	148369	26894	1044892	44192	110648	0	0	8320	418988	0	0
2024-07-12 03:41:47			0	41484	0	0	0	28659	27250	148301	27093	1044874	44204	110649	0	0	8320	418698	0	0
2024-07-12 03:42:47			0	41477	0	0	0	28664	27240	148345	26776	1044919	44204	110651	0	0	8320	418955	0	0
2024-07-12 03:43:47			0	41461	0	0	0	28657	27240	148357	26994	1044919	44192	110648	0	0	8319	419487	0	0
2024-07-12 03:44:47			0	41474	0	0	0	28654	27260	148321	26859	1044972	44194	110647	0	0	8320	419007	0	0
2024-07-12 03:45:47			0	41466	0	0	0	28657	27260	148305	27045	1044918	44206	110648	0	0	8319	419273	0	0
2024-07-12 03:46:47			0	41450	0	0	0	28662	27250	148301	26752	1044954	44192	110650	0	0	8318	419829	0	0
2024-07-12 03:47:47			0	41466	0	0	0	28659	27250	148213	26984	1044963	44205	110649	0	0	8319	419297	0	0
2024-07-12 03:48:47			0	41487	0	0	0	28664	27260	148149	27362	1044945	44183	110651	0	0	8320	418575	0	0
2024-07-12 03:49:47			0	41472	0	0	0	28662	27260	148257	27017	1044972	44206	110650	0	0	8319	419073	0	0
2024-07-12 03:50:47			0	41463	0	0	0	28664	27250	148173	26772	1044909	44205	110651	0	0	8319	419397	0	0
2024-07-12 03:51:47			0	41493	0	0	0	28662	27260	148197	26849	1044954	44194	110650	0	0	8321	418375	0	0
2024-07-12 03:52:47			0	41486	0	0	0	28667	27260	148201	26785	1044972	44206	110652	0	0	8320	418608	0	0
2024-07-12 03:53:47			0	41477	0	0	0	28664	27260	148133	26691	1044981	44206	110651	0	0	8320	418907	0	0
2024-07-12 03:54:47			0	41475	0	0	0	28667	27260	148257	26911	1044981	44194	110652	0	0	8319	418973	0	0
2024-07-12 03:55:47			0	41499	0	0	0	28654	27260	148277	27239	1044981	44206	110647	0	0	8321	418176	0	0
2024-07-12 03:56:47			0	41475	0	0	0	28659	27250	148297	26778	1044963	44205	110649	0	0	8320	418997	0	0
2024-07-12 03:57:47			0	41500	0	0	0	28657	27260	148245	26949	1045008	44194	110648	0	0	8321	418143	0	0
2024-07-12 03:58:47			0	41520	0	0	0	28657	27250	148205	26915	1044990	44193	110648	0	0	8322	417503	0	0
2024-07-12 03:59:47			0	41515	0	0	0	28651	27260	148197	26956	1045008	44216	110646	0	0	8322	417645	0	0
2024-07-12 04:00:47			0	41544	0	0	0	28654	27260	148133	26821	1044954	44206	110647	0	0	8324	416683	0	0
2024-07-12 04:01:47			0	41533	0	0	0	28651	27260	148101	26840	1044972	44194	110646	0	0	8323	417048	0	0
2024-07-12 04:02:47			0	41541	0	0	0	28651	27270	148069	26953	1044909	44206	110646	0	0	8324	416759	0	0
2024-07-12 04:03:47			0	41546	0	0	0	28657	27250	148149	27230	1044936	44193	110648	0	0	8324	416641	0	0
2024-07-12 04:04:47			0	41571	0	0	0	28644	27250	148073	26868	1045017	44193	110643	0	0	8325	415812	0	0
2024-07-12 04:05:47			0	41544	0	0	0	28651	27250	148005	27123	1044963	44193	110646	0	0	8324	416707	0	0
2024-07-12 04:06:47			0	41570	0	0	0	28659	27260	148149	27166	1044954	44194	110649	0	0	8325	415822	0	0
2024-07-12 04:07:47			0	41571	0	0	0	28649	27260	147961	27128	1044954	44194	110645	0	0	8325	415789	0	0
2024-07-12 04:08:47			0	41581	0	0	0	28646	27260	148041	27069	1044918	44206	110644	0	0	8326	415457	0	0
2024-07-12 04:09:47			0	41575	0	0	0	28646	27250	147913	27123	1044963	44205	110644	0	0	8326	415680	0	0
2024-07-12 04:10:47			0	41585	0	0	0	28651	27260	147905	27185	1045034	44194	110646	0	0	8326	415325	0	0
2024-07-12 04:11:47			0	41600	0	0	0	28646	27260	148017	26942	1044918	44216	110644	0	0	8327	414829	0	0
2024-07-12 04:12:47			0	41602	0	0	0	28644	27250	147893	27013	1044909	44205	110643	0	0	8327	414786	0	0
2024-07-12 04:13:47			0	41594	0	0	0	28651	27260	147889	27109	1044891	44216	110646	0	0	8327	415027	0	0
2024-07-12 04:14:47			0	41619	0	0	0	28649	27250	147765	26844	1044936	44215	110645	0	0	8328	414224	0	0
2024-07-12 04:15:47			0	41617	0	0	0	28638	27260	147709	26883	1044927	44194	110641	0	0	8328	414267	0	0
2024-07-12 04:16:47			0	41633	0	0	0	28644	27250	147713	26955	1044882	44215	110643	0	0	8329	413762	0	0
2024-07-12 04:17:47			0	41643	0	0	0	28646	27250	147797	26844	1044936	44193	110644	0	0	8329	413432	0	0
2024-07-12 04:18:47			0	41631	0	0	0	28649	27250	147665	26871	1044936	44215	110645	0	0	8329	413828	0	0
2024-07-12 04:19:47			0	41656	0	0	0	28651	27250	147713	26981	1045008	44204	110646	0	0	8330	413002	0	0
2024-07-12 04:20:47			0	41648	0	0	0	28649	27260	147753	27386	1044972	44206	110645	0	0	8330	413243	0	0
2024-07-12 04:21:47			0	41654	0	0	0	28649	27260	147601	27076	1044918	44206	110645	0	0	8330	413045	0	0
2024-07-12 04:22:47			0	41679	0	0	0	28646	27260	147757	27048	1044981	44216	110644	0	0	8332	412220	0	0
2024-07-12 04:23:47			0	41676	0	0	0	28654	27250	147669	27357	1044963	44193	110647	0	0	8331	412343	0	0
2024-07-12 04:24:47			0	41688	0	0	0	28654	27250	147641	27343	1044990	44205	110647	0	0	8332	411947	0	0
2024-07-12 04:25:47			0	41676	0	0	0	28659	27250	147557	26913	1044963	44215	110649	0	0	8331	412343	0	0
2024-07-12 04:26:47			0	41694	0	0	0	28662	27250	147589	27052	1044990	44215	110650	0	0	8332	411749	0	0
2024-07-12 04:27:47			0	41696	0	0	0	28667	27260	147493	27216	1045034	44206	110652	0	0	8332	411660	0	0
2024-07-12 04:28:47			0	41708	0	0	0	28667	27270	147557	27402	1045070	44206	110652	0	0	8333	411241	0	0
2024-07-12 04:29:47			0	41703	0	0	0	28662	27270	147533	27256	1045052	44217	110650	0	0	8333	411405	0	0
2024-07-12 04:30:47			0	41718	0	0	0	28670	27270	147449	27137	1045070	44216	110653	0	0	8333	410911	0	0
2024-07-12 04:31:47			0	41715	0	0	0	28677	27270	147409	27206	1045079	44207	110656	0	0	8333	411010	0	0
2024-07-12 04:32:47			0	41729	0	0	0	28677	27270	147477	26684	1045016	44228	110656	0	0	8334	410549	0	0
2024-07-12 04:33:47			0	41704	0	0	0	28683	27270	147377	27355	1045079	44195	110658	0	0	8332	411372	0	0
2024-07-12 04:34:47			0	41728	0	0	0	28680	27280	147341	26960	1045115	44218	110657	0	0	8334	410559	0	0
2024-07-12 04:35:47			0	41724	0	0	0	28677	27270	147321	27220	1045097	44206	110656	0	0	8334	410714	0	0
2024-07-12 04:36:47			0	41747	0	0	0	28670	27270	147365	27112	1045070	44228	110653	0	0	8335	409957	0	0
2024-07-12 04:37:47			0	41729	0	0	0	28685	27270	147345	27036	1045133	44207	110659	0	0	8334	410549	0	0
2024-07-12 04:38:47			0	41737	0	0	0	28672	27280	147353	27384	1045043	44219	110654	0	0	8335	410263	0	0
2024-07-12 04:39:47			0	41749	0	0	0	28690	27280	147253	26942	1045070	44197	110661	0	0	8335	409868	0	0
2024-07-12 04:40:47			0	41743	0	0	0	28667	27270	147313	26908	1045097	44206	110652	0	0	8335	410089	0	0
2024-07-12 04:41:47			0	41776	0	0	0	28680	27280	147253	26953	1045141	44218	110657	0	0	8337	408981	0	0
2024-07-12 04:42:47			0	41770	0	0	0	28685	27270	147269	26955	1045079	44195	110659	0	0	8336	409201	0	0
2024-07-12 04:43:47			0	41787	0	0	0	28685	27280	147241	26922	1045141	44208	110659	0	0	8337	408619	0	0
2024-07-12 04:44:47			0	41761	0	0	0	28683	27280	147121	26906	1045123	44197	110658	0	0	8336	409473	0	0
2024-07-12 04:45:47			0	41786	0	0	0	28672	27280	147181	26894	1045070	44219	110654	0	0	8337	408652	0	0
2024-07-12 04:46:47			0	41779	0	0	0	28683	27290	147161	27052	1045114	44219	110658	0	0	8337	408859	0	0
2024-07-12 04:47:47			0	41801	0	0	0	28675	27290	147121	26885	1045106	44208	110655	0	0	8338	408136	0	0
2024-07-12 04:48:47			0	41787	0	0	0	28675	27270	147097	26812	1045079	44207	110655	0	0	8337	408643	0	0
2024-07-12 04:49:47			0	41801	0	0	0	28675	27280	147077	26960	1045061	44208	110655	0	0	8338	408160	0	0
2024-07-12 04:50:47			0	41801	0	0	0	28670	27280	147113	27232	1045096	44197	110653	0	0	8338	408160	0	0
2024-07-12 04:51:47			0	41815	0	0	0	28662	27280	147049	27150	1045070	44219	110650	0	0	8339	407701	0	0
2024-07-12 04:52:47			0	41814	0	0	0	28664	27270	147165	26866	1045025	44184	110651	0	0	8339	407757	0	0
2024-07-12 04:53:47			0	41807	0	0	0	28657	27270	147069	26902	1045025	44207	110648	0	0	8339	407987	0	0
2024-07-12 04:54:47			0	41826	0	0	0	28649	27270	147097	27119	1044963	44216	110645	0	0	8340	407363	0	0
2024-07-12 04:55:47			0	41820	0	0	0	28646	27270	147033	26873	1044963	44194	110644	0	0	8340	407560	0	0
2024-07-12 04:56:47			0	41836	0	0	0	28638	27270	147021	26982	1045016	44206	110641	0	0	8341	407036	0	0
2024-07-12 04:57:47			0	41836	0	0	0	28641	27270	147033	26896	1044989	44194	110642	0	0	8341	407036	0	0
2024-07-12 04:58:47			0	41857	0	0	0	28631	27250	146945	27020	1044936	44193	110638	0	0	8342	406395	0	0
2024-07-12 04:59:47			0	41849	0	0	0	28641	27250	146961	27239	1044909	44193	110642	0	0	8341	406656	0	0
2024-07-12 05:00:47			0	41884	0	0	0	28631	27250	146957	27168	1044936	44205	110638	0	0	8344	405511	0	0
2024-07-12 05:01:47			0	41838	0	0	0	28633	27260	146949	27206	1044927	44228	110639	0	0	8341	406993	0	0
2024-07-12 05:02:47			0	41873	0	0	0	28625	27250	146937	27345	1044901	44204	110636	0	0	8343	405871	0	0
2024-07-12 05:03:47			0	41871	0	0	0	28636	27240	146913	27083	1044865	44214	110640	0	0	8343	405959	0	0
2024-07-12 05:04:47			0	41871	0	0	0	28628	27250	146941	27086	1044901	44204	110637	0	0	8343	405936	0	0
2024-07-12 05:05:47			0	41882	0	0	0	28631	27240	146957	27220	1044945	44204	110638	0	0	8343	405599	0	0
2024-07-12 05:06:47			0	41888	0	0	0	28633	27240	146833	27033	1044892	44204	110639	0	0	8344	405403	0	0
2024-07-12 05:07:47			0	41900	0	0	0	28631	27250	146845	27086	1044874	44204	110638	0	0	8345	404988	0	0
2024-07-12 05:08:47			0	41892	0	0	0	28623	27240	146741	27258	1044892	44192	110635	0	0	8344	405272	0	0
2024-07-12 05:09:47			0	41903	0	0	0	28618	27240	146793	26906	1044892	44192	110633	0	0	8345	404913	0	0
2024-07-12 05:10:47			0	41913	0	0	0	28618	27240	146853	27048	1044865	44204	110633	0	0	8346	404586	0	0
2024-07-12 05:11:47			0	41902	0	0	0	28618	27230	146817	27300	1044865	44212	110633	0	0	8345	404969	0	0
2024-07-12 05:12:47			0	41921	0	0	0	28618	27240	146781	27033	1044883	44192	110633	0	0	8346	404324	0	0
2024-07-12 05:13:47			0	41904	0	0	0	28620	27220	146745	26996	1044803	44212	110634	0	0	8345	404927	0	0
2024-07-12 05:14:47			0	41917	0	0	0	28615	27230	146785	27348	1044847	44203	110632	0	0	8346	404478	0	0
2024-07-12 05:15:47			0	41922	0	0	0	28602	27230	146841	27242	1044812	44202	110627	0	0	8346	404315	0	0
2024-07-12 05:16:47			0	41915	0	0	0	28602	27220	146757	27190	1044830	44202	110627	0	0	8346	404567	0	0
2024-07-12 05:17:47			0	41949	0	0	0	28610	27230	146777	27173	1044767	44192	110630	0	0	8348	403433	0	0
2024-07-12 05:18:47			0	41939	0	0	0	28602	27220	146701	27346	1044803	44202	110627	0	0	8347	403783	0	0
2024-07-12 05:19:47			0	41923	0	0	0	28612	27220	146657	27003	1044803	44212	110631	0	0	8346	404306	0	0
2024-07-12 05:20:47			0	41926	0	0	0	28599	27210	146685	27164	1044794	44212	110626	0	0	8346	404231	0	0
2024-07-12 05:21:47			0	41945	0	0	0	28599	27220	146753	27085	1044749	44212	110626	0	0	8348	403587	0	0
2024-07-12 05:22:47			0	41939	0	0	0	28594	27210	146721	26955	1044794	44212	110624	0	0	8347	403806	0	0
2024-07-12 05:23:47			0	41941	0	0	0	28607	27220	146681	27443	1044803	44224	110629	0	0	8347	403718	0	0
2024-07-12 05:24:47			0	41943	0	0	0	28599	27220	146713	27020	1044803	44191	110626	0	0	8347	403653	0	0
2024-07-12 05:25:47			0	41939	0	0	0	28602	27210	146777	27088	1044785	44211	110627	0	0	8347	403806	0	0
2024-07-12 05:26:47			0	41953	0	0	0	28607	27200	146853	26880	1044723	44210	110629	0	0	8348	403372	0	0
2024-07-12 05:27:47			0	41955	0	0	0	28592	27210	146705	27081	1044758	44211	110623	0	0	8348	403284	0	0
2024-07-12 05:28:47			0	41935	0	0	0	28594	27210	146821	26961	1044731	44201	110624	0	0	8347	403937	0	0
2024-07-12 05:29:47			0	41938	0	0	0	28594	27200	146753	27251	1044696	44210	110624	0	0	8347	403862	0	0
2024-07-12 05:30:47			0	41949	0	0	0	28584	27200	146645	26831	1044696	44210	110620	0	0	8348	403503	0	0
2024-07-12 05:31:47			0	41943	0	0	0	28594	27200	146769	27206	1044696	44200	110624	0	0	8347	403699	0	0
2024-07-12 05:32:47			0	41955	0	0	0	28581	27200	146749	27130	1044696	44200	110619	0	0	8348	403307	0	0
2024-07-12 05:33:47			0	41954	0	0	0	28576	27200	146697	27031	1044714	44199	110617	0	0	8348	403340	0	0
2024-07-12 05:34:47			0	41948	0	0	0	28579	27190	146657	27059	1044678	44199	110618	0	0	8348	403559	0	0
2024-07-12 05:35:47			0	41963	0	0	0	28579	27190	146701	26908	1044642	44199	110618	0	0	8349	403069	0	0
2024-07-12 05:36:47			0	41963	0	0	0	28579	27190	146689	26899	1044651	44209	110618	0	0	8349	403069	0	0
2024-07-12 05:37:47			0	41951	0	0	0	28571	27180	146761	27027	1044598	44219	110615	0	0	8348	403484	0	0
2024-07-12 05:38:47			0	41971	0	0	0	28571	27180	146681	26981	1044652	44219	110615	0	0	8349	402832	0	0
2024-07-12 05:39:47			0	41969	0	0	0	28563	27180	146725	26918	1044607	44220	110612	0	0	8349	402897	0	0
2024-07-12 05:40:47			0	41956	0	0	0	28568	27180	146713	27258	1044607	44208	110614	0	0	8349	403321	0	0
2024-07-12 05:41:47			0	41958	0	0	0	28571	27180	146709	27199	1044553	44208	110615	0	0	8349	403256	0	0
2024-07-12 05:42:47			0	41953	0	0	0	28561	27180	146657	26863	1044571	44197	110611	0	0	8349	403419	0	0
2024-07-12 05:43:47			0	41979	0	0	0	28561	27180	146661	27041	1044598	44197	110611	0	0	8350	402571	0	0
2024-07-12 05:44:47			0	41975	0	0	0	28555	27170	146633	26920	1044607	44208	110609	0	0	8350	402724	0	0
2024-07-12 05:45:47			0	41963	0	0	0	28558	27180	146637	26653	1044580	44208	110610	0	0	8349	403092	0	0
2024-07-12 05:46:47			0	41993	0	0	0	28561	27180	146621	26864	1044544	44197	110611	0	0	8351	402114	0	0
2024-07-12 05:47:47			0	41954	0	0	0	28563	27180	146749	26800	1044598	44197	110612	0	0	8349	403386	0	0
2024-07-12 05:48:47			0	41966	0	0	0	28561	27160	146661	26779	1044464	44196	110611	0	0	8349	403041	0	0
2024-07-12 05:49:47			0	41976	0	0	0	28553	27160	146745	26942	1044545	44218	110608	0	0	8350	402715	0	0
2024-07-12 05:50:47			0	41972	0	0	0	28555	27170	146789	26942	1044607	44197	110609	0	0	8350	402822	0	0
2024-07-12 05:51:47			0	41962	0	0	0	28542	27160	146765	26890	1044491	44185	110604	0	0	8349	403171	0	0
2024-07-12 05:52:47			0	41970	0	0	0	28537	27160	146629	27126	1044491	44208	110602	0	0	8350	402910	0	0
2024-07-12 05:53:47			0	41985	0	0	0	28542	27160	146657	26975	1044545	44208	110604	0	0	8351	402421	0	0
2024-07-12 05:54:47			0	41988	0	0	0	28548	27160	146717	26970	1044545	44185	110606	0	0	8351	402323	0	0
2024-07-12 05:55:47			0	41978	0	0	0	28542	27160	146677	27194	1044509	44195	110604	0	0	8350	402649	0	0
2024-07-12 05:56:47			0	41977	0	0	0	28545	27160	146705	27183	1044509	44207	110605	0	0	8350	402682	0	0
2024-07-12 05:57:47			0	41973	0	0	0	28542	27160	146757	26970	1044482	44195	110604	0	0	8350	402812	0	0
2024-07-12 05:58:47			0	41981	0	0	0	28529	27150	146673	27284	1044500	44195	110599	0	0	8351	402575	0	0
2024-07-12 05:59:47			0	41988	0	0	0	28545	27150	146713	27156	1044464	44207	110605	0	0	8351	402347	0	0
2024-07-12 06:00:47			0	41990	0	0	0	28535	27150	146713	27126	1044464	44195	110601	0	0	8351	402281	0	0
2024-07-12 06:01:47			0	41975	0	0	0	28529	27160	146681	27128	1044455	44207	110599	0	0	8350	402747	0	0
2024-07-12 06:02:47			0	41990	0	0	0	28532	27140	146717	26972	1044429	44206	110600	0	0	8351	402304	0	0
2024-07-12 06:03:47			0	41991	0	0	0	28535	27150	146729	26892	1044464	44195	110601	0	0	8351	402249	0	0
2024-07-12 06:04:47			0	41985	0	0	0	28527	27140	146721	27450	1044429	44194	110598	0	0	8351	402467	0	0
2024-07-12 06:05:47			0	42004	0	0	0	28529	27140	146781	27223	1044447	44205	110599	0	0	8352	401848	0	0
2024-07-12 06:06:47			0	41987	0	0	0	28527	27140	146753	27183	1044455	44206	110598	0	0	8351	402402	0	0
2024-07-12 06:07:47			0	41975	0	0	0	28537	27140	146633	26935	1044429	44194	110602	0	0	8350	402794	0	0
2024-07-12 06:08:47			0	41987	0	0	0	28532	27140	146701	26753	1044447	44215	110600	0	0	8351	402402	0	0
2024-07-12 06:09:47			0	41987	0	0	0	28524	27140	146705	27152	1044420	44193	110597	0	0	8351	402402	0	0
2024-07-12 06:10:47			0	41985	0	0	0	28524	27140	146725	27322	1044429	44216	110597	0	0	8351	402467	0	0
2024-07-12 06:11:47			0	41988	0	0	0	28529	27140	146737	27079	1044429	44194	110599	0	0	8351	402370	0	0
2024-07-12 06:12:47			0	41998	0	0	0	28524	27140	146649	27142	1044420	44193	110597	0	0	8352	402044	0	0
2024-07-12 06:13:47			0	41995	0	0	0	28522	27140	146789	27069	1044393	44205	110596	0	0	8351	402141	0	0
2024-07-12 06:14:47			0	41989	0	0	0	28527	27130	146741	27098	1044384	44193	110598	0	0	8351	402360	0	0
2024-07-12 06:15:47			0	41992	0	0	0	28524	27130	146745	26701	1044411	44193	110597	0	0	8351	402262	0	0
2024-07-12 06:16:47			0	41992	0	0	0	28516	27120	146725	27133	1044393	44204	110594	0	0	8351	402285	0	0
2024-07-12 06:17:47			0	41995	0	0	0	28527	27130	146769	27159	1044384	44193	110598	0	0	8351	402165	0	0
2024-07-12 06:18:47			0	41995	0	0	0	28514	27130	146661	27190	1044330	44215	110593	0	0	8352	402165	0	0
2024-07-12 06:19:47			0	41971	0	0	0	28522	27130	146697	27067	1044357	44205	110596	0	0	8350	402947	0	0
2024-07-12 06:20:47			0	42006	0	0	0	28519	27120	146689	27116	1044411	44191	110595	0	0	8352	401829	0	0
2024-07-12 06:21:47			0	41990	0	0	0	28511	27140	146769	26911	1044393	44205	110592	0	0	8351	402304	0	0
2024-07-12 06:22:47			0	41982	0	0	0	28509	27130	146749	27218	1044384	44182	110591	0	0	8351	402588	0	0
2024-07-12 06:23:47			0	41988	0	0	0	28514	27140	146725	27251	1044366	44205	110593	0	0	8351	402370	0	0
2024-07-12 06:24:47			0	41996	0	0	0	28501	27120	146737	27170	1044331	44203	110588	0	0	8352	402155	0	0
2024-07-12 06:25:47			0	41976	0	0	0	28493	27120	146609	27365	1044367	44192	110585	0	0	8351	402807	0	0
2024-07-12 06:26:47			0	41996	0	0	0	28488	27110	146741	27173	1044295	44179	110583	0	0	8352	402178	0	0
2024-07-12 06:27:47			0	41981	0	0	0	28480	27110	146661	27152	1044233	44179	110580	0	0	8351	402667	0	0
2024-07-12 06:28:47			0	41970	0	0	0	28477	27100	146753	27249	1044215	44190	110579	0	0	8351	403049	0	0
2024-07-12 06:29:47			0	41977	0	0	0	28475	27110	146789	27206	1044233	44202	110578	0	0	8351	402798	0	0
2024-07-12 06:30:47			0	41960	0	0	0	28467	27100	146761	27331	1044170	44202	110575	0	0	8350	403376	0	0
2024-07-12 06:31:47			0	41947	0	0	0	28467	27100	146813	27272	1044188	44178	110575	0	0	8349	403800	0	0
2024-07-12 06:32:47			0	41974	0	0	0	28472	27100	146865	27050	1044188	44190	110577	0	0	8351	402919	0	0
2024-07-12 06:33:47			0	41953	0	0	0	28464	27100	146909	27377	1044081	44201	110574	0	0	8350	403604	0	0
2024-07-12 06:34:47			0	41951	0	0	0	28467	27090	146889	27298	1044153	44189	110575	0	0	8350	403693	0	0
2024-07-12 06:35:47			0	41948	0	0	0	28464	27090	146789	27177	1044179	44200	110574	0	0	8350	403790	0	0
2024-07-12 06:36:47			0	41927	0	0	0	28470	27090	146929	27105	1044206	44200	110576	0	0	8348	404477	0	0
2024-07-12 06:37:47			0	41932	0	0	0	28475	27090	146885	27331	1044224	44200	110578	0	0	8348	404313	0	0
2024-07-12 06:38:47			0	41920	0	0	0	28467	27080	146997	27131	1044189	44189	110575	0	0	8348	404729	0	0
2024-07-12 06:39:47			0	41923	0	0	0	28464	27090	146953	27249	1044117	44189	110574	0	0	8348	404607	0	0
2024-07-12 06:40:47			0	41918	0	0	0	28470	27080	147017	27547	1044180	44209	110576	0	0	8348	404794	0	0
2024-07-12 06:41:47			0	41913	0	0	0	28462	27080	146985	27211	1044108	44200	110573	0	0	8347	404958	0	0
2024-07-12 06:42:47			0	41915	0	0	0	28470	27080	146985	27171	1044153	44199	110576	0	0	8347	404892	0	0
2024-07-12 06:43:47			0	41895	0	0	0	28475	27080	147029	27133	1044054	44200	110578	0	0	8346	405546	0	0
2024-07-12 06:44:47			0	41900	0	0	0	28470	27080	147069	27215	1044126	44199	110576	0	0	8347	405383	0	0
2024-07-12 06:45:47			0	41895	0	0	0	28470	27080	147093	27119	1044189	44233	110576	0	0	8346	405546	0	0
2024-07-12 06:46:47			0	41899	0	0	0	28470	27090	147029	27223	1044198	44200	110576	0	0	8347	405392	0	0
2024-07-12 06:47:47			0	41876	0	0	0	28472	27090	147085	27473	1044090	44200	110577	0	0	8345	406145	0	0
2024-07-12 06:48:47			0	41890	0	0	0	28480	27090	147073	27599	1044198	44189	110580	0	0	8346	405687	0	0
2024-07-12 06:49:47			0	41896	0	0	0	28475	27080	147101	27428	1044189	44200	110578	0	0	8346	405514	0	0
2024-07-12 06:50:47			0	41878	0	0	0	28477	27080	147085	27826	1044216	44189	110579	0	0	8345	406103	0	0
2024-07-12 06:51:47			0	41881	0	0	0	28477	27090	147125	27168	1044171	44210	110579	0	0	8345	405982	0	0
2024-07-12 06:52:47			0	41867	0	0	0	28477	27080	147165	27715	1044180	44199	110579	0	0	8345	406463	0	0
2024-07-12 06:53:47			0	41861	0	0	0	28472	27080	147145	27547	1044189	44210	110577	0	0	8344	406660	0	0
2024-07-12 06:54:47			0	41851	0	0	0	28488	27090	147193	27277	1044198	44210	110583	0	0	8343	406964	0	0
2024-07-12 06:55:47			0	41858	0	0	0	28477	27080	147197	27585	1044162	44200	110579	0	0	8344	406758	0	0
2024-07-12 06:56:47			0	41861	0	0	0	28485	27090	147117	27505	1044233	44189	110582	0	0	8344	406637	0	0
2024-07-12 06:57:47			0	41852	0	0	0	28475	27090	147141	27533	1044171	44200	110578	0	0	8344	406932	0	0
2024-07-12 06:58:47			0	41840	0	0	0	28475	27100	147197	27552	1044188	44201	110578	0	0	8343	407302	0	0
2024-07-12 06:59:47			0	41825	0	0	0	28475	27080	147181	27390	1044162	44200	110578	0	0	8342	407841	0	0
2024-07-12 07:00:47			0	41830	0	0	0	28470	27080	147145	27535	1044081	44200	110576	0	0	8343	407677	0	0
2024-07-12 07:01:47			0	41849	0	0	0	28462	27080	147277	27502	1044153	44188	110573	0	0	8344	407053	0	0
2024-07-12 07:02:47			0	41826	0	0	0	28470	27080	147281	27173	1044162	44210	110576	0	0	8342	407808	0	0
2024-07-12 07:03:47			0	41834	0	0	0	28472	27080	147229	27583	1044189	44189	110577	0	0	8343	407546	0	0
2024-07-12 07:04:47			0	41806	0	0	0	28464	27080	147305	27180	1044126	44209	110574	0	0	8341	408464	0	0
2024-07-12 07:05:47			0	41813	0	0	0	28472	27080	147329	27255	1044162	44210	110577	0	0	8342	408235	0	0
2024-07-12 07:06:47			0	41814	0	0	0	28472	27080	147345	27237	1044180	44199	110577	0	0	8342	408202	0	0
2024-07-12 07:07:47			0	41811	0	0	0	28464	27080	147377	27454	1044162	44210	110574	0	0	8342	408300	0	0
2024-07-12 07:08:47			0	41802	0	0	0	28477	27080	147405	27713	1044216	44200	110579	0	0	8341	408596	0	0
2024-07-12 07:09:47			0	41791	0	0	0	28477	27080	147477	27483	1044135	44200	110579	0	0	8340	408957	0	0
2024-07-12 07:10:47			0	41805	0	0	0	28477	27090	147397	27770	1044171	44200	110579	0	0	8341	408474	0	0
2024-07-12 07:11:47			0	41784	0	0	0	28480	27080	147341	27876	1044234	44209	110580	0	0	8340	409187	0	0
2024-07-12 07:12:47			0	41775	0	0	0	28475	27080	147429	27900	1044189	44189	110578	0	0	8339	409483	0	0
2024-07-12 07:13:47			0	41773	0	0	0	28472	27090	147469	27381	1044179	44222	110577	0	0	8339	409526	0	0
2024-07-12 07:14:47			0	41786	0	0	0	28477	27090	147417	27944	1044171	44210	110579	0	0	8340	409098	0	0
2024-07-12 07:15:47			0	41771	0	0	0	28475	27090	147465	27509	1044251	44210	110578	0	0	8339	409591	0	0
2024-07-12 07:16:47			0	41775	0	0	0	28475	27080	147401	27848	1044180	44176	110578	0	0	8339	409483	0	0
2024-07-12 07:17:47			0	41763	0	0	0	28470	27090	147457	27916	1044206	44200	110576	0	0	8339	409854	0	0
2024-07-12 07:18:47			0	41754	0	0	0	28488	27080	147449	27379	1044180	44209	110583	0	0	8338	410174	0	0
2024-07-12 07:19:47			0	41754	0	0	0	28472	27080	147377	27672	1044207	44199	110577	0	0	8338	410174	0	0
2024-07-12 07:20:47			0	41744	0	0	0	28483	27080	147517	27739	1044207	44199	110581	0	0	8337	410503	0	0
2024-07-12 07:21:47			0	41754	0	0	0	28477	27070	147549	27888	1044225	44198	110579	0	0	8338	410198	0	0
2024-07-12 07:22:47			0	41746	0	0	0	28480	27080	147529	27696	1044242	44210	110580	0	0	8337	410438	0	0
2024-07-12 07:23:47			0	41749	0	0	0	28480	27080	147509	28107	1044207	44188	110580	0	0	8338	410339	0	0
2024-07-12 07:24:47			0	41732	0	0	0	28477	27080	147513	28246	1044162	44200	110579	0	0	8337	410899	0	0
2024-07-12 07:25:47			0	41739	0	0	0	28480	27080	147565	27270	1044189	44200	110580	0	0	8337	410668	0	0
2024-07-12 07:26:47			0	41749	0	0	0	28485	27090	147541	27909	1044233	44200	110582	0	0	8338	410315	0	0
2024-07-12 07:27:47			0	41738	0	0	0	28483	27080	147517	27338	1044189	44200	110581	0	0	8337	410701	0	0
2024-07-12 07:28:47			0	41733	0	0	0	28483	27090	147589	27935	1044287	44189	110581	0	0	8337	410842	0	0
2024-07-12 07:29:47			0	41733	0	0	0	28485	27090	147637	27505	1044233	44189	110582	0	0	8337	410842	0	0
2024-07-12 07:30:47			0	41750	0	0	0	28485	27080	147617	27289	1044216	44200	110582	0	0	8338	410306	0	0
2024-07-12 07:31:47			0	41743	0	0	0	28488	27090	147673	27587	1044233	44210	110583	0	0	8337	410513	0	0
2024-07-12 07:32:47			0	41716	0	0	0	28490	27090	147613	27583	1044224	44210	110584	0	0	8336	411402	0	0
2024-07-12 07:33:47			0	41721	0	0	0	28488	27080	147573	27795	1044242	44210	110583	0	0	8336	411261	0	0
2024-07-12 07:34:47			0	41704	0	0	0	28485	27090	147569	27582	1044206	44200	110582	0	0	8335	411798	0	0
2024-07-12 07:35:47			0	41703	0	0	0	28485	27090	147625	27843	1044224	44177	110582	0	0	8335	411831	0	0
2024-07-12 07:36:47			0	41713	0	0	0	28488	27090	147621	27488	1044368	44200	110583	0	0	8335	411501	0	0
2024-07-12 07:37:47			0	41701	0	0	0	28496	27100	147729	27398	1044269	44211	110586	0	0	8335	411873	0	0
2024-07-12 07:38:47			0	41709	0	0	0	28496	27110	147633	27429	1044340	44202	110586	0	0	8335	411586	0	0
2024-07-12 07:39:47			0	41690	0	0	0	28509	27090	147569	27710	1044314	44210	110591	0	0	8334	412260	0	0
2024-07-12 07:40:47			0	41693	0	0	0	28511	27100	147617	27518	1044296	44211	110592	0	0	8334	412137	0	0
2024-07-12 07:41:47			0	41671	0	0	0	28527	27110	147649	27826	1044376	44202	110598	0	0	8332	412839	0	0
2024-07-12 07:42:47			0	41683	0	0	0	28532	27110	147713	28001	1044456	44212	110600	0	0	8333	412443	0	0
2024-07-12 07:43:47			0	41675	0	0	0	28529	27120	147729	27606	1044411	44225	110599	0	0	8333	412683	0	0
2024-07-12 07:44:47			0	41691	0	0	0	28540	27120	147805	27769	1044492	44225	110603	0	0	8333	412155	0	0
2024-07-12 07:45:47			0	41687	0	0	0	28545	27130	147733	27398	1044456	44214	110605	0	0	8333	412264	0	0
2024-07-12 07:46:47			0	41666	0	0	0	28548	27120	147641	27731	1044447	44204	110606	0	0	8332	412981	0	0
2024-07-12 07:47:47			0	41679	0	0	0	28553	27140	147665	27821	1044527	44193	110608	0	0	8333	412504	0	0
2024-07-12 07:48:47			0	41665	0	0	0	28553	27140	147717	27789	1044590	44216	110608	0	0	8332	412966	0	0
2024-07-12 07:49:47			0	41658	0	0	0	28566	27150	147745	27904	1044518	44217	110613	0	0	8331	413174	0	0
2024-07-12 07:50:47			0	41654	0	0	0	28566	27150	147817	27466	1044572	44207	110613	0	0	8331	413306	0	0
2024-07-12 07:51:47			0	41660	0	0	0	28563	27160	147805	27445	1044670	44228	110612	0	0	8331	413084	0	0
2024-07-12 07:52:47			0	41652	0	0	0	28566	27150	147805	27422	1044607	44207	110613	0	0	8331	413372	0	0
2024-07-12 07:53:47			0	41669	0	0	0	28571	27160	147693	27923	1044643	44228	110615	0	0	8332	412787	0	0
2024-07-12 07:54:47			0	41646	0	0	0	28563	27170	147753	27914	1044661	44208	110612	0	0	8331	413522	0	0
2024-07-12 07:55:47			0	41645	0	0	0	28563	27170	147753	27493	1044634	44219	110612	0	0	8331	413555	0	0
2024-07-12 07:56:47			0	41655	0	0	0	28550	27170	147721	27691	1044670	44219	110607	0	0	8331	413225	0	0
2024-07-12 07:57:47			0	41639	0	0	0	28558	27180	147745	27590	1044732	44219	110610	0	0	8330	413730	0	0
2024-07-12 07:58:47			0	41657	0	0	0	28561	27170	147733	28318	1044751	44230	110611	0	0	8331	413159	0	0
2024-07-12 07:59:47			0	41647	0	0	0	28563	27170	147833	28017	1044751	44208	110612	0	0	8331	413489	0	0
2024-07-12 08:00:47			0	41647	0	0	0	28576	27180	147793	27765	1044768	44231	110617	0	0	8331	413466	0	0
2024-07-12 08:01:47			0	41639	0	0	0	28579	27190	147805	27821	1044813	44221	110618	0	0	8330	413706	0	0
2024-07-12 08:02:47			0	41635	0	0	0	28581	27190	147781	27953	1044777	44209	110619	0	0	8330	413838	0	0
2024-07-12 08:03:47			0	41632	0	0	0	28584	27190	147961	27659	1044813	44209	110620	0	0	8330	413937	0	0
2024-07-12 08:04:47			0	41614	0	0	0	28597	27200	147877	27727	1044848	44209	110625	0	0	8328	414509	0	0
2024-07-12 08:05:47			0	41637	0	0	0	28610	27190	147893	27802	1044866	44209	110630	0	0	8329	413772	0	0
2024-07-12 08:06:47			0	41663	0	0	0	28615	27200	147873	27737	1044884	44222	110632	0	0	8331	412890	0	0
2024-07-12 08:07:47			0	41641	0	0	0	28618	27210	147869	27914	1044920	44223	110633	0	0	8330	413593	0	0
2024-07-12 08:08:47			0	41628	0	0	0	28620	27210	147877	28031	1044955	44224	110634	0	0	8329	414022	0	0
2024-07-12 08:09:47			0	41631	0	0	0	28636	27220	147825	27881	1044991	44212	110640	0	0	8329	413899	0	0
2024-07-12 08:10:47			0	41645	0	0	0	28644	27210	147837	27533	1044982	44224	110643	0	0	8329	413460	0	0
2024-07-12 08:11:47			0	41634	0	0	0	28641	27230	147889	27850	1045000	44235	110642	0	0	8329	413776	0	0
2024-07-12 08:12:47			0	41623	0	0	0	28633	27240	147897	28109	1045107	44214	110639	0	0	8328	414116	0	0
2024-07-12 08:13:47			0	41628	0	0	0	28638	27240	147869	27951	1045044	44226	110641	0	0	8329	413951	0	0
2024-07-12 08:14:47			0	41647	0	0	0	28649	27250	147901	27701	1045089	44214	110645	0	0	8330	413300	0	0
2024-07-12 08:15:47			0	41635	0	0	0	28636	27250	147797	28381	1045062	44214	110640	0	0	8329	413696	0	0
2024-07-12 08:16:47			0	41653	0	0	0	28615	27240	147865	27336	1044972	44214	110632	0	0	8331	413125	0	0
2024-07-12 08:17:47			0	41655	0	0	0	28615	27240	147797	27320	1045053	44204	110632	0	0	8331	413059	0	0
2024-07-12 08:18:47			0	41628	0	0	0	28612	27240	147901	28561	1044964	44214	110631	0	0	8329	413951	0	0
2024-07-12 08:19:47			0	41627	0	0	0	28607	27240	147773	27947	1044964	44204	110629	0	0	8329	413984	0	0
2024-07-12 08:20:47			0	41635	0	0	0	28599	27240	147769	27512	1044990	44204	110626	0	0	8330	413720	0	0
2024-07-12 08:21:47			0	41640	0	0	0	28607	27230	147781	27836	1044928	44192	110629	0	0	8330	413578	0	0
2024-07-12 08:22:47			0	41651	0	0	0	28599	27230	147845	27895	1044901	44203	110626	0	0	8331	413215	0	0
2024-07-12 08:23:47			0	41635	0	0	0	28607	27220	147873	27665	1044857	44202	110629	0	0	8330	413767	0	0
2024-07-12 08:24:47			0	41643	0	0	0	28599	27220	147897	27677	1044830	44212	110626	0	0	8330	413503	0	0
2024-07-12 08:25:47			0	41633	0	0	0	28589	27220	147845	27798	1044857	44202	110622	0	0	8330	413833	0	0
2024-07-12 08:26:47			0	41642	0	0	0	28597	27210	147881	27338	1044875	44202	110625	0	0	8330	413560	0	0
2024-07-12 08:27:47			0	41643	0	0	0	28607	27210	147877	27346	1044901	44212	110629	0	0	8330	413526	0	0
2024-07-12 08:28:47			0	41650	0	0	0	28618	27210	147861	27256	1044901	44235	110633	0	0	8330	413295	0	0
2024-07-12 08:29:47			0	41649	0	0	0	28612	27230	147821	27455	1044901	44203	110631	0	0	8330	413281	0	0
2024-07-12 08:30:47			0	41630	0	0	0	28612	27220	147757	27509	1044883	44212	110631	0	0	8329	413932	0	0
2024-07-12 08:31:47			0	41643	0	0	0	28615	27230	147733	27166	1044946	44212	110632	0	0	8330	413479	0	0
2024-07-12 08:32:47			0	41627	0	0	0	28618	27210	147641	27511	1044928	44212	110633	0	0	8329	414055	0	0
2024-07-12 08:33:47			0	41642	0	0	0	28618	27210	147917	27185	1044928	44224	110633	0	0	8330	413560	0	0
2024-07-12 08:34:47			0	41624	0	0	0	28610	27220	147773	27241	1044937	44212	110630	0	0	8329	414131	0	0
2024-07-12 08:35:47			0	41653	0	0	0	28605	27230	147753	27272	1044919	44224	110628	0	0	8331	413149	0	0
2024-07-12 08:36:47			0	41632	0	0	0	28605	27220	147773	27384	1044937	44212	110628	0	0	8329	413866	0	0
2024-07-12 08:37:47			0	41649	0	0	0	28602	27230	147741	27102	1044973	44202	110627	0	0	8330	413281	0	0
2024-07-12 08:38:47			0	41660	0	0	0	28620	27220	147761	27310	1044937	44212	110634	0	0	8331	412941	0	0
2024-07-12 08:39:47			0	41651	0	0	0	28618	27210	147925	27242	1044901	44212	110633	0	0	8330	413262	0	0
2024-07-12 08:40:47			0	41650	0	0	0	28615	27210	147805	26961	1044973	44201	110632	0	0	8330	413295	0	0
2024-07-12 08:41:47			0	41650	0	0	0	28612	27220	147729	27443	1044964	44212	110631	0	0	8330	413272	0	0
2024-07-12 08:42:47			0	41655	0	0	0	28607	27220	147725	27419	1044910	44224	110629	0	0	8331	413107	0	0
2024-07-12 08:43:47			0	41657	0	0	0	28615	27210	147701	27060	1044928	44224	110632	0	0	8331	413064	0	0
2024-07-12 08:44:47			0	41664	0	0	0	28625	27220	147721	27383	1044964	44212	110636	0	0	8331	412809	0	0
2024-07-12 08:45:47			0	41639	0	0	0	28646	27230	147677	27201	1045000	44235	110644	0	0	8329	413611	0	0
2024-07-12 08:46:47			0	41634	0	0	0	28651	27230	147717	27229	1045009	44225	110646	0	0	8329	413776	0	0
2024-07-12 08:47:47			0	41640	0	0	0	28672	27230	147681	27261	1045080	44224	110654	0	0	8329	413578	0	0
2024-07-12 08:48:47			0	41653	0	0	0	28683	27240	147677	27279	1045125	44237	110658	0	0	8329	413125	0	0
2024-07-12 08:49:47			0	41662	0	0	0	28693	27250	147649	26974	1045196	44226	110662	0	0	8330	412804	0	0
2024-07-12 08:50:47			0	41645	0	0	0	28696	27260	147781	27137	1045250	44239	110663	0	0	8329	413342	0	0
2024-07-12 08:51:47			0	41647	0	0	0	28701	27270	147693	27241	1045231	44239	110665	0	0	8329	413252	0	0
2024-07-12 08:52:47			0	41648	0	0	0	28722	27270	147693	27183	1045258	44228	110673	0	0	8329	413219	0	0
2024-07-12 08:53:47			0	41649	0	0	0	28735	27280	147629	27112	1045338	44230	110678	0	0	8328	413162	0	0
2024-07-12 08:54:47			0	41648	0	0	0	28761	27280	147669	27265	1045392	44252	110688	0	0	8328	413195	0	0
2024-07-12 08:55:47			0	41653	0	0	0	28766	27290	147733	27199	1045455	44263	110690	0	0	8328	413006	0	0
2024-07-12 08:56:47			0	41660	0	0	0	28763	27310	147637	27339	1045517	44232	110689	0	0	8329	412728	0	0
2024-07-12 08:57:47			0	41670	0	0	0	28766	27320	147613	27438	1045562	44245	110690	0	0	8329	412375	0	0
2024-07-12 08:58:47			0	41642	0	0	0	28745	27320	147797	27490	1045517	44246	110682	0	0	8328	413298	0	0
2024-07-12 08:59:47			0	41652	0	0	0	28753	27340	147637	27504	1045543	44224	110685	0	0	8329	412921	0	0
2024-07-12 09:00:47			0	41637	0	0	0	28753	27330	147581	27360	1045507	44234	110685	0	0	8328	413440	0	0
2024-07-12 09:01:47			0	41655	0	0	0	28748	27340	147601	27286	1045543	44224	110683	0	0	8329	412822	0	0
2024-07-12 09:02:47			0	41647	0	0	0	28753	27330	147625	27320	1045561	44246	110685	0	0	8328	413110	0	0
2024-07-12 09:03:47			0	41641	0	0	0	28753	27330	147625	26856	1045588	44223	110685	0	0	8328	413308	0	0
2024-07-12 09:04:47			0	41655	0	0	0	28737	27330	147597	27353	1045534	44234	110679	0	0	8329	412846	0	0
2024-07-12 09:05:47			0	41652	0	0	0	28727	27330	147581	27171	1045418	44234	110675	0	0	8329	412945	0	0
2024-07-12 09:06:47			0	41667	0	0	0	28711	27330	147541	27152	1045454	44223	110669	0	0	8330	412450	0	0
2024-07-12 09:07:47			0	41649	0	0	0	28716	27330	147533	27381	1045445	44234	110671	0	0	8329	413044	0	0
2024-07-12 09:08:47			0	41671	0	0	0	28727	27320	147553	26970	1045436	44223	110675	0	0	8330	412342	0	0
2024-07-12 09:09:47			0	41647	0	0	0	28732	27330	147661	27036	1045472	44223	110677	0	0	8329	413110	0	0
2024-07-12 09:10:47			0	41664	0	0	0	28722	27330	147621	27315	1045445	44234	110673	0	0	8330	412549	0	0
2024-07-12 09:11:47			0	41663	0	0	0	28724	27330	147661	26755	1045472	44234	110674	0	0	8330	412582	0	0
2024-07-12 09:12:47			0	41672	0	0	0	28724	27330	147709	27168	1045561	44223	110674	0	0	8330	412285	0	0
2024-07-12 09:13:47			0	41663	0	0	0	28740	27340	147645	27003	1045462	44224	110680	0	0	8329	412558	0	0
2024-07-12 09:14:47			0	41665	0	0	0	28745	27340	147621	27365	1045516	44224	110682	0	0	8329	412492	0	0
2024-07-12 09:15:47			0	41664	0	0	0	28737	27340	147529	27090	1045516	44224	110679	0	0	8329	412525	0	0
2024-07-12 09:16:47			0	41673	0	0	0	28722	27340	147605	27024	1045498	44247	110673	0	0	8330	412228	0	0
2024-07-12 09:17:47			0	41679	0	0	0	28740	27340	147601	26889	1045552	44247	110680	0	0	8330	412030	0	0
2024-07-12 09:18:47			0	41663	0	0	0	28766	27350	147633	27197	1045615	44248	110690	0	0	8329	412534	0	0
2024-07-12 09:19:47			0	41685	0	0	0	28771	27350	147653	26842	1045641	44248	110692	0	0	8330	411809	0	0
2024-07-12 09:20:47			0	41660	0	0	0	28774	27360	147565	27074	1045686	44248	110693	0	0	8329	412609	0	0
2024-07-12 09:21:47			0	41678	0	0	0	28771	27370	147585	26830	1045677	44239	110692	0	0	8330	411992	0	0
2024-07-12 09:22:47			0	41679	0	0	0	28755	27370	147581	26984	1045793	44239	110686	0	0	8330	411959	0	0
2024-07-12 09:23:47			0	41661	0	0	0	28740	27370	147597	27248	1045685	44239	110680	0	0	8329	412553	0	0
2024-07-12 09:24:47			0	41678	0	0	0	28714	27360	147645	27213	1045614	44227	110670	0	0	8331	412016	0	0
2024-07-12 09:25:47			0	41662	0	0	0	28711	27360	147597	26894	1045605	44214	110669	0	0	8330	412544	0	0
2024-07-12 09:26:47			0	41659	0	0	0	28711	27360	147637	27445	1045632	44237	110669	0	0	8330	412643	0	0
2024-07-12 09:27:47			0	41665	0	0	0	28724	27350	147661	27088	1045588	44226	110674	0	0	8330	412468	0	0
2024-07-12 09:28:47			0	41635	0	0	0	28690	27350	147721	27024	1045623	44226	110661	0	0	8329	413458	0	0
2024-07-12 09:29:47			0	41647	0	0	0	28698	27350	147617	27107	1045615	44214	110664	0	0	8329	413062	0	0
2024-07-12 09:30:47			0	41636	0	0	0	28737	27360	147697	26882	1045659	44237	110679	0	0	8328	413401	0	0
2024-07-12 09:31:47			0	41629	0	0	0	28755	27370	147793	27218	1045757	44239	110686	0	0	8327	413609	0	0
2024-07-12 09:32:47			0	41628	0	0	0	28719	27380	147717	27140	1045721	44239	110672	0	0	8328	413618	0	0
2024-07-12 09:33:47			0	41625	0	0	0	28662	27370	147809	26989	1045703	44228	110650	0	0	8329	413741	0	0
2024-07-12 09:34:47			0	41609	0	0	0	28625	27370	147845	27694	1045515	44206	110636	0	0	8328	414269	0	0
2024-07-12 09:35:47			0	41597	0	0	0	28633	27350	147801	27015	1045489	44204	110639	0	0	8327	414714	0	0
2024-07-12 09:36:47			0	41591	0	0	0	28763	27340	147789	27428	1045606	44236	110689	0	0	8325	414936	0	0
2024-07-12 09:37:47			0	41595	0	0	0	28867	27370	147965	26968	1045793	44250	110729	0	0	8323	414732	0	0
2024-07-12 09:38:47			0	41568	0	0	0	28875	27370	148017	27332	1045981	44261	110732	0	0	8322	415625	0	0
2024-07-12 09:39:47			0	41571	0	0	0	28859	27400	148021	27331	1046034	44252	110726	0	0	8322	415454	0	0
2024-07-12 09:40:47			0	41557	0	0	0	28862	27410	147917	26863	1045989	44265	110727	0	0	8321	415894	0	0
2024-07-12 09:41:47			0	41553	0	0	0	28784	27420	147973	27329	1046043	44232	110697	0	0	8323	416002	0	0
2024-07-12 09:42:47			0	41550	0	0	0	28727	27410	147941	27284	1045864	44220	110675	0	0	8323	416125	0	0
2024-07-12 09:43:47			0	41554	0	0	0	28774	27410	147949	27277	1045864	44220	110693	0	0	8323	415993	0	0
2024-07-12 09:44:47			0	41523	0	0	0	28833	27400	148037	27433	1045891	44229	110716	0	0	8320	417044	0	0
2024-07-12 09:45:47			0	41519	0	0	0	28872	27410	148113	27445	1046025	44243	110731	0	0	8319	417152	0	0
2024-07-12 09:46:47			0	41489	0	0	0	28883	27430	148177	27305	1046078	44255	110735	0	0	8317	418100	0	0
2024-07-12 09:47:47			0	41473	0	0	0	28864	27430	148193	27128	1046087	44246	110728	0	0	8317	418631	0	0
2024-07-12 09:48:47			0	41482	0	0	0	28857	27440	148205	27287	1046069	44256	110725	0	0	8317	418308	0	0
2024-07-12 09:49:47			0	41454	0	0	0	28864	27440	148277	26974	1046185	44246	110728	0	0	8316	419238	0	0
2024-07-12 09:50:47			0	41426	0	0	0	28875	27440	148345	27138	1046132	44246	110732	0	0	8314	420169	0	0
2024-07-12 09:51:47			0	41429	0	0	0	28880	27450	148333	27085	1046167	44257	110734	0	0	8314	420045	0	0
2024-07-12 09:52:47			0	41412	0	0	0	28875	27460	148372	27324	1046239	44247	110732	0	0	8313	420586	0	0
2024-07-12 09:53:47			0	41382	0	0	0	28898	27460	148540	27079	1046274	44236	110741	0	0	8311	421586	0	0
2024-07-12 09:54:47			0	41366	0	0	0	28909	27470	148496	27048	1046292	44271	110745	0	0	8310	422095	0	0
2024-07-12 09:55:47			0	41379	0	0	0	28906	27470	148536	26972	1046337	44248	110744	0	0	8311	421661	0	0
2024-07-12 09:56:47			0	41366	0	0	0	28901	27470	148564	27294	1046229	44248	110742	0	0	8310	422095	0	0
2024-07-12 09:57:47			0	41330	0	0	0	28914	27480	148580	27166	1046310	44250	110747	0	0	8308	423271	0	0
2024-07-12 09:58:47			0	41325	0	0	0	28929	27490	148588	27322	1046399	44250	110753	0	0	8307	423414	0	0
2024-07-12 09:59:47			0	41314	0	0	0	28932	27490	148692	27462	1046300	44250	110754	0	0	8307	423781	0	0
2024-07-12 10:00:47			0	41311	0	0	0	28935	27500	148824	27161	1046390	44250	110755	0	0	8306	423857	0	0
2024-07-12 10:01:47			0	41305	0	0	0	28942	27500	148788	27358	1046417	44240	110758	0	0	8306	424058	0	0
2024-07-12 10:02:47			0	41289	0	0	0	28940	27500	148824	27142	1046506	44251	110757	0	0	8305	424593	0	0
2024-07-12 10:03:47			0	41261	0	0	0	28940	27510	148896	27111	1046461	44251	110757	0	0	8304	425505	0	0
2024-07-12 10:04:47			0	41259	0	0	0	28948	27520	148912	27301	1046479	44252	110760	0	0	8303	425547	0	0
2024-07-12 10:05:47			0	41223	0	0	0	28966	27520	148968	27419	1046533	44264	110767	0	0	8301	426753	0	0
2024-07-12 10:06:47			0	41230	0	0	0	28973	27530	149060	27306	1046515	44265	110770	0	0	8301	426494	0	0
2024-07-12 10:07:47			0	41190	0	0	0	28979	27530	149028	27234	1046631	44254	110772	0	0	8299	427836	0	0
2024-07-12 10:08:47			0	41208	0	0	0	28932	27540	148976	27215	1046703	44278	110754	0	0	8301	427207	0	0
2024-07-12 10:09:47			0	41192	0	0	0	28888	27550	149076	27293	1046604	44255	110737	0	0	8301	427719	0	0
2024-07-12 10:10:47			0	41187	0	0	0	28937	27540	149000	27329	1046595	44255	110756	0	0	8299	427912	0	0
2024-07-12 10:11:47			0	41176	0	0	0	28851	27550	149052	27339	1046631	44255	110723	0	0	8300	428257	0	0
2024-07-12 10:12:47			0	41166	0	0	0	28914	27540	149068	27753	1046595	44233	110747	0	0	8299	428617	0	0
2024-07-12 10:13:47			0	41151	0	0	0	28922	27550	149140	27438	1046640	44256	110750	0	0	8298	429096	0	0
2024-07-12 10:14:47			0	41142	0	0	0	28989	27550	149176	27244	1046693	44256	110776	0	0	8296	429399	0	0
2024-07-12 10:15:47			0	41154	0	0	0	28883	27560	149176	27332	1046711	44257	110735	0	0	8299	428971	0	0
2024-07-12 10:16:47			0	41120	0	0	0	28818	27560	149164	27445	1046622	44246	110710	0	0	8298	430114	0	0
2024-07-12 10:17:47			0	41116	0	0	0	28875	27550	149168	27194	1046640	44246	110732	0	0	8297	430274	0	0
2024-07-12 10:18:47			0	41120	0	0	0	28838	27550	149260	27218	1046550	44266	110718	0	0	8297	430139	0	0
2024-07-12 10:19:47			0	41107	0	0	0	28797	27550	149272	27944	1046559	44234	110702	0	0	8297	430577	0	0
2024-07-12 10:20:47			0	41106	0	0	0	28763	27550	149268	27126	1046550	44233	110689	0	0	8298	430610	0	0
2024-07-12 10:21:47			0	41091	0	0	0	28815	27540	149336	27024	1046398	44221	110709	0	0	8296	431140	0	0
2024-07-12 10:22:47			0	41109	0	0	0	28745	27520	149240	27222	1046318	44219	110682	0	0	8298	430584	0	0
2024-07-12 10:23:47			0	41082	0	0	0	28766	27510	149328	27355	1046165	44208	110690	0	0	8296	431518	0	0
2024-07-12 10:24:47			0	41093	0	0	0	28781	27490	149412	27223	1046139	44217	110696	0	0	8297	431197	0	0
2024-07-12 10:25:47			0	41073	0	0	0	28735	27490	149368	27258	1046103	44206	110678	0	0	8296	431871	0	0
2024-07-12 10:26:47			0	41070	0	0	0	28724	27480	149616	27176	1046005	44238	110674	0	0	8296	431997	0	0
2024-07-12 10:27:47			0	41067	0	0	0	28753	27470	149520	27471	1046041	44214	110685	0	0	8295	432123	0	0
2024-07-12 10:28:47			0	41057	0	0	0	28750	27450	149640	27237	1046015	44225	110684	0	0	8295	432511	0	0
2024-07-12 10:29:47			0	41057	0	0	0	28703	27450	149556	27196	1046042	44225	110666	0	0	8296	432511	0	0
2024-07-12 10:30:47			0	41060	0	0	0	28732	27450	149524	27564	1045934	44225	110677	0	0	8295	432409	0	0
2024-07-12 10:31:47			0	41046	0	0	0	28810	27450	149628	27194	1046069	44236	110707	0	0	8293	432882	0	0
2024-07-12 10:32:47			0	41016	0	0	0	28880	27460	149716	27095	1046185	44236	110734	0	0	8290	433871	0	0
2024-07-12 10:33:47			0	41008	0	0	0	28823	27460	149728	27171	1046248	44247	110712	0	0	8291	434142	0	0
2024-07-12 10:34:47			0	40992	0	0	0	28870	27460	149828	27317	1046301	44225	110730	0	0	8289	434683	0	0
2024-07-12 10:35:47			0	40985	0	0	0	28919	27490	149904	27197	1046426	44261	110749	0	0	8288	434845	0	0
2024-07-12 10:36:47			0	40977	0	0	0	28932	27500	149980	27421	1046560	44263	110754	0	0	8287	435091	0	0
2024-07-12 10:37:47			0	40963	0	0	0	28942	27510	149896	27362	1046515	44251	110758	0	0	8286	435540	0	0
2024-07-12 10:38:47			0	40959	0	0	0	29036	27530	149980	27105	1046676	44276	110794	0	0	8285	435625	0	0
2024-07-12 10:39:47			0	40951	0	0	0	29054	27540	150012	27407	1046882	44288	110801	0	0	8284	435871	0	0
2024-07-12 10:40:47			0	40945	0	0	0	29025	27560	150024	27109	1046864	44279	110790	0	0	8284	436024	0	0
2024-07-12 10:41:47			0	40917	0	0	0	29041	27580	150068	27215	1046953	44269	110796	0	0	8282	436923	0	0
2024-07-12 10:42:47			0	40923	0	0	0	29041	27590	149988	27441	1047006	44271	110796	0	0	8283	436695	0	0
2024-07-12 10:43:47			0	40921	0	0	0	29025	27590	150088	27112	1047006	44271	110790	0	0	8283	436763	0	0
2024-07-12 10:44:47			0	40918	0	0	0	29018	27590	150136	27218	1046970	44259	110787	0	0	8283	436864	0	0
2024-07-12 10:45:47			0	40920	0	0	0	29025	27610	150064	27286	1046987	44273	110790	0	0	8283	436746	0	0
2024-07-12 10:46:47			0	40917	0	0	0	29025	27600	150008	27166	1046943	44250	110790	0	0	8283	436873	0	0
2024-07-12 10:47:47			0	40903	0	0	0	29038	27610	150096	27339	1047014	44262	110795	0	0	8282	437323	0	0
2024-07-12 10:48:47			0	40894	0	0	0	29025	27620	150004	27383	1047059	44274	110790	0	0	8282	437603	0	0
2024-07-12 10:49:47			0	40874	0	0	0	29038	27620	150072	27072	1047113	44251	110795	0	0	8280	438282	0	0
2024-07-12 10:50:47			0	40881	0	0	0	29025	27620	150032	26981	1047113	44263	110790	0	0	8281	438045	0	0
2024-07-12 10:51:47			0	40861	0	0	0	29020	27630	150112	27263	1047148	44264	110788	0	0	8280	438699	0	0
2024-07-12 10:52:47			0	40878	0	0	0	29031	27640	149988	26949	1047166	44265	110792	0	0	8281	438096	0	0
2024-07-12 10:53:47			0	40880	0	0	0	29002	27640	150048	26788	1047166	44276	110781	0	0	8281	438028	0	0
2024-07-12 10:54:47			0	40865	0	0	0	28968	27640	149980	27156	1047058	44243	110768	0	0	8281	438538	0	0
2024-07-12 10:55:47			0	40861	0	0	0	28958	27630	150028	27244	1047023	44252	110764	0	0	8281	438699	0	0
2024-07-12 10:56:47			0	40861	0	0	0	28945	27640	150104	27064	1047041	44243	110759	0	0	8281	438674	0	0
2024-07-12 10:57:47			0	40859	0	0	0	28932	27620	150000	26951	1047005	44251	110754	0	0	8281	438792	0	0
2024-07-12 10:58:47			0	40854	0	0	0	28929	27620	149992	27010	1046942	44241	110753	0	0	8281	438962	0	0
2024-07-12 10:59:47			0	40860	0	0	0	28927	27610	150136	27119	1046898	44239	110752	0	0	8281	438784	0	0
2024-07-12 11:00:47			0	40849	0	0	0	28888	27610	149960	26965	1046817	44228	110737	0	0	8281	439158	0	0
2024-07-12 11:01:47			0	40851	0	0	0	28851	27600	150092	27272	1046773	44228	110723	0	0	8282	439115	0	0
2024-07-12 11:02:47			0	40854	0	0	0	28768	27590	149964	27300	1046648	44237	110691	0	0	8283	439038	0	0
2024-07-12 11:03:47			0	40866	0	0	0	28649	27580	149976	27190	1046442	44213	110645	0	0	8286	438655	0	0
2024-07-12 11:04:47			0	40885	0	0	0	28833	27550	149952	27180	1046416	44210	110716	0	0	8284	438085	0	0
2024-07-12 11:05:47			0	40880	0	0	0	28789	27540	150076	27222	1046488	44233	110699	0	0	8284	438280	0	0
2024-07-12 11:06:47			0	40862	0	0	0	28859	27550	150032	27213	1046496	44233	110726	0	0	8282	438867	0	0
2024-07-12 11:07:47			0	40847	0	0	0	28953	27550	150100	27171	1046693	44256	110762	0	0	8280	439377	0	0
2024-07-12 11:08:47			0	40839	0	0	0	28849	27560	150116	27170	1046872	44257	110722	0	0	8281	439624	0	0
2024-07-12 11:09:47			0	40862	0	0	0	28774	27580	150096	27041	1046800	44248	110693	0	0	8284	438791	0	0
2024-07-12 11:10:47			0	40849	0	0	0	28771	27580	150128	26986	1046657	44247	110692	0	0	8283	439233	0	0
2024-07-12 11:11:47			0	40848	0	0	0	28714	27580	150088	27036	1046576	44213	110670	0	0	8284	439267	0	0
2024-07-12 11:12:47			0	40866	0	0	0	28651	27540	150164	27088	1046272	44177	110646	0	0	8286	438756	0	0
2024-07-12 11:13:47			0	40853	0	0	0	28909	27530	150128	26821	1046407	44220	110745	0	0	8281	439224	0	0
2024-07-12 11:14:47			0	40843	0	0	0	28875	27540	150336	27041	1046730	44266	110732	0	0	8281	439539	0	0
2024-07-12 11:15:47			0	40834	0	0	0	28774	27550	150264	27118	1046685	44255	110693	0	0	8282	439820	0	0
2024-07-12 11:16:47			0	40840	0	0	0	28774	27550	150156	27066	1046496	44222	110693	0	0	8282	439616	0	0
2024-07-12 11:17:47			0	40830	0	0	0	28836	27540	150164	26863	1046514	44222	110717	0	0	8281	439981	0	0
2024-07-12 11:18:47			0	40822	0	0	0	28945	27550	150400	26863	1046685	44245	110759	0	0	8279	440228	0	0
2024-07-12 11:19:47			0	40820	0	0	0	28999	27560	150420	26866	1046917	44267	110780	0	0	8278	440271	0	0
2024-07-12 11:20:47			0	40814	0	0	0	29080	27590	150436	27345	1047087	44293	110811	0	0	8276	440400	0	0
2024-07-12 11:21:47			0	40789	0	0	0	29119	27630	150456	27220	1047283	44286	110826	0	0	8274	441150	0	0
2024-07-12 11:22:47			0	40800	0	0	0	29194	27630	150584	27059	1047426	44286	110855	0	0	8273	440775	0	0
2024-07-12 11:23:47			0	40777	0	0	0	29158	27670	150552	26951	1047605	44312	110841	0	0	8273	441458	0	0
2024-07-12 11:24:47			0	40776	0	0	0	29166	27690	150512	27019	1047739	44303	110844	0	0	8273	441441	0	0
2024-07-12 11:25:47			0	40771	0	0	0	29176	27720	150476	27383	1047855	44306	110848	0	0	8272	441535	0	0
2024-07-12 11:26:47			0	40777	0	0	0	29189	27740	150480	27320	1047917	44275	110853	0	0	8273	441280	0	0
2024-07-12 11:27:47			0	40774	0	0	0	29158	27760	150476	27296	1047997	44276	110841	0	0	8273	441331	0	0
2024-07-12 11:28:47			0	40774	0	0	0	29173	27760	150496	26896	1047925	44288	110847	0	0	8273	441331	0	0
2024-07-12 11:29:47			0	40761	0	0	0	29158	27770	150403	27017	1047997	44267	110841	0	0	8272	441749	0	0
2024-07-12 11:30:47			0	40753	0	0	0	29181	27780	150423	27029	1047934	44256	110850	0	0	8272	441996	0	0
2024-07-12 11:31:47			0	40770	0	0	0	29173	27770	150564	26956	1047907	44267	110847	0	0	8273	441442	0	0
2024-07-12 11:32:47			0	40777	0	0	0	29137	27780	150508	27104	1047880	44268	110833	0	0	8274	441178	0	0
2024-07-12 11:33:47			0	40742	0	0	0	29132	27770	150443	27145	1047862	44245	110831	0	0	8272	442397	0	0
2024-07-12 11:34:47			0	40736	0	0	0	29158	27780	150339	27022	1047871	44267	110841	0	0	8271	442576	0	0
2024-07-12 11:35:47			0	40750	0	0	0	29184	27770	150367	27137	1047916	44267	110851	0	0	8271	442124	0	0
2024-07-12 11:36:47			0	40747	0	0	0	29184	27780	150387	27407	1047871	44278	110851	0	0	8271	442201	0	0
2024-07-12 11:37:47			0	40745	0	0	0	29199	27790	150535	26967	1047970	44280	110857	0	0	8271	442244	0	0
2024-07-12 11:38:47			0	40743	0	0	0	29202	27810	150511	26989	1047942	44281	110858	0	0	8271	442261	0	0
2024-07-12 11:39:47			0	40750	0	0	0	29228	27810	150587	27261	1048050	44281	110868	0	0	8271	442022	0	0
2024-07-12 11:40:47			0	40738	0	0	0	29225	27800	150479	27237	1048122	44269	110867	0	0	8270	442457	0	0
2024-07-12 11:41:47			0	40728	0	0	0	29233	27820	150571	27287	1048094	44293	110870	0	0	8269	442747	0	0
2024-07-12 11:42:47			0	40742	0	0	0	29238	27820	150535	27436	1048094	44271	110872	0	0	8270	442270	0	0
2024-07-12 11:43:47			0	40742	0	0	0	29244	27830	150515	27135	1048139	44283	110874	0	0	8270	442244	0	0
2024-07-12 11:44:47			0	40739	0	0	0	29225	27830	150531	27183	1048112	44283	110867	0	0	8270	442346	0	0
2024-07-12 11:45:47			0	40768	0	0	0	29225	27840	150316	27369	1048130	44285	110867	0	0	8272	441332	0	0
2024-07-12 11:46:47			0	40746	0	0	0	29264	27830	150371	27306	1048255	44284	110882	0	0	8270	442108	0	0
2024-07-12 11:47:47			0	40762	0	0	0	29290	27830	150375	27131	1048255	44284	110892	0	0	8270	441562	0	0
2024-07-12 11:48:47			0	40773	0	0	0	29314	27840	150432	27351	1048354	44295	110901	0	0	8271	441162	0	0
2024-07-12 11:49:47			0	40762	0	0	0	29324	27860	150447	27194	1048434	44297	110905	0	0	8270	441486	0	0
2024-07-12 11:50:47			0	40759	0	0	0	29303	27870	150403	27149	1048434	44287	110897	0	0	8270	441563	0	0
2024-07-12 11:51:47			0	40741	0	0	0	29324	27880	150355	27253	1048559	44311	110905	0	0	8269	442151	0	0
2024-07-12 11:52:47			0	40745	0	0	0	29275	27890	150331	27189	1048568	44278	110886	0	0	8270	441989	0	0
2024-07-12 11:53:47			0	40742	0	0	0	29192	27870	150311	27282	1048245	44265	110854	0	0	8271	442142	0	0
2024-07-12 11:54:47			0	40763	0	0	0	29272	27880	150376	27164	1048290	44267	110885	0	0	8271	441401	0	0
2024-07-12 11:55:47			0	40752	0	0	0	29348	27880	150347	27301	1048451	44289	110914	0	0	8269	441776	0	0
2024-07-12 11:56:47			0	40744	0	0	0	29358	27890	150483	27170	1048541	44300	110918	0	0	8269	442023	0	0
2024-07-12 11:57:47			0	40737	0	0	0	29342	27900	150463	26958	1048585	44312	110912	0	0	8268	442236	0	0
2024-07-12 11:58:47			0	40741	0	0	0	29405	27910	150467	26982	1048711	44302	110936	0	0	8268	442074	0	0
2024-07-12 11:59:47			0	40722	0	0	0	29399	27920	150531	27050	1048737	44292	110934	0	0	8267	442697	0	0
2024-07-12 12:00:47			0	40715	0	0	0	29433	27920	150403	27208	1048818	44304	110947	0	0	8266	442936	0	0
2024-07-12 12:01:47			0	40713	0	0	0	29462	27940	150555	27078	1048845	44305	110958	0	0	8265	442953	0	0
2024-07-12 12:02:47			0	40696	0	0	0	29464	27960	150587	27355	1048988	44329	110959	0	0	8264	443482	0	0
2024-07-12 12:03:47			0	40709	0	0	0	29490	27980	150499	27372	1049112	44332	110969	0	0	8265	442987	0	0
2024-07-12 12:04:47			0	40676	0	0	0	29493	27980	150471	27204	1049220	44298	110970	0	0	8263	444115	0	0
2024-07-12 12:05:47			0	40687	0	0	0	29483	28000	150475	27053	1049202	44311	110966	0	0	8264	443687	0	0
2024-07-12 12:06:47			0	40713	0	0	0	29480	28000	150363	27142	1049255	44311	110965	0	0	8265	442800	0	0
2024-07-12 12:07:47			0	40685	0	0	0	29488	28020	150383	27261	1049264	44291	110968	0	0	8264	443705	0	0
2024-07-12 12:08:47			0	40694	0	0	0	29477	28020	150463	27156	1049345	44313	110964	0	0	8264	443397	0	0
2024-07-12 12:09:47			0	40726	0	0	0	29454	28040	150451	26981	1049344	44326	110955	0	0	8267	442254	0	0
2024-07-12 12:10:47			0	40717	0	0	0	29412	28040	150379	27391	1049326	44304	110939	0	0	8267	442561	0	0
2024-07-12 12:11:47			0	40719	0	0	0	29420	28040	150271	27197	1049299	44292	110942	0	0	8267	442493	0	0
2024-07-12 12:12:47			0	40733	0	0	0	29428	28030	150275	27362	1049174	44292	110945	0	0	8267	442041	0	0
2024-07-12 12:13:47			0	40720	0	0	0	29451	28040	150263	27225	1049317	44292	110954	0	0	8266	442459	0	0
2024-07-12 12:14:47			0	40711	0	0	0	29431	28030	150323	27383	1049282	44304	110946	0	0	8266	442791	0	0
2024-07-12 12:15:47			0	40721	0	0	0	29420	28050	150199	27168	1049389	44316	110942	0	0	8267	442399	0	0
2024-07-12 12:16:47			0	40717	0	0	0	29402	28050	150231	27457	1049308	44293	110935	0	0	8267	442536	0	0
2024-07-12 12:17:47			0	40751	0	0	0	29412	28050	150363	27209	1049335	44305	110939	0	0	8269	441377	0	0
2024-07-12 12:18:47			0	40724	0	0	0	29402	28050	150215	26852	1049281	44316	110935	0	0	8267	442297	0	0
2024-07-12 12:19:47			0	40746	0	0	0	29407	28050	150239	26906	1049317	44306	110937	0	0	8268	441547	0	0
2024-07-12 12:20:47			0	40752	0	0	0	29402	28060	150323	27029	1049326	44284	110935	0	0	8269	441317	0	0
2024-07-12 12:21:47			0	40733	0	0	0	29381	28050	150187	27123	1049209	44284	110927	0	0	8268	441990	0	0
2024-07-12 12:22:47			0	40749	0	0	0	29384	28040	150171	27064	1049111	44292	110928	0	0	8269	441470	0	0
2024-07-12 12:23:47			0	40766	0	0	0	29381	28040	150128	27095	1049084	44304	110927	0	0	8270	440892	0	0
2024-07-12 12:24:47			0	40749	0	0	0	29397	28040	150139	27180	1049129	44304	110933	0	0	8269	441470	0	0
2024-07-12 12:25:47			0	40759	0	0	0	29425	28030	150115	27078	1049255	44304	110944	0	0	8269	441155	0	0
2024-07-12 12:26:47			0	40753	0	0	0	29423	28030	150175	26849	1049273	44291	110943	0	0	8269	441360	0	0
2024-07-12 12:27:47			0	40778	0	0	0	29441	28030	150048	27305	1049273	44303	110950	0	0	8270	440509	0	0
2024-07-12 12:28:47			0	40765	0	0	0	29431	28040	150075	27189	1049299	44292	110946	0	0	8269	440925	0	0
2024-07-12 12:29:47			0	40767	0	0	0	29412	28040	150095	27275	1049246	44315	110939	0	0	8270	440858	0	0
2024-07-12 12:30:47			0	40774	0	0	0	29423	28030	150148	27168	1049246	44291	110943	0	0	8270	440645	0	0
2024-07-12 12:31:47			0	40769	0	0	0	29438	28040	150152	27107	1049299	44304	110949	0	0	8269	440789	0	0
2024-07-12 12:32:47			0	40775	0	0	0	29449	28050	150224	27241	1049344	44294	110953	0	0	8269	440560	0	0
2024-07-12 12:33:47			0	40761	0	0	0	29472	28050	150155	27320	1049344	44317	110962	0	0	8268	441036	0	0
2024-07-12 12:34:47			0	40784	0	0	0	29496	28050	150036	27194	1049371	44317	110971	0	0	8269	440254	0	0
2024-07-12 12:35:47			0	40765	0	0	0	29519	28070	150115	26764	1049514	44319	110980	0	0	8268	440849	0	0
2024-07-12 12:36:47			0	40780	0	0	0	29498	28080	150036	27156	1049603	44319	110972	0	0	8269	440313	0	0
2024-07-12 12:37:47			0	40773	0	0	0	29501	28080	150072	27072	1049496	44330	110973	0	0	8269	440552	0	0
2024-07-12 12:38:47			0	40787	0	0	0	29524	28080	150048	27046	1049532	44308	110982	0	0	8269	440075	0	0
2024-07-12 12:39:47			0	40779	0	0	0	29529	28080	150024	27041	1049585	44320	110984	0	0	8268	440347	0	0
2024-07-12 12:40:47			0	40763	0	0	0	29519	28090	150063	26854	1049630	44309	110980	0	0	8268	440866	0	0
2024-07-12 12:41:47			0	40785	0	0	0	29540	28090	150060	27048	1049621	44320	110988	0	0	8269	440118	0	0
2024-07-12 12:42:47			0	40773	0	0	0	29555	28100	150016	27192	1049612	44322	110994	0	0	8268	440501	0	0
2024-07-12 12:43:47			0	40769	0	0	0	29566	28120	150020	27199	1049692	44311	110998	0	0	8267	440586	0	0
2024-07-12 12:44:47			0	40767	0	0	0	29576	28120	150056	27255	1049719	44333	111002	0	0	8267	440654	0	0
2024-07-12 12:45:47			0	40753	0	0	0	29563	28130	149959	27086	1049871	44345	110997	0	0	8267	441105	0	0
2024-07-12 12:46:47			0	40765	0	0	0	29558	28130	150024	27227	1049907	44325	110995	0	0	8267	440697	0	0
2024-07-12 12:47:47			0	40751	0	0	0	29573	28140	150055	27310	1049844	44325	111001	0	0	8266	441148	0	0
2024-07-12 12:48:47			0	40757	0	0	0	29589	28140	150047	27317	1049835	44325	111007	0	0	8266	440943	0	0
2024-07-12 12:49:47			0	40763	0	0	0	29571	28150	150123	27543	1049907	44336	111000	0	0	8267	440714	0	0
2024-07-12 12:50:47			0	40763	0	0	0	29553	28160	150063	27140	1049817	44326	110993	0	0	8267	440688	0	0
2024-07-12 12:51:47			0	40741	0	0	0	29532	28150	150143	27320	1049754	44304	110985	0	0	8267	441463	0	0
2024-07-12 12:52:47			0	40762	0	0	0	29548	28150	150135	27249	1049727	44326	110991	0	0	8267	440748	0	0
2024-07-12 12:53:47			0	40736	0	0	0	29555	28160	150063	26963	1049871	44337	110994	0	0	8266	441607	0	0
2024-07-12 12:54:47			0	40745	0	0	0	29535	28150	150071	27100	1049835	44337	110986	0	0	8267	441326	0	0
2024-07-12 12:55:47			0	40745	0	0	0	29496	28150	150059	27128	1049835	44326	110971	0	0	8267	441326	0	0
2024-07-12 12:56:47			0	40733	0	0	0	29485	28160	150095	27027	1049763	44304	110967	0	0	8267	441710	0	0
2024-07-12 12:57:47			0	40741	0	0	0	29470	28150	150127	27315	1049691	44314	110961	0	0	8268	441463	0	0
2024-07-12 12:58:47			0	40732	0	0	0	29467	28130	150131	26965	1049665	44291	110960	0	0	8267	441820	0	0
2024-07-12 12:59:47			0	40725	0	0	0	29576	28140	150303	27078	1049781	44313	111002	0	0	8265	442033	0	0
2024-07-12 13:00:47			0	40731	0	0	0	29449	28140	150211	27194	1049763	44325	110953	0	0	8267	441829	0	0
2024-07-12 13:01:47			0	40709	0	0	0	29381	28140	150043	27511	1049656	44314	110927	0	0	8267	442579	0	0
2024-07-12 13:02:47			0	40713	0	0	0	29329	28130	150095	26767	1049414	44279	110907	0	0	8268	442468	0	0
2024-07-12 13:03:47			0	40718	0	0	0	29335	28090	150167	26809	1049253	44265	110909	0	0	8268	442400	0	0
2024-07-12 13:04:47			0	40731	0	0	0	29353	28070	150143	27156	1049191	44286	110916	0	0	8269	442007	0	0
2024-07-12 13:05:47			0	40697	0	0	0	29563	28060	150271	27078	1049362	44295	110997	0	0	8263	443193	0	0
2024-07-12 13:06:47			0	40719	0	0	0	29602	28070	150335	26783	1049568	44319	111012	0	0	8264	442416	0	0
2024-07-12 13:07:47			0	40707	0	0	0	29457	28090	150287	26967	1049603	44321	110956	0	0	8266	442775	0	0
2024-07-12 13:08:47			0	40717	0	0	0	29472	28100	150287	27076	1049504	44299	110962	0	0	8266	442408	0	0
2024-07-12 13:09:47			0	40737	0	0	0	29477	28090	150327	27159	1049522	44309	110964	0	0	8267	441752	0	0
2024-07-12 13:10:47			0	40731	0	0	0	29516	28090	150323	27466	1049486	44308	110979	0	0	8266	441956	0	0
2024-07-12 13:11:47			0	40711	0	0	0	29509	28090	150359	27109	1049603	44309	110976	0	0	8265	442638	0	0
2024-07-12 13:12:47			0	40725	0	0	0	29464	28110	150315	27055	1049567	44310	110959	0	0	8267	442110	0	0
2024-07-12 13:13:47			0	40715	0	0	0	29438	28090	150403	27157	1049522	44298	110949	0	0	8266	442502	0	0
2024-07-12 13:14:47			0	40718	0	0	0	29431	28090	150263	27268	1049468	44309	110946	0	0	8267	442400	0	0
2024-07-12 13:15:47			0	40738	0	0	0	29420	28080	150255	27246	1049478	44308	110942	0	0	8268	441743	0	0
2024-07-12 13:16:47			0	40724	0	0	0	29374	28070	150295	27511	1049352	44296	110924	0	0	8268	442246	0	0
2024-07-12 13:17:47			0	40740	0	0	0	29381	28060	150243	27334	1049254	44285	110927	0	0	8269	441726	0	0
2024-07-12 13:18:47			0	40726	0	0	0	29381	28060	150243	27196	1049191	44294	110927	0	0	8268	442203	0	0
2024-07-12 13:19:47			0	40718	0	0	0	29371	28040	150363	27268	1049138	44282	110923	0	0	8267	442527	0	0
2024-07-12 13:20:47			0	40737	0	0	0	29371	28030	150315	27267	1049120	44304	110923	0	0	8269	441905	0	0
2024-07-12 13:21:47			0	40727	0	0	0	29389	28030	150235	27000	1049111	44303	110930	0	0	8268	442246	0	0
2024-07-12 13:22:47			0	40729	0	0	0	29431	28030	150299	27206	1049111	44303	110946	0	0	8267	442177	0	0
2024-07-12 13:23:47			0	40737	0	0	0	29423	28030	150287	27220	1049246	44303	110943	0	0	8268	441905	0	0
2024-07-12 13:24:47			0	40742	0	0	0	29433	28020	150371	27199	1049237	44313	110947	0	0	8268	441760	0	0
2024-07-12 13:25:47			0	40745	0	0	0	29459	28040	150283	27324	1049291	44315	110957	0	0	8268	441607	0	0
2024-07-12 13:26:47			0	40737	0	0	0	29433	28040	150307	27164	1049272	44337	110947	0	0	8267	441879	0	0
2024-07-12 13:27:47			0	40725	0	0	0	29428	28040	150235	27150	1049326	44315	110945	0	0	8267	442288	0	0
2024-07-12 13:28:47			0	40743	0	0	0	29410	28050	150243	27031	1049254	44327	110938	0	0	8268	441649	0	0
2024-07-12 13:29:47			0	40734	0	0	0	29410	28040	150283	27222	1049219	44304	110938	0	0	8268	441981	0	0
2024-07-12 13:30:47			0	40757	0	0	0	29436	28040	150251	27008	1049237	44315	110948	0	0	8269	441198	0	0
2024-07-12 13:31:47			0	40752	0	0	0	29423	28040	150235	26925	1049299	44326	110943	0	0	8269	441368	0	0
2024-07-12 13:32:47			0	40752	0	0	0	29415	28030	150215	27135	1049282	44292	110940	0	0	8269	441394	0	0
2024-07-12 13:33:47			0	40740	0	0	0	29438	28030	150239	27105	1049282	44315	110949	0	0	8268	441802	0	0
2024-07-12 13:34:47			0	40751	0	0	0	29425	28040	150247	27213	1049299	44315	110944	0	0	8268	441402	0	0
2024-07-12 13:35:47			0	40739	0	0	0	29425	28030	150219	27343	1049309	44326	110944	0	0	8268	441837	0	0
2024-07-12 13:36:47			0	40739	0	0	0	29415	28040	150207	27286	1049192	44304	110940	0	0	8268	441811	0	0
2024-07-12 13:37:47			0	40765	0	0	0	29438	28040	150187	27452	1049264	44337	110949	0	0	8269	440925	0	0
2024-07-12 13:38:47			0	40753	0	0	0	29428	28040	150175	27364	1049317	44315	110945	0	0	8268	441334	0	0
2024-07-12 13:39:47			0	40768	0	0	0	29428	28040	150095	27069	1049344	44292	110945	0	0	8269	440823	0	0
2024-07-12 13:40:47			0	40767	0	0	0	29449	28050	150052	27242	1049335	44316	110953	0	0	8269	440832	0	0
2024-07-12 13:41:47			0	40771	0	0	0	29472	28050	150088	27448	1049371	44328	110962	0	0	8269	440696	0	0
2024-07-12 13:42:47			0	40754	0	0	0	29470	28060	150159	27270	1049434	44328	110961	0	0	8268	441249	0	0
2024-07-12 13:43:47			0	40762	0	0	0	29488	28060	150164	27364	1049469	44329	110968	0	0	8268	440977	0	0
2024-07-12 13:44:47			0	40752	0	0	0	29506	28060	150131	27284	1049604	44329	110975	0	0	8267	441317	0	0
2024-07-12 13:45:47			0	40778	0	0	0	29503	28080	150048	27384	1049558	44320	110974	0	0	8269	440381	0	0
2024-07-12 13:46:47			0	40779	0	0	0	29488	28080	150136	27142	1049550	44330	110968	0	0	8269	440347	0	0
2024-07-12 13:47:47			0	40764	0	0	0	29475	28070	150051	27362	1049487	44319	110963	0	0	8268	440883	0	0
2024-07-12 13:48:47			0	40759	0	0	0	29483	28080	150119	27235	1049577	44319	110966	0	0	8268	441028	0	0
2024-07-12 13:49:47			0	40770	0	0	0	29509	28090	150060	27248	1049540	44320	110976	0	0	8268	440628	0	0
2024-07-12 13:50:47			0	40776	0	0	0	29509	28090	150128	27353	1049594	44320	110976	0	0	8269	440424	0	0
2024-07-12 13:51:47			0	40758	0	0	0	29519	28090	150115	27367	1049675	44320	110980	0	0	8267	441037	0	0
2024-07-12 13:52:47			0	40773	0	0	0	29511	28100	150020	27350	1049639	44322	110977	0	0	8268	440501	0	0
2024-07-12 13:53:47			0	40760	0	0	0	29503	28110	150031	27300	1049701	44333	110974	0	0	8268	440918	0	0
2024-07-12 13:54:47			0	40768	0	0	0	29493	28090	150040	27301	1049603	44309	110970	0	0	8268	440696	0	0
2024-07-12 13:55:47			0	40781	0	0	0	29509	28100	150032	27286	1049612	44310	110976	0	0	8269	440229	0	0
2024-07-12 13:56:47			0	40781	0	0	0	29501	28100	150108	27327	1049612	44322	110973	0	0	8269	440229	0	0
2024-07-12 13:57:47			0	40777	0	0	0	29493	28100	150036	27386	1049612	44322	110970	0	0	8269	440365	0	0
2024-07-12 13:58:47			0	40793	0	0	0	29493	28110	150024	27213	1049567	44333	110970	0	0	8270	439795	0	0
2024-07-12 13:59:47			0	40775	0	0	0	29467	28090	149904	27277	1049549	44309	110960	0	0	8269	440458	0	0
2024-07-12 14:00:47			0	40769	0	0	0	29467	28090	149972	27043	1049486	44308	110960	0	0	8269	440662	0	0
2024-07-12 14:01:47			0	40775	0	0	0	29462	28090	149984	27013	1049549	44332	110958	0	0	8269	440458	0	0
2024-07-12 14:02:47			0	40786	0	0	0	29459	28090	150032	27294	1049549	44321	110957	0	0	8270	440084	0	0
2024-07-12 14:03:47			0	40800	0	0	0	29464	28100	150004	27008	1049531	44310	110959	0	0	8271	439583	0	0
2024-07-12 14:04:47			0	40793	0	0	0	29480	28090	150020	27138	1049567	44308	110965	0	0	8270	439846	0	0
2024-07-12 14:05:47			0	40761	0	0	0	29490	28090	149951	27350	1049549	44321	110969	0	0	8268	440934	0	0
2024-07-12 14:06:47			0	40779	0	0	0	29511	28100	150008	27300	1049639	44333	110977	0	0	8269	440297	0	0
2024-07-12 14:07:47			0	40801	0	0	0	29511	28110	149912	27154	1049621	44322	110977	0	0	8270	439523	0	0
2024-07-12 14:08:47			0	40789	0	0	0	29511	28090	150008	27220	1049630	44321	110977	0	0	8269	439982	0	0
2024-07-12 14:09:47			0	40799	0	0	0	29529	28110	149992	27390	1049675	44333	110984	0	0	8270	439591	0	0
2024-07-12 14:10:47			0	40795	0	0	0	29519	28110	149900	27228	1049764	44333	110980	0	0	8270	439727	0	0
2024-07-12 14:11:47			0	40789	0	0	0	29509	28120	149952	27409	1049692	44323	110976	0	0	8270	439906	0	0
2024-07-12 14:12:47			0	40804	0	0	0	29496	28110	149888	27015	1049683	44323	110971	0	0	8271	439421	0	0
2024-07-12 14:13:47			0	40819	0	0	0	29501	28120	149896	27282	1049638	44323	110973	0	0	8271	438887	0	0
2024-07-12 14:14:47			0	40819	0	0	0	29498	28110	149964	27178	1049648	44322	110972	0	0	8271	438912	0	0
2024-07-12 14:15:47			0	40798	0	0	0	29498	28120	150012	27332	1049638	44333	110972	0	0	8270	439600	0	0
2024-07-12 14:16:47			0	40811	0	0	0	29514	28110	149860	27209	1049728	44322	110978	0	0	8271	439184	0	0
2024-07-12 14:17:47			0	40819	0	0	0	29516	28110	149940	27166	1049737	44333	110979	0	0	8271	438912	0	0
2024-07-12 14:18:47			0	40812	0	0	0	29579	28130	149900	27403	1049764	44345	111003	0	0	8270	439099	0	0
2024-07-12 14:19:47			0	40815	0	0	0	29592	28130	149984	27168	1049844	44345	111008	0	0	8270	438997	0	0
2024-07-12 14:20:47			0	40826	0	0	0	29620	28140	149816	27168	1049979	44359	111019	0	0	8270	438598	0	0
2024-07-12 14:21:47			0	40818	0	0	0	29651	28150	149924	27438	1050104	44348	111031	0	0	8269	438844	0	0
2024-07-12 14:22:47			0	40792	0	0	0	29654	28170	149976	27289	1050194	44339	111032	0	0	8267	439677	0	0
2024-07-12 14:23:47			0	40808	0	0	0	29607	28190	149852	27450	1050166	44351	111014	0	0	8269	439083	0	0
2024-07-12 14:24:47			0	40810	0	0	0	29597	28190	149956	27360	1050139	44351	111010	0	0	8270	439015	0	0
2024-07-12 14:25:47			0	40807	0	0	0	29649	28190	149916	27466	1050193	44329	111030	0	0	8268	439117	0	0
2024-07-12 14:26:47			0	40802	0	0	0	29657	28200	149848	27196	1050211	44342	111033	0	0	8268	439261	0	0
2024-07-12 14:27:47			0	40796	0	0	0	29651	28220	149860	27431	1050327	44355	111031	0	0	8268	439414	0	0
2024-07-12 14:28:47			0	40811	0	0	0	29631	28220	149784	27587	1050327	44333	111023	0	0	8269	438905	0	0
2024-07-12 14:29:47			0	40796	0	0	0	29633	28230	149848	27395	1050264	44333	111024	0	0	8268	439389	0	0
2024-07-12 14:30:47			0	40804	0	0	0	29628	28230	149724	27379	1050273	44356	111022	0	0	8269	439117	0	0
2024-07-12 14:31:47			0	40807	0	0	0	29607	28220	149776	27322	1050300	44333	111014	0	0	8269	439041	0	0
2024-07-12 14:32:47			0	40794	0	0	0	29586	28230	149816	27300	1050210	44323	111006	0	0	8269	439457	0	0
2024-07-12 14:33:47			0	40812	0	0	0	29550	28220	149828	27267	1050120	44322	110992	0	0	8271	438871	0	0
2024-07-12 14:34:47			0	40800	0	0	0	29566	28210	149880	27149	1050156	44321	110998	0	0	8270	439304	0	0
2024-07-12 14:35:47			0	40808	0	0	0	29571	28200	149788	27499	1050112	44320	111000	0	0	8270	439057	0	0
2024-07-12 14:36:47			0	40815	0	0	0	29571	28190	149716	27249	1050067	44330	111000	0	0	8270	438845	0	0
2024-07-12 14:37:47			0	40811	0	0	0	29561	28210	149864	27338	1050094	44332	110996	0	0	8270	438930	0	0
2024-07-12 14:38:47			0	40821	0	0	0	29555	28200	149828	27258	1050049	44320	110994	0	0	8271	438616	0	0
2024-07-12 14:39:47			0	40809	0	0	0	29542	28190	149872	27502	1050040	44330	110989	0	0	8270	439049	0	0
2024-07-12 14:40:47			0	40833	0	0	0	29540	28190	149744	27312	1050040	44330	110988	0	0	8272	438234	0	0
2024-07-12 14:41:47			0	40802	0	0	0	29524	28200	149772	27267	1049968	44331	110982	0	0	8270	439261	0	0
2024-07-12 14:42:47			0	40813	0	0	0	29511	28190	149752	27327	1049924	44295	110977	0	0	8271	438913	0	0
2024-07-12 14:43:47			0	40808	0	0	0	29524	28180	149724	26972	1049906	44318	110982	0	0	8271	439108	0	0
2024-07-12 14:44:47			0	40795	0	0	0	29529	28170	149852	27225	1049897	44306	110984	0	0	8270	439575	0	0
2024-07-12 14:45:47			0	40799	0	0	0	29555	28170	149932	27298	1049915	44327	110994	0	0	8270	439439	0	0
2024-07-12 14:46:47			0	40785	0	0	0	29545	28170	149900	27431	1049951	44328	110990	0	0	8269	439915	0	0
2024-07-12 14:47:47			0	40795	0	0	0	29529	28180	149780	27407	1049987	44329	110984	0	0	8270	439550	0	0
2024-07-12 14:48:47			0	40798	0	0	0	29506	28180	149820	27279	1049960	44318	110975	0	0	8270	439448	0	0
2024-07-12 14:49:47			0	40805	0	0	0	29524	28170	149764	27417	1049915	44327	110982	0	0	8270	439235	0	0
2024-07-12 14:50:47			0	40781	0	0	0	29493	28150	149808	27355	1049862	44326	110970	0	0	8269	440102	0	0
2024-07-12 14:51:47			0	40789	0	0	0	29483	28170	149772	27410	1049835	44316	110966	0	0	8270	439779	0	0
2024-07-12 14:52:47			0	40797	0	0	0	29477	28160	149800	27289	1049817	44326	110964	0	0	8271	439532	0	0
2024-07-12 14:53:47			0	40792	0	0	0	29496	28140	149836	27303	1049754	44313	110971	0	0	8270	439753	0	0
2024-07-12 14:54:47			0	40807	0	0	0	29470	28140	149868	27208	1049763	44303	110961	0	0	8271	439243	0	0
2024-07-12 14:55:47			0	40790	0	0	0	29511	28140	149888	27034	1049763	44303	110977	0	0	8270	439821	0	0
2024-07-12 14:56:47			0	40799	0	0	0	29516	28140	149956	27163	1049835	44325	110979	0	0	8270	439515	0	0
2024-07-12 14:57:47			0	40787	0	0	0	29540	28140	149932	27393	1049808	44313	110988	0	0	8269	439923	0	0
2024-07-12 14:58:47			0	40785	0	0	0	29457	28140	149916	27135	1049754	44325	110956	0	0	8270	439991	0	0
2024-07-12 14:59:47			0	40780	0	0	0	29454	28140	149880	27097	1049727	44302	110955	0	0	8270	440161	0	0
2024-07-12 15:00:47			0	40778	0	0	0	29446	28130	149840	27388	1049719	44313	110952	0	0	8270	440254	0	0
2024-07-12 15:01:47			0	40777	0	0	0	29444	28120	149840	27261	1049638	44311	110951	0	0	8270	440314	0	0
2024-07-12 15:02:47			0	40780	0	0	0	29441	28110	149808	27268	1049630	44323	110950	0	0	8270	440237	0	0
2024-07-12 15:03:47			0	40798	0	0	0	29493	28110	149896	27301	1049630	44311	110970	0	0	8270	439625	0	0
2024-07-12 15:04:47			0	40787	0	0	0	29464	28110	149832	27213	1049683	44323	110959	0	0	8270	439999	0	0
2024-07-12 15:05:47			0	40792	0	0	0	29457	28110	149892	27326	1049630	44311	110956	0	0	8271	439829	0	0
2024-07-12 15:06:47			0	40792	0	0	0	29438	28120	149908	27369	1049611	44323	110949	0	0	8271	439804	0	0
2024-07-12 15:07:47			0	40817	0	0	0	29441	28110	149808	27433	1049594	44310	110950	0	0	8272	438980	0	0
2024-07-12 15:08:47			0	40797	0	0	0	29446	28110	149788	27098	1049656	44323	110952	0	0	8271	439659	0	0
2024-07-12 15:09:47			0	40795	0	0	0	29428	28100	149960	27326	1049585	44310	110945	0	0	8271	439753	0	0
2024-07-12 15:10:47			0	40798	0	0	0	29436	28100	149932	27244	1049558	44310	110948	0	0	8271	439651	0	0
2024-07-12 15:11:47			0	40793	0	0	0	29451	28090	149944	27256	1049540	44320	110954	0	0	8271	439846	0	0
2024-07-12 15:12:47			0	40791	0	0	0	29444	28090	149952	27227	1049549	44321	110951	0	0	8271	439914	0	0
2024-07-12 15:13:47			0	40796	0	0	0	29441	28090	149840	27244	1049549	44309	110950	0	0	8271	439744	0	0
2024-07-12 15:14:47			0	40790	0	0	0	29444	28090	149936	27033	1049540	44320	110951	0	0	8271	439948	0	0
2024-07-12 15:15:47			0	40787	0	0	0	29436	28090	150012	27121	1049540	44320	110948	0	0	8271	440050	0	0
2024-07-12 15:16:47			0	40795	0	0	0	29444	28080	149880	27242	1049523	44319	110951	0	0	8271	439803	0	0
2024-07-12 15:17:47			0	40782	0	0	0	29431	28080	150020	27384	1049505	44342	110946	0	0	8270	440245	0	0
2024-07-12 15:18:47			0	40785	0	0	0	29467	28090	150016	27024	1049621	44331	110960	0	0	8270	440118	0	0
2024-07-12 15:19:47			0	40790	0	0	0	29488	28090	150016	27183	1049648	44342	110968	0	0	8270	439948	0	0
2024-07-12 15:20:47			0	40782	0	0	0	29483	28090	150040	27419	1049648	44320	110966	0	0	8269	440220	0	0
2024-07-12 15:21:47			0	40792	0	0	0	29485	28090	150104	27459	1049630	44332	110967	0	0	8270	439880	0	0
2024-07-12 15:22:47			0	40777	0	0	0	29488	28090	150068	27157	1049630	44321	110968	0	0	8269	440390	0	0
2024-07-12 15:23:47			0	40799	0	0	0	29449	28090	150076	27216	1049630	44321	110953	0	0	8271	439642	0	0
2024-07-12 15:24:47			0	40801	0	0	0	29480	28090	150016	27067	1049630	44321	110965	0	0	8271	439574	0	0
2024-07-12 15:25:47			0	40777	0	0	0	29483	28090	150024	27436	1049621	44320	110966	0	0	8269	440390	0	0
2024-07-12 15:26:47			0	40783	0	0	0	29464	28110	150136	27353	1049621	44333	110959	0	0	8270	440135	0	0
2024-07-12 15:27:47			0	40775	0	0	0	29446	28090	150024	27409	1049594	44331	110952	0	0	8270	440458	0	0
2024-07-12 15:28:47			0	40776	0	0	0	29470	28090	150000	27258	1049594	44320	110961	0	0	8269	440424	0	0
2024-07-12 15:29:47			0	40781	0	0	0	29470	28090	150040	27178	1049630	44332	110961	0	0	8270	440254	0	0
2024-07-12 15:30:47			0	40765	0	0	0	29462	28110	150044	27140	1049567	44310	110958	0	0	8269	440747	0	0
2024-07-12 15:31:47			0	40773	0	0	0	29477	28090	150112	27114	1049594	44320	110964	0	0	8269	440526	0	0
2024-07-12 15:32:47			0	40775	0	0	0	29506	28090	150088	27156	1049603	44309	110975	0	0	8269	440458	0	0
2024-07-12 15:33:47			0	40775	0	0	0	29501	28090	150068	27046	1049711	44321	110973	0	0	8269	440458	0	0
2024-07-12 15:34:47			0	40768	0	0	0	29485	28100	150055	27190	1049666	44333	110967	0	0	8269	440671	0	0
2024-07-12 15:35:47			0	40756	0	0	0	29509	28110	150079	27119	1049630	44323	110976	0	0	8268	441054	0	0
2024-07-12 15:36:47			0	40767	0	0	0	29529	28110	150084	27367	1049710	44333	110984	0	0	8268	440679	0	0
2024-07-12 15:37:47			0	40766	0	0	0	29558	28120	150044	27272	1049809	44345	110995	0	0	8267	440688	0	0
2024-07-12 15:38:47			0	40769	0	0	0	29561	28120	150032	27029	1049863	44345	110996	0	0	8267	440586	0	0
2024-07-12 15:39:47			0	40774	0	0	0	29566	28120	150128	27234	1049827	44333	110998	0	0	8268	440416	0	0
2024-07-12 15:40:47			0	40764	0	0	0	29548	28150	150063	27282	1049907	44325	110991	0	0	8268	440680	0	0
2024-07-12 15:41:47			0	40757	0	0	0	29553	28140	150027	27213	1049916	44335	110993	0	0	8267	440943	0	0
2024-07-12 15:42:47			0	40777	0	0	0	29555	28140	150052	27183	1049916	44335	110994	0	0	8268	440263	0	0
2024-07-12 15:43:47			0	40758	0	0	0	29563	28140	150123	27072	1049916	44335	110997	0	0	8267	440909	0	0
2024-07-12 15:44:47			0	40765	0	0	0	29566	28140	150027	27232	1049898	44347	110998	0	0	8267	440671	0	0
2024-07-12 15:45:47			0	40772	0	0	0	29566	28150	150060	27303	1049916	44326	110998	0	0	8268	440408	0	0
2024-07-12 15:46:47			0	40765	0	0	0	29568	28150	150132	27114	1050014	44336	110999	0	0	8267	440646	0	0
2024-07-12 15:47:47			0	40750	0	0	0	29571	28160	150115	27289	1049987	44349	111000	0	0	8266	441131	0	0
2024-07-12 15:48:47			0	40752	0	0	0	29576	28160	150127	27455	1049979	44326	111002	0	0	8266	441063	0	0
2024-07-12 15:49:47			0	40754	0	0	0	29610	28160	150075	27454	1050059	44337	111015	0	0	8266	440995	0	0
2024-07-12 15:50:47			0	40740	0	0	0	29599	28170	150091	27602	1050050	44361	111011	0	0	8265	441446	0	0
2024-07-12 15:51:47			0	40749	0	0	0	29597	28170	150091	27372	1050086	44350	111010	0	0	8266	441139	0	0
2024-07-12 15:52:47			0	40740	0	0	0	29599	28180	150031	27227	1050095	44340	111011	0	0	8265	441420	0	0
2024-07-12 15:53:47			0	40739	0	0	0	29599	28180	150055	27438	1050130	44340	111011	0	0	8265	441454	0	0
2024-07-12 15:54:47			0	40738	0	0	0	29589	28190	150007	27284	1050166	44329	111007	0	0	8266	441463	0	0
2024-07-12 15:55:47			0	40745	0	0	0	29581	28180	150031	27175	1050041	44340	111004	0	0	8266	441250	0	0
2024-07-12 15:56:47			0	40731	0	0	0	29589	28180	150123	27248	1050130	44340	111007	0	0	8265	441727	0	0
2024-07-12 15:57:47			0	40741	0	0	0	29610	28190	150051	27232	1050202	44352	111015	0	0	8265	441361	0	0
2024-07-12 15:58:47			0	40731	0	0	0	29586	28190	150051	27599	1050139	44340	111006	0	0	8265	441701	0	0
2024-07-12 15:59:47			0	40742	0	0	0	29579	28190	150055	27355	1050148	44341	111003	0	0	8266	441327	0	0
2024-07-12 16:00:47			0	40734	0	0	0	29581	28200	150059	27133	1050103	44342	111004	0	0	8266	441573	0	0
2024-07-12 16:01:47			0	40739	0	0	0	29597	28200	150023	27020	1050157	44331	111010	0	0	8266	441403	0	0
2024-07-12 16:02:47			0	40750	0	0	0	29607	28190	150067	27296	1050121	44341	111014	0	0	8266	441054	0	0
2024-07-12 16:03:47			0	40737	0	0	0	29607	28200	150071	27331	1050184	44342	111014	0	0	8265	441471	0	0
2024-07-12 16:04:47			0	40742	0	0	0	29618	28200	150043	27381	1050291	44353	111018	0	0	8265	441301	0	0
2024-07-12 16:05:47			0	40740	0	0	0	29602	28210	150067	27261	1050183	44343	111012	0	0	8266	441344	0	0
2024-07-12 16:06:47			0	40732	0	0	0	29599	28210	150143	27459	1050264	44343	111011	0	0	8265	441616	0	0
2024-07-12 16:07:47			0	40729	0	0	0	29607	28210	150071	27289	1050255	44343	111014	0	0	8265	441718	0	0
2024-07-12 16:08:47			0	40735	0	0	0	29615	28220	150071	26854	1050309	44344	111017	0	0	8265	441488	0	0
2024-07-12 16:09:47			0	40724	0	0	0	29618	28230	150183	27066	1050291	44345	111018	0	0	8264	441838	0	0
2024-07-12 16:10:47			0	40750	0	0	0	29623	28220	150099	27171	1050300	44355	111020	0	0	8266	440978	0	0
2024-07-12 16:11:47			0	40722	0	0	0	29618	28220	150027	26974	1050327	44344	111018	0	0	8264	441931	0	0
2024-07-12 16:12:47			0	40718	0	0	0	29638	28220	150103	27031	1050300	44333	111026	0	0	8264	442068	0	0
2024-07-12 16:13:47			0	40734	0	0	0	29628	28230	150043	27450	1050300	44356	111022	0	0	8265	441497	0	0
2024-07-12 16:14:47			0	40728	0	0	0	29638	28230	150055	27144	1050318	44345	111026	0	0	8264	441701	0	0
2024-07-12 16:15:47			0	40712	0	0	0	29631	28230	150063	27272	1050300	44345	111023	0	0	8264	442246	0	0
2024-07-12 16:16:47			0	40731	0	0	0	29636	28230	150091	27069	1050318	44345	111025	0	0	8265	441599	0	0
2024-07-12 16:17:47			0	40734	0	0	0	29618	28230	150195	27100	1050326	44356	111018	0	0	8265	441497	0	0
2024-07-12 16:18:47			0	40743	0	0	0	29625	28240	150071	27239	1050362	44345	111021	0	0	8265	441165	0	0
2024-07-12 16:19:47			0	40748	0	0	0	29625	28240	149975	27291	1050389	44334	111021	0	0	8266	440995	0	0
2024-07-12 16:20:47			0	40729	0	0	0	29631	28240	149999	27393	1050371	44346	111023	0	0	8265	441642	0	0
2024-07-12 16:21:47			0	40749	0	0	0	29628	28240	149963	27294	1050335	44345	111022	0	0	8266	440961	0	0
2024-07-12 16:22:47			0	40742	0	0	0	29636	28240	150095	27196	1050389	44357	111025	0	0	8265	441199	0	0
2024-07-12 16:23:47			0	40727	0	0	0	29636	28230	149915	27241	1050326	44345	111025	0	0	8264	441735	0	0
2024-07-12 16:24:47			0	40744	0	0	0	29620	28240	149995	27277	1050398	44335	111019	0	0	8266	441131	0	0
2024-07-12 16:25:47			0	40735	0	0	0	29636	28240	150051	27396	1050371	44346	111025	0	0	8265	441437	0	0
2024-07-12 16:26:47			0	40733	0	0	0	29654	28240	150043	27180	1050416	44345	111032	0	0	8264	441506	0	0
2024-07-12 16:27:47			0	40741	0	0	0	29638	28240	150027	27386	1050398	44358	111026	0	0	8265	441233	0	0
2024-07-12 16:28:47			0	40741	0	0	0	29631	28240	149959	27289	1050425	44358	111023	0	0	8265	441233	0	0
2024-07-12 16:29:47			0	40747	0	0	0	29636	28250	149939	27479	1050389	44346	111025	0	0	8266	441004	0	0
2024-07-12 16:30:47			0	40740	0	0	0	29638	28250	150015	27357	1050469	44346	111026	0	0	8265	441242	0	0
2024-07-12 16:31:47			0	40768	0	0	0	29638	28260	149911	27298	1050478	44347	111026	0	0	8267	440264	0	0
2024-07-12 16:32:47			0	40737	0	0	0	29649	28250	150007	27326	1050443	44358	111030	0	0	8265	441344	0	0
2024-07-12 16:33:47			0	40745	0	0	0	29654	28260	149999	27338	1050505	44347	111032	0	0	8265	441046	0	0
2024-07-12 16:34:47			0	40745	0	0	0	29646	28260	149955	27426	1050460	44337	111029	0	0	8265	441046	0	0
2024-07-12 16:35:47			0	40750	0	0	0	29644	28260	149927	27222	1050478	44347	111028	0	0	8266	440876	0	0
2024-07-12 16:36:47			0	40748	0	0	0	29644	28260	149943	27414	1050478	44336	111028	0	0	8265	440944	0	0
2024-07-12 16:37:47			0	40740	0	0	0	29649	28260	149895	27336	1050532	44336	111030	0	0	8265	441216	0	0
2024-07-12 16:38:47			0	40737	0	0	0	29659	28250	149891	27027	1050461	44346	111034	0	0	8265	441344	0	0
2024-07-12 16:39:47			0	40766	0	0	0	29654	28260	149972	27381	1050541	44348	111032	0	0	8266	440332	0	0
2024-07-12 16:40:47			0	40766	0	0	0	29662	28260	149924	27300	1050514	44348	111035	0	0	8266	440332	0	0
2024-07-12 16:41:47			0	40765	0	0	0	29680	28270	149939	27034	1050550	44337	111042	0	0	8266	440340	0	0
2024-07-12 16:42:47			0	40772	0	0	0	29680	28260	149860	27003	1050541	44360	111042	0	0	8266	440128	0	0
2024-07-12 16:43:47			0	40761	0	0	0	29664	28270	149835	26876	1050532	44348	111036	0	0	8266	440476	0	0
2024-07-12 16:44:47			0	40775	0	0	0	29675	28270	149872	27312	1050532	44337	111040	0	0	8267	440000	0	0
2024-07-12 16:45:47			0	40768	0	0	0	29701	28270	149764	27206	1050586	44360	111050	0	0	8266	440238	0	0
2024-07-12 16:46:47			0	40757	0	0	0	29685	28270	149795	27118	1050640	44337	111044	0	0	8265	440612	0	0
2024-07-12 16:47:47			0	40781	0	0	0	29672	28280	149852	27196	1050622	44349	111039	0	0	8267	439771	0	0
2024-07-12 16:48:47			0	40779	0	0	0	29677	28280	149812	27197	1050631	44350	111041	0	0	8267	439839	0	0
2024-07-12 16:49:47			0	40779	0	0	0	29677	28270	149744	27331	1050532	44348	111041	0	0	8267	439865	0	0
2024-07-12 16:50:47			0	40770	0	0	0	29672	28280	149860	27322	1050622	44349	111039	0	0	8266	440145	0	0
2024-07-12 16:51:47			0	40773	0	0	0	29685	28280	149836	27152	1050595	44349	111044	0	0	8266	440043	0	0
2024-07-12 16:52:47			0	40763	0	0	0	29677	28270	149899	27171	1050613	44348	111041	0	0	8266	440408	0	0
2024-07-12 16:53:47			0	40779	0	0	0	29683	28280	149848	27203	1050631	44362	111043	0	0	8267	439839	0	0
2024-07-12 16:54:47			0	40797	0	0	0	29677	28290	149932	27336	1050667	44362	111041	0	0	8268	439202	0	0
2024-07-12 16:55:47			0	40787	0	0	0	29677	28280	149860	27237	1050658	44362	111041	0	0	8267	439567	0	0
2024-07-12 16:56:47			0	40801	0	0	0	29657	28280	149816	27223	1050604	44350	111033	0	0	8268	439092	0	0
2024-07-12 16:57:47			0	40792	0	0	0	29667	28300	149780	27289	1050603	44351	111037	0	0	8268	439347	0	0
2024-07-12 16:58:47			0	40781	0	0	0	29670	28280	149844	27348	1050604	44362	111038	0	0	8267	439771	0	0
2024-07-12 16:59:47			0	40770	0	0	0	29677	28290	149832	27284	1050667	44362	111041	0	0	8266	440120	0	0
2024-07-12 17:00:47			0	40802	0	0	0	29664	28280	149864	27351	1050577	44350	111036	0	0	8268	439058	0	0
2024-07-12 17:01:47			0	40783	0	0	0	29664	28300	149896	27369	1050603	44340	111036	0	0	8267	439652	0	0
2024-07-12 17:02:47			0	40801	0	0	0	29675	28290	149760	27248	1050649	44363	111040	0	0	8268	439067	0	0
2024-07-12 17:03:47			0	40793	0	0	0	29675	28290	149752	27074	1050649	44351	111040	0	0	8268	439338	0	0
2024-07-12 17:04:47			0	40792	0	0	0	29672	28280	149912	27176	1050631	44350	111039	0	0	8268	439398	0	0
2024-07-12 17:05:47			0	40788	0	0	0	29688	28290	149848	27097	1050622	44351	111045	0	0	8267	439508	0	0
2024-07-12 17:06:47			0	40796	0	0	0	29683	28290	149856	27187	1050729	44340	111043	0	0	8268	439236	0	0
2024-07-12 17:07:47			0	40793	0	0	0	29696	28300	149908	27208	1050657	44351	111048	0	0	8267	439313	0	0
2024-07-12 17:08:47			0	40787	0	0	0	29693	28300	149924	27296	1050693	44363	111047	0	0	8267	439517	0	0
2024-07-12 17:09:47			0	40789	0	0	0	29696	28300	149888	27395	1050711	44374	111048	0	0	8267	439449	0	0
2024-07-12 17:10:47			0	40794	0	0	0	29706	28310	149872	27251	1050756	44364	111052	0	0	8267	439254	0	0
2024-07-12 17:11:47			0	40786	0	0	0	29724	28310	149748	26977	1050756	44375	111059	0	0	8267	439525	0	0
2024-07-12 17:12:47			0	40802	0	0	0	29701	28310	149892	27034	1050738	44353	111050	0	0	8268	438982	0	0
2024-07-12 17:13:47			0	40800	0	0	0	29698	28320	149812	26986	1050720	44353	111049	0	0	8268	439024	0	0
2024-07-12 17:14:47			0	40797	0	0	0	29683	28310	149772	27010	1050711	44342	111043	0	0	8268	439152	0	0
2024-07-12 17:15:47			0	40805	0	0	0	29698	28310	149704	27183	1050702	44353	111049	0	0	8268	438880	0	0
2024-07-12 17:16:47			0	40800	0	0	0	29696	28320	149760	27119	1050773	44353	111048	0	0	8268	439024	0	0
2024-07-12 17:17:47			0	40796	0	0	0	29703	28320	149736	27147	1050800	44353	111051	0	0	8267	439160	0	0
2024-07-12 17:18:47			0	40803	0	0	0	29719	28320	149768	27332	1050827	44375	111057	0	0	8268	438923	0	0
2024-07-12 17:19:47			0	40797	0	0	0	29732	28320	149828	27013	1050827	44364	111062	0	0	8267	439126	0	0
2024-07-12 17:20:47			0	40797	0	0	0	29724	28320	149864	27034	1050881	44364	111059	0	0	8267	439126	0	0
2024-07-12 17:21:47			0	40809	0	0	0	29719	28330	149816	27176	1050872	44355	111057	0	0	8268	438694	0	0
2024-07-12 17:22:47			0	40791	0	0	0	29716	28330	149776	27060	1050854	44377	111056	0	0	8267	439305	0	0
2024-07-12 17:23:47			0	40794	0	0	0	29732	28330	149812	27274	1050818	44355	111062	0	0	8267	439203	0	0
2024-07-12 17:24:47			0	40787	0	0	0	29732	28330	149744	27372	1050899	44377	111062	0	0	8267	439440	0	0
2024-07-12 17:25:47			0	40819	0	0	0	29737	28340	149720	27514	1050863	44355	111064	0	0	8268	438329	0	0
2024-07-12 17:26:47			0	40814	0	0	0	29755	28340	149868	27118	1050890	44377	111071	0	0	8268	438499	0	0
2024-07-12 17:27:47			0	40795	0	0	0	29763	28350	149772	27185	1050988	44379	111074	0	0	8267	439118	0	0
2024-07-12 17:28:47			0	40795	0	0	0	29771	28350	149856	26972	1051042	44379	111077	0	0	8266	439118	0	0
2024-07-12 17:29:47			0	40809	0	0	0	29768	28360	149780	27026	1051140	44379	111076	0	0	8267	438618	0	0
2024-07-12 17:30:47			0	40810	0	0	0	29763	28370	149812	26998	1051050	44370	111074	0	0	8267	438558	0	0
2024-07-12 17:31:47			0	40807	0	0	0	29766	28360	149780	26894	1051095	44358	111075	0	0	8267	438686	0	0
2024-07-12 17:32:47			0	40803	0	0	0	29755	28370	149764	26864	1051185	44370	111071	0	0	8267	438796	0	0
2024-07-12 17:33:47			0	40806	0	0	0	29753	28360	149752	27277	1051042	44358	111070	0	0	8267	438719	0	0
2024-07-12 17:34:47			0	40812	0	0	0	29750	28370	149712	27024	1051113	44371	111069	0	0	8268	438491	0	0
2024-07-12 17:35:47			0	40813	0	0	0	29768	28380	149680	27166	1051122	44348	111076	0	0	8268	438431	0	0
2024-07-12 17:36:47			0	40804	0	0	0	29786	28380	149720	27074	1051230	44371	111083	0	0	8267	438736	0	0
2024-07-12 17:37:47			0	40816	0	0	0	29854	28380	149772	27293	1051203	44371	111109	0	0	8266	438330	0	0
2024-07-12 17:38:47			0	40795	0	0	0	29802	28380	149732	27176	1051284	44382	111089	0	0	8266	439042	0	0
2024-07-12 17:39:47			0	40815	0	0	0	29898	28400	149796	27256	1051481	44395	111126	0	0	8266	438313	0	0
2024-07-12 17:40:47			0	40808	0	0	0	29857	28420	149760	27164	1051516	44385	111110	0	0	8266	438499	0	0
2024-07-12 17:41:47			0	40793	0	0	0	29948	28440	149748	26946	1051659	44400	111145	0	0	8264	438958	0	0
2024-07-12 17:42:47			0	40823	0	0	0	29935	28450	149716	27048	1051704	44400	111140	0	0	8266	437915	0	0
2024-07-12 17:43:47			0	40775	0	0	0	29973	28470	149724	27104	1051820	44402	111155	0	0	8262	439492	0	0
2024-07-12 17:44:47			0	40792	0	0	0	29942	28490	149780	27173	1051766	44415	111143	0	0	8264	438864	0	0
2024-07-12 17:45:47			0	40797	0	0	0	29909	28490	149684	26982	1051847	44403	111130	0	0	8265	438695	0	0
2024-07-12 17:46:47			0	40787	0	0	0	29890	28500	149756	27100	1051810	44382	111123	0	0	8265	439009	0	0
2024-07-12 17:47:47			0	40792	0	0	0	29961	28500	149756	27138	1051873	44383	111150	0	0	8264	438839	0	0
2024-07-12 17:48:47			0	40792	0	0	0	29981	28510	149808	26875	1051936	44395	111158	0	0	8263	438814	0	0
2024-07-12 17:49:47			0	40778	0	0	0	30005	28510	149776	27072	1052017	44406	111167	0	0	8262	439289	0	0
2024-07-12 17:50:47			0	40797	0	0	0	30005	28530	149708	27086	1052079	44408	111167	0	0	8263	438593	0	0
2024-07-12 17:51:47			0	40776	0	0	0	29948	28530	149696	27229	1051980	44397	111145	0	0	8263	439306	0	0
2024-07-12 17:52:47			0	40775	0	0	0	29940	28540	149612	26974	1052052	44386	111142	0	0	8263	439314	0	0
2024-07-12 17:53:47			0	40784	0	0	0	29916	28530	149660	27031	1051980	44375	111133	0	0	8264	439034	0	0
2024-07-12 17:54:47			0	40777	0	0	0	29948	28540	149764	26892	1051935	44364	111145	0	0	8263	439246	0	0
2024-07-12 17:55:47			0	40773	0	0	0	29973	28540	149744	27358	1051962	44375	111155	0	0	8263	439382	0	0
2024-07-12 17:56:47			0	40753	0	0	0	29955	28540	149783	27258	1051935	44385	111148	0	0	8262	440061	0	0
2024-07-12 17:57:47			0	40768	0	0	0	29940	28540	149788	27241	1052052	44386	111142	0	0	8263	439552	0	0
2024-07-12 17:58:47			0	40771	0	0	0	29953	28540	149700	27005	1052079	44398	111147	0	0	8263	439450	0	0
2024-07-12 17:59:47			0	40750	0	0	0	29986	28540	149763	27300	1052106	44375	111160	0	0	8261	440163	0	0
2024-07-12 18:00:47			0	40755	0	0	0	30010	28550	149927	27407	1052142	44399	111169	0	0	8261	439968	0	0
2024-07-12 18:01:47			0	40748	0	0	0	30023	28570	149779	27512	1052186	44412	111174	0	0	8260	440154	0	0
2024-07-12 18:02:47			0	40742	0	0	0	30020	28570	149819	27386	1052231	44401	111173	0	0	8260	440358	0	0
2024-07-12 18:03:47			0	40750	0	0	0	30025	28580	149823	27281	1052195	44402	111175	0	0	8261	440061	0	0
2024-07-12 18:04:47			0	40750	0	0	0	30012	28580	149771	27239	1052284	44379	111170	0	0	8261	440061	0	0
2024-07-12 18:05:47			0	40744	0	0	0	30025	28590	149891	27067	1052293	44391	111175	0	0	8260	440239	0	0
2024-07-12 18:06:47			0	40761	0	0	0	30025	28590	149751	27093	1052275	44392	111175	0	0	8261	439662	0	0
2024-07-12 18:07:47			0	40736	0	0	0	30020	28600	149879	27111	1052230	44392	111173	0	0	8260	440486	0	0
2024-07-12 18:08:47			0	40758	0	0	0	30018	28590	149863	27343	1052275	44403	111172	0	0	8261	439764	0	0
2024-07-12 18:09:47			0	40754	0	0	0	30023	28600	149711	27426	1052257	44381	111174	0	0	8261	439874	0	0
2024-07-12 18:10:47			0	40729	0	0	0	30028	28600	149767	27173	1052374	44403	111176	0	0	8259	440723	0	0
2024-07-12 18:11:47			0	40755	0	0	0	30025	28600	149739	27396	1052293	44403	111175	0	0	8261	439840	0	0
2024-07-12 18:12:47			0	40758	0	0	0	30023	28600	149779	27059	1052320	44392	111174	0	0	8261	439739	0	0
2024-07-12 18:13:47			0	40739	0	0	0	30020	28610	149735	27066	1052356	44393	111173	0	0	8260	440358	0	0
2024-07-12 18:14:47			0	40738	0	0	0	30036	28610	149819	27170	1052338	44394	111179	0	0	8260	440392	0	0
2024-07-12 18:15:47			0	40737	0	0	0	30028	28600	149715	27133	1052374	44392	111176	0	0	8260	440452	0	0
2024-07-12 18:16:47			0	40733	0	0	0	30028	28600	149775	27156	1052374	44392	111176	0	0	8260	440587	0	0
2024-07-12 18:17:47			0	40741	0	0	0	30033	28610	149723	27255	1052365	44394	111178	0	0	8260	440290	0	0
2024-07-12 18:18:47			0	40726	0	0	0	30036	28610	149795	27109	1052311	44394	111179	0	0	8259	440800	0	0
2024-07-12 18:19:47			0	40734	0	0	0	30044	28610	149895	26899	1052410	44416	111182	0	0	8259	440528	0	0
2024-07-12 18:20:47			0	40714	0	0	0	30041	28620	149823	27164	1052427	44416	111181	0	0	8258	441182	0	0
2024-07-12 18:21:47			0	40718	0	0	0	30044	28630	149811	27131	1052445	44395	111182	0	0	8259	441021	0	0
2024-07-12 18:22:47			0	40726	0	0	0	30041	28620	149819	27260	1052454	44394	111181	0	0	8259	440774	0	0
2024-07-12 18:23:47			0	40723	0	0	0	30041	28630	149843	26870	1052418	44406	111181	0	0	8259	440851	0	0
2024-07-12 18:24:47			0	40718	0	0	0	30046	28620	149827	27280	1052490	44383	111183	0	0	8259	441046	0	0
2024-07-12 18:25:47			0	40730	0	0	0	30051	28620	149775	27225	1052535	44405	111185	0	0	8259	440638	0	0
2024-07-12 18:26:47			0	40709	0	0	0	30044	28630	149875	26989	1052508	44396	111182	0	0	8258	441327	0	0
2024-07-12 18:27:47			0	40727	0	0	0	30051	28630	149919	27246	1052472	44406	111185	0	0	8259	440715	0	0
2024-07-12 18:28:47			0	40711	0	0	0	30044	28640	149847	27050	1052597	44396	111182	0	0	8258	441233	0	0
2024-07-12 18:29:47			0	40710	0	0	0	30051	28630	149847	26831	1052535	44407	111185	0	0	8258	441293	0	0
2024-07-12 18:30:47			0	40730	0	0	0	30057	28650	149747	27312	1052615	44419	111187	0	0	8259	440562	0	0
2024-07-12 18:31:47			0	40734	0	0	0	30057	28640	149811	27175	1052517	44396	111187	0	0	8259	440451	0	0
2024-07-12 18:32:47			0	40732	0	0	0	30049	28640	149867	27313	1052552	44408	111184	0	0	8259	440520	0	0
2024-07-12 18:33:47			0	40737	0	0	0	30049	28630	149703	26963	1052535	44407	111184	0	0	8260	440375	0	0
2024-07-12 18:34:47			0	40735	0	0	0	30054	28650	149783	27069	1052588	44419	111186	0	0	8259	440392	0	0
2024-07-12 18:35:47			0	40743	0	0	0	30051	28640	149731	27045	1052525	44419	111185	0	0	8260	440146	0	0
2024-07-12 18:36:47			0	40722	0	0	0	30049	28650	149683	27074	1052561	44397	111184	0	0	8259	440834	0	0
2024-07-12 18:37:47			0	40748	0	0	0	30049	28640	149679	27123	1052606	44408	111184	0	0	8260	439976	0	0
2024-07-12 18:38:47			0	40736	0	0	0	30059	28640	149739	27121	1052543	44429	111188	0	0	8259	440384	0	0
2024-07-12 18:39:47			0	40744	0	0	0	30054	28650	149751	27010	1052597	44398	111186	0	0	8260	440086	0	0
2024-07-12 18:40:47			0	40734	0	0	0	30054	28650	149803	27144	1052561	44408	111186	0	0	8259	440426	0	0
2024-07-12 18:41:47			0	40741	0	0	0	30049	28650	149755	27074	1052561	44408	111184	0	0	8260	440188	0	0
2024-07-12 18:42:47			0	40757	0	0	0	30054	28640	149759	27024	1052552	44408	111186	0	0	8261	439671	0	0
2024-07-12 18:43:47			0	40751	0	0	0	30064	28650	149775	27118	1052615	44408	111190	0	0	8260	439849	0	0
2024-07-12 18:44:47			0	40758	0	0	0	30064	28650	149699	26908	1052651	44409	111190	0	0	8261	439611	0	0
2024-07-12 18:45:47			0	40743	0	0	0	30062	28660	149751	27215	1052660	44398	111189	0	0	8260	440095	0	0
2024-07-12 18:46:47			0	40763	0	0	0	30059	28650	149776	27459	1052624	44409	111188	0	0	8261	439442	0	0
2024-07-12 18:47:47			0	40769	0	0	0	30057	28650	149676	27230	1052651	44409	111187	0	0	8261	439238	0	0
2024-07-12 18:48:47			0	40767	0	0	0	30067	28660	149795	27154	1052615	44421	111191	0	0	8261	439281	0	0
2024-07-12 18:49:47			0	40768	0	0	0	30072	28660	149664	27034	1052633	44409	111193	0	0	8261	439246	0	0
2024-07-12 18:50:47			0	40750	0	0	0	30072	28660	149691	26890	1052633	44409	111193	0	0	8260	439857	0	0
2024-07-12 18:51:47			0	40757	0	0	0	30075	28660	149664	27178	1052606	44420	111194	0	0	8260	439620	0	0
2024-07-12 18:52:47			0	40760	0	0	0	30075	28660	149659	27412	1052606	44420	111194	0	0	8261	439518	0	0
2024-07-12 18:53:47			0	40781	0	0	0	30077	28650	149728	27100	1052678	44409	111195	0	0	8262	438831	0	0
2024-07-12 18:54:47			0	40757	0	0	0	30072	28670	149715	27242	1052597	44410	111193	0	0	8261	439594	0	0
2024-07-12 18:55:47			0	40775	0	0	0	30067	28660	149708	26790	1052606	44409	111191	0	0	8262	439009	0	0
2024-07-12 18:56:47			0	40770	0	0	0	30070	28660	149600	27034	1052696	44410	111192	0	0	8261	439179	0	0
2024-07-12 18:57:47			0	40782	0	0	0	30072	28660	149648	27130	1052669	44410	111193	0	0	8262	438772	0	0
2024-07-12 18:58:47			0	40749	0	0	0	30083	28670	149647	27313	1052678	44421	111197	0	0	8260	439866	0	0
2024-07-12 18:59:47			0	40772	0	0	0	30070	28660	149740	27284	1052750	44410	111192	0	0	8261	439111	0	0
2024-07-12 19:00:47			0	40777	0	0	0	30088	28660	149736	27149	1052714	44409	111199	0	0	8261	438941	0	0
2024-07-12 19:01:47			0	40770	0	0	0	30093	28670	149636	27013	1052651	44421	111201	0	0	8261	439153	0	0
2024-07-12 19:02:47			0	40766	0	0	0	30088	28680	149707	27107	1052722	44423	111199	0	0	8261	439264	0	0
2024-07-12 19:03:47			0	40775	0	0	0	30090	28690	149672	27261	1052758	44423	111200	0	0	8261	438933	0	0
2024-07-12 19:04:47			0	40766	0	0	0	30109	28680	149716	27322	1052767	44422	111207	0	0	8260	439264	0	0
2024-07-12 19:05:47			0	40795	0	0	0	30101	28680	149676	27059	1052776	44401	111204	0	0	8262	438281	0	0
2024-07-12 19:06:47			0	40781	0	0	0	30106	28690	149752	27192	1052821	44435	111206	0	0	8261	438730	0	0
2024-07-12 19:07:47			0	40770	0	0	0	30106	28680	149712	27211	1052803	44412	111206	0	0	8261	439128	0	0
2024-07-12 19:08:47			0	40775	0	0	0	30114	28690	149620	27338	1052812	44423	111209	0	0	8261	438933	0	0
2024-07-12 19:09:47			0	40786	0	0	0	30106	28690	149608	26899	1052794	44423	111206	0	0	8262	438560	0	0
2024-07-12 19:10:47			0	40788	0	0	0	30119	28700	149720	27081	1052911	44423	111211	0	0	8262	438467	0	0
2024-07-12 19:11:47			0	40778	0	0	0	30114	28700	149700	27327	1052911	44423	111209	0	0	8261	438806	0	0
2024-07-12 19:12:47			0	40799	0	0	0	30114	28710	149672	27222	1052847	44403	111209	0	0	8262	438069	0	0
2024-07-12 19:13:47			0	40793	0	0	0	30124	28710	149652	26902	1052937	44415	111213	0	0	8262	438272	0	0
2024-07-12 19:14:47			0	40784	0	0	0	30124	28700	149728	26835	1052830	44413	111213	0	0	8261	438602	0	0
2024-07-12 19:15:47			0	40811	0	0	0	30119	28710	149676	27225	1052955	44403	111211	0	0	8263	437663	0	0
2024-07-12 19:16:47			0	40781	0	0	0	30122	28700	149648	26901	1053000	44424	111212	0	0	8261	438704	0	0
2024-07-12 19:17:47			0	40808	0	0	0	30124	28710	149636	26951	1052874	44414	111213	0	0	8263	437764	0	0
2024-07-12 19:18:47			0	40797	0	0	0	30132	28710	149580	26935	1052928	44414	111216	0	0	8262	438137	0	0
2024-07-12 19:19:47			0	40796	0	0	0	30132	28710	149540	27229	1052937	44415	111216	0	0	8262	438170	0	0
2024-07-12 19:20:47			0	40815	0	0	0	30122	28720	149664	27197	1052973	44425	111212	0	0	8263	437502	0	0
2024-07-12 19:21:47			0	40815	0	0	0	30137	28720	149636	26842	1053009	44426	111218	0	0	8263	437502	0	0
2024-07-12 19:22:47			0	40827	0	0	0	30124	28720	149624	26779	1053090	44426	111213	0	0	8264	437096	0	0
2024-07-12 19:23:47			0	40839	0	0	0	30135	28720	149552	27029	1053000	44437	111217	0	0	8264	436690	0	0
2024-07-12 19:24:47			0	40811	0	0	0	30132	28720	149480	26781	1053027	44425	111216	0	0	8263	437637	0	0
2024-07-12 19:25:47			0	40827	0	0	0	30135	28730	149512	27031	1052991	44426	111217	0	0	8264	437071	0	0
2024-07-12 19:26:47			0	40838	0	0	0	30135	28730	149520	27189	1053000	44427	111217	0	0	8264	436699	0	0
2024-07-12 19:27:47			0	40842	0	0	0	30135	28720	149484	26998	1053009	44416	111217	0	0	8265	436589	0	0
2024-07-12 19:28:47			0	40837	0	0	0	30124	28730	149412	26844	1053045	44426	111213	0	0	8264	436732	0	0
2024-07-12 19:29:47			0	40872	0	0	0	30140	28720	149416	27211	1053009	44426	111219	0	0	8266	435575	0	0
2024-07-12 19:30:47			0	40855	0	0	0	30135	28720	149452	27053	1053009	44426	111217	0	0	8265	436149	0	0
2024-07-12 19:31:47			0	40869	0	0	0	30135	28730	149552	26844	1053072	44416	111217	0	0	8266	435651	0	0
2024-07-12 19:32:47			0	40850	0	0	0	30127	28730	149312	27026	1053018	44426	111214	0	0	8265	436293	0	0
2024-07-12 19:33:47			0	40855	0	0	0	30127	28720	149420	26838	1053036	44426	111214	0	0	8265	436149	0	0
2024-07-12 19:34:47			0	40872	0	0	0	30124	28720	149376	27244	1053117	44416	111213	0	0	8266	435575	0	0
2024-07-12 19:35:47			0	40863	0	0	0	30132	28730	149404	27227	1053000	44416	111216	0	0	8266	435854	0	0
2024-07-12 19:36:47			0	40866	0	0	0	30132	28730	149328	26878	1053098	44426	111216	0	0	8266	435752	0	0
2024-07-12 19:37:47			0	40881	0	0	0	30132	28730	149412	26859	1053018	44438	111216	0	0	8267	435246	0	0
2024-07-12 19:38:47			0	40899	0	0	0	30127	28720	149360	27147	1053036	44426	111214	0	0	8268	434664	0	0
2024-07-12 19:39:47			0	40884	0	0	0	30124	28740	149188	27197	1053008	44416	111213	0	0	8267	435120	0	0
2024-07-12 19:40:47			0	40893	0	0	0	30135	28740	149196	27003	1053089	44416	111217	0	0	8268	434816	0	0
2024-07-12 19:41:47			0	40887	0	0	0	30129	28720	149352	26885	1053000	44425	111215	0	0	8267	435069	0	0
2024-07-12 19:42:47			0	40912	0	0	0	30137	28720	149220	27241	1053063	44416	111218	0	0	8268	434226	0	0
2024-07-12 19:43:47			0	40896	0	0	0	30122	28720	149296	26972	1053009	44426	111212	0	0	8268	434765	0	0
2024-07-12 19:44:47			0	40908	0	0	0	30127	28730	149168	26986	1053080	44405	111214	0	0	8268	434335	0	0
2024-07-12 19:45:47			0	40917	0	0	0	30129	28730	149100	27135	1053053	44416	111215	0	0	8269	434032	0	0
2024-07-12 19:46:47			0	40920	0	0	0	30122	28720	149084	26944	1053027	44437	111212	0	0	8269	433956	0	0
2024-07-12 19:47:47			0	40922	0	0	0	30122	28730	149168	27150	1053053	44439	111212	0	0	8269	433864	0	0
2024-07-12 19:48:47			0	40932	0	0	0	30124	28730	149068	26937	1053026	44439	111213	0	0	8270	433527	0	0
2024-07-12 19:49:47			0	40929	0	0	0	30119	28730	149108	26811	1053018	44426	111211	0	0	8270	433628	0	0
2024-07-12 19:50:47			0	40928	0	0	0	30122	28730	149080	27059	1053045	44426	111212	0	0	8270	433661	0	0
2024-07-12 19:51:47			0	40934	0	0	0	30124	28730	149100	26927	1053018	44416	111213	0	0	8270	433460	0	0
2024-07-12 19:52:47			0	40930	0	0	0	30119	28720	149108	26946	1053036	44416	111211	0	0	8270	433619	0	0
2024-07-12 19:53:47			0	40953	0	0	0	30119	28730	149108	26637	1053018	44416	111211	0	0	8271	432820	0	0
2024-07-12 19:54:47			0	40946	0	0	0	30116	28730	149004	27052	1053026	44439	111210	0	0	8271	433055	0	0
2024-07-12 19:55:47			0	40955	0	0	0	30129	28720	149036	27085	1052946	44425	111215	0	0	8271	432777	0	0
2024-07-12 19:56:47			0	40958	0	0	0	30122	28730	148904	26918	1053045	44426	111212	0	0	8271	432652	0	0
2024-07-12 19:57:47			0	40959	0	0	0	30119	28720	149052	27008	1053036	44404	111211	0	0	8271	432643	0	0
2024-07-12 19:58:47			0	40935	0	0	0	30124	28730	149048	27020	1053018	44426	111213	0	0	8270	433426	0	0
2024-07-12 19:59:47			0	40915	0	0	0	30119	28730	149148	26800	1052991	44438	111211	0	0	8269	434100	0	0
2024-07-12 20:00:47			0	40916	0	0	0	30114	28720	149176	27041	1053009	44426	111209	0	0	8269	434091	0	0
2024-07-12 20:01:47			0	40910	0	0	0	30119	28730	149236	27086	1053018	44416	111211	0	0	8269	434268	0	0
2024-07-12 20:02:47			0	40894	0	0	0	30124	28720	149268	26791	1053009	44426	111213	0	0	8268	434833	0	0
2024-07-12 20:03:47			0	40889	0	0	0	30122	28730	149244	27001	1053018	44416	111212	0	0	8267	434976	0	0
2024-07-12 20:04:47			0	40858	0	0	0	30116	28720	149316	26828	1052982	44426	111210	0	0	8266	436048	0	0
2024-07-12 20:05:47			0	40866	0	0	0	30109	28720	149416	27154	1052973	44425	111207	0	0	8266	435778	0	0
2024-07-12 20:06:47			0	40837	0	0	0	30111	28720	149380	26993	1053000	44415	111208	0	0	8265	436758	0	0
2024-07-12 20:07:47			0	40829	0	0	0	30137	28730	149400	26753	1053072	44426	111218	0	0	8264	437003	0	0
2024-07-12 20:08:47			0	40810	0	0	0	30163	28720	149540	26824	1053063	44438	111228	0	0	8262	437671	0	0
2024-07-12 20:09:47			0	40811	0	0	0	30161	28730	149428	27052	1053107	44427	111227	0	0	8262	437612	0	0
2024-07-12 20:10:47			0	40810	0	0	0	30176	28750	149468	26948	1053215	44440	111233	0	0	8262	437595	0	0
2024-07-12 20:11:47			0	40813	0	0	0	30163	28740	149432	26902	1053179	44440	111228	0	0	8262	437519	0	0
2024-07-12 20:12:47			0	40817	0	0	0	30148	28740	149544	26977	1053089	44427	111222	0	0	8263	437384	0	0
2024-07-12 20:13:47			0	40789	0	0	0	30129	28750	149480	27053	1053134	44440	111215	0	0	8262	438306	0	0
2024-07-12 20:14:47			0	40811	0	0	0	30122	28740	149540	27119	1053116	44439	111212	0	0	8263	437587	0	0
2024-07-12 20:15:47			0	40797	0	0	0	30124	28740	149616	26901	1053089	44416	111213	0	0	8262	438061	0	0
2024-07-12 20:16:47			0	40788	0	0	0	30132	28740	149504	26833	1053098	44428	111216	0	0	8262	438365	0	0
2024-07-12 20:17:47			0	40785	0	0	0	30153	28730	149628	26904	1053080	44427	111224	0	0	8261	438492	0	0
2024-07-12 20:18:47			0	40788	0	0	0	30145	28750	149600	26644	1053188	44451	111221	0	0	8261	438340	0	0
2024-07-12 20:19:47			0	40781	0	0	0	30163	28740	149628	27147	1053170	44427	111228	0	0	8261	438602	0	0
2024-07-12 20:20:47			0	40763	0	0	0	30168	28730	149671	26955	1053134	44461	111230	0	0	8260	439238	0	0
2024-07-12 20:21:47			0	40777	0	0	0	30179	28750	149636	26809	1053188	44417	111234	0	0	8260	438713	0	0
2024-07-12 20:22:47			0	40764	0	0	0	30194	28750	149671	27100	1053269	44451	111240	0	0	8259	439153	0	0
2024-07-12 20:23:47			0	40757	0	0	0	30212	28760	149667	26687	1053349	44453	111247	0	0	8259	439365	0	0
2024-07-12 20:24:47			0	40753	0	0	0	30225	28770	149651	27019	1053394	44442	111252	0	0	8258	439475	0	0
2024-07-12 20:25:47			0	40763	0	0	0	30249	28770	149623	26935	1053466	44453	111261	0	0	8258	439136	0	0
2024-07-12 20:26:47			0	40761	0	0	0	30264	28790	149692	27109	1053528	44444	111267	0	0	8258	439153	0	0
2024-07-12 20:27:47			0	40770	0	0	0	30257	28800	149592	26850	1053573	44434	111264	0	0	8259	438823	0	0
2024-07-12 20:28:47			0	40773	0	0	0	30262	28810	149688	26878	1053600	44446	111266	0	0	8259	438696	0	0
2024-07-12 20:29:47			0	40788	0	0	0	30270	28810	149668	26948	1053564	44446	111269	0	0	8260	438188	0	0
2024-07-12 20:30:47			0	40774	0	0	0	30270	28810	149672	26778	1053600	44446	111269	0	0	8259	438662	0	0
2024-07-12 20:31:47			0	40779	0	0	0	30277	28820	149624	26706	1053644	44459	111272	0	0	8259	438467	0	0
2024-07-12 20:32:47			0	40777	0	0	0	30272	28830	149696	26998	1053680	44459	111270	0	0	8259	438509	0	0
2024-07-12 20:33:47			0	40788	0	0	0	30280	28820	149656	26809	1053725	44448	111273	0	0	8259	438162	0	0
2024-07-12 20:34:47			0	40791	0	0	0	30285	28840	149616	26961	1053725	44449	111275	0	0	8260	438010	0	0
2024-07-12 20:35:47			0	40781	0	0	0	30298	28840	149584	26896	1053752	44449	111280	0	0	8259	438348	0	0
2024-07-12 20:36:47			0	40799	0	0	0	30290	28850	149528	26911	1053823	44461	111277	0	0	8260	437714	0	0
2024-07-12 20:37:47			0	40792	0	0	0	30309	28850	149468	27144	1053832	44450	111284	0	0	8259	437951	0	0
2024-07-12 20:38:47			0	40798	0	0	0	30314	28850	149512	27107	1053859	44450	111286	0	0	8260	437748	0	0
2024-07-12 20:39:47			0	40806	0	0	0	30314	28860	149432	27020	1053904	44441	111286	0	0	8260	437452	0	0
2024-07-12 20:40:47			0	40806	0	0	0	30314	28870	149472	27100	1053841	44442	111286	0	0	8260	437426	0	0
2024-07-12 20:41:47			0	40813	0	0	0	30319	28870	149380	26764	1053940	44452	111288	0	0	8260	437189	0	0
2024-07-12 20:42:47			0	40823	0	0	0	30319	28870	149384	27034	1053949	44442	111288	0	0	8261	436851	0	0
2024-07-12 20:43:47			0	40829	0	0	0	30327	28880	149384	27111	1053958	44453	111291	0	0	8261	436623	0	0
2024-07-12 20:44:47			0	40818	0	0	0	30332	28880	149356	26894	1053967	44443	111293	0	0	8261	436995	0	0
2024-07-12 20:45:47			0	40840	0	0	0	30342	28880	149316	27017	1053994	44454	111297	0	0	8262	436252	0	0
2024-07-12 20:46:47			0	40849	0	0	0	30335	28890	149272	26566	1054029	44465	111294	0	0	8262	435923	0	0
2024-07-12 20:47:47			0	40836	0	0	0	30337	28890	149284	27020	1054065	44477	111295	0	0	8261	436362	0	0
2024-07-12 20:48:47			0	40847	0	0	0	30332	28900	149280	26831	1054021	44443	111293	0	0	8262	435965	0	0
2024-07-12 20:49:47			0	40855	0	0	0	30345	28900	149108	26913	1054074	44455	111298	0	0	8262	435695	0	0
2024-07-12 20:50:47			0	40862	0	0	0	30345	28910	149180	26897	1054092	44467	111298	0	0	8263	435433	0	0
2024-07-12 20:51:47			0	40871	0	0	0	30342	28910	149144	26982	1054065	44467	111297	0	0	8263	435130	0	0
2024-07-12 20:52:47			0	40898	0	0	0	30345	28910	149120	27071	1054092	44445	111298	0	0	8265	434219	0	0
2024-07-12 20:53:47			0	40874	0	0	0	30350	28910	149072	27066	1054074	44445	111300	0	0	8264	435028	0	0
2024-07-12 20:54:47			0	40890	0	0	0	30345	28920	148996	26622	1054056	44445	111298	0	0	8265	434464	0	0
2024-07-12 20:55:47			0	40909	0	0	0	30350	28920	149012	27059	1054137	44445	111300	0	0	8266	433824	0	0
2024-07-12 20:56:47			0	40887	0	0	0	30348	28910	148968	26909	1054101	44445	111299	0	0	8264	434590	0	0
2024-07-12 20:57:47			0	40920	0	0	0	30355	28930	148912	26710	1054155	44469	111302	0	0	8266	433428	0	0
2024-07-12 20:58:47			0	40923	0	0	0	30363	28930	148940	26802	1054181	44447	111305	0	0	8266	433327	0	0
2024-07-12 20:59:47			0	40930	0	0	0	30353	28920	148908	26779	1054254	44446	111301	0	0	8267	433117	0	0
2024-07-12 21:00:47			0	40929	0	0	0	30350	28930	148900	27003	1054136	44458	111300	0	0	8267	433126	0	0
2024-07-12 21:01:47			0	40922	0	0	0	30348	28930	148880	26597	1054163	44447	111299	0	0	8266	433361	0	0
2024-07-12 21:02:47			0	40949	0	0	0	30366	28940	148736	26814	1054280	44458	111306	0	0	8268	432428	0	0
2024-07-12 21:03:47			0	40956	0	0	0	30355	28930	148808	27121	1054244	44447	111302	0	0	8268	432217	0	0
2024-07-12 21:04:47			0	40946	0	0	0	30371	28940	148760	26908	1054199	44447	111308	0	0	8267	432529	0	0
2024-07-12 21:05:47			0	40969	0	0	0	30363	28940	148772	27156	1054262	44470	111305	0	0	8269	431756	0	0
2024-07-12 21:06:47			0	40978	0	0	0	30363	28930	148712	27034	1054217	44469	111305	0	0	8269	431478	0	0
2024-07-12 21:07:47			0	40979	0	0	0	30368	28930	148628	26830	1054271	44458	111307	0	0	8269	431445	0	0
2024-07-12 21:08:47			0	40967	0	0	0	30366	28930	148676	26942	1054298	44447	111306	0	0	8269	431848	0	0
2024-07-12 21:09:47			0	40997	0	0	0	30361	28950	148576	26819	1054271	44449	111304	0	0	8271	430791	0	0
2024-07-12 21:10:47			0	41013	0	0	0	30371	28940	148660	26902	1054262	44448	111308	0	0	8271	430279	0	0
2024-07-12 21:11:47			0	40999	0	0	0	30373	28950	148672	26852	1054226	44461	111309	0	0	8270	430724	0	0
2024-07-12 21:12:47			0	41018	0	0	0	30355	28950	148556	26878	1054325	44449	111302	0	0	8272	430086	0	0
2024-07-12 21:13:47			0	41023	0	0	0	30368	28950	148548	27062	1054352	44449	111307	0	0	8272	429919	0	0
2024-07-12 21:14:47			0	41023	0	0	0	30358	28960	148532	26887	1054289	44461	111303	0	0	8272	429894	0	0
2024-07-12 21:15:47			0	41033	0	0	0	30361	28950	148592	27008	1054298	44449	111304	0	0	8273	429584	0	0
2024-07-12 21:16:47			0	41053	0	0	0	30363	28970	148524	26955	1054324	44450	111305	0	0	8274	428864	0	0
2024-07-12 21:17:47			0	41030	0	0	0	30355	28950	148476	26611	1054334	44461	111302	0	0	8273	429684	0	0
2024-07-12 21:18:47			0	41055	0	0	0	30355	28950	148456	27372	1054280	44450	111302	0	0	8274	428847	0	0
2024-07-12 21:19:47			0	41064	0	0	0	30363	28950	148452	26991	1054307	44450	111305	0	0	8274	428546	0	0
2024-07-12 21:20:47			0	41079	0	0	0	30363	28950	148460	26935	1054388	44461	111305	0	0	8275	428044	0	0
2024-07-12 21:21:47			0	41074	0	0	0	30361	28950	148364	27102	1054244	44449	111304	0	0	8275	428212	0	0
2024-07-12 21:22:47			0	41066	0	0	0	30350	28950	148336	26911	1054334	44461	111300	0	0	8275	428479	0	0
2024-07-12 21:23:47			0	41074	0	0	0	30358	28950	148440	27211	1054190	44449	111303	0	0	8275	428212	0	0
2024-07-12 21:24:47			0	41095	0	0	0	30355	28950	148316	27213	1054361	44439	111302	0	0	8276	427509	0	0
2024-07-12 21:25:47			0	41101	0	0	0	30363	28960	148344	26821	1054369	44450	111305	0	0	8276	427284	0	0
2024-07-12 21:26:47			0	41078	0	0	0	30355	28950	148276	26994	1054298	44460	111302	0	0	8275	428078	0	0
2024-07-12 21:27:47			0	41109	0	0	0	30345	28950	148248	26922	1054226	44450	111298	0	0	8277	427042	0	0
2024-07-12 21:28:47			0	41116	0	0	0	30350	28960	148272	26967	1054316	44450	111300	0	0	8278	426783	0	0
2024-07-12 21:29:47			0	41119	0	0	0	30353	28940	148192	26953	1054199	44458	111301	0	0	8278	426733	0	0
2024-07-12 21:30:47			0	41123	0	0	0	30348	28950	148176	26960	1054217	44471	111299	0	0	8278	426574	0	0
2024-07-12 21:31:47			0	41119	0	0	0	30353	28950	148152	26892	1054244	44449	111301	0	0	8278	426708	0	0
2024-07-12 21:32:47			0	41121	0	0	0	30353	28950	148136	27255	1054298	44449	111301	0	0	8278	426641	0	0
2024-07-12 21:33:47			0	41133	0	0	0	30358	28950	148212	26842	1054280	44472	111303	0	0	8278	426241	0	0
2024-07-12 21:34:47			0	41132	0	0	0	30355	28950	148144	26837	1054217	44471	111302	0	0	8278	426274	0	0
2024-07-12 21:35:47			0	41138	0	0	0	30363	28940	148184	27355	1054208	44470	111305	0	0	8279	426098	0	0
2024-07-12 21:36:47			0	41136	0	0	0	30361	28940	148064	26927	1054289	44448	111304	0	0	8278	426165	0	0
2024-07-12 21:37:47			0	41147	0	0	0	30358	28940	148052	27098	1054208	44459	111303	0	0	8279	425798	0	0
2024-07-12 21:38:47			0	41138	0	0	0	30361	28960	148108	26987	1054343	44461	111304	0	0	8279	426049	0	0
2024-07-12 21:39:47			0	41154	0	0	0	30363	28950	148168	26958	1054271	44449	111305	0	0	8279	425540	0	0
2024-07-12 21:40:47			0	41150	0	0	0	30363	28950	148060	27005	1054280	44461	111305	0	0	8279	425673	0	0
2024-07-12 21:41:47			0	41158	0	0	0	30358	28950	148080	26837	1054307	44461	111303	0	0	8280	425407	0	0
2024-07-12 21:42:47			0	41132	0	0	0	30361	28960	148080	27107	1054235	44472	111304	0	0	8278	426249	0	0
2024-07-12 21:43:47			0	41161	0	0	0	30361	28950	148068	27057	1054325	44471	111304	0	0	8280	425307	0	0
2024-07-12 21:44:47			0	41145	0	0	0	30366	28950	148084	27031	1054334	44461	111306	0	0	8279	425840	0	0
2024-07-12 21:45:47			0	41152	0	0	0	30371	28950	148132	26733	1054244	44460	111308	0	0	8279	425607	0	0
2024-07-12 21:46:47			0	41168	0	0	0	30366	28950	148176	27090	1054298	44460	111306	0	0	8280	425074	0	0
2024-07-12 21:47:47			0	41156	0	0	0	30363	28950	148096	26930	1054307	44472	111305	0	0	8280	425474	0	0
2024-07-12 21:48:47			0	41176	0	0	0	30373	28950	148044	27007	1054352	44449	111309	0	0	8281	424807	0	0
2024-07-12 21:49:47			0	41174	0	0	0	30376	28960	148056	27079	1054343	44450	111310	0	0	8280	424849	0	0
2024-07-12 21:50:47			0	41160	0	0	0	30366	28970	148164	26530	1054351	44472	111306	0	0	8280	425291	0	0
2024-07-12 21:51:47			0	41172	0	0	0	30376	28970	148032	26859	1054351	44472	111310	0	0	8280	424891	0	0
2024-07-12 21:52:47			0	41158	0	0	0	30376	28950	148200	27109	1054388	44450	111310	0	0	8279	425407	0	0
2024-07-12 21:53:47			0	41180	0	0	0	30366	28970	148036	26880	1054378	44472	111306	0	0	8281	424625	0	0
2024-07-12 21:54:47			0	41168	0	0	0	30376	28970	148092	27097	1054378	44461	111310	0	0	8280	425024	0	0
2024-07-12 21:55:47			0	41171	0	0	0	30381	28960	148132	27095	1054396	44450	111312	0	0	8280	424949	0	0
2024-07-12 21:56:47			0	41190	0	0	0	30363	28960	148084	26958	1054369	44461	111305	0	0	8282	424316	0	0
2024-07-12 21:57:47			0	41193	0	0	0	30368	28960	148056	26948	1054343	44439	111307	0	0	8282	424216	0	0
2024-07-12 21:58:47			0	41210	0	0	0	30358	28960	147988	27275	1054343	44472	111303	0	0	8283	423651	0	0
2024-07-12 21:59:47			0	41208	0	0	0	30361	28960	148000	26993	1054316	44461	111304	0	0	8283	423717	0	0
2024-07-12 22:00:47			0	41215	0	0	0	30353	28970	147984	27109	1054324	44450	111301	0	0	8283	423460	0	0
2024-07-12 22:01:47			0	41226	0	0	0	30358	28960	147868	27270	1054289	44461	111303	0	0	8284	423119	0	0
2024-07-12 22:02:47			0	41215	0	0	0	30353	28950	148072	27033	1054217	44460	111301	0	0	8283	423509	0	0
2024-07-12 22:03:47			0	41226	0	0	0	30350	28960	147824	27019	1054343	44472	111300	0	0	8284	423119	0	0
2024-07-12 22:04:47			0	41227	0	0	0	30348	28950	147852	26687	1054271	44460	111299	0	0	8284	423110	0	0
2024-07-12 22:05:47			0	41226	0	0	0	30353	28950	147920	26984	1054325	44471	111301	0	0	8284	423143	0	0
2024-07-12 22:06:47			0	41247	0	0	0	30348	28950	147860	26968	1054307	44472	111299	0	0	8285	422445	0	0
2024-07-12 22:07:47			0	41244	0	0	0	30355	28950	147760	27055	1054334	44461	111302	0	0	8285	422545	0	0
2024-07-12 22:08:47			0	41254	0	0	0	30350	28950	147788	27059	1054334	44472	111300	0	0	8285	422213	0	0
2024-07-12 22:09:47			0	41262	0	0	0	30361	28950	147820	27223	1054325	44460	111304	0	0	8286	421947	0	0
2024-07-12 22:10:47			0	41271	0	0	0	30361	28950	147776	27118	1054361	44450	111304	0	0	8286	421649	0	0
2024-07-12 22:11:47			0	41282	0	0	0	30361	28930	147744	26819	1054298	44469	111304	0	0	8287	421333	0	0
2024-07-12 22:12:47			0	41273	0	0	0	30340	28950	147688	27119	1054280	44461	111296	0	0	8287	421582	0	0
2024-07-12 22:13:47			0	41308	0	0	0	30345	28950	147688	26844	1054163	44460	111298	0	0	8289	420422	0	0
2024-07-12 22:14:47			0	41289	0	0	0	30342	28930	147668	26722	1054155	44458	111297	0	0	8287	421100	0	0
2024-07-12 22:15:47			0	41309	0	0	0	30337	28940	147620	26739	1054226	44458	111295	0	0	8289	420413	0	0
2024-07-12 22:16:47			0	41314	0	0	0	30332	28950	147604	27017	1054217	44471	111293	0	0	8289	420223	0	0
2024-07-12 22:17:47			0	41318	0	0	0	30329	28930	147644	26663	1054244	44458	111292	0	0	8289	420139	0	0
2024-07-12 22:18:47			0	41316	0	0	0	30337	28930	147636	27050	1054271	44469	111295	0	0	8289	420205	0	0
2024-07-12 22:19:47			0	41340	0	0	0	30335	28930	147572	27145	1054190	44458	111294	0	0	8291	419411	0	0
2024-07-12 22:20:47			0	41350	0	0	0	30335	28930	147544	26996	1054181	44469	111294	0	0	8291	419080	0	0
2024-07-12 22:21:47			0	41341	0	0	0	30329	28930	147528	27079	1054181	44447	111292	0	0	8291	419378	0	0
2024-07-12 22:22:47			0	41353	0	0	0	30332	28930	147688	26641	1054155	44469	111293	0	0	8291	418981	0	0
2024-07-12 22:23:47			0	41361	0	0	0	30335	28920	147552	26759	1054227	44458	111294	0	0	8292	418740	0	0
2024-07-12 22:24:47			0	41359	0	0	0	30332	28930	147548	26788	1054181	44458	111293	0	0	8292	418782	0	0
2024-07-12 22:25:47			0	41368	0	0	0	30332	28930	147488	26920	1054190	44469	111293	0	0	8292	418485	0	0
2024-07-12 22:26:47			0	41368	0	0	0	30337	28930	147432	26762	1054244	44447	111295	0	0	8292	418485	0	0
2024-07-12 22:27:47			0	41376	0	0	0	30335	28920	147404	26923	1054173	44446	111294	0	0	8293	418244	0	0
2024-07-12 22:28:47			0	41383	0	0	0	30327	28930	147432	27185	1054181	44458	111291	0	0	8293	417989	0	0
2024-07-12 22:29:47			0	41393	0	0	0	30329	28940	147468	26948	1054199	44458	111292	0	0	8294	417634	0	0
2024-07-12 22:30:47			0	41404	0	0	0	30327	28930	147324	26722	1054235	44458	111291	0	0	8294	417295	0	0
2024-07-12 22:31:47			0	41407	0	0	0	30329	28920	147324	27071	1054137	44467	111292	0	0	8294	417220	0	0
2024-07-12 22:32:47			0	41414	0	0	0	30329	28920	147328	26996	1054254	44458	111292	0	0	8295	416989	0	0
2024-07-12 22:33:47			0	41427	0	0	0	30324	28940	147324	27007	1054145	44469	111290	0	0	8296	416512	0	0
2024-07-12 22:34:47			0	41429	0	0	0	30322	28920	147297	26934	1054146	44480	111289	0	0	8296	416495	0	0
2024-07-12 22:35:47			0	41428	0	0	0	30335	28930	147285	27076	1054217	44481	111294	0	0	8296	416503	0	0
2024-07-12 22:36:47			0	41435	0	0	0	30337	28930	147309	26949	1054155	44469	111295	0	0	8296	416272	0	0
2024-07-12 22:37:47			0	41467	0	0	0	30329	28930	147125	27090	1054208	44492	111292	0	0	8298	415218	0	0
2024-07-12 22:38:47			0	41472	0	0	0	30329	28920	147185	27234	1054200	44468	111292	0	0	8298	415078	0	0
2024-07-12 22:39:47			0	41467	0	0	0	30345	28920	147177	27336	1054173	44468	111298	0	0	8298	415242	0	0
2024-07-12 22:40:47			0	41474	0	0	0	30348	28930	147149	27041	1054101	44458	111299	0	0	8298	414988	0	0
2024-07-12 22:41:47			0	41471	0	0	0	30342	28930	147129	26967	1054208	44469	111297	0	0	8298	415086	0	0
2024-07-12 22:42:47			0	41491	0	0	0	30335	28930	147113	27173	1054181	44469	111294	0	0	8299	414428	0	0
2024-07-12 22:43:47			0	41500	0	0	0	30340	28920	147085	27119	1054146	44468	111296	0	0	8300	414156	0	0
2024-07-12 22:44:47			0	41500	0	0	0	30340	28920	147173	26920	1054200	44480	111296	0	0	8300	414156	0	0
2024-07-12 22:45:47			0	41510	0	0	0	30340	28930	147013	26861	1054271	44458	111296	0	0	8300	413803	0	0
2024-07-12 22:46:47			0	41523	0	0	0	30340	28930	147041	27152	1054217	44469	111296	0	0	8301	413376	0	0
2024-07-12 22:47:47			0	41544	0	0	0	30335	28930	146989	27059	1054181	44458	111294	0	0	8302	412686	0	0
2024-07-12 22:48:47			0	41541	0	0	0	30345	28920	146957	27024	1054218	44467	111298	0	0	8302	412809	0	0
2024-07-12 22:49:47			0	41543	0	0	0	30327	28920	147001	27301	1054137	44457	111291	0	0	8302	412743	0	0
2024-07-12 22:50:47			0	41551	0	0	0	30322	28920	146941	26672	1054110	44445	111289	0	0	8303	412481	0	0
2024-07-12 22:51:47			0	41560	0	0	0	30319	28910	146989	27071	1054074	44445	111288	0	0	8303	412209	0	0
2024-07-12 22:52:47			0	41537	0	0	0	30329	28920	146885	26904	1054245	44467	111292	0	0	8302	412940	0	0
2024-07-12 22:53:47			0	41572	0	0	0	30335	28920	146873	26797	1054164	44479	111294	0	0	8304	411791	0	0
2024-07-12 22:54:47			0	41599	0	0	0	30342	28920	146737	27192	1054272	44479	111297	0	0	8305	410906	0	0
2024-07-12 22:55:47			0	41591	0	0	0	30340	28920	146749	27111	1054245	44479	111296	0	0	8305	411169	0	0
2024-07-12 22:56:47			0	41595	0	0	0	30353	28930	146717	27258	1054289	44481	111301	0	0	8305	411014	0	0
2024-07-12 22:57:47			0	41589	0	0	0	30345	28920	146825	27131	1054254	44468	111298	0	0	8305	411234	0	0
2024-07-12 22:58:47			0	41611	0	0	0	30345	28940	146713	27222	1054307	44481	111298	0	0	8306	410466	0	0
2024-07-12 22:59:47			0	41605	0	0	0	30358	28930	146681	27166	1054343	44481	111303	0	0	8305	410686	0	0
2024-07-12 23:00:47			0	41620	0	0	0	30353	28940	146617	26899	1054289	44470	111301	0	0	8306	410171	0	0
2024-07-12 23:01:47			0	41623	0	0	0	30358	28930	146753	27007	1054244	44458	111303	0	0	8306	410097	0	0
2024-07-12 23:02:47			0	41634	0	0	0	30350	28940	146621	26904	1054226	44469	111300	0	0	8307	409713	0	0
2024-07-12 23:03:47			0	41639	0	0	0	30350	28930	146653	26885	1054298	44469	111300	0	0	8307	409573	0	0
2024-07-12 23:04:47			0	41641	0	0	0	30350	28940	146493	26635	1054343	44470	111300	0	0	8308	409484	0	0
2024-07-12 23:05:47			0	41642	0	0	0	30345	28950	146581	26684	1054325	44471	111298	0	0	8308	409428	0	0
2024-07-12 23:06:47			0	41663	0	0	0	30348	28940	146473	27116	1054361	44469	111299	0	0	8309	408765	0	0
2024-07-12 23:07:47			0	41676	0	0	0	30345	28940	146521	27060	1054280	44458	111298	0	0	8310	408340	0	0
2024-07-12 23:08:47			0	41682	0	0	0	30353	28930	146501	26776	1054262	44458	111301	0	0	8310	408168	0	0
2024-07-12 23:09:47			0	41690	0	0	0	30337	28930	146485	27166	1054289	44469	111295	0	0	8311	407907	0	0
2024-07-12 23:10:47			0	41686	0	0	0	30340	28930	146493	26812	1054289	44469	111296	0	0	8310	408037	0	0
2024-07-12 23:11:47			0	41688	0	0	0	30337	28930	146385	27031	1054298	44481	111295	0	0	8310	407972	0	0
2024-07-12 23:12:47			0	41704	0	0	0	30340	28930	146349	26923	1054262	44469	111296	0	0	8311	407450	0	0
2024-07-12 23:13:47			0	41712	0	0	0	30335	28930	146437	26833	1054217	44469	111294	0	0	8312	407189	0	0
2024-07-12 23:14:47			0	41708	0	0	0	30337	28930	146393	26948	1054190	44447	111295	0	0	8312	407319	0	0
2024-07-12 23:15:47			0	41715	0	0	0	30337	28930	146317	26970	1054181	44469	111295	0	0	8312	407091	0	0
2024-07-12 23:16:47			0	41739	0	0	0	30329	28930	146389	26804	1054262	44447	111292	0	0	8314	406309	0	0
2024-07-12 23:17:47			0	41729	0	0	0	30332	28920	146237	26941	1054137	44467	111293	0	0	8313	406658	0	0
2024-07-12 23:18:47			0	41742	0	0	0	30332	28930	146321	26948	1054181	44458	111293	0	0	8314	406211	0	0
2024-07-12 23:19:47			0	41736	0	0	0	30329	28930	146217	26847	1054289	44447	111292	0	0	8313	406407	0	0
2024-07-12 23:20:47			0	41744	0	0	0	30340	28920	146197	26911	1054191	44467	111296	0	0	8314	406170	0	0
2024-07-12 23:21:47			0	41766	0	0	0	30335	28920	146349	26984	1054245	44467	111294	0	0	8315	405453	0	0
2024-07-12 23:22:47			0	41762	0	0	0	30329	28920	146197	26993	1054146	44480	111292	0	0	8315	405583	0	0
2024-07-12 23:23:47			0	41781	0	0	0	30329	28930	146101	26733	1054190	44469	111292	0	0	8316	404942	0	0
2024-07-12 23:24:47			0	41779	0	0	0	30324	28920	146165	26937	1054245	44467	111290	0	0	8316	405030	0	0
2024-07-12 23:25:47			0	41786	0	0	0	30327	28920	146101	26601	1054173	44468	111291	0	0	8316	404802	0	0
2024-07-12 23:26:47			0	41796	0	0	0	30332	28920	146081	27137	1054173	44480	111293	0	0	8317	404477	0	0
2024-07-12 23:27:47			0	41815	0	0	0	30329	28920	146041	27046	1054137	44467	111292	0	0	8318	403860	0	0
2024-07-12 23:28:47			0	41811	0	0	0	30329	28920	146033	26970	1054164	44479	111292	0	0	8318	403990	0	0
2024-07-12 23:29:47			0	41821	0	0	0	30327	28920	145985	26771	1054137	44490	111291	0	0	8318	403665	0	0
2024-07-12 23:30:47			0	41821	0	0	0	30327	28910	145925	26807	1054155	44479	111291	0	0	8318	403688	0	0
2024-07-12 23:31:47			0	41828	0	0	0	30332	28920	145969	27074	1054137	44467	111293	0	0	8319	403438	0	0
2024-07-12 23:32:47			0	41837	0	0	0	30319	28910	145965	27150	1054209	44490	111288	0	0	8319	403169	0	0
2024-07-12 23:33:47			0	41838	0	0	0	30324	28910	145957	27033	1054236	44467	111290	0	0	8319	403136	0	0
2024-07-12 23:34:47			0	41838	0	0	0	30322	28910	145845	27033	1054128	44467	111289	0	0	8319	403136	0	0
2024-07-12 23:35:47			0	41874	0	0	0	30322	28920	145937	27098	1054164	44467	111289	0	0	8321	401945	0	0
2024-07-12 23:36:47			0	41872	0	0	0	30322	28920	145937	27012	1054191	44457	111289	0	0	8321	402010	0	0
2024-07-12 23:37:47			0	41865	0	0	0	30319	28910	145917	27069	1054155	44467	111288	0	0	8321	402260	0	0
2024-07-12 23:38:47			0	41897	0	0	0	30316	28910	145873	26904	1054119	44467	111287	0	0	8323	401224	0	0
2024-07-12 23:39:47			0	41886	0	0	0	30311	28910	145845	27059	1054146	44467	111285	0	0	8322	401580	0	0
2024-07-12 23:40:47			0	41894	0	0	0	30309	28910	145817	27182	1054101	44457	111284	0	0	8323	401321	0	0
2024-07-12 23:41:47			0	41886	0	0	0	30306	28910	145801	26859	1054101	44467	111283	0	0	8322	401580	0	0
2024-07-12 23:42:47			0	41900	0	0	0	30314	28910	145777	26883	1054119	44467	111286	0	0	8323	401126	0	0
2024-07-12 23:43:47			0	41916	0	0	0	30303	28910	145761	27109	1054038	44479	111282	0	0	8324	400609	0	0
2024-07-12 23:44:47			0	41912	0	0	0	30301	28900	145705	26918	1054074	44465	111281	0	0	8324	400761	0	0
2024-07-12 23:45:47			0	41924	0	0	0	30296	28900	145677	26930	1054137	44478	111279	0	0	8325	400373	0	0
2024-07-12 23:46:47			0	41937	0	0	0	30303	28900	145677	26923	1054047	44455	111282	0	0	8325	399952	0	0
2024-07-12 23:47:47			0	41960	0	0	0	30301	28890	145633	26696	1053957	44465	111281	0	0	8327	399232	0	0
2024-07-12 23:48:47			0	41953	0	0	0	30296	28890	145581	27043	1054038	44465	111279	0	0	8326	399458	0	0
2024-07-12 23:49:47			0	41947	0	0	0	30293	28890	145577	26691	1053975	44465	111278	0	0	8326	399652	0	0
2024-07-12 23:50:47			0	41964	0	0	0	30285	28880	145645	27154	1053931	44475	111275	0	0	8327	399126	0	0
2024-07-12 23:51:47			0	41977	0	0	0	30277	28890	145613	26653	1053949	44465	111272	0	0	8328	398683	0	0
2024-07-12 23:52:47			0	41993	0	0	0	30272	28880	145409	27074	1053877	44463	111270	0	0	8329	398190	0	0
2024-07-12 23:53:47			0	41992	0	0	0	30270	28880	145557	27026	1053904	44463	111269	0	0	8329	398222	0	0
2024-07-12 23:54:47			0	41993	0	0	0	30262	28870	145545	26883	1053895	44463	111266	0	0	8329	398213	0	0
2024-07-12 23:55:47			0	42014	0	0	0	30262	28860	145529	26797	1053850	44474	111266	0	0	8330	397559	0	0
2024-07-12 23:56:47			0	42033	0	0	0	30259	28870	145509	27131	1053886	44474	111265	0	0	8332	396923	0	0
2024-07-12 23:57:47			0	42027	0	0	0	30259	28860	145517	27050	1053904	44462	111265	0	0	8331	397139	0	0
2024-07-12 23:58:47			0	42028	0	0	0	30251	28860	145561	27017	1053850	44452	111262	0	0	8331	397107	0	0
2024-07-12 23:59:47			0	42047	0	0	0	30259	28860	145445	27164	1053841	44462	111265	0	0	8332	396495	0	0
2024-07-13 00:00:47			0	42043	0	0	0	30257	28860	145441	26944	1053868	44473	111264	0	0	8332	396624	0	0
2024-07-13 00:01:47			0	42042	0	0	0	30254	28850	145405	26615	1053832	44472	111263	0	0	8332	396679	0	0
2024-07-13 00:02:47			0	42064	0	0	0	30249	28860	145377	26844	1053814	44462	111261	0	0	8333	395948	0	0
2024-07-13 00:03:47			0	42052	0	0	0	30249	28850	145397	27069	1053770	44472	111261	0	0	8333	396357	0	0
2024-07-13 00:04:47			0	42059	0	0	0	30241	28850	145365	26979	1053805	44472	111258	0	0	8333	396132	0	0
2024-07-13 00:05:47			0	42058	0	0	0	30251	28850	145313	27029	1053886	44483	111262	0	0	8333	396164	0	0
2024-07-13 00:06:47			0	42077	0	0	0	30246	28840	145357	26845	1053868	44439	111260	0	0	8334	395575	0	0
2024-07-13 00:07:47			0	42077	0	0	0	30236	28850	145361	26923	1053859	44472	111256	0	0	8334	395552	0	0
2024-07-13 00:08:47			0	42082	0	0	0	30241	28840	145310	26909	1053806	44460	111258	0	0	8335	395414	0	0
2024-07-13 00:09:47			0	42064	0	0	0	30238	28840	145341	27055	1053815	44461	111257	0	0	8334	395994	0	0
2024-07-13 00:10:47			0	42061	0	0	0	30246	28840	145421	26956	1053752	44471	111260	0	0	8333	396090	0	0
2024-07-13 00:11:47			0	42078	0	0	0	30236	28840	145354	27156	1053761	44472	111256	0	0	8334	395543	0	0
2024-07-13 00:12:47			0	42070	0	0	0	30231	28840	145385	26786	1053761	44461	111254	0	0	8334	395801	0	0
2024-07-13 00:13:47			0	42072	0	0	0	30246	28840	145349	27059	1053761	44461	111260	0	0	8334	395736	0	0
2024-07-13 00:14:47			0	42096	0	0	0	30233	28840	145298	26970	1053806	44471	111255	0	0	8335	394964	0	0
2024-07-13 00:15:47			0	42091	0	0	0	30231	28840	145202	26767	1053806	44460	111254	0	0	8335	395125	0	0
2024-07-13 00:16:47			0	42082	0	0	0	30231	28830	145382	26935	1053743	44481	111254	0	0	8335	395437	0	0
2024-07-13 00:17:47			0	42090	0	0	0	30233	28840	145478	26715	1053806	44471	111255	0	0	8335	395157	0	0
2024-07-13 00:18:47			0	42105	0	0	0	30218	28840	145386	26871	1053779	44449	111249	0	0	8336	394675	0	0
2024-07-13 00:19:47			0	42091	0	0	0	30220	28830	145418	26960	1053734	44459	111250	0	0	8335	395148	0	0
2024-07-13 00:20:47			0	42082	0	0	0	30233	28830	145262	26705	1053716	44481	111255	0	0	8335	395437	0	0
2024-07-13 00:21:47			0	42079	0	0	0	30225	28840	145366	27069	1053725	44471	111252	0	0	8335	395511	0	0
2024-07-13 00:22:47			0	42088	0	0	0	30220	28840	145326	26844	1053752	44460	111250	0	0	8335	395222	0	0
2024-07-13 00:23:47			0	42084	0	0	0	30233	28840	145398	26823	1053779	44460	111255	0	0	8335	395350	0	0
2024-07-13 00:24:47			0	42069	0	0	0	30225	28840	145385	26823	1053671	44471	111252	0	0	8334	395833	0	0
2024-07-13 00:25:47			0	42073	0	0	0	30233	28830	145377	26850	1053788	44470	111255	0	0	8334	395727	0	0
2024-07-13 00:26:47			0	42078	0	0	0	30233	28830	145417	26811	1053680	44470	111255	0	0	8334	395566	0	0
2024-07-13 00:27:47			0	42086	0	0	0	30225	28830	145250	26497	1053716	44459	111252	0	0	8335	395309	0	0
2024-07-13 00:28:47			0	42086	0	0	0	30228	28830	145386	26821	1053626	44470	111253	0	0	8335	395309	0	0
2024-07-13 00:29:47			0	42100	0	0	0	30231	28830	145362	26739	1053716	44470	111254	0	0	8336	394859	0	0
2024-07-13 00:30:47			0	42086	0	0	0	30223	28820	145442	27046	1053671	44470	111251	0	0	8335	395332	0	0
2024-07-13 00:31:47			0	42097	0	0	0	30218	28830	145410	26923	1053680	44459	111249	0	0	8336	394955	0	0
2024-07-13 00:32:47			0	42086	0	0	0	30220	28830	145354	26927	1053743	44470	111250	0	0	8335	395309	0	0
2024-07-13 00:33:47			0	42102	0	0	0	30225	28830	145310	27013	1053626	44459	111252	0	0	8336	394794	0	0
2024-07-13 00:34:47			0	42101	0	0	0	30210	28820	145382	26989	1053716	44469	111246	0	0	8336	394849	0	0
2024-07-13 00:35:47			0	42104	0	0	0	30212	28830	145234	27001	1053734	44470	111247	0	0	8336	394730	0	0
2024-07-13 00:36:47			0	42108	0	0	0	30218	28820	145326	27088	1053698	44470	111249	0	0	8336	394624	0	0
2024-07-13 00:37:47			0	42105	0	0	0	30220	28830	145342	26998	1053653	44481	111250	0	0	8336	394698	0	0
2024-07-13 00:38:47			0	42134	0	0	0	30218	28820	145290	27034	1053725	44470	111249	0	0	8338	393789	0	0
2024-07-13 00:39:47			0	42136	0	0	0	30225	28820	145306	27079	1053662	44458	111252	0	0	8338	393725	0	0
2024-07-13 00:40:47			0	42135	0	0	0	30228	28820	145286	27083	1053689	44447	111253	0	0	8338	393757	0	0
2024-07-13 00:41:47			0	42114	0	0	0	30220	28820	145234	27161	1053725	44470	111250	0	0	8337	394432	0	0
2024-07-13 00:42:47			0	42129	0	0	0	30215	28820	145166	27013	1053671	44470	111248	0	0	8338	393950	0	0
2024-07-13 00:43:47			0	42138	0	0	0	30218	28820	145190	27126	1053716	44481	111249	0	0	8338	393661	0	0
2024-07-13 00:44:47			0	42122	0	0	0	30220	28820	145222	26970	1053662	44458	111250	0	0	8337	394175	0	0
2024-07-13 00:45:47			0	42133	0	0	0	30215	28820	145294	26967	1053662	44469	111248	0	0	8338	393821	0	0
2024-07-13 00:46:47			0	42144	0	0	0	30212	28810	145214	26793	1053627	44458	111247	0	0	8339	393491	0	0
2024-07-13 00:47:47			0	42148	0	0	0	30218	28820	145218	26738	1053716	44469	111249	0	0	8339	393340	0	0
2024-07-13 00:48:47			0	42145	0	0	0	30215	28820	145206	26993	1053671	44459	111248	0	0	8339	393436	0	0
2024-07-13 00:49:47			0	42130	0	0	0	30202	28810	145102	26906	1053591	44480	111243	0	0	8338	393941	0	0
2024-07-13 00:50:47			0	42155	0	0	0	30215	28810	145154	26812	1053591	44468	111248	0	0	8339	393138	0	0
2024-07-13 00:51:47			0	42163	0	0	0	30205	28810	145078	27097	1053645	44480	111244	0	0	8340	392882	0	0
2024-07-13 00:52:47			0	42146	0	0	0	30207	28810	145150	26942	1053645	44468	111245	0	0	8339	393427	0	0
2024-07-13 00:53:47			0	42186	0	0	0	30205	28800	145174	27107	1053636	44457	111244	0	0	8341	392167	0	0
2024-07-13 00:54:47			0	42161	0	0	0	30197	28810	145162	26779	1053645	44468	111241	0	0	8340	392946	0	0
2024-07-13 00:55:47			0	42176	0	0	0	30202	28800	145094	26908	1053636	44457	111243	0	0	8341	392487	0	0
2024-07-13 00:56:47			0	42177	0	0	0	30199	28810	145146	26800	1053618	44458	111242	0	0	8341	392433	0	0
2024-07-13 00:57:47			0	42183	0	0	0	30197	28810	145066	27095	1053564	44458	111241	0	0	8341	392240	0	0
2024-07-13 00:58:47			0	42183	0	0	0	30194	28800	145102	27020	1053636	44457	111240	0	0	8341	392263	0	0
2024-07-13 00:59:47			0	42187	0	0	0	30197	28810	145050	26896	1053618	44468	111241	0	0	8341	392112	0	0
2024-07-13 01:00:47			0	42187	0	0	0	30202	28810	145098	26981	1053591	44446	111243	0	0	8341	392112	0	0
2024-07-13 01:01:47			0	42194	0	0	0	30194	28800	145106	26837	1053555	44457	111240	0	0	8342	391911	0	0
2024-07-13 01:02:47			0	42184	0	0	0	30194	28800	145022	26658	1053654	44467	111240	0	0	8341	392231	0	0
2024-07-13 01:03:47			0	42197	0	0	0	30197	28800	145042	26752	1053573	44479	111241	0	0	8342	391815	0	0
2024-07-13 01:04:47			0	42211	0	0	0	30192	28800	145014	26935	1053600	44479	111239	0	0	8343	391366	0	0
2024-07-13 01:05:47			0	42203	0	0	0	30189	28790	145010	26885	1053564	44478	111238	0	0	8342	391645	0	0
2024-07-13 01:06:47			0	42216	0	0	0	30194	28790	144966	27090	1053537	44466	111240	0	0	8343	391229	0	0
2024-07-13 01:07:47			0	42220	0	0	0	30192	28800	144974	26915	1053600	44467	111239	0	0	8343	391078	0	0
2024-07-13 01:08:47			0	42228	0	0	0	30194	28800	144974	26864	1053573	44467	111240	0	0	8344	390822	0	0
2024-07-13 01:09:47			0	42196	0	0	0	30184	28800	145030	27067	1053546	44479	111236	0	0	8342	391847	0	0
2024-07-13 01:10:47			0	42227	0	0	0	30192	28800	145018	26708	1053519	44467	111239	0	0	8344	390854	0	0
2024-07-13 01:11:47			0	42216	0	0	0	30192	28780	144946	26772	1053547	44465	111239	0	0	8343	391252	0	0
2024-07-13 01:12:47			0	42230	0	0	0	30192	28800	144966	26646	1053573	44467	111239	0	0	8344	390758	0	0
2024-07-13 01:13:47			0	42220	0	0	0	30194	28800	145002	26956	1053573	44467	111240	0	0	8343	391078	0	0
2024-07-13 01:14:47			0	42220	0	0	0	30197	28800	144982	26948	1053519	44479	111241	0	0	8343	391078	0	0
2024-07-13 01:15:47			0	42232	0	0	0	30189	28790	144930	26932	1053537	44478	111238	0	0	8344	390717	0	0
2024-07-13 01:16:47			0	42228	0	0	0	30186	28800	144966	26882	1053600	44467	111237	0	0	8344	390822	0	0
2024-07-13 01:17:47			0	42233	0	0	0	30189	28790	144850	26871	1053582	44478	111238	0	0	8344	390685	0	0
2024-07-13 01:18:47			0	42225	0	0	0	30186	28780	144902	26857	1053520	44465	111237	0	0	8344	390964	0	0
2024-07-13 01:19:47			0	42248	0	0	0	30189	28790	144902	26830	1053564	44466	111238	0	0	8345	390205	0	0
2024-07-13 01:20:47			0	42252	0	0	0	30194	28800	144930	26875	1053681	44479	111240	0	0	8345	390055	0	0
2024-07-13 01:21:47			0	42257	0	0	0	30186	28790	144946	26823	1053555	44466	111237	0	0	8345	389917	0	0
2024-07-13 01:22:47			0	42241	0	0	0	30192	28790	144874	26757	1053582	44478	111239	0	0	8344	390429	0	0
2024-07-13 01:23:47			0	42234	0	0	0	30194	28790	144866	26989	1053564	44478	111240	0	0	8344	390653	0	0
2024-07-13 01:24:47			0	42242	0	0	0	30184	28780	144866	26939	1053547	44465	111236	0	0	8345	390420	0	0
2024-07-13 01:25:47			0	42259	0	0	0	30186	28790	144890	27003	1053591	44466	111237	0	0	8346	389854	0	0
2024-07-13 01:26:47			0	42251	0	0	0	30194	28790	144894	26965	1053528	44466	111240	0	0	8345	390109	0	0
2024-07-13 01:27:47			0	42262	0	0	0	30184	28790	144930	26852	1053510	44456	111236	0	0	8346	389758	0	0
2024-07-13 01:28:47			0	42255	0	0	0	30186	28790	144854	27017	1053510	44456	111237	0	0	8345	389981	0	0
2024-07-13 01:29:47			0	42258	0	0	0	30174	28780	144894	27022	1053511	44465	111232	0	0	8346	389908	0	0
2024-07-13 01:30:47			0	42249	0	0	0	30179	28790	144818	26967	1053448	44466	111234	0	0	8345	390173	0	0
2024-07-13 01:31:47			0	42248	0	0	0	30181	28780	144842	27105	1053547	44465	111235	0	0	8345	390228	0	0
2024-07-13 01:32:47			0	42285	0	0	0	30174	28780	144902	27154	1053466	44477	111232	0	0	8347	389046	0	0
2024-07-13 01:33:47			0	42280	0	0	0	30179	28780	144842	27374	1053511	44477	111234	0	0	8347	389205	0	0
2024-07-13 01:34:47			0	42278	0	0	0	30181	28780	144834	27154	1053493	44477	111235	0	0	8347	389269	0	0
2024-07-13 01:35:47			0	42277	0	0	0	30171	28780	144778	27043	1053484	44477	111231	0	0	8347	389301	0	0
2024-07-13 01:36:47			0	42285	0	0	0	30181	28780	144830	27102	1053520	44465	111235	0	0	8347	389046	0	0
2024-07-13 01:37:47			0	42283	0	0	0	30181	28780	144758	26908	1053538	44488	111235	0	0	8347	389110	0	0
2024-07-13 01:38:47			0	42287	0	0	0	30181	28770	144758	27300	1053529	44464	111235	0	0	8347	389004	0	0
2024-07-13 01:39:47			0	42291	0	0	0	30168	28780	144694	27135	1053538	44477	111230	0	0	8348	388854	0	0
2024-07-13 01:40:47			0	42298	0	0	0	30181	28780	144710	27123	1053511	44477	111235	0	0	8348	388631	0	0
2024-07-13 01:41:47			0	42301	0	0	0	30181	28790	144718	26734	1053510	44478	111235	0	0	8348	388513	0	0
2024-07-13 01:42:47			0	42314	0	0	0	30176	28780	144646	27095	1053484	44488	111233	0	0	8349	388120	0	0
2024-07-13 01:43:47			0	42311	0	0	0	30179	28770	144710	26901	1053502	44464	111234	0	0	8349	388238	0	0
2024-07-13 01:44:47			0	42303	0	0	0	30181	28770	144642	27156	1053529	44464	111235	0	0	8348	388494	0	0
2024-07-13 01:45:47			0	42330	0	0	0	30179	28780	144734	26876	1053484	44477	111234	0	0	8350	387610	0	0
2024-07-13 01:46:47			0	42314	0	0	0	30176	28780	144646	26712	1053457	44477	111233	0	0	8349	388120	0	0
2024-07-13 01:47:47			0	42315	0	0	0	30176	28780	144670	27138	1053457	44477	111233	0	0	8349	388089	0	0
2024-07-13 01:48:47			0	42328	0	0	0	30176	28770	144650	26889	1053502	44476	111233	0	0	8350	387696	0	0
2024-07-13 01:49:47			0	42324	0	0	0	30171	28780	144558	27053	1053484	44465	111231	0	0	8350	387801	0	0
2024-07-13 01:50:47			0	42348	0	0	0	30174	28770	144550	27045	1053475	44464	111232	0	0	8351	387059	0	0
2024-07-13 01:51:47			0	42313	0	0	0	30163	28770	144570	26783	1053448	44464	111228	0	0	8349	388175	0	0
2024-07-13 01:52:47			0	42339	0	0	0	30168	28770	144466	26908	1053421	44464	111230	0	0	8350	387346	0	0
2024-07-13 01:53:47			0	42362	0	0	0	30161	28760	144538	26875	1053403	44475	111227	0	0	8352	386636	0	0
2024-07-13 01:54:47			0	42348	0	0	0	30166	28770	144486	27128	1053421	44476	111229	0	0	8351	387059	0	0
2024-07-13 01:55:47			0	42359	0	0	0	30163	28770	144526	26863	1053466	44463	111228	0	0	8352	386709	0	0
2024-07-13 01:56:47			0	42349	0	0	0	30161	28770	144470	26890	1053439	44463	111227	0	0	8351	387027	0	0
2024-07-13 01:57:47			0	42364	0	0	0	30153	28770	144494	27185	1053448	44476	111224	0	0	8352	386550	0	0
2024-07-13 01:58:47			0	42379	0	0	0	30163	28760	144478	27041	1053457	44453	111228	0	0	8353	386095	0	0
2024-07-13 01:59:47			0	42389	0	0	0	30153	28770	144414	26994	1053385	44475	111224	0	0	8354	385754	0	0
2024-07-13 02:00:47			0	42378	0	0	0	30161	28770	144482	26859	1053385	44463	111227	0	0	8353	386104	0	0
2024-07-13 02:01:47			0	42374	0	0	0	30163	28770	144318	27121	1053439	44475	111228	0	0	8353	386231	0	0
2024-07-13 02:02:47			0	42386	0	0	0	30158	28760	144430	27149	1053457	44475	111226	0	0	8353	385872	0	0
2024-07-13 02:03:47			0	42392	0	0	0	30161	28760	144402	26838	1053421	44498	111227	0	0	8354	385681	0	0
2024-07-13 02:04:47			0	42407	0	0	0	30163	28760	144478	26798	1053421	44475	111228	0	0	8354	385204	0	0
2024-07-13 02:05:47			0	42421	0	0	0	30155	28770	144346	26942	1053412	44475	111225	0	0	8355	384737	0	0
2024-07-13 02:06:47			0	42419	0	0	0	30163	28760	144386	26975	1053448	44486	111228	0	0	8355	384823	0	0
2024-07-13 02:07:47			0	42447	0	0	0	30163	28760	144338	27098	1053421	44475	111228	0	0	8357	383934	0	0
2024-07-13 02:08:47			0	42430	0	0	0	30166	28770	144342	26899	1053385	44486	111229	0	0	8356	384452	0	0
2024-07-13 02:09:47			0	42436	0	0	0	30155	28760	144286	26896	1053403	44475	111225	0	0	8356	384283	0	0
2024-07-13 02:10:47			0	42418	0	0	0	30153	28770	144306	26994	1053439	44475	111224	0	0	8355	384833	0	0
2024-07-13 02:11:47			0	42438	0	0	0	30158	28770	144362	26956	1053412	44475	111226	0	0	8356	384198	0	0
2024-07-13 02:12:47			0	42461	0	0	0	30158	28760	144278	27163	1053403	44463	111226	0	0	8358	383490	0	0
2024-07-13 02:13:47			0	42446	0	0	0	30161	28770	144378	27045	1053385	44475	111227	0	0	8357	383944	0	0
2024-07-13 02:14:47			0	42450	0	0	0	30150	28760	144246	26987	1053421	44453	111223	0	0	8357	383839	0	0
2024-07-13 02:15:47			0	42470	0	0	0	30155	28770	144210	26798	1053385	44475	111225	0	0	8358	383183	0	0
2024-07-13 02:16:47			0	42474	0	0	0	30153	28760	144234	27053	1053448	44463	111224	0	0	8359	383078	0	0
2024-07-13 02:17:47			0	42490	0	0	0	30158	28760	144226	27064	1053376	44463	111226	0	0	8359	382571	0	0
2024-07-13 02:18:47			0	42481	0	0	0	30153	28760	144194	26616	1053457	44463	111224	0	0	8359	382856	0	0
2024-07-13 02:19:47			0	42491	0	0	0	30158	28760	144098	27029	1053448	44475	111226	0	0	8359	382539	0	0
2024-07-13 02:20:47			0	42483	0	0	0	30153	28760	144122	26807	1053340	44463	111224	0	0	8359	382793	0	0
2024-07-13 02:21:47			0	42493	0	0	0	30153	28750	144034	27119	1053385	44474	111224	0	0	8360	382498	0	0
2024-07-13 02:22:47			0	42511	0	0	0	30150	28750	144202	27196	1053358	44485	111223	0	0	8361	381928	0	0
2024-07-13 02:23:47			0	42513	0	0	0	30158	28750	144066	26835	1053349	44462	111226	0	0	8361	381865	0	0
2024-07-13 02:24:47			0	42514	0	0	0	30148	28760	144038	26880	1053394	44463	111222	0	0	8361	381811	0	0
2024-07-13 02:25:47			0	42514	0	0	0	30150	28760	144054	27050	1053421	44463	111223	0	0	8361	381811	0	0
2024-07-13 02:26:47			0	42515	0	0	0	30142	28750	143934	26790	1053358	44462	111220	0	0	8361	381801	0	0
2024-07-13 02:27:47			0	42515	0	0	0	30150	28760	144018	27041	1053376	44475	111223	0	0	8361	381779	0	0
2024-07-13 02:28:47			0	42528	0	0	0	30148	28750	143978	27223	1053385	44474	111222	0	0	8362	381390	0	0
2024-07-13 02:29:47			0	42545	0	0	0	30142	28760	143942	27187	1053367	44463	111220	0	0	8363	380830	0	0
2024-07-13 02:30:47			0	42534	0	0	0	30153	28740	144034	27161	1053368	44473	111224	0	0	8362	381222	0	0
2024-07-13 02:31:47			0	42542	0	0	0	30140	28750	144006	27048	1053376	44451	111219	0	0	8363	380947	0	0
2024-07-13 02:32:47			0	42555	0	0	0	30142	28750	143998	27008	1053385	44474	111220	0	0	8363	380536	0	0
2024-07-13 02:33:47			0	42565	0	0	0	30142	28750	143958	26615	1053358	44462	111220	0	0	8364	380220	0	0
2024-07-13 02:34:47			0	42558	0	0	0	30145	28750	143954	26982	1053349	44462	111221	0	0	8364	380441	0	0
2024-07-13 02:35:47			0	42580	0	0	0	30137	28750	143878	26837	1053349	44473	111218	0	0	8365	379746	0	0
2024-07-13 02:36:47			0	42586	0	0	0	30132	28740	143918	27043	1053341	44473	111216	0	0	8365	379579	0	0
2024-07-13 02:37:47			0	42590	0	0	0	30140	28750	143798	27048	1053376	44473	111219	0	0	8366	379431	0	0
2024-07-13 02:38:47			0	42580	0	0	0	30150	28750	143962	26915	1053385	44497	111223	0	0	8365	379746	0	0
2024-07-13 02:39:47			0	42594	0	0	0	30142	28750	143918	26949	1053349	44484	111220	0	0	8366	379305	0	0
2024-07-13 02:40:47			0	42595	0	0	0	30137	28740	143810	26956	1053305	44472	111218	0	0	8366	379295	0	0
2024-07-13 02:41:47			0	42604	0	0	0	30137	28740	143806	26920	1053305	44472	111218	0	0	8366	379011	0	0
2024-07-13 02:42:47			0	42603	0	0	0	30142	28740	143826	26972	1053305	44483	111220	0	0	8366	379043	0	0
2024-07-13 02:43:47			0	42585	0	0	0	30142	28750	143830	27043	1053376	44462	111220	0	0	8365	379589	0	0
2024-07-13 02:44:47			0	42604	0	0	0	30148	28750	143798	26672	1053376	44473	111222	0	0	8366	378989	0	0
2024-07-13 02:45:47			0	42591	0	0	0	30142	28740	143846	26854	1053341	44462	111220	0	0	8366	379421	0	0
2024-07-13 02:46:47			0	42610	0	0	0	30148	28750	143770	26866	1053296	44484	111222	0	0	8367	378800	0	0
2024-07-13 02:47:47			0	42621	0	0	0	30140	28740	143858	26928	1053341	44462	111219	0	0	8367	378475	0	0
2024-07-13 02:48:47			0	42628	0	0	0	30129	28750	143850	26623	1053323	44462	111215	0	0	8368	378232	0	0
2024-07-13 02:49:47			0	42637	0	0	0	30135	28750	143850	26710	1053403	44473	111217	0	0	8368	377949	0	0
2024-07-13 02:50:47			0	42641	0	0	0	30142	28750	143774	26776	1053430	44473	111220	0	0	8369	377823	0	0
2024-07-13 02:51:47			0	42637	0	0	0	30145	28740	143766	26757	1053278	44472	111221	0	0	8368	377971	0	0
2024-07-13 02:52:47			0	42638	0	0	0	30140	28740	143698	27043	1053287	44473	111219	0	0	8368	377939	0	0
2024-07-13 02:53:47			0	42643	0	0	0	30142	28750	143710	26844	1053349	44473	111220	0	0	8369	377760	0	0
2024-07-13 02:54:47			0	42656	0	0	0	30132	28730	143618	26817	1053323	44461	111216	0	0	8370	377394	0	0
2024-07-13 02:55:47			0	42640	0	0	0	30127	28740	143742	26963	1053332	44472	111214	0	0	8369	377876	0	0
2024-07-13 02:56:47			0	42669	0	0	0	30132	28740	143718	26870	1053314	44473	111216	0	0	8370	376963	0	0
2024-07-13 02:57:47			0	42669	0	0	0	30132	28740	143654	27111	1053341	44462	111216	0	0	8370	376963	0	0
2024-07-13 02:58:47			0	42680	0	0	0	30124	28740	143662	27163	1053314	44473	111213	0	0	8371	376617	0	0
2024-07-13 02:59:47			0	42673	0	0	0	30127	28740	143674	27024	1053287	44484	111214	0	0	8371	376837	0	0
2024-07-13 03:00:47			0	42681	0	0	0	30127	28740	143594	26906	1053278	44472	111214	0	0	8371	376586	0	0
2024-07-13 03:01:47			0	42687	0	0	0	30124	28730	143622	26757	1053233	44482	111213	0	0	8371	376419	0	0
2024-07-13 03:02:47			0	42658	0	0	0	30122	28730	143746	26837	1053287	44494	111212	0	0	8370	377331	0	0
2024-07-13 03:03:47			0	42675	0	0	0	30119	28730	143582	26816	1053296	44472	111211	0	0	8371	376796	0	0
2024-07-13 03:04:47			0	42693	0	0	0	30116	28720	143658	26981	1053278	44471	111210	0	0	8372	376252	0	0
2024-07-13 03:05:47			0	42714	0	0	0	30124	28720	143598	27202	1053278	44460	111213	0	0	8373	375592	0	0
2024-07-13 03:06:47			0	42704	0	0	0	30114	28730	143650	27234	1053233	44482	111209	0	0	8373	375884	0	0
2024-07-13 03:07:47			0	42706	0	0	0	30111	28720	143590	26925	1053278	44460	111208	0	0	8373	375843	0	0
2024-07-13 03:08:47			0	42693	0	0	0	30119	28720	143574	27057	1053197	44471	111211	0	0	8372	376252	0	0
2024-07-13 03:09:47			0	42699	0	0	0	30109	28730	143626	27013	1053233	44471	111207	0	0	8372	376041	0	0
2024-07-13 03:10:47			0	42735	0	0	0	30109	28720	143583	26837	1053224	44482	111207	0	0	8375	374932	0	0
2024-07-13 03:11:47			0	42727	0	0	0	30103	28710	143515	27171	1053180	44470	111205	0	0	8374	375205	0	0
2024-07-13 03:12:47			0	42722	0	0	0	30106	28720	143643	27220	1053216	44470	111206	0	0	8374	375340	0	0
2024-07-13 03:13:47			0	42718	0	0	0	30106	28720	143587	26885	1053170	44471	111206	0	0	8374	375466	0	0
2024-07-13 03:14:47			0	42749	0	0	0	30098	28710	143583	27071	1053153	44459	111203	0	0	8375	374514	0	0
2024-07-13 03:15:47			0	42724	0	0	0	30098	28710	143567	26974	1053126	44470	111203	0	0	8374	375299	0	0
2024-07-13 03:16:47			0	42745	0	0	0	30109	28710	143599	27081	1053180	44470	111207	0	0	8375	374640	0	0
2024-07-13 03:17:47			0	42749	0	0	0	30103	28710	143499	26878	1053207	44481	111205	0	0	8375	374514	0	0
2024-07-13 03:18:47			0	42732	0	0	0	30090	28700	143639	26896	1053162	44480	111200	0	0	8375	375070	0	0
2024-07-13 03:19:47			0	42731	0	0	0	30093	28710	143511	27050	1053180	44470	111201	0	0	8375	375080	0	0
2024-07-13 03:20:47			0	42758	0	0	0	30101	28710	143423	27118	1053180	44481	111204	0	0	8376	374232	0	0
2024-07-13 03:21:47			0	42772	0	0	0	30093	28700	143415	26923	1053135	44458	111201	0	0	8377	373815	0	0
2024-07-13 03:22:47			0	42779	0	0	0	30098	28700	143375	26800	1053135	44469	111203	0	0	8377	373595	0	0
2024-07-13 03:23:47			0	42771	0	0	0	30096	28700	143363	26759	1053162	44480	111202	0	0	8377	373846	0	0
2024-07-13 03:24:47			0	42784	0	0	0	30093	28700	143435	26925	1053126	44480	111201	0	0	8378	373438	0	0
2024-07-13 03:25:47			0	42780	0	0	0	30090	28710	143435	26791	1053117	44469	111200	0	0	8377	373542	0	0
2024-07-13 03:26:47			0	42782	0	0	0	30093	28700	143375	26830	1053135	44469	111201	0	0	8377	373501	0	0
2024-07-13 03:27:47			0	42783	0	0	0	30098	28690	143423	26720	1053090	44480	111203	0	0	8377	373491	0	0
2024-07-13 03:28:47			0	42800	0	0	0	30090	28700	143351	26611	1053099	44468	111200	0	0	8379	372937	0	0
2024-07-13 03:29:47			0	42788	0	0	0	30083	28690	143355	27020	1053063	44480	111197	0	0	8378	373335	0	0
2024-07-13 03:30:47			0	42811	0	0	0	30085	28690	143311	26837	1053063	44491	111198	0	0	8379	372614	0	0
2024-07-13 03:31:47			0	42802	0	0	0	30080	28700	143315	26934	1053081	44458	111196	0	0	8379	372875	0	0
2024-07-13 03:32:47			0	42810	0	0	0	30077	28690	143335	26844	1053109	44479	111195	0	0	8379	372646	0	0
2024-07-13 03:33:47			0	42818	0	0	0	30080	28690	143383	26597	1053028	44467	111196	0	0	8380	372395	0	0
2024-07-13 03:34:47			0	42798	0	0	0	30083	28690	143367	27130	1053028	44479	111197	0	0	8379	373021	0	0
2024-07-13 03:35:47			0	42822	0	0	0	30080	28680	143327	26937	1053100	44479	111196	0	0	8380	372292	0	0
2024-07-13 03:36:47			0	42828	0	0	0	30075	28690	143315	26809	1053135	44467	111194	0	0	8380	372082	0	0
2024-07-13 03:37:47			0	42817	0	0	0	30077	28680	143235	26759	1053046	44467	111195	0	0	8380	372448	0	0
2024-07-13 03:38:47			0	42832	0	0	0	30072	28690	143251	26920	1053090	44480	111193	0	0	8381	371957	0	0
2024-07-13 03:39:47			0	42830	0	0	0	30080	28680	143215	27050	1053073	44479	111196	0	0	8380	372041	0	0
2024-07-13 03:40:47			0	42833	0	0	0	30083	28690	143279	27144	1053082	44467	111197	0	0	8381	371926	0	0
2024-07-13 03:41:47			0	42844	0	0	0	30072	28680	143191	27092	1053046	44479	111193	0	0	8381	371603	0	0
2024-07-13 03:42:47			0	42869	0	0	0	30072	28680	143275	26785	1053100	44467	111193	0	0	8383	370822	0	0
2024-07-13 03:43:47			0	42842	0	0	0	30072	28680	143315	26927	1053037	44478	111193	0	0	8381	371666	0	0
2024-07-13 03:44:47			0	42865	0	0	0	30080	28690	143223	26854	1053028	44479	111196	0	0	8383	370925	0	0
2024-07-13 03:45:47			0	42848	0	0	0	30080	28680	143271	26883	1053037	44489	111196	0	0	8382	371478	0	0
2024-07-13 03:46:47			0	42873	0	0	0	30080	28690	143163	26896	1053055	44479	111196	0	0	8383	370675	0	0
2024-07-13 03:47:47			0	42856	0	0	0	30075	28690	143115	26833	1053028	44479	111194	0	0	8382	371207	0	0
2024-07-13 03:48:47			0	42858	0	0	0	30075	28680	143167	26897	1053091	44478	111194	0	0	8382	371166	0	0
2024-07-13 03:49:47			0	42855	0	0	0	30075	28680	143103	27171	1053091	44489	111194	0	0	8382	371259	0	0
2024-07-13 03:50:47			0	42875	0	0	0	30077	28680	143107	27364	1053073	44479	111195	0	0	8383	370634	0	0
2024-07-13 03:51:47			0	42871	0	0	0	30072	28670	143103	27055	1053055	44465	111193	0	0	8383	370781	0	0
2024-07-13 03:52:47			0	42884	0	0	0	30077	28680	143115	27060	1053046	44467	111195	0	0	8384	370353	0	0
2024-07-13 03:53:47			0	42871	0	0	0	30072	28680	143067	27235	1053037	44466	111193	0	0	8383	370759	0	0
2024-07-13 03:54:47			0	42873	0	0	0	30075	28680	143139	26654	1053073	44467	111194	0	0	8383	370697	0	0
2024-07-13 03:55:47			0	42897	0	0	0	30070	28680	143115	27119	1053064	44466	111192	0	0	8385	369947	0	0
2024-07-13 03:56:47			0	42912	0	0	0	30062	28680	143095	26753	1052992	44457	111189	0	0	8386	369479	0	0
2024-07-13 03:57:47			0	42913	0	0	0	30075	28680	143039	26847	1052983	44478	111194	0	0	8385	369448	0	0
2024-07-13 03:58:47			0	42901	0	0	0	30070	28680	143075	27045	1053064	44466	111192	0	0	8385	369823	0	0
2024-07-13 03:59:47			0	42897	0	0	0	30070	28670	143027	26899	1053109	44465	111192	0	0	8385	369969	0	0
2024-07-13 04:00:47			0	42913	0	0	0	30070	28680	143091	26906	1053118	44466	111192	0	0	8386	369448	0	0
2024-07-13 04:01:47			0	42891	0	0	0	30070	28680	143143	27182	1053037	44489	111192	0	0	8384	370135	0	0
2024-07-13 04:02:47			0	42903	0	0	0	30067	28670	143071	27069	1053055	44477	111191	0	0	8385	369782	0	0
2024-07-13 04:03:47			0	42910	0	0	0	30075	28670	143079	26979	1052974	44455	111194	0	0	8385	369563	0	0
2024-07-13 04:04:47			0	42922	0	0	0	30070	28680	143063	26927	1053010	44478	111192	0	0	8386	369168	0	0
2024-07-13 04:05:47			0	42906	0	0	0	30070	28680	143087	27326	1053046	44467	111192	0	0	8385	369667	0	0
2024-07-13 04:06:47			0	42942	0	0	0	30077	28680	142983	26967	1053064	44478	111195	0	0	8387	368544	0	0
2024-07-13 04:07:47			0	42930	0	0	0	30072	28670	143003	26920	1053109	44465	111193	0	0	8386	368940	0	0
2024-07-13 04:08:47			0	42923	0	0	0	30062	28670	142979	27074	1053028	44488	111189	0	0	8386	369158	0	0
2024-07-13 04:09:47			0	42920	0	0	0	30070	28670	142887	26779	1053055	44488	111192	0	0	8386	369251	0	0
2024-07-13 04:10:47			0	42935	0	0	0	30067	28680	142927	27244	1053037	44466	111191	0	0	8387	368762	0	0
2024-07-13 04:11:47			0	42928	0	0	0	30067	28680	142947	27100	1053010	44478	111191	0	0	8386	368980	0	0
2024-07-13 04:12:47			0	42936	0	0	0	30075	28670	142847	26937	1053055	44477	111194	0	0	8387	368752	0	0
2024-07-13 04:13:47			0	42939	0	0	0	30062	28660	142935	27060	1052992	44465	111189	0	0	8387	368680	0	0
2024-07-13 04:14:47			0	42943	0	0	0	30072	28680	142943	26870	1053037	44478	111193	0	0	8387	368513	0	0
2024-07-13 04:15:47			0	42938	0	0	0	30072	28660	142871	27071	1053010	44464	111193	0	0	8387	368712	0	0
2024-07-13 04:16:47			0	42955	0	0	0	30070	28680	142851	26838	1052992	44479	111192	0	0	8388	368139	0	0
2024-07-13 04:17:47			0	42937	0	0	0	30064	28680	142887	27185	1053037	44466	111190	0	0	8387	368700	0	0
2024-07-13 04:18:47			0	42954	0	0	0	30064	28660	142875	26819	1053010	44464	111190	0	0	8388	368213	0	0
2024-07-13 04:19:47			0	42954	0	0	0	30067	28670	142931	27059	1053055	44465	111191	0	0	8388	368192	0	0
2024-07-13 04:20:47			0	42947	0	0	0	30070	28670	142987	26899	1052974	44477	111192	0	0	8388	368410	0	0
2024-07-13 04:21:47			0	42962	0	0	0	30062	28660	142887	26793	1053046	44488	111189	0	0	8389	367964	0	0
2024-07-13 04:22:47			0	42958	0	0	0	30067	28670	142899	26930	1053001	44477	111191	0	0	8388	368067	0	0
2024-07-13 04:23:47			0	42963	0	0	0	30064	28660	142811	26935	1052992	44488	111190	0	0	8389	367933	0	0
2024-07-13 04:24:47			0	42973	0	0	0	30062	28670	142803	27069	1053028	44465	111189	0	0	8389	367600	0	0
2024-07-13 04:25:47			0	42977	0	0	0	30064	28660	142779	27176	1053019	44477	111190	0	0	8389	367497	0	0
2024-07-13 04:26:47			0	42981	0	0	0	30062	28670	142807	27218	1052974	44465	111189	0	0	8390	367351	0	0
2024-07-13 04:27:47			0	42985	0	0	0	30054	28660	142787	27177	1053046	44465	111186	0	0	8390	367248	0	0
2024-07-13 04:28:47			0	43000	0	0	0	30057	28670	142799	27092	1052974	44477	111187	0	0	8391	366760	0	0
2024-07-13 04:29:47			0	42992	0	0	0	30070	28660	142795	26970	1052983	44464	111192	0	0	8390	367030	0	0
2024-07-13 04:30:47			0	42993	0	0	0	30057	28660	142751	26847	1052983	44464	111187	0	0	8390	366999	0	0
2024-07-13 04:31:47			0	42981	0	0	0	30054	28660	142859	27034	1053019	44488	111186	0	0	8390	367372	0	0
2024-07-13 04:32:47			0	43003	0	0	0	30062	28660	142767	27206	1053019	44477	111189	0	0	8391	366688	0	0
2024-07-13 04:33:47			0	42983	0	0	0	30062	28660	142783	26892	1053019	44488	111189	0	0	8390	367310	0	0
2024-07-13 04:34:47			0	42993	0	0	0	30064	28660	142683	27086	1052965	44477	111190	0	0	8390	366999	0	0
2024-07-13 04:35:47			0	42997	0	0	0	30064	28660	142727	27043	1053046	44477	111190	0	0	8391	366875	0	0
2024-07-13 04:36:47			0	43008	0	0	0	30067	28650	142739	27000	1053001	44476	111191	0	0	8391	366554	0	0
2024-07-13 04:37:47			0	42991	0	0	0	30059	28670	142679	27079	1053055	44477	111188	0	0	8390	367040	0	0
2024-07-13 04:38:47			0	43012	0	0	0	30062	28660	142727	27074	1053073	44465	111189	0	0	8391	366408	0	0
2024-07-13 04:39:47			0	43004	0	0	0	30059	28670	142731	27095	1053028	44477	111188	0	0	8391	366636	0	0
2024-07-13 04:40:47			0	43012	0	0	0	30057	28670	142715	27208	1053001	44488	111187	0	0	8392	366387	0	0
2024-07-13 04:41:47			0	43002	0	0	0	30067	28670	142663	26986	1053028	44488	111191	0	0	8391	366698	0	0
2024-07-13 04:42:47			0	43013	0	0	0	30059	28660	142667	27104	1053019	44488	111188	0	0	8392	366377	0	0
2024-07-13 04:43:47			0	43029	0	0	0	30057	28670	142711	27379	1053028	44477	111187	0	0	8393	365859	0	0
2024-07-13 04:44:47			0	43009	0	0	0	30064	28660	142675	27131	1053100	44488	111190	0	0	8391	366502	0	0
2024-07-13 04:45:47			0	43025	0	0	0	30062	28660	142683	27280	1053064	44464	111189	0	0	8392	366004	0	0
2024-07-13 04:46:47			0	43013	0	0	0	30062	28660	142755	26705	1053010	44476	111189	0	0	8392	366377	0	0
2024-07-13 04:47:47			0	43031	0	0	0	30054	28660	142683	26955	1052983	44476	111186	0	0	8393	365818	0	0
2024-07-13 04:48:47			0	43053	0	0	0	30054	28660	142611	26934	1053010	44487	111186	0	0	8394	365135	0	0
2024-07-13 04:49:47			0	43034	0	0	0	30057	28660	142635	27092	1053046	44488	111187	0	0	8393	365725	0	0
2024-07-13 04:50:47			0	43025	0	0	0	30064	28660	142591	27244	1052965	44477	111190	0	0	8392	366004	0	0
2024-07-13 04:51:47			0	43039	0	0	0	30059	28660	142655	27251	1053037	44476	111188	0	0	8393	365570	0	0
2024-07-13 04:52:47			0	43044	0	0	0	30059	28670	142571	27232	1053055	44465	111188	0	0	8393	365393	0	0
2024-07-13 04:53:47			0	43041	0	0	0	30059	28660	142611	27166	1053019	44477	111188	0	0	8393	365508	0	0
2024-07-13 04:54:47			0	43037	0	0	0	30057	28660	142635	26712	1052965	44477	111187	0	0	8393	365632	0	0
2024-07-13 04:55:47			0	43048	0	0	0	30049	28660	142667	27045	1053073	44500	111184	0	0	8394	365290	0	0
2024-07-13 04:56:47			0	43035	0	0	0	30064	28650	142539	27222	1053028	44476	111190	0	0	8393	365715	0	0
2024-07-13 04:57:47			0	43057	0	0	0	30059	28650	142567	27026	1053028	44487	111188	0	0	8394	365032	0	0
2024-07-13 04:58:47			0	43058	0	0	0	30057	28670	142651	27072	1053028	44477	111187	0	0	8394	364959	0	0
2024-07-13 04:59:47			0	43053	0	0	0	30064	28660	142623	27057	1052983	44476	111190	0	0	8394	365135	0	0
2024-07-13 05:00:47			0	43026	0	0	0	30062	28660	142671	27147	1052983	44487	111189	0	0	8392	365973	0	0
2024-07-13 05:01:47			0	43036	0	0	0	30062	28660	142599	27128	1052992	44488	111189	0	0	8393	365663	0	0
2024-07-13 05:02:47			0	43053	0	0	0	30059	28660	142579	27043	1052983	44487	111188	0	0	8394	365135	0	0
2024-07-13 05:03:47			0	43053	0	0	0	30057	28650	142567	27033	1052975	44476	111187	0	0	8394	365156	0	0
2024-07-13 05:04:47			0	43075	0	0	0	30046	28660	142539	27263	1052983	44476	111183	0	0	8396	364453	0	0
2024-07-13 05:05:47			0	43073	0	0	0	30051	28650	142559	26821	1052948	44476	111185	0	0	8395	364536	0	0
2024-07-13 05:06:47			0	43068	0	0	0	30044	28660	142675	27152	1053010	44487	111182	0	0	8395	364670	0	0
2024-07-13 05:07:47			0	43058	0	0	0	30057	28650	142631	27161	1052966	44463	111187	0	0	8394	365001	0	0
2024-07-13 05:08:47			0	43071	0	0	0	30044	28650	142647	27135	1052939	44475	111182	0	0	8395	364598	0	0
2024-07-13 05:09:47			0	43074	0	0	0	30041	28650	142607	27071	1052921	44487	111181	0	0	8395	364505	0	0
2024-07-13 05:10:47			0	43078	0	0	0	30036	28640	142627	26982	1052849	44475	111179	0	0	8396	364402	0	0
2024-07-13 05:11:47			0	43070	0	0	0	30046	28650	142635	27029	1052939	44486	111183	0	0	8395	364629	0	0
2024-07-13 05:12:47			0	43063	0	0	0	30031	28640	142575	26984	1052921	44474	111177	0	0	8395	364867	0	0
2024-07-13 05:13:47			0	43090	0	0	0	30038	28650	142551	27062	1052939	44475	111180	0	0	8396	364009	0	0
2024-07-13 05:14:47			0	43069	0	0	0	30025	28630	142563	27012	1052858	44474	111175	0	0	8395	364702	0	0
2024-07-13 05:15:47			0	43097	0	0	0	30028	28640	142571	27270	1052894	44474	111176	0	0	8397	363813	0	0
2024-07-13 05:16:47			0	43098	0	0	0	30023	28640	142623	27152	1052840	44485	111174	0	0	8397	363782	0	0
2024-07-13 05:17:47			0	43077	0	0	0	30025	28620	142583	27067	1052813	44461	111175	0	0	8396	364475	0	0
2024-07-13 05:18:47			0	43110	0	0	0	30023	28630	142547	27039	1052795	44473	111174	0	0	8398	363431	0	0
2024-07-13 05:19:47			0	43086	0	0	0	30015	28620	142479	27003	1052778	44483	111171	0	0	8397	364196	0	0
2024-07-13 05:20:47			0	43085	0	0	0	30010	28620	142551	26863	1052804	44472	111169	0	0	8397	364227	0	0
2024-07-13 05:21:47			0	43111	0	0	0	30012	28620	142483	27031	1052759	44461	111170	0	0	8398	363421	0	0
2024-07-13 05:22:47			0	43100	0	0	0	30015	28610	142471	27104	1052688	44483	111171	0	0	8397	363783	0	0
2024-07-13 05:23:47			0	43120	0	0	0	30005	28610	142379	26920	1052688	44461	111167	0	0	8399	363164	0	0
2024-07-13 05:24:47			0	43129	0	0	0	30007	28610	142359	26937	1052787	44471	111168	0	0	8399	362885	0	0
2024-07-13 05:25:47			0	43114	0	0	0	30005	28610	142435	27124	1052760	44471	111167	0	0	8398	363350	0	0
2024-07-13 05:26:47			0	43142	0	0	0	29994	28610	142347	26788	1052661	44483	111163	0	0	8400	362483	0	0
2024-07-13 05:27:47			0	43116	0	0	0	29994	28610	142351	26941	1052706	44460	111163	0	0	8399	363288	0	0
2024-07-13 05:28:47			0	43140	0	0	0	29997	28600	142271	27043	1052697	44481	111164	0	0	8400	362566	0	0
2024-07-13 05:29:47			0	43154	0	0	0	30002	28610	142327	27020	1052787	44471	111166	0	0	8401	362112	0	0
2024-07-13 05:30:47			0	43147	0	0	0	29999	28600	142335	27422	1052670	44459	111165	0	0	8400	362349	0	0
2024-07-13 05:31:47			0	43149	0	0	0	29997	28600	142279	26781	1052742	44448	111164	0	0	8401	362287	0	0
2024-07-13 05:32:47			0	43133	0	0	0	29994	28600	142283	27001	1052634	44470	111163	0	0	8400	362782	0	0
2024-07-13 05:33:47			0	43153	0	0	0	29989	28590	142295	27005	1052599	44493	111161	0	0	8401	362184	0	0
2024-07-13 05:34:47			0	43153	0	0	0	29992	28600	142295	26889	1052742	44470	111162	0	0	8401	362163	0	0
2024-07-13 05:35:47			0	43166	0	0	0	29994	28590	142391	26904	1052644	44480	111163	0	0	8402	361782	0	0
2024-07-13 05:36:47			0	43162	0	0	0	29981	28590	142339	26821	1052652	44470	111158	0	0	8402	361906	0	0
2024-07-13 05:37:47			0	43176	0	0	0	29979	28590	142339	27142	1052617	44458	111157	0	0	8402	361473	0	0
2024-07-13 05:38:47			0	43168	0	0	0	29981	28590	142247	27173	1052599	44481	111158	0	0	8402	361721	0	0
2024-07-13 05:39:47			0	43148	0	0	0	29986	28590	142279	27289	1052671	44469	111160	0	0	8401	362339	0	0
2024-07-13 05:40:47			0	43160	0	0	0	29984	28590	142183	27189	1052626	44470	111159	0	0	8401	361968	0	0
2024-07-13 05:41:47			0	43174	0	0	0	29984	28580	142231	26897	1052626	44468	111159	0	0	8402	361556	0	0
2024-07-13 05:42:47			0	43186	0	0	0	29986	28590	142115	26953	1052590	44480	111160	0	0	8403	361164	0	0
2024-07-13 05:43:47			0	43177	0	0	0	29984	28580	142183	26982	1052581	44479	111159	0	0	8402	361463	0	0
2024-07-13 05:44:47			0	43201	0	0	0	29979	28590	142295	27133	1052617	44480	111157	0	0	8404	360701	0	0
2024-07-13 05:45:47			0	43195	0	0	0	29986	28590	142163	27486	1052617	44480	111160	0	0	8403	360886	0	0
2024-07-13 05:46:47			0	43181	0	0	0	29984	28590	142139	27163	1052617	44480	111159	0	0	8403	361319	0	0
2024-07-13 05:47:47			0	43192	0	0	0	29981	28580	142191	27152	1052581	44479	111158	0	0	8403	361000	0	0
2024-07-13 05:48:47			0	43199	0	0	0	29979	28580	142127	26963	1052635	44479	111157	0	0	8404	360784	0	0
2024-07-13 05:49:47			0	43218	0	0	0	29979	28590	142171	26994	1052671	44480	111157	0	0	8405	360177	0	0
2024-07-13 05:50:47			0	43206	0	0	0	29976	28580	142167	27164	1052581	44468	111156	0	0	8404	360568	0	0
2024-07-13 05:51:47			0	43214	0	0	0	29979	28580	142111	26965	1052572	44479	111157	0	0	8405	360321	0	0
2024-07-13 05:52:47			0	43221	0	0	0	29981	28590	142095	26909	1052617	44480	111158	0	0	8405	360084	0	0
2024-07-13 05:53:47			0	43218	0	0	0	29976	28580	142131	27088	1052662	44479	111156	0	0	8405	360197	0	0
2024-07-13 05:54:47			0	43230	0	0	0	29973	28590	142135	26838	1052617	44480	111155	0	0	8406	359806	0	0
2024-07-13 05:55:47			0	43231	0	0	0	29976	28580	142115	26928	1052608	44458	111156	0	0	8406	359796	0	0
2024-07-13 05:56:47			0	43220	0	0	0	29979	28580	142075	27102	1052608	44468	111157	0	0	8405	360136	0	0
2024-07-13 05:57:47			0	43219	0	0	0	29981	28580	142115	26771	1052599	44479	111158	0	0	8405	360166	0	0
2024-07-13 05:58:47			0	43236	0	0	0	29973	28580	142155	26774	1052518	44491	111155	0	0	8406	359642	0	0
2024-07-13 05:59:47			0	43236	0	0	0	29966	28570	142099	27027	1052563	44490	111152	0	0	8406	359663	0	0
2024-07-13 06:00:47			0	43246	0	0	0	29973	28580	142087	27097	1052635	44468	111155	0	0	8407	359334	0	0
2024-07-13 06:01:47			0	43241	0	0	0	29973	28570	142127	27046	1052536	44467	111155	0	0	8406	359509	0	0
2024-07-13 06:02:47			0	43249	0	0	0	29971	28570	142183	27046	1052536	44467	111154	0	0	8407	359262	0	0
2024-07-13 06:03:47			0	43248	0	0	0	29963	28580	142175	26649	1052581	44491	111151	0	0	8407	359272	0	0
2024-07-13 06:04:47			0	43256	0	0	0	29966	28570	142071	26972	1052563	44490	111152	0	0	8407	359046	0	0
2024-07-13 06:05:47			0	43254	0	0	0	29966	28570	142115	26944	1052536	44467	111152	0	0	8407	359108	0	0
2024-07-13 06:06:47			0	43258	0	0	0	29968	28570	142051	27173	1052509	44457	111153	0	0	8407	358985	0	0
2024-07-13 06:07:47			0	43270	0	0	0	29973	28570	142083	27079	1052527	44479	111155	0	0	8408	358615	0	0
2024-07-13 06:08:47			0	43260	0	0	0	29966	28570	142071	26984	1052536	44479	111152	0	0	8408	358923	0	0
2024-07-13 06:09:47			0	43250	0	0	0	29963	28580	142055	26941	1052518	44479	111151	0	0	8407	359210	0	0
2024-07-13 06:10:47			0	43269	0	0	0	29963	28570	142015	27206	1052509	44467	111151	0	0	8408	358646	0	0
2024-07-13 06:11:47			0	43255	0	0	0	29961	28570	142027	27239	1052581	44479	111150	0	0	8407	359077	0	0
2024-07-13 06:12:47			0	43293	0	0	0	29955	28570	142023	27086	1052536	44479	111148	0	0	8410	357907	0	0
2024-07-13 06:13:47			0	43286	0	0	0	29955	28560	141907	26953	1052519	44478	111148	0	0	8409	358143	0	0
2024-07-13 06:14:47			0	43288	0	0	0	29961	28560	141935	27317	1052519	44478	111150	0	0	8409	358082	0	0
2024-07-13 06:15:47			0	43262	0	0	0	29958	28560	142067	27098	1052492	44456	111149	0	0	8408	358882	0	0
2024-07-13 06:16:47			0	43270	0	0	0	29955	28560	142055	27005	1052492	44478	111148	0	0	8408	358636	0	0
2024-07-13 06:17:47			0	43270	0	0	0	29955	28560	142055	26854	1052519	44500	111148	0	0	8408	358636	0	0
2024-07-13 06:18:47			0	43269	0	0	0	29958	28560	142083	27322	1052537	44477	111149	0	0	8408	358667	0	0
2024-07-13 06:19:47			0	43284	0	0	0	29950	28570	142079	27130	1052554	44457	111146	0	0	8409	358184	0	0
2024-07-13 06:20:47			0	43284	0	0	0	29948	28560	142079	26996	1052510	44488	111145	0	0	8409	358205	0	0
2024-07-13 06:21:47			0	43286	0	0	0	29953	28570	142039	27230	1052554	44490	111147	0	0	8409	358122	0	0
2024-07-13 06:22:47			0	43289	0	0	0	29963	28560	142059	27180	1052492	44478	111151	0	0	8409	358051	0	0
2024-07-13 06:23:47			0	43269	0	0	0	29958	28560	142059	27265	1052519	44456	111149	0	0	8408	358667	0	0
2024-07-13 06:24:47			0	43282	0	0	0	29958	28560	141995	27190	1052438	44478	111149	0	0	8409	358266	0	0
2024-07-13 06:25:47			0	43299	0	0	0	29955	28560	142059	26977	1052492	44478	111148	0	0	8410	357743	0	0
2024-07-13 06:26:47			0	43313	0	0	0	29955	28560	142035	27029	1052510	44477	111148	0	0	8411	357312	0	0
2024-07-13 06:27:47			0	43305	0	0	0	29950	28560	142039	27081	1052519	44478	111146	0	0	8410	357558	0	0
2024-07-13 06:28:47			0	43286	0	0	0	29958	28560	142031	27118	1052519	44456	111149	0	0	8409	358143	0	0
2024-07-13 06:29:47			0	43283	0	0	0	29955	28550	142027	27168	1052474	44465	111148	0	0	8409	358256	0	0
2024-07-13 06:30:47			0	43294	0	0	0	29948	28560	142031	27083	1052519	44478	111145	0	0	8410	357897	0	0
2024-07-13 06:31:47			0	43298	0	0	0	29953	28560	141907	26993	1052564	44465	111147	0	0	8410	357774	0	0
2024-07-13 06:32:47			0	43281	0	0	0	29961	28560	142007	27097	1052572	44466	111150	0	0	8409	358297	0	0
2024-07-13 06:33:47			0	43289	0	0	0	29966	28560	142043	26902	1052537	44477	111152	0	0	8409	358051	0	0
2024-07-13 06:34:47			0	43274	0	0	0	29966	28560	141987	27020	1052545	44489	111152	0	0	8408	358513	0	0
2024-07-13 06:35:47			0	43306	0	0	0	29968	28560	141967	26946	1052537	44488	111153	0	0	8410	357528	0	0
2024-07-13 06:36:47			0	43297	0	0	0	29966	28560	141983	26731	1052519	44478	111152	0	0	8410	357805	0	0
2024-07-13 06:37:47			0	43316	0	0	0	29963	28560	141903	27253	1052545	44478	111151	0	0	8411	357220	0	0
2024-07-13 06:38:47			0	43304	0	0	0	29971	28570	141971	26953	1052554	44467	111154	0	0	8410	357569	0	0
2024-07-13 06:39:47			0	43282	0	0	0	29971	28560	141971	27147	1052599	44500	111154	0	0	8409	358266	0	0
2024-07-13 06:40:47			0	43307	0	0	0	29971	28560	141995	27228	1052591	44477	111154	0	0	8410	357497	0	0
2024-07-13 06:41:47			0	43311	0	0	0	29992	28570	141963	26805	1052689	44490	111162	0	0	8410	357353	0	0
2024-07-13 06:42:47			0	43299	0	0	0	29989	28580	141991	27020	1052626	44479	111161	0	0	8410	357702	0	0
2024-07-13 06:43:47			0	43303	0	0	0	29989	28580	141955	27095	1052689	44491	111161	0	0	8410	357579	0	0
2024-07-13 06:44:47			0	43305	0	0	0	29989	28580	142003	27365	1052716	44491	111161	0	0	8410	357517	0	0
2024-07-13 06:45:47			0	43307	0	0	0	30002	28580	142019	27157	1052770	44491	111166	0	0	8410	357456	0	0
2024-07-13 06:46:47			0	43305	0	0	0	30002	28580	141955	27346	1052743	44491	111166	0	0	8410	357517	0	0
2024-07-13 06:47:47			0	43317	0	0	0	29999	28590	141963	27232	1052724	44492	111165	0	0	8411	357127	0	0
2024-07-13 06:48:47			0	43312	0	0	0	30012	28590	141875	27353	1052760	44481	111170	0	0	8410	357281	0	0
2024-07-13 06:49:47			0	43316	0	0	0	30007	28590	141927	27258	1052697	44480	111168	0	0	8410	357158	0	0
2024-07-13 06:50:47			0	43310	0	0	0	30007	28600	141967	27258	1052715	44481	111168	0	0	8410	357322	0	0
2024-07-13 06:51:47			0	43299	0	0	0	30012	28600	141979	27332	1052769	44493	111170	0	0	8409	357660	0	0
2024-07-13 06:52:47			0	43297	0	0	0	30007	28590	141931	27552	1052814	44493	111168	0	0	8409	357742	0	0
2024-07-13 06:53:47			0	43277	0	0	0	30010	28600	141955	27293	1052805	44481	111169	0	0	8408	358337	0	0
2024-07-13 06:54:47			0	43288	0	0	0	30005	28600	141995	27053	1052769	44493	111167	0	0	8409	357999	0	0
2024-07-13 06:55:47			0	43277	0	0	0	30015	28600	141923	27098	1052796	44481	111171	0	0	8408	358337	0	0
2024-07-13 06:56:47			0	43284	0	0	0	30015	28600	141919	26918	1052742	44470	111171	0	0	8408	358122	0	0
2024-07-13 06:57:47			0	43285	0	0	0	30010	28600	141931	26972	1052769	44493	111169	0	0	8408	358091	0	0
2024-07-13 06:58:47			0	43309	0	0	0	30007	28600	141911	27242	1052769	44481	111168	0	0	8410	357353	0	0
2024-07-13 06:59:47			0	43300	0	0	0	30012	28600	141887	27185	1052769	44459	111170	0	0	8409	357630	0	0
2024-07-13 07:00:47			0	43292	0	0	0	29997	28590	141955	27828	1052814	44481	111164	0	0	8409	357896	0	0
2024-07-13 07:01:47			0	43289	0	0	0	30005	28600	141915	27441	1052805	44459	111167	0	0	8409	357968	0	0
2024-07-13 07:02:47			0	43258	0	0	0	29992	28590	141991	27327	1052724	44480	111162	0	0	8407	358943	0	0
2024-07-13 07:03:47			0	43266	0	0	0	29994	28600	142035	27379	1052742	44470	111163	0	0	8408	358676	0	0
2024-07-13 07:04:47			0	43270	0	0	0	29989	28590	142035	27483	1052652	44481	111161	0	0	8408	358574	0	0
2024-07-13 07:05:47			0	43284	0	0	0	29981	28590	142047	27575	1052652	44481	111158	0	0	8409	358143	0	0
2024-07-13 07:06:47			0	43271	0	0	0	29973	28590	142015	27248	1052626	44470	111155	0	0	8408	358543	0	0
2024-07-13 07:07:47			0	43258	0	0	0	29971	28590	142099	27377	1052617	44480	111154	0	0	8407	358943	0	0
2024-07-13 07:08:47			0	43263	0	0	0	29968	28590	142087	27367	1052617	44469	111153	0	0	8408	358789	0	0
2024-07-13 07:09:47			0	43248	0	0	0	29968	28590	142055	27559	1052599	44481	111153	0	0	8407	359251	0	0
2024-07-13 07:10:47			0	43257	0	0	0	29976	28580	142047	27607	1052608	44479	111156	0	0	8407	358995	0	0
2024-07-13 07:11:47			0	43265	0	0	0	29971	28580	142031	27256	1052599	44479	111154	0	0	8408	358748	0	0
2024-07-13 07:12:47			0	43243	0	0	0	29971	28580	142047	27623	1052572	44479	111154	0	0	8406	359426	0	0
2024-07-13 07:13:47			0	43261	0	0	0	29966	28580	142047	27334	1052608	44479	111152	0	0	8408	358872	0	0
2024-07-13 07:14:47			0	43245	0	0	0	29958	28580	142055	27873	1052608	44479	111149	0	0	8407	359365	0	0
2024-07-13 07:15:47			0	43232	0	0	0	29966	28560	142043	27289	1052537	44477	111152	0	0	8406	359807	0	0
2024-07-13 07:16:47			0	43221	0	0	0	29955	28570	142059	27241	1052563	44479	111148	0	0	8405	360126	0	0
2024-07-13 07:17:47			0	43223	0	0	0	29961	28570	142167	27481	1052590	44490	111150	0	0	8405	360064	0	0
2024-07-13 07:18:47			0	43212	0	0	0	29953	28560	142163	27436	1052519	44489	111147	0	0	8405	360424	0	0
2024-07-13 07:19:47			0	43217	0	0	0	29963	28560	142327	27772	1052572	44478	111151	0	0	8405	360270	0	0
2024-07-13 07:20:47			0	43193	0	0	0	29953	28560	142175	27512	1052626	44478	111147	0	0	8404	361011	0	0
2024-07-13 07:21:47			0	43201	0	0	0	29948	28570	142175	27786	1052554	44490	111145	0	0	8404	360743	0	0
2024-07-13 07:22:47			0	43190	0	0	0	29955	28570	142267	27346	1052617	44479	111148	0	0	8404	361083	0	0
2024-07-13 07:23:47			0	43193	0	0	0	29950	28570	142283	27414	1052473	44479	111146	0	0	8404	360990	0	0
2024-07-13 07:24:47			0	43212	0	0	0	29948	28560	142187	27384	1052519	44466	111145	0	0	8405	360424	0	0
2024-07-13 07:25:47			0	43194	0	0	0	29937	28560	142283	27573	1052483	44488	111141	0	0	8404	360980	0	0
2024-07-13 07:26:47			0	43184	0	0	0	29942	28560	142283	27440	1052492	44489	111143	0	0	8403	361289	0	0
2024-07-13 07:27:47			0	43172	0	0	0	29940	28550	142247	27324	1052474	44465	111142	0	0	8403	361681	0	0
2024-07-13 07:28:47			0	43155	0	0	0	29948	28550	142279	27580	1052474	44488	111145	0	0	8401	362207	0	0
2024-07-13 07:29:47			0	43169	0	0	0	29942	28550	142279	27201	1052447	44477	111143	0	0	8402	361773	0	0
2024-07-13 07:30:47			0	43165	0	0	0	29945	28560	142363	27338	1052456	44465	111144	0	0	8402	361876	0	0
2024-07-13 07:31:47			0	43149	0	0	0	29950	28560	142347	27284	1052483	44477	111146	0	0	8401	362371	0	0
2024-07-13 07:32:47			0	43139	0	0	0	29948	28570	142459	27307	1052581	44467	111145	0	0	8401	362660	0	0
2024-07-13 07:33:47			0	43150	0	0	0	29948	28570	142391	27495	1052608	44479	111145	0	0	8401	362319	0	0
2024-07-13 07:34:47			0	43145	0	0	0	29961	28560	142411	27452	1052545	44489	111150	0	0	8401	362495	0	0
2024-07-13 07:35:47			0	43131	0	0	0	29950	28560	142379	27388	1052510	44477	111146	0	0	8400	362928	0	0
2024-07-13 07:36:47			0	43111	0	0	0	29950	28560	142443	27689	1052519	44466	111146	0	0	8399	363548	0	0
2024-07-13 07:37:47			0	43118	0	0	0	29950	28570	142475	27248	1052527	44490	111146	0	0	8399	363310	0	0
2024-07-13 07:38:47			0	43106	0	0	0	29945	28560	142547	27433	1052545	44478	111144	0	0	8399	363703	0	0
2024-07-13 07:39:47			0	43094	0	0	0	29953	28560	142475	27469	1052572	44478	111147	0	0	8398	364074	0	0
2024-07-13 07:40:47			0	43092	0	0	0	29958	28560	142523	27196	1052671	44477	111149	0	0	8398	364136	0	0
2024-07-13 07:41:47			0	43087	0	0	0	29953	28560	142563	27244	1052572	44478	111147	0	0	8397	364291	0	0
2024-07-13 07:42:47			0	43090	0	0	0	29958	28560	142635	27897	1052572	44489	111149	0	0	8397	364198	0	0
2024-07-13 07:43:47			0	43070	0	0	0	29953	28570	142611	27698	1052590	44490	111147	0	0	8396	364798	0	0
2024-07-13 07:44:47			0	43055	0	0	0	29955	28560	142611	27320	1052545	44478	111148	0	0	8395	365284	0	0
2024-07-13 07:45:47			0	43053	0	0	0	29948	28560	142659	27649	1052537	44477	111145	0	0	8395	365347	0	0
2024-07-13 07:46:47			0	43051	0	0	0	29945	28560	142671	27592	1052510	44488	111144	0	0	8395	365409	0	0
2024-07-13 07:47:47			0	43043	0	0	0	29942	28560	142675	27812	1052519	44478	111143	0	0	8395	365657	0	0
2024-07-13 07:48:47			0	43038	0	0	0	29945	28560	142711	27537	1052564	44477	111144	0	0	8395	365813	0	0
2024-07-13 07:49:47			0	43025	0	0	0	29950	28560	142715	27663	1052545	44500	111146	0	0	8394	366216	0	0
2024-07-13 07:50:47			0	43011	0	0	0	29955	28570	142867	27661	1052527	44467	111148	0	0	8393	366630	0	0
2024-07-13 07:51:47			0	42997	0	0	0	29948	28560	142775	27364	1052510	44465	111145	0	0	8392	367087	0	0
2024-07-13 07:52:47			0	42998	0	0	0	29940	28560	142875	27185	1052483	44465	111142	0	0	8392	367056	0	0
2024-07-13 07:53:47			0	42981	0	0	0	29929	28560	142915	27345	1052456	44477	111138	0	0	8391	367585	0	0
2024-07-13 07:54:47			0	42949	0	0	0	29929	28550	142919	27651	1052447	44477	111138	0	0	8390	368603	0	0
2024-07-13 07:55:47			0	42960	0	0	0	29927	28540	142859	27209	1052456	44476	111137	0	0	8390	368282	0	0
2024-07-13 07:56:47			0	42961	0	0	0	29929	28550	143035	27476	1052465	44477	111138	0	0	8390	368229	0	0
2024-07-13 07:57:47			0	42933	0	0	0	29924	28550	143079	27442	1052438	44477	111136	0	0	8389	369102	0	0
2024-07-13 07:58:47			0	42898	0	0	0	29903	28540	143047	27604	1052402	44476	111128	0	0	8387	370216	0	0
2024-07-13 07:59:47			0	42872	0	0	0	29890	28550	143171	27828	1052384	44477	111123	0	0	8386	371007	0	0
2024-07-13 08:00:47			0	42885	0	0	0	29877	28520	143271	27067	1052232	44452	111118	0	0	8386	370665	0	0
2024-07-13 08:01:47			0	42854	0	0	0	29862	28520	143147	27369	1052313	44462	111112	0	0	8385	371635	0	0
2024-07-13 08:02:47			0	42825	0	0	0	29846	28520	143363	27225	1052205	44474	111106	0	0	8383	372542	0	0
2024-07-13 08:03:47			0	42807	0	0	0	29828	28510	143395	27114	1052106	44461	111099	0	0	8383	373128	0	0
2024-07-13 08:04:47			0	42774	0	0	0	29794	28510	143419	27253	1052044	44451	111086	0	0	8381	374163	0	0
2024-07-13 08:05:47			0	42739	0	0	0	29771	28500	143647	27602	1052008	44450	111077	0	0	8380	375284	0	0
2024-07-13 08:06:47			0	42727	0	0	0	29750	28480	143671	27204	1051856	44447	111069	0	0	8379	375705	0	0
2024-07-13 08:07:47			0	42680	0	0	0	29719	28470	143714	27161	1051838	44446	111057	0	0	8377	377206	0	0
2024-07-13 08:08:47			0	42652	0	0	0	29693	28440	143874	27208	1051650	44421	111047	0	0	8375	378154	0	0
2024-07-13 08:09:47			0	42600	0	0	0	29685	28440	144010	27429	1051677	44432	111044	0	0	8373	379796	0	0
2024-07-13 08:10:47			0	42596	0	0	0	29761	28440	144138	27187	1051839	44465	111073	0	0	8371	379923	0	0
2024-07-13 08:11:47			0	42516	0	0	0	29781	28440	144226	27182	1051821	44456	111081	0	0	8366	382455	0	0
2024-07-13 08:12:47			0	42500	0	0	0	29724	28430	144390	27150	1051615	44442	111059	0	0	8366	382985	0	0
2024-07-13 08:13:47			0	42473	0	0	0	29688	28410	144530	26850	1051552	44429	111045	0	0	8365	383887	0	0
2024-07-13 08:14:47			0	42461	0	0	0	29683	28400	144598	27031	1051615	44439	111043	0	0	8364	384290	0	0
2024-07-13 08:15:47			0	42403	0	0	0	29709	28380	144798	27173	1051589	44459	111053	0	0	8360	386180	0	0
2024-07-13 08:16:47			0	42372	0	0	0	29727	28400	144854	26791	1051606	44439	111060	0	0	8358	387123	0	0
2024-07-13 08:17:47			0	42343	0	0	0	29716	28400	144930	27156	1051561	44439	111056	0	0	8357	388049	0	0
2024-07-13 08:18:47			0	42312	0	0	0	29701	28380	145082	27190	1051499	44438	111050	0	0	8355	389084	0	0
2024-07-13 08:19:47			0	42301	0	0	0	29706	28380	145178	27315	1051562	44449	111052	0	0	8354	389436	0	0
2024-07-13 08:20:47			0	42263	0	0	0	29724	28370	145194	27331	1051544	44449	111059	0	0	8352	390674	0	0
2024-07-13 08:21:47			0	42245	0	0	0	29763	28400	145342	27187	1051714	44461	111074	0	0	8350	391183	0	0
2024-07-13 08:22:47			0	42226	0	0	0	29779	28390	145350	27104	1051732	44483	111080	0	0	8349	391815	0	0
2024-07-13 08:23:47			0	42193	0	0	0	29781	28390	145498	26996	1051759	44472	111081	0	0	8347	392874	0	0
2024-07-13 08:24:47			0	42181	0	0	0	29794	28410	145466	27256	1051786	44484	111086	0	0	8346	393214	0	0
2024-07-13 08:25:47			0	42152	0	0	0	29815	28400	145530	27024	1051831	44473	111094	0	0	8344	394169	0	0
2024-07-13 08:26:47			0	42147	0	0	0	29828	28420	145630	27242	1051840	44486	111099	0	0	8344	394284	0	0
2024-07-13 08:27:47			0	42145	0	0	0	29812	28420	145714	26918	1051858	44475	111093	0	0	8344	394348	0	0
2024-07-13 08:28:47			0	42114	0	0	0	29812	28420	145790	27123	1051840	44463	111093	0	0	8342	395346	0	0
2024-07-13 08:29:47			0	42085	0	0	0	29807	28420	145806	27071	1051831	44475	111091	0	0	8340	396280	0	0
2024-07-13 08:30:47			0	42058	0	0	0	29799	28430	145825	27268	1051848	44475	111088	0	0	8339	397128	0	0
2024-07-13 08:31:47			0	42074	0	0	0	29797	28430	145861	27322	1051767	44463	111087	0	0	8340	396612	0	0
2024-07-13 08:32:47			0	42056	0	0	0	29786	28420	146013	27229	1051750	44453	111083	0	0	8339	397216	0	0
2024-07-13 08:33:47			0	42020	0	0	0	29779	28420	146033	27145	1051750	44441	111080	0	0	8337	398379	0	0
2024-07-13 08:34:47			0	42021	0	0	0	29766	28410	146037	27234	1051687	44462	111075	0	0	8337	398369	0	0
2024-07-13 08:35:47			0	42012	0	0	0	29761	28410	146085	27121	1051651	44461	111073	0	0	8337	398660	0	0
2024-07-13 08:36:47			0	42021	0	0	0	29737	28400	146201	27263	1051615	44451	111064	0	0	8338	398392	0	0
2024-07-13 08:37:47			0	42003	0	0	0	29740	28400	146149	27133	1051579	44451	111065	0	0	8337	398974	0	0
2024-07-13 08:38:47			0	41974	0	0	0	29724	28380	146205	27081	1051553	44449	111059	0	0	8335	399959	0	0
2024-07-13 08:39:47			0	41973	0	0	0	29716	28370	146173	27097	1051508	44459	111056	0	0	8335	400015	0	0
2024-07-13 08:40:47			0	41951	0	0	0	29693	28370	146225	26967	1051490	44438	111047	0	0	8334	400728	0	0
2024-07-13 08:41:47			0	41947	0	0	0	29675	28360	146265	27060	1051419	44458	111040	0	0	8334	400880	0	0
2024-07-13 08:42:47			0	41941	0	0	0	29670	28350	146237	27265	1051401	44435	111038	0	0	8334	401098	0	0
2024-07-13 08:43:47			0	41931	0	0	0	29685	28350	146341	27138	1051392	44446	111044	0	0	8333	401423	0	0
2024-07-13 08:44:47			0	41902	0	0	0	29701	28350	146385	26996	1051428	44458	111050	0	0	8331	402364	0	0
2024-07-13 08:45:47			0	41905	0	0	0	29540	28340	146465	27209	1051186	44411	110988	0	0	8334	402290	0	0
2024-07-13 08:46:47			0	41910	0	0	0	29503	28320	146357	27000	1050935	44398	110974	0	0	8335	402174	0	0
2024-07-13 08:47:47			0	41891	0	0	0	29677	28290	146505	27319	1051026	44418	111041	0	0	8331	402861	0	0
2024-07-13 08:48:47			0	41868	0	0	0	29711	28300	146613	27157	1051223	44452	111054	0	0	8329	403586	0	0
2024-07-13 08:49:47			0	41838	0	0	0	29792	28320	146717	27249	1051447	44487	111085	0	0	8326	404516	0	0
2024-07-13 08:50:47			0	41815	0	0	0	29740	28330	146833	26883	1051527	44478	111065	0	0	8325	405242	0	0
2024-07-13 08:51:47			0	41808	0	0	0	29735	28340	146877	27036	1051545	44490	111063	0	0	8325	405446	0	0
2024-07-13 08:52:47			0	41788	0	0	0	29714	28350	146857	27272	1051482	44468	111055	0	0	8324	406075	0	0
2024-07-13 08:53:47			0	41759	0	0	0	29722	28350	146985	27204	1051563	44458	111058	0	0	8323	407022	0	0
2024-07-13 08:54:47			0	41751	0	0	0	29745	28350	146945	27253	1051482	44468	111067	0	0	8322	407283	0	0
2024-07-13 08:55:47			0	41741	0	0	0	29740	28360	147013	27357	1051518	44446	111065	0	0	8321	407587	0	0
2024-07-13 08:56:47			0	41717	0	0	0	29758	28350	147065	27079	1051527	44468	111072	0	0	8320	408395	0	0
2024-07-13 08:57:47			0	41715	0	0	0	29761	28360	147193	27119	1051544	44458	111073	0	0	8319	408437	0	0
2024-07-13 08:58:47			0	41721	0	0	0	29755	28350	147149	27187	1051554	44458	111071	0	0	8320	408264	0	0
2024-07-13 08:59:47			0	41685	0	0	0	29748	28350	147217	27360	1051482	44468	111068	0	0	8318	409443	0	0
2024-07-13 09:00:47			0	41687	0	0	0	29761	28360	147125	27149	1051571	44458	111073	0	0	8318	409353	0	0
2024-07-13 09:01:47			0	41676	0	0	0	29740	28350	147173	27289	1051590	44458	111065	0	0	8317	409738	0	0
2024-07-13 09:02:47			0	41661	0	0	0	29745	28360	147245	27185	1051544	44458	111067	0	0	8317	410205	0	0
2024-07-13 09:03:47			0	41670	0	0	0	29709	28350	147245	27062	1051455	44458	111053	0	0	8318	409934	0	0
2024-07-13 09:04:47			0	41659	0	0	0	29683	28360	147265	27225	1051464	44446	111043	0	0	8317	410271	0	0
2024-07-13 09:05:47			0	41632	0	0	0	29641	28350	147357	27215	1051482	44458	111027	0	0	8317	411181	0	0
2024-07-13 09:06:47			0	41659	0	0	0	29636	28350	147353	27029	1051419	44446	111025	0	0	8318	410295	0	0
2024-07-13 09:07:47			0	41617	0	0	0	29620	28340	147421	27199	1051329	44445	111019	0	0	8316	411697	0	0
2024-07-13 09:08:47			0	41616	0	0	0	29573	28330	147461	27071	1051258	44456	111001	0	0	8317	411754	0	0
2024-07-13 09:09:47			0	41613	0	0	0	29532	28310	147425	27336	1051142	44409	110985	0	0	8317	411900	0	0
2024-07-13 09:10:47			0	41583	0	0	0	29493	28310	147501	27178	1050998	44431	110970	0	0	8316	412886	0	0
2024-07-13 09:11:47			0	41589	0	0	0	29535	28280	147469	26684	1050927	44428	110986	0	0	8316	412760	0	0
2024-07-13 09:12:47			0	41576	0	0	0	29594	28280	147637	27197	1051008	44440	111009	0	0	8314	413188	0	0
2024-07-13 09:13:47			0	41559	0	0	0	29584	28270	147713	26739	1051017	44438	111005	0	0	8313	413772	0	0
2024-07-13 09:14:47			0	41558	0	0	0	29625	28270	147665	27154	1051044	44426	111021	0	0	8312	413805	0	0
2024-07-13 09:15:47			0	41536	0	0	0	29667	28270	147789	27046	1051143	44449	111037	0	0	8310	414530	0	0
2024-07-13 09:16:47			0	41537	0	0	0	29672	28280	147861	26899	1051223	44461	111039	0	0	8310	414473	0	0
2024-07-13 09:17:47			0	41518	0	0	0	29659	28290	147985	27001	1051205	44473	111034	0	0	8309	415075	0	0
2024-07-13 09:18:47			0	41503	0	0	0	29615	28290	147833	27069	1051151	44451	111017	0	0	8309	415570	0	0
2024-07-13 09:19:47			0	41515	0	0	0	29394	28280	147873	27118	1050819	44417	110932	0	0	8314	415198	0	0
2024-07-13 09:20:47			0	41529	0	0	0	29262	28230	147713	27090	1050326	44356	110881	0	0	8317	414856	0	0
2024-07-13 09:21:47			0	41520	0	0	0	29405	28180	147813	26870	1050238	44374	110936	0	0	8313	415273	0	0
2024-07-13 09:22:47			0	41496	0	0	0	29537	28180	147973	27258	1050445	44429	110987	0	0	8310	416066	0	0
2024-07-13 09:23:47			0	41479	0	0	0	29561	28180	148113	27000	1050606	44440	110996	0	0	8308	416627	0	0
2024-07-13 09:24:47			0	41478	0	0	0	29548	28180	148077	27194	1050606	44452	110991	0	0	8309	416660	0	0
2024-07-13 09:25:47			0	41442	0	0	0	29555	28200	148109	26916	1050642	44454	110994	0	0	8306	417803	0	0
2024-07-13 09:26:47			0	41469	0	0	0	29579	28180	148241	26790	1050669	44452	111003	0	0	8308	416958	0	0
2024-07-13 09:27:47			0	41443	0	0	0	29605	28200	148237	27055	1050776	44454	111013	0	0	8306	417770	0	0
2024-07-13 09:28:47			0	41438	0	0	0	29586	28210	148281	26812	1050767	44465	111006	0	0	8306	417911	0	0
2024-07-13 09:29:47			0	41388	0	0	0	29605	28200	148308	26904	1050776	44464	111013	0	0	8303	419592	0	0
2024-07-13 09:30:47			0	41407	0	0	0	29623	28200	148424	27147	1050839	44454	111020	0	0	8303	418962	0	0
2024-07-13 09:31:47			0	41407	0	0	0	29594	28220	148272	26868	1050838	44456	111009	0	0	8304	418914	0	0
2024-07-13 09:32:47			0	41411	0	0	0	29597	28220	148312	27066	1050731	44444	111010	0	0	8304	418782	0	0
2024-07-13 09:33:47			0	41389	0	0	0	29620	28220	148340	27104	1050865	44444	111019	0	0	8302	419511	0	0
2024-07-13 09:34:47			0	41389	0	0	0	29615	28220	148404	27098	1050901	44456	111017	0	0	8302	419511	0	0
2024-07-13 09:35:47			0	41378	0	0	0	29581	28230	148340	26897	1050883	44457	111004	0	0	8302	419852	0	0
2024-07-13 09:36:47			0	41373	0	0	0	29623	28230	148396	27031	1050991	44457	111020	0	0	8301	420017	0	0
2024-07-13 09:37:47			0	41356	0	0	0	29618	28220	148368	27239	1050892	44456	111018	0	0	8301	420606	0	0
2024-07-13 09:38:47			0	41368	0	0	0	29641	28230	148452	27052	1050964	44467	111027	0	0	8301	420183	0	0
2024-07-13 09:39:47			0	41337	0	0	0	29612	28230	148496	26880	1050991	44457	111016	0	0	8300	421213	0	0
2024-07-13 09:40:47			0	41329	0	0	0	29628	28240	148568	27296	1050883	44458	111022	0	0	8299	421455	0	0
2024-07-13 09:41:47			0	41353	0	0	0	29680	28240	148548	27282	1050982	44458	111042	0	0	8299	420657	0	0
2024-07-13 09:42:47			0	41328	0	0	0	29662	28240	148572	27147	1050990	44458	111035	0	0	8298	421488	0	0
2024-07-13 09:43:47			0	41337	0	0	0	29667	28250	148540	27352	1051062	44458	111037	0	0	8299	421164	0	0
2024-07-13 09:44:47			0	41319	0	0	0	29667	28250	148696	26854	1051035	44469	111037	0	0	8298	421763	0	0
2024-07-13 09:45:47			0	41315	0	0	0	29664	28260	148560	27149	1051125	44470	111036	0	0	8298	421871	0	0
2024-07-13 09:46:47			0	41317	0	0	0	29597	28260	148600	27140	1050999	44459	111010	0	0	8299	421805	0	0
2024-07-13 09:47:47			0	41312	0	0	0	29638	28250	148672	27367	1051089	44458	111026	0	0	8298	421996	0	0
2024-07-13 09:48:47			0	41322	0	0	0	29670	28260	148640	27017	1051044	44448	111038	0	0	8298	421639	0	0
2024-07-13 09:49:47			0	41317	0	0	0	29675	28260	148676	26847	1051106	44459	111040	0	0	8298	421805	0	0
2024-07-13 09:50:47			0	41297	0	0	0	29654	28280	148652	27332	1051107	44472	111032	0	0	8297	422421	0	0
2024-07-13 09:51:47			0	41318	0	0	0	29571	28270	148644	27019	1051008	44449	111000	0	0	8299	421747	0	0
2024-07-13 09:52:47			0	41318	0	0	0	29576	28260	148632	27033	1050963	44425	111002	0	0	8299	421772	0	0
2024-07-13 09:53:47			0	41313	0	0	0	29631	28250	148640	27196	1050981	44447	111023	0	0	8298	421962	0	0
2024-07-13 09:54:47			0	41313	0	0	0	29558	28260	148792	26984	1050990	44470	110995	0	0	8299	421938	0	0
2024-07-13 09:55:47			0	41306	0	0	0	29566	28250	148656	27211	1051035	44458	110998	0	0	8299	422195	0	0
2024-07-13 09:56:47			0	41295	0	0	0	29563	28250	148692	27199	1051008	44458	110997	0	0	8298	422561	0	0
2024-07-13 09:57:47			0	41290	0	0	0	29514	28260	148760	27249	1050963	44458	110978	0	0	8299	422703	0	0
2024-07-13 09:58:47			0	41282	0	0	0	29527	28250	148736	27307	1050927	44436	110983	0	0	8298	422994	0	0
2024-07-13 09:59:47			0	41266	0	0	0	29667	28250	148824	27097	1051035	44436	111037	0	0	8295	423527	0	0
2024-07-13 10:00:47			0	41259	0	0	0	29540	28250	148872	27230	1050900	44447	110988	0	0	8296	423760	0	0
2024-07-13 10:01:47			0	41244	0	0	0	29511	28240	148912	27287	1050883	44414	110977	0	0	8296	424285	0	0
2024-07-13 10:02:47			0	41254	0	0	0	29490	28230	148816	27204	1050802	44422	110969	0	0	8297	423976	0	0
2024-07-13 10:03:47			0	41234	0	0	0	29511	28220	148852	27057	1050740	44421	110977	0	0	8295	424668	0	0
2024-07-13 10:04:47			0	41248	0	0	0	29561	28220	148928	27286	1050677	44433	110996	0	0	8295	424201	0	0
2024-07-13 10:05:47			0	41222	0	0	0	29602	28220	149056	27131	1050901	44444	111012	0	0	8293	425068	0	0
2024-07-13 10:06:47			0	41232	0	0	0	29641	28220	149048	26873	1050892	44433	111027	0	0	8293	424735	0	0
2024-07-13 10:07:47			0	41207	0	0	0	29662	28230	149060	27176	1050964	44478	111035	0	0	8291	425545	0	0
2024-07-13 10:08:47			0	41205	0	0	0	29657	28240	149008	27374	1051017	44458	111033	0	0	8291	425587	0	0
2024-07-13 10:09:47			0	41214	0	0	0	29633	28240	149248	27171	1050963	44447	111024	0	0	8292	425286	0	0
2024-07-13 10:10:47			0	41194	0	0	0	29657	28240	149064	27440	1051017	44458	111033	0	0	8291	425954	0	0
2024-07-13 10:11:47			0	41212	0	0	0	29672	28250	149200	27088	1051035	44469	111039	0	0	8292	425329	0	0
2024-07-13 10:12:47			0	41206	0	0	0	29659	28250	148884	27426	1051026	44458	111034	0	0	8291	425529	0	0
2024-07-13 10:13:47			0	41208	0	0	0	29654	28260	149056	27222	1051053	44449	111032	0	0	8292	425438	0	0
2024-07-13 10:14:47			0	41210	0	0	0	29677	28250	149040	27315	1051143	44458	111041	0	0	8291	425396	0	0
2024-07-13 10:15:47			0	41219	0	0	0	29688	28260	148856	27614	1051178	44470	111045	0	0	8292	425070	0	0
2024-07-13 10:16:47			0	41210	0	0	0	29688	28260	149000	27251	1051187	44459	111045	0	0	8291	425371	0	0
2024-07-13 10:17:47			0	41189	0	0	0	29685	28270	149012	27234	1051232	44438	111044	0	0	8290	426048	0	0
2024-07-13 10:18:47			0	41198	0	0	0	29662	28280	149004	27176	1051196	44473	111035	0	0	8291	425723	0	0
2024-07-13 10:19:47			0	41208	0	0	0	29662	28280	149036	27251	1051169	44461	111035	0	0	8292	425388	0	0
2024-07-13 10:20:47			0	41206	0	0	0	29664	28280	148916	27327	1051196	44461	111036	0	0	8291	425455	0	0
2024-07-13 10:21:47			0	41217	0	0	0	29670	28280	149004	27244	1051223	44451	111038	0	0	8292	425088	0	0
2024-07-13 10:22:47			0	41215	0	0	0	29672	28280	148984	27493	1051169	44451	111039	0	0	8292	425155	0	0
2024-07-13 10:23:47			0	41225	0	0	0	29677	28290	148936	27124	1051241	44462	111041	0	0	8292	424796	0	0
2024-07-13 10:24:47			0	41222	0	0	0	29706	28300	148916	27093	1051304	44462	111052	0	0	8292	424872	0	0
2024-07-13 10:25:47			0	41219	0	0	0	29714	28300	148812	26882	1051339	44463	111055	0	0	8291	424972	0	0
2024-07-13 10:26:47			0	41220	0	0	0	29716	28320	148732	26864	1051393	44476	111056	0	0	8292	424890	0	0
2024-07-13 10:27:47			0	41225	0	0	0	29740	28320	148840	27281	1051420	44464	111065	0	0	8291	424723	0	0
2024-07-13 10:28:47			0	41218	0	0	0	29771	28330	148892	27265	1051518	44466	111077	0	0	8291	424932	0	0
2024-07-13 10:29:47			0	41212	0	0	0	29794	28340	148916	27104	1051590	44478	111086	0	0	8290	425107	0	0
2024-07-13 10:30:47			0	41204	0	0	0	29820	28350	148884	27227	1051616	44479	111096	0	0	8289	425350	0	0
2024-07-13 10:31:47			0	41201	0	0	0	29862	28360	148904	27254	1051787	44513	111112	0	0	8288	425426	0	0
2024-07-13 10:32:47			0	41196	0	0	0	29898	28380	148900	27341	1051885	44504	111126	0	0	8287	425543	0	0
2024-07-13 10:33:47			0	41184	0	0	0	29914	28410	148944	27286	1052037	44530	111132	0	0	8286	425870	0	0
2024-07-13 10:34:47			0	41181	0	0	0	29919	28410	149020	27362	1052064	44497	111134	0	0	8286	425970	0	0
2024-07-13 10:35:47			0	41164	0	0	0	29914	28440	149032	26920	1052135	44488	111132	0	0	8285	426465	0	0
2024-07-13 10:36:47			0	41169	0	0	0	29919	28440	148996	27339	1052225	44500	111134	0	0	8286	426298	0	0
2024-07-13 10:37:47			0	41147	0	0	0	29937	28450	149012	27081	1052234	44500	111141	0	0	8284	427008	0	0
2024-07-13 10:38:47			0	41155	0	0	0	29937	28460	149104	27022	1052341	44501	111141	0	0	8285	426716	0	0
2024-07-13 10:39:47			0	41128	0	0	0	29945	28470	149068	26934	1052359	44479	111144	0	0	8283	427595	0	0
2024-07-13 10:40:47			0	41131	0	0	0	29940	28480	149036	27057	1052323	44503	111142	0	0	8283	427469	0	0
2024-07-13 10:41:47			0	41135	0	0	0	29929	28490	149064	27260	1052385	44493	111138	0	0	8284	427311	0	0
2024-07-13 10:42:47			0	41129	0	0	0	29935	28500	149148	27128	1052457	44494	111140	0	0	8283	427487	0	0
2024-07-13 10:43:47			0	41114	0	0	0	29935	28500	149084	27083	1052376	44482	111140	0	0	8283	427989	0	0
2024-07-13 10:44:47			0	41125	0	0	0	29929	28500	149108	27235	1052376	44494	111138	0	0	8283	427621	0	0
2024-07-13 10:45:47			0	41118	0	0	0	29932	28500	149068	27166	1052403	44482	111139	0	0	8283	427855	0	0
2024-07-13 10:46:47			0	41098	0	0	0	29935	28510	149132	27308	1052403	44506	111140	0	0	8282	428500	0	0
2024-07-13 10:47:47			0	41113	0	0	0	29935	28510	149108	27345	1052340	44496	111140	0	0	8282	427998	0	0
2024-07-13 10:48:47			0	41122	0	0	0	29937	28500	149008	27227	1052466	44483	111141	0	0	8283	427721	0	0
2024-07-13 10:49:47			0	41100	0	0	0	29948	28510	149092	27192	1052430	44484	111145	0	0	8282	428433	0	0
2024-07-13 10:50:47			0	41099	0	0	0	29940	28520	149060	27145	1052447	44485	111142	0	0	8282	428442	0	0
2024-07-13 10:51:47			0	41114	0	0	0	29942	28520	149120	27060	1052466	44484	111143	0	0	8282	427939	0	0
2024-07-13 10:52:47			0	41137	0	0	0	29950	28530	149068	27126	1052457	44498	111146	0	0	8284	427145	0	0
2024-07-13 10:53:47			0	41126	0	0	0	29968	28530	149136	27124	1052600	44498	111153	0	0	8283	427513	0	0
2024-07-13 10:54:47			0	41097	0	0	0	29971	28530	149064	26734	1052546	44498	111154	0	0	8281	428484	0	0
2024-07-13 10:55:47			0	41140	0	0	0	29968	28540	149144	26968	1052618	44499	111153	0	0	8284	427020	0	0
2024-07-13 10:56:47			0	41101	0	0	0	29992	28540	149144	27441	1052690	44486	111162	0	0	8281	428325	0	0
2024-07-13 10:57:47			0	41104	0	0	0	29997	28550	149096	27374	1052735	44488	111164	0	0	8281	428200	0	0
2024-07-13 10:58:47			0	41095	0	0	0	30023	28550	149104	27135	1052797	44500	111174	0	0	8280	428501	0	0
2024-07-13 10:59:47			0	41089	0	0	0	30038	28560	149276	27036	1052869	44511	111180	0	0	8280	428678	0	0
2024-07-13 11:00:47			0	41068	0	0	0	30067	28580	149228	27327	1052922	44513	111191	0	0	8278	429332	0	0
2024-07-13 11:01:47			0	41084	0	0	0	30075	28590	149272	26899	1053021	44525	111194	0	0	8279	428771	0	0
2024-07-13 11:02:47			0	41066	0	0	0	30088	28600	149348	27142	1053101	44526	111199	0	0	8278	429349	0	0
2024-07-13 11:03:47			0	41058	0	0	0	30080	28600	149348	26774	1053101	44503	111196	0	0	8277	429617	0	0
2024-07-13 11:04:47			0	41055	0	0	0	30088	28620	149300	26842	1053155	44505	111199	0	0	8277	429668	0	0
2024-07-13 11:05:47			0	41051	0	0	0	30109	28630	149344	27092	1053208	44530	111207	0	0	8277	429777	0	0
2024-07-13 11:06:47			0	41043	0	0	0	30106	28630	149296	27081	1053181	44497	111206	0	0	8276	430046	0	0
2024-07-13 11:07:47			0	41029	0	0	0	30116	28640	149392	27261	1053271	44507	111210	0	0	8275	430491	0	0
2024-07-13 11:08:47			0	41024	0	0	0	30124	28660	149252	27022	1053334	44520	111213	0	0	8275	430609	0	0
2024-07-13 11:09:47			0	41039	0	0	0	30135	28650	149352	27197	1053379	44509	111217	0	0	8275	430130	0	0
2024-07-13 11:10:47			0	41010	0	0	0	30145	28670	149388	27286	1053432	44510	111221	0	0	8274	431054	0	0
2024-07-13 11:11:47			0	40991	0	0	0	30150	28680	149368	27138	1053396	44535	111223	0	0	8273	431667	0	0
2024-07-13 11:12:47			0	41004	0	0	0	30142	28700	149356	27218	1053477	44524	111220	0	0	8274	431180	0	0
2024-07-13 11:13:47			0	41024	0	0	0	30135	28690	149376	27135	1053414	44513	111217	0	0	8275	430534	0	0
2024-07-13 11:14:47			0	41005	0	0	0	30137	28700	149352	27066	1053477	44513	111218	0	0	8274	431147	0	0
2024-07-13 11:15:47			0	41021	0	0	0	30148	28710	149360	27405	1053494	44514	111222	0	0	8274	430585	0	0
2024-07-13 11:16:47			0	41011	0	0	0	30150	28710	149332	26993	1053557	44515	111223	0	0	8274	430920	0	0
2024-07-13 11:17:47			0	41036	0	0	0	30161	28720	149288	27255	1053548	44527	111227	0	0	8275	430056	0	0
2024-07-13 11:18:47			0	41022	0	0	0	30168	28730	149304	26977	1053619	44528	111230	0	0	8274	430501	0	0
2024-07-13 11:19:47			0	41020	0	0	0	30184	28730	149312	27178	1053592	44540	111236	0	0	8274	430568	0	0
2024-07-13 11:20:47			0	41021	0	0	0	30176	28740	149296	26963	1053682	44540	111233	0	0	8274	430510	0	0
2024-07-13 11:21:47			0	41010	0	0	0	30189	28750	149244	27208	1053700	44518	111238	0	0	8273	430854	0	0
2024-07-13 11:22:47			0	41014	0	0	0	30202	28750	149216	27116	1053781	44529	111243	0	0	8273	430720	0	0
2024-07-13 11:23:47			0	41027	0	0	0	30210	28750	149192	27201	1053790	44519	111246	0	0	8274	430284	0	0
2024-07-13 11:24:47			0	41028	0	0	0	30202	28760	149248	27116	1053807	44531	111243	0	0	8274	430225	0	0
2024-07-13 11:25:47			0	41043	0	0	0	30210	28770	149176	26916	1053852	44532	111246	0	0	8275	429697	0	0
2024-07-13 11:26:47			0	41037	0	0	0	30225	28780	149232	27010	1053843	44533	111252	0	0	8274	429873	0	0
2024-07-13 11:27:47			0	41056	0	0	0	30233	28780	149148	27441	1053897	44521	111255	0	0	8275	429237	0	0
2024-07-13 11:28:47			0	41015	0	0	0	30246	28780	149180	27223	1053951	44533	111260	0	0	8273	430611	0	0
2024-07-13 11:29:47			0	41038	0	0	0	30246	28790	149148	27223	1054023	44534	111260	0	0	8274	429815	0	0
2024-07-13 11:30:47			0	41038	0	0	0	30254	28800	149252	27017	1054085	44535	111263	0	0	8274	429790	0	0
2024-07-13 11:31:47			0	41048	0	0	0	30270	28800	149200	27280	1054121	44535	111269	0	0	8274	429455	0	0
2024-07-13 11:32:47			0	41044	0	0	0	30264	28820	149240	27320	1054094	44537	111267	0	0	8274	429539	0	0
2024-07-13 11:33:47			0	41037	0	0	0	30267	28820	149196	27183	1054130	44526	111268	0	0	8274	429774	0	0
2024-07-13 11:34:47			0	41037	0	0	0	30277	28820	149180	27149	1054157	44526	111272	0	0	8274	429774	0	0
2024-07-13 11:35:47			0	41040	0	0	0	30272	28830	149176	26941	1054192	44538	111270	0	0	8274	429648	0	0
2024-07-13 11:36:47			0	41021	0	0	0	30288	28830	149272	27168	1054255	44538	111276	0	0	8273	430285	0	0
2024-07-13 11:37:47			0	41048	0	0	0	30301	28840	149256	26868	1054291	44539	111281	0	0	8274	429355	0	0
2024-07-13 11:38:47			0	41033	0	0	0	30306	28840	149136	27050	1054354	44550	111283	0	0	8273	429858	0	0
2024-07-13 11:39:47			0	41051	0	0	0	30306	28850	149176	26842	1054291	44540	111283	0	0	8274	429230	0	0
2024-07-13 11:40:47			0	41048	0	0	0	30306	28860	149100	27241	1054389	44530	111283	0	0	8274	429306	0	0
2024-07-13 11:41:47			0	41031	0	0	0	30306	28870	149004	27057	1054371	44541	111283	0	0	8273	429850	0	0
2024-07-13 11:42:47			0	41060	0	0	0	30314	28870	149096	27173	1054452	44530	111286	0	0	8275	428879	0	0
2024-07-13 11:43:47			0	41055	0	0	0	30322	28870	149020	27156	1054452	44541	111289	0	0	8274	429046	0	0
2024-07-13 11:44:47			0	41052	0	0	0	30319	28870	148992	27170	1054434	44541	111288	0	0	8274	429147	0	0
2024-07-13 11:45:47			0	41057	0	0	0	30332	28890	148980	27079	1054497	44533	111293	0	0	8274	428929	0	0
2024-07-13 11:46:47			0	41055	0	0	0	30324	28880	148992	27227	1054479	44542	111290	0	0	8274	429021	0	0
2024-07-13 11:47:47			0	41053	0	0	0	30332	28880	149072	27460	1054533	44532	111293	0	0	8274	429088	0	0
2024-07-13 11:48:47			0	41076	0	0	0	30340	28900	149024	27294	1054533	44543	111296	0	0	8275	428269	0	0
2024-07-13 11:49:47			0	41077	0	0	0	30337	28900	148984	27034	1054587	44543	111295	0	0	8275	428235	0	0
2024-07-13 11:50:47			0	41074	0	0	0	30350	28900	148988	27199	1054542	44522	111300	0	0	8275	428336	0	0
2024-07-13 11:51:47			0	41085	0	0	0	30358	28910	149000	27137	1054631	44535	111303	0	0	8275	427943	0	0
2024-07-13 11:52:47			0	41089	0	0	0	30345	28920	149012	27066	1054649	44535	111298	0	0	8276	427784	0	0
2024-07-13 11:53:47			0	41084	0	0	0	30350	28910	148872	27034	1054613	44545	111300	0	0	8276	427976	0	0
2024-07-13 11:54:47			0	41094	0	0	0	30358	28920	148920	27055	1054631	44536	111303	0	0	8276	427617	0	0
2024-07-13 11:55:47			0	41090	0	0	0	30345	28920	148932	27197	1054649	44545	111298	0	0	8276	427751	0	0
2024-07-13 11:56:47			0	41116	0	0	0	30340	28920	148880	27206	1054712	44536	111296	0	0	8278	426882	0	0
2024-07-13 11:57:47			0	41120	0	0	0	30348	28920	148804	26901	1054712	44546	111299	0	0	8278	426749	0	0
2024-07-13 11:58:47			0	41106	0	0	0	30373	28920	148828	27258	1054649	44545	111309	0	0	8276	427216	0	0
2024-07-13 11:59:47			0	41128	0	0	0	30361	28920	148804	27227	1054730	44535	111304	0	0	8278	426482	0	0
2024-07-13 12:00:47			0	41127	0	0	0	30350	28930	148808	27190	1054703	44547	111300	0	0	8278	426490	0	0
2024-07-13 12:01:47			0	41139	0	0	0	30345	28930	148780	27178	1054694	44537	111298	0	0	8279	426090	0	0
2024-07-13 12:02:47			0	41135	0	0	0	30353	28930	148800	27358	1054783	44537	111301	0	0	8278	426223	0	0
2024-07-13 12:03:47			0	41145	0	0	0	30353	28950	148824	27190	1054702	44549	111301	0	0	8279	425840	0	0
2024-07-13 12:04:47			0	41136	0	0	0	30348	28930	148752	27371	1054721	44547	111299	0	0	8279	426190	0	0
2024-07-13 12:05:47			0	41156	0	0	0	30353	28930	148740	26974	1054649	44537	111301	0	0	8280	425523	0	0
2024-07-13 12:06:47			0	41152	0	0	0	30368	28940	148692	27291	1054693	44538	111307	0	0	8279	425632	0	0
2024-07-13 12:07:47			0	41168	0	0	0	30348	28930	148652	27313	1054694	44537	111299	0	0	8280	425123	0	0
2024-07-13 12:08:47			0	41183	0	0	0	30348	28940	148592	26987	1054720	44538	111299	0	0	8281	424599	0	0
2024-07-13 12:09:47			0	41174	0	0	0	30350	28940	148520	27199	1054666	44538	111300	0	0	8281	424898	0	0
2024-07-13 12:10:47			0	41173	0	0	0	30350	28930	148548	27291	1054676	44537	111300	0	0	8281	424956	0	0
2024-07-13 12:11:47			0	41206	0	0	0	30350	28950	148488	26755	1054756	44539	111300	0	0	8283	423808	0	0
2024-07-13 12:12:47			0	41203	0	0	0	30348	28950	148560	27005	1054756	44539	111299	0	0	8283	423908	0	0
2024-07-13 12:13:47			0	41209	0	0	0	30361	28950	148548	27190	1054729	44539	111304	0	0	8283	423709	0	0
2024-07-13 12:14:47			0	41207	0	0	0	30358	28950	148452	27105	1054846	44540	111303	0	0	8283	423775	0	0
2024-07-13 12:15:47			0	41216	0	0	0	30363	28950	148500	27059	1054810	44539	111305	0	0	8283	423476	0	0
2024-07-13 12:16:47			0	41219	0	0	0	30371	28950	148416	26889	1054729	44549	111308	0	0	8283	423376	0	0
2024-07-13 12:17:47			0	41224	0	0	0	30353	28950	148348	26817	1054738	44540	111301	0	0	8284	423210	0	0
2024-07-13 12:18:47			0	41240	0	0	0	30379	28960	148416	27137	1054801	44540	111311	0	0	8284	422653	0	0
2024-07-13 12:19:47			0	41224	0	0	0	30392	28950	148408	27131	1054873	44550	111316	0	0	8283	423210	0	0
2024-07-13 12:20:47			0	41240	0	0	0	30431	28970	148396	27230	1054918	44561	111331	0	0	8283	422629	0	0
2024-07-13 12:21:47			0	41248	0	0	0	30446	28980	148328	26972	1054962	44552	111337	0	0	8284	422339	0	0
2024-07-13 12:22:47			0	41236	0	0	0	30438	28990	148248	27173	1055007	44563	111334	0	0	8283	422713	0	0
2024-07-13 12:23:47			0	41223	0	0	0	30433	28990	148324	27156	1055061	44563	111332	0	0	8282	423145	0	0
2024-07-13 12:24:47			0	41253	0	0	0	30441	29000	148248	26814	1055061	44565	111335	0	0	8284	422124	0	0
2024-07-13 12:25:47			0	41249	0	0	0	30472	29000	148280	27199	1055141	44577	111347	0	0	8283	422257	0	0
2024-07-13 12:26:47			0	41240	0	0	0	30493	29020	148316	27142	1055168	44556	111355	0	0	8282	422506	0	0
2024-07-13 12:27:47			0	41241	0	0	0	30509	29030	148228	27213	1055321	44580	111361	0	0	8282	422449	0	0
2024-07-13 12:28:47			0	41242	0	0	0	30586	29040	148372	26928	1055482	44581	111391	0	0	8281	422391	0	0
2024-07-13 12:29:47			0	41247	0	0	0	30599	29060	148272	27086	1055572	44594	111396	0	0	8281	422176	0	0
2024-07-13 12:30:47			0	41242	0	0	0	30610	29080	148212	27144	1055706	44595	111400	0	0	8281	422293	0	0
2024-07-13 12:31:47			0	41249	0	0	0	30610	29090	148208	27203	1055751	44597	111400	0	0	8281	422036	0	0
2024-07-13 12:32:47			0	41235	0	0	0	30607	29100	148148	26840	1055778	44586	111399	0	0	8281	422476	0	0
2024-07-13 12:33:47			0	41243	0	0	0	30599	29120	148104	27064	1055804	44577	111396	0	0	8281	422162	0	0
2024-07-13 12:34:47			0	41262	0	0	0	30566	29130	148088	26800	1055741	44589	111383	0	0	8283	421507	0	0
2024-07-13 12:35:47			0	41251	0	0	0	30602	29130	147984	26689	1055822	44567	111397	0	0	8282	421872	0	0
2024-07-13 12:36:47			0	41255	0	0	0	30638	29130	147996	27121	1055885	44579	111411	0	0	8281	421739	0	0
2024-07-13 12:37:47			0	41238	0	0	0	30644	29150	148116	27008	1055966	44569	111413	0	0	8280	422254	0	0
2024-07-13 12:38:47			0	41234	0	0	0	30675	29160	148100	27059	1056046	44582	111425	0	0	8280	422362	0	0
2024-07-13 12:39:47			0	41256	0	0	0	30701	29180	148084	27164	1056181	44583	111435	0	0	8281	421583	0	0
2024-07-13 12:40:47			0	41253	0	0	0	30701	29190	148080	27152	1056252	44562	111435	0	0	8280	421659	0	0
2024-07-13 12:41:47			0	41221	0	0	0	30706	29200	148184	26984	1056270	44574	111437	0	0	8279	422696	0	0
2024-07-13 12:42:47			0	41213	0	0	0	30706	29210	148192	27185	1056315	44575	111437	0	0	8278	422937	0	0
2024-07-13 12:43:47			0	41225	0	0	0	30703	29220	148184	26968	1056306	44586	111436	0	0	8279	422514	0	0
2024-07-13 12:44:47			0	41197	0	0	0	30688	29220	148276	26804	1056341	44587	111430	0	0	8278	423444	0	0
2024-07-13 12:45:47			0	41204	0	0	0	30716	29240	148280	26941	1056422	44588	111441	0	0	8278	423162	0	0
2024-07-13 12:46:47			0	41191	0	0	0	30719	29240	148232	26889	1056458	44601	111442	0	0	8277	423594	0	0
2024-07-13 12:47:47			0	41184	0	0	0	30693	29250	148308	27001	1056467	44579	111432	0	0	8277	423802	0	0
2024-07-13 12:48:47			0	41153	0	0	0	30662	29260	148352	27039	1056458	44568	111420	0	0	8276	424808	0	0
2024-07-13 12:49:47			0	41141	0	0	0	30677	29260	148316	26868	1056484	44568	111426	0	0	8275	425208	0	0
2024-07-13 12:50:47			0	41118	0	0	0	30654	29270	148364	26779	1056412	44569	111417	0	0	8274	425949	0	0
2024-07-13 12:51:47			0	41127	0	0	0	30612	29250	148264	27027	1056341	44568	111401	0	0	8275	425699	0	0
2024-07-13 12:52:47			0	41123	0	0	0	30576	29240	148380	26998	1056215	44567	111387	0	0	8275	425857	0	0
2024-07-13 12:53:47			0	41105	0	0	0	30555	29230	148252	26854	1056116	44543	111379	0	0	8275	426482	0	0
2024-07-13 12:54:47			0	41100	0	0	0	30524	29220	148344	27242	1056072	44554	111367	0	0	8275	426673	0	0
2024-07-13 12:55:47			0	41101	0	0	0	30433	29210	148416	26958	1055838	44541	111332	0	0	8276	426665	0	0
2024-07-13 12:56:47			0	41080	0	0	0	30420	29180	148528	27138	1055704	44539	111327	0	0	8275	427440	0	0
2024-07-13 12:57:47			0	41066	0	0	0	30462	29170	148436	27104	1055704	44526	111343	0	0	8274	427932	0	0
2024-07-13 12:58:47			0	41062	0	0	0	30503	29160	148528	27085	1055687	44559	111359	0	0	8273	428091	0	0
2024-07-13 12:59:47			0	41067	0	0	0	30477	29160	148624	27208	1055714	44559	111349	0	0	8273	427924	0	0
2024-07-13 13:00:47			0	41051	0	0	0	30444	29160	148588	27008	1055714	44559	111336	0	0	8273	428459	0	0
2024-07-13 13:01:47			0	41062	0	0	0	30602	29150	148684	26970	1055777	44569	111397	0	0	8271	428116	0	0
2024-07-13 13:02:47			0	41030	0	0	0	30524	29160	148684	27182	1055911	44570	111367	0	0	8271	429161	0	0
2024-07-13 13:03:47			0	41051	0	0	0	30498	29160	148644	26965	1055768	44547	111357	0	0	8272	428459	0	0
2024-07-13 13:04:47			0	41058	0	0	0	30532	29160	148624	26771	1055795	44537	111370	0	0	8272	428225	0	0
2024-07-13 13:05:47			0	41034	0	0	0	30553	29160	148792	26835	1055803	44559	111378	0	0	8270	429027	0	0
2024-07-13 13:06:47			0	41039	0	0	0	30584	29160	148780	27144	1055857	44570	111390	0	0	8270	428860	0	0
2024-07-13 13:07:47			0	41014	0	0	0	30589	29170	148772	27203	1055920	44560	111392	0	0	8269	429672	0	0
2024-07-13 13:08:47			0	41040	0	0	0	30561	29170	148772	27268	1055893	44560	111381	0	0	8271	428802	0	0
2024-07-13 13:09:47			0	41026	0	0	0	30581	29160	148748	27003	1055911	44570	111389	0	0	8269	429295	0	0
2024-07-13 13:10:47			0	41019	0	0	0	30599	29160	148856	27241	1055938	44570	111396	0	0	8269	429529	0	0
2024-07-13 13:11:47			0	41009	0	0	0	30592	29180	148716	27178	1055965	44583	111393	0	0	8268	429814	0	0
2024-07-13 13:12:47			0	41028	0	0	0	30605	29180	148748	27039	1056028	44561	111398	0	0	8269	429178	0	0
2024-07-13 13:13:47			0	41016	0	0	0	30620	29180	148848	27005	1056100	44572	111404	0	0	8268	429580	0	0
2024-07-13 13:14:47			0	41008	0	0	0	30623	29190	148820	26977	1056099	44584	111405	0	0	8268	429823	0	0
2024-07-13 13:15:47			0	41009	0	0	0	30631	29180	148820	26868	1056082	44583	111408	0	0	8268	429814	0	0
2024-07-13 13:16:47			0	40996	0	0	0	30615	29190	148932	27646	1056126	44584	111402	0	0	8267	430225	0	0
2024-07-13 13:17:47			0	41010	0	0	0	30612	29200	148796	27069	1056135	44563	111401	0	0	8268	429731	0	0
2024-07-13 13:18:47			0	41008	0	0	0	30628	29200	148904	27020	1056108	44584	111407	0	0	8268	429798	0	0
2024-07-13 13:19:47			0	41023	0	0	0	30584	29190	148836	27100	1056099	44574	111390	0	0	8269	429321	0	0
2024-07-13 13:20:47			0	41004	0	0	0	30579	29200	148764	27168	1056090	44574	111388	0	0	8268	429932	0	0
2024-07-13 13:21:47			0	40993	0	0	0	30589	29190	148796	27376	1055991	44574	111392	0	0	8267	430325	0	0
2024-07-13 13:22:47			0	40992	0	0	0	30568	29190	148804	27516	1056010	44550	111384	0	0	8268	430359	0	0
2024-07-13 13:23:47			0	40995	0	0	0	30581	29190	148868	27462	1055991	44563	111389	0	0	8268	430258	0	0
2024-07-13 13:24:47			0	40995	0	0	0	30584	29180	148860	27414	1056028	44561	111390	0	0	8268	430283	0	0
2024-07-13 13:25:47			0	40986	0	0	0	30568	29180	148808	27312	1056046	44561	111384	0	0	8267	430585	0	0
2024-07-13 13:26:47			0	41006	0	0	0	30568	29180	148864	27156	1055947	44583	111384	0	0	8269	429915	0	0
2024-07-13 13:27:47			0	40989	0	0	0	30568	29180	148868	27454	1055974	44561	111384	0	0	8268	430484	0	0
2024-07-13 13:28:47			0	40994	0	0	0	30584	29180	148916	27161	1056019	44572	111390	0	0	8268	430317	0	0
2024-07-13 13:29:47			0	40985	0	0	0	30579	29180	148920	27261	1056046	44572	111388	0	0	8267	430618	0	0
2024-07-13 13:30:47			0	40997	0	0	0	30633	29180	148884	26948	1056028	44583	111409	0	0	8267	430216	0	0
2024-07-13 13:31:47			0	40989	0	0	0	30644	29190	148960	27022	1056090	44583	111413	0	0	8266	430459	0	0
2024-07-13 13:32:47			0	40978	0	0	0	30654	29190	149012	27066	1056198	44583	111417	0	0	8266	430828	0	0
2024-07-13 13:33:47			0	41000	0	0	0	30641	29200	148952	27398	1056225	44596	111412	0	0	8267	430066	0	0
2024-07-13 13:34:47			0	40977	0	0	0	30667	29210	148928	27265	1056216	44586	111422	0	0	8265	430811	0	0
2024-07-13 13:35:47			0	40992	0	0	0	30649	29220	148888	27177	1056225	44576	111415	0	0	8267	430284	0	0
2024-07-13 13:36:47			0	40990	0	0	0	30670	29220	148908	27055	1056306	44586	111423	0	0	8266	430351	0	0
2024-07-13 13:37:47			0	41007	0	0	0	30680	29220	149004	27284	1056314	44587	111427	0	0	8267	429781	0	0
2024-07-13 13:38:47			0	40978	0	0	0	30714	29220	148876	27190	1056368	44587	111440	0	0	8265	430753	0	0
2024-07-13 13:39:47			0	40983	0	0	0	30690	29240	148972	27241	1056431	44579	111431	0	0	8265	430535	0	0
2024-07-13 13:40:47			0	40990	0	0	0	30664	29240	148952	26958	1056377	44579	111421	0	0	8266	430301	0	0
2024-07-13 13:41:47			0	40987	0	0	0	30667	29230	148884	27093	1056359	44578	111422	0	0	8266	430426	0	0
2024-07-13 13:42:47			0	40997	0	0	0	30667	29240	148892	27279	1056422	44588	111422	0	0	8267	430066	0	0
2024-07-13 13:43:47			0	40991	0	0	0	30659	29250	148812	27126	1056413	44589	111419	0	0	8266	430242	0	0
2024-07-13 13:44:47			0	41003	0	0	0	30662	29240	148872	27308	1056350	44579	111420	0	0	8267	429865	0	0
2024-07-13 13:45:47			0	41008	0	0	0	30651	29240	148804	27291	1056350	44567	111416	0	0	8267	429698	0	0
2024-07-13 13:46:47			0	40997	0	0	0	30677	29240	148732	27161	1056377	44579	111426	0	0	8266	430066	0	0
2024-07-13 13:47:47			0	41026	0	0	0	30667	29250	148684	27379	1056386	44567	111422	0	0	8268	429070	0	0
2024-07-13 13:48:47			0	41022	0	0	0	30683	29250	148772	27196	1056386	44579	111428	0	0	8268	429204	0	0
2024-07-13 13:49:47			0	41023	0	0	0	30659	29250	148736	27338	1056422	44568	111419	0	0	8268	429171	0	0
2024-07-13 13:50:47			0	41012	0	0	0	30659	29250	148772	27293	1056395	44601	111419	0	0	8268	429539	0	0
2024-07-13 13:51:47			0	41036	0	0	0	30654	29250	148764	27521	1056395	44590	111417	0	0	8269	428736	0	0
2024-07-13 13:52:47			0	41020	0	0	0	30670	29250	148748	27038	1056395	44580	111423	0	0	8268	429271	0	0
2024-07-13 13:53:47			0	41028	0	0	0	30696	29250	148704	27109	1056422	44580	111433	0	0	8268	429004	0	0
2024-07-13 13:54:47			0	41036	0	0	0	30693	29270	148692	27194	1056493	44581	111432	0	0	8269	428686	0	0
2024-07-13 13:55:47			0	41030	0	0	0	30657	29250	148664	27131	1056476	44580	111418	0	0	8269	428937	0	0
2024-07-13 13:56:47			0	41050	0	0	0	30641	29270	148584	27192	1056385	44569	111412	0	0	8270	428218	0	0
2024-07-13 13:57:47			0	41040	0	0	0	30638	29250	148624	27253	1056341	44580	111411	0	0	8270	428602	0	0
2024-07-13 13:58:47			0	41050	0	0	0	30644	29260	148636	27274	1056404	44590	111413	0	0	8270	428243	0	0
2024-07-13 13:59:47			0	41052	0	0	0	30688	29250	148656	27265	1056413	44589	111430	0	0	8269	428201	0	0
2024-07-13 14:00:47			0	41055	0	0	0	30680	29260	148628	27104	1056431	44590	111427	0	0	8270	428076	0	0
2024-07-13 14:01:47			0	41067	0	0	0	30667	29260	148616	27265	1056458	44590	111422	0	0	8271	427675	0	0
2024-07-13 14:02:47			0	41052	0	0	0	30657	29250	148672	27362	1056476	44580	111418	0	0	8270	428201	0	0
2024-07-13 14:03:47			0	41052	0	0	0	30714	29270	148616	27163	1056449	44603	111440	0	0	8269	428152	0	0
2024-07-13 14:04:47			0	41078	0	0	0	30696	29270	148532	26979	1056520	44581	111433	0	0	8271	427283	0	0
2024-07-13 14:05:47			0	41058	0	0	0	30698	29270	148552	27248	1056610	44592	111434	0	0	8270	427951	0	0
2024-07-13 14:06:47			0	41067	0	0	0	30732	29290	148604	27157	1056529	44604	111447	0	0	8270	427601	0	0
2024-07-13 14:07:47			0	41062	0	0	0	30745	29270	148524	27090	1056637	44603	111452	0	0	8269	427818	0	0
2024-07-13 14:08:47			0	41069	0	0	0	30716	29300	148580	27190	1056655	44583	111441	0	0	8270	427509	0	0
2024-07-13 14:09:47			0	41070	0	0	0	30703	29300	148592	27360	1056628	44583	111436	0	0	8270	427476	0	0
2024-07-13 14:10:47			0	41077	0	0	0	30693	29300	148468	27144	1056628	44583	111432	0	0	8271	427242	0	0
2024-07-13 14:11:47			0	41075	0	0	0	30745	29300	148556	27059	1056655	44594	111452	0	0	8270	427309	0	0
2024-07-13 14:12:47			0	41086	0	0	0	30732	29310	148556	27187	1056673	44595	111447	0	0	8271	426917	0	0
2024-07-13 14:13:47			0	41097	0	0	0	30740	29310	148488	26894	1056781	44583	111450	0	0	8271	426550	0	0
2024-07-13 14:14:47			0	41076	0	0	0	30750	29310	148424	27284	1056700	44595	111454	0	0	8270	427251	0	0
2024-07-13 14:15:47			0	41099	0	0	0	30742	29310	148532	27168	1056789	44596	111451	0	0	8271	426484	0	0
2024-07-13 14:16:47			0	41099	0	0	0	30753	29320	148576	27008	1056780	44608	111455	0	0	8271	426459	0	0
2024-07-13 14:17:47			0	41092	0	0	0	30761	29320	148428	27261	1056834	44597	111458	0	0	8271	426692	0	0
2024-07-13 14:18:47			0	41086	0	0	0	30771	29330	148456	27112	1056897	44585	111462	0	0	8270	426868	0	0
2024-07-13 14:19:47			0	41083	0	0	0	30753	29340	148396	27253	1056861	44599	111455	0	0	8270	426943	0	0
2024-07-13 14:20:47			0	41095	0	0	0	30750	29340	148436	26715	1056834	44610	111454	0	0	8271	426542	0	0
2024-07-13 14:21:47			0	41095	0	0	0	30758	29340	148476	27196	1056915	44610	111457	0	0	8271	426542	0	0
2024-07-13 14:22:47			0	41085	0	0	0	30771	29340	148468	27303	1056888	44599	111462	0	0	8270	426876	0	0
2024-07-13 14:23:47			0	41096	0	0	0	30737	29350	148336	27216	1056914	44578	111449	0	0	8272	426484	0	0
2024-07-13 14:24:47			0	41105	0	0	0	30729	29350	148328	27150	1056852	44599	111446	0	0	8272	426184	0	0
2024-07-13 14:25:47			0	41119	0	0	0	30719	29340	148392	26880	1056843	44587	111442	0	0	8273	425743	0	0
2024-07-13 14:26:47			0	41100	0	0	0	30727	29340	148392	27154	1056789	44599	111445	0	0	8272	426376	0	0
2024-07-13 14:27:47			0	41109	0	0	0	30737	29340	148340	27331	1056807	44587	111449	0	0	8272	426076	0	0
2024-07-13 14:28:47			0	41117	0	0	0	30724	29340	148292	27071	1056834	44577	111444	0	0	8273	425809	0	0
2024-07-13 14:29:47			0	41112	0	0	0	30698	29350	148368	26953	1056825	44599	111434	0	0	8273	425951	0	0
2024-07-13 14:30:47			0	41112	0	0	0	30719	29330	148304	27104	1056717	44598	111442	0	0	8273	426001	0	0
2024-07-13 14:31:47			0	41117	0	0	0	30719	29340	148396	27178	1056834	44599	111442	0	0	8273	425809	0	0
2024-07-13 14:32:47			0	41137	0	0	0	30709	29340	148284	27206	1056789	44587	111438	0	0	8274	425143	0	0
2024-07-13 14:33:47			0	41128	0	0	0	30696	29330	148344	27000	1056744	44598	111433	0	0	8274	425468	0	0
2024-07-13 14:34:47			0	41123	0	0	0	30729	29320	148328	27300	1056753	44585	111446	0	0	8273	425659	0	0
2024-07-13 14:35:47			0	41114	0	0	0	30732	29330	148344	26878	1056852	44609	111447	0	0	8273	425934	0	0
2024-07-13 14:36:47			0	41132	0	0	0	30722	29320	148332	27161	1056834	44585	111443	0	0	8274	425359	0	0
2024-07-13 14:37:47			0	41123	0	0	0	30735	29330	148384	26979	1056798	44598	111448	0	0	8273	425634	0	0
2024-07-13 14:38:47			0	41114	0	0	0	30740	29340	148300	27557	1056843	44599	111450	0	0	8272	425909	0	0
2024-07-13 14:39:47			0	41123	0	0	0	30729	29340	148260	27090	1056843	44599	111446	0	0	8273	425609	0	0
2024-07-13 14:40:47			0	41135	0	0	0	30729	29330	148260	27131	1056771	44598	111446	0	0	8274	425235	0	0
2024-07-13 14:41:47			0	41128	0	0	0	30714	29330	148184	27460	1056852	44576	111440	0	0	8274	425468	0	0
2024-07-13 14:42:47			0	41111	0	0	0	30719	29330	148264	27355	1056843	44585	111442	0	0	8273	426034	0	0
2024-07-13 14:43:47			0	41139	0	0	0	30719	29330	148308	27377	1056744	44586	111442	0	0	8274	425101	0	0
2024-07-13 14:44:47			0	41141	0	0	0	30724	29330	148228	27201	1056762	44597	111444	0	0	8274	425035	0	0
2024-07-13 14:45:47			0	41133	0	0	0	30761	29340	148308	27024	1056861	44587	111458	0	0	8273	425276	0	0
2024-07-13 14:46:47			0	41144	0	0	0	30745	29330	148304	27352	1056870	44585	111452	0	0	8274	424935	0	0
2024-07-13 14:47:47			0	41140	0	0	0	30742	29340	148208	27350	1056897	44599	111451	0	0	8274	425044	0	0
2024-07-13 14:48:47			0	41155	0	0	0	30737	29340	148332	26974	1056789	44599	111449	0	0	8275	424544	0	0
2024-07-13 14:49:47			0	41142	0	0	0	30742	29350	148244	27109	1056905	44599	111451	0	0	8274	424952	0	0
2024-07-13 14:50:47			0	41143	0	0	0	30784	29350	148144	27319	1056905	44599	111467	0	0	8273	424919	0	0
2024-07-13 14:51:47			0	41154	0	0	0	30761	29350	148228	27013	1056968	44588	111458	0	0	8274	424553	0	0
2024-07-13 14:52:47			0	41152	0	0	0	30758	29360	148284	27204	1056923	44601	111457	0	0	8274	424595	0	0
2024-07-13 14:53:47			0	41137	0	0	0	30771	29360	148200	27216	1056959	44589	111462	0	0	8273	425094	0	0
2024-07-13 14:54:47			0	41136	0	0	0	30768	29360	148308	27230	1056923	44601	111461	0	0	8273	425127	0	0
2024-07-13 14:55:47			0	41137	0	0	0	30773	29360	148300	27111	1056977	44601	111463	0	0	8273	425094	0	0
2024-07-13 14:56:47			0	41133	0	0	0	30815	29360	148212	27244	1057004	44601	111479	0	0	8272	425227	0	0
2024-07-13 14:57:47			0	41130	0	0	0	30786	29370	148248	27440	1057112	44613	111468	0	0	8273	425302	0	0
2024-07-13 14:58:47			0	41141	0	0	0	30779	29370	148192	27459	1057049	44602	111465	0	0	8273	424936	0	0
2024-07-13 14:59:47			0	41137	0	0	0	30781	29370	148124	27202	1057058	44602	111466	0	0	8273	425069	0	0
2024-07-13 15:00:47			0	41146	0	0	0	30771	29370	148208	27039	1057058	44602	111462	0	0	8274	424770	0	0
2024-07-13 15:01:47			0	41157	0	0	0	30761	29370	148148	27348	1057031	44602	111458	0	0	8275	424404	0	0
2024-07-13 15:02:47			0	41143	0	0	0	30766	29380	148196	27209	1057130	44591	111460	0	0	8274	424845	0	0
2024-07-13 15:03:47			0	41137	0	0	0	30771	29380	148148	27031	1057040	44602	111462	0	0	8273	425044	0	0
2024-07-13 15:04:47			0	41149	0	0	0	30771	29380	148220	27074	1057094	44602	111462	0	0	8274	424645	0	0
2024-07-13 15:05:47			0	41144	0	0	0	30766	29370	148132	27142	1057004	44590	111460	0	0	8274	424836	0	0
2024-07-13 15:06:47			0	41144	0	0	0	30771	29380	148276	26937	1057076	44614	111462	0	0	8274	424812	0	0
2024-07-13 15:07:47			0	41154	0	0	0	30784	29370	148200	27284	1057085	44580	111467	0	0	8274	424504	0	0
2024-07-13 15:08:47			0	41167	0	0	0	30784	29380	148096	27114	1057067	44591	111467	0	0	8275	424047	0	0
2024-07-13 15:09:47			0	41161	0	0	0	30779	29380	148152	27218	1057094	44602	111465	0	0	8275	424246	0	0
2024-07-13 15:10:47			0	41159	0	0	0	30776	29380	148172	27163	1057067	44602	111464	0	0	8275	424313	0	0
2024-07-13 15:11:47			0	41152	0	0	0	30768	29380	148080	27253	1057049	44602	111461	0	0	8274	424545	0	0
2024-07-13 15:12:47			0	41149	0	0	0	30766	29390	148136	27173	1057057	44603	111460	0	0	8274	424621	0	0
2024-07-13 15:13:47			0	41159	0	0	0	30797	29380	148092	27050	1057094	44602	111472	0	0	8274	424313	0	0
2024-07-13 15:14:47			0	41160	0	0	0	30792	29380	148172	27081	1057175	44602	111470	0	0	8274	424279	0	0
2024-07-13 15:15:47			0	41156	0	0	0	30779	29380	148124	26961	1057121	44614	111465	0	0	8274	424413	0	0
2024-07-13 15:16:47			0	41178	0	0	0	30773	29390	148104	27235	1057165	44592	111463	0	0	8276	423656	0	0
2024-07-13 15:17:47			0	41170	0	0	0	30794	29390	148120	27027	1057111	44603	111471	0	0	8275	423922	0	0
2024-07-13 15:18:47			0	41170	0	0	0	30781	29390	148080	27060	1057165	44615	111466	0	0	8275	423922	0	0
2024-07-13 15:19:47			0	41176	0	0	0	30786	29390	148136	27232	1057120	44592	111468	0	0	8275	423723	0	0
2024-07-13 15:20:47			0	41165	0	0	0	30768	29400	148052	27197	1057130	44604	111461	0	0	8275	424064	0	0
2024-07-13 15:21:47			0	41176	0	0	0	30755	29390	148140	26887	1057174	44592	111456	0	0	8276	423723	0	0
2024-07-13 15:22:47			0	41178	0	0	0	30776	29390	148020	26930	1057120	44603	111464	0	0	8276	423656	0	0
2024-07-13 15:23:47			0	41182	0	0	0	30789	29390	148020	27027	1057165	44603	111469	0	0	8276	423524	0	0
2024-07-13 15:24:47			0	41192	0	0	0	30773	29400	148060	27109	1057183	44593	111463	0	0	8277	423167	0	0
2024-07-13 15:25:47			0	41202	0	0	0	30792	29410	147912	27114	1057201	44605	111470	0	0	8277	422811	0	0
2024-07-13 15:26:47			0	41202	0	0	0	30794	29400	148000	27197	1057219	44594	111471	0	0	8277	422835	0	0
2024-07-13 15:27:47			0	41190	0	0	0	30802	29400	147972	26996	1057219	44605	111474	0	0	8276	423233	0	0
2024-07-13 15:28:47			0	41179	0	0	0	30789	29400	147960	27031	1057219	44605	111469	0	0	8276	423599	0	0
2024-07-13 15:29:47			0	41198	0	0	0	30781	29410	147988	27019	1057228	44594	111466	0	0	8277	422943	0	0
2024-07-13 15:30:47			0	41190	0	0	0	30799	29400	148016	27194	1057219	44617	111473	0	0	8276	423233	0	0
2024-07-13 15:31:47			0	41197	0	0	0	30833	29410	148008	27229	1057255	44617	111486	0	0	8276	422976	0	0
2024-07-13 15:32:47			0	41193	0	0	0	30851	29410	148044	27225	1057345	44639	111493	0	0	8275	423109	0	0
2024-07-13 15:33:47			0	41209	0	0	0	30836	29430	147984	27137	1057345	44619	111487	0	0	8277	422529	0	0
2024-07-13 15:34:47			0	41197	0	0	0	30859	29430	147972	27185	1057345	44607	111496	0	0	8276	422927	0	0
2024-07-13 15:35:47			0	41206	0	0	0	30859	29430	147956	27216	1057488	44619	111496	0	0	8276	422629	0	0
2024-07-13 15:36:47			0	41199	0	0	0	30818	29440	147912	27286	1057443	44608	111480	0	0	8276	422836	0	0
2024-07-13 15:37:47			0	41218	0	0	0	30823	29450	147880	27123	1057380	44598	111482	0	0	8277	422181	0	0
2024-07-13 15:38:47			0	41212	0	0	0	30831	29440	147872	27112	1057389	44608	111485	0	0	8277	422405	0	0
2024-07-13 15:39:47			0	41216	0	0	0	30836	29430	147896	27260	1057381	44607	111487	0	0	8277	422297	0	0
2024-07-13 15:40:47			0	41227	0	0	0	30820	29430	147872	26896	1057327	44607	111481	0	0	8278	421932	0	0
2024-07-13 15:41:47			0	41213	0	0	0	30836	29440	147868	26687	1057389	44608	111487	0	0	8277	422372	0	0
2024-07-13 15:42:47			0	41225	0	0	0	30825	29440	147840	27064	1057425	44609	111483	0	0	8278	421974	0	0
2024-07-13 15:43:47			0	41238	0	0	0	30831	29440	147868	27123	1057389	44597	111485	0	0	8278	421543	0	0
2024-07-13 15:44:47			0	41246	0	0	0	30851	29440	147824	27111	1057344	44609	111493	0	0	8279	421278	0	0
2024-07-13 15:45:47			0	41233	0	0	0	30838	29450	147872	26986	1057461	44609	111488	0	0	8278	421684	0	0
2024-07-13 15:46:47			0	41235	0	0	0	30854	29440	147836	27196	1057479	44621	111494	0	0	8278	421642	0	0
2024-07-13 15:47:47			0	41242	0	0	0	30836	29440	147852	27137	1057506	44598	111487	0	0	8279	421411	0	0
2024-07-13 15:48:47			0	41233	0	0	0	30815	29440	147768	27241	1057398	44609	111479	0	0	8278	421709	0	0
2024-07-13 15:49:47			0	41247	0	0	0	30820	29450	147788	26871	1057407	44598	111481	0	0	8279	421220	0	0
2024-07-13 15:50:47			0	41246	0	0	0	30823	29450	147844	27293	1057407	44598	111482	0	0	8279	421254	0	0
2024-07-13 15:51:47			0	41232	0	0	0	30841	29440	147896	27220	1057425	44621	111489	0	0	8278	421742	0	0
2024-07-13 15:52:47			0	41233	0	0	0	30862	29440	147728	27241	1057497	44620	111497	0	0	8278	421709	0	0
2024-07-13 15:53:47			0	41258	0	0	0	30844	29450	147976	27255	1057551	44643	111490	0	0	8279	420856	0	0
2024-07-13 15:54:47			0	41256	0	0	0	30823	29450	147852	27274	1057497	44598	111482	0	0	8280	420922	0	0
2024-07-13 15:55:47			0	41249	0	0	0	30828	29450	147768	27351	1057407	44598	111484	0	0	8279	421154	0	0
2024-07-13 15:56:47			0	41255	0	0	0	30825	29440	147696	27138	1057452	44598	111483	0	0	8280	420980	0	0
2024-07-13 15:57:47			0	41272	0	0	0	30820	29450	147700	27298	1057389	44621	111481	0	0	8281	420393	0	0
2024-07-13 15:58:47			0	41260	0	0	0	30838	29440	147708	27027	1057389	44608	111488	0	0	8280	420814	0	0
2024-07-13 15:59:47			0	41283	0	0	0	30862	29440	147760	27228	1057443	44585	111497	0	0	8280	420053	0	0
2024-07-13 16:00:47			0	41283	0	0	0	30859	29440	147744	27041	1057470	44620	111496	0	0	8281	420053	0	0
2024-07-13 16:01:47			0	41277	0	0	0	30857	29450	147728	27291	1057524	44621	111495	0	0	8280	420227	0	0
2024-07-13 16:02:47			0	41266	0	0	0	30833	29450	147708	26757	1057524	44609	111486	0	0	8280	420591	0	0
2024-07-13 16:03:47			0	41267	0	0	0	30864	29460	147696	26975	1057515	44611	111498	0	0	8280	420534	0	0
2024-07-13 16:04:47			0	41289	0	0	0	30888	29460	147712	27105	1057560	44622	111507	0	0	8280	419806	0	0
2024-07-13 16:05:47			0	41272	0	0	0	30924	29460	147800	26941	1057596	44611	111521	0	0	8279	420368	0	0
2024-07-13 16:06:47			0	41274	0	0	0	30924	29480	147752	27060	1057785	44624	111521	0	0	8279	420253	0	0
2024-07-13 16:07:47			0	41305	0	0	0	30909	29480	147720	27001	1057677	44624	111515	0	0	8281	419229	0	0
2024-07-13 16:08:47			0	41291	0	0	0	30914	29480	147756	27308	1057623	44624	111517	0	0	8280	419691	0	0
2024-07-13 16:09:47			0	41287	0	0	0	30922	29490	147664	27161	1057676	44614	111520	0	0	8280	419799	0	0
2024-07-13 16:10:47			0	41296	0	0	0	30937	29490	147736	27157	1057802	44614	111526	0	0	8280	419502	0	0
2024-07-13 16:11:47			0	41314	0	0	0	30935	29490	147684	27081	1057811	44603	111525	0	0	8281	418907	0	0
2024-07-13 16:12:47			0	41282	0	0	0	30937	29500	147736	27171	1057847	44625	111526	0	0	8279	419940	0	0
2024-07-13 16:13:47			0	41283	0	0	0	30945	29500	147584	27140	1057856	44637	111529	0	0	8279	419907	0	0
2024-07-13 16:14:47			0	41277	0	0	0	30942	29510	147592	27180	1057874	44616	111528	0	0	8279	420081	0	0
2024-07-13 16:15:47			0	41304	0	0	0	30940	29520	147652	27007	1057937	44626	111527	0	0	8281	419164	0	0
2024-07-13 16:16:47			0	41322	0	0	0	30989	29520	147704	26913	1057892	44627	111546	0	0	8281	418570	0	0
2024-07-13 16:17:47			0	41314	0	0	0	30992	29530	147612	26870	1057982	44651	111547	0	0	8280	418809	0	0
2024-07-13 16:18:47			0	41319	0	0	0	30994	29540	147564	27000	1058081	44641	111548	0	0	8281	418620	0	0
2024-07-13 16:19:47			0	41325	0	0	0	31005	29550	147616	26961	1058089	44641	111552	0	0	8281	418398	0	0
2024-07-13 16:20:47			0	41335	0	0	0	30997	29550	147604	27050	1058125	44630	111549	0	0	8282	418068	0	0
2024-07-13 16:21:47			0	41331	0	0	0	30994	29570	147468	27076	1058161	44632	111548	0	0	8282	418151	0	0
2024-07-13 16:22:47			0	41346	0	0	0	31002	29570	147492	27213	1058125	44621	111551	0	0	8282	417656	0	0
2024-07-13 16:23:47			0	41334	0	0	0	31018	29570	147536	27130	1058152	44609	111557	0	0	8281	418052	0	0
2024-07-13 16:24:47			0	41344	0	0	0	31051	29570	147516	27112	1058242	44644	111570	0	0	8281	417722	0	0
2024-07-13 16:25:47			0	41332	0	0	0	31051	29590	147472	26998	1058349	44633	111570	0	0	8281	418069	0	0
2024-07-13 16:26:47			0	41346	0	0	0	31057	29590	147444	27048	1058331	44645	111572	0	0	8281	417608	0	0
2024-07-13 16:27:47			0	41361	0	0	0	31059	29600	147420	27196	1058457	44669	111573	0	0	8282	417089	0	0
2024-07-13 16:28:47			0	41353	0	0	0	31067	29620	147388	27192	1058457	44670	111576	0	0	8282	417304	0	0
2024-07-13 16:29:47			0	41336	0	0	0	31075	29630	147344	27237	1058475	44638	111579	0	0	8281	417840	0	0
2024-07-13 16:30:47			0	41363	0	0	0	31088	29630	147340	27267	1058537	44671	111584	0	0	8282	416951	0	0
2024-07-13 16:31:47			0	41362	0	0	0	31101	29650	147324	27135	1058591	44651	111589	0	0	8282	416935	0	0
2024-07-13 16:32:47			0	41366	0	0	0	31106	29650	147308	27209	1058672	44640	111591	0	0	8282	416803	0	0
2024-07-13 16:33:47			0	41362	0	0	0	31093	29660	147364	27046	1058636	44641	111586	0	0	8282	416911	0	0
2024-07-13 16:34:47			0	41356	0	0	0	31096	29660	147276	27319	1058609	44652	111587	0	0	8282	417108	0	0
2024-07-13 16:35:47			0	41371	0	0	0	31114	29660	147260	26961	1058699	44642	111594	0	0	8282	416614	0	0
2024-07-13 16:36:47			0	41384	0	0	0	31109	29660	147360	26868	1058726	44653	111592	0	0	8283	416186	0	0
2024-07-13 16:37:47			0	41367	0	0	0	31122	29680	147296	27189	1058726	44654	111597	0	0	8282	416697	0	0
2024-07-13 16:38:47			0	41390	0	0	0	31119	29690	147220	27131	1058797	44645	111596	0	0	8283	415916	0	0
2024-07-13 16:39:47			0	41386	0	0	0	31116	29670	147208	26885	1058771	44631	111595	0	0	8283	416096	0	0
2024-07-13 16:40:47			0	41399	0	0	0	31119	29680	147200	26984	1058843	44655	111596	0	0	8284	415645	0	0
2024-07-13 16:41:47			0	41393	0	0	0	31119	29690	147104	27178	1058860	44633	111596	0	0	8284	415818	0	0
2024-07-13 16:42:47			0	41396	0	0	0	31114	29700	147168	27208	1058905	44657	111594	0	0	8284	415695	0	0
2024-07-13 16:43:47			0	41392	0	0	0	31111	29700	147220	27204	1058842	44645	111593	0	0	8284	415826	0	0
2024-07-13 16:44:47			0	41386	0	0	0	31127	29700	147132	26965	1058932	44679	111599	0	0	8283	416024	0	0
2024-07-13 16:45:47			0	41410	0	0	0	31129	29710	147096	27131	1058896	44646	111600	0	0	8284	415211	0	0
2024-07-13 16:46:47			0	41406	0	0	0	31127	29710	147024	27178	1058869	44646	111599	0	0	8284	415342	0	0
2024-07-13 16:47:47			0	41416	0	0	0	31124	29710	147092	27223	1058869	44646	111598	0	0	8285	415013	0	0
2024-07-13 16:48:47			0	41399	0	0	0	31116	29720	147032	26991	1058905	44646	111595	0	0	8284	415548	0	0
2024-07-13 16:49:47			0	41419	0	0	0	31137	29710	147092	27043	1058860	44646	111603	0	0	8285	414915	0	0
2024-07-13 16:50:47			0	41423	0	0	0	31135	29710	147008	27329	1058923	44658	111602	0	0	8285	414784	0	0
2024-07-13 16:51:47			0	41422	0	0	0	31145	29710	146924	27384	1058977	44646	111606	0	0	8285	414816	0	0
2024-07-13 16:52:47			0	41406	0	0	0	31153	29730	146996	27218	1059031	44648	111609	0	0	8284	415294	0	0
2024-07-13 16:53:47			0	41427	0	0	0	31158	29730	146936	27131	1058977	44660	111611	0	0	8285	414604	0	0
2024-07-13 16:54:47			0	41449	0	0	0	31166	29730	146861	27272	1059120	44660	111614	0	0	8286	413882	0	0
2024-07-13 16:55:47			0	41442	0	0	0	31171	29740	146741	27161	1059138	44638	111616	0	0	8286	414087	0	0
2024-07-13 16:56:47			0	41461	0	0	0	31153	29740	146785	27150	1059021	44649	111609	0	0	8287	413464	0	0
2024-07-13 16:57:47			0	41436	0	0	0	31161	29740	146765	27372	1059129	44661	111612	0	0	8285	414284	0	0
2024-07-13 16:58:47			0	41448	0	0	0	31173	29750	146797	27400	1059174	44672	111617	0	0	8286	413867	0	0
2024-07-13 16:59:47			0	41449	0	0	0	31166	29750	146825	27244	1059183	44640	111614	0	0	8286	413834	0	0
2024-07-13 17:00:47			0	41458	0	0	0	31176	29760	146825	27428	1059093	44673	111618	0	0	8287	413515	0	0
2024-07-13 17:01:47			0	41460	0	0	0	31181	29750	146761	27447	1059183	44663	111620	0	0	8287	413473	0	0
2024-07-13 17:02:47			0	41467	0	0	0	31179	29760	146817	27351	1059201	44651	111619	0	0	8287	413219	0	0
2024-07-13 17:03:47			0	41480	0	0	0	31173	29760	146841	27128	1059273	44651	111617	0	0	8288	412794	0	0
2024-07-13 17:04:47			0	41458	0	0	0	31171	29760	146885	27358	1059228	44651	111616	0	0	8287	413515	0	0
2024-07-13 17:05:47			0	41478	0	0	0	31155	29770	146749	27481	1059183	44664	111610	0	0	8288	412835	0	0
2024-07-13 17:06:47			0	41465	0	0	0	31168	29760	146757	27093	1059201	44640	111615	0	0	8287	413285	0	0
2024-07-13 17:07:47			0	41459	0	0	0	31194	29770	146709	27301	1059264	44664	111625	0	0	8286	413458	0	0
2024-07-13 17:08:47			0	41465	0	0	0	31184	29770	146753	27395	1059300	44675	111621	0	0	8287	413261	0	0
2024-07-13 17:09:47			0	41492	0	0	0	31181	29790	146741	27166	1059273	44654	111620	0	0	8289	412329	0	0
2024-07-13 17:10:47			0	41491	0	0	0	31181	29760	146821	27298	1059228	44651	111620	0	0	8288	412433	0	0
2024-07-13 17:11:47			0	41487	0	0	0	31161	29770	146765	27154	1059219	44642	111612	0	0	8289	412540	0	0
2024-07-13 17:12:47			0	41507	0	0	0	31161	29770	146725	27215	1059210	44652	111612	0	0	8290	411886	0	0
2024-07-13 17:13:47			0	41491	0	0	0	31171	29780	146729	27185	1059282	44653	111616	0	0	8289	412385	0	0
2024-07-13 17:14:47			0	41489	0	0	0	31173	29770	146733	27357	1059273	44642	111617	0	0	8288	412475	0	0
2024-07-13 17:15:47			0	41513	0	0	0	31173	29770	146741	27199	1059246	44630	111617	0	0	8290	411689	0	0
2024-07-13 17:16:47			0	41508	0	0	0	31179	29770	146733	27339	1059273	44653	111619	0	0	8289	411853	0	0
2024-07-13 17:17:47			0	41527	0	0	0	31163	29770	146649	27126	1059300	44675	111613	0	0	8291	411232	0	0
2024-07-13 17:18:47			0	41498	0	0	0	31181	29770	146581	27298	1059210	44664	111620	0	0	8289	412180	0	0
2024-07-13 17:19:47			0	41511	0	0	0	31176	29780	146717	27310	1059282	44653	111618	0	0	8290	411731	0	0
2024-07-13 17:20:47			0	41530	0	0	0	31189	29780	146613	26904	1059291	44653	111623	0	0	8291	411110	0	0
2024-07-13 17:21:47			0	41533	0	0	0	31189	29770	146601	27208	1059318	44652	111623	0	0	8291	411035	0	0
2024-07-13 17:22:47			0	41504	0	0	0	31192	29770	146569	27107	1059327	44642	111624	0	0	8289	411984	0	0
2024-07-13 17:23:47			0	41512	0	0	0	31205	29770	146625	26958	1059327	44653	111629	0	0	8289	411722	0	0
2024-07-13 17:24:47			0	41546	0	0	0	31215	29790	146589	27142	1059363	44655	111633	0	0	8291	410563	0	0
2024-07-13 17:25:47			0	41545	0	0	0	31223	29790	146517	27074	1059408	44665	111636	0	0	8291	410595	0	0
2024-07-13 17:26:47			0	41538	0	0	0	31212	29800	146661	27360	1059452	44644	111632	0	0	8291	410800	0	0
2024-07-13 17:27:47			0	41528	0	0	0	31202	29810	146617	27230	1059443	44656	111628	0	0	8290	411103	0	0
2024-07-13 17:28:47			0	41557	0	0	0	31189	29790	146473	26986	1059309	44655	111623	0	0	8292	410204	0	0
2024-07-13 17:29:47			0	41545	0	0	0	31186	29790	146593	27130	1059327	44665	111622	0	0	8292	410595	0	0
2024-07-13 17:30:47			0	41564	0	0	0	31197	29790	146425	27272	1059327	44654	111626	0	0	8292	409975	0	0
2024-07-13 17:31:47			0	41555	0	0	0	31197	29780	146537	27015	1059345	44665	111626	0	0	8292	410293	0	0
2024-07-13 17:32:47			0	41550	0	0	0	31199	29790	146501	26942	1059363	44666	111627	0	0	8292	410432	0	0
2024-07-13 17:33:47			0	41560	0	0	0	31205	29790	146517	27039	1059390	44666	111629	0	0	8292	410106	0	0
2024-07-13 17:34:47			0	41567	0	0	0	31215	29800	146505	26944	1059425	44655	111633	0	0	8292	409853	0	0
2024-07-13 17:35:47			0	41570	0	0	0	31223	29790	146585	27119	1059417	44666	111636	0	0	8292	409779	0	0
2024-07-13 17:36:47			0	41572	0	0	0	31210	29790	146509	26837	1059390	44655	111631	0	0	8293	409714	0	0
2024-07-13 17:37:47			0	41574	0	0	0	31212	29800	146541	27161	1059452	44666	111632	0	0	8293	409625	0	0
2024-07-13 17:38:47			0	41590	0	0	0	31218	29810	146497	27270	1059470	44678	111634	0	0	8294	409079	0	0
2024-07-13 17:39:47			0	41579	0	0	0	31223	29810	146533	27374	1059470	44656	111636	0	0	8293	409438	0	0
2024-07-13 17:40:47			0	41584	0	0	0	31225	29810	146449	27360	1059470	44666	111637	0	0	8293	409275	0	0
2024-07-13 17:41:47			0	41593	0	0	0	31231	29810	146381	27182	1059497	44678	111639	0	0	8294	408981	0	0
2024-07-13 17:42:47			0	41591	0	0	0	31225	29810	146429	27118	1059506	44657	111637	0	0	8294	409047	0	0
2024-07-13 17:43:47			0	41601	0	0	0	31220	29810	146349	26915	1059425	44657	111635	0	0	8294	408720	0	0
2024-07-13 17:44:47			0	41575	0	0	0	31212	29810	146381	27079	1059443	44666	111632	0	0	8293	409568	0	0
2024-07-13 17:45:47			0	41603	0	0	0	31210	29810	146369	27086	1059524	44656	111631	0	0	8295	408655	0	0
2024-07-13 17:46:47			0	41604	0	0	0	31199	29800	146317	27090	1059407	44678	111627	0	0	8295	408647	0	0
2024-07-13 17:47:47			0	41609	0	0	0	31207	29800	146397	26958	1059461	44656	111630	0	0	8295	408484	0	0
2024-07-13 17:48:47			0	41607	0	0	0	31210	29800	146313	27066	1059452	44666	111631	0	0	8295	408549	0	0
2024-07-13 17:49:47			0	41617	0	0	0	31199	29800	146237	26994	1059488	44678	111627	0	0	8295	408223	0	0
2024-07-13 17:50:47			0	41639	0	0	0	31207	29800	146257	27015	1059407	44666	111630	0	0	8297	407507	0	0
2024-07-13 17:51:47			0	41632	0	0	0	31199	29810	146341	27133	1059344	44657	111627	0	0	8296	407711	0	0
2024-07-13 17:52:47			0	41621	0	0	0	31215	29810	146321	27341	1059479	44657	111633	0	0	8295	408069	0	0
2024-07-13 17:53:47			0	41617	0	0	0	31212	29800	146241	27062	1059380	44656	111632	0	0	8295	408223	0	0
2024-07-13 17:54:47			0	41653	0	0	0	31205	29810	146197	27118	1059443	44689	111629	0	0	8298	407028	0	0
2024-07-13 17:55:47			0	41639	0	0	0	31218	29810	146237	27085	1059452	44679	111634	0	0	8296	407483	0	0
2024-07-13 17:56:47			0	41634	0	0	0	31220	29810	146177	27379	1059470	44678	111635	0	0	8296	407646	0	0
2024-07-13 17:57:47			0	41642	0	0	0	31236	29810	146281	27081	1059497	44678	111641	0	0	8296	407385	0	0
2024-07-13 17:58:47			0	41631	0	0	0	31236	29810	146225	27093	1059587	44679	111641	0	0	8296	407743	0	0
2024-07-13 17:59:47			0	41628	0	0	0	31231	29810	146257	27072	1059452	44657	111639	0	0	8296	407841	0	0
2024-07-13 18:00:47			0	41633	0	0	0	31228	29820	146233	26953	1059551	44668	111638	0	0	8296	407655	0	0
2024-07-13 18:01:47			0	41645	0	0	0	31233	29810	146253	27033	1059506	44679	111640	0	0	8297	407288	0	0
2024-07-13 18:02:47			0	41657	0	0	0	31231	29820	146209	27027	1059569	44679	111639	0	0	8297	406874	0	0
2024-07-13 18:03:47			0	41646	0	0	0	31233	29830	146205	27118	1059587	44680	111640	0	0	8297	407208	0	0
2024-07-13 18:04:47			0	41643	0	0	0	31241	29820	146085	26989	1059578	44668	111643	0	0	8296	407329	0	0
2024-07-13 18:05:47			0	41636	0	0	0	31238	29830	146173	26857	1059596	44681	111642	0	0	8296	407533	0	0
2024-07-13 18:06:47			0	41644	0	0	0	31244	29830	146109	27012	1059614	44680	111644	0	0	8296	407273	0	0
2024-07-13 18:07:47			0	41659	0	0	0	31249	29830	146073	27152	1059623	44681	111646	0	0	8297	406785	0	0
2024-07-13 18:08:47			0	41670	0	0	0	31244	29830	146121	27364	1059650	44659	111644	0	0	8298	406428	0	0
2024-07-13 18:09:47			0	41678	0	0	0	31241	29840	146021	27157	1059659	44660	111643	0	0	8298	406144	0	0
2024-07-13 18:10:47			0	41657	0	0	0	31246	29840	146193	27100	1059659	44660	111645	0	0	8297	406826	0	0
2024-07-13 18:11:47			0	41666	0	0	0	31246	29850	146125	27218	1059667	44670	111645	0	0	8298	406510	0	0
2024-07-13 18:12:47			0	41680	0	0	0	31251	29850	146117	27313	1059676	44683	111647	0	0	8298	406055	0	0
2024-07-13 18:13:47			0	41673	0	0	0	31246	29850	146121	27157	1059676	44661	111645	0	0	8298	406283	0	0
2024-07-13 18:14:47			0	41693	0	0	0	31257	29830	146053	27053	1059596	44681	111649	0	0	8299	405680	0	0
2024-07-13 18:15:47			0	41674	0	0	0	31254	29850	146061	27166	1059695	44660	111648	0	0	8298	406250	0	0
2024-07-13 18:16:47			0	41671	0	0	0	31251	29850	146117	27079	1059641	44670	111647	0	0	8298	406348	0	0
2024-07-13 18:17:47			0	41686	0	0	0	31257	29850	146045	27286	1059614	44660	111649	0	0	8299	405860	0	0
2024-07-13 18:18:47			0	41705	0	0	0	31251	29850	146069	27225	1059614	44682	111647	0	0	8300	405244	0	0
2024-07-13 18:19:47			0	41710	0	0	0	31259	29850	145969	26975	1059676	44683	111650	0	0	8300	405081	0	0
2024-07-13 18:20:47			0	41717	0	0	0	31251	29850	145945	26927	1059667	44693	111647	0	0	8301	404854	0	0
2024-07-13 18:21:47			0	41706	0	0	0	31259	29850	145969	26974	1059676	44671	111650	0	0	8300	405211	0	0
2024-07-13 18:22:47			0	41724	0	0	0	31259	29850	145933	26974	1059667	44670	111650	0	0	8301	404627	0	0
2024-07-13 18:23:47			0	41734	0	0	0	31249	29850	145877	27199	1059703	44694	111646	0	0	8302	404303	0	0
2024-07-13 18:24:47			0	41710	0	0	0	31264	29840	145873	26955	1059659	44682	111652	0	0	8300	405105	0	0
2024-07-13 18:25:47			0	41750	0	0	0	31257	29850	145877	27045	1059695	44660	111649	0	0	8302	403785	0	0
2024-07-13 18:26:47			0	41729	0	0	0	31254	29860	145825	27145	1059748	44684	111648	0	0	8301	404442	0	0
2024-07-13 18:27:47			0	41734	0	0	0	31262	29850	145749	27034	1059730	44683	111651	0	0	8301	404303	0	0
2024-07-13 18:28:47			0	41727	0	0	0	31257	29860	145737	27164	1059712	44671	111649	0	0	8301	404506	0	0
2024-07-13 18:29:47			0	41758	0	0	0	31254	29860	145741	27350	1059694	44684	111648	0	0	8303	403502	0	0
2024-07-13 18:30:47			0	41739	0	0	0	31249	29850	145697	27140	1059676	44683	111646	0	0	8302	404141	0	0
2024-07-13 18:31:47			0	41755	0	0	0	31244	29850	145873	27010	1059721	44682	111644	0	0	8303	403623	0	0
2024-07-13 18:32:47			0	41757	0	0	0	31246	29850	145825	27116	1059721	44682	111645	0	0	8303	403558	0	0
2024-07-13 18:33:47			0	41764	0	0	0	31241	29850	145869	27306	1059641	44660	111643	0	0	8303	403331	0	0
2024-07-13 18:34:47			0	41766	0	0	0	31249	29850	145749	27140	1059676	44661	111646	0	0	8303	403267	0	0
2024-07-13 18:35:47			0	41771	0	0	0	31251	29850	145781	27190	1059749	44682	111647	0	0	8304	403105	0	0
2024-07-13 18:36:47			0	41783	0	0	0	31244	29850	145717	27244	1059695	44648	111644	0	0	8305	402716	0	0
2024-07-13 18:37:47			0	41779	0	0	0	31251	29850	145753	27156	1059721	44682	111647	0	0	8304	402846	0	0
2024-07-13 18:38:47			0	41798	0	0	0	31244	29850	145725	27102	1059695	44670	111644	0	0	8305	402231	0	0
2024-07-13 18:39:47			0	41792	0	0	0	31244	29850	145681	27128	1059614	44682	111644	0	0	8305	402425	0	0
2024-07-13 18:40:47			0	41804	0	0	0	31246	29850	145705	27190	1059721	44670	111645	0	0	8306	402037	0	0
2024-07-13 18:41:47			0	41809	0	0	0	31246	29850	145681	27263	1059641	44670	111645	0	0	8306	401876	0	0
2024-07-13 18:42:47			0	41806	0	0	0	31246	29850	145697	27336	1059649	44683	111645	0	0	8306	401973	0	0
2024-07-13 18:43:47			0	41815	0	0	0	31251	29860	145617	27152	1059685	44683	111647	0	0	8306	401659	0	0
2024-07-13 18:44:47			0	41823	0	0	0	31249	29850	145497	27069	1059703	44683	111646	0	0	8307	401423	0	0
2024-07-13 18:45:47			0	41834	0	0	0	31251	29860	145601	27145	1059631	44694	111647	0	0	8307	401045	0	0
2024-07-13 18:46:47			0	41826	0	0	0	31249	29850	145529	27277	1059695	44693	111646	0	0	8307	401327	0	0
2024-07-13 18:47:47			0	41846	0	0	0	31246	29850	145541	27504	1059622	44671	111645	0	0	8308	400681	0	0
2024-07-13 18:48:47			0	41840	0	0	0	31238	29850	145501	27190	1059721	44682	111642	0	0	8308	400874	0	0
2024-07-13 18:49:47			0	41861	0	0	0	31244	29850	145437	27360	1059641	44682	111644	0	0	8309	400197	0	0
2024-07-13 18:50:47			0	41858	0	0	0	31233	29850	145333	27320	1059721	44660	111640	0	0	8309	400294	0	0
2024-07-13 18:51:47			0	41877	0	0	0	31238	29840	145493	27270	1059686	44670	111642	0	0	8310	399704	0	0
2024-07-13 18:52:47			0	41884	0	0	0	31244	29850	145349	26972	1059667	44682	111644	0	0	8310	399455	0	0
2024-07-13 18:53:47			0	41887	0	0	0	31244	29850	145281	27220	1059667	44682	111644	0	0	8311	399359	0	0
2024-07-13 18:54:47			0	41879	0	0	0	31236	29850	145397	27320	1059649	44671	111641	0	0	8310	399616	0	0
2024-07-13 18:55:47			0	41888	0	0	0	31238	29840	145313	27102	1059659	44693	111642	0	0	8311	399350	0	0
2024-07-13 18:56:47			0	41909	0	0	0	31236	29840	145337	27197	1059632	44682	111641	0	0	8312	398673	0	0
2024-07-13 18:57:47			0	41899	0	0	0	31236	29850	145285	27353	1059676	44661	111641	0	0	8311	398972	0	0
2024-07-13 18:58:47			0	41901	0	0	0	31241	29850	145353	26798	1059721	44682	111643	0	0	8311	398908	0	0
2024-07-13 18:59:47			0	41908	0	0	0	31241	29850	145197	27180	1059667	44682	111643	0	0	8312	398682	0	0
2024-07-13 19:00:47			0	41915	0	0	0	31236	29850	145321	27138	1059676	44694	111641	0	0	8312	398457	0	0
2024-07-13 19:01:47			0	41912	0	0	0	31238	29840	145257	27053	1059659	44670	111642	0	0	8312	398577	0	0
2024-07-13 19:02:47			0	41939	0	0	0	31238	29840	145113	27244	1059713	44693	111642	0	0	8314	397708	0	0
2024-07-13 19:03:47			0	41945	0	0	0	31241	29850	145137	27222	1059667	44682	111643	0	0	8314	397492	0	0
2024-07-13 19:04:47			0	41937	0	0	0	31228	29850	145121	27280	1059695	44682	111638	0	0	8314	397749	0	0
2024-07-13 19:05:47			0	41945	0	0	0	31233	29830	145181	27007	1059677	44659	111640	0	0	8314	397538	0	0
2024-07-13 19:06:47			0	41945	0	0	0	31233	29840	145137	27003	1059632	44660	111640	0	0	8314	397515	0	0
2024-07-13 19:07:47			0	41931	0	0	0	31244	29850	145113	27057	1059667	44682	111644	0	0	8313	397942	0	0
2024-07-13 19:08:47			0	41945	0	0	0	31241	29850	145153	27201	1059667	44682	111643	0	0	8314	397492	0	0
2024-07-13 19:09:47			0	41971	0	0	0	31246	29830	145017	27282	1059650	44681	111645	0	0	8315	396703	0	0
2024-07-13 19:10:47			0	41981	0	0	0	31228	29840	144969	26880	1059605	44682	111638	0	0	8316	396359	0	0
2024-07-13 19:11:47			0	41978	0	0	0	31220	29840	145061	27260	1059659	44682	111635	0	0	8316	396455	0	0
2024-07-13 19:12:47			0	41993	0	0	0	31225	29840	144901	27121	1059686	44670	111637	0	0	8317	395974	0	0
2024-07-13 19:13:47			0	41987	0	0	0	31231	29830	144961	27424	1059596	44692	111639	0	0	8316	396189	0	0
2024-07-13 19:14:47			0	42002	0	0	0	31231	29840	144913	26753	1059605	44682	111639	0	0	8317	395685	0	0
2024-07-13 19:15:47			0	41997	0	0	0	31231	29850	144857	27232	1059667	44693	111639	0	0	8317	395822	0	0
2024-07-13 19:16:47			0	41995	0	0	0	31236	29830	144917	27104	1059623	44704	111641	0	0	8317	395933	0	0
2024-07-13 19:17:47			0	42017	0	0	0	31231	29830	144953	27093	1059623	44692	111639	0	0	8318	395227	0	0
2024-07-13 19:18:47			0	42017	0	0	0	31223	29830	144881	27293	1059677	44681	111636	0	0	8318	395227	0	0
2024-07-13 19:19:47			0	42015	0	0	0	31225	29830	144809	27225	1059596	44681	111637	0	0	8318	395291	0	0
2024-07-13 19:20:47			0	42033	0	0	0	31220	29830	144865	26819	1059650	44681	111635	0	0	8319	394714	0	0
2024-07-13 19:21:47			0	42041	0	0	0	31233	29830	144805	27012	1059623	44704	111640	0	0	8320	394458	0	0
2024-07-13 19:22:47			0	42027	0	0	0	31225	29820	144773	27270	1059659	44668	111637	0	0	8319	394929	0	0
2024-07-13 19:23:47			0	42030	0	0	0	31220	29830	144721	27322	1059587	44680	111635	0	0	8319	394810	0	0
2024-07-13 19:24:47			0	42043	0	0	0	31218	29820	144773	27085	1059632	44680	111634	0	0	8320	394417	0	0
2024-07-13 19:25:47			0	42055	0	0	0	31215	29820	144689	27027	1059632	44680	111633	0	0	8321	394032	0	0
2024-07-13 19:26:47			0	42065	0	0	0	31225	29830	144801	26956	1059560	44668	111637	0	0	8321	393689	0	0
2024-07-13 19:27:47			0	42060	0	0	0	31215	29830	144681	27220	1059587	44680	111633	0	0	8321	393849	0	0
2024-07-13 19:28:47			0	42072	0	0	0	31218	29820	144717	27261	1059542	44690	111634	0	0	8322	393488	0	0
2024-07-13 19:29:47			0	42087	0	0	0	31212	29820	144610	27046	1059551	44691	111632	0	0	8323	393009	0	0
2024-07-13 19:30:47			0	42088	0	0	0	31210	29830	144670	26819	1059569	44692	111631	0	0	8323	392954	0	0
2024-07-13 19:31:47			0	42084	0	0	0	31212	29820	144658	27166	1059524	44668	111632	0	0	8322	393105	0	0
2024-07-13 19:32:47			0	42096	0	0	0	31199	29820	144706	26972	1059524	44658	111627	0	0	8323	392721	0	0
2024-07-13 19:33:47			0	42104	0	0	0	31199	29820	144702	27067	1059569	44679	111627	0	0	8324	392465	0	0
2024-07-13 19:34:47			0	42114	0	0	0	31202	29820	144654	26953	1059515	44657	111628	0	0	8324	392146	0	0
2024-07-13 19:35:47			0	42125	0	0	0	31194	29810	144626	27232	1059452	44667	111625	0	0	8325	391817	0	0
2024-07-13 19:36:47			0	42117	0	0	0	31192	29810	144562	26868	1059533	44667	111624	0	0	8325	392073	0	0
2024-07-13 19:37:47			0	42132	0	0	0	31186	29800	144470	26937	1059380	44656	111622	0	0	8325	391617	0	0
2024-07-13 19:38:47			0	42146	0	0	0	31176	29800	144498	27150	1059425	44655	111618	0	0	8326	391170	0	0
2024-07-13 19:39:47			0	42157	0	0	0	31171	29790	144502	26701	1059363	44677	111616	0	0	8327	390842	0	0
2024-07-13 19:40:47			0	42155	0	0	0	31173	29790	144426	26805	1059417	44666	111617	0	0	8327	390905	0	0
2024-07-13 19:41:47			0	42168	0	0	0	31173	29800	144386	27086	1059398	44655	111617	0	0	8328	390468	0	0
2024-07-13 19:42:47			0	42186	0	0	0	31163	29790	144446	27150	1059336	44700	111613	0	0	8329	389917	0	0
2024-07-13 19:43:47			0	42195	0	0	0	31161	29780	144370	27213	1059291	44675	111612	0	0	8329	389653	0	0
2024-07-13 19:44:47			0	42168	0	0	0	31161	29780	144414	27213	1059282	44675	111612	0	0	8328	390514	0	0
2024-07-13 19:45:47			0	42183	0	0	0	31163	29780	144418	27055	1059363	44675	111613	0	0	8329	390035	0	0
2024-07-13 19:46:47			0	42207	0	0	0	31161	29770	144250	27067	1059300	44665	111612	0	0	8330	389294	0	0
2024-07-13 19:47:47			0	42220	0	0	0	31155	29770	144362	27286	1059327	44675	111610	0	0	8331	388880	0	0
2024-07-13 19:48:47			0	42217	0	0	0	31153	29770	144366	27265	1059318	44674	111609	0	0	8331	388975	0	0
2024-07-13 19:49:47			0	42218	0	0	0	31158	29780	144334	27182	1059309	44686	111611	0	0	8331	388921	0	0
2024-07-13 19:50:47			0	42223	0	0	0	31155	29780	144382	27255	1059255	44675	111610	0	0	8331	388762	0	0
2024-07-13 19:51:47			0	42240	0	0	0	31168	29790	144270	26961	1059354	44676	111615	0	0	8332	388198	0	0
2024-07-13 19:52:47			0	42252	0	0	0	31161	29770	144326	27145	1059300	44686	111612	0	0	8333	387862	0	0
2024-07-13 19:53:47			0	42254	0	0	0	31161	29780	144226	27118	1059309	44653	111612	0	0	8333	387776	0	0
2024-07-13 19:54:47			0	42251	0	0	0	31161	29770	144198	27173	1059318	44686	111612	0	0	8333	387894	0	0
2024-07-13 19:55:47			0	42272	0	0	0	31161	29780	144174	27237	1059336	44686	111612	0	0	8334	387204	0	0
2024-07-13 19:56:47			0	42266	0	0	0	31166	29780	144198	27178	1059309	44698	111614	0	0	8334	387395	0	0
2024-07-13 19:57:47			0	42286	0	0	0	31168	29780	144170	26996	1059336	44675	111615	0	0	8335	386760	0	0
2024-07-13 19:58:47			0	42295	0	0	0	31163	29770	144170	27076	1059291	44674	111613	0	0	8335	386497	0	0
2024-07-13 19:59:47			0	42309	0	0	0	31163	29760	144118	27059	1059282	44685	111613	0	0	8336	386075	0	0
2024-07-13 20:00:47			0	42289	0	0	0	31161	29770	144026	27126	1059291	44686	111612	0	0	8335	386687	0	0
2024-07-13 20:01:47			0	42312	0	0	0	31166	29770	144050	26842	1059300	44686	111614	0	0	8336	385957	0	0
2024-07-13 20:02:47			0	42304	0	0	0	31158	29770	144026	26844	1059327	44675	111611	0	0	8336	386211	0	0
2024-07-13 20:03:47			0	42300	0	0	0	31161	29780	144014	27039	1059345	44675	111612	0	0	8336	386316	0	0
2024-07-13 20:04:47			0	42315	0	0	0	31166	29770	144086	27062	1059354	44675	111614	0	0	8336	385862	0	0
2024-07-13 20:05:47			0	42327	0	0	0	31163	29770	144050	27052	1059354	44675	111613	0	0	8337	385482	0	0
2024-07-13 20:06:47			0	42313	0	0	0	31166	29770	144010	27124	1059318	44686	111614	0	0	8336	385926	0	0
2024-07-13 20:07:47			0	42335	0	0	0	31168	29780	144010	27246	1059309	44698	111615	0	0	8338	385206	0	0
2024-07-13 20:08:47			0	42335	0	0	0	31163	29770	144002	26769	1059354	44686	111613	0	0	8338	385228	0	0
2024-07-13 20:09:47			0	42322	0	0	0	31173	29770	143970	27287	1059354	44686	111617	0	0	8337	385640	0	0
2024-07-13 20:10:47			0	42341	0	0	0	31176	29770	144046	27190	1059300	44698	111618	0	0	8338	385038	0	0
2024-07-13 20:11:47			0	42334	0	0	0	31171	29770	144022	26679	1059381	44686	111616	0	0	8337	385260	0	0
2024-07-13 20:12:47			0	42328	0	0	0	31173	29780	144062	27046	1059336	44686	111617	0	0	8337	385428	0	0
2024-07-13 20:13:47			0	42327	0	0	0	31173	29780	144022	27034	1059363	44698	111617	0	0	8337	385459	0	0
2024-07-13 20:14:47			0	42315	0	0	0	31168	29780	144142	27060	1059417	44686	111615	0	0	8336	385840	0	0
2024-07-13 20:15:47			0	42295	0	0	0	31171	29770	144254	26798	1059354	44675	111616	0	0	8335	386497	0	0
2024-07-13 20:16:47			0	42309	0	0	0	31179	29780	144278	27098	1059309	44686	111619	0	0	8336	386030	0	0
2024-07-13 20:17:47			0	42294	0	0	0	31163	29770	144206	27135	1059327	44675	111613	0	0	8335	386528	0	0
2024-07-13 20:18:47			0	42301	0	0	0	31171	29790	144250	27244	1059381	44687	111616	0	0	8336	386261	0	0
2024-07-13 20:19:47			0	42275	0	0	0	31168	29780	144238	27177	1059372	44675	111615	0	0	8334	387109	0	0
2024-07-13 20:20:47			0	42294	0	0	0	31163	29780	144302	27147	1059363	44675	111613	0	0	8335	386506	0	0
2024-07-13 20:21:47			0	42264	0	0	0	31168	29780	144290	26928	1059255	44686	111615	0	0	8333	387458	0	0
2024-07-13 20:22:47			0	42275	0	0	0	31166	29770	144186	27033	1059354	44675	111614	0	0	8334	387131	0	0
2024-07-13 20:23:47			0	42269	0	0	0	31166	29780	144338	27209	1059399	44675	111614	0	0	8334	387299	0	0
2024-07-13 20:24:47			0	42272	0	0	0	31168	29780	144378	27130	1059399	44675	111615	0	0	8334	387204	0	0
2024-07-13 20:25:47			0	42276	0	0	0	31168	29770	144466	27048	1059327	44675	111615	0	0	8334	387100	0	0
2024-07-13 20:26:47			0	42260	0	0	0	31173	29780	144378	27007	1059336	44686	111617	0	0	8333	387585	0	0
2024-07-13 20:27:47			0	42266	0	0	0	31173	29770	144458	26974	1059354	44686	111617	0	0	8333	387417	0	0
2024-07-13 20:28:47			0	42249	0	0	0	31163	29770	144438	26854	1059327	44686	111613	0	0	8333	387958	0	0
2024-07-13 20:29:47			0	42252	0	0	0	31166	29770	144426	27353	1059354	44698	111614	0	0	8333	387862	0	0
2024-07-13 20:30:47			0	42250	0	0	0	31158	29770	144458	27024	1059300	44675	111611	0	0	8333	387926	0	0
2024-07-13 20:31:47			0	42240	0	0	0	31166	29770	144490	27194	1059300	44686	111614	0	0	8332	388244	0	0
2024-07-13 20:32:47			0	42239	0	0	0	31168	29770	144466	27118	1059300	44686	111615	0	0	8332	388276	0	0
2024-07-13 20:33:47			0	42245	0	0	0	31161	29780	144502	27199	1059282	44675	111612	0	0	8332	388062	0	0
2024-07-13 20:34:47			0	42243	0	0	0	31171	29770	144410	27071	1059318	44686	111616	0	0	8332	388148	0	0
2024-07-13 20:35:47			0	42221	0	0	0	31158	29760	144478	27000	1059309	44663	111611	0	0	8331	388871	0	0
2024-07-13 20:36:47			0	42248	0	0	0	31150	29760	144402	27495	1059273	44663	111608	0	0	8333	388012	0	0
2024-07-13 20:37:47			0	42239	0	0	0	31155	29770	144386	26977	1059237	44686	111610	0	0	8332	388276	0	0
2024-07-13 20:38:47			0	42238	0	0	0	31150	29770	144382	26932	1059273	44698	111608	0	0	8332	388307	0	0
2024-07-13 20:39:47			0	42247	0	0	0	31145	29760	144482	27069	1059219	44696	111606	0	0	8333	388044	0	0
2024-07-13 20:40:47			0	42254	0	0	0	31148	29760	144366	27190	1059219	44673	111607	0	0	8333	387821	0	0
2024-07-13 20:41:47			0	42253	0	0	0	31135	29760	144470	27183	1059219	44685	111602	0	0	8333	387853	0	0
2024-07-13 20:42:47			0	42232	0	0	0	31137	29760	144406	27005	1059246	44696	111603	0	0	8332	388521	0	0
2024-07-13 20:43:47			0	42243	0	0	0	31140	29760	144386	27010	1059201	44673	111604	0	0	8333	388171	0	0
2024-07-13 20:44:47			0	42249	0	0	0	31135	29750	144446	27294	1059237	44685	111602	0	0	8333	388003	0	0
2024-07-13 20:45:47			0	42257	0	0	0	31135	29750	144286	26883	1059156	44685	111602	0	0	8333	387748	0	0
2024-07-13 20:46:47			0	42231	0	0	0	31137	29740	144410	27041	1059183	44683	111603	0	0	8332	388598	0	0
2024-07-13 20:47:47			0	42252	0	0	0	31137	29750	144398	26871	1059183	44673	111603	0	0	8333	387907	0	0
2024-07-13 20:48:47			0	42277	0	0	0	31129	29750	144426	26904	1059201	44684	111600	0	0	8335	387113	0	0
2024-07-13 20:49:47			0	42250	0	0	0	31140	29740	144322	27066	1059246	44683	111604	0	0	8333	387994	0	0
2024-07-13 20:50:47			0	42271	0	0	0	31135	29740	144418	26939	1059138	44694	111602	0	0	8334	387326	0	0
2024-07-13 20:51:47			0	42274	0	0	0	31124	29740	144322	26873	1059192	44671	111598	0	0	8335	387231	0	0
2024-07-13 20:52:47			0	42279	0	0	0	31135	29750	144330	26863	1059183	44685	111602	0	0	8335	387050	0	0
2024-07-13 20:53:47			0	42269	0	0	0	31132	29750	144330	27183	1059201	44672	111601	0	0	8334	387367	0	0
2024-07-13 20:54:47			0	42268	0	0	0	31129	29750	144290	27053	1059201	44695	111600	0	0	8334	387399	0	0
2024-07-13 20:55:47			0	42269	0	0	0	31140	29740	144286	27071	1059237	44683	111604	0	0	8334	387390	0	0
2024-07-13 20:56:47			0	42279	0	0	0	31140	29750	144278	27045	1059183	44685	111604	0	0	8335	387050	0	0
2024-07-13 20:57:47			0	42290	0	0	0	31132	29750	144270	27171	1059156	44685	111601	0	0	8335	386700	0	0
2024-07-13 20:58:47			0	42277	0	0	0	31135	29740	144270	26977	1059192	44683	111602	0	0	8335	387136	0	0
2024-07-13 20:59:47			0	42299	0	0	0	31140	29740	144202	27079	1059192	44683	111604	0	0	8336	386437	0	0
2024-07-13 21:00:47			0	42288	0	0	0	31129	29740	144170	27267	1059183	44683	111600	0	0	8335	386786	0	0
2024-07-13 21:01:47			0	42302	0	0	0	31140	29740	144182	27144	1059165	44683	111604	0	0	8336	386342	0	0
2024-07-13 21:02:47			0	42307	0	0	0	31127	29740	144246	26778	1059138	44694	111599	0	0	8336	386184	0	0
2024-07-13 21:03:47			0	42305	0	0	0	31127	29740	144142	27038	1059165	44683	111599	0	0	8336	386247	0	0
2024-07-13 21:04:47			0	42332	0	0	0	31122	29730	144230	27147	1059147	44682	111597	0	0	8338	385413	0	0
2024-07-13 21:05:47			0	42318	0	0	0	31132	29730	144174	27033	1059147	44682	111601	0	0	8337	385857	0	0
2024-07-13 21:06:47			0	42304	0	0	0	31124	29740	144142	27109	1059156	44683	111598	0	0	8336	386279	0	0
2024-07-13 21:07:47			0	42314	0	0	0	31124	29740	144142	27046	1059084	44683	111598	0	0	8337	385962	0	0
2024-07-13 21:08:47			0	42321	0	0	0	31122	29730	144142	26779	1059120	44670	111597	0	0	8337	385762	0	0
2024-07-13 21:09:47			0	42337	0	0	0	31119	29730	144026	26993	1059085	44670	111596	0	0	8338	385255	0	0
2024-07-13 21:10:47			0	42348	0	0	0	31109	29730	144142	26908	1059031	44682	111592	0	0	8339	384906	0	0
2024-07-13 21:11:47			0	42349	0	0	0	31114	29720	144042	26958	1059013	44691	111594	0	0	8339	384897	0	0
2024-07-13 21:12:47			0	42363	0	0	0	31111	29710	144086	27007	1059058	44691	111593	0	0	8340	384476	0	0
2024-07-13 21:13:47			0	42346	0	0	0	31101	29720	144046	27081	1059040	44691	111589	0	0	8339	384992	0	0
2024-07-13 21:14:47			0	42372	0	0	0	31096	29710	144022	27072	1059031	44703	111587	0	0	8341	384191	0	0
2024-07-13 21:15:47			0	42351	0	0	0	31096	29720	143974	26890	1058986	44691	111587	0	0	8339	384834	0	0
2024-07-13 21:16:47			0	42374	0	0	0	31096	29720	144010	27241	1059022	44681	111587	0	0	8341	384106	0	0
2024-07-13 21:17:47			0	42385	0	0	0	31101	29710	144042	27062	1058950	44691	111589	0	0	8341	383780	0	0
2024-07-13 21:18:47			0	42389	0	0	0	31101	29720	143986	26955	1058995	44692	111589	0	0	8342	383631	0	0
2024-07-13 21:19:47			0	42393	0	0	0	31085	29710	143994	26824	1058941	44691	111583	0	0	8342	383527	0	0
2024-07-13 21:20:47			0	42405	0	0	0	31085	29700	143898	26646	1058923	44689	111583	0	0	8343	383170	0	0
2024-07-13 21:21:47			0	42386	0	0	0	31093	29710	143970	27085	1058887	44680	111586	0	0	8341	383748	0	0
2024-07-13 21:22:47			0	42412	0	0	0	31083	29700	143922	26602	1058959	44690	111582	0	0	8343	382949	0	0
2024-07-13 21:23:47			0	42427	0	0	0	31080	29700	143998	27059	1058905	44690	111581	0	0	8344	382475	0	0
2024-07-13 21:24:47			0	42422	0	0	0	31077	29690	143974	27161	1058887	44689	111580	0	0	8344	382655	0	0
2024-07-13 21:25:47			0	42423	0	0	0	31080	29700	143882	27284	1058878	44679	111581	0	0	8344	382601	0	0
2024-07-13 21:26:47			0	42425	0	0	0	31072	29700	143882	27201	1058869	44678	111578	0	0	8344	382538	0	0
2024-07-13 21:27:47			0	42444	0	0	0	31075	29690	143870	26765	1058833	44666	111579	0	0	8345	381960	0	0
2024-07-13 21:28:47			0	42430	0	0	0	31077	29690	143854	27071	1058878	44689	111580	0	0	8344	382402	0	0
2024-07-13 21:29:47			0	42441	0	0	0	31072	29690	143830	27268	1058860	44689	111578	0	0	8345	382055	0	0
2024-07-13 21:30:47			0	42450	0	0	0	31067	29680	143922	27137	1058762	44677	111576	0	0	8346	381793	0	0
2024-07-13 21:31:47			0	42452	0	0	0	31075	29680	143878	26819	1058843	44688	111579	0	0	8346	381730	0	0
2024-07-13 21:32:47			0	42437	0	0	0	31072	29680	143870	27215	1058861	44676	111578	0	0	8345	382203	0	0
2024-07-13 21:33:47			0	42458	0	0	0	31070	29680	143774	27098	1058843	44710	111577	0	0	8346	381541	0	0
2024-07-13 21:34:47			0	42432	0	0	0	31064	29690	143930	26942	1058851	44678	111575	0	0	8345	382339	0	0
2024-07-13 21:35:47			0	42442	0	0	0	31062	29680	143910	27360	1058789	44688	111574	0	0	8345	382046	0	0
2024-07-13 21:36:47			0	42465	0	0	0	31062	29680	143950	27100	1058843	44677	111574	0	0	8346	381320	0	0
2024-07-13 21:37:47			0	42458	0	0	0	31070	29680	143970	26609	1058807	44699	111577	0	0	8346	381541	0	0
2024-07-13 21:38:47			0	42452	0	0	0	31059	29680	143902	26793	1058834	44687	111573	0	0	8346	381730	0	0
2024-07-13 21:39:47			0	42454	0	0	0	31064	29670	143902	27124	1058825	44676	111575	0	0	8346	381689	0	0
2024-07-13 21:40:47			0	42434	0	0	0	31067	29680	143886	27140	1058843	44700	111576	0	0	8345	382298	0	0
2024-07-13 21:41:47			0	42451	0	0	0	31067	29670	143886	26956	1058879	44687	111576	0	0	8346	381784	0	0
2024-07-13 21:42:47			0	42450	0	0	0	31072	29680	143842	27176	1058834	44687	111578	0	0	8345	381793	0	0
2024-07-13 21:43:47			0	42451	0	0	0	31057	29670	143826	26847	1058852	44676	111572	0	0	8346	381784	0	0
2024-07-13 21:44:47			0	42446	0	0	0	31072	29680	143902	26887	1058807	44676	111578	0	0	8345	381920	0	0
2024-07-13 21:45:47			0	42450	0	0	0	31070	29670	143818	26765	1058789	44687	111577	0	0	8345	381815	0	0
2024-07-13 21:46:47			0	42453	0	0	0	31064	29670	143822	27097	1058762	44676	111575	0	0	8346	381721	0	0
2024-07-13 21:47:47			0	42444	0	0	0	31072	29680	143770	27064	1058780	44687	111578	0	0	8345	381983	0	0
2024-07-13 21:48:47			0	42448	0	0	0	31067	29670	143882	26982	1058744	44687	111576	0	0	8345	381878	0	0
2024-07-13 21:49:47			0	42457	0	0	0	31064	29680	143838	26981	1058816	44700	111575	0	0	8346	381572	0	0
2024-07-13 21:50:47			0	42443	0	0	0	31062	29670	143854	26842	1058789	44676	111574	0	0	8345	382036	0	0
2024-07-13 21:51:47			0	42460	0	0	0	31070	29670	143822	26986	1058771	44687	111577	0	0	8346	381500	0	0
2024-07-13 21:52:47			0	42444	0	0	0	31062	29670	143810	26944	1058816	44687	111574	0	0	8345	382005	0	0
2024-07-13 21:53:47			0	42433	0	0	0	31062	29670	143854	26765	1058735	44687	111574	0	0	8345	382352	0	0
2024-07-13 21:54:47			0	42439	0	0	0	31059	29660	143922	26928	1058780	44698	111573	0	0	8345	382185	0	0
2024-07-13 21:55:47			0	42454	0	0	0	31067	29670	143958	26823	1058825	44699	111576	0	0	8346	381689	0	0
2024-07-13 21:56:47			0	42462	0	0	0	31059	29670	143798	26611	1058771	44687	111573	0	0	8346	381437	0	0
2024-07-13 21:57:47			0	42454	0	0	0	31064	29670	143838	26958	1058708	44687	111575	0	0	8346	381689	0	0
2024-07-13 21:58:47			0	42453	0	0	0	31062	29670	143814	26738	1058771	44687	111574	0	0	8346	381721	0	0
2024-07-13 21:59:47			0	42459	0	0	0	31057	29660	143906	26781	1058744	44686	111572	0	0	8346	381554	0	0
2024-07-13 22:00:47			0	42465	0	0	0	31062	29670	143874	26706	1058762	44699	111574	0	0	8346	381342	0	0
2024-07-13 22:01:47			0	42466	0	0	0	31054	29670	143782	26748	1058762	44687	111571	0	0	8347	381311	0	0
2024-07-13 22:02:47			0	42478	0	0	0	31054	29670	143834	27156	1058735	44687	111571	0	0	8347	380932	0	0
2024-07-13 22:03:47			0	42462	0	0	0	31049	29660	143830	26819	1058726	44664	111569	0	0	8346	381459	0	0
2024-07-13 22:04:47			0	42471	0	0	0	31041	29660	143882	27199	1058717	44697	111566	0	0	8347	381175	0	0
2024-07-13 22:05:47			0	42459	0	0	0	31041	29650	143874	26996	1058753	44685	111566	0	0	8346	381576	0	0
2024-07-13 22:06:47			0	42476	0	0	0	31036	29650	143818	26993	1058654	44685	111564	0	0	8347	381040	0	0
2024-07-13 22:07:47			0	42473	0	0	0	31036	29650	143794	27015	1058654	44673	111564	0	0	8347	381134	0	0
2024-07-13 22:08:47			0	42481	0	0	0	31031	29650	143794	27046	1058681	44673	111562	0	0	8348	380882	0	0
2024-07-13 22:09:47			0	42506	0	0	0	31031	29650	143742	27234	1058645	44696	111562	0	0	8349	380094	0	0
2024-07-13 22:10:47			0	42484	0	0	0	31025	29640	143738	26887	1058582	44673	111560	0	0	8348	380810	0	0
2024-07-13 22:11:47			0	42492	0	0	0	31036	29640	143754	26975	1058690	44685	111564	0	0	8348	380557	0	0
2024-07-13 22:12:47			0	42503	0	0	0	31028	29640	143754	26748	1058681	44684	111561	0	0	8349	380211	0	0
2024-07-13 22:13:47			0	42495	0	0	0	31025	29640	143730	26942	1058654	44684	111560	0	0	8349	380463	0	0
2024-07-13 22:14:47			0	42483	0	0	0	31020	29620	143706	27138	1058547	44683	111558	0	0	8348	380885	0	0
2024-07-13 22:15:47			0	42504	0	0	0	31007	29630	143678	26845	1058501	44671	111553	0	0	8350	380201	0	0
2024-07-13 22:16:47			0	42508	0	0	0	31002	29620	143774	27147	1058520	44683	111551	0	0	8350	380098	0	0
2024-07-13 22:17:47			0	42519	0	0	0	31010	29620	143766	27041	1058466	44683	111554	0	0	8350	379751	0	0
2024-07-13 22:18:47			0	42525	0	0	0	30999	29620	143718	27126	1058547	44683	111550	0	0	8351	379562	0	0
2024-07-13 22:19:47			0	42522	0	0	0	30999	29610	143774	27168	1058421	44692	111550	0	0	8351	379679	0	0
2024-07-13 22:20:47			0	42519	0	0	0	30999	29610	143670	27182	1058493	44681	111550	0	0	8350	379773	0	0
2024-07-13 22:21:47			0	42532	0	0	0	31005	29610	143610	27029	1058475	44681	111552	0	0	8351	379364	0	0
2024-07-13 22:22:47			0	42509	0	0	0	30999	29610	143730	27149	1058466	44692	111550	0	0	8350	380088	0	0
2024-07-13 22:23:47			0	42537	0	0	0	31002	29610	143722	26960	1058475	44692	111551	0	0	8351	379207	0	0
2024-07-13 22:24:47			0	42537	0	0	0	31005	29610	143698	27211	1058529	44681	111552	0	0	8351	379207	0	0
2024-07-13 22:25:47			0	42541	0	0	0	30992	29610	143662	27202	1058475	44681	111547	0	0	8352	379081	0	0
2024-07-13 22:26:47			0	42545	0	0	0	30994	29610	143702	27060	1058448	44681	111548	0	0	8352	378955	0	0
2024-07-13 22:27:47			0	42548	0	0	0	30997	29620	143682	27024	1058457	44693	111549	0	0	8352	378838	0	0
2024-07-13 22:28:47			0	42557	0	0	0	30994	29610	143562	26946	1058466	44704	111548	0	0	8353	378577	0	0
2024-07-13 22:29:47			0	42567	0	0	0	30992	29610	143554	27114	1058412	44692	111547	0	0	8353	378263	0	0
2024-07-13 22:30:47			0	42550	0	0	0	30999	29610	143614	27079	1058448	44681	111550	0	0	8352	378798	0	0
2024-07-13 22:31:47			0	42584	0	0	0	30994	29610	143558	26819	1058493	44692	111548	0	0	8354	377729	0	0
2024-07-13 22:32:47			0	42594	0	0	0	30997	29610	143578	27164	1058466	44681	111549	0	0	8355	377415	0	0
2024-07-13 22:33:47			0	42572	0	0	0	30994	29600	143478	27232	1058403	44692	111548	0	0	8354	378128	0	0
2024-07-13 22:34:47			0	42602	0	0	0	30989	29600	143582	27281	1058484	44692	111546	0	0	8355	377186	0	0
2024-07-13 22:35:47			0	42597	0	0	0	30986	29600	143506	27281	1058430	44704	111545	0	0	8355	377343	0	0
2024-07-13 22:36:47			0	42582	0	0	0	30984	29600	143550	27159	1058430	44681	111544	0	0	8354	377814	0	0
2024-07-13 22:37:47			0	42594	0	0	0	30981	29580	143570	27199	1058368	44689	111543	0	0	8355	377481	0	0
2024-07-13 22:38:47			0	42585	0	0	0	30971	29610	143574	27069	1058412	44692	111539	0	0	8355	377698	0	0
2024-07-13 22:39:47			0	42606	0	0	0	30976	29600	143514	27185	1058367	44691	111541	0	0	8356	377060	0	0
2024-07-13 22:40:47			0	42593	0	0	0	30976	29590	143550	27007	1058349	44678	111541	0	0	8355	377490	0	0
2024-07-13 22:41:47			0	42602	0	0	0	30968	29600	143494	27019	1058403	44681	111538	0	0	8356	377186	0	0
2024-07-13 22:42:47			0	42604	0	0	0	30968	29590	143514	26738	1058403	44678	111538	0	0	8356	377145	0	0
2024-07-13 22:43:47			0	42601	0	0	0	30966	29580	143530	27119	1058224	44666	111537	0	0	8356	377261	0	0
2024-07-13 22:44:47			0	42581	0	0	0	30948	29580	143578	27242	1058206	44678	111530	0	0	8355	377889	0	0
2024-07-13 22:45:47			0	42593	0	0	0	30935	29560	143450	27360	1058170	44676	111525	0	0	8356	377556	0	0
2024-07-13 22:46:47			0	42593	0	0	0	30935	29570	143486	26842	1058215	44700	111525	0	0	8356	377534	0	0
2024-07-13 22:47:47			0	42603	0	0	0	30924	29570	143494	26993	1058098	44665	111521	0	0	8356	377220	0	0
2024-07-13 22:48:47			0	42594	0	0	0	30901	29550	143414	27059	1057990	44642	111512	0	0	8356	377547	0	0
2024-07-13 22:49:47			0	42558	0	0	0	30893	29540	143538	27062	1058027	44652	111509	0	0	8354	378700	0	0
2024-07-13 22:50:47			0	42584	0	0	0	30890	29530	143570	27102	1058063	44684	111508	0	0	8356	377905	0	0
2024-07-13 22:51:47			0	42573	0	0	0	30890	29520	143614	27088	1058027	44695	111508	0	0	8355	378273	0	0
2024-07-13 22:52:47			0	42569	0	0	0	30896	29520	143542	26986	1058000	44672	111510	0	0	8355	378398	0	0
2024-07-13 22:53:47			0	42579	0	0	0	30888	29530	143570	27168	1058009	44673	111507	0	0	8356	378062	0	0
2024-07-13 22:54:47			0	42543	0	0	0	30888	29520	143658	27216	1058018	44671	111507	0	0	8353	379216	0	0
2024-07-13 22:55:47			0	42538	0	0	0	30877	29520	143670	26800	1057964	44671	111503	0	0	8353	379374	0	0
2024-07-13 22:56:47			0	42539	0	0	0	30872	29520	143730	27093	1057937	44661	111501	0	0	8353	379342	0	0
2024-07-13 22:57:47			0	42528	0	0	0	30870	29500	143670	27222	1057910	44670	111500	0	0	8353	379733	0	0
2024-07-13 22:58:47			0	42515	0	0	0	30864	29520	143702	26951	1057883	44671	111498	0	0	8352	380098	0	0
2024-07-13 22:59:47			0	42499	0	0	0	30854	29500	143798	27057	1057766	44669	111494	0	0	8351	380647	0	0
2024-07-13 23:00:47			0	42511	0	0	0	30846	29480	143866	26883	1057794	44668	111491	0	0	8352	380313	0	0
2024-07-13 23:01:47			0	42480	0	0	0	30836	29480	143866	26769	1057731	44645	111487	0	0	8350	381291	0	0
2024-07-13 23:02:47			0	42492	0	0	0	30825	29470	143850	26986	1057641	44645	111483	0	0	8351	380934	0	0
2024-07-13 23:03:47			0	42476	0	0	0	30815	29460	143918	26824	1057587	44655	111479	0	0	8350	381461	0	0
2024-07-13 23:04:47			0	42472	0	0	0	30818	29450	143902	26866	1057578	44665	111480	0	0	8350	381610	0	0
2024-07-13 23:05:47			0	42466	0	0	0	30802	29440	144010	27204	1057506	44665	111474	0	0	8350	381821	0	0
2024-07-13 23:06:47			0	42449	0	0	0	30802	29440	143898	27131	1057470	44664	111474	0	0	8349	382358	0	0
2024-07-13 23:07:47			0	42433	0	0	0	30784	29440	143950	27171	1057416	44664	111467	0	0	8348	382864	0	0
2024-07-13 23:08:47			0	42436	0	0	0	30761	29430	143926	27013	1057345	44641	111458	0	0	8349	382792	0	0
2024-07-13 23:09:47			0	42440	0	0	0	30742	29400	144034	26920	1057219	44650	111451	0	0	8349	382732	0	0
2024-07-13 23:10:47			0	42419	0	0	0	30745	29400	144030	26972	1057291	44661	111452	0	0	8348	383396	0	0
2024-07-13 23:11:47			0	42407	0	0	0	30732	29390	144082	27594	1057228	44660	111447	0	0	8347	383799	0	0
2024-07-13 23:12:47			0	42395	0	0	0	30735	29380	144134	27196	1057210	44647	111448	0	0	8347	384201	0	0
2024-07-13 23:13:47			0	42366	0	0	0	30722	29380	144230	27034	1057148	44647	111443	0	0	8345	385120	0	0
2024-07-13 23:14:47			0	42386	0	0	0	30701	29370	144226	27128	1057103	44646	111435	0	0	8347	384508	0	0
2024-07-13 23:15:47			0	42392	0	0	0	30693	29350	144206	26817	1057049	44644	111432	0	0	8347	384363	0	0
2024-07-13 23:16:47			0	42363	0	0	0	30677	29340	144326	26967	1057005	44643	111426	0	0	8346	385305	0	0
2024-07-13 23:17:47			0	42387	0	0	0	30677	29340	144254	27095	1056996	44655	111426	0	0	8347	384544	0	0
2024-07-13 23:18:47			0	42352	0	0	0	30680	29330	144274	27334	1056960	44676	111427	0	0	8345	385676	0	0
2024-07-13 23:19:47			0	42351	0	0	0	30680	29330	144290	27215	1056978	44675	111427	0	0	8345	385708	0	0
2024-07-13 23:20:47			0	42351	0	0	0	30685	29330	144326	27150	1057032	44664	111429	0	0	8345	385708	0	0
2024-07-13 23:21:47			0	42335	0	0	0	30688	29330	144262	27197	1056987	44654	111430	0	0	8344	386216	0	0
2024-07-13 23:22:47			0	42324	0	0	0	30696	29340	144386	27223	1057005	44666	111433	0	0	8343	386543	0	0
2024-07-13 23:23:47			0	42311	0	0	0	30709	29330	144390	27234	1057032	44664	111438	0	0	8342	386979	0	0
2024-07-13 23:24:47			0	42325	0	0	0	30703	29320	144358	27258	1056942	44653	111436	0	0	8343	386556	0	0
2024-07-13 23:25:47			0	42308	0	0	0	30667	29310	144486	27194	1056789	44641	111422	0	0	8342	387119	0	0
2024-07-13 23:26:47			0	42328	0	0	0	30628	29300	144382	27180	1056655	44617	111407	0	0	8344	386506	0	0
2024-07-13 23:27:47			0	42304	0	0	0	30618	29290	144482	27112	1056619	44639	111403	0	0	8343	387291	0	0
2024-07-13 23:28:47			0	42321	0	0	0	30618	29270	144526	26923	1056682	44659	111403	0	0	8344	386796	0	0
2024-07-13 23:29:47			0	42328	0	0	0	30628	29270	144418	27012	1056718	44648	111407	0	0	8344	386573	0	0
2024-07-13 23:30:47			0	42310	0	0	0	30651	29250	144510	27119	1056691	44668	111416	0	0	8343	387191	0	0
2024-07-13 23:31:47			0	42311	0	0	0	30659	29280	144530	27140	1056871	44671	111419	0	0	8343	387091	0	0
2024-07-13 23:32:47			0	42312	0	0	0	30680	29290	144630	27029	1056880	44671	111427	0	0	8342	387037	0	0
2024-07-13 23:33:47			0	42303	0	0	0	30690	29290	144602	27052	1056916	44672	111431	0	0	8342	387323	0	0
2024-07-13 23:34:47			0	42306	0	0	0	30703	29300	144654	26795	1056898	44672	111436	0	0	8342	387205	0	0
2024-07-13 23:35:47			0	42297	0	0	0	30727	29310	144654	27085	1057077	44673	111445	0	0	8341	387469	0	0
2024-07-13 23:36:47			0	42292	0	0	0	30727	29310	144618	27187	1057086	44685	111445	0	0	8341	387628	0	0
2024-07-13 23:37:47			0	42284	0	0	0	30740	29320	144578	26920	1057095	44685	111450	0	0	8340	387860	0	0
2024-07-13 23:38:47			0	42300	0	0	0	30755	29320	144654	27197	1057095	44685	111456	0	0	8341	387351	0	0
2024-07-13 23:39:47			0	42287	0	0	0	30761	29340	144686	27119	1057193	44688	111458	0	0	8340	387720	0	0
2024-07-13 23:40:47			0	42294	0	0	0	30761	29350	144718	26795	1057175	44666	111458	0	0	8340	387475	0	0
2024-07-13 23:41:47			0	42275	0	0	0	30771	29340	144642	26889	1057247	44677	111462	0	0	8339	388102	0	0
2024-07-13 23:42:47			0	42282	0	0	0	30776	29350	144670	26922	1057256	44677	111464	0	0	8339	387856	0	0
2024-07-13 23:43:47			0	42290	0	0	0	30776	29360	144634	26857	1057256	44679	111464	0	0	8340	387579	0	0
2024-07-13 23:44:47			0	42273	0	0	0	30776	29360	144586	26618	1057256	44667	111464	0	0	8339	388120	0	0
2024-07-13 23:45:47			0	42290	0	0	0	30773	29350	144686	26922	1057238	44666	111463	0	0	8340	387602	0	0
2024-07-13 23:46:47			0	42294	0	0	0	30763	29360	144590	26868	1057202	44657	111459	0	0	8340	387452	0	0
2024-07-13 23:47:47			0	42284	0	0	0	30758	29360	144650	27069	1057202	44679	111457	0	0	8340	387770	0	0
2024-07-13 23:48:47			0	42273	0	0	0	30758	29360	144658	26989	1057256	44667	111457	0	0	8339	388120	0	0
2024-07-13 23:49:47			0	42303	0	0	0	30753	29360	144642	27159	1057202	44667	111455	0	0	8341	387166	0	0
2024-07-13 23:50:47			0	42297	0	0	0	30750	29360	144610	27067	1057148	44679	111454	0	0	8341	387357	0	0
2024-07-13 23:51:47			0	42292	0	0	0	30740	29360	144682	27211	1057139	44657	111450	0	0	8340	387516	0	0
2024-07-13 23:52:47			0	42293	0	0	0	30740	29350	144678	26866	1057184	44656	111450	0	0	8341	387506	0	0
2024-07-13 23:53:47			0	42291	0	0	0	30729	29340	144706	26880	1057058	44666	111446	0	0	8341	387592	0	0
2024-07-13 23:54:47			0	42282	0	0	0	30724	29340	144538	26996	1057112	44655	111444	0	0	8340	387879	0	0
2024-07-13 23:55:47			0	42295	0	0	0	30719	29350	144662	27166	1057049	44644	111442	0	0	8341	387443	0	0
2024-07-13 23:56:47			0	42294	0	0	0	30716	29340	144662	26932	1057031	44655	111441	0	0	8341	387497	0	0
2024-07-13 23:57:47			0	42288	0	0	0	30698	29330	144626	26760	1057068	44665	111434	0	0	8341	387710	0	0
2024-07-13 23:58:47			0	42299	0	0	0	30709	29330	144590	26908	1057041	44665	111438	0	0	8341	387360	0	0
2024-07-13 23:59:47			0	42285	0	0	0	30698	29320	144646	27003	1057023	44653	111434	0	0	8341	387828	0	0
2024-07-14 00:00:47			0	42286	0	0	0	30696	29320	144610	27074	1056996	44664	111433	0	0	8341	387797	0	0
2024-07-14 00:01:47			0	42294	0	0	0	30685	29320	144658	26852	1056906	44663	111429	0	0	8341	387542	0	0
2024-07-14 00:02:47			0	42290	0	0	0	30690	29320	144622	26800	1056915	44664	111431	0	0	8341	387669	0	0
2024-07-14 00:03:47			0	42291	0	0	0	30685	29310	144622	27130	1056951	44663	111429	0	0	8341	387660	0	0
2024-07-14 00:04:47			0	42297	0	0	0	30685	29310	144566	27007	1056924	44674	111429	0	0	8342	387469	0	0
2024-07-14 00:05:47			0	42322	0	0	0	30683	29310	144554	27131	1056897	44674	111428	0	0	8343	386674	0	0
2024-07-14 00:06:47			0	42295	0	0	0	30677	29300	144650	27157	1056933	44663	111426	0	0	8341	387555	0	0
2024-07-14 00:07:47			0	42292	0	0	0	30690	29310	144522	26998	1056969	44651	111431	0	0	8341	387628	0	0
2024-07-14 00:08:47			0	42294	0	0	0	30675	29300	144682	27279	1056925	44650	111425	0	0	8341	387587	0	0
2024-07-14 00:09:47			0	42314	0	0	0	30677	29310	144558	26734	1056924	44652	111426	0	0	8343	386929	0	0
2024-07-14 00:10:47			0	42315	0	0	0	30685	29300	144518	27046	1056844	44650	111429	0	0	8343	386919	0	0
2024-07-14 00:11:47			0	42314	0	0	0	30672	29300	144530	27000	1056933	44663	111424	0	0	8343	386951	0	0
2024-07-14 00:12:47			0	42332	0	0	0	30672	29300	144522	26909	1056880	44663	111424	0	0	8344	386379	0	0
2024-07-14 00:13:47			0	42332	0	0	0	30672	29310	144506	27026	1056861	44663	111424	0	0	8344	386356	0	0
2024-07-14 00:14:47			0	42332	0	0	0	30677	29300	144546	27088	1056817	44662	111426	0	0	8344	386379	0	0
2024-07-14 00:15:47			0	42354	0	0	0	30685	29300	144458	27326	1056871	44639	111429	0	0	8345	385680	0	0
2024-07-14 00:16:47			0	42331	0	0	0	30677	29290	144398	27071	1056781	44662	111426	0	0	8344	386433	0	0
2024-07-14 00:17:47			0	42369	0	0	0	30664	29290	144502	27206	1056772	44649	111421	0	0	8346	385227	0	0
2024-07-14 00:18:47			0	42360	0	0	0	30657	29290	144402	26762	1056718	44649	111418	0	0	8346	385512	0	0
2024-07-14 00:19:47			0	42351	0	0	0	30651	29270	144530	26719	1056718	44660	111416	0	0	8345	385843	0	0
2024-07-14 00:20:47			0	42369	0	0	0	30654	29270	144434	26790	1056718	44660	111417	0	0	8346	385271	0	0
2024-07-14 00:21:47			0	42363	0	0	0	30651	29270	144402	27066	1056772	44660	111416	0	0	8346	385462	0	0
2024-07-14 00:22:47			0	42367	0	0	0	30646	29260	144378	27013	1056646	44668	111414	0	0	8346	385357	0	0
2024-07-14 00:23:47			0	42367	0	0	0	30659	29260	144378	26994	1056646	44668	111419	0	0	8346	385357	0	0
2024-07-14 00:24:47			0	42372	0	0	0	30646	29250	144350	26712	1056691	44668	111414	0	0	8346	385221	0	0
2024-07-14 00:25:47			0	42380	0	0	0	30641	29270	144322	26942	1056655	44647	111412	0	0	8347	384922	0	0
2024-07-14 00:26:47			0	42399	0	0	0	30657	29270	144282	27185	1056682	44647	111418	0	0	8348	384320	0	0
2024-07-14 00:27:47			0	42410	0	0	0	30641	29260	144238	27235	1056754	44658	111412	0	0	8349	383994	0	0
2024-07-14 00:28:47			0	42423	0	0	0	30636	29250	144198	27150	1056683	44667	111410	0	0	8349	383604	0	0
2024-07-14 00:29:47			0	42409	0	0	0	30638	29250	144206	26949	1056683	44657	111411	0	0	8349	384048	0	0
2024-07-14 00:30:47			0	42424	0	0	0	30636	29250	144238	27232	1056683	44645	111410	0	0	8350	383572	0	0
2024-07-14 00:31:47			0	42451	0	0	0	30638	29250	144266	27215	1056656	44667	111411	0	0	8351	382718	0	0
2024-07-14 00:32:47			0	42417	0	0	0	30641	29240	144178	27100	1056620	44657	111412	0	0	8349	383816	0	0
2024-07-14 00:33:47			0	42437	0	0	0	30633	29240	144266	26941	1056611	44644	111409	0	0	8350	383183	0	0
2024-07-14 00:34:47			0	42435	0	0	0	30628	29240	144162	27093	1056620	44657	111407	0	0	8350	383246	0	0
2024-07-14 00:35:47			0	42449	0	0	0	30623	29240	144166	27086	1056638	44666	111405	0	0	8351	382803	0	0
2024-07-14 00:36:47			0	42437	0	0	0	30638	29230	144130	27003	1056485	44655	111411	0	0	8350	383205	0	0
2024-07-14 00:37:47			0	42464	0	0	0	30620	29240	144190	26779	1056620	44657	111404	0	0	8352	382329	0	0
2024-07-14 00:38:47			0	42456	0	0	0	30618	29230	144194	26807	1056548	44656	111403	0	0	8352	382604	0	0
2024-07-14 00:39:47			0	42468	0	0	0	30625	29230	144146	26878	1056566	44655	111406	0	0	8352	382225	0	0
2024-07-14 00:40:47			0	42460	0	0	0	30618	29230	144134	27081	1056620	44666	111403	0	0	8352	382477	0	0
2024-07-14 00:41:47			0	42472	0	0	0	30620	29230	144150	26979	1056629	44666	111404	0	0	8353	382098	0	0
2024-07-14 00:42:47			0	42483	0	0	0	30633	29220	144090	26882	1056557	44666	111409	0	0	8353	381772	0	0
2024-07-14 00:43:47			0	42465	0	0	0	30620	29220	144002	27064	1056557	44666	111404	0	0	8352	382342	0	0
2024-07-14 00:44:47			0	42492	0	0	0	30625	29230	143930	27079	1056512	44677	111406	0	0	8354	381466	0	0
2024-07-14 00:45:47			0	42502	0	0	0	30610	29220	143934	27031	1056503	44655	111400	0	0	8354	381172	0	0
2024-07-14 00:46:47			0	42497	0	0	0	30612	29220	144034	26779	1056467	44665	111401	0	0	8354	381330	0	0
2024-07-14 00:47:47			0	42501	0	0	0	30607	29210	144102	27100	1056405	44654	111399	0	0	8354	381226	0	0
2024-07-14 00:48:47			0	42476	0	0	0	30597	29210	143970	26993	1056459	44654	111395	0	0	8353	382016	0	0
2024-07-14 00:49:47			0	42492	0	0	0	30602	29210	144042	27008	1056459	44665	111397	0	0	8354	381510	0	0
2024-07-14 00:50:47			0	42493	0	0	0	30597	29200	144058	26889	1056441	44663	111395	0	0	8354	381501	0	0
2024-07-14 00:51:47			0	42503	0	0	0	30592	29200	144038	26663	1056387	44652	111393	0	0	8355	381185	0	0
2024-07-14 00:52:47			0	42505	0	0	0	30592	29210	144010	26807	1056396	44664	111393	0	0	8355	381100	0	0
2024-07-14 00:53:47			0	42517	0	0	0	30584	29190	144046	27022	1056396	44640	111390	0	0	8356	380765	0	0
2024-07-14 00:54:47			0	42509	0	0	0	30594	29200	144030	27007	1056360	44663	111394	0	0	8355	380996	0	0
2024-07-14 00:55:47			0	42502	0	0	0	30592	29190	144014	26968	1056306	44662	111393	0	0	8355	381239	0	0
2024-07-14 00:56:47			0	42507	0	0	0	30579	29190	143982	26965	1056369	44674	111388	0	0	8355	381081	0	0
2024-07-14 00:57:47			0	42510	0	0	0	30581	29200	144018	26949	1056378	44640	111389	0	0	8355	380964	0	0
2024-07-14 00:58:47			0	42497	0	0	0	30581	29190	144190	26987	1056369	44663	111389	0	0	8354	381397	0	0
2024-07-14 00:59:47			0	42503	0	0	0	30576	29190	143990	26847	1056288	44663	111387	0	0	8355	381207	0	0
2024-07-14 01:00:47			0	42502	0	0	0	30576	29190	144078	26802	1056333	44651	111387	0	0	8355	381239	0	0
2024-07-14 01:01:47			0	42500	0	0	0	30576	29190	144090	27244	1056315	44652	111387	0	0	8355	381302	0	0
2024-07-14 01:02:47			0	42500	0	0	0	30568	29180	144138	27130	1056297	44672	111384	0	0	8355	381324	0	0
2024-07-14 01:03:47			0	42480	0	0	0	30571	29180	144062	27092	1056342	44661	111385	0	0	8354	381956	0	0
2024-07-14 01:04:47			0	42492	0	0	0	30571	29170	144106	27013	1056307	44661	111385	0	0	8354	381599	0	0
2024-07-14 01:05:47			0	42469	0	0	0	30574	29180	144178	26802	1056351	44661	111386	0	0	8353	382304	0	0
2024-07-14 01:06:47			0	42466	0	0	0	30566	29180	144086	26904	1056316	44650	111383	0	0	8353	382399	0	0
2024-07-14 01:07:47			0	42469	0	0	0	30561	29180	144174	26909	1056369	44672	111381	0	0	8353	382304	0	0
2024-07-14 01:08:47			0	42486	0	0	0	30574	29180	144126	27019	1056270	44650	111386	0	0	8354	381766	0	0
2024-07-14 01:09:47			0	42451	0	0	0	30571	29180	144198	26967	1056324	44661	111385	0	0	8352	382873	0	0
2024-07-14 01:10:47			0	42453	0	0	0	30568	29170	144242	27048	1056325	44671	111384	0	0	8352	382832	0	0
2024-07-14 01:11:47			0	42475	0	0	0	30574	29170	144294	27119	1056334	44661	111386	0	0	8353	382136	0	0
2024-07-14 01:12:47			0	42463	0	0	0	30568	29170	144378	27123	1056298	44649	111384	0	0	8353	382516	0	0
2024-07-14 01:13:47			0	42452	0	0	0	30568	29170	144278	26977	1056280	44650	111384	0	0	8352	382864	0	0
2024-07-14 01:14:47			0	42455	0	0	0	30574	29170	144314	27131	1056271	44661	111386	0	0	8352	382769	0	0
2024-07-14 01:15:47			0	42454	0	0	0	30576	29160	144330	27088	1056289	44660	111387	0	0	8352	382823	0	0
2024-07-14 01:16:47			0	42431	0	0	0	30568	29170	144322	26786	1056298	44661	111384	0	0	8351	383529	0	0
2024-07-14 01:17:47			0	42420	0	0	0	30568	29170	144274	26948	1056244	44671	111384	0	0	8350	383877	0	0
2024-07-14 01:18:47			0	42436	0	0	0	30558	29170	144262	26987	1056325	44649	111380	0	0	8351	383370	0	0
2024-07-14 01:19:47			0	42441	0	0	0	30553	29170	144438	27609	1056217	44649	111378	0	0	8352	383212	0	0
2024-07-14 01:20:47			0	42435	0	0	0	30558	29150	144358	27046	1056217	44669	111380	0	0	8351	383447	0	0
2024-07-14 01:21:47			0	42453	0	0	0	30550	29160	144390	27029	1056199	44648	111377	0	0	8352	382855	0	0
2024-07-14 01:22:47			0	42458	0	0	0	30553	29150	144406	26875	1056217	44669	111378	0	0	8352	382719	0	0
2024-07-14 01:23:47			0	42430	0	0	0	30563	29160	144418	26791	1056289	44670	111382	0	0	8351	383583	0	0
2024-07-14 01:24:47			0	42413	0	0	0	30566	29160	144342	26778	1056253	44670	111383	0	0	8350	384122	0	0
2024-07-14 01:25:47			0	42428	0	0	0	30574	29180	144306	27059	1056342	44661	111386	0	0	8351	383602	0	0
2024-07-14 01:26:47			0	42440	0	0	0	30576	29180	144270	27001	1056369	44672	111387	0	0	8351	383222	0	0
2024-07-14 01:27:47			0	42430	0	0	0	30581	29180	144374	27258	1056405	44672	111389	0	0	8351	383538	0	0
2024-07-14 01:28:47			0	42449	0	0	0	30586	29180	144362	26882	1056378	44672	111391	0	0	8352	382937	0	0
2024-07-14 01:29:47			0	42448	0	0	0	30597	29200	144282	26797	1056522	44663	111395	0	0	8351	382924	0	0
2024-07-14 01:30:47			0	42439	0	0	0	30605	29190	144282	26866	1056531	44685	111398	0	0	8351	383231	0	0
2024-07-14 01:31:47			0	42437	0	0	0	30607	29200	144302	27197	1056540	44674	111399	0	0	8351	383272	0	0
2024-07-14 01:32:47			0	42459	0	0	0	30602	29200	144298	26705	1056522	44674	111397	0	0	8352	382576	0	0
2024-07-14 01:33:47			0	42449	0	0	0	30602	29200	144218	27012	1056495	44674	111397	0	0	8351	382892	0	0
2024-07-14 01:34:47			0	42444	0	0	0	30602	29200	144238	27215	1056432	44652	111397	0	0	8351	383050	0	0
2024-07-14 01:35:47			0	42475	0	0	0	30594	29200	144310	27253	1056432	44652	111394	0	0	8353	382070	0	0
2024-07-14 01:36:47			0	42465	0	0	0	30586	29180	144266	27189	1056378	44661	111391	0	0	8352	382431	0	0
2024-07-14 01:37:47			0	42446	0	0	0	30584	29190	144214	27064	1056333	44662	111390	0	0	8351	383009	0	0
2024-07-14 01:38:47			0	42460	0	0	0	30571	29180	144162	27138	1056270	44650	111385	0	0	8352	382589	0	0
2024-07-14 01:39:47			0	42467	0	0	0	30563	29180	144262	27192	1056289	44661	111382	0	0	8353	382367	0	0
2024-07-14 01:40:47			0	42465	0	0	0	30558	29170	144290	26909	1056226	44650	111380	0	0	8353	382453	0	0
2024-07-14 01:41:47			0	42478	0	0	0	30555	29170	144190	27331	1056244	44638	111379	0	0	8354	382041	0	0
2024-07-14 01:42:47			0	42472	0	0	0	30553	29170	144106	26915	1056163	44661	111378	0	0	8353	382231	0	0
2024-07-14 01:43:47			0	42486	0	0	0	30537	29160	144154	26960	1056172	44660	111372	0	0	8354	381811	0	0
2024-07-14 01:44:47			0	42476	0	0	0	30542	29160	144182	27180	1056226	44660	111374	0	0	8354	382127	0	0
2024-07-14 01:45:47			0	42489	0	0	0	30542	29150	144242	27280	1056190	44659	111374	0	0	8354	381738	0	0
2024-07-14 01:46:47			0	42485	0	0	0	30537	29160	144158	26920	1056253	44648	111372	0	0	8354	381842	0	0
2024-07-14 01:47:47			0	42491	0	0	0	30545	29150	144134	27112	1056163	44669	111375	0	0	8355	381675	0	0
2024-07-14 01:48:47			0	42496	0	0	0	30540	29150	144102	26850	1056154	44647	111373	0	0	8355	381517	0	0
2024-07-14 01:49:47			0	42488	0	0	0	30540	29150	144170	27055	1056190	44647	111373	0	0	8354	381770	0	0
2024-07-14 01:50:47			0	42515	0	0	0	30540	29150	144106	26901	1056163	44647	111373	0	0	8356	380917	0	0
2024-07-14 01:51:47			0	42501	0	0	0	30542	29140	144086	26759	1056145	44658	111374	0	0	8355	381381	0	0
2024-07-14 01:52:47			0	42503	0	0	0	30529	29140	144110	27055	1056082	44657	111369	0	0	8355	381318	0	0
2024-07-14 01:53:47			0	42511	0	0	0	30527	29150	144058	26842	1056127	44647	111368	0	0	8356	381043	0	0
2024-07-14 01:54:47			0	42520	0	0	0	30535	29130	144026	27180	1056100	44667	111371	0	0	8356	380803	0	0
2024-07-14 01:55:47			0	42531	0	0	0	30537	29140	144106	26930	1056172	44658	111372	0	0	8357	380434	0	0
2024-07-14 01:56:47			0	42513	0	0	0	30527	29130	144074	27109	1056011	44645	111368	0	0	8356	381024	0	0
2024-07-14 01:57:47			0	42519	0	0	0	30532	29140	144062	26668	1056064	44658	111370	0	0	8356	380812	0	0
2024-07-14 01:58:47			0	42519	0	0	0	30514	29130	144042	26835	1056047	44657	111363	0	0	8357	380835	0	0
2024-07-14 01:59:47			0	42531	0	0	0	30516	29120	144034	27079	1056029	44666	111364	0	0	8357	380478	0	0
2024-07-14 02:00:47			0	42547	0	0	0	30509	29130	144078	26755	1055984	44634	111361	0	0	8358	379951	0	0
2024-07-14 02:01:47			0	42536	0	0	0	30506	29130	143994	26639	1056038	44657	111360	0	0	8358	380298	0	0
2024-07-14 02:02:47			0	42553	0	0	0	30509	29130	144014	26970	1055984	44657	111361	0	0	8359	379762	0	0
2024-07-14 02:03:47			0	42548	0	0	0	30498	29120	144054	26729	1055966	44655	111357	0	0	8359	379941	0	0
2024-07-14 02:04:47			0	42555	0	0	0	30498	29120	144078	26918	1055966	44643	111357	0	0	8359	379721	0	0
2024-07-14 02:05:47			0	42546	0	0	0	30501	29120	144018	26970	1055948	44666	111358	0	0	8358	380004	0	0
2024-07-14 02:06:47			0	42552	0	0	0	30480	29110	143926	27017	1055921	44655	111350	0	0	8359	379837	0	0
2024-07-14 02:07:47			0	42560	0	0	0	30488	29110	143918	26859	1055903	44655	111353	0	0	8359	379585	0	0
2024-07-14 02:08:47			0	42567	0	0	0	30490	29110	144002	27244	1055813	44677	111354	0	0	8360	379364	0	0
2024-07-14 02:09:47			0	42569	0	0	0	30490	29100	144038	27327	1055885	44654	111354	0	0	8360	379323	0	0
2024-07-14 02:10:47			0	42569	0	0	0	30490	29100	143986	27173	1055850	44653	111354	0	0	8360	379323	0	0
2024-07-14 02:11:47			0	42576	0	0	0	30480	29100	144058	27225	1055885	44654	111350	0	0	8360	379103	0	0
2024-07-14 02:12:47			0	42557	0	0	0	30477	29100	143994	26868	1055831	44642	111349	0	0	8359	379702	0	0
2024-07-14 02:13:47			0	42552	0	0	0	30475	29090	143958	26986	1055814	44653	111348	0	0	8359	379881	0	0
2024-07-14 02:14:47			0	42558	0	0	0	30467	29090	144006	26849	1055778	44653	111345	0	0	8360	379692	0	0
2024-07-14 02:15:47			0	42587	0	0	0	30480	29080	143998	27237	1055769	44640	111350	0	0	8361	378800	0	0
2024-07-14 02:16:47			0	42576	0	0	0	30472	29080	144082	26838	1055814	44651	111347	0	0	8360	379147	0	0
2024-07-14 02:17:47			0	42569	0	0	0	30454	29080	144058	27027	1055760	44651	111340	0	0	8360	379367	0	0
2024-07-14 02:18:47			0	42570	0	0	0	30454	29070	144082	26960	1055724	44650	111340	0	0	8360	379358	0	0
2024-07-14 02:19:47			0	42588	0	0	0	30449	29070	144014	26935	1055724	44650	111338	0	0	8362	378790	0	0
2024-07-14 02:20:47			0	42566	0	0	0	30451	29070	144002	26731	1055661	44661	111339	0	0	8360	379484	0	0
2024-07-14 02:21:47			0	42588	0	0	0	30451	29070	143962	26986	1055724	44650	111339	0	0	8362	378790	0	0
2024-07-14 02:22:47			0	42581	0	0	0	30441	29070	144074	26963	1055670	44639	111335	0	0	8361	379011	0	0
2024-07-14 02:23:47			0	42583	0	0	0	30433	29050	144014	27072	1055635	44648	111332	0	0	8361	378992	0	0
2024-07-14 02:24:47			0	42595	0	0	0	30438	29060	143950	26949	1055626	44639	111334	0	0	8362	378592	0	0
2024-07-14 02:25:47			0	42575	0	0	0	30444	29060	143886	26961	1055617	44649	111336	0	0	8361	379222	0	0
2024-07-14 02:26:47			0	42586	0	0	0	30418	29050	143910	26750	1055581	44659	111326	0	0	8362	378898	0	0
2024-07-14 02:27:47			0	42597	0	0	0	30425	29050	144022	26795	1055572	44648	111329	0	0	8362	378551	0	0
2024-07-14 02:28:47			0	42567	0	0	0	30423	29050	144006	27067	1055581	44648	111328	0	0	8361	379496	0	0
2024-07-14 02:29:47			0	42598	0	0	0	30407	29050	143982	26923	1055581	44659	111322	0	0	8363	378519	0	0
2024-07-14 02:30:47			0	42575	0	0	0	30420	29040	143914	26729	1055617	44670	111327	0	0	8361	379266	0	0
2024-07-14 02:31:47			0	42578	0	0	0	30415	29040	143902	26845	1055608	44659	111325	0	0	8361	379172	0	0
2024-07-14 02:32:47			0	42597	0	0	0	30418	29030	143922	26752	1055519	44646	111326	0	0	8362	378595	0	0
2024-07-14 02:33:47			0	42582	0	0	0	30410	29030	143910	27012	1055510	44658	111323	0	0	8362	379068	0	0
2024-07-14 02:34:47			0	42605	0	0	0	30412	29040	143910	27102	1055500	44636	111324	0	0	8363	378321	0	0
2024-07-14 02:35:47			0	42570	0	0	0	30407	29030	143982	27144	1055510	44658	111322	0	0	8361	379446	0	0
2024-07-14 02:36:47			0	42590	0	0	0	30407	29020	143982	26930	1055447	44658	111322	0	0	8362	378837	0	0
2024-07-14 02:37:47			0	42589	0	0	0	30402	29020	143842	27232	1055500	44646	111320	0	0	8362	378869	0	0
2024-07-14 02:38:47			0	42589	0	0	0	30407	29020	143886	26909	1055527	44646	111322	0	0	8362	378869	0	0
2024-07-14 02:39:47			0	42579	0	0	0	30405	29020	143938	26961	1055438	44667	111321	0	0	8362	379184	0	0
2024-07-14 02:40:47			0	42596	0	0	0	30397	29020	144050	27019	1055473	44658	111318	0	0	8363	378648	0	0
2024-07-14 02:41:47			0	42584	0	0	0	30392	29010	144054	26889	1055429	44656	111316	0	0	8362	379048	0	0
2024-07-14 02:42:47			0	42585	0	0	0	30392	29010	143998	26734	1055429	44656	111316	0	0	8362	379017	0	0
2024-07-14 02:43:47			0	42609	0	0	0	30397	29010	144070	26916	1055402	44644	111318	0	0	8363	378261	0	0
2024-07-14 02:44:47			0	42603	0	0	0	30381	29010	144022	26765	1055483	44656	111312	0	0	8363	378450	0	0
2024-07-14 02:45:47			0	42574	0	0	0	30389	29010	144058	26819	1055366	44655	111315	0	0	8361	379364	0	0
2024-07-14 02:46:47			0	42587	0	0	0	30379	29010	144014	26866	1055393	44655	111311	0	0	8362	378954	0	0
2024-07-14 02:47:47			0	42607	0	0	0	30384	29010	143934	26981	1055447	44666	111313	0	0	8364	378324	0	0
2024-07-14 02:48:47			0	42591	0	0	0	30384	29000	143986	26963	1055321	44643	111313	0	0	8363	378850	0	0
2024-07-14 02:49:47			0	42602	0	0	0	30386	29000	144014	26923	1055357	44643	111314	0	0	8363	378503	0	0
2024-07-14 02:50:47			0	42611	0	0	0	30376	29000	143986	26726	1055348	44655	111310	0	0	8364	378220	0	0
2024-07-14 02:51:47			0	42600	0	0	0	30381	29000	144062	26687	1055438	44643	111312	0	0	8363	378566	0	0
2024-07-14 02:52:47			0	42593	0	0	0	30381	29000	144010	26807	1055429	44643	111312	0	0	8363	378787	0	0
2024-07-14 02:53:47			0	42613	0	0	0	30381	29000	144030	26850	1055348	44655	111312	0	0	8364	378157	0	0
2024-07-14 02:54:47			0	42604	0	0	0	30384	29000	143990	26729	1055375	44655	111313	0	0	8363	378440	0	0
2024-07-14 02:55:47			0	42631	0	0	0	30368	28990	143974	27078	1055331	44641	111307	0	0	8365	377612	0	0
2024-07-14 02:56:47			0	42611	0	0	0	30379	28990	144014	26613	1055420	44665	111311	0	0	8364	378242	0	0
2024-07-14 02:57:47			0	42616	0	0	0	30379	28990	143986	26576	1055384	44641	111311	0	0	8364	378084	0	0
2024-07-14 02:58:47			0	42614	0	0	0	30379	29000	143914	26904	1055348	44655	111311	0	0	8364	378125	0	0
2024-07-14 02:59:47			0	42604	0	0	0	30373	28980	144006	26701	1055322	44641	111309	0	0	8363	378484	0	0
2024-07-14 03:00:47			0	42606	0	0	0	30373	28980	143954	26524	1055286	44641	111309	0	0	8364	378421	0	0
2024-07-14 03:01:47			0	42631	0	0	0	30371	28990	143994	26863	1055331	44653	111308	0	0	8365	377612	0	0
2024-07-14 03:02:47			0	42617	0	0	0	30363	28980	143950	26909	1055313	44653	111305	0	0	8364	378075	0	0
2024-07-14 03:03:47			0	42602	0	0	0	30361	28980	143882	26771	1055259	44641	111304	0	0	8363	378547	0	0
2024-07-14 03:04:47			0	42610	0	0	0	30361	28980	143998	26585	1055268	44653	111304	0	0	8364	378295	0	0
2024-07-14 03:05:47			0	42615	0	0	0	30363	28970	143994	27182	1055277	44640	111305	0	0	8364	378160	0	0
2024-07-14 03:06:47			0	42620	0	0	0	30366	28980	143966	26712	1055286	44664	111306	0	0	8364	377980	0	0
2024-07-14 03:07:47			0	42625	0	0	0	30363	28980	144026	26842	1055268	44653	111305	0	0	8365	377823	0	0
2024-07-14 03:08:47			0	42629	0	0	0	30363	28970	143958	26748	1055250	44640	111305	0	0	8365	377719	0	0
2024-07-14 03:09:47			0	42622	0	0	0	30361	28970	143906	26597	1055187	44639	111304	0	0	8365	377939	0	0
2024-07-14 03:10:47			0	42653	0	0	0	30353	28970	143946	26989	1055223	44652	111301	0	0	8367	376964	0	0
2024-07-14 03:11:47			0	42629	0	0	0	30342	28970	143914	26866	1055187	44639	111297	0	0	8365	377719	0	0
2024-07-14 03:12:47			0	42636	0	0	0	30348	28950	144014	26634	1055169	44639	111299	0	0	8366	377542	0	0
2024-07-14 03:13:47			0	42635	0	0	0	30358	28950	143918	26606	1055142	44662	111303	0	0	8365	377574	0	0
2024-07-14 03:14:47			0	42631	0	0	0	30353	28960	143946	26875	1055151	44651	111301	0	0	8365	377678	0	0
2024-07-14 03:15:47			0	42631	0	0	0	30355	28960	143914	26802	1055151	44651	111302	0	0	8365	377678	0	0
2024-07-14 03:16:47			0	42636	0	0	0	30350	28950	143958	27048	1055107	44661	111300	0	0	8366	377542	0	0
2024-07-14 03:17:47			0	42633	0	0	0	30340	28950	143870	27078	1055080	44661	111296	0	0	8366	377637	0	0
2024-07-14 03:18:47			0	42620	0	0	0	30340	28950	144074	26550	1055116	44651	111296	0	0	8365	378046	0	0
2024-07-14 03:19:47			0	42616	0	0	0	30329	28930	144006	26759	1055071	44648	111292	0	0	8365	378216	0	0
2024-07-14 03:20:47			0	42619	0	0	0	30329	28930	143954	26942	1055071	44648	111292	0	0	8365	378121	0	0
2024-07-14 03:21:47			0	42633	0	0	0	30316	28920	143966	26894	1055035	44658	111287	0	0	8366	377703	0	0
2024-07-14 03:22:47			0	42615	0	0	0	30316	28920	143934	26930	1054928	44636	111287	0	0	8365	378269	0	0
2024-07-14 03:23:47			0	42629	0	0	0	30306	28920	143938	26979	1055000	44657	111283	0	0	8366	377828	0	0
2024-07-14 03:24:47			0	42609	0	0	0	30303	28920	143990	26963	1054946	44635	111282	0	0	8365	378458	0	0
2024-07-14 03:25:47			0	42608	0	0	0	30303	28920	143986	27031	1054919	44646	111282	0	0	8365	378490	0	0
2024-07-14 03:26:47			0	42604	0	0	0	30296	28910	144014	26868	1054964	44635	111279	0	0	8364	378638	0	0
2024-07-14 03:27:47			0	42601	0	0	0	30311	28910	144026	27092	1054955	44646	111285	0	0	8364	378732	0	0
2024-07-14 03:28:47			0	42591	0	0	0	30309	28900	144098	26850	1054919	44657	111284	0	0	8363	379070	0	0
2024-07-14 03:29:47			0	42590	0	0	0	30316	28910	144042	26642	1054991	44657	111287	0	0	8363	379079	0	0
2024-07-14 03:30:47			0	42584	0	0	0	30314	28910	144158	27079	1055009	44646	111286	0	0	8363	379268	0	0
2024-07-14 03:31:47			0	42565	0	0	0	30314	28910	144078	26750	1054901	44668	111286	0	0	8362	379868	0	0
2024-07-14 03:32:47			0	42557	0	0	0	30316	28900	144242	26861	1054946	44645	111287	0	0	8361	380142	0	0
2024-07-14 03:33:47			0	42548	0	0	0	30322	28900	144214	26746	1054973	44657	111289	0	0	8361	380427	0	0
2024-07-14 03:34:47			0	42547	0	0	0	30311	28910	144362	26686	1054955	44646	111285	0	0	8361	380436	0	0
2024-07-14 03:35:47			0	42547	0	0	0	30306	28900	144358	26897	1054946	44667	111283	0	0	8361	380458	0	0
2024-07-14 03:36:47			0	42542	0	0	0	30306	28890	144270	26953	1054955	44656	111283	0	0	8361	380638	0	0
2024-07-14 03:37:47			0	42505	0	0	0	30306	28890	144298	27170	1054865	44656	111283	0	0	8358	381808	0	0
2024-07-14 03:38:47			0	42514	0	0	0	30301	28890	144390	26899	1054865	44633	111281	0	0	8359	381523	0	0
2024-07-14 03:39:47			0	42497	0	0	0	30288	28890	144350	26698	1054730	44666	111276	0	0	8358	382061	0	0
2024-07-14 03:40:47			0	42508	0	0	0	30288	28880	144498	27208	1054829	44632	111276	0	0	8359	381735	0	0
2024-07-14 03:41:47			0	42477	0	0	0	30288	28880	144526	26955	1054883	44666	111276	0	0	8357	382717	0	0
2024-07-14 03:42:47			0	42476	0	0	0	30290	28890	144542	27222	1054865	44644	111277	0	0	8357	382726	0	0
2024-07-14 03:43:47			0	42469	0	0	0	30293	28880	144546	27241	1054802	44632	111278	0	0	8356	382970	0	0
2024-07-14 03:44:47			0	42460	0	0	0	30290	28880	144558	26968	1054820	44654	111277	0	0	8356	383255	0	0
2024-07-14 03:45:47			0	42433	0	0	0	30285	28880	144550	26783	1054802	44643	111275	0	0	8354	384111	0	0
2024-07-14 03:46:47			0	42436	0	0	0	30277	28860	144658	26998	1054713	44641	111272	0	0	8355	384061	0	0
2024-07-14 03:47:47			0	42412	0	0	0	30275	28870	144682	27029	1054775	44641	111271	0	0	8353	384800	0	0
2024-07-14 03:48:47			0	42419	0	0	0	30264	28870	144658	26778	1054722	44641	111267	0	0	8354	384578	0	0
2024-07-14 03:49:47			0	42397	0	0	0	30264	28860	144662	27022	1054713	44641	111267	0	0	8353	385299	0	0
2024-07-14 03:50:47			0	42392	0	0	0	30262	28850	144758	26791	1054641	44628	111266	0	0	8352	385480	0	0
2024-07-14 03:51:47			0	42374	0	0	0	30254	28850	144782	26760	1054578	44662	111263	0	0	8351	386052	0	0
2024-07-14 03:52:47			0	42368	0	0	0	30249	28850	144862	26870	1054578	44639	111261	0	0	8351	386243	0	0
2024-07-14 03:53:47			0	42351	0	0	0	30238	28840	144838	27015	1054587	44661	111257	0	0	8350	386807	0	0
2024-07-14 03:54:47			0	42375	0	0	0	30228	28840	144842	26868	1054507	44638	111253	0	0	8352	386043	0	0
2024-07-14 03:55:47			0	42337	0	0	0	30228	28820	144870	26700	1054453	44637	111253	0	0	8350	387297	0	0
2024-07-14 03:56:47			0	42323	0	0	0	30215	28830	145034	27085	1054489	44626	111248	0	0	8349	387721	0	0
2024-07-14 03:57:47			0	42320	0	0	0	30210	28830	145034	26916	1054489	44649	111246	0	0	8349	387817	0	0
2024-07-14 03:58:47			0	42305	0	0	0	30205	28830	145046	27086	1054408	44637	111244	0	0	8348	388295	0	0
2024-07-14 03:59:47			0	42309	0	0	0	30197	28820	145078	27107	1054453	44649	111241	0	0	8348	388190	0	0
2024-07-14 04:00:47			0	42315	0	0	0	30194	28810	145110	27036	1054507	44658	111240	0	0	8349	388021	0	0
2024-07-14 04:01:47			0	42274	0	0	0	30186	28810	145218	27074	1054354	44636	111237	0	0	8347	389329	0	0
2024-07-14 04:02:47			0	42255	0	0	0	30194	28800	145218	27229	1054364	44635	111240	0	0	8345	389959	0	0
2024-07-14 04:03:47			0	42278	0	0	0	30184	28810	145226	26883	1054373	44636	111236	0	0	8347	389202	0	0
2024-07-14 04:04:47			0	42248	0	0	0	30179	28810	145322	27130	1054354	44647	111234	0	0	8345	390160	0	0
2024-07-14 04:05:47			0	42239	0	0	0	30174	28800	145338	26887	1054328	44657	111232	0	0	8345	390470	0	0
2024-07-14 04:06:47			0	42228	0	0	0	30174	28790	145298	27067	1054346	44645	111232	0	0	8344	390845	0	0
2024-07-14 04:07:47			0	42226	0	0	0	30168	28790	145302	27149	1054337	44645	111230	0	0	8344	390909	0	0
2024-07-14 04:08:47			0	42212	0	0	0	30161	28790	145402	27079	1054319	44634	111227	0	0	8343	391357	0	0
2024-07-14 04:09:47			0	42222	0	0	0	30155	28780	145398	27326	1054292	44633	111225	0	0	8344	391059	0	0
2024-07-14 04:10:47			0	42219	0	0	0	30158	28780	145458	27123	1054292	44644	111226	0	0	8344	391155	0	0
2024-07-14 04:11:47			0	42209	0	0	0	30148	28770	145478	27197	1054283	44632	111222	0	0	8343	391498	0	0
2024-07-14 04:12:47			0	42195	0	0	0	30148	28770	145514	26953	1054247	44631	111222	0	0	8342	391947	0	0
2024-07-14 04:13:47			0	42205	0	0	0	30140	28770	145466	27190	1054220	44642	111219	0	0	8343	391626	0	0
2024-07-14 04:14:47			0	42201	0	0	0	30137	28770	145486	26930	1054283	44643	111218	0	0	8343	391755	0	0
2024-07-14 04:15:47			0	42192	0	0	0	30142	28770	145470	27159	1054256	44655	111220	0	0	8342	392043	0	0
2024-07-14 04:16:47			0	42178	0	0	0	30155	28770	145666	26970	1054301	44642	111225	0	0	8341	392491	0	0
2024-07-14 04:17:47			0	42178	0	0	0	30158	28780	145606	27171	1054346	44656	111226	0	0	8341	392469	0	0
2024-07-14 04:18:47			0	42176	0	0	0	30171	28770	145598	26852	1054301	44642	111231	0	0	8341	392556	0	0
2024-07-14 04:19:47			0	42165	0	0	0	30166	28770	145686	26937	1054391	44655	111229	0	0	8340	392908	0	0
2024-07-14 04:20:47			0	42168	0	0	0	30168	28780	145654	27121	1054346	44644	111230	0	0	8341	392789	0	0
2024-07-14 04:21:47			0	42163	0	0	0	30163	28790	145646	27130	1054364	44656	111228	0	0	8340	392927	0	0
2024-07-14 04:22:47			0	42185	0	0	0	30176	28780	145598	27057	1054355	44666	111233	0	0	8341	392244	0	0
2024-07-14 04:23:47			0	42174	0	0	0	30166	28780	145622	27100	1054328	44644	111229	0	0	8341	392597	0	0
2024-07-14 04:24:47			0	42180	0	0	0	30181	28790	145626	26899	1054337	44656	111235	0	0	8341	392382	0	0
2024-07-14 04:25:47			0	42185	0	0	0	30171	28780	145578	27055	1054265	44644	111231	0	0	8341	392244	0	0
2024-07-14 04:26:47			0	42189	0	0	0	30174	28770	145638	27128	1054310	44643	111232	0	0	8342	392139	0	0
2024-07-14 04:27:47			0	42171	0	0	0	30161	28780	145686	26909	1054328	44622	111227	0	0	8341	392693	0	0
2024-07-14 04:28:47			0	42158	0	0	0	30161	28780	145582	26993	1054265	44644	111227	0	0	8340	393110	0	0
2024-07-14 04:29:47			0	42166	0	0	0	30163	28780	145614	26875	1054292	44633	111228	0	0	8340	392854	0	0
2024-07-14 04:30:47			0	42164	0	0	0	30158	28770	145686	26904	1054283	44632	111226	0	0	8340	392940	0	0
2024-07-14 04:31:47			0	42158	0	0	0	30150	28770	145738	26953	1054202	44643	111223	0	0	8340	393133	0	0
2024-07-14 04:32:47			0	42155	0	0	0	30153	28770	145710	26842	1054247	44654	111224	0	0	8340	393229	0	0
2024-07-14 04:33:47			0	42139	0	0	0	30150	28760	145678	26927	1054239	44631	111223	0	0	8339	393766	0	0
2024-07-14 04:34:47			0	42137	0	0	0	30148	28770	145814	27086	1054193	44631	111222	0	0	8339	393807	0	0
2024-07-14 04:35:47			0	42138	0	0	0	30145	28750	145818	27118	1054167	44641	111221	0	0	8339	393821	0	0
2024-07-14 04:36:47			0	42140	0	0	0	30137	28760	145854	26981	1054149	44631	111218	0	0	8339	393733	0	0
2024-07-14 04:37:47			0	42114	0	0	0	30135	28760	145794	26800	1054185	44642	111217	0	0	8338	394569	0	0
2024-07-14 04:38:47			0	42119	0	0	0	30129	28750	145778	26939	1054113	44653	111215	0	0	8338	394431	0	0
2024-07-14 04:39:47			0	42104	0	0	0	30135	28750	145862	27130	1054131	44640	111217	0	0	8337	394913	0	0
2024-07-14 04:40:47			0	42112	0	0	0	30111	28740	145874	27003	1054060	44628	111208	0	0	8338	394679	0	0
2024-07-14 04:41:47			0	42087	0	0	0	30109	28730	145910	27050	1053997	44628	111207	0	0	8337	395506	0	0
2024-07-14 04:42:47			0	42094	0	0	0	30103	28730	145914	26956	1053997	44617	111205	0	0	8337	395280	0	0
2024-07-14 04:43:47			0	42092	0	0	0	30101	28730	145906	27263	1054015	44638	111204	0	0	8337	395345	0	0
2024-07-14 04:44:47			0	42091	0	0	0	30101	28730	145846	27230	1053988	44638	111204	0	0	8337	395377	0	0
2024-07-14 04:45:47			0	42084	0	0	0	30101	28730	145982	26845	1054042	44638	111204	0	0	8337	395602	0	0
2024-07-14 04:46:47			0	42080	0	0	0	30090	28730	145946	26981	1054069	44638	111200	0	0	8337	395731	0	0
2024-07-14 04:47:47			0	42056	0	0	0	30101	28740	145949	27026	1054006	44639	111204	0	0	8335	396481	0	0
2024-07-14 04:48:47			0	42069	0	0	0	30093	28720	145921	27067	1053979	44638	111201	0	0	8336	396108	0	0
2024-07-14 04:49:47			0	42066	0	0	0	30096	28710	145969	26951	1053961	44626	111202	0	0	8336	396228	0	0
2024-07-14 04:50:47			0	42064	0	0	0	30080	28710	145921	26922	1053899	44625	111196	0	0	8336	396292	0	0
2024-07-14 04:51:47			0	42056	0	0	0	30072	28700	145973	27119	1053827	44614	111193	0	0	8335	396573	0	0
2024-07-14 04:52:47			0	42057	0	0	0	30062	28700	145997	27102	1053800	44625	111189	0	0	8336	396541	0	0
2024-07-14 04:53:47			0	42049	0	0	0	30051	28690	146061	26922	1053737	44614	111185	0	0	8335	396821	0	0
2024-07-14 04:54:47			0	42050	0	0	0	30041	28680	146021	27033	1053711	44634	111181	0	0	8335	396812	0	0
2024-07-14 04:55:47			0	42050	0	0	0	30038	28670	145965	26882	1053675	44633	111180	0	0	8335	396835	0	0
2024-07-14 04:56:47			0	42048	0	0	0	30038	28670	146097	27177	1053729	44622	111180	0	0	8335	396900	0	0
2024-07-14 04:57:47			0	42036	0	0	0	30036	28660	146037	26826	1053720	44622	111179	0	0	8335	397309	0	0
2024-07-14 04:58:47			0	42036	0	0	0	30031	28660	146021	27118	1053639	44622	111177	0	0	8335	397309	0	0
2024-07-14 04:59:47			0	42029	0	0	0	30023	28660	146117	27059	1053603	44632	111174	0	0	8334	397535	0	0
2024-07-14 05:00:47			0	42016	0	0	0	30020	28650	146113	27027	1053612	44631	111173	0	0	8334	397978	0	0
2024-07-14 05:01:47			0	42016	0	0	0	30005	28650	146089	27074	1053567	44610	111167	0	0	8334	397978	0	0
2024-07-14 05:02:47			0	42016	0	0	0	30007	28640	146089	26800	1053522	44631	111168	0	0	8334	398001	0	0
2024-07-14 05:03:47			0	42021	0	0	0	29986	28630	146229	26868	1053442	44607	111160	0	0	8334	397863	0	0
2024-07-14 05:04:47			0	42027	0	0	0	29986	28630	146185	27069	1053442	44618	111160	0	0	8335	397669	0	0
2024-07-14 05:05:47			0	42011	0	0	0	29979	28620	146241	26675	1053451	44617	111157	0	0	8334	398208	0	0
2024-07-14 05:06:47			0	42024	0	0	0	29976	28620	146185	26618	1053397	44606	111156	0	0	8335	397789	0	0
2024-07-14 05:07:47			0	42005	0	0	0	29984	28610	146245	26967	1053361	44617	111159	0	0	8333	398425	0	0
2024-07-14 05:08:47			0	41984	0	0	0	29971	28620	146289	26845	1053343	44628	111154	0	0	8332	399081	0	0
2024-07-14 05:09:47			0	41991	0	0	0	29955	28600	146241	26944	1053263	44604	111148	0	0	8333	398901	0	0
2024-07-14 05:10:47			0	41992	0	0	0	29950	28590	146325	26970	1053183	44625	111146	0	0	8333	398892	0	0
2024-07-14 05:11:47			0	41976	0	0	0	29927	28580	146365	27164	1053192	44614	111137	0	0	8333	399432	0	0
2024-07-14 05:12:47			0	42002	0	0	0	29919	28580	146313	27206	1053138	44602	111134	0	0	8334	398592	0	0
2024-07-14 05:13:47			0	41987	0	0	0	29911	28560	146465	26797	1053102	44611	111131	0	0	8333	399123	0	0
2024-07-14 05:14:47			0	41983	0	0	0	29914	28560	146409	26925	1053084	44623	111132	0	0	8333	399252	0	0
2024-07-14 05:15:47			0	41973	0	0	0	29911	28560	146413	27060	1053102	44622	111131	0	0	8333	399575	0	0
2024-07-14 05:16:47			0	41985	0	0	0	29903	28550	146333	26779	1053121	44622	111128	0	0	8333	399210	0	0
2024-07-14 05:17:47			0	41988	0	0	0	29901	28550	146429	27088	1053040	44611	111127	0	0	8334	399113	0	0
2024-07-14 05:18:47			0	41990	0	0	0	29896	28550	146405	27013	1053031	44622	111125	0	0	8334	399049	0	0
2024-07-14 05:19:47			0	41982	0	0	0	29896	28540	146317	27145	1053022	44610	111125	0	0	8333	399331	0	0
2024-07-14 05:20:47			0	41982	0	0	0	29885	28540	146473	26871	1052914	44598	111121	0	0	8334	399331	0	0
2024-07-14 05:21:47			0	41971	0	0	0	29888	28530	146369	27211	1052915	44620	111122	0	0	8333	399709	0	0
2024-07-14 05:22:47			0	41973	0	0	0	29875	28520	146417	26870	1052897	44607	111117	0	0	8333	399668	0	0
2024-07-14 05:23:47			0	41966	0	0	0	29870	28520	146465	26890	1052897	44618	111115	0	0	8333	399894	0	0
2024-07-14 05:24:47			0	41977	0	0	0	29875	28510	146477	26908	1052888	44618	111117	0	0	8333	399561	0	0
2024-07-14 05:25:47			0	41966	0	0	0	29870	28510	146477	26955	1052852	44607	111115	0	0	8333	399918	0	0
2024-07-14 05:26:47			0	41976	0	0	0	29870	28510	146437	26736	1052825	44629	111115	0	0	8333	399594	0	0
2024-07-14 05:27:47			0	41970	0	0	0	29857	28500	146449	27185	1052843	44606	111110	0	0	8333	399811	0	0
2024-07-14 05:28:47			0	41980	0	0	0	29854	28490	146525	27232	1052736	44615	111109	0	0	8334	399511	0	0
2024-07-14 05:29:47			0	41965	0	0	0	29846	28490	146537	26960	1052736	44615	111106	0	0	8333	399996	0	0
2024-07-14 05:30:47			0	41975	0	0	0	29841	28490	146561	26870	1052682	44604	111104	0	0	8334	399673	0	0
2024-07-14 05:31:47			0	41949	0	0	0	29836	28480	146529	27031	1052664	44614	111102	0	0	8332	400537	0	0
2024-07-14 05:32:47			0	41973	0	0	0	29831	28470	146545	27050	1052619	44625	111100	0	0	8334	399783	0	0
2024-07-14 05:33:47			0	41960	0	0	0	29825	28470	146581	27176	1052682	44602	111098	0	0	8333	400204	0	0
2024-07-14 05:34:47			0	41968	0	0	0	29833	28470	146621	26991	1052628	44613	111101	0	0	8333	399945	0	0
2024-07-14 05:35:47			0	41971	0	0	0	29838	28460	146525	27107	1052611	44602	111103	0	0	8333	399871	0	0
2024-07-14 05:36:47			0	41981	0	0	0	29831	28460	146589	26785	1052638	44625	111100	0	0	8334	399548	0	0
2024-07-14 05:37:47			0	41961	0	0	0	29823	28470	146505	27346	1052619	44613	111097	0	0	8333	400172	0	0
2024-07-14 05:38:47			0	41971	0	0	0	29836	28460	146501	27267	1052656	44613	111102	0	0	8333	399871	0	0
2024-07-14 05:39:47			0	41970	0	0	0	29831	28470	146497	27237	1052655	44625	111100	0	0	8333	399881	0	0
2024-07-14 05:40:47			0	41978	0	0	0	29838	28460	146621	27163	1052656	44624	111103	0	0	8334	399645	0	0
2024-07-14 05:41:47			0	41961	0	0	0	29836	28460	146453	27248	1052638	44635	111102	0	0	8333	400195	0	0
2024-07-14 05:42:47			0	41969	0	0	0	29846	28470	146541	27206	1052727	44625	111106	0	0	8333	399913	0	0
2024-07-14 05:43:47			0	41984	0	0	0	29849	28470	146537	26928	1052655	44625	111107	0	0	8334	399427	0	0
2024-07-14 05:44:47			0	41967	0	0	0	29841	28460	146481	27315	1052665	44625	111104	0	0	8333	400001	0	0
2024-07-14 05:45:47			0	41980	0	0	0	29844	28460	146545	26987	1052638	44625	111105	0	0	8334	399580	0	0
2024-07-14 05:46:47			0	41960	0	0	0	29854	28460	146537	27421	1052718	44625	111109	0	0	8332	400228	0	0
2024-07-14 05:47:47			0	41971	0	0	0	29844	28460	146497	27164	1052665	44613	111105	0	0	8333	399871	0	0
2024-07-14 05:48:47			0	41973	0	0	0	29846	28460	146513	27234	1052638	44625	111106	0	0	8333	399807	0	0
2024-07-14 05:49:47			0	41973	0	0	0	29844	28460	146485	26923	1052683	44624	111105	0	0	8333	399807	0	0
2024-07-14 05:50:47			0	41991	0	0	0	29838	28450	146477	27303	1052593	44623	111103	0	0	8334	399247	0	0
2024-07-14 05:51:47			0	41989	0	0	0	29841	28460	146545	26967	1052611	44613	111104	0	0	8334	399289	0	0
2024-07-14 05:52:47			0	41997	0	0	0	29854	28460	146445	27104	1052665	44613	111109	0	0	8335	399030	0	0
2024-07-14 05:53:47			0	41989	0	0	0	29846	28450	146473	27223	1052647	44612	111106	0	0	8334	399312	0	0
2024-07-14 05:54:47			0	41999	0	0	0	29846	28460	146433	26904	1052691	44625	111106	0	0	8335	398965	0	0
2024-07-14 05:55:47			0	42016	0	0	0	29844	28470	146389	27222	1052673	44613	111105	0	0	8336	398393	0	0
2024-07-14 05:56:47			0	41995	0	0	0	29862	28460	146381	27225	1052665	44613	111112	0	0	8334	399095	0	0
2024-07-14 05:57:47			0	41999	0	0	0	29851	28470	146473	27055	1052673	44613	111108	0	0	8335	398942	0	0
2024-07-14 05:58:47			0	42005	0	0	0	29859	28460	146485	27270	1052656	44613	111111	0	0	8335	398771	0	0
2024-07-14 05:59:47			0	42007	0	0	0	29859	28460	146421	27256	1052656	44613	111111	0	0	8335	398707	0	0
2024-07-14 06:00:47			0	42032	0	0	0	29846	28460	146445	27215	1052656	44601	111106	0	0	8337	397899	0	0
2024-07-14 06:01:47			0	42007	0	0	0	29838	28460	146301	27015	1052602	44624	111103	0	0	8335	398707	0	0
2024-07-14 06:02:47			0	42038	0	0	0	29844	28460	146337	27053	1052665	44613	111105	0	0	8337	397705	0	0
2024-07-14 06:03:47			0	42057	0	0	0	29844	28460	146385	27152	1052629	44613	111105	0	0	8338	397092	0	0
2024-07-14 06:04:47			0	42054	0	0	0	29846	28450	146297	27088	1052701	44623	111106	0	0	8338	397211	0	0
2024-07-14 06:05:47			0	42049	0	0	0	29838	28460	146461	27066	1052665	44625	111103	0	0	8338	397350	0	0
2024-07-14 06:06:47			0	42050	0	0	0	29844	28450	146193	27272	1052620	44633	111105	0	0	8338	397341	0	0
2024-07-14 06:07:47			0	42055	0	0	0	29841	28460	146237	27112	1052656	44624	111104	0	0	8338	397156	0	0
2024-07-14 06:08:47			0	42065	0	0	0	29846	28460	146265	27176	1052683	44624	111106	0	0	8339	396834	0	0
2024-07-14 06:09:47			0	42058	0	0	0	29838	28450	146169	26890	1052620	44623	111103	0	0	8338	397082	0	0
2024-07-14 06:10:47			0	42079	0	0	0	29833	28460	146349	27197	1052629	44634	111101	0	0	8340	396382	0	0
2024-07-14 06:11:47			0	42066	0	0	0	29846	28450	146233	26949	1052620	44612	111106	0	0	8339	396824	0	0
2024-07-14 06:12:47			0	42103	0	0	0	29836	28460	146202	27119	1052656	44613	111102	0	0	8341	395609	0	0
2024-07-14 06:13:47			0	42086	0	0	0	29831	28450	146066	27086	1052665	44600	111100	0	0	8340	396179	0	0
2024-07-14 06:14:47			0	42114	0	0	0	29831	28450	146142	27272	1052566	44623	111100	0	0	8342	395277	0	0
2024-07-14 06:15:47			0	42104	0	0	0	29825	28450	146178	27007	1052539	44600	111098	0	0	8341	395599	0	0
2024-07-14 06:16:47			0	42121	0	0	0	29828	28450	146086	26908	1052566	44612	111099	0	0	8342	395052	0	0
2024-07-14 06:17:47			0	42104	0	0	0	29823	28450	146126	27116	1052530	44633	111097	0	0	8341	395599	0	0
2024-07-14 06:18:47			0	42123	0	0	0	29820	28440	146026	27248	1052566	44622	111096	0	0	8342	395010	0	0
2024-07-14 06:19:47			0	42124	0	0	0	29823	28440	146062	27152	1052539	44611	111097	0	0	8342	394978	0	0
2024-07-14 06:20:47			0	42128	0	0	0	29828	28440	146150	27000	1052566	44599	111099	0	0	8343	394850	0	0
2024-07-14 06:21:47			0	42130	0	0	0	29823	28440	146046	27246	1052566	44622	111097	0	0	8343	394785	0	0
2024-07-14 06:22:47			0	42168	0	0	0	29818	28440	145942	27166	1052539	44611	111095	0	0	8345	393563	0	0
2024-07-14 06:23:47			0	42160	0	0	0	29812	28430	145930	26975	1052522	44631	111093	0	0	8345	393843	0	0
2024-07-14 06:24:47			0	42159	0	0	0	29812	28440	145970	27055	1052539	44611	111093	0	0	8345	393852	0	0
2024-07-14 06:25:47			0	42174	0	0	0	29802	28430	145894	27135	1052495	44609	111089	0	0	8346	393393	0	0
2024-07-14 06:26:47			0	42165	0	0	0	29802	28420	145950	26977	1052540	44597	111089	0	0	8345	393705	0	0
2024-07-14 06:27:47			0	42177	0	0	0	29797	28420	145898	26968	1052486	44609	111087	0	0	8346	393320	0	0
2024-07-14 06:28:47			0	42192	0	0	0	29805	28420	145954	27291	1052513	44620	111090	0	0	8347	392838	0	0
2024-07-14 06:29:47			0	42194	0	0	0	29799	28420	145790	27071	1052486	44597	111088	0	0	8347	392774	0	0
2024-07-14 06:30:47			0	42203	0	0	0	29802	28420	145846	27076	1052486	44620	111089	0	0	8347	392485	0	0
2024-07-14 06:31:47			0	42208	0	0	0	29807	28410	145770	26902	1052468	44630	111091	0	0	8347	392347	0	0
2024-07-14 06:32:47			0	42227	0	0	0	29797	28420	145790	27124	1052486	44620	111087	0	0	8349	391715	0	0
2024-07-14 06:33:47			0	42223	0	0	0	29797	28420	145722	27358	1052477	44609	111087	0	0	8349	391843	0	0
2024-07-14 06:34:47			0	42218	0	0	0	29792	28420	145710	27166	1052396	44620	111085	0	0	8348	392004	0	0
2024-07-14 06:35:47			0	42232	0	0	0	29789	28410	145574	27128	1052432	44618	111084	0	0	8349	391577	0	0
2024-07-14 06:36:47			0	42250	0	0	0	29789	28400	145674	27289	1052289	44629	111084	0	0	8350	391023	0	0
2024-07-14 06:37:47			0	42251	0	0	0	29797	28410	145570	26953	1052432	44618	111087	0	0	8350	390968	0	0
2024-07-14 06:38:47			0	42268	0	0	0	29810	28410	145714	27010	1052486	44618	111092	0	0	8351	390424	0	0
2024-07-14 06:39:47			0	42269	0	0	0	29805	28410	145638	26982	1052549	44619	111090	0	0	8351	390392	0	0
2024-07-14 06:40:47			0	42279	0	0	0	29810	28410	145574	27156	1052441	44630	111092	0	0	8352	390072	0	0
2024-07-14 06:41:47			0	42289	0	0	0	29797	28420	145486	27130	1052486	44609	111087	0	0	8352	389729	0	0
2024-07-14 06:42:47			0	42278	0	0	0	29807	28420	145470	26918	1052513	44620	111091	0	0	8352	390081	0	0
2024-07-14 06:43:47			0	42288	0	0	0	29812	28430	145566	26965	1052549	44609	111093	0	0	8352	389739	0	0
2024-07-14 06:44:47			0	42301	0	0	0	29812	28420	145530	27253	1052504	44609	111093	0	0	8353	389345	0	0
2024-07-14 06:45:47			0	42301	0	0	0	29797	28410	145602	27433	1052513	44607	111087	0	0	8353	389368	0	0
2024-07-14 06:46:47			0	42324	0	0	0	29805	28420	145526	27355	1052477	44597	111090	0	0	8354	388610	0	0
2024-07-14 06:47:47			0	42313	0	0	0	29810	28430	145538	27060	1052549	44620	111092	0	0	8354	388940	0	0
2024-07-14 06:48:47			0	42334	0	0	0	29802	28420	145538	27414	1052513	44609	111089	0	0	8355	388291	0	0
2024-07-14 06:49:47			0	42321	0	0	0	29807	28410	145526	27279	1052495	44619	111091	0	0	8354	388729	0	0
2024-07-14 06:50:47			0	42315	0	0	0	29805	28420	145482	27383	1052504	44609	111090	0	0	8354	388898	0	0
2024-07-14 06:51:47			0	42324	0	0	0	29807	28420	145522	27633	1052504	44631	111091	0	0	8354	388610	0	0
2024-07-14 06:52:47			0	42357	0	0	0	29810	28420	145454	27059	1052486	44609	111092	0	0	8356	387557	0	0
2024-07-14 06:53:47			0	42336	0	0	0	29812	28430	145458	27305	1052576	44642	111093	0	0	8355	388205	0	0
2024-07-14 06:54:47			0	42347	0	0	0	29812	28430	145498	27241	1052549	44631	111093	0	0	8356	387854	0	0
2024-07-14 06:55:47			0	42369	0	0	0	29810	28420	145434	27156	1052477	44609	111092	0	0	8357	387174	0	0
2024-07-14 06:56:47			0	42359	0	0	0	29818	28420	145382	27020	1052540	44620	111095	0	0	8356	387493	0	0
2024-07-14 06:57:47			0	42377	0	0	0	29810	28420	145446	27407	1052594	44620	111092	0	0	8357	386919	0	0
2024-07-14 06:58:47			0	42368	0	0	0	29810	28430	145358	27178	1052549	44631	111092	0	0	8357	387184	0	0
2024-07-14 06:59:47			0	42371	0	0	0	29825	28430	145370	27374	1052549	44620	111098	0	0	8357	387088	0	0
2024-07-14 07:00:47			0	42373	0	0	0	29812	28420	145366	27447	1052531	44609	111093	0	0	8357	387047	0	0
2024-07-14 07:01:47			0	42367	0	0	0	29820	28430	145330	27218	1052549	44631	111096	0	0	8357	387216	0	0
2024-07-14 07:02:47			0	42383	0	0	0	29823	28430	145326	27621	1052576	44609	111097	0	0	8357	386706	0	0
2024-07-14 07:03:47			0	42397	0	0	0	29823	28440	145290	27322	1052566	44622	111097	0	0	8358	386237	0	0
2024-07-14 07:04:47			0	42396	0	0	0	29825	28430	145310	27081	1052611	44598	111098	0	0	8358	386291	0	0
2024-07-14 07:05:47			0	42395	0	0	0	29831	28430	145330	27308	1052630	44620	111100	0	0	8358	386323	0	0
2024-07-14 07:06:47			0	42395	0	0	0	29836	28430	145382	27105	1052611	44643	111102	0	0	8358	386323	0	0
2024-07-14 07:07:47			0	42401	0	0	0	29833	28440	145302	27308	1052593	44622	111101	0	0	8358	386110	0	0
2024-07-14 07:08:47			0	42404	0	0	0	29841	28440	145310	27261	1052566	44622	111104	0	0	8358	386014	0	0
2024-07-14 07:09:47			0	42416	0	0	0	29833	28440	145250	27267	1052620	44611	111101	0	0	8359	385632	0	0
2024-07-14 07:10:47			0	42417	0	0	0	29844	28430	145346	27300	1052611	44621	111105	0	0	8359	385623	0	0
2024-07-14 07:11:47			0	42424	0	0	0	29838	28440	145270	27254	1052575	44612	111103	0	0	8360	385378	0	0
2024-07-14 07:12:47			0	42437	0	0	0	29833	28440	145250	27303	1052620	44632	111101	0	0	8360	384964	0	0
2024-07-14 07:13:47			0	42411	0	0	0	29836	28440	145254	27013	1052656	44612	111102	0	0	8359	385791	0	0
2024-07-14 07:14:47			0	42429	0	0	0	29841	28440	145238	27398	1052683	44623	111104	0	0	8360	385218	0	0
2024-07-14 07:15:47			0	42427	0	0	0	29844	28440	145142	27296	1052710	44633	111105	0	0	8360	385282	0	0
2024-07-14 07:16:47			0	42434	0	0	0	29846	28440	145266	27485	1052656	44623	111106	0	0	8360	385060	0	0
2024-07-14 07:17:47			0	42446	0	0	0	29841	28440	145138	27081	1052683	44633	111104	0	0	8361	384678	0	0
2024-07-14 07:18:47			0	42439	0	0	0	29854	28450	145046	27374	1052665	44633	111109	0	0	8360	384878	0	0
2024-07-14 07:19:47			0	42445	0	0	0	29844	28450	145114	27072	1052728	44612	111105	0	0	8361	384687	0	0
2024-07-14 07:20:47			0	42454	0	0	0	29854	28440	145094	27326	1052737	44612	111109	0	0	8361	384424	0	0
2024-07-14 07:21:47			0	42458	0	0	0	29867	28450	145122	27192	1052701	44633	111114	0	0	8361	384274	0	0
2024-07-14 07:22:47			0	42443	0	0	0	29875	28460	145066	27497	1052763	44634	111117	0	0	8360	384729	0	0
2024-07-14 07:23:47			0	42448	0	0	0	29870	28460	145098	27066	1052736	44646	111115	0	0	8361	384570	0	0
2024-07-14 07:24:47			0	42462	0	0	0	29864	28470	145134	27374	1052781	44635	111113	0	0	8362	384103	0	0
2024-07-14 07:25:47			0	42463	0	0	0	29875	28470	145058	27395	1052817	44625	111117	0	0	8361	384071	0	0
2024-07-14 07:26:47			0	42464	0	0	0	29880	28470	144982	27216	1052817	44613	111119	0	0	8361	384039	0	0
2024-07-14 07:27:47			0	42469	0	0	0	29880	28480	144998	27345	1052853	44625	111119	0	0	8362	383858	0	0
2024-07-14 07:28:47			0	42474	0	0	0	29885	28480	145002	27202	1052835	44626	111121	0	0	8362	383699	0	0
2024-07-14 07:29:47			0	42478	0	0	0	29893	28480	144974	27206	1052880	44614	111124	0	0	8362	383572	0	0
2024-07-14 07:30:47			0	42483	0	0	0	29880	28480	145086	27112	1052826	44636	111119	0	0	8363	383414	0	0
2024-07-14 07:31:47			0	42488	0	0	0	29875	28480	144978	27409	1052799	44625	111117	0	0	8363	383255	0	0
2024-07-14 07:32:47			0	42482	0	0	0	29875	28480	145018	27185	1052853	44592	111117	0	0	8363	383445	0	0
2024-07-14 07:33:47			0	42482	0	0	0	29872	28480	145030	27175	1052799	44636	111116	0	0	8363	383445	0	0
2024-07-14 07:34:47			0	42480	0	0	0	29870	28480	145006	27228	1052772	44603	111115	0	0	8363	383509	0	0
2024-07-14 07:35:47			0	42485	0	0	0	29872	28480	145034	27180	1052853	44614	111116	0	0	8363	383350	0	0
2024-07-14 07:36:47			0	42489	0	0	0	29872	28470	144994	27147	1052817	44625	111116	0	0	8363	383245	0	0
2024-07-14 07:37:47			0	42499	0	0	0	29888	28470	145042	27161	1052871	44613	111122	0	0	8363	382928	0	0
2024-07-14 07:38:47			0	42494	0	0	0	29893	28480	144994	27213	1052853	44625	111124	0	0	8363	383065	0	0
2024-07-14 07:39:47			0	42483	0	0	0	29909	28480	145038	27253	1052942	44637	111130	0	0	8362	383414	0	0
2024-07-14 07:40:47			0	42496	0	0	0	29914	28490	144998	27275	1052951	44637	111132	0	0	8363	382979	0	0
2024-07-14 07:41:47			0	42491	0	0	0	29916	28490	144918	27299	1052960	44626	111133	0	0	8362	383138	0	0
2024-07-14 07:42:47			0	42494	0	0	0	29922	28500	144918	27031	1053023	44638	111135	0	0	8363	383020	0	0
2024-07-14 07:43:47			0	42487	0	0	0	29929	28510	144922	27229	1053022	44640	111138	0	0	8362	383220	0	0
2024-07-14 07:44:47			0	42491	0	0	0	29922	28500	144886	27052	1053050	44638	111135	0	0	8362	383115	0	0
2024-07-14 07:45:47			0	42491	0	0	0	29932	28520	144954	27355	1053112	44640	111139	0	0	8362	383071	0	0
2024-07-14 07:46:47			0	42486	0	0	0	29932	28510	144894	27147	1053121	44640	111139	0	0	8362	383252	0	0
2024-07-14 07:47:47			0	42491	0	0	0	29953	28520	144894	27178	1053166	44640	111147	0	0	8362	383071	0	0
2024-07-14 07:48:47			0	42464	0	0	0	29971	28530	144990	27277	1053247	44642	111154	0	0	8360	383906	0	0
2024-07-14 07:49:47			0	42489	0	0	0	29992	28550	144918	27372	1053354	44655	111162	0	0	8361	383068	0	0
2024-07-14 07:50:47			0	42463	0	0	0	30007	28570	144922	27190	1053497	44679	111168	0	0	8360	383849	0	0
2024-07-14 07:51:47			0	42475	0	0	0	30012	28570	144934	27313	1053497	44657	111170	0	0	8360	383468	0	0
2024-07-14 07:52:47			0	42487	0	0	0	30015	28580	144866	27065	1053488	44658	111171	0	0	8361	383065	0	0
2024-07-14 07:53:47			0	42477	0	0	0	30015	28580	144898	27256	1053488	44647	111171	0	0	8360	383382	0	0
2024-07-14 07:54:47			0	42481	0	0	0	30020	28580	144894	27267	1053515	44647	111173	0	0	8360	383255	0	0
2024-07-14 07:55:47			0	42478	0	0	0	30020	28590	144882	27209	1053533	44648	111173	0	0	8360	383328	0	0
2024-07-14 07:56:47			0	42476	0	0	0	30025	28600	144966	27104	1053524	44649	111175	0	0	8360	383370	0	0
2024-07-14 07:57:47			0	42458	0	0	0	30041	28600	144982	27260	1053586	44637	111181	0	0	8359	383941	0	0
2024-07-14 07:58:47			0	42462	0	0	0	30038	28600	144990	27067	1053640	44649	111180	0	0	8359	383814	0	0
2024-07-14 07:59:47			0	42452	0	0	0	30036	28610	144906	27062	1053604	44639	111179	0	0	8359	384109	0	0
2024-07-14 08:00:47			0	42458	0	0	0	30046	28610	144878	27220	1053685	44651	111183	0	0	8359	383919	0	0
2024-07-14 08:01:47			0	42442	0	0	0	30059	28620	144962	27059	1053640	44662	111188	0	0	8358	384404	0	0
2024-07-14 08:02:47			0	42452	0	0	0	30062	28620	144970	27237	1053640	44639	111189	0	0	8358	384087	0	0
2024-07-14 08:03:47			0	42436	0	0	0	30064	28610	144874	27190	1053712	44639	111190	0	0	8357	384617	0	0
2024-07-14 08:04:47			0	42427	0	0	0	30077	28630	144962	27483	1053720	44641	111195	0	0	8357	384859	0	0
2024-07-14 08:05:47			0	42435	0	0	0	30064	28630	145058	27383	1053801	44653	111190	0	0	8357	384605	0	0
2024-07-14 08:06:47			0	42430	0	0	0	30075	28640	145070	27232	1053819	44654	111194	0	0	8357	384741	0	0
2024-07-14 08:07:47			0	42416	0	0	0	30080	28650	145022	27074	1053801	44665	111196	0	0	8356	385164	0	0
2024-07-14 08:08:47			0	42433	0	0	0	30075	28640	145030	27001	1053783	44641	111194	0	0	8357	384646	0	0
2024-07-14 08:09:47			0	42428	0	0	0	30080	28640	145070	27215	1053738	44642	111196	0	0	8357	384805	0	0
2024-07-14 08:10:47			0	42408	0	0	0	30072	28640	145110	27230	1053783	44641	111193	0	0	8356	385440	0	0
2024-07-14 08:11:47			0	42397	0	0	0	30067	28650	145110	27197	1053693	44631	111191	0	0	8355	385768	0	0
2024-07-14 08:12:47			0	42372	0	0	0	30070	28640	145122	27338	1053702	44641	111192	0	0	8354	386586	0	0
2024-07-14 08:13:47			0	42380	0	0	0	30067	28640	145074	27319	1053738	44642	111191	0	0	8354	386331	0	0
2024-07-14 08:14:47			0	42361	0	0	0	30067	28640	145234	27260	1053783	44630	111191	0	0	8353	386937	0	0
2024-07-14 08:15:47			0	42372	0	0	0	30049	28630	145286	27183	1053639	44653	111184	0	0	8354	386608	0	0
2024-07-14 08:16:47			0	42361	0	0	0	30038	28620	145250	27307	1053586	44639	111180	0	0	8353	386981	0	0
2024-07-14 08:17:47			0	42352	0	0	0	30031	28610	145294	27246	1053469	44639	111177	0	0	8353	387291	0	0
2024-07-14 08:18:47			0	42349	0	0	0	30023	28620	145294	27066	1053559	44628	111174	0	0	8353	387364	0	0
2024-07-14 08:19:47			0	42331	0	0	0	30023	28620	145310	27412	1053505	44662	111174	0	0	8352	387938	0	0
2024-07-14 08:20:47			0	42305	0	0	0	30012	28600	145458	27237	1053505	44637	111170	0	0	8350	388813	0	0
2024-07-14 08:21:47			0	42308	0	0	0	30007	28610	145454	27431	1053496	44639	111168	0	0	8351	388694	0	0
2024-07-14 08:22:47			0	42301	0	0	0	30002	28610	145538	27421	1053514	44638	111166	0	0	8350	388918	0	0
2024-07-14 08:23:47			0	42286	0	0	0	29999	28600	145414	27067	1053479	44626	111165	0	0	8350	389420	0	0
2024-07-14 08:24:47			0	42277	0	0	0	29997	28600	145370	27090	1053470	44626	111164	0	0	8349	389707	0	0
2024-07-14 08:25:47			0	42285	0	0	0	29992	28600	145422	27260	1053497	44637	111162	0	0	8350	389451	0	0
2024-07-14 08:26:47			0	42255	0	0	0	29971	28590	145558	27090	1053380	44637	111154	0	0	8348	390433	0	0
2024-07-14 08:27:47			0	42246	0	0	0	29973	28600	145630	27263	1053335	44626	111155	0	0	8348	390699	0	0
2024-07-14 08:28:47			0	42243	0	0	0	29971	28590	145642	27286	1053380	44649	111154	0	0	8347	390817	0	0
2024-07-14 08:29:47			0	42233	0	0	0	29968	28590	145674	27159	1053317	44625	111153	0	0	8347	391138	0	0
2024-07-14 08:30:47			0	42210	0	0	0	29966	28580	145698	27093	1053380	44635	111152	0	0	8346	391897	0	0
2024-07-14 08:31:47			0	42214	0	0	0	29948	28570	145750	27043	1053309	44634	111145	0	0	8346	391792	0	0
2024-07-14 08:32:47			0	42197	0	0	0	29945	28570	145818	27208	1053264	44624	111144	0	0	8345	392337	0	0
2024-07-14 08:33:47			0	42215	0	0	0	29940	28570	145854	26965	1053228	44624	111142	0	0	8346	391760	0	0
2024-07-14 08:34:47			0	42181	0	0	0	29937	28560	145766	26977	1053210	44622	111141	0	0	8344	392873	0	0
2024-07-14 08:35:47			0	42196	0	0	0	29937	28550	145866	26937	1053201	44622	111141	0	0	8345	392414	0	0
2024-07-14 08:36:47			0	42193	0	0	0	29940	28550	145878	26982	1053228	44644	111142	0	0	8345	392510	0	0
2024-07-14 08:37:47			0	42180	0	0	0	29942	28550	145822	26979	1053255	44632	111143	0	0	8344	392928	0	0
2024-07-14 08:38:47			0	42165	0	0	0	29937	28550	145902	26880	1053255	44632	111141	0	0	8343	393409	0	0
2024-07-14 08:39:47			0	42162	0	0	0	29932	28550	145918	26821	1053228	44622	111139	0	0	8343	393506	0	0
2024-07-14 08:40:47			0	42144	0	0	0	29940	28550	145946	27064	1053193	44644	111142	0	0	8342	394084	0	0
2024-07-14 08:41:47			0	42148	0	0	0	29935	28540	146046	27116	1053184	44643	111140	0	0	8342	393978	0	0
2024-07-14 08:42:47			0	42137	0	0	0	29940	28540	146010	26840	1053238	44643	111142	0	0	8342	394332	0	0
2024-07-14 08:43:47			0	42128	0	0	0	29958	28560	145938	27107	1053372	44666	111149	0	0	8341	394576	0	0
2024-07-14 08:44:47			0	42125	0	0	0	29973	28560	146082	27083	1053435	44667	111155	0	0	8340	394672	0	0
2024-07-14 08:45:47			0	42112	0	0	0	29989	28580	145990	27249	1053488	44669	111161	0	0	8339	395045	0	0
2024-07-14 08:46:47			0	42104	0	0	0	30010	28580	146098	27109	1053578	44658	111169	0	0	8339	395302	0	0
2024-07-14 08:47:47			0	42098	0	0	0	30018	28590	145990	27312	1053569	44649	111172	0	0	8338	395472	0	0
2024-07-14 08:48:47			0	42101	0	0	0	30025	28610	145858	27189	1053622	44671	111175	0	0	8338	395330	0	0
2024-07-14 08:49:47			0	42119	0	0	0	30038	28600	145918	27150	1053631	44649	111180	0	0	8339	394774	0	0
2024-07-14 08:50:47			0	42102	0	0	0	30051	28610	145970	27197	1053739	44662	111185	0	0	8338	395298	0	0
2024-07-14 08:51:47			0	42098	0	0	0	30059	28630	145934	27152	1053801	44664	111188	0	0	8338	395381	0	0
2024-07-14 08:52:47			0	42074	0	0	0	30070	28630	146001	27026	1053828	44653	111192	0	0	8336	396153	0	0
2024-07-14 08:53:47			0	42071	0	0	0	30070	28640	146177	27074	1053846	44665	111192	0	0	8336	396227	0	0
2024-07-14 08:54:47			0	42086	0	0	0	30062	28640	146174	26974	1053792	44654	111189	0	0	8337	395744	0	0
2024-07-14 08:55:47			0	42071	0	0	0	30059	28640	146085	27306	1053819	44642	111188	0	0	8336	396227	0	0
2024-07-14 08:56:47			0	42044	0	0	0	30059	28640	146121	26854	1053864	44641	111188	0	0	8335	397097	0	0
2024-07-14 08:57:47			0	42062	0	0	0	30064	28640	146197	27050	1053846	44642	111190	0	0	8336	396517	0	0
2024-07-14 08:58:47			0	42034	0	0	0	30070	28650	146205	27085	1053945	44666	111192	0	0	8334	397397	0	0
2024-07-14 08:59:47			0	42010	0	0	0	30072	28660	146209	27013	1053873	44666	111193	0	0	8332	398149	0	0
2024-07-14 09:00:47			0	42007	0	0	0	30083	28660	146329	27079	1053900	44643	111197	0	0	8332	398245	0	0
2024-07-14 09:01:47			0	41980	0	0	0	30083	28660	146281	27173	1053909	44666	111197	0	0	8331	399118	0	0
2024-07-14 09:02:47			0	41985	0	0	0	30090	28680	146253	27029	1053953	44656	111200	0	0	8331	398910	0	0
2024-07-14 09:03:47			0	41982	0	0	0	30088	28680	146309	27294	1053899	44645	111199	0	0	8331	399007	0	0
2024-07-14 09:04:47			0	41975	0	0	0	30088	28680	146377	27050	1054016	44668	111199	0	0	8330	399233	0	0
2024-07-14 09:05:47			0	41960	0	0	0	30093	28670	146421	27202	1054025	44666	111201	0	0	8329	399741	0	0
2024-07-14 09:06:47			0	41955	0	0	0	30090	28680	146493	26916	1053953	44656	111200	0	0	8329	399880	0	0
2024-07-14 09:07:47			0	41949	0	0	0	30098	28680	146525	27183	1053989	44646	111203	0	0	8329	400074	0	0
2024-07-14 09:08:47			0	41931	0	0	0	30088	28690	146445	26656	1054034	44658	111199	0	0	8328	400634	0	0
2024-07-14 09:09:47			0	41915	0	0	0	30098	28690	146457	26857	1054034	44658	111203	0	0	8327	401152	0	0
2024-07-14 09:10:47			0	41907	0	0	0	30096	28690	146541	27216	1054034	44647	111202	0	0	8326	401411	0	0
2024-07-14 09:11:47			0	41936	0	0	0	30088	28690	146689	26694	1053980	44647	111199	0	0	8328	400472	0	0
2024-07-14 09:12:47			0	41908	0	0	0	30088	28700	146625	27225	1054051	44648	111199	0	0	8326	401356	0	0
2024-07-14 09:13:47			0	41911	0	0	0	30090	28690	146637	27076	1053944	44646	111200	0	0	8327	401282	0	0
2024-07-14 09:14:47			0	41894	0	0	0	30093	28700	146573	27261	1053989	44647	111201	0	0	8326	401809	0	0
2024-07-14 09:15:47			0	41873	0	0	0	30098	28690	146613	27400	1054007	44635	111203	0	0	8324	402514	0	0
2024-07-14 09:16:47			0	41894	0	0	0	30093	28680	146661	27062	1054016	44634	111201	0	0	8325	401856	0	0
2024-07-14 09:17:47			0	41898	0	0	0	30090	28700	146617	26968	1053989	44669	111200	0	0	8326	401680	0	0
2024-07-14 09:18:47			0	41881	0	0	0	30093	28700	146629	26972	1054016	44658	111201	0	0	8325	402231	0	0
2024-07-14 09:19:47			0	41873	0	0	0	30088	28710	146645	26793	1054114	44659	111199	0	0	8324	402467	0	0
2024-07-14 09:20:47			0	41861	0	0	0	30093	28700	146681	27029	1054051	44659	111201	0	0	8324	402880	0	0
2024-07-14 09:21:47			0	41871	0	0	0	30101	28710	146665	26899	1054069	44649	111204	0	0	8324	402532	0	0
2024-07-14 09:22:47			0	41894	0	0	0	30103	28700	146641	26651	1054051	44648	111205	0	0	8325	401809	0	0
2024-07-14 09:23:47			0	41885	0	0	0	30101	28700	146653	27026	1054105	44659	111204	0	0	8325	402101	0	0
2024-07-14 09:24:47			0	41860	0	0	0	30103	28710	146729	26816	1054114	44648	111205	0	0	8323	402889	0	0
2024-07-14 09:25:47			0	41865	0	0	0	30106	28710	146649	26885	1054123	44660	111206	0	0	8324	402727	0	0
2024-07-14 09:26:47			0	41864	0	0	0	30124	28710	146645	26916	1054123	44660	111213	0	0	8323	402759	0	0
2024-07-14 09:27:47			0	41877	0	0	0	30127	28710	146673	26672	1054069	44637	111214	0	0	8324	402338	0	0
2024-07-14 09:28:47			0	41875	0	0	0	30122	28720	146597	27062	1054141	44650	111212	0	0	8324	402379	0	0
2024-07-14 09:29:47			0	41869	0	0	0	30129	28720	146577	27194	1054186	44671	111215	0	0	8324	402574	0	0
2024-07-14 09:30:47			0	41875	0	0	0	30132	28720	146609	26927	1054195	44661	111216	0	0	8324	402379	0	0
2024-07-14 09:31:47			0	41867	0	0	0	30114	28720	146649	27055	1054213	44637	111209	0	0	8324	402639	0	0
2024-07-14 09:32:47			0	41871	0	0	0	30129	28730	146577	26994	1054150	44672	111215	0	0	8324	402486	0	0
2024-07-14 09:33:47			0	41866	0	0	0	30127	28730	146589	26994	1054230	44661	111214	0	0	8323	402648	0	0
2024-07-14 09:34:47			0	41857	0	0	0	30137	28740	146697	27324	1054302	44651	111218	0	0	8323	402917	0	0
2024-07-14 09:35:47			0	41872	0	0	0	30135	28740	146665	27019	1054221	44651	111217	0	0	8324	402430	0	0
2024-07-14 09:36:47			0	41858	0	0	0	30150	28730	146709	26819	1054266	44673	111223	0	0	8323	402908	0	0
2024-07-14 09:37:47			0	41870	0	0	0	30166	28750	146653	27057	1054347	44652	111229	0	0	8323	402472	0	0
2024-07-14 09:38:47			0	41846	0	0	0	30163	28740	146693	27043	1054356	44673	111228	0	0	8322	403274	0	0
2024-07-14 09:39:47			0	41845	0	0	0	30174	28750	146761	27057	1054374	44663	111232	0	0	8322	403283	0	0
2024-07-14 09:40:47			0	41848	0	0	0	30176	28750	146717	27192	1054410	44674	111233	0	0	8322	403186	0	0
2024-07-14 09:41:47			0	41836	0	0	0	30171	28760	146745	27095	1054391	44665	111231	0	0	8321	403552	0	0
2024-07-14 09:42:47			0	41845	0	0	0	30179	28760	146769	27086	1054427	44687	111234	0	0	8322	403260	0	0
2024-07-14 09:43:47			0	41845	0	0	0	30174	28770	146673	27053	1054445	44666	111232	0	0	8322	403236	0	0
2024-07-14 09:44:47			0	41853	0	0	0	30174	28770	146701	27206	1054409	44654	111232	0	0	8322	402977	0	0
2024-07-14 09:45:47			0	41828	0	0	0	30158	28770	146817	27187	1054418	44666	111226	0	0	8321	403789	0	0
2024-07-14 09:46:47			0	41834	0	0	0	30166	28760	146673	27166	1054373	44654	111229	0	0	8321	403617	0	0
2024-07-14 09:47:47			0	41816	0	0	0	30161	28760	146705	27178	1054400	44654	111227	0	0	8320	404202	0	0
2024-07-14 09:48:47			0	41825	0	0	0	30140	28750	146637	27242	1054275	44664	111219	0	0	8321	403933	0	0
2024-07-14 09:49:47			0	41838	0	0	0	30135	28770	146681	26993	1054328	44654	111217	0	0	8322	403464	0	0
2024-07-14 09:50:47			0	41826	0	0	0	30137	28760	146745	27112	1054284	44642	111218	0	0	8321	403877	0	0
2024-07-14 09:51:47			0	41822	0	0	0	30137	28750	146721	27183	1054347	44652	111218	0	0	8321	404031	0	0
2024-07-14 09:52:47			0	41840	0	0	0	30132	28750	146713	27208	1054329	44664	111216	0	0	8322	403445	0	0
2024-07-14 09:53:47			0	41811	0	0	0	30142	28760	146825	26778	1054338	44675	111220	0	0	8320	404365	0	0
2024-07-14 09:54:47			0	41821	0	0	0	30142	28760	146809	26955	1054346	44654	111220	0	0	8321	404039	0	0
2024-07-14 09:55:47			0	41819	0	0	0	30148	28760	146825	27034	1054400	44665	111222	0	0	8321	404105	0	0
2024-07-14 09:56:47			0	41802	0	0	0	30132	28760	146837	27471	1054311	44675	111216	0	0	8320	404657	0	0
2024-07-14 09:57:47			0	41798	0	0	0	30122	28760	146917	27293	1054391	44654	111212	0	0	8320	404787	0	0
2024-07-14 09:58:47			0	41787	0	0	0	30129	28760	146813	27253	1054311	44654	111215	0	0	8319	405146	0	0
2024-07-14 09:59:47			0	41778	0	0	0	30132	28750	146881	27287	1054302	44641	111216	0	0	8318	405462	0	0
2024-07-14 10:00:47			0	41781	0	0	0	30142	28760	146849	26939	1054364	44665	111220	0	0	8318	405341	0	0
2024-07-14 10:01:47			0	41777	0	0	0	30140	28750	147033	26904	1054401	44652	111219	0	0	8318	405495	0	0
2024-07-14 10:02:47			0	41776	0	0	0	30140	28750	146925	27145	1054356	44653	111219	0	0	8318	405527	0	0
2024-07-14 10:03:47			0	41760	0	0	0	30140	28760	146989	27253	1054338	44665	111219	0	0	8317	406025	0	0
2024-07-14 10:04:47			0	41759	0	0	0	30153	28750	146973	27121	1054320	44640	111224	0	0	8317	406081	0	0
2024-07-14 10:05:47			0	41757	0	0	0	30150	28750	147101	27178	1054356	44653	111223	0	0	8317	406146	0	0
2024-07-14 10:06:47			0	41757	0	0	0	30148	28750	147145	26922	1054383	44664	111222	0	0	8317	406146	0	0
2024-07-14 10:07:47			0	41731	0	0	0	30153	28760	147045	27137	1054418	44654	111224	0	0	8315	406970	0	0
2024-07-14 10:08:47			0	41716	0	0	0	30148	28750	147161	27241	1054302	44653	111222	0	0	8315	407483	0	0
2024-07-14 10:09:47			0	41718	0	0	0	30150	28750	147125	27202	1054356	44653	111223	0	0	8315	407418	0	0
2024-07-14 10:10:47			0	41701	0	0	0	30161	28750	147321	27048	1054410	44664	111227	0	0	8313	407973	0	0
2024-07-14 10:11:47			0	41676	0	0	0	30168	28760	147273	26866	1054373	44665	111230	0	0	8312	408767	0	0
2024-07-14 10:12:47			0	41671	0	0	0	30163	28760	147465	27149	1054454	44665	111228	0	0	8312	408930	0	0
2024-07-14 10:13:47			0	41684	0	0	0	30179	28750	147405	27036	1054436	44674	111234	0	0	8312	408529	0	0
2024-07-14 10:14:47			0	41665	0	0	0	30181	28760	147481	26817	1054454	44665	111235	0	0	8311	409126	0	0
2024-07-14 10:15:47			0	41652	0	0	0	30179	28770	147389	27232	1054409	44675	111234	0	0	8310	409528	0	0
2024-07-14 10:16:47			0	41643	0	0	0	30192	28770	147505	27064	1054472	44666	111239	0	0	8310	409822	0	0
2024-07-14 10:17:47			0	41635	0	0	0	30197	28780	147473	27183	1054571	44666	111241	0	0	8309	410061	0	0
2024-07-14 10:18:47			0	41643	0	0	0	30179	28780	147489	27161	1054481	44677	111234	0	0	8310	409799	0	0
2024-07-14 10:19:47			0	41628	0	0	0	30189	28780	147481	27086	1054517	44666	111238	0	0	8309	410290	0	0
2024-07-14 10:20:47			0	41631	0	0	0	30186	28770	147529	27045	1054526	44666	111237	0	0	8309	410215	0	0
2024-07-14 10:21:47			0	41630	0	0	0	30179	28780	147605	27263	1054463	44656	111234	0	0	8309	410224	0	0
2024-07-14 10:22:47			0	41619	0	0	0	30186	28780	147537	27237	1054535	44656	111237	0	0	8308	410584	0	0
2024-07-14 10:23:47			0	41621	0	0	0	30171	28780	147581	26899	1054481	44666	111231	0	0	8309	410519	0	0
2024-07-14 10:24:47			0	41598	0	0	0	30179	28780	147613	27306	1054544	44656	111234	0	0	8307	411273	0	0
2024-07-14 10:25:47			0	41614	0	0	0	30189	28780	147537	27031	1054571	44656	111238	0	0	8308	410748	0	0
2024-07-14 10:26:47			0	41604	0	0	0	30194	28790	147537	26863	1054589	44678	111240	0	0	8307	411052	0	0
2024-07-14 10:27:47			0	41583	0	0	0	30202	28790	147609	27123	1054553	44678	111243	0	0	8306	411741	0	0
2024-07-14 10:28:47			0	41588	0	0	0	30207	28800	147589	26896	1054597	44668	111245	0	0	8306	411553	0	0
2024-07-14 10:29:47			0	41572	0	0	0	30215	28800	147661	26908	1054597	44679	111248	0	0	8305	412078	0	0
2024-07-14 10:30:47			0	41562	0	0	0	30220	28800	147665	27029	1054633	44679	111250	0	0	8305	412406	0	0
2024-07-14 10:31:47			0	41593	0	0	0	30225	28800	147681	27012	1054678	44679	111252	0	0	8306	411389	0	0
2024-07-14 10:32:47			0	41563	0	0	0	30233	28810	147641	27178	1054642	44680	111255	0	0	8305	412350	0	0
2024-07-14 10:33:47			0	41567	0	0	0	30236	28810	147565	27015	1054723	44669	111256	0	0	8305	412218	0	0
2024-07-14 10:34:47			0	41561	0	0	0	30228	28800	147633	27138	1054714	44668	111253	0	0	8304	412439	0	0
2024-07-14 10:35:47			0	41550	0	0	0	30236	28820	147605	26651	1054696	44682	111256	0	0	8304	412753	0	0
2024-07-14 10:36:47			0	41545	0	0	0	30233	28820	147641	27150	1054741	44670	111255	0	0	8304	412917	0	0
2024-07-14 10:37:47			0	41554	0	0	0	30233	28830	147577	26961	1054758	44671	111255	0	0	8304	412597	0	0
2024-07-14 10:38:47			0	41521	0	0	0	30244	28820	147641	27123	1054750	44682	111259	0	0	8302	413705	0	0
2024-07-14 10:39:47			0	41525	0	0	0	30233	28820	147697	27059	1054723	44660	111255	0	0	8302	413574	0	0
2024-07-14 10:40:47			0	41537	0	0	0	30238	28830	147725	26934	1054794	44682	111257	0	0	8303	413156	0	0
2024-07-14 10:41:47			0	41537	0	0	0	30246	28830	147665	27164	1054758	44682	111260	0	0	8303	413156	0	0
2024-07-14 10:42:47			0	41526	0	0	0	30244	28830	147721	27020	1054839	44671	111259	0	0	8302	413517	0	0
2024-07-14 10:43:47			0	41509	0	0	0	30257	28830	147713	27227	1054812	44671	111264	0	0	8301	414076	0	0
2024-07-14 10:44:47			0	41505	0	0	0	30259	28840	147697	27301	1054803	44672	111265	0	0	8301	414184	0	0
2024-07-14 10:45:47			0	41515	0	0	0	30254	28840	147749	27130	1054857	44672	111263	0	0	8302	413855	0	0
2024-07-14 10:46:47			0	41503	0	0	0	30275	28850	147813	27178	1054956	44684	111271	0	0	8301	414226	0	0
2024-07-14 10:47:47			0	41515	0	0	0	30280	28850	147741	27272	1054929	44673	111273	0	0	8301	413831	0	0
2024-07-14 10:48:47			0	41509	0	0	0	30283	28850	147773	27256	1054956	44673	111274	0	0	8301	414028	0	0
2024-07-14 10:49:47			0	41490	0	0	0	30285	28850	147749	27322	1054956	44684	111275	0	0	8300	414653	0	0
2024-07-14 10:50:47			0	41499	0	0	0	30290	28850	147801	27248	1054938	44684	111277	0	0	8300	414357	0	0
2024-07-14 10:51:47			0	41476	0	0	0	30285	28860	147709	27005	1055000	44674	111275	0	0	8299	415090	0	0
2024-07-14 10:52:47			0	41490	0	0	0	30293	28860	147769	27057	1054946	44674	111278	0	0	8300	414629	0	0
2024-07-14 10:53:47			0	41497	0	0	0	30298	28870	147853	27213	1055045	44686	111280	0	0	8300	414375	0	0
2024-07-14 10:54:47			0	41488	0	0	0	30296	28870	147753	27097	1055072	44675	111279	0	0	8299	414671	0	0
2024-07-14 10:55:47			0	41458	0	0	0	30311	28870	147865	26977	1055045	44686	111285	0	0	8297	415659	0	0
2024-07-14 10:56:47			0	41473	0	0	0	30311	28880	147845	27079	1055090	44687	111285	0	0	8298	415141	0	0
2024-07-14 10:57:47			0	41471	0	0	0	30316	28880	147761	27130	1055045	44688	111287	0	0	8298	415207	0	0
2024-07-14 10:58:47			0	41458	0	0	0	30314	28880	147805	27048	1055099	44666	111286	0	0	8297	415635	0	0
2024-07-14 10:59:47			0	41460	0	0	0	30309	28890	147845	27126	1055117	44689	111284	0	0	8298	415545	0	0
2024-07-14 11:00:47			0	41460	0	0	0	30306	28890	147793	27180	1055135	44677	111283	0	0	8298	415545	0	0
2024-07-14 11:01:47			0	41454	0	0	0	30306	28900	147841	26975	1055153	44689	111283	0	0	8297	415719	0	0
2024-07-14 11:02:47			0	41441	0	0	0	30316	28900	147861	27280	1055180	44677	111287	0	0	8297	416147	0	0
2024-07-14 11:03:47			0	41457	0	0	0	30314	28900	147853	27072	1055162	44678	111286	0	0	8297	415620	0	0
2024-07-14 11:04:47			0	41455	0	0	0	30314	28900	147853	27157	1055153	44666	111286	0	0	8297	415686	0	0
2024-07-14 11:05:47			0	41444	0	0	0	30314	28900	147833	26889	1055108	44678	111286	0	0	8297	416048	0	0
2024-07-14 11:06:47			0	41428	0	0	0	30342	28900	147796	27436	1055162	44690	111297	0	0	8295	416576	0	0
2024-07-14 11:07:47			0	41421	0	0	0	30337	28910	147900	27159	1055278	44691	111295	0	0	8295	416783	0	0
2024-07-14 11:08:47			0	41441	0	0	0	30335	28910	147917	27251	1055278	44702	111294	0	0	8296	416123	0	0
2024-07-14 11:09:47			0	41414	0	0	0	30345	28920	147912	27072	1055296	44691	111298	0	0	8295	416989	0	0
2024-07-14 11:10:47			0	41426	0	0	0	30340	28910	147953	27225	1055287	44679	111296	0	0	8295	416618	0	0
2024-07-14 11:11:47			0	41413	0	0	0	30355	28920	147992	26764	1055377	44679	111302	0	0	8294	417023	0	0
2024-07-14 11:12:47			0	41417	0	0	0	30366	28930	147940	26871	1055395	44693	111306	0	0	8294	416866	0	0
2024-07-14 11:13:47			0	41410	0	0	0	30371	28920	147996	27255	1055413	44692	111308	0	0	8294	417121	0	0
2024-07-14 11:14:47			0	41414	0	0	0	30379	28930	148024	27213	1055350	44693	111311	0	0	8294	416965	0	0
2024-07-14 11:15:47			0	41416	0	0	0	30389	28940	147964	27248	1055475	44694	111315	0	0	8294	416875	0	0
2024-07-14 11:16:47			0	41401	0	0	0	30384	28950	148028	26821	1055403	44706	111313	0	0	8293	417346	0	0
2024-07-14 11:17:47			0	41391	0	0	0	30389	28950	147980	26793	1055493	44707	111315	0	0	8293	417676	0	0
2024-07-14 11:18:47			0	41404	0	0	0	30384	28960	147964	27124	1055448	44707	111313	0	0	8293	417223	0	0
2024-07-14 11:19:47			0	41406	0	0	0	30405	28960	147968	26958	1055556	44673	111321	0	0	8293	417157	0	0
2024-07-14 11:20:47			0	41418	0	0	0	30405	28970	148008	27093	1055600	44685	111321	0	0	8294	416737	0	0
2024-07-14 11:21:47			0	41400	0	0	0	30397	28970	147944	27190	1055574	44685	111318	0	0	8293	417330	0	0
2024-07-14 11:22:47			0	41401	0	0	0	30397	28980	147952	27175	1055564	44697	111318	0	0	8293	417273	0	0
2024-07-14 11:23:47			0	41394	0	0	0	30405	28980	147916	27020	1055636	44708	111321	0	0	8293	417504	0	0
2024-07-14 11:24:47			0	41397	0	0	0	30412	28980	147992	27265	1055645	44686	111324	0	0	8293	417405	0	0
2024-07-14 11:25:47			0	41388	0	0	0	30415	28990	147944	27287	1055681	44697	111325	0	0	8292	417678	0	0
2024-07-14 11:26:47			0	41413	0	0	0	30418	29000	147936	27171	1055726	44699	111326	0	0	8294	416829	0	0
2024-07-14 11:27:47			0	41380	0	0	0	30420	29000	147968	26994	1055726	44688	111327	0	0	8292	417918	0	0
2024-07-14 11:28:47			0	41390	0	0	0	30425	28990	147904	27204	1055690	44698	111329	0	0	8292	417612	0	0
2024-07-14 11:29:47			0	41383	0	0	0	30418	29010	147936	27126	1055663	44688	111326	0	0	8292	417795	0	0
2024-07-14 11:30:47			0	41382	0	0	0	30420	29000	147940	27038	1055735	44699	111327	0	0	8292	417852	0	0
2024-07-14 11:31:47			0	41406	0	0	0	30433	29010	147936	27166	1055806	44678	111332	0	0	8293	417036	0	0
2024-07-14 11:32:47			0	41391	0	0	0	30423	29020	147984	26953	1055761	44701	111328	0	0	8292	417507	0	0
2024-07-14 11:33:47			0	41386	0	0	0	30425	29020	147872	27331	1055842	44701	111329	0	0	8292	417672	0	0
2024-07-14 11:34:47			0	41385	0	0	0	30428	29020	147892	27371	1055761	44701	111330	0	0	8292	417705	0	0
2024-07-14 11:35:47			0	41396	0	0	0	30433	29020	147980	27289	1055788	44690	111332	0	0	8292	417341	0	0
2024-07-14 11:36:47			0	41392	0	0	0	30454	29020	147928	27301	1055851	44691	111340	0	0	8292	417474	0	0
2024-07-14 11:37:47			0	41392	0	0	0	30459	29020	147944	27241	1055878	44702	111342	0	0	8292	417474	0	0
2024-07-14 11:38:47			0	41391	0	0	0	30459	29030	147852	27090	1055923	44702	111342	0	0	8292	417482	0	0
2024-07-14 11:39:47			0	41396	0	0	0	30472	29030	147868	27090	1055968	44713	111347	0	0	8292	417317	0	0
2024-07-14 11:40:47			0	41378	0	0	0	30472	29040	147888	26890	1055887	44715	111347	0	0	8291	417887	0	0
2024-07-14 11:41:47			0	41382	0	0	0	30477	29040	147876	26958	1055968	44704	111349	0	0	8291	417755	0	0
2024-07-14 11:42:47			0	41397	0	0	0	30480	29050	147912	26989	1056066	44681	111350	0	0	8292	417236	0	0
2024-07-14 11:43:47			0	41380	0	0	0	30485	29050	147884	27157	1056004	44693	111352	0	0	8291	417797	0	0
2024-07-14 11:44:47			0	41389	0	0	0	30493	29060	147872	27059	1056084	44695	111355	0	0	8291	417476	0	0
2024-07-14 11:45:47			0	41389	0	0	0	30490	29060	147976	27182	1056021	44705	111354	0	0	8291	417476	0	0
2024-07-14 11:46:47			0	41372	0	0	0	30480	29070	147964	26786	1056039	44695	111350	0	0	8290	418013	0	0
2024-07-14 11:47:47			0	41391	0	0	0	30496	29070	147960	27100	1056129	44695	111356	0	0	8291	417385	0	0
2024-07-14 11:48:47			0	41376	0	0	0	30501	29070	147980	27161	1056093	44706	111358	0	0	8290	417881	0	0
2024-07-14 11:49:47			0	41368	0	0	0	30503	29080	147960	27005	1056147	44708	111359	0	0	8290	418121	0	0
2024-07-14 11:50:47			0	41378	0	0	0	30501	29080	147876	27346	1056165	44696	111358	0	0	8291	417790	0	0
2024-07-14 11:51:47			0	41398	0	0	0	30511	29080	147956	27152	1056165	44707	111362	0	0	8291	417130	0	0
2024-07-14 11:52:47			0	41378	0	0	0	30509	29080	147976	26724	1056201	44697	111361	0	0	8290	417790	0	0
2024-07-14 11:53:47			0	41365	0	0	0	30506	29090	148004	27220	1056182	44686	111360	0	0	8290	418195	0	0
2024-07-14 11:54:47			0	41371	0	0	0	30509	29080	147964	27053	1056174	44708	111361	0	0	8290	418022	0	0
2024-07-14 11:55:47			0	41380	0	0	0	30511	29090	147964	27119	1056272	44698	111362	0	0	8291	417700	0	0
2024-07-14 11:56:47			0	41368	0	0	0	30506	29100	147928	26958	1056227	44719	111360	0	0	8290	418072	0	0
2024-07-14 11:57:47			0	41365	0	0	0	30493	29090	147956	27218	1056218	44698	111355	0	0	8290	418195	0	0
2024-07-14 11:58:47			0	41368	0	0	0	30496	29090	147992	26925	1056191	44698	111356	0	0	8290	418096	0	0
2024-07-14 11:59:47			0	41359	0	0	0	30519	29090	147968	27111	1056218	44698	111365	0	0	8289	418394	0	0
2024-07-14 12:00:47			0	41358	0	0	0	30511	29100	148000	27055	1056236	44709	111362	0	0	8289	418402	0	0
2024-07-14 12:01:47			0	41337	0	0	0	30529	29100	148004	27057	1056290	44709	111369	0	0	8288	419096	0	0
2024-07-14 12:02:47			0	41350	0	0	0	30540	29110	147988	26998	1056335	44710	111373	0	0	8288	418642	0	0
2024-07-14 12:03:47			0	41374	0	0	0	30535	29110	148052	26864	1056362	44710	111371	0	0	8290	417850	0	0
2024-07-14 12:04:47			0	41344	0	0	0	30545	29110	148076	27050	1056335	44721	111375	0	0	8288	418841	0	0
2024-07-14 12:05:47			0	41363	0	0	0	30545	29130	147928	26906	1056361	44712	111375	0	0	8289	418164	0	0
2024-07-14 12:06:47			0	41347	0	0	0	30558	29120	147980	26920	1056371	44710	111380	0	0	8288	418717	0	0
2024-07-14 12:07:47			0	41355	0	0	0	30561	29130	148000	27057	1056415	44712	111381	0	0	8288	418429	0	0
2024-07-14 12:08:47			0	41364	0	0	0	30568	29130	148056	27229	1056451	44712	111384	0	0	8289	418131	0	0
2024-07-14 12:09:47			0	41341	0	0	0	30581	29130	148092	27107	1056532	44712	111389	0	0	8287	418891	0	0
2024-07-14 12:10:47			0	41340	0	0	0	30576	29140	148100	27180	1056469	44724	111387	0	0	8287	418900	0	0
2024-07-14 12:11:47			0	41340	0	0	0	30581	29140	148064	27111	1056541	44723	111389	0	0	8287	418900	0	0
2024-07-14 12:12:47			0	41336	0	0	0	30589	29150	148096	27170	1056613	44714	111392	0	0	8287	419008	0	0
2024-07-14 12:13:47			0	41350	0	0	0	30602	29150	148116	27163	1056622	44714	111397	0	0	8288	418545	0	0
2024-07-14 12:14:47			0	41335	0	0	0	30599	29160	148080	26982	1056640	44738	111396	0	0	8287	419017	0	0
2024-07-14 12:15:47			0	41336	0	0	0	30597	29170	148156	27244	1056675	44705	111395	0	0	8287	418959	0	0
2024-07-14 12:16:47			0	41331	0	0	0	30599	29170	148120	27112	1056711	44728	111396	0	0	8287	419125	0	0
2024-07-14 12:17:47			0	41316	0	0	0	30610	29180	148160	27157	1056693	44717	111400	0	0	8286	419596	0	0
2024-07-14 12:18:47			0	41324	0	0	0	30612	29180	148156	27001	1056774	44717	111401	0	0	8286	419332	0	0
2024-07-14 12:19:47			0	41331	0	0	0	30602	29180	148092	27010	1056675	44717	111397	0	0	8287	419100	0	0
2024-07-14 12:20:47			0	41342	0	0	0	30612	29180	148036	27396	1056729	44717	111401	0	0	8287	418737	0	0
2024-07-14 12:21:47			0	41314	0	0	0	30623	29200	148100	26970	1056810	44719	111405	0	0	8285	419614	0	0
2024-07-14 12:22:47			0	41315	0	0	0	30618	29190	148036	27242	1056774	44719	111403	0	0	8285	419605	0	0
2024-07-14 12:23:47			0	41318	0	0	0	30636	29190	148168	27453	1056828	44730	111410	0	0	8285	419506	0	0
2024-07-14 12:24:47			0	41321	0	0	0	30628	29200	148176	27124	1056783	44730	111407	0	0	8286	419382	0	0
2024-07-14 12:25:47			0	41334	0	0	0	30620	29200	148020	26942	1056864	44730	111404	0	0	8286	418952	0	0
2024-07-14 12:26:47			0	41335	0	0	0	30657	29210	148096	27098	1056890	44732	111418	0	0	8286	418895	0	0
2024-07-14 12:27:47			0	41318	0	0	0	30683	29210	148116	27007	1056971	44720	111428	0	0	8285	419457	0	0
2024-07-14 12:28:47			0	41306	0	0	0	30680	29220	148072	27078	1056962	44733	111427	0	0	8284	419830	0	0
2024-07-14 12:29:47			0	41310	0	0	0	30680	29230	148084	27128	1056998	44733	111427	0	0	8284	419673	0	0
2024-07-14 12:30:47			0	41309	0	0	0	30677	29230	148076	27220	1057061	44745	111426	0	0	8284	419706	0	0
2024-07-14 12:31:47			0	41309	0	0	0	30688	29240	148048	27282	1057051	44723	111430	0	0	8284	419682	0	0
2024-07-14 12:32:47			0	41317	0	0	0	30690	29230	148088	27237	1057088	44722	111431	0	0	8284	419441	0	0
2024-07-14 12:33:47			0	41318	0	0	0	30690	29240	148000	26930	1057024	44735	111431	0	0	8285	419384	0	0
2024-07-14 12:34:47			0	41311	0	0	0	30680	29250	148036	26817	1057096	44724	111427	0	0	8284	419591	0	0
2024-07-14 12:35:47			0	41297	0	0	0	30685	29250	148072	27310	1057069	44736	111429	0	0	8283	420054	0	0
2024-07-14 12:36:47			0	41311	0	0	0	30685	29250	148128	26981	1057060	44723	111429	0	0	8284	419591	0	0
2024-07-14 12:37:47			0	41307	0	0	0	30701	29270	148040	27256	1057087	44725	111435	0	0	8284	419675	0	0
2024-07-14 12:38:47			0	41295	0	0	0	30706	29270	148152	26923	1057114	44725	111437	0	0	8283	420072	0	0
2024-07-14 12:39:47			0	41307	0	0	0	30703	29270	148092	26911	1057177	44738	111436	0	0	8284	419675	0	0
2024-07-14 12:40:47			0	41275	0	0	0	30701	29270	148108	27123	1057150	44726	111435	0	0	8282	420734	0	0
2024-07-14 12:41:47			0	41297	0	0	0	30706	29280	148148	26979	1057249	44716	111437	0	0	8283	419981	0	0
2024-07-14 12:42:47			0	41294	0	0	0	30711	29290	148080	27180	1057258	44727	111439	0	0	8283	420056	0	0
2024-07-14 12:43:47			0	41285	0	0	0	30727	29280	148052	27124	1057240	44715	111445	0	0	8282	420378	0	0
2024-07-14 12:44:47			0	41285	0	0	0	30735	29280	148128	27067	1057303	44727	111448	0	0	8282	420378	0	0
2024-07-14 12:45:47			0	41289	0	0	0	30740	29300	148216	26928	1057311	44740	111450	0	0	8282	420197	0	0
2024-07-14 12:46:47			0	41285	0	0	0	30745	29310	148176	27282	1057320	44740	111452	0	0	8282	420305	0	0
2024-07-14 12:47:47			0	41278	0	0	0	30732	29310	148088	27441	1057482	44729	111447	0	0	8282	420537	0	0
2024-07-14 12:48:47			0	41252	0	0	0	30761	29310	148100	27098	1057455	44729	111458	0	0	8280	421398	0	0
2024-07-14 12:49:47			0	41287	0	0	0	30763	29320	147980	27204	1057473	44741	111459	0	0	8282	420214	0	0
2024-07-14 12:50:47			0	41277	0	0	0	30761	29320	148060	27268	1057482	44731	111458	0	0	8281	420545	0	0
2024-07-14 12:51:47			0	41282	0	0	0	30758	29320	148164	27255	1057482	44742	111457	0	0	8282	420380	0	0
2024-07-14 12:52:47			0	41282	0	0	0	30745	29340	148016	27434	1057535	44722	111452	0	0	8282	420331	0	0
2024-07-14 12:53:47			0	41289	0	0	0	30748	29330	148072	27512	1057544	44720	111453	0	0	8282	420124	0	0
2024-07-14 12:54:47			0	41258	0	0	0	30753	29340	148112	27533	1057490	44733	111455	0	0	8280	421125	0	0
2024-07-14 12:55:47			0	41268	0	0	0	30758	29330	148136	27107	1057499	44754	111457	0	0	8281	420819	0	0
2024-07-14 12:56:47			0	41269	0	0	0	30761	29350	148152	27357	1057553	44722	111458	0	0	8281	420737	0	0
2024-07-14 12:57:47			0	41262	0	0	0	30771	29340	148076	27180	1057535	44722	111462	0	0	8280	420993	0	0
2024-07-14 12:58:47			0	41281	0	0	0	30773	29340	148148	27007	1057625	44733	111463	0	0	8281	420364	0	0
2024-07-14 12:59:47			0	41254	0	0	0	30776	29350	148116	27338	1057670	44745	111464	0	0	8280	421233	0	0
2024-07-14 13:00:47			0	41258	0	0	0	30776	29360	148188	27248	1057661	44735	111464	0	0	8280	421077	0	0
2024-07-14 13:01:47			0	41264	0	0	0	30776	29360	148116	27222	1057634	44735	111464	0	0	8281	420878	0	0
2024-07-14 13:02:47			0	41250	0	0	0	30784	29360	148180	27360	1057634	44723	111467	0	0	8280	421342	0	0
2024-07-14 13:03:47			0	41228	0	0	0	30797	29370	148212	27185	1057670	44747	111472	0	0	8278	422046	0	0
2024-07-14 13:04:47			0	41246	0	0	0	30797	29370	148184	27419	1057670	44747	111472	0	0	8279	421450	0	0
2024-07-14 13:05:47			0	41251	0	0	0	30802	29380	148188	27384	1057660	44737	111474	0	0	8279	421259	0	0
2024-07-14 13:06:47			0	41250	0	0	0	30805	29380	148144	27471	1057714	44748	111475	0	0	8279	421293	0	0
2024-07-14 13:07:47			0	41242	0	0	0	30797	29380	148328	27211	1057714	44725	111472	0	0	8279	421558	0	0
2024-07-14 13:08:47			0	41245	0	0	0	30797	29390	148172	27189	1057705	44726	111472	0	0	8279	421434	0	0
2024-07-14 13:09:47			0	41230	0	0	0	30823	29380	148188	27407	1057831	44725	111482	0	0	8278	421955	0	0
2024-07-14 13:10:47			0	41251	0	0	0	30812	29380	148132	27185	1057750	44737	111478	0	0	8279	421259	0	0
2024-07-14 13:11:47			0	41239	0	0	0	30828	29400	148148	27303	1057858	44727	111484	0	0	8278	421608	0	0
2024-07-14 13:12:47			0	41233	0	0	0	30841	29400	148304	27393	1057921	44750	111489	0	0	8278	421807	0	0
2024-07-14 13:13:47			0	41247	0	0	0	30849	29410	148216	27421	1057993	44750	111492	0	0	8279	421318	0	0
2024-07-14 13:14:47			0	41231	0	0	0	30849	29410	148252	27199	1057930	44740	111492	0	0	8278	421849	0	0
2024-07-14 13:15:47			0	41221	0	0	0	30851	29420	148184	26958	1058002	44741	111493	0	0	8277	422155	0	0
2024-07-14 13:16:47			0	41236	0	0	0	30870	29430	148152	27393	1058019	44752	111500	0	0	8278	421634	0	0
2024-07-14 13:17:47			0	41227	0	0	0	30810	29420	148192	27050	1058010	44742	111477	0	0	8278	421957	0	0
2024-07-14 13:18:47			0	41242	0	0	0	30540	29410	148156	27229	1057669	44695	111373	0	0	8283	421484	0	0
2024-07-14 13:19:47			0	41273	0	0	0	30264	29380	147960	27256	1057076	44659	111267	0	0	8290	420531	0	0
2024-07-14 13:20:47			0	41299	0	0	0	30298	29320	147872	27045	1056555	44596	111280	0	0	8290	419817	0	0
2024-07-14 13:21:47			0	41273	0	0	0	30540	29260	147956	27242	1056673	44646	111373	0	0	8285	420824	0	0
2024-07-14 13:22:47			0	41272	0	0	0	30433	29230	148008	26989	1056656	44678	111332	0	0	8286	420931	0	0
2024-07-14 13:23:47			0	41256	0	0	0	30594	29220	148184	27182	1056719	44688	111394	0	0	8283	421485	0	0
2024-07-14 13:24:47			0	41247	0	0	0	30659	29230	148200	27053	1056890	44721	111419	0	0	8281	421759	0	0
2024-07-14 13:25:47			0	41256	0	0	0	30657	29230	148228	27296	1057034	44745	111418	0	0	8282	421461	0	0
2024-07-14 13:26:47			0	41258	0	0	0	30618	29240	148300	27319	1057051	44735	111403	0	0	8282	421370	0	0
2024-07-14 13:27:47			0	41263	0	0	0	30122	29240	148096	26967	1056620	44702	111212	0	0	8291	421204	0	0
2024-07-14 13:28:47			0	41271	0	0	0	30316	29210	148088	27118	1056405	44654	111287	0	0	8288	421013	0	0
2024-07-14 13:29:47			0	41265	0	0	0	30428	29190	148084	27267	1056477	44685	111330	0	0	8286	421261	0	0
2024-07-14 13:30:47			0	41262	0	0	0	30405	29180	148200	27121	1056396	44672	111321	0	0	8286	421384	0	0
2024-07-14 13:31:47			0	41251	0	0	0	30423	29160	148280	27248	1056316	44670	111328	0	0	8285	421798	0	0
2024-07-14 13:32:47			0	41223	0	0	0	30540	29140	148308	26986	1056334	44691	111373	0	0	8281	422777	0	0
2024-07-14 13:33:47			0	41238	0	0	0	30615	29150	148344	27222	1056532	44714	111402	0	0	8281	422254	0	0
2024-07-14 13:34:47			0	41239	0	0	0	30623	29160	148468	27050	1056693	44749	111405	0	0	8281	422196	0	0
2024-07-14 13:35:47			0	41234	0	0	0	30548	29180	148472	27367	1056756	44740	111376	0	0	8282	422313	0	0
2024-07-14 13:36:47			0	41238	0	0	0	30537	29180	148448	27138	1056675	44706	111372	0	0	8282	422181	0	0
2024-07-14 13:37:47			0	41241	0	0	0	30553	29190	148316	27140	1056657	44718	111378	0	0	8282	422057	0	0
2024-07-14 13:38:47			0	41228	0	0	0	30638	29190	148480	27185	1056765	44729	111411	0	0	8280	422488	0	0
2024-07-14 13:39:47			0	41215	0	0	0	30638	29200	148516	26955	1056864	44730	111411	0	0	8279	422895	0	0
2024-07-14 13:40:47			0	41243	0	0	0	30610	29200	148464	26915	1056864	44741	111400	0	0	8281	421966	0	0
2024-07-14 13:41:47			0	41227	0	0	0	30594	29190	148436	27124	1056855	44708	111394	0	0	8281	422521	0	0
2024-07-14 13:42:47			0	41203	0	0	0	30664	29200	148384	27320	1056837	44741	111421	0	0	8278	423294	0	0
2024-07-14 13:43:47			0	41199	0	0	0	30670	29200	148568	27067	1056944	44730	111423	0	0	8278	423426	0	0
2024-07-14 13:44:47			0	41213	0	0	0	30664	29210	148496	27140	1056989	44719	111421	0	0	8279	422937	0	0
2024-07-14 13:45:47			0	41218	0	0	0	30667	29220	148460	27241	1057016	44733	111422	0	0	8279	422746	0	0
2024-07-14 13:46:47			0	41225	0	0	0	30667	29230	148372	27307	1057007	44734	111422	0	0	8280	422489	0	0
2024-07-14 13:47:47			0	41202	0	0	0	30696	29230	148492	27008	1057061	44734	111433	0	0	8278	423253	0	0
2024-07-14 13:48:47			0	41213	0	0	0	30701	29250	148472	27218	1057087	44735	111435	0	0	8278	422838	0	0
2024-07-14 13:49:47			0	41221	0	0	0	30667	29240	148440	27263	1057042	44722	111422	0	0	8279	422597	0	0
2024-07-14 13:50:47			0	41198	0	0	0	30693	29240	148480	27140	1057105	44723	111432	0	0	8278	423361	0	0
2024-07-14 13:51:47			0	41207	0	0	0	30716	29250	148424	27085	1057114	44723	111441	0	0	8278	423038	0	0
2024-07-14 13:52:47			0	41220	0	0	0	30729	29260	148464	27215	1057186	44724	111446	0	0	8278	422582	0	0
2024-07-14 13:53:47			0	41208	0	0	0	30732	29280	148468	27118	1057303	44727	111447	0	0	8278	422931	0	0
2024-07-14 13:54:47			0	41197	0	0	0	30750	29280	148516	27237	1057402	44749	111454	0	0	8277	423296	0	0
2024-07-14 13:55:47			0	41231	0	0	0	30745	29300	148508	27192	1057437	44740	111452	0	0	8279	422118	0	0
2024-07-14 13:56:47			0	41200	0	0	0	30698	29300	148428	27185	1057329	44740	111434	0	0	8278	423147	0	0
2024-07-14 13:57:47			0	41215	0	0	0	30815	29300	148416	27296	1057410	44740	111479	0	0	8277	422649	0	0
2024-07-14 13:58:47			0	41205	0	0	0	30802	29310	148416	27263	1057518	44763	111474	0	0	8276	422957	0	0
2024-07-14 13:59:47			0	41200	0	0	0	30799	29330	148472	27131	1057544	44753	111473	0	0	8276	423074	0	0
2024-07-14 14:00:47			0	41205	0	0	0	30828	29330	148528	27246	1057661	44754	111484	0	0	8276	422907	0	0
2024-07-14 14:01:47			0	41191	0	0	0	30857	29350	148504	27329	1057742	44766	111495	0	0	8275	423323	0	0
2024-07-14 14:02:47			0	41186	0	0	0	30880	29360	148496	27454	1057814	44768	111504	0	0	8274	423465	0	0
2024-07-14 14:03:47			0	41194	0	0	0	30862	29370	148536	27064	1057921	44758	111497	0	0	8275	423174	0	0
2024-07-14 14:04:47			0	41179	0	0	0	30888	29390	148588	27229	1057975	44760	111507	0	0	8274	423623	0	0
2024-07-14 14:05:47			0	41152	0	0	0	30849	29390	148508	27319	1057921	44760	111492	0	0	8273	424521	0	0
2024-07-14 14:06:47			0	41168	0	0	0	30833	29390	148520	27289	1057894	44738	111486	0	0	8274	423989	0	0
2024-07-14 14:07:47			0	41177	0	0	0	30854	29410	148512	27036	1057957	44750	111494	0	0	8274	423641	0	0
2024-07-14 14:08:47			0	41159	0	0	0	30885	29410	148576	27100	1058038	44773	111506	0	0	8273	424239	0	0
2024-07-14 14:09:47			0	41165	0	0	0	30838	29410	148532	27277	1058101	44750	111488	0	0	8274	424039	0	0
2024-07-14 14:10:47			0	41139	0	0	0	30854	29410	148512	27017	1058038	44750	111494	0	0	8272	424904	0	0
2024-07-14 14:11:47			0	41144	0	0	0	30857	29420	148572	27138	1058028	44741	111495	0	0	8273	424713	0	0
2024-07-14 14:12:47			0	41153	0	0	0	30844	29420	148520	27187	1058037	44742	111490	0	0	8273	424413	0	0
2024-07-14 14:13:47			0	41156	0	0	0	30854	29420	148516	27253	1058037	44752	111494	0	0	8273	424314	0	0
2024-07-14 14:14:47			0	41147	0	0	0	30854	29430	148552	27227	1058055	44742	111494	0	0	8273	424588	0	0
2024-07-14 14:15:47			0	41149	0	0	0	30849	29430	148636	27241	1058136	44742	111492	0	0	8273	424522	0	0
2024-07-14 14:16:47			0	41184	0	0	0	30867	29430	148464	27223	1058109	44752	111499	0	0	8275	423359	0	0
2024-07-14 14:17:47			0	41165	0	0	0	30880	29440	148480	27015	1058091	44743	111504	0	0	8273	423965	0	0
2024-07-14 14:18:47			0	41170	0	0	0	30885	29440	148520	27046	1058127	44754	111506	0	0	8274	423799	0	0
2024-07-14 14:19:47			0	41164	0	0	0	30872	29450	148404	27142	1058253	44754	111501	0	0	8274	423974	0	0
2024-07-14 14:20:47			0	41154	0	0	0	30890	29450	148540	27211	1058199	44754	111508	0	0	8273	424306	0	0
2024-07-14 14:21:47			0	41143	0	0	0	30906	29460	148512	27232	1058208	44755	111514	0	0	8272	424647	0	0
2024-07-14 14:22:47			0	41156	0	0	0	30929	29460	148456	27147	1058315	44766	111523	0	0	8272	424215	0	0
2024-07-14 14:23:47			0	41139	0	0	0	30924	29480	148396	26859	1058324	44768	111521	0	0	8271	424731	0	0
2024-07-14 14:24:47			0	41147	0	0	0	30932	29480	148460	27098	1058324	44757	111524	0	0	8272	424465	0	0
2024-07-14 14:25:47			0	41155	0	0	0	30927	29480	148340	26915	1058360	44758	111522	0	0	8272	424199	0	0
2024-07-14 14:26:47			0	41136	0	0	0	30893	29480	148468	26941	1058351	44757	111509	0	0	8272	424831	0	0
2024-07-14 14:27:47			0	41144	0	0	0	30896	29490	148404	26901	1058369	44748	111510	0	0	8272	424540	0	0
2024-07-14 14:28:47			0	41143	0	0	0	30885	29490	148364	26694	1058351	44748	111506	0	0	8272	424573	0	0
2024-07-14 14:29:47			0	41146	0	0	0	30914	29490	148352	27194	1058369	44759	111517	0	0	8272	424473	0	0
2024-07-14 14:30:47			0	41135	0	0	0	30940	29490	148380	27213	1058369	44759	111527	0	0	8271	424839	0	0
2024-07-14 14:31:47			0	41157	0	0	0	30940	29510	148384	27325	1058459	44772	111527	0	0	8272	424058	0	0
2024-07-14 14:32:47			0	41160	0	0	0	30932	29500	148316	27121	1058477	44771	111524	0	0	8273	423983	0	0
2024-07-14 14:33:47			0	41161	0	0	0	30953	29510	148440	27300	1058468	44750	111532	0	0	8272	423925	0	0
2024-07-14 14:34:47			0	41144	0	0	0	30942	29510	148484	27137	1058540	44750	111528	0	0	8271	424490	0	0
2024-07-14 14:35:47			0	41150	0	0	0	30963	29520	148316	27315	1058594	44762	111536	0	0	8272	424266	0	0
2024-07-14 14:36:47			0	41148	0	0	0	30958	29530	148392	27358	1058603	44751	111534	0	0	8272	424308	0	0
2024-07-14 14:37:47			0	41129	0	0	0	30968	29540	148448	27202	1058674	44763	111538	0	0	8270	424915	0	0
2024-07-14 14:38:47			0	41177	0	0	0	30968	29540	148300	27371	1058647	44763	111538	0	0	8273	423320	0	0
2024-07-14 14:39:47			0	41153	0	0	0	30961	29540	148364	27107	1058674	44763	111535	0	0	8272	424117	0	0
2024-07-14 14:40:47			0	41160	0	0	0	30948	29530	148348	27241	1058638	44763	111530	0	0	8272	423909	0	0
2024-07-14 14:41:47			0	41156	0	0	0	30942	29550	148272	27118	1058602	44763	111528	0	0	8272	423993	0	0
2024-07-14 14:42:47			0	41152	0	0	0	30945	29550	148368	27201	1058629	44752	111529	0	0	8272	424126	0	0
2024-07-14 14:43:47			0	41162	0	0	0	30961	29550	148276	27396	1058665	44764	111535	0	0	8272	423794	0	0
2024-07-14 14:44:47			0	41169	0	0	0	30963	29550	148344	27263	1058692	44764	111536	0	0	8273	423561	0	0
2024-07-14 14:45:47			0	41157	0	0	0	30958	29550	148336	27220	1058683	44763	111534	0	0	8272	423960	0	0
2024-07-14 14:46:47			0	41172	0	0	0	30958	29550	148292	27090	1058719	44776	111534	0	0	8273	423462	0	0
2024-07-14 14:47:47			0	41184	0	0	0	30953	29560	148252	27119	1058674	44754	111532	0	0	8274	423039	0	0
2024-07-14 14:48:47			0	41170	0	0	0	30958	29550	148324	26998	1058692	44753	111534	0	0	8273	423528	0	0
2024-07-14 14:49:47			0	41169	0	0	0	30984	29560	148364	27407	1058701	44754	111544	0	0	8272	423537	0	0
2024-07-14 14:50:47			0	41155	0	0	0	30968	29560	148344	27460	1058737	44765	111538	0	0	8272	424001	0	0
2024-07-14 14:51:47			0	41164	0	0	0	30999	29570	148248	27137	1058863	44766	111550	0	0	8272	423678	0	0
2024-07-14 14:52:47			0	41163	0	0	0	30992	29580	148340	27131	1058898	44779	111547	0	0	8272	423686	0	0
2024-07-14 14:53:47			0	41166	0	0	0	30948	29570	148268	26977	1058809	44766	111530	0	0	8273	423611	0	0
2024-07-14 14:54:47			0	41179	0	0	0	30950	29570	148272	27364	1058719	44744	111531	0	0	8274	423180	0	0
2024-07-14 14:55:47			0	41174	0	0	0	30961	29570	148288	27079	1058701	44766	111535	0	0	8273	423346	0	0
2024-07-14 14:56:47			0	41169	0	0	0	30953	29570	148292	27242	1058755	44755	111532	0	0	8273	423512	0	0
2024-07-14 14:57:47			0	41169	0	0	0	30963	29570	148320	27289	1058782	44755	111536	0	0	8273	423512	0	0
2024-07-14 14:58:47			0	41168	0	0	0	31005	29570	148300	27261	1058800	44754	111552	0	0	8272	423545	0	0
2024-07-14 14:59:47			0	41185	0	0	0	30992	29570	148192	27227	1058827	44765	111547	0	0	8273	422981	0	0
2024-07-14 15:00:47			0	41165	0	0	0	31018	29580	148236	27351	1058826	44767	111557	0	0	8272	423620	0	0
2024-07-14 15:01:47			0	41159	0	0	0	30992	29590	148248	27045	1058889	44767	111547	0	0	8272	423795	0	0
2024-07-14 15:02:47			0	41159	0	0	0	30986	29590	148188	27223	1058952	44757	111545	0	0	8272	423795	0	0
2024-07-14 15:03:47			0	41189	0	0	0	30979	29580	148260	26880	1058880	44767	111542	0	0	8274	422824	0	0
2024-07-14 15:04:47			0	41161	0	0	0	30981	29600	148296	26994	1058916	44759	111543	0	0	8272	423703	0	0
2024-07-14 15:05:47			0	41166	0	0	0	31007	29600	148264	26970	1058916	44759	111553	0	0	8272	423537	0	0
2024-07-14 15:06:47			0	41178	0	0	0	31025	29600	148284	27085	1058988	44758	111560	0	0	8272	423139	0	0
2024-07-14 15:07:47			0	41182	0	0	0	31033	29600	148296	27173	1058997	44770	111563	0	0	8273	423006	0	0
2024-07-14 15:08:47			0	41168	0	0	0	31012	29610	148320	27171	1059006	44770	111555	0	0	8272	423446	0	0
2024-07-14 15:09:47			0	41172	0	0	0	31002	29620	148236	27317	1058997	44771	111551	0	0	8273	423289	0	0
2024-07-14 15:10:47			0	41157	0	0	0	30999	29610	148212	27114	1058988	44759	111550	0	0	8272	423812	0	0
2024-07-14 15:11:47			0	41179	0	0	0	31015	29620	148232	27114	1058978	44761	111556	0	0	8273	423057	0	0
2024-07-14 15:12:47			0	41168	0	0	0	31033	29620	148228	27436	1059086	44761	111563	0	0	8272	423422	0	0
2024-07-14 15:13:47			0	41182	0	0	0	31041	29620	148224	27149	1059113	44772	111566	0	0	8272	422957	0	0
2024-07-14 15:14:47			0	41194	0	0	0	31041	29620	148236	27156	1059086	44772	111566	0	0	8273	422559	0	0
2024-07-14 15:15:47			0	41179	0	0	0	31057	29620	148268	27124	1059113	44784	111572	0	0	8272	423057	0	0
2024-07-14 15:16:47			0	41192	0	0	0	31044	29620	148188	27248	1059113	44772	111567	0	0	8273	422626	0	0
2024-07-14 15:17:47			0	41190	0	0	0	31028	29630	148096	26991	1059131	44772	111561	0	0	8273	422667	0	0
2024-07-14 15:18:47			0	41180	0	0	0	31020	29630	148204	27086	1059077	44772	111558	0	0	8273	422999	0	0
2024-07-14 15:19:47			0	41192	0	0	0	31028	29640	148160	26987	1059113	44773	111561	0	0	8273	422576	0	0
2024-07-14 15:20:47			0	41210	0	0	0	31031	29640	148144	27274	1059086	44762	111562	0	0	8274	421980	0	0
2024-07-14 15:21:47			0	41186	0	0	0	31018	29630	148180	26856	1059122	44772	111557	0	0	8273	422800	0	0
2024-07-14 15:22:47			0	41201	0	0	0	31031	29630	148128	27173	1059077	44761	111562	0	0	8274	422303	0	0
2024-07-14 15:23:47			0	41218	0	0	0	31046	29640	148116	27222	1059194	44773	111568	0	0	8275	421715	0	0
2024-07-14 15:24:47			0	41206	0	0	0	31067	29640	148108	27289	1059257	44774	111576	0	0	8273	422112	0	0
2024-07-14 15:25:47			0	41204	0	0	0	31046	29650	148040	26944	1059185	44786	111568	0	0	8274	422154	0	0
2024-07-14 15:26:47			0	41197	0	0	0	31057	29640	148088	27066	1059257	44763	111572	0	0	8273	422411	0	0
2024-07-14 15:27:47			0	41226	0	0	0	31067	29650	148028	27235	1059239	44763	111576	0	0	8275	421425	0	0
2024-07-14 15:28:47			0	41221	0	0	0	31070	29660	148036	27164	1059257	44764	111577	0	0	8274	421566	0	0
2024-07-14 15:29:47			0	41224	0	0	0	31070	29660	147988	27001	1059311	44787	111577	0	0	8275	421467	0	0
2024-07-14 15:30:47			0	41231	0	0	0	31080	29660	148024	27301	1059347	44776	111581	0	0	8275	421235	0	0
2024-07-14 15:31:47			0	41216	0	0	0	31101	29670	148008	27086	1059356	44788	111589	0	0	8274	421707	0	0
2024-07-14 15:32:47			0	41230	0	0	0	31096	29680	148032	26928	1059374	44788	111587	0	0	8275	421219	0	0
2024-07-14 15:33:47			0	41230	0	0	0	31080	29670	148044	27067	1059338	44788	111581	0	0	8275	421244	0	0
2024-07-14 15:34:47			0	41228	0	0	0	31080	29690	147968	27098	1059418	44767	111581	0	0	8275	421261	0	0
2024-07-14 15:35:47			0	41236	0	0	0	31072	29680	148068	27038	1059374	44777	111578	0	0	8275	421021	0	0
2024-07-14 15:36:47			0	41237	0	0	0	31088	29680	147972	27069	1059320	44765	111584	0	0	8275	420988	0	0
2024-07-14 15:37:47			0	41222	0	0	0	31088	29680	147908	26977	1059383	44778	111584	0	0	8274	421484	0	0
2024-07-14 15:38:47			0	41238	0	0	0	31090	29680	147948	26958	1059410	44766	111585	0	0	8275	420955	0	0
2024-07-14 15:39:47			0	41244	0	0	0	31096	29690	147840	27088	1059508	44767	111587	0	0	8275	420732	0	0
2024-07-14 15:40:47			0	41262	0	0	0	31096	29700	147924	26975	1059499	44780	111587	0	0	8276	420112	0	0
2024-07-14 15:41:47			0	41263	0	0	0	31088	29690	147840	27060	1059454	44767	111584	0	0	8277	420103	0	0
2024-07-14 15:42:47			0	41281	0	0	0	31096	29700	147880	27135	1059436	44790	111587	0	0	8278	419484	0	0
2024-07-14 15:43:47			0	41271	0	0	0	31072	29690	147812	27296	1059427	44779	111578	0	0	8277	419839	0	0
2024-07-14 15:44:47			0	41274	0	0	0	31072	29700	147868	27156	1059409	44767	111578	0	0	8278	419716	0	0
2024-07-14 15:45:47			0	41269	0	0	0	31072	29690	147724	27204	1059364	44779	111578	0	0	8277	419905	0	0
2024-07-14 15:46:47			0	41273	0	0	0	31085	29680	147804	27209	1059383	44800	111583	0	0	8277	419797	0	0
2024-07-14 15:47:47			0	41288	0	0	0	31075	29690	147724	27227	1059427	44790	111579	0	0	8278	419277	0	0
2024-07-14 15:48:47			0	41299	0	0	0	31098	29690	147688	27111	1059481	44790	111588	0	0	8278	418914	0	0
2024-07-14 15:49:47			0	41294	0	0	0	31103	29690	147668	27182	1059454	44779	111590	0	0	8278	419079	0	0
2024-07-14 15:50:47			0	41288	0	0	0	31088	29700	147656	26913	1059472	44768	111584	0	0	8278	419253	0	0
2024-07-14 15:51:47			0	41297	0	0	0	31109	29700	147596	27161	1059526	44780	111592	0	0	8278	418956	0	0
2024-07-14 15:52:47			0	41293	0	0	0	31116	29700	147688	26913	1059553	44780	111595	0	0	8278	419088	0	0
2024-07-14 15:53:47			0	41307	0	0	0	31127	29710	147744	26916	1059625	44769	111599	0	0	8279	418602	0	0
2024-07-14 15:54:47			0	41311	0	0	0	31116	29710	147728	27213	1059616	44758	111595	0	0	8279	418470	0	0
2024-07-14 15:55:47			0	41312	0	0	0	31116	29710	147660	26982	1059544	44769	111595	0	0	8279	418437	0	0
2024-07-14 15:56:47			0	41300	0	0	0	31122	29700	147616	27097	1059634	44780	111597	0	0	8278	418857	0	0
2024-07-14 15:57:47			0	41311	0	0	0	31111	29720	147652	27325	1059616	44770	111593	0	0	8279	418445	0	0
2024-07-14 15:58:47			0	41312	0	0	0	31106	29720	147648	26986	1059562	44782	111591	0	0	8279	418412	0	0
2024-07-14 15:59:47			0	41340	0	0	0	31129	29720	147588	27178	1059670	44792	111600	0	0	8280	417489	0	0
2024-07-14 16:00:47			0	41323	0	0	0	31127	29720	147604	27170	1059616	44782	111599	0	0	8279	418050	0	0
2024-07-14 16:01:47			0	41336	0	0	0	31129	29730	147572	27137	1059652	44771	111600	0	0	8280	417597	0	0
2024-07-14 16:02:47			0	41335	0	0	0	31114	29720	147604	27150	1059643	44782	111594	0	0	8280	417654	0	0
2024-07-14 16:03:47			0	41339	0	0	0	31137	29720	147584	27017	1059670	44770	111603	0	0	8280	417522	0	0
2024-07-14 16:04:47			0	41323	0	0	0	31155	29730	147592	26887	1059660	44783	111610	0	0	8279	418025	0	0
2024-07-14 16:05:47			0	41339	0	0	0	31145	29730	147512	27131	1059733	44783	111606	0	0	8280	417498	0	0
2024-07-14 16:06:47			0	41343	0	0	0	31155	29740	147448	27053	1059696	44772	111610	0	0	8280	417342	0	0
2024-07-14 16:07:47			0	41334	0	0	0	31168	29740	147516	27284	1059750	44784	111615	0	0	8280	417638	0	0
2024-07-14 16:08:47			0	41349	0	0	0	31171	29740	147508	27222	1059732	44784	111616	0	0	8280	417144	0	0
2024-07-14 16:09:47			0	41354	0	0	0	31168	29740	147476	27131	1059840	44772	111615	0	0	8281	416980	0	0
2024-07-14 16:10:47			0	41339	0	0	0	31161	29750	147576	27176	1059777	44786	111612	0	0	8280	417449	0	0
2024-07-14 16:11:47			0	41368	0	0	0	31161	29750	147512	27183	1059822	44795	111612	0	0	8282	416495	0	0
2024-07-14 16:12:47			0	41359	0	0	0	31161	29760	147516	27041	1059840	44796	111612	0	0	8281	416766	0	0
2024-07-14 16:13:47			0	41356	0	0	0	31163	29750	147504	27053	1059849	44773	111613	0	0	8281	416890	0	0
2024-07-14 16:14:47			0	41359	0	0	0	31173	29750	147436	27338	1059831	44796	111617	0	0	8281	416791	0	0
2024-07-14 16:15:47			0	41346	0	0	0	31176	29760	147480	27185	1059840	44796	111618	0	0	8280	417194	0	0
2024-07-14 16:16:47			0	41361	0	0	0	31194	29760	147548	27317	1059849	44786	111625	0	0	8281	416701	0	0
2024-07-14 16:17:47			0	41375	0	0	0	31184	29770	147328	27261	1059921	44787	111621	0	0	8282	416216	0	0
2024-07-14 16:18:47			0	41363	0	0	0	31176	29770	147388	27102	1059912	44787	111618	0	0	8281	416611	0	0
2024-07-14 16:19:47			0	41371	0	0	0	31176	29770	147376	26953	1059858	44797	111618	0	0	8282	416347	0	0
2024-07-14 16:20:47			0	41358	0	0	0	31173	29770	147380	27213	1059867	44776	111617	0	0	8281	416775	0	0
2024-07-14 16:21:47			0	41395	0	0	0	31171	29770	147384	27377	1059894	44787	111616	0	0	8283	415558	0	0
2024-07-14 16:22:47			0	41388	0	0	0	31179	29780	147460	27265	1059912	44787	111619	0	0	8283	415764	0	0
2024-07-14 16:23:47			0	41387	0	0	0	31184	29770	147352	27279	1059975	44787	111621	0	0	8282	415821	0	0
2024-07-14 16:24:47			0	41374	0	0	0	31194	29780	147308	27029	1059957	44776	111625	0	0	8282	416224	0	0
2024-07-14 16:25:47			0	41380	0	0	0	31199	29780	147420	27516	1059966	44798	111627	0	0	8282	416027	0	0
2024-07-14 16:26:47			0	41389	0	0	0	31199	29790	147324	27351	1059975	44788	111627	0	0	8282	415707	0	0
2024-07-14 16:27:47			0	41389	0	0	0	31202	29790	147252	27114	1060038	44800	111628	0	0	8282	415707	0	0
2024-07-14 16:28:47			0	41385	0	0	0	31218	29780	147292	27317	1060047	44787	111634	0	0	8282	415863	0	0
2024-07-14 16:29:47			0	41394	0	0	0	31225	29800	147272	26970	1060163	44790	111637	0	0	8282	415518	0	0
2024-07-14 16:30:47			0	41392	0	0	0	31225	29810	147300	27154	1060118	44790	111637	0	0	8282	415560	0	0
2024-07-14 16:31:47			0	41414	0	0	0	31220	29810	147276	27339	1060145	44801	111635	0	0	8284	414837	0	0
2024-07-14 16:32:47			0	41404	0	0	0	31210	29810	147200	27301	1060091	44801	111631	0	0	8283	415166	0	0
2024-07-14 16:33:47			0	41412	0	0	0	31210	29800	147200	27282	1060163	44812	111631	0	0	8284	414927	0	0
2024-07-14 16:34:47			0	41408	0	0	0	31202	29810	147312	27175	1060118	44801	111628	0	0	8283	415034	0	0
2024-07-14 16:35:47			0	41402	0	0	0	31210	29810	147200	27163	1060118	44790	111631	0	0	8283	415231	0	0
2024-07-14 16:36:47			0	41411	0	0	0	31220	29810	147224	27005	1060145	44790	111635	0	0	8283	414936	0	0
2024-07-14 16:37:47			0	41399	0	0	0	31220	29810	147236	27507	1060127	44791	111635	0	0	8283	415330	0	0
2024-07-14 16:38:47			0	41404	0	0	0	31215	29810	147156	26982	1060127	44813	111633	0	0	8283	415166	0	0
2024-07-14 16:39:47			0	41416	0	0	0	31223	29820	147144	27071	1060172	44791	111636	0	0	8284	414747	0	0
2024-07-14 16:40:47			0	41419	0	0	0	31228	29830	147160	27244	1060208	44803	111638	0	0	8284	414625	0	0
2024-07-14 16:41:47			0	41424	0	0	0	31225	29820	147128	27192	1060172	44803	111637	0	0	8284	414485	0	0
2024-07-14 16:42:47			0	41421	0	0	0	31223	29830	147144	27282	1060217	44804	111636	0	0	8284	414559	0	0
2024-07-14 16:43:47			0	41433	0	0	0	31225	29820	147236	27003	1060226	44803	111637	0	0	8285	414190	0	0
2024-07-14 16:44:47			0	41419	0	0	0	31220	29830	147196	26930	1060208	44791	111635	0	0	8284	414625	0	0
2024-07-14 16:45:47			0	41427	0	0	0	31220	29830	147193	27213	1060154	44791	111635	0	0	8284	414362	0	0
2024-07-14 16:46:47			0	41435	0	0	0	31233	29830	147129	27203	1060190	44815	111640	0	0	8285	414100	0	0
2024-07-14 16:47:47			0	41438	0	0	0	31231	29830	147137	27131	1060181	44791	111639	0	0	8285	414002	0	0
2024-07-14 16:48:47			0	41429	0	0	0	31236	29840	147072	27182	1060226	44793	111641	0	0	8284	414273	0	0
2024-07-14 16:49:47			0	41420	0	0	0	31251	29830	147104	27194	1060289	44803	111647	0	0	8283	414592	0	0
2024-07-14 16:50:47			0	41450	0	0	0	31241	29830	147097	27280	1060244	44815	111643	0	0	8285	413608	0	0
2024-07-14 16:51:47			0	41421	0	0	0	31257	29830	147057	27034	1060298	44815	111649	0	0	8283	414559	0	0
2024-07-14 16:52:47			0	41451	0	0	0	31254	29850	147025	27078	1060289	44793	111648	0	0	8285	413527	0	0
2024-07-14 16:53:47			0	41458	0	0	0	31249	29860	147049	27218	1060306	44794	111646	0	0	8286	413274	0	0
2024-07-14 16:54:47			0	41437	0	0	0	31259	29850	147029	26880	1060378	44794	111650	0	0	8284	413986	0	0
2024-07-14 16:55:47			0	41471	0	0	0	31251	29850	147025	27180	1060297	44794	111647	0	0	8286	412872	0	0
2024-07-14 16:56:47			0	41463	0	0	0	31257	29850	147073	27150	1060324	44806	111649	0	0	8286	413134	0	0
2024-07-14 16:57:47			0	41462	0	0	0	31259	29860	146965	27001	1060333	44794	111650	0	0	8286	413142	0	0
2024-07-14 16:58:47			0	41472	0	0	0	31267	29860	147097	27144	1060360	44806	111653	0	0	8286	412815	0	0
2024-07-14 16:59:47			0	41443	0	0	0	31259	29860	146981	26866	1060387	44784	111650	0	0	8285	413765	0	0
2024-07-14 17:00:47			0	41463	0	0	0	31249	29870	147017	27211	1060405	44795	111646	0	0	8286	413086	0	0
2024-07-14 17:01:47			0	41460	0	0	0	31264	29850	146929	27189	1060378	44806	111652	0	0	8286	413232	0	0
2024-07-14 17:02:47			0	41484	0	0	0	31262	29870	146949	26972	1060432	44795	111651	0	0	8287	412398	0	0
2024-07-14 17:03:47			0	41481	0	0	0	31267	29870	146921	27315	1060432	44795	111653	0	0	8287	412496	0	0
2024-07-14 17:04:47			0	41485	0	0	0	31259	29860	146953	27253	1060396	44807	111650	0	0	8287	412389	0	0
2024-07-14 17:05:47			0	41499	0	0	0	31264	29870	146857	27069	1060468	44796	111652	0	0	8288	411907	0	0
2024-07-14 17:06:47			0	41495	0	0	0	31267	29870	146929	27104	1060441	44808	111653	0	0	8288	412038	0	0
2024-07-14 17:07:47			0	41503	0	0	0	31264	29870	146921	26896	1060441	44808	111652	0	0	8288	411777	0	0
2024-07-14 17:08:47			0	41484	0	0	0	31264	29870	146885	27083	1060441	44808	111652	0	0	8287	412398	0	0
2024-07-14 17:09:47			0	41496	0	0	0	31272	29870	146797	26595	1060441	44796	111655	0	0	8288	412005	0	0
2024-07-14 17:10:47			0	41501	0	0	0	31270	29880	146785	26798	1060477	44796	111654	0	0	8288	411818	0	0
2024-07-14 17:11:47			0	41502	0	0	0	31270	29880	146841	27183	1060504	44796	111654	0	0	8288	411785	0	0
2024-07-14 17:12:47			0	41515	0	0	0	31283	29880	146905	26800	1060504	44819	111659	0	0	8289	411360	0	0
2024-07-14 17:13:47			0	41528	0	0	0	31275	29870	146809	26831	1060468	44808	111656	0	0	8289	410959	0	0
2024-07-14 17:14:47			0	41501	0	0	0	31272	29880	146857	26804	1060450	44786	111655	0	0	8288	411818	0	0
2024-07-14 17:15:47			0	41509	0	0	0	31267	29870	146841	26949	1060360	44796	111653	0	0	8288	411580	0	0
2024-07-14 17:16:47			0	41525	0	0	0	31262	29880	146745	27017	1060486	44809	111651	0	0	8289	411033	0	0
2024-07-14 17:17:47			0	41532	0	0	0	31262	29870	146673	27074	1060414	44808	111651	0	0	8290	410828	0	0
2024-07-14 17:18:47			0	41530	0	0	0	31251	29880	146777	27098	1060423	44808	111647	0	0	8290	410870	0	0
2024-07-14 17:19:47			0	41516	0	0	0	31249	29880	146685	27029	1060378	44797	111646	0	0	8289	411327	0	0
2024-07-14 17:20:47			0	41531	0	0	0	31241	29870	146725	26795	1060378	44785	111643	0	0	8290	410861	0	0
2024-07-14 17:21:47			0	41543	0	0	0	31228	29870	146717	26951	1060360	44786	111638	0	0	8291	410469	0	0
2024-07-14 17:22:47			0	41537	0	0	0	31231	29870	146737	26989	1060324	44785	111639	0	0	8291	410665	0	0
2024-07-14 17:23:47			0	41534	0	0	0	31231	29860	146617	26927	1060342	44785	111639	0	0	8290	410787	0	0
2024-07-14 17:24:47			0	41532	0	0	0	31223	29850	146681	27320	1060297	44806	111636	0	0	8290	410876	0	0
2024-07-14 17:25:47			0	41534	0	0	0	31215	29850	146649	26982	1060324	44794	111633	0	0	8291	410811	0	0
2024-07-14 17:26:47			0	41547	0	0	0	31210	29850	146681	26982	1060297	44794	111631	0	0	8291	410387	0	0
2024-07-14 17:27:47			0	41558	0	0	0	31210	29850	146673	27059	1060181	44793	111631	0	0	8292	410028	0	0
2024-07-14 17:28:47			0	41560	0	0	0	31210	29850	146681	27074	1060297	44794	111631	0	0	8292	409962	0	0
2024-07-14 17:29:47			0	41553	0	0	0	31218	29850	146593	27182	1060316	44793	111634	0	0	8292	410191	0	0
2024-07-14 17:30:47			0	41558	0	0	0	31215	29830	146745	27178	1060271	44804	111633	0	0	8292	410075	0	0
2024-07-14 17:31:47			0	41534	0	0	0	31223	29850	146785	27079	1060262	44793	111636	0	0	8291	410811	0	0
2024-07-14 17:32:47			0	41521	0	0	0	31223	29830	146765	27234	1060244	44804	111636	0	0	8290	411284	0	0
2024-07-14 17:33:47			0	41547	0	0	0	31218	29840	146821	26986	1060253	44805	111634	0	0	8291	410410	0	0
2024-07-14 17:34:47			0	41543	0	0	0	31218	29850	146737	27045	1060235	44805	111634	0	0	8291	410517	0	0
2024-07-14 17:35:47			0	41534	0	0	0	31199	29840	146809	27225	1060253	44805	111627	0	0	8291	410835	0	0
2024-07-14 17:36:47			0	41541	0	0	0	31199	29820	146713	26890	1060199	44791	111627	0	0	8291	410654	0	0
2024-07-14 17:37:47			0	41538	0	0	0	31202	29830	146701	27189	1060154	44791	111628	0	0	8291	410728	0	0
2024-07-14 17:38:47			0	41551	0	0	0	31189	29820	146725	27034	1060118	44791	111623	0	0	8292	410328	0	0
2024-07-14 17:39:47			0	41559	0	0	0	31171	29820	146785	27216	1060082	44791	111616	0	0	8293	410067	0	0
2024-07-14 17:40:47			0	41548	0	0	0	31168	29810	146725	27171	1060010	44790	111615	0	0	8292	410450	0	0
2024-07-14 17:41:47			0	41558	0	0	0	31155	29810	146613	27364	1060010	44779	111610	0	0	8293	410123	0	0
2024-07-14 17:42:47			0	41558	0	0	0	31158	29800	146673	27045	1060046	44800	111611	0	0	8293	410147	0	0
2024-07-14 17:43:47			0	41542	0	0	0	31173	29800	146793	27071	1060001	44790	111617	0	0	8292	410670	0	0
2024-07-14 17:44:47			0	41530	0	0	0	31181	29800	146857	26887	1060127	44800	111620	0	0	8291	411062	0	0
2024-07-14 17:45:47			0	41530	0	0	0	31173	29790	146645	27059	1060038	44800	111617	0	0	8291	411086	0	0
2024-07-14 17:46:47			0	41522	0	0	0	31173	29800	146865	26920	1060028	44801	111617	0	0	8290	411323	0	0
2024-07-14 17:47:47			0	41536	0	0	0	31173	29800	146861	27178	1060019	44778	111617	0	0	8291	410866	0	0
2024-07-14 17:48:47			0	41538	0	0	0	31176	29790	146821	27185	1060056	44799	111618	0	0	8291	410824	0	0
2024-07-14 17:49:47			0	41537	0	0	0	31173	29790	146833	27208	1060038	44800	111617	0	0	8291	410857	0	0
2024-07-14 17:50:47			0	41540	0	0	0	31181	29780	146837	27246	1060020	44798	111620	0	0	8291	410783	0	0
2024-07-14 17:51:47			0	41534	0	0	0	31184	29800	146861	27046	1060046	44800	111621	0	0	8291	410931	0	0
2024-07-14 17:52:47			0	41534	0	0	0	31199	29800	146857	26946	1060055	44790	111627	0	0	8291	410931	0	0
2024-07-14 17:53:47			0	41539	0	0	0	31192	29800	146893	26996	1060109	44801	111624	0	0	8291	410767	0	0
2024-07-14 17:54:47			0	41524	0	0	0	31202	29800	146837	27010	1060082	44801	111628	0	0	8290	411258	0	0
2024-07-14 17:55:47			0	41536	0	0	0	31197	29800	146861	26956	1060046	44800	111626	0	0	8291	410866	0	0
2024-07-14 17:56:47			0	41535	0	0	0	31189	29800	146801	26887	1060109	44790	111623	0	0	8291	410898	0	0
2024-07-14 17:57:47			0	41555	0	0	0	31184	29800	146757	27001	1060073	44789	111621	0	0	8292	410245	0	0
2024-07-14 17:58:47			0	41554	0	0	0	31171	29800	146853	27027	1060082	44790	111616	0	0	8292	410278	0	0
2024-07-14 17:59:47			0	41566	0	0	0	31173	29780	146869	26961	1060047	44787	111617	0	0	8293	409934	0	0
2024-07-14 18:00:47			0	41563	0	0	0	31179	29800	146789	26811	1060055	44812	111619	0	0	8293	409984	0	0
2024-07-14 18:01:47			0	41535	0	0	0	31176	29790	146777	26960	1060092	44800	111618	0	0	8291	410922	0	0
2024-07-14 18:02:47			0	41541	0	0	0	31181	29790	146749	27086	1060092	44800	111620	0	0	8291	410726	0	0
2024-07-14 18:03:47			0	41560	0	0	0	31189	29800	146829	27244	1060073	44789	111623	0	0	8292	410082	0	0
2024-07-14 18:04:47			0	41541	0	0	0	31197	29800	146837	26717	1060136	44812	111626	0	0	8291	410702	0	0
2024-07-14 18:05:47			0	41557	0	0	0	31197	29800	146873	26771	1060109	44801	111626	0	0	8292	410180	0	0
2024-07-14 18:06:47			0	41563	0	0	0	31194	29810	146897	27130	1060145	44801	111625	0	0	8293	409960	0	0
2024-07-14 18:07:47			0	41559	0	0	0	31202	29800	146845	27194	1060163	44801	111628	0	0	8292	410114	0	0
2024-07-14 18:08:47			0	41567	0	0	0	31202	29790	146697	27242	1060092	44811	111628	0	0	8293	409877	0	0
2024-07-14 18:09:47			0	41581	0	0	0	31197	29800	146733	27152	1060100	44811	111626	0	0	8293	409396	0	0
2024-07-14 18:10:47			0	41559	0	0	0	31205	29800	146797	27123	1060082	44801	111629	0	0	8292	410114	0	0
2024-07-14 18:11:47			0	41567	0	0	0	31197	29800	146813	26889	1060055	44790	111626	0	0	8293	409853	0	0
2024-07-14 18:12:47			0	41576	0	0	0	31184	29800	146717	27027	1060082	44790	111621	0	0	8293	409560	0	0
2024-07-14 18:13:47			0	41574	0	0	0	31189	29790	146721	27000	1060110	44777	111623	0	0	8293	409649	0	0
2024-07-14 18:14:47			0	41583	0	0	0	31186	29800	146729	26892	1060127	44800	111622	0	0	8294	409331	0	0
2024-07-14 18:15:47			0	41585	0	0	0	31184	29800	146689	27085	1060109	44801	111621	0	0	8294	409266	0	0
2024-07-14 18:16:47			0	41579	0	0	0	31181	29790	146701	26955	1060056	44788	111620	0	0	8294	409486	0	0
2024-07-14 18:17:47			0	41586	0	0	0	31186	29800	146589	26863	1060028	44812	111622	0	0	8294	409233	0	0
2024-07-14 18:18:47			0	41596	0	0	0	31181	29800	146697	27098	1060073	44811	111620	0	0	8295	408907	0	0
2024-07-14 18:19:47			0	41586	0	0	0	31197	29800	146633	27104	1060100	44800	111626	0	0	8294	409233	0	0
2024-07-14 18:20:47			0	41596	0	0	0	31194	29800	146589	27218	1060073	44800	111625	0	0	8294	408907	0	0
2024-07-14 18:21:47			0	41566	0	0	0	31202	29800	146709	27149	1060127	44811	111628	0	0	8293	409886	0	0
2024-07-14 18:22:47			0	41580	0	0	0	31202	29800	146609	27161	1060109	44812	111628	0	0	8293	409429	0	0
2024-07-14 18:23:47			0	41585	0	0	0	31210	29800	146601	26991	1060163	44812	111631	0	0	8293	409266	0	0
2024-07-14 18:24:47			0	41586	0	0	0	31215	29800	146581	27131	1060163	44801	111633	0	0	8293	409233	0	0
2024-07-14 18:25:47			0	41578	0	0	0	31218	29810	146589	26958	1060199	44801	111634	0	0	8293	409471	0	0
2024-07-14 18:26:47			0	41600	0	0	0	31215	29800	146621	27083	1060136	44801	111633	0	0	8294	408777	0	0
2024-07-14 18:27:47			0	41588	0	0	0	31215	29810	146725	27017	1060145	44801	111633	0	0	8294	409144	0	0
2024-07-14 18:28:47			0	41598	0	0	0	31215	29810	146693	26750	1060208	44791	111633	0	0	8294	408818	0	0
2024-07-14 18:29:47			0	41592	0	0	0	31228	29820	146681	26838	1060199	44826	111638	0	0	8294	408990	0	0
2024-07-14 18:30:47			0	41604	0	0	0	31223	29820	146701	26932	1060244	44802	111636	0	0	8294	408599	0	0
2024-07-14 18:31:47			0	41604	0	0	0	31225	29810	146649	26961	1060199	44801	111637	0	0	8294	408623	0	0
2024-07-14 18:32:47			0	41604	0	0	0	31220	29810	146677	26920	1060262	44791	111635	0	0	8294	408623	0	0
2024-07-14 18:33:47			0	41594	0	0	0	31223	29820	146729	26849	1060217	44813	111636	0	0	8294	408925	0	0
2024-07-14 18:34:47			0	41601	0	0	0	31215	29810	146657	27079	1060235	44791	111633	0	0	8294	408720	0	0
2024-07-14 18:35:47			0	41586	0	0	0	31212	29810	146701	27280	1060262	44813	111632	0	0	8294	409210	0	0
2024-07-14 18:36:47			0	41603	0	0	0	31205	29810	146549	26762	1060208	44802	111629	0	0	8295	408655	0	0
2024-07-14 18:37:47			0	41604	0	0	0	31205	29820	146621	27161	1060226	44803	111629	0	0	8295	408599	0	0
2024-07-14 18:38:47			0	41598	0	0	0	31207	29820	146533	27124	1060199	44814	111630	0	0	8294	408794	0	0
2024-07-14 18:39:47			0	41616	0	0	0	31207	29810	146541	27124	1060199	44812	111630	0	0	8295	408232	0	0
2024-07-14 18:40:47			0	41624	0	0	0	31199	29810	146593	27039	1060208	44802	111627	0	0	8296	407971	0	0
2024-07-14 18:41:47			0	41624	0	0	0	31194	29820	146573	27036	1060244	44802	111625	0	0	8296	407948	0	0
2024-07-14 18:42:47			0	41611	0	0	0	31179	29800	146593	27012	1060055	44801	111619	0	0	8295	408418	0	0
2024-07-14 18:43:47			0	41619	0	0	0	31163	29800	146569	26720	1060109	44790	111613	0	0	8296	408158	0	0
2024-07-14 18:44:47			0	41630	0	0	0	31168	29790	146493	26899	1060038	44800	111615	0	0	8297	407823	0	0
2024-07-14 18:45:47			0	41635	0	0	0	31142	29800	146533	26706	1060028	44812	111605	0	0	8297	407637	0	0
2024-07-14 18:46:47			0	41631	0	0	0	31129	29790	146525	27277	1059975	44788	111600	0	0	8297	407791	0	0
2024-07-14 18:47:47			0	41637	0	0	0	31129	29780	146469	26866	1059930	44798	111600	0	0	8298	407619	0	0
2024-07-14 18:48:47			0	41650	0	0	0	31140	29770	146421	26628	1059921	44809	111604	0	0	8298	407220	0	0
2024-07-14 18:49:47			0	41647	0	0	0	31140	29780	146545	27024	1059957	44787	111604	0	0	8298	407294	0	0
2024-07-14 18:50:47			0	41660	0	0	0	31148	29770	146497	26928	1059966	44808	111607	0	0	8299	406895	0	0
2024-07-14 18:51:47			0	41657	0	0	0	31155	29770	146489	27170	1059975	44798	111610	0	0	8298	406992	0	0
2024-07-14 18:52:47			0	41676	0	0	0	31161	29770	146429	27088	1059975	44809	111612	0	0	8299	406375	0	0
2024-07-14 18:53:47			0	41656	0	0	0	31158	29770	146505	26878	1059966	44808	111611	0	0	8298	407025	0	0
2024-07-14 18:54:47			0	41695	0	0	0	31168	29770	146397	27116	1059939	44808	111615	0	0	8300	405757	0	0
2024-07-14 18:55:47			0	41677	0	0	0	31161	29770	146465	26764	1059921	44798	111612	0	0	8299	406342	0	0
2024-07-14 18:56:47			0	41667	0	0	0	31161	29770	146389	27176	1059975	44798	111612	0	0	8299	406667	0	0
2024-07-14 18:57:47			0	41682	0	0	0	31155	29780	146413	27097	1059903	44809	111610	0	0	8300	406156	0	0
2024-07-14 18:58:47			0	41691	0	0	0	31158	29760	146245	27085	1059876	44819	111611	0	0	8300	405911	0	0
2024-07-14 18:59:47			0	41684	0	0	0	31166	29770	146381	26981	1059921	44809	111614	0	0	8300	406115	0	0
2024-07-14 19:00:47			0	41702	0	0	0	31145	29770	146301	26656	1059912	44820	111606	0	0	8301	405530	0	0
2024-07-14 19:01:47			0	41696	0	0	0	31148	29770	146357	27067	1059885	44797	111607	0	0	8301	405725	0	0
2024-07-14 19:02:47			0	41725	0	0	0	31140	29760	146325	26968	1059930	44796	111604	0	0	8303	404807	0	0
2024-07-14 19:03:47			0	41719	0	0	0	31132	29760	146317	26930	1059849	44796	111601	0	0	8302	405002	0	0
2024-07-14 19:04:47			0	41714	0	0	0	31137	29760	146269	27079	1059876	44786	111603	0	0	8302	405164	0	0
2024-07-14 19:05:47			0	41727	0	0	0	31129	29760	146309	26847	1059840	44786	111600	0	0	8303	404742	0	0
2024-07-14 19:06:47			0	41724	0	0	0	31137	29750	146253	26750	1059822	44807	111603	0	0	8302	404863	0	0
2024-07-14 19:07:47			0	41726	0	0	0	31129	29760	146205	27013	1059876	44796	111600	0	0	8303	404775	0	0
2024-07-14 19:08:47			0	41730	0	0	0	31127	29750	146289	26814	1059831	44807	111599	0	0	8303	404669	0	0
2024-07-14 19:09:47			0	41738	0	0	0	31124	29750	146217	27100	1059849	44795	111598	0	0	8304	404409	0	0
2024-07-14 19:10:47			0	41732	0	0	0	31127	29750	146197	27256	1059768	44795	111599	0	0	8303	404604	0	0
2024-07-14 19:11:47			0	41741	0	0	0	31132	29750	146161	27050	1059849	44785	111601	0	0	8304	404312	0	0
2024-07-14 19:12:47			0	41740	0	0	0	31127	29740	146185	26975	1059804	44806	111599	0	0	8304	404368	0	0
2024-07-14 19:13:47			0	41744	0	0	0	31137	29740	146089	27097	1059867	44806	111603	0	0	8304	404238	0	0
2024-07-14 19:14:47			0	41746	0	0	0	31137	29740	146205	26837	1059786	44817	111603	0	0	8304	404173	0	0
2024-07-14 19:15:47			0	41752	0	0	0	31132	29740	146169	27039	1059804	44806	111601	0	0	8304	403979	0	0
2024-07-14 19:16:47			0	41769	0	0	0	31129	29730	146021	26708	1059741	44805	111600	0	0	8305	403452	0	0
2024-07-14 19:17:47			0	41761	0	0	0	31124	29740	146101	26795	1059786	44794	111598	0	0	8305	403687	0	0
2024-07-14 19:18:47			0	41763	0	0	0	31129	29740	146153	27190	1059804	44806	111600	0	0	8305	403622	0	0
2024-07-14 19:19:47			0	41778	0	0	0	31129	29740	146141	27268	1059867	44817	111600	0	0	8306	403137	0	0
2024-07-14 19:20:47			0	41765	0	0	0	31122	29730	146129	26814	1059795	44805	111597	0	0	8305	403581	0	0
2024-07-14 19:21:47			0	41785	0	0	0	31129	29740	146145	27135	1059804	44817	111600	0	0	8306	402910	0	0
2024-07-14 19:22:47			0	41760	0	0	0	31122	29740	146169	27118	1059777	44806	111597	0	0	8305	403720	0	0
2024-07-14 19:23:47			0	41784	0	0	0	31122	29740	146125	27048	1059804	44794	111597	0	0	8306	402942	0	0
2024-07-14 19:24:47			0	41780	0	0	0	31116	29740	146117	26774	1059777	44794	111595	0	0	8306	403072	0	0
2024-07-14 19:25:47			0	41788	0	0	0	31119	29730	146081	27052	1059768	44793	111596	0	0	8306	402836	0	0
2024-07-14 19:26:47			0	41785	0	0	0	31111	29740	146085	26882	1059732	44806	111593	0	0	8306	402910	0	0
2024-07-14 19:27:47			0	41792	0	0	0	31106	29740	146057	26937	1059723	44794	111591	0	0	8307	402683	0	0
2024-07-14 19:28:47			0	41799	0	0	0	31103	29730	146105	26859	1059687	44793	111590	0	0	8307	402480	0	0
2024-07-14 19:29:47			0	41803	0	0	0	31106	29730	146085	26899	1059733	44805	111591	0	0	8307	402351	0	0
2024-07-14 19:30:47			0	41804	0	0	0	31103	29730	146077	27079	1059679	44793	111590	0	0	8308	402319	0	0
2024-07-14 19:31:47			0	41818	0	0	0	31093	29720	145901	26974	1059670	44792	111586	0	0	8309	401889	0	0
2024-07-14 19:32:47			0	41798	0	0	0	31103	29720	145961	26974	1059643	44804	111590	0	0	8307	402536	0	0
2024-07-14 19:33:47			0	41804	0	0	0	31103	29720	145937	26750	1059670	44815	111590	0	0	8308	402342	0	0
2024-07-14 19:34:47			0	41834	0	0	0	31103	29730	145961	26729	1059706	44816	111590	0	0	8309	401349	0	0
2024-07-14 19:35:47			0	41837	0	0	0	31124	29720	146061	26897	1059688	44791	111598	0	0	8309	401275	0	0
2024-07-14 19:36:47			0	41797	0	0	0	31116	29730	146037	26817	1059733	44805	111595	0	0	8307	402545	0	0
2024-07-14 19:37:47			0	41825	0	0	0	31119	29720	145945	26882	1059778	44804	111596	0	0	8308	401663	0	0
2024-07-14 19:38:47			0	41819	0	0	0	31119	29730	146037	27282	1059760	44816	111596	0	0	8308	401834	0	0
2024-07-14 19:39:47			0	41814	0	0	0	31111	29720	145937	27098	1059670	44804	111593	0	0	8308	402019	0	0
2024-07-14 19:40:47			0	41831	0	0	0	31109	29720	146013	27109	1059715	44803	111592	0	0	8309	401469	0	0
2024-07-14 19:41:47			0	41838	0	0	0	31101	29720	145889	26774	1059751	44815	111589	0	0	8310	401243	0	0
2024-07-14 19:42:47			0	41851	0	0	0	31103	29720	146033	26958	1059661	44814	111590	0	0	8310	400823	0	0
2024-07-14 19:43:47			0	41845	0	0	0	31096	29720	145793	26908	1059661	44814	111587	0	0	8310	401017	0	0
2024-07-14 19:44:47			0	41863	0	0	0	31090	29720	145881	26807	1059715	44803	111585	0	0	8311	400436	0	0
2024-07-14 19:45:47			0	41845	0	0	0	31101	29720	145869	26778	1059634	44803	111589	0	0	8310	401017	0	0
2024-07-14 19:46:47			0	41859	0	0	0	31088	29710	145809	27038	1059652	44803	111584	0	0	8311	400588	0	0
2024-07-14 19:47:47			0	41873	0	0	0	31088	29710	145841	27102	1059589	44791	111584	0	0	8312	400136	0	0
2024-07-14 19:48:47			0	41882	0	0	0	31075	29710	145805	26812	1059562	44791	111579	0	0	8312	399846	0	0
2024-07-14 19:49:47			0	41857	0	0	0	31067	29710	145813	26642	1059652	44791	111576	0	0	8311	400653	0	0
2024-07-14 19:50:47			0	41880	0	0	0	31072	29690	145833	26863	1059481	44790	111578	0	0	8312	399957	0	0
2024-07-14 19:51:47			0	41868	0	0	0	31072	29700	145821	26845	1059571	44801	111578	0	0	8312	400321	0	0
2024-07-14 19:52:47			0	41859	0	0	0	31064	29690	145801	26828	1059499	44812	111575	0	0	8311	400635	0	0
2024-07-14 19:53:47			0	41888	0	0	0	31059	29700	145801	26769	1059517	44801	111573	0	0	8313	399676	0	0
2024-07-14 19:54:47			0	41893	0	0	0	31062	29700	145797	26989	1059553	44802	111574	0	0	8313	399515	0	0
2024-07-14 19:55:47			0	41869	0	0	0	31059	29690	145697	26838	1059508	44801	111573	0	0	8312	400312	0	0
2024-07-14 19:56:47			0	41884	0	0	0	31049	29690	145753	26863	1059391	44790	111569	0	0	8313	399828	0	0
2024-07-14 19:57:47			0	41890	0	0	0	31033	29680	145677	27164	1059428	44777	111563	0	0	8314	399658	0	0
2024-07-14 19:58:47			0	41888	0	0	0	30989	29670	145705	26932	1059221	44765	111546	0	0	8314	399746	0	0
2024-07-14 19:59:47			0	41904	0	0	0	30940	29650	145629	26672	1059113	44763	111527	0	0	8316	399276	0	0
2024-07-14 20:00:47			0	41921	0	0	0	30919	29620	145633	26958	1058997	44760	111519	0	0	8317	398798	0	0
2024-07-14 20:01:47			0	41905	0	0	0	30890	29610	145637	27039	1058934	44759	111508	0	0	8317	399337	0	0
2024-07-14 20:02:47			0	41916	0	0	0	30877	29590	145673	27020	1058781	44767	111503	0	0	8317	399029	0	0
2024-07-14 20:03:47			0	41922	0	0	0	30877	29580	145649	26769	1058845	44779	111503	0	0	8318	398859	0	0
2024-07-14 20:04:47			0	41927	0	0	0	30867	29570	145701	27038	1058809	44778	111499	0	0	8318	398721	0	0
2024-07-14 20:05:47			0	41919	0	0	0	30864	29570	145741	27033	1058746	44777	111498	0	0	8318	398979	0	0
2024-07-14 20:06:47			0	41929	0	0	0	30872	29570	145737	26816	1058746	44777	111501	0	0	8318	398656	0	0
2024-07-14 20:07:47			0	41932	0	0	0	30888	29560	145689	27241	1058764	44777	111507	0	0	8318	398583	0	0
2024-07-14 20:08:47			0	41921	0	0	0	30890	29560	145645	27064	1058764	44799	111508	0	0	8317	398937	0	0
2024-07-14 20:09:47			0	41930	0	0	0	30880	29550	145781	26958	1058791	44786	111504	0	0	8318	398671	0	0
2024-07-14 20:10:47			0	41940	0	0	0	30888	29540	145713	27017	1058782	44797	111507	0	0	8318	398372	0	0
2024-07-14 20:11:47			0	41942	0	0	0	30888	29540	145705	27088	1058701	44775	111507	0	0	8318	398307	0	0
2024-07-14 20:12:47			0	41937	0	0	0	30883	29530	145777	27280	1058630	44785	111505	0	0	8318	398491	0	0
2024-07-14 20:13:47			0	41931	0	0	0	30859	29520	145757	27163	1058594	44773	111496	0	0	8318	398708	0	0
2024-07-14 20:14:47			0	41943	0	0	0	30846	29510	145733	27031	1058549	44750	111491	0	0	8319	398345	0	0
2024-07-14 20:15:47			0	41945	0	0	0	30844	29510	145737	26625	1058513	44772	111490	0	0	8319	398280	0	0
2024-07-14 20:16:47			0	41977	0	0	0	30841	29500	145733	27071	1058495	44782	111489	0	0	8321	397273	0	0
2024-07-14 20:17:47			0	41971	0	0	0	30836	29490	145717	26812	1058423	44792	111487	0	0	8321	397489	0	0
2024-07-14 20:18:47			0	41952	0	0	0	30833	29490	145717	27123	1058450	44792	111486	0	0	8320	398101	0	0
2024-07-14 20:19:47			0	41951	0	0	0	30831	29480	145729	27190	1058387	44769	111485	0	0	8320	398156	0	0
2024-07-14 20:20:47			0	41969	0	0	0	30828	29470	145693	26904	1058396	44768	111484	0	0	8321	397600	0	0
2024-07-14 20:21:47			0	41966	0	0	0	30833	29470	145621	27098	1058343	44780	111486	0	0	8320	397697	0	0
2024-07-14 20:22:47			0	41960	0	0	0	30833	29470	145673	26913	1058442	44768	111486	0	0	8320	397890	0	0
2024-07-14 20:23:47			0	41973	0	0	0	30851	29470	145693	27090	1058415	44791	111493	0	0	8321	397471	0	0
2024-07-14 20:24:47			0	41961	0	0	0	30857	29480	145681	27050	1058459	44791	111495	0	0	8320	397834	0	0
2024-07-14 20:25:47			0	41963	0	0	0	30851	29470	145741	26920	1058477	44768	111493	0	0	8320	397793	0	0
2024-07-14 20:26:47			0	41966	0	0	0	30844	29480	145761	26847	1058459	44791	111490	0	0	8320	397673	0	0
2024-07-14 20:27:47			0	41967	0	0	0	30854	29470	145685	27064	1058396	44768	111494	0	0	8320	397664	0	0
2024-07-14 20:28:47			0	41966	0	0	0	30849	29470	145701	27204	1058423	44802	111492	0	0	8320	397697	0	0
2024-07-14 20:29:47			0	41979	0	0	0	30854	29480	145729	26708	1058459	44780	111494	0	0	8321	397255	0	0
2024-07-14 20:30:47			0	41977	0	0	0	30857	29470	145665	26845	1058450	44780	111495	0	0	8321	397342	0	0
2024-07-14 20:31:47			0	41995	0	0	0	30864	29470	145777	26861	1058469	44780	111498	0	0	8322	396764	0	0
2024-07-14 20:32:47			0	41999	0	0	0	30867	29470	145725	26993	1058442	44791	111499	0	0	8322	396635	0	0
2024-07-14 20:33:47			0	41983	0	0	0	30867	29460	145769	26984	1058432	44779	111499	0	0	8321	397172	0	0
2024-07-14 20:34:47			0	41969	0	0	0	30870	29470	145769	26845	1058450	44780	111500	0	0	8320	397600	0	0
2024-07-14 20:35:47			0	41985	0	0	0	30854	29470	145701	26981	1058415	44791	111494	0	0	8321	397085	0	0
2024-07-14 20:36:47			0	41985	0	0	0	30846	29460	145737	26759	1058405	44790	111491	0	0	8321	397108	0	0
2024-07-14 20:37:47			0	41993	0	0	0	30859	29470	145617	26909	1058415	44780	111496	0	0	8322	396828	0	0
2024-07-14 20:38:47			0	41998	0	0	0	30846	29460	145653	26648	1058423	44789	111491	0	0	8322	396690	0	0
2024-07-14 20:39:47			0	41994	0	0	0	30833	29460	145641	26890	1058342	44800	111486	0	0	8322	396819	0	0
2024-07-14 20:40:47			0	41991	0	0	0	30836	29460	145653	26856	1058342	44766	111487	0	0	8322	396915	0	0
2024-07-14 20:41:47			0	42002	0	0	0	30836	29460	145681	26734	1058342	44778	111487	0	0	8322	396562	0	0
2024-07-14 20:42:47			0	41991	0	0	0	30823	29460	145561	26885	1058261	44778	111482	0	0	8322	396915	0	0
2024-07-14 20:43:47			0	42014	0	0	0	30828	29450	145701	26776	1058298	44777	111484	0	0	8323	396199	0	0
2024-07-14 20:44:47			0	42010	0	0	0	30815	29440	145669	27083	1058289	44777	111479	0	0	8323	396351	0	0
2024-07-14 20:45:47			0	42007	0	0	0	30815	29440	145733	26948	1058262	44777	111479	0	0	8323	396447	0	0
2024-07-14 20:46:47			0	42019	0	0	0	30820	29440	145801	26769	1058280	44776	111481	0	0	8324	396061	0	0
2024-07-14 20:47:47			0	42000	0	0	0	30815	29430	145789	27076	1058190	44786	111479	0	0	8323	396695	0	0
2024-07-14 20:48:47			0	42017	0	0	0	30812	29440	145801	26845	1058181	44777	111478	0	0	8324	396126	0	0
2024-07-14 20:49:47			0	42006	0	0	0	30812	29440	145669	26994	1058253	44776	111478	0	0	8323	396479	0	0
2024-07-14 20:50:47			0	42013	0	0	0	30812	29430	145729	26791	1058244	44775	111478	0	0	8323	396277	0	0
2024-07-14 20:51:47			0	42016	0	0	0	30823	29430	145733	26994	1058217	44775	111482	0	0	8323	396181	0	0
2024-07-14 20:52:47			0	42012	0	0	0	30818	29420	145773	26764	1058199	44786	111480	0	0	8323	396332	0	0
2024-07-14 20:53:47			0	42021	0	0	0	30815	29430	145697	26439	1058235	44786	111479	0	0	8324	396020	0	0
2024-07-14 20:54:47			0	42012	0	0	0	30812	29420	145717	26760	1058226	44786	111478	0	0	8323	396332	0	0
2024-07-14 20:55:47			0	42029	0	0	0	30818	29430	145737	27078	1058154	44786	111480	0	0	8324	395763	0	0
2024-07-14 20:56:47			0	42019	0	0	0	30812	29420	145609	27123	1058199	44775	111478	0	0	8324	396107	0	0
2024-07-14 20:57:47			0	42042	0	0	0	30805	29430	145685	27301	1058163	44786	111475	0	0	8325	395345	0	0
2024-07-14 20:58:47			0	42025	0	0	0	30802	29420	145641	27248	1058217	44774	111474	0	0	8324	395914	0	0
2024-07-14 20:59:47			0	42040	0	0	0	30805	29420	145637	26852	1058109	44774	111475	0	0	8325	395433	0	0
2024-07-14 21:00:47			0	42037	0	0	0	30799	29420	145609	26882	1058136	44796	111473	0	0	8325	395529	0	0
2024-07-14 21:01:47			0	42028	0	0	0	30802	29420	145617	26757	1058163	44785	111474	0	0	8324	395818	0	0
2024-07-14 21:02:47			0	42045	0	0	0	30802	29410	145549	26680	1058235	44784	111474	0	0	8325	395295	0	0
2024-07-14 21:03:47			0	42047	0	0	0	30810	29420	145629	26726	1058190	44796	111477	0	0	8325	395208	0	0
2024-07-14 21:04:47			0	42044	0	0	0	30815	29420	145653	26953	1058226	44808	111479	0	0	8325	395304	0	0
2024-07-14 21:05:47			0	42053	0	0	0	30828	29420	145573	26788	1058217	44785	111484	0	0	8325	395015	0	0
2024-07-14 21:06:47			0	42036	0	0	0	30815	29430	145577	27013	1058235	44786	111479	0	0	8325	395538	0	0
2024-07-14 21:07:47			0	42048	0	0	0	30818	29430	145493	26958	1058235	44797	111480	0	0	8325	395153	0	0
2024-07-14 21:08:47			0	42057	0	0	0	30820	29420	145629	27100	1058217	44763	111481	0	0	8326	394887	0	0
2024-07-14 21:09:47			0	42061	0	0	0	30818	29430	145593	26857	1058208	44775	111480	0	0	8326	394736	0	0
2024-07-14 21:10:47			0	42067	0	0	0	30805	29420	145553	26994	1058172	44775	111475	0	0	8327	394566	0	0
2024-07-14 21:11:47			0	42056	0	0	0	30802	29420	145553	26802	1058136	44785	111474	0	0	8326	394919	0	0
2024-07-14 21:12:47			0	42072	0	0	0	30799	29420	145553	26935	1058217	44774	111473	0	0	8327	394406	0	0
2024-07-14 21:13:47			0	42064	0	0	0	30799	29410	145465	26953	1058155	44784	111473	0	0	8326	394685	0	0
2024-07-14 21:14:47			0	42070	0	0	0	30805	29420	145505	27050	1058190	44796	111475	0	0	8327	394470	0	0
2024-07-14 21:15:47			0	42076	0	0	0	30802	29420	145557	27000	1058163	44785	111474	0	0	8327	394278	0	0
2024-07-14 21:16:47			0	42074	0	0	0	30802	29410	145437	27007	1058146	44795	111474	0	0	8327	394365	0	0
2024-07-14 21:17:47			0	42098	0	0	0	30807	29420	145462	26951	1058163	44774	111476	0	0	8328	393572	0	0
2024-07-14 21:18:47			0	42093	0	0	0	30810	29420	145374	27190	1058163	44796	111477	0	0	8328	393733	0	0
2024-07-14 21:19:47			0	42093	0	0	0	30815	29410	145390	26635	1058182	44784	111479	0	0	8328	393756	0	0
2024-07-14 21:20:47			0	42083	0	0	0	30815	29410	145458	27135	1058200	44795	111479	0	0	8327	394076	0	0
2024-07-14 21:21:47			0	42093	0	0	0	30812	29420	145438	27015	1058190	44774	111478	0	0	8328	393733	0	0
2024-07-14 21:22:47			0	42101	0	0	0	30812	29420	145358	26942	1058136	44774	111478	0	0	8328	393476	0	0
2024-07-14 21:23:47			0	42095	0	0	0	30807	29420	145438	27137	1058145	44797	111476	0	0	8328	393669	0	0
2024-07-14 21:24:47			0	42106	0	0	0	30789	29420	145346	26955	1058136	44785	111469	0	0	8329	393316	0	0
2024-07-14 21:25:47			0	42114	0	0	0	30794	29410	145346	27098	1058065	44784	111471	0	0	8329	393083	0	0
2024-07-14 21:26:47			0	42119	0	0	0	30797	29410	145374	27218	1058101	44784	111472	0	0	8330	392923	0	0
2024-07-14 21:27:47			0	42116	0	0	0	30789	29410	145326	27105	1058128	44784	111469	0	0	8330	393019	0	0
2024-07-14 21:28:47			0	42135	0	0	0	30784	29410	145374	26993	1058092	44773	111467	0	0	8331	392411	0	0
2024-07-14 21:29:47			0	42138	0	0	0	30794	29400	145330	26878	1058083	44773	111471	0	0	8331	392338	0	0
2024-07-14 21:30:47			0	42123	0	0	0	30786	29400	145274	26864	1058056	44773	111468	0	0	8330	392818	0	0
2024-07-14 21:31:47			0	42128	0	0	0	30789	29400	145362	27046	1058074	44783	111469	0	0	8330	392658	0	0
2024-07-14 21:32:47			0	42144	0	0	0	30786	29400	145346	26948	1058074	44772	111468	0	0	8331	392146	0	0
2024-07-14 21:33:47			0	42148	0	0	0	30799	29400	145310	27131	1058047	44783	111473	0	0	8331	392018	0	0
2024-07-14 21:34:47			0	42133	0	0	0	30781	29400	145298	27178	1058002	44784	111466	0	0	8331	392498	0	0
2024-07-14 21:35:47			0	42146	0	0	0	30784	29400	145326	27097	1058047	44761	111467	0	0	8331	392082	0	0
2024-07-14 21:36:47			0	42150	0	0	0	30779	29390	145298	27007	1058011	44782	111465	0	0	8332	391977	0	0
2024-07-14 21:37:47			0	42144	0	0	0	30779	29390	145290	27045	1058011	44782	111465	0	0	8331	392168	0	0
2024-07-14 21:38:47			0	42140	0	0	0	30789	29390	145298	27180	1058038	44782	111469	0	0	8331	392296	0	0
2024-07-14 21:39:47			0	42134	0	0	0	30786	29400	145282	27072	1058074	44783	111468	0	0	8331	392466	0	0
2024-07-14 21:40:47			0	42145	0	0	0	30786	29390	145426	26835	1058002	44782	111468	0	0	8331	392137	0	0
2024-07-14 21:41:47			0	42138	0	0	0	30784	29380	145342	27137	1057993	44792	111467	0	0	8331	392383	0	0
2024-07-14 21:42:47			0	42143	0	0	0	30784	29390	145438	27241	1058002	44782	111467	0	0	8331	392200	0	0
2024-07-14 21:43:47			0	42152	0	0	0	30781	29400	145406	27055	1058020	44772	111466	0	0	8332	391890	0	0
2024-07-14 21:44:47			0	42143	0	0	0	30773	29380	145330	26887	1057993	44782	111463	0	0	8331	392223	0	0
2024-07-14 21:45:47			0	42154	0	0	0	30768	29390	145342	27223	1057975	44782	111461	0	0	8332	391849	0	0
2024-07-14 21:46:47			0	42140	0	0	0	30761	29370	145278	27097	1057840	44791	111458	0	0	8331	392342	0	0
2024-07-14 21:47:47			0	42146	0	0	0	30748	29380	145298	27072	1057966	44782	111453	0	0	8332	392127	0	0
2024-07-14 21:48:47			0	42151	0	0	0	30753	29380	145298	26760	1057903	44782	111455	0	0	8332	391967	0	0
2024-07-14 21:49:47			0	42155	0	0	0	30766	29370	145286	26661	1057975	44781	111460	0	0	8332	391862	0	0
2024-07-14 21:50:47			0	42165	0	0	0	30758	29370	145382	26979	1057939	44791	111457	0	0	8333	391543	0	0
2024-07-14 21:51:47			0	42140	0	0	0	30750	29380	145290	26987	1057903	44770	111454	0	0	8332	392319	0	0
2024-07-14 21:52:47			0	42175	0	0	0	30753	29360	145290	26625	1057849	44780	111455	0	0	8333	391246	0	0
2024-07-14 21:53:47			0	42170	0	0	0	30750	29360	145266	27254	1057903	44780	111454	0	0	8333	391406	0	0
2024-07-14 21:54:47			0	42165	0	0	0	30745	29370	145342	27015	1057912	44781	111452	0	0	8333	391543	0	0
2024-07-14 21:55:47			0	42165	0	0	0	30737	29360	145262	26960	1057796	44768	111449	0	0	8333	391565	0	0
2024-07-14 21:56:47			0	42174	0	0	0	30742	29370	145186	27310	1057831	44781	111451	0	0	8334	391255	0	0
2024-07-14 21:57:47			0	42165	0	0	0	30732	29360	145266	27055	1057769	44780	111447	0	0	8333	391565	0	0
2024-07-14 21:58:47			0	42179	0	0	0	30735	29350	145322	27064	1057778	44779	111448	0	0	8334	391141	0	0
2024-07-14 21:59:47			0	42162	0	0	0	30729	29350	145234	26923	1057805	44779	111446	0	0	8333	391684	0	0
2024-07-14 22:00:47			0	42158	0	0	0	30722	29350	145310	26968	1057823	44766	111443	0	0	8333	391812	0	0
2024-07-14 22:01:47			0	42186	0	0	0	30724	29350	145290	27060	1057769	44778	111444	0	0	8335	390917	0	0
2024-07-14 22:02:47			0	42187	0	0	0	30737	29350	145338	27203	1057823	44766	111449	0	0	8334	390885	0	0
2024-07-14 22:03:47			0	42181	0	0	0	30737	29350	145306	26767	1057769	44789	111449	0	0	8334	391077	0	0
2024-07-14 22:04:47			0	42195	0	0	0	30737	29350	145278	26991	1057742	44789	111449	0	0	8335	390630	0	0
2024-07-14 22:05:47			0	42195	0	0	0	30735	29350	145278	26935	1057832	44790	111448	0	0	8335	390630	0	0
2024-07-14 22:06:47			0	42184	0	0	0	30735	29350	145198	26733	1057796	44778	111448	0	0	8334	390981	0	0
2024-07-14 22:07:47			0	42193	0	0	0	30724	29340	145234	26996	1057778	44778	111444	0	0	8335	390716	0	0
2024-07-14 22:08:47			0	42209	0	0	0	30722	29330	145190	27053	1057742	44788	111443	0	0	8336	390228	0	0
2024-07-14 22:09:47			0	42207	0	0	0	30729	29340	145118	27048	1057733	44766	111446	0	0	8336	390269	0	0
2024-07-14 22:10:47			0	42216	0	0	0	30729	29340	145106	27206	1057787	44789	111446	0	0	8336	389982	0	0
2024-07-14 22:11:47			0	42215	0	0	0	30727	29340	145166	26965	1057733	44778	111445	0	0	8336	390014	0	0
2024-07-14 22:12:47			0	42221	0	0	0	30724	29350	145150	27079	1057823	44778	111444	0	0	8337	389800	0	0
2024-07-14 22:13:47			0	42211	0	0	0	30719	29330	145134	27078	1057733	44776	111442	0	0	8336	390164	0	0
2024-07-14 22:14:47			0	42245	0	0	0	30719	29330	145130	27119	1057733	44787	111442	0	0	8338	389080	0	0
2024-07-14 22:15:47			0	42210	0	0	0	30719	29340	145158	26859	1057724	44778	111442	0	0	8336	390173	0	0
2024-07-14 22:16:47			0	42229	0	0	0	30711	29330	145042	27159	1057661	44777	111439	0	0	8337	389590	0	0
2024-07-14 22:17:47			0	42249	0	0	0	30714	29330	145070	27003	1057625	44787	111440	0	0	8338	388952	0	0
2024-07-14 22:18:47			0	42247	0	0	0	30714	29330	145038	26545	1057634	44788	111440	0	0	8338	389016	0	0
2024-07-14 22:19:47			0	42248	0	0	0	30711	29330	145074	26883	1057679	44776	111439	0	0	8338	388984	0	0
2024-07-14 22:20:47			0	42275	0	0	0	30714	29320	144986	26842	1057662	44775	111440	0	0	8340	388147	0	0
2024-07-14 22:21:47			0	42260	0	0	0	30711	29320	145010	27206	1057724	44764	111439	0	0	8339	388625	0	0
2024-07-14 22:22:47			0	42256	0	0	0	30709	29320	144990	27010	1057617	44776	111438	0	0	8339	388752	0	0
2024-07-14 22:23:47			0	42252	0	0	0	30714	29320	145022	27209	1057716	44797	111440	0	0	8338	388879	0	0
2024-07-14 22:24:47			0	42273	0	0	0	30701	29310	144966	27045	1057653	44786	111435	0	0	8340	388233	0	0
2024-07-14 22:25:47			0	42275	0	0	0	30703	29320	144898	27026	1057581	44775	111436	0	0	8340	388147	0	0
2024-07-14 22:26:47			0	42291	0	0	0	30706	29320	144826	26925	1057716	44786	111437	0	0	8341	387638	0	0
2024-07-14 22:27:47			0	42299	0	0	0	30703	29310	144862	26857	1057617	44785	111436	0	0	8341	387406	0	0
2024-07-14 22:28:47			0	42265	0	0	0	30706	29310	144822	26715	1057599	44786	111437	0	0	8339	388488	0	0
2024-07-14 22:29:47			0	42284	0	0	0	30703	29310	144834	27007	1057644	44774	111436	0	0	8340	387883	0	0
2024-07-14 22:30:47			0	42283	0	0	0	30701	29310	144766	27239	1057599	44786	111435	0	0	8340	387915	0	0
2024-07-14 22:31:47			0	42287	0	0	0	30693	29300	144814	26916	1057608	44785	111432	0	0	8341	387810	0	0
2024-07-14 22:32:47			0	42299	0	0	0	30690	29310	144846	27072	1057653	44786	111431	0	0	8342	387406	0	0
2024-07-14 22:33:47			0	42299	0	0	0	30688	29300	144770	27235	1057518	44761	111430	0	0	8342	387428	0	0
2024-07-14 22:34:47			0	42309	0	0	0	30698	29300	144706	27170	1057554	44762	111434	0	0	8342	387110	0	0
2024-07-14 22:35:47			0	42317	0	0	0	30693	29310	144766	26883	1057563	44774	111432	0	0	8343	386833	0	0
2024-07-14 22:36:47			0	42325	0	0	0	30693	29300	144806	27166	1057599	44784	111432	0	0	8343	386601	0	0
2024-07-14 22:37:47			0	42321	0	0	0	30680	29310	144806	27088	1057617	44774	111427	0	0	8343	386706	0	0
2024-07-14 22:38:47			0	42338	0	0	0	30680	29300	144862	26786	1057518	44773	111427	0	0	8344	386188	0	0
2024-07-14 22:39:47			0	42333	0	0	0	30670	29290	144854	27019	1057509	44784	111423	0	0	8344	386370	0	0
2024-07-14 22:40:47			0	42356	0	0	0	30672	29300	144782	26987	1057491	44773	111424	0	0	8345	385617	0	0
2024-07-14 22:41:47			0	42338	0	0	0	30677	29290	144762	26852	1057536	44784	111426	0	0	8344	386211	0	0
2024-07-14 22:42:47			0	42333	0	0	0	30680	29280	144774	26774	1057465	44783	111427	0	0	8344	386392	0	0
2024-07-14 22:43:47			0	42353	0	0	0	30680	29290	144762	26582	1057500	44783	111427	0	0	8345	385734	0	0
2024-07-14 22:44:47			0	42356	0	0	0	30672	29290	144686	27156	1057509	44795	111424	0	0	8345	385639	0	0
2024-07-14 22:45:47			0	42380	0	0	0	30680	29290	144642	27178	1057482	44784	111427	0	0	8346	384878	0	0
2024-07-14 22:46:47			0	42379	0	0	0	30675	29290	144642	26856	1057509	44784	111425	0	0	8346	384909	0	0
2024-07-14 22:47:47			0	42377	0	0	0	30672	29300	144722	27164	1057491	44773	111424	0	0	8346	384950	0	0
2024-07-14 22:48:47			0	42395	0	0	0	30664	29290	144630	27019	1057500	44772	111421	0	0	8348	384402	0	0
2024-07-14 22:49:47			0	42407	0	0	0	30667	29270	144542	26960	1057474	44793	111422	0	0	8348	384066	0	0
2024-07-14 22:50:47			0	42390	0	0	0	30672	29270	144606	26956	1057420	44782	111424	0	0	8347	384605	0	0
2024-07-14 22:51:47			0	42408	0	0	0	30659	29280	144598	26972	1057456	44782	111419	0	0	8348	384012	0	0
2024-07-14 22:52:47			0	42394	0	0	0	30667	29270	144602	27244	1057420	44793	111422	0	0	8347	384478	0	0
2024-07-14 22:53:47			0	42429	0	0	0	30654	29270	144534	27242	1057411	44770	111417	0	0	8350	383369	0	0
2024-07-14 22:54:47			0	42417	0	0	0	30662	29270	144574	26941	1057411	44781	111420	0	0	8349	383749	0	0
2024-07-14 22:55:47			0	42429	0	0	0	30659	29270	144526	26764	1057447	44771	111419	0	0	8350	383369	0	0
2024-07-14 22:56:47			0	42432	0	0	0	30659	29270	144518	27176	1057384	44770	111419	0	0	8350	383275	0	0
2024-07-14 22:57:47			0	42442	0	0	0	30657	29260	144570	26783	1057375	44780	111418	0	0	8350	382980	0	0
2024-07-14 22:58:47			0	42459	0	0	0	30649	29260	144418	26994	1057402	44769	111415	0	0	8351	382442	0	0
2024-07-14 22:59:47			0	42445	0	0	0	30657	29260	144438	27026	1057321	44780	111418	0	0	8350	382885	0	0
2024-07-14 23:00:47			0	42451	0	0	0	30644	29250	144454	27066	1057258	44780	111413	0	0	8351	382718	0	0
2024-07-14 23:01:47			0	42469	0	0	0	30644	29240	144402	26812	1057321	44779	111413	0	0	8352	382171	0	0
2024-07-14 23:02:47			0	42461	0	0	0	30633	29240	144474	26922	1057240	44779	111409	0	0	8352	382424	0	0
2024-07-14 23:03:47			0	42462	0	0	0	30646	29250	144454	27166	1057249	44757	111414	0	0	8352	382370	0	0
2024-07-14 23:04:47			0	42472	0	0	0	30638	29240	144402	26840	1057258	44779	111411	0	0	8352	382076	0	0
2024-07-14 23:05:47			0	42492	0	0	0	30631	29230	144366	27206	1057195	44779	111408	0	0	8353	381466	0	0
2024-07-14 23:06:47			0	42488	0	0	0	30631	29230	144374	27050	1057168	44779	111408	0	0	8353	381592	0	0
2024-07-14 23:07:47			0	42489	0	0	0	30625	29240	144458	27036	1057267	44768	111406	0	0	8353	381539	0	0
2024-07-14 23:08:47			0	42491	0	0	0	30625	29230	144410	27161	1057195	44779	111406	0	0	8354	381497	0	0
2024-07-14 23:09:47			0	42499	0	0	0	30620	29230	144322	27319	1057222	44779	111404	0	0	8354	381245	0	0
2024-07-14 23:10:47			0	42495	0	0	0	30610	29240	144298	27131	1057177	44779	111400	0	0	8354	381349	0	0
2024-07-14 23:11:47			0	42503	0	0	0	30610	29230	144286	27064	1057133	44778	111400	0	0	8354	381119	0	0
2024-07-14 23:12:47			0	42510	0	0	0	30607	29220	144350	27157	1057115	44765	111399	0	0	8355	380920	0	0
2024-07-14 23:13:47			0	42527	0	0	0	30602	29220	144394	26956	1057115	44754	111397	0	0	8356	380383	0	0
2024-07-14 23:14:47			0	42526	0	0	0	30597	29220	144358	27282	1057061	44777	111395	0	0	8356	380415	0	0
2024-07-14 23:15:47			0	42547	0	0	0	30599	29210	144246	27348	1057070	44787	111396	0	0	8357	379774	0	0
2024-07-14 23:16:47			0	42532	0	0	0	30597	29210	144298	26975	1057106	44777	111395	0	0	8356	380247	0	0
2024-07-14 23:17:47			0	42555	0	0	0	30602	29210	144326	27064	1057079	44777	111397	0	0	8358	379522	0	0
2024-07-14 23:18:47			0	42557	0	0	0	30597	29210	144282	27140	1057097	44764	111395	0	0	8358	379459	0	0
2024-07-14 23:19:47			0	42540	0	0	0	30594	29200	144246	26850	1057034	44775	111394	0	0	8357	380017	0	0
2024-07-14 23:20:47			0	42562	0	0	0	30586	29200	144230	27001	1057088	44775	111391	0	0	8358	379324	0	0
2024-07-14 23:21:47			0	42546	0	0	0	30581	29200	144218	26967	1057061	44763	111389	0	0	8357	379828	0	0
2024-07-14 23:22:47			0	42571	0	0	0	30592	29190	144134	26984	1057070	44763	111393	0	0	8359	379062	0	0
2024-07-14 23:23:47			0	42569	0	0	0	30589	29200	144138	27066	1057061	44763	111392	0	0	8359	379103	0	0
2024-07-14 23:24:47			0	42557	0	0	0	30589	29190	144106	27017	1057043	44775	111392	0	0	8358	379503	0	0
2024-07-14 23:25:47			0	42586	0	0	0	30586	29190	144070	27130	1057016	44775	111391	0	0	8360	378590	0	0
2024-07-14 23:26:47			0	42590	0	0	0	30584	29200	144066	27261	1056998	44763	111390	0	0	8360	378442	0	0
2024-07-14 23:27:47			0	42584	0	0	0	30589	29190	144134	27039	1057043	44786	111392	0	0	8359	378653	0	0
2024-07-14 23:28:47			0	42610	0	0	0	30584	29190	144054	26831	1057008	44785	111390	0	0	8361	377834	0	0
2024-07-14 23:29:47			0	42597	0	0	0	30581	29190	144074	26611	1056981	44774	111389	0	0	8360	378243	0	0
2024-07-14 23:30:47			0	42615	0	0	0	30576	29190	144010	26722	1056936	44775	111387	0	0	8361	377677	0	0
2024-07-14 23:31:47			0	42615	0	0	0	30568	29190	144002	26844	1056981	44774	111384	0	0	8362	377677	0	0
2024-07-14 23:32:47			0	42625	0	0	0	30568	29180	144030	27029	1057026	44761	111384	0	0	8362	377385	0	0
2024-07-14 23:33:47			0	42625	0	0	0	30566	29190	143938	26840	1056900	44774	111383	0	0	8362	377363	0	0
2024-07-14 23:34:47			0	42606	0	0	0	30568	29180	143994	27048	1056972	44773	111384	0	0	8361	377982	0	0
2024-07-14 23:35:47			0	42616	0	0	0	30571	29170	144014	27090	1056891	44772	111385	0	0	8362	377689	0	0
2024-07-14 23:36:47			0	42615	0	0	0	30563	29170	143902	27109	1056873	44773	111382	0	0	8362	377721	0	0
2024-07-14 23:37:47			0	42633	0	0	0	30563	29170	143914	27159	1056900	44761	111382	0	0	8363	377155	0	0
2024-07-14 23:38:47			0	42642	0	0	0	30548	29170	143922	27020	1056891	44760	111376	0	0	8363	376872	0	0
2024-07-14 23:39:47			0	42647	0	0	0	30548	29170	143962	27072	1056837	44760	111376	0	0	8364	376715	0	0
2024-07-14 23:40:47			0	42644	0	0	0	30553	29170	143930	27261	1056810	44760	111378	0	0	8363	376809	0	0
2024-07-14 23:41:47			0	42644	0	0	0	30545	29160	143942	26759	1056846	44771	111375	0	0	8364	376831	0	0
2024-07-14 23:42:47			0	42671	0	0	0	30537	29150	143938	27050	1056811	44758	111372	0	0	8365	376005	0	0
2024-07-14 23:43:47			0	42666	0	0	0	30548	29160	143958	27024	1056792	44759	111376	0	0	8365	376140	0	0
2024-07-14 23:44:47			0	42676	0	0	0	30524	29140	143834	26963	1056766	44758	111367	0	0	8366	375870	0	0
2024-07-14 23:45:47			0	42684	0	0	0	30529	29140	143922	27046	1056739	44758	111369	0	0	8366	375619	0	0
2024-07-14 23:46:47			0	42676	0	0	0	30522	29150	143914	27043	1056721	44758	111366	0	0	8366	375848	0	0
2024-07-14 23:47:47			0	42686	0	0	0	30524	29140	143790	27010	1056730	44779	111367	0	0	8366	375556	0	0
2024-07-14 23:48:47			0	42680	0	0	0	30519	29140	143834	27007	1056792	44769	111365	0	0	8366	375744	0	0
2024-07-14 23:49:47			0	42679	0	0	0	30522	29130	143834	26866	1056721	44768	111366	0	0	8366	375798	0	0
2024-07-14 23:50:47			0	42694	0	0	0	30524	29140	143686	26561	1056757	44757	111367	0	0	8367	375305	0	0
2024-07-14 23:51:47			0	42681	0	0	0	30514	29130	143882	26753	1056748	44757	111363	0	0	8366	375735	0	0
2024-07-14 23:52:47			0	42710	0	0	0	30516	29140	143822	26752	1056730	44757	111364	0	0	8368	374803	0	0
2024-07-14 23:53:47			0	42707	0	0	0	30519	29140	143826	27000	1056730	44779	111365	0	0	8368	374897	0	0
2024-07-14 23:54:47			0	42719	0	0	0	30516	29130	143714	26736	1056712	44768	111364	0	0	8368	374543	0	0
2024-07-14 23:55:47			0	42718	0	0	0	30516	29130	143786	26847	1056739	44757	111364	0	0	8368	374574	0	0
2024-07-14 23:56:47			0	42726	0	0	0	30516	29130	143794	26840	1056667	44757	111364	0	0	8369	374324	0	0
2024-07-14 23:57:47			0	42721	0	0	0	30514	29130	143763	26819	1056694	44779	111363	0	0	8369	374480	0	0
2024-07-14 23:58:47			0	42712	0	0	0	30511	29130	143814	26632	1056604	44779	111362	0	0	8368	374762	0	0
2024-07-14 23:59:47			0	42728	0	0	0	30503	29120	143771	26939	1056595	44756	111359	0	0	8369	374283	0	0
2024-07-15 00:00:47			0	42729	0	0	0	30501	29120	143747	26823	1056649	44756	111358	0	0	8369	374251	0	0
2024-07-15 00:01:47			0	42737	0	0	0	30501	29130	143751	26987	1056658	44779	111358	0	0	8370	373979	0	0
2024-07-15 00:02:47			0	42724	0	0	0	30498	29120	143839	26885	1056649	44767	111357	0	0	8369	374408	0	0
2024-07-15 00:03:47			0	42736	0	0	0	30506	29120	143843	27095	1056613	44755	111360	0	0	8370	374032	0	0
2024-07-15 00:04:47			0	42770	0	0	0	30503	29110	143663	27114	1056631	44778	111359	0	0	8372	372990	0	0
2024-07-15 00:05:47			0	42740	0	0	0	30498	29110	143751	26788	1056604	44766	111357	0	0	8370	373928	0	0
2024-07-15 00:06:47			0	42752	0	0	0	30503	29110	143795	26547	1056649	44766	111359	0	0	8370	373553	0	0
2024-07-15 00:07:47			0	42768	0	0	0	30501	29100	143703	27074	1056614	44777	111358	0	0	8371	373074	0	0
2024-07-15 00:08:47			0	42766	0	0	0	30501	29110	143679	26838	1056658	44766	111358	0	0	8371	373115	0	0
2024-07-15 00:09:47			0	42766	0	0	0	30496	29120	143603	27176	1056613	44755	111356	0	0	8371	373093	0	0
2024-07-15 00:10:47			0	42777	0	0	0	30498	29110	143643	26753	1056658	44766	111357	0	0	8372	372771	0	0
2024-07-15 00:11:47			0	42769	0	0	0	30503	29110	143635	26878	1056595	44766	111359	0	0	8371	373021	0	0
2024-07-15 00:12:47			0	42775	0	0	0	30503	29120	143695	26779	1056622	44779	111359	0	0	8372	372811	0	0
2024-07-15 00:13:47			0	42783	0	0	0	30503	29110	143703	27012	1056703	44778	111359	0	0	8372	372583	0	0
2024-07-15 00:14:47			0	42782	0	0	0	30503	29100	143619	27059	1056641	44765	111359	0	0	8372	372636	0	0
2024-07-15 00:15:47			0	42778	0	0	0	30503	29120	143699	27114	1056667	44766	111359	0	0	8372	372718	0	0
2024-07-15 00:16:47			0	42788	0	0	0	30501	29100	143619	27015	1056587	44765	111358	0	0	8373	372448	0	0
2024-07-15 00:17:47			0	42795	0	0	0	30506	29100	143575	26814	1056632	44764	111360	0	0	8373	372230	0	0
2024-07-15 00:18:47			0	42809	0	0	0	30503	29110	143667	26783	1056595	44778	111359	0	0	8374	371771	0	0
2024-07-15 00:19:47			0	42808	0	0	0	30496	29100	143567	26946	1056641	44777	111356	0	0	8374	371823	0	0
2024-07-15 00:20:47			0	42805	0	0	0	30493	29110	143555	26870	1056595	44755	111355	0	0	8374	371895	0	0
2024-07-15 00:21:47			0	42808	0	0	0	30488	29110	143579	26739	1056622	44778	111353	0	0	8374	371802	0	0
2024-07-15 00:22:47			0	42805	0	0	0	30496	29100	143611	26736	1056524	44764	111356	0	0	8374	371917	0	0
2024-07-15 00:23:47			0	42808	0	0	0	30493	29100	143575	26889	1056524	44776	111355	0	0	8374	371823	0	0
2024-07-15 00:24:47			0	42810	0	0	0	30488	29100	143615	27022	1056587	44765	111353	0	0	8374	371761	0	0
2024-07-15 00:25:47			0	42824	0	0	0	30480	29100	143523	26994	1056614	44777	111350	0	0	8375	371324	0	0
2024-07-15 00:26:47			0	42820	0	0	0	30493	29090	143507	26968	1056515	44776	111355	0	0	8375	371470	0	0
2024-07-15 00:27:47			0	42821	0	0	0	30493	29100	143471	27041	1056506	44777	111355	0	0	8375	371417	0	0
2024-07-15 00:28:47			0	42818	0	0	0	30485	29090	143479	26712	1056488	44753	111352	0	0	8375	371532	0	0
2024-07-15 00:29:47			0	42833	0	0	0	30480	29090	143531	26863	1056587	44764	111350	0	0	8376	371064	0	0
2024-07-15 00:30:47			0	42833	0	0	0	30488	29090	143479	26739	1056515	44753	111353	0	0	8375	371064	0	0
2024-07-15 00:31:47			0	42839	0	0	0	30472	29090	143527	26857	1056515	44776	111347	0	0	8376	370877	0	0
2024-07-15 00:32:47			0	42830	0	0	0	30470	29090	143519	27315	1056587	44753	111346	0	0	8376	371158	0	0
2024-07-15 00:33:47			0	42851	0	0	0	30485	29090	143459	26897	1056479	44764	111352	0	0	8377	370503	0	0
2024-07-15 00:34:47			0	42844	0	0	0	30470	29090	143359	27057	1056560	44764	111346	0	0	8376	370721	0	0
2024-07-15 00:35:47			0	42851	0	0	0	30472	29080	143407	26783	1056497	44763	111347	0	0	8377	370524	0	0
2024-07-15 00:36:47			0	42855	0	0	0	30475	29090	143443	26987	1056533	44753	111348	0	0	8377	370378	0	0
2024-07-15 00:37:47			0	42848	0	0	0	30475	29090	143411	26781	1056479	44764	111348	0	0	8377	370596	0	0
2024-07-15 00:38:47			0	42861	0	0	0	30464	29080	143391	26613	1056497	44775	111344	0	0	8377	370212	0	0
2024-07-15 00:39:47			0	42853	0	0	0	30470	29080	143383	26993	1056407	44762	111346	0	0	8377	370462	0	0
2024-07-15 00:40:47			0	42850	0	0	0	30459	29080	143323	26897	1056461	44762	111342	0	0	8377	370555	0	0
2024-07-15 00:41:47			0	42838	0	0	0	30464	29080	143351	26736	1056443	44763	111344	0	0	8376	370930	0	0
2024-07-15 00:42:47			0	42852	0	0	0	30459	29080	143447	27171	1056497	44775	111342	0	0	8377	370493	0	0
2024-07-15 00:43:47			0	42872	0	0	0	30457	29090	143335	26902	1056425	44764	111341	0	0	8378	369848	0	0
2024-07-15 00:44:47			0	42861	0	0	0	30451	29090	143423	26632	1056425	44764	111339	0	0	8378	370191	0	0
2024-07-15 00:45:47			0	42881	0	0	0	30454	29070	143491	26767	1056398	44773	111340	0	0	8379	369610	0	0
2024-07-15 00:46:47			0	42879	0	0	0	30454	29080	143423	27329	1056380	44774	111340	0	0	8379	369651	0	0
2024-07-15 00:47:47			0	42873	0	0	0	30451	29070	143415	26729	1056417	44761	111339	0	0	8378	369860	0	0
2024-07-15 00:48:47			0	42887	0	0	0	30451	29070	143459	26719	1056390	44773	111339	0	0	8379	369423	0	0
2024-07-15 00:49:47			0	42888	0	0	0	30454	29060	143435	26779	1056318	44772	111340	0	0	8379	369414	0	0
2024-07-15 00:50:47			0	42903	0	0	0	30449	29050	143331	26883	1056354	44771	111338	0	0	8380	368968	0	0
2024-07-15 00:51:47			0	42896	0	0	0	30449	29060	143315	26719	1056354	44761	111338	0	0	8380	369165	0	0
2024-07-15 00:52:47			0	42894	0	0	0	30446	29060	143319	26876	1056345	44772	111337	0	0	8380	369227	0	0
2024-07-15 00:53:47			0	42893	0	0	0	30444	29050	143319	26915	1056390	44771	111336	0	0	8380	369279	0	0
2024-07-15 00:54:47			0	42914	0	0	0	30436	29060	143387	26788	1056354	44773	111333	0	0	8381	368604	0	0
2024-07-15 00:55:47			0	42920	0	0	0	30438	29060	143343	26958	1056345	44760	111334	0	0	8381	368417	0	0
2024-07-15 00:56:47			0	42892	0	0	0	30441	29060	143307	27086	1056327	44761	111335	0	0	8380	369289	0	0
2024-07-15 00:57:47			0	42894	0	0	0	30433	29050	143303	26720	1056273	44759	111332	0	0	8380	369248	0	0
2024-07-15 00:58:47			0	42908	0	0	0	30441	29050	143331	26824	1056246	44771	111335	0	0	8380	368812	0	0
2024-07-15 00:59:47			0	42919	0	0	0	30431	29040	143335	27140	1056318	44759	111331	0	0	8381	368491	0	0
2024-07-15 01:00:47			0	42916	0	0	0	30428	29040	143235	27078	1056345	44759	111330	0	0	8381	368585	0	0
2024-07-15 01:01:47			0	42916	0	0	0	30423	29040	143287	26752	1056255	44758	111328	0	0	8381	368585	0	0
2024-07-15 01:02:47			0	42917	0	0	0	30418	29040	143227	26791	1056264	44759	111326	0	0	8381	368554	0	0
2024-07-15 01:03:47			0	42928	0	0	0	30425	29040	143267	27135	1056237	44749	111329	0	0	8382	368211	0	0
2024-07-15 01:04:47			0	42922	0	0	0	30418	29030	143267	27008	1056247	44757	111326	0	0	8382	368419	0	0
2024-07-15 01:05:47			0	42930	0	0	0	30420	29030	143275	27033	1056139	44757	111327	0	0	8382	368170	0	0
2024-07-15 01:06:47			0	42944	0	0	0	30407	29020	143239	27156	1056175	44780	111322	0	0	8383	367756	0	0
2024-07-15 01:07:47			0	42942	0	0	0	30410	29030	143227	26750	1056184	44769	111323	0	0	8383	367797	0	0
2024-07-15 01:08:47			0	42937	0	0	0	30407	29020	143223	26965	1056085	44768	111322	0	0	8383	367974	0	0
2024-07-15 01:09:47			0	42941	0	0	0	30405	29020	143175	27020	1056148	44769	111321	0	0	8383	367850	0	0
2024-07-15 01:10:47			0	42948	0	0	0	30402	29010	143223	26774	1056130	44755	111320	0	0	8383	367653	0	0
2024-07-15 01:11:47			0	42949	0	0	0	30397	29020	143151	27301	1056139	44768	111318	0	0	8384	367601	0	0
2024-07-15 01:12:47			0	42968	0	0	0	30389	29010	143147	27038	1056076	44745	111315	0	0	8385	367032	0	0
2024-07-15 01:13:47			0	42943	0	0	0	30386	29000	143207	26989	1056085	44766	111314	0	0	8383	367830	0	0
2024-07-15 01:14:47			0	42964	0	0	0	30394	29010	143159	26876	1056067	44755	111317	0	0	8384	367156	0	0
2024-07-15 01:15:47			0	42954	0	0	0	30394	29010	143135	26873	1056094	44744	111317	0	0	8384	367467	0	0
2024-07-15 01:16:47			0	42962	0	0	0	30392	29010	143139	27027	1056094	44766	111316	0	0	8384	367218	0	0
2024-07-15 01:17:47			0	42965	0	0	0	30386	29010	143083	27154	1056094	44766	111314	0	0	8385	367125	0	0
2024-07-15 01:18:47			0	42970	0	0	0	30384	29010	143159	26826	1056040	44744	111313	0	0	8385	366970	0	0
2024-07-15 01:19:47			0	42967	0	0	0	30379	29000	143063	27036	1056049	44777	111311	0	0	8385	367084	0	0
2024-07-15 01:20:47			0	42974	0	0	0	30373	29000	143159	26909	1056031	44755	111309	0	0	8385	366867	0	0
2024-07-15 01:21:47			0	42984	0	0	0	30368	28990	143111	26904	1056013	44754	111307	0	0	8386	366577	0	0
2024-07-15 01:22:47			0	42986	0	0	0	30368	28990	143083	26956	1055960	44765	111307	0	0	8386	366515	0	0
2024-07-15 01:23:47			0	42976	0	0	0	30368	28990	143087	26762	1056005	44776	111307	0	0	8386	366826	0	0
2024-07-15 01:24:47			0	42981	0	0	0	30373	28990	143091	26902	1055987	44754	111309	0	0	8386	366671	0	0
2024-07-15 01:25:47			0	43000	0	0	0	30358	28990	143023	26693	1055987	44754	111303	0	0	8387	366081	0	0
2024-07-15 01:26:47			0	42996	0	0	0	30358	28980	143107	26639	1055960	44753	111303	0	0	8387	366226	0	0
2024-07-15 01:27:47			0	42975	0	0	0	30355	28980	143091	27105	1055906	44742	111302	0	0	8386	366878	0	0
2024-07-15 01:28:47			0	42982	0	0	0	30355	28980	143063	26918	1055942	44753	111302	0	0	8386	366661	0	0
2024-07-15 01:29:47			0	42999	0	0	0	30358	28980	143115	26987	1055933	44753	111303	0	0	8387	366133	0	0
2024-07-15 01:30:47			0	43016	0	0	0	30353	28980	142999	26760	1055933	44764	111301	0	0	8388	365606	0	0
2024-07-15 01:31:47			0	42995	0	0	0	30353	28970	142979	26625	1055888	44751	111301	0	0	8387	366278	0	0
2024-07-15 01:32:47			0	43020	0	0	0	30348	28970	142999	26817	1055834	44751	111299	0	0	8388	365503	0	0
2024-07-15 01:33:47			0	43007	0	0	0	30342	28950	142979	26800	1055835	44750	111297	0	0	8388	365948	0	0
2024-07-15 01:34:47			0	43015	0	0	0	30345	28960	142959	27000	1055798	44762	111298	0	0	8388	365679	0	0
2024-07-15 01:35:47			0	43020	0	0	0	30335	28970	143039	26930	1055861	44740	111294	0	0	8389	365503	0	0
2024-07-15 01:36:47			0	43021	0	0	0	30335	28960	142975	26712	1055798	44762	111294	0	0	8389	365493	0	0
2024-07-15 01:37:47			0	43032	0	0	0	30324	28950	142935	26845	1055808	44773	111290	0	0	8389	365173	0	0
2024-07-15 01:38:47			0	43029	0	0	0	30335	28950	142971	26866	1055808	44750	111294	0	0	8389	365266	0	0
2024-07-15 01:39:47			0	43007	0	0	0	30324	28940	142967	27048	1055763	44737	111290	0	0	8388	365970	0	0
2024-07-15 01:40:47			0	43020	0	0	0	30327	28930	142923	26991	1055808	44759	111291	0	0	8389	365587	0	0
2024-07-15 01:41:47			0	43025	0	0	0	30322	28930	142859	26838	1055727	44749	111289	0	0	8389	365432	0	0
2024-07-15 01:42:47			0	43044	0	0	0	30324	28920	142967	26753	1055709	44736	111290	0	0	8390	364864	0	0
2024-07-15 01:43:47			0	43046	0	0	0	30314	28930	142919	27066	1055691	44759	111286	0	0	8390	364781	0	0
2024-07-15 01:44:47			0	43044	0	0	0	30314	28930	142883	27267	1055718	44749	111286	0	0	8390	364843	0	0
2024-07-15 01:45:47			0	43041	0	0	0	30311	28930	142887	26837	1055664	44759	111285	0	0	8390	364936	0	0
2024-07-15 01:46:47			0	43057	0	0	0	30306	28920	142879	26916	1055674	44747	111283	0	0	8391	364461	0	0
2024-07-15 01:47:47			0	43045	0	0	0	30309	28920	142923	26949	1055620	44757	111284	0	0	8390	364833	0	0
2024-07-15 01:48:47			0	43057	0	0	0	30301	28910	142955	26875	1055665	44757	111281	0	0	8391	364483	0	0
2024-07-15 01:49:47			0	43059	0	0	0	30298	28920	142959	26852	1055682	44748	111280	0	0	8391	364400	0	0
2024-07-15 01:50:47			0	43066	0	0	0	30303	28910	142951	26939	1055629	44769	111282	0	0	8392	364204	0	0
2024-07-15 01:51:47			0	43058	0	0	0	30298	28910	142875	26819	1055611	44757	111280	0	0	8391	364452	0	0
2024-07-15 01:52:47			0	43058	0	0	0	30293	28900	142863	27104	1055584	44767	111278	0	0	8391	364473	0	0
2024-07-15 01:53:47			0	43066	0	0	0	30293	28910	142851	26993	1055584	44747	111278	0	0	8392	364204	0	0
2024-07-15 01:54:47			0	43070	0	0	0	30296	28900	142883	26824	1055485	44746	111279	0	0	8392	364101	0	0
2024-07-15 01:55:47			0	43082	0	0	0	30283	28890	142847	27182	1055494	44767	111274	0	0	8393	363751	0	0
2024-07-15 01:56:47			0	43067	0	0	0	30285	28900	142875	26620	1055476	44745	111275	0	0	8392	364194	0	0
2024-07-15 01:57:47			0	43060	0	0	0	30288	28890	142827	26802	1055566	44745	111276	0	0	8391	364432	0	0
2024-07-15 01:58:47			0	43079	0	0	0	30272	28890	142867	26812	1055431	44745	111270	0	0	8393	363844	0	0
2024-07-15 01:59:47			0	43079	0	0	0	30277	28880	142731	27003	1055441	44754	111272	0	0	8393	363865	0	0
2024-07-15 02:00:47			0	43078	0	0	0	30280	28880	142751	26935	1055557	44744	111273	0	0	8393	363896	0	0
2024-07-15 02:01:47			0	43097	0	0	0	30290	28880	142791	27045	1055584	44766	111277	0	0	8394	363307	0	0
2024-07-15 02:02:47			0	43094	0	0	0	30303	28890	142827	27192	1055566	44778	111282	0	0	8393	363379	0	0
2024-07-15 02:03:47			0	43085	0	0	0	30306	28890	142851	26968	1055647	44755	111283	0	0	8393	363658	0	0
2024-07-15 02:04:47			0	43087	0	0	0	30316	28890	142775	27315	1055575	44755	111287	0	0	8393	363596	0	0
2024-07-15 02:05:47			0	43081	0	0	0	30316	28900	142779	26620	1055647	44756	111287	0	0	8392	363760	0	0
2024-07-15 02:06:47			0	43085	0	0	0	30322	28900	142827	27149	1055611	44745	111289	0	0	8392	363637	0	0
2024-07-15 02:07:47			0	43095	0	0	0	30314	28890	142759	26922	1055566	44745	111286	0	0	8393	363348	0	0
2024-07-15 02:08:47			0	43090	0	0	0	30298	28890	142759	26909	1055521	44755	111280	0	0	8393	363503	0	0
2024-07-15 02:09:47			0	43090	0	0	0	30301	28890	142803	26752	1055521	44755	111281	0	0	8393	363503	0	0
2024-07-15 02:10:47			0	43091	0	0	0	30301	28880	142739	27225	1055557	44755	111281	0	0	8393	363493	0	0
2024-07-15 02:11:47			0	43092	0	0	0	30293	28890	142755	27137	1055566	44755	111278	0	0	8393	363441	0	0
2024-07-15 02:12:47			0	43107	0	0	0	30283	28880	142663	27124	1055467	44754	111274	0	0	8394	362998	0	0
2024-07-15 02:13:47			0	43104	0	0	0	30283	28880	142735	26854	1055494	44754	111274	0	0	8394	363091	0	0
2024-07-15 02:14:47			0	43092	0	0	0	30275	28870	142807	27100	1055459	44765	111271	0	0	8394	363483	0	0
2024-07-15 02:15:47			0	43082	0	0	0	30275	28860	142763	27109	1055441	44753	111271	0	0	8393	363814	0	0
2024-07-15 02:16:47			0	43112	0	0	0	30270	28870	142807	26951	1055369	44753	111269	0	0	8395	362865	0	0
2024-07-15 02:17:47			0	43112	0	0	0	30257	28860	142743	27114	1055333	44753	111264	0	0	8395	362886	0	0
2024-07-15 02:18:47			0	43107	0	0	0	30264	28850	142787	27239	1055261	44762	111267	0	0	8395	363061	0	0
2024-07-15 02:19:47			0	43103	0	0	0	30246	28850	142711	26821	1055306	44740	111260	0	0	8395	363185	0	0
2024-07-15 02:20:47			0	43098	0	0	0	30236	28850	142803	27013	1055288	44740	111256	0	0	8394	363340	0	0
2024-07-15 02:21:47			0	43114	0	0	0	30228	28850	142811	26935	1055198	44740	111253	0	0	8396	362845	0	0
2024-07-15 02:22:47			0	43077	0	0	0	30218	28840	142863	27013	1055189	44762	111249	0	0	8393	364011	0	0
2024-07-15 02:23:47			0	43103	0	0	0	30202	28840	142967	27027	1055154	44750	111243	0	0	8395	363206	0	0
2024-07-15 02:24:47			0	43107	0	0	0	30197	28820	142855	26859	1055127	44727	111241	0	0	8396	363124	0	0
2024-07-15 02:25:47			0	43087	0	0	0	30186	28820	142919	26951	1055064	44737	111237	0	0	8395	363743	0	0
2024-07-15 02:26:47			0	43070	0	0	0	30189	28820	143019	27130	1055118	44737	111238	0	0	8393	364270	0	0
2024-07-15 02:27:47			0	43071	0	0	0	30181	28810	142987	26788	1055100	44748	111235	0	0	8394	364260	0	0
2024-07-15 02:28:47			0	43073	0	0	0	30179	28810	142919	26998	1054939	44758	111234	0	0	8394	364198	0	0
2024-07-15 02:29:47			0	43068	0	0	0	30176	28800	142975	27078	1054984	44735	111233	0	0	8393	364374	0	0
2024-07-15 02:30:47			0	43059	0	0	0	30171	28800	143007	26866	1054984	44735	111231	0	0	8393	364653	0	0
2024-07-15 02:31:47			0	43051	0	0	0	30158	28800	143087	27180	1055002	44747	111226	0	0	8393	364901	0	0
2024-07-15 02:32:47			0	43037	0	0	0	30158	28800	143087	26939	1054948	44735	111226	0	0	8392	365335	0	0
2024-07-15 02:33:47			0	43019	0	0	0	30161	28790	143139	26892	1054957	44734	111227	0	0	8391	365915	0	0
2024-07-15 02:34:47			0	43019	0	0	0	30153	28790	143219	26994	1054930	44746	111224	0	0	8391	365915	0	0
2024-07-15 02:35:47			0	43008	0	0	0	30142	28770	143179	26996	1054921	44753	111220	0	0	8390	366299	0	0
2024-07-15 02:36:47			0	43016	0	0	0	30145	28780	143259	26975	1054858	44745	111221	0	0	8391	366030	0	0
2024-07-15 02:37:47			0	43010	0	0	0	30145	28780	143263	27227	1054894	44755	111221	0	0	8390	366216	0	0
2024-07-15 02:38:47			0	42988	0	0	0	30142	28770	143203	27171	1054813	44743	111220	0	0	8389	366921	0	0
2024-07-15 02:39:47			0	42980	0	0	0	30137	28770	143315	27178	1054840	44743	111218	0	0	8389	367170	0	0
2024-07-15 02:40:47			0	42978	0	0	0	30129	28760	143199	27223	1054796	44743	111215	0	0	8389	367253	0	0
2024-07-15 02:41:47			0	42962	0	0	0	30127	28760	143251	26911	1054823	44743	111214	0	0	8388	367751	0	0
2024-07-15 02:42:47			0	42951	0	0	0	30114	28750	143291	26996	1054751	44730	111209	0	0	8387	368114	0	0
2024-07-15 02:43:47			0	42975	0	0	0	30122	28760	143427	26956	1054796	44743	111212	0	0	8389	367346	0	0
2024-07-15 02:44:47			0	42945	0	0	0	30127	28750	143347	26935	1054778	44751	111214	0	0	8387	368301	0	0
2024-07-15 02:45:47			0	42958	0	0	0	30109	28750	143355	27156	1054724	44741	111207	0	0	8388	367897	0	0
2024-07-15 02:46:47			0	42939	0	0	0	30127	28750	143399	26889	1054724	44741	111214	0	0	8386	368488	0	0
2024-07-15 02:47:47			0	42920	0	0	0	30122	28740	143395	27015	1054787	44751	111212	0	0	8385	369102	0	0
2024-07-15 02:48:47			0	42930	0	0	0	30124	28740	143459	27144	1054760	44740	111213	0	0	8386	368790	0	0
2024-07-15 02:49:47			0	42922	0	0	0	30119	28740	143443	26974	1054715	44751	111211	0	0	8385	369039	0	0
2024-07-15 02:50:47			0	42933	0	0	0	30119	28740	143575	26745	1054760	44729	111211	0	0	8386	368697	0	0
2024-07-15 02:51:47			0	42928	0	0	0	30119	28740	143543	26880	1054679	44751	111211	0	0	8386	368852	0	0
2024-07-15 02:52:47			0	42914	0	0	0	30119	28740	143571	26975	1054760	44740	111211	0	0	8385	369289	0	0
2024-07-15 02:53:47			0	42917	0	0	0	30119	28740	143583	26755	1054760	44751	111211	0	0	8385	369195	0	0
2024-07-15 02:54:47			0	42899	0	0	0	30119	28740	143563	26864	1054733	44751	111211	0	0	8384	369757	0	0
2024-07-15 02:55:47			0	42892	0	0	0	30114	28740	143691	26864	1054760	44740	111209	0	0	8384	369975	0	0
2024-07-15 02:56:47			0	42911	0	0	0	30114	28740	143695	26897	1054652	44751	111209	0	0	8385	369382	0	0
2024-07-15 02:57:47			0	42902	0	0	0	30124	28740	143611	27144	1054706	44751	111213	0	0	8384	369663	0	0
2024-07-15 02:58:47			0	42912	0	0	0	30119	28730	143671	27183	1054751	44751	111211	0	0	8385	369372	0	0
2024-07-15 02:59:47			0	42887	0	0	0	30119	28740	143635	26918	1054742	44763	111211	0	0	8383	370131	0	0
2024-07-15 03:00:47			0	42886	0	0	0	30119	28750	143671	26670	1054724	44741	111211	0	0	8383	370141	0	0
2024-07-15 03:01:47			0	42897	0	0	0	30124	28740	143599	26665	1054760	44762	111213	0	0	8384	369819	0	0
2024-07-15 03:02:47			0	42907	0	0	0	30119	28740	143723	27189	1054769	44751	111211	0	0	8385	369507	0	0
2024-07-15 03:03:47			0	42881	0	0	0	30127	28740	143687	26868	1054769	44751	111214	0	0	8383	370318	0	0
2024-07-15 03:04:47			0	42879	0	0	0	30129	28730	143731	27242	1054724	44740	111215	0	0	8383	370402	0	0
2024-07-15 03:05:47			0	42869	0	0	0	30122	28730	143659	26899	1054724	44729	111212	0	0	8382	370714	0	0
2024-07-15 03:06:47			0	42881	0	0	0	30116	28740	143623	26896	1054706	44751	111210	0	0	8383	370318	0	0
2024-07-15 03:07:47			0	42866	0	0	0	30122	28730	143727	26911	1054778	44762	111212	0	0	8382	370808	0	0
2024-07-15 03:08:47			0	42855	0	0	0	30122	28730	143667	27138	1054724	44751	111212	0	0	8381	371152	0	0
2024-07-15 03:09:47			0	42870	0	0	0	30122	28730	143771	27050	1054689	44739	111212	0	0	8382	370683	0	0
2024-07-15 03:10:47			0	42875	0	0	0	30106	28730	143679	27280	1054724	44740	111206	0	0	8383	370527	0	0
2024-07-15 03:11:47			0	42866	0	0	0	30111	28720	143635	27041	1054680	44750	111208	0	0	8382	370830	0	0
2024-07-15 03:12:47			0	42858	0	0	0	30109	28730	143719	26823	1054644	44740	111207	0	0	8382	371058	0	0
2024-07-15 03:13:47			0	42881	0	0	0	30098	28730	143671	26883	1054608	44739	111203	0	0	8383	370340	0	0
2024-07-15 03:14:47			0	42860	0	0	0	30096	28720	143735	26821	1054590	44738	111202	0	0	8382	371017	0	0
2024-07-15 03:15:47			0	42866	0	0	0	30103	28720	143755	26961	1054617	44738	111205	0	0	8382	370830	0	0
2024-07-15 03:16:47			0	42895	0	0	0	30090	28710	143739	27085	1054518	44749	111200	0	0	8384	369946	0	0
2024-07-15 03:17:47			0	42862	0	0	0	30090	28710	143687	26849	1054608	44738	111200	0	0	8382	370976	0	0
2024-07-15 03:18:47			0	42873	0	0	0	30080	28710	143723	26795	1054608	44750	111196	0	0	8383	370632	0	0
2024-07-15 03:19:47			0	42855	0	0	0	30080	28700	143707	27013	1054555	44736	111196	0	0	8382	371216	0	0
2024-07-15 03:20:47			0	42859	0	0	0	30083	28710	143723	26955	1054572	44737	111197	0	0	8382	371070	0	0
2024-07-15 03:21:47			0	42857	0	0	0	30075	28700	143727	27230	1054536	44737	111194	0	0	8382	371154	0	0
2024-07-15 03:22:47			0	42878	0	0	0	30072	28700	143739	26935	1054555	44736	111193	0	0	8384	370498	0	0
2024-07-15 03:23:47			0	42873	0	0	0	30070	28700	143775	26977	1054447	44736	111192	0	0	8383	370654	0	0
2024-07-15 03:24:47			0	42874	0	0	0	30064	28690	143815	26868	1054483	44747	111190	0	0	8383	370644	0	0
2024-07-15 03:25:47			0	42873	0	0	0	30062	28700	143767	26932	1054474	44736	111189	0	0	8383	370654	0	0
2024-07-15 03:26:47			0	42862	0	0	0	30067	28690	143815	27119	1054456	44735	111191	0	0	8383	371019	0	0
2024-07-15 03:27:47			0	42868	0	0	0	30062	28690	143771	26984	1054456	44757	111189	0	0	8383	370832	0	0
2024-07-15 03:28:47			0	42873	0	0	0	30067	28690	143827	27031	1054483	44747	111191	0	0	8383	370675	0	0
2024-07-15 03:29:47			0	42868	0	0	0	30067	28680	143771	27135	1054528	44747	111191	0	0	8383	370853	0	0
2024-07-15 03:30:47			0	42869	0	0	0	30062	28680	143743	27253	1054474	44747	111189	0	0	8383	370822	0	0
2024-07-15 03:31:47			0	42882	0	0	0	30064	28690	143931	27199	1054492	44736	111190	0	0	8384	370394	0	0
2024-07-15 03:32:47			0	42862	0	0	0	30070	28680	143807	26958	1054438	44734	111192	0	0	8383	371040	0	0
2024-07-15 03:33:47			0	42873	0	0	0	30064	28680	143707	27013	1054474	44735	111190	0	0	8383	370697	0	0
2024-07-15 03:34:47			0	42868	0	0	0	30070	28690	143651	26864	1054510	44747	111192	0	0	8383	370832	0	0
2024-07-15 03:35:47			0	42879	0	0	0	30070	28680	143663	27364	1054501	44735	111192	0	0	8384	370509	0	0
2024-07-15 03:36:47			0	42894	0	0	0	30072	28690	143687	27093	1054573	44748	111193	0	0	8384	370020	0	0
2024-07-15 03:37:47			0	42893	0	0	0	30080	28700	143687	26934	1054582	44748	111196	0	0	8384	370029	0	0
2024-07-15 03:38:47			0	42887	0	0	0	30072	28700	143775	26993	1054501	44736	111193	0	0	8384	370217	0	0
2024-07-15 03:39:47			0	42891	0	0	0	30080	28690	143743	27066	1054600	44736	111196	0	0	8384	370113	0	0
2024-07-15 03:40:47			0	42880	0	0	0	30080	28690	143635	26984	1054492	44736	111196	0	0	8383	370457	0	0
2024-07-15 03:41:47			0	42892	0	0	0	30083	28700	143707	26977	1054555	44736	111197	0	0	8384	370061	0	0
2024-07-15 03:42:47			0	42874	0	0	0	30080	28690	143695	27105	1054537	44757	111196	0	0	8383	370644	0	0
2024-07-15 03:43:47			0	42878	0	0	0	30083	28690	143691	26802	1054510	44747	111197	0	0	8383	370519	0	0
2024-07-15 03:44:47			0	42891	0	0	0	30080	28690	143679	26686	1054519	44748	111196	0	0	8384	370113	0	0
2024-07-15 03:45:47			0	42888	0	0	0	30077	28700	143671	27085	1054555	44758	111195	0	0	8384	370186	0	0
2024-07-15 03:46:47			0	42881	0	0	0	30077	28700	143723	26863	1054608	44770	111195	0	0	8384	370404	0	0
2024-07-15 03:47:47			0	42896	0	0	0	30083	28700	143691	26708	1054555	44748	111197	0	0	8384	369936	0	0
2024-07-15 03:48:47			0	42902	0	0	0	30083	28690	143823	27119	1054465	44736	111197	0	0	8385	369770	0	0
2024-07-15 03:49:47			0	42899	0	0	0	30090	28700	143543	27190	1054582	44736	111200	0	0	8384	369842	0	0
2024-07-15 03:50:47			0	42894	0	0	0	30096	28700	143695	27085	1054555	44748	111202	0	0	8384	369998	0	0
2024-07-15 03:51:47			0	42890	0	0	0	30093	28700	143731	26923	1054590	44749	111201	0	0	8384	370123	0	0
2024-07-15 03:52:47			0	42897	0	0	0	30098	28710	143623	26928	1054572	44749	111203	0	0	8384	369883	0	0
2024-07-15 03:53:47			0	42904	0	0	0	30093	28690	143663	26882	1054573	44748	111201	0	0	8385	369708	0	0
2024-07-15 03:54:47			0	42886	0	0	0	30088	28690	143651	27095	1054519	44748	111199	0	0	8384	370269	0	0
2024-07-15 03:55:47			0	42900	0	0	0	30090	28690	143703	27154	1054537	44735	111200	0	0	8384	369832	0	0
2024-07-15 03:56:47			0	42918	0	0	0	30090	28680	143655	27027	1054528	44735	111200	0	0	8386	369292	0	0
2024-07-15 03:57:47			0	42891	0	0	0	30093	28690	143691	27277	1054537	44747	111201	0	0	8384	370113	0	0
2024-07-15 03:58:47			0	42901	0	0	0	30085	28680	143639	27105	1054447	44735	111198	0	0	8385	369823	0	0
2024-07-15 03:59:47			0	42896	0	0	0	30093	28670	143691	26864	1054429	44733	111201	0	0	8384	370000	0	0
2024-07-15 04:00:47			0	42907	0	0	0	30070	28680	143707	26885	1054501	44747	111192	0	0	8385	369635	0	0
2024-07-15 04:01:47			0	42897	0	0	0	30077	28690	143655	26840	1054465	44748	111195	0	0	8385	369926	0	0
2024-07-15 04:02:47			0	42907	0	0	0	30077	28680	143663	27154	1054519	44746	111195	0	0	8385	369635	0	0
2024-07-15 04:03:47			0	42915	0	0	0	30080	28680	143715	26783	1054519	44756	111196	0	0	8385	369386	0	0
2024-07-15 04:04:47			0	42886	0	0	0	30083	28690	143667	26812	1054546	44770	111197	0	0	8384	370269	0	0
2024-07-15 04:05:47			0	42894	0	0	0	30085	28670	143711	27114	1054510	44755	111198	0	0	8384	370063	0	0
2024-07-15 04:06:47			0	42897	0	0	0	30085	28700	143735	27152	1054563	44749	111198	0	0	8384	369905	0	0
2024-07-15 04:07:47			0	42897	0	0	0	30088	28700	143647	27088	1054528	44748	111199	0	0	8384	369905	0	0
2024-07-15 04:08:47			0	42883	0	0	0	30088	28690	143707	27159	1054573	44758	111199	0	0	8384	370363	0	0
2024-07-15 04:09:47			0	42878	0	0	0	30088	28700	143763	26892	1054528	44758	111199	0	0	8383	370498	0	0
2024-07-15 04:10:47			0	42854	0	0	0	30088	28690	143795	26821	1054573	44748	111199	0	0	8382	371269	0	0
2024-07-15 04:11:47			0	42865	0	0	0	30083	28690	143863	26918	1054537	44735	111197	0	0	8383	370925	0	0
2024-07-15 04:12:47			0	42859	0	0	0	30080	28690	143819	26989	1054465	44748	111196	0	0	8382	371113	0	0
2024-07-15 04:13:47			0	42856	0	0	0	30083	28680	143923	26826	1054519	44734	111197	0	0	8382	371228	0	0
2024-07-15 04:14:47			0	42842	0	0	0	30080	28680	143979	27104	1054519	44756	111196	0	0	8381	371666	0	0
2024-07-15 04:15:47			0	42818	0	0	0	30077	28680	143907	26703	1054492	44746	111195	0	0	8380	372417	0	0
2024-07-15 04:16:47			0	42820	0	0	0	30088	28680	143947	26955	1054609	44757	111199	0	0	8380	372354	0	0
2024-07-15 04:17:47			0	42801	0	0	0	30088	28680	144011	27015	1054636	44747	111199	0	0	8379	372949	0	0
2024-07-15 04:18:47			0	42789	0	0	0	30088	28690	143999	27154	1054564	44757	111199	0	0	8378	373303	0	0
2024-07-15 04:19:47			0	42768	0	0	0	30098	28700	144071	26994	1054635	44748	111203	0	0	8377	373940	0	0
2024-07-15 04:20:47			0	42755	0	0	0	30096	28700	144051	26909	1054608	44770	111202	0	0	8376	374348	0	0
2024-07-15 04:21:47			0	42741	0	0	0	30101	28690	144163	26727	1054600	44758	111204	0	0	8375	374809	0	0
2024-07-15 04:22:47			0	42739	0	0	0	30098	28710	144211	26991	1054680	44749	111203	0	0	8375	374828	0	0
2024-07-15 04:23:47			0	42711	0	0	0	30106	28700	144210	27053	1054635	44758	111206	0	0	8373	375730	0	0
2024-07-15 04:24:47			0	42709	0	0	0	30098	28700	144290	26850	1054590	44771	111203	0	0	8373	375792	0	0
2024-07-15 04:25:47			0	42683	0	0	0	30103	28710	144270	26823	1054662	44760	111205	0	0	8372	376588	0	0
2024-07-15 04:26:47			0	42657	0	0	0	30111	28710	144294	27052	1054689	44750	111208	0	0	8370	377406	0	0
2024-07-15 04:27:47			0	42652	0	0	0	30109	28720	144350	27072	1054698	44760	111207	0	0	8370	377542	0	0
2024-07-15 04:28:47			0	42639	0	0	0	30114	28710	144426	26706	1054635	44760	111209	0	0	8369	377973	0	0
2024-07-15 04:29:47			0	42605	0	0	0	30111	28720	144454	26923	1054698	44760	111208	0	0	8367	379023	0	0
2024-07-15 04:30:47			0	42621	0	0	0	30111	28710	144458	26805	1054689	44750	111208	0	0	8368	378541	0	0
2024-07-15 04:31:47			0	42599	0	0	0	30122	28720	144594	26866	1054671	44750	111212	0	0	8366	379213	0	0
2024-07-15 04:32:47			0	42588	0	0	0	30114	28720	144614	27187	1054707	44739	111209	0	0	8366	379560	0	0
2024-07-15 04:33:47			0	42553	0	0	0	30116	28720	144606	26944	1054734	44761	111210	0	0	8364	380666	0	0
2024-07-15 04:34:47			0	42522	0	0	0	30119	28720	144722	26873	1054779	44750	111211	0	0	8362	381646	0	0
2024-07-15 04:35:47			0	42529	0	0	0	30132	28730	144746	26748	1054769	44772	111216	0	0	8362	381403	0	0
2024-07-15 04:36:47			0	42521	0	0	0	30124	28720	144846	27267	1054734	44761	111213	0	0	8362	381678	0	0
2024-07-15 04:37:47			0	42510	0	0	0	30111	28730	144774	27296	1054743	44750	111208	0	0	8361	382004	0	0
2024-07-15 04:38:47			0	42484	0	0	0	30122	28720	144858	27090	1054761	44750	111212	0	0	8360	382850	0	0
2024-07-15 04:39:47			0	42480	0	0	0	30122	28730	144982	26963	1054751	44762	111212	0	0	8359	382954	0	0
2024-07-15 04:40:47			0	42441	0	0	0	30122	28730	144994	27043	1054859	44751	111212	0	0	8357	384191	0	0
2024-07-15 04:41:47			0	42441	0	0	0	30129	28740	145034	26927	1054706	44762	111215	0	0	8357	384169	0	0
2024-07-15 04:42:47			0	42440	0	0	0	30122	28740	145078	26918	1054841	44762	111212	0	0	8357	384201	0	0
2024-07-15 04:43:47			0	42422	0	0	0	30116	28730	145010	27196	1054805	44751	111210	0	0	8356	384795	0	0
2024-07-15 04:44:47			0	42421	0	0	0	30124	28740	145154	26948	1054814	44751	111213	0	0	8356	384804	0	0
2024-07-15 04:45:47			0	42399	0	0	0	30129	28740	145230	26927	1054868	44751	111215	0	0	8355	385504	0	0
2024-07-15 04:46:47			0	42395	0	0	0	30122	28740	145154	27064	1054787	44762	111212	0	0	8354	385631	0	0
2024-07-15 04:47:47			0	42371	0	0	0	30111	28740	145334	27086	1054787	44751	111208	0	0	8353	386394	0	0
2024-07-15 04:48:47			0	42369	0	0	0	30124	28730	145258	26762	1054778	44751	111213	0	0	8353	386480	0	0
2024-07-15 04:49:47			0	42349	0	0	0	30116	28730	145326	26927	1054778	44762	111210	0	0	8352	387117	0	0
2024-07-15 04:50:47			0	42342	0	0	0	30127	28730	145326	27022	1054805	44751	111214	0	0	8351	387340	0	0
2024-07-15 04:51:47			0	42342	0	0	0	30127	28750	145406	26712	1054886	44751	111214	0	0	8351	387295	0	0
2024-07-15 04:52:47			0	42325	0	0	0	30116	28740	145402	27178	1054823	44751	111210	0	0	8350	387860	0	0
2024-07-15 04:53:47			0	42298	0	0	0	30122	28740	145450	27085	1054841	44762	111212	0	0	8349	388721	0	0
2024-07-15 04:54:47			0	42287	0	0	0	30140	28740	145534	26604	1054823	44763	111219	0	0	8348	389072	0	0
2024-07-15 04:55:47			0	42288	0	0	0	30129	28730	145462	26930	1054805	44740	111215	0	0	8348	389063	0	0
2024-07-15 04:56:47			0	42276	0	0	0	30129	28740	145562	26830	1054823	44751	111215	0	0	8347	389423	0	0
2024-07-15 04:57:47			0	42268	0	0	0	30132	28750	145606	27015	1054832	44741	111216	0	0	8347	389656	0	0
2024-07-15 04:58:47			0	42251	0	0	0	30132	28740	145562	26861	1054823	44774	111216	0	0	8346	390222	0	0
2024-07-15 04:59:47			0	42254	0	0	0	30137	28740	145586	27144	1054841	44740	111218	0	0	8346	390126	0	0
2024-07-15 05:00:47			0	42237	0	0	0	30132	28730	145566	27189	1054751	44751	111216	0	0	8345	390693	0	0
2024-07-15 05:01:47			0	42237	0	0	0	30132	28730	145622	26935	1054805	44751	111216	0	0	8345	390693	0	0
2024-07-15 05:02:47			0	42234	0	0	0	30124	28740	145590	26771	1054742	44741	111213	0	0	8345	390766	0	0
2024-07-15 05:03:47			0	42232	0	0	0	30122	28730	145734	26809	1054769	44739	111212	0	0	8345	390853	0	0
2024-07-15 05:04:47			0	42217	0	0	0	30119	28720	145726	27036	1054671	44738	111211	0	0	8344	391356	0	0
2024-07-15 05:05:47			0	42192	0	0	0	30096	28710	145758	27260	1054680	44726	111202	0	0	8343	392179	0	0
2024-07-15 05:06:47			0	42186	0	0	0	30096	28700	145778	27000	1054536	44737	111202	0	0	8342	392394	0	0
2024-07-15 05:07:47			0	42196	0	0	0	30083	28690	145902	26816	1054411	44736	111197	0	0	8343	392096	0	0
2024-07-15 05:08:47			0	42189	0	0	0	30070	28670	145834	26826	1054349	44689	111192	0	0	8343	392366	0	0
2024-07-15 05:09:47			0	42189	0	0	0	30036	28650	145898	27109	1054178	44698	111179	0	0	8343	392412	0	0
2024-07-15 05:10:47			0	42173	0	0	0	29999	28630	145958	27090	1053981	44696	111165	0	0	8343	392970	0	0
2024-07-15 05:11:47			0	42172	0	0	0	29976	28600	146042	27050	1053820	44693	111156	0	0	8343	393071	0	0
2024-07-15 05:12:47			0	42191	0	0	0	29948	28560	145938	26968	1053677	44690	111145	0	0	8345	392552	0	0
2024-07-15 05:13:47			0	42171	0	0	0	29919	28540	146078	27069	1053588	44676	111134	0	0	8344	393239	0	0
2024-07-15 05:14:47			0	42144	0	0	0	29898	28520	146122	27071	1053471	44697	111126	0	0	8343	394152	0	0
2024-07-15 05:15:47			0	42157	0	0	0	29872	28510	146046	26871	1053445	44696	111116	0	0	8344	393757	0	0
2024-07-15 05:16:47			0	42153	0	0	0	29864	28490	146182	26807	1053256	44693	111113	0	0	8344	393932	0	0
2024-07-15 05:17:47			0	42166	0	0	0	29844	28480	146114	26833	1053239	44705	111105	0	0	8345	393536	0	0
2024-07-15 05:18:47			0	42148	0	0	0	29831	28460	146310	26941	1053168	44690	111100	0	0	8344	394161	0	0
2024-07-15 05:19:47			0	42155	0	0	0	29820	28450	146246	26854	1053096	44711	111096	0	0	8344	393958	0	0
2024-07-15 05:20:47			0	42155	0	0	0	29805	28440	146298	27029	1053078	44700	111090	0	0	8344	393981	0	0
2024-07-15 05:21:47			0	42167	0	0	0	29786	28420	146250	26847	1053043	44731	111083	0	0	8345	393641	0	0
2024-07-15 05:22:47			0	42149	0	0	0	29786	28410	146282	26934	1052944	44718	111083	0	0	8344	394242	0	0
2024-07-15 05:23:47			0	42149	0	0	0	29781	28410	146274	26987	1052998	44729	111081	0	0	8344	394242	0	0
2024-07-15 05:24:47			0	42158	0	0	0	29784	28400	146250	26785	1052989	44729	111082	0	0	8345	393976	0	0
2024-07-15 05:25:47			0	42139	0	0	0	29784	28400	146254	26842	1052953	44741	111082	0	0	8344	394587	0	0
2024-07-15 05:26:47			0	42129	0	0	0	29789	28380	146226	26823	1052989	44716	111084	0	0	8343	394954	0	0
2024-07-15 05:27:47			0	42126	0	0	0	29781	28400	146370	27218	1053061	44729	111081	0	0	8343	395005	0	0
2024-07-15 05:28:47			0	42151	0	0	0	29786	28380	146354	27150	1052962	44739	111083	0	0	8344	394246	0	0
2024-07-15 05:29:47			0	42144	0	0	0	29789	28380	146386	27312	1052980	44727	111084	0	0	8344	394472	0	0
2024-07-15 05:30:47			0	42128	0	0	0	29789	28380	146226	27039	1053016	44739	111084	0	0	8343	394987	0	0
2024-07-15 05:31:47			0	42137	0	0	0	29810	28380	146378	27351	1053070	44727	111092	0	0	8343	394697	0	0
2024-07-15 05:32:47			0	42132	0	0	0	29815	28380	146354	27303	1053016	44739	111094	0	0	8343	394858	0	0
2024-07-15 05:33:47			0	42146	0	0	0	29820	28390	146306	27161	1053079	44740	111096	0	0	8344	394385	0	0
2024-07-15 05:34:47			0	42164	0	0	0	29828	28390	146190	27185	1053079	44740	111099	0	0	8344	393806	0	0
2024-07-15 05:35:47			0	42148	0	0	0	29833	28380	146238	27152	1053070	44727	111101	0	0	8343	394343	0	0
2024-07-15 05:36:47			0	42154	0	0	0	29841	28390	146186	27208	1053214	44762	111104	0	0	8344	394127	0	0
2024-07-15 05:37:47			0	42140	0	0	0	29870	28400	146178	27128	1053339	44763	111115	0	0	8342	394555	0	0
2024-07-15 05:38:47			0	42133	0	0	0	29880	28410	146166	26883	1053357	44763	111119	0	0	8342	394757	0	0
2024-07-15 05:39:47			0	42141	0	0	0	29890	28420	146182	26970	1053402	44753	111123	0	0	8342	394477	0	0
2024-07-15 05:40:47			0	42153	0	0	0	29888	28420	146154	27071	1053267	44753	111122	0	0	8343	394091	0	0
2024-07-15 05:41:47			0	42140	0	0	0	29898	28420	146122	27275	1053348	44753	111126	0	0	8342	394509	0	0
2024-07-15 05:42:47			0	42151	0	0	0	29898	28430	146154	26948	1053473	44765	111126	0	0	8343	394132	0	0
2024-07-15 05:43:47			0	42160	0	0	0	29909	28440	146162	27244	1053464	44767	111130	0	0	8343	393820	0	0
2024-07-15 05:44:47			0	42154	0	0	0	29906	28450	146106	27107	1053419	44767	111129	0	0	8343	393990	0	0
2024-07-15 05:45:47			0	42134	0	0	0	29911	28450	146102	26953	1053500	44767	111131	0	0	8342	394634	0	0
2024-07-15 05:46:47			0	42143	0	0	0	29927	28460	146154	26965	1053625	44757	111137	0	0	8342	394321	0	0
2024-07-15 05:47:47			0	42154	0	0	0	29932	28480	146210	26816	1053688	44782	111139	0	0	8342	393922	0	0
2024-07-15 05:48:47			0	42162	0	0	0	29940	28480	146122	26646	1053643	44771	111142	0	0	8343	393665	0	0
2024-07-15 05:49:47			0	42154	0	0	0	29940	28480	146118	26897	1053697	44771	111142	0	0	8342	393922	0	0
2024-07-15 05:50:47			0	42151	0	0	0	29942	28490	146138	27244	1053688	44760	111143	0	0	8342	393996	0	0
2024-07-15 05:51:47			0	42177	0	0	0	29958	28500	146074	26939	1053894	44773	111149	0	0	8343	393138	0	0
2024-07-15 05:52:47			0	42169	0	0	0	29981	28510	146022	26925	1053912	44786	111158	0	0	8343	393372	0	0
2024-07-15 05:53:47			0	42180	0	0	0	29992	28530	146030	27133	1053947	44776	111162	0	0	8343	392973	0	0
2024-07-15 05:54:47			0	42170	0	0	0	30007	28530	146082	27022	1053974	44765	111168	0	0	8342	393294	0	0
2024-07-15 05:55:47			0	42176	0	0	0	29986	28530	145954	27123	1053885	44753	111160	0	0	8343	393102	0	0
2024-07-15 05:56:47			0	42189	0	0	0	29984	28530	145978	26986	1053920	44753	111159	0	0	8344	392684	0	0
2024-07-15 05:57:47			0	42208	0	0	0	29976	28530	146022	27097	1053920	44753	111156	0	0	8345	392075	0	0
2024-07-15 05:58:47			0	42183	0	0	0	29981	28540	146014	26717	1053875	44753	111158	0	0	8344	392854	0	0
2024-07-15 05:59:47			0	42203	0	0	0	29968	28530	145902	26861	1053840	44743	111153	0	0	8345	392235	0	0
2024-07-15 06:00:47			0	42195	0	0	0	29966	28530	145966	26925	1053911	44753	111152	0	0	8344	392492	0	0
2024-07-15 06:01:47			0	42204	0	0	0	29963	28520	145910	27152	1053795	44730	111151	0	0	8345	392226	0	0
2024-07-15 06:02:47			0	42214	0	0	0	29953	28520	145842	26998	1053714	44730	111147	0	0	8346	391905	0	0
2024-07-15 06:03:47			0	42209	0	0	0	29937	28520	145990	26651	1053651	44718	111141	0	0	8346	392065	0	0
2024-07-15 06:04:47			0	42223	0	0	0	29929	28520	145994	26994	1053624	44718	111138	0	0	8347	391617	0	0
2024-07-15 06:05:47			0	42229	0	0	0	29906	28500	145958	27007	1053597	44728	111129	0	0	8347	391470	0	0
2024-07-15 06:06:47			0	42251	0	0	0	29903	28500	145910	27147	1053589	44750	111128	0	0	8349	390765	0	0
2024-07-15 06:07:47			0	42231	0	0	0	29896	28490	145986	27104	1053580	44738	111125	0	0	8348	391428	0	0
2024-07-15 06:08:47			0	42238	0	0	0	29885	28490	145902	27017	1053490	44727	111121	0	0	8348	391204	0	0
2024-07-15 06:09:47			0	42248	0	0	0	29872	28470	145998	27041	1053410	44725	111116	0	0	8349	390929	0	0
2024-07-15 06:10:47			0	42265	0	0	0	29859	28480	145862	27150	1053445	44737	111111	0	0	8350	390362	0	0
2024-07-15 06:11:47			0	42248	0	0	0	29854	28460	145794	27235	1053311	44736	111109	0	0	8349	390951	0	0
2024-07-15 06:12:47			0	42273	0	0	0	29838	28470	145830	26861	1053266	44736	111103	0	0	8351	390128	0	0
2024-07-15 06:13:47			0	42278	0	0	0	29841	28450	145802	27258	1053258	44711	111104	0	0	8351	390014	0	0
2024-07-15 06:14:47			0	42258	0	0	0	29823	28440	145818	26953	1053195	44723	111097	0	0	8350	390676	0	0
2024-07-15 06:15:47			0	42287	0	0	0	29810	28430	145770	26953	1053123	44721	111092	0	0	8352	389771	0	0
2024-07-15 06:16:47			0	42291	0	0	0	29812	28430	145806	27171	1053150	44732	111093	0	0	8352	389643	0	0
2024-07-15 06:17:47			0	42314	0	0	0	29810	28430	145762	27175	1053141	44731	111092	0	0	8354	388908	0	0
2024-07-15 06:18:47			0	42280	0	0	0	29786	28410	145634	26635	1053007	44742	111083	0	0	8352	390040	0	0
2024-07-15 06:19:47			0	42306	0	0	0	29786	28410	145706	27175	1053052	44741	111083	0	0	8354	389208	0	0
2024-07-15 06:20:47			0	42326	0	0	0	29786	28410	145662	26785	1053106	44741	111083	0	0	8355	388569	0	0
2024-07-15 06:21:47			0	42308	0	0	0	29802	28410	145722	27154	1053160	44741	111089	0	0	8353	389144	0	0
2024-07-15 06:22:47			0	42334	0	0	0	29810	28410	145702	26955	1053196	44752	111092	0	0	8355	388314	0	0
2024-07-15 06:23:47			0	42331	0	0	0	29831	28420	145570	27196	1053321	44753	111100	0	0	8354	388387	0	0
2024-07-15 06:24:47			0	42326	0	0	0	29849	28410	145602	27159	1053249	44742	111107	0	0	8354	388569	0	0
2024-07-15 06:25:47			0	42343	0	0	0	29849	28420	145614	27241	1053267	44743	111107	0	0	8355	388004	0	0
2024-07-15 06:26:47			0	42343	0	0	0	29846	28420	145562	27189	1053294	44743	111106	0	0	8355	388004	0	0
2024-07-15 06:27:47			0	42354	0	0	0	29859	28430	145570	26845	1053420	44754	111111	0	0	8355	387630	0	0
2024-07-15 06:28:47			0	42363	0	0	0	29872	28440	145630	26984	1053491	44756	111116	0	0	8356	387321	0	0
2024-07-15 06:29:47			0	42356	0	0	0	29896	28450	145442	27095	1053500	44767	111125	0	0	8355	387522	0	0
2024-07-15 06:30:47			0	42361	0	0	0	29896	28450	145446	27128	1053554	44756	111125	0	0	8355	387362	0	0
2024-07-15 06:31:47			0	42352	0	0	0	29898	28470	145470	27189	1053562	44747	111126	0	0	8355	387604	0	0
2024-07-15 06:32:47			0	42390	0	0	0	29901	28470	145502	27166	1053562	44758	111127	0	0	8357	386393	0	0
2024-07-15 06:33:47			0	42378	0	0	0	29914	28470	145442	26873	1053562	44747	111132	0	0	8356	386775	0	0
2024-07-15 06:34:47			0	42403	0	0	0	29919	28470	145382	26889	1053562	44747	111134	0	0	8357	385979	0	0
2024-07-15 06:35:47			0	42391	0	0	0	29916	28470	145442	27038	1053544	44747	111133	0	0	8357	386361	0	0
2024-07-15 06:36:47			0	42396	0	0	0	29914	28470	145266	27144	1053517	44758	111132	0	0	8357	386202	0	0
2024-07-15 06:37:47			0	42393	0	0	0	29911	28460	145314	27187	1053527	44758	111131	0	0	8357	386320	0	0
2024-07-15 06:38:47			0	42402	0	0	0	29914	28470	145378	27067	1053598	44747	111132	0	0	8357	386011	0	0
2024-07-15 06:39:47			0	42411	0	0	0	29919	28470	145322	27052	1053544	44747	111134	0	0	8358	385724	0	0
2024-07-15 06:40:47			0	42413	0	0	0	29911	28470	145278	27282	1053517	44758	111131	0	0	8358	385661	0	0
2024-07-15 06:41:47			0	42416	0	0	0	29919	28470	145306	27171	1053598	44747	111134	0	0	8358	385565	0	0
2024-07-15 06:42:47			0	42407	0	0	0	29922	28470	145394	27062	1053589	44758	111135	0	0	8357	385852	0	0
2024-07-15 06:43:47			0	42433	0	0	0	29916	28460	145282	27178	1053527	44736	111133	0	0	8359	385047	0	0
2024-07-15 06:44:47			0	42445	0	0	0	29906	28470	145302	27194	1053482	44736	111129	0	0	8360	384643	0	0
2024-07-15 06:45:47			0	42422	0	0	0	29885	28450	145330	27088	1053320	44734	111121	0	0	8359	385419	0	0
2024-07-15 06:46:47			0	42427	0	0	0	29864	28450	145278	27307	1053347	44723	111113	0	0	8359	385260	0	0
2024-07-15 06:47:47			0	42434	0	0	0	29849	28440	145270	27137	1053276	44734	111107	0	0	8360	385060	0	0
2024-07-15 06:48:47			0	42433	0	0	0	29838	28440	145210	27249	1053168	44723	111103	0	0	8360	385091	0	0
2024-07-15 06:49:47			0	42441	0	0	0	29844	28420	145222	27412	1053132	44743	111105	0	0	8360	384881	0	0
2024-07-15 06:50:47			0	42455	0	0	0	29838	28420	145270	27230	1053178	44731	111103	0	0	8361	384436	0	0
2024-07-15 06:51:47			0	42475	0	0	0	29836	28410	145274	27267	1053088	44742	111102	0	0	8363	383823	0	0
2024-07-15 06:52:47			0	42480	0	0	0	29828	28420	145246	27618	1053097	44731	111099	0	0	8363	383642	0	0
2024-07-15 06:53:47			0	42467	0	0	0	29799	28400	145234	27325	1053088	44718	111088	0	0	8363	384099	0	0
2024-07-15 06:54:47			0	42463	0	0	0	29807	28400	145206	26979	1053016	44718	111091	0	0	8362	384226	0	0
2024-07-15 06:55:47			0	42473	0	0	0	29781	28390	145198	27331	1052998	44728	111081	0	0	8363	383931	0	0
2024-07-15 06:56:47			0	42487	0	0	0	29774	28390	145326	26982	1052944	44728	111078	0	0	8364	383486	0	0
2024-07-15 06:57:47			0	42495	0	0	0	29774	28380	145202	27085	1052980	44727	111078	0	0	8365	383254	0	0
2024-07-15 06:58:47			0	42476	0	0	0	29768	28380	145286	26880	1052989	44727	111076	0	0	8364	383858	0	0
2024-07-15 06:59:47			0	42495	0	0	0	29771	28370	145218	26991	1052936	44738	111077	0	0	8365	383277	0	0
2024-07-15 07:00:47			0	42493	0	0	0	29758	28370	145202	27320	1052882	44738	111072	0	0	8365	383340	0	0
2024-07-15 07:01:47			0	42506	0	0	0	29758	28360	145182	27253	1052927	44737	111072	0	0	8365	382950	0	0
2024-07-15 07:02:47			0	42506	0	0	0	29755	28360	145174	27445	1052864	44713	111071	0	0	8366	382950	0	0
2024-07-15 07:03:47			0	42495	0	0	0	29753	28360	145110	27358	1052837	44736	111070	0	0	8365	383299	0	0
2024-07-15 07:04:47			0	42499	0	0	0	29755	28360	145146	27443	1052891	44725	111071	0	0	8365	383172	0	0
2024-07-15 07:05:47			0	42517	0	0	0	29761	28360	145126	27274	1052873	44737	111073	0	0	8366	382601	0	0
2024-07-15 07:06:47			0	42499	0	0	0	29758	28350	145210	27274	1052900	44747	111072	0	0	8365	383194	0	0
2024-07-15 07:07:47			0	42494	0	0	0	29774	28350	145226	27578	1052900	44736	111078	0	0	8364	383353	0	0
2024-07-15 07:08:47			0	42516	0	0	0	29758	28350	145102	27111	1052820	44736	111072	0	0	8366	382654	0	0
2024-07-15 07:09:47			0	42493	0	0	0	29763	28350	145190	27246	1052828	44725	111074	0	0	8365	383384	0	0
2024-07-15 07:10:47			0	42519	0	0	0	29763	28350	145214	27204	1052882	44725	111074	0	0	8366	382559	0	0
2024-07-15 07:11:47			0	42509	0	0	0	29753	28350	145202	27121	1052820	44736	111070	0	0	8366	382877	0	0
2024-07-15 07:12:47			0	42526	0	0	0	29753	28350	145238	27379	1052873	44725	111070	0	0	8367	382337	0	0
2024-07-15 07:13:47			0	42524	0	0	0	29748	28340	145190	27052	1052856	44723	111068	0	0	8367	382423	0	0
2024-07-15 07:14:47			0	42516	0	0	0	29742	28330	145162	27232	1052766	44734	111066	0	0	8366	382699	0	0
2024-07-15 07:15:47			0	42520	0	0	0	29735	28340	145242	27107	1052757	44724	111063	0	0	8367	382550	0	0
2024-07-15 07:16:47			0	42519	0	0	0	29732	28340	145118	27293	1052757	44724	111062	0	0	8367	382581	0	0
2024-07-15 07:17:47			0	42518	0	0	0	29732	28340	145150	27352	1052775	44734	111062	0	0	8367	382613	0	0
2024-07-15 07:18:47			0	42527	0	0	0	29727	28340	145114	27190	1052802	44723	111060	0	0	8367	382328	0	0
2024-07-15 07:19:47			0	42533	0	0	0	29727	28330	145070	27471	1052784	44723	111060	0	0	8367	382159	0	0
2024-07-15 07:20:47			0	42528	0	0	0	29719	28330	145166	26981	1052739	44734	111057	0	0	8367	382318	0	0
2024-07-15 07:21:47			0	42536	0	0	0	29722	28320	145094	27093	1052721	44733	111058	0	0	8368	382086	0	0
2024-07-15 07:22:47			0	42547	0	0	0	29714	28320	145130	26935	1052721	44722	111055	0	0	8368	381738	0	0
2024-07-15 07:23:47			0	42517	0	0	0	29714	28330	145162	27604	1052676	44723	111055	0	0	8367	382667	0	0
2024-07-15 07:24:47			0	42518	0	0	0	29727	28330	145122	27022	1052757	44734	111060	0	0	8367	382635	0	0
2024-07-15 07:25:47			0	42536	0	0	0	29729	28330	145142	27244	1052811	44745	111061	0	0	8368	382064	0	0
2024-07-15 07:26:47			0	42523	0	0	0	29737	28330	145154	27192	1052793	44745	111064	0	0	8367	382477	0	0
2024-07-15 07:27:47			0	42520	0	0	0	29745	28330	145010	27336	1052793	44734	111067	0	0	8366	382572	0	0
2024-07-15 07:28:47			0	42540	0	0	0	29750	28330	145102	27223	1052766	44734	111069	0	0	8367	381937	0	0
2024-07-15 07:29:47			0	42522	0	0	0	29755	28330	145142	27248	1052811	44734	111071	0	0	8366	382508	0	0
2024-07-15 07:30:47			0	42519	0	0	0	29753	28340	145094	26994	1052829	44723	111070	0	0	8366	382581	0	0
2024-07-15 07:31:47			0	42521	0	0	0	29758	28340	145110	27194	1052937	44734	111072	0	0	8366	382518	0	0
2024-07-15 07:32:47			0	42533	0	0	0	29771	28340	145102	26916	1052972	44746	111077	0	0	8367	382137	0	0
2024-07-15 07:33:47			0	42530	0	0	0	29789	28360	145030	27123	1052972	44747	111084	0	0	8366	382188	0	0
2024-07-15 07:34:47			0	42542	0	0	0	29794	28360	145038	27268	1053035	44748	111086	0	0	8367	381808	0	0
2024-07-15 07:35:47			0	42546	0	0	0	29818	28380	144978	27197	1053169	44761	111095	0	0	8367	381637	0	0
2024-07-15 07:36:47			0	42536	0	0	0	29825	28380	145018	27135	1053151	44750	111098	0	0	8366	381954	0	0
2024-07-15 07:37:47			0	42547	0	0	0	29838	28380	144962	27194	1053178	44761	111103	0	0	8367	381605	0	0
2024-07-15 07:38:47			0	42564	0	0	0	29846	28400	144962	27156	1053196	44741	111106	0	0	8368	381023	0	0
2024-07-15 07:39:47			0	42553	0	0	0	29854	28400	145002	26790	1053204	44751	111109	0	0	8367	381371	0	0
2024-07-15 07:40:47			0	42546	0	0	0	29841	28400	145030	26835	1053204	44729	111104	0	0	8367	381593	0	0
2024-07-15 07:41:47			0	42531	0	0	0	29846	28400	145078	26902	1053303	44751	111106	0	0	8366	382068	0	0
2024-07-15 07:42:47			0	42534	0	0	0	29846	28400	145066	27024	1053258	44751	111106	0	0	8366	381973	0	0
2024-07-15 07:43:47			0	42551	0	0	0	29867	28410	145102	27370	1053268	44774	111114	0	0	8366	381413	0	0
2024-07-15 07:44:47			0	42556	0	0	0	29864	28430	144982	27235	1053303	44753	111113	0	0	8367	381210	0	0
2024-07-15 07:45:47			0	42550	0	0	0	29864	28420	145158	26948	1053402	44743	111113	0	0	8367	381422	0	0
2024-07-15 07:46:47			0	42541	0	0	0	29867	28420	145006	27246	1053402	44743	111114	0	0	8366	381707	0	0
2024-07-15 07:47:47			0	42569	0	0	0	29864	28440	144970	26894	1053348	44745	111113	0	0	8368	380776	0	0
2024-07-15 07:48:47			0	42547	0	0	0	29862	28430	144966	27371	1053303	44720	111112	0	0	8366	381495	0	0
2024-07-15 07:49:47			0	42563	0	0	0	29851	28420	144974	26953	1053240	44731	111108	0	0	8368	381011	0	0
2024-07-15 07:50:47			0	42566	0	0	0	29854	28420	144994	26972	1053285	44731	111109	0	0	8368	380916	0	0
2024-07-15 07:51:47			0	42555	0	0	0	29844	28420	144942	27177	1053240	44731	111105	0	0	8367	381264	0	0
2024-07-15 07:52:47			0	42558	0	0	0	29851	28420	144870	27074	1053294	44743	111108	0	0	8367	381169	0	0
2024-07-15 07:53:47			0	42565	0	0	0	29849	28430	144958	26975	1053357	44743	111107	0	0	8368	380925	0	0
2024-07-15 07:54:47			0	42573	0	0	0	29859	28420	144998	27154	1053348	44753	111111	0	0	8368	380694	0	0
2024-07-15 07:55:47			0	42570	0	0	0	29862	28440	145042	27267	1053375	44755	111112	0	0	8368	380745	0	0
2024-07-15 07:56:47			0	42564	0	0	0	29867	28440	145018	27549	1053383	44746	111114	0	0	8367	380935	0	0
2024-07-15 07:57:47			0	42552	0	0	0	29880	28450	145014	27279	1053446	44756	111119	0	0	8366	381293	0	0
2024-07-15 07:58:47			0	42548	0	0	0	29893	28440	145022	27369	1053572	44756	111124	0	0	8366	381441	0	0
2024-07-15 07:59:47			0	42567	0	0	0	29896	28460	145046	27190	1053625	44747	111125	0	0	8367	380796	0	0
2024-07-15 08:00:47			0	42552	0	0	0	29909	28470	144954	27229	1053643	44769	111130	0	0	8366	381249	0	0
2024-07-15 08:01:47			0	42558	0	0	0	29922	28460	144966	27294	1053661	44758	111135	0	0	8366	381081	0	0
2024-07-15 08:02:47			0	42543	0	0	0	29927	28480	144866	27248	1053616	44760	111137	0	0	8365	381511	0	0
2024-07-15 08:03:47			0	42561	0	0	0	29916	28470	144946	27194	1053589	44758	111133	0	0	8366	380964	0	0
2024-07-15 08:04:47			0	42534	0	0	0	29916	28480	144994	27298	1053634	44748	111133	0	0	8365	381796	0	0
2024-07-15 08:05:47			0	42550	0	0	0	29916	28470	144906	27001	1053598	44758	111133	0	0	8366	381312	0	0
2024-07-15 08:06:47			0	42556	0	0	0	29927	28480	144986	27022	1053607	44748	111137	0	0	8366	381100	0	0
2024-07-15 08:07:47			0	42545	0	0	0	29924	28480	144986	27490	1053688	44748	111136	0	0	8365	381448	0	0
2024-07-15 08:08:47			0	42556	0	0	0	29927	28480	144970	27554	1053724	44771	111137	0	0	8366	381100	0	0
2024-07-15 08:09:47			0	42547	0	0	0	29919	28480	144902	27229	1053697	44749	111134	0	0	8366	381385	0	0
2024-07-15 08:10:47			0	42536	0	0	0	29924	28490	144982	27274	1053688	44749	111136	0	0	8365	381711	0	0
2024-07-15 08:11:47			0	42534	0	0	0	29932	28490	144942	26975	1053741	44760	111139	0	0	8365	381774	0	0
2024-07-15 08:12:47			0	42531	0	0	0	29942	28510	145006	27294	1053849	44763	111143	0	0	8364	381825	0	0
2024-07-15 08:13:47			0	42540	0	0	0	29953	28510	145014	27218	1053885	44763	111147	0	0	8365	381540	0	0
2024-07-15 08:14:47			0	42524	0	0	0	29958	28510	145046	27757	1053858	44774	111149	0	0	8364	382047	0	0
2024-07-15 08:15:47			0	42524	0	0	0	29963	28520	145058	27403	1053866	44751	111151	0	0	8364	382025	0	0
2024-07-15 08:16:47			0	42519	0	0	0	29968	28530	145022	26849	1053893	44753	111153	0	0	8363	382161	0	0
2024-07-15 08:17:47			0	42497	0	0	0	29966	28530	145098	27036	1053920	44743	111152	0	0	8362	382859	0	0
2024-07-15 08:18:47			0	42526	0	0	0	29968	28530	145038	27081	1053840	44753	111153	0	0	8364	381939	0	0
2024-07-15 08:19:47			0	42500	0	0	0	29950	28520	145050	26816	1053840	44751	111146	0	0	8363	382786	0	0
2024-07-15 08:20:47			0	42500	0	0	0	29953	28530	145110	27345	1053840	44743	111147	0	0	8363	382764	0	0
2024-07-15 08:21:47			0	42493	0	0	0	29940	28520	145014	26932	1053875	44752	111142	0	0	8362	383008	0	0
2024-07-15 08:22:47			0	42499	0	0	0	29929	28530	145126	27112	1053777	44753	111138	0	0	8363	382795	0	0
2024-07-15 08:23:47			0	42478	0	0	0	29929	28530	145118	27301	1053777	44743	111138	0	0	8362	383461	0	0
2024-07-15 08:24:47			0	42489	0	0	0	29932	28520	145050	26897	1053795	44742	111139	0	0	8362	383135	0	0
2024-07-15 08:25:47			0	42481	0	0	0	29922	28510	145114	26975	1053777	44729	111135	0	0	8362	383411	0	0
2024-07-15 08:26:47			0	42477	0	0	0	29924	28520	145042	27019	1053821	44742	111136	0	0	8362	383515	0	0
2024-07-15 08:27:47			0	42481	0	0	0	29909	28510	145110	26842	1053777	44751	111130	0	0	8362	383411	0	0
2024-07-15 08:28:47			0	42464	0	0	0	29916	28510	145114	26960	1053768	44741	111133	0	0	8361	383950	0	0
2024-07-15 08:29:47			0	42466	0	0	0	29909	28510	145130	26979	1053804	44751	111130	0	0	8361	383887	0	0
2024-07-15 08:30:47			0	42462	0	0	0	29919	28510	145178	27010	1053777	44741	111134	0	0	8361	384014	0	0
2024-07-15 08:31:47			0	42449	0	0	0	29911	28520	145138	27137	1053821	44764	111131	0	0	8360	384405	0	0
2024-07-15 08:32:47			0	42425	0	0	0	29916	28510	145274	27071	1053804	44751	111133	0	0	8359	385190	0	0
2024-07-15 08:33:47			0	42426	0	0	0	29911	28510	145118	26854	1053804	44729	111131	0	0	8359	385158	0	0
2024-07-15 08:34:47			0	42430	0	0	0	29906	28520	145230	27190	1053821	44764	111129	0	0	8359	385008	0	0
2024-07-15 08:35:47			0	42413	0	0	0	29909	28510	145098	27116	1053804	44729	111130	0	0	8358	385572	0	0
2024-07-15 08:36:47			0	42414	0	0	0	29903	28510	145254	26894	1053777	44729	111128	0	0	8358	385540	0	0
2024-07-15 08:37:47			0	42411	0	0	0	29911	28510	145254	27010	1053795	44741	111131	0	0	8358	385635	0	0
2024-07-15 08:38:47			0	42402	0	0	0	29903	28510	145250	26764	1053849	44751	111128	0	0	8358	385921	0	0
2024-07-15 08:39:47			0	42382	0	0	0	29916	28520	145262	27282	1053813	44763	111133	0	0	8356	386536	0	0
2024-07-15 08:40:47			0	42379	0	0	0	29922	28520	145286	27213	1053813	44741	111135	0	0	8356	386632	0	0
2024-07-15 08:41:47			0	42391	0	0	0	29924	28520	145302	26977	1053821	44764	111136	0	0	8357	386250	0	0
2024-07-15 08:42:47			0	42380	0	0	0	29919	28510	145270	27046	1053831	44729	111134	0	0	8356	386622	0	0
2024-07-15 08:43:47			0	42342	0	0	0	29919	28510	145310	27216	1053804	44741	111134	0	0	8354	387834	0	0
2024-07-15 08:44:47			0	42364	0	0	0	29919	28520	145418	27131	1053866	44741	111134	0	0	8355	387110	0	0
2024-07-15 08:45:47			0	42361	0	0	0	29919	28520	145298	27005	1053840	44741	111134	0	0	8355	387205	0	0
2024-07-15 08:46:47			0	42362	0	0	0	29919	28520	145374	26665	1053821	44742	111134	0	0	8355	387173	0	0
2024-07-15 08:47:47			0	42352	0	0	0	29911	28520	145430	27062	1053893	44763	111131	0	0	8355	387492	0	0
2024-07-15 08:48:47			0	42338	0	0	0	29924	28520	145486	27093	1053821	44752	111136	0	0	8353	387939	0	0
2024-07-15 08:49:47			0	42334	0	0	0	29914	28520	145546	26809	1053875	44742	111132	0	0	8353	388067	0	0
2024-07-15 08:50:47			0	42323	0	0	0	29919	28530	145530	27145	1053831	44753	111134	0	0	8353	388395	0	0
2024-07-15 08:51:47			0	42321	0	0	0	29927	28530	145514	26935	1053858	44743	111137	0	0	8352	388459	0	0
2024-07-15 08:52:47			0	42290	0	0	0	29922	28520	145522	27022	1053848	44742	111135	0	0	8351	389472	0	0
2024-07-15 08:53:47			0	42308	0	0	0	29919	28520	145562	26845	1053821	44742	111134	0	0	8352	388897	0	0
2024-07-15 08:54:47			0	42285	0	0	0	29922	28530	145554	26951	1053920	44753	111135	0	0	8350	389609	0	0
2024-07-15 08:55:47			0	42278	0	0	0	29916	28540	145698	27203	1053875	44765	111133	0	0	8350	389811	0	0
2024-07-15 08:56:47			0	42285	0	0	0	29919	28530	145734	27182	1053866	44753	111134	0	0	8351	389609	0	0
2024-07-15 08:57:47			0	42270	0	0	0	29919	28520	145714	27001	1053848	44742	111134	0	0	8350	390112	0	0
2024-07-15 08:58:47			0	42255	0	0	0	29916	28530	145750	26989	1053840	44765	111133	0	0	8349	390569	0	0
2024-07-15 08:59:47			0	42264	0	0	0	29916	28530	145714	27079	1053840	44765	111133	0	0	8349	390281	0	0
2024-07-15 09:00:47			0	42247	0	0	0	29919	28520	145770	27196	1053875	44752	111134	0	0	8348	390848	0	0
2024-07-15 09:01:47			0	42238	0	0	0	29922	28530	145674	26920	1053885	44765	111135	0	0	8348	391113	0	0
2024-07-15 09:02:47			0	42228	0	0	0	29929	28530	145778	27149	1053885	44753	111138	0	0	8347	391434	0	0
2024-07-15 09:03:47			0	42245	0	0	0	29929	28520	145806	26897	1053956	44730	111138	0	0	8348	390912	0	0
2024-07-15 09:04:47			0	42233	0	0	0	29935	28530	145750	26875	1053786	44743	111140	0	0	8347	391273	0	0
2024-07-15 09:05:47			0	42218	0	0	0	29922	28530	145762	27147	1053804	44731	111135	0	0	8347	391754	0	0
2024-07-15 09:06:47			0	42221	0	0	0	29922	28520	145794	26823	1053768	44742	111135	0	0	8347	391681	0	0
2024-07-15 09:07:47			0	42200	0	0	0	29916	28510	145806	26863	1053750	44729	111133	0	0	8346	392377	0	0
2024-07-15 09:08:47			0	42211	0	0	0	29898	28510	145802	26911	1053750	44751	111126	0	0	8346	392024	0	0
2024-07-15 09:09:47			0	42199	0	0	0	29890	28510	145918	27256	1053714	44729	111123	0	0	8346	392409	0	0
2024-07-15 09:10:47			0	42195	0	0	0	29890	28510	145886	26953	1053660	44729	111123	0	0	8346	392537	0	0
2024-07-15 09:11:47			0	42201	0	0	0	29877	28500	145910	26812	1053642	44727	111118	0	0	8346	392367	0	0
2024-07-15 09:12:47			0	42196	0	0	0	29880	28480	145930	27008	1053535	44738	111119	0	0	8346	392573	0	0
2024-07-15 09:13:47			0	42188	0	0	0	29875	28490	145898	27076	1053490	44727	111117	0	0	8345	392807	0	0
2024-07-15 09:14:47			0	42188	0	0	0	29880	28470	145958	26934	1053544	44725	111119	0	0	8345	392853	0	0
2024-07-15 09:15:47			0	42185	0	0	0	29872	28470	145958	26974	1053490	44725	111116	0	0	8345	392949	0	0
2024-07-15 09:16:47			0	42192	0	0	0	29883	28470	146006	26896	1053535	44758	111120	0	0	8345	392724	0	0
2024-07-15 09:17:47			0	42179	0	0	0	29877	28460	145914	27241	1053500	44747	111118	0	0	8345	393164	0	0
2024-07-15 09:18:47			0	42175	0	0	0	29880	28470	145994	27012	1053571	44725	111119	0	0	8345	393270	0	0
2024-07-15 09:19:47			0	42178	0	0	0	29867	28470	145958	27105	1053589	44758	111114	0	0	8345	393174	0	0
2024-07-15 09:20:47			0	42179	0	0	0	29875	28470	145954	27331	1053589	44758	111117	0	0	8345	393142	0	0
2024-07-15 09:21:47			0	42156	0	0	0	29880	28470	146078	27114	1053625	44747	111119	0	0	8343	393881	0	0
2024-07-15 09:22:47			0	42180	0	0	0	29877	28480	146102	26809	1053607	44759	111118	0	0	8345	393087	0	0
2024-07-15 09:23:47			0	42167	0	0	0	29885	28470	146110	26847	1053652	44747	111121	0	0	8344	393527	0	0
2024-07-15 09:24:47			0	42157	0	0	0	29898	28480	146018	27041	1053724	44749	111126	0	0	8343	393826	0	0
2024-07-15 09:25:47			0	42156	0	0	0	29893	28480	146094	26904	1053724	44760	111124	0	0	8343	393858	0	0
2024-07-15 09:26:47			0	42164	0	0	0	29901	28490	146030	27026	1053714	44749	111127	0	0	8344	393578	0	0
2024-07-15 09:27:47			0	42180	0	0	0	29903	28500	146058	27149	1053723	44750	111128	0	0	8345	393041	0	0
2024-07-15 09:28:47			0	42158	0	0	0	29903	28490	146014	27209	1053714	44749	111128	0	0	8343	393771	0	0
2024-07-15 09:29:47			0	42156	0	0	0	29906	28490	145998	27121	1053688	44760	111129	0	0	8343	393835	0	0
2024-07-15 09:30:47			0	42160	0	0	0	29914	28490	145978	27213	1053706	44749	111132	0	0	8343	393706	0	0
2024-07-15 09:31:47			0	42166	0	0	0	29914	28510	145982	27131	1053768	44763	111132	0	0	8344	393468	0	0
2024-07-15 09:32:47			0	42156	0	0	0	29916	28500	145974	27294	1053759	44750	111133	0	0	8343	393812	0	0
2024-07-15 09:33:47			0	42150	0	0	0	29924	28500	145994	26953	1053786	44750	111136	0	0	8342	394005	0	0
2024-07-15 09:34:47			0	42140	0	0	0	29916	28510	145982	26880	1053822	44751	111133	0	0	8342	394304	0	0
2024-07-15 09:35:47			0	42151	0	0	0	29909	28510	146086	27109	1053822	44763	111130	0	0	8343	393950	0	0
2024-07-15 09:36:47			0	42148	0	0	0	29909	28520	146046	27241	1053759	44751	111130	0	0	8343	394024	0	0
2024-07-15 09:37:47			0	42150	0	0	0	29903	28510	146066	27326	1053822	44763	111128	0	0	8343	393982	0	0
2024-07-15 09:38:47			0	42132	0	0	0	29901	28500	146030	27204	1053867	44750	111127	0	0	8342	394584	0	0
2024-07-15 09:39:47			0	42158	0	0	0	29903	28510	146082	27227	1053804	44751	111128	0	0	8343	393725	0	0
2024-07-15 09:40:47			0	42131	0	0	0	29914	28510	146102	27251	1053804	44751	111132	0	0	8342	394593	0	0
2024-07-15 09:41:47			0	42144	0	0	0	29911	28510	146034	26918	1053858	44751	111131	0	0	8342	394175	0	0
2024-07-15 09:42:47			0	42138	0	0	0	29919	28520	146098	27502	1053786	44751	111134	0	0	8342	394345	0	0
2024-07-15 09:43:47			0	42136	0	0	0	29929	28520	146066	26918	1053848	44742	111138	0	0	8342	394409	0	0
2024-07-15 09:44:47			0	42132	0	0	0	29919	28520	146098	27277	1053848	44752	111134	0	0	8342	394538	0	0
2024-07-15 09:45:47			0	42113	0	0	0	29922	28510	146150	27071	1053831	44741	111135	0	0	8340	395172	0	0
2024-07-15 09:46:47			0	42116	0	0	0	29916	28530	146170	27267	1053893	44743	111133	0	0	8341	395030	0	0
2024-07-15 09:47:47			0	42106	0	0	0	29903	28520	146178	27031	1053786	44751	111128	0	0	8340	395375	0	0
2024-07-15 09:48:47			0	42123	0	0	0	29896	28520	146206	26897	1053813	44741	111125	0	0	8341	394828	0	0
2024-07-15 09:49:47			0	42104	0	0	0	29898	28520	146142	26984	1053786	44741	111126	0	0	8340	395439	0	0
2024-07-15 09:50:47			0	42111	0	0	0	29893	28510	146210	26925	1053795	44741	111124	0	0	8341	395237	0	0
2024-07-15 09:51:47			0	42106	0	0	0	29890	28510	146270	26994	1053804	44741	111123	0	0	8340	395398	0	0
2024-07-15 09:52:47			0	42094	0	0	0	29898	28520	146226	26918	1053840	44729	111126	0	0	8340	395761	0	0
2024-07-15 09:53:47			0	42099	0	0	0	29898	28520	146286	27244	1053821	44752	111126	0	0	8340	395600	0	0
2024-07-15 09:54:47			0	42099	0	0	0	29896	28520	146170	27090	1053732	44751	111125	0	0	8340	395600	0	0
2024-07-15 09:55:47			0	42100	0	0	0	29903	28520	146234	26970	1053786	44741	111128	0	0	8340	395568	0	0
2024-07-15 09:56:47			0	42087	0	0	0	29901	28510	146182	26956	1053777	44741	111127	0	0	8339	396010	0	0
2024-07-15 09:57:47			0	42093	0	0	0	29903	28520	146246	26942	1053786	44751	111128	0	0	8340	395794	0	0
2024-07-15 09:58:47			0	42108	0	0	0	29901	28500	146346	27027	1053786	44762	111127	0	0	8340	395356	0	0
2024-07-15 09:59:47			0	42086	0	0	0	29901	28510	146166	26840	1053822	44751	111127	0	0	8339	396042	0	0
2024-07-15 10:00:47			0	42100	0	0	0	29909	28510	146318	26998	1053822	44751	111130	0	0	8340	395591	0	0
2024-07-15 10:01:47			0	42090	0	0	0	29911	28510	146314	27178	1053804	44763	111131	0	0	8339	395913	0	0
2024-07-15 10:02:47			0	42090	0	0	0	29909	28520	146250	27022	1053821	44742	111130	0	0	8339	395890	0	0
2024-07-15 10:03:47			0	42084	0	0	0	29911	28510	146266	27128	1053777	44751	111131	0	0	8339	396106	0	0
2024-07-15 10:04:47			0	42045	0	0	0	29909	28510	146277	27196	1053849	44751	111130	0	0	8337	397364	0	0
2024-07-15 10:05:47			0	42067	0	0	0	29914	28530	146465	27213	1053858	44743	111132	0	0	8338	396609	0	0
2024-07-15 10:06:47			0	42027	0	0	0	29914	28520	146345	26741	1053866	44751	111132	0	0	8336	397922	0	0
2024-07-15 10:07:47			0	42041	0	0	0	29909	28520	146449	26899	1053848	44764	111130	0	0	8336	397470	0	0
2024-07-15 10:08:47			0	42012	0	0	0	29909	28530	146513	27260	1053911	44753	111130	0	0	8335	398384	0	0
2024-07-15 10:09:47			0	42005	0	0	0	29922	28520	146573	27121	1053866	44751	111135	0	0	8334	398633	0	0
2024-07-15 10:10:47			0	41976	0	0	0	29924	28520	146473	27227	1053875	44742	111136	0	0	8332	399571	0	0
2024-07-15 10:11:47			0	41951	0	0	0	29932	28530	146653	26781	1053885	44765	111139	0	0	8331	400357	0	0
2024-07-15 10:12:47			0	41962	0	0	0	29932	28530	146613	27039	1053911	44743	111139	0	0	8332	400001	0	0
2024-07-15 10:13:47			0	41926	0	0	0	29935	28530	146697	27310	1053965	44731	111140	0	0	8329	401167	0	0
2024-07-15 10:14:47			0	41919	0	0	0	29937	28530	146813	27152	1053974	44743	111141	0	0	8329	401394	0	0
2024-07-15 10:15:47			0	41914	0	0	0	29940	28540	146833	27020	1053965	44754	111142	0	0	8329	401533	0	0
2024-07-15 10:16:47			0	41891	0	0	0	29948	28530	146921	26675	1053974	44753	111145	0	0	8327	402302	0	0
2024-07-15 10:17:47			0	41884	0	0	0	29940	28540	146937	27119	1054019	44744	111142	0	0	8327	402506	0	0
2024-07-15 10:18:47			0	41868	0	0	0	29953	28540	147001	27067	1054073	44754	111147	0	0	8326	403026	0	0
2024-07-15 10:19:47			0	41840	0	0	0	29950	28550	146933	26845	1054028	44767	111146	0	0	8324	403913	0	0
2024-07-15 10:20:47			0	41823	0	0	0	29955	28540	146989	26944	1054046	44754	111148	0	0	8323	404489	0	0
2024-07-15 10:21:47			0	41808	0	0	0	29973	28560	147117	27000	1054072	44767	111155	0	0	8322	404931	0	0
2024-07-15 10:22:47			0	41796	0	0	0	29971	28550	147157	27150	1054064	44755	111154	0	0	8321	405345	0	0
2024-07-15 10:23:47			0	41798	0	0	0	29976	28560	147217	27201	1054135	44756	111156	0	0	8321	405256	0	0
2024-07-15 10:24:47			0	41766	0	0	0	29979	28560	147301	27352	1054126	44767	111157	0	0	8319	406300	0	0
2024-07-15 10:25:47			0	41747	0	0	0	29986	28570	147333	27189	1054198	44757	111160	0	0	8318	406896	0	0
2024-07-15 10:26:47			0	41757	0	0	0	29986	28570	147329	26828	1054207	44747	111160	0	0	8319	406570	0	0
2024-07-15 10:27:47			0	41734	0	0	0	29992	28570	147397	27227	1054180	44757	111162	0	0	8317	407320	0	0
2024-07-15 10:28:47			0	41743	0	0	0	29992	28570	147377	27001	1054207	44757	111162	0	0	8318	407026	0	0
2024-07-15 10:29:47			0	41729	0	0	0	29997	28580	147417	26876	1054225	44758	111164	0	0	8317	407460	0	0
2024-07-15 10:30:47			0	41700	0	0	0	30002	28590	147405	26854	1054296	44760	111166	0	0	8315	408384	0	0
2024-07-15 10:31:47			0	41704	0	0	0	30010	28590	147533	27168	1054233	44759	111169	0	0	8316	408253	0	0
2024-07-15 10:32:47			0	41694	0	0	0	30018	28590	147437	26951	1054296	44760	111172	0	0	8315	408580	0	0
2024-07-15 10:33:47			0	41688	0	0	0	30007	28590	147553	27017	1054350	44760	111168	0	0	8315	408776	0	0
2024-07-15 10:34:47			0	41694	0	0	0	30020	28600	147481	27064	1054287	44771	111173	0	0	8315	408557	0	0
2024-07-15 10:35:47			0	41683	0	0	0	30036	28610	147429	26968	1054350	44750	111179	0	0	8314	408893	0	0
2024-07-15 10:36:47			0	41659	0	0	0	30033	28620	147581	27173	1054421	44773	111178	0	0	8313	409655	0	0
2024-07-15 10:37:47			0	41652	0	0	0	30033	28610	147777	26805	1054431	44761	111178	0	0	8312	409907	0	0
2024-07-15 10:38:47			0	41656	0	0	0	30036	28620	147629	26835	1054421	44762	111179	0	0	8312	409753	0	0
2024-07-15 10:39:47			0	41652	0	0	0	30038	28620	147689	27026	1054403	44762	111180	0	0	8312	409884	0	0
2024-07-15 10:40:47			0	41645	0	0	0	30046	28630	147785	26970	1054502	44775	111183	0	0	8312	410089	0	0
2024-07-15 10:41:47			0	41659	0	0	0	30049	28630	147681	26776	1054466	44763	111184	0	0	8312	409631	0	0
2024-07-15 10:42:47			0	41643	0	0	0	30049	28640	147745	27074	1054484	44764	111184	0	0	8312	410131	0	0
2024-07-15 10:43:47			0	41618	0	0	0	30059	28640	147789	27180	1054493	44765	111188	0	0	8310	410950	0	0
2024-07-15 10:44:47			0	41626	0	0	0	30062	28650	147741	27055	1054529	44753	111189	0	0	8310	410664	0	0
2024-07-15 10:45:47			0	41616	0	0	0	30072	28650	147737	27187	1054556	44765	111193	0	0	8310	410992	0	0
2024-07-15 10:46:47			0	41607	0	0	0	30088	28660	147773	26890	1054663	44767	111199	0	0	8309	411264	0	0
2024-07-15 10:47:47			0	41614	0	0	0	30077	28660	147741	27327	1054663	44778	111195	0	0	8309	411034	0	0
2024-07-15 10:48:47			0	41613	0	0	0	30090	28660	147817	27067	1054627	44766	111200	0	0	8309	411067	0	0
2024-07-15 10:49:47			0	41610	0	0	0	30096	28680	147797	26904	1054627	44768	111202	0	0	8309	411117	0	0
2024-07-15 10:50:47			0	41626	0	0	0	30093	28680	147889	27189	1054735	44768	111201	0	0	8310	410593	0	0
2024-07-15 10:51:47			0	41618	0	0	0	30103	28680	147757	27194	1054717	44780	111205	0	0	8309	410855	0	0
2024-07-15 10:52:47			0	41596	0	0	0	30106	28700	147805	26968	1054797	44770	111206	0	0	8308	411529	0	0
2024-07-15 10:53:47			0	41622	0	0	0	30111	28700	147717	27220	1054779	44759	111208	0	0	8310	410676	0	0
2024-07-15 10:54:47			0	41609	0	0	0	30114	28700	147789	27223	1054779	44771	111209	0	0	8309	411103	0	0
2024-07-15 10:55:47			0	41603	0	0	0	30111	28710	147793	27223	1054788	44782	111208	0	0	8308	411276	0	0
2024-07-15 10:56:47			0	41595	0	0	0	30119	28710	147753	27180	1054896	44771	111211	0	0	8308	411538	0	0
2024-07-15 10:57:47			0	41598	0	0	0	30119	28720	147793	27057	1054886	44771	111211	0	0	8308	411416	0	0
2024-07-15 10:58:47			0	41603	0	0	0	30119	28710	147717	26831	1054869	44749	111211	0	0	8308	411276	0	0
2024-07-15 10:59:47			0	41594	0	0	0	30122	28710	147801	27128	1054878	44771	111212	0	0	8308	411571	0	0
2024-07-15 11:00:47			0	41601	0	0	0	30124	28720	147769	27050	1054895	44761	111213	0	0	8308	411317	0	0
2024-07-15 11:01:47			0	41604	0	0	0	30119	28720	147917	27020	1054913	44760	111211	0	0	8308	411219	0	0
2024-07-15 11:02:47			0	41598	0	0	0	30124	28720	147773	27138	1055003	44772	111213	0	0	8308	411416	0	0
2024-07-15 11:03:47			0	41590	0	0	0	30129	28730	147833	27213	1054886	44773	111215	0	0	8308	411654	0	0
2024-07-15 11:04:47			0	41605	0	0	0	30129	28740	147889	27076	1054976	44762	111215	0	0	8308	411139	0	0
2024-07-15 11:05:47			0	41614	0	0	0	30145	28740	147749	27177	1054949	44762	111221	0	0	8309	410844	0	0
2024-07-15 11:06:47			0	41608	0	0	0	30158	28730	147809	27412	1055021	44762	111226	0	0	8308	411064	0	0
2024-07-15 11:07:47			0	41578	0	0	0	30161	28740	147761	27189	1055093	44774	111227	0	0	8306	412024	0	0
2024-07-15 11:08:47			0	41582	0	0	0	30163	28750	147861	27147	1055048	44774	111228	0	0	8307	411869	0	0
2024-07-15 11:09:47			0	41592	0	0	0	30174	28760	147845	27334	1055146	44776	111232	0	0	8307	411517	0	0
2024-07-15 11:10:47			0	41616	0	0	0	30176	28760	147777	27258	1055146	44776	111233	0	0	8308	410730	0	0
2024-07-15 11:11:47			0	41599	0	0	0	30184	28760	147825	27076	1055182	44765	111236	0	0	8307	411288	0	0
2024-07-15 11:12:47			0	41600	0	0	0	30186	28770	147733	27268	1055137	44765	111237	0	0	8307	411231	0	0
2024-07-15 11:13:47			0	41599	0	0	0	30189	28770	147785	27088	1055272	44788	111238	0	0	8307	411264	0	0
2024-07-15 11:14:47			0	41586	0	0	0	30189	28770	147829	27194	1055281	44777	111238	0	0	8306	411690	0	0
2024-07-15 11:15:47			0	41596	0	0	0	30199	28770	147793	27223	1055281	44777	111242	0	0	8307	411362	0	0
2024-07-15 11:16:47			0	41581	0	0	0	30205	28780	147773	26996	1055326	44778	111244	0	0	8306	411830	0	0
2024-07-15 11:17:47			0	41621	0	0	0	30212	28780	147797	27248	1055299	44778	111247	0	0	8308	410519	0	0
2024-07-15 11:18:47			0	41590	0	0	0	30212	28790	147693	26863	1055262	44768	111247	0	0	8306	411511	0	0
2024-07-15 11:19:47			0	41606	0	0	0	30215	28800	147833	27402	1055298	44780	111248	0	0	8307	410963	0	0
2024-07-15 11:20:47			0	41582	0	0	0	30207	28800	147685	27223	1055325	44769	111245	0	0	8306	411750	0	0
2024-07-15 11:21:47			0	41589	0	0	0	30228	28810	147753	26894	1055370	44792	111253	0	0	8306	411496	0	0
2024-07-15 11:22:47			0	41615	0	0	0	30220	28810	147717	27180	1055397	44781	111250	0	0	8308	410644	0	0
2024-07-15 11:23:47			0	41593	0	0	0	30228	28800	147737	27189	1055388	44780	111253	0	0	8306	411389	0	0
2024-07-15 11:24:47			0	41622	0	0	0	30228	28810	147717	27116	1055424	44803	111253	0	0	8308	410415	0	0
2024-07-15 11:25:47			0	41601	0	0	0	30233	28820	147617	27223	1055504	44783	111255	0	0	8307	411079	0	0
2024-07-15 11:26:47			0	41598	0	0	0	30231	28820	147733	27177	1055469	44759	111254	0	0	8307	411177	0	0
2024-07-15 11:27:47			0	41614	0	0	0	30236	28820	147617	26977	1055504	44783	111256	0	0	8307	410653	0	0
2024-07-15 11:28:47			0	41616	0	0	0	30233	28830	147633	27301	1055468	44783	111255	0	0	8308	410564	0	0
2024-07-15 11:29:47			0	41613	0	0	0	30233	28830	147661	27400	1055459	44783	111255	0	0	8308	410662	0	0
2024-07-15 11:30:47			0	41614	0	0	0	30236	28820	147685	27031	1055477	44783	111256	0	0	8307	410653	0	0
2024-07-15 11:31:47			0	41616	0	0	0	30238	28840	147657	27166	1055504	44784	111257	0	0	8308	410540	0	0
2024-07-15 11:32:47			0	41603	0	0	0	30238	28830	147621	27194	1055522	44783	111257	0	0	8307	410990	0	0
2024-07-15 11:33:47			0	41617	0	0	0	30241	28830	147693	26833	1055594	44772	111258	0	0	8308	410531	0	0
2024-07-15 11:34:47			0	41621	0	0	0	30236	28840	147685	26939	1055558	44784	111256	0	0	8308	410376	0	0
2024-07-15 11:35:47			0	41605	0	0	0	30246	28830	147701	27178	1055603	44772	111260	0	0	8307	410924	0	0
2024-07-15 11:36:47			0	41647	0	0	0	30246	28830	147693	27109	1055576	44772	111260	0	0	8309	409549	0	0
2024-07-15 11:37:47			0	41644	0	0	0	30244	28840	147645	27092	1055585	44772	111259	0	0	8309	409623	0	0
2024-07-15 11:38:47			0	41642	0	0	0	30251	28840	147577	26672	1055567	44773	111262	0	0	8309	409689	0	0
2024-07-15 11:39:47			0	41624	0	0	0	30249	28840	147589	27246	1055621	44785	111261	0	0	8308	410278	0	0
2024-07-15 11:40:47			0	41636	0	0	0	30246	28840	147525	27196	1055567	44773	111260	0	0	8309	409885	0	0
2024-07-15 11:41:47			0	41635	0	0	0	30251	28840	147665	27020	1055531	44794	111262	0	0	8309	409918	0	0
2024-07-15 11:42:47			0	41622	0	0	0	30254	28840	147545	27100	1055639	44772	111263	0	0	8308	410343	0	0
2024-07-15 11:43:47			0	41650	0	0	0	30262	28850	147609	27204	1055665	44785	111266	0	0	8309	409403	0	0
2024-07-15 11:44:47			0	41633	0	0	0	30264	28850	147549	27135	1055630	44785	111267	0	0	8308	409960	0	0
2024-07-15 11:45:47			0	41661	0	0	0	30270	28860	147513	26984	1055728	44786	111269	0	0	8310	409020	0	0
2024-07-15 11:46:47			0	41660	0	0	0	30283	28860	147569	27121	1055674	44786	111274	0	0	8309	409053	0	0
2024-07-15 11:47:47			0	41662	0	0	0	30275	28870	147497	27407	1055719	44775	111271	0	0	8310	408964	0	0
2024-07-15 11:48:47			0	41655	0	0	0	30259	28860	147465	27142	1055656	44787	111265	0	0	8310	409216	0	0
2024-07-15 11:49:47			0	41661	0	0	0	30257	28860	147473	27107	1055647	44786	111264	0	0	8310	409020	0	0
2024-07-15 11:50:47			0	41657	0	0	0	30257	28860	147437	26979	1055647	44774	111264	0	0	8310	409151	0	0
2024-07-15 11:51:47			0	41672	0	0	0	30254	28860	147389	27280	1055656	44775	111263	0	0	8311	408660	0	0
2024-07-15 11:52:47			0	41663	0	0	0	30262	28860	147441	27372	1055674	44786	111266	0	0	8310	408955	0	0
2024-07-15 11:53:47			0	41669	0	0	0	30267	28860	147489	27182	1055674	44763	111268	0	0	8310	408758	0	0
2024-07-15 11:54:47			0	41668	0	0	0	30262	28860	147489	26955	1055701	44774	111266	0	0	8310	408791	0	0
2024-07-15 11:55:47			0	41669	0	0	0	30264	28870	147421	27287	1055692	44775	111267	0	0	8310	408735	0	0
2024-07-15 11:56:47			0	41686	0	0	0	30262	28870	147441	27140	1055665	44797	111266	0	0	8311	408179	0	0
2024-07-15 11:57:47			0	41670	0	0	0	30262	28860	147369	26913	1055728	44774	111266	0	0	8310	408726	0	0
2024-07-15 11:58:47			0	41677	0	0	0	30270	28860	147425	26790	1055710	44775	111269	0	0	8311	408497	0	0
2024-07-15 11:59:47			0	41680	0	0	0	30267	28870	147309	27410	1055746	44775	111268	0	0	8311	408375	0	0
2024-07-15 12:00:47			0	41671	0	0	0	30280	28870	147365	27170	1055755	44798	111273	0	0	8310	408669	0	0
2024-07-15 12:01:47			0	41679	0	0	0	30283	28880	147365	27263	1055710	44776	111274	0	0	8311	408384	0	0
2024-07-15 12:02:47			0	41690	0	0	0	30277	28870	147297	27223	1055782	44776	111272	0	0	8311	408049	0	0
2024-07-15 12:03:47			0	41702	0	0	0	30285	28880	147389	27251	1055791	44776	111275	0	0	8312	407633	0	0
2024-07-15 12:04:47			0	41699	0	0	0	30288	28880	147333	27168	1055800	44777	111276	0	0	8312	407731	0	0
2024-07-15 12:05:47			0	41692	0	0	0	30290	28880	147277	27111	1055791	44798	111277	0	0	8311	407960	0	0
2024-07-15 12:06:47			0	41696	0	0	0	30298	28880	147297	27192	1055854	44789	111280	0	0	8311	407829	0	0
2024-07-15 12:07:47			0	41730	0	0	0	30309	28880	147333	27053	1055881	44799	111284	0	0	8313	406720	0	0
2024-07-15 12:08:47			0	41708	0	0	0	30319	28890	147241	27267	1055944	44790	111288	0	0	8312	407414	0	0
2024-07-15 12:09:47			0	41713	0	0	0	30314	28890	147273	27241	1055898	44800	111286	0	0	8312	407251	0	0
2024-07-15 12:10:47			0	41727	0	0	0	30319	28900	147225	27163	1055908	44790	111288	0	0	8313	406771	0	0
2024-07-15 12:11:47			0	41715	0	0	0	30311	28900	147273	27178	1055970	44791	111285	0	0	8312	407162	0	0
2024-07-15 12:12:47			0	41721	0	0	0	30306	28910	147245	27093	1055979	44780	111283	0	0	8313	406943	0	0
2024-07-15 12:13:47			0	41722	0	0	0	30311	28900	147197	27149	1055944	44779	111285	0	0	8313	406934	0	0
2024-07-15 12:14:47			0	41720	0	0	0	30309	28910	147161	27015	1056033	44769	111284	0	0	8313	406975	0	0
2024-07-15 12:15:47			0	41729	0	0	0	30322	28910	147229	27033	1055988	44780	111289	0	0	8313	406682	0	0
2024-07-15 12:16:47			0	41720	0	0	0	30337	28910	147209	27405	1056042	44802	111295	0	0	8312	406975	0	0
2024-07-15 12:17:47			0	41742	0	0	0	30335	28920	147145	27178	1056051	44802	111294	0	0	8314	406235	0	0
2024-07-15 12:18:47			0	41730	0	0	0	30340	28920	147225	27223	1056087	44803	111296	0	0	8313	406626	0	0
2024-07-15 12:19:47			0	41719	0	0	0	30345	28920	147269	27104	1056141	44803	111298	0	0	8312	406984	0	0
2024-07-15 12:20:47			0	41735	0	0	0	30348	28930	147201	26894	1056185	44804	111299	0	0	8313	406439	0	0
2024-07-15 12:21:47			0	41728	0	0	0	30379	28950	147281	27355	1056158	44806	111311	0	0	8312	406620	0	0
2024-07-15 12:22:47			0	41735	0	0	0	30366	28960	147265	26915	1056230	44807	111306	0	0	8313	406368	0	0
2024-07-15 12:23:47			0	41728	0	0	0	30373	28950	147149	27007	1056221	44795	111309	0	0	8312	406620	0	0
2024-07-15 12:24:47			0	41732	0	0	0	30363	28960	147137	27090	1056284	44795	111305	0	0	8313	406466	0	0
2024-07-15 12:25:47			0	41739	0	0	0	30363	28970	147109	27114	1056302	44796	111305	0	0	8313	406215	0	0
2024-07-15 12:26:47			0	41739	0	0	0	30355	28960	147201	27098	1056203	44774	111302	0	0	8313	406238	0	0
2024-07-15 12:27:47			0	41727	0	0	0	30353	28970	147149	26776	1056221	44796	111301	0	0	8313	406605	0	0
2024-07-15 12:28:47			0	41730	0	0	0	30363	28980	147213	27222	1056427	44809	111305	0	0	8313	406484	0	0
2024-07-15 12:29:47			0	41725	0	0	0	30405	28970	147237	27098	1056409	44808	111321	0	0	8312	406671	0	0
2024-07-15 12:30:47			0	41745	0	0	0	30420	28990	147145	26977	1056463	44820	111327	0	0	8313	405972	0	0
2024-07-15 12:31:47			0	41739	0	0	0	30444	29000	147241	27168	1056544	44799	111336	0	0	8312	406144	0	0
2024-07-15 12:32:47			0	41739	0	0	0	30438	29010	147109	27227	1056499	44822	111334	0	0	8312	406120	0	0
2024-07-15 12:33:47			0	41728	0	0	0	30457	29010	147197	26847	1056588	44800	111341	0	0	8311	406479	0	0
2024-07-15 12:34:47			0	41741	0	0	0	30454	29020	147221	27116	1056660	44814	111340	0	0	8312	406032	0	0
2024-07-15 12:35:47			0	41742	0	0	0	30470	29020	147109	27046	1056579	44802	111346	0	0	8312	405999	0	0
2024-07-15 12:36:47			0	41733	0	0	0	30475	29030	147193	26916	1056750	44814	111348	0	0	8311	406269	0	0
2024-07-15 12:37:47			0	41737	0	0	0	30501	29040	147085	26934	1056768	44826	111358	0	0	8311	406115	0	0
2024-07-15 12:38:47			0	41761	0	0	0	30509	29050	147065	27112	1056875	44804	111361	0	0	8312	405310	0	0
2024-07-15 12:39:47			0	41730	0	0	0	30519	29060	147065	26916	1056830	44817	111365	0	0	8310	406296	0	0
2024-07-15 12:40:47			0	41729	0	0	0	30509	29070	147089	27190	1056884	44829	111361	0	0	8311	406305	0	0
2024-07-15 12:41:47			0	41753	0	0	0	30490	29080	147045	27308	1056902	44808	111354	0	0	8312	405500	0	0
2024-07-15 12:42:47			0	41745	0	0	0	30483	29090	147061	27052	1056938	44809	111351	0	0	8312	405737	0	0
2024-07-15 12:43:47			0	41747	0	0	0	30477	29080	146997	27092	1056929	44808	111349	0	0	8312	405695	0	0
2024-07-15 12:44:47			0	41753	0	0	0	30483	29090	146953	26885	1056884	44809	111351	0	0	8312	405476	0	0
2024-07-15 12:45:47			0	41757	0	0	0	30483	29090	146969	26970	1056973	44809	111351	0	0	8313	405346	0	0
2024-07-15 12:46:47			0	41757	0	0	0	30516	29100	146877	27230	1057063	44820	111364	0	0	8312	405323	0	0
2024-07-15 12:47:47			0	41760	0	0	0	30527	29110	147049	27322	1057117	44822	111368	0	0	8312	405202	0	0
2024-07-15 12:48:47			0	41773	0	0	0	30548	29110	146953	27071	1057162	44833	111376	0	0	8313	404779	0	0
2024-07-15 12:49:47			0	41755	0	0	0	30545	29120	146905	27284	1057207	44822	111375	0	0	8312	405340	0	0
2024-07-15 12:50:47			0	41759	0	0	0	30548	29130	146845	26738	1057233	44801	111376	0	0	8312	405187	0	0
2024-07-15 12:51:47			0	41759	0	0	0	30555	29140	146965	27154	1057242	44835	111379	0	0	8312	405163	0	0
2024-07-15 12:52:47			0	41766	0	0	0	30579	29150	146989	27171	1057341	44826	111388	0	0	8312	404912	0	0
2024-07-15 12:53:47			0	41757	0	0	0	30566	29140	146753	27244	1057278	44802	111383	0	0	8311	405229	0	0
2024-07-15 12:54:47			0	41770	0	0	0	30558	29160	146857	27119	1057341	44816	111380	0	0	8312	404759	0	0
2024-07-15 12:55:47			0	41777	0	0	0	30571	29160	146937	27116	1057359	44827	111385	0	0	8313	404531	0	0
2024-07-15 12:56:47			0	41764	0	0	0	30574	29170	146889	26753	1057377	44817	111386	0	0	8312	404930	0	0
2024-07-15 12:57:47			0	41760	0	0	0	30581	29160	146781	26755	1057395	44827	111389	0	0	8311	405084	0	0
2024-07-15 12:58:47			0	41771	0	0	0	30566	29180	146849	27124	1057421	44817	111383	0	0	8312	404679	0	0
2024-07-15 12:59:47			0	41782	0	0	0	30561	29190	146777	27454	1057466	44818	111381	0	0	8313	404298	0	0
2024-07-15 13:00:47			0	41760	0	0	0	30558	29170	146817	26663	1057439	44806	111380	0	0	8312	405061	0	0
2024-07-15 13:01:47			0	41775	0	0	0	30579	29180	146765	27152	1057484	44817	111388	0	0	8312	404549	0	0
2024-07-15 13:02:47			0	41782	0	0	0	30605	29180	146865	27119	1057484	44795	111398	0	0	8312	404322	0	0
2024-07-15 13:03:47			0	41777	0	0	0	30612	29190	146849	27017	1057556	44819	111401	0	0	8312	404461	0	0
2024-07-15 13:04:47			0	41793	0	0	0	30602	29190	146781	27251	1057529	44819	111397	0	0	8313	403941	0	0
2024-07-15 13:05:47			0	41810	0	0	0	30592	29190	146809	26920	1057475	44819	111393	0	0	8314	403390	0	0
2024-07-15 13:06:47			0	41784	0	0	0	30555	29190	146725	27234	1057394	44819	111379	0	0	8313	404234	0	0
2024-07-15 13:07:47			0	41805	0	0	0	30550	29190	146753	26885	1057385	44796	111377	0	0	8315	403552	0	0
2024-07-15 13:08:47			0	41792	0	0	0	30540	29180	146729	27242	1057295	44784	111373	0	0	8314	403997	0	0
2024-07-15 13:09:47			0	41816	0	0	0	30524	29180	146657	26788	1057287	44795	111367	0	0	8316	403218	0	0
2024-07-15 13:10:47			0	41801	0	0	0	30522	29170	146677	27017	1057215	44794	111366	0	0	8315	403729	0	0
2024-07-15 13:11:47			0	41805	0	0	0	30516	29160	146577	27020	1057287	44804	111364	0	0	8315	403622	0	0
2024-07-15 13:12:47			0	41819	0	0	0	30516	29160	146629	26955	1057332	44804	111364	0	0	8316	403168	0	0
2024-07-15 13:13:47			0	41812	0	0	0	30555	29170	146629	26904	1057413	44829	111379	0	0	8315	403372	0	0
2024-07-15 13:14:47			0	41833	0	0	0	30566	29180	146569	27066	1057421	44829	111383	0	0	8316	402667	0	0
2024-07-15 13:15:47			0	41827	0	0	0	30579	29190	146549	27137	1057412	44796	111388	0	0	8316	402838	0	0
2024-07-15 13:16:47			0	41812	0	0	0	30563	29190	146649	26856	1057412	44818	111382	0	0	8315	403325	0	0
2024-07-15 13:17:47			0	41830	0	0	0	30545	29170	146669	27062	1057305	44795	111375	0	0	8316	402788	0	0
2024-07-15 13:18:47			0	41837	0	0	0	30545	29170	146653	27145	1057305	44806	111375	0	0	8317	402561	0	0
2024-07-15 13:19:47			0	41824	0	0	0	30542	29180	146585	26902	1057376	44806	111374	0	0	8316	402959	0	0
2024-07-15 13:20:47			0	41830	0	0	0	30566	29180	146545	26844	1057484	44829	111383	0	0	8316	402765	0	0
2024-07-15 13:21:47			0	41835	0	0	0	30586	29180	146509	27145	1057538	44817	111391	0	0	8316	402603	0	0
2024-07-15 13:22:47			0	41842	0	0	0	30576	29190	146629	27045	1057502	44819	111387	0	0	8316	402352	0	0
2024-07-15 13:23:47			0	41837	0	0	0	30568	29200	146617	27050	1057484	44819	111384	0	0	8316	402491	0	0
2024-07-15 13:24:47			0	41834	0	0	0	30555	29190	146533	26826	1057529	44808	111379	0	0	8316	402612	0	0
2024-07-15 13:25:47			0	41845	0	0	0	30563	29190	146581	27189	1057529	44808	111382	0	0	8317	402255	0	0
2024-07-15 13:26:47			0	41834	0	0	0	30576	29200	146581	26998	1057574	44808	111387	0	0	8316	402588	0	0
2024-07-15 13:27:47			0	41847	0	0	0	30597	29200	146549	27088	1057628	44808	111395	0	0	8316	402167	0	0
2024-07-15 13:28:47			0	41839	0	0	0	30599	29210	146517	27071	1057583	44820	111396	0	0	8316	402403	0	0
2024-07-15 13:29:47			0	41847	0	0	0	30599	29210	146525	27133	1057583	44809	111396	0	0	8316	402144	0	0
2024-07-15 13:30:47			0	41841	0	0	0	30599	29210	146517	27144	1057664	44809	111396	0	0	8316	402338	0	0
2024-07-15 13:31:47			0	41865	0	0	0	30592	29220	146469	27171	1057636	44822	111393	0	0	8318	401537	0	0
2024-07-15 13:32:47			0	41866	0	0	0	30589	29210	146433	27001	1057583	44798	111392	0	0	8318	401528	0	0
2024-07-15 13:33:47			0	41860	0	0	0	30584	29210	146433	27329	1057502	44787	111390	0	0	8317	401723	0	0
2024-07-15 13:34:47			0	41869	0	0	0	30584	29210	146445	27081	1057475	44809	111390	0	0	8318	401431	0	0
2024-07-15 13:35:47			0	41869	0	0	0	30581	29210	146477	27072	1057484	44799	111389	0	0	8318	401431	0	0
2024-07-15 13:36:47			0	41864	0	0	0	30584	29210	146449	27104	1057529	44820	111390	0	0	8318	401593	0	0
2024-07-15 13:37:47			0	41890	0	0	0	30584	29210	146469	26724	1057637	44820	111390	0	0	8319	400752	0	0
2024-07-15 13:38:47			0	41867	0	0	0	30594	29210	146497	27015	1057645	44821	111394	0	0	8318	401496	0	0
2024-07-15 13:39:47			0	41896	0	0	0	30597	29220	146413	26974	1057600	44821	111395	0	0	8319	400535	0	0
2024-07-15 13:40:47			0	41891	0	0	0	30610	29210	146477	27043	1057618	44833	111400	0	0	8319	400720	0	0
2024-07-15 13:41:47			0	41895	0	0	0	30605	29220	146409	27020	1057636	44799	111398	0	0	8319	400567	0	0
2024-07-15 13:42:47			0	41903	0	0	0	30599	29220	146413	27067	1057636	44811	111396	0	0	8320	400308	0	0
2024-07-15 13:43:47			0	41898	0	0	0	30586	29220	146257	27216	1057519	44810	111391	0	0	8320	400470	0	0
2024-07-15 13:44:47			0	41913	0	0	0	30581	29210	146349	27322	1057538	44810	111389	0	0	8321	400009	0	0
2024-07-15 13:45:47			0	41903	0	0	0	30571	29210	146321	26972	1057538	44810	111385	0	0	8320	400332	0	0
2024-07-15 13:46:47			0	41925	0	0	0	30566	29210	146297	26937	1057511	44810	111383	0	0	8321	399621	0	0
2024-07-15 13:47:47			0	41894	0	0	0	30574	29210	146241	26769	1057610	44809	111386	0	0	8320	400623	0	0
2024-07-15 13:48:47			0	41925	0	0	0	30579	29210	146201	27346	1057538	44799	111388	0	0	8321	399621	0	0
2024-07-15 13:49:47			0	41908	0	0	0	30581	29210	146269	26942	1057610	44798	111389	0	0	8320	400170	0	0
2024-07-15 13:50:47			0	41926	0	0	0	30589	29210	146209	27095	1057583	44820	111392	0	0	8321	399589	0	0
2024-07-15 13:51:47			0	41934	0	0	0	30605	29210	146157	27064	1057645	44810	111398	0	0	8321	399330	0	0
2024-07-15 13:52:47			0	41940	0	0	0	30586	29220	146149	27024	1057627	44810	111391	0	0	8322	399114	0	0
2024-07-15 13:53:47			0	41947	0	0	0	30589	29220	146117	26989	1057546	44821	111392	0	0	8322	398888	0	0
2024-07-15 13:54:47			0	41940	0	0	0	30589	29220	146109	27208	1057681	44821	111392	0	0	8322	399114	0	0
2024-07-15 13:55:47			0	41952	0	0	0	30602	29230	146113	26972	1057762	44834	111397	0	0	8323	398703	0	0
2024-07-15 13:56:47			0	41958	0	0	0	30623	29230	146185	27140	1057789	44823	111405	0	0	8323	398510	0	0
2024-07-15 13:57:47			0	41956	0	0	0	30628	29240	146089	27008	1057861	44824	111407	0	0	8322	398551	0	0
2024-07-15 13:58:47			0	41960	0	0	0	30644	29250	146077	26823	1057843	44835	111413	0	0	8322	398399	0	0
2024-07-15 13:59:47			0	41948	0	0	0	30662	29250	146093	27100	1057896	44824	111420	0	0	8321	398786	0	0
2024-07-15 14:00:47			0	41958	0	0	0	30677	29250	146081	26972	1057932	44847	111426	0	0	8322	398463	0	0
2024-07-15 14:01:47			0	41962	0	0	0	30685	29280	146053	26967	1058022	44827	111429	0	0	8322	398265	0	0
2024-07-15 14:02:47			0	41969	0	0	0	30690	29270	145985	26975	1058094	44849	111431	0	0	8322	398062	0	0
2024-07-15 14:03:47			0	41944	0	0	0	30706	29300	146065	27019	1058166	44829	111437	0	0	8321	398799	0	0
2024-07-15 14:04:47			0	41962	0	0	0	30716	29310	146017	26925	1058156	44830	111441	0	0	8322	398196	0	0
2024-07-15 14:05:47			0	41985	0	0	0	30714	29320	145961	27105	1058174	44831	111440	0	0	8323	397431	0	0
2024-07-15 14:06:47			0	41966	0	0	0	30716	29310	146025	26849	1058219	44841	111441	0	0	8322	398067	0	0
2024-07-15 14:07:47			0	41965	0	0	0	30722	29320	146013	26856	1058264	44832	111443	0	0	8322	398076	0	0
2024-07-15 14:08:47			0	41967	0	0	0	30732	29330	146001	27386	1058228	44833	111447	0	0	8322	397988	0	0
2024-07-15 14:09:47			0	41977	0	0	0	30729	29330	146013	27112	1058219	44842	111446	0	0	8322	397666	0	0
2024-07-15 14:10:47			0	41984	0	0	0	30724	29340	146013	27161	1058237	44833	111444	0	0	8323	397417	0	0
2024-07-15 14:11:47			0	41982	0	0	0	30714	29330	146093	27064	1058246	44821	111440	0	0	8323	397505	0	0
2024-07-15 14:12:47			0	41994	0	0	0	30714	29340	146021	27001	1058165	44844	111440	0	0	8324	397096	0	0
2024-07-15 14:13:47			0	41975	0	0	0	30711	29330	146013	27227	1058192	44821	111439	0	0	8322	397731	0	0
2024-07-15 14:14:47			0	41987	0	0	0	30711	29330	146037	27218	1058192	44821	111439	0	0	8323	397344	0	0
2024-07-15 14:15:47			0	41998	0	0	0	30724	29330	145953	27161	1058255	44833	111444	0	0	8324	396990	0	0
2024-07-15 14:16:47			0	42004	0	0	0	30745	29340	145937	27249	1058327	44844	111452	0	0	8324	396774	0	0
2024-07-15 14:17:47			0	41999	0	0	0	30750	29350	145997	27170	1058452	44845	111454	0	0	8323	396912	0	0
2024-07-15 14:18:47			0	41996	0	0	0	30750	29340	145913	27137	1058354	44844	111454	0	0	8323	397031	0	0
2024-07-15 14:19:47			0	41988	0	0	0	30761	29360	145921	27097	1058434	44835	111458	0	0	8322	397243	0	0
2024-07-15 14:20:47			0	42004	0	0	0	30748	29350	145829	26939	1058425	44823	111453	0	0	8324	396751	0	0
2024-07-15 14:21:47			0	42004	0	0	0	30761	29360	145797	27301	1058407	44824	111458	0	0	8323	396728	0	0
2024-07-15 14:22:47			0	42003	0	0	0	30755	29370	145829	26857	1058371	44836	111456	0	0	8323	396737	0	0
2024-07-15 14:23:47			0	42022	0	0	0	30748	29360	145853	26814	1058353	44802	111453	0	0	8325	396149	0	0
2024-07-15 14:24:47			0	42017	0	0	0	30750	29360	145841	27050	1058443	44846	111454	0	0	8324	396310	0	0
2024-07-15 14:25:47			0	42019	0	0	0	30740	29370	145829	27168	1058425	44825	111450	0	0	8325	396222	0	0
2024-07-15 14:26:47			0	42026	0	0	0	30753	29370	145725	27436	1058533	44836	111455	0	0	8325	395997	0	0
2024-07-15 14:27:47			0	42034	0	0	0	30789	29380	145849	27260	1058551	44837	111469	0	0	8325	395717	0	0
2024-07-15 14:28:47			0	42026	0	0	0	30794	29380	145837	27187	1058578	44848	111471	0	0	8324	395974	0	0
2024-07-15 14:29:47			0	42001	0	0	0	30784	29380	145829	27265	1058587	44826	111467	0	0	8323	396778	0	0
2024-07-15 14:30:47			0	42044	0	0	0	30781	29380	145813	27261	1058560	44837	111466	0	0	8325	395396	0	0
2024-07-15 14:31:47			0	42031	0	0	0	30786	29380	145805	27147	1058578	44837	111468	0	0	8325	395814	0	0
2024-07-15 14:32:47			0	42022	0	0	0	30786	29390	145853	27003	1058622	44827	111468	0	0	8324	396080	0	0
2024-07-15 14:33:47			0	42030	0	0	0	30794	29390	145801	27182	1058658	44849	111471	0	0	8324	395823	0	0
2024-07-15 14:34:47			0	42024	0	0	0	30815	29400	145889	27317	1058703	44840	111479	0	0	8324	395993	0	0
2024-07-15 14:35:47			0	42029	0	0	0	30820	29410	145737	26876	1058685	44840	111481	0	0	8324	395809	0	0
2024-07-15 14:36:47			0	42040	0	0	0	30823	29410	145809	27052	1058748	44840	111482	0	0	8325	395456	0	0
2024-07-15 14:37:47			0	42038	0	0	0	30831	29420	145805	27107	1058820	44853	111485	0	0	8324	395497	0	0
2024-07-15 14:38:47			0	42024	0	0	0	30859	29430	145761	27144	1058856	44841	111496	0	0	8323	395924	0	0
2024-07-15 14:39:47			0	42046	0	0	0	30864	29440	145801	27142	1058928	44854	111498	0	0	8324	395194	0	0
2024-07-15 14:40:47			0	42042	0	0	0	30883	29460	145733	27072	1058990	44844	111505	0	0	8324	395276	0	0
2024-07-15 14:41:47			0	42029	0	0	0	30880	29450	145801	27074	1058999	44843	111504	0	0	8323	395717	0	0
2024-07-15 14:42:47			0	42044	0	0	0	30877	29460	145785	27109	1059080	44845	111503	0	0	8324	395212	0	0
2024-07-15 14:43:47			0	42044	0	0	0	30877	29470	145669	26923	1059125	44846	111503	0	0	8324	395189	0	0
2024-07-15 14:44:47			0	42061	0	0	0	30880	29480	145705	27166	1059161	44846	111504	0	0	8325	394621	0	0
2024-07-15 14:45:47			0	42035	0	0	0	30890	29480	145621	27024	1059107	44858	111508	0	0	8324	395455	0	0
2024-07-15 14:46:47			0	42044	0	0	0	30893	29490	145753	27338	1059188	44848	111509	0	0	8324	395143	0	0
2024-07-15 14:47:47			0	42064	0	0	0	30880	29500	145713	26977	1059178	44849	111504	0	0	8325	394479	0	0
2024-07-15 14:48:47			0	42049	0	0	0	30880	29500	145637	27251	1059143	44848	111504	0	0	8325	394960	0	0
2024-07-15 14:49:47			0	42066	0	0	0	30906	29510	145545	27074	1059277	44839	111514	0	0	8325	394392	0	0
2024-07-15 14:50:47			0	42065	0	0	0	30909	29510	145589	27130	1059223	44850	111515	0	0	8325	394424	0	0
2024-07-15 14:51:47			0	42047	0	0	0	30911	29510	145573	26946	1059187	44828	111516	0	0	8324	395001	0	0
2024-07-15 14:52:47			0	42048	0	0	0	30898	29520	145597	26835	1059259	44850	111511	0	0	8324	394946	0	0
2024-07-15 14:53:47			0	42072	0	0	0	30893	29520	145501	27183	1059313	44828	111509	0	0	8326	394177	0	0
2024-07-15 14:54:47			0	42053	0	0	0	30888	29520	145505	27166	1059268	44840	111507	0	0	8325	394786	0	0
2024-07-15 14:55:47			0	42062	0	0	0	30903	29530	145537	27048	1059286	44842	111513	0	0	8325	394474	0	0
2024-07-15 14:56:47			0	42084	0	0	0	30883	29530	145522	27059	1059304	44830	111505	0	0	8327	393769	0	0
2024-07-15 14:57:47			0	42076	0	0	0	30877	29520	145413	27005	1059205	44839	111503	0	0	8326	394048	0	0
2024-07-15 14:58:47			0	42049	0	0	0	30862	29520	145533	27090	1059152	44839	111497	0	0	8325	394914	0	0
2024-07-15 14:59:47			0	42083	0	0	0	30867	29520	145462	26842	1059152	44828	111499	0	0	8327	393824	0	0
2024-07-15 15:00:47			0	42104	0	0	0	30857	29500	145478	27083	1059089	44837	111495	0	0	8328	393197	0	0
2024-07-15 15:01:47			0	42076	0	0	0	30857	29500	145453	26942	1059125	44838	111495	0	0	8327	394094	0	0
2024-07-15 15:02:47			0	42097	0	0	0	30851	29500	145526	27001	1059170	44848	111493	0	0	8328	393421	0	0
2024-07-15 15:03:47			0	42094	0	0	0	30862	29510	145370	26885	1059169	44850	111497	0	0	8328	393494	0	0
2024-07-15 15:04:47			0	42092	0	0	0	30867	29510	145442	27237	1059133	44828	111499	0	0	8327	393559	0	0
2024-07-15 15:05:47			0	42092	0	0	0	30862	29510	145446	27071	1059133	44850	111497	0	0	8327	393559	0	0
2024-07-15 15:06:47			0	42108	0	0	0	30859	29500	145402	27204	1059151	44838	111496	0	0	8328	393069	0	0
2024-07-15 15:07:47			0	42106	0	0	0	30851	29490	145458	27230	1059161	44837	111493	0	0	8328	393156	0	0
2024-07-15 15:08:47			0	42114	0	0	0	30851	29510	145386	27081	1059106	44839	111493	0	0	8329	392854	0	0
2024-07-15 15:09:47			0	42111	0	0	0	30849	29500	145402	27100	1059143	44848	111492	0	0	8329	392973	0	0
2024-07-15 15:10:47			0	42109	0	0	0	30867	29510	145334	27256	1059277	44862	111499	0	0	8328	393014	0	0
2024-07-15 15:11:47			0	42125	0	0	0	30883	29520	145354	26993	1059286	44850	111505	0	0	8329	392479	0	0
2024-07-15 15:12:47			0	42100	0	0	0	30888	29510	145254	26821	1059304	44850	111507	0	0	8327	393302	0	0
2024-07-15 15:13:47			0	42126	0	0	0	30893	29520	145450	26696	1059259	44839	111509	0	0	8329	392448	0	0
2024-07-15 15:14:47			0	42102	0	0	0	30885	29520	145402	26840	1059313	44839	111506	0	0	8328	393216	0	0
2024-07-15 15:15:47			0	42107	0	0	0	30877	29520	145354	27086	1059241	44840	111503	0	0	8328	393056	0	0
2024-07-15 15:16:47			0	42128	0	0	0	30877	29520	145314	26939	1059179	44850	111503	0	0	8329	392384	0	0
2024-07-15 15:17:47			0	42119	0	0	0	30867	29510	145386	27081	1059169	44839	111499	0	0	8329	392694	0	0
2024-07-15 15:18:47			0	42145	0	0	0	30859	29510	145286	26909	1059133	44850	111496	0	0	8331	391863	0	0
2024-07-15 15:19:47			0	42123	0	0	0	30857	29500	145262	27111	1059116	44826	111495	0	0	8329	392589	0	0
2024-07-15 15:20:47			0	42116	0	0	0	30859	29500	145242	27152	1059089	44826	111496	0	0	8329	392813	0	0
2024-07-15 15:21:47			0	42151	0	0	0	30851	29490	145166	27260	1059026	44837	111493	0	0	8331	391717	0	0
2024-07-15 15:22:47			0	42140	0	0	0	30846	29480	145326	27005	1059062	44836	111491	0	0	8330	392091	0	0
2024-07-15 15:23:47			0	42153	0	0	0	30844	29490	145394	27118	1059026	44837	111490	0	0	8331	391653	0	0
2024-07-15 15:24:47			0	42161	0	0	0	30854	29490	145222	27078	1059071	44837	111494	0	0	8331	391397	0	0
2024-07-15 15:25:47			0	42137	0	0	0	30859	29490	145194	26949	1059125	44837	111496	0	0	8330	392164	0	0
2024-07-15 15:26:47			0	42163	0	0	0	30867	29480	145314	27206	1059143	44836	111499	0	0	8331	391356	0	0
2024-07-15 15:27:47			0	42165	0	0	0	30875	29500	145190	27234	1059170	44848	111502	0	0	8331	391247	0	0
2024-07-15 15:28:47			0	42174	0	0	0	30883	29500	145178	27171	1059197	44837	111505	0	0	8332	390959	0	0
2024-07-15 15:29:47			0	42166	0	0	0	30877	29500	145314	27112	1059286	44849	111503	0	0	8331	391215	0	0
2024-07-15 15:30:47			0	42149	0	0	0	30898	29520	145270	27241	1059322	44851	111511	0	0	8330	391712	0	0
2024-07-15 15:31:47			0	42160	0	0	0	30898	29530	145206	27123	1059367	44864	111511	0	0	8331	391338	0	0
2024-07-15 15:32:47			0	42158	0	0	0	30901	29520	145122	26833	1059349	44851	111512	0	0	8331	391425	0	0
2024-07-15 15:33:47			0	42173	0	0	0	30922	29530	145138	26951	1059394	44853	111520	0	0	8331	390923	0	0
2024-07-15 15:34:47			0	42176	0	0	0	30927	29550	145158	26937	1059466	44864	111522	0	0	8331	390782	0	0
2024-07-15 15:35:47			0	42183	0	0	0	30929	29550	145118	27111	1059439	44853	111523	0	0	8332	390558	0	0
2024-07-15 15:36:47			0	42188	0	0	0	30945	29550	145086	27258	1059475	44865	111529	0	0	8332	390399	0	0
2024-07-15 15:37:47			0	42191	0	0	0	30958	29550	145106	27124	1059475	44865	111534	0	0	8332	390303	0	0
2024-07-15 15:38:47			0	42179	0	0	0	30955	29560	145146	27339	1059547	44866	111533	0	0	8331	390663	0	0
2024-07-15 15:39:47			0	42180	0	0	0	30966	29560	145114	27312	1059493	44866	111537	0	0	8331	390631	0	0
2024-07-15 15:40:47			0	42196	0	0	0	30963	29570	145106	27116	1059528	44855	111536	0	0	8332	390098	0	0
2024-07-15 15:41:47			0	42188	0	0	0	30963	29580	145102	27156	1059573	44857	111536	0	0	8332	390331	0	0
2024-07-15 15:42:47			0	42189	0	0	0	30950	29570	145118	27057	1059510	44845	111531	0	0	8332	390321	0	0
2024-07-15 15:43:47			0	42192	0	0	0	30937	29570	145130	27341	1059510	44845	111526	0	0	8332	390226	0	0
2024-07-15 15:44:47			0	42188	0	0	0	30932	29570	145086	26871	1059501	44833	111524	0	0	8332	390353	0	0
2024-07-15 15:45:47			0	42209	0	0	0	30919	29570	145118	27100	1059483	44856	111519	0	0	8334	389684	0	0
2024-07-15 15:46:47			0	42209	0	0	0	30924	29570	145026	27055	1059528	44844	111521	0	0	8333	389684	0	0
2024-07-15 15:47:47			0	42213	0	0	0	30927	29570	145090	27352	1059456	44856	111522	0	0	8334	389556	0	0
2024-07-15 15:48:47			0	42202	0	0	0	30929	29570	145034	27248	1059501	44844	111523	0	0	8333	389907	0	0
2024-07-15 15:49:47			0	42206	0	0	0	30924	29560	145094	26870	1059457	44844	111521	0	0	8333	389802	0	0
2024-07-15 15:50:47			0	42207	0	0	0	30927	29560	145046	26795	1059439	44844	111522	0	0	8333	389770	0	0
2024-07-15 15:51:47			0	42227	0	0	0	30932	29560	145070	26679	1059484	44855	111524	0	0	8334	389133	0	0
2024-07-15 15:52:47			0	42224	0	0	0	30935	29570	145066	26956	1059475	44855	111525	0	0	8334	389206	0	0
2024-07-15 15:53:47			0	42216	0	0	0	30929	29570	145082	26930	1059528	44833	111523	0	0	8334	389461	0	0
2024-07-15 15:54:47			0	42231	0	0	0	30935	29570	145014	26870	1059564	44856	111525	0	0	8335	388983	0	0
2024-07-15 15:55:47			0	42231	0	0	0	30950	29570	145054	26883	1059537	44845	111531	0	0	8334	388983	0	0
2024-07-15 15:56:47			0	42224	0	0	0	30942	29570	144942	27263	1059528	44855	111528	0	0	8334	389206	0	0
2024-07-15 15:57:47			0	42200	0	0	0	30945	29570	145118	26845	1059537	44845	111529	0	0	8333	389971	0	0
2024-07-15 15:58:47			0	42213	0	0	0	30948	29570	145014	26987	1059564	44856	111530	0	0	8333	389556	0	0
2024-07-15 15:59:47			0	42222	0	0	0	30953	29570	145026	26743	1059564	44845	111532	0	0	8334	389269	0	0
2024-07-15 16:00:47			0	42230	0	0	0	30950	29580	145126	26975	1059663	44879	111531	0	0	8334	388992	0	0
2024-07-15 16:01:47			0	42198	0	0	0	30963	29580	145006	27076	1059609	44857	111536	0	0	8332	390012	0	0
2024-07-15 16:02:47			0	42221	0	0	0	30966	29580	144970	26875	1059600	44868	111537	0	0	8333	389279	0	0
2024-07-15 16:03:47			0	42217	0	0	0	30976	29580	144994	26710	1059609	44857	111541	0	0	8333	389406	0	0
2024-07-15 16:04:47			0	42218	0	0	0	30958	29600	144934	27227	1059609	44870	111534	0	0	8333	389329	0	0
2024-07-15 16:05:47			0	42223	0	0	0	30953	29580	144950	26870	1059609	44857	111532	0	0	8334	389215	0	0
2024-07-15 16:06:47			0	42228	0	0	0	30942	29580	145026	26831	1059573	44845	111528	0	0	8334	389056	0	0
2024-07-15 16:07:47			0	42233	0	0	0	30935	29580	144934	27300	1059546	44834	111525	0	0	8335	388896	0	0
2024-07-15 16:08:47			0	42220	0	0	0	30932	29570	144954	26991	1059537	44833	111524	0	0	8334	389333	0	0
2024-07-15 16:09:47			0	42221	0	0	0	30929	29580	144950	26982	1059501	44834	111523	0	0	8334	389279	0	0
2024-07-15 16:10:47			0	42213	0	0	0	30916	29580	144954	27365	1059546	44845	111518	0	0	8334	389533	0	0
2024-07-15 16:11:47			0	42229	0	0	0	30937	29570	145026	27438	1059537	44867	111526	0	0	8334	389046	0	0
2024-07-15 16:12:47			0	42241	0	0	0	30935	29590	145026	27048	1059618	44868	111525	0	0	8335	388619	0	0
2024-07-15 16:13:47			0	42239	0	0	0	30950	29600	144966	27008	1059663	44836	111531	0	0	8335	388660	0	0
2024-07-15 16:14:47			0	42215	0	0	0	30961	29580	144994	27183	1059663	44857	111535	0	0	8333	389470	0	0
2024-07-15 16:15:47			0	42212	0	0	0	30981	29610	145014	27088	1059735	44871	111543	0	0	8333	389497	0	0
2024-07-15 16:16:47			0	42208	0	0	0	30999	29600	144954	26904	1059753	44871	111550	0	0	8332	389648	0	0
2024-07-15 16:17:47			0	42210	0	0	0	31002	29610	144954	27133	1059798	44860	111551	0	0	8332	389561	0	0
2024-07-15 16:18:47			0	42213	0	0	0	30992	29610	144970	26890	1059770	44860	111547	0	0	8333	389465	0	0
2024-07-15 16:19:47			0	42224	0	0	0	30997	29610	145002	27164	1059716	44882	111549	0	0	8333	389115	0	0
2024-07-15 16:20:47			0	42219	0	0	0	30999	29620	145022	27102	1059779	44872	111550	0	0	8333	389252	0	0
2024-07-15 16:21:47			0	42209	0	0	0	30986	29620	145066	27182	1059779	44861	111545	0	0	8333	389570	0	0
2024-07-15 16:22:47			0	42205	0	0	0	30989	29610	145010	27055	1059770	44860	111546	0	0	8332	389720	0	0
2024-07-15 16:23:47			0	42217	0	0	0	30976	29610	145058	27215	1059744	44860	111541	0	0	8333	389338	0	0
2024-07-15 16:24:47			0	42199	0	0	0	30963	29610	145070	27145	1059770	44860	111536	0	0	8332	389912	0	0
2024-07-15 16:25:47			0	42197	0	0	0	30981	29610	144982	26970	1059716	44860	111543	0	0	8332	389975	0	0
2024-07-15 16:26:47			0	42214	0	0	0	30986	29610	144998	27033	1059798	44848	111545	0	0	8333	389434	0	0
2024-07-15 16:27:47			0	42206	0	0	0	30992	29620	145122	27232	1059815	44873	111547	0	0	8332	389666	0	0
2024-07-15 16:28:47			0	42215	0	0	0	31007	29620	144998	27105	1059842	44873	111553	0	0	8333	389379	0	0
2024-07-15 16:29:47			0	42200	0	0	0	31028	29630	145014	27026	1059914	44862	111561	0	0	8331	389834	0	0
2024-07-15 16:30:47			0	42216	0	0	0	31025	29640	145010	27256	1059905	44875	111560	0	0	8332	389302	0	0
2024-07-15 16:31:47			0	42190	0	0	0	31036	29640	145010	27223	1059923	44863	111564	0	0	8331	390130	0	0
2024-07-15 16:32:47			0	42190	0	0	0	31018	29640	144966	26984	1059878	44875	111557	0	0	8331	390130	0	0
2024-07-15 16:33:47			0	42212	0	0	0	31007	29630	144986	26935	1059743	44850	111553	0	0	8332	389452	0	0
2024-07-15 16:34:47			0	42212	0	0	0	30992	29630	144998	26620	1059833	44850	111547	0	0	8333	389452	0	0
2024-07-15 16:35:47			0	42207	0	0	0	30976	29620	145050	27086	1059725	44849	111541	0	0	8333	389634	0	0
2024-07-15 16:36:47			0	42205	0	0	0	30968	29620	145042	27244	1059644	44861	111538	0	0	8333	389698	0	0
2024-07-15 16:37:47			0	42204	0	0	0	30953	29610	145042	26741	1059636	44848	111532	0	0	8333	389752	0	0
2024-07-15 16:38:47			0	42203	0	0	0	30932	29600	145050	27150	1059564	44837	111524	0	0	8333	389807	0	0
2024-07-15 16:39:47			0	42210	0	0	0	30911	29590	145018	26942	1059483	44845	111516	0	0	8334	389606	0	0
2024-07-15 16:40:47			0	42220	0	0	0	30914	29580	145058	26748	1059519	44845	111517	0	0	8334	389310	0	0
2024-07-15 16:41:47			0	42215	0	0	0	30919	29580	145078	26675	1059492	44857	111519	0	0	8334	389470	0	0
2024-07-15 16:42:47			0	42215	0	0	0	30903	29570	144982	27128	1059429	44833	111513	0	0	8334	389492	0	0
2024-07-15 16:43:47			0	42216	0	0	0	30885	29570	144926	26847	1059394	44833	111506	0	0	8334	389461	0	0
2024-07-15 16:44:47			0	42202	0	0	0	30870	29550	145018	26727	1059286	44832	111500	0	0	8334	389952	0	0
2024-07-15 16:45:47			0	42224	0	0	0	30857	29530	144966	27362	1059313	44820	111495	0	0	8335	389296	0	0
2024-07-15 16:46:47			0	42216	0	0	0	30862	29530	144994	26698	1059250	44852	111497	0	0	8335	389551	0	0
2024-07-15 16:47:47			0	42230	0	0	0	30867	29540	145010	26998	1059295	44842	111499	0	0	8335	389083	0	0
2024-07-15 16:48:47			0	42224	0	0	0	30877	29530	145002	27026	1059421	44875	111503	0	0	8335	389296	0	0
2024-07-15 16:49:47			0	42228	0	0	0	30903	29530	145022	26915	1059448	44864	111513	0	0	8335	389169	0	0
2024-07-15 16:50:47			0	42209	0	0	0	30940	29560	145082	27088	1059574	44888	111527	0	0	8333	389706	0	0
2024-07-15 16:51:47			0	42230	0	0	0	30948	29560	145042	26963	1059646	44877	111530	0	0	8334	389037	0	0
2024-07-15 16:52:47			0	42216	0	0	0	30976	29570	144974	27156	1059672	44878	111541	0	0	8333	389461	0	0
2024-07-15 16:53:47			0	42206	0	0	0	30994	29580	145030	27145	1059771	44890	111548	0	0	8332	389757	0	0
2024-07-15 16:54:47			0	42221	0	0	0	31010	29600	145162	27114	1059807	44882	111554	0	0	8333	389233	0	0
2024-07-15 16:55:47			0	42195	0	0	0	31028	29610	145062	27177	1059897	44882	111561	0	0	8331	390039	0	0
2024-07-15 16:56:47			0	42216	0	0	0	31033	29610	145126	27074	1059959	44871	111563	0	0	8332	389370	0	0
2024-07-15 16:57:47			0	42213	0	0	0	31046	29630	145018	26837	1060013	44884	111568	0	0	8332	389420	0	0
2024-07-15 16:58:47			0	42204	0	0	0	31041	29640	145046	26712	1060004	44885	111566	0	0	8331	389684	0	0
2024-07-15 16:59:47			0	42233	0	0	0	31046	29640	144946	26578	1060040	44875	111568	0	0	8333	388761	0	0
2024-07-15 17:00:47			0	42218	0	0	0	31051	29650	144958	26781	1060049	44875	111570	0	0	8332	389216	0	0
2024-07-15 17:01:47			0	42220	0	0	0	31023	29640	144974	26963	1059950	44851	111559	0	0	8333	389174	0	0
2024-07-15 17:02:47			0	42214	0	0	0	31002	29640	144938	26965	1059734	44840	111551	0	0	8333	389366	0	0
2024-07-15 17:03:47			0	42230	0	0	0	30968	29610	144866	26902	1059636	44848	111538	0	0	8334	388924	0	0
2024-07-15 17:04:47			0	42222	0	0	0	30955	29610	145034	26937	1059708	44848	111533	0	0	8334	389179	0	0
2024-07-15 17:05:47			0	42236	0	0	0	30963	29610	144962	26530	1059708	44871	111536	0	0	8335	388733	0	0
2024-07-15 17:06:47			0	42231	0	0	0	30961	29600	144954	27130	1059636	44847	111535	0	0	8334	388915	0	0
2024-07-15 17:07:47			0	42239	0	0	0	30942	29600	144994	26968	1059618	44860	111528	0	0	8335	388660	0	0
2024-07-15 17:08:47			0	42227	0	0	0	30932	29590	144974	26908	1059591	44845	111524	0	0	8334	389065	0	0
2024-07-15 17:09:47			0	42238	0	0	0	30919	29580	144958	27102	1059528	44857	111519	0	0	8335	388737	0	0
2024-07-15 17:10:47			0	42252	0	0	0	30916	29580	144870	26982	1059546	44868	111518	0	0	8336	388292	0	0
2024-07-15 17:11:47			0	42260	0	0	0	30914	29580	144834	26743	1059636	44857	111517	0	0	8337	388037	0	0
2024-07-15 17:12:47			0	42236	0	0	0	30914	29580	144902	27121	1059546	44845	111517	0	0	8335	388801	0	0
2024-07-15 17:13:47			0	42238	0	0	0	30914	29570	144830	27322	1059582	44877	111517	0	0	8335	388760	0	0
2024-07-15 17:14:47			0	42234	0	0	0	30927	29570	144954	27093	1059645	44867	111522	0	0	8335	388887	0	0
2024-07-15 17:15:47			0	42264	0	0	0	30937	29580	144898	27152	1059609	44857	111526	0	0	8336	387910	0	0
2024-07-15 17:16:47			0	42251	0	0	0	30948	29580	144854	27019	1059609	44845	111530	0	0	8336	388324	0	0
2024-07-15 17:17:47			0	42257	0	0	0	30929	29570	144846	27027	1059510	44833	111523	0	0	8336	388155	0	0
2024-07-15 17:18:47			0	42235	0	0	0	30890	29560	144866	27029	1059403	44844	111508	0	0	8335	388878	0	0
2024-07-15 17:19:47			0	42274	0	0	0	30862	29540	144838	26856	1059349	44831	111497	0	0	8338	387682	0	0
2024-07-15 17:20:47			0	42256	0	0	0	30849	29530	144902	26870	1059259	44820	111492	0	0	8337	388277	0	0
2024-07-15 17:21:47			0	42271	0	0	0	30815	29510	144898	26908	1059142	44817	111479	0	0	8339	387845	0	0
2024-07-15 17:22:47			0	42247	0	0	0	30789	29510	144910	26909	1059079	44817	111469	0	0	8338	388609	0	0
2024-07-15 17:23:47			0	42257	0	0	0	30766	29490	144834	26755	1059017	44826	111460	0	0	8339	388336	0	0
2024-07-15 17:24:47			0	42278	0	0	0	30758	29480	144830	27095	1058837	44813	111457	0	0	8340	387690	0	0
2024-07-15 17:25:47			0	42292	0	0	0	30732	29460	144862	26842	1058756	44812	111447	0	0	8341	387290	0	0
2024-07-15 17:26:47			0	42282	0	0	0	30719	29440	144818	26850	1058694	44810	111442	0	0	8341	387653	0	0
2024-07-15 17:27:47			0	42276	0	0	0	30711	29440	144930	27218	1058658	44821	111439	0	0	8340	387844	0	0
2024-07-15 17:28:47			0	42258	0	0	0	30698	29420	144786	27012	1058604	44820	111434	0	0	8339	388462	0	0
2024-07-15 17:29:47			0	42285	0	0	0	30714	29420	144826	27001	1058703	44830	111440	0	0	8341	387603	0	0
2024-07-15 17:30:47			0	42282	0	0	0	30724	29410	144926	27320	1058739	44840	111444	0	0	8340	387721	0	0
2024-07-15 17:31:47			0	42278	0	0	0	30740	29410	144918	26987	1058667	44840	111450	0	0	8340	387848	0	0
2024-07-15 17:32:47			0	42301	0	0	0	30745	29420	144838	26863	1058766	44841	111452	0	0	8341	387094	0	0
2024-07-15 17:33:47			0	42267	0	0	0	30750	29420	144890	26955	1058757	44841	111454	0	0	8339	388176	0	0
2024-07-15 17:34:47			0	42293	0	0	0	30763	29410	144802	27060	1058775	44840	111459	0	0	8340	387371	0	0
2024-07-15 17:35:47			0	42264	0	0	0	30779	29420	144914	27001	1058847	44841	111465	0	0	8338	388271	0	0
2024-07-15 17:36:47			0	42301	0	0	0	30779	29430	144982	26909	1058856	44853	111465	0	0	8341	387072	0	0
2024-07-15 17:37:47			0	42281	0	0	0	30789	29430	144938	26760	1058937	44841	111469	0	0	8339	387708	0	0
2024-07-15 17:38:47			0	42276	0	0	0	30789	29430	144874	26935	1058829	44853	111469	0	0	8339	387867	0	0
2024-07-15 17:39:47			0	42270	0	0	0	30794	29420	144846	26942	1058784	44852	111471	0	0	8339	388080	0	0
2024-07-15 17:40:47			0	42309	0	0	0	30776	29420	144866	27062	1058766	44853	111464	0	0	8341	386840	0	0
2024-07-15 17:41:47			0	42272	0	0	0	30755	29410	144882	26875	1058775	44829	111456	0	0	8339	388039	0	0
2024-07-15 17:42:47			0	42276	0	0	0	30766	29420	144830	26993	1058757	44841	111460	0	0	8339	387889	0	0
2024-07-15 17:43:47			0	42299	0	0	0	30763	29410	144910	26826	1058793	44851	111459	0	0	8341	387180	0	0
2024-07-15 17:44:47			0	42299	0	0	0	30761	29420	144902	27138	1058757	44852	111458	0	0	8341	387158	0	0
2024-07-15 17:45:47			0	42289	0	0	0	30771	29410	144886	26736	1058766	44840	111462	0	0	8340	387498	0	0
2024-07-15 17:46:47			0	42290	0	0	0	30763	29420	144938	26708	1058730	44852	111459	0	0	8340	387444	0	0
2024-07-15 17:47:47			0	42292	0	0	0	30773	29400	144846	26701	1058811	44851	111463	0	0	8340	387425	0	0
2024-07-15 17:48:47			0	42293	0	0	0	30779	29400	144854	27062	1058757	44851	111465	0	0	8340	387394	0	0
2024-07-15 17:49:47			0	42274	0	0	0	30786	29410	144914	26807	1058748	44851	111468	0	0	8339	387976	0	0
2024-07-15 17:50:47			0	42302	0	0	0	30776	29410	144886	26866	1058694	44840	111464	0	0	8341	387085	0	0
2024-07-15 17:51:47			0	42322	0	0	0	30771	29410	144910	26779	1058685	44840	111462	0	0	8342	386450	0	0
2024-07-15 17:52:47			0	42307	0	0	0	30761	29400	144930	26628	1058703	44840	111458	0	0	8341	386949	0	0
2024-07-15 17:53:47			0	42320	0	0	0	30750	29400	144934	26689	1058721	44850	111454	0	0	8342	386535	0	0
2024-07-15 17:54:47			0	42318	0	0	0	30755	29390	144966	27013	1058712	44861	111456	0	0	8342	386621	0	0
2024-07-15 17:55:47			0	42341	0	0	0	30763	29400	144854	26876	1058721	44850	111459	0	0	8343	385869	0	0
2024-07-15 17:56:47			0	42329	0	0	0	30773	29400	144886	27086	1058748	44862	111463	0	0	8342	386250	0	0
2024-07-15 17:57:47			0	42330	0	0	0	30794	29420	144802	26828	1058919	44875	111471	0	0	8342	386173	0	0
2024-07-15 17:58:47			0	42321	0	0	0	30802	29430	144738	26797	1058973	44875	111474	0	0	8341	386436	0	0
2024-07-15 17:59:47			0	42326	0	0	0	30807	29430	144822	26439	1058910	44864	111476	0	0	8342	386277	0	0
2024-07-15 18:00:47			0	42334	0	0	0	30820	29430	144734	26738	1058919	44853	111481	0	0	8342	386023	0	0
2024-07-15 18:01:47			0	42326	0	0	0	30823	29420	144794	26937	1058928	44853	111482	0	0	8341	386300	0	0
2024-07-15 18:02:47			0	42326	0	0	0	30825	29430	144846	26906	1058991	44853	111483	0	0	8341	386277	0	0
2024-07-15 18:03:47			0	42326	0	0	0	30820	29420	144870	26954	1058928	44853	111481	0	0	8341	386300	0	0
2024-07-15 18:04:47			0	42342	0	0	0	30828	29440	144790	26719	1058982	44865	111484	0	0	8342	385747	0	0
2024-07-15 18:05:47			0	42329	0	0	0	30838	29430	144814	26948	1058946	44853	111488	0	0	8341	386182	0	0
2024-07-15 18:06:47			0	42349	0	0	0	30838	29440	144738	27114	1058963	44855	111488	0	0	8343	385525	0	0
2024-07-15 18:07:47			0	42343	0	0	0	30838	29440	144786	26795	1058955	44854	111488	0	0	8342	385715	0	0
2024-07-15 18:08:47			0	42336	0	0	0	30838	29440	144798	26786	1058936	44833	111488	0	0	8342	385938	0	0
2024-07-15 18:09:47			0	42339	0	0	0	30831	29440	144702	27036	1058982	44854	111485	0	0	8342	385842	0	0
2024-07-15 18:10:47			0	42340	0	0	0	30828	29440	144738	26698	1058955	44842	111484	0	0	8342	385811	0	0
2024-07-15 18:11:47			0	42358	0	0	0	30823	29430	144714	27000	1058892	44841	111482	0	0	8343	385262	0	0
2024-07-15 18:12:47			0	42364	0	0	0	30815	29440	144710	27112	1058955	44865	111479	0	0	8344	385049	0	0
2024-07-15 18:13:47			0	42371	0	0	0	30831	29440	144726	26915	1058982	44832	111485	0	0	8344	384827	0	0
2024-07-15 18:14:47			0	42349	0	0	0	30828	29440	144650	26965	1058901	44865	111484	0	0	8343	385525	0	0
2024-07-15 18:15:47			0	42365	0	0	0	30831	29440	144646	26691	1058963	44855	111485	0	0	8344	385017	0	0
2024-07-15 18:16:47			0	42366	0	0	0	30828	29440	144562	27241	1058955	44865	111484	0	0	8344	384986	0	0
2024-07-15 18:17:47			0	42381	0	0	0	30841	29440	144638	27020	1059017	44843	111489	0	0	8344	384510	0	0
2024-07-15 18:18:47			0	42369	0	0	0	30841	29440	144558	27034	1059017	44866	111489	0	0	8344	384891	0	0
2024-07-15 18:19:47			0	42371	0	0	0	30841	29450	144594	27098	1059026	44866	111489	0	0	8344	384805	0	0
2024-07-15 18:20:47			0	42364	0	0	0	30833	29450	144638	26812	1058972	44866	111486	0	0	8344	385027	0	0
2024-07-15 18:21:47			0	42376	0	0	0	30836	29460	144550	26956	1059017	44844	111487	0	0	8344	384624	0	0
2024-07-15 18:22:47			0	42381	0	0	0	30841	29440	144574	26863	1058936	44855	111489	0	0	8344	384510	0	0
2024-07-15 18:23:47			0	42382	0	0	0	30838	29440	144566	26974	1059017	44843	111488	0	0	8344	384479	0	0
2024-07-15 18:24:47			0	42395	0	0	0	30836	29440	144638	27128	1059071	44843	111487	0	0	8345	384067	0	0
2024-07-15 18:25:47			0	42382	0	0	0	30844	29450	144490	27209	1059035	44855	111490	0	0	8344	384456	0	0
2024-07-15 18:26:47			0	42375	0	0	0	30844	29450	144546	27170	1059035	44866	111490	0	0	8344	384678	0	0
2024-07-15 18:27:47			0	42383	0	0	0	30841	29450	144562	27194	1059026	44855	111489	0	0	8344	384425	0	0
2024-07-15 18:28:47			0	42395	0	0	0	30836	29450	144418	27024	1058999	44855	111487	0	0	8345	384045	0	0
2024-07-15 18:29:47			0	42389	0	0	0	30823	29450	144574	27053	1059026	44843	111482	0	0	8345	384235	0	0
2024-07-15 18:30:47			0	42385	0	0	0	30820	29440	144474	27112	1058936	44843	111481	0	0	8345	384384	0	0
2024-07-15 18:31:47			0	42392	0	0	0	30810	29440	144462	26882	1058936	44833	111477	0	0	8345	384162	0	0
2024-07-15 18:32:47			0	42398	0	0	0	30794	29430	144494	26961	1058802	44841	111471	0	0	8346	383994	0	0
2024-07-15 18:33:47			0	42400	0	0	0	30789	29430	144474	27066	1058829	44841	111469	0	0	8346	383931	0	0
2024-07-15 18:34:47			0	42421	0	0	0	30771	29420	144326	27196	1058739	44841	111462	0	0	8348	383288	0	0
2024-07-15 18:35:47			0	42427	0	0	0	30768	29420	144402	26726	1058703	44830	111461	0	0	8348	383099	0	0
2024-07-15 18:36:47			0	42423	0	0	0	30763	29410	144494	26920	1058694	44840	111459	0	0	8348	383248	0	0
2024-07-15 18:37:47			0	42430	0	0	0	30753	29400	144394	27177	1058703	44851	111455	0	0	8349	383048	0	0
2024-07-15 18:38:47			0	42442	0	0	0	30761	29410	144490	26790	1058712	44851	111458	0	0	8349	382647	0	0
2024-07-15 18:39:47			0	42437	0	0	0	30766	29400	144438	27095	1058757	44863	111460	0	0	8349	382827	0	0
2024-07-15 18:40:47			0	42422	0	0	0	30776	29400	144326	26821	1058802	44850	111464	0	0	8348	383301	0	0
2024-07-15 18:41:47			0	42429	0	0	0	30781	29410	144354	26850	1058712	44851	111466	0	0	8348	383058	0	0
2024-07-15 18:42:47			0	42435	0	0	0	30776	29400	144358	27175	1058703	44840	111464	0	0	8348	382890	0	0
2024-07-15 18:43:47			0	42439	0	0	0	30781	29400	144366	27116	1058668	44850	111466	0	0	8349	382764	0	0
2024-07-15 18:44:47			0	42449	0	0	0	30761	29400	144318	27189	1058695	44862	111458	0	0	8349	382447	0	0
2024-07-15 18:45:47			0	42447	0	0	0	30781	29400	144370	26984	1058757	44863	111466	0	0	8349	382511	0	0
2024-07-15 18:46:47			0	42438	0	0	0	30789	29400	144346	27057	1058757	44863	111469	0	0	8348	382795	0	0
2024-07-15 18:47:47			0	42441	0	0	0	30797	29410	144382	26840	1058802	44851	111472	0	0	8348	382678	0	0
2024-07-15 18:48:47			0	42443	0	0	0	30799	29420	144450	27053	1058865	44852	111473	0	0	8349	382593	0	0
2024-07-15 18:49:47			0	42434	0	0	0	30789	29410	144394	26797	1058883	44840	111469	0	0	8348	382900	0	0
2024-07-15 18:50:47			0	42451	0	0	0	30805	29420	144474	27258	1058784	44852	111475	0	0	8349	382340	0	0
2024-07-15 18:51:47			0	42430	0	0	0	30818	29420	144374	27081	1058847	44864	111480	0	0	8347	383004	0	0
2024-07-15 18:52:47			0	42447	0	0	0	30833	29430	144374	26736	1058910	44875	111486	0	0	8348	382444	0	0
2024-07-15 18:53:47			0	42469	0	0	0	30846	29430	144298	26870	1059000	44875	111491	0	0	8349	381749	0	0
2024-07-15 18:54:47			0	42438	0	0	0	30854	29430	144386	27083	1059027	44864	111494	0	0	8347	382729	0	0
2024-07-15 18:55:47			0	42449	0	0	0	30870	29450	144310	26941	1059080	44855	111500	0	0	8348	382336	0	0
2024-07-15 18:56:47			0	42437	0	0	0	30870	29440	144310	27017	1059044	44877	111500	0	0	8347	382738	0	0
2024-07-15 18:57:47			0	42432	0	0	0	30862	29450	144410	26817	1059053	44866	111497	0	0	8347	382874	0	0
2024-07-15 18:58:47			0	42454	0	0	0	30857	29460	144394	27325	1059071	44867	111495	0	0	8348	382156	0	0
2024-07-15 18:59:47			0	42458	0	0	0	30825	29440	144298	27149	1058936	44843	111483	0	0	8349	382074	0	0
2024-07-15 19:00:47			0	42453	0	0	0	30807	29440	144314	27097	1058874	44842	111476	0	0	8349	382232	0	0
2024-07-15 19:01:47			0	42469	0	0	0	30802	29430	144346	27057	1058883	44864	111474	0	0	8350	381749	0	0
2024-07-15 19:02:47			0	42459	0	0	0	30802	29440	144314	27150	1058928	44854	111474	0	0	8350	382043	0	0
2024-07-15 19:03:47			0	42462	0	0	0	30815	29430	144306	27291	1058892	44841	111479	0	0	8349	381970	0	0
2024-07-15 19:04:47			0	42463	0	0	0	30805	29430	144302	27027	1058838	44864	111475	0	0	8350	381938	0	0
2024-07-15 19:05:47			0	42461	0	0	0	30786	29430	144290	27307	1058838	44853	111468	0	0	8350	382001	0	0
2024-07-15 19:06:47			0	42480	0	0	0	30779	29430	144294	27135	1058775	44853	111465	0	0	8351	381401	0	0
2024-07-15 19:07:47			0	42455	0	0	0	30755	29400	144322	27206	1058668	44828	111456	0	0	8350	382258	0	0
2024-07-15 19:08:47			0	42483	0	0	0	30732	29410	144342	26948	1058694	44840	111447	0	0	8352	381351	0	0
2024-07-15 19:09:47			0	42475	0	0	0	30742	29400	144302	27137	1058641	44850	111451	0	0	8351	381626	0	0
2024-07-15 19:10:47			0	42466	0	0	0	30737	29390	144342	27170	1058568	44838	111449	0	0	8351	381932	0	0
2024-07-15 19:11:47			0	42481	0	0	0	30735	29380	144326	27272	1058614	44837	111448	0	0	8352	381481	0	0
2024-07-15 19:12:47			0	42468	0	0	0	30724	29380	144338	27275	1058533	44826	111444	0	0	8351	381891	0	0
2024-07-15 19:13:47			0	42473	0	0	0	30727	29370	144298	26937	1058506	44859	111445	0	0	8351	381756	0	0
2024-07-15 19:14:47			0	42484	0	0	0	30719	29370	144322	27121	1058569	44847	111442	0	0	8352	381408	0	0
2024-07-15 19:15:47			0	42485	0	0	0	30719	29360	144326	27031	1058524	44835	111442	0	0	8352	381399	0	0
2024-07-15 19:16:47			0	42466	0	0	0	30719	29370	144402	27128	1058560	44847	111442	0	0	8351	381977	0	0
2024-07-15 19:17:47			0	42479	0	0	0	30724	29360	144410	26994	1058542	44858	111444	0	0	8352	381588	0	0
2024-07-15 19:18:47			0	42465	0	0	0	30729	29360	144418	27393	1058542	44846	111446	0	0	8351	382031	0	0
2024-07-15 19:19:47			0	42491	0	0	0	30729	29350	144266	27239	1058506	44857	111446	0	0	8352	381232	0	0
2024-07-15 19:20:47			0	42468	0	0	0	30729	29360	144330	27046	1058551	44846	111446	0	0	8351	381936	0	0
2024-07-15 19:21:47			0	42478	0	0	0	30729	29360	144362	26908	1058542	44846	111446	0	0	8352	381620	0	0
2024-07-15 19:22:47			0	42466	0	0	0	30724	29360	144370	27265	1058551	44858	111444	0	0	8351	381999	0	0
2024-07-15 19:23:47			0	42467	0	0	0	30724	29350	144318	26726	1058533	44845	111444	0	0	8351	381990	0	0
2024-07-15 19:24:47			0	42476	0	0	0	30729	29370	144358	26871	1058533	44847	111446	0	0	8351	381661	0	0
2024-07-15 19:25:47			0	42480	0	0	0	30722	29360	144374	27052	1058524	44846	111443	0	0	8352	381557	0	0
2024-07-15 19:26:47			0	42477	0	0	0	30732	29350	144574	27232	1058533	44868	111447	0	0	8351	381674	0	0
2024-07-15 19:27:47			0	42455	0	0	0	30727	29360	144374	27253	1058515	44824	111445	0	0	8350	382347	0	0
2024-07-15 19:28:47			0	42454	0	0	0	30719	29350	144434	27092	1058479	44857	111442	0	0	8350	382401	0	0
2024-07-15 19:29:47			0	42448	0	0	0	30711	29360	144438	26911	1058515	44835	111439	0	0	8350	382568	0	0
2024-07-15 19:30:47			0	42465	0	0	0	30714	29350	144462	26850	1058470	44844	111440	0	0	8351	382053	0	0
2024-07-15 19:31:47			0	42460	0	0	0	30719	29350	144426	27112	1058470	44856	111442	0	0	8351	382211	0	0
2024-07-15 19:32:47			0	42468	0	0	0	30722	29340	144458	27069	1058408	44856	111443	0	0	8351	381980	0	0
2024-07-15 19:33:47			0	42452	0	0	0	30716	29350	144474	27147	1058452	44857	111441	0	0	8350	382464	0	0
2024-07-15 19:34:47			0	42465	0	0	0	30714	29340	144534	27001	1058435	44856	111440	0	0	8351	382075	0	0
2024-07-15 19:35:47			0	42444	0	0	0	30719	29350	144490	27093	1058506	44857	111442	0	0	8350	382717	0	0
2024-07-15 19:36:47			0	42453	0	0	0	30714	29340	144458	26951	1058461	44856	111440	0	0	8350	382454	0	0
2024-07-15 19:37:47			0	42452	0	0	0	30714	29330	144502	27119	1058363	44866	111440	0	0	8350	382508	0	0
2024-07-15 19:38:47			0	42447	0	0	0	30703	29320	144446	27168	1058291	44854	111436	0	0	8350	382689	0	0
2024-07-15 19:39:47			0	42457	0	0	0	30693	29330	144474	26786	1058282	44833	111432	0	0	8351	382350	0	0
2024-07-15 19:40:47			0	42455	0	0	0	30680	29320	144466	27010	1058183	44832	111427	0	0	8351	382436	0	0
2024-07-15 19:41:47			0	42427	0	0	0	30683	29300	144530	26826	1058148	44840	111428	0	0	8349	383366	0	0
2024-07-15 19:42:47			0	42452	0	0	0	30670	29320	144606	26963	1058255	44841	111423	0	0	8351	382530	0	0
2024-07-15 19:43:47			0	42438	0	0	0	30670	29310	144462	26935	1058219	44853	111423	0	0	8350	382996	0	0
2024-07-15 19:44:47			0	42440	0	0	0	30670	29300	144550	26863	1058175	44840	111423	0	0	8350	382955	0	0
2024-07-15 19:45:47			0	42440	0	0	0	30659	29310	144534	27256	1058156	44840	111419	0	0	8350	382932	0	0
2024-07-15 19:46:47			0	42445	0	0	0	30646	29300	144518	27159	1058112	44851	111414	0	0	8351	382796	0	0
2024-07-15 19:47:47			0	42445	0	0	0	30641	29280	144534	27124	1057995	44838	111412	0	0	8351	382841	0	0
2024-07-15 19:48:47			0	42446	0	0	0	30631	29270	144466	26908	1057950	44837	111408	0	0	8351	382832	0	0
2024-07-15 19:49:47			0	42452	0	0	0	30628	29270	144558	26757	1058004	44837	111407	0	0	8351	382642	0	0
2024-07-15 19:50:47			0	42454	0	0	0	30625	29250	144522	26906	1057959	44825	111406	0	0	8351	382623	0	0
2024-07-15 19:51:47			0	42478	0	0	0	30623	29250	144538	26894	1058004	44835	111405	0	0	8353	381864	0	0
2024-07-15 19:52:47			0	42461	0	0	0	30644	29270	144510	26752	1058121	44860	111413	0	0	8352	382357	0	0
2024-07-15 19:53:47			0	42456	0	0	0	30638	29270	144534	27201	1058094	44849	111411	0	0	8351	382515	0	0
2024-07-15 19:54:47			0	42450	0	0	0	30646	29260	144538	26956	1058049	44859	111414	0	0	8351	382727	0	0
2024-07-15 19:55:47			0	42449	0	0	0	30644	29270	144526	27244	1058112	44848	111413	0	0	8351	382737	0	0
2024-07-15 19:56:47			0	42453	0	0	0	30649	29280	144578	27071	1058103	44849	111415	0	0	8351	382588	0	0
2024-07-15 19:57:47			0	42448	0	0	0	30657	29270	144558	26729	1058094	44849	111418	0	0	8351	382768	0	0
2024-07-15 19:58:47			0	42434	0	0	0	30651	29270	144574	26915	1058067	44849	111416	0	0	8350	383211	0	0
2024-07-15 19:59:47			0	42438	0	0	0	30657	29260	144582	27013	1058049	44836	111418	0	0	8350	383107	0	0
2024-07-15 20:00:47			0	42460	0	0	0	30651	29270	144598	27015	1058085	44859	111416	0	0	8351	382389	0	0
2024-07-15 20:01:47			0	42443	0	0	0	30657	29270	144474	27013	1058094	44860	111418	0	0	8350	382926	0	0
2024-07-15 20:02:47			0	42443	0	0	0	30662	29270	144454	26982	1058139	44871	111420	0	0	8350	382926	0	0
2024-07-15 20:03:47			0	42462	0	0	0	30670	29270	144470	26960	1058121	44849	111423	0	0	8351	382325	0	0
2024-07-15 20:04:47			0	42467	0	0	0	30659	29280	144482	26913	1058220	44861	111419	0	0	8352	382145	0	0
2024-07-15 20:05:47			0	42469	0	0	0	30670	29280	144446	27137	1058139	44861	111423	0	0	8352	382082	0	0
2024-07-15 20:06:47			0	42446	0	0	0	30659	29270	144542	26953	1058112	44848	111419	0	0	8350	382832	0	0
2024-07-15 20:07:47			0	42449	0	0	0	30664	29290	144522	27293	1058148	44861	111421	0	0	8351	382692	0	0
2024-07-15 20:08:47			0	42472	0	0	0	30672	29290	144502	27078	1058175	44873	111424	0	0	8352	381965	0	0
2024-07-15 20:09:47			0	42452	0	0	0	30672	29290	144478	26778	1058157	44851	111424	0	0	8351	382597	0	0
2024-07-15 20:10:47			0	42469	0	0	0	30683	29280	144494	26986	1058184	44860	111428	0	0	8351	382082	0	0
2024-07-15 20:11:47			0	42459	0	0	0	30670	29290	144382	26927	1058184	44851	111423	0	0	8351	382376	0	0
2024-07-15 20:12:47			0	42486	0	0	0	30664	29270	144390	27322	1058121	44838	111421	0	0	8353	381567	0	0
2024-07-15 20:13:47			0	42492	0	0	0	30646	29270	144406	27088	1058013	44860	111414	0	0	8353	381377	0	0
2024-07-15 20:14:47			0	42480	0	0	0	30638	29270	144374	27033	1057986	44849	111411	0	0	8353	381756	0	0
2024-07-15 20:15:47			0	42488	0	0	0	30631	29260	144334	27336	1057968	44859	111408	0	0	8353	381526	0	0
2024-07-15 20:16:47			0	42486	0	0	0	30633	29250	144390	26979	1057950	44835	111409	0	0	8353	381611	0	0
2024-07-15 20:17:47			0	42482	0	0	0	30636	29260	144430	27123	1057995	44836	111410	0	0	8353	381715	0	0
2024-07-15 20:18:47			0	42481	0	0	0	30644	29250	144394	26774	1057977	44858	111413	0	0	8353	381769	0	0
2024-07-15 20:19:47			0	42483	0	0	0	30649	29250	144442	27123	1058040	44847	111415	0	0	8353	381706	0	0
2024-07-15 20:20:47			0	42477	0	0	0	30641	29250	144330	27156	1057977	44846	111412	0	0	8353	381896	0	0
2024-07-15 20:21:47			0	42498	0	0	0	30633	29250	144398	26979	1057950	44858	111409	0	0	8354	381232	0	0
2024-07-15 20:22:47			0	42476	0	0	0	30625	29250	144310	26816	1058004	44846	111406	0	0	8353	381927	0	0
2024-07-15 20:23:47			0	42489	0	0	0	30628	29250	144390	27020	1057923	44858	111407	0	0	8353	381517	0	0
2024-07-15 20:24:47			0	42465	0	0	0	30623	29240	144306	26892	1057942	44858	111405	0	0	8352	382297	0	0
2024-07-15 20:25:47			0	42484	0	0	0	30618	29230	144386	26882	1057924	44857	111403	0	0	8353	381719	0	0
2024-07-15 20:26:47			0	42474	0	0	0	30620	29240	144406	26982	1057906	44857	111404	0	0	8353	382013	0	0
2024-07-15 20:27:47			0	42502	0	0	0	30618	29230	144378	27180	1057897	44823	111403	0	0	8354	381150	0	0
2024-07-15 20:28:47			0	42487	0	0	0	30612	29230	144438	26908	1057870	44857	111401	0	0	8354	381624	0	0
2024-07-15 20:29:47			0	42483	0	0	0	30615	29240	144370	27098	1057906	44857	111402	0	0	8353	381728	0	0
2024-07-15 20:30:47			0	42479	0	0	0	30615	29220	144394	26913	1057897	44843	111402	0	0	8353	381899	0	0
2024-07-15 20:31:47			0	42476	0	0	0	30623	29220	144390	27185	1057843	44843	111405	0	0	8353	381994	0	0
2024-07-15 20:32:47			0	42471	0	0	0	30605	29220	144466	26563	1057825	44844	111398	0	0	8353	382152	0	0
2024-07-15 20:33:47			0	42484	0	0	0	30612	29220	144462	27124	1057906	44844	111401	0	0	8353	381741	0	0
2024-07-15 20:34:47			0	42461	0	0	0	30610	29220	144438	26977	1057906	44856	111400	0	0	8352	382468	0	0
2024-07-15 20:35:47			0	42462	0	0	0	30607	29220	144458	26904	1057816	44866	111399	0	0	8352	382436	0	0
2024-07-15 20:36:47			0	42490	0	0	0	30612	29220	144438	26996	1057825	44856	111401	0	0	8354	381551	0	0
2024-07-15 20:37:47			0	42480	0	0	0	30607	29220	144462	27034	1057843	44843	111399	0	0	8353	381867	0	0
2024-07-15 20:38:47			0	42476	0	0	0	30612	29210	144458	26838	1057807	44855	111401	0	0	8353	382016	0	0
2024-07-15 20:39:47			0	42463	0	0	0	30607	29210	144506	27140	1057879	44842	111399	0	0	8352	382427	0	0
2024-07-15 20:40:47			0	42466	0	0	0	30610	29210	144390	27130	1057834	44843	111400	0	0	8352	382332	0	0
2024-07-15 20:41:47			0	42466	0	0	0	30605	29220	144506	27275	1057816	44843	111398	0	0	8352	382310	0	0
2024-07-15 20:42:47			0	42487	0	0	0	30610	29210	144550	27336	1057798	44854	111400	0	0	8353	381668	0	0
2024-07-15 20:43:47			0	42480	0	0	0	30597	29200	144410	27300	1057727	44841	111395	0	0	8353	381912	0	0
2024-07-15 20:44:47			0	42468	0	0	0	30602	29200	144490	27369	1057816	44841	111397	0	0	8352	382291	0	0
2024-07-15 20:45:47			0	42467	0	0	0	30592	29210	144466	27215	1057753	44855	111393	0	0	8353	382301	0	0
2024-07-15 20:46:47			0	42467	0	0	0	30589	29200	144410	27265	1057781	44853	111392	0	0	8353	382323	0	0
2024-07-15 20:47:47			0	42480	0	0	0	30594	29210	144462	27059	1057771	44842	111394	0	0	8353	381889	0	0
2024-07-15 20:48:47			0	42469	0	0	0	30589	29200	144570	27327	1057816	44841	111392	0	0	8353	382259	0	0
2024-07-15 20:49:47			0	42474	0	0	0	30594	29200	144450	27358	1057736	44864	111394	0	0	8353	382101	0	0
2024-07-15 20:50:47			0	42455	0	0	0	30597	29190	144494	27289	1057772	44864	111395	0	0	8352	382725	0	0
2024-07-15 20:51:47			0	42486	0	0	0	30599	29210	144530	27204	1057798	44854	111396	0	0	8354	381700	0	0
2024-07-15 20:52:47			0	42479	0	0	0	30589	29200	144546	27088	1057816	44853	111392	0	0	8353	381943	0	0
2024-07-15 20:53:47			0	42477	0	0	0	30594	29190	144622	27407	1057745	44841	111394	0	0	8353	382029	0	0
2024-07-15 20:54:47			0	42462	0	0	0	30594	29200	144530	27043	1057781	44841	111394	0	0	8352	382481	0	0
2024-07-15 20:55:47			0	42483	0	0	0	30602	29200	144546	27119	1057682	44841	111397	0	0	8353	381817	0	0
2024-07-15 20:56:47			0	42479	0	0	0	30594	29200	144414	27163	1057736	44841	111394	0	0	8353	381943	0	0
2024-07-15 20:57:47			0	42469	0	0	0	30599	29190	144554	27027	1057718	44853	111396	0	0	8353	382282	0	0
2024-07-15 20:58:47			0	42462	0	0	0	30589	29200	144474	27111	1057781	44853	111392	0	0	8352	382481	0	0
2024-07-15 20:59:47			0	42475	0	0	0	30589	29200	144510	26798	1057754	44864	111392	0	0	8353	382070	0	0
2024-07-15 21:00:47			0	42468	0	0	0	30592	29200	144470	27131	1057700	44841	111393	0	0	8353	382291	0	0
2024-07-15 21:01:47			0	42469	0	0	0	30589	29190	144522	26765	1057691	44841	111392	0	0	8353	382282	0	0
2024-07-15 21:02:47			0	42468	0	0	0	30584	29190	144454	26979	1057745	44853	111390	0	0	8353	382313	0	0
2024-07-15 21:03:47			0	42472	0	0	0	30579	29190	144362	27289	1057745	44841	111388	0	0	8353	382187	0	0
2024-07-15 21:04:47			0	42471	0	0	0	30589	29190	144470	27258	1057664	44864	111392	0	0	8353	382218	0	0
2024-07-15 21:05:47			0	42451	0	0	0	30576	29190	144462	26982	1057691	44864	111387	0	0	8352	382851	0	0
2024-07-15 21:06:47			0	42471	0	0	0	30589	29190	144482	27131	1057709	44840	111392	0	0	8353	382218	0	0
2024-07-15 21:07:47			0	42467	0	0	0	30581	29200	144486	27173	1057700	44864	111389	0	0	8353	382323	0	0
2024-07-15 21:08:47			0	42466	0	0	0	30586	29190	144530	27332	1057664	44853	111391	0	0	8353	382377	0	0
2024-07-15 21:09:47			0	42478	0	0	0	30584	29190	144510	27234	1057709	44852	111390	0	0	8353	381997	0	0
2024-07-15 21:10:47			0	42455	0	0	0	30586	29190	144526	27064	1057691	44853	111391	0	0	8352	382725	0	0
2024-07-15 21:11:47			0	42467	0	0	0	30576	29180	144554	27185	1057700	44851	111387	0	0	8353	382367	0	0
2024-07-15 21:12:47			0	42483	0	0	0	30576	29180	144502	26937	1057673	44839	111387	0	0	8354	381861	0	0
2024-07-15 21:13:47			0	42477	0	0	0	30579	29180	144518	27185	1057646	44839	111388	0	0	8353	382051	0	0
2024-07-15 21:14:47			0	42457	0	0	0	30563	29180	144430	27093	1057610	44839	111382	0	0	8352	382684	0	0
2024-07-15 21:15:47			0	42466	0	0	0	30571	29180	144482	26706	1057646	44851	111385	0	0	8353	382399	0	0
2024-07-15 21:16:47			0	42470	0	0	0	30563	29170	144366	27107	1057628	44839	111382	0	0	8353	382294	0	0
2024-07-15 21:17:47			0	42472	0	0	0	30561	29170	144334	27320	1057628	44851	111381	0	0	8353	382231	0	0
2024-07-15 21:18:47			0	42475	0	0	0	30563	29180	144398	26902	1057610	44839	111382	0	0	8353	382114	0	0
2024-07-15 21:19:47			0	42451	0	0	0	30566	29170	144462	26521	1057619	44850	111383	0	0	8352	382896	0	0
2024-07-15 21:20:47			0	42484	0	0	0	30550	29170	144526	27192	1057601	44839	111377	0	0	8354	381852	0	0
2024-07-15 21:21:47			0	42466	0	0	0	30555	29160	144498	26706	1057521	44849	111379	0	0	8353	382443	0	0
2024-07-15 21:22:47			0	42458	0	0	0	30550	29170	144542	27017	1057565	44850	111377	0	0	8353	382674	0	0
2024-07-15 21:23:47			0	42470	0	0	0	30548	29170	144422	26816	1057592	44850	111376	0	0	8353	382294	0	0
2024-07-15 21:24:47			0	42455	0	0	0	30550	29160	144534	26840	1057548	44849	111377	0	0	8352	382791	0	0
2024-07-15 21:25:47			0	42461	0	0	0	30548	29170	144482	26850	1057538	44850	111376	0	0	8353	382579	0	0
2024-07-15 21:26:47			0	42472	0	0	0	30537	29160	144502	26776	1057530	44849	111372	0	0	8354	382253	0	0
2024-07-15 21:27:47			0	42472	0	0	0	30537	29160	144542	26970	1057494	44837	111372	0	0	8354	382253	0	0
2024-07-15 21:28:47			0	42473	0	0	0	30540	29160	144538	26819	1057521	44849	111373	0	0	8354	382222	0	0
2024-07-15 21:29:47			0	42476	0	0	0	30537	29150	144502	27015	1057503	44859	111372	0	0	8354	382149	0	0
2024-07-15 21:30:47			0	42454	0	0	0	30545	29140	144482	26847	1057494	44858	111375	0	0	8352	382867	0	0
2024-07-15 21:31:47			0	42454	0	0	0	30532	29160	144474	27026	1057521	44860	111370	0	0	8353	382823	0	0
2024-07-15 21:32:47			0	42469	0	0	0	30524	29150	144446	26970	1057485	44837	111367	0	0	8354	382371	0	0
2024-07-15 21:33:47			0	42482	0	0	0	30527	29140	144494	26873	1057440	44858	111368	0	0	8354	381982	0	0
2024-07-15 21:34:47			0	42471	0	0	0	30529	29150	144466	27008	1057476	44848	111369	0	0	8354	382307	0	0
2024-07-15 21:35:47			0	42469	0	0	0	30524	29130	144618	26951	1057368	44824	111367	0	0	8354	382415	0	0
2024-07-15 21:36:47			0	42458	0	0	0	30511	29140	144522	27039	1057377	44824	111362	0	0	8353	382741	0	0
2024-07-15 21:37:47			0	42450	0	0	0	30503	29130	144498	26916	1057395	44835	111359	0	0	8353	383016	0	0
2024-07-15 21:38:47			0	42466	0	0	0	30498	29130	144518	27008	1057359	44846	111357	0	0	8354	382510	0	0
2024-07-15 21:39:47			0	42461	0	0	0	30503	29120	144522	26989	1057341	44844	111359	0	0	8353	382690	0	0
2024-07-15 21:40:47			0	42468	0	0	0	30503	29120	144614	26656	1057341	44844	111359	0	0	8354	382469	0	0
2024-07-15 21:41:47			0	42470	0	0	0	30501	29110	144562	27090	1057252	44844	111358	0	0	8354	382428	0	0
2024-07-15 21:42:47			0	42468	0	0	0	30501	29120	144518	27123	1057296	44834	111358	0	0	8354	382469	0	0
2024-07-15 21:43:47			0	42452	0	0	0	30496	29120	144494	26989	1057341	44844	111356	0	0	8353	382975	0	0
2024-07-15 21:44:47			0	42430	0	0	0	30503	29110	144494	27093	1057279	44844	111359	0	0	8352	383694	0	0
2024-07-15 21:45:47			0	42458	0	0	0	30498	29110	144530	27100	1057333	44856	111357	0	0	8353	382807	0	0
2024-07-15 21:46:47			0	42436	0	0	0	30496	29120	144586	27022	1057314	44856	111356	0	0	8352	383482	0	0
2024-07-15 21:47:47			0	42452	0	0	0	30498	29110	144510	27000	1057252	44833	111357	0	0	8353	382997	0	0
2024-07-15 21:48:47			0	42457	0	0	0	30498	29110	144706	26963	1057279	44844	111357	0	0	8353	382839	0	0
2024-07-15 21:49:47			0	42452	0	0	0	30488	29110	144518	26956	1057243	44856	111353	0	0	8353	382997	0	0
2024-07-15 21:50:47			0	42456	0	0	0	30493	29110	144670	26868	1057279	44833	111355	0	0	8353	382871	0	0
2024-07-15 21:51:47			0	42463	0	0	0	30493	29110	144582	27223	1057216	44844	111355	0	0	8354	382649	0	0
2024-07-15 21:52:47			0	42451	0	0	0	30483	29100	144610	27072	1057207	44855	111351	0	0	8353	383051	0	0
2024-07-15 21:53:47			0	42449	0	0	0	30485	29090	144614	27114	1057243	44854	111352	0	0	8353	383137	0	0
2024-07-15 21:54:47			0	42445	0	0	0	30475	29090	144546	26915	1057135	44832	111348	0	0	8353	383264	0	0
2024-07-15 21:55:47			0	42442	0	0	0	30470	29090	144558	26887	1057126	44842	111346	0	0	8353	383359	0	0
2024-07-15 21:56:47			0	42431	0	0	0	30462	29090	144574	26642	1057126	44842	111343	0	0	8352	383707	0	0
2024-07-15 21:57:47			0	42456	0	0	0	30454	29070	144626	26981	1057127	44839	111340	0	0	8354	382960	0	0
2024-07-15 21:58:47			0	42461	0	0	0	30446	29070	144494	27130	1057019	44862	111337	0	0	8354	382801	0	0
2024-07-15 21:59:47			0	42451	0	0	0	30444	29070	144670	27010	1057127	44839	111336	0	0	8354	383118	0	0
2024-07-15 22:00:47			0	42445	0	0	0	30444	29080	144590	26878	1057055	44840	111336	0	0	8353	383286	0	0
2024-07-15 22:01:47			0	42418	0	0	0	30438	29060	144606	26951	1057055	44829	111334	0	0	8352	384186	0	0
2024-07-15 22:02:47			0	42454	0	0	0	30433	29070	144590	26916	1057037	44839	111332	0	0	8354	383023	0	0
2024-07-15 22:03:47			0	42432	0	0	0	30436	29050	144562	27131	1057010	44827	111333	0	0	8353	383765	0	0
2024-07-15 22:04:47			0	42445	0	0	0	30436	29060	144586	26937	1057001	44851	111333	0	0	8353	383330	0	0
2024-07-15 22:05:47			0	42443	0	0	0	30436	29060	144614	26765	1056947	44839	111333	0	0	8353	383394	0	0
2024-07-15 22:06:47			0	42425	0	0	0	30418	29050	144622	26887	1056929	44827	111326	0	0	8352	383986	0	0
2024-07-15 22:07:47			0	42437	0	0	0	30425	29050	144546	26909	1056902	44837	111329	0	0	8353	383606	0	0
2024-07-15 22:08:47			0	42433	0	0	0	30420	29050	144642	26646	1056947	44837	111327	0	0	8353	383733	0	0
2024-07-15 22:09:47			0	42434	0	0	0	30420	29040	144678	26757	1056885	44837	111327	0	0	8353	383724	0	0
2024-07-15 22:10:47			0	42448	0	0	0	30418	29030	144730	26916	1056894	44835	111326	0	0	8354	383302	0	0
2024-07-15 22:11:47			0	42443	0	0	0	30420	29040	144742	26814	1056876	44859	111327	0	0	8353	383438	0	0
2024-07-15 22:12:47			0	42434	0	0	0	30415	29040	144654	26852	1056804	44837	111325	0	0	8353	383724	0	0
2024-07-15 22:13:47			0	42438	0	0	0	30415	29030	144658	27064	1056948	44847	111325	0	0	8353	383619	0	0
2024-07-15 22:14:47			0	42427	0	0	0	30412	29030	144774	26812	1056858	44835	111324	0	0	8353	383968	0	0
2024-07-15 22:15:47			0	42433	0	0	0	30410	29020	144686	27170	1056876	44835	111323	0	0	8353	383800	0	0
2024-07-15 22:16:47			0	42435	0	0	0	30415	29030	144642	27159	1056867	44835	111325	0	0	8353	383714	0	0
2024-07-15 22:17:47			0	42429	0	0	0	30410	29020	144674	27253	1056822	44825	111323	0	0	8353	383926	0	0
2024-07-15 22:18:47			0	42432	0	0	0	30412	29030	144690	27152	1056885	44847	111324	0	0	8353	383809	0	0
2024-07-15 22:19:47			0	42439	0	0	0	30412	29030	144754	26951	1056867	44835	111324	0	0	8353	383587	0	0
2024-07-15 22:20:47			0	42439	0	0	0	30407	29030	144694	26911	1056885	44835	111322	0	0	8353	383587	0	0
2024-07-15 22:21:47			0	42448	0	0	0	30415	29020	144670	27026	1056849	44847	111325	0	0	8354	383324	0	0
2024-07-15 22:22:47			0	42420	0	0	0	30415	29030	144778	27197	1056939	44835	111325	0	0	8352	384190	0	0
2024-07-15 22:23:47			0	42421	0	0	0	30410	29020	144770	26993	1056840	44857	111323	0	0	8352	384180	0	0
2024-07-15 22:24:47			0	42431	0	0	0	30415	29030	144726	26733	1056840	44847	111325	0	0	8353	383841	0	0
2024-07-15 22:25:47			0	42448	0	0	0	30415	29030	144782	26911	1056840	44825	111325	0	0	8354	383302	0	0
2024-07-15 22:26:47			0	42434	0	0	0	30415	29030	144678	26996	1056858	44835	111325	0	0	8353	383746	0	0
2024-07-15 22:27:47			0	42424	0	0	0	30415	29010	144770	26706	1056777	44833	111325	0	0	8352	384107	0	0
2024-07-15 22:28:47			0	42428	0	0	0	30418	29030	144726	26819	1056831	44847	111326	0	0	8353	383936	0	0
2024-07-15 22:29:47			0	42419	0	0	0	30407	29020	144774	26875	1056849	44847	111322	0	0	8352	384244	0	0
2024-07-15 22:30:47			0	42442	0	0	0	30412	29030	144798	26906	1056840	44847	111324	0	0	8353	383492	0	0
2024-07-15 22:31:47			0	42428	0	0	0	30415	29020	144754	26753	1056795	44847	111325	0	0	8353	383958	0	0
2024-07-15 22:32:47			0	42411	0	0	0	30407	29020	144730	27055	1056759	44846	111322	0	0	8352	384497	0	0
2024-07-15 22:33:47			0	42444	0	0	0	30402	29010	144794	26896	1056795	44844	111320	0	0	8354	383473	0	0
2024-07-15 22:34:47			0	42448	0	0	0	30394	29010	144754	26656	1056741	44822	111317	0	0	8354	383346	0	0
2024-07-15 22:35:47			0	42430	0	0	0	30394	29010	144810	27213	1056750	44833	111317	0	0	8353	383917	0	0
2024-07-15 22:36:47			0	42444	0	0	0	30389	29010	144874	26901	1056660	44833	111315	0	0	8354	383473	0	0
2024-07-15 22:37:47			0	42429	0	0	0	30389	29000	144770	27008	1056705	44833	111315	0	0	8353	383971	0	0
2024-07-15 22:38:47			0	42431	0	0	0	30389	29000	144810	26609	1056705	44833	111315	0	0	8353	383908	0	0
2024-07-15 22:39:47			0	42429	0	0	0	30386	28990	144822	26642	1056688	44843	111314	0	0	8353	383993	0	0
2024-07-15 22:40:47			0	42438	0	0	0	30392	29000	144742	26991	1056670	44844	111316	0	0	8353	383686	0	0
2024-07-15 22:41:47			0	42450	0	0	0	30384	28990	144714	26863	1056661	44833	111313	0	0	8354	383328	0	0
2024-07-15 22:42:47			0	42430	0	0	0	30376	28990	144746	26861	1056742	44833	111310	0	0	8353	383962	0	0
2024-07-15 22:43:47			0	42441	0	0	0	30376	28990	144834	27128	1056679	44832	111310	0	0	8354	383613	0	0
2024-07-15 22:44:47			0	42420	0	0	0	30373	28980	144854	26733	1056589	44832	111309	0	0	8353	384301	0	0
2024-07-15 22:45:47			0	42453	0	0	0	30368	28980	144782	27237	1056643	44842	111307	0	0	8355	383255	0	0
2024-07-15 22:46:47			0	42433	0	0	0	30366	28990	144750	26939	1056652	44832	111306	0	0	8354	383866	0	0
2024-07-15 22:47:47			0	42429	0	0	0	30363	28980	144842	27492	1056589	44842	111305	0	0	8353	384015	0	0
2024-07-15 22:48:47			0	42423	0	0	0	30358	28970	144946	26977	1056571	44841	111303	0	0	8353	384228	0	0
2024-07-15 22:49:47			0	42422	0	0	0	30358	28970	144778	26885	1056571	44841	111303	0	0	8353	384260	0	0
2024-07-15 22:50:47			0	42429	0	0	0	30355	28980	144802	27105	1056589	44832	111302	0	0	8353	384015	0	0
2024-07-15 22:51:47			0	42433	0	0	0	30361	28980	144802	26701	1056616	44854	111304	0	0	8354	383889	0	0
2024-07-15 22:52:47			0	42442	0	0	0	30358	28970	144738	26628	1056598	44831	111303	0	0	8354	383626	0	0
2024-07-15 22:53:47			0	42442	0	0	0	30355	28970	144806	26779	1056598	44831	111302	0	0	8354	383626	0	0
2024-07-15 22:54:47			0	42433	0	0	0	30358	28960	144794	26871	1056553	44852	111303	0	0	8354	383933	0	0
2024-07-15 22:55:47			0	42436	0	0	0	30361	28970	144826	26762	1056535	44830	111304	0	0	8354	383816	0	0
2024-07-15 22:56:47			0	42426	0	0	0	30355	28950	144778	26977	1056464	44830	111302	0	0	8353	384178	0	0
2024-07-15 22:57:47			0	42433	0	0	0	30342	28960	144894	26965	1056473	44830	111297	0	0	8354	383933	0	0
2024-07-15 22:58:47			0	42441	0	0	0	30340	28950	144806	26880	1056464	44830	111296	0	0	8354	383702	0	0
2024-07-15 22:59:47			0	42448	0	0	0	30332	28950	144858	26814	1056437	44818	111293	0	0	8355	383480	0	0
2024-07-15 23:00:47			0	42408	0	0	0	30335	28950	144842	26866	1056437	44818	111294	0	0	8352	384749	0	0
2024-07-15 23:01:47			0	42446	0	0	0	30332	28950	144898	26984	1056428	44829	111293	0	0	8355	383543	0	0
2024-07-15 23:02:47			0	42448	0	0	0	30324	28930	144838	26748	1056347	44827	111290	0	0	8355	383524	0	0
2024-07-15 23:03:47			0	42436	0	0	0	30329	28930	144914	27152	1056374	44849	111292	0	0	8354	383905	0	0
2024-07-15 23:04:47			0	42435	0	0	0	30329	28950	144890	27137	1056401	44839	111292	0	0	8354	383892	0	0
2024-07-15 23:05:47			0	42449	0	0	0	30322	28930	144898	26968	1056401	44827	111289	0	0	8355	383493	0	0
2024-07-15 23:06:47			0	42448	0	0	0	30324	28920	144798	27012	1056410	44826	111290	0	0	8355	383547	0	0
2024-07-15 23:07:47			0	42452	0	0	0	30327	28930	144750	27170	1056374	44827	111291	0	0	8355	383398	0	0
2024-07-15 23:08:47			0	42433	0	0	0	30316	28930	144894	27296	1056419	44837	111287	0	0	8354	384000	0	0
2024-07-15 23:09:47			0	42446	0	0	0	30319	28930	144770	27235	1056419	44827	111288	0	0	8355	383588	0	0
2024-07-15 23:10:47			0	42448	0	0	0	30316	28920	144870	27085	1056356	44836	111287	0	0	8355	383547	0	0
2024-07-15 23:11:47			0	42449	0	0	0	30319	28920	144814	26889	1056375	44835	111288	0	0	8355	383515	0	0
2024-07-15 23:12:47			0	42454	0	0	0	30311	28920	144810	27208	1056402	44825	111285	0	0	8355	383357	0	0
2024-07-15 23:13:47			0	42437	0	0	0	30316	28910	144890	27090	1056330	44835	111287	0	0	8354	383918	0	0
2024-07-15 23:14:47			0	42433	0	0	0	30311	28910	144886	27041	1056258	44825	111285	0	0	8354	384045	0	0
2024-07-15 23:15:47			0	42448	0	0	0	30303	28910	144866	26866	1056285	44847	111282	0	0	8355	383569	0	0
2024-07-15 23:16:47			0	42442	0	0	0	30301	28920	144874	27118	1056321	44835	111281	0	0	8355	383737	0	0
2024-07-15 23:17:47			0	42446	0	0	0	30296	28900	144862	26755	1056240	44834	111279	0	0	8355	383655	0	0
2024-07-15 23:18:47			0	42431	0	0	0	30290	28910	144766	26994	1056330	44825	111277	0	0	8354	384108	0	0
2024-07-15 23:19:47			0	42443	0	0	0	30290	28900	144830	27293	1056204	44823	111277	0	0	8355	383750	0	0
2024-07-15 23:20:47			0	42440	0	0	0	30288	28900	144790	26691	1056285	44823	111276	0	0	8355	383845	0	0
2024-07-15 23:21:47			0	42438	0	0	0	30290	28890	144786	26859	1056249	44833	111277	0	0	8355	383931	0	0
2024-07-15 23:22:47			0	42467	0	0	0	30285	28900	144842	26849	1056231	44833	111275	0	0	8357	382989	0	0
2024-07-15 23:23:47			0	42456	0	0	0	30280	28900	144910	27303	1056177	44823	111273	0	0	8356	383337	0	0
2024-07-15 23:24:47			0	42463	0	0	0	30288	28890	144826	26953	1056168	44833	111276	0	0	8356	383138	0	0
2024-07-15 23:25:47			0	42453	0	0	0	30272	28890	144794	26823	1056159	44833	111270	0	0	8356	383455	0	0
2024-07-15 23:26:47			0	42458	0	0	0	30272	28890	144838	26922	1056186	44833	111270	0	0	8356	383296	0	0
2024-07-15 23:27:47			0	42475	0	0	0	30259	28880	144914	26948	1056150	44811	111265	0	0	8357	382780	0	0
2024-07-15 23:28:47			0	42466	0	0	0	30270	28880	144946	26960	1056115	44821	111269	0	0	8357	383065	0	0
2024-07-15 23:29:47			0	42458	0	0	0	30264	28880	144742	27088	1056141	44810	111267	0	0	8356	383319	0	0
2024-07-15 23:30:47			0	42464	0	0	0	30262	28880	144806	27367	1056088	44833	111266	0	0	8357	383128	0	0
2024-07-15 23:31:47			0	42465	0	0	0	30262	28870	144794	27059	1056123	44832	111266	0	0	8357	383119	0	0
2024-07-15 23:32:47			0	42465	0	0	0	30259	28870	144806	26970	1056042	44832	111265	0	0	8357	383119	0	0
2024-07-15 23:33:47			0	42466	0	0	0	30262	28860	144682	26845	1056061	44832	111266	0	0	8357	383110	0	0
2024-07-15 23:34:47			0	42464	0	0	0	30246	28880	144786	27102	1056061	44833	111260	0	0	8357	383128	0	0
2024-07-15 23:35:47			0	42480	0	0	0	30241	28860	144750	27008	1055998	44841	111258	0	0	8358	382666	0	0
2024-07-15 23:36:47			0	42476	0	0	0	30238	28850	144710	26946	1056007	44830	111257	0	0	8358	382815	0	0
2024-07-15 23:37:47			0	42470	0	0	0	30241	28850	144818	27170	1055962	44830	111258	0	0	8357	383005	0	0
2024-07-15 23:38:47			0	42482	0	0	0	30228	28850	144750	26826	1055980	44830	111253	0	0	8358	382625	0	0
2024-07-15 23:39:47			0	42457	0	0	0	30233	28850	144802	26864	1055989	44830	111255	0	0	8357	383417	0	0
2024-07-15 23:40:47			0	42482	0	0	0	30225	28850	144718	26916	1055962	44818	111252	0	0	8358	382625	0	0
2024-07-15 23:41:47			0	42485	0	0	0	30218	28840	144734	27131	1055917	44818	111249	0	0	8358	382552	0	0
2024-07-15 23:42:47			0	42467	0	0	0	30215	28850	144718	26786	1055926	44830	111248	0	0	8357	383100	0	0
2024-07-15 23:43:47			0	42476	0	0	0	30220	28840	144670	26937	1055935	44829	111250	0	0	8358	382837	0	0
2024-07-15 23:44:47			0	42496	0	0	0	30210	28840	144706	26715	1055881	44829	111246	0	0	8359	382204	0	0
2024-07-15 23:45:47			0	42489	0	0	0	30212	28840	144802	27017	1055935	44829	111247	0	0	8359	382425	0	0
2024-07-15 23:46:47			0	42471	0	0	0	30220	28840	144738	26925	1055908	44817	111250	0	0	8358	382995	0	0
2024-07-15 23:47:47			0	42470	0	0	0	30215	28830	144866	26805	1055900	44828	111248	0	0	8358	383049	0	0
2024-07-15 23:48:47			0	42476	0	0	0	30205	28840	144746	27003	1055908	44829	111244	0	0	8358	382837	0	0
2024-07-15 23:49:47			0	42483	0	0	0	30215	28830	144754	26949	1055873	44828	111248	0	0	8358	382637	0	0
2024-07-15 23:50:47			0	42482	0	0	0	30218	28840	144746	26694	1055908	44829	111249	0	0	8358	382647	0	0
2024-07-15 23:51:47			0	42483	0	0	0	30218	28830	144742	26934	1055873	44838	111249	0	0	8358	382637	0	0
2024-07-15 23:52:47			0	42476	0	0	0	30210	28830	144814	26790	1055900	44838	111246	0	0	8358	382859	0	0
2024-07-15 23:53:47			0	42490	0	0	0	30207	28830	144802	26835	1055810	44805	111245	0	0	8359	382416	0	0
2024-07-15 23:54:47			0	42477	0	0	0	30210	28830	144822	26927	1055810	44828	111246	0	0	8358	382827	0	0
2024-07-15 23:55:47			0	42490	0	0	0	30205	28820	144838	26594	1055801	44816	111244	0	0	8359	382438	0	0
2024-07-15 23:56:47			0	42475	0	0	0	30202	28820	144866	26613	1055846	44837	111243	0	0	8358	382913	0	0
2024-07-15 23:57:47			0	42484	0	0	0	30192	28820	144770	27144	1055738	44815	111239	0	0	8359	382628	0	0
2024-07-15 23:58:47			0	42505	0	0	0	30186	28810	144774	26783	1055756	44826	111237	0	0	8360	381985	0	0
2024-07-15 23:59:47			0	42488	0	0	0	30194	28810	144834	26824	1055756	44814	111240	0	0	8359	382523	0	0
2024-07-16 00:00:47			0	42458	0	0	0	30189	28810	144794	27149	1055801	44826	111238	0	0	8357	383474	0	0
2024-07-16 00:01:47			0	42496	0	0	0	30194	28800	144802	27192	1055738	44825	111240	0	0	8359	382292	0	0
2024-07-16 00:02:47			0	42499	0	0	0	30186	28810	144810	27194	1055720	44836	111237	0	0	8360	382175	0	0
2024-07-16 00:03:47			0	42487	0	0	0	30192	28800	144762	27135	1055685	44813	111239	0	0	8359	382577	0	0
2024-07-16 00:04:47			0	42497	0	0	0	30181	28810	144794	27097	1055693	44814	111235	0	0	8360	382238	0	0
2024-07-16 00:05:47			0	42479	0	0	0	30179	28790	144838	27114	1055721	44824	111234	0	0	8359	382853	0	0
2024-07-16 00:06:47			0	42488	0	0	0	30181	28800	144826	27111	1055685	44835	111235	0	0	8359	382546	0	0
2024-07-16 00:07:47			0	42505	0	0	0	30179	28790	144766	27135	1055694	44834	111234	0	0	8360	382029	0	0
2024-07-16 00:08:47			0	42508	0	0	0	30176	28790	144838	27081	1055658	44824	111233	0	0	8360	381935	0	0
2024-07-16 00:09:47			0	42486	0	0	0	30174	28790	144718	26998	1055685	44812	111232	0	0	8359	382631	0	0
2024-07-16 00:10:47			0	42507	0	0	0	30168	28790	144746	27237	1055667	44824	111230	0	0	8360	381966	0	0
2024-07-16 00:11:47			0	42497	0	0	0	30166	28780	144678	26800	1055676	44811	111229	0	0	8360	382305	0	0
2024-07-16 00:12:47			0	42504	0	0	0	30176	28780	144690	26935	1055640	44833	111233	0	0	8360	382083	0	0
2024-07-16 00:13:47			0	42506	0	0	0	30179	28790	144782	27189	1055685	44824	111234	0	0	8360	381998	0	0
2024-07-16 00:14:47			0	42501	0	0	0	30163	28780	144646	27095	1055640	44845	111228	0	0	8360	382178	0	0
2024-07-16 00:15:47			0	42500	0	0	0	30163	28780	144762	27173	1055595	44833	111228	0	0	8360	382210	0	0
2024-07-16 00:16:47			0	42516	0	0	0	30166	28780	144610	27013	1055613	44823	111229	0	0	8361	381703	0	0
2024-07-16 00:17:47			0	42494	0	0	0	30161	28780	144634	26863	1055622	44823	111227	0	0	8360	382400	0	0
2024-07-16 00:18:47			0	42492	0	0	0	30166	28770	144714	27116	1055604	44822	111229	0	0	8359	382485	0	0
2024-07-16 00:19:47			0	42498	0	0	0	30166	28780	144710	26871	1055595	44833	111229	0	0	8360	382273	0	0
2024-07-16 00:20:47			0	42497	0	0	0	30155	28780	144774	27350	1055586	44823	111225	0	0	8360	382305	0	0
2024-07-16 00:21:47			0	42503	0	0	0	30161	28770	144754	27114	1055550	44822	111227	0	0	8360	382137	0	0
2024-07-16 00:22:47			0	42519	0	0	0	30158	28770	144718	27255	1055595	44821	111226	0	0	8361	381631	0	0
2024-07-16 00:23:47			0	42501	0	0	0	30153	28770	144766	27119	1055541	44821	111224	0	0	8360	382200	0	0
2024-07-16 00:24:47			0	42501	0	0	0	30148	28770	144710	26870	1055514	44821	111222	0	0	8360	382200	0	0
2024-07-16 00:25:47			0	42519	0	0	0	30150	28760	144674	26854	1055523	44821	111223	0	0	8361	381653	0	0
2024-07-16 00:26:47			0	42521	0	0	0	30137	28770	144666	27100	1055514	44810	111218	0	0	8362	381567	0	0
2024-07-16 00:27:47			0	42516	0	0	0	30142	28760	144646	27279	1055532	44821	111220	0	0	8361	381748	0	0
2024-07-16 00:28:47			0	42505	0	0	0	30137	28760	144638	27046	1055505	44821	111218	0	0	8361	382096	0	0
2024-07-16 00:29:47			0	42496	0	0	0	30135	28760	144742	26989	1055470	44821	111217	0	0	8360	382381	0	0
2024-07-16 00:30:47			0	42524	0	0	0	30132	28750	144758	27222	1055452	44808	111216	0	0	8362	381517	0	0
2024-07-16 00:31:47			0	42533	0	0	0	30129	28750	144790	26901	1055452	44819	111215	0	0	8362	381232	0	0
2024-07-16 00:32:47			0	42531	0	0	0	30127	28740	144718	27173	1055470	44830	111214	0	0	8362	381317	0	0
2024-07-16 00:33:47			0	42513	0	0	0	30116	28750	144718	27216	1055533	44808	111210	0	0	8361	381865	0	0
2024-07-16 00:34:47			0	42510	0	0	0	30124	28740	144734	26915	1055416	44830	111213	0	0	8361	381982	0	0
2024-07-16 00:35:47			0	42541	0	0	0	30114	28740	144746	26790	1055407	44818	111209	0	0	8363	381001	0	0
2024-07-16 00:36:47			0	42535	0	0	0	30114	28730	144742	27026	1055344	44818	111209	0	0	8363	381213	0	0
2024-07-16 00:37:47			0	42532	0	0	0	30114	28740	144822	27270	1055380	44829	111209	0	0	8363	381286	0	0
2024-07-16 00:38:47			0	42522	0	0	0	30116	28730	144766	27008	1055335	44817	111210	0	0	8362	381624	0	0
2024-07-16 00:39:47			0	42525	0	0	0	30106	28730	144638	26842	1055335	44817	111206	0	0	8362	381529	0	0
2024-07-16 00:40:47			0	42543	0	0	0	30101	28730	144746	27203	1055290	44818	111204	0	0	8363	380960	0	0
2024-07-16 00:41:47			0	42531	0	0	0	30096	28720	144774	27083	1055300	44806	111202	0	0	8363	381361	0	0
2024-07-16 00:42:47			0	42520	0	0	0	30090	28710	144794	27033	1055246	44804	111200	0	0	8362	381732	0	0
2024-07-16 00:43:47			0	42542	0	0	0	30093	28710	144690	27287	1055255	44805	111201	0	0	8363	381035	0	0
2024-07-16 00:44:47			0	42545	0	0	0	30085	28710	144686	27140	1055192	44815	111198	0	0	8364	380941	0	0
2024-07-16 00:45:47			0	42533	0	0	0	30083	28710	144774	26994	1055192	44827	111197	0	0	8363	381320	0	0
2024-07-16 00:46:47			0	42550	0	0	0	30077	28710	144742	26989	1055219	44815	111195	0	0	8364	380782	0	0
2024-07-16 00:47:47			0	42522	0	0	0	30077	28700	144718	27076	1055201	44814	111195	0	0	8362	381690	0	0
2024-07-16 00:48:47			0	42531	0	0	0	30072	28700	144882	27015	1055183	44804	111193	0	0	8363	381406	0	0
2024-07-16 00:49:47			0	42523	0	0	0	30080	28690	144894	26880	1055130	44802	111196	0	0	8362	381681	0	0
2024-07-16 00:50:47			0	42539	0	0	0	30064	28700	144838	26991	1055174	44814	111190	0	0	8364	381152	0	0
2024-07-16 00:51:47			0	42544	0	0	0	30080	28700	144822	26994	1055121	44803	111196	0	0	8364	380994	0	0
2024-07-16 00:52:47			0	42531	0	0	0	30062	28680	144858	26715	1055121	44825	111189	0	0	8363	381450	0	0
2024-07-16 00:53:47			0	42542	0	0	0	30059	28690	144866	27085	1055103	44825	111188	0	0	8364	381080	0	0
2024-07-16 00:54:47			0	42542	0	0	0	30054	28680	144690	27137	1055094	44813	111186	0	0	8364	381102	0	0
2024-07-16 00:55:47			0	42538	0	0	0	30054	28680	144866	27029	1055112	44812	111186	0	0	8364	381228	0	0
2024-07-16 00:56:47			0	42552	0	0	0	30046	28680	144810	27010	1055058	44812	111183	0	0	8365	380786	0	0
2024-07-16 00:57:47			0	42534	0	0	0	30044	28670	144794	27263	1055049	44823	111182	0	0	8364	381377	0	0
2024-07-16 00:58:47			0	42547	0	0	0	30044	28660	144822	27104	1054951	44799	111182	0	0	8364	380988	0	0
2024-07-16 00:59:47			0	42536	0	0	0	30033	28650	144834	27284	1054969	44810	111178	0	0	8364	381358	0	0
2024-07-16 01:00:47			0	42540	0	0	0	30044	28650	144810	27223	1054969	44810	111182	0	0	8364	381231	0	0
2024-07-16 01:01:47			0	42549	0	0	0	30038	28650	144886	26823	1054933	44798	111180	0	0	8364	380946	0	0
2024-07-16 01:02:47			0	42540	0	0	0	30025	28640	144842	27031	1054870	44809	111175	0	0	8364	381253	0	0
2024-07-16 01:03:47			0	42530	0	0	0	30031	28640	144786	26944	1054870	44798	111177	0	0	8363	381570	0	0
2024-07-16 01:04:47			0	42551	0	0	0	30015	28640	144774	27116	1054897	44798	111171	0	0	8365	380905	0	0
2024-07-16 01:05:47			0	42545	0	0	0	30023	28640	144850	27128	1054870	44821	111174	0	0	8364	381095	0	0
2024-07-16 01:06:47			0	42536	0	0	0	30028	28630	144830	26916	1054843	44807	111176	0	0	8364	381402	0	0
2024-07-16 01:07:47			0	42562	0	0	0	30023	28640	144882	27010	1054897	44821	111174	0	0	8365	380557	0	0
2024-07-16 01:08:47			0	42556	0	0	0	30012	28620	144890	27161	1054852	44807	111170	0	0	8365	380791	0	0
2024-07-16 01:09:47			0	42573	0	0	0	30002	28630	144826	27048	1054816	44807	111166	0	0	8366	380232	0	0
2024-07-16 01:10:47			0	42549	0	0	0	30005	28620	144778	26998	1054861	44807	111167	0	0	8365	381013	0	0
2024-07-16 01:11:47			0	42552	0	0	0	30002	28630	144830	27171	1054843	44807	111166	0	0	8365	380896	0	0
2024-07-16 01:12:47			0	42557	0	0	0	29997	28610	144814	27090	1054817	44807	111164	0	0	8365	380782	0	0
2024-07-16 01:13:47			0	42559	0	0	0	29999	28600	144786	27074	1054718	44816	111165	0	0	8366	380741	0	0
2024-07-16 01:14:47			0	42561	0	0	0	29992	28600	144790	26916	1054772	44816	111162	0	0	8366	380677	0	0
2024-07-16 01:15:47			0	42562	0	0	0	29986	28600	144902	27081	1054691	44805	111160	0	0	8366	380645	0	0
2024-07-16 01:16:47			0	42583	0	0	0	29979	28590	144782	27211	1054691	44815	111157	0	0	8367	380004	0	0
2024-07-16 01:17:47			0	42550	0	0	0	29984	28600	144906	26878	1054718	44805	111159	0	0	8365	381025	0	0
2024-07-16 01:18:47			0	42555	0	0	0	29971	28600	144890	27265	1054718	44793	111154	0	0	8366	380867	0	0
2024-07-16 01:19:47			0	42553	0	0	0	29971	28590	144842	27157	1054584	44804	111154	0	0	8366	380952	0	0
2024-07-16 01:20:47			0	42570	0	0	0	29971	28590	144870	27220	1054665	44804	111154	0	0	8367	380415	0	0
2024-07-16 01:21:47			0	42573	0	0	0	29973	28580	144886	26819	1054656	44791	111155	0	0	8367	380342	0	0
2024-07-16 01:22:47			0	42581	0	0	0	29963	28570	144782	27112	1054530	44802	111151	0	0	8367	380111	0	0
2024-07-16 01:23:47			0	42580	0	0	0	29961	28580	144886	26941	1054620	44814	111150	0	0	8367	380120	0	0
2024-07-16 01:24:47			0	42566	0	0	0	29958	28570	144866	27150	1054548	44791	111149	0	0	8366	380585	0	0
2024-07-16 01:25:47			0	42555	0	0	0	29958	28570	144854	26833	1054557	44813	111149	0	0	8366	380933	0	0
2024-07-16 01:26:47			0	42575	0	0	0	29953	28570	144870	27272	1054557	44802	111147	0	0	8367	380301	0	0
2024-07-16 01:27:47			0	42576	0	0	0	29948	28560	144774	27031	1054512	44801	111145	0	0	8367	380291	0	0
2024-07-16 01:28:47			0	42557	0	0	0	29948	28570	144790	26793	1054548	44813	111145	0	0	8366	380870	0	0
2024-07-16 01:29:47			0	42575	0	0	0	29948	28560	144778	27161	1054450	44811	111145	0	0	8367	380323	0	0
2024-07-16 01:30:47			0	42572	0	0	0	29940	28560	144926	26826	1054512	44790	111142	0	0	8367	380418	0	0
2024-07-16 01:31:47			0	42570	0	0	0	29932	28550	144786	26974	1054495	44800	111139	0	0	8367	380503	0	0
2024-07-16 01:32:47			0	42577	0	0	0	29940	28550	144814	26715	1054387	44811	111142	0	0	8367	380281	0	0
2024-07-16 01:33:47			0	42587	0	0	0	29927	28550	144806	27135	1054432	44800	111137	0	0	8368	379965	0	0
2024-07-16 01:34:47			0	42586	0	0	0	29919	28550	144826	26930	1054468	44789	111134	0	0	8368	379997	0	0
2024-07-16 01:35:47			0	42592	0	0	0	29924	28540	144682	26736	1054450	44810	111136	0	0	8368	379829	0	0
2024-07-16 01:36:47			0	42587	0	0	0	29932	28540	144798	26968	1054423	44799	111139	0	0	8368	379987	0	0
2024-07-16 01:37:47			0	42612	0	0	0	29911	28540	144702	26901	1054387	44809	111131	0	0	8370	379198	0	0
2024-07-16 01:38:47			0	42609	0	0	0	29911	28540	144650	26876	1054333	44809	111131	0	0	8370	379292	0	0
2024-07-16 01:39:47			0	42598	0	0	0	29903	28530	144690	26922	1054289	44798	111128	0	0	8369	379662	0	0
2024-07-16 01:40:47			0	42585	0	0	0	29903	28530	144686	27190	1054316	44787	111128	0	0	8368	380072	0	0
2024-07-16 01:41:47			0	42590	0	0	0	29901	28530	144702	27234	1054343	44798	111127	0	0	8369	379914	0	0
2024-07-16 01:42:47			0	42618	0	0	0	29898	28520	144674	26902	1054325	44807	111126	0	0	8370	379052	0	0
2024-07-16 01:43:47			0	42610	0	0	0	29888	28510	144690	27144	1054316	44796	111122	0	0	8370	379327	0	0
2024-07-16 01:44:47			0	42608	0	0	0	29896	28520	144674	26703	1054253	44797	111125	0	0	8370	379368	0	0
2024-07-16 01:45:47			0	42605	0	0	0	29890	28520	144674	26937	1054298	44796	111123	0	0	8370	379462	0	0
2024-07-16 01:46:47			0	42591	0	0	0	29885	28520	144662	27046	1054244	44807	111121	0	0	8369	379905	0	0
2024-07-16 01:47:47			0	42613	0	0	0	29883	28510	144682	27048	1054289	44786	111120	0	0	8370	379232	0	0
2024-07-16 01:48:47			0	42615	0	0	0	29885	28500	144754	26993	1054208	44794	111121	0	0	8370	379191	0	0
2024-07-16 01:49:47			0	42615	0	0	0	29883	28490	144738	27088	1054119	44793	111120	0	0	8370	379212	0	0
2024-07-16 01:50:47			0	42619	0	0	0	29880	28490	144658	27317	1054137	44804	111119	0	0	8371	379086	0	0
2024-07-16 01:51:47			0	42611	0	0	0	29864	28490	144626	26689	1054199	44793	111113	0	0	8370	379339	0	0
2024-07-16 01:52:47			0	42619	0	0	0	29867	28490	144662	26942	1054083	44804	111114	0	0	8371	379086	0	0
2024-07-16 01:53:47			0	42620	0	0	0	29862	28480	144610	26635	1054101	44804	111112	0	0	8371	379077	0	0
2024-07-16 01:54:47			0	42620	0	0	0	29859	28480	144622	27038	1054101	44793	111111	0	0	8371	379077	0	0
2024-07-16 01:55:47			0	42633	0	0	0	29854	28480	144642	26595	1054074	44793	111109	0	0	8372	378666	0	0
2024-07-16 01:56:47			0	42615	0	0	0	29846	28470	144662	27176	1054083	44802	111106	0	0	8371	379256	0	0
2024-07-16 01:57:47			0	42619	0	0	0	29851	28480	144622	27001	1054038	44792	111108	0	0	8371	379108	0	0
2024-07-16 01:58:47			0	42638	0	0	0	29849	28480	144646	26795	1054038	44792	111107	0	0	8372	378508	0	0
2024-07-16 01:59:47			0	42629	0	0	0	29846	28460	144682	26974	1053985	44802	111106	0	0	8372	378836	0	0
2024-07-16 02:00:47			0	42625	0	0	0	29838	28460	144678	26785	1053985	44802	111103	0	0	8372	378963	0	0
2024-07-16 02:01:47			0	42632	0	0	0	29833	28460	144634	27074	1054012	44791	111101	0	0	8372	378742	0	0
2024-07-16 02:02:47			0	42641	0	0	0	29828	28460	144662	27076	1053976	44802	111099	0	0	8373	378458	0	0
2024-07-16 02:03:47			0	42634	0	0	0	29815	28450	144594	26727	1053985	44790	111094	0	0	8372	378700	0	0
2024-07-16 02:04:47			0	42659	0	0	0	29820	28450	144654	27097	1053931	44779	111096	0	0	8374	377912	0	0
2024-07-16 02:05:47			0	42645	0	0	0	29818	28450	144610	27015	1053958	44779	111095	0	0	8373	378353	0	0
2024-07-16 02:06:47			0	42658	0	0	0	29807	28440	144674	27093	1053922	44801	111091	0	0	8374	377965	0	0
2024-07-16 02:07:47			0	42639	0	0	0	29823	28440	144598	27137	1053859	44789	111097	0	0	8373	378564	0	0
2024-07-16 02:08:47			0	42643	0	0	0	29802	28440	144594	26987	1053868	44790	111089	0	0	8373	378438	0	0
2024-07-16 02:09:47			0	42649	0	0	0	29807	28430	144582	26750	1053878	44799	111091	0	0	8373	378271	0	0
2024-07-16 02:10:47			0	42640	0	0	0	29799	28430	144534	27036	1053869	44776	111088	0	0	8373	378555	0	0
2024-07-16 02:11:47			0	42651	0	0	0	29797	28430	144518	26746	1053904	44799	111087	0	0	8374	378208	0	0
2024-07-16 02:12:47			0	42635	0	0	0	29789	28430	144530	26726	1053788	44776	111084	0	0	8373	378713	0	0
2024-07-16 02:13:47			0	42645	0	0	0	29781	28420	144502	27085	1053743	44798	111081	0	0	8374	378419	0	0
2024-07-16 02:14:47			0	42662	0	0	0	29784	28410	144558	26710	1053779	44796	111082	0	0	8374	377904	0	0
2024-07-16 02:15:47			0	42648	0	0	0	29784	28410	144734	26937	1053761	44775	111082	0	0	8374	378346	0	0
2024-07-16 02:16:47			0	42648	0	0	0	29774	28410	144698	26920	1053815	44786	111078	0	0	8374	378346	0	0
2024-07-16 02:17:47			0	42647	0	0	0	29763	28400	144542	26774	1053635	44796	111074	0	0	8374	378399	0	0
2024-07-16 02:18:47			0	42671	0	0	0	29768	28400	144546	26892	1053770	44796	111076	0	0	8375	377642	0	0
2024-07-16 02:19:47			0	42663	0	0	0	29761	28400	144686	27234	1053689	44796	111073	0	0	8375	377895	0	0
2024-07-16 02:20:47			0	42656	0	0	0	29755	28400	144690	27152	1053707	44785	111071	0	0	8375	378116	0	0
2024-07-16 02:21:47			0	42659	0	0	0	29771	28400	144626	27043	1053654	44796	111077	0	0	8374	378021	0	0
2024-07-16 02:22:47			0	42660	0	0	0	29750	28400	144578	27005	1053689	44785	111069	0	0	8375	377989	0	0
2024-07-16 02:23:47			0	42666	0	0	0	29745	28390	144574	26854	1053672	44784	111067	0	0	8375	377822	0	0
2024-07-16 02:24:47			0	42674	0	0	0	29742	28380	144702	26774	1053627	44783	111066	0	0	8376	377592	0	0
2024-07-16 02:25:47			0	42673	0	0	0	29742	28380	144678	27045	1053555	44794	111066	0	0	8376	377623	0	0
2024-07-16 02:26:47			0	42647	0	0	0	29740	28370	144690	26996	1053537	44783	111065	0	0	8374	378465	0	0
2024-07-16 02:27:47			0	42645	0	0	0	29740	28370	144658	26795	1053582	44782	111065	0	0	8374	378528	0	0
2024-07-16 02:28:47			0	42675	0	0	0	29732	28370	144666	26972	1053555	44771	111062	0	0	8376	377582	0	0
2024-07-16 02:29:47			0	42661	0	0	0	29727	28360	144686	26918	1053573	44782	111060	0	0	8375	378045	0	0
2024-07-16 02:30:47			0	42680	0	0	0	29729	28360	144750	26798	1053520	44792	111061	0	0	8376	377446	0	0
2024-07-16 02:31:47			0	42653	0	0	0	29729	28370	144734	27050	1053555	44793	111061	0	0	8375	378276	0	0
2024-07-16 02:32:47			0	42674	0	0	0	29709	28370	144710	27045	1053528	44782	111053	0	0	8376	377613	0	0
2024-07-16 02:33:47			0	42659	0	0	0	29716	28340	144722	26790	1053457	44780	111056	0	0	8375	378152	0	0
2024-07-16 02:34:47			0	42670	0	0	0	29701	28350	144654	27005	1053385	44781	111050	0	0	8376	377783	0	0
2024-07-16 02:35:47			0	42659	0	0	0	29706	28350	144650	26857	1053385	44791	111052	0	0	8375	378130	0	0
2024-07-16 02:36:47			0	42647	0	0	0	29701	28340	144798	26981	1053421	44779	111050	0	0	8375	378531	0	0
2024-07-16 02:37:47			0	42658	0	0	0	29696	28340	144802	27135	1053395	44779	111048	0	0	8375	378184	0	0
2024-07-16 02:38:47			0	42670	0	0	0	29706	28340	144718	26918	1053395	44767	111052	0	0	8376	377805	0	0
2024-07-16 02:39:47			0	42639	0	0	0	29696	28330	144778	26798	1053386	44790	111048	0	0	8374	378805	0	0
2024-07-16 02:40:47			0	42652	0	0	0	29693	28330	144818	26897	1053359	44779	111047	0	0	8375	378395	0	0
2024-07-16 02:41:47			0	42676	0	0	0	29690	28320	144670	27010	1053368	44778	111046	0	0	8376	377660	0	0
2024-07-16 02:42:47			0	42673	0	0	0	29688	28320	144738	27062	1053341	44789	111045	0	0	8376	377754	0	0
2024-07-16 02:43:47			0	42670	0	0	0	29677	28310	144698	26609	1053314	44765	111041	0	0	8376	377871	0	0
2024-07-16 02:44:47			0	42644	0	0	0	29675	28320	144782	26833	1053224	44777	111040	0	0	8375	378669	0	0
2024-07-16 02:45:47			0	42634	0	0	0	29638	28310	144678	26826	1053099	44777	111026	0	0	8375	379007	0	0
2024-07-16 02:46:47			0	42659	0	0	0	29607	28300	144706	27048	1053009	44776	111014	0	0	8377	378239	0	0
2024-07-16 02:47:47			0	42686	0	0	0	29561	28270	144706	27052	1052839	44750	110996	0	0	8379	377453	0	0
2024-07-16 02:48:47			0	42670	0	0	0	29519	28260	144710	26712	1052687	44749	110980	0	0	8379	377980	0	0
2024-07-16 02:49:47			0	42673	0	0	0	29477	28250	144678	27133	1052615	44748	110964	0	0	8380	377907	0	0
2024-07-16 02:50:47			0	42660	0	0	0	29444	28210	144606	27031	1052436	44733	110951	0	0	8379	378405	0	0
2024-07-16 02:51:47			0	42642	0	0	0	29407	28190	144674	27026	1052275	44731	110937	0	0	8379	379017	0	0
2024-07-16 02:52:47			0	42659	0	0	0	29381	28170	144766	26889	1052159	44718	110927	0	0	8380	378523	0	0
2024-07-16 02:53:47			0	42652	0	0	0	29366	28150	144750	27012	1052088	44715	110921	0	0	8380	378788	0	0
2024-07-16 02:54:47			0	42638	0	0	0	29332	28130	144774	27208	1051971	44702	110908	0	0	8379	379275	0	0
2024-07-16 02:55:47			0	42620	0	0	0	29327	28090	144850	26779	1051838	44710	110906	0	0	8378	379932	0	0
2024-07-16 02:56:47			0	42613	0	0	0	29303	28080	144906	27005	1051766	44699	110897	0	0	8378	380175	0	0
2024-07-16 02:57:47			0	42617	0	0	0	29290	28050	144942	27164	1051578	44717	110892	0	0	8379	380114	0	0
2024-07-16 02:58:47			0	42576	0	0	0	29264	28030	144994	26968	1051561	44715	110882	0	0	8377	381457	0	0
2024-07-16 02:59:47			0	42580	0	0	0	29249	28020	145134	26870	1051408	44714	110876	0	0	8377	381352	0	0
2024-07-16 03:00:47			0	42556	0	0	0	29228	27990	145182	26928	1051310	44700	110868	0	0	8376	382180	0	0
2024-07-16 03:01:47			0	42572	0	0	0	29210	27960	145230	26911	1051141	44697	110861	0	0	8377	381738	0	0
2024-07-16 03:02:47			0	42532	0	0	0	29184	27940	145330	27107	1050944	44683	110851	0	0	8375	383053	0	0
2024-07-16 03:03:47			0	42517	0	0	0	29166	27910	145282	26956	1050954	44680	110844	0	0	8374	383596	0	0
2024-07-16 03:04:47			0	42502	0	0	0	29145	27890	145482	26902	1050810	44690	110836	0	0	8374	384117	0	0
2024-07-16 03:05:47			0	42477	0	0	0	29127	27880	145486	26793	1050793	44712	110829	0	0	8372	384935	0	0
2024-07-16 03:06:47			0	42478	0	0	0	29127	27870	145550	27060	1050721	44699	110829	0	0	8372	384926	0	0
2024-07-16 03:07:47			0	42447	0	0	0	29122	27870	145558	26922	1050793	44699	110827	0	0	8371	385914	0	0
2024-07-16 03:08:47			0	42439	0	0	0	29127	27850	145678	27201	1050847	44719	110829	0	0	8370	386214	0	0
2024-07-16 03:09:47			0	42432	0	0	0	29137	27860	145658	27000	1050838	44733	110833	0	0	8370	386415	0	0
2024-07-16 03:10:47			0	42421	0	0	0	29155	27860	145742	26923	1050946	44733	110840	0	0	8369	386766	0	0
2024-07-16 03:11:47			0	42411	0	0	0	29181	27870	145722	27064	1051035	44754	110850	0	0	8368	387063	0	0
2024-07-16 03:12:47			0	42370	0	0	0	29223	27880	145914	27203	1051107	44733	110866	0	0	8365	388351	0	0
2024-07-16 03:13:47			0	42366	0	0	0	29249	27890	145922	26731	1051268	44756	110876	0	0	8364	388457	0	0
2024-07-16 03:14:47			0	42340	0	0	0	29275	27900	145982	26956	1051312	44736	110886	0	0	8362	389266	0	0
2024-07-16 03:15:47			0	42311	0	0	0	29293	27910	146002	26693	1051357	44758	110893	0	0	8360	390173	0	0
2024-07-16 03:16:47			0	42304	0	0	0	29306	27920	146126	27055	1051393	44759	110898	0	0	8359	390375	0	0
2024-07-16 03:17:47			0	42282	0	0	0	29329	27920	146242	27234	1051375	44750	110907	0	0	8358	391081	0	0
2024-07-16 03:18:47			0	42271	0	0	0	29345	27940	146154	27076	1051464	44762	110913	0	0	8357	391389	0	0
2024-07-16 03:19:47			0	42264	0	0	0	29350	27940	146302	26828	1051536	44761	110915	0	0	8356	391613	0	0
2024-07-16 03:20:47			0	42247	0	0	0	29366	27960	146302	27079	1051652	44763	110921	0	0	8355	392114	0	0
2024-07-16 03:21:47			0	42207	0	0	0	29379	27960	146350	26852	1051652	44763	110926	0	0	8353	393400	0	0
2024-07-16 03:22:47			0	42209	0	0	0	29386	27980	146422	27239	1051723	44777	110929	0	0	8353	393290	0	0
2024-07-16 03:23:47			0	42205	0	0	0	29381	27980	146510	26760	1051777	44766	110927	0	0	8353	393419	0	0
2024-07-16 03:24:47			0	42176	0	0	0	29366	28000	146422	26831	1051696	44746	110921	0	0	8351	394307	0	0
2024-07-16 03:25:47			0	42174	0	0	0	29342	27980	146478	26852	1051526	44732	110912	0	0	8352	394417	0	0
2024-07-16 03:26:47			0	42152	0	0	0	29327	27950	146466	26934	1051374	44718	110906	0	0	8350	395194	0	0
2024-07-16 03:27:47			0	42157	0	0	0	29301	27940	146506	26951	1051294	44716	110896	0	0	8351	395056	0	0
2024-07-16 03:28:47			0	42150	0	0	0	29272	27930	146474	26887	1051150	44695	110885	0	0	8351	395304	0	0
2024-07-16 03:29:47			0	42142	0	0	0	29251	27920	146542	26838	1051124	44693	110877	0	0	8351	395585	0	0
2024-07-16 03:30:47			0	42130	0	0	0	29231	27900	146598	26946	1050989	44714	110869	0	0	8351	396018	0	0
2024-07-16 03:31:47			0	42137	0	0	0	29205	27890	146610	27067	1050936	44701	110859	0	0	8351	395815	0	0
2024-07-16 03:32:47			0	42137	0	0	0	29181	27880	146662	26871	1050819	44701	110850	0	0	8352	395838	0	0
2024-07-16 03:33:47			0	42116	0	0	0	29173	27870	146634	26812	1050856	44699	110847	0	0	8351	396539	0	0
2024-07-16 03:34:47			0	42130	0	0	0	29168	27860	146698	26894	1050802	44732	110845	0	0	8351	396109	0	0
2024-07-16 03:35:47			0	42126	0	0	0	29150	27860	146678	26760	1050695	44709	110838	0	0	8351	396239	0	0
2024-07-16 03:36:47			0	42109	0	0	0	29148	27840	146790	26720	1050632	44708	110837	0	0	8350	396833	0	0
2024-07-16 03:37:47			0	42121	0	0	0	29137	27830	146814	26717	1050561	44706	110833	0	0	8351	396468	0	0
2024-07-16 03:38:47			0	42113	0	0	0	29122	27820	146834	26736	1050606	44706	110827	0	0	8351	396750	0	0
2024-07-16 03:39:47			0	42093	0	0	0	29127	27820	146794	27036	1050651	44716	110829	0	0	8350	397396	0	0
2024-07-16 03:40:47			0	42084	0	0	0	29132	27810	146862	27060	1050750	44727	110831	0	0	8349	397711	0	0
2024-07-16 03:41:47			0	42088	0	0	0	29150	27820	146906	26920	1050758	44728	110838	0	0	8349	397558	0	0
2024-07-16 03:42:47			0	42082	0	0	0	29176	27840	146830	27211	1050955	44730	110848	0	0	8348	397706	0	0
2024-07-16 03:43:47			0	42072	0	0	0	29205	27840	146881	26864	1050964	44741	110859	0	0	8347	398030	0	0
2024-07-16 03:44:47			0	42068	0	0	0	29228	27850	146917	27164	1051054	44741	110868	0	0	8347	398137	0	0
2024-07-16 03:45:47			0	42057	0	0	0	29249	27860	146949	27204	1051188	44754	110876	0	0	8346	398470	0	0
2024-07-16 03:46:47			0	42063	0	0	0	29272	27870	146857	26987	1051125	44754	110885	0	0	8346	398252	0	0
2024-07-16 03:47:47			0	42027	0	0	0	29285	27880	146945	27057	1051169	44756	110890	0	0	8344	399396	0	0
2024-07-16 03:48:47			0	42030	0	0	0	29275	27890	146957	26982	1051178	44756	110886	0	0	8344	399275	0	0
2024-07-16 03:49:47			0	42024	0	0	0	29275	27890	147013	26996	1051106	44734	110886	0	0	8344	399470	0	0
2024-07-16 03:50:47			0	42028	0	0	0	29272	27890	147001	26852	1051106	44734	110885	0	0	8344	399340	0	0
2024-07-16 03:51:47			0	42008	0	0	0	29257	27880	147013	27034	1051080	44745	110879	0	0	8343	400012	0	0
2024-07-16 03:52:47			0	42018	0	0	0	29262	27890	147073	27161	1051124	44734	110881	0	0	8343	399664	0	0
2024-07-16 03:53:47			0	42009	0	0	0	29251	27890	147073	27166	1051106	44734	110877	0	0	8343	399956	0	0
2024-07-16 03:54:47			0	41995	0	0	0	29251	27890	147093	26767	1051187	44734	110877	0	0	8342	400410	0	0
2024-07-16 03:55:47			0	42009	0	0	0	29251	27890	147053	26857	1051232	44746	110877	0	0	8343	399956	0	0
2024-07-16 03:56:47			0	41998	0	0	0	29254	27900	147073	27137	1051250	44735	110878	0	0	8342	400290	0	0
2024-07-16 03:57:47			0	42004	0	0	0	29257	27900	147017	26816	1051259	44736	110879	0	0	8343	400095	0	0
2024-07-16 03:58:47			0	41989	0	0	0	29262	27900	147001	27107	1051124	44725	110881	0	0	8342	400582	0	0
2024-07-16 03:59:47			0	42003	0	0	0	29251	27890	147085	27022	1051187	44734	110877	0	0	8343	400151	0	0
2024-07-16 04:00:47			0	42003	0	0	0	29249	27890	147089	27246	1051071	44712	110876	0	0	8343	400151	0	0
2024-07-16 04:01:47			0	42005	0	0	0	29233	27890	147053	26989	1051017	44734	110870	0	0	8343	400086	0	0
2024-07-16 04:02:47			0	41986	0	0	0	29220	27880	147077	26863	1050972	44700	110865	0	0	8342	400726	0	0
2024-07-16 04:03:47			0	41996	0	0	0	29212	27850	147033	26767	1050928	44708	110862	0	0	8343	400470	0	0
2024-07-16 04:04:47			0	41985	0	0	0	29205	27860	147113	26734	1050838	44710	110859	0	0	8342	400804	0	0
2024-07-16 04:05:47			0	41995	0	0	0	29197	27860	147133	26880	1050829	44709	110856	0	0	8343	400480	0	0
2024-07-16 04:06:47			0	41997	0	0	0	29189	27850	147097	26882	1050874	44731	110853	0	0	8343	400438	0	0
2024-07-16 04:07:47			0	41996	0	0	0	29202	27860	147113	27182	1050910	44743	110858	0	0	8343	400447	0	0
2024-07-16 04:08:47			0	41992	0	0	0	29220	27860	147073	26935	1051026	44733	110865	0	0	8342	400577	0	0
2024-07-16 04:09:47			0	41975	0	0	0	29231	27860	147153	27090	1050964	44743	110869	0	0	8341	401129	0	0
2024-07-16 04:10:47			0	41990	0	0	0	29244	27880	147157	27267	1051080	44722	110874	0	0	8342	400596	0	0
2024-07-16 04:11:47			0	41990	0	0	0	29241	27870	147081	27043	1051071	44733	110873	0	0	8342	400619	0	0
2024-07-16 04:12:47			0	42003	0	0	0	29249	27870	147133	27131	1051125	44744	110876	0	0	8343	400197	0	0
2024-07-16 04:13:47			0	41971	0	0	0	29249	27870	147109	27175	1051044	44721	110876	0	0	8341	401236	0	0
2024-07-16 04:14:47			0	41974	0	0	0	29257	27870	147065	27149	1050990	44733	110879	0	0	8341	401138	0	0
2024-07-16 04:15:47			0	41988	0	0	0	29254	27880	147021	26911	1051089	44734	110878	0	0	8342	400661	0	0
2024-07-16 04:16:47			0	41996	0	0	0	29267	27880	147053	27000	1051116	44746	110883	0	0	8342	400401	0	0
2024-07-16 04:17:47			0	41967	0	0	0	29267	27890	147057	27201	1051232	44746	110883	0	0	8340	401320	0	0
2024-07-16 04:18:47			0	41971	0	0	0	29270	27890	147149	27128	1051097	44746	110884	0	0	8341	401190	0	0
2024-07-16 04:19:47			0	41980	0	0	0	29270	27890	147037	27213	1051187	44746	110884	0	0	8341	400897	0	0
2024-07-16 04:20:47			0	42005	0	0	0	29270	27890	147017	27268	1051187	44723	110884	0	0	8343	400086	0	0
2024-07-16 04:21:47			0	41978	0	0	0	29262	27890	147049	27253	1051097	44723	110881	0	0	8341	400962	0	0
2024-07-16 04:22:47			0	41987	0	0	0	29270	27890	146981	27041	1051133	44723	110884	0	0	8341	400670	0	0
2024-07-16 04:23:47			0	41988	0	0	0	29264	27890	147121	27234	1051106	44746	110882	0	0	8342	400638	0	0
2024-07-16 04:24:47			0	41988	0	0	0	29259	27880	146997	27137	1051116	44756	110880	0	0	8342	400661	0	0
2024-07-16 04:25:47			0	41985	0	0	0	29251	27890	147093	27275	1051026	44734	110877	0	0	8342	400735	0	0
2024-07-16 04:26:47			0	41990	0	0	0	29244	27890	147093	27300	1051044	44712	110874	0	0	8342	400573	0	0
2024-07-16 04:27:47			0	41991	0	0	0	29236	27880	147133	26842	1050981	44734	110871	0	0	8342	400563	0	0
2024-07-16 04:28:47			0	41990	0	0	0	29233	27880	146989	26953	1050972	44722	110870	0	0	8342	400596	0	0
2024-07-16 04:29:47			0	41982	0	0	0	29223	27870	147145	27192	1050901	44721	110866	0	0	8342	400879	0	0
2024-07-16 04:30:47			0	41993	0	0	0	29215	27850	147037	27164	1050982	44731	110863	0	0	8343	400568	0	0
2024-07-16 04:31:47			0	41991	0	0	0	29231	27860	147173	27265	1050973	44733	110869	0	0	8342	400609	0	0
2024-07-16 04:32:47			0	41992	0	0	0	29233	27860	147073	27284	1050999	44733	110870	0	0	8342	400577	0	0
2024-07-16 04:33:47			0	41985	0	0	0	29212	27870	147093	27194	1051008	44733	110862	0	0	8342	400781	0	0
2024-07-16 04:34:47			0	41977	0	0	0	29225	27880	147061	26932	1051053	44733	110867	0	0	8342	401018	0	0
2024-07-16 04:35:47			0	41982	0	0	0	29220	27880	147045	26963	1050999	44745	110865	0	0	8342	400856	0	0
2024-07-16 04:36:47			0	41981	0	0	0	29223	27880	147169	27111	1050999	44733	110866	0	0	8342	400888	0	0
2024-07-16 04:37:47			0	41985	0	0	0	29244	27880	147085	26915	1051062	44746	110874	0	0	8342	400758	0	0
2024-07-16 04:38:47			0	41976	0	0	0	29251	27880	147205	27066	1051107	44745	110877	0	0	8341	401050	0	0
2024-07-16 04:39:47			0	41967	0	0	0	29267	27880	147049	27109	1051223	44746	110883	0	0	8340	401343	0	0
2024-07-16 04:40:47			0	41990	0	0	0	29288	27890	147129	27072	1051241	44746	110891	0	0	8341	400573	0	0
2024-07-16 04:41:47			0	41978	0	0	0	29298	27900	147129	27034	1051277	44747	110895	0	0	8341	400939	0	0
2024-07-16 04:42:47			0	41973	0	0	0	29303	27900	147089	26844	1051339	44748	110897	0	0	8340	401101	0	0
2024-07-16 04:43:47			0	41961	0	0	0	29314	27910	147189	27029	1051277	44725	110901	0	0	8339	401468	0	0
2024-07-16 04:44:47			0	41965	0	0	0	29298	27910	147117	27088	1051160	44725	110895	0	0	8340	401338	0	0
2024-07-16 04:45:47			0	41984	0	0	0	29283	27890	147101	27216	1051097	44712	110889	0	0	8341	400767	0	0
2024-07-16 04:46:47			0	41974	0	0	0	29267	27890	147109	26857	1051079	44723	110883	0	0	8341	401092	0	0
2024-07-16 04:47:47			0	41958	0	0	0	29257	27880	147113	27312	1050999	44711	110879	0	0	8340	401635	0	0
2024-07-16 04:48:47			0	41980	0	0	0	29244	27870	147193	27197	1050928	44710	110874	0	0	8341	400943	0	0
2024-07-16 04:49:47			0	41967	0	0	0	29231	27860	147145	26915	1050919	44733	110869	0	0	8341	401389	0	0
2024-07-16 04:50:47			0	41982	0	0	0	29228	27860	147277	27310	1050883	44709	110868	0	0	8342	400902	0	0
2024-07-16 04:51:47			0	42000	0	0	0	29220	27850	147261	27147	1050838	44718	110865	0	0	8343	400340	0	0
2024-07-16 04:52:47			0	41986	0	0	0	29215	27850	147101	27076	1050838	44718	110863	0	0	8342	400795	0	0
2024-07-16 04:53:47			0	41993	0	0	0	29220	27850	147157	27012	1050838	44718	110865	0	0	8343	400568	0	0
2024-07-16 04:54:47			0	42003	0	0	0	29207	27850	147021	27374	1050785	44718	110860	0	0	8343	400243	0	0
2024-07-16 04:55:47			0	42005	0	0	0	29202	27840	147213	27098	1050821	44718	110858	0	0	8343	400201	0	0
2024-07-16 04:56:47			0	41974	0	0	0	29194	27840	147213	26996	1050767	44730	110855	0	0	8342	401208	0	0
2024-07-16 04:57:47			0	42010	0	0	0	29192	27830	147197	27083	1050731	44729	110854	0	0	8344	400062	0	0
2024-07-16 04:58:47			0	42016	0	0	0	29192	27820	147209	27211	1050740	44716	110854	0	0	8344	399890	0	0
2024-07-16 04:59:47			0	41990	0	0	0	29181	27810	147177	27305	1050642	44705	110850	0	0	8343	400757	0	0
2024-07-16 05:00:47			0	41993	0	0	0	29163	27810	147193	27064	1050615	44715	110843	0	0	8343	400660	0	0
2024-07-16 05:01:47			0	41982	0	0	0	29155	27800	147245	27315	1050544	44714	110840	0	0	8343	401040	0	0
2024-07-16 05:02:47			0	42004	0	0	0	29150	27790	147261	27209	1050553	44713	110838	0	0	8344	400349	0	0
2024-07-16 05:03:47			0	41990	0	0	0	29137	27790	147273	27258	1050526	44725	110833	0	0	8343	400803	0	0
2024-07-16 05:04:47			0	41979	0	0	0	29127	27770	147313	27005	1050499	44711	110829	0	0	8343	401207	0	0
2024-07-16 05:05:47			0	41974	0	0	0	29124	27770	147305	27069	1050418	44701	110828	0	0	8343	401370	0	0
2024-07-16 05:06:47			0	41976	0	0	0	29116	27760	147345	26951	1050374	44733	110825	0	0	8343	401328	0	0
2024-07-16 05:07:47			0	41955	0	0	0	29114	27750	147309	27081	1050383	44699	110824	0	0	8342	402034	0	0
2024-07-16 05:08:47			0	41952	0	0	0	29106	27750	147281	27026	1050347	44710	110821	0	0	8342	402131	0	0
2024-07-16 05:09:47			0	41948	0	0	0	29109	27750	147313	27150	1050329	44721	110822	0	0	8341	402261	0	0
2024-07-16 05:10:47			0	41935	0	0	0	29106	27750	147397	27183	1050401	44721	110821	0	0	8341	402684	0	0
2024-07-16 05:11:47			0	41921	0	0	0	29122	27740	147497	26885	1050392	44753	110827	0	0	8340	403163	0	0
2024-07-16 05:12:47			0	41913	0	0	0	29129	27750	147509	27100	1050491	44721	110830	0	0	8339	403401	0	0
2024-07-16 05:13:47			0	41908	0	0	0	29142	27760	147497	26989	1050481	44755	110835	0	0	8339	403541	0	0
2024-07-16 05:14:47			0	41897	0	0	0	29148	27760	147609	27196	1050553	44732	110837	0	0	8338	403899	0	0
2024-07-16 05:15:47			0	41873	0	0	0	29153	27760	147653	27079	1050472	44744	110839	0	0	8336	404682	0	0
2024-07-16 05:16:47			0	41868	0	0	0	29148	27760	147701	27239	1050499	44721	110837	0	0	8336	404845	0	0
2024-07-16 05:17:47			0	41854	0	0	0	29150	27760	147725	27071	1050553	44732	110838	0	0	8335	405302	0	0
2024-07-16 05:18:47			0	41850	0	0	0	29155	27770	147813	27098	1050571	44746	110840	0	0	8335	405409	0	0
2024-07-16 05:19:47			0	41839	0	0	0	29181	27770	147773	27105	1050660	44734	110850	0	0	8334	405769	0	0
2024-07-16 05:20:47			0	41823	0	0	0	29184	27780	147853	27130	1050625	44747	110851	0	0	8333	406268	0	0
2024-07-16 05:21:47			0	41808	0	0	0	29199	27780	147829	27138	1050759	44757	110857	0	0	8332	406759	0	0
2024-07-16 05:22:47			0	41813	0	0	0	29218	27800	147917	27246	1050840	44759	110864	0	0	8332	406548	0	0
2024-07-16 05:23:47			0	41798	0	0	0	29238	27810	147793	27211	1050911	44738	110872	0	0	8331	407015	0	0
2024-07-16 05:24:47			0	41789	0	0	0	29254	27820	147813	26878	1050920	44750	110878	0	0	8330	407286	0	0
2024-07-16 05:25:47			0	41784	0	0	0	29251	27820	147945	26878	1050866	44728	110877	0	0	8330	407450	0	0
2024-07-16 05:26:47			0	41774	0	0	0	29228	27810	148005	26767	1050750	44715	110868	0	0	8330	407801	0	0
2024-07-16 05:27:47			0	41775	0	0	0	29192	27820	147973	27246	1050705	44706	110854	0	0	8330	407745	0	0
2024-07-16 05:28:47			0	41750	0	0	0	29150	27800	148097	27031	1050570	44704	110838	0	0	8329	408611	0	0
2024-07-16 05:29:47			0	41755	0	0	0	29114	27780	148085	27076	1050427	44701	110824	0	0	8330	408494	0	0
2024-07-16 05:30:47			0	41753	0	0	0	29088	27770	148093	27133	1050275	44711	110814	0	0	8330	408583	0	0
2024-07-16 05:31:47			0	41759	0	0	0	29075	27750	148145	27310	1050266	44710	110809	0	0	8331	408433	0	0
2024-07-16 05:32:47			0	41746	0	0	0	29062	27750	148181	26892	1050213	44699	110804	0	0	8330	408860	0	0
2024-07-16 05:33:47			0	41745	0	0	0	29044	27730	148145	27498	1050177	44708	110797	0	0	8331	408940	0	0
2024-07-16 05:34:47			0	41747	0	0	0	29036	27710	148097	27201	1050070	44707	110794	0	0	8331	408921	0	0
2024-07-16 05:35:47			0	41754	0	0	0	29028	27710	148237	27135	1050061	44706	110791	0	0	8331	408691	0	0
2024-07-16 05:36:47			0	41751	0	0	0	29015	27700	148125	27213	1050017	44715	110786	0	0	8331	408813	0	0
2024-07-16 05:37:47			0	41747	0	0	0	29020	27690	148133	27383	1049945	44714	110788	0	0	8331	408968	0	0
2024-07-16 05:38:47			0	41751	0	0	0	29020	27680	148129	27317	1049963	44704	110788	0	0	8331	408860	0	0
2024-07-16 05:39:47			0	41741	0	0	0	28999	27660	148161	27199	1049847	44702	110780	0	0	8331	409236	0	0
2024-07-16 05:40:47			0	41753	0	0	0	28997	27660	148213	27052	1049847	44712	110779	0	0	8332	408842	0	0
2024-07-16 05:41:47			0	41773	0	0	0	28994	27650	148261	26928	1049847	44700	110778	0	0	8333	408210	0	0
2024-07-16 05:42:47			0	41743	0	0	0	28986	27620	148253	26842	1049722	44719	110775	0	0	8331	409264	0	0
2024-07-16 05:43:47			0	41742	0	0	0	28989	27630	148157	27015	1049767	44709	110776	0	0	8331	409274	0	0
2024-07-16 05:44:47			0	41733	0	0	0	28986	27630	148221	27244	1049785	44709	110775	0	0	8330	409569	0	0
2024-07-16 05:45:47			0	41719	0	0	0	28973	27620	148329	27098	1049668	44708	110770	0	0	8330	410052	0	0
2024-07-16 05:46:47			0	41743	0	0	0	28976	27620	148413	27097	1049749	44708	110771	0	0	8331	409264	0	0
2024-07-16 05:47:47			0	41721	0	0	0	28986	27620	148381	26972	1049821	44719	110775	0	0	8330	409987	0	0
2024-07-16 05:48:47			0	41700	0	0	0	28984	27620	148357	27057	1049722	44708	110774	0	0	8329	410677	0	0
2024-07-16 05:49:47			0	41702	0	0	0	28979	27620	148377	27305	1049740	44719	110772	0	0	8329	410611	0	0
2024-07-16 05:50:47			0	41699	0	0	0	28989	27620	148393	27154	1049740	44719	110776	0	0	8328	410710	0	0
2024-07-16 05:51:47			0	41680	0	0	0	28994	27620	148441	27218	1049794	44719	110778	0	0	8327	411335	0	0
2024-07-16 05:52:47			0	41692	0	0	0	28994	27620	148469	27164	1049794	44730	110778	0	0	8328	410940	0	0
2024-07-16 05:53:47			0	41697	0	0	0	29010	27620	148517	26812	1049767	44719	110784	0	0	8328	410775	0	0
2024-07-16 05:54:47			0	41682	0	0	0	29018	27610	148493	27020	1049839	44729	110787	0	0	8327	411293	0	0
2024-07-16 05:55:47			0	41677	0	0	0	29018	27620	148605	27024	1049857	44742	110787	0	0	8327	411433	0	0
2024-07-16 05:56:47			0	41659	0	0	0	29031	27630	148517	27528	1049928	44720	110792	0	0	8325	412002	0	0
2024-07-16 05:57:47			0	41664	0	0	0	29036	27630	148529	27078	1049955	44731	110794	0	0	8326	411837	0	0
2024-07-16 05:58:47			0	41667	0	0	0	29038	27650	148533	27223	1049937	44722	110795	0	0	8326	411691	0	0
2024-07-16 05:59:47			0	41664	0	0	0	29036	27640	148629	27085	1049973	44721	110794	0	0	8326	411814	0	0
2024-07-16 06:00:47			0	41650	0	0	0	29046	27650	148697	27022	1049928	44733	110798	0	0	8325	412251	0	0
2024-07-16 06:01:47			0	41637	0	0	0	29051	27650	148609	27078	1049982	44722	110800	0	0	8324	412679	0	0
2024-07-16 06:02:47			0	41638	0	0	0	29051	27660	148625	27081	1050054	44723	110800	0	0	8324	412623	0	0
2024-07-16 06:03:47			0	41648	0	0	0	29062	27650	148661	27057	1049964	44722	110804	0	0	8324	412317	0	0
2024-07-16 06:04:47			0	41640	0	0	0	29070	27660	148597	27060	1050027	44723	110807	0	0	8324	412557	0	0
2024-07-16 06:05:47			0	41636	0	0	0	29080	27670	148709	27248	1050152	44724	110811	0	0	8323	412665	0	0
2024-07-16 06:06:47			0	41617	0	0	0	29070	27670	148653	26856	1050017	44735	110807	0	0	8323	413291	0	0
2024-07-16 06:07:47			0	41626	0	0	0	29077	27670	148721	27386	1050107	44735	110810	0	0	8323	412994	0	0
2024-07-16 06:08:47			0	41653	0	0	0	29077	27670	148681	27377	1050134	44735	110810	0	0	8324	412105	0	0
2024-07-16 06:09:47			0	41653	0	0	0	29085	27670	148685	26937	1050080	44712	110813	0	0	8324	412105	0	0
2024-07-16 06:10:47			0	41636	0	0	0	29088	27680	148729	27402	1050197	44736	110814	0	0	8323	412641	0	0
2024-07-16 06:11:47			0	41630	0	0	0	29083	27680	148593	27159	1050125	44726	110812	0	0	8323	412839	0	0
2024-07-16 06:12:47			0	41648	0	0	0	29083	27690	148649	27064	1050187	44726	110812	0	0	8324	412222	0	0
2024-07-16 06:13:47			0	41632	0	0	0	29090	27690	148553	27067	1050214	44714	110815	0	0	8323	412749	0	0
2024-07-16 06:14:47			0	41641	0	0	0	29090	27670	148481	27241	1050107	44735	110815	0	0	8324	412500	0	0
2024-07-16 06:15:47			0	41636	0	0	0	29088	27690	148561	26982	1050133	44714	110814	0	0	8323	412617	0	0
2024-07-16 06:16:47			0	41657	0	0	0	29090	27690	148577	27339	1050142	44726	110815	0	0	8325	411926	0	0
2024-07-16 06:17:47			0	41642	0	0	0	29080	27670	148557	26955	1050161	44735	110811	0	0	8324	412467	0	0
2024-07-16 06:18:47			0	41652	0	0	0	29080	27690	148589	26840	1050169	44714	110811	0	0	8324	412090	0	0
2024-07-16 06:19:47			0	41642	0	0	0	29080	27680	148473	27358	1050170	44725	110811	0	0	8324	412443	0	0
2024-07-16 06:20:47			0	41666	0	0	0	29085	27690	148469	27197	1050214	44737	110813	0	0	8325	411630	0	0
2024-07-16 06:21:47			0	41696	0	0	0	29090	27690	148425	27095	1050169	44714	110815	0	0	8327	410643	0	0
2024-07-16 06:22:47			0	41671	0	0	0	29088	27690	148473	27222	1050160	44726	110814	0	0	8325	411465	0	0
2024-07-16 06:23:47			0	41664	0	0	0	29085	27690	148437	27190	1050214	44737	110813	0	0	8325	411695	0	0
2024-07-16 06:24:47			0	41676	0	0	0	29093	27700	148445	27036	1050205	44738	110816	0	0	8326	411277	0	0
2024-07-16 06:25:47			0	41689	0	0	0	29085	27690	148309	26956	1050142	44714	110813	0	0	8327	410873	0	0
2024-07-16 06:26:47			0	41689	0	0	0	29083	27680	148345	27079	1050125	44726	110812	0	0	8327	410897	0	0
2024-07-16 06:27:47			0	41690	0	0	0	29080	27700	148301	27232	1050160	44716	110811	0	0	8327	410817	0	0
2024-07-16 06:28:47			0	41694	0	0	0	29077	27690	148337	27093	1050053	44726	110810	0	0	8327	410709	0	0
2024-07-16 06:29:47			0	41705	0	0	0	29072	27690	148341	26958	1050142	44726	110808	0	0	8328	410347	0	0
2024-07-16 06:30:47			0	41694	0	0	0	29072	27690	148285	26982	1050133	44726	110808	0	0	8327	410709	0	0
2024-07-16 06:31:47			0	41709	0	0	0	29062	27680	148257	27289	1050178	44714	110804	0	0	8328	410239	0	0
2024-07-16 06:32:47			0	41717	0	0	0	29064	27680	148229	26896	1050089	44713	110805	0	0	8328	409977	0	0
2024-07-16 06:33:47			0	41718	0	0	0	29057	27670	148213	26896	1050053	44702	110802	0	0	8329	409967	0	0
2024-07-16 06:34:47			0	41725	0	0	0	29054	27670	148185	27209	1050071	44712	110801	0	0	8329	409737	0	0
2024-07-16 06:35:47			0	41722	0	0	0	29041	27660	148197	26885	1049955	44724	110796	0	0	8329	409859	0	0
2024-07-16 06:36:47			0	41744	0	0	0	29041	27670	148129	26987	1049991	44702	110796	0	0	8330	409114	0	0
2024-07-16 06:37:47			0	41753	0	0	0	29041	27670	148161	27175	1050044	44712	110796	0	0	8331	408819	0	0
2024-07-16 06:38:47			0	41745	0	0	0	29041	27660	148245	26755	1049982	44712	110796	0	0	8330	409105	0	0
2024-07-16 06:39:47			0	41764	0	0	0	29038	27660	148141	26958	1050089	44724	110795	0	0	8332	408481	0	0
2024-07-16 06:40:47			0	41776	0	0	0	29049	27660	148161	27268	1050036	44724	110799	0	0	8332	408088	0	0
2024-07-16 06:41:47			0	41764	0	0	0	29057	27670	148157	26991	1050071	44735	110802	0	0	8331	408458	0	0
2024-07-16 06:42:47			0	41772	0	0	0	29064	27670	148105	27045	1050080	44724	110805	0	0	8332	408196	0	0
2024-07-16 06:43:47			0	41773	0	0	0	29051	27660	148097	27156	1050062	44724	110800	0	0	8332	408186	0	0
2024-07-16 06:44:47			0	41785	0	0	0	29057	27670	148173	26998	1050071	44712	110802	0	0	8332	407769	0	0
2024-07-16 06:45:47			0	41781	0	0	0	29057	27670	147997	27055	1050107	44712	110802	0	0	8332	407901	0	0
2024-07-16 06:46:47			0	41810	0	0	0	29059	27670	148129	27097	1050107	44724	110803	0	0	8334	406951	0	0
2024-07-16 06:47:47			0	41790	0	0	0	29054	27660	148037	27234	1050036	44735	110801	0	0	8333	407629	0	0
2024-07-16 06:48:47			0	41799	0	0	0	29062	27660	148017	27074	1050089	44724	110804	0	0	8333	407334	0	0
2024-07-16 06:49:47			0	41816	0	0	0	29059	27680	148013	27298	1050143	44725	110803	0	0	8334	406731	0	0
2024-07-16 06:50:47			0	41814	0	0	0	29067	27670	148009	27332	1050107	44712	110806	0	0	8334	406820	0	0
2024-07-16 06:51:47			0	41842	0	0	0	29067	27680	148013	27338	1050143	44725	110806	0	0	8336	405881	0	0
2024-07-16 06:52:47			0	41844	0	0	0	29062	27670	147917	27317	1050134	44724	110804	0	0	8336	405839	0	0
2024-07-16 06:53:47			0	41838	0	0	0	29067	27670	148029	27305	1050053	44724	110806	0	0	8335	406035	0	0
2024-07-16 06:54:47			0	41844	0	0	0	29067	27680	148005	26998	1050098	44726	110806	0	0	8336	405815	0	0
2024-07-16 06:55:47			0	41845	0	0	0	29070	27680	147937	27234	1050143	44736	110807	0	0	8336	405783	0	0
2024-07-16 06:56:47			0	41859	0	0	0	29075	27680	147857	27248	1050125	44726	110809	0	0	8336	405325	0	0
2024-07-16 06:57:47			0	41850	0	0	0	29067	27680	147841	27308	1050116	44725	110806	0	0	8336	405620	0	0
2024-07-16 06:58:47			0	41857	0	0	0	29059	27670	147821	27093	1050134	44702	110803	0	0	8337	405414	0	0
2024-07-16 06:59:47			0	41859	0	0	0	29059	27670	147841	27178	1050053	44712	110803	0	0	8337	405349	0	0
2024-07-16 07:00:47			0	41865	0	0	0	29057	27670	147817	26854	1050098	44712	110802	0	0	8337	405153	0	0
2024-07-16 07:01:47			0	41869	0	0	0	29059	27670	147713	27308	1050161	44735	110803	0	0	8337	405022	0	0
2024-07-16 07:02:47			0	41871	0	0	0	29062	27670	147789	26949	1050053	44702	110804	0	0	8337	404957	0	0
2024-07-16 07:03:47			0	41884	0	0	0	29062	27670	147733	27187	1050098	44724	110804	0	0	8338	404533	0	0
2024-07-16 07:04:47			0	41883	0	0	0	29064	27660	147769	26852	1050116	44724	110805	0	0	8338	404588	0	0
2024-07-16 07:05:47			0	41895	0	0	0	29064	27680	147761	27202	1050116	44747	110805	0	0	8339	404150	0	0
2024-07-16 07:06:47			0	41902	0	0	0	29059	27670	147653	27130	1050098	44724	110803	0	0	8339	403945	0	0
2024-07-16 07:07:47			0	41915	0	0	0	29067	27680	147797	26961	1050116	44725	110806	0	0	8340	403498	0	0
2024-07-16 07:08:47			0	41912	0	0	0	29067	27670	147701	27230	1050125	44724	110806	0	0	8340	403619	0	0
2024-07-16 07:09:47			0	41914	0	0	0	29067	27670	147601	27343	1050053	44712	110806	0	0	8340	403554	0	0
2024-07-16 07:10:47			0	41918	0	0	0	29064	27670	147545	27267	1050071	44724	110805	0	0	8340	403424	0	0
2024-07-16 07:11:47			0	41922	0	0	0	29072	27680	147605	27268	1050170	44736	110808	0	0	8340	403270	0	0
2024-07-16 07:12:47			0	41938	0	0	0	29064	27680	147573	27348	1050098	44737	110805	0	0	8341	402749	0	0
2024-07-16 07:13:47			0	41932	0	0	0	29075	27670	147609	27327	1050107	44724	110809	0	0	8341	402968	0	0
2024-07-16 07:14:47			0	41939	0	0	0	29075	27680	147549	27182	1050152	44726	110809	0	0	8341	402717	0	0
2024-07-16 07:15:47			0	41955	0	0	0	29070	27680	147529	27100	1050125	44714	110807	0	0	8342	402196	0	0
2024-07-16 07:16:47			0	41944	0	0	0	29072	27680	147461	27348	1050125	44737	110808	0	0	8341	402554	0	0
2024-07-16 07:17:47			0	41961	0	0	0	29085	27670	147501	27121	1050107	44724	110813	0	0	8342	402024	0	0
2024-07-16 07:18:47			0	41954	0	0	0	29072	27680	147525	27046	1050178	44726	110808	0	0	8342	402228	0	0
2024-07-16 07:19:47			0	41973	0	0	0	29075	27680	147489	26904	1050116	44713	110809	0	0	8343	401610	0	0
2024-07-16 07:20:47			0	41960	0	0	0	29072	27680	147329	26800	1050143	44725	110808	0	0	8342	402033	0	0
2024-07-16 07:21:47			0	41975	0	0	0	29077	27680	147417	27241	1050116	44736	110810	0	0	8343	401545	0	0
2024-07-16 07:22:47			0	41975	0	0	0	29072	27680	147329	27180	1050170	44736	110808	0	0	8343	401545	0	0
2024-07-16 07:23:47			0	41973	0	0	0	29077	27680	147281	27145	1050125	44737	110810	0	0	8343	401610	0	0
2024-07-16 07:24:47			0	41980	0	0	0	29085	27680	147265	27194	1050143	44713	110813	0	0	8343	401383	0	0
2024-07-16 07:25:47			0	41985	0	0	0	29075	27680	147273	27189	1050205	44726	110809	0	0	8344	401220	0	0
2024-07-16 07:26:47			0	41989	0	0	0	29077	27680	147333	27336	1050170	44725	110810	0	0	8344	401090	0	0
2024-07-16 07:27:47			0	42010	0	0	0	29083	27680	147369	27383	1050170	44736	110812	0	0	8345	400408	0	0
2024-07-16 07:28:47			0	42016	0	0	0	29080	27690	147361	27220	1050169	44737	110811	0	0	8346	400190	0	0
2024-07-16 07:29:47			0	42013	0	0	0	29083	27680	147273	27050	1050152	44726	110812	0	0	8345	400310	0	0
2024-07-16 07:30:47			0	42018	0	0	0	29088	27680	147293	27398	1050178	44726	110814	0	0	8345	400148	0	0
2024-07-16 07:31:47			0	42018	0	0	0	29093	27690	147273	27225	1050214	44726	110816	0	0	8345	400125	0	0
2024-07-16 07:32:47			0	42039	0	0	0	29090	27690	147345	26899	1050187	44726	110815	0	0	8347	399444	0	0
2024-07-16 07:33:47			0	42025	0	0	0	29075	27680	147317	27088	1050232	44726	110809	0	0	8346	399921	0	0
2024-07-16 07:34:47			0	42030	0	0	0	29083	27680	147273	27305	1050152	44726	110812	0	0	8346	399759	0	0
2024-07-16 07:35:47			0	42058	0	0	0	29088	27680	147157	27227	1050152	44714	110814	0	0	8348	398851	0	0
2024-07-16 07:36:47			0	42040	0	0	0	29072	27680	147129	27251	1050143	44713	110808	0	0	8347	399434	0	0
2024-07-16 07:37:47			0	42053	0	0	0	29085	27690	147141	27338	1050214	44737	110813	0	0	8348	398990	0	0
2024-07-16 07:38:47			0	42053	0	0	0	29080	27680	147069	27194	1050125	44737	110811	0	0	8348	399013	0	0
2024-07-16 07:39:47			0	42060	0	0	0	29072	27690	147101	27537	1050107	44737	110808	0	0	8348	398763	0	0
2024-07-16 07:40:47			0	42068	0	0	0	29075	27670	147113	27189	1050080	44724	110809	0	0	8349	398550	0	0
2024-07-16 07:41:47			0	42080	0	0	0	29070	27670	147110	27298	1050125	44712	110807	0	0	8349	398161	0	0
2024-07-16 07:42:47			0	42067	0	0	0	29070	27680	146997	27104	1050125	44726	110807	0	0	8349	398559	0	0
2024-07-16 07:43:47			0	42090	0	0	0	29077	27690	146986	27303	1050250	44737	110810	0	0	8350	397791	0	0
2024-07-16 07:44:47			0	42073	0	0	0	29080	27680	146933	27372	1050197	44725	110811	0	0	8349	398365	0	0
2024-07-16 07:45:47			0	42086	0	0	0	29088	27680	146966	26942	1050197	44725	110814	0	0	8349	397944	0	0
2024-07-16 07:46:47			0	42094	0	0	0	29090	27690	146998	27495	1050187	44726	110815	0	0	8350	397662	0	0
2024-07-16 07:47:47			0	42095	0	0	0	29093	27690	146982	27471	1050250	44726	110816	0	0	8350	397629	0	0
2024-07-16 07:48:47			0	42088	0	0	0	29083	27690	146990	27225	1050169	44737	110812	0	0	8350	397856	0	0
2024-07-16 07:49:47			0	42095	0	0	0	29088	27690	146894	27168	1050196	44726	110814	0	0	8350	397629	0	0
2024-07-16 07:50:47			0	42121	0	0	0	29083	27690	147010	27440	1050160	44726	110812	0	0	8352	396788	0	0
2024-07-16 07:51:47			0	42102	0	0	0	29080	27690	146986	27223	1050250	44714	110811	0	0	8351	397403	0	0
2024-07-16 07:52:47			0	42102	0	0	0	29080	27690	146966	27053	1050214	44714	110811	0	0	8351	397403	0	0
2024-07-16 07:53:47			0	42104	0	0	0	29080	27680	147026	27279	1050205	44726	110811	0	0	8351	397361	0	0
2024-07-16 07:54:47			0	42107	0	0	0	29088	27680	147022	27131	1050197	44713	110814	0	0	8351	397264	0	0
2024-07-16 07:55:47			0	42103	0	0	0	29083	27690	147030	27377	1050214	44726	110812	0	0	8351	397371	0	0
2024-07-16 07:56:47			0	42115	0	0	0	29090	27700	147014	27405	1050232	44738	110815	0	0	8351	396959	0	0
2024-07-16 07:57:47			0	42118	0	0	0	29096	27700	146970	27166	1050259	44738	110817	0	0	8351	396863	0	0
2024-07-16 07:58:47			0	42123	0	0	0	29093	27700	146946	27478	1050178	44727	110816	0	0	8352	396701	0	0
2024-07-16 07:59:47			0	42114	0	0	0	29096	27700	146906	27447	1050259	44727	110817	0	0	8351	396992	0	0
2024-07-16 08:00:47			0	42099	0	0	0	29101	27700	146982	27353	1050241	44716	110819	0	0	8350	397477	0	0
2024-07-16 08:01:47			0	42098	0	0	0	29103	27700	146914	27189	1050295	44728	110820	0	0	8350	397509	0	0
2024-07-16 08:02:47			0	42101	0	0	0	29109	27710	147082	27093	1050276	44739	110822	0	0	8350	397389	0	0
2024-07-16 08:03:47			0	42118	0	0	0	29111	27710	147034	27320	1050330	44728	110823	0	0	8351	396840	0	0
2024-07-16 08:04:47			0	42099	0	0	0	29114	27710	147102	27543	1050303	44728	110824	0	0	8350	397454	0	0
2024-07-16 08:05:47			0	42085	0	0	0	29122	27710	146974	27216	1050303	44739	110827	0	0	8349	397907	0	0
2024-07-16 08:06:47			0	42092	0	0	0	29119	27710	147142	27469	1050366	44717	110826	0	0	8349	397681	0	0
2024-07-16 08:07:47			0	42084	0	0	0	29109	27710	147078	27417	1050339	44729	110822	0	0	8349	397940	0	0
2024-07-16 08:08:47			0	42091	0	0	0	29116	27710	147114	27182	1050366	44729	110825	0	0	8349	397713	0	0
2024-07-16 08:09:47			0	42091	0	0	0	29114	27700	147110	27317	1050241	44728	110824	0	0	8349	397736	0	0
2024-07-16 08:10:47			0	42085	0	0	0	29114	27710	147130	26811	1050276	44728	110824	0	0	8349	397907	0	0
2024-07-16 08:11:47			0	42096	0	0	0	29124	27700	147062	27192	1050259	44715	110828	0	0	8350	397574	0	0
2024-07-16 08:12:47			0	42080	0	0	0	29122	27700	147078	27476	1050214	44728	110827	0	0	8349	398092	0	0
2024-07-16 08:13:47			0	42069	0	0	0	29122	27710	147041	27478	1050303	44728	110827	0	0	8348	398425	0	0
2024-07-16 08:14:47			0	42087	0	0	0	29122	27700	147094	27185	1050268	44716	110827	0	0	8349	397865	0	0
2024-07-16 08:15:47			0	42073	0	0	0	29103	27700	147025	27365	1050268	44728	110820	0	0	8349	398319	0	0
2024-07-16 08:16:47			0	42050	0	0	0	29106	27700	147073	27083	1050214	44716	110821	0	0	8347	399064	0	0
2024-07-16 08:17:47			0	42061	0	0	0	29098	27690	147077	27391	1050196	44726	110818	0	0	8348	398730	0	0
2024-07-16 08:18:47			0	42069	0	0	0	29093	27700	147137	27235	1050205	44727	110816	0	0	8348	398448	0	0
2024-07-16 08:19:47			0	42057	0	0	0	29088	27690	147145	26977	1050196	44726	110814	0	0	8348	398860	0	0
2024-07-16 08:20:47			0	42041	0	0	0	29077	27690	147149	26963	1050223	44704	110810	0	0	8347	399379	0	0
2024-07-16 08:21:47			0	42051	0	0	0	29088	27690	147201	27100	1050214	44704	110814	0	0	8347	399055	0	0
2024-07-16 08:22:47			0	42047	0	0	0	29070	27690	147141	27157	1050169	44737	110807	0	0	8348	399184	0	0
2024-07-16 08:23:47			0	42034	0	0	0	29075	27690	147197	27093	1050187	44726	110809	0	0	8347	399606	0	0
2024-07-16 08:24:47			0	42053	0	0	0	29080	27680	147141	27152	1050205	44726	110811	0	0	8348	399013	0	0
2024-07-16 08:25:47			0	42045	0	0	0	29077	27680	147309	27244	1050152	44737	110810	0	0	8347	399272	0	0
2024-07-16 08:26:47			0	42029	0	0	0	29072	27690	147369	26778	1050169	44726	110808	0	0	8346	399768	0	0
2024-07-16 08:27:47			0	42024	0	0	0	29072	27680	147333	27064	1050170	44736	110808	0	0	8346	399953	0	0
2024-07-16 08:28:47			0	42023	0	0	0	29067	27680	147281	26934	1050152	44726	110806	0	0	8346	399986	0	0
2024-07-16 08:29:47			0	42044	0	0	0	29070	27680	147229	27514	1050170	44725	110807	0	0	8347	399304	0	0
2024-07-16 08:30:47			0	42027	0	0	0	29064	27680	147129	26939	1050098	44726	110805	0	0	8346	399856	0	0
2024-07-16 08:31:47			0	42031	0	0	0	29062	27680	147229	27244	1050143	44725	110804	0	0	8347	399726	0	0
2024-07-16 08:32:47			0	42028	0	0	0	29059	27680	147237	26953	1050143	44736	110803	0	0	8347	399823	0	0
2024-07-16 08:33:47			0	42036	0	0	0	29059	27670	147193	26902	1050080	44712	110803	0	0	8347	399587	0	0
2024-07-16 08:34:47			0	42009	0	0	0	29064	27680	147221	27130	1050116	44736	110805	0	0	8345	400440	0	0
2024-07-16 08:35:47			0	42009	0	0	0	29067	27680	147149	26994	1050232	44726	110806	0	0	8345	400440	0	0
2024-07-16 08:36:47			0	42027	0	0	0	29064	27680	147253	26909	1050197	44725	110805	0	0	8346	399856	0	0
2024-07-16 08:37:47			0	42031	0	0	0	29054	27680	147261	26946	1050178	44726	110801	0	0	8347	399726	0	0
2024-07-16 08:38:47			0	42019	0	0	0	29059	27680	147329	26968	1050116	44725	110803	0	0	8346	400116	0	0
2024-07-16 08:39:47			0	42013	0	0	0	29067	27680	147325	27026	1050143	44736	110806	0	0	8346	400310	0	0
2024-07-16 08:40:47			0	42016	0	0	0	29062	27680	147393	27005	1050116	44736	110804	0	0	8346	400213	0	0
2024-07-16 08:41:47			0	42002	0	0	0	29070	27680	147289	26774	1050152	44726	110807	0	0	8345	400668	0	0
2024-07-16 08:42:47			0	41987	0	0	0	29067	27680	147321	26793	1050223	44747	110806	0	0	8344	401155	0	0
2024-07-16 08:43:47			0	41985	0	0	0	29072	27670	147301	27123	1050161	44735	110808	0	0	8344	401243	0	0
2024-07-16 08:44:47			0	41990	0	0	0	29075	27680	147365	26946	1050143	44725	110809	0	0	8344	401057	0	0
2024-07-16 08:45:47			0	41991	0	0	0	29075	27690	147369	26698	1050223	44726	110809	0	0	8344	401002	0	0
2024-07-16 08:46:47			0	41999	0	0	0	29080	27680	147413	27261	1050178	44726	110811	0	0	8345	400765	0	0
2024-07-16 08:47:47			0	41983	0	0	0	29075	27690	147505	27104	1050241	44737	110809	0	0	8344	401262	0	0
2024-07-16 08:48:47			0	41963	0	0	0	29083	27690	147413	27256	1050241	44748	110812	0	0	8342	401912	0	0
2024-07-16 08:49:47			0	41968	0	0	0	29090	27690	147437	27159	1050268	44726	110815	0	0	8343	401750	0	0
2024-07-16 08:50:47			0	41960	0	0	0	29083	27700	147429	26793	1050268	44728	110812	0	0	8342	401987	0	0
2024-07-16 08:51:47			0	41962	0	0	0	29090	27680	147485	27467	1050259	44737	110815	0	0	8342	401968	0	0
2024-07-16 08:52:47			0	41946	0	0	0	29093	27690	147441	26812	1050250	44726	110816	0	0	8341	402465	0	0
2024-07-16 08:53:47			0	41972	0	0	0	29090	27700	147413	27126	1050286	44738	110815	0	0	8343	401596	0	0
2024-07-16 08:54:47			0	41949	0	0	0	29093	27700	147509	26849	1050295	44728	110816	0	0	8341	402345	0	0
2024-07-16 08:55:47			0	41948	0	0	0	29098	27700	147417	26960	1050313	44715	110818	0	0	8341	402377	0	0
2024-07-16 08:56:47			0	41957	0	0	0	29096	27710	147533	27019	1050357	44750	110817	0	0	8342	402061	0	0
2024-07-16 08:57:47			0	41963	0	0	0	29101	27700	147397	27144	1050348	44739	110819	0	0	8342	401889	0	0
2024-07-16 08:58:47			0	41971	0	0	0	29103	27710	147401	26902	1050366	44740	110820	0	0	8343	401606	0	0
2024-07-16 08:59:47			0	41958	0	0	0	29103	27710	147425	26771	1050357	44728	110820	0	0	8342	402029	0	0
2024-07-16 09:00:47			0	41961	0	0	0	29096	27710	147429	27130	1050366	44740	110817	0	0	8342	401931	0	0
2024-07-16 09:01:47			0	41957	0	0	0	29109	27720	147473	26984	1050402	44729	110822	0	0	8342	402038	0	0
2024-07-16 09:02:47			0	41962	0	0	0	29111	27710	147525	26932	1050357	44728	110823	0	0	8342	401899	0	0
2024-07-16 09:03:47			0	41959	0	0	0	29114	27710	147469	26847	1050384	44716	110824	0	0	8342	401996	0	0
2024-07-16 09:04:47			0	41955	0	0	0	29119	27710	147337	27159	1050339	44740	110826	0	0	8341	402126	0	0
2024-07-16 09:05:47			0	41952	0	0	0	29129	27720	147449	27256	1050456	44740	110830	0	0	8341	402201	0	0
2024-07-16 09:06:47			0	41959	0	0	0	29127	27720	147309	27159	1050437	44741	110829	0	0	8342	401973	0	0
2024-07-16 09:07:47			0	41959	0	0	0	29137	27730	147385	27119	1050527	44752	110833	0	0	8341	401950	0	0
2024-07-16 09:08:47			0	41948	0	0	0	29145	27730	147481	26982	1050536	44730	110836	0	0	8341	402308	0	0
2024-07-16 09:09:47			0	41980	0	0	0	29142	27730	147429	26909	1050482	44742	110835	0	0	8343	401267	0	0
2024-07-16 09:10:47			0	41966	0	0	0	29137	27730	147333	27114	1050428	44730	110833	0	0	8342	401722	0	0
2024-07-16 09:11:47			0	41950	0	0	0	29145	27740	147445	27053	1050464	44742	110836	0	0	8341	402219	0	0
2024-07-16 09:12:47			0	41946	0	0	0	29140	27740	147333	26922	1050527	44731	110834	0	0	8341	402350	0	0
2024-07-16 09:13:47			0	41957	0	0	0	29142	27740	147337	26916	1050518	44742	110835	0	0	8341	401992	0	0
2024-07-16 09:14:47			0	41973	0	0	0	29153	27750	147345	26982	1050562	44732	110839	0	0	8342	401448	0	0
2024-07-16 09:15:47			0	41952	0	0	0	29148	27740	147373	26734	1050607	44743	110837	0	0	8341	402154	0	0
2024-07-16 09:16:47			0	41965	0	0	0	29158	27760	147369	26795	1050661	44744	110841	0	0	8342	401685	0	0
2024-07-16 09:17:47			0	41970	0	0	0	29163	27750	147393	26974	1050589	44744	110843	0	0	8342	401546	0	0
2024-07-16 09:18:47			0	41964	0	0	0	29161	27750	147381	26800	1050625	44744	110842	0	0	8341	401741	0	0
2024-07-16 09:19:47			0	41963	0	0	0	29168	27750	147313	27187	1050598	44732	110845	0	0	8341	401773	0	0
2024-07-16 09:20:47			0	41930	0	0	0	29163	27770	147361	26743	1050652	44756	110843	0	0	8339	402801	0	0
2024-07-16 09:21:47			0	41942	0	0	0	29173	27760	147413	27052	1050616	44745	110847	0	0	8340	402433	0	0
2024-07-16 09:22:47			0	41949	0	0	0	29179	27760	147293	26850	1050697	44745	110849	0	0	8340	402206	0	0
2024-07-16 09:23:47			0	41965	0	0	0	29184	27770	147333	26746	1050714	44734	110851	0	0	8341	401662	0	0
2024-07-16 09:24:47			0	41951	0	0	0	29186	27780	147373	27092	1050777	44734	110852	0	0	8340	402094	0	0
2024-07-16 09:25:47			0	41965	0	0	0	29199	27780	147309	27256	1050777	44723	110857	0	0	8341	401639	0	0
2024-07-16 09:26:47			0	41941	0	0	0	29194	27780	147397	27152	1050750	44756	110855	0	0	8340	402419	0	0
2024-07-16 09:27:47			0	41974	0	0	0	29192	27790	147357	27097	1050741	44748	110854	0	0	8342	401323	0	0
2024-07-16 09:28:47			0	41936	0	0	0	29192	27790	147329	27201	1050822	44758	110854	0	0	8339	402559	0	0
2024-07-16 09:29:47			0	41961	0	0	0	29202	27790	147213	27112	1050858	44749	110858	0	0	8341	401746	0	0
2024-07-16 09:30:47			0	41953	0	0	0	29202	27790	147297	27329	1050849	44736	110858	0	0	8340	402006	0	0
2024-07-16 09:31:47			0	41944	0	0	0	29202	27800	147381	26915	1050840	44726	110858	0	0	8340	402276	0	0
2024-07-16 09:32:47			0	41952	0	0	0	29197	27790	147289	26896	1050831	44737	110856	0	0	8340	402039	0	0
2024-07-16 09:33:47			0	41959	0	0	0	29205	27800	147357	27303	1050813	44726	110859	0	0	8341	401788	0	0
2024-07-16 09:34:47			0	41957	0	0	0	29202	27800	147409	27079	1050840	44749	110858	0	0	8341	401853	0	0
2024-07-16 09:35:47			0	41960	0	0	0	29210	27810	147325	27170	1050821	44749	110861	0	0	8341	401732	0	0
2024-07-16 09:36:47			0	41957	0	0	0	29207	27810	147261	27313	1050857	44749	110860	0	0	8340	401830	0	0
2024-07-16 09:37:47			0	41942	0	0	0	29215	27810	147341	27377	1050929	44737	110863	0	0	8339	402317	0	0
2024-07-16 09:38:47			0	41948	0	0	0	29218	27820	147325	26928	1050893	44739	110864	0	0	8340	402099	0	0
2024-07-16 09:39:47			0	41942	0	0	0	29228	27810	147321	27412	1050911	44738	110868	0	0	8339	402317	0	0
2024-07-16 09:40:47			0	41950	0	0	0	29228	27820	147437	27241	1050929	44750	110868	0	0	8340	402034	0	0
2024-07-16 09:41:47			0	41954	0	0	0	29231	27820	147309	27222	1051001	44728	110869	0	0	8340	401904	0	0
2024-07-16 09:42:47			0	41953	0	0	0	29241	27830	147277	27005	1050964	44739	110873	0	0	8340	401913	0	0
2024-07-16 09:43:47			0	41950	0	0	0	29233	27840	147273	26960	1051126	44741	110870	0	0	8340	401988	0	0
2024-07-16 09:44:47			0	41946	0	0	0	29244	27840	147297	27124	1051099	44751	110874	0	0	8339	402118	0	0
2024-07-16 09:45:47			0	41947	0	0	0	29249	27850	147341	27277	1051000	44730	110876	0	0	8339	402062	0	0
2024-07-16 09:46:47			0	41955	0	0	0	29264	27860	147289	27105	1051134	44744	110882	0	0	8340	401779	0	0
2024-07-16 09:47:47			0	41943	0	0	0	29267	27850	147285	27261	1051170	44742	110883	0	0	8339	402192	0	0
2024-07-16 09:48:47			0	41945	0	0	0	29262	27860	147301	27209	1051179	44743	110881	0	0	8339	402104	0	0
2024-07-16 09:49:47			0	41927	0	0	0	29267	27860	147317	27234	1051179	44743	110883	0	0	8338	402690	0	0
2024-07-16 09:50:47			0	41941	0	0	0	29270	27860	147317	27251	1051215	44766	110884	0	0	8339	402234	0	0
2024-07-16 09:51:47			0	41952	0	0	0	29283	27860	147305	27367	1051269	44754	110889	0	0	8339	401876	0	0
2024-07-16 09:52:47			0	41935	0	0	0	29277	27880	147317	27126	1051268	44755	110887	0	0	8338	402383	0	0
2024-07-16 09:53:47			0	41942	0	0	0	29283	27870	147257	27336	1051170	44744	110889	0	0	8339	402178	0	0
2024-07-16 09:54:47			0	41961	0	0	0	29280	27870	147225	27159	1051206	44744	110888	0	0	8340	401561	0	0
2024-07-16 09:55:47			0	41944	0	0	0	29283	27870	147245	27126	1051232	44744	110889	0	0	8339	402113	0	0
2024-07-16 09:56:47			0	41930	0	0	0	29285	27870	147209	27098	1051232	44744	110890	0	0	8338	402569	0	0
2024-07-16 09:57:47			0	41946	0	0	0	29288	27870	147273	26982	1051277	44744	110891	0	0	8339	402048	0	0
2024-07-16 09:58:47			0	41962	0	0	0	29277	27880	147341	27135	1051268	44745	110887	0	0	8340	401505	0	0
2024-07-16 09:59:47			0	41935	0	0	0	29288	27890	147309	27029	1051259	44756	110891	0	0	8338	402360	0	0
2024-07-16 10:00:47			0	41956	0	0	0	29293	27880	147189	26909	1051331	44756	110893	0	0	8339	401700	0	0
2024-07-16 10:01:47			0	41955	0	0	0	29298	27880	147301	27161	1051304	44746	110895	0	0	8339	401733	0	0
2024-07-16 10:02:47			0	41933	0	0	0	29293	27890	147197	27241	1051348	44756	110893	0	0	8338	402425	0	0
2024-07-16 10:03:47			0	41962	0	0	0	29301	27880	147241	27029	1051331	44734	110896	0	0	8339	401505	0	0
2024-07-16 10:04:47			0	41932	0	0	0	29298	27890	147297	26993	1051322	44746	110895	0	0	8338	402457	0	0
2024-07-16 10:05:47			0	41954	0	0	0	29301	27890	147273	27441	1051268	44746	110896	0	0	8339	401742	0	0
2024-07-16 10:06:47			0	41947	0	0	0	29306	27890	147257	27275	1051402	44734	110898	0	0	8339	401970	0	0
2024-07-16 10:07:47			0	41946	0	0	0	29298	27900	147277	27334	1051393	44758	110895	0	0	8339	401979	0	0
2024-07-16 10:08:47			0	41961	0	0	0	29314	27900	147333	27438	1051366	44748	110901	0	0	8339	401491	0	0
2024-07-16 10:09:47			0	41965	0	0	0	29311	27910	147245	27015	1051429	44758	110900	0	0	8340	401338	0	0
2024-07-16 10:10:47			0	41954	0	0	0	29316	27910	147185	27215	1051456	44748	110902	0	0	8339	401696	0	0
2024-07-16 10:11:47			0	41950	0	0	0	29311	27910	147233	27197	1051456	44748	110900	0	0	8339	401825	0	0
2024-07-16 10:12:47			0	41940	0	0	0	29316	27910	147209	27194	1051537	44758	110902	0	0	8338	402151	0	0
2024-07-16 10:13:47			0	41963	0	0	0	29322	27910	147205	27079	1051465	44748	110904	0	0	8339	401403	0	0
2024-07-16 10:14:47			0	41974	0	0	0	29327	27920	147185	27218	1051501	44749	110906	0	0	8340	401023	0	0
2024-07-16 10:15:47			0	41947	0	0	0	29324	27920	147225	27204	1051536	44750	110905	0	0	8338	401900	0	0
2024-07-16 10:16:47			0	41964	0	0	0	29327	27920	147213	27107	1051483	44750	110906	0	0	8339	401347	0	0
2024-07-16 10:17:47			0	41954	0	0	0	29340	27920	147201	27140	1051581	44749	110911	0	0	8339	401672	0	0
2024-07-16 10:18:47			0	41968	0	0	0	29340	27930	147269	27286	1051572	44750	110911	0	0	8339	401194	0	0
2024-07-16 10:19:47			0	41969	0	0	0	29335	27930	147149	27039	1051635	44761	110909	0	0	8340	401162	0	0
2024-07-16 10:20:47			0	41965	0	0	0	29340	27930	147149	27208	1051572	44750	110911	0	0	8339	401292	0	0
2024-07-16 10:21:47			0	41972	0	0	0	29348	27940	147137	27086	1051617	44761	110914	0	0	8340	401041	0	0
2024-07-16 10:22:47			0	41970	0	0	0	29332	27940	147173	27150	1051590	44750	110908	0	0	8340	401106	0	0
2024-07-16 10:23:47			0	41975	0	0	0	29335	27940	147185	27029	1051671	44750	110909	0	0	8340	400944	0	0
2024-07-16 10:24:47			0	41991	0	0	0	29337	27940	147181	26958	1051572	44762	110910	0	0	8341	400425	0	0
2024-07-16 10:25:47			0	41982	0	0	0	29340	27940	147233	27246	1051671	44750	110911	0	0	8340	400717	0	0
2024-07-16 10:26:47			0	41981	0	0	0	29340	27940	147201	27085	1051590	44761	110911	0	0	8340	400749	0	0
2024-07-16 10:27:47			0	42002	0	0	0	29340	27940	147113	27137	1051671	44761	110911	0	0	8341	400068	0	0
2024-07-16 10:28:47			0	41973	0	0	0	29353	27950	147129	27067	1051661	44763	110916	0	0	8340	400986	0	0
2024-07-16 10:29:47			0	41982	0	0	0	29366	27960	147165	26901	1051787	44763	110921	0	0	8340	400671	0	0
2024-07-16 10:30:47			0	41967	0	0	0	29389	27960	147201	26902	1051841	44774	110930	0	0	8339	401158	0	0
2024-07-16 10:31:47			0	41979	0	0	0	29399	27970	147205	26878	1051867	44776	110934	0	0	8339	400745	0	0
2024-07-16 10:32:47			0	41969	0	0	0	29397	27980	147281	26838	1051849	44765	110933	0	0	8339	401046	0	0
2024-07-16 10:33:47			0	41983	0	0	0	29410	27990	147181	27105	1051921	44755	110938	0	0	8339	400569	0	0
2024-07-16 10:34:47			0	41969	0	0	0	29410	27990	147201	27112	1052010	44755	110938	0	0	8338	401023	0	0
2024-07-16 10:35:47			0	41971	0	0	0	29394	27990	147209	27123	1051894	44767	110932	0	0	8339	400958	0	0
2024-07-16 10:36:47			0	41980	0	0	0	29412	28000	147181	26759	1051885	44756	110939	0	0	8339	400643	0	0
2024-07-16 10:37:47			0	41980	0	0	0	29399	28000	147129	27012	1051947	44768	110934	0	0	8339	400643	0	0
2024-07-16 10:38:47			0	41980	0	0	0	29407	28000	147233	27183	1051974	44756	110937	0	0	8339	400643	0	0
2024-07-16 10:39:47			0	41984	0	0	0	29402	28000	147153	26736	1051974	44768	110935	0	0	8340	400513	0	0
2024-07-16 10:40:47			0	41998	0	0	0	29407	28000	147137	26578	1051965	44756	110937	0	0	8340	400059	0	0
2024-07-16 10:41:47			0	41987	0	0	0	29412	28000	146993	26741	1052001	44756	110939	0	0	8340	400416	0	0
2024-07-16 10:42:47			0	41985	0	0	0	29415	28020	147053	27161	1052028	44770	110940	0	0	8339	400435	0	0
2024-07-16 10:43:47			0	41985	0	0	0	29405	28010	147149	26783	1052010	44769	110936	0	0	8340	400458	0	0
2024-07-16 10:44:47			0	41994	0	0	0	29407	28010	147081	27081	1051956	44769	110937	0	0	8340	400166	0	0
2024-07-16 10:45:47			0	42014	0	0	0	29394	28010	147085	27173	1051965	44748	110932	0	0	8341	399517	0	0
2024-07-16 10:46:47			0	41998	0	0	0	29389	28010	147009	26812	1051992	44758	110930	0	0	8341	400036	0	0
2024-07-16 10:47:47			0	41990	0	0	0	29392	28000	147025	27066	1051974	44756	110931	0	0	8340	400319	0	0
2024-07-16 10:48:47			0	42002	0	0	0	29397	28010	147017	26927	1051929	44747	110933	0	0	8341	399906	0	0
2024-07-16 10:49:47			0	42003	0	0	0	29392	28000	146945	26972	1051965	44756	110931	0	0	8341	399897	0	0
2024-07-16 10:50:47			0	41976	0	0	0	29392	28000	147001	27145	1051938	44768	110931	0	0	8339	400773	0	0
2024-07-16 10:51:47			0	41989	0	0	0	29407	28010	147041	27152	1051956	44769	110937	0	0	8340	400328	0	0
2024-07-16 10:52:47			0	42008	0	0	0	29412	28000	147009	26977	1051938	44746	110939	0	0	8341	399735	0	0
2024-07-16 10:53:47			0	42012	0	0	0	29402	28010	147065	27216	1051929	44757	110935	0	0	8341	399582	0	0
2024-07-16 10:54:47			0	41998	0	0	0	29407	28010	147029	27138	1051983	44747	110937	0	0	8340	400036	0	0
2024-07-16 10:55:47			0	42008	0	0	0	29415	28010	147033	27046	1051992	44758	110940	0	0	8341	399712	0	0
2024-07-16 10:56:47			0	41988	0	0	0	29412	28010	147109	27187	1051992	44770	110939	0	0	8340	400360	0	0
2024-07-16 10:57:47			0	41993	0	0	0	29415	28020	147013	26889	1052055	44770	110940	0	0	8340	400175	0	0
2024-07-16 10:58:47			0	42007	0	0	0	29415	28020	146997	27105	1052001	44758	110940	0	0	8341	399721	0	0
2024-07-16 10:59:47			0	42010	0	0	0	29412	28020	146993	27255	1052063	44770	110939	0	0	8341	399624	0	0
2024-07-16 11:00:47			0	41993	0	0	0	29420	28020	146917	27003	1052117	44770	110942	0	0	8340	400175	0	0
2024-07-16 11:01:47			0	42003	0	0	0	29436	28020	146981	27216	1052090	44770	110948	0	0	8340	399851	0	0
2024-07-16 11:02:47			0	42004	0	0	0	29433	28030	146989	27140	1052207	44771	110947	0	0	8340	399795	0	0
2024-07-16 11:03:47			0	41996	0	0	0	29436	28040	147053	27104	1052171	44783	110948	0	0	8340	400032	0	0
2024-07-16 11:04:47			0	42002	0	0	0	29454	28040	146965	27022	1052180	44772	110955	0	0	8340	399837	0	0
2024-07-16 11:05:47			0	41990	0	0	0	29454	28050	146993	27046	1052269	44761	110955	0	0	8339	400203	0	0
2024-07-16 11:06:47			0	42005	0	0	0	29451	28050	146965	27272	1052198	44762	110954	0	0	8340	399717	0	0
2024-07-16 11:07:47			0	41991	0	0	0	29464	28060	146977	27203	1052269	44796	110959	0	0	8339	400148	0	0
2024-07-16 11:08:47			0	42005	0	0	0	29462	28060	146949	26835	1052287	44762	110958	0	0	8340	399694	0	0
2024-07-16 11:09:47			0	42003	0	0	0	29454	28060	147053	27019	1052323	44763	110955	0	0	8340	399759	0	0
2024-07-16 11:10:47			0	42011	0	0	0	29454	28060	147077	27228	1052269	44763	110955	0	0	8340	399499	0	0
2024-07-16 11:11:47			0	42003	0	0	0	29459	28060	146989	27140	1052323	44763	110957	0	0	8340	399759	0	0
2024-07-16 11:12:47			0	42004	0	0	0	29480	28060	147053	27147	1052350	44786	110965	0	0	8340	399726	0	0
2024-07-16 11:13:47			0	42005	0	0	0	29483	28070	147025	26713	1052305	44763	110966	0	0	8340	399671	0	0
2024-07-16 11:14:47			0	41996	0	0	0	29477	28060	147037	26764	1052350	44763	110964	0	0	8339	399986	0	0
2024-07-16 11:15:47			0	42005	0	0	0	29464	28060	146997	26987	1052287	44762	110959	0	0	8340	399694	0	0
2024-07-16 11:16:47			0	42008	0	0	0	29475	28070	146965	26942	1052341	44775	110963	0	0	8340	399574	0	0
2024-07-16 11:17:47			0	41987	0	0	0	29464	28080	146937	27152	1052323	44753	110959	0	0	8339	400231	0	0
2024-07-16 11:18:47			0	41987	0	0	0	29467	28080	147081	27296	1052350	44775	110960	0	0	8339	400231	0	0
2024-07-16 11:19:47			0	41987	0	0	0	29472	28080	147069	27232	1052350	44775	110962	0	0	8339	400231	0	0
2024-07-16 11:20:47			0	41983	0	0	0	29490	28080	147045	26861	1052466	44776	110969	0	0	8338	400361	0	0
2024-07-16 11:21:47			0	41991	0	0	0	29522	28100	147129	26755	1052493	44778	110981	0	0	8338	400055	0	0
2024-07-16 11:22:47			0	41972	0	0	0	29535	28090	147089	26734	1052484	44777	110986	0	0	8337	400695	0	0
2024-07-16 11:23:47			0	41966	0	0	0	29548	28110	147153	26960	1052591	44791	110991	0	0	8336	400843	0	0
2024-07-16 11:24:47			0	41958	0	0	0	29540	28120	147157	26986	1052627	44779	110988	0	0	8336	401080	0	0
2024-07-16 11:25:47			0	41962	0	0	0	29548	28130	147037	26920	1052626	44781	110991	0	0	8336	400926	0	0
2024-07-16 11:26:47			0	41970	0	0	0	29542	28130	147113	27145	1052591	44780	110989	0	0	8337	400667	0	0
2024-07-16 11:27:47			0	41971	0	0	0	29537	28130	147169	26923	1052564	44780	110987	0	0	8337	400635	0	0
2024-07-16 11:28:47			0	41974	0	0	0	29537	28140	147109	26783	1052608	44770	110987	0	0	8337	400514	0	0
2024-07-16 11:29:47			0	41957	0	0	0	29537	28130	147073	27244	1052600	44770	110987	0	0	8336	401089	0	0
2024-07-16 11:30:47			0	41957	0	0	0	29545	28140	146985	26835	1052608	44770	110990	0	0	8336	401066	0	0
2024-07-16 11:31:47			0	41957	0	0	0	29537	28130	147105	26866	1052626	44770	110987	0	0	8336	401089	0	0
2024-07-16 11:32:47			0	41962	0	0	0	29550	28140	147193	26920	1052671	44782	110992	0	0	8336	400903	0	0
2024-07-16 11:33:47			0	41950	0	0	0	29550	28140	147201	26748	1052716	44770	110992	0	0	8336	401293	0	0
2024-07-16 11:34:47			0	41948	0	0	0	29535	28140	147149	27163	1052689	44770	110986	0	0	8336	401358	0	0
2024-07-16 11:35:47			0	41952	0	0	0	29535	28140	147165	27045	1052698	44782	110986	0	0	8336	401228	0	0
2024-07-16 11:36:47			0	41947	0	0	0	29532	28140	147057	27135	1052671	44771	110985	0	0	8336	401390	0	0
2024-07-16 11:37:47			0	41962	0	0	0	29537	28140	147065	27079	1052689	44770	110987	0	0	8337	400903	0	0
2024-07-16 11:38:47			0	41955	0	0	0	29537	28150	147113	26667	1052734	44793	110987	0	0	8336	401107	0	0
2024-07-16 11:39:47			0	41954	0	0	0	29553	28150	147065	27022	1052734	44771	110993	0	0	8336	401140	0	0
2024-07-16 11:40:47			0	41923	0	0	0	29558	28150	147113	27079	1052788	44793	110995	0	0	8334	402147	0	0
2024-07-16 11:41:47			0	41927	0	0	0	29571	28150	147121	26791	1052770	44772	111000	0	0	8334	402016	0	0
2024-07-16 11:42:47			0	41931	0	0	0	29568	28150	147105	26691	1052770	44760	110999	0	0	8334	401887	0	0
2024-07-16 11:43:47			0	41942	0	0	0	29576	28160	147221	26972	1052913	44794	111002	0	0	8335	401506	0	0
2024-07-16 11:44:47			0	41933	0	0	0	29599	28170	147193	27109	1053039	44795	111011	0	0	8334	401775	0	0
2024-07-16 11:45:47			0	41919	0	0	0	29618	28190	147229	27008	1053020	44796	111018	0	0	8333	402184	0	0
2024-07-16 11:46:47			0	41907	0	0	0	29625	28190	147245	26916	1053101	44775	111021	0	0	8332	402574	0	0
2024-07-16 11:47:47			0	41929	0	0	0	29628	28200	147261	27268	1053101	44788	111022	0	0	8333	401835	0	0
2024-07-16 11:48:47			0	41934	0	0	0	29628	28210	147165	26993	1053110	44778	111022	0	0	8334	401650	0	0
2024-07-16 11:49:47			0	41930	0	0	0	29638	28200	147141	27116	1053155	44798	111026	0	0	8333	401803	0	0
2024-07-16 11:50:47			0	41911	0	0	0	29633	28210	147213	26674	1053145	44799	111024	0	0	8332	402397	0	0
2024-07-16 11:51:47			0	41923	0	0	0	29638	28220	147189	26826	1053109	44790	111026	0	0	8333	401984	0	0
2024-07-16 11:52:47			0	41903	0	0	0	29638	28210	147041	27076	1053172	44789	111026	0	0	8332	402657	0	0
2024-07-16 11:53:47			0	41919	0	0	0	29638	28230	147213	27026	1053235	44791	111026	0	0	8333	402091	0	0
2024-07-16 11:54:47			0	41913	0	0	0	29636	28230	147181	26880	1053235	44801	111025	0	0	8332	402286	0	0
2024-07-16 11:55:47			0	41922	0	0	0	29644	28230	147133	26953	1053181	44801	111028	0	0	8333	401993	0	0
2024-07-16 11:56:47			0	41922	0	0	0	29644	28240	147193	26772	1053271	44780	111028	0	0	8333	401970	0	0
2024-07-16 11:57:47			0	41910	0	0	0	29646	28250	147189	26963	1053288	44792	111029	0	0	8332	402337	0	0
2024-07-16 11:58:47			0	41905	0	0	0	29659	28250	147129	27131	1053297	44803	111034	0	0	8332	402499	0	0
2024-07-16 11:59:47			0	41912	0	0	0	29670	28260	147105	27130	1053333	44793	111038	0	0	8332	402248	0	0
2024-07-16 12:00:47			0	41911	0	0	0	29685	28260	147129	26670	1053396	44805	111044	0	0	8332	402281	0	0
2024-07-16 12:01:47			0	41912	0	0	0	29688	28260	147253	27074	1053450	44805	111045	0	0	8332	402248	0	0
2024-07-16 12:02:47			0	41905	0	0	0	29690	28280	147125	26909	1053477	44795	111046	0	0	8331	402429	0	0
2024-07-16 12:03:47			0	41919	0	0	0	29683	28270	147097	26765	1053378	44783	111043	0	0	8332	401998	0	0
2024-07-16 12:04:47			0	41913	0	0	0	29672	28280	147169	27001	1053423	44795	111039	0	0	8332	402170	0	0
2024-07-16 12:05:47			0	41902	0	0	0	29685	28280	147165	27133	1053396	44795	111044	0	0	8331	402527	0	0
2024-07-16 12:06:47			0	41919	0	0	0	29677	28280	147233	27013	1053423	44795	111041	0	0	8332	401975	0	0
2024-07-16 12:07:47			0	41897	0	0	0	29690	28280	147109	26863	1053459	44807	111046	0	0	8331	402689	0	0
2024-07-16 12:08:47			0	41920	0	0	0	29701	28280	147253	26967	1053477	44795	111050	0	0	8332	401942	0	0
2024-07-16 12:09:47			0	41910	0	0	0	29706	28280	147229	27234	1053504	44795	111052	0	0	8331	402267	0	0
2024-07-16 12:10:47			0	41897	0	0	0	29701	28300	147157	27015	1053575	44787	111050	0	0	8331	402643	0	0
2024-07-16 12:11:47			0	41903	0	0	0	29711	28310	147161	27039	1053584	44799	111054	0	0	8331	402424	0	0
2024-07-16 12:12:47			0	41916	0	0	0	29711	28310	147217	26871	1053584	44788	111054	0	0	8332	402002	0	0
2024-07-16 12:13:47			0	41909	0	0	0	29714	28310	147129	26927	1053593	44799	111055	0	0	8331	402230	0	0
2024-07-16 12:14:47			0	41917	0	0	0	29714	28310	147193	26871	1053584	44799	111055	0	0	8332	401970	0	0
2024-07-16 12:15:47			0	41913	0	0	0	29724	28310	147141	27253	1053557	44810	111059	0	0	8331	402100	0	0
2024-07-16 12:16:47			0	41907	0	0	0	29722	28320	147185	27161	1053682	44788	111058	0	0	8331	402271	0	0
2024-07-16 12:17:47			0	41920	0	0	0	29727	28310	147165	27338	1053646	44799	111060	0	0	8332	401873	0	0
2024-07-16 12:18:47			0	41922	0	0	0	29740	28320	147121	26951	1053691	44800	111065	0	0	8332	401784	0	0
2024-07-16 12:19:47			0	41913	0	0	0	29742	28330	147177	27085	1053727	44801	111066	0	0	8331	402053	0	0
2024-07-16 12:20:47			0	41911	0	0	0	29750	28340	147129	26968	1053727	44813	111069	0	0	8331	402095	0	0
2024-07-16 12:21:47			0	41905	0	0	0	29755	28340	147089	26644	1053772	44801	111071	0	0	8330	402290	0	0
2024-07-16 12:22:47			0	41914	0	0	0	29771	28350	147117	27161	1053870	44814	111077	0	0	8331	401974	0	0
2024-07-16 12:23:47			0	41920	0	0	0	29789	28360	147033	27287	1054004	44803	111084	0	0	8331	401756	0	0
2024-07-16 12:24:47			0	41921	0	0	0	29799	28380	147129	27150	1054004	44828	111088	0	0	8331	401677	0	0
2024-07-16 12:25:47			0	41898	0	0	0	29805	28380	147149	27213	1053923	44805	111090	0	0	8329	402424	0	0
2024-07-16 12:26:47			0	41907	0	0	0	29781	28370	147097	26880	1053968	44805	111081	0	0	8330	402155	0	0
2024-07-16 12:27:47			0	41911	0	0	0	29771	28370	147113	27031	1053887	44783	111077	0	0	8331	402025	0	0
2024-07-16 12:28:47			0	41921	0	0	0	29776	28360	147069	26798	1053897	44792	111079	0	0	8331	401724	0	0
2024-07-16 12:29:47			0	41910	0	0	0	29768	28370	147113	27284	1053914	44794	111076	0	0	8331	402058	0	0
2024-07-16 12:30:47			0	41910	0	0	0	29763	28380	147009	27178	1053950	44805	111074	0	0	8331	402034	0	0
2024-07-16 12:31:47			0	41908	0	0	0	29779	28380	147077	26871	1053959	44805	111080	0	0	8330	402099	0	0
2024-07-16 12:32:47			0	41917	0	0	0	29779	28380	147001	27220	1053986	44817	111080	0	0	8331	401807	0	0
2024-07-16 12:33:47			0	41912	0	0	0	29789	28400	146985	27208	1054085	44830	111084	0	0	8330	401923	0	0
2024-07-16 12:34:47			0	41894	0	0	0	29805	28400	147077	27123	1054085	44807	111090	0	0	8329	402507	0	0
2024-07-16 12:35:47			0	41908	0	0	0	29794	28420	147109	27499	1054147	44798	111086	0	0	8330	402006	0	0
2024-07-16 12:36:47			0	41894	0	0	0	29786	28410	147017	26901	1054058	44797	111083	0	0	8330	402484	0	0
2024-07-16 12:37:47			0	41903	0	0	0	29786	28420	147045	27253	1054093	44787	111083	0	0	8330	402169	0	0
2024-07-16 12:38:47			0	41915	0	0	0	29784	28410	147013	26993	1054085	44808	111082	0	0	8331	401802	0	0
2024-07-16 12:39:47			0	41901	0	0	0	29794	28420	146989	26811	1054102	44798	111086	0	0	8330	402234	0	0
2024-07-16 12:40:47			0	41908	0	0	0	29812	28430	146929	26927	1054165	44809	111093	0	0	8330	401983	0	0
2024-07-16 12:41:47			0	41904	0	0	0	29836	28430	146909	26663	1054309	44833	111102	0	0	8329	402113	0	0
2024-07-16 12:42:47			0	41890	0	0	0	29854	28440	146945	27055	1054407	44823	111109	0	0	8328	402544	0	0
2024-07-16 12:43:47			0	41911	0	0	0	29864	28450	146985	26798	1054371	44823	111113	0	0	8329	401839	0	0
2024-07-16 12:44:47			0	41910	0	0	0	29864	28460	146937	26816	1054380	44802	111113	0	0	8329	401849	0	0
2024-07-16 12:45:47			0	41913	0	0	0	29867	28460	147029	26653	1054389	44814	111114	0	0	8329	401751	0	0
2024-07-16 12:46:47			0	41891	0	0	0	29859	28460	147041	27015	1054443	44814	111111	0	0	8328	402465	0	0
2024-07-16 12:47:47			0	41881	0	0	0	29870	28460	147021	26571	1054470	44814	111115	0	0	8328	402790	0	0
2024-07-16 12:48:47			0	41910	0	0	0	29875	28470	147049	27194	1054425	44814	111117	0	0	8329	401825	0	0
2024-07-16 12:49:47			0	41906	0	0	0	29872	28480	146981	26791	1054478	44816	111116	0	0	8329	401932	0	0
2024-07-16 12:50:47			0	41895	0	0	0	29875	28480	146945	26701	1054415	44815	111117	0	0	8328	402289	0	0
2024-07-16 12:51:47			0	41900	0	0	0	29862	28470	147037	26916	1054406	44825	111112	0	0	8329	402150	0	0
2024-07-16 12:52:47			0	41895	0	0	0	29849	28470	146901	26981	1054379	44791	111107	0	0	8329	402312	0	0
2024-07-16 12:53:47			0	41879	0	0	0	29844	28470	146965	26833	1054425	44802	111105	0	0	8328	402832	0	0
2024-07-16 12:54:47			0	41897	0	0	0	29846	28480	147089	27223	1054397	44804	111106	0	0	8329	402224	0	0
2024-07-16 12:55:47			0	41887	0	0	0	29841	28470	147121	26892	1054433	44802	111104	0	0	8328	402572	0	0
2024-07-16 12:56:47			0	41904	0	0	0	29851	28470	147021	26830	1054406	44802	111108	0	0	8329	402020	0	0
2024-07-16 12:57:47			0	41887	0	0	0	29864	28480	147057	27093	1054424	44827	111113	0	0	8328	402549	0	0
2024-07-16 12:58:47			0	41888	0	0	0	29877	28490	147101	26984	1054487	44816	111118	0	0	8328	402493	0	0
2024-07-16 12:59:47			0	41883	0	0	0	29883	28490	147201	26955	1054550	44804	111120	0	0	8328	402655	0	0
2024-07-16 13:00:47			0	41875	0	0	0	29896	28490	147105	27105	1054595	44816	111125	0	0	8327	402915	0	0
2024-07-16 13:01:47			0	41869	0	0	0	29906	28490	147117	27079	1054577	44816	111129	0	0	8326	403110	0	0
2024-07-16 13:02:47			0	41856	0	0	0	29906	28500	147085	27074	1054594	44829	111129	0	0	8326	403509	0	0
2024-07-16 13:03:47			0	41862	0	0	0	29909	28510	147097	27036	1054666	44819	111130	0	0	8326	403291	0	0
2024-07-16 13:04:47			0	41852	0	0	0	29937	28510	147173	26991	1054828	44819	111141	0	0	8325	403616	0	0
2024-07-16 13:05:47			0	41863	0	0	0	29945	28530	147109	26960	1054801	44821	111144	0	0	8326	403212	0	0
2024-07-16 13:06:47			0	41841	0	0	0	29963	28530	147241	27034	1054863	44832	111151	0	0	8324	403927	0	0
2024-07-16 13:07:47			0	41836	0	0	0	29966	28540	147125	27109	1054854	44833	111152	0	0	8324	404066	0	0
2024-07-16 13:08:47			0	41827	0	0	0	29961	28540	147069	27272	1054854	44810	111150	0	0	8323	404359	0	0
2024-07-16 13:09:47			0	41852	0	0	0	29958	28550	147225	27019	1054917	44823	111149	0	0	8325	403523	0	0
2024-07-16 13:10:47			0	41841	0	0	0	29963	28540	147125	26955	1054908	44833	111151	0	0	8324	403904	0	0
2024-07-16 13:11:47			0	41837	0	0	0	29961	28560	147145	26960	1054908	44823	111150	0	0	8324	403987	0	0
2024-07-16 13:12:47			0	41843	0	0	0	29961	28560	147165	26994	1054962	44823	111150	0	0	8324	403792	0	0
2024-07-16 13:13:47			0	41826	0	0	0	29963	28560	147197	27137	1054935	44823	111151	0	0	8323	404345	0	0
2024-07-16 13:14:47			0	41849	0	0	0	29968	28560	147053	27079	1054944	44824	111153	0	0	8324	403597	0	0
2024-07-16 13:15:47			0	41828	0	0	0	29966	28570	147289	26805	1054961	44813	111152	0	0	8323	404256	0	0
2024-07-16 13:16:47			0	41829	0	0	0	29968	28560	147157	27105	1054944	44812	111153	0	0	8323	404247	0	0
2024-07-16 13:17:47			0	41836	0	0	0	29963	28570	147101	26802	1054988	44802	111151	0	0	8324	403996	0	0
2024-07-16 13:18:47			0	41848	0	0	0	29958	28570	147049	27121	1054988	44813	111149	0	0	8325	403606	0	0
2024-07-16 13:19:47			0	41843	0	0	0	29963	28560	147069	26828	1054971	44812	111151	0	0	8324	403792	0	0
2024-07-16 13:20:47			0	41847	0	0	0	29961	28570	147073	26779	1055042	44791	111150	0	0	8325	403639	0	0
2024-07-16 13:21:47			0	41837	0	0	0	29955	28570	147021	26760	1054988	44825	111148	0	0	8324	403964	0	0
2024-07-16 13:22:47			0	41851	0	0	0	29963	28580	147077	26902	1055060	44825	111151	0	0	8325	403485	0	0
2024-07-16 13:23:47			0	41853	0	0	0	29973	28590	147093	27017	1055105	44816	111155	0	0	8325	403397	0	0
2024-07-16 13:24:47			0	41861	0	0	0	29971	28590	147033	27147	1055105	44816	111154	0	0	8325	403137	0	0
2024-07-16 13:25:47			0	41864	0	0	0	29973	28600	147077	26772	1055086	44816	111155	0	0	8325	403016	0	0
2024-07-16 13:26:47			0	41877	0	0	0	29976	28600	147057	26798	1055113	44816	111156	0	0	8326	402594	0	0
2024-07-16 13:27:47			0	41861	0	0	0	29986	28600	146925	26765	1055176	44827	111160	0	0	8325	403114	0	0
2024-07-16 13:28:47			0	41853	0	0	0	29997	28610	147141	26956	1055212	44828	111164	0	0	8324	403350	0	0
2024-07-16 13:29:47			0	41846	0	0	0	29989	28620	147065	27154	1055203	44840	111161	0	0	8324	403554	0	0
2024-07-16 13:30:47			0	41841	0	0	0	30007	28610	147037	27098	1055329	44807	111168	0	0	8324	403740	0	0
2024-07-16 13:31:47			0	41872	0	0	0	30036	28630	146953	26765	1055391	44831	111179	0	0	8325	402686	0	0
2024-07-16 13:32:47			0	41856	0	0	0	30049	28640	146929	26802	1055436	44843	111184	0	0	8324	403183	0	0
2024-07-16 13:33:47			0	41856	0	0	0	30062	28650	146985	26823	1055481	44833	111189	0	0	8324	403159	0	0
2024-07-16 13:34:47			0	41852	0	0	0	30083	28660	146997	27104	1055517	44833	111197	0	0	8323	403266	0	0
2024-07-16 13:35:47			0	41868	0	0	0	30093	28680	147013	26878	1055624	44846	111201	0	0	8324	402700	0	0
2024-07-16 13:36:47			0	41857	0	0	0	30111	28690	146993	27107	1055624	44836	111208	0	0	8323	403034	0	0
2024-07-16 13:37:47			0	41863	0	0	0	30119	28690	147073	26727	1055669	44847	111211	0	0	8323	402839	0	0
2024-07-16 13:38:47			0	41847	0	0	0	30119	28700	147057	27377	1055713	44826	111211	0	0	8322	403335	0	0
2024-07-16 13:39:47			0	41858	0	0	0	30122	28710	146997	27260	1055650	44837	111212	0	0	8323	402954	0	0
2024-07-16 13:40:47			0	41844	0	0	0	30114	28710	146981	27194	1055650	44837	111209	0	0	8322	403409	0	0
2024-07-16 13:41:47			0	41859	0	0	0	30119	28720	146929	26729	1055749	44828	111211	0	0	8323	402898	0	0
2024-07-16 13:42:47			0	41851	0	0	0	30116	28710	147033	27142	1055767	44838	111210	0	0	8323	403182	0	0
2024-07-16 13:43:47			0	41860	0	0	0	30106	28720	146997	27112	1055722	44828	111206	0	0	8323	402866	0	0
2024-07-16 13:44:47			0	41875	0	0	0	30106	28720	146965	27008	1055722	44816	111206	0	0	8324	402379	0	0
2024-07-16 13:45:47			0	41862	0	0	0	30119	28720	147029	27265	1055695	44828	111211	0	0	8323	402801	0	0
2024-07-16 13:46:47			0	41865	0	0	0	30111	28730	146965	27227	1055740	44829	111208	0	0	8324	402680	0	0
2024-07-16 13:47:47			0	41883	0	0	0	30116	28720	146949	27350	1055758	44829	111210	0	0	8325	402120	0	0
2024-07-16 13:48:47			0	41871	0	0	0	30109	28720	146893	27074	1055722	44816	111207	0	0	8324	402509	0	0
2024-07-16 13:49:47			0	41877	0	0	0	30106	28730	146925	27199	1055767	44829	111206	0	0	8324	402291	0	0
2024-07-16 13:50:47			0	41872	0	0	0	30114	28730	146837	27296	1055749	44829	111209	0	0	8324	402453	0	0
2024-07-16 13:51:47			0	41881	0	0	0	30103	28730	146945	27185	1055767	44839	111205	0	0	8325	402161	0	0
2024-07-16 13:52:47			0	41862	0	0	0	30103	28740	146909	27211	1055793	44830	111205	0	0	8324	402754	0	0
2024-07-16 13:53:47			0	41878	0	0	0	30088	28740	146857	27312	1055811	44829	111199	0	0	8325	402235	0	0
2024-07-16 13:54:47			0	41871	0	0	0	30090	28730	146817	27038	1055686	44829	111200	0	0	8324	402486	0	0
2024-07-16 13:55:47			0	41865	0	0	0	30075	28730	146829	27033	1055659	44806	111194	0	0	8324	402680	0	0
2024-07-16 13:56:47			0	41896	0	0	0	30059	28720	146841	27286	1055569	44817	111188	0	0	8326	401698	0	0
2024-07-16 13:57:47			0	41893	0	0	0	30051	28710	146857	27013	1055543	44815	111185	0	0	8326	401819	0	0
2024-07-16 13:58:47			0	41897	0	0	0	30041	28700	146925	27197	1055444	44814	111181	0	0	8327	401712	0	0
2024-07-16 13:59:47			0	41900	0	0	0	30031	28690	146737	27364	1055480	44813	111177	0	0	8327	401638	0	0
2024-07-16 14:00:47			0	41884	0	0	0	30020	28690	146833	27013	1055453	44813	111173	0	0	8326	402157	0	0
2024-07-16 14:01:47			0	41909	0	0	0	30031	28680	146809	27176	1055525	44825	111177	0	0	8327	401370	0	0
2024-07-16 14:02:47			0	41913	0	0	0	30033	28690	146745	27208	1055507	44825	111178	0	0	8328	401217	0	0
2024-07-16 14:03:47			0	41912	0	0	0	30038	28690	146769	26993	1055624	44826	111180	0	0	8327	401249	0	0
2024-07-16 14:04:47			0	41902	0	0	0	30057	28690	146853	27048	1055615	44835	111187	0	0	8327	401573	0	0
2024-07-16 14:05:47			0	41911	0	0	0	30067	28700	146825	27000	1055660	44826	111191	0	0	8327	401258	0	0
2024-07-16 14:06:47			0	41898	0	0	0	30085	28700	146737	27085	1055606	44836	111198	0	0	8326	401680	0	0
2024-07-16 14:07:47			0	41915	0	0	0	30098	28720	146777	27107	1055749	44838	111203	0	0	8327	401082	0	0
2024-07-16 14:08:47			0	41926	0	0	0	30129	28720	146821	27109	1055803	44838	111215	0	0	8327	400726	0	0
2024-07-16 14:09:47			0	41922	0	0	0	30132	28730	146857	27097	1055794	44850	111216	0	0	8327	400832	0	0
2024-07-16 14:10:47			0	41909	0	0	0	30150	28730	146881	27189	1055883	44840	111223	0	0	8326	401253	0	0
2024-07-16 14:11:47			0	41895	0	0	0	30148	28730	146773	27057	1055830	44840	111222	0	0	8325	401707	0	0
2024-07-16 14:12:47			0	41921	0	0	0	30142	28750	146833	27121	1055910	44852	111220	0	0	8326	400818	0	0
2024-07-16 14:13:47			0	41908	0	0	0	30142	28740	146789	27402	1055892	44840	111220	0	0	8326	401263	0	0
2024-07-16 14:14:47			0	41921	0	0	0	30137	28750	146709	27123	1055883	44830	111218	0	0	8327	400818	0	0
2024-07-16 14:15:47			0	41905	0	0	0	30153	28750	146781	27190	1055946	44842	111224	0	0	8325	401337	0	0
2024-07-16 14:16:47			0	41917	0	0	0	30158	28760	146761	27225	1055964	44832	111226	0	0	8326	400925	0	0
2024-07-16 14:17:47			0	41926	0	0	0	30150	28760	146737	27317	1055964	44843	111223	0	0	8327	400633	0	0
2024-07-16 14:18:47			0	41911	0	0	0	30145	28770	146669	27222	1055972	44832	111221	0	0	8326	401096	0	0
2024-07-16 14:19:47			0	41906	0	0	0	30137	28770	146709	27209	1055972	44843	111218	0	0	8326	401258	0	0
2024-07-16 14:20:47			0	41923	0	0	0	30132	28760	146621	27007	1055901	44832	111216	0	0	8327	400730	0	0
2024-07-16 14:21:47			0	41918	0	0	0	30122	28760	146665	27072	1055883	44832	111212	0	0	8327	400892	0	0
2024-07-16 14:22:47			0	41933	0	0	0	30122	28750	146741	27149	1055910	44830	111212	0	0	8328	400430	0	0
2024-07-16 14:23:47			0	41920	0	0	0	30129	28750	146673	27286	1055883	44830	111215	0	0	8327	400851	0	0
2024-07-16 14:24:47			0	41938	0	0	0	30116	28750	146657	27296	1055811	44831	111210	0	0	8328	400268	0	0
2024-07-16 14:25:47			0	41924	0	0	0	30116	28760	146701	27072	1055874	44832	111210	0	0	8327	400698	0	0
2024-07-16 14:26:47			0	41939	0	0	0	30119	28750	146685	26866	1055937	44841	111211	0	0	8328	400236	0	0
2024-07-16 14:27:47			0	41923	0	0	0	30114	28750	146633	27154	1055838	44831	111209	0	0	8327	400754	0	0
2024-07-16 14:28:47			0	41929	0	0	0	30109	28750	146673	27024	1055829	44819	111207	0	0	8328	400559	0	0
2024-07-16 14:29:47			0	41947	0	0	0	30101	28740	146689	27365	1055820	44830	111204	0	0	8329	400000	0	0
2024-07-16 14:30:47			0	41936	0	0	0	30085	28740	146721	27268	1055766	44819	111198	0	0	8328	400356	0	0
2024-07-16 14:31:47			0	41933	0	0	0	30088	28720	146713	27024	1055677	44817	111199	0	0	8328	400499	0	0
2024-07-16 14:32:47			0	41951	0	0	0	30083	28730	146745	26939	1055713	44829	111197	0	0	8329	399894	0	0
2024-07-16 14:33:47			0	41943	0	0	0	30088	28730	146653	27230	1055794	44829	111199	0	0	8329	400153	0	0
2024-07-16 14:34:47			0	41967	0	0	0	30083	28730	146645	26956	1055821	44839	111197	0	0	8330	399376	0	0
2024-07-16 14:35:47			0	41957	0	0	0	30077	28730	146613	26781	1055722	44818	111195	0	0	8330	399700	0	0
2024-07-16 14:36:47			0	41954	0	0	0	30067	28730	146689	27029	1055686	44806	111191	0	0	8330	399797	0	0
2024-07-16 14:37:47			0	41941	0	0	0	30059	28720	146737	26807	1055650	44817	111188	0	0	8329	400240	0	0
2024-07-16 14:38:47			0	41949	0	0	0	30064	28710	146709	27112	1055677	44827	111190	0	0	8329	400005	0	0
2024-07-16 14:39:47			0	41962	0	0	0	30075	28720	146613	27239	1055722	44838	111194	0	0	8330	399561	0	0
2024-07-16 14:40:47			0	41954	0	0	0	30098	28720	146645	26762	1055839	44839	111203	0	0	8329	399820	0	0
2024-07-16 14:41:47			0	41950	0	0	0	30155	28740	146657	26847	1056009	44864	111225	0	0	8328	399903	0	0
2024-07-16 14:42:47			0	41944	0	0	0	30174	28750	146705	26928	1056018	44841	111232	0	0	8327	400074	0	0
2024-07-16 14:43:47			0	41947	0	0	0	30171	28760	146593	26797	1055982	44843	111231	0	0	8328	399954	0	0
2024-07-16 14:44:47			0	41963	0	0	0	30158	28760	146645	26885	1055991	44843	111226	0	0	8329	399436	0	0
2024-07-16 14:45:47			0	41962	0	0	0	30153	28750	146637	27081	1056027	44842	111224	0	0	8329	399492	0	0
2024-07-16 14:46:47			0	41952	0	0	0	30168	28770	146689	27192	1056089	44844	111230	0	0	8328	399769	0	0
2024-07-16 14:47:47			0	41964	0	0	0	30168	28780	146509	27069	1056071	44845	111230	0	0	8329	399357	0	0
2024-07-16 14:48:47			0	41965	0	0	0	30166	28780	146573	27130	1056053	44833	111229	0	0	8329	399325	0	0
2024-07-16 14:49:47			0	41962	0	0	0	30161	28780	146637	26856	1056071	44833	111227	0	0	8329	399422	0	0
2024-07-16 14:50:47			0	41965	0	0	0	30153	28780	146609	27177	1056044	44833	111224	0	0	8329	399325	0	0
2024-07-16 14:51:47			0	41946	0	0	0	30158	28780	146589	26712	1056125	44833	111226	0	0	8328	399940	0	0
2024-07-16 14:52:47			0	41950	0	0	0	30174	28790	146573	26859	1056197	44869	111232	0	0	8328	399787	0	0
2024-07-16 14:53:47			0	41958	0	0	0	30197	28810	146585	26700	1056313	44848	111241	0	0	8328	399482	0	0
2024-07-16 14:54:47			0	41969	0	0	0	30197	28800	146553	27409	1056215	44847	111241	0	0	8329	399150	0	0
2024-07-16 14:55:47			0	41967	0	0	0	30199	28800	146525	27114	1056251	44835	111242	0	0	8328	399214	0	0
2024-07-16 14:56:47			0	41972	0	0	0	30215	28820	146477	27154	1056304	44871	111248	0	0	8329	399006	0	0
2024-07-16 14:57:47			0	41959	0	0	0	30207	28820	146533	26774	1056340	44849	111245	0	0	8328	399427	0	0
2024-07-16 14:58:47			0	41965	0	0	0	30207	28810	146477	26906	1056259	44826	111245	0	0	8328	399256	0	0
2024-07-16 14:59:47			0	41978	0	0	0	30197	28820	146529	27055	1056232	44861	111241	0	0	8329	398813	0	0
2024-07-16 15:00:47			0	41964	0	0	0	30194	28820	146449	27130	1056331	44827	111240	0	0	8328	399265	0	0
2024-07-16 15:01:47			0	41961	0	0	0	30192	28820	146469	27265	1056250	44837	111239	0	0	8328	399362	0	0
2024-07-16 15:02:47			0	41964	0	0	0	30189	28820	146441	26958	1056331	44849	111238	0	0	8328	399265	0	0
2024-07-16 15:03:47			0	41978	0	0	0	30186	28820	146505	27327	1056196	44837	111237	0	0	8329	398813	0	0
2024-07-16 15:04:47			0	41978	0	0	0	30174	28820	146505	26902	1056250	44837	111232	0	0	8330	398813	0	0
2024-07-16 15:05:47			0	41997	0	0	0	30184	28820	146469	27244	1056169	44849	111236	0	0	8330	398199	0	0
2024-07-16 15:06:47			0	41967	0	0	0	30176	28810	146465	27060	1056295	44836	111233	0	0	8329	399191	0	0
2024-07-16 15:07:47			0	41974	0	0	0	30171	28810	146461	26960	1056268	44826	111231	0	0	8329	398965	0	0
2024-07-16 15:08:47			0	41978	0	0	0	30168	28810	146437	27164	1056241	44836	111230	0	0	8330	398836	0	0
2024-07-16 15:09:47			0	41971	0	0	0	30174	28810	146497	26677	1056241	44848	111232	0	0	8329	399062	0	0
2024-07-16 15:10:47			0	41979	0	0	0	30168	28820	146489	27034	1056223	44837	111230	0	0	8330	398780	0	0
2024-07-16 15:11:47			0	41986	0	0	0	30168	28810	146405	26871	1056241	44848	111230	0	0	8330	398577	0	0
2024-07-16 15:12:47			0	42006	0	0	0	30171	28820	146497	27060	1056304	44837	111231	0	0	8331	397909	0	0
2024-07-16 15:13:47			0	41983	0	0	0	30168	28820	146417	26975	1056259	44828	111230	0	0	8330	398651	0	0
2024-07-16 15:14:47			0	42005	0	0	0	30179	28810	146429	27118	1056214	44836	111234	0	0	8331	397964	0	0
2024-07-16 15:15:47			0	41999	0	0	0	30184	28820	146513	26942	1056223	44827	111236	0	0	8331	398135	0	0
2024-07-16 15:16:47			0	42003	0	0	0	30186	28820	146397	26951	1056277	44860	111237	0	0	8331	398006	0	0
2024-07-16 15:17:47			0	41996	0	0	0	30181	28830	146449	27144	1056439	44838	111235	0	0	8331	398208	0	0
2024-07-16 15:18:47			0	42003	0	0	0	30189	28830	146401	27163	1056412	44838	111238	0	0	8331	397983	0	0
2024-07-16 15:19:47			0	41989	0	0	0	30197	28830	146385	27350	1056376	44838	111241	0	0	8330	398434	0	0
2024-07-16 15:20:47			0	41987	0	0	0	30189	28840	146369	26975	1056367	44839	111238	0	0	8330	398476	0	0
2024-07-16 15:21:47			0	42019	0	0	0	30189	28840	146409	26804	1056349	44840	111238	0	0	8332	397443	0	0
2024-07-16 15:22:47			0	42001	0	0	0	30189	28840	146401	27107	1056367	44829	111238	0	0	8331	398024	0	0
2024-07-16 15:23:47			0	42008	0	0	0	30189	28830	146333	26868	1056385	44838	111238	0	0	8331	397821	0	0
2024-07-16 15:24:47			0	42027	0	0	0	30186	28840	146285	27105	1056367	44829	111237	0	0	8332	397185	0	0
2024-07-16 15:25:47			0	42014	0	0	0	30184	28840	146333	27147	1056402	44830	111236	0	0	8332	397605	0	0
2024-07-16 15:26:47			0	42021	0	0	0	30186	28840	146277	26597	1056394	44839	111237	0	0	8332	397379	0	0
2024-07-16 15:27:47			0	42023	0	0	0	30184	28840	146273	27208	1056295	44840	111236	0	0	8332	397314	0	0
2024-07-16 15:28:47			0	42016	0	0	0	30184	28830	146301	26861	1056304	44828	111236	0	0	8332	397563	0	0
2024-07-16 15:29:47			0	42023	0	0	0	30184	28820	146433	27062	1056313	44828	111236	0	0	8332	397361	0	0
2024-07-16 15:30:47			0	42038	0	0	0	30176	28820	146365	27097	1056259	44838	111233	0	0	8333	396877	0	0
2024-07-16 15:31:47			0	42023	0	0	0	30181	28830	146349	26915	1056322	44828	111235	0	0	8332	397337	0	0
2024-07-16 15:32:47			0	42031	0	0	0	30194	28830	146281	27171	1056376	44849	111240	0	0	8332	397080	0	0
2024-07-16 15:33:47			0	42034	0	0	0	30207	28840	146361	27086	1056429	44851	111245	0	0	8332	396960	0	0
2024-07-16 15:34:47			0	42023	0	0	0	30225	28840	146325	26817	1056456	44840	111252	0	0	8331	397314	0	0
2024-07-16 15:35:47			0	42034	0	0	0	30241	28850	146409	26972	1056555	44851	111258	0	0	8332	396937	0	0
2024-07-16 15:36:47			0	42039	0	0	0	30238	28850	146341	27086	1056609	44863	111257	0	0	8332	396776	0	0
2024-07-16 15:37:47			0	42051	0	0	0	30249	28870	146277	26864	1056609	44853	111261	0	0	8333	396343	0	0
2024-07-16 15:38:47			0	42020	0	0	0	30257	28860	146385	27218	1056654	44865	111264	0	0	8331	397365	0	0
2024-07-16 15:39:47			0	42036	0	0	0	30257	28880	146169	26906	1056743	44844	111264	0	0	8332	396803	0	0
2024-07-16 15:40:47			0	42051	0	0	0	30280	28900	146149	26774	1056932	44878	111273	0	0	8332	396274	0	0
2024-07-16 15:41:47			0	42046	0	0	0	30311	28910	146105	26949	1056977	44870	111285	0	0	8332	396412	0	0
2024-07-16 15:42:47			0	42070	0	0	0	30311	28920	146173	27062	1056887	44870	111285	0	0	8333	395617	0	0
2024-07-16 15:43:47			0	42077	0	0	0	30306	28930	146177	27116	1056905	44849	111283	0	0	8334	395369	0	0
2024-07-16 15:44:47			0	42052	0	0	0	30306	28930	146085	26788	1056985	44849	111283	0	0	8332	396173	0	0
2024-07-16 15:45:47			0	42069	0	0	0	30319	28940	146125	26887	1057093	44872	111288	0	0	8333	395603	0	0
2024-07-16 15:46:47			0	42077	0	0	0	30353	28970	146002	26840	1057236	44874	111301	0	0	8333	395277	0	0
2024-07-16 15:47:47			0	42073	0	0	0	30386	28990	145993	27346	1057416	44888	111314	0	0	8332	395360	0	0
2024-07-16 15:48:47			0	42076	0	0	0	30423	29010	145985	27093	1057550	44912	111328	0	0	8332	395218	0	0
2024-07-16 15:49:47			0	42074	0	0	0	30449	29030	145957	27364	1057640	44903	111338	0	0	8331	395236	0	0
2024-07-16 15:50:47			0	42055	0	0	0	30446	29050	145953	27102	1057630	44872	111337	0	0	8330	395801	0	0
2024-07-16 15:51:47			0	42083	0	0	0	30431	29060	146058	27350	1057558	44850	111331	0	0	8332	394878	0	0
2024-07-16 15:52:47			0	42074	0	0	0	30420	29050	145961	27287	1057622	44860	111327	0	0	8332	395190	0	0
2024-07-16 15:53:47			0	42073	0	0	0	30420	29060	145965	27095	1057567	44874	111327	0	0	8332	395199	0	0
2024-07-16 15:54:47			0	42091	0	0	0	30410	29060	145882	26987	1057567	44851	111323	0	0	8333	394621	0	0
2024-07-16 15:55:47			0	42087	0	0	0	30412	29050	145886	27317	1057496	44837	111324	0	0	8333	394773	0	0
2024-07-16 15:56:47			0	42084	0	0	0	30394	29040	145910	26786	1057505	44860	111317	0	0	8333	394892	0	0
2024-07-16 15:57:47			0	42091	0	0	0	30392	29040	145870	27043	1057478	44860	111316	0	0	8333	394667	0	0
2024-07-16 15:58:47			0	42103	0	0	0	30389	29040	145830	27305	1057451	44860	111315	0	0	8334	394282	0	0
2024-07-16 15:59:47			0	42095	0	0	0	30379	29040	145826	27542	1057424	44849	111311	0	0	8334	394539	0	0
2024-07-16 16:00:47			0	42119	0	0	0	30379	29030	145830	27433	1057379	44847	111311	0	0	8335	393791	0	0
2024-07-16 16:01:47			0	42108	0	0	0	30366	29040	145870	27329	1057307	44836	111306	0	0	8335	394121	0	0
2024-07-16 16:02:47			0	42108	0	0	0	30340	29020	145866	27263	1057244	44834	111296	0	0	8335	394167	0	0
2024-07-16 16:03:47			0	42128	0	0	0	30335	29020	145834	26939	1057253	44835	111294	0	0	8336	393525	0	0
2024-07-16 16:04:47			0	42118	0	0	0	30337	29020	145806	27211	1057217	44834	111295	0	0	8336	393846	0	0
2024-07-16 16:05:47			0	42141	0	0	0	30348	29020	145722	27258	1057352	44834	111299	0	0	8337	393108	0	0
2024-07-16 16:06:47			0	42123	0	0	0	30350	29020	145718	26986	1057280	44835	111300	0	0	8336	393686	0	0
2024-07-16 16:07:47			0	42133	0	0	0	30371	29020	145742	27381	1057379	44846	111308	0	0	8336	393365	0	0
2024-07-16 16:08:47			0	42133	0	0	0	30392	29030	145698	27187	1057370	44858	111316	0	0	8336	393342	0	0
2024-07-16 16:09:47			0	42146	0	0	0	30407	29030	145802	26963	1057433	44847	111322	0	0	8336	392925	0	0
2024-07-16 16:10:47			0	42122	0	0	0	30407	29030	145746	27102	1057451	44870	111322	0	0	8335	393695	0	0
2024-07-16 16:11:47			0	42147	0	0	0	30412	29040	145846	26986	1057469	44859	111324	0	0	8336	392870	0	0
2024-07-16 16:12:47			0	42126	0	0	0	30428	29040	145782	27088	1057613	44872	111330	0	0	8335	393544	0	0
2024-07-16 16:13:47			0	42126	0	0	0	30464	29050	145750	26961	1057630	44882	111344	0	0	8334	393521	0	0
2024-07-16 16:14:47			0	42124	0	0	0	30467	29060	145662	26982	1057639	44861	111345	0	0	8334	393562	0	0
2024-07-16 16:15:47			0	42136	0	0	0	30454	29060	145778	26759	1057558	44850	111340	0	0	8335	393177	0	0
2024-07-16 16:16:47			0	42133	0	0	0	30428	29060	145674	26795	1057567	44851	111330	0	0	8335	393274	0	0
2024-07-16 16:17:47			0	42149	0	0	0	30436	29060	145658	27222	1057505	44850	111333	0	0	8336	392761	0	0
2024-07-16 16:18:47			0	42145	0	0	0	30428	29060	145678	27223	1057540	44874	111330	0	0	8336	392889	0	0
2024-07-16 16:19:47			0	42163	0	0	0	30436	29060	145626	27026	1057558	44861	111333	0	0	8337	392312	0	0
2024-07-16 16:20:47			0	42144	0	0	0	30425	29070	145622	27320	1057576	44862	111329	0	0	8336	392898	0	0
2024-07-16 16:21:47			0	42156	0	0	0	30418	29060	145594	27400	1057531	44861	111326	0	0	8337	392537	0	0
2024-07-16 16:22:47			0	42154	0	0	0	30410	29050	145678	27138	1057433	44849	111323	0	0	8337	392623	0	0
2024-07-16 16:23:47			0	42155	0	0	0	30397	29050	145590	27381	1057406	44849	111318	0	0	8337	392591	0	0
2024-07-16 16:24:47			0	42163	0	0	0	30402	29050	145578	27003	1057577	44872	111320	0	0	8337	392335	0	0
2024-07-16 16:25:47			0	42172	0	0	0	30433	29060	145594	27499	1057639	44873	111332	0	0	8337	392024	0	0
2024-07-16 16:26:47			0	42167	0	0	0	30428	29060	145578	27268	1057675	44874	111330	0	0	8337	392184	0	0
2024-07-16 16:27:47			0	42181	0	0	0	30444	29070	145590	27154	1057711	44874	111336	0	0	8338	391713	0	0
2024-07-16 16:28:47			0	42172	0	0	0	30454	29080	145594	27149	1057729	44875	111340	0	0	8337	391979	0	0
2024-07-16 16:29:47			0	42171	0	0	0	30428	29070	145574	27268	1057639	44851	111330	0	0	8338	392033	0	0
2024-07-16 16:30:47			0	42169	0	0	0	30425	29070	145538	27116	1057576	44851	111329	0	0	8337	392098	0	0
2024-07-16 16:31:47			0	42182	0	0	0	30423	29070	145642	27310	1057693	44851	111328	0	0	8338	391681	0	0
2024-07-16 16:32:47			0	42164	0	0	0	30446	29080	145570	27348	1057675	44875	111337	0	0	8337	392235	0	0
2024-07-16 16:33:47			0	42178	0	0	0	30457	29080	145598	27294	1057765	44864	111341	0	0	8337	391787	0	0
2024-07-16 16:34:47			0	42184	0	0	0	30470	29080	145582	27315	1057738	44853	111346	0	0	8338	391595	0	0
2024-07-16 16:35:47			0	42174	0	0	0	30485	29090	145526	27246	1057908	44887	111352	0	0	8337	391892	0	0
2024-07-16 16:36:47			0	42182	0	0	0	30511	29110	145550	27320	1057944	44889	111362	0	0	8337	391590	0	0
2024-07-16 16:37:47			0	42195	0	0	0	30527	29120	145554	27213	1058132	44878	111368	0	0	8337	391152	0	0
2024-07-16 16:38:47			0	42183	0	0	0	30579	29130	145578	26977	1058231	44879	111388	0	0	8336	391513	0	0
2024-07-16 16:39:47			0	42172	0	0	0	30597	29150	145630	27161	1058312	44893	111395	0	0	8335	391819	0	0
2024-07-16 16:40:47			0	42167	0	0	0	30599	29160	145574	27326	1058222	44882	111396	0	0	8335	391957	0	0
2024-07-16 16:41:47			0	42187	0	0	0	30568	29150	145474	27287	1058186	44871	111384	0	0	8336	391340	0	0
2024-07-16 16:42:47			0	42175	0	0	0	30550	29150	145582	27057	1058123	44859	111377	0	0	8336	391723	0	0
2024-07-16 16:43:47			0	42185	0	0	0	30542	29160	145622	27242	1058195	44872	111374	0	0	8337	391381	0	0
2024-07-16 16:44:47			0	42175	0	0	0	30535	29160	145498	27033	1058168	44882	111371	0	0	8336	391701	0	0
2024-07-16 16:45:47			0	42178	0	0	0	30524	29150	145502	27045	1058132	44871	111367	0	0	8337	391627	0	0
2024-07-16 16:46:47			0	42179	0	0	0	30511	29150	145570	26986	1058078	44859	111362	0	0	8337	391595	0	0
2024-07-16 16:47:47			0	42195	0	0	0	30488	29140	145466	27085	1057898	44847	111353	0	0	8338	391106	0	0
2024-07-16 16:48:47			0	42203	0	0	0	30480	29120	145506	27039	1057836	44845	111350	0	0	8339	390896	0	0
2024-07-16 16:49:47			0	42192	0	0	0	30470	29130	145510	27090	1057872	44857	111346	0	0	8338	391225	0	0
2024-07-16 16:50:47			0	42209	0	0	0	30444	29120	145406	27118	1057773	44844	111336	0	0	8340	390704	0	0
2024-07-16 16:51:47			0	42189	0	0	0	30438	29110	145422	27012	1057872	44867	111334	0	0	8339	391367	0	0
2024-07-16 16:52:47			0	42199	0	0	0	30436	29120	145418	27197	1057773	44856	111333	0	0	8339	391024	0	0
2024-07-16 16:53:47			0	42208	0	0	0	30423	29110	145386	27208	1057809	44867	111328	0	0	8340	390759	0	0
2024-07-16 16:54:47			0	42197	0	0	0	30431	29110	145330	27081	1057764	44856	111331	0	0	8339	391111	0	0
2024-07-16 16:55:47			0	42204	0	0	0	30441	29110	145378	26847	1057863	44856	111335	0	0	8339	390887	0	0
2024-07-16 16:56:47			0	42198	0	0	0	30438	29110	145454	27282	1057836	44877	111334	0	0	8339	391079	0	0
2024-07-16 16:57:47			0	42211	0	0	0	30438	29100	145390	27118	1057719	44876	111334	0	0	8340	390686	0	0
2024-07-16 16:58:47			0	42216	0	0	0	30423	29080	145334	26854	1057657	44841	111328	0	0	8340	390571	0	0
2024-07-16 16:59:47			0	42224	0	0	0	30423	29090	145398	26925	1057774	44865	111328	0	0	8341	390293	0	0
2024-07-16 17:00:47			0	42204	0	0	0	30425	29090	145386	27086	1057720	44865	111329	0	0	8340	390932	0	0
2024-07-16 17:01:47			0	42209	0	0	0	30444	29090	145426	26987	1057747	44875	111336	0	0	8340	390772	0	0
2024-07-16 17:02:47			0	42189	0	0	0	30457	29100	145462	26948	1057818	44865	111341	0	0	8338	391389	0	0
2024-07-16 17:03:47			0	42200	0	0	0	30464	29100	145394	27303	1057881	44876	111344	0	0	8339	391037	0	0
2024-07-16 17:04:47			0	42222	0	0	0	30459	29100	145482	26878	1057854	44876	111342	0	0	8340	390334	0	0
2024-07-16 17:05:47			0	42199	0	0	0	30462	29110	145382	27225	1057782	44856	111343	0	0	8339	391047	0	0
2024-07-16 17:06:47			0	42224	0	0	0	30457	29100	145478	27334	1057764	44854	111341	0	0	8340	390271	0	0
2024-07-16 17:07:47			0	42226	0	0	0	30457	29110	145426	27306	1057782	44867	111341	0	0	8340	390184	0	0
2024-07-16 17:08:47			0	42235	0	0	0	30467	29100	145322	26981	1057881	44876	111345	0	0	8341	389919	0	0
2024-07-16 17:09:47			0	42226	0	0	0	30496	29100	145446	26960	1058070	44876	111356	0	0	8340	390207	0	0
2024-07-16 17:10:47			0	42226	0	0	0	30529	29130	145346	27022	1058195	44891	111369	0	0	8339	390139	0	0
2024-07-16 17:11:47			0	42212	0	0	0	30602	29150	145370	27010	1058429	44937	111397	0	0	8337	390540	0	0
2024-07-16 17:12:47			0	42219	0	0	0	30649	29170	145406	27083	1058518	44917	111415	0	0	8337	390272	0	0
2024-07-16 17:13:47			0	42210	0	0	0	30631	29180	145462	27092	1058428	44896	111408	0	0	8337	390536	0	0
2024-07-16 17:14:47			0	42206	0	0	0	30607	29190	145398	27104	1058410	44908	111399	0	0	8337	390641	0	0
2024-07-16 17:15:47			0	42217	0	0	0	30636	29200	145410	27234	1058599	44909	111410	0	0	8337	390267	0	0
2024-07-16 17:16:47			0	42206	0	0	0	30672	29220	145422	27175	1058733	44899	111424	0	0	8336	390573	0	0
2024-07-16 17:17:47			0	42186	0	0	0	30703	29240	145434	26760	1058850	44913	111436	0	0	8334	391167	0	0
2024-07-16 17:18:47			0	42218	0	0	0	30719	29240	145362	26517	1058859	44902	111442	0	0	8336	390145	0	0
2024-07-16 17:19:47			0	42182	0	0	0	30735	29270	145426	27170	1058931	44916	111448	0	0	8334	391227	0	0
2024-07-16 17:20:47			0	42189	0	0	0	30724	29290	145366	26795	1059011	44917	111444	0	0	8334	390958	0	0
2024-07-16 17:21:47			0	42208	0	0	0	30737	29310	145378	26887	1059128	44897	111449	0	0	8335	390305	0	0
2024-07-16 17:22:47			0	42190	0	0	0	30737	29310	145350	26899	1059083	44898	111449	0	0	8334	390880	0	0
2024-07-16 17:23:47			0	42189	0	0	0	30745	29320	145282	26989	1059118	44909	111452	0	0	8334	390889	0	0
2024-07-16 17:24:47			0	42195	0	0	0	30748	29330	145358	27033	1059136	44887	111453	0	0	8335	390675	0	0
2024-07-16 17:25:47			0	42165	0	0	0	30753	29330	145310	27112	1059109	44899	111455	0	0	8333	391634	0	0
2024-07-16 17:26:47			0	42175	0	0	0	30763	29340	145302	26922	1059136	44901	111459	0	0	8333	391291	0	0
2024-07-16 17:27:47			0	42180	0	0	0	30779	29340	145350	26994	1059298	44912	111465	0	0	8333	391131	0	0
2024-07-16 17:28:47			0	42177	0	0	0	30781	29360	145322	27282	1059280	44891	111466	0	0	8333	391182	0	0
2024-07-16 17:29:47			0	42178	0	0	0	30766	29360	145362	27123	1059333	44902	111460	0	0	8333	391150	0	0
2024-07-16 17:30:47			0	42175	0	0	0	30761	29370	145262	26870	1059378	44915	111458	0	0	8333	391223	0	0
2024-07-16 17:31:47			0	42176	0	0	0	30763	29370	145322	26923	1059261	44903	111459	0	0	8333	391191	0	0
2024-07-16 17:32:47			0	42196	0	0	0	30761	29370	145394	27265	1059234	44892	111458	0	0	8335	390552	0	0
2024-07-16 17:33:47			0	42195	0	0	0	30740	29370	145278	27081	1059180	44880	111450	0	0	8335	390584	0	0
2024-07-16 17:34:47			0	42178	0	0	0	30714	29370	145278	27336	1059207	44880	111440	0	0	8334	391127	0	0
2024-07-16 17:35:47			0	42177	0	0	0	30714	29350	145370	27072	1059100	44890	111440	0	0	8334	391205	0	0
2024-07-16 17:36:47			0	42196	0	0	0	30722	29370	145202	27189	1059243	44903	111443	0	0	8335	390552	0	0
2024-07-16 17:37:47			0	42189	0	0	0	30737	29360	145418	27057	1059306	44902	111449	0	0	8335	390799	0	0
2024-07-16 17:38:47			0	42202	0	0	0	30750	29370	145450	26930	1059288	44915	111454	0	0	8335	390361	0	0
2024-07-16 17:39:47			0	42172	0	0	0	30776	29370	145338	26823	1059423	44880	111464	0	0	8333	391319	0	0
2024-07-16 17:40:47			0	42181	0	0	0	30792	29370	145366	26863	1059405	44915	111470	0	0	8333	391031	0	0
2024-07-16 17:41:47			0	42198	0	0	0	30794	29380	145346	27072	1059360	44893	111471	0	0	8334	390466	0	0
2024-07-16 17:42:47			0	42196	0	0	0	30799	29390	145366	27149	1059432	44894	111473	0	0	8334	390507	0	0
2024-07-16 17:43:47			0	42176	0	0	0	30797	29400	145410	27036	1059477	44906	111472	0	0	8333	391123	0	0
2024-07-16 17:44:47			0	42188	0	0	0	30810	29400	145354	26934	1059513	44907	111477	0	0	8333	390740	0	0
2024-07-16 17:45:47			0	42172	0	0	0	30815	29420	145350	26960	1059594	44919	111479	0	0	8332	391205	0	0
2024-07-16 17:46:47			0	42186	0	0	0	30823	29410	145230	26927	1059612	44907	111482	0	0	8333	390781	0	0
2024-07-16 17:47:47			0	42197	0	0	0	30820	29410	145394	27088	1059585	44918	111481	0	0	8334	390430	0	0
2024-07-16 17:48:47			0	42208	0	0	0	30825	29420	145290	27244	1059567	44908	111483	0	0	8334	390056	0	0
2024-07-16 17:49:47			0	42187	0	0	0	30818	29420	145398	26927	1059656	44909	111480	0	0	8333	390726	0	0
2024-07-16 17:50:47			0	42186	0	0	0	30823	29420	145314	26824	1059656	44920	111482	0	0	8333	390758	0	0
2024-07-16 17:51:47			0	42202	0	0	0	30838	29430	145310	27013	1059674	44909	111488	0	0	8334	390225	0	0
2024-07-16 17:52:47			0	42202	0	0	0	30854	29440	145306	27019	1059737	44921	111494	0	0	8334	390202	0	0
2024-07-16 17:53:47			0	42206	0	0	0	30870	29440	145390	27007	1059881	44922	111500	0	0	8334	390074	0	0
2024-07-16 17:54:47			0	42199	0	0	0	30893	29460	145222	27150	1059935	44934	111509	0	0	8333	390252	0	0
2024-07-16 17:55:47			0	42181	0	0	0	30903	29470	145238	26948	1059980	44936	111513	0	0	8332	390804	0	0
2024-07-16 17:56:47			0	42197	0	0	0	30911	29470	145242	26882	1060007	44924	111516	0	0	8333	390293	0	0
2024-07-16 17:57:47			0	42194	0	0	0	30927	29480	145210	26979	1060025	44914	111522	0	0	8332	390366	0	0
2024-07-16 17:58:47			0	42216	0	0	0	30922	29490	145142	27013	1060051	44916	111520	0	0	8334	389642	0	0
2024-07-16 17:59:47			0	42196	0	0	0	30919	29490	145134	26786	1060132	44926	111519	0	0	8332	390280	0	0
2024-07-16 18:00:47			0	42186	0	0	0	30937	29510	145150	26972	1060105	44917	111526	0	0	8332	390553	0	0
2024-07-16 18:01:47			0	42199	0	0	0	30929	29490	145218	26961	1060051	44904	111523	0	0	8332	390184	0	0
2024-07-16 18:02:47			0	42197	0	0	0	30937	29500	145194	26902	1060087	44916	111526	0	0	8332	390225	0	0
2024-07-16 18:03:47			0	42199	0	0	0	30932	29520	145202	26856	1060177	44906	111524	0	0	8332	390116	0	0
2024-07-16 18:04:47			0	42207	0	0	0	30950	29530	145094	26811	1060249	44930	111531	0	0	8333	389838	0	0
2024-07-16 18:05:47			0	42220	0	0	0	30948	29520	145106	27291	1060240	44941	111530	0	0	8333	389446	0	0
2024-07-16 18:06:47			0	42207	0	0	0	30968	29530	145062	27114	1060177	44931	111538	0	0	8332	389838	0	0
2024-07-16 18:07:47			0	42211	0	0	0	30968	29550	144998	26916	1060330	44931	111538	0	0	8333	389665	0	0
2024-07-16 18:08:47			0	42217	0	0	0	30966	29550	145026	27050	1060339	44932	111537	0	0	8333	389474	0	0
2024-07-16 18:09:47			0	42232	0	0	0	30968	29550	144978	27079	1060357	44920	111538	0	0	8334	388996	0	0
2024-07-16 18:10:47			0	42220	0	0	0	30976	29550	145074	27100	1060339	44921	111541	0	0	8333	389378	0	0
2024-07-16 18:11:47			0	42244	0	0	0	30966	29560	145034	26955	1060356	44933	111537	0	0	8335	388592	0	0
2024-07-16 18:12:47			0	42232	0	0	0	30971	29570	145010	26859	1060392	44922	111539	0	0	8334	388951	0	0
2024-07-16 18:13:47			0	42235	0	0	0	30971	29570	145042	26961	1060365	44933	111539	0	0	8334	388855	0	0
2024-07-16 18:14:47			0	42229	0	0	0	30973	29570	144942	27225	1060338	44933	111540	0	0	8334	389046	0	0
2024-07-16 18:15:47			0	42234	0	0	0	30973	29570	144970	27170	1060401	44912	111540	0	0	8334	388887	0	0
2024-07-16 18:16:47			0	42256	0	0	0	30976	29570	144882	26987	1060392	44933	111541	0	0	8335	388187	0	0
2024-07-16 18:17:47			0	42247	0	0	0	30979	29570	144918	27003	1060338	44922	111542	0	0	8335	388473	0	0
2024-07-16 18:18:47			0	42254	0	0	0	30976	29570	144950	27230	1060401	44912	111541	0	0	8335	388251	0	0
2024-07-16 18:19:47			0	42252	0	0	0	30976	29580	144842	27126	1060446	44935	111541	0	0	8335	388292	0	0
2024-07-16 18:20:47			0	42268	0	0	0	30961	29580	144938	27031	1060356	44902	111535	0	0	8336	387783	0	0
2024-07-16 18:21:47			0	42266	0	0	0	30955	29580	144862	27107	1060329	44913	111533	0	0	8336	387846	0	0
2024-07-16 18:22:47			0	42281	0	0	0	30953	29560	144974	26639	1060302	44911	111532	0	0	8337	387415	0	0
2024-07-16 18:23:47			0	42272	0	0	0	30945	29560	144918	26986	1060320	44922	111529	0	0	8337	387701	0	0
2024-07-16 18:24:47			0	42263	0	0	0	30950	29560	144866	26847	1060275	44911	111531	0	0	8336	387987	0	0
2024-07-16 18:25:47			0	42277	0	0	0	30937	29560	144942	26982	1060383	44933	111526	0	0	8337	387542	0	0
2024-07-16 18:26:47			0	42279	0	0	0	30945	29560	144886	27017	1060383	44922	111529	0	0	8337	387478	0	0
2024-07-16 18:27:47			0	42286	0	0	0	30953	29570	144934	26882	1060374	44923	111532	0	0	8337	387233	0	0
2024-07-16 18:28:47			0	42296	0	0	0	30940	29560	144878	27078	1060329	44933	111527	0	0	8338	386938	0	0
2024-07-16 18:29:47			0	42262	0	0	0	30948	29570	144930	26870	1060284	44933	111530	0	0	8336	387996	0	0
2024-07-16 18:30:47			0	42286	0	0	0	30948	29570	144982	26778	1060347	44923	111530	0	0	8338	387233	0	0
2024-07-16 18:31:47			0	42294	0	0	0	30935	29570	144874	26958	1060338	44911	111525	0	0	8338	386979	0	0
2024-07-16 18:32:47			0	42289	0	0	0	30940	29570	144790	26871	1060374	44923	111527	0	0	8338	387138	0	0
2024-07-16 18:33:47			0	42316	0	0	0	30940	29560	144826	26944	1060347	44922	111527	0	0	8339	386303	0	0
2024-07-16 18:34:47			0	42305	0	0	0	30927	29560	144782	27062	1060275	44911	111522	0	0	8339	386652	0	0
2024-07-16 18:35:47			0	42307	0	0	0	30914	29560	144954	27013	1060212	44911	111517	0	0	8339	386589	0	0
2024-07-16 18:36:47			0	42320	0	0	0	30906	29550	144846	26583	1060114	44909	111514	0	0	8340	386198	0	0
2024-07-16 18:37:47			0	42323	0	0	0	30903	29530	144850	26804	1060087	44908	111513	0	0	8340	386148	0	0
2024-07-16 18:38:47			0	42313	0	0	0	30893	29520	144774	27019	1060024	44907	111509	0	0	8340	386488	0	0
2024-07-16 18:39:47			0	42318	0	0	0	30890	29530	144702	27123	1060177	44909	111508	0	0	8340	386307	0	0
2024-07-16 18:40:47			0	42329	0	0	0	30893	29520	144846	27031	1060177	44928	111509	0	0	8341	385980	0	0
2024-07-16 18:41:47			0	42337	0	0	0	30909	29530	144694	26913	1060141	44919	111515	0	0	8341	385704	0	0
2024-07-16 18:42:47			0	42322	0	0	0	30909	29530	144826	26845	1060195	44919	111515	0	0	8340	386180	0	0
2024-07-16 18:43:47			0	42329	0	0	0	30911	29510	144786	26637	1060105	44928	111516	0	0	8340	386003	0	0
2024-07-16 18:44:47			0	42314	0	0	0	30903	29530	144746	27157	1060177	44931	111513	0	0	8340	386434	0	0
2024-07-16 18:45:47			0	42341	0	0	0	30911	29530	144822	27218	1060177	44920	111516	0	0	8341	385577	0	0
2024-07-16 18:46:47			0	42334	0	0	0	30898	29520	144786	26902	1060123	44928	111511	0	0	8341	385821	0	0
2024-07-16 18:47:47			0	42345	0	0	0	30896	29520	144730	27177	1060186	44918	111510	0	0	8342	385472	0	0
2024-07-16 18:48:47			0	42335	0	0	0	30903	29530	144690	27069	1060141	44930	111513	0	0	8341	385767	0	0
2024-07-16 18:49:47			0	42356	0	0	0	30909	29520	144762	26975	1060150	44928	111515	0	0	8342	385124	0	0
2024-07-16 18:50:47			0	42363	0	0	0	30903	29530	144730	27041	1060231	44920	111513	0	0	8343	384879	0	0
2024-07-16 18:51:47			0	42355	0	0	0	30909	29520	144650	27147	1060159	44941	111515	0	0	8342	385155	0	0
2024-07-16 18:52:47			0	42341	0	0	0	30919	29520	144694	26800	1060186	44941	111519	0	0	8341	385599	0	0
2024-07-16 18:53:47			0	42383	0	0	0	30919	29530	144598	26981	1060204	44931	111519	0	0	8343	384246	0	0
2024-07-16 18:54:47			0	42366	0	0	0	30932	29550	144714	26904	1060276	44943	111524	0	0	8342	384739	0	0
2024-07-16 18:55:47			0	42367	0	0	0	30932	29530	144582	27147	1060231	44920	111524	0	0	8342	384753	0	0
2024-07-16 18:56:47			0	42385	0	0	0	30940	29530	144642	27142	1060258	44931	111527	0	0	8343	384182	0	0
2024-07-16 18:57:47			0	42361	0	0	0	30927	29540	144482	26759	1060294	44920	111522	0	0	8342	384920	0	0
2024-07-16 18:58:47			0	42367	0	0	0	30929	29540	144634	26994	1060240	44920	111523	0	0	8342	384730	0	0
2024-07-16 18:59:47			0	42387	0	0	0	30924	29530	144550	27086	1060312	44920	111521	0	0	8344	384119	0	0
2024-07-16 19:00:47			0	42388	0	0	0	30919	29530	144518	27033	1060285	44943	111519	0	0	8344	384087	0	0
2024-07-16 19:01:47			0	42387	0	0	0	30919	29550	144486	26889	1060276	44943	111519	0	0	8344	384074	0	0
2024-07-16 19:02:47			0	42401	0	0	0	30919	29550	144510	26708	1060258	44932	111519	0	0	8345	383631	0	0
2024-07-16 19:03:47			0	42396	0	0	0	30906	29530	144526	26667	1060150	44931	111514	0	0	8344	383834	0	0
2024-07-16 19:04:47			0	42403	0	0	0	30898	29530	144458	26845	1060042	44909	111511	0	0	8345	383613	0	0
2024-07-16 19:05:47			0	42413	0	0	0	30888	29510	144502	27059	1060087	44917	111507	0	0	8346	383341	0	0
2024-07-16 19:06:47			0	42415	0	0	0	30872	29500	144446	26930	1059979	44904	111501	0	0	8346	383300	0	0
2024-07-16 19:07:47			0	42415	0	0	0	30857	29500	144478	26956	1059898	44893	111495	0	0	8346	383300	0	0
2024-07-16 19:08:47			0	42429	0	0	0	30846	29480	144554	27358	1059791	44892	111491	0	0	8347	382902	0	0
2024-07-16 19:09:47			0	42422	0	0	0	30844	29470	144406	27138	1059854	44902	111490	0	0	8347	383145	0	0
2024-07-16 19:10:47			0	42430	0	0	0	30831	29470	144398	27071	1059881	44902	111485	0	0	8347	382892	0	0
2024-07-16 19:11:47			0	42437	0	0	0	30841	29470	144366	27041	1059872	44924	111489	0	0	8348	382671	0	0
2024-07-16 19:12:47			0	42430	0	0	0	30836	29470	144398	27043	1059818	44924	111487	0	0	8347	382892	0	0
2024-07-16 19:13:47			0	42419	0	0	0	30828	29460	144462	27064	1059782	44913	111484	0	0	8347	383263	0	0
2024-07-16 19:14:47			0	42423	0	0	0	30828	29460	144438	27076	1059854	44923	111484	0	0	8347	383136	0	0
2024-07-16 19:15:47			0	42436	0	0	0	30833	29460	144518	27007	1059755	44923	111486	0	0	8348	382725	0	0
2024-07-16 19:16:47			0	42434	0	0	0	30844	29460	144462	27053	1059917	44923	111490	0	0	8347	382788	0	0
2024-07-16 19:17:47			0	42461	0	0	0	30831	29470	144374	26883	1059845	44914	111485	0	0	8349	381913	0	0
2024-07-16 19:18:47			0	42438	0	0	0	30820	29460	144342	26918	1059800	44912	111481	0	0	8348	382662	0	0
2024-07-16 19:19:47			0	42465	0	0	0	30831	29460	144422	27100	1059782	44913	111485	0	0	8349	381809	0	0
2024-07-16 19:20:47			0	42446	0	0	0	30833	29460	144398	26993	1059890	44923	111486	0	0	8348	382409	0	0
2024-07-16 19:21:47			0	42430	0	0	0	30820	29460	144402	26760	1059692	44912	111481	0	0	8348	382915	0	0
2024-07-16 19:22:47			0	42458	0	0	0	30768	29440	144378	26842	1059575	44887	111461	0	0	8350	382074	0	0
2024-07-16 19:23:47			0	42469	0	0	0	30771	29430	144378	27140	1059647	44920	111462	0	0	8351	381749	0	0
2024-07-16 19:24:47			0	42479	0	0	0	30797	29440	144366	27053	1059692	44911	111472	0	0	8351	381411	0	0
2024-07-16 19:25:47			0	42464	0	0	0	30805	29430	144266	26906	1059719	44920	111475	0	0	8350	381907	0	0
2024-07-16 19:26:47			0	42458	0	0	0	30815	29440	144422	27133	1059764	44910	111479	0	0	8349	382074	0	0
2024-07-16 19:27:47			0	42468	0	0	0	30825	29440	144402	27237	1059719	44933	111483	0	0	8350	381758	0	0
2024-07-16 19:28:47			0	42457	0	0	0	30844	29450	144446	27343	1059782	44922	111490	0	0	8349	382084	0	0
2024-07-16 19:29:47			0	42463	0	0	0	30846	29460	144334	27104	1059800	44923	111491	0	0	8349	381872	0	0
2024-07-16 19:30:47			0	42459	0	0	0	30844	29460	144450	27144	1059800	44912	111490	0	0	8349	381998	0	0
2024-07-16 19:31:47			0	42457	0	0	0	30854	29450	144374	26835	1059818	44922	111494	0	0	8349	382084	0	0
2024-07-16 19:32:47			0	42475	0	0	0	30851	29460	144410	26892	1059827	44901	111493	0	0	8350	381493	0	0
2024-07-16 19:33:47			0	42455	0	0	0	30844	29460	144378	27085	1059773	44912	111490	0	0	8349	382124	0	0
2024-07-16 19:34:47			0	42452	0	0	0	30833	29450	144362	26998	1059728	44922	111486	0	0	8349	382241	0	0
2024-07-16 19:35:47			0	42472	0	0	0	30815	29450	144366	27157	1059728	44911	111479	0	0	8350	381610	0	0
2024-07-16 19:36:47			0	42458	0	0	0	30812	29440	144326	26849	1059746	44933	111478	0	0	8349	382074	0	0
2024-07-16 19:37:47			0	42484	0	0	0	30823	29430	144346	27071	1059701	44920	111482	0	0	8351	381275	0	0
2024-07-16 19:38:47			0	42466	0	0	0	30825	29450	144330	27079	1059701	44922	111483	0	0	8350	381799	0	0
2024-07-16 19:39:47			0	42464	0	0	0	30828	29440	144466	27024	1059773	44933	111484	0	0	8349	381884	0	0
2024-07-16 19:40:47			0	42451	0	0	0	30844	29450	144394	27156	1059836	44922	111490	0	0	8348	382273	0	0
2024-07-16 19:41:47			0	42484	0	0	0	30846	29450	144358	26953	1059836	44933	111491	0	0	8350	381231	0	0
2024-07-16 19:42:47			0	42465	0	0	0	30849	29450	144314	27090	1059818	44922	111492	0	0	8349	381831	0	0
2024-07-16 19:43:47			0	42460	0	0	0	30844	29450	144514	26951	1059845	44933	111490	0	0	8349	381989	0	0
2024-07-16 19:44:47			0	42469	0	0	0	30859	29450	144482	27170	1059791	44922	111496	0	0	8349	381704	0	0
2024-07-16 19:45:47			0	42464	0	0	0	30859	29460	144358	26972	1059863	44923	111496	0	0	8349	381840	0	0
2024-07-16 19:46:47			0	42455	0	0	0	30862	29460	144358	27083	1059854	44912	111497	0	0	8348	382124	0	0
2024-07-16 19:47:47			0	42447	0	0	0	30851	29460	144398	26946	1059773	44923	111493	0	0	8348	382377	0	0
2024-07-16 19:48:47			0	42462	0	0	0	30849	29460	144334	26863	1059827	44934	111492	0	0	8349	381903	0	0
2024-07-16 19:49:47			0	42467	0	0	0	30838	29450	144350	26842	1059764	44911	111488	0	0	8349	381768	0	0
2024-07-16 19:50:47			0	42446	0	0	0	30833	29450	144326	26942	1059728	44922	111486	0	0	8348	382431	0	0
2024-07-16 19:51:47			0	42462	0	0	0	30815	29440	144354	26991	1059692	44911	111479	0	0	8350	381948	0	0
2024-07-16 19:52:47			0	42464	0	0	0	30815	29440	144358	27026	1059683	44921	111479	0	0	8350	381884	0	0
2024-07-16 19:53:47			0	42466	0	0	0	30805	29430	144334	26880	1059647	44886	111475	0	0	8350	381844	0	0
2024-07-16 19:54:47			0	42468	0	0	0	30805	29420	144342	27095	1059576	44909	111475	0	0	8350	381803	0	0
2024-07-16 19:55:47			0	42465	0	0	0	30794	29430	144354	27055	1059638	44920	111471	0	0	8350	381875	0	0
2024-07-16 19:56:47			0	42462	0	0	0	30784	29420	144322	27119	1059567	44908	111467	0	0	8350	381992	0	0
2024-07-16 19:57:47			0	42478	0	0	0	30786	29410	144358	26689	1059495	44907	111468	0	0	8351	381509	0	0
2024-07-16 19:58:47			0	42446	0	0	0	30781	29400	144362	26981	1059504	44906	111466	0	0	8349	382542	0	0
2024-07-16 19:59:47			0	42464	0	0	0	30773	29410	144358	27213	1059495	44929	111463	0	0	8350	381951	0	0
2024-07-16 20:00:47			0	42465	0	0	0	30789	29400	144338	26708	1059594	44929	111469	0	0	8350	381942	0	0
2024-07-16 20:01:47			0	42488	0	0	0	30794	29400	144310	26941	1059621	44907	111471	0	0	8351	381215	0	0
2024-07-16 20:02:47			0	42480	0	0	0	30807	29400	144350	26885	1059585	44928	111476	0	0	8351	381468	0	0
2024-07-16 20:03:47			0	42477	0	0	0	30802	29410	144326	27081	1059531	44918	111474	0	0	8350	381541	0	0
2024-07-16 20:04:47			0	42465	0	0	0	30794	29410	144326	27012	1059585	44918	111471	0	0	8350	381920	0	0
2024-07-16 20:05:47			0	42466	0	0	0	30794	29410	144318	27133	1059558	44918	111471	0	0	8350	381888	0	0
2024-07-16 20:06:47			0	42456	0	0	0	30812	29420	144342	26870	1059567	44930	111478	0	0	8349	382182	0	0
2024-07-16 20:07:47			0	42471	0	0	0	30805	29410	144326	26963	1059612	44918	111475	0	0	8350	381730	0	0
2024-07-16 20:08:47			0	42455	0	0	0	30812	29410	144410	27119	1059666	44929	111478	0	0	8349	382235	0	0
2024-07-16 20:09:47			0	42457	0	0	0	30810	29410	144358	26710	1059630	44929	111477	0	0	8349	382172	0	0
2024-07-16 20:10:47			0	42460	0	0	0	30812	29420	144386	27189	1059675	44919	111478	0	0	8349	382055	0	0
2024-07-16 20:11:47			0	42458	0	0	0	30810	29410	144530	27012	1059612	44918	111477	0	0	8349	382141	0	0
2024-07-16 20:12:47			0	42447	0	0	0	30805	29410	144382	26890	1059612	44918	111475	0	0	8349	382488	0	0
2024-07-16 20:13:47			0	42452	0	0	0	30807	29420	144434	26953	1059621	44919	111476	0	0	8349	382308	0	0
2024-07-16 20:14:47			0	42456	0	0	0	30789	29420	144490	27164	1059567	44930	111469	0	0	8350	382182	0	0
2024-07-16 20:15:47			0	42449	0	0	0	30802	29410	144470	26762	1059603	44929	111474	0	0	8349	382425	0	0
2024-07-16 20:16:47			0	42464	0	0	0	30794	29410	144506	27078	1059576	44907	111471	0	0	8350	381951	0	0
2024-07-16 20:17:47			0	42460	0	0	0	30792	29410	144558	27000	1059558	44918	111470	0	0	8350	382078	0	0
2024-07-16 20:18:47			0	42423	0	0	0	30799	29410	144562	27067	1059558	44929	111473	0	0	8347	383248	0	0
2024-07-16 20:19:47			0	42447	0	0	0	30797	29410	144526	26854	1059558	44918	111472	0	0	8349	382488	0	0
2024-07-16 20:20:47			0	42420	0	0	0	30805	29400	144546	27124	1059513	44929	111475	0	0	8347	383365	0	0
2024-07-16 20:21:47			0	42423	0	0	0	30786	29400	144538	26819	1059531	44917	111468	0	0	8348	383270	0	0
2024-07-16 20:22:47			0	42411	0	0	0	30789	29400	144470	26981	1059540	44918	111469	0	0	8347	383650	0	0
2024-07-16 20:23:47			0	42420	0	0	0	30792	29410	144506	26800	1059549	44929	111470	0	0	8347	383342	0	0
2024-07-16 20:24:47			0	42427	0	0	0	30789	29400	144486	26857	1059558	44906	111469	0	0	8348	383143	0	0
2024-07-16 20:25:47			0	42417	0	0	0	30773	29390	144554	27248	1059441	44927	111463	0	0	8347	383482	0	0
2024-07-16 20:26:47			0	42418	0	0	0	30784	29390	144498	26729	1059522	44905	111467	0	0	8347	383450	0	0
2024-07-16 20:27:47			0	42420	0	0	0	30776	29390	144582	26911	1059468	44927	111464	0	0	8347	383387	0	0
2024-07-16 20:28:47			0	42426	0	0	0	30776	29390	144470	27138	1059495	44916	111464	0	0	8348	383197	0	0
2024-07-16 20:29:47			0	42410	0	0	0	30763	29390	144522	26984	1059468	44939	111459	0	0	8347	383703	0	0
2024-07-16 20:30:47			0	42409	0	0	0	30768	29390	144574	27128	1059441	44905	111461	0	0	8347	383735	0	0
2024-07-16 20:31:47			0	42440	0	0	0	30768	29390	144478	26694	1059432	44927	111461	0	0	8349	382754	0	0
2024-07-16 20:32:47			0	42428	0	0	0	30763	29390	144554	27088	1059432	44905	111459	0	0	8348	383134	0	0
2024-07-16 20:33:47			0	42422	0	0	0	30768	29380	144494	27241	1059387	44916	111461	0	0	8348	383346	0	0
2024-07-16 20:34:47			0	42418	0	0	0	30750	29380	144554	27126	1059423	44916	111454	0	0	8348	383473	0	0
2024-07-16 20:35:47			0	42444	0	0	0	30748	29380	144542	27211	1059360	44916	111453	0	0	8349	382650	0	0
2024-07-16 20:36:47			0	42423	0	0	0	30742	29370	144614	27105	1059288	44915	111451	0	0	8348	383337	0	0
2024-07-16 20:37:47			0	42447	0	0	0	30745	29370	144526	26771	1059351	44903	111452	0	0	8350	382577	0	0
2024-07-16 20:38:47			0	42428	0	0	0	30750	29370	144526	27138	1059342	44937	111454	0	0	8348	383178	0	0
2024-07-16 20:39:47			0	42419	0	0	0	30750	29360	144578	27123	1059298	44914	111454	0	0	8348	383486	0	0
2024-07-16 20:40:47			0	42446	0	0	0	30737	29370	144530	27156	1059288	44925	111449	0	0	8350	382609	0	0
2024-07-16 20:41:47			0	42425	0	0	0	30727	29360	144650	27180	1059271	44924	111445	0	0	8348	383296	0	0
2024-07-16 20:42:47			0	42446	0	0	0	30729	29360	144566	27280	1059253	44914	111446	0	0	8350	382631	0	0
2024-07-16 20:43:47			0	42428	0	0	0	30732	29350	144474	26928	1059280	44901	111447	0	0	8349	383223	0	0
2024-07-16 20:44:47			0	42446	0	0	0	30737	29350	144494	27177	1059262	44923	111449	0	0	8350	382654	0	0
2024-07-16 20:45:47			0	42435	0	0	0	30737	29350	144550	27043	1059226	44922	111449	0	0	8349	383001	0	0
2024-07-16 20:46:47			0	42429	0	0	0	30729	29350	144594	27000	1059199	44912	111446	0	0	8349	383191	0	0
2024-07-16 20:47:47			0	42429	0	0	0	30716	29350	144626	27237	1059226	44901	111441	0	0	8349	383191	0	0
2024-07-16 20:48:47			0	42447	0	0	0	30711	29330	144486	26863	1059145	44911	111439	0	0	8350	382666	0	0
2024-07-16 20:49:47			0	42431	0	0	0	30703	29330	144506	26960	1059037	44900	111436	0	0	8349	383173	0	0
2024-07-16 20:50:47			0	42452	0	0	0	30688	29330	144642	27211	1059028	44910	111430	0	0	8351	382508	0	0
2024-07-16 20:51:47			0	42446	0	0	0	30696	29310	144630	26949	1059056	44898	111433	0	0	8350	382743	0	0
2024-07-16 20:52:47			0	42464	0	0	0	30680	29320	144618	27227	1058984	44919	111427	0	0	8351	382151	0	0
2024-07-16 20:53:47			0	42439	0	0	0	30675	29320	144578	26700	1059038	44919	111425	0	0	8350	382942	0	0
2024-07-16 20:54:47			0	42429	0	0	0	30675	29310	144666	26906	1059083	44886	111425	0	0	8349	383280	0	0
2024-07-16 20:55:47			0	42442	0	0	0	30672	29310	144690	27268	1059020	44918	111424	0	0	8350	382869	0	0
2024-07-16 20:56:47			0	42433	0	0	0	30672	29290	144650	27072	1058903	44906	111424	0	0	8350	383198	0	0
2024-07-16 20:57:47			0	42441	0	0	0	30670	29300	144670	27301	1058948	44896	111423	0	0	8350	382923	0	0
2024-07-16 20:58:47			0	42434	0	0	0	30667	29300	144710	27060	1059029	44918	111422	0	0	8350	383145	0	0
2024-07-16 20:59:47			0	42424	0	0	0	30667	29300	144662	26984	1059029	44940	111422	0	0	8349	383461	0	0
2024-07-16 21:00:47			0	42441	0	0	0	30672	29290	144650	27265	1058957	44928	111424	0	0	8350	382945	0	0
2024-07-16 21:01:47			0	42430	0	0	0	30677	29290	144662	27085	1058912	44907	111426	0	0	8349	383293	0	0
2024-07-16 21:02:47			0	42425	0	0	0	30677	29290	144698	27104	1058930	44917	111426	0	0	8349	383452	0	0
2024-07-16 21:03:47			0	42426	0	0	0	30672	29290	144634	27358	1058993	44907	111424	0	0	8349	383420	0	0
2024-07-16 21:04:47			0	42436	0	0	0	30667	29270	144726	27161	1058931	44905	111422	0	0	8350	383148	0	0
2024-07-16 21:05:47			0	42403	0	0	0	30664	29290	144758	26928	1058930	44906	111421	0	0	8348	384148	0	0
2024-07-16 21:06:47			0	42380	0	0	0	30670	29290	144734	27026	1059011	44906	111423	0	0	8347	384878	0	0
2024-07-16 21:07:47			0	42388	0	0	0	30670	29280	144770	26878	1058939	44927	111423	0	0	8347	384646	0	0
2024-07-16 21:08:47			0	42390	0	0	0	30675	29290	144846	27235	1058993	44907	111425	0	0	8347	384560	0	0
2024-07-16 21:09:47			0	42397	0	0	0	30680	29290	144910	27098	1058903	44917	111427	0	0	8347	384339	0	0
2024-07-16 21:10:47			0	42393	0	0	0	30672	29280	144870	26904	1058939	44916	111424	0	0	8347	384488	0	0
2024-07-16 21:11:47			0	42372	0	0	0	30667	29270	144890	26842	1058867	44904	111422	0	0	8346	385176	0	0
2024-07-16 21:12:47			0	42404	0	0	0	30670	29270	144962	26977	1058850	44916	111423	0	0	8348	384161	0	0
2024-07-16 21:13:47			0	42351	0	0	0	30662	29290	144938	27246	1058930	44906	111420	0	0	8345	385798	0	0
2024-07-16 21:14:47			0	42357	0	0	0	30672	29270	144962	27286	1058931	44905	111424	0	0	8345	385652	0	0
2024-07-16 21:15:47			0	42365	0	0	0	30667	29270	144990	26863	1058957	44939	111422	0	0	8346	385398	0	0
2024-07-16 21:16:47			0	42362	0	0	0	30670	29270	144922	27144	1058985	44939	111423	0	0	8345	385493	0	0
2024-07-16 21:17:47			0	42368	0	0	0	30667	29270	145014	27102	1058921	44926	111422	0	0	8346	385303	0	0
2024-07-16 21:18:47			0	42344	0	0	0	30667	29280	144966	27007	1058805	44905	111422	0	0	8344	386043	0	0
2024-07-16 21:19:47			0	42341	0	0	0	30659	29260	145018	27045	1058831	44937	111419	0	0	8344	386183	0	0
2024-07-16 21:20:47			0	42328	0	0	0	30657	29250	144970	27109	1058823	44937	111418	0	0	8344	386618	0	0
2024-07-16 21:21:47			0	42343	0	0	0	30654	29270	144950	27105	1058813	44926	111417	0	0	8345	386097	0	0
2024-07-16 21:22:47			0	42341	0	0	0	30657	29270	144998	26968	1058786	44904	111418	0	0	8344	386160	0	0
2024-07-16 21:23:47			0	42337	0	0	0	30657	29250	144974	27048	1058850	44915	111418	0	0	8344	386332	0	0
2024-07-16 21:24:47			0	42338	0	0	0	30644	29250	145066	27071	1058796	44903	111413	0	0	8344	386300	0	0
2024-07-16 21:25:47			0	42322	0	0	0	30646	29250	145066	26791	1058760	44914	111414	0	0	8343	386809	0	0
2024-07-16 21:26:47			0	42316	0	0	0	30638	29250	145050	27133	1058796	44915	111411	0	0	8343	387000	0	0
2024-07-16 21:27:47			0	42338	0	0	0	30649	29250	144882	26987	1058760	44936	111415	0	0	8344	386300	0	0
2024-07-16 21:28:47			0	42326	0	0	0	30646	29240	145018	26632	1058778	44914	111414	0	0	8344	386704	0	0
2024-07-16 21:29:47			0	42337	0	0	0	30641	29250	145018	26897	1058769	44915	111412	0	0	8344	386332	0	0
2024-07-16 21:30:47			0	42331	0	0	0	30646	29250	144942	27123	1058814	44914	111414	0	0	8344	386523	0	0
2024-07-16 21:31:47			0	42332	0	0	0	30641	29240	145022	26752	1058805	44902	111412	0	0	8344	386514	0	0
2024-07-16 21:32:47			0	42343	0	0	0	30633	29240	144978	26961	1058724	44914	111409	0	0	8345	386164	0	0
2024-07-16 21:33:47			0	42327	0	0	0	30631	29230	145022	27007	1058652	44923	111408	0	0	8344	386695	0	0
2024-07-16 21:34:47			0	42320	0	0	0	30620	29240	145034	27081	1058715	44913	111404	0	0	8344	386895	0	0
2024-07-16 21:35:47			0	42328	0	0	0	30620	29230	145102	26970	1058706	44935	111404	0	0	8344	386663	0	0
2024-07-16 21:36:47			0	42334	0	0	0	30633	29230	145042	26923	1058733	44935	111409	0	0	8344	386473	0	0
2024-07-16 21:37:47			0	42333	0	0	0	30623	29240	144966	26928	1058715	44901	111405	0	0	8344	386482	0	0
2024-07-16 21:38:47			0	42313	0	0	0	30636	29240	144998	27180	1058742	44923	111410	0	0	8343	387118	0	0
2024-07-16 21:39:47			0	42352	0	0	0	30625	29230	145002	26823	1058760	44913	111406	0	0	8345	385901	0	0
2024-07-16 21:40:47			0	42340	0	0	0	30612	29240	144970	27017	1058715	44901	111401	0	0	8345	386259	0	0
2024-07-16 21:41:47			0	42335	0	0	0	30610	29230	144938	27140	1058697	44900	111400	0	0	8345	386441	0	0
2024-07-16 21:42:47			0	42339	0	0	0	30607	29230	144930	26809	1058652	44913	111399	0	0	8345	386314	0	0
2024-07-16 21:43:47			0	42325	0	0	0	30612	29210	145006	26968	1058670	44911	111401	0	0	8344	386804	0	0
2024-07-16 21:44:47			0	42349	0	0	0	30605	29220	145030	26791	1058580	44922	111398	0	0	8346	386018	0	0
2024-07-16 21:45:47			0	42332	0	0	0	30599	29210	144994	26878	1058590	44921	111396	0	0	8345	386581	0	0
2024-07-16 21:46:47			0	42349	0	0	0	30605	29220	145010	27130	1058571	44911	111398	0	0	8346	386018	0	0
2024-07-16 21:47:47			0	42328	0	0	0	30594	29210	144938	26939	1058527	44910	111394	0	0	8344	386708	0	0
2024-07-16 21:48:47			0	42352	0	0	0	30592	29200	144866	26786	1058491	44909	111393	0	0	8346	385968	0	0
2024-07-16 21:49:47			0	42349	0	0	0	30594	29200	144886	26779	1058545	44909	111394	0	0	8346	386063	0	0
2024-07-16 21:50:47			0	42364	0	0	0	30584	29210	144934	27071	1058500	44898	111390	0	0	8347	385564	0	0
2024-07-16 21:51:47			0	42338	0	0	0	30592	29200	144926	26856	1058509	44919	111393	0	0	8345	386413	0	0
2024-07-16 21:52:47			0	42352	0	0	0	30584	29200	144774	27041	1058536	44909	111390	0	0	8346	385968	0	0
2024-07-16 21:53:47			0	42361	0	0	0	30589	29190	144890	26885	1058500	44919	111392	0	0	8346	385704	0	0
2024-07-16 21:54:47			0	42369	0	0	0	30589	29200	144818	27128	1058509	44897	111392	0	0	8347	385428	0	0
2024-07-16 21:55:47			0	42359	0	0	0	30579	29200	144886	27319	1058509	44931	111388	0	0	8346	385745	0	0
2024-07-16 21:56:47			0	42356	0	0	0	30579	29190	144850	27012	1058473	44909	111388	0	0	8346	385863	0	0
2024-07-16 21:57:47			0	42379	0	0	0	30568	29180	144990	27218	1058428	44896	111384	0	0	8348	385155	0	0
2024-07-16 21:58:47			0	42377	0	0	0	30553	29170	144846	27052	1058276	44896	111378	0	0	8348	385241	0	0
2024-07-16 21:59:47			0	42378	0	0	0	30555	29160	144858	27164	1058258	44882	111379	0	0	8348	385232	0	0
2024-07-16 22:00:47			0	42397	0	0	0	30540	29160	144874	27177	1058285	44894	111373	0	0	8349	384629	0	0
2024-07-16 22:01:47			0	42377	0	0	0	30529	29160	144738	27312	1058249	44905	111369	0	0	8348	385264	0	0
2024-07-16 22:02:47			0	42371	0	0	0	30532	29150	144782	27180	1058186	44916	111370	0	0	8348	385476	0	0
2024-07-16 22:03:47			0	42387	0	0	0	30535	29150	144782	27248	1058267	44904	111371	0	0	8349	384969	0	0
2024-07-16 22:04:47			0	42380	0	0	0	30532	29160	144850	27015	1058258	44905	111370	0	0	8348	385168	0	0
2024-07-16 22:05:47			0	42403	0	0	0	30535	29160	144790	26987	1058249	44905	111371	0	0	8350	384439	0	0
2024-07-16 22:06:47			0	42409	0	0	0	30532	29150	144834	27123	1058204	44926	111370	0	0	8350	384271	0	0
2024-07-16 22:07:47			0	42396	0	0	0	30529	29150	144818	27034	1058240	44904	111369	0	0	8349	384683	0	0
2024-07-16 22:08:47			0	42398	0	0	0	30535	29140	144842	27353	1058276	44903	111371	0	0	8349	384642	0	0
2024-07-16 22:09:47			0	42395	0	0	0	30535	29140	144838	27230	1058222	44903	111371	0	0	8349	384737	0	0
2024-07-16 22:10:47			0	42419	0	0	0	30532	29150	144858	27163	1058231	44904	111370	0	0	8351	383954	0	0
2024-07-16 22:11:47			0	42405	0	0	0	30529	29140	144738	27066	1058267	44902	111369	0	0	8350	384420	0	0
2024-07-16 22:12:47			0	42421	0	0	0	30532	29150	144862	27043	1058231	44926	111370	0	0	8351	383890	0	0
2024-07-16 22:13:47			0	42420	0	0	0	30535	29140	144754	27206	1058249	44915	111371	0	0	8351	383944	0	0
2024-07-16 22:14:47			0	42406	0	0	0	30537	29150	144694	27154	1058231	44904	111372	0	0	8350	384366	0	0
2024-07-16 22:15:47			0	42424	0	0	0	30535	29130	144822	27145	1058177	44924	111371	0	0	8351	383840	0	0
2024-07-16 22:16:47			0	42426	0	0	0	30529	29140	144842	26750	1058222	44925	111369	0	0	8351	383754	0	0
2024-07-16 22:17:47			0	42428	0	0	0	30527	29140	144718	26817	1058222	44903	111368	0	0	8351	383691	0	0
2024-07-16 22:18:47			0	42409	0	0	0	30527	29130	144826	26824	1058168	44935	111368	0	0	8350	384315	0	0
2024-07-16 22:19:47			0	42423	0	0	0	30522	29140	144758	26817	1058132	44924	111366	0	0	8351	383849	0	0
2024-07-16 22:20:47			0	42421	0	0	0	30524	29130	144766	26859	1058150	44935	111367	0	0	8351	383935	0	0
2024-07-16 22:21:47			0	42449	0	0	0	30524	29130	144838	27329	1058096	44891	111367	0	0	8352	383048	0	0
2024-07-16 22:22:47			0	42445	0	0	0	30514	29120	144790	27255	1058132	44901	111363	0	0	8352	383197	0	0
2024-07-16 22:23:47			0	42439	0	0	0	30524	29130	144754	26981	1058141	44914	111367	0	0	8352	383365	0	0
2024-07-16 22:24:47			0	42446	0	0	0	30511	29130	144762	27305	1058114	44914	111362	0	0	8352	383143	0	0
2024-07-16 22:25:47			0	42440	0	0	0	30524	29120	144830	27213	1058159	44913	111367	0	0	8352	383355	0	0
2024-07-16 22:26:47			0	42450	0	0	0	30514	29120	144826	27199	1058132	44913	111363	0	0	8353	383038	0	0
2024-07-16 22:27:47			0	42455	0	0	0	30511	29120	144782	26894	1058151	44934	111362	0	0	8353	382880	0	0
2024-07-16 22:28:47			0	42452	0	0	0	30511	29120	144814	27268	1058052	44923	111362	0	0	8353	382975	0	0
2024-07-16 22:29:47			0	42446	0	0	0	30506	29130	144822	27128	1058114	44924	111360	0	0	8353	383143	0	0
2024-07-16 22:30:47			0	42466	0	0	0	30503	29120	144874	27142	1058105	44901	111359	0	0	8354	382532	0	0
2024-07-16 22:31:47			0	42459	0	0	0	30511	29110	144770	27161	1058169	44912	111362	0	0	8353	382776	0	0
2024-07-16 22:32:47			0	42460	0	0	0	30516	29120	144842	27251	1058159	44913	111364	0	0	8353	382722	0	0
2024-07-16 22:33:47			0	42451	0	0	0	30514	29120	144802	27289	1058132	44913	111363	0	0	8353	383007	0	0
2024-07-16 22:34:47			0	42465	0	0	0	30511	29120	144818	27225	1058070	44912	111362	0	0	8353	382564	0	0
2024-07-16 22:35:47			0	42469	0	0	0	30509	29120	144814	27197	1058124	44900	111361	0	0	8354	382437	0	0
2024-07-16 22:36:47			0	42471	0	0	0	30506	29120	144810	27112	1058178	44900	111360	0	0	8354	382374	0	0
2024-07-16 22:37:47			0	42471	0	0	0	30514	29120	144834	26963	1058124	44912	111363	0	0	8354	382374	0	0
2024-07-16 22:38:47			0	42485	0	0	0	30506	29110	144766	27131	1058052	44900	111360	0	0	8355	381953	0	0
2024-07-16 22:39:47			0	42472	0	0	0	30501	29110	144854	27064	1058115	44912	111358	0	0	8354	382364	0	0
2024-07-16 22:40:47			0	42478	0	0	0	30506	29100	144842	27059	1058043	44933	111360	0	0	8354	382197	0	0
2024-07-16 22:41:47			0	42476	0	0	0	30496	29100	144762	26934	1058016	44876	111356	0	0	8354	382260	0	0
2024-07-16 22:42:47			0	42490	0	0	0	30501	29110	144730	26816	1058061	44922	111358	0	0	8355	381795	0	0
2024-07-16 22:43:47			0	42494	0	0	0	30501	29110	144658	27242	1058052	44900	111358	0	0	8355	381669	0	0
2024-07-16 22:44:47			0	42488	0	0	0	30493	29100	144738	27246	1057908	44911	111355	0	0	8355	381880	0	0
2024-07-16 22:45:47			0	42493	0	0	0	30485	29100	144650	27308	1057980	44920	111352	0	0	8355	381722	0	0
2024-07-16 22:46:47			0	42491	0	0	0	30485	29100	144698	26901	1058016	44899	111352	0	0	8355	381786	0	0
2024-07-16 22:47:47			0	42494	0	0	0	30488	29090	144714	27161	1057998	44898	111353	0	0	8355	381713	0	0
2024-07-16 22:48:47			0	42493	0	0	0	30490	29100	144670	26977	1058034	44920	111354	0	0	8355	381722	0	0
2024-07-16 22:49:47			0	42496	0	0	0	30483	29100	144714	27182	1058016	44911	111351	0	0	8356	381628	0	0
2024-07-16 22:50:47			0	42511	0	0	0	30477	29090	144730	27150	1057890	44898	111349	0	0	8357	381176	0	0
2024-07-16 22:51:47			0	42507	0	0	0	30480	29090	144746	26960	1057989	44898	111350	0	0	8356	381302	0	0
2024-07-16 22:52:47			0	42516	0	0	0	30472	29090	144682	26890	1057881	44898	111347	0	0	8357	381018	0	0
2024-07-16 22:53:47			0	42508	0	0	0	30472	29090	144682	26981	1057881	44910	111347	0	0	8357	381271	0	0
2024-07-16 22:54:47			0	42510	0	0	0	30472	29080	144630	27076	1057980	44897	111347	0	0	8357	381229	0	0
2024-07-16 22:55:47			0	42495	0	0	0	30470	29080	144642	26956	1057953	44919	111346	0	0	8356	381704	0	0
2024-07-16 22:56:47			0	42516	0	0	0	30470	29070	144538	27190	1057909	44917	111346	0	0	8357	381062	0	0
2024-07-16 22:57:47			0	42500	0	0	0	30462	29070	144658	27008	1057828	44917	111343	0	0	8356	381568	0	0
2024-07-16 22:58:47			0	42535	0	0	0	30462	29090	144570	27272	1057855	44898	111343	0	0	8358	380418	0	0
2024-07-16 22:59:47			0	42542	0	0	0	30457	29070	144514	27251	1057792	44917	111341	0	0	8359	380241	0	0
2024-07-16 23:00:47			0	42525	0	0	0	30457	29070	144702	27183	1057801	44917	111341	0	0	8358	380778	0	0
2024-07-16 23:01:47			0	42535	0	0	0	30462	29070	144642	27078	1057846	44917	111343	0	0	8358	380462	0	0
2024-07-16 23:02:47			0	42533	0	0	0	30457	29070	144650	27176	1057882	44917	111341	0	0	8358	380525	0	0
2024-07-16 23:03:47			0	42530	0	0	0	30459	29070	144602	27286	1057846	44917	111342	0	0	8358	380620	0	0
2024-07-16 23:04:47			0	42528	0	0	0	30451	29060	144602	27140	1057756	44917	111339	0	0	8358	380705	0	0
2024-07-16 23:05:47			0	42543	0	0	0	30451	29070	144610	27107	1057819	44907	111339	0	0	8359	380210	0	0
2024-07-16 23:06:47			0	42562	0	0	0	30444	29060	144542	27059	1057756	44907	111336	0	0	8360	379632	0	0
2024-07-16 23:07:47			0	42549	0	0	0	30446	29060	144538	27322	1057720	44916	111337	0	0	8359	380042	0	0
2024-07-16 23:08:47			0	42546	0	0	0	30444	29050	144506	27126	1057756	44894	111336	0	0	8359	380159	0	0
2024-07-16 23:09:47			0	42574	0	0	0	30441	29050	144566	27033	1057702	44927	111335	0	0	8361	379276	0	0
2024-07-16 23:10:47			0	42561	0	0	0	30441	29060	144582	26984	1057747	44916	111335	0	0	8360	379664	0	0
2024-07-16 23:11:47			0	42567	0	0	0	30441	29050	144486	27000	1057729	44916	111335	0	0	8360	379496	0	0
2024-07-16 23:12:47			0	42567	0	0	0	30436	29040	144454	27166	1057748	44905	111333	0	0	8360	379518	0	0
2024-07-16 23:13:47			0	42570	0	0	0	30431	29040	144502	27072	1057667	44894	111331	0	0	8361	379424	0	0
2024-07-16 23:14:47			0	42563	0	0	0	30428	29050	144602	26883	1057729	44905	111330	0	0	8360	379623	0	0
2024-07-16 23:15:47			0	42578	0	0	0	30428	29040	144434	27039	1057658	44904	111330	0	0	8361	379172	0	0
2024-07-16 23:16:47			0	42591	0	0	0	30418	29030	144490	27107	1057595	44914	111326	0	0	8362	378784	0	0
2024-07-16 23:17:47			0	42578	0	0	0	30425	29030	144466	27045	1057595	44903	111329	0	0	8361	379194	0	0
2024-07-16 23:18:47			0	42569	0	0	0	30410	29030	144498	27171	1057532	44892	111323	0	0	8361	379477	0	0
2024-07-16 23:19:47			0	42581	0	0	0	30399	29010	144438	27083	1057469	44877	111319	0	0	8362	379143	0	0
2024-07-16 23:20:47			0	42574	0	0	0	30384	29010	144486	26974	1057334	44889	111313	0	0	8362	379364	0	0
2024-07-16 23:21:47			0	42586	0	0	0	30379	28990	144454	26885	1057362	44888	111311	0	0	8362	379030	0	0
2024-07-16 23:22:47			0	42594	0	0	0	30366	29000	144406	27050	1057398	44912	111306	0	0	8363	378755	0	0
2024-07-16 23:23:47			0	42596	0	0	0	30355	28990	144426	26762	1057326	44887	111302	0	0	8363	378714	0	0
2024-07-16 23:24:47			0	42598	0	0	0	30353	28980	144506	27029	1057317	44887	111301	0	0	8363	378673	0	0
2024-07-16 23:25:47			0	42593	0	0	0	30337	28970	144502	26953	1057245	44897	111295	0	0	8363	378853	0	0
2024-07-16 23:26:47			0	42610	0	0	0	30340	28970	144490	26791	1057209	44908	111296	0	0	8364	378317	0	0
2024-07-16 23:27:47			0	42620	0	0	0	30335	28950	144478	26935	1057219	44885	111294	0	0	8365	378046	0	0
2024-07-16 23:28:47			0	42614	0	0	0	30329	28960	144390	27225	1057254	44908	111292	0	0	8365	378213	0	0
2024-07-16 23:29:47			0	42609	0	0	0	30329	28950	144414	26715	1057237	44884	111292	0	0	8364	378392	0	0
2024-07-16 23:30:47			0	42626	0	0	0	30324	28960	144470	27192	1057228	44918	111290	0	0	8365	377835	0	0
2024-07-16 23:31:47			0	42599	0	0	0	30329	28950	144302	27098	1057165	44896	111292	0	0	8364	378708	0	0
2024-07-16 23:32:47			0	42649	0	0	0	30327	28950	144402	27163	1057138	44908	111291	0	0	8367	377133	0	0
2024-07-16 23:33:47			0	42633	0	0	0	30327	28930	144226	27138	1057183	44905	111291	0	0	8366	377681	0	0
2024-07-16 23:34:47			0	42628	0	0	0	30322	28940	144286	27249	1057219	44893	111289	0	0	8366	377816	0	0
2024-07-16 23:35:47			0	42641	0	0	0	30319	28940	144362	27163	1057147	44894	111288	0	0	8366	377407	0	0
2024-07-16 23:36:47			0	42633	0	0	0	30327	28930	144294	27516	1057156	44916	111291	0	0	8366	377681	0	0
2024-07-16 23:37:47			0	42642	0	0	0	30322	28940	144302	27331	1057228	44916	111289	0	0	8366	377376	0	0
2024-07-16 23:38:47			0	42653	0	0	0	30324	28940	144306	27142	1057219	44893	111290	0	0	8367	377029	0	0
2024-07-16 23:39:47			0	42659	0	0	0	30329	28930	144322	27170	1057120	44893	111292	0	0	8367	376863	0	0
2024-07-16 23:40:47			0	42657	0	0	0	30322	28940	144274	27057	1057165	44905	111289	0	0	8367	376904	0	0
2024-07-16 23:41:47			0	42669	0	0	0	30327	28930	144302	27164	1057147	44916	111291	0	0	8368	376548	0	0
2024-07-16 23:42:47			0	42643	0	0	0	30324	28930	144230	27088	1057183	44905	111290	0	0	8366	377366	0	0
2024-07-16 23:43:47			0	42661	0	0	0	30322	28930	144226	27215	1057120	44905	111289	0	0	8367	376800	0	0
2024-07-16 23:44:47			0	42667	0	0	0	30319	28930	144254	27128	1057156	44905	111288	0	0	8368	376611	0	0
2024-07-16 23:45:47			0	42666	0	0	0	30322	28920	144266	27301	1057192	44915	111289	0	0	8368	376664	0	0
2024-07-16 23:46:47			0	42674	0	0	0	30319	28920	144254	27197	1057138	44904	111288	0	0	8368	376413	0	0
2024-07-16 23:47:47			0	42659	0	0	0	30327	28930	144198	26939	1057174	44905	111291	0	0	8367	376863	0	0
2024-07-16 23:48:47			0	42665	0	0	0	30322	28920	144378	26967	1057111	44915	111289	0	0	8368	376696	0	0
2024-07-16 23:49:47			0	42675	0	0	0	30319	28930	144254	26838	1057183	44916	111288	0	0	8368	376360	0	0
2024-07-16 23:50:47			0	42667	0	0	0	30327	28930	144194	27029	1057201	44916	111291	0	0	8368	376611	0	0
2024-07-16 23:51:47			0	42651	0	0	0	30327	28930	144274	27246	1057147	44905	111291	0	0	8367	377114	0	0
2024-07-16 23:52:47			0	42663	0	0	0	30327	28930	144282	26946	1057201	44905	111291	0	0	8367	376737	0	0
2024-07-16 23:53:47			0	42659	0	0	0	30324	28930	144150	26939	1057237	44893	111290	0	0	8367	376863	0	0
2024-07-16 23:54:47			0	42655	0	0	0	30329	28930	144266	27215	1057147	44916	111292	0	0	8367	376988	0	0
2024-07-16 23:55:47			0	42629	0	0	0	30332	28940	144210	27010	1057165	44916	111293	0	0	8365	377785	0	0
2024-07-16 23:56:47			0	42659	0	0	0	30332	28920	144338	26861	1057192	44915	111293	0	0	8367	376884	0	0
2024-07-16 23:57:47			0	42630	0	0	0	30327	28930	144278	26753	1057156	44916	111291	0	0	8366	377775	0	0
2024-07-16 23:58:47			0	42610	0	0	0	30332	28930	144318	26726	1057210	44905	111293	0	0	8364	378405	0	0
2024-07-16 23:59:47			0	42614	0	0	0	30337	28930	144286	26628	1057129	44893	111295	0	0	8364	378279	0	0
2024-07-17 00:00:47			0	42622	0	0	0	30329	28930	144318	26790	1057210	44916	111292	0	0	8365	378027	0	0
2024-07-17 00:01:47			0	42627	0	0	0	30324	28930	144370	27067	1057147	44893	111290	0	0	8365	377869	0	0
2024-07-17 00:02:47			0	42609	0	0	0	30324	28930	144394	26897	1057156	44905	111290	0	0	8364	378436	0	0
2024-07-17 00:03:47			0	42611	0	0	0	30324	28930	144446	26909	1057120	44916	111290	0	0	8364	378373	0	0
2024-07-17 00:04:47			0	42590	0	0	0	30327	28930	144454	26871	1057120	44893	111291	0	0	8363	379035	0	0
2024-07-17 00:05:47			0	42597	0	0	0	30319	28920	144470	27027	1057130	44903	111288	0	0	8364	378836	0	0
2024-07-17 00:06:47			0	42592	0	0	0	30316	28930	144502	26785	1057147	44905	111287	0	0	8363	378972	0	0
2024-07-17 00:07:47			0	42571	0	0	0	30319	28930	144506	26769	1057120	44916	111288	0	0	8362	379635	0	0
2024-07-17 00:08:47			0	42573	0	0	0	30319	28930	144370	26951	1057147	44916	111288	0	0	8362	379571	0	0
2024-07-17 00:09:47			0	42581	0	0	0	30314	28910	144578	27232	1057094	44903	111286	0	0	8363	379363	0	0
2024-07-17 00:10:47			0	42566	0	0	0	30306	28920	144574	27166	1057076	44914	111283	0	0	8362	379814	0	0
2024-07-17 00:11:47			0	42553	0	0	0	30319	28920	144614	27064	1057049	44903	111288	0	0	8361	380225	0	0
2024-07-17 00:12:47			0	42561	0	0	0	30301	28920	144678	27072	1057076	44903	111281	0	0	8362	379972	0	0
2024-07-17 00:13:47			0	42548	0	0	0	30309	28910	144650	26863	1057067	44903	111284	0	0	8361	380405	0	0
2024-07-17 00:14:47			0	42540	0	0	0	30288	28900	144678	26918	1057022	44902	111276	0	0	8361	380679	0	0
2024-07-17 00:15:47			0	42556	0	0	0	30298	28910	144794	27133	1056950	44903	111280	0	0	8362	380152	0	0
2024-07-17 00:16:47			0	42549	0	0	0	30296	28900	144766	26970	1056968	44913	111279	0	0	8361	380395	0	0
2024-07-17 00:17:47			0	42544	0	0	0	30301	28910	144758	26783	1057031	44903	111281	0	0	8361	380531	0	0
2024-07-17 00:18:47			0	42531	0	0	0	30288	28900	144782	26967	1057013	44901	111276	0	0	8360	380964	0	0
2024-07-17 00:19:47			0	42528	0	0	0	30293	28900	144766	27008	1056986	44912	111278	0	0	8360	381059	0	0
2024-07-17 00:20:47			0	42535	0	0	0	30285	28890	144818	26918	1056950	44901	111275	0	0	8360	380860	0	0
2024-07-17 00:21:47			0	42528	0	0	0	30290	28890	144758	26967	1056923	44901	111277	0	0	8360	381081	0	0
2024-07-17 00:22:47			0	42538	0	0	0	30280	28890	144814	27135	1057004	44912	111273	0	0	8361	380765	0	0
2024-07-17 00:23:47			0	42523	0	0	0	30285	28890	144774	27104	1056923	44912	111275	0	0	8360	381239	0	0
2024-07-17 00:24:47			0	42518	0	0	0	30277	28890	144762	27131	1056977	44901	111272	0	0	8360	381397	0	0
2024-07-17 00:25:47			0	42512	0	0	0	30288	28890	144890	26837	1056950	44878	111276	0	0	8359	381587	0	0
2024-07-17 00:26:47			0	42510	0	0	0	30277	28890	144902	27052	1056914	44890	111272	0	0	8359	381650	0	0
2024-07-17 00:27:47			0	42492	0	0	0	30275	28880	144906	27013	1056905	44911	111271	0	0	8358	382242	0	0
2024-07-17 00:28:47			0	42511	0	0	0	30277	28890	144914	27092	1056914	44912	111272	0	0	8359	381618	0	0
2024-07-17 00:29:47			0	42512	0	0	0	30283	28880	144902	27119	1056923	44899	111274	0	0	8359	381609	0	0
2024-07-17 00:30:47			0	42507	0	0	0	30272	28890	144934	27109	1056941	44890	111270	0	0	8359	381745	0	0
2024-07-17 00:31:47			0	42498	0	0	0	30272	28880	144886	27194	1056932	44911	111270	0	0	8358	382052	0	0
2024-07-17 00:32:47			0	42496	0	0	0	30267	28880	144914	27138	1056923	44899	111268	0	0	8358	382115	0	0
2024-07-17 00:33:47			0	42493	0	0	0	30264	28870	145018	27275	1056860	44910	111267	0	0	8358	382232	0	0
2024-07-17 00:34:47			0	42494	0	0	0	30262	28880	144958	27144	1056896	44899	111266	0	0	8358	382178	0	0
2024-07-17 00:35:47			0	42502	0	0	0	30264	28870	144982	26993	1056834	44910	111267	0	0	8359	381947	0	0
2024-07-17 00:36:47			0	42499	0	0	0	30267	28870	144938	27372	1056807	44899	111268	0	0	8359	382042	0	0
2024-07-17 00:37:47			0	42492	0	0	0	30262	28870	144962	27019	1056807	44899	111266	0	0	8358	382264	0	0
2024-07-17 00:38:47			0	42507	0	0	0	30259	28870	144906	27128	1056860	44899	111265	0	0	8359	381789	0	0
2024-07-17 00:39:47			0	42490	0	0	0	30259	28880	145002	27260	1056869	44888	111265	0	0	8358	382305	0	0
2024-07-17 00:40:47			0	42485	0	0	0	30251	28860	145098	26977	1056788	44910	111262	0	0	8358	382508	0	0
2024-07-17 00:41:47			0	42475	0	0	0	30249	28860	145006	27225	1056753	44897	111261	0	0	8357	382824	0	0
2024-07-17 00:42:47			0	42488	0	0	0	30246	28860	145026	26949	1056699	44886	111260	0	0	8358	382413	0	0
2024-07-17 00:43:47			0	42489	0	0	0	30241	28860	145046	26963	1056788	44910	111258	0	0	8358	382381	0	0
2024-07-17 00:44:47			0	42484	0	0	0	30246	28850	145002	26883	1056789	44896	111260	0	0	8358	382561	0	0
2024-07-17 00:45:47			0	42497	0	0	0	30246	28850	145066	27272	1056708	44896	111260	0	0	8359	382150	0	0
2024-07-17 00:46:47			0	42481	0	0	0	30236	28850	145022	27145	1056735	44885	111256	0	0	8358	382657	0	0
2024-07-17 00:47:47			0	42504	0	0	0	30231	28850	145054	27177	1056708	44908	111254	0	0	8359	381928	0	0
2024-07-17 00:48:47			0	42498	0	0	0	30238	28840	144998	27128	1056699	44896	111257	0	0	8359	382140	0	0
2024-07-17 00:49:47			0	42489	0	0	0	30231	28850	145010	27279	1056708	44874	111254	0	0	8359	382403	0	0
2024-07-17 00:50:47			0	42479	0	0	0	30223	28840	145026	27197	1056672	44885	111251	0	0	8358	382742	0	0
2024-07-17 00:51:47			0	42480	0	0	0	30225	28840	145086	26809	1056663	44895	111252	0	0	8358	382710	0	0
2024-07-17 00:52:47			0	42488	0	0	0	30233	28840	145014	27405	1056609	44895	111255	0	0	8358	382457	0	0
2024-07-17 00:53:47			0	42483	0	0	0	30218	28840	145006	27007	1056663	44895	111249	0	0	8358	382615	0	0
2024-07-17 00:54:47			0	42500	0	0	0	30225	28840	144914	27275	1056609	44873	111252	0	0	8359	382077	0	0
2024-07-17 00:55:47			0	42501	0	0	0	30215	28830	144954	27350	1056654	44894	111248	0	0	8359	382068	0	0
2024-07-17 00:56:47			0	42503	0	0	0	30215	28830	144994	26911	1056592	44906	111248	0	0	8360	382004	0	0
2024-07-17 00:57:47			0	42509	0	0	0	30205	28820	144902	27185	1056574	44893	111244	0	0	8360	381836	0	0
2024-07-17 00:58:47			0	42485	0	0	0	30202	28830	144990	27390	1056546	44894	111243	0	0	8359	382574	0	0
2024-07-17 00:59:47			0	42503	0	0	0	30199	28820	145030	27142	1056466	44905	111242	0	0	8360	382026	0	0
2024-07-17 01:00:47			0	42505	0	0	0	30197	28820	145062	27190	1056574	44882	111241	0	0	8360	381963	0	0
2024-07-17 01:01:47			0	42496	0	0	0	30197	28820	145074	27300	1056601	44893	111241	0	0	8359	382248	0	0
2024-07-17 01:02:47			0	42500	0	0	0	30202	28820	145034	27092	1056466	44905	111243	0	0	8360	382121	0	0
2024-07-17 01:03:47			0	42510	0	0	0	30192	28810	145034	27192	1056556	44892	111239	0	0	8360	381827	0	0
2024-07-17 01:04:47			0	42506	0	0	0	30197	28810	144922	27346	1056565	44881	111241	0	0	8360	381953	0	0
2024-07-17 01:05:47			0	42507	0	0	0	30194	28810	145014	26712	1056565	44892	111240	0	0	8360	381922	0	0
2024-07-17 01:06:47			0	42498	0	0	0	30189	28810	145034	26932	1056583	44915	111238	0	0	8360	382207	0	0
2024-07-17 01:07:47			0	42520	0	0	0	30189	28810	144938	27267	1056421	44892	111238	0	0	8361	381511	0	0
2024-07-17 01:08:47			0	42509	0	0	0	30181	28810	144954	26958	1056448	44904	111235	0	0	8360	381859	0	0
2024-07-17 01:09:47			0	42530	0	0	0	30186	28790	144902	27206	1056422	44902	111237	0	0	8361	381238	0	0
2024-07-17 01:10:47			0	42517	0	0	0	30181	28790	145026	27313	1056341	44902	111235	0	0	8361	381650	0	0
2024-07-17 01:11:47			0	42520	0	0	0	30184	28800	144886	27114	1056403	44903	111236	0	0	8361	381533	0	0
2024-07-17 01:12:47			0	42517	0	0	0	30174	28800	144934	27074	1056430	44903	111232	0	0	8361	381628	0	0
2024-07-17 01:13:47			0	42529	0	0	0	30168	28790	144938	26911	1056413	44890	111230	0	0	8362	381270	0	0
2024-07-17 01:14:47			0	42511	0	0	0	30179	28780	145038	26993	1056377	44889	111234	0	0	8360	381861	0	0
2024-07-17 01:15:47			0	42516	0	0	0	30171	28780	144974	26994	1056377	44889	111231	0	0	8361	381703	0	0
2024-07-17 01:16:47			0	42537	0	0	0	30166	28780	144906	27000	1056323	44878	111229	0	0	8362	381039	0	0
2024-07-17 01:17:47			0	42525	0	0	0	30166	28790	144874	26918	1056395	44890	111229	0	0	8361	381396	0	0
2024-07-17 01:18:47			0	42544	0	0	0	30158	28780	145050	27144	1056350	44901	111226	0	0	8363	380818	0	0
2024-07-17 01:19:47			0	42527	0	0	0	30155	28770	144918	27124	1056359	44888	111225	0	0	8362	381377	0	0
2024-07-17 01:20:47			0	42520	0	0	0	30166	28780	144998	27050	1056368	44868	111229	0	0	8361	381577	0	0
2024-07-17 01:21:47			0	42546	0	0	0	30161	28790	144878	26939	1056413	44879	111227	0	0	8363	380732	0	0
2024-07-17 01:22:47			0	42534	0	0	0	30161	28780	144882	26814	1056341	44901	111227	0	0	8362	381134	0	0
2024-07-17 01:23:47			0	42540	0	0	0	30158	28780	144934	26961	1056350	44901	111226	0	0	8362	380944	0	0
2024-07-17 01:24:47			0	42542	0	0	0	30158	28770	144798	27048	1056305	44911	111226	0	0	8363	380903	0	0
2024-07-17 01:25:47			0	42570	0	0	0	30153	28770	144910	27126	1056278	44900	111224	0	0	8364	380018	0	0
2024-07-17 01:26:47			0	42554	0	0	0	30150	28770	144910	26790	1056197	44911	111223	0	0	8363	380524	0	0
2024-07-17 01:27:47			0	42549	0	0	0	30145	28770	144982	27144	1056269	44910	111221	0	0	8363	380682	0	0
2024-07-17 01:28:47			0	42566	0	0	0	30153	28770	144838	27157	1056269	44887	111224	0	0	8364	380145	0	0
2024-07-17 01:29:47			0	42565	0	0	0	30153	28760	144910	26838	1056260	44899	111224	0	0	8364	380198	0	0
2024-07-17 01:30:47			0	42556	0	0	0	30148	28760	144846	26993	1056251	44899	111222	0	0	8363	380483	0	0
2024-07-17 01:31:47			0	42573	0	0	0	30148	28760	144826	26878	1056287	44910	111222	0	0	8364	379945	0	0
2024-07-17 01:32:47			0	42573	0	0	0	30148	28760	144886	26833	1056278	44899	111222	0	0	8364	379945	0	0
2024-07-17 01:33:47			0	42579	0	0	0	30140	28760	144790	27102	1056224	44887	111219	0	0	8365	379756	0	0
2024-07-17 01:34:47			0	42577	0	0	0	30142	28760	144922	26941	1056287	44876	111220	0	0	8365	379819	0	0
2024-07-17 01:35:47			0	42573	0	0	0	30137	28760	144774	26934	1056224	44899	111218	0	0	8365	379945	0	0
2024-07-17 01:36:47			0	42602	0	0	0	30145	28750	144766	26857	1056287	44897	111221	0	0	8366	379052	0	0
2024-07-17 01:37:47			0	42590	0	0	0	30140	28760	144838	26726	1056224	44899	111219	0	0	8366	379409	0	0
2024-07-17 01:38:47			0	42577	0	0	0	30135	28750	144794	27239	1056180	44886	111217	0	0	8365	379841	0	0
2024-07-17 01:39:47			0	42602	0	0	0	30137	28750	144818	26738	1056153	44897	111218	0	0	8366	379052	0	0
2024-07-17 01:40:47			0	42589	0	0	0	30137	28750	144766	26909	1056180	44875	111218	0	0	8366	379462	0	0
2024-07-17 01:41:47			0	42597	0	0	0	30124	28750	144802	27003	1056153	44852	111213	0	0	8366	379210	0	0
2024-07-17 01:42:47			0	42598	0	0	0	30122	28740	144782	26840	1056117	44886	111212	0	0	8366	379200	0	0
2024-07-17 01:43:47			0	42582	0	0	0	30109	28740	144802	27005	1056144	44897	111207	0	0	8366	379705	0	0
2024-07-17 01:44:47			0	42592	0	0	0	30116	28730	144790	27050	1056072	44885	111210	0	0	8366	379412	0	0
2024-07-17 01:45:47			0	42609	0	0	0	30116	28730	144790	27015	1056072	44885	111210	0	0	8367	378875	0	0
2024-07-17 01:46:47			0	42596	0	0	0	30111	28730	144754	26698	1056045	44896	111208	0	0	8366	379285	0	0
2024-07-17 01:47:47			0	42618	0	0	0	30114	28730	144730	27015	1056090	44884	111209	0	0	8368	378591	0	0
2024-07-17 01:48:47			0	42602	0	0	0	30106	28720	144810	26920	1056135	44895	111206	0	0	8367	379118	0	0
2024-07-17 01:49:47			0	42633	0	0	0	30106	28730	144742	27022	1056045	44863	111206	0	0	8369	378119	0	0
2024-07-17 01:50:47			0	42643	0	0	0	30111	28730	144850	26819	1056063	44884	111208	0	0	8369	377803	0	0
2024-07-17 01:51:47			0	42626	0	0	0	30106	28730	144706	26726	1056036	44884	111206	0	0	8368	378339	0	0
2024-07-17 01:52:47			0	42607	0	0	0	30098	28730	144854	26998	1056063	44884	111203	0	0	8367	378938	0	0
2024-07-17 01:53:47			0	42639	0	0	0	30101	28720	144602	26896	1056054	44884	111204	0	0	8369	377951	0	0
2024-07-17 01:54:47			0	42623	0	0	0	30098	28720	144618	27104	1056081	44895	111203	0	0	8368	378456	0	0
2024-07-17 01:55:47			0	42628	0	0	0	30096	28720	144626	27317	1056081	44884	111202	0	0	8368	378298	0	0
2024-07-17 01:56:47			0	42643	0	0	0	30101	28720	144710	27308	1056054	44895	111204	0	0	8369	377825	0	0
2024-07-17 01:57:47			0	42645	0	0	0	30090	28720	144610	27185	1056072	44861	111200	0	0	8370	377762	0	0
2024-07-17 01:58:47			0	42653	0	0	0	30096	28710	144710	26889	1056010	44883	111202	0	0	8370	377532	0	0
2024-07-17 01:59:47			0	42635	0	0	0	30096	28700	144762	27013	1056019	44893	111202	0	0	8369	378121	0	0
2024-07-17 02:00:47			0	42641	0	0	0	30085	28710	144662	27102	1056010	44883	111198	0	0	8369	377910	0	0
2024-07-17 02:01:47			0	42648	0	0	0	30088	28710	144658	26991	1056028	44893	111199	0	0	8370	377690	0	0
2024-07-17 02:02:47			0	42649	0	0	0	30083	28710	144642	27280	1055983	44905	111197	0	0	8370	377658	0	0
2024-07-17 02:03:47			0	42653	0	0	0	30085	28710	144546	27145	1056001	44893	111198	0	0	8370	377532	0	0
2024-07-17 02:04:47			0	42653	0	0	0	30075	28700	144522	27164	1055992	44871	111194	0	0	8370	377554	0	0
2024-07-17 02:05:47			0	42664	0	0	0	30075	28700	144566	26918	1055965	44893	111194	0	0	8371	377208	0	0
2024-07-17 02:06:47			0	42675	0	0	0	30085	28700	144614	27208	1055956	44892	111198	0	0	8371	376862	0	0
2024-07-17 02:07:47			0	42663	0	0	0	30083	28700	144726	27352	1055965	44893	111197	0	0	8371	377239	0	0
2024-07-17 02:08:47			0	42668	0	0	0	30075	28690	144554	27230	1055947	44881	111194	0	0	8371	377104	0	0
2024-07-17 02:09:47			0	42687	0	0	0	30070	28700	144546	27293	1055848	44892	111192	0	0	8372	376484	0	0
2024-07-17 02:10:47			0	42686	0	0	0	30077	28700	144598	27281	1055929	44892	111195	0	0	8372	376515	0	0
2024-07-17 02:11:47			0	42672	0	0	0	30077	28700	144530	27048	1055929	44892	111195	0	0	8371	376956	0	0
2024-07-17 02:12:47			0	42682	0	0	0	30072	28690	144462	26795	1055974	44892	111193	0	0	8372	376663	0	0
2024-07-17 02:13:47			0	42698	0	0	0	30064	28680	144494	27182	1055876	44903	111190	0	0	8373	376182	0	0
2024-07-17 02:14:47			0	42699	0	0	0	30075	28680	144610	27197	1055813	44879	111194	0	0	8373	376150	0	0
2024-07-17 02:15:47			0	42702	0	0	0	30057	28680	144310	26996	1055849	44891	111187	0	0	8373	376056	0	0
2024-07-17 02:16:47			0	42698	0	0	0	30059	28680	144490	27138	1055840	44890	111188	0	0	8373	376182	0	0
2024-07-17 02:17:47			0	42681	0	0	0	30064	28680	144366	27085	1055840	44868	111190	0	0	8372	376716	0	0
2024-07-17 02:18:47			0	42665	0	0	0	30049	28670	144374	27017	1055831	44901	111184	0	0	8371	377242	0	0
2024-07-17 02:19:47			0	42676	0	0	0	30054	28680	144430	27255	1055795	44891	111186	0	0	8372	376874	0	0
2024-07-17 02:20:47			0	42693	0	0	0	30046	28660	144430	27090	1055759	44877	111183	0	0	8373	376382	0	0
2024-07-17 02:21:47			0	42681	0	0	0	30046	28660	144430	26984	1055813	44866	111183	0	0	8372	376760	0	0
2024-07-17 02:22:47			0	42715	0	0	0	30036	28670	144478	27055	1055723	44878	111179	0	0	8374	375669	0	0
2024-07-17 02:23:47			0	42712	0	0	0	30036	28660	144434	27052	1055732	44888	111179	0	0	8374	375785	0	0
2024-07-17 02:24:47			0	42707	0	0	0	30036	28660	144430	27152	1055732	44877	111179	0	0	8374	375942	0	0
2024-07-17 02:25:47			0	42728	0	0	0	30041	28660	144327	27076	1055732	44877	111181	0	0	8375	375282	0	0
2024-07-17 02:26:47			0	42717	0	0	0	30036	28660	144371	26892	1055741	44878	111179	0	0	8374	375628	0	0
2024-07-17 02:27:47			0	42721	0	0	0	30028	28660	144343	27213	1055732	44888	111176	0	0	8375	375502	0	0
2024-07-17 02:28:47			0	42731	0	0	0	30028	28640	144343	27265	1055786	44899	111176	0	0	8375	375232	0	0
2024-07-17 02:29:47			0	42704	0	0	0	30033	28640	144318	27274	1055651	44887	111178	0	0	8374	376080	0	0
2024-07-17 02:30:47			0	42730	0	0	0	30031	28640	144339	27183	1055651	44876	111177	0	0	8375	375263	0	0
2024-07-17 02:31:47			0	42740	0	0	0	30025	28630	144391	27213	1055661	44886	111175	0	0	8376	374970	0	0
2024-07-17 02:32:47			0	42728	0	0	0	30025	28640	144294	27235	1055616	44886	111175	0	0	8375	375326	0	0
2024-07-17 02:33:47			0	42716	0	0	0	30023	28630	144410	27012	1055661	44875	111174	0	0	8374	375725	0	0
2024-07-17 02:34:47			0	42743	0	0	0	30020	28620	144311	27161	1055634	44884	111173	0	0	8376	374898	0	0
2024-07-17 02:35:47			0	42725	0	0	0	30018	28630	144283	27105	1055688	44898	111172	0	0	8375	375442	0	0
2024-07-17 02:36:47			0	42745	0	0	0	30015	28630	144355	27060	1055598	44875	111171	0	0	8376	374814	0	0
2024-07-17 02:37:47			0	42743	0	0	0	30018	28630	144239	27301	1055652	44875	111172	0	0	8376	374876	0	0
2024-07-17 02:38:47			0	42751	0	0	0	30018	28620	144375	26762	1055607	44884	111172	0	0	8377	374647	0	0
2024-07-17 02:39:47			0	42755	0	0	0	30005	28620	144283	27100	1055607	44851	111167	0	0	8377	374521	0	0
2024-07-17 02:40:47			0	42732	0	0	0	30002	28610	144363	26908	1055517	44884	111166	0	0	8376	375265	0	0
2024-07-17 02:41:47			0	42750	0	0	0	30005	28610	144347	27152	1055571	44884	111167	0	0	8377	374700	0	0
2024-07-17 02:42:47			0	42741	0	0	0	29999	28610	144435	27107	1055571	44907	111165	0	0	8376	374982	0	0
2024-07-17 02:43:47			0	42737	0	0	0	30002	28600	144355	27055	1055580	44883	111166	0	0	8376	375130	0	0
2024-07-17 02:44:47			0	42752	0	0	0	30010	28610	144323	27135	1055571	44884	111169	0	0	8377	374637	0	0
2024-07-17 02:45:47			0	42757	0	0	0	29999	28610	144299	27326	1055544	44884	111165	0	0	8377	374480	0	0
2024-07-17 02:46:47			0	42765	0	0	0	29999	28610	144363	27203	1055544	44884	111165	0	0	8378	374229	0	0
2024-07-17 02:47:47			0	42752	0	0	0	29999	28600	144319	26965	1055553	44883	111165	0	0	8377	374659	0	0
2024-07-17 02:48:47			0	42746	0	0	0	29992	28600	144311	26991	1055571	44894	111162	0	0	8377	374847	0	0
2024-07-17 02:49:47			0	42760	0	0	0	29989	28590	144299	26965	1055536	44883	111161	0	0	8377	374429	0	0
2024-07-17 02:50:47			0	42780	0	0	0	29994	28600	144255	27185	1055500	44883	111163	0	0	8379	373780	0	0
2024-07-17 02:51:47			0	42769	0	0	0	29994	28590	144307	27249	1055536	44883	111163	0	0	8378	374147	0	0
2024-07-17 02:52:47			0	42761	0	0	0	29989	28600	144263	27135	1055464	44883	111161	0	0	8378	374376	0	0
2024-07-17 02:53:47			0	42768	0	0	0	29979	28600	144287	26779	1055518	44861	111157	0	0	8378	374157	0	0
2024-07-17 02:54:47			0	42774	0	0	0	29979	28600	144331	27194	1055500	44883	111157	0	0	8379	373968	0	0
2024-07-17 02:55:47			0	42759	0	0	0	29981	28590	144211	27109	1055473	44882	111158	0	0	8378	374461	0	0
2024-07-17 02:56:47			0	42779	0	0	0	29986	28600	144231	27305	1055437	44883	111160	0	0	8379	373812	0	0
2024-07-17 02:57:47			0	42764	0	0	0	29976	28590	144279	27201	1055446	44871	111156	0	0	8378	374304	0	0
2024-07-17 02:58:47			0	42762	0	0	0	29981	28580	144235	27069	1055437	44881	111158	0	0	8378	374388	0	0
2024-07-17 02:59:47			0	42776	0	0	0	29971	28590	144351	27246	1055419	44882	111154	0	0	8379	373927	0	0
2024-07-17 03:00:47			0	42781	0	0	0	29973	28580	144263	27280	1055410	44870	111155	0	0	8379	373792	0	0
2024-07-17 03:01:47			0	42786	0	0	0	29968	28590	144299	27098	1055419	44882	111153	0	0	8379	373614	0	0
2024-07-17 03:02:47			0	42767	0	0	0	29966	28580	144263	27194	1055428	44870	111152	0	0	8378	374231	0	0
2024-07-17 03:03:47			0	42789	0	0	0	29966	28590	144307	27277	1055428	44883	111152	0	0	8380	373520	0	0
2024-07-17 03:04:47			0	42783	0	0	0	29973	28580	144247	27254	1055455	44870	111155	0	0	8379	373729	0	0
2024-07-17 03:05:47			0	42781	0	0	0	29968	28580	144203	27137	1055410	44892	111153	0	0	8379	373792	0	0
2024-07-17 03:06:47			0	42788	0	0	0	29963	28580	144299	27175	1055428	44892	111151	0	0	8380	373573	0	0
2024-07-17 03:07:47			0	42791	0	0	0	29968	28580	144283	27104	1055410	44881	111153	0	0	8380	373478	0	0
2024-07-17 03:08:47			0	42798	0	0	0	29963	28570	144195	26949	1055392	44858	111151	0	0	8380	373281	0	0
2024-07-17 03:09:47			0	42789	0	0	0	29973	28570	144195	26811	1055365	44869	111155	0	0	8379	373563	0	0
2024-07-17 03:10:47			0	42806	0	0	0	29961	28580	144295	26786	1055320	44892	111150	0	0	8381	373008	0	0
2024-07-17 03:11:47			0	42790	0	0	0	29955	28560	144295	26897	1055285	44878	111148	0	0	8380	373553	0	0
2024-07-17 03:12:47			0	42801	0	0	0	29955	28570	144287	27012	1055357	44880	111148	0	0	8380	373187	0	0
2024-07-17 03:13:47			0	42798	0	0	0	29955	28560	144295	27104	1055240	44857	111148	0	0	8380	373302	0	0
2024-07-17 03:14:47			0	42802	0	0	0	29955	28570	144203	27027	1055384	44869	111148	0	0	8380	373155	0	0
2024-07-17 03:15:47			0	42818	0	0	0	29950	28570	144243	27069	1055330	44869	111146	0	0	8381	372654	0	0
2024-07-17 03:16:47			0	42796	0	0	0	29948	28570	144395	26840	1055303	44880	111145	0	0	8380	373343	0	0
2024-07-17 03:17:47			0	42793	0	0	0	29945	28560	144223	27244	1055267	44879	111144	0	0	8380	373459	0	0
2024-07-17 03:18:47			0	42802	0	0	0	29948	28570	144235	27074	1055303	44891	111145	0	0	8381	373155	0	0
2024-07-17 03:19:47			0	42797	0	0	0	29942	28560	144303	26868	1055312	44889	111143	0	0	8380	373334	0	0
2024-07-17 03:20:47			0	42815	0	0	0	29942	28550	144311	27076	1055276	44878	111143	0	0	8381	372791	0	0
2024-07-17 03:21:47			0	42824	0	0	0	29942	28550	144207	27124	1055213	44878	111143	0	0	8382	372509	0	0
2024-07-17 03:22:47			0	42809	0	0	0	29942	28550	144255	26963	1055222	44878	111143	0	0	8381	372979	0	0
2024-07-17 03:23:47			0	42804	0	0	0	29932	28550	144247	26798	1055186	44889	111139	0	0	8381	373136	0	0
2024-07-17 03:24:47			0	42800	0	0	0	29932	28540	144243	26653	1055231	44877	111139	0	0	8381	373283	0	0
2024-07-17 03:25:47			0	42834	0	0	0	29945	28550	144275	27159	1055276	44878	111144	0	0	8382	372196	0	0
2024-07-17 03:26:47			0	42798	0	0	0	29935	28540	144127	27164	1055231	44877	111140	0	0	8380	373345	0	0
2024-07-17 03:27:47			0	42814	0	0	0	29937	28540	144243	26982	1055178	44888	111141	0	0	8381	372844	0	0
2024-07-17 03:28:47			0	42813	0	0	0	29932	28540	144227	26821	1055196	44887	111139	0	0	8381	372875	0	0
2024-07-17 03:29:47			0	42817	0	0	0	29935	28540	144171	27053	1055204	44866	111140	0	0	8382	372750	0	0
2024-07-17 03:30:47			0	42830	0	0	0	29924	28530	144183	26981	1055214	44887	111136	0	0	8382	372364	0	0
2024-07-17 03:31:47			0	42840	0	0	0	29932	28540	144279	26904	1055178	44877	111139	0	0	8383	372030	0	0
2024-07-17 03:32:47			0	42833	0	0	0	29929	28530	144215	26767	1055160	44854	111138	0	0	8383	372270	0	0
2024-07-17 03:33:47			0	42819	0	0	0	29922	28540	144183	27033	1055169	44876	111135	0	0	8382	372687	0	0
2024-07-17 03:34:47			0	42832	0	0	0	29922	28530	144283	27197	1055106	44887	111135	0	0	8383	372302	0	0
2024-07-17 03:35:47			0	42843	0	0	0	29906	28540	144131	26930	1055142	44876	111129	0	0	8384	371936	0	0
2024-07-17 03:36:47			0	42823	0	0	0	29922	28530	144327	27043	1055124	44865	111135	0	0	8382	372584	0	0
2024-07-17 03:37:47			0	42822	0	0	0	29909	28530	144251	27048	1055160	44865	111130	0	0	8382	372615	0	0
2024-07-17 03:38:47			0	42818	0	0	0	29916	28530	144235	27152	1055079	44865	111133	0	0	8382	372740	0	0
2024-07-17 03:39:47			0	42847	0	0	0	29909	28530	144307	27383	1055124	44865	111130	0	0	8384	371832	0	0
2024-07-17 03:40:47			0	42822	0	0	0	29903	28520	144351	26944	1055088	44875	111128	0	0	8382	372637	0	0
2024-07-17 03:41:47			0	42828	0	0	0	29906	28520	144375	27041	1055079	44863	111129	0	0	8383	372449	0	0
2024-07-17 03:42:47			0	42834	0	0	0	29906	28520	144243	27102	1055115	44875	111129	0	0	8383	372261	0	0
2024-07-17 03:43:47			0	42825	0	0	0	29911	28520	144319	27255	1055088	44875	111131	0	0	8382	372542	0	0
2024-07-17 03:44:47			0	42849	0	0	0	29901	28520	144347	27067	1055025	44885	111127	0	0	8384	371791	0	0
2024-07-17 03:45:47			0	42855	0	0	0	29893	28510	144211	26864	1055070	44863	111124	0	0	8384	371625	0	0
2024-07-17 03:46:47			0	42826	0	0	0	29896	28510	144339	27345	1055070	44875	111125	0	0	8383	372533	0	0
2024-07-17 03:47:47			0	42824	0	0	0	29888	28510	144239	27078	1055016	44897	111122	0	0	8383	372595	0	0
2024-07-17 03:48:47			0	42826	0	0	0	29893	28510	144299	26882	1055034	44875	111124	0	0	8383	372533	0	0
2024-07-17 03:49:47			0	42832	0	0	0	29893	28510	144287	26984	1055043	44852	111124	0	0	8383	372345	0	0
2024-07-17 03:50:47			0	42832	0	0	0	29883	28500	144247	26791	1055025	44874	111120	0	0	8383	372366	0	0
2024-07-17 03:51:47			0	42841	0	0	0	29885	28500	144311	27130	1054990	44883	111121	0	0	8384	372085	0	0
2024-07-17 03:52:47			0	42821	0	0	0	29877	28490	144351	27209	1055008	44872	111118	0	0	8383	372733	0	0
2024-07-17 03:53:47			0	42823	0	0	0	29877	28500	144367	27142	1054945	44884	111118	0	0	8383	372648	0	0
2024-07-17 03:54:47			0	42829	0	0	0	29883	28490	144303	27074	1054954	44861	111120	0	0	8383	372482	0	0
2024-07-17 03:55:47			0	42815	0	0	0	29872	28490	144323	26871	1054918	44861	111116	0	0	8382	372921	0	0
2024-07-17 03:56:47			0	42827	0	0	0	29875	28500	144319	26977	1054963	44862	111117	0	0	8383	372523	0	0
2024-07-17 03:57:47			0	42819	0	0	0	29877	28480	144251	26819	1054963	44872	111118	0	0	8382	372817	0	0
2024-07-17 03:58:47			0	42836	0	0	0	29870	28490	144267	26920	1054927	44872	111115	0	0	8384	372263	0	0
2024-07-17 03:59:47			0	42834	0	0	0	29870	28490	144259	26752	1054891	44872	111115	0	0	8383	372325	0	0
2024-07-17 04:00:47			0	42840	0	0	0	29875	28480	144327	26951	1054909	44872	111117	0	0	8384	372159	0	0
2024-07-17 04:01:47			0	42842	0	0	0	29872	28490	144331	26955	1054918	44861	111116	0	0	8384	372075	0	0
2024-07-17 04:02:47			0	42836	0	0	0	29870	28480	144311	27034	1054900	44871	111115	0	0	8384	372284	0	0
2024-07-17 04:03:47			0	42821	0	0	0	29862	28480	144219	27265	1054873	44871	111112	0	0	8383	372754	0	0
2024-07-17 04:04:47			0	42819	0	0	0	29859	28480	144287	27005	1054846	44871	111111	0	0	8383	372817	0	0
2024-07-17 04:05:47			0	42829	0	0	0	29859	28480	144295	26838	1054819	44881	111111	0	0	8383	372503	0	0
2024-07-17 04:06:47			0	42825	0	0	0	29851	28470	144291	26960	1054829	44870	111108	0	0	8383	372650	0	0
2024-07-17 04:07:47			0	42836	0	0	0	29851	28470	144263	26979	1054775	44859	111108	0	0	8384	372306	0	0
2024-07-17 04:08:47			0	42828	0	0	0	29841	28470	144215	26913	1054837	44859	111104	0	0	8384	372556	0	0
2024-07-17 04:09:47			0	42833	0	0	0	29844	28460	144427	27130	1054757	44869	111105	0	0	8384	372421	0	0
2024-07-17 04:10:47			0	42820	0	0	0	29844	28460	144351	26996	1054820	44859	111105	0	0	8383	372829	0	0
2024-07-17 04:11:47			0	42826	0	0	0	29844	28460	144299	27017	1054793	44859	111105	0	0	8383	372640	0	0
2024-07-17 04:12:47			0	42814	0	0	0	29838	28450	144299	26902	1054721	44868	111103	0	0	8383	373038	0	0
2024-07-17 04:13:47			0	42831	0	0	0	29836	28460	144311	26965	1054703	44869	111102	0	0	8384	372484	0	0
2024-07-17 04:14:47			0	42830	0	0	0	29836	28450	144279	26972	1054739	44868	111102	0	0	8384	372537	0	0
2024-07-17 04:15:47			0	42826	0	0	0	29833	28450	144291	27036	1054739	44868	111101	0	0	8383	372662	0	0
2024-07-17 04:16:47			0	42827	0	0	0	29836	28450	144323	27173	1054685	44868	111102	0	0	8383	372631	0	0
2024-07-17 04:17:47			0	42837	0	0	0	29841	28440	144315	26826	1054703	44868	111104	0	0	8384	372339	0	0
2024-07-17 04:18:47			0	42835	0	0	0	29836	28450	144271	27026	1054721	44857	111102	0	0	8384	372380	0	0
2024-07-17 04:19:47			0	42829	0	0	0	29825	28430	144323	27114	1054686	44877	111098	0	0	8384	372611	0	0
2024-07-17 04:20:47			0	42820	0	0	0	29825	28440	144287	26993	1054695	44867	111098	0	0	8383	372872	0	0
2024-07-17 04:21:47			0	42840	0	0	0	29815	28440	144387	27119	1054641	44867	111094	0	0	8385	372245	0	0
2024-07-17 04:22:47			0	42852	0	0	0	29823	28440	144347	27081	1054641	44856	111097	0	0	8385	371869	0	0
2024-07-17 04:23:47			0	42829	0	0	0	29812	28440	144407	27001	1054668	44856	111093	0	0	8384	372590	0	0
2024-07-17 04:24:47			0	42841	0	0	0	29818	28430	144331	26800	1054578	44866	111095	0	0	8385	372235	0	0
2024-07-17 04:25:47			0	42812	0	0	0	29810	28440	144279	26880	1054614	44878	111092	0	0	8383	373122	0	0
2024-07-17 04:26:47			0	42816	0	0	0	29810	28420	144339	26817	1054533	44876	111092	0	0	8383	373040	0	0
2024-07-17 04:27:47			0	42829	0	0	0	29799	28420	144207	27066	1054614	44854	111088	0	0	8384	372633	0	0
2024-07-17 04:28:47			0	42839	0	0	0	29807	28430	144267	27270	1054569	44876	111091	0	0	8385	372298	0	0
2024-07-17 04:29:47			0	42835	0	0	0	29802	28420	144179	27372	1054497	44876	111089	0	0	8384	372445	0	0
2024-07-17 04:30:47			0	42831	0	0	0	29799	28420	144263	27026	1054524	44854	111088	0	0	8384	372570	0	0
2024-07-17 04:31:47			0	42828	0	0	0	29799	28410	144231	26906	1054516	44853	111088	0	0	8384	372686	0	0
2024-07-17 04:32:47			0	42809	0	0	0	29794	28410	144375	27145	1054489	44864	111086	0	0	8383	373281	0	0
2024-07-17 04:33:47			0	42815	0	0	0	29792	28410	144271	27081	1054489	44875	111085	0	0	8383	373093	0	0
2024-07-17 04:34:47			0	42824	0	0	0	29786	28400	144355	26609	1054435	44852	111083	0	0	8384	372832	0	0
2024-07-17 04:35:47			0	42823	0	0	0	29781	28410	144399	26949	1054453	44875	111081	0	0	8384	372842	0	0
2024-07-17 04:36:47			0	42818	0	0	0	29779	28400	144271	26734	1054435	44863	111080	0	0	8384	373021	0	0
2024-07-17 04:37:47			0	42823	0	0	0	29779	28400	144327	27118	1054462	44863	111080	0	0	8384	372864	0	0
2024-07-17 04:38:47			0	42835	0	0	0	29774	28390	144339	27107	1054453	44851	111078	0	0	8385	372509	0	0
2024-07-17 04:39:47			0	42842	0	0	0	29768	28380	144331	27098	1054309	44873	111076	0	0	8385	372311	0	0
2024-07-17 04:40:47			0	42833	0	0	0	29761	28380	144271	27076	1054300	44861	111073	0	0	8385	372593	0	0
2024-07-17 04:41:47			0	42823	0	0	0	29755	28370	144235	27062	1054337	44860	111071	0	0	8384	372929	0	0
2024-07-17 04:42:47			0	42822	0	0	0	29758	28370	144311	26755	1054283	44860	111072	0	0	8384	372960	0	0
2024-07-17 04:43:47			0	42826	0	0	0	29753	28370	144327	26819	1054318	44861	111070	0	0	8384	372834	0	0
2024-07-17 04:44:47			0	42829	0	0	0	29748	28360	144359	27079	1054238	44858	111068	0	0	8385	372762	0	0
2024-07-17 04:45:47			0	42831	0	0	0	29748	28360	144367	26852	1054265	44870	111068	0	0	8385	372699	0	0
2024-07-17 04:46:47			0	42827	0	0	0	29740	28350	144239	27119	1054247	44858	111065	0	0	8385	372846	0	0
2024-07-17 04:47:47			0	42811	0	0	0	29737	28350	144295	26828	1054256	44858	111064	0	0	8384	373348	0	0
2024-07-17 04:48:47			0	42822	0	0	0	29742	28350	144311	26913	1054193	44836	111066	0	0	8384	373003	0	0
2024-07-17 04:49:47			0	42817	0	0	0	29727	28340	144363	26918	1054184	44835	111060	0	0	8384	373181	0	0
2024-07-17 04:50:47			0	42830	0	0	0	29724	28350	144407	26970	1054139	44870	111059	0	0	8385	372752	0	0
2024-07-17 04:51:47			0	42831	0	0	0	29727	28340	144415	26965	1054077	44846	111060	0	0	8385	372742	0	0
2024-07-17 04:52:47			0	42815	0	0	0	29709	28330	144395	27092	1054113	44856	111053	0	0	8384	373266	0	0
2024-07-17 04:53:47			0	42813	0	0	0	29703	28330	144451	26902	1054131	44868	111051	0	0	8384	373328	0	0
2024-07-17 04:54:47			0	42813	0	0	0	29709	28320	144359	27248	1054122	44856	111053	0	0	8384	373350	0	0
2024-07-17 04:55:47			0	42815	0	0	0	29703	28330	144455	27036	1054131	44868	111051	0	0	8385	373266	0	0
2024-07-17 04:56:47			0	42814	0	0	0	29703	28320	144319	26778	1054095	44867	111051	0	0	8384	373319	0	0
2024-07-17 04:57:47			0	42816	0	0	0	29703	28320	144423	26755	1054095	44856	111051	0	0	8385	373256	0	0
2024-07-17 04:58:47			0	42816	0	0	0	29693	28320	144427	27102	1054086	44855	111047	0	0	8385	373256	0	0
2024-07-17 04:59:47			0	42828	0	0	0	29693	28330	144435	27396	1054104	44878	111047	0	0	8385	372858	0	0
2024-07-17 05:00:47			0	42822	0	0	0	29690	28320	144415	27069	1054086	44843	111046	0	0	8385	373068	0	0
2024-07-17 05:01:47			0	42817	0	0	0	29696	28310	144407	26953	1053997	44855	111048	0	0	8385	373246	0	0
2024-07-17 05:02:47			0	42808	0	0	0	29690	28310	144291	26790	1054077	44876	111046	0	0	8384	373529	0	0
2024-07-17 05:03:47			0	42822	0	0	0	29688	28310	144367	27036	1054042	44855	111045	0	0	8385	373089	0	0
2024-07-17 05:04:47			0	42813	0	0	0	29690	28310	144447	26930	1053961	44855	111046	0	0	8385	373372	0	0
2024-07-17 05:05:47			0	42809	0	0	0	29688	28310	144431	26585	1053988	44866	111045	0	0	8384	373497	0	0
2024-07-17 05:06:47			0	42811	0	0	0	29685	28300	144403	26760	1054033	44854	111044	0	0	8384	373456	0	0
2024-07-17 05:07:47			0	42812	0	0	0	29680	28310	144483	27196	1054015	44855	111042	0	0	8385	373403	0	0
2024-07-17 05:08:47			0	42813	0	0	0	29683	28310	144399	26856	1054015	44866	111043	0	0	8385	373372	0	0
2024-07-17 05:09:47			0	42820	0	0	0	29675	28310	144443	27010	1054042	44843	111040	0	0	8385	373152	0	0
2024-07-17 05:10:47			0	42818	0	0	0	29677	28280	144491	26913	1053917	44852	111041	0	0	8385	373279	0	0
2024-07-17 05:11:47			0	42813	0	0	0	29677	28300	144371	27093	1053970	44864	111041	0	0	8385	373393	0	0
2024-07-17 05:12:47			0	42820	0	0	0	29677	28290	144371	26783	1053934	44841	111041	0	0	8385	373195	0	0
2024-07-17 05:13:47			0	42817	0	0	0	29672	28300	144495	27163	1053889	44864	111039	0	0	8385	373268	0	0
2024-07-17 05:14:47			0	42803	0	0	0	29672	28290	144427	26953	1053961	44841	111039	0	0	8384	373728	0	0
2024-07-17 05:15:47			0	42819	0	0	0	29662	28290	144495	26691	1053907	44853	111035	0	0	8385	373226	0	0
2024-07-17 05:16:47			0	42797	0	0	0	29659	28280	144515	26876	1053917	44863	111034	0	0	8384	373939	0	0
2024-07-17 05:17:47			0	42809	0	0	0	29662	28270	144535	26928	1053898	44850	111035	0	0	8385	373584	0	0
2024-07-17 05:18:47			0	42789	0	0	0	29657	28270	144527	27109	1053890	44850	111033	0	0	8383	374211	0	0
2024-07-17 05:19:47			0	42813	0	0	0	29654	28270	144499	26771	1053845	44861	111032	0	0	8385	373458	0	0
2024-07-17 05:20:47			0	42810	0	0	0	29662	28270	144455	27102	1053871	44838	111035	0	0	8385	373552	0	0
2024-07-17 05:21:47			0	42810	0	0	0	29662	28260	144543	27140	1053853	44850	111035	0	0	8385	373574	0	0
2024-07-17 05:22:47			0	42816	0	0	0	29649	28270	144475	26731	1053863	44861	111030	0	0	8385	373364	0	0
2024-07-17 05:23:47			0	42814	0	0	0	29659	28270	144439	26786	1053836	44850	111034	0	0	8385	373427	0	0
2024-07-17 05:24:47			0	42789	0	0	0	29664	28280	144451	26641	1053908	44874	111036	0	0	8383	374190	0	0
2024-07-17 05:25:47			0	42799	0	0	0	29659	28270	144495	26788	1053818	44861	111034	0	0	8384	373897	0	0
2024-07-17 05:26:47			0	42806	0	0	0	29654	28270	144431	26965	1053863	44873	111032	0	0	8385	373678	0	0
2024-07-17 05:27:47			0	42797	0	0	0	29662	28280	144515	26835	1053854	44862	111035	0	0	8384	373939	0	0
2024-07-17 05:28:47			0	42808	0	0	0	29662	28270	144479	26726	1053836	44861	111035	0	0	8385	373615	0	0
2024-07-17 05:29:47			0	42800	0	0	0	29659	28270	144551	27013	1053836	44861	111034	0	0	8384	373866	0	0
2024-07-17 05:30:47			0	42802	0	0	0	29659	28280	144487	26641	1053854	44874	111034	0	0	8384	373782	0	0
2024-07-17 05:31:47			0	42790	0	0	0	29659	28270	144443	26753	1053845	44850	111034	0	0	8384	374180	0	0
2024-07-17 05:32:47			0	42803	0	0	0	29664	28270	144543	26776	1053863	44861	111036	0	0	8384	373772	0	0
2024-07-17 05:33:47			0	42800	0	0	0	29659	28270	144603	26828	1053845	44873	111034	0	0	8384	373866	0	0
2024-07-17 05:34:47			0	42790	0	0	0	29662	28270	144511	26793	1053898	44873	111035	0	0	8383	374180	0	0
2024-07-17 05:35:47			0	42787	0	0	0	29662	28270	144591	26941	1053845	44850	111035	0	0	8383	374274	0	0
2024-07-17 05:36:47			0	42799	0	0	0	29670	28270	144531	26715	1053845	44873	111038	0	0	8384	373897	0	0
2024-07-17 05:37:47			0	42782	0	0	0	29664	28270	144595	26873	1053925	44838	111036	0	0	8383	374431	0	0
2024-07-17 05:38:47			0	42777	0	0	0	29680	28270	144595	27154	1053917	44861	111042	0	0	8382	374588	0	0
2024-07-17 05:39:47			0	42794	0	0	0	29675	28270	144511	26781	1053925	44873	111040	0	0	8383	374054	0	0
2024-07-17 05:40:47			0	42798	0	0	0	29670	28280	144579	27097	1053935	44862	111038	0	0	8384	373907	0	0
2024-07-17 05:41:47			0	42779	0	0	0	29672	28270	144579	27147	1053898	44861	111039	0	0	8383	374526	0	0
2024-07-17 05:42:47			0	42781	0	0	0	29677	28270	144651	26941	1053952	44873	111041	0	0	8383	374463	0	0
2024-07-17 05:43:47			0	42774	0	0	0	29672	28280	144555	27189	1053943	44863	111039	0	0	8382	374661	0	0
2024-07-17 05:44:47			0	42769	0	0	0	29675	28280	144503	27121	1053935	44862	111040	0	0	8382	374818	0	0
2024-07-17 05:45:47			0	42774	0	0	0	29672	28280	144463	26866	1053962	44851	111039	0	0	8382	374661	0	0
2024-07-17 05:46:47			0	42778	0	0	0	29672	28280	144647	26871	1053917	44863	111039	0	0	8383	374535	0	0
2024-07-17 05:47:47			0	42777	0	0	0	29664	28270	144571	26887	1053898	44850	111036	0	0	8383	374588	0	0
2024-07-17 05:48:47			0	42769	0	0	0	29657	28270	144571	26996	1053952	44861	111033	0	0	8382	374840	0	0
2024-07-17 05:49:47			0	42775	0	0	0	29667	28270	144579	27239	1053925	44861	111037	0	0	8383	374651	0	0
2024-07-17 05:50:47			0	42763	0	0	0	29664	28280	144699	27168	1053854	44851	111036	0	0	8382	375007	0	0
2024-07-17 05:51:47			0	42767	0	0	0	29657	28270	144655	26670	1053818	44838	111033	0	0	8382	374903	0	0
2024-07-17 05:52:47			0	42779	0	0	0	29654	28270	144667	26807	1053818	44850	111032	0	0	8383	374526	0	0
2024-07-17 05:53:47			0	42771	0	0	0	29644	28260	144583	26866	1053827	44850	111028	0	0	8383	374799	0	0
2024-07-17 05:54:47			0	42786	0	0	0	29641	28260	144691	27157	1053845	44849	111027	0	0	8384	374327	0	0
2024-07-17 05:55:47			0	42776	0	0	0	29633	28260	144655	27036	1053764	44849	111024	0	0	8383	374641	0	0
2024-07-17 05:56:47			0	42765	0	0	0	29623	28260	144671	26963	1053746	44850	111020	0	0	8383	374987	0	0
2024-07-17 05:57:47			0	42774	0	0	0	29612	28250	144627	27279	1053755	44826	111016	0	0	8383	374726	0	0
2024-07-17 05:58:47			0	42771	0	0	0	29618	28250	144751	26819	1053719	44848	111018	0	0	8383	374820	0	0
2024-07-17 05:59:47			0	42767	0	0	0	29605	28240	144663	26894	1053683	44836	111013	0	0	8383	374968	0	0
2024-07-17 06:00:47			0	42772	0	0	0	29607	28240	144711	26927	1053683	44848	111014	0	0	8383	374810	0	0
2024-07-17 06:01:47			0	42755	0	0	0	29605	28230	144683	26942	1053657	44846	111013	0	0	8382	375367	0	0
2024-07-17 06:02:47			0	42758	0	0	0	29592	28220	144635	27019	1053648	44823	111008	0	0	8383	375294	0	0
2024-07-17 06:03:47			0	42763	0	0	0	29589	28220	144635	27066	1053585	44845	111007	0	0	8383	375137	0	0
2024-07-17 06:04:47			0	42744	0	0	0	29586	28210	144691	27072	1053514	44844	111006	0	0	8382	375756	0	0
2024-07-17 06:05:47			0	42748	0	0	0	29586	28220	144739	26996	1053612	44834	111006	0	0	8382	375609	0	0
2024-07-17 06:06:47			0	42751	0	0	0	29584	28220	144727	26996	1053585	44834	111005	0	0	8382	375514	0	0
2024-07-17 06:07:47			0	42753	0	0	0	29581	28200	144675	27079	1053559	44843	111004	0	0	8382	375495	0	0
2024-07-17 06:08:47			0	42754	0	0	0	29579	28220	144687	27064	1053558	44856	111003	0	0	8383	375420	0	0
2024-07-17 06:09:47			0	42728	0	0	0	29581	28200	144774	27107	1053612	44821	111004	0	0	8381	376282	0	0
2024-07-17 06:10:47			0	42728	0	0	0	29576	28220	144795	27010	1053612	44845	111002	0	0	8381	376238	0	0
2024-07-17 06:11:47			0	42742	0	0	0	29576	28190	144791	26863	1053541	44865	111002	0	0	8382	375863	0	0
2024-07-17 06:12:47			0	42748	0	0	0	29581	28200	144815	27020	1053577	44833	111004	0	0	8382	375652	0	0
2024-07-17 06:13:47			0	42742	0	0	0	29573	28200	144831	26975	1053532	44843	111001	0	0	8382	375841	0	0
2024-07-17 06:14:47			0	42743	0	0	0	29576	28200	144767	26956	1053505	44854	111002	0	0	8382	375810	0	0
2024-07-17 06:15:47			0	42750	0	0	0	29568	28190	144839	26788	1053433	44854	110999	0	0	8382	375611	0	0
2024-07-17 06:16:47			0	42763	0	0	0	29573	28190	144695	26812	1053424	44831	111001	0	0	8383	375202	0	0
2024-07-17 06:17:47			0	42725	0	0	0	29568	28180	144802	26854	1053389	44831	110999	0	0	8381	376420	0	0
2024-07-17 06:18:47			0	42741	0	0	0	29555	28180	144803	26916	1053442	44841	110994	0	0	8382	375916	0	0
2024-07-17 06:19:47			0	42732	0	0	0	29558	28180	144727	27033	1053415	44841	110995	0	0	8381	376199	0	0
2024-07-17 06:20:47			0	42723	0	0	0	29548	28180	144751	27190	1053434	44853	110991	0	0	8381	376483	0	0
2024-07-17 06:21:47			0	42731	0	0	0	29553	28180	144774	26934	1053442	44841	110993	0	0	8381	376231	0	0
2024-07-17 06:22:47			0	42711	0	0	0	29550	28170	144770	26665	1053416	44839	110992	0	0	8380	376883	0	0
2024-07-17 06:23:47			0	42717	0	0	0	29550	28170	144774	26812	1053389	44851	110992	0	0	8381	376694	0	0
2024-07-17 06:24:47			0	42722	0	0	0	29548	28160	144779	26693	1053326	44839	110991	0	0	8381	376558	0	0
2024-07-17 06:25:47			0	42713	0	0	0	29542	28170	144862	27069	1053335	44851	110989	0	0	8381	376820	0	0
2024-07-17 06:26:47			0	42718	0	0	0	29542	28160	144947	26653	1053353	44839	110989	0	0	8381	376684	0	0
2024-07-17 06:27:47			0	42728	0	0	0	29529	28150	144899	27039	1053308	44838	110984	0	0	8382	376390	0	0
2024-07-17 06:28:47			0	42718	0	0	0	29524	28160	144950	27272	1053326	44851	110982	0	0	8381	376684	0	0
2024-07-17 06:29:47			0	42718	0	0	0	29535	28160	144979	26991	1053272	44839	110986	0	0	8381	376684	0	0
2024-07-17 06:30:47			0	42724	0	0	0	29532	28150	144826	27177	1053335	44838	110985	0	0	8381	376517	0	0
2024-07-17 06:31:47			0	42694	0	0	0	29548	28150	144954	27140	1053353	44827	110991	0	0	8379	377462	0	0
2024-07-17 06:32:47			0	42722	0	0	0	29529	28150	144927	26870	1053326	44827	110984	0	0	8381	376580	0	0
2024-07-17 06:33:47			0	42706	0	0	0	29537	28150	144950	26826	1053335	44838	110987	0	0	8380	377084	0	0
2024-07-17 06:34:47			0	42701	0	0	0	29535	28150	144962	27000	1053281	44838	110986	0	0	8380	377242	0	0
2024-07-17 06:35:47			0	42703	0	0	0	29527	28160	144946	27074	1053290	44838	110983	0	0	8380	377157	0	0
2024-07-17 06:36:47			0	42694	0	0	0	29529	28150	145010	26948	1053281	44850	110984	0	0	8380	377462	0	0
2024-07-17 06:37:47			0	42687	0	0	0	29529	28150	144894	27079	1053353	44827	110984	0	0	8379	377683	0	0
2024-07-17 06:38:47			0	42681	0	0	0	29529	28140	144990	27015	1053317	44837	110984	0	0	8379	377894	0	0
2024-07-17 06:39:47			0	42685	0	0	0	29527	28140	145006	27071	1053255	44836	110983	0	0	8379	377768	0	0
2024-07-17 06:40:47			0	42690	0	0	0	29527	28140	145034	27045	1053308	44836	110983	0	0	8379	377610	0	0
2024-07-17 06:41:47			0	42663	0	0	0	29532	28140	145062	27235	1053263	44837	110985	0	0	8378	378463	0	0
2024-07-17 06:42:47			0	42675	0	0	0	29522	28140	145010	27197	1053237	44849	110981	0	0	8379	378084	0	0
2024-07-17 06:43:47			0	42662	0	0	0	29519	28130	145166	27095	1053219	44836	110980	0	0	8378	378516	0	0
2024-07-17 06:44:47			0	42679	0	0	0	29522	28140	145074	27203	1053263	44849	110981	0	0	8379	377958	0	0
2024-07-17 06:45:47			0	42659	0	0	0	29532	28140	145082	27076	1053282	44836	110985	0	0	8377	378589	0	0
2024-07-17 06:46:47			0	42669	0	0	0	29522	28140	145006	27194	1053255	44848	110981	0	0	8378	378273	0	0
2024-07-17 06:47:47			0	42667	0	0	0	29527	28140	145134	27255	1053255	44848	110983	0	0	8378	378336	0	0
2024-07-17 06:48:47			0	42668	0	0	0	29524	28140	145122	27010	1053237	44849	110982	0	0	8378	378305	0	0
2024-07-17 06:49:47			0	42658	0	0	0	29519	28140	145106	26937	1053174	44848	110980	0	0	8378	378621	0	0
2024-07-17 06:50:47			0	42659	0	0	0	29522	28130	145202	27206	1053219	44836	110981	0	0	8378	378611	0	0
2024-07-17 06:51:47			0	42655	0	0	0	29519	28130	145306	26920	1053192	44848	110980	0	0	8377	378737	0	0
2024-07-17 06:52:47			0	42643	0	0	0	29519	28130	145154	26859	1053219	44836	110980	0	0	8377	379117	0	0
2024-07-17 06:53:47			0	42647	0	0	0	29509	28130	145234	26719	1053219	44848	110976	0	0	8377	378990	0	0
2024-07-17 06:54:47			0	42652	0	0	0	29509	28120	145322	26771	1053174	44847	110976	0	0	8377	378854	0	0
2024-07-17 06:55:47			0	42644	0	0	0	29516	28130	145174	26727	1053183	44847	110979	0	0	8377	379085	0	0
2024-07-17 06:56:47			0	42649	0	0	0	29506	28130	145218	27171	1053156	44835	110975	0	0	8377	378927	0	0
2024-07-17 06:57:47			0	42641	0	0	0	29509	28130	145178	27116	1053183	44835	110976	0	0	8377	379180	0	0
2024-07-17 06:58:47			0	42625	0	0	0	29503	28130	145210	27005	1053156	44847	110974	0	0	8376	379686	0	0
2024-07-17 06:59:47			0	42614	0	0	0	29501	28120	145238	26769	1053147	44847	110973	0	0	8375	380056	0	0
2024-07-17 07:00:47			0	42624	0	0	0	29496	28120	145246	26776	1053111	44834	110971	0	0	8376	379739	0	0
2024-07-17 07:01:47			0	42622	0	0	0	29503	28110	145258	27031	1053094	44833	110974	0	0	8376	379825	0	0
2024-07-17 07:02:47			0	42629	0	0	0	29503	28120	145254	26864	1053192	44846	110974	0	0	8376	379581	0	0
2024-07-17 07:03:47			0	42614	0	0	0	29503	28120	145210	26857	1053111	44857	110974	0	0	8375	380056	0	0
2024-07-17 07:04:47			0	42605	0	0	0	29506	28120	145198	27095	1053111	44834	110975	0	0	8375	380341	0	0
2024-07-17 07:05:47			0	42616	0	0	0	29509	28120	145214	27013	1053201	44858	110976	0	0	8375	379992	0	0
2024-07-17 07:06:47			0	42631	0	0	0	29503	28120	145258	27083	1053192	44857	110974	0	0	8376	379518	0	0
2024-07-17 07:07:47			0	42615	0	0	0	29514	28130	145338	27159	1053237	44835	110978	0	0	8375	380002	0	0
2024-07-17 07:08:47			0	42614	0	0	0	29522	28120	145350	27175	1053201	44835	110981	0	0	8375	380056	0	0
2024-07-17 07:09:47			0	42615	0	0	0	29524	28130	145346	26981	1053273	44848	110982	0	0	8375	380002	0	0
2024-07-17 07:10:47			0	42611	0	0	0	29527	28130	145254	27133	1053300	44848	110983	0	0	8375	380129	0	0
2024-07-17 07:11:47			0	42611	0	0	0	29537	28130	145226	27123	1053219	44859	110987	0	0	8374	380129	0	0
2024-07-17 07:12:47			0	42603	0	0	0	29527	28130	145314	27280	1053210	44847	110983	0	0	8374	380382	0	0
2024-07-17 07:13:47			0	42604	0	0	0	29537	28140	145314	26878	1053228	44848	110987	0	0	8374	380328	0	0
2024-07-17 07:14:47			0	42598	0	0	0	29532	28140	145230	27157	1053255	44836	110985	0	0	8374	380518	0	0
2024-07-17 07:15:47			0	42603	0	0	0	29524	28140	145334	27175	1053228	44836	110982	0	0	8374	380360	0	0
2024-07-17 07:16:47			0	42583	0	0	0	29524	28140	145226	27488	1053210	44849	110982	0	0	8373	380993	0	0
2024-07-17 07:17:47			0	42576	0	0	0	29527	28130	145354	27251	1053192	44848	110983	0	0	8373	381237	0	0
2024-07-17 07:18:47			0	42576	0	0	0	29519	28130	145462	27353	1053219	44848	110980	0	0	8373	381237	0	0
2024-07-17 07:19:47			0	42581	0	0	0	29522	28130	145314	27112	1053219	44836	110981	0	0	8373	381079	0	0
2024-07-17 07:20:47			0	42580	0	0	0	29524	28130	145430	26955	1053183	44847	110982	0	0	8373	381110	0	0
2024-07-17 07:21:47			0	42567	0	0	0	29514	28130	145302	27173	1053129	44835	110978	0	0	8372	381523	0	0
2024-07-17 07:22:47			0	42583	0	0	0	29514	28120	145394	27154	1053111	44846	110978	0	0	8373	381037	0	0
2024-07-17 07:23:47			0	42569	0	0	0	29503	28120	145370	27130	1053147	44835	110974	0	0	8373	381481	0	0
2024-07-17 07:24:47			0	42566	0	0	0	29511	28130	145338	27270	1053129	44835	110977	0	0	8372	381554	0	0
2024-07-17 07:25:47			0	42586	0	0	0	29516	28130	145334	27281	1053246	44836	110979	0	0	8373	380921	0	0
2024-07-17 07:26:47			0	42556	0	0	0	29516	28120	145382	27190	1053147	44847	110979	0	0	8372	381893	0	0
2024-07-17 07:27:47			0	42552	0	0	0	29522	28120	145386	27343	1053201	44835	110981	0	0	8371	382020	0	0
2024-07-17 07:28:47			0	42565	0	0	0	29511	28120	145438	27317	1053201	44835	110977	0	0	8372	381608	0	0
2024-07-17 07:29:47			0	42555	0	0	0	29516	28130	145346	27071	1053291	44835	110979	0	0	8372	381903	0	0
2024-07-17 07:30:47			0	42542	0	0	0	29511	28120	145446	27130	1053219	44846	110977	0	0	8371	382338	0	0
2024-07-17 07:31:47			0	42561	0	0	0	29511	28120	145418	26977	1053165	44834	110977	0	0	8372	381735	0	0
2024-07-17 07:32:47			0	42546	0	0	0	29514	28110	145354	27031	1053237	44857	110978	0	0	8371	382233	0	0
2024-07-17 07:33:47			0	42549	0	0	0	29514	28120	145434	27194	1053192	44857	110978	0	0	8371	382115	0	0
2024-07-17 07:34:47			0	42541	0	0	0	29514	28120	145442	27171	1053165	44846	110978	0	0	8371	382369	0	0
2024-07-17 07:35:47			0	42552	0	0	0	29514	28130	145450	27197	1053183	44847	110978	0	0	8371	381998	0	0
2024-07-17 07:36:47			0	42529	0	0	0	29522	28130	145558	27402	1053183	44847	110981	0	0	8370	382728	0	0
2024-07-17 07:37:47			0	42547	0	0	0	29511	28120	145498	27452	1053174	44847	110977	0	0	8371	382179	0	0
2024-07-17 07:38:47			0	42525	0	0	0	29511	28120	145510	27301	1053174	44847	110977	0	0	8370	382877	0	0
2024-07-17 07:39:47			0	42546	0	0	0	29509	28120	145474	27336	1053147	44835	110976	0	0	8371	382210	0	0
2024-07-17 07:40:47			0	42522	0	0	0	29519	28130	145590	27135	1053156	44847	110980	0	0	8370	382950	0	0
2024-07-17 07:41:47			0	42521	0	0	0	29516	28120	145574	27249	1053147	44858	110979	0	0	8369	383004	0	0
2024-07-17 07:42:47			0	42529	0	0	0	29514	28120	145510	27279	1053192	44834	110978	0	0	8370	382750	0	0
2024-07-17 07:43:47			0	42531	0	0	0	29511	28130	145562	27409	1053210	44835	110977	0	0	8370	382665	0	0
2024-07-17 07:44:47			0	42517	0	0	0	29519	28120	145586	27293	1053165	44846	110980	0	0	8369	383131	0	0
2024-07-17 07:45:47			0	42535	0	0	0	29519	28120	145658	27225	1053201	44847	110980	0	0	8370	382560	0	0
2024-07-17 07:46:47			0	42514	0	0	0	29514	28120	145538	27319	1053201	44835	110978	0	0	8369	383227	0	0
2024-07-17 07:47:47			0	42519	0	0	0	29519	28130	145586	27020	1053210	44835	110980	0	0	8369	383046	0	0
2024-07-17 07:48:47			0	42534	0	0	0	29516	28130	145478	26731	1053210	44847	110979	0	0	8370	382569	0	0
2024-07-17 07:49:47			0	42512	0	0	0	29524	28120	145482	27166	1053147	44835	110982	0	0	8369	383290	0	0
2024-07-17 07:50:47			0	42534	0	0	0	29511	28120	145562	27234	1053228	44835	110977	0	0	8370	382591	0	0
2024-07-17 07:51:47			0	42513	0	0	0	29516	28120	145626	27059	1053201	44858	110979	0	0	8369	383258	0	0
2024-07-17 07:52:47			0	42527	0	0	0	29519	28120	145546	27000	1053219	44824	110980	0	0	8370	382814	0	0
2024-07-17 07:53:47			0	42509	0	0	0	29516	28120	145510	27142	1053147	44825	110979	0	0	8369	383386	0	0
2024-07-17 07:54:47			0	42535	0	0	0	29509	28120	145566	26984	1053147	44825	110976	0	0	8370	382560	0	0
2024-07-17 07:55:47			0	42515	0	0	0	29522	28130	145450	27124	1053210	44847	110981	0	0	8369	383173	0	0
2024-07-17 07:56:47			0	42521	0	0	0	29509	28130	145674	27270	1053183	44835	110976	0	0	8370	382982	0	0
2024-07-17 07:57:47			0	42522	0	0	0	29516	28110	145602	27131	1053183	44846	110979	0	0	8369	382995	0	0
2024-07-17 07:58:47			0	42510	0	0	0	29514	28120	145578	27038	1053165	44846	110978	0	0	8369	383354	0	0
2024-07-17 07:59:47			0	42486	0	0	0	29506	28110	145686	27280	1053156	44846	110975	0	0	8368	384139	0	0
2024-07-17 08:00:47			0	42497	0	0	0	29509	28120	145598	27092	1053165	44834	110976	0	0	8368	383767	0	0
2024-07-17 08:01:47			0	42509	0	0	0	29519	28120	145634	27234	1053147	44847	110980	0	0	8369	383386	0	0
2024-07-17 08:02:47			0	42484	0	0	0	29511	28110	145570	27007	1053121	44833	110977	0	0	8367	384202	0	0
2024-07-17 08:03:47			0	42497	0	0	0	29511	28110	145622	26975	1053130	44834	110977	0	0	8368	383789	0	0
2024-07-17 08:04:47			0	42497	0	0	0	29509	28110	145606	27010	1053156	44846	110976	0	0	8368	383789	0	0
2024-07-17 08:05:47			0	42508	0	0	0	29509	28110	145666	26831	1053103	44846	110976	0	0	8369	383439	0	0
2024-07-17 08:06:47			0	42500	0	0	0	29503	28110	145650	27147	1053148	44845	110974	0	0	8368	383694	0	0
2024-07-17 08:07:47			0	42484	0	0	0	29506	28110	145714	26961	1053156	44834	110975	0	0	8367	384202	0	0
2024-07-17 08:08:47			0	42502	0	0	0	29509	28120	145682	27201	1053174	44847	110976	0	0	8368	383608	0	0
2024-07-17 08:09:47			0	42475	0	0	0	29509	28110	145634	27168	1053201	44845	110976	0	0	8367	384489	0	0
2024-07-17 08:10:47			0	42473	0	0	0	29519	28110	145726	27083	1053175	44833	110980	0	0	8367	384552	0	0
2024-07-17 08:11:47			0	42475	0	0	0	29519	28110	145746	26925	1053103	44846	110980	0	0	8367	384489	0	0
2024-07-17 08:12:47			0	42477	0	0	0	29516	28100	145846	27066	1053112	44845	110979	0	0	8367	384447	0	0
2024-07-17 08:13:47			0	42489	0	0	0	29509	28110	145786	27130	1053094	44833	110976	0	0	8368	384043	0	0
2024-07-17 08:14:47			0	42482	0	0	0	29496	28090	145766	26991	1053049	44833	110971	0	0	8367	384310	0	0
2024-07-17 08:15:47			0	42471	0	0	0	29477	28090	145754	27142	1053013	44843	110964	0	0	8367	384660	0	0
2024-07-17 08:16:47			0	42469	0	0	0	29472	28090	145734	27187	1052986	44821	110962	0	0	8367	384724	0	0
2024-07-17 08:17:47			0	42464	0	0	0	29454	28080	145762	27131	1052915	44842	110955	0	0	8367	384905	0	0
2024-07-17 08:18:47			0	42467	0	0	0	29449	28070	145778	26939	1052897	44819	110953	0	0	8367	384832	0	0
2024-07-17 08:19:47			0	42473	0	0	0	29444	28070	145718	27013	1052843	44841	110951	0	0	8368	384641	0	0
2024-07-17 08:20:47			0	42457	0	0	0	29433	28060	145838	26892	1052834	44819	110947	0	0	8367	385173	0	0
2024-07-17 08:21:47			0	42456	0	0	0	29433	28050	145798	26996	1052790	44818	110947	0	0	8367	385227	0	0
2024-07-17 08:22:47			0	42451	0	0	0	29420	28040	145818	26793	1052718	44816	110942	0	0	8367	385408	0	0
2024-07-17 08:23:47			0	42443	0	0	0	29415	28040	145806	27107	1052656	44838	110940	0	0	8366	385663	0	0
2024-07-17 08:24:47			0	42452	0	0	0	29415	28050	145950	27053	1052727	44829	110940	0	0	8367	385354	0	0
2024-07-17 08:25:47			0	42449	0	0	0	29407	28030	145886	26807	1052745	44815	110937	0	0	8367	385494	0	0
2024-07-17 08:26:47			0	42434	0	0	0	29410	28040	145934	27085	1052709	44816	110938	0	0	8366	385950	0	0
2024-07-17 08:27:47			0	42452	0	0	0	29402	28020	145970	26994	1052683	44826	110935	0	0	8367	385421	0	0
2024-07-17 08:28:47			0	42418	0	0	0	29397	28020	145918	26922	1052629	44826	110933	0	0	8365	386505	0	0
2024-07-17 08:29:47			0	42413	0	0	0	29386	28020	145942	26897	1052593	44836	110929	0	0	8365	386664	0	0
2024-07-17 08:30:47			0	42433	0	0	0	29392	28010	146034	26847	1052611	44826	110931	0	0	8366	386049	0	0
2024-07-17 08:31:47			0	42424	0	0	0	29381	28010	146042	26805	1052575	44825	110927	0	0	8366	386336	0	0
2024-07-17 08:32:47			0	42396	0	0	0	29386	28000	146014	27052	1052566	44824	110929	0	0	8364	387252	0	0
2024-07-17 08:33:47			0	42389	0	0	0	29386	28000	146178	27078	1052504	44834	110929	0	0	8363	387475	0	0
2024-07-17 08:34:47			0	42389	0	0	0	29366	28000	146154	26736	1052477	44824	110921	0	0	8364	387475	0	0
2024-07-17 08:35:47			0	42356	0	0	0	29355	27980	146138	27197	1052423	44822	110917	0	0	8362	388575	0	0
2024-07-17 08:36:47			0	42367	0	0	0	29350	27990	146194	27100	1052378	44823	110915	0	0	8363	388201	0	0
2024-07-17 08:37:47			0	42359	0	0	0	29340	27980	146226	27209	1052450	44822	110911	0	0	8362	388479	0	0
2024-07-17 08:38:47			0	42354	0	0	0	29345	27980	146242	27156	1052468	44832	110913	0	0	8362	388639	0	0
2024-07-17 08:39:47			0	42339	0	0	0	29350	27980	146242	27060	1052334	44821	110915	0	0	8361	389119	0	0
2024-07-17 08:40:47			0	42350	0	0	0	29345	27980	146270	27126	1052414	44821	110913	0	0	8362	388767	0	0
2024-07-17 08:41:47			0	42332	0	0	0	29348	27980	146314	27201	1052414	44832	110914	0	0	8361	389343	0	0
2024-07-17 08:42:47			0	42318	0	0	0	29358	27970	146286	26720	1052424	44810	110918	0	0	8360	389814	0	0
2024-07-17 08:43:47			0	42310	0	0	0	29355	27970	146366	27017	1052397	44843	110917	0	0	8359	390070	0	0
2024-07-17 08:44:47			0	42310	0	0	0	29358	27980	146446	26996	1052468	44832	110918	0	0	8359	390048	0	0
2024-07-17 08:45:47			0	42287	0	0	0	29363	27980	146346	26989	1052414	44832	110920	0	0	8358	390785	0	0
2024-07-17 08:46:47			0	42289	0	0	0	29368	27980	146390	26922	1052531	44855	110922	0	0	8358	390721	0	0
2024-07-17 08:47:47			0	42278	0	0	0	29384	27990	146434	26852	1052648	44867	110928	0	0	8357	391051	0	0
2024-07-17 08:48:47			0	42274	0	0	0	29381	28000	146466	26958	1052638	44834	110927	0	0	8357	391157	0	0
2024-07-17 08:49:47			0	42261	0	0	0	29397	27990	146534	27100	1052683	44823	110933	0	0	8356	391597	0	0
2024-07-17 08:50:47			0	42249	0	0	0	29405	28010	146538	27062	1052818	44847	110936	0	0	8355	391937	0	0
2024-07-17 08:51:47			0	42240	0	0	0	29425	28020	146614	27206	1052898	44859	110944	0	0	8354	392203	0	0
2024-07-17 08:52:47			0	42226	0	0	0	29444	28020	146554	27215	1052844	44859	110951	0	0	8353	392653	0	0
2024-07-17 08:53:47			0	42224	0	0	0	29457	28040	146654	27083	1052925	44849	110956	0	0	8353	392672	0	0
2024-07-17 08:54:47			0	42225	0	0	0	29467	28050	146594	26991	1052924	44863	110960	0	0	8353	392617	0	0
2024-07-17 08:55:47			0	42218	0	0	0	29470	28050	146638	27232	1052916	44850	110961	0	0	8352	392842	0	0
2024-07-17 08:56:47			0	42211	0	0	0	29490	28050	146682	27022	1053023	44850	110969	0	0	8351	393067	0	0
2024-07-17 08:57:47			0	42197	0	0	0	29488	28060	146666	26987	1053041	44851	110968	0	0	8351	393495	0	0
2024-07-17 08:58:47			0	42202	0	0	0	29485	28070	146666	26798	1053032	44841	110967	0	0	8351	393311	0	0
2024-07-17 08:59:47			0	42185	0	0	0	29506	28070	146766	27194	1053121	44853	110975	0	0	8350	393858	0	0
2024-07-17 09:00:47			0	42186	0	0	0	29524	28070	146810	27234	1053175	44865	110982	0	0	8350	393826	0	0
2024-07-17 09:01:47			0	42173	0	0	0	29532	28090	146798	27265	1053211	44855	110985	0	0	8349	394199	0	0
2024-07-17 09:02:47			0	42157	0	0	0	29548	28100	146754	27012	1053300	44856	110991	0	0	8348	394691	0	0
2024-07-17 09:03:47			0	42166	0	0	0	29542	28110	146818	27248	1053336	44856	110989	0	0	8348	394379	0	0
2024-07-17 09:04:47			0	42139	0	0	0	29550	28120	146894	27064	1053273	44846	110992	0	0	8347	395226	0	0
2024-07-17 09:05:47			0	42153	0	0	0	29553	28120	146818	27163	1053354	44857	110993	0	0	8347	394775	0	0
2024-07-17 09:06:47			0	42140	0	0	0	29553	28130	146826	27275	1053372	44858	110993	0	0	8347	395171	0	0
2024-07-17 09:07:47			0	42128	0	0	0	29553	28130	146766	27206	1053327	44848	110993	0	0	8346	395557	0	0
2024-07-17 09:08:47			0	42139	0	0	0	29550	28140	146718	27140	1053362	44859	110992	0	0	8347	395180	0	0
2024-07-17 09:09:47			0	42117	0	0	0	29558	28140	146822	27066	1053425	44849	110995	0	0	8345	395889	0	0
2024-07-17 09:10:47			0	42113	0	0	0	29568	28150	146774	27140	1053407	44849	110999	0	0	8345	395995	0	0
2024-07-17 09:11:47			0	42110	0	0	0	29566	28150	146902	26866	1053407	44849	110998	0	0	8345	396092	0	0
2024-07-17 09:12:47			0	42105	0	0	0	29576	28150	146894	26816	1053461	44837	111002	0	0	8344	396253	0	0
2024-07-17 09:13:47			0	42115	0	0	0	29579	28150	146898	27211	1053470	44861	111003	0	0	8345	395931	0	0
2024-07-17 09:14:47			0	42091	0	0	0	29584	28160	146866	27000	1053488	44851	111005	0	0	8343	396683	0	0
2024-07-17 09:15:47			0	42076	0	0	0	29589	28160	147009	26939	1053515	44862	111007	0	0	8342	397167	0	0
2024-07-17 09:16:47			0	42064	0	0	0	29589	28160	146925	27005	1053461	44851	111007	0	0	8342	397555	0	0
2024-07-17 09:17:47			0	42043	0	0	0	29594	28170	147001	27197	1053497	44851	111009	0	0	8340	398210	0	0
2024-07-17 09:18:47			0	42040	0	0	0	29602	28170	147121	27112	1053470	44851	111012	0	0	8340	398307	0	0
2024-07-17 09:19:47			0	42044	0	0	0	29592	28170	147133	27081	1053497	44851	111008	0	0	8341	398178	0	0
2024-07-17 09:20:47			0	42023	0	0	0	29576	28160	147157	27039	1053407	44839	111002	0	0	8340	398880	0	0
2024-07-17 09:21:47			0	42018	0	0	0	29581	28170	147173	27119	1053416	44851	111004	0	0	8339	399019	0	0
2024-07-17 09:22:47			0	42018	0	0	0	29576	28170	147137	27039	1053443	44839	111002	0	0	8339	399019	0	0
2024-07-17 09:23:47			0	42007	0	0	0	29563	28160	147309	27107	1053452	44850	110997	0	0	8339	399398	0	0
2024-07-17 09:24:47			0	41985	0	0	0	29558	28160	147297	27079	1053425	44838	110995	0	0	8338	400111	0	0
2024-07-17 09:25:47			0	42000	0	0	0	29555	28160	147373	27064	1053434	44839	110994	0	0	8339	399625	0	0
2024-07-17 09:26:47			0	41978	0	0	0	29548	28160	147441	27159	1053425	44850	110991	0	0	8337	400338	0	0
2024-07-17 09:27:47			0	41967	0	0	0	29550	28150	147473	26883	1053335	44838	110992	0	0	8337	400718	0	0
2024-07-17 09:28:47			0	41959	0	0	0	29537	28140	147461	26844	1053290	44849	110987	0	0	8336	401001	0	0
2024-07-17 09:29:47			0	41956	0	0	0	29542	28150	147453	27156	1053407	44837	110989	0	0	8336	401075	0	0
2024-07-17 09:30:47			0	41935	0	0	0	29537	28150	147425	26949	1053380	44827	110987	0	0	8335	401757	0	0
2024-07-17 09:31:47			0	41938	0	0	0	29540	28160	147517	26991	1053371	44861	110988	0	0	8335	401636	0	0
2024-07-17 09:32:47			0	41932	0	0	0	29532	28150	147489	26975	1053326	44849	110985	0	0	8335	401854	0	0
2024-07-17 09:33:47			0	41945	0	0	0	29532	28150	147513	26986	1053389	44861	110985	0	0	8336	401432	0	0
2024-07-17 09:34:47			0	41912	0	0	0	29532	28150	147557	27168	1053380	44849	110985	0	0	8334	402504	0	0
2024-07-17 09:35:47			0	41912	0	0	0	29540	28150	147565	26745	1053416	44850	110988	0	0	8334	402504	0	0
2024-07-17 09:36:47			0	41892	0	0	0	29540	28150	147637	27029	1053416	44850	110988	0	0	8332	403154	0	0
2024-07-17 09:37:47			0	41901	0	0	0	29550	28150	147493	26953	1053389	44850	110992	0	0	8333	402862	0	0
2024-07-17 09:38:47			0	41899	0	0	0	29555	28150	147565	27173	1053497	44838	110994	0	0	8333	402927	0	0
2024-07-17 09:39:47			0	41883	0	0	0	29548	28160	147681	27078	1053479	44850	110991	0	0	8332	403424	0	0
2024-07-17 09:40:47			0	41889	0	0	0	29563	28160	147621	27078	1053434	44862	110997	0	0	8332	403229	0	0
2024-07-17 09:41:47			0	41875	0	0	0	29563	28170	147649	26779	1053524	44862	110997	0	0	8331	403661	0	0
2024-07-17 09:42:47			0	41872	0	0	0	29571	28180	147589	26930	1053541	44853	111000	0	0	8331	403735	0	0
2024-07-17 09:43:47			0	41871	0	0	0	29581	28170	147641	27064	1053550	44839	111004	0	0	8331	403791	0	0
2024-07-17 09:44:47			0	41852	0	0	0	29573	28170	147737	27085	1053532	44863	111001	0	0	8330	404410	0	0
2024-07-17 09:45:47			0	41857	0	0	0	29584	28180	147669	26941	1053595	44864	111005	0	0	8330	404224	0	0
2024-07-17 09:46:47			0	41860	0	0	0	29594	28170	147641	26906	1053559	44852	111009	0	0	8330	404149	0	0
2024-07-17 09:47:47			0	41862	0	0	0	29594	28190	147797	26989	1053622	44842	111009	0	0	8330	404038	0	0
2024-07-17 09:48:47			0	41871	0	0	0	29594	28190	147833	27209	1053640	44853	111009	0	0	8331	403745	0	0
2024-07-17 09:49:47			0	41842	0	0	0	29594	28190	147737	27083	1053613	44875	111009	0	0	8329	404689	0	0
2024-07-17 09:50:47			0	41860	0	0	0	29605	28200	147697	27275	1053604	44866	111013	0	0	8330	404079	0	0
2024-07-17 09:51:47			0	41845	0	0	0	29597	28190	147809	27149	1053694	44841	111010	0	0	8329	404591	0	0
2024-07-17 09:52:47			0	41854	0	0	0	29599	28200	147905	27097	1053657	44866	111011	0	0	8330	404275	0	0
2024-07-17 09:53:47			0	41845	0	0	0	29597	28200	147725	27440	1053666	44843	111010	0	0	8329	404568	0	0
2024-07-17 09:54:47			0	41824	0	0	0	29597	28190	147809	27079	1053649	44854	111010	0	0	8328	405276	0	0
2024-07-17 09:55:47			0	41830	0	0	0	29602	28190	147841	27144	1053702	44854	111012	0	0	8328	405080	0	0
2024-07-17 09:56:47			0	41844	0	0	0	29597	28200	147793	27149	1053720	44866	111010	0	0	8329	404600	0	0
2024-07-17 09:57:47			0	41844	0	0	0	29610	28200	147761	27052	1053604	44866	111015	0	0	8329	404600	0	0
2024-07-17 09:58:47			0	41849	0	0	0	29612	28200	147761	27121	1053693	44854	111016	0	0	8329	404438	0	0
2024-07-17 09:59:47			0	41842	0	0	0	29605	28210	147853	27185	1053738	44867	111013	0	0	8329	404642	0	0
2024-07-17 10:00:47			0	41852	0	0	0	29602	28210	147785	27235	1053675	44867	111012	0	0	8329	404317	0	0
2024-07-17 10:01:47			0	41848	0	0	0	29599	28200	147817	27396	1053657	44854	111011	0	0	8329	404470	0	0
2024-07-17 10:02:47			0	41842	0	0	0	29605	28200	147793	27383	1053657	44854	111013	0	0	8329	404666	0	0
2024-07-17 10:03:47			0	41846	0	0	0	29607	28210	147761	27438	1053729	44844	111014	0	0	8329	404512	0	0
2024-07-17 10:04:47			0	41836	0	0	0	29607	28220	147773	27348	1053747	44868	111014	0	0	8328	404815	0	0
2024-07-17 10:05:47			0	41870	0	0	0	29615	28220	147841	27220	1053747	44868	111017	0	0	8330	403707	0	0
2024-07-17 10:06:47			0	41852	0	0	0	29612	28220	147825	27142	1053774	44845	111016	0	0	8329	404293	0	0
2024-07-17 10:07:47			0	41863	0	0	0	29620	28210	147789	26842	1053765	44867	111019	0	0	8330	403958	0	0
2024-07-17 10:08:47			0	41849	0	0	0	29628	28210	147765	27079	1053756	44855	111022	0	0	8329	404414	0	0
2024-07-17 10:09:47			0	41865	0	0	0	29620	28230	147625	27067	1053765	44857	111019	0	0	8330	403847	0	0
2024-07-17 10:10:47			0	41856	0	0	0	29620	28220	147605	27123	1053774	44856	111019	0	0	8329	404163	0	0
2024-07-17 10:11:47			0	41858	0	0	0	29631	28220	147653	27142	1053810	44878	111023	0	0	8329	404098	0	0
2024-07-17 10:12:47			0	41875	0	0	0	29631	28220	147613	27208	1053828	44845	111023	0	0	8330	403544	0	0
2024-07-17 10:13:47			0	41872	0	0	0	29623	28230	147625	27246	1053800	44857	111020	0	0	8330	403619	0	0
2024-07-17 10:14:47			0	41879	0	0	0	29633	28230	147709	27606	1053899	44857	111024	0	0	8331	403391	0	0
2024-07-17 10:15:47			0	41867	0	0	0	29625	28240	147529	27270	1053809	44880	111021	0	0	8330	403758	0	0
2024-07-17 10:16:47			0	41857	0	0	0	29638	28240	147589	26899	1053890	44870	111026	0	0	8329	404084	0	0
2024-07-17 10:17:47			0	41878	0	0	0	29636	28240	147665	27372	1053809	44858	111025	0	0	8330	403400	0	0
2024-07-17 10:18:47			0	41876	0	0	0	29644	28240	147521	27225	1053872	44848	111028	0	0	8330	403465	0	0
2024-07-17 10:19:47			0	41886	0	0	0	29646	28240	147585	27003	1053872	44871	111029	0	0	8331	403140	0	0
2024-07-17 10:20:47			0	41878	0	0	0	29644	28240	147569	27130	1053863	44858	111028	0	0	8330	403400	0	0
2024-07-17 10:21:47			0	41868	0	0	0	29641	28240	147517	27161	1053872	44859	111027	0	0	8330	403726	0	0
2024-07-17 10:22:47			0	41884	0	0	0	29646	28240	147461	27206	1053899	44859	111029	0	0	8331	403205	0	0
2024-07-17 10:23:47			0	41894	0	0	0	29646	28240	147481	27177	1053926	44871	111029	0	0	8331	402880	0	0
2024-07-17 10:24:47			0	41888	0	0	0	29646	28240	147413	27228	1053872	44859	111029	0	0	8331	403075	0	0
2024-07-17 10:25:47			0	41895	0	0	0	29644	28250	147445	27121	1053917	44881	111028	0	0	8331	402824	0	0
2024-07-17 10:26:47			0	41900	0	0	0	29649	28260	147365	27242	1053925	44860	111030	0	0	8332	402638	0	0
2024-07-17 10:27:47			0	41896	0	0	0	29654	28260	147453	26970	1053979	44849	111032	0	0	8331	402768	0	0
2024-07-17 10:28:47			0	41894	0	0	0	29646	28260	147505	27213	1053925	44872	111029	0	0	8331	402833	0	0
2024-07-17 10:29:47			0	41890	0	0	0	29636	28260	147477	27223	1053898	44860	111025	0	0	8331	402963	0	0
2024-07-17 10:30:47			0	41915	0	0	0	29644	28250	147441	27059	1053908	44871	111028	0	0	8332	402174	0	0
2024-07-17 10:31:47			0	41923	0	0	0	29649	28250	147421	27071	1053908	44859	111030	0	0	8333	401914	0	0
2024-07-17 10:32:47			0	41906	0	0	0	29644	28250	147433	27043	1053881	44848	111028	0	0	8332	402467	0	0
2024-07-17 10:33:47			0	41918	0	0	0	29644	28250	147401	27010	1053863	44859	111028	0	0	8333	402077	0	0
2024-07-17 10:34:47			0	41921	0	0	0	29638	28250	147537	26857	1053863	44859	111026	0	0	8333	401979	0	0
2024-07-17 10:35:47			0	41909	0	0	0	29631	28250	147497	27251	1053908	44859	111023	0	0	8332	402369	0	0
2024-07-17 10:36:47			0	41930	0	0	0	29631	28240	147397	27232	1053872	44859	111023	0	0	8334	401710	0	0
2024-07-17 10:37:47			0	41932	0	0	0	29628	28240	147429	27147	1053872	44859	111022	0	0	8334	401645	0	0
2024-07-17 10:38:47			0	41964	0	0	0	29636	28250	147413	26802	1053962	44871	111025	0	0	8335	400584	0	0
2024-07-17 10:39:47			0	41930	0	0	0	29646	28250	147365	27043	1053970	44859	111029	0	0	8333	401687	0	0
2024-07-17 10:40:47			0	41945	0	0	0	29651	28260	147309	26913	1053872	44860	111031	0	0	8334	401177	0	0
2024-07-17 10:41:47			0	41937	0	0	0	29651	28260	147465	26939	1053898	44849	111031	0	0	8334	401437	0	0
2024-07-17 10:42:47			0	41945	0	0	0	29641	28250	147365	27111	1053943	44859	111027	0	0	8334	401200	0	0
2024-07-17 10:43:47			0	41951	0	0	0	29649	28260	147369	27142	1053961	44850	111030	0	0	8335	400982	0	0
2024-07-17 10:44:47			0	41941	0	0	0	29646	28250	147369	27218	1053988	44848	111029	0	0	8334	401330	0	0
2024-07-17 10:45:47			0	41954	0	0	0	29657	28250	147245	26811	1053943	44871	111033	0	0	8335	400908	0	0
2024-07-17 10:46:47			0	41935	0	0	0	29654	28250	147405	26904	1053970	44871	111032	0	0	8333	401525	0	0
2024-07-17 10:47:47			0	41969	0	0	0	29649	28250	147369	27022	1053943	44848	111030	0	0	8336	400422	0	0
2024-07-17 10:48:47			0	41945	0	0	0	29649	28260	147341	26677	1054015	44873	111030	0	0	8334	401177	0	0
2024-07-17 10:49:47			0	41948	0	0	0	29646	28250	147325	27138	1054015	44859	111029	0	0	8334	401103	0	0
2024-07-17 10:50:47			0	41940	0	0	0	29649	28250	147361	27170	1054051	44871	111030	0	0	8334	401363	0	0
2024-07-17 10:51:47			0	41974	0	0	0	29644	28260	147317	27154	1053988	44861	111028	0	0	8336	400237	0	0
2024-07-17 10:52:47			0	41961	0	0	0	29649	28260	147301	26932	1054006	44860	111030	0	0	8335	400658	0	0
2024-07-17 10:53:47			0	41964	0	0	0	29654	28260	147289	27360	1054042	44861	111032	0	0	8335	400561	0	0
2024-07-17 10:54:47			0	41958	0	0	0	29654	28250	147217	27022	1053935	44871	111032	0	0	8335	400779	0	0
2024-07-17 10:55:47			0	41966	0	0	0	29662	28260	147273	26975	1053961	44873	111035	0	0	8335	400496	0	0
2024-07-17 10:56:47			0	41956	0	0	0	29664	28270	147341	27052	1054024	44861	111036	0	0	8335	400797	0	0
2024-07-17 10:57:47			0	41953	0	0	0	29662	28260	147405	27010	1054015	44861	111035	0	0	8334	400917	0	0
2024-07-17 10:58:47			0	41955	0	0	0	29680	28260	147245	27045	1054150	44873	111042	0	0	8334	400853	0	0
2024-07-17 10:59:47			0	41953	0	0	0	29685	28270	147281	26944	1054168	44873	111044	0	0	8334	400894	0	0
2024-07-17 11:00:47			0	41957	0	0	0	29688	28280	147293	27003	1054123	44874	111045	0	0	8334	400741	0	0
2024-07-17 11:01:47			0	41949	0	0	0	29690	28290	147189	26783	1054141	44863	111046	0	0	8334	400978	0	0
2024-07-17 11:02:47			0	41969	0	0	0	29709	28280	147293	27163	1054159	44875	111053	0	0	8335	400352	0	0
2024-07-17 11:03:47			0	41962	0	0	0	29690	28280	147241	26774	1054186	44896	111046	0	0	8335	400579	0	0
2024-07-17 11:04:47			0	41977	0	0	0	29698	28300	147297	26880	1054239	44864	111049	0	0	8335	400047	0	0
2024-07-17 11:05:47			0	41954	0	0	0	29698	28300	147305	27066	1054212	44864	111049	0	0	8334	400792	0	0
2024-07-17 11:06:47			0	41951	0	0	0	29711	28310	147265	27034	1054284	44876	111054	0	0	8334	400867	0	0
2024-07-17 11:07:47			0	41971	0	0	0	29719	28310	147241	27131	1054257	44876	111057	0	0	8335	400218	0	0
2024-07-17 11:08:47			0	41968	0	0	0	29714	28310	147121	27197	1054347	44866	111055	0	0	8335	400315	0	0
2024-07-17 11:09:47			0	41964	0	0	0	29722	28320	147209	26817	1054329	44866	111058	0	0	8334	400422	0	0
2024-07-17 11:10:47			0	41956	0	0	0	29727	28310	147189	27170	1054293	44876	111060	0	0	8334	400704	0	0
2024-07-17 11:11:47			0	41970	0	0	0	29735	28320	147217	26814	1054365	44856	111063	0	0	8334	400228	0	0
2024-07-17 11:12:47			0	41966	0	0	0	29724	28320	147297	27222	1054284	44867	111059	0	0	8334	400357	0	0
2024-07-17 11:13:47			0	41986	0	0	0	29722	28320	147109	26736	1054365	44867	111058	0	0	8336	399709	0	0
2024-07-17 11:14:47			0	41960	0	0	0	29724	28320	147233	27242	1054391	44867	111059	0	0	8334	400552	0	0
2024-07-17 11:15:47			0	41980	0	0	0	29727	28340	147145	27218	1054364	44878	111060	0	0	8335	399857	0	0
2024-07-17 11:16:47			0	41966	0	0	0	29735	28330	147257	26868	1054409	44878	111063	0	0	8334	400334	0	0
2024-07-17 11:17:47			0	41982	0	0	0	29732	28330	147141	27001	1054409	44878	111062	0	0	8335	399816	0	0
2024-07-17 11:18:47			0	41965	0	0	0	29737	28340	147145	27170	1054391	44878	111064	0	0	8334	400343	0	0
2024-07-17 11:19:47			0	41986	0	0	0	29750	28340	147133	26930	1054499	44878	111069	0	0	8335	399663	0	0
2024-07-17 11:20:47			0	41968	0	0	0	29763	28340	147185	27072	1054589	44879	111074	0	0	8334	400246	0	0
2024-07-17 11:21:47			0	41970	0	0	0	29789	28370	147149	27053	1054687	44894	111084	0	0	8334	400112	0	0
2024-07-17 11:22:47			0	41981	0	0	0	29799	28370	147189	26887	1054749	44895	111088	0	0	8334	399756	0	0
2024-07-17 11:23:47			0	41973	0	0	0	29805	28380	147181	27064	1054785	44895	111090	0	0	8334	399992	0	0
2024-07-17 11:24:47			0	41993	0	0	0	29799	28400	147277	27298	1054758	44885	111088	0	0	8335	399298	0	0
2024-07-17 11:25:47			0	41984	0	0	0	29802	28400	147069	26946	1054758	44885	111089	0	0	8334	399589	0	0
2024-07-17 11:26:47			0	41983	0	0	0	29810	28410	147185	27150	1054812	44897	111092	0	0	8334	399598	0	0
2024-07-17 11:27:47			0	41973	0	0	0	29820	28420	147213	27220	1054821	44898	111096	0	0	8334	399899	0	0
2024-07-17 11:28:47			0	41969	0	0	0	29823	28400	147173	27064	1054928	44885	111097	0	0	8333	400075	0	0
2024-07-17 11:29:47			0	41978	0	0	0	29836	28420	147129	26798	1054937	44887	111102	0	0	8334	399737	0	0
2024-07-17 11:30:47			0	41980	0	0	0	29841	28440	147125	27274	1055045	44900	111104	0	0	8334	399626	0	0
2024-07-17 11:31:47			0	41970	0	0	0	29851	28440	147169	26694	1055054	44890	111108	0	0	8333	399950	0	0
2024-07-17 11:32:47			0	41989	0	0	0	29870	28450	147073	26982	1055098	44868	111115	0	0	8334	399312	0	0
2024-07-17 11:33:47			0	41976	0	0	0	29875	28460	147001	26722	1055107	44902	111117	0	0	8333	399709	0	0
2024-07-17 11:34:47			0	41978	0	0	0	29893	28480	147065	27161	1055250	44881	111124	0	0	8333	399599	0	0
2024-07-17 11:35:47			0	41956	0	0	0	29890	28480	147089	27326	1055197	44881	111123	0	0	8332	400311	0	0
2024-07-17 11:36:47			0	41968	0	0	0	29901	28480	147217	27343	1055232	44894	111127	0	0	8332	399922	0	0
2024-07-17 11:37:47			0	41977	0	0	0	29914	28490	147045	26927	1055250	44882	111132	0	0	8333	399608	0	0
2024-07-17 11:38:47			0	41982	0	0	0	29914	28500	147061	27306	1055430	44896	111132	0	0	8333	399423	0	0
2024-07-17 11:39:47			0	41976	0	0	0	29940	28500	147049	26960	1055403	44917	111142	0	0	8332	399617	0	0
2024-07-17 11:40:47			0	41980	0	0	0	29945	28520	147001	26864	1055546	44909	111144	0	0	8332	399441	0	0
2024-07-17 11:41:47			0	41995	0	0	0	29950	28540	147049	27303	1055519	44910	111146	0	0	8333	398910	0	0
2024-07-17 11:42:47			0	41988	0	0	0	29940	28540	146989	27031	1055528	44888	111142	0	0	8333	399136	0	0
2024-07-17 11:43:47			0	41991	0	0	0	29932	28540	146973	26762	1055492	44887	111139	0	0	8333	399039	0	0
2024-07-17 11:44:47			0	41983	0	0	0	29924	28540	146861	27308	1055420	44888	111136	0	0	8333	399298	0	0
2024-07-17 11:45:47			0	41977	0	0	0	29909	28550	146905	27067	1055456	44867	111130	0	0	8333	399469	0	0
2024-07-17 11:46:47			0	41990	0	0	0	29903	28540	146893	26986	1055393	44866	111128	0	0	8334	399072	0	0
2024-07-17 11:47:47			0	41996	0	0	0	29890	28530	146817	27227	1055313	44865	111123	0	0	8334	398901	0	0
2024-07-17 11:48:47			0	42004	0	0	0	29867	28520	146845	27156	1055249	44875	111114	0	0	8335	398665	0	0
2024-07-17 11:49:47			0	41994	0	0	0	29870	28520	146841	27441	1055160	44875	111115	0	0	8334	398989	0	0
2024-07-17 11:50:47			0	42016	0	0	0	29862	28510	146873	27251	1055169	44875	111112	0	0	8336	398301	0	0
2024-07-17 11:51:47			0	42018	0	0	0	29857	28500	146885	27008	1055124	44883	111110	0	0	8336	398259	0	0
2024-07-17 11:52:47			0	42010	0	0	0	29854	28500	146961	27168	1055178	44873	111109	0	0	8335	398518	0	0
2024-07-17 11:53:47			0	42008	0	0	0	29841	28480	146929	27033	1055152	44872	111104	0	0	8336	398628	0	0
2024-07-17 11:54:47			0	42010	0	0	0	29823	28490	146985	26854	1054999	44861	111097	0	0	8336	398541	0	0
2024-07-17 11:55:47			0	42013	0	0	0	29812	28470	146985	27114	1054936	44870	111093	0	0	8336	398490	0	0
2024-07-17 11:56:47			0	42014	0	0	0	29799	28470	146869	27189	1054936	44870	111088	0	0	8337	398457	0	0
2024-07-17 11:57:47			0	42015	0	0	0	29799	28460	146881	27140	1054874	44870	111088	0	0	8337	398448	0	0
2024-07-17 11:58:47			0	42011	0	0	0	29797	28450	146853	27121	1054901	44868	111087	0	0	8336	398600	0	0
2024-07-17 11:59:47			0	42019	0	0	0	29794	28440	146873	26989	1054856	44867	111086	0	0	8337	398365	0	0
2024-07-17 12:00:47			0	42008	0	0	0	29786	28440	146809	27024	1054829	44867	111083	0	0	8336	398720	0	0
2024-07-17 12:01:47			0	42031	0	0	0	29781	28440	146849	27166	1054892	44868	111081	0	0	8338	397977	0	0
2024-07-17 12:02:47			0	42042	0	0	0	29784	28440	146973	26838	1054856	44867	111082	0	0	8338	397622	0	0
2024-07-17 12:03:47			0	42037	0	0	0	29797	28440	146877	26908	1054865	44890	111087	0	0	8338	397783	0	0
2024-07-17 12:04:47			0	42020	0	0	0	29802	28440	146957	27097	1054829	44867	111089	0	0	8337	398332	0	0
2024-07-17 12:05:47			0	42041	0	0	0	29794	28440	146905	27170	1054829	44878	111086	0	0	8338	397654	0	0
2024-07-17 12:06:47			0	42032	0	0	0	29794	28430	146817	27086	1054820	44866	111086	0	0	8337	397968	0	0
2024-07-17 12:07:47			0	42044	0	0	0	29789	28430	146865	26984	1054847	44877	111084	0	0	8338	397580	0	0
2024-07-17 12:08:47			0	42035	0	0	0	29781	28430	146785	27055	1054838	44876	111081	0	0	8338	397871	0	0
2024-07-17 12:09:47			0	42040	0	0	0	29805	28430	146857	27007	1054847	44888	111090	0	0	8338	397709	0	0
2024-07-17 12:10:47			0	42041	0	0	0	29823	28430	146869	27104	1054955	44899	111097	0	0	8338	397677	0	0
2024-07-17 12:11:47			0	42044	0	0	0	29831	28440	146869	27144	1055000	44879	111100	0	0	8338	397557	0	0
2024-07-17 12:12:47			0	42046	0	0	0	29833	28440	146769	27007	1054991	44867	111101	0	0	8338	397493	0	0
2024-07-17 12:13:47			0	42031	0	0	0	29846	28440	146825	27041	1054946	44879	111106	0	0	8337	397977	0	0
2024-07-17 12:14:47			0	42041	0	0	0	29854	28450	146893	27157	1055009	44890	111109	0	0	8337	397631	0	0
2024-07-17 12:15:47			0	42046	0	0	0	29867	28460	146833	26911	1055053	44891	111114	0	0	8337	397447	0	0
2024-07-17 12:16:47			0	42056	0	0	0	29867	28460	146893	27166	1055107	44902	111114	0	0	8338	397124	0	0
2024-07-17 12:17:47			0	42041	0	0	0	29875	28460	146853	27263	1055116	44903	111117	0	0	8337	397608	0	0
2024-07-17 12:18:47			0	42048	0	0	0	29888	28460	146873	27168	1055116	44880	111122	0	0	8337	397382	0	0
2024-07-17 12:19:47			0	42057	0	0	0	29885	28470	146857	27253	1055179	44903	111121	0	0	8338	397069	0	0
2024-07-17 12:20:47			0	42034	0	0	0	29898	28470	146889	27209	1055188	44892	111126	0	0	8336	397811	0	0
2024-07-17 12:21:47			0	42029	0	0	0	29901	28490	146913	26828	1055241	44882	111127	0	0	8336	397927	0	0
2024-07-17 12:22:47			0	42055	0	0	0	29909	28490	146853	27187	1055295	44905	111130	0	0	8337	397087	0	0
2024-07-17 12:23:47			0	42060	0	0	0	29922	28500	146793	27142	1055295	44907	111135	0	0	8337	396903	0	0
2024-07-17 12:24:47			0	42046	0	0	0	29929	28500	146777	26805	1055376	44896	111138	0	0	8336	397355	0	0
2024-07-17 12:25:47			0	42043	0	0	0	29940	28500	146757	27015	1055403	44896	111142	0	0	8336	397452	0	0
2024-07-17 12:26:47			0	42039	0	0	0	29950	28510	146829	27235	1055474	44897	111146	0	0	8336	397558	0	0
2024-07-17 12:27:47			0	42032	0	0	0	29955	28520	146765	27086	1055492	44898	111148	0	0	8335	397761	0	0
2024-07-17 12:28:47			0	42044	0	0	0	29955	28530	146861	27072	1055528	44910	111148	0	0	8336	397350	0	0
2024-07-17 12:29:47			0	42056	0	0	0	29955	28530	146809	26779	1055510	44920	111148	0	0	8337	396963	0	0
2024-07-17 12:30:47			0	42032	0	0	0	29963	28530	146753	26811	1055537	44887	111151	0	0	8335	397738	0	0
2024-07-17 12:31:47			0	42048	0	0	0	29976	28540	146869	27126	1055600	44910	111156	0	0	8336	397198	0	0
2024-07-17 12:32:47			0	42026	0	0	0	29981	28540	146769	26934	1055663	44900	111158	0	0	8334	397908	0	0
2024-07-17 12:33:47			0	42033	0	0	0	29984	28550	146897	26873	1055599	44901	111159	0	0	8335	397659	0	0
2024-07-17 12:34:47			0	42022	0	0	0	29976	28560	146921	27001	1055662	44912	111156	0	0	8334	397992	0	0
2024-07-17 12:35:47			0	42027	0	0	0	29989	28570	146773	27039	1055707	44891	111161	0	0	8334	397807	0	0
2024-07-17 12:36:47			0	42030	0	0	0	29989	28570	146713	26894	1055716	44902	111161	0	0	8335	397710	0	0
2024-07-17 12:37:47			0	42038	0	0	0	29989	28570	146825	26538	1055734	44914	111161	0	0	8335	397452	0	0
2024-07-17 12:38:47			0	42025	0	0	0	29989	28570	146885	26811	1055689	44914	111161	0	0	8334	397872	0	0
2024-07-17 12:39:47			0	42005	0	0	0	29986	28570	146845	26850	1055716	44902	111160	0	0	8333	398518	0	0
2024-07-17 12:40:47			0	42030	0	0	0	30002	28580	146793	26660	1055787	44915	111166	0	0	8334	397687	0	0
2024-07-17 12:41:47			0	42020	0	0	0	30010	28590	146877	27012	1055769	44904	111169	0	0	8334	397987	0	0
2024-07-17 12:42:47			0	42020	0	0	0	30015	28590	146777	26807	1055823	44904	111171	0	0	8334	397987	0	0
2024-07-17 12:43:47			0	42022	0	0	0	30028	28590	146825	27189	1055913	44916	111176	0	0	8334	397922	0	0
2024-07-17 12:44:47			0	42003	0	0	0	30046	28600	146821	26979	1055904	44916	111183	0	0	8332	398513	0	0
2024-07-17 12:45:47			0	42019	0	0	0	30054	28610	146893	27092	1055993	44928	111186	0	0	8333	397973	0	0
2024-07-17 12:46:47			0	42019	0	0	0	30067	28630	146797	26928	1056056	44908	111191	0	0	8333	397927	0	0
2024-07-17 12:47:47			0	42004	0	0	0	30075	28640	146877	26648	1056190	44932	111194	0	0	8332	398388	0	0
2024-07-17 12:48:47			0	41999	0	0	0	30085	28650	146849	26955	1056200	44921	111198	0	0	8332	398527	0	0
2024-07-17 12:49:47			0	42003	0	0	0	30090	28660	146861	26675	1056253	44923	111200	0	0	8332	398375	0	0
2024-07-17 12:50:47			0	41983	0	0	0	30103	28660	146901	26930	1056253	44923	111205	0	0	8330	399021	0	0
2024-07-17 12:51:47			0	41999	0	0	0	30111	28690	146857	26941	1056423	44936	111208	0	0	8331	398435	0	0
2024-07-17 12:52:47			0	41970	0	0	0	30161	28710	146793	27346	1056468	44927	111227	0	0	8329	399325	0	0
2024-07-17 12:53:47			0	41988	0	0	0	30199	28720	146833	27097	1056620	44940	111242	0	0	8329	398721	0	0
2024-07-17 12:54:47			0	41973	0	0	0	30207	28730	146937	27213	1056710	44940	111245	0	0	8328	399182	0	0
2024-07-17 12:55:47			0	41979	0	0	0	30223	28750	147005	27235	1056773	44942	111251	0	0	8328	398942	0	0
2024-07-17 12:56:47			0	41973	0	0	0	30231	28750	146965	26958	1056835	44943	111254	0	0	8328	399136	0	0
2024-07-17 12:57:47			0	41963	0	0	0	30233	28760	146933	26882	1056826	44932	111255	0	0	8327	399436	0	0
2024-07-17 12:58:47			0	41961	0	0	0	30244	28780	146849	27031	1056934	44946	111259	0	0	8327	399455	0	0
2024-07-17 12:59:47			0	41968	0	0	0	30251	28780	146845	27218	1056934	44934	111262	0	0	8328	399228	0	0
2024-07-17 13:00:47			0	41959	0	0	0	30238	28800	146849	27216	1056889	44925	111257	0	0	8327	399473	0	0
2024-07-17 13:01:47			0	41942	0	0	0	30218	28790	146869	27178	1056871	44924	111249	0	0	8327	400046	0	0
2024-07-17 13:02:47			0	41947	0	0	0	30205	28800	146833	27235	1056835	44914	111244	0	0	8327	399861	0	0
2024-07-17 13:03:47			0	41942	0	0	0	30199	28800	146853	27249	1056862	44914	111242	0	0	8327	400022	0	0
2024-07-17 13:04:47			0	41957	0	0	0	30199	28790	146793	27088	1056799	44913	111242	0	0	8328	399561	0	0
2024-07-17 13:05:47			0	41941	0	0	0	30197	28790	146805	27066	1056934	44924	111241	0	0	8327	400078	0	0
2024-07-17 13:06:47			0	41951	0	0	0	30197	28790	146897	27105	1056853	44913	111241	0	0	8327	399755	0	0
2024-07-17 13:07:47			0	41955	0	0	0	30212	28800	146857	26837	1056951	44925	111247	0	0	8327	399602	0	0
2024-07-17 13:08:47			0	41937	0	0	0	30212	28800	146889	26731	1056925	44925	111247	0	0	8326	400184	0	0
2024-07-17 13:09:47			0	41956	0	0	0	30218	28810	146797	27017	1056915	44937	111249	0	0	8327	399547	0	0
2024-07-17 13:10:47			0	41958	0	0	0	30228	28820	146889	27161	1056978	44926	111253	0	0	8327	399459	0	0
2024-07-17 13:11:47			0	41970	0	0	0	30244	28810	146809	26998	1057050	44926	111259	0	0	8328	399094	0	0
2024-07-17 13:12:47			0	41948	0	0	0	30231	28820	146857	26885	1057032	44926	111254	0	0	8327	399782	0	0
2024-07-17 13:13:47			0	41944	0	0	0	30241	28830	146789	27216	1057032	44927	111258	0	0	8326	399888	0	0
2024-07-17 13:14:47			0	41952	0	0	0	30241	28830	146829	27206	1057059	44927	111258	0	0	8327	399630	0	0
2024-07-17 13:15:47			0	41936	0	0	0	30233	28830	146877	26802	1057050	44939	111255	0	0	8326	400147	0	0
2024-07-17 13:16:47			0	41951	0	0	0	30225	28830	146817	27275	1056996	44916	111252	0	0	8327	399662	0	0
2024-07-17 13:17:47			0	41950	0	0	0	30223	28830	146853	27152	1057032	44939	111251	0	0	8327	399694	0	0
2024-07-17 13:18:47			0	41946	0	0	0	30236	28830	146837	27026	1057059	44916	111256	0	0	8327	399824	0	0
2024-07-17 13:19:47			0	41956	0	0	0	30254	28840	146749	27130	1057121	44928	111263	0	0	8327	399477	0	0
2024-07-17 13:20:47			0	41948	0	0	0	30249	28850	146785	27071	1057139	44929	111261	0	0	8327	399713	0	0
2024-07-17 13:21:47			0	41953	0	0	0	30262	28850	146689	26736	1057112	44941	111266	0	0	8327	399551	0	0
2024-07-17 13:22:47			0	41947	0	0	0	30267	28840	146757	26863	1057157	44941	111268	0	0	8326	399768	0	0
2024-07-17 13:23:47			0	41952	0	0	0	30267	28860	146773	27074	1057238	44919	111268	0	0	8327	399560	0	0
2024-07-17 13:24:47			0	41945	0	0	0	30267	28860	146777	26906	1057220	44931	111268	0	0	8326	399786	0	0
2024-07-17 13:25:47			0	41946	0	0	0	30267	28860	146773	27012	1057265	44942	111268	0	0	8326	399754	0	0
2024-07-17 13:26:47			0	41941	0	0	0	30267	28870	146757	27015	1057265	44932	111268	0	0	8326	399893	0	0
2024-07-17 13:27:47			0	41943	0	0	0	30277	28860	146713	27173	1057274	44920	111272	0	0	8326	399851	0	0
2024-07-17 13:28:47			0	41950	0	0	0	30280	28870	146649	26880	1057256	44931	111273	0	0	8326	399602	0	0
2024-07-17 13:29:47			0	41950	0	0	0	30280	28880	146641	26850	1057310	44933	111273	0	0	8326	399578	0	0
2024-07-17 13:30:47			0	41943	0	0	0	30275	28880	146693	26842	1057355	44932	111271	0	0	8326	399805	0	0
2024-07-17 13:31:47			0	41942	0	0	0	30275	28880	146697	27364	1057355	44921	111271	0	0	8326	399837	0	0
2024-07-17 13:32:47			0	41943	0	0	0	30280	28880	146673	27128	1057328	44944	111273	0	0	8326	399805	0	0
2024-07-17 13:33:47			0	41943	0	0	0	30290	28890	146705	27081	1057399	44934	111277	0	0	8326	399782	0	0
2024-07-17 13:34:47			0	41960	0	0	0	30296	28890	146725	26946	1057408	44923	111279	0	0	8327	399232	0	0
2024-07-17 13:35:47			0	41936	0	0	0	30293	28900	146689	26889	1057399	44947	111278	0	0	8325	399985	0	0
2024-07-17 13:36:47			0	41946	0	0	0	30285	28890	146725	27102	1057408	44934	111275	0	0	8326	399685	0	0
2024-07-17 13:37:47			0	41944	0	0	0	30296	28900	146633	27130	1057453	44947	111279	0	0	8326	399726	0	0
2024-07-17 13:38:47			0	41963	0	0	0	30290	28900	146689	27135	1057471	44934	111277	0	0	8327	399112	0	0
2024-07-17 13:39:47			0	41958	0	0	0	30301	28900	146617	27085	1057444	44934	111281	0	0	8327	399274	0	0
2024-07-17 13:40:47			0	41957	0	0	0	30306	28910	146649	27076	1057435	44958	111283	0	0	8326	399283	0	0
2024-07-17 13:41:47			0	41977	0	0	0	30293	28900	146725	26935	1057453	44935	111278	0	0	8328	398660	0	0
2024-07-17 13:42:47			0	41948	0	0	0	30285	28900	146653	27199	1057372	44924	111275	0	0	8326	399597	0	0
2024-07-17 13:43:47			0	41954	0	0	0	30280	28900	146621	27166	1057426	44935	111273	0	0	8327	399403	0	0
2024-07-17 13:44:47			0	41955	0	0	0	30270	28900	146725	27017	1057399	44935	111269	0	0	8327	399371	0	0
2024-07-17 13:45:47			0	41943	0	0	0	30275	28900	146669	27050	1057418	44934	111271	0	0	8326	399758	0	0
2024-07-17 13:46:47			0	41951	0	0	0	30283	28900	146681	27000	1057471	44923	111274	0	0	8326	399500	0	0
2024-07-17 13:47:47			0	41971	0	0	0	30301	28910	146621	27057	1057570	44936	111281	0	0	8327	398831	0	0
2024-07-17 13:48:47			0	41953	0	0	0	30316	28930	146649	27038	1057687	44971	111287	0	0	8326	399366	0	0
2024-07-17 13:49:47			0	41977	0	0	0	30342	28940	146677	26708	1057659	44961	111297	0	0	8327	398567	0	0
2024-07-17 13:50:47			0	41961	0	0	0	30348	28950	146629	27156	1057785	44963	111299	0	0	8326	399061	0	0
2024-07-17 13:51:47			0	41954	0	0	0	30348	28970	146653	26790	1057857	44952	111299	0	0	8326	399241	0	0
2024-07-17 13:52:47			0	41942	0	0	0	30353	28980	146641	26819	1057910	44943	111301	0	0	8325	399605	0	0
2024-07-17 13:53:47			0	41964	0	0	0	30355	28980	146609	27144	1057910	44954	111302	0	0	8326	398895	0	0
2024-07-17 13:54:47			0	41955	0	0	0	30371	28990	146785	26882	1057919	44932	111308	0	0	8326	399162	0	0
2024-07-17 13:55:47			0	41944	0	0	0	30381	28990	146593	26646	1057955	44944	111312	0	0	8325	399518	0	0
2024-07-17 13:56:47			0	41949	0	0	0	30392	28980	146581	26856	1057856	44943	111316	0	0	8325	399379	0	0
2024-07-17 13:57:47			0	41959	0	0	0	30399	28990	146609	27163	1058009	44944	111319	0	0	8325	399033	0	0
2024-07-17 13:58:47			0	41943	0	0	0	30399	28990	146565	27180	1057982	44933	111319	0	0	8324	399550	0	0
2024-07-17 13:59:47			0	41952	0	0	0	30407	29000	146649	27216	1058081	44945	111322	0	0	8325	399236	0	0
2024-07-17 14:00:47			0	41956	0	0	0	30394	28990	146581	26935	1058063	44933	111317	0	0	8325	399130	0	0
2024-07-17 14:01:47			0	41938	0	0	0	30376	29010	146589	26906	1058009	44933	111310	0	0	8325	399665	0	0
2024-07-17 14:02:47			0	41935	0	0	0	30384	29000	146665	26878	1057910	44922	111313	0	0	8324	399785	0	0
2024-07-17 14:03:47			0	41947	0	0	0	30381	29000	146701	26892	1057883	44956	111312	0	0	8325	399398	0	0
2024-07-17 14:04:47			0	41954	0	0	0	30379	29010	146565	26981	1057982	44933	111311	0	0	8325	399148	0	0
2024-07-17 14:05:47			0	41960	0	0	0	30389	29000	146581	26826	1058027	44945	111315	0	0	8326	398978	0	0
2024-07-17 14:06:47			0	41952	0	0	0	30381	29010	146609	27112	1057928	44922	111312	0	0	8325	399213	0	0
2024-07-17 14:07:47			0	41955	0	0	0	30376	29010	146737	26759	1057991	44923	111310	0	0	8326	399116	0	0
2024-07-17 14:08:47			0	41959	0	0	0	30366	29000	146589	26880	1057910	44933	111306	0	0	8326	399010	0	0
2024-07-17 14:09:47			0	41966	0	0	0	30350	29000	146621	26915	1057937	44933	111300	0	0	8327	398784	0	0
2024-07-17 14:10:47			0	41960	0	0	0	30327	29000	146581	26927	1057856	44912	111291	0	0	8327	398978	0	0
2024-07-17 14:11:47			0	41978	0	0	0	30329	28990	146629	26977	1057847	44933	111292	0	0	8328	398420	0	0
2024-07-17 14:12:47			0	41971	0	0	0	30324	29000	146605	26953	1057802	44933	111290	0	0	8327	398622	0	0
2024-07-17 14:13:47			0	41978	0	0	0	30332	28990	146573	26994	1057811	44932	111293	0	0	8328	398420	0	0
2024-07-17 14:14:47			0	41961	0	0	0	30345	29000	146441	26968	1057883	44945	111298	0	0	8326	398945	0	0
2024-07-17 14:15:47			0	41948	0	0	0	30353	29000	146553	26981	1057910	44933	111301	0	0	8326	399365	0	0
2024-07-17 14:16:47			0	41954	0	0	0	30361	28990	146493	27043	1057892	44932	111304	0	0	8326	399194	0	0
2024-07-17 14:17:47			0	41946	0	0	0	30363	28990	146581	27036	1057847	44933	111305	0	0	8325	399453	0	0
2024-07-17 14:18:47			0	41967	0	0	0	30366	28990	146581	27007	1057919	44943	111306	0	0	8326	398775	0	0
2024-07-17 14:19:47			0	41958	0	0	0	30368	29000	146593	26909	1057964	44922	111307	0	0	8326	399042	0	0
2024-07-17 14:20:47			0	41965	0	0	0	30368	29000	146489	26878	1057991	44956	111307	0	0	8326	398816	0	0
2024-07-17 14:21:47			0	41949	0	0	0	30373	29000	146601	26887	1058018	44956	111309	0	0	8325	399333	0	0
2024-07-17 14:22:47			0	41977	0	0	0	30363	29000	146525	26927	1058000	44933	111305	0	0	8327	398429	0	0
2024-07-17 14:23:47			0	41958	0	0	0	30392	29010	146533	27081	1058125	44957	111316	0	0	8326	399019	0	0
2024-07-17 14:24:47			0	41949	0	0	0	30423	29010	146517	27149	1058098	44934	111328	0	0	8324	399310	0	0
2024-07-17 14:25:47			0	41956	0	0	0	30454	29020	146505	27085	1058197	44948	111340	0	0	8324	399060	0	0
2024-07-17 14:26:47			0	41968	0	0	0	30483	29040	146569	27182	1058251	44959	111351	0	0	8325	398627	0	0
2024-07-17 14:27:47			0	41945	0	0	0	30464	29040	146585	27216	1058287	44960	111344	0	0	8324	399369	0	0
2024-07-17 14:28:47			0	41943	0	0	0	30415	29040	146573	27196	1058125	44927	111325	0	0	8324	399434	0	0
2024-07-17 14:29:47			0	41946	0	0	0	30373	29030	146549	26986	1057964	44925	111309	0	0	8325	399360	0	0
2024-07-17 14:30:47			0	41953	0	0	0	30371	29020	146533	27097	1058008	44925	111308	0	0	8326	399157	0	0
2024-07-17 14:31:47			0	41957	0	0	0	30397	29010	146525	27013	1058044	44934	111318	0	0	8325	399051	0	0
2024-07-17 14:32:47			0	41964	0	0	0	30410	29020	146489	27268	1058062	44948	111323	0	0	8326	398802	0	0
2024-07-17 14:33:47			0	41952	0	0	0	30412	29030	146521	26982	1058152	44948	111324	0	0	8325	399166	0	0
2024-07-17 14:34:47			0	41957	0	0	0	30407	29030	146509	26984	1058188	44936	111322	0	0	8325	399005	0	0
2024-07-17 14:35:47			0	41964	0	0	0	30412	29030	146525	26778	1058134	44936	111324	0	0	8326	398779	0	0
2024-07-17 14:36:47			0	41973	0	0	0	30425	29040	146557	26819	1058152	44927	111329	0	0	8326	398465	0	0
2024-07-17 14:37:47			0	41962	0	0	0	30410	29040	146593	26956	1058170	44959	111323	0	0	8326	398820	0	0
2024-07-17 14:38:47			0	41962	0	0	0	30410	29040	146541	26984	1058098	44950	111323	0	0	8326	398820	0	0
2024-07-17 14:39:47			0	41953	0	0	0	30399	29040	146537	26871	1058170	44937	111319	0	0	8325	399111	0	0
2024-07-17 14:40:47			0	41964	0	0	0	30392	29040	146585	27027	1058116	44949	111316	0	0	8326	398756	0	0
2024-07-17 14:41:47			0	41977	0	0	0	30399	29040	146521	27053	1058089	44937	111319	0	0	8327	398336	0	0
2024-07-17 14:42:47			0	41967	0	0	0	30399	29030	146601	26812	1058161	44948	111319	0	0	8326	398682	0	0
2024-07-17 14:43:47			0	41957	0	0	0	30412	29030	146573	26883	1058080	44948	111324	0	0	8325	399005	0	0
2024-07-17 14:44:47			0	41974	0	0	0	30423	29030	146501	26672	1058215	44948	111328	0	0	8326	398456	0	0
2024-07-17 14:45:47			0	41967	0	0	0	30467	29060	146549	26703	1058421	44972	111345	0	0	8325	398613	0	0
2024-07-17 14:46:47			0	41973	0	0	0	30503	29070	146453	26785	1058556	44985	111359	0	0	8325	398396	0	0
2024-07-17 14:47:47			0	41956	0	0	0	30537	29080	146593	26842	1058574	44975	111372	0	0	8323	398921	0	0
2024-07-17 14:48:47			0	41942	0	0	0	30545	29100	146513	26892	1058708	44976	111375	0	0	8322	399327	0	0
2024-07-17 14:49:47			0	41945	0	0	0	30555	29120	146537	26823	1058780	44979	111379	0	0	8322	399184	0	0
2024-07-17 14:50:47			0	41935	0	0	0	30579	29120	146497	27034	1058744	44956	111388	0	0	8321	399507	0	0
2024-07-17 14:51:47			0	41946	0	0	0	30563	29130	146577	26953	1058762	44958	111382	0	0	8322	399128	0	0
2024-07-17 14:52:47			0	41946	0	0	0	30566	29140	146637	27001	1058780	44958	111383	0	0	8322	399105	0	0
2024-07-17 14:53:47			0	41947	0	0	0	30568	29140	146581	27145	1058806	44958	111384	0	0	8322	399073	0	0
2024-07-17 14:54:47			0	41963	0	0	0	30571	29140	146533	26760	1058806	44958	111385	0	0	8323	398557	0	0
2024-07-17 14:55:47			0	41952	0	0	0	30563	29150	146577	26875	1058807	44971	111382	0	0	8323	398889	0	0
2024-07-17 14:56:47			0	41967	0	0	0	30576	29140	146613	27293	1058815	44958	111387	0	0	8323	398428	0	0
2024-07-17 14:57:47			0	41949	0	0	0	30589	29160	146429	26944	1058896	44972	111392	0	0	8322	398962	0	0
2024-07-17 14:58:47			0	41959	0	0	0	30599	29170	146505	27128	1058941	44961	111396	0	0	8323	398616	0	0
2024-07-17 14:59:47			0	41961	0	0	0	30605	29180	146497	27339	1059013	44962	111398	0	0	8323	398529	0	0
2024-07-17 15:00:47			0	41950	0	0	0	30612	29180	146421	26897	1059067	44985	111401	0	0	8322	398883	0	0
2024-07-17 15:01:47			0	41962	0	0	0	30615	29190	146485	27078	1059120	44964	111402	0	0	8323	398473	0	0
2024-07-17 15:02:47			0	41948	0	0	0	30623	29190	146425	27201	1059112	44975	111405	0	0	8322	398925	0	0
2024-07-17 15:03:47			0	41966	0	0	0	30644	29200	146405	26876	1059156	44964	111413	0	0	8323	398321	0	0
2024-07-17 15:04:47			0	41946	0	0	0	30628	29210	146481	27079	1059120	44977	111407	0	0	8322	398943	0	0
2024-07-17 15:05:47			0	41980	0	0	0	30610	29200	146549	26923	1059111	44954	111400	0	0	8324	397870	0	0
2024-07-17 15:06:47			0	41964	0	0	0	30599	29200	146565	27039	1059138	44964	111396	0	0	8323	398386	0	0
2024-07-17 15:07:47			0	41961	0	0	0	30615	29210	146461	27310	1059120	44965	111402	0	0	8323	398459	0	0
2024-07-17 15:08:47			0	41971	0	0	0	30623	29220	146573	26963	1059192	44977	111405	0	0	8323	398114	0	0
2024-07-17 15:09:47			0	41965	0	0	0	30641	29210	146329	26955	1059237	44977	111412	0	0	8323	398330	0	0
2024-07-17 15:10:47			0	41974	0	0	0	30651	29220	146309	27249	1059282	44978	111416	0	0	8323	398017	0	0
2024-07-17 15:11:47			0	41978	0	0	0	30659	29240	146457	27081	1059308	44957	111419	0	0	8323	397842	0	0
2024-07-17 15:12:47			0	41952	0	0	0	30672	29240	146369	26928	1059479	44958	111424	0	0	8321	398680	0	0
2024-07-17 15:13:47			0	41968	0	0	0	30675	29250	146397	27059	1059389	44970	111425	0	0	8322	398141	0	0
2024-07-17 15:14:47			0	41970	0	0	0	30664	29240	146365	27372	1059362	44979	111421	0	0	8323	398100	0	0
2024-07-17 15:15:47			0	41979	0	0	0	30672	29260	146397	27478	1059452	44970	111424	0	0	8323	397763	0	0
2024-07-17 15:16:47			0	41971	0	0	0	30693	29250	146417	27260	1059524	44981	111432	0	0	8322	398044	0	0
2024-07-17 15:17:47			0	41975	0	0	0	30740	29280	146421	27029	1059677	44996	111450	0	0	8322	397846	0	0
2024-07-17 15:18:47			0	41948	0	0	0	30789	29300	146485	27360	1059757	44974	111469	0	0	8319	398670	0	0
2024-07-17 15:19:47			0	41950	0	0	0	30812	29310	146337	27076	1059892	44999	111478	0	0	8319	398582	0	0
2024-07-17 15:20:47			0	41950	0	0	0	30831	29340	146477	27154	1059991	45000	111485	0	0	8319	398513	0	0
2024-07-17 15:21:47			0	41942	0	0	0	30825	29350	146425	27086	1060017	44991	111483	0	0	8319	398748	0	0
2024-07-17 15:22:47			0	41934	0	0	0	30825	29360	146413	27310	1060035	45002	111483	0	0	8318	398982	0	0
2024-07-17 15:23:47			0	41929	0	0	0	30825	29380	146397	27216	1060089	44994	111483	0	0	8318	399097	0	0
2024-07-17 15:24:47			0	41931	0	0	0	30818	29380	146413	26896	1060116	44982	111480	0	0	8318	399033	0	0
2024-07-17 15:25:47			0	41935	0	0	0	30818	29380	146441	26994	1060152	44982	111480	0	0	8319	398904	0	0
2024-07-17 15:26:47			0	41945	0	0	0	30802	29390	146493	27253	1060115	44983	111474	0	0	8319	398558	0	0
2024-07-17 15:27:47			0	41936	0	0	0	30789	29390	146365	27234	1060115	44972	111469	0	0	8319	398848	0	0
2024-07-17 15:28:47			0	41920	0	0	0	30781	29400	146305	27241	1060098	44984	111466	0	0	8318	399341	0	0
2024-07-17 15:29:47			0	41932	0	0	0	30779	29400	146353	26885	1060125	44973	111465	0	0	8319	398954	0	0
2024-07-17 15:30:47			0	41949	0	0	0	30792	29400	146353	27003	1060125	44984	111470	0	0	8320	398406	0	0
2024-07-17 15:31:47			0	41912	0	0	0	30786	29390	146261	27083	1060142	44972	111468	0	0	8318	399623	0	0
2024-07-17 15:32:47			0	41943	0	0	0	30786	29410	146401	27067	1060124	44985	111468	0	0	8320	398576	0	0
2024-07-17 15:33:47			0	41940	0	0	0	30773	29410	146457	27206	1060196	44974	111463	0	0	8320	398673	0	0
2024-07-17 15:34:47			0	41911	0	0	0	30786	29410	146361	27031	1060169	44985	111468	0	0	8318	399608	0	0
2024-07-17 15:35:47			0	41936	0	0	0	30812	29410	146261	27187	1060277	44985	111478	0	0	8319	398802	0	0
2024-07-17 15:36:47			0	41924	0	0	0	30838	29420	146337	27050	1060349	44986	111488	0	0	8318	399166	0	0
2024-07-17 15:37:47			0	41926	0	0	0	30828	29430	146361	27085	1060457	44987	111484	0	0	8318	399078	0	0
2024-07-17 15:38:47			0	41927	0	0	0	30831	29440	146365	26745	1060331	44977	111485	0	0	8318	399023	0	0
2024-07-17 15:39:47			0	41928	0	0	0	30825	29440	146393	27274	1060394	44978	111483	0	0	8318	398990	0	0
2024-07-17 15:40:47			0	41920	0	0	0	30815	29450	146421	27182	1060403	44966	111479	0	0	8318	399225	0	0
2024-07-17 15:41:47			0	41932	0	0	0	30831	29450	146381	26882	1060457	44978	111485	0	0	8318	398838	0	0
2024-07-17 15:42:47			0	41939	0	0	0	30872	29460	146349	26956	1060501	45001	111501	0	0	8318	398589	0	0
2024-07-17 15:43:47			0	41915	0	0	0	30906	29470	146365	27138	1060574	45002	111514	0	0	8316	399340	0	0
2024-07-17 15:44:47			0	41925	0	0	0	30896	29470	146361	27098	1060636	45002	111510	0	0	8317	399017	0	0
2024-07-17 15:45:47			0	41860	0	0	0	30896	29480	146525	26901	1060618	44981	111510	0	0	8313	401092	0	0
2024-07-17 15:46:47			0	41588	0	0	0	30893	29490	147473	26674	1060636	44983	111509	0	0	8298	409908	0	0
2024-07-17 15:47:47			0	41236	0	0	0	30880	29490	148624	26951	1060663	44983	111504	0	0	8278	421487	0	0
2024-07-17 15:48:47			0	41002	0	0	0	30901	29490	149312	27048	1060618	44994	111512	0	0	8264	429274	0	0
2024-07-17 15:49:47			0	40832	0	0	0	30890	29490	149968	27336	1060672	44983	111508	0	0	8254	434978	0	0
2024-07-17 15:50:47			0	40577	0	0	0	30927	29500	150831	27154	1060708	44983	111522	0	0	8239	443582	0	0
2024-07-17 15:51:47			0	40281	0	0	0	30935	29510	151811	27093	1060816	45006	111525	0	0	8223	453685	0	0
2024-07-17 15:52:47			0	40129	0	0	0	30935	29510	152491	27060	1060780	45006	111525	0	0	8214	458934	0	0
2024-07-17 15:53:47			0	40039	0	0	0	30922	29520	152690	27029	1060807	45007	111520	0	0	8209	462031	0	0
2024-07-17 15:54:47			0	39982	0	0	0	30901	29520	152882	27280	1060798	45018	111512	0	0	8206	464016	0	0
2024-07-17 15:55:47			0	39959	0	0	0	30880	29530	152978	26942	1060771	44987	111504	0	0	8205	464791	0	0
2024-07-17 15:56:47			0	39851	0	0	0	30857	29520	153362	27182	1060771	44973	111495	0	0	8200	468594	0	0
2024-07-17 15:57:47			0	39807	0	0	0	30883	29520	153510	27374	1060780	44963	111505	0	0	8197	470138	0	0
2024-07-17 15:58:47			0	39741	0	0	0	30885	29530	153678	27199	1060762	44975	111506	0	0	8193	472431	0	0
2024-07-17 15:59:47			0	39669	0	0	0	30870	29510	154110	26897	1060681	44984	111500	0	0	8189	475025	0	0
2024-07-17 16:00:47			0	39601	0	0	0	30854	29520	154354	26887	1060663	44984	111494	0	0	8185	477402	0	0
2024-07-17 16:01:47			0	39551	0	0	0	30844	29500	154474	26807	1060663	44984	111490	0	0	8183	479230	0	0
2024-07-17 16:02:47			0	39516	0	0	0	30836	29510	154598	26852	1060618	44984	111487	0	0	8181	480446	0	0
2024-07-17 16:03:47			0	39508	0	0	0	30828	29490	154646	26904	1060501	44983	111484	0	0	8180	480786	0	0
2024-07-17 16:04:47			0	39464	0	0	0	30812	29490	154786	27163	1060528	44971	111478	0	0	8178	482352	0	0
2024-07-17 16:05:47			0	39454	0	0	0	30802	29490	154922	27274	1060501	44971	111474	0	0	8178	482708	0	0
2024-07-17 16:06:47			0	39441	0	0	0	30794	29480	154986	27131	1060429	44981	111471	0	0	8177	483200	0	0
2024-07-17 16:07:47			0	39425	0	0	0	30768	29460	155078	27209	1060348	44980	111461	0	0	8177	483827	0	0
2024-07-17 16:08:47			0	39403	0	0	0	30748	29450	155021	27345	1060223	44966	111453	0	0	8176	484641	0	0
2024-07-17 16:09:47			0	39399	0	0	0	30722	29440	155037	27182	1060205	44933	111443	0	0	8176	484812	0	0
2024-07-17 16:10:47			0	39360	0	0	0	30719	29430	155233	27027	1060124	44954	111442	0	0	8174	486235	0	0
2024-07-17 16:11:47			0	39303	0	0	0	30758	29430	155405	26970	1060160	44976	111457	0	0	8170	488278	0	0
2024-07-17 16:12:47			0	39256	0	0	0	30776	29430	155645	27074	1060295	44987	111464	0	0	8167	489966	0	0
2024-07-17 16:13:47			0	39162	0	0	0	30789	29430	155877	26887	1060268	44976	111469	0	0	8161	493353	0	0
2024-07-17 16:14:47			0	39099	0	0	0	30771	29430	156153	26885	1060268	44964	111462	0	0	8158	495631	0	0
2024-07-17 16:15:47			0	39058	0	0	0	30758	29420	156373	27100	1060115	44954	111457	0	0	8156	497145	0	0
2024-07-17 16:16:47			0	39054	0	0	0	30737	29420	156369	26837	1060160	44975	111449	0	0	8156	497290	0	0
2024-07-17 16:17:47			0	39007	0	0	0	30716	29410	156465	27057	1060124	44974	111441	0	0	8154	499026	0	0
2024-07-17 16:18:47			0	38972	0	0	0	30735	29410	156641	27114	1060089	44974	111448	0	0	8151	500299	0	0
2024-07-17 16:19:47			0	38916	0	0	0	30727	29410	156905	27104	1060151	44962	111445	0	0	8148	502340	0	0
2024-07-17 16:20:47			0	38858	0	0	0	30732	29400	157129	26885	1060071	44961	111447	0	0	8145	504488	0	0
2024-07-17 16:21:47			0	38835	0	0	0	30771	29410	157233	26785	1060286	44985	111462	0	0	8143	505301	0	0
2024-07-17 16:22:47			0	38808	0	0	0	30823	29430	157397	26925	1060367	44999	111482	0	0	8141	506231	0	0
2024-07-17 16:23:47			0	38795	0	0	0	30823	29440	157405	26902	1060475	44989	111482	0	0	8140	506678	0	0
2024-07-17 16:24:47			0	38793	0	0	0	30833	29450	157341	27189	1060511	45011	111486	0	0	8140	506722	0	0
2024-07-17 16:25:47			0	38799	0	0	0	30846	29470	157321	27088	1060627	45002	111491	0	0	8140	506443	0	0
2024-07-17 16:26:47			0	38806	0	0	0	30859	29480	157285	26946	1060735	45003	111496	0	0	8140	506157	0	0
2024-07-17 16:27:47			0	38835	0	0	0	30883	29480	157141	26958	1060735	45003	111505	0	0	8141	505095	0	0
2024-07-17 16:28:47			0	38850	0	0	0	30911	29500	157237	27003	1060852	44984	111516	0	0	8142	504488	0	0
2024-07-17 16:29:47			0	38851	0	0	0	30973	29520	157077	26925	1061014	45018	111540	0	0	8141	504392	0	0
2024-07-17 16:30:47			0	38867	0	0	0	30973	29530	156821	27088	1060951	45008	111540	0	0	8142	503778	0	0
2024-07-17 16:31:47			0	38900	0	0	0	30955	29540	156841	26996	1060888	44999	111533	0	0	8144	502544	0	0
2024-07-17 16:32:47			0	38918	0	0	0	30903	29540	156729	27183	1060806	44987	111513	0	0	8146	501887	0	0
2024-07-17 16:33:47			0	38943	0	0	0	30867	29520	156617	27059	1060609	44962	111499	0	0	8148	501034	0	0
2024-07-17 16:34:47			0	38982	0	0	0	30815	29500	156557	27043	1060465	44926	111479	0	0	8151	499673	0	0
2024-07-17 16:35:47			0	38999	0	0	0	30779	29470	156601	27034	1060367	44924	111465	0	0	8152	499142	0	0
2024-07-17 16:36:47			0	38990	0	0	0	30755	29460	156541	26746	1060267	44946	111456	0	0	8152	499499	0	0
2024-07-17 16:37:47			0	38985	0	0	0	30729	29460	156633	27074	1060258	44945	111446	0	0	8152	499680	0	0
2024-07-17 16:38:47			0	38945	0	0	0	30716	29440	156561	27057	1060205	44956	111441	0	0	8150	501195	0	0
2024-07-17 16:39:47			0	38936	0	0	0	30698	29430	156717	27057	1060106	44954	111434	0	0	8150	501552	0	0
2024-07-17 16:40:47			0	38919	0	0	0	30706	29420	156773	26753	1060133	44953	111437	0	0	8149	502201	0	0
2024-07-17 16:41:47			0	38895	0	0	0	30714	29410	156889	26889	1060124	44974	111440	0	0	8147	503107	0	0
2024-07-17 16:42:47			0	38872	0	0	0	30714	29410	156957	26824	1060169	44952	111440	0	0	8146	503947	0	0
2024-07-17 16:43:47			0	38880	0	0	0	30716	29410	157009	26937	1060223	44974	111441	0	0	8146	503655	0	0
2024-07-17 16:44:47			0	38875	0	0	0	30753	29430	156973	26838	1060340	44999	111455	0	0	8146	503779	0	0
2024-07-17 16:45:47			0	38886	0	0	0	30758	29430	156925	27008	1060313	44976	111457	0	0	8146	503377	0	0
2024-07-17 16:46:47			0	38887	0	0	0	30779	29430	156977	27157	1060295	44987	111465	0	0	8146	503340	0	0
2024-07-17 16:47:47			0	38891	0	0	0	30802	29450	156965	27092	1060376	44989	111474	0	0	8146	503136	0	0
2024-07-17 16:48:47			0	38900	0	0	0	30851	29450	156885	27020	1060600	45011	111493	0	0	8145	502807	0	0
2024-07-17 16:49:47			0	38897	0	0	0	30916	29470	156781	26887	1060717	45014	111518	0	0	8144	502858	0	0
2024-07-17 16:50:47			0	38913	0	0	0	30979	29500	156813	27013	1061005	45016	111542	0	0	8144	502186	0	0
2024-07-17 16:51:47			0	38941	0	0	0	31031	29520	156757	26701	1061104	45019	111562	0	0	8145	501107	0	0
2024-07-17 16:52:47			0	38952	0	0	0	31064	29550	156673	26817	1061310	45033	111575	0	0	8145	500619	0	0
2024-07-17 16:53:47			0	38980	0	0	0	31085	29570	156497	27045	1061454	45012	111583	0	0	8147	499543	0	0
2024-07-17 16:54:47			0	39018	0	0	0	31106	29600	156293	27185	1061552	45038	111591	0	0	8148	498075	0	0
2024-07-17 16:55:47			0	39052	0	0	0	31122	29610	156221	26873	1061579	45027	111597	0	0	8150	496813	0	0
2024-07-17 16:56:47			0	39096	0	0	0	31122	29630	156109	26861	1061642	45029	111597	0	0	8153	495163	0	0
2024-07-17 16:57:47			0	39111	0	0	0	31122	29640	156065	26902	1061633	45031	111597	0	0	8154	494592	0	0
2024-07-17 16:58:47			0	39140	0	0	0	31093	29650	155941	26981	1061615	45008	111586	0	0	8156	493516	0	0
2024-07-17 16:59:47			0	39154	0	0	0	31067	29650	155785	26648	1061507	44998	111576	0	0	8157	493010	0	0
2024-07-17 17:00:47			0	39162	0	0	0	31036	29650	155657	26705	1061426	44998	111564	0	0	8158	492722	0	0
2024-07-17 17:01:47			0	39171	0	0	0	31028	29660	155713	27104	1061525	45021	111561	0	0	8159	492369	0	0
2024-07-17 17:02:47			0	39160	0	0	0	31031	29660	155733	26882	1061552	45009	111562	0	0	8158	492765	0	0
2024-07-17 17:03:47			0	39145	0	0	0	31038	29660	155717	26925	1061633	44999	111565	0	0	8157	493306	0	0
2024-07-17 17:04:47			0	39109	0	0	0	31038	29660	155785	27234	1061588	45010	111565	0	0	8155	494606	0	0
2024-07-17 17:05:47			0	39111	0	0	0	31012	29660	155885	27260	1061561	44988	111555	0	0	8156	494534	0	0
2024-07-17 17:06:47			0	39100	0	0	0	30968	29650	155889	27216	1061237	44975	111538	0	0	8156	494960	0	0
2024-07-17 17:07:47			0	39083	0	0	0	30922	29630	156033	27046	1060967	44928	111520	0	0	8155	495633	0	0
2024-07-17 17:08:47			0	39084	0	0	0	30883	29610	156033	27374	1060931	44949	111505	0	0	8156	495654	0	0
2024-07-17 17:09:47			0	39073	0	0	0	30888	29600	156113	27215	1061183	44983	111507	0	0	8155	496081	0	0
2024-07-17 17:10:47			0	39029	0	0	0	30924	29610	156321	26830	1061255	44994	111521	0	0	8152	497647	0	0
2024-07-17 17:11:47			0	38997	0	0	0	30950	29620	156461	27388	1061327	44996	111531	0	0	8150	498779	0	0
2024-07-17 17:12:47			0	38975	0	0	0	30966	29620	156433	27185	1061273	44996	111537	0	0	8149	499579	0	0
2024-07-17 17:13:47			0	38954	0	0	0	30963	29620	156529	26889	1061273	44973	111536	0	0	8147	500343	0	0
2024-07-17 17:14:47			0	38937	0	0	0	30968	29630	156497	26951	1061291	44996	111538	0	0	8146	500932	0	0
2024-07-17 17:15:47			0	38953	0	0	0	30979	29630	156533	26812	1061390	44996	111542	0	0	8147	500350	0	0
2024-07-17 17:16:47			0	38941	0	0	0	30981	29630	156477	27327	1061390	45018	111543	0	0	8146	500787	0	0
2024-07-17 17:17:47			0	38947	0	0	0	30979	29630	156417	27036	1061345	44996	111542	0	0	8147	500568	0	0
2024-07-17 17:18:47			0	38962	0	0	0	30976	29620	156469	27182	1061318	44995	111541	0	0	8148	500051	0	0
2024-07-17 17:19:47			0	39009	0	0	0	30979	29630	156445	27156	1061336	44996	111542	0	0	8150	498315	0	0
2024-07-17 17:20:47			0	39000	0	0	0	30994	29630	156357	27142	1061444	44996	111548	0	0	8149	498641	0	0
2024-07-17 17:21:47			0	39030	0	0	0	31012	29640	156281	26901	1061489	45007	111555	0	0	8151	497524	0	0
2024-07-17 17:22:47			0	39037	0	0	0	31020	29640	156233	26816	1061489	45007	111558	0	0	8151	497270	0	0
2024-07-17 17:23:47			0	39043	0	0	0	31010	29640	156169	26857	1061408	44986	111554	0	0	8152	497053	0	0
2024-07-17 17:24:47			0	39054	0	0	0	31010	29650	156049	26873	1061480	44987	111554	0	0	8152	496625	0	0
2024-07-17 17:25:47			0	39070	0	0	0	31005	29650	155997	27013	1061426	45008	111552	0	0	8153	496046	0	0
2024-07-17 17:26:47			0	39081	0	0	0	30997	29640	156009	27291	1061417	44998	111549	0	0	8154	495676	0	0
2024-07-17 17:27:47			0	39076	0	0	0	30992	29640	155897	26706	1061381	44974	111547	0	0	8154	495857	0	0
2024-07-17 17:28:47			0	39094	0	0	0	30992	29640	155977	26876	1061417	45008	111547	0	0	8155	495206	0	0
2024-07-17 17:29:47			0	39104	0	0	0	30992	29640	155953	26987	1061516	44997	111547	0	0	8155	494845	0	0
2024-07-17 17:30:47			0	39110	0	0	0	31002	29640	155953	27150	1061498	44998	111551	0	0	8156	494628	0	0
2024-07-17 17:31:47			0	39114	0	0	0	31015	29640	155945	27386	1061471	44998	111556	0	0	8156	494483	0	0
2024-07-17 17:32:47			0	39097	0	0	0	31012	29650	155913	27232	1061480	44998	111555	0	0	8155	495069	0	0
2024-07-17 17:33:47			0	39105	0	0	0	31025	29640	156009	27092	1061417	45008	111560	0	0	8155	494809	0	0
2024-07-17 17:34:47			0	39095	0	0	0	31031	29650	155965	27206	1061534	45008	111562	0	0	8154	495141	0	0
2024-07-17 17:35:47			0	39095	0	0	0	31018	29660	155925	27258	1061498	45009	111557	0	0	8155	495112	0	0
2024-07-17 17:36:47			0	39109	0	0	0	31018	29650	155973	27066	1061489	44998	111557	0	0	8155	494635	0	0
2024-07-17 17:37:47			0	39112	0	0	0	31005	29650	155893	27329	1061516	44975	111552	0	0	8156	494527	0	0
2024-07-17 17:38:47			0	39099	0	0	0	30999	29640	155893	26693	1061498	44998	111550	0	0	8155	495025	0	0
2024-07-17 17:39:47			0	39114	0	0	0	31005	29640	155973	27287	1061498	44998	111552	0	0	8156	494483	0	0
2024-07-17 17:40:47			0	39113	0	0	0	31007	29640	155849	27218	1061552	45020	111553	0	0	8156	494519	0	0
2024-07-17 17:41:47			0	39096	0	0	0	31018	29650	155977	27138	1061561	45008	111557	0	0	8155	495105	0	0
2024-07-17 17:42:47			0	39075	0	0	0	31005	29650	155853	26939	1061516	44998	111552	0	0	8154	495865	0	0
2024-07-17 17:43:47			0	39084	0	0	0	30999	29650	155933	26802	1061399	45008	111550	0	0	8154	495539	0	0
2024-07-17 17:44:47			0	39101	0	0	0	30997	29650	155897	26972	1061435	44987	111549	0	0	8155	494924	0	0
2024-07-17 17:45:47			0	39106	0	0	0	30973	29640	155905	26946	1061300	44986	111540	0	0	8156	494772	0	0
2024-07-17 17:46:47			0	39089	0	0	0	30963	29630	155977	27088	1061282	44996	111536	0	0	8155	495416	0	0
2024-07-17 17:47:47			0	39096	0	0	0	30968	29630	156001	27150	1061372	45006	111538	0	0	8155	495163	0	0
2024-07-17 17:48:47			0	39102	0	0	0	30979	29640	155985	27008	1061408	45007	111542	0	0	8156	494917	0	0
2024-07-17 17:49:47			0	39094	0	0	0	30981	29640	155941	27036	1061408	45007	111543	0	0	8155	495206	0	0
2024-07-17 17:50:47			0	39065	0	0	0	30979	29640	156037	26811	1061462	44986	111542	0	0	8153	496256	0	0
2024-07-17 17:51:47			0	39079	0	0	0	30966	29620	156009	26824	1061219	44996	111537	0	0	8154	495807	0	0
2024-07-17 17:52:47			0	39076	0	0	0	30935	29620	156053	26786	1061192	44985	111525	0	0	8155	495915	0	0
2024-07-17 17:53:47			0	39089	0	0	0	30916	29610	156033	27116	1061093	44971	111518	0	0	8156	495474	0	0
2024-07-17 17:54:47			0	39067	0	0	0	30888	29590	156057	26882	1060941	44968	111507	0	0	8155	496328	0	0
2024-07-17 17:55:47			0	39076	0	0	0	30875	29580	156045	27131	1060923	44980	111502	0	0	8156	496031	0	0
2024-07-17 17:56:47			0	39060	0	0	0	30867	29560	156089	26618	1060869	44978	111499	0	0	8155	496668	0	0
2024-07-17 17:57:47			0	39039	0	0	0	30828	29550	156173	27027	1060635	44955	111484	0	0	8154	497458	0	0
2024-07-17 17:58:47			0	39019	0	0	0	30812	29530	156245	27149	1060627	44953	111478	0	0	8153	498242	0	0
2024-07-17 17:59:47			0	38993	0	0	0	30784	29500	156437	27315	1060384	44938	111467	0	0	8152	499273	0	0
2024-07-17 18:00:47			0	38980	0	0	0	30776	29490	156545	26935	1060420	44938	111464	0	0	8151	499775	0	0
2024-07-17 18:01:47			0	38946	0	0	0	30773	29480	156597	27020	1060465	44970	111463	0	0	8149	501042	0	0
2024-07-17 18:02:47			0	38914	0	0	0	30786	29470	156661	27048	1060475	44969	111468	0	0	8147	502237	0	0
2024-07-17 18:03:47			0	38881	0	0	0	30784	29470	156801	27208	1060475	44969	111467	0	0	8146	503442	0	0
2024-07-17 18:04:47			0	38847	0	0	0	30794	29470	157009	27069	1060528	44969	111471	0	0	8143	504685	0	0
2024-07-17 18:05:47			0	38832	0	0	0	30825	29470	157045	27104	1060582	44981	111483	0	0	8142	505234	0	0
2024-07-17 18:06:47			0	38798	0	0	0	30838	29470	156949	27324	1060520	44981	111488	0	0	8140	506480	0	0
2024-07-17 18:07:47			0	38811	0	0	0	30807	29460	157077	27022	1060429	44991	111476	0	0	8141	506033	0	0
2024-07-17 18:08:47			0	38794	0	0	0	30781	29460	157097	26816	1060348	44980	111466	0	0	8141	506656	0	0
2024-07-17 18:09:47			0	38820	0	0	0	30748	29440	157033	26986	1060196	44965	111453	0	0	8143	505762	0	0
2024-07-17 18:10:47			0	38829	0	0	0	30735	29420	157009	26793	1060196	44942	111448	0	0	8143	505491	0	0
2024-07-17 18:11:47			0	38825	0	0	0	30729	29430	156941	27034	1060124	44976	111446	0	0	8143	505608	0	0
2024-07-17 18:12:47			0	38840	0	0	0	30709	29410	156997	27007	1060062	44962	111438	0	0	8144	505118	0	0
2024-07-17 18:13:47			0	38815	0	0	0	30698	29400	157017	27111	1059936	44951	111434	0	0	8143	506063	0	0
2024-07-17 18:14:47			0	38802	0	0	0	30675	29380	157217	27159	1059909	44938	111425	0	0	8143	506599	0	0
2024-07-17 18:15:47			0	38801	0	0	0	30654	29360	157249	27052	1059783	44947	111417	0	0	8143	506694	0	0
2024-07-17 18:16:47			0	38782	0	0	0	30636	29360	157205	27027	1059783	44969	111410	0	0	8142	507391	0	0
2024-07-17 18:17:47			0	38780	0	0	0	30620	29340	157245	26856	1059784	44967	111404	0	0	8142	507524	0	0
2024-07-17 18:18:47			0	38766	0	0	0	30594	29340	157361	27121	1059640	44957	111394	0	0	8142	508038	0	0
2024-07-17 18:19:47			0	38769	0	0	0	30571	29310	157329	26934	1059406	44931	111385	0	0	8142	508016	0	0
2024-07-17 18:20:47			0	38766	0	0	0	30548	29290	157413	26819	1059254	44928	111376	0	0	8142	508186	0	0
2024-07-17 18:21:47			0	38744	0	0	0	30516	29270	157417	27111	1059191	44938	111364	0	0	8141	509054	0	0
2024-07-17 18:22:47			0	38724	0	0	0	30511	29250	157661	27150	1059272	44936	111362	0	0	8140	509849	0	0
2024-07-17 18:23:47			0	38686	0	0	0	30524	29240	157756	26904	1059209	44958	111367	0	0	8138	511280	0	0
2024-07-17 18:24:47			0	38657	0	0	0	30509	29230	157936	26859	1059156	44945	111361	0	0	8136	512380	0	0
2024-07-17 18:25:47			0	38599	0	0	0	30511	29220	158112	27268	1059228	44957	111362	0	0	8133	514555	0	0
2024-07-17 18:26:47			0	38610	0	0	0	30545	29220	158132	26724	1059228	44957	111375	0	0	8133	514148	0	0
2024-07-17 18:27:47			0	38596	0	0	0	30555	29220	158140	27107	1059201	44967	111379	0	0	8132	514666	0	0
2024-07-17 18:28:47			0	38576	0	0	0	30553	29220	158236	27178	1059219	44966	111378	0	0	8131	515408	0	0
2024-07-17 18:29:47			0	38573	0	0	0	30548	29230	158308	27052	1059237	44957	111376	0	0	8131	515489	0	0
2024-07-17 18:30:47			0	38568	0	0	0	30550	29220	158248	26885	1059246	44956	111377	0	0	8131	515704	0	0
2024-07-17 18:31:47			0	38574	0	0	0	30548	29220	158292	26759	1059255	44957	111376	0	0	8131	515482	0	0
2024-07-17 18:32:47			0	38603	0	0	0	30550	29220	158140	26925	1059246	44966	111377	0	0	8133	514407	0	0
2024-07-17 18:33:47			0	38604	0	0	0	30540	29220	158256	26750	1059174	44957	111373	0	0	8133	514370	0	0
2024-07-17 18:34:47			0	38605	0	0	0	30524	29200	158172	27197	1059057	44964	111367	0	0	8133	514393	0	0
2024-07-17 18:35:47			0	38609	0	0	0	30506	29190	158084	26807	1058959	44942	111360	0	0	8134	514275	0	0
2024-07-17 18:36:47			0	38614	0	0	0	30475	29180	158132	26788	1058824	44929	111348	0	0	8134	514119	0	0
2024-07-17 18:37:47			0	38633	0	0	0	30444	29160	158000	26849	1058770	44927	111336	0	0	8136	513476	0	0
2024-07-17 18:38:47			0	38629	0	0	0	30467	29150	158048	26994	1058834	44949	111345	0	0	8135	513654	0	0
2024-07-17 18:39:47			0	38633	0	0	0	30470	29150	157872	26916	1058860	44949	111346	0	0	8135	513506	0	0
2024-07-17 18:40:47			0	38663	0	0	0	30485	29140	157956	26819	1058806	44947	111352	0	0	8137	512426	0	0
2024-07-17 18:41:47			0	38644	0	0	0	30480	29150	157992	26993	1058780	44959	111350	0	0	8136	513099	0	0
2024-07-17 18:42:47			0	38655	0	0	0	30496	29160	157972	26883	1058896	44960	111356	0	0	8136	512662	0	0
2024-07-17 18:43:47			0	38664	0	0	0	30477	29150	157964	26906	1058860	44959	111349	0	0	8137	512359	0	0
2024-07-17 18:44:47			0	38642	0	0	0	30464	29150	158044	26960	1058914	44959	111344	0	0	8136	513173	0	0
2024-07-17 18:45:47			0	38649	0	0	0	30446	29140	157972	26887	1058788	44958	111337	0	0	8137	512944	0	0
2024-07-17 18:46:47			0	38676	0	0	0	30418	29140	158080	27149	1058681	44936	111326	0	0	8139	511946	0	0
2024-07-17 18:47:47			0	38672	0	0	0	30405	29120	157932	27072	1058555	44922	111321	0	0	8139	512153	0	0
2024-07-17 18:48:47			0	38673	0	0	0	30399	29100	157936	27029	1058475	44911	111319	0	0	8139	512176	0	0
2024-07-17 18:49:47			0	38678	0	0	0	30384	29100	157984	26705	1058475	44933	111313	0	0	8139	511991	0	0
2024-07-17 18:50:47			0	38678	0	0	0	30397	29100	157968	27039	1058528	44966	111318	0	0	8139	511991	0	0
2024-07-17 18:51:47			0	38660	0	0	0	30386	29100	157964	27024	1058475	44955	111314	0	0	8138	512656	0	0
2024-07-17 18:52:47			0	38667	0	0	0	30402	29090	157944	27159	1058538	44955	111320	0	0	8138	512427	0	0
2024-07-17 18:53:47			0	38680	0	0	0	30405	29090	157896	26713	1058637	44965	111321	0	0	8139	511947	0	0
2024-07-17 18:54:47			0	38662	0	0	0	30431	29100	158012	26986	1058663	44966	111331	0	0	8137	512582	0	0
2024-07-17 18:55:47			0	38655	0	0	0	30407	29100	157924	26819	1058547	44943	111322	0	0	8137	512841	0	0
2024-07-17 18:56:47			0	38678	0	0	0	30410	29090	158052	27027	1058529	44932	111323	0	0	8139	512021	0	0
2024-07-17 18:57:47			0	38673	0	0	0	30418	29080	157992	26646	1058520	44954	111326	0	0	8138	512235	0	0
2024-07-17 18:58:47			0	38685	0	0	0	30418	29080	157940	26764	1058538	44953	111326	0	0	8139	511792	0	0
2024-07-17 18:59:47			0	38677	0	0	0	30436	29090	157956	27003	1058610	44965	111333	0	0	8138	512058	0	0
2024-07-17 19:00:47			0	38689	0	0	0	30449	29090	157828	26863	1058610	44965	111338	0	0	8139	511614	0	0
2024-07-17 19:01:47			0	38684	0	0	0	30457	29090	157948	26608	1058619	44965	111341	0	0	8138	511799	0	0
2024-07-17 19:02:47			0	38689	0	0	0	30449	29090	157840	27098	1058502	44965	111338	0	0	8139	511614	0	0
2024-07-17 19:03:47			0	38697	0	0	0	30444	29080	157932	27114	1058547	44942	111336	0	0	8139	511349	0	0
2024-07-17 19:04:47			0	38702	0	0	0	30423	29070	157924	27020	1058394	44940	111328	0	0	8140	511194	0	0
2024-07-17 19:05:47			0	38702	0	0	0	30386	29060	157892	27078	1058206	44916	111314	0	0	8140	511224	0	0
2024-07-17 19:06:47			0	38703	0	0	0	30371	29050	157896	27071	1058197	44927	111308	0	0	8141	511216	0	0
2024-07-17 19:07:47			0	38720	0	0	0	30332	29040	157860	27229	1058260	44938	111293	0	0	8142	510619	0	0
2024-07-17 19:08:47			0	38703	0	0	0	30329	29040	157980	26793	1058197	44926	111292	0	0	8141	511246	0	0
2024-07-17 19:09:47			0	38703	0	0	0	30322	29030	157996	27159	1058071	44925	111289	0	0	8141	511276	0	0
2024-07-17 19:10:47			0	38684	0	0	0	30285	29020	158012	27036	1057954	44914	111275	0	0	8141	512007	0	0
2024-07-17 19:11:47			0	38666	0	0	0	30264	28990	158108	27166	1057766	44899	111267	0	0	8140	512762	0	0
2024-07-17 19:12:47			0	38647	0	0	0	30228	28970	158124	27022	1057650	44909	111253	0	0	8139	513524	0	0
2024-07-17 19:13:47			0	38595	0	0	0	30192	28950	158296	27232	1057560	44907	111239	0	0	8137	515511	0	0
2024-07-17 19:14:47			0	38561	0	0	0	30168	28930	158496	27241	1057471	44882	111230	0	0	8135	516833	0	0
2024-07-17 19:15:47			0	38536	0	0	0	30161	28920	158660	26979	1057462	44904	111227	0	0	8134	517793	0	0
2024-07-17 19:16:47			0	38492	0	0	0	30161	28900	158728	27180	1057399	44913	111227	0	0	8131	519491	0	0
2024-07-17 19:17:47			0	38472	0	0	0	30189	28890	158976	27223	1057435	44912	111238	0	0	8130	520268	0	0
2024-07-17 19:18:47			0	38437	0	0	0	30218	28890	159160	27263	1057507	44934	111249	0	0	8127	521575	0	0
2024-07-17 19:19:47			0	38414	0	0	0	30228	28900	159116	27180	1057552	44934	111253	0	0	8126	522404	0	0
2024-07-17 19:20:47			0	38362	0	0	0	30246	28890	159328	27144	1057516	44946	111260	0	0	8122	524382	0	0
2024-07-17 19:21:47			0	38343	0	0	0	30262	28890	159452	26920	1057543	44946	111266	0	0	8121	525095	0	0
2024-07-17 19:22:47			0	38309	0	0	0	30272	28900	159564	27079	1057723	44935	111270	0	0	8119	526342	0	0
2024-07-17 19:23:47			0	38333	0	0	0	30293	28910	159576	26970	1057714	44948	111278	0	0	8120	525409	0	0
2024-07-17 19:24:47			0	38330	0	0	0	30316	28920	159476	27081	1057839	44937	111287	0	0	8120	525492	0	0
2024-07-17 19:25:47			0	38314	0	0	0	30342	28920	159440	26951	1057839	44970	111297	0	0	8118	526093	0	0
2024-07-17 19:26:47			0	38335	0	0	0	30316	28930	159496	27154	1057821	44938	111287	0	0	8120	525274	0	0
2024-07-17 19:27:47			0	38350	0	0	0	30314	28950	159340	26785	1057884	44951	111286	0	0	8121	524650	0	0
2024-07-17 19:28:47			0	38342	0	0	0	30314	28930	159336	27246	1057740	44938	111286	0	0	8120	525011	0	0
2024-07-17 19:29:47			0	38359	0	0	0	30301	28920	159288	27317	1057759	44926	111281	0	0	8122	524403	0	0
2024-07-17 19:30:47			0	38375	0	0	0	30301	28920	159264	27194	1057866	44949	111281	0	0	8122	523804	0	0
2024-07-17 19:31:47			0	38391	0	0	0	30298	28930	159184	26975	1057776	44927	111280	0	0	8123	523174	0	0
2024-07-17 19:32:47			0	38386	0	0	0	30293	28930	159268	26935	1057767	44927	111278	0	0	8123	523361	0	0
2024-07-17 19:33:47			0	38378	0	0	0	30306	28920	159284	26871	1057866	44949	111283	0	0	8123	523692	0	0
2024-07-17 19:34:47			0	38407	0	0	0	30314	28940	159196	26939	1057875	44961	111286	0	0	8124	522545	0	0
2024-07-17 19:35:47			0	38387	0	0	0	30329	28930	159140	27246	1057857	44960	111292	0	0	8123	523324	0	0
2024-07-17 19:36:47			0	38390	0	0	0	30329	28940	159224	27062	1057875	44950	111292	0	0	8123	523181	0	0
2024-07-17 19:37:47			0	38375	0	0	0	30332	28940	159220	27088	1057821	44950	111293	0	0	8122	523743	0	0
2024-07-17 19:38:47			0	38400	0	0	0	30332	28940	159216	27201	1057929	44950	111293	0	0	8123	522807	0	0
2024-07-17 19:39:47			0	38388	0	0	0	30332	28950	159120	27159	1057947	44941	111293	0	0	8123	523226	0	0
2024-07-17 19:40:47			0	38368	0	0	0	30337	28960	159072	26875	1057902	44941	111295	0	0	8122	523945	0	0
2024-07-17 19:41:47			0	38391	0	0	0	30329	28960	159152	27029	1057929	44963	111292	0	0	8123	523083	0	0
2024-07-17 19:42:47			0	38400	0	0	0	30337	28950	159160	27066	1057947	44974	111295	0	0	8123	522777	0	0
2024-07-17 19:43:47			0	38378	0	0	0	30350	28970	159140	27178	1057964	44952	111300	0	0	8122	523540	0	0
2024-07-17 19:44:47			0	38398	0	0	0	30361	28980	159136	26604	1057982	44965	111304	0	0	8123	522761	0	0
2024-07-17 19:45:47			0	38400	0	0	0	30345	28970	159188	27067	1057937	44941	111298	0	0	8123	522716	0	0
2024-07-17 19:46:47			0	38393	0	0	0	30319	28970	159060	27121	1057946	44953	111288	0	0	8123	522978	0	0
2024-07-17 19:47:47			0	38394	0	0	0	30311	28970	159132	26793	1057937	44941	111285	0	0	8124	522940	0	0
2024-07-17 19:48:47			0	38400	0	0	0	30319	28960	159104	26838	1057902	44952	111288	0	0	8124	522746	0	0
2024-07-17 19:49:47			0	38388	0	0	0	30322	28970	159136	26925	1057964	44941	111289	0	0	8123	523165	0	0
2024-07-17 19:50:47			0	38390	0	0	0	30272	28960	159176	26750	1057578	44930	111270	0	0	8124	523121	0	0
2024-07-17 19:51:47			0	38388	0	0	0	30155	28920	159104	27192	1057381	44881	111225	0	0	8126	523317	0	0
2024-07-17 19:52:47			0	38376	0	0	0	30129	28900	159184	27208	1057283	44878	111215	0	0	8125	523827	0	0
2024-07-17 19:53:47			0	38367	0	0	0	30124	28890	159376	26908	1057318	44912	111213	0	0	8125	524195	0	0
2024-07-17 19:54:47			0	38316	0	0	0	30106	28870	159400	27116	1057238	44899	111206	0	0	8122	526170	0	0
2024-07-17 19:55:47			0	38290	0	0	0	30129	28860	159572	26953	1057247	44931	111215	0	0	8120	527178	0	0
2024-07-17 19:56:47			0	38261	0	0	0	30114	28860	159696	27199	1057301	44931	111209	0	0	8119	528270	0	0
2024-07-17 19:57:47			0	38224	0	0	0	30145	28860	159756	26902	1057435	44943	111221	0	0	8116	529665	0	0
2024-07-17 19:58:47			0	38219	0	0	0	30205	28870	159796	26863	1057508	44955	111244	0	0	8115	529823	0	0
2024-07-17 19:59:47			0	38189	0	0	0	30233	28880	159880	27007	1057516	44944	111255	0	0	8113	530925	0	0
2024-07-17 20:00:47			0	38183	0	0	0	30212	28880	160100	26944	1057436	44921	111247	0	0	8113	531152	0	0
2024-07-17 20:01:47			0	38184	0	0	0	30233	28880	160016	27007	1057552	44933	111255	0	0	8112	531114	0	0
2024-07-17 20:02:47			0	38201	0	0	0	30272	28880	159932	26922	1057633	44956	111270	0	0	8113	530472	0	0
2024-07-17 20:03:47			0	38214	0	0	0	30337	28890	159868	26852	1057786	44968	111295	0	0	8112	529950	0	0
2024-07-17 20:04:47			0	38221	0	0	0	30376	28910	159872	27053	1058010	44981	111310	0	0	8112	529624	0	0
2024-07-17 20:05:47			0	38226	0	0	0	30405	28930	159840	27019	1058064	44960	111321	0	0	8112	529374	0	0
2024-07-17 20:06:47			0	38247	0	0	0	30433	28960	159768	26876	1058198	44974	111332	0	0	8113	528491	0	0
2024-07-17 20:07:47			0	38258	0	0	0	30449	28980	159612	26932	1058252	44988	111338	0	0	8114	528015	0	0
2024-07-17 20:08:47			0	38282	0	0	0	30451	28990	159552	26911	1058252	44977	111339	0	0	8115	527082	0	0
2024-07-17 20:09:47			0	38329	0	0	0	30457	29000	159400	27029	1058323	44978	111341	0	0	8118	525285	0	0
2024-07-17 20:10:47			0	38350	0	0	0	30475	29010	159200	26953	1058395	44968	111348	0	0	8118	524467	0	0
2024-07-17 20:11:47			0	38403	0	0	0	30493	29040	159100	26785	1058548	44993	111355	0	0	8121	522392	0	0
2024-07-17 20:12:47			0	38428	0	0	0	30511	29050	158996	27005	1058592	44983	111362	0	0	8122	521427	0	0
2024-07-17 20:13:47			0	38444	0	0	0	30529	29070	158748	26786	1058682	44973	111369	0	0	8123	520769	0	0
2024-07-17 20:14:47			0	38483	0	0	0	30550	29060	158780	27098	1058673	44973	111377	0	0	8125	519345	0	0
2024-07-17 20:15:47			0	38457	0	0	0	30561	29080	158896	26828	1058835	44986	111381	0	0	8123	520254	0	0
2024-07-17 20:16:47			0	38318	0	0	0	30576	29100	159364	26752	1058870	44988	111387	0	0	8115	525393	0	0
2024-07-17 20:17:47			0	38208	0	0	0	30592	29110	160060	27187	1058942	44990	111393	0	0	8109	529500	0	0
2024-07-17 20:18:47			0	38031	0	0	0	30597	29120	160592	27149	1058942	44991	111395	0	0	8099	536169	0	0
2024-07-17 20:19:47			0	37889	0	0	0	30594	29130	161151	26932	1058977	44980	111394	0	0	8091	541551	0	0
2024-07-17 20:20:47			0	37798	0	0	0	30610	29140	161527	27083	1059085	44970	111400	0	0	8085	545007	0	0
2024-07-17 20:21:47			0	37694	0	0	0	30618	29160	161859	26854	1059112	44995	111403	0	0	8079	548945	0	0
2024-07-17 20:22:47			0	37655	0	0	0	30631	29150	161955	26975	1059157	44982	111408	0	0	8077	550483	0	0
2024-07-17 20:23:47			0	37595	0	0	0	30651	29170	162179	26996	1059211	45006	111416	0	0	8073	552740	0	0
2024-07-17 20:24:47			0	37602	0	0	0	30654	29170	162383	26935	1059319	44984	111417	0	0	8073	552469	0	0
2024-07-17 20:25:47			0	37563	0	0	0	30654	29190	162395	26845	1059300	44975	111417	0	0	8071	553917	0	0
2024-07-17 20:26:47			0	37551	0	0	0	30654	29200	162579	26894	1059327	44987	111417	0	0	8070	554350	0	0
2024-07-17 20:27:47			0	37517	0	0	0	30657	29200	162587	27041	1059372	44998	111418	0	0	8068	555671	0	0
2024-07-17 20:28:47			0	37520	0	0	0	30654	29200	162643	26859	1059291	44987	111417	0	0	8069	555554	0	0
2024-07-17 20:29:47			0	37492	0	0	0	30654	29200	162667	26939	1059318	44976	111417	0	0	8067	556643	0	0
2024-07-17 20:30:47			0	37498	0	0	0	30644	29210	162531	26911	1059336	44988	111413	0	0	8068	556377	0	0
2024-07-17 20:31:47			0	37509	0	0	0	30654	29210	162459	26890	1059372	44977	111417	0	0	8068	555950	0	0
2024-07-17 20:32:47			0	37560	0	0	0	30644	29220	162407	26915	1059408	44989	111413	0	0	8071	553937	0	0
2024-07-17 20:33:47			0	37562	0	0	0	30644	29210	162235	26812	1059345	44977	111413	0	0	8071	553891	0	0
2024-07-17 20:34:47			0	37611	0	0	0	30612	29220	162115	26902	1059327	44989	111401	0	0	8075	551960	0	0
2024-07-17 20:35:47			0	37655	0	0	0	30584	29230	162067	27024	1059237	44967	111390	0	0	8078	550227	0	0
2024-07-17 20:36:47			0	37687	0	0	0	30529	29210	161723	27150	1059210	44956	111369	0	0	8080	549056	0	0
2024-07-17 20:37:47			0	37731	0	0	0	30501	29210	161683	26859	1059201	44965	111358	0	0	8083	547361	0	0
2024-07-17 20:38:47			0	37755	0	0	0	30462	29200	161511	26760	1059021	44954	111343	0	0	8085	546469	0	0
2024-07-17 20:39:47			0	37767	0	0	0	30438	29180	161391	27100	1058932	44940	111334	0	0	8086	546071	0	0
2024-07-17 20:40:47			0	37799	0	0	0	30449	29170	161347	27079	1058887	44951	111338	0	0	8088	544873	0	0
2024-07-17 20:41:47			0	37815	0	0	0	30451	29160	161251	26844	1058869	44950	111339	0	0	8089	544291	0	0
2024-07-17 20:42:47			0	37845	0	0	0	30436	29160	161111	26680	1058923	44950	111333	0	0	8091	543141	0	0
2024-07-17 20:43:47			0	37876	0	0	0	30428	29160	161071	27256	1058869	44950	111330	0	0	8093	541954	0	0
2024-07-17 20:44:47			0	37897	0	0	0	30433	29150	160955	27081	1058860	44949	111332	0	0	8094	541182	0	0
2024-07-17 20:45:47			0	37932	0	0	0	30433	29130	160763	26771	1058744	44947	111332	0	0	8096	539908	0	0
2024-07-17 20:46:47			0	37962	0	0	0	30386	29130	160747	26733	1058681	44935	111314	0	0	8098	538764	0	0
2024-07-17 20:47:47			0	37994	0	0	0	30373	29120	160579	26955	1058672	44934	111309	0	0	8100	537577	0	0
2024-07-17 20:48:47			0	38026	0	0	0	30379	29120	160496	26875	1058690	44956	111311	0	0	8102	536359	0	0
2024-07-17 20:49:47			0	38055	0	0	0	30407	29110	160372	26667	1058627	44967	111322	0	0	8103	535289	0	0
2024-07-17 20:50:47			0	38079	0	0	0	30412	29110	160328	26620	1058591	44967	111324	0	0	8105	534378	0	0
2024-07-17 20:51:47			0	38088	0	0	0	30425	29110	160304	26764	1058681	44967	111329	0	0	8105	534037	0	0
2024-07-17 20:52:47			0	38126	0	0	0	30412	29100	160168	26807	1058582	44955	111324	0	0	8107	532629	0	0
2024-07-17 20:53:47			0	38119	0	0	0	30405	29100	160016	26878	1058555	44955	111321	0	0	8107	532894	0	0
2024-07-17 20:54:47			0	38155	0	0	0	30384	29090	159876	26982	1058484	44943	111313	0	0	8109	531563	0	0
2024-07-17 20:55:47			0	38170	0	0	0	30363	29080	159840	27095	1058349	44918	111305	0	0	8110	531027	0	0
2024-07-17 20:56:47			0	38210	0	0	0	30350	29070	159772	26856	1058331	44929	111300	0	0	8113	529548	0	0
2024-07-17 20:57:47			0	38212	0	0	0	30358	29060	159740	26750	1058421	44939	111303	0	0	8113	529503	0	0
2024-07-17 20:58:47			0	38241	0	0	0	30379	29070	159668	27060	1058520	44952	111311	0	0	8114	528380	0	0
2024-07-17 20:59:47			0	38261	0	0	0	30392	29070	159608	27055	1058493	44973	111316	0	0	8115	527627	0	0
2024-07-17 21:00:47			0	38267	0	0	0	30402	29090	159612	27046	1058583	44976	111320	0	0	8115	527340	0	0
2024-07-17 21:01:47			0	38288	0	0	0	30402	29080	159532	27022	1058601	44964	111320	0	0	8116	526581	0	0
2024-07-17 21:02:47			0	38313	0	0	0	30405	29080	159472	27105	1058619	44953	111321	0	0	8118	525642	0	0
2024-07-17 21:03:47			0	38316	0	0	0	30436	29080	159440	26909	1058655	44964	111333	0	0	8118	525529	0	0
2024-07-17 21:04:47			0	38330	0	0	0	30449	29090	159392	27282	1058646	44976	111338	0	0	8118	524973	0	0
2024-07-17 21:05:47			0	38333	0	0	0	30436	29090	159256	26852	1058691	44955	111333	0	0	8119	524861	0	0
2024-07-17 21:06:47			0	38352	0	0	0	30418	29090	159288	26889	1058556	44955	111326	0	0	8120	524149	0	0
2024-07-17 21:07:47			0	38372	0	0	0	30431	29080	159216	27036	1058628	44964	111331	0	0	8121	523430	0	0
2024-07-17 21:08:47			0	38355	0	0	0	30454	29090	159196	26762	1058664	44976	111340	0	0	8119	524036	0	0
2024-07-17 21:09:47			0	38366	0	0	0	30475	29090	159088	27109	1058753	44988	111348	0	0	8120	523624	0	0
2024-07-17 21:10:47			0	38400	0	0	0	30485	29100	159028	26786	1058744	44955	111352	0	0	8122	522322	0	0
2024-07-17 21:11:47			0	38413	0	0	0	30485	29090	158992	26963	1058726	44965	111352	0	0	8122	521866	0	0
2024-07-17 21:12:47			0	38421	0	0	0	30493	29100	158880	26753	1058708	44965	111355	0	0	8123	521537	0	0
2024-07-17 21:13:47			0	38435	0	0	0	30496	29110	158800	26960	1058816	44967	111356	0	0	8123	520984	0	0
2024-07-17 21:14:47			0	38445	0	0	0	30490	29100	158752	27041	1058708	44976	111354	0	0	8124	520641	0	0
2024-07-17 21:15:47			0	38477	0	0	0	30485	29110	158788	26918	1058753	44956	111352	0	0	8126	519418	0	0
2024-07-17 21:16:47			0	38475	0	0	0	30483	29110	158608	26807	1058735	44967	111351	0	0	8126	519492	0	0
2024-07-17 21:17:47			0	38517	0	0	0	30483	29100	158448	26887	1058744	44966	111351	0	0	8128	517959	0	0
2024-07-17 21:18:47			0	38548	0	0	0	30488	29100	158436	27107	1058762	44955	111353	0	0	8130	516806	0	0
2024-07-17 21:19:47			0	38564	0	0	0	30490	29110	158388	27041	1058789	44967	111354	0	0	8131	516182	0	0
2024-07-17 21:20:47			0	38591	0	0	0	30501	29100	158284	26987	1058798	44966	111358	0	0	8132	515210	0	0
2024-07-17 21:21:47			0	38596	0	0	0	30498	29110	158268	27072	1058834	44990	111357	0	0	8133	514995	0	0
2024-07-17 21:22:47			0	38606	0	0	0	30509	29120	158172	27209	1058825	44978	111361	0	0	8133	514595	0	0
2024-07-17 21:23:47			0	38625	0	0	0	30522	29120	158116	27111	1058825	44967	111366	0	0	8134	513891	0	0
2024-07-17 21:24:47			0	38668	0	0	0	30519	29110	158060	26831	1058834	44956	111365	0	0	8136	512331	0	0
2024-07-17 21:25:47			0	38652	0	0	0	30509	29130	157964	26811	1058870	44980	111361	0	0	8136	512863	0	0
2024-07-17 21:26:47			0	38705	0	0	0	30498	29120	157868	27114	1058852	44967	111357	0	0	8139	510935	0	0
2024-07-17 21:27:47			0	38726	0	0	0	30503	29120	157817	27097	1058861	44968	111359	0	0	8140	510161	0	0
2024-07-17 21:28:47			0	38725	0	0	0	30501	29120	157764	27161	1058834	44979	111358	0	0	8140	510198	0	0
2024-07-17 21:29:47			0	38735	0	0	0	30519	29120	157725	26979	1058879	44967	111365	0	0	8140	509829	0	0
2024-07-17 21:30:47			0	38749	0	0	0	30522	29130	157649	26956	1058897	44969	111366	0	0	8141	509284	0	0
2024-07-17 21:31:47			0	38765	0	0	0	30522	29130	157669	27173	1058924	44969	111366	0	0	8142	508695	0	0
2024-07-17 21:32:47			0	38789	0	0	0	30529	29130	157469	26935	1058870	44969	111369	0	0	8143	507812	0	0
2024-07-17 21:33:47			0	38797	0	0	0	30532	29130	157469	26906	1058897	44980	111370	0	0	8144	507519	0	0
2024-07-17 21:34:47			0	38783	0	0	0	30532	29130	157593	27192	1058932	44980	111370	0	0	8143	508033	0	0
2024-07-17 21:35:47			0	38752	0	0	0	30527	29130	157689	26961	1058924	44980	111368	0	0	8141	509173	0	0
2024-07-17 21:36:47			0	38652	0	0	0	30537	29140	157996	27204	1058941	44980	111372	0	0	8135	512833	0	0
2024-07-17 21:37:47			0	38541	0	0	0	30537	29130	158612	26873	1058897	44980	111372	0	0	8129	516976	0	0
2024-07-17 21:38:47			0	38390	0	0	0	30537	29150	159084	26729	1059040	44982	111372	0	0	8120	522544	0	0
2024-07-17 21:39:47			0	38283	0	0	0	30545	29130	159584	26873	1058986	44980	111375	0	0	8114	526616	0	0
2024-07-17 21:40:47			0	38171	0	0	0	30550	29130	160084	27194	1059013	44958	111377	0	0	8108	530835	0	0
2024-07-17 21:41:47			0	38078	0	0	0	30542	29150	160424	27251	1058959	44994	111374	0	0	8102	534292	0	0
2024-07-17 21:42:47			0	38025	0	0	0	30542	29140	160623	27173	1058977	44981	111374	0	0	8099	536335	0	0
2024-07-17 21:43:47			0	37931	0	0	0	30540	29140	160887	26937	1059031	44981	111373	0	0	8094	539915	0	0
2024-07-17 21:44:47			0	37910	0	0	0	30545	29150	160987	26981	1059040	44982	111375	0	0	8093	540686	0	0
2024-07-17 21:45:47			0	37879	0	0	0	30542	29140	161147	26939	1058977	44981	111374	0	0	8091	541902	0	0
2024-07-17 21:46:47			0	37855	0	0	0	30545	29140	161179	27093	1058977	44981	111375	0	0	8090	542821	0	0
2024-07-17 21:47:47			0	37856	0	0	0	30537	29140	161215	27027	1058950	44981	111372	0	0	8090	542783	0	0
2024-07-17 21:48:47			0	37830	0	0	0	30540	29140	161307	27088	1058923	44970	111373	0	0	8088	543779	0	0
2024-07-17 21:49:47			0	37834	0	0	0	30542	29140	161339	27007	1058941	44980	111374	0	0	8088	543626	0	0
2024-07-17 21:50:47			0	37813	0	0	0	30527	29140	161475	26941	1058977	44981	111368	0	0	8087	544431	0	0
2024-07-17 21:51:47			0	37791	0	0	0	30535	29130	161483	26941	1058879	44980	111371	0	0	8086	545307	0	0
2024-07-17 21:52:47			0	37767	0	0	0	30535	29130	161539	26958	1058959	44958	111371	0	0	8085	546229	0	0
2024-07-17 21:53:47			0	37755	0	0	0	30532	29140	161455	26949	1058887	44980	111370	0	0	8084	546659	0	0
2024-07-17 21:54:47			0	37746	0	0	0	30527	29130	161595	26800	1058932	44969	111368	0	0	8084	547037	0	0
2024-07-17 21:55:47			0	37749	0	0	0	30527	29140	161591	26791	1058923	44993	111368	0	0	8084	546890	0	0
2024-07-17 21:56:47			0	37727	0	0	0	30532	29150	161699	26767	1058933	44994	111370	0	0	8082	547705	0	0
2024-07-17 21:57:47			0	37736	0	0	0	30532	29140	161659	26705	1058968	44980	111370	0	0	8083	547390	0	0
2024-07-17 21:58:47			0	37754	0	0	0	30524	29140	161619	26902	1058941	44980	111367	0	0	8084	546698	0	0
2024-07-17 21:59:47			0	37761	0	0	0	30516	29130	161607	27062	1058879	44980	111364	0	0	8085	546460	0	0
2024-07-17 22:00:47			0	37778	0	0	0	30522	29130	161475	26887	1058879	44980	111366	0	0	8085	545807	0	0
2024-07-17 22:01:47			0	37795	0	0	0	30514	29140	161427	26899	1058860	44969	111363	0	0	8087	545122	0	0
2024-07-17 22:02:47			0	37827	0	0	0	30514	29120	161227	27076	1058861	44979	111363	0	0	8088	543957	0	0
2024-07-17 22:03:47			0	37841	0	0	0	30503	29130	161183	26642	1058870	44980	111359	0	0	8089	543389	0	0
2024-07-17 22:04:47			0	37869	0	0	0	30503	29120	161063	26996	1058825	44990	111359	0	0	8091	542348	0	0
2024-07-17 22:05:47			0	37908	0	0	0	30503	29110	161027	26844	1058816	44990	111359	0	0	8093	540888	0	0
2024-07-17 22:06:47			0	37945	0	0	0	30503	29120	160735	27118	1058825	44978	111359	0	0	8095	539444	0	0
2024-07-17 22:07:47			0	37973	0	0	0	30509	29120	160715	26764	1058798	44967	111361	0	0	8097	538376	0	0
2024-07-17 22:08:47			0	38028	0	0	0	30501	29120	160459	27033	1058771	44978	111358	0	0	8100	536283	0	0
2024-07-17 22:09:47			0	38056	0	0	0	30496	29110	160268	27121	1058735	44990	111356	0	0	8102	535251	0	0
2024-07-17 22:10:47			0	38081	0	0	0	30506	29120	160196	26965	1058771	44990	111360	0	0	8103	534271	0	0
2024-07-17 22:11:47			0	38154	0	0	0	30503	29120	160044	27057	1058825	44967	111359	0	0	8107	531508	0	0
2024-07-17 22:12:47			0	38196	0	0	0	30506	29120	159780	26868	1058798	45000	111360	0	0	8110	529922	0	0
2024-07-17 22:13:47			0	38235	0	0	0	30503	29110	159604	26991	1058807	44978	111359	0	0	8112	528483	0	0
2024-07-17 22:14:47			0	38262	0	0	0	30506	29110	159516	27034	1058807	44978	111360	0	0	8113	527467	0	0
2024-07-17 22:15:47			0	38302	0	0	0	30498	29110	159372	27083	1058807	44978	111357	0	0	8116	525963	0	0
2024-07-17 22:16:47			0	38316	0	0	0	30498	29110	159300	27081	1058807	44990	111357	0	0	8117	525438	0	0
2024-07-17 22:17:47			0	38362	0	0	0	30503	29110	159180	26875	1058780	44967	111359	0	0	8119	523714	0	0
2024-07-17 22:18:47			0	38389	0	0	0	30498	29100	159008	27005	1058825	44989	111357	0	0	8121	522733	0	0
2024-07-17 22:19:47			0	38422	0	0	0	30496	29110	158936	27038	1058753	44967	111356	0	0	8123	521469	0	0
2024-07-17 22:20:47			0	38444	0	0	0	30496	29100	158752	26882	1058771	44989	111356	0	0	8124	520678	0	0
2024-07-17 22:21:47			0	38471	0	0	0	30498	29100	158656	26930	1058771	44977	111357	0	0	8125	519671	0	0
2024-07-17 22:22:47			0	38476	0	0	0	30501	29100	158616	27114	1058735	44976	111358	0	0	8126	519485	0	0
2024-07-17 22:23:47			0	38479	0	0	0	30493	29100	158448	27248	1058735	44976	111355	0	0	8126	519373	0	0
2024-07-17 22:24:47			0	38509	0	0	0	30490	29100	158400	26972	1058717	44977	111354	0	0	8128	518256	0	0
2024-07-17 22:25:47			0	38526	0	0	0	30493	29100	158376	26686	1058690	44977	111355	0	0	8129	517624	0	0
2024-07-17 22:26:47			0	38551	0	0	0	30490	29090	158276	26901	1058726	44976	111354	0	0	8130	516725	0	0
2024-07-17 22:27:47			0	38558	0	0	0	30488	29100	158276	26791	1058762	44976	111353	0	0	8131	516435	0	0
2024-07-17 22:28:47			0	38591	0	0	0	30485	29100	158316	26863	1058798	44977	111352	0	0	8132	515210	0	0
2024-07-17 22:29:47			0	38599	0	0	0	30477	29090	158072	26932	1058699	44976	111349	0	0	8133	514944	0	0
2024-07-17 22:30:47			0	38623	0	0	0	30477	29090	158140	26696	1058726	44976	111349	0	0	8134	514055	0	0
2024-07-17 22:31:47			0	38617	0	0	0	30477	29090	158004	26712	1058691	44965	111349	0	0	8134	514277	0	0
2024-07-17 22:32:47			0	38645	0	0	0	30464	29080	157948	26837	1058601	44975	111344	0	0	8136	513270	0	0
2024-07-17 22:33:47			0	38675	0	0	0	30454	29080	157804	26790	1058601	44975	111340	0	0	8138	512161	0	0
2024-07-17 22:34:47			0	38674	0	0	0	30459	29080	157760	26963	1058619	44974	111342	0	0	8138	512198	0	0
2024-07-17 22:35:47			0	38705	0	0	0	30459	29070	157768	27137	1058583	44973	111342	0	0	8139	511083	0	0
2024-07-17 22:36:47			0	38716	0	0	0	30454	29070	157676	27272	1058628	44973	111340	0	0	8140	510677	0	0
2024-07-17 22:37:47			0	38727	0	0	0	30444	29080	157689	26982	1058565	44974	111336	0	0	8141	510242	0	0
2024-07-17 22:38:47			0	38747	0	0	0	30436	29080	157617	26986	1058565	44963	111333	0	0	8142	509505	0	0
2024-07-17 22:39:47			0	38752	0	0	0	30449	29060	157605	26934	1058484	44973	111338	0	0	8142	509380	0	0
2024-07-17 22:40:47			0	38754	0	0	0	30441	29060	157521	26989	1058529	44984	111335	0	0	8142	509307	0	0
2024-07-17 22:41:47			0	38767	0	0	0	30436	29050	157457	26955	1058520	44971	111333	0	0	8143	508858	0	0
2024-07-17 22:42:47			0	38779	0	0	0	30436	29060	157429	26873	1058565	44973	111333	0	0	8144	508387	0	0
2024-07-17 22:43:47			0	38787	0	0	0	30433	29050	157453	27008	1058493	44971	111332	0	0	8144	508122	0	0
2024-07-17 22:44:47			0	38802	0	0	0	30436	29050	157249	26922	1058493	44971	111333	0	0	8145	507571	0	0
2024-07-17 22:45:47			0	38818	0	0	0	30438	29050	157297	27079	1058466	44971	111334	0	0	8146	506983	0	0
2024-07-17 22:46:47			0	38841	0	0	0	30431	29050	157293	26816	1058493	44971	111331	0	0	8147	506138	0	0
2024-07-17 22:47:47			0	38846	0	0	0	30433	29050	157161	26873	1058458	44971	111332	0	0	8148	505955	0	0
2024-07-17 22:48:47			0	38871	0	0	0	30438	29050	157065	26746	1058493	44983	111334	0	0	8149	505039	0	0
2024-07-17 22:49:47			0	38868	0	0	0	30431	29040	156997	27201	1058467	44971	111331	0	0	8149	505178	0	0
2024-07-17 22:50:47			0	38885	0	0	0	30438	29040	156865	27069	1058476	44983	111334	0	0	8150	504555	0	0
2024-07-17 22:51:47			0	38908	0	0	0	30433	29060	156905	27008	1058502	44984	111332	0	0	8151	503655	0	0
2024-07-17 22:52:47			0	38925	0	0	0	30431	29040	156781	26993	1058503	44983	111331	0	0	8152	503092	0	0
2024-07-17 22:53:47			0	38961	0	0	0	30428	29050	156813	27076	1058485	44983	111330	0	0	8154	501748	0	0
2024-07-17 22:54:47			0	38984	0	0	0	30431	29040	156613	26937	1058422	44960	111331	0	0	8155	500938	0	0
2024-07-17 22:55:47			0	38999	0	0	0	30423	29040	156533	27222	1058413	44971	111328	0	0	8156	500391	0	0
2024-07-17 22:56:47			0	39027	0	0	0	30423	29040	156461	26960	1058467	44971	111328	0	0	8158	499371	0	0
2024-07-17 22:57:47			0	39042	0	0	0	30423	29040	156365	27027	1058449	44983	111328	0	0	8159	498826	0	0
2024-07-17 22:58:47			0	39062	0	0	0	30425	29040	156325	26731	1058413	44971	111329	0	0	8160	498098	0	0
2024-07-17 22:59:47			0	39111	0	0	0	30420	29040	156145	27045	1058440	44959	111327	0	0	8163	496320	0	0
2024-07-17 23:00:47			0	39135	0	0	0	30423	29030	156053	27211	1058422	44981	111328	0	0	8164	495479	0	0
2024-07-17 23:01:47			0	39147	0	0	0	30420	29040	156045	26795	1058467	44971	111327	0	0	8165	495015	0	0
2024-07-17 23:02:47			0	39166	0	0	0	30423	29030	155985	27078	1058458	44992	111328	0	0	8166	494356	0	0
2024-07-17 23:03:47			0	39209	0	0	0	30425	29040	155793	26982	1058449	44983	111329	0	0	8168	492773	0	0
2024-07-17 23:04:47			0	39221	0	0	0	30428	29040	155869	27067	1058494	44982	111330	0	0	8169	492340	0	0
2024-07-17 23:05:47			0	39235	0	0	0	30428	29040	155717	26991	1058413	44982	111330	0	0	8170	491835	0	0
2024-07-17 23:06:47			0	39247	0	0	0	30431	29030	155725	26849	1058458	44970	111331	0	0	8170	491431	0	0
2024-07-17 23:07:47			0	39258	0	0	0	30431	29030	155617	27490	1058404	44981	111331	0	0	8171	491034	0	0
2024-07-17 23:08:47			0	39299	0	0	0	30428	29020	155457	27078	1058359	44981	111330	0	0	8173	489586	0	0
2024-07-17 23:09:47			0	39297	0	0	0	30425	29040	155529	27144	1058413	44971	111329	0	0	8173	489602	0	0
2024-07-17 23:10:47			0	39325	0	0	0	30423	29030	155385	27046	1058431	44970	111328	0	0	8175	488623	0	0
2024-07-17 23:11:47			0	39344	0	0	0	30412	29040	155321	26942	1058413	44959	111324	0	0	8176	487912	0	0
2024-07-17 23:12:47			0	39346	0	0	0	30415	29030	155333	26785	1058341	44981	111325	0	0	8176	487869	0	0
2024-07-17 23:13:47			0	39355	0	0	0	30405	29030	155241	26682	1058404	44970	111321	0	0	8177	487546	0	0
2024-07-17 23:14:47			0	39364	0	0	0	30412	29020	155201	27294	1058359	44970	111324	0	0	8177	487251	0	0
2024-07-17 23:15:47			0	39381	0	0	0	30410	29020	155125	27109	1058323	44980	111323	0	0	8178	486641	0	0
2024-07-17 23:16:47			0	39392	0	0	0	30407	29020	155185	26864	1058332	44970	111322	0	0	8179	486247	0	0
2024-07-17 23:17:47			0	39398	0	0	0	30405	29020	155017	26984	1058323	44991	111321	0	0	8179	486032	0	0
2024-07-17 23:18:47			0	39394	0	0	0	30402	29010	155113	26958	1058368	44979	111320	0	0	8179	486204	0	0
2024-07-17 23:19:47			0	39421	0	0	0	30402	29020	154998	27180	1058332	44981	111320	0	0	8181	485209	0	0
2024-07-17 23:20:47			0	39412	0	0	0	30399	29010	155041	26923	1058314	44968	111319	0	0	8180	485559	0	0
2024-07-17 23:21:47			0	39423	0	0	0	30402	29020	154946	27050	1058278	44992	111320	0	0	8181	485137	0	0
2024-07-17 23:22:47			0	39433	0	0	0	30397	29010	154914	27059	1058278	44967	111318	0	0	8181	484807	0	0
2024-07-17 23:23:47			0	39451	0	0	0	30392	29010	154738	27001	1058251	44978	111316	0	0	8182	484164	0	0
2024-07-17 23:24:47			0	39459	0	0	0	30389	29000	154866	27204	1058215	44978	111315	0	0	8183	483906	0	0
2024-07-17 23:25:47			0	39448	0	0	0	30384	29000	154866	26856	1058269	44978	111313	0	0	8182	484299	0	0
2024-07-17 23:26:47			0	39479	0	0	0	30368	29000	154830	26854	1058233	44978	111307	0	0	8184	483191	0	0
2024-07-17 23:27:47			0	39468	0	0	0	30371	28990	154750	27102	1058144	44955	111308	0	0	8184	483612	0	0
2024-07-17 23:28:47			0	39471	0	0	0	30366	29000	154710	27052	1058207	44967	111306	0	0	8184	483477	0	0
2024-07-17 23:29:47			0	39477	0	0	0	30366	28980	154794	27034	1058090	44965	111306	0	0	8184	483319	0	0
2024-07-17 23:30:47			0	39518	0	0	0	30363	28990	154726	26635	1058162	44965	111305	0	0	8187	481828	0	0
2024-07-17 23:31:47			0	39493	0	0	0	30376	28980	154718	26873	1058180	44965	111310	0	0	8185	482748	0	0
2024-07-17 23:32:47			0	39491	0	0	0	30358	28980	154714	27072	1058180	44976	111303	0	0	8185	482819	0	0
2024-07-17 23:33:47			0	39481	0	0	0	30353	28980	154734	26984	1058171	44976	111301	0	0	8185	483176	0	0
2024-07-17 23:34:47			0	39494	0	0	0	30361	28970	154794	27019	1058135	44975	111304	0	0	8185	482740	0	0
2024-07-17 23:35:47			0	39485	0	0	0	30363	28970	154686	26788	1058108	44987	111305	0	0	8185	483061	0	0
2024-07-17 23:36:47			0	39450	0	0	0	30368	28980	154738	27118	1058198	44976	111307	0	0	8183	484284	0	0
2024-07-17 23:37:47			0	39476	0	0	0	30371	28980	154782	26814	1058180	44988	111308	0	0	8184	483355	0	0
2024-07-17 23:38:47			0	39467	0	0	0	30366	28970	154826	27189	1058081	44987	111306	0	0	8184	483704	0	0
2024-07-17 23:39:47			0	39459	0	0	0	30361	28980	154958	26946	1058126	44976	111304	0	0	8183	483962	0	0
2024-07-17 23:40:47			0	39482	0	0	0	30366	28980	154746	26981	1058117	44976	111306	0	0	8185	483140	0	0
2024-07-17 23:41:47			0	39493	0	0	0	30363	28980	154746	27107	1058126	44965	111305	0	0	8185	482748	0	0
2024-07-17 23:42:47			0	39507	0	0	0	30353	28970	154582	27020	1058153	44974	111301	0	0	8186	482276	0	0
2024-07-17 23:43:47			0	39523	0	0	0	30345	28970	154618	26876	1058135	44987	111298	0	0	8187	481706	0	0
2024-07-17 23:44:47			0	39528	0	0	0	30353	28970	154710	26771	1058072	44986	111301	0	0	8187	481527	0	0
2024-07-17 23:45:47			0	39521	0	0	0	30348	28960	154622	26975	1058063	44986	111299	0	0	8187	481805	0	0
2024-07-17 23:46:47			0	39528	0	0	0	30340	28950	154498	26670	1058135	44974	111296	0	0	8187	481583	0	0
2024-07-17 23:47:47			0	39541	0	0	0	30335	28960	154466	26901	1058063	44986	111294	0	0	8188	481092	0	0
2024-07-17 23:48:47			0	39541	0	0	0	30340	28950	154530	26965	1058055	44986	111296	0	0	8188	481120	0	0
2024-07-17 23:49:47			0	39536	0	0	0	30337	28950	154474	26852	1058001	44986	111295	0	0	8188	481298	0	0
2024-07-17 23:50:47			0	39527	0	0	0	30335	28950	154498	27072	1058001	44986	111294	0	0	8187	481619	0	0
2024-07-17 23:51:47			0	39534	0	0	0	30329	28950	154490	26944	1057992	44973	111292	0	0	8188	481369	0	0
2024-07-17 23:52:47			0	39529	0	0	0	30327	28950	154502	26753	1057992	44996	111291	0	0	8188	481548	0	0
2024-07-17 23:53:47			0	39522	0	0	0	30329	28940	154522	26694	1057929	44972	111292	0	0	8187	481825	0	0
2024-07-17 23:54:47			0	39526	0	0	0	30319	28950	154582	26634	1057911	44985	111288	0	0	8188	481655	0	0
2024-07-17 23:55:47			0	39517	0	0	0	30322	28930	154666	26715	1057983	44960	111289	0	0	8187	482031	0	0
2024-07-17 23:56:47			0	39516	0	0	0	30316	28930	154710	26554	1057902	44960	111287	0	0	8187	482067	0	0
2024-07-17 23:57:47			0	39513	0	0	0	30319	28930	154630	26942	1057848	44971	111288	0	0	8187	482174	0	0
2024-07-17 23:58:47			0	39486	0	0	0	30322	28930	154718	26769	1057911	44971	111289	0	0	8185	483138	0	0
2024-07-17 23:59:47			0	39486	0	0	0	30316	28920	154778	26687	1057866	44970	111287	0	0	8185	483166	0	0
2024-07-18 00:00:47			0	39488	0	0	0	30311	28930	154730	27012	1057875	44949	111285	0	0	8186	483066	0	0
2024-07-18 00:01:47			0	39460	0	0	0	30309	28930	154806	26963	1057848	44983	111284	0	0	8184	484067	0	0
2024-07-18 00:02:47			0	39459	0	0	0	30306	28920	154914	27170	1057857	44958	111283	0	0	8184	484131	0	0
2024-07-18 00:03:47			0	39440	0	0	0	30311	28910	154906	27102	1057876	44969	111285	0	0	8183	484838	0	0
2024-07-18 00:04:47			0	39429	0	0	0	30301	28920	154966	26968	1057884	44958	111281	0	0	8182	485204	0	0
2024-07-18 00:05:47			0	39448	0	0	0	30290	28910	154902	27332	1057768	44981	111277	0	0	8184	484552	0	0
2024-07-18 00:06:47			0	39449	0	0	0	30293	28910	154842	26961	1057840	44969	111278	0	0	8184	484516	0	0
2024-07-18 00:07:47			0	39447	0	0	0	30290	28910	154810	26876	1057867	44981	111277	0	0	8184	484588	0	0
2024-07-18 00:08:47			0	39465	0	0	0	30293	28910	154810	27069	1057822	44981	111278	0	0	8184	483944	0	0
2024-07-18 00:09:47			0	39469	0	0	0	30283	28910	154846	26923	1057903	44969	111274	0	0	8185	483801	0	0
2024-07-18 00:10:47			0	39459	0	0	0	30285	28900	154798	27196	1057831	44968	111275	0	0	8184	484187	0	0
2024-07-18 00:11:47			0	39466	0	0	0	30296	28910	154818	27007	1057813	44981	111279	0	0	8184	483908	0	0
2024-07-18 00:12:47			0	39463	0	0	0	30288	28900	154846	27029	1057768	44957	111276	0	0	8184	484044	0	0
2024-07-18 00:13:47			0	39456	0	0	0	30285	28890	154930	26911	1057750	44979	111275	0	0	8184	484322	0	0
2024-07-18 00:14:47			0	39403	0	0	0	30272	28890	155049	27048	1057705	44946	111270	0	0	8181	486220	0	0
2024-07-18 00:15:47			0	39409	0	0	0	30264	28890	155089	26817	1057705	44957	111267	0	0	8182	486005	0	0
2024-07-18 00:16:47			0	39387	0	0	0	30262	28880	155081	26987	1057660	44956	111266	0	0	8180	486822	0	0
2024-07-18 00:17:47			0	39380	0	0	0	30254	28880	155149	26960	1057651	44955	111263	0	0	8180	487073	0	0
2024-07-18 00:18:47			0	39380	0	0	0	30249	28870	155209	26739	1057615	44966	111261	0	0	8180	487101	0	0
2024-07-18 00:19:47			0	39357	0	0	0	30244	28870	155245	27199	1057579	44965	111259	0	0	8179	487927	0	0
2024-07-18 00:20:47			0	39352	0	0	0	30244	28860	155353	27045	1057534	44964	111259	0	0	8179	488135	0	0
2024-07-18 00:21:47			0	39342	0	0	0	30238	28860	155373	26906	1057597	44965	111257	0	0	8178	488494	0	0
2024-07-18 00:22:47			0	39288	0	0	0	30236	28870	155565	27024	1057525	44965	111256	0	0	8175	490409	0	0
2024-07-18 00:23:47			0	39294	0	0	0	30233	28860	155565	27000	1057597	44965	111255	0	0	8176	490221	0	0
2024-07-18 00:24:47			0	39279	0	0	0	30225	28850	155621	27029	1057499	44963	111252	0	0	8175	490790	0	0
2024-07-18 00:25:47			0	39234	0	0	0	30223	28850	155689	27020	1057463	44941	111251	0	0	8172	492413	0	0
2024-07-18 00:26:47			0	39218	0	0	0	30220	28850	155825	26859	1057445	44963	111250	0	0	8171	492991	0	0
2024-07-18 00:27:47			0	39181	0	0	0	30225	28840	155917	27050	1057454	44963	111252	0	0	8169	494358	0	0
2024-07-18 00:28:47			0	39166	0	0	0	30220	28840	156125	27008	1057400	44974	111250	0	0	8168	494901	0	0
2024-07-18 00:29:47			0	39148	0	0	0	30218	28840	156093	26791	1057418	44962	111249	0	0	8167	495554	0	0
2024-07-18 00:30:47			0	39127	0	0	0	30220	28840	156149	26913	1057445	44962	111250	0	0	8166	496315	0	0
2024-07-18 00:31:47			0	39115	0	0	0	30220	28830	156241	26970	1057382	44950	111250	0	0	8166	496779	0	0
2024-07-18 00:32:47			0	39085	0	0	0	30210	28840	156313	27041	1057400	44963	111246	0	0	8164	497840	0	0
2024-07-18 00:33:47			0	39058	0	0	0	30197	28820	156449	27145	1057364	44950	111241	0	0	8163	498880	0	0
2024-07-18 00:34:47			0	39046	0	0	0	30205	28830	156501	26974	1057292	44972	111244	0	0	8162	499288	0	0
2024-07-18 00:35:47			0	39022	0	0	0	30205	28830	156569	26745	1057355	44961	111244	0	0	8160	500162	0	0
2024-07-18 00:36:47			0	39027	0	0	0	30199	28820	156597	26994	1057310	44972	111242	0	0	8161	500009	0	0
2024-07-18 00:37:47			0	39028	0	0	0	30199	28820	156597	26979	1057310	44961	111242	0	0	8161	499972	0	0
2024-07-18 00:38:47			0	39030	0	0	0	30192	28810	156713	26897	1057320	44970	111239	0	0	8161	499929	0	0
2024-07-18 00:39:47			0	39015	0	0	0	30181	28810	156705	26859	1057176	44959	111235	0	0	8160	500475	0	0
2024-07-18 00:40:47			0	39000	0	0	0	30171	28800	156689	26563	1057167	44947	111231	0	0	8160	501051	0	0
2024-07-18 00:41:47			0	39013	0	0	0	30163	28800	156693	26892	1057158	44969	111228	0	0	8161	500577	0	0
2024-07-18 00:42:47			0	38995	0	0	0	30150	28790	156693	26951	1057149	44947	111223	0	0	8160	501263	0	0
2024-07-18 00:43:47			0	39009	0	0	0	30158	28780	156793	26696	1057078	44957	111226	0	0	8160	500781	0	0
2024-07-18 00:44:47			0	38987	0	0	0	30148	28780	156785	27215	1057105	44957	111222	0	0	8159	501584	0	0
2024-07-18 00:45:47			0	38982	0	0	0	30145	28780	156901	26941	1057105	44967	111221	0	0	8159	501767	0	0
2024-07-18 00:46:47			0	38947	0	0	0	30150	28770	156869	26651	1057087	44966	111223	0	0	8157	503075	0	0
2024-07-18 00:47:47			0	38925	0	0	0	30142	28770	157033	26694	1057087	44933	111220	0	0	8156	503880	0	0
2024-07-18 00:48:47			0	38889	0	0	0	30140	28770	157161	26824	1057060	44966	111219	0	0	8154	505199	0	0
2024-07-18 00:49:47			0	38881	0	0	0	30140	28770	157185	26830	1057078	44955	111219	0	0	8153	505492	0	0
2024-07-18 00:50:47			0	38866	0	0	0	30142	28760	157365	26648	1057042	44955	111220	0	0	8152	506072	0	0
2024-07-18 00:51:47			0	38866	0	0	0	30137	28760	157365	26951	1056988	44955	111218	0	0	8152	506072	0	0
2024-07-18 00:52:47			0	38845	0	0	0	30135	28750	157497	27140	1057051	44954	111217	0	0	8151	506873	0	0
2024-07-18 00:53:47			0	38833	0	0	0	30132	28750	157397	26916	1056934	44953	111216	0	0	8151	507314	0	0
2024-07-18 00:54:47			0	38824	0	0	0	30124	28750	157465	26965	1056934	44953	111213	0	0	8150	507645	0	0
2024-07-18 00:55:47			0	38810	0	0	0	30116	28750	157441	27033	1056934	44953	111210	0	0	8150	508160	0	0
2024-07-18 00:56:47			0	38794	0	0	0	30119	28740	157445	26781	1056925	44964	111211	0	0	8149	508778	0	0
2024-07-18 00:57:47			0	38794	0	0	0	30114	28750	157541	26743	1056907	44964	111209	0	0	8149	508749	0	0
2024-07-18 00:58:47			0	38791	0	0	0	30111	28740	157505	26951	1056943	44941	111208	0	0	8149	508889	0	0
2024-07-18 00:59:47			0	38788	0	0	0	30109	28730	157493	26961	1056854	44952	111207	0	0	8148	509029	0	0
2024-07-18 01:00:47			0	38804	0	0	0	30109	28740	157525	26939	1056890	44963	111207	0	0	8149	508410	0	0
2024-07-18 01:01:47			0	38786	0	0	0	30103	28730	157525	26504	1056908	44963	111205	0	0	8148	509102	0	0
2024-07-18 01:02:47			0	38798	0	0	0	30106	28740	157469	27026	1056809	44941	111206	0	0	8149	508631	0	0
2024-07-18 01:03:47			0	38799	0	0	0	30101	28730	157469	26791	1056899	44962	111204	0	0	8149	508624	0	0
2024-07-18 01:04:47			0	38796	0	0	0	30103	28730	157565	26713	1056899	44962	111205	0	0	8149	508734	0	0
2024-07-18 01:05:47			0	38815	0	0	0	30103	28720	157493	27105	1056854	44939	111205	0	0	8150	508064	0	0
2024-07-18 01:06:47			0	38796	0	0	0	30098	28710	157529	27045	1056791	44961	111203	0	0	8149	508793	0	0
2024-07-18 01:07:47			0	38803	0	0	0	30093	28720	157569	26724	1056827	44961	111201	0	0	8149	508506	0	0
2024-07-18 01:08:47			0	38794	0	0	0	30101	28720	157525	26653	1056908	44939	111204	0	0	8149	508837	0	0
2024-07-18 01:09:47			0	38795	0	0	0	30103	28720	157545	26670	1056827	44972	111205	0	0	8149	508800	0	0
2024-07-18 01:10:47			0	38797	0	0	0	30096	28710	157549	26811	1056809	44971	111202	0	0	8149	508756	0	0
2024-07-18 01:11:47			0	38815	0	0	0	30085	28710	157577	26941	1056782	44960	111198	0	0	8150	508094	0	0
2024-07-18 01:12:47			0	38795	0	0	0	30083	28720	157597	26797	1056773	44961	111197	0	0	8149	508800	0	0
2024-07-18 01:13:47			0	38805	0	0	0	30085	28720	157609	26939	1056746	44972	111198	0	0	8150	508432	0	0
2024-07-18 01:14:47			0	38815	0	0	0	30093	28710	157545	26649	1056809	44971	111201	0	0	8150	508094	0	0
2024-07-18 01:15:47			0	38797	0	0	0	30083	28700	157485	27033	1056711	44959	111197	0	0	8149	508786	0	0
2024-07-18 01:16:47			0	38806	0	0	0	30080	28700	157417	27027	1056773	44971	111196	0	0	8150	508454	0	0
2024-07-18 01:17:47			0	38834	0	0	0	30072	28700	157397	26928	1056666	44949	111193	0	0	8151	507424	0	0
2024-07-18 01:18:47			0	38813	0	0	0	30072	28700	157373	27093	1056720	44949	111193	0	0	8150	508197	0	0
2024-07-18 01:19:47			0	38832	0	0	0	30077	28690	157441	26824	1056720	44947	111195	0	0	8151	507527	0	0
2024-07-18 01:20:47			0	38830	0	0	0	30059	28690	157409	26805	1056702	44948	111188	0	0	8151	507600	0	0
2024-07-18 01:21:47			0	38829	0	0	0	30067	28690	157453	26649	1056675	44948	111191	0	0	8151	507637	0	0
2024-07-18 01:22:47			0	38837	0	0	0	30075	28690	157497	26700	1056612	44947	111194	0	0	8152	507343	0	0
2024-07-18 01:23:47			0	38843	0	0	0	30064	28690	157457	27137	1056666	44958	111190	0	0	8152	507122	0	0
2024-07-18 01:24:47			0	38855	0	0	0	30064	28680	157393	26797	1056675	44958	111190	0	0	8153	506711	0	0
2024-07-18 01:25:47			0	38839	0	0	0	30057	28680	157445	26970	1056648	44958	111187	0	0	8152	507299	0	0
2024-07-18 01:26:47			0	38847	0	0	0	30049	28680	157445	26733	1056540	44958	111184	0	0	8152	507005	0	0
2024-07-18 01:27:47			0	38846	0	0	0	30051	28670	157509	27147	1056558	44957	111185	0	0	8152	507071	0	0
2024-07-18 01:28:47			0	38861	0	0	0	30049	28670	157425	26911	1056666	44957	111184	0	0	8153	506520	0	0
2024-07-18 01:29:47			0	38868	0	0	0	30046	28660	157421	26783	1056577	44957	111183	0	0	8154	506292	0	0
2024-07-18 01:30:47			0	38850	0	0	0	30049	28660	157313	26939	1056541	44966	111184	0	0	8153	506953	0	0
2024-07-18 01:31:47			0	38884	0	0	0	30051	28660	157465	26837	1056577	44967	111185	0	0	8154	505704	0	0
2024-07-18 01:32:47			0	38863	0	0	0	30051	28660	157333	27015	1056577	44957	111185	0	0	8153	506476	0	0
2024-07-18 01:33:47			0	38868	0	0	0	30046	28660	157345	26802	1056541	44956	111183	0	0	8154	506292	0	0
2024-07-18 01:34:47			0	38863	0	0	0	30049	28660	157421	26816	1056550	44945	111184	0	0	8153	506476	0	0
2024-07-18 01:35:47			0	38855	0	0	0	30046	28660	157413	26911	1056541	44944	111183	0	0	8153	506770	0	0
2024-07-18 01:36:47			0	38884	0	0	0	30054	28660	157393	27039	1056577	44957	111186	0	0	8154	505704	0	0
2024-07-18 01:37:47			0	38862	0	0	0	30051	28660	157325	26720	1056577	44945	111185	0	0	8153	506512	0	0
2024-07-18 01:38:47			0	38864	0	0	0	30049	28650	157381	26909	1056505	44944	111184	0	0	8153	506468	0	0
2024-07-18 01:39:47			0	38853	0	0	0	30044	28650	157429	26916	1056478	44944	111182	0	0	8153	506872	0	0
2024-07-18 01:40:47			0	38864	0	0	0	30033	28660	157257	27123	1056514	44944	111178	0	0	8154	506439	0	0
2024-07-18 01:41:47			0	38871	0	0	0	30044	28650	157305	26873	1056478	44956	111182	0	0	8154	506211	0	0
2024-07-18 01:42:47			0	38899	0	0	0	30036	28640	157145	26989	1056514	44943	111179	0	0	8155	505213	0	0
2024-07-18 01:43:47			0	38910	0	0	0	30041	28650	157225	27050	1056496	44965	111181	0	0	8156	504780	0	0
2024-07-18 01:44:47			0	38911	0	0	0	30036	28640	157189	27052	1056406	44955	111179	0	0	8156	504773	0	0
2024-07-18 01:45:47			0	38916	0	0	0	30036	28640	157205	26873	1056433	44965	111179	0	0	8156	504589	0	0
2024-07-18 01:46:47			0	38933	0	0	0	30025	28640	157181	26837	1056460	44955	111175	0	0	8158	503966	0	0
2024-07-18 01:47:47			0	38920	0	0	0	30018	28630	157101	26984	1056388	44942	111172	0	0	8157	504472	0	0
2024-07-18 01:48:47			0	38925	0	0	0	30023	28640	157049	26870	1056370	44954	111174	0	0	8157	504260	0	0
2024-07-18 01:49:47			0	38956	0	0	0	30012	28620	157073	26932	1056397	44952	111170	0	0	8159	503183	0	0
2024-07-18 01:50:47			0	38963	0	0	0	30018	28630	157041	26778	1056379	44953	111172	0	0	8159	502897	0	0
2024-07-18 01:51:47			0	38984	0	0	0	30018	28620	156973	26703	1056397	44952	111172	0	0	8161	502159	0	0
2024-07-18 01:52:47			0	38981	0	0	0	30007	28630	156937	27203	1056379	44953	111168	0	0	8161	502239	0	0
2024-07-18 01:53:47			0	38995	0	0	0	30005	28620	156917	26746	1056370	44941	111167	0	0	8161	501757	0	0
2024-07-18 01:54:47			0	38987	0	0	0	30005	28610	156869	27074	1056245	44952	111167	0	0	8161	502078	0	0
2024-07-18 01:55:47			0	38991	0	0	0	29999	28610	156877	26941	1056290	44951	111165	0	0	8161	501932	0	0
2024-07-18 01:56:47			0	39003	0	0	0	29986	28610	156853	27133	1056218	44962	111160	0	0	8162	501493	0	0
2024-07-18 01:57:47			0	39011	0	0	0	29992	28600	156809	26830	1056200	44950	111162	0	0	8162	501230	0	0
2024-07-18 01:58:47			0	39021	0	0	0	29984	28610	156757	26738	1056155	44961	111159	0	0	8163	500836	0	0
2024-07-18 01:59:47			0	39025	0	0	0	29984	28600	156717	27050	1056272	44950	111159	0	0	8163	500719	0	0
2024-07-18 02:00:47			0	39039	0	0	0	29976	28590	156705	26920	1056120	44938	111156	0	0	8164	500238	0	0
2024-07-18 02:01:47			0	39047	0	0	0	29979	28590	156717	26939	1056174	44949	111157	0	0	8165	499946	0	0
2024-07-18 02:02:47			0	39078	0	0	0	29971	28590	156553	27048	1056120	44959	111154	0	0	8167	498816	0	0
2024-07-18 02:03:47			0	39084	0	0	0	29971	28580	156613	27152	1056111	44948	111154	0	0	8167	498627	0	0
2024-07-18 02:04:47			0	39096	0	0	0	29966	28580	156597	26968	1056084	44948	111152	0	0	8168	498190	0	0
2024-07-18 02:05:47			0	39100	0	0	0	29966	28580	156417	26689	1056084	44948	111152	0	0	8168	498045	0	0
2024-07-18 02:06:47			0	39122	0	0	0	29955	28570	156437	26805	1056039	44958	111148	0	0	8169	497273	0	0
2024-07-18 02:07:47			0	39115	0	0	0	29961	28570	156513	26823	1056093	44936	111150	0	0	8169	497528	0	0
2024-07-18 02:08:47			0	39123	0	0	0	29955	28560	156377	26583	1056048	44958	111148	0	0	8169	497266	0	0
2024-07-18 02:09:47			0	39128	0	0	0	29950	28570	156453	26958	1056003	44947	111146	0	0	8170	497056	0	0
2024-07-18 02:10:47			0	39152	0	0	0	29950	28560	156413	26734	1056039	44957	111146	0	0	8171	496213	0	0
2024-07-18 02:11:47			0	39137	0	0	0	29958	28560	156465	27076	1055986	44934	111149	0	0	8170	496757	0	0
2024-07-18 02:12:47			0	39144	0	0	0	29950	28560	156329	26649	1056012	44945	111146	0	0	8171	496503	0	0
2024-07-18 02:13:47			0	39137	0	0	0	29945	28570	156333	26915	1055976	44958	111144	0	0	8170	496728	0	0
2024-07-18 02:14:47			0	39151	0	0	0	29937	28550	156461	27194	1055950	44945	111141	0	0	8171	496278	0	0
2024-07-18 02:15:47			0	39159	0	0	0	29940	28550	156333	26804	1055950	44934	111142	0	0	8171	495987	0	0
2024-07-18 02:16:47			0	39175	0	0	0	29940	28550	156313	26724	1055950	44945	111142	0	0	8172	495407	0	0
2024-07-18 02:17:47			0	39180	0	0	0	29935	28550	156297	26734	1055887	44945	111140	0	0	8173	495225	0	0
2024-07-18 02:18:47			0	39190	0	0	0	29937	28550	156197	26849	1055968	44957	111141	0	0	8173	494863	0	0
2024-07-18 02:19:47			0	39201	0	0	0	29929	28540	156241	26896	1055869	44955	111138	0	0	8174	494493	0	0
2024-07-18 02:20:47			0	39190	0	0	0	29935	28540	156177	27149	1055905	44944	111140	0	0	8173	494892	0	0
2024-07-18 02:21:47			0	39210	0	0	0	29924	28550	156333	27263	1055941	44945	111136	0	0	8175	494138	0	0
2024-07-18 02:22:47			0	39212	0	0	0	29940	28540	156221	27239	1056013	44944	111142	0	0	8174	494094	0	0
2024-07-18 02:23:47			0	39232	0	0	0	29927	28540	156193	26771	1055878	44956	111137	0	0	8176	493371	0	0
2024-07-18 02:24:47			0	39215	0	0	0	29927	28540	156069	26760	1055959	44944	111137	0	0	8175	493986	0	0
2024-07-18 02:25:47			0	39256	0	0	0	29929	28540	156133	27000	1055905	44944	111138	0	0	8177	492503	0	0
2024-07-18 02:26:47			0	39216	0	0	0	29929	28540	156077	26795	1055878	44944	111138	0	0	8175	493950	0	0
2024-07-18 02:27:47			0	39250	0	0	0	29919	28540	156057	26852	1055896	44943	111134	0	0	8177	492720	0	0
2024-07-18 02:28:47			0	39247	0	0	0	29922	28540	156077	27433	1055932	44944	111135	0	0	8177	492828	0	0
2024-07-18 02:29:47			0	39267	0	0	0	29924	28540	155953	26691	1055869	44943	111136	0	0	8178	492105	0	0
2024-07-18 02:30:47			0	39262	0	0	0	29929	28540	155901	26880	1055896	44943	111138	0	0	8177	492286	0	0
2024-07-18 02:31:47			0	39276	0	0	0	29924	28530	155961	27067	1055887	44955	111136	0	0	8178	491809	0	0
2024-07-18 02:32:47			0	39282	0	0	0	29916	28530	155853	26944	1055887	44943	111133	0	0	8179	491592	0	0
2024-07-18 02:33:47			0	39284	0	0	0	29922	28540	155953	26899	1055878	44944	111135	0	0	8179	491491	0	0
2024-07-18 02:34:47			0	39279	0	0	0	29922	28530	155805	26871	1055798	44955	111135	0	0	8179	491700	0	0
2024-07-18 02:35:47			0	39310	0	0	0	29919	28520	155821	27097	1055869	44931	111134	0	0	8180	490610	0	0
2024-07-18 02:36:47			0	39319	0	0	0	29922	28530	155777	26795	1055851	44943	111135	0	0	8181	490257	0	0
2024-07-18 02:37:47			0	39335	0	0	0	29914	28530	155741	26977	1055825	44932	111132	0	0	8182	489681	0	0
2024-07-18 02:38:47			0	39337	0	0	0	29911	28530	155745	26909	1055887	44943	111131	0	0	8182	489608	0	0
2024-07-18 02:39:47			0	39340	0	0	0	29916	28530	155749	27229	1055798	44943	111133	0	0	8182	489500	0	0
2024-07-18 02:40:47			0	39357	0	0	0	29916	28520	155673	26923	1055842	44954	111133	0	0	8183	488917	0	0
2024-07-18 02:41:47			0	39337	0	0	0	29909	28530	155621	26968	1055806	44955	111130	0	0	8182	489608	0	0
2024-07-18 02:42:47			0	39373	0	0	0	29903	28530	155569	26807	1055798	44965	111128	0	0	8184	488313	0	0
2024-07-18 02:43:47			0	39384	0	0	0	29911	28520	155509	27209	1055869	44942	111131	0	0	8185	487945	0	0
2024-07-18 02:44:47			0	39399	0	0	0	29906	28510	155529	27185	1055824	44953	111129	0	0	8186	487435	0	0
2024-07-18 02:45:47			0	39413	0	0	0	29901	28520	155505	27154	1055842	44954	111127	0	0	8186	486904	0	0
2024-07-18 02:46:47			0	39403	0	0	0	29903	28520	155481	26788	1055833	44953	111128	0	0	8186	487263	0	0
2024-07-18 02:47:47			0	39380	0	0	0	29909	28520	155445	26821	1055815	44942	111130	0	0	8184	488089	0	0
2024-07-18 02:48:47			0	39431	0	0	0	29903	28510	155422	26840	1055771	44941	111128	0	0	8187	486286	0	0
2024-07-18 02:49:47			0	39408	0	0	0	29909	28520	155349	27024	1055779	44941	111130	0	0	8186	487083	0	0
2024-07-18 02:50:47			0	39412	0	0	0	29906	28510	155330	26915	1055735	44941	111129	0	0	8186	486968	0	0
2024-07-18 02:51:47			0	39429	0	0	0	29901	28510	155194	26953	1055762	44930	111127	0	0	8187	486357	0	0
2024-07-18 02:52:47			0	39437	0	0	0	29901	28520	155334	27076	1055860	44953	111127	0	0	8188	486042	0	0
2024-07-18 02:53:47			0	39444	0	0	0	29888	28500	155290	27135	1055807	44940	111122	0	0	8188	485847	0	0
2024-07-18 02:54:47			0	39450	0	0	0	29898	28510	155310	26979	1055789	44941	111126	0	0	8189	485604	0	0
2024-07-18 02:55:47			0	39448	0	0	0	29893	28510	155234	27223	1055762	44953	111124	0	0	8189	485676	0	0
2024-07-18 02:56:47			0	39447	0	0	0	29896	28500	155166	27249	1055753	44952	111125	0	0	8188	485740	0	0
2024-07-18 02:57:47			0	39465	0	0	0	29885	28510	155186	26840	1055735	44941	111121	0	0	8190	485067	0	0
2024-07-18 02:58:47			0	39462	0	0	0	29888	28510	155174	27060	1055708	44953	111122	0	0	8189	485174	0	0
2024-07-18 02:59:47			0	39468	0	0	0	29890	28500	155122	26873	1055717	44939	111123	0	0	8190	484987	0	0
2024-07-18 03:00:47			0	39482	0	0	0	29880	28510	155138	26908	1055735	44930	111119	0	0	8191	484458	0	0
2024-07-18 03:01:47			0	39454	0	0	0	29880	28490	155170	27095	1055708	44938	111119	0	0	8189	485517	0	0
2024-07-18 03:02:47			0	39478	0	0	0	29880	28490	155166	27026	1055708	44927	111119	0	0	8190	484657	0	0
2024-07-18 03:03:47			0	39480	0	0	0	29870	28490	155210	26909	1055645	44950	111115	0	0	8191	484585	0	0
2024-07-18 03:04:47			0	39483	0	0	0	29862	28490	155058	27033	1055645	44950	111112	0	0	8191	484478	0	0
2024-07-18 03:05:47			0	39489	0	0	0	29867	28480	155114	27150	1055547	44949	111114	0	0	8191	484291	0	0
2024-07-18 03:06:47			0	39476	0	0	0	29862	28480	155022	26894	1055574	44949	111112	0	0	8190	484757	0	0
2024-07-18 03:07:47			0	39488	0	0	0	29857	28480	155114	26982	1055583	44927	111110	0	0	8191	484327	0	0
2024-07-18 03:08:47			0	39478	0	0	0	29864	28480	155198	27081	1055574	44926	111113	0	0	8191	484685	0	0
2024-07-18 03:09:47			0	39464	0	0	0	29849	28460	155142	27109	1055547	44948	111107	0	0	8190	485243	0	0
2024-07-18 03:10:47			0	39481	0	0	0	29844	28470	155166	26968	1055529	44948	111105	0	0	8191	484606	0	0
2024-07-18 03:11:47			0	39474	0	0	0	29846	28470	155138	26769	1055529	44925	111106	0	0	8191	484856	0	0
2024-07-18 03:12:47			0	39487	0	0	0	29846	28470	155182	26811	1055475	44937	111106	0	0	8191	484391	0	0
2024-07-18 03:13:47			0	39483	0	0	0	29841	28470	155226	26734	1055502	44925	111104	0	0	8191	484534	0	0
2024-07-18 03:14:47			0	39474	0	0	0	29844	28460	155238	26920	1055457	44947	111105	0	0	8191	484884	0	0
2024-07-18 03:15:47			0	39473	0	0	0	29831	28450	155114	26819	1055502	44935	111100	0	0	8191	484948	0	0
2024-07-18 03:16:47			0	39468	0	0	0	29833	28460	155210	26583	1055404	44924	111101	0	0	8190	485099	0	0
2024-07-18 03:17:47			0	39479	0	0	0	29836	28450	155182	26713	1055449	44946	111102	0	0	8191	484733	0	0
2024-07-18 03:18:47			0	39466	0	0	0	29831	28450	155258	26821	1055440	44935	111100	0	0	8190	485199	0	0
2024-07-18 03:19:47			0	39464	0	0	0	29812	28440	155234	26904	1055404	44935	111093	0	0	8190	485299	0	0
2024-07-18 03:20:47			0	39471	0	0	0	29825	28450	155262	26504	1055386	44946	111098	0	0	8191	485020	0	0
2024-07-18 03:21:47			0	39455	0	0	0	29815	28440	155230	26648	1055395	44945	111094	0	0	8190	485621	0	0
2024-07-18 03:22:47			0	39463	0	0	0	29820	28440	155314	26974	1055431	44946	111096	0	0	8190	485335	0	0
2024-07-18 03:23:47			0	39457	0	0	0	29823	28430	155318	26793	1055350	44932	111097	0	0	8190	485578	0	0
2024-07-18 03:24:47			0	39447	0	0	0	29812	28430	155394	26896	1055350	44932	111093	0	0	8189	485936	0	0
2024-07-18 03:25:47			0	39447	0	0	0	29805	28430	155330	26767	1055386	44933	111090	0	0	8190	485936	0	0
2024-07-18 03:26:47			0	39464	0	0	0	29789	28420	155498	26573	1055288	44932	111084	0	0	8191	485355	0	0
2024-07-18 03:27:47			0	39454	0	0	0	29799	28440	155342	26927	1055341	44934	111088	0	0	8190	485657	0	0
2024-07-18 03:28:47			0	39449	0	0	0	29781	28420	155278	27072	1055288	44920	111081	0	0	8190	485893	0	0
2024-07-18 03:29:47			0	39462	0	0	0	29792	28420	155358	27000	1055153	44932	111085	0	0	8191	485426	0	0
2024-07-18 03:30:47			0	39448	0	0	0	29792	28410	155298	26795	1055243	44931	111085	0	0	8190	485957	0	0
2024-07-18 03:31:47			0	39454	0	0	0	29774	28410	155374	27024	1055243	44954	111078	0	0	8190	485742	0	0
2024-07-18 03:32:47			0	39445	0	0	0	29774	28410	155362	27027	1055216	44919	111078	0	0	8190	486064	0	0
2024-07-18 03:33:47			0	39428	0	0	0	29776	28410	155422	26949	1055207	44930	111079	0	0	8189	486675	0	0
2024-07-18 03:34:47			0	39404	0	0	0	29774	28410	155401	26785	1055234	44930	111078	0	0	8188	487537	0	0
2024-07-18 03:35:47			0	39407	0	0	0	29771	28400	155405	26899	1055171	44941	111077	0	0	8188	487457	0	0
2024-07-18 03:36:47			0	39397	0	0	0	29771	28400	155457	27017	1055225	44930	111077	0	0	8187	487817	0	0
2024-07-18 03:37:47			0	39408	0	0	0	29774	28400	155505	26991	1055189	44930	111078	0	0	8188	487421	0	0
2024-07-18 03:38:47			0	39377	0	0	0	29768	28410	155633	26880	1055207	44941	111076	0	0	8186	488508	0	0
2024-07-18 03:39:47			0	39376	0	0	0	29776	28400	155661	26885	1055198	44930	111079	0	0	8186	488572	0	0
2024-07-18 03:40:47			0	39349	0	0	0	29768	28400	155549	26972	1055162	44930	111076	0	0	8185	489544	0	0
2024-07-18 03:41:47			0	39364	0	0	0	29771	28400	155709	27046	1055135	44953	111077	0	0	8185	489004	0	0
2024-07-18 03:42:47			0	39341	0	0	0	29768	28400	155613	26981	1055189	44918	111076	0	0	8184	489833	0	0
2024-07-18 03:43:47			0	39342	0	0	0	29771	28390	155661	27064	1055126	44940	111077	0	0	8184	489825	0	0
2024-07-18 03:44:47			0	39331	0	0	0	29766	28400	155677	26968	1055135	44930	111075	0	0	8184	490193	0	0
2024-07-18 03:45:47			0	39342	0	0	0	29774	28380	155685	26738	1055144	44939	111078	0	0	8184	489853	0	0
2024-07-18 03:46:47			0	39318	0	0	0	29761	28400	155725	27039	1055162	44941	111073	0	0	8183	490662	0	0
2024-07-18 03:47:47			0	39336	0	0	0	29771	28380	155697	27020	1055117	44928	111077	0	0	8184	490069	0	0
2024-07-18 03:48:47			0	39321	0	0	0	29768	28370	155797	27246	1055100	44916	111076	0	0	8183	490639	0	0
2024-07-18 03:49:47			0	39340	0	0	0	29761	28380	155825	27064	1055108	44928	111073	0	0	8184	489925	0	0
2024-07-18 03:50:47			0	39322	0	0	0	29758	28380	155881	26913	1055082	44939	111072	0	0	8183	490574	0	0
2024-07-18 03:51:47			0	39307	0	0	0	29755	28370	155809	26864	1055073	44939	111071	0	0	8182	491144	0	0
2024-07-18 03:52:47			0	39313	0	0	0	29750	28380	155761	26960	1055108	44939	111069	0	0	8183	490899	0	0
2024-07-18 03:53:47			0	39291	0	0	0	29750	28360	155781	26991	1055055	44926	111069	0	0	8181	491750	0	0
2024-07-18 03:54:47			0	39287	0	0	0	29740	28360	155817	27144	1055109	44926	111065	0	0	8181	491895	0	0
2024-07-18 03:55:47			0	39278	0	0	0	29742	28370	155937	27109	1054956	44927	111066	0	0	8181	492192	0	0
2024-07-18 03:56:47			0	39274	0	0	0	29745	28360	155977	27034	1055001	44937	111067	0	0	8180	492365	0	0
2024-07-18 03:57:47			0	39276	0	0	0	29740	28360	155993	26871	1054992	44925	111065	0	0	8181	492292	0	0
2024-07-18 03:58:47			0	39273	0	0	0	29740	28360	156025	26765	1055046	44925	111065	0	0	8180	492401	0	0
2024-07-18 03:59:47			0	39226	0	0	0	29742	28350	156153	26797	1055010	44925	111066	0	0	8178	494130	0	0
2024-07-18 04:00:47			0	39223	0	0	0	29735	28350	156017	26974	1054948	44925	111063	0	0	8178	494239	0	0
2024-07-18 04:01:47			0	39206	0	0	0	29729	28350	156185	26840	1054983	44936	111061	0	0	8177	494855	0	0
2024-07-18 04:02:47			0	39171	0	0	0	29732	28340	156289	26668	1054939	44947	111062	0	0	8175	496154	0	0
2024-07-18 04:03:47			0	39178	0	0	0	29737	28350	156329	27093	1054867	44925	111064	0	0	8175	495871	0	0
2024-07-18 04:04:47			0	39158	0	0	0	29732	28340	156509	26993	1054930	44934	111062	0	0	8174	496626	0	0
2024-07-18 04:05:47			0	39120	0	0	0	29724	28340	156569	26531	1054957	44923	111059	0	0	8172	498008	0	0
2024-07-18 04:06:47			0	39124	0	0	0	29729	28350	156521	27156	1054921	44925	111061	0	0	8172	497834	0	0
2024-07-18 04:07:47			0	39109	0	0	0	29719	28340	156621	26967	1054885	44924	111057	0	0	8171	498409	0	0
2024-07-18 04:08:47			0	39090	0	0	0	29722	28330	156741	26847	1054840	44913	111058	0	0	8170	499130	0	0
2024-07-18 04:09:47			0	39070	0	0	0	29719	28340	156757	26752	1054939	44935	111057	0	0	8169	499830	0	0
2024-07-18 04:10:47			0	39052	0	0	0	29714	28330	156873	27104	1054894	44923	111055	0	0	8168	500516	0	0
2024-07-18 04:11:47			0	39030	0	0	0	29724	28340	157101	27187	1054930	44913	111059	0	0	8167	501290	0	0
2024-07-18 04:12:47			0	39021	0	0	0	29716	28320	157057	26743	1054849	44933	111056	0	0	8166	501677	0	0
2024-07-18 04:13:47			0	38989	0	0	0	29706	28320	157053	27074	1054849	44922	111052	0	0	8165	502848	0	0
2024-07-18 04:14:47			0	38975	0	0	0	29703	28320	157181	27067	1054849	44922	111051	0	0	8164	503360	0	0
2024-07-18 04:15:47			0	38975	0	0	0	29698	28310	157189	27067	1054832	44911	111049	0	0	8164	503389	0	0
2024-07-18 04:16:47			0	38953	0	0	0	29701	28320	157257	27248	1054787	44933	111050	0	0	8163	504167	0	0
2024-07-18 04:17:47			0	38949	0	0	0	29690	28310	157321	27237	1054805	44921	111046	0	0	8163	504342	0	0
2024-07-18 04:18:47			0	38940	0	0	0	29690	28310	157373	27251	1054724	44921	111046	0	0	8162	504672	0	0
2024-07-18 04:19:47			0	38921	0	0	0	29683	28310	157541	27275	1054688	44921	111043	0	0	8161	505370	0	0
2024-07-18 04:20:47			0	38911	0	0	0	29675	28310	157605	27069	1054688	44921	111040	0	0	8161	505737	0	0
2024-07-18 04:21:47			0	38882	0	0	0	29670	28300	157569	27161	1054652	44932	111038	0	0	8159	506832	0	0
2024-07-18 04:22:47			0	38869	0	0	0	29657	28300	157625	27319	1054643	44909	111033	0	0	8159	507310	0	0
2024-07-18 04:23:47			0	38829	0	0	0	29644	28300	157577	27067	1054590	44909	111028	0	0	8157	508784	0	0
2024-07-18 04:24:47			0	38824	0	0	0	29636	28280	157649	27164	1054590	44908	111025	0	0	8156	509027	0	0
2024-07-18 04:25:47			0	38818	0	0	0	29638	28280	157641	27147	1054527	44917	111026	0	0	8156	509248	0	0
2024-07-18 04:26:47			0	38810	0	0	0	29623	28270	157745	27071	1054518	44906	111020	0	0	8156	509573	0	0
2024-07-18 04:27:47			0	38796	0	0	0	29620	28270	157793	27448	1054509	44906	111019	0	0	8155	510090	0	0
2024-07-18 04:28:47			0	38796	0	0	0	29597	28270	157865	27137	1054428	44906	111010	0	0	8155	510090	0	0
2024-07-18 04:29:47			0	38757	0	0	0	29576	28240	157929	27131	1054222	44893	111002	0	0	8153	511619	0	0
2024-07-18 04:30:47			0	38718	0	0	0	29537	28230	158140	26745	1054088	44869	110987	0	0	8152	513093	0	0
2024-07-18 04:31:47			0	38678	0	0	0	29511	28220	158368	27166	1054070	44878	110977	0	0	8150	514606	0	0
2024-07-18 04:32:47			0	38612	0	0	0	29480	28180	158612	27164	1053873	44886	110965	0	0	8146	517180	0	0
2024-07-18 04:33:47			0	38528	0	0	0	29454	28170	158880	27154	1053829	44874	110955	0	0	8142	520344	0	0
2024-07-18 04:34:47			0	38453	0	0	0	29436	28160	159180	26901	1053748	44883	110948	0	0	8138	523182	0	0
2024-07-18 04:35:47			0	38391	0	0	0	29438	28150	159448	27163	1053811	44882	110949	0	0	8134	525541	0	0
2024-07-18 04:36:47			0	38326	0	0	0	29449	28150	159768	27249	1053838	44905	110953	0	0	8130	527989	0	0
2024-07-18 04:37:47			0	38225	0	0	0	29441	28150	160096	26993	1053838	44893	110950	0	0	8125	531807	0	0
2024-07-18 04:38:47			0	38147	0	0	0	29454	28140	160408	27085	1053856	44893	110955	0	0	8120	534798	0	0
2024-07-18 04:39:47			0	38074	0	0	0	29462	28140	160800	26922	1053874	44904	110958	0	0	8116	537578	0	0
2024-07-18 04:40:47			0	37985	0	0	0	29459	28140	161115	26795	1053874	44915	110957	0	0	8111	540980	0	0
2024-07-18 04:41:47			0	37914	0	0	0	29464	28130	161411	27097	1053865	44904	110959	0	0	8106	543734	0	0
2024-07-18 04:42:47			0	37851	0	0	0	29472	28140	161735	27185	1053910	44916	110962	0	0	8103	546127	0	0
2024-07-18 04:43:47			0	37776	0	0	0	29467	28140	161943	26729	1053883	44916	110960	0	0	8099	549021	0	0
2024-07-18 04:44:47			0	37720	0	0	0	29459	28140	162355	26665	1053901	44892	110957	0	0	8095	551189	0	0
2024-07-18 04:45:47			0	37661	0	0	0	29444	28130	162507	27159	1053775	44880	110951	0	0	8092	553510	0	0
2024-07-18 04:46:47			0	37616	0	0	0	29433	28130	162631	27246	1053749	44914	110947	0	0	8090	555261	0	0
2024-07-18 04:47:47			0	37584	0	0	0	29428	28120	162751	27164	1053713	44891	110945	0	0	8088	556540	0	0
2024-07-18 04:48:47			0	37551	0	0	0	29441	28110	163047	27154	1053749	44869	110950	0	0	8086	557860	0	0
2024-07-18 04:49:47			0	37534	0	0	0	29433	28120	163055	27196	1053785	44890	110947	0	0	8085	558492	0	0
2024-07-18 04:50:47			0	37505	0	0	0	29444	28110	163151	27138	1053749	44902	110951	0	0	8083	559658	0	0
2024-07-18 04:51:47			0	37474	0	0	0	29457	28120	163203	27367	1053785	44913	110956	0	0	8081	560840	0	0
2024-07-18 04:52:47			0	37481	0	0	0	29470	28100	163239	27244	1053785	44912	110961	0	0	8081	560631	0	0
2024-07-18 04:53:47			0	37437	0	0	0	29470	28120	163323	27246	1053812	44913	110961	0	0	8079	562292	0	0
2024-07-18 04:54:47			0	37430	0	0	0	29480	28110	163399	27519	1053830	44902	110965	0	0	8078	562599	0	0
2024-07-18 04:55:47			0	37413	0	0	0	29483	28120	163511	27031	1053785	44924	110966	0	0	8077	563234	0	0
2024-07-18 04:56:47			0	37395	0	0	0	29480	28120	163543	27294	1053812	44913	110965	0	0	8076	563942	0	0
2024-07-18 04:57:47			0	37382	0	0	0	29475	28110	163659	27013	1053767	44889	110963	0	0	8075	564486	0	0
2024-07-18 04:58:47			0	37357	0	0	0	29467	28110	163731	27267	1053722	44890	110960	0	0	8074	565471	0	0
2024-07-18 04:59:47			0	37361	0	0	0	29451	28110	163759	27282	1053740	44889	110954	0	0	8075	565313	0	0
2024-07-18 05:00:47			0	37340	0	0	0	29444	28110	163859	26994	1053713	44901	110951	0	0	8074	566141	0	0
2024-07-18 05:01:47			0	37330	0	0	0	29449	28110	163867	27105	1053659	44889	110953	0	0	8073	566535	0	0
2024-07-18 05:02:47			0	37305	0	0	0	29436	28090	163898	27013	1053534	44900	110948	0	0	8072	567588	0	0
2024-07-18 05:03:47			0	37287	0	0	0	29420	28090	164086	27339	1053588	44888	110942	0	0	8071	568299	0	0
2024-07-18 05:04:47			0	37273	0	0	0	29405	28070	164094	27145	1053498	44887	110936	0	0	8070	568919	0	0
2024-07-18 05:05:47			0	37264	0	0	0	29384	28060	164094	27039	1053391	44874	110928	0	0	8070	569308	0	0
2024-07-18 05:06:47			0	37247	0	0	0	29379	28060	164198	27166	1053346	44897	110926	0	0	8069	569981	0	0
2024-07-18 05:07:47			0	37221	0	0	0	29355	28050	164262	27003	1053328	44874	110917	0	0	8068	571044	0	0
2024-07-18 05:08:47			0	37227	0	0	0	29329	28040	164410	27232	1053284	44872	110907	0	0	8069	570839	0	0
2024-07-18 05:09:47			0	37210	0	0	0	29329	28040	164434	26710	1053329	44872	110907	0	0	8068	571514	0	0
2024-07-18 05:10:47			0	37186	0	0	0	29316	28020	164502	26788	1053185	44859	110902	0	0	8066	572533	0	0
2024-07-18 05:11:47			0	37172	0	0	0	29332	28020	164618	26795	1053221	44870	110908	0	0	8065	573089	0	0
2024-07-18 05:12:47			0	37159	0	0	0	29322	28020	164598	27081	1053239	44881	110904	0	0	8065	573606	0	0
2024-07-18 05:13:47			0	37145	0	0	0	29327	28020	164646	27130	1053266	44892	110906	0	0	8064	574164	0	0
2024-07-18 05:14:47			0	37126	0	0	0	29337	28000	164758	27157	1053239	44890	110910	0	0	8062	574987	0	0
2024-07-18 05:15:47			0	37103	0	0	0	29353	28020	164902	27086	1053266	44881	110916	0	0	8061	575837	0	0
2024-07-18 05:16:47			0	37088	0	0	0	29358	28020	164942	26904	1053320	44881	110918	0	0	8060	576436	0	0
2024-07-18 05:17:47			0	37088	0	0	0	29368	28010	164962	27244	1053311	44892	110922	0	0	8060	576469	0	0
2024-07-18 05:18:47			0	37073	0	0	0	29368	28010	164978	26991	1053338	44892	110922	0	0	8059	577068	0	0
2024-07-18 05:19:47			0	37063	0	0	0	29371	28020	165066	27033	1053356	44892	110923	0	0	8058	577434	0	0
2024-07-18 05:20:47			0	37074	0	0	0	29381	28010	165038	27197	1053365	44904	110927	0	0	8059	577028	0	0
2024-07-18 05:21:47			0	37053	0	0	0	29386	28020	165090	26838	1053347	44892	110929	0	0	8057	577834	0	0
2024-07-18 05:22:47			0	37042	0	0	0	29399	28020	165098	26875	1053356	44904	110934	0	0	8056	578274	0	0
2024-07-18 05:23:47			0	37045	0	0	0	29399	28020	165066	26942	1053374	44904	110934	0	0	8057	578154	0	0
2024-07-18 05:24:47			0	37031	0	0	0	29392	28020	165158	26885	1053401	44904	110931	0	0	8056	578714	0	0
2024-07-18 05:25:47			0	37038	0	0	0	29399	28020	165142	26909	1053356	44892	110934	0	0	8056	578434	0	0
2024-07-18 05:26:47			0	37057	0	0	0	29386	28010	165178	27064	1053257	44881	110929	0	0	8057	577708	0	0
2024-07-18 05:27:47			0	37054	0	0	0	29379	28020	165182	26698	1053275	44892	110926	0	0	8057	577794	0	0
2024-07-18 05:28:47			0	37058	0	0	0	29353	28010	165158	26885	1053284	44881	110916	0	0	8058	577668	0	0
2024-07-18 05:29:47			0	37047	0	0	0	29337	28010	165006	27001	1053141	44869	110910	0	0	8058	578107	0	0
2024-07-18 05:30:47			0	37057	0	0	0	29324	28010	165134	26906	1053141	44869	110905	0	0	8059	577708	0	0
2024-07-18 05:31:47			0	37065	0	0	0	29327	28000	165086	27067	1053186	44879	110906	0	0	8059	577421	0	0
2024-07-18 05:32:47			0	37068	0	0	0	29322	28000	164974	26802	1053204	44879	110904	0	0	8059	577301	0	0
2024-07-18 05:33:47			0	37071	0	0	0	29324	27980	165034	27055	1053204	44888	110905	0	0	8059	577248	0	0
2024-07-18 05:34:47			0	37066	0	0	0	29332	27980	165130	27157	1053177	44877	110908	0	0	8059	577448	0	0
2024-07-18 05:35:47			0	37070	0	0	0	29342	27990	165022	26897	1053222	44878	110912	0	0	8059	577255	0	0
2024-07-18 05:36:47			0	37048	0	0	0	29342	27980	165102	26746	1053150	44900	110912	0	0	8058	578167	0	0
2024-07-18 05:37:47			0	37055	0	0	0	29361	27990	165046	26849	1053159	44889	110919	0	0	8058	577854	0	0
2024-07-18 05:38:47			0	37072	0	0	0	29350	27980	165162	26731	1053123	44888	110915	0	0	8059	577208	0	0
2024-07-18 05:39:47			0	37075	0	0	0	29363	27990	165126	26760	1053186	44878	110920	0	0	8059	577055	0	0
2024-07-18 05:40:47			0	37082	0	0	0	29353	27980	165082	26960	1053087	44887	110916	0	0	8059	576808	0	0
2024-07-18 05:41:47			0	37070	0	0	0	29348	27970	165010	26651	1053097	44865	110914	0	0	8059	577321	0	0
2024-07-18 05:42:47			0	37094	0	0	0	29345	27970	165002	26892	1053097	44899	110913	0	0	8060	576362	0	0
2024-07-18 05:43:47			0	37101	0	0	0	29337	27980	164898	27098	1053007	44876	110910	0	0	8061	576050	0	0
2024-07-18 05:44:47			0	37101	0	0	0	29329	27950	164890	26835	1052909	44875	110907	0	0	8061	576150	0	0
2024-07-18 05:45:47			0	37126	0	0	0	29322	27940	164902	27074	1052855	44862	110904	0	0	8062	575186	0	0
2024-07-18 05:46:47			0	37142	0	0	0	29298	27930	164818	27031	1052819	44850	110895	0	0	8064	574581	0	0
2024-07-18 05:47:47			0	37144	0	0	0	29285	27920	164762	26712	1052766	44848	110890	0	0	8064	574535	0	0
2024-07-18 05:48:47			0	37157	0	0	0	29280	27910	164762	27019	1052757	44859	110888	0	0	8065	574050	0	0
2024-07-18 05:49:47			0	37191	0	0	0	29283	27910	164742	27000	1052694	44870	110889	0	0	8067	572697	0	0
2024-07-18 05:50:47			0	37194	0	0	0	29264	27910	164566	26880	1052667	44859	110882	0	0	8067	572578	0	0
2024-07-18 05:51:47			0	37218	0	0	0	29241	27900	164518	27022	1052569	44846	110873	0	0	8069	571658	0	0
2024-07-18 05:52:47			0	37222	0	0	0	29210	27880	164490	26923	1052399	44856	110861	0	0	8069	571565	0	0
2024-07-18 05:53:47			0	37264	0	0	0	29181	27860	164390	27078	1052291	44855	110850	0	0	8072	569965	0	0
2024-07-18 05:54:47			0	37277	0	0	0	29171	27850	164394	27029	1052238	44852	110846	0	0	8073	569482	0	0
2024-07-18 05:55:47			0	37312	0	0	0	29150	27840	164294	26819	1052202	44852	110838	0	0	8076	568130	0	0
2024-07-18 05:56:47			0	37334	0	0	0	29140	27810	164079	26880	1052122	44849	110834	0	0	8077	567358	0	0
2024-07-18 05:57:47			0	37361	0	0	0	29137	27790	163935	26977	1052042	44860	110833	0	0	8078	566357	0	0
2024-07-18 05:58:47			0	37380	0	0	0	29124	27780	163819	27204	1052024	44846	110828	0	0	8080	565640	0	0
2024-07-18 05:59:47			0	37404	0	0	0	29124	27790	163791	27053	1051988	44848	110828	0	0	8081	564662	0	0
2024-07-18 06:00:47			0	37427	0	0	0	29122	27780	163711	27168	1051961	44857	110827	0	0	8082	563789	0	0
2024-07-18 06:01:47			0	37443	0	0	0	29109	27760	163743	26816	1051934	44844	110822	0	0	8084	563224	0	0
2024-07-18 06:02:47			0	37456	0	0	0	29103	27750	163671	27142	1051854	44866	110820	0	0	8084	562745	0	0
2024-07-18 06:03:47			0	37471	0	0	0	29083	27750	163651	26915	1051854	44843	110812	0	0	8086	562156	0	0
2024-07-18 06:04:47			0	37480	0	0	0	29080	27740	163631	27064	1051809	44853	110811	0	0	8086	561835	0	0
2024-07-18 06:05:47			0	37486	0	0	0	29085	27740	163519	26904	1051845	44865	110813	0	0	8086	561599	0	0
2024-07-18 06:06:47			0	37509	0	0	0	29096	27720	163551	26889	1051810	44840	110817	0	0	8087	560761	0	0
2024-07-18 06:07:47			0	37531	0	0	0	29090	27730	163395	27163	1051872	44864	110815	0	0	8089	559867	0	0
2024-07-18 06:08:47			0	37531	0	0	0	29093	27720	163411	26946	1051783	44875	110816	0	0	8089	559899	0	0
2024-07-18 06:09:47			0	37559	0	0	0	29098	27730	163367	26837	1051738	44864	110818	0	0	8090	558770	0	0
2024-07-18 06:10:47			0	37580	0	0	0	29090	27720	163223	26828	1051774	44884	110815	0	0	8092	557981	0	0
2024-07-18 06:11:47			0	37602	0	0	0	29090	27720	163103	26908	1051855	44874	110815	0	0	8093	557121	0	0
2024-07-18 06:12:47			0	37642	0	0	0	29093	27730	163003	27024	1051819	44864	110816	0	0	8095	555529	0	0
2024-07-18 06:13:47			0	37657	0	0	0	29096	27720	162879	27102	1051756	44875	110817	0	0	8096	554976	0	0
2024-07-18 06:14:47			0	37712	0	0	0	29090	27720	162691	27251	1051747	44874	110815	0	0	8099	552836	0	0
2024-07-18 06:15:47			0	37773	0	0	0	29103	27710	162347	27170	1051819	44862	110820	0	0	8103	550500	0	0
2024-07-18 06:16:47			0	37801	0	0	0	29096	27720	162251	27079	1051801	44862	110817	0	0	8104	549384	0	0
2024-07-18 06:17:47			0	37864	0	0	0	29101	27720	162127	27097	1051855	44862	110819	0	0	8108	546949	0	0
2024-07-18 06:18:47			0	37813	0	0	0	29106	27710	162243	27081	1051792	44862	110821	0	0	8105	548951	0	0
2024-07-18 06:19:47			0	37737	0	0	0	29114	27710	162587	26798	1051810	44861	110824	0	0	8100	551897	0	0
2024-07-18 06:20:47			0	37581	0	0	0	29111	27710	163267	26795	1051792	44874	110823	0	0	8091	557974	0	0
2024-07-18 06:21:47			0	37317	0	0	0	29109	27710	164315	26948	1051765	44884	110822	0	0	8076	568358	0	0
2024-07-18 06:22:47			0	37014	0	0	0	29111	27710	165674	27157	1051756	44873	110823	0	0	8058	580431	0	0
2024-07-18 06:23:47			0	36731	0	0	0	29111	27710	166930	27147	1051738	44862	110823	0	0	8041	591861	0	0
2024-07-18 06:24:47			0	36498	0	0	0	29109	27720	167885	26871	1051774	44874	110822	0	0	8028	601352	0	0
2024-07-18 06:25:47			0	36317	0	0	0	29098	27710	168689	27052	1051792	44874	110818	0	0	8017	608858	0	0
2024-07-18 06:26:47			0	36208	0	0	0	29096	27710	169285	27242	1051729	44873	110817	0	0	8011	613389	0	0
2024-07-18 06:27:47			0	36092	0	0	0	29098	27710	169677	27024	1051756	44861	110818	0	0	8004	618236	0	0
2024-07-18 06:28:47			0	36058	0	0	0	29080	27700	169853	27116	1051721	44850	110811	0	0	8002	619698	0	0
2024-07-18 06:29:47			0	36016	0	0	0	29075	27710	170021	27064	1051729	44861	110809	0	0	7999	621427	0	0
2024-07-18 06:30:47			0	36014	0	0	0	29070	27700	170249	27039	1051685	44860	110807	0	0	7999	621547	0	0
2024-07-18 06:31:47			0	36030	0	0	0	29057	27700	170025	27053	1051658	44872	110802	0	0	8000	620874	0	0
2024-07-18 06:32:47			0	36028	0	0	0	29062	27690	169965	26922	1051703	44848	110804	0	0	8000	620994	0	0
2024-07-18 06:33:47			0	36052	0	0	0	29059	27690	169901	26705	1051667	44859	110803	0	0	8002	619985	0	0
2024-07-18 06:34:47			0	36096	0	0	0	29062	27690	169849	26956	1051694	44848	110804	0	0	8004	618140	0	0
2024-07-18 06:35:47			0	36134	0	0	0	29059	27680	169577	27334	1051631	44859	110803	0	0	8007	616585	0	0
2024-07-18 06:36:47			0	36195	0	0	0	29051	27680	169441	27112	1051578	44859	110800	0	0	8010	614037	0	0
2024-07-18 06:37:47			0	36230	0	0	0	29057	27680	169133	27147	1051604	44859	110802	0	0	8012	612578	0	0
2024-07-18 06:38:47			0	36273	0	0	0	29049	27680	169001	26861	1051604	44859	110799	0	0	8015	610790	0	0
2024-07-18 06:39:47			0	36320	0	0	0	29054	27670	168677	27142	1051560	44857	110801	0	0	8018	608874	0	0
2024-07-18 06:40:47			0	36374	0	0	0	29049	27680	168505	27164	1051542	44870	110799	0	0	8021	606603	0	0
2024-07-18 06:41:47			0	36440	0	0	0	29054	27670	168281	27192	1051506	44857	110801	0	0	8025	603913	0	0
2024-07-18 06:42:47			0	36483	0	0	0	29054	27670	168017	27248	1051578	44857	110801	0	0	8028	602142	0	0
2024-07-18 06:43:47			0	36541	0	0	0	29062	27670	167809	27149	1051560	44879	110804	0	0	8031	599759	0	0
2024-07-18 06:44:47			0	36599	0	0	0	29057	27670	167602	26765	1051632	44869	110802	0	0	8034	597382	0	0
2024-07-18 06:45:47			0	36652	0	0	0	29072	27680	167374	26844	1051649	44858	110808	0	0	8037	595182	0	0
2024-07-18 06:46:47			0	36732	0	0	0	29067	27680	167010	26889	1051631	44881	110806	0	0	8042	591923	0	0
2024-07-18 06:47:47			0	36778	0	0	0	29075	27690	166770	27038	1051640	44871	110809	0	0	8045	590020	0	0
2024-07-18 06:48:47			0	36710	0	0	0	29080	27670	167066	27064	1051614	44879	110811	0	0	8041	592852	0	0
2024-07-18 06:49:47			0	36541	0	0	0	29093	27690	167721	27147	1051667	44859	110816	0	0	8030	599690	0	0
2024-07-18 06:50:47			0	36385	0	0	0	29090	27680	168461	27128	1051685	44893	110815	0	0	8021	606148	0	0
2024-07-18 06:51:47			0	36287	0	0	0	29085	27680	168973	26944	1051685	44871	110813	0	0	8015	610208	0	0
2024-07-18 06:52:47			0	36209	0	0	0	29101	27690	169257	27024	1051649	44859	110819	0	0	8010	613418	0	0
2024-07-18 06:53:47			0	36145	0	0	0	29096	27700	169537	27253	1051792	44860	110817	0	0	8007	616053	0	0
2024-07-18 06:54:47			0	36104	0	0	0	29090	27690	169773	27152	1051757	44871	110815	0	0	8004	617805	0	0
2024-07-18 06:55:47			0	36074	0	0	0	29093	27690	169753	27078	1051703	44859	110816	0	0	8002	619062	0	0
2024-07-18 06:56:47			0	36054	0	0	0	29080	27690	169921	27003	1051703	44881	110811	0	0	8001	619901	0	0
2024-07-18 06:57:47			0	36066	0	0	0	29090	27700	169793	26844	1051712	44872	110815	0	0	8002	619362	0	0
2024-07-18 06:58:47			0	36078	0	0	0	29093	27700	169917	27137	1051721	44873	110816	0	0	8003	618859	0	0
2024-07-18 06:59:47			0	36107	0	0	0	29090	27690	169837	26821	1051676	44871	110815	0	0	8005	617679	0	0
2024-07-18 07:00:47			0	36120	0	0	0	29088	27690	169673	26878	1051703	44859	110814	0	0	8005	617135	0	0
2024-07-18 07:01:47			0	36135	0	0	0	29077	27690	169493	27050	1051703	44859	110810	0	0	8006	616507	0	0
2024-07-18 07:02:47			0	36200	0	0	0	29080	27690	169445	27059	1051649	44859	110811	0	0	8010	613793	0	0
2024-07-18 07:03:47			0	36223	0	0	0	29070	27700	169165	26968	1051712	44849	110807	0	0	8012	612799	0	0
2024-07-18 07:04:47			0	36262	0	0	0	29072	27690	169029	27041	1051640	44859	110808	0	0	8014	611212	0	0
2024-07-18 07:05:47			0	36301	0	0	0	29064	27680	168733	27232	1051604	44859	110805	0	0	8017	609627	0	0
2024-07-18 07:06:47			0	36362	0	0	0	29062	27680	168505	27197	1051578	44859	110804	0	0	8020	607099	0	0
2024-07-18 07:07:47			0	36400	0	0	0	29057	27680	168321	27138	1051542	44858	110802	0	0	8023	605528	0	0
2024-07-18 07:08:47			0	36459	0	0	0	29062	27670	168065	27381	1051533	44869	110804	0	0	8026	603130	0	0
2024-07-18 07:09:47			0	36506	0	0	0	29062	27680	167833	27274	1051569	44858	110804	0	0	8029	601161	0	0
2024-07-18 07:10:47			0	36561	0	0	0	29059	27680	167589	27170	1051623	44858	110803	0	0	8032	598904	0	0
2024-07-18 07:11:47			0	36602	0	0	0	29059	27680	167402	26948	1051596	44858	110803	0	0	8035	597225	0	0
2024-07-18 07:12:47			0	36673	0	0	0	29051	27670	167170	27185	1051533	44846	110800	0	0	8039	594359	0	0
2024-07-18 07:13:47			0	36690	0	0	0	29054	27670	166878	27370	1051560	44869	110801	0	0	8040	593667	0	0
2024-07-18 07:14:47			0	36750	0	0	0	29046	27670	166742	27079	1051551	44879	110798	0	0	8044	591225	0	0
2024-07-18 07:15:47			0	36806	0	0	0	29051	27660	166546	26970	1051542	44857	110800	0	0	8047	588987	0	0
2024-07-18 07:16:47			0	36855	0	0	0	29051	27660	166318	27185	1051587	44856	110800	0	0	8050	587003	0	0
2024-07-18 07:17:47			0	36904	0	0	0	29051	27650	165914	27300	1051497	44867	110800	0	0	8052	585058	0	0
2024-07-18 07:18:47			0	36947	0	0	0	29059	27670	165822	27104	1051470	44846	110803	0	0	8055	583258	0	0
2024-07-18 07:19:47			0	36992	0	0	0	29049	27660	165546	27039	1051542	44857	110799	0	0	8058	581481	0	0
2024-07-18 07:20:47			0	36978	0	0	0	29054	27670	165650	27128	1051470	44879	110801	0	0	8057	582011	0	0
2024-07-18 07:21:47			0	36948	0	0	0	29044	27660	165698	27346	1051453	44856	110797	0	0	8055	583251	0	0
2024-07-18 07:22:47			0	36888	0	0	0	29046	27660	165994	27310	1051435	44869	110798	0	0	8052	585670	0	0
2024-07-18 07:23:47			0	36840	0	0	0	29036	27650	166246	26925	1051524	44856	110794	0	0	8049	587644	0	0
2024-07-18 07:24:47			0	36762	0	0	0	29046	27650	166610	27156	1051443	44867	110798	0	0	8044	590806	0	0
2024-07-18 07:25:47			0	36719	0	0	0	29044	27650	166946	27161	1051515	44867	110797	0	0	8042	592554	0	0
2024-07-18 07:26:47			0	36668	0	0	0	29041	27650	167062	27268	1051470	44867	110796	0	0	8039	594632	0	0
2024-07-18 07:27:47			0	36627	0	0	0	29041	27650	167170	27171	1051470	44867	110796	0	0	8036	596306	0	0
2024-07-18 07:28:47			0	36592	0	0	0	29038	27640	167413	27178	1051453	44866	110795	0	0	8034	597772	0	0
2024-07-18 07:29:47			0	36557	0	0	0	29044	27650	167593	27168	1051435	44856	110797	0	0	8032	599171	0	0
2024-07-18 07:30:47			0	36554	0	0	0	29038	27630	167601	27071	1051461	44854	110795	0	0	8032	599363	0	0
2024-07-18 07:31:47			0	36533	0	0	0	29031	27650	167693	27147	1051435	44856	110792	0	0	8031	600156	0	0
2024-07-18 07:32:47			0	36512	0	0	0	29038	27650	167777	27133	1051435	44867	110795	0	0	8029	601018	0	0
2024-07-18 07:33:47			0	36518	0	0	0	29038	27650	167845	27275	1051461	44867	110795	0	0	8030	600772	0	0
2024-07-18 07:34:47			0	36480	0	0	0	29031	27650	167997	27289	1051435	44844	110792	0	0	8028	602334	0	0
2024-07-18 07:35:47			0	36456	0	0	0	29028	27640	168145	27003	1051426	44866	110791	0	0	8026	603357	0	0
2024-07-18 07:36:47			0	36404	0	0	0	29025	27630	168257	27003	1051461	44865	110790	0	0	8023	605538	0	0
2024-07-18 07:37:47			0	36360	0	0	0	29036	27640	168445	27319	1051453	44855	110794	0	0	8020	607322	0	0
2024-07-18 07:38:47			0	36327	0	0	0	29033	27650	168533	27147	1051488	44867	110793	0	0	8018	608654	0	0
2024-07-18 07:39:47			0	36266	0	0	0	29038	27650	168817	27067	1051416	44877	110795	0	0	8015	611186	0	0
2024-07-18 07:40:47			0	36240	0	0	0	29033	27640	169065	27293	1051480	44866	110793	0	0	8013	612303	0	0
2024-07-18 07:41:47			0	36197	0	0	0	29038	27650	169329	26902	1051435	44867	110795	0	0	8011	614059	0	0
2024-07-18 07:42:47			0	36155	0	0	0	29033	27640	169493	27199	1051336	44866	110793	0	0	8008	615848	0	0
2024-07-18 07:43:47			0	36105	0	0	0	29023	27640	169733	27248	1051453	44855	110789	0	0	8005	617941	0	0
2024-07-18 07:44:47			0	36058	0	0	0	29020	27630	169909	26812	1051318	44842	110788	0	0	8002	619948	0	0
2024-07-18 07:45:47			0	36005	0	0	0	28994	27630	170093	27220	1051426	44865	110778	0	0	8000	622176	0	0
2024-07-18 07:46:47			0	35956	0	0	0	28981	27620	170345	27377	1051309	44853	110773	0	0	7997	624277	0	0
2024-07-18 07:47:47			0	35930	0	0	0	28971	27620	170417	27320	1051300	44841	110769	0	0	7995	625375	0	0
2024-07-18 07:48:47			0	35921	0	0	0	28966	27610	170493	27289	1051238	44852	110767	0	0	7995	625792	0	0
2024-07-18 07:49:47			0	35897	0	0	0	28968	27610	170633	27435	1051229	44829	110768	0	0	7993	626807	0	0
2024-07-18 07:50:47			0	35884	0	0	0	28968	27610	170697	27204	1051202	44851	110768	0	0	7993	627357	0	0
2024-07-18 07:51:47			0	35883	0	0	0	28966	27600	170677	27410	1051166	44839	110767	0	0	7993	627436	0	0
2024-07-18 07:52:47			0	35902	0	0	0	28971	27600	170553	27736	1051220	44862	110769	0	0	7994	626631	0	0
2024-07-18 07:53:47			0	35925	0	0	0	28966	27590	170493	27649	1051122	44838	110767	0	0	7995	625695	0	0
2024-07-18 07:54:47			0	35944	0	0	0	28966	27600	170289	27291	1051193	44851	110767	0	0	7996	624856	0	0
2024-07-18 07:55:47			0	35965	0	0	0	28955	27590	170257	27211	1051202	44861	110763	0	0	7998	624005	0	0
2024-07-18 07:56:47			0	36014	0	0	0	28955	27590	170029	27142	1051175	44850	110763	0	0	8001	621940	0	0
2024-07-18 07:57:47			0	36048	0	0	0	28961	27590	169913	27222	1051194	44837	110765	0	0	8003	620510	0	0
2024-07-18 07:58:47			0	36097	0	0	0	28966	27590	169693	27102	1051167	44872	110767	0	0	8006	618454	0	0
2024-07-18 07:59:47			0	36130	0	0	0	28966	27590	169485	27033	1051229	44872	110767	0	0	8007	617071	0	0
2024-07-18 08:00:47			0	36179	0	0	0	28973	27590	169301	27176	1051140	44837	110770	0	0	8010	615023	0	0
2024-07-18 08:01:47			0	36219	0	0	0	28981	27590	168957	27092	1051274	44872	110773	0	0	8013	613354	0	0
2024-07-18 08:02:47			0	36270	0	0	0	28984	27590	168793	27523	1051274	44872	110774	0	0	8016	611231	0	0
2024-07-18 08:03:47			0	36298	0	0	0	29002	27600	168605	27178	1051319	44873	110781	0	0	8017	610032	0	0
2024-07-18 08:04:47			0	36344	0	0	0	29023	27610	168433	27248	1051363	44873	110789	0	0	8019	608089	0	0
2024-07-18 08:05:47			0	36376	0	0	0	29025	27610	168241	27228	1051390	44851	110790	0	0	8021	606765	0	0
2024-07-18 08:06:47			0	36400	0	0	0	29038	27620	168173	27170	1051435	44875	110795	0	0	8023	605737	0	0
2024-07-18 08:07:47			0	36439	0	0	0	29044	27630	167921	27104	1051426	44865	110797	0	0	8025	604093	0	0
2024-07-18 08:08:47			0	36477	0	0	0	29049	27630	167785	27294	1051480	44865	110799	0	0	8027	602527	0	0
2024-07-18 08:09:47			0	36505	0	0	0	29057	27640	167681	27277	1051497	44866	110802	0	0	8029	601341	0	0
2024-07-18 08:10:47			0	36548	0	0	0	29059	27630	167481	27280	1051488	44865	110803	0	0	8031	599610	0	0
2024-07-18 08:11:47			0	36592	0	0	0	29064	27650	167309	27364	1051524	44889	110805	0	0	8034	597737	0	0
2024-07-18 08:12:47			0	36629	0	0	0	29064	27650	167154	27130	1051515	44867	110805	0	0	8036	596224	0	0
2024-07-18 08:13:47			0	36663	0	0	0	29070	27650	166958	27222	1051605	44867	110807	0	0	8038	594836	0	0
2024-07-18 08:14:47			0	36695	0	0	0	29067	27660	166822	27019	1051533	44856	110806	0	0	8040	593497	0	0
2024-07-18 08:15:47			0	36733	0	0	0	29070	27660	166622	27062	1051623	44869	110807	0	0	8042	591950	0	0
2024-07-18 08:16:47			0	36781	0	0	0	29067	27660	166442	26849	1051542	44879	110806	0	0	8045	590001	0	0
2024-07-18 08:17:47			0	36814	0	0	0	29072	27650	166318	27322	1051605	44867	110808	0	0	8047	588697	0	0
2024-07-18 08:18:47			0	36859	0	0	0	29067	27660	166054	27086	1051596	44879	110806	0	0	8050	586842	0	0
2024-07-18 08:19:47			0	36884	0	0	0	29064	27670	165934	27171	1051578	44869	110805	0	0	8051	585798	0	0
2024-07-18 08:20:47			0	36918	0	0	0	29070	27670	165974	26977	1051578	44879	110807	0	0	8053	584426	0	0
2024-07-18 08:21:47			0	36944	0	0	0	29077	27670	165662	26942	1051686	44857	110810	0	0	8054	583379	0	0
2024-07-18 08:22:47			0	36977	0	0	0	29072	27670	165610	26984	1051667	44869	110808	0	0	8056	582051	0	0
2024-07-18 08:23:47			0	36993	0	0	0	29080	27670	165434	26894	1051659	44857	110811	0	0	8057	581408	0	0
2024-07-18 08:24:47			0	37012	0	0	0	29077	27670	165394	26868	1051667	44857	110810	0	0	8058	580645	0	0
2024-07-18 08:25:47			0	37042	0	0	0	29083	27680	165430	27168	1051623	44880	110812	0	0	8060	579408	0	0
2024-07-18 08:26:47			0	37046	0	0	0	29088	27680	165354	26915	1051730	44870	110814	0	0	8060	579248	0	0
2024-07-18 08:27:47			0	37069	0	0	0	29080	27680	165286	27150	1051649	44870	110811	0	0	8062	578327	0	0
2024-07-18 08:28:47			0	37108	0	0	0	29077	27680	165102	27263	1051712	44871	110810	0	0	8064	576767	0	0
2024-07-18 08:29:47			0	37103	0	0	0	29080	27680	165066	27086	1051649	44858	110811	0	0	8064	576967	0	0
2024-07-18 08:30:47			0	37119	0	0	0	29090	27670	165074	26892	1051667	44869	110815	0	0	8064	576361	0	0
2024-07-18 08:31:47			0	37144	0	0	0	29080	27680	165006	27312	1051685	44881	110811	0	0	8066	575330	0	0
2024-07-18 08:32:47			0	37160	0	0	0	29077	27680	164834	27189	1051676	44870	110810	0	0	8067	574692	0	0
2024-07-18 08:33:47			0	37173	0	0	0	29080	27690	164898	27166	1051748	44881	110811	0	0	8068	574141	0	0
2024-07-18 08:34:47			0	37175	0	0	0	29077	27680	164738	26837	1051658	44859	110810	0	0	8068	574094	0	0
2024-07-18 08:35:47			0	37183	0	0	0	29075	27680	164670	27197	1051703	44870	110809	0	0	8069	573775	0	0
2024-07-18 08:36:47			0	37188	0	0	0	29072	27680	164726	27227	1051757	44870	110808	0	0	8069	573576	0	0
2024-07-18 08:37:47			0	37223	0	0	0	29070	27670	164642	27133	1051641	44869	110807	0	0	8071	572217	0	0
2024-07-18 08:38:47			0	37209	0	0	0	29083	27680	164566	27076	1051649	44858	110812	0	0	8070	572741	0	0
2024-07-18 08:39:47			0	37205	0	0	0	29075	27680	164610	27100	1051658	44881	110809	0	0	8070	572900	0	0
2024-07-18 08:40:47			0	37225	0	0	0	29070	27670	164522	27303	1051614	44857	110807	0	0	8071	572137	0	0
2024-07-18 08:41:47			0	37223	0	0	0	29064	27680	164402	27211	1051623	44858	110805	0	0	8071	572184	0	0
2024-07-18 08:42:47			0	37246	0	0	0	29064	27680	164510	26977	1051631	44859	110805	0	0	8072	571270	0	0
2024-07-18 08:43:47			0	37259	0	0	0	29064	27660	164386	27048	1051596	44869	110805	0	0	8073	570820	0	0
2024-07-18 08:44:47			0	37279	0	0	0	29096	27690	164318	27223	1051748	44871	110817	0	0	8074	569928	0	0
2024-07-18 08:45:47			0	37288	0	0	0	29096	27680	164334	27154	1051703	44870	110817	0	0	8074	569604	0	0
2024-07-18 08:46:47			0	37298	0	0	0	29088	27680	164294	27147	1051712	44893	110814	0	0	8075	569208	0	0
2024-07-18 08:47:47			0	37291	0	0	0	29114	27690	164234	26960	1051748	44871	110824	0	0	8074	569453	0	0
2024-07-18 08:48:47			0	37290	0	0	0	29127	27690	164274	27079	1051721	44881	110829	0	0	8074	569492	0	0
2024-07-18 08:49:47			0	37293	0	0	0	29145	27690	164334	27230	1051837	44871	110836	0	0	8074	569373	0	0
2024-07-18 08:50:47			0	37297	0	0	0	29142	27700	164322	27232	1051846	44882	110835	0	0	8074	569182	0	0
2024-07-18 08:51:47			0	37316	0	0	0	29142	27710	164195	26953	1051918	44894	110835	0	0	8075	568397	0	0
2024-07-18 08:52:47			0	37303	0	0	0	29142	27710	164210	27092	1051891	44873	110835	0	0	8075	568912	0	0
2024-07-18 08:53:47			0	37321	0	0	0	29132	27710	164074	26831	1051837	44873	110831	0	0	8076	568199	0	0
2024-07-18 08:54:47			0	37341	0	0	0	29129	27720	164091	27109	1051944	44885	110830	0	0	8077	567376	0	0
2024-07-18 08:55:47			0	37345	0	0	0	29129	27720	164111	26915	1051944	44896	110830	0	0	8077	567218	0	0
2024-07-18 08:56:47			0	37339	0	0	0	29137	27720	164011	27059	1051882	44884	110833	0	0	8077	567455	0	0
2024-07-18 08:57:47			0	37347	0	0	0	29127	27720	163959	27071	1051882	44884	110829	0	0	8077	567139	0	0
2024-07-18 08:58:47			0	37348	0	0	0	29124	27730	163931	27239	1051899	44897	110828	0	0	8078	567066	0	0
2024-07-18 08:59:47			0	37353	0	0	0	29127	27720	163887	26975	1051935	44862	110829	0	0	8078	566902	0	0
2024-07-18 09:00:47			0	37366	0	0	0	29124	27720	163839	27090	1051998	44863	110828	0	0	8079	566388	0	0
2024-07-18 09:01:47			0	37374	0	0	0	29124	27710	163791	27232	1051873	44874	110828	0	0	8079	566105	0	0
2024-07-18 09:02:47			0	37365	0	0	0	29114	27730	163911	27199	1051980	44875	110824	0	0	8079	566395	0	0
2024-07-18 09:03:47			0	37372	0	0	0	29132	27730	163879	26759	1051962	44886	110831	0	0	8079	566119	0	0
2024-07-18 09:04:47			0	37376	0	0	0	29135	27730	163747	27079	1051989	44875	110832	0	0	8079	565961	0	0
2024-07-18 09:05:47			0	37378	0	0	0	29137	27740	163799	27287	1052007	44876	110833	0	0	8079	565850	0	0
2024-07-18 09:06:47			0	37371	0	0	0	29140	27740	163863	27161	1052025	44897	110834	0	0	8079	566126	0	0
2024-07-18 09:07:47			0	37372	0	0	0	29145	27740	163827	27149	1052052	44897	110836	0	0	8079	566086	0	0
2024-07-18 09:08:47			0	37374	0	0	0	29142	27750	163803	27222	1052015	44888	110835	0	0	8079	565975	0	0
2024-07-18 09:09:47			0	37385	0	0	0	29135	27740	163947	27052	1052034	44887	110832	0	0	8080	565573	0	0
2024-07-18 09:10:47			0	37370	0	0	0	29145	27730	163879	27107	1051935	44875	110836	0	0	8079	566198	0	0
2024-07-18 09:11:47			0	37374	0	0	0	29140	27740	163783	27050	1052007	44887	110834	0	0	8079	566007	0	0
2024-07-18 09:12:47			0	37385	0	0	0	29137	27740	163839	26958	1052052	44886	110833	0	0	8080	565573	0	0
2024-07-18 09:13:47			0	37387	0	0	0	29145	27750	163843	27320	1052069	44877	110836	0	0	8080	565462	0	0
2024-07-18 09:14:47			0	37388	0	0	0	29150	27740	163763	27241	1052025	44875	110838	0	0	8080	565455	0	0
2024-07-18 09:15:47			0	37417	0	0	0	29150	27750	163811	26760	1052078	44877	110838	0	0	8081	564280	0	0
2024-07-18 09:16:47			0	37395	0	0	0	29150	27750	163739	26634	1052132	44888	110838	0	0	8080	565147	0	0
2024-07-18 09:17:47			0	37389	0	0	0	29173	27750	163715	27100	1052132	44877	110847	0	0	8079	565383	0	0
2024-07-18 09:18:47			0	37397	0	0	0	29171	27760	163655	26873	1052177	44889	110846	0	0	8080	565035	0	0
2024-07-18 09:19:47			0	37405	0	0	0	29173	27760	163671	27310	1052257	44878	110847	0	0	8080	564720	0	0
2024-07-18 09:20:47			0	37395	0	0	0	29179	27770	163591	26788	1052266	44868	110849	0	0	8080	565081	0	0
2024-07-18 09:21:47			0	37396	0	0	0	29181	27760	163711	27100	1052284	44889	110850	0	0	8080	565075	0	0
2024-07-18 09:22:47			0	37390	0	0	0	29186	27770	163587	27168	1052266	44890	110852	0	0	8079	565279	0	0
2024-07-18 09:23:47			0	37375	0	0	0	29194	27770	163611	27357	1052266	44879	110855	0	0	8078	565870	0	0
2024-07-18 09:24:47			0	37396	0	0	0	29192	27770	163727	27222	1052293	44890	110854	0	0	8079	565042	0	0
2024-07-18 09:25:47			0	37396	0	0	0	29199	27780	163607	27248	1052347	44879	110857	0	0	8079	565009	0	0
2024-07-18 09:26:47			0	37386	0	0	0	29199	27790	163659	26951	1052383	44880	110857	0	0	8079	565371	0	0
2024-07-18 09:27:47			0	37399	0	0	0	29192	27790	163607	27235	1052356	44892	110854	0	0	8080	564859	0	0
2024-07-18 09:28:47			0	37416	0	0	0	29186	27790	163579	27310	1052356	44880	110852	0	0	8081	564189	0	0
2024-07-18 09:29:47			0	37413	0	0	0	29186	27780	163615	27060	1052239	44879	110852	0	0	8081	564340	0	0
2024-07-18 09:30:47			0	37401	0	0	0	29194	27790	163543	26972	1052302	44880	110855	0	0	8080	564780	0	0
2024-07-18 09:31:47			0	37405	0	0	0	29194	27790	163655	27078	1052329	44880	110855	0	0	8080	564622	0	0
2024-07-18 09:32:47			0	37395	0	0	0	29192	27790	163767	26897	1052391	44881	110854	0	0	8079	565016	0	0
2024-07-18 09:33:47			0	37391	0	0	0	29197	27800	163627	27027	1052320	44881	110856	0	0	8079	565141	0	0
2024-07-18 09:34:47			0	37397	0	0	0	29184	27790	163631	27097	1052329	44880	110851	0	0	8080	564937	0	0
2024-07-18 09:35:47			0	37380	0	0	0	29192	27790	163775	27022	1052284	44871	110854	0	0	8079	565608	0	0
2024-07-18 09:36:47			0	37379	0	0	0	29181	27790	163747	27046	1052365	44881	110850	0	0	8079	565647	0	0
2024-07-18 09:37:47			0	37364	0	0	0	29197	27810	163731	27260	1052436	44881	110856	0	0	8078	566174	0	0
2024-07-18 09:38:47			0	37355	0	0	0	29207	27810	163859	27306	1052382	44881	110860	0	0	8077	566529	0	0
2024-07-18 09:39:47			0	37350	0	0	0	29207	27810	163775	27046	1052391	44882	110860	0	0	8077	566726	0	0
2024-07-18 09:40:47			0	37349	0	0	0	29220	27820	163883	27156	1052427	44883	110865	0	0	8076	566733	0	0
2024-07-18 09:41:47			0	37345	0	0	0	29212	27810	163787	26911	1052445	44894	110862	0	0	8076	566924	0	0
2024-07-18 09:42:47			0	37344	0	0	0	29215	27820	163735	27182	1052436	44883	110863	0	0	8076	566931	0	0
2024-07-18 09:43:47			0	37327	0	0	0	29225	27810	163907	27118	1052409	44881	110867	0	0	8075	567635	0	0
2024-07-18 09:44:47			0	37336	0	0	0	29218	27820	163771	27064	1052508	44883	110864	0	0	8076	567247	0	0
2024-07-18 09:45:47			0	37351	0	0	0	29223	27820	163751	27043	1052463	44883	110866	0	0	8077	566654	0	0
2024-07-18 09:46:47			0	37352	0	0	0	29225	27830	163771	26852	1052534	44884	110867	0	0	8077	566582	0	0
2024-07-18 09:47:47			0	37349	0	0	0	29225	27820	163779	26913	1052436	44883	110867	0	0	8076	566733	0	0
2024-07-18 09:48:47			0	37346	0	0	0	29228	27830	163771	27144	1052498	44895	110868	0	0	8076	566819	0	0
2024-07-18 09:49:47			0	37364	0	0	0	29228	27830	163655	27059	1052534	44884	110868	0	0	8077	566108	0	0
2024-07-18 09:50:47			0	37345	0	0	0	29231	27830	163819	26812	1052534	44884	110869	0	0	8076	566858	0	0
2024-07-18 09:51:47			0	37368	0	0	0	29238	27830	163755	26951	1052507	44884	110872	0	0	8077	565951	0	0
2024-07-18 09:52:47			0	37365	0	0	0	29249	27840	163691	26918	1052579	44897	110876	0	0	8077	566036	0	0
2024-07-18 09:53:47			0	37370	0	0	0	29241	27840	163683	27272	1052624	44885	110873	0	0	8077	565839	0	0
2024-07-18 09:54:47			0	37360	0	0	0	29233	27840	163679	27197	1052552	44885	110870	0	0	8077	566234	0	0
2024-07-18 09:55:47			0	37353	0	0	0	29236	27840	163675	27322	1052462	44885	110871	0	0	8077	566510	0	0
2024-07-18 09:56:47			0	37362	0	0	0	29233	27840	163715	27249	1052597	44885	110870	0	0	8077	566155	0	0
2024-07-18 09:57:47			0	37359	0	0	0	29233	27840	163743	27128	1052579	44885	110870	0	0	8077	566273	0	0
2024-07-18 09:58:47			0	37363	0	0	0	29241	27840	163683	27137	1052579	44885	110873	0	0	8077	566115	0	0
2024-07-18 09:59:47			0	37348	0	0	0	29257	27850	163835	26840	1052704	44898	110879	0	0	8076	566675	0	0
2024-07-18 10:00:47			0	37340	0	0	0	29262	27860	163835	27183	1052686	44899	110881	0	0	8075	566958	0	0
2024-07-18 10:01:47			0	37328	0	0	0	29272	27860	163811	27033	1052722	44900	110885	0	0	8075	567432	0	0
2024-07-18 10:02:47			0	37308	0	0	0	29280	27860	163898	27303	1052695	44888	110888	0	0	8073	568223	0	0
2024-07-18 10:03:47			0	37336	0	0	0	29277	27870	163895	27008	1052785	44888	110887	0	0	8075	567083	0	0
2024-07-18 10:04:47			0	37313	0	0	0	29280	27880	163958	26963	1052829	44878	110888	0	0	8074	567959	0	0
2024-07-18 10:05:47			0	37307	0	0	0	29293	27880	163982	27003	1052802	44889	110893	0	0	8073	568197	0	0
2024-07-18 10:06:47			0	37301	0	0	0	29293	27880	163878	27187	1052838	44901	110893	0	0	8073	568434	0	0
2024-07-18 10:07:47			0	37302	0	0	0	29301	27890	163954	27059	1052874	44901	110896	0	0	8073	568362	0	0
2024-07-18 10:08:47			0	37290	0	0	0	29301	27890	163990	27241	1052883	44901	110896	0	0	8072	568836	0	0
2024-07-18 10:09:47			0	37291	0	0	0	29314	27890	163906	26955	1052910	44901	110901	0	0	8072	568797	0	0
2024-07-18 10:10:47			0	37299	0	0	0	29306	27900	163886	27109	1052918	44891	110898	0	0	8072	568448	0	0
2024-07-18 10:11:47			0	37309	0	0	0	29309	27890	163846	26930	1052936	44890	110899	0	0	8073	568085	0	0
2024-07-18 10:12:47			0	37308	0	0	0	29306	27900	163826	27319	1052873	44903	110898	0	0	8073	568092	0	0
2024-07-18 10:13:47			0	37328	0	0	0	29303	27890	163771	27293	1052936	44890	110897	0	0	8074	567334	0	0
2024-07-18 10:14:47			0	37328	0	0	0	29314	27910	163899	27022	1052936	44892	110901	0	0	8074	567268	0	0
2024-07-18 10:15:47			0	37327	0	0	0	29309	27910	163807	27215	1052972	44903	110899	0	0	8074	567308	0	0
2024-07-18 10:16:47			0	37323	0	0	0	29306	27910	163775	27189	1052936	44903	110898	0	0	8074	567466	0	0
2024-07-18 10:17:47			0	37336	0	0	0	29311	27900	163719	27256	1052954	44892	110900	0	0	8075	566985	0	0
2024-07-18 10:18:47			0	37348	0	0	0	29316	27920	163715	27246	1052981	44893	110902	0	0	8075	566446	0	0
2024-07-18 10:19:47			0	37344	0	0	0	29311	27910	163703	27109	1052972	44892	110900	0	0	8075	566637	0	0
2024-07-18 10:20:47			0	37336	0	0	0	29316	27910	163727	27260	1052999	44903	110902	0	0	8074	566952	0	0
2024-07-18 10:21:47			0	37358	0	0	0	29319	27920	163675	27111	1052981	44893	110903	0	0	8076	566051	0	0
2024-07-18 10:22:47			0	37343	0	0	0	29319	27920	163703	27010	1052954	44893	110903	0	0	8075	566643	0	0
2024-07-18 10:23:47			0	37354	0	0	0	29324	27930	163727	27154	1052972	44895	110905	0	0	8075	566177	0	0
2024-07-18 10:24:47			0	37356	0	0	0	29324	27920	163635	27145	1053008	44893	110905	0	0	8076	566130	0	0
2024-07-18 10:25:47			0	37352	0	0	0	29329	27920	163691	26991	1053071	44883	110907	0	0	8075	566288	0	0
2024-07-18 10:26:47			0	37367	0	0	0	29345	27930	163603	27000	1053080	44906	110913	0	0	8076	565664	0	0
2024-07-18 10:27:47			0	37368	0	0	0	29342	27930	163667	27102	1053053	44906	110912	0	0	8076	565624	0	0
2024-07-18 10:28:47			0	37381	0	0	0	29350	27930	163539	27053	1053115	44895	110915	0	0	8077	565112	0	0
2024-07-18 10:29:47			0	37367	0	0	0	29340	27930	163619	27414	1053062	44906	110911	0	0	8076	565664	0	0
2024-07-18 10:30:47			0	37385	0	0	0	29342	27930	163619	26991	1053106	44895	110912	0	0	8077	564954	0	0
2024-07-18 10:31:47			0	37376	0	0	0	29348	27940	163507	27206	1053106	44896	110914	0	0	8076	565277	0	0
2024-07-18 10:32:47			0	37387	0	0	0	29348	27950	163479	27145	1053169	44897	110914	0	0	8077	564810	0	0
2024-07-18 10:33:47			0	37384	0	0	0	29353	27950	163495	27150	1053142	44897	110916	0	0	8077	564929	0	0
2024-07-18 10:34:47			0	37375	0	0	0	29361	27940	163551	27039	1053124	44895	110919	0	0	8076	565316	0	0
2024-07-18 10:35:47			0	37385	0	0	0	29368	27940	163503	27024	1053160	44907	110922	0	0	8077	564922	0	0
2024-07-18 10:36:47			0	37386	0	0	0	29376	27960	163539	27024	1053213	44908	110925	0	0	8077	564817	0	0
2024-07-18 10:37:47			0	36806	0	0	0	29384	27950	165998	27241	1053232	44908	110928	0	0	8042	588003	0	0
2024-07-18 10:38:47			0	36407	0	0	0	29402	27960	167805	26942	1053303	44898	110935	0	0	8019	604264	0	0
2024-07-18 10:39:47			0	36188	0	0	0	29405	27970	168809	27332	1053258	44910	110936	0	0	8005	613303	0	0
2024-07-18 10:40:47			0	36004	0	0	0	29399	27960	169585	27147	1053303	44909	110934	0	0	7994	621036	0	0
2024-07-18 10:41:47			0	35892	0	0	0	29394	27980	170053	26987	1053339	44911	110932	0	0	7988	625683	0	0
2024-07-18 10:42:47			0	35828	0	0	0	29374	27990	170440	27114	1053347	44901	110924	0	0	7984	628355	0	0
2024-07-18 10:43:47			0	35772	0	0	0	29399	27990	170692	27306	1053320	44901	110934	0	0	7981	630731	0	0
2024-07-18 10:44:47			0	35715	0	0	0	29397	27990	171036	27351	1053383	44901	110933	0	0	7977	633156	0	0
2024-07-18 10:45:47			0	35654	0	0	0	29402	28000	171248	27019	1053392	44923	110935	0	0	7973	635722	0	0
2024-07-18 10:46:47			0	35610	0	0	0	29420	28000	171416	26887	1053419	44913	110942	0	0	7970	637604	0	0
2024-07-18 10:47:47			0	35599	0	0	0	29433	28010	171528	27092	1053437	44914	110947	0	0	7969	638039	0	0
2024-07-18 10:48:47			0	35588	0	0	0	29438	28000	171560	27064	1053509	44913	110949	0	0	7969	638547	0	0
2024-07-18 10:49:47			0	35574	0	0	0	29467	28000	171636	27301	1053509	44902	110960	0	0	7967	639147	0	0
2024-07-18 10:50:47			0	35584	0	0	0	29457	28020	171524	27197	1053535	44915	110956	0	0	7968	638645	0	0
2024-07-18 10:51:47			0	35608	0	0	0	29457	28020	171392	27277	1053652	44937	110956	0	0	7970	637616	0	0
2024-07-18 10:52:47			0	35624	0	0	0	29459	28040	171392	26998	1053625	44916	110957	0	0	7971	636858	0	0
2024-07-18 10:53:47			0	35604	0	0	0	29480	28050	171448	26868	1053669	44917	110965	0	0	7969	637677	0	0
2024-07-18 10:54:47			0	35598	0	0	0	29483	28050	171432	26970	1053723	44917	110966	0	0	7969	637934	0	0
2024-07-18 10:55:47			0	35623	0	0	0	29490	28060	171348	27010	1053822	44918	110969	0	0	7970	636827	0	0
2024-07-18 10:56:47			0	35627	0	0	0	29511	28060	171352	27341	1053750	44908	110977	0	0	7970	636656	0	0
2024-07-18 10:57:47			0	35635	0	0	0	29516	28070	171212	27008	1053866	44908	110979	0	0	7971	636277	0	0
2024-07-18 10:58:47			0	35669	0	0	0	29501	28070	171120	27268	1053875	44920	110973	0	0	7973	634825	0	0
2024-07-18 10:59:47			0	35678	0	0	0	29542	28080	171088	27286	1053857	44920	110989	0	0	7973	634404	0	0
2024-07-18 11:00:47			0	35702	0	0	0	29553	28090	171068	26951	1054018	44922	110993	0	0	7974	633345	0	0
2024-07-18 11:01:47			0	35704	0	0	0	29563	28090	171028	27137	1054018	44933	110997	0	0	7974	633260	0	0
2024-07-18 11:02:47			0	35737	0	0	0	29558	28110	170804	27213	1054063	44923	110995	0	0	7976	631782	0	0
2024-07-18 11:03:47			0	35748	0	0	0	29558	28120	170580	27128	1054144	44903	110995	0	0	7977	631277	0	0
2024-07-18 11:04:47			0	35769	0	0	0	29568	28120	170600	27433	1054144	44936	110999	0	0	7978	630385	0	0
2024-07-18 11:05:47			0	35792	0	0	0	29563	28120	170620	26955	1054162	44902	110997	0	0	7980	629409	0	0
2024-07-18 11:06:47			0	35809	0	0	0	29550	28150	170412	27131	1054134	44926	110992	0	0	7981	628580	0	0
2024-07-18 11:07:47			0	35813	0	0	0	29553	28140	170392	27194	1054143	44926	110993	0	0	7981	628447	0	0
2024-07-18 11:08:47			0	35818	0	0	0	29561	28150	170428	26845	1054188	44938	110996	0	0	7981	628198	0	0
2024-07-18 11:09:47			0	35830	0	0	0	29548	28150	170304	27045	1054188	44916	110991	0	0	7982	627690	0	0
2024-07-18 11:10:47			0	35846	0	0	0	29555	28140	170248	27244	1054179	44916	110994	0	0	7983	627050	0	0
2024-07-18 11:11:47			0	35839	0	0	0	29532	28140	170220	27206	1054179	44916	110985	0	0	7983	627346	0	0
2024-07-18 11:12:47			0	35851	0	0	0	29516	28160	170144	27241	1054233	44927	110979	0	0	7984	626766	0	0
2024-07-18 11:13:47			0	35836	0	0	0	29524	28150	170180	27211	1054134	44905	110982	0	0	7983	627436	0	0
2024-07-18 11:14:47			0	35810	0	0	0	29548	28160	170380	27092	1054233	44906	110991	0	0	7981	628501	0	0
2024-07-18 11:15:47			0	35784	0	0	0	29553	28150	170400	27346	1054224	44916	110993	0	0	7979	629640	0	0
2024-07-18 11:16:47			0	35787	0	0	0	29555	28150	170432	27203	1054215	44926	110994	0	0	7980	629512	0	0
2024-07-18 11:17:47			0	35787	0	0	0	29561	28160	170472	27130	1054242	44928	110996	0	0	7980	629476	0	0
2024-07-18 11:18:47			0	35778	0	0	0	29558	28150	170468	27159	1054224	44916	110995	0	0	7979	629894	0	0
2024-07-18 11:19:47			0	35777	0	0	0	29586	28160	170528	27429	1054296	44917	111006	0	0	7979	629900	0	0
2024-07-18 11:20:47			0	35759	0	0	0	29594	28170	170628	27326	1054331	44928	111009	0	0	7977	630628	0	0
2024-07-18 11:21:47			0	35738	0	0	0	29615	28170	170672	27000	1054421	44918	111017	0	0	7976	631520	0	0
2024-07-18 11:22:47			0	35741	0	0	0	29638	28180	170652	27024	1054439	44930	111026	0	0	7976	631356	0	0
2024-07-18 11:23:47			0	35755	0	0	0	29641	28180	170688	27229	1054493	44930	111027	0	0	7976	630761	0	0
2024-07-18 11:24:47			0	35770	0	0	0	29636	28200	170548	27003	1054465	44932	111025	0	0	7977	630052	0	0
2024-07-18 11:25:47			0	35773	0	0	0	29615	28210	170372	27092	1054492	44933	111017	0	0	7978	629888	0	0
2024-07-18 11:26:47			0	35816	0	0	0	29638	28210	170296	27003	1054573	44933	111026	0	0	7980	628065	0	0
2024-07-18 11:27:47			0	35818	0	0	0	29631	28200	170368	27005	1054528	44921	111023	0	0	7980	628017	0	0
2024-07-18 11:28:47			0	35802	0	0	0	29638	28210	170272	27203	1054573	44933	111026	0	0	7979	628659	0	0
2024-07-18 11:29:47			0	35800	0	0	0	29633	28220	170308	27118	1054555	44946	111024	0	0	7979	628707	0	0
2024-07-18 11:30:47			0	35798	0	0	0	29625	28220	170380	27093	1054609	44923	111021	0	0	7979	628792	0	0
2024-07-18 11:31:47			0	35836	0	0	0	29620	28230	170212	26698	1054572	44924	111019	0	0	7982	627147	0	0
2024-07-18 11:32:47			0	35828	0	0	0	29623	28220	170220	26922	1054590	44923	111020	0	0	7981	627521	0	0
2024-07-18 11:33:47			0	35847	0	0	0	29625	28230	170180	26998	1054572	44913	111021	0	0	7982	626681	0	0
2024-07-18 11:34:47			0	35864	0	0	0	29636	28230	170161	27034	1054572	44924	111025	0	0	7983	625963	0	0
2024-07-18 11:35:47			0	35867	0	0	0	29638	28220	170061	27008	1054617	44923	111026	0	0	7983	625872	0	0
2024-07-18 11:36:47			0	35864	0	0	0	29641	28220	170065	27019	1054590	44923	111027	0	0	7983	625999	0	0
2024-07-18 11:37:47			0	35856	0	0	0	29633	28230	170152	27078	1054689	44924	111024	0	0	7983	626301	0	0
2024-07-18 11:38:47			0	35818	0	0	0	29641	28240	170116	27005	1054644	44936	111027	0	0	7980	627872	0	0
2024-07-18 11:39:47			0	35850	0	0	0	29641	28240	170180	27173	1054644	44936	111027	0	0	7982	626518	0	0
2024-07-18 11:40:47			0	35824	0	0	0	29654	28250	170272	27121	1054778	44937	111032	0	0	7981	627582	0	0
2024-07-18 11:41:47			0	35841	0	0	0	29680	28260	170136	26968	1054787	44949	111042	0	0	7981	626827	0	0
2024-07-18 11:42:47			0	35835	0	0	0	29683	28260	170152	26939	1054904	44950	111043	0	0	7981	627080	0	0
2024-07-18 11:43:47			0	35867	0	0	0	29701	28270	170113	26948	1054859	44950	111050	0	0	7983	625692	0	0
2024-07-18 11:44:47			0	35857	0	0	0	29745	28280	170092	26991	1054994	44952	111067	0	0	7981	626078	0	0
2024-07-18 11:45:47			0	35872	0	0	0	29755	28280	169989	26793	1055075	44952	111071	0	0	7982	625444	0	0
2024-07-18 11:46:47			0	35871	0	0	0	29732	28310	169969	26830	1055119	44944	111062	0	0	7983	625378	0	0
2024-07-18 11:47:47			0	35891	0	0	0	29729	28310	169789	26974	1055236	44944	111061	0	0	7984	624535	0	0
2024-07-18 11:48:47			0	35903	0	0	0	29729	28330	169765	26987	1055244	44946	111061	0	0	7985	623957	0	0
2024-07-18 11:49:47			0	35910	0	0	0	29742	28330	169745	26733	1055262	44957	111066	0	0	7985	623662	0	0
2024-07-18 11:50:47			0	35920	0	0	0	29709	28340	169601	26899	1055235	44958	111053	0	0	7986	623205	0	0
2024-07-18 11:51:47			0	35944	0	0	0	29683	28350	169529	27000	1055190	44936	111043	0	0	7988	622159	0	0
2024-07-18 11:52:47			0	35945	0	0	0	29664	28350	169557	26750	1055199	44936	111036	0	0	7988	622117	0	0
2024-07-18 11:53:47			0	35951	0	0	0	29646	28340	169529	27157	1055100	44914	111029	0	0	7989	621901	0	0
2024-07-18 11:54:47			0	35960	0	0	0	29646	28340	169409	27024	1055100	44914	111029	0	0	7990	621522	0	0
2024-07-18 11:55:47			0	35995	0	0	0	29670	28320	169345	27098	1055011	44922	111038	0	0	7991	620125	0	0
2024-07-18 11:56:47			0	35997	0	0	0	29680	28340	169301	26965	1055038	44934	111042	0	0	7991	619969	0	0
2024-07-18 11:57:47			0	35990	0	0	0	29706	28320	169357	27104	1055038	44922	111052	0	0	7990	620334	0	0
2024-07-18 11:58:47			0	35995	0	0	0	29732	28340	169401	26857	1055145	44934	111062	0	0	7990	620053	0	0
2024-07-18 11:59:47			0	36042	0	0	0	29714	28340	169245	27159	1055145	44934	111055	0	0	7993	618084	0	0
2024-07-18 12:00:47			0	36037	0	0	0	29732	28340	169213	27036	1055145	44934	111062	0	0	7993	618293	0	0
2024-07-18 12:01:47			0	36056	0	0	0	29735	28340	169033	26894	1055172	44946	111063	0	0	7994	617498	0	0
2024-07-18 12:02:47			0	36109	0	0	0	29750	28340	168817	26776	1055235	44924	111069	0	0	7997	615284	0	0
2024-07-18 12:03:47			0	36130	0	0	0	29753	28330	168769	27270	1055244	44946	111070	0	0	7998	614444	0	0
2024-07-18 12:04:47			0	36136	0	0	0	29755	28350	168717	26915	1055217	44925	111071	0	0	7998	614123	0	0
2024-07-18 12:05:47			0	36169	0	0	0	29740	28360	168609	27029	1055262	44925	111065	0	0	8001	612713	0	0
2024-07-18 12:06:47			0	36157	0	0	0	29742	28350	168565	27183	1055226	44936	111066	0	0	8000	613248	0	0
2024-07-18 12:07:47			0	36165	0	0	0	29763	28360	168613	27055	1055351	44949	111074	0	0	8000	612880	0	0
2024-07-18 12:08:47			0	36188	0	0	0	29768	28370	168621	26904	1055333	44950	111076	0	0	8001	611888	0	0
2024-07-18 12:09:47			0	36195	0	0	0	29774	28370	168441	26915	1055252	44938	111078	0	0	8002	611597	0	0
2024-07-18 12:10:47			0	36188	0	0	0	29781	28370	168421	27176	1055360	44938	111081	0	0	8001	611888	0	0
2024-07-18 12:11:47			0	36206	0	0	0	29779	28370	168477	26984	1055342	44961	111080	0	0	8002	611140	0	0
2024-07-18 12:12:47			0	36220	0	0	0	29797	28380	168377	27272	1055405	44951	111087	0	0	8003	610524	0	0
2024-07-18 12:13:47			0	36237	0	0	0	29807	28380	168293	26923	1055495	44951	111091	0	0	8004	609819	0	0
2024-07-18 12:14:47			0	36275	0	0	0	29805	28380	168165	27008	1055548	44939	111090	0	0	8006	608245	0	0
2024-07-18 12:15:47			0	36309	0	0	0	29818	28390	167941	27104	1055503	44952	111095	0	0	8008	606804	0	0
2024-07-18 12:16:47			0	36307	0	0	0	29802	28400	168001	26887	1055521	44953	111089	0	0	8008	606852	0	0
2024-07-18 12:17:47			0	36309	0	0	0	29810	28400	167881	27241	1055548	44953	111092	0	0	8008	606769	0	0
2024-07-18 12:18:47			0	36315	0	0	0	29799	28410	167961	27076	1055539	44942	111088	0	0	8009	606486	0	0
2024-07-18 12:19:47			0	36310	0	0	0	29818	28410	167865	26953	1055593	44954	111095	0	0	8008	606693	0	0
2024-07-18 12:20:47			0	36311	0	0	0	29867	28420	167865	26948	1055710	44965	111114	0	0	8007	606616	0	0
2024-07-18 12:21:47			0	36323	0	0	0	29885	28430	167841	27258	1055817	44956	111121	0	0	8008	606086	0	0
2024-07-18 12:22:47			0	36325	0	0	0	29909	28450	167741	26762	1055952	44968	111130	0	0	8008	605933	0	0
2024-07-18 12:23:47			0	36355	0	0	0	29929	28460	167565	26890	1056005	44958	111138	0	0	8009	604661	0	0
2024-07-18 12:24:47			0	36370	0	0	0	29937	28470	167613	27045	1056041	44970	111141	0	0	8010	604008	0	0
2024-07-18 12:25:47			0	36396	0	0	0	29937	28490	167533	27007	1056103	44972	111141	0	0	8011	602869	0	0
2024-07-18 12:26:47			0	36394	0	0	0	29932	28490	167225	26759	1056085	44960	111139	0	0	8011	602951	0	0
2024-07-18 12:27:47			0	36431	0	0	0	29929	28490	167097	27279	1056103	44950	111138	0	0	8014	601431	0	0
2024-07-18 12:28:47			0	36467	0	0	0	29948	28500	167057	27345	1056103	44962	111145	0	0	8016	599920	0	0
2024-07-18 12:29:47			0	36486	0	0	0	29945	28510	166861	26864	1056112	44963	111144	0	0	8017	599107	0	0
2024-07-18 12:30:47			0	36518	0	0	0	29942	28510	166821	27015	1056202	44975	111143	0	0	8019	597798	0	0
2024-07-18 12:31:47			0	36552	0	0	0	29963	28530	166777	27197	1056265	44965	111151	0	0	8021	596340	0	0
2024-07-18 12:32:47			0	36550	0	0	0	29958	28530	166669	27189	1056318	44965	111149	0	0	8020	596422	0	0
2024-07-18 12:33:47			0	36577	0	0	0	29935	28540	166621	26948	1056300	44965	111140	0	0	8023	595286	0	0
2024-07-18 12:34:47			0	36562	0	0	0	29937	28540	166509	27291	1056282	44966	111141	0	0	8022	595898	0	0
2024-07-18 12:35:47			0	36580	0	0	0	29963	28550	166501	26913	1056453	44957	111151	0	0	8022	595129	0	0
2024-07-18 12:36:47			0	36572	0	0	0	29994	28560	166521	27076	1056417	44978	111163	0	0	8021	595421	0	0
2024-07-18 12:37:47			0	36594	0	0	0	30002	28570	166538	26915	1056488	44969	111166	0	0	8023	594490	0	0
2024-07-18 12:38:47			0	36584	0	0	0	30002	28570	166541	27086	1056488	44958	111166	0	0	8022	594898	0	0
2024-07-18 12:39:47			0	36598	0	0	0	29997	28580	166494	27216	1056506	44958	111164	0	0	8023	594293	0	0
2024-07-18 12:40:47			0	36614	0	0	0	29986	28590	166478	27315	1056524	44959	111160	0	0	8024	593608	0	0
2024-07-18 12:41:47			0	36607	0	0	0	29997	28580	166342	26786	1056488	44970	111164	0	0	8023	593927	0	0
2024-07-18 12:42:47			0	36588	0	0	0	29986	28590	166410	27000	1056524	44971	111160	0	0	8023	594666	0	0
2024-07-18 12:43:47			0	36590	0	0	0	29979	28590	166393	26984	1056614	44960	111157	0	0	8023	594584	0	0
2024-07-18 12:44:47			0	36613	0	0	0	29968	28590	166402	27015	1056587	44983	111153	0	0	8024	593648	0	0
2024-07-18 12:45:47			0	36612	0	0	0	29973	28600	166386	26861	1056631	44960	111155	0	0	8024	593655	0	0
2024-07-18 12:46:47			0	36587	0	0	0	29976	28600	166373	26814	1056515	44950	111156	0	0	8023	594672	0	0
2024-07-18 12:47:47			0	36590	0	0	0	29986	28600	166505	27079	1056542	44950	111160	0	0	8023	594550	0	0
2024-07-18 12:48:47			0	36569	0	0	0	29976	28590	166425	27244	1056479	44960	111156	0	0	8022	595440	0	0
2024-07-18 12:49:47			0	36554	0	0	0	29992	28600	166553	27086	1056515	44960	111162	0	0	8020	596017	0	0
2024-07-18 12:50:47			0	36509	0	0	0	29976	28590	166741	27223	1056524	44959	111156	0	0	8018	597889	0	0
2024-07-18 12:51:47			0	36504	0	0	0	29981	28590	166809	27189	1056587	44960	111158	0	0	8018	598093	0	0
2024-07-18 12:52:47			0	36487	0	0	0	29984	28600	166849	27185	1056577	44972	111159	0	0	8017	598754	0	0
2024-07-18 12:53:47			0	36489	0	0	0	29999	28610	166813	26955	1056613	44961	111165	0	0	8017	598638	0	0
2024-07-18 12:54:47			0	36487	0	0	0	30028	28610	166921	27057	1056757	44974	111176	0	0	8016	598719	0	0
2024-07-18 12:55:47			0	36479	0	0	0	30010	28630	166813	27251	1056792	44964	111169	0	0	8016	598977	0	0
2024-07-18 12:56:47			0	36476	0	0	0	29989	28640	166829	27178	1056828	44976	111161	0	0	8016	599065	0	0
2024-07-18 12:57:47			0	36451	0	0	0	29984	28640	166997	27253	1056774	44976	111159	0	0	8015	600089	0	0
2024-07-18 12:58:47			0	36421	0	0	0	29979	28640	167077	27019	1056783	44965	111157	0	0	8013	601319	0	0
2024-07-18 12:59:47			0	36397	0	0	0	30018	28640	167085	26935	1056828	44976	111172	0	0	8011	602305	0	0
2024-07-18 13:00:47			0	36379	0	0	0	30012	28660	167365	26831	1056900	44967	111170	0	0	8010	602975	0	0
2024-07-18 13:01:47			0	36348	0	0	0	30002	28660	167465	27071	1056810	44956	111166	0	0	8008	604250	0	0
2024-07-18 13:02:47			0	36335	0	0	0	30018	28650	167457	27152	1056792	44965	111172	0	0	8007	604820	0	0
2024-07-18 13:03:47			0	36298	0	0	0	30015	28660	167569	26934	1056729	44956	111171	0	0	8005	606311	0	0
2024-07-18 13:04:47			0	36321	0	0	0	30007	28650	167481	27067	1056739	44943	111168	0	0	8007	605397	0	0
2024-07-18 13:05:47			0	36331	0	0	0	30038	28650	167585	27225	1056766	44965	111180	0	0	8007	604985	0	0
2024-07-18 13:06:47			0	36344	0	0	0	30041	28630	167501	26878	1056712	44954	111181	0	0	8007	604520	0	0
2024-07-18 13:07:47			0	36360	0	0	0	30064	28640	167433	27237	1056810	44965	111190	0	0	8008	603826	0	0
2024-07-18 13:08:47			0	36366	0	0	0	30075	28650	167473	27277	1056855	44966	111194	0	0	8008	603544	0	0
2024-07-18 13:09:47			0	36391	0	0	0	30072	28660	167205	26951	1056945	44978	111193	0	0	8010	602482	0	0
2024-07-18 13:10:47			0	36404	0	0	0	30085	28660	167213	27239	1056954	44979	111198	0	0	8010	601948	0	0
2024-07-18 13:11:47			0	36425	0	0	0	30109	28680	167113	27218	1057034	44981	111207	0	0	8011	601016	0	0
2024-07-18 13:12:47			0	36419	0	0	0	30109	28680	167045	27112	1056999	44980	111207	0	0	8011	601262	0	0
2024-07-18 13:13:47			0	36420	0	0	0	30106	28690	167005	27102	1057133	44981	111206	0	0	8011	601186	0	0
2024-07-18 13:14:47			0	36432	0	0	0	30111	28700	167013	26963	1057178	44982	111208	0	0	8012	600659	0	0
2024-07-18 13:15:47			0	36433	0	0	0	30127	28710	166973	26913	1057142	44995	111214	0	0	8012	600584	0	0
2024-07-18 13:16:47			0	36442	0	0	0	30116	28710	166901	27026	1057187	44994	111210	0	0	8012	600215	0	0
2024-07-18 13:17:47			0	36437	0	0	0	30109	28720	166909	27154	1057204	44983	111207	0	0	8012	600385	0	0
2024-07-18 13:18:47			0	36431	0	0	0	30111	28710	166957	26935	1057196	44972	111208	0	0	8012	600666	0	0
2024-07-18 13:19:47			0	36445	0	0	0	30124	28720	166981	27010	1057186	44973	111213	0	0	8012	600057	0	0
2024-07-18 13:20:47			0	36472	0	0	0	30140	28720	166741	27241	1057204	44983	111219	0	0	8014	598952	0	0
2024-07-18 13:21:47			0	36457	0	0	0	30166	28720	166845	27140	1057258	44983	111229	0	0	8012	599566	0	0
2024-07-18 13:22:47			0	36476	0	0	0	30179	28730	166937	27050	1057384	44984	111234	0	0	8013	598753	0	0
2024-07-18 13:23:47			0	36444	0	0	0	30181	28740	166933	26963	1057429	44974	111235	0	0	8011	600028	0	0
2024-07-18 13:24:47			0	36429	0	0	0	30186	28740	167013	27303	1057411	44998	111237	0	0	8010	600643	0	0
2024-07-18 13:25:47			0	36423	0	0	0	30179	28760	166957	26937	1057491	44988	111234	0	0	8010	600820	0	0
2024-07-18 13:26:47			0	36422	0	0	0	30171	28760	167025	26726	1057527	44988	111231	0	0	8010	600861	0	0
2024-07-18 13:27:47			0	36411	0	0	0	30166	28770	166997	27119	1057563	44977	111229	0	0	8010	601277	0	0
2024-07-18 13:28:47			0	36413	0	0	0	30155	28770	166961	26942	1057536	44977	111225	0	0	8010	601195	0	0
2024-07-18 13:29:47			0	36416	0	0	0	30161	28770	166885	27072	1057428	44988	111227	0	0	8010	601072	0	0
2024-07-18 13:30:47			0	36416	0	0	0	30163	28760	167009	26649	1057554	45000	111228	0	0	8010	601107	0	0
2024-07-18 13:31:47			0	36423	0	0	0	30184	28770	166873	27048	1057563	44988	111236	0	0	8010	600785	0	0
2024-07-18 13:32:47			0	36411	0	0	0	30176	28780	166909	27123	1057581	44990	111233	0	0	8010	601242	0	0
2024-07-18 13:33:47			0	36404	0	0	0	30197	28780	166961	27116	1057617	44979	111241	0	0	8009	601529	0	0
2024-07-18 13:34:47			0	36423	0	0	0	30202	28780	166901	27256	1057644	44979	111243	0	0	8010	600750	0	0
2024-07-18 13:35:47			0	36476	0	0	0	30215	28790	166741	27072	1057688	45013	111248	0	0	8013	598545	0	0
2024-07-18 13:36:47			0	36508	0	0	0	30228	28800	166641	27135	1057751	45014	111253	0	0	8015	597203	0	0
2024-07-18 13:37:47			0	36536	0	0	0	30272	28810	166481	27303	1057859	45003	111270	0	0	8016	596026	0	0
2024-07-18 13:38:47			0	36556	0	0	0	30296	28830	166265	27135	1057939	45005	111279	0	0	8017	595142	0	0
2024-07-18 13:39:47			0	36579	0	0	0	30257	28830	166261	27177	1057948	45017	111264	0	0	8019	594206	0	0
2024-07-18 13:40:47			0	36575	0	0	0	30241	28850	166133	27114	1057957	44997	111258	0	0	8019	594300	0	0
2024-07-18 13:41:47			0	36549	0	0	0	30220	28850	166205	27159	1057930	44997	111250	0	0	8018	595358	0	0
2024-07-18 13:42:47			0	36526	0	0	0	30212	28860	166357	27072	1057939	44987	111247	0	0	8016	596261	0	0
2024-07-18 13:43:47			0	36497	0	0	0	30194	28850	166425	26850	1057957	44986	111240	0	0	8015	597479	0	0
2024-07-18 13:44:47			0	36492	0	0	0	30186	28850	166529	27211	1057876	44986	111237	0	0	8015	597683	0	0
2024-07-18 13:45:47			0	36454	0	0	0	30202	28850	166597	26920	1057822	44986	111243	0	0	8012	599237	0	0
2024-07-18 13:46:47			0	36416	0	0	0	30225	28850	166717	27116	1057876	44986	111252	0	0	8010	600793	0	0
2024-07-18 13:47:47			0	36405	0	0	0	30202	28850	166825	27211	1057867	44986	111243	0	0	8009	601244	0	0
2024-07-18 13:48:47			0	36372	0	0	0	30215	28850	166945	26826	1057948	44986	111248	0	0	8007	602599	0	0
2024-07-18 13:49:47			0	36345	0	0	0	30192	28850	167093	27015	1057903	44974	111239	0	0	8006	603709	0	0
2024-07-18 13:50:47			0	36320	0	0	0	30199	28850	167093	26953	1057849	44974	111242	0	0	8004	604738	0	0
2024-07-18 13:51:47			0	36322	0	0	0	30205	28850	167177	27128	1057930	44986	111244	0	0	8004	604655	0	0
2024-07-18 13:52:47			0	36307	0	0	0	30225	28850	167225	26942	1057948	44986	111252	0	0	8003	605273	0	0
2024-07-18 13:53:47			0	36313	0	0	0	30275	28860	167313	27171	1058136	44999	111271	0	0	8003	604991	0	0
2024-07-18 13:54:47			0	36309	0	0	0	30246	28880	167389	27093	1058172	45011	111260	0	0	8003	605085	0	0
2024-07-18 13:55:47			0	36307	0	0	0	30262	28880	167273	27225	1058172	45000	111266	0	0	8003	605168	0	0
2024-07-18 13:56:47			0	36323	0	0	0	30283	28900	167221	26989	1058253	44979	111274	0	0	8003	604439	0	0
2024-07-18 13:57:47			0	36326	0	0	0	30322	28900	167301	26942	1058262	45002	111289	0	0	8003	604315	0	0
2024-07-18 13:58:47			0	36340	0	0	0	30348	28910	167129	26849	1058361	45003	111299	0	0	8003	603704	0	0
2024-07-18 13:59:47			0	36381	0	0	0	30293	28920	167005	27003	1058343	44992	111278	0	0	8007	601985	0	0
2024-07-18 14:00:47			0	36399	0	0	0	30277	28910	166973	26876	1058352	44981	111272	0	0	8008	601281	0	0
2024-07-18 14:01:47			0	36386	0	0	0	30288	28910	166961	26942	1058307	44992	111276	0	0	8007	601814	0	0
2024-07-18 14:02:47			0	36433	0	0	0	30301	28920	166773	26870	1058343	44992	111281	0	0	8010	599853	0	0
2024-07-18 14:03:47			0	36455	0	0	0	30254	28920	166801	27007	1058352	44970	111263	0	0	8012	598953	0	0
2024-07-18 14:04:47			0	36425	0	0	0	30264	28920	166661	26821	1058316	44981	111267	0	0	8010	600181	0	0
2024-07-18 14:05:47			0	36447	0	0	0	30277	28920	166717	27154	1058316	44969	111272	0	0	8011	599280	0	0
2024-07-18 14:06:47			0	36468	0	0	0	30303	28920	166653	26890	1058379	44970	111282	0	0	8012	598421	0	0
2024-07-18 14:07:47			0	36489	0	0	0	30309	28930	166461	26984	1058361	44983	111284	0	0	8013	597529	0	0
2024-07-18 14:08:47			0	36517	0	0	0	30335	28930	166393	26831	1058396	45005	111294	0	0	8014	596386	0	0
2024-07-18 14:09:47			0	36514	0	0	0	30345	28950	166385	27170	1058504	44996	111298	0	0	8014	596439	0	0
2024-07-18 14:10:47			0	36522	0	0	0	30363	28960	166289	27140	1058522	44997	111305	0	0	8014	596078	0	0
2024-07-18 14:11:47			0	36536	0	0	0	30332	28970	166301	27147	1058504	45008	111293	0	0	8015	595474	0	0
2024-07-18 14:12:47			0	36543	0	0	0	30303	28970	166273	27287	1058459	44987	111282	0	0	8016	595188	0	0
2024-07-18 14:13:47			0	36520	0	0	0	30306	28950	166333	26963	1058450	44985	111283	0	0	8015	596195	0	0
2024-07-18 14:14:47			0	36552	0	0	0	30332	28960	166365	26909	1058441	44986	111293	0	0	8016	594857	0	0
2024-07-18 14:15:47			0	36531	0	0	0	30379	28950	166277	27107	1058513	45019	111311	0	0	8014	595746	0	0
2024-07-18 14:16:47			0	36533	0	0	0	30384	28960	166277	27142	1058549	45019	111313	0	0	8014	595630	0	0
2024-07-18 14:17:47			0	36532	0	0	0	30405	28970	166401	27334	1058647	45009	111321	0	0	8014	595636	0	0
2024-07-18 14:18:47			0	36530	0	0	0	30386	28980	166233	27362	1058719	45010	111314	0	0	8014	595683	0	0
2024-07-18 14:19:47			0	36552	0	0	0	30371	28990	166321	26890	1058674	45021	111308	0	0	8016	594753	0	0
2024-07-18 14:20:47			0	36571	0	0	0	30371	28990	166177	27116	1058602	44989	111308	0	0	8017	593980	0	0
2024-07-18 14:21:47			0	36563	0	0	0	30355	28990	166077	26878	1058647	44999	111302	0	0	8017	594305	0	0
2024-07-18 14:22:47			0	36586	0	0	0	30394	28990	165865	26981	1058674	44999	111317	0	0	8017	593370	0	0
2024-07-18 14:23:47			0	36603	0	0	0	30420	29010	165978	26941	1058818	45011	111327	0	0	8018	592611	0	0
2024-07-18 14:24:47			0	36620	0	0	0	30407	29010	165790	27007	1058907	45012	111322	0	0	8019	591921	0	0
2024-07-18 14:25:47			0	36653	0	0	0	30415	29020	165494	27092	1058808	45002	111325	0	0	8021	590550	0	0
2024-07-18 14:26:47			0	36699	0	0	0	30449	29020	165394	27216	1058925	45014	111338	0	0	8023	588688	0	0
2024-07-18 14:27:47			0	36757	0	0	0	30501	29030	165050	27182	1059042	45014	111358	0	0	8026	586314	0	0
2024-07-18 14:28:47			0	36851	0	0	0	30527	29050	164790	27124	1059105	45039	111368	0	0	8031	582467	0	0
2024-07-18 14:29:47			0	36888	0	0	0	30503	29060	164542	27192	1059105	45018	111359	0	0	8034	580950	0	0
2024-07-18 14:30:47			0	36931	0	0	0	30477	29070	164382	27043	1059060	45007	111349	0	0	8037	579196	0	0
2024-07-18 14:31:47			0	36943	0	0	0	30433	29060	164194	27050	1059069	45017	111332	0	0	8038	578750	0	0
2024-07-18 14:32:47			0	36948	0	0	0	30420	29050	164238	27126	1058979	45005	111327	0	0	8039	578584	0	0
2024-07-18 14:33:47			0	36922	0	0	0	30399	29050	164158	26982	1058952	44983	111319	0	0	8037	579623	0	0
2024-07-18 14:34:47			0	36918	0	0	0	30407	29040	164338	26996	1058880	44994	111322	0	0	8037	579817	0	0
2024-07-18 14:35:47			0	36890	0	0	0	30428	29030	164350	26970	1058889	45003	111330	0	0	8035	580971	0	0
2024-07-18 14:36:47			0	36857	0	0	0	30425	29040	164646	26878	1058961	44994	111329	0	0	8033	582260	0	0
2024-07-18 14:37:47			0	36853	0	0	0	30394	29050	164602	26899	1058925	44994	111317	0	0	8034	582386	0	0
2024-07-18 14:38:47			0	36846	0	0	0	30384	29040	164714	26906	1058826	45005	111313	0	0	8033	582701	0	0
2024-07-18 14:39:47			0	36814	0	0	0	30358	29040	164754	26913	1058817	44982	111303	0	0	8032	583986	0	0
2024-07-18 14:40:47			0	36789	0	0	0	30327	29020	164866	26682	1058736	44981	111291	0	0	8031	585059	0	0
2024-07-18 14:41:47			0	36773	0	0	0	30322	29020	164970	27083	1058682	44970	111289	0	0	8030	585703	0	0
2024-07-18 14:42:47			0	36755	0	0	0	30306	29020	164982	27086	1058593	44980	111283	0	0	8029	586428	0	0
2024-07-18 14:43:47			0	36726	0	0	0	30290	29000	165114	26804	1058566	44978	111277	0	0	8028	587666	0	0
2024-07-18 14:44:47			0	36685	0	0	0	30285	28990	165394	27020	1058485	44999	111275	0	0	8025	589357	0	0
2024-07-18 14:45:47			0	36659	0	0	0	30319	28990	165502	26932	1058566	44988	111288	0	0	8023	590409	0	0
2024-07-18 14:46:47			0	36656	0	0	0	30298	28970	165566	26809	1058486	44987	111280	0	0	8023	590599	0	0
2024-07-18 14:47:47			0	36646	0	0	0	30322	28980	165598	26856	1058584	44999	111289	0	0	8022	590970	0	0
2024-07-18 14:48:47			0	36612	0	0	0	30329	28990	165798	26965	1058647	45010	111292	0	0	8020	592315	0	0
2024-07-18 14:49:47			0	36608	0	0	0	30285	28990	165746	27104	1058656	45010	111275	0	0	8021	592477	0	0
2024-07-18 14:50:47			0	36602	0	0	0	30392	29000	165786	27118	1058638	44990	111316	0	0	8019	592686	0	0
2024-07-18 14:51:47			0	36596	0	0	0	30428	28990	165869	27072	1058674	44999	111330	0	0	8018	592964	0	0
2024-07-18 14:52:47			0	36577	0	0	0	30418	29000	165941	27100	1058800	45023	111326	0	0	8017	593702	0	0
2024-07-18 14:53:47			0	36575	0	0	0	30449	29000	165833	26849	1058881	45023	111338	0	0	8016	593783	0	0
2024-07-18 14:54:47			0	36575	0	0	0	30441	29020	165985	26977	1059006	45037	111335	0	0	8016	593714	0	0
2024-07-18 14:55:47			0	36584	0	0	0	30498	29030	165873	27194	1058997	45026	111357	0	0	8016	593314	0	0
2024-07-18 14:56:47			0	36605	0	0	0	30441	29050	165898	26816	1059078	45039	111335	0	0	8018	592392	0	0
2024-07-18 14:57:47			0	36631	0	0	0	30376	29040	165634	26958	1059015	45005	111310	0	0	8021	591372	0	0
2024-07-18 14:58:47			0	36652	0	0	0	30363	29050	165610	27093	1058970	45005	111305	0	0	8022	590487	0	0
2024-07-18 14:59:47			0	36669	0	0	0	30350	29050	165574	27203	1058862	45005	111300	0	0	8023	589799	0	0
2024-07-18 15:00:47			0	36676	0	0	0	30335	29040	165450	27050	1058880	45005	111294	0	0	8024	589550	0	0
2024-07-18 15:01:47			0	36701	0	0	0	30298	29040	165446	26724	1058790	44993	111280	0	0	8026	588539	0	0
2024-07-18 15:02:47			0	36677	0	0	0	30324	29020	165502	26793	1058701	44991	111290	0	0	8024	589578	0	0
2024-07-18 15:03:47			0	36671	0	0	0	30319	29020	165478	26868	1058701	44991	111288	0	0	8024	589821	0	0
2024-07-18 15:04:47			0	36657	0	0	0	30322	29020	165618	27031	1058754	45002	111289	0	0	8023	590387	0	0
2024-07-18 15:05:47			0	36628	0	0	0	30314	29010	165770	27216	1058683	44990	111286	0	0	8021	591597	0	0
2024-07-18 15:06:47			0	36596	0	0	0	30301	29000	165878	27085	1058647	44990	111281	0	0	8020	592930	0	0
2024-07-18 15:07:47			0	36543	0	0	0	30314	29000	166177	27201	1058611	44978	111286	0	0	8016	595085	0	0
2024-07-18 15:08:47			0	36548	0	0	0	30316	29000	166125	27289	1058611	44990	111287	0	0	8017	594881	0	0
2024-07-18 15:09:47			0	36532	0	0	0	30306	28990	166205	27111	1058575	44989	111283	0	0	8016	595567	0	0
2024-07-18 15:10:47			0	36534	0	0	0	30335	28990	166317	26854	1058593	44999	111294	0	0	8015	595486	0	0
2024-07-18 15:11:47			0	36515	0	0	0	30327	28990	166301	27150	1058629	45010	111291	0	0	8014	596260	0	0
2024-07-18 15:12:47			0	36515	0	0	0	30322	28990	166213	27171	1058683	45000	111289	0	0	8015	596260	0	0
2024-07-18 15:13:47			0	36537	0	0	0	30316	28990	166313	27372	1058575	44989	111287	0	0	8016	595364	0	0
2024-07-18 15:14:47			0	36539	0	0	0	30340	28990	166253	27303	1058566	44999	111296	0	0	8016	595282	0	0
2024-07-18 15:15:47			0	36548	0	0	0	30329	28990	166197	27227	1058593	44988	111292	0	0	8016	594916	0	0
2024-07-18 15:16:47			0	36557	0	0	0	30332	29000	166173	26890	1058719	45011	111293	0	0	8017	594515	0	0
2024-07-18 15:17:47			0	36570	0	0	0	30324	28990	166061	27076	1058656	45010	111290	0	0	8018	594021	0	0
2024-07-18 15:18:47			0	36577	0	0	0	30316	28980	166081	27097	1058638	44988	111287	0	0	8018	593771	0	0
2024-07-18 15:19:47			0	36578	0	0	0	30311	28990	166033	26824	1058566	44976	111285	0	0	8018	593696	0	0
2024-07-18 15:20:47			0	36578	0	0	0	30324	28990	165985	27088	1058566	44988	111290	0	0	8018	593696	0	0
2024-07-18 15:21:47			0	36576	0	0	0	30319	28980	166033	27055	1058522	44988	111288	0	0	8018	593811	0	0
2024-07-18 15:22:47			0	36594	0	0	0	30301	28980	166017	27022	1058495	44988	111281	0	0	8020	593080	0	0
2024-07-18 15:23:47			0	36591	0	0	0	30280	28970	165977	26986	1058396	44986	111273	0	0	8020	593236	0	0
2024-07-18 15:24:47			0	36604	0	0	0	30296	28950	165982	27178	1058378	44986	111279	0	0	8020	592777	0	0
2024-07-18 15:25:47			0	36589	0	0	0	30298	28960	165949	26941	1058441	44997	111280	0	0	8019	593352	0	0
2024-07-18 15:26:47			0	36592	0	0	0	30322	28950	166057	27142	1058486	44997	111289	0	0	8019	593264	0	0
2024-07-18 15:27:47			0	36604	0	0	0	30319	28950	166058	27156	1058459	44997	111288	0	0	8020	592777	0	0
2024-07-18 15:28:47			0	36588	0	0	0	30345	28970	166029	27119	1058531	45030	111298	0	0	8018	593358	0	0
2024-07-18 15:29:47			0	36594	0	0	0	30368	28970	166074	26762	1058647	45020	111307	0	0	8018	593114	0	0
2024-07-18 15:30:47			0	36597	0	0	0	30389	28990	165998	26764	1058782	45021	111315	0	0	8018	592924	0	0
2024-07-18 15:31:47			0	36610	0	0	0	30436	29000	165914	26932	1058800	45011	111333	0	0	8018	592361	0	0
2024-07-18 15:32:47			0	36614	0	0	0	30472	29000	165942	26849	1058917	45011	111347	0	0	8018	592199	0	0
2024-07-18 15:33:47			0	36640	0	0	0	30480	29010	165694	27100	1059042	45024	111350	0	0	8019	591110	0	0
2024-07-18 15:34:47			0	36687	0	0	0	30483	29040	165550	27007	1059069	45039	111351	0	0	8022	589105	0	0
2024-07-18 15:35:47			0	36718	0	0	0	30462	29040	165286	27163	1059150	45028	111343	0	0	8024	587853	0	0
2024-07-18 15:36:47			0	36786	0	0	0	30446	29050	165066	27131	1059051	45016	111337	0	0	8029	585078	0	0
2024-07-18 15:37:47			0	36832	0	0	0	30451	29050	164914	27128	1059141	45016	111339	0	0	8031	583229	0	0
2024-07-18 15:38:47			0	36819	0	0	0	30436	29060	164934	26965	1059096	45017	111333	0	0	8031	583717	0	0
2024-07-18 15:39:47			0	36838	0	0	0	30410	29060	164730	27062	1059042	45017	111323	0	0	8032	582954	0	0
2024-07-18 15:40:47			0	36863	0	0	0	30451	29070	164762	27059	1059140	45018	111339	0	0	8033	581918	0	0
2024-07-18 15:41:47			0	36838	0	0	0	30485	29070	164770	26979	1059248	45018	111352	0	0	8031	582921	0	0
2024-07-18 15:42:47			0	36829	0	0	0	30451	29070	164826	26968	1059203	45018	111339	0	0	8031	583282	0	0
2024-07-18 15:43:47			0	36808	0	0	0	30446	29080	164818	27159	1059104	45019	111337	0	0	8030	584092	0	0
2024-07-18 15:44:47			0	36824	0	0	0	30472	29080	164790	26977	1059167	45020	111347	0	0	8031	583449	0	0
2024-07-18 15:45:47			0	36797	0	0	0	30496	29080	164934	26982	1059266	45008	111356	0	0	8029	584534	0	0
2024-07-18 15:46:47			0	36758	0	0	0	30509	29090	165198	26772	1059347	45010	111361	0	0	8026	586070	0	0
2024-07-18 15:47:47			0	36725	0	0	0	30529	29110	165170	26786	1059427	45034	111369	0	0	8024	587332	0	0
2024-07-18 15:48:47			0	36716	0	0	0	30548	29100	165290	26809	1059445	45022	111376	0	0	8023	587729	0	0
2024-07-18 15:49:47			0	36701	0	0	0	30563	29120	165290	26989	1059589	45035	111382	0	0	8022	588266	0	0
2024-07-18 15:50:47			0	36713	0	0	0	30571	29130	165294	26854	1059553	45036	111385	0	0	8023	587748	0	0
2024-07-18 15:51:47			0	36726	0	0	0	30548	29140	165226	26887	1059616	45025	111376	0	0	8024	587189	0	0
2024-07-18 15:52:47			0	36739	0	0	0	30568	29130	165090	26934	1059580	45025	111384	0	0	8024	586699	0	0
2024-07-18 15:53:47			0	36777	0	0	0	30589	29160	164994	26928	1059706	45028	111392	0	0	8026	585067	0	0
2024-07-18 15:54:47			0	36791	0	0	0	30612	29150	164870	27286	1059697	45027	111401	0	0	8027	584538	0	0
2024-07-18 15:55:47			0	36808	0	0	0	30623	29170	164730	26738	1059804	45017	111405	0	0	8028	583787	0	0
2024-07-18 15:56:47			0	36840	0	0	0	30628	29180	164646	27001	1059822	45041	111407	0	0	8029	582468	0	0
2024-07-18 15:57:47			0	36903	0	0	0	30599	29190	164378	26883	1059894	45041	111396	0	0	8034	579911	0	0
2024-07-18 15:58:47			0	36979	0	0	0	30592	29190	164050	27007	1059876	45032	111393	0	0	8038	576878	0	0
2024-07-18 15:59:47			0	37003	0	0	0	30563	29190	163986	26934	1059876	45032	111382	0	0	8040	575922	0	0
2024-07-18 16:00:47			0	37005	0	0	0	30581	29190	163918	26968	1059849	45020	111389	0	0	8040	575842	0	0
2024-07-18 16:01:47			0	36990	0	0	0	30571	29200	163910	26974	1059831	45032	111385	0	0	8039	576406	0	0
2024-07-18 16:02:47			0	36986	0	0	0	30574	29200	164046	26887	1059813	45032	111386	0	0	8039	576565	0	0
2024-07-18 16:03:47			0	36965	0	0	0	30612	29200	164054	27197	1060001	45032	111401	0	0	8037	577402	0	0
2024-07-18 16:04:47			0	36951	0	0	0	30664	29220	164126	26972	1060001	45056	111421	0	0	8036	577893	0	0
2024-07-18 16:05:47			0	36939	0	0	0	30685	29230	164082	26847	1060082	45057	111429	0	0	8035	578339	0	0
2024-07-18 16:06:47			0	37000	0	0	0	30696	29230	163990	27072	1060127	45056	111433	0	0	8038	575907	0	0
2024-07-18 16:07:47			0	37038	0	0	0	30703	29240	163682	26908	1060235	45037	111436	0	0	8040	574363	0	0
2024-07-18 16:08:47			0	37086	0	0	0	30698	29260	163446	26580	1060315	45037	111434	0	0	8043	572392	0	0
2024-07-18 16:09:47			0	37124	0	0	0	30688	29270	163150	26994	1060252	45039	111430	0	0	8045	570854	0	0
2024-07-18 16:10:47			0	37142	0	0	0	30706	29270	163138	27090	1060306	45061	111437	0	0	8046	570142	0	0
2024-07-18 16:11:47			0	37154	0	0	0	30711	29280	163190	26786	1060288	45039	111439	0	0	8047	569635	0	0
2024-07-18 16:12:47			0	37154	0	0	0	30696	29300	163150	27055	1060324	45041	111433	0	0	8047	569568	0	0
2024-07-18 16:13:47			0	37141	0	0	0	30690	29290	163170	27239	1060342	45007	111431	0	0	8047	570115	0	0
2024-07-18 16:14:47			0	37137	0	0	0	30685	29290	163186	26991	1060288	45041	111429	0	0	8046	570273	0	0
2024-07-18 16:15:47			0	37109	0	0	0	30698	29290	163370	26767	1060342	45018	111434	0	0	8045	571381	0	0
2024-07-18 16:16:47			0	37081	0	0	0	30706	29290	163506	27045	1060396	45030	111437	0	0	8043	572490	0	0
2024-07-18 16:17:47			0	37056	0	0	0	30719	29300	163566	27154	1060432	45041	111442	0	0	8041	573448	0	0
2024-07-18 16:18:47			0	37040	0	0	0	30703	29300	163666	27062	1060351	45041	111436	0	0	8040	574083	0	0
2024-07-18 16:19:47			0	37018	0	0	0	30703	29300	163706	27182	1060441	45031	111436	0	0	8039	574957	0	0
2024-07-18 16:20:47			0	37009	0	0	0	30709	29300	163694	26955	1060441	45041	111438	0	0	8039	575315	0	0
2024-07-18 16:21:47			0	36990	0	0	0	30716	29310	163810	26880	1060396	45041	111441	0	0	8037	576038	0	0
2024-07-18 16:22:47			0	36968	0	0	0	30711	29310	163834	27038	1060423	45041	111439	0	0	8036	576914	0	0
2024-07-18 16:23:47			0	36952	0	0	0	30698	29320	164050	27280	1060387	45032	111434	0	0	8035	577518	0	0
2024-07-18 16:24:47			0	36933	0	0	0	30688	29320	163978	27005	1060396	45055	111430	0	0	8035	578276	0	0
2024-07-18 16:25:47			0	36933	0	0	0	30683	29320	164122	26753	1060387	45020	111428	0	0	8035	578276	0	0
2024-07-18 16:26:47			0	36915	0	0	0	30693	29310	164058	27079	1060396	45031	111432	0	0	8033	579028	0	0
2024-07-18 16:27:47			0	36903	0	0	0	30683	29310	164098	27045	1060396	45041	111428	0	0	8033	579507	0	0
2024-07-18 16:28:47			0	36893	0	0	0	30651	29310	164114	27279	1060297	45032	111416	0	0	8033	579907	0	0
2024-07-18 16:29:47			0	36890	0	0	0	30685	29310	164190	26930	1060378	45020	111429	0	0	8032	580027	0	0
2024-07-18 16:30:47			0	36879	0	0	0	30709	29310	164182	27163	1060450	45019	111438	0	0	8031	580467	0	0
2024-07-18 16:31:47			0	36872	0	0	0	30667	29310	164274	27000	1060432	45042	111422	0	0	8031	580747	0	0
2024-07-18 16:32:47			0	36868	0	0	0	30667	29310	164302	26975	1060342	45053	111422	0	0	8031	580907	0	0
2024-07-18 16:33:47			0	36860	0	0	0	30636	29310	164358	26812	1060351	45032	111410	0	0	8031	581227	0	0
2024-07-18 16:34:47			0	36840	0	0	0	30493	29310	164358	26885	1060216	45032	111355	0	0	8032	582028	0	0
2024-07-18 16:35:47			0	36827	0	0	0	30470	29290	164438	26955	1060018	44997	111346	0	0	8032	582617	0	0
2024-07-18 16:36:47			0	36819	0	0	0	30589	29270	164494	26857	1060108	45016	111392	0	0	8029	583006	0	0
2024-07-18 16:37:47			0	36789	0	0	0	30527	29260	164602	26802	1060018	45026	111368	0	0	8029	584245	0	0
2024-07-18 16:38:47			0	36794	0	0	0	30594	29260	164606	27104	1060126	45026	111394	0	0	8028	584044	0	0
2024-07-18 16:39:47			0	36783	0	0	0	30667	29280	164682	26923	1060234	45039	111422	0	0	8026	584418	0	0
2024-07-18 16:40:47			0	36825	0	0	0	30659	29290	164554	26909	1060306	45040	111419	0	0	8029	582697	0	0
2024-07-18 16:41:47			0	36866	0	0	0	30594	29290	164398	26736	1060252	45040	111394	0	0	8032	581054	0	0
2024-07-18 16:42:47			0	36865	0	0	0	30553	29270	164358	26842	1060064	45005	111378	0	0	8033	581162	0	0
2024-07-18 16:43:47			0	36854	0	0	0	30558	29260	164346	27260	1059965	45003	111380	0	0	8032	581637	0	0
2024-07-18 16:44:47			0	36845	0	0	0	30566	29250	164406	26838	1060064	45026	111383	0	0	8031	582031	0	0
2024-07-18 16:45:47			0	36843	0	0	0	30607	29250	164410	27055	1060028	45014	111399	0	0	8030	582111	0	0
2024-07-18 16:46:47			0	36849	0	0	0	30625	29240	164490	27039	1060127	45037	111406	0	0	8030	581904	0	0
2024-07-18 16:47:47			0	36860	0	0	0	30597	29250	164330	26850	1060136	45014	111395	0	0	8031	581430	0	0
2024-07-18 16:48:47			0	36860	0	0	0	30532	29250	164246	27135	1060055	45025	111370	0	0	8033	581430	0	0
2024-07-18 16:49:47			0	36898	0	0	0	30477	29250	164218	27015	1059866	45025	111349	0	0	8036	579909	0	0
2024-07-18 16:50:47			0	36877	0	0	0	30402	29230	164326	26878	1059776	45012	111320	0	0	8036	580817	0	0
2024-07-18 16:51:47			0	36849	0	0	0	30366	29210	164306	26880	1059633	44977	111306	0	0	8035	582006	0	0
2024-07-18 16:52:47			0	36823	0	0	0	30418	29200	164566	27135	1059561	44987	111326	0	0	8032	583082	0	0
2024-07-18 16:53:47			0	36795	0	0	0	30441	29180	164710	27071	1059525	44996	111335	0	0	8030	584275	0	0
2024-07-18 16:54:47			0	36773	0	0	0	30516	29160	164850	27312	1059580	45005	111364	0	0	8027	585228	0	0
2024-07-18 16:55:47			0	36774	0	0	0	30581	29180	164818	26972	1059804	45018	111389	0	0	8026	585120	0	0
2024-07-18 16:56:47			0	36808	0	0	0	30522	29190	164626	27038	1059786	45053	111366	0	0	8029	583719	0	0
2024-07-18 16:57:47			0	36800	0	0	0	30550	29180	164730	26944	1059723	45030	111377	0	0	8028	584074	0	0
2024-07-18 16:58:47			0	36803	0	0	0	30589	29190	164698	27182	1059795	45032	111392	0	0	8028	583920	0	0
2024-07-18 16:59:47			0	36789	0	0	0	30610	29190	164786	26878	1059903	45042	111400	0	0	8027	584482	0	0
2024-07-18 17:00:47			0	36783	0	0	0	30628	29200	164786	26896	1059948	45032	111407	0	0	8026	584689	0	0
2024-07-18 17:01:47			0	36800	0	0	0	30641	29210	164794	26831	1060010	45043	111412	0	0	8027	583972	0	0
2024-07-18 17:02:47			0	36786	0	0	0	30646	29210	164694	27007	1060064	45033	111414	0	0	8026	584535	0	0
2024-07-18 17:03:47			0	36812	0	0	0	30644	29220	164634	26661	1060028	45044	111413	0	0	8028	583456	0	0
2024-07-18 17:04:47			0	36817	0	0	0	30646	29220	164586	27187	1060064	45035	111414	0	0	8028	583256	0	0
2024-07-18 17:05:47			0	36812	0	0	0	30654	29220	164430	27048	1060145	45045	111417	0	0	8028	583456	0	0
2024-07-18 17:06:47			0	36836	0	0	0	30657	29230	164498	26963	1060100	45035	111418	0	0	8029	582459	0	0
2024-07-18 17:07:47			0	36836	0	0	0	30651	29230	164582	26987	1060073	45023	111416	0	0	8029	582459	0	0
2024-07-18 17:08:47			0	36836	0	0	0	30644	29230	164434	26975	1060082	45024	111413	0	0	8029	582459	0	0
2024-07-18 17:09:47			0	36854	0	0	0	30607	29230	164446	26897	1060055	45013	111399	0	0	8031	581738	0	0
2024-07-18 17:10:47			0	36861	0	0	0	30636	29230	164478	27159	1060046	45023	111410	0	0	8031	581457	0	0
2024-07-18 17:11:47			0	36862	0	0	0	30646	29240	164414	27008	1060154	45037	111414	0	0	8031	581384	0	0
2024-07-18 17:12:47			0	36876	0	0	0	30657	29230	164370	26939	1060136	45046	111418	0	0	8031	580857	0	0
2024-07-18 17:13:47			0	36865	0	0	0	30584	29250	164486	27192	1060190	45037	111390	0	0	8032	581230	0	0
2024-07-18 17:14:47			0	36884	0	0	0	30524	29240	164182	27104	1059956	45013	111367	0	0	8034	580503	0	0
2024-07-18 17:15:47			0	36907	0	0	0	30566	29220	164198	26788	1059866	45034	111383	0	0	8035	579650	0	0
2024-07-18 17:16:47			0	36894	0	0	0	30641	29220	164254	26781	1060010	45035	111412	0	0	8033	580170	0	0
2024-07-18 17:17:47			0	36899	0	0	0	30620	29220	164142	26859	1060037	45035	111404	0	0	8033	579970	0	0
2024-07-18 17:18:47			0	36911	0	0	0	30659	29230	164286	26863	1060136	45036	111419	0	0	8033	579457	0	0
2024-07-18 17:19:47			0	36917	0	0	0	30675	29240	164226	27222	1060127	45037	111425	0	0	8033	579183	0	0
2024-07-18 17:20:47			0	36935	0	0	0	30693	29240	164150	27092	1060145	45036	111432	0	0	8034	578465	0	0
2024-07-18 17:21:47			0	36944	0	0	0	30685	29240	164126	27152	1060181	45047	111429	0	0	8035	578105	0	0
2024-07-18 17:22:47			0	36942	0	0	0	30675	29260	164054	27261	1060207	45048	111425	0	0	8035	578118	0	0
2024-07-18 17:23:47			0	36926	0	0	0	30672	29260	164158	27123	1060234	45048	111424	0	0	8034	578757	0	0
2024-07-18 17:24:47			0	36927	0	0	0	30698	29270	164254	27005	1060360	45050	111434	0	0	8034	578683	0	0
2024-07-18 17:25:47			0	36887	0	0	0	30714	29270	164206	27267	1060405	45060	111440	0	0	8031	580282	0	0
2024-07-18 17:26:47			0	36923	0	0	0	30735	29270	164114	27196	1060387	45061	111448	0	0	8033	578843	0	0
2024-07-18 17:27:47			0	36917	0	0	0	30729	29290	164110	27041	1060441	45051	111446	0	0	8033	579015	0	0
2024-07-18 17:28:47			0	36924	0	0	0	30716	29290	164106	27255	1060423	45052	111441	0	0	8033	578736	0	0
2024-07-18 17:29:47			0	36930	0	0	0	30709	29300	164078	27352	1060459	45052	111438	0	0	8034	578463	0	0
2024-07-18 17:30:47			0	36921	0	0	0	30696	29300	164046	27275	1060414	45041	111433	0	0	8034	578822	0	0
2024-07-18 17:31:47			0	36942	0	0	0	30690	29300	164034	27013	1060351	45030	111431	0	0	8035	577984	0	0
2024-07-18 17:32:47			0	36944	0	0	0	30690	29300	163986	27213	1060441	45019	111431	0	0	8035	577904	0	0
2024-07-18 17:33:47			0	36945	0	0	0	30683	29300	163990	27253	1060360	45041	111428	0	0	8035	577864	0	0
2024-07-18 17:34:47			0	36977	0	0	0	30685	29300	163886	27015	1060324	45052	111429	0	0	8037	576589	0	0
2024-07-18 17:35:47			0	36964	0	0	0	30703	29300	163890	27154	1060387	45041	111436	0	0	8036	577107	0	0
2024-07-18 17:36:47			0	36981	0	0	0	30662	29300	163742	27182	1060414	45041	111420	0	0	8038	576430	0	0
2024-07-18 17:37:47			0	37006	0	0	0	30599	29290	163634	27097	1060279	45040	111396	0	0	8040	575468	0	0
2024-07-18 17:38:47			0	37016	0	0	0	30542	29280	163706	27137	1060162	45018	111374	0	0	8042	575104	0	0
2024-07-18 17:39:47			0	37031	0	0	0	30612	29260	163566	27118	1060126	45026	111401	0	0	8041	574574	0	0
2024-07-18 17:40:47			0	37027	0	0	0	30638	29270	163618	27085	1060189	45027	111411	0	0	8041	574700	0	0
2024-07-18 17:41:47			0	37038	0	0	0	30657	29260	163586	26904	1060234	45037	111418	0	0	8041	574296	0	0
2024-07-18 17:42:47			0	37036	0	0	0	30618	29260	163514	27055	1060180	45026	111403	0	0	8041	574376	0	0
2024-07-18 17:43:47			0	37034	0	0	0	30633	29260	163702	26956	1060153	45015	111409	0	0	8041	574455	0	0
2024-07-18 17:44:47			0	37010	0	0	0	30672	29250	163742	27256	1060171	45037	111424	0	0	8039	575443	0	0
2024-07-18 17:45:47			0	36934	0	0	0	30680	29260	164026	27126	1060234	45048	111427	0	0	8034	578437	0	0
2024-07-18 17:46:47			0	36850	0	0	0	30675	29270	164478	26791	1060270	45049	111425	0	0	8030	581763	0	0
2024-07-18 17:47:47			0	36788	0	0	0	30677	29270	164710	27140	1060297	45049	111426	0	0	8026	584251	0	0
2024-07-18 17:48:47			0	36716	0	0	0	30571	29270	165014	27178	1060162	45038	111385	0	0	8024	587149	0	0
2024-07-18 17:49:47			0	36680	0	0	0	30563	29250	165054	26935	1060010	45026	111382	0	0	8021	588670	0	0
2024-07-18 17:50:47			0	36660	0	0	0	30566	29250	165090	27268	1060028	45002	111383	0	0	8020	589478	0	0
2024-07-18 17:51:47			0	36667	0	0	0	30561	29250	165158	27320	1060001	45025	111381	0	0	8021	589195	0	0
2024-07-18 17:52:47			0	36671	0	0	0	30555	29230	165274	27189	1059920	45013	111379	0	0	8021	589102	0	0
2024-07-18 17:53:47			0	36669	0	0	0	30540	29220	165262	26864	1059812	45022	111373	0	0	8021	589217	0	0
2024-07-18 17:54:47			0	36650	0	0	0	30514	29210	165214	27178	1059830	45011	111363	0	0	8020	590020	0	0
2024-07-18 17:55:47			0	36649	0	0	0	30522	29200	165242	26802	1059777	45009	111366	0	0	8020	590095	0	0
2024-07-18 17:56:47			0	36649	0	0	0	30506	29200	165266	27223	1059723	45020	111360	0	0	8020	590095	0	0
2024-07-18 17:57:47			0	36640	0	0	0	30475	29190	165398	26996	1059651	45008	111348	0	0	8020	590493	0	0
2024-07-18 17:58:47			0	36593	0	0	0	30488	29170	165690	26981	1059678	45007	111353	0	0	8017	592467	0	0
2024-07-18 17:59:47			0	36516	0	0	0	30498	29170	165981	27135	1059597	45018	111357	0	0	8012	595597	0	0
2024-07-18 18:00:47			0	36451	0	0	0	30509	29160	166245	26977	1059607	45005	111361	0	0	8008	598283	0	0
2024-07-18 18:01:47			0	36395	0	0	0	30514	29160	166433	27161	1059607	45039	111363	0	0	8005	600573	0	0
2024-07-18 18:02:47			0	36368	0	0	0	30506	29150	166557	27225	1059589	45027	111360	0	0	8003	601715	0	0
2024-07-18 18:03:47			0	36336	0	0	0	30490	29160	166721	26909	1059598	45005	111354	0	0	8002	602993	0	0
2024-07-18 18:04:47			0	36323	0	0	0	30498	29140	166797	27133	1059517	45014	111357	0	0	8001	603598	0	0
2024-07-18 18:05:47			0	36304	0	0	0	30498	29150	166925	27253	1059535	45038	111357	0	0	8000	604344	0	0
2024-07-18 18:06:47			0	36287	0	0	0	30527	29140	166981	27196	1059598	45014	111368	0	0	7998	605079	0	0
2024-07-18 18:07:47			0	36284	0	0	0	30550	29150	167029	27239	1059670	45027	111377	0	0	7998	605167	0	0
2024-07-18 18:08:47			0	36278	0	0	0	30558	29150	167101	27391	1059661	45049	111380	0	0	7997	605414	0	0
2024-07-18 18:09:47			0	36259	0	0	0	30558	29160	167029	27062	1059706	45028	111380	0	0	7996	606162	0	0
2024-07-18 18:10:47			0	36270	0	0	0	30548	29160	167109	27229	1059741	45028	111376	0	0	7997	605709	0	0
2024-07-18 18:11:47			0	36269	0	0	0	30555	29160	167001	27131	1059714	45028	111379	0	0	7997	605750	0	0
2024-07-18 18:12:47			0	36277	0	0	0	30548	29170	167017	27332	1059723	45040	111376	0	0	7997	605385	0	0
2024-07-18 18:13:47			0	36267	0	0	0	30542	29160	167033	26932	1059741	45028	111374	0	0	7997	605832	0	0
2024-07-18 18:14:47			0	36263	0	0	0	30548	29160	167037	27119	1059652	45028	111376	0	0	7997	605997	0	0
2024-07-18 18:15:47			0	36254	0	0	0	30527	29160	167057	27069	1059661	45028	111368	0	0	7996	606368	0	0
2024-07-18 18:16:47			0	36270	0	0	0	30516	29160	167141	27057	1059634	45028	111364	0	0	7998	605709	0	0
2024-07-18 18:17:47			0	36265	0	0	0	30519	29160	167113	27055	1059598	45028	111365	0	0	7997	605915	0	0
2024-07-18 18:18:47			0	36264	0	0	0	30532	29160	167021	27296	1059652	45028	111370	0	0	7997	605956	0	0
2024-07-18 18:19:47			0	36285	0	0	0	30542	29150	167077	27055	1059643	45038	111374	0	0	7998	605126	0	0
2024-07-18 18:20:47			0	36276	0	0	0	30545	29150	167109	27159	1059643	45027	111375	0	0	7997	605497	0	0
2024-07-18 18:21:47			0	36283	0	0	0	30527	29150	167069	26958	1059661	45027	111368	0	0	7998	605208	0	0
2024-07-18 18:22:47			0	36294	0	0	0	30522	29160	167013	27409	1059661	45028	111366	0	0	7999	604720	0	0
2024-07-18 18:23:47			0	36283	0	0	0	30490	29150	167025	27204	1059643	45027	111354	0	0	7999	605208	0	0
2024-07-18 18:24:47			0	36293	0	0	0	30433	29140	166997	27005	1059463	45014	111332	0	0	8000	604832	0	0
2024-07-18 18:25:47			0	36276	0	0	0	30423	29130	166989	26817	1059391	45002	111328	0	0	7999	605567	0	0
2024-07-18 18:26:47			0	36326	0	0	0	30506	29120	166893	27223	1059400	45024	111360	0	0	8001	603544	0	0
2024-07-18 18:27:47			0	36360	0	0	0	30511	29130	166833	27197	1059463	45036	111362	0	0	8003	602113	0	0
2024-07-18 18:28:47			0	36393	0	0	0	30503	29130	166677	27105	1059436	45014	111359	0	0	8005	600760	0	0
2024-07-18 18:29:47			0	36392	0	0	0	30485	29120	166673	27232	1059391	45012	111352	0	0	8005	600836	0	0
2024-07-18 18:30:47			0	36392	0	0	0	30462	29120	166661	27194	1059364	45012	111343	0	0	8006	600836	0	0
2024-07-18 18:31:47			0	36357	0	0	0	30446	29100	166617	27246	1059275	44999	111337	0	0	8004	602341	0	0
2024-07-18 18:32:47			0	36367	0	0	0	30418	29100	166757	27022	1059275	45010	111326	0	0	8005	601931	0	0
2024-07-18 18:33:47			0	36369	0	0	0	30405	29100	166745	27234	1059167	45010	111321	0	0	8005	601849	0	0
2024-07-18 18:34:47			0	36355	0	0	0	30428	29080	166753	27343	1059167	45020	111330	0	0	8004	602493	0	0
2024-07-18 18:35:47			0	36357	0	0	0	30436	29080	166725	27164	1059167	45009	111333	0	0	8004	602411	0	0
2024-07-18 18:36:47			0	36364	0	0	0	30457	29070	166845	27497	1059230	45030	111341	0	0	8004	602159	0	0
2024-07-18 18:37:47			0	36364	0	0	0	30475	29070	166737	27187	1059221	45030	111348	0	0	8003	602159	0	0
2024-07-18 18:38:47			0	36377	0	0	0	30490	29080	166753	27287	1059302	45032	111354	0	0	8004	601590	0	0
2024-07-18 18:39:47			0	36367	0	0	0	30506	29080	166717	27078	1059302	45020	111360	0	0	8003	602001	0	0
2024-07-18 18:40:47			0	36366	0	0	0	30511	29090	166693	27209	1059392	45043	111362	0	0	8003	602007	0	0
2024-07-18 18:41:47			0	36383	0	0	0	30519	29100	166601	26842	1059437	45054	111365	0	0	8004	601274	0	0
2024-07-18 18:42:47			0	36407	0	0	0	30394	29090	166589	26958	1059392	45033	111317	0	0	8007	600326	0	0
2024-07-18 18:43:47			0	36420	0	0	0	30412	29100	166473	27126	1059257	45034	111324	0	0	8008	599759	0	0
2024-07-18 18:44:47			0	36414	0	0	0	30405	29090	166449	26812	1059212	45021	111321	0	0	8008	600039	0	0
2024-07-18 18:45:47			0	36421	0	0	0	30420	29070	166529	26850	1059257	45030	111327	0	0	8008	599822	0	0
2024-07-18 18:46:47			0	36417	0	0	0	30407	29080	166509	27218	1059239	45031	111322	0	0	8008	599951	0	0
2024-07-18 18:47:47			0	36428	0	0	0	30431	29070	166481	27175	1059230	45007	111331	0	0	8008	599536	0	0
2024-07-18 18:48:47			0	36439	0	0	0	30410	29070	166561	26979	1059176	45018	111323	0	0	8009	599086	0	0
2024-07-18 18:49:47			0	36447	0	0	0	30392	29080	166385	27150	1059104	45019	111316	0	0	8010	598724	0	0
2024-07-18 18:50:47			0	36436	0	0	0	30418	29060	166441	27215	1059105	45018	111326	0	0	8009	599243	0	0
2024-07-18 18:51:47			0	36478	0	0	0	30425	29060	166341	27034	1059069	45017	111329	0	0	8011	597527	0	0
2024-07-18 18:52:47			0	36450	0	0	0	30425	29050	166529	27261	1059060	45028	111329	0	0	8009	598706	0	0
2024-07-18 18:53:47			0	36411	0	0	0	30457	29050	166601	27185	1059168	45028	111341	0	0	8006	600301	0	0
2024-07-18 18:54:47			0	36416	0	0	0	30506	29060	166569	27232	1059239	45041	111360	0	0	8006	600062	0	0
2024-07-18 18:55:47			0	36413	0	0	0	30498	29070	166673	27031	1059329	45030	111357	0	0	8006	600150	0	0
2024-07-18 18:56:47			0	36441	0	0	0	30509	29080	166509	27308	1059383	45065	111361	0	0	8007	598969	0	0
2024-07-18 18:57:47			0	36438	0	0	0	30501	29080	166409	26982	1059410	45053	111358	0	0	8007	599092	0	0
2024-07-18 18:58:47			0	36465	0	0	0	30496	29090	166397	27229	1059419	45054	111356	0	0	8009	597954	0	0
2024-07-18 18:59:47			0	36475	0	0	0	30501	29080	166301	27060	1059383	45042	111358	0	0	8010	597580	0	0
2024-07-18 19:00:47			0	36478	0	0	0	30506	29090	166265	26837	1059428	45043	111360	0	0	8010	597423	0	0
2024-07-18 19:01:47			0	36483	0	0	0	30506	29100	166269	27315	1059410	45043	111360	0	0	8010	597184	0	0
2024-07-18 19:02:47			0	36494	0	0	0	30454	29090	166301	27213	1059401	45043	111340	0	0	8012	596770	0	0
2024-07-18 19:03:47			0	36488	0	0	0	30449	29090	166257	27085	1059320	45033	111338	0	0	8011	597015	0	0
2024-07-18 19:04:47			0	36483	0	0	0	30423	29090	166257	27241	1059374	45033	111328	0	0	8011	597219	0	0
2024-07-18 19:05:47			0	36461	0	0	0	30431	29090	166281	27192	1059293	45010	111331	0	0	8010	598117	0	0
2024-07-18 19:06:47			0	36449	0	0	0	30425	29090	166313	27034	1059284	45010	111329	0	0	8009	598608	0	0
2024-07-18 19:07:47			0	36439	0	0	0	30431	29090	166385	27085	1059212	45010	111331	0	0	8009	599016	0	0
2024-07-18 19:08:47			0	36442	0	0	0	30431	29080	166345	27041	1059266	45041	111331	0	0	8009	598928	0	0
2024-07-18 19:09:47			0	36435	0	0	0	30412	29080	166413	26981	1059185	45008	111324	0	0	8009	599215	0	0
2024-07-18 19:10:47			0	36446	0	0	0	30415	29070	166397	26644	1059149	45018	111325	0	0	8009	598800	0	0
2024-07-18 19:11:47			0	36446	0	0	0	30368	29080	166425	26984	1059131	45008	111307	0	0	8010	598765	0	0
2024-07-18 19:12:47			0	36449	0	0	0	30368	29060	166365	26578	1059042	45006	111307	0	0	8010	598712	0	0
2024-07-18 19:13:47			0	36461	0	0	0	30399	29050	166465	27027	1059087	45028	111319	0	0	8010	598256	0	0
2024-07-18 19:14:47			0	36443	0	0	0	30433	29060	166545	27090	1059123	45029	111332	0	0	8009	598957	0	0
2024-07-18 19:15:47			0	36459	0	0	0	30425	29050	166449	26850	1059087	45049	111329	0	0	8010	598338	0	0
2024-07-18 19:16:47			0	36478	0	0	0	30420	29060	166365	27000	1059150	45029	111327	0	0	8011	597527	0	0
2024-07-18 19:17:47			0	36484	0	0	0	30420	29050	166321	27093	1059114	45039	111327	0	0	8011	597317	0	0
2024-07-18 19:18:47			0	36499	0	0	0	30441	29060	166337	27027	1059069	45029	111335	0	0	8012	596670	0	0
2024-07-18 19:19:47			0	36502	0	0	0	30433	29060	166113	26651	1059177	45017	111332	0	0	8012	596548	0	0
2024-07-18 19:20:47			0	36518	0	0	0	30415	29060	166105	27053	1059177	45017	111325	0	0	8013	595896	0	0
2024-07-18 19:21:47			0	36547	0	0	0	30423	29050	166073	27060	1059195	45028	111328	0	0	8015	594749	0	0
2024-07-18 19:22:47			0	36565	0	0	0	30431	29060	165933	27102	1059177	45017	111331	0	0	8016	593983	0	0
2024-07-18 19:23:47			0	36554	0	0	0	30425	29050	166037	27211	1059114	45049	111329	0	0	8015	594465	0	0
2024-07-18 19:24:47			0	36567	0	0	0	30449	29060	166005	27149	1059150	45017	111338	0	0	8016	593901	0	0
2024-07-18 19:25:47			0	36565	0	0	0	30433	29050	165957	27069	1059168	45016	111332	0	0	8016	594017	0	0
2024-07-18 19:26:47			0	36558	0	0	0	30444	29060	166001	27157	1059239	45018	111336	0	0	8015	594268	0	0
2024-07-18 19:27:47			0	36575	0	0	0	30472	29060	165949	27208	1059212	45018	111347	0	0	8016	593576	0	0
2024-07-18 19:28:47			0	36600	0	0	0	30464	29070	165842	27249	1059221	45041	111344	0	0	8018	592527	0	0
2024-07-18 19:29:47			0	36618	0	0	0	30433	29070	165678	27156	1059167	45018	111332	0	0	8019	591796	0	0
2024-07-18 19:30:47			0	36606	0	0	0	30428	29060	165646	27128	1059132	45030	111330	0	0	8018	592317	0	0
2024-07-18 19:31:47			0	36576	0	0	0	30402	29060	165877	27088	1059096	45029	111320	0	0	8017	593536	0	0
2024-07-18 19:32:47			0	36534	0	0	0	30412	29060	166121	26890	1059123	45006	111324	0	0	8014	595244	0	0
2024-07-18 19:33:47			0	36497	0	0	0	30418	29050	166269	27204	1059087	45028	111326	0	0	8012	596786	0	0
2024-07-18 19:34:47			0	36493	0	0	0	30410	29050	166321	27012	1059132	45028	111323	0	0	8012	596950	0	0
2024-07-18 19:35:47			0	36482	0	0	0	30420	29060	166345	27171	1059069	45029	111327	0	0	8011	597364	0	0
2024-07-18 19:36:47			0	36481	0	0	0	30441	29050	166401	26793	1059051	45028	111335	0	0	8011	597439	0	0
2024-07-18 19:37:47			0	36473	0	0	0	30436	29050	166481	27157	1059186	45028	111333	0	0	8010	597766	0	0
2024-07-18 19:38:47			0	36476	0	0	0	30441	29060	166361	26958	1059204	45017	111335	0	0	8011	597609	0	0
2024-07-18 19:39:47			0	36463	0	0	0	30433	29050	166385	27017	1059159	45016	111332	0	0	8010	598174	0	0
2024-07-18 19:40:47			0	36445	0	0	0	30376	29050	166625	26909	1059078	45028	111310	0	0	8010	598910	0	0
2024-07-18 19:41:47			0	36416	0	0	0	30361	29040	166677	26866	1058961	45016	111304	0	0	8008	600131	0	0
2024-07-18 19:42:47			0	36408	0	0	0	30335	29040	166669	27239	1058979	45015	111294	0	0	8008	600459	0	0
2024-07-18 19:43:47			0	36399	0	0	0	30272	29040	166817	26963	1058871	45015	111270	0	0	8009	600828	0	0
2024-07-18 19:44:47			0	36377	0	0	0	30293	29020	166801	27008	1058808	44991	111278	0	0	8007	601800	0	0
2024-07-18 19:45:47			0	36355	0	0	0	30199	29000	166873	26859	1058593	44990	111242	0	0	8007	602773	0	0
2024-07-18 19:46:47			0	36366	0	0	0	30218	28980	166793	26991	1058530	44988	111249	0	0	8007	602391	0	0
2024-07-18 19:47:47			0	36355	0	0	0	30184	28970	166925	27062	1058405	44987	111236	0	0	8007	602878	0	0
2024-07-18 19:48:47			0	36361	0	0	0	30142	28940	166913	26890	1058306	44972	111220	0	0	8008	602736	0	0
2024-07-18 19:49:47			0	36359	0	0	0	30093	28930	166821	27199	1058199	44983	111201	0	0	8009	602853	0	0
2024-07-18 19:50:47			0	36365	0	0	0	30080	28900	166869	26722	1058011	44968	111196	0	0	8009	602712	0	0
2024-07-18 19:51:47			0	36363	0	0	0	30075	28880	166973	26948	1057903	44967	111194	0	0	8009	602864	0	0
2024-07-18 19:52:47			0	36381	0	0	0	30049	28850	166869	26599	1057768	44952	111184	0	0	8011	602229	0	0
2024-07-18 19:53:47			0	36385	0	0	0	30044	28840	166889	26887	1057688	44962	111182	0	0	8011	602100	0	0
2024-07-18 19:54:47			0	36392	0	0	0	30057	28820	166841	26965	1057634	44972	111187	0	0	8011	601882	0	0
2024-07-18 19:55:47			0	36391	0	0	0	30049	28810	166801	26840	1057697	44982	111184	0	0	8011	601958	0	0
2024-07-18 19:56:47			0	36395	0	0	0	30054	28810	166853	26991	1057589	44970	111186	0	0	8011	601794	0	0
2024-07-18 19:57:47			0	36420	0	0	0	30023	28800	166797	26979	1057625	44981	111174	0	0	8013	600803	0	0
2024-07-18 19:58:47			0	36438	0	0	0	30012	28780	166805	27282	1057500	44957	111170	0	0	8014	600135	0	0
2024-07-18 19:59:47			0	36432	0	0	0	29997	28770	166789	26859	1057401	44965	111164	0	0	8014	600416	0	0
2024-07-18 20:00:47			0	36453	0	0	0	30015	28750	166885	27098	1057258	44964	111171	0	0	8015	599625	0	0
2024-07-18 20:01:47			0	36449	0	0	0	30018	28730	166777	27039	1057285	44963	111172	0	0	8014	599858	0	0
2024-07-18 20:02:47			0	36455	0	0	0	30010	28730	166773	26807	1057249	44984	111169	0	0	8015	599613	0	0
2024-07-18 20:03:47			0	36461	0	0	0	30025	28720	166693	26871	1057213	44962	111175	0	0	8015	599402	0	0
2024-07-18 20:04:47			0	36473	0	0	0	30010	28720	166689	26734	1057231	44972	111169	0	0	8016	598911	0	0
2024-07-18 20:05:47			0	36482	0	0	0	30054	28700	166545	26830	1057340	45004	111186	0	0	8016	598612	0	0
2024-07-18 20:06:47			0	36490	0	0	0	30083	28710	166557	27041	1057249	44995	111197	0	0	8016	598250	0	0
2024-07-18 20:07:47			0	36514	0	0	0	30088	28720	166533	26656	1057339	45005	111199	0	0	8017	597235	0	0
2024-07-18 20:08:47			0	36507	0	0	0	30062	28720	166581	26861	1057339	44995	111189	0	0	8017	597521	0	0
2024-07-18 20:09:47			0	36520	0	0	0	30036	28720	166517	26998	1057240	44984	111179	0	0	8018	596990	0	0
2024-07-18 20:10:47			0	36521	0	0	0	30038	28710	166513	27171	1057276	44983	111180	0	0	8018	596984	0	0
2024-07-18 20:11:47			0	36526	0	0	0	30049	28710	166417	26927	1057249	44995	111184	0	0	8018	596780	0	0
2024-07-18 20:12:47			0	36539	0	0	0	30059	28700	166461	26828	1057340	44982	111188	0	0	8019	596284	0	0
2024-07-18 20:13:47			0	36540	0	0	0	30046	28700	166425	26842	1057196	45003	111183	0	0	8019	596243	0	0
2024-07-18 20:14:47			0	36547	0	0	0	30062	28700	166469	26675	1057286	44994	111189	0	0	8019	595957	0	0
2024-07-18 20:15:47			0	36568	0	0	0	30067	28700	166549	27039	1057331	44993	111191	0	0	8021	595102	0	0
2024-07-18 20:16:47			0	36566	0	0	0	30080	28700	166365	26908	1057340	45004	111196	0	0	8020	595183	0	0
2024-07-18 20:17:47			0	36570	0	0	0	30093	28710	166409	26857	1057375	45004	111201	0	0	8020	594986	0	0
2024-07-18 20:18:47			0	36568	0	0	0	30075	28700	166333	27118	1057304	45015	111194	0	0	8020	595102	0	0
2024-07-18 20:19:47			0	36585	0	0	0	30064	28700	166305	26845	1057250	44993	111190	0	0	8022	594409	0	0
2024-07-18 20:20:47			0	36581	0	0	0	30054	28690	166305	26972	1057241	44981	111186	0	0	8021	594607	0	0
2024-07-18 20:21:47			0	36600	0	0	0	30057	28690	166334	27138	1057268	44993	111187	0	0	8023	593833	0	0
2024-07-18 20:22:47			0	36580	0	0	0	30067	28700	166401	26842	1057277	44993	111191	0	0	8021	594613	0	0
2024-07-18 20:23:47			0	36573	0	0	0	30062	28700	166353	27166	1057250	44981	111189	0	0	8021	594898	0	0
2024-07-18 20:24:47			0	36566	0	0	0	30057	28700	166281	26920	1057331	45003	111187	0	0	8021	595183	0	0
2024-07-18 20:25:47			0	36569	0	0	0	30057	28690	166365	27204	1057241	45003	111187	0	0	8021	595095	0	0
2024-07-18 20:26:47			0	36574	0	0	0	30041	28690	166357	27166	1057295	44981	111181	0	0	8021	594892	0	0
2024-07-18 20:27:47			0	36563	0	0	0	30028	28680	166429	27060	1057160	44991	111176	0	0	8021	595374	0	0
2024-07-18 20:28:47			0	36567	0	0	0	30007	28670	166401	26935	1057124	44979	111168	0	0	8021	595246	0	0
2024-07-18 20:29:47			0	36536	0	0	0	30012	28670	166437	26708	1057124	44990	111170	0	0	8019	596510	0	0
2024-07-18 20:30:47			0	36523	0	0	0	30002	28670	166569	26951	1057044	45000	111166	0	0	8019	597040	0	0
2024-07-18 20:31:47			0	36528	0	0	0	29994	28660	166689	26760	1057035	44990	111163	0	0	8019	596871	0	0
2024-07-18 20:32:47			0	36512	0	0	0	29992	28650	166669	26883	1056990	44978	111162	0	0	8018	597559	0	0
2024-07-18 20:33:47			0	36487	0	0	0	29979	28650	166657	26875	1056981	44955	111157	0	0	8017	598581	0	0
2024-07-18 20:34:47			0	36479	0	0	0	29976	28640	166773	26845	1056882	44987	111156	0	0	8017	598943	0	0
2024-07-18 20:35:47			0	36482	0	0	0	29971	28630	166813	27036	1056837	44986	111154	0	0	8017	598855	0	0
2024-07-18 20:36:47			0	36483	0	0	0	29976	28630	166809	26935	1056900	44987	111156	0	0	8017	598814	0	0
2024-07-18 20:37:47			0	36495	0	0	0	29966	28630	166657	27329	1056864	44986	111152	0	0	8018	598323	0	0
2024-07-18 20:38:47			0	36506	0	0	0	29950	28610	166649	27017	1056784	44962	111146	0	0	8018	597942	0	0
2024-07-18 20:39:47			0	36497	0	0	0	29948	28610	166561	26996	1056694	44973	111145	0	0	8018	598310	0	0
2024-07-18 20:40:47			0	36507	0	0	0	29924	28590	166605	26844	1056632	44971	111136	0	0	8019	597971	0	0
2024-07-18 20:41:47			0	36509	0	0	0	29914	28580	166573	26944	1056569	44970	111132	0	0	8019	597924	0	0
2024-07-18 20:42:47			0	36525	0	0	0	29901	28590	166505	26890	1056641	44983	111127	0	0	8020	597235	0	0
2024-07-18 20:43:47			0	36531	0	0	0	29901	28570	166473	26866	1056569	44992	111127	0	0	8021	597059	0	0
2024-07-18 20:44:47			0	36538	0	0	0	29909	28570	166453	27119	1056605	45002	111130	0	0	8021	596774	0	0
2024-07-18 20:45:47			0	36570	0	0	0	29916	28580	166481	26944	1056668	44993	111133	0	0	8023	595434	0	0
2024-07-18 20:46:47			0	36594	0	0	0	29924	28580	166298	26783	1056695	44993	111136	0	0	8024	594456	0	0
2024-07-18 20:47:47			0	36586	0	0	0	29937	28580	166190	27326	1056677	44993	111141	0	0	8023	594782	0	0
2024-07-18 20:48:47			0	36623	0	0	0	29932	28580	166158	27223	1056641	44993	111139	0	0	8025	593276	0	0
2024-07-18 20:49:47			0	36634	0	0	0	29922	28570	166258	26729	1056659	44969	111135	0	0	8026	592863	0	0
2024-07-18 20:50:47			0	36651	0	0	0	29906	28560	165982	26767	1056506	44958	111129	0	0	8027	592207	0	0
2024-07-18 20:51:47			0	36691	0	0	0	29883	28560	166018	26998	1056453	44958	111120	0	0	8030	590584	0	0
2024-07-18 20:52:47			0	36702	0	0	0	29872	28550	165782	27137	1056453	44967	111116	0	0	8031	590172	0	0
2024-07-18 20:53:47			0	36707	0	0	0	29864	28550	165822	27033	1056381	44957	111113	0	0	8031	589970	0	0
2024-07-18 20:54:47			0	36726	0	0	0	29849	28540	165670	26875	1056327	44955	111107	0	0	8033	589235	0	0
2024-07-18 20:55:47			0	36751	0	0	0	29846	28520	165686	27100	1056300	44976	111106	0	0	8034	588292	0	0
2024-07-18 20:56:47			0	36734	0	0	0	29844	28530	165686	27145	1056283	44955	111105	0	0	8033	588945	0	0
2024-07-18 20:57:47			0	36754	0	0	0	29849	28520	165658	27199	1056264	44975	111107	0	0	8034	588170	0	0
2024-07-18 20:58:47			0	36772	0	0	0	29849	28520	165618	26875	1056238	44975	111107	0	0	8035	587443	0	0
2024-07-18 20:59:47			0	36759	0	0	0	29859	28510	165506	27072	1056247	44963	111111	0	0	8034	588002	0	0
2024-07-18 21:00:47			0	36753	0	0	0	29851	28500	165686	27109	1056265	44974	111108	0	0	8034	588279	0	0
2024-07-18 21:01:47			0	36751	0	0	0	29854	28500	165610	26779	1056229	44961	111109	0	0	8034	588360	0	0
2024-07-18 21:02:47			0	36770	0	0	0	29857	28490	165602	26960	1056247	44995	111110	0	0	8035	587626	0	0
2024-07-18 21:03:47			0	36760	0	0	0	29872	28510	165602	27062	1056328	44975	111116	0	0	8034	587962	0	0
2024-07-18 21:04:47			0	36747	0	0	0	29875	28510	165622	26637	1056336	44986	111117	0	0	8033	588487	0	0
2024-07-18 21:05:47			0	36746	0	0	0	29893	28510	165606	26870	1056390	45008	111124	0	0	8033	588528	0	0
2024-07-18 21:06:47			0	36748	0	0	0	29906	28520	165650	26741	1056381	44998	111129	0	0	8033	588413	0	0
2024-07-18 21:07:47			0	36744	0	0	0	29914	28520	165694	27053	1056543	44987	111132	0	0	8033	588575	0	0
2024-07-18 21:08:47			0	36740	0	0	0	29929	28530	165634	26871	1056534	44999	111138	0	0	8032	588702	0	0
2024-07-18 21:09:47			0	36744	0	0	0	29901	28530	165566	27022	1056471	44988	111127	0	0	8033	588541	0	0
2024-07-18 21:10:47			0	36745	0	0	0	29896	28530	165538	27013	1056372	44965	111125	0	0	8033	588500	0	0
2024-07-18 21:11:47			0	36757	0	0	0	29883	28520	165510	26785	1056318	44975	111120	0	0	8034	588049	0	0
2024-07-18 21:12:47			0	36750	0	0	0	29875	28510	165546	26811	1056283	44975	111117	0	0	8034	588366	0	0
2024-07-18 21:13:47			0	36747	0	0	0	29859	28510	165566	27168	1056256	44953	111111	0	0	8034	588487	0	0
2024-07-18 21:14:47			0	36764	0	0	0	29838	28500	165642	26804	1056121	44939	111103	0	0	8035	587834	0	0
2024-07-18 21:15:47			0	36761	0	0	0	29810	28490	165526	27010	1056023	44950	111092	0	0	8035	587989	0	0
2024-07-18 21:16:47			0	36772	0	0	0	29776	28470	165582	26977	1055906	44948	111079	0	0	8036	587613	0	0
2024-07-18 21:17:47			0	36766	0	0	0	29758	28450	165554	27118	1055826	44923	111072	0	0	8036	587923	0	0
2024-07-18 21:18:47			0	36768	0	0	0	29732	28440	165450	27289	1055727	44935	111062	0	0	8037	587876	0	0
2024-07-18 21:19:47			0	36763	0	0	0	29724	28430	165666	27251	1055781	44965	111059	0	0	8037	588113	0	0
2024-07-18 21:20:47			0	36758	0	0	0	29735	28420	165518	27263	1055710	44965	111063	0	0	8036	588349	0	0
2024-07-18 21:21:47			0	36762	0	0	0	29753	28420	165610	26922	1055710	44955	111070	0	0	8036	588187	0	0
2024-07-18 21:22:47			0	36763	0	0	0	29761	28420	165686	27010	1055880	44976	111073	0	0	8036	588147	0	0
2024-07-18 21:23:47			0	36760	0	0	0	29768	28420	165686	26922	1055907	44976	111076	0	0	8036	588268	0	0
2024-07-18 21:24:47			0	36757	0	0	0	29789	28430	165610	26764	1055952	44977	111084	0	0	8035	588355	0	0
2024-07-18 21:25:47			0	36767	0	0	0	29802	28440	165526	26932	1055988	44978	111089	0	0	8035	587917	0	0
2024-07-18 21:26:47			0	36770	0	0	0	29815	28450	165590	26986	1056086	44979	111094	0	0	8036	587762	0	0
2024-07-18 21:27:47			0	36769	0	0	0	29823	28460	165506	26963	1056104	44992	111097	0	0	8035	587768	0	0
2024-07-18 21:28:47			0	36789	0	0	0	29823	28460	165434	26956	1056104	44980	111097	0	0	8037	586960	0	0
2024-07-18 21:29:47			0	36789	0	0	0	29823	28450	165366	27003	1056113	44991	111097	0	0	8036	586994	0	0
2024-07-18 21:30:47			0	36795	0	0	0	29851	28460	165622	27222	1056185	44980	111108	0	0	8036	586718	0	0
2024-07-18 21:31:47			0	36806	0	0	0	29870	28470	165486	27007	1056319	44981	111115	0	0	8037	586240	0	0
2024-07-18 21:32:47			0	36806	0	0	0	29906	28490	165494	26703	1056373	44995	111129	0	0	8036	586172	0	0
2024-07-18 21:33:47			0	36796	0	0	0	29914	28490	165518	27000	1056319	45016	111132	0	0	8036	586576	0	0
2024-07-18 21:34:47			0	36801	0	0	0	29922	28500	165422	26774	1056400	44996	111135	0	0	8036	586340	0	0
2024-07-18 21:35:47			0	36779	0	0	0	29927	28500	165522	26939	1056453	44974	111137	0	0	8034	587228	0	0
2024-07-18 21:36:47			0	36772	0	0	0	29916	28510	165414	26765	1056489	44997	111133	0	0	8034	587477	0	0
2024-07-18 21:37:47			0	36777	0	0	0	29914	28510	165398	26826	1056390	44997	111132	0	0	8035	587275	0	0
2024-07-18 21:38:47			0	36769	0	0	0	29906	28510	165546	26857	1056444	44986	111129	0	0	8034	587598	0	0
2024-07-18 21:39:47			0	36763	0	0	0	29880	28520	165522	26915	1056264	44975	111119	0	0	8034	587806	0	0
2024-07-18 21:40:47			0	36738	0	0	0	29859	28510	165502	26835	1056283	44975	111111	0	0	8033	588851	0	0
2024-07-18 21:41:47			0	36740	0	0	0	29831	28500	165602	26955	1056148	44939	111100	0	0	8034	588805	0	0
2024-07-18 21:42:47			0	36711	0	0	0	29812	28490	165718	26727	1056076	44938	111093	0	0	8032	590013	0	0
2024-07-18 21:43:47			0	36679	0	0	0	29786	28480	165810	26538	1055951	44926	111083	0	0	8031	591344	0	0
2024-07-18 21:44:47			0	36670	0	0	0	29761	28460	165882	27072	1055862	44947	111073	0	0	8031	591778	0	0
2024-07-18 21:45:47			0	36659	0	0	0	29748	28440	165894	26805	1055754	44957	111068	0	0	8030	592293	0	0
2024-07-18 21:46:47			0	36652	0	0	0	29737	28450	166002	26630	1055817	44946	111064	0	0	8030	592543	0	0
2024-07-18 21:47:47			0	36663	0	0	0	29740	28420	166034	26904	1055719	44955	111065	0	0	8030	592199	0	0
2024-07-18 21:48:47			0	36657	0	0	0	29724	28430	166062	26790	1055727	44943	111059	0	0	8030	592409	0	0
2024-07-18 21:49:47			0	36661	0	0	0	29719	28410	166122	27074	1055611	44941	111057	0	0	8031	592315	0	0
2024-07-18 21:50:47			0	36677	0	0	0	29709	28400	166054	26774	1055602	44953	111053	0	0	8032	591699	0	0
2024-07-18 21:51:47			0	36664	0	0	0	29706	28390	165974	27076	1055557	44929	111052	0	0	8031	592261	0	0
2024-07-18 21:52:47			0	36685	0	0	0	29701	28390	165882	26883	1055557	44952	111050	0	0	8032	591408	0	0
2024-07-18 21:53:47			0	36684	0	0	0	29701	28370	165918	26949	1055585	44961	111050	0	0	8032	591517	0	0
2024-07-18 21:54:47			0	36703	0	0	0	29719	28390	165874	26680	1055638	44973	111057	0	0	8033	590678	0	0
2024-07-18 21:55:47			0	36717	0	0	0	29742	28380	165806	26975	1055710	44984	111066	0	0	8033	590145	0	0
2024-07-18 21:56:47			0	36719	0	0	0	29755	28400	165806	26791	1055764	44974	111071	0	0	8033	589996	0	0
2024-07-18 21:57:47			0	36711	0	0	0	29753	28400	165758	26968	1055836	44974	111070	0	0	8033	590320	0	0
2024-07-18 21:58:47			0	36721	0	0	0	29750	28410	165722	26791	1055773	44963	111069	0	0	8034	589880	0	0
2024-07-18 21:59:47			0	36736	0	0	0	29745	28400	165706	26587	1055647	44974	111067	0	0	8034	589307	0	0
2024-07-18 22:00:47			0	36756	0	0	0	29740	28400	165590	26835	1055647	44963	111065	0	0	8036	588498	0	0
2024-07-18 22:01:47			0	36753	0	0	0	29740	28390	165570	26790	1055692	44973	111065	0	0	8035	588653	0	0
2024-07-18 22:02:47			0	36780	0	0	0	29740	28390	165490	26880	1055638	44973	111065	0	0	8037	587562	0	0
2024-07-18 22:03:47			0	36790	0	0	0	29735	28390	165562	27161	1055611	44952	111063	0	0	8038	587157	0	0
2024-07-18 22:04:47			0	36800	0	0	0	29722	28390	165558	26887	1055584	44962	111058	0	0	8039	586754	0	0
2024-07-18 22:05:47			0	36780	0	0	0	29716	28380	165478	26651	1055593	44961	111056	0	0	8037	587596	0	0
2024-07-18 22:06:47			0	36805	0	0	0	29714	28380	165450	26873	1055620	44972	111055	0	0	8039	586586	0	0
2024-07-18 22:07:47			0	36807	0	0	0	29711	28370	165482	26850	1055585	44961	111054	0	0	8039	586539	0	0
2024-07-18 22:08:47			0	36822	0	0	0	29719	28380	165370	26649	1055656	44972	111057	0	0	8040	585900	0	0
2024-07-18 22:09:47			0	36814	0	0	0	29716	28370	165402	26817	1055665	44972	111056	0	0	8039	586257	0	0
2024-07-18 22:10:47			0	36813	0	0	0	29737	28380	165462	26713	1055629	44984	111064	0	0	8039	586263	0	0
2024-07-18 22:11:47			0	36806	0	0	0	29742	28400	165386	26713	1055782	44986	111066	0	0	8039	586478	0	0
2024-07-18 22:12:47			0	36801	0	0	0	29753	28400	165502	26590	1055701	44963	111070	0	0	8038	586680	0	0
2024-07-18 22:13:47			0	36782	0	0	0	29766	28400	165446	26793	1055844	44963	111075	0	0	8037	587447	0	0
2024-07-18 22:14:47			0	36780	0	0	0	29763	28400	165566	26682	1055764	44941	111074	0	0	8037	587528	0	0
2024-07-18 22:15:47			0	36787	0	0	0	29763	28400	165598	27031	1055674	44986	111074	0	0	8037	587245	0	0
2024-07-18 22:16:47			0	36781	0	0	0	29761	28400	165534	26675	1055836	44974	111073	0	0	8037	587487	0	0
2024-07-18 22:17:47			0	36778	0	0	0	29758	28400	165422	27059	1055755	44963	111072	0	0	8037	587608	0	0
2024-07-18 22:18:47			0	36780	0	0	0	29763	28400	165614	26870	1055836	44963	111074	0	0	8037	587528	0	0
2024-07-18 22:19:47			0	36765	0	0	0	29774	28410	165538	26641	1055773	44974	111078	0	0	8036	588100	0	0
2024-07-18 22:20:47			0	36772	0	0	0	29786	28400	165554	26878	1055782	44974	111083	0	0	8036	587851	0	0
2024-07-18 22:21:47			0	36768	0	0	0	29786	28410	165642	26826	1055862	44975	111083	0	0	8036	587978	0	0
2024-07-18 22:22:47			0	36762	0	0	0	29784	28420	165666	26928	1055907	44965	111082	0	0	8035	588187	0	0
2024-07-18 22:23:47			0	36752	0	0	0	29784	28410	165566	26785	1055916	44975	111082	0	0	8035	588626	0	0
2024-07-18 22:24:47			0	36755	0	0	0	29794	28410	165602	26769	1055916	44975	111086	0	0	8035	588504	0	0
2024-07-18 22:25:47			0	36751	0	0	0	29812	28430	165610	26753	1055979	44977	111093	0	0	8034	588598	0	0
2024-07-18 22:26:47			0	36751	0	0	0	29818	28420	165742	26916	1055979	44988	111095	0	0	8034	588632	0	0
2024-07-18 22:27:47			0	36748	0	0	0	29825	28420	165578	26925	1056042	44965	111098	0	0	8034	588753	0	0
2024-07-18 22:28:47			0	36754	0	0	0	29828	28420	165706	26679	1055988	44976	111099	0	0	8034	588511	0	0
2024-07-18 22:29:47			0	36756	0	0	0	29823	28440	165630	26698	1055988	44978	111097	0	0	8034	588362	0	0
2024-07-18 22:30:47			0	36755	0	0	0	29825	28440	165478	27154	1055970	44968	111098	0	0	8034	588402	0	0
2024-07-18 22:31:47			0	36770	0	0	0	29849	28430	165562	27312	1056087	44989	111107	0	0	8035	587830	0	0
2024-07-18 22:32:47			0	36784	0	0	0	29849	28450	165518	27034	1056113	44991	111107	0	0	8036	587196	0	0
2024-07-18 22:33:47			0	36757	0	0	0	29844	28440	165634	26875	1056104	44979	111105	0	0	8034	588321	0	0
2024-07-18 22:34:47			0	36527	0	0	0	29846	28440	166597	26880	1056131	44979	111106	0	0	8021	597672	0	0
2024-07-18 22:35:47			0	36190	0	0	0	29849	28440	168065	26993	1056050	44979	111107	0	0	8000	611558	0	0
2024-07-18 22:36:47			0	35975	0	0	0	29841	28450	168965	26923	1056059	44991	111104	0	0	7988	620498	0	0
2024-07-18 22:37:47			0	35824	0	0	0	29849	28440	169748	26769	1056104	44968	111107	0	0	7978	626893	0	0
2024-07-18 22:38:47			0	35700	0	0	0	29844	28450	170252	26981	1056149	44968	111105	0	0	7971	632114	0	0
2024-07-18 22:39:47			0	35607	0	0	0	29849	28450	170832	26935	1056095	44991	111107	0	0	7965	636078	0	0
2024-07-18 22:40:47			0	35558	0	0	0	29846	28450	170960	26760	1056113	44957	111106	0	0	7962	638173	0	0
2024-07-18 22:41:47			0	35501	0	0	0	29841	28450	171200	26680	1056095	44979	111104	0	0	7959	640617	0	0
2024-07-18 22:42:47			0	35481	0	0	0	29844	28460	171300	26797	1056167	44970	111105	0	0	7958	641439	0	0
2024-07-18 22:43:47			0	35478	0	0	0	29838	28450	171380	26805	1056068	44979	111103	0	0	7957	641605	0	0
2024-07-18 22:44:47			0	35454	0	0	0	29846	28460	171556	26713	1056167	44993	111106	0	0	7956	642600	0	0
2024-07-18 22:45:47			0	35468	0	0	0	29857	28460	171524	26816	1056158	44980	111110	0	0	7957	641998	0	0
2024-07-18 22:46:47			0	35468	0	0	0	29851	28460	171380	27020	1056185	44992	111108	0	0	7957	641998	0	0
2024-07-18 22:47:47			0	35499	0	0	0	29859	28460	171288	26850	1056158	44980	111111	0	0	7958	640666	0	0
2024-07-18 22:48:47			0	35511	0	0	0	29857	28460	171216	26639	1056194	44993	111110	0	0	7959	640151	0	0
2024-07-18 22:49:47			0	35555	0	0	0	29851	28460	170848	26422	1056185	44980	111108	0	0	7962	638265	0	0
2024-07-18 22:50:47			0	35594	0	0	0	29864	28470	170752	26505	1056176	44993	111113	0	0	7964	636559	0	0
2024-07-18 22:51:47			0	35645	0	0	0	29857	28460	170468	26850	1056185	44992	111110	0	0	7967	634419	0	0
2024-07-18 22:52:47			0	35670	0	0	0	29857	28470	170304	27133	1056230	44981	111110	0	0	7969	633317	0	0
2024-07-18 22:53:47			0	35685	0	0	0	29867	28470	170336	26693	1056211	44970	111114	0	0	7970	632679	0	0
2024-07-18 22:54:47			0	35692	0	0	0	29864	28470	170316	26878	1056176	44993	111113	0	0	7970	632381	0	0
2024-07-18 22:55:47			0	35720	0	0	0	29859	28480	170228	26942	1056256	44972	111111	0	0	7972	631154	0	0
2024-07-18 22:56:47			0	35731	0	0	0	29859	28460	170072	26958	1056167	44981	111111	0	0	7973	630760	0	0
2024-07-18 22:57:47			0	35758	0	0	0	29862	28470	169980	26779	1056211	44981	111112	0	0	7974	629578	0	0
2024-07-18 22:58:47			0	35777	0	0	0	29857	28470	169912	26982	1056185	44993	111110	0	0	7976	628773	0	0
2024-07-18 22:59:47			0	35799	0	0	0	29857	28470	169936	27142	1056230	44993	111110	0	0	7977	627841	0	0
2024-07-18 23:00:47			0	35810	0	0	0	29857	28470	169660	26899	1056176	44981	111110	0	0	7978	627376	0	0
2024-07-18 23:01:47			0	35836	0	0	0	29864	28470	169576	27130	1056185	44993	111113	0	0	7979	626277	0	0
2024-07-18 23:02:47			0	35878	0	0	0	29862	28460	169521	26951	1056131	44980	111112	0	0	7982	624541	0	0
2024-07-18 23:03:47			0	35887	0	0	0	29851	28460	169317	27104	1056167	44993	111108	0	0	7982	624162	0	0
2024-07-18 23:04:47			0	35886	0	0	0	29859	28460	169405	26817	1056221	44993	111111	0	0	7982	624204	0	0
2024-07-18 23:05:47			0	35908	0	0	0	29857	28470	169233	27170	1056238	44981	111110	0	0	7983	623241	0	0
2024-07-18 23:06:47			0	35926	0	0	0	29857	28470	169281	26743	1056265	44981	111110	0	0	7985	622484	0	0
2024-07-18 23:07:47			0	35921	0	0	0	29851	28470	169205	27225	1056203	44981	111108	0	0	7984	622694	0	0
2024-07-18 23:08:47			0	35959	0	0	0	29851	28470	169077	27038	1056230	44981	111108	0	0	7987	621097	0	0
2024-07-18 23:09:47			0	35951	0	0	0	29854	28480	168953	26693	1056256	44983	111109	0	0	7986	621397	0	0
2024-07-18 23:10:47			0	35969	0	0	0	29851	28460	168801	26842	1056185	44969	111108	0	0	7987	620713	0	0
2024-07-18 23:11:47			0	35998	0	0	0	29846	28470	168881	26984	1056122	44970	111106	0	0	7989	619461	0	0
2024-07-18 23:12:47			0	35984	0	0	0	29849	28460	168809	27026	1056140	44981	111107	0	0	7988	620084	0	0
2024-07-18 23:13:47			0	36013	0	0	0	29836	28460	168721	27138	1056113	44970	111102	0	0	7990	618869	0	0
2024-07-18 23:14:47			0	36009	0	0	0	29831	28470	168781	26571	1056122	44981	111100	0	0	7990	619000	0	0
2024-07-18 23:15:47			0	36038	0	0	0	29828	28450	168733	27147	1056149	44979	111099	0	0	7992	617858	0	0
2024-07-18 23:16:47			0	36017	0	0	0	29833	28460	168677	26977	1056158	44969	111101	0	0	7990	618701	0	0
2024-07-18 23:17:47			0	36034	0	0	0	29828	28460	168597	26913	1056050	44969	111099	0	0	7992	617990	0	0
2024-07-18 23:18:47			0	36045	0	0	0	29828	28460	168653	27019	1056113	44981	111099	0	0	7992	617530	0	0
2024-07-18 23:19:47			0	36047	0	0	0	29828	28450	168573	27039	1056122	44991	111099	0	0	7992	617481	0	0
2024-07-18 23:20:47			0	36057	0	0	0	29825	28450	168493	26894	1056041	44979	111098	0	0	7993	617063	0	0
2024-07-18 23:21:47			0	36068	0	0	0	29823	28460	168477	26909	1056077	44980	111097	0	0	7994	616568	0	0
2024-07-18 23:22:47			0	36070	0	0	0	29812	28450	168449	26961	1056059	44968	111093	0	0	7994	616520	0	0
2024-07-18 23:23:47			0	36095	0	0	0	29823	28450	168377	26720	1056041	44979	111097	0	0	7995	615477	0	0
2024-07-18 23:24:47			0	36104	0	0	0	29818	28450	168373	27062	1056095	44968	111095	0	0	7996	615101	0	0
2024-07-18 23:25:47			0	36128	0	0	0	29825	28440	168089	27000	1055997	44968	111098	0	0	7997	614136	0	0
2024-07-18 23:26:47			0	36143	0	0	0	29815	28450	168161	26984	1056059	44991	111094	0	0	7998	613476	0	0
2024-07-18 23:27:47			0	36151	0	0	0	29823	28440	168049	27003	1056095	44978	111097	0	0	7999	613179	0	0
2024-07-18 23:28:47			0	36169	0	0	0	29825	28440	168021	27105	1056024	44991	111098	0	0	8000	612430	0	0
2024-07-18 23:29:47			0	36178	0	0	0	29818	28440	167945	26573	1056077	44979	111095	0	0	8000	612056	0	0
2024-07-18 23:30:47			0	36192	0	0	0	29812	28440	167945	27031	1055997	44968	111093	0	0	8001	611474	0	0
2024-07-18 23:31:47			0	36202	0	0	0	29810	28450	167945	26871	1056086	44968	111092	0	0	8002	611024	0	0
2024-07-18 23:32:47			0	36203	0	0	0	29825	28440	167889	26854	1056024	44991	111098	0	0	8002	611018	0	0
2024-07-18 23:33:47			0	36218	0	0	0	29810	28440	167949	26960	1055934	44967	111092	0	0	8003	610395	0	0
2024-07-18 23:34:47			0	36207	0	0	0	29810	28430	167913	26564	1056033	44989	111092	0	0	8002	610887	0	0
2024-07-18 23:35:47			0	36207	0	0	0	29805	28430	167889	26654	1055979	44977	111090	0	0	8002	610887	0	0
2024-07-18 23:36:47			0	36196	0	0	0	29799	28440	167965	26608	1055997	44968	111088	0	0	8002	611308	0	0
2024-07-18 23:37:47			0	36196	0	0	0	29786	28430	167929	26599	1055916	44965	111083	0	0	8002	611344	0	0
2024-07-18 23:38:47			0	36196	0	0	0	29781	28440	167933	26757	1055970	44991	111081	0	0	8002	611308	0	0
2024-07-18 23:39:47			0	36183	0	0	0	29755	28430	167969	26908	1055979	44966	111071	0	0	8002	611884	0	0
2024-07-18 23:40:47			0	36187	0	0	0	29742	28430	168045	26528	1055889	44976	111066	0	0	8002	611717	0	0
2024-07-18 23:41:47			0	36173	0	0	0	29735	28420	168021	26875	1055764	44965	111063	0	0	8001	612335	0	0
2024-07-18 23:42:47			0	36192	0	0	0	29740	28410	168025	26826	1055800	44974	111065	0	0	8002	611580	0	0
2024-07-18 23:43:47			0	36177	0	0	0	29750	28400	168057	26906	1055817	44963	111069	0	0	8001	612239	0	0
2024-07-18 23:44:47			0	36165	0	0	0	29755	28400	167997	26585	1055844	44963	111071	0	0	8000	612738	0	0
2024-07-18 23:45:47			0	36193	0	0	0	29755	28400	168033	26717	1055755	44963	111071	0	0	8002	611574	0	0
2024-07-18 23:46:47			0	36183	0	0	0	29745	28410	168009	26700	1055862	44998	111067	0	0	8002	611954	0	0
2024-07-18 23:47:47			0	36171	0	0	0	29735	28410	168041	26739	1055719	44963	111063	0	0	8001	612453	0	0
2024-07-18 23:48:47			0	36184	0	0	0	29745	28400	167977	26961	1055844	44963	111067	0	0	8002	611948	0	0
2024-07-18 23:49:47			0	36175	0	0	0	29742	28410	168065	26901	1055800	44986	111066	0	0	8001	612287	0	0
2024-07-18 23:50:47			0	36173	0	0	0	29740	28400	168061	26876	1055791	44974	111065	0	0	8001	612405	0	0
2024-07-18 23:51:47			0	36158	0	0	0	29742	28400	168045	26788	1055710	44963	111066	0	0	8000	613029	0	0
2024-07-18 23:52:47			0	36181	0	0	0	29724	28400	168061	26927	1055755	44986	111059	0	0	8002	612073	0	0
2024-07-18 23:53:47			0	36190	0	0	0	29753	28400	168029	26805	1055764	44963	111070	0	0	8002	611699	0	0
2024-07-18 23:54:47			0	36202	0	0	0	29755	28400	168009	26979	1055791	44986	111071	0	0	8003	611201	0	0
2024-07-18 23:55:47			0	36186	0	0	0	29766	28380	167993	27182	1055710	44972	111075	0	0	8001	611936	0	0
2024-07-18 23:56:47			0	36175	0	0	0	29768	28400	167945	27022	1055782	44963	111076	0	0	8001	612322	0	0
2024-07-18 23:57:47			0	36191	0	0	0	29768	28400	168017	27253	1055728	44974	111076	0	0	8002	611657	0	0
2024-07-18 23:58:47			0	36182	0	0	0	29774	28380	168181	27046	1055737	44972	111078	0	0	8001	612102	0	0
2024-07-18 23:59:47			0	36183	0	0	0	29768	28400	168049	26989	1055782	44974	111076	0	0	8001	611990	0	0
2024-07-19 00:00:47			0	36182	0	0	0	29763	28380	168097	27086	1055710	44972	111074	0	0	8001	612102	0	0
2024-07-19 00:01:47			0	36188	0	0	0	29758	28400	168081	27062	1055728	44963	111072	0	0	8002	611782	0	0
2024-07-19 00:02:47			0	36193	0	0	0	29768	28380	168081	26986	1055764	44972	111076	0	0	8002	611645	0	0
2024-07-19 00:03:47			0	36180	0	0	0	29761	28380	168069	27334	1055755	44972	111073	0	0	8001	612185	0	0
2024-07-19 00:04:47			0	36191	0	0	0	29761	28380	168009	26963	1055710	44961	111073	0	0	8002	611728	0	0
2024-07-19 00:05:47			0	36191	0	0	0	29763	28390	168093	26977	1055719	44973	111074	0	0	8002	611693	0	0
2024-07-19 00:06:47			0	36187	0	0	0	29755	28380	167965	26927	1055737	44972	111071	0	0	8002	611894	0	0
2024-07-19 00:07:47			0	36197	0	0	0	29750	28370	167997	26802	1055611	44972	111069	0	0	8002	611514	0	0
2024-07-19 00:08:47			0	36186	0	0	0	29745	28370	167945	26705	1055683	44960	111067	0	0	8002	611971	0	0
2024-07-19 00:09:47			0	36207	0	0	0	29729	28370	168017	26904	1055630	44950	111061	0	0	8003	611099	0	0
2024-07-19 00:10:47			0	36210	0	0	0	29724	28360	168017	26890	1055639	44970	111059	0	0	8003	611010	0	0
2024-07-19 00:11:47			0	36218	0	0	0	29729	28360	167977	26762	1055558	44970	111061	0	0	8004	610678	0	0
2024-07-19 00:12:47			0	36200	0	0	0	29737	28360	168041	26882	1055612	44970	111064	0	0	8003	611425	0	0
2024-07-19 00:13:47			0	36211	0	0	0	29735	28360	167929	27017	1055558	44970	111063	0	0	8003	610968	0	0
2024-07-19 00:14:47			0	36203	0	0	0	29732	28340	167921	26883	1055531	44980	111062	0	0	8003	611371	0	0
2024-07-19 00:15:47			0	36199	0	0	0	29745	28350	167913	27046	1055513	44970	111067	0	0	8002	611502	0	0
2024-07-19 00:16:47			0	36199	0	0	0	29737	28350	167873	26686	1055576	44981	111064	0	0	8002	611502	0	0
2024-07-19 00:17:47			0	36213	0	0	0	29742	28350	167945	27142	1055567	44981	111066	0	0	8003	610920	0	0
2024-07-19 00:18:47			0	36222	0	0	0	29740	28350	167889	26883	1055567	44970	111065	0	0	8004	610547	0	0
2024-07-19 00:19:47			0	36228	0	0	0	29753	28340	167777	26871	1055585	44991	111070	0	0	8004	610333	0	0
2024-07-19 00:20:47			0	36243	0	0	0	29750	28350	167781	27147	1055657	44981	111069	0	0	8005	609676	0	0
2024-07-19 00:21:47			0	36258	0	0	0	29753	28350	167761	26837	1055621	44970	111070	0	0	8006	609055	0	0
2024-07-19 00:22:47			0	36240	0	0	0	29748	28350	167813	26935	1055567	44981	111068	0	0	8005	609800	0	0
2024-07-19 00:23:47			0	36268	0	0	0	29742	28350	167725	26986	1055603	44981	111066	0	0	8006	608640	0	0
2024-07-19 00:24:47			0	36283	0	0	0	29753	28340	167637	26687	1055612	44980	111070	0	0	8007	608055	0	0
2024-07-19 00:25:47			0	36274	0	0	0	29750	28340	167625	26925	1055531	44969	111069	0	0	8007	608427	0	0
2024-07-19 00:26:47			0	36265	0	0	0	29740	28340	167613	26857	1055558	44980	111065	0	0	8006	608800	0	0
2024-07-19 00:27:47			0	36292	0	0	0	29742	28350	167601	26993	1055567	44958	111066	0	0	8008	607647	0	0
2024-07-19 00:28:47			0	36284	0	0	0	29724	28340	167613	26974	1055531	44980	111059	0	0	8008	608013	0	0
2024-07-19 00:29:47			0	36311	0	0	0	29711	28340	167537	26880	1055450	44958	111054	0	0	8009	606897	0	0
2024-07-19 00:30:47			0	36321	0	0	0	29698	28330	167465	26710	1055379	44957	111049	0	0	8010	606519	0	0
2024-07-19 00:31:47			0	36329	0	0	0	29696	28320	167505	26868	1055460	44966	111048	0	0	8011	606224	0	0
2024-07-19 00:32:47			0	36338	0	0	0	29698	28320	167409	26892	1055325	44977	111049	0	0	8011	605852	0	0
2024-07-19 00:33:47			0	36339	0	0	0	29675	28320	167373	26764	1055298	44955	111040	0	0	8012	605811	0	0
2024-07-19 00:34:47			0	36337	0	0	0	29675	28310	167265	27024	1055281	44966	111040	0	0	8012	605928	0	0
2024-07-19 00:35:47			0	36352	0	0	0	29662	28310	167217	26715	1055281	44966	111035	0	0	8013	605309	0	0
2024-07-19 00:36:47			0	36372	0	0	0	29641	28280	167181	26667	1055209	44952	111027	0	0	8014	604590	0	0
2024-07-19 00:37:47			0	36433	0	0	0	29638	28280	167021	26826	1055155	44963	111026	0	0	8018	602079	0	0
2024-07-19 00:38:47			0	36416	0	0	0	29633	28270	167081	26915	1055164	44950	111024	0	0	8017	602813	0	0
2024-07-19 00:39:47			0	36326	0	0	0	29628	28280	167449	27156	1055120	44973	111022	0	0	8011	606488	0	0
2024-07-19 00:40:47			0	36205	0	0	0	29625	28260	167985	26833	1055146	44950	111021	0	0	8004	611571	0	0
2024-07-19 00:41:47			0	36130	0	0	0	29620	28260	168401	27038	1055057	44971	111019	0	0	8000	614692	0	0
2024-07-19 00:42:47			0	36036	0	0	0	29618	28260	168841	26788	1055083	44960	111018	0	0	7994	618621	0	0
2024-07-19 00:43:47			0	35966	0	0	0	29625	28250	169125	26960	1055039	44949	111021	0	0	7990	621593	0	0
2024-07-19 00:44:47			0	35917	0	0	0	29620	28240	169281	26788	1055030	44959	111019	0	0	7987	623691	0	0
2024-07-19 00:45:47			0	35871	0	0	0	29620	28240	169577	26859	1055003	44959	111019	0	0	7984	625631	0	0
2024-07-19 00:46:47			0	35864	0	0	0	29618	28250	169589	26849	1055066	44970	111018	0	0	7984	625891	0	0
2024-07-19 00:47:47			0	35842	0	0	0	29620	28250	169740	26956	1055066	44959	111019	0	0	7982	626820	0	0
2024-07-19 00:48:47			0	35840	0	0	0	29612	28240	169788	26845	1055021	44969	111016	0	0	7982	626941	0	0
2024-07-19 00:49:47			0	35820	0	0	0	29618	28230	169788	26746	1054976	44968	111018	0	0	7981	627824	0	0
2024-07-19 00:50:47			0	35823	0	0	0	29625	28230	169776	26852	1055003	44980	111021	0	0	7981	627697	0	0
2024-07-19 00:51:47			0	35828	0	0	0	29615	28230	169796	26817	1054985	44991	111017	0	0	7981	627485	0	0
2024-07-19 00:52:47			0	35832	0	0	0	29636	28230	169792	27114	1055012	44968	111025	0	0	7981	627316	0	0
2024-07-19 00:53:47			0	35851	0	0	0	29623	28230	169724	26987	1055039	44947	111020	0	0	7983	626512	0	0
2024-07-19 00:54:47			0	35868	0	0	0	29625	28230	169553	26837	1055039	44980	111021	0	0	7984	625794	0	0
2024-07-19 00:55:47			0	35896	0	0	0	29633	28240	169473	26646	1055030	44982	111024	0	0	7985	624576	0	0
2024-07-19 00:56:47			0	35923	0	0	0	29638	28230	169369	26753	1055039	44968	111026	0	0	7987	623474	0	0
2024-07-19 00:57:47			0	35938	0	0	0	29646	28240	169341	26762	1055111	44982	111029	0	0	7988	622807	0	0
2024-07-19 00:58:47			0	35954	0	0	0	29644	28250	169205	26965	1055155	44982	111028	0	0	7989	622098	0	0
2024-07-19 00:59:47			0	35948	0	0	0	29654	28250	169217	26994	1055093	44982	111032	0	0	7988	622350	0	0
2024-07-19 01:00:47			0	35965	0	0	0	29651	28250	169245	26791	1055146	44959	111031	0	0	7989	621635	0	0
2024-07-19 01:01:47			0	35952	0	0	0	29644	28250	169121	26937	1055120	44982	111028	0	0	7989	622182	0	0
2024-07-19 01:02:47			0	35940	0	0	0	29644	28250	169161	26733	1055102	44993	111028	0	0	7988	622687	0	0
2024-07-19 01:03:47			0	35957	0	0	0	29644	28240	169213	27069	1055048	44981	111028	0	0	7989	622008	0	0
2024-07-19 01:04:47			0	35950	0	0	0	29646	28240	169213	26956	1055084	44982	111029	0	0	7988	622302	0	0
2024-07-19 01:05:47			0	35940	0	0	0	29638	28240	169329	26857	1055030	44949	111026	0	0	7988	622723	0	0
2024-07-19 01:06:47			0	35933	0	0	0	29618	28230	169265	27036	1055003	44947	111018	0	0	7988	623053	0	0
2024-07-19 01:07:47			0	35945	0	0	0	29615	28230	169389	27017	1054958	44968	111017	0	0	7989	622548	0	0
2024-07-19 01:08:47			0	35929	0	0	0	29599	28230	169317	26483	1054958	44958	111011	0	0	7988	623222	0	0
2024-07-19 01:09:47			0	35922	0	0	0	29592	28220	169309	27102	1054941	44957	111008	0	0	7988	623553	0	0
2024-07-19 01:10:47			0	35932	0	0	0	29579	28210	169289	26864	1054815	44956	111003	0	0	7988	623167	0	0
2024-07-19 01:11:47			0	35945	0	0	0	29579	28210	169285	26892	1054779	44956	111003	0	0	7989	622620	0	0
2024-07-19 01:12:47			0	35946	0	0	0	29568	28210	169169	27071	1054779	44966	110999	0	0	7989	622578	0	0
2024-07-19 01:13:47			0	35983	0	0	0	29566	28190	169089	27133	1054753	44965	110998	0	0	7991	621094	0	0
2024-07-19 01:14:47			0	35986	0	0	0	29561	28200	169029	26849	1054770	44966	110996	0	0	7992	620932	0	0
2024-07-19 01:15:47			0	36007	0	0	0	29561	28190	168881	26800	1054798	44953	110996	0	0	7993	620087	0	0
2024-07-19 01:16:47			0	36012	0	0	0	29558	28180	168969	26814	1054762	44953	110995	0	0	7993	619913	0	0
2024-07-19 01:17:47			0	36042	0	0	0	29558	28180	168841	26816	1054753	44942	110995	0	0	7995	618655	0	0
2024-07-19 01:18:47			0	36029	0	0	0	29553	28180	168793	26899	1054681	44953	110993	0	0	7994	619200	0	0
2024-07-19 01:19:47			0	36046	0	0	0	29548	28170	168701	26946	1054636	44952	110991	0	0	7996	618523	0	0
2024-07-19 01:20:47			0	36084	0	0	0	29545	28170	168577	26543	1054717	44963	110990	0	0	7998	616933	0	0
2024-07-19 01:21:47			0	36091	0	0	0	29542	28170	168589	26793	1054708	44962	110989	0	0	7998	616640	0	0
2024-07-19 01:22:47			0	36076	0	0	0	29548	28160	168605	26875	1054700	44940	110991	0	0	7997	617303	0	0
2024-07-19 01:23:47			0	36097	0	0	0	29545	28170	168601	27291	1054717	44952	110990	0	0	7999	616390	0	0
2024-07-19 01:24:47			0	36094	0	0	0	29545	28160	168557	27048	1054700	44951	110990	0	0	7998	616550	0	0
2024-07-19 01:25:47			0	36115	0	0	0	29548	28160	168545	27164	1054700	44951	110991	0	0	8000	615673	0	0
2024-07-19 01:26:47			0	36149	0	0	0	29540	28170	168345	26870	1054681	44962	110988	0	0	8002	614220	0	0
2024-07-19 01:27:47			0	36168	0	0	0	29540	28160	168485	26812	1054646	44951	110988	0	0	8003	613463	0	0
2024-07-19 01:28:47			0	36154	0	0	0	29540	28160	168401	27308	1054610	44961	110988	0	0	8002	614047	0	0
2024-07-19 01:29:47			0	36152	0	0	0	29535	28160	168401	27066	1054646	44962	110986	0	0	8002	614130	0	0
2024-07-19 01:30:47			0	36167	0	0	0	29545	28150	168485	27138	1054654	44950	110990	0	0	8003	613540	0	0
2024-07-19 01:31:47			0	36172	0	0	0	29542	28160	168513	27026	1054646	44973	110989	0	0	8003	613297	0	0
2024-07-19 01:32:47			0	36185	0	0	0	29529	28140	168365	27185	1054583	44960	110984	0	0	8004	612826	0	0
2024-07-19 01:33:47			0	36209	0	0	0	29532	28150	168269	27185	1054601	44961	110985	0	0	8005	611793	0	0
2024-07-19 01:34:47			0	36227	0	0	0	29529	28140	168145	26963	1054529	44971	110984	0	0	8007	611080	0	0
2024-07-19 01:35:47			0	36250	0	0	0	29527	28150	168093	27253	1054574	44950	110983	0	0	8008	610090	0	0
2024-07-19 01:36:47			0	36284	0	0	0	29519	28150	167829	26930	1054565	44960	110980	0	0	8010	608681	0	0
2024-07-19 01:37:47			0	36312	0	0	0	29532	28140	167797	26948	1054529	44960	110985	0	0	8012	607557	0	0
2024-07-19 01:38:47			0	36325	0	0	0	29524	28130	167765	26734	1054484	44970	110982	0	0	8012	607055	0	0
2024-07-19 01:39:47			0	36344	0	0	0	29516	28130	167553	26942	1054476	44958	110979	0	0	8014	606269	0	0
2024-07-19 01:40:47			0	36349	0	0	0	29516	28140	167501	27060	1054493	44970	110979	0	0	8014	606028	0	0
2024-07-19 01:41:47			0	36364	0	0	0	29522	28130	167597	26923	1054538	44959	110981	0	0	8015	605444	0	0
2024-07-19 01:42:47			0	36376	0	0	0	29514	28130	167561	26946	1054511	44959	110978	0	0	8016	604949	0	0
2024-07-19 01:43:47			0	36382	0	0	0	29519	28140	167365	26802	1054520	44970	110980	0	0	8016	604667	0	0
2024-07-19 01:44:47			0	36400	0	0	0	29514	28120	167241	26927	1054494	44958	110978	0	0	8017	603994	0	0
2024-07-19 01:45:47			0	36419	0	0	0	29509	28120	167157	26904	1054467	44958	110976	0	0	8018	603212	0	0
2024-07-19 01:46:47			0	36445	0	0	0	29501	28130	167073	27024	1054511	44959	110973	0	0	8020	602108	0	0
2024-07-19 01:47:47			0	36472	0	0	0	29503	28120	166965	26987	1054431	44946	110974	0	0	8022	601033	0	0
2024-07-19 01:48:47			0	36501	0	0	0	29501	28120	166885	26793	1054386	44947	110973	0	0	8023	599843	0	0
2024-07-19 01:49:47			0	36524	0	0	0	29501	28120	166817	26613	1054431	44935	110973	0	0	8025	598901	0	0
2024-07-19 01:50:47			0	36548	0	0	0	29498	28110	166645	26890	1054395	44958	110972	0	0	8026	597953	0	0
2024-07-19 01:51:47			0	36545	0	0	0	29493	28110	166629	27137	1054467	44957	110970	0	0	8026	598076	0	0
2024-07-19 01:52:47			0	36569	0	0	0	29503	28110	166593	27008	1054422	44958	110974	0	0	8027	597094	0	0
2024-07-19 01:53:47			0	36571	0	0	0	29496	28110	166653	27083	1054449	44968	110971	0	0	8027	597012	0	0
2024-07-19 01:54:47			0	36592	0	0	0	29501	28110	166453	27223	1054413	44945	110973	0	0	8029	596155	0	0
2024-07-19 01:55:47			0	36595	0	0	0	29503	28100	166370	27123	1054350	44945	110974	0	0	8029	596066	0	0
2024-07-19 01:56:47			0	36600	0	0	0	29488	28100	166358	27282	1054350	44945	110968	0	0	8029	595862	0	0
2024-07-19 01:57:47			0	36620	0	0	0	29488	28100	166302	26809	1054350	44957	110968	0	0	8030	595047	0	0
2024-07-19 01:58:47			0	36614	0	0	0	29485	28100	166270	26797	1054377	44957	110967	0	0	8030	595291	0	0
2024-07-19 01:59:47			0	36605	0	0	0	29475	28090	166318	27069	1054315	44933	110963	0	0	8030	595693	0	0
2024-07-19 02:00:47			0	36614	0	0	0	29480	28090	166414	27124	1054395	44966	110965	0	0	8030	595326	0	0
2024-07-19 02:01:47			0	36618	0	0	0	29483	28110	166238	27062	1054386	44967	110966	0	0	8030	595094	0	0
2024-07-19 02:02:47			0	36607	0	0	0	29483	28090	166194	27209	1054342	44956	110966	0	0	8030	595611	0	0
2024-07-19 02:03:47			0	36638	0	0	0	29472	28090	166254	27097	1054342	44956	110962	0	0	8032	594347	0	0
2024-07-19 02:04:47			0	36650	0	0	0	29477	28090	166106	26870	1054288	44944	110964	0	0	8032	593858	0	0
2024-07-19 02:05:47			0	36659	0	0	0	29472	28090	166026	27020	1054252	44965	110962	0	0	8033	593492	0	0
2024-07-19 02:06:47			0	36668	0	0	0	29464	28080	165918	27057	1054243	44955	110959	0	0	8034	593160	0	0
2024-07-19 02:07:47			0	36663	0	0	0	29472	28070	165982	26759	1054279	44964	110962	0	0	8033	593398	0	0
2024-07-19 02:08:47			0	36669	0	0	0	29470	28090	165942	26896	1054387	44965	110961	0	0	8034	593085	0	0
2024-07-19 02:09:47			0	36688	0	0	0	29475	28080	165950	26861	1054324	44965	110963	0	0	8035	592346	0	0
2024-07-19 02:10:47			0	36690	0	0	0	29480	28090	165958	26779	1054360	44955	110965	0	0	8035	592231	0	0
2024-07-19 02:11:47			0	36698	0	0	0	29480	28090	165942	27005	1054333	44965	110965	0	0	8035	591906	0	0
2024-07-19 02:12:47			0	36712	0	0	0	29485	28090	165866	27124	1054360	44977	110967	0	0	8036	591337	0	0
2024-07-19 02:13:47			0	36727	0	0	0	29480	28080	165822	26809	1054324	44955	110965	0	0	8037	590762	0	0
2024-07-19 02:14:47			0	36721	0	0	0	29475	28080	165762	27005	1054270	44977	110963	0	0	8037	591006	0	0
2024-07-19 02:15:47			0	36725	0	0	0	29470	28080	165734	26970	1054297	44955	110961	0	0	8037	590844	0	0
2024-07-19 02:16:47			0	36751	0	0	0	29462	28070	165642	26816	1054225	44931	110958	0	0	8038	589823	0	0
2024-07-19 02:17:47			0	36761	0	0	0	29462	28070	165462	26960	1054243	44930	110958	0	0	8039	589418	0	0
2024-07-19 02:18:47			0	36761	0	0	0	29464	28070	165506	26785	1054198	44964	110959	0	0	8039	589418	0	0
2024-07-19 02:19:47			0	36796	0	0	0	29475	28070	165410	26897	1054279	44954	110963	0	0	8041	588001	0	0
2024-07-19 02:20:47			0	36809	0	0	0	29464	28070	165414	26908	1054270	44953	110959	0	0	8042	587475	0	0
2024-07-19 02:21:47			0	36818	0	0	0	29467	28070	165542	27069	1054198	44943	110960	0	0	8042	587112	0	0
2024-07-19 02:22:47			0	36804	0	0	0	29467	28070	165430	27202	1054252	44976	110960	0	0	8042	587677	0	0
2024-07-19 02:23:47			0	36806	0	0	0	29459	28080	165402	26934	1054288	44954	110957	0	0	8042	587563	0	0
2024-07-19 02:24:47			0	36807	0	0	0	29464	28070	165334	26675	1054252	44976	110959	0	0	8042	587556	0	0
2024-07-19 02:25:47			0	36819	0	0	0	29462	28070	165410	26922	1054270	44963	110958	0	0	8043	587071	0	0
2024-07-19 02:26:47			0	36794	0	0	0	29467	28070	165406	26871	1054252	44964	110960	0	0	8041	588082	0	0
2024-07-19 02:27:47			0	36781	0	0	0	29459	28070	165418	26686	1054243	44963	110957	0	0	8040	588608	0	0
2024-07-19 02:28:47			0	36782	0	0	0	29467	28080	165594	26987	1054261	44954	110960	0	0	8040	588533	0	0
2024-07-19 02:29:47			0	36766	0	0	0	29470	28070	165654	27034	1054190	44975	110961	0	0	8039	589215	0	0
2024-07-19 02:30:47			0	36759	0	0	0	29464	28070	165678	26942	1054252	44954	110959	0	0	8039	589499	0	0
2024-07-19 02:31:47			0	36758	0	0	0	29457	28070	165678	26736	1054297	44963	110956	0	0	8039	589540	0	0
2024-07-19 02:32:47			0	36741	0	0	0	29454	28070	165822	27185	1054216	44953	110955	0	0	8038	590229	0	0
2024-07-19 02:33:47			0	36745	0	0	0	29451	28070	165822	26804	1054243	44953	110954	0	0	8038	590066	0	0
2024-07-19 02:34:47			0	36713	0	0	0	29451	28060	165930	26648	1054208	44942	110954	0	0	8036	591399	0	0
2024-07-19 02:35:47			0	36728	0	0	0	29454	28050	165786	26616	1054163	44941	110955	0	0	8037	590824	0	0
2024-07-19 02:36:47			0	36714	0	0	0	29446	28060	165910	27131	1054127	44963	110952	0	0	8037	591358	0	0
2024-07-19 02:37:47			0	36707	0	0	0	29444	28050	165902	27097	1054109	44952	110951	0	0	8036	591677	0	0
2024-07-19 02:38:47			0	36729	0	0	0	29444	28050	165874	27102	1054136	44962	110951	0	0	8037	590784	0	0
2024-07-19 02:39:47			0	36706	0	0	0	29441	28050	165910	26828	1054136	44929	110950	0	0	8036	591717	0	0
2024-07-19 02:40:47			0	36715	0	0	0	29446	28050	165982	27175	1054163	44952	110952	0	0	8037	591352	0	0
2024-07-19 02:41:47			0	36693	0	0	0	29436	28050	166002	26911	1054127	44951	110948	0	0	8035	592246	0	0
2024-07-19 02:42:47			0	36700	0	0	0	29444	28050	165874	27157	1054190	44941	110951	0	0	8036	591961	0	0
2024-07-19 02:43:47			0	36695	0	0	0	29444	28050	165894	26915	1054154	44951	110951	0	0	8035	592164	0	0
2024-07-19 02:44:47			0	36710	0	0	0	29446	28050	165962	26648	1054208	44951	110952	0	0	8036	591555	0	0
2024-07-19 02:45:47			0	36683	0	0	0	29438	28060	165950	26918	1054145	44974	110949	0	0	8035	592618	0	0
2024-07-19 02:46:47			0	36678	0	0	0	29441	28050	165978	26817	1054100	44973	110950	0	0	8034	592856	0	0
2024-07-19 02:47:47			0	36699	0	0	0	29438	28050	165982	26896	1054163	44962	110949	0	0	8036	592002	0	0
2024-07-19 02:48:47			0	36697	0	0	0	29436	28040	165990	27239	1054172	44961	110948	0	0	8036	592117	0	0
2024-07-19 02:49:47			0	36692	0	0	0	29444	28050	165998	26819	1054136	44962	110951	0	0	8035	592286	0	0
2024-07-19 02:50:47			0	36690	0	0	0	29449	28050	165902	27102	1054136	44962	110953	0	0	8035	592368	0	0
2024-07-19 02:51:47			0	36710	0	0	0	29438	28050	165994	27095	1054127	44961	110949	0	0	8036	591555	0	0
2024-07-19 02:52:47			0	36695	0	0	0	29436	28050	165878	27131	1054109	44952	110948	0	0	8036	592164	0	0
2024-07-19 02:53:47			0	36707	0	0	0	29433	28040	165862	27017	1054082	44950	110947	0	0	8036	591711	0	0
2024-07-19 02:54:47			0	36720	0	0	0	29428	28040	165810	27144	1054037	44972	110945	0	0	8037	591183	0	0
2024-07-19 02:55:47			0	36720	0	0	0	29428	28050	165906	26774	1054154	44940	110945	0	0	8037	591149	0	0
2024-07-19 02:56:47			0	36726	0	0	0	29433	28040	165910	26816	1054056	44927	110947	0	0	8037	590939	0	0
2024-07-19 02:57:47			0	36739	0	0	0	29431	28040	165914	26927	1054002	44939	110946	0	0	8038	590412	0	0
2024-07-19 02:58:47			0	36722	0	0	0	29415	28030	165886	27124	1054020	44939	110940	0	0	8037	591136	0	0
2024-07-19 02:59:47			0	36729	0	0	0	29423	28020	165834	26736	1054029	44948	110943	0	0	8038	590886	0	0
2024-07-19 03:00:47			0	36725	0	0	0	29418	28030	165882	26876	1054011	44949	110941	0	0	8038	591014	0	0
2024-07-19 03:01:47			0	36714	0	0	0	29423	28030	165894	26698	1053957	44949	110943	0	0	8037	591461	0	0
2024-07-19 03:02:47			0	36703	0	0	0	29407	28020	165942	26968	1053975	44948	110937	0	0	8036	591942	0	0
2024-07-19 03:03:47			0	36698	0	0	0	29410	28010	165886	26871	1053957	44959	110938	0	0	8036	592179	0	0
2024-07-19 03:04:47			0	36693	0	0	0	29402	28020	165974	26814	1053912	44948	110935	0	0	8036	592348	0	0
2024-07-19 03:05:47			0	36685	0	0	0	29397	28020	165998	26882	1053939	44925	110933	0	0	8035	592673	0	0
2024-07-19 03:06:47			0	36693	0	0	0	29386	28010	166050	26870	1053903	44948	110929	0	0	8036	592382	0	0
2024-07-19 03:07:47			0	36677	0	0	0	29386	28000	166142	26797	1053832	44935	110929	0	0	8035	593068	0	0
2024-07-19 03:08:47			0	36668	0	0	0	29384	28000	166186	26817	1053805	44958	110928	0	0	8035	593434	0	0
2024-07-19 03:09:47			0	36645	0	0	0	29379	28010	166230	26835	1053921	44936	110926	0	0	8033	594336	0	0
2024-07-19 03:10:47			0	36631	0	0	0	29376	27990	166258	26656	1053868	44957	110925	0	0	8032	594976	0	0
2024-07-19 03:11:47			0	36625	0	0	0	29374	27990	166342	26972	1053805	44934	110924	0	0	8032	595220	0	0
2024-07-19 03:12:47			0	36630	0	0	0	29381	27990	166414	26987	1053733	44945	110927	0	0	8032	595016	0	0
2024-07-19 03:13:47			0	36599	0	0	0	29361	27980	166422	27126	1053715	44944	110919	0	0	8031	596316	0	0
2024-07-19 03:14:47			0	36599	0	0	0	29363	27980	166494	26984	1053769	44944	110920	0	0	8031	596316	0	0
2024-07-19 03:15:47			0	36583	0	0	0	29358	27980	166617	27090	1053733	44943	110918	0	0	8030	596970	0	0
2024-07-19 03:16:47			0	36573	0	0	0	29355	27960	166565	26956	1053653	44942	110917	0	0	8029	597447	0	0
2024-07-19 03:17:47			0	36561	0	0	0	29348	27960	166677	26679	1053653	44942	110914	0	0	8029	597938	0	0
2024-07-19 03:18:47			0	36541	0	0	0	29348	27960	166753	26712	1053617	44941	110914	0	0	8027	598757	0	0
2024-07-19 03:19:47			0	36531	0	0	0	29345	27960	166701	27033	1053653	44954	110913	0	0	8027	599167	0	0
2024-07-19 03:20:47			0	36504	0	0	0	29345	27960	166753	26852	1053644	44930	110913	0	0	8025	600274	0	0
2024-07-19 03:21:47			0	36513	0	0	0	29337	27950	166941	27017	1053600	44953	110910	0	0	8026	599940	0	0
2024-07-19 03:22:47			0	36504	0	0	0	29345	27960	166945	26890	1053671	44930	110913	0	0	8025	600274	0	0
2024-07-19 03:23:47			0	36473	0	0	0	29342	27960	167017	26729	1053617	44953	110912	0	0	8024	601547	0	0
2024-07-19 03:24:47			0	36474	0	0	0	29350	27950	167085	26987	1053653	44953	110915	0	0	8023	601541	0	0
2024-07-19 03:25:47			0	36444	0	0	0	29353	27960	167157	26842	1053788	44942	110916	0	0	8022	602740	0	0
2024-07-19 03:26:47			0	36432	0	0	0	29353	27960	167253	27045	1053653	44942	110916	0	0	8021	603234	0	0
2024-07-19 03:27:47			0	36408	0	0	0	29353	27960	167281	26925	1053671	44953	110916	0	0	8019	604222	0	0
2024-07-19 03:28:47			0	36430	0	0	0	29350	27950	167361	27088	1053743	44941	110915	0	0	8021	603351	0	0
2024-07-19 03:29:47			0	36418	0	0	0	29361	27950	167269	27145	1053662	44953	110919	0	0	8020	603845	0	0
2024-07-19 03:30:47			0	36384	0	0	0	29363	27960	167349	27019	1053707	44942	110920	0	0	8018	605212	0	0
2024-07-19 03:31:47			0	36394	0	0	0	29361	27970	167373	26873	1053743	44955	110919	0	0	8019	604765	0	0
2024-07-19 03:32:47			0	36378	0	0	0	29353	27960	167493	26859	1053734	44954	110916	0	0	8018	605460	0	0
2024-07-19 03:33:47			0	36375	0	0	0	29355	27970	167397	26729	1053743	44932	110917	0	0	8017	605549	0	0
2024-07-19 03:34:47			0	36370	0	0	0	29363	27960	167529	26951	1053752	44953	110920	0	0	8017	605790	0	0
2024-07-19 03:35:47			0	36387	0	0	0	29355	27960	167505	26802	1053752	44953	110917	0	0	8018	605088	0	0
2024-07-19 03:36:47			0	36379	0	0	0	29366	27950	167489	27083	1053689	44930	110921	0	0	8017	605453	0	0
2024-07-19 03:37:47			0	36370	0	0	0	29353	27970	167433	26764	1053716	44943	110916	0	0	8017	605755	0	0
2024-07-19 03:38:47			0	36364	0	0	0	29353	27960	167521	26791	1053734	44964	110916	0	0	8017	606038	0	0
2024-07-19 03:39:47			0	36353	0	0	0	29361	27960	167505	27015	1053680	44954	110919	0	0	8016	606492	0	0
2024-07-19 03:40:47			0	36364	0	0	0	29350	27960	167553	27289	1053671	44953	110915	0	0	8017	606038	0	0
2024-07-19 03:41:47			0	36355	0	0	0	29342	27960	167537	27100	1053671	44941	110912	0	0	8016	606410	0	0
2024-07-19 03:42:47			0	36346	0	0	0	29342	27950	167593	27031	1053743	44930	110912	0	0	8016	606817	0	0
2024-07-19 03:43:47			0	36351	0	0	0	29350	27950	167621	26698	1053573	44941	110915	0	0	8016	606610	0	0
2024-07-19 03:44:47			0	36342	0	0	0	29345	27950	167509	26771	1053662	44953	110913	0	0	8016	606982	0	0
2024-07-19 03:45:47			0	36365	0	0	0	29345	27940	167577	27137	1053591	44929	110913	0	0	8017	606066	0	0
2024-07-19 03:46:47			0	36338	0	0	0	29342	27940	167577	27066	1053591	44952	110912	0	0	8015	607183	0	0
2024-07-19 03:47:47			0	36353	0	0	0	29340	27950	167561	27052	1053626	44941	110911	0	0	8016	606527	0	0
2024-07-19 03:48:47			0	36350	0	0	0	29345	27950	167493	27097	1053600	44941	110913	0	0	8016	606651	0	0
2024-07-19 03:49:47			0	36344	0	0	0	29340	27940	167613	27154	1053582	44928	110911	0	0	8016	606934	0	0
2024-07-19 03:50:47			0	36347	0	0	0	29340	27950	167605	27022	1053600	44963	110911	0	0	8016	606775	0	0
2024-07-19 03:51:47			0	36326	0	0	0	29350	27940	167721	27178	1053671	44952	110915	0	0	8015	607679	0	0
2024-07-19 03:52:47			0	36318	0	0	0	29337	27940	167673	26750	1053555	44951	110910	0	0	8014	608010	0	0
2024-07-19 03:53:47			0	36316	0	0	0	29340	27950	167649	27185	1053662	44953	110911	0	0	8014	608058	0	0
2024-07-19 03:54:47			0	36307	0	0	0	29335	27950	167893	26935	1053600	44953	110909	0	0	8014	608431	0	0
2024-07-19 03:55:47			0	36315	0	0	0	29348	27940	167793	26913	1053690	44940	110914	0	0	8014	608134	0	0
2024-07-19 03:56:47			0	36311	0	0	0	29337	27950	167781	26908	1053626	44941	110910	0	0	8014	608265	0	0
2024-07-19 03:57:47			0	36279	0	0	0	29329	27940	168005	26760	1053591	44929	110907	0	0	8012	609626	0	0
2024-07-19 03:58:47			0	36285	0	0	0	29335	27940	167981	26765	1053591	44929	110909	0	0	8012	609378	0	0
2024-07-19 03:59:47			0	36274	0	0	0	29332	27940	167909	26998	1053609	44951	110908	0	0	8012	609834	0	0
2024-07-19 04:00:47			0	36248	0	0	0	29332	27930	167893	26838	1053573	44940	110908	0	0	8010	610948	0	0
2024-07-19 04:01:47			0	36246	0	0	0	29324	27930	167953	26727	1053627	44951	110905	0	0	8010	611032	0	0
2024-07-19 04:02:47			0	36253	0	0	0	29332	27940	168009	27081	1053582	44951	110908	0	0	8010	610705	0	0
2024-07-19 04:03:47			0	36247	0	0	0	29329	27930	168005	27232	1053537	44961	110907	0	0	8010	610990	0	0
2024-07-19 04:04:47			0	36231	0	0	0	29327	27930	168057	26939	1053573	44928	110906	0	0	8009	611655	0	0
2024-07-19 04:05:47			0	36223	0	0	0	29329	27930	168121	27019	1053546	44940	110907	0	0	8009	611988	0	0
2024-07-19 04:06:47			0	36227	0	0	0	29335	27930	168189	27095	1053546	44951	110909	0	0	8009	611821	0	0
2024-07-19 04:07:47			0	36223	0	0	0	29332	27940	168193	26977	1053564	44940	110908	0	0	8009	611952	0	0
2024-07-19 04:08:47			0	36202	0	0	0	29324	27930	168205	27261	1053564	44961	110905	0	0	8007	612861	0	0
2024-07-19 04:09:47			0	36193	0	0	0	29322	27920	168341	27000	1053555	44960	110904	0	0	8007	613271	0	0
2024-07-19 04:10:47			0	36197	0	0	0	29324	27930	168297	27072	1053519	44928	110905	0	0	8007	613070	0	0
2024-07-19 04:11:47			0	36169	0	0	0	29324	27920	168253	27261	1053546	44949	110905	0	0	8005	614272	0	0
2024-07-19 04:12:47			0	36166	0	0	0	29322	27920	168269	27118	1053582	44950	110904	0	0	8005	614397	0	0
2024-07-19 04:13:47			0	36151	0	0	0	29329	27930	168405	27196	1053564	44940	110907	0	0	8004	614987	0	0
2024-07-19 04:14:47			0	36152	0	0	0	29332	27930	168517	27102	1053510	44940	110908	0	0	8004	614946	0	0
2024-07-19 04:15:47			0	36146	0	0	0	29322	27940	168361	27192	1053555	44951	110904	0	0	8004	615161	0	0
2024-07-19 04:16:47			0	36141	0	0	0	29324	27930	168429	26902	1053564	44951	110905	0	0	8004	615405	0	0
2024-07-19 04:17:47			0	36138	0	0	0	29322	27930	168501	27213	1053537	44961	110904	0	0	8004	615530	0	0
2024-07-19 04:18:47			0	36130	0	0	0	29311	27930	168509	26960	1053510	44940	110900	0	0	8003	615864	0	0
2024-07-19 04:19:47			0	36132	0	0	0	29311	27920	168537	27176	1053466	44949	110900	0	0	8003	615816	0	0
2024-07-19 04:20:47			0	36149	0	0	0	29311	27920	168581	27190	1053448	44950	110900	0	0	8004	615106	0	0
2024-07-19 04:21:47			0	36118	0	0	0	29303	27920	168561	27024	1053528	44950	110897	0	0	8003	616401	0	0
2024-07-19 04:22:47			0	36128	0	0	0	29303	27910	168553	26543	1053538	44958	110897	0	0	8003	616019	0	0
2024-07-19 04:23:47			0	36108	0	0	0	29298	27920	168661	26791	1053466	44926	110895	0	0	8002	616819	0	0
2024-07-19 04:24:47			0	36103	0	0	0	29306	27900	168637	27152	1053412	44937	110898	0	0	8002	617100	0	0
2024-07-19 04:25:47			0	36102	0	0	0	29303	27910	168713	26887	1053457	44948	110897	0	0	8002	617106	0	0
2024-07-19 04:26:47			0	36092	0	0	0	29301	27920	168769	26902	1053466	44938	110896	0	0	8001	617489	0	0
2024-07-19 04:27:47			0	36079	0	0	0	29303	27910	168741	26901	1053457	44948	110897	0	0	8000	618069	0	0
2024-07-19 04:28:47			0	36071	0	0	0	29293	27910	168701	26861	1053394	44948	110893	0	0	8000	618404	0	0
2024-07-19 04:29:47			0	36081	0	0	0	29288	27900	168701	27074	1053430	44947	110891	0	0	8001	618020	0	0
2024-07-19 04:30:47			0	36087	0	0	0	29288	27910	168809	27013	1053376	44937	110891	0	0	8001	617733	0	0
2024-07-19 04:31:47			0	36073	0	0	0	29283	27900	168841	27020	1053412	44948	110889	0	0	8000	618355	0	0
2024-07-19 04:32:47			0	36077	0	0	0	29283	27900	168949	26989	1053385	44948	110889	0	0	8000	618188	0	0
2024-07-19 04:33:47			0	36070	0	0	0	29288	27900	168845	27060	1053412	44937	110891	0	0	8000	618481	0	0
2024-07-19 04:34:47			0	36060	0	0	0	29283	27900	168845	26817	1053376	44936	110889	0	0	7999	618900	0	0
2024-07-19 04:35:47			0	36056	0	0	0	29285	27900	168929	27109	1053322	44947	110890	0	0	7999	619068	0	0
2024-07-19 04:36:47			0	36049	0	0	0	29285	27890	168865	27242	1053421	44935	110890	0	0	7999	619397	0	0
2024-07-19 04:37:47			0	36058	0	0	0	29288	27890	169033	26807	1053367	44935	110891	0	0	7999	619020	0	0
2024-07-19 04:38:47			0	36076	0	0	0	29290	27900	168945	27145	1053376	44947	110892	0	0	8000	618230	0	0
2024-07-19 04:39:47			0	36056	0	0	0	29283	27900	168985	26675	1053376	44947	110889	0	0	7999	619068	0	0
2024-07-19 04:40:47			0	36041	0	0	0	29285	27890	168913	27135	1053358	44935	110890	0	0	7998	619733	0	0
2024-07-19 04:41:47			0	36061	0	0	0	29280	27900	169049	27093	1053376	44924	110888	0	0	8000	618858	0	0
2024-07-19 04:42:47			0	36040	0	0	0	29285	27900	168937	27150	1053376	44947	110890	0	0	7998	619739	0	0
2024-07-19 04:43:47			0	36043	0	0	0	29285	27900	168949	27043	1053403	44936	110890	0	0	7998	619613	0	0
2024-07-19 04:44:47			0	36044	0	0	0	29277	27890	168925	26819	1053340	44935	110887	0	0	7999	619607	0	0
2024-07-19 04:45:47			0	36061	0	0	0	29280	27880	168957	26849	1053376	44935	110888	0	0	7999	618930	0	0
2024-07-19 04:46:47			0	36049	0	0	0	29270	27880	168973	27031	1053349	44946	110884	0	0	7999	619433	0	0
2024-07-19 04:47:47			0	36051	0	0	0	29275	27880	168893	27256	1053296	44923	110886	0	0	7999	619349	0	0
2024-07-19 04:48:47			0	36066	0	0	0	29264	27890	168929	27064	1053304	44923	110882	0	0	8000	618684	0	0
2024-07-19 04:49:47			0	36045	0	0	0	29262	27880	168985	26939	1053287	44945	110881	0	0	7999	619601	0	0
2024-07-19 04:50:47			0	36049	0	0	0	29259	27870	168905	26908	1053215	44933	110880	0	0	7999	619469	0	0
2024-07-19 04:51:47			0	36058	0	0	0	29257	27860	168949	27026	1053224	44920	110879	0	0	8000	619127	0	0
2024-07-19 04:52:47			0	36043	0	0	0	29262	27880	168929	27350	1053260	44922	110881	0	0	7999	619685	0	0
2024-07-19 04:53:47			0	36073	0	0	0	29259	27870	168977	26745	1053197	44944	110880	0	0	8001	618462	0	0
2024-07-19 04:54:47			0	36071	0	0	0	29254	27870	169001	27209	1053269	44933	110878	0	0	8000	618546	0	0
2024-07-19 04:55:47			0	36064	0	0	0	29257	27870	169001	27135	1053269	44933	110879	0	0	8000	618840	0	0
2024-07-19 04:56:47			0	36056	0	0	0	29259	27860	168901	26852	1053206	44944	110880	0	0	7999	619211	0	0
2024-07-19 04:57:47			0	36069	0	0	0	29262	27860	168897	26870	1053197	44932	110881	0	0	8000	618666	0	0
2024-07-19 04:58:47			0	36060	0	0	0	29259	27870	168941	27244	1053215	44933	110880	0	0	8000	619007	0	0
2024-07-19 04:59:47			0	36072	0	0	0	29251	27860	168877	27111	1053260	44944	110877	0	0	8001	618540	0	0
2024-07-19 05:00:47			0	36061	0	0	0	29254	27860	168929	27116	1053233	44944	110878	0	0	8000	619001	0	0
2024-07-19 05:01:47			0	36072	0	0	0	29257	27860	168789	26850	1053287	44944	110879	0	0	8000	618540	0	0
2024-07-19 05:02:47			0	36052	0	0	0	29249	27860	168933	26622	1053260	44956	110876	0	0	7999	619379	0	0
2024-07-19 05:03:47			0	36070	0	0	0	29257	27860	168933	27060	1053251	44920	110879	0	0	8000	618624	0	0
2024-07-19 05:04:47			0	36069	0	0	0	29262	27870	168837	26849	1053296	44944	110881	0	0	8000	618630	0	0
2024-07-19 05:05:47			0	36073	0	0	0	29254	27870	168893	27015	1053215	44933	110878	0	0	8001	618462	0	0
2024-07-19 05:06:47			0	36081	0	0	0	29259	27870	168905	26909	1053269	44944	110880	0	0	8001	618127	0	0
2024-07-19 05:07:47			0	36085	0	0	0	29259	27860	168861	27022	1053233	44933	110880	0	0	8001	617995	0	0
2024-07-19 05:08:47			0	36095	0	0	0	29264	27870	168845	26694	1053278	44956	110882	0	0	8002	617541	0	0
2024-07-19 05:09:47			0	36073	0	0	0	29257	27870	168841	26906	1053242	44933	110879	0	0	8001	618462	0	0
2024-07-19 05:10:47			0	36087	0	0	0	29244	27870	168757	26951	1053215	44933	110874	0	0	8002	617876	0	0
2024-07-19 05:11:47			0	36095	0	0	0	29231	27860	168825	27130	1053206	44933	110869	0	0	8002	617577	0	0
2024-07-19 05:12:47			0	36093	0	0	0	29233	27860	168845	27119	1053171	44910	110870	0	0	8002	617660	0	0
2024-07-19 05:13:47			0	36117	0	0	0	29238	27850	168625	26759	1053126	44930	110872	0	0	8003	616692	0	0
2024-07-19 05:14:47			0	36104	0	0	0	29223	27840	168605	26726	1053063	44918	110866	0	0	8003	617271	0	0
2024-07-19 05:15:47			0	36120	0	0	0	29212	27850	168737	26870	1052964	44918	110862	0	0	8004	616566	0	0
2024-07-19 05:16:47			0	36120	0	0	0	29210	27850	168641	26960	1053018	44918	110861	0	0	8004	616566	0	0
2024-07-19 05:17:47			0	36134	0	0	0	29202	27840	168561	26835	1053001	44930	110858	0	0	8005	616016	0	0
2024-07-19 05:18:47			0	36133	0	0	0	29207	27830	168577	27255	1052965	44940	110860	0	0	8005	616094	0	0
2024-07-19 05:19:47			0	36143	0	0	0	29207	27820	168553	26788	1052992	44928	110860	0	0	8005	615711	0	0
2024-07-19 05:20:47			0	36143	0	0	0	29202	27830	168605	26993	1053010	44917	110858	0	0	8005	615676	0	0
2024-07-19 05:21:47			0	36139	0	0	0	29205	27820	168553	27031	1052947	44917	110859	0	0	8005	615879	0	0
2024-07-19 05:22:47			0	36130	0	0	0	29197	27820	168565	26948	1052920	44917	110856	0	0	8005	616255	0	0
2024-07-19 05:23:47			0	36131	0	0	0	29199	27820	168577	27078	1052974	44917	110857	0	0	8005	616213	0	0
2024-07-19 05:24:47			0	36146	0	0	0	29189	27810	168569	27204	1052956	44938	110853	0	0	8006	615622	0	0
2024-07-19 05:25:47			0	36157	0	0	0	29189	27820	168561	27003	1052947	44951	110853	0	0	8006	615127	0	0
2024-07-19 05:26:47			0	36145	0	0	0	29199	27820	168545	26984	1052911	44939	110857	0	0	8006	615628	0	0
2024-07-19 05:27:47			0	36141	0	0	0	29194	27810	168489	27111	1052921	44926	110855	0	0	8005	615831	0	0
2024-07-19 05:28:47			0	36142	0	0	0	29192	27810	168601	27145	1052902	44950	110854	0	0	8005	615789	0	0
2024-07-19 05:29:47			0	36155	0	0	0	29192	27800	168473	27024	1052939	44937	110854	0	0	8006	615281	0	0
2024-07-19 05:30:47			0	36142	0	0	0	29192	27810	168653	26930	1052974	44937	110854	0	0	8005	615789	0	0
2024-07-19 05:31:47			0	36145	0	0	0	29186	27810	168581	26715	1052947	44949	110852	0	0	8006	615663	0	0
2024-07-19 05:32:47			0	36158	0	0	0	29192	27790	168553	27393	1052876	44926	110854	0	0	8006	615191	0	0
2024-07-19 05:33:47			0	36150	0	0	0	29186	27800	168629	27213	1052912	44926	110852	0	0	8006	615490	0	0
2024-07-19 05:34:47			0	36159	0	0	0	29176	27810	168513	27249	1052947	44926	110848	0	0	8007	615079	0	0
2024-07-19 05:35:47			0	36163	0	0	0	29184	27800	168477	27072	1052885	44937	110851	0	0	8007	614947	0	0
2024-07-19 05:36:47			0	36158	0	0	0	29171	27810	168593	26989	1052849	44927	110846	0	0	8007	615120	0	0
2024-07-19 05:37:47			0	36185	0	0	0	29179	27780	168665	27189	1052831	44935	110849	0	0	8008	614100	0	0
2024-07-19 05:38:47			0	36171	0	0	0	29179	27790	168533	26767	1052813	44925	110849	0	0	8007	614649	0	0
2024-07-19 05:39:47			0	36186	0	0	0	29179	27780	168525	26795	1052831	44935	110849	0	0	8008	614058	0	0
2024-07-19 05:40:47			0	36180	0	0	0	29166	27790	168569	26852	1052786	44925	110844	0	0	8008	614273	0	0
2024-07-19 05:41:47			0	36180	0	0	0	29163	27780	168529	26830	1052795	44934	110843	0	0	8008	614309	0	0
2024-07-19 05:42:47			0	36181	0	0	0	29155	27780	168565	27215	1052822	44934	110840	0	0	8008	614267	0	0
2024-07-19 05:43:47			0	36180	0	0	0	29161	27770	168485	26918	1052759	44923	110842	0	0	8008	614344	0	0
2024-07-19 05:44:47			0	36203	0	0	0	29163	27780	168497	26883	1052768	44913	110843	0	0	8010	613350	0	0
2024-07-19 05:45:47			0	36199	0	0	0	29163	27770	168441	26844	1052751	44923	110843	0	0	8009	613552	0	0
2024-07-19 05:46:47			0	36190	0	0	0	29153	27770	168501	26838	1052786	44923	110839	0	0	8009	613927	0	0
2024-07-19 05:47:47			0	36199	0	0	0	29158	27770	168477	27059	1052751	44923	110841	0	0	8009	613552	0	0
2024-07-19 05:48:47			0	36199	0	0	0	29150	27770	168405	26859	1052724	44923	110838	0	0	8009	613552	0	0
2024-07-19 05:49:47			0	36201	0	0	0	29153	27760	168421	26722	1052742	44922	110839	0	0	8009	613504	0	0
2024-07-19 05:50:47			0	36183	0	0	0	29150	27770	168429	26811	1052751	44957	110838	0	0	8008	614219	0	0
2024-07-19 05:51:47			0	36197	0	0	0	29153	27760	168461	27055	1052769	44945	110839	0	0	8009	613671	0	0
2024-07-19 05:52:47			0	36201	0	0	0	29150	27770	168377	27334	1052724	44934	110838	0	0	8010	613468	0	0
2024-07-19 05:53:47			0	36207	0	0	0	29145	27750	168389	27022	1052724	44921	110836	0	0	8010	613289	0	0
2024-07-19 05:54:47			0	36218	0	0	0	29140	27760	168397	26830	1052715	44933	110834	0	0	8011	612796	0	0
2024-07-19 05:55:47			0	36205	0	0	0	29148	27760	168333	27130	1052733	44933	110837	0	0	8010	613337	0	0
2024-07-19 05:56:47			0	36221	0	0	0	29150	27760	168357	27185	1052688	44933	110838	0	0	8011	612671	0	0
2024-07-19 05:57:47			0	36225	0	0	0	29145	27760	168369	27187	1052769	44933	110836	0	0	8011	612504	0	0
2024-07-19 05:58:47			0	36215	0	0	0	29145	27760	168281	27045	1052679	44921	110836	0	0	8010	612920	0	0
2024-07-19 05:59:47			0	36231	0	0	0	29148	27760	168289	26908	1052733	44944	110837	0	0	8011	612254	0	0
2024-07-19 06:00:47			0	36224	0	0	0	29145	27760	168225	26866	1052760	44921	110836	0	0	8011	612546	0	0
2024-07-19 06:01:47			0	36233	0	0	0	29150	27760	168257	26705	1052742	44912	110838	0	0	8011	612171	0	0
2024-07-19 06:02:47			0	36242	0	0	0	29145	27750	168217	26979	1052724	44921	110836	0	0	8012	611832	0	0
2024-07-19 06:03:47			0	36239	0	0	0	29150	27760	168213	26648	1052706	44921	110838	0	0	8012	611922	0	0
2024-07-19 06:04:47			0	36249	0	0	0	29142	27760	168165	26817	1052679	44921	110835	0	0	8013	611506	0	0
2024-07-19 06:05:47			0	36248	0	0	0	29142	27750	168181	26882	1052715	44933	110835	0	0	8012	611582	0	0
2024-07-19 06:06:47			0	36259	0	0	0	29145	27760	168153	26809	1052742	44933	110836	0	0	8013	611090	0	0
2024-07-19 06:07:47			0	36241	0	0	0	29142	27750	168161	26727	1052643	44933	110835	0	0	8012	611873	0	0
2024-07-19 06:08:47			0	36279	0	0	0	29145	27750	168133	26844	1052688	44921	110836	0	0	8014	610294	0	0
2024-07-19 06:09:47			0	36279	0	0	0	29132	27750	168137	27000	1052688	44933	110831	0	0	8014	610294	0	0
2024-07-19 06:10:47			0	36266	0	0	0	29135	27740	168137	27152	1052679	44932	110832	0	0	8014	610869	0	0
2024-07-19 06:11:47			0	36285	0	0	0	29127	27750	168057	27022	1052661	44921	110829	0	0	8015	610045	0	0
2024-07-19 06:12:47			0	36275	0	0	0	29137	27750	168197	27088	1052688	44933	110833	0	0	8014	610460	0	0
2024-07-19 06:13:47			0	36281	0	0	0	29129	27740	168073	26880	1052652	44932	110830	0	0	8015	610246	0	0
2024-07-19 06:14:47			0	36274	0	0	0	29135	27740	167997	27005	1052590	44931	110832	0	0	8014	610537	0	0
2024-07-19 06:15:47			0	36288	0	0	0	29127	27740	168109	26606	1052679	44932	110829	0	0	8015	609956	0	0
2024-07-19 06:16:47			0	36290	0	0	0	29127	27740	168017	27341	1052670	44931	110829	0	0	8015	609873	0	0
2024-07-19 06:17:47			0	36292	0	0	0	29129	27740	168049	26811	1052644	44942	110830	0	0	8015	609790	0	0
2024-07-19 06:18:47			0	36282	0	0	0	29124	27740	168049	26896	1052617	44931	110828	0	0	8015	610205	0	0
2024-07-19 06:19:47			0	36269	0	0	0	29119	27740	168001	27345	1052679	44920	110826	0	0	8014	610745	0	0
2024-07-19 06:20:47			0	36272	0	0	0	29127	27730	168005	27086	1052608	44919	110829	0	0	8014	610655	0	0
2024-07-19 06:21:47			0	36283	0	0	0	29116	27740	168045	27008	1052563	44919	110825	0	0	8015	610163	0	0
2024-07-19 06:22:47			0	36283	0	0	0	29111	27740	168081	26788	1052590	44942	110823	0	0	8015	610163	0	0
2024-07-19 06:23:47			0	36288	0	0	0	29114	27730	168013	27218	1052599	44942	110824	0	0	8015	609991	0	0
2024-07-19 06:24:47			0	36278	0	0	0	29109	27730	168029	26908	1052581	44919	110822	0	0	8015	610406	0	0
2024-07-19 06:25:47			0	36293	0	0	0	29116	27720	168017	27027	1052617	44930	110825	0	0	8015	609818	0	0
2024-07-19 06:26:47			0	36279	0	0	0	29111	27730	168137	27171	1052653	44931	110823	0	0	8015	610365	0	0
2024-07-19 06:27:47			0	36277	0	0	0	29114	27730	168017	26981	1052626	44942	110824	0	0	8015	610448	0	0
2024-07-19 06:28:47			0	36262	0	0	0	29114	27730	168105	27033	1052581	44919	110824	0	0	8014	611071	0	0
2024-07-19 06:29:47			0	36258	0	0	0	29103	27740	168121	26837	1052590	44919	110820	0	0	8014	611202	0	0
2024-07-19 06:30:47			0	36261	0	0	0	29103	27720	168109	26823	1052527	44917	110820	0	0	8014	611148	0	0
2024-07-19 06:31:47			0	36250	0	0	0	29103	27730	168077	27246	1052518	44909	110820	0	0	8013	611570	0	0
2024-07-19 06:32:47			0	36249	0	0	0	29101	27730	168221	27041	1052599	44919	110819	0	0	8013	611611	0	0
2024-07-19 06:33:47			0	36254	0	0	0	29103	27710	168265	27105	1052545	44895	110820	0	0	8013	611474	0	0
2024-07-19 06:34:47			0	36226	0	0	0	29090	27710	168265	27069	1052545	44917	110815	0	0	8012	612639	0	0
2024-07-19 06:35:47			0	36233	0	0	0	29101	27710	168189	26866	1052483	44916	110819	0	0	8012	612347	0	0
2024-07-19 06:36:47			0	36212	0	0	0	29085	27700	168281	27345	1052474	44916	110813	0	0	8011	613257	0	0
2024-07-19 06:37:47			0	36206	0	0	0	29088	27710	168401	27090	1052429	44906	110814	0	0	8011	613472	0	0
2024-07-19 06:38:47			0	36211	0	0	0	29088	27710	168429	27128	1052510	44928	110814	0	0	8011	613264	0	0
2024-07-19 06:39:47			0	36181	0	0	0	29077	27710	168441	27128	1052510	44928	110810	0	0	8009	614515	0	0
2024-07-19 06:40:47			0	36177	0	0	0	29077	27710	168529	26951	1052483	44916	110810	0	0	8009	614682	0	0
2024-07-19 06:41:47			0	36159	0	0	0	29072	27700	168633	26745	1052474	44906	110808	0	0	8008	615468	0	0
2024-07-19 06:42:47			0	36166	0	0	0	29062	27710	168641	26930	1052429	44928	110804	0	0	8009	615141	0	0
2024-07-19 06:43:47			0	36151	0	0	0	29064	27700	168609	26908	1052411	44927	110805	0	0	8008	615803	0	0
2024-07-19 06:44:47			0	36139	0	0	0	29059	27700	168693	26684	1052447	44906	110803	0	0	8007	616304	0	0
2024-07-19 06:45:47			0	36124	0	0	0	29059	27690	168717	26668	1052349	44926	110803	0	0	8006	616967	0	0
2024-07-19 06:46:47			0	36117	0	0	0	29051	27690	168925	27007	1052367	44904	110800	0	0	8006	617260	0	0
2024-07-19 06:47:47			0	36122	0	0	0	29054	27690	168933	27003	1052402	44926	110801	0	0	8006	617051	0	0
2024-07-19 06:48:47			0	36096	0	0	0	29038	27680	169041	27230	1052322	44925	110795	0	0	8005	618175	0	0
2024-07-19 06:49:47			0	36090	0	0	0	29038	27690	168909	26955	1052286	44926	110795	0	0	8004	618391	0	0
2024-07-19 06:50:47			0	36079	0	0	0	29038	27680	168965	27202	1052295	44914	110795	0	0	8004	618888	0	0
2024-07-19 06:51:47			0	36083	0	0	0	29028	27670	169025	27190	1052232	44924	110791	0	0	8004	618756	0	0
2024-07-19 06:52:47			0	36079	0	0	0	29031	27670	168965	26913	1052259	44913	110792	0	0	8004	618924	0	0
2024-07-19 06:53:47			0	36063	0	0	0	29038	27670	169113	26953	1052224	44913	110795	0	0	8003	619595	0	0
2024-07-19 06:54:47			0	36072	0	0	0	29025	27670	169085	26885	1052251	44902	110790	0	0	8003	619217	0	0
2024-07-19 06:55:47			0	36065	0	0	0	29028	27660	169049	27244	1052215	44902	110791	0	0	8003	619547	0	0
2024-07-19 06:56:47			0	36056	0	0	0	29018	27670	169053	27242	1052197	44902	110787	0	0	8003	619889	0	0
2024-07-19 06:57:47			0	36042	0	0	0	29018	27660	169109	27326	1052233	44923	110787	0	0	8002	620513	0	0
2024-07-19 06:58:47			0	36024	0	0	0	29002	27650	169129	27171	1052161	44911	110781	0	0	8001	621305	0	0
2024-07-19 06:59:47			0	36040	0	0	0	29007	27660	169257	27234	1052206	44923	110783	0	0	8002	620597	0	0
2024-07-19 07:00:47			0	36020	0	0	0	28994	27650	169437	27296	1052161	44911	110778	0	0	8001	621473	0	0
2024-07-19 07:01:47			0	35990	0	0	0	28994	27630	169481	26837	1052134	44931	110778	0	0	7999	622808	0	0
2024-07-19 07:02:47			0	35972	0	0	0	29002	27640	169533	27267	1052116	44921	110781	0	0	7998	623531	0	0
2024-07-19 07:03:47			0	35962	0	0	0	29002	27640	169641	27144	1052062	44921	110781	0	0	7997	623952	0	0
2024-07-19 07:04:47			0	35943	0	0	0	28994	27630	169677	27126	1052018	44910	110778	0	0	7996	624790	0	0
2024-07-19 07:05:47			0	35931	0	0	0	29018	27620	169685	27092	1052009	44930	110787	0	0	7995	625333	0	0
2024-07-19 07:06:47			0	35915	0	0	0	29010	27630	169781	27170	1052071	44920	110784	0	0	7994	625973	0	0
2024-07-19 07:07:47			0	35913	0	0	0	28997	27630	169749	27118	1052045	44931	110779	0	0	7994	626058	0	0
2024-07-19 07:08:47			0	35902	0	0	0	28997	27620	169857	27010	1052009	44919	110779	0	0	7993	626559	0	0
2024-07-19 07:09:47			0	35869	0	0	0	28997	27620	170016	27085	1052027	44909	110779	0	0	7991	627957	0	0
2024-07-19 07:10:47			0	35837	0	0	0	29018	27620	170160	27235	1052063	44919	110787	0	0	7989	629314	0	0
2024-07-19 07:11:47			0	35790	0	0	0	29046	27620	170376	27222	1052089	44930	110798	0	0	7986	631311	0	0
2024-07-19 07:12:47			0	35765	0	0	0	29098	27620	170520	26944	1052188	44919	110818	0	0	7983	632375	0	0
2024-07-19 07:13:47			0	35815	0	0	0	29137	27630	170360	26977	1052295	44943	110833	0	0	7986	630212	0	0
2024-07-19 07:14:47			0	35891	0	0	0	29155	27650	169925	27208	1052412	44945	110840	0	0	7990	626917	0	0
2024-07-19 07:15:47			0	36005	0	0	0	29179	27660	169369	27204	1052448	44957	110849	0	0	7997	622069	0	0
2024-07-19 07:16:47			0	36057	0	0	0	29192	27690	169173	27284	1052555	44970	110854	0	0	8000	619776	0	0
2024-07-19 07:17:47			0	36094	0	0	0	29194	27690	168969	26975	1052663	44949	110855	0	0	8002	618224	0	0
2024-07-19 07:18:47			0	36117	0	0	0	29194	27700	168893	27069	1052635	44950	110855	0	0	8003	617225	0	0
2024-07-19 07:19:47			0	36120	0	0	0	29184	27710	168897	27345	1052680	44951	110851	0	0	8004	617064	0	0
2024-07-19 07:20:47			0	36092	0	0	0	29199	27720	168925	27012	1052689	44940	110857	0	0	8002	618201	0	0
2024-07-19 07:21:47			0	36054	0	0	0	29192	27720	169049	27076	1052671	44952	110854	0	0	8000	619794	0	0
2024-07-19 07:22:47			0	36012	0	0	0	29189	27730	169265	27256	1052733	44942	110853	0	0	7997	621523	0	0
2024-07-19 07:23:47			0	35964	0	0	0	29189	27740	169505	27189	1052724	44942	110853	0	0	7994	623509	0	0
2024-07-19 07:24:47			0	35883	0	0	0	29184	27740	169861	27107	1052751	44931	110851	0	0	7990	626930	0	0
2024-07-19 07:25:47			0	35835	0	0	0	29192	27740	170088	27178	1052760	44954	110854	0	0	7987	628964	0	0
2024-07-19 07:26:47			0	35739	0	0	0	29194	27750	170492	27076	1052877	44944	110855	0	0	7981	633009	0	0
2024-07-19 07:27:47			0	35686	0	0	0	29207	27750	170764	26937	1052805	44955	110860	0	0	7977	635271	0	0
2024-07-19 07:28:47			0	35630	0	0	0	29205	27760	171004	27403	1052876	44956	110859	0	0	7974	637630	0	0
2024-07-19 07:29:47			0	35584	0	0	0	29215	27770	171276	27126	1052858	44946	110863	0	0	7971	639566	0	0
2024-07-19 07:30:47			0	35532	0	0	0	29225	27770	171492	27287	1052966	44957	110867	0	0	7968	641801	0	0
2024-07-19 07:31:47			0	35468	0	0	0	29218	27780	171772	27348	1052957	44934	110864	0	0	7964	644523	0	0
2024-07-19 07:32:47			0	35434	0	0	0	29202	27790	171892	27434	1052975	44948	110858	0	0	7962	645955	0	0
2024-07-19 07:33:47			0	35406	0	0	0	29212	27790	172036	27453	1053010	44937	110862	0	0	7960	647166	0	0
2024-07-19 07:34:47			0	35374	0	0	0	29207	27790	172092	27329	1053002	44936	110860	0	0	7958	648553	0	0
2024-07-19 07:35:47			0	35356	0	0	0	29207	27800	172268	27471	1052992	44937	110860	0	0	7957	649297	0	0
2024-07-19 07:36:47			0	35344	0	0	0	29173	27800	172384	27192	1052912	44937	110847	0	0	7957	649818	0	0
2024-07-19 07:37:47			0	35332	0	0	0	29119	27790	172252	27274	1052840	44925	110826	0	0	7957	650377	0	0
2024-07-19 07:38:47			0	35348	0	0	0	29106	27780	172196	27171	1052795	44923	110821	0	0	7958	649719	0	0
2024-07-19 07:39:47			0	35345	0	0	0	29088	27770	172236	27434	1052786	44923	110814	0	0	7958	649887	0	0
2024-07-19 07:40:47			0	35362	0	0	0	29077	27770	172144	27635	1052670	44913	110810	0	0	7960	649149	0	0
2024-07-19 07:41:47			0	35385	0	0	0	29031	27760	172176	27267	1052526	44889	110792	0	0	7962	648188	0	0
2024-07-19 07:42:47			0	35392	0	0	0	28976	27740	171932	27397	1052321	44864	110771	0	0	7963	647959	0	0
2024-07-19 07:43:47			0	35426	0	0	0	28922	27710	171956	27121	1052052	44861	110750	0	0	7966	646599	0	0
2024-07-19 07:44:47			0	35467	0	0	0	28877	27670	171796	27222	1051874	44835	110733	0	0	7969	644975	0	0
2024-07-19 07:45:47			0	35466	0	0	0	28812	27650	171756	27175	1051730	44844	110708	0	0	7970	645092	0	0
2024-07-19 07:46:47			0	35484	0	0	0	28737	27610	171732	26991	1051561	44852	110679	0	0	7972	644463	0	0
2024-07-19 07:47:47			0	35453	0	0	0	28675	27580	171860	27568	1051283	44826	110655	0	0	7971	645914	0	0
2024-07-19 07:48:47			0	35409	0	0	0	28623	27550	172092	27332	1051105	44824	110635	0	0	7969	647931	0	0
2024-07-19 07:49:47			0	35318	0	0	0	28594	27510	172500	27013	1050989	44842	110624	0	0	7964	652035	0	0
2024-07-19 07:50:47			0	35224	0	0	0	28566	27490	173024	27168	1050944	44839	110613	0	0	7958	656215	0	0
2024-07-19 07:51:47			0	35116	0	0	0	28615	27460	173488	27331	1050981	44870	110632	0	0	7951	661069	0	0
2024-07-19 07:52:47			0	35044	0	0	0	28696	27470	173915	27270	1051070	44882	110663	0	0	7945	664205	0	0
2024-07-19 07:53:47			0	34995	0	0	0	28742	27460	174255	27242	1051115	44881	110681	0	0	7941	666410	0	0
2024-07-19 07:54:47			0	34936	0	0	0	28750	27470	174463	27483	1051124	44871	110684	0	0	7937	668988	0	0
2024-07-19 07:55:47			0	34914	0	0	0	28735	27470	174755	27640	1051205	44882	110678	0	0	7936	669965	0	0
2024-07-19 07:56:47			0	34864	0	0	0	28698	27470	174847	27268	1051178	44893	110664	0	0	7933	672191	0	0
2024-07-19 07:57:47			0	34841	0	0	0	28690	27470	174895	27112	1051151	44882	110661	0	0	7932	673216	0	0
2024-07-19 07:58:47			0	34810	0	0	0	28732	27460	175235	27263	1051304	44904	110677	0	0	7929	674639	0	0
2024-07-19 07:59:47			0	34782	0	0	0	28781	27490	175335	27531	1051375	44917	110696	0	0	7927	675775	0	0
2024-07-19 08:00:47			0	34748	0	0	0	28766	27500	175359	27381	1051446	44929	110690	0	0	7925	677258	0	0
2024-07-19 08:01:47			0	34755	0	0	0	28714	27490	175539	27514	1051330	44907	110670	0	0	7926	676984	0	0
2024-07-19 08:02:47			0	34739	0	0	0	28633	27480	175611	27807	1051124	44839	110639	0	0	7927	677740	0	0
2024-07-19 08:03:47			0	34711	0	0	0	28607	27470	175655	27253	1051052	44838	110629	0	0	7925	679035	0	0
2024-07-19 08:04:47			0	34713	0	0	0	28602	27470	175743	27647	1051017	44882	110627	0	0	7925	678945	0	0
2024-07-19 08:05:47			0	34700	0	0	0	28592	27450	175967	27412	1051071	44859	110623	0	0	7925	679608	0	0
2024-07-19 08:06:47			0	34689	0	0	0	28576	27450	175847	27258	1050928	44847	110617	0	0	7924	680102	0	0
2024-07-19 08:07:47			0	34681	0	0	0	28548	27430	175931	27672	1050659	44834	110606	0	0	7924	680540	0	0
2024-07-19 08:08:47			0	34667	0	0	0	28477	27400	175927	27492	1050444	44797	110579	0	0	7924	681288	0	0
2024-07-19 08:09:47			0	34679	0	0	0	28441	27360	175931	27147	1050212	44772	110565	0	0	7925	680904	0	0
2024-07-19 08:10:47			0	34692	0	0	0	28425	27340	175919	27585	1050123	44803	110559	0	0	7926	680397	0	0
2024-07-19 08:11:47			0	34679	0	0	0	28384	27310	175927	27552	1050007	44810	110543	0	0	7926	681100	0	0
2024-07-19 08:12:47			0	34670	0	0	0	28366	27280	175935	27485	1049828	44808	110536	0	0	7926	681622	0	0
2024-07-19 08:13:47			0	34673	0	0	0	28348	27260	176063	27298	1049739	44784	110529	0	0	7926	681566	0	0
2024-07-19 08:14:47			0	34672	0	0	0	28327	27240	176039	27045	1049668	44782	110521	0	0	7926	681689	0	0
2024-07-19 08:15:47			0	34685	0	0	0	28324	27220	176031	27315	1049561	44802	110520	0	0	7927	681182	0	0
2024-07-19 08:16:47			0	34684	0	0	0	28337	27200	176171	27336	1049526	44799	110525	0	0	7927	681305	0	0
2024-07-19 08:17:47			0	34676	0	0	0	28368	27200	176167	27334	1049642	44833	110537	0	0	7925	681665	0	0
2024-07-19 08:18:47			0	34666	0	0	0	28394	27200	176123	27691	1049687	44843	110547	0	0	7924	682116	0	0
2024-07-19 08:19:47			0	34671	0	0	0	28407	27200	176211	27469	1049723	44833	110552	0	0	7924	681891	0	0
2024-07-19 08:20:47			0	34669	0	0	0	28405	27210	176239	27223	1049839	44845	110551	0	0	7924	681942	0	0
2024-07-19 08:21:47			0	34646	0	0	0	28498	27220	176175	27112	1049991	44858	110587	0	0	7921	682940	0	0
2024-07-19 08:22:47			0	34658	0	0	0	28664	27230	176251	27355	1050242	44879	110651	0	0	7919	682359	0	0
2024-07-19 08:23:47			0	34710	0	0	0	28763	27260	176007	27355	1050510	44906	110689	0	0	7921	679900	0	0
2024-07-19 08:24:47			0	34548	0	0	0	28815	27300	176887	27279	1050769	44920	110709	0	0	7910	687057	0	0
2024-07-19 08:25:47			0	34338	0	0	0	28916	27320	177938	27479	1050993	44922	110748	0	0	7895	696546	0	0
2024-07-19 08:26:47			0	34278	0	0	0	28976	27370	178258	27234	1051189	44939	110771	0	0	7890	699097	0	0
2024-07-19 08:27:47			0	34291	0	0	0	29005	27390	178174	27052	1051368	44941	110782	0	0	7891	698420	0	0
2024-07-19 08:28:47			0	34329	0	0	0	29028	27420	177970	27526	1051502	44933	110791	0	0	7893	696558	0	0
2024-07-19 08:29:47			0	34355	0	0	0	29038	27450	177759	27279	1051663	44925	110795	0	0	7895	695248	0	0
2024-07-19 08:30:47			0	34385	0	0	0	29062	27480	177611	27263	1051841	44927	110804	0	0	7896	693757	0	0
2024-07-19 08:31:47			0	34403	0	0	0	29072	27490	177319	27242	1051841	44941	110808	0	0	7897	692896	0	0
2024-07-19 08:32:47			0	34478	0	0	0	29083	27530	177147	26968	1052010	44933	110812	0	0	7902	689323	0	0
2024-07-19 08:33:47			0	34532	0	0	0	29077	27550	176827	27154	1052010	44934	110810	0	0	7906	686794	0	0
2024-07-19 08:34:47			0	34587	0	0	0	29077	27570	176507	27270	1052180	44936	110810	0	0	7910	684228	0	0
2024-07-19 08:35:47			0	34608	0	0	0	29103	27590	176399	27258	1052162	44938	110820	0	0	7911	683201	0	0
2024-07-19 08:36:47			0	34625	0	0	0	29127	27600	176259	27400	1052207	44940	110829	0	0	7911	682395	0	0
2024-07-19 08:37:47			0	34680	0	0	0	29132	27610	175895	27300	1052368	44952	110831	0	0	7915	679881	0	0
2024-07-19 08:38:47			0	34757	0	0	0	29137	27620	175567	27464	1052385	44919	110833	0	0	7920	676388	0	0
2024-07-19 08:39:47			0	34822	0	0	0	29135	27640	175067	27338	1052421	44932	110832	0	0	7924	673405	0	0
2024-07-19 08:40:47			0	34885	0	0	0	29122	27650	174711	27197	1052439	44911	110827	0	0	7928	670561	0	0
2024-07-19 08:41:47			0	34954	0	0	0	29111	27670	174411	27235	1052493	44913	110823	0	0	7933	667420	0	0
2024-07-19 08:42:47			0	35006	0	0	0	29106	27670	174211	27436	1052439	44924	110821	0	0	7936	665119	0	0
2024-07-19 08:43:47			0	35034	0	0	0	29111	27680	173839	27253	1052564	44903	110823	0	0	7938	663844	0	0
2024-07-19 08:44:47			0	35061	0	0	0	29132	27690	173951	27156	1052591	44926	110831	0	0	7940	662615	0	0
2024-07-19 08:45:47			0	35083	0	0	0	29155	27690	173771	27376	1052591	44915	110840	0	0	7941	661646	0	0
2024-07-19 08:46:47			0	35124	0	0	0	29150	27700	173628	27474	1052689	44916	110838	0	0	7943	659805	0	0
2024-07-19 08:47:47			0	35134	0	0	0	29163	27710	173428	27208	1052626	44907	110843	0	0	7944	659328	0	0
2024-07-19 08:48:47			0	35159	0	0	0	29168	27730	173304	27085	1052707	44919	110845	0	0	7945	658155	0	0
2024-07-19 08:49:47			0	35194	0	0	0	29186	27730	173260	27092	1052787	44931	110852	0	0	7947	656621	0	0
2024-07-19 08:50:47			0	35219	0	0	0	29186	27740	173076	27078	1052814	44932	110852	0	0	7949	655490	0	0
2024-07-19 08:51:47			0	35261	0	0	0	29202	27740	172856	27005	1052841	44932	110858	0	0	7951	653656	0	0
2024-07-19 08:52:47			0	35288	0	0	0	29231	27760	172688	27012	1052840	44944	110869	0	0	7952	652404	0	0
2024-07-19 08:53:47			0	35289	0	0	0	29231	27770	172540	26996	1053002	44946	110869	0	0	7953	652323	0	0
2024-07-19 08:54:47			0	35331	0	0	0	29238	27770	172544	27183	1053002	44934	110872	0	0	7955	650495	0	0
2024-07-19 08:55:47			0	35353	0	0	0	29236	27790	172344	27097	1053055	44936	110871	0	0	7956	649464	0	0
2024-07-19 08:56:47			0	35362	0	0	0	29259	27800	172252	26876	1053154	44949	110880	0	0	7957	649036	0	0
2024-07-19 08:57:47			0	35397	0	0	0	29275	27820	172112	27251	1053180	44951	110886	0	0	7959	647444	0	0
2024-07-19 08:58:47			0	35446	0	0	0	29285	27830	171756	27098	1053279	44917	110890	0	0	7962	645287	0	0
2024-07-19 08:59:47			0	35498	0	0	0	29293	27830	171564	27481	1053288	44952	110893	0	0	7965	643043	0	0
2024-07-19 09:00:47			0	35535	0	0	0	29296	27830	171400	27535	1053288	44929	110894	0	0	7967	641450	0	0
2024-07-19 09:01:47			0	35566	0	0	0	29296	27850	171304	27060	1053287	44941	110894	0	0	7969	640044	0	0
2024-07-19 09:02:47			0	35573	0	0	0	29290	27850	171356	26897	1053341	44941	110892	0	0	7969	639743	0	0
2024-07-19 09:03:47			0	35571	0	0	0	29296	27850	171228	27405	1053323	44931	110894	0	0	7969	639829	0	0
2024-07-19 09:04:47			0	35578	0	0	0	29298	27860	171128	27050	1053332	44932	110895	0	0	7970	639492	0	0
2024-07-19 09:05:47			0	35574	0	0	0	29296	27860	171232	27189	1053368	44921	110894	0	0	7969	639663	0	0
2024-07-19 09:06:47			0	35561	0	0	0	29288	27870	171232	27109	1053404	44944	110891	0	0	7969	640185	0	0
2024-07-19 09:07:47			0	35565	0	0	0	29288	27870	171124	27322	1053386	44944	110891	0	0	7969	640013	0	0
2024-07-19 09:08:47			0	35605	0	0	0	29296	27870	171092	27270	1053431	44933	110894	0	0	7971	638297	0	0
2024-07-19 09:09:47			0	35628	0	0	0	29290	27880	170916	27116	1053394	44922	110892	0	0	7973	637275	0	0
2024-07-19 09:10:47			0	35676	0	0	0	29283	27870	170632	27124	1053412	44921	110889	0	0	7976	635259	0	0
2024-07-19 09:11:47			0	35718	0	0	0	29296	27880	170472	27074	1053421	44934	110894	0	0	7978	633430	0	0
2024-07-19 09:12:47			0	35757	0	0	0	29298	27880	170324	27102	1053457	44935	110895	0	0	7981	631769	0	0
2024-07-19 09:13:47			0	35781	0	0	0	29296	27890	170112	27033	1053466	44935	110894	0	0	7982	630712	0	0
2024-07-19 09:14:47			0	35805	0	0	0	29296	27890	170080	27196	1053502	44913	110894	0	0	7984	629693	0	0
2024-07-19 09:15:47			0	35813	0	0	0	29301	27880	169996	26798	1053475	44934	110896	0	0	7984	629390	0	0
2024-07-19 09:16:47			0	35850	0	0	0	29296	27880	169924	27140	1053475	44934	110894	0	0	7986	627821	0	0
2024-07-19 09:17:47			0	35868	0	0	0	29301	27880	169753	27222	1053484	44923	110896	0	0	7987	627059	0	0
2024-07-19 09:18:47			0	35892	0	0	0	29309	27890	169713	27043	1053529	44946	110899	0	0	7989	626008	0	0
2024-07-19 09:19:47			0	35914	0	0	0	29329	27900	169681	27173	1053564	44936	110907	0	0	7990	625043	0	0
2024-07-19 09:20:47			0	35901	0	0	0	29348	27900	169609	27074	1053600	44925	110914	0	0	7989	625592	0	0
2024-07-19 09:21:47			0	35915	0	0	0	29350	27920	169577	27112	1053708	44938	110915	0	0	7990	624928	0	0
2024-07-19 09:22:47			0	35907	0	0	0	29371	27920	169577	26975	1053744	44950	110923	0	0	7989	625266	0	0
2024-07-19 09:23:47			0	35906	0	0	0	29381	27920	169373	27272	1053744	44939	110927	0	0	7989	625308	0	0
2024-07-19 09:24:47			0	35926	0	0	0	29368	27930	169445	27067	1053788	44940	110922	0	0	7990	624428	0	0
2024-07-19 09:25:47			0	35926	0	0	0	29379	27930	169345	27334	1053788	44961	110926	0	0	7990	624428	0	0
2024-07-19 09:26:47			0	35950	0	0	0	29381	27940	169345	27286	1053833	44940	110927	0	0	7991	623380	0	0
2024-07-19 09:27:47			0	35965	0	0	0	29376	27950	169369	27118	1053878	44941	110925	0	0	7992	622713	0	0
2024-07-19 09:28:47			0	35979	0	0	0	29376	27960	169285	27336	1053833	44953	110925	0	0	7993	622088	0	0
2024-07-19 09:29:47			0	35977	0	0	0	29379	27950	169213	27286	1053851	44941	110926	0	0	7993	622207	0	0
2024-07-19 09:30:47			0	35980	0	0	0	29376	27950	169245	27126	1053815	44941	110925	0	0	7993	622081	0	0
2024-07-19 09:31:47			0	35996	0	0	0	29381	27950	169081	27196	1053851	44953	110927	0	0	7994	621408	0	0
2024-07-19 09:32:47			0	35986	0	0	0	29384	27960	169053	27258	1053886	44941	110928	0	0	7994	621793	0	0
2024-07-19 09:33:47			0	36004	0	0	0	29389	27960	168973	27310	1053922	44942	110930	0	0	7995	621036	0	0
2024-07-19 09:34:47			0	36011	0	0	0	29389	27970	168965	27310	1053904	44965	110930	0	0	7995	620706	0	0
2024-07-19 09:35:47			0	36017	0	0	0	29392	27960	168921	27339	1053949	44931	110931	0	0	7995	620490	0	0
2024-07-19 09:36:47			0	36047	0	0	0	29394	27960	168821	27168	1053886	44930	110932	0	0	7997	619231	0	0
2024-07-19 09:37:47			0	36046	0	0	0	29392	27980	168841	27109	1053922	44943	110931	0	0	7997	619202	0	0
2024-07-19 09:38:47			0	36028	0	0	0	29397	27980	168873	27268	1053976	44955	110933	0	0	7996	619957	0	0
2024-07-19 09:39:47			0	36025	0	0	0	29389	27980	168873	27039	1053976	44943	110930	0	0	7996	620083	0	0
2024-07-19 09:40:47			0	36009	0	0	0	29394	27980	169037	27248	1053985	44944	110932	0	0	7995	620755	0	0
2024-07-19 09:41:47			0	36019	0	0	0	29386	27980	168969	27223	1053958	44944	110929	0	0	7996	620335	0	0
2024-07-19 09:42:47			0	36014	0	0	0	29397	27980	168869	27228	1053922	44955	110933	0	0	7995	620545	0	0
2024-07-19 09:43:47			0	36015	0	0	0	29392	27990	168829	27026	1054020	44945	110931	0	0	7995	620467	0	0
2024-07-19 09:44:47			0	36036	0	0	0	29392	27990	168805	27010	1054020	44945	110931	0	0	7997	619585	0	0
2024-07-19 09:45:47			0	36043	0	0	0	29389	27990	168837	27256	1054020	44945	110930	0	0	7997	619292	0	0
2024-07-19 09:46:47			0	36088	0	0	0	29407	28000	168701	26876	1054065	44935	110937	0	0	8000	617371	0	0
2024-07-19 09:47:47			0	36114	0	0	0	29399	27980	168305	26941	1053985	44944	110934	0	0	8001	616355	0	0
2024-07-19 09:48:47			0	36136	0	0	0	29410	28010	168317	27112	1054083	44958	110938	0	0	8002	615329	0	0
2024-07-19 09:49:47			0	36174	0	0	0	29412	28000	168277	27079	1054092	44958	110939	0	0	8005	613780	0	0
2024-07-19 09:50:47			0	36146	0	0	0	29415	28000	168193	27322	1054146	44946	110940	0	0	8003	614948	0	0
2024-07-19 09:51:47			0	36170	0	0	0	29428	28000	168121	26944	1054128	44946	110945	0	0	8004	613947	0	0
2024-07-19 09:52:47			0	36183	0	0	0	29431	28010	168117	27154	1054199	44948	110946	0	0	8005	613370	0	0
2024-07-19 09:53:47			0	36205	0	0	0	29428	28010	168033	27001	1054110	44969	110945	0	0	8006	612454	0	0
2024-07-19 09:54:47			0	36206	0	0	0	29428	28000	168033	26981	1054182	44935	110945	0	0	8006	612447	0	0
2024-07-19 09:55:47			0	36214	0	0	0	29436	28020	167869	26885	1054181	44948	110948	0	0	8007	612044	0	0
2024-07-19 09:56:47			0	36212	0	0	0	29433	28020	167857	27024	1054217	44937	110947	0	0	8007	612127	0	0
2024-07-19 09:57:47			0	36222	0	0	0	29436	28010	167929	27111	1054119	44948	110948	0	0	8007	611747	0	0
2024-07-19 09:58:47			0	36217	0	0	0	29436	28020	167881	27098	1054217	44959	110948	0	0	8007	611919	0	0
2024-07-19 09:59:47			0	36221	0	0	0	29431	28020	167857	27088	1054208	44959	110946	0	0	8007	611753	0	0
2024-07-19 10:00:47			0	36206	0	0	0	29433	28020	167933	27196	1054163	44959	110947	0	0	8006	612377	0	0
2024-07-19 10:01:47			0	36209	0	0	0	29436	28020	167837	27352	1054181	44970	110948	0	0	8006	612252	0	0
2024-07-19 10:02:47			0	36196	0	0	0	29428	28020	167921	27039	1054181	44959	110945	0	0	8006	612793	0	0
2024-07-19 10:03:47			0	36224	0	0	0	29428	28010	167985	27289	1054199	44959	110945	0	0	8007	611664	0	0
2024-07-19 10:04:47			0	36235	0	0	0	29436	28020	167865	27133	1054271	44948	110948	0	0	8008	611171	0	0
2024-07-19 10:05:47			0	36253	0	0	0	29441	28030	167817	26852	1054226	44960	110950	0	0	8009	610389	0	0
2024-07-19 10:06:47			0	36293	0	0	0	29438	28020	167477	27246	1054190	44948	110949	0	0	8011	608765	0	0
2024-07-19 10:07:47			0	36308	0	0	0	29436	28020	167457	27024	1054190	44948	110948	0	0	8012	608144	0	0
2024-07-19 10:08:47			0	36336	0	0	0	29438	28020	167437	27147	1054217	44959	110949	0	0	8014	606985	0	0
2024-07-19 10:09:47			0	36346	0	0	0	29428	28030	167293	27367	1054289	44972	110945	0	0	8015	606537	0	0
2024-07-19 10:10:47			0	36362	0	0	0	29444	28020	167269	27135	1054235	44948	110951	0	0	8015	605911	0	0
2024-07-19 10:11:47			0	36356	0	0	0	29441	28030	167285	27041	1054208	44950	110950	0	0	8015	606124	0	0
2024-07-19 10:12:47			0	36364	0	0	0	29449	28040	167349	26824	1054244	44961	110953	0	0	8016	605758	0	0
2024-07-19 10:13:47			0	36330	0	0	0	29444	28040	167441	26987	1054307	44939	110951	0	0	8014	607163	0	0
2024-07-19 10:14:47			0	36283	0	0	0	29444	28040	167713	27052	1054244	44950	110951	0	0	8011	609109	0	0
2024-07-19 10:15:47			0	36218	0	0	0	29446	28050	168001	27206	1054343	44961	110952	0	0	8007	611772	0	0
2024-07-19 10:16:47			0	36172	0	0	0	29444	28040	168109	27346	1054307	44961	110951	0	0	8004	613722	0	0
2024-07-19 10:17:47			0	36156	0	0	0	29451	28040	168185	27365	1054298	44950	110954	0	0	8003	614389	0	0
2024-07-19 10:18:47			0	36115	0	0	0	29444	28040	168313	27261	1054334	44961	110951	0	0	8001	616100	0	0
2024-07-19 10:19:47			0	36097	0	0	0	29457	28030	168509	27159	1054343	44961	110956	0	0	7999	616888	0	0
2024-07-19 10:20:47			0	36050	0	0	0	29459	28050	168589	26923	1054423	44961	110957	0	0	7997	618784	0	0
2024-07-19 10:21:47			0	36047	0	0	0	29464	28050	168693	27020	1054378	44962	110959	0	0	7996	618910	0	0
2024-07-19 10:22:47			0	36016	0	0	0	29472	28050	168861	27085	1054343	44951	110962	0	0	7994	620210	0	0
2024-07-19 10:23:47			0	36003	0	0	0	29480	28060	168913	26852	1054369	44963	110965	0	0	7993	620720	0	0
2024-07-19 10:24:47			0	35980	0	0	0	29480	28060	168849	27227	1054360	44962	110965	0	0	7992	621687	0	0
2024-07-19 10:25:47			0	35962	0	0	0	29485	28050	169089	26968	1054405	44952	110967	0	0	7991	622480	0	0
2024-07-19 10:26:47			0	35949	0	0	0	29480	28060	169161	26951	1054387	44962	110965	0	0	7990	622991	0	0
2024-07-19 10:27:47			0	35932	0	0	0	29480	28070	169077	26880	1054405	44975	110965	0	0	7989	623671	0	0
2024-07-19 10:28:47			0	35924	0	0	0	29475	28060	169249	26944	1054477	44953	110963	0	0	7989	624045	0	0
2024-07-19 10:29:47			0	35923	0	0	0	29483	28060	169253	27291	1054477	44963	110966	0	0	7989	624087	0	0
2024-07-19 10:30:47			0	35909	0	0	0	29477	28070	169301	26923	1054414	44976	110964	0	0	7988	624641	0	0
2024-07-19 10:31:47			0	35903	0	0	0	29480	28070	169245	27197	1054495	44964	110965	0	0	7988	624894	0	0
2024-07-19 10:32:47			0	35903	0	0	0	29477	28080	169309	27239	1054476	44964	110964	0	0	7988	624858	0	0
2024-07-19 10:33:47			0	35895	0	0	0	29480	28070	169193	27319	1054548	44964	110965	0	0	7987	625232	0	0
2024-07-19 10:34:47			0	35902	0	0	0	29483	28080	169293	26963	1054530	44964	110966	0	0	7987	624900	0	0
2024-07-19 10:35:47			0	35900	0	0	0	29490	28080	169313	26922	1054503	44964	110969	0	0	7987	624985	0	0
2024-07-19 10:36:47			0	35896	0	0	0	29485	28090	169253	27402	1054575	44977	110967	0	0	7987	625117	0	0
2024-07-19 10:37:47			0	35907	0	0	0	29498	28090	169309	27469	1054575	44965	110972	0	0	7988	624653	0	0
2024-07-19 10:38:47			0	35897	0	0	0	29501	28110	169233	26942	1054629	44990	110973	0	0	7987	625003	0	0
2024-07-19 10:39:47			0	35905	0	0	0	29511	28090	169237	26944	1054584	44966	110977	0	0	7987	624738	0	0
2024-07-19 10:40:47			0	35902	0	0	0	29522	28100	169153	27246	1054700	44979	110981	0	0	7987	624828	0	0
2024-07-19 10:41:47			0	35928	0	0	0	29524	28110	169093	27171	1054682	44979	110982	0	0	7988	623696	0	0
2024-07-19 10:42:47			0	35935	0	0	0	29535	28120	169033	26955	1054682	44992	110986	0	0	7989	623365	0	0
2024-07-19 10:43:47			0	35940	0	0	0	29535	28120	169009	27215	1054673	44968	110986	0	0	7989	623154	0	0
2024-07-19 10:44:47			0	35962	0	0	0	29522	28120	168985	27182	1054673	44946	110981	0	0	7991	622228	0	0
2024-07-19 10:45:47			0	35965	0	0	0	29535	28120	169001	27178	1054673	44968	110986	0	0	7991	622102	0	0
2024-07-19 10:46:47			0	35962	0	0	0	29535	28120	168909	27168	1054709	44981	110986	0	0	7990	622228	0	0
2024-07-19 10:47:47			0	35954	0	0	0	29529	28130	169037	27185	1054799	44981	110984	0	0	7990	622529	0	0
2024-07-19 10:48:47			0	35950	0	0	0	29524	28120	169053	26974	1054700	44980	110982	0	0	7990	622733	0	0
2024-07-19 10:49:47			0	35936	0	0	0	29519	28110	169029	26956	1054691	44946	110980	0	0	7989	623359	0	0
2024-07-19 10:50:47			0	35941	0	0	0	29524	28120	169065	27144	1054781	44980	110982	0	0	7989	623112	0	0
2024-07-19 10:51:47			0	35929	0	0	0	29535	28130	169017	26965	1054754	44970	110986	0	0	7988	623582	0	0
2024-07-19 10:52:47			0	35941	0	0	0	29535	28130	169157	27180	1054727	44982	110986	0	0	7989	623076	0	0
2024-07-19 10:53:47			0	35934	0	0	0	29542	28140	169061	26908	1054816	44993	110989	0	0	7989	623335	0	0
2024-07-19 10:54:47			0	35948	0	0	0	29537	28140	169069	27288	1054843	44982	110987	0	0	7990	622746	0	0
2024-07-19 10:55:47			0	35948	0	0	0	29548	28140	169017	26922	1054906	44971	110991	0	0	7989	622746	0	0
2024-07-19 10:56:47			0	35934	0	0	0	29553	28140	168885	27007	1054879	44983	110993	0	0	7988	623335	0	0
2024-07-19 10:57:47			0	35952	0	0	0	29553	28140	169049	26859	1054906	44960	110993	0	0	7990	622577	0	0
2024-07-19 10:58:47			0	35932	0	0	0	29553	28140	168945	27178	1054879	44971	110993	0	0	7988	623419	0	0
2024-07-19 10:59:47			0	35954	0	0	0	29545	28150	168921	27157	1054870	44961	110990	0	0	7990	622457	0	0
2024-07-19 11:00:47			0	35965	0	0	0	29542	28150	168941	27175	1054888	44960	110989	0	0	7991	621994	0	0
2024-07-19 11:01:47			0	35976	0	0	0	29550	28150	168949	27187	1054834	44983	110992	0	0	7991	621532	0	0
2024-07-19 11:02:47			0	35969	0	0	0	29563	28160	168877	27203	1054933	44961	110997	0	0	7991	621790	0	0
2024-07-19 11:03:47			0	35990	0	0	0	29561	28160	168741	27033	1054933	44984	110996	0	0	7992	620908	0	0
2024-07-19 11:04:47			0	36005	0	0	0	29566	28160	168837	27105	1054933	44972	110998	0	0	7993	620278	0	0
2024-07-19 11:05:47			0	36014	0	0	0	29563	28160	168653	27131	1054906	44995	110997	0	0	7993	619900	0	0
2024-07-19 11:06:47			0	36033	0	0	0	29563	28150	168665	26828	1054924	44972	110997	0	0	7994	619139	0	0
2024-07-19 11:07:47			0	36029	0	0	0	29573	28160	168493	27137	1054969	44973	111001	0	0	7994	619271	0	0
2024-07-19 11:08:47			0	36057	0	0	0	29566	28170	168617	27197	1054978	44973	110998	0	0	7996	618063	0	0
2024-07-19 11:09:47			0	36071	0	0	0	29573	28160	168401	26956	1054996	44962	111001	0	0	7997	617512	0	0
2024-07-19 11:10:47			0	36092	0	0	0	29576	28170	168389	27286	1055013	44985	111002	0	0	7998	616599	0	0
2024-07-19 11:11:47			0	36099	0	0	0	29579	28180	168213	27064	1055049	44975	111003	0	0	7998	616271	0	0
2024-07-19 11:12:47			0	36127	0	0	0	29568	28170	168189	27072	1055040	44974	110999	0	0	8000	615137	0	0
2024-07-19 11:13:47			0	36134	0	0	0	29561	28170	168037	26979	1054978	44984	110996	0	0	8001	614845	0	0
2024-07-19 11:14:47			0	36136	0	0	0	29545	28180	168061	26935	1054942	44975	110990	0	0	8001	614726	0	0
2024-07-19 11:15:47			0	36162	0	0	0	29540	28160	168073	26956	1054969	44962	110988	0	0	8003	613713	0	0
2024-07-19 11:16:47			0	36170	0	0	0	29529	28160	167929	27128	1054915	44951	110984	0	0	8003	613380	0	0
2024-07-19 11:17:47			0	36198	0	0	0	29535	28160	167889	27104	1054915	44984	110986	0	0	8005	612215	0	0
2024-07-19 11:18:47			0	36216	0	0	0	29540	28160	167805	27187	1054915	44973	110988	0	0	8006	611467	0	0
2024-07-19 11:19:47			0	36224	0	0	0	29548	28160	167713	27192	1054879	44995	110991	0	0	8006	611134	0	0
2024-07-19 11:20:47			0	36269	0	0	0	29542	28160	167597	26948	1054879	44972	110989	0	0	8009	609267	0	0
2024-07-19 11:21:47			0	36298	0	0	0	29550	28150	167301	26793	1054870	44950	110992	0	0	8010	608101	0	0
2024-07-19 11:22:47			0	36356	0	0	0	29558	28160	167265	27144	1054996	44984	110995	0	0	8014	605669	0	0
2024-07-19 11:23:47			0	36356	0	0	0	29561	28160	167201	26960	1054915	44984	110996	0	0	8014	605669	0	0
2024-07-19 11:24:47			0	36360	0	0	0	29571	28160	167237	26994	1054942	44984	111000	0	0	8014	605504	0	0
2024-07-19 11:25:47			0	36367	0	0	0	29579	28170	167053	27038	1055040	44974	111003	0	0	8014	605180	0	0
2024-07-19 11:26:47			0	36380	0	0	0	29584	28170	167049	26948	1055013	44974	111005	0	0	8015	604644	0	0
2024-07-19 11:27:47			0	36377	0	0	0	29586	28180	167013	27130	1055076	44986	111006	0	0	8015	604733	0	0
2024-07-19 11:28:47			0	36383	0	0	0	29602	28180	167041	27159	1055058	44975	111012	0	0	8015	604486	0	0
2024-07-19 11:29:47			0	36394	0	0	0	29605	28190	167053	26911	1055094	44975	111013	0	0	8015	603997	0	0
2024-07-19 11:30:47			0	36390	0	0	0	29597	28190	166917	27000	1055094	44986	111010	0	0	8015	604162	0	0
2024-07-19 11:31:47			0	36394	0	0	0	29589	28190	166941	26941	1055103	44965	111007	0	0	8016	603997	0	0
2024-07-19 11:32:47			0	36395	0	0	0	29568	28190	166925	26668	1055157	44987	110999	0	0	8016	603956	0	0
2024-07-19 11:33:47			0	36409	0	0	0	29555	28200	166997	26871	1055139	44966	110994	0	0	8017	603345	0	0
2024-07-19 11:34:47			0	36385	0	0	0	29592	28190	166953	26970	1055121	44964	111008	0	0	8015	604368	0	0
2024-07-19 11:35:47			0	36385	0	0	0	29576	28180	166985	27194	1055112	44975	111002	0	0	8015	604403	0	0
2024-07-19 11:36:47			0	36391	0	0	0	29571	28200	166893	26845	1055121	44966	111000	0	0	8016	604086	0	0
2024-07-19 11:37:47			0	36384	0	0	0	29571	28190	166845	27254	1055103	44976	111000	0	0	8015	604410	0	0
2024-07-19 11:38:47			0	36388	0	0	0	29563	28180	166905	26845	1055085	44964	110997	0	0	8016	604280	0	0
2024-07-19 11:39:47			0	36381	0	0	0	29568	28190	167085	27098	1055076	44976	110999	0	0	8015	604533	0	0
2024-07-19 11:40:47			0	36365	0	0	0	29584	28190	167077	26863	1055049	44976	111005	0	0	8014	605193	0	0
2024-07-19 11:41:47			0	36355	0	0	0	29586	28190	167137	26993	1055103	44987	111006	0	0	8013	605606	0	0
2024-07-19 11:42:47			0	36381	0	0	0	29594	28200	166957	27124	1055112	44966	111009	0	0	8015	604498	0	0
2024-07-19 11:43:47			0	36372	0	0	0	29581	28180	167045	27074	1055085	44975	111004	0	0	8015	604939	0	0
2024-07-19 11:44:47			0	36388	0	0	0	29586	28190	166993	27123	1055076	44976	111006	0	0	8015	604245	0	0
2024-07-19 11:45:47			0	36398	0	0	0	29599	28190	166941	27086	1055103	44987	111011	0	0	8016	603833	0	0
2024-07-19 11:46:47			0	36434	0	0	0	29599	28190	166777	26951	1055130	44976	111011	0	0	8018	602351	0	0
2024-07-19 11:47:47			0	36482	0	0	0	29605	28210	166621	27206	1055210	44966	111013	0	0	8021	600311	0	0
2024-07-19 11:48:47			0	36498	0	0	0	29602	28210	166389	26942	1055183	44966	111012	0	0	8022	599655	0	0
2024-07-19 11:49:47			0	36523	0	0	0	29599	28200	166229	27220	1055121	44977	111011	0	0	8023	598665	0	0
2024-07-19 11:50:47			0	36559	0	0	0	29589	28200	166205	27128	1055201	44977	111007	0	0	8026	597193	0	0
2024-07-19 11:51:47			0	36568	0	0	0	29599	28200	166173	27147	1055147	44966	111011	0	0	8026	596825	0	0
2024-07-19 11:52:47			0	36542	0	0	0	29625	28210	166313	26871	1055210	45000	111021	0	0	8024	597853	0	0
2024-07-19 11:53:47			0	36508	0	0	0	29620	28200	166321	27107	1055192	44988	111019	0	0	8022	599279	0	0
2024-07-19 11:54:47			0	36464	0	0	0	29631	28220	166525	27190	1055264	45001	111023	0	0	8019	601015	0	0
2024-07-19 11:55:47			0	36426	0	0	0	29644	28210	166673	27173	1055300	45000	111028	0	0	8017	602611	0	0
2024-07-19 11:56:47			0	36400	0	0	0	29644	28220	166733	27067	1055336	44979	111028	0	0	8015	603646	0	0
2024-07-19 11:57:47			0	36415	0	0	0	29641	28230	166857	27000	1055380	45002	111027	0	0	8016	602994	0	0
2024-07-19 11:58:47			0	36414	0	0	0	29644	28230	166825	27081	1055335	44980	111028	0	0	8016	603035	0	0
2024-07-19 11:59:47			0	36410	0	0	0	29633	28230	166809	26679	1055335	44991	111024	0	0	8016	603199	0	0
2024-07-19 12:00:47			0	36417	0	0	0	29638	28240	166757	26982	1055398	44981	111026	0	0	8017	602876	0	0
2024-07-19 12:01:47			0	36438	0	0	0	29651	28240	166649	26949	1055452	44981	111031	0	0	8018	602013	0	0
2024-07-19 12:02:47			0	36461	0	0	0	29657	28240	166581	27029	1055452	44992	111033	0	0	8019	601068	0	0
2024-07-19 12:03:47			0	36463	0	0	0	29654	28250	166573	26916	1055479	44982	111032	0	0	8019	600951	0	0
2024-07-19 12:04:47			0	36432	0	0	0	29696	28260	166689	27022	1055434	44994	111048	0	0	8017	602190	0	0
2024-07-19 12:05:47			0	36321	0	0	0	29675	28260	167137	27093	1055514	44994	111040	0	0	8010	606764	0	0
2024-07-19 12:06:47			0	36227	0	0	0	29644	28260	167625	26934	1055487	44983	111028	0	0	8005	610657	0	0
2024-07-19 12:07:47			0	36164	0	0	0	29654	28260	167977	27175	1055496	44972	111032	0	0	8001	613276	0	0
2024-07-19 12:08:47			0	36101	0	0	0	29638	28260	168029	26970	1055461	44994	111026	0	0	7998	615902	0	0
2024-07-19 12:09:47			0	36075	0	0	0	29638	28260	168301	26981	1055461	44971	111026	0	0	7996	616989	0	0
2024-07-19 12:10:47			0	36022	0	0	0	29636	28260	168401	26963	1055442	44984	111025	0	0	7993	619207	0	0
2024-07-19 12:11:47			0	36013	0	0	0	29636	28260	168529	26821	1055407	44971	111025	0	0	7992	619584	0	0
2024-07-19 12:12:47			0	36001	0	0	0	29649	28260	168593	26771	1055496	44995	111030	0	0	7992	620088	0	0
2024-07-19 12:13:47			0	36002	0	0	0	29657	28270	168693	27081	1055532	44984	111033	0	0	7992	620010	0	0
2024-07-19 12:14:47			0	35998	0	0	0	29677	28270	168613	26918	1055559	44995	111041	0	0	7991	620178	0	0
2024-07-19 12:15:47			0	35997	0	0	0	29716	28260	168677	26949	1055496	44995	111056	0	0	7990	620256	0	0
2024-07-19 12:16:47			0	36005	0	0	0	29745	28270	168565	27000	1055703	45006	111067	0	0	7990	619884	0	0
2024-07-19 12:17:47			0	36050	0	0	0	29742	28300	168537	26696	1055810	44999	111066	0	0	7993	617892	0	0
2024-07-19 12:18:47			0	36047	0	0	0	29753	28300	168329	26611	1055837	45021	111070	0	0	7993	618017	0	0
2024-07-19 12:19:47			0	36075	0	0	0	29758	28320	168253	27086	1055864	45010	111072	0	0	7994	616775	0	0
2024-07-19 12:20:47			0	36087	0	0	0	29724	28320	168185	26887	1055927	45000	111059	0	0	7996	616273	0	0
2024-07-19 12:21:47			0	36100	0	0	0	29709	28320	168153	26968	1055900	44989	111053	0	0	7997	615731	0	0
2024-07-19 12:22:47			0	36091	0	0	0	29716	28330	168141	26944	1055828	45012	111056	0	0	7996	616071	0	0
2024-07-19 12:23:47			0	36073	0	0	0	29709	28330	168197	26958	1055855	45001	111053	0	0	7995	616823	0	0
2024-07-19 12:24:47			0	36058	0	0	0	29709	28330	168385	26982	1055864	44979	111053	0	0	7994	617450	0	0
2024-07-19 12:25:47			0	36042	0	0	0	29716	28330	168341	27072	1055828	44990	111056	0	0	7993	618119	0	0
2024-07-19 12:26:47			0	36038	0	0	0	29737	28330	168521	27027	1055828	44990	111064	0	0	7993	618287	0	0
2024-07-19 12:27:47			0	36026	0	0	0	29768	28330	168665	27171	1055810	44990	111076	0	0	7991	618789	0	0
2024-07-19 12:28:47			0	36048	0	0	0	29774	28340	168561	26890	1055980	45001	111078	0	0	7993	617832	0	0
2024-07-19 12:29:47			0	36031	0	0	0	29768	28340	168529	27178	1055989	45002	111076	0	0	7992	618544	0	0
2024-07-19 12:30:47			0	36029	0	0	0	29745	28340	168365	27187	1055935	45013	111067	0	0	7992	618628	0	0
2024-07-19 12:31:47			0	36047	0	0	0	29784	28360	168337	26908	1056097	45003	111082	0	0	7993	617803	0	0
2024-07-19 12:32:47			0	36046	0	0	0	29745	28370	168397	27307	1056114	45016	111067	0	0	7993	617809	0	0
2024-07-19 12:33:47			0	36060	0	0	0	29740	28360	168365	27137	1056097	45003	111065	0	0	7994	617259	0	0
2024-07-19 12:34:47			0	36066	0	0	0	29737	28370	168293	27092	1056069	45006	111064	0	0	7995	616973	0	0
2024-07-19 12:35:47			0	36071	0	0	0	29737	28370	168325	27161	1056069	45017	111064	0	0	7995	616764	0	0
2024-07-19 12:36:47			0	36058	0	0	0	29737	28370	168265	27060	1056123	44984	111064	0	0	7994	617307	0	0
2024-07-19 12:37:47			0	36070	0	0	0	29750	28380	168297	27093	1056105	45006	111069	0	0	7995	616770	0	0
2024-07-19 12:38:47			0	36083	0	0	0	29748	28380	168257	26733	1056087	44984	111068	0	0	7995	616227	0	0
2024-07-19 12:39:47			0	36091	0	0	0	29742	28380	168117	27126	1056060	44995	111066	0	0	7996	615893	0	0
2024-07-19 12:40:47			0	36099	0	0	0	29742	28370	168085	27126	1056069	44984	111066	0	0	7996	615594	0	0
2024-07-19 12:41:47			0	36078	0	0	0	29761	28380	168129	27204	1056024	44984	111073	0	0	7995	616436	0	0
2024-07-19 12:42:47			0	36095	0	0	0	29761	28380	168193	27017	1056114	45006	111073	0	0	7996	615726	0	0
2024-07-19 12:43:47			0	36091	0	0	0	29755	28370	168193	27175	1056096	44995	111071	0	0	7996	615928	0	0
2024-07-19 12:44:47			0	36102	0	0	0	29755	28380	168005	27033	1056087	44995	111071	0	0	7996	615434	0	0
2024-07-19 12:45:47			0	36114	0	0	0	29784	28380	168013	27007	1056087	45006	111082	0	0	7997	614933	0	0
2024-07-19 12:46:47			0	36138	0	0	0	29784	28390	167981	27220	1056204	44996	111082	0	0	7998	613897	0	0
2024-07-19 12:47:47			0	36130	0	0	0	29786	28380	167873	27059	1056186	45006	111083	0	0	7998	614266	0	0
2024-07-19 12:48:47			0	36150	0	0	0	29805	28390	167733	26835	1056204	45007	111090	0	0	7999	613398	0	0
2024-07-19 12:49:47			0	36175	0	0	0	29810	28400	167741	27185	1056275	44986	111092	0	0	8000	612322	0	0
2024-07-19 12:50:47			0	36198	0	0	0	29825	28410	167685	26804	1056294	44998	111098	0	0	8001	611331	0	0
2024-07-19 12:51:47			0	36214	0	0	0	29825	28410	167469	27060	1056285	45008	111098	0	0	8002	610667	0	0
2024-07-19 12:52:47			0	36243	0	0	0	29846	28420	167401	27007	1056356	44999	111106	0	0	8004	609429	0	0
2024-07-19 12:53:47			0	36265	0	0	0	29846	28410	167285	26949	1056347	45009	111106	0	0	8005	608554	0	0
2024-07-19 12:54:47			0	36265	0	0	0	29846	28420	167269	27121	1056365	45021	111106	0	0	8005	608518	0	0
2024-07-19 12:55:47			0	36267	0	0	0	29854	28430	167269	27384	1056428	45010	111109	0	0	8005	608400	0	0
2024-07-19 12:56:47			0	36259	0	0	0	29864	28440	167377	27130	1056473	45000	111113	0	0	8004	608696	0	0
2024-07-19 12:57:47			0	36255	0	0	0	29883	28440	167349	27315	1056535	45012	111120	0	0	8004	608862	0	0
2024-07-19 12:58:47			0	36231	0	0	0	29937	28450	167421	27277	1056607	45001	111141	0	0	8001	609821	0	0
2024-07-19 12:59:47			0	36216	0	0	0	29929	28460	167541	27206	1056652	45026	111138	0	0	8001	610408	0	0
2024-07-19 13:00:47			0	36226	0	0	0	29942	28480	167505	27270	1056759	45027	111143	0	0	8001	609922	0	0
2024-07-19 13:01:47			0	36244	0	0	0	29929	28490	167345	27239	1056813	45005	111138	0	0	8003	609141	0	0
2024-07-19 13:02:47			0	36252	0	0	0	29898	28500	167325	27124	1056822	45006	111126	0	0	8004	608775	0	0
2024-07-19 13:03:47			0	36248	0	0	0	29867	28500	167241	26968	1056795	45017	111114	0	0	8004	608940	0	0
2024-07-19 13:04:47			0	36253	0	0	0	29890	28510	167353	27182	1056786	44997	111123	0	0	8004	608698	0	0
2024-07-19 13:05:47			0	36231	0	0	0	29935	28500	167401	27216	1056858	45030	111140	0	0	8002	609645	0	0
2024-07-19 13:06:47			0	36231	0	0	0	29922	28510	167325	27194	1056929	45019	111135	0	0	8002	609609	0	0
2024-07-19 13:07:47			0	36252	0	0	0	29880	28510	167277	27173	1056902	45008	111119	0	0	8004	608740	0	0
2024-07-19 13:08:47			0	36264	0	0	0	29885	28530	167165	27199	1056741	44999	111121	0	0	8005	608173	0	0
2024-07-19 13:09:47			0	36251	0	0	0	29916	28520	167281	27024	1056749	44986	111133	0	0	8003	608746	0	0
2024-07-19 13:10:47			0	36225	0	0	0	29885	28510	167369	27043	1056794	45008	111121	0	0	8002	609858	0	0
2024-07-19 13:11:47			0	36214	0	0	0	29914	28510	167413	27182	1056794	44997	111132	0	0	8001	610314	0	0
2024-07-19 13:12:47			0	36190	0	0	0	29927	28520	167541	27180	1056803	45008	111137	0	0	8000	611275	0	0
2024-07-19 13:13:47			0	36207	0	0	0	29932	28520	167521	27208	1056866	45009	111139	0	0	8000	610569	0	0
2024-07-19 13:14:47			0	36191	0	0	0	29950	28520	167569	27317	1056839	45020	111146	0	0	7999	611233	0	0
2024-07-19 13:15:47			0	36220	0	0	0	29924	28520	167505	27121	1056974	45009	111136	0	0	8001	610030	0	0
2024-07-19 13:16:47			0	36211	0	0	0	29968	28540	167401	27211	1057055	45010	111153	0	0	8000	610333	0	0
2024-07-19 13:17:47			0	36238	0	0	0	29963	28530	167405	27059	1057019	45021	111151	0	0	8002	609249	0	0
2024-07-19 13:18:47			0	36235	0	0	0	29973	28550	167425	27308	1057126	45012	111155	0	0	8002	609303	0	0
2024-07-19 13:19:47			0	36222	0	0	0	29966	28550	167429	27355	1057108	45012	111152	0	0	8001	609841	0	0
2024-07-19 13:20:47			0	36209	0	0	0	30012	28550	167461	27313	1057153	45023	111170	0	0	7999	610380	0	0
2024-07-19 13:21:47			0	36204	0	0	0	29981	28570	167533	27055	1057243	45025	111158	0	0	8000	610517	0	0
2024-07-19 13:22:47			0	36232	0	0	0	29971	28560	167433	27036	1057207	45024	111154	0	0	8001	609392	0	0
2024-07-19 13:23:47			0	36233	0	0	0	29994	28570	167425	27242	1057198	45014	111163	0	0	8001	609315	0	0
2024-07-19 13:24:47			0	36222	0	0	0	29994	28570	167441	27460	1057189	45014	111163	0	0	8001	609771	0	0
2024-07-19 13:25:47			0	36224	0	0	0	29973	28570	167445	26967	1057279	45025	111155	0	0	8001	609688	0	0
2024-07-19 13:26:47			0	36221	0	0	0	29968	28580	167461	27383	1057261	45026	111153	0	0	8001	609777	0	0
2024-07-19 13:27:47			0	36233	0	0	0	29992	28580	167385	27078	1057243	45026	111162	0	0	8001	609280	0	0
2024-07-19 13:28:47			0	36231	0	0	0	30010	28590	167417	27112	1057341	45039	111169	0	0	8001	609327	0	0
2024-07-19 13:29:47			0	36223	0	0	0	30015	28590	167433	26944	1057305	45027	111171	0	0	8000	609659	0	0
2024-07-19 13:30:47			0	36236	0	0	0	29989	28590	167405	27204	1057368	45028	111161	0	0	8002	609120	0	0
2024-07-19 13:31:47			0	36228	0	0	0	30007	28590	167437	27074	1057341	45028	111168	0	0	8001	609452	0	0
2024-07-19 13:32:47			0	36243	0	0	0	29999	28600	167445	27019	1057413	45028	111165	0	0	8002	608795	0	0
2024-07-19 13:33:47			0	36244	0	0	0	30038	28610	167341	27201	1057431	45030	111180	0	0	8001	608719	0	0
2024-07-19 13:34:47			0	36249	0	0	0	30044	28610	167249	27128	1057458	45030	111182	0	0	8002	608512	0	0
2024-07-19 13:35:47			0	36271	0	0	0	30046	28630	167161	27176	1057484	45031	111183	0	0	8003	607531	0	0
2024-07-19 13:36:47			0	36286	0	0	0	30054	28620	167117	27052	1057493	45007	111186	0	0	8004	606947	0	0
2024-07-19 13:37:47			0	36296	0	0	0	30041	28630	166989	27149	1057520	45009	111181	0	0	8004	606499	0	0
2024-07-19 13:38:47			0	36293	0	0	0	30020	28640	166965	27486	1057610	45020	111173	0	0	8005	606588	0	0
2024-07-19 13:39:47			0	36301	0	0	0	29989	28640	166993	27300	1057565	45021	111161	0	0	8006	606257	0	0
2024-07-19 13:40:47			0	36301	0	0	0	30015	28640	166977	27218	1057529	45020	111171	0	0	8005	606257	0	0
2024-07-19 13:41:47			0	36297	0	0	0	30007	28640	166957	27355	1057511	45021	111168	0	0	8005	606422	0	0
2024-07-19 13:42:47			0	36314	0	0	0	29992	28640	166993	27365	1057511	45000	111162	0	0	8006	605721	0	0
2024-07-19 13:43:47			0	36295	0	0	0	30041	28640	167157	27059	1057475	45009	111181	0	0	8004	606505	0	0
2024-07-19 13:44:47			0	36260	0	0	0	30033	28640	167169	27332	1057511	45033	111178	0	0	8002	607951	0	0
2024-07-19 13:45:47			0	36220	0	0	0	30028	28640	167313	27279	1057565	45043	111176	0	0	8000	609606	0	0
2024-07-19 13:46:47			0	36228	0	0	0	30033	28650	167257	27352	1057547	45033	111178	0	0	8001	609240	0	0
2024-07-19 13:47:47			0	36216	0	0	0	30049	28650	167281	27303	1057637	45044	111184	0	0	8000	609737	0	0
2024-07-19 13:48:47			0	36229	0	0	0	30031	28660	167333	27060	1057655	45012	111177	0	0	8001	609163	0	0
2024-07-19 13:49:47			0	36232	0	0	0	30038	28650	167273	27163	1057610	45011	111180	0	0	8001	609074	0	0
2024-07-19 13:50:47			0	36228	0	0	0	30064	28660	167201	27331	1057673	45022	111190	0	0	8000	609205	0	0
2024-07-19 13:51:47			0	36224	0	0	0	30062	28660	167313	26819	1057655	45023	111189	0	0	8000	609370	0	0
2024-07-19 13:52:47			0	36237	0	0	0	30062	28680	167185	27189	1057753	45024	111189	0	0	8001	608762	0	0
2024-07-19 13:53:47			0	36239	0	0	0	30025	28680	167177	27003	1057726	45024	111175	0	0	8002	608679	0	0
2024-07-19 13:54:47			0	36230	0	0	0	30044	28680	167193	27306	1057672	45024	111182	0	0	8001	609051	0	0
2024-07-19 13:55:47			0	36245	0	0	0	30038	28680	167181	27502	1057699	45024	111180	0	0	8002	608431	0	0
2024-07-19 13:56:47			0	36238	0	0	0	30057	28680	167061	27298	1057735	45037	111187	0	0	8001	608720	0	0
2024-07-19 13:57:47			0	36222	0	0	0	30044	28670	167237	26816	1057690	45000	111182	0	0	8000	609418	0	0
2024-07-19 13:58:47			0	36237	0	0	0	30033	28680	167213	27159	1057708	45025	111178	0	0	8001	608762	0	0
2024-07-19 13:59:47			0	36244	0	0	0	30067	28690	167113	27064	1057717	45014	111191	0	0	8001	608437	0	0
2024-07-19 14:00:47			0	36236	0	0	0	30075	28690	167121	26993	1057807	45038	111194	0	0	8001	608768	0	0
2024-07-19 14:01:47			0	36238	0	0	0	30090	28700	167157	27062	1057906	45039	111200	0	0	8001	608650	0	0
2024-07-19 14:02:47			0	36259	0	0	0	30054	28700	167053	27114	1057879	45039	111186	0	0	8002	607781	0	0
2024-07-19 14:03:47			0	36255	0	0	0	30059	28700	167141	26984	1057852	45039	111188	0	0	8002	607946	0	0
2024-07-19 14:04:47			0	36263	0	0	0	30020	28710	166965	27102	1057887	45027	111173	0	0	8003	607581	0	0
2024-07-19 14:05:47			0	36266	0	0	0	30018	28700	166933	27275	1057852	45016	111172	0	0	8003	607492	0	0
2024-07-19 14:06:47			0	36221	0	0	0	30005	28700	167173	27180	1057798	45016	111167	0	0	8001	609353	0	0
2024-07-19 14:07:47			0	36200	0	0	0	30067	28710	167285	26979	1057834	45027	111191	0	0	7999	610188	0	0
2024-07-19 14:08:47			0	36187	0	0	0	30059	28710	167453	27126	1057834	45016	111188	0	0	7998	610727	0	0
2024-07-19 14:09:47			0	36175	0	0	0	30023	28710	167449	27194	1057807	45016	111174	0	0	7998	611225	0	0
2024-07-19 14:10:47			0	36172	0	0	0	30054	28710	167433	27327	1057887	45016	111186	0	0	7997	611349	0	0
2024-07-19 14:11:47			0	36157	0	0	0	30137	28710	167445	27133	1057896	45028	111218	0	0	7995	611972	0	0
2024-07-19 14:12:47			0	36171	0	0	0	30145	28710	167453	27281	1058085	45040	111221	0	0	7996	611391	0	0
2024-07-19 14:13:47			0	36191	0	0	0	30145	28730	167357	27315	1058121	45052	111221	0	0	7997	610490	0	0
2024-07-19 14:14:47			0	36200	0	0	0	30119	28730	167337	26847	1058094	45030	111211	0	0	7998	610117	0	0
2024-07-19 14:15:47			0	36194	0	0	0	30114	28740	167193	27386	1058111	45041	111209	0	0	7998	610331	0	0
2024-07-19 14:16:47			0	36226	0	0	0	30077	28750	167149	27124	1058093	45031	111195	0	0	8000	608970	0	0
2024-07-19 14:17:47			0	36247	0	0	0	30077	28750	167061	27118	1057994	45009	111195	0	0	8002	608101	0	0
2024-07-19 14:18:47			0	36274	0	0	0	30111	28740	166949	27007	1058057	45031	111208	0	0	8003	607021	0	0
2024-07-19 14:19:47			0	36283	0	0	0	30158	28750	166909	27213	1058120	45020	111226	0	0	8002	606614	0	0
2024-07-19 14:20:47			0	36290	0	0	0	30150	28750	166801	26991	1058129	45032	111223	0	0	8003	606325	0	0
2024-07-19 14:21:47			0	36298	0	0	0	30114	28750	166769	27119	1058102	45021	111209	0	0	8004	605995	0	0
2024-07-19 14:22:47			0	36298	0	0	0	30114	28760	166793	27029	1058138	45010	111209	0	0	8004	605960	0	0
2024-07-19 14:23:47			0	36286	0	0	0	30085	28750	166885	27303	1058066	45020	111198	0	0	8004	606490	0	0
2024-07-19 14:24:47			0	36261	0	0	0	30067	28750	166945	27076	1058120	45031	111191	0	0	8003	607522	0	0
2024-07-19 14:25:47			0	36266	0	0	0	30103	28750	167121	27331	1058120	45008	111205	0	0	8002	607316	0	0
2024-07-19 14:26:47			0	36248	0	0	0	30179	28770	167165	27220	1058210	45033	111234	0	0	8000	607989	0	0
2024-07-19 14:27:47			0	36249	0	0	0	30181	28770	167153	27452	1058264	45033	111235	0	0	8000	607948	0	0
2024-07-19 14:28:47			0	36267	0	0	0	30148	28780	166977	27187	1058309	45035	111222	0	0	8002	607169	0	0
2024-07-19 14:29:47			0	36279	0	0	0	30166	28780	166949	27005	1058336	45045	111229	0	0	8002	606674	0	0
2024-07-19 14:30:47			0	36310	0	0	0	30176	28780	166805	27067	1058282	45045	111233	0	0	8004	605395	0	0
2024-07-19 14:31:47			0	36310	0	0	0	30192	28790	166869	27066	1058300	45036	111239	0	0	8004	605360	0	0
2024-07-19 14:32:47			0	36317	0	0	0	30207	28780	166737	27170	1058345	45045	111245	0	0	8004	605106	0	0
2024-07-19 14:33:47			0	36361	0	0	0	30218	28800	166681	27241	1058452	45037	111249	0	0	8006	603226	0	0
2024-07-19 14:34:47			0	36372	0	0	0	30233	28810	166557	27455	1058497	45048	111255	0	0	8007	602738	0	0
2024-07-19 14:35:47			0	36375	0	0	0	30233	28810	166649	27274	1058524	45048	111255	0	0	8007	602615	0	0
2024-07-19 14:36:47			0	36379	0	0	0	30244	28820	166553	27327	1058596	45049	111259	0	0	8007	602416	0	0
2024-07-19 14:37:47			0	36361	0	0	0	30241	28830	166557	27232	1058586	45040	111258	0	0	8006	603121	0	0
2024-07-19 14:38:47			0	36363	0	0	0	30218	28840	166493	27471	1058604	45051	111249	0	0	8007	603004	0	0
2024-07-19 14:39:47			0	36379	0	0	0	30244	28840	166505	27353	1058631	45041	111259	0	0	8007	602346	0	0
2024-07-19 14:40:47			0	36365	0	0	0	30231	28850	166489	27279	1058649	45041	111254	0	0	8006	602886	0	0
2024-07-19 14:41:47			0	36370	0	0	0	30218	28850	166481	27353	1058622	45041	111249	0	0	8007	602681	0	0
2024-07-19 14:42:47			0	36387	0	0	0	30202	28840	166421	27157	1058586	45041	111243	0	0	8008	602018	0	0
2024-07-19 14:43:47			0	36393	0	0	0	30145	28840	166409	27185	1058550	45029	111221	0	0	8010	601771	0	0
2024-07-19 14:44:47			0	36369	0	0	0	30176	28830	166569	27175	1058452	45017	111233	0	0	8008	602792	0	0
2024-07-19 14:45:47			0	36349	0	0	0	30184	28840	166585	27315	1058478	45030	111236	0	0	8006	603579	0	0
2024-07-19 14:46:47			0	36366	0	0	0	30192	28820	166557	27405	1058470	45040	111239	0	0	8007	602950	0	0
2024-07-19 14:47:47			0	36343	0	0	0	30194	28840	166605	27185	1058523	45029	111240	0	0	8006	603826	0	0
2024-07-19 14:48:47			0	36333	0	0	0	30192	28830	166609	27377	1058613	45050	111239	0	0	8005	604272	0	0
2024-07-19 14:49:47			0	36316	0	0	0	30228	28830	166709	27145	1058541	45028	111253	0	0	8003	604972	0	0
2024-07-19 14:50:47			0	36316	0	0	0	30259	28840	166761	26876	1058658	45051	111265	0	0	8003	604937	0	0
2024-07-19 14:51:47			0	36312	0	0	0	30272	28850	166749	27038	1058766	45052	111270	0	0	8003	605067	0	0
2024-07-19 14:52:47			0	36302	0	0	0	30272	28850	166821	27007	1058730	45064	111270	0	0	8002	605479	0	0
2024-07-19 14:53:47			0	36290	0	0	0	30301	28870	166721	27029	1058900	45054	111281	0	0	8001	605904	0	0
2024-07-19 14:54:47			0	36319	0	0	0	30324	28880	166889	27232	1058954	45056	111290	0	0	8002	604673	0	0
2024-07-19 14:55:47			0	36303	0	0	0	30301	28890	166829	27074	1058990	45068	111281	0	0	8002	605297	0	0
2024-07-19 14:56:47			0	36321	0	0	0	30311	28890	166693	26916	1058999	45057	111285	0	0	8003	604556	0	0
2024-07-19 14:57:47			0	36306	0	0	0	30285	28900	166781	27105	1058990	45036	111275	0	0	8002	605139	0	0
2024-07-19 14:58:47			0	36336	0	0	0	30259	28890	166805	27015	1058918	45046	111265	0	0	8004	603939	0	0
2024-07-19 14:59:47			0	36327	0	0	0	30244	28890	166637	27194	1058864	45024	111259	0	0	8004	604309	0	0
2024-07-19 15:00:47			0	36321	0	0	0	30264	28890	166805	26890	1058810	45024	111267	0	0	8003	604556	0	0
2024-07-19 15:01:47			0	36312	0	0	0	30280	28890	166745	26977	1058774	45046	111273	0	0	8003	604927	0	0
2024-07-19 15:02:47			0	36308	0	0	0	30288	28890	166745	27161	1058918	45035	111276	0	0	8002	605092	0	0
2024-07-19 15:03:47			0	36305	0	0	0	30301	28890	166797	27133	1058864	45057	111281	0	0	8002	605215	0	0
2024-07-19 15:04:47			0	36296	0	0	0	30316	28900	166817	27163	1058954	45057	111287	0	0	8001	605551	0	0
2024-07-19 15:05:47			0	36291	0	0	0	30332	28900	166857	27079	1059008	45057	111293	0	0	8001	605757	0	0
2024-07-19 15:06:47			0	36286	0	0	0	30335	28900	166897	27190	1059044	45046	111294	0	0	8000	605963	0	0
2024-07-19 15:07:47			0	36274	0	0	0	30327	28920	166961	27147	1059071	45047	111291	0	0	8000	606388	0	0
2024-07-19 15:08:47			0	36285	0	0	0	30332	28910	166909	26965	1059035	45059	111293	0	0	8000	605969	0	0
2024-07-19 15:09:47			0	36292	0	0	0	30335	28920	166885	27118	1059098	45059	111294	0	0	8001	605645	0	0
2024-07-19 15:10:47			0	36270	0	0	0	30348	28920	166825	27003	1059134	45048	111299	0	0	7999	606553	0	0
2024-07-19 15:11:47			0	36278	0	0	0	30345	28930	166953	27131	1059196	45049	111298	0	0	8000	606188	0	0
2024-07-19 15:12:47			0	36283	0	0	0	30381	28930	166933	27173	1059196	45072	111312	0	0	7999	605981	0	0
2024-07-19 15:13:47			0	36284	0	0	0	30410	28950	166973	27067	1059376	45097	111323	0	0	7999	605870	0	0
2024-07-19 15:14:47			0	36296	0	0	0	30431	28970	166837	26781	1059448	45086	111331	0	0	8000	605305	0	0
2024-07-19 15:15:47			0	36313	0	0	0	30431	28980	166717	27034	1059474	45087	111331	0	0	8001	604570	0	0
2024-07-19 15:16:47			0	36307	0	0	0	30418	28990	166697	27130	1059546	45078	111326	0	0	8001	604782	0	0
2024-07-19 15:17:47			0	36303	0	0	0	30368	29000	166805	27062	1059474	45056	111307	0	0	8001	604911	0	0
2024-07-19 15:18:47			0	36310	0	0	0	30342	29000	166721	26746	1059429	45056	111297	0	0	8002	604623	0	0
2024-07-19 15:19:47			0	36284	0	0	0	30293	29000	166745	27000	1059348	45045	111278	0	0	8001	605694	0	0
2024-07-19 15:20:47			0	36270	0	0	0	30301	28980	166761	26887	1059339	45043	111281	0	0	8000	606342	0	0
2024-07-19 15:21:47			0	36245	0	0	0	30335	28980	166965	26769	1059366	45054	111294	0	0	7998	607374	0	0
2024-07-19 15:22:47			0	36236	0	0	0	30337	29000	166941	27071	1059366	45068	111295	0	0	7998	607675	0	0
2024-07-19 15:23:47			0	36238	0	0	0	30337	28990	167005	27083	1059375	45054	111295	0	0	7998	607627	0	0
2024-07-19 15:24:47			0	36225	0	0	0	30348	28990	167061	27261	1059357	45033	111299	0	0	7997	608165	0	0
2024-07-19 15:25:47			0	36240	0	0	0	30376	28990	166981	27391	1059411	45055	111310	0	0	7997	607545	0	0
2024-07-19 15:26:47			0	36237	0	0	0	30386	29000	167037	27081	1059393	45079	111314	0	0	7997	607633	0	0
2024-07-19 15:27:47			0	36248	0	0	0	30392	29000	166929	27279	1059501	45045	111316	0	0	7998	607179	0	0
2024-07-19 15:28:47			0	36260	0	0	0	30384	29010	166881	27076	1059492	45068	111313	0	0	7998	606649	0	0
2024-07-19 15:29:47			0	36301	0	0	0	30361	29010	166693	27331	1059474	45069	111304	0	0	8001	604959	0	0
2024-07-19 15:30:47			0	36309	0	0	0	30358	29010	166705	27208	1059420	45057	111303	0	0	8002	604629	0	0
2024-07-19 15:31:47			0	36302	0	0	0	30361	29000	166517	27067	1059429	45068	111304	0	0	8001	604953	0	0
2024-07-19 15:32:47			0	36319	0	0	0	30366	29010	166581	27149	1059465	45068	111306	0	0	8002	604218	0	0
2024-07-19 15:33:47			0	36328	0	0	0	30371	29000	166513	27161	1059429	45045	111308	0	0	8003	603883	0	0
2024-07-19 15:34:47			0	36323	0	0	0	30389	29000	166553	27092	1059483	45045	111315	0	0	8002	604088	0	0
2024-07-19 15:35:47			0	36318	0	0	0	30410	29020	166569	27163	1059483	45058	111323	0	0	8001	604224	0	0
2024-07-19 15:36:47			0	36337	0	0	0	30397	29010	166609	27026	1059555	45080	111318	0	0	8003	603477	0	0
2024-07-19 15:37:47			0	36334	0	0	0	30373	29010	166633	27308	1059501	45069	111309	0	0	8003	603601	0	0
2024-07-19 15:38:47			0	36328	0	0	0	30386	29020	166533	27258	1059510	45047	111314	0	0	8002	603813	0	0
2024-07-19 15:39:47			0	36340	0	0	0	30384	29010	166553	27159	1059501	45046	111313	0	0	8003	603354	0	0
2024-07-19 15:40:47			0	36321	0	0	0	30381	29020	166613	27069	1059510	45058	111312	0	0	8002	604101	0	0
2024-07-19 15:41:47			0	36339	0	0	0	30373	29020	166481	27138	1059536	45047	111309	0	0	8003	603360	0	0
2024-07-19 15:42:47			0	36353	0	0	0	30373	29010	166441	27031	1059519	45045	111309	0	0	8004	602820	0	0
2024-07-19 15:43:47			0	36343	0	0	0	30376	29020	166557	26833	1059510	45070	111310	0	0	8004	603196	0	0
2024-07-19 15:44:47			0	36381	0	0	0	30399	29020	166361	26922	1059536	45058	111319	0	0	8005	601636	0	0
2024-07-19 15:45:47			0	36361	0	0	0	30399	29020	166405	27118	1059510	45058	111319	0	0	8004	602457	0	0
2024-07-19 15:46:47			0	36379	0	0	0	30384	29020	166429	27270	1059590	45058	111313	0	0	8006	601718	0	0
2024-07-19 15:47:47			0	36366	0	0	0	30399	29020	166333	27066	1059572	45070	111319	0	0	8005	602251	0	0
2024-07-19 15:48:47			0	36376	0	0	0	30389	29030	166449	27137	1059555	45037	111315	0	0	8005	601806	0	0
2024-07-19 15:49:47			0	36370	0	0	0	30371	29030	166429	27131	1059582	45070	111308	0	0	8005	602052	0	0
2024-07-19 15:50:47			0	36384	0	0	0	30363	29030	166305	27197	1059582	45037	111305	0	0	8006	601478	0	0
2024-07-19 15:51:47			0	36382	0	0	0	30332	29020	166273	26667	1059518	45037	111293	0	0	8007	601595	0	0
2024-07-19 15:52:47			0	36405	0	0	0	30353	29020	166249	27111	1059429	45047	111301	0	0	8008	600652	0	0
2024-07-19 15:53:47			0	36407	0	0	0	30412	29020	166237	26922	1059599	45048	111324	0	0	8007	600570	0	0
2024-07-19 15:54:47			0	36420	0	0	0	30420	29020	166273	27053	1059653	45082	111327	0	0	8007	600037	0	0
2024-07-19 15:55:47			0	36443	0	0	0	30418	29040	165981	27057	1059716	45072	111326	0	0	8009	599027	0	0
2024-07-19 15:56:47			0	36471	0	0	0	30436	29040	165957	26896	1059689	45061	111333	0	0	8010	597882	0	0
2024-07-19 15:57:47			0	36493	0	0	0	30376	29050	165933	27026	1059671	45039	111310	0	0	8013	596950	0	0
2024-07-19 15:58:47			0	36498	0	0	0	30355	29040	165865	26948	1059546	45027	111302	0	0	8013	596780	0	0
2024-07-19 15:59:47			0	36495	0	0	0	30358	29030	165713	27092	1059537	45037	111303	0	0	8013	596937	0	0
2024-07-19 16:00:47			0	36450	0	0	0	30376	29020	165949	26864	1059572	45048	111310	0	0	8010	598810	0	0
2024-07-19 16:01:47			0	36477	0	0	0	30410	29020	166089	27109	1059572	45070	111323	0	0	8011	597707	0	0
2024-07-19 16:02:47			0	36450	0	0	0	30381	29020	166049	27270	1059545	45048	111312	0	0	8010	598810	0	0
2024-07-19 16:03:47			0	36439	0	0	0	30348	29020	166209	27052	1059465	45059	111299	0	0	8010	599260	0	0
2024-07-19 16:04:47			0	36400	0	0	0	30363	29020	166293	27020	1059483	45036	111305	0	0	8007	600857	0	0
2024-07-19 16:05:47			0	36362	0	0	0	30373	29020	166457	27317	1059510	45058	111309	0	0	8005	602415	0	0
2024-07-19 16:06:47			0	36330	0	0	0	30366	29010	166581	26814	1059420	45057	111306	0	0	8003	603765	0	0
2024-07-19 16:07:47			0	36307	0	0	0	30368	29010	166661	27235	1059447	45057	111307	0	0	8001	604712	0	0
2024-07-19 16:08:47			0	36278	0	0	0	30373	29020	166769	27046	1059429	45047	111309	0	0	8000	605871	0	0
2024-07-19 16:09:47			0	36263	0	0	0	30358	29010	166777	26882	1059501	45057	111303	0	0	7999	606525	0	0
2024-07-19 16:10:47			0	36264	0	0	0	30353	29010	166785	26981	1059501	45057	111301	0	0	7999	606484	0	0
2024-07-19 16:11:47			0	36260	0	0	0	30348	29010	166833	27078	1059384	45034	111299	0	0	7999	606649	0	0
2024-07-19 16:12:47			0	36254	0	0	0	30361	29000	166737	26857	1059474	45045	111304	0	0	7998	606931	0	0
2024-07-19 16:13:47			0	36260	0	0	0	30376	29000	166817	27104	1059402	45056	111310	0	0	7998	606684	0	0
2024-07-19 16:14:47			0	36274	0	0	0	30368	29010	166765	26923	1059519	45034	111307	0	0	8000	606071	0	0
2024-07-19 16:15:47			0	36298	0	0	0	30350	29000	166785	26837	1059375	45045	111300	0	0	8001	605117	0	0
2024-07-19 16:16:47			0	36307	0	0	0	30340	28990	166573	26720	1059411	45067	111296	0	0	8002	604782	0	0
2024-07-19 16:17:47			0	36345	0	0	0	30340	28990	166473	26922	1059375	45054	111296	0	0	8004	603219	0	0
2024-07-19 16:18:47			0	36364	0	0	0	30348	29000	166369	26769	1059375	45056	111299	0	0	8005	602403	0	0
2024-07-19 16:19:47			0	36388	0	0	0	30355	28990	166237	27109	1059384	45044	111302	0	0	8006	601453	0	0
2024-07-19 16:20:47			0	36399	0	0	0	30371	28980	166209	27107	1059366	45054	111308	0	0	8007	601037	0	0
2024-07-19 16:21:47			0	36434	0	0	0	30386	28990	166161	27170	1059402	45066	111314	0	0	8009	599569	0	0
2024-07-19 16:22:47			0	36461	0	0	0	30371	29000	166017	26847	1059474	45068	111308	0	0	8011	598430	0	0
2024-07-19 16:23:47			0	36495	0	0	0	30358	29000	165825	27104	1059420	45068	111303	0	0	8013	597041	0	0
2024-07-19 16:24:47			0	36500	0	0	0	30329	28990	165817	27046	1059357	45033	111292	0	0	8014	596872	0	0
2024-07-19 16:25:47			0	36496	0	0	0	30358	28980	165825	26809	1059366	45054	111303	0	0	8013	597070	0	0
2024-07-19 16:26:47			0	36502	0	0	0	30371	28990	165853	27074	1059483	45054	111308	0	0	8013	596790	0	0
2024-07-19 16:27:47			0	36472	0	0	0	30368	28990	165841	27064	1059438	45044	111307	0	0	8011	598015	0	0
2024-07-19 16:28:47			0	36466	0	0	0	30381	28990	165897	27010	1059411	45067	111312	0	0	8011	598260	0	0
2024-07-19 16:29:47			0	36451	0	0	0	30386	29000	165993	27121	1059447	45079	111314	0	0	8010	598838	0	0
2024-07-19 16:30:47			0	36440	0	0	0	30379	29000	166069	27209	1059474	45068	111311	0	0	8009	599288	0	0
2024-07-19 16:31:47			0	36404	0	0	0	30371	28990	166197	27192	1059456	45054	111308	0	0	8007	600797	0	0
2024-07-19 16:32:47			0	36364	0	0	0	30373	29000	166325	27324	1059474	45068	111309	0	0	8005	602403	0	0
2024-07-19 16:33:47			0	36320	0	0	0	30412	29000	166609	27152	1059510	45079	111324	0	0	8001	604212	0	0
2024-07-19 16:34:47			0	36266	0	0	0	30415	29010	166849	27201	1059609	45057	111325	0	0	7998	606401	0	0
2024-07-19 16:35:47			0	36231	0	0	0	30402	29010	166869	27270	1059546	45068	111320	0	0	7996	607846	0	0
2024-07-19 16:36:47			0	36198	0	0	0	30389	29010	167053	27260	1059465	45068	111315	0	0	7995	609210	0	0
2024-07-19 16:37:47			0	36176	0	0	0	30389	29010	167193	26871	1059582	45057	111315	0	0	7993	610121	0	0
2024-07-19 16:38:47			0	36145	0	0	0	30402	29010	167277	27421	1059546	45068	111320	0	0	7991	611406	0	0
2024-07-19 16:39:47			0	36131	0	0	0	30407	29010	167333	27218	1059582	45069	111322	0	0	7990	611988	0	0
2024-07-19 16:40:47			0	36096	0	0	0	30407	29010	167469	27267	1059582	45069	111322	0	0	7988	613442	0	0
2024-07-19 16:41:47			0	36109	0	0	0	30405	29010	167413	27039	1059528	45069	111321	0	0	7989	612901	0	0
2024-07-19 16:42:47			0	36110	0	0	0	30397	29010	167461	27135	1059501	45057	111318	0	0	7989	612860	0	0
2024-07-19 16:43:47			0	36112	0	0	0	30407	29010	167425	27277	1059573	45056	111322	0	0	7989	612777	0	0
2024-07-19 16:44:47			0	36130	0	0	0	30420	29020	167413	26993	1059626	45082	111327	0	0	7990	611993	0	0
2024-07-19 16:45:47			0	36107	0	0	0	30407	29020	167297	27116	1059617	45058	111322	0	0	7989	612949	0	0
2024-07-19 16:46:47			0	36125	0	0	0	30402	29020	167261	26996	1059590	45058	111320	0	0	7990	612201	0	0
2024-07-19 16:47:47			0	36139	0	0	0	30410	29020	167253	27024	1059590	45070	111323	0	0	7991	611620	0	0
2024-07-19 16:48:47			0	36160	0	0	0	30423	29010	167169	27130	1059609	45057	111328	0	0	7992	610785	0	0
2024-07-19 16:49:47			0	36155	0	0	0	30399	29020	167241	27230	1059653	45070	111319	0	0	7992	610956	0	0
2024-07-19 16:50:47			0	36169	0	0	0	30402	29020	167165	27469	1059590	45070	111320	0	0	7993	610376	0	0
2024-07-19 16:51:47			0	36180	0	0	0	30420	29020	167245	27443	1059617	45070	111327	0	0	7993	609920	0	0
2024-07-19 16:52:47			0	36175	0	0	0	30433	29030	167017	27166	1059779	45082	111332	0	0	7993	610092	0	0
2024-07-19 16:53:47			0	36189	0	0	0	30410	29030	167153	27286	1059698	45070	111323	0	0	7994	609512	0	0
2024-07-19 16:54:47			0	36192	0	0	0	30405	29040	166989	27215	1059707	45049	111321	0	0	7994	609353	0	0
2024-07-19 16:55:47			0	36217	0	0	0	30420	29040	166921	27206	1059680	45083	111327	0	0	7995	608319	0	0
2024-07-19 16:56:47			0	36230	0	0	0	30436	29050	166925	27170	1059779	45072	111333	0	0	7996	607746	0	0
2024-07-19 16:57:47			0	36232	0	0	0	30457	29050	166685	26961	1059806	45061	111341	0	0	7996	607664	0	0
2024-07-19 16:58:47			0	36265	0	0	0	30464	29070	166649	26987	1059869	45074	111344	0	0	7998	606231	0	0
2024-07-19 16:59:47			0	36286	0	0	0	30477	29070	166621	27144	1059896	45096	111349	0	0	7999	605366	0	0
2024-07-19 17:00:47			0	36298	0	0	0	30514	29080	166545	27157	1060048	45086	111363	0	0	7999	604837	0	0
2024-07-19 17:01:47			0	36297	0	0	0	30545	29090	166441	27107	1060120	45099	111375	0	0	7998	604843	0	0
2024-07-19 17:02:47			0	36323	0	0	0	30558	29100	166437	27218	1060228	45100	111380	0	0	8000	603738	0	0
2024-07-19 17:03:47			0	36334	0	0	0	30527	29120	166385	27010	1060200	45090	111368	0	0	8001	603216	0	0
2024-07-19 17:04:47			0	36338	0	0	0	30522	29130	166409	27145	1060218	45092	111366	0	0	8001	603016	0	0
2024-07-19 17:05:47			0	36332	0	0	0	30511	29130	166309	27204	1060272	45092	111362	0	0	8001	603263	0	0
2024-07-19 17:06:47			0	36315	0	0	0	30527	29130	166393	27116	1060254	45092	111368	0	0	8000	603962	0	0
2024-07-19 17:07:47			0	36343	0	0	0	30558	29140	166313	27201	1060317	45081	111380	0	0	8001	602776	0	0
2024-07-19 17:08:47			0	36320	0	0	0	30589	29140	166389	27144	1060380	45093	111392	0	0	7999	603721	0	0
2024-07-19 17:09:47			0	36308	0	0	0	30628	29160	166429	27201	1060515	45094	111407	0	0	7998	604144	0	0
2024-07-19 17:10:47			0	36304	0	0	0	30636	29160	166265	27133	1060632	45106	111410	0	0	7998	604309	0	0
2024-07-19 17:11:47			0	36310	0	0	0	30638	29180	166285	26925	1060613	45096	111411	0	0	7998	603992	0	0
2024-07-19 17:12:47			0	36337	0	0	0	30631	29180	166193	27255	1060586	45085	111408	0	0	8000	602882	0	0
2024-07-19 17:13:47			0	36349	0	0	0	30612	29190	165985	27085	1060604	45110	111401	0	0	8001	602355	0	0
2024-07-19 17:14:47			0	36359	0	0	0	30589	29190	165945	27369	1060622	45086	111392	0	0	8002	601944	0	0
2024-07-19 17:15:47			0	36376	0	0	0	30584	29190	165837	27055	1060595	45075	111390	0	0	8003	601247	0	0
2024-07-19 17:16:47			0	36397	0	0	0	30568	29190	165813	27307	1060496	45087	111384	0	0	8004	600387	0	0
2024-07-19 17:17:47			0	36414	0	0	0	30532	29190	165749	27208	1060523	45065	111370	0	0	8006	599691	0	0
2024-07-19 17:18:47			0	36432	0	0	0	30514	29180	165645	26873	1060370	45063	111363	0	0	8007	598990	0	0
2024-07-19 17:19:47			0	36456	0	0	0	30475	29180	165537	27190	1060281	45063	111348	0	0	8009	598009	0	0
2024-07-19 17:20:47			0	36489	0	0	0	30475	29160	165465	27246	1060254	45050	111348	0	0	8011	596732	0	0
2024-07-19 17:21:47			0	36510	0	0	0	30485	29150	165253	26864	1060200	45072	111352	0	0	8012	595910	0	0
2024-07-19 17:22:47			0	36531	0	0	0	30550	29150	165281	27164	1060263	45072	111377	0	0	8012	595055	0	0
2024-07-19 17:23:47			0	36563	0	0	0	30571	29160	165289	27393	1060443	45083	111385	0	0	8014	593719	0	0
2024-07-19 17:24:47			0	36579	0	0	0	30584	29160	165157	27079	1060488	45094	111390	0	0	8015	593069	0	0
2024-07-19 17:25:47			0	36602	0	0	0	30581	29170	164974	27216	1060488	45085	111389	0	0	8016	592102	0	0
2024-07-19 17:26:47			0	36622	0	0	0	30576	29180	164750	27447	1060532	45085	111387	0	0	8017	591256	0	0
2024-07-19 17:27:47			0	36644	0	0	0	30592	29180	164646	27064	1060478	45085	111393	0	0	8019	590365	0	0
2024-07-19 17:28:47			0	36668	0	0	0	30571	29180	164710	27092	1060470	45085	111385	0	0	8020	589395	0	0
2024-07-19 17:29:47			0	36661	0	0	0	30574	29180	164670	27331	1060505	45085	111386	0	0	8020	589678	0	0
2024-07-19 17:30:47			0	36647	0	0	0	30589	29190	164702	27138	1060541	45097	111392	0	0	8019	590210	0	0
2024-07-19 17:31:47			0	36646	0	0	0	30592	29180	164802	27277	1060586	45085	111393	0	0	8019	590285	0	0
2024-07-19 17:32:47			0	36637	0	0	0	30602	29190	164826	27268	1060568	45097	111397	0	0	8018	590615	0	0
2024-07-19 17:33:47			0	36657	0	0	0	30628	29190	164638	27085	1060685	45087	111407	0	0	8019	589805	0	0
2024-07-19 17:34:47			0	36671	0	0	0	30633	29200	164586	27220	1060757	45087	111409	0	0	8020	589205	0	0
2024-07-19 17:35:47			0	36740	0	0	0	30628	29200	164410	27062	1060703	45110	111407	0	0	8024	586420	0	0
2024-07-19 17:36:47			0	36758	0	0	0	30641	29210	164258	26965	1060748	45100	111412	0	0	8025	585661	0	0
2024-07-19 17:37:47			0	36811	0	0	0	30628	29210	164086	27123	1060766	45088	111407	0	0	8028	583530	0	0
2024-07-19 17:38:47			0	36857	0	0	0	30602	29220	163858	27166	1060792	45090	111397	0	0	8031	581651	0	0
2024-07-19 17:39:47			0	36844	0	0	0	30574	29230	163938	27353	1060693	45090	111386	0	0	8031	582139	0	0
2024-07-19 17:40:47			0	36824	0	0	0	30553	29220	163958	27059	1060622	45078	111378	0	0	8030	582975	0	0
2024-07-19 17:41:47			0	36771	0	0	0	30532	29210	164090	27105	1060586	45078	111370	0	0	8027	585138	0	0
2024-07-19 17:42:47			0	36746	0	0	0	30568	29200	164210	26844	1060595	45076	111384	0	0	8025	586179	0	0
2024-07-19 17:43:47			0	36668	0	0	0	30584	29200	164594	26965	1060613	45087	111390	0	0	8020	589326	0	0
2024-07-19 17:44:47			0	36600	0	0	0	30527	29200	164862	26840	1060433	45042	111368	0	0	8017	592080	0	0
2024-07-19 17:45:47			0	36570	0	0	0	30514	29190	165013	27201	1060361	45065	111363	0	0	8016	593332	0	0
2024-07-19 17:46:47			0	36543	0	0	0	30537	29170	165189	26986	1060326	45074	111372	0	0	8013	594498	0	0
2024-07-19 17:47:47			0	36504	0	0	0	30550	29180	165365	27277	1060416	45074	111377	0	0	8011	596051	0	0
2024-07-19 17:48:47			0	36460	0	0	0	30545	29180	165525	27149	1060389	45074	111375	0	0	8008	597846	0	0
2024-07-19 17:49:47			0	36463	0	0	0	30540	29170	165593	27086	1060380	45074	111373	0	0	8009	597758	0	0
2024-07-19 17:50:47			0	36444	0	0	0	30550	29180	165613	26786	1060478	45096	111377	0	0	8007	598499	0	0
2024-07-19 17:51:47			0	36437	0	0	0	30586	29180	165749	27352	1060496	45108	111391	0	0	8006	598785	0	0
2024-07-19 17:52:47			0	36416	0	0	0	30599	29180	165725	27140	1060586	45108	111396	0	0	8005	599644	0	0
2024-07-19 17:53:47			0	36426	0	0	0	30589	29190	165753	27249	1060577	45087	111392	0	0	8006	599200	0	0
2024-07-19 17:54:47			0	36441	0	0	0	30563	29180	165673	27371	1060532	45096	111382	0	0	8007	598622	0	0
2024-07-19 17:55:47			0	36445	0	0	0	30537	29190	165649	27216	1060469	45087	111372	0	0	8008	598424	0	0
2024-07-19 17:56:47			0	36458	0	0	0	30527	29180	165529	27100	1060451	45074	111368	0	0	8009	597927	0	0
2024-07-19 17:57:47			0	36475	0	0	0	30540	29180	165541	27220	1060370	45074	111373	0	0	8009	597233	0	0
2024-07-19 17:58:47			0	36492	0	0	0	30558	29180	165417	27164	1060532	45096	111380	0	0	8010	596540	0	0
2024-07-19 17:59:47			0	36510	0	0	0	30579	29170	165413	27022	1060541	45085	111388	0	0	8011	595841	0	0
2024-07-19 18:00:47			0	36520	0	0	0	30581	29180	165309	27109	1060505	45085	111389	0	0	8011	595399	0	0
2024-07-19 18:01:47			0	36525	0	0	0	30579	29180	165289	27116	1060505	45085	111388	0	0	8012	595196	0	0
2024-07-19 18:02:47			0	36548	0	0	0	30581	29190	165237	27232	1060514	45075	111389	0	0	8013	594226	0	0
2024-07-19 18:03:47			0	36575	0	0	0	30594	29190	165149	27313	1060541	45097	111394	0	0	8014	593128	0	0
2024-07-19 18:04:47			0	36576	0	0	0	30605	29190	165109	27242	1060604	45098	111398	0	0	8014	593088	0	0
2024-07-19 18:05:47			0	36580	0	0	0	30615	29190	165065	27088	1060631	45121	111402	0	0	8014	592925	0	0
2024-07-19 18:06:47			0	36598	0	0	0	30646	29200	165042	27144	1060784	45110	111414	0	0	8015	592161	0	0
2024-07-19 18:07:47			0	36594	0	0	0	30672	29220	165166	27133	1060918	45112	111424	0	0	8014	592254	0	0
2024-07-19 18:08:47			0	36601	0	0	0	30690	29230	165014	27019	1060936	45124	111431	0	0	8015	591936	0	0
2024-07-19 18:09:47			0	36594	0	0	0	30688	29230	165022	27055	1060972	45091	111430	0	0	8014	592220	0	0
2024-07-19 18:10:47			0	36606	0	0	0	30683	29250	164970	27303	1061026	45115	111428	0	0	8015	591664	0	0
2024-07-19 18:11:47			0	36617	0	0	0	30646	29250	164838	26883	1061035	45093	111414	0	0	8016	591219	0	0
2024-07-19 18:12:47			0	36610	0	0	0	30625	29250	164854	27163	1060972	45092	111406	0	0	8016	591502	0	0
2024-07-19 18:13:47			0	36613	0	0	0	30612	29260	164858	27208	1060909	45093	111401	0	0	8017	591346	0	0
2024-07-19 18:14:47			0	36627	0	0	0	30589	29250	164814	27239	1060900	45071	111392	0	0	8018	590814	0	0
2024-07-19 18:15:47			0	36645	0	0	0	30594	29250	164706	27196	1060873	45082	111394	0	0	8019	590085	0	0
2024-07-19 18:16:47			0	36642	0	0	0	30589	29240	164666	27157	1060828	45115	111392	0	0	8019	590241	0	0
2024-07-19 18:17:47			0	36632	0	0	0	30581	29240	164630	27166	1060828	45081	111389	0	0	8018	590645	0	0
2024-07-19 18:18:47			0	36661	0	0	0	30592	29240	164574	27001	1060792	45091	111393	0	0	8020	589472	0	0
2024-07-19 18:19:47			0	36653	0	0	0	30636	29240	164586	26831	1060855	45092	111410	0	0	8019	589796	0	0
2024-07-19 18:20:47			0	36654	0	0	0	30662	29240	164690	27235	1060936	45081	111420	0	0	8018	589755	0	0
2024-07-19 18:21:47			0	36648	0	0	0	30675	29250	164794	27156	1061008	45093	111425	0	0	8018	589964	0	0
2024-07-19 18:22:47			0	36628	0	0	0	30688	29260	164706	27144	1061044	45093	111430	0	0	8016	590739	0	0
2024-07-19 18:23:47			0	36667	0	0	0	30690	29260	164590	27145	1061017	45082	111431	0	0	8019	589161	0	0
2024-07-19 18:24:47			0	36709	0	0	0	30711	29280	164406	27395	1061098	45095	111439	0	0	8021	587397	0	0
2024-07-19 18:25:47			0	36726	0	0	0	30724	29280	164414	27189	1061179	45106	111444	0	0	8022	586712	0	0
2024-07-19 18:26:47			0	36759	0	0	0	30748	29300	164242	27022	1061349	45119	111453	0	0	8023	585315	0	0
2024-07-19 18:27:47			0	36765	0	0	0	30750	29300	164242	27005	1061358	45109	111454	0	0	8024	585074	0	0
2024-07-19 18:28:47			0	36806	0	0	0	30742	29310	163986	26956	1061322	45121	111451	0	0	8026	583392	0	0
2024-07-19 18:29:47			0	36853	0	0	0	30735	29320	163846	27007	1061331	45121	111448	0	0	8029	581474	0	0
2024-07-19 18:30:47			0	36860	0	0	0	30724	29320	163806	27190	1061304	45110	111444	0	0	8030	581193	0	0
2024-07-19 18:31:47			0	36845	0	0	0	30693	29320	163698	27185	1061277	45098	111432	0	0	8029	581794	0	0
2024-07-19 18:32:47			0	36869	0	0	0	30672	29320	163678	27156	1061232	45088	111424	0	0	8031	580833	0	0
2024-07-19 18:33:47			0	36870	0	0	0	30688	29320	163642	27149	1061277	45098	111430	0	0	8031	580793	0	0
2024-07-19 18:34:47			0	36866	0	0	0	30711	29320	163590	27256	1061331	45110	111439	0	0	8030	580953	0	0
2024-07-19 18:35:47			0	36877	0	0	0	30742	29320	163614	27242	1061304	45110	111451	0	0	8030	580513	0	0
2024-07-19 18:36:47			0	36886	0	0	0	30750	29330	163578	27064	1061403	45111	111454	0	0	8031	580119	0	0
2024-07-19 18:37:47			0	36923	0	0	0	30768	29330	163506	26897	1061493	45123	111461	0	0	8033	578641	0	0
2024-07-19 18:38:47			0	36913	0	0	0	30753	29340	163346	27078	1061375	45101	111455	0	0	8032	579007	0	0
2024-07-19 18:39:47			0	36963	0	0	0	30735	29330	163222	26963	1061358	45089	111448	0	0	8036	577046	0	0
2024-07-19 18:40:47			0	37026	0	0	0	30727	29340	163078	27126	1061349	45113	111445	0	0	8039	574506	0	0
2024-07-19 18:41:47			0	37021	0	0	0	30709	29340	162918	27001	1061340	45101	111438	0	0	8039	574705	0	0
2024-07-19 18:42:47			0	37034	0	0	0	30698	29330	162898	27180	1061358	45112	111434	0	0	8040	574221	0	0
2024-07-19 18:43:47			0	37011	0	0	0	30698	29320	162950	26998	1061340	45111	111434	0	0	8039	575169	0	0
2024-07-19 18:44:47			0	36963	0	0	0	30688	29330	163270	27024	1061250	45112	111430	0	0	8036	577046	0	0
2024-07-19 18:45:47			0	36904	0	0	0	30683	29330	163366	27036	1061250	45089	111428	0	0	8033	579400	0	0
2024-07-19 18:46:47			0	36854	0	0	0	30690	29330	163550	26981	1061349	45111	111431	0	0	8030	581400	0	0
2024-07-19 18:47:47			0	36831	0	0	0	30706	29340	163798	27358	1061340	45113	111437	0	0	8028	582288	0	0
2024-07-19 18:48:47			0	36769	0	0	0	30703	29340	164054	26923	1061340	45101	111436	0	0	8025	584777	0	0
2024-07-19 18:49:47			0	36751	0	0	0	30698	29330	164098	27060	1061277	45100	111434	0	0	8024	585535	0	0
2024-07-19 18:50:47			0	36739	0	0	0	30696	29330	164094	26941	1061322	45111	111433	0	0	8023	586018	0	0
2024-07-19 18:51:47			0	36749	0	0	0	30716	29330	164062	27244	1061376	45111	111441	0	0	8023	585615	0	0
2024-07-19 18:52:47			0	36743	0	0	0	30742	29330	164098	27142	1061358	45100	111451	0	0	8023	585857	0	0
2024-07-19 18:53:47			0	36735	0	0	0	30742	29350	164126	26863	1061357	45101	111451	0	0	8022	586111	0	0
2024-07-19 18:54:47			0	36729	0	0	0	30742	29360	164142	27531	1061465	45103	111451	0	0	8022	586318	0	0
2024-07-19 18:55:47			0	36716	0	0	0	30740	29340	164278	27343	1061456	45113	111450	0	0	8021	586910	0	0
2024-07-19 18:56:47			0	36692	0	0	0	30732	29340	164274	27166	1061375	45101	111447	0	0	8020	587878	0	0
2024-07-19 18:57:47			0	36700	0	0	0	30745	29350	164294	27071	1061420	45091	111452	0	0	8020	587521	0	0
2024-07-19 18:58:47			0	36697	0	0	0	30711	29350	164422	27112	1061438	45101	111439	0	0	8020	587642	0	0
2024-07-19 18:59:47			0	36679	0	0	0	30675	29340	164314	27282	1061268	45101	111425	0	0	8020	588403	0	0
2024-07-19 19:00:47			0	36692	0	0	0	30683	29340	164350	27121	1061286	45080	111428	0	0	8021	587878	0	0
2024-07-19 19:01:47			0	36659	0	0	0	30683	29320	164354	27022	1061232	45099	111428	0	0	8019	589279	0	0
2024-07-19 19:02:47			0	36678	0	0	0	30685	29330	164366	27109	1061331	45100	111429	0	0	8020	588477	0	0
2024-07-19 19:03:47			0	36682	0	0	0	30649	29330	164446	27176	1061187	45088	111415	0	0	8021	588316	0	0
2024-07-19 19:04:47			0	36695	0	0	0	30628	29320	164330	27150	1061115	45087	111407	0	0	8022	587825	0	0
2024-07-19 19:05:47			0	36688	0	0	0	30636	29310	164450	26991	1061097	45086	111410	0	0	8021	588142	0	0
2024-07-19 19:06:47			0	36675	0	0	0	30657	29300	164438	27218	1061169	45086	111418	0	0	8020	588701	0	0
2024-07-19 19:07:47			0	36656	0	0	0	30657	29310	164642	27265	1061151	45120	111418	0	0	8019	589435	0	0
2024-07-19 19:08:47			0	36647	0	0	0	30657	29300	164498	27043	1061142	45097	111418	0	0	8018	589833	0	0
2024-07-19 19:09:47			0	36645	0	0	0	30633	29300	164510	26885	1061133	45096	111409	0	0	8018	589914	0	0
2024-07-19 19:10:47			0	36642	0	0	0	30638	29310	164574	26889	1061124	45109	111411	0	0	8018	590001	0	0
2024-07-19 19:11:47			0	36619	0	0	0	30646	29290	164758	27147	1061116	45096	111414	0	0	8017	591000	0	0
2024-07-19 19:12:47			0	36566	0	0	0	30667	29300	164873	27104	1061106	45096	111422	0	0	8013	593115	0	0
2024-07-19 19:13:47			0	36513	0	0	0	30646	29300	165109	26724	1061133	45108	111414	0	0	8010	595269	0	0
2024-07-19 19:14:47			0	36511	0	0	0	30670	29300	165209	27204	1061169	45086	111423	0	0	8010	595351	0	0
2024-07-19 19:15:47			0	36471	0	0	0	30677	29290	165401	26918	1061205	45119	111426	0	0	8007	597015	0	0
2024-07-19 19:16:47			0	36481	0	0	0	30664	29300	165505	27137	1061250	45109	111421	0	0	8008	596573	0	0
2024-07-19 19:17:47			0	36469	0	0	0	30696	29310	165413	26979	1061259	45109	111433	0	0	8007	597027	0	0
2024-07-19 19:18:47			0	36500	0	0	0	30732	29310	165397	26774	1061295	45110	111447	0	0	8008	595764	0	0
2024-07-19 19:19:47			0	36490	0	0	0	30696	29310	165237	27126	1061295	45121	111433	0	0	8008	596171	0	0
2024-07-19 19:20:47			0	36525	0	0	0	30696	29320	165089	26870	1061277	45098	111433	0	0	8010	594712	0	0
2024-07-19 19:21:47			0	36539	0	0	0	30703	29310	165053	26840	1061241	45110	111436	0	0	8011	594177	0	0
2024-07-19 19:22:47			0	36539	0	0	0	30706	29320	165013	26602	1061304	45098	111437	0	0	8011	594143	0	0
2024-07-19 19:23:47			0	36529	0	0	0	30701	29320	165177	27046	1061331	45098	111435	0	0	8011	594549	0	0
2024-07-19 19:24:47			0	36520	0	0	0	30675	29310	165241	26845	1061241	45110	111425	0	0	8010	594950	0	0
2024-07-19 19:25:47			0	36518	0	0	0	30646	29310	165233	27357	1061160	45098	111414	0	0	8011	595031	0	0
2024-07-19 19:26:47			0	36514	0	0	0	30620	29300	165245	26956	1061079	45075	111404	0	0	8011	595228	0	0
2024-07-19 19:27:47			0	36499	0	0	0	30597	29280	165357	27105	1060999	45084	111395	0	0	8010	595908	0	0
2024-07-19 19:28:47			0	36503	0	0	0	30592	29280	165337	27237	1060972	45096	111393	0	0	8011	595746	0	0
2024-07-19 19:29:47			0	36483	0	0	0	30550	29270	165441	27026	1060891	45072	111377	0	0	8010	596595	0	0
2024-07-19 19:30:47			0	36487	0	0	0	30490	29250	165449	27057	1060648	45058	111354	0	0	8011	596501	0	0
2024-07-19 19:31:47			0	36466	0	0	0	30464	29240	165437	26986	1060549	45046	111344	0	0	8010	597392	0	0
2024-07-19 19:32:47			0	36480	0	0	0	30425	29210	165377	26824	1060397	45056	111329	0	0	8012	596925	0	0
2024-07-19 19:33:47			0	36471	0	0	0	30420	29180	165401	26850	1060317	45041	111327	0	0	8011	597397	0	0
2024-07-19 19:34:47			0	36476	0	0	0	30410	29180	165385	27119	1060200	45052	111323	0	0	8012	597193	0	0
2024-07-19 19:35:47			0	36447	0	0	0	30389	29150	165529	26887	1060074	45038	111315	0	0	8010	598481	0	0
2024-07-19 19:36:47			0	36440	0	0	0	30368	29150	165577	26894	1060074	45060	111307	0	0	8010	598767	0	0
2024-07-19 19:37:47			0	36424	0	0	0	30345	29130	165753	26916	1059895	45047	111298	0	0	8009	599491	0	0
2024-07-19 19:38:47			0	36418	0	0	0	30314	29100	165689	27005	1059769	45034	111286	0	0	8009	599841	0	0
2024-07-19 19:39:47			0	36416	0	0	0	30298	29080	165769	27104	1059617	45031	111280	0	0	8010	599992	0	0
2024-07-19 19:40:47			0	36418	0	0	0	30275	29050	165761	27105	1059491	45028	111271	0	0	8010	600015	0	0
2024-07-19 19:41:47			0	36410	0	0	0	30262	29040	165749	27000	1059420	45028	111266	0	0	8010	600377	0	0
2024-07-19 19:42:47			0	36419	0	0	0	30236	29020	165757	27182	1059375	45036	111256	0	0	8010	600078	0	0
2024-07-19 19:43:47			0	36389	0	0	0	30244	29010	165881	27086	1059330	45023	111259	0	0	8008	601342	0	0
2024-07-19 19:44:47			0	36385	0	0	0	30244	29000	165937	27098	1059366	45068	111259	0	0	8008	601542	0	0
2024-07-19 19:45:47			0	36386	0	0	0	30238	28980	166029	26989	1059232	45043	111257	0	0	8008	601570	0	0
2024-07-19 19:46:47			0	36390	0	0	0	30257	28970	166029	26961	1059259	45064	111264	0	0	8008	601441	0	0
2024-07-19 19:47:47			0	36374	0	0	0	30267	28970	166061	27223	1059259	45052	111268	0	0	8007	602098	0	0
2024-07-19 19:48:47			0	36388	0	0	0	30262	28960	166085	27100	1059169	45052	111266	0	0	8008	601558	0	0
2024-07-19 19:49:47			0	36384	0	0	0	30236	28940	166029	27246	1059106	45039	111256	0	0	8008	601792	0	0
2024-07-19 19:50:47			0	36389	0	0	0	30223	28930	166089	27168	1059035	45049	111251	0	0	8008	601622	0	0
2024-07-19 19:51:47			0	36381	0	0	0	30202	28920	166073	26963	1059017	45026	111243	0	0	8008	601985	0	0
2024-07-19 19:52:47			0	36380	0	0	0	30189	28900	166029	26998	1058882	45046	111238	0	0	8008	602096	0	0
2024-07-19 19:53:47			0	36400	0	0	0	30184	28890	166141	26942	1058801	45035	111236	0	0	8010	601310	0	0
2024-07-19 19:54:47			0	36394	0	0	0	30174	28890	166049	26968	1058801	45046	111232	0	0	8009	601556	0	0
2024-07-19 19:55:47			0	36392	0	0	0	30176	28870	166097	26927	1058748	45044	111233	0	0	8009	601708	0	0
2024-07-19 19:56:47			0	36400	0	0	0	30181	28860	166105	26873	1058703	45032	111235	0	0	8009	601414	0	0
2024-07-19 19:57:47			0	36390	0	0	0	30176	28840	166117	27130	1058667	45041	111233	0	0	8009	601895	0	0
2024-07-19 19:58:47			0	36396	0	0	0	30168	28850	166025	26963	1058676	45052	111230	0	0	8009	601613	0	0
2024-07-19 19:59:47			0	36407	0	0	0	30163	28830	165993	27164	1058649	45040	111228	0	0	8010	601232	0	0
2024-07-19 20:00:47			0	36423	0	0	0	30163	28830	165997	26989	1058568	45028	111228	0	0	8011	600576	0	0
2024-07-19 20:01:47			0	36411	0	0	0	30163	28830	165993	27152	1058533	45050	111228	0	0	8010	601068	0	0
2024-07-19 20:02:47			0	36417	0	0	0	30163	28820	165989	26795	1058578	45062	111228	0	0	8011	600857	0	0
2024-07-19 20:03:47			0	36425	0	0	0	30176	28810	165905	26934	1058533	45060	111233	0	0	8011	600564	0	0
2024-07-19 20:04:47			0	36421	0	0	0	30161	28810	165897	27133	1058551	45060	111227	0	0	8011	600727	0	0
2024-07-19 20:05:47			0	36444	0	0	0	30163	28810	165877	27138	1058470	45048	111228	0	0	8012	599785	0	0
2024-07-19 20:06:47			0	36449	0	0	0	30158	28800	165901	27102	1058488	45047	111226	0	0	8012	599615	0	0
2024-07-19 20:07:47			0	36439	0	0	0	30166	28800	165801	26788	1058488	45070	111229	0	0	8012	600025	0	0
2024-07-19 20:08:47			0	36450	0	0	0	30179	28810	165849	27012	1058614	45071	111234	0	0	8012	599540	0	0
2024-07-19 20:09:47			0	36467	0	0	0	30176	28810	165797	27177	1058578	45060	111233	0	0	8013	598844	0	0
2024-07-19 20:10:47			0	36470	0	0	0	30174	28810	165757	26793	1058506	45071	111232	0	0	8013	598721	0	0
2024-07-19 20:11:47			0	36468	0	0	0	30171	28810	165761	27105	1058578	45060	111231	0	0	8013	598803	0	0
2024-07-19 20:12:47			0	36482	0	0	0	30171	28800	165693	27126	1058542	45047	111231	0	0	8014	598265	0	0
2024-07-19 20:13:47			0	36483	0	0	0	30171	28810	165577	26975	1058524	45060	111231	0	0	8014	598190	0	0
2024-07-19 20:14:47			0	36492	0	0	0	30161	28800	165605	27260	1058542	45070	111227	0	0	8015	597857	0	0
2024-07-19 20:15:47			0	36500	0	0	0	30179	28810	165705	27154	1058632	45060	111234	0	0	8015	597495	0	0
2024-07-19 20:16:47			0	36516	0	0	0	30192	28820	165657	27062	1058623	45072	111239	0	0	8016	596807	0	0
2024-07-19 20:17:47			0	36503	0	0	0	30231	28810	165609	27086	1058775	45071	111254	0	0	8014	597373	0	0
2024-07-19 20:18:47			0	36513	0	0	0	30238	28830	165557	26928	1058802	45073	111257	0	0	8015	596895	0	0
2024-07-19 20:19:47			0	36528	0	0	0	30259	28840	165441	27052	1058883	45085	111265	0	0	8016	596249	0	0
2024-07-19 20:20:47			0	36522	0	0	0	30285	28840	165553	27088	1058910	45097	111275	0	0	8015	596493	0	0
2024-07-19 20:21:47			0	36525	0	0	0	30298	28850	165437	26927	1058901	45085	111280	0	0	8015	596336	0	0
2024-07-19 20:22:47			0	36527	0	0	0	30309	28860	165521	26757	1058999	45099	111284	0	0	8015	596220	0	0
2024-07-19 20:23:47			0	36540	0	0	0	30290	28870	165441	26963	1058954	45065	111277	0	0	8016	595656	0	0
2024-07-19 20:24:47			0	36558	0	0	0	30272	28870	165333	26918	1058954	45077	111270	0	0	8017	594923	0	0
2024-07-19 20:25:47			0	36585	0	0	0	30238	28870	165237	27024	1058900	45054	111257	0	0	8019	593824	0	0
2024-07-19 20:26:47			0	36599	0	0	0	30236	28860	165110	26928	1058882	45042	111256	0	0	8020	593289	0	0
2024-07-19 20:27:47			0	36603	0	0	0	30223	28860	165166	26738	1058855	45053	111251	0	0	8021	593127	0	0
2024-07-19 20:28:47			0	36601	0	0	0	30223	28860	165094	27060	1058810	45077	111251	0	0	8021	593208	0	0
2024-07-19 20:29:47			0	36595	0	0	0	30228	28860	165102	26984	1058829	45064	111253	0	0	8020	593452	0	0
2024-07-19 20:30:47			0	36616	0	0	0	30228	28860	165190	26656	1058855	45064	111253	0	0	8021	592599	0	0
2024-07-19 20:31:47			0	36615	0	0	0	30233	28850	165198	26478	1058874	45064	111255	0	0	8021	592674	0	0
2024-07-19 20:32:47			0	36607	0	0	0	30220	28850	165238	26786	1058793	45064	111250	0	0	8021	592999	0	0
2024-07-19 20:33:47			0	36600	0	0	0	30202	28840	165106	26922	1058721	45041	111243	0	0	8021	593318	0	0
2024-07-19 20:34:47			0	36598	0	0	0	30199	28840	165113	27102	1058640	45052	111242	0	0	8021	593399	0	0
2024-07-19 20:35:47			0	36615	0	0	0	30181	28830	165070	27038	1058649	45050	111235	0	0	8022	592742	0	0
2024-07-19 20:36:47			0	36609	0	0	0	30176	28830	165030	26915	1058613	45050	111233	0	0	8022	592986	0	0
2024-07-19 20:37:47			0	36630	0	0	0	30176	28840	165178	27036	1058631	45041	111233	0	0	8023	592099	0	0
2024-07-19 20:38:47			0	36599	0	0	0	30181	28830	165138	26856	1058613	45062	111235	0	0	8021	593393	0	0
2024-07-19 20:39:47			0	36613	0	0	0	30179	28820	165222	26804	1058605	45062	111234	0	0	8022	592858	0	0
2024-07-19 20:40:47			0	36608	0	0	0	30176	28820	165086	26788	1058631	45062	111233	0	0	8022	593061	0	0
2024-07-19 20:41:47			0	36601	0	0	0	30168	28810	165194	27154	1058551	45060	111230	0	0	8021	593380	0	0
2024-07-19 20:42:47			0	36596	0	0	0	30174	28820	165206	26986	1058569	45049	111232	0	0	8021	593549	0	0
2024-07-19 20:43:47			0	36604	0	0	0	30168	28810	165314	27199	1058578	45048	111230	0	0	8022	593258	0	0
2024-07-19 20:44:47			0	36592	0	0	0	30174	28810	165253	27046	1058578	45048	111232	0	0	8021	593746	0	0
2024-07-19 20:45:47			0	36585	0	0	0	30174	28810	165214	26920	1058560	45060	111232	0	0	8020	594031	0	0
2024-07-19 20:46:47			0	36583	0	0	0	30168	28800	165233	27078	1058542	45059	111230	0	0	8020	594146	0	0
2024-07-19 20:47:47			0	36588	0	0	0	30163	28810	165225	27173	1058497	45048	111228	0	0	8021	593909	0	0
2024-07-19 20:48:47			0	36602	0	0	0	30161	28800	165386	27124	1058461	45047	111227	0	0	8021	593374	0	0
2024-07-19 20:49:47			0	36598	0	0	0	30153	28790	165222	26809	1058443	45046	111224	0	0	8021	593571	0	0
2024-07-19 20:50:47			0	36577	0	0	0	30153	28800	165289	27109	1058452	45059	111224	0	0	8020	594391	0	0
2024-07-19 20:51:47			0	36593	0	0	0	30145	28780	165270	27093	1058426	45057	111221	0	0	8021	593809	0	0
2024-07-19 20:52:47			0	36588	0	0	0	30140	28790	165173	26890	1058443	45046	111219	0	0	8021	593977	0	0
2024-07-19 20:53:47			0	36588	0	0	0	30137	28790	165313	26975	1058434	45046	111218	0	0	8021	593977	0	0
2024-07-19 20:54:47			0	36586	0	0	0	30140	28780	165181	26941	1058372	45057	111219	0	0	8021	594093	0	0
2024-07-19 20:55:47			0	36594	0	0	0	30127	28780	165158	27027	1058399	45045	111214	0	0	8021	593768	0	0
2024-07-19 20:56:47			0	36592	0	0	0	30122	28770	165158	26897	1058300	45044	111212	0	0	8021	593884	0	0
2024-07-19 20:57:47			0	36602	0	0	0	30101	28770	165118	27140	1058246	45044	111204	0	0	8022	593477	0	0
2024-07-19 20:58:47			0	36604	0	0	0	30090	28760	165194	26965	1058228	45043	111200	0	0	8023	593430	0	0
2024-07-19 20:59:47			0	36602	0	0	0	30080	28750	165202	27078	1058264	45065	111196	0	0	8023	593546	0	0
2024-07-19 21:00:47			0	36596	0	0	0	30083	28750	165201	27026	1058210	45042	111197	0	0	8022	593790	0	0
2024-07-19 21:01:47			0	36621	0	0	0	30064	28730	165350	26941	1058094	45041	111190	0	0	8024	592842	0	0
2024-07-19 21:02:47			0	36607	0	0	0	30051	28740	165218	26731	1058076	45041	111185	0	0	8023	593377	0	0
2024-07-19 21:03:47			0	36627	0	0	0	30049	28720	165182	26928	1058022	45041	111184	0	0	8024	592633	0	0
2024-07-19 21:04:47			0	36634	0	0	0	30062	28720	165182	27144	1058103	45041	111189	0	0	8025	592349	0	0
2024-07-19 21:05:47			0	36630	0	0	0	30062	28720	165146	26949	1058040	45050	111189	0	0	8024	592511	0	0
2024-07-19 21:06:47			0	36634	0	0	0	30062	28720	165010	26946	1058040	45050	111189	0	0	8025	592349	0	0
2024-07-19 21:07:47			0	36646	0	0	0	30041	28710	165138	27057	1058031	45050	111181	0	0	8026	591896	0	0
2024-07-19 21:08:47			0	36658	0	0	0	30020	28700	164954	27064	1057897	45026	111173	0	0	8027	591443	0	0
2024-07-19 21:09:47			0	36725	0	0	0	30007	28690	164798	27086	1057879	45037	111168	0	0	8031	588764	0	0
2024-07-19 21:10:47			0	36758	0	0	0	29997	28680	164586	27253	1057897	45037	111164	0	0	8033	587464	0	0
2024-07-19 21:11:47			0	36803	0	0	0	29948	28670	164314	26915	1057690	45023	111145	0	0	8036	585683	0	0
2024-07-19 21:12:47			0	36792	0	0	0	29916	28660	164382	27085	1057628	45023	111133	0	0	8036	586160	0	0
2024-07-19 21:13:47			0	36741	0	0	0	29896	28650	164554	26987	1057574	45010	111125	0	0	8033	588253	0	0
2024-07-19 21:14:47			0	36652	0	0	0	29815	28640	164930	27157	1057313	45009	111094	0	0	8029	591892	0	0
2024-07-19 21:15:47			0	36539	0	0	0	29703	28620	165497	27131	1057089	44974	111051	0	0	8025	596560	0	0
2024-07-19 21:16:47			0	36376	0	0	0	29548	28560	166133	27164	1056336	44912	110991	0	0	8017	603447	0	0
2024-07-19 21:17:47			0	36246	0	0	0	29425	28490	166757	26823	1056085	44882	110944	0	0	8011	609059	0	0
2024-07-19 21:18:47			0	36157	0	0	0	29399	28450	167297	26734	1056041	44946	110934	0	0	8006	612894	0	0
2024-07-19 21:19:47			0	36063	0	0	0	29389	28420	167649	27353	1056006	44932	110930	0	0	8001	616920	0	0
2024-07-19 21:20:47			0	35999	0	0	0	29407	28380	168057	27062	1055917	44951	110937	0	0	7996	619742	0	0
2024-07-19 21:21:47			0	35936	0	0	0	29706	28370	168537	27008	1056007	44994	111052	0	0	7987	622423	0	0
2024-07-19 21:22:47			0	35913	0	0	0	29412	28340	168621	26870	1055504	44935	110939	0	0	7991	623499	0	0
2024-07-19 21:23:47			0	35909	0	0	0	28958	28270	168453	27206	1054455	44805	110764	0	0	7998	623920	0	0
2024-07-19 21:24:47			0	35869	0	0	0	29018	28170	168665	27062	1054197	44829	110787	0	0	7994	625969	0	0
2024-07-19 21:25:47			0	35839	0	0	0	29070	28120	168964	26996	1054242	44879	110807	0	0	7991	627418	0	0
2024-07-19 21:26:47			0	35821	0	0	0	29163	28080	169244	26854	1054351	44921	110843	0	0	7988	628325	0	0
2024-07-19 21:27:47			0	35791	0	0	0	29301	28080	169416	27036	1054593	44965	110896	0	0	7984	629597	0	0
2024-07-19 21:28:47			0	35768	0	0	0	29379	28100	169540	27076	1054727	45001	110926	0	0	7981	630501	0	0
2024-07-19 21:29:47			0	35779	0	0	0	29296	28090	169524	26960	1054718	44966	110894	0	0	7983	630070	0	0
2024-07-19 21:30:47			0	35795	0	0	0	29602	28110	169588	27076	1055059	45012	111012	0	0	7979	629318	0	0
2024-07-19 21:31:47			0	35828	0	0	0	29493	28110	169504	26743	1055005	44990	110970	0	0	7983	627920	0	0
2024-07-19 21:32:47			0	35789	0	0	0	29483	28130	169556	26902	1055149	45014	110966	0	0	7981	629500	0	0
2024-07-19 21:33:47			0	35739	0	0	0	29553	28130	169916	27300	1055176	45025	110993	0	0	7977	631624	0	0
2024-07-19 21:34:47			0	35738	0	0	0	29361	28140	169736	27196	1055059	44993	110919	0	0	7980	631630	0	0
2024-07-19 21:35:47			0	35717	0	0	0	29212	28130	169684	26935	1054906	44969	110862	0	0	7981	632560	0	0
2024-07-19 21:36:47			0	35705	0	0	0	29171	28110	169828	26934	1054575	44934	110846	0	0	7981	633144	0	0
2024-07-19 21:37:47			0	35685	0	0	0	29088	28060	169904	27194	1054208	44919	110814	0	0	7981	634179	0	0
2024-07-19 21:38:47			0	35682	0	0	0	29051	28030	169904	26927	1054011	44893	110800	0	0	7981	634417	0	0
2024-07-19 21:39:47			0	35663	0	0	0	29057	27990	169936	27076	1053886	44901	110802	0	0	7980	635374	0	0
2024-07-19 21:40:47			0	35663	0	0	0	29179	27970	170232	27053	1054066	44955	110849	0	0	7977	635448	0	0
2024-07-19 21:41:47			0	35670	0	0	0	29163	27960	170164	26840	1054057	44964	110843	0	0	7978	635185	0	0
2024-07-19 21:42:47			0	35688	0	0	0	29012	27940	170148	26847	1053716	44928	110785	0	0	7982	634490	0	0
2024-07-19 21:43:47			0	35683	0	0	0	28914	27920	170124	27111	1053501	44883	110747	0	0	7983	634777	0	0
2024-07-19 21:44:47			0	35655	0	0	0	28841	27880	170164	26845	1053215	44879	110719	0	0	7982	636119	0	0
2024-07-19 21:45:47			0	35647	0	0	0	28779	27830	170276	27003	1052857	44851	110695	0	0	7983	636645	0	0
2024-07-19 21:46:47			0	35649	0	0	0	28696	27770	170224	27242	1052436	44823	110663	0	0	7984	636780	0	0
2024-07-19 21:47:47			0	35644	0	0	0	28638	27720	170272	27331	1052151	44795	110641	0	0	7984	637177	0	0
2024-07-19 21:48:47			0	35638	0	0	0	28750	27680	170592	26894	1052322	44880	110684	0	0	7982	637581	0	0
2024-07-19 21:49:47			0	35633	0	0	0	28823	27680	170452	27156	1052483	44914	110712	0	0	7980	637795	0	0
2024-07-19 21:50:47			0	35637	0	0	0	28924	27680	170540	26955	1052753	44958	110751	0	0	7979	637624	0	0
2024-07-19 21:51:47			0	35636	0	0	0	28950	27690	170504	27092	1052725	44949	110761	0	0	7978	637630	0	0
2024-07-19 21:52:47			0	35652	0	0	0	28883	27690	170512	27008	1052671	44904	110735	0	0	7980	636945	0	0
2024-07-19 21:53:47			0	35637	0	0	0	28950	27690	170592	26852	1052752	44937	110761	0	0	7978	637587	0	0
2024-07-19 21:54:47			0	35627	0	0	0	28958	27700	170640	26661	1052761	44938	110764	0	0	7978	637979	0	0
2024-07-19 21:55:47			0	35627	0	0	0	28950	27690	170616	27041	1052725	44937	110761	0	0	7978	638015	0	0
2024-07-19 21:56:47			0	35629	0	0	0	29020	27690	170672	27166	1052779	44926	110788	0	0	7977	637930	0	0
2024-07-19 21:57:47			0	35632	0	0	0	29135	27700	170784	27114	1053066	44984	110832	0	0	7975	637764	0	0
2024-07-19 21:58:47			0	35620	0	0	0	29163	27730	170624	27121	1053307	44987	110843	0	0	7974	638169	0	0
2024-07-19 21:59:47			0	35637	0	0	0	29145	27760	170716	27104	1053298	44977	110836	0	0	7975	637330	0	0
2024-07-19 22:00:47			0	35632	0	0	0	29254	27780	170752	27237	1053602	45001	110878	0	0	7973	637471	0	0
2024-07-19 22:01:47			0	35637	0	0	0	29246	27810	170728	27024	1053728	45004	110875	0	0	7974	637146	0	0
2024-07-19 22:02:47			0	35616	0	0	0	29431	27840	170796	27059	1054140	45030	110946	0	0	7970	637936	0	0
2024-07-19 22:03:47			0	35562	0	0	0	29542	27880	170864	27357	1054453	45046	110989	0	0	7965	640105	0	0
2024-07-19 22:04:47			0	35539	0	0	0	29612	27940	171268	26982	1054829	45074	111016	0	0	7962	640871	0	0
2024-07-19 22:05:47			0	35481	0	0	0	29703	27990	171360	27055	1055070	45089	111051	0	0	7958	643183	0	0
2024-07-19 22:06:47			0	35468	0	0	0	29732	28040	171452	26909	1055321	45072	111062	0	0	7956	643557	0	0
2024-07-19 22:07:47			0	35452	0	0	0	29706	28070	171448	26660	1055356	45042	111052	0	0	7956	644136	0	0
2024-07-19 22:08:47			0	35460	0	0	0	29662	28110	171344	26915	1055409	45045	111035	0	0	7958	643642	0	0
2024-07-19 22:09:47			0	35426	0	0	0	29638	28130	171324	27031	1055445	45037	111026	0	0	7956	645035	0	0
2024-07-19 22:10:47			0	35449	0	0	0	29644	28140	171352	27050	1055498	45016	111028	0	0	7957	644005	0	0
2024-07-19 22:11:47			0	35464	0	0	0	29667	28170	171220	27074	1055651	45018	111037	0	0	7958	643247	0	0
2024-07-19 22:12:47			0	35477	0	0	0	29696	28180	171032	27024	1055696	45031	111048	0	0	7958	642650	0	0
2024-07-19 22:13:47			0	35506	0	0	0	29703	28190	170776	26871	1055776	45032	111051	0	0	7960	641365	0	0
2024-07-19 22:14:47			0	35563	0	0	0	29711	28230	170508	27081	1055973	45036	111054	0	0	7964	638771	0	0
2024-07-19 22:15:47			0	35602	0	0	0	29748	28260	170444	26788	1056107	45049	111068	0	0	7966	636990	0	0
2024-07-19 22:16:47			0	35655	0	0	0	29750	28270	170296	27133	1056107	45050	111069	0	0	7969	634689	0	0
2024-07-19 22:17:47			0	35660	0	0	0	29703	28280	169988	26918	1056071	45019	111051	0	0	7970	634440	0	0
2024-07-19 22:18:47			0	35669	0	0	0	29638	28290	169968	27142	1055981	44998	111026	0	0	7972	634019	0	0
2024-07-19 22:19:47			0	35681	0	0	0	29615	28300	169892	26890	1055936	44987	111017	0	0	7973	633471	0	0
2024-07-19 22:20:47			0	35679	0	0	0	29612	28280	169896	27015	1055874	44985	111016	0	0	7973	633630	0	0
2024-07-19 22:21:47			0	35685	0	0	0	29625	28280	169852	26949	1055901	44985	111021	0	0	7973	633374	0	0
2024-07-19 22:22:47			0	35692	0	0	0	29620	28280	169804	27133	1055937	44986	111019	0	0	7973	633076	0	0
2024-07-19 22:23:47			0	35707	0	0	0	29638	28290	169740	26887	1055972	45007	111026	0	0	7974	632401	0	0
2024-07-19 22:24:47			0	35706	0	0	0	29644	28290	169808	27012	1055999	45007	111028	0	0	7974	632443	0	0
2024-07-19 22:25:47			0	35695	0	0	0	29659	28310	169868	27060	1056089	45022	111034	0	0	7973	632838	0	0
2024-07-19 22:26:47			0	35698	0	0	0	29657	28310	169824	26968	1056071	45000	111033	0	0	7973	632711	0	0
2024-07-19 22:27:47			0	35711	0	0	0	29649	28320	169764	27085	1056053	45000	111030	0	0	7974	632121	0	0
2024-07-19 22:28:47			0	35709	0	0	0	29625	28320	169832	26871	1055999	44989	111021	0	0	7975	632206	0	0
2024-07-19 22:29:47			0	35699	0	0	0	29589	28310	169780	26915	1055900	44977	111007	0	0	7974	632668	0	0
2024-07-19 22:30:47			0	35722	0	0	0	29555	28300	169604	27074	1055837	44976	110994	0	0	7976	631726	0	0
2024-07-19 22:31:47			0	35734	0	0	0	29522	28280	169536	26759	1055640	44952	110981	0	0	7978	631289	0	0
2024-07-19 22:32:47			0	35759	0	0	0	29462	28250	169440	27156	1055398	44926	110958	0	0	7980	630337	0	0
2024-07-19 22:33:47			0	35772	0	0	0	29371	28240	169368	26830	1055183	44925	110923	0	0	7982	629822	0	0
2024-07-19 22:34:47			0	35779	0	0	0	29327	28210	169472	26961	1054995	44911	110906	0	0	7983	629634	0	0
2024-07-19 22:35:47			0	35765	0	0	0	29316	28180	169416	26850	1054942	44953	110902	0	0	7982	630337	0	0
2024-07-19 22:36:47			0	35753	0	0	0	29384	28180	169560	26595	1055103	44964	110928	0	0	7981	630847	0	0
2024-07-19 22:37:47			0	35718	0	0	0	29415	28170	169756	26908	1055193	44951	110940	0	0	7978	632371	0	0
2024-07-19 22:38:47			0	35734	0	0	0	29316	28160	169748	26864	1055014	44939	110902	0	0	7980	631727	0	0
2024-07-19 22:39:47			0	35727	0	0	0	29093	28130	169688	26949	1054538	44904	110816	0	0	7984	632134	0	0
2024-07-19 22:40:47			0	35690	0	0	0	28867	28100	169780	26876	1054081	44868	110729	0	0	7985	633819	0	0
2024-07-19 22:41:47			0	35681	0	0	0	28729	28030	169760	26953	1053526	44804	110676	0	0	7987	634459	0	0
2024-07-19 22:42:47			0	35652	0	0	0	28594	27950	170012	26719	1052846	44763	110624	0	0	7987	635991	0	0
2024-07-19 22:43:47			0	35641	0	0	0	28475	27850	170120	26679	1052157	44718	110578	0	0	7988	636828	0	0
2024-07-19 22:44:47			0	35608	0	0	0	28410	27750	170328	27159	1051773	44710	110553	0	0	7986	638609	0	0
2024-07-19 22:45:47			0	35600	0	0	0	28415	27670	170476	27005	1051605	44757	110555	0	0	7985	639247	0	0
2024-07-19 22:46:47			0	35587	0	0	0	28472	27620	170536	26677	1051874	44831	110577	0	0	7983	639989	0	0
2024-07-19 22:47:47			0	35578	0	0	0	28820	27640	170848	26922	1052502	44932	110711	0	0	7977	640303	0	0
2024-07-19 22:48:47			0	35628	0	0	0	28984	27680	170716	26731	1052806	44981	110774	0	0	7977	638009	0	0
2024-07-19 22:49:47			0	35706	0	0	0	28914	27670	170300	26719	1052502	44913	110747	0	0	7983	634709	0	0
2024-07-19 22:50:47			0	35741	0	0	0	28742	27650	170060	26790	1052053	44856	110681	0	0	7988	633288	0	0
2024-07-19 22:51:47			0	35719	0	0	0	28706	27610	170132	27064	1052126	44863	110667	0	0	7987	634373	0	0
2024-07-19 22:52:47			0	35674	0	0	0	28864	27620	170548	26837	1052574	44942	110728	0	0	7982	636260	0	0
2024-07-19 22:53:47			0	35635	0	0	0	28935	27660	170704	27105	1052699	44958	110755	0	0	7978	637783	0	0
2024-07-19 22:54:47			0	35637	0	0	0	28805	27650	170496	26904	1052385	44900	110705	0	0	7981	637734	0	0
2024-07-19 22:55:47			0	35654	0	0	0	28633	27620	170712	27144	1051892	44841	110639	0	0	7984	637116	0	0
2024-07-19 22:56:47			0	35574	0	0	0	28724	27580	170948	26807	1052099	44860	110674	0	0	7978	640695	0	0
2024-07-19 22:57:47			0	35461	0	0	0	29173	27610	171708	26819	1052870	44996	110847	0	0	7963	645457	0	0
2024-07-19 22:58:47			0	35403	0	0	0	29158	27650	171952	26998	1052789	44966	110841	0	0	7960	647818	0	0
2024-07-19 22:59:47			0	35411	0	0	0	28864	27630	171824	26802	1052080	44854	110728	0	0	7966	647546	0	0
2024-07-19 23:00:47			0	35390	0	0	0	28615	27570	171704	26942	1051517	44803	110632	0	0	7968	648681	0	0
2024-07-19 23:01:47			0	35407	0	0	0	28703	27530	171860	26946	1051733	44854	110666	0	0	7968	648092	0	0
2024-07-19 23:02:47			0	35312	0	0	0	29083	27560	172368	26948	1052539	44991	110812	0	0	7955	652109	0	0
2024-07-19 23:03:47			0	35261	0	0	0	28945	27580	172544	26944	1052090	44925	110759	0	0	7955	654258	0	0
2024-07-19 23:04:47			0	35247	0	0	0	28649	27530	172504	27107	1051338	44789	110645	0	0	7959	655058	0	0
2024-07-19 23:05:47			0	35278	0	0	0	28431	27460	172424	27064	1050820	44748	110561	0	0	7964	653968	0	0
2024-07-19 23:06:47			0	35282	0	0	0	28483	27420	172512	27130	1051170	44833	110581	0	0	7963	653943	0	0
2024-07-19 23:07:47			0	35216	0	0	0	28732	27440	172968	27147	1051797	44958	110677	0	0	7955	656754	0	0
2024-07-19 23:08:47			0	35187	0	0	0	28802	27470	173128	27048	1051743	44926	110704	0	0	7952	657912	0	0
2024-07-19 23:09:47			0	35188	0	0	0	28677	27470	173048	26960	1051474	44882	110656	0	0	7954	657868	0	0
2024-07-19 23:10:47			0	35169	0	0	0	28662	27460	173100	26944	1051465	44881	110650	0	0	7953	658739	0	0
2024-07-19 23:11:47			0	35164	0	0	0	28628	27440	173168	27003	1051349	44868	110637	0	0	7953	659034	0	0
2024-07-19 23:12:47			0	35148	0	0	0	28618	27430	173204	26824	1051331	44868	110633	0	0	7952	659775	0	0
2024-07-19 23:13:47			0	35135	0	0	0	28771	27450	173524	27045	1051923	44947	110692	0	0	7949	660271	0	0
2024-07-19 23:14:47			0	35088	0	0	0	28906	27500	173627	27102	1052370	44997	110744	0	0	7944	662150	0	0
2024-07-19 23:15:47			0	34996	0	0	0	29161	27560	174291	26847	1052871	45025	110842	0	0	7934	665983	0	0
2024-07-19 23:16:47			0	34917	0	0	0	29238	27620	174703	26880	1053184	45019	110872	0	0	7928	669254	0	0
2024-07-19 23:17:47			0	34826	0	0	0	29425	27670	174995	26890	1053632	45036	110944	0	0	7920	673111	0	0
2024-07-19 23:18:47			0	34788	0	0	0	29480	27740	175131	27007	1053962	45042	110965	0	0	7917	674535	0	0
2024-07-19 23:19:47			0	34735	0	0	0	29581	27800	175383	27358	1054338	45060	111004	0	0	7912	676672	0	0
2024-07-19 23:20:47			0	34746	0	0	0	29581	27860	175295	27258	1054516	45065	111004	0	0	7913	675946	0	0
2024-07-19 23:21:47			0	34726	0	0	0	29620	27900	175203	27100	1054587	45047	111019	0	0	7911	676684	0	0
2024-07-19 23:22:47			0	34800	0	0	0	29290	27930	174779	27003	1054372	44984	110892	0	0	7922	673262	0	0
2024-07-19 23:23:47			0	34935	0	0	0	29392	27920	174099	27445	1054255	44960	110931	0	0	7928	667301	0	0
2024-07-19 23:24:47			0	34971	0	0	0	29618	27940	174015	27046	1054712	45017	111018	0	0	7927	665631	0	0
2024-07-19 23:25:47			0	35052	0	0	0	29719	27980	173627	27326	1055061	45055	111057	0	0	7931	661905	0	0
2024-07-19 23:26:47			0	35113	0	0	0	29807	28040	173300	27277	1055456	45072	111091	0	0	7933	658996	0	0
2024-07-19 23:27:47			0	35189	0	0	0	29825	28090	172924	27222	1055679	45066	111098	0	0	7938	655479	0	0
2024-07-19 23:28:47			0	35233	0	0	0	29812	28130	172596	27053	1055831	45059	111093	0	0	7941	653407	0	0
2024-07-19 23:29:47			0	35245	0	0	0	29862	28170	172504	26726	1055920	45062	111112	0	0	7941	652734	0	0
2024-07-19 23:30:47			0	35282	0	0	0	29794	28200	172248	27007	1056036	45055	111086	0	0	7945	651011	0	0
2024-07-19 23:31:47			0	35327	0	0	0	29410	28200	171916	27092	1055390	44955	110938	0	0	7954	649057	0	0
2024-07-19 23:32:47			0	35382	0	0	0	29412	28180	171540	27157	1055184	44930	110939	0	0	7957	646750	0	0
2024-07-19 23:33:47			0	35421	0	0	0	29568	28180	171452	26786	1055507	44998	110999	0	0	7957	645064	0	0
2024-07-19 23:34:47			0	35449	0	0	0	29618	28180	171308	27019	1055561	45008	111018	0	0	7958	643856	0	0
2024-07-19 23:35:47			0	35451	0	0	0	29631	28190	171352	26925	1055588	45009	111023	0	0	7958	643733	0	0
2024-07-19 23:36:47			0	35474	0	0	0	29602	28200	171196	26972	1055569	44977	111012	0	0	7960	642705	0	0
2024-07-19 23:37:47			0	35477	0	0	0	29623	28200	171028	26897	1055596	44977	111020	0	0	7960	642576	0	0
2024-07-19 23:38:47			0	35482	0	0	0	29641	28210	171268	26987	1055641	45011	111027	0	0	7960	642324	0	0
2024-07-19 23:39:47			0	35482	0	0	0	29633	28210	170996	27072	1055668	45011	111024	0	0	7960	642324	0	0
2024-07-19 23:40:47			0	35493	0	0	0	29594	28220	170832	27019	1055551	45001	111009	0	0	7961	641813	0	0
2024-07-19 23:41:47			0	35505	0	0	0	29540	28220	170908	26694	1055587	44990	110988	0	0	7963	641297	0	0
2024-07-19 23:42:47			0	35487	0	0	0	29548	28210	170848	26667	1055461	44978	110991	0	0	7962	642108	0	0
2024-07-19 23:43:47			0	35497	0	0	0	29563	28200	170888	27059	1055498	44977	110997	0	0	7962	641715	0	0
2024-07-19 23:44:47			0	35505	0	0	0	29576	28200	170932	26956	1055417	44977	111002	0	0	7962	641371	0	0
2024-07-19 23:45:47			0	35501	0	0	0	29553	28210	170896	27097	1055399	44956	110993	0	0	7962	641506	0	0
2024-07-19 23:46:47			0	35503	0	0	0	29464	28200	170788	26920	1055246	44966	110959	0	0	7964	641457	0	0
2024-07-19 23:47:47			0	35503	0	0	0	29345	28170	170844	27244	1055094	44952	110913	0	0	7966	641568	0	0
2024-07-19 23:48:47			0	35500	0	0	0	29303	28160	170832	27175	1054969	44940	110897	0	0	7966	641734	0	0
2024-07-19 23:49:47			0	35480	0	0	0	29223	28150	170860	26783	1054780	44893	110866	0	0	7966	642632	0	0
2024-07-19 23:50:47			0	35479	0	0	0	29197	28110	171080	26930	1054610	44902	110856	0	0	7967	642824	0	0
2024-07-19 23:51:47			0	35457	0	0	0	29249	28090	171116	26795	1054548	44910	110876	0	0	7964	643846	0	0
2024-07-19 23:52:47			0	35453	0	0	0	29309	28070	171264	26908	1054513	44930	110899	0	0	7963	644093	0	0
2024-07-19 23:53:47			0	35437	0	0	0	29262	28050	171232	26844	1054378	44918	110881	0	0	7963	644858	0	0
2024-07-19 23:54:47			0	35458	0	0	0	29210	28040	171116	26892	1054271	44916	110861	0	0	7965	643989	0	0
2024-07-19 23:55:47			0	35480	0	0	0	29231	28010	171072	26821	1054217	44924	110869	0	0	7966	643152	0	0
2024-07-19 23:56:47			0	35474	0	0	0	29223	28000	171172	26804	1054146	44923	110866	0	0	7965	643447	0	0
2024-07-19 23:57:47			0	35490	0	0	0	29129	27980	171168	26953	1054012	44900	110830	0	0	7968	642832	0	0
2024-07-19 23:58:47			0	35495	0	0	0	29083	27950	171036	27150	1053788	44897	110812	0	0	7969	642728	0	0
2024-07-19 23:59:47			0	35485	0	0	0	29077	27930	171000	26786	1053699	44895	110810	0	0	7968	643233	0	0
2024-07-20 00:00:47			0	35497	0	0	0	29101	27900	171056	26857	1053681	44903	110819	0	0	7968	642827	0	0
2024-07-20 00:01:47			0	35500	0	0	0	29145	27890	171000	26642	1053636	44923	110836	0	0	7968	642735	0	0
2024-07-20 00:02:47			0	35495	0	0	0	29163	27890	171136	26519	1053708	44935	110843	0	0	7967	642950	0	0
2024-07-20 00:03:47			0	35509	0	0	0	29181	27880	171080	26909	1053744	44945	110850	0	0	7968	642384	0	0
2024-07-20 00:04:47			0	35506	0	0	0	29171	27880	171076	26752	1053834	44968	110846	0	0	7968	642513	0	0
2024-07-20 00:05:47			0	35520	0	0	0	29192	27900	171032	27095	1053941	44969	110854	0	0	7968	641837	0	0
2024-07-20 00:06:47			0	35523	0	0	0	29205	27910	170972	26509	1054157	44981	110859	0	0	7968	641671	0	0
2024-07-20 00:07:47			0	35524	0	0	0	29207	27930	171024	26804	1054246	45006	110860	0	0	7968	641554	0	0
2024-07-20 00:08:47			0	35523	0	0	0	29264	27930	170940	27038	1054300	44995	110882	0	0	7967	641597	0	0
2024-07-20 00:09:47			0	35512	0	0	0	29311	27960	171024	26937	1054371	44986	110900	0	0	7966	641959	0	0
2024-07-20 00:10:47			0	35518	0	0	0	29366	27980	171068	27060	1054622	44999	110921	0	0	7965	641627	0	0
2024-07-20 00:11:47			0	35526	0	0	0	29438	28000	171004	26797	1054684	45013	110949	0	0	7965	641209	0	0
2024-07-20 00:12:47			0	35560	0	0	0	29462	28020	170804	27085	1054836	44993	110958	0	0	7967	639674	0	0
2024-07-20 00:13:47			0	35548	0	0	0	29449	28020	170904	27140	1054863	44993	110953	0	0	7966	640189	0	0
2024-07-20 00:14:47			0	35494	0	0	0	29425	28050	171184	27124	1054746	44984	110944	0	0	7963	642400	0	0
2024-07-20 00:15:47			0	35441	0	0	0	29386	28040	171312	26899	1054756	44972	110929	0	0	7961	644722	0	0
2024-07-20 00:16:47			0	35411	0	0	0	29368	28030	171472	26968	1054693	44972	110922	0	0	7959	646055	0	0
2024-07-20 00:17:47			0	35394	0	0	0	29332	28030	171560	26765	1054603	44960	110908	0	0	7959	646791	0	0
2024-07-20 00:18:47			0	35390	0	0	0	29251	28020	171612	26885	1054352	44937	110877	0	0	7960	647001	0	0
2024-07-20 00:19:47			0	35399	0	0	0	29231	28000	171620	27039	1054316	44946	110869	0	0	7961	646686	0	0
2024-07-20 00:20:47			0	35380	0	0	0	29244	28000	171604	26890	1054334	44935	110874	0	0	7959	647509	0	0
2024-07-20 00:21:47			0	35399	0	0	0	29233	27990	171724	26982	1054236	44934	110870	0	0	7960	646724	0	0
2024-07-20 00:22:47			0	35397	0	0	0	29220	27970	171580	26739	1054120	44932	110865	0	0	7960	646885	0	0
2024-07-20 00:23:47			0	35419	0	0	0	29212	27950	171556	27104	1053976	44908	110862	0	0	7962	646008	0	0
2024-07-20 00:24:47			0	35453	0	0	0	29197	27940	171360	27085	1053941	44918	110856	0	0	7964	644576	0	0
2024-07-20 00:25:47			0	35481	0	0	0	29192	27920	171180	27211	1053923	44926	110854	0	0	7966	643442	0	0
2024-07-20 00:26:47			0	35528	0	0	0	29189	27910	170964	27263	1053959	44915	110853	0	0	7969	641455	0	0
2024-07-20 00:27:47			0	35548	0	0	0	29202	27910	170896	26866	1053852	44948	110858	0	0	7970	640596	0	0
2024-07-20 00:28:47			0	35571	0	0	0	29218	27890	170832	26750	1053852	44957	110864	0	0	7971	639681	0	0
2024-07-20 00:29:47			0	35586	0	0	0	29225	27900	170816	26876	1053834	44958	110867	0	0	7972	639001	0	0
2024-07-20 00:30:47			0	35579	0	0	0	29283	27910	170808	27189	1054013	44948	110889	0	0	7970	639264	0	0
2024-07-20 00:31:47			0	35570	0	0	0	29389	27920	170872	27024	1054255	44983	110930	0	0	7968	639614	0	0
2024-07-20 00:32:47			0	35614	0	0	0	29394	27940	170768	27114	1054398	44996	110932	0	0	7971	637654	0	0
2024-07-20 00:33:47			0	35638	0	0	0	29379	27960	170560	26854	1054514	44987	110926	0	0	7973	636553	0	0
2024-07-20 00:34:47			0	35659	0	0	0	29425	27970	170436	26870	1054523	45010	110944	0	0	7973	635619	0	0
2024-07-20 00:35:47			0	35660	0	0	0	29438	28000	170416	26854	1054666	45001	110949	0	0	7973	635466	0	0
2024-07-20 00:36:47			0	35632	0	0	0	29389	28010	170580	26724	1054675	45002	110930	0	0	7972	636626	0	0
2024-07-20 00:37:47			0	35617	0	0	0	29363	28020	170652	27104	1054693	44981	110920	0	0	7972	637231	0	0
2024-07-20 00:38:47			0	35583	0	0	0	29319	28010	170796	26994	1054460	44958	110903	0	0	7970	638724	0	0
2024-07-20 00:39:47			0	35510	0	0	0	29254	28000	171164	27287	1054235	44935	110878	0	0	7967	641897	0	0
2024-07-20 00:40:47			0	35449	0	0	0	29212	27970	171376	26897	1054039	44932	110862	0	0	7964	644637	0	0
2024-07-20 00:41:47			0	35423	0	0	0	29168	27950	171416	26987	1053923	44897	110845	0	0	7963	645835	0	0
2024-07-20 00:42:47			0	35385	0	0	0	29137	27920	171640	26935	1053708	44904	110833	0	0	7961	647591	0	0
2024-07-20 00:43:47			0	35389	0	0	0	29103	27890	171764	26994	1053609	44901	110820	0	0	7962	647530	0	0
2024-07-20 00:44:47			0	35371	0	0	0	29070	27890	171848	26746	1053439	44901	110807	0	0	7961	648310	0	0
2024-07-20 00:45:47			0	35356	0	0	0	29051	27840	171860	27144	1053297	44908	110800	0	0	7960	649147	0	0
2024-07-20 00:46:47			0	35321	0	0	0	29028	27830	171976	27019	1053225	44895	110791	0	0	7958	650705	0	0
2024-07-20 00:47:47			0	35334	0	0	0	29012	27810	171976	27069	1053145	44905	110785	0	0	7959	650215	0	0
2024-07-20 00:48:47			0	35343	0	0	0	28986	27780	172108	27012	1053010	44890	110775	0	0	7960	649936	0	0
2024-07-20 00:49:47			0	35338	0	0	0	28953	27760	172080	26979	1052849	44900	110762	0	0	7960	650228	0	0
2024-07-20 00:50:47			0	35333	0	0	0	28927	27740	172156	27164	1052751	44886	110752	0	0	7960	650520	0	0
2024-07-20 00:51:47			0	35315	0	0	0	28896	27720	172148	27192	1052689	44874	110740	0	0	7960	651378	0	0
2024-07-20 00:52:47			0	35317	0	0	0	28896	27700	172284	27093	1052627	44882	110740	0	0	7960	651366	0	0
2024-07-20 00:53:47			0	35333	0	0	0	28893	27680	172204	26838	1052573	44893	110739	0	0	7961	650745	0	0
2024-07-20 00:54:47			0	35340	0	0	0	28924	27670	172172	26674	1052546	44924	110751	0	0	7960	650478	0	0
2024-07-20 00:55:47			0	35343	0	0	0	28919	27660	172244	26786	1052538	44913	110749	0	0	7961	650385	0	0
2024-07-20 00:56:47			0	35351	0	0	0	28916	27650	172140	26658	1052430	44911	110748	0	0	7961	650075	0	0
2024-07-20 00:57:47			0	35394	0	0	0	28916	27630	172112	26727	1052511	44910	110748	0	0	7964	648283	0	0
2024-07-20 00:58:47			0	35394	0	0	0	28932	27640	172052	26757	1052520	44944	110754	0	0	7963	648246	0	0
2024-07-20 00:59:47			0	35394	0	0	0	28929	27620	172060	26582	1052439	44919	110753	0	0	7963	648320	0	0
2024-07-20 01:00:47			0	35430	0	0	0	28929	27620	171900	26830	1052457	44919	110753	0	0	7966	646761	0	0
2024-07-20 01:01:47			0	35442	0	0	0	28914	27610	171824	27039	1052332	44928	110747	0	0	7967	646278	0	0
2024-07-20 01:02:47			0	35452	0	0	0	28901	27600	171812	26889	1052404	44917	110742	0	0	7967	645883	0	0
2024-07-20 01:03:47			0	35466	0	0	0	28906	27600	171624	27081	1052395	44928	110744	0	0	7968	645278	0	0
2024-07-20 01:04:47			0	35483	0	0	0	28924	27600	171524	26883	1052485	44962	110751	0	0	7969	644543	0	0
2024-07-20 01:05:47			0	35506	0	0	0	28963	27620	171364	27057	1052646	44964	110766	0	0	7970	643476	0	0
2024-07-20 01:06:47			0	35526	0	0	0	29072	27630	171380	27050	1052879	44976	110808	0	0	7969	642577	0	0
2024-07-20 01:07:47			0	35557	0	0	0	29179	27680	171340	26878	1053138	45003	110849	0	0	7969	641058	0	0
2024-07-20 01:08:47			0	35449	0	0	0	29233	27690	171756	27244	1053281	44993	110870	0	0	7962	645678	0	0
2024-07-20 01:09:47			0	35312	0	0	0	29249	27720	172528	27268	1053388	44996	110876	0	0	7953	651509	0	0
2024-07-20 01:10:47			0	35189	0	0	0	29275	27740	173116	27230	1053478	44987	110886	0	0	7945	656803	0	0
2024-07-20 01:11:47			0	35105	0	0	0	29293	27750	173375	27036	1053558	45000	110893	0	0	7940	660450	0	0
2024-07-20 01:12:47			0	35067	0	0	0	29303	27770	173687	26911	1053594	44990	110897	0	0	7937	662046	0	0
2024-07-20 01:13:47			0	35038	0	0	0	29301	27790	173675	27029	1053701	44981	110896	0	0	7936	663247	0	0
2024-07-20 01:14:47			0	35015	0	0	0	29309	27800	173631	27190	1053746	45004	110899	0	0	7934	664224	0	0
2024-07-20 01:15:47			0	35037	0	0	0	29301	27820	173683	26904	1053754	44984	110896	0	0	7936	663177	0	0
2024-07-20 01:16:47			0	35046	0	0	0	29298	27820	173603	26752	1053808	44995	110895	0	0	7936	662780	0	0
2024-07-20 01:17:47			0	35066	0	0	0	29314	27840	173531	26762	1053862	44986	110901	0	0	7938	661823	0	0
2024-07-20 01:18:47			0	35103	0	0	0	29314	27850	173419	26713	1053888	44987	110901	0	0	7940	660157	0	0
2024-07-20 01:19:47			0	35125	0	0	0	29309	27860	173244	26975	1053897	44976	110899	0	0	7941	659153	0	0
2024-07-20 01:20:47			0	35176	0	0	0	29314	27860	172948	26904	1053960	45000	110901	0	0	7945	656918	0	0
2024-07-20 01:21:47			0	35211	0	0	0	29324	27880	172856	26795	1053960	44978	110905	0	0	7947	655311	0	0
2024-07-20 01:22:47			0	35248	0	0	0	29329	27880	172532	27067	1053960	45000	110907	0	0	7949	653696	0	0
2024-07-20 01:23:47			0	35275	0	0	0	29335	27880	172432	27092	1054067	44978	110909	0	0	7950	652519	0	0
2024-07-20 01:24:47			0	35305	0	0	0	29329	27890	172160	26804	1054112	44979	110907	0	0	7952	651175	0	0
2024-07-20 01:25:47			0	35340	0	0	0	29337	27900	172060	26706	1054076	44992	110910	0	0	7955	649617	0	0
2024-07-20 01:26:47			0	35377	0	0	0	29319	27900	171864	26791	1054058	44981	110903	0	0	7957	648012	0	0
2024-07-20 01:27:47			0	35425	0	0	0	29324	27910	171632	26661	1054121	44970	110905	0	0	7960	645897	0	0
2024-07-20 01:28:47			0	35470	0	0	0	29327	27910	171492	26984	1054121	44981	110906	0	0	7963	643954	0	0
2024-07-20 01:29:47			0	35511	0	0	0	29324	27920	171252	26729	1054112	44971	110905	0	0	7965	642150	0	0
2024-07-20 01:30:47			0	35542	0	0	0	29329	27910	170908	26911	1054130	44970	110907	0	0	7967	640854	0	0
2024-07-20 01:31:47			0	35583	0	0	0	29337	27920	170844	26826	1054246	44994	110910	0	0	7970	639056	0	0
2024-07-20 01:32:47			0	35608	0	0	0	29353	27930	170692	27001	1054210	44984	110916	0	0	7971	637947	0	0
2024-07-20 01:33:47			0	35642	0	0	0	29355	27930	170596	26906	1054264	44984	110917	0	0	7973	636492	0	0
2024-07-20 01:34:47			0	35706	0	0	0	29379	27940	170220	26733	1054237	44974	110926	0	0	7977	633722	0	0
2024-07-20 01:35:47			0	35737	0	0	0	29392	27950	170132	27029	1054380	44997	110931	0	0	7978	632365	0	0
2024-07-20 01:36:47			0	35785	0	0	0	29397	27950	169892	26868	1054335	44986	110933	0	0	7981	630324	0	0
2024-07-20 01:37:47			0	35782	0	0	0	29389	27960	169936	26817	1054425	44997	110930	0	0	7981	630415	0	0
2024-07-20 01:38:47			0	35764	0	0	0	29386	27960	169900	26863	1054380	44998	110929	0	0	7980	631180	0	0
2024-07-20 01:39:47			0	35757	0	0	0	29384	27960	170068	26821	1054344	44997	110928	0	0	7980	631478	0	0
2024-07-20 01:40:47			0	35730	0	0	0	29381	27960	170104	26968	1054425	44975	110927	0	0	7978	632627	0	0
2024-07-20 01:41:47			0	35706	0	0	0	29384	27970	170196	26844	1054443	44965	110928	0	0	7977	633613	0	0
2024-07-20 01:42:47			0	35715	0	0	0	29394	27980	170132	26840	1054496	44989	110932	0	0	7977	633193	0	0
2024-07-20 01:43:47			0	35712	0	0	0	29394	27980	170080	26805	1054469	45000	110932	0	0	7977	633320	0	0
2024-07-20 01:44:47			0	35726	0	0	0	29397	27980	169976	27126	1054523	44989	110933	0	0	7978	632724	0	0
2024-07-20 01:45:47			0	35745	0	0	0	29397	27990	169976	27119	1054532	44990	110933	0	0	7979	631879	0	0
2024-07-20 01:46:47			0	35764	0	0	0	29402	27980	169872	27005	1054496	44989	110935	0	0	7980	631107	0	0
2024-07-20 01:47:47			0	35793	0	0	0	29399	27990	169808	26715	1054451	44979	110934	0	0	7982	629839	0	0
2024-07-20 01:48:47			0	35825	0	0	0	29389	27990	169740	26700	1054424	44990	110930	0	0	7984	628482	0	0
2024-07-20 01:49:47			0	35837	0	0	0	29389	27980	169552	27168	1054496	44978	110930	0	0	7985	628010	0	0
2024-07-20 01:50:47			0	35852	0	0	0	29376	27980	169481	26774	1054442	44978	110925	0	0	7986	627375	0	0
2024-07-20 01:51:47			0	35872	0	0	0	29374	27980	169433	26923	1054415	44978	110924	0	0	7987	626529	0	0
2024-07-20 01:52:47			0	35879	0	0	0	29371	27980	169381	26753	1054380	44977	110923	0	0	7987	626233	0	0
2024-07-20 01:53:47			0	35901	0	0	0	29371	27980	169265	26771	1054433	44977	110923	0	0	7989	625303	0	0
2024-07-20 01:54:47			0	35909	0	0	0	29358	27980	169189	26798	1054442	44989	110918	0	0	7989	624965	0	0
2024-07-20 01:55:47			0	35927	0	0	0	29350	27980	169093	26726	1054406	44999	110915	0	0	7991	624206	0	0
2024-07-20 01:56:47			0	35920	0	0	0	29316	27980	169193	26712	1054353	44965	110902	0	0	7991	624501	0	0
2024-07-20 01:57:47			0	35936	0	0	0	29298	27960	169173	26823	1054236	44963	110895	0	0	7992	623898	0	0
2024-07-20 01:58:47			0	35896	0	0	0	29288	27950	169341	26791	1054165	44963	110891	0	0	7990	625623	0	0
2024-07-20 01:59:47			0	35750	0	0	0	29277	27940	169868	26691	1054066	44973	110887	0	0	7981	631848	0	0
2024-07-20 02:00:47			0	35637	0	0	0	29251	27920	170408	27232	1053986	44960	110877	0	0	7974	636742	0	0
2024-07-20 02:01:47			0	35559	0	0	0	29220	27910	170820	26923	1053905	44958	110865	0	0	7970	640123	0	0
2024-07-20 02:02:47			0	35511	0	0	0	29212	27900	171140	26693	1053869	44948	110862	0	0	7967	642224	0	0
2024-07-20 02:03:47			0	35436	0	0	0	29197	27890	171392	26694	1053798	44946	110856	0	0	7963	645496	0	0
2024-07-20 02:04:47			0	35360	0	0	0	29166	27880	171724	27043	1053690	44945	110844	0	0	7959	648824	0	0
2024-07-20 02:05:47			0	35338	0	0	0	29163	27870	172072	26821	1053619	44933	110843	0	0	7957	649816	0	0
2024-07-20 02:06:47			0	35290	0	0	0	29155	27850	172184	26928	1053592	44942	110840	0	0	7954	651978	0	0
2024-07-20 02:07:47			0	35235	0	0	0	29158	27850	172568	26979	1053583	44941	110841	0	0	7951	654376	0	0
2024-07-20 02:08:47			0	35169	0	0	0	29176	27830	172600	27090	1053557	44952	110848	0	0	7946	657338	0	0
2024-07-20 02:09:47			0	35151	0	0	0	29184	27840	172928	26811	1053646	44963	110851	0	0	7945	658089	0	0
2024-07-20 02:10:47			0	35109	0	0	0	29186	27830	173164	26955	1053494	44951	110852	0	0	7942	659970	0	0
2024-07-20 02:11:47			0	35092	0	0	0	29179	27820	173195	26896	1053566	44951	110849	0	0	7941	660755	0	0
2024-07-20 02:12:47			0	35066	0	0	0	29173	27820	173351	26750	1053593	44951	110847	0	0	7940	661899	0	0
2024-07-20 02:13:47			0	35037	0	0	0	29168	27820	173355	26809	1053476	44961	110845	0	0	7938	663177	0	0
2024-07-20 02:14:47			0	35024	0	0	0	29161	27810	173507	26719	1053486	44959	110842	0	0	7937	663788	0	0
2024-07-20 02:15:47			0	35022	0	0	0	29168	27800	173647	26687	1053423	44971	110845	0	0	7937	663915	0	0
2024-07-20 02:16:47			0	35027	0	0	0	29189	27810	173551	26965	1053548	44960	110853	0	0	7937	663656	0	0
2024-07-20 02:17:47			0	35012	0	0	0	29181	27800	173675	26765	1053531	44971	110850	0	0	7936	664356	0	0
2024-07-20 02:18:47			0	34994	0	0	0	29179	27800	173635	27114	1053423	44971	110849	0	0	7935	665151	0	0
2024-07-20 02:19:47			0	35018	0	0	0	29181	27800	173727	26668	1053477	44982	110850	0	0	7937	664091	0	0
2024-07-20 02:20:47			0	35008	0	0	0	29197	27800	173795	26823	1053504	44971	110856	0	0	7936	664533	0	0
2024-07-20 02:21:47			0	35013	0	0	0	29220	27810	173603	26885	1053656	44983	110865	0	0	7936	664274	0	0
2024-07-20 02:22:47			0	35025	0	0	0	29223	27810	173623	26817	1053602	44960	110866	0	0	7936	663744	0	0
2024-07-20 02:23:47			0	35027	0	0	0	29220	27810	173599	27204	1053575	44983	110865	0	0	7937	663656	0	0
2024-07-20 02:24:47			0	35034	0	0	0	29207	27810	173563	26739	1053683	44971	110860	0	0	7937	663347	0	0
2024-07-20 02:25:47			0	35053	0	0	0	29225	27820	173587	26622	1053674	44961	110867	0	0	7938	662472	0	0
2024-07-20 02:26:47			0	35055	0	0	0	29244	27830	173467	26880	1053710	44995	110874	0	0	7938	662345	0	0
2024-07-20 02:27:47			0	35068	0	0	0	29262	27830	173399	27017	1053710	44972	110881	0	0	7939	661773	0	0
2024-07-20 02:28:47			0	35071	0	0	0	29254	27820	173443	26908	1053754	44984	110878	0	0	7939	661679	0	0
2024-07-20 02:29:47			0	35079	0	0	0	29244	27830	173395	26781	1053745	44985	110874	0	0	7940	661289	0	0
2024-07-20 02:30:47			0	35097	0	0	0	29257	27840	173343	27211	1053781	44974	110879	0	0	7940	660459	0	0
2024-07-20 02:31:47			0	35097	0	0	0	29246	27840	173267	26835	1053781	44986	110875	0	0	7941	660459	0	0
2024-07-20 02:32:47			0	35118	0	0	0	29249	27840	173272	26955	1053709	44986	110876	0	0	7942	659536	0	0
2024-07-20 02:33:47			0	35115	0	0	0	29241	27840	173180	26762	1053727	44986	110873	0	0	7942	659668	0	0
2024-07-20 02:34:47			0	35114	0	0	0	29231	27830	173268	26915	1053745	44973	110869	0	0	7942	659750	0	0
2024-07-20 02:35:47			0	35125	0	0	0	29231	27830	173236	27116	1053772	44962	110869	0	0	7943	659267	0	0
2024-07-20 02:36:47			0	35134	0	0	0	29231	27830	173112	26906	1053718	44985	110869	0	0	7943	658872	0	0
2024-07-20 02:37:47			0	35152	0	0	0	29228	27830	173076	26793	1053772	44985	110868	0	0	7944	658083	0	0
2024-07-20 02:38:47			0	35149	0	0	0	29225	27830	173068	26941	1053710	44984	110867	0	0	7944	658214	0	0
2024-07-20 02:39:47			0	35152	0	0	0	29238	27840	173024	26863	1053727	44974	110872	0	0	7944	658045	0	0
2024-07-20 02:40:47			0	35169	0	0	0	29241	27840	172948	27081	1053727	44986	110873	0	0	7945	657300	0	0
2024-07-20 02:41:47			0	35170	0	0	0	29246	27850	173036	26953	1053772	44974	110875	0	0	7945	657218	0	0
2024-07-20 02:42:47			0	35198	0	0	0	29241	27840	172880	26672	1053763	44986	110873	0	0	7947	656030	0	0
2024-07-20 02:43:47			0	35188	0	0	0	29238	27840	172908	26800	1053646	44974	110872	0	0	7946	656468	0	0
2024-07-20 02:44:47			0	35196	0	0	0	29231	27840	172776	26901	1053736	44963	110869	0	0	7947	656118	0	0
2024-07-20 02:45:47			0	35195	0	0	0	29220	27840	172800	26873	1053763	44986	110865	0	0	7947	656162	0	0
2024-07-20 02:46:47			0	35209	0	0	0	29215	27840	172792	27005	1053700	44953	110863	0	0	7948	655550	0	0
2024-07-20 02:47:47			0	35231	0	0	0	29197	27830	172672	27019	1053718	44962	110856	0	0	7950	654626	0	0
2024-07-20 02:48:47			0	35235	0	0	0	29186	27810	172656	27156	1053575	44950	110852	0	0	7950	654527	0	0
2024-07-20 02:49:47			0	35240	0	0	0	29181	27820	172604	26786	1053638	44972	110850	0	0	7951	654271	0	0
2024-07-20 02:50:47			0	35250	0	0	0	29184	27810	172596	27090	1053629	44971	110851	0	0	7951	653872	0	0
2024-07-20 02:51:47			0	35270	0	0	0	29192	27820	172604	27000	1053566	44961	110854	0	0	7952	652962	0	0
2024-07-20 02:52:47			0	35271	0	0	0	29194	27820	172576	26987	1053530	44972	110855	0	0	7952	652919	0	0
2024-07-20 02:53:47			0	35270	0	0	0	29197	27800	172416	27031	1053477	44971	110856	0	0	7952	653038	0	0
2024-07-20 02:54:47			0	35316	0	0	0	29199	27810	172284	26852	1053593	44959	110857	0	0	7955	650997	0	0
2024-07-20 02:55:47			0	35308	0	0	0	29197	27810	172316	26977	1053602	44971	110856	0	0	7954	651345	0	0
2024-07-20 02:56:47			0	35316	0	0	0	29197	27800	172252	26785	1053584	44971	110856	0	0	7955	651035	0	0
2024-07-20 02:57:47			0	35329	0	0	0	29184	27810	172168	26915	1053459	44959	110851	0	0	7956	650432	0	0
2024-07-20 02:58:47			0	35340	0	0	0	29181	27810	172208	26811	1053459	44959	110850	0	0	7957	649954	0	0
2024-07-20 02:59:47			0	35359	0	0	0	29171	27790	172024	26698	1053468	44982	110846	0	0	7958	649204	0	0
2024-07-20 03:00:47			0	35367	0	0	0	29155	27790	171980	26595	1053432	44958	110840	0	0	7959	648857	0	0
2024-07-20 03:01:47			0	35398	0	0	0	29171	27790	171972	26658	1053405	44958	110846	0	0	7960	647513	0	0
2024-07-20 03:02:47			0	35388	0	0	0	29171	27800	171924	27038	1053477	44971	110846	0	0	7960	647909	0	0
2024-07-20 03:03:47			0	35428	0	0	0	29166	27780	171800	26805	1053423	44969	110844	0	0	7962	646251	0	0
2024-07-20 03:04:47			0	35421	0	0	0	29161	27790	171820	26788	1053459	44958	110842	0	0	7962	646517	0	0
2024-07-20 03:05:47			0	35427	0	0	0	29153	27790	171708	26642	1053432	44958	110839	0	0	7962	646257	0	0
2024-07-20 03:06:47			0	35452	0	0	0	29148	27780	171700	26842	1053333	44968	110837	0	0	7964	645214	0	0
2024-07-20 03:07:47			0	35457	0	0	0	29145	27770	171644	26613	1053343	44968	110836	0	0	7964	645035	0	0
2024-07-20 03:08:47			0	35478	0	0	0	29137	27760	171484	26863	1053334	44978	110833	0	0	7966	644165	0	0
2024-07-20 03:09:47			0	35489	0	0	0	29137	27770	171548	27066	1053262	44968	110833	0	0	7966	643654	0	0
2024-07-20 03:10:47			0	35517	0	0	0	29135	27760	171408	26642	1053325	44966	110832	0	0	7968	642484	0	0
2024-07-20 03:11:47			0	35528	0	0	0	29135	27760	171372	26998	1053352	44966	110832	0	0	7969	642010	0	0
2024-07-20 03:12:47			0	35540	0	0	0	29137	27760	171256	26909	1053325	44966	110833	0	0	7970	641494	0	0
2024-07-20 03:13:47			0	35555	0	0	0	29140	27750	171112	26757	1053370	44955	110834	0	0	7970	640885	0	0
2024-07-20 03:14:47			0	35563	0	0	0	29129	27750	171152	26748	1053235	44955	110830	0	0	7971	640541	0	0
2024-07-20 03:15:47			0	35586	0	0	0	29127	27750	171048	26734	1053208	44944	110829	0	0	7973	639554	0	0
2024-07-20 03:16:47			0	35600	0	0	0	29127	27750	171004	26701	1053181	44944	110829	0	0	7973	638953	0	0
2024-07-20 03:17:47			0	35615	0	0	0	29119	27740	170992	26989	1053182	44964	110826	0	0	7974	638346	0	0
2024-07-20 03:18:47			0	35618	0	0	0	29111	27750	170824	26830	1053226	44966	110823	0	0	7975	638181	0	0
2024-07-20 03:19:47			0	35625	0	0	0	29111	27730	170752	26908	1053191	44953	110823	0	0	7975	637954	0	0
2024-07-20 03:20:47			0	35645	0	0	0	29103	27730	170692	27267	1053191	44975	110820	0	0	7976	637098	0	0
2024-07-20 03:21:47			0	35652	0	0	0	29103	27730	170704	26934	1053191	44964	110820	0	0	7977	636798	0	0
2024-07-20 03:22:47			0	35663	0	0	0	29101	27730	170680	26703	1053173	44975	110819	0	0	7978	636327	0	0
2024-07-20 03:23:47			0	35677	0	0	0	29101	27730	170636	26672	1053110	44964	110819	0	0	7978	635729	0	0
2024-07-20 03:24:47			0	35660	0	0	0	29103	27720	170608	26850	1053119	44962	110820	0	0	7977	636492	0	0
2024-07-20 03:25:47			0	35698	0	0	0	29101	27720	170528	26760	1053155	44963	110819	0	0	7980	634868	0	0
2024-07-20 03:26:47			0	35684	0	0	0	29098	27720	170544	26961	1053119	44962	110818	0	0	7979	635466	0	0
2024-07-20 03:27:47			0	35693	0	0	0	29101	27720	170544	26849	1053173	44951	110819	0	0	7979	635081	0	0
2024-07-20 03:28:47			0	35714	0	0	0	29098	27720	170480	26679	1053092	44973	110818	0	0	7981	634185	0	0
2024-07-20 03:29:47			0	35686	0	0	0	29103	27720	170408	26611	1053066	44962	110820	0	0	7979	635380	0	0
2024-07-20 03:30:47			0	35711	0	0	0	29093	27700	170452	26733	1053066	44961	110816	0	0	7980	634386	0	0
2024-07-20 03:31:47			0	35706	0	0	0	29085	27710	170404	26889	1053048	44972	110813	0	0	7980	634563	0	0
2024-07-20 03:32:47			0	35709	0	0	0	29083	27710	170452	26663	1053048	44972	110812	0	0	7981	634435	0	0
2024-07-20 03:33:47			0	35712	0	0	0	29090	27710	170436	26949	1053075	44961	110815	0	0	7981	634307	0	0
2024-07-20 03:34:47			0	35719	0	0	0	29088	27700	170456	26847	1053039	44972	110814	0	0	7981	634044	0	0
2024-07-20 03:35:47			0	35712	0	0	0	29093	27700	170476	26960	1053030	44949	110816	0	0	7981	634343	0	0
2024-07-20 03:36:47			0	35729	0	0	0	29096	27700	170408	26837	1053084	44971	110817	0	0	7982	633618	0	0
2024-07-20 03:37:47			0	35742	0	0	0	29096	27710	170392	26543	1053129	44972	110817	0	0	7982	633027	0	0
2024-07-20 03:38:47			0	35734	0	0	0	29116	27710	170352	26762	1053102	44950	110825	0	0	7982	633368	0	0
2024-07-20 03:39:47			0	35726	0	0	0	29106	27700	170368	26842	1053120	44950	110821	0	0	7981	633746	0	0
2024-07-20 03:40:47			0	35729	0	0	0	29111	27710	170380	26739	1053048	44984	110823	0	0	7981	633581	0	0
2024-07-20 03:41:47			0	35738	0	0	0	29122	27700	170324	26739	1053120	44961	110827	0	0	7982	633234	0	0
2024-07-20 03:42:47			0	35759	0	0	0	29119	27720	170288	26863	1053173	44962	110826	0	0	7983	632267	0	0
2024-07-20 03:43:47			0	35751	0	0	0	29111	27720	170224	26616	1053155	44974	110823	0	0	7983	632607	0	0
2024-07-20 03:44:47			0	35765	0	0	0	29114	27720	170160	26760	1053119	44973	110824	0	0	7984	632011	0	0
2024-07-20 03:45:47			0	35759	0	0	0	29116	27710	170092	26996	1053102	44961	110825	0	0	7983	632303	0	0
2024-07-20 03:46:47			0	35775	0	0	0	29109	27710	170260	26889	1053102	44972	110822	0	0	7984	631622	0	0
2024-07-20 03:47:47			0	35759	0	0	0	29101	27710	170140	26875	1053048	44961	110819	0	0	7983	632303	0	0
2024-07-20 03:48:47			0	35771	0	0	0	29101	27700	170168	26844	1053057	44971	110819	0	0	7984	631829	0	0
2024-07-20 03:49:47			0	35754	0	0	0	29106	27710	170140	27118	1053129	44972	110821	0	0	7983	632516	0	0
2024-07-20 03:50:47			0	35758	0	0	0	29106	27710	170216	26946	1053084	44962	110821	0	0	7983	632346	0	0
2024-07-20 03:51:47			0	35743	0	0	0	29088	27710	170168	26986	1053021	44950	110814	0	0	7983	632985	0	0
2024-07-20 03:52:47			0	35732	0	0	0	29075	27700	170096	26554	1053030	44960	110809	0	0	7982	633490	0	0
2024-07-20 03:53:47			0	35713	0	0	0	29075	27710	170456	26868	1053048	44950	110809	0	0	7981	634264	0	0
2024-07-20 03:54:47			0	35696	0	0	0	29080	27700	170496	26840	1052949	44949	110811	0	0	7980	635026	0	0
2024-07-20 03:55:47			0	35691	0	0	0	29070	27690	170572	26625	1052941	44949	110807	0	0	7980	635276	0	0
2024-07-20 03:56:47			0	35665	0	0	0	29062	27690	170608	26977	1052959	44959	110804	0	0	7978	636388	0	0
2024-07-20 03:57:47			0	35656	0	0	0	29064	27690	170664	26701	1052985	44959	110805	0	0	7978	636773	0	0
2024-07-20 03:58:47			0	35618	0	0	0	29057	27680	170676	26660	1052923	44959	110802	0	0	7975	638438	0	0
2024-07-20 03:59:47			0	35623	0	0	0	29051	27680	170752	26523	1052914	44981	110800	0	0	7976	638224	0	0
2024-07-20 04:00:47			0	35613	0	0	0	29044	27670	170952	26682	1052842	44947	110797	0	0	7975	638689	0	0
2024-07-20 04:01:47			0	35605	0	0	0	29028	27670	170880	26465	1052816	44958	110791	0	0	7975	639033	0	0
2024-07-20 04:02:47			0	35585	0	0	0	29028	27660	171084	26930	1052798	44957	110791	0	0	7974	639928	0	0
2024-07-20 04:03:47			0	35563	0	0	0	29020	27660	171156	26663	1052798	44967	110788	0	0	7972	640874	0	0
2024-07-20 04:04:47			0	35545	0	0	0	29012	27650	171128	26885	1052708	44966	110785	0	0	7971	641685	0	0
2024-07-20 04:05:47			0	35520	0	0	0	29005	27650	171188	26821	1052726	44956	110782	0	0	7970	642762	0	0
2024-07-20 04:06:47			0	35530	0	0	0	28999	27630	171256	26568	1052699	44943	110780	0	0	7971	642405	0	0
2024-07-20 04:07:47			0	35530	0	0	0	28997	27640	171356	26864	1052663	44955	110779	0	0	7971	642368	0	0
2024-07-20 04:08:47			0	35495	0	0	0	28989	27620	171388	26871	1052628	44953	110776	0	0	7969	643951	0	0
2024-07-20 04:09:47			0	35486	0	0	0	28986	27620	171420	27074	1052565	44953	110775	0	0	7968	644339	0	0
2024-07-20 04:10:47			0	35489	0	0	0	28981	27620	171460	26840	1052601	44953	110773	0	0	7968	644210	0	0
2024-07-20 04:11:47			0	35498	0	0	0	28976	27600	171420	26902	1052538	44940	110771	0	0	7969	643895	0	0
2024-07-20 04:12:47			0	35493	0	0	0	28976	27610	171516	26795	1052520	44951	110771	0	0	7969	644074	0	0
2024-07-20 04:13:47			0	35505	0	0	0	28976	27610	171540	27128	1052583	44963	110771	0	0	7969	643556	0	0
2024-07-20 04:14:47			0	35480	0	0	0	28979	27610	171584	26961	1052574	44951	110772	0	0	7968	644636	0	0
2024-07-20 04:15:47			0	35496	0	0	0	28979	27600	171436	27031	1052476	44951	110772	0	0	7969	643982	0	0
2024-07-20 04:16:47			0	35507	0	0	0	28979	27600	171564	26550	1052503	44940	110772	0	0	7969	643507	0	0
2024-07-20 04:17:47			0	35516	0	0	0	28971	27590	171328	26814	1052512	44971	110769	0	0	7970	643156	0	0
2024-07-20 04:18:47			0	35520	0	0	0	28966	27590	171452	27012	1052494	44939	110767	0	0	7970	642984	0	0
2024-07-20 04:19:47			0	35511	0	0	0	28963	27590	171396	26876	1052521	44961	110766	0	0	7970	643372	0	0
2024-07-20 04:20:47			0	35518	0	0	0	28966	27590	171408	26849	1052458	44949	110767	0	0	7970	643070	0	0
2024-07-20 04:21:47			0	35512	0	0	0	28958	27580	171472	26785	1052476	44960	110764	0	0	7970	643366	0	0
2024-07-20 04:22:47			0	35502	0	0	0	28961	27580	171412	27062	1052467	44959	110765	0	0	7969	643797	0	0
2024-07-20 04:23:47			0	35470	0	0	0	28953	27580	171656	26805	1052440	44937	110762	0	0	7967	645179	0	0
2024-07-20 04:24:47			0	35471	0	0	0	28958	27570	171676	26911	1052404	44948	110764	0	0	7967	645173	0	0
2024-07-20 04:25:47			0	35473	0	0	0	28961	27580	171768	26896	1052467	44937	110765	0	0	7967	645049	0	0
2024-07-20 04:26:47			0	35464	0	0	0	28961	27570	171844	27008	1052404	44959	110765	0	0	7967	645475	0	0
2024-07-20 04:27:47			0	35443	0	0	0	28948	27580	171920	26778	1052440	44959	110760	0	0	7966	646347	0	0
2024-07-20 04:28:47			0	35429	0	0	0	28958	27580	171932	27062	1052422	44960	110764	0	0	7965	646953	0	0
2024-07-20 04:29:47			0	35434	0	0	0	28948	27560	172020	27102	1052414	44969	110760	0	0	7965	646811	0	0
2024-07-20 04:30:47			0	35412	0	0	0	28945	27570	171968	27208	1052404	44959	110759	0	0	7964	647727	0	0
2024-07-20 04:31:47			0	35409	0	0	0	28942	27560	171968	26641	1052378	44958	110758	0	0	7964	647894	0	0
2024-07-20 04:32:47			0	35393	0	0	0	28929	27570	172012	26944	1052396	44958	110753	0	0	7963	648550	0	0
2024-07-20 04:33:47			0	35404	0	0	0	28922	27550	172008	26974	1052315	44958	110750	0	0	7964	648148	0	0
2024-07-20 04:34:47			0	35394	0	0	0	28919	27550	172104	27048	1052315	44958	110749	0	0	7963	648582	0	0
2024-07-20 04:35:47			0	35394	0	0	0	28914	27550	172084	26942	1052279	44934	110747	0	0	7963	648582	0	0
2024-07-20 04:36:47			0	35377	0	0	0	28903	27550	172128	26852	1052279	44945	110743	0	0	7962	649320	0	0
2024-07-20 04:37:47			0	35385	0	0	0	28896	27550	172164	26705	1052253	44923	110740	0	0	7963	648972	0	0
2024-07-20 04:38:47			0	35372	0	0	0	28883	27550	172184	27038	1052172	44945	110735	0	0	7962	649537	0	0
2024-07-20 04:39:47			0	35363	0	0	0	28890	27530	172312	26986	1052145	44933	110738	0	0	7962	650003	0	0
2024-07-20 04:40:47			0	35355	0	0	0	28880	27520	172312	27090	1052073	44942	110734	0	0	7961	650388	0	0
2024-07-20 04:41:47			0	35364	0	0	0	28877	27520	172260	27031	1052073	44942	110733	0	0	7962	649996	0	0
2024-07-20 04:42:47			0	35338	0	0	0	28864	27510	172216	26781	1052065	44942	110728	0	0	7960	651165	0	0
2024-07-20 04:43:47			0	35354	0	0	0	28859	27500	172228	26968	1051993	44919	110726	0	0	7961	650506	0	0
2024-07-20 04:44:47			0	35347	0	0	0	28849	27500	172264	27140	1052020	44942	110722	0	0	7961	650811	0	0
2024-07-20 04:45:47			0	35354	0	0	0	28841	27490	172428	27092	1051949	44941	110719	0	0	7962	650543	0	0
2024-07-20 04:46:47			0	35350	0	0	0	28833	27490	172424	27072	1051949	44952	110716	0	0	7962	650717	0	0
2024-07-20 04:47:47			0	35344	0	0	0	28833	27490	172580	26998	1051913	44940	110716	0	0	7961	650978	0	0
2024-07-20 04:48:47			0	35346	0	0	0	28825	27480	172520	27072	1051895	44939	110713	0	0	7961	650929	0	0
2024-07-20 04:49:47			0	35347	0	0	0	28810	27470	172440	26764	1051850	44938	110707	0	0	7962	650923	0	0
2024-07-20 04:50:47			0	35350	0	0	0	28812	27460	172384	26908	1051842	44925	110708	0	0	7962	650830	0	0
2024-07-20 04:51:47			0	35348	0	0	0	28805	27460	172464	26764	1051779	44948	110705	0	0	7962	650917	0	0
2024-07-20 04:52:47			0	35339	0	0	0	28805	27460	172488	27003	1051779	44937	110705	0	0	7961	651308	0	0
2024-07-20 04:53:47			0	35327	0	0	0	28799	27450	172608	26726	1051824	44948	110703	0	0	7961	651868	0	0
2024-07-20 04:54:47			0	35353	0	0	0	28802	27450	172576	26708	1051788	44947	110704	0	0	7962	650737	0	0
2024-07-20 04:55:47			0	35335	0	0	0	28802	27430	172708	26847	1051789	44935	110704	0	0	7961	651595	0	0
2024-07-20 04:56:47			0	35342	0	0	0	28805	27440	172620	26708	1051770	44946	110705	0	0	7961	651253	0	0
2024-07-20 04:57:47			0	35344	0	0	0	28812	27440	172696	27185	1051770	44946	110708	0	0	7961	651166	0	0
2024-07-20 04:58:47			0	35343	0	0	0	28815	27440	172716	26944	1051752	44946	110709	0	0	7961	651209	0	0
2024-07-20 04:59:47			0	35333	0	0	0	28807	27440	172600	27150	1051770	44935	110706	0	0	7961	651644	0	0
2024-07-20 05:00:47			0	35360	0	0	0	28802	27440	172456	26925	1051752	44958	110704	0	0	7962	650469	0	0
2024-07-20 05:01:47			0	35373	0	0	0	28797	27440	172504	26906	1051779	44958	110702	0	0	7963	649904	0	0
2024-07-20 05:02:47			0	35378	0	0	0	28799	27440	172500	27147	1051744	44935	110703	0	0	7964	649687	0	0
2024-07-20 05:03:47			0	35381	0	0	0	28805	27430	172368	26660	1051654	44935	110705	0	0	7964	649594	0	0
2024-07-20 05:04:47			0	35372	0	0	0	28802	27430	172336	27119	1051735	44946	110704	0	0	7963	649985	0	0
2024-07-20 05:05:47			0	35376	0	0	0	28807	27430	172412	27105	1051699	44934	110706	0	0	7963	649811	0	0
2024-07-20 05:06:47			0	35390	0	0	0	28794	27420	172392	27069	1051663	44921	110701	0	0	7964	649241	0	0
2024-07-20 05:07:47			0	35364	0	0	0	28784	27430	172388	26994	1051654	44923	110697	0	0	7963	650333	0	0
2024-07-20 05:08:47			0	35379	0	0	0	28771	27420	172436	27097	1051609	44921	110692	0	0	7964	649718	0	0
2024-07-20 05:09:47			0	35350	0	0	0	28768	27420	172648	27229	1051601	44944	110691	0	0	7962	650979	0	0
2024-07-20 05:10:47			0	35333	0	0	0	28768	27410	172684	27197	1051529	44932	110691	0	0	7961	651757	0	0
2024-07-20 05:11:47			0	35344	0	0	0	28784	27410	172704	26812	1051583	44932	110697	0	0	7962	651278	0	0
2024-07-20 05:12:47			0	35160	0	0	0	28776	27410	173536	26821	1051592	44943	110694	0	0	7950	659324	0	0
2024-07-20 05:13:47			0	34899	0	0	0	28774	27400	174787	26790	1051538	44941	110693	0	0	7934	670902	0	0
2024-07-20 05:14:47			0	34745	0	0	0	28755	27400	175799	26800	1051484	44941	110686	0	0	7924	677782	0	0
2024-07-20 05:15:47			0	34597	0	0	0	28742	27400	176375	26916	1051511	44930	110681	0	0	7915	684445	0	0
2024-07-20 05:16:47			0	34486	0	0	0	28740	27390	176911	27036	1051448	44930	110680	0	0	7908	689514	0	0
2024-07-20 05:17:47			0	34426	0	0	0	28737	27390	177247	26892	1051359	44930	110679	0	0	7904	692245	0	0
2024-07-20 05:18:47			0	34382	0	0	0	28735	27380	177347	26826	1051395	44928	110678	0	0	7901	694293	0	0
2024-07-20 05:19:47			0	34338	0	0	0	28748	27380	177538	27156	1051341	44928	110683	0	0	7898	696305	0	0
2024-07-20 05:20:47			0	34323	0	0	0	28750	27380	177626	27026	1051368	44951	110684	0	0	7897	696993	0	0
2024-07-20 05:21:47			0	34308	0	0	0	28745	27370	177854	26819	1051386	44917	110682	0	0	7896	697720	0	0
2024-07-20 05:22:47			0	34294	0	0	0	28745	27370	177830	26972	1051404	44928	110682	0	0	7895	698363	0	0
2024-07-20 05:23:47			0	34296	0	0	0	28737	27370	178022	26757	1051413	44928	110679	0	0	7896	698271	0	0
2024-07-20 05:24:47			0	34268	0	0	0	28742	27360	177894	26870	1051386	44937	110681	0	0	7894	699597	0	0
2024-07-20 05:25:47			0	34259	0	0	0	28735	27360	177938	27031	1051395	44927	110678	0	0	7893	700011	0	0
2024-07-20 05:26:47			0	34279	0	0	0	28724	27360	177870	26934	1051315	44927	110674	0	0	7895	699092	0	0
2024-07-20 05:27:47			0	34266	0	0	0	28711	27350	177830	27164	1051270	44949	110669	0	0	7894	699729	0	0
2024-07-20 05:28:47			0	34259	0	0	0	28714	27350	177978	26748	1051315	44926	110670	0	0	7893	700051	0	0
2024-07-20 05:29:47			0	34235	0	0	0	28696	27350	178034	26797	1051243	44937	110663	0	0	7892	701155	0	0
2024-07-20 05:30:47			0	34189	0	0	0	28680	27350	178206	26961	1051181	44937	110657	0	0	7889	703276	0	0
2024-07-20 05:31:47			0	34185	0	0	0	28680	27340	178346	27104	1051163	44914	110657	0	0	7889	703501	0	0
2024-07-20 05:32:47			0	34128	0	0	0	28667	27330	178566	26849	1051127	44923	110652	0	0	7886	706176	0	0
2024-07-20 05:33:47			0	34110	0	0	0	28659	27330	178734	26951	1051091	44913	110649	0	0	7884	707010	0	0
2024-07-20 05:34:47			0	34078	0	0	0	28654	27320	178850	27039	1051020	44900	110647	0	0	7882	708535	0	0
2024-07-20 05:35:47			0	34048	0	0	0	28664	27310	179006	26838	1051029	44921	110651	0	0	7880	709970	0	0
2024-07-20 05:36:47			0	34035	0	0	0	28657	27320	179098	27097	1051047	44922	110648	0	0	7879	710533	0	0
2024-07-20 05:37:47			0	34010	0	0	0	28651	27310	179222	26880	1050975	44921	110646	0	0	7878	711738	0	0
2024-07-20 05:38:47			0	34008	0	0	0	28646	27300	179366	26710	1050931	44932	110644	0	0	7878	711872	0	0
2024-07-20 05:39:47			0	33964	0	0	0	28628	27280	179466	26469	1050958	44919	110637	0	0	7875	714007	0	0
2024-07-20 05:40:47			0	33946	0	0	0	28594	27290	179550	27182	1050913	44909	110624	0	0	7874	714807	0	0
2024-07-20 05:41:47			0	33935	0	0	0	28566	27280	179710	26798	1050761	44918	110613	0	0	7874	715362	0	0
2024-07-20 05:42:47			0	33920	0	0	0	28561	27270	179806	26868	1050716	44906	110611	0	0	7873	716105	0	0
2024-07-20 05:43:47			0	33903	0	0	0	28529	27250	179986	26672	1050663	44894	110599	0	0	7873	716984	0	0
2024-07-20 05:44:47			0	33879	0	0	0	28535	27230	180046	26809	1050439	44892	110601	0	0	7871	718192	0	0
2024-07-20 05:45:47			0	33858	0	0	0	28524	27210	180070	27053	1050439	44914	110597	0	0	7869	719260	0	0
2024-07-20 05:46:47			0	33854	0	0	0	28506	27200	180146	26689	1050368	44900	110590	0	0	7869	719490	0	0
2024-07-20 05:47:47			0	33847	0	0	0	28488	27190	180150	26802	1050341	44911	110583	0	0	7869	719860	0	0
2024-07-20 05:48:47			0	33845	0	0	0	28464	27180	180202	26767	1050198	44898	110574	0	0	7869	719995	0	0
2024-07-20 05:49:47			0	33822	0	0	0	28441	27170	180322	26963	1050172	44875	110565	0	0	7868	721119	0	0
2024-07-20 05:50:47			0	33804	0	0	0	28415	27150	180534	26864	1050055	44895	110555	0	0	7867	722050	0	0
2024-07-20 05:51:47			0	33768	0	0	0	28361	27140	180718	27123	1049984	44882	110534	0	0	7866	723790	0	0
2024-07-20 05:52:47			0	33865	0	0	0	28210	27120	180230	26653	1049680	44870	110476	0	0	7875	719303	0	0
2024-07-20 05:53:47			0	33965	0	0	0	28137	27080	179730	27215	1049367	44833	110448	0	0	7882	714780	0	0
2024-07-20 05:54:47			0	34112	0	0	0	28173	27050	179114	26797	1049180	44818	110462	0	0	7891	708055	0	0
2024-07-20 05:55:47			0	34049	0	0	0	28228	27010	179502	27039	1049108	44825	110483	0	0	7886	711147	0	0
2024-07-20 05:56:47			0	34039	0	0	0	28267	26990	179434	26651	1049136	44857	110498	0	0	7885	711694	0	0
2024-07-20 05:57:47			0	34058	0	0	0	28257	26960	179602	27178	1049083	44854	110494	0	0	7886	710931	0	0
2024-07-20 05:58:47			0	34039	0	0	0	28233	26960	179770	26963	1049083	44866	110485	0	0	7885	711816	0	0
2024-07-20 05:59:47			0	34064	0	0	0	28272	26950	179414	27154	1049056	44864	110500	0	0	7886	710693	0	0
2024-07-20 06:00:47			0	34092	0	0	0	28267	26930	179378	26996	1049119	44885	110498	0	0	7888	709472	0	0
2024-07-20 06:01:47			0	34112	0	0	0	28251	26940	179250	27069	1049047	44875	110492	0	0	7889	708502	0	0
2024-07-20 06:02:47			0	34114	0	0	0	28270	26930	179242	26946	1049092	44874	110499	0	0	7889	708449	0	0
2024-07-20 06:03:47			0	34088	0	0	0	28241	26930	179582	26909	1048976	44873	110488	0	0	7888	709658	0	0
2024-07-20 06:04:47			0	34030	0	0	0	28246	26910	179822	26930	1048886	44871	110490	0	0	7884	712440	0	0
2024-07-20 06:05:47			0	34002	0	0	0	28218	26890	179990	26911	1048779	44859	110479	0	0	7882	713829	0	0
2024-07-20 06:06:47			0	33967	0	0	0	28186	26880	180114	27109	1048807	44857	110467	0	0	7880	715507	0	0
2024-07-20 06:07:47			0	33952	0	0	0	28275	26870	180274	26713	1048762	44867	110501	0	0	7878	716250	0	0
2024-07-20 06:08:47			0	34009	0	0	0	28249	26860	179922	26804	1048726	44888	110491	0	0	7882	713625	0	0
2024-07-20 06:09:47			0	34046	0	0	0	28231	26860	179802	27001	1048744	44888	110484	0	0	7885	711898	0	0
2024-07-20 06:10:47			0	34007	0	0	0	28225	26840	179986	26868	1048745	44886	110482	0	0	7882	713800	0	0
2024-07-20 06:11:47			0	33963	0	0	0	28324	26850	180350	27012	1048816	44877	110520	0	0	7878	715817	0	0
2024-07-20 06:12:47			0	33999	0	0	0	28257	26840	180166	26937	1048745	44886	110494	0	0	7881	714174	0	0
2024-07-20 06:13:47			0	34112	0	0	0	28259	26850	179346	26710	1048736	44888	110495	0	0	7889	708867	0	0
2024-07-20 06:14:47			0	34181	0	0	0	28270	26860	179162	26564	1048825	44911	110499	0	0	7893	705626	0	0
2024-07-20 06:15:47			0	34153	0	0	0	28275	26860	179218	26654	1048852	44877	110501	0	0	7891	706924	0	0
2024-07-20 06:16:47			0	34132	0	0	0	28309	26860	179382	26700	1048825	44900	110514	0	0	7889	707898	0	0
2024-07-20 06:17:47			0	34060	0	0	0	28283	26850	179758	26476	1048816	44921	110504	0	0	7885	711287	0	0
2024-07-20 06:18:47			0	33996	0	0	0	28296	26850	180286	26684	1048834	44920	110509	0	0	7880	714273	0	0
2024-07-20 06:19:47			0	33895	0	0	0	28327	26850	180750	26805	1048834	44899	110521	0	0	7873	719007	0	0
2024-07-20 06:20:47			0	33886	0	0	0	28319	26860	180606	26786	1048914	44900	110518	0	0	7873	719389	0	0
2024-07-20 06:21:47			0	33835	0	0	0	28337	26860	180946	26876	1048906	44900	110525	0	0	7869	721790	0	0
2024-07-20 06:22:47			0	33841	0	0	0	28327	26870	181034	26920	1048932	44913	110521	0	0	7870	721465	0	0
2024-07-20 06:23:47			0	33862	0	0	0	28340	26880	180638	26842	1049048	44913	110526	0	0	7871	720435	0	0
2024-07-20 06:24:47			0	33885	0	0	0	28350	26880	180654	26719	1049057	44901	110530	0	0	7872	719353	0	0
2024-07-20 06:25:47			0	33917	0	0	0	28368	26880	180474	27060	1049057	44901	110537	0	0	7874	717850	0	0
2024-07-20 06:26:47			0	33942	0	0	0	28376	26900	180278	26837	1049120	44904	110540	0	0	7876	716596	0	0
2024-07-20 06:27:47			0	34001	0	0	0	28402	26890	180206	26670	1049129	44915	110550	0	0	7879	713876	0	0
2024-07-20 06:28:47			0	33997	0	0	0	28444	26910	180062	26597	1049236	44916	110566	0	0	7878	713981	0	0
2024-07-20 06:29:47			0	34012	0	0	0	28475	26920	179906	27038	1049334	44938	110578	0	0	7879	713240	0	0
2024-07-20 06:30:47			0	34017	0	0	0	28454	26930	179954	26986	1049406	44917	110570	0	0	7880	712965	0	0
2024-07-20 06:31:47			0	34029	0	0	0	28490	26960	179938	26982	1049611	44931	110584	0	0	7880	712283	0	0
2024-07-20 06:32:47			0	34046	0	0	0	28493	26970	179806	27098	1049575	44932	110585	0	0	7881	711449	0	0
2024-07-20 06:33:47			0	34052	0	0	0	28503	26980	179790	26845	1049647	44922	110589	0	0	7881	711129	0	0
2024-07-20 06:34:47			0	34042	0	0	0	28509	27010	179690	27206	1049753	44947	110591	0	0	7881	711473	0	0
2024-07-20 06:35:47			0	34043	0	0	0	28483	27020	179606	27034	1049825	44938	110581	0	0	7881	711385	0	0
2024-07-20 06:36:47			0	34087	0	0	0	28457	27020	179446	26842	1049807	44938	110571	0	0	7885	709338	0	0
2024-07-20 06:37:47			0	34143	0	0	0	28433	27040	179174	27171	1049726	44917	110562	0	0	7889	706658	0	0
2024-07-20 06:38:47			0	34139	0	0	0	28431	27020	179126	27022	1049664	44916	110561	0	0	7888	706924	0	0
2024-07-20 06:39:47			0	34129	0	0	0	28410	27020	179206	27201	1049646	44893	110553	0	0	7888	707388	0	0
2024-07-20 06:40:47			0	34097	0	0	0	28384	27040	179298	27168	1049645	44917	110543	0	0	7887	708792	0	0
2024-07-20 06:41:47			0	34065	0	0	0	28371	27030	179534	27123	1049628	44905	110538	0	0	7885	710320	0	0
2024-07-20 06:42:47			0	33990	0	0	0	28368	27010	179946	27137	1049521	44904	110537	0	0	7880	713899	0	0
2024-07-20 06:43:47			0	33957	0	0	0	28374	27020	180074	26885	1049530	44893	110539	0	0	7877	715401	0	0
2024-07-20 06:44:47			0	33928	0	0	0	28376	27010	180310	26882	1049494	44904	110540	0	0	7875	716800	0	0
2024-07-20 06:45:47			0	33916	0	0	0	28381	27010	180474	27052	1049538	44891	110542	0	0	7875	717362	0	0
2024-07-20 06:46:47			0	33908	0	0	0	28384	27000	180322	27072	1049503	44903	110543	0	0	7874	717779	0	0
2024-07-20 06:47:47			0	33904	0	0	0	28379	27000	180342	27100	1049503	44891	110541	0	0	7874	717967	0	0
2024-07-20 06:48:47			0	33880	0	0	0	28379	27000	180462	27206	1049530	44903	110541	0	0	7872	719093	0	0
2024-07-20 06:49:47			0	33882	0	0	0	28366	27000	180442	26870	1049503	44903	110536	0	0	7872	719000	0	0
2024-07-20 06:50:47			0	33856	0	0	0	28386	27000	180582	26854	1049422	44880	110544	0	0	7870	720222	0	0
2024-07-20 06:51:47			0	33835	0	0	0	28436	27000	180894	27187	1049413	44902	110563	0	0	7868	721210	0	0
2024-07-20 06:52:47			0	33827	0	0	0	28428	26980	180714	27000	1049432	44911	110560	0	0	7868	721670	0	0
2024-07-20 06:53:47			0	33856	0	0	0	28431	26990	180590	27138	1049485	44902	110561	0	0	7870	720263	0	0
2024-07-20 06:54:47			0	33900	0	0	0	28441	27000	180394	27171	1049521	44902	110565	0	0	7872	718154	0	0
2024-07-20 06:55:47			0	33936	0	0	0	28446	27000	180346	26894	1049583	44914	110567	0	0	7875	716466	0	0
2024-07-20 06:56:47			0	33935	0	0	0	28438	27010	180150	27163	1049592	44936	110564	0	0	7875	716472	0	0
2024-07-20 06:57:47			0	33994	0	0	0	28441	27010	179950	27253	1049673	44903	110565	0	0	7879	713712	0	0
2024-07-20 06:58:47			0	34026	0	0	0	28449	27010	179550	26993	1049736	44915	110568	0	0	7881	712218	0	0
2024-07-20 06:59:47			0	34086	0	0	0	28454	27030	179446	27045	1049655	44916	110570	0	0	7885	709344	0	0
2024-07-20 07:00:47			0	34118	0	0	0	28415	27020	179242	26835	1049619	44905	110555	0	0	7887	707898	0	0
2024-07-20 07:01:47			0	34174	0	0	0	28363	27030	178894	27031	1049628	44916	110535	0	0	7892	705263	0	0
2024-07-20 07:02:47			0	34226	0	0	0	28350	27020	178554	27026	1049610	44905	110530	0	0	7896	702900	0	0
2024-07-20 07:03:47			0	34317	0	0	0	28355	27030	178218	26793	1049628	44916	110532	0	0	7902	698670	0	0
2024-07-20 07:04:47			0	34362	0	0	0	28350	27020	177927	26764	1049583	44905	110530	0	0	7904	696646	0	0
2024-07-20 07:05:47			0	34386	0	0	0	28290	27010	177763	27206	1049494	44892	110507	0	0	7907	695586	0	0
2024-07-20 07:06:47			0	34431	0	0	0	28301	27010	177531	26765	1049431	44891	110511	0	0	7910	693529	0	0
2024-07-20 07:07:47			0	34487	0	0	0	28340	26990	177347	27119	1049369	44889	110526	0	0	7913	691054	0	0
2024-07-20 07:08:47			0	34515	0	0	0	28410	27000	177323	27124	1049440	44902	110553	0	0	7913	689740	0	0
2024-07-20 07:09:47			0	34461	0	0	0	28410	26980	177583	26944	1049521	44901	110553	0	0	7910	692279	0	0
2024-07-20 07:10:47			0	34426	0	0	0	28355	27000	177787	27038	1049521	44902	110532	0	0	7908	693797	0	0
2024-07-20 07:11:47			0	34407	0	0	0	28272	27000	177663	26968	1049467	44890	110500	0	0	7909	694665	0	0
2024-07-20 07:12:47			0	34444	0	0	0	28267	26980	177595	26897	1049333	44878	110498	0	0	7911	693055	0	0
2024-07-20 07:13:47			0	34506	0	0	0	28275	26980	177319	26942	1049306	44878	110501	0	0	7915	690229	0	0
2024-07-20 07:14:47			0	34571	0	0	0	28259	26970	176927	26875	1049235	44867	110495	0	0	7919	687315	0	0
2024-07-20 07:15:47			0	34651	0	0	0	28241	26960	176747	27007	1049190	44866	110488	0	0	7925	683733	0	0
2024-07-20 07:16:47			0	34673	0	0	0	28262	26960	176555	26981	1049181	44875	110496	0	0	7926	682740	0	0
2024-07-20 07:17:47			0	34706	0	0	0	28270	26950	176443	26835	1049199	44886	110499	0	0	7928	681291	0	0
2024-07-20 07:18:47			0	34711	0	0	0	28257	26940	176339	26831	1049182	44886	110494	0	0	7928	681105	0	0
2024-07-20 07:19:47			0	34724	0	0	0	28254	26930	176207	26982	1049065	44885	110493	0	0	7929	680559	0	0
2024-07-20 07:20:47			0	34735	0	0	0	28259	26930	176191	26948	1049119	44896	110495	0	0	7930	680063	0	0
2024-07-20 07:21:47			0	34733	0	0	0	28267	26930	176263	27176	1049065	44885	110498	0	0	7929	680153	0	0
2024-07-20 07:22:47			0	34758	0	0	0	28251	26920	176199	26790	1049039	44872	110492	0	0	7931	679068	0	0
2024-07-20 07:23:47			0	34755	0	0	0	28246	26920	176139	26996	1049039	44883	110490	0	0	7931	679203	0	0
2024-07-20 07:24:47			0	34777	0	0	0	28236	26910	176039	26710	1049003	44872	110486	0	0	7933	678253	0	0
2024-07-20 07:25:47			0	34785	0	0	0	28231	26900	175943	27074	1049003	44870	110484	0	0	7933	677933	0	0
2024-07-20 07:26:47			0	34808	0	0	0	28249	26900	175815	26797	1048958	44871	110491	0	0	7934	676901	0	0
2024-07-20 07:27:47			0	34834	0	0	0	28264	26900	175739	26906	1049057	44870	110497	0	0	7936	675736	0	0
2024-07-20 07:28:47			0	34826	0	0	0	28280	26900	175739	27121	1048976	44892	110503	0	0	7935	676095	0	0
2024-07-20 07:29:47			0	34855	0	0	0	28296	26890	175723	27296	1049075	44892	110509	0	0	7936	674835	0	0
2024-07-20 07:30:47			0	34849	0	0	0	28290	26900	175627	26674	1049111	44881	110507	0	0	7936	675065	0	0
2024-07-20 07:31:47			0	34809	0	0	0	28293	26920	175883	26864	1049119	44905	110508	0	0	7934	676779	0	0
2024-07-20 07:32:47			0	34816	0	0	0	28290	26910	175839	26909	1049030	44894	110507	0	0	7934	676504	0	0
2024-07-20 07:33:47			0	34787	0	0	0	28270	26910	175887	27156	1049084	44894	110499	0	0	7933	677805	0	0
2024-07-20 07:34:47			0	34780	0	0	0	28272	26900	175951	26856	1049093	44882	110500	0	0	7932	678158	0	0
2024-07-20 07:35:47			0	34792	0	0	0	28298	26910	175943	26972	1049111	44905	110510	0	0	7932	677580	0	0
2024-07-20 07:36:47			0	34796	0	0	0	28301	26920	175855	26866	1049119	44905	110511	0	0	7933	677362	0	0
2024-07-20 07:37:47			0	34778	0	0	0	28316	26910	175999	27190	1049164	44905	110517	0	0	7931	678209	0	0
2024-07-20 07:38:47			0	34744	0	0	0	28316	26910	176159	27171	1049084	44894	110517	0	0	7929	679736	0	0
2024-07-20 07:39:47			0	34715	0	0	0	28296	26910	176363	27107	1049191	44894	110509	0	0	7928	681042	0	0
2024-07-20 07:40:47			0	34706	0	0	0	28290	26920	176355	26741	1049119	44883	110507	0	0	7927	681408	0	0
2024-07-20 07:41:47			0	34682	0	0	0	28303	26910	176407	27119	1049111	44883	110512	0	0	7925	682529	0	0
2024-07-20 07:42:47			0	34695	0	0	0	28303	26910	176315	27223	1049057	44872	110512	0	0	7926	681943	0	0
2024-07-20 07:43:47			0	34685	0	0	0	28277	26900	176455	26762	1048985	44882	110502	0	0	7926	682433	0	0
2024-07-20 07:44:47			0	34657	0	0	0	28267	26890	176611	26826	1048967	44870	110498	0	0	7924	683737	0	0
2024-07-20 07:45:47			0	34637	0	0	0	28270	26890	176671	27107	1048959	44880	110499	0	0	7923	684641	0	0
2024-07-20 07:46:47			0	34622	0	0	0	28272	26890	176811	27303	1049021	44881	110500	0	0	7922	685319	0	0
2024-07-20 07:47:47			0	34602	0	0	0	28285	26900	176867	26648	1049003	44881	110505	0	0	7920	686186	0	0
2024-07-20 07:48:47			0	34621	0	0	0	28280	26900	176659	26958	1049012	44893	110503	0	0	7922	685325	0	0
2024-07-20 07:49:47			0	34654	0	0	0	28277	26900	176655	26987	1049039	44893	110502	0	0	7924	683833	0	0
2024-07-20 07:50:47			0	34650	0	0	0	28262	26900	176675	27053	1048985	44882	110496	0	0	7924	684014	0	0
2024-07-20 07:51:47			0	34637	0	0	0	28249	26880	176595	27166	1048941	44879	110491	0	0	7923	684680	0	0
2024-07-20 07:52:47			0	34623	0	0	0	28251	26880	176779	26840	1048896	44868	110492	0	0	7922	685313	0	0
2024-07-20 07:53:47			0	34594	0	0	0	28246	26870	176875	27327	1048905	44868	110490	0	0	7920	686666	0	0
2024-07-20 07:54:47			0	34562	0	0	0	28231	26870	177071	27116	1048896	44889	110484	0	0	7919	688118	0	0
2024-07-20 07:55:47			0	34527	0	0	0	28236	26870	177311	26956	1048878	44879	110486	0	0	7916	689709	0	0
2024-07-20 07:56:47			0	34538	0	0	0	28233	26870	177191	26857	1048843	44878	110485	0	0	7917	689208	0	0
2024-07-20 07:57:47			0	34540	0	0	0	28236	26860	177135	27086	1048691	44866	110486	0	0	7917	689157	0	0
2024-07-20 07:58:47			0	34530	0	0	0	28238	26840	177231	27592	1048799	44864	110487	0	0	7916	689691	0	0
2024-07-20 07:59:47			0	34522	0	0	0	28249	26850	177311	26925	1048861	44887	110491	0	0	7916	690015	0	0
2024-07-20 08:00:47			0	34517	0	0	0	28246	26840	177391	27206	1048799	44886	110490	0	0	7915	690282	0	0
2024-07-20 08:01:47			0	34530	0	0	0	28233	26840	177315	27066	1048825	44898	110485	0	0	7916	689691	0	0
2024-07-20 08:02:47			0	34538	0	0	0	28246	26850	177447	26805	1048727	44876	110490	0	0	7917	689287	0	0
2024-07-20 08:03:47			0	34536	0	0	0	28236	26840	177175	27225	1048825	44875	110486	0	0	7917	689418	0	0
2024-07-20 08:04:47			0	34566	0	0	0	28212	26840	177195	26819	1048790	44875	110477	0	0	7919	688055	0	0
2024-07-20 08:05:47			0	34567	0	0	0	28210	26840	177087	27046	1048745	44864	110476	0	0	7919	688009	0	0
2024-07-20 08:06:47			0	34570	0	0	0	28207	26850	177103	27079	1048727	44887	110475	0	0	7919	687834	0	0
2024-07-20 08:07:47			0	34582	0	0	0	28207	26840	177035	26616	1048709	44886	110475	0	0	7920	687328	0	0
2024-07-20 08:08:47			0	34600	0	0	0	28202	26820	176899	26908	1048736	44884	110473	0	0	7921	686591	0	0
2024-07-20 08:09:47			0	34617	0	0	0	28194	26840	176779	27031	1048709	44898	110470	0	0	7923	685742	0	0
2024-07-20 08:10:47			0	34657	0	0	0	28194	26830	176799	26915	1048718	44885	110470	0	0	7925	683972	0	0
2024-07-20 08:11:47			0	34696	0	0	0	28228	26830	176543	26968	1048781	44897	110483	0	0	7927	682211	0	0
2024-07-20 08:12:47			0	34741	0	0	0	28228	26830	176287	27064	1048754	44885	110483	0	0	7930	680183	0	0
2024-07-20 08:13:47			0	34763	0	0	0	28246	26830	176095	27033	1048754	44885	110490	0	0	7931	679194	0	0
2024-07-20 08:14:47			0	34742	0	0	0	28223	26840	176227	27216	1048763	44886	110481	0	0	7930	680099	0	0
2024-07-20 08:15:47			0	34698	0	0	0	28225	26840	176383	26870	1048763	44886	110482	0	0	7927	682081	0	0
2024-07-20 08:16:47			0	34686	0	0	0	28212	26840	176559	27090	1048790	44886	110477	0	0	7927	682623	0	0
2024-07-20 08:17:47			0	34660	0	0	0	28210	26840	176707	26691	1048799	44886	110476	0	0	7925	683797	0	0
2024-07-20 08:18:47			0	34649	0	0	0	28202	26830	176671	27072	1048727	44885	110473	0	0	7925	684333	0	0
2024-07-20 08:19:47			0	34660	0	0	0	28205	26830	176583	27026	1048727	44885	110474	0	0	7925	683836	0	0
2024-07-20 08:20:47			0	34685	0	0	0	28194	26830	176583	27137	1048727	44864	110470	0	0	7927	682707	0	0
2024-07-20 08:21:47			0	34728	0	0	0	28192	26830	176355	26720	1048700	44885	110469	0	0	7930	680768	0	0
2024-07-20 08:22:47			0	34763	0	0	0	28202	26830	176183	26949	1048772	44885	110473	0	0	7932	679194	0	0
2024-07-20 08:23:47			0	34804	0	0	0	28205	26830	175983	27232	1048691	44875	110474	0	0	7934	677352	0	0
2024-07-20 08:24:47			0	34834	0	0	0	28218	26830	175803	26984	1048700	44864	110479	0	0	7936	676007	0	0
2024-07-20 08:25:47			0	34869	0	0	0	28215	26830	175495	26724	1048665	44897	110478	0	0	7938	674441	0	0
2024-07-20 08:26:47			0	34882	0	0	0	28202	26830	175475	26979	1048638	44875	110473	0	0	7939	673860	0	0
2024-07-20 08:27:47			0	34883	0	0	0	28205	26830	175539	26627	1048718	44885	110474	0	0	7939	673815	0	0
2024-07-20 08:28:47			0	34895	0	0	0	28197	26810	175551	26944	1048665	44873	110471	0	0	7940	673356	0	0
2024-07-20 08:29:47			0	34888	0	0	0	28199	26830	175647	26984	1048745	44885	110472	0	0	7940	673592	0	0
2024-07-20 08:30:47			0	34896	0	0	0	28194	26820	175447	27119	1048602	44874	110470	0	0	7940	673273	0	0
2024-07-20 08:31:47			0	34927	0	0	0	28199	26820	175423	26916	1048602	44896	110472	0	0	7942	671890	0	0
2024-07-20 08:32:47			0	34956	0	0	0	28212	26820	175087	27031	1048701	44883	110477	0	0	7944	670597	0	0
2024-07-20 08:33:47			0	35025	0	0	0	28202	26820	174887	27147	1048674	44873	110473	0	0	7948	667530	0	0
2024-07-20 08:34:47			0	35067	0	0	0	28207	26820	174631	27026	1048701	44895	110475	0	0	7951	665669	0	0
2024-07-20 08:35:47			0	35063	0	0	0	28207	26810	174695	27197	1048719	44883	110475	0	0	7951	665884	0	0
2024-07-20 08:36:47			0	35051	0	0	0	28218	26820	174795	26861	1048710	44896	110479	0	0	7950	666377	0	0
2024-07-20 08:37:47			0	35042	0	0	0	28215	26820	174787	26871	1048683	44884	110478	0	0	7949	666776	0	0
2024-07-20 08:38:47			0	35040	0	0	0	28210	26810	174823	26802	1048584	44873	110476	0	0	7949	666903	0	0
2024-07-20 08:39:47			0	34985	0	0	0	28218	26820	175035	26826	1048647	44873	110479	0	0	7946	669307	0	0
2024-07-20 08:40:47			0	34963	0	0	0	28231	26800	175135	26991	1048594	44872	110484	0	0	7944	670363	0	0
2024-07-20 08:41:47			0	34931	0	0	0	28189	26800	175259	27050	1048513	44872	110468	0	0	7943	671788	0	0
2024-07-20 08:42:47			0	34861	0	0	0	28184	26800	175699	26791	1048531	44881	110466	0	0	7938	674915	0	0
2024-07-20 08:43:47			0	34663	0	0	0	28129	26790	176487	26753	1048468	44871	110445	0	0	7926	683857	0	0
2024-07-20 08:44:47			0	34544	0	0	0	28090	26780	177267	26576	1048397	44880	110430	0	0	7919	689291	0	0
2024-07-20 08:45:47			0	34459	0	0	0	28064	26770	177763	26890	1048325	44858	110420	0	0	7914	693204	0	0
2024-07-20 08:46:47			0	34443	0	0	0	28057	26760	177871	27048	1048227	44845	110417	0	0	7913	693975	0	0
2024-07-20 08:47:47			0	34434	0	0	0	28054	26750	177859	26849	1048093	44855	110416	0	0	7913	694426	0	0
2024-07-20 08:48:47			0	34467	0	0	0	28038	26740	177803	27026	1048102	44854	110410	0	0	7915	692958	0	0
2024-07-20 08:49:47			0	34482	0	0	0	28038	26720	177583	26961	1047995	44853	110410	0	0	7916	692352	0	0
2024-07-20 08:50:47			0	34511	0	0	0	28033	26720	177491	26946	1048040	44852	110408	0	0	7918	691030	0	0
2024-07-20 08:51:47			0	34547	0	0	0	28036	26710	177483	26994	1047942	44862	110409	0	0	7920	689431	0	0
2024-07-20 08:52:47			0	34580	0	0	0	28038	26700	177231	27242	1047933	44851	110410	0	0	7922	687971	0	0
2024-07-20 08:53:47			0	34599	0	0	0	28033	26700	177123	27298	1047933	44851	110408	0	0	7923	687108	0	0
2024-07-20 08:54:47			0	34616	0	0	0	28031	26690	177123	27026	1047907	44859	110407	0	0	7925	686377	0	0
2024-07-20 08:55:47			0	34639	0	0	0	28031	26690	176931	27242	1047889	44872	110407	0	0	7926	685335	0	0
2024-07-20 08:56:47			0	34656	0	0	0	28038	26680	176939	27421	1047898	44859	110410	0	0	7927	684605	0	0
2024-07-20 08:57:47			0	34675	0	0	0	28054	26680	176739	27225	1047871	44859	110416	0	0	7928	683746	0	0
2024-07-20 08:58:47			0	34699	0	0	0	28080	26670	176615	27433	1047880	44858	110426	0	0	7929	682701	0	0
2024-07-20 08:59:47			0	34715	0	0	0	28085	26680	176711	27348	1047943	44859	110428	0	0	7930	681940	0	0
2024-07-20 09:00:47			0	34723	0	0	0	28135	26680	176567	27085	1047916	44871	110447	0	0	7930	681579	0	0
2024-07-20 09:01:47			0	34727	0	0	0	28171	26670	176547	27256	1048006	44891	110461	0	0	7929	681438	0	0
2024-07-20 09:02:47			0	34722	0	0	0	28194	26680	176591	27154	1048059	44881	110470	0	0	7929	681624	0	0
2024-07-20 09:03:47			0	34719	0	0	0	28215	26700	176611	26923	1048202	44907	110478	0	0	7928	681681	0	0
2024-07-20 09:04:47			0	34726	0	0	0	28215	26710	176619	27059	1048300	44895	110478	0	0	7929	681327	0	0
2024-07-20 09:05:47			0	34715	0	0	0	28228	26730	176639	26753	1048407	44909	110483	0	0	7928	681744	0	0
2024-07-20 09:06:47			0	34729	0	0	0	28202	26740	176579	27173	1048541	44899	110473	0	0	7929	681074	0	0
2024-07-20 09:07:47			0	34713	0	0	0	28197	26750	176687	26741	1048424	44899	110471	0	0	7928	681756	0	0
2024-07-20 09:08:47			0	34716	0	0	0	28207	26750	176683	26887	1048416	44877	110475	0	0	7928	681621	0	0
2024-07-20 09:09:47			0	34697	0	0	0	28192	26740	176623	26739	1048434	44899	110469	0	0	7927	682518	0	0
2024-07-20 09:10:47			0	34677	0	0	0	28155	26750	176763	26739	1048397	44888	110455	0	0	7927	683381	0	0
2024-07-20 09:11:47			0	34665	0	0	0	28150	26750	176807	26963	1048335	44888	110453	0	0	7926	683924	0	0
2024-07-20 09:12:47			0	34650	0	0	0	28129	26750	176727	27041	1048317	44877	110445	0	0	7925	684602	0	0
2024-07-20 09:13:47			0	34652	0	0	0	28054	26750	176799	26974	1048254	44866	110416	0	0	7927	684511	0	0
2024-07-20 09:14:47			0	34702	0	0	0	28018	26730	176403	26981	1048067	44853	110402	0	0	7931	682331	0	0
2024-07-20 09:15:47			0	34775	0	0	0	28077	26730	176175	26974	1048138	44841	110425	0	0	7934	679043	0	0
2024-07-20 09:16:47			0	34800	0	0	0	28124	26710	176115	27086	1048166	44874	110443	0	0	7935	677998	0	0
2024-07-20 09:17:47			0	34811	0	0	0	28103	26710	175975	27076	1048139	44874	110435	0	0	7936	677504	0	0
2024-07-20 09:18:47			0	34839	0	0	0	28103	26710	175931	27123	1048112	44884	110435	0	0	7938	676248	0	0
2024-07-20 09:19:47			0	34861	0	0	0	28064	26710	175935	27241	1048139	44874	110420	0	0	7940	675263	0	0
2024-07-20 09:20:47			0	34849	0	0	0	28062	26710	175979	27015	1048103	44874	110419	0	0	7939	675800	0	0
2024-07-20 09:21:47			0	34854	0	0	0	28036	26690	175795	26802	1047996	44849	110409	0	0	7940	675653	0	0
2024-07-20 09:22:47			0	34868	0	0	0	28080	26690	175799	27001	1047969	44860	110426	0	0	7940	675027	0	0
2024-07-20 09:23:47			0	34887	0	0	0	28070	26680	175723	26788	1048086	44848	110422	0	0	7941	674215	0	0
2024-07-20 09:24:47			0	34856	0	0	0	28090	26690	175751	27189	1047960	44859	110430	0	0	7939	675564	0	0
2024-07-20 09:25:47			0	34879	0	0	0	28101	26690	175823	26824	1047996	44872	110434	0	0	7940	674534	0	0
2024-07-20 09:26:47			0	34893	0	0	0	28106	26700	175767	26776	1048059	44861	110436	0	0	7941	673870	0	0
2024-07-20 09:27:47			0	34893	0	0	0	28096	26690	175775	27015	1048023	44872	110432	0	0	7941	673908	0	0
2024-07-20 09:28:47			0	34893	0	0	0	28106	26690	175631	26977	1048023	44882	110436	0	0	7941	673908	0	0
2024-07-20 09:29:47			0	34923	0	0	0	28109	26690	175675	27007	1048050	44872	110437	0	0	7943	672568	0	0
2024-07-20 09:30:47			0	34921	0	0	0	28114	26700	175439	27083	1048085	44883	110439	0	0	7943	672619	0	0
2024-07-20 09:31:47			0	34921	0	0	0	28111	26690	175531	27144	1048104	44882	110438	0	0	7943	672658	0	0
2024-07-20 09:32:47			0	34933	0	0	0	28109	26700	175559	27376	1048166	44883	110437	0	0	7944	672084	0	0
2024-07-20 09:33:47			0	34943	0	0	0	28098	26710	175411	26786	1048139	44895	110433	0	0	7944	671599	0	0
2024-07-20 09:34:47			0	34942	0	0	0	28093	26700	175471	27170	1048094	44874	110431	0	0	7944	671682	0	0
2024-07-20 09:35:47			0	34959	0	0	0	28077	26700	175463	27246	1048032	44873	110425	0	0	7946	670925	0	0
2024-07-20 09:36:47			0	34978	0	0	0	28070	26690	175279	27060	1047996	44860	110422	0	0	7947	670117	0	0
2024-07-20 09:37:47			0	34971	0	0	0	28062	26690	175315	27053	1047969	44882	110419	0	0	7947	670429	0	0
2024-07-20 09:38:47			0	34993	0	0	0	28020	26690	175147	26894	1047960	44859	110403	0	0	7949	669450	0	0
2024-07-20 09:39:47			0	35001	0	0	0	27984	26680	175091	26771	1047916	44848	110389	0	0	7950	669132	0	0
2024-07-20 09:40:47			0	35041	0	0	0	27979	26670	174843	26963	1047800	44847	110387	0	0	7952	667394	0	0
2024-07-20 09:41:47			0	35033	0	0	0	27999	26650	174971	27005	1047737	44845	110395	0	0	7951	667825	0	0
2024-07-20 09:42:47			0	35029	0	0	0	28012	26640	175039	26939	1047782	44867	110400	0	0	7951	668041	0	0
2024-07-20 09:43:47			0	35021	0	0	0	28018	26640	175059	27090	1047746	44867	110402	0	0	7950	668396	0	0
2024-07-20 09:44:47			0	35004	0	0	0	28015	26640	175079	27177	1047800	44867	110401	0	0	7949	669152	0	0
2024-07-20 09:45:47			0	34995	0	0	0	28015	26630	175087	27171	1047684	44867	110401	0	0	7949	669591	0	0
2024-07-20 09:46:47			0	35000	0	0	0	27963	26640	175099	26946	1047693	44856	110381	0	0	7950	669330	0	0
2024-07-20 09:47:47			0	34997	0	0	0	27997	26630	175119	26797	1047711	44856	110394	0	0	7949	669502	0	0
2024-07-20 09:48:47			0	34994	0	0	0	27979	26620	175191	27216	1047639	44842	110387	0	0	7949	669673	0	0
2024-07-20 09:49:47			0	34988	0	0	0	27984	26630	175195	27223	1047675	44843	110389	0	0	7949	669902	0	0
2024-07-20 09:50:47			0	34993	0	0	0	27986	26620	175323	26793	1047657	44864	110390	0	0	7949	669718	0	0
2024-07-20 09:51:47			0	34977	0	0	0	27989	26620	175303	27237	1047693	44875	110391	0	0	7948	670430	0	0
2024-07-20 09:52:47			0	34965	0	0	0	27997	26620	175427	27133	1047720	44865	110394	0	0	7947	670965	0	0
2024-07-20 09:53:47			0	34944	0	0	0	28002	26620	175427	27104	1047604	44864	110396	0	0	7946	671901	0	0
2024-07-20 09:54:47			0	34941	0	0	0	27994	26610	175615	27163	1047648	44875	110393	0	0	7945	672073	0	0
2024-07-20 09:55:47			0	34928	0	0	0	27935	26600	175575	27253	1047577	44852	110370	0	0	7946	672692	0	0
2024-07-20 09:56:47			0	34934	0	0	0	27940	26600	175595	27282	1047497	44863	110372	0	0	7946	672424	0	0
2024-07-20 09:57:47			0	34940	0	0	0	27945	26600	175591	27149	1047541	44829	110374	0	0	7946	672156	0	0
2024-07-20 09:58:47			0	34930	0	0	0	27953	26600	175619	26821	1047541	44862	110377	0	0	7945	672603	0	0
2024-07-20 09:59:47			0	34936	0	0	0	27979	26600	175619	27090	1047541	44851	110387	0	0	7945	672335	0	0
2024-07-20 10:00:47			0	34926	0	0	0	27976	26590	175635	27135	1047524	44862	110386	0	0	7945	672820	0	0
2024-07-20 10:01:47			0	34929	0	0	0	27950	26580	175783	27112	1047515	44861	110376	0	0	7945	672724	0	0
2024-07-20 10:02:47			0	34939	0	0	0	27929	26590	175627	27230	1047551	44851	110368	0	0	7946	672239	0	0
2024-07-20 10:03:47			0	34941	0	0	0	27929	26580	175707	27251	1047488	44838	110368	0	0	7946	672188	0	0
2024-07-20 10:04:47			0	34952	0	0	0	27935	26570	175491	27093	1047470	44849	110370	0	0	7947	671736	0	0
2024-07-20 10:05:47			0	34971	0	0	0	27935	26570	175347	26880	1047408	44837	110370	0	0	7948	670889	0	0
2024-07-20 10:06:47			0	34994	0	0	0	27948	26560	175267	27029	1047399	44848	110375	0	0	7949	669903	0	0
2024-07-20 10:07:47			0	35004	0	0	0	27948	26570	175251	26935	1047381	44872	110375	0	0	7950	669420	0	0
2024-07-20 10:08:47			0	35026	0	0	0	27940	26580	175111	26968	1047426	44827	110372	0	0	7952	668404	0	0
2024-07-20 10:09:47			0	35043	0	0	0	27948	26570	174995	27027	1047381	44860	110375	0	0	7953	667687	0	0
2024-07-20 10:10:47			0	35076	0	0	0	27948	26560	174951	26941	1047399	44848	110375	0	0	7955	666261	0	0
2024-07-20 10:11:47			0	35114	0	0	0	27940	26570	174776	27409	1047408	44849	110372	0	0	7957	664540	0	0
2024-07-20 10:12:47			0	35186	0	0	0	27948	26560	174444	27038	1047390	44870	110375	0	0	7961	661399	0	0
2024-07-20 10:13:47			0	35205	0	0	0	27953	26560	174504	27137	1047426	44859	110377	0	0	7963	660561	0	0
2024-07-20 10:14:47			0	35213	0	0	0	27948	26550	174220	27118	1047435	44835	110375	0	0	7963	660247	0	0
2024-07-20 10:15:47			0	35209	0	0	0	27950	26560	174208	27081	1047426	44848	110376	0	0	7963	660385	0	0
2024-07-20 10:16:47			0	35226	0	0	0	27948	26560	174188	26602	1047417	44835	110375	0	0	7964	659637	0	0
2024-07-20 10:17:47			0	35241	0	0	0	27942	26570	174188	26972	1047489	44849	110373	0	0	7965	658939	0	0
2024-07-20 10:18:47			0	35239	0	0	0	27916	26560	174128	27137	1047363	44847	110363	0	0	7965	659065	0	0
2024-07-20 10:19:47			0	35239	0	0	0	27919	26550	174144	26807	1047408	44847	110364	0	0	7965	659103	0	0
2024-07-20 10:20:47			0	35258	0	0	0	27916	26550	173980	27066	1047373	44846	110363	0	0	7966	658268	0	0
2024-07-20 10:21:47			0	35271	0	0	0	27922	26550	173924	26811	1047328	44847	110365	0	0	7967	657697	0	0
2024-07-20 10:22:47			0	35300	0	0	0	27916	26550	173916	26951	1047292	44857	110363	0	0	7969	656425	0	0
2024-07-20 10:23:47			0	35303	0	0	0	27916	26550	173760	27166	1047346	44846	110363	0	0	7969	656293	0	0
2024-07-20 10:24:47			0	35310	0	0	0	27929	26540	173720	26698	1047301	44845	110368	0	0	7969	656024	0	0
2024-07-20 10:25:47			0	35340	0	0	0	27924	26540	173632	26819	1047301	44845	110366	0	0	7971	654710	0	0
2024-07-20 10:26:47			0	35372	0	0	0	27919	26550	173408	26811	1047346	44857	110364	0	0	7974	653274	0	0
2024-07-20 10:27:47			0	35407	0	0	0	27919	26540	173256	26741	1047283	44857	110364	0	0	7976	651783	0	0
2024-07-20 10:28:47			0	35444	0	0	0	27927	26550	173076	26774	1047346	44857	110367	0	0	7978	650134	0	0
2024-07-20 10:29:47			0	35492	0	0	0	27940	26540	173052	27140	1047310	44857	110372	0	0	7981	648084	0	0
2024-07-20 10:30:47			0	35525	0	0	0	27929	26540	172744	26833	1047310	44869	110368	0	0	7983	646652	0	0
2024-07-20 10:31:47			0	35538	0	0	0	27942	26550	172612	26965	1047400	44857	110373	0	0	7983	646051	0	0
2024-07-20 10:32:47			0	35575	0	0	0	27937	26540	172592	27064	1047337	44857	110371	0	0	7986	644486	0	0
2024-07-20 10:33:47			0	35573	0	0	0	27942	26550	172504	27029	1047319	44857	110373	0	0	7986	644536	0	0
2024-07-20 10:34:47			0	35573	0	0	0	27942	26550	172468	27041	1047400	44857	110373	0	0	7986	644536	0	0
2024-07-20 10:35:47			0	35583	0	0	0	27937	26550	172480	26972	1047408	44847	110371	0	0	7986	644104	0	0
2024-07-20 10:36:47			0	35571	0	0	0	27945	26540	172540	27092	1047364	44857	110374	0	0	7985	644659	0	0
2024-07-20 10:37:47			0	35577	0	0	0	27948	26550	172484	26876	1047426	44857	110375	0	0	7986	644363	0	0
2024-07-20 10:38:47			0	35572	0	0	0	27942	26550	172548	26762	1047373	44857	110373	0	0	7986	644579	0	0
2024-07-20 10:39:47			0	35564	0	0	0	27940	26540	172536	26942	1047364	44857	110372	0	0	7985	644962	0	0
2024-07-20 10:40:47			0	35579	0	0	0	27942	26550	172520	26731	1047426	44846	110373	0	0	7986	644277	0	0
2024-07-20 10:41:47			0	35583	0	0	0	27948	26550	172516	27104	1047373	44857	110375	0	0	7986	644104	0	0
2024-07-20 10:42:47			0	35571	0	0	0	27953	26550	172508	26911	1047426	44846	110377	0	0	7985	644623	0	0
2024-07-20 10:43:47			0	35572	0	0	0	27948	26560	172448	27062	1047507	44859	110375	0	0	7985	644543	0	0
2024-07-20 10:44:47			0	35604	0	0	0	27950	26550	172560	27005	1047435	44847	110376	0	0	7987	643196	0	0
2024-07-20 10:45:47			0	35593	0	0	0	27950	26560	172468	26696	1047363	44847	110376	0	0	7987	643635	0	0
2024-07-20 10:46:47			0	35597	0	0	0	27999	26550	172536	27204	1047462	44847	110395	0	0	7986	643499	0	0
2024-07-20 10:47:47			0	35611	0	0	0	28025	26550	172388	27121	1047516	44870	110405	0	0	7987	642894	0	0
2024-07-20 10:48:47			0	35598	0	0	0	28028	26560	172388	27180	1047480	44859	110406	0	0	7986	643419	0	0
2024-07-20 10:49:47			0	35592	0	0	0	28036	26570	172412	27150	1047542	44882	110409	0	0	7985	643641	0	0
2024-07-20 10:50:47			0	35596	0	0	0	28028	26580	172412	27203	1047640	44860	110406	0	0	7986	643431	0	0
2024-07-20 10:51:47			0	35597	0	0	0	28028	26580	172436	27071	1047694	44860	110406	0	0	7986	643388	0	0
2024-07-20 10:52:47			0	35588	0	0	0	28033	26590	172552	26970	1047667	44884	110408	0	0	7985	643740	0	0
2024-07-20 10:53:47			0	35585	0	0	0	28036	26590	172580	26894	1047747	44873	110409	0	0	7985	643870	0	0
2024-07-20 10:54:47			0	35573	0	0	0	28041	26600	172616	26870	1047729	44873	110411	0	0	7984	644352	0	0
2024-07-20 10:55:47			0	35542	0	0	0	28033	26620	172616	26798	1047818	44864	110408	0	0	7982	645620	0	0
2024-07-20 10:56:47			0	35521	0	0	0	28023	26610	172672	26701	1047774	44875	110404	0	0	7981	646566	0	0
2024-07-20 10:57:47			0	35508	0	0	0	28028	26610	172948	27062	1047774	44853	110406	0	0	7980	647130	0	0
2024-07-20 10:58:47			0	35496	0	0	0	28038	26620	173048	26920	1047792	44864	110410	0	0	7980	647614	0	0
2024-07-20 10:59:47			0	35466	0	0	0	28033	26610	173004	27107	1047810	44864	110408	0	0	7978	648954	0	0
2024-07-20 11:00:47			0	35451	0	0	0	28036	26620	173072	27256	1047792	44864	110409	0	0	7977	649569	0	0
2024-07-20 11:01:47			0	35440	0	0	0	28038	26630	173152	26994	1047809	44855	110410	0	0	7976	650011	0	0
2024-07-20 11:02:47			0	35435	0	0	0	28036	26630	173128	27303	1047863	44866	110409	0	0	7976	650228	0	0
2024-07-20 11:03:47			0	35436	0	0	0	28046	26620	173300	27022	1047800	44875	110413	0	0	7976	650222	0	0
2024-07-20 11:04:47			0	35433	0	0	0	28044	26630	173132	27211	1047818	44856	110412	0	0	7976	650315	0	0
2024-07-20 11:05:47			0	35430	0	0	0	28041	26640	173184	27116	1047881	44856	110411	0	0	7976	650408	0	0
2024-07-20 11:06:47			0	35429	0	0	0	28033	26630	173164	26941	1047863	44876	110408	0	0	7976	650489	0	0
2024-07-20 11:07:47			0	35424	0	0	0	28033	26630	173216	27041	1047863	44866	110408	0	0	7975	650707	0	0
2024-07-20 11:08:47			0	35409	0	0	0	28044	26640	173180	26948	1047854	44867	110412	0	0	7974	651323	0	0
2024-07-20 11:09:47			0	35408	0	0	0	28044	26640	173204	27216	1047881	44867	110412	0	0	7974	651367	0	0
2024-07-20 11:10:47			0	35404	0	0	0	28033	26640	173320	27194	1047863	44867	110408	0	0	7974	651541	0	0
2024-07-20 11:11:47			0	35386	0	0	0	28049	26640	173304	27001	1047881	44856	110414	0	0	7973	652326	0	0
2024-07-20 11:12:47			0	35376	0	0	0	28051	26650	173400	27157	1047871	44868	110415	0	0	7972	652725	0	0
2024-07-20 11:13:47			0	35376	0	0	0	28041	26640	173436	27107	1047827	44867	110411	0	0	7972	652763	0	0
2024-07-20 11:14:47			0	35372	0	0	0	28054	26640	173480	27156	1047881	44856	110416	0	0	7972	652937	0	0
2024-07-20 11:15:47			0	35370	0	0	0	28051	26640	173548	26920	1047889	44867	110415	0	0	7972	653025	0	0
2024-07-20 11:16:47			0	35371	0	0	0	28044	26640	173568	26932	1047889	44867	110412	0	0	7972	652981	0	0
2024-07-20 11:17:47			0	35352	0	0	0	28041	26640	173520	26805	1047934	44867	110411	0	0	7971	653811	0	0
2024-07-20 11:18:47			0	35363	0	0	0	28041	26630	173520	26968	1047818	44877	110411	0	0	7971	653368	0	0
2024-07-20 11:19:47			0	35366	0	0	0	28044	26650	173612	26994	1047952	44878	110412	0	0	7972	653162	0	0
2024-07-20 11:20:47			0	35348	0	0	0	28044	26650	173668	27059	1047925	44868	110412	0	0	7970	653948	0	0
2024-07-20 11:21:47			0	35356	0	0	0	28038	26650	173496	26755	1047898	44868	110410	0	0	7971	653599	0	0
2024-07-20 11:22:47			0	35359	0	0	0	28049	26650	173560	27079	1047898	44856	110414	0	0	7971	653468	0	0
2024-07-20 11:23:47			0	35352	0	0	0	28041	26660	173584	27448	1047916	44869	110411	0	0	7971	653736	0	0
2024-07-20 11:24:47			0	35370	0	0	0	28046	26640	173600	27197	1047916	44867	110413	0	0	7972	653025	0	0
2024-07-20 11:25:47			0	35367	0	0	0	28049	26640	173456	27239	1047970	44867	110414	0	0	7971	653156	0	0
2024-07-20 11:26:47			0	35357	0	0	0	28041	26650	173440	26833	1047952	44868	110411	0	0	7971	653555	0	0
2024-07-20 11:27:47			0	35400	0	0	0	28046	26640	173456	26847	1047961	44856	110413	0	0	7974	651716	0	0
2024-07-20 11:28:47			0	35413	0	0	0	28046	26660	173180	27159	1047907	44869	110413	0	0	7974	651075	0	0
2024-07-20 11:29:47			0	35412	0	0	0	28062	26660	173280	27182	1047961	44857	110419	0	0	7974	651118	0	0
2024-07-20 11:30:47			0	35440	0	0	0	28062	26660	173184	27038	1047961	44879	110419	0	0	7976	649899	0	0
2024-07-20 11:31:47			0	35436	0	0	0	28062	26660	173136	26901	1048023	44857	110419	0	0	7976	650073	0	0
2024-07-20 11:32:47			0	35483	0	0	0	28057	26660	173012	27092	1047996	44869	110417	0	0	7979	648030	0	0
2024-07-20 11:33:47			0	35471	0	0	0	28070	26660	172952	26911	1048050	44869	110422	0	0	7978	648551	0	0
2024-07-20 11:34:47			0	35508	0	0	0	28083	26660	172776	27130	1048023	44869	110427	0	0	7980	646945	0	0
2024-07-20 11:35:47			0	35535	0	0	0	28088	26680	172644	27059	1048050	44859	110429	0	0	7981	645701	0	0
2024-07-20 11:36:47			0	35497	0	0	0	28083	26680	172852	27043	1048113	44859	110427	0	0	7979	647348	0	0
2024-07-20 11:37:47			0	35461	0	0	0	28085	26680	172948	26804	1048059	44871	110428	0	0	7977	648911	0	0
2024-07-20 11:38:47			0	35432	0	0	0	28080	26680	173072	26894	1048113	44871	110426	0	0	7975	650173	0	0
2024-07-20 11:39:47			0	35379	0	0	0	28090	26690	173348	27119	1048130	44872	110430	0	0	7972	652445	0	0
2024-07-20 11:40:47			0	35360	0	0	0	28096	26690	173456	27206	1048130	44860	110432	0	0	7970	653274	0	0
2024-07-20 11:41:47			0	35339	0	0	0	28109	26690	173624	26776	1048157	44872	110437	0	0	7969	654192	0	0
2024-07-20 11:42:47			0	35306	0	0	0	28109	26690	173676	26764	1048238	44872	110437	0	0	7967	655636	0	0
2024-07-20 11:43:47			0	35314	0	0	0	28103	26700	173632	27156	1048220	44883	110435	0	0	7968	655248	0	0
2024-07-20 11:44:47			0	35310	0	0	0	28106	26700	173612	27053	1048229	44874	110436	0	0	7967	655423	0	0
2024-07-20 11:45:47			0	35313	0	0	0	28116	26710	173744	27154	1048246	44884	110440	0	0	7967	655255	0	0
2024-07-20 11:46:47			0	35293	0	0	0	28109	26710	173800	27128	1048273	44874	110437	0	0	7966	656130	0	0
2024-07-20 11:47:47			0	35276	0	0	0	28122	26700	173768	26805	1048255	44862	110442	0	0	7965	656913	0	0
2024-07-20 11:48:47			0	35276	0	0	0	28119	26700	173892	27189	1048202	44851	110441	0	0	7965	656913	0	0
2024-07-20 11:49:47			0	35285	0	0	0	28132	26710	173900	27043	1048354	44874	110446	0	0	7965	656481	0	0
2024-07-20 11:50:47			0	35281	0	0	0	28122	26720	173688	26953	1048282	44875	110442	0	0	7965	656619	0	0
2024-07-20 11:51:47			0	35297	0	0	0	28124	26720	173780	27039	1048318	44864	110443	0	0	7966	655918	0	0
2024-07-20 11:52:47			0	35288	0	0	0	28124	26720	173764	27118	1048345	44864	110443	0	0	7966	656312	0	0
2024-07-20 11:53:47			0	35287	0	0	0	28116	26720	173776	26958	1048318	44864	110440	0	0	7966	656356	0	0
2024-07-20 11:54:47			0	35289	0	0	0	28116	26730	173616	26956	1048353	44864	110440	0	0	7966	656230	0	0
2024-07-20 11:55:47			0	35293	0	0	0	28114	26730	173760	26831	1048353	44875	110439	0	0	7966	656055	0	0
2024-07-20 11:56:47			0	35302	0	0	0	28114	26720	173720	26996	1048264	44864	110439	0	0	7967	655699	0	0
2024-07-20 11:57:47			0	35307	0	0	0	28116	26730	173756	27088	1048326	44875	110440	0	0	7967	655442	0	0
2024-07-20 11:58:47			0	35330	0	0	0	28119	26730	173512	27242	1048326	44886	110441	0	0	7968	654436	0	0
2024-07-20 11:59:47			0	35341	0	0	0	28132	26730	173500	27215	1048353	44875	110446	0	0	7969	653955	0	0
2024-07-20 12:00:47			0	35345	0	0	0	28127	26720	173516	27092	1048371	44875	110444	0	0	7969	653818	0	0
2024-07-20 12:01:47			0	35334	0	0	0	28142	26740	173496	27008	1048344	44876	110450	0	0	7968	654223	0	0
2024-07-20 12:02:47			0	35355	0	0	0	28137	26740	173576	26894	1048452	44865	110448	0	0	7970	653306	0	0
2024-07-20 12:03:47			0	35338	0	0	0	28148	26740	173760	26887	1048353	44877	110452	0	0	7969	654048	0	0
2024-07-20 12:04:47			0	35306	0	0	0	28129	26740	173684	26658	1048460	44855	110445	0	0	7967	655448	0	0
2024-07-20 12:05:47			0	35307	0	0	0	28116	26740	173756	26674	1048371	44865	110440	0	0	7967	655405	0	0
2024-07-20 12:06:47			0	35283	0	0	0	28114	26740	173780	26979	1048398	44865	110439	0	0	7966	656456	0	0
2024-07-20 12:07:47			0	35263	0	0	0	28119	26730	173852	27119	1048416	44864	110441	0	0	7964	657370	0	0
2024-07-20 12:08:47			0	35249	0	0	0	28119	26740	173872	26883	1048380	44855	110441	0	0	7963	657947	0	0
2024-07-20 12:09:47			0	35254	0	0	0	28127	26740	173912	27003	1048344	44876	110444	0	0	7964	657728	0	0
2024-07-20 12:10:47			0	35256	0	0	0	28124	26740	174004	27156	1048344	44865	110443	0	0	7964	657640	0	0
2024-07-20 12:11:47			0	35250	0	0	0	28135	26740	173880	27159	1048380	44866	110447	0	0	7963	657903	0	0
2024-07-20 12:12:47			0	35259	0	0	0	28155	26740	173836	27098	1048371	44854	110455	0	0	7963	657508	0	0
2024-07-20 12:13:47			0	35273	0	0	0	28116	26730	173800	26968	1048362	44864	110440	0	0	7965	656932	0	0
2024-07-20 12:14:47			0	35283	0	0	0	28101	26740	173868	26748	1048299	44866	110434	0	0	7966	656456	0	0
2024-07-20 12:15:47			0	35250	0	0	0	28109	26740	173904	27105	1048344	44876	110437	0	0	7964	657903	0	0
2024-07-20 12:16:47			0	35229	0	0	0	28119	26740	174104	27239	1048434	44855	110441	0	0	7962	658826	0	0
2024-07-20 12:17:47			0	35226	0	0	0	28114	26740	174220	27213	1048371	44876	110439	0	0	7962	658958	0	0
2024-07-20 12:18:47			0	35205	0	0	0	28109	26730	174096	26854	1048326	44864	110437	0	0	7961	659919	0	0
2024-07-20 12:19:47			0	35214	0	0	0	28101	26730	174100	27203	1048246	44864	110434	0	0	7962	659523	0	0
2024-07-20 12:20:47			0	35233	0	0	0	28106	26740	174080	27235	1048344	44865	110436	0	0	7963	658650	0	0
2024-07-20 12:21:47			0	35252	0	0	0	28103	26740	173976	27183	1048317	44865	110435	0	0	7964	657816	0	0
2024-07-20 12:22:47			0	35258	0	0	0	28119	26730	173884	26762	1048300	44864	110441	0	0	7964	657590	0	0
2024-07-20 12:23:47			0	35287	0	0	0	28109	26730	173648	27071	1048353	44864	110437	0	0	7966	656318	0	0
2024-07-20 12:24:47			0	35324	0	0	0	28111	26730	173596	27298	1048353	44864	110438	0	0	7968	654698	0	0
2024-07-20 12:25:47			0	35344	0	0	0	28096	26730	173408	27206	1048326	44875	110432	0	0	7970	653824	0	0
2024-07-20 12:26:47			0	35355	0	0	0	28103	26730	173392	27052	1048300	44864	110435	0	0	7970	653343	0	0
2024-07-20 12:27:47			0	35360	0	0	0	28114	26740	173456	26866	1048317	44854	110439	0	0	7970	653087	0	0
2024-07-20 12:28:47			0	35350	0	0	0	28122	26720	173484	26686	1048345	44864	110442	0	0	7970	653599	0	0
2024-07-20 12:29:47			0	35349	0	0	0	28127	26730	173560	27123	1048308	44864	110444	0	0	7969	653605	0	0
2024-07-20 12:30:47			0	35334	0	0	0	28122	26730	173504	26977	1048353	44864	110442	0	0	7969	654261	0	0
2024-07-20 12:31:47			0	35334	0	0	0	28129	26730	173588	27249	1048416	44886	110445	0	0	7969	654261	0	0
2024-07-20 12:32:47			0	35315	0	0	0	28127	26740	173692	26974	1048398	44865	110444	0	0	7967	655055	0	0
2024-07-20 12:33:47			0	35303	0	0	0	28124	26730	173616	27244	1048380	44875	110443	0	0	7967	655617	0	0
2024-07-20 12:34:47			0	35282	0	0	0	28132	26740	173636	26887	1048371	44887	110446	0	0	7965	656500	0	0
2024-07-20 12:35:47			0	35306	0	0	0	28132	26730	173716	27138	1048362	44864	110446	0	0	7967	655486	0	0
2024-07-20 12:36:47			0	35314	0	0	0	28124	26740	173640	27197	1048371	44865	110443	0	0	7967	655098	0	0
2024-07-20 12:37:47			0	35303	0	0	0	28106	26740	173576	27007	1048380	44866	110436	0	0	7967	655580	0	0
2024-07-20 12:38:47			0	35318	0	0	0	28103	26730	173588	27159	1048362	44853	110435	0	0	7968	654961	0	0
2024-07-20 12:39:47			0	35322	0	0	0	28096	26740	173504	27109	1048344	44854	110432	0	0	7968	654748	0	0
2024-07-20 12:40:47			0	35328	0	0	0	28098	26730	173420	27074	1048308	44864	110433	0	0	7969	654523	0	0
2024-07-20 12:41:47			0	35334	0	0	0	28109	26730	173556	27131	1048362	44864	110437	0	0	7969	654261	0	0
2024-07-20 12:42:47			0	35339	0	0	0	28116	26720	173744	27019	1048371	44875	110440	0	0	7969	654080	0	0
2024-07-20 12:43:47			0	35333	0	0	0	28106	26720	173540	27202	1048291	44875	110436	0	0	7969	654342	0	0
2024-07-20 12:44:47			0	35343	0	0	0	28106	26730	173572	27022	1048326	44864	110436	0	0	7969	653868	0	0
2024-07-20 12:45:47			0	35345	0	0	0	28114	26720	173412	27038	1048345	44875	110439	0	0	7969	653818	0	0
2024-07-20 12:46:47			0	35359	0	0	0	28116	26740	173400	26889	1048317	44876	110440	0	0	7970	653131	0	0
2024-07-20 12:47:47			0	35383	0	0	0	28119	26740	173388	27123	1048380	44866	110441	0	0	7972	652084	0	0
2024-07-20 12:48:47			0	35389	0	0	0	28122	26720	173356	27083	1048345	44864	110442	0	0	7972	651897	0	0
2024-07-20 12:49:47			0	35402	0	0	0	28129	26740	173296	27296	1048353	44877	110445	0	0	7973	651255	0	0
2024-07-20 12:50:47			0	35394	0	0	0	28124	26730	173168	27377	1048443	44853	110443	0	0	7972	651641	0	0
2024-07-20 12:51:47			0	35402	0	0	0	28119	26730	173256	27206	1048353	44864	110441	0	0	7973	651293	0	0
2024-07-20 12:52:47			0	35370	0	0	0	28114	26750	173284	27145	1048389	44877	110439	0	0	7971	652614	0	0
2024-07-20 12:53:47			0	35388	0	0	0	28106	26740	173296	27095	1048353	44877	110436	0	0	7972	651866	0	0
2024-07-20 12:54:47			0	35387	0	0	0	28096	26740	173240	27144	1048353	44877	110432	0	0	7972	651909	0	0
2024-07-20 12:55:47			0	35373	0	0	0	28088	26730	173352	27338	1048362	44864	110429	0	0	7972	652557	0	0
2024-07-20 12:56:47			0	35367	0	0	0	28093	26730	173440	27081	1048308	44864	110431	0	0	7971	652819	0	0
2024-07-20 12:57:47			0	35359	0	0	0	28090	26740	173404	26857	1048344	44865	110430	0	0	7971	653131	0	0
2024-07-20 12:58:47			0	35334	0	0	0	28096	26730	173484	26835	1048380	44864	110432	0	0	7969	654261	0	0
2024-07-20 12:59:47			0	35329	0	0	0	28109	26730	173524	26790	1048380	44875	110437	0	0	7969	654480	0	0
2024-07-20 13:00:47			0	35324	0	0	0	28119	26730	173600	26981	1048407	44886	110441	0	0	7968	654698	0	0
2024-07-20 13:01:47			0	35316	0	0	0	28116	26740	173540	26949	1048380	44877	110440	0	0	7968	655011	0	0
2024-07-20 13:02:47			0	35311	0	0	0	28124	26750	173592	27031	1048496	44877	110443	0	0	7967	655192	0	0
2024-07-20 13:03:47			0	35327	0	0	0	28137	26740	173488	26928	1048541	44877	110448	0	0	7968	654529	0	0
2024-07-20 13:04:47			0	35366	0	0	0	28119	26750	173344	27055	1048505	44888	110441	0	0	7971	652788	0	0
2024-07-20 13:05:47			0	35384	0	0	0	28158	26750	173296	27144	1048559	44877	110456	0	0	7971	652003	0	0
2024-07-20 13:06:47			0	35424	0	0	0	28140	26760	173124	26823	1048603	44879	110449	0	0	7974	650223	0	0
2024-07-20 13:07:47			0	35436	0	0	0	28148	26770	173008	26894	1048558	44891	110452	0	0	7975	649664	0	0
2024-07-20 13:08:47			0	35456	0	0	0	28212	26770	173052	26967	1048621	44891	110477	0	0	7975	648794	0	0
2024-07-20 13:09:47			0	35471	0	0	0	28254	26780	172948	26948	1048737	44891	110493	0	0	7975	648105	0	0
2024-07-20 13:10:47			0	35505	0	0	0	28251	26790	172656	27308	1048809	44893	110492	0	0	7977	646594	0	0
2024-07-20 13:11:47			0	35493	0	0	0	28246	26810	172664	27244	1048871	44895	110490	0	0	7977	647040	0	0
2024-07-20 13:12:47			0	35506	0	0	0	28228	26820	172680	27007	1048942	44906	110483	0	0	7978	646439	0	0
2024-07-20 13:13:47			0	35511	0	0	0	28254	26820	172716	26857	1048924	44884	110493	0	0	7978	646222	0	0
2024-07-20 13:14:47			0	35485	0	0	0	28267	26830	172628	27036	1048933	44885	110498	0	0	7976	647312	0	0
2024-07-20 13:15:47			0	35489	0	0	0	28275	26830	172728	27307	1048996	44885	110501	0	0	7976	647139	0	0
2024-07-20 13:16:47			0	35511	0	0	0	28262	26840	172564	26817	1048987	44886	110496	0	0	7978	646148	0	0
2024-07-20 13:17:47			0	35515	0	0	0	28254	26840	172488	27038	1049067	44886	110493	0	0	7978	645975	0	0
2024-07-20 13:18:47			0	35529	0	0	0	28228	26850	172472	27209	1049085	44866	110483	0	0	7980	645332	0	0
2024-07-20 13:19:47			0	35533	0	0	0	28262	26850	172392	27109	1049112	44888	110496	0	0	7979	645159	0	0
2024-07-20 13:20:47			0	35517	0	0	0	28293	26860	172500	27124	1049121	44900	110508	0	0	7978	645815	0	0
2024-07-20 13:21:47			0	35512	0	0	0	28306	26870	172520	27230	1049147	44901	110513	0	0	7977	645994	0	0
2024-07-20 13:22:47			0	35531	0	0	0	28296	26870	172416	26920	1049201	44890	110509	0	0	7979	645172	0	0
2024-07-20 13:23:47			0	35563	0	0	0	28283	26880	172264	26916	1049165	44890	110504	0	0	7981	643751	0	0
2024-07-20 13:24:47			0	35595	0	0	0	28264	26880	172124	26727	1049245	44879	110497	0	0	7983	642370	0	0
2024-07-20 13:25:47			0	35612	0	0	0	28272	26890	171952	27164	1049281	44880	110500	0	0	7984	641600	0	0
2024-07-20 13:26:47			0	35619	0	0	0	28267	26900	171868	27026	1049191	44881	110498	0	0	7985	641262	0	0
2024-07-20 13:27:47			0	35640	0	0	0	28249	26900	171852	27140	1049218	44881	110491	0	0	7986	640358	0	0
2024-07-20 13:28:47			0	35648	0	0	0	28262	26900	171748	26901	1049138	44881	110496	0	0	7987	640014	0	0
2024-07-20 13:29:47			0	35661	0	0	0	28264	26890	171656	27286	1049093	44880	110497	0	0	7987	639492	0	0
2024-07-20 13:30:47			0	35700	0	0	0	28270	26890	171788	27222	1049174	44880	110499	0	0	7990	637817	0	0
2024-07-20 13:31:47			0	35695	0	0	0	28275	26880	171656	27062	1049138	44879	110501	0	0	7989	638068	0	0
2024-07-20 13:32:47			0	35702	0	0	0	28298	26880	171596	27102	1049245	44879	110510	0	0	7989	637767	0	0
2024-07-20 13:33:47			0	35695	0	0	0	28298	26890	171732	27067	1049236	44881	110510	0	0	7989	638031	0	0
2024-07-20 13:34:47			0	35716	0	0	0	28309	26900	171620	27111	1049245	44892	110514	0	0	7990	637094	0	0
2024-07-20 13:35:47			0	35711	0	0	0	28332	26920	171672	27012	1049388	44894	110523	0	0	7989	637235	0	0
2024-07-20 13:36:47			0	35714	0	0	0	28355	26920	171708	27150	1049415	44905	110532	0	0	7989	637106	0	0
2024-07-20 13:37:47			0	35733	0	0	0	28361	26930	171532	27284	1049433	44895	110534	0	0	7990	636256	0	0
2024-07-20 13:38:47			0	35760	0	0	0	28355	26940	171460	27310	1049450	44886	110532	0	0	7992	635064	0	0
2024-07-20 13:39:47			0	35770	0	0	0	28337	26940	171300	27251	1049450	44886	110525	0	0	7993	634636	0	0
2024-07-20 13:40:47			0	35794	0	0	0	28324	26950	171180	27072	1049459	44886	110520	0	0	7995	633575	0	0
2024-07-20 13:41:47			0	35807	0	0	0	28311	26950	171136	27225	1049486	44886	110515	0	0	7996	633020	0	0
2024-07-20 13:42:47			0	35818	0	0	0	28309	26930	170996	27105	1049442	44896	110514	0	0	7996	632623	0	0
2024-07-20 13:43:47			0	35843	0	0	0	28316	26930	170992	27194	1049442	44885	110517	0	0	7998	631557	0	0
2024-07-20 13:44:47			0	35852	0	0	0	28345	26950	170940	27078	1049495	44898	110528	0	0	7998	631102	0	0
2024-07-20 13:45:47			0	35867	0	0	0	28345	26950	170805	27022	1049459	44897	110528	0	0	7999	630463	0	0
2024-07-20 13:46:47			0	35914	0	0	0	28348	26960	170773	27379	1049566	44910	110529	0	0	8002	628430	0	0
2024-07-20 13:47:47			0	35915	0	0	0	28353	26960	170593	27294	1049593	44899	110531	0	0	8002	628387	0	0
2024-07-20 13:48:47			0	35935	0	0	0	28363	26970	170477	27358	1049656	44887	110535	0	0	8003	627503	0	0
2024-07-20 13:49:47			0	35966	0	0	0	28374	26960	170369	26811	1049620	44887	110539	0	0	8004	626225	0	0
2024-07-20 13:50:47			0	35973	0	0	0	28389	26980	170257	27081	1049709	44901	110545	0	0	8005	625857	0	0
2024-07-20 13:51:47			0	35995	0	0	0	28394	26980	170225	27026	1049700	44888	110547	0	0	8006	624927	0	0
2024-07-20 13:52:47			0	36014	0	0	0	28376	26980	170073	26871	1049655	44901	110540	0	0	8007	624124	0	0
2024-07-20 13:53:47			0	36029	0	0	0	28368	26980	170017	27097	1049709	44889	110537	0	0	8008	623490	0	0
2024-07-20 13:54:47			0	36062	0	0	0	28374	26980	169777	27076	1049673	44888	110539	0	0	8010	622098	0	0
2024-07-20 13:55:47			0	36060	0	0	0	28389	27000	169845	27024	1049709	44890	110545	0	0	8010	622111	0	0
2024-07-20 13:56:47			0	36065	0	0	0	28379	26980	169749	27166	1049647	44888	110541	0	0	8010	621972	0	0
2024-07-20 13:57:47			0	36041	0	0	0	28366	26980	169825	27079	1049629	44889	110536	0	0	8009	622984	0	0
2024-07-20 13:58:47			0	36048	0	0	0	28371	27000	169881	26691	1049709	44890	110538	0	0	8010	622617	0	0
2024-07-20 13:59:47			0	36040	0	0	0	28381	26990	169877	27034	1049727	44902	110542	0	0	8009	622990	0	0
2024-07-20 14:00:47			0	36026	0	0	0	28397	26980	169957	27230	1049700	44900	110548	0	0	8008	623617	0	0
2024-07-20 14:01:47			0	36041	0	0	0	28397	27010	169945	26781	1049753	44880	110548	0	0	8009	622877	0	0
2024-07-20 14:02:47			0	36005	0	0	0	28399	27010	170113	27270	1049807	44891	110549	0	0	8007	624396	0	0
2024-07-20 14:03:47			0	35961	0	0	0	28381	27000	170209	27289	1049763	44902	110542	0	0	8004	626293	0	0
2024-07-20 14:04:47			0	35919	0	0	0	28386	27000	170397	27029	1049763	44890	110544	0	0	8002	628073	0	0
2024-07-20 14:05:47			0	35877	0	0	0	28394	27000	170653	27315	1049763	44902	110547	0	0	7999	629857	0	0
2024-07-20 14:06:47			0	35830	0	0	0	28418	27010	170892	27131	1049763	44892	110556	0	0	7996	631821	0	0
2024-07-20 14:07:47			0	35795	0	0	0	28423	27020	171088	27076	1049852	44905	110558	0	0	7993	633278	0	0
2024-07-20 14:08:47			0	35780	0	0	0	28418	27020	171200	27133	1049879	44905	110556	0	0	7993	633918	0	0
2024-07-20 14:09:47			0	35757	0	0	0	28407	27010	171196	26856	1049816	44904	110552	0	0	7991	634937	0	0
2024-07-20 14:10:47			0	35779	0	0	0	28335	27010	171068	27178	1049763	44904	110524	0	0	7994	633997	0	0
2024-07-20 14:11:47			0	35819	0	0	0	28322	27010	170852	27253	1049753	44880	110519	0	0	7997	632290	0	0
2024-07-20 14:12:47			0	35783	0	0	0	28327	27000	171032	27138	1049691	44880	110521	0	0	7994	633863	0	0
2024-07-20 14:13:47			0	35751	0	0	0	28329	27000	171220	27265	1049655	44879	110522	0	0	7992	635230	0	0
2024-07-20 14:14:47			0	35698	0	0	0	28342	27010	171416	26927	1049619	44880	110527	0	0	7989	637464	0	0
2024-07-20 14:15:47			0	35702	0	0	0	28319	26980	171584	27097	1049548	44878	110518	0	0	7989	637402	0	0
2024-07-20 14:16:47			0	35689	0	0	0	28303	26990	171552	26833	1049557	44878	110512	0	0	7989	637923	0	0
2024-07-20 14:17:47			0	35691	0	0	0	28332	26980	171492	26904	1049575	44868	110523	0	0	7988	637874	0	0
2024-07-20 14:18:47			0	35673	0	0	0	28329	26970	171628	26864	1049530	44877	110522	0	0	7987	638683	0	0
2024-07-20 14:19:47			0	35663	0	0	0	28316	26970	171680	27111	1049530	44877	110517	0	0	7987	639112	0	0
2024-07-20 14:20:47			0	35657	0	0	0	28329	26960	171720	27095	1049486	44887	110522	0	0	7986	639407	0	0
2024-07-20 14:21:47			0	35624	0	0	0	28327	26960	171924	27128	1049450	44886	110521	0	0	7984	640826	0	0
2024-07-20 14:22:47			0	35609	0	0	0	28340	26960	171960	27053	1049504	44875	110526	0	0	7983	641472	0	0
2024-07-20 14:23:47			0	35597	0	0	0	28363	26970	171840	27192	1049575	44887	110535	0	0	7982	641953	0	0
2024-07-20 14:24:47			0	35621	0	0	0	28348	26960	171828	27345	1049540	44876	110529	0	0	7984	640956	0	0
2024-07-20 14:25:47			0	35645	0	0	0	28335	26970	171796	27431	1049548	44887	110524	0	0	7986	639886	0	0
2024-07-20 14:26:47			0	35676	0	0	0	28342	26960	171752	27319	1049566	44887	110527	0	0	7987	638591	0	0
2024-07-20 14:27:47			0	35676	0	0	0	28361	26960	171708	27105	1049540	44887	110534	0	0	7987	638591	0	0
2024-07-20 14:28:47			0	35702	0	0	0	28371	26970	171604	27258	1049629	44899	110538	0	0	7988	637438	0	0
2024-07-20 14:29:47			0	35684	0	0	0	28379	26970	171580	27185	1049602	44887	110541	0	0	7987	638211	0	0
2024-07-20 14:30:47			0	35697	0	0	0	28371	26980	171548	27268	1049709	44889	110538	0	0	7988	637616	0	0
2024-07-20 14:31:47			0	35696	0	0	0	28366	26970	171536	27443	1049611	44900	110536	0	0	7988	637696	0	0
2024-07-20 14:32:47			0	35699	0	0	0	28368	26980	171380	27360	1049700	44888	110537	0	0	7988	637530	0	0
2024-07-20 14:33:47			0	35742	0	0	0	28374	26980	171204	27173	1049682	44901	110539	0	0	7991	635688	0	0
2024-07-20 14:34:47			0	35758	0	0	0	28376	26980	171308	27353	1049682	44889	110540	0	0	7992	635004	0	0
2024-07-20 14:35:47			0	35754	0	0	0	28371	26980	171200	27495	1049709	44912	110538	0	0	7992	635175	0	0
2024-07-20 14:36:47			0	35759	0	0	0	28381	26990	171140	27466	1049673	44913	110542	0	0	7992	634925	0	0
2024-07-20 14:37:47			0	35753	0	0	0	28371	26990	171104	27043	1049673	44879	110538	0	0	7992	635181	0	0
2024-07-20 14:38:47			0	35763	0	0	0	28361	27000	171228	27135	1049682	44890	110534	0	0	7992	634717	0	0
2024-07-20 14:39:47			0	35748	0	0	0	28361	26990	171124	27031	1049718	44889	110534	0	0	7992	635395	0	0
2024-07-20 14:40:47			0	35749	0	0	0	28376	26980	171236	27277	1049655	44878	110540	0	0	7991	635389	0	0
2024-07-20 14:41:47			0	35731	0	0	0	28376	26980	171280	27043	1049727	44888	110540	0	0	7990	636159	0	0
2024-07-20 14:42:47			0	35708	0	0	0	28371	27000	171456	27163	1049709	44890	110538	0	0	7989	637071	0	0
2024-07-20 14:43:47			0	35692	0	0	0	28389	27000	171400	27251	1049655	44879	110545	0	0	7988	637758	0	0
2024-07-20 14:44:47			0	35730	0	0	0	28386	26990	171356	27178	1049727	44890	110544	0	0	7990	636165	0	0
2024-07-20 14:45:47			0	35727	0	0	0	28384	26990	171288	27390	1049646	44902	110543	0	0	7990	636294	0	0
2024-07-20 14:46:47			0	35762	0	0	0	28379	26990	171216	27384	1049754	44890	110541	0	0	7992	634796	0	0
2024-07-20 14:47:47			0	35749	0	0	0	28381	26990	171244	27260	1049754	44902	110542	0	0	7991	635352	0	0
2024-07-20 14:48:47			0	35723	0	0	0	28384	27000	171384	27098	1049736	44879	110543	0	0	7990	636429	0	0
2024-07-20 14:49:47			0	35695	0	0	0	28384	27000	171456	27391	1049763	44879	110543	0	0	7988	637629	0	0
2024-07-20 14:50:47			0	35682	0	0	0	28397	27000	171588	27209	1049736	44890	110548	0	0	7987	638187	0	0
2024-07-20 14:51:47			0	35689	0	0	0	28399	26990	171532	27251	1049834	44902	110549	0	0	7987	637923	0	0
2024-07-20 14:52:47			0	35723	0	0	0	28420	27010	171376	27024	1049780	44903	110557	0	0	7989	636392	0	0
2024-07-20 14:53:47			0	35731	0	0	0	28431	27010	171284	27171	1049861	44891	110561	0	0	7989	636050	0	0
2024-07-20 14:54:47			0	35768	0	0	0	28449	27010	171144	27213	1049861	44903	110568	0	0	7991	634467	0	0
2024-07-20 14:55:47			0	35758	0	0	0	28446	27020	171016	27116	1049906	44893	110567	0	0	7991	634858	0	0
2024-07-20 14:56:47			0	35772	0	0	0	28449	27020	171036	27050	1049995	44916	110568	0	0	7992	634260	0	0
2024-07-20 14:57:47			0	35789	0	0	0	28459	27020	171040	27050	1049968	44916	110572	0	0	7992	633534	0	0
2024-07-20 14:58:47			0	35770	0	0	0	28451	27030	171128	27159	1050004	44905	110569	0	0	7992	634309	0	0
2024-07-20 14:59:47			0	35782	0	0	0	28451	27040	171008	27256	1050049	44907	110569	0	0	7992	633760	0	0
2024-07-20 15:00:47			0	35775	0	0	0	28449	27050	170920	27022	1050067	44918	110568	0	0	7992	634022	0	0
2024-07-20 15:01:47			0	35782	0	0	0	28446	27040	170952	27088	1050031	44907	110567	0	0	7992	633760	0	0
2024-07-20 15:02:47			0	35770	0	0	0	28454	27050	170904	27234	1050040	44896	110570	0	0	7992	634236	0	0
2024-07-20 15:03:47			0	35776	0	0	0	28454	27040	171048	27156	1050085	44907	110570	0	0	7992	634016	0	0
2024-07-20 15:04:47			0	35791	0	0	0	28451	27050	170972	27119	1050094	44918	110569	0	0	7993	633339	0	0
2024-07-20 15:05:47			0	35796	0	0	0	28457	27050	170920	27228	1050129	44918	110571	0	0	7993	633126	0	0
2024-07-20 15:06:47			0	35809	0	0	0	28472	27060	170708	26859	1050111	44908	110577	0	0	7994	632535	0	0
2024-07-20 15:07:47			0	35839	0	0	0	28519	27060	170660	27183	1050246	44908	110595	0	0	7995	631257	0	0
2024-07-20 15:08:47			0	35873	0	0	0	28540	27070	170493	27206	1050299	44931	110603	0	0	7997	629774	0	0
2024-07-20 15:09:47			0	35908	0	0	0	28550	27090	170397	26885	1050334	44933	110607	0	0	7999	628216	0	0
2024-07-20 15:10:47			0	35915	0	0	0	28537	27090	170397	26746	1050415	44922	110602	0	0	7999	627919	0	0
2024-07-20 15:11:47			0	35912	0	0	0	28516	27100	170317	27135	1050343	44912	110594	0	0	7999	628010	0	0
2024-07-20 15:12:47			0	35918	0	0	0	28498	27100	170357	27180	1050424	44923	110587	0	0	8000	627756	0	0
2024-07-20 15:13:47			0	35909	0	0	0	28501	27100	170285	27208	1050352	44891	110588	0	0	8000	628137	0	0
2024-07-20 15:14:47			0	35884	0	0	0	28511	27110	170441	27046	1050361	44913	110592	0	0	7998	629163	0	0
2024-07-20 15:15:47			0	35914	0	0	0	28493	27110	170285	27258	1050307	44902	110585	0	0	8000	627889	0	0
2024-07-20 15:16:47			0	35941	0	0	0	28477	27100	170237	27013	1050289	44890	110579	0	0	8002	626781	0	0
2024-07-20 15:17:47			0	35966	0	0	0	28464	27080	169985	27019	1050290	44900	110574	0	0	8004	625794	0	0
2024-07-20 15:18:47			0	35973	0	0	0	28475	27080	170069	27196	1050182	44911	110578	0	0	8004	625498	0	0
2024-07-20 15:19:47			0	35940	0	0	0	28470	27090	170177	27509	1050272	44900	110576	0	0	8002	626859	0	0
2024-07-20 15:20:47			0	35895	0	0	0	28438	27090	170353	27218	1050191	44911	110564	0	0	8000	628768	0	0
2024-07-20 15:21:47			0	35859	0	0	0	28444	27090	170620	27261	1050218	44889	110566	0	0	7997	630297	0	0
2024-07-20 15:22:47			0	35821	0	0	0	28444	27080	170644	27293	1050182	44877	110566	0	0	7995	631951	0	0
2024-07-20 15:23:47			0	35767	0	0	0	28444	27080	170824	27364	1050120	44888	110566	0	0	7992	634255	0	0
2024-07-20 15:24:47			0	35756	0	0	0	28428	27070	170872	27320	1050021	44898	110560	0	0	7991	634761	0	0
2024-07-20 15:25:47			0	35734	0	0	0	28420	27060	171156	27092	1050147	44897	110557	0	0	7990	635739	0	0
2024-07-20 15:26:47			0	35708	0	0	0	28431	27070	171160	27235	1050075	44898	110561	0	0	7988	636816	0	0
2024-07-20 15:27:47			0	35701	0	0	0	28423	27060	171320	27332	1050013	44897	110558	0	0	7988	637152	0	0
2024-07-20 15:28:47			0	35707	0	0	0	28420	27070	171308	27287	1050057	44898	110557	0	0	7988	636858	0	0
2024-07-20 15:29:47			0	35739	0	0	0	28425	27060	171080	27334	1050031	44897	110559	0	0	7990	635525	0	0
2024-07-20 15:30:47			0	35789	0	0	0	28431	27060	170820	27284	1050120	44897	110561	0	0	7993	633388	0	0
2024-07-20 15:31:47			0	35848	0	0	0	28449	27060	170500	27062	1050057	44908	110568	0	0	7996	630874	0	0
2024-07-20 15:32:47			0	35906	0	0	0	28449	27060	170357	26870	1050111	44908	110568	0	0	8000	628409	0	0
2024-07-20 15:33:47			0	35930	0	0	0	28464	27060	170245	27282	1050111	44897	110574	0	0	8001	627391	0	0
2024-07-20 15:34:47			0	35933	0	0	0	28477	27070	170197	27196	1050191	44909	110579	0	0	8001	627228	0	0
2024-07-20 15:35:47			0	35957	0	0	0	28475	27070	170409	27026	1050263	44909	110578	0	0	8003	626211	0	0
2024-07-20 15:36:47			0	35953	0	0	0	28477	27080	170321	27102	1050200	44899	110579	0	0	8002	626345	0	0
2024-07-20 15:37:47			0	35922	0	0	0	28483	27090	170337	27182	1050352	44922	110581	0	0	8001	627622	0	0
2024-07-20 15:38:47			0	35912	0	0	0	28470	27080	170433	27372	1050263	44911	110576	0	0	8000	628082	0	0
2024-07-20 15:39:47			0	35915	0	0	0	28483	27090	170477	27341	1050326	44900	110581	0	0	8000	627919	0	0
2024-07-20 15:40:47			0	35905	0	0	0	28493	27100	170485	27388	1050352	44902	110585	0	0	7999	628307	0	0
2024-07-20 15:41:47			0	35904	0	0	0	28506	27090	170561	27324	1050388	44900	110590	0	0	7999	628386	0	0
2024-07-20 15:42:47			0	35899	0	0	0	28501	27100	170429	27189	1050352	44913	110588	0	0	7999	628562	0	0
2024-07-20 15:43:47			0	35891	0	0	0	28509	27110	170521	27033	1050415	44924	110591	0	0	7998	628865	0	0
2024-07-20 15:44:47			0	35899	0	0	0	28514	27100	170417	27272	1050433	44913	110593	0	0	7999	628562	0	0
2024-07-20 15:45:47			0	35899	0	0	0	28514	27100	170489	27260	1050352	44913	110593	0	0	7999	628562	0	0
2024-07-20 15:46:47			0	35894	0	0	0	28516	27110	170377	27345	1050504	44913	110594	0	0	7998	628738	0	0
2024-07-20 15:47:47			0	35898	0	0	0	28522	27120	170389	27497	1050459	44936	110596	0	0	7999	628532	0	0
2024-07-20 15:48:47			0	35900	0	0	0	28524	27120	170273	27376	1050486	44925	110597	0	0	7999	628447	0	0
2024-07-20 15:49:47			0	35926	0	0	0	28522	27130	170269	27357	1050450	44926	110596	0	0	8000	627309	0	0
2024-07-20 15:50:47			0	35938	0	0	0	28529	27130	170165	27185	1050513	44916	110599	0	0	8001	626800	0	0
2024-07-20 15:51:47			0	35952	0	0	0	28542	27130	170185	27319	1050531	44915	110604	0	0	8002	626207	0	0
2024-07-20 15:52:47			0	35960	0	0	0	28548	27140	170081	27249	1050548	44916	110606	0	0	8002	625833	0	0
2024-07-20 15:53:47			0	35970	0	0	0	28561	27140	170001	27286	1050584	44928	110611	0	0	8002	625410	0	0
2024-07-20 15:54:47			0	35975	0	0	0	28573	27150	169901	27429	1050629	44940	110616	0	0	8003	625163	0	0
2024-07-20 15:55:47			0	35997	0	0	0	28584	27160	169913	27379	1050727	44908	110620	0	0	8004	624197	0	0
2024-07-20 15:56:47			0	35979	0	0	0	28592	27160	169985	27329	1050745	44929	110623	0	0	8003	624957	0	0
2024-07-20 15:57:47			0	36003	0	0	0	28612	27170	169945	27421	1050826	44930	110631	0	0	8004	623908	0	0
2024-07-20 15:58:47			0	36004	0	0	0	28623	27180	169829	27391	1050843	44920	110635	0	0	8004	623830	0	0
2024-07-20 15:59:47			0	36021	0	0	0	28618	27190	169777	27440	1050879	44932	110633	0	0	8005	623077	0	0
2024-07-20 16:00:47			0	36036	0	0	0	28628	27200	169693	27249	1050959	44922	110637	0	0	8006	622409	0	0
2024-07-20 16:01:47			0	36069	0	0	0	28644	27200	169653	27192	1051040	44933	110643	0	0	8007	621019	0	0
2024-07-20 16:02:47			0	36090	0	0	0	28750	27230	169457	27253	1051156	44947	110684	0	0	8007	620029	0	0
2024-07-20 16:03:47			0	36089	0	0	0	28758	27240	169505	27241	1051344	44949	110687	0	0	8007	620035	0	0
2024-07-20 16:04:47			0	36114	0	0	0	28748	27260	169373	27078	1051352	44939	110683	0	0	8009	618915	0	0
2024-07-20 16:05:47			0	36117	0	0	0	28722	27280	169129	27147	1051469	44942	110673	0	0	8009	618717	0	0
2024-07-20 16:06:47			0	36150	0	0	0	28766	27290	169085	27177	1051478	44953	110690	0	0	8011	617298	0	0
2024-07-20 16:07:47			0	36164	0	0	0	28784	27300	169005	27138	1051549	44920	110697	0	0	8011	616677	0	0
2024-07-20 16:08:47			0	36193	0	0	0	28766	27310	168969	27220	1051594	44944	110690	0	0	8013	615428	0	0
2024-07-20 16:09:47			0	36187	0	0	0	28771	27310	168825	27211	1051549	44944	110692	0	0	8013	615679	0	0
2024-07-20 16:10:47			0	36236	0	0	0	28779	27330	168689	26958	1051629	44935	110695	0	0	8016	613562	0	0
2024-07-20 16:11:47			0	36294	0	0	0	28761	27330	168457	27152	1051665	44935	110688	0	0	8020	611146	0	0
2024-07-20 16:12:47			0	36347	0	0	0	28766	27340	168257	27182	1051701	44924	110690	0	0	8023	608910	0	0
2024-07-20 16:13:47			0	36383	0	0	0	28755	27340	167965	26920	1051710	44936	110686	0	0	8025	607418	0	0
2024-07-20 16:14:47			0	36429	0	0	0	28727	27350	167725	26864	1051691	44937	110675	0	0	8028	605480	0	0
2024-07-20 16:15:47			0	36465	0	0	0	28727	27350	167593	27017	1051665	44926	110675	0	0	8030	603993	0	0
2024-07-20 16:16:47			0	36517	0	0	0	28693	27350	167429	26852	1051638	44916	110662	0	0	8034	601851	0	0
2024-07-20 16:17:47			0	36538	0	0	0	28670	27340	167313	26918	1051575	44915	110653	0	0	8036	601022	0	0
2024-07-20 16:18:47			0	36509	0	0	0	28672	27330	167293	27112	1051504	44923	110654	0	0	8034	602249	0	0
2024-07-20 16:19:47			0	36507	0	0	0	28698	27340	167413	27114	1051521	44915	110664	0	0	8033	602297	0	0
2024-07-20 16:20:47			0	36467	0	0	0	28716	27340	167505	27434	1051494	44925	110671	0	0	8031	603945	0	0
2024-07-20 16:21:47			0	36448	0	0	0	28724	27330	167605	26849	1051504	44923	110674	0	0	8029	604764	0	0
2024-07-20 16:22:47			0	36488	0	0	0	28724	27340	167553	26774	1051593	44936	110674	0	0	8032	603080	0	0
2024-07-20 16:23:47			0	36525	0	0	0	28719	27340	167269	26715	1051620	44936	110672	0	0	8034	601556	0	0
2024-07-20 16:24:47			0	36603	0	0	0	28748	27340	166958	26883	1051683	44925	110683	0	0	8038	598353	0	0
2024-07-20 16:25:47			0	36655	0	0	0	28740	27350	166706	26819	1051691	44926	110680	0	0	8042	596190	0	0
2024-07-20 16:26:47			0	36717	0	0	0	28763	27350	166334	26870	1051745	44949	110689	0	0	8045	593659	0	0
2024-07-20 16:27:47			0	36771	0	0	0	28779	27350	166246	27367	1051718	44926	110695	0	0	8048	591460	0	0
2024-07-20 16:28:47			0	36799	0	0	0	28779	27360	166102	27112	1051772	44938	110695	0	0	8049	590288	0	0
2024-07-20 16:29:47			0	36821	0	0	0	28786	27360	165998	27137	1051745	44938	110698	0	0	8051	589395	0	0
2024-07-20 16:30:47			0	36789	0	0	0	28768	27370	165990	27026	1051808	44951	110691	0	0	8049	590660	0	0
2024-07-20 16:31:47			0	36813	0	0	0	28763	27370	166026	27109	1051808	44917	110689	0	0	8051	589686	0	0
2024-07-20 16:32:47			0	36799	0	0	0	28784	27370	166162	27206	1051754	44917	110697	0	0	8049	590254	0	0
2024-07-20 16:33:47			0	36753	0	0	0	28794	27380	166274	26948	1051852	44928	110701	0	0	8047	592090	0	0
2024-07-20 16:34:47			0	36715	0	0	0	28792	27380	166350	27059	1051861	44929	110700	0	0	8044	593638	0	0
2024-07-20 16:35:47			0	36691	0	0	0	28792	27380	166430	27171	1051798	44939	110700	0	0	8043	594617	0	0
2024-07-20 16:36:47			0	36684	0	0	0	28786	27400	166558	27287	1051941	44930	110698	0	0	8043	594834	0	0
2024-07-20 16:37:47			0	36724	0	0	0	28776	27400	166414	27293	1051834	44941	110694	0	0	8045	593203	0	0
2024-07-20 16:38:47			0	36719	0	0	0	28786	27400	166302	27112	1051861	44930	110698	0	0	8045	593407	0	0
2024-07-20 16:39:47			0	36722	0	0	0	28779	27400	166358	27220	1051914	44941	110695	0	0	8045	593284	0	0
2024-07-20 16:40:47			0	36699	0	0	0	28792	27390	166322	27008	1051879	44930	110700	0	0	8043	594256	0	0
2024-07-20 16:41:47			0	36670	0	0	0	28797	27400	166502	26887	1051941	44930	110702	0	0	8042	595406	0	0
2024-07-20 16:42:47			0	36646	0	0	0	28784	27400	166566	27431	1051914	44919	110697	0	0	8040	596387	0	0
2024-07-20 16:43:47			0	36648	0	0	0	28802	27400	166614	27438	1051896	44942	110704	0	0	8040	596305	0	0
2024-07-20 16:44:47			0	36658	0	0	0	28810	27400	166570	27362	1051977	44942	110707	0	0	8041	595896	0	0
2024-07-20 16:45:47			0	36677	0	0	0	28833	27400	166398	27201	1052004	44942	110716	0	0	8041	595120	0	0
2024-07-20 16:46:47			0	36666	0	0	0	28838	27410	166430	27133	1052103	44943	110718	0	0	8041	595535	0	0
2024-07-20 16:47:47			0	36667	0	0	0	28836	27420	166430	27173	1052085	44933	110717	0	0	8041	595460	0	0
2024-07-20 16:48:47			0	36688	0	0	0	28841	27430	166450	27083	1052102	44945	110719	0	0	8042	594568	0	0
2024-07-20 16:49:47			0	36654	0	0	0	28838	27440	166610	27386	1052120	44935	110718	0	0	8040	595923	0	0
2024-07-20 16:50:47			0	36649	0	0	0	28831	27430	166586	27048	1052111	44946	110715	0	0	8040	596161	0	0
2024-07-20 16:51:47			0	36631	0	0	0	28836	27430	166662	27109	1052138	44958	110717	0	0	8039	596897	0	0
2024-07-20 16:52:47			0	36617	0	0	0	28833	27430	166782	26823	1052049	44922	110716	0	0	8038	597470	0	0
2024-07-20 16:53:47			0	36611	0	0	0	28838	27430	166834	27197	1052076	44934	110718	0	0	8038	597716	0	0
2024-07-20 16:54:47			0	36589	0	0	0	28833	27430	166905	27008	1052111	44923	110716	0	0	8036	598617	0	0
2024-07-20 16:55:47			0	36568	0	0	0	28828	27430	166893	26911	1052031	44923	110714	0	0	8035	599479	0	0
2024-07-20 16:56:47			0	36530	0	0	0	28818	27440	167001	27013	1052075	44923	110710	0	0	8033	601005	0	0
2024-07-20 16:57:47			0	36505	0	0	0	28805	27430	167241	27150	1052111	44935	110705	0	0	8032	602068	0	0
2024-07-20 16:58:47			0	36493	0	0	0	28802	27430	167185	27376	1052022	44922	110704	0	0	8031	602562	0	0
2024-07-20 16:59:47			0	36471	0	0	0	28794	27430	167317	27085	1052057	44923	110701	0	0	8030	603468	0	0
2024-07-20 17:00:47			0	36472	0	0	0	28797	27430	167165	26944	1052084	44935	110702	0	0	8030	603427	0	0
2024-07-20 17:01:47			0	36479	0	0	0	28799	27430	167333	26634	1052022	44922	110703	0	0	8030	603138	0	0
2024-07-20 17:02:47			0	36504	0	0	0	28797	27420	167205	26948	1052040	44933	110702	0	0	8032	602143	0	0
2024-07-20 17:03:47			0	36475	0	0	0	28799	27430	167373	27093	1051995	44934	110703	0	0	8030	603303	0	0
2024-07-20 17:04:47			0	36464	0	0	0	28794	27420	167429	26883	1052031	44933	110701	0	0	8030	603792	0	0
2024-07-20 17:05:47			0	36483	0	0	0	28794	27420	167289	27072	1052013	44944	110701	0	0	8031	603008	0	0
2024-07-20 17:06:47			0	36485	0	0	0	28797	27430	167369	26755	1051995	44922	110702	0	0	8031	602891	0	0
2024-07-20 17:07:47			0	36454	0	0	0	28789	27420	167409	27001	1052067	44933	110699	0	0	8029	604204	0	0
2024-07-20 17:08:47			0	36447	0	0	0	28774	27410	167449	27183	1051888	44920	110693	0	0	8029	604528	0	0
2024-07-20 17:09:47			0	36464	0	0	0	28781	27420	167501	27218	1051977	44933	110696	0	0	8030	603792	0	0
2024-07-20 17:10:47			0	36443	0	0	0	28776	27410	167573	27244	1051986	44932	110694	0	0	8029	604693	0	0
2024-07-20 17:11:47			0	36439	0	0	0	28766	27420	167573	26738	1051977	44921	110690	0	0	8029	604823	0	0
2024-07-20 17:12:47			0	36441	0	0	0	28766	27410	167553	26913	1051959	44943	110690	0	0	8029	604775	0	0
2024-07-20 17:13:47			0	36424	0	0	0	28761	27410	167557	27268	1051905	44910	110688	0	0	8028	605477	0	0
2024-07-20 17:14:47			0	36423	0	0	0	28766	27400	167665	27225	1051914	44919	110690	0	0	8028	605554	0	0
2024-07-20 17:15:47			0	36420	0	0	0	28758	27390	167797	27237	1051825	44930	110687	0	0	8027	605712	0	0
2024-07-20 17:16:47			0	36400	0	0	0	28761	27390	167781	27033	1051906	44941	110688	0	0	8026	606539	0	0
2024-07-20 17:17:47			0	36396	0	0	0	28776	27400	167885	26838	1051834	44930	110694	0	0	8026	606670	0	0
2024-07-20 17:18:47			0	36378	0	0	0	28763	27390	167837	27246	1051906	44941	110689	0	0	8025	607450	0	0
2024-07-20 17:19:47			0	36371	0	0	0	28776	27390	167985	27133	1051879	44941	110694	0	0	8024	607740	0	0
2024-07-20 17:20:47			0	36375	0	0	0	28771	27390	167965	27369	1051924	44919	110692	0	0	8025	607574	0	0
2024-07-20 17:21:47			0	36361	0	0	0	28774	27390	168001	27242	1051879	44930	110693	0	0	8024	608154	0	0
2024-07-20 17:22:47			0	36359	0	0	0	28779	27400	167869	27052	1051888	44919	110695	0	0	8023	608202	0	0
2024-07-20 17:23:47			0	36350	0	0	0	28776	27390	167953	27222	1051906	44930	110694	0	0	8023	608610	0	0
2024-07-20 17:24:47			0	36365	0	0	0	28789	27390	167997	27156	1051933	44930	110699	0	0	8024	607989	0	0
2024-07-20 17:25:47			0	36338	0	0	0	28810	27410	168013	27241	1051959	44943	110707	0	0	8022	609038	0	0
2024-07-20 17:26:47			0	36322	0	0	0	28781	27400	168125	27215	1051914	44953	110696	0	0	8021	609737	0	0
2024-07-20 17:27:47			0	36337	0	0	0	28779	27390	167981	27313	1051879	44941	110695	0	0	8022	609150	0	0
2024-07-20 17:28:47			0	36322	0	0	0	28781	27400	168205	27345	1051941	44941	110696	0	0	8021	609737	0	0
2024-07-20 17:29:47			0	36293	0	0	0	28774	27400	168221	27575	1051950	44942	110693	0	0	8020	610942	0	0
2024-07-20 17:30:47			0	36276	0	0	0	28761	27400	168353	26987	1051896	44931	110688	0	0	8019	611649	0	0
2024-07-20 17:31:47			0	36246	0	0	0	28774	27400	168677	27661	1051950	44920	110693	0	0	8017	612899	0	0
2024-07-20 17:32:47			0	36207	0	0	0	28758	27410	168605	27173	1051851	44932	110687	0	0	8015	614490	0	0
2024-07-20 17:33:47			0	36190	0	0	0	28742	27400	168789	27426	1051861	44930	110681	0	0	8014	615235	0	0
2024-07-20 17:34:47			0	36185	0	0	0	28716	27400	168729	27220	1051834	44919	110671	0	0	8014	615444	0	0
2024-07-20 17:35:47			0	36159	0	0	0	28714	27380	168941	27336	1051727	44918	110670	0	0	8012	616603	0	0
2024-07-20 17:36:47			0	36120	0	0	0	28698	27380	168973	27189	1051745	44928	110664	0	0	8010	618236	0	0
2024-07-20 17:37:47			0	36081	0	0	0	28703	27370	169181	27372	1051700	44917	110666	0	0	8008	619909	0	0
2024-07-20 17:38:47			0	36049	0	0	0	28703	27360	169425	27360	1051664	44916	110666	0	0	8006	621290	0	0
2024-07-20 17:39:47			0	36035	0	0	0	28703	27360	169465	27435	1051629	44904	110666	0	0	8005	621879	0	0
2024-07-20 17:40:47			0	36016	0	0	0	28706	27360	169565	27241	1051602	44926	110667	0	0	8004	622679	0	0
2024-07-20 17:41:47			0	36009	0	0	0	28722	27350	169565	27213	1051647	44916	110673	0	0	8003	623010	0	0
2024-07-20 17:42:47			0	36022	0	0	0	28722	27350	169609	27284	1051638	44937	110673	0	0	8004	622462	0	0
2024-07-20 17:43:47			0	36019	0	0	0	28724	27350	169521	27270	1051647	44926	110674	0	0	8004	622589	0	0
2024-07-20 17:44:47			0	36040	0	0	0	28716	27350	169489	27027	1051665	44926	110671	0	0	8005	621704	0	0
2024-07-20 17:45:47			0	36060	0	0	0	28706	27350	169465	27093	1051620	44926	110667	0	0	8006	620863	0	0
2024-07-20 17:46:47			0	36069	0	0	0	28706	27340	169257	27220	1051593	44914	110667	0	0	8007	620520	0	0
2024-07-20 17:47:47			0	36055	0	0	0	28698	27340	169433	27403	1051647	44924	110664	0	0	8006	621109	0	0
2024-07-20 17:48:47			0	36045	0	0	0	28703	27330	169457	27118	1051549	44913	110666	0	0	8006	621565	0	0
2024-07-20 17:49:47			0	36040	0	0	0	28719	27340	169485	26935	1051593	44914	110672	0	0	8005	621740	0	0
2024-07-20 17:50:47			0	36008	0	0	0	28763	27340	169585	27197	1051736	44925	110689	0	0	8002	623088	0	0
2024-07-20 17:51:47			0	36026	0	0	0	28727	27340	169657	27230	1051683	44925	110675	0	0	8004	622329	0	0
2024-07-20 17:52:47			0	36022	0	0	0	28714	27350	169517	26752	1051745	44926	110670	0	0	8004	622462	0	0
2024-07-20 17:53:47			0	36045	0	0	0	28719	27340	169525	27170	1051683	44925	110672	0	0	8005	621530	0	0
2024-07-20 17:54:47			0	36035	0	0	0	28711	27350	169557	27315	1051700	44926	110669	0	0	8005	621915	0	0
2024-07-20 17:55:47			0	36026	0	0	0	28722	27350	169561	27255	1051638	44926	110673	0	0	8004	622294	0	0
2024-07-20 17:56:47			0	36011	0	0	0	28698	27340	169637	27166	1051674	44914	110664	0	0	8004	622961	0	0
2024-07-20 17:57:47			0	36012	0	0	0	28711	27330	169773	27248	1051611	44913	110669	0	0	8003	622955	0	0
2024-07-20 17:58:47			0	35987	0	0	0	28716	27330	169601	27079	1051665	44923	110671	0	0	8002	624010	0	0
2024-07-20 17:59:47			0	36000	0	0	0	28709	27340	169705	26941	1051674	44914	110668	0	0	8003	623426	0	0
2024-07-20 18:00:47			0	35975	0	0	0	28711	27340	169805	26939	1051647	44936	110669	0	0	8001	624481	0	0
2024-07-20 18:01:47			0	35981	0	0	0	28724	27340	169785	26752	1051629	44925	110674	0	0	8001	624227	0	0
2024-07-20 18:02:47			0	35973	0	0	0	28740	27350	169725	26847	1051673	44937	110680	0	0	8001	624529	0	0
2024-07-20 18:03:47			0	35979	0	0	0	28735	27340	169797	27152	1051763	44925	110678	0	0	8001	624312	0	0
2024-07-20 18:04:47			0	35997	0	0	0	28732	27350	169689	26996	1051718	44926	110677	0	0	8002	623516	0	0
2024-07-20 18:05:47			0	36006	0	0	0	28737	27350	169593	27131	1051673	44926	110679	0	0	8003	623137	0	0
2024-07-20 18:06:47			0	36039	0	0	0	28703	27350	169617	27244	1051673	44937	110666	0	0	8005	621746	0	0
2024-07-20 18:07:47			0	36049	0	0	0	28685	27350	169557	27001	1051673	44926	110659	0	0	8006	621325	0	0
2024-07-20 18:08:47			0	36033	0	0	0	28696	27340	169569	26856	1051656	44925	110663	0	0	8005	622035	0	0
2024-07-20 18:09:47			0	36001	0	0	0	28672	27340	169621	26778	1051602	44915	110654	0	0	8003	623383	0	0
2024-07-20 18:10:47			0	35988	0	0	0	28711	27340	169729	27043	1051575	44915	110669	0	0	8002	623932	0	0
2024-07-20 18:11:47			0	35989	0	0	0	28716	27330	169801	27112	1051692	44923	110671	0	0	8002	623926	0	0
2024-07-20 18:12:47			0	35974	0	0	0	28701	27340	169709	26892	1051710	44925	110665	0	0	8001	624523	0	0
2024-07-20 18:13:47			0	35997	0	0	0	28654	27350	169697	27331	1051647	44926	110647	0	0	8004	623516	0	0
2024-07-20 18:14:47			0	36012	0	0	0	28651	27330	169657	27457	1051584	44935	110646	0	0	8004	622955	0	0
2024-07-20 18:15:47			0	35975	0	0	0	28763	27340	169701	27118	1051647	44924	110689	0	0	8000	624481	0	0
2024-07-20 18:16:47			0	36003	0	0	0	28716	27330	169673	27159	1051719	44935	110671	0	0	8003	623335	0	0
2024-07-20 18:17:47			0	36029	0	0	0	28644	27340	169649	27274	1051575	44925	110643	0	0	8006	622203	0	0
2024-07-20 18:18:47			0	36040	0	0	0	28636	27340	169557	27211	1051593	44924	110640	0	0	8006	621740	0	0
2024-07-20 18:19:47			0	35999	0	0	0	28649	27330	169589	27071	1051530	44901	110645	0	0	8004	623503	0	0
2024-07-20 18:20:47			0	36013	0	0	0	28677	27330	169701	27147	1051549	44935	110656	0	0	8004	622913	0	0
2024-07-20 18:21:47			0	36015	0	0	0	28672	27310	169661	27211	1051522	44921	110654	0	0	8004	622900	0	0
2024-07-20 18:22:47			0	36003	0	0	0	28680	27330	169677	27027	1051638	44923	110657	0	0	8003	623335	0	0
2024-07-20 18:23:47			0	36007	0	0	0	28649	27330	169681	27308	1051575	44923	110645	0	0	8004	623166	0	0
2024-07-20 18:24:47			0	36017	0	0	0	28670	27330	169621	27085	1051495	44913	110653	0	0	8004	622745	0	0
2024-07-20 18:25:47			0	35993	0	0	0	28664	27320	169729	26831	1051504	44912	110651	0	0	8003	623793	0	0
2024-07-20 18:26:47			0	35984	0	0	0	28667	27310	169733	27209	1051468	44921	110652	0	0	8002	624208	0	0
2024-07-20 18:27:47			0	35988	0	0	0	28688	27310	169701	26854	1051486	44933	110660	0	0	8002	624039	0	0
2024-07-20 18:28:47			0	36005	0	0	0	28690	27320	169717	27229	1051593	44923	110661	0	0	8003	623286	0	0
2024-07-20 18:29:47			0	36033	0	0	0	28724	27320	169637	27485	1051585	44934	110674	0	0	8004	622106	0	0
2024-07-20 18:30:47			0	36080	0	0	0	28680	27330	169265	27010	1051665	44923	110657	0	0	8008	620093	0	0
2024-07-20 18:31:47			0	36159	0	0	0	28698	27330	168901	26946	1051602	44913	110664	0	0	8012	616780	0	0
2024-07-20 18:32:47			0	36174	0	0	0	28774	27330	168953	27135	1051683	44935	110693	0	0	8012	616152	0	0
2024-07-20 18:33:47			0	36204	0	0	0	28719	27350	168857	27253	1051691	44916	110672	0	0	8015	614827	0	0
2024-07-20 18:34:47			0	36232	0	0	0	28688	27340	168713	27308	1051683	44925	110660	0	0	8017	613694	0	0
2024-07-20 18:35:47			0	36252	0	0	0	28625	27340	168569	27253	1051575	44903	110636	0	0	8019	612860	0	0
2024-07-20 18:36:47			0	36261	0	0	0	28732	27330	168565	26764	1051584	44913	110677	0	0	8018	612520	0	0
2024-07-20 18:37:47			0	36233	0	0	0	28768	27350	168577	27255	1051691	44916	110691	0	0	8016	613617	0	0
2024-07-20 18:38:47			0	36223	0	0	0	28776	27350	168661	27227	1051727	44926	110694	0	0	8015	614034	0	0
2024-07-20 18:39:47			0	36228	0	0	0	28740	27350	168665	27064	1051781	44937	110680	0	0	8016	613825	0	0
2024-07-20 18:40:47			0	36229	0	0	0	28677	27350	168693	27156	1051718	44916	110656	0	0	8017	613784	0	0
2024-07-20 18:41:47			0	36223	0	0	0	28659	27350	168705	27229	1051584	44904	110649	0	0	8017	614034	0	0
2024-07-20 18:42:47			0	36207	0	0	0	28654	27340	168713	26863	1051486	44902	110647	0	0	8016	614737	0	0
2024-07-20 18:43:47			0	36216	0	0	0	28662	27330	168669	27208	1051495	44901	110650	0	0	8017	614397	0	0
2024-07-20 18:44:47			0	36218	0	0	0	28680	27330	168653	27130	1051468	44923	110657	0	0	8016	614313	0	0
2024-07-20 18:45:47			0	36241	0	0	0	28703	27320	168613	27067	1051585	44922	110666	0	0	8017	613389	0	0
2024-07-20 18:46:47			0	36246	0	0	0	28683	27310	168649	26887	1051567	44911	110658	0	0	8018	613216	0	0
2024-07-20 18:47:47			0	36257	0	0	0	28701	27330	168609	26955	1051602	44923	110665	0	0	8018	612687	0	0
2024-07-20 18:48:47			0	36248	0	0	0	28716	27320	168517	27109	1051540	44935	110671	0	0	8017	613097	0	0
2024-07-20 18:49:47			0	36252	0	0	0	28727	27320	168493	27157	1051620	44935	110675	0	0	8018	612930	0	0
2024-07-20 18:50:47			0	36254	0	0	0	28729	27320	168697	27102	1051620	44923	110676	0	0	8018	612847	0	0
2024-07-20 18:51:47			0	36226	0	0	0	28724	27330	168745	27100	1051692	44935	110674	0	0	8016	613979	0	0
2024-07-20 18:52:47			0	36225	0	0	0	28714	27330	168797	26968	1051692	44913	110670	0	0	8016	614021	0	0
2024-07-20 18:53:47			0	36179	0	0	0	28740	27330	168913	27086	1051665	44923	110680	0	0	8013	615943	0	0
2024-07-20 18:54:47			0	36174	0	0	0	28742	27340	169025	26994	1051683	44925	110681	0	0	8013	616117	0	0
2024-07-20 18:55:47			0	36176	0	0	0	28735	27340	169133	26710	1051728	44936	110678	0	0	8013	616033	0	0
2024-07-20 18:56:47			0	36174	0	0	0	28745	27340	169113	27059	1051763	44925	110682	0	0	8013	616117	0	0
2024-07-20 18:57:47			0	36163	0	0	0	28742	27340	169069	27109	1051701	44936	110681	0	0	8012	616577	0	0
2024-07-20 18:58:47			0	36164	0	0	0	28735	27350	169093	26920	1051754	44937	110678	0	0	8012	616500	0	0
2024-07-20 18:59:47			0	36166	0	0	0	28719	27340	169009	27111	1051754	44924	110672	0	0	8013	616451	0	0
2024-07-20 19:00:47			0	36161	0	0	0	28672	27340	169005	26977	1051629	44915	110654	0	0	8013	616661	0	0
2024-07-20 19:01:47			0	36168	0	0	0	28649	27340	169001	26793	1051548	44903	110645	0	0	8014	616368	0	0
2024-07-20 19:02:47			0	36191	0	0	0	28649	27330	168857	27277	1051504	44901	110645	0	0	8015	615441	0	0
2024-07-20 19:03:47			0	36228	0	0	0	28618	27330	168721	27208	1051396	44901	110633	0	0	8018	613896	0	0
2024-07-20 19:04:47			0	36228	0	0	0	28599	27300	168741	27005	1051370	44899	110626	0	0	8018	614002	0	0
2024-07-20 19:05:47			0	36231	0	0	0	28625	27300	168849	27104	1051307	44899	110636	0	0	8018	613877	0	0
2024-07-20 19:06:47			0	36202	0	0	0	28649	27300	168793	27305	1051415	44920	110645	0	0	8016	615088	0	0
2024-07-20 19:07:47			0	36175	0	0	0	28631	27300	168877	27022	1051469	44932	110638	0	0	8014	616216	0	0
2024-07-20 19:08:47			0	36148	0	0	0	28579	27300	169033	27327	1051388	44932	110618	0	0	8014	617347	0	0
2024-07-20 19:09:47			0	36120	0	0	0	28548	27280	169101	27180	1051280	44909	110606	0	0	8012	618592	0	0
2024-07-20 19:10:47			0	36098	0	0	0	28555	27270	169201	26847	1051209	44884	110609	0	0	8011	619551	0	0
2024-07-20 19:11:47			0	36107	0	0	0	28579	27270	169273	27232	1051146	44895	110618	0	0	8011	619173	0	0
2024-07-20 19:12:47			0	36116	0	0	0	28628	27270	169325	27135	1051254	44895	110637	0	0	8011	618795	0	0
2024-07-20 19:13:47			0	36123	0	0	0	28672	27260	169273	27055	1051245	44928	110654	0	0	8010	618537	0	0
2024-07-20 19:14:47			0	36108	0	0	0	28636	27270	169169	27218	1051334	44916	110640	0	0	8010	619131	0	0
2024-07-20 19:15:47			0	36115	0	0	0	28553	27270	169269	27594	1051200	44906	110608	0	0	8012	618837	0	0
2024-07-20 19:16:47			0	36106	0	0	0	28550	27260	169349	27067	1051218	44895	110607	0	0	8011	619250	0	0
2024-07-20 19:17:47			0	36094	0	0	0	28524	27250	169317	27180	1051057	44881	110597	0	0	8011	619790	0	0
2024-07-20 19:18:47			0	36081	0	0	0	28540	27230	169345	27209	1050977	44892	110603	0	0	8010	620407	0	0
2024-07-20 19:19:47			0	36073	0	0	0	28503	27220	169369	27130	1050986	44879	110589	0	0	8010	620779	0	0
2024-07-20 19:20:47			0	36066	0	0	0	28506	27210	169557	27147	1050888	44878	110590	0	0	8010	621110	0	0
2024-07-20 19:21:47			0	36066	0	0	0	28561	27210	169501	27053	1050915	44913	110611	0	0	8009	621110	0	0
2024-07-20 19:22:47			0	36075	0	0	0	28522	27200	169461	27180	1050933	44912	110596	0	0	8010	620767	0	0
2024-07-20 19:23:47			0	36045	0	0	0	28540	27210	169605	27253	1050977	44902	110603	0	0	8008	621994	0	0
2024-07-20 19:24:47			0	36014	0	0	0	28498	27200	169637	27229	1050906	44900	110587	0	0	8006	623336	0	0
2024-07-20 19:25:47			0	35997	0	0	0	28493	27190	169857	26698	1050780	44899	110585	0	0	8005	624089	0	0
2024-07-20 19:26:47			0	36006	0	0	0	28477	27190	169833	27027	1050754	44888	110579	0	0	8006	623710	0	0
2024-07-20 19:27:47			0	36006	0	0	0	28475	27180	169745	26682	1050709	44887	110578	0	0	8006	623745	0	0
2024-07-20 19:28:47			0	36022	0	0	0	28480	27160	169781	27041	1050691	44884	110580	0	0	8007	623142	0	0
2024-07-20 19:29:47			0	36028	0	0	0	28485	27160	169685	26778	1050584	44874	110582	0	0	8007	622889	0	0
2024-07-20 19:30:47			0	36041	0	0	0	28480	27150	169829	27251	1050656	44907	110580	0	0	8008	622377	0	0
2024-07-20 19:31:47			0	36036	0	0	0	28501	27150	169629	26876	1050700	44895	110588	0	0	8007	622587	0	0
2024-07-20 19:32:47			0	36045	0	0	0	28548	27140	169761	27201	1050719	44916	110606	0	0	8007	622244	0	0
2024-07-20 19:33:47			0	36036	0	0	0	28555	27150	169881	26776	1050736	44917	110609	0	0	8007	622587	0	0
2024-07-20 19:34:47			0	35999	0	0	0	28555	27150	169889	27201	1050781	44917	110609	0	0	8004	624148	0	0
2024-07-20 19:35:47			0	35997	0	0	0	28563	27150	169937	27294	1050790	44917	110612	0	0	8004	624233	0	0
2024-07-20 19:36:47			0	35996	0	0	0	28561	27160	170001	27277	1050853	44907	110611	0	0	8004	624239	0	0
2024-07-20 19:37:47			0	35999	0	0	0	28573	27170	169905	27171	1050871	44909	110616	0	0	8004	624077	0	0
2024-07-20 19:38:47			0	35993	0	0	0	28592	27180	170021	27377	1050861	44919	110623	0	0	8003	624294	0	0
2024-07-20 19:39:47			0	35982	0	0	0	28563	27170	170029	27157	1050871	44919	110612	0	0	8003	624795	0	0
2024-07-20 19:40:47			0	35991	0	0	0	28545	27170	170053	26876	1050826	44909	110605	0	0	8004	624414	0	0
2024-07-20 19:41:47			0	35980	0	0	0	28542	27170	170001	27024	1050844	44897	110604	0	0	8003	624879	0	0
2024-07-20 19:42:47			0	35960	0	0	0	28561	27170	170041	26960	1050844	44919	110611	0	0	8002	625725	0	0
2024-07-20 19:43:47			0	35952	0	0	0	28537	27160	170065	26892	1050808	44929	110602	0	0	8002	626099	0	0
2024-07-20 19:44:47			0	35957	0	0	0	28561	27160	170057	27228	1050772	44907	110611	0	0	8002	625888	0	0
2024-07-20 19:45:47			0	35950	0	0	0	28584	27150	169997	27124	1050817	44907	110620	0	0	8001	626220	0	0
2024-07-20 19:46:47			0	35959	0	0	0	28586	27170	170041	27313	1050906	44930	110621	0	0	8001	625767	0	0
2024-07-20 19:47:47			0	35947	0	0	0	28589	27180	170025	26902	1050924	44920	110622	0	0	8001	626239	0	0
2024-07-20 19:48:47			0	35969	0	0	0	28589	27180	170069	26986	1050861	44909	110622	0	0	8002	625308	0	0
2024-07-20 19:49:47			0	35954	0	0	0	28589	27180	170009	27064	1050888	44909	110622	0	0	8001	625943	0	0
2024-07-20 19:50:47			0	35971	0	0	0	28576	27170	170009	27079	1050879	44930	110617	0	0	8002	625260	0	0
2024-07-20 19:51:47			0	35990	0	0	0	28568	27180	170017	27173	1050951	44898	110614	0	0	8004	624421	0	0
2024-07-20 19:52:47			0	35977	0	0	0	28573	27180	170021	27121	1050835	44909	110616	0	0	8003	624970	0	0
2024-07-20 19:53:47			0	35978	0	0	0	28576	27180	169957	26982	1050888	44909	110617	0	0	8003	624928	0	0
2024-07-20 19:54:47			0	35984	0	0	0	28548	27170	169985	27029	1050826	44897	110606	0	0	8004	624710	0	0
2024-07-20 19:55:47			0	35974	0	0	0	28490	27170	169973	27114	1050691	44909	110584	0	0	8004	625133	0	0
2024-07-20 19:56:47			0	35966	0	0	0	28506	27170	170085	27017	1050745	44897	110590	0	0	8003	625471	0	0
2024-07-20 19:57:47			0	35953	0	0	0	28522	27150	170129	27090	1050682	44907	110596	0	0	8002	626093	0	0
2024-07-20 19:58:47			0	35927	0	0	0	28540	27160	170233	27066	1050727	44896	110603	0	0	8000	627158	0	0
2024-07-20 19:59:47			0	35900	0	0	0	28524	27150	170333	27189	1050647	44895	110597	0	0	7999	628339	0	0
2024-07-20 20:00:47			0	35918	0	0	0	28503	27150	170249	27232	1050682	44895	110589	0	0	8000	627575	0	0
2024-07-20 20:01:47			0	35906	0	0	0	28509	27140	170261	26923	1050584	44906	110591	0	0	7999	628121	0	0
2024-07-20 20:02:47			0	35895	0	0	0	28488	27140	170301	27150	1050602	44905	110583	0	0	7999	628587	0	0
2024-07-20 20:03:47			0	35869	0	0	0	28488	27130	170429	27008	1050620	44882	110583	0	0	7997	629728	0	0
2024-07-20 20:04:47			0	35863	0	0	0	28485	27140	170497	26892	1050575	44905	110582	0	0	7997	629946	0	0
2024-07-20 20:05:47			0	35853	0	0	0	28493	27130	170644	27093	1050531	44926	110585	0	0	7996	630408	0	0
2024-07-20 20:06:47			0	35845	0	0	0	28498	27130	170516	26750	1050584	44904	110587	0	0	7996	630748	0	0
2024-07-20 20:07:47			0	35849	0	0	0	28490	27120	170476	27086	1050540	44903	110584	0	0	7996	630614	0	0
2024-07-20 20:08:47			0	35868	0	0	0	28483	27120	170629	27232	1050549	44893	110581	0	0	7997	629806	0	0
2024-07-20 20:09:47			0	35845	0	0	0	28485	27110	170540	27447	1050504	44891	110582	0	0	7996	630820	0	0
2024-07-20 20:10:47			0	35840	0	0	0	28477	27110	170676	26927	1050558	44891	110579	0	0	7996	631033	0	0
2024-07-20 20:11:47			0	35846	0	0	0	28475	27110	170628	27095	1050504	44913	110578	0	0	7996	630778	0	0
2024-07-20 20:12:47			0	35839	0	0	0	28488	27110	170612	27076	1050468	44902	110583	0	0	7996	631076	0	0
2024-07-20 20:13:47			0	35825	0	0	0	28490	27100	170712	27201	1050540	44902	110584	0	0	7995	631708	0	0
2024-07-20 20:14:47			0	35834	0	0	0	28488	27110	170644	27244	1050504	44924	110583	0	0	7995	631289	0	0
2024-07-20 20:15:47			0	35829	0	0	0	28485	27100	170684	27086	1050486	44913	110582	0	0	7995	631538	0	0
2024-07-20 20:16:47			0	35848	0	0	0	28485	27110	170596	27183	1050531	44913	110582	0	0	7996	630693	0	0
2024-07-20 20:17:47			0	35837	0	0	0	28493	27110	170572	26823	1050495	44913	110585	0	0	7995	631161	0	0
2024-07-20 20:18:47			0	35827	0	0	0	28485	27110	170652	26927	1050477	44913	110582	0	0	7995	631587	0	0
2024-07-20 20:19:47			0	35845	0	0	0	28496	27100	170628	27161	1050513	44902	110586	0	0	7996	630857	0	0
2024-07-20 20:20:47			0	35855	0	0	0	28472	27100	170617	26540	1050478	44890	110577	0	0	7997	630431	0	0
2024-07-20 20:21:47			0	35867	0	0	0	28467	27100	170609	27043	1050460	44891	110575	0	0	7998	629921	0	0
2024-07-20 20:22:47			0	35866	0	0	0	28470	27100	170533	27180	1050433	44913	110576	0	0	7997	629963	0	0
2024-07-20 20:23:47			0	35867	0	0	0	28470	27100	170469	27277	1050424	44912	110576	0	0	7997	629921	0	0
2024-07-20 20:24:47			0	35868	0	0	0	28470	27090	170581	27118	1050415	44900	110576	0	0	7997	629915	0	0
2024-07-20 20:25:47			0	35893	0	0	0	28475	27090	170493	27166	1050442	44889	110578	0	0	7999	628852	0	0
2024-07-20 20:26:47			0	35891	0	0	0	28467	27090	170485	27111	1050406	44900	110575	0	0	7999	628938	0	0
2024-07-20 20:27:47			0	35931	0	0	0	28470	27090	170261	27038	1050379	44889	110576	0	0	8001	627241	0	0
2024-07-20 20:28:47			0	35943	0	0	0	28459	27080	170277	27039	1050397	44911	110572	0	0	8002	626768	0	0
2024-07-20 20:29:47			0	35947	0	0	0	28441	27080	170221	26771	1050424	44900	110565	0	0	8003	626599	0	0
2024-07-20 20:30:47			0	35928	0	0	0	28433	27090	170289	27072	1050326	44889	110562	0	0	8002	627368	0	0
2024-07-20 20:31:47			0	35880	0	0	0	28412	27080	170417	26911	1050254	44888	110554	0	0	7999	629441	0	0
2024-07-20 20:32:47			0	35850	0	0	0	28410	27060	170580	26797	1050246	44886	110553	0	0	7997	630789	0	0
2024-07-20 20:33:47			0	35817	0	0	0	28407	27070	170896	26989	1050263	44898	110552	0	0	7995	632158	0	0
2024-07-20 20:34:47			0	35808	0	0	0	28410	27050	170892	26755	1050174	44896	110553	0	0	7995	632614	0	0
2024-07-20 20:35:47			0	35792	0	0	0	28410	27050	170924	26942	1050174	44885	110553	0	0	7994	633297	0	0
2024-07-20 20:36:47			0	35795	0	0	0	28420	27050	171004	26693	1050183	44896	110557	0	0	7994	633169	0	0
2024-07-20 20:37:47			0	35787	0	0	0	28436	27050	171052	27118	1050174	44885	110563	0	0	7993	633510	0	0
2024-07-20 20:38:47			0	35779	0	0	0	28431	27050	170988	26712	1050237	44896	110561	0	0	7993	633852	0	0
2024-07-20 20:39:47			0	35791	0	0	0	28431	27040	170948	27043	1050165	44907	110561	0	0	7993	633376	0	0
2024-07-20 20:40:47			0	35779	0	0	0	28436	27050	171004	26807	1050228	44908	110563	0	0	7992	633852	0	0
2024-07-20 20:41:47			0	35794	0	0	0	28444	27050	170980	26925	1050201	44896	110566	0	0	7993	633211	0	0
2024-07-20 20:42:47			0	35788	0	0	0	28438	27050	170964	26835	1050201	44908	110564	0	0	7993	633467	0	0
2024-07-20 20:43:47			0	35777	0	0	0	28444	27050	170992	26953	1050264	44896	110566	0	0	7992	633937	0	0
2024-07-20 20:44:47			0	35770	0	0	0	28433	27040	170980	26960	1050246	44907	110562	0	0	7992	634272	0	0
2024-07-20 20:45:47			0	35779	0	0	0	28431	27050	171100	26717	1050201	44896	110561	0	0	7993	633852	0	0
2024-07-20 20:46:47			0	35759	0	0	0	28428	27050	171132	26746	1050228	44908	110560	0	0	7991	634706	0	0
2024-07-20 20:47:47			0	35743	0	0	0	28428	27050	171280	26868	1050237	44918	110560	0	0	7990	635390	0	0
2024-07-20 20:48:47			0	35737	0	0	0	28433	27050	171232	27008	1050210	44896	110562	0	0	7990	635647	0	0
2024-07-20 20:49:47			0	35739	0	0	0	28428	27050	171228	27079	1050201	44896	110560	0	0	7990	635562	0	0
2024-07-20 20:50:47			0	35715	0	0	0	28425	27050	171308	27128	1050237	44908	110559	0	0	7989	636589	0	0
2024-07-20 20:51:47			0	35728	0	0	0	28423	27050	171248	26828	1050183	44908	110558	0	0	7990	636032	0	0
2024-07-20 20:52:47			0	35743	0	0	0	28423	27050	171276	26816	1050228	44908	110558	0	0	7990	635390	0	0
2024-07-20 20:53:47			0	35727	0	0	0	28420	27030	171264	27353	1050219	44905	110557	0	0	7989	636148	0	0
2024-07-20 20:54:47			0	35737	0	0	0	28415	27040	171220	26998	1050165	44895	110555	0	0	7990	635684	0	0
2024-07-20 20:55:47			0	35729	0	0	0	28425	27040	171168	27039	1050183	44895	110559	0	0	7990	636026	0	0
2024-07-20 20:56:47			0	35734	0	0	0	28420	27040	171244	27260	1050183	44907	110557	0	0	7990	635812	0	0
2024-07-20 20:57:47			0	35737	0	0	0	28407	27040	171140	26850	1050156	44895	110552	0	0	7990	635684	0	0
2024-07-20 20:58:47			0	35723	0	0	0	28410	27040	171192	26901	1050138	44895	110553	0	0	7989	636283	0	0
2024-07-20 20:59:47			0	35720	0	0	0	28412	27040	171228	26703	1050102	44907	110554	0	0	7989	636411	0	0
2024-07-20 21:00:47			0	35713	0	0	0	28405	27030	171312	26741	1050165	44893	110551	0	0	7989	636748	0	0
2024-07-20 21:01:47			0	35707	0	0	0	28407	27030	171396	26753	1050067	44916	110552	0	0	7988	637005	0	0
2024-07-20 21:02:47			0	35714	0	0	0	28410	27030	171412	26838	1050120	44894	110553	0	0	7989	636705	0	0
2024-07-20 21:03:47			0	35714	0	0	0	28415	27040	171396	26748	1050049	44907	110555	0	0	7989	636668	0	0
2024-07-20 21:04:47			0	35714	0	0	0	28410	27020	171372	27046	1050103	44905	110553	0	0	7989	636741	0	0
2024-07-20 21:05:47			0	35711	0	0	0	28412	27030	171464	27019	1050120	44894	110554	0	0	7989	636833	0	0
2024-07-20 21:06:47			0	35703	0	0	0	28405	27020	171376	26823	1050156	44916	110551	0	0	7988	637213	0	0
2024-07-20 21:07:47			0	35685	0	0	0	28415	27020	171420	26856	1050067	44893	110555	0	0	7987	637985	0	0
2024-07-20 21:08:47			0	35687	0	0	0	28407	27030	171456	26837	1050138	44905	110552	0	0	7987	637862	0	0
2024-07-20 21:09:47			0	35674	0	0	0	28412	27030	171488	26856	1050094	44894	110554	0	0	7986	638420	0	0
2024-07-20 21:10:47			0	35668	0	0	0	28399	27010	171480	27294	1050085	44904	110549	0	0	7986	638751	0	0
2024-07-20 21:11:47			0	35664	0	0	0	28410	27020	171444	27168	1050130	44916	110553	0	0	7986	638886	0	0
2024-07-20 21:12:47			0	35671	0	0	0	28407	27030	171512	27289	1050085	44882	110552	0	0	7986	638549	0	0
2024-07-20 21:13:47			0	35676	0	0	0	28407	27020	171488	26996	1050067	44905	110552	0	0	7986	638371	0	0
2024-07-20 21:14:47			0	35674	0	0	0	28405	27020	171344	26960	1050103	44893	110551	0	0	7986	638457	0	0
2024-07-20 21:15:47			0	35675	0	0	0	28405	27010	171508	26769	1049995	44891	110551	0	0	7986	638451	0	0
2024-07-20 21:16:47			0	35686	0	0	0	28399	27020	171424	27112	1050094	44905	110549	0	0	7987	637942	0	0
2024-07-20 21:17:47			0	35695	0	0	0	28399	27020	171296	26805	1050049	44893	110549	0	0	7988	637556	0	0
2024-07-20 21:18:47			0	35707	0	0	0	28399	27020	171344	27203	1050040	44905	110549	0	0	7989	637041	0	0
2024-07-20 21:19:47			0	35708	0	0	0	28394	27030	171352	26811	1050031	44893	110547	0	0	7989	636962	0	0
2024-07-20 21:20:47			0	35714	0	0	0	28389	27020	171284	27046	1050067	44893	110545	0	0	7989	636741	0	0
2024-07-20 21:21:47			0	35714	0	0	0	28397	27010	171140	27249	1050058	44892	110548	0	0	7989	636778	0	0
2024-07-20 21:22:47			0	35726	0	0	0	28397	27010	171288	27012	1050112	44892	110548	0	0	7990	636264	0	0
2024-07-20 21:23:47			0	35752	0	0	0	28386	27020	171172	26913	1050013	44893	110544	0	0	7991	635115	0	0
2024-07-20 21:24:47			0	35750	0	0	0	28392	27010	171124	26958	1050058	44904	110546	0	0	7991	635237	0	0
2024-07-20 21:25:47			0	35773	0	0	0	28384	27000	171048	27013	1050040	44891	110543	0	0	7993	634290	0	0
2024-07-20 21:26:47			0	35766	0	0	0	28392	27010	171064	27260	1050076	44891	110546	0	0	7992	634553	0	0
2024-07-20 21:27:47			0	35783	0	0	0	28392	27010	171140	26866	1050049	44891	110546	0	0	7993	633826	0	0
2024-07-20 21:28:47			0	35771	0	0	0	28394	27000	171228	27019	1050004	44890	110547	0	0	7992	634375	0	0
2024-07-20 21:29:47			0	35756	0	0	0	28381	27000	171204	26989	1050031	44890	110542	0	0	7992	635016	0	0
2024-07-20 21:30:47			0	35779	0	0	0	28384	27000	170992	27085	1049986	44891	110543	0	0	7993	634033	0	0
2024-07-20 21:31:47			0	35782	0	0	0	28386	27010	171036	27220	1049968	44891	110544	0	0	7993	633869	0	0
2024-07-20 21:32:47			0	35786	0	0	0	28384	27000	170916	27533	1050004	44902	110543	0	0	7993	633735	0	0
2024-07-20 21:33:47			0	35771	0	0	0	28381	27000	170952	27258	1049960	44891	110542	0	0	7993	634375	0	0
2024-07-20 21:34:47			0	35781	0	0	0	28379	27000	170852	26785	1049978	44890	110541	0	0	7993	633948	0	0
2024-07-20 21:35:47			0	35805	0	0	0	28366	26990	170904	27066	1050049	44902	110536	0	0	7995	632960	0	0
2024-07-20 21:36:47			0	35802	0	0	0	28376	26990	170880	26967	1049906	44889	110540	0	0	7995	633088	0	0
2024-07-20 21:37:47			0	35820	0	0	0	28374	26990	170800	26752	1049942	44902	110539	0	0	7996	632320	0	0
2024-07-20 21:38:47			0	35795	0	0	0	28368	27000	170816	26970	1049978	44902	110537	0	0	7994	633350	0	0
2024-07-20 21:39:47			0	35836	0	0	0	28368	26980	170716	26899	1049897	44901	110537	0	0	7997	631674	0	0
2024-07-20 21:40:47			0	35876	0	0	0	28368	26980	170581	27015	1049888	44888	110537	0	0	7999	629972	0	0
2024-07-20 21:41:47			0	35875	0	0	0	28376	26990	170525	26887	1049852	44889	110540	0	0	7999	629978	0	0
2024-07-20 21:42:47			0	35891	0	0	0	28366	26980	170517	26835	1049862	44900	110536	0	0	8000	629334	0	0
2024-07-20 21:43:47			0	35909	0	0	0	28379	26980	170381	27046	1049951	44889	110541	0	0	8001	628570	0	0
2024-07-20 21:44:47			0	35917	0	0	0	28379	26990	170397	26960	1049933	44889	110541	0	0	8002	628194	0	0
2024-07-20 21:45:47			0	35915	0	0	0	28374	26990	170373	27093	1049987	44901	110539	0	0	8001	628279	0	0
2024-07-20 21:46:47			0	35922	0	0	0	28376	27000	170273	27128	1049897	44902	110540	0	0	8002	627946	0	0
2024-07-20 21:47:47			0	35913	0	0	0	28379	26980	170373	26882	1049924	44889	110541	0	0	8001	628400	0	0
2024-07-20 21:48:47			0	35925	0	0	0	28384	26990	170257	26713	1049969	44890	110543	0	0	8002	627855	0	0
2024-07-20 21:49:47			0	35936	0	0	0	28381	26980	170293	27053	1049915	44900	110542	0	0	8003	627424	0	0
2024-07-20 21:50:47			0	35947	0	0	0	28374	26970	170273	26866	1049987	44888	110539	0	0	8003	626994	0	0
2024-07-20 21:51:47			0	35926	0	0	0	28381	26980	170241	27138	1049978	44912	110542	0	0	8002	627849	0	0
2024-07-20 21:52:47			0	35928	0	0	0	28381	26980	170285	26854	1049870	44889	110542	0	0	8002	627764	0	0
2024-07-20 21:53:47			0	35917	0	0	0	28379	26980	170389	26984	1049969	44900	110541	0	0	8001	628230	0	0
2024-07-20 21:54:47			0	35914	0	0	0	28381	26980	170445	26847	1049978	44912	110542	0	0	8001	628358	0	0
2024-07-20 21:55:47			0	35893	0	0	0	28379	26980	170417	27215	1049915	44900	110541	0	0	8000	629249	0	0
2024-07-20 21:56:47			0	35889	0	0	0	28376	26980	170533	27163	1049951	44901	110540	0	0	8000	629419	0	0
2024-07-20 21:57:47			0	35863	0	0	0	28374	26980	170545	26993	1049951	44889	110539	0	0	7998	630525	0	0
2024-07-20 21:58:47			0	35864	0	0	0	28371	26990	170721	27005	1049996	44902	110538	0	0	7998	630446	0	0
2024-07-20 21:59:47			0	35861	0	0	0	28371	27000	170729	26958	1049978	44879	110538	0	0	7998	630538	0	0
2024-07-20 22:00:47			0	35849	0	0	0	28371	26980	170656	27171	1049978	44889	110538	0	0	7997	631121	0	0
2024-07-20 22:01:47			0	35844	0	0	0	28363	26980	170780	27039	1049870	44889	110535	0	0	7997	631334	0	0
2024-07-20 22:02:47			0	35838	0	0	0	28368	26980	170892	26901	1049862	44900	110537	0	0	7997	631589	0	0
2024-07-20 22:03:47			0	35835	0	0	0	28376	26970	170848	26993	1049907	44877	110540	0	0	7996	631753	0	0
2024-07-20 22:04:47			0	35827	0	0	0	28368	26980	170896	27206	1049835	44888	110537	0	0	7996	632058	0	0
2024-07-20 22:05:47			0	35836	0	0	0	28358	26980	170976	27227	1049915	44888	110533	0	0	7997	631674	0	0
2024-07-20 22:06:47			0	35832	0	0	0	28358	26980	170992	27020	1049888	44888	110533	0	0	7997	631845	0	0
2024-07-20 22:07:47			0	35825	0	0	0	28363	26970	170836	27241	1049933	44877	110535	0	0	7996	632179	0	0
2024-07-20 22:08:47			0	35838	0	0	0	28355	26980	170820	27092	1049888	44888	110532	0	0	7997	631589	0	0
2024-07-20 22:09:47			0	35840	0	0	0	28358	26980	170796	27052	1049844	44889	110533	0	0	7997	631504	0	0
2024-07-20 22:10:47			0	35840	0	0	0	28350	26980	170780	27079	1049835	44888	110530	0	0	7997	631504	0	0
2024-07-20 22:11:47			0	35843	0	0	0	28350	26970	170736	27180	1049817	44887	110530	0	0	7997	631413	0	0
2024-07-20 22:12:47			0	35851	0	0	0	28361	26970	170764	26675	1049817	44887	110534	0	0	7998	631072	0	0
2024-07-20 22:13:47			0	35848	0	0	0	28350	26970	170656	26826	1049817	44899	110530	0	0	7998	631200	0	0
2024-07-20 22:14:47			0	35859	0	0	0	28350	26970	170577	26809	1049790	44899	110530	0	0	7998	630731	0	0
2024-07-20 22:15:47			0	35888	0	0	0	28340	26970	170641	27211	1049817	44876	110526	0	0	8000	629498	0	0
2024-07-20 22:16:47			0	35885	0	0	0	28340	26970	170529	27088	1049799	44888	110526	0	0	8000	629625	0	0
2024-07-20 22:17:47			0	35899	0	0	0	28340	26970	170529	27235	1049817	44910	110526	0	0	8001	629031	0	0
2024-07-20 22:18:47			0	35906	0	0	0	28335	26970	170409	27173	1049790	44887	110524	0	0	8001	628733	0	0
2024-07-20 22:19:47			0	35914	0	0	0	28335	26960	170297	27124	1049799	44886	110524	0	0	8002	628430	0	0
2024-07-20 22:20:47			0	35940	0	0	0	28337	26960	170257	27225	1049862	44876	110525	0	0	8003	627327	0	0
2024-07-20 22:21:47			0	35936	0	0	0	28335	26950	170193	27239	1049782	44897	110524	0	0	8003	627532	0	0
2024-07-20 22:22:47			0	35941	0	0	0	28332	26950	170081	26904	1049791	44886	110523	0	0	8004	627320	0	0
2024-07-20 22:23:47			0	35953	0	0	0	28332	26960	170229	27112	1049746	44886	110523	0	0	8004	626776	0	0
2024-07-20 22:24:47			0	35977	0	0	0	28329	26940	170029	26944	1049719	44897	110522	0	0	8006	625831	0	0
2024-07-20 22:25:47			0	35975	0	0	0	28327	26950	170169	27218	1049701	44886	110521	0	0	8006	625880	0	0
2024-07-20 22:26:47			0	35974	0	0	0	28327	26960	170129	27026	1049773	44886	110521	0	0	8006	625887	0	0
2024-07-20 22:27:47			0	35991	0	0	0	28327	26940	170081	27232	1049773	44897	110521	0	0	8007	625239	0	0
2024-07-20 22:28:47			0	35995	0	0	0	28324	26950	170085	27150	1049728	44875	110520	0	0	8007	625034	0	0
2024-07-20 22:29:47			0	35997	0	0	0	28324	26950	170013	27170	1049701	44886	110520	0	0	8007	624949	0	0
2024-07-20 22:30:47			0	36009	0	0	0	28322	26940	169917	27130	1049719	44875	110519	0	0	8008	624478	0	0
2024-07-20 22:31:47			0	36012	0	0	0	28319	26940	169873	27241	1049692	44908	110518	0	0	8008	624351	0	0
2024-07-20 22:32:47			0	36027	0	0	0	28332	26930	169969	26918	1049683	44885	110523	0	0	8009	623753	0	0
2024-07-20 22:33:47			0	36029	0	0	0	28324	26940	169949	26927	1049719	44908	110520	0	0	8009	623633	0	0
2024-07-20 22:34:47			0	36037	0	0	0	28324	26930	169801	27145	1049675	44884	110520	0	0	8009	623331	0	0
2024-07-20 22:35:47			0	36029	0	0	0	28314	26930	169745	26797	1049764	44896	110516	0	0	8009	623669	0	0
2024-07-20 22:36:47			0	36057	0	0	0	28314	26930	169781	26726	1049683	44885	110516	0	0	8011	622488	0	0
2024-07-20 22:37:47			0	36058	0	0	0	28311	26920	169689	26908	1049639	44862	110515	0	0	8011	622481	0	0
2024-07-20 22:38:47			0	36061	0	0	0	28303	26920	169661	27086	1049693	44873	110512	0	0	8011	622355	0	0
2024-07-20 22:39:47			0	36054	0	0	0	28319	26930	169645	27092	1049648	44884	110518	0	0	8011	622614	0	0
2024-07-20 22:40:47			0	36062	0	0	0	28309	26930	169645	26805	1049657	44885	110514	0	0	8011	622277	0	0
2024-07-20 22:41:47			0	36080	0	0	0	28311	26920	169561	26963	1049639	44895	110515	0	0	8012	621554	0	0
2024-07-20 22:42:47			0	36092	0	0	0	28319	26930	169589	26984	1049621	44895	110518	0	0	8013	621013	0	0
2024-07-20 22:43:47			0	36102	0	0	0	28311	26920	169501	27026	1049639	44884	110515	0	0	8014	620628	0	0
2024-07-20 22:44:47			0	36091	0	0	0	28309	26930	169517	27048	1049701	44873	110514	0	0	8013	621055	0	0
2024-07-20 22:45:47			0	36109	0	0	0	28319	26920	169437	27163	1049719	44873	110518	0	0	8014	620333	0	0
2024-07-20 22:46:47			0	36118	0	0	0	28314	26920	169505	26760	1049639	44895	110516	0	0	8014	619955	0	0
2024-07-20 22:47:47			0	36118	0	0	0	28306	26930	169401	26885	1049648	44895	110513	0	0	8015	619919	0	0
2024-07-20 22:48:47			0	36132	0	0	0	28306	26920	169389	26863	1049639	44895	110513	0	0	8015	619366	0	0
2024-07-20 22:49:47			0	36149	0	0	0	28306	26910	169281	26733	1049621	44894	110513	0	0	8016	618688	0	0
2024-07-20 22:50:47			0	36147	0	0	0	28309	26930	169377	27105	1049648	44884	110514	0	0	8016	618701	0	0
2024-07-20 22:51:47			0	36149	0	0	0	28309	26920	169317	26686	1049666	44895	110514	0	0	8016	618653	0	0
2024-07-20 22:52:47			0	36161	0	0	0	28303	26910	169261	27019	1049648	44872	110512	0	0	8017	618184	0	0
2024-07-20 22:53:47			0	36171	0	0	0	28309	26910	169257	26849	1049594	44905	110514	0	0	8018	617765	0	0
2024-07-20 22:54:47			0	36173	0	0	0	28314	26910	169181	26875	1049612	44882	110516	0	0	8018	617681	0	0
2024-07-20 22:55:47			0	36160	0	0	0	28314	26920	169133	26849	1049657	44894	110516	0	0	8017	618191	0	0
2024-07-20 22:56:47			0	36183	0	0	0	28314	26920	169105	26963	1049666	44884	110516	0	0	8018	617226	0	0
2024-07-20 22:57:47			0	36179	0	0	0	28303	26920	169077	27315	1049684	44883	110512	0	0	8018	617394	0	0
2024-07-20 22:58:47			0	36196	0	0	0	28314	26920	169077	27005	1049639	44873	110516	0	0	8019	616682	0	0
2024-07-20 22:59:47			0	36194	0	0	0	28301	26920	169041	27095	1049585	44895	110511	0	0	8019	616765	0	0
2024-07-20 23:00:47			0	36191	0	0	0	28306	26920	168997	26863	1049558	44884	110513	0	0	8019	616891	0	0
2024-07-20 23:01:47			0	36207	0	0	0	28298	26910	168933	27310	1049567	44872	110510	0	0	8020	616256	0	0
2024-07-20 23:02:47			0	36216	0	0	0	28303	26910	169001	26939	1049648	44883	110512	0	0	8020	615880	0	0
2024-07-20 23:03:47			0	36229	0	0	0	28298	26910	168937	27192	1049567	44883	110510	0	0	8021	615336	0	0
2024-07-20 23:04:47			0	36217	0	0	0	28298	26910	168861	27270	1049451	44893	110510	0	0	8021	615838	0	0
2024-07-20 23:05:47			0	36218	0	0	0	28303	26900	168985	27050	1049594	44870	110512	0	0	8021	615831	0	0
2024-07-20 23:06:47			0	36221	0	0	0	28290	26910	168877	27177	1049612	44871	110507	0	0	8021	615670	0	0
2024-07-20 23:07:47			0	36234	0	0	0	28293	26900	168977	26807	1049567	44881	110508	0	0	8022	615162	0	0
2024-07-20 23:08:47			0	36231	0	0	0	28290	26900	168897	26604	1049567	44881	110507	0	0	8022	615287	0	0
2024-07-20 23:09:47			0	36241	0	0	0	28283	26910	168869	26930	1049585	44893	110504	0	0	8022	614834	0	0
2024-07-20 23:10:47			0	36249	0	0	0	28298	26910	168697	27053	1049612	44893	110510	0	0	8023	614500	0	0
2024-07-20 23:11:47			0	36249	0	0	0	28306	26900	168909	27013	1049496	44893	110513	0	0	8022	614535	0	0
2024-07-20 23:12:47			0	36247	0	0	0	28298	26900	168965	27024	1049576	44882	110510	0	0	8022	614618	0	0
2024-07-20 23:13:47			0	36246	0	0	0	28301	26900	168849	26830	1049567	44881	110511	0	0	8022	614660	0	0
2024-07-20 23:14:47			0	36272	0	0	0	28306	26910	168749	26859	1049594	44872	110513	0	0	8024	613539	0	0
2024-07-20 23:15:47			0	36267	0	0	0	28306	26910	168657	26998	1049558	44893	110513	0	0	8024	613748	0	0
2024-07-20 23:16:47			0	36275	0	0	0	28298	26890	168621	26934	1049585	44892	110510	0	0	8024	613484	0	0
2024-07-20 23:17:47			0	36279	0	0	0	28311	26900	168645	27194	1049576	44871	110515	0	0	8024	613282	0	0
2024-07-20 23:18:47			0	36278	0	0	0	28288	26900	168721	27223	1049576	44882	110506	0	0	8024	613324	0	0
2024-07-20 23:19:47			0	36271	0	0	0	28293	26910	168565	27111	1049558	44871	110508	0	0	8024	613581	0	0
2024-07-20 23:20:47			0	36293	0	0	0	28301	26900	168569	27170	1049567	44881	110511	0	0	8025	612698	0	0
2024-07-20 23:21:47			0	36295	0	0	0	28290	26900	168633	27062	1049567	44881	110507	0	0	8025	612615	0	0
2024-07-20 23:22:47			0	36307	0	0	0	28293	26900	168577	26838	1049523	44882	110508	0	0	8026	612115	0	0
2024-07-20 23:23:47			0	36309	0	0	0	28288	26900	168537	26970	1049514	44881	110506	0	0	8026	612031	0	0
2024-07-20 23:24:47			0	36319	0	0	0	28272	26900	168469	27215	1049549	44893	110500	0	0	8027	611615	0	0
2024-07-20 23:25:47			0	36317	0	0	0	28280	26900	168445	26868	1049567	44892	110503	0	0	8027	611698	0	0
2024-07-20 23:26:47			0	36310	0	0	0	28280	26890	168501	26785	1049496	44891	110503	0	0	8026	612025	0	0
2024-07-20 23:27:47			0	36327	0	0	0	28283	26880	168573	26885	1049505	44890	110504	0	0	8027	611352	0	0
2024-07-20 23:28:47			0	36342	0	0	0	28280	26900	168481	27128	1049541	44881	110503	0	0	8028	610657	0	0
2024-07-20 23:29:47			0	36338	0	0	0	28285	26890	168449	26722	1049469	44880	110505	0	0	8028	610859	0	0
2024-07-20 23:30:47			0	36330	0	0	0	28277	26890	168393	27015	1049505	44892	110502	0	0	8028	611192	0	0
2024-07-20 23:31:47			0	36350	0	0	0	28285	26880	168441	27178	1049505	44890	110505	0	0	8029	610395	0	0
2024-07-20 23:32:47			0	36347	0	0	0	28280	26870	168353	26845	1049443	44879	110503	0	0	8029	610554	0	0
2024-07-20 23:33:47			0	36351	0	0	0	28283	26900	168329	26648	1049514	44903	110504	0	0	8029	610283	0	0
2024-07-20 23:34:47			0	36360	0	0	0	28285	26880	168281	27159	1049514	44901	110505	0	0	8029	609979	0	0
2024-07-20 23:35:47			0	36355	0	0	0	28280	26880	168353	26824	1049505	44879	110503	0	0	8029	610187	0	0
2024-07-20 23:36:47			0	36388	0	0	0	28283	26880	168301	27173	1049478	44890	110504	0	0	8031	608815	0	0
2024-07-20 23:37:47			0	36368	0	0	0	28280	26890	168201	26651	1049496	44891	110503	0	0	8030	609611	0	0
2024-07-20 23:38:47			0	36375	0	0	0	28285	26890	168297	26755	1049559	44892	110505	0	0	8030	609320	0	0
2024-07-20 23:39:47			0	36389	0	0	0	28283	26890	168265	26944	1049532	44892	110504	0	0	8031	608739	0	0
2024-07-20 23:40:47			0	36396	0	0	0	28277	26900	168229	27078	1049487	44881	110502	0	0	8032	608414	0	0
2024-07-20 23:41:47			0	36406	0	0	0	28272	26890	168241	26840	1049550	44880	110500	0	0	8032	608034	0	0
2024-07-20 23:42:47			0	36401	0	0	0	28277	26890	168097	26750	1049469	44880	110502	0	0	8032	608241	0	0
2024-07-20 23:43:47			0	36424	0	0	0	28275	26880	168145	26826	1049425	44901	110501	0	0	8033	607322	0	0
2024-07-20 23:44:47			0	36423	0	0	0	28275	26880	168161	26569	1049478	44890	110501	0	0	8033	607364	0	0
2024-07-20 23:45:47			0	36421	0	0	0	28277	26880	168141	26982	1049487	44890	110502	0	0	8033	607446	0	0
2024-07-20 23:46:47			0	36417	0	0	0	28275	26870	168005	26882	1049407	44878	110501	0	0	8033	607647	0	0
2024-07-20 23:47:47			0	36439	0	0	0	28264	26880	168033	26753	1049478	44890	110497	0	0	8034	606701	0	0
2024-07-20 23:48:47			0	36452	0	0	0	28275	26880	168017	26854	1049380	44890	110501	0	0	8035	606163	0	0
2024-07-20 23:49:47			0	36441	0	0	0	28270	26880	167945	26774	1049425	44879	110499	0	0	8034	606618	0	0
2024-07-20 23:50:47			0	36455	0	0	0	28275	26870	167969	26736	1049523	44890	110501	0	0	8035	606073	0	0
2024-07-20 23:51:47			0	36457	0	0	0	28270	26870	168041	26934	1049443	44890	110499	0	0	8035	605990	0	0
2024-07-20 23:52:47			0	36452	0	0	0	28262	26880	167861	26930	1049425	44890	110496	0	0	8035	606163	0	0
2024-07-20 23:53:47			0	36465	0	0	0	28262	26890	167833	27126	1049442	44869	110496	0	0	8036	605590	0	0
2024-07-20 23:54:47			0	36477	0	0	0	28254	26860	167745	26769	1049398	44877	110493	0	0	8037	605198	0	0
2024-07-20 23:55:47			0	36478	0	0	0	28254	26870	167785	26630	1049353	44878	110493	0	0	8037	605122	0	0
2024-07-20 23:56:47			0	36491	0	0	0	28259	26870	167765	26979	1049380	44878	110495	0	0	8038	604584	0	0
2024-07-20 23:57:47			0	36480	0	0	0	28262	26860	167697	26934	1049398	44900	110496	0	0	8037	605074	0	0
2024-07-20 23:58:47			0	36495	0	0	0	28251	26860	167741	27157	1049371	44888	110492	0	0	8038	604454	0	0
2024-07-20 23:59:47			0	36495	0	0	0	28254	26870	167681	27154	1049380	44878	110493	0	0	8038	604419	0	0
2024-07-21 00:00:47			0	36503	0	0	0	28257	26870	167641	26977	1049380	44889	110494	0	0	8038	604089	0	0
2024-07-21 00:01:47			0	36528	0	0	0	28249	26870	167665	27071	1049353	44878	110491	0	0	8040	603057	0	0
2024-07-21 00:02:47			0	36510	0	0	0	28257	26860	167605	27066	1049389	44877	110494	0	0	8039	603834	0	0
2024-07-21 00:03:47			0	36510	0	0	0	28249	26860	167597	26821	1049336	44900	110491	0	0	8039	603834	0	0
2024-07-21 00:04:47			0	36521	0	0	0	28249	26860	167601	27201	1049344	44888	110491	0	0	8039	603380	0	0
2024-07-21 00:05:47			0	36540	0	0	0	28246	26860	167573	27076	1049318	44877	110490	0	0	8041	602597	0	0
2024-07-21 00:06:47			0	36540	0	0	0	28251	26850	167513	26722	1049354	44877	110492	0	0	8040	602631	0	0
2024-07-21 00:07:47			0	36555	0	0	0	28249	26860	167401	27187	1049318	44877	110491	0	0	8041	601979	0	0
2024-07-21 00:08:47			0	36552	0	0	0	28251	26850	167325	27176	1049327	44877	110492	0	0	8041	602137	0	0
2024-07-21 00:09:47			0	36566	0	0	0	28251	26860	167501	27242	1049291	44877	110492	0	0	8042	601525	0	0
2024-07-21 00:10:47			0	36563	0	0	0	28244	26860	167493	27190	1049336	44888	110489	0	0	8042	601649	0	0
2024-07-21 00:11:47			0	36569	0	0	0	28238	26850	167385	26861	1049327	44877	110487	0	0	8042	601437	0	0
2024-07-21 00:12:47			0	36562	0	0	0	28236	26850	167525	27227	1049291	44876	110486	0	0	8042	601725	0	0
2024-07-21 00:13:47			0	36574	0	0	0	28238	26860	167361	26882	1049309	44877	110487	0	0	8043	601196	0	0
2024-07-21 00:14:47			0	36577	0	0	0	28241	26850	167321	27230	1049318	44887	110488	0	0	8043	601107	0	0
2024-07-21 00:15:47			0	36587	0	0	0	28236	26850	167297	26873	1049318	44876	110486	0	0	8044	600696	0	0
2024-07-21 00:16:47			0	36589	0	0	0	28231	26840	167274	26875	1049309	44875	110484	0	0	8044	600648	0	0
2024-07-21 00:17:47			0	36577	0	0	0	28236	26850	167329	27088	1049327	44900	110486	0	0	8043	601107	0	0
2024-07-21 00:18:47			0	36592	0	0	0	28238	26840	167293	26873	1049255	44886	110487	0	0	8044	600525	0	0
2024-07-21 00:19:47			0	36575	0	0	0	28241	26840	167309	27059	1049246	44875	110488	0	0	8043	601224	0	0
2024-07-21 00:20:47			0	36582	0	0	0	28236	26850	167217	26793	1049291	44887	110486	0	0	8043	600901	0	0
2024-07-21 00:21:47			0	36581	0	0	0	28238	26850	167305	26930	1049264	44887	110487	0	0	8043	600943	0	0
2024-07-21 00:22:47			0	36593	0	0	0	28231	26850	167229	26948	1049291	44887	110484	0	0	8044	600449	0	0
2024-07-21 00:23:47			0	36597	0	0	0	28236	26840	167338	26757	1049220	44875	110486	0	0	8044	600319	0	0
2024-07-21 00:24:47			0	36595	0	0	0	28228	26840	167274	26830	1049300	44875	110483	0	0	8044	600401	0	0
2024-07-21 00:25:47			0	36579	0	0	0	28228	26840	167253	27216	1049228	44875	110483	0	0	8043	601059	0	0
2024-07-21 00:26:47			0	36606	0	0	0	28238	26840	167274	27000	1049300	44875	110487	0	0	8045	599949	0	0
2024-07-21 00:27:47			0	36604	0	0	0	28228	26840	167286	27118	1049246	44864	110483	0	0	8045	600031	0	0
2024-07-21 00:28:47			0	36598	0	0	0	28228	26840	167330	26873	1049246	44875	110483	0	0	8044	600278	0	0
2024-07-21 00:29:47			0	36588	0	0	0	28228	26840	167354	26967	1049220	44875	110483	0	0	8044	600689	0	0
2024-07-21 00:30:47			0	36579	0	0	0	28223	26830	167317	27145	1049238	44875	110481	0	0	8043	601094	0	0
2024-07-21 00:31:47			0	36613	0	0	0	28233	26830	167386	27241	1049175	44885	110485	0	0	8045	599696	0	0
2024-07-21 00:32:47			0	36591	0	0	0	28225	26840	167401	27000	1049166	44875	110482	0	0	8044	600566	0	0
2024-07-21 00:33:47			0	36607	0	0	0	28228	26830	167406	26994	1049211	44875	110483	0	0	8045	599942	0	0
2024-07-21 00:34:47			0	36587	0	0	0	28220	26830	167330	27332	1049184	44875	110480	0	0	8044	600764	0	0
2024-07-21 00:35:47			0	36590	0	0	0	28220	26840	167169	27138	1049175	44864	110480	0	0	8044	600607	0	0
2024-07-21 00:36:47			0	36594	0	0	0	28218	26830	167282	27265	1049291	44875	110479	0	0	8044	600477	0	0
2024-07-21 00:37:47			0	36604	0	0	0	28220	26830	167310	27052	1049211	44875	110480	0	0	8045	600066	0	0
2024-07-21 00:38:47			0	36594	0	0	0	28218	26830	167250	27345	1049184	44864	110479	0	0	8044	600477	0	0
2024-07-21 00:39:47			0	36608	0	0	0	28210	26830	167210	27333	1049202	44875	110476	0	0	8045	599901	0	0
2024-07-21 00:40:47			0	36615	0	0	0	28207	26830	167394	27248	1049202	44885	110475	0	0	8046	599613	0	0
2024-07-21 00:41:47			0	36602	0	0	0	28207	26820	167242	27289	1049166	44884	110475	0	0	8045	600182	0	0
2024-07-21 00:42:47			0	36611	0	0	0	28207	26820	167166	27267	1049139	44863	110475	0	0	8045	599812	0	0
2024-07-21 00:43:47			0	36611	0	0	0	28205	26830	167262	27289	1049148	44885	110474	0	0	8045	599778	0	0
2024-07-21 00:44:47			0	36637	0	0	0	28212	26820	167266	27079	1049113	44874	110477	0	0	8047	598744	0	0
2024-07-21 00:45:47			0	36632	0	0	0	28205	26820	167158	27232	1049131	44873	110474	0	0	8047	598950	0	0
2024-07-21 00:46:47			0	36616	0	0	0	28207	26810	167222	27331	1049095	44883	110475	0	0	8046	599641	0	0
2024-07-21 00:47:47			0	36649	0	0	0	28199	26810	167166	27052	1049149	44873	110472	0	0	8048	598286	0	0
2024-07-21 00:48:47			0	36631	0	0	0	28202	26810	167166	27317	1049122	44895	110473	0	0	8047	599025	0	0
2024-07-21 00:49:47			0	36640	0	0	0	28207	26810	167106	27218	1049122	44873	110475	0	0	8047	598655	0	0
2024-07-21 00:50:47			0	36656	0	0	0	28212	26810	167202	27052	1049149	44873	110477	0	0	8048	597999	0	0
2024-07-21 00:51:47			0	36654	0	0	0	28199	26820	167202	27154	1049157	44883	110472	0	0	8048	598047	0	0
2024-07-21 00:52:47			0	36665	0	0	0	28194	26820	167086	27280	1049113	44874	110470	0	0	8049	597596	0	0
2024-07-21 00:53:47			0	36671	0	0	0	28199	26810	167038	27407	1049140	44883	110472	0	0	8049	597384	0	0
2024-07-21 00:54:47			0	36665	0	0	0	28192	26810	166918	27384	1049095	44883	110469	0	0	8049	597630	0	0
2024-07-21 00:55:47			0	36695	0	0	0	28197	26810	166978	27296	1049113	44873	110471	0	0	8050	596401	0	0
2024-07-21 00:56:47			0	36676	0	0	0	28202	26810	166942	27140	1049086	44883	110473	0	0	8049	597179	0	0
2024-07-21 00:57:47			0	36680	0	0	0	28197	26810	166966	26627	1049086	44873	110471	0	0	8050	597015	0	0
2024-07-21 00:58:47			0	36694	0	0	0	28181	26810	166954	27079	1049068	44873	110465	0	0	8051	596442	0	0
2024-07-21 00:59:47			0	36708	0	0	0	28194	26800	166922	26920	1049104	44894	110470	0	0	8051	595903	0	0
2024-07-21 01:00:47			0	36697	0	0	0	28186	26800	166798	26975	1049068	44871	110467	0	0	8051	596353	0	0
2024-07-21 01:01:47			0	36707	0	0	0	28192	26800	166774	26745	1049095	44881	110469	0	0	8051	595944	0	0
2024-07-21 01:02:47			0	36717	0	0	0	28181	26800	166774	27079	1048997	44882	110465	0	0	8052	595535	0	0
2024-07-21 01:03:47			0	36732	0	0	0	28192	26810	166822	27031	1049113	44883	110469	0	0	8053	594888	0	0
2024-07-21 01:04:47			0	36736	0	0	0	28181	26810	166778	27326	1049086	44862	110465	0	0	8053	594724	0	0
2024-07-21 01:05:47			0	36745	0	0	0	28186	26800	166658	27267	1049077	44882	110467	0	0	8054	594391	0	0
2024-07-21 01:06:47			0	36734	0	0	0	28173	26790	166610	27256	1049006	44871	110462	0	0	8053	594874	0	0
2024-07-21 01:07:47			0	36743	0	0	0	28179	26790	166758	26864	1049086	44881	110464	0	0	8053	594506	0	0
2024-07-21 01:08:47			0	36755	0	0	0	28176	26800	166658	26892	1049041	44871	110463	0	0	8054	593982	0	0
2024-07-21 01:09:47			0	36768	0	0	0	28179	26790	166586	26961	1049060	44881	110464	0	0	8055	593486	0	0
2024-07-21 01:10:47			0	36778	0	0	0	28176	26780	166538	27104	1048988	44880	110463	0	0	8056	593112	0	0
2024-07-21 01:11:47			0	36764	0	0	0	28176	26790	166570	27147	1048997	44881	110463	0	0	8055	593649	0	0
2024-07-21 01:12:47			0	36789	0	0	0	28173	26790	166634	27017	1048997	44881	110462	0	0	8056	592629	0	0
2024-07-21 01:13:47			0	36783	0	0	0	28166	26790	166534	26772	1048997	44871	110459	0	0	8056	592874	0	0
2024-07-21 01:14:47			0	36794	0	0	0	28168	26780	166594	26896	1048952	44869	110460	0	0	8057	592460	0	0
2024-07-21 01:15:47			0	36815	0	0	0	28176	26790	166390	26949	1048979	44860	110463	0	0	8058	591570	0	0
2024-07-21 01:16:47			0	36798	0	0	0	28168	26790	166442	26668	1048916	44881	110460	0	0	8057	592263	0	0
2024-07-21 01:17:47			0	36807	0	0	0	28173	26780	166458	26828	1049015	44892	110462	0	0	8057	591930	0	0
2024-07-21 01:18:47			0	36820	0	0	0	28171	26790	166518	26753	1048970	44893	110461	0	0	8058	591367	0	0
2024-07-21 01:19:47			0	36822	0	0	0	28166	26790	166410	26937	1048970	44881	110459	0	0	8058	591285	0	0
2024-07-21 01:20:47			0	36823	0	0	0	28171	26780	166406	26920	1048979	44879	110461	0	0	8058	591278	0	0
2024-07-21 01:21:47			0	36824	0	0	0	28173	26790	166402	27043	1048943	44871	110462	0	0	8058	591204	0	0
2024-07-21 01:22:47			0	36818	0	0	0	28168	26780	166402	27034	1048961	44880	110460	0	0	8058	591482	0	0
2024-07-21 01:23:47			0	36849	0	0	0	28171	26780	166322	26998	1048988	44870	110461	0	0	8060	590221	0	0
2024-07-21 01:24:47			0	36833	0	0	0	28173	26780	166298	26906	1048961	44880	110462	0	0	8059	590872	0	0
2024-07-21 01:25:47			0	36849	0	0	0	28163	26770	166354	27201	1048970	44869	110458	0	0	8060	590255	0	0
2024-07-21 01:26:47			0	36851	0	0	0	28166	26770	166278	27131	1048970	44869	110459	0	0	8060	590173	0	0
2024-07-21 01:27:47			0	36840	0	0	0	28166	26780	166186	27005	1048952	44869	110459	0	0	8059	590587	0	0
2024-07-21 01:28:47			0	36858	0	0	0	28158	26770	166162	26998	1048943	44891	110456	0	0	8061	589889	0	0
2024-07-21 01:29:47			0	36867	0	0	0	28166	26770	166198	27100	1048943	44869	110459	0	0	8061	589523	0	0
2024-07-21 01:30:47			0	36858	0	0	0	28161	26780	166186	27118	1048979	44869	110457	0	0	8061	589855	0	0
2024-07-21 01:31:47			0	36874	0	0	0	28166	26780	166110	27017	1048925	44879	110459	0	0	8061	589205	0	0
2024-07-21 01:32:47			0	36851	0	0	0	28155	26770	166122	26793	1048961	44879	110455	0	0	8060	590173	0	0
2024-07-21 01:33:47			0	36879	0	0	0	28158	26780	166094	27093	1048952	44891	110456	0	0	8062	589002	0	0
2024-07-21 01:34:47			0	36875	0	0	0	28158	26780	166086	27178	1048898	44869	110456	0	0	8062	589165	0	0
2024-07-21 01:35:47			0	36880	0	0	0	28155	26770	166074	26882	1048881	44891	110455	0	0	8062	588995	0	0
2024-07-21 01:36:47			0	36879	0	0	0	28153	26770	166194	27227	1048934	44869	110454	0	0	8062	589036	0	0
2024-07-21 01:37:47			0	36897	0	0	0	28155	26760	166206	27166	1048926	44868	110455	0	0	8063	588339	0	0
2024-07-21 01:38:47			0	36889	0	0	0	28155	26770	166202	27180	1048863	44869	110455	0	0	8062	588630	0	0
2024-07-21 01:39:47			0	36879	0	0	0	28137	26760	166102	27166	1048952	44868	110448	0	0	8062	589070	0	0
2024-07-21 01:40:47			0	36865	0	0	0	28148	26760	166098	26972	1048845	44868	110452	0	0	8061	589638	0	0
2024-07-21 01:41:47			0	36899	0	0	0	28137	26770	166170	27022	1048881	44869	110448	0	0	8063	588225	0	0
2024-07-21 01:42:47			0	36890	0	0	0	28148	26760	166206	26927	1048926	44868	110452	0	0	8063	588623	0	0
2024-07-21 01:43:47			0	36898	0	0	0	28135	26760	166106	26750	1048845	44879	110447	0	0	8063	588299	0	0
2024-07-21 01:44:47			0	36893	0	0	0	28129	26760	166122	26928	1048818	44857	110445	0	0	8063	588501	0	0
2024-07-21 01:45:47			0	36899	0	0	0	28145	26750	166074	27015	1048818	44888	110451	0	0	8063	588292	0	0
2024-07-21 01:46:47			0	36904	0	0	0	28132	26750	166058	26944	1048827	44877	110446	0	0	8064	588089	0	0
2024-07-21 01:47:47			0	36878	0	0	0	28135	26760	166106	27074	1048809	44867	110447	0	0	8062	589110	0	0
2024-07-21 01:48:47			0	36898	0	0	0	28140	26750	166106	27027	1048854	44866	110449	0	0	8063	588332	0	0
2024-07-21 01:49:47			0	36900	0	0	0	28137	26760	166162	26786	1048836	44867	110448	0	0	8063	588218	0	0
2024-07-21 01:50:47			0	36887	0	0	0	28142	26760	166142	27118	1048836	44878	110450	0	0	8062	588745	0	0
2024-07-21 01:51:47			0	36896	0	0	0	28135	26750	166054	26868	1048845	44888	110447	0	0	8063	588414	0	0
2024-07-21 01:52:47			0	36896	0	0	0	28140	26760	166114	26854	1048809	44878	110449	0	0	8063	588380	0	0
2024-07-21 01:53:47			0	36893	0	0	0	28140	26750	166086	27071	1048881	44877	110449	0	0	8063	588535	0	0
2024-07-21 01:54:47			0	36880	0	0	0	28137	26750	165986	26974	1048827	44866	110448	0	0	8062	589063	0	0
2024-07-21 01:55:47			0	36885	0	0	0	28140	26760	166038	26956	1048863	44878	110449	0	0	8062	588826	0	0
2024-07-21 01:56:47			0	36909	0	0	0	28140	26750	166142	26769	1048854	44866	110449	0	0	8064	587886	0	0
2024-07-21 01:57:47			0	36904	0	0	0	28142	26760	165918	26935	1048836	44878	110450	0	0	8063	588055	0	0
2024-07-21 01:58:47			0	36914	0	0	0	28145	26760	166010	26974	1048872	44868	110451	0	0	8064	587650	0	0
2024-07-21 01:59:47			0	36906	0	0	0	28140	26750	166018	27353	1048800	44877	110449	0	0	8064	588008	0	0
2024-07-21 02:00:47			0	36915	0	0	0	28140	26750	166034	26724	1048800	44866	110449	0	0	8064	587643	0	0
2024-07-21 02:01:47			0	36910	0	0	0	28140	26740	165926	26939	1048810	44866	110449	0	0	8064	587879	0	0
2024-07-21 02:02:47			0	36914	0	0	0	28129	26750	165994	26928	1048845	44877	110445	0	0	8064	587684	0	0
2024-07-21 02:03:47			0	36931	0	0	0	28132	26740	165902	27130	1048783	44877	110446	0	0	8065	587028	0	0
2024-07-21 02:04:47			0	36932	0	0	0	28129	26740	165806	27312	1048756	44866	110445	0	0	8065	586988	0	0
2024-07-21 02:05:47			0	36940	0	0	0	28127	26750	165894	26786	1048827	44877	110444	0	0	8066	586630	0	0
2024-07-21 02:06:47			0	36934	0	0	0	28135	26740	165874	27007	1048756	44866	110447	0	0	8065	586907	0	0
2024-07-21 02:07:47			0	36936	0	0	0	28122	26750	165902	26786	1048827	44866	110442	0	0	8066	586792	0	0
2024-07-21 02:08:47			0	36950	0	0	0	28122	26740	165862	27180	1048783	44877	110442	0	0	8066	586259	0	0
2024-07-21 02:09:47			0	36938	0	0	0	28129	26730	165838	27126	1048765	44864	110445	0	0	8066	586779	0	0
2024-07-21 02:10:47			0	36957	0	0	0	28122	26740	165814	27088	1048774	44865	110442	0	0	8067	585976	0	0
2024-07-21 02:11:47			0	36940	0	0	0	28124	26740	165726	26994	1048747	44865	110443	0	0	8066	586664	0	0
2024-07-21 02:12:47			0	36962	0	0	0	28114	26740	165754	26866	1048810	44877	110439	0	0	8067	585774	0	0
2024-07-21 02:13:47			0	36960	0	0	0	28111	26730	165798	26830	1048765	44864	110438	0	0	8067	585888	0	0
2024-07-21 02:14:47			0	36976	0	0	0	28116	26740	165658	26958	1048774	44876	110440	0	0	8068	585208	0	0
2024-07-21 02:15:47			0	36969	0	0	0	28122	26730	165670	27112	1048729	44875	110442	0	0	8068	585524	0	0
2024-07-21 02:16:47			0	36974	0	0	0	28124	26740	165606	27026	1048828	44876	110443	0	0	8068	585288	0	0
2024-07-21 02:17:47			0	36968	0	0	0	28116	26730	165598	27232	1048711	44864	110440	0	0	8068	585565	0	0
2024-07-21 02:18:47			0	36990	0	0	0	28122	26730	165670	26835	1048729	44875	110442	0	0	8069	584675	0	0
2024-07-21 02:19:47			0	36971	0	0	0	28127	26730	165674	27199	1048783	44875	110444	0	0	8068	585443	0	0
2024-07-21 02:20:47			0	36989	0	0	0	28124	26740	165626	27076	1048855	44865	110443	0	0	8069	584682	0	0
2024-07-21 02:21:47			0	36994	0	0	0	28129	26740	165682	26932	1048828	44865	110445	0	0	8069	584480	0	0
2024-07-21 02:22:47			0	36994	0	0	0	28137	26740	165666	26984	1048783	44877	110448	0	0	8069	584480	0	0
2024-07-21 02:23:47			0	37008	0	0	0	28127	26730	165746	27088	1048792	44875	110444	0	0	8070	583949	0	0
2024-07-21 02:24:47			0	37006	0	0	0	28129	26730	165686	26637	1048703	44864	110445	0	0	8070	584029	0	0
2024-07-21 02:25:47			0	37014	0	0	0	28127	26730	165598	26861	1048685	44875	110444	0	0	8070	583706	0	0
2024-07-21 02:26:47			0	37005	0	0	0	28119	26740	165502	26809	1048801	44865	110441	0	0	8070	584036	0	0
2024-07-21 02:27:47			0	37029	0	0	0	28127	26730	165538	26915	1048765	44875	110444	0	0	8071	583101	0	0
2024-07-21 02:28:47			0	37033	0	0	0	28129	26740	165522	26916	1048774	44876	110445	0	0	8071	582907	0	0
2024-07-21 02:29:47			0	37040	0	0	0	28124	26740	165462	27060	1048783	44866	110443	0	0	8072	582624	0	0
2024-07-21 02:30:47			0	37035	0	0	0	28119	26740	165450	26902	1048828	44865	110441	0	0	8072	582826	0	0
2024-07-21 02:31:47			0	37033	0	0	0	28119	26730	165414	27157	1048837	44864	110441	0	0	8071	582940	0	0
2024-07-21 02:32:47			0	37041	0	0	0	28114	26730	165474	26765	1048756	44875	110439	0	0	8072	582618	0	0
2024-07-21 02:33:47			0	37048	0	0	0	28127	26730	165526	27041	1048783	44886	110444	0	0	8072	582336	0	0
2024-07-21 02:34:47			0	37044	0	0	0	28124	26740	165542	26944	1048747	44887	110443	0	0	8072	582463	0	0
2024-07-21 02:35:47			0	37044	0	0	0	28124	26730	165442	27345	1048729	44853	110443	0	0	8072	582497	0	0
2024-07-21 02:36:47			0	37040	0	0	0	28124	26730	165534	26915	1048729	44864	110443	0	0	8072	582658	0	0
2024-07-21 02:37:47			0	37057	0	0	0	28122	26730	165526	27088	1048783	44886	110442	0	0	8073	581973	0	0
2024-07-21 02:38:47			0	37039	0	0	0	28127	26730	165518	27055	1048783	44853	110444	0	0	8072	582698	0	0
2024-07-21 02:39:47			0	37034	0	0	0	28122	26740	165570	27060	1048828	44865	110442	0	0	8071	582866	0	0
2024-07-21 02:40:47			0	37043	0	0	0	28124	26740	165574	26901	1048783	44877	110443	0	0	8072	582504	0	0
2024-07-21 02:41:47			0	37045	0	0	0	28124	26730	165666	27010	1048756	44864	110443	0	0	8072	582457	0	0
2024-07-21 02:42:47			0	37030	0	0	0	28124	26740	165458	26667	1048801	44876	110443	0	0	8071	583028	0	0
2024-07-21 02:43:47			0	37032	0	0	0	28127	26730	165558	26863	1048819	44875	110444	0	0	8071	582980	0	0
2024-07-21 02:44:47			0	37030	0	0	0	28116	26730	165562	26706	1048783	44864	110440	0	0	8071	583061	0	0
2024-07-21 02:45:47			0	37031	0	0	0	28124	26730	165534	26981	1048756	44875	110443	0	0	8071	583021	0	0
2024-07-21 02:46:47			0	37040	0	0	0	28119	26730	165558	27019	1048703	44864	110441	0	0	8072	582658	0	0
2024-07-21 02:47:47			0	37026	0	0	0	28109	26720	165610	27102	1048721	44875	110437	0	0	8071	583256	0	0
2024-07-21 02:48:47			0	37028	0	0	0	28116	26720	165426	27249	1048774	44864	110440	0	0	8071	583175	0	0
2024-07-21 02:49:47			0	37034	0	0	0	28119	26720	165530	27145	1048765	44875	110441	0	0	8071	582933	0	0
2024-07-21 02:50:47			0	37020	0	0	0	28116	26730	165630	26961	1048810	44853	110440	0	0	8071	583464	0	0
2024-07-21 02:51:47			0	37012	0	0	0	28122	26730	165666	27235	1048765	44853	110442	0	0	8070	583787	0	0
2024-07-21 02:52:47			0	37023	0	0	0	28116	26720	165518	26993	1048739	44875	110440	0	0	8071	583377	0	0
2024-07-21 02:53:47			0	37014	0	0	0	28111	26730	165654	27135	1048756	44853	110438	0	0	8070	583706	0	0
2024-07-21 02:54:47			0	36999	0	0	0	28116	26720	165734	26873	1048694	44886	110440	0	0	8069	584345	0	0
2024-07-21 02:55:47			0	37002	0	0	0	28116	26720	165674	27015	1048667	44864	110440	0	0	8070	584224	0	0
2024-07-21 02:56:47			0	36992	0	0	0	28111	26730	165774	27130	1048756	44864	110438	0	0	8069	584595	0	0
2024-07-21 02:57:47			0	36996	0	0	0	28114	26710	165694	26977	1048757	44874	110439	0	0	8069	584500	0	0
2024-07-21 02:58:47			0	37001	0	0	0	28116	26720	165782	26979	1048774	44875	110440	0	0	8069	584265	0	0
2024-07-21 02:59:47			0	37001	0	0	0	28116	26720	165718	27189	1048747	44864	110440	0	0	8069	584265	0	0
2024-07-21 03:00:47			0	36996	0	0	0	28124	26720	165674	27265	1048774	44875	110443	0	0	8069	584467	0	0
2024-07-21 03:01:47			0	36994	0	0	0	28119	26720	165778	27177	1048721	44864	110441	0	0	8069	584547	0	0
2024-07-21 03:02:47			0	36992	0	0	0	28124	26720	165838	26667	1048739	44875	110443	0	0	8069	584628	0	0
2024-07-21 03:03:47			0	36989	0	0	0	28132	26720	165770	26705	1048747	44864	110446	0	0	8068	584749	0	0
2024-07-21 03:04:47			0	36980	0	0	0	28122	26720	165730	27078	1048667	44886	110442	0	0	8068	585113	0	0
2024-07-21 03:05:47			0	36993	0	0	0	28122	26730	165854	26776	1048756	44864	110442	0	0	8069	584554	0	0
2024-07-21 03:06:47			0	36976	0	0	0	28119	26710	165770	27128	1048703	44874	110441	0	0	8068	585308	0	0
2024-07-21 03:07:47			0	36996	0	0	0	28119	26720	165814	26925	1048747	44886	110441	0	0	8069	584467	0	0
2024-07-21 03:08:47			0	36978	0	0	0	28124	26730	165782	26899	1048783	44864	110443	0	0	8068	585160	0	0
2024-07-21 03:09:47			0	36979	0	0	0	28122	26740	165750	27296	1048747	44876	110442	0	0	8068	585086	0	0
2024-07-21 03:10:47			0	36984	0	0	0	28119	26720	165794	26700	1048774	44875	110441	0	0	8068	584951	0	0
2024-07-21 03:11:47			0	36982	0	0	0	28124	26730	165762	27203	1048792	44864	110443	0	0	8068	584999	0	0
2024-07-21 03:12:47			0	36972	0	0	0	28137	26720	165846	27168	1048747	44875	110448	0	0	8067	585436	0	0
2024-07-21 03:13:47			0	36969	0	0	0	28127	26730	165778	26786	1048819	44864	110444	0	0	8067	585524	0	0
2024-07-21 03:14:47			0	36981	0	0	0	28140	26730	165858	26668	1048792	44875	110449	0	0	8068	585039	0	0
2024-07-21 03:15:47			0	36962	0	0	0	28137	26730	165834	27235	1048819	44886	110448	0	0	8067	585807	0	0
2024-07-21 03:16:47			0	36963	0	0	0	28129	26730	165822	27086	1048783	44886	110445	0	0	8067	585767	0	0
2024-07-21 03:17:47			0	36966	0	0	0	28140	26730	165910	27066	1048846	44875	110449	0	0	8067	585645	0	0
2024-07-21 03:18:47			0	36970	0	0	0	28137	26740	165842	26953	1048801	44865	110448	0	0	8067	585450	0	0
2024-07-21 03:19:47			0	36980	0	0	0	28137	26740	165906	26951	1048828	44876	110448	0	0	8068	585046	0	0
2024-07-21 03:20:47			0	36969	0	0	0	28135	26740	165898	26748	1048828	44854	110447	0	0	8067	585491	0	0
2024-07-21 03:21:47			0	36979	0	0	0	28119	26730	165934	27130	1048756	44875	110441	0	0	8068	585120	0	0
2024-07-21 03:22:47			0	36965	0	0	0	28106	26720	165830	26861	1048774	44875	110436	0	0	8068	585719	0	0
2024-07-21 03:23:47			0	36972	0	0	0	28114	26740	165866	27036	1048720	44876	110439	0	0	8068	585369	0	0
2024-07-21 03:24:47			0	36973	0	0	0	28114	26720	165794	26682	1048721	44875	110439	0	0	8068	585396	0	0
2024-07-21 03:25:47			0	36961	0	0	0	28109	26730	165794	27133	1048729	44864	110437	0	0	8067	585848	0	0
2024-07-21 03:26:47			0	36967	0	0	0	28111	26730	165866	27088	1048729	44875	110438	0	0	8068	585605	0	0
2024-07-21 03:27:47			0	36976	0	0	0	28106	26720	165890	27015	1048739	44875	110436	0	0	8068	585275	0	0
2024-07-21 03:28:47			0	36961	0	0	0	28109	26730	165886	27157	1048756	44864	110437	0	0	8067	585848	0	0
2024-07-21 03:29:47			0	36963	0	0	0	28114	26720	165794	27008	1048747	44864	110439	0	0	8067	585800	0	0
2024-07-21 03:30:47			0	36944	0	0	0	28114	26720	165870	27057	1048765	44863	110439	0	0	8066	586569	0	0
2024-07-21 03:31:47			0	36957	0	0	0	28109	26720	165878	26868	1048774	44864	110437	0	0	8067	586043	0	0
2024-07-21 03:32:47			0	36944	0	0	0	28109	26720	165938	26892	1048801	44864	110437	0	0	8066	586569	0	0
2024-07-21 03:33:47			0	36947	0	0	0	28116	26720	165930	26727	1048721	44864	110440	0	0	8066	586448	0	0
2024-07-21 03:34:47			0	36940	0	0	0	28122	26740	165902	27121	1048774	44876	110442	0	0	8066	586664	0	0
2024-07-21 03:35:47			0	36959	0	0	0	28116	26720	165906	26935	1048774	44875	110440	0	0	8067	585962	0	0
2024-07-21 03:36:47			0	36943	0	0	0	28116	26720	165950	26878	1048747	44864	110440	0	0	8066	586610	0	0
2024-07-21 03:37:47			0	36956	0	0	0	28124	26710	165958	26870	1048757	44862	110443	0	0	8067	586117	0	0
2024-07-21 03:38:47			0	36952	0	0	0	28122	26720	165862	27124	1048712	44863	110442	0	0	8066	586245	0	0
2024-07-21 03:39:47			0	36955	0	0	0	28114	26720	165954	27130	1048774	44853	110439	0	0	8067	586124	0	0
2024-07-21 03:40:47			0	36955	0	0	0	28109	26720	165998	27050	1048694	44875	110437	0	0	8067	586124	0	0
2024-07-21 03:41:47			0	36947	0	0	0	28116	26730	165930	26972	1048783	44864	110440	0	0	8066	586414	0	0
2024-07-21 03:42:47			0	36939	0	0	0	28116	26730	165966	26838	1048756	44875	110440	0	0	8066	586738	0	0
2024-07-21 03:43:47			0	36954	0	0	0	28122	26720	165954	26731	1048694	44864	110442	0	0	8067	586165	0	0
2024-07-21 03:44:47			0	36950	0	0	0	28119	26720	165958	27227	1048774	44864	110441	0	0	8066	586326	0	0
2024-07-21 03:45:47			0	36946	0	0	0	28124	26720	166022	26661	1048721	44864	110443	0	0	8066	586488	0	0
2024-07-21 03:46:47			0	36938	0	0	0	28114	26730	166046	27249	1048756	44875	110439	0	0	8066	586779	0	0
2024-07-21 03:47:47			0	36952	0	0	0	28116	26730	166042	26902	1048765	44875	110440	0	0	8067	586212	0	0
2024-07-21 03:48:47			0	36919	0	0	0	28114	26720	166046	27043	1048739	44863	110439	0	0	8065	587582	0	0
2024-07-21 03:49:47			0	36927	0	0	0	28119	26720	166042	27183	1048747	44875	110441	0	0	8065	587258	0	0
2024-07-21 03:50:47			0	36936	0	0	0	28114	26720	166110	27072	1048774	44864	110439	0	0	8066	586893	0	0
2024-07-21 03:51:47			0	36928	0	0	0	28124	26720	166066	27033	1048801	44864	110443	0	0	8065	587217	0	0
2024-07-21 03:52:47			0	36926	0	0	0	28119	26720	166150	27072	1048747	44875	110441	0	0	8065	587298	0	0
2024-07-21 03:53:47			0	36937	0	0	0	28122	26730	166010	27064	1048810	44875	110442	0	0	8066	586819	0	0
2024-07-21 03:54:47			0	36936	0	0	0	28116	26720	166130	26967	1048801	44875	110440	0	0	8066	586893	0	0
2024-07-21 03:55:47			0	36910	0	0	0	28124	26720	166082	27277	1048774	44853	110443	0	0	8064	587947	0	0
2024-07-21 03:56:47			0	36913	0	0	0	28114	26740	166154	26899	1048774	44876	110439	0	0	8064	587758	0	0
2024-07-21 03:57:47			0	36931	0	0	0	28116	26710	166034	27175	1048757	44862	110440	0	0	8065	587129	0	0
2024-07-21 03:58:47			0	36933	0	0	0	28109	26730	166038	26857	1048729	44864	110437	0	0	8066	586981	0	0
2024-07-21 03:59:47			0	36932	0	0	0	28114	26720	166074	27183	1048739	44885	110439	0	0	8065	587055	0	0
2024-07-21 04:00:47			0	36920	0	0	0	28111	26720	165982	27017	1048747	44864	110438	0	0	8065	587541	0	0
2024-07-21 04:01:47			0	36923	0	0	0	28098	26710	166018	26835	1048730	44862	110433	0	0	8065	587453	0	0
2024-07-21 04:02:47			0	36926	0	0	0	28103	26710	166046	26802	1048703	44862	110435	0	0	8065	587332	0	0
2024-07-21 04:03:47			0	36915	0	0	0	28090	26720	166130	26680	1048712	44863	110430	0	0	8065	587744	0	0
2024-07-21 04:04:47			0	36918	0	0	0	28098	26710	166098	26861	1048694	44884	110433	0	0	8065	587656	0	0
2024-07-21 04:05:47			0	36934	0	0	0	28098	26700	166090	26956	1048685	44862	110433	0	0	8066	587041	0	0
2024-07-21 04:06:47			0	36935	0	0	0	28083	26700	166170	26849	1048685	44874	110427	0	0	8066	587001	0	0
2024-07-21 04:07:47			0	36906	0	0	0	28096	26700	166206	27135	1048658	44884	110432	0	0	8064	588176	0	0
2024-07-21 04:08:47			0	36907	0	0	0	28083	26700	166146	26963	1048623	44861	110427	0	0	8064	588136	0	0
2024-07-21 04:09:47			0	36933	0	0	0	28077	26700	166090	27258	1048658	44884	110425	0	0	8066	587082	0	0
2024-07-21 04:10:47			0	36918	0	0	0	28085	26700	165982	26689	1048650	44850	110428	0	0	8065	587690	0	0
2024-07-21 04:11:47			0	36924	0	0	0	28077	26690	166106	27128	1048480	44872	110425	0	0	8065	587480	0	0
2024-07-21 04:12:47			0	36930	0	0	0	28080	26710	166110	27104	1048667	44884	110426	0	0	8066	587170	0	0
2024-07-21 04:13:47			0	36911	0	0	0	28077	26690	166086	27003	1048560	44860	110425	0	0	8065	588007	0	0
2024-07-21 04:14:47			0	36925	0	0	0	28070	26690	166110	27027	1048587	44872	110422	0	0	8066	587440	0	0
2024-07-21 04:15:47			0	36946	0	0	0	28072	26690	166046	26819	1048605	44848	110423	0	0	8067	586589	0	0
2024-07-21 04:16:47			0	36914	0	0	0	28064	26690	166114	27168	1048551	44859	110420	0	0	8065	587886	0	0
2024-07-21 04:17:47			0	36920	0	0	0	28072	26690	166042	27069	1048587	44860	110423	0	0	8065	587642	0	0
2024-07-21 04:18:47			0	36925	0	0	0	28064	26700	166058	27128	1048596	44873	110420	0	0	8066	587406	0	0
2024-07-21 04:19:47			0	36944	0	0	0	28077	26690	166042	26953	1048587	44872	110425	0	0	8067	586670	0	0
2024-07-21 04:20:47			0	36912	0	0	0	28083	26690	166030	27066	1048578	44848	110427	0	0	8065	587967	0	0
2024-07-21 04:21:47			0	36918	0	0	0	28072	26690	166050	26939	1048560	44860	110423	0	0	8065	587723	0	0
2024-07-21 04:22:47			0	36901	0	0	0	28077	26690	166130	27092	1048632	44871	110425	0	0	8064	588413	0	0
2024-07-21 04:23:47			0	36893	0	0	0	28088	26690	166146	27100	1048587	44860	110429	0	0	8063	588737	0	0
2024-07-21 04:24:47			0	36923	0	0	0	28083	26690	166046	27010	1048641	44860	110427	0	0	8065	587521	0	0
2024-07-21 04:25:47			0	36922	0	0	0	28077	26680	166090	26857	1048623	44859	110425	0	0	8065	587595	0	0
2024-07-21 04:26:47			0	36904	0	0	0	28080	26680	166050	27164	1048587	44859	110426	0	0	8064	588325	0	0
2024-07-21 04:27:47			0	36913	0	0	0	28075	26690	166118	27046	1048551	44871	110424	0	0	8065	587926	0	0
2024-07-21 04:28:47			0	36902	0	0	0	28080	26690	166138	27209	1048605	44848	110426	0	0	8064	588372	0	0
2024-07-21 04:29:47			0	36903	0	0	0	28075	26690	166118	27237	1048533	44860	110424	0	0	8064	588332	0	0
2024-07-21 04:30:47			0	36914	0	0	0	28059	26690	166070	27107	1048632	44859	110418	0	0	8065	587886	0	0
2024-07-21 04:31:47			0	36910	0	0	0	28070	26680	166066	27003	1048507	44859	110422	0	0	8065	588081	0	0
2024-07-21 04:32:47			0	36901	0	0	0	28062	26670	166114	26889	1048525	44858	110419	0	0	8064	588480	0	0
2024-07-21 04:33:47			0	36911	0	0	0	28064	26680	166210	26909	1048561	44871	110420	0	0	8065	588041	0	0
2024-07-21 04:34:47			0	36896	0	0	0	28057	26680	166102	26894	1048534	44871	110417	0	0	8064	588649	0	0
2024-07-21 04:35:47			0	36890	0	0	0	28062	26680	166214	26949	1048507	44871	110419	0	0	8064	588893	0	0
2024-07-21 04:36:47			0	36885	0	0	0	28054	26660	166258	26991	1048426	44857	110416	0	0	8063	589164	0	0
2024-07-21 04:37:47			0	36867	0	0	0	28054	26680	166262	26831	1048480	44859	110416	0	0	8062	589827	0	0
2024-07-21 04:38:47			0	36901	0	0	0	28049	26670	166294	27008	1048435	44857	110414	0	0	8064	588480	0	0
2024-07-21 04:39:47			0	36882	0	0	0	28054	26660	166262	27069	1048453	44857	110416	0	0	8063	589285	0	0
2024-07-21 04:40:47			0	36873	0	0	0	28051	26650	166242	26880	1048489	44856	110415	0	0	8063	589685	0	0
2024-07-21 04:41:47			0	36873	0	0	0	28046	26660	166286	27067	1048507	44869	110413	0	0	8063	589651	0	0
2024-07-21 04:42:47			0	36879	0	0	0	28054	26660	166358	27059	1048444	44879	110416	0	0	8063	589407	0	0
2024-07-21 04:43:47			0	36873	0	0	0	28044	26650	166350	27176	1048462	44868	110412	0	0	8063	589685	0	0
2024-07-21 04:44:47			0	36861	0	0	0	28051	26660	166370	26889	1048471	44846	110415	0	0	8062	590139	0	0
2024-07-21 04:45:47			0	36857	0	0	0	28054	26660	166418	27046	1048444	44869	110416	0	0	8062	590301	0	0
2024-07-21 04:46:47			0	36860	0	0	0	28051	26660	166410	26875	1048453	44869	110415	0	0	8062	590179	0	0
2024-07-21 04:47:47			0	36863	0	0	0	28049	26660	166362	27215	1048417	44869	110414	0	0	8062	590057	0	0
2024-07-21 04:48:47			0	36844	0	0	0	28044	26650	166390	26937	1048409	44856	110412	0	0	8061	590864	0	0
2024-07-21 04:49:47			0	36861	0	0	0	28041	26640	166342	27062	1048453	44867	110411	0	0	8062	590206	0	0
2024-07-21 04:50:47			0	36856	0	0	0	28044	26660	166358	27114	1048417	44857	110412	0	0	8062	590342	0	0
2024-07-21 04:51:47			0	36843	0	0	0	28046	26640	166398	27197	1048445	44867	110413	0	0	8061	590938	0	0
2024-07-21 04:52:47			0	36844	0	0	0	28038	26650	166546	27183	1048382	44878	110410	0	0	8061	590864	0	0
2024-07-21 04:53:47			0	36854	0	0	0	28046	26650	166434	27173	1048435	44868	110413	0	0	8062	590457	0	0
2024-07-21 04:54:47			0	36853	0	0	0	28041	26660	166514	27090	1048417	44869	110411	0	0	8062	590464	0	0
2024-07-21 04:55:47			0	36845	0	0	0	28046	26650	166514	27126	1048435	44845	110413	0	0	8061	590823	0	0
2024-07-21 04:56:47			0	36843	0	0	0	28057	26640	166362	27180	1048480	44889	110417	0	0	8061	590938	0	0
2024-07-21 04:57:47			0	36842	0	0	0	28046	26640	166438	27086	1048418	44844	110413	0	0	8061	590979	0	0
2024-07-21 04:58:47			0	36832	0	0	0	28046	26640	166534	26795	1048400	44856	110413	0	0	8060	591386	0	0
2024-07-21 04:59:47			0	36847	0	0	0	28046	26650	166530	27012	1048409	44856	110413	0	0	8061	590742	0	0
2024-07-21 05:00:47			0	36830	0	0	0	28025	26650	166498	27244	1048382	44845	110405	0	0	8061	591434	0	0
2024-07-21 05:01:47			0	36855	0	0	0	28028	26640	166422	26993	1048427	44856	110406	0	0	8062	590450	0	0
2024-07-21 05:02:47			0	36839	0	0	0	28020	26640	166474	26948	1048337	44867	110403	0	0	8061	591101	0	0
2024-07-21 05:03:47			0	36841	0	0	0	28023	26630	166414	27003	1048355	44856	110404	0	0	8061	591054	0	0
2024-07-21 05:04:47			0	36860	0	0	0	28033	26640	166442	27017	1048373	44856	110408	0	0	8062	590247	0	0
2024-07-21 05:05:47			0	36849	0	0	0	28028	26630	166574	27013	1048400	44866	110406	0	0	8062	590728	0	0
2024-07-21 05:06:47			0	36846	0	0	0	28036	26630	166426	27130	1048373	44866	110409	0	0	8061	590850	0	0
2024-07-21 05:07:47			0	36835	0	0	0	28036	26640	166446	27118	1048400	44856	110409	0	0	8061	591264	0	0
2024-07-21 05:08:47			0	36819	0	0	0	28038	26640	166586	26719	1048445	44867	110410	0	0	8060	591916	0	0
2024-07-21 05:09:47			0	36820	0	0	0	28041	26630	166622	27131	1048409	44867	110411	0	0	8060	591909	0	0
2024-07-21 05:10:47			0	36812	0	0	0	28038	26640	166614	27076	1048418	44877	110410	0	0	8059	592201	0	0
2024-07-21 05:11:47			0	36807	0	0	0	28033	26630	166686	27170	1048400	44866	110408	0	0	8059	592439	0	0
2024-07-21 05:12:47			0	36815	0	0	0	28036	26630	166538	27157	1048355	44867	110409	0	0	8059	592113	0	0
2024-07-21 05:13:47			0	36822	0	0	0	28033	26640	166566	27180	1048391	44856	110408	0	0	8060	591793	0	0
2024-07-21 05:14:47			0	36826	0	0	0	28041	26640	166554	27232	1048418	44867	110411	0	0	8060	591630	0	0
2024-07-21 05:15:47			0	36811	0	0	0	28031	26640	166478	27166	1048418	44867	110407	0	0	8059	592242	0	0
2024-07-21 05:16:47			0	36797	0	0	0	28036	26620	166578	27223	1048364	44854	110409	0	0	8058	592880	0	0
2024-07-21 05:17:47			0	36816	0	0	0	28033	26630	166610	27067	1048355	44867	110408	0	0	8060	592072	0	0
2024-07-21 05:18:47			0	36821	0	0	0	28031	26620	166562	26994	1048391	44854	110407	0	0	8060	591902	0	0
2024-07-21 05:19:47			0	36808	0	0	0	28023	26630	166598	26880	1048302	44867	110404	0	0	8059	592398	0	0
2024-07-21 05:20:47			0	36819	0	0	0	28012	26630	166658	26890	1048328	44856	110400	0	0	8060	591949	0	0
2024-07-21 05:21:47			0	36820	0	0	0	28007	26620	166510	27244	1048275	44853	110398	0	0	8060	591943	0	0
2024-07-21 05:22:47			0	36808	0	0	0	28002	26620	166434	26960	1048248	44841	110396	0	0	8060	592432	0	0
2024-07-21 05:23:47			0	36805	0	0	0	27999	26620	166630	27097	1048284	44865	110395	0	0	8059	592554	0	0
2024-07-21 05:24:47			0	36799	0	0	0	27992	26620	166670	27348	1048275	44853	110392	0	0	8059	592799	0	0
2024-07-21 05:25:47			0	36805	0	0	0	27997	26610	166706	27254	1048266	44841	110394	0	0	8059	592588	0	0
2024-07-21 05:26:47			0	36806	0	0	0	27984	26600	166742	27111	1048213	44851	110389	0	0	8060	592581	0	0
2024-07-21 05:27:47			0	36789	0	0	0	27986	26610	166626	27036	1048239	44853	110390	0	0	8059	593240	0	0
2024-07-21 05:28:47			0	36766	0	0	0	27986	26600	166774	26911	1048186	44862	110390	0	0	8057	594214	0	0
2024-07-21 05:29:47			0	36766	0	0	0	27984	26600	166694	27237	1048186	44851	110389	0	0	8057	594214	0	0
2024-07-21 05:30:47			0	36787	0	0	0	27981	26610	166674	27000	1048204	44864	110388	0	0	8059	593322	0	0
2024-07-21 05:31:47			0	36761	0	0	0	27986	26590	166790	27324	1048204	44851	110390	0	0	8057	594452	0	0
2024-07-21 05:32:47			0	36774	0	0	0	27979	26600	166906	27357	1048159	44862	110387	0	0	8058	593887	0	0
2024-07-21 05:33:47			0	36758	0	0	0	27979	26600	166830	26949	1048186	44851	110387	0	0	8057	594540	0	0
2024-07-21 05:34:47			0	36763	0	0	0	27984	26600	166970	26930	1048249	44874	110389	0	0	8057	594336	0	0
2024-07-21 05:35:47			0	36774	0	0	0	27986	26600	166962	27036	1048186	44862	110390	0	0	8058	593887	0	0
2024-07-21 05:36:47			0	36755	0	0	0	27994	26600	166990	26944	1048240	44862	110393	0	0	8056	594663	0	0
2024-07-21 05:37:47			0	36741	0	0	0	27997	26600	166954	26925	1048213	44851	110394	0	0	8056	595235	0	0
2024-07-21 05:38:47			0	36759	0	0	0	27992	26600	166910	27192	1048213	44862	110392	0	0	8057	594499	0	0
2024-07-21 05:39:47			0	36760	0	0	0	27997	26600	166854	26984	1048267	44862	110394	0	0	8057	594459	0	0
2024-07-21 05:40:47			0	36753	0	0	0	27997	26610	166958	27135	1048231	44864	110394	0	0	8056	594711	0	0
2024-07-21 05:41:47			0	36769	0	0	0	28002	26600	166806	27022	1048195	44863	110396	0	0	8057	594091	0	0
2024-07-21 05:42:47			0	36764	0	0	0	27999	26590	166810	26901	1048231	44862	110395	0	0	8057	594329	0	0
2024-07-21 05:43:47			0	36770	0	0	0	27997	26600	166790	27008	1048186	44873	110394	0	0	8057	594050	0	0
2024-07-21 05:44:47			0	36776	0	0	0	27994	26600	166782	27126	1048168	44863	110393	0	0	8058	593805	0	0
2024-07-21 05:45:47			0	36773	0	0	0	27992	26600	166762	26982	1048195	44863	110392	0	0	8058	593928	0	0
2024-07-21 05:46:47			0	36775	0	0	0	27986	26590	166814	26849	1048177	44862	110390	0	0	8058	593880	0	0
2024-07-21 05:47:47			0	36787	0	0	0	27976	26590	166690	27157	1048061	44851	110386	0	0	8059	593390	0	0
2024-07-21 05:48:47			0	36779	0	0	0	27981	26590	166774	27196	1048141	44862	110388	0	0	8058	593716	0	0
2024-07-21 05:49:47			0	36773	0	0	0	27979	26590	166786	26850	1048141	44851	110387	0	0	8058	593962	0	0
2024-07-21 05:50:47			0	36800	0	0	0	27992	26590	166746	27062	1048177	44862	110392	0	0	8059	592860	0	0
2024-07-21 05:51:47			0	36791	0	0	0	27994	26590	166814	27105	1048115	44862	110393	0	0	8058	593227	0	0
2024-07-21 05:52:47			0	36803	0	0	0	27994	26590	166718	26935	1048231	44862	110393	0	0	8059	592737	0	0
2024-07-21 05:53:47			0	36802	0	0	0	28010	26600	166714	27074	1048249	44874	110399	0	0	8059	592744	0	0
2024-07-21 05:54:47			0	36792	0	0	0	28012	26600	166770	26849	1048213	44851	110400	0	0	8058	593152	0	0
2024-07-21 05:55:47			0	36793	0	0	0	28015	26610	166742	26970	1048284	44875	110401	0	0	8058	593077	0	0
2024-07-21 05:56:47			0	36796	0	0	0	28015	26590	166726	26795	1048231	44862	110401	0	0	8058	593023	0	0
2024-07-21 05:57:47			0	36790	0	0	0	28015	26610	166758	27019	1048320	44875	110401	0	0	8058	593200	0	0
2024-07-21 05:58:47			0	36784	0	0	0	28012	26600	166758	27152	1048240	44862	110400	0	0	8058	593478	0	0
2024-07-21 05:59:47			0	36781	0	0	0	28015	26610	166718	27118	1048293	44864	110401	0	0	8058	593567	0	0
2024-07-21 06:00:47			0	36780	0	0	0	28023	26610	166714	27128	1048284	44886	110404	0	0	8057	593608	0	0
2024-07-21 06:01:47			0	36787	0	0	0	28015	26610	166650	26890	1048213	44875	110401	0	0	8058	593322	0	0
2024-07-21 06:02:47			0	36785	0	0	0	28020	26610	166670	26731	1048231	44841	110403	0	0	8058	593404	0	0
2024-07-21 06:03:47			0	36791	0	0	0	28018	26620	166682	27182	1048248	44864	110402	0	0	8058	593125	0	0
2024-07-21 06:04:47			0	36781	0	0	0	28015	26610	166766	27118	1048293	44853	110401	0	0	8058	593567	0	0
2024-07-21 06:05:47			0	36791	0	0	0	28012	26610	166622	26859	1048284	44864	110400	0	0	8058	593159	0	0
2024-07-21 06:06:47			0	36776	0	0	0	28020	26610	166598	27109	1048320	44875	110403	0	0	8057	593771	0	0
2024-07-21 06:07:47			0	36776	0	0	0	28020	26620	166658	27149	1048329	44853	110403	0	0	8057	593737	0	0
2024-07-21 06:08:47			0	36782	0	0	0	28018	26610	166694	27067	1048320	44864	110402	0	0	8058	593526	0	0
2024-07-21 06:09:47			0	36783	0	0	0	28018	26620	166770	27098	1048302	44853	110402	0	0	8058	593451	0	0
2024-07-21 06:10:47			0	36774	0	0	0	28018	26620	166758	27137	1048284	44865	110402	0	0	8057	593819	0	0
2024-07-21 06:11:47			0	36782	0	0	0	28015	26610	166778	27178	1048284	44853	110401	0	0	8058	593526	0	0
2024-07-21 06:12:47			0	36752	0	0	0	28020	26620	166778	27137	1048275	44864	110403	0	0	8056	594717	0	0
2024-07-21 06:13:47			0	36756	0	0	0	28007	26610	166870	27059	1048284	44864	110398	0	0	8056	594588	0	0
2024-07-21 06:14:47			0	36764	0	0	0	28010	26610	166786	27020	1048239	44853	110399	0	0	8057	594261	0	0
2024-07-21 06:15:47			0	36753	0	0	0	27999	26600	166882	27190	1048195	44863	110395	0	0	8056	594745	0	0
2024-07-21 06:16:47			0	36752	0	0	0	27986	26600	166870	27364	1048249	44852	110390	0	0	8056	594785	0	0
2024-07-21 06:17:47			0	36746	0	0	0	27979	26600	166854	27142	1048222	44852	110387	0	0	8056	595031	0	0
2024-07-21 06:18:47			0	36746	0	0	0	27974	26600	166894	26844	1048168	44840	110385	0	0	8056	595031	0	0
2024-07-21 06:19:47			0	36733	0	0	0	27984	26600	166834	27255	1048168	44852	110389	0	0	8055	595562	0	0
2024-07-21 06:20:47			0	36738	0	0	0	27979	26590	167002	27057	1048150	44851	110387	0	0	8056	595392	0	0
2024-07-21 06:21:47			0	36719	0	0	0	27979	26600	166886	27164	1048159	44851	110387	0	0	8055	596135	0	0
2024-07-21 06:22:47			0	36725	0	0	0	27976	26600	167046	27374	1048159	44851	110386	0	0	8055	595890	0	0
2024-07-21 06:23:47			0	36703	0	0	0	27968	26590	166990	26953	1048222	44839	110383	0	0	8054	596825	0	0
2024-07-21 06:24:47			0	36710	0	0	0	27981	26590	167146	27119	1048168	44862	110388	0	0	8054	596538	0	0
2024-07-21 06:25:47			0	36701	0	0	0	27966	26590	167174	27062	1048123	44839	110382	0	0	8054	596907	0	0
2024-07-21 06:26:47			0	36689	0	0	0	27968	26590	167206	27067	1048150	44851	110383	0	0	8053	597399	0	0
2024-07-21 06:27:47			0	36680	0	0	0	27966	26590	167238	26958	1048168	44862	110382	0	0	8052	597768	0	0
2024-07-21 06:28:47			0	36671	0	0	0	27966	26590	167270	27241	1048141	44851	110382	0	0	8052	598137	0	0
2024-07-21 06:29:47			0	36654	0	0	0	27961	26590	167266	27196	1048115	44862	110380	0	0	8051	598835	0	0
2024-07-21 06:30:47			0	36635	0	0	0	27961	26580	167242	27121	1048097	44849	110380	0	0	8050	599650	0	0
2024-07-21 06:31:47			0	36649	0	0	0	27963	26580	167286	27050	1048097	44837	110381	0	0	8051	599075	0	0
2024-07-21 06:32:47			0	36641	0	0	0	27961	26580	167350	27307	1048070	44872	110380	0	0	8050	599403	0	0
2024-07-21 06:33:47			0	36640	0	0	0	27958	26580	167298	27124	1048079	44861	110379	0	0	8050	599444	0	0
2024-07-21 06:34:47			0	36634	0	0	0	27953	26580	167374	27204	1048079	44872	110377	0	0	8050	599691	0	0
2024-07-21 06:35:47			0	36622	0	0	0	27966	26580	167430	27203	1048106	44861	110382	0	0	8049	600184	0	0
2024-07-21 06:36:47			0	36614	0	0	0	27968	26580	167542	27005	1048097	44860	110383	0	0	8048	600514	0	0
2024-07-21 06:37:47			0	36609	0	0	0	27974	26570	167502	26925	1048034	44860	110385	0	0	8048	600754	0	0
2024-07-21 06:38:47			0	36597	0	0	0	27979	26580	167421	26861	1048133	44850	110387	0	0	8047	601213	0	0
2024-07-21 06:39:47			0	36575	0	0	0	27981	26580	167653	27090	1048213	44850	110388	0	0	8046	602120	0	0
2024-07-21 06:40:47			0	36578	0	0	0	27986	26580	167589	27131	1048106	44872	110390	0	0	8046	601996	0	0
2024-07-21 06:41:47			0	36582	0	0	0	27984	26590	167597	27109	1048115	44862	110389	0	0	8046	601797	0	0
2024-07-21 06:42:47			0	36576	0	0	0	27974	26580	167521	27235	1048186	44861	110385	0	0	8046	602078	0	0
2024-07-21 06:43:47			0	36581	0	0	0	27979	26590	167533	27161	1048168	44851	110387	0	0	8046	601838	0	0
2024-07-21 06:44:47			0	36577	0	0	0	27976	26580	167605	27168	1048186	44861	110386	0	0	8046	602037	0	0
2024-07-21 06:45:47			0	36575	0	0	0	27981	26580	167569	27398	1048124	44860	110388	0	0	8046	602120	0	0
2024-07-21 06:46:47			0	36572	0	0	0	27976	26580	167577	27277	1048186	44838	110386	0	0	8046	602243	0	0
2024-07-21 06:47:47			0	36570	0	0	0	27974	26590	167713	27251	1048168	44851	110385	0	0	8046	602291	0	0
2024-07-21 06:48:47			0	36575	0	0	0	27971	26580	167685	27407	1048178	44860	110384	0	0	8046	602120	0	0
2024-07-21 06:49:47			0	36570	0	0	0	27979	26590	167653	27175	1048249	44851	110387	0	0	8046	602291	0	0
2024-07-21 06:50:47			0	36556	0	0	0	27976	26590	167617	26989	1048168	44851	110386	0	0	8045	602869	0	0
2024-07-21 06:51:47			0	36569	0	0	0	27981	26590	167621	27166	1048168	44851	110388	0	0	8046	602333	0	0
2024-07-21 06:52:47			0	36535	0	0	0	27981	26590	167733	27601	1048195	44862	110388	0	0	8043	603736	0	0
2024-07-21 06:53:47			0	36537	0	0	0	27984	26590	167741	27095	1048195	44851	110389	0	0	8044	603653	0	0
2024-07-21 06:54:47			0	36530	0	0	0	27986	26590	167677	27287	1048222	44862	110390	0	0	8043	603942	0	0
2024-07-21 06:55:47			0	36535	0	0	0	27989	26580	167829	27225	1048213	44861	110391	0	0	8043	603770	0	0
2024-07-21 06:56:47			0	36529	0	0	0	27986	26590	167685	27220	1048177	44862	110390	0	0	8043	603983	0	0
2024-07-21 06:57:47			0	36530	0	0	0	27992	26590	167701	27459	1048222	44851	110392	0	0	8043	603942	0	0
2024-07-21 06:58:47			0	36538	0	0	0	27989	26590	167761	27317	1048258	44862	110391	0	0	8044	603612	0	0
2024-07-21 06:59:47			0	36528	0	0	0	27997	26590	167745	27495	1048195	44873	110394	0	0	8043	604025	0	0
2024-07-21 07:00:47			0	36525	0	0	0	27997	26600	167777	27502	1048249	44874	110394	0	0	8043	604114	0	0
2024-07-21 07:01:47			0	36525	0	0	0	27997	26590	167741	27720	1048231	44862	110394	0	0	8043	604148	0	0
2024-07-21 07:02:47			0	36527	0	0	0	27999	26590	167849	27343	1048231	44862	110395	0	0	8043	604066	0	0
2024-07-21 07:03:47			0	36533	0	0	0	27992	26590	167789	27447	1048222	44851	110392	0	0	8043	603818	0	0
2024-07-21 07:04:47			0	36507	0	0	0	27997	26600	167689	27199	1048240	44839	110394	0	0	8042	604858	0	0
2024-07-21 07:05:47			0	36520	0	0	0	27994	26600	167833	27109	1048249	44863	110393	0	0	8042	604321	0	0
2024-07-21 07:06:47			0	36533	0	0	0	27992	26590	167781	27436	1048258	44873	110392	0	0	8043	603818	0	0
2024-07-21 07:07:47			0	36516	0	0	0	27997	26590	167805	27230	1048231	44873	110394	0	0	8042	604521	0	0
2024-07-21 07:08:47			0	36523	0	0	0	27992	26600	167753	27300	1048293	44851	110392	0	0	8043	604197	0	0
2024-07-21 07:09:47			0	36529	0	0	0	28002	26600	167781	27098	1048302	44863	110396	0	0	8043	603949	0	0
2024-07-21 07:10:47			0	36524	0	0	0	27986	26590	167797	27071	1048231	44862	110390	0	0	8043	604190	0	0
2024-07-21 07:11:47			0	36528	0	0	0	27992	26600	167629	27462	1048186	44873	110392	0	0	8043	603990	0	0
2024-07-21 07:12:47			0	36512	0	0	0	27986	26600	167645	27578	1048249	44863	110390	0	0	8042	604651	0	0
2024-07-21 07:13:47			0	36504	0	0	0	27992	26590	167729	27235	1048177	44851	110392	0	0	8041	605017	0	0
2024-07-21 07:14:47			0	36517	0	0	0	27989	26590	167741	27334	1048177	44851	110391	0	0	8042	604479	0	0
2024-07-21 07:15:47			0	36500	0	0	0	27989	26600	167749	27621	1048195	44852	110391	0	0	8041	605147	0	0
2024-07-21 07:16:47			0	36516	0	0	0	27981	26600	167705	27677	1048213	44862	110388	0	0	8042	604486	0	0
2024-07-21 07:17:47			0	36516	0	0	0	27976	26590	167825	27540	1048249	44851	110386	0	0	8042	604521	0	0
2024-07-21 07:18:47			0	36524	0	0	0	27976	26600	167801	27594	1048213	44862	110386	0	0	8043	604155	0	0
2024-07-21 07:19:47			0	36512	0	0	0	27976	26590	167669	27488	1048177	44839	110386	0	0	8042	604686	0	0
2024-07-21 07:20:47			0	36505	0	0	0	27989	26600	167837	27665	1048213	44839	110391	0	0	8042	604941	0	0
2024-07-21 07:21:47			0	36517	0	0	0	27979	26590	167765	27364	1048204	44851	110387	0	0	8042	604479	0	0
2024-07-21 07:22:47			0	36506	0	0	0	27974	26590	167785	27045	1048088	44862	110385	0	0	8042	604934	0	0
2024-07-21 07:23:47			0	36516	0	0	0	27961	26590	167781	27357	1048168	44839	110380	0	0	8043	604521	0	0
2024-07-21 07:24:47			0	36494	0	0	0	27961	26580	167853	27431	1048124	44837	110380	0	0	8041	605465	0	0
2024-07-21 07:25:47			0	36509	0	0	0	27966	26590	167773	27604	1048141	44851	110382	0	0	8042	604810	0	0
2024-07-21 07:26:47			0	36523	0	0	0	27968	26590	167789	27414	1048168	44851	110383	0	0	8043	604231	0	0
2024-07-21 07:27:47			0	36490	0	0	0	27963	26580	167837	27975	1048186	44828	110381	0	0	8041	605630	0	0
2024-07-21 07:28:47			0	36494	0	0	0	27963	26580	167909	27192	1048043	44849	110381	0	0	8041	605465	0	0
2024-07-21 07:29:47			0	36494	0	0	0	27966	26590	167933	27632	1048141	44862	110382	0	0	8041	605430	0	0
2024-07-21 07:30:47			0	36482	0	0	0	27966	26590	167881	27454	1048195	44862	110382	0	0	8041	605927	0	0
2024-07-21 07:31:47			0	36498	0	0	0	27963	26580	167881	27388	1048124	44837	110381	0	0	8042	605299	0	0
2024-07-21 07:32:47			0	36478	0	0	0	27961	26570	167829	27384	1048115	44860	110380	0	0	8040	606162	0	0
2024-07-21 07:33:47			0	36486	0	0	0	27958	26580	167857	27431	1048160	44850	110379	0	0	8041	605796	0	0
2024-07-21 07:34:47			0	36490	0	0	0	27961	26570	168017	27267	1048115	44849	110380	0	0	8041	605665	0	0
2024-07-21 07:35:47			0	36484	0	0	0	27966	26580	168017	27163	1048124	44860	110382	0	0	8041	605879	0	0
2024-07-21 07:36:47			0	36466	0	0	0	27955	26570	167949	27524	1048115	44849	110378	0	0	8040	606659	0	0
2024-07-21 07:37:47			0	36495	0	0	0	27958	26580	167881	27677	1048160	44850	110379	0	0	8041	605424	0	0
2024-07-21 07:38:47			0	36468	0	0	0	27953	26570	167909	27175	1048115	44872	110377	0	0	8040	606576	0	0
2024-07-21 07:39:47			0	36481	0	0	0	27953	26580	167897	27178	1048070	44837	110377	0	0	8041	606003	0	0
2024-07-21 07:40:47			0	36472	0	0	0	27971	26580	168045	27479	1048133	44861	110384	0	0	8040	606376	0	0
2024-07-21 07:41:47			0	36492	0	0	0	27966	26580	167969	27343	1048097	44849	110382	0	0	8041	605548	0	0
2024-07-21 07:42:47			0	36490	0	0	0	27963	26570	167925	27511	1048106	44860	110381	0	0	8041	605665	0	0
2024-07-21 07:43:47			0	36480	0	0	0	27971	26580	167909	27256	1048097	44849	110384	0	0	8040	606045	0	0
2024-07-21 07:44:47			0	36493	0	0	0	27966	26580	167929	27350	1048160	44850	110382	0	0	8041	605506	0	0
2024-07-21 07:45:47			0	36504	0	0	0	27968	26580	167889	27294	1048124	44849	110383	0	0	8042	605051	0	0
2024-07-21 07:46:47			0	36489	0	0	0	27976	26570	167837	27391	1048169	44872	110386	0	0	8041	605707	0	0
2024-07-21 07:47:47			0	36487	0	0	0	27971	26580	167865	27473	1048178	44860	110384	0	0	8041	605755	0	0
2024-07-21 07:48:47			0	36484	0	0	0	27976	26580	167885	27654	1048133	44872	110386	0	0	8040	605879	0	0
2024-07-21 07:49:47			0	36490	0	0	0	27984	26580	167841	27585	1048213	44861	110389	0	0	8041	605630	0	0
2024-07-21 07:50:47			0	36498	0	0	0	27984	26580	167853	27331	1048160	44861	110389	0	0	8041	605299	0	0
2024-07-21 07:51:47			0	36506	0	0	0	27994	26580	167885	27502	1048240	44850	110393	0	0	8041	604969	0	0
2024-07-21 07:52:47			0	36508	0	0	0	27992	26590	167893	27360	1048222	44862	110392	0	0	8042	604851	0	0
2024-07-21 07:53:47			0	36508	0	0	0	27994	26590	167681	27438	1048276	44862	110393	0	0	8042	604851	0	0
2024-07-21 07:54:47			0	36500	0	0	0	28002	26600	167761	28067	1048293	44862	110396	0	0	8041	605147	0	0
2024-07-21 07:55:47			0	36510	0	0	0	28007	26600	167685	27357	1048267	44873	110398	0	0	8042	604734	0	0
2024-07-21 07:56:47			0	36510	0	0	0	28012	26600	167705	27831	1048240	44862	110400	0	0	8042	604734	0	0
2024-07-21 07:57:47			0	36517	0	0	0	28010	26600	167801	27793	1048329	44863	110399	0	0	8042	604445	0	0
2024-07-21 07:58:47			0	36502	0	0	0	28010	26600	167773	27502	1048249	44863	110399	0	0	8041	605065	0	0
2024-07-21 07:59:47			0	36519	0	0	0	28012	26600	167605	27587	1048275	44852	110400	0	0	8042	604362	0	0
2024-07-21 08:00:47			0	36520	0	0	0	28012	26600	167705	27599	1048302	44874	110400	0	0	8042	604321	0	0
2024-07-21 08:01:47			0	36536	0	0	0	28007	26600	167669	27289	1048329	44863	110398	0	0	8043	603660	0	0
2024-07-21 08:02:47			0	36525	0	0	0	28015	26600	167653	27679	1048329	44852	110401	0	0	8042	604114	0	0
2024-07-21 08:03:47			0	36524	0	0	0	28005	26610	167669	27230	1048293	44853	110397	0	0	8043	604121	0	0
2024-07-21 08:04:47			0	36530	0	0	0	28005	26600	167621	27279	1048356	44852	110397	0	0	8043	603908	0	0
2024-07-21 08:05:47			0	36512	0	0	0	28012	26610	167769	27171	1048293	44841	110400	0	0	8042	604617	0	0
2024-07-21 08:06:47			0	36519	0	0	0	28018	26600	167673	27294	1048356	44863	110402	0	0	8042	604362	0	0
2024-07-21 08:07:47			0	36527	0	0	0	28020	26610	167709	27175	1048311	44853	110403	0	0	8042	603997	0	0
2024-07-21 08:08:47			0	36521	0	0	0	28018	26610	167721	28194	1048374	44853	110402	0	0	8042	604245	0	0
2024-07-21 08:09:47			0	36513	0	0	0	28033	26610	167781	27623	1048347	44864	110408	0	0	8041	604575	0	0
2024-07-21 08:10:47			0	36523	0	0	0	28023	26610	167653	27386	1048401	44864	110404	0	0	8042	604162	0	0
2024-07-21 08:11:47			0	36522	0	0	0	28033	26610	167845	27412	1048401	44864	110408	0	0	8042	604203	0	0
2024-07-21 08:12:47			0	36500	0	0	0	28028	26620	167753	27185	1048445	44865	110406	0	0	8041	605078	0	0
2024-07-21 08:13:47			0	36496	0	0	0	28025	26610	167781	27275	1048401	44853	110405	0	0	8041	605278	0	0
2024-07-21 08:14:47			0	36491	0	0	0	28028	26620	167885	27199	1048499	44865	110406	0	0	8040	605451	0	0
2024-07-21 08:15:47			0	36486	0	0	0	28025	26620	167861	27331	1048409	44853	110405	0	0	8040	605657	0	0
2024-07-21 08:16:47			0	36462	0	0	0	28033	26620	167957	27391	1048418	44854	110408	0	0	8038	606651	0	0
2024-07-21 08:17:47			0	36447	0	0	0	28031	26620	168029	27528	1048445	44854	110407	0	0	8038	607273	0	0
2024-07-21 08:18:47			0	36418	0	0	0	28025	26630	168069	27711	1048454	44855	110405	0	0	8036	608441	0	0
2024-07-21 08:19:47			0	36417	0	0	0	28028	26620	168249	27647	1048418	44854	110406	0	0	8036	608518	0	0
2024-07-21 08:20:47			0	36374	0	0	0	28036	26630	168293	27698	1048427	44866	110409	0	0	8033	610270	0	0
2024-07-21 08:21:47			0	36369	0	0	0	28031	26620	168421	27530	1048364	44865	110407	0	0	8033	610513	0	0
2024-07-21 08:22:47			0	36324	0	0	0	28028	26620	168505	27341	1048364	44854	110406	0	0	8030	612388	0	0
2024-07-21 08:23:47			0	36315	0	0	0	28031	26620	168585	27732	1048391	44865	110407	0	0	8030	612763	0	0
2024-07-21 08:24:47			0	36289	0	0	0	28023	26630	168693	27124	1048508	44855	110404	0	0	8028	613813	0	0
2024-07-21 08:25:47			0	36255	0	0	0	28025	26620	168825	27523	1048418	44865	110405	0	0	8026	615270	0	0
2024-07-21 08:26:47			0	36240	0	0	0	28025	26620	168845	27338	1048472	44865	110405	0	0	8025	615898	0	0
2024-07-21 08:27:47			0	36215	0	0	0	28018	26630	168961	27471	1048481	44855	110402	0	0	8024	616910	0	0
2024-07-21 08:28:47			0	36196	0	0	0	28028	26620	169049	27319	1048391	44854	110406	0	0	8022	617742	0	0
2024-07-21 08:29:47			0	36163	0	0	0	28031	26630	169169	27001	1048508	44843	110407	0	0	8020	619093	0	0
2024-07-21 08:30:47			0	36147	0	0	0	28018	26630	169253	26790	1048382	44856	110402	0	0	8020	619765	0	0
2024-07-21 08:31:47			0	36136	0	0	0	28010	26620	169329	27088	1048329	44853	110399	0	0	8019	620263	0	0
2024-07-21 08:32:47			0	36121	0	0	0	28010	26620	169553	26691	1048382	44853	110399	0	0	8018	620895	0	0
2024-07-21 08:33:47			0	36062	0	0	0	28023	26620	169725	27067	1048436	44864	110404	0	0	8014	623383	0	0
2024-07-21 08:34:47			0	36013	0	0	0	28020	26620	169945	27163	1048436	44853	110403	0	0	8012	625454	0	0
2024-07-21 08:35:47			0	35984	0	0	0	28036	26630	170113	27026	1048463	44867	110409	0	0	8010	626647	0	0
2024-07-21 08:36:47			0	35948	0	0	0	28031	26620	170193	27003	1048409	44853	110407	0	0	8007	628210	0	0
2024-07-21 08:37:47			0	35899	0	0	0	28036	26620	170377	27055	1048436	44864	110409	0	0	8004	630293	0	0
2024-07-21 08:38:47			0	35846	0	0	0	28031	26620	170560	27150	1048445	44865	110407	0	0	8001	632552	0	0
2024-07-21 08:39:47			0	35794	0	0	0	28033	26630	170828	27197	1048481	44866	110408	0	0	7998	634737	0	0
2024-07-21 08:40:47			0	35759	0	0	0	28036	26630	171160	27294	1048427	44876	110409	0	0	7996	636235	0	0
2024-07-21 08:41:47			0	35697	0	0	0	28033	26620	171348	27374	1048472	44854	110408	0	0	7992	638933	0	0
2024-07-21 08:42:47			0	35649	0	0	0	28033	26640	171536	27036	1048418	44856	110408	0	0	7989	640925	0	0
2024-07-21 08:43:47			0	35591	0	0	0	28041	26630	171932	27282	1048463	44867	110411	0	0	7985	643463	0	0
2024-07-21 08:44:47			0	35546	0	0	0	28025	26630	172072	27052	1048454	44855	110405	0	0	7983	645409	0	0
2024-07-21 08:45:47			0	35494	0	0	0	28038	26620	172356	27334	1048445	44865	110410	0	0	7979	647701	0	0
2024-07-21 08:46:47			0	35456	0	0	0	28036	26620	172428	26996	1048445	44854	110409	0	0	7977	649352	0	0
2024-07-21 08:47:47			0	35414	0	0	0	28041	26630	172660	27157	1048481	44855	110411	0	0	7974	651143	0	0
2024-07-21 08:48:47			0	35387	0	0	0	28036	26630	172900	27211	1048543	44844	110409	0	0	7973	652320	0	0
2024-07-21 08:49:47			0	35342	0	0	0	28038	26640	173076	27391	1048471	44867	110410	0	0	7970	654248	0	0
2024-07-21 08:50:47			0	35322	0	0	0	28041	26640	173220	27518	1048498	44856	110411	0	0	7969	655123	0	0
2024-07-21 08:51:47			0	35285	0	0	0	28036	26630	173292	27183	1048570	44856	110409	0	0	7967	656782	0	0
2024-07-21 08:52:47			0	35265	0	0	0	28036	26630	173456	27374	1048463	44877	110409	0	0	7965	657659	0	0
2024-07-21 08:53:47			0	35247	0	0	0	28036	26630	173452	27234	1048463	44867	110409	0	0	7964	658450	0	0
2024-07-21 08:54:47			0	35233	0	0	0	28049	26640	173580	27334	1048480	44856	110414	0	0	7963	659027	0	0
2024-07-21 08:55:47			0	35206	0	0	0	28041	26640	173820	27182	1048534	44856	110411	0	0	7962	660215	0	0
2024-07-21 08:56:47			0	35201	0	0	0	28041	26630	173832	27284	1048543	44856	110411	0	0	7961	660473	0	0
2024-07-21 08:57:47			0	35186	0	0	0	28057	26640	173876	27365	1048579	44867	110417	0	0	7960	661096	0	0
2024-07-21 08:58:47			0	35173	0	0	0	28062	26640	173844	27196	1048561	44877	110419	0	0	7959	661669	0	0
2024-07-21 08:59:47			0	35176	0	0	0	28054	26640	173780	27370	1048561	44867	110416	0	0	7959	661537	0	0
2024-07-21 09:00:47			0	35178	0	0	0	28049	26640	173908	27412	1048525	44856	110414	0	0	7960	661448	0	0
2024-07-21 09:01:47			0	35166	0	0	0	28059	26650	173964	27305	1048597	44878	110418	0	0	7959	661940	0	0
2024-07-21 09:02:47			0	35153	0	0	0	28064	26650	174140	27183	1048597	44878	110420	0	0	7958	662513	0	0
2024-07-21 09:03:47			0	35150	0	0	0	28067	26650	174088	27493	1048623	44856	110421	0	0	7958	662646	0	0
2024-07-21 09:04:47			0	35141	0	0	0	28070	26660	174180	27334	1048695	44869	110422	0	0	7957	663005	0	0
2024-07-21 09:05:47			0	35126	0	0	0	28059	26650	174096	27085	1048597	44868	110418	0	0	7956	663706	0	0
2024-07-21 09:06:47			0	35147	0	0	0	28051	26670	174136	27287	1048632	44880	110415	0	0	7958	662702	0	0
2024-07-21 09:07:47			0	35148	0	0	0	28054	26670	174012	27277	1048623	44857	110416	0	0	7958	662658	0	0
2024-07-21 09:08:47			0	35144	0	0	0	28067	26660	174056	27312	1048641	44869	110421	0	0	7957	662873	0	0
2024-07-21 09:09:47			0	35156	0	0	0	28077	26660	174012	27352	1048722	44879	110425	0	0	7958	662343	0	0
2024-07-21 09:10:47			0	35138	0	0	0	28083	26670	174100	27265	1048713	44858	110427	0	0	7957	663100	0	0
2024-07-21 09:11:47			0	35147	0	0	0	28098	26680	174020	27164	1048704	44859	110433	0	0	7957	662664	0	0
2024-07-21 09:12:47			0	35135	0	0	0	28111	26680	174108	27795	1048731	44871	110438	0	0	7956	663194	0	0
2024-07-21 09:13:47			0	35140	0	0	0	28109	26690	173996	27755	1048775	44872	110437	0	0	7957	662935	0	0
2024-07-21 09:14:47			0	35141	0	0	0	28116	26680	173988	27332	1048757	44871	110440	0	0	7956	662929	0	0
2024-07-21 09:15:47			0	35153	0	0	0	28116	26690	174004	27530	1048847	44881	110440	0	0	7957	662362	0	0
2024-07-21 09:16:47			0	35157	0	0	0	28119	26700	174020	27462	1048864	44883	110441	0	0	7957	662147	0	0
2024-07-21 09:17:47			0	35156	0	0	0	28124	26700	173988	27486	1048864	44883	110443	0	0	7957	662191	0	0
2024-07-21 09:18:47			0	35175	0	0	0	28124	26700	173928	27492	1048846	44874	110443	0	0	7959	661354	0	0
2024-07-21 09:19:47			0	35169	0	0	0	28129	26710	173908	27329	1048882	44874	110445	0	0	7958	661580	0	0
2024-07-21 09:20:47			0	35163	0	0	0	28135	26720	173888	27557	1048935	44886	110447	0	0	7958	661807	0	0
2024-07-21 09:21:47			0	35176	0	0	0	28140	26720	173856	27229	1048954	44885	110449	0	0	7958	661234	0	0
2024-07-21 09:22:47			0	35185	0	0	0	28137	26720	173804	27327	1048954	44875	110448	0	0	7959	660837	0	0
2024-07-21 09:23:47			0	35209	0	0	0	28127	26720	173632	27263	1048954	44875	110444	0	0	7961	659781	0	0
2024-07-21 09:24:47			0	35237	0	0	0	28142	26720	173556	27289	1048962	44886	110450	0	0	7962	658550	0	0
2024-07-21 09:25:47			0	35245	0	0	0	28129	26710	173480	27244	1048945	44874	110445	0	0	7963	658236	0	0
2024-07-21 09:26:47			0	35290	0	0	0	28135	26720	173292	27407	1048962	44864	110447	0	0	7966	656224	0	0
2024-07-21 09:27:47			0	35315	0	0	0	28132	26730	173200	27152	1048944	44875	110446	0	0	7967	655092	0	0
2024-07-21 09:28:47			0	35320	0	0	0	28127	26720	173140	27376	1048935	44853	110444	0	0	7968	654911	0	0
2024-07-21 09:29:47			0	35316	0	0	0	28124	26730	173100	27569	1048917	44864	110443	0	0	7967	655048	0	0
2024-07-21 09:30:47			0	35294	0	0	0	28127	26730	173176	27405	1048953	44864	110444	0	0	7966	656011	0	0
2024-07-21 09:31:47			0	35288	0	0	0	28114	26730	173328	27448	1048944	44875	110439	0	0	7966	656274	0	0
2024-07-21 09:32:47			0	35284	0	0	0	28137	26730	173292	27521	1048953	44875	110448	0	0	7965	656450	0	0
2024-07-21 09:33:47			0	35274	0	0	0	28132	26730	173260	27595	1048971	44897	110446	0	0	7965	656888	0	0
2024-07-21 09:34:47			0	35269	0	0	0	28129	26740	173340	27495	1048989	44887	110445	0	0	7965	657070	0	0
2024-07-21 09:35:47			0	35277	0	0	0	28140	26740	173284	27215	1049069	44865	110449	0	0	7965	656719	0	0
2024-07-21 09:36:47			0	35263	0	0	0	28137	26740	173284	27383	1049078	44866	110448	0	0	7964	657333	0	0
2024-07-21 09:37:47			0	35267	0	0	0	28132	26740	173364	27407	1049025	44888	110446	0	0	7964	657158	0	0
2024-07-21 09:38:47			0	35270	0	0	0	28111	26740	173312	27244	1048971	44877	110438	0	0	7965	657026	0	0
2024-07-21 09:39:47			0	35279	0	0	0	28096	26740	173284	27358	1048998	44877	110432	0	0	7966	656631	0	0
2024-07-21 09:40:47			0	35274	0	0	0	28098	26740	173296	27331	1048935	44854	110433	0	0	7965	656851	0	0
2024-07-21 09:41:47			0	35257	0	0	0	28106	26730	173312	27478	1048944	44853	110436	0	0	7964	657634	0	0
2024-07-21 09:42:47			0	35251	0	0	0	28114	26720	173352	27211	1049007	44863	110439	0	0	7964	657935	0	0
2024-07-21 09:43:47			0	35248	0	0	0	28111	26730	173380	27118	1048971	44853	110438	0	0	7963	658029	0	0
2024-07-21 09:44:47			0	35257	0	0	0	28096	26730	173420	27024	1048891	44864	110432	0	0	7964	657634	0	0
2024-07-21 09:45:47			0	35271	0	0	0	28101	26720	173432	27137	1048927	44875	110434	0	0	7965	657057	0	0
2024-07-21 09:46:47			0	35256	0	0	0	28101	26720	173340	27512	1048900	44863	110434	0	0	7964	657715	0	0
2024-07-21 09:47:47			0	35246	0	0	0	28109	26720	173340	27407	1048989	44875	110437	0	0	7963	658155	0	0
2024-07-21 09:48:47			0	35239	0	0	0	28124	26730	173364	27343	1048971	44864	110443	0	0	7963	658424	0	0
2024-07-21 09:49:47			0	35249	0	0	0	28111	26730	173408	27327	1048917	44886	110438	0	0	7964	657985	0	0
2024-07-21 09:50:47			0	35238	0	0	0	28119	26720	173348	27237	1049016	44853	110441	0	0	7963	658506	0	0
2024-07-21 09:51:47			0	35236	0	0	0	28109	26720	173400	27533	1048954	44863	110437	0	0	7963	658594	0	0
2024-07-21 09:52:47			0	35231	0	0	0	28122	26740	173404	27448	1048935	44865	110442	0	0	7962	658738	0	0
2024-07-21 09:53:47			0	35242	0	0	0	28122	26730	173440	27367	1048944	44875	110442	0	0	7963	658292	0	0
2024-07-21 09:54:47			0	35224	0	0	0	28132	26730	173392	27227	1048998	44886	110446	0	0	7962	659083	0	0
2024-07-21 09:55:47			0	35220	0	0	0	28137	26740	173564	27313	1049078	44877	110448	0	0	7961	659221	0	0
2024-07-21 09:56:47			0	35219	0	0	0	28142	26750	173556	27440	1049096	44877	110450	0	0	7961	659228	0	0
2024-07-21 09:57:47			0	35215	0	0	0	28132	26740	173572	27395	1049078	44877	110446	0	0	7961	659441	0	0
2024-07-21 09:58:47			0	35218	0	0	0	28122	26750	173496	27142	1049087	44877	110442	0	0	7962	659272	0	0
2024-07-21 09:59:47			0	35209	0	0	0	28109	26740	173492	27310	1048998	44855	110437	0	0	7961	659705	0	0
2024-07-21 10:00:47			0	35215	0	0	0	28114	26740	173440	27197	1048998	44866	110439	0	0	7961	659441	0	0
2024-07-21 10:01:47			0	35234	0	0	0	28111	26730	173416	27185	1048971	44864	110438	0	0	7963	658644	0	0
2024-07-21 10:02:47			0	35242	0	0	0	28116	26740	173404	27483	1049016	44876	110440	0	0	7963	658255	0	0
2024-07-21 10:03:47			0	35230	0	0	0	28122	26730	173372	27227	1049007	44853	110442	0	0	7962	658820	0	0
2024-07-21 10:04:47			0	35260	0	0	0	28142	26730	173412	27241	1048980	44864	110450	0	0	7964	657502	0	0
2024-07-21 10:05:47			0	35259	0	0	0	28135	26750	173308	27289	1049033	44888	110447	0	0	7964	657471	0	0
2024-07-21 10:06:47			0	35256	0	0	0	28140	26740	173180	26984	1049043	44865	110449	0	0	7964	657640	0	0
2024-07-21 10:07:47			0	35286	0	0	0	28145	26740	173216	27568	1049069	44887	110451	0	0	7965	656324	0	0
2024-07-21 10:08:47			0	35292	0	0	0	28142	26750	173088	27428	1049042	44877	110450	0	0	7966	656024	0	0
2024-07-21 10:09:47			0	35302	0	0	0	28142	26740	173108	27414	1049025	44866	110450	0	0	7966	655624	0	0
2024-07-21 10:10:47			0	35326	0	0	0	28148	26740	173148	27388	1049078	44888	110452	0	0	7968	654573	0	0
2024-07-21 10:11:47			0	35311	0	0	0	28155	26750	173156	27379	1049033	44866	110455	0	0	7967	655192	0	0
2024-07-21 10:12:47			0	35317	0	0	0	28168	26760	173064	27384	1049159	44889	110460	0	0	7967	654892	0	0
2024-07-21 10:13:47			0	35325	0	0	0	28166	26750	173008	27036	1049096	44888	110459	0	0	7967	654579	0	0
2024-07-21 10:14:47			0	35309	0	0	0	28158	26750	173032	27239	1049114	44888	110456	0	0	7967	655280	0	0
2024-07-21 10:15:47			0	35319	0	0	0	28176	26760	172916	27170	1049132	44889	110463	0	0	7967	654804	0	0
2024-07-21 10:16:47			0	35327	0	0	0	28163	26760	173016	27107	1049132	44878	110458	0	0	7968	654455	0	0
2024-07-21 10:17:47			0	35341	0	0	0	28158	26750	172940	27156	1049069	44877	110456	0	0	7969	653880	0	0
2024-07-21 10:18:47			0	35341	0	0	0	28166	26750	172748	27246	1049168	44877	110459	0	0	7968	653880	0	0
2024-07-21 10:19:47			0	35335	0	0	0	28173	26770	172876	27305	1049149	44879	110462	0	0	7968	654067	0	0
2024-07-21 10:20:47			0	35332	0	0	0	28168	26750	172924	26915	1049150	44877	110460	0	0	7968	654273	0	0
2024-07-21 10:21:47			0	35359	0	0	0	28176	26770	172832	27114	1049176	44891	110463	0	0	7969	653019	0	0
2024-07-21 10:22:47			0	35359	0	0	0	28176	26770	172804	27157	1049293	44902	110463	0	0	7969	653019	0	0
2024-07-21 10:23:47			0	35369	0	0	0	28184	26770	172772	27383	1049176	44869	110466	0	0	7970	652583	0	0
2024-07-21 10:24:47			0	35381	0	0	0	28197	26770	172616	27324	1049203	44891	110471	0	0	7971	652059	0	0
2024-07-21 10:25:47			0	35400	0	0	0	28199	26780	172632	27282	1049248	44869	110472	0	0	7972	651193	0	0
2024-07-21 10:26:47			0	35399	0	0	0	28199	26780	172604	27322	1049248	44879	110472	0	0	7972	651237	0	0
2024-07-21 10:27:47			0	35389	0	0	0	28207	26790	172600	27190	1049265	44881	110475	0	0	7971	651635	0	0
2024-07-21 10:28:47			0	35384	0	0	0	28210	26800	172584	27454	1049400	44905	110476	0	0	7971	651816	0	0
2024-07-21 10:29:47			0	35381	0	0	0	28218	26800	172684	27249	1049391	44893	110479	0	0	7970	651947	0	0
2024-07-21 10:30:47			0	35377	0	0	0	28212	26800	172732	27428	1049391	44881	110477	0	0	7970	652121	0	0
2024-07-21 10:31:47			0	35339	0	0	0	28207	26790	172776	27105	1049436	44871	110475	0	0	7968	653818	0	0
2024-07-21 10:32:47			0	35339	0	0	0	28220	26800	172840	27255	1049364	44881	110480	0	0	7968	653780	0	0
2024-07-21 10:33:47			0	35317	0	0	0	28212	26810	172852	27258	1049462	44906	110477	0	0	7966	654704	0	0
2024-07-21 10:34:47			0	35302	0	0	0	28233	26810	172952	27261	1049444	44883	110485	0	0	7965	655361	0	0
2024-07-21 10:35:47			0	35306	0	0	0	28238	26810	172960	27244	1049435	44895	110487	0	0	7965	655186	0	0
2024-07-21 10:36:47			0	35294	0	0	0	28264	26820	173020	27334	1049507	44883	110497	0	0	7964	655673	0	0
2024-07-21 10:37:47			0	35301	0	0	0	28270	26830	173048	26960	1049659	44908	110499	0	0	7965	655330	0	0
2024-07-21 10:38:47			0	35323	0	0	0	28283	26830	173012	27293	1049668	44885	110504	0	0	7966	654367	0	0
2024-07-21 10:39:47			0	35306	0	0	0	28288	26840	173004	27090	1049730	44898	110506	0	0	7965	655073	0	0
2024-07-21 10:40:47			0	35313	0	0	0	28290	26830	173016	27220	1049721	44897	110507	0	0	7965	654804	0	0
2024-07-21 10:41:47			0	35298	0	0	0	28280	26840	172920	27388	1049712	44886	110503	0	0	7964	655423	0	0
2024-07-21 10:42:47			0	35272	0	0	0	28285	26860	173108	27187	1049801	44900	110505	0	0	7963	656487	0	0
2024-07-21 10:43:47			0	35253	0	0	0	28301	26860	173208	27166	1049801	44877	110511	0	0	7961	657320	0	0
2024-07-21 10:44:47			0	35236	0	0	0	28301	26850	173288	27090	1049757	44888	110511	0	0	7960	658104	0	0
2024-07-21 10:45:47			0	35220	0	0	0	28290	26860	173436	27253	1049828	44900	110507	0	0	7959	658768	0	0
2024-07-21 10:46:47			0	35212	0	0	0	28290	26870	173428	27190	1049783	44889	110507	0	0	7959	659082	0	0
2024-07-21 10:47:47			0	35226	0	0	0	28311	26880	173356	27086	1049855	44879	110515	0	0	7959	658429	0	0
2024-07-21 10:48:47			0	35235	0	0	0	28303	26880	173324	27306	1049855	44890	110512	0	0	7960	658034	0	0
2024-07-21 10:49:47			0	35253	0	0	0	28290	26880	173168	27417	1049881	44890	110507	0	0	7962	657244	0	0
2024-07-21 10:50:47			0	35273	0	0	0	28275	26880	173008	27180	1049863	44890	110501	0	0	7963	656368	0	0
2024-07-21 10:51:47			0	35293	0	0	0	28306	26890	172976	27531	1049935	44892	110513	0	0	7964	655454	0	0
2024-07-21 10:52:47			0	35312	0	0	0	28319	26890	172944	27241	1049926	44880	110518	0	0	7965	654623	0	0
2024-07-21 10:53:47			0	35336	0	0	0	28319	26900	172708	27272	1049917	44903	110518	0	0	7966	653537	0	0
2024-07-21 10:54:47			0	35385	0	0	0	28324	26890	172548	27263	1049935	44892	110520	0	0	7969	651437	0	0
2024-07-21 10:55:47			0	35405	0	0	0	28337	26910	172308	27124	1049961	44893	110525	0	0	7970	650491	0	0
2024-07-21 10:56:47			0	35455	0	0	0	28353	26920	172140	27069	1050087	44905	110531	0	0	7973	648280	0	0
2024-07-21 10:57:47			0	35501	0	0	0	28342	26920	172060	27187	1049979	44905	110527	0	0	7976	646285	0	0
2024-07-21 10:58:47			0	35517	0	0	0	28332	26920	171900	27353	1050033	44894	110523	0	0	7977	645593	0	0
2024-07-21 10:59:47			0	35512	0	0	0	28332	26920	171900	27034	1050060	44883	110523	0	0	7977	645809	0	0
2024-07-21 11:00:47			0	35491	0	0	0	28327	26910	171888	27327	1050051	44894	110521	0	0	7976	646756	0	0
2024-07-21 11:01:47			0	35495	0	0	0	28314	26920	171888	27045	1050042	44884	110516	0	0	7976	646545	0	0
2024-07-21 11:02:47			0	35483	0	0	0	28301	26920	172036	27234	1049979	44894	110511	0	0	7976	647065	0	0
2024-07-21 11:03:47			0	35480	0	0	0	28314	26920	171972	26928	1050060	44894	110516	0	0	7975	647195	0	0
2024-07-21 11:04:47			0	35494	0	0	0	28324	26910	171996	27248	1050051	44883	110520	0	0	7976	646626	0	0
2024-07-21 11:05:47			0	35487	0	0	0	28322	26920	171960	27343	1049979	44883	110519	0	0	7976	646892	0	0
2024-07-21 11:06:47			0	35502	0	0	0	28316	26920	171912	27315	1050042	44895	110517	0	0	7977	646242	0	0
2024-07-21 11:07:47			0	35482	0	0	0	28314	26930	171976	27649	1050024	44895	110516	0	0	7976	647072	0	0
2024-07-21 11:08:47			0	35396	0	0	0	28332	26920	172404	27530	1050042	44906	110523	0	0	7970	650845	0	0
2024-07-21 11:09:47			0	35356	0	0	0	28332	26930	172660	27255	1050078	44895	110523	0	0	7968	652551	0	0
2024-07-21 11:10:47			0	35290	0	0	0	28350	26930	172860	27258	1050086	44896	110530	0	0	7963	655435	0	0
2024-07-21 11:11:47			0	35259	0	0	0	28353	26950	173248	27267	1050158	44897	110531	0	0	7961	656718	0	0
2024-07-21 11:12:47			0	35200	0	0	0	28381	26920	173448	27249	1050176	44906	110542	0	0	7957	659421	0	0
2024-07-21 11:13:47			0	35159	0	0	0	28379	26950	173600	27350	1050239	44897	110541	0	0	7955	661111	0	0
2024-07-21 11:14:47			0	35148	0	0	0	28386	26960	173716	27435	1050256	44909	110544	0	0	7954	661558	0	0
2024-07-21 11:15:47			0	35114	0	0	0	28381	26960	173884	27535	1050283	44909	110542	0	0	7952	663058	0	0
2024-07-21 11:16:47			0	35103	0	0	0	28381	26960	173915	27189	1050211	44899	110542	0	0	7951	663543	0	0
2024-07-21 11:17:47			0	35078	0	0	0	28374	26970	174147	27469	1050274	44910	110539	0	0	7950	664610	0	0
2024-07-21 11:18:47			0	35055	0	0	0	28386	26970	174023	27298	1050274	44899	110544	0	0	7948	665628	0	0
2024-07-21 11:19:47			0	35052	0	0	0	28389	26970	174195	27537	1050310	44900	110545	0	0	7948	665761	0	0
2024-07-21 11:20:47			0	35010	0	0	0	28402	26980	174247	27142	1050318	44900	110550	0	0	7945	667584	0	0
2024-07-21 11:21:47			0	35007	0	0	0	28425	26970	174259	27329	1050336	44900	110559	0	0	7944	667755	0	0
2024-07-21 11:22:47			0	35025	0	0	0	28420	27000	174431	27402	1050434	44913	110557	0	0	7946	666842	0	0
2024-07-21 11:23:47			0	35031	0	0	0	28438	26990	174215	27371	1050399	44902	110564	0	0	7946	666614	0	0
2024-07-21 11:24:47			0	35066	0	0	0	28488	27020	174083	27246	1050685	44938	110583	0	0	7947	664950	0	0
2024-07-21 11:25:47			0	35084	0	0	0	28477	27020	173887	27414	1050748	44938	110579	0	0	7949	664154	0	0
2024-07-21 11:26:47			0	35103	0	0	0	28514	27040	173783	27542	1050747	44917	110593	0	0	7949	663239	0	0
2024-07-21 11:27:47			0	35121	0	0	0	28548	27060	173680	27464	1050864	44930	110606	0	0	7950	662369	0	0
2024-07-21 11:28:47			0	35144	0	0	0	28599	27060	173660	27512	1050926	44930	110626	0	0	7950	661355	0	0
2024-07-21 11:29:47			0	35158	0	0	0	28688	27090	173604	27424	1051168	44945	110660	0	0	7950	660625	0	0
2024-07-21 11:30:47			0	35183	0	0	0	28841	27120	173540	27242	1051490	44982	110719	0	0	7949	659412	0	0
2024-07-21 11:31:47			0	35250	0	0	0	28805	27160	173184	27300	1051713	44984	110705	0	0	7954	656321	0	0
2024-07-21 11:32:47			0	35359	0	0	0	28849	27200	172688	26811	1051892	44988	110722	0	0	7960	651411	0	0
2024-07-21 11:33:47			0	35425	0	0	0	28906	27240	172288	27015	1052061	45004	110744	0	0	7964	648392	0	0
2024-07-21 11:34:47			0	35467	0	0	0	28950	27280	172056	27043	1052374	44997	110761	0	0	7966	646423	0	0
2024-07-21 11:35:47			0	35523	0	0	0	28994	27310	171844	27388	1052535	45000	110778	0	0	7969	643890	0	0
2024-07-21 11:36:47			0	35555	0	0	0	29049	27360	171568	27415	1052812	45027	110799	0	0	7970	642325	0	0
2024-07-21 11:37:47			0	35612	0	0	0	29148	27400	171196	27350	1053026	45020	110837	0	0	7972	639725	0	0
2024-07-21 11:38:47			0	35681	0	0	0	29207	27430	170888	27329	1053322	45012	110860	0	0	7975	636656	0	0
2024-07-21 11:39:47			0	35749	0	0	0	29241	27480	170616	27225	1053464	45050	110873	0	0	7979	633567	0	0
2024-07-21 11:40:47			0	35807	0	0	0	29267	27530	170196	27204	1053750	45033	110883	0	0	7982	630915	0	0
2024-07-21 11:41:47			0	35873	0	0	0	29293	27560	169853	27168	1053884	45035	110893	0	0	7986	628004	0	0
2024-07-21 11:42:47			0	35930	0	0	0	29316	27600	169561	27583	1054036	45029	110902	0	0	7989	625447	0	0
2024-07-21 11:43:47			0	35967	0	0	0	29327	27640	169297	27163	1054241	45033	110906	0	0	7992	623742	0	0
2024-07-21 11:44:47			0	36003	0	0	0	29332	27670	168969	27476	1054322	45013	110908	0	0	7994	622117	0	0
2024-07-21 11:45:47			0	36050	0	0	0	29327	27700	168881	27317	1054465	45028	110906	0	0	7997	620034	0	0
2024-07-21 11:46:47			0	36052	0	0	0	29355	27730	168881	27254	1054563	45031	110917	0	0	7997	619843	0	0
2024-07-21 11:47:47			0	36059	0	0	0	29355	27750	168877	27088	1054706	45022	110917	0	0	7997	619478	0	0
2024-07-21 11:48:47			0	36055	0	0	0	29363	27770	168629	27121	1054715	45012	110920	0	0	7997	619574	0	0
2024-07-21 11:49:47			0	36101	0	0	0	29392	27790	168545	27395	1054858	45014	110931	0	0	8000	617574	0	0
2024-07-21 11:50:47			0	36112	0	0	0	29392	27820	168353	27114	1054930	45028	110931	0	0	8000	617007	0	0
2024-07-21 11:51:47			0	36112	0	0	0	29423	27830	168421	27274	1054983	45029	110943	0	0	8000	616972	0	0
2024-07-21 11:52:47			0	36134	0	0	0	29418	27850	168293	27126	1055046	45031	110941	0	0	8001	615981	0	0
2024-07-21 11:53:47			0	36140	0	0	0	29425	27870	168161	27270	1055099	45033	110944	0	0	8002	615659	0	0
2024-07-21 11:54:47			0	36158	0	0	0	29431	27890	168129	27199	1055215	45024	110946	0	0	8003	614837	0	0
2024-07-21 11:55:47			0	36154	0	0	0	29433	27900	167961	27199	1055233	45025	110947	0	0	8003	614968	0	0
2024-07-21 11:56:47			0	36164	0	0	0	29441	27910	167997	27265	1055314	45026	110950	0	0	8003	614516	0	0
2024-07-21 11:57:47			0	36168	0	0	0	29444	27920	168033	27300	1055350	45015	110951	0	0	8003	614314	0	0
2024-07-21 11:58:47			0	36168	0	0	0	29462	27930	167913	27178	1055403	45006	110958	0	0	8003	614278	0	0
2024-07-21 11:59:47			0	36195	0	0	0	29477	27940	167933	27327	1055529	45007	110964	0	0	8004	613118	0	0
2024-07-21 12:00:47			0	36200	0	0	0	29483	27950	167889	27253	1055493	45019	110966	0	0	8005	612874	0	0
2024-07-21 12:01:47			0	36199	0	0	0	29477	27980	167817	27424	1055645	45033	110964	0	0	8005	612810	0	0
2024-07-21 12:02:47			0	36205	0	0	0	29488	27990	167685	26958	1055609	45023	110968	0	0	8005	612524	0	0
2024-07-21 12:03:47			0	36206	0	0	0	29514	27990	167553	27254	1055698	45034	110978	0	0	8005	612483	0	0
2024-07-21 12:04:47			0	36231	0	0	0	29511	28000	167605	27270	1055689	45013	110977	0	0	8006	611408	0	0
2024-07-21 12:05:47			0	36217	0	0	0	29519	28020	167501	27265	1055850	45015	110980	0	0	8006	611919	0	0
2024-07-21 12:06:47			0	36247	0	0	0	29532	28020	167537	27164	1055805	45037	110985	0	0	8007	610673	0	0
2024-07-21 12:07:47			0	36258	0	0	0	29540	28030	167409	27164	1055931	45017	110988	0	0	8008	610181	0	0
2024-07-21 12:08:47			0	36273	0	0	0	29555	28050	167373	27189	1055985	45029	110994	0	0	8008	609489	0	0
2024-07-21 12:09:47			0	36292	0	0	0	29553	28050	167265	27235	1056021	45041	110993	0	0	8010	608701	0	0
2024-07-21 12:10:47			0	36290	0	0	0	29555	28070	167161	27370	1056047	45031	110994	0	0	8010	608714	0	0
2024-07-21 12:11:47			0	36295	0	0	0	29561	28080	167097	27090	1056092	45020	110996	0	0	8010	608471	0	0
2024-07-21 12:12:47			0	36288	0	0	0	29568	28090	167213	26831	1056172	45011	110999	0	0	8009	608726	0	0
2024-07-21 12:13:47			0	36282	0	0	0	29576	28090	167257	27150	1056164	45021	111002	0	0	8009	608975	0	0
2024-07-21 12:14:47			0	36273	0	0	0	29586	28110	167257	27412	1056271	45023	111006	0	0	8008	609278	0	0
2024-07-21 12:15:47			0	36261	0	0	0	29586	28120	167309	27074	1056343	45024	111006	0	0	8008	609740	0	0
2024-07-21 12:16:47			0	36271	0	0	0	29610	28130	167365	27182	1056387	45025	111015	0	0	8008	609290	0	0
2024-07-21 12:17:47			0	36270	0	0	0	29628	28140	167201	27145	1056378	45026	111022	0	0	8007	609296	0	0
2024-07-21 12:18:47			0	36273	0	0	0	29633	28150	167229	27104	1056423	45039	111024	0	0	8008	609137	0	0
2024-07-21 12:19:47			0	36293	0	0	0	29628	28150	167241	27223	1056531	45016	111022	0	0	8009	608308	0	0
2024-07-21 12:20:47			0	36270	0	0	0	29638	28150	167189	27109	1056593	45028	111026	0	0	8007	609261	0	0
2024-07-21 12:21:47			0	36287	0	0	0	29657	28170	167153	27374	1056540	45041	111033	0	0	8008	608487	0	0
2024-07-21 12:22:47			0	36311	0	0	0	29654	28170	167073	27168	1056683	45030	111032	0	0	8010	607493	0	0
2024-07-21 12:23:47			0	36308	0	0	0	29659	28180	167121	27170	1056674	45020	111034	0	0	8009	607582	0	0
2024-07-21 12:24:47			0	36301	0	0	0	29667	28190	167137	26824	1056719	45032	111037	0	0	8009	607837	0	0
2024-07-21 12:25:47			0	36303	0	0	0	29680	28210	167089	26993	1056772	45023	111042	0	0	8009	607684	0	0
2024-07-21 12:26:47			0	36323	0	0	0	29672	28210	166989	27135	1056808	45034	111039	0	0	8010	606857	0	0
2024-07-21 12:27:47			0	36315	0	0	0	29690	28210	166961	27213	1056781	45044	111046	0	0	8009	607188	0	0
2024-07-21 12:28:47			0	36311	0	0	0	29698	28230	167001	27279	1056835	45025	111049	0	0	8009	607283	0	0
2024-07-21 12:29:47			0	36297	0	0	0	29711	28240	166969	27341	1056888	45048	111054	0	0	8008	607827	0	0
2024-07-21 12:30:47			0	36330	0	0	0	29714	28230	167013	27312	1056942	45036	111055	0	0	8010	606498	0	0
2024-07-21 12:31:47			0	36319	0	0	0	29722	28240	166969	27254	1056996	45048	111058	0	0	8009	606917	0	0
2024-07-21 12:32:47			0	36334	0	0	0	29722	28250	166889	27431	1056987	45048	111058	0	0	8010	606262	0	0
2024-07-21 12:33:47			0	36329	0	0	0	29719	28260	166789	27100	1057103	45049	111057	0	0	8010	606434	0	0
2024-07-21 12:34:47			0	36333	0	0	0	29742	28260	166825	27381	1057112	45040	111066	0	0	8010	606269	0	0
2024-07-21 12:35:47			0	36333	0	0	0	29758	28270	166861	27234	1057130	45040	111072	0	0	8010	606234	0	0
2024-07-21 12:36:47			0	36333	0	0	0	29766	28290	166901	27216	1057166	45053	111075	0	0	8010	606164	0	0
2024-07-21 12:37:47			0	36334	0	0	0	29774	28300	166845	27152	1057229	45053	111078	0	0	8010	606087	0	0
2024-07-21 12:38:47			0	36342	0	0	0	29768	28310	166809	27178	1057247	45055	111076	0	0	8010	605722	0	0
2024-07-21 12:39:47			0	36356	0	0	0	29789	28310	166701	27124	1057274	45055	111084	0	0	8011	605145	0	0
2024-07-21 12:40:47			0	36356	0	0	0	29802	28320	166637	26932	1057381	45056	111089	0	0	8011	605110	0	0
2024-07-21 12:41:47			0	36358	0	0	0	29792	28330	166653	27090	1057336	45046	111085	0	0	8011	604992	0	0
2024-07-21 12:42:47			0	36358	0	0	0	29802	28340	166645	27268	1057408	45035	111089	0	0	8011	604957	0	0
2024-07-21 12:43:47			0	36370	0	0	0	29802	28350	166741	27248	1057480	45059	111089	0	0	8012	604428	0	0
2024-07-21 12:44:47			0	36365	0	0	0	29802	28350	166629	27104	1057480	45059	111089	0	0	8011	604634	0	0
2024-07-21 12:45:47			0	36358	0	0	0	29805	28350	166609	27196	1057507	45048	111090	0	0	8011	604922	0	0
2024-07-21 12:46:47			0	36354	0	0	0	29825	28360	166741	27320	1057524	45059	111098	0	0	8010	605052	0	0
2024-07-21 12:47:47			0	36373	0	0	0	29841	28360	166661	27178	1057578	45059	111104	0	0	8011	604269	0	0
2024-07-21 12:48:47			0	36371	0	0	0	29828	28370	166697	27284	1057632	45050	111099	0	0	8011	604317	0	0
2024-07-21 12:49:47			0	36377	0	0	0	29844	28380	166593	27086	1057650	45050	111105	0	0	8011	604035	0	0
2024-07-21 12:50:47			0	36384	0	0	0	29841	28390	166617	27154	1057658	45063	111104	0	0	8012	603712	0	0
2024-07-21 12:51:47			0	36390	0	0	0	29844	28400	166617	27053	1057748	45052	111105	0	0	8012	603430	0	0
2024-07-21 12:52:47			0	36367	0	0	0	29854	28410	166533	27121	1057721	45065	111109	0	0	8011	604342	0	0
2024-07-21 12:53:47			0	36391	0	0	0	29851	28410	166473	27178	1057748	45053	111108	0	0	8012	603354	0	0
2024-07-21 12:54:47			0	36386	0	0	0	29849	28420	166497	27045	1057811	45043	111107	0	0	8012	603524	0	0
2024-07-21 12:55:47			0	36380	0	0	0	29864	28420	166461	27293	1057865	45066	111113	0	0	8011	603771	0	0
2024-07-21 12:56:47			0	36407	0	0	0	29872	28420	166445	26920	1057847	45066	111116	0	0	8013	602661	0	0
2024-07-21 12:57:47			0	36390	0	0	0	29880	28430	166565	27159	1057892	45067	111119	0	0	8012	603325	0	0
2024-07-21 12:58:47			0	36389	0	0	0	29877	28430	166405	27253	1057856	45066	111118	0	0	8012	603366	0	0
2024-07-21 12:59:47			0	36399	0	0	0	29862	28440	166449	27149	1057909	45069	111112	0	0	8013	602920	0	0
2024-07-21 13:00:47			0	36381	0	0	0	29859	28450	166533	27223	1057891	45057	111111	0	0	8012	603625	0	0
2024-07-21 13:01:47			0	36401	0	0	0	29864	28440	166501	27142	1057909	45069	111113	0	0	8013	602838	0	0
2024-07-21 13:02:47			0	36385	0	0	0	29870	28450	166441	27149	1057891	45035	111115	0	0	8012	603461	0	0
2024-07-21 13:03:47			0	36395	0	0	0	29870	28450	166529	27308	1057900	45069	111115	0	0	8012	603049	0	0
2024-07-21 13:04:47			0	36404	0	0	0	29862	28450	166513	27388	1057954	45046	111112	0	0	8013	602679	0	0
2024-07-21 13:05:47			0	36403	0	0	0	29883	28450	166465	27289	1057900	45057	111120	0	0	8013	602721	0	0
2024-07-21 13:06:47			0	36389	0	0	0	29877	28460	166397	27242	1058017	45058	111118	0	0	8012	603261	0	0
2024-07-21 13:07:47			0	36393	0	0	0	29896	28460	166353	27398	1058017	45081	111125	0	0	8012	603097	0	0
2024-07-21 13:08:47			0	36405	0	0	0	29880	28460	166393	27287	1057963	45070	111119	0	0	8013	602603	0	0
2024-07-21 13:09:47			0	36404	0	0	0	29909	28460	166221	27249	1058053	45059	111130	0	0	8012	602645	0	0
2024-07-21 13:10:47			0	36407	0	0	0	29911	28470	166405	27280	1058124	45048	111131	0	0	8012	602486	0	0
2024-07-21 13:11:47			0	36410	0	0	0	29911	28470	166193	27383	1058098	45059	111131	0	0	8013	602363	0	0
2024-07-21 13:12:47			0	36425	0	0	0	29922	28480	166293	27222	1058187	45060	111135	0	0	8013	601712	0	0
2024-07-21 13:13:47			0	36419	0	0	0	29929	28490	166317	27424	1058259	45072	111138	0	0	8013	601924	0	0
2024-07-21 13:14:47			0	36417	0	0	0	29924	28490	166285	27175	1058205	45061	111136	0	0	8013	602006	0	0
2024-07-21 13:15:47			0	36431	0	0	0	29942	28490	166249	27180	1058232	45061	111143	0	0	8013	601431	0	0
2024-07-21 13:16:47			0	36441	0	0	0	29940	28500	166241	27128	1058286	45052	111142	0	0	8014	600986	0	0
2024-07-21 13:17:47			0	36453	0	0	0	29940	28500	166133	27395	1058286	45085	111142	0	0	8015	600494	0	0
2024-07-21 13:18:47			0	36440	0	0	0	29968	28520	166221	27566	1058339	45064	111153	0	0	8014	600957	0	0
2024-07-21 13:19:47			0	36444	0	0	0	29953	28520	166213	27277	1058339	45075	111147	0	0	8014	600793	0	0
2024-07-21 13:20:47			0	36444	0	0	0	29979	28520	166173	27519	1058402	45076	111157	0	0	8014	600793	0	0
2024-07-21 13:21:47			0	36486	0	0	0	29973	28530	165933	27277	1058393	45077	111155	0	0	8016	599038	0	0
2024-07-21 13:22:47			0	36501	0	0	0	29973	28530	165861	27197	1058474	45077	111155	0	0	8017	598424	0	0
2024-07-21 13:23:47			0	36510	0	0	0	29994	28540	165845	27462	1058519	45078	111163	0	0	8018	598021	0	0
2024-07-21 13:24:47			0	36529	0	0	0	30005	28540	165857	27260	1058564	45088	111167	0	0	8018	597245	0	0
2024-07-21 13:25:47			0	36550	0	0	0	30005	28550	165717	27241	1058609	45090	111167	0	0	8020	596353	0	0
2024-07-21 13:26:47			0	36549	0	0	0	30007	28560	165717	27535	1058626	45079	111168	0	0	8020	596359	0	0
2024-07-21 13:27:47			0	36565	0	0	0	30002	28560	165761	27479	1058662	45080	111166	0	0	8021	595706	0	0
2024-07-21 13:28:47			0	36571	0	0	0	30002	28560	165637	27246	1058662	45069	111166	0	0	8021	595462	0	0
2024-07-21 13:29:47			0	36582	0	0	0	29984	28570	165554	27460	1058644	45070	111159	0	0	8022	594979	0	0
2024-07-21 13:30:47			0	36576	0	0	0	29984	28580	165533	27514	1058635	45071	111159	0	0	8022	595189	0	0
2024-07-21 13:31:47			0	36581	0	0	0	29984	28580	165685	27481	1058608	45071	111159	0	0	8022	594985	0	0
2024-07-21 13:32:47			0	36549	0	0	0	30005	28570	165721	27239	1058626	45070	111167	0	0	8020	596325	0	0
2024-07-21 13:33:47			0	36553	0	0	0	30018	28580	165801	27215	1058716	45082	111172	0	0	8020	596127	0	0
2024-07-21 13:34:47			0	36540	0	0	0	30046	28590	165689	27048	1058707	45072	111183	0	0	8019	596623	0	0
2024-07-21 13:35:47			0	36580	0	0	0	30062	28580	165697	27350	1058806	45082	111189	0	0	8021	595026	0	0
2024-07-21 13:36:47			0	36578	0	0	0	30070	28610	165633	26982	1058823	45095	111192	0	0	8021	595004	0	0
2024-07-21 13:37:47			0	36594	0	0	0	30057	28600	165501	27017	1058868	45083	111187	0	0	8022	594387	0	0
2024-07-21 13:38:47			0	36589	0	0	0	30072	28620	165533	26979	1058868	45096	111193	0	0	8021	594522	0	0
2024-07-21 13:39:47			0	36605	0	0	0	30080	28610	165514	27391	1058886	45096	111196	0	0	8022	593905	0	0
2024-07-21 13:40:47			0	36602	0	0	0	30083	28630	165398	27216	1058948	45087	111197	0	0	8022	593958	0	0
2024-07-21 13:41:47			0	36634	0	0	0	30046	28630	165314	27093	1058975	45098	111183	0	0	8024	592657	0	0
2024-07-21 13:42:47			0	36614	0	0	0	30062	28640	165382	27268	1059011	45087	111189	0	0	8023	593436	0	0
2024-07-21 13:43:47			0	36610	0	0	0	30070	28640	165466	27046	1058939	45066	111192	0	0	8023	593599	0	0
2024-07-21 13:44:47			0	36604	0	0	0	30075	28640	165398	27307	1059011	45065	111194	0	0	8022	593843	0	0
2024-07-21 13:45:47			0	36634	0	0	0	30067	28650	165358	27284	1059029	45088	111191	0	0	8024	592589	0	0
2024-07-21 13:46:47			0	36607	0	0	0	30085	28650	165378	27183	1059092	45089	111198	0	0	8022	593686	0	0
2024-07-21 13:47:47			0	36610	0	0	0	30083	28650	165370	27433	1059029	45088	111197	0	0	8023	593564	0	0
2024-07-21 13:48:47			0	36608	0	0	0	30101	28660	165362	27455	1059083	45079	111204	0	0	8022	593611	0	0
2024-07-21 13:49:47			0	36610	0	0	0	30093	28660	165354	27498	1059164	45079	111201	0	0	8022	593530	0	0
2024-07-21 13:50:47			0	36614	0	0	0	30072	28670	165302	27131	1059119	45090	111193	0	0	8023	593333	0	0
2024-07-21 13:51:47			0	36625	0	0	0	30075	28670	165350	27138	1059146	45079	111194	0	0	8024	592886	0	0
2024-07-21 13:52:47			0	36604	0	0	0	30106	28680	165374	27324	1059182	45080	111206	0	0	8022	593705	0	0
2024-07-21 13:53:47			0	36601	0	0	0	30106	28680	165270	27319	1059290	45102	111206	0	0	8022	593827	0	0
2024-07-21 13:54:47			0	36618	0	0	0	30106	28680	165302	27213	1059263	45102	111206	0	0	8023	593136	0	0
2024-07-21 13:55:47			0	36614	0	0	0	30116	28680	165242	27457	1059290	45091	111210	0	0	8022	593299	0	0
2024-07-21 13:56:47			0	36610	0	0	0	30119	28700	165290	27336	1059325	45093	111211	0	0	8022	593392	0	0
2024-07-21 13:57:47			0	36591	0	0	0	30142	28700	165425	27350	1059361	45083	111220	0	0	8021	594165	0	0
2024-07-21 13:58:47			0	36617	0	0	0	30142	28720	165318	27246	1059388	45106	111220	0	0	8022	593039	0	0
2024-07-21 13:59:47			0	36630	0	0	0	30106	28720	165134	27364	1059334	45095	111206	0	0	8024	592511	0	0
2024-07-21 14:00:47			0	36645	0	0	0	30098	28730	165054	27296	1059352	45084	111203	0	0	8025	591868	0	0
2024-07-21 14:01:47			0	36638	0	0	0	30116	28720	165058	27450	1059370	45107	111210	0	0	8024	592186	0	0
2024-07-21 14:02:47			0	36639	0	0	0	30114	28720	165162	27486	1059424	45096	111209	0	0	8024	592146	0	0
2024-07-21 14:03:47			0	36651	0	0	0	30103	28720	165090	27575	1059424	45084	111205	0	0	8025	591659	0	0
2024-07-21 14:04:47			0	36642	0	0	0	30096	28730	165182	27260	1059414	45085	111202	0	0	8025	591990	0	0
2024-07-21 14:05:47			0	36608	0	0	0	30116	28730	165170	27315	1059387	45085	111210	0	0	8022	593371	0	0
2024-07-21 14:06:47			0	36601	0	0	0	30096	28730	165290	27338	1059325	45084	111202	0	0	8022	593655	0	0
2024-07-21 14:07:47			0	36605	0	0	0	30119	28730	165198	27194	1059406	45074	111211	0	0	8022	593493	0	0
2024-07-21 14:08:47			0	36596	0	0	0	30098	28730	165345	27123	1059406	45084	111203	0	0	8022	593859	0	0
2024-07-21 14:09:47			0	36586	0	0	0	30101	28730	165405	27019	1059379	45074	111204	0	0	8021	594265	0	0
2024-07-21 14:10:47			0	36574	0	0	0	30111	28730	165493	27249	1059325	45084	111208	0	0	8020	594754	0	0
2024-07-21 14:11:47			0	36568	0	0	0	30109	28730	165593	26987	1059414	45085	111207	0	0	8020	594998	0	0
2024-07-21 14:12:47			0	36571	0	0	0	30109	28730	165493	27119	1059432	45096	111207	0	0	8020	594876	0	0
2024-07-21 14:13:47			0	36549	0	0	0	30122	28730	165593	27381	1059432	45084	111212	0	0	8019	595772	0	0
2024-07-21 14:14:47			0	36550	0	0	0	30116	28730	165749	27242	1059441	45075	111210	0	0	8019	595732	0	0
2024-07-21 14:15:47			0	36546	0	0	0	30116	28740	165585	27282	1059432	45076	111210	0	0	8019	595860	0	0
2024-07-21 14:16:47			0	36545	0	0	0	30116	28730	165577	27220	1059441	45075	111210	0	0	8018	595936	0	0
2024-07-21 14:17:47			0	36568	0	0	0	30124	28730	165513	27057	1059414	45085	111213	0	0	8020	594998	0	0
2024-07-21 14:18:47			0	36564	0	0	0	30116	28740	165433	27384	1059432	45098	111210	0	0	8020	595127	0	0
2024-07-21 14:19:47			0	36552	0	0	0	30119	28730	165453	26850	1059441	45085	111211	0	0	8019	595650	0	0
2024-07-21 14:20:47			0	36553	0	0	0	30116	28740	165549	27206	1059396	45085	111210	0	0	8019	595575	0	0
2024-07-21 14:21:47			0	36568	0	0	0	30119	28740	165549	27177	1059423	45085	111211	0	0	8020	594964	0	0
2024-07-21 14:22:47			0	36589	0	0	0	30124	28740	165417	27190	1059477	45085	111213	0	0	8021	594109	0	0
2024-07-21 14:23:47			0	36573	0	0	0	30140	28740	165369	27306	1059531	45085	111219	0	0	8020	594760	0	0
2024-07-21 14:24:47			0	36603	0	0	0	30137	28740	165258	26948	1059513	45086	111218	0	0	8022	593539	0	0
2024-07-21 14:25:47			0	36610	0	0	0	30150	28750	165326	27296	1059522	45086	111223	0	0	8022	593221	0	0
2024-07-21 14:26:47			0	36595	0	0	0	30166	28750	165234	27140	1059531	45087	111229	0	0	8021	593830	0	0
2024-07-21 14:27:47			0	36609	0	0	0	30174	28760	165282	27320	1059675	45100	111232	0	0	8021	593227	0	0
2024-07-21 14:28:47			0	36620	0	0	0	30192	28760	165186	26861	1059683	45078	111239	0	0	8022	592780	0	0
2024-07-21 14:29:47			0	36627	0	0	0	30197	28770	165174	26998	1059773	45100	111241	0	0	8022	592461	0	0
2024-07-21 14:30:47			0	36646	0	0	0	30179	28780	165082	27346	1059764	45090	111234	0	0	8024	591656	0	0
2024-07-21 14:31:47			0	36657	0	0	0	30189	28780	165054	27378	1059692	45113	111238	0	0	8024	591210	0	0
2024-07-21 14:32:47			0	36646	0	0	0	30205	28780	165022	27254	1059684	45090	111244	0	0	8023	591656	0	0
2024-07-21 14:33:47			0	36690	0	0	0	30205	28780	165006	27242	1059827	45101	111244	0	0	8026	589873	0	0
2024-07-21 14:34:47			0	36683	0	0	0	30205	28780	165046	27130	1059800	45113	111244	0	0	8025	590156	0	0
2024-07-21 14:35:47			0	36686	0	0	0	30197	28800	164950	27180	1059854	45092	111241	0	0	8026	589966	0	0
2024-07-21 14:36:47			0	36676	0	0	0	30192	28810	164870	27121	1059818	45093	111239	0	0	8025	590337	0	0
2024-07-21 14:37:47			0	36677	0	0	0	30189	28800	164894	27137	1059782	45103	111238	0	0	8025	590331	0	0
2024-07-21 14:38:47			0	36686	0	0	0	30210	28800	164886	27156	1059863	45103	111246	0	0	8026	589966	0	0
2024-07-21 14:39:47			0	36708	0	0	0	30215	28800	164854	27201	1059863	45081	111248	0	0	8027	589076	0	0
2024-07-21 14:40:47			0	36732	0	0	0	30228	28810	164654	27331	1060007	45104	111253	0	0	8028	588072	0	0
2024-07-21 14:41:47			0	36730	0	0	0	30233	28820	164690	27246	1060033	45095	111255	0	0	8028	588118	0	0
2024-07-21 14:42:47			0	36729	0	0	0	30238	28820	164738	26923	1060051	45094	111257	0	0	8028	588159	0	0
2024-07-21 14:43:47			0	36758	0	0	0	30249	28830	164630	27098	1060069	45118	111261	0	0	8029	586954	0	0
2024-07-21 14:44:47			0	36757	0	0	0	30251	28830	164550	27204	1060078	45095	111262	0	0	8029	586994	0	0
2024-07-21 14:45:47			0	36756	0	0	0	30254	28840	164446	27447	1060141	45096	111263	0	0	8029	587001	0	0
2024-07-21 14:46:47			0	36795	0	0	0	30259	28840	164390	27142	1060123	45120	111265	0	0	8031	585429	0	0
2024-07-21 14:47:47			0	36774	0	0	0	30290	28830	164338	27211	1060132	45095	111277	0	0	8030	586309	0	0
2024-07-21 14:48:47			0	36767	0	0	0	30309	28850	164350	27260	1060249	45108	111284	0	0	8029	586523	0	0
2024-07-21 14:49:47			0	36789	0	0	0	30311	28860	164422	27263	1060311	45098	111285	0	0	8030	585602	0	0
2024-07-21 14:50:47			0	36796	0	0	0	30311	28870	164394	27104	1060392	45123	111285	0	0	8031	585287	0	0
2024-07-21 14:51:47			0	36815	0	0	0	30319	28880	164310	27277	1060356	45112	111288	0	0	8032	584488	0	0
2024-07-21 14:52:47			0	36803	0	0	0	30316	28890	164386	27211	1060446	45135	111287	0	0	8031	584937	0	0
2024-07-21 14:53:47			0	36792	0	0	0	30361	28890	164354	27261	1060536	45125	111304	0	0	8030	585380	0	0
2024-07-21 14:54:47			0	36810	0	0	0	30350	28910	164274	27234	1060572	45115	111300	0	0	8031	584587	0	0
2024-07-21 14:55:47			0	36826	0	0	0	30361	28920	164238	27201	1060644	45126	111304	0	0	8032	583910	0	0
2024-07-21 14:56:47			0	36820	0	0	0	30420	28930	164206	26922	1060706	45117	111327	0	0	8031	584118	0	0
2024-07-21 14:57:47			0	36832	0	0	0	30477	28950	164182	27043	1060859	45142	111349	0	0	8030	583568	0	0
2024-07-21 14:58:47			0	36871	0	0	0	30459	28970	164058	26958	1060904	45142	111342	0	0	8033	581935	0	0
2024-07-21 14:59:47			0	36928	0	0	0	30418	28980	163982	27010	1060930	45110	111326	0	0	8037	579618	0	0
2024-07-21 15:00:47			0	36973	0	0	0	30405	28990	163686	27069	1060948	45123	111321	0	0	8040	577787	0	0
2024-07-21 15:01:47			0	36998	0	0	0	30368	28980	163574	26916	1060823	45110	111307	0	0	8042	576824	0	0
2024-07-21 15:02:47			0	36998	0	0	0	30348	28980	163590	26791	1060733	45099	111299	0	0	8042	576824	0	0
2024-07-21 15:03:47			0	36993	0	0	0	30332	28980	163378	27097	1060733	45099	111293	0	0	8042	577023	0	0
2024-07-21 15:04:47			0	36983	0	0	0	30345	28970	163514	26908	1060661	45108	111298	0	0	8042	577455	0	0
2024-07-21 15:05:47			0	36965	0	0	0	30366	28980	163554	26894	1060733	45110	111306	0	0	8040	578140	0	0
2024-07-21 15:06:47			0	36936	0	0	0	30379	28970	163670	26979	1060724	45109	111311	0	0	8038	579332	0	0
2024-07-21 15:07:47			0	36915	0	0	0	30366	28970	163750	26970	1060769	45108	111306	0	0	8037	580172	0	0
2024-07-21 15:08:47			0	36910	0	0	0	30361	28980	163634	26885	1060733	45099	111304	0	0	8037	580339	0	0
2024-07-21 15:09:47			0	36918	0	0	0	30397	28970	163714	26798	1060661	45120	111318	0	0	8037	580052	0	0
2024-07-21 15:10:47			0	36905	0	0	0	30415	28970	163814	26994	1060742	45108	111325	0	0	8036	580572	0	0
2024-07-21 15:11:47			0	36926	0	0	0	30412	28980	163798	26934	1060850	45122	111324	0	0	8037	579698	0	0
2024-07-21 15:12:47			0	36915	0	0	0	30412	28980	163806	26994	1060850	45122	111324	0	0	8037	580138	0	0
2024-07-21 15:13:47			0	36942	0	0	0	30412	28990	163662	27293	1060858	45122	111324	0	0	8038	579025	0	0
2024-07-21 15:14:47			0	36963	0	0	0	30431	28980	163686	27173	1060876	45099	111331	0	0	8039	578220	0	0
2024-07-21 15:15:47			0	36966	0	0	0	30462	28990	163530	26982	1060975	45123	111343	0	0	8039	578067	0	0
2024-07-21 15:16:47			0	36913	0	0	0	30436	29010	163722	27284	1061065	45113	111333	0	0	8036	580118	0	0
2024-07-21 15:17:47			0	36876	0	0	0	30410	29010	163850	27085	1061065	45113	111323	0	0	8034	581599	0	0
2024-07-21 15:18:47			0	36869	0	0	0	30371	29010	163962	26786	1060957	45102	111308	0	0	8035	581880	0	0
2024-07-21 15:19:47			0	36838	0	0	0	30373	29010	164102	27144	1060894	45112	111309	0	0	8033	583124	0	0
2024-07-21 15:20:47			0	36817	0	0	0	30379	29000	164090	26975	1060885	45101	111311	0	0	8031	584001	0	0
2024-07-21 15:21:47			0	36823	0	0	0	30353	29000	164142	27164	1060831	45089	111301	0	0	8032	583760	0	0
2024-07-21 15:22:47			0	36789	0	0	0	30373	29000	164234	27163	1060804	45124	111309	0	0	8030	585127	0	0
2024-07-21 15:23:47			0	36795	0	0	0	30376	28980	164298	27114	1060742	45099	111310	0	0	8030	584954	0	0
2024-07-21 15:24:47			0	36797	0	0	0	30361	28990	164270	27171	1060840	45111	111304	0	0	8030	584839	0	0
2024-07-21 15:25:47			0	36796	0	0	0	30386	28990	164274	27100	1060724	45110	111314	0	0	8030	584879	0	0
2024-07-21 15:26:47			0	36775	0	0	0	30386	28990	164358	27204	1060831	45110	111314	0	0	8029	585725	0	0
2024-07-21 15:27:47			0	36773	0	0	0	30392	28990	164302	26982	1060894	45111	111316	0	0	8029	585805	0	0
2024-07-21 15:28:47			0	36784	0	0	0	30386	28990	164390	27300	1060831	45110	111314	0	0	8029	585362	0	0
2024-07-21 15:29:47			0	36774	0	0	0	30379	28980	164326	27253	1060850	45099	111311	0	0	8029	585799	0	0
2024-07-21 15:30:47			0	36777	0	0	0	30381	28990	164338	27313	1060867	45123	111312	0	0	8029	585644	0	0
2024-07-21 15:31:47			0	36758	0	0	0	30348	28990	164466	27114	1060778	45122	111299	0	0	8028	586410	0	0
2024-07-21 15:32:47			0	36758	0	0	0	30350	28980	164486	27020	1060742	45099	111300	0	0	8028	586444	0	0
2024-07-21 15:33:47			0	36747	0	0	0	30342	28970	164386	27128	1060724	45121	111297	0	0	8028	586921	0	0
2024-07-21 15:34:47			0	36745	0	0	0	30358	28970	164350	26998	1060715	45097	111303	0	0	8027	587002	0	0
2024-07-21 15:35:47			0	36745	0	0	0	30342	28980	164482	27209	1060733	45122	111297	0	0	8028	586968	0	0
2024-07-21 15:36:47			0	36722	0	0	0	30340	28970	164546	27261	1060751	45121	111296	0	0	8026	587930	0	0
2024-07-21 15:37:47			0	36717	0	0	0	30379	28970	164530	27284	1060823	45108	111311	0	0	8025	588132	0	0
2024-07-21 15:38:47			0	36737	0	0	0	30405	28970	164534	27085	1060886	45121	111321	0	0	8026	587325	0	0
2024-07-21 15:39:47			0	36733	0	0	0	30415	28980	164518	27284	1060850	45122	111325	0	0	8026	587452	0	0
2024-07-21 15:40:47			0	36726	0	0	0	30423	28990	164490	26807	1060921	45133	111328	0	0	8025	587700	0	0
2024-07-21 15:41:47			0	36738	0	0	0	30431	28990	164414	27052	1060975	45123	111331	0	0	8026	587216	0	0
2024-07-21 15:42:47			0	36729	0	0	0	30446	29000	164402	26951	1061020	45134	111337	0	0	8025	587545	0	0
2024-07-21 15:43:47			0	36756	0	0	0	30436	29000	164410	27459	1061020	45124	111333	0	0	8027	586456	0	0
2024-07-21 15:44:47			0	36752	0	0	0	30431	29010	164346	27232	1061065	45125	111331	0	0	8027	586584	0	0
2024-07-21 15:45:47			0	36742	0	0	0	30428	29020	164374	27258	1061101	45125	111330	0	0	8026	586953	0	0
2024-07-21 15:46:47			0	36752	0	0	0	30425	29020	164310	27119	1061083	45126	111329	0	0	8027	586549	0	0
2024-07-21 15:47:47			0	36766	0	0	0	30431	29020	164386	27041	1061110	45137	111331	0	0	8028	585985	0	0
2024-07-21 15:48:47			0	36765	0	0	0	30431	29030	164298	27197	1061128	45126	111331	0	0	8028	585992	0	0
2024-07-21 15:49:47			0	36753	0	0	0	30436	29030	164362	27060	1061146	45137	111333	0	0	8027	586475	0	0
2024-07-21 15:50:47			0	36762	0	0	0	30438	29030	164394	27185	1061146	45115	111334	0	0	8027	586112	0	0
2024-07-21 15:51:47			0	36769	0	0	0	30444	29030	164354	27352	1061128	45126	111336	0	0	8028	585830	0	0
2024-07-21 15:52:47			0	36772	0	0	0	30454	29040	164290	27085	1061191	45127	111340	0	0	8028	585676	0	0
2024-07-21 15:53:47			0	36781	0	0	0	30470	29040	164326	27095	1061173	45128	111346	0	0	8028	585313	0	0
2024-07-21 15:54:47			0	36783	0	0	0	30490	29040	164310	27351	1061226	45139	111354	0	0	8028	585233	0	0
2024-07-21 15:55:47			0	36814	0	0	0	30503	29050	164178	27364	1061406	45128	111359	0	0	8029	583952	0	0
2024-07-21 15:56:47			0	36812	0	0	0	30509	29070	164106	27147	1061325	45141	111361	0	0	8029	583965	0	0
2024-07-21 15:57:47			0	36810	0	0	0	30503	29090	164002	27053	1061442	45144	111359	0	0	8029	583977	0	0
2024-07-21 15:58:47			0	36818	0	0	0	30503	29080	163954	26776	1061451	45142	111359	0	0	8030	583690	0	0
2024-07-21 15:59:47			0	36842	0	0	0	30498	29090	163974	27315	1061469	45122	111357	0	0	8031	582692	0	0
2024-07-21 16:00:47			0	36851	0	0	0	30501	29090	164058	27376	1061469	45132	111358	0	0	8032	582331	0	0
2024-07-21 16:01:47			0	36862	0	0	0	30493	29080	163914	27222	1061433	45131	111355	0	0	8033	581924	0	0
2024-07-21 16:02:47			0	36841	0	0	0	30485	29090	163990	27237	1061478	45122	111352	0	0	8031	582733	0	0
2024-07-21 16:03:47			0	36853	0	0	0	30483	29090	164038	27345	1061504	45132	111351	0	0	8032	582251	0	0
2024-07-21 16:04:47			0	36825	0	0	0	30472	29080	164030	27310	1061433	45131	111347	0	0	8031	583409	0	0
2024-07-21 16:05:47			0	36819	0	0	0	30472	29090	164038	26998	1061478	45111	111347	0	0	8030	583616	0	0
2024-07-21 16:06:47			0	36817	0	0	0	30480	29090	163994	27033	1061469	45132	111350	0	0	8030	583696	0	0
2024-07-21 16:07:47			0	36829	0	0	0	30490	29090	164030	27248	1061478	45122	111354	0	0	8031	583214	0	0
2024-07-21 16:08:47			0	36813	0	0	0	30519	29100	164018	27216	1061549	45133	111365	0	0	8029	583823	0	0
2024-07-21 16:09:47			0	36838	0	0	0	30605	29110	164034	27203	1061720	45157	111398	0	0	8029	582785	0	0
2024-07-21 16:10:47			0	36870	0	0	0	30584	29120	163778	27102	1061828	45169	111390	0	0	8032	581468	0	0
2024-07-21 16:11:47			0	36920	0	0	0	30548	29130	163586	27268	1061819	45159	111376	0	0	8035	579434	0	0
2024-07-21 16:12:47			0	36926	0	0	0	30555	29150	163526	27003	1061801	45138	111379	0	0	8036	579127	0	0
2024-07-21 16:13:47			0	36922	0	0	0	30553	29150	163666	27218	1061792	45127	111378	0	0	8035	579286	0	0
2024-07-21 16:14:47			0	36942	0	0	0	30558	29150	163570	26981	1061774	45138	111380	0	0	8036	578488	0	0
2024-07-21 16:15:47			0	36935	0	0	0	30558	29150	163574	27244	1061828	45127	111380	0	0	8036	578767	0	0
2024-07-21 16:16:47			0	36928	0	0	0	30581	29150	163510	27326	1061828	45150	111389	0	0	8035	579047	0	0
2024-07-21 16:17:47			0	36927	0	0	0	30586	29160	163410	26996	1061810	45139	111391	0	0	8035	579053	0	0
2024-07-21 16:18:47			0	36958	0	0	0	30581	29150	163426	27227	1061963	45138	111389	0	0	8037	577849	0	0
2024-07-21 16:19:47			0	36962	0	0	0	30571	29180	163326	27027	1061953	45141	111385	0	0	8038	577589	0	0
2024-07-21 16:20:47			0	36967	0	0	0	30550	29180	163250	27327	1061953	45141	111377	0	0	8038	577390	0	0
2024-07-21 16:21:47			0	36964	0	0	0	30540	29170	163302	27036	1061863	45153	111373	0	0	8038	577543	0	0
2024-07-21 16:22:47			0	36960	0	0	0	30529	29180	163262	27339	1061872	45141	111369	0	0	8038	577669	0	0
2024-07-21 16:23:47			0	36960	0	0	0	30529	29170	163478	27433	1061863	45130	111369	0	0	8038	577702	0	0
2024-07-21 16:24:47			0	36960	0	0	0	30524	29170	163394	27178	1061890	45141	111367	0	0	8038	577702	0	0
2024-07-21 16:25:47			0	36939	0	0	0	30545	29160	163434	27317	1061792	45128	111375	0	0	8037	578574	0	0
2024-07-21 16:26:47			0	36943	0	0	0	30548	29170	163450	27235	1061854	45129	111376	0	0	8037	578381	0	0
2024-07-21 16:27:47			0	36937	0	0	0	30561	29170	163410	27201	1061863	45119	111381	0	0	8036	578620	0	0
2024-07-21 16:28:47			0	36948	0	0	0	30571	29180	163478	27400	1061989	45141	111385	0	0	8037	578147	0	0
2024-07-21 16:29:47			0	36946	0	0	0	30566	29170	163470	26975	1061881	45129	111383	0	0	8037	578261	0	0
2024-07-21 16:30:47			0	36967	0	0	0	30574	29170	163458	27192	1061971	45141	111386	0	0	8038	577423	0	0
2024-07-21 16:31:47			0	36954	0	0	0	30576	29180	163410	27126	1062034	45141	111387	0	0	8037	577908	0	0
2024-07-21 16:32:47			0	36962	0	0	0	30576	29180	163350	27045	1061989	45141	111387	0	0	8037	577589	0	0
2024-07-21 16:33:47			0	36964	0	0	0	30584	29190	163210	27255	1061998	45142	111390	0	0	8037	577476	0	0
2024-07-21 16:34:47			0	36976	0	0	0	30602	29200	163294	27294	1062079	45132	111397	0	0	8038	576964	0	0
2024-07-21 16:35:47			0	36977	0	0	0	30594	29190	163202	27216	1062034	45143	111394	0	0	8038	576957	0	0
2024-07-21 16:36:47			0	36978	0	0	0	30589	29190	163190	27187	1062061	45143	111392	0	0	8038	576918	0	0
2024-07-21 16:37:47			0	36990	0	0	0	30586	29190	163294	27244	1062142	45132	111391	0	0	8039	576439	0	0
2024-07-21 16:38:47			0	36982	0	0	0	30602	29200	163250	27008	1062043	45132	111397	0	0	8038	576725	0	0
2024-07-21 16:39:47			0	36986	0	0	0	30605	29200	163154	27059	1062133	45132	111398	0	0	8038	576565	0	0
2024-07-21 16:40:47			0	36977	0	0	0	30597	29200	163278	27076	1062160	45132	111395	0	0	8038	576924	0	0
2024-07-21 16:41:47			0	36991	0	0	0	30558	29200	163074	27104	1062133	45154	111380	0	0	8040	576366	0	0
2024-07-21 16:42:47			0	36982	0	0	0	30571	29200	163130	27145	1062025	45132	111385	0	0	8039	576725	0	0
2024-07-21 16:43:47			0	36989	0	0	0	30581	29200	163238	26941	1062016	45143	111389	0	0	8039	576446	0	0
2024-07-21 16:44:47			0	36985	0	0	0	30594	29200	163294	26856	1062016	45121	111394	0	0	8039	576605	0	0
2024-07-21 16:45:47			0	36976	0	0	0	30644	29200	163154	27227	1062151	45143	111413	0	0	8037	576964	0	0
2024-07-21 16:46:47			0	36997	0	0	0	30618	29210	163122	26955	1062258	45145	111403	0	0	8039	576094	0	0
2024-07-21 16:47:47			0	37031	0	0	0	30597	29220	163054	27208	1062249	45157	111395	0	0	8041	574708	0	0
2024-07-21 16:48:47			0	37019	0	0	0	30625	29220	163070	27053	1062195	45134	111406	0	0	8040	575185	0	0
2024-07-21 16:49:47			0	37014	0	0	0	30589	29210	163054	27064	1062115	45122	111392	0	0	8040	575417	0	0
2024-07-21 16:50:47			0	37019	0	0	0	30581	29220	162982	27208	1062186	45123	111389	0	0	8041	575185	0	0
2024-07-21 16:51:47			0	37041	0	0	0	30594	29210	162998	27284	1062088	45122	111394	0	0	8042	574344	0	0
2024-07-21 16:52:47			0	37004	0	0	0	30631	29210	163022	27291	1062142	45122	111408	0	0	8039	575815	0	0
2024-07-21 16:53:47			0	37019	0	0	0	30649	29210	163018	26937	1062196	45133	111415	0	0	8040	575218	0	0
2024-07-21 16:54:47			0	37031	0	0	0	30620	29230	162974	26762	1062231	45146	111404	0	0	8041	574675	0	0
2024-07-21 16:55:47			0	37030	0	0	0	30631	29230	162998	27215	1062240	45158	111408	0	0	8041	574714	0	0
2024-07-21 16:56:47			0	37040	0	0	0	30628	29220	163002	26765	1062195	45157	111407	0	0	8041	574350	0	0
2024-07-21 16:57:47			0	37027	0	0	0	30618	29220	162930	26998	1062222	45146	111403	0	0	8041	574867	0	0
2024-07-21 16:58:47			0	37031	0	0	0	30615	29230	162910	27258	1062204	45134	111402	0	0	8041	574675	0	0
2024-07-21 16:59:47			0	37039	0	0	0	30592	29230	162970	27303	1062204	45146	111393	0	0	8042	574357	0	0
2024-07-21 17:00:47			0	37018	0	0	0	30594	29230	163054	27274	1062204	45146	111394	0	0	8041	575191	0	0
2024-07-21 17:01:47			0	37008	0	0	0	30586	29230	163022	27142	1062213	45147	111391	0	0	8040	575589	0	0
2024-07-21 17:02:47			0	37024	0	0	0	30571	29230	163054	27163	1062231	45146	111385	0	0	8041	574953	0	0
2024-07-21 17:03:47			0	37012	0	0	0	30563	29230	163034	27315	1062150	45134	111382	0	0	8041	575430	0	0
2024-07-21 17:04:47			0	36996	0	0	0	30553	29220	163078	27234	1062105	45112	111378	0	0	8040	576100	0	0
2024-07-21 17:05:47			0	36980	0	0	0	30566	29220	163218	26963	1062078	45123	111383	0	0	8039	576737	0	0
2024-07-21 17:06:47			0	36969	0	0	0	30581	29210	163270	27357	1062124	45133	111389	0	0	8038	577209	0	0
2024-07-21 17:07:47			0	36976	0	0	0	30589	29210	163306	27178	1062150	45145	111392	0	0	8038	576930	0	0
2024-07-21 17:08:47			0	36975	0	0	0	30589	29220	163242	26925	1062168	45157	111392	0	0	8038	576937	0	0
2024-07-21 17:09:47			0	36981	0	0	0	30586	29210	163378	27215	1062150	45133	111391	0	0	8039	576731	0	0
2024-07-21 17:10:47			0	36972	0	0	0	30586	29220	163158	27377	1062159	45133	111391	0	0	8038	577056	0	0
2024-07-21 17:11:47			0	36983	0	0	0	30586	29210	163186	27118	1062204	45123	111391	0	0	8039	576651	0	0
2024-07-21 17:12:47			0	36989	0	0	0	30586	29210	163166	27074	1062177	45123	111391	0	0	8039	576412	0	0
2024-07-21 17:13:47			0	36973	0	0	0	30597	29210	163154	27029	1062177	45133	111395	0	0	8038	577050	0	0
2024-07-21 17:14:47			0	36991	0	0	0	30602	29210	163306	26972	1062150	45133	111397	0	0	8039	576333	0	0
2024-07-21 17:15:47			0	36966	0	0	0	30592	29220	163230	27145	1062132	45133	111393	0	0	8038	577295	0	0
2024-07-21 17:16:47			0	36978	0	0	0	30563	29220	163274	27126	1062078	45145	111382	0	0	8039	576817	0	0
2024-07-21 17:17:47			0	36983	0	0	0	30589	29210	163294	27274	1062124	45145	111392	0	0	8039	576651	0	0
2024-07-21 17:18:47			0	36967	0	0	0	30612	29200	163258	27424	1062205	45143	111401	0	0	8037	577322	0	0
2024-07-21 17:19:47			0	36964	0	0	0	30607	29210	163306	27123	1062196	45133	111399	0	0	8037	577408	0	0
2024-07-21 17:20:47			0	36976	0	0	0	30589	29210	163242	27209	1062177	45156	111392	0	0	8038	576930	0	0
2024-07-21 17:21:47			0	36989	0	0	0	30599	29220	163142	26948	1062213	45145	111396	0	0	8039	576379	0	0
2024-07-21 17:22:47			0	36995	0	0	0	30620	29220	163178	26963	1062222	45146	111404	0	0	8039	576140	0	0
2024-07-21 17:23:47			0	36998	0	0	0	30623	29220	163250	26913	1062249	45157	111405	0	0	8039	576020	0	0
2024-07-21 17:24:47			0	36997	0	0	0	30633	29230	163162	27185	1062285	45146	111409	0	0	8039	576027	0	0
2024-07-21 17:25:47			0	36986	0	0	0	30646	29240	163046	27204	1062357	45158	111414	0	0	8038	576431	0	0
2024-07-21 17:26:47			0	37012	0	0	0	30649	29250	163014	27393	1062348	45148	111415	0	0	8039	575363	0	0
2024-07-21 17:27:47			0	37038	0	0	0	30625	29240	162966	27164	1062411	45125	111406	0	0	8041	574363	0	0
2024-07-21 17:28:47			0	37065	0	0	0	30636	29250	162898	27012	1062321	45159	111410	0	0	8043	573258	0	0
2024-07-21 17:29:47			0	37067	0	0	0	30644	29250	162762	27196	1062348	45148	111413	0	0	8043	573178	0	0
2024-07-21 17:30:47			0	37079	0	0	0	30631	29250	162830	27104	1062375	45136	111408	0	0	8044	572703	0	0
2024-07-21 17:31:47			0	37076	0	0	0	30623	29250	162786	27088	1062330	45137	111405	0	0	8044	572821	0	0
2024-07-21 17:32:47			0	37083	0	0	0	30620	29240	162666	27107	1062339	45125	111404	0	0	8044	572577	0	0
2024-07-21 17:33:47			0	37102	0	0	0	30589	29250	162698	27190	1062321	45136	111392	0	0	8046	571791	0	0
2024-07-21 17:34:47			0	37091	0	0	0	30612	29240	162730	27339	1062285	45148	111401	0	0	8045	572260	0	0
2024-07-21 17:35:47			0	37080	0	0	0	30605	29240	162798	27268	1062231	45136	111398	0	0	8044	572696	0	0
2024-07-21 17:36:47			0	37070	0	0	0	30618	29230	162806	27119	1062240	45147	111403	0	0	8043	573126	0	0
2024-07-21 17:37:47			0	37071	0	0	0	30625	29230	162894	26797	1062231	45134	111406	0	0	8043	573086	0	0
2024-07-21 17:38:47			0	37051	0	0	0	30615	29230	162898	27071	1062213	45147	111402	0	0	8042	573880	0	0
2024-07-21 17:39:47			0	37054	0	0	0	30602	29230	162794	26906	1062231	45134	111397	0	0	8043	573761	0	0
2024-07-21 17:40:47			0	37039	0	0	0	30633	29240	162894	26826	1062276	45158	111409	0	0	8041	574323	0	0
2024-07-21 17:41:47			0	37056	0	0	0	30636	29240	162886	27059	1062312	45159	111410	0	0	8042	573648	0	0
2024-07-21 17:42:47			0	37038	0	0	0	30644	29230	162870	27244	1062339	45157	111413	0	0	8041	574396	0	0
2024-07-21 17:43:47			0	37059	0	0	0	30636	29230	162894	27135	1062294	45147	111410	0	0	8042	573563	0	0
2024-07-21 17:44:47			0	37047	0	0	0	30620	29240	162926	27284	1062285	45159	111404	0	0	8042	574006	0	0
2024-07-21 17:45:47			0	37039	0	0	0	30631	29240	162842	27123	1062276	45135	111408	0	0	8041	574323	0	0
2024-07-21 17:46:47			0	37061	0	0	0	30633	29240	162902	27144	1062330	45147	111409	0	0	8043	573450	0	0
2024-07-21 17:47:47			0	37028	0	0	0	30646	29230	162906	27019	1062321	45147	111414	0	0	8040	574794	0	0
2024-07-21 17:48:47			0	37032	0	0	0	30636	29240	163022	27144	1062339	45159	111410	0	0	8041	574601	0	0
2024-07-21 17:49:47			0	37041	0	0	0	30649	29240	162906	27128	1062357	45135	111415	0	0	8041	574244	0	0
2024-07-21 17:50:47			0	37064	0	0	0	30644	29240	162906	27045	1062366	45136	111413	0	0	8043	573331	0	0
2024-07-21 17:51:47			0	37084	0	0	0	30641	29250	162810	26682	1062375	45148	111412	0	0	8044	572504	0	0
2024-07-21 17:52:47			0	37068	0	0	0	30641	29250	162866	26967	1062375	45148	111412	0	0	8043	573139	0	0
2024-07-21 17:53:47			0	37067	0	0	0	30636	29250	162794	26951	1062402	45148	111410	0	0	8043	573178	0	0
2024-07-21 17:54:47			0	37043	0	0	0	30636	29240	162802	27119	1062366	45136	111410	0	0	8041	574164	0	0
2024-07-21 17:55:47			0	37057	0	0	0	30633	29250	162878	27109	1062357	45149	111409	0	0	8042	573575	0	0
2024-07-21 17:56:47			0	37048	0	0	0	30649	29250	162858	27152	1062375	45148	111415	0	0	8042	573932	0	0
2024-07-21 17:57:47			0	37061	0	0	0	30646	29250	162822	27123	1062375	45148	111414	0	0	8042	573416	0	0
2024-07-21 17:58:47			0	37072	0	0	0	30649	29250	162798	27511	1062384	45160	111415	0	0	8043	572980	0	0
2024-07-21 17:59:47			0	37098	0	0	0	30638	29250	162714	27291	1062465	45149	111411	0	0	8045	571949	0	0
2024-07-21 18:00:47			0	37088	0	0	0	30659	29250	162702	27066	1062330	45149	111419	0	0	8044	572346	0	0
2024-07-21 18:01:47			0	37099	0	0	0	30664	29260	162790	27549	1062366	45149	111421	0	0	8044	571877	0	0
2024-07-21 18:02:47			0	37086	0	0	0	30667	29260	162606	27225	1062447	45137	111422	0	0	8044	572392	0	0
2024-07-21 18:03:47			0	37088	0	0	0	30657	29250	162586	26878	1062438	45160	111418	0	0	8044	572346	0	0
2024-07-21 18:04:47			0	37092	0	0	0	30657	29260	162610	27175	1062474	45149	111418	0	0	8044	572154	0	0
2024-07-21 18:05:47			0	37100	0	0	0	30641	29260	162670	26901	1062393	45137	111412	0	0	8045	571837	0	0
2024-07-21 18:06:47			0	37102	0	0	0	30644	29270	162626	27367	1062411	45151	111413	0	0	8045	571725	0	0
2024-07-21 18:07:47			0	37104	0	0	0	30644	29270	162614	27388	1062438	45139	111413	0	0	8045	571645	0	0
2024-07-21 18:08:47			0	37112	0	0	0	30644	29250	162558	26911	1062411	45137	111413	0	0	8045	571395	0	0
2024-07-21 18:09:47			0	37105	0	0	0	30638	29250	162630	27253	1062375	45148	111411	0	0	8045	571672	0	0
2024-07-21 18:10:47			0	37104	0	0	0	30646	29270	162574	27024	1062429	45150	111414	0	0	8045	571645	0	0
2024-07-21 18:11:47			0	37086	0	0	0	30638	29260	162638	27034	1062366	45149	111411	0	0	8044	572392	0	0
2024-07-21 18:12:47			0	37101	0	0	0	30646	29260	162594	27043	1062447	45149	111414	0	0	8045	571797	0	0
2024-07-21 18:13:47			0	37114	0	0	0	30659	29250	162618	26838	1062411	45149	111419	0	0	8045	571316	0	0
2024-07-21 18:14:47			0	37108	0	0	0	30651	29260	162554	27131	1062420	45149	111416	0	0	8045	571520	0	0
2024-07-21 18:15:47			0	37124	0	0	0	30631	29260	162570	26720	1062366	45137	111408	0	0	8046	570887	0	0
2024-07-21 18:16:47			0	37117	0	0	0	30612	29260	162486	27076	1062339	45149	111401	0	0	8046	571164	0	0
2024-07-21 18:17:47			0	37131	0	0	0	30615	29250	162570	26772	1062348	45136	111402	0	0	8047	570643	0	0
2024-07-21 18:18:47			0	37111	0	0	0	30625	29250	162610	27201	1062330	45149	111406	0	0	8046	571435	0	0
2024-07-21 18:19:47			0	37111	0	0	0	30649	29240	162586	27331	1062339	45148	111415	0	0	8045	571468	0	0
2024-07-21 18:20:47			0	37093	0	0	0	30654	29250	162674	27150	1062330	45149	111417	0	0	8044	572148	0	0
2024-07-21 18:21:47			0	37095	0	0	0	30654	29240	162558	27237	1062393	45148	111417	0	0	8044	572102	0	0
2024-07-21 18:22:47			0	37103	0	0	0	30664	29250	162682	27395	1062411	45160	111421	0	0	8045	571751	0	0
2024-07-21 18:23:47			0	37107	0	0	0	30664	29250	162554	27329	1062438	45149	111421	0	0	8045	571593	0	0
2024-07-21 18:24:47			0	37120	0	0	0	30670	29250	162602	27339	1062411	45171	111423	0	0	8045	571078	0	0
2024-07-21 18:25:47			0	37118	0	0	0	30662	29260	162538	27085	1062420	45160	111420	0	0	8045	571124	0	0
2024-07-21 18:26:47			0	37113	0	0	0	30667	29260	162626	27218	1062420	45160	111422	0	0	8045	571322	0	0
2024-07-21 18:27:47			0	37120	0	0	0	30670	29270	162582	27140	1062483	45138	111423	0	0	8046	571012	0	0
2024-07-21 18:28:47			0	37113	0	0	0	30649	29270	162534	27048	1062429	45161	111415	0	0	8045	571289	0	0
2024-07-21 18:29:47			0	37154	0	0	0	30638	29270	162398	27079	1062384	45151	111411	0	0	8048	569668	0	0
2024-07-21 18:30:47			0	37132	0	0	0	30651	29260	162454	26887	1062420	45149	111416	0	0	8046	570571	0	0
2024-07-21 18:31:47			0	37145	0	0	0	30659	29270	162446	27119	1062375	45161	111419	0	0	8047	570023	0	0
2024-07-21 18:32:47			0	37129	0	0	0	30659	29260	162506	26896	1062366	45160	111419	0	0	8046	570689	0	0
2024-07-21 18:33:47			0	37134	0	0	0	30659	29250	162550	26949	1062465	45137	111419	0	0	8046	570524	0	0
2024-07-21 18:34:47			0	37110	0	0	0	30657	29260	162566	26885	1062447	45149	111418	0	0	8045	571441	0	0
2024-07-21 18:35:47			0	37119	0	0	0	30649	29270	162594	27192	1062429	45150	111415	0	0	8046	571052	0	0
2024-07-21 18:36:47			0	37103	0	0	0	30651	29250	162646	26939	1062438	45137	111416	0	0	8045	571751	0	0
2024-07-21 18:37:47			0	37108	0	0	0	30654	29270	162562	27076	1062402	45150	111417	0	0	8045	571487	0	0
2024-07-21 18:38:47			0	37106	0	0	0	30654	29250	162530	27045	1062465	45149	111417	0	0	8045	571633	0	0
2024-07-21 18:39:47			0	37125	0	0	0	30657	29260	162586	26729	1062420	45160	111418	0	0	8046	570847	0	0
2024-07-21 18:40:47			0	37121	0	0	0	30654	29250	162590	26942	1062438	45137	111417	0	0	8046	571039	0	0
2024-07-21 18:41:47			0	37109	0	0	0	30654	29260	162714	26889	1062474	45137	111417	0	0	8045	571481	0	0
2024-07-21 18:42:47			0	37103	0	0	0	30649	29270	162602	26889	1062411	45151	111415	0	0	8045	571685	0	0
2024-07-21 18:43:47			0	37116	0	0	0	30654	29260	162606	27144	1062420	45137	111417	0	0	8046	571203	0	0
2024-07-21 18:44:47			0	37125	0	0	0	30646	29250	162534	26772	1062438	45171	111414	0	0	8046	570881	0	0
2024-07-21 18:45:47			0	37122	0	0	0	30657	29260	162614	27152	1062393	45149	111418	0	0	8046	570966	0	0
2024-07-21 18:46:47			0	37148	0	0	0	30657	29260	162530	27017	1062420	45149	111418	0	0	8047	569938	0	0
2024-07-21 18:47:47			0	37118	0	0	0	30664	29260	162502	27076	1062420	45160	111421	0	0	8045	571124	0	0
2024-07-21 18:48:47			0	37146	0	0	0	30659	29260	162570	26984	1062447	45160	111419	0	0	8047	570017	0	0
2024-07-21 18:49:47			0	37158	0	0	0	30664	29270	162434	26791	1062456	45161	111421	0	0	8048	569510	0	0
2024-07-21 18:50:47			0	37164	0	0	0	30693	29270	162446	26857	1062456	45172	111432	0	0	8048	569273	0	0
2024-07-21 18:51:47			0	37150	0	0	0	30696	29270	162462	26993	1062510	45172	111433	0	0	8047	569826	0	0
2024-07-21 18:52:47			0	37159	0	0	0	30672	29270	162470	27168	1062546	45162	111424	0	0	8048	569470	0	0
2024-07-21 18:53:47			0	37137	0	0	0	30670	29290	162414	26899	1062528	45175	111423	0	0	8047	570273	0	0
2024-07-21 18:54:47			0	37133	0	0	0	30662	29280	162426	26720	1062564	45163	111420	0	0	8046	570465	0	0
2024-07-21 18:55:47			0	37123	0	0	0	30654	29290	162502	26842	1062492	45174	111417	0	0	8046	570827	0	0
2024-07-21 18:56:47			0	37117	0	0	0	30683	29290	162526	26830	1062600	45152	111428	0	0	8045	571064	0	0
2024-07-21 18:57:47			0	37090	0	0	0	30683	29280	162650	27043	1062537	45163	111428	0	0	8044	572167	0	0
2024-07-21 18:58:47			0	37090	0	0	0	30683	29280	162766	26934	1062582	45162	111428	0	0	8044	572167	0	0
2024-07-21 18:59:47			0	37094	0	0	0	30690	29290	162630	26850	1062573	45185	111431	0	0	8044	571975	0	0
2024-07-21 19:00:47			0	37088	0	0	0	30698	29300	162646	27013	1062644	45164	111434	0	0	8043	572179	0	0
2024-07-21 19:01:47			0	37093	0	0	0	30693	29290	162690	27003	1062581	45164	111432	0	0	8044	572015	0	0
2024-07-21 19:02:47			0	37079	0	0	0	30698	29280	162586	26948	1062618	45163	111434	0	0	8043	572603	0	0
2024-07-21 19:03:47			0	37062	0	0	0	30706	29290	162734	27301	1062581	45164	111437	0	0	8042	573244	0	0
2024-07-21 19:04:47			0	37068	0	0	0	30698	29290	162666	26871	1062653	45163	111434	0	0	8042	573006	0	0
2024-07-21 19:05:47			0	37080	0	0	0	30693	29300	162714	27128	1062599	45176	111432	0	0	8043	572496	0	0
2024-07-21 19:06:47			0	37098	0	0	0	30701	29300	162746	27093	1062644	45153	111435	0	0	8044	571783	0	0
2024-07-21 19:07:47			0	37093	0	0	0	30683	29300	162690	26805	1062653	45176	111428	0	0	8044	571981	0	0
2024-07-21 19:08:47			0	37083	0	0	0	30667	29300	162674	26974	1062671	45153	111422	0	0	8044	572377	0	0
2024-07-21 19:09:47			0	37082	0	0	0	30667	29300	162642	26967	1062536	45164	111422	0	0	8044	572417	0	0
2024-07-21 19:10:47			0	37050	0	0	0	30677	29300	162762	27242	1062563	45164	111426	0	0	8041	573686	0	0
2024-07-21 19:11:47			0	37047	0	0	0	30667	29280	162910	26850	1062564	45152	111422	0	0	8041	573872	0	0
2024-07-21 19:12:47			0	37036	0	0	0	30670	29290	162854	26854	1062581	45153	111423	0	0	8041	574276	0	0
2024-07-21 19:13:47			0	37041	0	0	0	30670	29290	162718	26998	1062546	45163	111423	0	0	8041	574077	0	0
2024-07-21 19:14:47			0	37044	0	0	0	30667	29290	162822	26826	1062573	45163	111422	0	0	8041	573958	0	0
2024-07-21 19:15:47			0	37045	0	0	0	30667	29290	162738	26798	1062546	45152	111422	0	0	8041	573918	0	0
2024-07-21 19:16:47			0	37051	0	0	0	30657	29280	162762	26772	1062447	45139	111418	0	0	8042	573713	0	0
2024-07-21 19:17:47			0	37039	0	0	0	30636	29280	162838	26987	1062447	45151	111410	0	0	8041	574190	0	0
2024-07-21 19:18:47			0	37025	0	0	0	30644	29260	163006	27036	1062393	45149	111413	0	0	8040	574813	0	0
2024-07-21 19:19:47			0	37022	0	0	0	30649	29270	162974	27057	1062456	45161	111415	0	0	8040	574899	0	0
2024-07-21 19:20:47			0	36985	0	0	0	30638	29260	163094	27100	1062420	45171	111411	0	0	8038	576404	0	0
2024-07-21 19:21:47			0	36999	0	0	0	30664	29270	163118	27013	1062456	45161	111421	0	0	8039	575813	0	0
2024-07-21 19:22:47			0	36991	0	0	0	30654	29260	163122	27208	1062474	45171	111417	0	0	8038	576165	0	0
2024-07-21 19:23:47			0	36979	0	0	0	30649	29270	163258	26753	1062519	45162	111415	0	0	8038	576610	0	0
2024-07-21 19:24:47			0	36962	0	0	0	30651	29260	163242	27223	1062447	45171	111416	0	0	8037	577320	0	0
2024-07-21 19:25:47			0	36944	0	0	0	30651	29270	163334	27024	1062429	45172	111416	0	0	8036	578005	0	0
2024-07-21 19:26:47			0	36944	0	0	0	30649	29250	163282	27092	1062411	45160	111415	0	0	8036	578072	0	0
2024-07-21 19:27:47			0	36944	0	0	0	30657	29240	163294	27048	1062384	45135	111418	0	0	8035	578105	0	0
2024-07-21 19:28:47			0	36974	0	0	0	30662	29250	163154	27161	1062456	45159	111420	0	0	8037	576876	0	0
2024-07-21 19:29:47			0	36963	0	0	0	30651	29260	163286	27218	1062474	45160	111416	0	0	8037	577281	0	0
2024-07-21 19:30:47			0	36969	0	0	0	30646	29250	163254	26996	1062438	45160	111414	0	0	8037	577075	0	0
2024-07-21 19:31:47			0	36969	0	0	0	30659	29250	163310	27180	1062438	45160	111419	0	0	8037	577075	0	0
2024-07-21 19:32:47			0	36975	0	0	0	30651	29250	163206	27291	1062384	45149	111416	0	0	8037	576836	0	0
2024-07-21 19:33:47			0	36973	0	0	0	30651	29250	163242	26941	1062411	45160	111416	0	0	8037	576916	0	0
2024-07-21 19:34:47			0	36963	0	0	0	30657	29240	163334	27284	1062420	45159	111418	0	0	8036	577348	0	0
2024-07-21 19:35:47			0	36957	0	0	0	30651	29240	163322	27022	1062393	45159	111416	0	0	8036	577587	0	0
2024-07-21 19:36:47			0	36951	0	0	0	30659	29250	163406	26961	1062402	45170	111419	0	0	8036	577793	0	0
2024-07-21 19:37:47			0	36963	0	0	0	30657	29250	163326	27034	1062429	45136	111418	0	0	8036	577314	0	0
2024-07-21 19:38:47			0	36940	0	0	0	30657	29250	163362	26970	1062402	45159	111418	0	0	8035	578232	0	0
2024-07-21 19:39:47			0	36970	0	0	0	30654	29250	163346	27170	1062411	45149	111417	0	0	8037	577035	0	0
2024-07-21 19:40:47			0	36968	0	0	0	30641	29240	163342	27142	1062339	45170	111412	0	0	8037	577148	0	0
2024-07-21 19:41:47			0	36956	0	0	0	30641	29250	163326	27079	1062411	45160	111412	0	0	8036	577593	0	0
2024-07-21 19:42:47			0	36965	0	0	0	30649	29250	163438	27052	1062438	45160	111415	0	0	8037	577234	0	0
2024-07-21 19:43:47			0	36967	0	0	0	30641	29250	163362	26800	1062384	45171	111412	0	0	8037	577155	0	0
2024-07-21 19:44:47			0	36953	0	0	0	30649	29250	163374	26974	1062429	45159	111415	0	0	8036	577713	0	0
2024-07-21 19:45:47			0	36953	0	0	0	30641	29250	163302	27263	1062384	45171	111412	0	0	8036	577713	0	0
2024-07-21 19:46:47			0	36949	0	0	0	30638	29240	163394	27197	1062411	45158	111411	0	0	8036	577906	0	0
2024-07-21 19:47:47			0	36929	0	0	0	30638	29240	163430	27157	1062393	45159	111411	0	0	8035	578704	0	0
2024-07-21 19:48:47			0	36912	0	0	0	30633	29240	163354	26899	1062384	45158	111409	0	0	8034	579383	0	0
2024-07-21 19:49:47			0	36912	0	0	0	30641	29240	163534	27196	1062384	45158	111412	0	0	8034	579383	0	0
2024-07-21 19:50:47			0	36893	0	0	0	30644	29240	163574	27372	1062357	45169	111413	0	0	8033	580143	0	0
2024-07-21 19:51:47			0	36895	0	0	0	30641	29230	163590	27255	1062393	45168	111412	0	0	8033	580097	0	0
2024-07-21 19:52:47			0	36878	0	0	0	30636	29240	163634	27163	1062393	45159	111410	0	0	8032	580743	0	0
2024-07-21 19:53:47			0	36868	0	0	0	30628	29230	163614	27232	1062348	45147	111407	0	0	8031	581177	0	0
2024-07-21 19:54:47			0	36861	0	0	0	30628	29240	163730	27223	1062339	45170	111407	0	0	8031	581424	0	0
2024-07-21 19:55:47			0	36871	0	0	0	30633	29230	163682	27104	1062348	45169	111409	0	0	8031	581057	0	0
2024-07-21 19:56:47			0	36882	0	0	0	30628	29230	163682	27166	1062267	45158	111407	0	0	8032	580617	0	0
2024-07-21 19:57:47			0	36891	0	0	0	30623	29230	163654	27242	1062339	45146	111405	0	0	8033	580257	0	0
2024-07-21 19:58:47			0	36887	0	0	0	30618	29230	163658	27284	1062267	45158	111403	0	0	8033	580417	0	0
2024-07-21 19:59:47			0	36890	0	0	0	30618	29220	163546	27284	1062267	45156	111403	0	0	8033	580330	0	0
2024-07-21 20:00:47			0	36920	0	0	0	30620	29220	163602	27232	1062249	45146	111404	0	0	8034	579131	0	0
2024-07-21 20:01:47			0	36944	0	0	0	30615	29230	163338	27095	1062258	45168	111402	0	0	8036	578139	0	0
2024-07-21 20:02:47			0	36936	0	0	0	30623	29230	163430	27505	1062312	45157	111405	0	0	8035	578458	0	0
2024-07-21 20:03:47			0	36948	0	0	0	30615	29220	163382	26890	1062240	45156	111402	0	0	8036	578013	0	0
2024-07-21 20:04:47			0	36952	0	0	0	30615	29220	163250	27168	1062276	45146	111402	0	0	8036	577853	0	0
2024-07-21 20:05:47			0	36950	0	0	0	30612	29220	163362	27112	1062240	45156	111401	0	0	8036	577933	0	0
2024-07-21 20:06:47			0	36941	0	0	0	30607	29220	163378	26901	1062249	45157	111399	0	0	8036	578292	0	0
2024-07-21 20:07:47			0	36938	0	0	0	30615	29210	163526	26996	1062177	45167	111402	0	0	8036	578446	0	0
2024-07-21 20:08:47			0	36928	0	0	0	30615	29210	163498	26920	1062204	45178	111402	0	0	8035	578845	0	0
2024-07-21 20:09:47			0	36915	0	0	0	30610	29210	163574	27147	1062204	45156	111400	0	0	8034	579364	0	0
2024-07-21 20:10:47			0	36886	0	0	0	30599	29210	163546	27175	1062204	45156	111396	0	0	8033	580524	0	0
2024-07-21 20:11:47			0	36882	0	0	0	30594	29200	163730	26965	1062160	45154	111394	0	0	8033	580718	0	0
2024-07-21 20:12:47			0	36879	0	0	0	30594	29210	163846	27189	1062196	45177	111394	0	0	8032	580804	0	0
2024-07-21 20:13:47			0	36846	0	0	0	30592	29200	163958	27268	1062187	45154	111393	0	0	8030	582160	0	0
2024-07-21 20:14:47			0	36814	0	0	0	30599	29200	164006	26934	1062205	45154	111396	0	0	8028	583444	0	0
2024-07-21 20:15:47			0	36814	0	0	0	30599	29210	164146	27048	1062196	45166	111396	0	0	8029	583410	0	0
2024-07-21 20:16:47			0	36775	0	0	0	30615	29200	164174	27001	1062232	45154	111402	0	0	8026	585011	0	0
2024-07-21 20:17:47			0	36777	0	0	0	30605	29190	164290	27093	1062160	45142	111398	0	0	8026	584965	0	0
2024-07-21 20:18:47			0	36768	0	0	0	30607	29190	164294	26944	1062196	45143	111399	0	0	8026	585327	0	0
2024-07-21 20:19:47			0	36782	0	0	0	30599	29200	164270	26982	1062124	45166	111396	0	0	8027	584730	0	0
2024-07-21 20:20:47			0	36765	0	0	0	30589	29190	164166	27254	1062133	45175	111392	0	0	8026	585448	0	0
2024-07-21 20:21:47			0	36797	0	0	0	30592	29190	164134	27045	1062115	45166	111393	0	0	8028	584161	0	0
2024-07-21 20:22:47			0	36821	0	0	0	30581	29190	164054	27043	1062088	45166	111389	0	0	8029	583197	0	0
2024-07-21 20:23:47			0	36832	0	0	0	30586	29190	164010	27041	1062106	45142	111391	0	0	8030	582755	0	0
2024-07-21 20:24:47			0	36844	0	0	0	30586	29180	163982	27012	1062070	45164	111391	0	0	8030	582308	0	0
2024-07-21 20:25:47			0	36806	0	0	0	30586	29180	164022	27144	1062097	45153	111391	0	0	8028	583833	0	0
2024-07-21 20:26:47			0	36806	0	0	0	30584	29170	163994	27048	1062079	45164	111390	0	0	8028	583867	0	0
2024-07-21 20:27:47			0	36807	0	0	0	30597	29190	164090	27293	1062106	45175	111395	0	0	8028	583759	0	0
2024-07-21 20:28:47			0	36811	0	0	0	30586	29180	163986	27187	1062124	45153	111391	0	0	8028	583632	0	0
2024-07-21 20:29:47			0	36786	0	0	0	30589	29180	163978	26927	1062097	45153	111392	0	0	8027	584637	0	0
2024-07-21 20:30:47			0	36819	0	0	0	30586	29180	164150	26958	1062088	45174	111391	0	0	8029	583311	0	0
2024-07-21 20:31:47			0	36793	0	0	0	30592	29180	164050	27223	1062151	45164	111393	0	0	8027	584355	0	0
2024-07-21 20:32:47			0	36787	0	0	0	30586	29190	164178	27239	1062115	45166	111391	0	0	8027	584563	0	0
2024-07-21 20:33:47			0	36769	0	0	0	30589	29190	164134	26989	1062142	45166	111392	0	0	8026	585287	0	0
2024-07-21 20:34:47			0	36772	0	0	0	30581	29180	164194	26719	1062097	45174	111389	0	0	8026	585200	0	0
2024-07-21 20:35:47			0	36751	0	0	0	30589	29180	164258	26878	1062097	45153	111392	0	0	8025	586045	0	0
2024-07-21 20:36:47			0	36765	0	0	0	30586	29180	164226	27123	1062097	45174	111391	0	0	8026	585482	0	0
2024-07-21 20:37:47			0	36773	0	0	0	30589	29180	164146	27170	1062070	45174	111392	0	0	8026	585160	0	0
2024-07-21 20:38:47			0	36751	0	0	0	30584	29180	164290	27126	1062124	45164	111390	0	0	8025	586045	0	0
2024-07-21 20:39:47			0	36769	0	0	0	30576	29180	164342	27272	1062088	45174	111387	0	0	8026	585321	0	0
2024-07-21 20:40:47			0	36759	0	0	0	30579	29180	164326	27036	1062097	45164	111388	0	0	8026	585723	0	0
2024-07-21 20:41:47			0	36760	0	0	0	30576	29180	164410	27178	1062061	45186	111387	0	0	8026	585683	0	0
2024-07-21 20:42:47			0	36720	0	0	0	30576	29180	164398	27253	1062097	45153	111387	0	0	8023	587295	0	0
2024-07-21 20:43:47			0	36726	0	0	0	30574	29180	164502	27296	1062070	45164	111386	0	0	8024	587053	0	0
2024-07-21 20:44:47			0	36727	0	0	0	30574	29170	164482	27237	1062079	45164	111386	0	0	8024	587046	0	0
2024-07-21 20:45:47			0	36758	0	0	0	30568	29170	164482	27144	1062070	45163	111384	0	0	8026	585797	0	0
2024-07-21 20:46:47			0	36756	0	0	0	30581	29170	164474	27072	1062016	45152	111389	0	0	8025	585878	0	0
2024-07-21 20:47:47			0	36762	0	0	0	30566	29170	164454	27124	1062070	45163	111383	0	0	8026	585636	0	0
2024-07-21 20:48:47			0	36733	0	0	0	30561	29170	164362	27116	1062025	45174	111381	0	0	8024	586804	0	0
2024-07-21 20:49:47			0	36728	0	0	0	30568	29170	164426	27343	1062016	45152	111384	0	0	8024	587006	0	0
2024-07-21 20:50:47			0	36725	0	0	0	30561	29170	164546	27145	1062016	45140	111381	0	0	8024	587127	0	0
2024-07-21 20:51:47			0	36719	0	0	0	30563	29160	164406	27182	1062007	45162	111382	0	0	8023	587403	0	0
2024-07-21 20:52:47			0	36704	0	0	0	30553	29160	164470	27265	1061971	45162	111378	0	0	8023	588009	0	0
2024-07-21 20:53:47			0	36701	0	0	0	30537	29160	164574	27260	1061980	45151	111372	0	0	8023	588130	0	0
2024-07-21 20:54:47			0	36700	0	0	0	30537	29160	164602	27196	1061899	45162	111372	0	0	8023	588170	0	0
2024-07-21 20:55:47			0	36700	0	0	0	30529	29150	164614	27149	1061936	45150	111369	0	0	8023	588204	0	0
2024-07-21 20:56:47			0	36695	0	0	0	30522	29150	164682	26911	1061963	45150	111366	0	0	8023	588406	0	0
2024-07-21 20:57:47			0	36674	0	0	0	30529	29150	164726	27064	1061873	45161	111369	0	0	8021	589255	0	0
2024-07-21 20:58:47			0	36643	0	0	0	30514	29150	164746	27036	1061909	45161	111363	0	0	8020	590509	0	0
2024-07-21 20:59:47			0	36616	0	0	0	30514	29140	164966	27034	1061782	45149	111363	0	0	8018	591637	0	0
2024-07-21 21:00:47			0	36624	0	0	0	30511	29140	164942	27144	1061828	45159	111362	0	0	8019	591313	0	0
2024-07-21 21:01:47			0	36619	0	0	0	30514	29130	164938	26904	1061792	45159	111363	0	0	8018	591550	0	0
2024-07-21 21:02:47			0	36612	0	0	0	30516	29130	165034	27187	1061819	45148	111364	0	0	8018	591834	0	0
2024-07-21 21:03:47			0	36617	0	0	0	30511	29130	164938	26961	1061792	45159	111362	0	0	8018	591631	0	0
2024-07-21 21:04:47			0	36621	0	0	0	30509	29130	164882	26942	1061756	45148	111361	0	0	8018	591469	0	0
2024-07-21 21:05:47			0	36608	0	0	0	30514	29130	164918	27007	1061810	45148	111363	0	0	8017	591996	0	0
2024-07-21 21:06:47			0	36606	0	0	0	30514	29130	164934	27059	1061765	45159	111363	0	0	8017	592077	0	0
2024-07-21 21:07:47			0	36619	0	0	0	30514	29130	164834	27156	1061783	45148	111363	0	0	8018	591550	0	0
2024-07-21 21:08:47			0	36624	0	0	0	30514	29130	164790	26960	1061756	45170	111363	0	0	8018	591347	0	0
2024-07-21 21:09:47			0	36655	0	0	0	30516	29110	164682	27280	1061729	45157	111364	0	0	8020	590160	0	0
2024-07-21 21:10:47			0	36641	0	0	0	30509	29120	164778	27111	1061819	45157	111361	0	0	8019	590693	0	0
2024-07-21 21:11:47			0	36647	0	0	0	30503	29110	164770	27130	1061675	45157	111359	0	0	8020	590484	0	0
2024-07-21 21:12:47			0	36643	0	0	0	30503	29110	164846	27147	1061702	45157	111359	0	0	8020	590646	0	0
2024-07-21 21:13:47			0	36637	0	0	0	30501	29120	164838	26996	1061747	45147	111358	0	0	8019	590855	0	0
2024-07-21 21:14:47			0	36643	0	0	0	30501	29120	164862	27027	1061738	45157	111358	0	0	8020	590612	0	0
2024-07-21 21:15:47			0	36630	0	0	0	30480	29110	164874	27244	1061702	45168	111350	0	0	8019	591173	0	0
2024-07-21 21:16:47			0	36635	0	0	0	30493	29110	164874	26937	1061666	45157	111355	0	0	8019	590970	0	0
2024-07-21 21:17:47			0	36606	0	0	0	30485	29110	164938	26953	1061621	45157	111352	0	0	8018	592146	0	0
2024-07-21 21:18:47			0	36606	0	0	0	30483	29090	164874	26974	1061639	45166	111351	0	0	8018	592214	0	0
2024-07-21 21:19:47			0	36601	0	0	0	30472	29100	164870	27182	1061648	45166	111347	0	0	8018	592383	0	0
2024-07-21 21:20:47			0	36591	0	0	0	30472	29090	164938	26975	1061550	45155	111347	0	0	8017	592823	0	0
2024-07-21 21:21:47			0	36590	0	0	0	30472	29090	164998	27203	1061585	45166	111347	0	0	8017	592864	0	0
2024-07-21 21:22:47			0	36598	0	0	0	30483	29090	164986	27137	1061576	45166	111351	0	0	8017	592539	0	0
2024-07-21 21:23:47			0	36608	0	0	0	30472	29080	164950	27071	1061595	45154	111347	0	0	8018	592168	0	0
2024-07-21 21:24:47			0	36605	0	0	0	30472	29080	164994	27246	1061541	45154	111347	0	0	8018	592289	0	0
2024-07-21 21:25:47			0	36588	0	0	0	30467	29080	164966	26968	1061586	45165	111345	0	0	8017	592979	0	0
2024-07-21 21:26:47			0	36581	0	0	0	30451	29080	164869	27055	1061478	45165	111339	0	0	8017	593264	0	0
2024-07-21 21:27:47			0	36597	0	0	0	30436	29080	164886	27306	1061559	45165	111333	0	0	8018	592614	0	0
2024-07-21 21:28:47			0	36590	0	0	0	30420	29070	164933	27209	1061433	45152	111327	0	0	8018	592932	0	0
2024-07-21 21:29:47			0	36591	0	0	0	30418	29070	165097	27010	1061433	45141	111326	0	0	8018	592892	0	0
2024-07-21 21:30:47			0	36583	0	0	0	30420	29060	165005	27083	1061424	45164	111327	0	0	8017	593251	0	0
2024-07-21 21:31:47			0	36622	0	0	0	30423	29050	164890	26998	1061352	45150	111328	0	0	8019	591703	0	0
2024-07-21 21:32:47			0	36652	0	0	0	30425	29050	164674	27190	1061379	45150	111329	0	0	8021	590487	0	0
2024-07-21 21:33:47			0	36693	0	0	0	30423	29050	164562	27215	1061406	45162	111328	0	0	8024	588829	0	0
2024-07-21 21:34:47			0	36706	0	0	0	30418	29040	164510	27008	1061388	45150	111326	0	0	8024	588337	0	0
2024-07-21 21:35:47			0	36723	0	0	0	30415	29040	164466	27067	1061361	45162	111325	0	0	8025	587651	0	0
2024-07-21 21:36:47			0	36719	0	0	0	30412	29050	164506	26930	1061289	45150	111324	0	0	8025	587778	0	0
2024-07-21 21:37:47			0	36727	0	0	0	30420	29040	164514	27010	1061352	45149	111327	0	0	8026	587490	0	0
2024-07-21 21:38:47			0	36721	0	0	0	30418	29040	164382	26764	1061352	45161	111326	0	0	8025	587732	0	0
2024-07-21 21:39:47			0	36774	0	0	0	30405	29040	164282	26968	1061280	45150	111321	0	0	8029	585595	0	0
2024-07-21 21:40:47			0	36785	0	0	0	30410	29040	164194	26883	1061325	45171	111323	0	0	8029	585152	0	0
2024-07-21 21:41:47			0	36820	0	0	0	30407	29030	164070	26828	1061263	45149	111322	0	0	8031	583779	0	0
2024-07-21 21:42:47			0	36885	0	0	0	30397	29030	163862	27067	1061254	45160	111318	0	0	8035	581171	0	0
2024-07-21 21:43:47			0	36905	0	0	0	30399	29030	163674	27024	1061290	45160	111319	0	0	8036	580370	0	0
2024-07-21 21:44:47			0	36895	0	0	0	30397	29020	163838	27196	1061155	45159	111318	0	0	8036	580804	0	0
2024-07-21 21:45:47			0	36861	0	0	0	30392	29020	163882	26875	1061137	45137	111316	0	0	8034	582167	0	0
2024-07-21 21:46:47			0	36839	0	0	0	30402	29020	163950	27175	1061244	45160	111320	0	0	8032	583050	0	0
2024-07-21 21:47:47			0	36831	0	0	0	30397	29020	164022	27057	1061209	45148	111318	0	0	8032	583371	0	0
2024-07-21 21:48:47			0	36805	0	0	0	30399	29020	164058	27100	1061155	45148	111319	0	0	8030	584416	0	0
2024-07-21 21:49:47			0	36802	0	0	0	30394	29010	164222	27128	1061254	45158	111317	0	0	8030	584570	0	0
2024-07-21 21:50:47			0	36799	0	0	0	30399	29010	164258	27149	1061173	45158	111319	0	0	8030	584691	0	0
2024-07-21 21:51:47			0	36801	0	0	0	30394	29010	164150	27124	1061110	45146	111317	0	0	8030	584611	0	0
2024-07-21 21:52:47			0	36798	0	0	0	30405	29010	164174	26880	1061146	45168	111321	0	0	8030	584731	0	0
2024-07-21 21:53:47			0	36781	0	0	0	30394	29010	164226	27126	1061191	45146	111317	0	0	8029	585415	0	0
2024-07-21 21:54:47			0	36766	0	0	0	30389	29010	164202	27062	1061173	45147	111315	0	0	8028	586019	0	0
2024-07-21 21:55:47			0	36783	0	0	0	30397	29000	164278	26961	1061155	45146	111318	0	0	8029	585369	0	0
2024-07-21 21:56:47			0	36787	0	0	0	30384	29010	164298	27150	1061200	45168	111313	0	0	8030	585174	0	0
2024-07-21 21:57:47			0	36759	0	0	0	30389	29010	164218	27246	1061137	45146	111315	0	0	8028	586301	0	0
2024-07-21 21:58:47			0	36780	0	0	0	30381	29000	164306	26857	1061101	45146	111312	0	0	8029	585490	0	0
2024-07-21 21:59:47			0	36755	0	0	0	30381	29000	164370	27346	1061101	45157	111312	0	0	8028	586497	0	0
2024-07-21 22:00:47			0	36776	0	0	0	30389	29000	164294	27020	1061038	45157	111315	0	0	8029	585650	0	0
2024-07-21 22:01:47			0	36764	0	0	0	30373	29000	164278	27003	1061065	45157	111309	0	0	8028	586134	0	0
2024-07-21 22:02:47			0	36771	0	0	0	30373	29000	164350	27232	1061038	45157	111309	0	0	8029	585852	0	0
2024-07-21 22:03:47			0	36762	0	0	0	30363	28990	164322	27197	1061029	45145	111305	0	0	8028	586248	0	0
2024-07-21 22:04:47			0	36773	0	0	0	30363	28990	164358	27079	1061074	45144	111305	0	0	8029	585805	0	0
2024-07-21 22:05:47			0	36789	0	0	0	30363	28990	164302	27067	1061002	45145	111305	0	0	8030	585161	0	0
2024-07-21 22:06:47			0	36791	0	0	0	30363	28990	164270	27060	1061056	45156	111305	0	0	8030	585081	0	0
2024-07-21 22:07:47			0	36811	0	0	0	30361	28980	164282	27071	1060975	45155	111304	0	0	8031	584310	0	0
2024-07-21 22:08:47			0	36834	0	0	0	30361	28980	164114	27232	1061011	45155	111304	0	0	8033	583386	0	0
2024-07-21 22:09:47			0	36810	0	0	0	30361	28980	164106	27308	1060984	45144	111304	0	0	8031	584350	0	0
2024-07-21 22:10:47			0	36840	0	0	0	30350	28970	164034	26861	1060931	45165	111300	0	0	8033	583179	0	0
2024-07-21 22:11:47			0	36837	0	0	0	30350	28980	164006	27211	1061029	45144	111300	0	0	8033	583265	0	0
2024-07-21 22:12:47			0	36855	0	0	0	30350	28970	163974	27230	1060985	45153	111300	0	0	8034	582576	0	0
2024-07-21 22:13:47			0	36850	0	0	0	30355	28970	164026	26842	1060993	45131	111302	0	0	8034	582777	0	0
2024-07-21 22:14:47			0	36868	0	0	0	30350	28960	163994	27095	1060949	45153	111300	0	0	8035	582089	0	0
2024-07-21 22:15:47			0	36865	0	0	0	30355	28970	163982	26986	1060958	45142	111302	0	0	8034	582175	0	0
2024-07-21 22:16:47			0	36877	0	0	0	30355	28970	163966	27053	1060993	45143	111302	0	0	8035	581694	0	0
2024-07-21 22:17:47			0	36898	0	0	0	30355	28960	163690	27121	1060922	45142	111302	0	0	8036	580886	0	0
2024-07-21 22:18:47			0	36915	0	0	0	30363	28970	163726	26956	1060985	45153	111305	0	0	8037	580172	0	0
2024-07-21 22:19:47			0	36937	0	0	0	30353	28980	163602	26894	1061011	45144	111301	0	0	8039	579258	0	0
2024-07-21 22:20:47			0	36976	0	0	0	30350	28970	163590	27274	1060931	45153	111300	0	0	8041	577734	0	0
2024-07-21 22:21:47			0	36972	0	0	0	30358	28970	163526	27057	1060940	45143	111303	0	0	8041	577894	0	0
2024-07-21 22:22:47			0	36949	0	0	0	30350	28970	163646	27130	1060958	45153	111300	0	0	8039	578813	0	0
2024-07-21 22:23:47			0	36922	0	0	0	30355	28970	163742	27031	1060931	45153	111302	0	0	8038	579892	0	0
2024-07-21 22:24:47			0	36905	0	0	0	30358	28970	163762	27308	1060967	45165	111303	0	0	8037	580572	0	0
2024-07-21 22:25:47			0	36893	0	0	0	30350	28960	163834	27001	1060922	45142	111300	0	0	8036	581086	0	0
2024-07-21 22:26:47			0	36885	0	0	0	30342	28960	163910	27149	1060949	45142	111297	0	0	8036	581407	0	0
2024-07-21 22:27:47			0	36874	0	0	0	30337	28960	163910	27138	1060868	45153	111295	0	0	8035	581848	0	0
2024-07-21 22:28:47			0	36867	0	0	0	30335	28950	163998	27088	1060931	45152	111294	0	0	8035	582163	0	0
2024-07-21 22:29:47			0	36857	0	0	0	30348	28950	163866	26942	1060832	45153	111299	0	0	8034	582564	0	0
2024-07-21 22:30:47			0	36871	0	0	0	30335	28950	164018	27052	1060850	45152	111294	0	0	8035	582002	0	0
2024-07-21 22:31:47			0	36865	0	0	0	30340	28950	163958	27126	1060967	45153	111296	0	0	8035	582243	0	0
2024-07-21 22:32:47			0	36871	0	0	0	30345	28950	164026	26601	1060913	45142	111298	0	0	8035	582002	0	0
2024-07-21 22:33:47			0	36858	0	0	0	30345	28940	164106	27128	1060895	45151	111298	0	0	8034	582557	0	0
2024-07-21 22:34:47			0	36841	0	0	0	30337	28950	164038	27152	1060877	45152	111295	0	0	8033	583206	0	0
2024-07-21 22:35:47			0	36845	0	0	0	30345	28940	163998	27064	1060895	45140	111298	0	0	8033	583079	0	0
2024-07-21 22:36:47			0	36863	0	0	0	30335	28950	163942	26866	1060904	45152	111294	0	0	8035	582323	0	0
2024-07-21 22:37:47			0	36873	0	0	0	30340	28940	163966	27303	1060886	45150	111296	0	0	8035	581956	0	0
2024-07-21 22:38:47			0	36863	0	0	0	30340	28940	163986	27192	1060859	45150	111296	0	0	8034	582357	0	0
2024-07-21 22:39:47			0	36860	0	0	0	30335	28950	164078	27237	1060877	45152	111294	0	0	8034	582443	0	0
2024-07-21 22:40:47			0	36880	0	0	0	30332	28940	163990	27237	1060841	45151	111293	0	0	8036	581675	0	0
2024-07-21 22:41:47			0	36895	0	0	0	30322	28930	163914	27154	1060850	45150	111289	0	0	8037	581108	0	0
2024-07-21 22:42:47			0	36888	0	0	0	30327	28930	163866	27102	1060760	45150	111291	0	0	8036	581388	0	0
2024-07-21 22:43:47			0	36911	0	0	0	30324	28930	163898	27062	1060769	45162	111290	0	0	8038	580467	0	0
2024-07-21 22:44:47			0	36906	0	0	0	30335	28930	163870	27168	1060796	45162	111294	0	0	8037	580667	0	0
2024-07-21 22:45:47			0	36924	0	0	0	30322	28920	163778	27197	1060805	45171	111289	0	0	8038	579980	0	0
2024-07-21 22:46:47			0	36951	0	0	0	30324	28930	163854	26972	1060796	45162	111290	0	0	8040	578867	0	0
2024-07-21 22:47:47			0	36948	0	0	0	30322	28930	163746	27237	1060823	45162	111289	0	0	8040	578987	0	0
2024-07-21 22:48:47			0	36961	0	0	0	30319	28920	163718	27111	1060751	45161	111288	0	0	8040	578501	0	0
2024-07-21 22:49:47			0	36950	0	0	0	30324	28920	163702	27043	1060805	45161	111290	0	0	8040	578940	0	0
2024-07-21 22:50:47			0	36963	0	0	0	30327	28920	163702	27374	1060770	45160	111291	0	0	8040	578421	0	0
2024-07-21 22:51:47			0	36956	0	0	0	30324	28930	163614	27027	1060814	45150	111290	0	0	8040	578667	0	0
2024-07-21 22:52:47			0	36967	0	0	0	30327	28920	163662	26880	1060751	45138	111291	0	0	8041	578261	0	0
2024-07-21 22:53:47			0	36964	0	0	0	30324	28930	163654	27041	1060760	45162	111290	0	0	8041	578348	0	0
2024-07-21 22:54:47			0	36964	0	0	0	30322	28910	163634	27097	1060788	45160	111289	0	0	8041	578415	0	0
2024-07-21 22:55:47			0	36974	0	0	0	30319	28930	163558	27209	1060787	45162	111288	0	0	8041	577948	0	0
2024-07-21 22:56:47			0	36992	0	0	0	30311	28920	163558	27067	1060751	45138	111285	0	0	8042	577264	0	0
2024-07-21 22:57:47			0	36992	0	0	0	30311	28910	163622	26682	1060680	45170	111285	0	0	8042	577297	0	0
2024-07-21 22:58:47			0	37013	0	0	0	30316	28910	163506	26833	1060779	45160	111287	0	0	8044	576460	0	0
2024-07-21 22:59:47			0	37035	0	0	0	30314	28910	163366	27123	1060734	45160	111286	0	0	8045	575584	0	0
2024-07-21 23:00:47			0	37024	0	0	0	30322	28910	163386	27391	1060734	45148	111289	0	0	8044	576022	0	0
2024-07-21 23:01:47			0	37032	0	0	0	30306	28910	163314	26930	1060698	45160	111283	0	0	8045	575703	0	0
2024-07-21 23:02:47			0	37040	0	0	0	30314	28910	163250	27090	1060707	45148	111286	0	0	8045	575384	0	0
2024-07-21 23:03:47			0	37050	0	0	0	30311	28920	163230	26668	1060743	45148	111285	0	0	8046	574953	0	0
2024-07-21 23:04:47			0	37053	0	0	0	30314	28920	163238	27313	1060716	45170	111286	0	0	8046	574834	0	0
2024-07-21 23:05:47			0	37071	0	0	0	30322	28920	163278	27178	1060796	45160	111289	0	0	8047	574118	0	0
2024-07-21 23:06:47			0	37080	0	0	0	30311	28910	163178	27287	1060734	45148	111285	0	0	8048	573794	0	0
2024-07-21 23:07:47			0	37071	0	0	0	30316	28910	163030	26993	1060761	45148	111287	0	0	8047	574152	0	0
2024-07-21 23:08:47			0	37097	0	0	0	30314	28920	163130	27192	1060716	45137	111286	0	0	8049	573086	0	0
2024-07-21 23:09:47			0	37094	0	0	0	30306	28920	163034	27033	1060662	45148	111283	0	0	8048	573205	0	0
2024-07-21 23:10:47			0	37104	0	0	0	30303	28920	162986	27100	1060751	45138	111282	0	0	8049	572808	0	0
2024-07-21 23:11:47			0	37124	0	0	0	30314	28910	162854	27173	1060752	45148	111286	0	0	8050	572048	0	0
2024-07-21 23:12:47			0	37137	0	0	0	30301	28910	162790	26861	1060725	45170	111281	0	0	8051	571533	0	0
2024-07-21 23:13:47			0	37136	0	0	0	30309	28900	162910	27161	1060716	45147	111284	0	0	8051	571605	0	0
2024-07-21 23:14:47			0	37149	0	0	0	30306	28900	162742	27176	1060743	45159	111283	0	0	8052	571090	0	0
2024-07-21 23:15:47			0	37162	0	0	0	30306	28910	162778	26948	1060698	45148	111283	0	0	8052	570543	0	0
2024-07-21 23:16:47			0	37159	0	0	0	30301	28910	162762	27222	1060752	45160	111281	0	0	8052	570661	0	0
2024-07-21 23:17:47			0	37168	0	0	0	30301	28900	162690	26967	1060635	45136	111281	0	0	8053	570338	0	0
2024-07-21 23:18:47			0	37161	0	0	0	30301	28900	162694	27055	1060662	45147	111281	0	0	8052	570615	0	0
2024-07-21 23:19:47			0	37154	0	0	0	30296	28910	162638	27202	1060671	45148	111279	0	0	8052	570859	0	0
2024-07-21 23:20:47			0	37181	0	0	0	30296	28900	162694	26892	1060635	45159	111279	0	0	8054	569824	0	0
2024-07-21 23:21:47			0	37172	0	0	0	30301	28910	162626	27211	1060671	45148	111281	0	0	8053	570147	0	0
2024-07-21 23:22:47			0	37195	0	0	0	30296	28900	162570	27166	1060626	45158	111279	0	0	8054	569271	0	0
2024-07-21 23:23:47			0	37171	0	0	0	30301	28900	162642	27261	1060680	45158	111281	0	0	8053	570220	0	0
2024-07-21 23:24:47			0	37164	0	0	0	30293	28890	162670	27176	1060644	45168	111278	0	0	8053	570530	0	0
2024-07-21 23:25:47			0	37179	0	0	0	30288	28900	162690	27438	1060626	45135	111276	0	0	8054	569903	0	0
2024-07-21 23:26:47			0	37159	0	0	0	30288	28900	162714	27085	1060689	45136	111276	0	0	8052	570694	0	0
2024-07-21 23:27:47			0	37171	0	0	0	30290	28900	162674	27251	1060653	45146	111277	0	0	8053	570220	0	0
2024-07-21 23:28:47			0	37152	0	0	0	30290	28890	162678	27209	1060635	45158	111277	0	0	8052	571005	0	0
2024-07-21 23:29:47			0	37166	0	0	0	30288	28890	162802	26812	1060608	45168	111276	0	0	8053	570451	0	0
2024-07-21 23:30:47			0	37172	0	0	0	30293	28900	162702	27020	1060680	45168	111278	0	0	8053	570180	0	0
2024-07-21 23:31:47			0	37169	0	0	0	30288	28890	162754	26883	1060581	45158	111276	0	0	8053	570332	0	0
2024-07-21 23:32:47			0	37154	0	0	0	30285	28900	162738	26873	1060626	45146	111275	0	0	8052	570892	0	0
2024-07-21 23:33:47			0	37179	0	0	0	30285	28890	162746	27001	1060581	45168	111275	0	0	8054	569936	0	0
2024-07-21 23:34:47			0	37179	0	0	0	30283	28880	162686	26715	1060599	45157	111274	0	0	8054	569969	0	0
2024-07-21 23:35:47			0	37171	0	0	0	30288	28890	162686	26909	1060635	45158	111276	0	0	8053	570253	0	0
2024-07-21 23:36:47			0	37165	0	0	0	30288	28890	162686	27204	1060608	45146	111276	0	0	8053	570490	0	0
2024-07-21 23:37:47			0	37180	0	0	0	30283	28880	162690	26948	1060482	45156	111274	0	0	8054	569930	0	0
2024-07-21 23:38:47			0	37167	0	0	0	30288	28890	162626	27251	1060554	45146	111276	0	0	8053	570411	0	0
2024-07-21 23:39:47			0	37171	0	0	0	30277	28880	162674	27007	1060545	45134	111272	0	0	8053	570286	0	0
2024-07-21 23:40:47			0	37178	0	0	0	30277	28880	162618	26941	1060509	45166	111272	0	0	8054	570009	0	0
2024-07-21 23:41:47			0	37189	0	0	0	30270	28880	162574	27145	1060545	45157	111269	0	0	8054	569574	0	0
2024-07-21 23:42:47			0	37199	0	0	0	30272	28870	162534	27039	1060500	45144	111270	0	0	8055	569212	0	0
2024-07-21 23:43:47			0	37222	0	0	0	30272	28880	162282	27083	1060572	45157	111270	0	0	8056	568270	0	0
2024-07-21 23:44:47			0	37212	0	0	0	30267	28880	162354	27107	1060563	45156	111268	0	0	8056	568665	0	0
2024-07-21 23:45:47			0	37242	0	0	0	30272	28880	162314	26864	1060590	45156	111270	0	0	8057	567481	0	0
2024-07-21 23:46:47			0	37242	0	0	0	30267	28880	162270	26963	1060599	45157	111268	0	0	8058	567481	0	0
2024-07-21 23:47:47			0	37272	0	0	0	30264	28880	162358	26726	1060572	45145	111267	0	0	8059	566299	0	0
2024-07-21 23:48:47			0	37301	0	0	0	30267	28880	162118	27203	1060482	45156	111268	0	0	8061	565157	0	0
2024-07-21 23:49:47			0	37298	0	0	0	30272	28880	162018	27033	1060563	45156	111270	0	0	8061	565275	0	0
2024-07-21 23:50:47			0	37317	0	0	0	30270	28880	161922	27045	1060518	45157	111269	0	0	8062	564528	0	0
2024-07-21 23:51:47			0	37334	0	0	0	30264	28870	161863	26824	1060626	45166	111267	0	0	8063	563893	0	0
2024-07-21 23:52:47			0	37340	0	0	0	30270	28880	161875	26911	1060536	45156	111269	0	0	8063	563625	0	0
2024-07-21 23:53:47			0	37346	0	0	0	30272	28880	161747	27118	1060590	45156	111270	0	0	8064	563389	0	0
2024-07-21 23:54:47			0	37364	0	0	0	30270	28880	161731	27124	1060563	45156	111269	0	0	8065	562683	0	0
2024-07-21 23:55:47			0	37385	0	0	0	30270	28880	161751	26920	1060599	45157	111269	0	0	8066	561860	0	0
2024-07-21 23:56:47			0	37391	0	0	0	30267	28870	161719	26996	1060500	45156	111268	0	0	8066	561657	0	0
2024-07-21 23:57:47			0	37393	0	0	0	30264	28870	161635	27079	1060491	45155	111267	0	0	8066	561579	0	0
2024-07-21 23:58:47			0	37404	0	0	0	30259	28870	161631	27237	1060491	45155	111265	0	0	8067	561148	0	0
2024-07-21 23:59:47			0	37384	0	0	0	30264	28870	161683	26994	1060554	45156	111267	0	0	8066	561932	0	0
2024-07-22 00:00:47			0	37386	0	0	0	30259	28870	161667	26942	1060473	45144	111265	0	0	8066	561853	0	0
2024-07-22 00:01:47			0	37382	0	0	0	30264	28860	161755	26996	1060482	45155	111267	0	0	8066	562043	0	0
2024-07-22 00:02:47			0	37376	0	0	0	30257	28860	161727	26968	1060590	45155	111264	0	0	8065	562278	0	0
2024-07-22 00:03:47			0	37376	0	0	0	30257	28860	161747	27157	1060455	45166	111264	0	0	8065	562278	0	0
2024-07-22 00:04:47			0	37342	0	0	0	30257	28860	161771	27086	1060455	45143	111264	0	0	8063	563612	0	0
2024-07-22 00:05:47			0	37329	0	0	0	30249	28860	161819	26970	1060428	45155	111261	0	0	8063	564122	0	0
2024-07-22 00:06:47			0	37322	0	0	0	30254	28860	161839	27147	1060455	45177	111263	0	0	8062	564397	0	0
2024-07-22 00:07:47			0	37299	0	0	0	30246	28860	161978	26944	1060428	45155	111260	0	0	8061	565302	0	0
2024-07-22 00:08:47			0	37306	0	0	0	30244	28860	162026	27116	1060428	45155	111259	0	0	8062	565026	0	0
2024-07-22 00:09:47			0	37302	0	0	0	30244	28850	162042	27069	1060374	45153	111259	0	0	8061	565216	0	0
2024-07-22 00:10:47			0	37280	0	0	0	30246	28860	162166	27170	1060419	45142	111260	0	0	8060	566049	0	0
2024-07-22 00:11:47			0	37290	0	0	0	30238	28850	162078	26759	1060437	45164	111257	0	0	8061	565689	0	0
2024-07-22 00:12:47			0	37263	0	0	0	30236	28850	162262	26771	1060437	45141	111256	0	0	8059	566752	0	0
2024-07-22 00:13:47			0	37254	0	0	0	30236	28850	162302	26913	1060401	45175	111256	0	0	8059	567106	0	0
2024-07-22 00:14:47			0	37246	0	0	0	30231	28850	162246	26918	1060374	45141	111254	0	0	8058	567422	0	0
2024-07-22 00:15:47			0	37234	0	0	0	30233	28850	162442	26830	1060348	45153	111255	0	0	8058	567895	0	0
2024-07-22 00:16:47			0	37218	0	0	0	30225	28850	162462	27066	1060374	45153	111252	0	0	8057	568527	0	0
2024-07-22 00:17:47			0	37200	0	0	0	30228	28850	162458	27126	1060374	45153	111253	0	0	8056	569238	0	0
2024-07-22 00:18:47			0	37187	0	0	0	30231	28840	162610	27033	1060330	45163	111254	0	0	8055	569785	0	0
2024-07-22 00:19:47			0	37179	0	0	0	30225	28840	162658	27213	1060303	45152	111252	0	0	8054	570101	0	0
2024-07-22 00:20:47			0	37158	0	0	0	30212	28840	162750	26765	1060330	45141	111247	0	0	8053	570933	0	0
2024-07-22 00:21:47			0	37139	0	0	0	30225	28840	162714	27105	1060357	45152	111252	0	0	8052	571685	0	0
2024-07-22 00:22:47			0	37115	0	0	0	30207	28840	162782	27204	1060330	45152	111245	0	0	8051	572637	0	0
2024-07-22 00:23:47			0	37100	0	0	0	30218	28820	162958	26974	1060303	45140	111249	0	0	8050	573299	0	0
2024-07-22 00:24:47			0	37057	0	0	0	30202	28840	163014	26816	1060303	45163	111243	0	0	8048	574942	0	0
2024-07-22 00:25:47			0	37049	0	0	0	30202	28830	163214	27039	1060204	45151	111243	0	0	8047	575293	0	0
2024-07-22 00:26:47			0	37027	0	0	0	30207	28830	163078	27293	1060258	45162	111245	0	0	8046	576169	0	0
2024-07-22 00:27:47			0	36990	0	0	0	30199	28820	163314	26880	1060249	45151	111242	0	0	8044	577678	0	0
2024-07-22 00:28:47			0	36985	0	0	0	30197	28820	163390	27055	1060240	45150	111241	0	0	8043	577878	0	0
2024-07-22 00:29:47			0	36984	0	0	0	30202	28820	163474	27230	1060195	45140	111243	0	0	8043	577918	0	0
2024-07-22 00:30:47			0	36959	0	0	0	30205	28810	163474	27261	1060168	45149	111244	0	0	8042	578950	0	0
2024-07-22 00:31:47			0	36952	0	0	0	30202	28810	163618	27464	1060222	45149	111243	0	0	8041	579230	0	0
2024-07-22 00:32:47			0	36932	0	0	0	30192	28810	163710	27230	1060222	45149	111239	0	0	8040	580030	0	0
2024-07-22 00:33:47			0	36919	0	0	0	30205	28820	163654	27166	1060222	45140	111244	0	0	8039	580517	0	0
2024-07-22 00:34:47			0	36910	0	0	0	30197	28810	163858	27102	1060168	45149	111241	0	0	8039	580911	0	0
2024-07-22 00:35:47			0	36896	0	0	0	30192	28810	163734	27222	1060150	45149	111239	0	0	8038	581472	0	0
2024-07-22 00:36:47			0	36870	0	0	0	30202	28800	163822	26958	1060204	45159	111243	0	0	8037	582549	0	0
2024-07-22 00:37:47			0	36877	0	0	0	30186	28810	163846	26845	1060150	45171	111237	0	0	8037	582234	0	0
2024-07-22 00:38:47			0	36873	0	0	0	30186	28800	163914	27083	1060186	45159	111237	0	0	8037	582428	0	0
2024-07-22 00:39:47			0	36868	0	0	0	30186	28810	163922	27310	1060177	45149	111237	0	0	8037	582595	0	0
2024-07-22 00:40:47			0	36855	0	0	0	30186	28810	163938	26982	1060195	45160	111237	0	0	8036	583117	0	0
2024-07-22 00:41:47			0	36857	0	0	0	30181	28800	163970	26927	1060133	45159	111235	0	0	8036	583071	0	0
2024-07-22 00:42:47			0	36854	0	0	0	30186	28800	163886	27053	1060133	45148	111237	0	0	8036	583191	0	0
2024-07-22 00:43:47			0	36865	0	0	0	30192	28810	164006	26991	1060168	45160	111239	0	0	8036	582715	0	0
2024-07-22 00:44:47			0	36848	0	0	0	30181	28800	163962	26998	1060159	45148	111235	0	0	8036	583432	0	0
2024-07-22 00:45:47			0	36851	0	0	0	30186	28800	163998	27067	1060124	45148	111237	0	0	8036	583312	0	0
2024-07-22 00:46:47			0	36851	0	0	0	30189	28790	163918	26850	1060169	45147	111238	0	0	8036	583345	0	0
2024-07-22 00:47:47			0	36846	0	0	0	30181	28790	163998	27281	1060088	45169	111235	0	0	8035	583546	0	0
2024-07-22 00:48:47			0	36845	0	0	0	30184	28790	163958	27057	1060079	45158	111236	0	0	8035	583586	0	0
2024-07-22 00:49:47			0	36849	0	0	0	30179	28790	163906	27119	1060088	45147	111234	0	0	8036	583426	0	0
2024-07-22 00:50:47			0	36842	0	0	0	30176	28800	164030	26944	1060097	45148	111233	0	0	8035	583673	0	0
2024-07-22 00:51:47			0	36847	0	0	0	30179	28790	164006	26654	1060061	45158	111234	0	0	8036	583506	0	0
2024-07-22 00:52:47			0	36837	0	0	0	30174	28790	164066	26961	1060025	45147	111232	0	0	8035	583908	0	0
2024-07-22 00:53:47			0	36847	0	0	0	30171	28800	163982	26609	1060124	45148	111231	0	0	8036	583472	0	0
2024-07-22 00:54:47			0	36838	0	0	0	30176	28780	164046	26791	1060043	45158	111233	0	0	8035	583902	0	0
2024-07-22 00:55:47			0	36858	0	0	0	30168	28780	164022	26866	1060097	45146	111230	0	0	8036	583098	0	0
2024-07-22 00:56:47			0	36862	0	0	0	30171	28790	164010	27001	1060052	45147	111231	0	0	8037	582904	0	0
2024-07-22 00:57:47			0	36850	0	0	0	30166	28780	163898	26786	1060070	45146	111229	0	0	8036	583419	0	0
2024-07-22 00:58:47			0	36851	0	0	0	30174	28790	163986	26864	1060088	45147	111232	0	0	8036	583345	0	0
2024-07-22 00:59:47			0	36857	0	0	0	30161	28790	164086	26904	1060115	45136	111227	0	0	8036	583104	0	0
2024-07-22 01:00:47			0	36860	0	0	0	30153	28770	163890	26873	1059971	45145	111224	0	0	8037	583051	0	0
2024-07-22 01:01:47			0	36866	0	0	0	30150	28780	163926	27170	1060061	45146	111223	0	0	8037	582777	0	0
2024-07-22 01:02:47			0	36849	0	0	0	30150	28780	163938	27039	1060007	45146	111223	0	0	8036	583460	0	0
2024-07-22 01:03:47			0	36846	0	0	0	30145	28770	164026	26944	1060052	45134	111221	0	0	8036	583614	0	0
2024-07-22 01:04:47			0	36843	0	0	0	30150	28770	164038	27119	1059989	45156	111223	0	0	8036	583735	0	0
2024-07-22 01:05:47			0	36838	0	0	0	30155	28770	164154	26911	1059989	45156	111225	0	0	8035	583936	0	0
2024-07-22 01:06:47			0	36829	0	0	0	30150	28770	164114	27062	1059971	45157	111223	0	0	8035	584298	0	0
2024-07-22 01:07:47			0	36824	0	0	0	30148	28770	164034	26847	1059998	45157	111222	0	0	8035	584499	0	0
2024-07-22 01:08:47			0	36792	0	0	0	30158	28770	164118	26984	1059971	45134	111226	0	0	8033	585787	0	0
2024-07-22 01:09:47			0	36789	0	0	0	30142	28770	164278	26812	1059962	45156	111220	0	0	8033	585908	0	0
2024-07-22 01:10:47			0	36765	0	0	0	30148	28760	164422	27059	1059926	45156	111222	0	0	8031	586910	0	0
2024-07-22 01:11:47			0	36753	0	0	0	30153	28770	164494	27128	1059944	45145	111224	0	0	8030	587360	0	0
2024-07-22 01:12:47			0	36738	0	0	0	30145	28770	164550	27157	1059935	45156	111221	0	0	8030	587966	0	0
2024-07-22 01:13:47			0	36721	0	0	0	30148	28760	164514	27118	1059926	45144	111222	0	0	8028	588687	0	0
2024-07-22 01:14:47			0	36721	0	0	0	30140	28760	164598	27081	1059953	45144	111219	0	0	8029	588687	0	0
2024-07-22 01:15:47			0	36698	0	0	0	30135	28750	164550	27185	1059935	45155	111217	0	0	8027	589651	0	0
2024-07-22 01:16:47			0	36687	0	0	0	30142	28760	164710	27194	1059971	45156	111220	0	0	8027	590062	0	0
2024-07-22 01:17:47			0	36667	0	0	0	30142	28760	164782	27147	1059971	45133	111220	0	0	8025	590873	0	0
2024-07-22 01:18:47			0	36651	0	0	0	30132	28750	164870	27064	1059827	45143	111216	0	0	8025	591556	0	0
2024-07-22 01:19:47			0	36660	0	0	0	30127	28750	165018	27436	1059908	45166	111214	0	0	8025	591191	0	0
2024-07-22 01:20:47			0	36646	0	0	0	30132	28750	164926	27197	1059827	45143	111216	0	0	8024	591759	0	0
2024-07-22 01:21:47			0	36636	0	0	0	30116	28750	165074	27272	1059747	45143	111210	0	0	8024	592164	0	0
2024-07-22 01:22:47			0	36642	0	0	0	30122	28750	165094	26857	1059854	45155	111212	0	0	8024	591921	0	0
2024-07-22 01:23:47			0	36625	0	0	0	30116	28750	165018	26908	1059765	45154	111210	0	0	8023	592611	0	0
2024-07-22 01:24:47			0	36623	0	0	0	30106	28740	165150	27248	1059828	45153	111206	0	0	8023	592727	0	0
2024-07-22 01:25:47			0	36621	0	0	0	30111	28740	165174	27130	1059774	45153	111208	0	0	8023	592808	0	0
2024-07-22 01:26:47			0	36621	0	0	0	30103	28750	165098	27050	1059818	45154	111205	0	0	8023	592774	0	0
2024-07-22 01:27:47			0	36610	0	0	0	30103	28730	165090	26894	1059738	45141	111205	0	0	8023	593289	0	0
2024-07-22 01:28:47			0	36616	0	0	0	30103	28730	165114	27001	1059765	45153	111205	0	0	8023	593045	0	0
2024-07-22 01:29:47			0	36622	0	0	0	30106	28730	165142	27242	1059792	45153	111206	0	0	8023	592802	0	0
2024-07-22 01:30:47			0	36619	0	0	0	30103	28720	165018	27265	1059774	45152	111205	0	0	8023	592958	0	0
2024-07-22 01:31:47			0	36639	0	0	0	30103	28720	165062	27241	1059747	45140	111205	0	0	8024	592146	0	0
2024-07-22 01:32:47			0	36643	0	0	0	30106	28730	164950	27223	1059792	45153	111206	0	0	8024	591949	0	0
2024-07-22 01:33:47			0	36667	0	0	0	30116	28720	164854	27398	1059774	45152	111210	0	0	8026	591010	0	0
2024-07-22 01:34:47			0	36696	0	0	0	30109	28720	164782	27116	1059720	45152	111207	0	0	8027	589835	0	0
2024-07-22 01:35:47			0	36717	0	0	0	30106	28720	164758	27192	1059666	45152	111206	0	0	8029	588985	0	0
2024-07-22 01:36:47			0	36733	0	0	0	30106	28720	164630	27211	1059666	45152	111206	0	0	8030	588338	0	0
2024-07-22 01:37:47			0	36739	0	0	0	30103	28720	164506	27196	1059693	45152	111205	0	0	8030	588096	0	0
2024-07-22 01:38:47			0	36786	0	0	0	30103	28720	164418	27066	1059747	45152	111205	0	0	8033	586199	0	0
2024-07-22 01:39:47			0	36810	0	0	0	30101	28710	164214	27064	1059666	45138	111204	0	0	8034	585265	0	0
2024-07-22 01:40:47			0	36815	0	0	0	30096	28710	164258	27111	1059693	45150	111202	0	0	8035	585064	0	0
2024-07-22 01:41:47			0	36825	0	0	0	30096	28720	164274	27353	1059630	45128	111202	0	0	8035	584628	0	0
2024-07-22 01:42:47			0	36803	0	0	0	30096	28720	164186	26993	1059693	45152	111202	0	0	8034	585513	0	0
2024-07-22 01:43:47			0	36827	0	0	0	30093	28710	164266	26937	1059693	45150	111201	0	0	8035	584581	0	0
2024-07-22 01:44:47			0	36774	0	0	0	30077	28710	164310	27403	1059666	45161	111195	0	0	8033	586717	0	0
2024-07-22 01:45:47			0	36742	0	0	0	30080	28700	164538	27067	1059604	45138	111196	0	0	8031	588042	0	0
2024-07-22 01:46:47			0	36695	0	0	0	30080	28710	164830	26724	1059666	45138	111196	0	0	8028	589909	0	0
2024-07-22 01:47:47			0	36655	0	0	0	30077	28710	164878	27090	1059639	45127	111195	0	0	8026	591531	0	0
2024-07-22 01:48:47			0	36612	0	0	0	30075	28690	165154	26870	1059613	45149	111194	0	0	8023	593345	0	0
2024-07-22 01:49:47			0	36575	0	0	0	30075	28710	165281	27012	1059532	45138	111194	0	0	8021	594782	0	0
2024-07-22 01:50:47			0	36534	0	0	0	30062	28700	165537	27083	1059595	45149	111189	0	0	8019	596488	0	0
2024-07-22 01:51:47			0	36481	0	0	0	30051	28690	165585	27183	1059550	45136	111185	0	0	8016	598688	0	0
2024-07-22 01:52:47			0	36450	0	0	0	30049	28690	165885	27253	1059523	45136	111184	0	0	8014	599956	0	0
2024-07-22 01:53:47			0	36443	0	0	0	30041	28690	165961	26915	1059469	45148	111181	0	0	8014	600243	0	0
2024-07-22 01:54:47			0	36425	0	0	0	30038	28680	166073	26955	1059424	45147	111180	0	0	8012	601016	0	0
2024-07-22 01:55:47			0	36434	0	0	0	30033	28680	166057	27027	1059487	45148	111178	0	0	8013	600647	0	0
2024-07-22 01:56:47			0	36419	0	0	0	30028	28680	166097	27052	1059397	45158	111176	0	0	8012	601262	0	0
2024-07-22 01:57:47			0	36402	0	0	0	30015	28660	166065	27083	1059398	45123	111171	0	0	8011	602030	0	0
2024-07-22 01:58:47			0	36394	0	0	0	30012	28660	166177	27187	1059380	45134	111170	0	0	8011	602358	0	0
2024-07-22 01:59:47			0	36401	0	0	0	30007	28650	166093	27066	1059335	45133	111168	0	0	8011	602106	0	0
2024-07-22 02:00:47			0	36409	0	0	0	30002	28650	166093	27109	1059326	45133	111166	0	0	8012	601777	0	0
2024-07-22 02:01:47			0	36424	0	0	0	30010	28650	166009	26844	1059245	45144	111169	0	0	8013	601161	0	0
2024-07-22 02:02:47			0	36423	0	0	0	30010	28640	165897	27093	1059254	45143	111169	0	0	8013	601237	0	0
2024-07-22 02:03:47			0	36472	0	0	0	30010	28630	165857	26745	1059245	45143	111169	0	0	8015	599264	0	0
2024-07-22 02:04:47			0	36477	0	0	0	30007	28640	165621	27012	1059254	45132	111168	0	0	8016	599025	0	0
2024-07-22 02:05:47			0	36517	0	0	0	30002	28630	165573	27249	1059272	45143	111166	0	0	8018	597424	0	0
2024-07-22 02:06:47			0	36577	0	0	0	30002	28610	165237	27052	1059236	45130	111166	0	0	8022	595045	0	0
2024-07-22 02:07:47			0	36639	0	0	0	29999	28630	165046	27168	1059209	45142	111165	0	0	8026	592454	0	0
2024-07-22 02:08:47			0	36696	0	0	0	29994	28630	164810	27027	1059236	45131	111163	0	0	8029	590142	0	0
2024-07-22 02:09:47			0	36732	0	0	0	29994	28620	164654	27251	1059218	45141	111163	0	0	8031	588719	0	0
2024-07-22 02:10:47			0	36751	0	0	0	29994	28610	164522	26970	1059155	45130	111163	0	0	8032	587985	0	0
2024-07-22 02:11:47			0	36751	0	0	0	29992	28610	164482	27303	1059227	45151	111162	0	0	8032	587985	0	0
2024-07-22 02:12:47			0	36779	0	0	0	29997	28620	164518	26807	1059200	45141	111164	0	0	8034	586821	0	0
2024-07-22 02:13:47			0	36798	0	0	0	29994	28610	164482	27144	1059173	45140	111163	0	0	8035	586088	0	0
2024-07-22 02:14:47			0	36784	0	0	0	29997	28610	164374	27074	1059173	45129	111164	0	0	8034	586653	0	0
2024-07-22 02:15:47			0	36812	0	0	0	29994	28610	164386	27305	1059128	45130	111163	0	0	8036	585524	0	0
2024-07-22 02:16:47			0	36813	0	0	0	29994	28600	164318	27246	1059138	45139	111163	0	0	8036	585518	0	0
2024-07-22 02:17:47			0	36812	0	0	0	29989	28610	164342	27085	1059147	45129	111161	0	0	8036	585524	0	0
2024-07-22 02:18:47			0	36843	0	0	0	29989	28600	164262	26814	1059129	45128	111161	0	0	8038	584310	0	0
2024-07-22 02:19:47			0	36863	0	0	0	29984	28600	164154	26819	1059138	45139	111159	0	0	8039	583505	0	0
2024-07-22 02:20:47			0	36859	0	0	0	29986	28600	164078	27121	1059048	45139	111160	0	0	8039	583666	0	0
2024-07-22 02:21:47			0	36874	0	0	0	29984	28600	164058	26752	1059030	45128	111159	0	0	8039	583063	0	0
2024-07-22 02:22:47			0	36900	0	0	0	29968	28600	163990	26826	1059075	45139	111153	0	0	8041	582019	0	0
2024-07-22 02:23:47			0	36906	0	0	0	29971	28600	164014	26883	1059102	45139	111154	0	0	8042	581778	0	0
2024-07-22 02:24:47			0	36902	0	0	0	29976	28580	163938	26628	1059021	45115	111156	0	0	8041	582006	0	0
2024-07-22 02:25:47			0	36914	0	0	0	29976	28590	163898	27135	1059066	45139	111156	0	0	8042	581491	0	0
2024-07-22 02:26:47			0	36914	0	0	0	29976	28590	163874	26948	1059057	45127	111156	0	0	8042	581491	0	0
2024-07-22 02:27:47			0	36906	0	0	0	29981	28590	163814	27079	1059057	45150	111158	0	0	8041	581812	0	0
2024-07-22 02:28:47			0	36907	0	0	0	29981	28600	163858	27052	1059102	45151	111158	0	0	8041	581738	0	0
2024-07-22 02:29:47			0	36931	0	0	0	29979	28590	163882	27067	1059057	45127	111157	0	0	8043	580809	0	0
2024-07-22 02:30:47			0	36917	0	0	0	29992	28590	163814	26894	1059147	45128	111162	0	0	8042	581371	0	0
2024-07-22 02:31:47			0	36926	0	0	0	29986	28590	163898	26722	1059084	45150	111160	0	0	8042	581010	0	0
2024-07-22 02:32:47			0	36922	0	0	0	29992	28600	163990	27010	1059075	45139	111162	0	0	8042	581137	0	0
2024-07-22 02:33:47			0	36903	0	0	0	29981	28590	163918	27029	1059057	45138	111158	0	0	8041	581932	0	0
2024-07-22 02:34:47			0	36892	0	0	0	29989	28600	164094	27086	1059048	45139	111161	0	0	8040	582340	0	0
2024-07-22 02:35:47			0	36847	0	0	0	29984	28580	164114	26729	1059129	45137	111159	0	0	8038	584216	0	0
2024-07-22 02:36:47			0	36829	0	0	0	29984	28580	164166	27081	1058985	45149	111159	0	0	8037	584941	0	0
2024-07-22 02:37:47			0	36815	0	0	0	29981	28580	164322	26942	1059048	45126	111158	0	0	8036	585505	0	0
2024-07-22 02:38:47			0	36764	0	0	0	29984	28590	164578	26774	1059084	45138	111159	0	0	8033	587528	0	0
2024-07-22 02:39:47			0	36728	0	0	0	29981	28580	164766	27104	1059066	45137	111158	0	0	8031	589017	0	0
2024-07-22 02:40:47			0	36691	0	0	0	29989	28590	164754	27131	1059084	45127	111161	0	0	8029	590481	0	0
2024-07-22 02:41:47			0	36657	0	0	0	29986	28590	164938	26975	1059120	45139	111160	0	0	8027	591860	0	0
2024-07-22 02:42:47			0	36631	0	0	0	29989	28580	165154	27194	1059075	45137	111161	0	0	8025	592951	0	0
2024-07-22 02:43:47			0	36598	0	0	0	29979	28580	165366	27071	1059102	45137	111157	0	0	8023	594293	0	0
2024-07-22 02:44:47			0	36552	0	0	0	29979	28590	165597	26930	1059084	45138	111157	0	0	8021	596133	0	0
2024-07-22 02:45:47			0	36517	0	0	0	29976	28580	165633	26915	1059021	45137	111156	0	0	8018	597597	0	0
2024-07-22 02:46:47			0	36499	0	0	0	29976	28580	165753	26849	1059048	45149	111156	0	0	8017	598332	0	0
2024-07-22 02:47:47			0	36470	0	0	0	29973	28580	165945	26994	1058985	45126	111155	0	0	8016	599519	0	0
2024-07-22 02:48:47			0	36447	0	0	0	29966	28590	165961	26866	1059039	45128	111152	0	0	8015	600427	0	0
2024-07-22 02:49:47			0	36415	0	0	0	29973	28580	166101	27145	1059012	45126	111155	0	0	8012	601775	0	0
2024-07-22 02:50:47			0	36405	0	0	0	29979	28590	166109	27303	1059030	45138	111157	0	0	8012	602150	0	0
2024-07-22 02:51:47			0	36407	0	0	0	29966	28580	166165	27090	1059075	45126	111152	0	0	8012	602103	0	0
2024-07-22 02:52:47			0	36387	0	0	0	29963	28570	166305	26705	1058976	45148	111151	0	0	8011	602960	0	0
2024-07-22 02:53:47			0	36393	0	0	0	29961	28580	166325	27206	1058967	45137	111150	0	0	8011	602678	0	0
2024-07-22 02:54:47			0	36385	0	0	0	29968	28580	166297	26923	1059021	45126	111153	0	0	8011	603007	0	0
2024-07-22 02:55:47			0	36369	0	0	0	29963	28570	166269	27109	1059030	45136	111151	0	0	8010	603700	0	0
2024-07-22 02:56:47			0	36376	0	0	0	29958	28570	166309	26941	1059003	45136	111149	0	0	8010	603412	0	0
2024-07-22 02:57:47			0	36375	0	0	0	29963	28560	166305	27128	1058959	45135	111151	0	0	8010	603488	0	0
2024-07-22 02:58:47			0	36376	0	0	0	29963	28570	166305	26935	1059003	45136	111151	0	0	8010	603412	0	0
2024-07-22 02:59:47			0	36394	0	0	0	29966	28570	166217	27033	1058976	45136	111152	0	0	8011	602672	0	0
2024-07-22 03:00:47			0	36386	0	0	0	29958	28570	166233	27379	1058994	45136	111149	0	0	8011	603001	0	0
2024-07-22 03:01:47			0	36385	0	0	0	29953	28570	166197	27137	1058994	45136	111147	0	0	8011	603042	0	0
2024-07-22 03:02:47			0	36409	0	0	0	29953	28570	166137	26932	1058967	45136	111147	0	0	8012	602056	0	0
2024-07-22 03:03:47			0	36401	0	0	0	29950	28570	166145	27137	1059003	45148	111146	0	0	8012	602384	0	0
2024-07-22 03:04:47			0	36397	0	0	0	29953	28560	166185	27059	1058896	45146	111147	0	0	8012	602584	0	0
2024-07-22 03:05:47			0	36414	0	0	0	29958	28570	165941	26989	1058941	45148	111149	0	0	8013	601850	0	0
2024-07-22 03:06:47			0	36423	0	0	0	29948	28560	165949	27211	1058950	45134	111145	0	0	8013	601516	0	0
2024-07-22 03:07:47			0	36432	0	0	0	29945	28560	165985	27242	1058896	45134	111144	0	0	8014	601146	0	0
2024-07-22 03:08:47			0	36436	0	0	0	29937	28560	165925	26899	1058905	45125	111141	0	0	8014	600982	0	0
2024-07-22 03:09:47			0	36447	0	0	0	29940	28550	165857	27093	1058941	45134	111142	0	0	8015	600566	0	0
2024-07-22 03:10:47			0	36458	0	0	0	29942	28560	165949	27142	1058896	45134	111143	0	0	8015	600080	0	0
2024-07-22 03:11:47			0	36465	0	0	0	29927	28540	165873	26955	1058923	45133	111137	0	0	8016	599863	0	0
2024-07-22 03:12:47			0	36467	0	0	0	29929	28550	165925	27104	1058851	45134	111138	0	0	8016	599746	0	0
2024-07-22 03:13:47			0	36469	0	0	0	29919	28550	165869	26894	1058824	45134	111134	0	0	8016	599664	0	0
2024-07-22 03:14:47			0	36457	0	0	0	29911	28540	165981	27187	1058842	45133	111131	0	0	8016	600191	0	0
2024-07-22 03:15:47			0	36458	0	0	0	29914	28530	165969	26811	1058797	45132	111132	0	0	8016	600184	0	0
2024-07-22 03:16:47			0	36469	0	0	0	29911	28530	165925	27038	1058770	45132	111131	0	0	8016	599734	0	0
2024-07-22 03:17:47			0	36467	0	0	0	29911	28520	165913	27182	1058725	45131	111131	0	0	8016	599850	0	0
2024-07-22 03:18:47			0	36461	0	0	0	29911	28530	165901	26994	1058815	45132	111131	0	0	8016	600062	0	0
2024-07-22 03:19:47			0	36481	0	0	0	29911	28530	165961	26967	1058743	45132	111131	0	0	8017	599242	0	0
2024-07-22 03:20:47			0	36480	0	0	0	29914	28540	165945	27102	1058725	45144	111132	0	0	8017	599249	0	0
2024-07-22 03:21:47			0	36477	0	0	0	29906	28520	165913	26786	1058671	45131	111129	0	0	8017	599441	0	0
2024-07-22 03:22:47			0	36480	0	0	0	29898	28530	165893	27140	1058681	45122	111126	0	0	8017	599283	0	0
2024-07-22 03:23:47			0	36473	0	0	0	29893	28510	165925	27090	1058735	45120	111124	0	0	8017	599639	0	0
2024-07-22 03:24:47			0	36473	0	0	0	29890	28520	165789	26776	1058663	45142	111123	0	0	8017	599605	0	0
2024-07-22 03:25:47			0	36486	0	0	0	29893	28510	165781	26937	1058681	45130	111124	0	0	8018	599107	0	0
2024-07-22 03:26:47			0	36476	0	0	0	29890	28520	165793	26967	1058716	45120	111123	0	0	8017	599482	0	0
2024-07-22 03:27:47			0	36471	0	0	0	29890	28510	165641	26908	1058672	45142	111123	0	0	8017	599721	0	0
2024-07-22 03:28:47			0	36500	0	0	0	29893	28510	165841	27232	1058654	45142	111124	0	0	8019	598534	0	0
2024-07-22 03:29:47			0	36480	0	0	0	29885	28510	165797	27284	1058645	45120	111121	0	0	8017	599353	0	0
2024-07-22 03:30:47			0	36469	0	0	0	29870	28500	165849	26996	1058546	45140	111115	0	0	8017	599838	0	0
2024-07-22 03:31:47			0	36469	0	0	0	29875	28500	165921	26850	1058636	45119	111117	0	0	8017	599838	0	0
2024-07-22 03:32:47			0	36468	0	0	0	29870	28490	165849	27206	1058591	45150	111115	0	0	8017	599914	0	0
2024-07-22 03:33:47			0	36488	0	0	0	29867	28500	165789	27286	1058546	45118	111114	0	0	8018	599060	0	0
2024-07-22 03:34:47			0	36474	0	0	0	29867	28490	165881	27137	1058564	45127	111114	0	0	8017	599668	0	0
2024-07-22 03:35:47			0	36475	0	0	0	29859	28480	165941	27268	1058493	45117	111111	0	0	8017	599661	0	0
2024-07-22 03:36:47			0	36483	0	0	0	29851	28490	165797	27085	1058501	45117	111108	0	0	8018	599299	0	0
2024-07-22 03:37:47			0	36499	0	0	0	29857	28500	165721	26991	1058519	45118	111110	0	0	8019	598609	0	0
2024-07-22 03:38:47			0	36485	0	0	0	29846	28480	165821	26840	1058484	45149	111106	0	0	8018	599252	0	0
2024-07-22 03:39:47			0	36491	0	0	0	29846	28470	165821	27095	1058475	45115	111106	0	0	8019	599041	0	0
2024-07-22 03:40:47			0	36486	0	0	0	29841	28470	165837	27038	1058421	45126	111104	0	0	8018	599246	0	0
2024-07-22 03:41:47			0	36478	0	0	0	29838	28470	165697	26899	1058421	45137	111103	0	0	8018	599573	0	0
2024-07-22 03:42:47			0	36484	0	0	0	29828	28460	165897	26864	1058403	45126	111099	0	0	8018	599362	0	0
2024-07-22 03:43:47			0	36489	0	0	0	29833	28460	165761	27071	1058403	45126	111101	0	0	8019	599157	0	0
2024-07-22 03:44:47			0	36488	0	0	0	29828	28460	165781	27208	1058394	45125	111099	0	0	8019	599198	0	0
2024-07-22 03:45:47			0	36476	0	0	0	29828	28450	165805	26937	1058331	45135	111099	0	0	8018	599724	0	0
2024-07-22 03:46:47			0	36483	0	0	0	29828	28460	165841	27039	1058394	45125	111099	0	0	8018	599403	0	0
2024-07-22 03:47:47			0	36474	0	0	0	29823	28450	165877	26883	1058331	45125	111097	0	0	8018	599806	0	0
2024-07-22 03:48:47			0	36476	0	0	0	29820	28450	166009	27345	1058349	45102	111096	0	0	8018	599724	0	0
2024-07-22 03:49:47			0	36476	0	0	0	29820	28450	165993	27178	1058349	45125	111096	0	0	8018	599724	0	0
2024-07-22 03:50:47			0	36452	0	0	0	29810	28440	165977	27187	1058340	45125	111092	0	0	8017	600743	0	0
2024-07-22 03:51:47			0	36449	0	0	0	29820	28450	166089	27071	1058349	45135	111096	0	0	8016	600831	0	0
2024-07-22 03:52:47			0	36425	0	0	0	29815	28450	165993	27078	1058349	45125	111094	0	0	8015	601817	0	0
2024-07-22 03:53:47			0	36445	0	0	0	29812	28430	166017	27315	1058260	45110	111093	0	0	8016	601065	0	0
2024-07-22 03:54:47			0	36431	0	0	0	29807	28430	166089	27008	1058323	45123	111091	0	0	8015	601640	0	0
2024-07-22 03:55:47			0	36418	0	0	0	29805	28430	166177	27241	1058296	45123	111090	0	0	8015	602174	0	0
2024-07-22 03:56:47			0	36415	0	0	0	29792	28430	166257	27142	1058287	45110	111085	0	0	8015	602297	0	0
2024-07-22 03:57:47			0	36410	0	0	0	29789	28430	166201	26963	1058206	45110	111084	0	0	8015	602503	0	0
2024-07-22 03:58:47			0	36419	0	0	0	29786	28420	166265	27317	1058143	45110	111083	0	0	8015	602167	0	0
2024-07-22 03:59:47			0	36405	0	0	0	29776	28420	166261	27182	1058170	45132	111079	0	0	8014	602743	0	0
2024-07-22 04:00:47			0	36398	0	0	0	29781	28420	166257	27209	1058143	45122	111081	0	0	8014	603031	0	0
2024-07-22 04:01:47			0	36406	0	0	0	29779	28420	166317	27098	1058134	45122	111080	0	0	8014	602702	0	0
2024-07-22 04:02:47			0	36414	0	0	0	29776	28410	166309	27152	1058099	45121	111079	0	0	8015	602408	0	0
2024-07-22 04:03:47			0	36398	0	0	0	29761	28400	166305	27409	1058080	45120	111073	0	0	8014	603101	0	0
2024-07-22 04:04:47			0	36400	0	0	0	29768	28400	166273	27185	1058125	45142	111076	0	0	8014	603018	0	0
2024-07-22 04:05:47			0	36404	0	0	0	29758	28400	166337	27140	1058071	45130	111072	0	0	8015	602854	0	0
2024-07-22 04:06:47			0	36411	0	0	0	29758	28400	166365	26783	1058027	45120	111072	0	0	8015	602566	0	0
2024-07-22 04:07:47			0	36382	0	0	0	29745	28400	166233	27312	1057991	45120	111067	0	0	8013	603759	0	0
2024-07-22 04:08:47			0	36390	0	0	0	29740	28380	166321	27163	1057991	45095	111065	0	0	8014	603499	0	0
2024-07-22 04:09:47			0	36369	0	0	0	29750	28380	166497	27372	1057991	45118	111069	0	0	8012	604364	0	0
2024-07-22 04:10:47			0	36350	0	0	0	29742	28370	166517	27248	1058000	45117	111066	0	0	8011	605182	0	0
2024-07-22 04:11:47			0	36365	0	0	0	29742	28380	166585	26961	1057991	45118	111066	0	0	8012	604529	0	0
2024-07-22 04:12:47			0	36335	0	0	0	29745	28370	166677	27156	1057928	45128	111067	0	0	8011	605801	0	0
2024-07-22 04:13:47			0	36322	0	0	0	29740	28370	166745	27185	1057919	45117	111065	0	0	8010	606338	0	0
2024-07-22 04:14:47			0	36302	0	0	0	29740	28370	166773	27154	1057919	45127	111065	0	0	8009	607164	0	0
2024-07-22 04:15:47			0	36296	0	0	0	29742	28370	166821	27192	1057892	45127	111066	0	0	8008	607412	0	0
2024-07-22 04:16:47			0	36280	0	0	0	29732	28370	166793	26963	1057946	45117	111062	0	0	8007	608074	0	0
2024-07-22 04:17:47			0	36296	0	0	0	29735	28360	166825	26807	1057848	45125	111063	0	0	8008	607447	0	0
2024-07-22 04:18:47			0	36272	0	0	0	29727	28360	166853	27130	1057857	45126	111060	0	0	8007	608440	0	0
2024-07-22 04:19:47			0	36255	0	0	0	29729	28360	166905	27100	1057883	45116	111061	0	0	8006	609144	0	0
2024-07-22 04:20:47			0	36279	0	0	0	29724	28350	166869	26948	1057938	45115	111059	0	0	8007	608185	0	0
2024-07-22 04:21:47			0	36278	0	0	0	29719	28350	166829	27433	1057866	45115	111057	0	0	8007	608227	0	0
2024-07-22 04:22:47			0	36274	0	0	0	29724	28350	166825	27079	1057866	45115	111059	0	0	8007	608392	0	0
2024-07-22 04:23:47			0	36274	0	0	0	29709	28350	166865	27232	1057803	45125	111053	0	0	8007	608392	0	0
2024-07-22 04:24:47			0	36268	0	0	0	29703	28340	166929	27085	1057812	45113	111051	0	0	8007	608676	0	0
2024-07-22 04:25:47			0	36280	0	0	0	29698	28340	166865	26873	1057758	45113	111049	0	0	8008	608179	0	0
2024-07-22 04:26:47			0	36290	0	0	0	29706	28330	166825	27246	1057776	45113	111052	0	0	8008	607800	0	0
2024-07-22 04:27:47			0	36286	0	0	0	29706	28340	166793	27105	1057758	45113	111052	0	0	8008	607931	0	0
2024-07-22 04:28:47			0	36305	0	0	0	29698	28330	166861	26956	1057740	45124	111049	0	0	8009	607180	0	0
2024-07-22 04:29:47			0	36321	0	0	0	29703	28330	166761	27116	1057767	45102	111051	0	0	8010	606519	0	0
2024-07-22 04:30:47			0	36338	0	0	0	29696	28320	166705	27220	1057758	45123	111048	0	0	8011	605852	0	0
2024-07-22 04:31:47			0	36325	0	0	0	29698	28320	166625	27225	1057651	45112	111049	0	0	8010	606389	0	0
2024-07-22 04:32:47			0	36346	0	0	0	29683	28320	166613	27365	1057705	45112	111043	0	0	8012	605522	0	0
2024-07-22 04:33:47			0	36335	0	0	0	29685	28320	166593	26975	1057669	45122	111044	0	0	8011	605976	0	0
2024-07-22 04:34:47			0	36348	0	0	0	29672	28310	166613	26967	1057660	45111	111039	0	0	8012	605475	0	0
2024-07-22 04:35:47			0	36363	0	0	0	29670	28320	166561	27261	1057642	45111	111038	0	0	8013	604821	0	0
2024-07-22 04:36:47			0	36355	0	0	0	29670	28300	166501	27258	1057561	45099	111038	0	0	8013	605221	0	0
2024-07-22 04:37:47			0	36366	0	0	0	29670	28300	166485	27118	1057615	45110	111038	0	0	8013	604767	0	0
2024-07-22 04:38:47			0	36388	0	0	0	29657	28300	166509	26981	1057552	45121	111033	0	0	8015	603861	0	0
2024-07-22 04:39:47			0	36377	0	0	0	29664	28300	166413	27293	1057507	45121	111036	0	0	8014	604314	0	0
2024-07-22 04:40:47			0	36387	0	0	0	29667	28290	166481	26849	1057570	45109	111037	0	0	8015	603937	0	0
2024-07-22 04:41:47			0	36394	0	0	0	29657	28280	166441	27190	1057517	45119	111033	0	0	8015	603684	0	0
2024-07-22 04:42:47			0	36400	0	0	0	29631	28280	166409	27150	1057463	45107	111023	0	0	8016	603437	0	0
2024-07-22 04:43:47			0	36415	0	0	0	29633	28270	166277	27168	1057508	45106	111024	0	0	8017	602854	0	0
2024-07-22 04:44:47			0	36422	0	0	0	29628	28270	166201	27112	1057481	45106	111022	0	0	8017	602566	0	0
2024-07-22 04:45:47			0	36407	0	0	0	29623	28270	166301	27086	1057418	45118	111020	0	0	8016	603183	0	0
2024-07-22 04:46:47			0	36413	0	0	0	29631	28270	166317	26972	1057418	45095	111023	0	0	8017	602937	0	0
2024-07-22 04:47:47			0	36403	0	0	0	29620	28260	166397	27150	1057346	45105	111019	0	0	8016	603383	0	0
2024-07-22 04:48:47			0	36384	0	0	0	29615	28250	166421	26915	1057328	45104	111017	0	0	8015	604200	0	0
2024-07-22 04:49:47			0	36360	0	0	0	29599	28230	166537	27036	1057274	45114	111011	0	0	8014	605259	0	0
2024-07-22 04:50:47			0	36315	0	0	0	29592	28240	166725	26863	1057265	45116	111008	0	0	8011	607083	0	0
2024-07-22 04:51:47			0	36282	0	0	0	29586	28240	166929	26982	1057265	45093	111006	0	0	8009	608448	0	0
2024-07-22 04:52:47			0	36228	0	0	0	29584	28240	167161	27145	1057256	45103	111005	0	0	8006	610686	0	0
2024-07-22 04:53:47			0	36194	0	0	0	29579	28220	167357	26753	1057203	45101	111003	0	0	8004	612169	0	0
2024-07-22 04:54:47			0	36158	0	0	0	29584	28220	167529	27015	1057176	45101	111005	0	0	8002	613667	0	0
2024-07-22 04:55:47			0	36131	0	0	0	29581	28220	167589	27294	1057176	45101	111004	0	0	8000	614793	0	0
2024-07-22 04:56:47			0	36107	0	0	0	29571	28220	167633	26937	1057176	45101	111000	0	0	7999	615794	0	0
2024-07-22 04:57:47			0	36090	0	0	0	29571	28210	167709	27121	1057149	45100	111000	0	0	7998	616540	0	0
2024-07-22 04:58:47			0	36101	0	0	0	29563	28190	167785	27145	1057123	45098	110997	0	0	7999	616151	0	0
2024-07-22 04:59:47			0	36105	0	0	0	29576	28200	167745	27107	1057060	45111	111002	0	0	7999	615949	0	0
2024-07-22 05:00:47			0	36100	0	0	0	29568	28200	167769	26823	1057051	45099	110999	0	0	7999	616158	0	0
2024-07-22 05:01:47			0	36102	0	0	0	29573	28190	167729	26939	1057069	45098	111001	0	0	7999	616110	0	0
2024-07-22 05:02:47			0	36088	0	0	0	29555	28180	167921	27053	1056997	45097	110994	0	0	7998	616730	0	0
2024-07-22 05:03:47			0	36078	0	0	0	29555	28180	167861	26967	1056997	45109	110994	0	0	7997	617148	0	0
2024-07-22 05:04:47			0	36056	0	0	0	29555	28180	167969	26786	1056934	45109	110994	0	0	7996	618069	0	0
2024-07-22 05:05:47			0	36040	0	0	0	29558	28170	167977	27090	1056979	45096	110995	0	0	7995	618775	0	0
2024-07-22 05:06:47			0	36033	0	0	0	29555	28180	168209	26779	1056997	45097	110994	0	0	7995	619032	0	0
2024-07-22 05:07:47			0	36024	0	0	0	29550	28180	168117	27135	1057015	45109	110992	0	0	7994	619410	0	0
2024-07-22 05:08:47			0	36005	0	0	0	29553	28170	168225	26977	1056997	45118	110993	0	0	7993	620242	0	0
2024-07-22 05:09:47			0	36025	0	0	0	29540	28170	168197	27176	1056979	45108	110988	0	0	7994	619403	0	0
2024-07-22 05:10:47			0	36004	0	0	0	29548	28150	168253	27098	1056943	45095	110991	0	0	7993	620356	0	0
2024-07-22 05:11:47			0	36005	0	0	0	29537	28160	168125	27235	1056908	45096	110987	0	0	7993	620278	0	0
2024-07-22 05:12:47			0	36009	0	0	0	29537	28160	168093	27098	1056953	45095	110987	0	0	7993	620110	0	0
2024-07-22 05:13:47			0	36024	0	0	0	29540	28160	168205	26909	1056881	45096	110988	0	0	7994	619481	0	0
2024-07-22 05:14:47			0	36008	0	0	0	29535	28150	168345	27095	1056854	45105	110986	0	0	7993	620188	0	0
2024-07-22 05:15:47			0	35987	0	0	0	29524	28150	168325	26974	1056863	45106	110982	0	0	7992	621070	0	0
2024-07-22 05:16:47			0	36004	0	0	0	29535	28150	168217	26991	1056836	45117	110986	0	0	7993	620356	0	0
2024-07-22 05:17:47			0	36001	0	0	0	29524	28150	168213	26847	1056863	45095	110982	0	0	7993	620482	0	0
2024-07-22 05:18:47			0	36011	0	0	0	29511	28150	168189	27261	1056773	45105	110977	0	0	7994	620062	0	0
2024-07-22 05:19:47			0	36004	0	0	0	29519	28140	168269	27144	1056737	45094	110980	0	0	7993	620392	0	0
2024-07-22 05:20:47			0	36011	0	0	0	29514	28140	168197	27234	1056755	45104	110978	0	0	7994	620098	0	0
2024-07-22 05:21:47			0	36004	0	0	0	29493	28130	168225	27131	1056773	45082	110970	0	0	7994	620427	0	0
2024-07-22 05:22:47			0	35997	0	0	0	29493	28130	168181	27317	1056737	45092	110970	0	0	7993	620721	0	0
2024-07-22 05:23:47			0	36001	0	0	0	29490	28130	168253	27229	1056710	45103	110969	0	0	7994	620553	0	0
2024-07-22 05:24:47			0	35989	0	0	0	29483	28120	168273	27119	1056666	45080	110966	0	0	7993	621093	0	0
2024-07-22 05:25:47			0	36016	0	0	0	29485	28120	168229	27071	1056612	45091	110967	0	0	7995	619960	0	0
2024-07-22 05:26:47			0	36017	0	0	0	29477	28120	168261	27209	1056612	45080	110964	0	0	7995	619918	0	0
2024-07-22 05:27:47			0	36023	0	0	0	29467	28110	168249	27038	1056594	45090	110960	0	0	7995	619702	0	0
2024-07-22 05:28:47			0	36021	0	0	0	29467	28090	168281	27124	1056576	45089	110960	0	0	7995	619857	0	0
2024-07-22 05:29:47			0	36025	0	0	0	29459	28100	168169	27251	1056504	45079	110957	0	0	7995	619654	0	0
2024-07-22 05:30:47			0	36022	0	0	0	29451	28090	168173	27046	1056514	45088	110954	0	0	7995	619815	0	0
2024-07-22 05:31:47			0	36016	0	0	0	29444	28080	168101	27173	1056469	45098	110951	0	0	7995	620103	0	0
2024-07-22 05:32:47			0	36019	0	0	0	29436	28080	168105	26991	1056442	45087	110948	0	0	7995	619977	0	0
2024-07-22 05:33:47			0	36035	0	0	0	29431	28070	168225	27046	1056451	45075	110946	0	0	7996	619342	0	0
2024-07-22 05:34:47			0	36033	0	0	0	29433	28060	168161	26972	1056415	45086	110947	0	0	7996	619461	0	0
2024-07-22 05:35:47			0	36027	0	0	0	29441	28060	168165	27123	1056388	45097	110950	0	0	7996	619713	0	0
2024-07-22 05:36:47			0	36030	0	0	0	29438	28070	168181	27055	1056460	45087	110949	0	0	7996	619551	0	0
2024-07-22 05:37:47			0	36045	0	0	0	29444	28060	168201	27071	1056442	45097	110951	0	0	7997	618958	0	0
2024-07-22 05:38:47			0	36040	0	0	0	29431	28070	168093	26856	1056397	45109	110946	0	0	7997	619132	0	0
2024-07-22 05:39:47			0	36046	0	0	0	29428	28060	168081	27235	1056388	45086	110945	0	0	7997	618916	0	0
2024-07-22 05:40:47			0	36042	0	0	0	29420	28060	168145	27005	1056433	45096	110942	0	0	7997	619084	0	0
2024-07-22 05:41:47			0	36054	0	0	0	29423	28050	168129	27059	1056308	45095	110943	0	0	7997	618616	0	0
2024-07-22 05:42:47			0	36061	0	0	0	29410	28050	168225	27372	1056308	45084	110938	0	0	7998	618323	0	0
2024-07-22 05:43:47			0	36061	0	0	0	29405	28040	168105	27154	1056236	45094	110936	0	0	7998	618359	0	0
2024-07-22 05:44:47			0	36055	0	0	0	29399	28030	168121	27088	1056218	45083	110934	0	0	7998	618646	0	0
2024-07-22 05:45:47			0	36065	0	0	0	29397	28030	168005	27048	1056281	45083	110933	0	0	7998	618227	0	0
2024-07-22 05:46:47			0	36068	0	0	0	29397	28030	168133	26916	1056218	45093	110933	0	0	7999	618101	0	0
2024-07-22 05:47:47			0	36072	0	0	0	29394	28020	168041	26795	1056236	45082	110932	0	0	7999	617970	0	0
2024-07-22 05:48:47			0	36071	0	0	0	29399	28030	168101	27244	1056299	45093	110934	0	0	7999	617976	0	0
2024-07-22 05:49:47			0	36069	0	0	0	29399	28010	168181	27031	1056192	45082	110934	0	0	7999	618131	0	0
2024-07-22 05:50:47			0	36066	0	0	0	29397	28020	168117	26965	1056147	45092	110933	0	0	7999	618221	0	0
2024-07-22 05:51:47			0	36048	0	0	0	29384	28010	168041	27093	1056075	45081	110928	0	0	7998	619011	0	0
2024-07-22 05:52:47			0	36059	0	0	0	29381	28010	168009	27079	1056129	45070	110927	0	0	7998	618550	0	0
2024-07-22 05:53:47			0	36068	0	0	0	29376	28000	168113	27327	1056084	45069	110925	0	0	7999	618208	0	0
2024-07-22 05:54:47			0	36050	0	0	0	29374	28000	168121	27296	1056111	45090	110924	0	0	7998	618963	0	0
2024-07-22 05:55:47			0	36066	0	0	0	29379	27990	168081	27260	1056102	45089	110926	0	0	7999	618328	0	0
2024-07-22 05:56:47			0	36063	0	0	0	29366	27990	167989	27275	1056048	45101	110921	0	0	7999	618454	0	0
2024-07-22 05:57:47			0	36056	0	0	0	29353	28000	168033	27298	1056003	45090	110916	0	0	7999	618711	0	0
2024-07-22 05:58:47			0	36057	0	0	0	29348	27980	168133	26953	1056004	45078	110914	0	0	7999	618741	0	0
2024-07-22 05:59:47			0	36041	0	0	0	29342	27970	168113	26847	1055923	45088	110912	0	0	7998	619447	0	0
2024-07-22 06:00:47			0	36036	0	0	0	29340	27980	168249	27157	1055914	45088	110911	0	0	7997	619621	0	0
2024-07-22 06:01:47			0	36037	0	0	0	29345	27970	168277	26785	1055896	45077	110913	0	0	7997	619615	0	0
2024-07-22 06:02:47			0	36011	0	0	0	29335	27960	168305	27090	1055860	45076	110909	0	0	7996	620742	0	0
2024-07-22 06:03:47			0	36000	0	0	0	29335	27950	168393	27105	1055843	45075	110909	0	0	7995	621240	0	0
2024-07-22 06:04:47			0	35991	0	0	0	29340	27950	168409	27022	1055897	45086	110911	0	0	7995	621619	0	0
2024-07-22 06:05:47			0	35991	0	0	0	29358	27950	168641	27142	1055861	45086	110918	0	0	7994	621619	0	0
2024-07-22 06:06:47			0	35985	0	0	0	29366	27950	168533	27215	1055897	45097	110921	0	0	7994	621871	0	0
2024-07-22 06:07:47			0	35974	0	0	0	29376	27950	168533	27208	1055870	45097	110925	0	0	7993	622334	0	0
2024-07-22 06:08:47			0	35977	0	0	0	29381	27950	168613	27194	1055915	45086	110927	0	0	7993	622207	0	0
2024-07-22 06:09:47			0	35983	0	0	0	29394	27960	168657	27215	1055932	45108	110932	0	0	7993	621919	0	0
2024-07-22 06:10:47			0	36006	0	0	0	29397	27950	168621	27251	1055870	45086	110933	0	0	7995	620988	0	0
2024-07-22 06:11:47			0	36010	0	0	0	29392	27950	168509	27079	1055897	45086	110931	0	0	7995	620820	0	0
2024-07-22 06:12:47			0	35986	0	0	0	29397	27950	168449	27241	1055915	45097	110933	0	0	7993	621829	0	0
2024-07-22 06:13:47			0	35965	0	0	0	29407	27950	168625	26981	1055968	45097	110937	0	0	7992	622713	0	0
2024-07-22 06:14:47			0	35901	0	0	0	29412	27960	168909	27123	1056013	45108	110939	0	0	7988	625375	0	0
2024-07-22 06:15:47			0	35827	0	0	0	29410	27960	169220	27185	1056040	45097	110938	0	0	7984	628506	0	0
2024-07-22 06:16:47			0	35734	0	0	0	29412	27960	169700	27119	1056040	45108	110939	0	0	7978	632456	0	0
2024-07-22 06:17:47			0	35646	0	0	0	29402	27960	170116	27336	1056022	45087	110935	0	0	7973	636211	0	0
2024-07-22 06:18:47			0	35559	0	0	0	29399	27970	170516	27020	1056112	45110	110934	0	0	7967	639902	0	0
2024-07-22 06:19:47			0	35477	0	0	0	29402	27980	170876	27085	1056129	45110	110935	0	0	7962	643392	0	0
2024-07-22 06:20:47			0	35414	0	0	0	29392	27980	171208	27076	1056111	45089	110931	0	0	7959	646112	0	0
2024-07-22 06:21:47			0	35340	0	0	0	29381	27980	171516	27436	1056022	45088	110927	0	0	7954	649317	0	0
2024-07-22 06:22:47			0	35265	0	0	0	29355	27980	171804	27258	1056111	45089	110917	0	0	7950	652578	0	0
2024-07-22 06:23:47			0	35217	0	0	0	29353	27980	172076	26880	1056004	45100	110916	0	0	7947	654671	0	0
2024-07-22 06:24:47			0	35158	0	0	0	29342	27970	172368	27152	1055842	45077	110912	0	0	7944	657289	0	0
2024-07-22 06:25:47			0	35106	0	0	0	29327	27960	172695	26922	1055860	45076	110906	0	0	7940	659607	0	0
2024-07-22 06:26:47			0	35083	0	0	0	29324	27950	172735	26998	1055870	45086	110905	0	0	7939	660656	0	0
2024-07-22 06:27:47			0	35054	0	0	0	29319	27960	172847	27071	1055878	45086	110903	0	0	7937	661893	0	0
2024-07-22 06:28:47			0	35047	0	0	0	29309	27950	173039	27161	1055843	45086	110899	0	0	7937	662239	0	0
2024-07-22 06:29:47			0	35029	0	0	0	29311	27950	173071	27320	1055897	45086	110900	0	0	7936	663033	0	0
2024-07-22 06:30:47			0	35023	0	0	0	29316	27950	173131	27391	1055807	45075	110902	0	0	7935	663297	0	0
2024-07-22 06:31:47			0	35007	0	0	0	29314	27950	173087	27152	1055843	45064	110901	0	0	7934	664003	0	0
2024-07-22 06:32:47			0	35009	0	0	0	29319	27930	173095	27204	1055888	45084	110903	0	0	7934	663991	0	0
2024-07-22 06:33:47			0	35021	0	0	0	29324	27940	173047	27048	1055843	45084	110905	0	0	7935	663423	0	0
2024-07-22 06:34:47			0	35044	0	0	0	29324	27940	172999	27208	1055852	45085	110905	0	0	7937	662410	0	0
2024-07-22 06:35:47			0	35044	0	0	0	29327	27950	172843	27038	1055834	45097	110906	0	0	7937	662372	0	0
2024-07-22 06:36:47			0	35081	0	0	0	29324	27940	172923	27317	1055816	45106	110905	0	0	7939	660781	0	0
2024-07-22 06:37:47			0	35094	0	0	0	29327	27940	172771	26878	1055816	45084	110906	0	0	7940	660210	0	0
2024-07-22 06:38:47			0	35110	0	0	0	29324	27940	172712	27130	1055789	45084	110905	0	0	7941	659507	0	0
2024-07-22 06:39:47			0	35126	0	0	0	29329	27940	172748	27112	1055879	45085	110907	0	0	7942	658805	0	0
2024-07-22 06:40:47			0	35148	0	0	0	29322	27950	172504	27086	1055807	45075	110904	0	0	7943	657803	0	0
2024-07-22 06:41:47			0	35160	0	0	0	29322	27930	172456	27187	1055780	45095	110904	0	0	7944	657353	0	0
2024-07-22 06:42:47			0	35184	0	0	0	29316	27930	172324	27029	1055718	45073	110902	0	0	7945	656303	0	0
2024-07-22 06:43:47			0	35190	0	0	0	29311	27930	172272	27428	1055718	45073	110900	0	0	7946	656040	0	0
2024-07-22 06:44:47			0	35197	0	0	0	29303	27910	172220	27353	1055664	45059	110897	0	0	7946	655810	0	0
2024-07-22 06:45:47			0	35229	0	0	0	29309	27930	172248	26991	1055691	45073	110899	0	0	7948	654336	0	0
2024-07-22 06:46:47			0	35247	0	0	0	29301	27920	172012	27197	1055673	45083	110896	0	0	7950	653589	0	0
2024-07-22 06:47:47			0	35254	0	0	0	29298	27920	171972	27189	1055673	45083	110895	0	0	7950	653283	0	0
2024-07-22 06:48:47			0	35280	0	0	0	29301	27910	171964	27275	1055628	45070	110896	0	0	7952	652188	0	0
2024-07-22 06:49:47			0	35308	0	0	0	29293	27900	171840	27178	1055592	45070	110893	0	0	7953	651007	0	0
2024-07-22 06:50:47			0	35295	0	0	0	29293	27900	171736	27251	1055646	45082	110893	0	0	7953	651573	0	0
2024-07-22 06:51:47			0	35308	0	0	0	29303	27890	171688	27213	1055628	45080	110897	0	0	7953	651045	0	0
2024-07-22 06:52:47			0	35323	0	0	0	29301	27900	171696	27308	1055592	45092	110896	0	0	7954	650355	0	0
2024-07-22 06:53:47			0	35345	0	0	0	29301	27890	171600	27235	1055494	45068	110896	0	0	7955	649437	0	0
2024-07-22 06:54:47			0	35347	0	0	0	29293	27890	171500	27365	1055547	45068	110893	0	0	7956	649351	0	0
2024-07-22 06:55:47			0	35371	0	0	0	29280	27880	171488	27409	1055449	45068	110888	0	0	7957	648347	0	0
2024-07-22 06:56:47			0	35373	0	0	0	29270	27870	171520	27076	1055395	45078	110884	0	0	7958	648298	0	0
2024-07-22 06:57:47			0	35377	0	0	0	29267	27870	171436	27336	1055395	45078	110883	0	0	7958	648124	0	0
2024-07-22 06:58:47			0	35400	0	0	0	29270	27860	171344	27187	1055413	45088	110884	0	0	7959	647165	0	0
2024-07-22 06:59:47			0	35417	0	0	0	29270	27870	171228	27545	1055395	45066	110884	0	0	7960	646392	0	0
2024-07-22 07:00:47			0	35422	0	0	0	29280	27870	171136	27599	1055449	45088	110888	0	0	7960	646176	0	0
2024-07-22 07:01:47			0	35446	0	0	0	29283	27860	171172	27741	1055413	45078	110889	0	0	7962	645176	0	0
2024-07-22 07:02:47			0	35455	0	0	0	29275	27860	171084	27253	1055360	45088	110886	0	0	7963	644787	0	0
2024-07-22 07:03:47			0	35465	0	0	0	29285	27860	170980	27455	1055404	45087	110890	0	0	7963	644355	0	0
2024-07-22 07:04:47			0	35462	0	0	0	29272	27860	171020	27291	1055404	45099	110885	0	0	7963	644485	0	0
2024-07-22 07:05:47			0	35467	0	0	0	29251	27850	170884	27275	1055315	45086	110877	0	0	7964	644306	0	0
2024-07-22 07:06:47			0	35500	0	0	0	29259	27850	170812	27783	1055342	45076	110880	0	0	7966	642883	0	0
2024-07-22 07:07:47			0	35511	0	0	0	29264	27850	170752	27355	1055396	45076	110882	0	0	7966	642409	0	0
2024-07-22 07:08:47			0	35531	0	0	0	29267	27850	170724	27351	1055360	45097	110883	0	0	7967	641548	0	0
2024-07-22 07:09:47			0	35535	0	0	0	29277	27860	170612	27486	1055485	45110	110887	0	0	7967	641339	0	0
2024-07-22 07:10:47			0	35568	0	0	0	29272	27860	170360	27524	1055413	45111	110885	0	0	7970	639921	0	0
2024-07-22 07:11:47			0	35610	0	0	0	29275	27870	170328	27926	1055485	45123	110886	0	0	7972	638082	0	0
2024-07-22 07:12:47			0	35619	0	0	0	29272	27870	170192	27424	1055476	45088	110885	0	0	7973	637697	0	0
2024-07-22 07:13:47			0	35657	0	0	0	29272	27860	170168	27289	1055440	45088	110885	0	0	7975	636107	0	0
2024-07-22 07:14:47			0	35677	0	0	0	29277	27860	170024	27364	1055360	45111	110887	0	0	7976	635253	0	0
2024-07-22 07:15:47			0	35692	0	0	0	29275	27860	169972	27478	1055440	45088	110886	0	0	7977	634612	0	0
2024-07-22 07:16:47			0	35692	0	0	0	29270	27860	170044	27854	1055485	45087	110884	0	0	7977	634612	0	0
2024-07-22 07:17:47			0	35697	0	0	0	29267	27860	169880	27400	1055404	45087	110883	0	0	7978	634399	0	0
2024-07-22 07:18:47			0	35678	0	0	0	29275	27870	170044	27485	1055503	45088	110886	0	0	7976	635173	0	0
2024-07-22 07:19:47			0	35699	0	0	0	29270	27860	169924	27395	1055440	45088	110884	0	0	7978	634313	0	0
2024-07-22 07:20:47			0	35700	0	0	0	29275	27860	169972	27154	1055467	45088	110886	0	0	7978	634271	0	0
2024-07-22 07:21:47			0	35680	0	0	0	29283	27870	170108	27608	1055485	45078	110889	0	0	7976	635088	0	0
2024-07-22 07:22:47			0	35690	0	0	0	29277	27870	169996	27559	1055566	45100	110887	0	0	7977	634661	0	0
2024-07-22 07:23:47			0	35678	0	0	0	29277	27880	170020	27486	1055601	45089	110887	0	0	7976	635137	0	0
2024-07-22 07:24:47			0	35686	0	0	0	29280	27870	170068	27689	1055530	45100	110888	0	0	7977	634832	0	0
2024-07-22 07:25:47			0	35691	0	0	0	29288	27870	169960	27176	1055512	45088	110891	0	0	7977	634618	0	0
2024-07-22 07:26:47			0	35687	0	0	0	29288	27880	170080	27720	1055610	45090	110891	0	0	7977	634752	0	0
2024-07-22 07:27:47			0	35681	0	0	0	29277	27880	170016	27512	1055557	45090	110887	0	0	7976	635008	0	0
2024-07-22 07:28:47			0	35691	0	0	0	29262	27880	170032	27613	1055557	45090	110881	0	0	7977	634581	0	0
2024-07-22 07:29:47			0	35672	0	0	0	29280	27890	169972	27616	1055565	45090	110888	0	0	7976	635356	0	0
2024-07-22 07:30:47			0	35683	0	0	0	29280	27870	169992	27788	1055485	45088	110888	0	0	7976	634960	0	0
2024-07-22 07:31:47			0	35687	0	0	0	29277	27890	169876	27474	1055565	45080	110887	0	0	7977	634716	0	0
2024-07-22 07:32:47			0	35693	0	0	0	29267	27880	169992	27530	1055557	45080	110883	0	0	7977	634496	0	0
2024-07-22 07:33:47			0	35699	0	0	0	29241	27880	169964	27753	1055548	45067	110873	0	0	7978	634240	0	0
2024-07-22 07:34:47			0	35671	0	0	0	29238	27880	169864	27627	1055413	45079	110872	0	0	7977	635436	0	0
2024-07-22 07:35:47			0	35692	0	0	0	29223	27870	169872	27578	1055350	45078	110866	0	0	7978	634575	0	0
2024-07-22 07:36:47			0	35711	0	0	0	29215	27860	169792	27576	1055270	45077	110863	0	0	7979	633801	0	0
2024-07-22 07:37:47			0	35702	0	0	0	29210	27840	169908	27816	1055351	45064	110861	0	0	7979	634258	0	0
2024-07-22 07:38:47			0	35719	0	0	0	29220	27850	169880	27268	1055279	45075	110865	0	0	7980	633497	0	0
2024-07-22 07:39:47			0	35706	0	0	0	29228	27840	169936	27390	1055243	45075	110868	0	0	7979	634088	0	0
2024-07-22 07:40:47			0	35702	0	0	0	29225	27850	169980	27741	1055333	45097	110867	0	0	7978	634222	0	0
2024-07-22 07:41:47			0	35692	0	0	0	29231	27840	169968	27644	1055324	45085	110869	0	0	7978	634685	0	0
2024-07-22 07:42:47			0	35669	0	0	0	29223	27840	170040	27561	1055324	45097	110866	0	0	7976	635668	0	0
2024-07-22 07:43:47			0	35679	0	0	0	29218	27840	170080	27914	1055369	45075	110864	0	0	7977	635240	0	0
2024-07-22 07:44:47			0	35653	0	0	0	29218	27840	170040	27364	1055243	45075	110864	0	0	7976	636352	0	0
2024-07-22 07:45:47			0	35639	0	0	0	29223	27850	170172	27327	1055360	45075	110866	0	0	7975	636914	0	0
2024-07-22 07:46:47			0	35628	0	0	0	29225	27840	170212	27703	1055351	45085	110867	0	0	7974	637422	0	0
2024-07-22 07:47:47			0	35599	0	0	0	29225	27850	170140	27561	1055360	45064	110867	0	0	7972	638628	0	0
2024-07-22 07:48:47			0	35598	0	0	0	29202	27840	170320	27457	1055270	45075	110858	0	0	7972	638707	0	0
2024-07-22 07:49:47			0	35589	0	0	0	29184	27830	170324	27196	1055244	45073	110851	0	0	7972	639130	0	0
2024-07-22 07:50:47			0	35605	0	0	0	29150	27840	170352	27161	1055181	45064	110838	0	0	7974	638407	0	0
2024-07-22 07:51:47			0	35609	0	0	0	29127	27830	170236	27204	1055028	45062	110829	0	0	7974	638272	0	0
2024-07-22 07:52:47			0	35647	0	0	0	29098	27810	170124	27327	1055029	45049	110818	0	0	7977	636718	0	0
2024-07-22 07:53:47			0	35687	0	0	0	29075	27790	169920	26970	1054939	45059	110809	0	0	7980	635082	0	0
2024-07-22 07:54:47			0	35717	0	0	0	29054	27790	169700	27157	1054912	45037	110801	0	0	7982	633801	0	0
2024-07-22 07:55:47			0	35752	0	0	0	29051	27770	169512	26960	1054724	45057	110800	0	0	7984	632383	0	0
2024-07-22 07:56:47			0	35791	0	0	0	29051	27760	169372	27229	1054751	45055	110800	0	0	7986	630760	0	0
2024-07-22 07:57:47			0	35812	0	0	0	29051	27760	169336	27203	1054751	45043	110800	0	0	7988	629868	0	0
2024-07-22 07:58:47			0	35808	0	0	0	29054	27760	169280	27149	1054778	45055	110801	0	0	7987	630037	0	0
2024-07-22 07:59:47			0	35813	0	0	0	29044	27740	169396	27022	1054689	45064	110797	0	0	7988	629898	0	0
2024-07-22 08:00:47			0	35805	0	0	0	29033	27740	169340	27024	1054742	45053	110793	0	0	7987	630237	0	0
2024-07-22 08:01:47			0	35786	0	0	0	29020	27730	169484	27409	1054590	45053	110788	0	0	7986	631081	0	0
2024-07-22 08:02:47			0	35756	0	0	0	29007	27720	169648	27171	1054546	45051	110783	0	0	7985	632394	0	0
2024-07-22 08:03:47			0	35729	0	0	0	28994	27700	169788	27267	1054483	45039	110778	0	0	7983	633618	0	0
2024-07-22 08:04:47			0	35682	0	0	0	28979	27700	170024	27121	1054376	45039	110772	0	0	7981	635625	0	0
2024-07-22 08:05:47			0	35651	0	0	0	28973	27690	170188	27119	1054331	45038	110770	0	0	7979	636987	0	0
2024-07-22 08:06:47			0	35577	0	0	0	28958	27680	170560	26875	1054349	45048	110764	0	0	7974	640198	0	0
2024-07-22 08:07:47			0	35513	0	0	0	28948	27680	170816	27119	1054313	45047	110760	0	0	7971	642952	0	0
2024-07-22 08:08:47			0	35466	0	0	0	28927	27660	171132	27204	1054206	45058	110752	0	0	7968	645055	0	0
2024-07-22 08:09:47			0	35399	0	0	0	28916	27650	171460	27371	1054152	45034	110748	0	0	7964	647992	0	0
2024-07-22 08:10:47			0	35331	0	0	0	28909	27640	171712	27246	1054089	45021	110745	0	0	7960	650982	0	0
2024-07-22 08:11:47			0	35279	0	0	0	28901	27620	172020	27651	1054027	45019	110742	0	0	7957	653322	0	0
2024-07-22 08:12:47			0	35226	0	0	0	28911	27610	172312	27518	1053982	45041	110746	0	0	7953	655675	0	0
2024-07-22 08:13:47			0	35206	0	0	0	28916	27610	172384	27222	1054009	45052	110748	0	0	7952	656550	0	0
2024-07-22 08:14:47			0	35154	0	0	0	28914	27590	172560	27287	1053991	45049	110747	0	0	7949	658905	0	0
2024-07-22 08:15:47			0	35138	0	0	0	28906	27600	172648	26927	1053955	45051	110744	0	0	7948	659570	0	0
2024-07-22 08:16:47			0	35109	0	0	0	28898	27590	172824	27542	1053920	45039	110741	0	0	7946	660882	0	0
2024-07-22 08:17:47			0	35083	0	0	0	28888	27590	172931	27478	1053857	45027	110737	0	0	7945	662027	0	0
2024-07-22 08:18:47			0	35069	0	0	0	28888	27580	173067	27098	1053902	45038	110737	0	0	7944	662682	0	0
2024-07-22 08:19:47			0	35054	0	0	0	28880	27570	173139	27313	1053830	45037	110734	0	0	7943	663382	0	0
2024-07-22 08:20:47			0	35044	0	0	0	28877	27560	173247	27339	1053813	45025	110733	0	0	7942	663861	0	0
2024-07-22 08:21:47			0	35020	0	0	0	28867	27560	173271	27249	1053804	45046	110729	0	0	7941	664921	0	0
2024-07-22 08:22:47			0	35003	0	0	0	28870	27550	173419	27308	1053768	45024	110730	0	0	7940	665711	0	0
2024-07-22 08:23:47			0	34995	0	0	0	28857	27550	173435	27237	1053768	45035	110725	0	0	7939	666065	0	0
2024-07-22 08:24:47			0	34989	0	0	0	28854	27550	173507	27213	1053741	45035	110724	0	0	7939	666331	0	0
2024-07-22 08:25:47			0	34986	0	0	0	28857	27550	173595	27454	1053678	45045	110725	0	0	7939	666464	0	0
2024-07-22 08:26:47			0	34964	0	0	0	28854	27540	173603	27433	1053687	45044	110724	0	0	7937	667476	0	0
2024-07-22 08:27:47			0	34960	0	0	0	28846	27530	173611	27279	1053669	45010	110721	0	0	7937	667692	0	0
2024-07-22 08:28:47			0	34954	0	0	0	28844	27530	173787	27286	1053571	45034	110720	0	0	7937	667958	0	0
2024-07-22 08:29:47			0	34935	0	0	0	28838	27510	173783	27417	1053571	45032	110718	0	0	7936	668878	0	0
2024-07-22 08:30:47			0	34926	0	0	0	28823	27510	173907	27367	1053544	45032	110712	0	0	7935	669278	0	0
2024-07-22 08:31:47			0	34919	0	0	0	28838	27510	173779	27319	1053562	45031	110718	0	0	7935	669589	0	0
2024-07-22 08:32:47			0	34916	0	0	0	28838	27490	173771	27310	1053536	45041	110718	0	0	7934	669799	0	0
2024-07-22 08:33:47			0	34908	0	0	0	28849	27490	173915	27485	1053536	45041	110722	0	0	7934	670155	0	0
2024-07-22 08:34:47			0	34922	0	0	0	28841	27500	173955	27164	1053598	45041	110719	0	0	7935	669494	0	0
2024-07-22 08:35:47			0	34910	0	0	0	28859	27500	173875	27140	1053571	45030	110726	0	0	7934	670027	0	0
2024-07-22 08:36:47			0	34908	0	0	0	28859	27500	173871	27310	1053571	45041	110726	0	0	7934	670116	0	0
2024-07-22 08:37:47			0	34891	0	0	0	28838	27500	173967	27284	1053544	45051	110718	0	0	7933	670872	0	0
2024-07-22 08:38:47			0	34907	0	0	0	28831	27490	173975	27592	1053536	45018	110715	0	0	7934	670199	0	0
2024-07-22 08:39:47			0	34894	0	0	0	28823	27480	173935	27516	1053518	45040	110712	0	0	7933	670816	0	0
2024-07-22 08:40:47			0	34910	0	0	0	28828	27480	173971	27409	1053491	45029	110714	0	0	7934	670104	0	0
2024-07-22 08:41:47			0	34907	0	0	0	28841	27480	173927	27229	1053509	45028	110719	0	0	7934	670238	0	0
2024-07-22 08:42:47			0	34929	0	0	0	28841	27490	173867	27284	1053500	45029	110719	0	0	7935	669222	0	0
2024-07-22 08:43:47			0	34915	0	0	0	28846	27480	173803	27569	1053518	45050	110721	0	0	7934	669882	0	0
2024-07-22 08:44:47			0	34938	0	0	0	28854	27490	173879	27237	1053536	45041	110724	0	0	7935	668822	0	0
2024-07-22 08:45:47			0	34943	0	0	0	28857	27490	173771	27538	1053536	45041	110725	0	0	7936	668600	0	0
2024-07-22 08:46:47			0	34953	0	0	0	28854	27500	173719	27485	1053544	45030	110724	0	0	7936	668118	0	0
2024-07-22 08:47:47			0	34956	0	0	0	28854	27490	173751	27607	1053554	45040	110724	0	0	7937	668023	0	0
2024-07-22 08:48:47			0	34958	0	0	0	28846	27490	173663	27462	1053473	45040	110721	0	0	7937	667935	0	0
2024-07-22 08:49:47			0	34965	0	0	0	28836	27490	173659	27341	1053554	45040	110717	0	0	7937	667624	0	0
2024-07-22 08:50:47			0	34969	0	0	0	28828	27480	173571	27209	1053572	45029	110714	0	0	7938	667485	0	0
2024-07-22 08:51:47			0	34977	0	0	0	28833	27490	173563	27156	1053500	45029	110716	0	0	7938	667092	0	0
2024-07-22 08:52:47			0	34983	0	0	0	28851	27480	173523	27034	1053482	45028	110723	0	0	7938	666865	0	0
2024-07-22 08:53:47			0	35008	0	0	0	28875	27490	173467	27161	1053500	45050	110732	0	0	7939	665720	0	0
2024-07-22 08:54:47			0	35024	0	0	0	28893	27480	173387	27229	1053598	45050	110739	0	0	7940	665051	0	0
2024-07-22 08:55:47			0	35070	0	0	0	28893	27490	173179	27263	1053580	45050	110739	0	0	7943	662981	0	0
2024-07-22 08:56:47			0	35135	0	0	0	28911	27500	172864	27421	1053625	45041	110746	0	0	7947	660081	0	0
2024-07-22 08:57:47			0	35195	0	0	0	28896	27500	172552	27429	1053715	45052	110740	0	0	7951	657447	0	0
2024-07-22 08:58:47			0	35225	0	0	0	28903	27500	172336	27336	1053661	45052	110743	0	0	7953	656134	0	0
2024-07-22 08:59:47			0	35246	0	0	0	28901	27510	172280	26814	1053705	45053	110742	0	0	7954	655177	0	0
2024-07-22 09:00:47			0	35239	0	0	0	28898	27510	172352	27059	1053724	45052	110741	0	0	7954	655483	0	0
2024-07-22 09:01:47			0	35226	0	0	0	28919	27520	172372	27296	1053741	45042	110749	0	0	7953	656014	0	0
2024-07-22 09:02:47			0	35239	0	0	0	28945	27530	172288	27015	1053750	45043	110759	0	0	7953	655408	0	0
2024-07-22 09:03:47			0	35324	0	0	0	28945	27530	171968	27078	1053831	45043	110759	0	0	7958	651699	0	0
2024-07-22 09:04:47			0	35343	0	0	0	28958	27530	171984	27130	1053840	45044	110764	0	0	7959	650872	0	0
2024-07-22 09:05:47			0	35300	0	0	0	28955	27540	172020	27204	1053849	45055	110763	0	0	7957	652707	0	0
2024-07-22 09:06:47			0	35304	0	0	0	28950	27540	171964	27114	1053804	45068	110761	0	0	7957	652533	0	0
2024-07-22 09:07:47			0	35215	0	0	0	28893	27540	172504	27062	1053768	45034	110739	0	0	7952	656420	0	0
2024-07-22 09:08:47			0	35112	0	0	0	28864	27540	173000	27225	1053723	45023	110728	0	0	7946	660941	0	0
2024-07-22 09:09:47			0	35020	0	0	0	28857	27530	173295	27284	1053669	45033	110725	0	0	7941	665036	0	0
2024-07-22 09:10:47			0	34955	0	0	0	28833	27500	173679	27203	1053580	45019	110716	0	0	7937	668029	0	0
2024-07-22 09:11:47			0	34908	0	0	0	28831	27500	173959	27066	1053526	45031	110715	0	0	7934	670116	0	0
2024-07-22 09:12:47			0	34881	0	0	0	28836	27490	174231	27279	1053455	45007	110717	0	0	7932	671356	0	0
2024-07-22 09:13:47			0	34845	0	0	0	28831	27500	174307	27177	1053553	45019	110715	0	0	7930	672922	0	0
2024-07-22 09:14:47			0	34822	0	0	0	28846	27490	174387	27338	1053446	45029	110721	0	0	7928	673987	0	0
2024-07-22 09:15:47			0	34824	0	0	0	28872	27500	174427	27343	1053580	45041	110731	0	0	7928	673859	0	0
2024-07-22 09:16:47			0	34811	0	0	0	28851	27490	174491	27362	1053580	45050	110723	0	0	7927	674478	0	0
2024-07-22 09:17:47			0	34798	0	0	0	28836	27490	174511	27232	1053536	45030	110717	0	0	7927	675059	0	0
2024-07-22 09:18:47			0	34795	0	0	0	28851	27490	174407	27294	1053527	45040	110723	0	0	7926	675193	0	0
2024-07-22 09:19:47			0	34831	0	0	0	28851	27490	174411	27284	1053500	45040	110723	0	0	7929	673585	0	0
2024-07-22 09:20:47			0	34858	0	0	0	28846	27490	174331	27687	1053562	45041	110721	0	0	7931	672381	0	0
2024-07-22 09:21:47			0	34885	0	0	0	28849	27480	174167	27270	1053563	45028	110722	0	0	7932	671217	0	0
2024-07-22 09:22:47			0	34887	0	0	0	28828	27480	174067	27112	1053437	45040	110714	0	0	7933	671128	0	0
2024-07-22 09:23:47			0	34909	0	0	0	28810	27480	173971	27225	1053437	45029	110707	0	0	7934	670149	0	0
2024-07-22 09:24:47			0	34939	0	0	0	28792	27460	173831	27597	1053402	45026	110700	0	0	7936	668893	0	0
2024-07-22 09:25:47			0	34954	0	0	0	28781	27480	173679	27095	1053428	45028	110696	0	0	7938	668151	0	0
2024-07-22 09:26:47			0	34969	0	0	0	28781	27470	173767	27199	1053366	45028	110696	0	0	7939	667524	0	0
2024-07-22 09:27:47			0	34956	0	0	0	28802	27460	173759	27300	1053366	45014	110704	0	0	7937	668138	0	0
2024-07-22 09:28:47			0	34972	0	0	0	28794	27460	173743	27223	1053429	45037	110701	0	0	7938	667429	0	0
2024-07-22 09:29:47			0	34974	0	0	0	28805	27460	173751	27227	1053366	45026	110705	0	0	7938	667340	0	0
2024-07-22 09:30:47			0	34981	0	0	0	28831	27460	173723	26956	1053393	45048	110715	0	0	7938	667030	0	0
2024-07-22 09:31:47			0	34968	0	0	0	28818	27460	173715	27249	1053455	45048	110710	0	0	7938	667606	0	0
2024-07-22 09:32:47			0	34982	0	0	0	28799	27450	173695	27204	1053357	45026	110703	0	0	7939	667024	0	0
2024-07-22 09:33:47			0	34993	0	0	0	28758	27450	173635	27147	1053223	45026	110687	0	0	7940	666537	0	0
2024-07-22 09:34:47			0	35001	0	0	0	28748	27450	173579	27076	1053267	45013	110683	0	0	7941	666183	0	0
2024-07-22 09:35:47			0	34989	0	0	0	28755	27440	173587	27331	1053169	45024	110686	0	0	7940	666753	0	0
2024-07-22 09:36:47			0	35013	0	0	0	28750	27430	173455	27012	1053160	45024	110684	0	0	7942	665728	0	0
2024-07-22 09:37:47			0	35006	0	0	0	28753	27430	173455	27343	1053232	45034	110685	0	0	7941	666038	0	0
2024-07-22 09:38:47			0	35043	0	0	0	28745	27420	173443	27459	1053134	45022	110682	0	0	7944	664440	0	0
2024-07-22 09:39:47			0	35031	0	0	0	28727	27430	173363	27149	1053178	45034	110675	0	0	7943	664932	0	0
2024-07-22 09:40:47			0	35054	0	0	0	28701	27420	173359	27246	1053080	45022	110665	0	0	7945	663954	0	0
2024-07-22 09:41:47			0	35073	0	0	0	28732	27420	173319	27358	1053089	45022	110677	0	0	7946	663116	0	0
2024-07-22 09:42:47			0	35092	0	0	0	28753	27410	173327	27542	1053142	45032	110685	0	0	7946	662316	0	0
2024-07-22 09:43:47			0	35098	0	0	0	28792	27410	173187	27332	1053205	45032	110700	0	0	7946	662052	0	0
2024-07-22 09:44:47			0	35103	0	0	0	28786	27410	173179	27343	1053169	45032	110698	0	0	7947	661831	0	0
2024-07-22 09:45:47			0	35124	0	0	0	28768	27420	173172	27512	1053160	45033	110691	0	0	7948	660869	0	0
2024-07-22 09:46:47			0	35139	0	0	0	28771	27420	172996	27289	1053241	45022	110692	0	0	7949	660209	0	0
2024-07-22 09:47:47			0	35158	0	0	0	28776	27410	172844	27038	1053169	45032	110694	0	0	7950	659412	0	0
2024-07-22 09:48:47			0	35192	0	0	0	28771	27410	172748	27092	1053179	45032	110692	0	0	7952	657919	0	0
2024-07-22 09:49:47			0	35200	0	0	0	28779	27410	172696	27194	1053179	45021	110695	0	0	7953	657568	0	0
2024-07-22 09:50:47			0	35232	0	0	0	28776	27410	172616	27227	1053205	45021	110694	0	0	7955	656167	0	0
2024-07-22 09:51:47			0	35238	0	0	0	28789	27420	172440	27034	1053250	45044	110699	0	0	7955	655866	0	0
2024-07-22 09:52:47			0	35280	0	0	0	28810	27430	172376	27144	1053232	45034	110707	0	0	7957	653993	0	0
2024-07-22 09:53:47			0	35299	0	0	0	28841	27430	172280	27189	1053393	45045	110719	0	0	7958	653164	0	0
2024-07-22 09:54:47			0	35356	0	0	0	28864	27450	171848	26844	1053429	45047	110728	0	0	7961	650606	0	0
2024-07-22 09:55:47			0	35412	0	0	0	28875	27450	171748	26986	1053429	45036	110732	0	0	7964	648174	0	0
2024-07-22 09:56:47			0	35430	0	0	0	28916	27460	171524	27315	1053563	45070	110748	0	0	7965	647356	0	0
2024-07-22 09:57:47			0	35413	0	0	0	28940	27470	171604	27261	1053688	45072	110757	0	0	7964	648056	0	0
2024-07-22 09:58:47			0	35374	0	0	0	28958	27490	171752	27140	1053742	45062	110764	0	0	7961	649674	0	0
2024-07-22 09:59:47			0	35299	0	0	0	28981	27500	172048	27147	1053894	45063	110773	0	0	7956	652901	0	0
2024-07-22 10:00:47			0	35261	0	0	0	28989	27510	172360	27280	1053840	45076	110776	0	0	7953	654522	0	0
2024-07-22 10:01:47			0	35202	0	0	0	28981	27530	172588	27090	1053938	45077	110773	0	0	7950	657027	0	0
2024-07-22 10:02:47			0	35187	0	0	0	28994	27540	172656	27230	1053956	45055	110778	0	0	7949	657647	0	0
2024-07-22 10:03:47			0	35156	0	0	0	29033	27540	172836	27230	1054019	45068	110793	0	0	7946	659007	0	0
2024-07-22 10:04:47			0	35165	0	0	0	29057	27550	172832	27031	1054091	45069	110802	0	0	7947	658574	0	0
2024-07-22 10:05:47			0	35141	0	0	0	29075	27580	172756	26989	1054189	45059	110809	0	0	7945	659514	0	0
2024-07-22 10:06:47			0	35121	0	0	0	29077	27590	172900	27443	1054323	45073	110810	0	0	7944	660355	0	0
2024-07-22 10:07:47			0	35080	0	0	0	29080	27600	173051	27126	1054251	45074	110811	0	0	7941	662121	0	0
2024-07-22 10:08:47			0	35044	0	0	0	29083	27600	173259	27263	1054368	45062	110812	0	0	7939	663709	0	0
2024-07-22 10:09:47			0	35041	0	0	0	29083	27620	173279	27033	1054394	45075	110812	0	0	7939	663764	0	0
2024-07-22 10:10:47			0	35012	0	0	0	29088	27620	173355	27149	1054376	45064	110814	0	0	7937	665045	0	0
2024-07-22 10:11:47			0	34990	0	0	0	29090	27630	173423	27469	1054448	45054	110815	0	0	7935	665980	0	0
2024-07-22 10:12:47			0	34987	0	0	0	29085	27640	173411	27156	1054403	45066	110813	0	0	7935	666074	0	0
2024-07-22 10:13:47			0	34984	0	0	0	29083	27640	173507	27064	1054466	45055	110812	0	0	7935	666207	0	0
2024-07-22 10:14:47			0	34971	0	0	0	29093	27650	173395	27267	1054475	45056	110816	0	0	7934	666744	0	0
2024-07-22 10:15:47			0	34977	0	0	0	29088	27650	173563	27164	1054484	45067	110814	0	0	7935	666478	0	0
2024-07-22 10:16:47			0	34973	0	0	0	29080	27640	173575	27481	1054547	45066	110811	0	0	7935	666694	0	0
2024-07-22 10:17:47			0	34975	0	0	0	29088	27660	173495	27402	1054556	45058	110814	0	0	7935	666529	0	0
2024-07-22 10:18:47			0	34966	0	0	0	29093	27660	173479	27249	1054475	45080	110816	0	0	7934	666927	0	0
2024-07-22 10:19:47			0	34955	0	0	0	29075	27660	173475	27211	1054556	45058	110809	0	0	7934	667414	0	0
2024-07-22 10:20:47			0	34984	0	0	0	29085	27670	173443	27507	1054564	45069	110813	0	0	7935	666092	0	0
2024-07-22 10:21:47			0	34968	0	0	0	29083	27670	173391	27100	1054564	45046	110812	0	0	7934	666800	0	0
2024-07-22 10:22:47			0	34999	0	0	0	29083	27670	173475	27282	1054511	45058	110812	0	0	7936	665428	0	0
2024-07-22 10:23:47			0	35017	0	0	0	29062	27670	173299	26816	1054511	45036	110804	0	0	7938	664633	0	0
2024-07-22 10:24:47			0	35029	0	0	0	29062	27670	173147	27206	1054520	45046	110804	0	0	7939	664103	0	0
2024-07-22 10:25:47			0	35070	0	0	0	29075	27670	172879	27251	1054564	45058	110809	0	0	7941	662295	0	0
2024-07-22 10:26:47			0	35117	0	0	0	29072	27680	172740	27206	1054501	45070	110808	0	0	7944	660189	0	0
2024-07-22 10:27:47			0	35158	0	0	0	29064	27680	172568	27322	1054475	45058	110805	0	0	7947	658388	0	0
2024-07-22 10:28:47			0	35218	0	0	0	29070	27670	172288	27116	1054520	45058	110807	0	0	7950	655798	0	0
2024-07-22 10:29:47			0	35225	0	0	0	29075	27670	172156	27263	1054520	45058	110809	0	0	7951	655492	0	0
2024-07-22 10:30:47			0	35252	0	0	0	29077	27670	172072	27237	1054573	45058	110810	0	0	7952	654312	0	0
2024-07-22 10:31:47			0	35289	0	0	0	29077	27680	172020	27327	1054618	45059	110810	0	0	7955	652661	0	0
2024-07-22 10:32:47			0	35291	0	0	0	29083	27680	171948	27048	1054582	45058	110812	0	0	7955	652574	0	0
2024-07-22 10:33:47			0	35306	0	0	0	29083	27680	171892	27372	1054618	45059	110812	0	0	7956	651920	0	0
2024-07-22 10:34:47			0	35328	0	0	0	29090	27680	171776	27467	1054636	45058	110815	0	0	7957	650963	0	0
2024-07-22 10:35:47			0	35341	0	0	0	29090	27690	171772	27336	1054663	45059	110815	0	0	7958	650360	0	0
2024-07-22 10:36:47			0	35341	0	0	0	29096	27690	171720	27013	1054654	45059	110817	0	0	7958	650360	0	0
2024-07-22 10:37:47			0	35356	0	0	0	29106	27690	171628	27246	1054716	45071	110821	0	0	7958	649708	0	0
2024-07-22 10:38:47			0	35380	0	0	0	29109	27700	171508	27222	1054671	45072	110822	0	0	7960	648629	0	0
2024-07-22 10:39:47			0	35396	0	0	0	29111	27700	171424	27334	1054680	45073	110823	0	0	7961	647935	0	0
2024-07-22 10:40:47			0	35412	0	0	0	29103	27700	171420	27081	1054725	45060	110820	0	0	7962	647242	0	0
2024-07-22 10:41:47			0	35405	0	0	0	29088	27700	171376	27294	1054680	45061	110814	0	0	7962	647545	0	0
2024-07-22 10:42:47			0	35397	0	0	0	29098	27700	171464	27268	1054698	45072	110818	0	0	7961	647892	0	0
2024-07-22 10:43:47			0	35380	0	0	0	29096	27710	171484	27187	1054716	45073	110817	0	0	7960	648592	0	0
2024-07-22 10:44:47			0	35381	0	0	0	29096	27700	171628	27260	1054680	45061	110817	0	0	7960	648586	0	0
2024-07-22 10:45:47			0	35368	0	0	0	29088	27700	171532	27332	1054734	45073	110814	0	0	7959	649150	0	0
2024-07-22 10:46:47			0	35393	0	0	0	29090	27700	171560	27237	1054653	45061	110815	0	0	7961	648065	0	0
2024-07-22 10:47:47			0	35381	0	0	0	29096	27700	171424	27275	1054698	45060	110817	0	0	7960	648586	0	0
2024-07-22 10:48:47			0	35403	0	0	0	29088	27710	171432	27493	1054770	45073	110814	0	0	7962	647595	0	0
2024-07-22 10:49:47			0	35434	0	0	0	29090	27700	171328	27216	1054734	45061	110815	0	0	7964	646290	0	0
2024-07-22 10:50:47			0	35438	0	0	0	29096	27700	171272	27204	1054671	45060	110817	0	0	7964	646117	0	0
2024-07-22 10:51:47			0	35431	0	0	0	29098	27710	171072	26934	1054743	45073	110818	0	0	7963	646382	0	0
2024-07-22 10:52:47			0	35461	0	0	0	29127	27710	171092	27343	1054770	45083	110829	0	0	7965	645085	0	0
2024-07-22 10:53:47			0	35456	0	0	0	29119	27710	171084	27351	1054806	45074	110826	0	0	7964	645301	0	0
2024-07-22 10:54:47			0	35460	0	0	0	29114	27710	171236	27377	1054860	45074	110824	0	0	7965	645128	0	0
2024-07-22 10:55:47			0	35444	0	0	0	29111	27710	171144	27308	1054779	45074	110823	0	0	7964	645820	0	0
2024-07-22 10:56:47			0	35441	0	0	0	29111	27730	171072	27415	1054841	45076	110823	0	0	7964	645875	0	0
2024-07-22 10:57:47			0	35447	0	0	0	29093	27720	171104	27211	1054824	45075	110816	0	0	7964	645653	0	0
2024-07-22 10:58:47			0	35459	0	0	0	29088	27720	171132	27256	1054788	45051	110814	0	0	7965	645134	0	0
2024-07-22 10:59:47			0	35442	0	0	0	29088	27720	171136	27199	1054761	45062	110814	0	0	7964	645869	0	0
2024-07-22 11:00:47			0	35428	0	0	0	29093	27710	171204	27308	1054779	45074	110816	0	0	7963	646512	0	0
2024-07-22 11:01:47			0	35458	0	0	0	29098	27710	171204	27457	1054797	45061	110818	0	0	7965	645215	0	0
2024-07-22 11:02:47			0	35451	0	0	0	29088	27710	171160	27183	1054770	45073	110814	0	0	7965	645517	0	0
2024-07-22 11:03:47			0	35443	0	0	0	29085	27710	171236	27345	1054779	45074	110813	0	0	7964	645863	0	0
2024-07-22 11:04:47			0	35441	0	0	0	29090	27710	171216	27105	1054743	45073	110815	0	0	7964	645950	0	0
2024-07-22 11:05:47			0	35441	0	0	0	29098	27710	171316	27147	1054743	45061	110818	0	0	7964	645950	0	0
2024-07-22 11:06:47			0	35439	0	0	0	29083	27710	171236	27098	1054716	45061	110812	0	0	7964	646036	0	0
2024-07-22 11:07:47			0	35452	0	0	0	29127	27700	171172	27074	1054734	45061	110829	0	0	7964	645511	0	0
2024-07-22 11:08:47			0	35446	0	0	0	29124	27720	171384	27339	1054815	45062	110828	0	0	7964	645696	0	0
2024-07-22 11:09:47			0	35437	0	0	0	29072	27720	171308	27131	1054734	45074	110808	0	0	7964	646085	0	0
2024-07-22 11:10:47			0	35445	0	0	0	29038	27710	171292	26850	1054662	45050	110795	0	0	7965	645777	0	0
2024-07-22 11:11:47			0	35444	0	0	0	29031	27690	171188	26870	1054555	45048	110792	0	0	7965	645894	0	0
2024-07-22 11:12:47			0	35452	0	0	0	29062	27680	171204	26963	1054537	45048	110804	0	0	7965	645586	0	0
2024-07-22 11:13:47			0	35470	0	0	0	29075	27690	171104	27066	1054600	45071	110809	0	0	7966	644771	0	0
2024-07-22 11:14:47			0	35478	0	0	0	29033	27690	171140	27296	1054681	45048	110793	0	0	7967	644425	0	0
2024-07-22 11:15:47			0	35489	0	0	0	28973	27680	170920	27090	1054483	45059	110770	0	0	7969	643987	0	0
2024-07-22 11:16:47			0	35496	0	0	0	29041	27680	170980	27055	1054510	45071	110796	0	0	7968	643685	0	0
2024-07-22 11:17:47			0	35490	0	0	0	29057	27680	171024	27234	1054636	45070	110802	0	0	7967	643944	0	0
2024-07-22 11:18:47			0	35493	0	0	0	29020	27690	171084	27220	1054627	45071	110788	0	0	7968	643778	0	0
2024-07-22 11:19:47			0	35499	0	0	0	28968	27670	171028	26991	1054493	45036	110768	0	0	7969	643593	0	0
2024-07-22 11:20:47			0	35455	0	0	0	28955	27670	171176	27112	1054412	45058	110763	0	0	7967	645493	0	0
2024-07-22 11:21:47			0	35453	0	0	0	28955	27660	171232	27390	1054340	45024	110763	0	0	7967	645617	0	0
2024-07-22 11:22:47			0	35423	0	0	0	28932	27670	171288	27597	1054322	45036	110754	0	0	7965	646877	0	0
2024-07-22 11:23:47			0	35416	0	0	0	28916	27650	171480	27166	1054260	45022	110748	0	0	7965	647255	0	0
2024-07-22 11:24:47			0	35426	0	0	0	28929	27630	171340	27279	1054206	45042	110753	0	0	7965	646897	0	0
2024-07-22 11:25:47			0	35402	0	0	0	28932	27620	171368	27258	1054179	45041	110754	0	0	7964	647974	0	0
2024-07-22 11:26:47			0	35431	0	0	0	28901	27620	171332	26932	1054098	45041	110742	0	0	7966	646717	0	0
2024-07-22 11:27:47			0	35463	0	0	0	28906	27610	171276	26870	1054134	45040	110744	0	0	7968	645370	0	0
2024-07-22 11:28:47			0	35485	0	0	0	28909	27600	171152	27039	1054072	45040	110745	0	0	7969	644457	0	0
2024-07-22 11:29:47			0	35524	0	0	0	28909	27590	170864	27152	1054027	45039	110745	0	0	7972	642811	0	0
2024-07-22 11:30:47			0	35573	0	0	0	28922	27590	170812	27235	1053991	45038	110750	0	0	7974	640702	0	0
2024-07-22 11:31:47			0	35609	0	0	0	28935	27580	170408	27324	1054036	45049	110755	0	0	7976	639192	0	0
2024-07-22 11:32:47			0	35627	0	0	0	28927	27580	170468	27216	1054036	45049	110752	0	0	7978	638420	0	0
2024-07-22 11:33:47			0	35640	0	0	0	28929	27580	170424	26897	1054001	45048	110753	0	0	7978	637862	0	0
2024-07-22 11:34:47			0	35647	0	0	0	29007	27580	170420	27220	1054135	45071	110783	0	0	7977	637562	0	0
2024-07-22 11:35:47			0	35684	0	0	0	29096	27590	170304	27138	1054242	45083	110817	0	0	7978	635942	0	0
2024-07-22 11:36:47			0	35668	0	0	0	29044	27590	170424	27170	1054296	45061	110797	0	0	7978	636626	0	0
2024-07-22 11:37:47			0	35638	0	0	0	29111	27600	170536	27320	1054395	45074	110823	0	0	7975	637874	0	0
2024-07-22 11:38:47			0	35633	0	0	0	29122	27610	170684	27124	1054466	45074	110827	0	0	7975	638052	0	0
2024-07-22 11:39:47			0	35614	0	0	0	29109	27630	170680	27410	1054529	45087	110822	0	0	7974	638793	0	0
2024-07-22 11:40:47			0	35605	0	0	0	29077	27630	170612	27194	1054493	45065	110810	0	0	7974	639180	0	0
2024-07-22 11:41:47			0	35592	0	0	0	29103	27630	170844	27274	1054502	45065	110820	0	0	7973	639738	0	0
2024-07-22 11:42:47			0	35585	0	0	0	29096	27650	170712	26961	1054529	45078	110817	0	0	7972	639965	0	0
2024-07-22 11:43:47			0	35578	0	0	0	29080	27650	170704	27116	1054582	45089	110811	0	0	7972	640266	0	0
2024-07-22 11:44:47			0	35597	0	0	0	29077	27660	170604	27156	1054574	45068	110810	0	0	7974	639413	0	0
2024-07-22 11:45:47			0	35620	0	0	0	29046	27640	170576	27320	1054520	45055	110798	0	0	7975	638499	0	0
2024-07-22 11:46:47			0	35612	0	0	0	29020	27650	170644	27307	1054421	45067	110788	0	0	7975	638806	0	0
2024-07-22 11:47:47			0	35612	0	0	0	29015	27650	170612	27305	1054421	45056	110786	0	0	7975	638806	0	0
2024-07-22 11:48:47			0	35625	0	0	0	29023	27650	170584	27284	1054421	45056	110789	0	0	7976	638248	0	0
2024-07-22 11:49:47			0	35631	0	0	0	29031	27640	170460	27222	1054412	45055	110792	0	0	7976	638028	0	0
2024-07-22 11:50:47			0	35626	0	0	0	29046	27630	170504	27104	1054394	45065	110798	0	0	7976	638279	0	0
2024-07-22 11:51:47			0	35641	0	0	0	29072	27640	170520	27364	1054430	45077	110808	0	0	7976	637599	0	0
2024-07-22 11:52:47			0	35638	0	0	0	29070	27650	170460	27398	1054421	45067	110807	0	0	7976	637691	0	0
2024-07-22 11:53:47			0	35640	0	0	0	29072	27650	170568	27547	1054484	45078	110808	0	0	7976	637605	0	0
2024-07-22 11:54:47			0	35653	0	0	0	29098	27670	170444	27046	1054564	45069	110818	0	0	7977	636975	0	0
2024-07-22 11:55:47			0	35654	0	0	0	29077	27660	170376	27367	1054574	45079	110810	0	0	7977	636969	0	0
2024-07-22 11:56:47			0	35657	0	0	0	29080	27660	170588	27090	1054582	45080	110811	0	0	7977	636840	0	0
2024-07-22 11:57:47			0	35652	0	0	0	29075	27680	170400	26927	1054663	45070	110809	0	0	7977	636981	0	0
2024-07-22 11:58:47			0	35671	0	0	0	29083	27670	170392	27121	1054591	45069	110812	0	0	7978	636205	0	0
2024-07-22 11:59:47			0	35663	0	0	0	29080	27670	170304	27173	1054573	45069	110811	0	0	7978	636547	0	0
2024-07-22 12:00:47			0	35694	0	0	0	29054	27670	170200	27367	1054591	45069	110801	0	0	7980	635222	0	0
2024-07-22 12:01:47			0	35719	0	0	0	29062	27670	170144	27274	1054564	45069	110804	0	0	7981	634154	0	0
2024-07-22 12:02:47			0	35737	0	0	0	29057	27670	169956	26937	1054564	45046	110802	0	0	7983	633386	0	0
2024-07-22 12:03:47			0	35739	0	0	0	29051	27660	170020	27514	1054502	45058	110800	0	0	7983	633337	0	0
2024-07-22 12:04:47			0	35741	0	0	0	29036	27660	169876	27253	1054520	45068	110794	0	0	7983	633252	0	0
2024-07-22 12:05:47			0	35781	0	0	0	29038	27650	169916	27474	1054430	45067	110795	0	0	7985	631585	0	0
2024-07-22 12:06:47			0	35774	0	0	0	29054	27670	169832	27246	1054457	45069	110801	0	0	7985	631810	0	0
2024-07-22 12:07:47			0	35786	0	0	0	29041	27660	169812	27187	1054439	45057	110796	0	0	7986	631336	0	0
2024-07-22 12:08:47			0	35777	0	0	0	29038	27650	169856	27220	1054367	45056	110795	0	0	7985	631755	0	0
2024-07-22 12:09:47			0	35764	0	0	0	29025	27650	169932	27272	1054421	45056	110790	0	0	7985	632309	0	0
2024-07-22 12:10:47			0	35764	0	0	0	29023	27640	169868	27310	1054358	45055	110789	0	0	7985	632345	0	0
2024-07-22 12:11:47			0	35771	0	0	0	29012	27650	169744	27202	1054421	45067	110785	0	0	7985	632010	0	0
2024-07-22 12:12:47			0	35781	0	0	0	28989	27650	169768	27284	1054367	45034	110776	0	0	7986	631585	0	0
2024-07-22 12:13:47			0	35791	0	0	0	28989	27630	169736	27345	1054304	45054	110776	0	0	7987	631232	0	0
2024-07-22 12:14:47			0	35807	0	0	0	28994	27630	169732	27003	1054304	45065	110778	0	0	7988	630552	0	0
2024-07-22 12:15:47			0	35798	0	0	0	28999	27620	169728	27320	1054260	45064	110780	0	0	7987	630971	0	0
2024-07-22 12:16:47			0	35812	0	0	0	29007	27620	169604	27310	1054296	45064	110783	0	0	7988	630375	0	0
2024-07-22 12:17:47			0	35824	0	0	0	29005	27620	169648	27282	1054287	45053	110782	0	0	7988	629866	0	0
2024-07-22 12:18:47			0	35831	0	0	0	28997	27620	169560	27405	1054296	45053	110779	0	0	7989	629568	0	0
2024-07-22 12:19:47			0	35831	0	0	0	28984	27620	169708	27313	1054349	45053	110774	0	0	7989	629568	0	0
2024-07-22 12:20:47			0	35834	0	0	0	29005	27610	169528	27286	1054251	45052	110782	0	0	7989	629477	0	0
2024-07-22 12:21:47			0	35823	0	0	0	29005	27610	169572	26991	1054305	45074	110782	0	0	7988	629944	0	0
2024-07-22 12:22:47			0	35850	0	0	0	29007	27620	169580	27299	1054314	45053	110783	0	0	7990	628762	0	0
2024-07-22 12:23:47			0	35858	0	0	0	29010	27610	169420	27130	1054278	45063	110784	0	0	7990	628459	0	0
2024-07-22 12:24:47			0	35869	0	0	0	29002	27620	169293	27294	1054287	45053	110781	0	0	7991	627957	0	0
2024-07-22 12:25:47			0	35892	0	0	0	29007	27620	169237	27289	1054349	45064	110783	0	0	7993	626982	0	0
2024-07-22 12:26:47			0	35897	0	0	0	29028	27630	169101	27320	1054358	45065	110791	0	0	7993	626735	0	0
2024-07-22 12:27:47			0	35940	0	0	0	29041	27630	169109	27452	1054385	45054	110796	0	0	7995	624917	0	0
2024-07-22 12:28:47			0	35919	0	0	0	29044	27630	169145	27234	1054367	45076	110797	0	0	7994	625804	0	0
2024-07-22 12:29:47			0	35898	0	0	0	29049	27630	169093	27251	1054475	45087	110799	0	0	7992	626692	0	0
2024-07-22 12:30:47			0	35899	0	0	0	29041	27650	169165	27239	1054457	45067	110796	0	0	7993	626578	0	0
2024-07-22 12:31:47			0	35880	0	0	0	29038	27640	169257	27237	1054412	45077	110795	0	0	7991	627418	0	0
2024-07-22 12:32:47			0	35862	0	0	0	29041	27650	169281	27429	1054421	45067	110796	0	0	7990	628145	0	0
2024-07-22 12:33:47			0	35887	0	0	0	29075	27640	169109	27282	1054547	45077	110809	0	0	7991	627122	0	0
2024-07-22 12:34:47			0	35894	0	0	0	29090	27660	169097	26960	1054627	45068	110815	0	0	7991	626753	0	0
2024-07-22 12:35:47			0	35901	0	0	0	29106	27670	169117	27163	1054654	45069	110821	0	0	7992	626421	0	0
2024-07-22 12:36:47			0	35898	0	0	0	29093	27670	169253	27355	1054708	45069	110816	0	0	7992	626548	0	0
2024-07-22 12:37:47			0	35893	0	0	0	29077	27670	169233	27279	1054726	45091	110810	0	0	7992	626760	0	0
2024-07-22 12:38:47			0	35904	0	0	0	29070	27680	169269	27114	1054672	45093	110807	0	0	7993	626258	0	0
2024-07-22 12:39:47			0	35902	0	0	0	29064	27680	169161	27275	1054726	45071	110805	0	0	7993	626343	0	0
2024-07-22 12:40:47			0	35923	0	0	0	29046	27690	169129	27441	1054708	45059	110798	0	0	7994	625419	0	0
2024-07-22 12:41:47			0	35942	0	0	0	29062	27680	168989	27260	1054636	45058	110804	0	0	7995	624653	0	0
2024-07-22 12:42:47			0	35966	0	0	0	29077	27680	168905	27150	1054591	45048	110810	0	0	7996	623640	0	0
2024-07-22 12:43:47			0	35990	0	0	0	29083	27680	168849	27329	1054636	45070	110812	0	0	7998	622629	0	0
2024-07-22 12:44:47			0	35956	0	0	0	29059	27680	168853	27182	1054663	45070	110803	0	0	7996	624062	0	0
2024-07-22 12:45:47			0	35956	0	0	0	29062	27680	168817	27265	1054672	45059	110804	0	0	7996	624062	0	0
2024-07-22 12:46:47			0	35956	0	0	0	29090	27680	168905	27352	1054609	45070	110815	0	0	7995	624062	0	0
2024-07-22 12:47:47			0	35942	0	0	0	29103	27690	168925	27301	1054734	45059	110820	0	0	7994	624617	0	0
2024-07-22 12:48:47			0	35948	0	0	0	29096	27690	169037	27360	1054788	45082	110817	0	0	7995	624363	0	0
2024-07-22 12:49:47			0	35935	0	0	0	29106	27690	169017	27379	1054761	45059	110821	0	0	7994	624912	0	0
2024-07-22 12:50:47			0	35916	0	0	0	29111	27700	169093	27244	1054779	45072	110823	0	0	7993	625679	0	0
2024-07-22 12:51:47			0	35916	0	0	0	29127	27700	169149	27350	1054815	45083	110829	0	0	7992	625679	0	0
2024-07-22 12:52:47			0	35911	0	0	0	29124	27710	169133	27291	1054878	45095	110828	0	0	7992	625854	0	0
2024-07-22 12:53:47			0	35919	0	0	0	29129	27710	169025	27403	1054860	45084	110830	0	0	7993	625516	0	0
2024-07-22 12:54:47			0	35922	0	0	0	29129	27710	168965	27364	1054860	45084	110830	0	0	7993	625389	0	0
2024-07-22 12:55:47			0	35930	0	0	0	29140	27720	168969	27533	1055039	45085	110834	0	0	7993	625015	0	0
2024-07-22 12:56:47			0	35923	0	0	0	29132	27740	168873	27390	1055012	45086	110831	0	0	7993	625239	0	0
2024-07-22 12:57:47			0	35939	0	0	0	29124	27730	168777	27341	1055003	45076	110828	0	0	7994	624599	0	0
2024-07-22 12:58:47			0	35956	0	0	0	29122	27740	168761	27313	1054958	45064	110827	0	0	7995	623846	0	0
2024-07-22 12:59:47			0	35964	0	0	0	29176	27740	168709	27286	1055065	45098	110848	0	0	7995	623509	0	0
2024-07-22 13:00:47			0	35972	0	0	0	29145	27760	168629	27253	1055128	45088	110836	0	0	7996	623100	0	0
2024-07-22 13:01:47			0	35959	0	0	0	29140	27750	168701	27173	1055146	45088	110834	0	0	7995	623684	0	0
2024-07-22 13:02:47			0	35982	0	0	0	29171	27750	168761	27116	1055119	45078	110846	0	0	7996	622715	0	0
2024-07-22 13:03:47			0	35973	0	0	0	29215	27770	168721	27199	1055262	45090	110863	0	0	7995	623022	0	0
2024-07-22 13:04:47			0	36002	0	0	0	29205	27780	168665	27189	1055280	45081	110859	0	0	7997	621765	0	0
2024-07-22 13:05:47			0	36020	0	0	0	29176	27780	168485	27033	1055271	45090	110848	0	0	7998	621008	0	0
2024-07-22 13:06:47			0	36061	0	0	0	29171	27790	168477	26970	1055244	45082	110846	0	0	8001	619251	0	0
2024-07-22 13:07:47			0	36071	0	0	0	29145	27780	168353	27215	1055146	45091	110836	0	0	8002	618867	0	0
2024-07-22 13:08:47			0	36091	0	0	0	29114	27780	168197	27277	1055119	45069	110824	0	0	8004	618029	0	0
2024-07-22 13:09:47			0	36096	0	0	0	29184	27780	168157	27114	1055163	45080	110851	0	0	8003	617819	0	0
2024-07-22 13:10:47			0	36090	0	0	0	29186	27780	168081	27105	1055146	45081	110852	0	0	8002	618071	0	0
2024-07-22 13:11:47			0	36109	0	0	0	29197	27780	168177	27493	1055226	45081	110856	0	0	8003	617275	0	0
2024-07-22 13:12:47			0	36063	0	0	0	29184	27790	168217	27594	1055289	45070	110851	0	0	8001	619167	0	0
2024-07-22 13:13:47			0	36063	0	0	0	29163	27790	168277	27312	1055262	45082	110843	0	0	8001	619167	0	0
2024-07-22 13:14:47			0	36077	0	0	0	29140	27790	168257	27473	1055262	45070	110834	0	0	8002	618580	0	0
2024-07-22 13:15:47			0	36061	0	0	0	29132	27780	168305	27263	1055173	45069	110831	0	0	8001	619286	0	0
2024-07-22 13:16:47			0	36055	0	0	0	29116	27780	168357	27222	1055119	45081	110825	0	0	8001	619538	0	0
2024-07-22 13:17:47			0	36062	0	0	0	29109	27770	168197	27395	1055047	45045	110822	0	0	8002	619280	0	0
2024-07-22 13:18:47			0	36056	0	0	0	29103	27760	168325	27300	1054966	45055	110820	0	0	8002	619568	0	0
2024-07-22 13:19:47			0	36028	0	0	0	29098	27750	168441	27102	1054957	45043	110818	0	0	8000	620779	0	0
2024-07-22 13:20:47			0	36048	0	0	0	29098	27750	168401	27358	1054976	45055	110818	0	0	8001	619939	0	0
2024-07-22 13:21:47			0	36019	0	0	0	29109	27750	168521	26932	1054949	45066	110822	0	0	7999	621157	0	0
2024-07-22 13:22:47			0	35997	0	0	0	29098	27740	168677	27150	1054877	45053	110818	0	0	7998	622119	0	0
2024-07-22 13:23:47			0	36003	0	0	0	29085	27740	168577	27062	1054913	45054	110813	0	0	7999	621866	0	0
2024-07-22 13:24:47			0	36000	0	0	0	29088	27730	168541	27263	1054832	45053	110814	0	0	7998	622028	0	0
2024-07-22 13:25:47			0	35990	0	0	0	29088	27740	168669	27019	1054877	45064	110814	0	0	7998	622413	0	0
2024-07-22 13:26:47			0	35991	0	0	0	29083	27740	168533	27177	1054877	45076	110812	0	0	7998	622371	0	0
2024-07-22 13:27:47			0	35988	0	0	0	29096	27730	168633	26873	1054895	45076	110817	0	0	7997	622534	0	0
2024-07-22 13:28:47			0	35994	0	0	0	29093	27720	168713	27294	1054904	45075	110816	0	0	7998	622317	0	0
2024-07-22 13:29:47			0	35985	0	0	0	29080	27730	168597	27135	1054922	45053	110811	0	0	7998	622660	0	0
2024-07-22 13:30:47			0	35974	0	0	0	29088	27720	168777	27175	1054904	45075	110814	0	0	7997	623159	0	0
2024-07-22 13:31:47			0	35987	0	0	0	29085	27730	168801	27215	1054841	45053	110813	0	0	7998	622576	0	0
2024-07-22 13:32:47			0	35984	0	0	0	29080	27720	168793	27286	1054815	45074	110811	0	0	7997	622738	0	0
2024-07-22 13:33:47			0	35987	0	0	0	29090	27720	168777	27341	1054868	45062	110815	0	0	7997	622612	0	0
2024-07-22 13:34:47			0	36001	0	0	0	29101	27720	168665	27390	1054842	45074	110819	0	0	7998	622022	0	0
2024-07-22 13:35:47			0	35968	0	0	0	29127	27730	168769	27142	1054994	45076	110829	0	0	7996	623376	0	0
2024-07-22 13:36:47			0	35965	0	0	0	29137	27720	168905	27218	1055012	45075	110833	0	0	7995	623539	0	0
2024-07-22 13:37:47			0	35944	0	0	0	29145	27740	168869	27535	1055012	45098	110836	0	0	7994	624352	0	0
2024-07-22 13:38:47			0	35944	0	0	0	29140	27740	168933	27462	1055020	45098	110834	0	0	7994	624352	0	0
2024-07-22 13:39:47			0	35959	0	0	0	29137	27760	168953	27409	1055101	45088	110833	0	0	7995	623648	0	0
2024-07-22 13:40:47			0	35962	0	0	0	29122	27750	168861	27187	1055065	45078	110827	0	0	7996	623557	0	0
2024-07-22 13:41:47			0	35978	0	0	0	29153	27760	168801	27360	1055128	45088	110839	0	0	7996	622847	0	0
2024-07-22 13:42:47			0	35961	0	0	0	29228	27770	168945	27329	1055280	45124	110868	0	0	7994	623528	0	0
2024-07-22 13:43:47			0	35969	0	0	0	29210	27790	168837	27315	1055370	45115	110861	0	0	7995	623119	0	0
2024-07-22 13:44:47			0	36020	0	0	0	29205	27810	168669	27209	1055450	45116	110859	0	0	7998	620901	0	0
2024-07-22 13:45:47			0	36014	0	0	0	29290	27820	168481	27300	1055522	45128	110892	0	0	7996	621117	0	0
2024-07-22 13:46:47			0	36030	0	0	0	29329	27830	168645	27277	1055620	45118	110907	0	0	7997	620409	0	0
2024-07-22 13:47:47			0	36067	0	0	0	29303	27850	168413	27324	1055764	45108	110897	0	0	7999	618785	0	0
2024-07-22 13:48:47			0	36079	0	0	0	29335	27860	168237	27152	1055754	45122	110909	0	0	8000	618247	0	0
2024-07-22 13:49:47			0	36112	0	0	0	29348	27870	168145	27280	1055889	45123	110914	0	0	8001	616830	0	0
2024-07-22 13:50:47			0	36114	0	0	0	29381	27890	168029	27220	1056023	45113	110927	0	0	8001	616675	0	0
2024-07-22 13:51:47			0	36117	0	0	0	29415	27900	168057	27202	1056103	45115	110940	0	0	8001	616514	0	0
2024-07-22 13:52:47			0	36165	0	0	0	29397	27910	167833	27407	1056149	45092	110933	0	0	8004	614474	0	0
2024-07-22 13:53:47			0	36181	0	0	0	29368	27920	167717	27046	1056166	45106	110922	0	0	8005	613771	0	0
2024-07-22 13:54:47			0	36207	0	0	0	29327	27930	167477	27289	1056211	45106	110906	0	0	8008	612653	0	0
2024-07-22 13:55:47			0	36202	0	0	0	29355	27950	167549	27121	1056184	45097	110917	0	0	8007	612791	0	0
2024-07-22 13:56:47			0	36186	0	0	0	29384	27950	167701	27268	1056327	45108	110928	0	0	8006	613457	0	0
2024-07-22 13:57:47			0	36186	0	0	0	29407	27960	167657	27313	1056291	45098	110937	0	0	8005	613422	0	0
2024-07-22 13:58:47			0	36181	0	0	0	29412	27970	167649	27227	1056354	45099	110939	0	0	8005	613595	0	0
2024-07-22 13:59:47			0	36187	0	0	0	29389	27970	167633	27249	1056282	45099	110930	0	0	8006	613345	0	0
2024-07-22 14:00:47			0	36175	0	0	0	29361	27970	167617	27111	1056273	45088	110919	0	0	8005	613845	0	0
2024-07-22 14:01:47			0	36187	0	0	0	29392	27970	167733	27222	1056246	45099	110931	0	0	8006	613345	0	0
2024-07-22 14:02:47			0	36168	0	0	0	29402	27970	167705	26987	1056273	45099	110935	0	0	8004	614136	0	0
2024-07-22 14:03:47			0	36160	0	0	0	29384	27970	167749	27133	1056273	45110	110928	0	0	8004	614470	0	0
2024-07-22 14:04:47			0	36166	0	0	0	29353	27960	167649	27050	1056210	45076	110916	0	0	8005	614255	0	0
2024-07-22 14:05:47			0	36162	0	0	0	29355	27980	167657	26932	1056192	45100	110917	0	0	8005	614351	0	0
2024-07-22 14:06:47			0	36138	0	0	0	29384	27960	167797	27138	1056183	45098	110928	0	0	8003	615423	0	0
2024-07-22 14:07:47			0	36151	0	0	0	29379	27970	167709	26883	1056246	45088	110926	0	0	8004	614845	0	0
2024-07-22 14:08:47			0	36145	0	0	0	29361	27970	167913	27100	1056219	45099	110919	0	0	8004	615096	0	0
2024-07-22 14:09:47			0	36122	0	0	0	29379	27980	167817	27268	1056354	45100	110926	0	0	8002	616021	0	0
2024-07-22 14:10:47			0	36117	0	0	0	29363	27980	167913	27067	1056327	45100	110920	0	0	8002	616230	0	0
2024-07-22 14:11:47			0	36131	0	0	0	29345	28000	167873	27116	1056353	45113	110913	0	0	8003	615574	0	0
2024-07-22 14:12:47			0	36142	0	0	0	29342	27990	167889	27334	1056344	45089	110912	0	0	8004	615150	0	0
2024-07-22 14:13:47			0	36123	0	0	0	29332	27990	167897	27300	1056318	45079	110908	0	0	8003	615943	0	0
2024-07-22 14:14:47			0	36130	0	0	0	29319	28000	167805	27426	1056353	45090	110903	0	0	8004	615615	0	0
2024-07-22 14:15:47			0	36128	0	0	0	29355	27990	167825	27365	1056309	45089	110917	0	0	8003	615735	0	0
2024-07-22 14:16:47			0	36133	0	0	0	29355	28000	167829	27249	1056326	45090	110917	0	0	8003	615490	0	0
2024-07-22 14:17:47			0	36146	0	0	0	29337	28000	167857	27239	1056300	45090	110910	0	0	8004	614948	0	0
2024-07-22 14:18:47			0	36133	0	0	0	29311	27990	167757	26906	1056228	45068	110900	0	0	8004	615526	0	0
2024-07-22 14:19:47			0	36142	0	0	0	29285	27980	167869	27235	1056111	45067	110890	0	0	8005	615186	0	0
2024-07-22 14:20:47			0	36108	0	0	0	29464	27980	168025	27222	1056264	45088	110959	0	0	8000	616606	0	0
2024-07-22 14:21:47			0	36131	0	0	0	29415	27990	167965	27131	1056336	45112	110940	0	0	8002	615609	0	0
2024-07-22 14:22:47			0	36166	0	0	0	29358	27990	167757	27046	1056344	45101	110918	0	0	8005	614149	0	0
2024-07-22 14:23:47			0	36190	0	0	0	29350	28000	167697	27019	1056326	45102	110915	0	0	8007	613114	0	0
2024-07-22 14:24:47			0	36201	0	0	0	29316	27990	167573	27135	1056318	45101	110902	0	0	8008	612691	0	0
2024-07-22 14:25:47			0	36208	0	0	0	29301	27990	167457	27365	1056210	45079	110896	0	0	8009	612400	0	0
2024-07-22 14:26:47			0	36204	0	0	0	29241	27980	167453	27284	1056102	45077	110873	0	0	8009	612601	0	0
2024-07-22 14:27:47			0	36186	0	0	0	29277	27960	167701	27147	1056076	45076	110887	0	0	8007	613422	0	0
2024-07-22 14:28:47			0	36125	0	0	0	29309	27950	167897	27196	1056112	45064	110899	0	0	8003	616002	0	0
2024-07-22 14:29:47			0	36104	0	0	0	29311	27960	167957	27072	1056183	45087	110900	0	0	8002	616844	0	0
2024-07-22 14:30:47			0	36112	0	0	0	29272	27960	167937	27102	1056121	45086	110885	0	0	8003	616510	0	0
2024-07-22 14:31:47			0	36098	0	0	0	29264	27950	168001	27170	1056031	45075	110882	0	0	8002	617131	0	0
2024-07-22 14:32:47			0	36102	0	0	0	29262	27940	168089	27346	1055897	45073	110881	0	0	8003	616999	0	0
2024-07-22 14:33:47			0	36089	0	0	0	29259	27930	168061	27407	1055888	45062	110880	0	0	8002	617578	0	0
2024-07-22 14:34:47			0	36062	0	0	0	29272	27930	168105	27263	1055906	45062	110885	0	0	8000	618709	0	0
2024-07-22 14:35:47			0	36060	0	0	0	29259	27920	168229	27383	1055870	45083	110880	0	0	8000	618829	0	0
2024-07-22 14:36:47			0	36042	0	0	0	29262	27920	168241	27149	1055888	45083	110881	0	0	7999	619584	0	0
2024-07-22 14:37:47			0	36012	0	0	0	29259	27910	168277	26842	1055933	45082	110880	0	0	7997	620879	0	0
2024-07-22 14:38:47			0	36018	0	0	0	29277	27920	168309	27324	1055969	45071	110887	0	0	7997	620591	0	0
2024-07-22 14:39:47			0	36021	0	0	0	29288	27910	168333	27050	1055852	45082	110891	0	0	7997	620501	0	0
2024-07-22 14:40:47			0	36027	0	0	0	29298	27920	168265	27242	1056050	45116	110895	0	0	7997	620213	0	0
2024-07-22 14:41:47			0	36027	0	0	0	29285	27920	168321	27107	1055951	45106	110890	0	0	7998	620213	0	0
2024-07-22 14:42:47			0	36023	0	0	0	29342	27920	168469	27147	1056005	45094	110912	0	0	7996	620381	0	0
2024-07-22 14:43:47			0	36037	0	0	0	29332	27930	168241	26811	1056094	45118	110908	0	0	7997	619758	0	0
2024-07-22 14:44:47			0	36067	0	0	0	29290	27930	168101	27206	1056094	45095	110892	0	0	8000	618500	0	0
2024-07-22 14:45:47			0	36065	0	0	0	29293	27930	168185	27180	1056049	45084	110893	0	0	8000	618584	0	0
2024-07-22 14:46:47			0	36043	0	0	0	29309	27930	168209	27130	1056049	45106	110899	0	0	7998	619506	0	0
2024-07-22 14:47:47			0	36063	0	0	0	29296	27930	168213	27282	1056023	45084	110894	0	0	8000	618668	0	0
2024-07-22 14:48:47			0	36061	0	0	0	29358	27930	168153	27204	1056121	45095	110918	0	0	7998	618751	0	0
2024-07-22 14:49:47			0	36103	0	0	0	29366	27930	167921	27267	1056175	45095	110921	0	0	8001	616993	0	0
2024-07-22 14:50:47			0	36126	0	0	0	29376	27940	167869	27175	1056202	45107	110925	0	0	8002	615996	0	0
2024-07-22 14:51:47			0	36133	0	0	0	29363	27960	167913	27260	1056255	45086	110920	0	0	8003	615632	0	0
2024-07-22 14:52:47			0	36135	0	0	0	29379	27960	167881	27116	1056318	45087	110926	0	0	8003	615549	0	0
2024-07-22 14:53:47			0	36167	0	0	0	29355	27970	167689	27341	1056381	45110	110917	0	0	8005	614178	0	0
2024-07-22 14:54:47			0	36145	0	0	0	29353	27970	167833	27239	1056246	45099	110916	0	0	8004	615096	0	0
2024-07-22 14:55:47			0	36140	0	0	0	29342	27980	167793	27180	1056291	45088	110912	0	0	8004	615269	0	0
2024-07-22 14:56:47			0	36148	0	0	0	29363	27980	167785	27131	1056354	45100	110920	0	0	8004	614935	0	0
2024-07-22 14:57:47			0	36156	0	0	0	29374	27980	167705	27306	1056327	45089	110924	0	0	8004	614601	0	0
2024-07-22 14:58:47			0	36161	0	0	0	29389	27990	167785	27213	1056363	45079	110930	0	0	8004	614357	0	0
2024-07-22 14:59:47			0	36160	0	0	0	29418	27980	167593	27010	1056345	45088	110941	0	0	8004	614435	0	0
2024-07-22 15:00:47			0	36169	0	0	0	29425	27990	167553	26908	1056398	45112	110944	0	0	8004	614024	0	0
2024-07-22 15:01:47			0	36210	0	0	0	29441	28000	167521	27313	1056461	45113	110950	0	0	8006	612281	0	0
2024-07-22 15:02:47			0	36223	0	0	0	29441	28000	167377	27102	1056461	45102	110950	0	0	8007	611741	0	0
2024-07-22 15:03:47			0	36262	0	0	0	29423	28000	167349	27124	1056443	45090	110943	0	0	8010	610121	0	0
2024-07-22 15:04:47			0	36241	0	0	0	29438	28010	167289	27346	1056488	45104	110949	0	0	8008	610957	0	0
2024-07-22 15:05:47			0	36248	0	0	0	29436	28020	167225	27362	1056524	45115	110948	0	0	8009	610631	0	0
2024-07-22 15:06:47			0	36274	0	0	0	29436	28020	167201	27116	1056524	45092	110948	0	0	8010	609553	0	0
2024-07-22 15:07:47			0	36263	0	0	0	29454	28020	167193	27331	1056577	45115	110955	0	0	8009	610009	0	0
2024-07-22 15:08:47			0	36278	0	0	0	29457	28020	167165	27291	1056586	45115	110956	0	0	8010	609387	0	0
2024-07-22 15:09:47			0	36274	0	0	0	29470	28020	167129	27339	1056640	45104	110961	0	0	8010	609553	0	0
2024-07-22 15:10:47			0	36307	0	0	0	29438	28030	167005	27183	1056658	45117	110949	0	0	8012	608150	0	0
2024-07-22 15:11:47			0	36276	0	0	0	29464	28040	167141	27135	1056676	45094	110959	0	0	8010	609399	0	0
2024-07-22 15:12:47			0	36290	0	0	0	29477	28050	167009	27145	1056685	45118	110964	0	0	8011	608784	0	0
2024-07-22 15:13:47			0	36293	0	0	0	29425	28040	167129	27367	1056730	45117	110944	0	0	8012	608695	0	0
2024-07-22 15:14:47			0	36256	0	0	0	29451	28050	167253	27053	1056712	45095	110954	0	0	8009	610194	0	0
2024-07-22 15:15:47			0	36261	0	0	0	29449	28050	167277	27310	1056694	45108	110953	0	0	8009	609986	0	0
2024-07-22 15:16:47			0	36262	0	0	0	29444	28040	167133	27274	1056622	45094	110951	0	0	8010	609980	0	0
2024-07-22 15:17:47			0	36278	0	0	0	29459	28060	167125	27206	1056703	45119	110957	0	0	8010	609246	0	0
2024-07-22 15:18:47			0	36283	0	0	0	29451	28050	167113	27289	1056667	45108	110954	0	0	8011	609074	0	0
2024-07-22 15:19:47			0	36318	0	0	0	29475	28040	166977	27365	1056730	45106	110963	0	0	8012	607660	0	0
2024-07-22 15:20:47			0	36325	0	0	0	29480	28060	166841	27372	1056783	45108	110965	0	0	8013	607300	0	0
2024-07-22 15:21:47			0	36329	0	0	0	29503	28050	166809	27069	1056855	45108	110974	0	0	8013	607170	0	0
2024-07-22 15:22:47			0	36346	0	0	0	29496	28070	166709	27274	1056828	45109	110971	0	0	8014	606397	0	0
2024-07-22 15:23:47			0	36370	0	0	0	29490	28070	166781	27291	1056810	45121	110969	0	0	8015	605406	0	0
2024-07-22 15:24:47			0	36351	0	0	0	29501	28080	166805	27081	1056927	45110	110973	0	0	8014	606155	0	0
2024-07-22 15:25:47			0	36351	0	0	0	29483	28070	166793	27324	1056783	45098	110966	0	0	8014	606190	0	0
2024-07-22 15:26:47			0	36365	0	0	0	29467	28070	166705	27235	1056864	45110	110960	0	0	8016	605612	0	0
2024-07-22 15:27:47			0	36337	0	0	0	29459	28080	166717	27355	1056801	45111	110957	0	0	8014	606734	0	0
2024-07-22 15:28:47			0	36305	0	0	0	29431	28070	167113	27216	1056747	45097	110946	0	0	8013	608092	0	0
2024-07-22 15:29:47			0	36271	0	0	0	29410	28070	167045	27154	1056693	45086	110938	0	0	8011	609501	0	0
2024-07-22 15:30:47			0	36267	0	0	0	29410	28060	167177	27235	1056622	45085	110938	0	0	8011	609702	0	0
2024-07-22 15:31:47			0	36264	0	0	0	29389	28050	167045	27388	1056667	45085	110930	0	0	8011	609862	0	0
2024-07-22 15:32:47			0	36209	0	0	0	29366	28040	167381	27164	1056586	45083	110921	0	0	8008	612181	0	0
2024-07-22 15:33:47			0	36159	0	0	0	29384	28030	167645	27312	1056487	45093	110928	0	0	8004	614299	0	0
2024-07-22 15:34:47			0	36132	0	0	0	29371	28030	167673	27251	1056487	45093	110923	0	0	8003	615425	0	0
2024-07-22 15:35:47			0	36125	0	0	0	29402	28030	167773	27033	1056487	45083	110935	0	0	8002	615718	0	0
2024-07-22 15:36:47			0	36123	0	0	0	29389	28020	167805	27312	1056532	45092	110930	0	0	8002	615837	0	0
2024-07-22 15:37:47			0	36122	0	0	0	29397	28010	167741	27095	1056434	45104	110933	0	0	8002	615914	0	0
2024-07-22 15:38:47			0	36128	0	0	0	29386	28020	167793	27270	1056524	45092	110929	0	0	8002	615628	0	0
2024-07-22 15:39:47			0	36134	0	0	0	29389	28020	167801	27055	1056524	45092	110930	0	0	8003	615378	0	0
2024-07-22 15:40:47			0	36129	0	0	0	29405	28010	167837	27398	1056488	45092	110936	0	0	8002	615622	0	0
2024-07-22 15:41:47			0	36130	0	0	0	29410	28010	167781	27381	1056488	45115	110938	0	0	8002	615580	0	0
2024-07-22 15:42:47			0	36145	0	0	0	29392	28020	167765	27339	1056524	45104	110931	0	0	8003	614918	0	0
2024-07-22 15:43:47			0	36123	0	0	0	29381	28010	167889	27178	1056515	45115	110927	0	0	8002	615872	0	0
2024-07-22 15:44:47			0	36113	0	0	0	29389	28010	167869	27310	1056506	45114	110930	0	0	8001	616290	0	0
2024-07-22 15:45:47			0	36121	0	0	0	29384	28000	167957	26896	1056416	45090	110928	0	0	8002	615992	0	0
2024-07-22 15:46:47			0	36134	0	0	0	29389	28010	167845	27358	1056434	45115	110930	0	0	8003	615413	0	0
2024-07-22 15:47:47			0	36106	0	0	0	29384	28010	167773	27013	1056515	45104	110928	0	0	8001	616583	0	0
2024-07-22 15:48:47			0	36115	0	0	0	29374	28000	167893	27164	1056416	45102	110924	0	0	8002	616242	0	0
2024-07-22 15:49:47			0	36100	0	0	0	29371	28000	167993	27320	1056380	45090	110923	0	0	8001	616869	0	0
2024-07-22 15:50:47			0	36083	0	0	0	29355	28000	168101	27397	1056353	45102	110917	0	0	8000	617580	0	0
2024-07-22 15:51:47			0	36054	0	0	0	29350	28000	168177	27140	1056326	45090	110915	0	0	7998	618795	0	0
2024-07-22 15:52:47			0	36016	0	0	0	29337	27980	168313	27095	1056264	45077	110910	0	0	7996	620461	0	0
2024-07-22 15:53:47			0	36012	0	0	0	29348	27970	168493	26951	1056246	45099	110914	0	0	7996	620664	0	0
2024-07-22 15:54:47			0	35977	0	0	0	29335	27980	168493	27072	1056246	45100	110909	0	0	7994	622100	0	0
2024-07-22 15:55:47			0	35965	0	0	0	29324	27960	168645	27377	1056202	45086	110905	0	0	7993	622677	0	0
2024-07-22 15:56:47			0	35947	0	0	0	29316	27970	168665	27248	1056192	45088	110902	0	0	7992	623399	0	0
2024-07-22 15:57:47			0	35911	0	0	0	29301	27950	168833	27277	1056076	45086	110896	0	0	7990	624989	0	0
2024-07-22 15:58:47			0	35894	0	0	0	29301	27950	168937	27383	1056022	45086	110896	0	0	7989	625707	0	0
2024-07-22 15:59:47			0	35878	0	0	0	29309	27950	169025	27107	1056130	45075	110899	0	0	7988	626383	0	0
2024-07-22 16:00:47			0	35856	0	0	0	29303	27950	169116	27142	1056103	45097	110897	0	0	7987	627314	0	0
2024-07-22 16:01:47			0	35856	0	0	0	29303	27940	169180	27097	1056121	45085	110897	0	0	7987	627350	0	0
2024-07-22 16:02:47			0	35825	0	0	0	29301	27930	169296	27183	1056049	45095	110896	0	0	7985	628699	0	0
2024-07-22 16:03:47			0	35833	0	0	0	29306	27930	169304	26837	1056076	45084	110898	0	0	7985	628360	0	0
2024-07-22 16:04:47			0	35825	0	0	0	29306	27920	169344	26857	1056005	45094	110898	0	0	7985	628736	0	0
2024-07-22 16:05:47			0	35826	0	0	0	29303	27920	169316	27022	1056032	45106	110897	0	0	7985	628693	0	0
2024-07-22 16:06:47			0	35806	0	0	0	29301	27920	169256	26946	1056005	45083	110896	0	0	7984	629542	0	0
2024-07-22 16:07:47			0	35802	0	0	0	29311	27920	169352	27088	1056032	45094	110900	0	0	7983	629711	0	0
2024-07-22 16:08:47			0	35805	0	0	0	29309	27920	169400	26909	1056005	45106	110899	0	0	7984	629584	0	0
2024-07-22 16:09:47			0	35789	0	0	0	29303	27920	169364	27033	1056005	45083	110897	0	0	7983	630263	0	0
2024-07-22 16:10:47			0	35790	0	0	0	29309	27920	169488	27142	1056005	45094	110899	0	0	7983	630221	0	0
2024-07-22 16:11:47			0	35793	0	0	0	29301	27920	169512	27045	1056032	45117	110896	0	0	7983	630093	0	0
2024-07-22 16:12:47			0	35785	0	0	0	29311	27920	169568	26906	1055996	45093	110900	0	0	7982	630433	0	0
2024-07-22 16:13:47			0	35779	0	0	0	29306	27920	169588	26935	1056086	45094	110898	0	0	7982	630688	0	0
2024-07-22 16:14:47			0	35771	0	0	0	29311	27920	169532	26920	1056005	45094	110900	0	0	7982	631028	0	0
2024-07-22 16:15:47			0	35757	0	0	0	29298	27910	169676	27126	1055987	45104	110895	0	0	7981	631660	0	0
2024-07-22 16:16:47			0	35747	0	0	0	29311	27910	169700	27107	1055960	45092	110900	0	0	7980	632085	0	0
2024-07-22 16:17:47			0	35744	0	0	0	29309	27910	169756	27045	1056041	45104	110899	0	0	7980	632213	0	0
2024-07-22 16:18:47			0	35732	0	0	0	29314	27910	169732	27255	1056041	45104	110901	0	0	7979	632724	0	0
2024-07-22 16:19:47			0	35726	0	0	0	29306	27910	169764	26847	1055960	45104	110898	0	0	7979	632979	0	0
2024-07-22 16:20:47			0	35721	0	0	0	29303	27910	169816	27088	1055978	45092	110897	0	0	7979	633193	0	0
2024-07-22 16:21:47			0	35718	0	0	0	29303	27910	169908	27020	1055978	45104	110897	0	0	7978	633320	0	0
2024-07-22 16:22:47			0	35708	0	0	0	29306	27910	169916	27005	1056068	45092	110898	0	0	7978	633747	0	0
2024-07-22 16:23:47			0	35711	0	0	0	29309	27920	170028	27422	1055996	45093	110899	0	0	7978	633582	0	0
2024-07-22 16:24:47			0	35690	0	0	0	29301	27910	169976	27267	1055978	45092	110896	0	0	7977	634515	0	0
2024-07-22 16:25:47			0	35699	0	0	0	29306	27910	170092	27176	1056059	45092	110898	0	0	7977	634130	0	0
2024-07-22 16:26:47			0	35678	0	0	0	29298	27900	170128	27059	1055969	45104	110895	0	0	7976	635063	0	0
2024-07-22 16:27:47			0	35682	0	0	0	29301	27900	170016	27005	1055987	45091	110896	0	0	7976	634893	0	0
2024-07-22 16:28:47			0	35686	0	0	0	29303	27910	170048	26923	1056005	45104	110897	0	0	7976	634685	0	0
2024-07-22 16:29:47			0	35680	0	0	0	29298	27910	170112	26823	1055978	45104	110895	0	0	7976	634941	0	0
2024-07-22 16:30:47			0	35655	0	0	0	29293	27910	170240	27196	1055987	45104	110893	0	0	7975	636009	0	0
2024-07-22 16:31:47			0	35657	0	0	0	29296	27900	170264	27019	1055987	45114	110894	0	0	7975	635961	0	0
2024-07-22 16:32:47			0	35621	0	0	0	29280	27900	170376	26861	1055906	45091	110888	0	0	7973	637501	0	0
2024-07-22 16:33:47			0	35612	0	0	0	29272	27900	170532	27305	1055906	45081	110885	0	0	7972	637886	0	0
2024-07-22 16:34:47			0	35615	0	0	0	29283	27900	170572	27057	1055825	45081	110889	0	0	7972	637758	0	0
2024-07-22 16:35:47			0	35601	0	0	0	29285	27890	170504	27093	1055808	45090	110890	0	0	7971	638394	0	0
2024-07-22 16:36:47			0	35605	0	0	0	29275	27900	170472	27251	1055879	45091	110886	0	0	7972	638186	0	0
2024-07-22 16:37:47			0	35580	0	0	0	29264	27890	170584	27059	1055808	45080	110882	0	0	7971	639295	0	0
2024-07-22 16:38:47			0	35575	0	0	0	29264	27890	170796	27253	1055817	45080	110882	0	0	7970	639510	0	0
2024-07-22 16:39:47			0	35556	0	0	0	29267	27890	170732	27097	1055915	45080	110883	0	0	7969	640326	0	0
2024-07-22 16:40:47			0	35541	0	0	0	29257	27880	170800	27124	1055799	45102	110879	0	0	7968	641007	0	0
2024-07-22 16:41:47			0	35524	0	0	0	29275	27890	170992	27164	1055835	45102	110886	0	0	7967	641702	0	0
2024-07-22 16:42:47			0	35539	0	0	0	29251	27880	170896	27008	1055772	45102	110877	0	0	7968	641093	0	0
2024-07-22 16:43:47			0	35514	0	0	0	29246	27880	170960	27241	1055790	45089	110875	0	0	7967	642169	0	0
2024-07-22 16:44:47			0	35500	0	0	0	29262	27880	171052	27090	1055745	45102	110881	0	0	7966	642772	0	0
2024-07-22 16:45:47			0	35501	0	0	0	29254	27870	171000	27105	1055808	45078	110878	0	0	7966	642766	0	0
2024-07-22 16:46:47			0	35518	0	0	0	29244	27870	171004	27144	1055754	45088	110874	0	0	7967	642034	0	0
2024-07-22 16:47:47			0	35497	0	0	0	29205	27870	170944	27268	1055745	45078	110859	0	0	7966	642938	0	0
2024-07-22 16:48:47			0	35469	0	0	0	29199	27850	171228	27208	1055584	45076	110857	0	0	7965	644220	0	0
2024-07-22 16:49:47			0	35469	0	0	0	29194	27850	171268	27234	1055521	45075	110855	0	0	7965	644220	0	0
2024-07-22 16:50:47			0	35428	0	0	0	29176	27840	171384	27351	1055504	45075	110848	0	0	7962	646028	0	0
2024-07-22 16:51:47			0	35431	0	0	0	29220	27830	171384	26922	1055522	45084	110865	0	0	7962	645936	0	0
2024-07-22 16:52:47			0	35434	0	0	0	29215	27830	171444	27185	1055486	45083	110863	0	0	7962	645806	0	0
2024-07-22 16:53:47			0	35448	0	0	0	29223	27830	171416	27209	1055513	45083	110866	0	0	7963	645201	0	0
2024-07-22 16:54:47			0	35430	0	0	0	29231	27830	171400	27216	1055513	45083	110869	0	0	7962	645979	0	0
2024-07-22 16:55:47			0	35452	0	0	0	29251	27830	171192	27223	1055567	45083	110877	0	0	7963	645028	0	0
2024-07-22 16:56:47			0	35472	0	0	0	29233	27830	171336	27083	1055522	45096	110870	0	0	7964	644165	0	0
2024-07-22 16:57:47			0	35479	0	0	0	29257	27830	171228	27268	1055593	45106	110879	0	0	7964	643862	0	0
2024-07-22 16:58:47			0	35489	0	0	0	29257	27830	171208	26946	1055540	45095	110879	0	0	7965	643431	0	0
2024-07-22 16:59:47			0	35488	0	0	0	29257	27840	171196	27088	1055611	45085	110879	0	0	7965	643437	0	0
2024-07-22 17:00:47			0	35503	0	0	0	29238	27840	171092	26982	1055557	45085	110872	0	0	7966	642791	0	0
2024-07-22 17:01:47			0	35526	0	0	0	29257	27830	171108	27017	1055629	45084	110879	0	0	7967	641837	0	0
2024-07-22 17:02:47			0	35525	0	0	0	29215	27840	170988	27263	1055584	45085	110863	0	0	7968	641843	0	0
2024-07-22 17:03:47			0	35520	0	0	0	29220	27840	171028	27223	1055504	45085	110865	0	0	7967	642059	0	0
2024-07-22 17:04:47			0	35513	0	0	0	29192	27830	171244	27251	1055486	45073	110854	0	0	7967	642397	0	0
2024-07-22 17:05:47			0	35539	0	0	0	29257	27830	170980	27260	1055567	45095	110879	0	0	7968	641278	0	0
2024-07-22 17:06:47			0	35540	0	0	0	29205	27820	170928	27118	1055441	45083	110859	0	0	7969	641272	0	0
2024-07-22 17:07:47			0	35518	0	0	0	29168	27820	171164	27211	1055369	45062	110845	0	0	7968	642219	0	0
2024-07-22 17:08:47			0	35454	0	0	0	29140	27810	171432	27090	1055378	45072	110834	0	0	7964	645016	0	0
2024-07-22 17:09:47			0	35405	0	0	0	29106	27810	171676	27201	1055289	45071	110821	0	0	7962	647135	0	0
2024-07-22 17:10:47			0	35372	0	0	0	29062	27780	171852	26727	1055190	45068	110804	0	0	7961	648677	0	0
2024-07-22 17:11:47			0	35348	0	0	0	29038	27760	171948	26811	1054993	45043	110795	0	0	7959	649794	0	0
2024-07-22 17:12:47			0	35364	0	0	0	28948	27740	171944	26863	1054859	45032	110760	0	0	7962	649174	0	0
2024-07-22 17:13:47			0	35407	0	0	0	28922	27730	171788	27013	1054617	45020	110750	0	0	7965	647347	0	0
2024-07-22 17:14:47			0	35415	0	0	0	28896	27680	171664	27116	1054483	45026	110740	0	0	7966	647187	0	0
2024-07-22 17:15:47			0	35430	0	0	0	28888	27670	171668	27027	1054349	45036	110737	0	0	7967	646574	0	0
2024-07-22 17:16:47			0	35447	0	0	0	28864	27650	171672	27284	1054260	45044	110728	0	0	7968	645913	0	0
2024-07-22 17:17:47			0	35465	0	0	0	28841	27620	171532	27074	1054134	45031	110719	0	0	7969	645247	0	0
2024-07-22 17:18:47			0	35470	0	0	0	28846	27600	171488	27355	1054072	45040	110721	0	0	7969	645105	0	0
2024-07-22 17:19:47			0	35466	0	0	0	28857	27580	171536	26906	1054036	45038	110725	0	0	7969	645352	0	0
2024-07-22 17:20:47			0	35464	0	0	0	28875	27570	171632	27414	1054019	45048	110732	0	0	7968	645475	0	0
2024-07-22 17:21:47			0	35474	0	0	0	28888	27560	171636	27109	1054055	45047	110737	0	0	7969	645080	0	0
2024-07-22 17:22:47			0	35483	0	0	0	28857	27560	171556	26863	1053992	45046	110725	0	0	7970	644691	0	0
2024-07-22 17:23:47			0	35457	0	0	0	28875	27550	171624	27003	1053947	45045	110732	0	0	7968	645852	0	0
2024-07-22 17:24:47			0	35450	0	0	0	28883	27540	171660	27052	1053912	45056	110735	0	0	7967	646192	0	0
2024-07-22 17:25:47			0	35426	0	0	0	28880	27540	171944	27189	1054010	45044	110734	0	0	7966	647232	0	0
2024-07-22 17:26:47			0	35368	0	0	0	28888	27530	172084	26935	1053947	45067	110737	0	0	7962	649785	0	0
2024-07-22 17:27:47			0	35349	0	0	0	28901	27540	172316	27249	1054037	45044	110742	0	0	7961	650574	0	0
2024-07-22 17:28:47			0	35308	0	0	0	28898	27530	172512	27128	1053947	45067	110741	0	0	7958	652396	0	0
2024-07-22 17:29:47			0	35299	0	0	0	28937	27530	172584	27327	1053965	45054	110756	0	0	7957	652788	0	0
2024-07-22 17:30:47			0	35265	0	0	0	28955	27530	172692	27228	1053965	45066	110763	0	0	7954	654272	0	0
2024-07-22 17:31:47			0	35273	0	0	0	28945	27530	172644	26970	1054055	45078	110759	0	0	7955	653923	0	0
2024-07-22 17:32:47			0	35266	0	0	0	28958	27530	172688	27331	1054109	45067	110764	0	0	7954	654228	0	0
2024-07-22 17:33:47			0	35262	0	0	0	28955	27540	172796	27267	1054064	45078	110763	0	0	7954	654365	0	0
2024-07-22 17:34:47			0	35240	0	0	0	29015	27540	172884	27218	1054118	45078	110786	0	0	7952	655327	0	0
2024-07-22 17:35:47			0	35270	0	0	0	28937	27540	172688	27461	1054127	45079	110756	0	0	7955	654016	0	0
2024-07-22 17:36:47			0	35238	0	0	0	28986	27540	172940	27305	1054127	45068	110775	0	0	7952	655414	0	0
2024-07-22 17:37:47			0	35241	0	0	0	29020	27550	172836	27289	1054252	45080	110788	0	0	7952	655245	0	0
2024-07-22 17:38:47			0	35254	0	0	0	28999	27550	172832	27081	1054252	45080	110780	0	0	7953	654677	0	0
2024-07-22 17:39:47			0	35255	0	0	0	29031	27550	172816	27194	1054279	45080	110792	0	0	7953	654633	0	0
2024-07-22 17:40:47			0	35234	0	0	0	29036	27570	172820	27083	1054341	45092	110794	0	0	7951	655476	0	0
2024-07-22 17:41:47			0	35264	0	0	0	29054	27570	172840	27279	1054386	45091	110801	0	0	7953	654165	0	0
2024-07-22 17:42:47			0	35246	0	0	0	29077	27580	172908	27001	1054467	45072	110810	0	0	7951	654914	0	0
2024-07-22 17:43:47			0	35269	0	0	0	29041	27590	172736	27149	1054503	45072	110796	0	0	7954	653871	0	0
2024-07-22 17:44:47			0	35249	0	0	0	29111	27590	172764	27244	1054503	45083	110823	0	0	7951	654745	0	0
2024-07-22 17:45:47			0	35289	0	0	0	29054	27600	172552	27350	1054610	45084	110801	0	0	7955	652961	0	0
2024-07-22 17:46:47			0	35259	0	0	0	29077	27610	172732	27066	1054592	45084	110810	0	0	7952	654233	0	0
2024-07-22 17:47:47			0	35255	0	0	0	29028	27610	172656	27402	1054547	45085	110791	0	0	7953	654407	0	0
2024-07-22 17:48:47			0	35235	0	0	0	29075	27610	172728	27180	1054547	45085	110809	0	0	7951	655281	0	0
2024-07-22 17:49:47			0	35227	0	0	0	29088	27610	172792	27150	1054574	45074	110814	0	0	7950	655631	0	0
2024-07-22 17:50:47			0	35222	0	0	0	29083	27610	172908	27265	1054601	45096	110812	0	0	7950	655850	0	0
2024-07-22 17:51:47			0	35195	0	0	0	29080	27630	172928	27161	1054600	45087	110811	0	0	7948	656956	0	0
2024-07-22 17:52:47			0	35213	0	0	0	29090	27630	172848	27230	1054708	45098	110815	0	0	7949	656168	0	0
2024-07-22 17:53:47			0	35211	0	0	0	29075	27630	172912	27173	1054663	45087	110809	0	0	7950	656256	0	0
2024-07-22 17:54:47			0	35180	0	0	0	29049	27640	172916	27258	1054735	45088	110799	0	0	7948	657575	0	0
2024-07-22 17:55:47			0	35182	0	0	0	29077	27630	173132	27088	1054663	45076	110810	0	0	7948	657525	0	0
2024-07-22 17:56:47			0	35188	0	0	0	29106	27650	173060	27022	1054744	45089	110821	0	0	7948	657187	0	0
2024-07-22 17:57:47			0	35200	0	0	0	29093	27650	172944	27305	1054699	45078	110816	0	0	7949	656661	0	0
2024-07-22 17:58:47			0	35205	0	0	0	29054	27660	172876	27229	1054762	45068	110801	0	0	7950	656405	0	0
2024-07-22 17:59:47			0	35172	0	0	0	29111	27660	173084	27255	1054762	45090	110823	0	0	7947	657850	0	0
2024-07-22 18:00:47			0	35200	0	0	0	29085	27660	172996	27312	1054825	45091	110813	0	0	7949	656623	0	0
2024-07-22 18:01:47			0	35196	0	0	0	29163	27670	173008	27133	1054834	45091	110843	0	0	7947	656761	0	0
2024-07-22 18:02:47			0	35253	0	0	0	29137	27670	172772	27105	1054941	45114	110833	0	0	7951	654269	0	0
2024-07-22 18:03:47			0	35268	0	0	0	29176	27680	172712	27258	1055013	45092	110848	0	0	7952	653576	0	0
2024-07-22 18:04:47			0	35290	0	0	0	29140	27700	172384	27199	1055129	45116	110834	0	0	7954	652542	0	0
2024-07-22 18:05:47			0	35265	0	0	0	29124	27710	172600	27277	1055012	45095	110828	0	0	7953	653594	0	0
2024-07-22 18:06:47			0	35268	0	0	0	29150	27700	172516	27400	1055003	45083	110838	0	0	7952	653501	0	0
2024-07-22 18:07:47			0	35286	0	0	0	29153	27700	172408	27535	1055003	45095	110839	0	0	7953	652716	0	0
2024-07-22 18:08:47			0	35295	0	0	0	29161	27720	172460	27223	1055084	45084	110842	0	0	7954	652249	0	0
2024-07-22 18:09:47			0	35313	0	0	0	29158	27720	172384	27284	1055084	45096	110841	0	0	7955	651465	0	0
2024-07-22 18:10:47			0	35310	0	0	0	29158	27730	172384	27369	1055191	45086	110841	0	0	7955	651558	0	0
2024-07-22 18:11:47			0	35299	0	0	0	29142	27720	172444	27189	1055066	45085	110835	0	0	7954	652075	0	0
2024-07-22 18:12:47			0	35285	0	0	0	29155	27730	172424	27588	1055191	45076	110840	0	0	7953	652647	0	0
2024-07-22 18:13:47			0	35301	0	0	0	29173	27740	172476	27220	1055173	45086	110847	0	0	7954	651913	0	0
2024-07-22 18:14:47			0	35317	0	0	0	29161	27740	172272	27350	1055173	45086	110842	0	0	7955	651216	0	0
2024-07-22 18:15:47			0	35293	0	0	0	29176	27740	172364	27249	1055155	45110	110848	0	0	7954	652261	0	0
2024-07-22 18:16:47			0	35306	0	0	0	29163	27750	172292	27277	1055245	45088	110843	0	0	7955	651657	0	0
2024-07-22 18:17:47			0	35283	0	0	0	29186	27740	172468	27216	1055155	45098	110852	0	0	7953	652697	0	0
2024-07-22 18:18:47			0	35310	0	0	0	29197	27760	172324	27450	1055262	45099	110856	0	0	7954	651446	0	0
2024-07-22 18:19:47			0	35314	0	0	0	29184	27740	172172	27034	1055290	45098	110851	0	0	7955	651347	0	0
2024-07-22 18:20:47			0	35327	0	0	0	29179	27760	172264	27251	1055289	45088	110849	0	0	7956	650706	0	0
2024-07-22 18:21:47			0	35317	0	0	0	29168	27760	172292	27227	1055289	45099	110845	0	0	7955	651141	0	0
2024-07-22 18:22:47			0	35318	0	0	0	29173	27760	172284	27229	1055343	45099	110847	0	0	7955	651098	0	0
2024-07-22 18:23:47			0	35319	0	0	0	29199	27770	172224	27305	1055280	45090	110857	0	0	7955	651017	0	0
2024-07-22 18:24:47			0	35345	0	0	0	29199	27760	172204	27319	1055352	45100	110857	0	0	7956	649924	0	0
2024-07-22 18:25:47			0	35357	0	0	0	29210	27760	172088	26989	1055370	45099	110861	0	0	7957	649403	0	0
2024-07-22 18:26:47			0	35396	0	0	0	29194	27770	171832	27180	1055397	45090	110855	0	0	7960	647674	0	0
2024-07-22 18:27:47			0	35389	0	0	0	29212	27780	171860	27272	1055406	45113	110862	0	0	7959	647940	0	0
2024-07-22 18:28:47			0	35415	0	0	0	29207	27780	171788	27194	1055406	45101	110860	0	0	7961	646814	0	0
2024-07-22 18:29:47			0	35399	0	0	0	29212	27770	171724	27116	1055442	45090	110862	0	0	7960	647544	0	0
2024-07-22 18:30:47			0	35405	0	0	0	29223	27780	171816	27057	1055442	45102	110866	0	0	7960	647247	0	0
2024-07-22 18:31:47			0	35421	0	0	0	29202	27790	171748	27227	1055451	45082	110858	0	0	7961	646517	0	0
2024-07-22 18:32:47			0	35411	0	0	0	29215	27780	171760	27178	1055469	45081	110863	0	0	7960	646987	0	0
2024-07-22 18:33:47			0	35434	0	0	0	29212	27790	171720	27048	1055504	45092	110862	0	0	7962	645955	0	0
2024-07-22 18:34:47			0	35429	0	0	0	29202	27790	171760	26939	1055486	45093	110858	0	0	7962	646171	0	0
2024-07-22 18:35:47			0	35426	0	0	0	29194	27790	171748	26970	1055451	45092	110855	0	0	7962	646301	0	0
2024-07-22 18:36:47			0	35410	0	0	0	29179	27790	171952	27124	1055397	45103	110849	0	0	7961	646993	0	0
2024-07-22 18:37:47			0	35413	0	0	0	29205	27780	171932	27239	1055442	45091	110859	0	0	7961	646901	0	0
2024-07-22 18:38:47			0	35424	0	0	0	29186	27780	171972	27190	1055415	45081	110852	0	0	7962	646425	0	0
2024-07-22 18:39:47			0	35401	0	0	0	29207	27790	171868	27036	1055451	45082	110860	0	0	7960	647383	0	0
2024-07-22 18:40:47			0	35413	0	0	0	29220	27800	171900	26955	1055414	45093	110865	0	0	7961	646826	0	0
2024-07-22 18:41:47			0	35413	0	0	0	29168	27800	171812	27241	1055495	45093	110845	0	0	7961	646826	0	0
2024-07-22 18:42:47			0	35405	0	0	0	29181	27790	171848	27298	1055379	45093	110850	0	0	7961	647210	0	0
2024-07-22 18:43:47			0	35424	0	0	0	29197	27790	171948	27171	1055424	45082	110856	0	0	7962	646387	0	0
2024-07-22 18:44:47			0	35425	0	0	0	29199	27790	171900	26915	1055370	45092	110857	0	0	7962	646344	0	0
2024-07-22 18:45:47			0	35415	0	0	0	29186	27790	171888	27279	1055477	45092	110852	0	0	7961	646777	0	0
2024-07-22 18:46:47			0	35415	0	0	0	29199	27780	171840	27055	1055442	45091	110857	0	0	7961	646814	0	0
2024-07-22 18:47:47			0	35408	0	0	0	29189	27780	171804	27000	1055361	45091	110853	0	0	7961	647117	0	0
2024-07-22 18:48:47			0	35397	0	0	0	29207	27790	171972	26653	1055433	45104	110860	0	0	7960	647556	0	0
2024-07-22 18:49:47			0	35406	0	0	0	29223	27780	172000	26975	1055432	45090	110866	0	0	7960	647204	0	0
2024-07-22 18:50:47			0	35415	0	0	0	29212	27810	171836	26791	1055504	45104	110862	0	0	7961	646702	0	0
2024-07-22 18:51:47			0	35416	0	0	0	29215	27790	171820	26915	1055451	45092	110863	0	0	7961	646733	0	0
2024-07-22 18:52:47			0	35413	0	0	0	29223	27790	171808	27031	1055486	45082	110866	0	0	7960	646863	0	0
2024-07-22 18:53:47			0	35426	0	0	0	29210	27790	171772	27154	1055459	45104	110861	0	0	7961	646301	0	0
2024-07-22 18:54:47			0	35438	0	0	0	29231	27810	171768	27254	1055477	45093	110869	0	0	7962	645707	0	0
2024-07-22 18:55:47			0	35436	0	0	0	29220	27800	171608	27156	1055522	45104	110865	0	0	7962	645831	0	0
2024-07-22 18:56:47			0	35430	0	0	0	29202	27810	171744	27161	1055477	45093	110858	0	0	7962	646053	0	0
2024-07-22 18:57:47			0	35453	0	0	0	29212	27800	171696	27260	1055549	45093	110862	0	0	7963	645096	0	0
2024-07-22 18:58:47			0	35443	0	0	0	29207	27800	171660	27050	1055522	45093	110860	0	0	7963	645528	0	0
2024-07-22 18:59:47			0	35427	0	0	0	29215	27810	171792	27417	1055504	45093	110863	0	0	7962	646183	0	0
2024-07-22 19:00:47			0	35424	0	0	0	29218	27810	171756	27175	1055486	45094	110864	0	0	7961	646313	0	0
2024-07-22 19:01:47			0	35411	0	0	0	29197	27810	171940	27258	1055504	45082	110856	0	0	7961	646875	0	0
2024-07-22 19:02:47			0	35414	0	0	0	29189	27810	171928	27131	1055513	45094	110853	0	0	7961	646745	0	0
2024-07-22 19:03:47			0	35368	0	0	0	29176	27810	172068	27135	1055423	45082	110848	0	0	7959	648739	0	0
2024-07-22 19:04:47			0	35364	0	0	0	29186	27800	172096	27190	1055414	45082	110852	0	0	7958	648950	0	0
2024-07-22 19:05:47			0	35382	0	0	0	29176	27790	172012	27310	1055451	45092	110848	0	0	7959	648206	0	0
2024-07-22 19:06:47			0	35361	0	0	0	29166	27780	172128	26956	1055432	45080	110844	0	0	7958	649155	0	0
2024-07-22 19:07:47			0	35370	0	0	0	29166	27790	171952	27248	1055370	45082	110844	0	0	7959	648727	0	0
2024-07-22 19:08:47			0	35371	0	0	0	29166	27790	171980	27095	1055424	45092	110844	0	0	7959	648683	0	0
2024-07-22 19:09:47			0	35364	0	0	0	29163	27780	172072	27246	1055442	45091	110843	0	0	7958	649024	0	0
2024-07-22 19:10:47			0	35357	0	0	0	29163	27780	172208	27183	1055379	45080	110843	0	0	7958	649328	0	0
2024-07-22 19:11:47			0	35346	0	0	0	29166	27780	172160	27090	1055352	45090	110844	0	0	7957	649806	0	0
2024-07-22 19:12:47			0	35345	0	0	0	29166	27780	172152	27100	1055352	45080	110844	0	0	7957	649849	0	0
2024-07-22 19:13:47			0	35339	0	0	0	29179	27770	172148	27053	1055280	45080	110849	0	0	7956	650147	0	0
2024-07-22 19:14:47			0	35323	0	0	0	29168	27770	172324	26920	1055343	45101	110845	0	0	7956	650843	0	0
2024-07-22 19:15:47			0	35313	0	0	0	29161	27780	172320	27313	1055352	45080	110842	0	0	7955	651240	0	0
2024-07-22 19:16:47			0	35302	0	0	0	29163	27780	172332	27211	1055379	45080	110843	0	0	7955	651719	0	0
2024-07-22 19:17:47			0	35302	0	0	0	29161	27780	172388	27124	1055352	45080	110842	0	0	7955	651719	0	0
2024-07-22 19:18:47			0	35298	0	0	0	29161	27770	172392	27419	1055316	45080	110842	0	0	7954	651931	0	0
2024-07-22 19:19:47			0	35300	0	0	0	29155	27760	172356	27287	1055325	45089	110840	0	0	7954	651881	0	0
2024-07-22 19:20:47			0	35303	0	0	0	29153	27760	172360	26993	1055298	45089	110839	0	0	7955	651750	0	0
2024-07-22 19:21:47			0	35325	0	0	0	29150	27760	172220	27303	1055298	45079	110838	0	0	7956	650793	0	0
2024-07-22 19:22:47			0	35325	0	0	0	29153	27760	172200	27157	1055325	45089	110839	0	0	7956	650793	0	0
2024-07-22 19:23:47			0	35327	0	0	0	29142	27770	172232	27039	1055253	45080	110835	0	0	7956	650669	0	0
2024-07-22 19:24:47			0	35328	0	0	0	29135	27760	172232	27251	1055289	45078	110832	0	0	7957	650663	0	0
2024-07-22 19:25:47			0	35306	0	0	0	29145	27760	172340	27190	1055262	45088	110836	0	0	7955	651620	0	0
2024-07-22 19:26:47			0	35311	0	0	0	29129	27750	172412	26986	1055191	45078	110830	0	0	7956	651440	0	0
2024-07-22 19:27:47			0	35314	0	0	0	29132	27760	172268	27045	1055235	45078	110831	0	0	7956	651272	0	0
2024-07-22 19:28:47			0	35326	0	0	0	29127	27760	172320	27095	1055244	45089	110829	0	0	7957	650750	0	0
2024-07-22 19:29:47			0	35333	0	0	0	29127	27750	172184	27170	1055218	45088	110829	0	0	7957	650483	0	0
2024-07-22 19:30:47			0	35330	0	0	0	29119	27750	172216	27150	1055218	45099	110826	0	0	7957	650613	0	0
2024-07-22 19:31:47			0	35326	0	0	0	29109	27740	172260	27206	1055236	45065	110822	0	0	7957	650825	0	0
2024-07-22 19:32:47			0	35326	0	0	0	29119	27730	172276	27185	1055191	45086	110826	0	0	7956	650862	0	0
2024-07-22 19:33:47			0	35333	0	0	0	29106	27740	172224	27078	1055101	45087	110821	0	0	7957	650520	0	0
2024-07-22 19:34:47			0	35355	0	0	0	29101	27740	172156	27045	1055119	45086	110819	0	0	7959	649565	0	0
2024-07-22 19:35:47			0	35365	0	0	0	29098	27730	172084	26946	1055101	45098	110818	0	0	7959	649168	0	0
2024-07-22 19:36:47			0	35387	0	0	0	29093	27720	171880	26946	1055057	45096	110816	0	0	7961	648251	0	0
2024-07-22 19:37:47			0	35391	0	0	0	29093	27730	171864	27102	1055128	45064	110816	0	0	7961	648040	0	0
2024-07-22 19:38:47			0	35359	0	0	0	29106	27720	172088	27055	1055066	45075	110821	0	0	7959	649466	0	0
2024-07-22 19:39:47			0	35352	0	0	0	29109	27730	172268	27140	1055075	45064	110822	0	0	7958	649732	0	0
2024-07-22 19:40:47			0	35315	0	0	0	29101	27730	172356	27112	1055075	45076	110819	0	0	7956	651341	0	0
2024-07-22 19:41:47			0	35306	0	0	0	29088	27710	172404	27261	1055048	45084	110814	0	0	7956	651808	0	0
2024-07-22 19:42:47			0	35312	0	0	0	29088	27720	172424	27118	1055093	45097	110814	0	0	7956	651509	0	0
2024-07-22 19:43:47			0	35294	0	0	0	29083	27700	172424	27263	1055003	45083	110812	0	0	7955	652368	0	0
2024-07-22 19:44:47			0	35303	0	0	0	29077	27710	172360	27116	1055048	45084	110810	0	0	7956	651938	0	0
2024-07-22 19:45:47			0	35333	0	0	0	29077	27710	172324	27183	1055021	45084	110810	0	0	7958	650633	0	0
2024-07-22 19:46:47			0	35327	0	0	0	29070	27700	172300	27112	1054923	45083	110807	0	0	7957	650931	0	0
2024-07-22 19:47:47			0	35335	0	0	0	29072	27710	172372	27083	1054958	45073	110808	0	0	7958	650546	0	0
2024-07-22 19:48:47			0	35354	0	0	0	29062	27690	172232	27215	1054932	45071	110804	0	0	7959	649795	0	0
2024-07-22 19:49:47			0	35336	0	0	0	29067	27700	172180	27138	1054914	45072	110806	0	0	7958	650540	0	0
2024-07-22 19:50:47			0	35361	0	0	0	29051	27690	172304	26896	1054851	45082	110800	0	0	7960	649491	0	0
2024-07-22 19:51:47			0	35357	0	0	0	29057	27690	172192	27343	1054842	45082	110802	0	0	7959	649665	0	0
2024-07-22 19:52:47			0	35345	0	0	0	29064	27690	172460	27086	1054842	45082	110805	0	0	7958	650186	0	0
2024-07-22 19:53:47			0	35297	0	0	0	29057	27690	172448	27223	1054851	45082	110802	0	0	7956	652275	0	0
2024-07-22 19:54:47			0	35315	0	0	0	29059	27680	172544	26693	1054878	45070	110803	0	0	7957	651528	0	0
2024-07-22 19:55:47			0	35315	0	0	0	29046	27680	172412	27235	1054824	45092	110798	0	0	7957	651528	0	0
2024-07-22 19:56:47			0	35327	0	0	0	29049	27690	172404	27183	1054869	45082	110799	0	0	7958	650969	0	0
2024-07-22 19:57:47			0	35319	0	0	0	29044	27670	172360	27159	1054815	45069	110797	0	0	7957	651392	0	0
2024-07-22 19:58:47			0	35298	0	0	0	29051	27680	172472	27086	1054824	45092	110800	0	0	7956	652269	0	0
2024-07-22 19:59:47			0	35309	0	0	0	29054	27670	172464	27168	1054807	45091	110801	0	0	7956	651827	0	0
2024-07-22 20:00:47			0	35339	0	0	0	29049	27680	172360	27003	1054824	45081	110799	0	0	7958	650484	0	0
2024-07-22 20:01:47			0	35353	0	0	0	29044	27660	172308	27272	1054744	45069	110797	0	0	7959	649951	0	0
2024-07-22 20:02:47			0	35367	0	0	0	29033	27660	172192	27085	1054816	45068	110793	0	0	7960	649343	0	0
2024-07-22 20:03:47			0	35375	0	0	0	29038	27660	172240	27007	1054771	45058	110795	0	0	7961	648995	0	0
2024-07-22 20:04:47			0	35355	0	0	0	29041	27660	172328	26998	1054771	45069	110796	0	0	7959	649864	0	0
2024-07-22 20:05:47			0	35345	0	0	0	29046	27660	172344	27105	1054825	45069	110798	0	0	7959	650298	0	0
2024-07-22 20:06:47			0	35349	0	0	0	29041	27660	172340	27092	1054789	45079	110796	0	0	7959	650125	0	0
2024-07-22 20:07:47			0	35341	0	0	0	29038	27660	172404	27159	1054798	45080	110795	0	0	7958	650472	0	0
2024-07-22 20:08:47			0	35338	0	0	0	29025	27650	172364	27274	1054726	45078	110790	0	0	7958	650640	0	0
2024-07-22 20:09:47			0	35351	0	0	0	29033	27650	172400	26993	1054690	45078	110793	0	0	7959	650075	0	0
2024-07-22 20:10:47			0	35336	0	0	0	29038	27650	172388	26934	1054690	45078	110795	0	0	7958	650727	0	0
2024-07-22 20:11:47			0	35307	0	0	0	29031	27640	172520	27135	1054672	45077	110792	0	0	7956	652027	0	0
2024-07-22 20:12:47			0	35279	0	0	0	29031	27630	172636	27159	1054708	45076	110792	0	0	7955	653285	0	0
2024-07-22 20:13:47			0	35301	0	0	0	29028	27630	172528	27289	1054663	45076	110791	0	0	7956	652326	0	0
2024-07-22 20:14:47			0	35287	0	0	0	29028	27630	172544	27419	1054690	45076	110791	0	0	7955	652936	0	0
2024-07-22 20:15:47			0	35296	0	0	0	29023	27630	172584	26906	1054654	45076	110789	0	0	7956	652544	0	0
2024-07-22 20:16:47			0	35306	0	0	0	29015	27650	172568	26918	1054744	45078	110786	0	0	7957	652033	0	0
2024-07-22 20:17:47			0	35288	0	0	0	29010	27640	172548	27435	1054645	45077	110784	0	0	7956	652855	0	0
2024-07-22 20:18:47			0	35311	0	0	0	29018	27630	172468	27145	1054663	45076	110787	0	0	7957	651890	0	0
2024-07-22 20:19:47			0	35321	0	0	0	29018	27630	172420	27197	1054654	45076	110787	0	0	7957	651455	0	0
2024-07-22 20:20:47			0	35332	0	0	0	29018	27630	172476	27059	1054600	45076	110787	0	0	7958	650976	0	0
2024-07-22 20:21:47			0	35349	0	0	0	29015	27630	172356	26880	1054627	45076	110786	0	0	7959	650237	0	0
2024-07-22 20:22:47			0	35341	0	0	0	29020	27620	172444	26972	1054618	45075	110788	0	0	7959	650622	0	0
2024-07-22 20:23:47			0	35354	0	0	0	29018	27620	172400	27220	1054592	45075	110787	0	0	7959	650057	0	0
2024-07-22 20:24:47			0	35335	0	0	0	29015	27630	172480	27263	1054681	45087	110786	0	0	7958	650846	0	0
2024-07-22 20:25:47			0	35340	0	0	0	29010	27620	172452	27152	1054592	45064	110784	0	0	7959	650666	0	0
2024-07-22 20:26:47			0	35321	0	0	0	28999	27620	172524	27234	1054618	45075	110780	0	0	7958	651492	0	0
2024-07-22 20:27:47			0	35331	0	0	0	28999	27620	172608	27138	1054645	45064	110780	0	0	7958	651057	0	0
2024-07-22 20:28:47			0	35337	0	0	0	29007	27620	172572	27492	1054618	45075	110783	0	0	7959	650796	0	0
2024-07-22 20:29:47			0	35341	0	0	0	29012	27610	172492	27182	1054574	45085	110785	0	0	7959	650660	0	0
2024-07-22 20:30:47			0	35336	0	0	0	29002	27610	172488	27263	1054592	45074	110781	0	0	7958	650877	0	0
2024-07-22 20:31:47			0	35355	0	0	0	29012	27620	172484	27223	1054583	45086	110785	0	0	7960	650014	0	0
2024-07-22 20:32:47			0	35362	0	0	0	29012	27610	172452	27229	1054574	45074	110785	0	0	7960	649747	0	0
2024-07-22 20:33:47			0	35343	0	0	0	28999	27610	172456	27282	1054601	45085	110780	0	0	7959	650573	0	0
2024-07-22 20:34:47			0	35344	0	0	0	29007	27620	172444	27180	1054583	45064	110783	0	0	7959	650492	0	0
2024-07-22 20:35:47			0	35338	0	0	0	29010	27610	172396	27409	1054592	45074	110784	0	0	7958	650790	0	0
2024-07-22 20:36:47			0	35343	0	0	0	29010	27620	172456	27306	1054610	45075	110784	0	0	7959	650535	0	0
2024-07-22 20:37:47			0	35352	0	0	0	29007	27610	172452	27128	1054547	45074	110783	0	0	7959	650181	0	0
2024-07-22 20:38:47			0	35316	0	0	0	28997	27600	172528	27128	1054583	45062	110779	0	0	7957	651785	0	0
2024-07-22 20:39:47			0	35323	0	0	0	29002	27610	172544	27079	1054601	45085	110781	0	0	7958	651443	0	0
2024-07-22 20:40:47			0	35333	0	0	0	28997	27610	172528	27109	1054574	45085	110779	0	0	7958	651008	0	0
2024-07-22 20:41:47			0	35311	0	0	0	28968	27600	172476	26844	1054493	45074	110768	0	0	7957	652003	0	0
2024-07-22 20:42:47			0	35228	0	0	0	28963	27590	172948	27020	1054377	45061	110766	0	0	7952	655663	0	0
2024-07-22 20:43:47			0	35197	0	0	0	28950	27600	173256	27013	1054493	45074	110761	0	0	7951	656982	0	0
2024-07-22 20:44:47			0	35163	0	0	0	28968	27590	173356	27222	1054341	45072	110768	0	0	7948	658510	0	0
2024-07-22 20:45:47			0	35143	0	0	0	28963	27590	173356	26994	1054422	45072	110766	0	0	7947	659388	0	0
2024-07-22 20:46:47			0	35148	0	0	0	28971	27590	173364	27168	1054350	45073	110769	0	0	7947	659168	0	0
2024-07-22 20:47:47			0	35179	0	0	0	28968	27590	173372	27296	1054431	45073	110768	0	0	7949	657808	0	0
2024-07-22 20:48:47			0	35165	0	0	0	28961	27590	173364	27211	1054341	45083	110765	0	0	7948	658422	0	0
2024-07-22 20:49:47			0	35159	0	0	0	28958	27580	173392	27261	1054359	45072	110764	0	0	7948	658723	0	0
2024-07-22 20:50:47			0	35154	0	0	0	28953	27570	173420	26864	1054341	45071	110762	0	0	7948	658981	0	0
2024-07-22 20:51:47			0	35143	0	0	0	28955	27580	173468	27060	1054305	45072	110763	0	0	7947	659426	0	0
2024-07-22 20:52:47			0	35119	0	0	0	28950	27580	173500	27085	1054323	45059	110761	0	0	7946	660481	0	0
2024-07-22 20:53:47			0	35123	0	0	0	28948	27570	173608	27124	1054288	45071	110760	0	0	7946	660343	0	0
2024-07-22 20:54:47			0	35130	0	0	0	28953	27570	173544	26960	1054386	45058	110762	0	0	7946	660035	0	0
2024-07-22 20:55:47			0	35108	0	0	0	28948	27570	173623	27055	1054386	45058	110760	0	0	7945	661002	0	0
2024-07-22 20:56:47			0	35102	0	0	0	28935	27560	173636	26998	1054288	45069	110755	0	0	7945	661305	0	0
2024-07-22 20:57:47			0	35139	0	0	0	28924	27560	173604	27222	1054243	45070	110751	0	0	7947	659678	0	0
2024-07-22 20:58:47			0	35128	0	0	0	28937	27570	173488	27135	1054234	45059	110756	0	0	7946	660123	0	0
2024-07-22 20:59:47			0	35143	0	0	0	28929	27550	173440	27111	1054225	45057	110753	0	0	7947	659540	0	0
2024-07-22 21:00:47			0	35174	0	0	0	28937	27550	173312	27341	1054270	45056	110756	0	0	7949	658179	0	0
2024-07-22 21:01:47			0	35169	0	0	0	28932	27550	173412	26998	1054243	45056	110754	0	0	7949	658398	0	0
2024-07-22 21:02:47			0	35187	0	0	0	28929	27550	173364	27187	1054171	45069	110753	0	0	7950	657609	0	0
2024-07-22 21:03:47			0	35178	0	0	0	28924	27540	173252	27171	1054261	45068	110751	0	0	7950	658041	0	0
2024-07-22 21:04:47			0	35168	0	0	0	28916	27540	173476	27246	1054181	45056	110748	0	0	7949	658480	0	0
2024-07-22 21:05:47			0	35140	0	0	0	28919	27550	173532	27218	1054243	45079	110749	0	0	7947	659672	0	0
2024-07-22 21:06:47			0	35151	0	0	0	28914	27540	173596	27331	1054127	45056	110747	0	0	7948	659226	0	0
2024-07-22 21:07:47			0	35144	0	0	0	28916	27540	173588	27248	1054181	45068	110748	0	0	7948	659534	0	0
2024-07-22 21:08:47			0	35151	0	0	0	28924	27540	173572	27126	1054154	45079	110751	0	0	7948	659226	0	0
2024-07-22 21:09:47			0	35129	0	0	0	28922	27540	173624	26856	1054154	45056	110750	0	0	7947	660193	0	0
2024-07-22 21:10:47			0	35124	0	0	0	28911	27540	173720	26833	1054172	45055	110746	0	0	7946	660413	0	0
2024-07-22 21:11:47			0	35113	0	0	0	28937	27540	173768	27180	1054091	45067	110756	0	0	7945	660897	0	0
2024-07-22 21:12:47			0	35133	0	0	0	28932	27540	173624	27261	1054181	45068	110754	0	0	7947	660017	0	0
2024-07-22 21:13:47			0	35141	0	0	0	28940	27540	173728	27187	1054199	45055	110757	0	0	7947	659666	0	0
2024-07-22 21:14:47			0	35141	0	0	0	28937	27540	173644	27301	1054207	45068	110756	0	0	7947	659666	0	0
2024-07-22 21:15:47			0	35148	0	0	0	28922	27540	173616	27053	1054154	45056	110750	0	0	7948	659358	0	0
2024-07-22 21:16:47			0	35154	0	0	0	28929	27530	173540	27147	1054163	45055	110753	0	0	7948	659132	0	0
2024-07-22 21:17:47			0	35176	0	0	0	28932	27540	173420	26975	1054118	45055	110754	0	0	7949	658129	0	0
2024-07-22 21:18:47			0	35181	0	0	0	28927	27540	173464	26941	1054199	45067	110752	0	0	7950	657910	0	0
2024-07-22 21:19:47			0	35169	0	0	0	28927	27540	173392	26785	1054199	45067	110752	0	0	7949	658436	0	0
2024-07-22 21:20:47			0	35142	0	0	0	28937	27540	173600	27067	1054172	45055	110756	0	0	7947	659622	0	0
2024-07-22 21:21:47			0	35120	0	0	0	28929	27540	173720	27222	1054172	45078	110753	0	0	7946	660589	0	0
2024-07-22 21:22:47			0	35125	0	0	0	28924	27540	173800	27244	1054118	45067	110751	0	0	7946	660369	0	0
2024-07-22 21:23:47			0	35113	0	0	0	28929	27540	173804	27218	1054172	45078	110753	0	0	7945	660897	0	0
2024-07-22 21:24:47			0	35097	0	0	0	28909	27540	173867	27206	1054145	45067	110745	0	0	7945	661601	0	0
2024-07-22 21:25:47			0	35128	0	0	0	28893	27530	173704	27116	1054136	45055	110739	0	0	7947	660275	0	0
2024-07-22 21:26:47			0	35147	0	0	0	28896	27530	173692	26965	1054163	45067	110740	0	0	7948	659440	0	0
2024-07-22 21:27:47			0	35160	0	0	0	28867	27530	173448	27187	1054046	45054	110729	0	0	7949	658869	0	0
2024-07-22 21:28:47			0	35216	0	0	0	28872	27510	173352	27074	1054028	45042	110731	0	0	7953	656490	0	0
2024-07-22 21:29:47			0	35232	0	0	0	28885	27530	173228	27020	1053992	45066	110736	0	0	7954	655714	0	0
2024-07-22 21:30:47			0	35217	0	0	0	28880	27510	173348	27234	1053939	45064	110734	0	0	7953	656446	0	0
2024-07-22 21:31:47			0	35213	0	0	0	28875	27510	173328	27244	1053966	45064	110732	0	0	7952	656621	0	0
2024-07-22 21:32:47			0	35231	0	0	0	28870	27500	173308	27072	1053984	45064	110730	0	0	7954	655871	0	0
2024-07-22 21:33:47			0	35238	0	0	0	28872	27500	173096	27163	1053984	45041	110731	0	0	7954	655565	0	0
2024-07-22 21:34:47			0	35243	0	0	0	28872	27500	173072	27192	1053984	45052	110731	0	0	7954	655346	0	0
2024-07-22 21:35:47			0	35237	0	0	0	28862	27480	173248	27294	1053921	45062	110727	0	0	7954	655684	0	0
2024-07-22 21:36:47			0	35202	0	0	0	28877	27490	173356	27362	1053885	45051	110733	0	0	7952	657178	0	0
2024-07-22 21:37:47			0	35197	0	0	0	28888	27480	173404	27246	1053948	45050	110737	0	0	7951	657435	0	0
2024-07-22 21:38:47			0	35198	0	0	0	28880	27490	173428	26981	1053939	45041	110734	0	0	7951	657354	0	0
2024-07-22 21:39:47			0	35204	0	0	0	28870	27490	173260	27222	1053966	45051	110730	0	0	7952	657091	0	0
2024-07-22 21:40:47			0	35228	0	0	0	28870	27490	173200	27241	1053903	45062	110730	0	0	7953	656040	0	0
2024-07-22 21:41:47			0	35219	0	0	0	28867	27480	173208	26814	1053975	45062	110729	0	0	7953	656472	0	0
2024-07-22 21:42:47			0	35201	0	0	0	28880	27490	173332	27010	1053957	45062	110734	0	0	7952	657222	0	0
2024-07-22 21:43:47			0	35222	0	0	0	28872	27480	173348	27052	1053894	45050	110731	0	0	7953	656340	0	0
2024-07-22 21:44:47			0	35236	0	0	0	28877	27490	173188	27268	1053966	45063	110733	0	0	7954	655690	0	0
2024-07-22 21:45:47			0	35244	0	0	0	28870	27490	173196	27289	1053957	45050	110730	0	0	7954	655340	0	0
2024-07-22 21:46:47			0	35263	0	0	0	28875	27490	173084	27332	1053903	45050	110732	0	0	7955	654510	0	0
2024-07-22 21:47:47			0	35277	0	0	0	28867	27470	173072	27301	1053904	45061	110729	0	0	7956	653974	0	0
2024-07-22 21:48:47			0	35293	0	0	0	28862	27490	172932	26922	1053957	45050	110727	0	0	7958	653200	0	0
2024-07-22 21:49:47			0	35297	0	0	0	28872	27480	172896	27072	1053912	45061	110731	0	0	7958	653063	0	0
2024-07-22 21:50:47			0	35328	0	0	0	28870	27490	172880	27213	1053957	45062	110730	0	0	7960	651675	0	0
2024-07-22 21:51:47			0	35326	0	0	0	28875	27480	172876	26994	1054002	45062	110732	0	0	7959	651799	0	0
2024-07-22 21:52:47			0	35324	0	0	0	28875	27490	172692	27377	1053930	45073	110732	0	0	7959	651849	0	0
2024-07-22 21:53:47			0	35340	0	0	0	28877	27480	172592	26968	1053948	45050	110733	0	0	7960	651190	0	0
2024-07-22 21:54:47			0	35348	0	0	0	28883	27480	172656	27007	1053894	45050	110735	0	0	7961	650842	0	0
2024-07-22 21:55:47			0	35377	0	0	0	28872	27470	172580	26968	1053850	45061	110731	0	0	7962	649619	0	0
2024-07-22 21:56:47			0	35382	0	0	0	28851	27480	172504	27072	1053885	45039	110723	0	0	7963	649364	0	0
2024-07-22 21:57:47			0	35366	0	0	0	28854	27480	172572	27183	1053885	45061	110724	0	0	7962	650059	0	0
2024-07-22 21:58:47			0	35368	0	0	0	28872	27470	172656	27199	1053850	45050	110731	0	0	7962	650009	0	0
2024-07-22 21:59:47			0	35374	0	0	0	28867	27470	172612	27031	1053877	45061	110729	0	0	7962	649749	0	0
2024-07-22 22:00:47			0	35385	0	0	0	28857	27470	172580	26850	1053868	45060	110725	0	0	7963	649271	0	0
2024-07-22 22:01:47			0	35391	0	0	0	28867	27480	172520	27005	1053885	45072	110729	0	0	7963	648973	0	0
2024-07-22 22:02:47			0	35383	0	0	0	28849	27480	172560	26946	1053939	45061	110722	0	0	7963	649321	0	0
2024-07-22 22:03:47			0	35403	0	0	0	28854	27470	172484	27142	1053850	45061	110724	0	0	7964	648490	0	0
2024-07-22 22:04:47			0	35382	0	0	0	28857	27470	172560	27222	1053868	45049	110725	0	0	7963	649401	0	0
2024-07-22 22:05:47			0	35385	0	0	0	28849	27460	172548	27133	1053832	45059	110722	0	0	7963	649308	0	0
2024-07-22 22:06:47			0	35382	0	0	0	28851	27470	172520	27128	1053814	45049	110723	0	0	7963	649401	0	0
2024-07-22 22:07:47			0	35371	0	0	0	28844	27460	172596	27334	1053823	45048	110720	0	0	7963	649917	0	0
2024-07-22 22:08:47			0	35371	0	0	0	28857	27460	172528	27367	1053832	45059	110725	0	0	7962	649917	0	0
2024-07-22 22:09:47			0	35368	0	0	0	28844	27460	172540	27173	1053832	45059	110720	0	0	7962	650047	0	0
2024-07-22 22:10:47			0	35383	0	0	0	28838	27470	172504	27218	1053841	45071	110718	0	0	7963	649358	0	0
2024-07-22 22:11:47			0	35376	0	0	0	28831	27460	172568	27275	1053778	45059	110715	0	0	7963	649699	0	0
2024-07-22 22:12:47			0	35349	0	0	0	28831	27460	172740	27166	1053698	45048	110715	0	0	7961	650873	0	0
2024-07-22 22:13:47			0	35339	0	0	0	28833	27460	172692	27258	1053796	45059	110716	0	0	7961	651308	0	0
2024-07-22 22:14:47			0	35338	0	0	0	28831	27450	172804	26974	1053707	45048	110715	0	0	7961	651389	0	0
2024-07-22 22:15:47			0	35300	0	0	0	28825	27460	172864	27105	1053742	45048	110713	0	0	7958	653008	0	0
2024-07-22 22:16:47			0	35306	0	0	0	28831	27450	172892	27008	1053707	45048	110715	0	0	7959	652783	0	0
2024-07-22 22:17:47			0	35305	0	0	0	28836	27450	172856	27074	1053778	45047	110717	0	0	7959	652827	0	0
2024-07-22 22:18:47			0	35305	0	0	0	28823	27460	172932	27369	1053796	45048	110712	0	0	7959	652790	0	0
2024-07-22 22:19:47			0	35305	0	0	0	28818	27440	172952	27114	1053743	45068	110710	0	0	7959	652865	0	0
2024-07-22 22:20:47			0	35288	0	0	0	28841	27440	173060	27157	1053689	45057	110719	0	0	7957	653606	0	0
2024-07-22 22:21:47			0	35289	0	0	0	28854	27440	173056	27204	1053716	45057	110724	0	0	7957	653563	0	0
2024-07-22 22:22:47			0	35307	0	0	0	28846	27440	172876	27220	1053797	45057	110721	0	0	7958	652777	0	0
2024-07-22 22:23:47			0	35338	0	0	0	28846	27440	172924	27123	1053743	45057	110721	0	0	7960	651427	0	0
2024-07-22 22:24:47			0	35342	0	0	0	28849	27450	172940	27192	1053778	45047	110722	0	0	7961	651215	0	0
2024-07-22 22:25:47			0	35341	0	0	0	28851	27450	172832	27000	1053832	45047	110723	0	0	7961	651259	0	0
2024-07-22 22:26:47			0	35364	0	0	0	28849	27450	172772	27112	1053760	45059	110722	0	0	7962	650258	0	0
2024-07-22 22:27:47			0	35355	0	0	0	28838	27460	172724	27144	1053823	45059	110718	0	0	7962	650612	0	0
2024-07-22 22:28:47			0	35359	0	0	0	28838	27450	172808	27228	1053814	45059	110718	0	0	7962	650476	0	0
2024-07-22 22:29:47			0	35349	0	0	0	28841	27450	172772	27275	1053760	45059	110719	0	0	7961	650911	0	0
2024-07-22 22:30:47			0	35350	0	0	0	28846	27450	172892	27341	1053778	45047	110721	0	0	7961	650867	0	0
2024-07-22 22:31:47			0	35345	0	0	0	28844	27450	172860	27209	1053787	45059	110720	0	0	7961	651085	0	0
2024-07-22 22:32:47			0	35354	0	0	0	28851	27450	172732	26932	1053814	45059	110723	0	0	7961	650693	0	0
2024-07-22 22:33:47			0	35344	0	0	0	28844	27450	172824	27305	1053787	45059	110720	0	0	7961	651128	0	0
2024-07-22 22:34:47			0	35335	0	0	0	28849	27460	172792	27000	1053796	45048	110722	0	0	7960	651482	0	0
2024-07-22 22:35:47			0	35331	0	0	0	28838	27450	172804	27194	1053841	45048	110718	0	0	7960	651694	0	0
2024-07-22 22:36:47			0	35326	0	0	0	28849	27460	172792	27142	1053823	45059	110722	0	0	7960	651874	0	0
2024-07-22 22:37:47			0	35311	0	0	0	28851	27450	173056	27149	1053814	45048	110723	0	0	7959	652565	0	0
2024-07-22 22:38:47			0	35301	0	0	0	28846	27460	173048	26941	1053796	45059	110721	0	0	7958	652964	0	0
2024-07-22 22:39:47			0	35296	0	0	0	28857	27450	173028	27036	1053814	45059	110725	0	0	7958	653220	0	0
2024-07-22 22:40:47			0	35280	0	0	0	28851	27450	173128	26894	1053725	45047	110723	0	0	7957	653918	0	0
2024-07-22 22:41:47			0	35250	0	0	0	28857	27460	173132	26956	1053823	45059	110725	0	0	7955	655191	0	0
2024-07-22 22:42:47			0	35256	0	0	0	28854	27450	173120	27007	1053814	45059	110724	0	0	7955	654966	0	0
2024-07-22 22:43:47			0	35261	0	0	0	28854	27450	173172	26920	1053760	45070	110724	0	0	7955	654748	0	0
2024-07-22 22:44:47			0	35252	0	0	0	28854	27460	173128	27109	1053832	45070	110724	0	0	7955	655103	0	0
2024-07-22 22:45:47			0	35270	0	0	0	28838	27460	173108	27001	1053823	45059	110718	0	0	7956	654317	0	0
2024-07-22 22:46:47			0	35259	0	0	0	28844	27450	173128	27015	1053814	45059	110720	0	0	7956	654835	0	0
2024-07-22 22:47:47			0	35248	0	0	0	28854	27450	173280	27069	1053787	45059	110724	0	0	7955	655316	0	0
2024-07-22 22:48:47			0	35254	0	0	0	28857	27460	173252	27279	1053796	45070	110725	0	0	7955	655016	0	0
2024-07-22 22:49:47			0	35254	0	0	0	28849	27450	173092	27045	1053787	45059	110722	0	0	7955	655054	0	0
2024-07-22 22:50:47			0	35249	0	0	0	28870	27460	173320	27360	1053877	45059	110730	0	0	7955	655234	0	0
2024-07-22 22:51:47			0	35255	0	0	0	28857	27460	173224	27234	1053859	45059	110725	0	0	7955	654972	0	0
2024-07-22 22:52:47			0	35272	0	0	0	28859	27460	173224	27260	1053823	45059	110726	0	0	7956	654230	0	0
2024-07-22 22:53:47			0	35270	0	0	0	28849	27460	173232	27057	1053823	45059	110722	0	0	7956	654317	0	0
2024-07-22 22:54:47			0	35268	0	0	0	28836	27460	173200	27171	1053805	45048	110717	0	0	7956	654404	0	0
2024-07-22 22:55:47			0	35266	0	0	0	28836	27460	173136	26925	1053796	45048	110717	0	0	7956	654492	0	0
2024-07-22 22:56:47			0	35258	0	0	0	28841	27450	173156	27090	1053814	45059	110719	0	0	7956	654879	0	0
2024-07-22 22:57:47			0	35246	0	0	0	28851	27450	173284	27150	1053841	45059	110723	0	0	7955	655404	0	0
2024-07-22 22:58:47			0	35234	0	0	0	28846	27460	173520	27100	1053796	45048	110721	0	0	7954	655891	0	0
2024-07-22 22:59:47			0	35249	0	0	0	28851	27450	173404	27130	1053841	45059	110723	0	0	7955	655272	0	0
2024-07-22 23:00:47			0	35229	0	0	0	28836	27450	173484	26937	1053725	45058	110717	0	0	7954	656147	0	0
2024-07-22 23:01:47			0	35236	0	0	0	28844	27460	173452	27142	1053850	45048	110720	0	0	7954	655803	0	0
2024-07-22 23:02:47			0	35240	0	0	0	28844	27450	173324	26961	1053805	45047	110720	0	0	7954	655666	0	0
2024-07-22 23:03:47			0	35273	0	0	0	28841	27450	173316	27227	1053778	45058	110719	0	0	7956	654223	0	0
2024-07-22 23:04:47			0	35274	0	0	0	28825	27450	173184	27239	1053760	45059	110713	0	0	7957	654180	0	0
2024-07-22 23:05:47			0	35275	0	0	0	28818	27450	173160	27088	1053805	45047	110710	0	0	7957	654136	0	0
2024-07-22 23:06:47			0	35284	0	0	0	28831	27450	173120	26861	1053760	45059	110715	0	0	7957	653743	0	0
2024-07-22 23:07:47			0	35283	0	0	0	28825	27440	173160	27163	1053743	45057	110713	0	0	7957	653824	0	0
2024-07-22 23:08:47			0	35274	0	0	0	28844	27450	173148	27222	1053707	45059	110720	0	0	7956	654180	0	0
2024-07-22 23:09:47			0	35280	0	0	0	28833	27450	173152	27098	1053778	45058	110716	0	0	7957	653918	0	0
2024-07-22 23:10:47			0	35284	0	0	0	28836	27450	173092	27092	1053752	45069	110717	0	0	7957	653743	0	0
2024-07-22 23:11:47			0	35287	0	0	0	28828	27440	173152	27102	1053797	45068	110714	0	0	7957	653650	0	0
2024-07-22 23:12:47			0	35282	0	0	0	28841	27450	173144	27041	1053778	45047	110719	0	0	7957	653830	0	0
2024-07-22 23:13:47			0	35273	0	0	0	28825	27440	173060	27050	1053797	45046	110713	0	0	7957	654261	0	0
2024-07-22 23:14:47			0	35269	0	0	0	28810	27440	173104	27098	1053770	45046	110707	0	0	7957	654436	0	0
2024-07-22 23:15:47			0	35279	0	0	0	28820	27440	173064	27126	1053770	45046	110711	0	0	7957	653999	0	0
2024-07-22 23:16:47			0	35278	0	0	0	28805	27430	173108	26963	1053698	45068	110705	0	0	7957	654080	0	0
2024-07-22 23:17:47			0	35272	0	0	0	28823	27440	173200	27152	1053734	45057	110712	0	0	7957	654305	0	0
2024-07-22 23:18:47			0	35264	0	0	0	28820	27440	173272	27085	1053707	45057	110711	0	0	7956	654654	0	0
2024-07-22 23:19:47			0	35270	0	0	0	28823	27430	173220	27201	1053716	45056	110712	0	0	7956	654430	0	0
2024-07-22 23:20:47			0	35262	0	0	0	28831	27430	173272	26941	1053752	45057	110715	0	0	7956	654779	0	0
2024-07-22 23:21:47			0	35255	0	0	0	28833	27440	173284	27121	1053734	45057	110716	0	0	7955	655048	0	0
2024-07-22 23:22:47			0	35240	0	0	0	28833	27430	173408	26991	1053725	45068	110716	0	0	7954	655741	0	0
2024-07-22 23:23:47			0	35236	0	0	0	28833	27430	173340	27145	1053752	45046	110716	0	0	7954	655916	0	0
2024-07-22 23:24:47			0	35264	0	0	0	28825	27440	173440	27055	1053734	45035	110713	0	0	7956	654654	0	0
2024-07-22 23:25:47			0	35249	0	0	0	28828	27430	173388	27294	1053779	45068	110714	0	0	7955	655348	0	0
2024-07-22 23:26:47			0	35248	0	0	0	28823	27440	173468	27293	1053689	45057	110712	0	0	7955	655354	0	0
2024-07-22 23:27:47			0	35227	0	0	0	28823	27440	173532	27417	1053716	45068	110712	0	0	7954	656272	0	0
2024-07-22 23:28:47			0	35219	0	0	0	28815	27430	173548	27462	1053671	45068	110709	0	0	7953	656660	0	0
2024-07-22 23:29:47			0	35202	0	0	0	28820	27430	173440	27277	1053725	45057	110711	0	0	7952	657405	0	0
2024-07-22 23:30:47			0	35212	0	0	0	28823	27430	173612	27466	1053671	45057	110712	0	0	7953	656967	0	0
2024-07-22 23:31:47			0	35202	0	0	0	28820	27430	173544	26981	1053698	45046	110711	0	0	7952	657405	0	0
2024-07-22 23:32:47			0	35208	0	0	0	28823	27430	173624	27438	1053716	45067	110712	0	0	7953	657142	0	0
2024-07-22 23:33:47			0	35187	0	0	0	28818	27430	173668	26824	1053635	45034	110710	0	0	7951	658063	0	0
2024-07-22 23:34:47			0	35189	0	0	0	28807	27420	173640	27374	1053645	45055	110706	0	0	7952	658013	0	0
2024-07-22 23:35:47			0	35180	0	0	0	28828	27420	173708	27364	1053680	45078	110714	0	0	7951	658408	0	0
2024-07-22 23:36:47			0	35181	0	0	0	28820	27420	173780	27322	1053707	45055	110711	0	0	7951	658364	0	0
2024-07-22 23:37:47			0	35150	0	0	0	28815	27420	173824	27230	1053707	45055	110709	0	0	7949	659725	0	0
2024-07-22 23:38:47			0	35154	0	0	0	28825	27420	173908	27348	1053653	45044	110713	0	0	7949	659550	0	0
2024-07-22 23:39:47			0	35139	0	0	0	28810	27430	173800	27206	1053662	45056	110707	0	0	7949	660171	0	0
2024-07-22 23:40:47			0	35146	0	0	0	28805	27420	173860	27157	1053627	45055	110705	0	0	7949	659901	0	0
2024-07-22 23:41:47			0	35146	0	0	0	28805	27430	173812	27383	1053635	45067	110705	0	0	7949	659863	0	0
2024-07-22 23:42:47			0	35160	0	0	0	28792	27420	173824	27403	1053618	45055	110700	0	0	7950	659286	0	0
2024-07-22 23:43:47			0	35156	0	0	0	28774	27430	173688	27305	1053609	45045	110693	0	0	7950	659424	0	0
2024-07-22 23:44:47			0	35161	0	0	0	28779	27420	173732	27291	1053591	45055	110695	0	0	7950	659242	0	0
2024-07-22 23:45:47			0	35161	0	0	0	28786	27410	173840	27171	1053573	45043	110698	0	0	7950	659280	0	0
2024-07-22 23:46:47			0	35164	0	0	0	28784	27410	173756	27220	1053573	45043	110697	0	0	7950	659148	0	0
2024-07-22 23:47:47			0	35183	0	0	0	28781	27420	173672	27209	1053645	45055	110696	0	0	7952	658276	0	0
2024-07-22 23:48:47			0	35188	0	0	0	28771	27420	173656	27223	1053564	45055	110692	0	0	7952	658057	0	0
2024-07-22 23:49:47			0	35177	0	0	0	28758	27410	173656	27038	1053528	45054	110687	0	0	7952	658578	0	0
2024-07-22 23:50:47			0	35171	0	0	0	28771	27410	173840	27289	1053501	45054	110692	0	0	7951	658841	0	0
2024-07-22 23:51:47			0	35164	0	0	0	28792	27400	173752	27177	1053555	45052	110700	0	0	7950	659186	0	0
2024-07-22 23:52:47			0	35178	0	0	0	28781	27400	173680	27144	1053564	45053	110696	0	0	7951	658571	0	0
2024-07-22 23:53:47			0	35194	0	0	0	28784	27400	173728	27428	1053474	45052	110697	0	0	7952	657869	0	0
2024-07-22 23:54:47			0	35179	0	0	0	28794	27390	173660	27168	1053519	45041	110701	0	0	7951	658565	0	0
2024-07-22 23:55:47			0	35187	0	0	0	28792	27400	173720	27170	1053510	45053	110700	0	0	7952	658176	0	0
2024-07-22 23:56:47			0	35191	0	0	0	28779	27410	173548	27076	1053492	45054	110695	0	0	7952	657963	0	0
2024-07-22 23:57:47			0	35188	0	0	0	28776	27400	173640	27343	1053555	45064	110694	0	0	7952	658133	0	0
2024-07-22 23:58:47			0	35197	0	0	0	28774	27400	173668	27081	1053555	45052	110693	0	0	7953	657738	0	0
2024-07-22 23:59:47			0	35180	0	0	0	28766	27400	173832	27076	1053501	45041	110690	0	0	7952	658484	0	0
2024-07-23 00:00:47			0	35149	0	0	0	28750	27390	173868	27041	1053492	45041	110684	0	0	7950	659883	0	0
2024-07-23 00:01:47			0	35134	0	0	0	28745	27380	174000	27277	1053367	45051	110682	0	0	7949	660581	0	0
2024-07-23 00:02:47			0	35112	0	0	0	28742	27390	174072	27332	1053430	45052	110681	0	0	7948	661511	0	0
2024-07-23 00:03:47			0	35087	0	0	0	28745	27370	174179	27216	1053349	45028	110682	0	0	7946	662689	0	0
2024-07-23 00:04:47			0	35069	0	0	0	28737	27370	174135	27298	1053403	45050	110679	0	0	7945	663483	0	0
2024-07-23 00:05:47			0	35055	0	0	0	28742	27370	174251	27123	1053349	45050	110681	0	0	7944	664101	0	0
2024-07-23 00:06:47			0	35053	0	0	0	28742	27370	174239	27293	1053367	45050	110681	0	0	7944	664189	0	0
2024-07-23 00:07:47			0	35049	0	0	0	28745	27370	174315	27357	1053394	45050	110682	0	0	7944	664366	0	0
2024-07-23 00:08:47			0	35058	0	0	0	28745	27370	174403	27287	1053394	45050	110682	0	0	7944	663969	0	0
2024-07-23 00:09:47			0	35074	0	0	0	28727	27370	174435	27412	1053376	45062	110675	0	0	7946	663262	0	0
2024-07-23 00:10:47			0	35032	0	0	0	28735	27360	174463	27452	1053296	45048	110678	0	0	7943	665156	0	0
2024-07-23 00:11:47			0	35023	0	0	0	28729	27360	174587	27216	1053296	45060	110676	0	0	7942	665554	0	0
2024-07-23 00:12:47			0	34999	0	0	0	28768	27360	174687	27166	1053323	45048	110691	0	0	7940	666616	0	0
2024-07-23 00:13:47			0	34973	0	0	0	28761	27360	174835	27488	1053403	45048	110688	0	0	7939	667769	0	0
2024-07-23 00:14:47			0	35004	0	0	0	28774	27360	174719	27213	1053385	45049	110693	0	0	7940	666395	0	0
2024-07-23 00:15:47			0	34996	0	0	0	28750	27350	174707	27237	1053368	45048	110684	0	0	7940	666787	0	0
2024-07-23 00:16:47			0	35041	0	0	0	28792	27360	174599	27173	1053377	45038	110700	0	0	7942	664758	0	0
2024-07-23 00:17:47			0	35056	0	0	0	28781	27370	174347	27098	1053394	45073	110696	0	0	7943	664057	0	0
2024-07-23 00:18:47			0	35084	0	0	0	28711	27370	174327	27274	1053403	45050	110669	0	0	7946	662821	0	0
2024-07-23 00:19:47			0	35089	0	0	0	28703	27360	174227	27294	1053332	45049	110666	0	0	7947	662639	0	0
2024-07-23 00:20:47			0	35083	0	0	0	28680	27360	174183	27081	1053269	45038	110657	0	0	7947	662903	0	0
2024-07-23 00:21:47			0	35065	0	0	0	28680	27350	174311	27353	1053224	45027	110657	0	0	7946	663736	0	0
2024-07-23 00:22:47			0	35046	0	0	0	28683	27340	174431	27092	1053189	45037	110658	0	0	7944	664613	0	0
2024-07-23 00:23:47			0	35015	0	0	0	28706	27330	174595	27320	1053135	45045	110667	0	0	7942	666023	0	0
2024-07-23 00:24:47			0	34997	0	0	0	28740	27340	174651	27260	1053207	45046	110680	0	0	7940	666781	0	0
2024-07-23 00:25:47			0	34990	0	0	0	28732	27330	174719	27286	1053225	45045	110677	0	0	7940	667130	0	0
2024-07-23 00:26:47			0	34995	0	0	0	28753	27330	174703	27130	1053305	45057	110685	0	0	7940	666908	0	0
2024-07-23 00:27:47			0	35001	0	0	0	28774	27330	174655	27331	1053278	45035	110693	0	0	7940	666642	0	0
2024-07-23 00:28:47			0	35010	0	0	0	28781	27350	174663	27241	1053359	45060	110696	0	0	7940	666167	0	0
2024-07-23 00:29:47			0	35043	0	0	0	28799	27350	174447	27102	1053359	45060	110703	0	0	7942	664708	0	0
2024-07-23 00:30:47			0	35097	0	0	0	28812	27360	174323	27180	1053430	45060	110708	0	0	7945	662286	0	0
2024-07-23 00:31:47			0	35140	0	0	0	28823	27360	174060	27168	1053574	45072	110712	0	0	7948	660393	0	0
2024-07-23 00:32:47			0	35187	0	0	0	28823	27370	173792	27287	1053564	45073	110712	0	0	7951	658290	0	0
2024-07-23 00:33:47			0	35218	0	0	0	28833	27380	173612	27111	1053582	45074	110716	0	0	7953	656893	0	0
2024-07-23 00:34:47			0	35281	0	0	0	28825	27390	173396	27343	1053573	45075	110713	0	0	7957	654100	0	0
2024-07-23 00:35:47			0	35284	0	0	0	28820	27390	173268	27286	1053618	45064	110711	0	0	7957	653969	0	0
2024-07-23 00:36:47			0	35334	0	0	0	28786	27400	173000	27324	1053555	45052	110698	0	0	7961	651751	0	0
2024-07-23 00:37:47			0	35322	0	0	0	28779	27390	173012	27178	1053573	45064	110695	0	0	7960	652311	0	0
2024-07-23 00:38:47			0	35309	0	0	0	28799	27400	173168	27234	1053528	45064	110703	0	0	7959	652840	0	0
2024-07-23 00:39:47			0	35286	0	0	0	28805	27400	173244	27092	1053636	45064	110705	0	0	7958	653844	0	0
2024-07-23 00:40:47			0	35279	0	0	0	28789	27390	173192	27251	1053573	45052	110699	0	0	7957	654187	0	0
2024-07-23 00:41:47			0	35271	0	0	0	28771	27390	173200	27396	1053627	45052	110692	0	0	7957	654537	0	0
2024-07-23 00:42:47			0	35278	0	0	0	28771	27400	173340	27289	1053555	45064	110692	0	0	7958	654193	0	0
2024-07-23 00:43:47			0	35222	0	0	0	28774	27390	173452	27396	1053546	45052	110693	0	0	7954	656680	0	0
2024-07-23 00:44:47			0	35185	0	0	0	28774	27390	173632	27003	1053492	45052	110693	0	0	7952	658302	0	0
2024-07-23 00:45:47			0	35161	0	0	0	28774	27380	173736	27263	1053448	45051	110693	0	0	7950	659394	0	0
2024-07-23 00:46:47			0	35171	0	0	0	28750	27380	173672	27282	1053466	45050	110684	0	0	7951	658954	0	0
2024-07-23 00:47:47			0	35115	0	0	0	28732	27380	173751	27235	1053439	45040	110677	0	0	7948	661417	0	0
2024-07-23 00:48:47			0	35086	0	0	0	28724	27380	174011	27263	1053412	45040	110674	0	0	7946	662695	0	0
2024-07-23 00:49:47			0	35053	0	0	0	28722	27370	174207	27126	1053376	45050	110673	0	0	7944	664189	0	0
2024-07-23 00:50:47			0	35013	0	0	0	28727	27370	174523	27286	1053340	45050	110675	0	0	7942	665958	0	0
2024-07-23 00:51:47			0	34979	0	0	0	28722	27370	174703	27241	1053314	45040	110673	0	0	7940	667464	0	0
2024-07-23 00:52:47			0	34924	0	0	0	28727	27350	174995	27012	1053341	45048	110675	0	0	7936	669983	0	0
2024-07-23 00:53:47			0	34878	0	0	0	28724	27360	175219	27123	1053278	45027	110674	0	0	7933	671992	0	0
2024-07-23 00:54:47			0	34881	0	0	0	28722	27360	175211	27265	1053323	45038	110673	0	0	7933	671858	0	0
2024-07-23 00:55:47			0	34849	0	0	0	28714	27360	175379	27291	1053323	45048	110670	0	0	7931	673285	0	0
2024-07-23 00:56:47			0	34849	0	0	0	28716	27350	175419	26958	1053251	45048	110671	0	0	7931	673324	0	0
2024-07-23 00:57:47			0	34824	0	0	0	28714	27340	175519	27209	1053296	45047	110670	0	0	7930	674479	0	0
2024-07-23 00:58:47			0	34824	0	0	0	28706	27340	175599	27182	1053296	45047	110667	0	0	7930	674479	0	0
2024-07-23 00:59:47			0	34809	0	0	0	28714	27340	175667	27196	1053287	45046	110670	0	0	7929	675149	0	0
2024-07-23 01:00:47			0	34792	0	0	0	28722	27350	175719	27287	1053278	45038	110673	0	0	7928	675871	0	0
2024-07-23 01:01:47			0	34781	0	0	0	28716	27340	175779	27135	1053233	45046	110671	0	0	7927	676403	0	0
2024-07-23 01:02:47			0	34770	0	0	0	28714	27330	175823	27223	1053216	45045	110670	0	0	7926	676934	0	0
2024-07-23 01:03:47			0	34796	0	0	0	28771	27330	175735	27291	1053252	45035	110692	0	0	7927	675770	0	0
2024-07-23 01:04:47			0	34805	0	0	0	28812	27330	175663	27036	1053350	45057	110708	0	0	7927	675367	0	0
2024-07-23 01:05:47			0	34828	0	0	0	28802	27340	175639	27168	1053431	45059	110704	0	0	7929	674300	0	0
2024-07-23 01:06:47			0	34868	0	0	0	28805	27350	175383	27170	1053439	45060	110705	0	0	7931	672476	0	0
2024-07-23 01:07:47			0	34905	0	0	0	28799	27350	175231	27098	1053368	45048	110703	0	0	7934	670828	0	0
2024-07-23 01:08:47			0	34948	0	0	0	28815	27350	174967	27303	1053448	45060	110709	0	0	7936	668916	0	0
2024-07-23 01:09:47			0	35000	0	0	0	28810	27370	174835	27345	1053448	45050	110707	0	0	7939	666533	0	0
2024-07-23 01:10:47			0	35043	0	0	0	28789	27370	174511	26986	1053457	45073	110699	0	0	7943	664631	0	0
2024-07-23 01:11:47			0	35104	0	0	0	28794	27360	174299	27384	1053412	45061	110701	0	0	7946	661977	0	0
2024-07-23 01:12:47			0	35122	0	0	0	28799	27370	174072	27403	1053502	45073	110703	0	0	7947	661147	0	0
2024-07-23 01:13:47			0	35154	0	0	0	28805	27370	173872	27374	1053475	45050	110705	0	0	7949	659739	0	0
2024-07-23 01:14:47			0	35200	0	0	0	28805	27360	173772	27048	1053547	45061	110705	0	0	7952	657757	0	0
2024-07-23 01:15:47			0	35235	0	0	0	28792	27370	173612	26915	1053457	45050	110700	0	0	7954	656186	0	0
2024-07-23 01:16:47			0	35244	0	0	0	28812	27390	173456	26996	1053618	45064	110708	0	0	7955	655717	0	0
2024-07-23 01:17:47			0	35270	0	0	0	28831	27380	173408	26974	1053528	45063	110715	0	0	7956	654618	0	0
2024-07-23 01:18:47			0	35293	0	0	0	28833	27390	173324	27190	1053564	45075	110716	0	0	7958	653576	0	0
2024-07-23 01:19:47			0	35295	0	0	0	28841	27390	173224	27248	1053672	45052	110719	0	0	7957	653489	0	0
2024-07-23 01:20:47			0	35315	0	0	0	28836	27400	173192	27241	1053636	45075	110717	0	0	7959	652579	0	0
2024-07-23 01:21:47			0	35315	0	0	0	28836	27400	173000	27163	1053671	45076	110717	0	0	7959	652579	0	0
2024-07-23 01:22:47			0	35334	0	0	0	28836	27400	172996	27133	1053725	45065	110717	0	0	7960	651751	0	0
2024-07-23 01:23:47			0	35368	0	0	0	28833	27410	172860	27237	1053743	45054	110716	0	0	7962	650234	0	0
2024-07-23 01:24:47			0	35405	0	0	0	28841	27410	172716	26689	1053743	45065	110719	0	0	7964	648627	0	0
2024-07-23 01:25:47			0	35420	0	0	0	28828	27400	172700	27090	1053725	45065	110714	0	0	7966	648013	0	0
2024-07-23 01:26:47			0	35432	0	0	0	28823	27420	172504	26986	1053707	45055	110712	0	0	7966	647418	0	0
2024-07-23 01:27:47			0	35419	0	0	0	28823	27430	172524	26906	1053716	45056	110712	0	0	7966	647945	0	0
2024-07-23 01:28:47			0	35415	0	0	0	28831	27420	172656	27034	1053707	45066	110715	0	0	7965	648155	0	0
2024-07-23 01:29:47			0	35439	0	0	0	28838	27420	172476	27038	1053752	45066	110718	0	0	7967	647115	0	0
2024-07-23 01:30:47			0	35436	0	0	0	28849	27420	172516	27187	1053734	45066	110722	0	0	7966	647245	0	0
2024-07-23 01:31:47			0	35457	0	0	0	28844	27420	172436	27102	1053761	45055	110720	0	0	7968	646335	0	0
2024-07-23 01:32:47			0	35469	0	0	0	28838	27420	172408	26942	1053752	45055	110718	0	0	7968	645816	0	0
2024-07-23 01:33:47			0	35483	0	0	0	28831	27430	172248	26880	1053743	45067	110715	0	0	7970	645174	0	0
2024-07-23 01:34:47			0	35506	0	0	0	28812	27420	172244	27097	1053734	45088	110708	0	0	7971	644217	0	0
2024-07-23 01:35:47			0	35474	0	0	0	28823	27420	172352	27422	1053671	45066	110712	0	0	7969	645600	0	0
2024-07-23 01:36:47			0	35436	0	0	0	28823	27430	172580	26989	1053770	45067	110712	0	0	7967	647208	0	0
2024-07-23 01:37:47			0	35400	0	0	0	28810	27430	172628	27034	1053698	45057	110707	0	0	7965	648769	0	0
2024-07-23 01:38:47			0	35374	0	0	0	28797	27420	172724	27246	1053680	45055	110702	0	0	7963	649936	0	0
2024-07-23 01:39:47			0	35346	0	0	0	28802	27420	172932	27286	1053671	45055	110704	0	0	7961	651153	0	0
2024-07-23 01:40:47			0	35326	0	0	0	28805	27420	173068	27152	1053698	45055	110705	0	0	7960	652024	0	0
2024-07-23 01:41:47			0	35297	0	0	0	28823	27420	173192	27286	1053671	45055	110712	0	0	7958	653289	0	0
2024-07-23 01:42:47			0	35303	0	0	0	28836	27420	173192	27227	1053734	45044	110717	0	0	7958	653027	0	0
2024-07-23 01:43:47			0	35321	0	0	0	28812	27410	173188	27537	1053690	45054	110708	0	0	7960	652280	0	0
2024-07-23 01:44:47			0	35346	0	0	0	28792	27420	173012	27336	1053680	45055	110700	0	0	7962	651153	0	0
2024-07-23 01:45:47			0	35346	0	0	0	28781	27420	172980	27319	1053645	45066	110696	0	0	7962	651153	0	0
2024-07-23 01:46:47			0	35308	0	0	0	28784	27410	173072	27241	1053636	45054	110697	0	0	7959	652846	0	0
2024-07-23 01:47:47			0	35288	0	0	0	28792	27410	173160	27424	1053573	45043	110700	0	0	7958	653719	0	0
2024-07-23 01:48:47			0	35270	0	0	0	28807	27400	173400	27232	1053591	45053	110706	0	0	7957	654543	0	0
2024-07-23 01:49:47			0	35275	0	0	0	28807	27410	173344	27630	1053636	45065	110706	0	0	7957	654287	0	0
2024-07-23 01:50:47			0	35293	0	0	0	28818	27410	173384	27230	1053690	45065	110710	0	0	7958	653501	0	0
2024-07-23 01:51:47			0	35304	0	0	0	28815	27420	173156	27010	1053698	45044	110709	0	0	7959	652983	0	0
2024-07-23 01:52:47			0	35327	0	0	0	28807	27410	173056	27145	1053653	45065	110706	0	0	7960	652018	0	0
2024-07-23 01:53:47			0	35386	0	0	0	28794	27420	172920	27095	1053698	45066	110701	0	0	7964	649414	0	0
2024-07-23 01:54:47			0	35397	0	0	0	28805	27400	172764	27315	1053609	45052	110705	0	0	7964	649011	0	0
2024-07-23 01:55:47			0	35394	0	0	0	28786	27400	172640	27305	1053618	45042	110698	0	0	7965	649141	0	0
2024-07-23 01:56:47			0	35442	0	0	0	28771	27400	172580	27376	1053671	45053	110692	0	0	7968	647059	0	0
2024-07-23 01:57:47			0	35448	0	0	0	28779	27400	172488	27211	1053564	45053	110695	0	0	7968	646799	0	0
2024-07-23 01:58:47			0	35413	0	0	0	28758	27400	172648	27187	1053528	45052	110687	0	0	7966	648317	0	0
2024-07-23 01:59:47			0	35404	0	0	0	28774	27390	172764	27064	1053546	45052	110693	0	0	7965	648745	0	0
2024-07-23 02:00:47			0	35374	0	0	0	28766	27390	172908	27471	1053537	45041	110690	0	0	7964	650048	0	0
2024-07-23 02:01:47			0	35333	0	0	0	28755	27390	173024	27322	1053564	45041	110686	0	0	7961	651832	0	0
2024-07-23 02:02:47			0	35321	0	0	0	28753	27390	173168	27300	1053483	45052	110685	0	0	7961	652355	0	0
2024-07-23 02:03:47			0	35299	0	0	0	28779	27380	173396	27357	1053466	45050	110695	0	0	7959	653352	0	0
2024-07-23 02:04:47			0	35251	0	0	0	28766	27380	173404	27150	1053520	45050	110690	0	0	7956	655449	0	0
2024-07-23 02:05:47			0	35230	0	0	0	28753	27380	173592	27255	1053501	45051	110685	0	0	7955	656367	0	0
2024-07-23 02:06:47			0	35210	0	0	0	28750	27380	173700	27305	1053439	45050	110684	0	0	7954	657244	0	0
2024-07-23 02:07:47			0	35162	0	0	0	28740	27380	174028	27246	1053412	45040	110680	0	0	7951	659350	0	0
2024-07-23 02:08:47			0	35103	0	0	0	28740	27380	173995	27194	1053439	45028	110680	0	0	7947	661945	0	0
2024-07-23 02:09:47			0	35064	0	0	0	28750	27370	174307	26948	1053448	45028	110684	0	0	7944	663704	0	0
2024-07-23 02:10:47			0	35024	0	0	0	28748	27370	174679	27196	1053430	45062	110683	0	0	7942	665471	0	0
2024-07-23 02:11:47			0	35002	0	0	0	28740	27360	174787	27258	1053385	45049	110680	0	0	7941	666483	0	0
2024-07-23 02:12:47			0	34958	0	0	0	28732	27360	174923	27303	1053377	45060	110677	0	0	7938	668434	0	0
2024-07-23 02:13:47			0	34942	0	0	0	28745	27360	175095	27147	1053377	45048	110682	0	0	7937	669144	0	0
2024-07-23 02:14:47			0	34886	0	0	0	28740	27360	175263	26906	1053350	45060	110680	0	0	7933	671635	0	0
2024-07-23 02:15:47			0	34865	0	0	0	28729	27350	175523	27177	1053368	45060	110676	0	0	7932	672610	0	0
2024-07-23 02:16:47			0	34831	0	0	0	28722	27360	175651	27085	1053377	45048	110673	0	0	7930	674089	0	0
2024-07-23 02:17:47			0	34808	0	0	0	28732	27360	175807	26967	1053385	45061	110677	0	0	7929	675117	0	0
2024-07-23 02:18:47			0	34791	0	0	0	28742	27350	175747	27313	1053305	45071	110681	0	0	7927	675916	0	0
2024-07-23 02:19:47			0	34781	0	0	0	28729	27350	175903	27282	1053314	45048	110676	0	0	7927	676364	0	0
2024-07-23 02:20:47			0	34766	0	0	0	28740	27350	175931	27531	1053341	45048	110680	0	0	7926	677036	0	0
2024-07-23 02:21:47			0	34761	0	0	0	28745	27350	175891	27104	1053386	45048	110682	0	0	7925	677260	0	0
2024-07-23 02:22:47			0	34771	0	0	0	28711	27350	175819	27473	1053395	45060	110669	0	0	7927	676812	0	0
2024-07-23 02:23:47			0	34806	0	0	0	28706	27350	175675	27450	1053305	45048	110667	0	0	7929	675245	0	0
2024-07-23 02:24:47			0	34798	0	0	0	28716	27340	175751	27275	1053269	45070	110671	0	0	7928	675642	0	0
2024-07-23 02:25:47			0	34789	0	0	0	28724	27340	175811	27296	1053242	45047	110674	0	0	7927	676044	0	0
2024-07-23 02:26:47			0	34766	0	0	0	28750	27340	175895	27339	1053341	45046	110684	0	0	7925	677075	0	0
2024-07-23 02:27:47			0	34750	0	0	0	28774	27340	176003	27203	1053323	45047	110693	0	0	7924	677792	0	0
2024-07-23 02:28:47			0	34740	0	0	0	28774	27340	176079	27220	1053350	45059	110693	0	0	7923	678240	0	0
2024-07-23 02:29:47			0	34753	0	0	0	28758	27340	175963	26880	1053341	45046	110687	0	0	7925	677657	0	0
2024-07-23 02:30:47			0	34770	0	0	0	28735	27350	175891	26902	1053359	45071	110678	0	0	7926	676856	0	0
2024-07-23 02:31:47			0	34801	0	0	0	28766	27350	175835	27121	1053341	45071	110690	0	0	7927	675468	0	0
2024-07-23 02:32:47			0	34799	0	0	0	28768	27360	175771	27163	1053439	45061	110691	0	0	7927	675519	0	0
2024-07-23 02:33:47			0	34829	0	0	0	28786	27350	175715	27192	1053395	45048	110698	0	0	7929	674217	0	0
2024-07-23 02:34:47			0	34869	0	0	0	28789	27350	175375	27133	1053386	45060	110699	0	0	7931	672432	0	0
2024-07-23 02:35:47			0	34864	0	0	0	28786	27360	175299	27306	1053520	45061	110698	0	0	7931	672616	0	0
2024-07-23 02:36:47			0	34869	0	0	0	28792	27350	175311	27124	1053529	45071	110700	0	0	7931	672432	0	0
2024-07-23 02:37:47			0	34864	0	0	0	28805	27360	175479	27022	1053520	45049	110705	0	0	7931	672616	0	0
2024-07-23 02:38:47			0	34831	0	0	0	28792	27370	175575	27124	1053556	45050	110700	0	0	7929	674050	0	0
2024-07-23 02:39:47			0	34834	0	0	0	28810	27370	175703	26852	1053556	45073	110707	0	0	7929	673916	0	0
2024-07-23 02:40:47			0	34836	0	0	0	28799	27370	175663	27265	1053556	45050	110703	0	0	7929	673827	0	0
2024-07-23 02:41:47			0	34839	0	0	0	28789	27370	175695	27157	1053591	45050	110699	0	0	7930	673693	0	0
2024-07-23 02:42:47			0	34818	0	0	0	28774	27370	175687	27256	1053564	45050	110693	0	0	7929	674631	0	0
2024-07-23 02:43:47			0	34833	0	0	0	28779	27390	175655	27346	1053537	45064	110695	0	0	7930	673883	0	0
2024-07-23 02:44:47			0	34805	0	0	0	28786	27370	175739	27159	1053538	45050	110698	0	0	7928	675212	0	0
2024-07-23 02:45:47			0	34796	0	0	0	28792	27390	175695	27017	1053537	45052	110700	0	0	7927	675537	0	0
2024-07-23 02:46:47			0	34815	0	0	0	28789	27380	175631	27308	1053546	45073	110699	0	0	7928	674726	0	0
2024-07-23 02:47:47			0	34833	0	0	0	28792	27390	175639	27338	1053681	45052	110700	0	0	7929	673883	0	0
2024-07-23 02:48:47			0	34860	0	0	0	28789	27380	175575	27076	1053609	45063	110699	0	0	7931	672717	0	0
2024-07-23 02:49:47			0	34861	0	0	0	28781	27380	175399	27208	1053528	45063	110696	0	0	7931	672672	0	0
2024-07-23 02:50:47			0	34871	0	0	0	28740	27390	175339	27364	1053537	45052	110680	0	0	7933	672188	0	0
2024-07-23 02:51:47			0	34888	0	0	0	28727	27380	175339	27260	1053493	45050	110675	0	0	7934	671469	0	0
2024-07-23 02:52:47			0	34894	0	0	0	28729	27380	175299	27078	1053439	45062	110676	0	0	7934	671202	0	0
2024-07-23 02:53:47			0	34874	0	0	0	28750	27370	175371	27203	1053430	45062	110684	0	0	7933	672131	0	0
2024-07-23 02:54:47			0	34849	0	0	0	28768	27370	175639	27230	1053484	45050	110691	0	0	7931	673246	0	0
2024-07-23 02:55:47			0	34799	0	0	0	28786	27370	175767	27381	1053564	45050	110698	0	0	7927	675480	0	0
2024-07-23 02:56:47			0	34754	0	0	0	28797	27370	175991	26894	1053475	45073	110702	0	0	7924	677496	0	0
2024-07-23 02:57:47			0	34733	0	0	0	28799	27370	176159	27071	1053564	45062	110703	0	0	7923	678438	0	0
2024-07-23 02:58:47			0	34720	0	0	0	28794	27370	176107	27092	1053564	45062	110701	0	0	7922	679021	0	0
2024-07-23 02:59:47			0	34739	0	0	0	28781	27370	176111	26899	1053529	45073	110696	0	0	7923	678169	0	0
2024-07-23 03:00:47			0	34759	0	0	0	28768	27370	176047	26847	1053564	45050	110691	0	0	7925	677272	0	0
2024-07-23 03:01:47			0	34780	0	0	0	28742	27360	175875	27038	1053493	45072	110681	0	0	7927	676370	0	0
2024-07-23 03:02:47			0	34806	0	0	0	28748	27370	175735	27039	1053430	45062	110683	0	0	7928	675167	0	0
2024-07-23 03:03:47			0	34822	0	0	0	28781	27360	175707	27216	1053466	45049	110696	0	0	7929	674491	0	0
2024-07-23 03:04:47			0	34825	0	0	0	28807	27370	175711	27213	1053484	45062	110706	0	0	7928	674318	0	0
2024-07-23 03:05:47			0	34810	0	0	0	28789	27370	175791	27222	1053529	45062	110699	0	0	7928	674988	0	0
2024-07-23 03:06:47			0	34776	0	0	0	28784	27380	175879	27045	1053493	45062	110697	0	0	7926	676471	0	0
2024-07-23 03:07:47			0	34780	0	0	0	28794	27370	175947	27192	1053529	45073	110701	0	0	7926	676331	0	0
2024-07-23 03:08:47			0	34774	0	0	0	28799	27370	175963	27187	1053529	45062	110703	0	0	7925	676599	0	0
2024-07-23 03:09:47			0	34791	0	0	0	28794	27390	175819	27249	1053564	45052	110701	0	0	7927	675761	0	0
2024-07-23 03:10:47			0	34797	0	0	0	28794	27370	175639	27147	1053591	45050	110701	0	0	7927	675570	0	0
2024-07-23 03:11:47			0	34813	0	0	0	28802	27380	175675	27190	1053546	45062	110704	0	0	7928	674815	0	0
2024-07-23 03:12:47			0	34851	0	0	0	28797	27380	175459	27298	1053636	45074	110702	0	0	7930	673118	0	0
2024-07-23 03:13:47			0	34882	0	0	0	28799	27400	175283	27178	1053636	45075	110703	0	0	7932	671659	0	0
2024-07-23 03:14:47			0	34943	0	0	0	28797	27390	174971	27152	1053591	45064	110702	0	0	7936	668985	0	0
2024-07-23 03:15:47			0	34982	0	0	0	28799	27390	174767	27326	1053600	45052	110703	0	0	7939	667254	0	0
2024-07-23 03:16:47			0	35014	0	0	0	28784	27390	174607	26913	1053600	45075	110697	0	0	7941	665837	0	0
2024-07-23 03:17:47			0	35049	0	0	0	28766	27390	174403	26890	1053600	45052	110690	0	0	7943	664290	0	0
2024-07-23 03:18:47			0	35084	0	0	0	28755	27390	174283	27076	1053546	45064	110686	0	0	7946	662745	0	0
2024-07-23 03:19:47			0	35078	0	0	0	28763	27390	174367	27076	1053564	45052	110689	0	0	7945	663010	0	0
2024-07-23 03:20:47			0	35081	0	0	0	28774	27370	174407	27034	1053564	45050	110693	0	0	7945	662953	0	0
2024-07-23 03:21:47			0	35055	0	0	0	28784	27380	174455	26961	1053546	45062	110697	0	0	7943	664063	0	0
2024-07-23 03:22:47			0	35034	0	0	0	28761	27380	174495	27180	1053582	45051	110688	0	0	7942	664991	0	0
2024-07-23 03:23:47			0	35068	0	0	0	28761	27390	174335	27258	1053591	45052	110688	0	0	7945	663451	0	0
2024-07-23 03:24:47			0	35086	0	0	0	28761	27390	174299	27350	1053564	45052	110688	0	0	7946	662657	0	0
2024-07-23 03:25:47			0	35082	0	0	0	28761	27380	174311	27317	1053493	45050	110688	0	0	7945	662871	0	0
2024-07-23 03:26:47			0	35055	0	0	0	28761	27380	174435	27244	1053520	45062	110688	0	0	7944	664063	0	0
2024-07-23 03:27:47			0	35029	0	0	0	28755	27380	174491	27152	1053493	45062	110686	0	0	7942	665212	0	0
2024-07-23 03:28:47			0	34999	0	0	0	28742	27360	174639	27175	1053466	45061	110681	0	0	7940	666616	0	0
2024-07-23 03:29:47			0	34999	0	0	0	28735	27370	174707	27322	1053448	45062	110678	0	0	7941	666578	0	0
2024-07-23 03:30:47			0	34989	0	0	0	28724	27370	174731	27137	1053448	45050	110674	0	0	7940	667021	0	0
2024-07-23 03:31:47			0	34968	0	0	0	28724	27360	174819	27227	1053457	45048	110674	0	0	7939	667990	0	0
2024-07-23 03:32:47			0	34921	0	0	0	28724	27350	174947	26946	1053395	45038	110674	0	0	7936	670116	0	0
2024-07-23 03:33:47			0	34903	0	0	0	28727	27360	175195	27277	1053323	45038	110675	0	0	7935	670878	0	0
2024-07-23 03:34:47			0	34886	0	0	0	28729	27350	175163	26805	1053341	45060	110676	0	0	7934	671674	0	0
2024-07-23 03:35:47			0	34918	0	0	0	28732	27350	175215	27098	1053395	45038	110677	0	0	7935	670250	0	0
2024-07-23 03:36:47			0	34974	0	0	0	28737	27350	174779	26972	1053314	45048	110679	0	0	7939	667762	0	0
2024-07-23 03:37:47			0	35077	0	0	0	28748	27340	174455	27043	1053404	45047	110683	0	0	7945	663244	0	0
2024-07-23 03:38:47			0	35119	0	0	0	28742	27340	174172	27043	1053395	45036	110681	0	0	7948	661393	0	0
2024-07-23 03:39:47			0	35142	0	0	0	28729	27340	173924	26975	1053350	45047	110676	0	0	7950	660381	0	0
2024-07-23 03:40:47			0	35142	0	0	0	28737	27340	174044	26946	1053350	45037	110679	0	0	7949	660381	0	0
2024-07-23 03:41:47			0	35134	0	0	0	28727	27340	174088	27093	1053341	45036	110675	0	0	7949	660733	0	0
2024-07-23 03:42:47			0	35140	0	0	0	28716	27340	174156	26987	1053314	45058	110671	0	0	7950	660469	0	0
2024-07-23 03:43:47			0	35145	0	0	0	28690	27330	174080	26998	1053278	45057	110661	0	0	7950	660287	0	0
2024-07-23 03:44:47			0	35145	0	0	0	28654	27330	174008	27111	1053225	45045	110647	0	0	7951	660287	0	0
2024-07-23 03:45:47			0	35111	0	0	0	28649	27320	174244	26844	1053198	45034	110645	0	0	7949	661821	0	0
2024-07-23 03:46:47			0	35025	0	0	0	28657	27310	174599	26679	1053073	45043	110648	0	0	7943	665656	0	0
2024-07-23 03:47:47			0	34965	0	0	0	28654	27310	174963	27180	1053126	45043	110647	0	0	7940	668315	0	0
2024-07-23 03:48:47			0	34907	0	0	0	28646	27290	175291	27234	1053073	45041	110644	0	0	7936	670970	0	0
2024-07-23 03:49:47			0	34867	0	0	0	28659	27300	175579	26748	1053136	45042	110649	0	0	7933	672714	0	0
2024-07-23 03:50:47			0	34846	0	0	0	28651	27290	175747	27168	1053064	45020	110646	0	0	7932	673690	0	0
2024-07-23 03:51:47			0	34788	0	0	0	28654	27290	175835	27228	1053145	45064	110647	0	0	7928	676283	0	0
2024-07-23 03:52:47			0	34780	0	0	0	28644	27290	175979	27170	1053037	45041	110643	0	0	7928	676642	0	0
2024-07-23 03:53:47			0	34773	0	0	0	28633	27270	175991	26986	1053010	45051	110639	0	0	7928	677033	0	0
2024-07-23 03:54:47			0	34778	0	0	0	28618	27280	175919	27178	1053001	45031	110633	0	0	7928	676770	0	0
2024-07-23 03:55:47			0	34792	0	0	0	28618	27270	175827	26875	1052957	45051	110633	0	0	7929	676182	0	0
2024-07-23 03:56:47			0	34775	0	0	0	28615	27270	175867	27152	1052903	45041	110632	0	0	7928	676943	0	0
2024-07-23 03:57:47			0	34760	0	0	0	28605	27270	175967	27053	1052894	45040	110628	0	0	7927	677616	0	0
2024-07-23 03:58:47			0	34746	0	0	0	28599	27250	176227	26733	1052867	45039	110626	0	0	7926	678322	0	0
2024-07-23 03:59:47			0	34716	0	0	0	28605	27250	176375	27071	1052840	45039	110628	0	0	7924	679670	0	0
2024-07-23 04:00:47			0	34701	0	0	0	28599	27250	176427	27012	1052814	45049	110626	0	0	7923	680344	0	0
2024-07-23 04:01:47			0	34671	0	0	0	28607	27250	176647	26920	1052805	45038	110629	0	0	7921	681695	0	0
2024-07-23 04:02:47			0	34634	0	0	0	28602	27240	176683	27261	1052796	45026	110627	0	0	7919	683403	0	0
2024-07-23 04:03:47			0	34620	0	0	0	28594	27240	176859	27187	1052796	45026	110624	0	0	7918	684035	0	0
2024-07-23 04:04:47			0	34604	0	0	0	28594	27220	177027	27213	1052734	45036	110624	0	0	7917	684837	0	0
2024-07-23 04:05:47			0	34602	0	0	0	28594	27220	176935	27095	1052760	45036	110624	0	0	7917	684927	0	0
2024-07-23 04:06:47			0	34591	0	0	0	28592	27230	176963	27398	1052716	45036	110623	0	0	7916	685385	0	0
2024-07-23 04:07:47			0	34572	0	0	0	28589	27230	177023	27447	1052662	45036	110622	0	0	7915	686245	0	0
2024-07-23 04:08:47			0	34571	0	0	0	28584	27220	177035	27107	1052734	45046	110620	0	0	7915	686330	0	0
2024-07-23 04:09:47			0	34582	0	0	0	28576	27210	177031	27474	1052671	45036	110617	0	0	7916	685871	0	0
2024-07-23 04:10:47			0	34581	0	0	0	28573	27200	176971	27027	1052671	45033	110616	0	0	7916	685956	0	0
2024-07-23 04:11:47			0	34583	0	0	0	28573	27210	177067	27286	1052617	45036	110616	0	0	7916	685826	0	0
2024-07-23 04:12:47			0	34595	0	0	0	28573	27200	177027	27319	1052680	45034	110616	0	0	7917	685322	0	0
2024-07-23 04:13:47			0	34611	0	0	0	28566	27200	176799	27203	1052626	45034	110613	0	0	7918	684599	0	0
2024-07-23 04:14:47			0	34665	0	0	0	28571	27200	176571	27168	1052644	45033	110615	0	0	7921	682161	0	0
2024-07-23 04:15:47			0	34733	0	0	0	28568	27200	176131	27268	1052617	45033	110614	0	0	7926	679101	0	0
2024-07-23 04:16:47			0	34807	0	0	0	28561	27190	175891	27312	1052555	45033	110611	0	0	7930	675821	0	0
2024-07-23 04:17:47			0	34850	0	0	0	28550	27190	175583	27166	1052573	45033	110607	0	0	7933	673898	0	0
2024-07-23 04:18:47			0	34872	0	0	0	28550	27180	175459	27300	1052537	45032	110607	0	0	7935	672955	0	0
2024-07-23 04:19:47			0	34877	0	0	0	28550	27180	175427	27296	1052501	45031	110607	0	0	7935	672732	0	0
2024-07-23 04:20:47			0	34884	0	0	0	28545	27190	175387	27083	1052573	45033	110605	0	0	7936	672381	0	0
2024-07-23 04:21:47			0	34897	0	0	0	28555	27180	175399	27277	1052537	45032	110609	0	0	7936	671840	0	0
2024-07-23 04:22:47			0	34903	0	0	0	28550	27170	175407	27483	1052466	45053	110607	0	0	7937	671611	0	0
2024-07-23 04:23:47			0	34913	0	0	0	28545	27170	175267	27100	1052511	45041	110605	0	0	7937	671166	0	0
2024-07-23 04:24:47			0	34945	0	0	0	28550	27170	175175	27414	1052511	45041	110607	0	0	7939	669742	0	0
2024-07-23 04:25:47			0	34992	0	0	0	28553	27170	174987	27150	1052511	45041	110608	0	0	7942	667654	0	0
2024-07-23 04:26:47			0	35027	0	0	0	28548	27170	174899	27289	1052492	45041	110606	0	0	7945	666103	0	0
2024-07-23 04:27:47			0	35021	0	0	0	28563	27160	174779	27135	1052475	45030	110612	0	0	7944	666407	0	0
2024-07-23 04:28:47			0	35005	0	0	0	28563	27170	174935	27197	1052537	45041	110612	0	0	7943	667078	0	0
2024-07-23 04:29:47			0	34995	0	0	0	28553	27170	174983	27104	1052564	45041	110608	0	0	7942	667521	0	0
2024-07-23 04:30:47			0	34992	0	0	0	28555	27160	174999	27086	1052502	45030	110609	0	0	7942	667693	0	0
2024-07-23 04:31:47			0	34999	0	0	0	28561	27170	174991	27206	1052457	45031	110611	0	0	7943	667344	0	0
2024-07-23 04:32:47			0	34976	0	0	0	28558	27170	174991	26996	1052546	45031	110610	0	0	7941	668364	0	0
2024-07-23 04:33:47			0	34985	0	0	0	28545	27170	175087	27263	1052511	45053	110605	0	0	7942	667965	0	0
2024-07-23 04:34:47			0	34956	0	0	0	28553	27170	175115	26804	1052430	45053	110608	0	0	7940	669253	0	0
2024-07-23 04:35:47			0	34938	0	0	0	28550	27160	175259	27336	1052466	45018	110607	0	0	7939	670091	0	0
2024-07-23 04:36:47			0	34924	0	0	0	28540	27160	175403	27282	1052475	45030	110603	0	0	7938	670714	0	0
2024-07-23 04:37:47			0	34918	0	0	0	28553	27160	175371	27176	1052439	45029	110608	0	0	7938	670981	0	0
2024-07-23 04:38:47			0	34923	0	0	0	28548	27170	175427	27289	1052511	45031	110606	0	0	7938	670720	0	0
2024-07-23 04:39:47			0	34928	0	0	0	28548	27160	175431	27173	1052466	45029	110606	0	0	7938	670536	0	0
2024-07-23 04:40:47			0	34957	0	0	0	28548	27160	175195	27435	1052475	45030	110606	0	0	7940	669247	0	0
2024-07-23 04:41:47			0	34992	0	0	0	28540	27160	175111	27142	1052412	45029	110603	0	0	7942	667693	0	0
2024-07-23 04:42:47			0	35000	0	0	0	28537	27160	174979	27253	1052492	45029	110602	0	0	7943	667338	0	0
2024-07-23 04:43:47			0	35008	0	0	0	28529	27150	174935	26994	1052376	45029	110599	0	0	7944	667022	0	0
2024-07-23 04:44:47			0	35001	0	0	0	28537	27160	174967	27372	1052412	45029	110602	0	0	7943	667294	0	0
2024-07-23 04:45:47			0	34993	0	0	0	28529	27150	174951	27239	1052421	45029	110599	0	0	7943	667687	0	0
2024-07-23 04:46:47			0	34967	0	0	0	28535	27150	175127	27041	1052403	45029	110601	0	0	7941	668841	0	0
2024-07-23 04:47:47			0	34949	0	0	0	28532	27150	175147	27144	1052394	45029	110600	0	0	7940	669641	0	0
2024-07-23 04:48:47			0	34917	0	0	0	28529	27150	175435	27306	1052394	45029	110599	0	0	7938	671064	0	0
2024-07-23 04:49:47			0	34903	0	0	0	28529	27140	175587	27190	1052385	45050	110599	0	0	7937	671727	0	0
2024-07-23 04:50:47			0	34866	0	0	0	28519	27140	175527	26885	1052385	45017	110595	0	0	7935	673377	0	0
2024-07-23 04:51:47			0	34846	0	0	0	28511	27140	175887	27067	1052350	45038	110592	0	0	7934	674270	0	0
2024-07-23 04:52:47			0	34814	0	0	0	28516	27140	175855	27149	1052305	45028	110594	0	0	7931	675702	0	0
2024-07-23 04:53:47			0	34810	0	0	0	28511	27140	175963	27102	1052269	45038	110592	0	0	7931	675881	0	0
2024-07-23 04:54:47			0	34811	0	0	0	28509	27130	175959	27177	1052287	45027	110591	0	0	7931	675875	0	0
2024-07-23 04:55:47			0	34801	0	0	0	28493	27130	176019	27279	1052251	45015	110585	0	0	7931	676322	0	0
2024-07-23 04:56:47			0	34809	0	0	0	28498	27130	176023	27081	1052305	45026	110587	0	0	7931	675964	0	0
2024-07-23 04:57:47			0	34814	0	0	0	28498	27130	175983	27256	1052278	45015	110587	0	0	7932	675740	0	0
2024-07-23 04:58:47			0	34810	0	0	0	28490	27120	176011	27452	1052206	45014	110584	0	0	7932	675958	0	0
2024-07-23 04:59:47			0	34836	0	0	0	28488	27120	175831	27526	1052188	45026	110583	0	0	7933	674795	0	0
2024-07-23 05:00:47			0	34845	0	0	0	28483	27120	175999	26863	1052233	45036	110581	0	0	7934	674392	0	0
2024-07-23 05:01:47			0	34813	0	0	0	28477	27120	175915	27289	1052215	45037	110579	0	0	7932	675824	0	0
2024-07-23 05:02:47			0	34807	0	0	0	28480	27110	176123	27261	1052144	45024	110580	0	0	7931	676131	0	0
2024-07-23 05:03:47			0	34779	0	0	0	28464	27110	176143	27001	1052162	45024	110574	0	0	7930	677386	0	0
2024-07-23 05:04:47			0	34738	0	0	0	28457	27110	176359	26972	1052189	45013	110571	0	0	7927	679227	0	0
2024-07-23 05:05:47			0	34743	0	0	0	28467	27100	176535	26925	1052126	45024	110575	0	0	7928	679041	0	0
2024-07-23 05:06:47			0	34693	0	0	0	28464	27100	176563	27119	1052117	45023	110574	0	0	7924	681290	0	0
2024-07-23 05:07:47			0	34696	0	0	0	28472	27090	176651	27164	1052126	45011	110577	0	0	7924	681194	0	0
2024-07-23 05:08:47			0	34706	0	0	0	28454	27100	176623	27107	1052117	45012	110570	0	0	7925	680705	0	0
2024-07-23 05:09:47			0	34739	0	0	0	28454	27090	176483	27012	1052108	45022	110570	0	0	7927	679260	0	0
2024-07-23 05:10:47			0	34745	0	0	0	28459	27090	176351	27046	1052073	45034	110572	0	0	7928	678990	0	0
2024-07-23 05:11:47			0	34766	0	0	0	28483	27090	176151	27173	1052073	45034	110581	0	0	7929	678047	0	0
2024-07-23 05:12:47			0	34817	0	0	0	28490	27090	176035	27045	1052135	45034	110584	0	0	7932	675761	0	0
2024-07-23 05:13:47			0	34826	0	0	0	28470	27080	175911	27196	1052091	45044	110576	0	0	7933	675397	0	0
2024-07-23 05:14:47			0	34807	0	0	0	28475	27090	176003	26904	1052108	45022	110578	0	0	7931	676209	0	0
2024-07-23 05:15:47			0	34759	0	0	0	28488	27090	176247	27199	1052073	45022	110583	0	0	7928	678362	0	0
2024-07-23 05:16:47			0	34705	0	0	0	28480	27080	176499	27150	1052118	45022	110580	0	0	7925	680828	0	0
2024-07-23 05:17:47			0	34670	0	0	0	28480	27090	176695	27244	1052108	45022	110580	0	0	7923	682366	0	0
2024-07-23 05:18:47			0	34645	0	0	0	28477	27090	176775	27196	1052126	45022	110579	0	0	7921	683494	0	0
2024-07-23 05:19:47			0	34622	0	0	0	28472	27080	176963	27194	1052064	45034	110577	0	0	7920	684573	0	0
2024-07-23 05:20:47			0	34619	0	0	0	28470	27090	176955	27284	1052108	45022	110576	0	0	7919	684669	0	0
2024-07-23 05:21:47			0	34619	0	0	0	28449	27080	176951	27173	1052055	45021	110568	0	0	7920	684709	0	0
2024-07-23 05:22:47			0	34607	0	0	0	28428	27080	177003	27176	1052037	45022	110560	0	0	7919	685252	0	0
2024-07-23 05:23:47			0	34613	0	0	0	28428	27080	176983	26981	1052001	45021	110560	0	0	7920	684980	0	0
2024-07-23 05:24:47			0	34591	0	0	0	28449	27070	177007	26979	1051966	45020	110568	0	0	7918	686015	0	0
2024-07-23 05:25:47			0	34607	0	0	0	28449	27070	177035	27203	1052046	45032	110568	0	0	7919	685291	0	0
2024-07-23 05:26:47			0	34617	0	0	0	28457	27070	176999	26979	1052010	45032	110571	0	0	7919	684838	0	0
2024-07-23 05:27:47			0	34613	0	0	0	28449	27060	177055	27273	1051966	45031	110568	0	0	7919	685059	0	0
2024-07-23 05:28:47			0	34610	0	0	0	28454	27070	176971	27272	1052019	45020	110570	0	0	7919	685155	0	0
2024-07-23 05:29:47			0	34604	0	0	0	28449	27070	177043	27154	1051966	45020	110568	0	0	7919	685427	0	0
2024-07-23 05:30:47			0	34608	0	0	0	28446	27070	177027	27071	1051984	45032	110567	0	0	7919	685245	0	0
2024-07-23 05:31:47			0	34631	0	0	0	28457	27070	176895	27268	1051876	45032	110571	0	0	7920	684205	0	0
2024-07-23 05:32:47			0	34637	0	0	0	28462	27060	176947	27253	1052002	45031	110573	0	0	7921	683973	0	0
2024-07-23 05:33:47			0	34685	0	0	0	28459	27070	176663	26960	1052010	45042	110572	0	0	7924	681768	0	0
2024-07-23 05:34:47			0	34715	0	0	0	28454	27070	176499	27121	1052037	45032	110570	0	0	7926	680417	0	0
2024-07-23 05:35:47			0	34747	0	0	0	28454	27070	176295	27095	1052019	45032	110570	0	0	7928	678978	0	0
2024-07-23 05:36:47			0	34766	0	0	0	28451	27070	176211	27130	1052037	45042	110569	0	0	7929	678125	0	0
2024-07-23 05:37:47			0	34778	0	0	0	28438	27070	176147	26901	1051957	45009	110564	0	0	7930	677587	0	0
2024-07-23 05:38:47			0	34772	0	0	0	28436	27060	176163	27020	1051939	45019	110563	0	0	7930	677895	0	0
2024-07-23 05:39:47			0	34758	0	0	0	28446	27050	176203	26894	1051876	45018	110567	0	0	7929	678562	0	0
2024-07-23 05:40:47			0	34735	0	0	0	28451	27060	176191	27235	1051939	45031	110569	0	0	7927	679557	0	0
2024-07-23 05:41:47			0	34735	0	0	0	28446	27050	176411	27239	1051903	45018	110567	0	0	7927	679596	0	0
2024-07-23 05:42:47			0	34726	0	0	0	28451	27050	176463	27041	1051930	45018	110569	0	0	7926	680000	0	0
2024-07-23 05:43:47			0	34733	0	0	0	28459	27050	176475	27310	1051984	45030	110572	0	0	7927	679685	0	0
2024-07-23 05:44:47			0	34733	0	0	0	28449	27070	176431	27277	1051984	45032	110568	0	0	7927	679607	0	0
2024-07-23 05:45:47			0	34761	0	0	0	28449	27060	176227	27190	1051966	45019	110568	0	0	7929	678388	0	0
2024-07-23 05:46:47			0	34768	0	0	0	28446	27060	176139	27294	1051939	45019	110567	0	0	7929	678074	0	0
2024-07-23 05:47:47			0	34760	0	0	0	28470	27060	176135	27372	1051939	45041	110576	0	0	7928	678433	0	0
2024-07-23 05:48:47			0	34755	0	0	0	28477	27050	176355	26961	1051930	45041	110579	0	0	7928	678697	0	0
2024-07-23 05:49:47			0	34733	0	0	0	28470	27070	176443	27131	1052064	45042	110576	0	0	7927	679607	0	0
2024-07-23 05:50:47			0	34685	0	0	0	28467	27060	176639	27291	1052020	45019	110575	0	0	7924	681807	0	0
2024-07-23 05:51:47			0	34640	0	0	0	28467	27070	176795	27029	1052037	45042	110575	0	0	7921	683799	0	0
2024-07-23 05:52:47			0	34592	0	0	0	28490	27070	177063	27152	1052037	45032	110584	0	0	7917	685970	0	0
2024-07-23 05:53:47			0	34553	0	0	0	28496	27080	177219	27015	1052109	45021	110586	0	0	7915	687698	0	0
2024-07-23 05:54:47			0	34521	0	0	0	28498	27080	177419	27320	1052082	45043	110587	0	0	7913	689151	0	0
2024-07-23 05:55:47			0	34510	0	0	0	28485	27080	177587	27133	1052109	45021	110582	0	0	7912	689651	0	0
2024-07-23 05:56:47			0	34494	0	0	0	28496	27090	177455	27202	1052207	45034	110586	0	0	7911	690339	0	0
2024-07-23 05:57:47			0	34487	0	0	0	28496	27080	177611	27124	1052082	45021	110586	0	0	7910	690698	0	0
2024-07-23 05:58:47			0	34474	0	0	0	28488	27090	177639	27180	1052153	45044	110583	0	0	7910	691250	0	0
2024-07-23 05:59:47			0	34475	0	0	0	28472	27090	177783	27249	1052180	45034	110577	0	0	7910	691204	0	0
2024-07-23 06:00:47			0	34472	0	0	0	28464	27090	177603	27189	1052100	45022	110574	0	0	7910	691341	0	0
2024-07-23 06:01:47			0	34478	0	0	0	28462	27080	177611	27066	1052055	45043	110573	0	0	7910	691107	0	0
2024-07-23 06:02:47			0	34512	0	0	0	28438	27080	177411	27071	1052082	45033	110564	0	0	7913	689560	0	0
2024-07-23 06:03:47			0	34564	0	0	0	28423	27080	177091	26994	1052010	45011	110558	0	0	7917	687199	0	0
2024-07-23 06:04:47			0	34635	0	0	0	28444	27070	176723	27403	1051984	45032	110566	0	0	7921	684025	0	0
2024-07-23 06:05:47			0	34699	0	0	0	28436	27070	176571	27209	1051957	45032	110563	0	0	7925	681137	0	0
2024-07-23 06:06:47			0	34772	0	0	0	28428	27080	176235	27206	1051974	45021	110560	0	0	7930	677817	0	0
2024-07-23 06:07:47			0	34789	0	0	0	28446	27060	176127	27239	1051948	45031	110567	0	0	7931	677132	0	0
2024-07-23 06:08:47			0	34803	0	0	0	28446	27070	175999	26958	1052010	45032	110567	0	0	7932	676466	0	0
2024-07-23 06:09:47			0	34796	0	0	0	28444	27070	176059	27353	1051984	45032	110566	0	0	7931	676779	0	0
2024-07-23 06:10:47			0	34792	0	0	0	28418	27060	176135	27199	1051912	45019	110556	0	0	7931	676998	0	0
2024-07-23 06:11:47			0	34764	0	0	0	28418	27060	176127	27384	1051885	45008	110556	0	0	7929	678254	0	0
2024-07-23 06:12:47			0	34761	0	0	0	28425	27050	176243	27249	1051876	45030	110559	0	0	7929	678427	0	0
2024-07-23 06:13:47			0	34777	0	0	0	28405	27050	176219	27362	1051876	45030	110551	0	0	7930	677709	0	0
2024-07-23 06:14:47			0	34774	0	0	0	28397	27050	176235	27357	1051868	45007	110548	0	0	7930	677844	0	0
2024-07-23 06:15:47			0	34776	0	0	0	28405	27040	176163	27389	1051912	45029	110551	0	0	7930	677793	0	0
2024-07-23 06:16:47			0	34776	0	0	0	28394	27040	176199	27173	1051778	45017	110547	0	0	7931	677793	0	0
2024-07-23 06:17:47			0	34805	0	0	0	28397	27040	176135	27454	1051823	45029	110548	0	0	7932	676492	0	0
2024-07-23 06:18:47			0	34798	0	0	0	28423	27040	176107	27138	1051849	45040	110558	0	0	7931	676806	0	0
2024-07-23 06:19:47			0	34812	0	0	0	28407	27030	176127	27293	1051805	45027	110552	0	0	7933	676218	0	0
2024-07-23 06:20:47			0	34780	0	0	0	28410	27030	176327	26899	1051841	45028	110553	0	0	7930	677652	0	0
2024-07-23 06:21:47			0	34766	0	0	0	28418	27030	176371	26901	1051814	45005	110556	0	0	7929	678281	0	0
2024-07-23 06:22:47			0	34736	0	0	0	28431	27040	176463	27180	1051823	45029	110561	0	0	7927	679590	0	0
2024-07-23 06:23:47			0	34700	0	0	0	28402	27030	176687	26849	1051867	45016	110550	0	0	7925	681249	0	0
2024-07-23 06:24:47			0	34677	0	0	0	28394	27030	176823	26863	1051778	45038	110547	0	0	7924	682286	0	0
2024-07-23 06:25:47			0	34643	0	0	0	28407	27030	176935	26953	1051778	45015	110552	0	0	7922	683820	0	0
2024-07-23 06:26:47			0	34607	0	0	0	28397	27020	177107	26809	1051769	45027	110548	0	0	7920	685487	0	0
2024-07-23 06:27:47			0	34618	0	0	0	28399	27020	177063	27180	1051796	45004	110549	0	0	7920	684990	0	0
2024-07-23 06:28:47			0	34602	0	0	0	28399	27020	177131	27223	1051760	45027	110549	0	0	7919	685714	0	0
2024-07-23 06:29:47			0	34623	0	0	0	28405	27010	177147	27182	1051778	45037	110551	0	0	7920	684803	0	0
2024-07-23 06:30:47			0	34605	0	0	0	28412	27020	177219	27216	1051787	45015	110554	0	0	7919	685578	0	0
2024-07-23 06:31:47			0	34626	0	0	0	28420	27020	176991	27312	1051742	45038	110557	0	0	7920	684628	0	0
2024-07-23 06:32:47			0	34617	0	0	0	28397	27030	177015	27256	1051751	45027	110548	0	0	7920	684996	0	0
2024-07-23 06:33:47			0	34630	0	0	0	28397	27020	176875	27405	1051769	45004	110548	0	0	7921	684447	0	0
2024-07-23 06:34:47			0	34685	0	0	0	28389	27020	176779	27114	1051742	45027	110545	0	0	7925	681964	0	0
2024-07-23 06:35:47			0	34726	0	0	0	28394	27020	176695	27140	1051760	45027	110547	0	0	7927	680117	0	0
2024-07-23 06:36:47			0	34728	0	0	0	28394	27000	176503	27303	1051706	45013	110547	0	0	7927	680105	0	0
2024-07-23 06:37:47			0	34741	0	0	0	28386	27010	176439	27189	1051725	45014	110544	0	0	7928	679482	0	0
2024-07-23 06:38:47			0	34752	0	0	0	28397	27010	176455	27395	1051725	45026	110548	0	0	7929	678987	0	0
2024-07-23 06:39:47			0	34766	0	0	0	28394	27010	176311	27208	1051688	45002	110547	0	0	7930	678358	0	0
2024-07-23 06:40:47			0	34793	0	0	0	28399	27010	176151	27074	1051715	45025	110549	0	0	7931	677147	0	0
2024-07-23 06:41:47			0	34815	0	0	0	28389	27010	176119	26956	1051698	45026	110545	0	0	7933	676161	0	0
2024-07-23 06:42:47			0	34826	0	0	0	28386	27010	176147	26868	1051715	45025	110544	0	0	7934	675668	0	0
2024-07-23 06:43:47			0	34825	0	0	0	28381	27020	176055	27107	1051680	45015	110542	0	0	7934	675674	0	0
2024-07-23 06:44:47			0	34834	0	0	0	28381	27000	176011	27081	1051733	45002	110542	0	0	7934	675349	0	0
2024-07-23 06:45:47			0	34832	0	0	0	28371	27010	176115	27279	1051635	45013	110538	0	0	7934	675400	0	0
2024-07-23 06:46:47			0	34842	0	0	0	28374	27010	176147	27890	1051662	45013	110539	0	0	7935	674952	0	0
2024-07-23 06:47:47			0	34792	0	0	0	28371	27000	176315	27994	1051706	45025	110538	0	0	7932	677231	0	0
2024-07-23 06:48:47			0	34772	0	0	0	28358	27000	176331	27521	1051760	45025	110533	0	0	7931	678128	0	0
2024-07-23 06:49:47			0	34745	0	0	0	28371	27000	176563	27253	1051680	45002	110538	0	0	7929	679341	0	0
2024-07-23 06:50:47			0	34727	0	0	0	28371	27000	176575	27469	1051617	45012	110538	0	0	7928	680150	0	0
2024-07-23 06:51:47			0	34687	0	0	0	28368	27000	176807	27576	1051644	45024	110537	0	0	7925	681952	0	0
2024-07-23 06:52:47			0	34659	0	0	0	28366	27000	176991	27635	1051671	45012	110536	0	0	7923	683215	0	0
2024-07-23 06:53:47			0	34620	0	0	0	28379	27000	177083	27692	1051626	45013	110541	0	0	7921	684978	0	0
2024-07-23 06:54:47			0	34602	0	0	0	28376	27000	177159	27887	1051698	45024	110540	0	0	7919	685792	0	0
2024-07-23 06:55:47			0	34585	0	0	0	28376	27000	177299	27902	1051725	45012	110540	0	0	7918	686562	0	0
2024-07-23 06:56:47			0	34540	0	0	0	28379	27000	177351	27777	1051671	45012	110541	0	0	7915	688604	0	0
2024-07-23 06:57:47			0	34486	0	0	0	28379	27000	177667	27364	1051751	45035	110541	0	0	7912	691060	0	0
2024-07-23 06:58:47			0	34448	0	0	0	28384	27000	177891	27757	1051644	45035	110543	0	0	7909	692792	0	0
2024-07-23 06:59:47			0	34407	0	0	0	28371	27000	178103	27859	1051698	45012	110538	0	0	7907	694665	0	0
2024-07-23 07:00:47			0	34381	0	0	0	28371	27000	178347	27438	1051698	45024	110538	0	0	7905	695855	0	0
2024-07-23 07:01:47			0	34372	0	0	0	28374	26990	178315	27831	1051680	45034	110539	0	0	7905	696307	0	0
2024-07-23 07:02:47			0	34389	0	0	0	28379	26980	178219	27557	1051635	45010	110541	0	0	7906	695569	0	0
2024-07-23 07:03:47			0	34404	0	0	0	28376	26990	178151	27822	1051689	45035	110540	0	0	7907	694843	0	0
2024-07-23 07:04:47			0	34430	0	0	0	28374	27000	177999	27649	1051698	45024	110539	0	0	7908	693614	0	0
2024-07-23 07:05:47			0	34462	0	0	0	28366	26980	177907	27833	1051537	45034	110536	0	0	7910	692233	0	0
2024-07-23 07:06:47			0	34467	0	0	0	28368	27000	177771	27554	1051698	45035	110537	0	0	7911	691926	0	0
2024-07-23 07:07:47			0	34493	0	0	0	28379	27000	177635	27737	1051644	45024	110541	0	0	7912	690741	0	0
2024-07-23 07:08:47			0	34506	0	0	0	28368	27000	177483	27977	1051671	45024	110537	0	0	7913	690150	0	0
2024-07-23 07:09:47			0	34535	0	0	0	28371	27000	177495	28119	1051671	45001	110538	0	0	7915	688831	0	0
2024-07-23 07:10:47			0	34546	0	0	0	28366	27000	177499	27918	1051671	45024	110536	0	0	7916	688332	0	0
2024-07-23 07:11:47			0	34544	0	0	0	28368	27000	177375	27861	1051644	45024	110537	0	0	7916	688422	0	0
2024-07-23 07:12:47			0	34555	0	0	0	28366	26980	177287	27890	1051644	45023	110536	0	0	7917	688002	0	0
2024-07-23 07:13:47			0	34550	0	0	0	28361	26980	177291	27614	1051644	45011	110534	0	0	7916	688229	0	0
2024-07-23 07:14:47			0	34551	0	0	0	28361	26980	177359	27958	1051564	45011	110534	0	0	7916	688184	0	0
2024-07-23 07:15:47			0	34559	0	0	0	28371	26980	177319	28155	1051608	45022	110538	0	0	7917	687820	0	0
2024-07-23 07:16:47			0	34574	0	0	0	28361	26980	177219	28431	1051617	45023	110534	0	0	7918	687140	0	0
2024-07-23 07:17:47			0	34595	0	0	0	28350	26980	177075	27554	1051582	45000	110530	0	0	7919	686188	0	0
2024-07-23 07:18:47			0	34594	0	0	0	28355	26980	177003	27904	1051608	45033	110532	0	0	7919	686233	0	0
2024-07-23 07:19:47			0	34579	0	0	0	28361	26980	177211	28013	1051608	45010	110534	0	0	7918	686913	0	0
2024-07-23 07:20:47			0	34505	0	0	0	28353	26970	177503	28289	1051653	45000	110531	0	0	7913	690314	0	0
2024-07-23 07:21:47			0	34431	0	0	0	28361	26980	177931	27599	1051582	45022	110534	0	0	7909	693648	0	0
2024-07-23 07:22:47			0	34373	0	0	0	28355	26980	178191	27753	1051582	45010	110532	0	0	7905	696301	0	0
2024-07-23 07:23:47			0	34351	0	0	0	28350	26980	178415	27559	1051608	45010	110530	0	0	7904	697310	0	0
2024-07-23 07:24:47			0	34332	0	0	0	28363	26980	178454	27809	1051635	45010	110535	0	0	7902	698182	0	0
2024-07-23 07:25:47			0	34315	0	0	0	28348	26970	178542	28100	1051591	45021	110529	0	0	7901	699003	0	0
2024-07-23 07:26:47			0	34338	0	0	0	28353	26980	178506	28150	1051617	45011	110531	0	0	7903	697906	0	0
2024-07-23 07:27:47			0	34333	0	0	0	28350	26980	178454	27951	1051635	45022	110530	0	0	7902	698136	0	0
2024-07-23 07:28:47			0	34350	0	0	0	28353	26980	178499	27443	1051590	45000	110531	0	0	7903	697356	0	0
2024-07-23 07:29:47			0	34349	0	0	0	28358	26970	178311	28341	1051573	45010	110533	0	0	7903	697442	0	0
2024-07-23 07:30:47			0	34373	0	0	0	28358	26980	178127	27961	1051582	45022	110533	0	0	7905	696301	0	0
2024-07-23 07:31:47			0	34403	0	0	0	28350	26970	178023	28032	1051626	45022	110530	0	0	7907	694968	0	0
2024-07-23 07:32:47			0	34428	0	0	0	28358	26980	177819	27554	1051608	45010	110533	0	0	7908	693785	0	0
2024-07-23 07:33:47			0	34470	0	0	0	28363	26980	177671	28169	1051617	45011	110535	0	0	7911	691869	0	0
2024-07-23 07:34:47			0	34488	0	0	0	28363	26980	177603	27755	1051662	45010	110535	0	0	7912	691048	0	0
2024-07-23 07:35:47			0	34539	0	0	0	28368	26980	177339	27647	1051590	45034	110537	0	0	7915	688728	0	0
2024-07-23 07:36:47			0	34557	0	0	0	28366	26980	177259	27944	1051608	45022	110536	0	0	7917	687911	0	0
2024-07-23 07:37:47			0	34545	0	0	0	28358	26980	177303	28669	1051617	45011	110533	0	0	7916	688456	0	0
2024-07-23 07:38:47			0	34547	0	0	0	28366	26990	177263	28117	1051662	45012	110536	0	0	7916	688326	0	0
2024-07-23 07:39:47			0	34568	0	0	0	28368	26980	177271	27393	1051644	45023	110537	0	0	7917	687412	0	0
2024-07-23 07:40:47			0	34556	0	0	0	28366	26980	177367	27777	1051590	45023	110536	0	0	7917	687957	0	0
2024-07-23 07:41:47			0	34541	0	0	0	28361	26980	177371	28563	1051671	45011	110534	0	0	7916	688638	0	0
2024-07-23 07:42:47			0	34521	0	0	0	28376	26980	177403	27824	1051644	45023	110540	0	0	7914	689547	0	0
2024-07-23 07:43:47			0	34502	0	0	0	28371	26980	177439	28265	1051635	45010	110538	0	0	7913	690411	0	0
2024-07-23 07:44:47			0	34482	0	0	0	28363	26980	177483	27890	1051671	45023	110535	0	0	7912	691322	0	0
2024-07-23 07:45:47			0	34485	0	0	0	28379	26990	177623	27552	1051689	45024	110541	0	0	7912	691145	0	0
2024-07-23 07:46:47			0	34485	0	0	0	28381	26980	177759	28357	1051725	45034	110542	0	0	7912	691185	0	0
2024-07-23 07:47:47			0	34461	0	0	0	28379	27000	177747	28143	1051760	45013	110541	0	0	7910	692200	0	0
2024-07-23 07:48:47			0	34472	0	0	0	28376	27000	177731	28249	1051751	45024	110540	0	0	7911	691698	0	0
2024-07-23 07:49:47			0	34494	0	0	0	28376	27000	177611	27374	1051733	45013	110540	0	0	7913	690696	0	0
2024-07-23 07:50:47			0	34506	0	0	0	28379	26990	177419	27824	1051716	45012	110541	0	0	7913	690189	0	0
2024-07-23 07:51:47			0	34546	0	0	0	28363	27000	177415	27892	1051725	45035	110535	0	0	7916	688332	0	0
2024-07-23 07:52:47			0	34539	0	0	0	28368	27000	177295	28733	1051725	45012	110537	0	0	7916	688649	0	0
2024-07-23 07:53:47			0	34560	0	0	0	28366	27000	177299	27706	1051671	45012	110536	0	0	7917	687696	0	0
2024-07-23 07:54:47			0	34537	0	0	0	28368	27000	177315	28282	1051698	45024	110537	0	0	7915	688740	0	0
2024-07-23 07:55:47			0	34495	0	0	0	28386	26990	177479	28299	1051662	45012	110544	0	0	7912	690690	0	0
2024-07-23 07:56:47			0	34452	0	0	0	28381	27000	177815	27485	1051725	45024	110542	0	0	7910	692610	0	0
2024-07-23 07:57:47			0	34381	0	0	0	28381	27000	178163	27750	1051671	45024	110542	0	0	7905	695855	0	0
2024-07-23 07:58:47			0	34351	0	0	0	28381	27000	178155	27861	1051778	45024	110542	0	0	7903	697230	0	0
2024-07-23 07:59:47			0	34323	0	0	0	28376	27000	178282	28022	1051760	45025	110540	0	0	7901	698515	0	0
2024-07-23 08:00:47			0	34345	0	0	0	28392	27010	178374	28133	1051823	45025	110546	0	0	7903	697465	0	0
2024-07-23 08:01:47			0	34344	0	0	0	28376	27010	178235	28116	1051823	45013	110540	0	0	7903	697511	0	0
2024-07-23 08:02:47			0	34346	0	0	0	28381	27010	178195	28383	1051715	45025	110542	0	0	7903	697419	0	0
2024-07-23 08:03:47			0	34365	0	0	0	28374	27000	178231	27828	1051760	45013	110539	0	0	7904	696588	0	0
2024-07-23 08:04:47			0	34389	0	0	0	28374	27000	178139	27635	1051733	45025	110539	0	0	7906	695489	0	0
2024-07-23 08:05:47			0	34386	0	0	0	28379	26990	178019	28759	1051743	45012	110541	0	0	7905	695666	0	0
2024-07-23 08:06:47			0	34424	0	0	0	28371	27000	177783	27928	1051760	45013	110538	0	0	7908	693888	0	0
2024-07-23 08:07:47			0	34456	0	0	0	28381	27000	177783	27861	1051725	45012	110542	0	0	7910	692427	0	0
2024-07-23 08:08:47			0	34472	0	0	0	28376	27010	177571	27703	1051698	45026	110540	0	0	7911	691658	0	0
2024-07-23 08:09:47			0	34501	0	0	0	28392	27000	177427	28046	1051760	45036	110546	0	0	7913	690377	0	0
2024-07-23 08:10:47			0	34517	0	0	0	28389	27000	177387	27928	1051787	45025	110545	0	0	7914	689649	0	0
2024-07-23 08:11:47			0	34524	0	0	0	28397	27020	177371	27868	1051814	45015	110548	0	0	7914	689252	0	0
2024-07-23 08:12:47			0	34519	0	0	0	28389	27010	177195	28729	1051796	45013	110545	0	0	7914	689519	0	0
2024-07-23 08:13:47			0	34540	0	0	0	28361	27010	177203	27550	1051769	45025	110534	0	0	7916	688565	0	0
2024-07-23 08:14:47			0	34509	0	0	0	28322	27010	177355	27384	1051742	45025	110519	0	0	7914	689974	0	0
2024-07-23 08:15:47			0	34467	0	0	0	28285	27000	177519	27737	1051599	45025	110505	0	0	7912	691926	0	0
2024-07-23 08:16:47			0	34413	0	0	0	28244	27000	177899	27644	1051626	45002	110489	0	0	7910	694391	0	0
2024-07-23 08:17:47			0	34363	0	0	0	28207	27000	178067	27821	1051563	44991	110475	0	0	7907	696680	0	0
2024-07-23 08:18:47			0	34314	0	0	0	28228	26980	178350	28008	1051393	45010	110483	0	0	7903	699009	0	0
2024-07-23 08:19:47			0	34291	0	0	0	28197	26960	178362	28346	1051421	44988	110471	0	0	7902	700146	0	0
2024-07-23 08:20:47			0	34260	0	0	0	28207	26950	178590	27639	1051349	44987	110475	0	0	7900	701614	0	0
2024-07-23 08:21:47			0	34242	0	0	0	28262	26950	178650	28670	1051340	45008	110496	0	0	7898	702444	0	0
2024-07-23 08:22:47			0	34241	0	0	0	28296	26950	178790	27982	1051421	45008	110509	0	0	7897	702490	0	0
2024-07-23 08:23:47			0	34241	0	0	0	28244	26940	178766	27711	1051385	44997	110489	0	0	7898	702530	0	0
2024-07-23 08:24:47			0	34256	0	0	0	28298	26940	178590	27748	1051412	44986	110510	0	0	7898	701839	0	0
2024-07-23 08:25:47			0	34279	0	0	0	28303	26950	178550	27455	1051421	45008	110512	0	0	7899	700739	0	0
2024-07-23 08:26:47			0	34304	0	0	0	28332	26950	178374	27659	1051537	45020	110523	0	0	7901	699588	0	0
2024-07-23 08:27:47			0	34367	0	0	0	28306	26960	178163	27111	1051546	45020	110513	0	0	7905	696656	0	0
2024-07-23 08:28:47			0	34444	0	0	0	28298	26960	177611	27310	1051546	45009	110510	0	0	7910	693134	0	0
2024-07-23 08:29:47			0	34560	0	0	0	28290	26960	177239	27428	1051501	44999	110507	0	0	7918	687854	0	0
2024-07-23 08:30:47			0	34604	0	0	0	28270	26960	176851	27216	1051492	45009	110499	0	0	7921	685859	0	0
2024-07-23 08:31:47			0	34640	0	0	0	28270	26950	176679	27242	1051430	45009	110499	0	0	7923	684270	0	0
2024-07-23 08:32:47			0	34674	0	0	0	28280	26950	176643	26994	1051510	45009	110503	0	0	7925	682734	0	0
2024-07-23 08:33:47			0	34678	0	0	0	28290	26950	176683	27024	1051510	44998	110507	0	0	7926	682553	0	0
2024-07-23 08:34:47			0	34675	0	0	0	28254	26950	176599	27033	1051484	44998	110493	0	0	7926	682689	0	0
2024-07-23 08:35:47			0	34659	0	0	0	28264	26950	176635	26998	1051448	44997	110497	0	0	7925	683411	0	0
2024-07-23 08:36:47			0	34632	0	0	0	28314	26930	176687	26928	1051430	44985	110516	0	0	7922	684710	0	0
2024-07-23 08:37:47			0	34644	0	0	0	28340	26940	176679	27372	1051493	45008	110526	0	0	7922	684128	0	0
2024-07-23 08:38:47			0	34631	0	0	0	28340	26940	176671	27287	1051520	45008	110526	0	0	7922	684716	0	0
2024-07-23 08:39:47			0	34622	0	0	0	28332	26940	176843	27308	1051493	45008	110523	0	0	7921	685123	0	0
2024-07-23 08:40:47			0	34666	0	0	0	28301	26950	176655	26930	1051555	45019	110511	0	0	7925	683095	0	0
2024-07-23 08:41:47			0	34708	0	0	0	28309	26960	176307	26961	1051573	45020	110514	0	0	7927	681162	0	0
2024-07-23 08:42:47			0	34725	0	0	0	28285	26950	176331	26930	1051537	45009	110505	0	0	7929	680435	0	0
2024-07-23 08:43:47			0	34707	0	0	0	28264	26950	176331	26974	1051528	44997	110497	0	0	7928	681246	0	0
2024-07-23 08:44:47			0	34668	0	0	0	28212	26950	176467	26901	1051403	45020	110477	0	0	7926	683005	0	0
2024-07-23 08:45:47			0	34651	0	0	0	28212	26950	176627	26741	1051367	44986	110477	0	0	7925	683772	0	0
2024-07-23 08:46:47			0	34612	0	0	0	28158	26940	176883	27064	1051358	44986	110456	0	0	7924	685576	0	0
2024-07-23 08:47:47			0	34595	0	0	0	28114	26930	176919	27137	1051242	44962	110439	0	0	7923	686385	0	0
2024-07-23 08:48:47			0	34577	0	0	0	28127	26910	176915	27192	1051144	44993	110444	0	0	7922	687280	0	0
2024-07-23 08:49:47			0	34567	0	0	0	28150	26900	176983	27268	1051099	44970	110453	0	0	7921	687773	0	0
2024-07-23 08:50:47			0	34571	0	0	0	28142	26880	176983	27235	1051046	44968	110450	0	0	7921	687670	0	0
2024-07-23 08:51:47			0	34570	0	0	0	28137	26880	177063	26998	1051046	44979	110448	0	0	7921	687715	0	0
2024-07-23 08:52:47			0	34566	0	0	0	28103	26860	177131	27170	1050957	44977	110435	0	0	7921	687976	0	0
2024-07-23 08:53:47			0	34564	0	0	0	28059	26840	177059	27223	1050841	44964	110418	0	0	7922	688146	0	0
2024-07-23 08:54:47			0	34578	0	0	0	28145	26840	177103	27244	1050948	44987	110451	0	0	7921	687510	0	0
2024-07-23 08:55:47			0	34581	0	0	0	28023	26830	176971	27062	1050823	44974	110404	0	0	7923	687413	0	0
2024-07-23 08:56:47			0	34597	0	0	0	27986	26820	176951	26946	1050671	44962	110390	0	0	7925	686727	0	0
2024-07-23 08:57:47			0	34608	0	0	0	28106	26820	176871	27079	1050662	44972	110436	0	0	7923	686228	0	0
2024-07-23 08:58:47			0	34631	0	0	0	27963	26810	176791	27045	1050564	44972	110381	0	0	7927	685226	0	0
2024-07-23 08:59:47			0	34639	0	0	0	27935	26790	176607	27144	1050474	44959	110370	0	0	7928	684943	0	0
2024-07-23 09:00:47			0	34683	0	0	0	28028	26770	176463	27072	1050394	44947	110406	0	0	7929	683032	0	0
2024-07-23 09:01:47			0	34707	0	0	0	28168	26770	176567	26892	1050582	44991	110460	0	0	7928	681949	0	0
2024-07-23 09:02:47			0	34693	0	0	0	28283	26780	176627	27235	1050761	45014	110504	0	0	7926	682542	0	0
2024-07-23 09:03:47			0	34813	0	0	0	28025	26790	176083	27164	1050779	45003	110405	0	0	7938	677104	0	0
2024-07-23 09:04:47			0	34808	0	0	0	27976	26790	175963	27317	1050662	44982	110386	0	0	7938	677328	0	0
2024-07-23 09:05:47			0	34798	0	0	0	28028	26790	175975	27064	1050609	44970	110406	0	0	7937	677777	0	0
2024-07-23 09:06:47			0	34791	0	0	0	28041	26780	176063	27104	1050653	44969	110411	0	0	7936	678130	0	0
2024-07-23 09:07:47			0	34783	0	0	0	28176	26780	176107	27204	1050707	44981	110463	0	0	7933	678489	0	0
2024-07-23 09:08:47			0	34800	0	0	0	28161	26780	176051	26974	1050761	44981	110457	0	0	7935	677726	0	0
2024-07-23 09:09:47			0	34829	0	0	0	28163	26790	176067	27310	1050806	45003	110458	0	0	7936	676387	0	0
2024-07-23 09:10:47			0	34878	0	0	0	28161	26800	175827	27123	1050868	44970	110457	0	0	7940	674155	0	0
2024-07-23 09:11:47			0	34918	0	0	0	28171	26810	175503	27163	1050913	44995	110461	0	0	7942	672329	0	0
2024-07-23 09:12:47			0	34951	0	0	0	28166	26810	175327	27173	1050814	44972	110459	0	0	7944	670858	0	0
2024-07-23 09:13:47			0	34988	0	0	0	28168	26800	175231	27284	1050788	44970	110460	0	0	7947	669250	0	0
2024-07-23 09:14:47			0	35008	0	0	0	28168	26800	175059	27313	1050743	44994	110460	0	0	7948	668362	0	0
2024-07-23 09:15:47			0	35028	0	0	0	28173	26800	175039	27296	1050797	44971	110462	0	0	7949	667474	0	0
2024-07-23 09:16:47			0	35010	0	0	0	28181	26800	174995	27078	1050824	44994	110465	0	0	7948	668273	0	0
2024-07-23 09:17:47			0	34993	0	0	0	28168	26800	175147	27159	1050788	44982	110460	0	0	7947	669028	0	0
2024-07-23 09:18:47			0	35004	0	0	0	28184	26800	175111	27074	1050788	44970	110466	0	0	7947	668539	0	0
2024-07-23 09:19:47			0	34979	0	0	0	28163	26800	175207	27244	1050824	44983	110458	0	0	7946	669651	0	0
2024-07-23 09:20:47			0	34966	0	0	0	28199	26800	175287	27301	1050904	44994	110472	0	0	7945	670229	0	0
2024-07-23 09:21:47			0	34984	0	0	0	28270	26810	175407	26934	1050976	45017	110499	0	0	7945	669390	0	0
2024-07-23 09:22:47			0	35049	0	0	0	28402	26830	174919	27105	1051190	45030	110550	0	0	7947	666428	0	0
2024-07-23 09:23:47			0	35017	0	0	0	28298	26860	175083	27026	1051378	45043	110510	0	0	7946	667732	0	0
2024-07-23 09:24:47			0	34924	0	0	0	28267	26870	175411	27249	1051350	45024	110498	0	0	7941	671831	0	0
2024-07-23 09:25:47			0	34893	0	0	0	28342	26880	175511	27300	1051422	45012	110527	0	0	7938	673175	0	0
2024-07-23 09:26:47			0	34867	0	0	0	28348	26900	175807	26896	1051484	45015	110529	0	0	7936	674260	0	0
2024-07-23 09:27:47			0	34819	0	0	0	28423	26920	175963	27313	1051619	45027	110558	0	0	7932	676331	0	0
2024-07-23 09:28:47			0	34824	0	0	0	28394	26940	176031	27242	1051708	45041	110547	0	0	7933	676029	0	0
2024-07-23 09:29:47			0	34866	0	0	0	28327	26950	175683	27390	1051663	45030	110521	0	0	7937	674111	0	0
2024-07-23 09:30:47			0	34879	0	0	0	28327	26960	175567	27365	1051636	45021	110521	0	0	7938	673492	0	0
2024-07-23 09:31:47			0	34887	0	0	0	28337	26960	175527	27114	1051555	44988	110525	0	0	7938	673135	0	0
2024-07-23 09:32:47			0	34859	0	0	0	28337	26960	175739	27632	1051573	44998	110525	0	0	7936	674385	0	0
2024-07-23 09:33:47			0	34833	0	0	0	28407	26960	175715	27576	1051573	45009	110552	0	0	7934	675549	0	0
2024-07-23 09:34:47			0	34832	0	0	0	28436	26960	175755	27313	1051663	45010	110563	0	0	7933	675593	0	0
2024-07-23 09:35:47			0	34829	0	0	0	28420	26970	175743	27379	1051779	45010	110557	0	0	7933	675689	0	0
2024-07-23 09:36:47			0	34866	0	0	0	28350	26980	175647	27428	1051770	45022	110530	0	0	7937	673995	0	0
2024-07-23 09:37:47			0	34866	0	0	0	28358	26990	175651	27320	1051796	45012	110533	0	0	7937	673957	0	0
2024-07-23 09:38:47			0	34854	0	0	0	28389	27000	175639	27166	1051940	45024	110545	0	0	7935	674454	0	0
2024-07-23 09:39:47			0	34835	0	0	0	28420	27010	175663	27079	1051966	45014	110557	0	0	7934	675266	0	0
2024-07-23 09:40:47			0	34836	0	0	0	28394	27030	175655	27367	1051939	45004	110547	0	0	7934	675143	0	0
2024-07-23 09:41:47			0	34819	0	0	0	28412	27020	175771	27190	1051948	45027	110554	0	0	7933	675943	0	0
2024-07-23 09:42:47			0	34779	0	0	0	28438	27030	175831	27130	1051966	45015	110564	0	0	7930	677697	0	0
2024-07-23 09:43:47			0	34794	0	0	0	28394	27030	175867	27272	1052002	45005	110547	0	0	7932	677024	0	0
2024-07-23 09:44:47			0	34787	0	0	0	28348	27030	175799	27173	1051885	44994	110529	0	0	7932	677338	0	0
2024-07-23 09:45:47			0	34805	0	0	0	28296	27030	175759	27196	1051832	45004	110509	0	0	7934	676531	0	0
2024-07-23 09:46:47			0	34817	0	0	0	28311	27010	175563	27079	1051751	45003	110515	0	0	7934	676071	0	0
2024-07-23 09:47:47			0	34844	0	0	0	28335	27020	175547	26925	1051715	44982	110524	0	0	7936	674824	0	0
2024-07-23 09:48:47			0	34857	0	0	0	28293	27000	175447	27232	1051733	44992	110508	0	0	7937	674320	0	0
2024-07-23 09:49:47			0	34888	0	0	0	28249	27000	175403	27005	1051653	44992	110491	0	0	7940	672936	0	0
2024-07-23 09:50:47			0	34921	0	0	0	28171	26990	175103	26989	1051608	44979	110461	0	0	7943	671502	0	0
2024-07-23 09:51:47			0	34939	0	0	0	28101	26980	175107	27202	1051429	44967	110434	0	0	7946	670739	0	0
2024-07-23 09:52:47			0	34949	0	0	0	28135	26950	175087	27104	1051269	44954	110447	0	0	7945	670409	0	0
2024-07-23 09:53:47			0	34944	0	0	0	28262	26940	175087	26765	1051305	44974	110496	0	0	7943	670670	0	0
2024-07-23 09:54:47			0	34929	0	0	0	28236	26930	175067	26913	1051341	44984	110486	0	0	7942	671377	0	0
2024-07-23 09:55:47			0	34932	0	0	0	28246	26920	175259	26738	1051269	44983	110490	0	0	7942	671282	0	0
2024-07-23 09:56:47			0	34920	0	0	0	28140	26920	175255	26948	1051215	44950	110449	0	0	7943	671817	0	0
2024-07-23 09:57:47			0	34947	0	0	0	28129	26900	175191	27270	1051135	44959	110445	0	0	7945	670691	0	0
2024-07-23 09:58:47			0	34948	0	0	0	28140	26890	175119	27072	1051108	44969	110449	0	0	7945	670684	0	0
2024-07-23 09:59:47			0	34945	0	0	0	28189	26880	175175	27027	1051126	44990	110468	0	0	7944	670857	0	0
2024-07-23 10:00:47			0	34940	0	0	0	28231	26870	175163	26974	1051216	44990	110484	0	0	7943	671118	0	0
2024-07-23 10:01:47			0	34937	0	0	0	28249	26880	175183	27282	1051234	45001	110491	0	0	7942	671213	0	0
2024-07-23 10:02:47			0	34934	0	0	0	28303	26880	175183	26902	1051261	45001	110512	0	0	7941	671347	0	0
2024-07-23 10:03:47			0	34942	0	0	0	28158	26890	175215	26982	1051278	45003	110456	0	0	7944	670952	0	0
2024-07-23 10:04:47			0	34958	0	0	0	28301	26900	175063	27320	1051287	45003	110511	0	0	7943	670201	0	0
2024-07-23 10:05:47			0	34995	0	0	0	28311	26900	175015	27145	1051377	45004	110515	0	0	7945	668556	0	0
2024-07-23 10:06:47			0	35032	0	0	0	28267	26910	174775	27038	1051386	45015	110498	0	0	7948	666876	0	0
2024-07-23 10:07:47			0	35061	0	0	0	28267	26910	174763	27187	1051368	45016	110498	0	0	7950	665591	0	0
2024-07-23 10:08:47			0	35055	0	0	0	28283	26910	174679	27287	1051395	44994	110504	0	0	7949	665857	0	0
2024-07-23 10:09:47			0	35080	0	0	0	28184	26930	174579	27012	1051368	45017	110466	0	0	7953	664674	0	0
2024-07-23 10:10:47			0	35069	0	0	0	28283	26920	174451	27124	1051404	45005	110504	0	0	7950	665199	0	0
2024-07-23 10:11:47			0	35080	0	0	0	28197	26930	174539	27033	1051448	45017	110471	0	0	7953	664674	0	0
2024-07-23 10:12:47			0	35054	0	0	0	28296	26940	174559	26840	1051520	45008	110509	0	0	7949	665786	0	0
2024-07-23 10:13:47			0	35074	0	0	0	28322	26940	174431	27007	1051600	45019	110519	0	0	7950	664901	0	0
2024-07-23 10:14:47			0	35114	0	0	0	28306	26960	174352	27144	1051707	45031	110513	0	0	7953	663058	0	0
2024-07-23 10:15:47			0	35135	0	0	0	28371	26960	174184	26974	1051743	45021	110538	0	0	7953	662131	0	0
2024-07-23 10:16:47			0	35144	0	0	0	28428	26980	174128	27012	1051940	45034	110560	0	0	7953	661658	0	0
2024-07-23 10:17:47			0	35121	0	0	0	28550	27000	174180	27154	1052029	45036	110607	0	0	7949	662597	0	0
2024-07-23 10:18:47			0	35047	0	0	0	28589	27030	174607	27154	1052324	45049	110622	0	0	7944	665753	0	0
2024-07-23 10:19:47			0	35005	0	0	0	28654	27050	174847	27159	1052414	45074	110647	0	0	7941	667537	0	0
2024-07-23 10:20:47			0	34976	0	0	0	28633	27090	174899	26975	1052691	45067	110639	0	0	7939	668671	0	0
2024-07-23 10:21:47			0	35038	0	0	0	28690	27120	174743	26913	1052744	45081	110661	0	0	7943	665808	0	0
2024-07-23 10:22:47			0	35022	0	0	0	28698	27140	174583	27275	1052914	45083	110664	0	0	7941	666440	0	0
2024-07-23 10:23:47			0	35025	0	0	0	28685	27150	174547	26920	1052941	45062	110659	0	0	7942	666268	0	0
2024-07-23 10:24:47			0	35045	0	0	0	28763	27180	174543	27029	1053039	45075	110689	0	0	7942	665268	0	0
2024-07-23 10:25:47			0	35040	0	0	0	28740	27200	174515	27150	1053236	45088	110680	0	0	7942	665413	0	0
2024-07-23 10:26:47			0	35059	0	0	0	28716	27210	174379	26965	1053262	45057	110671	0	0	7944	664535	0	0
2024-07-23 10:27:47			0	35052	0	0	0	28568	27230	174355	27088	1053173	45046	110614	0	0	7946	664768	0	0
2024-07-23 10:28:47			0	35020	0	0	0	28566	27250	174383	27150	1053047	45048	110613	0	0	7944	666107	0	0
2024-07-23 10:29:47			0	35013	0	0	0	28524	27240	174435	27145	1053011	45026	110597	0	0	7944	666455	0	0
2024-07-23 10:30:47			0	34977	0	0	0	28361	27230	174519	26922	1052939	45014	110534	0	0	7945	668090	0	0
2024-07-23 10:31:47			0	34948	0	0	0	28332	27210	174607	27135	1052698	44991	110523	0	0	7943	669454	0	0
2024-07-23 10:32:47			0	34962	0	0	0	28270	27200	174475	27093	1052599	44989	110499	0	0	7945	668871	0	0
2024-07-23 10:33:47			0	34976	0	0	0	28114	27190	174367	27246	1052277	44977	110439	0	0	7949	668288	0	0
2024-07-23 10:34:47			0	34993	0	0	0	28103	27150	174295	26871	1052018	44940	110435	0	0	7950	667687	0	0
2024-07-23 10:35:47			0	35006	0	0	0	28186	27110	174259	27039	1051786	44913	110467	0	0	7949	667263	0	0
2024-07-23 10:36:47			0	35012	0	0	0	28096	27080	174367	26946	1051732	44955	110432	0	0	7951	667112	0	0
2024-07-23 10:37:47			0	35035	0	0	0	28124	27060	174223	27331	1051724	44963	110443	0	0	7952	666170	0	0
2024-07-23 10:38:47			0	35050	0	0	0	28140	27040	174131	27223	1051661	44961	110449	0	0	7952	665582	0	0
2024-07-23 10:39:47			0	35061	0	0	0	28202	27030	174231	27050	1051626	44950	110473	0	0	7952	665133	0	0
2024-07-23 10:40:47			0	35089	0	0	0	28114	27020	174195	27010	1051599	44949	110439	0	0	7955	663933	0	0
2024-07-23 10:41:47			0	35110	0	0	0	28254	26980	174031	27144	1051420	44933	110493	0	0	7954	663158	0	0
2024-07-23 10:42:47			0	35119	0	0	0	28238	26980	174136	27124	1051528	45000	110487	0	0	7955	662761	0	0
2024-07-23 10:43:47			0	35149	0	0	0	28189	26980	173912	27294	1051564	44978	110468	0	0	7957	661438	0	0
2024-07-23 10:44:47			0	35184	0	0	0	28148	26980	173808	26922	1051501	44977	110452	0	0	7960	659898	0	0
2024-07-23 10:45:47			0	35172	0	0	0	28205	26960	173828	26965	1051466	44975	110474	0	0	7958	660501	0	0
2024-07-23 10:46:47			0	35189	0	0	0	28212	26960	173808	27022	1051412	44975	110477	0	0	7959	659753	0	0
2024-07-23 10:47:47			0	35200	0	0	0	28119	26950	173724	27235	1051430	44964	110441	0	0	7962	659307	0	0
2024-07-23 10:48:47			0	35203	0	0	0	27994	26930	173612	27095	1051269	44952	110393	0	0	7964	659251	0	0
2024-07-23 10:49:47			0	35227	0	0	0	27950	26910	173648	27182	1050956	44926	110376	0	0	7966	658272	0	0
2024-07-23 10:50:47			0	35218	0	0	0	28023	26870	173708	27043	1050813	44913	110404	0	0	7964	658819	0	0
2024-07-23 10:51:47			0	35235	0	0	0	28033	26850	173732	27211	1050742	44920	110408	0	0	7965	658147	0	0
2024-07-23 10:52:47			0	35227	0	0	0	28005	26830	173720	27142	1050733	44941	110397	0	0	7965	658574	0	0
2024-07-23 10:53:47			0	35215	0	0	0	28002	26820	173832	27031	1050725	44952	110396	0	0	7964	659139	0	0
2024-07-23 10:54:47			0	35194	0	0	0	28083	26820	173864	26923	1050743	44972	110427	0	0	7961	660063	0	0
2024-07-23 10:55:47			0	35194	0	0	0	28083	26810	173900	27085	1050761	44951	110427	0	0	7961	660101	0	0
2024-07-23 10:56:47			0	35185	0	0	0	28054	26810	174160	27079	1050671	44961	110416	0	0	7961	660497	0	0
2024-07-23 10:57:47			0	35184	0	0	0	27968	26790	173924	27279	1050555	44937	110383	0	0	7962	660616	0	0
2024-07-23 10:58:47			0	35179	0	0	0	27828	26780	173924	27235	1050376	44935	110329	0	0	7964	660874	0	0
2024-07-23 10:59:47			0	35251	0	0	0	27805	26750	173692	27102	1050197	44911	110320	0	0	7969	657822	0	0
2024-07-23 11:00:47			0	35278	0	0	0	27976	26740	173612	26805	1050117	44943	110386	0	0	7968	656675	0	0
2024-07-23 11:01:47			0	35289	0	0	0	28142	26730	173412	27050	1050323	44964	110450	0	0	7966	656230	0	0
2024-07-23 11:02:47			0	35351	0	0	0	28210	26730	173392	26854	1050583	44998	110476	0	0	7968	653518	0	0
2024-07-23 11:03:47			0	35461	0	0	0	28153	26750	172796	26967	1050708	44988	110454	0	0	7976	648651	0	0
2024-07-23 11:04:47			0	35492	0	0	0	28137	26760	172628	26989	1050699	45001	110448	0	0	7978	647268	0	0
2024-07-23 11:05:47			0	35504	0	0	0	28194	26770	172440	26814	1050842	44968	110470	0	0	7978	646711	0	0
2024-07-23 11:06:47			0	35519	0	0	0	28189	26790	172512	26993	1050940	44993	110468	0	0	7979	645987	0	0
2024-07-23 11:07:47			0	35509	0	0	0	28220	26810	172548	27156	1051020	44984	110480	0	0	7978	646346	0	0
2024-07-23 11:08:47			0	35505	0	0	0	28586	26810	172652	26883	1051271	45028	110621	0	0	7972	646519	0	0
2024-07-23 11:09:47			0	35500	0	0	0	28714	26870	172796	26932	1051834	45101	110670	0	0	7970	646514	0	0
2024-07-23 11:10:47			0	35475	0	0	0	28797	26920	172960	27152	1052219	45117	110702	0	0	7967	647412	0	0
2024-07-23 11:11:47			0	35433	0	0	0	28859	27000	173144	26875	1052593	45136	110726	0	0	7964	648938	0	0
2024-07-23 11:12:47			0	35405	0	0	0	28890	27060	173104	26899	1052942	45141	110738	0	0	7962	649932	0	0
2024-07-23 11:13:47			0	35390	0	0	0	28823	27100	173116	26939	1053112	45124	110712	0	0	7962	650435	0	0
2024-07-23 11:14:47			0	35396	0	0	0	28771	27150	172964	27013	1053066	45095	110692	0	0	7964	649987	0	0
2024-07-23 11:15:47			0	35385	0	0	0	28776	27170	172848	27052	1053183	45086	110694	0	0	7963	650391	0	0
2024-07-23 11:16:47			0	35391	0	0	0	28771	27190	172916	27081	1053254	45066	110692	0	0	7964	650056	0	0
2024-07-23 11:17:47			0	35376	0	0	0	28836	27230	172832	27282	1053361	45091	110717	0	0	7962	650559	0	0
2024-07-23 11:18:47			0	35378	0	0	0	28823	27240	172824	27098	1053468	45071	110712	0	0	7962	650434	0	0
2024-07-23 11:19:47			0	35384	0	0	0	28768	27260	172824	27414	1053495	45073	110691	0	0	7964	650099	0	0
2024-07-23 11:20:47			0	35393	0	0	0	28737	27280	172696	27048	1053557	45063	110679	0	0	7965	649633	0	0
2024-07-23 11:21:47			0	35387	0	0	0	28701	27280	172692	27046	1053458	45041	110665	0	0	7965	649893	0	0
2024-07-23 11:22:47			0	35379	0	0	0	28625	27290	172640	26845	1053342	45031	110636	0	0	7966	650204	0	0
2024-07-23 11:23:47			0	35353	0	0	0	28677	27280	172788	26831	1053234	45007	110656	0	0	7963	651373	0	0
2024-07-23 11:24:47			0	35337	0	0	0	28664	27270	172808	26791	1053225	45018	110651	0	0	7962	652107	0	0
2024-07-23 11:25:47			0	35314	0	0	0	28571	27260	172900	27111	1053181	45017	110615	0	0	7963	653148	0	0
2024-07-23 11:26:47			0	35319	0	0	0	28522	27250	172976	27216	1053002	45004	110596	0	0	7964	652967	0	0
2024-07-23 11:27:47			0	35320	0	0	0	28514	27240	172864	27180	1052868	44993	110593	0	0	7964	652961	0	0
2024-07-23 11:28:47			0	35306	0	0	0	28467	27230	172956	27118	1052796	45002	110575	0	0	7964	653609	0	0
2024-07-23 11:29:47			0	35316	0	0	0	28399	27210	172956	26930	1052689	44979	110549	0	0	7965	653248	0	0
2024-07-23 11:30:47			0	35300	0	0	0	28329	27190	172928	27203	1052465	44988	110522	0	0	7965	654021	0	0
2024-07-23 11:31:47			0	35309	0	0	0	28275	27170	172828	27377	1052188	44964	110501	0	0	7967	653704	0	0
2024-07-23 11:32:47			0	35299	0	0	0	28376	27140	172904	27024	1052215	44982	110540	0	0	7964	654253	0	0
2024-07-23 11:33:47			0	35306	0	0	0	28324	27120	172976	27121	1052180	44981	110520	0	0	7966	654022	0	0
2024-07-23 11:34:47			0	35305	0	0	0	28244	27110	173080	27289	1052028	44980	110489	0	0	7967	654103	0	0
2024-07-23 11:35:47			0	35291	0	0	0	28231	27080	173020	27270	1051849	44966	110484	0	0	7966	654828	0	0
2024-07-23 11:36:47			0	35305	0	0	0	28301	27050	173076	27085	1051796	44962	110511	0	0	7966	654329	0	0
2024-07-23 11:37:47			0	35300	0	0	0	28348	27060	173104	26694	1051831	44963	110529	0	0	7964	654510	0	0
2024-07-23 11:38:47			0	35328	0	0	0	28316	27040	173068	27069	1051796	44984	110517	0	0	7967	653361	0	0
2024-07-23 11:39:47			0	35334	0	0	0	28212	27040	172980	27079	1051688	44973	110477	0	0	7969	653100	0	0
2024-07-23 11:40:47			0	35362	0	0	0	28296	27010	172792	26844	1051635	44980	110509	0	0	7969	651991	0	0
2024-07-23 11:41:47			0	35384	0	0	0	28353	27000	172728	27189	1051626	45002	110531	0	0	7969	651069	0	0
2024-07-23 11:42:47			0	35402	0	0	0	28306	27000	172756	27019	1051698	44991	110513	0	0	7971	650286	0	0
2024-07-23 11:43:47			0	35435	0	0	0	28267	27010	172548	27282	1051698	45003	110498	0	0	7974	648814	0	0
2024-07-23 11:44:47			0	35441	0	0	0	28277	26980	172588	27088	1051582	44989	110502	0	0	7974	648665	0	0
2024-07-23 11:45:47			0	35447	0	0	0	28329	26970	172436	27189	1051680	44989	110522	0	0	7973	648442	0	0
2024-07-23 11:46:47			0	35417	0	0	0	28423	26990	172696	27255	1051761	45000	110558	0	0	7970	649671	0	0
2024-07-23 11:47:47			0	35461	0	0	0	28451	27000	172620	27135	1051886	45024	110569	0	0	7972	647723	0	0
2024-07-23 11:48:47			0	35534	0	0	0	28488	27000	172120	26911	1051966	45035	110583	0	0	7976	644561	0	0
2024-07-23 11:49:47			0	35560	0	0	0	28498	27020	172040	27137	1052110	45027	110587	0	0	7978	643364	0	0
2024-07-23 11:50:47			0	35495	0	0	0	28537	27040	172344	27235	1052253	45040	110602	0	0	7973	646101	0	0
2024-07-23 11:51:47			0	35458	0	0	0	28540	27050	172560	26927	1052324	45063	110603	0	0	7971	647667	0	0
2024-07-23 11:52:47			0	35444	0	0	0	28467	27070	172544	27235	1052315	45032	110575	0	0	7971	648200	0	0
2024-07-23 11:53:47			0	35440	0	0	0	28506	27080	172588	27332	1052333	45034	110590	0	0	7971	648337	0	0
2024-07-23 11:54:47			0	35437	0	0	0	28537	27080	172456	27274	1052404	45033	110602	0	0	7970	648467	0	0
2024-07-23 11:55:47			0	35457	0	0	0	28519	27090	172480	27097	1052485	45044	110595	0	0	7971	647562	0	0
2024-07-23 11:56:47			0	35478	0	0	0	28511	27100	172372	27187	1052440	45034	110592	0	0	7973	646614	0	0
2024-07-23 11:57:47			0	35464	0	0	0	28548	27100	172364	27020	1052476	45046	110606	0	0	7971	647221	0	0
2024-07-23 11:58:47			0	35476	0	0	0	28566	27110	172292	27313	1052520	45046	110613	0	0	7972	646664	0	0
2024-07-23 11:59:47			0	35488	0	0	0	28425	27130	172232	26918	1052520	45048	110559	0	0	7975	646070	0	0
2024-07-23 12:00:47			0	35501	0	0	0	28368	27110	172160	27071	1052350	45001	110537	0	0	7977	645581	0	0
2024-07-23 12:01:47			0	35511	0	0	0	28428	27110	172136	27076	1052332	45024	110560	0	0	7976	645149	0	0
2024-07-23 12:02:47			0	35478	0	0	0	28350	27110	172248	27052	1052386	45001	110530	0	0	7976	646577	0	0
2024-07-23 12:03:47			0	35453	0	0	0	28340	27100	172292	27152	1052171	45012	110526	0	0	7974	647698	0	0
2024-07-23 12:04:47			0	35440	0	0	0	28337	27080	172412	27100	1052010	44978	110525	0	0	7973	648337	0	0
2024-07-23 12:05:47			0	35434	0	0	0	28350	27070	172256	27152	1051957	44987	110530	0	0	7973	648634	0	0
2024-07-23 12:06:47			0	35431	0	0	0	28353	27060	172444	27140	1051939	44997	110531	0	0	7972	648802	0	0
2024-07-23 12:07:47			0	35444	0	0	0	28376	27040	172400	27053	1051939	44996	110540	0	0	7973	648312	0	0
2024-07-23 12:08:47			0	35451	0	0	0	28459	27050	172356	26922	1052091	45018	110572	0	0	7972	647971	0	0
2024-07-23 12:09:47			0	35497	0	0	0	28527	27060	172148	27055	1052288	45041	110598	0	0	7974	645940	0	0
2024-07-23 12:10:47			0	35549	0	0	0	28522	27090	171920	27242	1052449	45044	110596	0	0	7977	643581	0	0
2024-07-23 12:11:47			0	35574	0	0	0	28506	27100	171808	26935	1052494	45034	110590	0	0	7979	642465	0	0
2024-07-23 12:12:47			0	35591	0	0	0	28542	27110	171720	27112	1052565	45046	110604	0	0	7979	641696	0	0
2024-07-23 12:13:47			0	35601	0	0	0	28576	27130	171716	26687	1052708	45071	110617	0	0	7980	641191	0	0
2024-07-23 12:14:47			0	35610	0	0	0	28501	27140	171500	27019	1052681	45050	110588	0	0	7981	640767	0	0
2024-07-23 12:15:47			0	35580	0	0	0	28477	27150	171656	27093	1052672	45018	110579	0	0	7980	642022	0	0
2024-07-23 12:16:47			0	35580	0	0	0	28618	27160	171692	26967	1052842	45051	110633	0	0	7978	641985	0	0
2024-07-23 12:17:47			0	35568	0	0	0	28607	27180	171796	26968	1052931	45053	110629	0	0	7977	642429	0	0
2024-07-23 12:18:47			0	35553	0	0	0	28579	27180	171552	27305	1052913	45032	110618	0	0	7977	643076	0	0
2024-07-23 12:19:47			0	35571	0	0	0	28768	27200	171600	27098	1053021	45055	110691	0	0	7975	642226	0	0
2024-07-23 12:20:47			0	35580	0	0	0	28823	27220	171624	27263	1053325	45091	110712	0	0	7975	641764	0	0
2024-07-23 12:21:47			0	35583	0	0	0	28844	27260	171508	27064	1053557	45095	110720	0	0	7975	641488	0	0
2024-07-23 12:22:47			0	35620	0	0	0	28766	27280	171252	26925	1053593	45076	110690	0	0	7978	639823	0	0
2024-07-23 12:23:47			0	35683	0	0	0	28753	27290	171060	27107	1053584	45053	110685	0	0	7982	637082	0	0
2024-07-23 12:24:47			0	35681	0	0	0	28758	27300	170952	27220	1053575	45055	110687	0	0	7982	637131	0	0
2024-07-23 12:25:47			0	35697	0	0	0	28753	27310	170896	26948	1053539	45055	110685	0	0	7983	636410	0	0
2024-07-23 12:26:47			0	35688	0	0	0	28755	27310	170880	27286	1053619	45033	110686	0	0	7983	636795	0	0
2024-07-23 12:27:47			0	35675	0	0	0	28784	27320	170808	27102	1053664	45057	110697	0	0	7982	637315	0	0
2024-07-23 12:28:47			0	35683	0	0	0	28802	27330	170840	26977	1053736	45057	110704	0	0	7982	636936	0	0
2024-07-23 12:29:47			0	35674	0	0	0	28872	27350	170920	26866	1053762	45060	110731	0	0	7980	637248	0	0
2024-07-23 12:30:47			0	35653	0	0	0	28903	27360	171060	27086	1053914	45082	110743	0	0	7978	638112	0	0
2024-07-23 12:31:47			0	35617	0	0	0	28922	27380	171288	27218	1054138	45083	110750	0	0	7976	639584	0	0
2024-07-23 12:32:47			0	35607	0	0	0	28859	27400	171224	27562	1054147	45085	110726	0	0	7977	639940	0	0
2024-07-23 12:33:47			0	35606	0	0	0	28825	27410	171172	27317	1054003	45065	110713	0	0	7977	639946	0	0
2024-07-23 12:34:47			0	35615	0	0	0	28823	27410	171100	27163	1053976	45054	110712	0	0	7978	639559	0	0
2024-07-23 12:35:47			0	35609	0	0	0	28794	27410	171032	27062	1053949	45054	110701	0	0	7978	639817	0	0
2024-07-23 12:36:47			0	35609	0	0	0	28792	27400	171136	27275	1053967	45031	110700	0	0	7978	639854	0	0
2024-07-23 12:37:47			0	35620	0	0	0	28807	27420	171180	27213	1053940	45044	110706	0	0	7978	639308	0	0
2024-07-23 12:38:47			0	35606	0	0	0	28786	27410	171108	27098	1053976	45043	110698	0	0	7978	639946	0	0
2024-07-23 12:39:47			0	35596	0	0	0	28776	27400	171096	27144	1053860	45042	110694	0	0	7977	640413	0	0
2024-07-23 12:40:47			0	35611	0	0	0	28784	27410	171068	27197	1053869	45043	110697	0	0	7978	639731	0	0
2024-07-23 12:41:47			0	35609	0	0	0	28771	27400	171068	27279	1053914	45031	110692	0	0	7978	639854	0	0
2024-07-23 12:42:47			0	35629	0	0	0	28768	27400	170928	27069	1053967	45042	110691	0	0	7979	638995	0	0
2024-07-23 12:43:47			0	35662	0	0	0	28729	27390	170920	27360	1053815	45030	110676	0	0	7982	637616	0	0
2024-07-23 12:44:47			0	35677	0	0	0	28701	27400	170812	27319	1053797	45052	110665	0	0	7984	636937	0	0
2024-07-23 12:45:47			0	35689	0	0	0	28742	27400	170744	27358	1053770	45030	110681	0	0	7984	636423	0	0
2024-07-23 12:46:47			0	35706	0	0	0	28742	27380	170628	27466	1053797	45051	110681	0	0	7984	635769	0	0
2024-07-23 12:47:47			0	35697	0	0	0	28690	27380	170552	27296	1053708	45040	110661	0	0	7985	636154	0	0
2024-07-23 12:48:47			0	35702	0	0	0	28727	27390	170700	27234	1053752	45052	110675	0	0	7985	635903	0	0
2024-07-23 12:49:47			0	35700	0	0	0	28771	27370	170704	27135	1053753	45040	110692	0	0	7984	636062	0	0
2024-07-23 12:50:47			0	35664	0	0	0	28841	27390	170860	27296	1053860	45052	110719	0	0	7980	637530	0	0
2024-07-23 12:51:47			0	35677	0	0	0	28849	27390	170832	27253	1053887	45064	110722	0	0	7981	636973	0	0
2024-07-23 12:52:47			0	35666	0	0	0	28844	27400	170860	27208	1054093	45075	110720	0	0	7980	637408	0	0
2024-07-23 12:53:47			0	35674	0	0	0	28857	27410	170792	26994	1054057	45077	110725	0	0	7981	637029	0	0
2024-07-23 12:54:47			0	35693	0	0	0	28841	27420	170772	27364	1054156	45066	110719	0	0	7982	636179	0	0
2024-07-23 12:55:47			0	35692	0	0	0	28841	27420	170608	27305	1054138	45066	110719	0	0	7982	636221	0	0
2024-07-23 12:56:47			0	35724	0	0	0	28836	27430	170516	27388	1054146	45067	110717	0	0	7984	634817	0	0
2024-07-23 12:57:47			0	35731	0	0	0	28807	27430	170568	27168	1054066	45067	110706	0	0	7985	634518	0	0
2024-07-23 12:58:47			0	35724	0	0	0	28857	27430	170592	27312	1054093	45056	110725	0	0	7984	634817	0	0
2024-07-23 12:59:47			0	35724	0	0	0	28989	27440	170604	27189	1054352	45080	110776	0	0	7982	634780	0	0
2024-07-23 13:00:47			0	35717	0	0	0	28966	27460	170628	27284	1054522	45092	110767	0	0	7982	635006	0	0
2024-07-23 13:01:47			0	35736	0	0	0	28942	27490	170556	27308	1054522	45084	110758	0	0	7983	634085	0	0
2024-07-23 13:02:47			0	35740	0	0	0	28976	27490	170524	26902	1054549	45084	110771	0	0	7983	633914	0	0
2024-07-23 13:03:47			0	35724	0	0	0	29002	27500	170488	27029	1054647	45096	110781	0	0	7982	634561	0	0
2024-07-23 13:04:47			0	35722	0	0	0	28971	27510	170532	26989	1054611	45086	110769	0	0	7982	634610	0	0
2024-07-23 13:05:47			0	35727	0	0	0	28981	27510	170392	27215	1054647	45087	110773	0	0	7982	634396	0	0
2024-07-23 13:06:47			0	35749	0	0	0	28950	27520	170396	27358	1054737	45076	110761	0	0	7984	633421	0	0
2024-07-23 13:07:47			0	35769	0	0	0	28898	27530	170308	27164	1054620	45089	110741	0	0	7986	632532	0	0
2024-07-23 13:08:47			0	35763	0	0	0	28888	27530	170220	27497	1054584	45054	110737	0	0	7986	632788	0	0
2024-07-23 13:09:47			0	35764	0	0	0	28857	27530	170220	26824	1054485	45055	110725	0	0	7987	632745	0	0
2024-07-23 13:10:47			0	35797	0	0	0	28828	27510	170048	26965	1054432	45053	110714	0	0	7989	631413	0	0
2024-07-23 13:11:47			0	35779	0	0	0	28820	27500	170204	27130	1054360	45064	110711	0	0	7988	632215	0	0
2024-07-23 13:12:47			0	35785	0	0	0	28833	27490	170052	27190	1054316	45041	110716	0	0	7988	631996	0	0
2024-07-23 13:13:47			0	35788	0	0	0	28836	27490	170020	27033	1054334	45050	110717	0	0	7988	631869	0	0
2024-07-23 13:14:47			0	35781	0	0	0	28820	27480	170096	27013	1054316	45061	110711	0	0	7988	632203	0	0
2024-07-23 13:15:47			0	35779	0	0	0	28818	27480	170140	26955	1054271	45062	110710	0	0	7988	632288	0	0
2024-07-23 13:16:47			0	35799	0	0	0	28820	27470	170176	27216	1054307	45050	110711	0	0	7989	631473	0	0
2024-07-23 13:17:47			0	35803	0	0	0	28828	27470	170044	27039	1054253	45061	110714	0	0	7989	631303	0	0
2024-07-23 13:18:47			0	35830	0	0	0	28828	27460	170160	27163	1054235	45059	110714	0	0	7991	630191	0	0
2024-07-23 13:19:47			0	35835	0	0	0	28818	27460	169900	27199	1054146	45059	110710	0	0	7991	629978	0	0
2024-07-23 13:20:47			0	35860	0	0	0	28849	27460	169865	27064	1054253	45070	110722	0	0	7992	628917	0	0
2024-07-23 13:21:47			0	35860	0	0	0	28896	27470	169777	27062	1054307	45061	110740	0	0	7992	628881	0	0
2024-07-23 13:22:47			0	35884	0	0	0	28890	27470	169625	27223	1054361	45061	110738	0	0	7993	627863	0	0
2024-07-23 13:23:47			0	35910	0	0	0	28942	27480	169589	26981	1054450	45072	110758	0	0	7994	626725	0	0
2024-07-23 13:24:47			0	35929	0	0	0	28929	27490	169649	27329	1054495	45084	110753	0	0	7995	625885	0	0
2024-07-23 13:25:47			0	35941	0	0	0	28927	27500	169497	27232	1054549	45075	110752	0	0	7996	625342	0	0
2024-07-23 13:26:47			0	35937	0	0	0	28916	27500	169513	27270	1054522	45075	110748	0	0	7996	625511	0	0
2024-07-23 13:27:47			0	35938	0	0	0	28864	27500	169577	27286	1054459	45063	110728	0	0	7997	625469	0	0
2024-07-23 13:28:47			0	35922	0	0	0	28883	27500	169513	27507	1054432	45063	110735	0	0	7996	626146	0	0
2024-07-23 13:29:47			0	35920	0	0	0	28862	27500	169589	26946	1054486	45051	110727	0	0	7996	626230	0	0
2024-07-23 13:30:47			0	35921	0	0	0	28841	27490	169609	27448	1054423	45051	110719	0	0	7996	626224	0	0
2024-07-23 13:31:47			0	35888	0	0	0	28805	27490	169641	27145	1054369	45063	110705	0	0	7995	627621	0	0
2024-07-23 13:32:47			0	35890	0	0	0	28794	27480	169657	27223	1054271	45040	110701	0	0	7995	627572	0	0
2024-07-23 13:33:47			0	35881	0	0	0	28797	27470	169737	27331	1054164	45049	110702	0	0	7995	627990	0	0
2024-07-23 13:34:47			0	35881	0	0	0	28825	27460	169717	26956	1054146	45059	110713	0	0	7994	628026	0	0
2024-07-23 13:35:47			0	35881	0	0	0	28854	27450	169901	27154	1054245	45048	110724	0	0	7994	628062	0	0
2024-07-23 13:36:47			0	35872	0	0	0	28857	27460	169761	27043	1054235	45059	110725	0	0	7993	628408	0	0
2024-07-23 13:37:47			0	35919	0	0	0	28810	27470	169649	27133	1054361	45072	110707	0	0	7997	626381	0	0
2024-07-23 13:38:47			0	35913	0	0	0	28833	27460	169701	27020	1054253	45059	110716	0	0	7996	626671	0	0
2024-07-23 13:39:47			0	35920	0	0	0	28815	27470	169549	27310	1054217	45049	110709	0	0	7997	626338	0	0
2024-07-23 13:40:47			0	35921	0	0	0	28810	27450	169661	27112	1054218	45059	110707	0	0	7997	626368	0	0
2024-07-23 13:41:47			0	35924	0	0	0	28841	27460	169653	27190	1054200	45059	110719	0	0	7996	626205	0	0
2024-07-23 13:42:47			0	35915	0	0	0	28792	27450	169517	26856	1054182	45047	110700	0	0	7997	626622	0	0
2024-07-23 13:43:47			0	35924	0	0	0	28799	27450	169653	27452	1054191	45059	110703	0	0	7997	626241	0	0
2024-07-23 13:44:47			0	35907	0	0	0	28823	27450	169653	27397	1054191	45059	110712	0	0	7996	626960	0	0
2024-07-23 13:45:47			0	35928	0	0	0	28838	27450	169609	27524	1054218	45059	110718	0	0	7997	626072	0	0
2024-07-23 13:46:47			0	35925	0	0	0	28859	27450	169589	27417	1054272	45059	110726	0	0	7996	626199	0	0
2024-07-23 13:47:47			0	35933	0	0	0	28877	27450	169725	27317	1054263	45081	110733	0	0	7996	625860	0	0
2024-07-23 13:48:47			0	35928	0	0	0	28880	27460	169665	27395	1054343	45070	110734	0	0	7996	626036	0	0
2024-07-23 13:49:47			0	35932	0	0	0	28875	27470	169573	27345	1054379	45071	110732	0	0	7996	625831	0	0
2024-07-23 13:50:47			0	35950	0	0	0	28851	27470	169613	27263	1054433	45083	110723	0	0	7998	625070	0	0
2024-07-23 13:51:47			0	35932	0	0	0	28857	27470	169529	27289	1054361	45072	110725	0	0	7997	625831	0	0
2024-07-23 13:52:47			0	35933	0	0	0	28883	27480	169557	27267	1054405	45073	110735	0	0	7996	625752	0	0
2024-07-23 13:53:47			0	35930	0	0	0	28885	27480	169621	27281	1054423	45072	110736	0	0	7996	625879	0	0
2024-07-23 13:54:47			0	35950	0	0	0	28885	27480	169485	27177	1054477	45061	110736	0	0	7997	625034	0	0
2024-07-23 13:55:47			0	35976	0	0	0	28867	27490	169465	27031	1054468	45073	110729	0	0	7999	623900	0	0
2024-07-23 13:56:47			0	35966	0	0	0	28903	27490	169461	27170	1054522	45106	110743	0	0	7998	624322	0	0
2024-07-23 13:57:47			0	35974	0	0	0	28890	27500	169293	27396	1054575	45097	110738	0	0	7999	623949	0	0
2024-07-23 13:58:47			0	35992	0	0	0	28909	27510	169301	27239	1054647	45076	110745	0	0	8000	623154	0	0
2024-07-23 13:59:47			0	35979	0	0	0	28922	27530	169153	27279	1054772	45099	110750	0	0	7999	623630	0	0
2024-07-23 14:00:47			0	36006	0	0	0	29044	27540	169117	27395	1054925	45078	110797	0	0	7998	622456	0	0
2024-07-23 14:01:47			0	36042	0	0	0	29057	27560	169061	27156	1055068	45102	110802	0	0	8000	620870	0	0
2024-07-23 14:02:47			0	36076	0	0	0	29101	27580	168817	27319	1055184	45126	110819	0	0	8002	619370	0	0
2024-07-23 14:03:47			0	36110	0	0	0	29101	27590	168733	27303	1055283	45116	110819	0	0	8004	617909	0	0
2024-07-23 14:04:47			0	36155	0	0	0	29114	27620	168405	27189	1055363	45130	110824	0	0	8007	615919	0	0
2024-07-23 14:05:47			0	36175	0	0	0	29116	27630	168373	27315	1055416	45131	110825	0	0	8008	615048	0	0
2024-07-23 14:06:47			0	36220	0	0	0	29012	27660	168041	27182	1055417	45102	110785	0	0	8012	613065	0	0
2024-07-23 14:07:47			0	36221	0	0	0	29090	27650	168085	27156	1055372	45100	110815	0	0	8011	613059	0	0
2024-07-23 14:08:47			0	36208	0	0	0	29109	27670	168069	27225	1055560	45102	110822	0	0	8010	613530	0	0
2024-07-23 14:09:47			0	36226	0	0	0	29054	27670	167977	27168	1055542	45091	110801	0	0	8012	612780	0	0
2024-07-23 14:10:47			0	36227	0	0	0	28940	27690	167901	27041	1055515	45093	110757	0	0	8014	612668	0	0
2024-07-23 14:11:47			0	36199	0	0	0	28883	27680	167897	27419	1055336	45058	110735	0	0	8014	613870	0	0
2024-07-23 14:12:47			0	36134	0	0	0	28914	27670	168345	27159	1055210	45058	110747	0	0	8009	616620	0	0
2024-07-23 14:13:47			0	36112	0	0	0	28963	27670	168373	27300	1055219	45058	110766	0	0	8007	617541	0	0
2024-07-23 14:14:47			0	36110	0	0	0	29127	27660	168485	27069	1055408	45079	110829	0	0	8004	617660	0	0
2024-07-23 14:15:47			0	36137	0	0	0	29171	27690	168429	27111	1055604	45093	110846	0	0	8005	616423	0	0
2024-07-23 14:16:47			0	36206	0	0	0	29018	27700	168129	27119	1055748	45105	110787	0	0	8012	613507	0	0
2024-07-23 14:17:47			0	36236	0	0	0	29070	27700	168053	27057	1055622	45106	110807	0	0	8013	612258	0	0
2024-07-23 14:18:47			0	36228	0	0	0	29212	27720	168029	27138	1055783	45096	110862	0	0	8010	612520	0	0
2024-07-23 14:19:47			0	36257	0	0	0	29259	27730	167865	27281	1055891	45109	110880	0	0	8011	611279	0	0
2024-07-23 14:20:47			0	36311	0	0	0	29280	27750	167629	27390	1056061	45122	110888	0	0	8014	608966	0	0
2024-07-23 14:21:47			0	36363	0	0	0	29272	27770	167425	27291	1056141	45124	110885	0	0	8017	606743	0	0
2024-07-23 14:22:47			0	36389	0	0	0	29233	27770	167237	27407	1056069	45101	110870	0	0	8019	605669	0	0
2024-07-23 14:23:47			0	36383	0	0	0	29199	27790	167193	27341	1056096	45115	110857	0	0	8020	605847	0	0
2024-07-23 14:24:47			0	36381	0	0	0	29166	27800	167069	27327	1056141	45093	110844	0	0	8020	605895	0	0
2024-07-23 14:25:47			0	36350	0	0	0	29181	27790	167261	27362	1056051	45093	110850	0	0	8018	607211	0	0
2024-07-23 14:26:47			0	36352	0	0	0	29168	27790	167365	27206	1056043	45092	110845	0	0	8018	607128	0	0
2024-07-23 14:27:47			0	36317	0	0	0	29179	27780	167437	27346	1055926	45102	110849	0	0	8016	608613	0	0
2024-07-23 14:28:47			0	36287	0	0	0	29189	27790	167613	27156	1056016	45082	110853	0	0	8014	609822	0	0
2024-07-23 14:29:47			0	36275	0	0	0	29197	27780	167777	27374	1056105	45080	110856	0	0	8013	610355	0	0
2024-07-23 14:30:47			0	36271	0	0	0	29179	27790	167857	27159	1056070	45092	110849	0	0	8013	610486	0	0
2024-07-23 14:31:47			0	36238	0	0	0	29181	27810	167789	27206	1056150	45093	110850	0	0	8011	611787	0	0
2024-07-23 14:32:47			0	36251	0	0	0	29210	27810	167729	27409	1056123	45104	110861	0	0	8012	611246	0	0
2024-07-23 14:33:47			0	36250	0	0	0	29166	27810	167753	27227	1056186	45094	110844	0	0	8012	611288	0	0
2024-07-23 14:34:47			0	36254	0	0	0	29176	27810	167821	27322	1056069	45082	110848	0	0	8012	611122	0	0
2024-07-23 14:35:47			0	36254	0	0	0	29218	27810	167761	27376	1056123	45093	110864	0	0	8012	611122	0	0
2024-07-23 14:36:47			0	36260	0	0	0	29218	27820	167713	27048	1056168	45095	110864	0	0	8012	610837	0	0
2024-07-23 14:37:47			0	36298	0	0	0	29233	27810	167581	27242	1056213	45117	110870	0	0	8014	609295	0	0
2024-07-23 14:38:47			0	36319	0	0	0	29254	27820	167521	27488	1056204	45095	110878	0	0	8015	608389	0	0
2024-07-23 14:39:47			0	36349	0	0	0	29246	27820	167345	27263	1056257	45073	110875	0	0	8017	607148	0	0
2024-07-23 14:40:47			0	36361	0	0	0	29241	27840	167321	27244	1056365	45097	110873	0	0	8018	606581	0	0
2024-07-23 14:41:47			0	36352	0	0	0	29171	27840	167353	27497	1056257	45108	110846	0	0	8019	606953	0	0
2024-07-23 14:42:47			0	36322	0	0	0	29205	27840	167469	27386	1056230	45075	110859	0	0	8016	608195	0	0
2024-07-23 14:43:47			0	36297	0	0	0	29218	27840	167533	27315	1056257	45097	110864	0	0	8015	609231	0	0
2024-07-23 14:44:47			0	36310	0	0	0	29197	27840	167533	27493	1056203	45097	110856	0	0	8016	608692	0	0
2024-07-23 14:45:47			0	36288	0	0	0	29212	27840	167629	27362	1056123	45085	110862	0	0	8014	609605	0	0
2024-07-23 14:46:47			0	36296	0	0	0	29249	27830	167633	27216	1056212	45083	110876	0	0	8014	609308	0	0
2024-07-23 14:47:47			0	36325	0	0	0	29194	27840	167521	27213	1056257	45085	110855	0	0	8017	608071	0	0
2024-07-23 14:48:47			0	36320	0	0	0	29129	27820	167513	27137	1056123	45095	110830	0	0	8017	608348	0	0
2024-07-23 14:49:47			0	36286	0	0	0	29205	27820	167709	27267	1056069	45095	110859	0	0	8014	609758	0	0
2024-07-23 14:50:47			0	36311	0	0	0	29181	27820	167537	27111	1056150	45083	110850	0	0	8016	608721	0	0
2024-07-23 14:51:47			0	36314	0	0	0	29176	27820	167645	27227	1056177	45095	110848	0	0	8016	608597	0	0
2024-07-23 14:52:47			0	36293	0	0	0	29192	27830	167641	26892	1056194	45084	110854	0	0	8015	609432	0	0
2024-07-23 14:53:47			0	36326	0	0	0	29236	27830	167665	27111	1056221	45096	110871	0	0	8016	608065	0	0
2024-07-23 14:54:47			0	36311	0	0	0	29194	27830	167605	27203	1056320	45095	110855	0	0	8016	608686	0	0
2024-07-23 14:55:47			0	36298	0	0	0	29197	27840	167729	27029	1056293	45120	110856	0	0	8015	609190	0	0
2024-07-23 14:56:47			0	36286	0	0	0	29192	27830	167661	27102	1056248	45084	110854	0	0	8014	609723	0	0
2024-07-23 14:57:47			0	36297	0	0	0	29173	27840	167721	26915	1056230	45097	110847	0	0	8015	609231	0	0
2024-07-23 14:58:47			0	36276	0	0	0	29148	27830	167765	27138	1056141	45084	110837	0	0	8014	610137	0	0
2024-07-23 14:59:47			0	36267	0	0	0	29161	27830	167725	27343	1056141	45074	110842	0	0	8014	610511	0	0
2024-07-23 15:00:47			0	36253	0	0	0	29142	27820	167901	27322	1056006	45083	110835	0	0	8013	611128	0	0
2024-07-23 15:01:47			0	36241	0	0	0	29148	27810	168053	27093	1056078	45083	110837	0	0	8012	611662	0	0
2024-07-23 15:02:47			0	36225	0	0	0	29181	27810	168033	27137	1056105	45083	110850	0	0	8011	612328	0	0
2024-07-23 15:03:47			0	36208	0	0	0	29163	27810	168193	27100	1056069	45104	110843	0	0	8010	613035	0	0
2024-07-23 15:04:47			0	36220	0	0	0	29184	27810	168149	27216	1056069	45082	110851	0	0	8010	612536	0	0
2024-07-23 15:05:47			0	36197	0	0	0	29163	27800	168133	27435	1056060	45093	110843	0	0	8009	613529	0	0
2024-07-23 15:06:47			0	36202	0	0	0	29145	27820	168161	27447	1056123	45106	110836	0	0	8010	613250	0	0
2024-07-23 15:07:47			0	36179	0	0	0	29173	27820	168297	27062	1056087	45106	110847	0	0	8008	614209	0	0
2024-07-23 15:08:47			0	36161	0	0	0	29210	27820	168313	27085	1056114	45106	110861	0	0	8006	614960	0	0
2024-07-23 15:09:47			0	36155	0	0	0	29163	27820	168389	26859	1056195	45095	110843	0	0	8007	615210	0	0
2024-07-23 15:10:47			0	36100	0	0	0	29168	27810	168597	27220	1056132	45105	110845	0	0	8003	617545	0	0
2024-07-23 15:11:47			0	36095	0	0	0	29184	27810	168813	27085	1056078	45105	110851	0	0	8003	617755	0	0
2024-07-23 15:12:47			0	36066	0	0	0	29142	27810	168853	26923	1056132	45094	110835	0	0	8002	618970	0	0
2024-07-23 15:13:47			0	36033	0	0	0	29181	27810	168997	26656	1056024	45083	110850	0	0	7999	620355	0	0
2024-07-23 15:14:47			0	36024	0	0	0	29163	27810	169029	26987	1056069	45093	110843	0	0	7999	620733	0	0
2024-07-23 15:15:47			0	35973	0	0	0	29168	27790	169345	27312	1056051	45093	110845	0	0	7996	622950	0	0
2024-07-23 15:16:47			0	35962	0	0	0	29124	27810	169249	27043	1056042	45071	110828	0	0	7996	623342	0	0
2024-07-23 15:17:47			0	35925	0	0	0	29132	27790	169505	27284	1055917	45093	110831	0	0	7993	624974	0	0
2024-07-23 15:18:47			0	35894	0	0	0	29148	27790	169605	27381	1055989	45092	110837	0	0	7991	626284	0	0
2024-07-23 15:19:47			0	35905	0	0	0	29161	27770	169657	27112	1055962	45090	110842	0	0	7992	625892	0	0
2024-07-23 15:20:47			0	35888	0	0	0	29148	27780	169701	27074	1055953	45091	110837	0	0	7991	626574	0	0
2024-07-23 15:21:47			0	35894	0	0	0	29189	27780	169753	27234	1055971	45090	110853	0	0	7990	626320	0	0
2024-07-23 15:22:47			0	35909	0	0	0	29179	27790	169625	27083	1056043	45103	110849	0	0	7992	625650	0	0
2024-07-23 15:23:47			0	35927	0	0	0	29181	27780	169561	26828	1056061	45091	110850	0	0	7993	624926	0	0
2024-07-23 15:24:47			0	35924	0	0	0	29192	27800	169569	27239	1056007	45104	110854	0	0	7992	624981	0	0
2024-07-23 15:25:47			0	35928	0	0	0	29145	27800	169557	27249	1056060	45093	110836	0	0	7993	624812	0	0
2024-07-23 15:26:47			0	35896	0	0	0	29132	27790	169657	27315	1055998	45093	110831	0	0	7992	626200	0	0
2024-07-23 15:27:47			0	35873	0	0	0	29145	27790	169837	27013	1055962	45092	110836	0	0	7990	627173	0	0
2024-07-23 15:28:47			0	35839	0	0	0	29153	27780	169868	26861	1055980	45102	110839	0	0	7988	628649	0	0
2024-07-23 15:29:47			0	35831	0	0	0	29140	27770	170024	27182	1055926	45101	110834	0	0	7987	629025	0	0
2024-07-23 15:30:47			0	35786	0	0	0	29184	27780	170108	27182	1056007	45091	110851	0	0	7984	630900	0	0
2024-07-23 15:31:47			0	35823	0	0	0	29176	27780	170052	27241	1056051	45101	110848	0	0	7986	629328	0	0
2024-07-23 15:32:47			0	35818	0	0	0	29176	27800	170104	27409	1056168	45126	110848	0	0	7986	629468	0	0
2024-07-23 15:33:47			0	35830	0	0	0	29163	27790	169940	27267	1056123	45103	110843	0	0	7987	628995	0	0
2024-07-23 15:34:47			0	35805	0	0	0	29161	27790	170044	27334	1055989	45082	110842	0	0	7986	630056	0	0
2024-07-23 15:35:47			0	35818	0	0	0	29142	27780	170096	27234	1055971	45080	110835	0	0	7987	629540	0	0
2024-07-23 15:36:47			0	35791	0	0	0	29145	27790	170108	27182	1055962	45092	110836	0	0	7985	630651	0	0
2024-07-23 15:37:47			0	35793	0	0	0	29158	27780	170196	27118	1056034	45102	110841	0	0	7985	630602	0	0
2024-07-23 15:38:47			0	35762	0	0	0	29155	27780	170144	26781	1056034	45091	110840	0	0	7983	631920	0	0
2024-07-23 15:39:47			0	35796	0	0	0	29173	27800	170104	27114	1056033	45104	110847	0	0	7985	630402	0	0
2024-07-23 15:40:47			0	35830	0	0	0	29186	27790	170096	27111	1056078	45104	110852	0	0	7987	628995	0	0
2024-07-23 15:41:47			0	35830	0	0	0	29215	27800	169976	27242	1056060	45093	110863	0	0	7986	628959	0	0
2024-07-23 15:42:47			0	35845	0	0	0	29215	27810	169864	27194	1056150	45116	110863	0	0	7987	628286	0	0
2024-07-23 15:43:47			0	35858	0	0	0	29194	27810	169833	26977	1056177	45104	110855	0	0	7988	627736	0	0
2024-07-23 15:44:47			0	35862	0	0	0	29176	27810	169848	27135	1056159	45094	110848	0	0	7989	627566	0	0
2024-07-23 15:45:47			0	35874	0	0	0	29197	27810	169785	26805	1056159	45105	110856	0	0	7989	627058	0	0
2024-07-23 15:46:47			0	35861	0	0	0	29257	27810	169932	27166	1056213	45105	110879	0	0	7987	627609	0	0
2024-07-23 15:47:47			0	35906	0	0	0	29251	27830	169749	27033	1056329	45107	110877	0	0	7990	625633	0	0
2024-07-23 15:48:47			0	35916	0	0	0	29225	27830	169601	27234	1056302	45119	110867	0	0	7991	625211	0	0
2024-07-23 15:49:47			0	35948	0	0	0	29254	27840	169581	27005	1056311	45108	110878	0	0	7993	623824	0	0
2024-07-23 15:50:47			0	35949	0	0	0	29199	27840	169357	27076	1056284	45097	110857	0	0	7994	623782	0	0
2024-07-23 15:51:47			0	35911	0	0	0	29212	27840	169625	27034	1056266	45097	110862	0	0	7991	625386	0	0
2024-07-23 15:52:47			0	35892	0	0	0	29228	27840	169693	27066	1056320	45108	110868	0	0	7990	626189	0	0
2024-07-23 15:53:47			0	35915	0	0	0	29233	27850	169717	27007	1056302	45120	110870	0	0	7991	625181	0	0
2024-07-23 15:54:47			0	35954	0	0	0	29316	27850	169529	27078	1056445	45109	110902	0	0	7992	623535	0	0
2024-07-23 15:55:47			0	36065	0	0	0	29407	27870	169001	27133	1056633	45123	110937	0	0	7998	618798	0	0
2024-07-23 15:56:47			0	36162	0	0	0	29379	27890	168429	27043	1056750	45135	110926	0	0	8004	614670	0	0
2024-07-23 15:57:47			0	36195	0	0	0	29350	27890	168253	26939	1056812	45135	110915	0	0	8006	613294	0	0
2024-07-23 15:58:47			0	36127	0	0	0	29223	27900	168473	27312	1056642	45104	110866	0	0	8005	616096	0	0
2024-07-23 15:59:47			0	35994	0	0	0	29173	27890	169065	27176	1056427	45090	110847	0	0	7997	621707	0	0
2024-07-23 16:00:47			0	35902	0	0	0	29184	27880	169613	27251	1056418	45080	110851	0	0	7991	625622	0	0
2024-07-23 16:01:47			0	35858	0	0	0	29171	27870	169820	27364	1056310	45078	110846	0	0	7989	627519	0	0
2024-07-23 16:02:47			0	35817	0	0	0	29184	27850	170036	27118	1056230	45086	110851	0	0	7986	629329	0	0
2024-07-23 16:03:47			0	35769	0	0	0	29168	27850	170212	26951	1056221	45085	110845	0	0	7984	631368	0	0
2024-07-23 16:04:47			0	35753	0	0	0	29158	27840	170224	27164	1056123	45097	110841	0	0	7983	632085	0	0
2024-07-23 16:05:47			0	35741	0	0	0	29148	27830	170332	27414	1056132	45083	110837	0	0	7982	632632	0	0
2024-07-23 16:06:47			0	35720	0	0	0	29148	27830	170308	27332	1056141	45096	110837	0	0	7981	633527	0	0
2024-07-23 16:07:47			0	35714	0	0	0	29148	27830	170404	27208	1056114	45074	110837	0	0	7980	633783	0	0
2024-07-23 16:08:47			0	35722	0	0	0	29142	27810	170412	27185	1056078	45083	110835	0	0	7981	633515	0	0
2024-07-23 16:09:47			0	35712	0	0	0	29140	27810	170416	27249	1056051	45105	110834	0	0	7980	633941	0	0
2024-07-23 16:10:47			0	35711	0	0	0	29145	27820	170476	27223	1056114	45106	110836	0	0	7980	633948	0	0
2024-07-23 16:11:47			0	35712	0	0	0	29145	27810	170388	27308	1056096	45093	110836	0	0	7980	633941	0	0
2024-07-23 16:12:47			0	35728	0	0	0	29153	27810	170520	27395	1056096	45082	110839	0	0	7981	633259	0	0
2024-07-23 16:13:47			0	35710	0	0	0	29158	27810	170504	27178	1056123	45104	110841	0	0	7980	634027	0	0
2024-07-23 16:14:47			0	35702	0	0	0	29155	27810	170412	27033	1056150	45104	110840	0	0	7979	634368	0	0
2024-07-23 16:15:47			0	35712	0	0	0	29166	27800	170648	27256	1056114	45093	110844	0	0	7980	633978	0	0
2024-07-23 16:16:47			0	35723	0	0	0	29166	27800	170544	27131	1056087	45093	110844	0	0	7980	633509	0	0
2024-07-23 16:17:47			0	35719	0	0	0	29155	27800	170596	27201	1056033	45104	110840	0	0	7980	633679	0	0
2024-07-23 16:18:47			0	35720	0	0	0	29171	27800	170512	27178	1056114	45116	110846	0	0	7980	633637	0	0
2024-07-23 16:19:47			0	35738	0	0	0	29179	27810	170492	27107	1056123	45093	110849	0	0	7981	632833	0	0
2024-07-23 16:20:47			0	35749	0	0	0	29184	27810	170460	27147	1056186	45105	110851	0	0	7982	632365	0	0
2024-07-23 16:21:47			0	35739	0	0	0	29186	27800	170492	27239	1056114	45093	110852	0	0	7981	632827	0	0
2024-07-23 16:22:47			0	35749	0	0	0	29184	27810	170448	27346	1056096	45093	110851	0	0	7982	632365	0	0
2024-07-23 16:23:47			0	35742	0	0	0	29194	27810	170524	27232	1056123	45093	110855	0	0	7981	632663	0	0
2024-07-23 16:24:47			0	35776	0	0	0	29231	27810	170344	27166	1056177	45104	110869	0	0	7983	631216	0	0
2024-07-23 16:25:47			0	35810	0	0	0	29231	27820	170200	27549	1056311	45118	110869	0	0	7985	629735	0	0
2024-07-23 16:26:47			0	35834	0	0	0	29218	27820	170056	27263	1056222	45095	110864	0	0	7986	628717	0	0
2024-07-23 16:27:47			0	35823	0	0	0	29215	27820	170088	27358	1056222	45106	110863	0	0	7986	629183	0	0
2024-07-23 16:28:47			0	35817	0	0	0	29207	27820	170152	27332	1056257	45095	110860	0	0	7986	629438	0	0
2024-07-23 16:29:47			0	35831	0	0	0	29228	27830	170072	27268	1056266	45106	110868	0	0	7986	628807	0	0
2024-07-23 16:30:47			0	35826	0	0	0	29223	27820	170084	27194	1056195	45095	110866	0	0	7986	629056	0	0
2024-07-23 16:31:47			0	35833	0	0	0	29228	27830	170028	27448	1056212	45095	110868	0	0	7986	628723	0	0
2024-07-23 16:32:47			0	35858	0	0	0	29215	27830	170001	27274	1056239	45106	110863	0	0	7988	627663	0	0
2024-07-23 16:33:47			0	35837	0	0	0	29220	27820	170108	27249	1056204	45118	110865	0	0	7987	628589	0	0
2024-07-23 16:34:47			0	35854	0	0	0	29223	27830	170028	27135	1056293	45118	110866	0	0	7988	627833	0	0
2024-07-23 16:35:47			0	35849	0	0	0	29231	27830	170108	27374	1056275	45107	110869	0	0	7987	628045	0	0
2024-07-23 16:36:47			0	35849	0	0	0	29251	27840	170104	27341	1056347	45108	110877	0	0	7987	628008	0	0
2024-07-23 16:37:47			0	35840	0	0	0	29218	27840	169956	27293	1056311	45108	110864	0	0	7987	628390	0	0
2024-07-23 16:38:47			0	35853	0	0	0	29238	27840	170085	27145	1056284	45097	110872	0	0	7987	627839	0	0
2024-07-23 16:39:47			0	35847	0	0	0	29251	27840	170100	27149	1056374	45108	110877	0	0	7987	628093	0	0
2024-07-23 16:40:47			0	35836	0	0	0	29249	27850	170080	27296	1056383	45108	110876	0	0	7986	628523	0	0
2024-07-23 16:41:47			0	35854	0	0	0	29246	27840	169964	27085	1056320	45120	110875	0	0	7987	627797	0	0
2024-07-23 16:42:47			0	35863	0	0	0	29259	27840	170069	27255	1056401	45097	110880	0	0	7988	627415	0	0
2024-07-23 16:43:47			0	35871	0	0	0	29272	27850	169997	26918	1056445	45109	110885	0	0	7988	627041	0	0
2024-07-23 16:44:47			0	35884	0	0	0	29267	27850	169917	27171	1056445	45098	110883	0	0	7989	626491	0	0
2024-07-23 16:45:47			0	35875	0	0	0	29251	27860	169861	27343	1056454	45099	110877	0	0	7989	626835	0	0
2024-07-23 16:46:47			0	35888	0	0	0	29264	27860	169849	27227	1056490	45123	110882	0	0	7989	626285	0	0
2024-07-23 16:47:47			0	35884	0	0	0	29275	27870	169709	27300	1056499	45123	110886	0	0	7989	626419	0	0
2024-07-23 16:48:47			0	35886	0	0	0	29264	27870	169845	27152	1056445	45111	110882	0	0	7989	626334	0	0
2024-07-23 16:49:47			0	35900	0	0	0	29275	27870	169725	27253	1056508	45100	110886	0	0	7990	625742	0	0
2024-07-23 16:50:47			0	35902	0	0	0	29285	27870	169721	26986	1056535	45111	110890	0	0	7990	625658	0	0
2024-07-23 16:51:47			0	35896	0	0	0	29301	27880	169637	27123	1056517	45123	110896	0	0	7989	625875	0	0
2024-07-23 16:52:47			0	35919	0	0	0	29311	27880	169665	27346	1056544	45112	110900	0	0	7990	624904	0	0
2024-07-23 16:53:47			0	35927	0	0	0	29290	27880	169549	27020	1056633	45113	110892	0	0	7991	624566	0	0
2024-07-23 16:54:47			0	35929	0	0	0	29301	27890	169645	26956	1056588	45124	110896	0	0	7991	624446	0	0
2024-07-23 16:55:47			0	35931	0	0	0	29277	27890	169613	26906	1056624	45124	110887	0	0	7992	624361	0	0
2024-07-23 16:56:47			0	35941	0	0	0	29275	27880	169657	26892	1056606	45124	110886	0	0	7992	623975	0	0
2024-07-23 16:57:47			0	35948	0	0	0	29241	27890	169557	27140	1056624	45113	110873	0	0	7993	623644	0	0
2024-07-23 16:58:47			0	35938	0	0	0	29262	27880	169677	26986	1056472	45113	110881	0	0	7992	624102	0	0
2024-07-23 16:59:47			0	35931	0	0	0	29270	27880	169493	27282	1056526	45113	110884	0	0	7992	624397	0	0
2024-07-23 17:00:47			0	35925	0	0	0	29262	27870	169545	27038	1056562	45088	110881	0	0	7992	624686	0	0
2024-07-23 17:01:47			0	35917	0	0	0	29264	27880	169641	27163	1056552	45090	110882	0	0	7991	624988	0	0
2024-07-23 17:02:47			0	35925	0	0	0	29270	27880	169625	27128	1056597	45112	110884	0	0	7991	624650	0	0
2024-07-23 17:03:47			0	35944	0	0	0	29264	27870	169629	27220	1056508	45100	110882	0	0	7993	623885	0	0
2024-07-23 17:04:47			0	35931	0	0	0	29262	27880	169617	26812	1056579	45113	110881	0	0	7992	624397	0	0
2024-07-23 17:05:47			0	35922	0	0	0	29298	27890	169717	27097	1056588	45113	110895	0	0	7991	624741	0	0
2024-07-23 17:06:47			0	35926	0	0	0	29327	27880	169529	27530	1056651	45134	110906	0	0	7991	624608	0	0
2024-07-23 17:07:47			0	35959	0	0	0	29303	27890	169493	27353	1056705	45135	110897	0	0	7993	623181	0	0
2024-07-23 17:08:47			0	35961	0	0	0	29275	27890	169521	27345	1056678	45135	110886	0	0	7994	623097	0	0
2024-07-23 17:09:47			0	35941	0	0	0	29218	27910	169521	27085	1056624	45092	110864	0	0	7993	623867	0	0
2024-07-23 17:10:47			0	35924	0	0	0	29228	27890	169561	27595	1056570	45102	110868	0	0	7992	624657	0	0
2024-07-23 17:11:47			0	35934	0	0	0	29228	27890	169605	27206	1056570	45102	110868	0	0	7993	624235	0	0
2024-07-23 17:12:47			0	35933	0	0	0	29210	27890	169617	27293	1056454	45102	110861	0	0	7993	624277	0	0
2024-07-23 17:13:47			0	35925	0	0	0	29212	27880	169601	27171	1056391	45080	110862	0	0	7992	624650	0	0
2024-07-23 17:14:47			0	35927	0	0	0	29205	27880	169593	26981	1056409	45089	110859	0	0	7993	624566	0	0
2024-07-23 17:15:47			0	35914	0	0	0	29223	27860	169689	27384	1056436	45100	110866	0	0	7991	625187	0	0
2024-07-23 17:16:47			0	35913	0	0	0	29254	27860	169741	27405	1056409	45111	110878	0	0	7991	625229	0	0
2024-07-23 17:17:47			0	35929	0	0	0	29251	27860	169681	27067	1056382	45100	110877	0	0	7992	624554	0	0
2024-07-23 17:18:47			0	35929	0	0	0	29236	27870	169609	27211	1056499	45111	110871	0	0	7992	624518	0	0
2024-07-23 17:19:47			0	35928	0	0	0	29236	27870	169625	27391	1056445	45111	110871	0	0	7992	624560	0	0
2024-07-23 17:20:47			0	35943	0	0	0	29236	27870	169597	27305	1056499	45123	110871	0	0	7993	623927	0	0
2024-07-23 17:21:47			0	35933	0	0	0	29241	27870	169741	27220	1056499	45111	110873	0	0	7992	624349	0	0
2024-07-23 17:22:47			0	35957	0	0	0	29306	27870	169593	27140	1056589	45123	110898	0	0	7993	623337	0	0
2024-07-23 17:23:47			0	35969	0	0	0	29301	27880	169485	27303	1056606	45124	110896	0	0	7994	622795	0	0
2024-07-23 17:24:47			0	36011	0	0	0	29285	27890	169385	27376	1056642	45113	110890	0	0	7996	620993	0	0
2024-07-23 17:25:47			0	35999	0	0	0	29288	27890	169437	27398	1056615	45113	110891	0	0	7996	621497	0	0
2024-07-23 17:26:47			0	35996	0	0	0	29298	27890	169433	27274	1056651	45124	110895	0	0	7995	621623	0	0
2024-07-23 17:27:47			0	36011	0	0	0	29298	27890	169381	27227	1056651	45124	110895	0	0	7996	620993	0	0
2024-07-23 17:28:47			0	36010	0	0	0	29296	27890	169337	27256	1056669	45113	110894	0	0	7996	621035	0	0
2024-07-23 17:29:47			0	36005	0	0	0	29296	27900	169285	27093	1056660	45114	110894	0	0	7996	621209	0	0
2024-07-23 17:30:47			0	36026	0	0	0	29309	27890	169185	27268	1056705	45124	110899	0	0	7997	620363	0	0
2024-07-23 17:31:47			0	36033	0	0	0	29306	27900	169189	27072	1056750	45125	110898	0	0	7997	620033	0	0
2024-07-23 17:32:47			0	36030	0	0	0	29322	27900	169249	27279	1056687	45125	110904	0	0	7997	620159	0	0
2024-07-23 17:33:47			0	36047	0	0	0	29335	27910	169117	26762	1056759	45125	110909	0	0	7998	619410	0	0
2024-07-23 17:34:47			0	36064	0	0	0	29329	27910	169005	27197	1056768	45125	110907	0	0	7999	618697	0	0
2024-07-23 17:35:47			0	36071	0	0	0	29327	27920	168981	27166	1056803	45105	110906	0	0	7999	618368	0	0
2024-07-23 17:36:47			0	36050	0	0	0	29327	27910	169021	27249	1056821	45115	110906	0	0	7998	619284	0	0
2024-07-23 17:37:47			0	36049	0	0	0	29335	27920	169041	27255	1056830	45126	110909	0	0	7998	619290	0	0
2024-07-23 17:38:47			0	36079	0	0	0	29337	27920	169053	27133	1056812	45139	110910	0	0	8000	618033	0	0
2024-07-23 17:39:47			0	36079	0	0	0	29340	27930	168929	27097	1056902	45118	110911	0	0	8000	617997	0	0
2024-07-23 17:40:47			0	36062	0	0	0	29332	27930	169057	27144	1056875	45118	110908	0	0	7999	618709	0	0
2024-07-23 17:41:47			0	36074	0	0	0	29322	27930	168945	27178	1056875	45118	110904	0	0	8000	618207	0	0
2024-07-23 17:42:47			0	36065	0	0	0	29324	27930	169049	27189	1056857	45128	110905	0	0	7999	618584	0	0
2024-07-23 17:43:47			0	36037	0	0	0	29283	27920	169153	27135	1056812	45106	110889	0	0	7998	619794	0	0
2024-07-23 17:44:47			0	35992	0	0	0	29285	27920	169313	27150	1056758	45106	110890	0	0	7995	621684	0	0
2024-07-23 17:45:47			0	35958	0	0	0	29298	27910	169337	27183	1056660	45092	110895	0	0	7993	623151	0	0
2024-07-23 17:46:47			0	35953	0	0	0	29303	27910	169393	27222	1056714	45104	110897	0	0	7993	623362	0	0
2024-07-23 17:47:47			0	35978	0	0	0	29314	27920	169337	27277	1056732	45117	110901	0	0	7994	622273	0	0
2024-07-23 17:48:47			0	35978	0	0	0	29316	27920	169333	27161	1056812	45117	110902	0	0	7994	622273	0	0
2024-07-23 17:49:47			0	35998	0	0	0	29322	27910	169437	27152	1056741	45104	110904	0	0	7995	621468	0	0
2024-07-23 17:50:47			0	35978	0	0	0	29311	27910	169317	27602	1056768	45125	110900	0	0	7994	622309	0	0
2024-07-23 17:51:47			0	35981	0	0	0	29301	27920	169277	27111	1056777	45126	110896	0	0	7994	622147	0	0
2024-07-23 17:52:47			0	35984	0	0	0	29309	27910	169325	26984	1056768	45104	110899	0	0	7994	622056	0	0
2024-07-23 17:53:47			0	35968	0	0	0	29298	27910	169337	27033	1056768	45115	110895	0	0	7994	622730	0	0
2024-07-23 17:54:47			0	35961	0	0	0	29311	27920	169417	27400	1056750	45116	110900	0	0	7993	622989	0	0
2024-07-23 17:55:47			0	35967	0	0	0	29309	27910	169361	27291	1056848	45104	110899	0	0	7993	622772	0	0
2024-07-23 17:56:47			0	35986	0	0	0	29319	27920	169425	27267	1056723	45105	110903	0	0	7994	621936	0	0
2024-07-23 17:57:47			0	35981	0	0	0	29319	27910	169333	27485	1056768	45125	110903	0	0	7994	622183	0	0
2024-07-23 17:58:47			0	35995	0	0	0	29319	27920	169325	27334	1056777	45116	110903	0	0	7995	621558	0	0
2024-07-23 17:59:47			0	35981	0	0	0	29309	27920	169305	27502	1056777	45116	110899	0	0	7994	622147	0	0
2024-07-23 18:00:47			0	35980	0	0	0	29316	27920	169437	27301	1056812	45117	110902	0	0	7994	622189	0	0
2024-07-23 18:01:47			0	35972	0	0	0	29316	27920	169337	26963	1056723	45116	110902	0	0	7994	622526	0	0
2024-07-23 18:02:47			0	35964	0	0	0	29322	27920	169345	27189	1056777	45126	110904	0	0	7993	622862	0	0
2024-07-23 18:03:47			0	35966	0	0	0	29316	27920	169425	27003	1056723	45116	110902	0	0	7993	622778	0	0
2024-07-23 18:04:47			0	35961	0	0	0	29324	27920	169533	27102	1056830	45138	110905	0	0	7993	622989	0	0
2024-07-23 18:05:47			0	35966	0	0	0	29319	27920	169341	26967	1056803	45116	110903	0	0	7993	622778	0	0
2024-07-23 18:06:47			0	35979	0	0	0	29314	27920	169473	26812	1056785	45106	110901	0	0	7994	622231	0	0
2024-07-23 18:07:47			0	35972	0	0	0	29314	27920	169445	26927	1056750	45126	110901	0	0	7994	622526	0	0
2024-07-23 18:08:47			0	35957	0	0	0	29316	27910	169473	27355	1056768	45104	110902	0	0	7993	623193	0	0
2024-07-23 18:09:47			0	35948	0	0	0	29311	27920	169497	27183	1056803	45116	110900	0	0	7992	623536	0	0
2024-07-23 18:10:47			0	35963	0	0	0	29309	27910	169457	27242	1056768	45115	110899	0	0	7993	622940	0	0
2024-07-23 18:11:47			0	35952	0	0	0	29309	27920	169481	27126	1056803	45116	110899	0	0	7993	623368	0	0
2024-07-23 18:12:47			0	35952	0	0	0	29306	27910	169441	27237	1056732	45092	110898	0	0	7993	623404	0	0
2024-07-23 18:13:47			0	35975	0	0	0	29306	27920	169537	27227	1056777	45105	110898	0	0	7994	622399	0	0
2024-07-23 18:14:47			0	35967	0	0	0	29311	27910	169529	27069	1056848	45125	110900	0	0	7993	622772	0	0
2024-07-23 18:15:47			0	35944	0	0	0	29314	27920	169493	27301	1056777	45105	110901	0	0	7992	623705	0	0
2024-07-23 18:16:47			0	35945	0	0	0	29309	27920	169497	27206	1056723	45116	110899	0	0	7992	623663	0	0
2024-07-23 18:17:47			0	35964	0	0	0	29303	27920	169493	27267	1056830	45116	110897	0	0	7993	622862	0	0
2024-07-23 18:18:47			0	35955	0	0	0	29309	27920	169549	27331	1056723	45126	110899	0	0	7993	623242	0	0
2024-07-23 18:19:47			0	35947	0	0	0	29296	27910	169537	27395	1056732	45125	110894	0	0	7992	623615	0	0
2024-07-23 18:20:47			0	35942	0	0	0	29303	27920	169613	27114	1056803	45116	110897	0	0	7992	623789	0	0
2024-07-23 18:21:47			0	35930	0	0	0	29293	27910	169581	27104	1056741	45125	110893	0	0	7991	624331	0	0
2024-07-23 18:22:47			0	35946	0	0	0	29306	27910	169673	27123	1056741	45115	110898	0	0	7992	623657	0	0
2024-07-23 18:23:47			0	35939	0	0	0	29301	27910	169561	27258	1056732	45104	110896	0	0	7992	623952	0	0
2024-07-23 18:24:47			0	35937	0	0	0	29290	27910	169629	26918	1056759	45115	110892	0	0	7992	624036	0	0
2024-07-23 18:25:47			0	35935	0	0	0	29301	27910	169569	27204	1056705	45125	110896	0	0	7992	624120	0	0
2024-07-23 18:26:47			0	35946	0	0	0	29301	27910	169581	27284	1056741	45115	110896	0	0	7992	623657	0	0
2024-07-23 18:27:47			0	35943	0	0	0	29309	27910	169649	27306	1056768	45115	110899	0	0	7992	623783	0	0
2024-07-23 18:28:47			0	35941	0	0	0	29311	27920	169569	27374	1056750	45126	110900	0	0	7992	623832	0	0
2024-07-23 18:29:47			0	35946	0	0	0	29296	27900	169529	27020	1056750	45125	110894	0	0	7992	623693	0	0
2024-07-23 18:30:47			0	35956	0	0	0	29298	27910	169637	27144	1056687	45115	110895	0	0	7993	623235	0	0
2024-07-23 18:31:47			0	35939	0	0	0	29293	27900	169577	27246	1056687	45103	110893	0	0	7992	623988	0	0
2024-07-23 18:32:47			0	35952	0	0	0	29303	27900	169465	27027	1056723	45125	110897	0	0	7993	623440	0	0
2024-07-23 18:33:47			0	35946	0	0	0	29293	27910	169581	27192	1056768	45115	110893	0	0	7992	623657	0	0
2024-07-23 18:34:47			0	35965	0	0	0	29303	27900	169565	26991	1056741	45125	110897	0	0	7993	622892	0	0
2024-07-23 18:35:47			0	35943	0	0	0	29296	27900	169601	27379	1056750	45115	110894	0	0	7992	623819	0	0
2024-07-23 18:36:47			0	35945	0	0	0	29290	27910	169537	27114	1056714	45125	110892	0	0	7992	623699	0	0
2024-07-23 18:37:47			0	35975	0	0	0	29298	27900	169577	27339	1056714	45114	110895	0	0	7994	622471	0	0
2024-07-23 18:38:47			0	35928	0	0	0	29285	27900	169597	27305	1056714	45114	110890	0	0	7991	624452	0	0
2024-07-23 18:39:47			0	35953	0	0	0	29277	27900	169605	27242	1056687	45114	110887	0	0	7993	623398	0	0
2024-07-23 18:40:47			0	35937	0	0	0	29283	27900	169629	27332	1056687	45114	110889	0	0	7992	624072	0	0
2024-07-23 18:41:47			0	35938	0	0	0	29280	27900	169665	27126	1056723	45125	110888	0	0	7992	624030	0	0
2024-07-23 18:42:47			0	35929	0	0	0	29264	27890	169661	26878	1056705	45113	110882	0	0	7992	624446	0	0
2024-07-23 18:43:47			0	35948	0	0	0	29264	27900	169677	27209	1056642	45125	110882	0	0	7993	623608	0	0
2024-07-23 18:44:47			0	35939	0	0	0	29267	27900	169669	27145	1056633	45103	110883	0	0	7992	623988	0	0
2024-07-23 18:45:47			0	35930	0	0	0	29270	27900	169725	27164	1056660	45125	110884	0	0	7992	624367	0	0
2024-07-23 18:46:47			0	35918	0	0	0	29262	27890	169821	27045	1056624	45113	110881	0	0	7991	624910	0	0
2024-07-23 18:47:47			0	35921	0	0	0	29277	27880	169765	27187	1056606	45102	110887	0	0	7991	624819	0	0
2024-07-23 18:48:47			0	35922	0	0	0	29272	27890	169841	27353	1056615	45102	110885	0	0	7991	624741	0	0
2024-07-23 18:49:47			0	35923	0	0	0	29257	27880	169717	27123	1056633	45113	110879	0	0	7992	624735	0	0
2024-07-23 18:50:47			0	35915	0	0	0	29251	27890	169857	27053	1056570	45102	110877	0	0	7991	625036	0	0
2024-07-23 18:51:47			0	35904	0	0	0	29270	27880	169909	27060	1056597	45112	110884	0	0	7990	625537	0	0
2024-07-23 18:52:47			0	35904	0	0	0	29259	27880	169853	27345	1056570	45101	110880	0	0	7990	625537	0	0
2024-07-23 18:53:47			0	35899	0	0	0	29220	27890	169801	27218	1056508	45113	110865	0	0	7991	625712	0	0
2024-07-23 18:54:47			0	35874	0	0	0	29215	27870	169985	26866	1056508	45111	110863	0	0	7989	626841	0	0
2024-07-23 18:55:47			0	35878	0	0	0	29207	27870	170077	27092	1056445	45100	110860	0	0	7990	626672	0	0
2024-07-23 18:56:47			0	35865	0	0	0	29215	27860	170201	27050	1056409	45111	110863	0	0	7989	627258	0	0
2024-07-23 18:57:47			0	35852	0	0	0	29220	27860	170189	27248	1056427	45099	110865	0	0	7988	627809	0	0
2024-07-23 18:58:47			0	35860	0	0	0	29181	27850	170165	27109	1056418	45109	110850	0	0	7989	627506	0	0
2024-07-23 18:59:47			0	35831	0	0	0	29176	27850	170248	27261	1056275	45097	110848	0	0	7987	628735	0	0
2024-07-23 19:00:47			0	35815	0	0	0	29168	27840	170292	27092	1056284	45097	110845	0	0	7986	629450	0	0
2024-07-23 19:01:47			0	35811	0	0	0	29148	27830	170288	27293	1056239	45073	110837	0	0	7986	629656	0	0
2024-07-23 19:02:47			0	35797	0	0	0	29158	27820	170324	27215	1056177	45106	110841	0	0	7985	630287	0	0
2024-07-23 19:03:47			0	35801	0	0	0	29109	27810	170428	27045	1056078	45105	110822	0	0	7986	630153	0	0
2024-07-23 19:04:47			0	35778	0	0	0	29124	27800	170544	27339	1056060	45082	110828	0	0	7985	631167	0	0
2024-07-23 19:05:47			0	35763	0	0	0	29088	27790	170572	27215	1055971	45082	110814	0	0	7984	631841	0	0
2024-07-23 19:06:47			0	35740	0	0	0	29077	27780	170688	27104	1055926	45091	110810	0	0	7983	632857	0	0
2024-07-23 19:07:47			0	35726	0	0	0	29077	27770	170744	27062	1055899	45090	110810	0	0	7982	633490	0	0
2024-07-23 19:08:47			0	35714	0	0	0	29090	27760	170952	27090	1055836	45100	110815	0	0	7981	634039	0	0
2024-07-23 19:09:47			0	35710	0	0	0	29106	27740	170912	27237	1055882	45077	110821	0	0	7980	634283	0	0
2024-07-23 19:10:47			0	35702	0	0	0	29127	27750	170988	27415	1055944	45111	110829	0	0	7980	634587	0	0
2024-07-23 19:11:47			0	35713	0	0	0	29135	27750	170956	27272	1055917	45111	110832	0	0	7980	634118	0	0
2024-07-23 19:12:47			0	35734	0	0	0	29096	27750	170832	27173	1055917	45111	110817	0	0	7982	633222	0	0
2024-07-23 19:13:47			0	35724	0	0	0	29096	27750	171004	27118	1055810	45088	110817	0	0	7981	633649	0	0
2024-07-23 19:14:47			0	35712	0	0	0	29111	27740	170960	27435	1055819	45098	110823	0	0	7980	634197	0	0
2024-07-23 19:15:47			0	35712	0	0	0	29140	27740	171068	27289	1055792	45109	110834	0	0	7980	634197	0	0
2024-07-23 19:16:47			0	35718	0	0	0	29142	27740	170944	27072	1055873	45109	110835	0	0	7980	633941	0	0
2024-07-23 19:17:47			0	35713	0	0	0	29101	27740	170928	27239	1055792	45098	110819	0	0	7981	634154	0	0
2024-07-23 19:18:47			0	35712	0	0	0	29101	27730	170980	27244	1055774	45086	110819	0	0	7981	634234	0	0
2024-07-23 19:19:47			0	35702	0	0	0	29101	27730	170972	27313	1055828	45098	110819	0	0	7980	634661	0	0
2024-07-23 19:20:47			0	35701	0	0	0	29101	27730	171056	27244	1055774	45098	110819	0	0	7980	634703	0	0
2024-07-23 19:21:47			0	35699	0	0	0	29090	27730	171024	27268	1055747	45109	110815	0	0	7980	634788	0	0
2024-07-23 19:22:47			0	35687	0	0	0	29111	27720	171172	27029	1055703	45096	110823	0	0	7979	635338	0	0
2024-07-23 19:23:47			0	35679	0	0	0	29106	27710	171148	27317	1055721	45096	110821	0	0	7978	635716	0	0
2024-07-23 19:24:47			0	35687	0	0	0	29085	27710	171168	27246	1055694	45096	110813	0	0	7979	635374	0	0
2024-07-23 19:25:47			0	35663	0	0	0	29070	27700	171284	27126	1055676	45095	110807	0	0	7978	636437	0	0
2024-07-23 19:26:47			0	35647	0	0	0	29028	27700	171328	27334	1055676	45106	110791	0	0	7978	637122	0	0
2024-07-23 19:27:47			0	35628	0	0	0	29031	27700	171412	27300	1055568	45095	110792	0	0	7976	637936	0	0
2024-07-23 19:28:47			0	35606	0	0	0	29041	27690	171416	27294	1055604	45071	110796	0	0	7975	638916	0	0
2024-07-23 19:29:47			0	35614	0	0	0	29046	27680	171528	26979	1055533	45093	110798	0	0	7975	638610	0	0
2024-07-23 19:30:47			0	35615	0	0	0	29049	27680	171532	27333	1055560	45093	110799	0	0	7975	638567	0	0
2024-07-23 19:31:47			0	35607	0	0	0	29051	27670	171608	27414	1055506	45102	110800	0	0	7975	638947	0	0
2024-07-23 19:32:47			0	35604	0	0	0	29062	27680	171552	27308	1055560	45104	110804	0	0	7974	639039	0	0
2024-07-23 19:33:47			0	35616	0	0	0	29057	27680	171512	26955	1055560	45104	110802	0	0	7975	638524	0	0
2024-07-23 19:34:47			0	35621	0	0	0	29064	27670	171652	27055	1055542	45114	110805	0	0	7975	638346	0	0
2024-07-23 19:35:47			0	35626	0	0	0	29036	27670	171528	27448	1055542	45114	110794	0	0	7976	638132	0	0
2024-07-23 19:36:47			0	35605	0	0	0	29015	27670	171540	27057	1055542	45091	110786	0	0	7975	639033	0	0
2024-07-23 19:37:47			0	35593	0	0	0	29007	27660	171580	27152	1055390	45091	110783	0	0	7975	639585	0	0
2024-07-23 19:38:47			0	35603	0	0	0	29020	27670	171660	27178	1055399	45080	110788	0	0	7975	639118	0	0
2024-07-23 19:39:47			0	35587	0	0	0	29010	27650	171648	27109	1055399	45089	110784	0	0	7974	639879	0	0
2024-07-23 19:40:47			0	35593	0	0	0	28989	27660	171700	26887	1055408	45090	110776	0	0	7975	639585	0	0
2024-07-23 19:41:47			0	35582	0	0	0	29020	27630	171680	27274	1055309	45098	110788	0	0	7973	640167	0	0
2024-07-23 19:42:47			0	35589	0	0	0	29015	27650	171580	26850	1055390	45100	110786	0	0	7974	639793	0	0
2024-07-23 19:43:47			0	35600	0	0	0	29023	27650	171688	27199	1055372	45100	110789	0	0	7975	639321	0	0
2024-07-23 19:44:47			0	35581	0	0	0	29038	27650	171660	27346	1055309	45089	110795	0	0	7973	640137	0	0
2024-07-23 19:45:47			0	35592	0	0	0	29036	27640	171680	27175	1055345	45088	110794	0	0	7974	639701	0	0
2024-07-23 19:46:47			0	35596	0	0	0	29038	27640	171664	27213	1055425	45111	110795	0	0	7974	639529	0	0
2024-07-23 19:47:47			0	35596	0	0	0	29044	27640	171700	27355	1055381	45111	110797	0	0	7974	639529	0	0
2024-07-23 19:48:47			0	35609	0	0	0	29038	27650	171652	27100	1055363	45089	110795	0	0	7975	638934	0	0
2024-07-23 19:49:47			0	35612	0	0	0	29028	27640	171540	27166	1055398	45099	110791	0	0	7975	638842	0	0
2024-07-23 19:50:47			0	35626	0	0	0	29018	27640	171556	27229	1055318	45099	110787	0	0	7976	638242	0	0
2024-07-23 19:51:47			0	35591	0	0	0	29025	27640	171596	27121	1055381	45099	110790	0	0	7974	639744	0	0
2024-07-23 19:52:47			0	35592	0	0	0	29002	27620	171660	26951	1055345	45109	110781	0	0	7974	639775	0	0
2024-07-23 19:53:47			0	35580	0	0	0	28966	27630	171700	27027	1055282	45087	110767	0	0	7974	640253	0	0
2024-07-23 19:54:47			0	35564	0	0	0	28961	27620	171808	27124	1055183	45097	110765	0	0	7973	640978	0	0
2024-07-23 19:55:47			0	35548	0	0	0	28958	27610	171876	27345	1055139	45085	110764	0	0	7972	641704	0	0
2024-07-23 19:56:47			0	35551	0	0	0	28968	27610	171964	27038	1055157	45084	110768	0	0	7972	641574	0	0
2024-07-23 19:57:47			0	35549	0	0	0	28961	27600	171912	27031	1055094	45074	110765	0	0	7972	641697	0	0
2024-07-23 19:58:47			0	35527	0	0	0	28961	27600	171920	27098	1055067	45095	110765	0	0	7971	642645	0	0
2024-07-23 19:59:47			0	35528	0	0	0	28953	27590	171960	26826	1055076	45083	110762	0	0	7971	642639	0	0
2024-07-23 20:00:47			0	35531	0	0	0	28961	27580	172052	27053	1055050	45092	110765	0	0	7971	642547	0	0
2024-07-23 20:01:47			0	35527	0	0	0	28963	27580	172148	26977	1055139	45105	110766	0	0	7971	642719	0	0
2024-07-23 20:02:47			0	35522	0	0	0	28953	27590	171984	27104	1055068	45083	110762	0	0	7971	642897	0	0
2024-07-23 20:03:47			0	35536	0	0	0	28963	27590	172216	27062	1055041	45083	110766	0	0	7971	642294	0	0
2024-07-23 20:04:47			0	35511	0	0	0	28961	27590	172084	27147	1055041	45093	110765	0	0	7970	643372	0	0
2024-07-23 20:05:47			0	35512	0	0	0	28961	27580	172220	27237	1055050	45082	110765	0	0	7970	643366	0	0
2024-07-23 20:06:47			0	35497	0	0	0	28953	27570	172256	27241	1055041	45092	110762	0	0	7969	644050	0	0
2024-07-23 20:07:47			0	35498	0	0	0	28948	27580	172240	27211	1055023	45092	110760	0	0	7969	643970	0	0
2024-07-23 20:08:47			0	35498	0	0	0	28955	27570	172288	27112	1055005	45103	110763	0	0	7969	644007	0	0
2024-07-23 20:09:47			0	35497	0	0	0	28948	27570	172188	27209	1055032	45081	110760	0	0	7969	644050	0	0
2024-07-23 20:10:47			0	35487	0	0	0	28945	27560	172220	27066	1055050	45091	110759	0	0	7969	644519	0	0
2024-07-23 20:11:47			0	35507	0	0	0	28948	27560	172188	27069	1054996	45091	110760	0	0	7970	643655	0	0
2024-07-23 20:12:47			0	35517	0	0	0	28953	27560	172156	27131	1054987	45090	110762	0	0	7970	643224	0	0
2024-07-23 20:13:47			0	35516	0	0	0	28948	27560	172172	27005	1054996	45114	110760	0	0	7970	643267	0	0
2024-07-23 20:14:47			0	35504	0	0	0	28945	27560	172108	27072	1054996	45091	110759	0	0	7970	643785	0	0
2024-07-23 20:15:47			0	35509	0	0	0	28940	27560	172040	27244	1054907	45090	110757	0	0	7970	643569	0	0
2024-07-23 20:16:47			0	35483	0	0	0	28945	27570	172292	27163	1055005	45114	110759	0	0	7968	644654	0	0
2024-07-23 20:17:47			0	35481	0	0	0	28953	27560	172228	27171	1054934	45090	110762	0	0	7968	644778	0	0
2024-07-23 20:18:47			0	35492	0	0	0	28937	27570	172220	27407	1055005	45091	110756	0	0	7969	644266	0	0
2024-07-23 20:19:47			0	35484	0	0	0	28945	27560	172140	26953	1054907	45090	110759	0	0	7968	644648	0	0
2024-07-23 20:20:47			0	35485	0	0	0	28942	27560	172180	27168	1054960	45090	110758	0	0	7968	644605	0	0
2024-07-23 20:21:47			0	35508	0	0	0	28945	27560	172196	27228	1054934	45090	110759	0	0	7970	643612	0	0
2024-07-23 20:22:47			0	35501	0	0	0	28945	27550	172132	26975	1054925	45102	110759	0	0	7969	643951	0	0
2024-07-23 20:23:47			0	35475	0	0	0	28940	27550	172192	27098	1054916	45089	110757	0	0	7968	645074	0	0
2024-07-23 20:24:47			0	35482	0	0	0	28935	27560	172304	27105	1054934	45090	110755	0	0	7968	644735	0	0
2024-07-23 20:25:47			0	35460	0	0	0	28953	27550	172320	26871	1054835	45101	110762	0	0	7967	645723	0	0
2024-07-23 20:26:47			0	35476	0	0	0	28942	27540	172408	26746	1054907	45089	110758	0	0	7968	645068	0	0
2024-07-23 20:27:47			0	35449	0	0	0	28940	27550	172468	27010	1054952	45080	110757	0	0	7966	646198	0	0
2024-07-23 20:28:47			0	35445	0	0	0	28937	27550	172452	26861	1054916	45101	110756	0	0	7966	646372	0	0
2024-07-23 20:29:47			0	35446	0	0	0	28948	27550	172464	27000	1054916	45101	110760	0	0	7966	646328	0	0
2024-07-23 20:30:47			0	35436	0	0	0	28950	27550	172560	27137	1054862	45101	110761	0	0	7965	646761	0	0
2024-07-23 20:31:47			0	35412	0	0	0	28945	27550	172620	26928	1054898	45102	110759	0	0	7964	647801	0	0
2024-07-23 20:32:47			0	35426	0	0	0	28948	27550	172628	27090	1054925	45090	110760	0	0	7965	647194	0	0
2024-07-23 20:33:47			0	35421	0	0	0	28955	27540	172560	27005	1054934	45089	110763	0	0	7964	647448	0	0
2024-07-23 20:34:47			0	35444	0	0	0	28948	27560	172528	26804	1054960	45090	110760	0	0	7966	646378	0	0
2024-07-23 20:35:47			0	35455	0	0	0	28950	27540	172372	27045	1054907	45089	110761	0	0	7966	645976	0	0
2024-07-23 20:36:47			0	35428	0	0	0	28942	27550	172476	27045	1054889	45101	110758	0	0	7965	647108	0	0
2024-07-23 20:37:47			0	35453	0	0	0	28942	27550	172376	27003	1054943	45079	110758	0	0	7966	646026	0	0
2024-07-23 20:38:47			0	35436	0	0	0	28948	27550	172472	26989	1054943	45101	110760	0	0	7965	646761	0	0
2024-07-23 20:39:47			0	35425	0	0	0	28945	27540	172568	27027	1054853	45089	110759	0	0	7965	647275	0	0
2024-07-23 20:40:47			0	35416	0	0	0	28940	27540	172760	26967	1054880	45089	110757	0	0	7964	647665	0	0
2024-07-23 20:41:47			0	35419	0	0	0	28940	27550	172664	27053	1054889	45089	110757	0	0	7964	647498	0	0
2024-07-23 20:42:47			0	35405	0	0	0	28945	27550	172704	26991	1054889	45101	110759	0	0	7963	648105	0	0
2024-07-23 20:43:47			0	35401	0	0	0	28948	27550	172820	26679	1054952	45090	110760	0	0	7963	648278	0	0
2024-07-23 20:44:47			0	35397	0	0	0	28929	27550	172732	26795	1054862	45089	110753	0	0	7963	648452	0	0
2024-07-23 20:45:47			0	35397	0	0	0	28927	27550	172696	27180	1054943	45079	110752	0	0	7963	648452	0	0
2024-07-23 20:46:47			0	35422	0	0	0	28919	27540	172616	27152	1054925	45089	110749	0	0	7965	647405	0	0
2024-07-23 20:47:47			0	35413	0	0	0	28927	27550	172656	27059	1054862	45089	110752	0	0	7964	647758	0	0
2024-07-23 20:48:47			0	35401	0	0	0	28919	27540	172692	27029	1054826	45089	110749	0	0	7964	648315	0	0
2024-07-23 20:49:47			0	35410	0	0	0	28935	27540	172612	26944	1054898	45089	110755	0	0	7964	647925	0	0
2024-07-23 20:50:47			0	35422	0	0	0	28950	27540	172628	27029	1054853	45089	110761	0	0	7964	647405	0	0
2024-07-23 20:51:47			0	35442	0	0	0	28948	27540	172568	27215	1054898	45089	110760	0	0	7966	646539	0	0
2024-07-23 20:52:47			0	35420	0	0	0	28940	27540	172592	26996	1054907	45101	110757	0	0	7964	647492	0	0
2024-07-23 20:53:47			0	35415	0	0	0	28950	27550	172544	27081	1054996	45101	110761	0	0	7964	647671	0	0
2024-07-23 20:54:47			0	35425	0	0	0	28945	27540	172496	27154	1054880	45101	110759	0	0	7965	647275	0	0
2024-07-23 20:55:47			0	35440	0	0	0	28942	27540	172452	27093	1054934	45101	110758	0	0	7966	646625	0	0
2024-07-23 20:56:47			0	35460	0	0	0	28948	27540	172412	27227	1054934	45079	110760	0	0	7967	645760	0	0
2024-07-23 20:57:47			0	35472	0	0	0	28953	27550	172312	27105	1054862	45101	110762	0	0	7967	645204	0	0
2024-07-23 20:58:47			0	35469	0	0	0	28945	27540	172244	27215	1054907	45101	110759	0	0	7967	645371	0	0
2024-07-23 20:59:47			0	35487	0	0	0	28932	27550	172248	27154	1054943	45101	110754	0	0	7969	644556	0	0
2024-07-23 21:00:47			0	35465	0	0	0	28929	27550	172280	26928	1054970	45089	110753	0	0	7967	645506	0	0
2024-07-23 21:01:47			0	35462	0	0	0	28919	27550	172364	27289	1054916	45089	110749	0	0	7967	645636	0	0
2024-07-23 21:02:47			0	35447	0	0	0	28914	27550	172440	27074	1054862	45079	110747	0	0	7967	646285	0	0
2024-07-23 21:03:47			0	35399	0	0	0	28896	27540	172656	27294	1054844	45078	110740	0	0	7964	648402	0	0
2024-07-23 21:04:47			0	35368	0	0	0	28890	27540	172800	27294	1054817	45089	110738	0	0	7962	649748	0	0
2024-07-23 21:05:47			0	35352	0	0	0	28880	27530	172848	27242	1054781	45078	110734	0	0	7961	650481	0	0
2024-07-23 21:06:47			0	35317	0	0	0	28888	27530	173000	27027	1054745	45099	110737	0	0	7959	652004	0	0
2024-07-23 21:07:47			0	35301	0	0	0	28885	27530	173184	27201	1054719	45088	110736	0	0	7958	652701	0	0
2024-07-23 21:08:47			0	35258	0	0	0	28883	27500	173296	26944	1054656	45086	110735	0	0	7955	654691	0	0
2024-07-23 21:09:47			0	35214	0	0	0	28883	27520	173648	27038	1054710	45087	110735	0	0	7952	656539	0	0
2024-07-23 21:10:47			0	35181	0	0	0	28883	27510	173800	26989	1054674	45098	110735	0	0	7950	658023	0	0
2024-07-23 21:11:47			0	35172	0	0	0	28880	27500	173712	26928	1054683	45064	110734	0	0	7950	658456	0	0
2024-07-23 21:12:47			0	35125	0	0	0	28875	27500	173904	27287	1054728	45074	110732	0	0	7947	660521	0	0
2024-07-23 21:13:47			0	35100	0	0	0	28880	27510	174203	27008	1054665	45086	110734	0	0	7945	661583	0	0
2024-07-23 21:14:47			0	35048	0	0	0	28880	27500	174471	26961	1054683	45086	110734	0	0	7942	663914	0	0
2024-07-23 21:15:47			0	35003	0	0	0	28890	27490	174659	27279	1054683	45084	110738	0	0	7939	665941	0	0
2024-07-23 21:16:47			0	34987	0	0	0	28880	27490	174767	26902	1054611	45096	110734	0	0	7938	666649	0	0
2024-07-23 21:17:47			0	34972	0	0	0	28867	27490	174667	27104	1054638	45085	110729	0	0	7937	667314	0	0
2024-07-23 21:18:47			0	34970	0	0	0	28875	27490	174759	26934	1054692	45085	110732	0	0	7937	667402	0	0
2024-07-23 21:19:47			0	34971	0	0	0	28875	27490	174839	26793	1054665	45085	110732	0	0	7937	667358	0	0
2024-07-23 21:20:47			0	34966	0	0	0	28885	27490	174855	26852	1054611	45085	110736	0	0	7937	667580	0	0
2024-07-23 21:21:47			0	34967	0	0	0	28885	27490	174959	26944	1054638	45085	110736	0	0	7937	667536	0	0
2024-07-23 21:22:47			0	34947	0	0	0	28890	27490	174979	26861	1054656	45095	110738	0	0	7935	668423	0	0
2024-07-23 21:23:47			0	34955	0	0	0	28885	27500	174771	26944	1054701	45085	110736	0	0	7936	668029	0	0
2024-07-23 21:24:47			0	34977	0	0	0	28883	27480	174755	27152	1054621	45084	110735	0	0	7937	667131	0	0
2024-07-23 21:25:47			0	34976	0	0	0	28870	27490	174659	27277	1054638	45085	110730	0	0	7938	667137	0	0
2024-07-23 21:26:47			0	34984	0	0	0	28870	27480	174715	27124	1054621	45095	110730	0	0	7938	666820	0	0
2024-07-23 21:27:47			0	34963	0	0	0	28870	27500	174743	27159	1054647	45074	110730	0	0	7937	667674	0	0
2024-07-23 21:28:47			0	34955	0	0	0	28872	27490	174923	26977	1054656	45084	110731	0	0	7936	668068	0	0
2024-07-23 21:29:47			0	34943	0	0	0	28875	27490	174919	26963	1054656	45095	110732	0	0	7935	668600	0	0
2024-07-23 21:30:47			0	34949	0	0	0	28875	27480	174855	27286	1054648	45084	110732	0	0	7936	668372	0	0
2024-07-23 21:31:47			0	34950	0	0	0	28859	27480	174851	27300	1054621	45095	110726	0	0	7936	668328	0	0
2024-07-23 21:32:47			0	34955	0	0	0	28859	27480	174795	27196	1054612	45083	110726	0	0	7936	668106	0	0
2024-07-23 21:33:47			0	34955	0	0	0	28875	27470	174823	27225	1054540	45104	110732	0	0	7936	668144	0	0
2024-07-23 21:34:47			0	34946	0	0	0	28898	27480	174887	27131	1054594	45084	110741	0	0	7935	668505	0	0
2024-07-23 21:35:47			0	34968	0	0	0	28893	27490	174819	27429	1054656	45118	110739	0	0	7937	667491	0	0
2024-07-23 21:36:47			0	35008	0	0	0	28911	27490	174547	27020	1054630	45084	110746	0	0	7939	665720	0	0
2024-07-23 21:37:47			0	35027	0	0	0	28927	27490	174615	27306	1054719	45096	110752	0	0	7940	664880	0	0
2024-07-23 21:38:47			0	35045	0	0	0	28948	27480	174443	26960	1054755	45118	110760	0	0	7941	664123	0	0
2024-07-23 21:39:47			0	35063	0	0	0	28955	27500	174279	27338	1054791	45097	110763	0	0	7942	663252	0	0
2024-07-23 21:40:47			0	35083	0	0	0	28937	27500	174211	27170	1054844	45086	110756	0	0	7943	662370	0	0
2024-07-23 21:41:47			0	35117	0	0	0	28927	27510	174004	27112	1054800	45108	110752	0	0	7946	660835	0	0
2024-07-23 21:42:47			0	35137	0	0	0	28924	27510	173872	27121	1054826	45108	110751	0	0	7947	659955	0	0
2024-07-23 21:43:47			0	35158	0	0	0	28929	27500	173760	27034	1054818	45097	110753	0	0	7948	659071	0	0
2024-07-23 21:44:47			0	35171	0	0	0	28945	27510	173712	26882	1054835	45098	110759	0	0	7949	658462	0	0
2024-07-23 21:45:47			0	35200	0	0	0	28937	27520	173620	27192	1054871	45087	110756	0	0	7951	657153	0	0
2024-07-23 21:46:47			0	35219	0	0	0	28955	27510	173544	27046	1054916	45098	110763	0	0	7951	656358	0	0
2024-07-23 21:47:47			0	35240	0	0	0	28958	27510	173376	26908	1054835	45098	110764	0	0	7953	655440	0	0
2024-07-23 21:48:47			0	35258	0	0	0	28953	27510	173528	26935	1054889	45109	110762	0	0	7954	654653	0	0
2024-07-23 21:49:47			0	35252	0	0	0	28942	27520	173320	26852	1054898	45121	110758	0	0	7954	654877	0	0
2024-07-23 21:50:47			0	35290	0	0	0	28940	27540	173348	27161	1054898	45089	110757	0	0	7956	653143	0	0
2024-07-23 21:51:47			0	35283	0	0	0	28942	27530	173180	27083	1054880	45099	110758	0	0	7956	653486	0	0
2024-07-23 21:52:47			0	35306	0	0	0	28937	27530	173096	26977	1054862	45089	110756	0	0	7957	652483	0	0
2024-07-23 21:53:47			0	35328	0	0	0	28937	27530	173004	27308	1054889	45100	110756	0	0	7959	651525	0	0
2024-07-23 21:54:47			0	35357	0	0	0	28932	27530	172820	27341	1054907	45099	110754	0	0	7961	650263	0	0
2024-07-23 21:55:47			0	35370	0	0	0	28924	27530	172720	27157	1054907	45077	110751	0	0	7961	649698	0	0
2024-07-23 21:56:47			0	35396	0	0	0	28929	27530	172616	27462	1054862	45078	110753	0	0	7963	648570	0	0
2024-07-23 21:57:47			0	35388	0	0	0	28932	27540	172628	27336	1054925	45089	110754	0	0	7963	648879	0	0
2024-07-23 21:58:47			0	35416	0	0	0	28935	27530	172524	26989	1054862	45111	110755	0	0	7964	647702	0	0
2024-07-23 21:59:47			0	35431	0	0	0	28935	27540	172428	27220	1054844	45111	110755	0	0	7965	647015	0	0
2024-07-23 22:00:47			0	35430	0	0	0	28924	27530	172352	27260	1054808	45111	110751	0	0	7965	647096	0	0
2024-07-23 22:01:47			0	35446	0	0	0	28914	27530	172396	27383	1054835	45089	110747	0	0	7966	646403	0	0
2024-07-23 22:02:47			0	35453	0	0	0	28916	27530	172296	26837	1054835	45100	110748	0	0	7967	646100	0	0
2024-07-23 22:03:47			0	35476	0	0	0	28914	27520	172380	27017	1054737	45098	110747	0	0	7968	645142	0	0
2024-07-23 22:04:47			0	35491	0	0	0	28916	27530	172348	26882	1054862	45089	110748	0	0	7969	644457	0	0
2024-07-23 22:05:47			0	35504	0	0	0	28919	27530	172248	26963	1054781	45089	110749	0	0	7970	643896	0	0
2024-07-23 22:06:47			0	35498	0	0	0	28916	27520	172224	27187	1054737	45087	110748	0	0	7969	644192	0	0
2024-07-23 22:07:47			0	35510	0	0	0	28914	27510	172296	27000	1054781	45109	110747	0	0	7970	643711	0	0
2024-07-23 22:08:47			0	35504	0	0	0	28922	27510	172220	27402	1054862	45098	110750	0	0	7970	643970	0	0
2024-07-23 22:09:47			0	35493	0	0	0	28932	27510	172332	27097	1054835	45098	110754	0	0	7969	644445	0	0
2024-07-23 22:10:47			0	35457	0	0	0	28945	27530	172356	27085	1054880	45099	110759	0	0	7967	645927	0	0
2024-07-23 22:11:47			0	35450	0	0	0	28945	27530	172532	27244	1054907	45088	110759	0	0	7966	646230	0	0
2024-07-23 22:12:47			0	35462	0	0	0	28937	27530	172608	26953	1054907	45099	110756	0	0	7967	645710	0	0
2024-07-23 22:13:47			0	35452	0	0	0	28945	27530	172364	27293	1054853	45110	110759	0	0	7966	646143	0	0
2024-07-23 22:14:47			0	35460	0	0	0	28953	27530	172540	27274	1054880	45099	110762	0	0	7967	645797	0	0
2024-07-23 22:15:47			0	35478	0	0	0	28955	27540	172384	27251	1054952	45100	110763	0	0	7968	644982	0	0
2024-07-23 22:16:47			0	35507	0	0	0	28958	27540	172276	27260	1054979	45111	110764	0	0	7969	643729	0	0
2024-07-23 22:17:47			0	35517	0	0	0	28953	27540	172164	27043	1055015	45112	110762	0	0	7970	643298	0	0
2024-07-23 22:18:47			0	35533	0	0	0	28942	27540	172084	26930	1054979	45111	110758	0	0	7971	642608	0	0
2024-07-23 22:19:47			0	35546	0	0	0	28953	27540	171920	27085	1054988	45101	110762	0	0	7972	642048	0	0
2024-07-23 22:20:47			0	35580	0	0	0	28945	27540	171876	27258	1054979	45111	110759	0	0	7974	640585	0	0
2024-07-23 22:21:47			0	35619	0	0	0	28940	27540	171724	26809	1054952	45100	110757	0	0	7977	638910	0	0
2024-07-23 22:22:47			0	35636	0	0	0	28940	27540	171548	26920	1054988	45101	110757	0	0	7978	638180	0	0
2024-07-23 22:23:47			0	35645	0	0	0	28940	27540	171356	27183	1054871	45100	110757	0	0	7978	637795	0	0
2024-07-23 22:24:47			0	35662	0	0	0	28935	27540	171396	27071	1054952	45111	110755	0	0	7979	637066	0	0
2024-07-23 22:25:47			0	35710	0	0	0	28945	27540	171224	27346	1054979	45100	110759	0	0	7982	635013	0	0
2024-07-23 22:26:47			0	35746	0	0	0	28929	27540	171072	27211	1054961	45079	110753	0	0	7985	633476	0	0
2024-07-23 22:27:47			0	35775	0	0	0	28929	27550	170836	27166	1054916	45101	110753	0	0	7986	632204	0	0
2024-07-23 22:28:47			0	35798	0	0	0	28929	27530	170720	27166	1054916	45100	110753	0	0	7988	631297	0	0
2024-07-23 22:29:47			0	35804	0	0	0	28929	27540	170616	26984	1054907	45089	110753	0	0	7988	631006	0	0
2024-07-23 22:30:47			0	35836	0	0	0	28916	27540	170648	27133	1054898	45100	110748	0	0	7990	629646	0	0
2024-07-23 22:31:47			0	35852	0	0	0	28927	27530	170524	27173	1054907	45088	110752	0	0	7991	629003	0	0
2024-07-23 22:32:47			0	35861	0	0	0	28932	27540	170625	27001	1054898	45100	110754	0	0	7992	628585	0	0
2024-07-23 22:33:47			0	35847	0	0	0	28916	27530	170536	27083	1054916	45089	110748	0	0	7991	629215	0	0
2024-07-23 22:34:47			0	35858	0	0	0	28888	27530	170397	27327	1054799	45077	110737	0	0	7992	628748	0	0
2024-07-23 22:35:47			0	35876	0	0	0	28877	27530	170397	27163	1054808	45067	110733	0	0	7993	627985	0	0
2024-07-23 22:36:47			0	35899	0	0	0	28896	27510	170337	27064	1054755	45087	110740	0	0	7994	627083	0	0
2024-07-23 22:37:47			0	35892	0	0	0	28872	27530	170337	27371	1054853	45088	110731	0	0	7994	627307	0	0
2024-07-23 22:38:47			0	35894	0	0	0	28851	27500	170297	26987	1054683	45086	110723	0	0	7995	627331	0	0
2024-07-23 22:39:47			0	35898	0	0	0	28857	27510	170241	27041	1054746	45097	110725	0	0	7995	627125	0	0
2024-07-23 22:40:47			0	35918	0	0	0	28854	27510	170245	27147	1054755	45098	110724	0	0	7996	626279	0	0
2024-07-23 22:41:47			0	35906	0	0	0	28885	27510	170253	27341	1054746	45097	110736	0	0	7995	626787	0	0
2024-07-23 22:42:47			0	35903	0	0	0	28831	27500	170337	27209	1054764	45086	110715	0	0	7996	626950	0	0
2024-07-23 22:43:47			0	35905	0	0	0	28779	27490	170305	27012	1054665	45085	110695	0	0	7997	626901	0	0
2024-07-23 22:44:47			0	35898	0	0	0	28849	27490	170333	27123	1054576	45095	110722	0	0	7995	627197	0	0
2024-07-23 22:45:47			0	35883	0	0	0	28815	27490	170333	26906	1054611	45096	110709	0	0	7995	627833	0	0
2024-07-23 22:46:47			0	35885	0	0	0	28781	27480	170397	27072	1054540	45084	110696	0	0	7995	627784	0	0
2024-07-23 22:47:47			0	35889	0	0	0	28789	27480	170381	27031	1054585	45072	110699	0	0	7995	627615	0	0
2024-07-23 22:48:47			0	35873	0	0	0	28805	27470	170409	26998	1054495	45083	110705	0	0	7994	628329	0	0
2024-07-23 22:49:47			0	35873	0	0	0	28812	27480	170453	27242	1054585	45083	110708	0	0	7994	628293	0	0
2024-07-23 22:50:47			0	35843	0	0	0	28799	27470	170604	27343	1054540	45071	110703	0	0	7992	629602	0	0
2024-07-23 22:51:47			0	35818	0	0	0	28792	27470	170708	27114	1054513	45083	110700	0	0	7991	630665	0	0
2024-07-23 22:52:47			0	35803	0	0	0	28784	27470	170724	27107	1054460	45083	110697	0	0	7990	631303	0	0
2024-07-23 22:53:47			0	35811	0	0	0	28753	27460	170828	27076	1054424	45070	110685	0	0	7991	630999	0	0
2024-07-23 22:54:47			0	35790	0	0	0	28761	27450	170796	27000	1054433	45070	110688	0	0	7990	631929	0	0
2024-07-23 22:55:47			0	35791	0	0	0	28748	27460	170760	26778	1054388	45082	110683	0	0	7990	631850	0	0
2024-07-23 22:56:47			0	35787	0	0	0	28727	27450	170676	27305	1054343	45069	110675	0	0	7990	632056	0	0
2024-07-23 22:57:47			0	35791	0	0	0	28703	27440	170668	26942	1054254	45068	110666	0	0	7991	631922	0	0
2024-07-23 22:58:47			0	35826	0	0	0	28659	27420	170756	27053	1054209	45055	110649	0	0	7993	630506	0	0
2024-07-23 22:59:47			0	35831	0	0	0	28628	27420	170632	26960	1054021	45055	110637	0	0	7994	630293	0	0
2024-07-23 23:00:47			0	35859	0	0	0	28607	27400	170732	27209	1053994	45042	110629	0	0	7996	629176	0	0
2024-07-23 23:01:47			0	35857	0	0	0	28602	27380	170641	27156	1053905	45051	110627	0	0	7996	629333	0	0
2024-07-23 23:02:47			0	35853	0	0	0	28586	27360	170540	26805	1053816	45039	110621	0	0	7996	629576	0	0
2024-07-23 23:03:47			0	35836	0	0	0	28568	27360	170712	26769	1053753	45038	110614	0	0	7995	630298	0	0
2024-07-23 23:04:47			0	35795	0	0	0	28558	27340	170876	27213	1053673	45037	110610	0	0	7993	632115	0	0
2024-07-23 23:05:47			0	35768	0	0	0	28548	27330	171160	27287	1053565	45045	110606	0	0	7991	633303	0	0
2024-07-23 23:06:47			0	35727	0	0	0	28558	27310	171236	26750	1053566	45043	110610	0	0	7989	635126	0	0
2024-07-23 23:07:47			0	35697	0	0	0	28573	27290	171468	26734	1053494	45041	110616	0	0	7986	636483	0	0
2024-07-23 23:08:47			0	35675	0	0	0	28584	27290	171484	26935	1053548	45053	110620	0	0	7985	637425	0	0
2024-07-23 23:09:47			0	35675	0	0	0	28586	27280	171548	27048	1053458	45053	110621	0	0	7985	637462	0	0
2024-07-23 23:10:47			0	35649	0	0	0	28573	27280	171612	26899	1053458	45053	110616	0	0	7983	638577	0	0
2024-07-23 23:11:47			0	35631	0	0	0	28563	27280	171700	27135	1053503	45052	110612	0	0	7982	639350	0	0
2024-07-23 23:12:47			0	35624	0	0	0	28581	27290	171904	27053	1053521	45064	110619	0	0	7982	639614	0	0
2024-07-23 23:13:47			0	35611	0	0	0	28623	27280	171884	27128	1053503	45052	110635	0	0	7980	640209	0	0
2024-07-23 23:14:47			0	35614	0	0	0	28620	27270	171816	27157	1053521	45074	110634	0	0	7980	640117	0	0
2024-07-23 23:15:47			0	35614	0	0	0	28659	27280	171816	27128	1053539	45053	110649	0	0	7980	640080	0	0
2024-07-23 23:16:47			0	35639	0	0	0	28667	27270	171844	27180	1053602	45074	110652	0	0	7981	639043	0	0
2024-07-23 23:17:47			0	35675	0	0	0	28644	27290	171476	27039	1053683	45076	110643	0	0	7984	637425	0	0
2024-07-23 23:18:47			0	35732	0	0	0	28633	27280	171292	27308	1053611	45052	110639	0	0	7987	635022	0	0
2024-07-23 23:19:47			0	35758	0	0	0	28659	27280	171228	27144	1053593	45064	110649	0	0	7989	633911	0	0
2024-07-23 23:20:47			0	35738	0	0	0	28654	27290	171220	27208	1053665	45064	110647	0	0	7987	634729	0	0
2024-07-23 23:21:47			0	35765	0	0	0	28641	27290	171120	26887	1053710	45076	110642	0	0	7989	633576	0	0
2024-07-23 23:22:47			0	35773	0	0	0	28628	27280	171052	27182	1053584	45063	110637	0	0	7990	633271	0	0
2024-07-23 23:23:47			0	35785	0	0	0	28615	27280	171088	27033	1053611	45052	110632	0	0	7991	632759	0	0
2024-07-23 23:24:47			0	35739	0	0	0	28631	27280	171084	26729	1053611	45052	110638	0	0	7988	634723	0	0
2024-07-23 23:25:47			0	35736	0	0	0	28602	27270	171176	27131	1053494	45041	110627	0	0	7988	634887	0	0
2024-07-23 23:26:47			0	35718	0	0	0	28581	27270	171292	27222	1053512	45061	110619	0	0	7987	635657	0	0
2024-07-23 23:27:47			0	35692	0	0	0	28599	27260	171336	27164	1053423	45061	110626	0	0	7985	636807	0	0
2024-07-23 23:28:47			0	35658	0	0	0	28607	27280	171600	27265	1053530	45052	110629	0	0	7983	638191	0	0
2024-07-23 23:29:47			0	35644	0	0	0	28618	27270	171680	27137	1053575	45062	110633	0	0	7982	638828	0	0
2024-07-23 23:30:47			0	35625	0	0	0	28646	27270	171852	26838	1053521	45062	110644	0	0	7981	639644	0	0
2024-07-23 23:31:47			0	35584	0	0	0	28659	27270	171948	27128	1053512	45061	110649	0	0	7978	641408	0	0
2024-07-23 23:32:47			0	35586	0	0	0	28651	27260	171912	26705	1053557	45040	110646	0	0	7978	641359	0	0
2024-07-23 23:33:47			0	35618	0	0	0	28631	27260	171876	26920	1053530	45061	110638	0	0	7980	639982	0	0
2024-07-23 23:34:47			0	35630	0	0	0	28612	27260	171716	26717	1053495	45050	110631	0	0	7981	639466	0	0
2024-07-23 23:35:47			0	35671	0	0	0	28628	27260	171552	26923	1053530	45061	110637	0	0	7984	637706	0	0
2024-07-23 23:36:47			0	35681	0	0	0	28636	27270	171472	27208	1053539	45040	110640	0	0	7984	637241	0	0
2024-07-23 23:37:47			0	35695	0	0	0	28636	27250	171332	27045	1053513	45049	110640	0	0	7985	636715	0	0
2024-07-23 23:38:47			0	35719	0	0	0	28646	27270	171284	27098	1053548	45062	110644	0	0	7986	635614	0	0
2024-07-23 23:39:47			0	35708	0	0	0	28651	27270	171280	27150	1053539	45073	110646	0	0	7986	636085	0	0
2024-07-23 23:40:47			0	35752	0	0	0	28664	27270	171240	26739	1053593	45073	110651	0	0	7988	634204	0	0
2024-07-23 23:41:47			0	35778	0	0	0	28680	27280	171116	27100	1053638	45075	110657	0	0	7989	633058	0	0
2024-07-23 23:42:47			0	35844	0	0	0	28690	27280	170840	27142	1053638	45052	110661	0	0	7993	630248	0	0
2024-07-23 23:43:47			0	35847	0	0	0	28696	27290	170736	26904	1053683	45076	110663	0	0	7993	630084	0	0
2024-07-23 23:44:47			0	35835	0	0	0	28719	27280	170772	27230	1053665	45075	110672	0	0	7992	630630	0	0
2024-07-23 23:45:47			0	35775	0	0	0	28735	27280	171008	27355	1053727	45064	110678	0	0	7988	633186	0	0
2024-07-23 23:46:47			0	35630	0	0	0	28729	27290	171792	27076	1053799	45076	110676	0	0	7980	639356	0	0
2024-07-23 23:47:47			0	35458	0	0	0	28742	27300	172616	27175	1053817	45066	110681	0	0	7969	646738	0	0
2024-07-23 23:48:47			0	35315	0	0	0	28745	27310	173344	27033	1053861	45088	110682	0	0	7960	652916	0	0
2024-07-23 23:49:47			0	35194	0	0	0	28748	27310	173896	26984	1053888	45066	110683	0	0	7952	658210	0	0
2024-07-23 23:50:47			0	35070	0	0	0	28742	27320	174407	27215	1053978	45089	110681	0	0	7945	663629	0	0
2024-07-23 23:51:47			0	34966	0	0	0	28740	27330	174859	26779	1053969	45080	110680	0	0	7938	668194	0	0
2024-07-23 23:52:47			0	34892	0	0	0	28745	27330	175183	27256	1053915	45080	110682	0	0	7934	671484	0	0
2024-07-23 23:53:47			0	34826	0	0	0	28742	27330	175515	27145	1053924	45068	110681	0	0	7929	674428	0	0
2024-07-23 23:54:47			0	34783	0	0	0	28750	27330	175739	27142	1053978	45068	110684	0	0	7927	676352	0	0
2024-07-23 23:55:47			0	34786	0	0	0	28748	27330	176011	27235	1053888	45080	110683	0	0	7927	676218	0	0
2024-07-23 23:56:47			0	34763	0	0	0	28748	27330	175951	27079	1053924	45080	110683	0	0	7925	677248	0	0
2024-07-23 23:57:47			0	34766	0	0	0	28732	27330	176051	27128	1053897	45068	110677	0	0	7926	677113	0	0
2024-07-23 23:58:47			0	34741	0	0	0	28745	27330	176123	27305	1053924	45068	110682	0	0	7924	678235	0	0
2024-07-23 23:59:47			0	34719	0	0	0	28745	27330	176091	26771	1053924	45080	110682	0	0	7923	679222	0	0
2024-07-24 00:00:47			0	34703	0	0	0	28735	27330	176099	27201	1053978	45080	110678	0	0	7922	679942	0	0
2024-07-24 00:01:47			0	34692	0	0	0	28735	27340	176171	27128	1053879	45069	110678	0	0	7921	680397	0	0
2024-07-24 00:02:47			0	34687	0	0	0	28727	27340	176179	27204	1054022	45081	110675	0	0	7921	680622	0	0
2024-07-24 00:03:47			0	34683	0	0	0	28729	27330	176319	27197	1053924	45080	110676	0	0	7920	680841	0	0
2024-07-24 00:04:47			0	34674	0	0	0	28727	27330	176179	27001	1053924	45080	110675	0	0	7920	681246	0	0
2024-07-24 00:05:47			0	34688	0	0	0	28722	27340	176291	27305	1053852	45080	110673	0	0	7921	680577	0	0
2024-07-24 00:06:47			0	34684	0	0	0	28719	27340	176263	27085	1053879	45069	110672	0	0	7921	680757	0	0
2024-07-24 00:07:47			0	34698	0	0	0	28711	27330	176251	27229	1053870	45068	110669	0	0	7922	680166	0	0
2024-07-24 00:08:47			0	34718	0	0	0	28703	27330	176171	27218	1053861	45068	110666	0	0	7923	679268	0	0
2024-07-24 00:09:47			0	34731	0	0	0	28706	27330	176059	27175	1053870	45068	110667	0	0	7924	678684	0	0
2024-07-24 00:10:47			0	34716	0	0	0	28709	27330	176159	27393	1053861	45057	110668	0	0	7923	679357	0	0
2024-07-24 00:11:47			0	34688	0	0	0	28706	27330	176167	27478	1053789	45068	110667	0	0	7921	680616	0	0
2024-07-24 00:12:47			0	34678	0	0	0	28698	27310	176407	27168	1053835	45055	110664	0	0	7921	681145	0	0
2024-07-24 00:13:47			0	34620	0	0	0	28703	27320	176531	26889	1053772	45057	110666	0	0	7917	683721	0	0
2024-07-24 00:14:47			0	34580	0	0	0	28716	27320	176707	27190	1053843	45067	110671	0	0	7914	685529	0	0
2024-07-24 00:15:47			0	34565	0	0	0	28729	27310	176823	26889	1053835	45078	110676	0	0	7913	686247	0	0
2024-07-24 00:16:47			0	34554	0	0	0	28745	27320	177031	27196	1053852	45068	110682	0	0	7912	686706	0	0
2024-07-24 00:17:47			0	34549	0	0	0	28750	27330	177011	27234	1053915	45090	110684	0	0	7912	686893	0	0
2024-07-24 00:18:47			0	34526	0	0	0	28748	27320	176919	26998	1053951	45079	110683	0	0	7910	687975	0	0
2024-07-24 00:19:47			0	34542	0	0	0	28763	27330	177015	27173	1053978	45090	110689	0	0	7911	687210	0	0
2024-07-24 00:20:47			0	34531	0	0	0	28755	27340	177047	26967	1053933	45102	110686	0	0	7910	687670	0	0
2024-07-24 00:21:47			0	34510	0	0	0	28755	27340	177175	27024	1053933	45091	110686	0	0	7909	688622	0	0
2024-07-24 00:22:47			0	34497	0	0	0	28750	27340	177215	27097	1053995	45081	110684	0	0	7908	689213	0	0
2024-07-24 00:23:47			0	34474	0	0	0	28753	27350	177303	27189	1054004	45093	110685	0	0	7907	690219	0	0
2024-07-24 00:24:47			0	34449	0	0	0	28753	27350	177455	27196	1054058	45082	110685	0	0	7905	691356	0	0
2024-07-24 00:25:47			0	34437	0	0	0	28755	27340	177663	27393	1054067	45080	110686	0	0	7904	691943	0	0
2024-07-24 00:26:47			0	34398	0	0	0	28745	27340	177575	26965	1054022	45081	110682	0	0	7902	693722	0	0
2024-07-24 00:27:47			0	34388	0	0	0	28742	27350	177599	27268	1054031	45071	110681	0	0	7901	694139	0	0
2024-07-24 00:28:47			0	34389	0	0	0	28742	27350	177495	27116	1054013	45071	110681	0	0	7901	694093	0	0
2024-07-24 00:29:47			0	34399	0	0	0	28735	27350	177639	27197	1053986	45093	110678	0	0	7902	693636	0	0
2024-07-24 00:30:47			0	34417	0	0	0	28724	27350	177675	27213	1054013	45093	110674	0	0	7904	692815	0	0
2024-07-24 00:31:47			0	34405	0	0	0	28711	27340	177519	27150	1054022	45059	110669	0	0	7903	693402	0	0
2024-07-24 00:32:47			0	34440	0	0	0	28711	27340	177447	27041	1053888	45070	110669	0	0	7905	691806	0	0
2024-07-24 00:33:47			0	34496	0	0	0	28706	27330	177331	27343	1053870	45080	110667	0	0	7909	689298	0	0
2024-07-24 00:34:47			0	34524	0	0	0	28709	27340	177003	27034	1053915	45070	110668	0	0	7911	687987	0	0
2024-07-24 00:35:47			0	34574	0	0	0	28719	27330	176931	27381	1053843	45068	110672	0	0	7914	685761	0	0
2024-07-24 00:36:47			0	34600	0	0	0	28740	27330	176603	27102	1053951	45090	110680	0	0	7915	684585	0	0
2024-07-24 00:37:47			0	34617	0	0	0	28753	27340	176663	27218	1053942	45081	110685	0	0	7916	683777	0	0
2024-07-24 00:38:47			0	34605	0	0	0	28748	27340	176551	27279	1053986	45102	110683	0	0	7915	684320	0	0
2024-07-24 00:39:47			0	34584	0	0	0	28745	27340	176775	27024	1053915	45081	110682	0	0	7914	685269	0	0
2024-07-24 00:40:47			0	34566	0	0	0	28732	27330	176959	26684	1053897	45068	110677	0	0	7913	686123	0	0
2024-07-24 00:41:47			0	34566	0	0	0	28732	27330	177011	26847	1053915	45068	110677	0	0	7913	686123	0	0
2024-07-24 00:42:47			0	34545	0	0	0	28724	27340	176987	27085	1053986	45080	110674	0	0	7912	687035	0	0
2024-07-24 00:43:47			0	34519	0	0	0	28724	27330	177143	27144	1053978	45068	110674	0	0	7910	688253	0	0
2024-07-24 00:44:47			0	34514	0	0	0	28719	27340	177067	26875	1053906	45080	110672	0	0	7910	688441	0	0
2024-07-24 00:45:47			0	34537	0	0	0	28714	27330	177043	27114	1053915	45068	110670	0	0	7911	687437	0	0
2024-07-24 00:46:47			0	34553	0	0	0	28716	27330	176971	27052	1053978	45080	110671	0	0	7912	686712	0	0
2024-07-24 00:47:47			0	34535	0	0	0	28714	27340	176967	26733	1053915	45081	110670	0	0	7911	687488	0	0
2024-07-24 00:48:47			0	34549	0	0	0	28724	27330	176935	26977	1053897	45068	110674	0	0	7912	686893	0	0
2024-07-24 00:49:47			0	34542	0	0	0	28716	27340	176839	27020	1053933	45080	110671	0	0	7912	687171	0	0
2024-07-24 00:50:47			0	34575	0	0	0	28722	27340	176855	26939	1053906	45080	110673	0	0	7914	685676	0	0
2024-07-24 00:51:47			0	34564	0	0	0	28711	27330	176787	26915	1053897	45080	110669	0	0	7913	686214	0	0
2024-07-24 00:52:47			0	34582	0	0	0	28711	27330	176803	26750	1053861	45080	110669	0	0	7914	685399	0	0
2024-07-24 00:53:47			0	34573	0	0	0	28709	27310	176691	27126	1053781	45066	110668	0	0	7914	685885	0	0
2024-07-24 00:54:47			0	34626	0	0	0	28706	27320	176587	27055	1053798	45080	110667	0	0	7917	683450	0	0
2024-07-24 00:55:47			0	34628	0	0	0	28709	27320	176507	26765	1053843	45079	110668	0	0	7917	683359	0	0
2024-07-24 00:56:47			0	34636	0	0	0	28698	27330	176555	27310	1053834	45068	110664	0	0	7918	682959	0	0
2024-07-24 00:57:47			0	34642	0	0	0	28696	27320	176351	26712	1053817	45056	110663	0	0	7918	682728	0	0
2024-07-24 00:58:47			0	34645	0	0	0	28688	27310	176475	26868	1053808	45078	110660	0	0	7919	682632	0	0
2024-07-24 00:59:47			0	34648	0	0	0	28696	27310	176359	27097	1053808	45078	110663	0	0	7919	682497	0	0
2024-07-24 01:00:47			0	34664	0	0	0	28693	27300	176423	27052	1053763	45066	110662	0	0	7920	681814	0	0
2024-07-24 01:01:47			0	34680	0	0	0	28683	27310	176319	26561	1053745	45078	110658	0	0	7921	681055	0	0
2024-07-24 01:02:47			0	34697	0	0	0	28683	27300	176227	26823	1053736	45066	110658	0	0	7922	680329	0	0
2024-07-24 01:03:47			0	34713	0	0	0	28680	27300	176171	26918	1053700	45065	110657	0	0	7923	679609	0	0
2024-07-24 01:04:47			0	34707	0	0	0	28670	27300	176239	27121	1053790	45078	110653	0	0	7923	679879	0	0
2024-07-24 01:05:47			0	34694	0	0	0	28667	27300	176171	27031	1053673	45065	110652	0	0	7922	680464	0	0
2024-07-24 01:06:47			0	34695	0	0	0	28667	27290	176295	26757	1053629	45064	110652	0	0	7922	680458	0	0
2024-07-24 01:07:47			0	34655	0	0	0	28654	27300	176311	27043	1053673	45077	110647	0	0	7920	682220	0	0
2024-07-24 01:08:47			0	34652	0	0	0	28646	27280	176259	27022	1053620	45064	110644	0	0	7920	682434	0	0
2024-07-24 01:09:47			0	34659	0	0	0	28654	27280	176431	27121	1053593	45064	110647	0	0	7920	682118	0	0
2024-07-24 01:10:47			0	34631	0	0	0	28654	27280	176567	26864	1053611	45063	110647	0	0	7918	683381	0	0
2024-07-24 01:11:47			0	34619	0	0	0	28654	27280	176479	27173	1053557	45052	110647	0	0	7917	683923	0	0
2024-07-24 01:12:47			0	34569	0	0	0	28657	27270	176811	26920	1053629	45084	110648	0	0	7914	686223	0	0
2024-07-24 01:13:47			0	34544	0	0	0	28646	27270	176967	26991	1053629	45062	110644	0	0	7913	687356	0	0
2024-07-24 01:14:47			0	34492	0	0	0	28657	27270	177159	27027	1053575	45062	110648	0	0	7909	689717	0	0
2024-07-24 01:15:47			0	34440	0	0	0	28654	27270	177475	27239	1053629	45074	110647	0	0	7906	692084	0	0
2024-07-24 01:16:47			0	34410	0	0	0	28649	27280	177551	26831	1053476	45085	110645	0	0	7904	693413	0	0
2024-07-24 01:17:47			0	34387	0	0	0	28654	27270	177763	27150	1053620	45061	110647	0	0	7902	694503	0	0
2024-07-24 01:18:47			0	34341	0	0	0	28644	27270	177890	27090	1053566	45073	110643	0	0	7900	696608	0	0
2024-07-24 01:19:47			0	34325	0	0	0	28644	27260	178010	26951	1053557	45073	110643	0	0	7898	697382	0	0
2024-07-24 01:20:47			0	34330	0	0	0	28651	27270	177970	27045	1053539	45073	110646	0	0	7899	697112	0	0
2024-07-24 01:21:47			0	34305	0	0	0	28649	27260	178106	27265	1053504	45061	110645	0	0	7897	698299	0	0
2024-07-24 01:22:47			0	34292	0	0	0	28644	27260	178082	27410	1053530	45073	110643	0	0	7896	698896	0	0
2024-07-24 01:23:47			0	34286	0	0	0	28641	27260	178118	27086	1053575	45061	110642	0	0	7896	699172	0	0
2024-07-24 01:24:47			0	34291	0	0	0	28646	27250	178158	27287	1053540	45072	110644	0	0	7896	698982	0	0
2024-07-24 01:25:47			0	34291	0	0	0	28641	27260	178242	27183	1053548	45073	110642	0	0	7896	698942	0	0
2024-07-24 01:26:47			0	34281	0	0	0	28646	27250	178166	26944	1053566	45060	110644	0	0	7895	699442	0	0
2024-07-24 01:27:47			0	34252	0	0	0	28646	27250	178422	26831	1053486	45072	110644	0	0	7894	700776	0	0
2024-07-24 01:28:47			0	34232	0	0	0	28677	27250	178618	26738	1053566	45072	110656	0	0	7892	701696	0	0
2024-07-24 01:29:47			0	34206	0	0	0	28683	27260	178478	27225	1053575	45083	110658	0	0	7890	702855	0	0
2024-07-24 01:30:47			0	34218	0	0	0	28680	27260	178606	27241	1053611	45073	110657	0	0	7891	702301	0	0
2024-07-24 01:31:47			0	34218	0	0	0	28672	27260	178450	26960	1053638	45073	110654	0	0	7891	702301	0	0
2024-07-24 01:32:47			0	34222	0	0	0	28677	27270	178526	27121	1053656	45084	110656	0	0	7891	702077	0	0
2024-07-24 01:33:47			0	34252	0	0	0	28683	27280	178418	26882	1053665	45085	110658	0	0	7893	700655	0	0
2024-07-24 01:34:47			0	34278	0	0	0	28693	27280	178222	26833	1053638	45075	110662	0	0	7895	699459	0	0
2024-07-24 01:35:47			0	34320	0	0	0	28693	27280	178226	27062	1053727	45086	110662	0	0	7897	697531	0	0
2024-07-24 01:36:47			0	34359	0	0	0	28690	27280	177951	27007	1053691	45085	110661	0	0	7900	695744	0	0
2024-07-24 01:37:47			0	34399	0	0	0	28688	27280	177711	26923	1053718	45085	110660	0	0	7903	693915	0	0
2024-07-24 01:38:47			0	34450	0	0	0	28690	27280	177367	27135	1053727	45076	110661	0	0	7906	691589	0	0
2024-07-24 01:39:47			0	34488	0	0	0	28696	27290	177283	27211	1053736	45076	110663	0	0	7908	689820	0	0
2024-07-24 01:40:47			0	34522	0	0	0	28690	27290	177115	26753	1053683	45076	110661	0	0	7911	688275	0	0
2024-07-24 01:41:47			0	34526	0	0	0	28696	27290	176947	27396	1053736	45064	110663	0	0	7911	688094	0	0
2024-07-24 01:42:47			0	34545	0	0	0	28693	27290	176939	27203	1053710	45086	110662	0	0	7912	687232	0	0
2024-07-24 01:43:47			0	34575	0	0	0	28698	27290	176799	27478	1053736	45076	110664	0	0	7914	685873	0	0
2024-07-24 01:44:47			0	34597	0	0	0	28688	27280	176755	26953	1053673	45076	110660	0	0	7915	684917	0	0
2024-07-24 01:45:47			0	34583	0	0	0	28698	27280	176787	27065	1053781	45076	110664	0	0	7914	685550	0	0
2024-07-24 01:46:47			0	34595	0	0	0	28690	27290	176775	26998	1053772	45086	110661	0	0	7915	684968	0	0
2024-07-24 01:47:47			0	34624	0	0	0	28696	27290	176591	27303	1053718	45086	110663	0	0	7917	683658	0	0
2024-07-24 01:48:47			0	34643	0	0	0	28685	27290	176423	27067	1053772	45076	110659	0	0	7918	682800	0	0
2024-07-24 01:49:47			0	34668	0	0	0	28696	27290	176275	26956	1053745	45086	110663	0	0	7920	681673	0	0
2024-07-24 01:50:47			0	34733	0	0	0	28690	27290	175999	27041	1053763	45097	110661	0	0	7924	678750	0	0
2024-07-24 01:51:47			0	34759	0	0	0	28685	27290	175835	26967	1053745	45064	110659	0	0	7926	677583	0	0
2024-07-24 01:52:47			0	34797	0	0	0	28683	27290	175719	26774	1053772	45076	110658	0	0	7928	675880	0	0
2024-07-24 01:53:47			0	34831	0	0	0	28683	27290	175391	26994	1053718	45076	110658	0	0	7930	674360	0	0
2024-07-24 01:54:47			0	34872	0	0	0	28685	27290	175255	27085	1053736	45064	110659	0	0	7933	672530	0	0
2024-07-24 01:55:47			0	34894	0	0	0	28685	27290	175255	27173	1053691	45076	110659	0	0	7934	671549	0	0
2024-07-24 01:56:47			0	34921	0	0	0	28685	27290	175087	27312	1053718	45076	110659	0	0	7936	670347	0	0
2024-07-24 01:57:47			0	34958	0	0	0	28680	27300	174847	27071	1053673	45087	110657	0	0	7939	668664	0	0
2024-07-24 01:58:47			0	35000	0	0	0	28690	27290	174671	26994	1053710	45076	110661	0	0	7941	666840	0	0
2024-07-24 01:59:47			0	35022	0	0	0	28680	27290	174455	27355	1053683	45086	110657	0	0	7943	665866	0	0
2024-07-24 02:00:47			0	35045	0	0	0	28672	27280	174315	27149	1053691	45075	110654	0	0	7944	664887	0	0
2024-07-24 02:01:47			0	35063	0	0	0	28683	27290	174215	27206	1053799	45064	110658	0	0	7945	664053	0	0
2024-07-24 02:02:47			0	35091	0	0	0	28683	27290	174235	26972	1053718	45076	110658	0	0	7947	662817	0	0
2024-07-24 02:03:47			0	35100	0	0	0	28680	27280	174259	27064	1053727	45064	110657	0	0	7947	662458	0	0
2024-07-24 02:04:47			0	35087	0	0	0	28672	27290	174171	26705	1053763	45076	110654	0	0	7947	662993	0	0
2024-07-24 02:05:47			0	35105	0	0	0	28670	27280	174192	26831	1053754	45076	110653	0	0	7948	662238	0	0
2024-07-24 02:06:47			0	35094	0	0	0	28675	27280	174187	27022	1053727	45076	110655	0	0	7947	662723	0	0
2024-07-24 02:07:47			0	35077	0	0	0	28672	27280	174315	27204	1053691	45075	110654	0	0	7946	663473	0	0
2024-07-24 02:08:47			0	35069	0	0	0	28670	27280	174271	26856	1053727	45076	110653	0	0	7946	663826	0	0
2024-07-24 02:09:47			0	35041	0	0	0	28670	27280	174511	26876	1053673	45076	110653	0	0	7944	665063	0	0
2024-07-24 02:10:47			0	35025	0	0	0	28670	27270	174495	26920	1053710	45074	110653	0	0	7943	665809	0	0
2024-07-24 02:11:47			0	35011	0	0	0	28664	27270	174539	27031	1053683	45074	110651	0	0	7942	666429	0	0
2024-07-24 02:12:47			0	34987	0	0	0	28659	27280	174727	27228	1053638	45075	110649	0	0	7941	667455	0	0
2024-07-24 02:13:47			0	34978	0	0	0	28657	27270	174747	26863	1053602	45084	110648	0	0	7940	667892	0	0
2024-07-24 02:14:47			0	34969	0	0	0	28657	27270	174755	27178	1053593	45061	110648	0	0	7940	668291	0	0
2024-07-24 02:15:47			0	34947	0	0	0	28659	27280	174927	27156	1053611	45075	110649	0	0	7938	669230	0	0
2024-07-24 02:16:47			0	34965	0	0	0	28657	27270	174763	27078	1053629	45062	110648	0	0	7939	668469	0	0
2024-07-24 02:17:47			0	34986	0	0	0	28654	27270	174783	27185	1053602	45062	110647	0	0	7941	667537	0	0
2024-07-24 02:18:47			0	34997	0	0	0	28644	27270	174739	26804	1053575	45074	110643	0	0	7942	667049	0	0
2024-07-24 02:19:47			0	35009	0	0	0	28644	27270	174619	27010	1053602	45062	110643	0	0	7942	666518	0	0
2024-07-24 02:20:47			0	35036	0	0	0	28649	27270	174399	26974	1053629	45074	110645	0	0	7944	665323	0	0
2024-07-24 02:21:47			0	35050	0	0	0	28644	27260	174183	26982	1053611	45061	110643	0	0	7945	664742	0	0
2024-07-24 02:22:47			0	35078	0	0	0	28641	27260	174267	26880	1053557	45083	110642	0	0	7947	663505	0	0
2024-07-24 02:23:47			0	35061	0	0	0	28641	27260	174263	27010	1053629	45073	110642	0	0	7946	664256	0	0
2024-07-24 02:24:47			0	35092	0	0	0	28641	27250	174347	26798	1053540	45072	110642	0	0	7947	662925	0	0
2024-07-24 02:25:47			0	35094	0	0	0	28628	27240	174227	26878	1053495	45071	110637	0	0	7948	662875	0	0
2024-07-24 02:26:47			0	35081	0	0	0	28628	27260	174375	27024	1053548	45061	110637	0	0	7947	663372	0	0
2024-07-24 02:27:47			0	35094	0	0	0	28625	27250	174295	26890	1053540	45072	110636	0	0	7948	662837	0	0
2024-07-24 02:28:47			0	35089	0	0	0	28625	27250	174187	27086	1053459	45060	110636	0	0	7948	663057	0	0
2024-07-24 02:29:47			0	35091	0	0	0	28620	27250	174291	26791	1053477	45071	110634	0	0	7948	662969	0	0
2024-07-24 02:30:47			0	35087	0	0	0	28628	27250	174223	27149	1053450	45071	110637	0	0	7947	663146	0	0
2024-07-24 02:31:47			0	35089	0	0	0	28623	27250	174211	27043	1053486	45072	110635	0	0	7948	663057	0	0
2024-07-24 02:32:47			0	35092	0	0	0	28610	27230	174163	27168	1053477	45070	110630	0	0	7948	663001	0	0
2024-07-24 02:33:47			0	35079	0	0	0	28620	27230	174327	26691	1053370	45058	110634	0	0	7947	663575	0	0
2024-07-24 02:34:47			0	35084	0	0	0	28618	27240	174355	27293	1053495	45071	110633	0	0	7947	663316	0	0
2024-07-24 02:35:47			0	35077	0	0	0	28607	27240	174375	27137	1053459	45082	110629	0	0	7947	663625	0	0
2024-07-24 02:36:47			0	35065	0	0	0	28610	27230	174259	26793	1053415	45069	110630	0	0	7946	664193	0	0
2024-07-24 02:37:47			0	35058	0	0	0	28607	27220	174319	26798	1053406	45057	110629	0	0	7946	664541	0	0
2024-07-24 02:38:47			0	35052	0	0	0	28610	27210	174531	27130	1053424	45080	110630	0	0	7945	664844	0	0
2024-07-24 02:39:47			0	35051	0	0	0	28605	27230	174455	27249	1053388	45057	110628	0	0	7945	664812	0	0
2024-07-24 02:40:47			0	35030	0	0	0	28602	27210	174635	26854	1053397	45069	110627	0	0	7944	665818	0	0
2024-07-24 02:41:47			0	34997	0	0	0	28605	27210	174655	26960	1053397	45080	110628	0	0	7942	667279	0	0
2024-07-24 02:42:47			0	35007	0	0	0	28597	27210	174651	27033	1053397	45069	110625	0	0	7943	666836	0	0
2024-07-24 02:43:47			0	34992	0	0	0	28579	27210	174615	26748	1053343	45069	110618	0	0	7942	667501	0	0
2024-07-24 02:44:47			0	34997	0	0	0	28589	27210	174803	27036	1053343	45057	110622	0	0	7942	667279	0	0
2024-07-24 02:45:47			0	34973	0	0	0	28597	27220	174815	26800	1053271	45069	110625	0	0	7941	668306	0	0
2024-07-24 02:46:47			0	34962	0	0	0	28594	27210	174859	27154	1053316	45069	110624	0	0	7940	668832	0	0
2024-07-24 02:47:47			0	34967	0	0	0	28599	27210	174951	26809	1053334	45079	110626	0	0	7940	668610	0	0
2024-07-24 02:48:47			0	34954	0	0	0	28581	27200	174827	27027	1053352	45056	110619	0	0	7940	669226	0	0
2024-07-24 02:49:47			0	34966	0	0	0	28586	27210	174959	26790	1053361	45045	110621	0	0	7940	668655	0	0
2024-07-24 02:50:47			0	34940	0	0	0	28584	27200	174879	26915	1053298	45067	110620	0	0	7939	669849	0	0
2024-07-24 02:51:47			0	34971	0	0	0	28592	27200	174947	27109	1053325	45056	110623	0	0	7940	668471	0	0
2024-07-24 02:52:47			0	34971	0	0	0	28586	27200	174803	26833	1053316	45055	110621	0	0	7941	668471	0	0
2024-07-24 02:53:47			0	35008	0	0	0	28592	27200	174667	27076	1053298	45067	110623	0	0	7943	666830	0	0
2024-07-24 02:54:47			0	35009	0	0	0	28586	27200	174823	27235	1053325	45056	110621	0	0	7943	666786	0	0
2024-07-24 02:55:47			0	35029	0	0	0	28589	27210	174783	26883	1053388	45068	110622	0	0	7944	665862	0	0
2024-07-24 02:56:47			0	35023	0	0	0	28581	27200	174631	26899	1053352	45056	110619	0	0	7944	666166	0	0
2024-07-24 02:57:47			0	35035	0	0	0	28581	27200	174595	27095	1053325	45078	110619	0	0	7945	665634	0	0
2024-07-24 02:58:47			0	35041	0	0	0	28581	27190	174623	27033	1053308	45077	110619	0	0	7945	665407	0	0
2024-07-24 02:59:47			0	35045	0	0	0	28586	27190	174619	27145	1053218	45077	110621	0	0	7945	665230	0	0
2024-07-24 03:00:47			0	35026	0	0	0	28581	27200	174703	26769	1053263	45066	110619	0	0	7944	666033	0	0
2024-07-24 03:01:47			0	35020	0	0	0	28573	27190	174751	27190	1053254	45066	110616	0	0	7944	666337	0	0
2024-07-24 03:02:47			0	34998	0	0	0	28576	27190	174727	27178	1053281	45066	110617	0	0	7942	667312	0	0
2024-07-24 03:03:47			0	34979	0	0	0	28561	27190	174895	27083	1053254	45066	110611	0	0	7941	668155	0	0
2024-07-24 03:04:47			0	34971	0	0	0	28566	27180	174995	27185	1053209	45054	110613	0	0	7941	668548	0	0
2024-07-24 03:05:47			0	34982	0	0	0	28561	27190	174951	27189	1053245	45055	110611	0	0	7942	668021	0	0
2024-07-24 03:06:47			0	34968	0	0	0	28561	27180	175031	27145	1053209	45065	110611	0	0	7941	668681	0	0
2024-07-24 03:07:47			0	34966	0	0	0	28555	27180	175047	27320	1053173	45053	110609	0	0	7941	668770	0	0
2024-07-24 03:08:47			0	34951	0	0	0	28558	27180	174983	27055	1053129	45054	110610	0	0	7940	669436	0	0
2024-07-24 03:09:47			0	34950	0	0	0	28553	27180	175007	27175	1053254	45064	110608	0	0	7940	669481	0	0
2024-07-24 03:10:47			0	34930	0	0	0	28561	27170	175187	27177	1053138	45064	110611	0	0	7938	670409	0	0
2024-07-24 03:11:47			0	34921	0	0	0	28550	27170	175179	27039	1053129	45064	110607	0	0	7938	670809	0	0
2024-07-24 03:12:47			0	34899	0	0	0	28548	27170	175243	27050	1053156	45053	110606	0	0	7936	671789	0	0
2024-07-24 03:13:47			0	34898	0	0	0	28548	27170	175315	26986	1053156	45053	110606	0	0	7936	671834	0	0
2024-07-24 03:14:47			0	34883	0	0	0	28540	27170	175407	27163	1053129	45064	110603	0	0	7936	672502	0	0
2024-07-24 03:15:47			0	34849	0	0	0	28542	27160	175495	27239	1053111	45062	110604	0	0	7933	674059	0	0
2024-07-24 03:16:47			0	34838	0	0	0	28548	27170	175559	26918	1053165	45064	110606	0	0	7933	674512	0	0
2024-07-24 03:17:47			0	34836	0	0	0	28550	27170	175703	27081	1053102	45064	110607	0	0	7932	674601	0	0
2024-07-24 03:18:47			0	34824	0	0	0	28561	27160	175663	27036	1053120	45063	110611	0	0	7931	675176	0	0
2024-07-24 03:19:47			0	34833	0	0	0	28566	27160	175675	26918	1053218	45073	110613	0	0	7932	674774	0	0
2024-07-24 03:20:47			0	34808	0	0	0	28561	27160	175779	27013	1053191	45062	110611	0	0	7930	675893	0	0
2024-07-24 03:21:47			0	34822	0	0	0	28561	27160	175711	27225	1053093	45085	110611	0	0	7931	675266	0	0
2024-07-24 03:22:47			0	34800	0	0	0	28558	27170	175755	26823	1053156	45053	110610	0	0	7930	676212	0	0
2024-07-24 03:23:47			0	34819	0	0	0	28558	27160	175703	27298	1053147	45063	110610	0	0	7931	675400	0	0
2024-07-24 03:24:47			0	34809	0	0	0	28553	27170	175687	27048	1053138	45053	110608	0	0	7931	675809	0	0
2024-07-24 03:25:47			0	34836	0	0	0	28553	27160	175715	27072	1053084	45073	110608	0	0	7932	674640	0	0
2024-07-24 03:26:47			0	34830	0	0	0	28545	27160	175623	27317	1053138	45073	110605	0	0	7932	674908	0	0
2024-07-24 03:27:47			0	34828	0	0	0	28537	27160	175683	27144	1053057	45073	110602	0	0	7932	674998	0	0
2024-07-24 03:28:47			0	34827	0	0	0	28532	27150	175643	27249	1053102	45051	110600	0	0	7932	675081	0	0
2024-07-24 03:29:47			0	34852	0	0	0	28535	27150	175559	27046	1053048	45062	110601	0	0	7934	673964	0	0
2024-07-24 03:30:47			0	34872	0	0	0	28537	27150	175603	27178	1053075	45073	110602	0	0	7935	673070	0	0
2024-07-24 03:31:47			0	34903	0	0	0	28542	27150	175423	27192	1053093	45051	110604	0	0	7937	671688	0	0
2024-07-24 03:32:47			0	34908	0	0	0	28545	27150	175331	27102	1053075	45073	110605	0	0	7937	671465	0	0
2024-07-24 03:33:47			0	34910	0	0	0	28555	27160	175283	27201	1053111	45073	110609	0	0	7937	671338	0	0
2024-07-24 03:34:47			0	34914	0	0	0	28555	27150	175375	27343	1053102	45062	110609	0	0	7937	671198	0	0
2024-07-24 03:35:47			0	34903	0	0	0	28558	27150	175367	26965	1053066	45073	110610	0	0	7936	671688	0	0
2024-07-24 03:36:47			0	34877	0	0	0	28548	27150	175371	27402	1053102	45062	110606	0	0	7935	672847	0	0
2024-07-24 03:37:47			0	34859	0	0	0	28542	27160	175591	27192	1053120	45052	110604	0	0	7934	673612	0	0
2024-07-24 03:38:47			0	34861	0	0	0	28511	27150	175555	27119	1053021	45073	110592	0	0	7935	673562	0	0
2024-07-24 03:39:47			0	34834	0	0	0	28519	27150	175707	27161	1053039	45040	110595	0	0	7933	674768	0	0
2024-07-24 03:40:47			0	34852	0	0	0	28519	27140	175703	27306	1053004	45061	110595	0	0	7934	674002	0	0
2024-07-24 03:41:47			0	34838	0	0	0	28524	27140	175679	26876	1053022	45049	110597	0	0	7933	674628	0	0
2024-07-24 03:42:47			0	34863	0	0	0	28532	27130	175543	27326	1052959	45072	110600	0	0	7934	673550	0	0
2024-07-24 03:43:47			0	34883	0	0	0	28529	27140	175431	27057	1053057	45072	110599	0	0	7936	672618	0	0
2024-07-24 03:44:47			0	34888	0	0	0	28532	27140	175307	26902	1053030	45061	110600	0	0	7936	672395	0	0
2024-07-24 03:45:47			0	34898	0	0	0	28540	27150	175363	26939	1052986	45051	110603	0	0	7936	671911	0	0
2024-07-24 03:46:47			0	34917	0	0	0	28522	27140	175251	27109	1052995	45060	110596	0	0	7938	671103	0	0
2024-07-24 03:47:47			0	34902	0	0	0	28519	27140	175311	26918	1053004	45061	110595	0	0	7937	671771	0	0
2024-07-24 03:48:47			0	34906	0	0	0	28509	27140	175355	27078	1053048	45049	110591	0	0	7937	671593	0	0
2024-07-24 03:49:47			0	34920	0	0	0	28501	27140	175307	26982	1052941	45049	110588	0	0	7938	670969	0	0
2024-07-24 03:50:47			0	34915	0	0	0	28501	27130	175207	27216	1052959	45049	110588	0	0	7938	671231	0	0
2024-07-24 03:51:47			0	34970	0	0	0	28496	27120	175055	26677	1052995	45071	110586	0	0	7942	668823	0	0
2024-07-24 03:52:47			0	35013	0	0	0	28493	27130	174811	26961	1052959	45060	110585	0	0	7944	666876	0	0
2024-07-24 03:53:47			0	35042	0	0	0	28503	27120	174639	26831	1052941	45059	110589	0	0	7946	665630	0	0
2024-07-24 03:54:47			0	35016	0	0	0	28501	27120	174811	27137	1052914	45048	110588	0	0	7944	666782	0	0
2024-07-24 03:55:47			0	35007	0	0	0	28506	27120	174791	26956	1052914	45048	110590	0	0	7944	667181	0	0
2024-07-24 03:56:47			0	34996	0	0	0	28498	27120	174843	27092	1052914	45059	110587	0	0	7943	667669	0	0
2024-07-24 03:57:47			0	34968	0	0	0	28493	27120	175063	26733	1052879	45058	110585	0	0	7941	668912	0	0
2024-07-24 03:58:47			0	34921	0	0	0	28503	27120	175247	26915	1052914	45071	110589	0	0	7938	671002	0	0
2024-07-24 03:59:47			0	34889	0	0	0	28501	27120	175443	27093	1052879	45070	110588	0	0	7936	672428	0	0
2024-07-24 04:00:47			0	34852	0	0	0	28506	27110	175579	27417	1052897	45069	110590	0	0	7934	674118	0	0
2024-07-24 04:01:47			0	34802	0	0	0	28493	27110	175843	26998	1052861	45057	110585	0	0	7931	676355	0	0
2024-07-24 04:02:47			0	34781	0	0	0	28501	27100	176027	27251	1052816	45068	110588	0	0	7929	677335	0	0
2024-07-24 04:03:47			0	34761	0	0	0	28496	27120	176135	26967	1052825	45070	110586	0	0	7928	678155	0	0
2024-07-24 04:04:47			0	34743	0	0	0	28493	27110	176199	26840	1052816	45069	110585	0	0	7927	679002	0	0
2024-07-24 04:05:47			0	34722	0	0	0	28485	27110	176279	26785	1052888	45069	110582	0	0	7926	679946	0	0
2024-07-24 04:06:47			0	34710	0	0	0	28490	27110	176339	27322	1052843	45057	110584	0	0	7925	680486	0	0
2024-07-24 04:07:47			0	34714	0	0	0	28470	27100	176335	26866	1052825	45057	110576	0	0	7926	680345	0	0
2024-07-24 04:08:47			0	34694	0	0	0	28472	27100	176423	26821	1052852	45046	110577	0	0	7924	681245	0	0
2024-07-24 04:09:47			0	34688	0	0	0	28480	27100	176439	27131	1052771	45069	110580	0	0	7924	681516	0	0
2024-07-24 04:10:47			0	34697	0	0	0	28467	27100	176487	27279	1052816	45079	110575	0	0	7925	681110	0	0
2024-07-24 04:11:47			0	34726	0	0	0	28459	27100	176307	27024	1052816	45056	110572	0	0	7927	679805	0	0
2024-07-24 04:12:47			0	34739	0	0	0	28462	27090	176211	27171	1052780	45044	110573	0	0	7927	679260	0	0
2024-07-24 04:13:47			0	34788	0	0	0	28451	27100	176091	26854	1052762	45068	110569	0	0	7931	677021	0	0
2024-07-24 04:14:47			0	34802	0	0	0	28444	27090	175879	27147	1052700	45055	110566	0	0	7932	676433	0	0
2024-07-24 04:15:47			0	34813	0	0	0	28441	27090	175827	26811	1052691	45055	110565	0	0	7932	675940	0	0
2024-07-24 04:16:47			0	34850	0	0	0	28454	27080	175623	27008	1052709	45044	110570	0	0	7934	674324	0	0
2024-07-24 04:17:47			0	34878	0	0	0	28457	27080	175667	26845	1052673	45054	110571	0	0	7936	673073	0	0
2024-07-24 04:18:47			0	34867	0	0	0	28446	27070	175595	26793	1052611	45053	110567	0	0	7936	673603	0	0
2024-07-24 04:19:47			0	34879	0	0	0	28423	27070	175511	27102	1052584	45053	110558	0	0	7937	673067	0	0
2024-07-24 04:20:47			0	34898	0	0	0	28433	27080	175375	27211	1052620	45054	110562	0	0	7938	672181	0	0
2024-07-24 04:21:47			0	34905	0	0	0	28438	27070	175407	27249	1052629	45053	110564	0	0	7938	671907	0	0
2024-07-24 04:22:47			0	34920	0	0	0	28425	27070	175427	27003	1052602	45065	110559	0	0	7939	671239	0	0
2024-07-24 04:23:47			0	34925	0	0	0	28423	27060	175351	26896	1052539	45052	110558	0	0	7940	671055	0	0
2024-07-24 04:24:47			0	34917	0	0	0	28431	27050	175199	27403	1052629	45051	110561	0	0	7939	671450	0	0
2024-07-24 04:25:47			0	34939	0	0	0	28418	27050	175275	27045	1052566	45051	110556	0	0	7941	670470	0	0
2024-07-24 04:26:47			0	34941	0	0	0	28423	27050	175283	27022	1052548	45051	110558	0	0	7941	670381	0	0
2024-07-24 04:27:47			0	34925	0	0	0	28415	27050	175407	27150	1052539	45051	110555	0	0	7940	671093	0	0
2024-07-24 04:28:47			0	34917	0	0	0	28418	27040	175431	26956	1052504	45050	110556	0	0	7939	671488	0	0
2024-07-24 04:29:47			0	34890	0	0	0	28412	27050	175463	27013	1052486	45051	110554	0	0	7938	672653	0	0
2024-07-24 04:30:47			0	34861	0	0	0	28410	27050	175659	26753	1052486	45074	110553	0	0	7936	673948	0	0
2024-07-24 04:31:47			0	34836	0	0	0	28431	27040	175779	27149	1052575	45062	110561	0	0	7934	675105	0	0
2024-07-24 04:32:47			0	34827	0	0	0	28423	27040	175863	26951	1052521	45050	110558	0	0	7933	675507	0	0
2024-07-24 04:33:47			0	34783	0	0	0	28399	27040	175967	27249	1052468	45040	110549	0	0	7931	677479	0	0
2024-07-24 04:34:47			0	34754	0	0	0	28433	27040	176331	26908	1052495	45050	110562	0	0	7928	678780	0	0
2024-07-24 04:35:47			0	34708	0	0	0	28433	27040	176479	26871	1052504	45062	110562	0	0	7926	680849	0	0
2024-07-24 04:36:47			0	34659	0	0	0	28454	27040	176715	26774	1052531	45040	110570	0	0	7922	683058	0	0
2024-07-24 04:37:47			0	34602	0	0	0	28459	27040	177019	27204	1052531	45062	110572	0	0	7918	685635	0	0
2024-07-24 04:38:47			0	34577	0	0	0	28462	27030	177175	27031	1052647	45072	110573	0	0	7917	686807	0	0
2024-07-24 04:39:47			0	34534	0	0	0	28457	27040	177291	26942	1052611	45050	110571	0	0	7914	688719	0	0
2024-07-24 04:40:47			0	34526	0	0	0	28464	27050	177427	27015	1052620	45063	110574	0	0	7913	689042	0	0
2024-07-24 04:41:47			0	34508	0	0	0	28462	27050	177535	26981	1052620	45063	110573	0	0	7912	689861	0	0
2024-07-24 04:42:47			0	34490	0	0	0	28467	27050	177579	26908	1052656	45051	110575	0	0	7911	690680	0	0
2024-07-24 04:43:47			0	34495	0	0	0	28464	27060	177511	27033	1052692	45064	110574	0	0	7911	690413	0	0
2024-07-24 04:44:47			0	34488	0	0	0	28451	27060	177535	26920	1052674	45064	110569	0	0	7911	690731	0	0
2024-07-24 04:45:47			0	34510	0	0	0	28462	27050	177339	27031	1052629	45051	110573	0	0	7912	689770	0	0
2024-07-24 04:46:47			0	34523	0	0	0	28462	27060	177307	27057	1052647	45052	110573	0	0	7913	689139	0	0
2024-07-24 04:47:47			0	34545	0	0	0	28470	27060	177203	27034	1052700	45064	110576	0	0	7915	688140	0	0
2024-07-24 04:48:47			0	34554	0	0	0	28470	27060	177195	27100	1052727	45064	110576	0	0	7915	687732	0	0
2024-07-24 04:49:47			0	34591	0	0	0	28475	27070	177019	27027	1052638	45065	110578	0	0	7917	686015	0	0
2024-07-24 04:50:47			0	34599	0	0	0	28462	27060	176887	27228	1052727	45064	110573	0	0	7918	685692	0	0
2024-07-24 04:51:47			0	34630	0	0	0	28451	27070	176723	26802	1052718	45042	110569	0	0	7920	684251	0	0
2024-07-24 04:52:47			0	34661	0	0	0	28464	27070	176659	27144	1052629	45053	110574	0	0	7922	682851	0	0
2024-07-24 04:53:47			0	34683	0	0	0	28451	27060	176431	26866	1052700	45041	110569	0	0	7924	681898	0	0
2024-07-24 04:54:47			0	34708	0	0	0	28438	27070	176311	27225	1052629	45053	110564	0	0	7926	680732	0	0
2024-07-24 04:55:47			0	34753	0	0	0	28444	27060	176211	27275	1052620	45052	110566	0	0	7928	678748	0	0
2024-07-24 04:56:47			0	34767	0	0	0	28451	27060	176151	27215	1052611	45064	110569	0	0	7929	678119	0	0
2024-07-24 04:57:47			0	34804	0	0	0	28446	27070	176007	27046	1052602	45042	110567	0	0	7932	676421	0	0
2024-07-24 04:58:47			0	34830	0	0	0	28451	27070	175691	27024	1052656	45053	110569	0	0	7933	675257	0	0
2024-07-24 04:59:47			0	34861	0	0	0	28446	27060	175667	27090	1052611	45041	110567	0	0	7935	673910	0	0
2024-07-24 05:00:47			0	34888	0	0	0	28444	27050	175495	27203	1052575	45051	110566	0	0	7937	672743	0	0
2024-07-24 05:01:47			0	34917	0	0	0	28433	27070	175375	27199	1052682	45065	110562	0	0	7939	671373	0	0
2024-07-24 05:02:47			0	34946	0	0	0	28438	27060	175195	26738	1052584	45052	110564	0	0	7941	670120	0	0
2024-07-24 05:03:47			0	34966	0	0	0	28438	27050	175075	27074	1052575	45074	110564	0	0	7942	669269	0	0
2024-07-24 05:04:47			0	35000	0	0	0	28433	27060	175015	27201	1052584	45064	110562	0	0	7944	667721	0	0
2024-07-24 05:05:47			0	35014	0	0	0	28425	27040	174831	26902	1052584	45050	110559	0	0	7945	667177	0	0
2024-07-24 05:06:47			0	35060	0	0	0	28420	27050	174707	27045	1052602	45051	110557	0	0	7948	665101	0	0
2024-07-24 05:07:47			0	35096	0	0	0	28436	27050	174511	27145	1052539	45051	110563	0	0	7950	663510	0	0
2024-07-24 05:08:47			0	35141	0	0	0	28433	27050	174420	27242	1052539	45041	110562	0	0	7953	661525	0	0
2024-07-24 05:09:47			0	35157	0	0	0	28428	27040	174308	27208	1052531	45062	110560	0	0	7954	660858	0	0
2024-07-24 05:10:47			0	35174	0	0	0	28423	27040	174096	27319	1052584	45062	110558	0	0	7955	660110	0	0
2024-07-24 05:11:47			0	35196	0	0	0	28425	27050	174084	26958	1052521	45051	110559	0	0	7957	659105	0	0
2024-07-24 05:12:47			0	35176	0	0	0	28423	27040	173964	26918	1052557	45040	110558	0	0	7955	660022	0	0
2024-07-24 05:13:47			0	35197	0	0	0	28410	27050	173964	27081	1052513	45051	110553	0	0	7957	659061	0	0
2024-07-24 05:14:47			0	35195	0	0	0	28418	27040	173964	26953	1052495	45062	110556	0	0	7957	659187	0	0
2024-07-24 05:15:47			0	35229	0	0	0	28407	27040	173896	26904	1052477	45050	110552	0	0	7959	657694	0	0
2024-07-24 05:16:47			0	35236	0	0	0	28425	27030	173784	26838	1052513	45049	110559	0	0	7959	657425	0	0
2024-07-24 05:17:47			0	35253	0	0	0	28420	27030	173772	26928	1052459	45061	110557	0	0	7960	656679	0	0
2024-07-24 05:18:47			0	35252	0	0	0	28420	27040	173784	26861	1052495	45040	110557	0	0	7960	656686	0	0
2024-07-24 05:19:47			0	35234	0	0	0	28415	27030	173900	26703	1052531	45048	110555	0	0	7959	657512	0	0
2024-07-24 05:20:47			0	35235	0	0	0	28412	27020	173920	26986	1052495	45038	110554	0	0	7959	657506	0	0
2024-07-24 05:21:47			0	35191	0	0	0	28415	27030	174108	27345	1052486	45061	110555	0	0	7956	659400	0	0
2024-07-24 05:22:47			0	35176	0	0	0	28420	27030	174100	27066	1052504	45060	110557	0	0	7955	660060	0	0
2024-07-24 05:23:47			0	35140	0	0	0	28412	27030	174216	26923	1052459	45061	110554	0	0	7953	661645	0	0
2024-07-24 05:24:47			0	35165	0	0	0	28415	27040	174284	27140	1052441	45040	110555	0	0	7955	660506	0	0
2024-07-24 05:25:47			0	35173	0	0	0	28415	27030	174140	27277	1052477	45038	110555	0	0	7955	660192	0	0
2024-07-24 05:26:47			0	35183	0	0	0	28405	27020	174068	27170	1052459	45048	110551	0	0	7956	659790	0	0
2024-07-24 05:27:47			0	35190	0	0	0	28410	27030	174084	27223	1052513	45049	110553	0	0	7956	659444	0	0
2024-07-24 05:28:47			0	35191	0	0	0	28397	27020	174036	26868	1052441	45060	110548	0	0	7957	659438	0	0
2024-07-24 05:29:47			0	35211	0	0	0	28397	27030	173924	27118	1052450	45048	110548	0	0	7958	658522	0	0
2024-07-24 05:30:47			0	35214	0	0	0	28386	27020	173936	27076	1052405	45071	110544	0	0	7958	658428	0	0
2024-07-24 05:31:47			0	35211	0	0	0	28389	27020	173960	27211	1052378	45048	110545	0	0	7958	658560	0	0
2024-07-24 05:32:47			0	35218	0	0	0	28386	27020	173916	27114	1052405	45048	110544	0	0	7958	658252	0	0
2024-07-24 05:33:47			0	35215	0	0	0	28389	27010	173780	27203	1052360	45025	110545	0	0	7958	658422	0	0
2024-07-24 05:34:47			0	35233	0	0	0	28379	27010	173736	27105	1052334	45047	110541	0	0	7959	657632	0	0
2024-07-24 05:35:47			0	35252	0	0	0	28389	27010	173740	27222	1052396	45037	110545	0	0	7960	656799	0	0
2024-07-24 05:36:47			0	35257	0	0	0	28389	27010	173724	27107	1052360	45047	110545	0	0	7961	656579	0	0
2024-07-24 05:37:47			0	35257	0	0	0	28374	27000	173500	27176	1052316	45046	110539	0	0	7961	656617	0	0
2024-07-24 05:38:47			0	35271	0	0	0	28381	27010	173608	27355	1052280	45047	110542	0	0	7962	655966	0	0
2024-07-24 05:39:47			0	35252	0	0	0	28379	27000	173700	27150	1052289	45046	110541	0	0	7961	656836	0	0
2024-07-24 05:40:47			0	35248	0	0	0	28374	27000	173788	27020	1052352	45047	110539	0	0	7960	657012	0	0
2024-07-24 05:41:47			0	35239	0	0	0	28376	26990	173844	26717	1052325	45056	110540	0	0	7960	657444	0	0
2024-07-24 05:42:47			0	35212	0	0	0	28379	26990	174012	27072	1052280	45046	110541	0	0	7958	658629	0	0
2024-07-24 05:43:47			0	35196	0	0	0	28368	26990	173980	27175	1052280	45035	110537	0	0	7957	659332	0	0
2024-07-24 05:44:47			0	35206	0	0	0	28366	26980	173944	27149	1052289	45045	110536	0	0	7958	658930	0	0
2024-07-24 05:45:47			0	35208	0	0	0	28361	26980	174008	27055	1052289	45056	110534	0	0	7958	658842	0	0
2024-07-24 05:46:47			0	35210	0	0	0	28371	26980	173884	27258	1052334	45044	110538	0	0	7958	658755	0	0
2024-07-24 05:47:47			0	35209	0	0	0	28366	27000	173992	27230	1052235	45035	110536	0	0	7958	658723	0	0
2024-07-24 05:48:47			0	35212	0	0	0	28358	26970	173920	27137	1052271	45044	110533	0	0	7958	658704	0	0
2024-07-24 05:49:47			0	35190	0	0	0	28358	26980	173928	27102	1052235	45056	110533	0	0	7957	659634	0	0
2024-07-24 05:50:47			0	35204	0	0	0	28358	26980	174016	27140	1052227	45033	110533	0	0	7958	659018	0	0
2024-07-24 05:51:47			0	35176	0	0	0	28355	26980	174052	27010	1052200	45044	110532	0	0	7956	660249	0	0
2024-07-24 05:52:47			0	35145	0	0	0	28353	26980	174272	26866	1052173	45044	110531	0	0	7954	661614	0	0
2024-07-24 05:53:47			0	35139	0	0	0	28337	26970	174216	27211	1052191	45055	110525	0	0	7954	661917	0	0
2024-07-24 05:54:47			0	35131	0	0	0	28348	26960	174316	27365	1052173	45054	110529	0	0	7953	662308	0	0
2024-07-24 05:55:47			0	35147	0	0	0	28348	26980	174312	27338	1052173	45055	110529	0	0	7954	661526	0	0
2024-07-24 05:56:47			0	35121	0	0	0	28342	26970	174284	27294	1052164	45055	110527	0	0	7953	662711	0	0
2024-07-24 05:57:47			0	35112	0	0	0	28337	26970	174391	27007	1052182	45043	110525	0	0	7952	663108	0	0
2024-07-24 05:58:47			0	35102	0	0	0	28345	26960	174455	27185	1052173	45043	110528	0	0	7952	663587	0	0
2024-07-24 05:59:47			0	35073	0	0	0	28345	26970	174603	27102	1052164	45055	110528	0	0	7950	664831	0	0
2024-07-24 06:00:47			0	35057	0	0	0	28327	26960	174699	27343	1052146	45043	110521	0	0	7949	665577	0	0
2024-07-24 06:01:47			0	35063	0	0	0	28332	26950	174783	27104	1052075	45042	110523	0	0	7949	665350	0	0
2024-07-24 06:02:47			0	35030	0	0	0	28335	26950	174811	27248	1052182	45053	110524	0	0	7947	666812	0	0
2024-07-24 06:03:47			0	35016	0	0	0	28340	26950	174875	27010	1052102	45042	110526	0	0	7946	667432	0	0
2024-07-24 06:04:47			0	35003	0	0	0	28332	26960	174999	27085	1052093	45043	110523	0	0	7946	667971	0	0
2024-07-24 06:05:47			0	34973	0	0	0	28337	26950	175015	26908	1052093	45030	110525	0	0	7944	669342	0	0
2024-07-24 06:06:47			0	34955	0	0	0	28332	26950	175115	26986	1052129	45064	110523	0	0	7942	670142	0	0
2024-07-24 06:07:47			0	34965	0	0	0	28337	26950	175243	27185	1052048	45031	110525	0	0	7943	669698	0	0
2024-07-24 06:08:47			0	34927	0	0	0	28342	26950	175303	27256	1052093	45052	110527	0	0	7941	671389	0	0
2024-07-24 06:09:47			0	34916	0	0	0	28345	26940	175411	27300	1052084	45064	110528	0	0	7940	671918	0	0
2024-07-24 06:10:47			0	34898	0	0	0	28342	26950	175419	27310	1052102	45042	110527	0	0	7939	672682	0	0
2024-07-24 06:11:47			0	34886	0	0	0	28329	26950	175655	27145	1052075	45042	110522	0	0	7938	673218	0	0
2024-07-24 06:12:47			0	34865	0	0	0	28324	26950	175763	27020	1052039	45064	110520	0	0	7937	674156	0	0
2024-07-24 06:13:47			0	34836	0	0	0	28329	26950	175799	27511	1052066	45052	110522	0	0	7935	675453	0	0
2024-07-24 06:14:47			0	34812	0	0	0	28329	26940	175951	27225	1052111	45052	110522	0	0	7933	676567	0	0
2024-07-24 06:15:47			0	34800	0	0	0	28337	26940	176159	27093	1052084	45052	110525	0	0	7932	677105	0	0
2024-07-24 06:16:47			0	34786	0	0	0	28355	26950	176079	27308	1052066	45052	110532	0	0	7931	677694	0	0
2024-07-24 06:17:47			0	34768	0	0	0	28353	26950	176275	27126	1052021	45042	110531	0	0	7930	678502	0	0
2024-07-24 06:18:47			0	34765	0	0	0	28353	26950	176195	26915	1052093	45019	110531	0	0	7930	678637	0	0
2024-07-24 06:19:47			0	34751	0	0	0	28350	26940	176259	27020	1052057	45041	110530	0	0	7929	679305	0	0
2024-07-24 06:20:47			0	34762	0	0	0	28345	26950	176199	27131	1052039	45064	110528	0	0	7930	678771	0	0
2024-07-24 06:21:47			0	34747	0	0	0	28340	26940	176315	27083	1052084	45041	110526	0	0	7929	679485	0	0
2024-07-24 06:22:47			0	34775	0	0	0	28332	26940	176187	26844	1052084	45052	110523	0	0	7931	678227	0	0
2024-07-24 06:23:47			0	34787	0	0	0	28337	26930	176195	27138	1051995	45041	110525	0	0	7932	677727	0	0
2024-07-24 06:24:47			0	34791	0	0	0	28329	26930	176159	27154	1052021	45041	110522	0	0	7932	677547	0	0
2024-07-24 06:25:47			0	34817	0	0	0	28345	26930	175919	27211	1052066	45050	110528	0	0	7933	676382	0	0
2024-07-24 06:26:47			0	34855	0	0	0	28350	26920	175851	26854	1052004	45040	110530	0	0	7936	674719	0	0
2024-07-24 06:27:47			0	34868	0	0	0	28348	26930	175695	27268	1052048	45041	110529	0	0	7937	674099	0	0
2024-07-24 06:28:47			0	34898	0	0	0	28355	26930	175543	26939	1052048	45051	110532	0	0	7938	672759	0	0
2024-07-24 06:29:47			0	34910	0	0	0	28368	26920	175399	27282	1052031	45050	110537	0	0	7939	672263	0	0
2024-07-24 06:30:47			0	34932	0	0	0	28363	26930	175407	27142	1052066	45062	110535	0	0	7940	671243	0	0
2024-07-24 06:31:47			0	34944	0	0	0	28355	26930	175331	27071	1052129	45051	110532	0	0	7941	670709	0	0
2024-07-24 06:32:47			0	34938	0	0	0	28366	26930	175363	27175	1052021	45074	110536	0	0	7941	670976	0	0
2024-07-24 06:33:47			0	34951	0	0	0	28371	26950	175283	27229	1052173	45052	110538	0	0	7942	670320	0	0
2024-07-24 06:34:47			0	34959	0	0	0	28366	26930	175283	27455	1052129	45051	110536	0	0	7942	670041	0	0
2024-07-24 06:35:47			0	34976	0	0	0	28363	26940	175215	27301	1052084	45052	110535	0	0	7943	669247	0	0
2024-07-24 06:36:47			0	34964	0	0	0	28340	26930	175207	27066	1052048	45029	110526	0	0	7943	669819	0	0
2024-07-24 06:37:47			0	34979	0	0	0	28314	26930	175143	26819	1051995	45051	110516	0	0	7944	669152	0	0
2024-07-24 06:38:47			0	34993	0	0	0	28311	26930	175167	27095	1051932	45040	110515	0	0	7945	668530	0	0
2024-07-24 06:39:47			0	35003	0	0	0	28301	26920	175031	27112	1051923	45017	110511	0	0	7946	668124	0	0
2024-07-24 06:40:47			0	35009	0	0	0	28296	26910	175019	27261	1051852	45016	110509	0	0	7946	667896	0	0
2024-07-24 06:41:47			0	35029	0	0	0	28293	26920	174791	27031	1051914	45049	110508	0	0	7948	666971	0	0
2024-07-24 06:42:47			0	35031	0	0	0	28293	26910	174863	27270	1051869	45038	110508	0	0	7948	666920	0	0
2024-07-24 06:43:47			0	35051	0	0	0	28290	26910	174887	27163	1051878	45061	110507	0	0	7949	666034	0	0
2024-07-24 06:44:47			0	35047	0	0	0	28277	26900	174771	27362	1051860	45038	110502	0	0	7949	666249	0	0
2024-07-24 06:45:47			0	35032	0	0	0	28290	26910	174763	27114	1051816	45026	110507	0	0	7948	666876	0	0
2024-07-24 06:46:47			0	35054	0	0	0	28296	26910	174743	27476	1051896	45048	110509	0	0	7949	665901	0	0
2024-07-24 06:47:47			0	35058	0	0	0	28283	26900	174787	27189	1051852	45047	110504	0	0	7950	665762	0	0
2024-07-24 06:48:47			0	35068	0	0	0	28293	26890	174807	27391	1051843	45047	110508	0	0	7950	665357	0	0
2024-07-24 06:49:47			0	35058	0	0	0	28298	26900	174847	27564	1051887	45048	110510	0	0	7949	665762	0	0
2024-07-24 06:50:47			0	35047	0	0	0	28306	26910	174731	27448	1051932	45061	110513	0	0	7949	666211	0	0
2024-07-24 06:51:47			0	35036	0	0	0	28316	26910	174831	27526	1051932	45061	110517	0	0	7948	666698	0	0
2024-07-24 06:52:47			0	35033	0	0	0	28322	26910	174783	27760	1051950	45060	110519	0	0	7947	666831	0	0
2024-07-24 06:53:47			0	35024	0	0	0	28327	26910	174931	27620	1052004	45060	110521	0	0	7947	667231	0	0
2024-07-24 06:54:47			0	35005	0	0	0	28309	26910	174907	27183	1051950	45060	110514	0	0	7946	668074	0	0
2024-07-24 06:55:47			0	34995	0	0	0	28306	26920	175023	27727	1051995	45061	110513	0	0	7945	668479	0	0
2024-07-24 06:56:47			0	34981	0	0	0	28303	26910	175123	27666	1051986	45039	110512	0	0	7944	669140	0	0
2024-07-24 06:57:47			0	34943	0	0	0	28311	26920	175175	27592	1051950	45040	110515	0	0	7942	670792	0	0
2024-07-24 06:58:47			0	34941	0	0	0	28306	26910	175371	27807	1051977	45048	110513	0	0	7942	670919	0	0
2024-07-24 06:59:47			0	34925	0	0	0	28311	26910	175327	27540	1051977	45026	110515	0	0	7941	671632	0	0
2024-07-24 07:00:47			0	34918	0	0	0	28311	26910	175347	27545	1051986	45061	110515	0	0	7940	671944	0	0
2024-07-24 07:01:47			0	34906	0	0	0	28314	26910	175443	28044	1051959	45049	110516	0	0	7939	672480	0	0
2024-07-24 07:02:47			0	34907	0	0	0	28301	26910	175399	27587	1051932	45039	110511	0	0	7940	672435	0	0
2024-07-24 07:03:47			0	34918	0	0	0	28316	26910	175475	27112	1051932	45061	110517	0	0	7940	671944	0	0
2024-07-24 07:04:47			0	34901	0	0	0	28303	26910	175483	27516	1052040	45061	110512	0	0	7939	672703	0	0
2024-07-24 07:05:47			0	34908	0	0	0	28311	26910	175463	28129	1052013	45039	110515	0	0	7940	672390	0	0
2024-07-24 07:06:47			0	34905	0	0	0	28327	26920	175507	27659	1052004	45040	110521	0	0	7939	672486	0	0
2024-07-24 07:07:47			0	34921	0	0	0	28322	26920	175359	27640	1052022	45049	110519	0	0	7940	671772	0	0
2024-07-24 07:08:47			0	34929	0	0	0	28327	26930	175451	27644	1052066	45040	110521	0	0	7941	671377	0	0
2024-07-24 07:09:47			0	34929	0	0	0	28327	26920	175359	27933	1052031	45040	110521	0	0	7941	671415	0	0
2024-07-24 07:10:47			0	34926	0	0	0	28319	26930	175291	27447	1051986	45050	110518	0	0	7941	671511	0	0
2024-07-24 07:11:47			0	34936	0	0	0	28238	26920	175375	27711	1051896	45040	110487	0	0	7943	671104	0	0
2024-07-24 07:12:47			0	34959	0	0	0	28223	26910	175203	27906	1051852	45016	110481	0	0	7944	670118	0	0
2024-07-24 07:13:47			0	35028	0	0	0	28231	26900	174807	27644	1051825	45026	110484	0	0	7949	667091	0	0
2024-07-24 07:14:47			0	35106	0	0	0	28244	26880	174543	27807	1051798	45035	110489	0	0	7953	663715	0	0
2024-07-24 07:15:47			0	35149	0	0	0	28257	26880	174268	27542	1051771	45035	110494	0	0	7956	661818	0	0
2024-07-24 07:16:47			0	35199	0	0	0	28270	26880	174024	27878	1051762	45035	110499	0	0	7958	659616	0	0
2024-07-24 07:17:47			0	35249	0	0	0	28275	26880	173820	27800	1051789	45045	110501	0	0	7962	657420	0	0
2024-07-24 07:18:47			0	35281	0	0	0	28275	26870	173672	27471	1051807	45057	110501	0	0	7963	656055	0	0
2024-07-24 07:19:47			0	35325	0	0	0	28267	26880	173520	27322	1051762	45024	110498	0	0	7966	654092	0	0
2024-07-24 07:20:47			0	35340	0	0	0	28283	26870	173388	27433	1051754	45035	110504	0	0	7967	653474	0	0
2024-07-24 07:21:47			0	35338	0	0	0	28277	26880	173420	27656	1051744	45045	110502	0	0	7967	653524	0	0
2024-07-24 07:22:47			0	35342	0	0	0	28283	26880	173368	27543	1051736	45057	110504	0	0	7967	653350	0	0
2024-07-24 07:23:47			0	35345	0	0	0	28285	26880	173472	27710	1051789	45035	110505	0	0	7967	653218	0	0
2024-07-24 07:24:47			0	35325	0	0	0	28296	26880	173376	27528	1051852	45045	110509	0	0	7966	654092	0	0
2024-07-24 07:25:47			0	35326	0	0	0	28285	26880	173548	27398	1051816	45035	110505	0	0	7966	654048	0	0
2024-07-24 07:26:47			0	35317	0	0	0	28285	26870	173512	27904	1051807	45035	110505	0	0	7966	654479	0	0
2024-07-24 07:27:47			0	35318	0	0	0	28285	26870	173508	27729	1051780	45045	110505	0	0	7966	654436	0	0
2024-07-24 07:28:47			0	35320	0	0	0	28267	26870	173624	27725	1051780	45045	110498	0	0	7966	654348	0	0
2024-07-24 07:29:47			0	35331	0	0	0	28270	26880	173480	27937	1051798	45035	110499	0	0	7967	653830	0	0
2024-07-24 07:30:47			0	35343	0	0	0	28270	26870	173440	28508	1051807	45045	110499	0	0	7967	653343	0	0
2024-07-24 07:31:47			0	35340	0	0	0	28270	26870	173316	27876	1051754	45045	110499	0	0	7967	653474	0	0
2024-07-24 07:32:47			0	35350	0	0	0	28262	26880	173212	27609	1051789	45045	110496	0	0	7968	653000	0	0
2024-07-24 07:33:47			0	35382	0	0	0	28251	26870	173136	27355	1051700	45045	110492	0	0	7970	651642	0	0
2024-07-24 07:34:47			0	35396	0	0	0	28257	26870	172956	28055	1051754	45035	110494	0	0	7971	651032	0	0
2024-07-24 07:35:47			0	35407	0	0	0	28272	26860	173048	28306	1051736	45043	110500	0	0	7971	650590	0	0
2024-07-24 07:36:47			0	35413	0	0	0	28257	26880	173008	27961	1051762	45045	110494	0	0	7972	650255	0	0
2024-07-24 07:37:47			0	35436	0	0	0	28262	26860	172936	27689	1051790	45033	110496	0	0	7973	649329	0	0
2024-07-24 07:38:47			0	35434	0	0	0	28257	26880	172948	27862	1051816	45035	110494	0	0	7973	649341	0	0
2024-07-24 07:39:47			0	35473	0	0	0	28264	26870	172820	27402	1051825	45034	110497	0	0	7976	647685	0	0
2024-07-24 07:40:47			0	35485	0	0	0	28262	26870	172708	28037	1051798	45056	110496	0	0	7976	647164	0	0
2024-07-24 07:41:47			0	35524	0	0	0	28270	26870	172548	27327	1051780	45035	110499	0	0	7979	645475	0	0
2024-07-24 07:42:47			0	35545	0	0	0	28267	26870	172436	27668	1051798	45034	110498	0	0	7980	644566	0	0
2024-07-24 07:43:47			0	35586	0	0	0	28251	26880	172188	27840	1051816	45045	110492	0	0	7983	642758	0	0
2024-07-24 07:44:47			0	35599	0	0	0	28254	26870	172212	28301	1051772	45034	110493	0	0	7984	642234	0	0
2024-07-24 07:45:47			0	35606	0	0	0	28262	26870	172132	27545	1051798	45056	110496	0	0	7984	641933	0	0
2024-07-24 07:46:47			0	35586	0	0	0	28262	26870	172204	27855	1051861	45045	110496	0	0	7983	642795	0	0
2024-07-24 07:47:47			0	35576	0	0	0	28264	26870	172252	27737	1051780	45024	110497	0	0	7982	643227	0	0
2024-07-24 07:48:47			0	35555	0	0	0	28257	26870	172200	27951	1051834	45035	110494	0	0	7981	644134	0	0
2024-07-24 07:49:47			0	35537	0	0	0	28244	26860	172448	27497	1051754	45033	110489	0	0	7980	644949	0	0
2024-07-24 07:50:47			0	35512	0	0	0	28251	26870	172588	27793	1051727	45024	110492	0	0	7978	645994	0	0
2024-07-24 07:51:47			0	35493	0	0	0	28236	26880	172592	28575	1051789	45045	110486	0	0	7977	646780	0	0
2024-07-24 07:52:47			0	35461	0	0	0	28238	26860	172672	27675	1051709	45033	110487	0	0	7975	648243	0	0
2024-07-24 07:53:47			0	35406	0	0	0	28238	26870	172908	28575	1051691	45044	110487	0	0	7972	650597	0	0
2024-07-24 07:54:47			0	35383	0	0	0	28241	26870	173228	27627	1051745	45023	110488	0	0	7970	651598	0	0
2024-07-24 07:55:47			0	35307	0	0	0	28251	26860	173556	28133	1051709	45022	110492	0	0	7965	654954	0	0
2024-07-24 07:56:47			0	35248	0	0	0	28251	26870	173824	28076	1051718	45044	110492	0	0	7962	657501	0	0
2024-07-24 07:57:47			0	35213	0	0	0	28270	26860	174088	27457	1051736	45055	110499	0	0	7959	659076	0	0
2024-07-24 07:58:47			0	35196	0	0	0	28264	26860	174140	27692	1051754	45043	110497	0	0	7958	659824	0	0
2024-07-24 07:59:47			0	35174	0	0	0	28267	26870	174256	28168	1051807	45035	110498	0	0	7957	660754	0	0
2024-07-24 08:00:47			0	35206	0	0	0	28267	26870	174144	27519	1051807	45045	110498	0	0	7959	659346	0	0
2024-07-24 08:01:47			0	35234	0	0	0	28267	26860	173948	28880	1051763	45043	110498	0	0	7961	658154	0	0
2024-07-24 08:02:47			0	35263	0	0	0	28270	26860	173708	27751	1051682	45033	110499	0	0	7962	656881	0	0
2024-07-24 08:03:47			0	35317	0	0	0	28272	26860	173508	27602	1051763	45043	110500	0	0	7966	654517	0	0
2024-07-24 08:04:47			0	35336	0	0	0	28277	26870	173268	28027	1051807	45045	110502	0	0	7967	653649	0	0
2024-07-24 08:05:47			0	35431	0	0	0	28275	26880	172984	28022	1051870	45045	110501	0	0	7973	649472	0	0
2024-07-24 08:06:47			0	35457	0	0	0	28277	26880	172796	27675	1051852	45045	110502	0	0	7974	648342	0	0
2024-07-24 08:07:47			0	35539	0	0	0	28277	26880	172468	27364	1051816	45035	110502	0	0	7980	644789	0	0
2024-07-24 08:08:47			0	35632	0	0	0	28288	26870	172040	27685	1051834	45057	110506	0	0	7985	640812	0	0
2024-07-24 08:09:47			0	35731	0	0	0	28283	26880	171572	27899	1051816	45057	110504	0	0	7991	636524	0	0
2024-07-24 08:10:47			0	35819	0	0	0	28280	26880	171088	27627	1051843	45035	110503	0	0	7997	632762	0	0
2024-07-24 08:11:47			0	35929	0	0	0	28283	26890	170677	27613	1051861	45058	110504	0	0	8003	628045	0	0
2024-07-24 08:12:47			0	35994	0	0	0	28288	26870	170245	28025	1051807	45035	110506	0	0	8007	625363	0	0
2024-07-24 08:13:47			0	36072	0	0	0	28298	26890	169821	27450	1051977	45059	110510	0	0	8012	621998	0	0
2024-07-24 08:14:47			0	36118	0	0	0	28303	26890	169605	28282	1051888	45046	110512	0	0	8014	620061	0	0
2024-07-24 08:15:47			0	36161	0	0	0	28303	26890	169481	27445	1051950	45059	110512	0	0	8017	618255	0	0
2024-07-24 08:16:47			0	36169	0	0	0	28293	26890	169337	28218	1051950	45059	110508	0	0	8018	617920	0	0
2024-07-24 08:17:47			0	36198	0	0	0	28314	26900	169209	28091	1051968	45048	110516	0	0	8019	616668	0	0
2024-07-24 08:18:47			0	36209	0	0	0	28301	26900	169093	28107	1051887	45038	110511	0	0	8020	616208	0	0
2024-07-24 08:19:47			0	36247	0	0	0	28311	26890	168973	27932	1051941	45036	110515	0	0	8022	614654	0	0
2024-07-24 08:20:47			0	36274	0	0	0	28309	26890	168893	28320	1051950	45037	110514	0	0	8024	613526	0	0
2024-07-24 08:21:47			0	36296	0	0	0	28311	26900	168937	28067	1051968	45048	110515	0	0	8025	612573	0	0
2024-07-24 08:22:47			0	36294	0	0	0	28309	26900	168829	27407	1051995	45038	110514	0	0	8025	612657	0	0
2024-07-24 08:23:47			0	36326	0	0	0	28311	26900	168641	27523	1051914	45038	110515	0	0	8027	611323	0	0
2024-07-24 08:24:47			0	36341	0	0	0	28309	26910	168669	27907	1051896	45026	110514	0	0	8028	610664	0	0
2024-07-24 08:25:47			0	36347	0	0	0	28301	26900	168469	27341	1051941	45038	110511	0	0	8028	610449	0	0
2024-07-24 08:26:47			0	36373	0	0	0	28303	26900	168533	27265	1051968	45026	110512	0	0	8030	609369	0	0
2024-07-24 08:27:47			0	36389	0	0	0	28303	26890	168341	27492	1051896	45026	110512	0	0	8031	608739	0	0
2024-07-24 08:28:47			0	36382	0	0	0	28296	26890	168377	27244	1051870	45047	110509	0	0	8030	609030	0	0
2024-07-24 08:29:47			0	36393	0	0	0	28296	26900	168349	27405	1051968	45048	110509	0	0	8031	608538	0	0
2024-07-24 08:30:47			0	36394	0	0	0	28293	26900	168245	27478	1051905	45047	110508	0	0	8031	608497	0	0
2024-07-24 08:31:47			0	36398	0	0	0	28296	26890	168257	27208	1051923	45047	110509	0	0	8031	608366	0	0
2024-07-24 08:32:47			0	36395	0	0	0	28301	26900	168285	27275	1051932	45047	110511	0	0	8031	608455	0	0
2024-07-24 08:33:47			0	36415	0	0	0	28298	26910	168317	27135	1051923	45060	110510	0	0	8033	607591	0	0
2024-07-24 08:34:47			0	36430	0	0	0	28309	26900	168137	27521	1051959	45037	110514	0	0	8033	607004	0	0
2024-07-24 08:35:47			0	36423	0	0	0	28314	26900	168125	27161	1051995	45048	110516	0	0	8033	607294	0	0
2024-07-24 08:36:47			0	36456	0	0	0	28309	26900	168001	27206	1051968	45048	110514	0	0	8035	605927	0	0
2024-07-24 08:37:47			0	36474	0	0	0	28322	26910	167925	27225	1052013	45039	110519	0	0	8036	605148	0	0
2024-07-24 08:38:47			0	36507	0	0	0	28314	26900	167793	27267	1051995	45060	110516	0	0	8038	603820	0	0
2024-07-24 08:39:47			0	36554	0	0	0	28324	26910	167577	27320	1052004	45048	110520	0	0	8040	601847	0	0
2024-07-24 08:40:47			0	36607	0	0	0	28324	26910	167506	27367	1052040	45039	110520	0	0	8044	599667	0	0
2024-07-24 08:41:47			0	36623	0	0	0	28332	26910	167254	27296	1052120	45049	110523	0	0	8044	599010	0	0
2024-07-24 08:42:47			0	36657	0	0	0	28332	26920	167134	27388	1052049	45049	110523	0	0	8046	597581	0	0
2024-07-24 08:43:47			0	36680	0	0	0	28335	26920	167054	27343	1052075	45049	110524	0	0	8048	596639	0	0
2024-07-24 08:44:47			0	36691	0	0	0	28353	26920	166946	27138	1052111	45050	110531	0	0	8048	596189	0	0
2024-07-24 08:45:47			0	36712	0	0	0	28348	26930	166802	27329	1052120	45050	110529	0	0	8049	595296	0	0
2024-07-24 08:46:47			0	36732	0	0	0	28342	26920	166770	27163	1052138	45062	110527	0	0	8051	594513	0	0
2024-07-24 08:47:47			0	36737	0	0	0	28340	26930	166686	27133	1052147	45050	110526	0	0	8051	594275	0	0
2024-07-24 08:48:47			0	36716	0	0	0	28342	26930	166758	27067	1052039	45040	110527	0	0	8050	595132	0	0
2024-07-24 08:49:47			0	36723	0	0	0	28345	26930	166714	27039	1052201	45050	110528	0	0	8050	594846	0	0
2024-07-24 08:50:47			0	36700	0	0	0	28348	26940	166890	27263	1052165	45052	110529	0	0	8049	595752	0	0
2024-07-24 08:51:47			0	36665	0	0	0	28358	26940	166942	27118	1052218	45030	110533	0	0	8047	597185	0	0
2024-07-24 08:52:47			0	36622	0	0	0	28363	26950	167258	27390	1052200	45041	110535	0	0	8044	598914	0	0
2024-07-24 08:53:47			0	36599	0	0	0	28371	26950	167309	26911	1052200	45041	110538	0	0	8042	599858	0	0
2024-07-24 08:54:47			0	36570	0	0	0	28368	26960	167329	27258	1052245	45053	110537	0	0	8041	601016	0	0
2024-07-24 08:55:47			0	36553	0	0	0	28363	26950	167461	27225	1052236	45053	110535	0	0	8040	601750	0	0
2024-07-24 08:56:47			0	36528	0	0	0	28376	26960	167593	27306	1052245	45053	110540	0	0	8038	602746	0	0
2024-07-24 08:57:47			0	36503	0	0	0	28371	26960	167693	27248	1052245	45053	110538	0	0	8037	603777	0	0
2024-07-24 08:58:47			0	36468	0	0	0	28368	26960	167901	27390	1052281	45054	110537	0	0	8035	605223	0	0
2024-07-24 08:59:47			0	36447	0	0	0	28379	26960	167977	27303	1052281	45065	110541	0	0	8033	606092	0	0
2024-07-24 09:00:47			0	36433	0	0	0	28381	26960	168009	27306	1052281	45054	110542	0	0	8032	606671	0	0
2024-07-24 09:01:47			0	36430	0	0	0	28386	26970	167957	27157	1052325	45066	110544	0	0	8032	606760	0	0
2024-07-24 09:02:47			0	36477	0	0	0	28371	26960	167745	27209	1052308	45065	110538	0	0	8035	604851	0	0
2024-07-24 09:03:47			0	36486	0	0	0	28379	26970	167777	27595	1052316	45043	110541	0	0	8036	604444	0	0
2024-07-24 09:04:47			0	36468	0	0	0	28368	26970	167829	27502	1052343	45065	110537	0	0	8035	605188	0	0
2024-07-24 09:05:47			0	36520	0	0	0	28374	26980	167669	27660	1052334	45055	110539	0	0	8038	603007	0	0
2024-07-24 09:06:47			0	36468	0	0	0	28371	26980	167809	27478	1052388	45055	110538	0	0	8035	605154	0	0
2024-07-24 09:07:47			0	36382	0	0	0	28366	26970	168317	27497	1052352	45055	110536	0	0	8030	608750	0	0
2024-07-24 09:08:47			0	36275	0	0	0	28363	26970	168605	27341	1052379	45044	110535	0	0	8023	613203	0	0
2024-07-24 09:09:47			0	36201	0	0	0	28363	26970	168905	27415	1052343	45065	110535	0	0	8019	616295	0	0
2024-07-24 09:10:47			0	36135	0	0	0	28371	26980	169309	27287	1052334	45044	110538	0	0	8015	619028	0	0
2024-07-24 09:11:47			0	36081	0	0	0	28361	26980	169529	27225	1052343	45056	110534	0	0	8012	621298	0	0
2024-07-24 09:12:47			0	36027	0	0	0	28355	26970	169769	27324	1052325	45044	110532	0	0	8008	623610	0	0
2024-07-24 09:13:47			0	35987	0	0	0	28361	26970	170005	26955	1052325	45055	110534	0	0	8006	625301	0	0
2024-07-24 09:14:47			0	35949	0	0	0	28363	26970	170181	26930	1052316	45054	110535	0	0	8004	626909	0	0
2024-07-24 09:15:47			0	35917	0	0	0	28363	26970	170365	27272	1052290	45065	110535	0	0	8002	628266	0	0
2024-07-24 09:16:47			0	35898	0	0	0	28361	26970	170501	27322	1052263	45054	110534	0	0	8001	629073	0	0
2024-07-24 09:17:47			0	35866	0	0	0	28366	26970	170553	27013	1052298	45055	110536	0	0	7999	630433	0	0
2024-07-24 09:18:47			0	35854	0	0	0	28355	26970	170652	27185	1052316	45054	110532	0	0	7998	630944	0	0
2024-07-24 09:19:47			0	35829	0	0	0	28355	26980	170776	27268	1052280	45044	110532	0	0	7997	631973	0	0
2024-07-24 09:20:47			0	35821	0	0	0	28358	26970	170836	27166	1052218	45044	110533	0	0	7996	632350	0	0
2024-07-24 09:21:47			0	35777	0	0	0	28355	26970	170996	26975	1052271	45044	110532	0	0	7993	634228	0	0
2024-07-24 09:22:47			0	35766	0	0	0	28366	26970	171072	27149	1052263	45054	110536	0	0	7992	634698	0	0
2024-07-24 09:23:47			0	35759	0	0	0	28355	26980	171140	26949	1052280	45055	110532	0	0	7992	634961	0	0
2024-07-24 09:24:47			0	35741	0	0	0	28361	26960	171252	26738	1052299	45053	110534	0	0	7991	635804	0	0
2024-07-24 09:25:47			0	35727	0	0	0	28363	26970	171248	27152	1052245	45066	110535	0	0	7990	636367	0	0
2024-07-24 09:26:47			0	35708	0	0	0	28363	26970	171324	27270	1052298	45044	110535	0	0	7989	637181	0	0
2024-07-24 09:27:47			0	35711	0	0	0	28374	26970	171364	27190	1052316	45054	110539	0	0	7989	637053	0	0
2024-07-24 09:28:47			0	35679	0	0	0	28381	26980	171408	27300	1052415	45044	110542	0	0	7987	638389	0	0
2024-07-24 09:29:47			0	35675	0	0	0	28405	26980	171452	27281	1052334	45066	110551	0	0	7986	638560	0	0
2024-07-24 09:30:47			0	35670	0	0	0	28407	26980	171428	27244	1052477	45056	110552	0	0	7986	638775	0	0
2024-07-24 09:31:47			0	35664	0	0	0	28410	26980	171488	27083	1052450	45056	110553	0	0	7985	639033	0	0
2024-07-24 09:32:47			0	35661	0	0	0	28415	27000	171560	27170	1052513	45058	110555	0	0	7985	639088	0	0
2024-07-24 09:33:47			0	35649	0	0	0	28425	27010	171500	27256	1052522	45069	110559	0	0	7984	639567	0	0
2024-07-24 09:34:47			0	35671	0	0	0	28425	27010	171436	27298	1052549	45058	110559	0	0	7986	638622	0	0
2024-07-24 09:35:47			0	35686	0	0	0	28436	27010	171428	26953	1052522	45069	110563	0	0	7987	637978	0	0
2024-07-24 09:36:47			0	35717	0	0	0	28431	27010	171236	27254	1052611	45059	110561	0	0	7989	636649	0	0
2024-07-24 09:37:47			0	35776	0	0	0	28441	27030	170944	27339	1052611	45048	110565	0	0	7992	634052	0	0
2024-07-24 09:38:47			0	35878	0	0	0	28436	27020	170625	27391	1052593	45071	110563	0	0	7998	629743	0	0
2024-07-24 09:39:47			0	35924	0	0	0	28431	27030	170169	27183	1052665	45071	110561	0	0	8001	627753	0	0
2024-07-24 09:40:47			0	36034	0	0	0	28438	27010	169757	27263	1052585	45070	110564	0	0	8008	623172	0	0
2024-07-24 09:41:47			0	36084	0	0	0	28436	27020	169429	27448	1052710	45048	110563	0	0	8011	621029	0	0
2024-07-24 09:42:47			0	36142	0	0	0	28449	27030	169313	27469	1052638	45060	110568	0	0	8014	618556	0	0
2024-07-24 09:43:47			0	36158	0	0	0	28444	27040	169005	27332	1052710	45062	110566	0	0	8015	617849	0	0
2024-07-24 09:44:47			0	36192	0	0	0	28444	27040	169053	27246	1052683	45073	110566	0	0	8017	616425	0	0
2024-07-24 09:45:47			0	36228	0	0	0	28457	27040	168873	27381	1052692	45073	110571	0	0	8019	614919	0	0
2024-07-24 09:46:47			0	36227	0	0	0	28446	27040	168841	27142	1052719	45062	110567	0	0	8019	614961	0	0
2024-07-24 09:47:47			0	36221	0	0	0	28454	27040	168773	27300	1052710	45073	110570	0	0	8019	615212	0	0
2024-07-24 09:48:47			0	36236	0	0	0	28449	27040	168801	27281	1052719	45050	110568	0	0	8020	614585	0	0
2024-07-24 09:49:47			0	36240	0	0	0	28451	27050	168837	27121	1052728	45085	110569	0	0	8020	614382	0	0
2024-07-24 09:50:47			0	36235	0	0	0	28449	27040	168789	27386	1052736	45062	110568	0	0	8020	614626	0	0
2024-07-24 09:51:47			0	36218	0	0	0	28459	27050	168797	27197	1052755	45063	110572	0	0	8019	615302	0	0
2024-07-24 09:52:47			0	36207	0	0	0	28457	27040	168817	26934	1052719	45062	110571	0	0	8018	615797	0	0
2024-07-24 09:53:47			0	36196	0	0	0	28451	27050	169013	27256	1052728	45063	110569	0	0	8017	616222	0	0
2024-07-24 09:54:47			0	36199	0	0	0	28454	27050	168945	27152	1052763	45063	110570	0	0	8018	616096	0	0
2024-07-24 09:55:47			0	36152	0	0	0	28459	27060	169065	27176	1052754	45064	110572	0	0	8015	618030	0	0
2024-07-24 09:56:47			0	36148	0	0	0	28451	27050	169105	27147	1052763	45074	110569	0	0	8015	618233	0	0
2024-07-24 09:57:47			0	36130	0	0	0	28459	27050	169233	27258	1052817	45074	110572	0	0	8013	618989	0	0
2024-07-24 09:58:47			0	36087	0	0	0	28472	27060	169329	27346	1052808	45064	110577	0	0	8011	620761	0	0
2024-07-24 09:59:47			0	36052	0	0	0	28477	27060	169421	27616	1052799	45075	110579	0	0	8008	622234	0	0
2024-07-24 10:00:47			0	36039	0	0	0	28475	27060	169629	27381	1052808	45052	110578	0	0	8008	622782	0	0
2024-07-24 10:01:47			0	36010	0	0	0	28480	27060	169821	27543	1052889	45064	110580	0	0	8006	624006	0	0
2024-07-24 10:02:47			0	35981	0	0	0	28490	27070	169829	27386	1052897	45065	110584	0	0	8004	625196	0	0
2024-07-24 10:03:47			0	35966	0	0	0	28490	27070	170021	27518	1052879	45065	110584	0	0	8003	625830	0	0
2024-07-24 10:04:47			0	35973	0	0	0	28490	27080	169909	27275	1052924	45067	110584	0	0	8003	625498	0	0
2024-07-24 10:05:47			0	35983	0	0	0	28498	27080	169781	27197	1052942	45077	110587	0	0	8004	625075	0	0
2024-07-24 10:06:47			0	36002	0	0	0	28506	27080	169745	27403	1052897	45055	110590	0	0	8005	624273	0	0
2024-07-24 10:07:47			0	36062	0	0	0	28506	27090	169553	27277	1052960	45078	110590	0	0	8009	621706	0	0
2024-07-24 10:08:47			0	36093	0	0	0	28503	27080	169417	27443	1052978	45067	110589	0	0	8011	620437	0	0
2024-07-24 10:09:47			0	36126	0	0	0	28503	27100	169245	27041	1053031	45068	110589	0	0	8013	618979	0	0
2024-07-24 10:10:47			0	36123	0	0	0	28509	27100	169225	27251	1053058	45079	110591	0	0	8012	619105	0	0
2024-07-24 10:11:47			0	36151	0	0	0	28506	27100	169205	27320	1053013	45080	110590	0	0	8014	617930	0	0
2024-07-24 10:12:47			0	36149	0	0	0	28506	27100	169129	27457	1053031	45068	110590	0	0	8014	618014	0	0
2024-07-24 10:13:47			0	36145	0	0	0	28516	27100	169209	27312	1053013	45069	110594	0	0	8014	618182	0	0
2024-07-24 10:14:47			0	36120	0	0	0	28519	27100	169233	27422	1053058	45056	110595	0	0	8012	619231	0	0
2024-07-24 10:15:47			0	36101	0	0	0	28522	27110	169377	27067	1053103	45080	110596	0	0	8011	619994	0	0
2024-07-24 10:16:47			0	36064	0	0	0	28524	27110	169445	27251	1053130	45069	110597	0	0	8009	621550	0	0
2024-07-24 10:17:47			0	36049	0	0	0	28524	27120	169585	27229	1053094	45070	110597	0	0	8008	622147	0	0
2024-07-24 10:18:47			0	36010	0	0	0	28529	27110	169661	27268	1053076	45080	110599	0	0	8005	623827	0	0
2024-07-24 10:19:47			0	36003	0	0	0	28527	27120	169777	27287	1053174	45081	110598	0	0	8005	624087	0	0
2024-07-24 10:20:47			0	35980	0	0	0	28535	27120	169805	27249	1053121	45081	110601	0	0	8003	625059	0	0
2024-07-24 10:21:47			0	35960	0	0	0	28532	27120	170025	27161	1053156	45071	110600	0	0	8002	625905	0	0
2024-07-24 10:22:47			0	35930	0	0	0	28540	27130	170105	27095	1053165	45071	110603	0	0	8000	627139	0	0
2024-07-24 10:23:47			0	35919	0	0	0	28535	27120	170073	27433	1053129	45082	110601	0	0	8000	627641	0	0
2024-07-24 10:24:47			0	35909	0	0	0	28545	27140	170185	27060	1053210	45072	110605	0	0	7999	627993	0	0
2024-07-24 10:25:47			0	35897	0	0	0	28542	27130	170309	27138	1053138	45059	110604	0	0	7998	628538	0	0
2024-07-24 10:26:47			0	35867	0	0	0	28537	27130	170373	27232	1053219	45092	110602	0	0	7996	629812	0	0
2024-07-24 10:27:47			0	35851	0	0	0	28545	27140	170360	27362	1053210	45060	110605	0	0	7995	630457	0	0
2024-07-24 10:28:47			0	35843	0	0	0	28550	27150	170580	27206	1053227	45084	110607	0	0	7995	630761	0	0
2024-07-24 10:29:47			0	35826	0	0	0	28558	27140	170572	27322	1053192	45072	110610	0	0	7994	631521	0	0
2024-07-24 10:30:47			0	35812	0	0	0	28550	27140	170536	27275	1053290	45083	110607	0	0	7993	632117	0	0
2024-07-24 10:31:47			0	35792	0	0	0	28561	27140	170644	27067	1053299	45072	110611	0	0	7992	632970	0	0
2024-07-24 10:32:47			0	35790	0	0	0	28563	27150	170772	27046	1053308	45084	110612	0	0	7991	633019	0	0
2024-07-24 10:33:47			0	35781	0	0	0	28545	27150	170712	27192	1053344	45073	110605	0	0	7991	633403	0	0
2024-07-24 10:34:47			0	35767	0	0	0	28516	27150	170920	27440	1053290	45073	110594	0	0	7991	634000	0	0
2024-07-24 10:35:47			0	35772	0	0	0	28537	27160	170840	27507	1053299	45073	110602	0	0	7991	633750	0	0
2024-07-24 10:36:47			0	35782	0	0	0	28550	27160	170672	26977	1053299	45062	110607	0	0	7991	633324	0	0
2024-07-24 10:37:47			0	35787	0	0	0	28553	27160	170624	27353	1053299	45084	110608	0	0	7992	633110	0	0
2024-07-24 10:38:47			0	35827	0	0	0	28548	27160	170532	27234	1053335	45074	110606	0	0	7994	631406	0	0
2024-07-24 10:39:47			0	35864	0	0	0	28553	27160	170273	27355	1053353	45084	110608	0	0	7996	629832	0	0
2024-07-24 10:40:47			0	35921	0	0	0	28555	27160	170001	27093	1053326	45084	110609	0	0	8000	627412	0	0
2024-07-24 10:41:47			0	35966	0	0	0	28566	27160	169929	27183	1053389	45074	110613	0	0	8002	625507	0	0
2024-07-24 10:42:47			0	36009	0	0	0	28561	27170	169681	27072	1053371	45075	110611	0	0	8005	623655	0	0
2024-07-24 10:43:47			0	36011	0	0	0	28571	27160	169665	27072	1053389	45074	110615	0	0	8005	623606	0	0
2024-07-24 10:44:47			0	36029	0	0	0	28576	27170	169489	27357	1053425	45075	110617	0	0	8006	622811	0	0
2024-07-24 10:45:47			0	36050	0	0	0	28568	27180	169521	27305	1053415	45064	110614	0	0	8007	621890	0	0
2024-07-24 10:46:47			0	36078	0	0	0	28581	27180	169409	27263	1053415	45075	110619	0	0	8009	620712	0	0
2024-07-24 10:47:47			0	36064	0	0	0	28579	27180	169465	27474	1053415	45086	110618	0	0	8008	621301	0	0
2024-07-24 10:48:47			0	36077	0	0	0	28576	27180	169205	27178	1053442	45075	110617	0	0	8009	620754	0	0
2024-07-24 10:49:47			0	36090	0	0	0	28589	27180	169269	27265	1053442	45075	110622	0	0	8009	620207	0	0
2024-07-24 10:50:47			0	36086	0	0	0	28586	27190	169265	27090	1053460	45077	110621	0	0	8009	620340	0	0
2024-07-24 10:51:47			0	36111	0	0	0	28589	27170	169129	27261	1053433	45086	110622	0	0	8011	619360	0	0
2024-07-24 10:52:47			0	36117	0	0	0	28584	27180	169225	27156	1053505	45076	110620	0	0	8011	619073	0	0
2024-07-24 10:53:47			0	36130	0	0	0	28592	27180	169033	27196	1053415	45097	110623	0	0	8012	618527	0	0
2024-07-24 10:54:47			0	36140	0	0	0	28602	27180	168969	27201	1053505	45076	110627	0	0	8012	618108	0	0
2024-07-24 10:55:47			0	36133	0	0	0	28605	27180	169113	27251	1053550	45086	110628	0	0	8012	618401	0	0
2024-07-24 10:56:47			0	36149	0	0	0	28607	27200	169009	27270	1053505	45077	110629	0	0	8013	617660	0	0
2024-07-24 10:57:47			0	36145	0	0	0	28607	27200	168977	27364	1053558	45077	110629	0	0	8013	617827	0	0
2024-07-24 10:58:47			0	36149	0	0	0	28610	27190	169017	27450	1053487	45077	110630	0	0	8013	617695	0	0
2024-07-24 10:59:47			0	36154	0	0	0	28597	27180	168937	27355	1053505	45076	110625	0	0	8013	617521	0	0
2024-07-24 11:00:47			0	36146	0	0	0	28615	27200	169109	27145	1053540	45078	110632	0	0	8012	617785	0	0
2024-07-24 11:01:47			0	36149	0	0	0	28618	27200	168949	27355	1053585	45077	110633	0	0	8013	617660	0	0
2024-07-24 11:02:47			0	36161	0	0	0	28618	27200	168869	27324	1053585	45077	110633	0	0	8013	617157	0	0
2024-07-24 11:03:47			0	36160	0	0	0	28612	27210	169045	27509	1053603	45079	110631	0	0	8013	617163	0	0
2024-07-24 11:04:47			0	36125	0	0	0	28620	27210	168981	27377	1053603	45090	110634	0	0	8011	618631	0	0
2024-07-24 11:05:47			0	36121	0	0	0	28610	27210	169065	26759	1053612	45069	110630	0	0	8011	618798	0	0
2024-07-24 11:06:47			0	36132	0	0	0	28610	27210	169081	27159	1053639	45069	110630	0	0	8012	618337	0	0
2024-07-24 11:07:47			0	36118	0	0	0	28597	27210	169089	27282	1053612	45080	110625	0	0	8011	618924	0	0
2024-07-24 11:08:47			0	36100	0	0	0	28599	27220	169117	27379	1053594	45080	110626	0	0	8010	619645	0	0
2024-07-24 11:09:47			0	36089	0	0	0	28589	27210	169153	27296	1053531	45080	110622	0	0	8009	620142	0	0
2024-07-24 11:10:47			0	36113	0	0	0	28592	27210	169157	27402	1053549	45079	110623	0	0	8011	619134	0	0
2024-07-24 11:11:47			0	36085	0	0	0	28597	27210	169201	27090	1053603	45079	110625	0	0	8009	620311	0	0
2024-07-24 11:12:47			0	36093	0	0	0	28594	27210	169229	27222	1053603	45090	110624	0	0	8010	619974	0	0
2024-07-24 11:13:47			0	36095	0	0	0	28594	27200	169249	27232	1053540	45067	110624	0	0	8010	619926	0	0
2024-07-24 11:14:47			0	36085	0	0	0	28592	27200	169185	27393	1053514	45078	110623	0	0	8009	620346	0	0
2024-07-24 11:15:47			0	36100	0	0	0	28602	27200	169165	27074	1053540	45078	110627	0	0	8010	619716	0	0
2024-07-24 11:16:47			0	36103	0	0	0	28605	27200	169097	27274	1053594	45078	110628	0	0	8010	619590	0	0
2024-07-24 11:17:47			0	36117	0	0	0	28602	27200	169125	27419	1053567	45078	110627	0	0	8011	619002	0	0
2024-07-24 11:18:47			0	36127	0	0	0	28607	27210	169081	27322	1053612	45069	110629	0	0	8011	618547	0	0
2024-07-24 11:19:47			0	36127	0	0	0	28597	27210	169033	27317	1053549	45079	110625	0	0	8012	618547	0	0
2024-07-24 11:20:47			0	36141	0	0	0	28594	27210	168893	27272	1053576	45056	110624	0	0	8013	617959	0	0
2024-07-24 11:21:47			0	36160	0	0	0	28599	27210	168925	27286	1053549	45079	110626	0	0	8014	617163	0	0
2024-07-24 11:22:47			0	36151	0	0	0	28605	27210	168985	27431	1053585	45080	110628	0	0	8013	617540	0	0
2024-07-24 11:23:47			0	36139	0	0	0	28599	27210	169005	27000	1053630	45068	110626	0	0	8012	618043	0	0
2024-07-24 11:24:47			0	36151	0	0	0	28592	27210	168857	27251	1053549	45079	110623	0	0	8013	617540	0	0
2024-07-24 11:25:47			0	36131	0	0	0	28631	27210	168977	27230	1053576	45079	110638	0	0	8011	618379	0	0
2024-07-24 11:26:47			0	36124	0	0	0	28638	27210	169025	27410	1053639	45080	110641	0	0	8011	618672	0	0
2024-07-24 11:27:47			0	36136	0	0	0	28636	27210	169065	27339	1053693	45080	110640	0	0	8012	618169	0	0
2024-07-24 11:28:47			0	36111	0	0	0	28623	27220	168989	27280	1053675	45080	110635	0	0	8010	619183	0	0
2024-07-24 11:29:47			0	36108	0	0	0	28623	27230	169177	27293	1053630	45080	110635	0	0	8010	619273	0	0
2024-07-24 11:30:47			0	36098	0	0	0	28618	27220	169073	26987	1053621	45069	110633	0	0	8010	619729	0	0
2024-07-24 11:31:47			0	36085	0	0	0	28610	27220	169165	27334	1053675	45057	110630	0	0	8009	620275	0	0
2024-07-24 11:32:47			0	36080	0	0	0	28607	27220	169241	27507	1053648	45091	110629	0	0	8009	620485	0	0
2024-07-24 11:33:47			0	36074	0	0	0	28618	27230	169209	27270	1053603	45080	110633	0	0	8008	620702	0	0
2024-07-24 11:34:47			0	36077	0	0	0	28625	27210	169225	27379	1053639	45069	110636	0	0	8008	620647	0	0
2024-07-24 11:35:47			0	36054	0	0	0	28597	27230	169197	27473	1053710	45080	110625	0	0	8007	621543	0	0
2024-07-24 11:36:47			0	36067	0	0	0	28602	27220	169317	27194	1053621	45080	110627	0	0	8008	621032	0	0
2024-07-24 11:37:47			0	36055	0	0	0	28586	27230	169221	27164	1053630	45057	110621	0	0	8008	621501	0	0
2024-07-24 11:38:47			0	36067	0	0	0	28584	27210	169177	27086	1053558	45080	110620	0	0	8008	621068	0	0
2024-07-24 11:39:47			0	36067	0	0	0	28594	27210	169205	27277	1053612	45069	110624	0	0	8008	621068	0	0
2024-07-24 11:40:47			0	36059	0	0	0	28586	27210	169209	27185	1053558	45057	110621	0	0	8008	621404	0	0
2024-07-24 11:41:47			0	36063	0	0	0	28594	27220	169241	27261	1053621	45069	110624	0	0	8008	621200	0	0
2024-07-24 11:42:47			0	36052	0	0	0	28597	27210	169261	27203	1053558	45069	110625	0	0	8007	621699	0	0
2024-07-24 11:43:47			0	36053	0	0	0	28610	27210	169213	27329	1053612	45069	110630	0	0	8007	621657	0	0
2024-07-24 11:44:47			0	36050	0	0	0	28607	27210	169257	27242	1053639	45080	110629	0	0	8007	621783	0	0
2024-07-24 11:45:47			0	36049	0	0	0	28599	27210	169301	27041	1053612	45080	110626	0	0	8007	621825	0	0
2024-07-24 11:46:47			0	36050	0	0	0	28592	27210	169265	27291	1053576	45068	110623	0	0	8007	621783	0	0
2024-07-24 11:47:47			0	36033	0	0	0	28581	27200	169345	27331	1053558	45088	110619	0	0	8006	622535	0	0
2024-07-24 11:48:47			0	36040	0	0	0	28581	27210	169225	26996	1053603	45068	110619	0	0	8007	622204	0	0
2024-07-24 11:49:47			0	36033	0	0	0	28599	27200	169341	27215	1053540	45067	110626	0	0	8006	622535	0	0
2024-07-24 11:50:47			0	36016	0	0	0	28610	27200	169353	27355	1053585	45077	110630	0	0	8005	623252	0	0
2024-07-24 11:51:47			0	36047	0	0	0	28636	27210	169249	27258	1053585	45080	110640	0	0	8006	621909	0	0
2024-07-24 11:52:47			0	36043	0	0	0	28651	27220	169329	27341	1053728	45080	110646	0	0	8006	622042	0	0
2024-07-24 11:53:47			0	36047	0	0	0	28657	27230	169389	27305	1053845	45102	110648	0	0	8006	621838	0	0
2024-07-24 11:54:47			0	36051	0	0	0	28631	27230	169357	27076	1053719	45092	110638	0	0	8007	621670	0	0
2024-07-24 11:55:47			0	36051	0	0	0	28620	27250	169241	27019	1053719	45071	110634	0	0	8007	621598	0	0
2024-07-24 11:56:47			0	36067	0	0	0	28610	27240	169173	27112	1053710	45082	110630	0	0	8008	620961	0	0
2024-07-24 11:57:47			0	36054	0	0	0	28605	27230	169229	27218	1053683	45069	110628	0	0	8007	621543	0	0
2024-07-24 11:58:47			0	36076	0	0	0	28610	27230	169233	27261	1053639	45081	110630	0	0	8008	620618	0	0
2024-07-24 11:59:47			0	36072	0	0	0	28594	27230	169253	27083	1053683	45057	110624	0	0	8008	620786	0	0
2024-07-24 12:00:47			0	36079	0	0	0	28584	27230	169057	27308	1053657	45069	110620	0	0	8009	620492	0	0
2024-07-24 12:01:47			0	36087	0	0	0	28579	27210	169125	27300	1053558	45057	110618	0	0	8010	620226	0	0
2024-07-24 12:02:47			0	36078	0	0	0	28584	27210	169121	27126	1053558	45057	110620	0	0	8009	620605	0	0
2024-07-24 12:03:47			0	36081	0	0	0	28584	27210	169053	27175	1053549	45079	110620	0	0	8009	620479	0	0
2024-07-24 12:04:47			0	36084	0	0	0	28592	27200	169109	27215	1053514	45067	110623	0	0	8009	620388	0	0
2024-07-24 12:05:47			0	36089	0	0	0	28594	27210	169141	27315	1053603	45090	110624	0	0	8009	620142	0	0
2024-07-24 12:06:47			0	36089	0	0	0	28607	27210	169193	27270	1053657	45079	110629	0	0	8009	620142	0	0
2024-07-24 12:07:47			0	36085	0	0	0	28605	27210	169193	27225	1053585	45080	110628	0	0	8009	620311	0	0
2024-07-24 12:08:47			0	36073	0	0	0	28605	27210	169153	26994	1053603	45079	110628	0	0	8008	620815	0	0
2024-07-24 12:09:47			0	36082	0	0	0	28612	27210	169129	27268	1053549	45079	110631	0	0	8009	620437	0	0
2024-07-24 12:10:47			0	36080	0	0	0	28618	27210	169109	27183	1053719	45080	110633	0	0	8008	620521	0	0
2024-07-24 12:11:47			0	36074	0	0	0	28646	27230	169121	27414	1053791	45091	110644	0	0	8008	620702	0	0
2024-07-24 12:12:47			0	36071	0	0	0	28667	27220	169153	27315	1053728	45102	110652	0	0	8007	620864	0	0
2024-07-24 12:13:47			0	36086	0	0	0	28672	27230	169169	27114	1053800	45103	110654	0	0	8008	620197	0	0
2024-07-24 12:14:47			0	36093	0	0	0	28657	27230	169189	27242	1053800	45103	110648	0	0	8009	619903	0	0
2024-07-24 12:15:47			0	36089	0	0	0	28638	27240	169089	27279	1053863	45071	110641	0	0	8009	620035	0	0
2024-07-24 12:16:47			0	36103	0	0	0	28623	27230	169093	26967	1053800	45081	110635	0	0	8010	619483	0	0
2024-07-24 12:17:47			0	36090	0	0	0	28623	27240	169033	27374	1053728	45071	110635	0	0	8009	619994	0	0
2024-07-24 12:18:47			0	36077	0	0	0	28612	27240	169021	27076	1053728	45082	110631	0	0	8009	620540	0	0
2024-07-24 12:19:47			0	36086	0	0	0	28623	27230	169025	27239	1053719	45081	110635	0	0	8009	620197	0	0
2024-07-24 12:20:47			0	36107	0	0	0	28618	27240	169053	27199	1053629	45082	110633	0	0	8010	619279	0	0
2024-07-24 12:21:47			0	36096	0	0	0	28612	27230	169053	26956	1053692	45070	110631	0	0	8010	619777	0	0
2024-07-24 12:22:47			0	36114	0	0	0	28605	27240	168993	27041	1053701	45071	110628	0	0	8011	618986	0	0
2024-07-24 12:23:47			0	36107	0	0	0	28605	27240	168901	27234	1053674	45082	110628	0	0	8010	619279	0	0
2024-07-24 12:24:47			0	36122	0	0	0	28605	27230	168973	27242	1053612	45070	110628	0	0	8011	618685	0	0
2024-07-24 12:25:47			0	36125	0	0	0	28605	27230	168961	27088	1053710	45080	110628	0	0	8011	618560	0	0
2024-07-24 12:26:47			0	36103	0	0	0	28607	27230	169037	27180	1053630	45069	110629	0	0	8010	619483	0	0
2024-07-24 12:27:47			0	36131	0	0	0	28618	27230	168965	27170	1053710	45080	110633	0	0	8012	618308	0	0
2024-07-24 12:28:47			0	36111	0	0	0	28612	27230	169073	27431	1053665	45092	110631	0	0	8011	619147	0	0
2024-07-24 12:29:47			0	36119	0	0	0	28618	27220	169013	26944	1053675	45091	110633	0	0	8011	618847	0	0
2024-07-24 12:30:47			0	36111	0	0	0	28615	27230	168989	27355	1053665	45070	110632	0	0	8010	619147	0	0
2024-07-24 12:31:47			0	36114	0	0	0	28628	27230	168929	27234	1053710	45080	110637	0	0	8010	619021	0	0
2024-07-24 12:32:47			0	36141	0	0	0	28646	27230	169045	27211	1053827	45092	110644	0	0	8012	617889	0	0
2024-07-24 12:33:47			0	36127	0	0	0	28670	27240	168981	27265	1053863	45104	110653	0	0	8011	618440	0	0
2024-07-24 12:34:47			0	36118	0	0	0	28664	27240	168905	27275	1053898	45093	110651	0	0	8010	618818	0	0
2024-07-24 12:35:47			0	36146	0	0	0	28646	27240	168909	27086	1053845	45082	110644	0	0	8012	617643	0	0
2024-07-24 12:36:47			0	36152	0	0	0	28628	27240	168773	27100	1053845	45082	110637	0	0	8013	617392	0	0
2024-07-24 12:37:47			0	36157	0	0	0	28641	27240	168669	27005	1053782	45082	110642	0	0	8013	617182	0	0
2024-07-24 12:38:47			0	36173	0	0	0	28670	27250	168729	26928	1053880	45082	110653	0	0	8013	616477	0	0
2024-07-24 12:39:47			0	36161	0	0	0	28696	27250	168665	27504	1053916	45105	110663	0	0	8012	616980	0	0
2024-07-24 12:40:47			0	36160	0	0	0	28675	27260	168621	27305	1053988	45095	110655	0	0	8013	616986	0	0
2024-07-24 12:41:47			0	36188	0	0	0	28657	27260	168565	27284	1053952	45095	110648	0	0	8015	615814	0	0
2024-07-24 12:42:47			0	36200	0	0	0	28677	27270	168493	27194	1054032	45095	110656	0	0	8015	615277	0	0
2024-07-24 12:43:47			0	36204	0	0	0	28709	27270	168497	27338	1054140	45095	110668	0	0	8015	615110	0	0
2024-07-24 12:44:47			0	36207	0	0	0	28690	27280	168405	27196	1054023	45109	110661	0	0	8015	614949	0	0
2024-07-24 12:45:47			0	36212	0	0	0	28659	27280	168433	27402	1054077	45086	110649	0	0	8016	614740	0	0
2024-07-24 12:46:47			0	36228	0	0	0	28654	27280	168521	27201	1053996	45076	110647	0	0	8017	614072	0	0
2024-07-24 12:47:47			0	36223	0	0	0	28662	27280	168445	27190	1053987	45063	110650	0	0	8017	614281	0	0
2024-07-24 12:48:47			0	36213	0	0	0	28706	27270	168421	27265	1054059	45074	110667	0	0	8015	614734	0	0
2024-07-24 12:49:47			0	36211	0	0	0	28735	27280	168473	27433	1054104	45097	110678	0	0	8015	614782	0	0
2024-07-24 12:50:47			0	36203	0	0	0	28735	27300	168485	26989	1054131	45110	110678	0	0	8014	615046	0	0
2024-07-24 12:51:47			0	36217	0	0	0	28745	27300	168373	27171	1054193	45099	110682	0	0	8015	614461	0	0
2024-07-24 12:52:47			0	36221	0	0	0	28745	27310	168425	27441	1054292	45099	110682	0	0	8015	614259	0	0
2024-07-24 12:53:47			0	36234	0	0	0	28786	27320	168353	27130	1054301	45100	110698	0	0	8015	613681	0	0
2024-07-24 12:54:47			0	36233	0	0	0	28794	27320	168265	27182	1054354	45100	110701	0	0	8015	613723	0	0
2024-07-24 12:55:47			0	36214	0	0	0	28781	27340	168325	27327	1054390	45102	110696	0	0	8014	614445	0	0
2024-07-24 12:56:47			0	36249	0	0	0	28758	27340	168277	27237	1054372	45115	110687	0	0	8017	612985	0	0
2024-07-24 12:57:47			0	36228	0	0	0	28750	27340	168229	26960	1054372	45103	110684	0	0	8016	613861	0	0
2024-07-24 12:58:47			0	36251	0	0	0	28737	27340	168169	27131	1054399	45092	110679	0	0	8017	612902	0	0
2024-07-24 12:59:47			0	36224	0	0	0	28729	27340	168133	27031	1054282	45091	110676	0	0	8016	614028	0	0
2024-07-24 13:00:47			0	36231	0	0	0	28735	27350	168341	27216	1054300	45093	110678	0	0	8016	613700	0	0
2024-07-24 13:01:47			0	36222	0	0	0	28735	27340	168225	27479	1054237	45081	110678	0	0	8016	614111	0	0
2024-07-24 13:02:47			0	36242	0	0	0	28732	27340	168273	27358	1054291	45092	110677	0	0	8017	613277	0	0
2024-07-24 13:03:47			0	36249	0	0	0	28727	27340	168153	27417	1054255	45069	110675	0	0	8017	612985	0	0
2024-07-24 13:04:47			0	36254	0	0	0	28735	27340	168129	27251	1054237	45081	110678	0	0	8018	612777	0	0
2024-07-24 13:05:47			0	36267	0	0	0	28737	27340	168173	27239	1054318	45070	110679	0	0	8018	612235	0	0
2024-07-24 13:06:47			0	36260	0	0	0	28755	27330	168169	27300	1054300	45101	110686	0	0	8018	612562	0	0
2024-07-24 13:07:47			0	36257	0	0	0	28774	27340	168057	26854	1054372	45092	110693	0	0	8017	612652	0	0
2024-07-24 13:08:47			0	36298	0	0	0	28779	27340	168053	27197	1054309	45102	110695	0	0	8020	610945	0	0
2024-07-24 13:09:47			0	36282	0	0	0	28802	27350	168025	27365	1054416	45104	110704	0	0	8018	611575	0	0
2024-07-24 13:10:47			0	36306	0	0	0	28799	27360	167937	27440	1054533	45104	110703	0	0	8020	610542	0	0
2024-07-24 13:11:47			0	36332	0	0	0	28779	27370	167853	27395	1054586	45106	110695	0	0	8022	609427	0	0
2024-07-24 13:12:47			0	36328	0	0	0	28779	27380	167777	27450	1054523	45096	110695	0	0	8022	609558	0	0
2024-07-24 13:13:47			0	36327	0	0	0	28771	27370	167865	27267	1054524	45118	110692	0	0	8022	609635	0	0
2024-07-24 13:14:47			0	36302	0	0	0	28784	27380	167917	27294	1054568	45118	110697	0	0	8020	610638	0	0
2024-07-24 13:15:47			0	36284	0	0	0	28779	27390	167869	27102	1054568	45108	110695	0	0	8019	611352	0	0
2024-07-24 13:16:47			0	36279	0	0	0	28766	27390	167997	26984	1054532	45097	110690	0	0	8019	611560	0	0
2024-07-24 13:17:47			0	36243	0	0	0	28776	27380	168157	27071	1054497	45107	110694	0	0	8016	613094	0	0
2024-07-24 13:18:47			0	36233	0	0	0	28781	27380	168241	26993	1054542	45083	110696	0	0	8016	613511	0	0
2024-07-24 13:19:47			0	36219	0	0	0	28799	27380	168305	27107	1054577	45119	110703	0	0	8015	614095	0	0
2024-07-24 13:20:47			0	36198	0	0	0	28805	27380	168389	26923	1054604	45096	110705	0	0	8013	614972	0	0
2024-07-24 13:21:47			0	36185	0	0	0	28779	27390	168405	27317	1054586	45097	110695	0	0	8013	615480	0	0
2024-07-24 13:22:47			0	36182	0	0	0	28766	27390	168449	27459	1054559	45075	110690	0	0	8013	615605	0	0
2024-07-24 13:23:47			0	36172	0	0	0	28771	27380	168445	27431	1054550	45084	110692	0	0	8012	616059	0	0
2024-07-24 13:24:47			0	36152	0	0	0	28797	27390	168493	27126	1054676	45108	110702	0	0	8011	616860	0	0
2024-07-24 13:25:47			0	36152	0	0	0	28807	27390	168685	27362	1054676	45119	110706	0	0	8011	616860	0	0
2024-07-24 13:26:47			0	36123	0	0	0	28812	27400	168685	27222	1054693	45109	110708	0	0	8009	618039	0	0
2024-07-24 13:27:47			0	36150	0	0	0	28799	27410	168653	26925	1054685	45110	110703	0	0	8011	616873	0	0
2024-07-24 13:28:47			0	36159	0	0	0	28797	27410	168541	27274	1054702	45099	110702	0	0	8011	616496	0	0
2024-07-24 13:29:47			0	36172	0	0	0	28774	27410	168549	27166	1054649	45087	110693	0	0	8012	615952	0	0
2024-07-24 13:30:47			0	36179	0	0	0	28766	27410	168505	27274	1054649	45099	110690	0	0	8013	615660	0	0
2024-07-24 13:31:47			0	36195	0	0	0	28768	27410	168293	27237	1054675	45099	110691	0	0	8014	614991	0	0
2024-07-24 13:32:47			0	36211	0	0	0	28779	27410	168329	27105	1054649	45099	110695	0	0	8015	614323	0	0
2024-07-24 13:33:47			0	36220	0	0	0	28805	27400	168289	27211	1054720	45098	110705	0	0	8015	613983	0	0
2024-07-24 13:34:47			0	36208	0	0	0	28828	27410	168217	27454	1054756	45121	110714	0	0	8014	614448	0	0
2024-07-24 13:35:47			0	36207	0	0	0	28851	27420	168313	27344	1054810	45122	110723	0	0	8013	614455	0	0
2024-07-24 13:36:47			0	36230	0	0	0	28867	27430	168381	27178	1054873	45112	110729	0	0	8014	613460	0	0
2024-07-24 13:37:47			0	36234	0	0	0	28870	27440	168277	27237	1054890	45124	110730	0	0	8015	613258	0	0
2024-07-24 13:38:47			0	36252	0	0	0	28859	27440	168265	27569	1054899	45124	110726	0	0	8016	612508	0	0
2024-07-24 13:39:47			0	36254	0	0	0	28854	27440	168077	27196	1054953	45113	110724	0	0	8016	612424	0	0
2024-07-24 13:40:47			0	36279	0	0	0	28867	27450	168017	27152	1054962	45125	110729	0	0	8017	611349	0	0
2024-07-24 13:41:47			0	36295	0	0	0	28885	27450	167857	27267	1054998	45115	110736	0	0	8018	610684	0	0
2024-07-24 13:42:47			0	36311	0	0	0	28893	27460	167817	27308	1055042	45125	110739	0	0	8019	609984	0	0
2024-07-24 13:43:47			0	36339	0	0	0	28877	27470	167737	27441	1055051	45126	110733	0	0	8021	608787	0	0
2024-07-24 13:44:47			0	36362	0	0	0	28875	27460	167469	27235	1055123	45104	110732	0	0	8022	607868	0	0
2024-07-24 13:45:47			0	36391	0	0	0	28877	27470	167429	27320	1055078	45104	110733	0	0	8024	606633	0	0
2024-07-24 13:46:47			0	36399	0	0	0	28864	27470	167465	27180	1055141	45117	110728	0	0	8025	606302	0	0
2024-07-24 13:47:47			0	36431	0	0	0	28838	27470	167245	27190	1055051	45116	110718	0	0	8027	604980	0	0
2024-07-24 13:48:47			0	36451	0	0	0	28825	27470	167113	27405	1054998	45093	110713	0	0	8029	604154	0	0
2024-07-24 13:49:47			0	36475	0	0	0	28849	27470	167053	27272	1055006	45105	110722	0	0	8030	603165	0	0
2024-07-24 13:50:47			0	36493	0	0	0	28846	27480	166977	27024	1054997	45095	110721	0	0	8031	602389	0	0
2024-07-24 13:51:47			0	36501	0	0	0	28818	27460	166909	27183	1054935	45104	110710	0	0	8032	602129	0	0
2024-07-24 13:52:47			0	36505	0	0	0	28820	27460	166929	27355	1054935	45115	110711	0	0	8032	601964	0	0
2024-07-24 13:53:47			0	36517	0	0	0	28844	27460	166893	27438	1054935	45104	110720	0	0	8032	601470	0	0
2024-07-24 13:54:47			0	36499	0	0	0	28872	27470	166801	27038	1055033	45105	110731	0	0	8031	602176	0	0
2024-07-24 13:55:47			0	36502	0	0	0	28888	27470	166877	27150	1055087	45127	110737	0	0	8030	602053	0	0
2024-07-24 13:56:47			0	36481	0	0	0	28893	27480	167025	27201	1055150	45117	110739	0	0	8029	602883	0	0
2024-07-24 13:57:47			0	36493	0	0	0	28898	27480	167013	27029	1055159	45106	110741	0	0	8030	602389	0	0
2024-07-24 13:58:47			0	36482	0	0	0	28893	27480	167053	27289	1055239	45118	110739	0	0	8029	602842	0	0
2024-07-24 13:59:47			0	36487	0	0	0	28898	27490	167045	27138	1055194	45118	110741	0	0	8030	602601	0	0
2024-07-24 14:00:47			0	36472	0	0	0	28903	27490	166961	27319	1055257	45107	110743	0	0	8029	603219	0	0
2024-07-24 14:01:47			0	36460	0	0	0	28903	27500	166941	27466	1055248	45120	110743	0	0	8028	603679	0	0
2024-07-24 14:02:47			0	36474	0	0	0	28914	27500	166997	26745	1055275	45108	110747	0	0	8029	603102	0	0
2024-07-24 14:03:47			0	36464	0	0	0	28911	27510	166961	27229	1055338	45120	110746	0	0	8028	603479	0	0
2024-07-24 14:04:47			0	36471	0	0	0	28922	27510	166969	26849	1055311	45120	110750	0	0	8028	603191	0	0
2024-07-24 14:05:47			0	36466	0	0	0	28922	27530	166905	27258	1055391	45122	110750	0	0	8028	603327	0	0
2024-07-24 14:06:47			0	36491	0	0	0	28919	27530	166841	26934	1055391	45110	110749	0	0	8030	602298	0	0
2024-07-24 14:07:47			0	36502	0	0	0	28927	27530	166793	27024	1055418	45099	110752	0	0	8030	601845	0	0
2024-07-24 14:08:47			0	36528	0	0	0	28922	27520	166653	27334	1055328	45109	110750	0	0	8032	600811	0	0
2024-07-24 14:09:47			0	36539	0	0	0	28935	27540	166525	27118	1055409	45123	110755	0	0	8032	600290	0	0
2024-07-24 14:10:47			0	36581	0	0	0	28940	27540	166373	27138	1055490	45111	110757	0	0	8035	598567	0	0
2024-07-24 14:11:47			0	36645	0	0	0	28948	27550	166218	27036	1055561	45124	110760	0	0	8038	595913	0	0
2024-07-24 14:12:47			0	36666	0	0	0	28958	27560	166022	27232	1055606	45125	110764	0	0	8040	595021	0	0
2024-07-24 14:13:47			0	36696	0	0	0	28968	27560	165838	27017	1055606	45125	110768	0	0	8041	593798	0	0
2024-07-24 14:14:47			0	36684	0	0	0	28955	27570	165818	27183	1055624	45125	110763	0	0	8041	594253	0	0
2024-07-24 14:15:47			0	36690	0	0	0	28953	27570	165974	26882	1055579	45104	110762	0	0	8041	594008	0	0
2024-07-24 14:16:47			0	36694	0	0	0	28971	27570	165938	27083	1055597	45114	110769	0	0	8041	593845	0	0
2024-07-24 14:17:47			0	36697	0	0	0	28992	27570	165950	27145	1055624	45136	110777	0	0	8041	593723	0	0
2024-07-24 14:18:47			0	36694	0	0	0	29007	27580	165982	27150	1055722	45104	110783	0	0	8040	593811	0	0
2024-07-24 14:19:47			0	36678	0	0	0	29007	27580	166010	27109	1055695	45115	110783	0	0	8039	594463	0	0
2024-07-24 14:20:47			0	36676	0	0	0	29028	27600	165982	27026	1055731	45128	110791	0	0	8039	594477	0	0
2024-07-24 14:21:47			0	36647	0	0	0	29023	27600	166014	27505	1055740	45140	110789	0	0	8037	595660	0	0
2024-07-24 14:22:47			0	36629	0	0	0	29028	27600	166162	27170	1055794	45128	110791	0	0	8036	596396	0	0
2024-07-24 14:23:47			0	36601	0	0	0	29020	27610	166266	27331	1055803	45118	110788	0	0	8035	597506	0	0
2024-07-24 14:24:47			0	36578	0	0	0	28994	27600	166441	27185	1055767	45107	110778	0	0	8034	598483	0	0
2024-07-24 14:25:47			0	36560	0	0	0	28994	27610	166597	27000	1055785	45108	110778	0	0	8033	599186	0	0
2024-07-24 14:26:47			0	36534	0	0	0	29002	27610	166457	26785	1055811	45141	110781	0	0	8031	600253	0	0
2024-07-24 14:27:47			0	36547	0	0	0	29002	27610	166613	27066	1055892	45119	110781	0	0	8032	599720	0	0
2024-07-24 14:28:47			0	36531	0	0	0	29012	27620	166657	27227	1055910	45109	110785	0	0	8031	600342	0	0
2024-07-24 14:29:47			0	36502	0	0	0	29007	27610	166601	26812	1055838	45129	110783	0	0	8029	601568	0	0
2024-07-24 14:30:47			0	36501	0	0	0	29018	27620	166633	26807	1055829	45109	110787	0	0	8029	601575	0	0
2024-07-24 14:31:47			0	36505	0	0	0	29018	27620	166717	27059	1055874	45130	110787	0	0	8029	601410	0	0
2024-07-24 14:32:47			0	36505	0	0	0	29023	27620	166685	27074	1055937	45109	110789	0	0	8029	601410	0	0
2024-07-24 14:33:47			0	36499	0	0	0	29015	27610	166777	27216	1055838	45108	110786	0	0	8029	601691	0	0
2024-07-24 14:34:47			0	36503	0	0	0	29025	27620	166625	26941	1055937	45130	110790	0	0	8029	601492	0	0
2024-07-24 14:35:47			0	36490	0	0	0	29041	27630	166649	27388	1055892	45121	110796	0	0	8028	601992	0	0
2024-07-24 14:36:47			0	36503	0	0	0	29057	27630	166721	27015	1056008	45098	110802	0	0	8028	601458	0	0
2024-07-24 14:37:47			0	36513	0	0	0	29088	27650	166673	26987	1056062	45145	110814	0	0	8029	600977	0	0
2024-07-24 14:38:47			0	36508	0	0	0	29135	27670	166729	27369	1056233	45158	110832	0	0	8028	601114	0	0
2024-07-24 14:39:47			0	36490	0	0	0	29168	27680	166781	27365	1056331	45181	110845	0	0	8026	601819	0	0
2024-07-24 14:40:47			0	36486	0	0	0	29166	27700	166837	26904	1056394	45150	110844	0	0	8026	601914	0	0
2024-07-24 14:41:47			0	36489	0	0	0	29124	27710	166697	27131	1056465	45139	110828	0	0	8027	601756	0	0
2024-07-24 14:42:47			0	36507	0	0	0	29088	27710	166681	27100	1056313	45140	110814	0	0	8029	601016	0	0
2024-07-24 14:43:47			0	36543	0	0	0	29098	27720	166645	27098	1056322	45118	110818	0	0	8031	599504	0	0
2024-07-24 14:44:47			0	36544	0	0	0	29088	27720	166533	27161	1056357	45119	110814	0	0	8031	599463	0	0
2024-07-24 14:45:47			0	36577	0	0	0	29046	27720	166321	26833	1056241	45107	110798	0	0	8034	598111	0	0
2024-07-24 14:46:47			0	36599	0	0	0	29041	27710	166222	26892	1056178	45107	110796	0	0	8035	597245	0	0
2024-07-24 14:47:47			0	36638	0	0	0	29051	27700	166002	27131	1056259	45116	110800	0	0	8037	595685	0	0
2024-07-24 14:48:47			0	36668	0	0	0	29044	27700	165890	27183	1056241	45128	110797	0	0	8039	594461	0	0
2024-07-24 14:49:47			0	36685	0	0	0	29018	27700	165754	27263	1056205	45116	110787	0	0	8040	593768	0	0
2024-07-24 14:50:47			0	36730	0	0	0	29025	27690	165698	27391	1056161	45093	110790	0	0	8043	591970	0	0
2024-07-24 14:51:47			0	36731	0	0	0	29057	27690	165654	27220	1056214	45104	110802	0	0	8042	591929	0	0
2024-07-24 14:52:47			0	36730	0	0	0	29072	27700	165618	27457	1056214	45128	110808	0	0	8042	591936	0	0
2024-07-24 14:53:47			0	36706	0	0	0	29088	27700	165718	27381	1056259	45127	110814	0	0	8040	592912	0	0
2024-07-24 14:54:47			0	36726	0	0	0	29088	27710	165738	27351	1056358	45117	110814	0	0	8042	592064	0	0
2024-07-24 14:55:47			0	36687	0	0	0	29088	27710	165734	27180	1056259	45118	110814	0	0	8039	593652	0	0
2024-07-24 14:56:47			0	36688	0	0	0	29077	27710	165722	27253	1056286	45118	110810	0	0	8040	593611	0	0
2024-07-24 14:57:47			0	36667	0	0	0	29075	27710	165762	27329	1056259	45118	110809	0	0	8038	594467	0	0
2024-07-24 14:58:47			0	36678	0	0	0	29090	27710	165790	27329	1056259	45129	110815	0	0	8039	594019	0	0
2024-07-24 14:59:47			0	36681	0	0	0	29101	27700	165770	27149	1056241	45139	110819	0	0	8039	593931	0	0
2024-07-24 15:00:47			0	36660	0	0	0	29077	27710	165902	27189	1056304	45117	110810	0	0	8038	594753	0	0
2024-07-24 15:01:47			0	36645	0	0	0	29075	27720	165954	27048	1056268	45129	110809	0	0	8037	595330	0	0
2024-07-24 15:02:47			0	36644	0	0	0	29083	27710	165962	27144	1056340	45118	110812	0	0	8037	595405	0	0
2024-07-24 15:03:47			0	36624	0	0	0	29106	27720	165946	27034	1056348	45118	110821	0	0	8035	596188	0	0
2024-07-24 15:04:47			0	36618	0	0	0	29111	27710	166046	27190	1056313	45129	110823	0	0	8035	596468	0	0
2024-07-24 15:05:47			0	36602	0	0	0	29083	27720	166058	27041	1056348	45140	110812	0	0	8034	597087	0	0
2024-07-24 15:06:47			0	36600	0	0	0	29070	27720	166018	27152	1056384	45130	110807	0	0	8034	597169	0	0
2024-07-24 15:07:47			0	36607	0	0	0	29059	27720	166122	27343	1056268	45118	110803	0	0	8035	596883	0	0
2024-07-24 15:08:47			0	36606	0	0	0	29059	27710	166186	27312	1056286	45107	110803	0	0	8035	596958	0	0
2024-07-24 15:09:47			0	36593	0	0	0	29059	27700	166041	26909	1056214	45106	110803	0	0	8034	597525	0	0
2024-07-24 15:10:47			0	36585	0	0	0	29046	27700	166101	27161	1056214	45095	110798	0	0	8034	597852	0	0
2024-07-24 15:11:47			0	36618	0	0	0	29033	27700	166102	27222	1056232	45127	110793	0	0	8036	596502	0	0
2024-07-24 15:12:47			0	36599	0	0	0	29054	27700	166082	26948	1056241	45117	110801	0	0	8035	597279	0	0
2024-07-24 15:13:47			0	36618	0	0	0	29067	27700	166206	27007	1056241	45139	110806	0	0	8035	596502	0	0
2024-07-24 15:14:47			0	36617	0	0	0	29098	27710	166034	27147	1056277	45128	110818	0	0	8035	596508	0	0
2024-07-24 15:15:47			0	36588	0	0	0	29111	27710	166041	27078	1056304	45128	110823	0	0	8033	597695	0	0
2024-07-24 15:16:47			0	36611	0	0	0	29122	27710	166150	27076	1056366	45118	110827	0	0	8034	596754	0	0
2024-07-24 15:17:47			0	36598	0	0	0	29114	27720	166141	27090	1056375	45129	110824	0	0	8034	597251	0	0
2024-07-24 15:18:47			0	36593	0	0	0	29111	27720	166181	27235	1056411	45141	110823	0	0	8033	597456	0	0
2024-07-24 15:19:47			0	36585	0	0	0	29090	27720	166073	27312	1056411	45130	110815	0	0	8033	597783	0	0
2024-07-24 15:20:47			0	36596	0	0	0	29085	27720	166065	27182	1056384	45141	110813	0	0	8034	597333	0	0
2024-07-24 15:21:47			0	36607	0	0	0	29090	27730	166174	27216	1056366	45120	110815	0	0	8035	596849	0	0
2024-07-24 15:22:47			0	36603	0	0	0	29085	27730	166114	26654	1056339	45120	110813	0	0	8034	597012	0	0
2024-07-24 15:23:47			0	36610	0	0	0	29083	27730	166170	27242	1056339	45109	110812	0	0	8035	596726	0	0
2024-07-24 15:24:47			0	36653	0	0	0	29096	27730	165998	27052	1056393	45131	110817	0	0	8037	594970	0	0
2024-07-24 15:25:47			0	36650	0	0	0	29111	27720	165962	26986	1056384	45130	110823	0	0	8037	595126	0	0
2024-07-24 15:26:47			0	36649	0	0	0	29103	27730	165878	27242	1056366	45131	110820	0	0	8037	595133	0	0
2024-07-24 15:27:47			0	36668	0	0	0	29122	27730	165794	26939	1056420	45131	110827	0	0	8038	594358	0	0
2024-07-24 15:28:47			0	36676	0	0	0	29137	27730	165834	27123	1056564	45131	110833	0	0	8038	594032	0	0
2024-07-24 15:29:47			0	36676	0	0	0	29150	27750	165822	27154	1056590	45133	110838	0	0	8038	593963	0	0
2024-07-24 15:30:47			0	36701	0	0	0	29150	27760	165682	27241	1056581	45144	110838	0	0	8039	592911	0	0
2024-07-24 15:31:47			0	36703	0	0	0	29148	27750	165550	27326	1056626	45133	110837	0	0	8039	592864	0	0
2024-07-24 15:32:47			0	36722	0	0	0	29150	27760	165590	26974	1056635	45144	110838	0	0	8041	592057	0	0
2024-07-24 15:33:47			0	36713	0	0	0	29150	27770	165618	27116	1056599	45135	110838	0	0	8040	592389	0	0
2024-07-24 15:34:47			0	36724	0	0	0	29148	27770	165590	27287	1056662	45135	110837	0	0	8041	591941	0	0
2024-07-24 15:35:47			0	36731	0	0	0	29153	27770	165538	27199	1056688	45113	110839	0	0	8041	591657	0	0
2024-07-24 15:36:47			0	36713	0	0	0	29158	27780	165514	26937	1056751	45135	110841	0	0	8040	592354	0	0
2024-07-24 15:37:47			0	36716	0	0	0	29158	27780	165502	27199	1056697	45135	110841	0	0	8040	592232	0	0
2024-07-24 15:38:47			0	36719	0	0	0	29163	27780	165450	27208	1056670	45124	110843	0	0	8040	592110	0	0
2024-07-24 15:39:47			0	36716	0	0	0	29168	27790	165498	27112	1056742	45115	110845	0	0	8040	592198	0	0
2024-07-24 15:40:47			0	36722	0	0	0	29163	27780	165466	27445	1056751	45124	110843	0	0	8040	591988	0	0
2024-07-24 15:41:47			0	36691	0	0	0	29194	27790	165634	26972	1056832	45126	110855	0	0	8038	593215	0	0
2024-07-24 15:42:47			0	36708	0	0	0	29210	27790	165582	27145	1056805	45149	110861	0	0	8039	592524	0	0
2024-07-24 15:43:47			0	36690	0	0	0	29218	27810	165562	27183	1056850	45138	110864	0	0	8038	593188	0	0
2024-07-24 15:44:47			0	36702	0	0	0	29202	27820	165542	27388	1056894	45139	110858	0	0	8039	592665	0	0
2024-07-24 15:45:47			0	36722	0	0	0	29207	27810	165558	27486	1056859	45161	110860	0	0	8040	591886	0	0
2024-07-24 15:46:47			0	36750	0	0	0	29220	27820	165438	27128	1056876	45139	110865	0	0	8041	590715	0	0
2024-07-24 15:47:47			0	36753	0	0	0	29212	27820	165394	27322	1056903	45139	110862	0	0	8042	590593	0	0
2024-07-24 15:48:47			0	36783	0	0	0	29186	27820	165314	27332	1056850	45128	110852	0	0	8044	589376	0	0
2024-07-24 15:49:47			0	36784	0	0	0	29192	27820	165094	27019	1056841	45118	110854	0	0	8044	589335	0	0
2024-07-24 15:50:47			0	36822	0	0	0	29197	27820	165090	27270	1056868	45128	110856	0	0	8046	587797	0	0
2024-07-24 15:51:47			0	36825	0	0	0	29197	27810	165114	27209	1056859	45138	110856	0	0	8046	587709	0	0
2024-07-24 15:52:47			0	36820	0	0	0	29192	27830	165082	27213	1056885	45128	110854	0	0	8046	587844	0	0
2024-07-24 15:53:47			0	36821	0	0	0	29192	27820	165130	27286	1056930	45139	110854	0	0	8046	587837	0	0
2024-07-24 15:54:47			0	36822	0	0	0	29212	27830	165070	27041	1056939	45128	110862	0	0	8046	587763	0	0
2024-07-24 15:55:47			0	36823	0	0	0	29218	27830	165126	27026	1056966	45139	110864	0	0	8046	587722	0	0
2024-07-24 15:56:47			0	36795	0	0	0	29205	27830	165190	26814	1056948	45140	110859	0	0	8044	588856	0	0
2024-07-24 15:57:47			0	36795	0	0	0	29194	27840	165154	27192	1056912	45130	110855	0	0	8045	588822	0	0
2024-07-24 15:58:47			0	36799	0	0	0	29194	27840	165170	27012	1056903	45130	110855	0	0	8045	588660	0	0
2024-07-24 15:59:47			0	36816	0	0	0	29220	27830	165122	26958	1056939	45139	110865	0	0	8045	588006	0	0
2024-07-24 16:00:47			0	36820	0	0	0	29246	27840	165202	27128	1056957	45153	110875	0	0	8045	587810	0	0
2024-07-24 16:01:47			0	36819	0	0	0	29241	27840	165042	27308	1057020	45141	110873	0	0	8045	587850	0	0
2024-07-24 16:02:47			0	36831	0	0	0	29244	27840	165030	27173	1057047	45141	110874	0	0	8046	587365	0	0
2024-07-24 16:03:47			0	36860	0	0	0	29233	27840	164846	26967	1057100	45153	110870	0	0	8048	586193	0	0
2024-07-24 16:04:47			0	36875	0	0	0	29236	27840	164714	27171	1057074	45141	110871	0	0	8049	585588	0	0
2024-07-24 16:05:47			0	36866	0	0	0	29241	27850	164774	27090	1057064	45142	110873	0	0	8048	585917	0	0
2024-07-24 16:06:47			0	36890	0	0	0	29236	27860	164594	27159	1057055	45133	110871	0	0	8049	584915	0	0
2024-07-24 16:07:47			0	36897	0	0	0	29231	27850	164654	27256	1057082	45141	110869	0	0	8050	584667	0	0
2024-07-24 16:08:47			0	36907	0	0	0	29236	27860	164674	27187	1057100	45155	110871	0	0	8050	584230	0	0
2024-07-24 16:09:47			0	36887	0	0	0	29246	27850	164766	26958	1057118	45142	110875	0	0	8049	585070	0	0
2024-07-24 16:10:47			0	36901	0	0	0	29251	27860	164778	27072	1057127	45143	110877	0	0	8050	584472	0	0
2024-07-24 16:11:47			0	36897	0	0	0	29244	27850	164726	27118	1057091	45142	110874	0	0	8050	584667	0	0
2024-07-24 16:12:47			0	36900	0	0	0	29244	27860	164722	27281	1057109	45144	110874	0	0	8050	584512	0	0
2024-07-24 16:13:47			0	36877	0	0	0	29246	27850	164750	27208	1057172	45131	110875	0	0	8049	585473	0	0
2024-07-24 16:14:47			0	36880	0	0	0	29251	27860	164814	27263	1057136	45144	110877	0	0	8049	585318	0	0
2024-07-24 16:15:47			0	36868	0	0	0	29241	27860	164682	27045	1057109	45144	110873	0	0	8048	585803	0	0
2024-07-24 16:16:47			0	36876	0	0	0	29212	27860	164822	27241	1057181	45143	110862	0	0	8049	585480	0	0
2024-07-24 16:17:47			0	36906	0	0	0	29199	27870	164722	27504	1057091	45123	110857	0	0	8051	584236	0	0
2024-07-24 16:18:47			0	36912	0	0	0	29202	27870	164662	27095	1057127	45133	110858	0	0	8051	583995	0	0
2024-07-24 16:19:47			0	36932	0	0	0	29225	27860	164546	27055	1057190	45133	110867	0	0	8052	583223	0	0
2024-07-24 16:20:47			0	36947	0	0	0	29267	27870	164514	26916	1057226	45144	110883	0	0	8052	582586	0	0
2024-07-24 16:21:47			0	36939	0	0	0	29249	27880	164458	27208	1057216	45157	110876	0	0	8052	582874	0	0
2024-07-24 16:22:47			0	36964	0	0	0	29199	27870	164446	27308	1057181	45133	110857	0	0	8055	581903	0	0
2024-07-24 16:23:47			0	36965	0	0	0	29210	27880	164366	27055	1057190	45134	110861	0	0	8054	581829	0	0
2024-07-24 16:24:47			0	36971	0	0	0	29197	27880	164334	27166	1057190	45145	110856	0	0	8055	581588	0	0
2024-07-24 16:25:47			0	36966	0	0	0	29192	27870	164242	27138	1057118	45133	110854	0	0	8055	581822	0	0
2024-07-24 16:26:47			0	36990	0	0	0	29202	27870	164338	27274	1057100	45123	110858	0	0	8056	580859	0	0
2024-07-24 16:27:47			0	36986	0	0	0	29231	27870	164202	26916	1057064	45123	110869	0	0	8055	581019	0	0
2024-07-24 16:28:47			0	36987	0	0	0	29277	27870	164398	27258	1057172	45133	110887	0	0	8055	580979	0	0
2024-07-24 16:29:47			0	36991	0	0	0	29285	27860	164346	27166	1057163	45144	110890	0	0	8055	580852	0	0
2024-07-24 16:30:47			0	36996	0	0	0	29251	27870	164294	27156	1057235	45144	110877	0	0	8056	580618	0	0
2024-07-24 16:31:47			0	37031	0	0	0	29236	27880	164230	26937	1057216	45145	110871	0	0	8058	579182	0	0
2024-07-24 16:32:47			0	37034	0	0	0	29251	27880	164246	26875	1057136	45134	110877	0	0	8058	579061	0	0
2024-07-24 16:33:47			0	37021	0	0	0	29264	27870	164258	27421	1057208	45144	110882	0	0	8057	579616	0	0
2024-07-24 16:34:47			0	37008	0	0	0	29262	27880	164278	27203	1057243	45134	110881	0	0	8056	580103	0	0
2024-07-24 16:35:47			0	36989	0	0	0	29228	27870	164318	27168	1057172	45133	110868	0	0	8055	580899	0	0
2024-07-24 16:36:47			0	36986	0	0	0	29223	27870	164382	27192	1057208	45123	110866	0	0	8055	581019	0	0
2024-07-24 16:37:47			0	36979	0	0	0	29223	27870	164326	26960	1057127	45123	110866	0	0	8055	581300	0	0
2024-07-24 16:38:47			0	36984	0	0	0	29251	27870	164198	27150	1057127	45144	110877	0	0	8055	581100	0	0
2024-07-24 16:39:47			0	36996	0	0	0	29264	27860	164438	26925	1057163	45133	110882	0	0	8055	580652	0	0
2024-07-24 16:40:47			0	36986	0	0	0	29270	27870	164466	27121	1057226	45144	110884	0	0	8055	581019	0	0
2024-07-24 16:41:47			0	36993	0	0	0	29267	27870	164390	27296	1057199	45156	110883	0	0	8055	580738	0	0
2024-07-24 16:42:47			0	37001	0	0	0	29251	27880	164250	27149	1057190	45157	110877	0	0	8056	580384	0	0
2024-07-24 16:43:47			0	37013	0	0	0	29257	27870	164202	27111	1057172	45144	110879	0	0	8056	579936	0	0
2024-07-24 16:44:47			0	37016	0	0	0	29267	27870	164250	26991	1057199	45133	110883	0	0	8056	579816	0	0
2024-07-24 16:45:47			0	37015	0	0	0	29293	27870	164210	27128	1057315	45144	110893	0	0	8056	579856	0	0
2024-07-24 16:46:47			0	36992	0	0	0	29296	27880	164274	26831	1057306	45135	110894	0	0	8055	580745	0	0
2024-07-24 16:47:47			0	36966	0	0	0	29298	27890	164274	27256	1057324	45158	110895	0	0	8053	581755	0	0
2024-07-24 16:48:47			0	36984	0	0	0	29301	27900	164358	27118	1057387	45159	110896	0	0	8054	580999	0	0
2024-07-24 16:49:47			0	36958	0	0	0	29298	27890	164362	26807	1057378	45146	110895	0	0	8053	582077	0	0
2024-07-24 16:50:47			0	36935	0	0	0	29296	27900	164562	27015	1057422	45160	110894	0	0	8051	582968	0	0
2024-07-24 16:51:47			0	36925	0	0	0	29298	27900	164610	27230	1057333	45147	110895	0	0	8051	583370	0	0
2024-07-24 16:52:47			0	36891	0	0	0	29301	27900	164718	27069	1057360	45159	110896	0	0	8049	584740	0	0
2024-07-24 16:53:47			0	36861	0	0	0	29311	27900	164866	27176	1057414	45159	110900	0	0	8047	585950	0	0
2024-07-24 16:54:47			0	36819	0	0	0	29332	27900	165066	26847	1057387	45159	110908	0	0	8044	587647	0	0
2024-07-24 16:55:47			0	36786	0	0	0	29327	27900	165190	26804	1057476	45137	110906	0	0	8042	588983	0	0
2024-07-24 16:56:47			0	36764	0	0	0	29319	27910	165262	27001	1057459	45148	110903	0	0	8041	589841	0	0
2024-07-24 16:57:47			0	36740	0	0	0	29314	27910	165402	26935	1057521	45148	110901	0	0	8040	590814	0	0
2024-07-24 16:58:47			0	36707	0	0	0	29327	27920	165546	27239	1057476	45149	110906	0	0	8037	592121	0	0
2024-07-24 16:59:47			0	36676	0	0	0	29329	27920	165550	27248	1057530	45149	110907	0	0	8036	593382	0	0
2024-07-24 17:00:47			0	36673	0	0	0	29319	27920	165706	27079	1057485	45162	110903	0	0	8036	593504	0	0
2024-07-24 17:01:47			0	36640	0	0	0	29342	27930	165666	27085	1057557	45163	110912	0	0	8033	594814	0	0
2024-07-24 17:02:47			0	36649	0	0	0	29348	27930	165598	27267	1057584	45163	110914	0	0	8034	594447	0	0
2024-07-24 17:03:47			0	36639	0	0	0	29363	27930	165830	27229	1057584	45163	110920	0	0	8033	594855	0	0
2024-07-24 17:04:47			0	36632	0	0	0	29355	27940	165838	27079	1057682	45163	110917	0	0	8033	595106	0	0
2024-07-24 17:05:47			0	36619	0	0	0	29329	27940	165890	27090	1057602	45163	110907	0	0	8032	595637	0	0
2024-07-24 17:06:47			0	36630	0	0	0	29119	27930	165774	26927	1057368	45118	110826	0	0	8036	595222	0	0
2024-07-24 17:07:47			0	36648	0	0	0	28836	27920	165586	27118	1057046	45116	110717	0	0	8042	594523	0	0
2024-07-24 17:08:47			0	36605	0	0	0	28893	27880	165614	27168	1056579	45068	110739	0	0	8039	596415	0	0
2024-07-24 17:09:47			0	36556	0	0	0	29025	27830	166021	27225	1056544	45074	110790	0	0	8033	598592	0	0
2024-07-24 17:10:47			0	36509	0	0	0	29137	27810	166321	27348	1056616	45083	110833	0	0	8028	600588	0	0
2024-07-24 17:11:47			0	36442	0	0	0	29192	27800	166645	27072	1056787	45116	110854	0	0	8023	603378	0	0
2024-07-24 17:12:47			0	36404	0	0	0	29228	27810	166981	27242	1056886	45150	110868	0	0	8021	604910	0	0
2024-07-24 17:13:47			0	36393	0	0	0	29236	27820	167005	27111	1056930	45151	110871	0	0	8020	605329	0	0
2024-07-24 17:14:47			0	36403	0	0	0	29199	27840	166869	26902	1056957	45153	110857	0	0	8021	604847	0	0
2024-07-24 17:15:47			0	36442	0	0	0	29184	27830	166797	27180	1056939	45139	110851	0	0	8024	603274	0	0
2024-07-24 17:16:47			0	36432	0	0	0	29192	27830	166689	27216	1056975	45140	110854	0	0	8023	603686	0	0
2024-07-24 17:17:47			0	36445	0	0	0	29202	27840	166757	27414	1056984	45141	110858	0	0	8024	603116	0	0
2024-07-24 17:18:47			0	36420	0	0	0	29205	27830	166789	27445	1057002	45140	110859	0	0	8022	604181	0	0
2024-07-24 17:19:47			0	36413	0	0	0	29238	27840	166873	27265	1057172	45153	110872	0	0	8021	604434	0	0
2024-07-24 17:20:47			0	36373	0	0	0	29303	27850	167017	27478	1057217	45141	110897	0	0	8018	606050	0	0
2024-07-24 17:21:47			0	36356	0	0	0	29342	27870	167169	27358	1057306	45166	110912	0	0	8016	606683	0	0
2024-07-24 17:22:47			0	36365	0	0	0	29337	27870	167129	27248	1057441	45166	110910	0	0	8017	606311	0	0
2024-07-24 17:23:47			0	36374	0	0	0	29348	27890	167045	27083	1057477	45179	110914	0	0	8017	605869	0	0
2024-07-24 17:24:47			0	36395	0	0	0	29342	27900	166997	27152	1057530	45181	110912	0	0	8019	604968	0	0
2024-07-24 17:25:47			0	36409	0	0	0	29332	27910	166869	27429	1057566	45160	110908	0	0	8020	604355	0	0
2024-07-24 17:26:47			0	36412	0	0	0	29350	27910	166817	27471	1057521	45160	110915	0	0	8019	604232	0	0
2024-07-24 17:27:47			0	36423	0	0	0	29342	27910	166833	27168	1057512	45160	110912	0	0	8020	603778	0	0
2024-07-24 17:28:47			0	36438	0	0	0	29337	27910	166857	27284	1057548	45148	110910	0	0	8021	603160	0	0
2024-07-24 17:29:47			0	36441	0	0	0	29298	27920	166805	27130	1057530	45161	110895	0	0	8022	603002	0	0
2024-07-24 17:30:47			0	36456	0	0	0	29311	27930	166793	27112	1057521	45163	110900	0	0	8023	602350	0	0
2024-07-24 17:31:47			0	36466	0	0	0	29355	27920	166701	27438	1057557	45161	110917	0	0	8023	601974	0	0
2024-07-24 17:32:47			0	36479	0	0	0	29376	27920	166637	27147	1057647	45162	110925	0	0	8023	601439	0	0
2024-07-24 17:33:47			0	36484	0	0	0	29363	27940	166449	27307	1057727	45163	110920	0	0	8024	601165	0	0
2024-07-24 17:34:47			0	36514	0	0	0	29179	27940	166333	27362	1057602	45152	110849	0	0	8029	599933	0	0
2024-07-24 17:35:47			0	36540	0	0	0	29316	27940	166261	27249	1057548	45152	110902	0	0	8028	598867	0	0
2024-07-24 17:36:47			0	36556	0	0	0	29348	27930	166273	27078	1057629	45151	110914	0	0	8028	598247	0	0
2024-07-24 17:37:47			0	36524	0	0	0	29319	27930	166305	26974	1057638	45140	110903	0	0	8027	599558	0	0
2024-07-24 17:38:47			0	36539	0	0	0	29257	27940	166441	27360	1057575	45141	110879	0	0	8029	598908	0	0
2024-07-24 17:39:47			0	36534	0	0	0	29241	27940	166341	27178	1057512	45140	110873	0	0	8029	599113	0	0
2024-07-24 17:40:47			0	36541	0	0	0	29233	27930	166341	27090	1057360	45140	110870	0	0	8029	598861	0	0
2024-07-24 17:41:47			0	36525	0	0	0	29259	27920	166361	27294	1057423	45126	110880	0	0	8028	599551	0	0
2024-07-24 17:42:47			0	36516	0	0	0	29275	27920	166477	26970	1057423	45138	110886	0	0	8027	599920	0	0
2024-07-24 17:43:47			0	36481	0	0	0	29272	27910	166517	27034	1057387	45125	110885	0	0	8025	601392	0	0
2024-07-24 17:44:47			0	36488	0	0	0	29345	27920	166521	27064	1057396	45149	110913	0	0	8024	601070	0	0
2024-07-24 17:45:47			0	36465	0	0	0	29384	27920	166577	27133	1057647	45162	110928	0	0	8022	602015	0	0
2024-07-24 17:46:47			0	36511	0	0	0	29374	27930	166597	27150	1057683	45163	110924	0	0	8025	600091	0	0
2024-07-24 17:47:47			0	36508	0	0	0	29381	27930	166433	27017	1057665	45173	110927	0	0	8025	600214	0	0
2024-07-24 17:48:47			0	36541	0	0	0	29361	27940	166301	27076	1057736	45163	110919	0	0	8027	598826	0	0
2024-07-24 17:49:47			0	36568	0	0	0	29368	27950	166229	26911	1057745	45164	110922	0	0	8029	597686	0	0
2024-07-24 17:50:47			0	36596	0	0	0	29386	27950	166085	27256	1057799	45164	110929	0	0	8030	596542	0	0
2024-07-24 17:51:47			0	36586	0	0	0	29368	27960	166065	27185	1057817	45164	110922	0	0	8030	596916	0	0
2024-07-24 17:52:47			0	36615	0	0	0	29366	27970	165922	27216	1057835	45155	110921	0	0	8032	595697	0	0
2024-07-24 17:53:47			0	36616	0	0	0	29386	27980	165910	27296	1057834	45166	110929	0	0	8031	595622	0	0
2024-07-24 17:54:47			0	36630	0	0	0	29384	27960	165938	27168	1057853	45154	110928	0	0	8032	595119	0	0
2024-07-24 17:55:47			0	36597	0	0	0	29379	27970	165961	27118	1057754	45155	110926	0	0	8030	596432	0	0
2024-07-24 17:56:47			0	36617	0	0	0	29361	27980	165994	27223	1057825	45166	110919	0	0	8032	595581	0	0
2024-07-24 17:57:47			0	36614	0	0	0	29350	27970	165942	27100	1057808	45144	110915	0	0	8032	595738	0	0
2024-07-24 17:58:47			0	36582	0	0	0	29358	27980	166041	27126	1057799	45144	110918	0	0	8030	597011	0	0
2024-07-24 17:59:47			0	36554	0	0	0	29368	27980	166165	27329	1057879	45155	110922	0	0	8028	598156	0	0
2024-07-24 18:00:47			0	36551	0	0	0	29355	27980	166409	27526	1057772	45155	110917	0	0	8028	598279	0	0
2024-07-24 18:01:47			0	36514	0	0	0	29340	27980	166429	27320	1057745	45155	110911	0	0	8026	599795	0	0
2024-07-24 18:02:47			0	36518	0	0	0	29322	27960	166445	27182	1057718	45143	110904	0	0	8027	599700	0	0
2024-07-24 18:03:47			0	36496	0	0	0	29329	27960	166481	26875	1057709	45153	110907	0	0	8025	600603	0	0
2024-07-24 18:04:47			0	36481	0	0	0	29316	27960	166645	27223	1057745	45165	110902	0	0	8024	601218	0	0
2024-07-24 18:05:47			0	36461	0	0	0	29327	27960	166565	27104	1057718	45154	110906	0	0	8023	602041	0	0
2024-07-24 18:06:47			0	36457	0	0	0	29303	27950	166729	27130	1057593	45153	110897	0	0	8023	602240	0	0
2024-07-24 18:07:47			0	36437	0	0	0	29288	27960	166689	27365	1057628	45153	110891	0	0	8022	603028	0	0
2024-07-24 18:08:47			0	36439	0	0	0	29267	27950	166773	27222	1057539	45153	110883	0	0	8023	602980	0	0
2024-07-24 18:09:47			0	36435	0	0	0	29280	27940	166873	26954	1057548	45141	110888	0	0	8022	603180	0	0
2024-07-24 18:10:47			0	36404	0	0	0	29280	27930	166785	27211	1057521	45163	110888	0	0	8020	604492	0	0
2024-07-24 18:11:47			0	36393	0	0	0	29288	27930	166961	27280	1057557	45151	110891	0	0	8020	604945	0	0
2024-07-24 18:12:47			0	36402	0	0	0	29277	27930	166961	27159	1057557	45140	110887	0	0	8020	604574	0	0
2024-07-24 18:13:47			0	36406	0	0	0	29257	27930	166977	27201	1057521	45151	110879	0	0	8021	604409	0	0
2024-07-24 18:14:47			0	36390	0	0	0	29241	27920	166937	27013	1057485	45150	110873	0	0	8020	605104	0	0
2024-07-24 18:15:47			0	36393	0	0	0	29241	27920	166981	27114	1057405	45139	110873	0	0	8020	604980	0	0
2024-07-24 18:16:47			0	36377	0	0	0	29277	27910	166985	27150	1057387	45137	110887	0	0	8019	605676	0	0
2024-07-24 18:17:47			0	36360	0	0	0	29316	27910	167141	27111	1057459	45148	110902	0	0	8017	606378	0	0
2024-07-24 18:18:47			0	36356	0	0	0	29314	27920	167281	26771	1057503	45161	110901	0	0	8017	606508	0	0
2024-07-24 18:19:47			0	36355	0	0	0	29298	27910	167225	26979	1057548	45160	110895	0	0	8017	606585	0	0
2024-07-24 18:20:47			0	36373	0	0	0	29306	27920	167101	26927	1057557	45149	110898	0	0	8018	605806	0	0
2024-07-24 18:21:47			0	36375	0	0	0	29322	27920	167097	26887	1057512	45172	110904	0	0	8018	605723	0	0
2024-07-24 18:22:47			0	36398	0	0	0	29280	27930	166941	27147	1057575	45140	110888	0	0	8020	604739	0	0
2024-07-24 18:23:47			0	36409	0	0	0	29296	27920	166941	26955	1057485	45162	110894	0	0	8020	604321	0	0
2024-07-24 18:24:47			0	36426	0	0	0	29288	27920	166881	27334	1057458	45139	110891	0	0	8021	603620	0	0
2024-07-24 18:25:47			0	36415	0	0	0	29280	27910	166909	27166	1057468	45137	110888	0	0	8021	604108	0	0
2024-07-24 18:26:47			0	36431	0	0	0	29293	27920	166745	27274	1057450	45149	110893	0	0	8022	603414	0	0
2024-07-24 18:27:47			0	36417	0	0	0	29298	27910	166793	26994	1057441	45148	110895	0	0	8021	604026	0	0
2024-07-24 18:28:47			0	36421	0	0	0	29306	27920	166781	27144	1057539	45162	110898	0	0	8021	603826	0	0
2024-07-24 18:29:47			0	36445	0	0	0	29316	27920	166937	27164	1057593	45150	110902	0	0	8022	602838	0	0
2024-07-24 18:30:47			0	36427	0	0	0	29288	27920	166825	27383	1057557	45149	110891	0	0	8021	603579	0	0
2024-07-24 18:31:47			0	36436	0	0	0	29296	27920	166665	27104	1057539	45162	110894	0	0	8022	603208	0	0
2024-07-24 18:32:47			0	36451	0	0	0	29290	27920	166701	27059	1057539	45172	110892	0	0	8023	602591	0	0
2024-07-24 18:33:47			0	36448	0	0	0	29283	27920	166637	26882	1057530	45161	110889	0	0	8023	602714	0	0
2024-07-24 18:34:47			0	36449	0	0	0	29285	27930	166633	27227	1057584	45163	110890	0	0	8023	602638	0	0
2024-07-24 18:35:47			0	36439	0	0	0	29272	27930	166677	27313	1057548	45151	110885	0	0	8023	603050	0	0
2024-07-24 18:36:47			0	36424	0	0	0	29238	27920	166589	27164	1057485	45150	110872	0	0	8022	603702	0	0
2024-07-24 18:37:47			0	36416	0	0	0	29231	27920	166681	27190	1057485	45150	110869	0	0	8022	604032	0	0
2024-07-24 18:38:47			0	36352	0	0	0	29254	27910	166993	27149	1057351	45148	110878	0	0	8018	606709	0	0
2024-07-24 18:39:47			0	36314	0	0	0	29246	27910	167189	27208	1057387	45148	110875	0	0	8015	608281	0	0
2024-07-24 18:40:47			0	36300	0	0	0	29254	27910	167353	27067	1057432	45148	110878	0	0	8014	608861	0	0
2024-07-24 18:41:47			0	36260	0	0	0	29251	27910	167445	27360	1057351	45148	110877	0	0	8012	610520	0	0
2024-07-24 18:42:47			0	36264	0	0	0	29231	27900	167481	27324	1057360	45159	110869	0	0	8013	610390	0	0
2024-07-24 18:43:47			0	36259	0	0	0	29212	27890	167513	27020	1057324	45124	110862	0	0	8013	610632	0	0
2024-07-24 18:44:47			0	36249	0	0	0	29215	27890	167621	27395	1057270	45146	110863	0	0	8012	611048	0	0
2024-07-24 18:45:47			0	36264	0	0	0	29223	27890	167609	27325	1057261	45135	110866	0	0	8013	610425	0	0
2024-07-24 18:46:47			0	36238	0	0	0	29210	27870	167617	27230	1057181	45133	110861	0	0	8011	611575	0	0
2024-07-24 18:47:47			0	36219	0	0	0	29218	27870	167709	27386	1057208	45156	110864	0	0	8010	612366	0	0
2024-07-24 18:48:47			0	36229	0	0	0	29225	27870	167721	27118	1057181	45144	110867	0	0	8010	611950	0	0
2024-07-24 18:49:47			0	36199	0	0	0	29262	27870	167829	27235	1057181	45144	110881	0	0	8008	613198	0	0
2024-07-24 18:50:47			0	36216	0	0	0	29244	27860	167905	26916	1057217	45144	110874	0	0	8009	612526	0	0
2024-07-24 18:51:47			0	36205	0	0	0	29246	27870	167957	27241	1057253	45144	110875	0	0	8009	612948	0	0
2024-07-24 18:52:47			0	36207	0	0	0	29233	27870	167733	26934	1057279	45144	110870	0	0	8009	612865	0	0
2024-07-24 18:53:47			0	36197	0	0	0	29241	27860	167833	27138	1057190	45144	110873	0	0	8008	613317	0	0
2024-07-24 18:54:47			0	36188	0	0	0	29233	27860	167801	26790	1057190	45156	110870	0	0	8008	613692	0	0
2024-07-24 18:55:47			0	36206	0	0	0	29238	27860	167877	26871	1057235	45155	110872	0	0	8009	612942	0	0
2024-07-24 18:56:47			0	36211	0	0	0	29249	27860	167837	27057	1057244	45144	110876	0	0	8009	612734	0	0
2024-07-24 18:57:47			0	36229	0	0	0	29246	27860	167737	27088	1057217	45156	110875	0	0	8010	611985	0	0
2024-07-24 18:58:47			0	36226	0	0	0	29238	27870	167685	27150	1057226	45144	110872	0	0	8010	612074	0	0
2024-07-24 18:59:47			0	36248	0	0	0	29264	27860	167677	26729	1057208	45132	110882	0	0	8011	611195	0	0
2024-07-24 19:00:47			0	36255	0	0	0	29283	27860	167729	27045	1057208	45155	110889	0	0	8011	610904	0	0
2024-07-24 19:01:47			0	36260	0	0	0	29285	27870	167633	27076	1057360	45178	110890	0	0	8011	610661	0	0
2024-07-24 19:02:47			0	36271	0	0	0	29275	27870	167489	27322	1057279	45178	110886	0	0	8012	610204	0	0
2024-07-24 19:03:47			0	36292	0	0	0	29267	27880	167453	27180	1057324	45157	110883	0	0	8014	609298	0	0
2024-07-24 19:04:47			0	36308	0	0	0	29241	27880	167469	27069	1057324	45145	110873	0	0	8015	608635	0	0
2024-07-24 19:05:47			0	36300	0	0	0	29225	27870	167337	27267	1057235	45133	110867	0	0	8015	609001	0	0
2024-07-24 19:06:47			0	36283	0	0	0	29231	27860	167449	27055	1057217	45144	110869	0	0	8014	609742	0	0
2024-07-24 19:07:47			0	36256	0	0	0	29236	27870	167505	26981	1057199	45144	110871	0	0	8012	610827	0	0
2024-07-24 19:08:47			0	36236	0	0	0	29244	27860	167633	27150	1057235	45143	110874	0	0	8011	611694	0	0
2024-07-24 19:09:47			0	36246	0	0	0	29238	27860	167725	27173	1057262	45143	110872	0	0	8011	611278	0	0
2024-07-24 19:10:47			0	36241	0	0	0	29246	27860	167677	26928	1057181	45155	110875	0	0	8011	611486	0	0
2024-07-24 19:11:47			0	36245	0	0	0	29257	27860	167521	26816	1057235	45155	110879	0	0	8011	611320	0	0
2024-07-24 19:12:47			0	36260	0	0	0	29254	27860	167613	27268	1057235	45143	110878	0	0	8012	610696	0	0
2024-07-24 19:13:47			0	36276	0	0	0	29244	27860	167581	27098	1057235	45166	110874	0	0	8013	610032	0	0
2024-07-24 19:14:47			0	36259	0	0	0	29272	27860	167545	27050	1057289	45177	110885	0	0	8011	610738	0	0
2024-07-24 19:15:47			0	36269	0	0	0	29264	27860	167585	27192	1057271	45133	110882	0	0	8012	610323	0	0
2024-07-24 19:16:47			0	36293	0	0	0	29251	27870	167433	27090	1057226	45144	110877	0	0	8014	609292	0	0
2024-07-24 19:17:47			0	36313	0	0	0	29233	27870	167485	27015	1057226	45144	110870	0	0	8015	608463	0	0
2024-07-24 19:18:47			0	36285	0	0	0	29233	27860	167453	27194	1057208	45143	110870	0	0	8014	609659	0	0
2024-07-24 19:19:47			0	36275	0	0	0	29241	27860	167477	27066	1057181	45155	110873	0	0	8013	610074	0	0
2024-07-24 19:20:47			0	36258	0	0	0	29246	27860	167625	27050	1057208	45166	110875	0	0	8012	610780	0	0
2024-07-24 19:21:47			0	36235	0	0	0	29241	27850	167805	27046	1057172	45154	110873	0	0	8010	611771	0	0
2024-07-24 19:22:47			0	36195	0	0	0	29244	27850	167797	27197	1057226	45154	110874	0	0	8008	613436	0	0
2024-07-24 19:23:47			0	36174	0	0	0	29233	27850	167981	27180	1057199	45165	110870	0	0	8007	614311	0	0
2024-07-24 19:24:47			0	36161	0	0	0	29238	27860	168001	26981	1057181	45155	110872	0	0	8006	614818	0	0
2024-07-24 19:25:47			0	36134	0	0	0	29241	27840	168193	26948	1057181	45141	110873	0	0	8004	616016	0	0
2024-07-24 19:26:47			0	36146	0	0	0	29249	27850	168213	27183	1057145	45165	110876	0	0	8005	615480	0	0
2024-07-24 19:27:47			0	36127	0	0	0	29236	27850	168113	27083	1057226	45165	110871	0	0	8004	616274	0	0
2024-07-24 19:28:47			0	36142	0	0	0	29254	27840	168081	27150	1057199	45141	110878	0	0	8005	615682	0	0
2024-07-24 19:29:47			0	36130	0	0	0	29241	27830	168225	27116	1057136	45152	110873	0	0	8004	616219	0	0
2024-07-24 19:30:47			0	36120	0	0	0	29244	27860	168125	26835	1057181	45155	110874	0	0	8004	616531	0	0
2024-07-24 19:31:47			0	36129	0	0	0	29257	27840	168169	27097	1057181	45153	110879	0	0	8004	616225	0	0
2024-07-24 19:32:47			0	36113	0	0	0	29249	27850	168213	27015	1057163	45141	110876	0	0	8003	616859	0	0
2024-07-24 19:33:47			0	36144	0	0	0	29241	27850	168233	26746	1057199	45154	110873	0	0	8005	615563	0	0
2024-07-24 19:34:47			0	36130	0	0	0	29251	27850	168285	27010	1057172	45154	110877	0	0	8004	616148	0	0
2024-07-24 19:35:47			0	36116	0	0	0	29244	27850	168201	26887	1057199	45154	110874	0	0	8003	616733	0	0
2024-07-24 19:36:47			0	36103	0	0	0	29244	27840	168365	26746	1057154	45153	110874	0	0	8002	617313	0	0
2024-07-24 19:37:47			0	36107	0	0	0	29241	27850	168261	26731	1057136	45141	110873	0	0	8003	617110	0	0
2024-07-24 19:38:47			0	36101	0	0	0	29241	27850	168189	26746	1057190	45141	110873	0	0	8002	617361	0	0
2024-07-24 19:39:47			0	36125	0	0	0	29236	27840	168285	26767	1057154	45164	110871	0	0	8004	616393	0	0
2024-07-24 19:40:47			0	36118	0	0	0	29244	27840	168301	27149	1057181	45153	110874	0	0	8003	616685	0	0
2024-07-24 19:41:47			0	36112	0	0	0	29238	27840	168261	27183	1057127	45153	110872	0	0	8003	616936	0	0
2024-07-24 19:42:47			0	36101	0	0	0	29231	27840	168329	26687	1057181	45153	110869	0	0	8003	617397	0	0
2024-07-24 19:43:47			0	36103	0	0	0	29238	27850	168273	26960	1057118	45142	110872	0	0	8003	617277	0	0
2024-07-24 19:44:47			0	36099	0	0	0	29233	27840	168205	26892	1057127	45153	110870	0	0	8002	617480	0	0
2024-07-24 19:45:47			0	36101	0	0	0	29225	27840	168245	26835	1057154	45141	110867	0	0	8003	617397	0	0
2024-07-24 19:46:47			0	36114	0	0	0	29225	27840	168173	26854	1057100	45164	110867	0	0	8003	616853	0	0
2024-07-24 19:47:47			0	36104	0	0	0	29225	27830	168245	26856	1057163	45152	110867	0	0	8003	617307	0	0
2024-07-24 19:48:47			0	36093	0	0	0	29231	27830	168333	26817	1057163	45140	110869	0	0	8002	617767	0	0
2024-07-24 19:49:47			0	36094	0	0	0	29238	27830	168245	26981	1057083	45140	110872	0	0	8002	617725	0	0
2024-07-24 19:50:47			0	36088	0	0	0	29225	27840	168369	27156	1057118	45153	110867	0	0	8002	617941	0	0
2024-07-24 19:51:47			0	36077	0	0	0	29228	27830	168449	27050	1057110	45152	110868	0	0	8001	618437	0	0
2024-07-24 19:52:47			0	36072	0	0	0	29223	27830	168321	27107	1057047	45139	110866	0	0	8001	618647	0	0
2024-07-24 19:53:47			0	36073	0	0	0	29218	27840	168413	27102	1057118	45153	110864	0	0	8001	618569	0	0
2024-07-24 19:54:47			0	36073	0	0	0	29218	27830	168397	27013	1057128	45162	110864	0	0	8001	618605	0	0
2024-07-24 19:55:47			0	36050	0	0	0	29223	27830	168365	26956	1057136	45163	110866	0	0	8000	619570	0	0
2024-07-24 19:56:47			0	36079	0	0	0	29223	27830	168533	26850	1057136	45152	110866	0	0	8001	618354	0	0
2024-07-24 19:57:47			0	36064	0	0	0	29236	27830	168497	27067	1057074	45151	110871	0	0	8000	618982	0	0
2024-07-24 19:58:47			0	36067	0	0	0	29231	27830	168389	27154	1057074	45151	110869	0	0	8000	618856	0	0
2024-07-24 19:59:47			0	36082	0	0	0	29225	27830	168421	26762	1057163	45140	110867	0	0	8001	618228	0	0
2024-07-24 20:00:47			0	36071	0	0	0	29231	27820	168437	26736	1057065	45162	110869	0	0	8001	618725	0	0
2024-07-24 20:01:47			0	36054	0	0	0	29220	27830	168457	26857	1057074	45151	110865	0	0	8000	619402	0	0
2024-07-24 20:02:47			0	36058	0	0	0	29225	27830	168433	26875	1057056	45163	110867	0	0	8000	619234	0	0
2024-07-24 20:03:47			0	36069	0	0	0	29225	27830	168413	27066	1057083	45140	110867	0	0	8001	618773	0	0
2024-07-24 20:04:47			0	36075	0	0	0	29228	27820	168373	27405	1057065	45162	110868	0	0	8001	618557	0	0
2024-07-24 20:05:47			0	36086	0	0	0	29228	27820	168365	26646	1057092	45162	110868	0	0	8002	618096	0	0
2024-07-24 20:06:47			0	36071	0	0	0	29228	27840	168317	27012	1057145	45164	110868	0	0	8001	618653	0	0
2024-07-24 20:07:47			0	36053	0	0	0	29228	27830	168409	26750	1057128	45173	110868	0	0	8000	619444	0	0
2024-07-24 20:08:47			0	36064	0	0	0	29228	27830	168433	27019	1057136	45152	110868	0	0	8000	618982	0	0
2024-07-24 20:09:47			0	36075	0	0	0	29236	27830	168505	26979	1057110	45152	110871	0	0	8001	618521	0	0
2024-07-24 20:10:47			0	36072	0	0	0	29236	27830	168397	27060	1057074	45173	110871	0	0	8001	618647	0	0
2024-07-24 20:11:47			0	36073	0	0	0	29238	27830	168441	27064	1057128	45162	110872	0	0	8001	618605	0	0
2024-07-24 20:12:47			0	36074	0	0	0	29236	27820	168373	27281	1057146	45162	110871	0	0	8001	618599	0	0
2024-07-24 20:13:47			0	36073	0	0	0	29228	27830	168353	26925	1057110	45152	110868	0	0	8001	618605	0	0
2024-07-24 20:14:47			0	36069	0	0	0	29228	27830	168385	26955	1057128	45151	110868	0	0	8001	618773	0	0
2024-07-24 20:15:47			0	36057	0	0	0	29220	27830	168585	26814	1057128	45151	110865	0	0	8000	619276	0	0
2024-07-24 20:16:47			0	36040	0	0	0	29233	27830	168617	27175	1057083	45163	110870	0	0	7999	619989	0	0
2024-07-24 20:17:47			0	36041	0	0	0	29223	27830	168601	26868	1057101	45151	110866	0	0	7999	619947	0	0
2024-07-24 20:18:47			0	36046	0	0	0	29220	27820	168541	27019	1057119	45173	110865	0	0	7999	619773	0	0
2024-07-24 20:19:47			0	36029	0	0	0	29223	27830	168617	27488	1057136	45152	110866	0	0	7998	620451	0	0
2024-07-24 20:20:47			0	36038	0	0	0	29212	27830	168601	27201	1057020	45162	110862	0	0	7999	620073	0	0
2024-07-24 20:21:47			0	36016	0	0	0	29218	27820	168717	26967	1057065	45162	110864	0	0	7998	621033	0	0
2024-07-24 20:22:47			0	36007	0	0	0	29212	27830	168737	26920	1057047	45151	110862	0	0	7997	621376	0	0
2024-07-24 20:23:47			0	35997	0	0	0	29215	27830	168953	26674	1057020	45173	110863	0	0	7996	621796	0	0
2024-07-24 20:24:47			0	35978	0	0	0	29207	27820	168909	26970	1057110	45162	110860	0	0	7995	622632	0	0
2024-07-24 20:25:47			0	35975	0	0	0	29207	27820	168877	27069	1057056	45162	110860	0	0	7995	622758	0	0
2024-07-24 20:26:47			0	35986	0	0	0	29210	27810	168965	26902	1057047	45150	110861	0	0	7996	622331	0	0
2024-07-24 20:27:47			0	35975	0	0	0	29212	27820	168957	27098	1057065	45151	110862	0	0	7995	622758	0	0
2024-07-24 20:28:47			0	35964	0	0	0	29210	27820	169013	26720	1057083	45162	110861	0	0	7994	623221	0	0
2024-07-24 20:29:47			0	35932	0	0	0	29212	27820	169109	27144	1057065	45162	110862	0	0	7993	624571	0	0
2024-07-24 20:30:47			0	35922	0	0	0	29215	27820	169189	26975	1056984	45162	110863	0	0	7992	624993	0	0
2024-07-24 20:31:47			0	35918	0	0	0	29210	27820	169237	27079	1057065	45162	110861	0	0	7992	625162	0	0
2024-07-24 20:32:47			0	35871	0	0	0	29181	27810	169348	26882	1057020	45161	110850	0	0	7989	627185	0	0
2024-07-24 20:33:47			0	35876	0	0	0	29161	27820	169297	26946	1057038	45173	110842	0	0	7990	626937	0	0
2024-07-24 20:34:47			0	35877	0	0	0	29153	27810	169377	26849	1056913	45150	110839	0	0	7990	626931	0	0
2024-07-24 20:35:47			0	35868	0	0	0	29137	27800	169361	27156	1056949	45160	110833	0	0	7990	627348	0	0
2024-07-24 20:36:47			0	35841	0	0	0	29153	27810	169548	27229	1056931	45149	110839	0	0	7988	628456	0	0
2024-07-24 20:37:47			0	35838	0	0	0	29173	27800	169660	27190	1056841	45138	110847	0	0	7987	628619	0	0
2024-07-24 20:38:47			0	35809	0	0	0	29181	27800	169636	27107	1056922	45171	110850	0	0	7985	629850	0	0
2024-07-24 20:39:47			0	35834	0	0	0	29189	27800	169648	27022	1056975	45160	110853	0	0	7987	628789	0	0
2024-07-24 20:40:47			0	35819	0	0	0	29194	27790	169732	27072	1056859	45138	110855	0	0	7986	629462	0	0
2024-07-24 20:41:47			0	35816	0	0	0	29192	27790	169792	26960	1057020	45149	110854	0	0	7986	629589	0	0
2024-07-24 20:42:47			0	35793	0	0	0	29194	27800	169676	26977	1056949	45149	110855	0	0	7984	630529	0	0
2024-07-24 20:43:47			0	35805	0	0	0	29163	27790	169744	26802	1056993	45160	110843	0	0	7985	630056	0	0
2024-07-24 20:44:47			0	35827	0	0	0	29171	27790	169620	27097	1056886	45171	110846	0	0	7987	629122	0	0
2024-07-24 20:45:47			0	35827	0	0	0	29179	27780	169764	27088	1056868	45147	110849	0	0	7987	629158	0	0
2024-07-24 20:46:47			0	35817	0	0	0	29168	27780	169668	27078	1056895	45147	110845	0	0	7986	629583	0	0
2024-07-24 20:47:47			0	35797	0	0	0	29163	27790	169764	27255	1056877	45137	110843	0	0	7985	630396	0	0
2024-07-24 20:48:47			0	35792	0	0	0	29168	27780	169796	26977	1056841	45136	110845	0	0	7985	630645	0	0
2024-07-24 20:49:47			0	35778	0	0	0	29163	27770	169868	27062	1056796	45157	110843	0	0	7984	631276	0	0
2024-07-24 20:50:47			0	35781	0	0	0	29166	27770	169900	26752	1056850	45146	110844	0	0	7984	631149	0	0
2024-07-24 20:51:47			0	35792	0	0	0	29158	27760	169828	26568	1056805	45167	110841	0	0	7985	630717	0	0
2024-07-24 20:52:47			0	35752	0	0	0	29150	27770	169936	26807	1056877	45146	110838	0	0	7982	632383	0	0
2024-07-24 20:53:47			0	35751	0	0	0	29158	27780	170048	26710	1056778	45157	110841	0	0	7982	632389	0	0
2024-07-24 20:54:47			0	35722	0	0	0	29155	27770	170132	26653	1056769	45157	110840	0	0	7980	633661	0	0
2024-07-24 20:55:47			0	35709	0	0	0	29153	27770	170132	26974	1056787	45157	110839	0	0	7980	634216	0	0
2024-07-24 20:56:47			0	35708	0	0	0	29158	27770	170176	27116	1056760	45157	110841	0	0	7980	634258	0	0
2024-07-24 20:57:47			0	35721	0	0	0	29161	27760	170208	26930	1056743	45144	110842	0	0	7980	633740	0	0
2024-07-24 20:58:47			0	35712	0	0	0	29166	27770	170192	26935	1056814	45157	110844	0	0	7980	634087	0	0
2024-07-24 20:59:47			0	35714	0	0	0	29166	27770	170160	27007	1056733	45157	110844	0	0	7980	634002	0	0
2024-07-24 21:00:47			0	35729	0	0	0	29163	27760	170128	27005	1056751	45156	110843	0	0	7981	633399	0	0
2024-07-24 21:01:47			0	35747	0	0	0	29150	27760	170020	26932	1056725	45156	110838	0	0	7982	632632	0	0
2024-07-24 21:02:47			0	35751	0	0	0	29124	27760	170036	26928	1056769	45155	110828	0	0	7983	632462	0	0
2024-07-24 21:03:47			0	35754	0	0	0	29111	27760	170036	26960	1056698	45145	110823	0	0	7983	632334	0	0
2024-07-24 21:04:47			0	35779	0	0	0	29093	27760	169976	26805	1056689	45133	110816	0	0	7985	631270	0	0
2024-07-24 21:05:47			0	35786	0	0	0	29103	27750	169764	26667	1056590	45122	110820	0	0	7985	631009	0	0
2024-07-24 21:06:47			0	35803	0	0	0	29119	27740	169840	27048	1056599	45154	110826	0	0	7986	630322	0	0
2024-07-24 21:07:47			0	35807	0	0	0	29109	27750	169816	27270	1056626	45155	110822	0	0	7986	630116	0	0
2024-07-24 21:08:47			0	35810	0	0	0	29127	27740	169712	26972	1056689	45143	110829	0	0	7986	630025	0	0
2024-07-24 21:09:47			0	35827	0	0	0	29119	27730	169732	26857	1056617	45142	110826	0	0	7987	629340	0	0
2024-07-24 21:10:47			0	35810	0	0	0	29140	27740	169736	26960	1056653	45131	110834	0	0	7986	630025	0	0
2024-07-24 21:11:47			0	35801	0	0	0	29109	27740	169904	27015	1056653	45142	110822	0	0	7986	630407	0	0
2024-07-24 21:12:47			0	35788	0	0	0	29064	27730	169916	26693	1056608	45154	110805	0	0	7986	630996	0	0
2024-07-24 21:13:47			0	35766	0	0	0	29080	27730	169968	27147	1056501	45154	110811	0	0	7984	631932	0	0
2024-07-24 21:14:47			0	35759	0	0	0	29101	27720	170112	26733	1056519	45130	110819	0	0	7983	632267	0	0
2024-07-24 21:15:47			0	35733	0	0	0	29122	27710	170228	26882	1056501	45129	110827	0	0	7981	633411	0	0
2024-07-24 21:16:47			0	35753	0	0	0	29109	27720	170224	27092	1056564	45152	110822	0	0	7983	632522	0	0
2024-07-24 21:17:47			0	35749	0	0	0	29109	27720	170076	26986	1056483	45163	110822	0	0	7983	632692	0	0
2024-07-24 21:18:47			0	35746	0	0	0	29098	27720	170088	26790	1056510	45152	110818	0	0	7983	632820	0	0
2024-07-24 21:19:47			0	35758	0	0	0	29093	27720	170068	27175	1056546	45153	110816	0	0	7983	632309	0	0
2024-07-24 21:20:47			0	35759	0	0	0	29096	27710	170176	26928	1056501	45152	110817	0	0	7983	632303	0	0
2024-07-24 21:21:47			0	35749	0	0	0	29093	27710	170188	26833	1056474	45152	110816	0	0	7983	632729	0	0
2024-07-24 21:22:47			0	35753	0	0	0	29093	27710	170160	26953	1056465	45151	110816	0	0	7983	632559	0	0
2024-07-24 21:23:47			0	35763	0	0	0	29093	27710	170240	26889	1056465	45162	110816	0	0	7984	632133	0	0
2024-07-24 21:24:47			0	35760	0	0	0	29090	27710	170188	26965	1056492	45151	110815	0	0	7984	632260	0	0
2024-07-24 21:25:47			0	35753	0	0	0	29088	27700	170116	27012	1056537	45139	110814	0	0	7983	632595	0	0
2024-07-24 21:26:47			0	35754	0	0	0	29062	27700	170116	26852	1056456	45139	110804	0	0	7984	632552	0	0
2024-07-24 21:27:47			0	35748	0	0	0	29080	27710	170176	27208	1056492	45139	110811	0	0	7983	632771	0	0
2024-07-24 21:28:47			0	35743	0	0	0	29054	27700	170164	26838	1056403	45151	110801	0	0	7983	633021	0	0
2024-07-24 21:29:47			0	35745	0	0	0	29005	27700	170036	27048	1056394	45138	110782	0	0	7984	632936	0	0
2024-07-24 21:30:47			0	35752	0	0	0	29057	27690	170096	27163	1056385	45160	110802	0	0	7984	632674	0	0
2024-07-24 21:31:47			0	35742	0	0	0	28994	27690	170208	26984	1056358	45149	110778	0	0	7984	633100	0	0
2024-07-24 21:32:47			0	35730	0	0	0	29041	27680	170276	26802	1056313	45137	110796	0	0	7982	633648	0	0
2024-07-24 21:33:47			0	35714	0	0	0	29075	27670	170308	26833	1056349	45147	110809	0	0	7981	634367	0	0
2024-07-24 21:34:47			0	35713	0	0	0	29072	27680	170352	26963	1056421	45149	110808	0	0	7981	634373	0	0
2024-07-24 21:35:47			0	35750	0	0	0	29064	27680	170188	26876	1056367	45137	110805	0	0	7983	632796	0	0
2024-07-24 21:36:47			0	35784	0	0	0	29044	27680	170136	26790	1056358	45136	110797	0	0	7986	631348	0	0
2024-07-24 21:37:47			0	35811	0	0	0	29046	27680	169860	27072	1056286	45160	110798	0	0	7987	630200	0	0
2024-07-24 21:38:47			0	35849	0	0	0	29023	27680	169684	26918	1056331	45148	110789	0	0	7990	628587	0	0
2024-07-24 21:39:47			0	35908	0	0	0	29020	27660	169457	26890	1056251	45135	110788	0	0	7994	626161	0	0
2024-07-24 21:40:47			0	35886	0	0	0	29018	27680	169505	27052	1056358	45136	110787	0	0	7992	627020	0	0
2024-07-24 21:41:47			0	35874	0	0	0	29036	27670	169541	26890	1056206	45135	110794	0	0	7991	627564	0	0
2024-07-24 21:42:47			0	35866	0	0	0	29033	27660	169633	27112	1056278	45125	110793	0	0	7991	627939	0	0
2024-07-24 21:43:47			0	35854	0	0	0	29020	27660	169788	26967	1056278	45147	110788	0	0	7990	628448	0	0
2024-07-24 21:44:47			0	35843	0	0	0	29031	27660	169728	27135	1056188	45124	110792	0	0	7989	628914	0	0
2024-07-24 21:45:47			0	35840	0	0	0	29033	27660	169808	26552	1056188	45157	110793	0	0	7989	629042	0	0
2024-07-24 21:46:47			0	35827	0	0	0	29020	27650	169912	26786	1056278	45145	110788	0	0	7989	629630	0	0
2024-07-24 21:47:47			0	35838	0	0	0	29025	27640	169824	27093	1056134	45132	110790	0	0	7989	629199	0	0
2024-07-24 21:48:47			0	35817	0	0	0	29023	27650	169928	26993	1056197	45133	110789	0	0	7988	630054	0	0
2024-07-24 21:49:47			0	35827	0	0	0	29015	27630	169920	27072	1056170	45131	110786	0	0	7989	629702	0	0
2024-07-24 21:50:47			0	35814	0	0	0	29025	27650	169872	26859	1056197	45145	110790	0	0	7988	630182	0	0
2024-07-24 21:51:47			0	35814	0	0	0	29023	27640	169872	26752	1056188	45144	110789	0	0	7988	630218	0	0
2024-07-24 21:52:47			0	35806	0	0	0	29015	27630	169928	26798	1056080	45143	110786	0	0	7987	630594	0	0
2024-07-24 21:53:47			0	35798	0	0	0	29012	27630	169936	26563	1056107	45131	110785	0	0	7987	630934	0	0
2024-07-24 21:54:47			0	35802	0	0	0	29012	27640	169920	26715	1056161	45144	110785	0	0	7987	630728	0	0
2024-07-24 21:55:47			0	35814	0	0	0	29007	27620	169916	26948	1056116	45130	110783	0	0	7988	630291	0	0
2024-07-24 21:56:47			0	35805	0	0	0	29010	27620	170068	26883	1056125	45120	110784	0	0	7987	630673	0	0
2024-07-24 21:57:47			0	35789	0	0	0	29010	27630	169980	26986	1056116	45131	110784	0	0	7986	631317	0	0
2024-07-24 21:58:47			0	35802	0	0	0	29007	27620	169980	26906	1056062	45130	110783	0	0	7987	630801	0	0
2024-07-24 21:59:47			0	35805	0	0	0	29007	27610	170088	26817	1056045	45140	110783	0	0	7987	630709	0	0
2024-07-24 22:00:47			0	35800	0	0	0	29012	27610	170164	26644	1056080	45129	110785	0	0	7987	630922	0	0
2024-07-24 22:01:47			0	35805	0	0	0	29012	27620	169952	26651	1056098	45142	110785	0	0	7987	630673	0	0
2024-07-24 22:02:47			0	35797	0	0	0	29012	27620	169976	26717	1056071	45130	110785	0	0	7987	631013	0	0
2024-07-24 22:03:47			0	35798	0	0	0	29012	27620	169928	26623	1056036	45142	110785	0	0	7987	630971	0	0
2024-07-24 22:04:47			0	35791	0	0	0	29010	27610	170000	27005	1056054	45141	110784	0	0	7986	631305	0	0
2024-07-24 22:05:47			0	35801	0	0	0	29010	27620	170080	27085	1056062	45130	110784	0	0	7987	630843	0	0
2024-07-24 22:06:47			0	35791	0	0	0	28992	27610	170016	26885	1056080	45129	110777	0	0	7987	631305	0	0
2024-07-24 22:07:47			0	35795	0	0	0	28981	27610	169984	26710	1055991	45151	110773	0	0	7987	631135	0	0
2024-07-24 22:08:47			0	35814	0	0	0	28955	27610	169916	27116	1055937	45151	110763	0	0	7989	630327	0	0
2024-07-24 22:09:47			0	35833	0	0	0	28906	27610	169780	27118	1055937	45118	110744	0	0	7991	629520	0	0
2024-07-24 22:10:47			0	35802	0	0	0	28903	27600	169860	26722	1055865	45128	110743	0	0	7989	630873	0	0
2024-07-24 22:11:47			0	35781	0	0	0	28872	27590	169924	27031	1055803	45128	110731	0	0	7988	631803	0	0
2024-07-24 22:12:47			0	35763	0	0	0	28896	27580	170104	26948	1055776	45104	110740	0	0	7986	632606	0	0
2024-07-24 22:13:47			0	35753	0	0	0	28901	27580	170224	26871	1055722	45126	110742	0	0	7986	633032	0	0
2024-07-24 22:14:47			0	35732	0	0	0	28901	27560	170416	26878	1055723	45125	110742	0	0	7984	634001	0	0
2024-07-24 22:15:47			0	35708	0	0	0	28903	27560	170476	26875	1055669	45125	110743	0	0	7983	635025	0	0
2024-07-24 22:16:47			0	35702	0	0	0	28911	27560	170496	27052	1055723	45114	110746	0	0	7982	635282	0	0
2024-07-24 22:17:47			0	35691	0	0	0	28919	27560	170576	27022	1055714	45125	110749	0	0	7981	635752	0	0
2024-07-24 22:18:47			0	35680	0	0	0	28901	27550	170636	27008	1055669	45145	110742	0	0	7981	636259	0	0
2024-07-24 22:19:47			0	35685	0	0	0	28906	27550	170628	26896	1055705	45125	110744	0	0	7981	636045	0	0
2024-07-24 22:20:47			0	35665	0	0	0	28903	27550	170584	26913	1055669	45124	110743	0	0	7980	636901	0	0
2024-07-24 22:21:47			0	35669	0	0	0	28906	27550	170592	27046	1055669	45134	110744	0	0	7980	636730	0	0
2024-07-24 22:22:47			0	35674	0	0	0	28903	27540	170704	27171	1055660	45134	110743	0	0	7981	636552	0	0
2024-07-24 22:23:47			0	35678	0	0	0	28851	27530	170568	27059	1055615	45133	110723	0	0	7982	636418	0	0
2024-07-24 22:24:47			0	35663	0	0	0	28851	27530	170724	26847	1055615	45133	110723	0	0	7981	637060	0	0
2024-07-24 22:25:47			0	35661	0	0	0	28825	27530	170776	27145	1055481	45111	110713	0	0	7981	637146	0	0
2024-07-24 22:26:47			0	35641	0	0	0	28789	27530	170880	27008	1055534	45111	110699	0	0	7980	638003	0	0
2024-07-24 22:27:47			0	35631	0	0	0	28786	27510	170812	27190	1055427	45121	110698	0	0	7980	638505	0	0
2024-07-24 22:28:47			0	35624	0	0	0	28766	27500	170780	26979	1055293	45107	110690	0	0	7980	638842	0	0
2024-07-24 22:29:47			0	35645	0	0	0	28789	27490	170796	27102	1055221	45106	110699	0	0	7981	637978	0	0
2024-07-24 22:30:47			0	35635	0	0	0	28799	27480	170824	27417	1055257	45094	110703	0	0	7980	638444	0	0
2024-07-24 22:31:47			0	35645	0	0	0	28815	27470	170820	26712	1055240	45116	110709	0	0	7980	638051	0	0
2024-07-24 22:32:47			0	35652	0	0	0	28805	27470	170880	26896	1055240	45126	110705	0	0	7981	637751	0	0
2024-07-24 22:33:47			0	35666	0	0	0	28807	27460	170696	26968	1055195	45115	110706	0	0	7981	637188	0	0
2024-07-24 22:34:47			0	35699	0	0	0	28789	27450	170560	27128	1055213	45125	110699	0	0	7984	635812	0	0
2024-07-24 22:35:47			0	35704	0	0	0	28807	27460	170576	27263	1055141	45115	110706	0	0	7984	635562	0	0
2024-07-24 22:36:47			0	35700	0	0	0	28812	27460	170672	27424	1055249	45125	110708	0	0	7983	635733	0	0
2024-07-24 22:37:47			0	35709	0	0	0	28802	27450	170648	27300	1055204	45125	110704	0	0	7984	635385	0	0
2024-07-24 22:38:47			0	35670	0	0	0	28792	27450	170832	27048	1055204	45114	110700	0	0	7982	637053	0	0
2024-07-24 22:39:47			0	35655	0	0	0	28768	27440	170908	27255	1055168	45124	110691	0	0	7981	637733	0	0
2024-07-24 22:40:47			0	35647	0	0	0	28776	27450	170876	26904	1055123	45125	110694	0	0	7981	638039	0	0
2024-07-24 22:41:47			0	35643	0	0	0	28799	27440	170916	26970	1055141	45124	110703	0	0	7980	638247	0	0
2024-07-24 22:42:47			0	35621	0	0	0	28792	27440	171008	27052	1055133	45113	110700	0	0	7979	639191	0	0
2024-07-24 22:43:47			0	35626	0	0	0	28815	27440	171016	27064	1055159	45124	110709	0	0	7979	638977	0	0
2024-07-24 22:44:47			0	35611	0	0	0	28799	27430	171200	27275	1055177	45113	110703	0	0	7978	639658	0	0
2024-07-24 22:45:47			0	35618	0	0	0	28758	27440	171124	27121	1055195	45113	110687	0	0	7979	639320	0	0
2024-07-24 22:46:47			0	35620	0	0	0	28771	27440	171116	27013	1055168	45113	110692	0	0	7979	639234	0	0
2024-07-24 22:47:47			0	35592	0	0	0	28792	27440	171176	27107	1055106	45113	110700	0	0	7977	640437	0	0
2024-07-24 22:48:47			0	35582	0	0	0	28802	27430	171272	27371	1055097	45113	110704	0	0	7976	640904	0	0
2024-07-24 22:49:47			0	35561	0	0	0	28807	27430	171336	27185	1055151	45113	110706	0	0	7975	641808	0	0
2024-07-24 22:50:47			0	35532	0	0	0	28805	27420	171396	27107	1055106	45122	110705	0	0	7973	643095	0	0
2024-07-24 22:51:47			0	35525	0	0	0	28794	27430	171416	27128	1055070	45113	110701	0	0	7973	643360	0	0
2024-07-24 22:52:47			0	35484	0	0	0	28784	27430	171596	27242	1055124	45124	110697	0	0	7970	645130	0	0
2024-07-24 22:53:47			0	35475	0	0	0	28776	27420	171820	26927	1055025	45122	110694	0	0	7970	645557	0	0
2024-07-24 22:54:47			0	35448	0	0	0	28768	27420	171836	27189	1055052	45111	110691	0	0	7968	646725	0	0
2024-07-24 22:55:47			0	35435	0	0	0	28742	27420	171920	27029	1055043	45122	110681	0	0	7968	647288	0	0
2024-07-24 22:56:47			0	35433	0	0	0	28735	27420	171980	27287	1054963	45122	110678	0	0	7968	647375	0	0
2024-07-24 22:57:47			0	35409	0	0	0	28732	27420	172084	27326	1054936	45111	110677	0	0	7967	648416	0	0
2024-07-24 22:58:47			0	35398	0	0	0	28719	27410	172116	27381	1054954	45099	110672	0	0	7966	648931	0	0
2024-07-24 22:59:47			0	35372	0	0	0	28732	27410	172256	27071	1054891	45099	110677	0	0	7964	650060	0	0
2024-07-24 23:00:47			0	35367	0	0	0	28745	27400	172188	26994	1054909	45109	110682	0	0	7964	650315	0	0
2024-07-24 23:01:47			0	35384	0	0	0	28753	27380	172232	26960	1054846	45119	110685	0	0	7964	649650	0	0
2024-07-24 23:02:47			0	35375	0	0	0	28771	27390	172292	27013	1054882	45119	110692	0	0	7964	650004	0	0
2024-07-24 23:03:47			0	35389	0	0	0	28786	27390	172236	26857	1054855	45119	110698	0	0	7964	649396	0	0
2024-07-24 23:04:47			0	35393	0	0	0	28797	27380	172152	27239	1054972	45128	110702	0	0	7964	649259	0	0
2024-07-24 23:05:47			0	35410	0	0	0	28812	27390	172316	26694	1054945	45130	110708	0	0	7965	648484	0	0
2024-07-24 23:06:47			0	35417	0	0	0	28807	27390	172176	27215	1054945	45119	110706	0	0	7966	648180	0	0
2024-07-24 23:07:47			0	35415	0	0	0	28794	27400	172152	27161	1055061	45141	110701	0	0	7966	648230	0	0
2024-07-24 23:08:47			0	35436	0	0	0	28794	27400	172056	27246	1055016	45131	110701	0	0	7967	647319	0	0
2024-07-24 23:09:47			0	35432	0	0	0	28784	27390	172120	26923	1054972	45119	110697	0	0	7967	647530	0	0
2024-07-24 23:10:47			0	35408	0	0	0	28786	27400	172112	27275	1055034	45119	110698	0	0	7965	648534	0	0
2024-07-24 23:11:47			0	35430	0	0	0	28792	27390	172076	27093	1054998	45119	110700	0	0	7967	647617	0	0
2024-07-24 23:12:47			0	35421	0	0	0	28799	27410	172096	27093	1055025	45132	110703	0	0	7966	647932	0	0
2024-07-24 23:13:47			0	35422	0	0	0	28805	27390	172124	26823	1055052	45141	110705	0	0	7966	647964	0	0
2024-07-24 23:14:47			0	35415	0	0	0	28812	27400	172160	26977	1054989	45131	110708	0	0	7965	648230	0	0
2024-07-24 23:15:47			0	35398	0	0	0	28797	27400	172256	27022	1055034	45119	110702	0	0	7965	648968	0	0
2024-07-24 23:16:47			0	35424	0	0	0	28792	27400	172264	27050	1055070	45120	110700	0	0	7966	647840	0	0
2024-07-24 23:17:47			0	35383	0	0	0	28789	27410	172292	27422	1055079	45132	110699	0	0	7964	649582	0	0
2024-07-24 23:18:47			0	35360	0	0	0	28792	27400	172472	27033	1054954	45108	110700	0	0	7962	650619	0	0
2024-07-24 23:19:47			0	35346	0	0	0	28794	27400	172508	27074	1055034	45119	110701	0	0	7962	651228	0	0
2024-07-24 23:20:47			0	35310	0	0	0	28794	27390	172544	27232	1054945	45130	110701	0	0	7959	652834	0	0
2024-07-24 23:21:47			0	35298	0	0	0	28797	27390	172768	27022	1055025	45119	110702	0	0	7958	653358	0	0
2024-07-24 23:22:47			0	35280	0	0	0	28797	27400	172824	27168	1055007	45130	110702	0	0	7957	654106	0	0
2024-07-24 23:23:47			0	35264	0	0	0	28799	27400	172932	27111	1055043	45120	110703	0	0	7956	654805	0	0
2024-07-24 23:24:47			0	35259	0	0	0	28771	27400	172856	27086	1054954	45119	110692	0	0	7956	655023	0	0
2024-07-24 23:25:47			0	35247	0	0	0	28763	27400	172876	26998	1054954	45119	110689	0	0	7956	655548	0	0
2024-07-24 23:26:47			0	35255	0	0	0	28763	27400	172996	26753	1054954	45108	110689	0	0	7956	655198	0	0
2024-07-24 23:27:47			0	35234	0	0	0	28758	27390	173100	27052	1054891	45097	110687	0	0	7955	656155	0	0
2024-07-24 23:28:47			0	35212	0	0	0	28745	27380	173092	26845	1054927	45107	110682	0	0	7954	657156	0	0
2024-07-24 23:29:47			0	35227	0	0	0	28742	27390	173080	27062	1054882	45108	110681	0	0	7955	656461	0	0
2024-07-24 23:30:47			0	35195	0	0	0	28745	27380	173152	26743	1054837	45128	110682	0	0	7953	657901	0	0
2024-07-24 23:31:47			0	35203	0	0	0	28748	27390	173200	26948	1054864	45108	110683	0	0	7953	657513	0	0
2024-07-24 23:32:47			0	35206	0	0	0	28745	27380	173156	26984	1054810	45118	110682	0	0	7954	657419	0	0
2024-07-24 23:33:47			0	35218	0	0	0	28727	27380	173252	27171	1054784	45106	110675	0	0	7955	656893	0	0
2024-07-24 23:34:47			0	35200	0	0	0	28729	27370	173164	26764	1054712	45106	110676	0	0	7953	657720	0	0
2024-07-24 23:35:47			0	35222	0	0	0	28688	27370	173228	27033	1054793	45106	110660	0	0	7955	656755	0	0
2024-07-24 23:36:47			0	35235	0	0	0	28670	27360	173092	27119	1054640	45104	110653	0	0	7957	656224	0	0
2024-07-24 23:37:47			0	35262	0	0	0	28680	27350	172988	27029	1054632	45104	110657	0	0	7958	655080	0	0
2024-07-24 23:38:47			0	35290	0	0	0	28685	27350	172740	27000	1054596	45116	110659	0	0	7960	653857	0	0
2024-07-24 23:39:47			0	35335	0	0	0	28693	27330	172560	26842	1054623	45101	110662	0	0	7962	651969	0	0
2024-07-24 23:40:47			0	35370	0	0	0	28696	27340	172404	27208	1054668	45103	110663	0	0	7964	650408	0	0
2024-07-24 23:41:47			0	35412	0	0	0	28683	27330	172268	27412	1054542	45113	110658	0	0	7967	648621	0	0
2024-07-24 23:42:47			0	35439	0	0	0	28690	27320	172188	27307	1054596	45089	110661	0	0	7969	647487	0	0
2024-07-24 23:43:47			0	35426	0	0	0	28685	27320	172176	26958	1054516	45123	110659	0	0	7968	648051	0	0
2024-07-24 23:44:47			0	35409	0	0	0	28693	27320	172128	27173	1054525	45113	110662	0	0	7967	648788	0	0
2024-07-24 23:45:47			0	35427	0	0	0	28690	27310	172196	27213	1054534	45111	110661	0	0	7968	648045	0	0
2024-07-24 23:46:47			0	35408	0	0	0	28667	27320	172108	27083	1054516	45123	110652	0	0	7967	648832	0	0
2024-07-24 23:47:47			0	35430	0	0	0	28649	27300	172008	27239	1054489	45122	110645	0	0	7969	647952	0	0
2024-07-24 23:48:47			0	35450	0	0	0	28654	27310	171908	27215	1054507	45088	110647	0	0	7970	647047	0	0
2024-07-24 23:49:47			0	35468	0	0	0	28670	27310	171832	27034	1054444	45099	110653	0	0	7971	646268	0	0
2024-07-24 23:50:47			0	35483	0	0	0	28662	27290	171844	27176	1054444	45120	110650	0	0	7972	645693	0	0
2024-07-24 23:51:47			0	35466	0	0	0	28662	27290	171892	27067	1054471	45109	110650	0	0	7971	646429	0	0
2024-07-24 23:52:47			0	35462	0	0	0	28670	27290	171956	27114	1054471	45109	110653	0	0	7970	646602	0	0
2024-07-24 23:53:47			0	35449	0	0	0	28667	27290	172072	27159	1054418	45109	110652	0	0	7969	647165	0	0
2024-07-24 23:54:47			0	35439	0	0	0	28675	27290	172044	26817	1054382	45120	110655	0	0	7969	647599	0	0
2024-07-24 23:55:47			0	35443	0	0	0	28680	27290	172156	27145	1054355	45109	110657	0	0	7969	647425	0	0
2024-07-24 23:56:47			0	35444	0	0	0	28675	27290	172044	26771	1054382	45120	110655	0	0	7969	647382	0	0
2024-07-24 23:57:47			0	35436	0	0	0	28670	27280	172128	26972	1054399	45120	110653	0	0	7969	647766	0	0
2024-07-24 23:58:47			0	35443	0	0	0	28664	27290	172108	27067	1054436	45120	110651	0	0	7969	647425	0	0
2024-07-24 23:59:47			0	35443	0	0	0	28667	27290	172016	26958	1054436	45120	110652	0	0	7969	647425	0	0
2024-07-25 00:00:47			0	35467	0	0	0	28675	27290	172048	27275	1054436	45120	110655	0	0	7970	646386	0	0
2024-07-25 00:01:47			0	35499	0	0	0	28664	27280	171944	27319	1054426	45109	110651	0	0	7973	645038	0	0
2024-07-25 00:02:47			0	35525	0	0	0	28670	27280	171748	26953	1054373	45120	110653	0	0	7974	643915	0	0
2024-07-25 00:03:47			0	35536	0	0	0	28667	27280	171604	27166	1054426	45109	110652	0	0	7975	643440	0	0
2024-07-25 00:04:47			0	35565	0	0	0	28657	27280	171608	27015	1054364	45119	110648	0	0	7977	642189	0	0
2024-07-25 00:05:47			0	35584	0	0	0	28670	27280	171376	27157	1054310	45108	110653	0	0	7978	641371	0	0
2024-07-25 00:06:47			0	35613	0	0	0	28659	27280	171392	26901	1054417	45119	110649	0	0	7980	640123	0	0
2024-07-25 00:07:47			0	35618	0	0	0	28664	27270	171340	27137	1054355	45107	110651	0	0	7980	639945	0	0
2024-07-25 00:08:47			0	35618	0	0	0	28654	27280	171264	26996	1054364	45108	110647	0	0	7980	639908	0	0
2024-07-25 00:09:47			0	35628	0	0	0	28646	27270	171200	27220	1054301	45095	110644	0	0	7981	639515	0	0
2024-07-25 00:10:47			0	35619	0	0	0	28641	27260	171176	27190	1054310	45106	110642	0	0	7980	639939	0	0
2024-07-25 00:11:47			0	35621	0	0	0	28638	27270	171344	27142	1054346	45106	110641	0	0	7980	639816	0	0
2024-07-25 00:12:47			0	35616	0	0	0	28625	27260	171352	27178	1054274	45095	110636	0	0	7980	640068	0	0
2024-07-25 00:13:47			0	35598	0	0	0	28618	27270	171352	27123	1054319	45106	110633	0	0	7979	640805	0	0
2024-07-25 00:14:47			0	35574	0	0	0	28618	27250	171552	27156	1054239	45105	110633	0	0	7978	641912	0	0
2024-07-25 00:15:47			0	35547	0	0	0	28605	27250	171616	27093	1054239	45105	110628	0	0	7976	643076	0	0
2024-07-25 00:16:47			0	35544	0	0	0	28610	27250	171608	26941	1054239	45105	110630	0	0	7976	643206	0	0
2024-07-25 00:17:47			0	35545	0	0	0	28610	27250	171740	27218	1054149	45104	110630	0	0	7976	643163	0	0
2024-07-25 00:18:47			0	35549	0	0	0	28599	27240	171628	27218	1054167	45093	110626	0	0	7977	643027	0	0
2024-07-25 00:19:47			0	35576	0	0	0	28581	27240	171528	26941	1054140	45104	110619	0	0	7979	641863	0	0
2024-07-25 00:20:47			0	35568	0	0	0	28579	27230	171468	27161	1054123	45114	110618	0	0	7978	642244	0	0
2024-07-25 00:21:47			0	35604	0	0	0	28576	27230	171380	27154	1054123	45114	110617	0	0	7980	640694	0	0
2024-07-25 00:22:47			0	35613	0	0	0	28566	27230	171312	27294	1054087	45102	110613	0	0	7981	640307	0	0
2024-07-25 00:23:47			0	35644	0	0	0	28561	27230	171172	26928	1054060	45102	110611	0	0	7983	638975	0	0
2024-07-25 00:24:47			0	35674	0	0	0	28555	27220	171104	27274	1054051	45091	110609	0	0	7985	637724	0	0
2024-07-25 00:25:47			0	35685	0	0	0	28542	27210	171036	27161	1053988	45102	110604	0	0	7986	637289	0	0
2024-07-25 00:26:47			0	35708	0	0	0	28537	27200	170928	27126	1053971	45100	110602	0	0	7987	636341	0	0
2024-07-25 00:27:47			0	35723	0	0	0	28548	27200	170892	27244	1053971	45100	110606	0	0	7988	635699	0	0
2024-07-25 00:28:47			0	35746	0	0	0	28540	27200	170720	27098	1053971	45089	110603	0	0	7989	634715	0	0
2024-07-25 00:29:47			0	35746	0	0	0	28540	27190	170708	26925	1053899	45088	110603	0	0	7989	634752	0	0
2024-07-25 00:30:47			0	35742	0	0	0	28545	27190	170644	26854	1053899	45099	110605	0	0	7989	634923	0	0
2024-07-25 00:31:47			0	35766	0	0	0	28540	27190	170624	27020	1053836	45099	110603	0	0	7991	633897	0	0
2024-07-25 00:32:47			0	35771	0	0	0	28537	27170	170576	27013	1053783	45075	110602	0	0	7991	633757	0	0
2024-07-25 00:33:47			0	35768	0	0	0	28527	27180	170608	27093	1053819	45097	110598	0	0	7991	633848	0	0
2024-07-25 00:34:47			0	35784	0	0	0	28529	27170	170544	27114	1053864	45097	110599	0	0	7992	633202	0	0
2024-07-25 00:35:47			0	35783	0	0	0	28542	27170	170500	27045	1053864	45097	110604	0	0	7991	633244	0	0
2024-07-25 00:36:47			0	35805	0	0	0	28532	27170	170424	27244	1053837	45109	110600	0	0	7993	632306	0	0
2024-07-25 00:37:47			0	35809	0	0	0	28493	27180	170488	26923	1053792	45086	110585	0	0	7994	632100	0	0
2024-07-25 00:38:47			0	35839	0	0	0	28480	27170	170280	27071	1053747	45097	110580	0	0	7996	630859	0	0
2024-07-25 00:39:47			0	35850	0	0	0	28475	27160	170232	27185	1053711	45096	110578	0	0	7997	630427	0	0
2024-07-25 00:40:47			0	35892	0	0	0	28475	27160	170101	27175	1053675	45095	110578	0	0	7999	628642	0	0
2024-07-25 00:41:47			0	35902	0	0	0	28485	27160	170113	26833	1053738	45096	110582	0	0	8000	628218	0	0
2024-07-25 00:42:47			0	35921	0	0	0	28506	27150	169985	27267	1053711	45095	110590	0	0	8000	627448	0	0
2024-07-25 00:43:47			0	35936	0	0	0	28522	27150	169865	27196	1053711	45095	110596	0	0	8001	626813	0	0
2024-07-25 00:44:47			0	35921	0	0	0	28532	27150	169941	26833	1053774	45107	110600	0	0	8000	627448	0	0
2024-07-25 00:45:47			0	35920	0	0	0	28537	27150	169977	27428	1053738	45118	110602	0	0	8000	627491	0	0
2024-07-25 00:46:47			0	35937	0	0	0	28545	27150	169889	27013	1053693	45118	110605	0	0	8001	626770	0	0
2024-07-25 00:47:47			0	35941	0	0	0	28548	27150	169889	27284	1053801	45107	110606	0	0	8001	626601	0	0
2024-07-25 00:48:47			0	35947	0	0	0	28545	27160	169893	27081	1053783	45095	110605	0	0	8001	626311	0	0
2024-07-25 00:49:47			0	35927	0	0	0	28548	27150	169937	27303	1053747	45107	110606	0	0	8000	627194	0	0
2024-07-25 00:50:47			0	35942	0	0	0	28550	27150	169849	27310	1053711	45095	110607	0	0	8001	626559	0	0
2024-07-25 00:51:47			0	35946	0	0	0	28555	27150	169809	27008	1053765	45095	110609	0	0	8001	626389	0	0
2024-07-25 00:52:47			0	35934	0	0	0	28537	27140	169821	27229	1053810	45083	110602	0	0	8001	626934	0	0
2024-07-25 00:53:47			0	35948	0	0	0	28537	27150	169777	27237	1053720	45084	110602	0	0	8002	626305	0	0
2024-07-25 00:54:47			0	35951	0	0	0	28529	27140	169889	27111	1053747	45083	110599	0	0	8002	626214	0	0
2024-07-25 00:55:47			0	35957	0	0	0	28527	27150	169697	27071	1053720	45107	110598	0	0	8002	625924	0	0
2024-07-25 00:56:47			0	35964	0	0	0	28529	27140	169733	27371	1053729	45106	110599	0	0	8003	625663	0	0
2024-07-25 00:57:47			0	35966	0	0	0	28529	27140	169785	27277	1053667	45105	110599	0	0	8003	625579	0	0
2024-07-25 00:58:47			0	35953	0	0	0	28522	27130	169769	27180	1053631	45093	110596	0	0	8002	626165	0	0
2024-07-25 00:59:47			0	35959	0	0	0	28519	27130	169773	27074	1053658	45105	110595	0	0	8002	625911	0	0
2024-07-25 01:00:47			0	35956	0	0	0	28511	27130	169745	27017	1053604	45093	110592	0	0	8002	626038	0	0
2024-07-25 01:01:47			0	35953	0	0	0	28506	27130	169757	27171	1053631	45093	110590	0	0	8002	626165	0	0
2024-07-25 01:02:47			0	35960	0	0	0	28501	27130	169873	26960	1053703	45092	110588	0	0	8003	625869	0	0
2024-07-25 01:03:47			0	35962	0	0	0	28498	27130	169901	27244	1053550	45083	110587	0	0	8003	625784	0	0
2024-07-25 01:04:47			0	35928	0	0	0	28498	27120	169929	26916	1053551	45091	110587	0	0	8001	627260	0	0
2024-07-25 01:05:47			0	35923	0	0	0	28498	27120	169781	26880	1053551	45091	110587	0	0	8001	627472	0	0
2024-07-25 01:06:47			0	35927	0	0	0	28498	27110	169905	27027	1053488	45090	110587	0	0	8001	627338	0	0
2024-07-25 01:07:47			0	35928	0	0	0	28485	27100	169993	26880	1053470	45090	110582	0	0	8001	627332	0	0
2024-07-25 01:08:47			0	35931	0	0	0	28477	27110	169937	26706	1053488	45090	110579	0	0	8001	627169	0	0
2024-07-25 01:09:47			0	35969	0	0	0	28477	27110	169761	27090	1053452	45102	110579	0	0	8004	625560	0	0
2024-07-25 01:10:47			0	36002	0	0	0	28472	27100	169553	27066	1053354	45079	110577	0	0	8006	624201	0	0
2024-07-25 01:11:47			0	36038	0	0	0	28467	27100	169485	26890	1053408	45089	110575	0	0	8008	622682	0	0
2024-07-25 01:12:47			0	36057	0	0	0	28462	27100	169309	27050	1053470	45090	110573	0	0	8009	621881	0	0
2024-07-25 01:13:47			0	36071	0	0	0	28464	27100	169261	26927	1053363	45080	110574	0	0	8010	621291	0	0
2024-07-25 01:14:47			0	36074	0	0	0	28472	27100	169325	27038	1053435	45089	110577	0	0	8010	621165	0	0
2024-07-25 01:15:47			0	36063	0	0	0	28475	27090	169389	27107	1053390	45078	110578	0	0	8009	621664	0	0
2024-07-25 01:16:47			0	36044	0	0	0	28467	27090	169385	27022	1053399	45088	110575	0	0	8008	622465	0	0
2024-07-25 01:17:47			0	36047	0	0	0	28477	27080	169397	26863	1053381	45088	110579	0	0	8008	622374	0	0
2024-07-25 01:18:47			0	36028	0	0	0	28472	27090	169501	26998	1053417	45088	110577	0	0	8007	623139	0	0
2024-07-25 01:19:47			0	36012	0	0	0	28475	27090	169489	27069	1053426	45100	110578	0	0	8006	623814	0	0
2024-07-25 01:20:47			0	36004	0	0	0	28472	27090	169693	27107	1053372	45088	110577	0	0	8006	624152	0	0
2024-07-25 01:21:47			0	35967	0	0	0	28475	27080	169809	27135	1053318	45099	110578	0	0	8003	625752	0	0
2024-07-25 01:22:47			0	35943	0	0	0	28472	27080	170033	27130	1053354	45100	110577	0	0	8002	626768	0	0
2024-07-25 01:23:47			0	35885	0	0	0	28475	27080	170205	26804	1053399	45099	110578	0	0	7998	629228	0	0
2024-07-25 01:24:47			0	35811	0	0	0	28472	27080	170492	26530	1053327	45100	110577	0	0	7994	632377	0	0
2024-07-25 01:25:47			0	35772	0	0	0	28475	27090	170796	26908	1053345	45088	110578	0	0	7992	634005	0	0
2024-07-25 01:26:47			0	35706	0	0	0	28462	27070	171096	26677	1053336	45087	110573	0	0	7988	636901	0	0
2024-07-25 01:27:47			0	35650	0	0	0	28457	27080	171304	26785	1053399	45087	110571	0	0	7984	639267	0	0
2024-07-25 01:28:47			0	35606	0	0	0	28459	27080	171496	26660	1053345	45087	110572	0	0	7982	641160	0	0
2024-07-25 01:29:47			0	35552	0	0	0	28457	27080	171804	26811	1053372	45099	110571	0	0	7978	643488	0	0
2024-07-25 01:30:47			0	35523	0	0	0	28459	27080	171900	26542	1053372	45099	110572	0	0	7976	644741	0	0
2024-07-25 01:31:47			0	35496	0	0	0	28444	27080	172076	26765	1053327	45100	110566	0	0	7975	645909	0	0
2024-07-25 01:32:47			0	35461	0	0	0	28446	27080	172236	26892	1053318	45077	110567	0	0	7973	647425	0	0
2024-07-25 01:33:47			0	35442	0	0	0	28449	27070	172304	27062	1053247	45076	110568	0	0	7972	648287	0	0
2024-07-25 01:34:47			0	35421	0	0	0	28451	27070	172344	26911	1053283	45087	110569	0	0	7970	649199	0	0
2024-07-25 01:35:47			0	35407	0	0	0	28454	27070	172440	26913	1053301	45087	110570	0	0	7969	649807	0	0
2024-07-25 01:36:47			0	35400	0	0	0	28451	27060	172492	27036	1053256	45097	110569	0	0	7969	650149	0	0
2024-07-25 01:37:47			0	35390	0	0	0	28446	27070	172564	27102	1053274	45087	110567	0	0	7968	650547	0	0
2024-07-25 01:38:47			0	35377	0	0	0	28431	27060	172576	26821	1053238	45086	110561	0	0	7968	651150	0	0
2024-07-25 01:39:47			0	35393	0	0	0	28436	27050	172696	26925	1053185	45074	110563	0	0	7969	650491	0	0
2024-07-25 01:40:47			0	35370	0	0	0	28433	27050	172508	27102	1053158	45085	110562	0	0	7967	651492	0	0
2024-07-25 01:41:47			0	35376	0	0	0	28423	27050	172680	27048	1053131	45085	110558	0	0	7968	651231	0	0
2024-07-25 01:42:47			0	35366	0	0	0	28420	27050	172528	27010	1053113	45096	110557	0	0	7967	651666	0	0
2024-07-25 01:43:47			0	35364	0	0	0	28420	27040	172600	26968	1053095	45095	110557	0	0	7967	651791	0	0
2024-07-25 01:44:47			0	35376	0	0	0	28418	27040	172584	26961	1053113	45084	110556	0	0	7968	651268	0	0
2024-07-25 01:45:47			0	35366	0	0	0	28412	27050	172548	26639	1053131	45085	110554	0	0	7967	651666	0	0
2024-07-25 01:46:47			0	35371	0	0	0	28412	27040	172572	26975	1053149	45084	110554	0	0	7968	651486	0	0
2024-07-25 01:47:47			0	35384	0	0	0	28425	27040	172548	26876	1053166	45084	110559	0	0	7968	650920	0	0
2024-07-25 01:48:47			0	35367	0	0	0	28425	27040	172444	27105	1053149	45084	110559	0	0	7967	651660	0	0
2024-07-25 01:49:47			0	35395	0	0	0	28410	27040	172512	27095	1053122	45095	110553	0	0	7969	650441	0	0
2024-07-25 01:50:47			0	35416	0	0	0	28407	27030	172544	27086	1053068	45071	110552	0	0	7970	649565	0	0
2024-07-25 01:51:47			0	35417	0	0	0	28418	27030	172460	26955	1053077	45072	110556	0	0	7970	649522	0	0
2024-07-25 01:52:47			0	35427	0	0	0	28420	27030	172240	26726	1053149	45093	110557	0	0	7971	649087	0	0
2024-07-25 01:53:47			0	35443	0	0	0	28418	27030	172248	26873	1053104	45094	110556	0	0	7972	648392	0	0
2024-07-25 01:54:47			0	35446	0	0	0	28412	27030	172316	27185	1053041	45093	110554	0	0	7972	648262	0	0
2024-07-25 01:55:47			0	35458	0	0	0	28402	27020	172176	26951	1053086	45093	110550	0	0	7973	647778	0	0
2024-07-25 01:56:47			0	35459	0	0	0	28405	27030	172160	26790	1053068	45093	110551	0	0	7973	647698	0	0
2024-07-25 01:57:47			0	35445	0	0	0	28405	27020	172208	26894	1053032	45093	110551	0	0	7972	648343	0	0
2024-07-25 01:58:47			0	35461	0	0	0	28399	27020	172172	26705	1053059	45093	110549	0	0	7973	647648	0	0
2024-07-25 01:59:47			0	35443	0	0	0	28402	27020	172216	27118	1053050	45093	110550	0	0	7972	648429	0	0
2024-07-25 02:00:47			0	35457	0	0	0	28397	27020	172292	27078	1053050	45093	110548	0	0	7973	647822	0	0
2024-07-25 02:01:47			0	35449	0	0	0	28392	27020	172180	27007	1053023	45093	110546	0	0	7973	648169	0	0
2024-07-25 02:02:47			0	35464	0	0	0	28399	27020	172228	26760	1053104	45083	110549	0	0	7974	647518	0	0
2024-07-25 02:03:47			0	35469	0	0	0	28389	27010	172276	26811	1052988	45092	110545	0	0	7974	647338	0	0
2024-07-25 02:04:47			0	35468	0	0	0	28402	27010	172128	26897	1053042	45082	110550	0	0	7974	647382	0	0
2024-07-25 02:05:47			0	35452	0	0	0	28392	27020	172316	27000	1053086	45093	110546	0	0	7973	648039	0	0
2024-07-25 02:06:47			0	35469	0	0	0	28389	27010	172148	26785	1053032	45081	110545	0	0	7974	647338	0	0
2024-07-25 02:07:47			0	35480	0	0	0	28381	27010	172056	26961	1052952	45081	110542	0	0	7975	646862	0	0
2024-07-25 02:08:47			0	35482	0	0	0	28371	27000	172080	26998	1052970	45081	110538	0	0	7975	646812	0	0
2024-07-25 02:09:47			0	35483	0	0	0	28368	27000	172180	27123	1053015	45090	110537	0	0	7975	646769	0	0
2024-07-25 02:10:47			0	35460	0	0	0	28350	27010	172196	27017	1052952	45081	110530	0	0	7974	647729	0	0
2024-07-25 02:11:47			0	35481	0	0	0	28327	26990	172192	26795	1052871	45080	110521	0	0	7976	646892	0	0
2024-07-25 02:12:47			0	35529	0	0	0	28322	27000	171928	27071	1052907	45080	110519	0	0	7979	644778	0	0
2024-07-25 02:13:47			0	35591	0	0	0	28309	26980	171596	27062	1052800	45089	110514	0	0	7983	642174	0	0
2024-07-25 02:14:47			0	35628	0	0	0	28290	26980	171320	27050	1052764	45055	110507	0	0	7985	640581	0	0
2024-07-25 02:15:47			0	35666	0	0	0	28259	26980	171224	26837	1052791	45066	110495	0	0	7988	638947	0	0
2024-07-25 02:16:47			0	35659	0	0	0	28238	26970	171272	26831	1052666	45054	110487	0	0	7988	639284	0	0
2024-07-25 02:17:47			0	35657	0	0	0	28220	26950	171164	26844	1052585	45064	110480	0	0	7988	639443	0	0
2024-07-25 02:18:47			0	35669	0	0	0	28212	26930	171252	26894	1052532	45063	110477	0	0	7989	639001	0	0
2024-07-25 02:19:47			0	35673	0	0	0	28194	26920	171308	27322	1052407	45050	110470	0	0	7989	638866	0	0
2024-07-25 02:20:47			0	35709	0	0	0	28189	26910	171140	27105	1052389	45049	110468	0	0	7992	637357	0	0
2024-07-25 02:21:47			0	35707	0	0	0	28186	26900	171164	26941	1052344	45060	110467	0	0	7992	637480	0	0
2024-07-25 02:22:47			0	35728	0	0	0	28192	26880	170948	26800	1052389	45045	110469	0	0	7993	636652	0	0
2024-07-25 02:23:47			0	35735	0	0	0	28194	26890	170916	27001	1052371	45069	110470	0	0	7993	636316	0	0
2024-07-25 02:24:47			0	35769	0	0	0	28199	26880	170848	27253	1052327	45057	110472	0	0	7995	634897	0	0
2024-07-25 02:25:47			0	35767	0	0	0	28199	26870	170940	26675	1052291	45068	110472	0	0	7995	635019	0	0
2024-07-25 02:26:47			0	35790	0	0	0	28199	26870	170764	27036	1052237	45068	110472	0	0	7996	634036	0	0
2024-07-25 02:27:47			0	35810	0	0	0	28189	26860	170812	26967	1052211	45055	110468	0	0	7998	633218	0	0
2024-07-25 02:28:47			0	35830	0	0	0	28184	26860	170708	27003	1052184	45066	110466	0	0	7999	632365	0	0
2024-07-25 02:29:47			0	35840	0	0	0	28179	26850	170664	26800	1052148	45055	110464	0	0	7999	631975	0	0
2024-07-25 02:30:47			0	35819	0	0	0	28166	26860	170524	27156	1052157	45066	110459	0	0	7998	632834	0	0
2024-07-25 02:31:47			0	35842	0	0	0	28173	26840	170540	27138	1052157	45076	110462	0	0	8000	631926	0	0
2024-07-25 02:32:47			0	35852	0	0	0	28173	26840	170484	27166	1052211	45097	110462	0	0	8000	631500	0	0
2024-07-25 02:33:47			0	35863	0	0	0	28184	26840	170429	27317	1052238	45064	110466	0	0	8001	631031	0	0
2024-07-25 02:34:47			0	35857	0	0	0	28192	26850	170429	27171	1052193	45042	110469	0	0	8000	631251	0	0
2024-07-25 02:35:47			0	35868	0	0	0	28189	26830	170553	26967	1052220	45075	110468	0	0	8001	630854	0	0
2024-07-25 02:36:47			0	35847	0	0	0	28197	26840	170516	26861	1052211	45064	110471	0	0	8000	631713	0	0
2024-07-25 02:37:47			0	35860	0	0	0	28205	26840	170492	26883	1052229	45076	110474	0	0	8000	631159	0	0
2024-07-25 02:38:47			0	35861	0	0	0	28194	26840	170445	27223	1052211	45064	110470	0	0	8000	631116	0	0
2024-07-25 02:39:47			0	35854	0	0	0	28186	26840	170516	26887	1052211	45064	110467	0	0	8000	631414	0	0
2024-07-25 02:40:47			0	35860	0	0	0	28168	26850	170537	27071	1052229	45078	110460	0	0	8001	631123	0	0
2024-07-25 02:41:47			0	35844	0	0	0	28142	26840	170500	27140	1052184	45064	110450	0	0	8000	631841	0	0
2024-07-25 02:42:47			0	35824	0	0	0	28129	26830	170580	27034	1052104	45063	110445	0	0	7999	632730	0	0
2024-07-25 02:43:47			0	35835	0	0	0	28127	26830	170544	27256	1052113	45063	110444	0	0	8000	632260	0	0
2024-07-25 02:44:47			0	35800	0	0	0	28132	26830	170712	27164	1052104	45075	110446	0	0	7998	633754	0	0
2024-07-25 02:45:47			0	35802	0	0	0	28127	26830	170724	26845	1052104	45075	110444	0	0	7998	633669	0	0
2024-07-25 02:46:47			0	35793	0	0	0	28142	26830	170712	27248	1052166	45075	110450	0	0	7997	634053	0	0
2024-07-25 02:47:47			0	35789	0	0	0	28129	26830	170740	27189	1052139	45052	110445	0	0	7997	634224	0	0
2024-07-25 02:48:47			0	35761	0	0	0	28116	26830	170780	27235	1052131	45063	110440	0	0	7996	635421	0	0
2024-07-25 02:49:47			0	35767	0	0	0	28098	26820	170812	27239	1052095	45062	110433	0	0	7996	635201	0	0
2024-07-25 02:50:47			0	35745	0	0	0	28093	26830	170864	27194	1052032	45052	110431	0	0	7995	636107	0	0
2024-07-25 02:51:47			0	35751	0	0	0	28083	26820	170848	27164	1052014	45029	110427	0	0	7996	635886	0	0
2024-07-25 02:52:47			0	35765	0	0	0	28057	26810	170924	27218	1051988	45050	110417	0	0	7997	635323	0	0
2024-07-25 02:53:47			0	35737	0	0	0	28049	26800	171028	26731	1051925	45039	110414	0	0	7995	636559	0	0
2024-07-25 02:54:47			0	35733	0	0	0	28046	26800	170956	26890	1051809	45026	110413	0	0	7995	636730	0	0
2024-07-25 02:55:47			0	35730	0	0	0	28036	26780	171024	26927	1051800	45036	110409	0	0	7995	636932	0	0
2024-07-25 02:56:47			0	35729	0	0	0	28033	26780	171088	26797	1051728	45025	110408	0	0	7995	636974	0	0
2024-07-25 02:57:47			0	35738	0	0	0	28038	26770	171020	26892	1051809	45057	110410	0	0	7995	636625	0	0
2024-07-25 02:58:47			0	35725	0	0	0	28046	26780	171040	27260	1051827	45057	110413	0	0	7994	637146	0	0
2024-07-25 02:59:47			0	35747	0	0	0	28057	26770	171056	26925	1051836	45046	110417	0	0	7995	636239	0	0
2024-07-25 03:00:47			0	35752	0	0	0	28075	26770	170980	26713	1051818	45046	110424	0	0	7995	636025	0	0
2024-07-25 03:01:47			0	35766	0	0	0	28088	26770	171040	27045	1051898	45069	110429	0	0	7996	635426	0	0
2024-07-25 03:02:47			0	35751	0	0	0	28103	26770	170996	26930	1051872	45057	110435	0	0	7995	636068	0	0
2024-07-25 03:03:47			0	35772	0	0	0	28122	26760	171040	27137	1051881	45056	110442	0	0	7996	635206	0	0
2024-07-25 03:04:47			0	35805	0	0	0	28148	26770	170824	27192	1051898	45046	110452	0	0	7997	633758	0	0
2024-07-25 03:05:47			0	35804	0	0	0	28184	26770	170800	26705	1051952	45069	110466	0	0	7997	633801	0	0
2024-07-25 03:06:47			0	35806	0	0	0	28194	26780	170816	27001	1051961	45057	110470	0	0	7997	633679	0	0
2024-07-25 03:07:47			0	35825	0	0	0	28205	26780	170700	27079	1051970	45047	110474	0	0	7998	632868	0	0
2024-07-25 03:08:47			0	35845	0	0	0	28205	26780	170704	26856	1051997	45058	110474	0	0	7999	632015	0	0
2024-07-25 03:09:47			0	35868	0	0	0	28202	26790	170601	26934	1052042	45059	110473	0	0	8001	630999	0	0
2024-07-25 03:10:47			0	35849	0	0	0	28212	26800	170508	26694	1052033	45060	110477	0	0	7999	631772	0	0
2024-07-25 03:11:47			0	35877	0	0	0	28212	26800	170401	26949	1052051	45048	110477	0	0	8001	630580	0	0
2024-07-25 03:12:47			0	35891	0	0	0	28215	26800	170281	26745	1052051	45082	110478	0	0	8002	629984	0	0
2024-07-25 03:13:47			0	35970	0	0	0	28218	26790	170097	26902	1052042	45059	110479	0	0	8006	626666	0	0
2024-07-25 03:14:47			0	36051	0	0	0	28215	26810	169565	26953	1052068	45061	110478	0	0	8012	623169	0	0
2024-07-25 03:15:47			0	36188	0	0	0	28215	26790	168977	27192	1052113	45059	110478	0	0	8020	617477	0	0
2024-07-25 03:16:47			0	36311	0	0	0	28212	26800	168517	27280	1052086	45060	110477	0	0	8027	612299	0	0
2024-07-25 03:17:47			0	36457	0	0	0	28218	26810	167849	26842	1052095	45061	110479	0	0	8036	606199	0	0
2024-07-25 03:18:47			0	36561	0	0	0	28215	26800	167377	27069	1052051	45059	110478	0	0	8042	601938	0	0
2024-07-25 03:19:47			0	36610	0	0	0	28215	26810	167078	26928	1052122	45073	110478	0	0	8045	599888	0	0
2024-07-25 03:20:47			0	36676	0	0	0	28225	26800	166770	26946	1052140	45060	110482	0	0	8049	597213	0	0
2024-07-25 03:21:47			0	36699	0	0	0	28228	26800	166698	26713	1052113	45060	110483	0	0	8050	596271	0	0
2024-07-25 03:22:47			0	36699	0	0	0	28231	26800	166654	26920	1052140	45060	110484	0	0	8050	596271	0	0
2024-07-25 03:23:47			0	36682	0	0	0	28228	26820	166738	27176	1052229	45074	110483	0	0	8049	596899	0	0
2024-07-25 03:24:47			0	36679	0	0	0	28223	26810	166806	27152	1052185	45050	110481	0	0	8049	597056	0	0
2024-07-25 03:25:47			0	36636	0	0	0	28228	26810	167058	27144	1052095	45061	110483	0	0	8046	598820	0	0
2024-07-25 03:26:47			0	36580	0	0	0	28218	26810	167073	26738	1052149	45061	110479	0	0	8043	601121	0	0
2024-07-25 03:27:47			0	36569	0	0	0	28220	26810	167173	27076	1052104	45061	110480	0	0	8043	601574	0	0
2024-07-25 03:28:47			0	36579	0	0	0	28220	26810	167253	26750	1052131	45083	110480	0	0	8043	601163	0	0
2024-07-25 03:29:47			0	36564	0	0	0	28218	26810	167273	27177	1052122	45073	110479	0	0	8042	601780	0	0
2024-07-25 03:30:47			0	36584	0	0	0	28210	26810	167245	27157	1052095	45050	110476	0	0	8044	600957	0	0
2024-07-25 03:31:47			0	36618	0	0	0	28210	26810	167078	27154	1052104	45061	110476	0	0	8046	599559	0	0
2024-07-25 03:32:47			0	36637	0	0	0	28212	26800	166922	26889	1052059	45060	110477	0	0	8047	598813	0	0
2024-07-25 03:33:47			0	36681	0	0	0	28207	26810	166790	26937	1052158	45061	110475	0	0	8049	596974	0	0
2024-07-25 03:34:47			0	36701	0	0	0	28210	26810	166726	26890	1052122	45073	110476	0	0	8051	596155	0	0
2024-07-25 03:35:47			0	36727	0	0	0	28202	26810	166442	26760	1052104	45061	110473	0	0	8052	595092	0	0
2024-07-25 03:36:47			0	36769	0	0	0	28202	26810	166322	27001	1052095	45073	110473	0	0	8055	593377	0	0
2024-07-25 03:37:47			0	36814	0	0	0	28202	26810	166146	27059	1052131	45073	110473	0	0	8057	591543	0	0
2024-07-25 03:38:47			0	36848	0	0	0	28210	26800	166118	27419	1052086	45060	110476	0	0	8059	590194	0	0
2024-07-25 03:39:47			0	36889	0	0	0	28202	26810	165854	26882	1052068	45073	110473	0	0	8062	588495	0	0
2024-07-25 03:40:47			0	36937	0	0	0	28207	26810	165686	26811	1052068	45061	110475	0	0	8065	586550	0	0
2024-07-25 03:41:47			0	36951	0	0	0	28205	26810	165670	27029	1052122	45050	110474	0	0	8065	585984	0	0
2024-07-25 03:42:47			0	36996	0	0	0	28197	26810	165462	26778	1052122	45073	110471	0	0	8068	584165	0	0
2024-07-25 03:43:47			0	37022	0	0	0	28205	26810	165294	26894	1052095	45050	110474	0	0	8070	583116	0	0
2024-07-25 03:44:47			0	37032	0	0	0	28199	26800	165202	26866	1052113	45060	110472	0	0	8070	582747	0	0
2024-07-25 03:45:47			0	37060	0	0	0	28199	26800	165126	27218	1052059	45093	110472	0	0	8072	581619	0	0
2024-07-25 03:46:47			0	37066	0	0	0	28189	26800	165034	26958	1052033	45049	110468	0	0	8072	581377	0	0
2024-07-25 03:47:47			0	37066	0	0	0	28192	26800	164990	26746	1052077	45059	110469	0	0	8072	581377	0	0
2024-07-25 03:48:47			0	37108	0	0	0	28184	26810	164910	26967	1052104	45061	110466	0	0	8075	579656	0	0
2024-07-25 03:49:47			0	37125	0	0	0	28184	26790	164862	27239	1052033	45071	110466	0	0	8076	579040	0	0
2024-07-25 03:50:47			0	37117	0	0	0	28181	26790	164830	27256	1051988	45048	110465	0	0	8076	579361	0	0
2024-07-25 03:51:47			0	37137	0	0	0	28179	26800	164686	26960	1051970	45059	110464	0	0	8077	578525	0	0
2024-07-25 03:52:47			0	37145	0	0	0	28176	26790	164830	27171	1051979	45059	110463	0	0	8077	578238	0	0
2024-07-25 03:53:47			0	37133	0	0	0	28181	26780	164742	27116	1051997	45047	110465	0	0	8076	578752	0	0
2024-07-25 03:54:47			0	37166	0	0	0	28158	26790	164698	27227	1051961	45071	110456	0	0	8079	577396	0	0
2024-07-25 03:55:47			0	37156	0	0	0	28179	26790	164786	27039	1051961	45071	110464	0	0	8078	577797	0	0
2024-07-25 03:56:47			0	37159	0	0	0	28181	26790	164766	27060	1052006	45059	110465	0	0	8078	577676	0	0
2024-07-25 03:57:47			0	37151	0	0	0	28173	26790	164586	27081	1051952	45048	110462	0	0	8078	577997	0	0
2024-07-25 03:58:47			0	37152	0	0	0	28173	26780	164682	27135	1052015	45036	110462	0	0	8078	577990	0	0
2024-07-25 03:59:47			0	37148	0	0	0	28168	26780	164738	26882	1051970	45070	110460	0	0	8078	578151	0	0
2024-07-25 04:00:47			0	37145	0	0	0	28171	26790	164722	26979	1051979	45071	110461	0	0	8077	578238	0	0
2024-07-25 04:01:47			0	37136	0	0	0	28163	26780	164718	27272	1051889	45058	110458	0	0	8077	578632	0	0
2024-07-25 04:02:47			0	37148	0	0	0	28168	26780	164798	27111	1051889	45058	110460	0	0	8078	578151	0	0
2024-07-25 04:03:47			0	37146	0	0	0	28153	26780	164750	27190	1051889	45058	110454	0	0	8078	578231	0	0
2024-07-25 04:04:47			0	37132	0	0	0	28145	26780	164702	27072	1051907	45057	110451	0	0	8077	578792	0	0
2024-07-25 04:05:47			0	37129	0	0	0	28142	26760	164706	27137	1051881	45079	110450	0	0	8077	578979	0	0
2024-07-25 04:06:47			0	37123	0	0	0	28150	26760	164814	27092	1051881	45056	110453	0	0	8076	579220	0	0
2024-07-25 04:07:47			0	37139	0	0	0	28132	26760	164770	27154	1051773	45068	110446	0	0	8078	578578	0	0
2024-07-25 04:08:47			0	37101	0	0	0	28137	26760	164950	27237	1051818	45044	110448	0	0	8075	580103	0	0
2024-07-25 04:09:47			0	37089	0	0	0	28135	26750	164906	27093	1051836	45043	110447	0	0	8074	580619	0	0
2024-07-25 04:10:47			0	37081	0	0	0	28132	26750	165002	27104	1051800	45066	110446	0	0	8074	580940	0	0
2024-07-25 04:11:47			0	37058	0	0	0	28137	26760	165150	27105	1051818	45055	110448	0	0	8073	581833	0	0
2024-07-25 04:12:47			0	37023	0	0	0	28135	26750	165282	27144	1051774	45055	110447	0	0	8071	583277	0	0
2024-07-25 04:13:47			0	37002	0	0	0	28132	26750	165282	27267	1051836	45077	110446	0	0	8069	584124	0	0
2024-07-25 04:14:47			0	36980	0	0	0	28135	26750	165546	27327	1051836	45043	110447	0	0	8068	585012	0	0
2024-07-25 04:15:47			0	36948	0	0	0	28140	26750	165606	27183	1051800	45055	110449	0	0	8066	586306	0	0
2024-07-25 04:16:47			0	36908	0	0	0	28135	26740	165726	27142	1051711	45066	110447	0	0	8064	587961	0	0
2024-07-25 04:17:47			0	36900	0	0	0	28127	26750	165754	27072	1051774	45055	110444	0	0	8063	588251	0	0
2024-07-25 04:18:47			0	36879	0	0	0	28129	26740	165934	27234	1051792	45043	110445	0	0	8062	589137	0	0
2024-07-25 04:19:47			0	36876	0	0	0	28127	26740	165946	27241	1051756	45065	110444	0	0	8062	589259	0	0
2024-07-25 04:20:47			0	36842	0	0	0	28132	26750	165978	26731	1051774	45066	110446	0	0	8060	590607	0	0
2024-07-25 04:21:47			0	36820	0	0	0	28132	26740	166082	27249	1051738	45043	110446	0	0	8059	591536	0	0
2024-07-25 04:22:47			0	36814	0	0	0	28127	26740	166150	27242	1051729	45054	110444	0	0	8058	591780	0	0
2024-07-25 04:23:47			0	36795	0	0	0	28122	26730	166158	27107	1051720	45053	110442	0	0	8057	592588	0	0
2024-07-25 04:24:47			0	36801	0	0	0	28114	26740	166266	26852	1051702	45065	110439	0	0	8058	592310	0	0
2024-07-25 04:25:47			0	36796	0	0	0	28129	26740	166202	27045	1051684	45055	110445	0	0	8057	592514	0	0
2024-07-25 04:26:47			0	36795	0	0	0	28109	26730	166302	27225	1051711	45053	110437	0	0	8057	592588	0	0
2024-07-25 04:27:47			0	36788	0	0	0	28101	26720	166186	27341	1051541	45041	110434	0	0	8057	592908	0	0
2024-07-25 04:28:47			0	36813	0	0	0	28093	26710	166158	27467	1051550	45040	110431	0	0	8059	591923	0	0
2024-07-25 04:29:47			0	36828	0	0	0	28072	26710	166166	27111	1051488	45040	110423	0	0	8060	591312	0	0
2024-07-25 04:30:47			0	36866	0	0	0	28072	26700	166066	27204	1051479	45051	110423	0	0	8062	589800	0	0
2024-07-25 04:31:47			0	36891	0	0	0	28062	26690	165870	27199	1051434	45049	110419	0	0	8064	588819	0	0
2024-07-25 04:32:47			0	36952	0	0	0	28059	26690	165702	27284	1051434	45049	110418	0	0	8067	586346	0	0
2024-07-25 04:33:47			0	37000	0	0	0	28054	26680	165354	27462	1051444	45037	110416	0	0	8070	584439	0	0
2024-07-25 04:34:47			0	37092	0	0	0	28041	26680	164946	27218	1051390	45059	110411	0	0	8076	580731	0	0
2024-07-25 04:35:47			0	37254	0	0	0	28046	26690	164302	27296	1051452	45026	110413	0	0	8085	574207	0	0
2024-07-25 04:36:47			0	37413	0	0	0	28038	26660	163559	27166	1051273	45046	110410	0	0	8095	567981	0	0
2024-07-25 04:37:47			0	37524	0	0	0	28041	26660	163151	27121	1051300	45035	110411	0	0	8101	563593	0	0
2024-07-25 04:38:47			0	37523	0	0	0	28046	26670	163231	26863	1051318	45047	110413	0	0	8101	563600	0	0
2024-07-25 04:39:47			0	37501	0	0	0	28049	26680	163319	27190	1051354	45059	110414	0	0	8100	564436	0	0
2024-07-25 04:40:47			0	37439	0	0	0	28046	26660	163615	27124	1051354	45057	110413	0	0	8096	566951	0	0
2024-07-25 04:41:47			0	37367	0	0	0	28044	26660	163867	27216	1051372	45035	110412	0	0	8092	569806	0	0
2024-07-25 04:42:47			0	37299	0	0	0	28057	26670	164106	26816	1051363	45046	110417	0	0	8088	572478	0	0
2024-07-25 04:43:47			0	37241	0	0	0	28049	26660	164430	26859	1051435	45057	110414	0	0	8084	574825	0	0
2024-07-25 04:44:47			0	37184	0	0	0	28064	26660	164698	27083	1051399	45057	110420	0	0	8081	577105	0	0
2024-07-25 04:45:47			0	37152	0	0	0	28067	26660	164898	27147	1051408	45035	110421	0	0	8079	578387	0	0
2024-07-25 04:46:47			0	37116	0	0	0	28057	26640	165014	27360	1051354	45067	110417	0	0	8077	579899	0	0
2024-07-25 04:47:47			0	37110	0	0	0	28067	26670	165046	27208	1051390	45035	110421	0	0	8076	580040	0	0
2024-07-25 04:48:47			0	37102	0	0	0	28067	26670	165094	26986	1051399	45047	110421	0	0	8076	580362	0	0
2024-07-25 04:49:47			0	37120	0	0	0	28067	26660	165002	27230	1051426	45057	110421	0	0	8077	579672	0	0
2024-07-25 04:50:47			0	37156	0	0	0	28070	26670	164858	26951	1051426	45069	110422	0	0	8079	578194	0	0
2024-07-25 04:51:47			0	37182	0	0	0	28067	26670	164690	27260	1051363	45057	110421	0	0	8081	577152	0	0
2024-07-25 04:52:47			0	37201	0	0	0	28062	26660	164462	27008	1051426	45057	110419	0	0	8082	576424	0	0
2024-07-25 04:53:47			0	37240	0	0	0	28070	26660	164450	27095	1051372	45068	110422	0	0	8084	574865	0	0
2024-07-25 04:54:47			0	37258	0	0	0	28054	26660	164334	27481	1051381	45057	110416	0	0	8085	574146	0	0
2024-07-25 04:55:47			0	37304	0	0	0	28064	26670	164094	26974	1051336	45057	110420	0	0	8088	572279	0	0
2024-07-25 04:56:47			0	37344	0	0	0	28054	26660	164075	26994	1051345	45046	110416	0	0	8090	570720	0	0
2024-07-25 04:57:47			0	37354	0	0	0	28057	26660	164003	26755	1051381	45057	110417	0	0	8091	570322	0	0
2024-07-25 04:58:47			0	37417	0	0	0	28046	26650	163651	26802	1051336	45056	110413	0	0	8095	567855	0	0
2024-07-25 04:59:47			0	37424	0	0	0	28046	26650	163579	26951	1051363	45056	110413	0	0	8095	567578	0	0
2024-07-25 05:00:47			0	37426	0	0	0	28046	26660	163559	27216	1051354	45057	110413	0	0	8095	567466	0	0
2024-07-25 05:01:47			0	37487	0	0	0	28038	26650	163423	27031	1051283	45056	110410	0	0	8099	565085	0	0
2024-07-25 05:02:47			0	37507	0	0	0	28046	26660	163275	27202	1051291	45057	110413	0	0	8100	564263	0	0
2024-07-25 05:03:47			0	37535	0	0	0	28036	26650	163155	27149	1051310	45034	110409	0	0	8102	563191	0	0
2024-07-25 05:04:47			0	37569	0	0	0	28031	26640	163087	26935	1051274	45044	110407	0	0	8104	561884	0	0
2024-07-25 05:05:47			0	37618	0	0	0	28036	26640	162835	27213	1051301	45044	110409	0	0	8107	559958	0	0
2024-07-25 05:06:47			0	37656	0	0	0	28044	26640	162703	27246	1051274	45078	110412	0	0	8109	558467	0	0
2024-07-25 05:07:47			0	37666	0	0	0	28051	26640	162583	27130	1051274	45055	110415	0	0	8109	558075	0	0
2024-07-25 05:08:47			0	37705	0	0	0	28046	26640	162479	27220	1051274	45044	110413	0	0	8111	556548	0	0
2024-07-25 05:09:47			0	37701	0	0	0	28051	26640	162399	26835	1051301	45055	110415	0	0	8111	556704	0	0
2024-07-25 05:10:47			0	37743	0	0	0	28044	26640	162431	26906	1051328	45044	110412	0	0	8114	555063	0	0
2024-07-25 05:11:47			0	37736	0	0	0	28049	26650	162331	27057	1051336	45056	110414	0	0	8113	555304	0	0
2024-07-25 05:12:47			0	37746	0	0	0	28036	26640	162271	27260	1051274	45033	110409	0	0	8114	554946	0	0
2024-07-25 05:13:47			0	37765	0	0	0	28031	26630	162315	26700	1051310	45055	110407	0	0	8115	554236	0	0
2024-07-25 05:14:47			0	37739	0	0	0	28036	26640	162291	27216	1051292	45044	110409	0	0	8114	555219	0	0
2024-07-25 05:15:47			0	37748	0	0	0	28033	26630	162415	27279	1051220	45043	110408	0	0	8114	554899	0	0
2024-07-25 05:16:47			0	37740	0	0	0	28025	26630	162295	27074	1051274	45054	110405	0	0	8114	555212	0	0
2024-07-25 05:17:47			0	37718	0	0	0	28036	26630	162399	27261	1051220	45043	110409	0	0	8112	556071	0	0
2024-07-25 05:18:47			0	37697	0	0	0	28031	26640	162471	27013	1051265	45044	110407	0	0	8111	556861	0	0
2024-07-25 05:19:47			0	37706	0	0	0	28023	26630	162515	27251	1051220	45054	110404	0	0	8112	556541	0	0
2024-07-25 05:20:47			0	37697	0	0	0	28020	26630	162599	26974	1051194	45043	110403	0	0	8111	556893	0	0
2024-07-25 05:21:47			0	37683	0	0	0	28015	26620	162619	27244	1051176	45041	110401	0	0	8111	557473	0	0
2024-07-25 05:22:47			0	37671	0	0	0	28015	26630	162743	27265	1051167	45043	110401	0	0	8110	557911	0	0
2024-07-25 05:23:47			0	37662	0	0	0	28007	26620	162787	27412	1051185	45042	110398	0	0	8110	558296	0	0
2024-07-25 05:24:47			0	37656	0	0	0	28010	26620	162767	26816	1051203	45052	110399	0	0	8109	558531	0	0
2024-07-25 05:25:47			0	37645	0	0	0	28002	26610	162811	27052	1051104	45064	110396	0	0	8109	558994	0	0
2024-07-25 05:26:47			0	37640	0	0	0	28005	26610	162807	27074	1051140	45052	110397	0	0	8108	559190	0	0
2024-07-25 05:27:47			0	37645	0	0	0	27999	26610	162835	27300	1051060	45052	110395	0	0	8109	558994	0	0
2024-07-25 05:28:47			0	37628	0	0	0	28005	26610	162783	27121	1051158	45041	110397	0	0	8108	559661	0	0
2024-07-25 05:29:47			0	37631	0	0	0	28012	26600	162883	27159	1051087	45050	110400	0	0	8108	559576	0	0
2024-07-25 05:30:47			0	37623	0	0	0	28012	26610	162935	27109	1051140	45041	110400	0	0	8107	559858	0	0
2024-07-25 05:31:47			0	37628	0	0	0	28007	26610	162907	27123	1051131	45041	110398	0	0	8107	559661	0	0
2024-07-25 05:32:47			0	37587	0	0	0	28005	26600	162951	26863	1051069	45041	110397	0	0	8105	561304	0	0
2024-07-25 05:33:47			0	37606	0	0	0	28007	26600	162987	27156	1051096	45041	110398	0	0	8106	560558	0	0
2024-07-25 05:34:47			0	37598	0	0	0	28015	26610	163095	27062	1051113	45041	110401	0	0	8106	560840	0	0
2024-07-25 05:35:47			0	37580	0	0	0	28002	26610	163107	26904	1051158	45041	110396	0	0	8105	561548	0	0
2024-07-25 05:36:47			0	37581	0	0	0	27997	26600	163091	27206	1051096	45041	110394	0	0	8105	561541	0	0
2024-07-25 05:37:47			0	37563	0	0	0	27997	26600	163135	27194	1051122	45041	110394	0	0	8104	562249	0	0
2024-07-25 05:38:47			0	37556	0	0	0	27994	26590	163075	27284	1050970	45040	110393	0	0	8103	562557	0	0
2024-07-25 05:39:47			0	37566	0	0	0	27984	26590	163059	27020	1051069	45017	110389	0	0	8104	562163	0	0
2024-07-25 05:40:47			0	37579	0	0	0	27974	26590	162995	27204	1051015	45040	110385	0	0	8105	561652	0	0
2024-07-25 05:41:47			0	37603	0	0	0	27979	26580	162987	27239	1050980	45039	110387	0	0	8106	560740	0	0
2024-07-25 05:42:47			0	37598	0	0	0	27976	26580	163003	26949	1051033	45049	110386	0	0	8106	560936	0	0
2024-07-25 05:43:47			0	37592	0	0	0	27971	26580	162959	26863	1050998	45048	110384	0	0	8106	561172	0	0
2024-07-25 05:44:47			0	37583	0	0	0	27979	26590	162951	27194	1050988	45040	110387	0	0	8105	561494	0	0
2024-07-25 05:45:47			0	37573	0	0	0	27981	26580	163147	27093	1051024	45060	110388	0	0	8105	561920	0	0
2024-07-25 05:46:47			0	37578	0	0	0	27974	26580	163095	27107	1050971	45038	110385	0	0	8105	561723	0	0
2024-07-25 05:47:47			0	37533	0	0	0	27971	26570	163299	27386	1050935	45038	110384	0	0	8102	563528	0	0
2024-07-25 05:48:47			0	37516	0	0	0	27971	26580	163219	27317	1051006	45039	110384	0	0	8101	564166	0	0
2024-07-25 05:49:47			0	37508	0	0	0	27974	26580	163239	27119	1051060	45049	110385	0	0	8101	564482	0	0
2024-07-25 05:50:47			0	37494	0	0	0	27971	26580	163411	27248	1050971	45038	110384	0	0	8100	565035	0	0
2024-07-25 05:51:47			0	37480	0	0	0	27968	26580	163419	27175	1050917	45038	110383	0	0	8099	565588	0	0
2024-07-25 05:52:47			0	37449	0	0	0	27966	26580	163627	27384	1050944	45060	110382	0	0	8098	566815	0	0
2024-07-25 05:53:47			0	37443	0	0	0	27971	26570	163623	27190	1050953	45048	110384	0	0	8097	567085	0	0
2024-07-25 05:54:47			0	37413	0	0	0	27971	26570	163855	27312	1050935	45060	110384	0	0	8095	568274	0	0
2024-07-25 05:55:47			0	37413	0	0	0	27966	26580	163867	27369	1050998	45048	110382	0	0	8096	568241	0	0
2024-07-25 05:56:47			0	37377	0	0	0	27958	26570	163807	27246	1050962	45048	110379	0	0	8093	569702	0	0
2024-07-25 05:57:47			0	37359	0	0	0	27961	26570	163943	27284	1050953	45071	110380	0	0	8092	570417	0	0
2024-07-25 05:58:47			0	37346	0	0	0	27953	26570	164079	27352	1050926	45038	110377	0	0	8092	570934	0	0
2024-07-25 05:59:47			0	37332	0	0	0	27955	26560	164123	27472	1050864	45047	110378	0	0	8091	571524	0	0
2024-07-25 06:00:47			0	37324	0	0	0	27955	26570	164275	27208	1050953	45048	110378	0	0	8090	571810	0	0
2024-07-25 06:01:47			0	37307	0	0	0	27950	26570	164279	27114	1051007	45048	110376	0	0	8090	572487	0	0
2024-07-25 06:02:47			0	37269	0	0	0	27963	26570	164374	27312	1050953	45048	110381	0	0	8087	574003	0	0
2024-07-25 06:03:47			0	37268	0	0	0	27961	26560	164378	27343	1050908	45036	110380	0	0	8087	574075	0	0
2024-07-25 06:04:47			0	37243	0	0	0	27963	26560	164522	27199	1050890	45047	110381	0	0	8086	575074	0	0
2024-07-25 06:05:47			0	37234	0	0	0	27961	26560	164694	27022	1050917	45037	110380	0	0	8085	575434	0	0
2024-07-25 06:06:47			0	37213	0	0	0	27961	26560	164678	27196	1050944	45037	110380	0	0	8084	576274	0	0
2024-07-25 06:07:47			0	37201	0	0	0	27963	26570	164730	27116	1050908	45048	110381	0	0	8083	576721	0	0
2024-07-25 06:08:47			0	37185	0	0	0	27961	26570	164826	26972	1050899	45082	110380	0	0	8082	577362	0	0
2024-07-25 06:09:47			0	37178	0	0	0	27963	26560	164734	27164	1050935	45036	110381	0	0	8082	577675	0	0
2024-07-25 06:10:47			0	37175	0	0	0	27953	26560	164882	27138	1050935	45046	110377	0	0	8082	577796	0	0
2024-07-25 06:11:47			0	37163	0	0	0	27948	26560	164818	27111	1050855	45036	110375	0	0	8081	578277	0	0
2024-07-25 06:12:47			0	37154	0	0	0	27953	26550	164766	27059	1050846	45046	110377	0	0	8080	578671	0	0
2024-07-25 06:13:47			0	37158	0	0	0	27945	26550	164846	27265	1050846	45036	110374	0	0	8081	578511	0	0
2024-07-25 06:14:47			0	37122	0	0	0	27945	26560	164974	27192	1050855	45058	110374	0	0	8079	579923	0	0
2024-07-25 06:15:47			0	37097	0	0	0	27942	26550	165074	27008	1050783	45045	110373	0	0	8077	580962	0	0
2024-07-25 06:16:47			0	37066	0	0	0	27942	26540	165150	27275	1050801	45057	110373	0	0	8075	582243	0	0
2024-07-25 06:17:47			0	37057	0	0	0	27940	26540	165246	27114	1050855	45045	110372	0	0	8075	582606	0	0
2024-07-25 06:18:47			0	37006	0	0	0	27937	26540	165490	27263	1050909	45045	110371	0	0	8072	584665	0	0
2024-07-25 06:19:47			0	36984	0	0	0	27940	26550	165790	27137	1050864	45045	110372	0	0	8071	585521	0	0
2024-07-25 06:20:47			0	36915	0	0	0	27937	26540	165946	27289	1050828	45045	110371	0	0	8067	588350	0	0
2024-07-25 06:21:47			0	36905	0	0	0	27929	26560	165994	27150	1050908	45036	110368	0	0	8066	588688	0	0
2024-07-25 06:22:47			0	36880	0	0	0	27935	26550	166078	27343	1050837	45045	110370	0	0	8065	589738	0	0
2024-07-25 06:23:47			0	36834	0	0	0	27932	26550	166306	27348	1050837	45045	110369	0	0	8062	591609	0	0
2024-07-25 06:24:47			0	36810	0	0	0	27929	26550	166454	27102	1050783	45045	110368	0	0	8061	592587	0	0
2024-07-25 06:25:47			0	36782	0	0	0	27935	26540	166514	27246	1050828	45057	110370	0	0	8059	593764	0	0
2024-07-25 06:26:47			0	36764	0	0	0	27927	26530	166510	27046	1050730	45022	110367	0	0	8058	594533	0	0
2024-07-25 06:27:47			0	36728	0	0	0	27927	26540	166590	27393	1050801	45045	110367	0	0	8056	595972	0	0
2024-07-25 06:28:47			0	36725	0	0	0	27919	26530	166786	27405	1050801	45043	110364	0	0	8056	596129	0	0
2024-07-25 06:29:47			0	36693	0	0	0	27924	26530	166822	27319	1050730	45033	110366	0	0	8054	597440	0	0
2024-07-25 06:30:47			0	36673	0	0	0	27922	26540	166870	27109	1050801	45057	110365	0	0	8052	598226	0	0
2024-07-25 06:31:47			0	36663	0	0	0	27916	26530	166986	27298	1050756	45055	110363	0	0	8052	598671	0	0
2024-07-25 06:32:47			0	36647	0	0	0	27909	26530	167014	27078	1050721	45043	110360	0	0	8051	599328	0	0
2024-07-25 06:33:47			0	36652	0	0	0	27911	26530	167150	27345	1050774	45033	110361	0	0	8051	599123	0	0
2024-07-25 06:34:47			0	36645	0	0	0	27914	26530	167182	27235	1050730	45043	110362	0	0	8051	599410	0	0
2024-07-25 06:35:47			0	36616	0	0	0	27911	26530	167154	26991	1050721	45033	110361	0	0	8049	600603	0	0
2024-07-25 06:36:47			0	36607	0	0	0	27909	26520	167182	27239	1050649	45032	110360	0	0	8049	601008	0	0
2024-07-25 06:37:47			0	36616	0	0	0	27906	26520	167242	27185	1050739	45043	110359	0	0	8049	600637	0	0
2024-07-25 06:38:47			0	36597	0	0	0	27906	26520	167209	27287	1050658	45043	110359	0	0	8048	601420	0	0
2024-07-25 06:39:47			0	36610	0	0	0	27890	26520	167226	27319	1050622	45032	110353	0	0	8049	600884	0	0
2024-07-25 06:40:47			0	36588	0	0	0	27893	26510	167333	27244	1050587	45031	110354	0	0	8048	601825	0	0
2024-07-25 06:41:47			0	36602	0	0	0	27875	26510	167429	27218	1050605	45020	110347	0	0	8049	601248	0	0
2024-07-25 06:42:47			0	36597	0	0	0	27857	26500	167474	27220	1050569	45020	110340	0	0	8049	601488	0	0
2024-07-25 06:43:47			0	36588	0	0	0	27862	26500	167357	27039	1050506	45041	110342	0	0	8048	601859	0	0
2024-07-25 06:44:47			0	36570	0	0	0	27841	26480	167385	27329	1050471	45028	110334	0	0	8047	602670	0	0
2024-07-25 06:45:47			0	36579	0	0	0	27838	26490	167465	27121	1050381	45029	110333	0	0	8048	602265	0	0
2024-07-25 06:46:47			0	36574	0	0	0	27825	26470	167485	27471	1050462	45027	110328	0	0	8048	602540	0	0
2024-07-25 06:47:47			0	36525	0	0	0	27820	26470	167601	27371	1050453	45039	110326	0	0	8045	604563	0	0
2024-07-25 06:48:47			0	36394	0	0	0	27818	26470	168249	27351	1050400	45016	110325	0	0	8037	609996	0	0
2024-07-25 06:49:47			0	36278	0	0	0	27810	26460	168761	27364	1050382	45048	110322	0	0	8030	614871	0	0
2024-07-25 06:50:47			0	36152	0	0	0	27807	26460	169321	27246	1050355	45026	110321	0	0	8023	620158	0	0
2024-07-25 06:51:47			0	36042	0	0	0	27815	26460	169997	27306	1050301	45026	110324	0	0	8016	624799	0	0
2024-07-25 06:52:47			0	35910	0	0	0	27807	26450	170545	27599	1050337	45025	110321	0	0	8008	630438	0	0
2024-07-25 06:53:47			0	35777	0	0	0	27812	26450	171140	27518	1050391	45025	110323	0	0	8000	636119	0	0
2024-07-25 06:54:47			0	35678	0	0	0	27810	26440	171528	27383	1050266	45024	110322	0	0	7994	640408	0	0
2024-07-25 06:55:47			0	35624	0	0	0	27810	26440	171748	27384	1050293	45024	110322	0	0	7990	642737	0	0
2024-07-25 06:56:47			0	35586	0	0	0	27818	26440	172084	27454	1050275	45013	110325	0	0	7988	644379	0	0
2024-07-25 06:57:47			0	35540	0	0	0	27812	26440	172228	27460	1050302	45024	110323	0	0	7985	646371	0	0
2024-07-25 06:58:47			0	35539	0	0	0	27810	26440	172252	27346	1050266	45024	110322	0	0	7985	646414	0	0
2024-07-25 06:59:47			0	35570	0	0	0	27815	26430	172228	27618	1050248	45056	110324	0	0	7987	645108	0	0
2024-07-25 07:00:47			0	35602	0	0	0	27812	26440	171992	27659	1050293	45024	110323	0	0	7989	643687	0	0
2024-07-25 07:01:47			0	35664	0	0	0	27812	26440	171708	27526	1050320	45024	110323	0	0	7993	641011	0	0
2024-07-25 07:02:47			0	35701	0	0	0	27812	26430	171484	27358	1050284	45035	110323	0	0	7995	639455	0	0
2024-07-25 07:03:47			0	35770	0	0	0	27802	26430	171180	27211	1050311	45035	110319	0	0	7999	636492	0	0
2024-07-25 07:04:47			0	35826	0	0	0	27797	26440	170956	27329	1050266	45024	110317	0	0	8003	634058	0	0
2024-07-25 07:05:47			0	35873	0	0	0	27792	26430	170645	27274	1050222	45022	110315	0	0	8006	632087	0	0
2024-07-25 07:06:47			0	35918	0	0	0	27792	26420	170565	27149	1050213	45022	110315	0	0	8009	630205	0	0
2024-07-25 07:07:47			0	35972	0	0	0	27792	26420	170225	27144	1050230	45033	110315	0	0	8012	627909	0	0
2024-07-25 07:08:47			0	36025	0	0	0	27794	26420	170109	27327	1050284	45021	110316	0	0	8015	625662	0	0
2024-07-25 07:09:47			0	36068	0	0	0	27802	26430	169881	27112	1050222	45022	110319	0	0	8018	623807	0	0
2024-07-25 07:10:47			0	36092	0	0	0	27799	26420	169813	27239	1050132	45022	110318	0	0	8019	622829	0	0
2024-07-25 07:11:47			0	36113	0	0	0	27794	26410	169565	27441	1050213	45020	110316	0	0	8020	621978	0	0
2024-07-25 07:12:47			0	36121	0	0	0	27797	26410	169573	27277	1050186	45032	110317	0	0	8021	621641	0	0
2024-07-25 07:13:47			0	36092	0	0	0	27802	26420	169761	27467	1050177	45043	110319	0	0	8019	622829	0	0
2024-07-25 07:14:47			0	36070	0	0	0	27810	26420	169705	27431	1050177	45033	110322	0	0	8018	623758	0	0
2024-07-25 07:15:47			0	36064	0	0	0	27807	26410	169973	27253	1050186	45020	110321	0	0	8017	624047	0	0
2024-07-25 07:16:47			0	36031	0	0	0	27812	26420	170137	27161	1050293	45022	110323	0	0	8015	625408	0	0
2024-07-25 07:17:47			0	35978	0	0	0	27812	26420	170329	27201	1050266	45056	110323	0	0	8012	627655	0	0
2024-07-25 07:18:47			0	35928	0	0	0	27820	26420	170505	27500	1050284	45021	110326	0	0	8009	629780	0	0
2024-07-25 07:19:47			0	35894	0	0	0	27825	26420	170705	27157	1050230	45033	110328	0	0	8007	631227	0	0
2024-07-25 07:20:47			0	35855	0	0	0	27818	26430	170836	27424	1050302	45044	110325	0	0	8004	632855	0	0
2024-07-25 07:21:47			0	35788	0	0	0	27831	26420	171132	27448	1050230	45033	110330	0	0	8000	635757	0	0
2024-07-25 07:22:47			0	35773	0	0	0	27823	26430	171256	27301	1050302	45034	110327	0	0	7999	636363	0	0
2024-07-25 07:23:47			0	35730	0	0	0	27820	26420	171392	27211	1050293	45044	110326	0	0	7997	638245	0	0
2024-07-25 07:24:47			0	35716	0	0	0	27823	26440	171456	27225	1050320	45024	110327	0	0	7996	638774	0	0
2024-07-25 07:25:47			0	35686	0	0	0	27831	26430	171592	27209	1050302	45022	110330	0	0	7994	640101	0	0
2024-07-25 07:26:47			0	35679	0	0	0	27831	26440	171664	27241	1050347	45024	110330	0	0	7993	640365	0	0
2024-07-25 07:27:47			0	35665	0	0	0	27833	26420	171728	27150	1050293	45022	110331	0	0	7992	641042	0	0
2024-07-25 07:28:47			0	35683	0	0	0	27836	26430	171700	27464	1050311	45035	110332	0	0	7994	640230	0	0
2024-07-25 07:29:47			0	35679	0	0	0	27836	26440	171680	27197	1050302	45036	110332	0	0	7993	640365	0	0
2024-07-25 07:30:47			0	35682	0	0	0	27831	26430	171588	27345	1050356	45034	110330	0	0	7994	640273	0	0
2024-07-25 07:31:47			0	35706	0	0	0	27833	26440	171480	27409	1050320	45024	110331	0	0	7995	639203	0	0
2024-07-25 07:32:47			0	35736	0	0	0	27836	26430	171452	27319	1050338	45056	110332	0	0	7997	637951	0	0
2024-07-25 07:33:47			0	35741	0	0	0	27836	26440	171284	27424	1050329	45024	110332	0	0	7997	637700	0	0
2024-07-25 07:34:47			0	35767	0	0	0	27833	26430	171128	27585	1050338	45035	110331	0	0	7999	636621	0	0
2024-07-25 07:35:47			0	35776	0	0	0	27838	26440	171288	27391	1050347	45036	110333	0	0	7999	636198	0	0
2024-07-25 07:36:47			0	35787	0	0	0	27849	26450	171056	27298	1050427	45037	110337	0	0	8000	635691	0	0
2024-07-25 07:37:47			0	35818	0	0	0	27846	26440	170928	27319	1050382	45046	110336	0	0	8002	634400	0	0
2024-07-25 07:38:47			0	35831	0	0	0	27857	26440	171004	27281	1050436	45036	110340	0	0	8002	633844	0	0
2024-07-25 07:39:47			0	35831	0	0	0	27854	26450	170952	27239	1050507	45037	110339	0	0	8002	633808	0	0
2024-07-25 07:40:47			0	35842	0	0	0	27857	26450	170868	27414	1050418	45037	110340	0	0	8003	633338	0	0
2024-07-25 07:41:47			0	35857	0	0	0	27857	26450	170844	27855	1050454	45058	110340	0	0	8004	632697	0	0
2024-07-25 07:42:47			0	35848	0	0	0	27836	26440	170796	27687	1050382	45024	110332	0	0	8004	633118	0	0
2024-07-25 07:43:47			0	35882	0	0	0	27831	26450	170641	27170	1050373	45025	110330	0	0	8006	631631	0	0
2024-07-25 07:44:47			0	35882	0	0	0	27841	26450	170637	27635	1050427	45037	110334	0	0	8006	631631	0	0
2024-07-25 07:45:47			0	35895	0	0	0	27836	26450	170645	27547	1050427	45014	110332	0	0	8007	631077	0	0
2024-07-25 07:46:47			0	35883	0	0	0	27833	26440	170605	27173	1050382	45036	110331	0	0	8006	631624	0	0
2024-07-25 07:47:47			0	35920	0	0	0	27833	26460	170645	27369	1050382	45038	110331	0	0	8008	629976	0	0
2024-07-25 07:48:47			0	35909	0	0	0	27833	26450	170681	27300	1050391	45037	110331	0	0	8008	630480	0	0
2024-07-25 07:49:47			0	35908	0	0	0	27836	26450	170553	27353	1050427	45037	110332	0	0	8007	630523	0	0
2024-07-25 07:50:47			0	35913	0	0	0	27833	26450	170541	27391	1050427	45025	110331	0	0	8008	630310	0	0
2024-07-25 07:51:47			0	35916	0	0	0	27838	26450	170561	27282	1050373	45037	110333	0	0	8008	630182	0	0
2024-07-25 07:52:47			0	35911	0	0	0	27841	26450	170473	27478	1050445	45025	110334	0	0	8008	630395	0	0
2024-07-25 07:53:47			0	35911	0	0	0	27851	26450	170541	27580	1050454	45037	110338	0	0	8007	630395	0	0
2024-07-25 07:54:47			0	35921	0	0	0	27854	26460	170585	27338	1050418	45038	110339	0	0	8008	629933	0	0
2024-07-25 07:55:47			0	35897	0	0	0	27854	26450	170589	27521	1050454	45037	110339	0	0	8006	630991	0	0
2024-07-25 07:56:47			0	35927	0	0	0	27841	26460	170573	27422	1050463	45048	110334	0	0	8009	629678	0	0
2024-07-25 07:57:47			0	35924	0	0	0	27849	26460	170533	27653	1050445	45015	110337	0	0	8008	629806	0	0
2024-07-25 07:58:47			0	35911	0	0	0	27862	26460	170525	27647	1050516	45048	110342	0	0	8007	630359	0	0
2024-07-25 07:59:47			0	35917	0	0	0	27862	26460	170481	27684	1050498	45026	110342	0	0	8008	630104	0	0
2024-07-25 08:00:47			0	35904	0	0	0	27864	26460	170625	27547	1050445	45038	110343	0	0	8007	630657	0	0
2024-07-25 08:01:47			0	35894	0	0	0	27877	26470	170557	27661	1050516	45039	110348	0	0	8006	631047	0	0
2024-07-25 08:02:47			0	35896	0	0	0	27877	26460	170601	27514	1050525	45048	110348	0	0	8006	630998	0	0
2024-07-25 08:03:47			0	35904	0	0	0	27885	26480	170621	27656	1050579	45050	110351	0	0	8006	630585	0	0
2024-07-25 08:04:47			0	35891	0	0	0	27885	26480	170545	27455	1050641	45050	110351	0	0	8006	631139	0	0
2024-07-25 08:05:47			0	35873	0	0	0	27896	26490	170629	27720	1050623	45041	110355	0	0	8004	631870	0	0
2024-07-25 08:06:47			0	35879	0	0	0	27896	26480	170609	27562	1050668	45040	110355	0	0	8005	631650	0	0
2024-07-25 08:07:47			0	35883	0	0	0	27901	26480	170589	27649	1050614	45040	110357	0	0	8005	631480	0	0
2024-07-25 08:08:47			0	35888	0	0	0	27888	26490	170657	27407	1050632	45029	110352	0	0	8006	631231	0	0
2024-07-25 08:09:47			0	35873	0	0	0	27898	26490	170593	27810	1050632	45041	110356	0	0	8004	631870	0	0
2024-07-25 08:10:47			0	35895	0	0	0	27898	26500	170577	27559	1050668	45041	110356	0	0	8006	630896	0	0
2024-07-25 08:11:47			0	35885	0	0	0	27896	26500	170449	27703	1050694	45041	110355	0	0	8005	631322	0	0
2024-07-25 08:12:47			0	35895	0	0	0	27901	26500	170533	27765	1050694	45052	110357	0	0	8006	630896	0	0
2024-07-25 08:13:47			0	35875	0	0	0	27906	26500	170617	27457	1050650	45031	110359	0	0	8004	631749	0	0
2024-07-25 08:14:47			0	35879	0	0	0	27914	26500	170569	27474	1050703	45042	110362	0	0	8005	631578	0	0
2024-07-25 08:15:47			0	35866	0	0	0	27914	26510	170589	27514	1050739	45042	110362	0	0	8004	632096	0	0
2024-07-25 08:16:47			0	35868	0	0	0	27922	26500	170609	27511	1050730	45064	110365	0	0	8004	632047	0	0
2024-07-25 08:17:47			0	35882	0	0	0	27916	26510	170561	27121	1050721	45042	110363	0	0	8005	631414	0	0
2024-07-25 08:18:47			0	35887	0	0	0	27916	26520	170449	27798	1050766	45043	110363	0	0	8005	631165	0	0
2024-07-25 08:19:47			0	35880	0	0	0	27911	26520	170485	27630	1050784	45043	110361	0	0	8005	631463	0	0
2024-07-25 08:20:47			0	35888	0	0	0	27911	26510	170529	27282	1050802	45042	110361	0	0	8005	631158	0	0
2024-07-25 08:21:47			0	35891	0	0	0	27911	26520	170477	27729	1050757	45043	110361	0	0	8005	630995	0	0
2024-07-25 08:22:47			0	35873	0	0	0	27919	26510	170349	27632	1050748	45020	110364	0	0	8004	631798	0	0
2024-07-25 08:23:47			0	35886	0	0	0	27922	26520	170445	27486	1050730	45009	110365	0	0	8005	631207	0	0
2024-07-25 08:24:47			0	35901	0	0	0	27911	26510	170437	27724	1050766	45042	110361	0	0	8006	630605	0	0
2024-07-25 08:25:47			0	35896	0	0	0	27914	26510	170465	27498	1050685	45031	110362	0	0	8006	630818	0	0
2024-07-25 08:26:47			0	35906	0	0	0	27914	26520	170493	27691	1050730	45043	110362	0	0	8006	630356	0	0
2024-07-25 08:27:47			0	35909	0	0	0	27901	26510	170441	27441	1050712	45031	110357	0	0	8007	630264	0	0
2024-07-25 08:28:47			0	35918	0	0	0	27909	26510	170465	27474	1050712	45042	110360	0	0	8007	629881	0	0
2024-07-25 08:29:47			0	35915	0	0	0	27901	26510	170349	27588	1050658	45031	110357	0	0	8007	630009	0	0
2024-07-25 08:30:47			0	35915	0	0	0	27911	26510	170429	27651	1050712	45053	110361	0	0	8007	630009	0	0
2024-07-25 08:31:47			0	35925	0	0	0	27911	26510	170281	27388	1050721	45031	110361	0	0	8007	629583	0	0
2024-07-25 08:32:47			0	35936	0	0	0	27909	26510	170325	27424	1050694	45042	110360	0	0	8008	629115	0	0
2024-07-25 08:33:47			0	35928	0	0	0	27906	26520	170341	27473	1050810	45021	110359	0	0	8008	629420	0	0
2024-07-25 08:34:47			0	35948	0	0	0	27903	26520	170349	27246	1050730	45032	110358	0	0	8009	628569	0	0
2024-07-25 08:35:47			0	35941	0	0	0	27919	26520	170245	27374	1050784	45054	110364	0	0	8008	628867	0	0
2024-07-25 08:36:47			0	35953	0	0	0	27914	26520	170221	27327	1050810	45054	110362	0	0	8009	628357	0	0
2024-07-25 08:37:47			0	35951	0	0	0	27906	26510	170309	27251	1050748	45031	110359	0	0	8009	628478	0	0
2024-07-25 08:38:47			0	35955	0	0	0	27903	26520	170185	27352	1050757	45032	110358	0	0	8009	628272	0	0
2024-07-25 08:39:47			0	35964	0	0	0	27903	26510	170241	27310	1050739	45031	110358	0	0	8010	627926	0	0
2024-07-25 08:40:47			0	35963	0	0	0	27906	26520	170073	27355	1050810	45043	110359	0	0	8010	627932	0	0
2024-07-25 08:41:47			0	35959	0	0	0	27911	26520	170097	27072	1050730	45043	110361	0	0	8010	628102	0	0
2024-07-25 08:42:47			0	35941	0	0	0	27911	26530	170077	27154	1050801	45033	110361	0	0	8009	628831	0	0
2024-07-25 08:43:47			0	35977	0	0	0	27924	26530	170133	27183	1050801	45033	110366	0	0	8011	627302	0	0
2024-07-25 08:44:47			0	35967	0	0	0	27914	26520	170141	27234	1050819	45022	110362	0	0	8010	627763	0	0
2024-07-25 08:45:47			0	35973	0	0	0	27916	26520	170109	27227	1050784	45032	110363	0	0	8010	627508	0	0
2024-07-25 08:46:47			0	35969	0	0	0	27924	26520	170133	27097	1050819	45033	110366	0	0	8010	627678	0	0
2024-07-25 08:47:47			0	35990	0	0	0	27914	26520	170129	27277	1050837	45043	110362	0	0	8011	626787	0	0
2024-07-25 08:48:47			0	35982	0	0	0	27932	26530	170149	27289	1050774	45043	110369	0	0	8011	627090	0	0
2024-07-25 08:49:47			0	35983	0	0	0	27927	26530	170081	27164	1050828	45043	110367	0	0	8011	627048	0	0
2024-07-25 08:50:47			0	35988	0	0	0	27932	26530	170061	27303	1050882	45043	110369	0	0	8011	626836	0	0
2024-07-25 08:51:47			0	35985	0	0	0	27935	26520	170109	27265	1050873	45033	110370	0	0	8011	626999	0	0
2024-07-25 08:52:47			0	35994	0	0	0	27932	26520	169965	27351	1050792	45043	110369	0	0	8011	626617	0	0
2024-07-25 08:53:47			0	36005	0	0	0	27942	26530	169961	27485	1050855	45055	110373	0	0	8012	626115	0	0
2024-07-25 08:54:47			0	36011	0	0	0	27940	26540	169849	27317	1050900	45044	110372	0	0	8012	625825	0	0
2024-07-25 08:55:47			0	35984	0	0	0	27935	26530	169877	27436	1050891	45043	110370	0	0	8011	627005	0	0
2024-07-25 08:56:47			0	35997	0	0	0	27935	26540	169861	27298	1050873	45034	110370	0	0	8012	626418	0	0
2024-07-25 08:57:47			0	36016	0	0	0	27940	26540	169837	27334	1050873	45044	110372	0	0	8013	625614	0	0
2024-07-25 08:58:47			0	36028	0	0	0	27937	26540	169741	27658	1050900	45044	110371	0	0	8013	625106	0	0
2024-07-25 08:59:47			0	36034	0	0	0	27935	26530	169729	27138	1050864	45043	110370	0	0	8014	624888	0	0
2024-07-25 09:00:47			0	36040	0	0	0	27937	26540	169693	27351	1050855	45045	110371	0	0	8014	624598	0	0
2024-07-25 09:01:47			0	36065	0	0	0	27935	26530	169689	27533	1050864	45043	110370	0	0	8016	623577	0	0
2024-07-25 09:02:47			0	36065	0	0	0	27935	26530	169709	27258	1050810	45043	110370	0	0	8016	623577	0	0
2024-07-25 09:03:47			0	36079	0	0	0	27932	26540	169589	27371	1050900	45044	110369	0	0	8017	622950	0	0
2024-07-25 09:04:47			0	36096	0	0	0	27937	26540	169585	27121	1050882	45045	110371	0	0	8018	622233	0	0
2024-07-25 09:05:47			0	36112	0	0	0	27935	26540	169497	27498	1050873	45044	110370	0	0	8019	621558	0	0
2024-07-25 09:06:47			0	36120	0	0	0	27948	26540	169421	27157	1050900	45034	110375	0	0	8019	621221	0	0
2024-07-25 09:07:47			0	36129	0	0	0	27942	26540	169449	27024	1050846	45044	110373	0	0	8019	620842	0	0
2024-07-25 09:08:47			0	36157	0	0	0	27940	26530	169289	27313	1050891	45055	110372	0	0	8021	619699	0	0
2024-07-25 09:09:47			0	36165	0	0	0	27950	26530	169181	27279	1050891	45033	110376	0	0	8021	619363	0	0
2024-07-25 09:10:47			0	36174	0	0	0	27948	26540	169165	27284	1050962	45045	110375	0	0	8022	618949	0	0
2024-07-25 09:11:47			0	36192	0	0	0	27942	26540	169053	27150	1050900	45034	110373	0	0	8023	618193	0	0
2024-07-25 09:12:47			0	36207	0	0	0	27940	26530	169049	26963	1050891	45043	110372	0	0	8024	617599	0	0
2024-07-25 09:13:47			0	36230	0	0	0	27940	26540	168985	27267	1050855	45045	110372	0	0	8026	616599	0	0
2024-07-25 09:14:47			0	36221	0	0	0	27927	26540	168909	27081	1050882	45024	110367	0	0	8025	616976	0	0
2024-07-25 09:15:47			0	36248	0	0	0	27935	26540	168929	27227	1050882	45035	110370	0	0	8027	615845	0	0
2024-07-25 09:16:47			0	36262	0	0	0	27950	26530	168817	27211	1050918	45043	110376	0	0	8027	615294	0	0
2024-07-25 09:17:47			0	36268	0	0	0	27958	26540	168669	27232	1050926	45044	110379	0	0	8028	615008	0	0
2024-07-25 09:18:47			0	36292	0	0	0	27971	26540	168629	26800	1050900	45044	110384	0	0	8029	614004	0	0
2024-07-25 09:19:47			0	36299	0	0	0	27974	26550	168629	26984	1050971	45068	110385	0	0	8029	613677	0	0
2024-07-25 09:20:47			0	36287	0	0	0	27971	26550	168637	27303	1050980	45046	110384	0	0	8029	614178	0	0
2024-07-25 09:21:47			0	36320	0	0	0	27966	26540	168565	26928	1050989	45045	110382	0	0	8031	612835	0	0
2024-07-25 09:22:47			0	36315	0	0	0	27966	26550	168581	27003	1050998	45045	110382	0	0	8030	613009	0	0
2024-07-25 09:23:47			0	36330	0	0	0	27966	26550	168465	27274	1050998	45024	110382	0	0	8031	612383	0	0
2024-07-25 09:24:47			0	36321	0	0	0	27963	26550	168437	27379	1051034	45046	110381	0	0	8031	612758	0	0
2024-07-25 09:25:47			0	36328	0	0	0	27963	26560	168545	27116	1050989	45036	110381	0	0	8031	612431	0	0
2024-07-25 09:26:47			0	36332	0	0	0	27974	26560	168453	27109	1051052	45047	110385	0	0	8031	612264	0	0
2024-07-25 09:27:47			0	36339	0	0	0	27981	26570	168445	27310	1051060	45038	110388	0	0	8032	611937	0	0
2024-07-25 09:28:47			0	36329	0	0	0	27976	26570	168421	27156	1051034	45048	110386	0	0	8031	612354	0	0
2024-07-25 09:29:47			0	36332	0	0	0	27966	26570	168461	26859	1051114	45048	110382	0	0	8031	612229	0	0
2024-07-25 09:30:47			0	36317	0	0	0	27981	26560	168441	27111	1051132	45047	110388	0	0	8030	612890	0	0
2024-07-25 09:31:47			0	36327	0	0	0	27981	26570	168481	26901	1051087	45048	110388	0	0	8031	612438	0	0
2024-07-25 09:32:47			0	36323	0	0	0	27974	26560	168509	27542	1051105	45037	110385	0	0	8031	612640	0	0
2024-07-25 09:33:47			0	36320	0	0	0	27989	26570	168585	27244	1051141	45060	110391	0	0	8030	612730	0	0
2024-07-25 09:34:47			0	36330	0	0	0	27992	26570	168677	27005	1051069	45048	110392	0	0	8031	612313	0	0
2024-07-25 09:35:47			0	36324	0	0	0	27986	26570	168653	27052	1051123	45038	110390	0	0	8031	612563	0	0
2024-07-25 09:36:47			0	36334	0	0	0	27981	26580	168585	27102	1051141	45072	110388	0	0	8031	612111	0	0
2024-07-25 09:37:47			0	36311	0	0	0	27986	26580	168605	27197	1051132	45048	110390	0	0	8030	613070	0	0
2024-07-25 09:38:47			0	36321	0	0	0	27989	26570	168501	27187	1051150	45038	110391	0	0	8030	612688	0	0
2024-07-25 09:39:47			0	36306	0	0	0	27992	26580	168525	27052	1051132	45038	110392	0	0	8030	613279	0	0
2024-07-25 09:40:47			0	36312	0	0	0	27999	26580	168501	27289	1051132	45048	110395	0	0	8030	613029	0	0
2024-07-25 09:41:47			0	36327	0	0	0	27986	26580	168509	27376	1051186	45038	110390	0	0	8031	612403	0	0
2024-07-25 09:42:47			0	36322	0	0	0	27994	26580	168557	27249	1051168	45083	110393	0	0	8030	612611	0	0
2024-07-25 09:43:47			0	36316	0	0	0	27997	26580	168493	27183	1051168	45049	110394	0	0	8030	612862	0	0
2024-07-25 09:44:47			0	36342	0	0	0	28005	26590	168361	27274	1051176	45040	110397	0	0	8032	611742	0	0
2024-07-25 09:45:47			0	36309	0	0	0	27997	26590	168413	27523	1051230	45062	110394	0	0	8030	613119	0	0
2024-07-25 09:46:47			0	36324	0	0	0	28002	26590	168385	27345	1051176	45050	110396	0	0	8030	612493	0	0
2024-07-25 09:47:47			0	36332	0	0	0	27997	26600	168449	27298	1051221	45040	110394	0	0	8031	612124	0	0
2024-07-25 09:48:47			0	36343	0	0	0	28007	26580	168325	27379	1051248	45072	110398	0	0	8031	611736	0	0
2024-07-25 09:49:47			0	36338	0	0	0	27999	26590	168377	27357	1051185	45040	110395	0	0	8031	611909	0	0
2024-07-25 09:50:47			0	36345	0	0	0	28002	26590	168393	27230	1051212	45040	110396	0	0	8032	611617	0	0
2024-07-25 09:51:47			0	36328	0	0	0	27997	26600	168385	27180	1051203	45051	110394	0	0	8031	612291	0	0
2024-07-25 09:52:47			0	36323	0	0	0	27997	26590	168437	27251	1051176	45050	110394	0	0	8031	612534	0	0
2024-07-25 09:53:47			0	36339	0	0	0	27992	26600	168385	27294	1051167	45050	110392	0	0	8032	611832	0	0
2024-07-25 09:54:47			0	36329	0	0	0	27994	26590	168409	27287	1051212	45040	110393	0	0	8031	612284	0	0
2024-07-25 09:55:47			0	36323	0	0	0	27999	26590	168473	27433	1051212	45050	110395	0	0	8030	612534	0	0
2024-07-25 09:56:47			0	36317	0	0	0	28012	26590	168509	27646	1051239	45050	110400	0	0	8030	612785	0	0
2024-07-25 09:57:47			0	36303	0	0	0	28018	26600	168473	27343	1051310	45074	110402	0	0	8029	613334	0	0
2024-07-25 09:58:47			0	36332	0	0	0	28031	26610	168505	27261	1051301	45052	110407	0	0	8031	612089	0	0
2024-07-25 09:59:47			0	36322	0	0	0	28041	26620	168501	27447	1051337	45052	110411	0	0	8030	612471	0	0
2024-07-25 10:00:47			0	36314	0	0	0	28044	26620	168505	27447	1051418	45085	110412	0	0	8029	612805	0	0
2024-07-25 10:01:47			0	36313	0	0	0	28038	26620	168357	27429	1051453	45053	110410	0	0	8029	612847	0	0
2024-07-25 10:02:47			0	36312	0	0	0	28054	26620	168429	27372	1051391	45052	110416	0	0	8029	612888	0	0
2024-07-25 10:03:47			0	36299	0	0	0	28044	26620	168433	27303	1051498	45052	110412	0	0	8028	613431	0	0
2024-07-25 10:04:47			0	36296	0	0	0	28041	26620	168493	27509	1051453	45053	110411	0	0	8028	613556	0	0
2024-07-25 10:05:47			0	36297	0	0	0	28051	26640	168453	27516	1051426	45044	110415	0	0	8028	613444	0	0
2024-07-25 10:06:47			0	36301	0	0	0	28051	26630	168441	27436	1051382	45054	110415	0	0	8028	613312	0	0
2024-07-25 10:07:47			0	36285	0	0	0	28046	26640	168581	27227	1051507	45078	110413	0	0	8028	613945	0	0
2024-07-25 10:08:47			0	36281	0	0	0	28046	26630	168641	27239	1051444	45055	110413	0	0	8027	614148	0	0
2024-07-25 10:09:47			0	36259	0	0	0	28044	26630	168661	27152	1051471	45055	110412	0	0	8026	615067	0	0
2024-07-25 10:10:47			0	36246	0	0	0	28049	26650	168697	27317	1051444	45056	110414	0	0	8025	615541	0	0
2024-07-25 10:11:47			0	36252	0	0	0	28051	26630	168657	27013	1051498	45055	110415	0	0	8026	615360	0	0
2024-07-25 10:12:47			0	36230	0	0	0	28064	26640	168749	27277	1051507	45055	110420	0	0	8024	616246	0	0
2024-07-25 10:13:47			0	36227	0	0	0	28062	26640	168781	27369	1051435	45055	110419	0	0	8024	616372	0	0
2024-07-25 10:14:47			0	36215	0	0	0	28051	26650	168801	27436	1051551	45045	110415	0	0	8023	616839	0	0
2024-07-25 10:15:47			0	36202	0	0	0	28067	26660	168813	27244	1051560	45057	110421	0	0	8022	617349	0	0
2024-07-25 10:16:47			0	36180	0	0	0	28067	26640	168873	27168	1051542	45055	110421	0	0	8021	618343	0	0
2024-07-25 10:17:47			0	36177	0	0	0	28059	26650	169057	27244	1051578	45067	110418	0	0	8021	618434	0	0
2024-07-25 10:18:47			0	36165	0	0	0	28054	26650	169049	27429	1051578	45079	110416	0	0	8020	618937	0	0
2024-07-25 10:19:47			0	36139	0	0	0	28049	26640	169081	27400	1051542	45044	110414	0	0	8019	620066	0	0
2024-07-25 10:20:47			0	36120	0	0	0	28057	26660	169245	27369	1051569	45057	110417	0	0	8018	620795	0	0
2024-07-25 10:21:47			0	36086	0	0	0	28062	26670	169337	27185	1051560	45069	110419	0	0	8016	622192	0	0
2024-07-25 10:22:47			0	36059	0	0	0	28067	26660	169501	27320	1051569	45046	110421	0	0	8014	623367	0	0
2024-07-25 10:23:47			0	36054	0	0	0	28064	26660	169533	27104	1051623	45068	110420	0	0	8013	623578	0	0
2024-07-25 10:24:47			0	36033	0	0	0	28059	26660	169661	27412	1051596	45057	110418	0	0	8012	624465	0	0
2024-07-25 10:25:47			0	35983	0	0	0	28067	26660	169741	27241	1051596	45046	110421	0	0	8009	626582	0	0
2024-07-25 10:26:47			0	35958	0	0	0	28064	26670	169897	26885	1051524	45068	110420	0	0	8008	627606	0	0
2024-07-25 10:27:47			0	35958	0	0	0	28059	26670	170057	27069	1051632	45046	110418	0	0	8008	627606	0	0
2024-07-25 10:28:47			0	35928	0	0	0	28057	26660	170129	26998	1051623	45024	110417	0	0	8006	628916	0	0
2024-07-25 10:29:47			0	35894	0	0	0	28054	26660	170185	27376	1051596	45046	110416	0	0	8004	630361	0	0
2024-07-25 10:30:47			0	35886	0	0	0	28049	26660	170337	27230	1051623	45057	110414	0	0	8004	630702	0	0
2024-07-25 10:31:47			0	35867	0	0	0	28051	26670	170389	27410	1051614	45047	110415	0	0	8002	631475	0	0
2024-07-25 10:32:47			0	35859	0	0	0	28062	26660	170457	27005	1051596	45046	110419	0	0	8002	631852	0	0
2024-07-25 10:33:47			0	35837	0	0	0	28062	26670	170524	27421	1051605	45057	110419	0	0	8000	632755	0	0
2024-07-25 10:34:47			0	35829	0	0	0	28062	26660	170528	27197	1051569	45068	110419	0	0	8000	633132	0	0
2024-07-25 10:35:47			0	35810	0	0	0	28054	26660	170496	27079	1051623	45035	110416	0	0	7999	633944	0	0
2024-07-25 10:36:47			0	35795	0	0	0	28062	26670	170588	27253	1051605	45057	110419	0	0	7998	634549	0	0
2024-07-25 10:37:47			0	35792	0	0	0	28059	26670	170708	27171	1051587	45047	110418	0	0	7998	634677	0	0
2024-07-25 10:38:47			0	35776	0	0	0	28046	26670	170792	26939	1051587	45047	110413	0	0	7997	635362	0	0
2024-07-25 10:39:47			0	35783	0	0	0	28044	26670	170692	27377	1051578	45046	110412	0	0	7997	635062	0	0
2024-07-25 10:40:47			0	35763	0	0	0	28033	26650	170832	27274	1051524	45056	110408	0	0	7996	635991	0	0
2024-07-25 10:41:47			0	35741	0	0	0	28044	26660	170860	27196	1051542	45046	110412	0	0	7995	636898	0	0
2024-07-25 10:42:47			0	35750	0	0	0	28031	26650	170892	27282	1051417	45034	110407	0	0	7995	636548	0	0
2024-07-25 10:43:47			0	35732	0	0	0	28033	26650	170944	27168	1051471	45045	110408	0	0	7994	637320	0	0
2024-07-25 10:44:47			0	35719	0	0	0	28033	26650	171016	27253	1051524	45045	110408	0	0	7994	637878	0	0
2024-07-25 10:45:47			0	35719	0	0	0	28038	26650	171000	27159	1051471	45045	110410	0	0	7993	637878	0	0
2024-07-25 10:46:47			0	35708	0	0	0	28028	26640	171152	27481	1051462	45067	110406	0	0	7993	638387	0	0
2024-07-25 10:47:47			0	35697	0	0	0	28031	26650	171168	27228	1051498	45056	110407	0	0	7992	638823	0	0
2024-07-25 10:48:47			0	35702	0	0	0	28028	26640	171104	27072	1051462	45044	110406	0	0	7993	638645	0	0
2024-07-25 10:49:47			0	35681	0	0	0	28033	26650	171152	27234	1051444	45056	110408	0	0	7991	639511	0	0
2024-07-25 10:50:47			0	35691	0	0	0	28015	26630	171224	26944	1051390	45033	110401	0	0	7992	639154	0	0
2024-07-25 10:51:47			0	35677	0	0	0	28015	26630	171352	27107	1051444	45033	110401	0	0	7991	639756	0	0
2024-07-25 10:52:47			0	35670	0	0	0	28012	26640	171204	27305	1051408	45044	110400	0	0	7991	640021	0	0
2024-07-25 10:53:47			0	35663	0	0	0	28012	26630	171296	27256	1051390	45067	110400	0	0	7990	640358	0	0
2024-07-25 10:54:47			0	35650	0	0	0	28020	26640	171280	27248	1051372	45044	110403	0	0	7989	640881	0	0
2024-07-25 10:55:47			0	35657	0	0	0	28033	26640	171376	27409	1051426	45078	110408	0	0	7990	640580	0	0
2024-07-25 10:56:47			0	35647	0	0	0	28051	26630	171312	27140	1051498	45055	110415	0	0	7989	641047	0	0
2024-07-25 10:57:47			0	35648	0	0	0	28067	26640	171272	27284	1051560	45055	110421	0	0	7989	640968	0	0
2024-07-25 10:58:47			0	35680	0	0	0	28077	26650	171236	27379	1051551	45079	110425	0	0	7990	639554	0	0
2024-07-25 10:59:47			0	35682	0	0	0	28080	26650	171188	27173	1051632	45067	110426	0	0	7990	639468	0	0
2024-07-25 11:00:47			0	35676	0	0	0	28093	26660	171136	27256	1051623	45080	110431	0	0	7990	639689	0	0
2024-07-25 11:01:47			0	35686	0	0	0	28098	26660	171180	27369	1051623	45068	110433	0	0	7990	639259	0	0
2024-07-25 11:02:47			0	35694	0	0	0	28093	26660	171144	27275	1051721	45080	110431	0	0	7991	638915	0	0
2024-07-25 11:03:47			0	35682	0	0	0	28098	26680	171108	27336	1051650	45070	110433	0	0	7990	639358	0	0
2024-07-25 11:04:47			0	35700	0	0	0	28106	26680	171072	27008	1051712	45070	110436	0	0	7991	638584	0	0
2024-07-25 11:05:47			0	35709	0	0	0	28103	26680	171128	27357	1051730	45070	110435	0	0	7992	638198	0	0
2024-07-25 11:06:47			0	35708	0	0	0	28114	26690	171036	27052	1051721	45059	110439	0	0	7992	638204	0	0
2024-07-25 11:07:47			0	35715	0	0	0	28114	26700	171008	27194	1051828	45073	110439	0	0	7992	637867	0	0
2024-07-25 11:08:47			0	35731	0	0	0	28116	26690	170960	27265	1051784	45060	110440	0	0	7993	637217	0	0
2024-07-25 11:09:47			0	35725	0	0	0	28116	26690	170936	27149	1051748	45048	110440	0	0	7993	637474	0	0
2024-07-25 11:10:47			0	35735	0	0	0	28132	26700	170868	27211	1051846	45061	110446	0	0	7993	637009	0	0
2024-07-25 11:11:47			0	35751	0	0	0	28129	26710	170892	27092	1051846	45073	110445	0	0	7994	636287	0	0
2024-07-25 11:12:47			0	35736	0	0	0	28135	26710	170816	27339	1051837	45073	110447	0	0	7993	636930	0	0
2024-07-25 11:13:47			0	35751	0	0	0	28111	26710	170828	26998	1051900	45062	110438	0	0	7994	636287	0	0
2024-07-25 11:14:47			0	35765	0	0	0	28088	26710	170748	27239	1051819	45062	110429	0	0	7996	635687	0	0
2024-07-25 11:15:47			0	35753	0	0	0	28106	26710	170948	27355	1051846	45062	110436	0	0	7995	636201	0	0
2024-07-25 11:16:47			0	35743	0	0	0	28122	26720	170912	27419	1051882	45074	110442	0	0	7994	636593	0	0
2024-07-25 11:17:47			0	35719	0	0	0	28148	26720	170884	27100	1051998	45064	110452	0	0	7992	637622	0	0
2024-07-25 11:18:47			0	35729	0	0	0	28155	26740	171088	27256	1051998	45087	110455	0	0	7993	637120	0	0
2024-07-25 11:19:47			0	35729	0	0	0	28173	26740	171068	27123	1052087	45088	110462	0	0	7992	637120	0	0
2024-07-25 11:20:47			0	35730	0	0	0	28184	26760	171000	27078	1052141	45089	110466	0	0	7992	637005	0	0
2024-07-25 11:21:47			0	35724	0	0	0	28171	26750	171000	26863	1052078	45077	110461	0	0	7992	637298	0	0
2024-07-25 11:22:47			0	35729	0	0	0	28137	26750	170868	27038	1052051	45055	110448	0	0	7993	637084	0	0
2024-07-25 11:23:47			0	35725	0	0	0	28122	26750	170868	27481	1052015	45055	110442	0	0	7993	637255	0	0
2024-07-25 11:24:47			0	35741	0	0	0	28114	26740	171008	27126	1052007	45055	110439	0	0	7994	636606	0	0
2024-07-25 11:25:47			0	35723	0	0	0	28109	26740	170936	27412	1051944	45065	110437	0	0	7993	637378	0	0
2024-07-25 11:26:47			0	35712	0	0	0	28114	26740	170964	27123	1051926	45066	110439	0	0	7992	637850	0	0
2024-07-25 11:27:47			0	35724	0	0	0	28116	26750	170960	27149	1051997	45055	110440	0	0	7993	637298	0	0
2024-07-25 11:28:47			0	35718	0	0	0	28150	26740	171088	27154	1052087	45066	110453	0	0	7992	637592	0	0
2024-07-25 11:29:47			0	35719	0	0	0	28171	26740	171024	27130	1052087	45066	110461	0	0	7992	637549	0	0
2024-07-25 11:30:47			0	35734	0	0	0	28189	26760	171008	27074	1052167	45089	110468	0	0	7992	636833	0	0
2024-07-25 11:31:47			0	35752	0	0	0	28189	26750	170916	27211	1052212	45077	110468	0	0	7993	636098	0	0
2024-07-25 11:32:47			0	35732	0	0	0	28192	26780	170900	26852	1052212	45081	110469	0	0	7992	636846	0	0
2024-07-25 11:33:47			0	35739	0	0	0	28184	26780	170804	27201	1052257	45102	110466	0	0	7993	636546	0	0
2024-07-25 11:34:47			0	35752	0	0	0	28189	26780	170716	26981	1052319	45081	110468	0	0	7994	635989	0	0
2024-07-25 11:35:47			0	35769	0	0	0	28192	26790	170760	26913	1052301	45071	110469	0	0	7995	635225	0	0
2024-07-25 11:36:47			0	35795	0	0	0	28197	26790	170604	27081	1052284	45071	110471	0	0	7996	634113	0	0
2024-07-25 11:37:47			0	35816	0	0	0	28150	26790	170488	27092	1052203	45059	110453	0	0	7998	633216	0	0
2024-07-25 11:38:47			0	35825	0	0	0	28148	26790	170352	27130	1052230	45059	110452	0	0	7999	632832	0	0
2024-07-25 11:39:47			0	35820	0	0	0	28150	26790	170304	27090	1052140	45071	110453	0	0	7998	633045	0	0
2024-07-25 11:40:47			0	35821	0	0	0	28155	26790	170416	27010	1052167	45048	110455	0	0	7998	633003	0	0
2024-07-25 11:41:47			0	35848	0	0	0	28189	26780	170364	27081	1052212	45058	110468	0	0	7999	631887	0	0
2024-07-25 11:42:47			0	35819	0	0	0	28259	26790	170408	26916	1052301	45082	110495	0	0	7997	633088	0	0
2024-07-25 11:43:47			0	35810	0	0	0	28277	26800	170668	27043	1052400	45092	110502	0	0	7996	633436	0	0
2024-07-25 11:44:47			0	35778	0	0	0	28270	26800	170644	27109	1052516	45093	110499	0	0	7994	634803	0	0
2024-07-25 11:45:47			0	35770	0	0	0	28223	26820	170652	27145	1052435	45094	110481	0	0	7994	635073	0	0
2024-07-25 11:46:47			0	35764	0	0	0	28207	26820	170648	27348	1052435	45073	110475	0	0	7994	635330	0	0
2024-07-25 11:47:47			0	35756	0	0	0	28215	26820	170696	27130	1052471	45084	110478	0	0	7994	635672	0	0
2024-07-25 11:48:47			0	35762	0	0	0	28223	26820	170684	26968	1052355	45073	110481	0	0	7994	635415	0	0
2024-07-25 11:49:47			0	35760	0	0	0	28228	26820	170720	27137	1052390	45074	110483	0	0	7994	635501	0	0
2024-07-25 11:50:47			0	35767	0	0	0	28238	26820	170636	26928	1052417	45062	110487	0	0	7994	635201	0	0
2024-07-25 11:51:47			0	35764	0	0	0	28254	26820	170656	27017	1052444	45074	110493	0	0	7993	635330	0	0
2024-07-25 11:52:47			0	35756	0	0	0	28251	26830	170772	27206	1052507	45075	110492	0	0	7993	635635	0	0
2024-07-25 11:53:47			0	35749	0	0	0	28262	26830	170732	26804	1052480	45075	110496	0	0	7992	635935	0	0
2024-07-25 11:54:47			0	35743	0	0	0	28249	26830	170752	26894	1052507	45063	110491	0	0	7992	636192	0	0
2024-07-25 11:55:47			0	35749	0	0	0	28249	26840	170752	27090	1052498	45097	110491	0	0	7993	635899	0	0
2024-07-25 11:56:47			0	35749	0	0	0	28259	26850	170776	27066	1052551	45088	110495	0	0	7993	635862	0	0
2024-07-25 11:57:47			0	35727	0	0	0	28270	26840	170744	27124	1052560	45086	110499	0	0	7991	636841	0	0
2024-07-25 11:58:47			0	35713	0	0	0	28270	26850	170768	27039	1052659	45078	110499	0	0	7990	637405	0	0
2024-07-25 11:59:47			0	35713	0	0	0	28251	26860	170800	27007	1052596	45078	110492	0	0	7991	637368	0	0
2024-07-25 12:00:47			0	35716	0	0	0	28244	26850	170832	26719	1052632	45088	110489	0	0	7991	637276	0	0
2024-07-25 12:01:47			0	35705	0	0	0	28264	26840	171016	27052	1052641	45086	110497	0	0	7990	637785	0	0
2024-07-25 12:02:47			0	35699	0	0	0	28270	26850	170884	27197	1052605	45078	110499	0	0	7989	638006	0	0
2024-07-25 12:03:47			0	35699	0	0	0	28293	26860	171036	26948	1052649	45088	110508	0	0	7989	637969	0	0
2024-07-25 12:04:47			0	35693	0	0	0	28309	26860	170956	26764	1052703	45088	110514	0	0	7988	638227	0	0
2024-07-25 12:05:47			0	35691	0	0	0	28319	26870	171072	27079	1052739	45089	110518	0	0	7988	638276	0	0
2024-07-25 12:06:47			0	35699	0	0	0	28311	26880	170980	27039	1052784	45090	110515	0	0	7989	637896	0	0
2024-07-25 12:07:47			0	35696	0	0	0	28296	26880	170916	27176	1052757	45079	110509	0	0	7989	638025	0	0
2024-07-25 12:08:47			0	35705	0	0	0	28280	26880	170940	27203	1052819	45090	110503	0	0	7990	637638	0	0
2024-07-25 12:09:47			0	35713	0	0	0	28303	26880	170808	27124	1052810	45079	110512	0	0	7990	637295	0	0
2024-07-25 12:10:47			0	35700	0	0	0	28329	26890	170908	27052	1052837	45081	110522	0	0	7989	637817	0	0
2024-07-25 12:11:47			0	35710	0	0	0	28329	26890	170864	26913	1052864	45081	110522	0	0	7989	637388	0	0
2024-07-25 12:12:47			0	35715	0	0	0	28329	26900	170860	27190	1052855	45104	110522	0	0	7990	637137	0	0
2024-07-25 12:13:47			0	35737	0	0	0	28337	26900	170812	27294	1052908	45104	110525	0	0	7991	636194	0	0
2024-07-25 12:14:47			0	35741	0	0	0	28342	26910	170596	27239	1052953	45083	110527	0	0	7991	635986	0	0
2024-07-25 12:15:47			0	35764	0	0	0	28340	26920	170644	27119	1052935	45105	110526	0	0	7992	634966	0	0
2024-07-25 12:16:47			0	35764	0	0	0	28350	26910	170724	27194	1052873	45094	110530	0	0	7992	635002	0	0
2024-07-25 12:17:47			0	35759	0	0	0	28353	26920	170616	27246	1052989	45094	110531	0	0	7992	635179	0	0
2024-07-25 12:18:47			0	35771	0	0	0	28355	26930	170596	27222	1052962	45096	110532	0	0	7993	634630	0	0
2024-07-25 12:19:47			0	35757	0	0	0	28353	26930	170604	27078	1053043	45084	110531	0	0	7992	635229	0	0
2024-07-25 12:20:47			0	35773	0	0	0	28368	26920	170548	27260	1052998	45083	110537	0	0	7993	634581	0	0
2024-07-25 12:21:47			0	35759	0	0	0	28371	26940	170504	27114	1053078	45097	110538	0	0	7992	635107	0	0
2024-07-25 12:22:47			0	35767	0	0	0	28381	26950	170476	26941	1053150	45086	110542	0	0	7992	634728	0	0
2024-07-25 12:23:47			0	35765	0	0	0	28399	26950	170600	27171	1053087	45085	110549	0	0	7992	634814	0	0
2024-07-25 12:24:47			0	35771	0	0	0	28405	26960	170520	27211	1053159	45086	110551	0	0	7992	634521	0	0
2024-07-25 12:25:47			0	35786	0	0	0	28412	26970	170552	27280	1053257	45121	110554	0	0	7993	633844	0	0
2024-07-25 12:26:47			0	35808	0	0	0	28418	26970	170376	26944	1053203	45121	110556	0	0	7994	632905	0	0
2024-07-25 12:27:47			0	35816	0	0	0	28425	26970	170396	27197	1053293	45111	110559	0	0	7994	632563	0	0
2024-07-25 12:28:47			0	35851	0	0	0	28433	26980	170244	26979	1053382	45111	110562	0	0	7997	631036	0	0
2024-07-25 12:29:47			0	35875	0	0	0	28446	26980	170033	27097	1053311	45123	110567	0	0	7998	630014	0	0
2024-07-25 12:30:47			0	35888	0	0	0	28441	27010	170121	26935	1053436	45125	110565	0	0	7999	629354	0	0
2024-07-25 12:31:47			0	35907	0	0	0	28446	27010	169913	26887	1053436	45114	110567	0	0	8000	628547	0	0
2024-07-25 12:32:47			0	35923	0	0	0	28449	27020	169957	27248	1053516	45116	110568	0	0	8001	627832	0	0
2024-07-25 12:33:47			0	35900	0	0	0	28454	27020	169849	26706	1053454	45104	110570	0	0	7999	628808	0	0
2024-07-25 12:34:47			0	35922	0	0	0	28451	27020	169785	26942	1053534	45083	110569	0	0	8001	627874	0	0
2024-07-25 12:35:47			0	35921	0	0	0	28454	27030	169765	27317	1053525	45116	110570	0	0	8001	627880	0	0
2024-07-25 12:36:47			0	35930	0	0	0	28449	27030	169757	26996	1053534	45094	110568	0	0	8001	627499	0	0
2024-07-25 12:37:47			0	35949	0	0	0	28444	27030	169741	26866	1053498	45093	110566	0	0	8003	626694	0	0
2024-07-25 12:38:47			0	35961	0	0	0	28454	27040	169721	26916	1053543	45106	110570	0	0	8003	626150	0	0
2024-07-25 12:39:47			0	36002	0	0	0	28467	27040	169493	26977	1053579	45095	110575	0	0	8005	624416	0	0
2024-07-25 12:40:47			0	36045	0	0	0	28477	27040	169157	27036	1053633	45106	110579	0	0	8008	622601	0	0
2024-07-25 12:41:47			0	36110	0	0	0	28483	27040	168901	27140	1053660	45084	110581	0	0	8012	619865	0	0
2024-07-25 12:42:47			0	36156	0	0	0	28483	27050	168713	26852	1053704	45096	110581	0	0	8015	617898	0	0
2024-07-25 12:43:47			0	36162	0	0	0	28464	27060	168565	27062	1053659	45097	110574	0	0	8015	617611	0	0
2024-07-25 12:44:47			0	36177	0	0	0	28467	27050	168549	27138	1053570	45096	110575	0	0	8016	617018	0	0
2024-07-25 12:45:47			0	36196	0	0	0	28467	27060	168377	27043	1053659	45108	110575	0	0	8017	616187	0	0
2024-07-25 12:46:47			0	36197	0	0	0	28475	27060	168525	26882	1053614	45086	110578	0	0	8017	616145	0	0
2024-07-25 12:47:47			0	36183	0	0	0	28472	27060	168469	27027	1053632	45108	110577	0	0	8016	616731	0	0
2024-07-25 12:48:47			0	36161	0	0	0	28470	27060	168561	27081	1053659	45120	110576	0	0	8015	617653	0	0
2024-07-25 12:49:47			0	36148	0	0	0	28472	27070	168661	26901	1053740	45109	110577	0	0	8014	618162	0	0
2024-07-25 12:50:47			0	36152	0	0	0	28485	27080	168769	27116	1053749	45099	110582	0	0	8014	617959	0	0
2024-07-25 12:51:47			0	36121	0	0	0	28509	27080	168789	27007	1053775	45122	110591	0	0	8012	619260	0	0
2024-07-25 12:52:47			0	36121	0	0	0	28529	27090	168813	26800	1053820	45123	110599	0	0	8012	619225	0	0
2024-07-25 12:53:47			0	36121	0	0	0	28524	27090	168773	27090	1053874	45111	110597	0	0	8012	619225	0	0
2024-07-25 12:54:47			0	36138	0	0	0	28532	27090	168841	27150	1053883	45123	110600	0	0	8013	618511	0	0
2024-07-25 12:55:47			0	36140	0	0	0	28545	27100	168833	27163	1053918	45134	110605	0	0	8013	618392	0	0
2024-07-25 12:56:47			0	36086	0	0	0	28535	27100	169065	27130	1053900	45125	110601	0	0	8010	620660	0	0
2024-07-25 12:57:47			0	36022	0	0	0	28532	27110	169233	26892	1053882	45102	110600	0	0	8006	623321	0	0
2024-07-25 12:58:47			0	35994	0	0	0	28537	27110	169409	26939	1053891	45102	110602	0	0	8004	624503	0	0
2024-07-25 12:59:47			0	35990	0	0	0	28555	27110	169437	27107	1053963	45102	110609	0	0	8004	624672	0	0
2024-07-25 13:00:47			0	35981	0	0	0	28573	27120	169473	26904	1054070	45115	110616	0	0	8003	625016	0	0
2024-07-25 13:01:47			0	35975	0	0	0	28579	27130	169497	26972	1054115	45116	110618	0	0	8002	625234	0	0
2024-07-25 13:02:47			0	35968	0	0	0	28581	27130	169453	27147	1054079	45125	110619	0	0	8002	625530	0	0
2024-07-25 13:03:47			0	35959	0	0	0	28573	27140	169537	27251	1054079	45127	110616	0	0	8002	625875	0	0
2024-07-25 13:04:47			0	35951	0	0	0	28566	27150	169573	27218	1054088	45118	110613	0	0	8001	626178	0	0
2024-07-25 13:05:47			0	35931	0	0	0	28566	27150	169537	26915	1054142	45107	110613	0	0	8000	627025	0	0
2024-07-25 13:06:47			0	35948	0	0	0	28573	27150	169509	27026	1054195	45107	110616	0	0	8001	626305	0	0
2024-07-25 13:07:47			0	35965	0	0	0	28573	27150	169529	26876	1054124	45118	110616	0	0	8002	625585	0	0
2024-07-25 13:08:47			0	35992	0	0	0	28579	27160	169473	27093	1054132	45128	110618	0	0	8004	624408	0	0
2024-07-25 13:09:47			0	35976	0	0	0	28586	27160	169293	27050	1054186	45118	110621	0	0	8002	625084	0	0
2024-07-25 13:10:47			0	36005	0	0	0	28576	27160	169425	27213	1054222	45119	110617	0	0	8004	623859	0	0
2024-07-25 13:11:47			0	35991	0	0	0	28563	27160	169381	27105	1054142	45096	110612	0	0	8004	624450	0	0
2024-07-25 13:12:47			0	35966	0	0	0	28555	27160	169549	27277	1054159	45107	110609	0	0	8002	625507	0	0
2024-07-25 13:13:47			0	35936	0	0	0	28550	27150	169473	27112	1054150	45107	110607	0	0	8001	626813	0	0
2024-07-25 13:14:47			0	35912	0	0	0	28555	27150	169633	27145	1054150	45107	110609	0	0	7999	627830	0	0
2024-07-25 13:15:47			0	35876	0	0	0	28548	27160	169997	27000	1054115	45108	110606	0	0	7997	629322	0	0
2024-07-25 13:16:47			0	35840	0	0	0	28540	27160	169972	27282	1054132	45118	110603	0	0	7995	630852	0	0
2024-07-25 13:17:47			0	35831	0	0	0	28527	27160	170036	27270	1054052	45095	110598	0	0	7995	631235	0	0
2024-07-25 13:18:47			0	35853	0	0	0	28529	27160	169992	27185	1054079	45107	110599	0	0	7996	630299	0	0
2024-07-25 13:19:47			0	35850	0	0	0	28535	27150	169840	26871	1054150	45107	110601	0	0	7996	630463	0	0
2024-07-25 13:20:47			0	35860	0	0	0	28529	27140	169773	27372	1054025	45106	110599	0	0	7996	630074	0	0
2024-07-25 13:21:47			0	35851	0	0	0	28537	27150	169984	27133	1054016	45118	110602	0	0	7996	630420	0	0
2024-07-25 13:22:47			0	35813	0	0	0	28545	27130	170104	27156	1054061	45116	110605	0	0	7993	632111	0	0
2024-07-25 13:23:47			0	35778	0	0	0	28548	27140	170192	27189	1054106	45106	110606	0	0	7991	633567	0	0
2024-07-25 13:24:47			0	35775	0	0	0	28555	27150	170320	26918	1054168	45118	110609	0	0	7991	633659	0	0
2024-07-25 13:25:47			0	35778	0	0	0	28550	27150	170384	26944	1054177	45118	110607	0	0	7991	633531	0	0
2024-07-25 13:26:47			0	35778	0	0	0	28561	27150	170272	26793	1054150	45118	110611	0	0	7991	633531	0	0
2024-07-25 13:27:47			0	35777	0	0	0	28550	27160	170224	27013	1054213	45140	110607	0	0	7991	633537	0	0
2024-07-25 13:28:47			0	35801	0	0	0	28561	27160	170188	26977	1054142	45119	110611	0	0	7992	632513	0	0
2024-07-25 13:29:47			0	35819	0	0	0	28597	27160	170156	26852	1054249	45108	110625	0	0	7993	631746	0	0
2024-07-25 13:30:47			0	35833	0	0	0	28605	27160	170084	27060	1054222	45119	110628	0	0	7993	631150	0	0
2024-07-25 13:31:47			0	35839	0	0	0	28594	27170	169992	27095	1054258	45109	110624	0	0	7994	630859	0	0
2024-07-25 13:32:47			0	35840	0	0	0	28607	27170	170016	26786	1054339	45120	110629	0	0	7994	630816	0	0
2024-07-25 13:33:47			0	35855	0	0	0	28610	27180	169864	27225	1054330	45130	110630	0	0	7995	630142	0	0
2024-07-25 13:34:47			0	35861	0	0	0	28625	27180	169861	27211	1054356	45120	110636	0	0	7995	629887	0	0
2024-07-25 13:35:47			0	35855	0	0	0	28646	27190	169964	26958	1054428	45144	110644	0	0	7994	630106	0	0
2024-07-25 13:36:47			0	35841	0	0	0	28646	27200	170036	27163	1054419	45132	110644	0	0	7993	630665	0	0
2024-07-25 13:37:47			0	35868	0	0	0	28649	27200	170005	27039	1054481	45100	110645	0	0	7995	629517	0	0
2024-07-25 13:38:47			0	35875	0	0	0	28628	27210	169961	27213	1054463	45134	110637	0	0	7996	629184	0	0
2024-07-25 13:39:47			0	35861	0	0	0	28615	27210	169824	26850	1054419	45113	110632	0	0	7995	629778	0	0
2024-07-25 13:40:47			0	35876	0	0	0	28659	27210	169865	27267	1054490	45112	110649	0	0	7995	629141	0	0
2024-07-25 13:41:47			0	35874	0	0	0	28646	27210	169797	27218	1054517	45134	110644	0	0	7995	629226	0	0
2024-07-25 13:42:47			0	35872	0	0	0	28638	27220	169809	27066	1054562	45113	110641	0	0	7996	629275	0	0
2024-07-25 13:43:47			0	35885	0	0	0	28644	27220	169753	27176	1054535	45113	110643	0	0	7996	628723	0	0
2024-07-25 13:44:47			0	35868	0	0	0	28651	27230	169809	27180	1054544	45113	110646	0	0	7995	629409	0	0
2024-07-25 13:45:47			0	35875	0	0	0	28675	27230	169813	27095	1054580	45136	110655	0	0	7995	629111	0	0
2024-07-25 13:46:47			0	35869	0	0	0	28683	27240	169785	27211	1054615	45126	110658	0	0	7995	629330	0	0
2024-07-25 13:47:47			0	35868	0	0	0	28677	27240	169725	27183	1054705	45126	110656	0	0	7995	629372	0	0
2024-07-25 13:48:47			0	35884	0	0	0	28688	27250	169733	27150	1054696	45138	110660	0	0	7996	628657	0	0
2024-07-25 13:49:47			0	35874	0	0	0	28670	27250	169773	27156	1054696	45138	110653	0	0	7995	629081	0	0
2024-07-25 13:50:47			0	35889	0	0	0	28641	27240	169621	26998	1054624	45115	110642	0	0	7997	628481	0	0
2024-07-25 13:51:47			0	35900	0	0	0	28633	27240	169701	27144	1054624	45115	110639	0	0	7997	628014	0	0
2024-07-25 13:52:47			0	35898	0	0	0	28633	27240	169573	26927	1054544	45126	110639	0	0	7997	628099	0	0
2024-07-25 13:53:47			0	35902	0	0	0	28623	27250	169585	27062	1054660	45104	110635	0	0	7998	627893	0	0
2024-07-25 13:54:47			0	35905	0	0	0	28615	27240	169641	26977	1054508	45104	110632	0	0	7998	627802	0	0
2024-07-25 13:55:47			0	35898	0	0	0	28623	27240	169561	27154	1054570	45115	110635	0	0	7997	628099	0	0
2024-07-25 13:56:47			0	35885	0	0	0	28610	27240	169641	27209	1054544	45115	110630	0	0	7997	628651	0	0
2024-07-25 13:57:47			0	35898	0	0	0	28620	27230	169577	27133	1054526	45125	110634	0	0	7997	628135	0	0
2024-07-25 13:58:47			0	35907	0	0	0	28612	27240	169653	27064	1054517	45126	110631	0	0	7998	627717	0	0
2024-07-25 13:59:47			0	35937	0	0	0	28620	27220	169521	27093	1054481	45113	110634	0	0	8000	626519	0	0
2024-07-25 14:00:47			0	35925	0	0	0	28612	27230	169397	27150	1054499	45114	110631	0	0	7999	626991	0	0
2024-07-25 14:01:47			0	35933	0	0	0	28594	27220	169373	27121	1054481	45113	110624	0	0	8000	626688	0	0
2024-07-25 14:02:47			0	35965	0	0	0	28589	27230	169345	27166	1054490	45113	110622	0	0	8002	625298	0	0
2024-07-25 14:03:47			0	35961	0	0	0	28592	27230	169309	26920	1054499	45114	110623	0	0	8002	625467	0	0
2024-07-25 14:04:47			0	35982	0	0	0	28586	27220	169265	27039	1054454	45102	110621	0	0	8003	624616	0	0
2024-07-25 14:05:47			0	35967	0	0	0	28589	27220	169233	26920	1054427	45113	110622	0	0	8002	625249	0	0
2024-07-25 14:06:47			0	36002	0	0	0	28586	27200	169141	27034	1054401	45123	110621	0	0	8004	623843	0	0
2024-07-25 14:07:47			0	36034	0	0	0	28589	27210	169073	26703	1054419	45102	110622	0	0	8006	622457	0	0
2024-07-25 14:08:47			0	36062	0	0	0	28579	27210	168873	27092	1054410	45112	110618	0	0	8008	621278	0	0
2024-07-25 14:09:47			0	36049	0	0	0	28581	27210	168857	26955	1054356	45124	110619	0	0	8007	621825	0	0
2024-07-25 14:10:47			0	36054	0	0	0	28579	27200	168941	26717	1054338	45111	110618	0	0	8007	621650	0	0
2024-07-25 14:11:47			0	36053	0	0	0	28589	27200	168937	27076	1054392	45111	110622	0	0	8007	621692	0	0
2024-07-25 14:12:47			0	36037	0	0	0	28592	27200	169025	27095	1054347	45123	110623	0	0	8006	622366	0	0
2024-07-25 14:13:47			0	36013	0	0	0	28615	27210	169073	26963	1054517	45134	110632	0	0	8004	623343	0	0
2024-07-25 14:14:47			0	35979	0	0	0	28631	27220	169361	26814	1054589	45135	110638	0	0	8002	624742	0	0
2024-07-25 14:15:47			0	35963	0	0	0	28636	27220	169385	27078	1054562	45158	110640	0	0	8001	625418	0	0
2024-07-25 14:16:47			0	35909	0	0	0	28659	27230	169481	26734	1054598	45147	110649	0	0	7997	627669	0	0
2024-07-25 14:17:47			0	35908	0	0	0	28685	27240	169681	27161	1054696	45149	110659	0	0	7997	627675	0	0
2024-07-25 14:18:47			0	35876	0	0	0	28729	27250	169797	26850	1054794	45126	110676	0	0	7994	628997	0	0
2024-07-25 14:19:47			0	35844	0	0	0	28758	27260	169864	26970	1054920	45150	110687	0	0	7992	630320	0	0
2024-07-25 14:20:47			0	35837	0	0	0	28784	27270	169904	27085	1055027	45163	110697	0	0	7991	630581	0	0
2024-07-25 14:21:47			0	35810	0	0	0	28784	27290	169984	26932	1055090	45153	110697	0	0	7990	631658	0	0
2024-07-25 14:22:47			0	35800	0	0	0	28797	27310	169996	26783	1055179	45166	110702	0	0	7989	632011	0	0
2024-07-25 14:23:47			0	35801	0	0	0	28781	27310	169984	26778	1055098	45155	110696	0	0	7989	631969	0	0
2024-07-25 14:24:47			0	35805	0	0	0	28776	27330	169996	26941	1055233	45146	110694	0	0	7990	631726	0	0
2024-07-25 14:25:47			0	35811	0	0	0	28768	27330	169908	27241	1055215	45146	110691	0	0	7990	631470	0	0
2024-07-25 14:26:47			0	35801	0	0	0	28750	27340	169852	27175	1055143	45125	110684	0	0	7990	631860	0	0
2024-07-25 14:27:47			0	35836	0	0	0	28740	27330	169732	27194	1055152	45124	110680	0	0	7992	630407	0	0
2024-07-25 14:28:47			0	35835	0	0	0	28742	27330	169684	27112	1055134	45134	110681	0	0	7992	630449	0	0
2024-07-25 14:29:47			0	35863	0	0	0	28737	27330	169661	27310	1055080	45124	110679	0	0	7994	629259	0	0
2024-07-25 14:30:47			0	35871	0	0	0	28748	27340	169597	26875	1055143	45125	110683	0	0	7994	628884	0	0
2024-07-25 14:31:47			0	35883	0	0	0	28761	27340	169577	27265	1055170	45125	110688	0	0	7995	628375	0	0
2024-07-25 14:32:47			0	35890	0	0	0	28758	27330	169585	27081	1055215	45124	110687	0	0	7995	628114	0	0
2024-07-25 14:33:47			0	35882	0	0	0	28766	27350	169545	26706	1055241	45137	110690	0	0	7995	628381	0	0
2024-07-25 14:34:47			0	35887	0	0	0	28766	27350	169449	27092	1055250	45149	110690	0	0	7995	628169	0	0
2024-07-25 14:35:47			0	35888	0	0	0	28771	27350	169381	27175	1055268	45149	110692	0	0	7995	628126	0	0
2024-07-25 14:36:47			0	35914	0	0	0	28776	27360	169333	27261	1055295	45150	110694	0	0	7996	626988	0	0
2024-07-25 14:37:47			0	35918	0	0	0	28763	27350	169337	27166	1055304	45126	110689	0	0	7997	626855	0	0
2024-07-25 14:38:47			0	35931	0	0	0	28768	27360	169377	27012	1055259	45126	110691	0	0	7998	626269	0	0
2024-07-25 14:39:47			0	35943	0	0	0	28781	27360	169269	27215	1055259	45116	110696	0	0	7998	625761	0	0
2024-07-25 14:40:47			0	35949	0	0	0	28763	27370	169189	27086	1055286	45128	110689	0	0	7999	625471	0	0
2024-07-25 14:41:47			0	35967	0	0	0	28737	27360	169137	26982	1055295	45150	110679	0	0	8000	624747	0	0
2024-07-25 14:42:47			0	35982	0	0	0	28761	27360	168949	26965	1055295	45117	110688	0	0	8001	624113	0	0
2024-07-25 14:43:47			0	35990	0	0	0	28776	27360	168941	26755	1055268	45150	110694	0	0	8001	623776	0	0
2024-07-25 14:44:47			0	36023	0	0	0	28774	27360	168937	27001	1055349	45150	110693	0	0	8003	622384	0	0
2024-07-25 14:45:47			0	36029	0	0	0	28763	27370	168905	27220	1055447	45128	110689	0	0	8004	622096	0	0
2024-07-25 14:46:47			0	36034	0	0	0	28753	27380	168901	26774	1055402	45118	110685	0	0	8004	621850	0	0
2024-07-25 14:47:47			0	36035	0	0	0	28763	27380	168985	26760	1055295	45128	110689	0	0	8004	621807	0	0
2024-07-25 14:48:47			0	36016	0	0	0	28761	27370	168833	27105	1055286	45128	110688	0	0	8003	622644	0	0
2024-07-25 14:49:47			0	36045	0	0	0	28745	27380	168881	26928	1055330	45140	110682	0	0	8005	621387	0	0
2024-07-25 14:50:47			0	36038	0	0	0	28745	27370	168905	26861	1055259	45128	110682	0	0	8005	621717	0	0
2024-07-25 14:51:47			0	36036	0	0	0	28732	27370	168697	27178	1055169	45151	110677	0	0	8005	621801	0	0
2024-07-25 14:52:47			0	36055	0	0	0	28732	27370	168797	27137	1055223	45128	110677	0	0	8006	621002	0	0
2024-07-25 14:53:47			0	36057	0	0	0	28740	27360	168677	27053	1055241	45117	110680	0	0	8006	620953	0	0
2024-07-25 14:54:47			0	36065	0	0	0	28690	27370	168569	27013	1055196	45118	110661	0	0	8007	620581	0	0
2024-07-25 14:55:47			0	36086	0	0	0	28638	27360	168569	27093	1055080	45083	110641	0	0	8009	619734	0	0
2024-07-25 14:56:47			0	36077	0	0	0	28657	27340	168433	27074	1055017	45103	110648	0	0	8008	620184	0	0
2024-07-25 14:57:47			0	36072	0	0	0	28662	27340	168701	27303	1054937	45092	110650	0	0	8008	620394	0	0
2024-07-25 14:58:47			0	36048	0	0	0	28664	27330	168693	27268	1055044	45124	110651	0	0	8006	621439	0	0
2024-07-25 14:59:47			0	36066	0	0	0	28646	27330	168713	26809	1054964	45113	110644	0	0	8008	620682	0	0
2024-07-25 15:00:47			0	36060	0	0	0	28664	27330	168641	27062	1054991	45113	110651	0	0	8007	620934	0	0
2024-07-25 15:01:47			0	36053	0	0	0	28685	27330	168821	27043	1055098	45113	110659	0	0	8006	621228	0	0
2024-07-25 15:02:47			0	36028	0	0	0	28701	27330	168857	26909	1055125	45124	110665	0	0	8005	622281	0	0
2024-07-25 15:03:47			0	36026	0	0	0	28729	27330	169097	26809	1055044	45124	110676	0	0	8004	622365	0	0
2024-07-25 15:04:47			0	35984	0	0	0	28745	27330	169109	27100	1055152	45146	110682	0	0	8001	624136	0	0
2024-07-25 15:05:47			0	35976	0	0	0	28758	27340	169157	26955	1055116	45135	110687	0	0	8000	624438	0	0
2024-07-25 15:06:47			0	35958	0	0	0	28745	27350	169257	27005	1055188	45149	110682	0	0	8000	625163	0	0
2024-07-25 15:07:47			0	35957	0	0	0	28740	27340	169277	26852	1055259	45148	110680	0	0	8000	625241	0	0
2024-07-25 15:08:47			0	35945	0	0	0	28758	27350	169173	27275	1055295	45149	110687	0	0	7999	625712	0	0
2024-07-25 15:09:47			0	35967	0	0	0	28768	27350	169129	27010	1055376	45160	110691	0	0	8000	624783	0	0
2024-07-25 15:10:47			0	35970	0	0	0	28784	27360	169085	27142	1055429	45138	110697	0	0	8000	624620	0	0
2024-07-25 15:11:47			0	35992	0	0	0	28766	27370	168997	27024	1055366	45139	110690	0	0	8001	623655	0	0
2024-07-25 15:12:47			0	36000	0	0	0	28768	27370	168913	27043	1055420	45118	110691	0	0	8002	623318	0	0
2024-07-25 15:13:47			0	36014	0	0	0	28774	27380	168921	27059	1055321	45128	110693	0	0	8003	622692	0	0
2024-07-25 15:14:47			0	36015	0	0	0	28802	27370	168873	26968	1055474	45162	110704	0	0	8002	622686	0	0
2024-07-25 15:15:47			0	36026	0	0	0	28810	27400	169041	26864	1055554	45165	110707	0	0	8003	622115	0	0
2024-07-25 15:16:47			0	36015	0	0	0	28779	27400	168853	26925	1055545	45153	110695	0	0	8003	622578	0	0
2024-07-25 15:17:47			0	36007	0	0	0	28768	27400	168881	26760	1055465	45141	110691	0	0	8002	622915	0	0
2024-07-25 15:18:47			0	36023	0	0	0	28761	27400	168837	27178	1055473	45120	110688	0	0	8004	622241	0	0
2024-07-25 15:19:47			0	36027	0	0	0	28786	27400	168937	27066	1055527	45131	110698	0	0	8003	622073	0	0
2024-07-25 15:20:47			0	35995	0	0	0	28854	27410	169005	26934	1055590	45143	110724	0	0	8000	623386	0	0
2024-07-25 15:21:47			0	35992	0	0	0	28836	27420	169065	26953	1055769	45166	110717	0	0	8000	623476	0	0
2024-07-25 15:22:47			0	35977	0	0	0	28815	27430	169045	27137	1055715	45158	110709	0	0	8000	624073	0	0
2024-07-25 15:23:47			0	36005	0	0	0	28812	27430	168965	27298	1055626	45157	110708	0	0	8002	622892	0	0
2024-07-25 15:24:47			0	35984	0	0	0	28851	27430	169033	27178	1055715	45135	110723	0	0	8000	623778	0	0
2024-07-25 15:25:47			0	36013	0	0	0	28797	27440	169061	26764	1055617	45135	110702	0	0	8003	622519	0	0
2024-07-25 15:26:47			0	36003	0	0	0	28768	27440	169101	27116	1055626	45124	110691	0	0	8002	622941	0	0
2024-07-25 15:27:47			0	35977	0	0	0	28779	27430	169085	27112	1055545	45123	110695	0	0	8001	624073	0	0
2024-07-25 15:28:47			0	35993	0	0	0	28797	27430	169085	27211	1055635	45135	110702	0	0	8001	623398	0	0
2024-07-25 15:29:47			0	35965	0	0	0	28784	27430	169113	27135	1055572	45134	110697	0	0	8000	624580	0	0
2024-07-25 15:30:47			0	35979	0	0	0	28779	27440	169013	27203	1055670	45124	110695	0	0	8001	623953	0	0
2024-07-25 15:31:47			0	35990	0	0	0	28753	27440	169013	26948	1055563	45124	110685	0	0	8002	623489	0	0
2024-07-25 15:32:47			0	35976	0	0	0	28735	27420	169089	27033	1055482	45111	110678	0	0	8001	624151	0	0
2024-07-25 15:33:47			0	35959	0	0	0	28766	27420	169161	26686	1055500	45111	110690	0	0	8000	624869	0	0
2024-07-25 15:34:47			0	35945	0	0	0	28807	27420	169221	26996	1055554	45122	110706	0	0	7998	625461	0	0
2024-07-25 15:35:47			0	35938	0	0	0	28820	27420	169293	27083	1055563	45144	110711	0	0	7997	625757	0	0
2024-07-25 15:36:47			0	35945	0	0	0	28805	27420	169285	26890	1055581	45133	110705	0	0	7998	625461	0	0
2024-07-25 15:37:47			0	35957	0	0	0	28812	27430	169265	27182	1055599	45123	110708	0	0	7999	624918	0	0
2024-07-25 15:38:47			0	35975	0	0	0	28810	27430	169045	26967	1055662	45135	110707	0	0	8000	624158	0	0
2024-07-25 15:39:47			0	35983	0	0	0	28815	27440	169061	27168	1055590	45135	110709	0	0	8000	623784	0	0
2024-07-25 15:40:47			0	35996	0	0	0	28828	27440	169101	26953	1055724	45135	110714	0	0	8001	623236	0	0
2024-07-25 15:41:47			0	36007	0	0	0	28815	27430	168933	27059	1055662	45135	110709	0	0	8002	622808	0	0
2024-07-25 15:42:47			0	36022	0	0	0	28820	27440	168885	27001	1055706	45135	110711	0	0	8003	622140	0	0
2024-07-25 15:43:47			0	36040	0	0	0	28818	27440	168829	27046	1055733	45135	110710	0	0	8004	621383	0	0
2024-07-25 15:44:47			0	36049	0	0	0	28794	27440	168797	26842	1055733	45135	110701	0	0	8005	621004	0	0
2024-07-25 15:45:47			0	36049	0	0	0	28805	27440	168849	26996	1055617	45135	110705	0	0	8005	621004	0	0
2024-07-25 15:46:47			0	36033	0	0	0	28820	27440	168829	26915	1055706	45158	110711	0	0	8003	621677	0	0
2024-07-25 15:47:47			0	36020	0	0	0	28802	27450	168933	26975	1055715	45147	110704	0	0	8003	622189	0	0
2024-07-25 15:48:47			0	36028	0	0	0	28812	27450	168861	26948	1055715	45136	110708	0	0	8003	621852	0	0
2024-07-25 15:49:47			0	36031	0	0	0	28818	27440	168825	27293	1055706	45135	110710	0	0	8003	621761	0	0
2024-07-25 15:50:47			0	36041	0	0	0	28825	27450	168721	26960	1055742	45136	110713	0	0	8004	621305	0	0
2024-07-25 15:51:47			0	36030	0	0	0	28807	27440	168777	27102	1055706	45135	110706	0	0	8003	621804	0	0
2024-07-25 15:52:47			0	36046	0	0	0	28797	27450	168785	27083	1055697	45115	110702	0	0	8005	621094	0	0
2024-07-25 15:53:47			0	36058	0	0	0	28766	27440	168757	26934	1055572	45124	110690	0	0	8006	620626	0	0
2024-07-25 15:54:47			0	36044	0	0	0	28768	27440	168661	27053	1055563	45124	110691	0	0	8005	621214	0	0
2024-07-25 15:55:47			0	36042	0	0	0	28742	27430	168665	26864	1055500	45113	110681	0	0	8005	621334	0	0
2024-07-25 15:56:47			0	36050	0	0	0	28724	27410	168697	27144	1055429	45099	110674	0	0	8006	621069	0	0
2024-07-25 15:57:47			0	36031	0	0	0	28758	27410	168697	26982	1055438	45099	110687	0	0	8004	621869	0	0
2024-07-25 15:58:47			0	35994	0	0	0	28748	27400	168917	26863	1055411	45119	110683	0	0	8002	623464	0	0
2024-07-25 15:59:47			0	35986	0	0	0	28737	27400	168961	27033	1055357	45108	110679	0	0	8002	623801	0	0
2024-07-25 16:00:47			0	35970	0	0	0	28740	27390	169029	27111	1055447	45119	110680	0	0	8001	624512	0	0
2024-07-25 16:01:47			0	35944	0	0	0	28784	27390	169377	26913	1055375	45130	110697	0	0	7998	625611	0	0
2024-07-25 16:02:47			0	35903	0	0	0	28818	27390	169453	26977	1055536	45141	110710	0	0	7995	627346	0	0
2024-07-25 16:03:47			0	35925	0	0	0	28846	27410	169425	27001	1055617	45176	110721	0	0	7996	626343	0	0
2024-07-25 16:04:47			0	35918	0	0	0	28844	27430	169413	27157	1055733	45167	110720	0	0	7996	626567	0	0
2024-07-25 16:05:47			0	35946	0	0	0	28849	27430	169233	27065	1055742	45146	110722	0	0	7998	625383	0	0
2024-07-25 16:06:47			0	35946	0	0	0	28828	27440	169181	27052	1055787	45135	110714	0	0	7998	625347	0	0
2024-07-25 16:07:47			0	35992	0	0	0	28802	27440	169037	26970	1055760	45158	110704	0	0	8001	623405	0	0
2024-07-25 16:08:47			0	35999	0	0	0	28810	27430	169001	27171	1055715	45158	110707	0	0	8001	623145	0	0
2024-07-25 16:09:47			0	35993	0	0	0	28794	27450	168873	27104	1055769	45147	110701	0	0	8001	623327	0	0
2024-07-25 16:10:47			0	36010	0	0	0	28781	27450	168933	27171	1055661	45147	110696	0	0	8003	622610	0	0
2024-07-25 16:11:47			0	36003	0	0	0	28750	27440	168909	26949	1055590	45124	110684	0	0	8003	622941	0	0
2024-07-25 16:12:47			0	36011	0	0	0	28742	27430	168849	27343	1055527	45124	110681	0	0	8003	622639	0	0
2024-07-25 16:13:47			0	36013	0	0	0	28763	27420	168873	27209	1055563	45122	110689	0	0	8003	622591	0	0
2024-07-25 16:14:47			0	36000	0	0	0	28815	27430	168937	27196	1055599	45123	110709	0	0	8001	623103	0	0
2024-07-25 16:15:47			0	35985	0	0	0	28851	27430	169065	26942	1055742	45158	110723	0	0	8000	623736	0	0
2024-07-25 16:16:47			0	35998	0	0	0	28781	27430	168941	27182	1055680	45134	110696	0	0	8002	623187	0	0
2024-07-25 16:17:47			0	35986	0	0	0	28768	27430	168901	27071	1055581	45113	110691	0	0	8001	623693	0	0
2024-07-25 16:18:47			0	35997	0	0	0	28761	27420	168865	27064	1055482	45122	110688	0	0	8002	623265	0	0
2024-07-25 16:19:47			0	36002	0	0	0	28709	27420	168757	26816	1055393	45100	110668	0	0	8003	623055	0	0
2024-07-25 16:20:47			0	36039	0	0	0	28709	27410	168777	26845	1055348	45099	110668	0	0	8005	621532	0	0
2024-07-25 16:21:47			0	36019	0	0	0	28735	27400	168865	26746	1055357	45108	110678	0	0	8004	622410	0	0
2024-07-25 16:22:47			0	36000	0	0	0	28740	27390	169037	26883	1055348	45108	110680	0	0	8002	623246	0	0
2024-07-25 16:23:47			0	35988	0	0	0	28745	27380	169065	26923	1055375	45118	110682	0	0	8002	623788	0	0
2024-07-25 16:24:47			0	35983	0	0	0	28753	27380	169093	26682	1055384	45140	110685	0	0	8001	623999	0	0
2024-07-25 16:25:47			0	35956	0	0	0	28742	27390	169221	26779	1055420	45130	110681	0	0	8000	625104	0	0
2024-07-25 16:26:47			0	35953	0	0	0	28737	27380	169185	27052	1055348	45139	110679	0	0	8000	625266	0	0
2024-07-25 16:27:47			0	35948	0	0	0	28745	27390	169245	27142	1055393	45119	110682	0	0	7999	625442	0	0
2024-07-25 16:28:47			0	35968	0	0	0	28740	27390	169121	27118	1055393	45130	110680	0	0	8001	624597	0	0
2024-07-25 16:29:47			0	35984	0	0	0	28748	27390	169113	26913	1055402	45130	110683	0	0	8001	623921	0	0
2024-07-25 16:30:47			0	35990	0	0	0	28748	27390	169045	27067	1055375	45130	110683	0	0	8002	623668	0	0
2024-07-25 16:31:47			0	36004	0	0	0	28742	27390	168977	27447	1055393	45119	110681	0	0	8003	623078	0	0
2024-07-25 16:32:47			0	36019	0	0	0	28719	27390	169089	27369	1055348	45119	110672	0	0	8004	622445	0	0
2024-07-25 16:33:47			0	35991	0	0	0	28714	27390	169073	26901	1055339	45119	110670	0	0	8002	623626	0	0
2024-07-25 16:34:47			0	35952	0	0	0	28716	27380	169105	26844	1055348	45118	110671	0	0	8000	625309	0	0
2024-07-25 16:35:47			0	35946	0	0	0	28703	27370	169333	26859	1055340	45106	110666	0	0	8000	625598	0	0
2024-07-25 16:36:47			0	35935	0	0	0	28709	27370	169313	26991	1055286	45106	110668	0	0	7999	626063	0	0
2024-07-25 16:37:47			0	35914	0	0	0	28745	27360	169425	26840	1055295	45127	110682	0	0	7997	626988	0	0
2024-07-25 16:38:47			0	35898	0	0	0	28776	27360	169521	26741	1055349	45127	110694	0	0	7996	627666	0	0
2024-07-25 16:39:47			0	35873	0	0	0	28776	27390	169433	26826	1055366	45141	110694	0	0	7994	628618	0	0
2024-07-25 16:40:47			0	35870	0	0	0	28755	27380	169693	26797	1055483	45151	110686	0	0	7994	628782	0	0
2024-07-25 16:41:47			0	35862	0	0	0	28750	27390	169625	27126	1055501	45153	110684	0	0	7994	629085	0	0
2024-07-25 16:42:47			0	35869	0	0	0	28761	27390	169792	27137	1055483	45130	110688	0	0	7994	628788	0	0
2024-07-25 16:43:47			0	35848	0	0	0	28766	27400	169728	27067	1055491	45141	110690	0	0	7993	629643	0	0
2024-07-25 16:44:47			0	35859	0	0	0	28755	27390	169777	27287	1055447	45130	110686	0	0	7994	629212	0	0
2024-07-25 16:45:47			0	35855	0	0	0	28740	27390	169632	27126	1055402	45130	110680	0	0	7994	629382	0	0
2024-07-25 16:46:47			0	35875	0	0	0	28727	27390	169665	26890	1055366	45119	110675	0	0	7995	628533	0	0
2024-07-25 16:47:47			0	35870	0	0	0	28732	27380	169629	27281	1055348	45118	110677	0	0	7995	628782	0	0
2024-07-25 16:48:47			0	35903	0	0	0	28735	27380	169637	26890	1055384	45119	110678	0	0	7997	627382	0	0
2024-07-25 16:49:47			0	35888	0	0	0	28742	27380	169573	27055	1055321	45128	110681	0	0	7996	628018	0	0
2024-07-25 16:50:47			0	35894	0	0	0	28761	27380	169609	27034	1055411	45119	110688	0	0	7996	627764	0	0
2024-07-25 16:51:47			0	35883	0	0	0	28779	27370	169649	27255	1055393	45151	110695	0	0	7995	628266	0	0
2024-07-25 16:52:47			0	35914	0	0	0	28758	27370	169593	27001	1055474	45128	110687	0	0	7997	626952	0	0
2024-07-25 16:53:47			0	35897	0	0	0	28786	27400	169553	27083	1055518	45141	110698	0	0	7995	627564	0	0
2024-07-25 16:54:47			0	35883	0	0	0	28779	27400	169649	26849	1055465	45130	110695	0	0	7995	628158	0	0
2024-07-25 16:55:47			0	35897	0	0	0	28768	27400	169573	27190	1055554	45142	110691	0	0	7996	627564	0	0
2024-07-25 16:56:47			0	35917	0	0	0	28729	27400	169397	26946	1055491	45119	110676	0	0	7998	626717	0	0
2024-07-25 16:57:47			0	35947	0	0	0	28737	27380	169393	27102	1055411	45119	110679	0	0	7999	625520	0	0
2024-07-25 16:58:47			0	35972	0	0	0	28768	27380	169289	26960	1055411	45119	110691	0	0	8000	624464	0	0
2024-07-25 16:59:47			0	35978	0	0	0	28784	27390	169317	27005	1055483	45130	110697	0	0	8000	624175	0	0
2024-07-25 17:00:47			0	35970	0	0	0	28781	27380	169185	27128	1055465	45119	110696	0	0	8000	624548	0	0
2024-07-25 17:01:47			0	35992	0	0	0	28768	27390	169109	27092	1055483	45141	110691	0	0	8002	623584	0	0
2024-07-25 17:02:47			0	35996	0	0	0	28784	27390	169085	27000	1055483	45119	110697	0	0	8001	623415	0	0
2024-07-25 17:03:47			0	36008	0	0	0	28774	27390	169005	27275	1055456	45141	110693	0	0	8002	622909	0	0
2024-07-25 17:04:47			0	36041	0	0	0	28753	27390	168981	26927	1055456	45141	110685	0	0	8005	621519	0	0
2024-07-25 17:05:47			0	36062	0	0	0	28750	27390	168765	27303	1055510	45108	110684	0	0	8006	620636	0	0
2024-07-25 17:06:47			0	36072	0	0	0	28763	27390	168717	27289	1055483	45119	110689	0	0	8006	620216	0	0
2024-07-25 17:07:47			0	36072	0	0	0	28779	27400	168713	27024	1055500	45131	110695	0	0	8006	620180	0	0
2024-07-25 17:08:47			0	36078	0	0	0	28774	27400	168677	27076	1055465	45130	110693	0	0	8007	619928	0	0
2024-07-25 17:09:47			0	36088	0	0	0	28781	27390	168713	27220	1055483	45119	110696	0	0	8007	619543	0	0
2024-07-25 17:10:47			0	36081	0	0	0	28789	27400	168681	27204	1055518	45108	110699	0	0	8007	619802	0	0
2024-07-25 17:11:47			0	36089	0	0	0	28789	27400	168669	26883	1055500	45131	110699	0	0	8007	619466	0	0
2024-07-25 17:12:47			0	36081	0	0	0	28768	27390	168661	27168	1055510	45119	110691	0	0	8007	619837	0	0
2024-07-25 17:13:47			0	36089	0	0	0	28786	27400	168693	27066	1055527	45142	110698	0	0	8007	619466	0	0
2024-07-25 17:14:47			0	36084	0	0	0	28794	27400	168677	27059	1055554	45131	110701	0	0	8007	619676	0	0
2024-07-25 17:15:47			0	36096	0	0	0	28833	27410	168689	27083	1055653	45155	110716	0	0	8007	619136	0	0
2024-07-25 17:16:47			0	36078	0	0	0	28831	27420	168821	26937	1055662	45156	110715	0	0	8006	619857	0	0
2024-07-25 17:17:47			0	36104	0	0	0	28825	27430	168721	27296	1055742	45135	110713	0	0	8008	618730	0	0
2024-07-25 17:18:47			0	36101	0	0	0	28823	27420	168545	27114	1055751	45133	110712	0	0	8007	618891	0	0
2024-07-25 17:19:47			0	36124	0	0	0	28823	27420	168573	27145	1055644	45144	110712	0	0	8009	617926	0	0
2024-07-25 17:20:47			0	36130	0	0	0	28820	27420	168433	27208	1055698	45133	110711	0	0	8009	617675	0	0
2024-07-25 17:21:47			0	36154	0	0	0	28810	27430	168457	26991	1055653	45123	110707	0	0	8011	616635	0	0
2024-07-25 17:22:47			0	36154	0	0	0	28815	27430	168453	27215	1055715	45158	110709	0	0	8011	616635	0	0
2024-07-25 17:23:47			0	36166	0	0	0	28820	27430	168341	27072	1055715	45158	110711	0	0	8011	616133	0	0
2024-07-25 17:24:47			0	36165	0	0	0	28836	27440	168397	26927	1055805	45135	110717	0	0	8011	616139	0	0
2024-07-25 17:25:47			0	36172	0	0	0	28844	27440	168337	26948	1055778	45158	110720	0	0	8011	615846	0	0
2024-07-25 17:26:47			0	36180	0	0	0	28841	27440	168365	26873	1055787	45146	110719	0	0	8012	615512	0	0
2024-07-25 17:27:47			0	36195	0	0	0	28844	27440	168221	26899	1055760	45146	110720	0	0	8013	614885	0	0
2024-07-25 17:28:47			0	36204	0	0	0	28846	27440	168185	27007	1055751	45158	110721	0	0	8013	614509	0	0
2024-07-25 17:29:47			0	36192	0	0	0	28844	27440	168049	27190	1055787	45146	110720	0	0	8013	615010	0	0
2024-07-25 17:30:47			0	36206	0	0	0	28862	27450	168065	27034	1055778	45137	110727	0	0	8013	614390	0	0
2024-07-25 17:31:47			0	36194	0	0	0	28914	27460	168165	26968	1055903	45148	110747	0	0	8012	614856	0	0
2024-07-25 17:32:47			0	36175	0	0	0	28859	27460	168125	27105	1055957	45137	110726	0	0	8011	615650	0	0
2024-07-25 17:33:47			0	36162	0	0	0	28857	27470	168277	26961	1055912	45160	110725	0	0	8011	616158	0	0
2024-07-25 17:34:47			0	36144	0	0	0	28862	27470	168261	27124	1055948	45139	110727	0	0	8009	616911	0	0
2024-07-25 17:35:47			0	36140	0	0	0	28841	27470	168417	26974	1055948	45139	110719	0	0	8010	617079	0	0
2024-07-25 17:36:47			0	36097	0	0	0	28867	27470	168513	27150	1055921	45139	110729	0	0	8007	618881	0	0
2024-07-25 17:37:47			0	36094	0	0	0	28893	27470	168585	27353	1055975	45139	110739	0	0	8006	619007	0	0
2024-07-25 17:38:47			0	36067	0	0	0	28898	27480	168661	26960	1055993	45140	110741	0	0	8004	620105	0	0
2024-07-25 17:39:47			0	36064	0	0	0	28903	27490	168629	27152	1056064	45163	110743	0	0	8004	620195	0	0
2024-07-25 17:40:47			0	36076	0	0	0	28893	27490	168597	26733	1056091	45174	110739	0	0	8005	619691	0	0
2024-07-25 17:41:47			0	36083	0	0	0	28872	27500	168557	27041	1056100	45163	110731	0	0	8006	619361	0	0
2024-07-25 17:42:47			0	36114	0	0	0	28872	27490	168625	26861	1056091	45129	110731	0	0	8008	618097	0	0
2024-07-25 17:43:47			0	36100	0	0	0	28872	27500	168565	27150	1056082	45164	110731	0	0	8007	618648	0	0
2024-07-25 17:44:47			0	36093	0	0	0	28885	27500	168485	27222	1056055	45164	110736	0	0	8006	618942	0	0
2024-07-25 17:45:47			0	36099	0	0	0	28909	27500	168465	27045	1056073	45141	110745	0	0	8006	618690	0	0
2024-07-25 17:46:47			0	36097	0	0	0	28903	27500	168409	27097	1056109	45164	110743	0	0	8006	618774	0	0
2024-07-25 17:47:47			0	36094	0	0	0	28914	27500	168485	27156	1056163	45142	110747	0	0	8006	618900	0	0
2024-07-25 17:48:47			0	36094	0	0	0	28890	27500	168453	27227	1056136	45142	110738	0	0	8006	618900	0	0
2024-07-25 17:49:47			0	36088	0	0	0	28877	27500	168449	27057	1056100	45163	110733	0	0	8006	619152	0	0
2024-07-25 17:50:47			0	36115	0	0	0	28872	27510	168473	27182	1056118	45130	110731	0	0	8008	617984	0	0
2024-07-25 17:51:47			0	36114	0	0	0	28885	27510	168473	27138	1056118	45130	110736	0	0	8007	618026	0	0
2024-07-25 17:52:47			0	36097	0	0	0	28890	27500	168493	26824	1056073	45141	110738	0	0	8006	618774	0	0
2024-07-25 17:53:47			0	36100	0	0	0	28898	27510	168509	27015	1056127	45143	110741	0	0	8006	618613	0	0
2024-07-25 17:54:47			0	36107	0	0	0	28880	27500	168517	27088	1056055	45142	110734	0	0	8007	618355	0	0
2024-07-25 17:55:47			0	36127	0	0	0	28875	27500	168565	26602	1056082	45153	110732	0	0	8008	617517	0	0
2024-07-25 17:56:47			0	36124	0	0	0	28870	27500	168389	26812	1056046	45141	110730	0	0	8008	617642	0	0
2024-07-25 17:57:47			0	36138	0	0	0	28888	27500	168353	27109	1056046	45141	110737	0	0	8009	617056	0	0
2024-07-25 17:58:47			0	36180	0	0	0	28901	27500	168157	26878	1056100	45141	110742	0	0	8011	615299	0	0
2024-07-25 17:59:47			0	36195	0	0	0	28906	27500	168101	27001	1056109	45153	110744	0	0	8012	614673	0	0
2024-07-25 18:00:47			0	36184	0	0	0	28890	27510	168137	27154	1056037	45142	110738	0	0	8012	615097	0	0
2024-07-25 18:01:47			0	36198	0	0	0	28859	27500	168189	26870	1056019	45129	110726	0	0	8013	614548	0	0
2024-07-25 18:02:47			0	36182	0	0	0	28857	27500	168153	26890	1055974	45142	110725	0	0	8012	615216	0	0
2024-07-25 18:03:47			0	36177	0	0	0	28862	27490	168205	27265	1055956	45129	110727	0	0	8012	615460	0	0
2024-07-25 18:04:47			0	36176	0	0	0	28849	27490	168141	26710	1056001	45128	110722	0	0	8012	615502	0	0
2024-07-25 18:05:47			0	36197	0	0	0	28877	27490	168093	26977	1056010	45141	110733	0	0	8013	614625	0	0
2024-07-25 18:06:47			0	36216	0	0	0	28888	27490	168061	27003	1056010	45129	110737	0	0	8013	613832	0	0
2024-07-25 18:07:47			0	36250	0	0	0	28893	27490	167909	26996	1056064	45141	110739	0	0	8015	612415	0	0
2024-07-25 18:08:47			0	36268	0	0	0	28916	27500	167769	26961	1056109	45164	110748	0	0	8016	611630	0	0
2024-07-25 18:09:47			0	36275	0	0	0	28916	27500	167797	27017	1056109	45142	110748	0	0	8017	611339	0	0
2024-07-25 18:10:47			0	36275	0	0	0	28919	27500	167817	26989	1056136	45164	110749	0	0	8017	611339	0	0
2024-07-25 18:11:47			0	36295	0	0	0	28922	27500	167757	27253	1056189	45142	110750	0	0	8018	610508	0	0
2024-07-25 18:12:47			0	36271	0	0	0	28903	27510	167685	27086	1056171	45153	110743	0	0	8017	611471	0	0
2024-07-25 18:13:47			0	36289	0	0	0	28927	27510	167605	26996	1056207	45165	110752	0	0	8017	610722	0	0
2024-07-25 18:14:47			0	36300	0	0	0	28919	27510	167613	27074	1056153	45143	110749	0	0	8018	610265	0	0
2024-07-25 18:15:47			0	36288	0	0	0	28893	27520	167645	27031	1056135	45131	110739	0	0	8018	610729	0	0
2024-07-25 18:16:47			0	36297	0	0	0	28877	27510	167557	26963	1056153	45131	110733	0	0	8019	610390	0	0
2024-07-25 18:17:47			0	36320	0	0	0	28909	27520	167537	27265	1056162	45143	110745	0	0	8020	609400	0	0
2024-07-25 18:18:47			0	36349	0	0	0	28893	27510	167441	26875	1056091	45142	110739	0	0	8021	608232	0	0
2024-07-25 18:19:47			0	36347	0	0	0	28888	27510	167465	26786	1056073	45154	110737	0	0	8021	608315	0	0
2024-07-25 18:20:47			0	36351	0	0	0	28893	27510	167321	26852	1056091	45130	110739	0	0	8022	608149	0	0
2024-07-25 18:21:47			0	36359	0	0	0	28890	27500	167289	26989	1056073	45141	110738	0	0	8022	607853	0	0
2024-07-25 18:22:47			0	36368	0	0	0	28888	27500	167333	27313	1056055	45142	110737	0	0	8023	607480	0	0
2024-07-25 18:23:47			0	36383	0	0	0	28880	27510	167257	27203	1056118	45153	110734	0	0	8024	606824	0	0
2024-07-25 18:24:47			0	36352	0	0	0	28903	27500	167409	27409	1056109	45142	110743	0	0	8021	608143	0	0
2024-07-25 18:25:47			0	36346	0	0	0	28914	27510	167437	27131	1056198	45142	110747	0	0	8021	608356	0	0
2024-07-25 18:26:47			0	36316	0	0	0	28919	27510	167485	27197	1056145	45142	110749	0	0	8019	609601	0	0
2024-07-25 18:27:47			0	36297	0	0	0	28924	27510	167689	26996	1056127	45143	110751	0	0	8018	610390	0	0
2024-07-25 18:28:47			0	36291	0	0	0	28927	27510	167701	27220	1056100	45165	110752	0	0	8017	610639	0	0
2024-07-25 18:29:47			0	36292	0	0	0	28932	27520	167701	26991	1056189	45176	110754	0	0	8017	610562	0	0
2024-07-25 18:30:47			0	36289	0	0	0	28922	27520	167733	27208	1056189	45165	110750	0	0	8017	610687	0	0
2024-07-25 18:31:47			0	36276	0	0	0	28919	27530	167765	27013	1056234	45133	110749	0	0	8017	611192	0	0
2024-07-25 18:32:47			0	36297	0	0	0	28929	27540	167673	27138	1056162	45156	110753	0	0	8018	610284	0	0
2024-07-25 18:33:47			0	36292	0	0	0	28932	27530	167761	26963	1056234	45144	110754	0	0	8018	610527	0	0
2024-07-25 18:34:47			0	36294	0	0	0	28924	27530	167753	26930	1056180	45144	110751	0	0	8018	610444	0	0
2024-07-25 18:35:47			0	36296	0	0	0	28922	27530	167589	27060	1056279	45166	110750	0	0	8018	610361	0	0
2024-07-25 18:36:47			0	36312	0	0	0	28916	27540	167501	26811	1056270	45166	110748	0	0	8019	609662	0	0
2024-07-25 18:37:47			0	36342	0	0	0	28916	27530	167373	26741	1056225	45155	110748	0	0	8021	608452	0	0
2024-07-25 18:38:47			0	36374	0	0	0	28916	27530	167249	26892	1056234	45156	110748	0	0	8023	607127	0	0
2024-07-25 18:39:47			0	36397	0	0	0	28903	27530	167077	27308	1056234	45133	110743	0	0	8024	606175	0	0
2024-07-25 18:40:47			0	36429	0	0	0	28911	27530	166969	27100	1056225	45143	110746	0	0	8026	604853	0	0
2024-07-25 18:41:47			0	36449	0	0	0	28909	27530	166925	27298	1056180	45133	110745	0	0	8027	604028	0	0
2024-07-25 18:42:47			0	36473	0	0	0	28914	27530	166773	27102	1056144	45143	110747	0	0	8029	603039	0	0
2024-07-25 18:43:47			0	36487	0	0	0	28909	27530	166817	27093	1056234	45166	110745	0	0	8030	602462	0	0
2024-07-25 18:44:47			0	36485	0	0	0	28916	27530	166753	26902	1056207	45156	110748	0	0	8029	602545	0	0
2024-07-25 18:45:47			0	36489	0	0	0	28919	27540	166789	27064	1056198	45167	110749	0	0	8030	602345	0	0
2024-07-25 18:46:47			0	36476	0	0	0	28924	27530	166801	27138	1056180	45144	110751	0	0	8029	602915	0	0
2024-07-25 18:47:47			0	36476	0	0	0	28919	27530	166777	27043	1056261	45166	110749	0	0	8029	602915	0	0
2024-07-25 18:48:47			0	36472	0	0	0	28927	27540	166865	27131	1056216	45166	110752	0	0	8028	603045	0	0
2024-07-25 18:49:47			0	36456	0	0	0	28916	27530	166817	27227	1056279	45155	110748	0	0	8028	603739	0	0
2024-07-25 18:50:47			0	36442	0	0	0	28929	27540	166929	26967	1056216	45156	110753	0	0	8027	604282	0	0
2024-07-25 18:51:47			0	36427	0	0	0	28919	27530	166965	27064	1056261	45144	110749	0	0	8026	604936	0	0
2024-07-25 18:52:47			0	36415	0	0	0	28924	27530	167033	27147	1056225	45143	110751	0	0	8025	605431	0	0
2024-07-25 18:53:47			0	36399	0	0	0	28916	27530	167069	27031	1056207	45133	110748	0	0	8024	606093	0	0
2024-07-25 18:54:47			0	36388	0	0	0	28929	27530	167149	27156	1056261	45133	110753	0	0	8023	606548	0	0
2024-07-25 18:55:47			0	36380	0	0	0	28919	27540	167229	27213	1056270	45144	110749	0	0	8023	606844	0	0
2024-07-25 18:56:47			0	36355	0	0	0	28927	27540	167313	27093	1056252	45157	110752	0	0	8021	607879	0	0
2024-07-25 18:57:47			0	36359	0	0	0	28909	27540	167213	26764	1056243	45144	110745	0	0	8022	607713	0	0
2024-07-25 18:58:47			0	36361	0	0	0	28919	27530	167237	27069	1056234	45144	110749	0	0	8022	607665	0	0
2024-07-25 18:59:47			0	36369	0	0	0	28924	27540	167229	26960	1056243	45144	110751	0	0	8022	607299	0	0
2024-07-25 19:00:47			0	36368	0	0	0	28916	27520	167221	26556	1056189	45131	110748	0	0	8022	607410	0	0
2024-07-25 19:01:47			0	36368	0	0	0	28916	27510	167269	27131	1056145	45142	110748	0	0	8022	607445	0	0
2024-07-25 19:02:47			0	36368	0	0	0	28924	27530	167241	26767	1056198	45166	110751	0	0	8022	607375	0	0
2024-07-25 19:03:47			0	36352	0	0	0	28927	27530	167245	26583	1056252	45155	110752	0	0	8021	608038	0	0
2024-07-25 19:04:47			0	36342	0	0	0	28916	27530	167317	26873	1056225	45166	110748	0	0	8021	608452	0	0
2024-07-25 19:05:47			0	36345	0	0	0	28927	27540	167349	26753	1056243	45166	110752	0	0	8021	608293	0	0
2024-07-25 19:06:47			0	36330	0	0	0	28922	27530	167325	27013	1056261	45156	110750	0	0	8020	608950	0	0
2024-07-25 19:07:47			0	36309	0	0	0	28924	27540	167445	26989	1056279	45145	110751	0	0	8019	609786	0	0
2024-07-25 19:08:47			0	36316	0	0	0	28924	27530	167565	27225	1056234	45144	110751	0	0	8019	609531	0	0
2024-07-25 19:09:47			0	36301	0	0	0	28909	27530	167549	27216	1056207	45166	110745	0	0	8018	610153	0	0
2024-07-25 19:10:47			0	36292	0	0	0	28922	27540	167601	27119	1056216	45144	110750	0	0	8018	610492	0	0
2024-07-25 19:11:47			0	36296	0	0	0	28927	27530	167565	26840	1056252	45132	110752	0	0	8018	610361	0	0
2024-07-25 19:12:47			0	36276	0	0	0	28929	27530	167661	27083	1056207	45156	110753	0	0	8017	611192	0	0
2024-07-25 19:13:47			0	36266	0	0	0	28927	27530	167677	26868	1056261	45144	110752	0	0	8016	611608	0	0
2024-07-25 19:14:47			0	36289	0	0	0	28932	27540	167717	26845	1056270	45166	110754	0	0	8017	610617	0	0
2024-07-25 19:15:47			0	36288	0	0	0	28940	27540	167661	27074	1056270	45166	110757	0	0	8017	610658	0	0
2024-07-25 19:16:47			0	36297	0	0	0	28932	27530	167625	27183	1056261	45144	110754	0	0	8018	610319	0	0
2024-07-25 19:17:47			0	36282	0	0	0	28942	27540	167641	26993	1056306	45167	110758	0	0	8017	610908	0	0
2024-07-25 19:18:47			0	36287	0	0	0	28937	27530	167593	26901	1056252	45166	110756	0	0	8017	610735	0	0
2024-07-25 19:19:47			0	36298	0	0	0	28948	27530	167585	27081	1056279	45155	110760	0	0	8018	610278	0	0
2024-07-25 19:20:47			0	36308	0	0	0	28945	27540	167553	26960	1056378	45166	110759	0	0	8018	609828	0	0
2024-07-25 19:21:47			0	36316	0	0	0	28924	27540	167453	26764	1056270	45144	110751	0	0	8019	609495	0	0
2024-07-25 19:22:47			0	36312	0	0	0	28927	27540	167417	27119	1056324	45156	110752	0	0	8019	609662	0	0
2024-07-25 19:23:47			0	36322	0	0	0	28924	27550	167449	26857	1056315	45145	110751	0	0	8020	609212	0	0
2024-07-25 19:24:47			0	36332	0	0	0	28927	27540	167413	26765	1056252	45167	110752	0	0	8020	608832	0	0
2024-07-25 19:25:47			0	36319	0	0	0	28911	27540	167449	26745	1056216	45144	110746	0	0	8020	609371	0	0
2024-07-25 19:26:47			0	36322	0	0	0	28911	27530	167401	26842	1056306	45155	110746	0	0	8020	609282	0	0
2024-07-25 19:27:47			0	36308	0	0	0	28924	27530	167465	26942	1056279	45143	110751	0	0	8019	609863	0	0
2024-07-25 19:28:47			0	36315	0	0	0	28916	27530	167433	26918	1056207	45156	110748	0	0	8019	609572	0	0
2024-07-25 19:29:47			0	36311	0	0	0	28922	27530	167497	26913	1056261	45133	110750	0	0	8019	609738	0	0
2024-07-25 19:30:47			0	36320	0	0	0	28919	27520	167473	26667	1056189	45165	110749	0	0	8019	609400	0	0
2024-07-25 19:31:47			0	36303	0	0	0	28914	27530	167513	27072	1056288	45144	110747	0	0	8018	610070	0	0
2024-07-25 19:32:47			0	36295	0	0	0	28903	27530	167513	26729	1056225	45155	110743	0	0	8018	610403	0	0
2024-07-25 19:33:47			0	36305	0	0	0	28896	27530	167465	26831	1056198	45132	110740	0	0	8019	609987	0	0
2024-07-25 19:34:47			0	36309	0	0	0	28890	27530	167437	26828	1056234	45166	110738	0	0	8019	609821	0	0
2024-07-25 19:35:47			0	36291	0	0	0	28901	27530	167461	26791	1056261	45156	110742	0	0	8018	610569	0	0
2024-07-25 19:36:47			0	36288	0	0	0	28901	27520	167545	27017	1056189	45143	110742	0	0	8018	610729	0	0
2024-07-25 19:37:47			0	36285	0	0	0	28911	27510	167653	26954	1056180	45131	110746	0	0	8017	610888	0	0
2024-07-25 19:38:47			0	36273	0	0	0	28914	27500	167569	26927	1056189	45130	110747	0	0	8017	611423	0	0
2024-07-25 19:39:47			0	36264	0	0	0	28916	27510	167617	26934	1056180	45165	110748	0	0	8016	611762	0	0
2024-07-25 19:40:47			0	36247	0	0	0	28906	27520	167745	26785	1056243	45143	110744	0	0	8015	612434	0	0
2024-07-25 19:41:47			0	36255	0	0	0	28911	27510	167741	27150	1056207	45154	110746	0	0	8016	612136	0	0
2024-07-25 19:42:47			0	36245	0	0	0	28909	27520	167761	26864	1056189	45165	110745	0	0	8015	612518	0	0
2024-07-25 19:43:47			0	36241	0	0	0	28906	27500	167789	26922	1056163	45164	110744	0	0	8015	612755	0	0
2024-07-25 19:44:47			0	36239	0	0	0	28901	27520	167829	27154	1056189	45165	110742	0	0	8015	612767	0	0
2024-07-25 19:45:47			0	36248	0	0	0	28888	27510	167837	26963	1056127	45143	110737	0	0	8016	612428	0	0
2024-07-25 19:46:47			0	36225	0	0	0	28898	27500	167881	26918	1056100	45141	110741	0	0	8014	613421	0	0
2024-07-25 19:47:47			0	36197	0	0	0	28893	27510	167941	26875	1056118	45153	110739	0	0	8012	614554	0	0
2024-07-25 19:48:47			0	36200	0	0	0	28883	27510	167989	26762	1056171	45153	110735	0	0	8013	614429	0	0
2024-07-25 19:49:47			0	36174	0	0	0	28890	27500	168045	26804	1056136	45142	110738	0	0	8011	615550	0	0
2024-07-25 19:50:47			0	36170	0	0	0	28898	27490	168125	26904	1056091	45141	110741	0	0	8011	615753	0	0
2024-07-25 19:51:47			0	36149	0	0	0	28885	27490	168293	26864	1056091	45163	110736	0	0	8010	616631	0	0
2024-07-25 19:52:47			0	36148	0	0	0	28888	27490	168369	26984	1056145	45163	110737	0	0	8009	616673	0	0
2024-07-25 19:53:47			0	36130	0	0	0	28885	27490	168285	26970	1056091	45152	110736	0	0	8008	617426	0	0
2024-07-25 19:54:47			0	36116	0	0	0	28898	27490	168269	26675	1056064	45163	110741	0	0	8007	618013	0	0
2024-07-25 19:55:47			0	36113	0	0	0	28890	27490	168325	27090	1056145	45141	110738	0	0	8007	618139	0	0
2024-07-25 19:56:47			0	36125	0	0	0	28893	27490	168365	26691	1056082	45140	110739	0	0	8008	617636	0	0
2024-07-25 19:57:47			0	36115	0	0	0	28885	27480	168441	26953	1056073	45162	110736	0	0	8007	618090	0	0
2024-07-25 19:58:47			0	36110	0	0	0	28888	27490	168369	27121	1056055	45162	110737	0	0	8007	618264	0	0
2024-07-25 19:59:47			0	36120	0	0	0	28888	27490	168333	26726	1056109	45151	110737	0	0	8008	617845	0	0
2024-07-25 20:00:47			0	36123	0	0	0	28903	27490	168361	27145	1056109	45162	110743	0	0	8008	617720	0	0
2024-07-25 20:01:47			0	36100	0	0	0	28898	27490	168437	27015	1056109	45162	110741	0	0	8006	618684	0	0
2024-07-25 20:02:47			0	36097	0	0	0	28927	27490	168561	26521	1056145	45174	110752	0	0	8006	618810	0	0
2024-07-25 20:03:47			0	36081	0	0	0	28935	27500	168613	26927	1056270	45175	110755	0	0	8005	619445	0	0
2024-07-25 20:04:47			0	36067	0	0	0	28968	27500	168569	26776	1056243	45175	110768	0	0	8003	620033	0	0
2024-07-25 20:05:47			0	36058	0	0	0	28945	27510	168733	26703	1056279	45164	110759	0	0	8003	620376	0	0
2024-07-25 20:06:47			0	36044	0	0	0	28958	27510	168697	27022	1056288	45165	110764	0	0	8002	620964	0	0
2024-07-25 20:07:47			0	36033	0	0	0	28976	27520	168713	27112	1056324	45176	110771	0	0	8001	621391	0	0
2024-07-25 20:08:47			0	36034	0	0	0	28968	27530	168865	27012	1056333	45166	110768	0	0	8001	621313	0	0
2024-07-25 20:09:47			0	36034	0	0	0	28979	27530	168793	26847	1056306	45177	110772	0	0	8001	621313	0	0
2024-07-25 20:10:47			0	36040	0	0	0	28984	27540	168757	26776	1056413	45167	110774	0	0	8002	621025	0	0
2024-07-25 20:11:47			0	36025	0	0	0	28968	27540	168729	26757	1056431	45178	110768	0	0	8001	621656	0	0
2024-07-25 20:12:47			0	36022	0	0	0	28968	27550	168749	26968	1056395	45179	110768	0	0	8001	621747	0	0
2024-07-25 20:13:47			0	36021	0	0	0	28968	27550	168837	26778	1056449	45179	110768	0	0	8001	621789	0	0
2024-07-25 20:14:47			0	36028	0	0	0	28968	27540	168757	26870	1056467	45167	110768	0	0	8001	621530	0	0
2024-07-25 20:15:47			0	36028	0	0	0	28973	27550	168941	26852	1056395	45167	110770	0	0	8001	621494	0	0
2024-07-25 20:16:47			0	36002	0	0	0	28973	27550	168845	26809	1056422	45179	110770	0	0	7999	622589	0	0
2024-07-25 20:17:47			0	36000	0	0	0	28971	27550	168933	27218	1056458	45158	110769	0	0	7999	622673	0	0
2024-07-25 20:18:47			0	36008	0	0	0	28973	27550	168905	26576	1056458	45158	110770	0	0	8000	622336	0	0
2024-07-25 20:19:47			0	36000	0	0	0	28968	27560	169021	26807	1056467	45168	110768	0	0	7999	622637	0	0
2024-07-25 20:20:47			0	35994	0	0	0	28979	27550	169029	26691	1056404	45158	110772	0	0	7999	622926	0	0
2024-07-25 20:21:47			0	35992	0	0	0	28984	27550	168969	27027	1056458	45146	110774	0	0	7999	623010	0	0
2024-07-25 20:22:47			0	35989	0	0	0	28976	27570	168965	27020	1056485	45169	110771	0	0	7999	623065	0	0
2024-07-25 20:23:47			0	35969	0	0	0	28971	27560	168941	26654	1056449	45181	110769	0	0	7998	623944	0	0
2024-07-25 20:24:47			0	35979	0	0	0	28971	27560	169053	26876	1056476	45181	110769	0	0	7998	623522	0	0
2024-07-25 20:25:47			0	35984	0	0	0	28971	27560	169009	26984	1056476	45181	110769	0	0	7998	623312	0	0
2024-07-25 20:26:47			0	35953	0	0	0	28971	27560	169125	26750	1056476	45169	110769	0	0	7997	624620	0	0
2024-07-25 20:27:47			0	35923	0	0	0	28968	27560	169285	26762	1056494	45168	110768	0	0	7995	625887	0	0
2024-07-25 20:28:47			0	35912	0	0	0	28961	27560	169369	26948	1056440	45168	110765	0	0	7994	626352	0	0
2024-07-25 20:29:47			0	35895	0	0	0	28958	27540	169385	26835	1056467	45167	110764	0	0	7993	627144	0	0
2024-07-25 20:30:47			0	35895	0	0	0	28961	27560	169337	26842	1056467	45191	110765	0	0	7993	627072	0	0
2024-07-25 20:31:47			0	35873	0	0	0	28958	27550	169477	27059	1056404	45158	110764	0	0	7992	628040	0	0
2024-07-25 20:32:47			0	35854	0	0	0	28958	27560	169528	26748	1056494	45146	110764	0	0	7991	628810	0	0
2024-07-25 20:33:47			0	35851	0	0	0	28955	27560	169612	26448	1056449	45159	110763	0	0	7991	628937	0	0
2024-07-25 20:34:47			0	35842	0	0	0	28940	27550	169640	26724	1056350	45168	110757	0	0	7990	629355	0	0
2024-07-25 20:35:47			0	35851	0	0	0	28948	27560	169552	26935	1056467	45168	110760	0	0	7991	628937	0	0
2024-07-25 20:36:47			0	35853	0	0	0	28948	27550	169660	26745	1056431	45168	110760	0	0	7991	628888	0	0
2024-07-25 20:37:47			0	35843	0	0	0	28950	27550	169540	26772	1056422	45145	110761	0	0	7990	629313	0	0
2024-07-25 20:38:47			0	35850	0	0	0	28950	27550	169672	26802	1056404	45158	110761	0	0	7991	629015	0	0
2024-07-25 20:39:47			0	35829	0	0	0	28945	27540	169728	27024	1056413	45157	110759	0	0	7989	629943	0	0
2024-07-25 20:40:47			0	35849	0	0	0	28937	27550	169660	26835	1056342	45157	110756	0	0	7991	629058	0	0
2024-07-25 20:41:47			0	35833	0	0	0	28927	27540	169700	26923	1056360	45167	110752	0	0	7990	629773	0	0
2024-07-25 20:42:47			0	35829	0	0	0	28929	27540	169668	26838	1056360	45157	110753	0	0	7990	629943	0	0
2024-07-25 20:43:47			0	35816	0	0	0	28927	27540	169720	27057	1056306	45179	110752	0	0	7989	630496	0	0
2024-07-25 20:44:47			0	35822	0	0	0	28922	27540	169824	27237	1056333	45167	110750	0	0	7989	630241	0	0
2024-07-25 20:45:47			0	35802	0	0	0	28924	27530	169796	26951	1056234	45156	110751	0	0	7988	631127	0	0
2024-07-25 20:46:47			0	35789	0	0	0	28922	27530	170004	26968	1056288	45156	110750	0	0	7987	631680	0	0
2024-07-25 20:47:47			0	35783	0	0	0	28927	27530	169864	26949	1056315	45166	110752	0	0	7987	631936	0	0
2024-07-25 20:48:47			0	35786	0	0	0	28922	27540	169852	26934	1056324	45156	110750	0	0	7987	631772	0	0
2024-07-25 20:49:47			0	35807	0	0	0	28919	27530	169956	26693	1056315	45166	110749	0	0	7988	630915	0	0
2024-07-25 20:50:47			0	35800	0	0	0	28911	27530	169904	26932	1056288	45166	110746	0	0	7988	631212	0	0
2024-07-25 20:51:47			0	35827	0	0	0	28893	27530	169884	27039	1056279	45166	110739	0	0	7990	630065	0	0
2024-07-25 20:52:47			0	35816	0	0	0	28896	27530	169860	27067	1056198	45177	110740	0	0	7989	630532	0	0
2024-07-25 20:53:47			0	35837	0	0	0	28893	27530	169660	26885	1056252	45143	110739	0	0	7991	629640	0	0
2024-07-25 20:54:47			0	35826	0	0	0	28898	27520	169648	27039	1056216	45165	110741	0	0	7990	630143	0	0
2024-07-25 20:55:47			0	35845	0	0	0	28890	27520	169764	26783	1056189	45165	110738	0	0	7991	629336	0	0
2024-07-25 20:56:47			0	35849	0	0	0	28893	27510	169652	26894	1056234	45165	110739	0	0	7991	629203	0	0
2024-07-25 20:57:47			0	35827	0	0	0	28898	27510	169732	27045	1056198	45142	110741	0	0	7990	630137	0	0
2024-07-25 20:58:47			0	35835	0	0	0	28890	27500	169772	26852	1056243	45164	110738	0	0	7990	629833	0	0
2024-07-25 20:59:47			0	35836	0	0	0	28888	27510	169680	27253	1056198	45164	110737	0	0	7991	629755	0	0
2024-07-25 21:00:47			0	35843	0	0	0	28888	27510	169656	26994	1056145	45164	110737	0	0	7991	629457	0	0
2024-07-25 21:01:47			0	35837	0	0	0	28885	27510	169676	26790	1056171	45153	110736	0	0	7991	629712	0	0
2024-07-25 21:02:47			0	35834	0	0	0	28885	27500	169748	26875	1056189	45164	110736	0	0	7990	629876	0	0
2024-07-25 21:03:47			0	35809	0	0	0	28885	27500	169812	27026	1056163	45153	110736	0	0	7989	630939	0	0
2024-07-25 21:04:47			0	35800	0	0	0	28875	27490	169852	27060	1056118	45163	110732	0	0	7989	631358	0	0
2024-07-25 21:05:47			0	35787	0	0	0	28875	27500	169956	26804	1056073	45163	110732	0	0	7988	631875	0	0
2024-07-25 21:06:47			0	35784	0	0	0	28877	27500	170088	27093	1056109	45142	110733	0	0	7988	632002	0	0
2024-07-25 21:07:47			0	35779	0	0	0	28867	27490	170176	27053	1056091	45152	110729	0	0	7987	632252	0	0
2024-07-25 21:08:47			0	35749	0	0	0	28867	27480	169952	27086	1056100	45140	110729	0	0	7986	633567	0	0
2024-07-25 21:09:47			0	35750	0	0	0	28862	27490	170196	26837	1056064	45174	110727	0	0	7986	633488	0	0
2024-07-25 21:10:47			0	35733	0	0	0	28859	27490	170280	26902	1056028	45173	110726	0	0	7985	634213	0	0
2024-07-25 21:11:47			0	35753	0	0	0	28867	27490	170224	27109	1056055	45162	110729	0	0	7986	633360	0	0
2024-07-25 21:12:47			0	35756	0	0	0	28864	27480	170188	26828	1056064	45161	110728	0	0	7986	633268	0	0
2024-07-25 21:13:47			0	35746	0	0	0	28867	27460	170120	26826	1056038	45148	110729	0	0	7985	633768	0	0
2024-07-25 21:14:47			0	35756	0	0	0	28862	27470	170212	26925	1056020	45138	110727	0	0	7986	633305	0	0
2024-07-25 21:15:47			0	35767	0	0	0	28867	27470	170128	26960	1056002	45150	110729	0	0	7987	632836	0	0
2024-07-25 21:16:47			0	35760	0	0	0	28864	27480	170200	26750	1056037	45172	110728	0	0	7986	633098	0	0
2024-07-25 21:17:47			0	35747	0	0	0	28864	27470	170172	26712	1056047	45160	110728	0	0	7985	633689	0	0
2024-07-25 21:18:47			0	35754	0	0	0	28870	27470	170216	26675	1056073	45171	110730	0	0	7986	633390	0	0
2024-07-25 21:19:47			0	35752	0	0	0	28867	27460	170008	26828	1055984	45170	110729	0	0	7986	633512	0	0
2024-07-25 21:20:47			0	35749	0	0	0	28862	27470	170028	27202	1056020	45171	110727	0	0	7986	633603	0	0
2024-07-25 21:21:47			0	35752	0	0	0	28849	27460	170016	26925	1055957	45170	110722	0	0	7986	633512	0	0
2024-07-25 21:22:47			0	35719	0	0	0	28851	27460	170236	26934	1055984	45148	110723	0	0	7984	634921	0	0
2024-07-25 21:23:47			0	35708	0	0	0	28864	27470	170408	26665	1055939	45160	110728	0	0	7983	635354	0	0
2024-07-25 21:24:47			0	35690	0	0	0	28846	27460	170508	27015	1055921	45159	110721	0	0	7982	636161	0	0
2024-07-25 21:25:47			0	35690	0	0	0	28864	27460	170372	27118	1055957	45137	110728	0	0	7982	636161	0	0
2024-07-25 21:26:47			0	35693	0	0	0	28846	27460	170524	26852	1055921	45159	110721	0	0	7982	636032	0	0
2024-07-25 21:27:47			0	35685	0	0	0	28841	27460	170476	26948	1056002	45170	110719	0	0	7982	636375	0	0
2024-07-25 21:28:47			0	35683	0	0	0	28836	27450	170380	26724	1055939	45159	110717	0	0	7982	636497	0	0
2024-07-25 21:29:47			0	35695	0	0	0	28833	27450	170488	26767	1055912	45159	110716	0	0	7983	635983	0	0
2024-07-25 21:30:47			0	35674	0	0	0	28828	27450	170552	27005	1055885	45159	110714	0	0	7981	636882	0	0
2024-07-25 21:31:47			0	35648	0	0	0	28812	27450	170596	26939	1055885	45170	110708	0	0	7980	637996	0	0
2024-07-25 21:32:47			0	35630	0	0	0	28810	27450	170736	26854	1055903	45158	110707	0	0	7979	638768	0	0
2024-07-25 21:33:47			0	35594	0	0	0	28812	27430	170856	26861	1055796	45135	110708	0	0	7977	640388	0	0
2024-07-25 21:34:47			0	35552	0	0	0	28805	27440	171060	26765	1055841	45135	110705	0	0	7974	642159	0	0
2024-07-25 21:35:47			0	35521	0	0	0	28807	27420	171236	26783	1055751	45156	110706	0	0	7972	643570	0	0
2024-07-25 21:36:47			0	35508	0	0	0	28792	27430	171316	27019	1055841	45157	110700	0	0	7972	644094	0	0
2024-07-25 21:37:47			0	35481	0	0	0	28789	27420	171568	26960	1055751	45133	110699	0	0	7970	645297	0	0
2024-07-25 21:38:47			0	35467	0	0	0	28784	27430	171400	27066	1055733	45145	110697	0	0	7969	645866	0	0
2024-07-25 21:39:47			0	35487	0	0	0	28755	27420	171492	26932	1055716	45156	110686	0	0	7971	645038	0	0
2024-07-25 21:40:47			0	35489	0	0	0	28753	27420	171476	26967	1055716	45133	110685	0	0	7971	644951	0	0
2024-07-25 21:41:47			0	35498	0	0	0	28742	27410	171384	27118	1055599	45132	110681	0	0	7972	644600	0	0
2024-07-25 21:42:47			0	35518	0	0	0	28740	27400	171420	27007	1055599	45153	110680	0	0	7973	643773	0	0
2024-07-25 21:43:47			0	35529	0	0	0	28735	27400	171272	26901	1055581	45154	110678	0	0	7974	643298	0	0
2024-07-25 21:44:47			0	35569	0	0	0	28727	27390	171108	27104	1055590	45164	110675	0	0	7976	641611	0	0
2024-07-25 21:45:47			0	35568	0	0	0	28706	27380	170976	27001	1055537	45151	110667	0	0	7977	641691	0	0
2024-07-25 21:46:47			0	35614	0	0	0	28709	27380	170860	26937	1055483	45139	110668	0	0	7979	639713	0	0
2024-07-25 21:47:47			0	35640	0	0	0	28693	27370	170836	27206	1055420	45128	110662	0	0	7981	638633	0	0
2024-07-25 21:48:47			0	35628	0	0	0	28696	27370	170748	27083	1055447	45151	110663	0	0	7980	639148	0	0
2024-07-25 21:49:47			0	35637	0	0	0	28690	27360	170760	27216	1055402	45127	110661	0	0	7981	638798	0	0
2024-07-25 21:50:47			0	35660	0	0	0	28667	27350	170740	26804	1055412	45126	110652	0	0	7983	637848	0	0
2024-07-25 21:51:47			0	35660	0	0	0	28667	27350	170660	26996	1055385	45126	110652	0	0	7983	637848	0	0
2024-07-25 21:52:47			0	35665	0	0	0	28662	27340	170748	26949	1055286	45136	110650	0	0	7983	637671	0	0
2024-07-25 21:53:47			0	35651	0	0	0	28659	27330	170760	26890	1055242	45134	110649	0	0	7982	638308	0	0
2024-07-25 21:54:47			0	35647	0	0	0	28667	27320	170868	27022	1055251	45134	110652	0	0	7982	638516	0	0
2024-07-25 21:55:47			0	35619	0	0	0	28672	27310	170948	27081	1055206	45133	110654	0	0	7980	639755	0	0
2024-07-25 21:56:47			0	35605	0	0	0	28683	27320	170932	27043	1055188	45123	110658	0	0	7979	640320	0	0
2024-07-25 21:57:47			0	35612	0	0	0	28677	27310	170996	26821	1055233	45144	110656	0	0	7979	640056	0	0
2024-07-25 21:58:47			0	35626	0	0	0	28680	27310	170932	26608	1055143	45122	110657	0	0	7980	639454	0	0
2024-07-25 21:59:47			0	35642	0	0	0	28662	27310	170924	26559	1055116	45144	110650	0	0	7982	638767	0	0
2024-07-25 22:00:47			0	35618	0	0	0	28672	27300	170824	26552	1055108	45133	110654	0	0	7980	639835	0	0
2024-07-25 22:01:47			0	35620	0	0	0	28672	27300	170932	26750	1055161	45144	110654	0	0	7980	639749	0	0
2024-07-25 22:02:47			0	35603	0	0	0	28680	27300	171056	26840	1055179	45143	110657	0	0	7979	640480	0	0
2024-07-25 22:03:47			0	35527	0	0	0	28672	27300	171340	26769	1055108	45155	110654	0	0	7974	643754	0	0
2024-07-25 22:04:47			0	35448	0	0	0	28657	27290	171836	26901	1055036	45142	110648	0	0	7970	647208	0	0
2024-07-25 22:05:47			0	35369	0	0	0	28618	27280	172104	26661	1054991	45142	110633	0	0	7965	650676	0	0
2024-07-25 22:06:47			0	35334	0	0	0	28618	27280	172496	26802	1054964	45120	110633	0	0	7963	652200	0	0
2024-07-25 22:07:47			0	35290	0	0	0	28623	27270	172616	26760	1054911	45128	110635	0	0	7960	654158	0	0
2024-07-25 22:08:47			0	35284	0	0	0	28628	27250	172672	27019	1054884	45116	110637	0	0	7960	654495	0	0
2024-07-25 22:09:47			0	35274	0	0	0	28625	27260	172864	27301	1054848	45128	110636	0	0	7959	654895	0	0
2024-07-25 22:10:47			0	35260	0	0	0	28607	27250	172896	27202	1054821	45126	110629	0	0	7959	655544	0	0
2024-07-25 22:11:47			0	35223	0	0	0	28602	27240	172896	27213	1054839	45137	110627	0	0	7956	657202	0	0
2024-07-25 22:12:47			0	35233	0	0	0	28589	27250	173012	26802	1054794	45137	110622	0	0	7957	656726	0	0
2024-07-25 22:13:47			0	35200	0	0	0	28576	27230	173124	26986	1054714	45114	110617	0	0	7955	658249	0	0
2024-07-25 22:14:47			0	35193	0	0	0	28566	27230	173124	26828	1054625	45102	110613	0	0	7955	658556	0	0
2024-07-25 22:15:47			0	35165	0	0	0	28558	27220	173292	26745	1054562	45135	110610	0	0	7953	659824	0	0
2024-07-25 22:16:47			0	35151	0	0	0	28548	27200	173304	26608	1054580	45132	110606	0	0	7952	660516	0	0
2024-07-25 22:17:47			0	35165	0	0	0	28548	27190	173340	26745	1054518	45111	110606	0	0	7953	659938	0	0
2024-07-25 22:18:47			0	35197	0	0	0	28527	27180	173244	26928	1054473	45110	110598	0	0	7956	658570	0	0
2024-07-25 22:19:47			0	35249	0	0	0	28503	27180	172828	26845	1054446	45098	110589	0	0	7959	656289	0	0
2024-07-25 22:20:47			0	35294	0	0	0	28511	27170	172728	26963	1054366	45130	110592	0	0	7962	654359	0	0
2024-07-25 22:21:47			0	35298	0	0	0	28524	27150	172696	26785	1054339	45118	110597	0	0	7962	654259	0	0
2024-07-25 22:22:47			0	35295	0	0	0	28493	27150	172616	26585	1054339	45107	110585	0	0	7962	654390	0	0
2024-07-25 22:23:47			0	35294	0	0	0	28488	27140	172724	26963	1054267	45117	110583	0	0	7962	654471	0	0
2024-07-25 22:24:47			0	35285	0	0	0	28480	27140	172720	26618	1054213	45106	110580	0	0	7962	654865	0	0
2024-07-25 22:25:47			0	35257	0	0	0	28449	27140	172860	26955	1054151	45105	110568	0	0	7960	656090	0	0
2024-07-25 22:26:47			0	35226	0	0	0	28438	27130	173076	26896	1054133	45104	110564	0	0	7959	657486	0	0
2024-07-25 22:27:47			0	35178	0	0	0	28441	27110	173312	26955	1054026	45102	110565	0	0	7956	659669	0	0
2024-07-25 22:28:47			0	35167	0	0	0	28431	27100	173436	26746	1053972	45112	110561	0	0	7955	660191	0	0
2024-07-25 22:29:47			0	35157	0	0	0	28423	27090	173464	26786	1053981	45111	110558	0	0	7954	660669	0	0
2024-07-25 22:30:47			0	35144	0	0	0	28431	27090	173476	26726	1054017	45100	110561	0	0	7953	661241	0	0
2024-07-25 22:31:47			0	35126	0	0	0	28441	27070	173660	26844	1053928	45121	110565	0	0	7952	662110	0	0
2024-07-25 22:32:47			0	35128	0	0	0	28428	27080	173620	26913	1053990	45132	110560	0	0	7952	661984	0	0
2024-07-25 22:33:47			0	35113	0	0	0	28425	27070	173615	27128	1054000	45109	110559	0	0	7951	662684	0	0
2024-07-25 22:34:47			0	35136	0	0	0	28428	27070	173592	27074	1053946	45109	110560	0	0	7953	661669	0	0
2024-07-25 22:35:47			0	35162	0	0	0	28428	27060	173376	27036	1053874	45130	110560	0	0	7954	660562	0	0
2024-07-25 22:36:47			0	35160	0	0	0	28433	27060	173472	26897	1053910	45130	110562	0	0	7954	660651	0	0
2024-07-25 22:37:47			0	35148	0	0	0	28431	27060	173480	26769	1053910	45120	110561	0	0	7954	661179	0	0
2024-07-25 22:38:47			0	35157	0	0	0	28428	27050	173548	27121	1053892	45119	110560	0	0	7954	660820	0	0
2024-07-25 22:39:47			0	35136	0	0	0	28423	27060	173604	26811	1053821	45120	110558	0	0	7953	661707	0	0
2024-07-25 22:40:47			0	35161	0	0	0	28415	27050	173456	26937	1053865	45129	110555	0	0	7955	660644	0	0
2024-07-25 22:41:47			0	35146	0	0	0	28410	27050	173444	27053	1053857	45096	110553	0	0	7954	661305	0	0
2024-07-25 22:42:47			0	35155	0	0	0	28412	27050	173544	27098	1053803	45129	110554	0	0	7954	660909	0	0
2024-07-25 22:43:47			0	35160	0	0	0	28428	27050	173540	26871	1053776	45129	110560	0	0	7954	660688	0	0
2024-07-25 22:44:47			0	35164	0	0	0	28441	27030	173508	26790	1053803	45117	110565	0	0	7954	660588	0	0
2024-07-25 22:45:47			0	35153	0	0	0	28436	27040	173496	26975	1053848	45128	110563	0	0	7954	661034	0	0
2024-07-25 22:46:47			0	35163	0	0	0	28420	27030	173620	26802	1053856	45117	110557	0	0	7954	660632	0	0
2024-07-25 22:47:47			0	35160	0	0	0	28418	27050	173612	26982	1053776	45096	110556	0	0	7954	660688	0	0
2024-07-25 22:48:47			0	35159	0	0	0	28399	27040	173548	27241	1053758	45128	110549	0	0	7955	660770	0	0
2024-07-25 22:49:47			0	35152	0	0	0	28384	27030	173504	27175	1053767	45104	110543	0	0	7954	661116	0	0
2024-07-25 22:50:47			0	35148	0	0	0	28376	27020	173432	26996	1053695	45116	110540	0	0	7954	661331	0	0
2024-07-25 22:51:47			0	35143	0	0	0	28376	27020	173608	26875	1053704	45116	110540	0	0	7954	661551	0	0
2024-07-25 22:52:47			0	35157	0	0	0	28374	27010	173548	27036	1053633	45115	110539	0	0	7955	660972	0	0
2024-07-25 22:53:47			0	35148	0	0	0	28384	27020	173656	27019	1053669	45126	110543	0	0	7954	661331	0	0
2024-07-25 22:54:47			0	35148	0	0	0	28407	27010	173632	27020	1053687	45115	110552	0	0	7954	661368	0	0
2024-07-25 22:55:47			0	35127	0	0	0	28407	27010	173688	26930	1053731	45136	110552	0	0	7952	662294	0	0
2024-07-25 22:56:47			0	35107	0	0	0	28399	27020	173639	26887	1053749	45138	110549	0	0	7951	663139	0	0
2024-07-25 22:57:47			0	35090	0	0	0	28457	27020	173883	27007	1053749	45138	110571	0	0	7949	663889	0	0
2024-07-25 22:58:47			0	35058	0	0	0	28514	27020	174115	27147	1053866	45149	110593	0	0	7946	665304	0	0
2024-07-25 22:59:47			0	35039	0	0	0	28529	27050	174175	26944	1054000	45163	110599	0	0	7945	666031	0	0
2024-07-25 23:00:47			0	35017	0	0	0	28519	27060	174143	26927	1054062	45153	110595	0	0	7944	666967	0	0
2024-07-25 23:01:47			0	35020	0	0	0	28503	27060	174251	27013	1054009	45153	110589	0	0	7944	666834	0	0
2024-07-25 23:02:47			0	35008	0	0	0	28436	27060	174271	26845	1053928	45130	110563	0	0	7945	667366	0	0
2024-07-25 23:03:47			0	35020	0	0	0	28405	27050	174231	26713	1053830	45119	110551	0	0	7946	666872	0	0
2024-07-25 23:04:47			0	34989	0	0	0	28379	27040	174359	26953	1053794	45095	110541	0	0	7944	668286	0	0
2024-07-25 23:05:47			0	34989	0	0	0	28355	27030	174479	26691	1053695	45094	110532	0	0	7945	668324	0	0
2024-07-25 23:06:47			0	34989	0	0	0	28340	27020	174311	27020	1053642	45104	110526	0	0	7945	668363	0	0
2024-07-25 23:07:47			0	34977	0	0	0	28335	27010	174303	26826	1053516	45091	110524	0	0	7944	668934	0	0
2024-07-25 23:08:47			0	35005	0	0	0	28322	27010	174287	26733	1053516	45103	110519	0	0	7946	667691	0	0
2024-07-25 23:09:47			0	35022	0	0	0	28329	27000	174235	26571	1053471	45113	110522	0	0	7947	666975	0	0
2024-07-25 23:10:47			0	35060	0	0	0	28340	26980	174035	26811	1053526	45112	110526	0	0	7949	665368	0	0
2024-07-25 23:11:47			0	35106	0	0	0	28332	26980	173847	26930	1053463	45111	110523	0	0	7952	663335	0	0
2024-07-25 23:12:47			0	35138	0	0	0	28342	26980	173660	27017	1053436	45111	110527	0	0	7954	661923	0	0
2024-07-25 23:13:47			0	35167	0	0	0	28348	26970	173496	27026	1053445	45110	110529	0	0	7956	660683	0	0
2024-07-25 23:14:47			0	35191	0	0	0	28366	26970	173356	26965	1053472	45087	110536	0	0	7957	659627	0	0
2024-07-25 23:15:47			0	35193	0	0	0	28371	26970	173456	26974	1053508	45133	110538	0	0	7957	659539	0	0
2024-07-25 23:16:47			0	35196	0	0	0	28376	26970	173384	26941	1053481	45111	110540	0	0	7957	659408	0	0
2024-07-25 23:17:47			0	35209	0	0	0	28368	26970	173368	26653	1053508	45111	110537	0	0	7958	658836	0	0
2024-07-25 23:18:47			0	35198	0	0	0	28376	26970	173392	26687	1053481	45122	110540	0	0	7957	659320	0	0
2024-07-25 23:19:47			0	35173	0	0	0	28384	26980	173512	26873	1053517	45122	110543	0	0	7955	660381	0	0
2024-07-25 23:20:47			0	35158	0	0	0	28379	26970	173464	26857	1053615	45111	110541	0	0	7955	661080	0	0
2024-07-25 23:21:47			0	35155	0	0	0	28376	26980	173452	26977	1053490	45122	110540	0	0	7954	661174	0	0
2024-07-25 23:22:47			0	35154	0	0	0	28361	26970	173608	27043	1053588	45122	110534	0	0	7955	661256	0	0
2024-07-25 23:23:47			0	35175	0	0	0	28348	26970	173476	27003	1053481	45122	110529	0	0	7956	660331	0	0
2024-07-25 23:24:47			0	35184	0	0	0	28329	26960	173448	26941	1053490	45110	110522	0	0	7957	659973	0	0
2024-07-25 23:25:47			0	35207	0	0	0	28324	26970	173336	26771	1053365	45110	110520	0	0	7959	658924	0	0
2024-07-25 23:26:47			0	35228	0	0	0	28314	26960	173268	26733	1053356	45087	110516	0	0	7960	658040	0	0
2024-07-25 23:27:47			0	35231	0	0	0	28309	26950	173280	26797	1053329	45108	110514	0	0	7960	657946	0	0
2024-07-25 23:28:47			0	35229	0	0	0	28316	26950	173304	26745	1053383	45108	110517	0	0	7960	658034	0	0
2024-07-25 23:29:47			0	35225	0	0	0	28316	26940	173132	26578	1053293	45085	110517	0	0	7960	658247	0	0
2024-07-25 23:30:47			0	35232	0	0	0	28314	26940	173280	26719	1053347	45119	110516	0	0	7960	657940	0	0
2024-07-25 23:31:47			0	35233	0	0	0	28322	26930	173288	26616	1053276	45083	110519	0	0	7960	657933	0	0
2024-07-25 23:32:47			0	35232	0	0	0	28314	26930	173268	26902	1053276	45106	110516	0	0	7960	657977	0	0
2024-07-25 23:33:47			0	35221	0	0	0	28316	26930	173188	26660	1053311	45107	110517	0	0	7959	658460	0	0
2024-07-25 23:34:47			0	35217	0	0	0	28311	26920	173312	26729	1053320	45106	110515	0	0	7959	658674	0	0
2024-07-25 23:35:47			0	35222	0	0	0	28324	26940	173196	26618	1053347	45119	110520	0	0	7959	658379	0	0
2024-07-25 23:36:47			0	35235	0	0	0	28335	26930	173200	26833	1053365	45107	110524	0	0	7960	657846	0	0
2024-07-25 23:37:47			0	35247	0	0	0	28329	26940	173120	26528	1053374	45108	110522	0	0	7961	657281	0	0
2024-07-25 23:38:47			0	35246	0	0	0	28329	26930	173084	26823	1053338	45107	110522	0	0	7961	657363	0	0
2024-07-25 23:39:47			0	35272	0	0	0	28329	26920	173092	26729	1053347	45106	110522	0	0	7962	656261	0	0
2024-07-25 23:40:47			0	35280	0	0	0	28329	26930	172932	26828	1053338	45118	110522	0	0	7963	655873	0	0
2024-07-25 23:41:47			0	35295	0	0	0	28335	26920	172896	27123	1053320	45128	110524	0	0	7964	655254	0	0
2024-07-25 23:42:47			0	35314	0	0	0	28311	26930	172820	26785	1053276	45106	110515	0	0	7965	654386	0	0
2024-07-25 23:43:47			0	35318	0	0	0	28314	26920	172776	27083	1053177	45105	110516	0	0	7965	654248	0	0
2024-07-25 23:44:47			0	35314	0	0	0	28298	26930	172804	26844	1053195	45095	110510	0	0	7965	654386	0	0
2024-07-25 23:45:47			0	35328	0	0	0	28303	26920	172780	27029	1053240	45128	110512	0	0	7966	653811	0	0
2024-07-25 23:46:47			0	35329	0	0	0	28301	26920	172780	27045	1053267	45106	110511	0	0	7966	653768	0	0
2024-07-25 23:47:47			0	35371	0	0	0	28303	26910	172600	26733	1053132	45093	110512	0	0	7969	651972	0	0
2024-07-25 23:48:47			0	35382	0	0	0	28311	26910	172360	27171	1053267	45093	110515	0	0	7969	651492	0	0
2024-07-25 23:49:47			0	35466	0	0	0	28314	26920	172104	26968	1053204	45105	110516	0	0	7975	647803	0	0
2024-07-25 23:50:47			0	35502	0	0	0	28303	26910	171920	26757	1053186	45082	110512	0	0	7977	646279	0	0
2024-07-25 23:51:47			0	35534	0	0	0	28309	26910	171760	26727	1053240	45104	110514	0	0	7979	644894	0	0
2024-07-25 23:52:47			0	35577	0	0	0	28303	26900	171532	27029	1053231	45116	110512	0	0	7982	643073	0	0
2024-07-25 23:53:47			0	35579	0	0	0	28306	26900	171488	27026	1053177	45104	110513	0	0	7982	642987	0	0
2024-07-25 23:54:47			0	35583	0	0	0	28298	26900	171584	26958	1053150	45116	110510	0	0	7982	642814	0	0
2024-07-25 23:55:47			0	35569	0	0	0	28306	26910	171556	26826	1053168	45116	110513	0	0	7981	643381	0	0
2024-07-25 23:56:47			0	35574	0	0	0	28306	26900	171636	27187	1053168	45092	110513	0	0	7981	643202	0	0
2024-07-25 23:57:47			0	35548	0	0	0	28293	26910	171644	27270	1053132	45116	110508	0	0	7980	644289	0	0
2024-07-25 23:58:47			0	35542	0	0	0	28293	26900	171688	27248	1053204	45116	110508	0	0	7980	644585	0	0
2024-07-25 23:59:47			0	35538	0	0	0	28290	26900	171728	27114	1053150	45104	110507	0	0	7979	644758	0	0
2024-07-26 00:00:47			0	35536	0	0	0	28288	26900	171676	27072	1053123	45104	110506	0	0	7979	644844	0	0
2024-07-26 00:01:47			0	35538	0	0	0	28285	26900	171724	27048	1053061	45115	110505	0	0	7979	644758	0	0
2024-07-26 00:02:47			0	35551	0	0	0	28277	26880	171644	26824	1053088	45113	110502	0	0	7980	644270	0	0
2024-07-26 00:03:47			0	35562	0	0	0	28264	26880	171680	27024	1053061	45113	110497	0	0	7981	643795	0	0
2024-07-26 00:04:47			0	35584	0	0	0	28251	26880	171424	27230	1053034	45101	110492	0	0	7983	642845	0	0
2024-07-26 00:05:47			0	35637	0	0	0	28251	26880	171292	27384	1053052	45101	110492	0	0	7986	640560	0	0
2024-07-26 00:06:47			0	35650	0	0	0	28244	26870	171228	27095	1053016	45113	110489	0	0	7987	640038	0	0
2024-07-26 00:07:47			0	35702	0	0	0	28241	26870	171004	27000	1052927	45100	110488	0	0	7990	637804	0	0
2024-07-26 00:08:47			0	35745	0	0	0	28236	26860	170744	27265	1052936	45099	110486	0	0	7993	635997	0	0
2024-07-26 00:09:47			0	35771	0	0	0	28223	26860	170680	26703	1052891	45099	110481	0	0	7995	634885	0	0
2024-07-26 00:10:47			0	35817	0	0	0	28215	26850	170456	26821	1052874	45111	110478	0	0	7997	632956	0	0
2024-07-26 00:11:47			0	35832	0	0	0	28218	26850	170432	27062	1052874	45099	110479	0	0	7998	632316	0	0
2024-07-26 00:12:47			0	35857	0	0	0	28228	26850	170444	26956	1052874	45099	110483	0	0	8000	631251	0	0
2024-07-26 00:13:47			0	35854	0	0	0	28225	26850	170264	26955	1052865	45098	110482	0	0	8000	631378	0	0
2024-07-26 00:14:47			0	35856	0	0	0	28228	26840	170253	27182	1052901	45086	110483	0	0	8000	631329	0	0
2024-07-26 00:15:47			0	35868	0	0	0	28220	26840	170169	27215	1052856	45120	110480	0	0	8000	630818	0	0
2024-07-26 00:16:47			0	35874	0	0	0	28220	26850	170157	27066	1052838	45087	110480	0	0	8001	630527	0	0
2024-07-26 00:17:47			0	35876	0	0	0	28223	26830	170113	27100	1052838	45119	110481	0	0	8001	630514	0	0
2024-07-26 00:18:47			0	35884	0	0	0	28233	26840	170093	27034	1052874	45097	110485	0	0	8001	630137	0	0
2024-07-26 00:19:47			0	35902	0	0	0	28223	26840	170101	26878	1052793	45097	110481	0	0	8002	629372	0	0
2024-07-26 00:20:47			0	35901	0	0	0	28212	26830	170041	26974	1052811	45096	110477	0	0	8003	629451	0	0
2024-07-26 00:21:47			0	35900	0	0	0	28223	26830	170089	27152	1052811	45108	110481	0	0	8002	629493	0	0
2024-07-26 00:22:47			0	35906	0	0	0	28225	26820	170025	26932	1052793	45095	110482	0	0	8003	629274	0	0
2024-07-26 00:23:47			0	35891	0	0	0	28212	26830	170089	26927	1052838	45085	110477	0	0	8002	629876	0	0
2024-07-26 00:24:47			0	35877	0	0	0	28212	26820	170181	27060	1052767	45095	110477	0	0	8001	630507	0	0
2024-07-26 00:25:47			0	35892	0	0	0	28210	26820	170117	26850	1052713	45107	110476	0	0	8002	629869	0	0
2024-07-26 00:26:47			0	35875	0	0	0	28210	26820	170197	26961	1052767	45118	110476	0	0	8001	630593	0	0
2024-07-26 00:27:47			0	35859	0	0	0	28199	26830	170233	26892	1052811	45096	110472	0	0	8000	631238	0	0
2024-07-26 00:28:47			0	35860	0	0	0	28197	26830	170249	27034	1052749	45108	110471	0	0	8000	631195	0	0
2024-07-26 00:29:47			0	35861	0	0	0	28197	26810	170285	26828	1052776	45094	110471	0	0	8000	631225	0	0
2024-07-26 00:30:47			0	35866	0	0	0	28197	26820	170253	27095	1052731	45106	110471	0	0	8001	630976	0	0
2024-07-26 00:31:47			0	35848	0	0	0	28202	26810	170356	27019	1052722	45094	110473	0	0	7999	631779	0	0
2024-07-26 00:32:47			0	35833	0	0	0	28207	26810	170396	27194	1052659	45106	110475	0	0	7998	632418	0	0
2024-07-26 00:33:47			0	35844	0	0	0	28199	26820	170492	27111	1052731	45094	110472	0	0	7999	631913	0	0
2024-07-26 00:34:47			0	35839	0	0	0	28197	26820	170388	27083	1052731	45117	110471	0	0	7999	632126	0	0
2024-07-26 00:35:47			0	35817	0	0	0	28207	26810	170512	27135	1052659	45094	110475	0	0	7997	633101	0	0
2024-07-26 00:36:47			0	35831	0	0	0	28202	26810	170464	26949	1052686	45106	110473	0	0	7998	632503	0	0
2024-07-26 00:37:47			0	35820	0	0	0	28192	26800	170540	27138	1052677	45116	110469	0	0	7998	633009	0	0
2024-07-26 00:38:47			0	35816	0	0	0	28189	26800	170576	26951	1052731	45105	110468	0	0	7998	633180	0	0
2024-07-26 00:39:47			0	35799	0	0	0	28192	26800	170472	27223	1052677	45105	110469	0	0	7997	633906	0	0
2024-07-26 00:40:47			0	35785	0	0	0	28197	26800	170548	26837	1052651	45083	110471	0	0	7996	634504	0	0
2024-07-26 00:41:47			0	35789	0	0	0	28184	26800	170672	26958	1052677	45093	110466	0	0	7996	634333	0	0
2024-07-26 00:42:47			0	35804	0	0	0	28184	26800	170632	27216	1052695	45092	110466	0	0	7997	633692	0	0
2024-07-26 00:43:47			0	35805	0	0	0	28173	26800	170628	26812	1052615	45082	110462	0	0	7997	633650	0	0
2024-07-26 00:44:47			0	35794	0	0	0	28179	26800	170556	27090	1052669	45092	110464	0	0	7996	634119	0	0
2024-07-26 00:45:47			0	35812	0	0	0	28176	26800	170620	27222	1052651	45105	110463	0	0	7998	633351	0	0
2024-07-26 00:46:47			0	35808	0	0	0	28171	26800	170560	27085	1052651	45105	110461	0	0	7997	633521	0	0
2024-07-26 00:47:47			0	35789	0	0	0	28181	26790	170504	26930	1052660	45104	110465	0	0	7996	634369	0	0
2024-07-26 00:48:47			0	35789	0	0	0	28179	26780	170584	27156	1052588	45091	110464	0	0	7996	634406	0	0
2024-07-26 00:49:47			0	35771	0	0	0	28171	26790	170668	27206	1052597	45115	110461	0	0	7995	635139	0	0
2024-07-26 00:50:47			0	35780	0	0	0	28189	26790	170604	27111	1052660	45104	110468	0	0	7995	634754	0	0
2024-07-26 00:51:47			0	35769	0	0	0	28199	26780	170636	27135	1052642	45091	110472	0	0	7994	635261	0	0
2024-07-26 00:52:47			0	35761	0	0	0	28205	26790	170700	26991	1052650	45104	110474	0	0	7994	635567	0	0
2024-07-26 00:53:47			0	35755	0	0	0	28212	26800	170776	27038	1052695	45104	110477	0	0	7993	635788	0	0
2024-07-26 00:54:47			0	35749	0	0	0	28215	26800	170788	27081	1052722	45115	110478	0	0	7993	636045	0	0
2024-07-26 00:55:47			0	35737	0	0	0	28212	26800	170852	27083	1052731	45105	110477	0	0	7992	636559	0	0
2024-07-26 00:56:47			0	35730	0	0	0	28205	26800	170856	26923	1052704	45105	110474	0	0	7992	636859	0	0
2024-07-26 00:57:47			0	35716	0	0	0	28189	26790	170872	27001	1052687	45092	110468	0	0	7991	637495	0	0
2024-07-26 00:58:47			0	35699	0	0	0	28197	26790	170920	27263	1052660	45092	110471	0	0	7990	638225	0	0
2024-07-26 00:59:47			0	35694	0	0	0	28202	26790	171052	27041	1052660	45115	110473	0	0	7990	638440	0	0
2024-07-26 01:00:47			0	35681	0	0	0	28210	26800	171132	26701	1052669	45104	110476	0	0	7989	638962	0	0
2024-07-26 01:01:47			0	35651	0	0	0	28197	26790	171272	26927	1052677	45092	110471	0	0	7987	640288	0	0
2024-07-26 01:02:47			0	35653	0	0	0	28202	26790	171228	26876	1052767	45104	110473	0	0	7987	640202	0	0
2024-07-26 01:03:47			0	35623	0	0	0	28194	26800	171388	26958	1052669	45104	110470	0	0	7986	641457	0	0
2024-07-26 01:04:47			0	35611	0	0	0	28199	26800	171432	26956	1052722	45092	110472	0	0	7985	641974	0	0
2024-07-26 01:05:47			0	35604	0	0	0	28192	26810	171524	27105	1052740	45117	110469	0	0	7985	642239	0	0
2024-07-26 01:06:47			0	35576	0	0	0	28197	26790	171576	27008	1052740	45092	110471	0	0	7983	643522	0	0
2024-07-26 01:07:47			0	35605	0	0	0	28202	26790	171560	26804	1052713	45092	110473	0	0	7984	642270	0	0
2024-07-26 01:08:47			0	35605	0	0	0	28194	26790	171508	26968	1052660	45104	110470	0	0	7985	642270	0	0
2024-07-26 01:09:47			0	35577	0	0	0	28192	26800	171572	26875	1052669	45104	110469	0	0	7983	643442	0	0
2024-07-26 01:10:47			0	35592	0	0	0	28205	26800	171480	26935	1052695	45071	110474	0	0	7984	642794	0	0
2024-07-26 01:11:47			0	35587	0	0	0	28212	26800	171616	26996	1052695	45104	110477	0	0	7983	643010	0	0
2024-07-26 01:12:47			0	35607	0	0	0	28218	26790	171452	27060	1052687	45104	110479	0	0	7984	642184	0	0
2024-07-26 01:13:47			0	35586	0	0	0	28215	26800	171524	26956	1052704	45105	110478	0	0	7983	643053	0	0
2024-07-26 01:14:47			0	35602	0	0	0	28207	26800	171544	26974	1052758	45105	110475	0	0	7984	642363	0	0
2024-07-26 01:15:47			0	35611	0	0	0	28212	26800	171556	27039	1052731	45105	110477	0	0	7985	641974	0	0
2024-07-26 01:16:47			0	35605	0	0	0	28199	26810	171432	27090	1052740	45094	110472	0	0	7985	642196	0	0
2024-07-26 01:17:47			0	35625	0	0	0	28202	26810	171400	27104	1052749	45117	110473	0	0	7986	641334	0	0
2024-07-26 01:18:47			0	35615	0	0	0	28202	26810	171468	27062	1052740	45106	110473	0	0	7985	641765	0	0
2024-07-26 01:19:47			0	35625	0	0	0	28197	26800	171464	26941	1052731	45116	110471	0	0	7986	641371	0	0
2024-07-26 01:20:47			0	35616	0	0	0	28199	26800	171284	26909	1052722	45092	110472	0	0	7985	641759	0	0
2024-07-26 01:21:47			0	35622	0	0	0	28199	26790	171400	26864	1052687	45092	110472	0	0	7985	641537	0	0
2024-07-26 01:22:47			0	35631	0	0	0	28189	26800	171488	27098	1052695	45104	110468	0	0	7986	641113	0	0
2024-07-26 01:23:47			0	35628	0	0	0	28181	26800	171468	27216	1052695	45092	110465	0	0	7986	641242	0	0
2024-07-26 01:24:47			0	35627	0	0	0	28173	26800	171364	27072	1052677	45093	110462	0	0	7986	641285	0	0
2024-07-26 01:25:47			0	35625	0	0	0	28171	26790	171404	26994	1052650	45071	110461	0	0	7986	641408	0	0
2024-07-26 01:26:47			0	35641	0	0	0	28173	26790	171384	26951	1052633	45082	110462	0	0	7987	640719	0	0
2024-07-26 01:27:47			0	35648	0	0	0	28166	26790	171344	26942	1052624	45082	110459	0	0	7988	640417	0	0
2024-07-26 01:28:47			0	35627	0	0	0	28173	26790	171324	26892	1052579	45071	110462	0	0	7986	641322	0	0
2024-07-26 01:29:47			0	35621	0	0	0	28171	26780	171360	26726	1052633	45091	110461	0	0	7986	641617	0	0
2024-07-26 01:30:47			0	35629	0	0	0	28155	26780	171472	26977	1052552	45091	110455	0	0	7987	641272	0	0
2024-07-26 01:31:47			0	35637	0	0	0	28158	26780	171388	26956	1052606	45091	110456	0	0	7987	640928	0	0
2024-07-26 01:32:47			0	35637	0	0	0	28155	26770	171424	26680	1052516	45102	110455	0	0	7987	640964	0	0
2024-07-26 01:33:47			0	35628	0	0	0	28145	26770	171372	26946	1052516	45091	110451	0	0	7987	641352	0	0
2024-07-26 01:34:47			0	35622	0	0	0	28142	26770	171376	26960	1052508	45102	110450	0	0	7986	641611	0	0
2024-07-26 01:35:47			0	35616	0	0	0	28140	26760	171504	27105	1052472	45068	110449	0	0	7986	641906	0	0
2024-07-26 01:36:47			0	35614	0	0	0	28137	26770	171428	27039	1052508	45102	110448	0	0	7986	641955	0	0
2024-07-26 01:37:47			0	35609	0	0	0	28140	26760	171456	26653	1052490	45100	110449	0	0	7986	642208	0	0
2024-07-26 01:38:47			0	35628	0	0	0	28150	26760	171436	26720	1052499	45101	110453	0	0	7987	641389	0	0
2024-07-26 01:39:47			0	35639	0	0	0	28155	26760	171384	26896	1052463	45100	110455	0	0	7987	640915	0	0
2024-07-26 01:40:47			0	35640	0	0	0	28145	26760	171364	26743	1052490	45100	110451	0	0	7987	640872	0	0
2024-07-26 01:41:47			0	35662	0	0	0	28145	26770	171352	26977	1052481	45102	110451	0	0	7989	639888	0	0
2024-07-26 01:42:47			0	35661	0	0	0	28148	26760	171312	26835	1052526	45101	110452	0	0	7989	639968	0	0
2024-07-26 01:43:47			0	35654	0	0	0	28140	26760	171220	26833	1052499	45101	110449	0	0	7988	640269	0	0
2024-07-26 01:44:47			0	35666	0	0	0	28142	26750	171228	26661	1052508	45099	110450	0	0	7989	639789	0	0
2024-07-26 01:45:47			0	35662	0	0	0	28142	26750	171340	26923	1052508	45099	110450	0	0	7989	639962	0	0
2024-07-26 01:46:47			0	35685	0	0	0	28148	26760	171220	27066	1052490	45089	110452	0	0	7990	638936	0	0
2024-07-26 01:47:47			0	35664	0	0	0	28145	26750	171220	27249	1052472	45088	110451	0	0	7989	639875	0	0
2024-07-26 01:48:47			0	35684	0	0	0	28140	26760	171280	26755	1052526	45101	110449	0	0	7990	638979	0	0
2024-07-26 01:49:47			0	35659	0	0	0	28145	26750	171288	27031	1052427	45088	110451	0	0	7988	640091	0	0
2024-07-26 01:50:47			0	35659	0	0	0	28142	26750	171284	26797	1052472	45099	110450	0	0	7989	640091	0	0
2024-07-26 01:51:47			0	35662	0	0	0	28148	26740	171212	27052	1052383	45110	110452	0	0	7989	639998	0	0
2024-07-26 01:52:47			0	35666	0	0	0	28145	26750	171256	26649	1052481	45088	110451	0	0	7989	639789	0	0
2024-07-26 01:53:47			0	35649	0	0	0	28140	26750	171280	26955	1052418	45088	110449	0	0	7988	640521	0	0
2024-07-26 01:54:47			0	35648	0	0	0	28148	26750	171248	26849	1052374	45099	110452	0	0	7988	640564	0	0
2024-07-26 01:55:47			0	35641	0	0	0	28145	26740	171368	27137	1052463	45088	110451	0	0	7987	640902	0	0
2024-07-26 01:56:47			0	35625	0	0	0	28137	26750	171452	26927	1052445	45088	110448	0	0	7987	641555	0	0
2024-07-26 01:57:47			0	35612	0	0	0	28132	26750	171368	26904	1052445	45088	110446	0	0	7986	642115	0	0
2024-07-26 01:58:47			0	35605	0	0	0	28135	26740	171496	26861	1052436	45077	110447	0	0	7985	642454	0	0
2024-07-26 01:59:47			0	35600	0	0	0	28137	26750	171532	26793	1052427	45110	110448	0	0	7985	642633	0	0
2024-07-26 02:00:47			0	35561	0	0	0	28132	26740	171772	26771	1052383	45088	110446	0	0	7983	644354	0	0
2024-07-26 02:01:47			0	35545	0	0	0	28135	26750	171908	26847	1052391	45088	110447	0	0	7982	645009	0	0
2024-07-26 02:02:47			0	35512	0	0	0	28129	26730	171992	27003	1052392	45086	110445	0	0	7980	646512	0	0
2024-07-26 02:03:47			0	35469	0	0	0	28135	26740	172132	26941	1052454	45098	110447	0	0	7977	648341	0	0
2024-07-26 02:04:47			0	35438	0	0	0	28124	26740	172280	26993	1052329	45066	110443	0	0	7975	649688	0	0
2024-07-26 02:05:47			0	35404	0	0	0	28129	26730	172512	27031	1052365	45097	110445	0	0	7973	651206	0	0
2024-07-26 02:06:47			0	35391	0	0	0	28119	26730	172564	27163	1052392	45086	110441	0	0	7972	651772	0	0
2024-07-26 02:07:47			0	35365	0	0	0	28124	26740	172676	26786	1052463	45077	110443	0	0	7971	652869	0	0
2024-07-26 02:08:47			0	35352	0	0	0	28119	26740	172712	26653	1052401	45076	110441	0	0	7970	653437	0	0
2024-07-26 02:09:47			0	35331	0	0	0	28127	26740	172748	26804	1052374	45098	110444	0	0	7968	654354	0	0
2024-07-26 02:10:47			0	35326	0	0	0	28132	26730	172940	26684	1052356	45097	110446	0	0	7968	654611	0	0
2024-07-26 02:11:47			0	35291	0	0	0	28124	26730	173024	26620	1052365	45097	110443	0	0	7966	656143	0	0
2024-07-26 02:12:47			0	35277	0	0	0	28129	26730	173164	26762	1052329	45097	110445	0	0	7965	656757	0	0
2024-07-26 02:13:47			0	35248	0	0	0	28122	26730	173264	26693	1052365	45097	110442	0	0	7963	658029	0	0
2024-07-26 02:14:47			0	35209	0	0	0	28124	26730	173308	26908	1052356	45086	110443	0	0	7961	659743	0	0
2024-07-26 02:15:47			0	35207	0	0	0	28124	26730	173476	26523	1052365	45086	110443	0	0	7961	659831	0	0
2024-07-26 02:16:47			0	35182	0	0	0	28124	26720	173652	26870	1052347	45097	110443	0	0	7959	660969	0	0
2024-07-26 02:17:47			0	35150	0	0	0	28124	26720	173604	26703	1052320	45086	110443	0	0	7957	662380	0	0
2024-07-26 02:18:47			0	35123	0	0	0	28122	26730	173984	26850	1052392	45086	110442	0	0	7955	663534	0	0
2024-07-26 02:19:47			0	35110	0	0	0	28111	26730	173912	26755	1052329	45086	110438	0	0	7955	664109	0	0
2024-07-26 02:20:47			0	35098	0	0	0	28111	26730	174052	26781	1052356	45086	110438	0	0	7954	664640	0	0
2024-07-26 02:21:47			0	35091	0	0	0	28111	26720	174015	26934	1052338	45085	110438	0	0	7954	664987	0	0
2024-07-26 02:22:47			0	35067	0	0	0	28116	26720	174203	26856	1052320	45086	110440	0	0	7952	666050	0	0
2024-07-26 02:23:47			0	35049	0	0	0	28111	26710	174259	26712	1052303	45095	110438	0	0	7951	666886	0	0
2024-07-26 02:24:47			0	35024	0	0	0	28116	26720	174391	26975	1052267	45097	110440	0	0	7949	667957	0	0
2024-07-26 02:25:47			0	35008	0	0	0	28109	26720	174483	26875	1052311	45107	110437	0	0	7948	668668	0	0
2024-07-26 02:26:47			0	34993	0	0	0	28122	26710	174531	27050	1052276	45106	110442	0	0	7947	669373	0	0
2024-07-26 02:27:47			0	34998	0	0	0	28111	26710	174487	26752	1052321	45095	110438	0	0	7948	669151	0	0
2024-07-26 02:28:47			0	34983	0	0	0	28111	26710	174535	26804	1052303	45084	110438	0	0	7947	669818	0	0
2024-07-26 02:29:47			0	34983	0	0	0	28114	26710	174703	26769	1052383	45084	110439	0	0	7947	669818	0	0
2024-07-26 02:30:47			0	34967	0	0	0	28119	26710	174635	26488	1052294	45095	110441	0	0	7946	670530	0	0
2024-07-26 02:31:47			0	34960	0	0	0	28106	26710	174679	26663	1052240	45095	110436	0	0	7945	670842	0	0
2024-07-26 02:32:47			0	34948	0	0	0	28103	26720	174747	27012	1052338	45085	110435	0	0	7945	671338	0	0
2024-07-26 02:33:47			0	34967	0	0	0	28106	26720	174671	26896	1052258	45096	110436	0	0	7946	670492	0	0
2024-07-26 02:34:47			0	34960	0	0	0	28109	26710	174571	26885	1052222	45095	110437	0	0	7945	670842	0	0
2024-07-26 02:35:47			0	34966	0	0	0	28111	26710	174631	27185	1052303	45084	110438	0	0	7946	670575	0	0
2024-07-26 02:36:47			0	34988	0	0	0	28114	26710	174651	27111	1052294	45084	110439	0	0	7947	669595	0	0
2024-07-26 02:37:47			0	34983	0	0	0	28109	26700	174551	27081	1052258	45095	110437	0	0	7947	669856	0	0
2024-07-26 02:38:47			0	34974	0	0	0	28103	26710	174539	27019	1052276	45095	110435	0	0	7946	670218	0	0
2024-07-26 02:39:47			0	34992	0	0	0	28111	26710	174563	26977	1052249	45095	110438	0	0	7947	669417	0	0
2024-07-26 02:40:47			0	34984	0	0	0	28103	26710	174631	26894	1052303	45095	110435	0	0	7947	669773	0	0
2024-07-26 02:41:47			0	35002	0	0	0	28103	26710	174475	27189	1052294	45084	110435	0	0	7948	668973	0	0
2024-07-26 02:42:47			0	34995	0	0	0	28106	26700	174459	27041	1052285	45095	110436	0	0	7947	669322	0	0
2024-07-26 02:43:47			0	34994	0	0	0	28096	26710	174551	26885	1052267	45084	110432	0	0	7948	669329	0	0
2024-07-26 02:44:47			0	35012	0	0	0	28098	26710	174419	26660	1052222	45084	110433	0	0	7949	668528	0	0
2024-07-26 02:45:47			0	35010	0	0	0	28096	26710	174455	26748	1052267	45084	110432	0	0	7949	668617	0	0
2024-07-26 02:46:47			0	35015	0	0	0	28101	26710	174399	27031	1052303	45095	110434	0	0	7949	668395	0	0
2024-07-26 02:47:47			0	35011	0	0	0	28109	26710	174423	26788	1052294	45095	110437	0	0	7949	668573	0	0
2024-07-26 02:48:47			0	35027	0	0	0	28103	26710	174363	26837	1052303	45095	110435	0	0	7950	667862	0	0
2024-07-26 02:49:47			0	35036	0	0	0	28111	26700	174283	27154	1052285	45084	110438	0	0	7950	667501	0	0
2024-07-26 02:50:47			0	35031	0	0	0	28098	26700	174259	26890	1052258	45095	110433	0	0	7950	667723	0	0
2024-07-26 02:51:47			0	35036	0	0	0	28103	26710	174335	26960	1052294	45095	110435	0	0	7950	667463	0	0
2024-07-26 02:52:47			0	35041	0	0	0	28106	26700	174355	26484	1052231	45095	110436	0	0	7950	667279	0	0
2024-07-26 02:53:47			0	35054	0	0	0	28116	26710	174227	26594	1052294	45084	110440	0	0	7951	666664	0	0
2024-07-26 02:54:47			0	35078	0	0	0	28114	26710	174091	26833	1052294	45095	110439	0	0	7953	665601	0	0
2024-07-26 02:55:47			0	35062	0	0	0	28114	26710	174091	26909	1052347	45084	110439	0	0	7952	666310	0	0
2024-07-26 02:56:47			0	35065	0	0	0	28122	26700	174055	26805	1052285	45095	110442	0	0	7952	666215	0	0
2024-07-26 02:57:47			0	35089	0	0	0	28111	26710	174075	26811	1052330	45095	110438	0	0	7953	665114	0	0
2024-07-26 02:58:47			0	35089	0	0	0	28106	26720	173987	26880	1052285	45085	110436	0	0	7954	665076	0	0
2024-07-26 02:59:47			0	35089	0	0	0	28114	26710	174063	26779	1052276	45095	110439	0	0	7953	665114	0	0
2024-07-26 03:00:47			0	35088	0	0	0	28111	26710	173999	26861	1052294	45106	110438	0	0	7953	665158	0	0
2024-07-26 03:01:47			0	35122	0	0	0	28127	26720	173888	26620	1052365	45107	110444	0	0	7955	663616	0	0
2024-07-26 03:02:47			0	35145	0	0	0	28127	26720	173816	26632	1052258	45096	110444	0	0	7957	662601	0	0
2024-07-26 03:03:47			0	35171	0	0	0	28145	26720	173656	26739	1052392	45096	110451	0	0	7958	661454	0	0
2024-07-26 03:04:47			0	35197	0	0	0	28132	26710	173372	26746	1052356	45095	110446	0	0	7960	660347	0	0
2024-07-26 03:05:47			0	35216	0	0	0	28135	26720	173240	26935	1052392	45096	110447	0	0	7961	659473	0	0
2024-07-26 03:06:47			0	35261	0	0	0	28135	26720	173184	27019	1052401	45097	110447	0	0	7964	657496	0	0
2024-07-26 03:07:47			0	35267	0	0	0	28145	26730	173140	26767	1052410	45097	110451	0	0	7964	657195	0	0
2024-07-26 03:08:47			0	35295	0	0	0	28148	26740	173080	27171	1052454	45087	110452	0	0	7966	655930	0	0
2024-07-26 03:09:47			0	35312	0	0	0	28148	26730	172944	26743	1052499	45120	110452	0	0	7967	655223	0	0
2024-07-26 03:10:47			0	35342	0	0	0	28137	26740	172948	26944	1052401	45109	110448	0	0	7969	653874	0	0
2024-07-26 03:11:47			0	35369	0	0	0	28158	26740	172728	26705	1052463	45110	110456	0	0	7970	652695	0	0
2024-07-26 03:12:47			0	35388	0	0	0	28153	26740	172488	26840	1052481	45098	110454	0	0	7972	651866	0	0
2024-07-26 03:13:47			0	35445	0	0	0	28153	26730	172256	26778	1052499	45097	110454	0	0	7975	649421	0	0
2024-07-26 03:14:47			0	35487	0	0	0	28153	26750	172048	26807	1052445	45110	110454	0	0	7978	647522	0	0
2024-07-26 03:15:47			0	35536	0	0	0	28153	26740	171828	27079	1052454	45087	110454	0	0	7981	645436	0	0
2024-07-26 03:16:47			0	35573	0	0	0	28142	26740	171632	27142	1052428	45098	110450	0	0	7983	643836	0	0
2024-07-26 03:17:47			0	35614	0	0	0	28142	26740	171424	27201	1052463	45099	110450	0	0	7986	642066	0	0
2024-07-26 03:18:47			0	35654	0	0	0	28140	26750	171324	26994	1052418	45088	110449	0	0	7988	640306	0	0
2024-07-26 03:19:47			0	35698	0	0	0	28142	26740	171184	26842	1052454	45087	110450	0	0	7991	638451	0	0
2024-07-26 03:20:47			0	35719	0	0	0	28145	26730	171084	26864	1052437	45108	110451	0	0	7992	637586	0	0
2024-07-26 03:21:47			0	35735	0	0	0	28145	26740	170912	26850	1052401	45109	110451	0	0	7993	636863	0	0
2024-07-26 03:22:47			0	35757	0	0	0	28148	26730	170760	27199	1052419	45108	110452	0	0	7994	635957	0	0
2024-07-26 03:23:47			0	35767	0	0	0	28135	26740	170596	27196	1052436	45122	110447	0	0	7995	635492	0	0
2024-07-26 03:24:47			0	35801	0	0	0	28137	26730	170608	26887	1052446	45108	110448	0	0	7997	634075	0	0
2024-07-26 03:25:47			0	35822	0	0	0	28148	26740	170256	26996	1052481	45087	110452	0	0	7998	633141	0	0
2024-07-26 03:26:47			0	35843	0	0	0	28140	26740	170344	27128	1052508	45087	110449	0	0	8000	632245	0	0
2024-07-26 03:27:47			0	35854	0	0	0	28145	26740	170285	27010	1052463	45110	110451	0	0	8000	631776	0	0
2024-07-26 03:28:47			0	35873	0	0	0	28148	26740	170289	26786	1052454	45098	110452	0	0	8001	630967	0	0
2024-07-26 03:29:47			0	35850	0	0	0	28142	26740	170428	26859	1052508	45098	110450	0	0	8000	631947	0	0
2024-07-26 03:30:47			0	35846	0	0	0	28137	26730	170360	27000	1052419	45108	110448	0	0	8000	632153	0	0
2024-07-26 03:31:47			0	35836	0	0	0	28135	26740	170408	26698	1052463	45099	110447	0	0	7999	632544	0	0
2024-07-26 03:32:47			0	35853	0	0	0	28145	26740	170332	27253	1052490	45088	110451	0	0	8000	631819	0	0
2024-07-26 03:33:47			0	35845	0	0	0	28135	26740	170364	26998	1052428	45087	110447	0	0	8000	632160	0	0
2024-07-26 03:34:47			0	35841	0	0	0	28142	26730	170328	26941	1052446	45097	110450	0	0	8000	632367	0	0
2024-07-26 03:35:47			0	35824	0	0	0	28150	26740	170384	27066	1052454	45109	110453	0	0	7998	633056	0	0
2024-07-26 03:36:47			0	35834	0	0	0	28153	26740	170420	26994	1052481	45109	110454	0	0	7999	632629	0	0
2024-07-26 03:37:47			0	35882	0	0	0	28153	26740	170217	27124	1052463	45099	110454	0	0	8002	630584	0	0
2024-07-26 03:38:47			0	35915	0	0	0	28148	26740	170137	26509	1052508	45109	110452	0	0	8004	629180	0	0
2024-07-26 03:39:47			0	35966	0	0	0	28150	26740	169841	26549	1052481	45109	110453	0	0	8007	627015	0	0
2024-07-26 03:40:47			0	35994	0	0	0	28150	26750	169717	26856	1052508	45110	110453	0	0	8009	625793	0	0
2024-07-26 03:41:47			0	36012	0	0	0	28145	26740	169561	26750	1052463	45088	110451	0	0	8010	625067	0	0
2024-07-26 03:42:47			0	36023	0	0	0	28148	26740	169549	26795	1052571	45099	110452	0	0	8011	624602	0	0
2024-07-26 03:43:47			0	36041	0	0	0	28137	26750	169425	27152	1052526	45099	110448	0	0	8012	623806	0	0
2024-07-26 03:44:47			0	36048	0	0	0	28148	26750	169385	26979	1052553	45099	110452	0	0	8012	623510	0	0
2024-07-26 03:45:47			0	36053	0	0	0	28142	26740	169445	27159	1052517	45110	110450	0	0	8013	623334	0	0
2024-07-26 03:46:47			0	36055	0	0	0	28145	26740	169501	26868	1052481	45109	110451	0	0	8013	623250	0	0
2024-07-26 03:47:47			0	36049	0	0	0	28135	26740	169377	27059	1052463	45066	110447	0	0	8012	623503	0	0
2024-07-26 03:48:47			0	36052	0	0	0	28127	26740	169385	26928	1052517	45110	110444	0	0	8013	623377	0	0
2024-07-26 03:49:47			0	36049	0	0	0	28124	26730	169541	27161	1052446	45086	110443	0	0	8013	623539	0	0
2024-07-26 03:50:47			0	36040	0	0	0	28103	26740	169457	26937	1052463	45088	110435	0	0	8012	623883	0	0
2024-07-26 03:51:47			0	36031	0	0	0	28116	26730	169561	27230	1052446	45086	110440	0	0	8012	624300	0	0
2024-07-26 03:52:47			0	36008	0	0	0	28114	26740	169645	27074	1052454	45087	110439	0	0	8010	625236	0	0
2024-07-26 03:53:47			0	36007	0	0	0	28111	26730	169709	26989	1052365	45086	110438	0	0	8010	625314	0	0
2024-07-26 03:54:47			0	36010	0	0	0	28122	26730	169621	27024	1052392	45097	110442	0	0	8010	625188	0	0
2024-07-26 03:55:47			0	35989	0	0	0	28124	26720	169753	26968	1052320	45108	110443	0	0	8009	626112	0	0
2024-07-26 03:56:47			0	35985	0	0	0	28135	26730	169689	27098	1052410	45120	110447	0	0	8008	626246	0	0
2024-07-26 03:57:47			0	36005	0	0	0	28132	26720	169733	27097	1052401	45086	110446	0	0	8010	625435	0	0
2024-07-26 03:58:47			0	36013	0	0	0	28129	26740	169601	26752	1052454	45098	110445	0	0	8010	625025	0	0
2024-07-26 03:59:47			0	36013	0	0	0	28124	26740	169509	26852	1052401	45109	110443	0	0	8010	625025	0	0
2024-07-26 04:00:47			0	36038	0	0	0	28137	26730	169541	26804	1052410	45108	110448	0	0	8012	624004	0	0
2024-07-26 04:01:47			0	36068	0	0	0	28132	26740	169461	27055	1052454	45087	110446	0	0	8014	622701	0	0
2024-07-26 04:02:47			0	36058	0	0	0	28140	26730	169365	26866	1052490	45097	110449	0	0	8013	623159	0	0
2024-07-26 04:03:47			0	36084	0	0	0	28137	26730	169341	26712	1052499	45097	110448	0	0	8014	622062	0	0
2024-07-26 04:04:47			0	36106	0	0	0	28148	26740	169233	26908	1052454	45087	110452	0	0	8016	621100	0	0
2024-07-26 04:05:47			0	36117	0	0	0	28140	26740	169061	26765	1052454	45098	110449	0	0	8016	620637	0	0
2024-07-26 04:06:47			0	36136	0	0	0	28140	26730	169049	26958	1052392	45097	110449	0	0	8018	619873	0	0
2024-07-26 04:07:47			0	36176	0	0	0	28137	26730	169033	26991	1052419	45086	110448	0	0	8020	618192	0	0
2024-07-26 04:08:47			0	36179	0	0	0	28137	26720	168893	26889	1052446	45096	110448	0	0	8020	618102	0	0
2024-07-26 04:09:47			0	36184	0	0	0	28127	26740	168929	26934	1052463	45088	110444	0	0	8021	617821	0	0
2024-07-26 04:10:47			0	36188	0	0	0	28137	26740	168873	26845	1052517	45099	110448	0	0	8021	617653	0	0
2024-07-26 04:11:47			0	36197	0	0	0	28127	26730	168825	26686	1052446	45097	110444	0	0	8021	617311	0	0
2024-07-26 04:12:47			0	36205	0	0	0	28119	26730	168865	27178	1052446	45108	110441	0	0	8022	616976	0	0
2024-07-26 04:13:47			0	36197	0	0	0	28111	26730	168881	27102	1052383	45075	110438	0	0	8022	617311	0	0
2024-07-26 04:14:47			0	36188	0	0	0	28106	26730	168933	26533	1052356	45097	110436	0	0	8021	617689	0	0
2024-07-26 04:15:47			0	36201	0	0	0	28116	26720	168889	26817	1052401	45086	110440	0	0	8022	617179	0	0
2024-07-26 04:16:47			0	36201	0	0	0	28114	26720	168853	26830	1052428	45097	110439	0	0	8022	617179	0	0
2024-07-26 04:17:47			0	36201	0	0	0	28114	26730	168813	26833	1052356	45108	110439	0	0	8022	617144	0	0
2024-07-26 04:18:47			0	36207	0	0	0	28119	26720	168885	26634	1052392	45107	110441	0	0	8022	616927	0	0
2024-07-26 04:19:47			0	36201	0	0	0	28124	26720	168841	27081	1052419	45085	110443	0	0	8022	617179	0	0
2024-07-26 04:20:47			0	36199	0	0	0	28132	26730	168841	27005	1052437	45086	110446	0	0	8021	617227	0	0
2024-07-26 04:21:47			0	36207	0	0	0	28129	26730	168745	26911	1052464	45086	110445	0	0	8022	616892	0	0
2024-07-26 04:22:47			0	36213	0	0	0	28129	26720	168857	26549	1052401	45097	110445	0	0	8022	616676	0	0
2024-07-26 04:23:47			0	36210	0	0	0	28129	26720	168745	26845	1052419	45096	110445	0	0	8022	616802	0	0
2024-07-26 04:24:47			0	36225	0	0	0	28119	26720	168765	26817	1052401	45086	110441	0	0	8023	616173	0	0
2024-07-26 04:25:47			0	36227	0	0	0	28129	26740	168745	26870	1052481	45098	110445	0	0	8023	616019	0	0
2024-07-26 04:26:47			0	36240	0	0	0	28122	26720	168785	26739	1052428	45086	110442	0	0	8024	615545	0	0
2024-07-26 04:27:47			0	36241	0	0	0	28124	26720	168617	26785	1052374	45097	110443	0	0	8024	615503	0	0
2024-07-26 04:28:47			0	36233	0	0	0	28122	26730	168697	26882	1052383	45086	110442	0	0	8024	615803	0	0
2024-07-26 04:29:47			0	36244	0	0	0	28116	26720	168597	27034	1052365	45096	110440	0	0	8024	615378	0	0
2024-07-26 04:30:47			0	36258	0	0	0	28116	26720	168485	27050	1052374	45097	110440	0	0	8025	614793	0	0
2024-07-26 04:31:47			0	36258	0	0	0	28111	26730	168497	27092	1052437	45086	110438	0	0	8025	614757	0	0
2024-07-26 04:32:47			0	36272	0	0	0	28114	26720	168489	26700	1052365	45107	110439	0	0	8026	614207	0	0
2024-07-26 04:33:47			0	36264	0	0	0	28114	26720	168473	27265	1052401	45086	110439	0	0	8026	614542	0	0
2024-07-26 04:34:47			0	36262	0	0	0	28111	26730	168597	26757	1052383	45097	110438	0	0	8026	614590	0	0
2024-07-26 04:35:47			0	36251	0	0	0	28101	26710	168569	26958	1052356	45084	110434	0	0	8025	615120	0	0
2024-07-26 04:36:47			0	36257	0	0	0	28103	26710	168609	26691	1052303	45084	110435	0	0	8025	614870	0	0
2024-07-26 04:37:47			0	36239	0	0	0	28085	26710	168641	26826	1052303	45095	110428	0	0	8025	615623	0	0
2024-07-26 04:38:47			0	36242	0	0	0	28093	26710	168681	26816	1052294	45062	110431	0	0	8025	615497	0	0
2024-07-26 04:39:47			0	36234	0	0	0	28085	26710	168637	26753	1052240	45095	110428	0	0	8024	615832	0	0
2024-07-26 04:40:47			0	36221	0	0	0	28093	26700	168741	26946	1052285	45095	110431	0	0	8023	616411	0	0
2024-07-26 04:41:47			0	36237	0	0	0	28088	26700	168673	26804	1052276	45094	110429	0	0	8024	615741	0	0
2024-07-26 04:42:47			0	36226	0	0	0	28085	26700	168677	26556	1052258	45095	110428	0	0	8024	616202	0	0
2024-07-26 04:43:47			0	36224	0	0	0	28085	26700	168781	26786	1052276	45072	110428	0	0	8024	616286	0	0
2024-07-26 04:44:47			0	36229	0	0	0	28088	26690	168845	26679	1052213	45083	110429	0	0	8024	616112	0	0
2024-07-26 04:45:47			0	36235	0	0	0	28085	26690	168757	26682	1052240	45104	110428	0	0	8024	615860	0	0
2024-07-26 04:46:47			0	36236	0	0	0	28085	26700	168685	26795	1052249	45094	110428	0	0	8024	615783	0	0
2024-07-26 04:47:47			0	36227	0	0	0	28085	26700	168785	26982	1052249	45072	110428	0	0	8024	616160	0	0
2024-07-26 04:48:47			0	36233	0	0	0	28085	26690	168685	27152	1052240	45093	110428	0	0	8024	615944	0	0
2024-07-26 04:49:47			0	36231	0	0	0	28070	26700	168621	26550	1052276	45105	110422	0	0	8024	615993	0	0
2024-07-26 04:50:47			0	36244	0	0	0	28072	26690	168589	26944	1052213	45083	110423	0	0	8025	615484	0	0
2024-07-26 04:51:47			0	36249	0	0	0	28077	26680	168717	26583	1052223	45092	110425	0	0	8025	615310	0	0
2024-07-26 04:52:47			0	36233	0	0	0	28051	26680	168625	26746	1052196	45070	110415	0	0	8025	615979	0	0
2024-07-26 04:53:47			0	36242	0	0	0	28059	26690	168665	26844	1052205	45082	110418	0	0	8025	615567	0	0
2024-07-26 04:54:47			0	36253	0	0	0	28062	26680	168677	26951	1052169	45092	110419	0	0	8026	615142	0	0
2024-07-26 04:55:47			0	36272	0	0	0	28064	26680	168597	26949	1052142	45082	110420	0	0	8027	614348	0	0
2024-07-26 04:56:47			0	36248	0	0	0	28062	26680	168697	27010	1052187	45082	110419	0	0	8025	615352	0	0
2024-07-26 04:57:47			0	36272	0	0	0	28054	26670	168581	26866	1052142	45080	110416	0	0	8027	614383	0	0
2024-07-26 04:58:47			0	36263	0	0	0	28051	26660	168465	26896	1052106	45068	110415	0	0	8026	614795	0	0
2024-07-26 04:59:47			0	36264	0	0	0	28054	26660	168665	26776	1052106	45080	110416	0	0	8026	614753	0	0
2024-07-26 05:00:47			0	36256	0	0	0	28057	26660	168469	26844	1052106	45090	110417	0	0	8026	615087	0	0
2024-07-26 05:01:47			0	36269	0	0	0	28062	26660	168553	27067	1052070	45102	110419	0	0	8027	614544	0	0
2024-07-26 05:02:47			0	36269	0	0	0	28064	26660	168589	27183	1052097	45090	110420	0	0	8026	614544	0	0
2024-07-26 05:03:47			0	36283	0	0	0	28067	26650	168505	27138	1052115	45101	110421	0	0	8027	613994	0	0
2024-07-26 05:04:47			0	36281	0	0	0	28075	26670	168549	26963	1052169	45080	110424	0	0	8027	614007	0	0
2024-07-26 05:05:47			0	36284	0	0	0	28057	26660	168481	27053	1052097	45080	110417	0	0	8027	613917	0	0
2024-07-26 05:06:47			0	36299	0	0	0	28067	26660	168421	26923	1052106	45090	110421	0	0	8028	613291	0	0
2024-07-26 05:07:47			0	36291	0	0	0	28070	26660	168521	26802	1052106	45090	110422	0	0	8028	613624	0	0
2024-07-26 05:08:47			0	36291	0	0	0	28064	26660	168461	26726	1052106	45080	110420	0	0	8028	613624	0	0
2024-07-26 05:09:47			0	36305	0	0	0	28064	26660	168481	26819	1052133	45080	110420	0	0	8029	613040	0	0
2024-07-26 05:10:47			0	36294	0	0	0	28062	26650	168465	26878	1052169	45067	110419	0	0	8028	613534	0	0
2024-07-26 05:11:47			0	36308	0	0	0	28072	26660	168377	26961	1052160	45068	110423	0	0	8029	612915	0	0
2024-07-26 05:12:47			0	36302	0	0	0	28067	26670	168417	26854	1052115	45102	110421	0	0	8028	613130	0	0
2024-07-26 05:13:47			0	36313	0	0	0	28070	26660	168433	27149	1052160	45080	110422	0	0	8029	612706	0	0
2024-07-26 05:14:47			0	36306	0	0	0	28067	26660	168537	26925	1052106	45080	110421	0	0	8029	612998	0	0
2024-07-26 05:15:47			0	36310	0	0	0	28075	26660	168317	26622	1052160	45080	110424	0	0	8029	612831	0	0
2024-07-26 05:16:47			0	36333	0	0	0	28072	26670	168373	27225	1052151	45091	110423	0	0	8030	611837	0	0
2024-07-26 05:17:47			0	36321	0	0	0	28080	26660	168297	26698	1052160	45102	110426	0	0	8029	612373	0	0
2024-07-26 05:18:47			0	36345	0	0	0	28083	26670	168213	26981	1052196	45090	110427	0	0	8031	611337	0	0
2024-07-26 05:19:47			0	36370	0	0	0	28083	26670	168221	27083	1052178	45103	110427	0	0	8032	610297	0	0
2024-07-26 05:20:47			0	36370	0	0	0	28080	26660	168097	26935	1052178	45090	110426	0	0	8032	610332	0	0
2024-07-26 05:21:47			0	36367	0	0	0	28070	26670	168081	26963	1052259	45103	110422	0	0	8032	610422	0	0
2024-07-26 05:22:47			0	36385	0	0	0	28062	26670	167989	26932	1052124	45091	110419	0	0	8034	609673	0	0
2024-07-26 05:23:47			0	36395	0	0	0	28064	26670	167873	27092	1052232	45081	110420	0	0	8034	609257	0	0
2024-07-26 05:24:47			0	36410	0	0	0	28057	26660	167905	26667	1052124	45090	110417	0	0	8035	608669	0	0
2024-07-26 05:25:47			0	36409	0	0	0	28067	26660	167917	27133	1052133	45090	110421	0	0	8035	608711	0	0
2024-07-26 05:26:47			0	36432	0	0	0	28057	26660	167821	26743	1052187	45080	110417	0	0	8036	607756	0	0
2024-07-26 05:27:47			0	36439	0	0	0	28046	26670	167753	27196	1052062	45102	110413	0	0	8037	607431	0	0
2024-07-26 05:28:47			0	36448	0	0	0	28051	26660	167737	27107	1052070	45057	110415	0	0	8037	607092	0	0
2024-07-26 05:29:47			0	36454	0	0	0	28038	26660	167673	26946	1052070	45080	110410	0	0	8038	606844	0	0
2024-07-26 05:30:47			0	36463	0	0	0	28038	26650	167685	26930	1052062	45089	110410	0	0	8039	606506	0	0
2024-07-26 05:31:47			0	36479	0	0	0	28044	26640	167689	26871	1052080	45088	110412	0	0	8039	605878	0	0
2024-07-26 05:32:47			0	36482	0	0	0	28038	26650	167621	27071	1052035	45089	110410	0	0	8040	605719	0	0
2024-07-26 05:33:47			0	36490	0	0	0	28036	26650	167601	26785	1052062	45067	110409	0	0	8040	605388	0	0
2024-07-26 05:34:47			0	36490	0	0	0	28028	26640	167573	26916	1052026	45078	110406	0	0	8040	605423	0	0
2024-07-26 05:35:47			0	36489	0	0	0	28033	26640	167513	26493	1052026	45078	110408	0	0	8040	605464	0	0
2024-07-26 05:36:47			0	36502	0	0	0	28033	26640	167413	26656	1052053	45088	110408	0	0	8041	604926	0	0
2024-07-26 05:37:47			0	36517	0	0	0	28025	26630	167501	26920	1052035	45088	110405	0	0	8042	604341	0	0
2024-07-26 05:38:47			0	36518	0	0	0	28028	26640	167477	26738	1052106	45078	110406	0	0	8042	604265	0	0
2024-07-26 05:39:47			0	36510	0	0	0	28031	26630	167349	27013	1051981	45078	110407	0	0	8041	604630	0	0
2024-07-26 05:40:47			0	36515	0	0	0	28023	26630	167449	26972	1051901	45067	110404	0	0	8042	604424	0	0
2024-07-26 05:41:47			0	36515	0	0	0	28020	26640	167345	26661	1051990	45078	110403	0	0	8042	604389	0	0
2024-07-26 05:42:47			0	36526	0	0	0	28025	26630	167477	26833	1051946	45087	110405	0	0	8042	603969	0	0
2024-07-26 05:43:47			0	36518	0	0	0	28020	26630	167417	27041	1051972	45077	110403	0	0	8042	604300	0	0
2024-07-26 05:44:47			0	36514	0	0	0	28018	26620	167409	26975	1051937	45076	110402	0	0	8042	604499	0	0
2024-07-26 05:45:47			0	36540	0	0	0	28012	26630	167469	26783	1051919	45087	110400	0	0	8043	603391	0	0
2024-07-26 05:46:47			0	36545	0	0	0	28025	26620	167477	26998	1051990	45086	110405	0	0	8043	603219	0	0
2024-07-26 05:47:47			0	36536	0	0	0	28018	26620	167321	27197	1051928	45085	110402	0	0	8043	603591	0	0
2024-07-26 05:48:47			0	36534	0	0	0	28020	26610	167497	26970	1051946	45085	110403	0	0	8043	603708	0	0
2024-07-26 05:49:47			0	36534	0	0	0	28023	26620	167337	26901	1051928	45085	110404	0	0	8043	603673	0	0
2024-07-26 05:50:47			0	36551	0	0	0	28012	26620	167413	27105	1051990	45086	110400	0	0	8044	602972	0	0
2024-07-26 05:51:47			0	36546	0	0	0	28018	26620	167277	26668	1051910	45076	110402	0	0	8044	603178	0	0
2024-07-26 05:52:47			0	36547	0	0	0	28018	26610	167361	27133	1051919	45097	110402	0	0	8044	603171	0	0
2024-07-26 05:53:47			0	36554	0	0	0	28023	26620	167329	26769	1051856	45086	110404	0	0	8044	602848	0	0
2024-07-26 05:54:47			0	36557	0	0	0	28020	26620	167249	26812	1051955	45085	110403	0	0	8044	602724	0	0
2024-07-26 05:55:47			0	36551	0	0	0	28025	26610	167229	27010	1051937	45085	110405	0	0	8044	603006	0	0
2024-07-26 05:56:47			0	36561	0	0	0	28015	26620	167177	26793	1051928	45085	110401	0	0	8045	602559	0	0
2024-07-26 05:57:47			0	36552	0	0	0	28023	26610	167249	27027	1051910	45075	110404	0	0	8044	602965	0	0
2024-07-26 05:58:47			0	36567	0	0	0	28015	26610	167273	26944	1051937	45097	110401	0	0	8045	602346	0	0
2024-07-26 05:59:47			0	36570	0	0	0	28007	26610	167205	26934	1051946	45097	110398	0	0	8045	602222	0	0
2024-07-26 06:00:47			0	36582	0	0	0	28002	26620	167169	26906	1051901	45085	110396	0	0	8046	601693	0	0
2024-07-26 06:01:47			0	36571	0	0	0	28005	26600	167137	26991	1051874	45084	110397	0	0	8045	602216	0	0
2024-07-26 06:02:47			0	36580	0	0	0	27992	26610	167173	26955	1051838	45052	110392	0	0	8046	601810	0	0
2024-07-26 06:03:47			0	36577	0	0	0	27994	26600	167121	26856	1051901	45084	110393	0	0	8046	601968	0	0
2024-07-26 06:04:47			0	36579	0	0	0	27984	26600	167141	26648	1051812	45083	110389	0	0	8046	601886	0	0
2024-07-26 06:05:47			0	36585	0	0	0	27992	26600	167197	26852	1051866	45083	110392	0	0	8046	601639	0	0
2024-07-26 06:06:47			0	36588	0	0	0	27989	26590	167093	26842	1051884	45073	110391	0	0	8047	601549	0	0
2024-07-26 06:07:47			0	36585	0	0	0	27984	26600	167069	26920	1051892	45073	110389	0	0	8046	601639	0	0
2024-07-26 06:08:47			0	36598	0	0	0	27974	26590	167138	26987	1051848	45083	110385	0	0	8047	601138	0	0
2024-07-26 06:09:47			0	36594	0	0	0	27971	26590	167170	26696	1051767	45073	110384	0	0	8047	601302	0	0
2024-07-26 06:10:47			0	36600	0	0	0	27968	26590	167054	27126	1051767	45083	110383	0	0	8048	601055	0	0
2024-07-26 06:11:47			0	36596	0	0	0	27968	26580	167094	27116	1051705	45083	110383	0	0	8047	601254	0	0
2024-07-26 06:12:47			0	36609	0	0	0	27961	26580	167118	27059	1051705	45083	110380	0	0	8048	600719	0	0
2024-07-26 06:13:47			0	36619	0	0	0	27966	26580	167058	26972	1051776	45071	110382	0	0	8049	600308	0	0
2024-07-26 06:14:47			0	36605	0	0	0	27961	26580	167118	26844	1051785	45083	110380	0	0	8048	600884	0	0
2024-07-26 06:15:47			0	36605	0	0	0	27966	26580	167042	27057	1051732	45072	110382	0	0	8048	600884	0	0
2024-07-26 06:16:47			0	36614	0	0	0	27961	26590	167054	26849	1051714	45083	110380	0	0	8049	600479	0	0
2024-07-26 06:17:47			0	36619	0	0	0	27955	26580	167102	27208	1051723	45082	110378	0	0	8049	600308	0	0
2024-07-26 06:18:47			0	36619	0	0	0	27961	26570	167050	26719	1051651	45071	110380	0	0	8049	600342	0	0
2024-07-26 06:19:47			0	36618	0	0	0	27961	26570	167106	26741	1051714	45082	110380	0	0	8049	600383	0	0
2024-07-26 06:20:47			0	36630	0	0	0	27958	26570	166970	26682	1051678	45082	110379	0	0	8049	599890	0	0
2024-07-26 06:21:47			0	36636	0	0	0	27953	26570	166966	26935	1051687	45071	110377	0	0	8050	599643	0	0
2024-07-26 06:22:47			0	36624	0	0	0	27958	26570	166994	26963	1051606	45082	110379	0	0	8049	600136	0	0
2024-07-26 06:23:47			0	36630	0	0	0	27950	26570	167018	27083	1051651	45082	110376	0	0	8050	599890	0	0
2024-07-26 06:24:47			0	36627	0	0	0	27945	26570	167050	26979	1051678	45071	110374	0	0	8049	600013	0	0
2024-07-26 06:25:47			0	36632	0	0	0	27958	26560	166938	26745	1051687	45080	110379	0	0	8050	599842	0	0
2024-07-26 06:26:47			0	36655	0	0	0	27945	26550	166922	27118	1051670	45080	110374	0	0	8051	598931	0	0
2024-07-26 06:27:47			0	36646	0	0	0	27950	26560	166942	27130	1051589	45081	110376	0	0	8050	599266	0	0
2024-07-26 06:28:47			0	36655	0	0	0	27948	26560	166886	27060	1051616	45081	110375	0	0	8051	598897	0	0
2024-07-26 06:29:47			0	36649	0	0	0	27958	26560	166818	27147	1051535	45081	110379	0	0	8051	599143	0	0
2024-07-26 06:30:47			0	36654	0	0	0	27948	26550	166874	26800	1051562	45080	110375	0	0	8051	598972	0	0
2024-07-26 06:31:47			0	36667	0	0	0	27955	26550	166906	26923	1051652	45069	110378	0	0	8052	598438	0	0
2024-07-26 06:32:47			0	36672	0	0	0	27950	26550	166826	27244	1051643	45080	110376	0	0	8052	598233	0	0
2024-07-26 06:33:47			0	36671	0	0	0	27932	26560	166858	27066	1051607	45091	110369	0	0	8052	598240	0	0
2024-07-26 06:34:47			0	36695	0	0	0	27935	26550	166810	26996	1051535	45080	110370	0	0	8054	597289	0	0
2024-07-26 06:35:47			0	36685	0	0	0	27927	26540	166774	27017	1051580	45068	110367	0	0	8053	597734	0	0
2024-07-26 06:36:47			0	36674	0	0	0	27927	26540	166634	27187	1051553	45080	110367	0	0	8052	598185	0	0
2024-07-26 06:37:47			0	36687	0	0	0	27911	26540	166654	27234	1051517	45067	110361	0	0	8053	597652	0	0
2024-07-26 06:38:47			0	36690	0	0	0	27909	26550	166806	26987	1051508	45068	110360	0	0	8054	597495	0	0
2024-07-26 06:39:47			0	36706	0	0	0	27890	26530	166666	27173	1051508	45066	110353	0	0	8055	596907	0	0
2024-07-26 06:40:47			0	36699	0	0	0	27888	26530	166654	26981	1051419	45066	110352	0	0	8055	597194	0	0
2024-07-26 06:41:47			0	36706	0	0	0	27880	26530	166710	27034	1051401	45066	110349	0	0	8055	596907	0	0
2024-07-26 06:42:47			0	36693	0	0	0	27870	26510	166646	27203	1051392	45064	110345	0	0	8054	597508	0	0
2024-07-26 06:43:47			0	36702	0	0	0	27862	26510	166662	27227	1051276	45064	110342	0	0	8055	597139	0	0
2024-07-26 06:44:47			0	36709	0	0	0	27862	26510	166654	27272	1051330	45064	110342	0	0	8055	596852	0	0
2024-07-26 06:45:47			0	36698	0	0	0	27859	26510	166622	27116	1051303	45064	110341	0	0	8055	597303	0	0
2024-07-26 06:46:47			0	36727	0	0	0	27870	26490	166606	26909	1051250	45062	110345	0	0	8056	596183	0	0
2024-07-26 06:47:47			0	36718	0	0	0	27870	26500	166590	26753	1051339	45085	110345	0	0	8056	596518	0	0
2024-07-26 06:48:47			0	36714	0	0	0	27870	26500	166618	27274	1051312	45075	110345	0	0	8056	596681	0	0
2024-07-26 06:49:47			0	36730	0	0	0	27864	26500	166522	26977	1051285	45075	110343	0	0	8057	596026	0	0
2024-07-26 06:50:47			0	36728	0	0	0	27867	26480	166566	27485	1051232	45073	110344	0	0	8056	596176	0	0
2024-07-26 06:51:47			0	36762	0	0	0	27872	26490	166486	27045	1051276	45062	110346	0	0	8058	594751	0	0
2024-07-26 06:52:47			0	36765	0	0	0	27880	26490	166578	27069	1051321	45062	110349	0	0	8058	594628	0	0
2024-07-26 06:53:47			0	36776	0	0	0	27883	26490	166446	27197	1051294	45074	110350	0	0	8059	594179	0	0
2024-07-26 06:54:47			0	36771	0	0	0	27883	26490	166322	26906	1051250	45062	110350	0	0	8059	594383	0	0
2024-07-26 06:55:47			0	36801	0	0	0	27875	26490	166334	26830	1051357	45084	110347	0	0	8061	593158	0	0
2024-07-26 06:56:47			0	36814	0	0	0	27877	26490	166370	26719	1051375	45074	110348	0	0	8061	592628	0	0
2024-07-26 06:57:47			0	36816	0	0	0	27888	26490	166290	26785	1051294	45074	110352	0	0	8061	592546	0	0
2024-07-26 06:58:47			0	36856	0	0	0	27880	26490	166102	27090	1051348	45074	110349	0	0	8064	590916	0	0
2024-07-26 06:59:47			0	36887	0	0	0	27898	26490	166030	27022	1051321	45074	110356	0	0	8065	589655	0	0
2024-07-26 07:00:47			0	36914	0	0	0	27903	26500	165858	27015	1051366	45085	110358	0	0	8067	588525	0	0
2024-07-26 07:01:47			0	36941	0	0	0	27906	26490	165690	26859	1051411	45074	110359	0	0	8068	587463	0	0
2024-07-26 07:02:47			0	36979	0	0	0	27916	26500	165602	26878	1051402	45086	110363	0	0	8070	585891	0	0
2024-07-26 07:03:47			0	37013	0	0	0	27916	26500	165498	26906	1051446	45085	110363	0	0	8072	584516	0	0
2024-07-26 07:04:47			0	37031	0	0	0	27929	26500	165346	27008	1051455	45076	110368	0	0	8073	583789	0	0
2024-07-26 07:05:47			0	37071	0	0	0	27940	26510	165094	26646	1051500	45086	110372	0	0	8076	582142	0	0
2024-07-26 07:06:47			0	37079	0	0	0	27992	26510	165090	27015	1051554	45097	110392	0	0	8075	581820	0	0
2024-07-26 07:07:47			0	37070	0	0	0	28005	26530	165118	27104	1051688	45111	110397	0	0	8074	582116	0	0
2024-07-26 07:08:47			0	37082	0	0	0	28015	26540	165082	27104	1051688	45101	110401	0	0	8075	581599	0	0
2024-07-26 07:09:47			0	37077	0	0	0	28015	26550	165078	27159	1051777	45101	110401	0	0	8075	581767	0	0
2024-07-26 07:10:47			0	37061	0	0	0	28007	26560	165094	27329	1051750	45103	110398	0	0	8074	582378	0	0
2024-07-26 07:11:47			0	37046	0	0	0	27979	26560	165210	27138	1051750	45103	110387	0	0	8074	582983	0	0
2024-07-26 07:12:47			0	37032	0	0	0	27974	26560	165230	27220	1051660	45080	110385	0	0	8073	583548	0	0
2024-07-26 07:13:47			0	37009	0	0	0	27966	26560	165426	27060	1051696	45081	110382	0	0	8072	584477	0	0
2024-07-26 07:14:47			0	36972	0	0	0	27971	26560	165502	27533	1051687	45069	110384	0	0	8069	585973	0	0
2024-07-26 07:15:47			0	36938	0	0	0	27979	26560	165650	27355	1051714	45091	110387	0	0	8067	587350	0	0
2024-07-26 07:16:47			0	36914	0	0	0	27994	26570	165730	27197	1051759	45082	110393	0	0	8066	588289	0	0
2024-07-26 07:17:47			0	36867	0	0	0	27999	26570	165834	27173	1051812	45093	110395	0	0	8063	590199	0	0
2024-07-26 07:18:47			0	36852	0	0	0	28005	26570	165954	27448	1051812	45093	110397	0	0	8062	590809	0	0
2024-07-26 07:19:47			0	36831	0	0	0	28007	26570	166046	27312	1051821	45104	110398	0	0	8061	591664	0	0
2024-07-26 07:20:47			0	36795	0	0	0	27997	26580	166150	27351	1051812	45094	110394	0	0	8059	593097	0	0
2024-07-26 07:21:47			0	36788	0	0	0	28012	26580	166282	27098	1051812	45083	110400	0	0	8058	593383	0	0
2024-07-26 07:22:47			0	36771	0	0	0	27989	26590	166518	26922	1051910	45095	110391	0	0	8057	594043	0	0
2024-07-26 07:23:47			0	36716	0	0	0	27968	26590	166534	27152	1051848	45073	110383	0	0	8054	596292	0	0
2024-07-26 07:24:47			0	36681	0	0	0	27971	26580	166734	27457	1051812	45072	110384	0	0	8052	597761	0	0
2024-07-26 07:25:47			0	36639	0	0	0	27979	26580	166898	27005	1051776	45048	110387	0	0	8050	599485	0	0
2024-07-26 07:26:47			0	36582	0	0	0	28002	26590	167209	27443	1051848	45095	110396	0	0	8046	601797	0	0
2024-07-26 07:27:47			0	36532	0	0	0	28002	26580	167377	27248	1051830	45082	110396	0	0	8043	603894	0	0
2024-07-26 07:28:47			0	36480	0	0	0	27999	26580	167509	27209	1051812	45083	110395	0	0	8040	606045	0	0
2024-07-26 07:29:47			0	36452	0	0	0	28002	26590	167633	27234	1051902	45095	110396	0	0	8038	607170	0	0
2024-07-26 07:30:47			0	36440	0	0	0	28005	26590	167837	27521	1051848	45095	110397	0	0	8037	607668	0	0
2024-07-26 07:31:47			0	36395	0	0	0	28005	26590	168053	27319	1051875	45083	110397	0	0	8035	609536	0	0
2024-07-26 07:32:47			0	36358	0	0	0	28010	26590	168217	27230	1051875	45083	110399	0	0	8032	611076	0	0
2024-07-26 07:33:47			0	36347	0	0	0	28005	26600	168169	27112	1051919	45073	110397	0	0	8032	611499	0	0
2024-07-26 07:34:47			0	36312	0	0	0	28005	26600	168345	27675	1051892	45062	110397	0	0	8030	612958	0	0
2024-07-26 07:35:47			0	36289	0	0	0	28012	26590	168413	27286	1051937	45083	110400	0	0	8028	613954	0	0
2024-07-26 07:36:47			0	36274	0	0	0	28018	26600	168601	27543	1051919	45073	110402	0	0	8027	614546	0	0
2024-07-26 07:37:47			0	36238	0	0	0	28025	26600	168737	27609	1051946	45095	110405	0	0	8025	616052	0	0
2024-07-26 07:38:47			0	36230	0	0	0	28015	26600	168781	27694	1051955	45084	110401	0	0	8025	616387	0	0
2024-07-26 07:39:47			0	36187	0	0	0	28018	26600	168833	27135	1051982	45074	110402	0	0	8022	618191	0	0
2024-07-26 07:40:47			0	36194	0	0	0	28012	26610	168913	27388	1051991	45075	110400	0	0	8023	617861	0	0
2024-07-26 07:41:47			0	36167	0	0	0	28015	26600	168957	27204	1052009	45096	110401	0	0	8021	619031	0	0
2024-07-26 07:42:47			0	36170	0	0	0	28005	26600	169049	26986	1051955	45074	110397	0	0	8021	618905	0	0
2024-07-26 07:43:47			0	36145	0	0	0	28020	26610	169081	27010	1051991	45085	110403	0	0	8019	619920	0	0
2024-07-26 07:44:47			0	36138	0	0	0	28012	26610	169125	27351	1051937	45085	110400	0	0	8019	620215	0	0
2024-07-26 07:45:47			0	36120	0	0	0	28018	26610	169129	27274	1051973	45075	110402	0	0	8018	620972	0	0
2024-07-26 07:46:47			0	36129	0	0	0	28010	26600	169269	26909	1051955	45107	110399	0	0	8019	620629	0	0
2024-07-26 07:47:47			0	36122	0	0	0	28002	26610	169313	26797	1051991	45075	110396	0	0	8018	620888	0	0
2024-07-26 07:48:47			0	36115	0	0	0	27984	26610	169317	27685	1051937	45085	110389	0	0	8018	621183	0	0
2024-07-26 07:49:47			0	36099	0	0	0	28005	26620	169337	27241	1051928	45085	110397	0	0	8017	621822	0	0
2024-07-26 07:50:47			0	36102	0	0	0	28005	26610	169357	27516	1051964	45085	110397	0	0	8017	621731	0	0
2024-07-26 07:51:47			0	36094	0	0	0	28005	26610	169381	27118	1052018	45075	110397	0	0	8017	622068	0	0
2024-07-26 07:52:47			0	36090	0	0	0	28007	26620	169437	27284	1051928	45075	110398	0	0	8016	622201	0	0
2024-07-26 07:53:47			0	36093	0	0	0	27999	26610	169405	26986	1052000	45097	110395	0	0	8017	622110	0	0
2024-07-26 07:54:47			0	36090	0	0	0	28002	26610	169505	26989	1051919	45075	110396	0	0	8016	622237	0	0
2024-07-26 07:55:47			0	36077	0	0	0	27984	26610	169405	27398	1051856	45085	110389	0	0	8016	622785	0	0
2024-07-26 07:56:47			0	36076	0	0	0	27992	26610	169381	27467	1051964	45075	110392	0	0	8016	622827	0	0
2024-07-26 07:57:47			0	36073	0	0	0	27989	26610	169405	27336	1051946	45075	110391	0	0	8016	622954	0	0
2024-07-26 07:58:47			0	36066	0	0	0	27989	26610	169489	27144	1051919	45097	110391	0	0	8015	623249	0	0
2024-07-26 07:59:47			0	36087	0	0	0	27994	26610	169557	27452	1051937	45097	110393	0	0	8016	622363	0	0
2024-07-26 08:00:47			0	36064	0	0	0	27992	26600	169549	27255	1051973	45095	110392	0	0	8015	623370	0	0
2024-07-26 08:01:47			0	36071	0	0	0	27994	26610	169461	27069	1051910	45085	110393	0	0	8015	623038	0	0
2024-07-26 08:02:47			0	36065	0	0	0	27994	26610	169493	27036	1052018	45075	110393	0	0	8015	623292	0	0
2024-07-26 08:03:47			0	36075	0	0	0	27994	26610	169549	26972	1051919	45064	110393	0	0	8016	622869	0	0
2024-07-26 08:04:47			0	36071	0	0	0	27994	26600	169485	27507	1051928	45084	110393	0	0	8015	623074	0	0
2024-07-26 08:05:47			0	36078	0	0	0	27994	26600	169445	27393	1051919	45083	110393	0	0	8016	622779	0	0
2024-07-26 08:06:47			0	36072	0	0	0	28002	26610	169373	27410	1051973	45097	110396	0	0	8015	622996	0	0
2024-07-26 08:07:47			0	36071	0	0	0	27994	26610	169357	27319	1051991	45097	110393	0	0	8015	623038	0	0
2024-07-26 08:08:47			0	36072	0	0	0	28002	26610	169453	27189	1051973	45085	110396	0	0	8015	622996	0	0
2024-07-26 08:09:47			0	36077	0	0	0	28010	26600	169373	27052	1052009	45096	110399	0	0	8015	622821	0	0
2024-07-26 08:10:47			0	36075	0	0	0	28018	26610	169385	27168	1052026	45097	110402	0	0	8015	622869	0	0
2024-07-26 08:11:47			0	36077	0	0	0	28015	26610	169349	27300	1052053	45064	110401	0	0	8015	622785	0	0
2024-07-26 08:12:47			0	36097	0	0	0	28012	26610	169265	27485	1052053	45075	110400	0	0	8017	621941	0	0
2024-07-26 08:13:47			0	36106	0	0	0	28005	26620	169289	27241	1052008	45085	110397	0	0	8017	621527	0	0
2024-07-26 08:14:47			0	36106	0	0	0	27997	26620	169257	27209	1051964	45086	110394	0	0	8018	621527	0	0
2024-07-26 08:15:47			0	36101	0	0	0	28015	26610	169237	27334	1052000	45075	110401	0	0	8017	621773	0	0
2024-07-26 08:16:47			0	36103	0	0	0	28028	26610	169209	27048	1052053	45085	110406	0	0	8017	621689	0	0
2024-07-26 08:17:47			0	36106	0	0	0	28031	26610	169141	27270	1052053	45085	110407	0	0	8017	621562	0	0
2024-07-26 08:18:47			0	36110	0	0	0	28023	26620	169253	27476	1052062	45108	110404	0	0	8017	621358	0	0
2024-07-26 08:19:47			0	36122	0	0	0	28025	26630	169101	27403	1052116	45078	110405	0	0	8018	620817	0	0
2024-07-26 08:20:47			0	36123	0	0	0	28025	26630	169141	27267	1052053	45077	110405	0	0	8018	620775	0	0
2024-07-26 08:21:47			0	36135	0	0	0	28018	26610	169213	27595	1052053	45085	110402	0	0	8019	620341	0	0
2024-07-26 08:22:47			0	36124	0	0	0	28005	26620	169113	27594	1052017	45086	110397	0	0	8019	620768	0	0
2024-07-26 08:23:47			0	36137	0	0	0	28010	26620	169201	27426	1051982	45075	110399	0	0	8019	620221	0	0
2024-07-26 08:24:47			0	36119	0	0	0	28012	26610	169125	27367	1051946	45075	110400	0	0	8018	621015	0	0
2024-07-26 08:25:47			0	36118	0	0	0	28002	26610	169117	27209	1051964	45064	110396	0	0	8018	621057	0	0
2024-07-26 08:26:47			0	36137	0	0	0	27997	26610	169149	27424	1051964	45097	110394	0	0	8019	620257	0	0
2024-07-26 08:27:47			0	36135	0	0	0	28010	26610	169101	26937	1051937	45075	110399	0	0	8019	620341	0	0
2024-07-26 08:28:47			0	36132	0	0	0	27994	26600	169053	27066	1051955	45074	110393	0	0	8019	620503	0	0
2024-07-26 08:29:47			0	36139	0	0	0	27997	26610	169041	27005	1051919	45085	110394	0	0	8020	620173	0	0
2024-07-26 08:30:47			0	36135	0	0	0	28002	26600	169113	27046	1051839	45073	110396	0	0	8019	620376	0	0
2024-07-26 08:31:47			0	36131	0	0	0	27989	26600	169065	27007	1051874	45084	110391	0	0	8019	620545	0	0
2024-07-26 08:32:47			0	36135	0	0	0	28005	26600	169109	26798	1051955	45074	110397	0	0	8019	620376	0	0
2024-07-26 08:33:47			0	36132	0	0	0	27994	26600	169201	27145	1051928	45096	110393	0	0	8019	620503	0	0
2024-07-26 08:34:47			0	36144	0	0	0	27999	26600	169133	27095	1051946	45095	110395	0	0	8020	619998	0	0
2024-07-26 08:35:47			0	36147	0	0	0	27994	26600	169117	27059	1051919	45083	110393	0	0	8020	619871	0	0
2024-07-26 08:36:47			0	36157	0	0	0	27994	26590	169045	27029	1051857	45083	110393	0	0	8021	619486	0	0
2024-07-26 08:37:47			0	36157	0	0	0	27989	26590	169061	26864	1051937	45073	110391	0	0	8021	619486	0	0
2024-07-26 08:38:47			0	36162	0	0	0	27986	26600	169037	26831	1051866	45095	110390	0	0	8021	619241	0	0
2024-07-26 08:39:47			0	36162	0	0	0	27986	26590	169001	27343	1051848	45083	110390	0	0	8021	619276	0	0
2024-07-26 08:40:47			0	36160	0	0	0	27994	26590	168945	26899	1051884	45083	110393	0	0	8021	619360	0	0
2024-07-26 08:41:47			0	36175	0	0	0	27999	26590	169057	27282	1051884	45083	110395	0	0	8022	618730	0	0
2024-07-26 08:42:47			0	36164	0	0	0	28002	26600	168861	27066	1051919	45095	110396	0	0	8021	619157	0	0
2024-07-26 08:43:47			0	36182	0	0	0	27999	26590	168873	26779	1051910	45073	110395	0	0	8022	618436	0	0
2024-07-26 08:44:47			0	36188	0	0	0	28007	26600	168861	26998	1051973	45073	110398	0	0	8022	618149	0	0
2024-07-26 08:45:47			0	36203	0	0	0	27999	26600	168789	27256	1051955	45096	110395	0	0	8023	617519	0	0
2024-07-26 08:46:47			0	36210	0	0	0	28002	26600	168673	27246	1051874	45084	110396	0	0	8024	617226	0	0
2024-07-26 08:47:47			0	36215	0	0	0	28007	26600	168721	27428	1051919	45073	110398	0	0	8024	617016	0	0
2024-07-26 08:48:47			0	36243	0	0	0	27999	26610	168617	27092	1051910	45064	110395	0	0	8026	615807	0	0
2024-07-26 08:49:47			0	36245	0	0	0	27992	26600	168593	27305	1052009	45084	110392	0	0	8026	615759	0	0
2024-07-26 08:50:47			0	36253	0	0	0	27994	26600	168525	27345	1051928	45084	110393	0	0	8026	615424	0	0
2024-07-26 08:51:47			0	36250	0	0	0	27997	26590	168581	27152	1051902	45095	110394	0	0	8026	615585	0	0
2024-07-26 08:52:47			0	36265	0	0	0	28002	26590	168621	26961	1051928	45083	110396	0	0	8027	614957	0	0
2024-07-26 08:53:47			0	36266	0	0	0	28007	26590	168513	27012	1051928	45083	110398	0	0	8027	614915	0	0
2024-07-26 08:54:47			0	36260	0	0	0	28005	26590	168509	27060	1051964	45095	110397	0	0	8027	615167	0	0
2024-07-26 08:55:47			0	36283	0	0	0	28005	26590	168525	27222	1051964	45095	110397	0	0	8028	614205	0	0
2024-07-26 08:56:47			0	36289	0	0	0	28005	26590	168421	26987	1051910	45095	110397	0	0	8028	613954	0	0
2024-07-26 08:57:47			0	36297	0	0	0	28005	26600	168325	27270	1051946	45073	110397	0	0	8029	613585	0	0
2024-07-26 08:58:47			0	36294	0	0	0	27997	26600	168257	27175	1051973	45095	110394	0	0	8029	613710	0	0
2024-07-26 08:59:47			0	36302	0	0	0	27992	26600	168437	27062	1051946	45073	110392	0	0	8029	613376	0	0
2024-07-26 09:00:47			0	36305	0	0	0	27999	26590	168305	27024	1051937	45095	110395	0	0	8029	613286	0	0
2024-07-26 09:01:47			0	36277	0	0	0	27992	26600	168373	26956	1051892	45095	110392	0	0	8028	614420	0	0
2024-07-26 09:02:47			0	36265	0	0	0	28012	26590	168509	27119	1051955	45073	110400	0	0	8027	614957	0	0
2024-07-26 09:03:47			0	36266	0	0	0	28023	26600	168565	26748	1051955	45096	110404	0	0	8027	614880	0	0
2024-07-26 09:04:47			0	36243	0	0	0	28028	26590	168581	26882	1051991	45095	110406	0	0	8025	615878	0	0
2024-07-26 09:05:47			0	36235	0	0	0	28023	26600	168693	26994	1051982	45084	110404	0	0	8025	616178	0	0
2024-07-26 09:06:47			0	36210	0	0	0	28033	26600	168729	27062	1051982	45074	110408	0	0	8023	617226	0	0
2024-07-26 09:07:47			0	36193	0	0	0	28028	26600	168917	27083	1052009	45096	110406	0	0	8022	617939	0	0
2024-07-26 09:08:47			0	36152	0	0	0	28036	26600	169097	27059	1052036	45096	110409	0	0	8020	619661	0	0
2024-07-26 09:09:47			0	36130	0	0	0	28031	26610	169153	27289	1052134	45085	110407	0	0	8018	620551	0	0
2024-07-26 09:10:47			0	36094	0	0	0	28033	26610	169341	27010	1052026	45075	110408	0	0	8016	622068	0	0
2024-07-26 09:11:47			0	36061	0	0	0	28036	26610	169521	27039	1052080	45085	110409	0	0	8014	623461	0	0
2024-07-26 09:12:47			0	36004	0	0	0	28049	26620	169781	27185	1052098	45086	110414	0	0	8011	625835	0	0
2024-07-26 09:13:47			0	35959	0	0	0	28059	26620	169941	27133	1052089	45097	110418	0	0	8008	627743	0	0
2024-07-26 09:14:47			0	35903	0	0	0	28057	26620	170149	27327	1052098	45109	110417	0	0	8004	630123	0	0
2024-07-26 09:15:47			0	35845	0	0	0	28046	26620	170444	27059	1052152	45098	110413	0	0	8001	632594	0	0
2024-07-26 09:16:47			0	35789	0	0	0	28038	26620	170756	26757	1052017	45086	110410	0	0	7998	634987	0	0
2024-07-26 09:17:47			0	35739	0	0	0	28041	26630	170972	26989	1052107	45099	110411	0	0	7995	637093	0	0
2024-07-26 09:18:47			0	35708	0	0	0	28044	26620	171060	27053	1052125	45086	110412	0	0	7993	638460	0	0
2024-07-26 09:19:47			0	35656	0	0	0	28049	26630	171212	27197	1052134	45077	110414	0	0	7989	640660	0	0
2024-07-26 09:20:47			0	35619	0	0	0	28051	26640	171448	27145	1052125	45078	110415	0	0	7987	642218	0	0
2024-07-26 09:21:47			0	35582	0	0	0	28057	26630	171552	27131	1052134	45087	110417	0	0	7985	643852	0	0
2024-07-26 09:22:47			0	35572	0	0	0	28051	26640	171784	26967	1052187	45100	110415	0	0	7984	644248	0	0
2024-07-26 09:23:47			0	35537	0	0	0	28054	26650	171872	26956	1052196	45089	110416	0	0	7982	645725	0	0
2024-07-26 09:24:47			0	35525	0	0	0	28059	26640	171916	27041	1052151	45088	110418	0	0	7981	646282	0	0
2024-07-26 09:25:47			0	35487	0	0	0	28049	26640	172088	27147	1052178	45088	110414	0	0	7979	647930	0	0
2024-07-26 09:26:47			0	35471	0	0	0	28070	26640	172260	26942	1052160	45088	110422	0	0	7978	648625	0	0
2024-07-26 09:27:47			0	35457	0	0	0	28070	26640	172372	27234	1052214	45100	110422	0	0	7977	649234	0	0
2024-07-26 09:28:47			0	35454	0	0	0	28070	26630	172316	27095	1052223	45088	110422	0	0	7976	649401	0	0
2024-07-26 09:29:47			0	35425	0	0	0	28070	26630	172324	26906	1052196	45088	110422	0	0	7975	650663	0	0
2024-07-26 09:30:47			0	35408	0	0	0	28085	26650	172460	27157	1052250	45123	110428	0	0	7973	651330	0	0
2024-07-26 09:31:47			0	35419	0	0	0	28083	26640	172440	26960	1052187	45078	110427	0	0	7974	650888	0	0
2024-07-26 09:32:47			0	35392	0	0	0	28067	26660	172448	26871	1052285	45090	110421	0	0	7973	651990	0	0
2024-07-26 09:33:47			0	35401	0	0	0	28072	26640	172468	26941	1052214	45100	110423	0	0	7973	651672	0	0
2024-07-26 09:34:47			0	35388	0	0	0	28080	26650	172600	27045	1052223	45089	110426	0	0	7972	652202	0	0
2024-07-26 09:35:47			0	35376	0	0	0	28085	26660	172604	27178	1052285	45090	110428	0	0	7972	652688	0	0
2024-07-26 09:36:47			0	35369	0	0	0	28116	26650	172700	26911	1052250	45112	110440	0	0	7971	653031	0	0
2024-07-26 09:37:47			0	35397	0	0	0	28127	26680	172688	27013	1052402	45115	110444	0	0	7972	651697	0	0
2024-07-26 09:38:47			0	35378	0	0	0	28142	26680	172764	27178	1052464	45125	110450	0	0	7971	652526	0	0
2024-07-26 09:39:47			0	35386	0	0	0	28155	26690	172672	26934	1052500	45125	110455	0	0	7971	652140	0	0
2024-07-26 09:40:47			0	35378	0	0	0	28142	26690	172632	27241	1052509	45104	110450	0	0	7971	652489	0	0
2024-07-26 09:41:47			0	35383	0	0	0	28150	26690	172508	26830	1052590	45104	110453	0	0	7971	652270	0	0
2024-07-26 09:42:47			0	35392	0	0	0	28145	26700	172548	27209	1052554	45118	110451	0	0	7972	651841	0	0
2024-07-26 09:43:47			0	35389	0	0	0	28150	26710	172440	27417	1052518	45095	110453	0	0	7971	651934	0	0
2024-07-26 09:44:47			0	35392	0	0	0	28148	26720	172420	27255	1052553	45107	110452	0	0	7972	651766	0	0
2024-07-26 09:45:47			0	35393	0	0	0	28155	26720	172392	26941	1052580	45119	110455	0	0	7972	651722	0	0
2024-07-26 09:46:47			0	35399	0	0	0	28176	26720	172396	27074	1052616	45120	110463	0	0	7972	651461	0	0
2024-07-26 09:47:47			0	35379	0	0	0	28199	26720	172324	27230	1052643	45108	110472	0	0	7970	652333	0	0
2024-07-26 09:48:47			0	35387	0	0	0	28202	26740	172336	27076	1052696	45121	110473	0	0	7971	651909	0	0
2024-07-26 09:49:47			0	35399	0	0	0	28186	26740	172320	27234	1052786	45132	110467	0	0	7972	651386	0	0
2024-07-26 09:50:47			0	35413	0	0	0	28186	26760	172304	27277	1052785	45100	110467	0	0	7973	650702	0	0
2024-07-26 09:51:47			0	35399	0	0	0	28176	26740	172232	27057	1052705	45110	110463	0	0	7972	651386	0	0
2024-07-26 09:52:47			0	35399	0	0	0	28189	26760	172336	26942	1052678	45111	110468	0	0	7972	651312	0	0
2024-07-26 09:53:47			0	35399	0	0	0	28189	26750	172304	26909	1052750	45110	110468	0	0	7972	651349	0	0
2024-07-26 09:54:47			0	35392	0	0	0	28186	26750	172348	27244	1052830	45110	110467	0	0	7971	651654	0	0
2024-07-26 09:55:47			0	35396	0	0	0	28173	26750	172440	27232	1052776	45088	110462	0	0	7972	651480	0	0
2024-07-26 09:56:47			0	35388	0	0	0	28166	26760	172364	27239	1052794	45112	110459	0	0	7971	651791	0	0
2024-07-26 09:57:47			0	35409	0	0	0	28150	26750	172440	27150	1052750	45099	110453	0	0	7973	650913	0	0
2024-07-26 09:58:47			0	35392	0	0	0	28155	26750	172432	27450	1052696	45099	110455	0	0	7972	651654	0	0
2024-07-26 09:59:47			0	35414	0	0	0	28158	26750	172388	26916	1052768	45099	110456	0	0	7973	650695	0	0
2024-07-26 10:00:47			0	35400	0	0	0	28155	26750	172396	27187	1052723	45099	110455	0	0	7972	651305	0	0
2024-07-26 10:01:47			0	35409	0	0	0	28166	26760	172328	27229	1052741	45101	110459	0	0	7973	650876	0	0
2024-07-26 10:02:47			0	35417	0	0	0	28181	26760	172440	27071	1052759	45100	110465	0	0	7973	650528	0	0
2024-07-26 10:03:47			0	35415	0	0	0	28184	26760	172276	27204	1052741	45112	110466	0	0	7973	650615	0	0
2024-07-26 10:04:47			0	35407	0	0	0	28194	26760	172220	27060	1052848	45112	110470	0	0	7972	650963	0	0
2024-07-26 10:05:47			0	35415	0	0	0	28215	26770	172284	27076	1052884	45125	110478	0	0	7972	650577	0	0
2024-07-26 10:06:47			0	35417	0	0	0	28231	26770	172256	26817	1052893	45113	110484	0	0	7972	650490	0	0
2024-07-26 10:07:47			0	35439	0	0	0	28272	26770	172168	27197	1053054	45113	110500	0	0	7973	649533	0	0
2024-07-26 10:08:47			0	35443	0	0	0	28283	26790	172260	27041	1053090	45126	110504	0	0	7973	649285	0	0
2024-07-26 10:09:47			0	35436	0	0	0	28285	26800	172184	27152	1053134	45127	110505	0	0	7973	649552	0	0
2024-07-26 10:10:47			0	35448	0	0	0	28270	26810	172040	27123	1053143	45127	110499	0	0	7974	648993	0	0
2024-07-26 10:11:47			0	35449	0	0	0	28267	26810	172120	26904	1053206	45106	110498	0	0	7974	648950	0	0
2024-07-26 10:12:47			0	35442	0	0	0	28264	26820	172104	27284	1053215	45127	110497	0	0	7973	649217	0	0
2024-07-26 10:13:47			0	35466	0	0	0	28283	26810	172048	27196	1053152	45127	110504	0	0	7975	648211	0	0
2024-07-26 10:14:47			0	35465	0	0	0	28293	26820	172052	27095	1053277	45128	110508	0	0	7974	648217	0	0
2024-07-26 10:15:47			0	35440	0	0	0	28288	26830	172144	26850	1053286	45129	110506	0	0	7973	649267	0	0
2024-07-26 10:16:47			0	35450	0	0	0	28306	26840	172032	26906	1053331	45130	110513	0	0	7973	648795	0	0
2024-07-26 10:17:47			0	35450	0	0	0	28306	26840	171956	26963	1053340	45130	110513	0	0	7973	648795	0	0
2024-07-26 10:18:47			0	35432	0	0	0	28316	26850	172020	26698	1053357	45132	110517	0	0	7972	649540	0	0
2024-07-26 10:19:47			0	35418	0	0	0	28309	26860	172088	26934	1053375	45144	110514	0	0	7971	650112	0	0
2024-07-26 10:20:47			0	35417	0	0	0	28322	26860	172160	27175	1053393	45111	110519	0	0	7971	650155	0	0
2024-07-26 10:21:47			0	35403	0	0	0	28322	26870	172168	27157	1053446	45134	110519	0	0	7970	650727	0	0
2024-07-26 10:22:47			0	35401	0	0	0	28329	26870	172108	26687	1053473	45124	110522	0	0	7970	650814	0	0
2024-07-26 10:23:47			0	35392	0	0	0	28327	26880	172344	26870	1053491	45134	110521	0	0	7970	651169	0	0
2024-07-26 10:24:47			0	35384	0	0	0	28335	26880	172192	27241	1053491	45124	110524	0	0	7969	651517	0	0
2024-07-26 10:25:47			0	35376	0	0	0	28324	26880	172256	26902	1053410	45134	110520	0	0	7969	651866	0	0
2024-07-26 10:26:47			0	35362	0	0	0	28311	26880	172404	26918	1053464	45124	110515	0	0	7968	652477	0	0
2024-07-26 10:27:47			0	35341	0	0	0	28306	26890	172516	27102	1053455	45115	110513	0	0	7967	653356	0	0
2024-07-26 10:28:47			0	35332	0	0	0	28311	26890	172656	27104	1053482	45125	110515	0	0	7966	653749	0	0
2024-07-26 10:29:47			0	35327	0	0	0	28311	26890	172552	26826	1053446	45114	110515	0	0	7966	653967	0	0
2024-07-26 10:30:47			0	35323	0	0	0	28303	26890	172704	26814	1053527	45114	110512	0	0	7966	654142	0	0
2024-07-26 10:31:47			0	35298	0	0	0	28322	26890	172652	26700	1053473	45135	110519	0	0	7964	655235	0	0
2024-07-26 10:32:47			0	35297	0	0	0	28319	26900	172624	26863	1053545	45125	110518	0	0	7964	655242	0	0
2024-07-26 10:33:47			0	35323	0	0	0	28322	26900	172708	26686	1053518	45136	110519	0	0	7965	654104	0	0
2024-07-26 10:34:47			0	35317	0	0	0	28327	26900	172704	26790	1053553	45126	110521	0	0	7965	654367	0	0
2024-07-26 10:35:47			0	35319	0	0	0	28324	26900	172528	26835	1053580	45126	110520	0	0	7965	654279	0	0
2024-07-26 10:36:47			0	35328	0	0	0	28327	26910	172492	26897	1053625	45116	110521	0	0	7966	653849	0	0
2024-07-26 10:37:47			0	35339	0	0	0	28324	26910	172460	26873	1053589	45116	110520	0	0	7966	653368	0	0
2024-07-26 10:38:47			0	35341	0	0	0	28324	26920	172324	26883	1053553	45127	110520	0	0	7967	653243	0	0
2024-07-26 10:39:47			0	35371	0	0	0	28322	26910	172296	26807	1053589	45126	110519	0	0	7968	651972	0	0
2024-07-26 10:40:47			0	35393	0	0	0	28322	26910	172232	26850	1053571	45127	110519	0	0	7970	651013	0	0
2024-07-26 10:41:47			0	35418	0	0	0	28316	26910	172260	26845	1053625	45127	110517	0	0	7972	649925	0	0
2024-07-26 10:42:47			0	35436	0	0	0	28337	26920	172112	26727	1053616	45117	110525	0	0	7972	649105	0	0
2024-07-26 10:43:47			0	35434	0	0	0	28332	26920	171852	26922	1053670	45128	110523	0	0	7972	649192	0	0
2024-07-26 10:44:47			0	35451	0	0	0	28345	26920	172028	27208	1053643	45117	110528	0	0	7973	648454	0	0
2024-07-26 10:45:47			0	35457	0	0	0	28348	26920	171884	27071	1053670	45128	110529	0	0	7973	648193	0	0
2024-07-26 10:46:47			0	35477	0	0	0	28345	26920	171792	27320	1053643	45139	110528	0	0	7975	647325	0	0
2024-07-26 10:47:47			0	35493	0	0	0	28348	26930	171740	26984	1053688	45129	110529	0	0	7976	646595	0	0
2024-07-26 10:48:47			0	35504	0	0	0	28348	26930	171656	27313	1053732	45117	110529	0	0	7976	646118	0	0
2024-07-26 10:49:47			0	35523	0	0	0	28340	26930	171620	27260	1053679	45139	110526	0	0	7978	645296	0	0
2024-07-26 10:50:47			0	35523	0	0	0	28340	26920	171640	27192	1053697	45128	110526	0	0	7978	645333	0	0
2024-07-26 10:51:47			0	35517	0	0	0	28355	26950	171460	27145	1053786	45130	110532	0	0	7977	645482	0	0
2024-07-26 10:52:47			0	35531	0	0	0	28342	26940	171592	27097	1053723	45130	110527	0	0	7978	644913	0	0
2024-07-26 10:53:47			0	35522	0	0	0	28353	26930	171608	26814	1053768	45129	110531	0	0	7977	645339	0	0
2024-07-26 10:54:47			0	35519	0	0	0	28340	26930	171580	26856	1053714	45129	110526	0	0	7977	645469	0	0
2024-07-26 10:55:47			0	35523	0	0	0	28324	26950	171656	26861	1053732	45130	110520	0	0	7978	645222	0	0
2024-07-26 10:56:47			0	35498	0	0	0	28340	26940	171708	27093	1053670	45130	110526	0	0	7976	646341	0	0
2024-07-26 10:57:47			0	35471	0	0	0	28353	26940	171756	26882	1053723	45130	110531	0	0	7974	647512	0	0
2024-07-26 10:58:47			0	35473	0	0	0	28348	26940	171968	26743	1053723	45130	110529	0	0	7975	647425	0	0
2024-07-26 10:59:47			0	35448	0	0	0	28374	26950	171976	27017	1053759	45141	110539	0	0	7973	648473	0	0
2024-07-26 11:00:47			0	35443	0	0	0	28361	26950	172004	26986	1053822	45131	110534	0	0	7973	648690	0	0
2024-07-26 11:01:47			0	35447	0	0	0	28394	26950	172024	27052	1053795	45142	110547	0	0	7972	648516	0	0
2024-07-26 11:02:47			0	35449	0	0	0	28418	26970	171892	27010	1053875	45143	110556	0	0	7972	648355	0	0
2024-07-26 11:03:47			0	35550	0	0	0	28402	26970	171468	26972	1053929	45154	110550	0	0	7979	643981	0	0
2024-07-26 11:04:47			0	35667	0	0	0	28402	26980	170884	26857	1053974	45133	110550	0	0	7986	638904	0	0
2024-07-26 11:05:47			0	35633	0	0	0	28433	26970	171036	26826	1053911	45144	110562	0	0	7983	640402	0	0
2024-07-26 11:06:47			0	35575	0	0	0	28441	26970	171412	27015	1054018	45144	110565	0	0	7979	642901	0	0
2024-07-26 11:07:47			0	35534	0	0	0	28436	27000	171592	26901	1054063	45146	110563	0	0	7977	644561	0	0
2024-07-26 11:08:47			0	35517	0	0	0	28441	27000	171776	26833	1054099	45136	110565	0	0	7976	645297	0	0
2024-07-26 11:09:47			0	35483	0	0	0	28449	27000	171720	26852	1054036	45146	110568	0	0	7974	646769	0	0
2024-07-26 11:10:47			0	35495	0	0	0	28459	27000	171916	26880	1054099	45147	110572	0	0	7974	646249	0	0
2024-07-26 11:11:47			0	35508	0	0	0	28472	27010	171856	26779	1054134	45136	110577	0	0	7975	645649	0	0
2024-07-26 11:12:47			0	35484	0	0	0	28475	27020	171804	26899	1054188	45138	110578	0	0	7973	646651	0	0
2024-07-26 11:13:47			0	35514	0	0	0	28467	27020	171636	27074	1054188	45149	110575	0	0	7975	645352	0	0
2024-07-26 11:14:47			0	35564	0	0	0	28485	27040	171464	26937	1054322	45151	110582	0	0	7978	643118	0	0
2024-07-26 11:15:47			0	35615	0	0	0	28498	27040	171384	27010	1054349	45151	110587	0	0	7981	640920	0	0
2024-07-26 11:16:47			0	35622	0	0	0	28511	27050	171132	26802	1054287	45163	110592	0	0	7982	640582	0	0
2024-07-26 11:17:47			0	35658	0	0	0	28516	27060	171000	27046	1054358	45141	110594	0	0	7984	638997	0	0
2024-07-26 11:18:47			0	35688	0	0	0	28522	27050	170888	26876	1054394	45152	110596	0	0	7985	637746	0	0
2024-07-26 11:19:47			0	35733	0	0	0	28527	27070	170688	27053	1054483	45165	110598	0	0	7988	635745	0	0
2024-07-26 11:20:47			0	35743	0	0	0	28522	27060	170576	26994	1054475	45164	110596	0	0	7989	635354	0	0
2024-07-26 11:21:47			0	35791	0	0	0	28540	27080	170468	26689	1054528	45155	110603	0	0	7992	633230	0	0
2024-07-26 11:22:47			0	35802	0	0	0	28545	27090	170336	27159	1054600	45144	110605	0	0	7992	632725	0	0
2024-07-26 11:23:47			0	35822	0	0	0	28542	27080	170136	27072	1054591	45156	110604	0	0	7993	631909	0	0
2024-07-26 11:24:47			0	35872	0	0	0	28561	27100	169953	27092	1054653	45146	110611	0	0	7996	629708	0	0
2024-07-26 11:25:47			0	35896	0	0	0	28568	27110	169893	26880	1054698	45168	110614	0	0	7998	628653	0	0
2024-07-26 11:26:47			0	35916	0	0	0	28566	27110	169721	26946	1054689	45158	110613	0	0	7999	627804	0	0
2024-07-26 11:27:47			0	35952	0	0	0	28573	27120	169637	27197	1054796	45160	110616	0	0	8001	626243	0	0
2024-07-26 11:28:47			0	36002	0	0	0	28576	27120	169301	27118	1054823	45170	110617	0	0	8004	624129	0	0
2024-07-26 11:29:47			0	36004	0	0	0	28586	27130	169165	26989	1054886	45160	110621	0	0	8004	624009	0	0
2024-07-26 11:30:47			0	36058	0	0	0	28592	27130	169021	27097	1054814	45161	110623	0	0	8007	621732	0	0
2024-07-26 11:31:47			0	36066	0	0	0	28579	27140	168953	27142	1054885	45162	110618	0	0	8008	621359	0	0
2024-07-26 11:32:47			0	36083	0	0	0	28592	27150	168765	26828	1054867	45151	110623	0	0	8009	620608	0	0
2024-07-26 11:33:47			0	36108	0	0	0	28581	27150	168725	27150	1054841	45151	110619	0	0	8010	619557	0	0
2024-07-26 11:34:47			0	36127	0	0	0	28594	27160	168681	26856	1054894	45141	110624	0	0	8011	618724	0	0
2024-07-26 11:35:47			0	36131	0	0	0	28594	27160	168525	27225	1054939	45140	110624	0	0	8012	618556	0	0
2024-07-26 11:36:47			0	36165	0	0	0	28605	27170	168577	27083	1054957	45142	110628	0	0	8014	617095	0	0
2024-07-26 11:37:47			0	36175	0	0	0	28620	27180	168437	26911	1055055	45153	110634	0	0	8014	616641	0	0
2024-07-26 11:38:47			0	36197	0	0	0	28612	27180	168381	26779	1055029	45153	110631	0	0	8015	615721	0	0
2024-07-26 11:39:47			0	36214	0	0	0	28615	27170	168201	27045	1055073	45153	110632	0	0	8016	615045	0	0
2024-07-26 11:40:47			0	36200	0	0	0	28623	27170	168209	27024	1055047	45153	110635	0	0	8015	615630	0	0
2024-07-26 11:41:47			0	36207	0	0	0	28615	27180	168161	26939	1055091	45165	110632	0	0	8016	615303	0	0
2024-07-26 11:42:47			0	36214	0	0	0	28623	27190	168173	26946	1055136	45166	110635	0	0	8016	614975	0	0
2024-07-26 11:43:47			0	36219	0	0	0	28623	27190	168141	27140	1055019	45144	110635	0	0	8017	614766	0	0
2024-07-26 11:44:47			0	36215	0	0	0	28625	27180	168257	26863	1055082	45153	110636	0	0	8016	614968	0	0
2024-07-26 11:45:47			0	36212	0	0	0	28631	27190	168181	26944	1055127	45144	110638	0	0	8016	615058	0	0
2024-07-26 11:46:47			0	36233	0	0	0	28636	27190	168165	26996	1055082	45166	110640	0	0	8017	614181	0	0
2024-07-26 11:47:47			0	36265	0	0	0	28641	27200	167929	27109	1055154	45145	110642	0	0	8019	612811	0	0
2024-07-26 11:48:47			0	36298	0	0	0	28646	27200	167797	27150	1055207	45156	110644	0	0	8021	611437	0	0
2024-07-26 11:49:47			0	36316	0	0	0	28646	27210	167833	27194	1055198	45168	110644	0	0	8022	610653	0	0
2024-07-26 11:50:47			0	36330	0	0	0	28644	27210	167685	27192	1055189	45157	110643	0	0	8023	610071	0	0
2024-07-26 11:51:47			0	36324	0	0	0	28646	27210	167701	27003	1055216	45146	110644	0	0	8023	610320	0	0
2024-07-26 11:52:47			0	36339	0	0	0	28641	27220	167721	27102	1055207	45158	110642	0	0	8024	609662	0	0
2024-07-26 11:53:47			0	36347	0	0	0	28651	27220	167697	27403	1055261	45168	110646	0	0	8024	609330	0	0
2024-07-26 11:54:47			0	36358	0	0	0	28646	27230	167521	27145	1055270	45158	110644	0	0	8025	608838	0	0
2024-07-26 11:55:47			0	36373	0	0	0	28662	27230	167553	27433	1055270	45147	110650	0	0	8025	608216	0	0
2024-07-26 11:56:47			0	36357	0	0	0	28662	27230	167433	27326	1055306	45159	110650	0	0	8024	608880	0	0
2024-07-26 11:57:47			0	36381	0	0	0	28662	27240	167517	27147	1055315	45160	110650	0	0	8026	607849	0	0
2024-07-26 11:58:47			0	36381	0	0	0	28667	27240	167477	27183	1055323	45149	110652	0	0	8026	607849	0	0
2024-07-26 11:59:47			0	36388	0	0	0	28664	27240	167397	27185	1055377	45170	110651	0	0	8026	607559	0	0
2024-07-26 12:00:47			0	36412	0	0	0	28662	27240	167401	26684	1055377	45149	110650	0	0	8028	606566	0	0
2024-07-26 12:01:47			0	36403	0	0	0	28675	27250	167305	27072	1055305	45137	110655	0	0	8027	606903	0	0
2024-07-26 12:02:47			0	36426	0	0	0	28659	27240	167177	27031	1055323	45160	110649	0	0	8029	605986	0	0
2024-07-26 12:03:47			0	36459	0	0	0	28675	27250	167077	27124	1055413	45160	110655	0	0	8030	604588	0	0
2024-07-26 12:04:47			0	36463	0	0	0	28670	27240	166937	27241	1055404	45170	110653	0	0	8031	604458	0	0
2024-07-26 12:05:47			0	36496	0	0	0	28680	27250	166793	27268	1055422	45161	110657	0	0	8033	603062	0	0
2024-07-26 12:06:47			0	36543	0	0	0	28675	27260	166665	27279	1055404	45162	110655	0	0	8036	601092	0	0
2024-07-26 12:07:47			0	36572	0	0	0	28677	27270	166561	27251	1055448	45172	110656	0	0	8037	599866	0	0
2024-07-26 12:08:47			0	36582	0	0	0	28693	27260	166469	27081	1055431	45162	110662	0	0	8038	599490	0	0
2024-07-26 12:09:47			0	36629	0	0	0	28690	27270	166270	26847	1055484	45185	110661	0	0	8040	597528	0	0
2024-07-26 12:10:47			0	36643	0	0	0	28709	27270	166158	26785	1055484	45163	110668	0	0	8041	596955	0	0
2024-07-26 12:11:47			0	36652	0	0	0	28706	27270	166226	26987	1055556	45162	110667	0	0	8042	596587	0	0
2024-07-26 12:12:47			0	36634	0	0	0	28709	27280	166350	26932	1055583	45153	110668	0	0	8040	597289	0	0
2024-07-26 12:13:47			0	36607	0	0	0	28724	27280	166414	26785	1055556	45165	110674	0	0	8039	598395	0	0
2024-07-26 12:14:47			0	36594	0	0	0	28724	27280	166494	27138	1055574	45164	110674	0	0	8038	598928	0	0
2024-07-26 12:15:47			0	36554	0	0	0	28711	27280	166593	27152	1055610	45165	110669	0	0	8036	600571	0	0
2024-07-26 12:16:47			0	36534	0	0	0	28706	27290	166641	26859	1055574	45153	110667	0	0	8035	601359	0	0
2024-07-26 12:17:47			0	36526	0	0	0	28719	27290	166669	26857	1055574	45175	110672	0	0	8034	601688	0	0
2024-07-26 12:18:47			0	36510	0	0	0	28732	27290	166737	27013	1055628	45165	110677	0	0	8033	602346	0	0
2024-07-26 12:19:47			0	36510	0	0	0	28737	27300	166817	27076	1055672	45177	110679	0	0	8033	602312	0	0
2024-07-26 12:20:47			0	36502	0	0	0	28740	27290	166837	27248	1055681	45165	110680	0	0	8032	602676	0	0
2024-07-26 12:21:47			0	36493	0	0	0	28748	27300	166853	27088	1055672	45155	110683	0	0	8031	603012	0	0
2024-07-26 12:22:47			0	36494	0	0	0	28737	27310	166925	26863	1055681	45166	110679	0	0	8032	602936	0	0
2024-07-26 12:23:47			0	36491	0	0	0	28742	27310	166885	27105	1055744	45188	110681	0	0	8032	603060	0	0
2024-07-26 12:24:47			0	36476	0	0	0	28740	27320	166941	27046	1055753	45178	110680	0	0	8031	603644	0	0
2024-07-26 12:25:47			0	36460	0	0	0	28732	27320	166909	27222	1055815	45179	110677	0	0	8030	604304	0	0
2024-07-26 12:26:47			0	36483	0	0	0	28748	27320	166821	27267	1055753	45167	110683	0	0	8031	603355	0	0
2024-07-26 12:27:47			0	36481	0	0	0	28761	27320	166853	27137	1055789	45179	110688	0	0	8031	603437	0	0
2024-07-26 12:28:47			0	36482	0	0	0	28758	27330	166921	27223	1055833	45179	110687	0	0	8031	603362	0	0
2024-07-26 12:29:47			0	36489	0	0	0	28771	27340	166969	26994	1055842	45180	110692	0	0	8031	603038	0	0
2024-07-26 12:30:47			0	36473	0	0	0	28776	27340	166841	27159	1055878	45170	110694	0	0	8030	603698	0	0
2024-07-26 12:31:47			0	36467	0	0	0	28789	27340	166893	27131	1055896	45180	110699	0	0	8029	603945	0	0
2024-07-26 12:32:47			0	36467	0	0	0	28786	27340	167025	27187	1055932	45181	110698	0	0	8029	603945	0	0
2024-07-26 12:33:47			0	36437	0	0	0	28792	27350	166993	26951	1055967	45182	110700	0	0	8028	605149	0	0
2024-07-26 12:34:47			0	36432	0	0	0	28797	27360	167185	27313	1056012	45182	110702	0	0	8027	605321	0	0
2024-07-26 12:35:47			0	36441	0	0	0	28810	27360	167089	27166	1056039	45182	110707	0	0	8028	604949	0	0
2024-07-26 12:36:47			0	36422	0	0	0	28820	27360	167213	26953	1055994	45183	110711	0	0	8026	605734	0	0
2024-07-26 12:37:47			0	36437	0	0	0	28823	27370	167033	26847	1056066	45195	110712	0	0	8027	605080	0	0
2024-07-26 12:38:47			0	36447	0	0	0	28836	27380	167081	27043	1056137	45185	110717	0	0	8028	604632	0	0
2024-07-26 12:39:47			0	36447	0	0	0	28846	27390	166957	27242	1056200	45197	110721	0	0	8028	604597	0	0
2024-07-26 12:40:47			0	36475	0	0	0	28846	27390	166941	27182	1056209	45197	110721	0	0	8029	603442	0	0
2024-07-26 12:41:47			0	36456	0	0	0	28857	27400	166829	27371	1056227	45187	110725	0	0	8028	604191	0	0
2024-07-26 12:42:47			0	36487	0	0	0	28862	27400	166805	26996	1056245	45186	110727	0	0	8030	602913	0	0
2024-07-26 12:43:47			0	36503	0	0	0	28862	27410	166741	27112	1056325	45188	110727	0	0	8031	602219	0	0
2024-07-26 12:44:47			0	36513	0	0	0	28877	27420	166637	26793	1056343	45177	110733	0	0	8031	601773	0	0
2024-07-26 12:45:47			0	36530	0	0	0	28903	27430	166561	26979	1056379	45201	110743	0	0	8032	601039	0	0
2024-07-26 12:46:47			0	36547	0	0	0	28888	27430	166541	26977	1056415	45191	110737	0	0	8033	600341	0	0
2024-07-26 12:47:47			0	36543	0	0	0	28893	27440	166581	27159	1056451	45191	110739	0	0	8033	600471	0	0
2024-07-26 12:48:47			0	36573	0	0	0	28885	27440	166461	27064	1056451	45168	110736	0	0	8035	599239	0	0
2024-07-26 12:49:47			0	36576	0	0	0	28893	27450	166521	27282	1056477	45193	110739	0	0	8035	599082	0	0
2024-07-26 12:50:47			0	36570	0	0	0	28870	27450	166461	27003	1056477	45193	110730	0	0	8035	599328	0	0
2024-07-26 12:51:47			0	36576	0	0	0	28854	27460	166473	27012	1056486	45170	110724	0	0	8035	599047	0	0
2024-07-26 12:52:47			0	36567	0	0	0	28846	27450	166393	27076	1056450	45193	110721	0	0	8035	599451	0	0
2024-07-26 12:53:47			0	36568	0	0	0	28851	27450	166401	26871	1056450	45170	110723	0	0	8035	599410	0	0
2024-07-26 12:54:47			0	36574	0	0	0	28864	27460	166325	27253	1056495	45181	110728	0	0	8035	599129	0	0
2024-07-26 12:55:47			0	36571	0	0	0	28880	27460	166401	27121	1056540	45193	110734	0	0	8035	599252	0	0
2024-07-26 12:56:47			0	36583	0	0	0	28898	27460	166297	27310	1056549	45170	110741	0	0	8035	598760	0	0
2024-07-26 12:57:47			0	36572	0	0	0	28898	27460	166269	27241	1056576	45204	110741	0	0	8034	599211	0	0
2024-07-26 12:58:47			0	36589	0	0	0	28901	27470	166225	27121	1056620	45195	110742	0	0	8035	598480	0	0
2024-07-26 12:59:47			0	36587	0	0	0	28914	27470	166265	27211	1056647	45183	110747	0	0	8035	598562	0	0
2024-07-26 13:00:47			0	36598	0	0	0	28942	27480	166218	26974	1056692	45196	110758	0	0	8035	598076	0	0
2024-07-26 13:01:47			0	36612	0	0	0	28961	27490	166306	27059	1056755	45196	110765	0	0	8036	597469	0	0
2024-07-26 13:02:47			0	36596	0	0	0	28986	27500	166170	27114	1056862	45197	110775	0	0	8035	598090	0	0
2024-07-26 13:03:47			0	36615	0	0	0	29025	27510	166222	27126	1056934	45220	110790	0	0	8035	597277	0	0
2024-07-26 13:04:47			0	36606	0	0	0	29033	27530	166190	27086	1057068	45200	110793	0	0	8035	597577	0	0
2024-07-26 13:05:47			0	36627	0	0	0	29018	27540	166086	27137	1057050	45234	110787	0	0	8036	596683	0	0
2024-07-26 13:06:47			0	36659	0	0	0	29036	27560	166070	27055	1057140	45213	110794	0	0	8038	595307	0	0
2024-07-26 13:07:47			0	36684	0	0	0	29033	27560	165874	27194	1057148	45225	110793	0	0	8039	594287	0	0
2024-07-26 13:08:47			0	36698	0	0	0	29064	27590	165806	27154	1057301	45216	110805	0	0	8040	593614	0	0
2024-07-26 13:09:47			0	36696	0	0	0	29059	27590	165694	27090	1057274	45205	110803	0	0	8040	593695	0	0
2024-07-26 13:10:47			0	36743	0	0	0	29067	27590	165622	26863	1057309	45206	110806	0	0	8042	591782	0	0
2024-07-26 13:11:47			0	36729	0	0	0	29075	27600	165614	26876	1057327	45196	110809	0	0	8041	592317	0	0
2024-07-26 13:12:47			0	36735	0	0	0	29070	27600	165418	27083	1057300	45229	110807	0	0	8042	592073	0	0
2024-07-26 13:13:47			0	36745	0	0	0	29057	27610	165438	27086	1057399	45208	110802	0	0	8043	591633	0	0
2024-07-26 13:14:47			0	36756	0	0	0	29064	27620	165394	27164	1057354	45198	110805	0	0	8043	591152	0	0
2024-07-26 13:15:47			0	36771	0	0	0	29072	27620	165298	27183	1057354	45208	110808	0	0	8044	590542	0	0
2024-07-26 13:16:47			0	36785	0	0	0	29077	27630	165338	26767	1057399	45209	110810	0	0	8045	589940	0	0
2024-07-26 13:17:47			0	36817	0	0	0	29067	27630	165266	26720	1057327	45199	110806	0	0	8047	588643	0	0
2024-07-26 13:18:47			0	36835	0	0	0	29088	27640	165174	27124	1057426	45210	110814	0	0	8048	587880	0	0
2024-07-26 13:19:47			0	36838	0	0	0	29093	27640	165070	27128	1057480	45200	110816	0	0	8048	587759	0	0
2024-07-26 13:20:47			0	36855	0	0	0	29088	27650	164818	27003	1057542	45211	110814	0	0	8049	587037	0	0
2024-07-26 13:21:47			0	36902	0	0	0	29083	27660	164770	27199	1057507	45202	110812	0	0	8052	585105	0	0
2024-07-26 13:22:47			0	36906	0	0	0	29093	27660	164794	27008	1057596	45203	110816	0	0	8052	584944	0	0
2024-07-26 13:23:47			0	36896	0	0	0	29090	27670	164742	27126	1057578	45203	110815	0	0	8051	585313	0	0
2024-07-26 13:24:47			0	36914	0	0	0	29088	27670	164718	26824	1057497	45213	110814	0	0	8052	584587	0	0
2024-07-26 13:25:47			0	36928	0	0	0	29067	27660	164602	27112	1057515	45213	110806	0	0	8054	584057	0	0
2024-07-26 13:26:47			0	36922	0	0	0	29067	27670	164562	27187	1057551	45203	110806	0	0	8053	584265	0	0
2024-07-26 13:27:47			0	36922	0	0	0	29054	27670	164486	26937	1057524	45213	110801	0	0	8054	584265	0	0
2024-07-26 13:28:47			0	36910	0	0	0	29051	27670	164602	27216	1057524	45203	110800	0	0	8053	584749	0	0
2024-07-26 13:29:47			0	36914	0	0	0	29046	27680	164622	27197	1057542	45214	110798	0	0	8053	584554	0	0
2024-07-26 13:30:47			0	36914	0	0	0	29049	27660	164722	27135	1057515	45191	110799	0	0	8053	584621	0	0
2024-07-26 13:31:47			0	36915	0	0	0	29051	27670	164786	27190	1057479	45203	110800	0	0	8053	584547	0	0
2024-07-26 13:32:47			0	36902	0	0	0	29046	27670	164934	27324	1057471	45203	110798	0	0	8052	585071	0	0
2024-07-26 13:33:47			0	36892	0	0	0	29059	27660	164854	27473	1057488	45191	110803	0	0	8052	585509	0	0
2024-07-26 13:34:47			0	36886	0	0	0	29057	27660	164950	27258	1057542	45203	110802	0	0	8051	585751	0	0
2024-07-26 13:35:47			0	36882	0	0	0	29054	27670	164902	27312	1057524	45203	110801	0	0	8051	585879	0	0
2024-07-26 13:36:47			0	36877	0	0	0	29054	27660	164814	27203	1057488	45203	110801	0	0	8051	586114	0	0
2024-07-26 13:37:47			0	36868	0	0	0	29059	27660	164886	27118	1057569	45213	110803	0	0	8050	586478	0	0
2024-07-26 13:38:47			0	36883	0	0	0	29059	27670	164882	27317	1057497	45203	110803	0	0	8051	585838	0	0
2024-07-26 13:39:47			0	36873	0	0	0	29062	27670	164766	26982	1057479	45191	110804	0	0	8051	586242	0	0
2024-07-26 13:40:47			0	36886	0	0	0	29067	27670	164866	27272	1057551	45213	110806	0	0	8051	585717	0	0
2024-07-26 13:41:47			0	36885	0	0	0	29059	27660	164706	27242	1057462	45213	110803	0	0	8051	585791	0	0
2024-07-26 13:42:47			0	36901	0	0	0	29064	27670	164742	27166	1057497	45203	110805	0	0	8052	585112	0	0
2024-07-26 13:43:47			0	36909	0	0	0	29064	27670	164678	26989	1057533	45203	110805	0	0	8053	584789	0	0
2024-07-26 13:44:47			0	36927	0	0	0	29064	27670	164690	27027	1057551	45203	110805	0	0	8054	584063	0	0
2024-07-26 13:45:47			0	36932	0	0	0	29075	27670	164526	26870	1057587	45213	110809	0	0	8054	583862	0	0
2024-07-26 13:46:47			0	36961	0	0	0	29080	27670	164578	26871	1057551	45203	110811	0	0	8055	582694	0	0
2024-07-26 13:47:47			0	36950	0	0	0	29080	27670	164482	26939	1057524	45213	110811	0	0	8055	583137	0	0
2024-07-26 13:48:47			0	36990	0	0	0	29098	27680	164438	27150	1057650	45204	110818	0	0	8057	581495	0	0
2024-07-26 13:49:47			0	36996	0	0	0	29093	27690	164214	26625	1057641	45215	110816	0	0	8057	581220	0	0
2024-07-26 13:50:47			0	36997	0	0	0	29083	27680	164178	26994	1057596	45204	110812	0	0	8058	581214	0	0
2024-07-26 13:51:47			0	36997	0	0	0	29085	27680	164302	26701	1057596	45204	110813	0	0	8057	581214	0	0
2024-07-26 13:52:47			0	36998	0	0	0	29075	27690	164202	26932	1057668	45215	110809	0	0	8058	581140	0	0
2024-07-26 13:53:47			0	37000	0	0	0	29090	27690	164358	26939	1057641	45205	110815	0	0	8058	581060	0	0
2024-07-26 13:54:47			0	36978	0	0	0	29085	27680	164414	27000	1057623	45204	110813	0	0	8056	581977	0	0
2024-07-26 13:55:47			0	36988	0	0	0	29088	27680	164366	26859	1057659	45205	110814	0	0	8057	581575	0	0
2024-07-26 13:56:47			0	36974	0	0	0	29096	27680	164350	26540	1057659	45205	110817	0	0	8056	582138	0	0
2024-07-26 13:57:47			0	36980	0	0	0	29093	27680	164410	26606	1057632	45215	110816	0	0	8056	581897	0	0
2024-07-26 13:58:47			0	36984	0	0	0	29098	27700	164258	26956	1057721	45207	110818	0	0	8057	581669	0	0
2024-07-26 13:59:47			0	36982	0	0	0	29088	27690	164374	27066	1057641	45205	110814	0	0	8057	581783	0	0
2024-07-26 14:00:47			0	36986	0	0	0	29085	27690	164302	26856	1057641	45215	110813	0	0	8057	581622	0	0
2024-07-26 14:01:47			0	36986	0	0	0	29090	27700	164354	27007	1057685	45206	110815	0	0	8057	581589	0	0
2024-07-26 14:02:47			0	36972	0	0	0	29098	27690	164354	26935	1057623	45205	110818	0	0	8056	582185	0	0
2024-07-26 14:03:47			0	36970	0	0	0	29090	27690	164350	26868	1057676	45193	110815	0	0	8056	582265	0	0
2024-07-26 14:04:47			0	36996	0	0	0	29088	27690	164194	27116	1057676	45205	110814	0	0	8057	581220	0	0
2024-07-26 14:05:47			0	37006	0	0	0	29088	27700	164242	26913	1057712	45206	110814	0	0	8058	580785	0	0
2024-07-26 14:06:47			0	37016	0	0	0	29093	27700	164250	26989	1057685	45216	110816	0	0	8059	580384	0	0
2024-07-26 14:07:47			0	37042	0	0	0	29090	27690	164146	27064	1057650	45215	110815	0	0	8060	579375	0	0
2024-07-26 14:08:47			0	37056	0	0	0	29088	27700	163978	27130	1057685	45216	110814	0	0	8061	578781	0	0
2024-07-26 14:09:47			0	37065	0	0	0	29085	27680	164038	26590	1057650	45204	110813	0	0	8061	578487	0	0
2024-07-26 14:10:47			0	37092	0	0	0	29088	27690	163958	27140	1057703	45205	110814	0	0	8063	577373	0	0
2024-07-26 14:11:47			0	37070	0	0	0	29103	27690	164022	26755	1057676	45205	110820	0	0	8061	578253	0	0
2024-07-26 14:12:47			0	37066	0	0	0	29106	27690	163946	26899	1057676	45215	110821	0	0	8061	578413	0	0
2024-07-26 14:13:47			0	37055	0	0	0	29106	27700	164054	26863	1057685	45216	110821	0	0	8061	578821	0	0
2024-07-26 14:14:47			0	37049	0	0	0	29098	27700	164134	26885	1057748	45207	110818	0	0	8060	579061	0	0
2024-07-26 14:15:47			0	37034	0	0	0	29090	27700	164150	27142	1057748	45207	110815	0	0	8060	579662	0	0
2024-07-26 14:16:47			0	37016	0	0	0	29083	27700	164162	27020	1057721	45217	110812	0	0	8059	580384	0	0
2024-07-26 14:17:47			0	37055	0	0	0	29090	27700	164158	27176	1057721	45207	110815	0	0	8061	578821	0	0
2024-07-26 14:18:47			0	37095	0	0	0	29085	27700	163978	26955	1057748	45195	110813	0	0	8063	577220	0	0
2024-07-26 14:19:47			0	37086	0	0	0	29098	27700	163866	26955	1057721	45207	110818	0	0	8063	577580	0	0
2024-07-26 14:20:47			0	37086	0	0	0	29103	27700	163794	26928	1057802	45195	110820	0	0	8062	577580	0	0
2024-07-26 14:21:47			0	37104	0	0	0	29111	27710	163842	26932	1057784	45217	110823	0	0	8063	576827	0	0
2024-07-26 14:22:47			0	37107	0	0	0	29116	27700	163894	26840	1057775	45207	110825	0	0	8063	576741	0	0
2024-07-26 14:23:47			0	37085	0	0	0	29127	27710	163922	26760	1057811	45217	110829	0	0	8062	577587	0	0
2024-07-26 14:24:47			0	37066	0	0	0	29124	27700	163926	26833	1057748	45217	110828	0	0	8061	578380	0	0
2024-07-26 14:25:47			0	37074	0	0	0	29158	27710	163942	27005	1057865	45228	110841	0	0	8061	578027	0	0
2024-07-26 14:26:47			0	37073	0	0	0	29158	27720	163938	27024	1057963	45218	110841	0	0	8061	578033	0	0
2024-07-26 14:27:47			0	37080	0	0	0	29161	27730	163926	27137	1057981	45231	110842	0	0	8061	577720	0	0
2024-07-26 14:28:47			0	37068	0	0	0	29155	27730	163898	26989	1057990	45231	110840	0	0	8061	578200	0	0
2024-07-26 14:29:47			0	37059	0	0	0	29132	27740	163978	26757	1057972	45231	110831	0	0	8061	578527	0	0
2024-07-26 14:30:47			0	37079	0	0	0	29122	27740	163922	26941	1057981	45221	110827	0	0	8062	577727	0	0
2024-07-26 14:31:47			0	37063	0	0	0	29137	27740	163982	27168	1057918	45209	110833	0	0	8061	578367	0	0
2024-07-26 14:32:47			0	37059	0	0	0	29153	27740	163922	27048	1058026	45198	110839	0	0	8060	578527	0	0
2024-07-26 14:33:47			0	37039	0	0	0	29199	27740	164142	27119	1058088	45221	110857	0	0	8058	579328	0	0
2024-07-26 14:34:47			0	37053	0	0	0	29192	27750	164070	27081	1058160	45233	110854	0	0	8059	578734	0	0
2024-07-26 14:35:47			0	37045	0	0	0	29168	27760	164082	26939	1058223	45233	110845	0	0	8059	579021	0	0
2024-07-26 14:36:47			0	37062	0	0	0	29171	27760	164002	27019	1058115	45222	110846	0	0	8060	578340	0	0
2024-07-26 14:37:47			0	37036	0	0	0	29181	27750	164038	27163	1058160	45210	110850	0	0	8058	579415	0	0
2024-07-26 14:38:47			0	37027	0	0	0	29173	27750	164086	26850	1058079	45210	110847	0	0	8058	579776	0	0
2024-07-26 14:39:47			0	37031	0	0	0	29171	27750	164058	26880	1058052	45210	110846	0	0	8058	579616	0	0
2024-07-26 14:40:47			0	37043	0	0	0	29171	27770	164086	26887	1058079	45212	110846	0	0	8059	579068	0	0
2024-07-26 14:41:47			0	37018	0	0	0	29163	27760	164050	26949	1058061	45200	110843	0	0	8058	580103	0	0
2024-07-26 14:42:47			0	36989	0	0	0	29153	27760	164218	27090	1058061	45200	110839	0	0	8056	581267	0	0
2024-07-26 14:43:47			0	36987	0	0	0	29153	27760	164286	27005	1058043	45211	110839	0	0	8056	581348	0	0
2024-07-26 14:44:47			0	36977	0	0	0	29161	27760	164342	26648	1058070	45223	110842	0	0	8055	581749	0	0
2024-07-26 14:45:47			0	36952	0	0	0	29161	27760	164342	27034	1058205	45211	110842	0	0	8054	582754	0	0
2024-07-26 14:46:47			0	36950	0	0	0	29158	27770	164410	26885	1058106	45235	110841	0	0	8054	582801	0	0
2024-07-26 14:47:47			0	36938	0	0	0	29179	27770	164478	27133	1058142	45224	110849	0	0	8053	583284	0	0
2024-07-26 14:48:47			0	36909	0	0	0	29218	27780	164502	27074	1058258	45224	110864	0	0	8051	584419	0	0
2024-07-26 14:49:47			0	36899	0	0	0	29218	27780	164558	26934	1058348	45225	110864	0	0	8050	584822	0	0
2024-07-26 14:50:47			0	36905	0	0	0	29207	27790	164530	27241	1058330	45237	110860	0	0	8051	584546	0	0
2024-07-26 14:51:47			0	36912	0	0	0	29207	27790	164466	26972	1058366	45227	110860	0	0	8051	584264	0	0
2024-07-26 14:52:47			0	36907	0	0	0	29199	27800	164498	26975	1058321	45215	110857	0	0	8051	584432	0	0
2024-07-26 14:53:47			0	36919	0	0	0	29205	27820	164394	27190	1058402	45217	110859	0	0	8052	583881	0	0
2024-07-26 14:54:47			0	36924	0	0	0	29212	27810	164418	27090	1058393	45228	110862	0	0	8052	583713	0	0
2024-07-26 14:55:47			0	36921	0	0	0	29210	27820	164414	27326	1058456	45229	110861	0	0	8052	583800	0	0
2024-07-26 14:56:47			0	36923	0	0	0	29215	27810	164430	27000	1058393	45228	110863	0	0	8052	583754	0	0
2024-07-26 14:57:47			0	36918	0	0	0	29202	27820	164418	27135	1058402	45217	110858	0	0	8052	583921	0	0
2024-07-26 14:58:47			0	36915	0	0	0	29202	27810	164458	26998	1058366	45206	110858	0	0	8051	584076	0	0
2024-07-26 14:59:47			0	36910	0	0	0	29228	27820	164530	27118	1058438	45229	110868	0	0	8051	584244	0	0
2024-07-26 15:00:47			0	36877	0	0	0	29236	27810	164638	27248	1058420	45216	110871	0	0	8048	585608	0	0
2024-07-26 15:01:47			0	36872	0	0	0	29241	27810	164618	26861	1058474	45216	110873	0	0	8048	585810	0	0
2024-07-26 15:02:47			0	36861	0	0	0	29257	27830	164582	26870	1058509	45230	110879	0	0	8047	586186	0	0
2024-07-26 15:03:47			0	36865	0	0	0	29259	27830	164598	27196	1058563	45241	110880	0	0	8047	586025	0	0
2024-07-26 15:04:47			0	36852	0	0	0	29277	27840	164690	27005	1058608	45242	110887	0	0	8046	586516	0	0
2024-07-26 15:05:47			0	36854	0	0	0	29267	27840	164782	27246	1058635	45219	110883	0	0	8047	586435	0	0
2024-07-26 15:06:47			0	36867	0	0	0	29275	27850	164650	27013	1058617	45219	110886	0	0	8047	585877	0	0
2024-07-26 15:07:47			0	36843	0	0	0	29272	27860	164730	27010	1058697	45245	110885	0	0	8046	586812	0	0
2024-07-26 15:08:47			0	36835	0	0	0	29262	27870	164706	27298	1058706	45222	110881	0	0	8046	587102	0	0
2024-07-26 15:09:47			0	36841	0	0	0	29288	27860	164738	27251	1058697	45234	110891	0	0	8046	586893	0	0
2024-07-26 15:10:47			0	36828	0	0	0	29293	27860	164854	27189	1058724	45234	110893	0	0	8045	587419	0	0
2024-07-26 15:11:47			0	36835	0	0	0	29288	27870	164750	27393	1058733	45234	110891	0	0	8045	587102	0	0
2024-07-26 15:12:47			0	36821	0	0	0	29314	27870	164758	27263	1058823	45234	110901	0	0	8044	587668	0	0
2024-07-26 15:13:47			0	36836	0	0	0	29322	27890	164730	27201	1058796	45247	110904	0	0	8045	586994	0	0
2024-07-26 15:14:47			0	36822	0	0	0	29324	27880	164826	26882	1058840	45224	110905	0	0	8044	587594	0	0
2024-07-26 15:15:47			0	36833	0	0	0	29296	27890	164734	27102	1058831	45224	110894	0	0	8045	587115	0	0
2024-07-26 15:16:47			0	36840	0	0	0	29272	27890	164806	26935	1058822	45247	110885	0	0	8046	586832	0	0
2024-07-26 15:17:47			0	36829	0	0	0	29262	27890	164702	27433	1058742	45213	110881	0	0	8046	587277	0	0
2024-07-26 15:18:47			0	36848	0	0	0	29290	27890	164698	27203	1058876	45213	110892	0	0	8046	586509	0	0
2024-07-26 15:19:47			0	36835	0	0	0	29283	27900	164690	27168	1058849	45226	110889	0	0	8046	587000	0	0
2024-07-26 15:20:47			0	36853	0	0	0	29275	27900	164730	27287	1058840	45236	110886	0	0	8047	586273	0	0
2024-07-26 15:21:47			0	36845	0	0	0	29298	27900	164714	26852	1058867	45236	110895	0	0	8046	586596	0	0
2024-07-26 15:22:47			0	36837	0	0	0	29272	27900	164690	27093	1058840	45214	110885	0	0	8046	586919	0	0
2024-07-26 15:23:47			0	36833	0	0	0	29270	27900	164706	27102	1058849	45237	110884	0	0	8046	587081	0	0
2024-07-26 15:24:47			0	36840	0	0	0	29296	27900	164738	26916	1058903	45249	110894	0	0	8046	586798	0	0
2024-07-26 15:25:47			0	36831	0	0	0	29329	27910	164650	26757	1058993	45237	110907	0	0	8045	587128	0	0
2024-07-26 15:26:47			0	36829	0	0	0	29353	27920	164722	27135	1059011	45250	110916	0	0	8044	587175	0	0
2024-07-26 15:27:47			0	36829	0	0	0	29368	27920	164794	27346	1059065	45238	110922	0	0	8044	587175	0	0
2024-07-26 15:28:47			0	36829	0	0	0	29350	27940	164682	27216	1059046	45240	110915	0	0	8044	587107	0	0
2024-07-26 15:29:47			0	36840	0	0	0	29342	27930	164674	27218	1059109	45240	110912	0	0	8045	586697	0	0
2024-07-26 15:30:47			0	36849	0	0	0	29327	27940	164682	27083	1059109	45230	110906	0	0	8046	586299	0	0
2024-07-26 15:31:47			0	36873	0	0	0	29324	27940	164506	27260	1059046	45229	110905	0	0	8047	585331	0	0
2024-07-26 15:32:47			0	36852	0	0	0	29314	27950	164570	27272	1059064	45231	110901	0	0	8046	586144	0	0
2024-07-26 15:33:47			0	36881	0	0	0	29368	27940	164466	27390	1059073	45218	110922	0	0	8047	585008	0	0
2024-07-26 15:34:47			0	36889	0	0	0	29399	27950	164530	27352	1059172	45242	110934	0	0	8047	584652	0	0
2024-07-26 15:35:47			0	36877	0	0	0	29368	27950	164374	27183	1059262	45219	110922	0	0	8047	585136	0	0
2024-07-26 15:36:47			0	36908	0	0	0	29374	27960	164258	27131	1059217	45231	110924	0	0	8049	583853	0	0
2024-07-26 15:37:47			0	36932	0	0	0	29355	27960	164206	27157	1059226	45232	110917	0	0	8050	582887	0	0
2024-07-26 15:38:47			0	36933	0	0	0	29374	27960	164094	27043	1059226	45220	110924	0	0	8050	582847	0	0
2024-07-26 15:39:47			0	36943	0	0	0	29371	27960	164086	26998	1059217	45231	110923	0	0	8051	582445	0	0
2024-07-26 15:40:47			0	36943	0	0	0	29379	27960	164178	27293	1059172	45243	110926	0	0	8051	582445	0	0
2024-07-26 15:41:47			0	36943	0	0	0	29407	27980	164202	27176	1059306	45244	110937	0	0	8050	582378	0	0
2024-07-26 15:42:47			0	36955	0	0	0	29433	27990	164138	27046	1059414	45257	110947	0	0	8051	581862	0	0
2024-07-26 15:43:47			0	36950	0	0	0	29407	27990	164034	27137	1059387	45246	110937	0	0	8051	582063	0	0
2024-07-26 15:44:47			0	36958	0	0	0	29415	28000	164130	27353	1059530	45236	110940	0	0	8051	581708	0	0
2024-07-26 15:45:47			0	36944	0	0	0	29428	28000	164010	27230	1059423	45257	110945	0	0	8050	582270	0	0
2024-07-26 15:46:47			0	36956	0	0	0	29399	28010	163938	27157	1059557	45238	110934	0	0	8051	581754	0	0
2024-07-26 15:47:47			0	36975	0	0	0	29381	28000	164074	27076	1059458	45224	110927	0	0	8053	581025	0	0
2024-07-26 15:48:47			0	36983	0	0	0	29350	28000	163850	27138	1059378	45224	110915	0	0	8054	580704	0	0
2024-07-26 15:49:47			0	37010	0	0	0	29337	28000	163794	27131	1059351	45213	110910	0	0	8056	579622	0	0
2024-07-26 15:50:47			0	37030	0	0	0	29332	28000	163862	27062	1059342	45236	110908	0	0	8057	578821	0	0
2024-07-26 15:51:47			0	37026	0	0	0	29329	27990	163798	27317	1059225	45202	110907	0	0	8057	579014	0	0
2024-07-26 15:52:47			0	37018	0	0	0	29340	27990	163810	27159	1059270	45223	110911	0	0	8056	579335	0	0
2024-07-26 15:53:47			0	37025	0	0	0	29361	27990	163806	27043	1059216	45235	110919	0	0	8056	579054	0	0
2024-07-26 15:54:47			0	36996	0	0	0	29394	28000	163874	27005	1059342	45236	110932	0	0	8054	580183	0	0
2024-07-26 15:55:47			0	36981	0	0	0	29420	27990	163930	27176	1059387	45235	110942	0	0	8052	580818	0	0
2024-07-26 15:56:47			0	36992	0	0	0	29399	28000	163946	27267	1059405	45247	110934	0	0	8053	580343	0	0
2024-07-26 15:57:47			0	36988	0	0	0	29392	28010	163922	27137	1059440	45248	110931	0	0	8053	580470	0	0
2024-07-26 15:58:47			0	36965	0	0	0	29389	28010	163898	27107	1059467	45214	110930	0	0	8052	581393	0	0
2024-07-26 15:59:47			0	36978	0	0	0	29337	28010	163838	26923	1059360	45225	110910	0	0	8054	580871	0	0
2024-07-26 16:00:47			0	36990	0	0	0	29311	28000	163990	26805	1059234	45224	110900	0	0	8055	580423	0	0
2024-07-26 16:01:47			0	36967	0	0	0	29319	27990	164058	26968	1059279	45212	110903	0	0	8053	581380	0	0
2024-07-26 16:02:47			0	36957	0	0	0	29324	27970	164102	27336	1059181	45200	110905	0	0	8052	581849	0	0
2024-07-26 16:03:47			0	36941	0	0	0	29327	27980	164218	27149	1059199	45221	110906	0	0	8052	582458	0	0
2024-07-26 16:04:47			0	36901	0	0	0	29337	27970	164266	26906	1059181	45221	110910	0	0	8049	584101	0	0
2024-07-26 16:05:47			0	36902	0	0	0	29327	27960	164354	27067	1059109	45219	110906	0	0	8049	584095	0	0
2024-07-26 16:06:47			0	36883	0	0	0	29327	27960	164422	27114	1059145	45232	110906	0	0	8048	584860	0	0
2024-07-26 16:07:47			0	36869	0	0	0	29337	27960	164394	27164	1059199	45220	110910	0	0	8047	585425	0	0
2024-07-26 16:08:47			0	36858	0	0	0	29361	27960	164554	26873	1059199	45243	110919	0	0	8046	585868	0	0
2024-07-26 16:09:47			0	36872	0	0	0	29379	27960	164578	26975	1059226	45243	110926	0	0	8046	585303	0	0
2024-07-26 16:10:47			0	36864	0	0	0	29392	27960	164534	26894	1059324	45231	110931	0	0	8046	585626	0	0
2024-07-26 16:11:47			0	36852	0	0	0	29386	27980	164558	27126	1059387	45244	110929	0	0	8045	586043	0	0
2024-07-26 16:12:47			0	36872	0	0	0	29412	27990	164494	27019	1059432	45268	110939	0	0	8046	585202	0	0
2024-07-26 16:13:47			0	36858	0	0	0	29405	27990	164522	27123	1059414	45246	110936	0	0	8045	585767	0	0
2024-07-26 16:14:47			0	36875	0	0	0	29397	28000	164450	26928	1059423	45247	110933	0	0	8047	585048	0	0
2024-07-26 16:15:47			0	36868	0	0	0	29392	28000	164430	27379	1059423	45257	110931	0	0	8046	585330	0	0
2024-07-26 16:16:47			0	36882	0	0	0	29384	28000	164418	27112	1059396	45257	110928	0	0	8047	584765	0	0
2024-07-26 16:17:47			0	36897	0	0	0	29386	28000	164394	26937	1059378	45236	110929	0	0	8048	584161	0	0
2024-07-26 16:18:47			0	36910	0	0	0	29402	27990	164270	27022	1059387	45235	110935	0	0	8048	583671	0	0
2024-07-26 16:19:47			0	36919	0	0	0	29438	28010	164258	27102	1059467	45248	110949	0	0	8049	583242	0	0
2024-07-26 16:20:47			0	36947	0	0	0	29428	28010	164262	26861	1059557	45249	110945	0	0	8050	582116	0	0
2024-07-26 16:21:47			0	36963	0	0	0	29420	28010	164142	26977	1059557	45249	110942	0	0	8051	581473	0	0
2024-07-26 16:22:47			0	36979	0	0	0	29415	28010	164106	27083	1059584	45238	110940	0	0	8052	580831	0	0
2024-07-26 16:23:47			0	37012	0	0	0	29412	28010	164018	26781	1059557	45249	110939	0	0	8054	579508	0	0
2024-07-26 16:24:47			0	37016	0	0	0	29410	28010	163942	27255	1059530	45249	110938	0	0	8055	579348	0	0
2024-07-26 16:25:47			0	37016	0	0	0	29412	28020	163926	26826	1059458	45259	110939	0	0	8055	579315	0	0
2024-07-26 16:26:47			0	37030	0	0	0	29441	28020	163810	27059	1059494	45226	110950	0	0	8055	578754	0	0
2024-07-26 16:27:47			0	37030	0	0	0	29477	28020	163882	27254	1059620	45249	110964	0	0	8054	578754	0	0
2024-07-26 16:28:47			0	37052	0	0	0	29475	28030	163838	27163	1059728	45261	110963	0	0	8056	577841	0	0
2024-07-26 16:29:47			0	37048	0	0	0	29470	28040	163686	27242	1059710	45250	110961	0	0	8056	577967	0	0
2024-07-26 16:30:47			0	37075	0	0	0	29457	28050	163698	27183	1059701	45241	110956	0	0	8058	576855	0	0
2024-07-26 16:31:47			0	37098	0	0	0	29444	28050	163446	27008	1059763	45230	110951	0	0	8059	575937	0	0
2024-07-26 16:32:47			0	37102	0	0	0	29433	28040	163390	27447	1059638	45240	110947	0	0	8059	575811	0	0
2024-07-26 16:33:47			0	37112	0	0	0	29464	28050	163438	26889	1059674	45241	110959	0	0	8060	575379	0	0
2024-07-26 16:34:47			0	37088	0	0	0	29490	28050	163562	26859	1059709	45242	110969	0	0	8058	576336	0	0
2024-07-26 16:35:47			0	37108	0	0	0	29472	28050	163646	26868	1059736	45252	110962	0	0	8059	575538	0	0
2024-07-26 16:36:47			0	37092	0	0	0	29483	28060	163474	26902	1059772	45252	110966	0	0	8058	576143	0	0
2024-07-26 16:37:47			0	37113	0	0	0	29462	28060	163358	26696	1059835	45264	110958	0	0	8060	575306	0	0
2024-07-26 16:38:47			0	37130	0	0	0	29472	28060	163350	26882	1059808	45242	110962	0	0	8061	574628	0	0
2024-07-26 16:39:47			0	37131	0	0	0	29464	28050	163330	26968	1059709	45252	110959	0	0	8061	574622	0	0
2024-07-26 16:40:47			0	37154	0	0	0	29449	28070	163274	26880	1059790	45242	110953	0	0	8062	573640	0	0
2024-07-26 16:41:47			0	37155	0	0	0	29444	28070	163318	26781	1059745	45243	110951	0	0	8063	573600	0	0
2024-07-26 16:42:47			0	37135	0	0	0	29454	28060	163302	27074	1059799	45252	110955	0	0	8061	574429	0	0
2024-07-26 16:43:47			0	37123	0	0	0	29454	28060	163326	26942	1059781	45242	110955	0	0	8060	574907	0	0
2024-07-26 16:44:47			0	37122	0	0	0	29462	28060	163354	27020	1059772	45252	110958	0	0	8060	574947	0	0
2024-07-26 16:45:47			0	37131	0	0	0	29462	28060	163302	26961	1059772	45230	110958	0	0	8061	574589	0	0
2024-07-26 16:46:47			0	37160	0	0	0	29454	28070	163234	26599	1059790	45242	110955	0	0	8063	573401	0	0
2024-07-26 16:47:47			0	37167	0	0	0	29459	28070	163206	27066	1059709	45242	110957	0	0	8063	573123	0	0
2024-07-26 16:48:47			0	37171	0	0	0	29490	28070	163126	27092	1059817	45231	110969	0	0	8063	572964	0	0
2024-07-26 16:49:47			0	37166	0	0	0	29457	28070	163086	27417	1059763	45242	110956	0	0	8063	573163	0	0
2024-07-26 16:50:47			0	37183	0	0	0	29444	28070	163150	26998	1059772	45254	110951	0	0	8064	572487	0	0
2024-07-26 16:51:47			0	37178	0	0	0	29462	28080	163182	27059	1059862	45243	110958	0	0	8064	572652	0	0
2024-07-26 16:52:47			0	37179	0	0	0	29472	28060	163098	27204	1059808	45242	110962	0	0	8063	572679	0	0
2024-07-26 16:53:47			0	37178	0	0	0	29444	28070	163266	27157	1059763	45264	110951	0	0	8064	572686	0	0
2024-07-26 16:54:47			0	37159	0	0	0	29436	28070	163138	26981	1059790	45242	110948	0	0	8063	573441	0	0
2024-07-26 16:55:47			0	37137	0	0	0	29444	28060	163170	26939	1059727	45242	110951	0	0	8061	574350	0	0
2024-07-26 16:56:47			0	37124	0	0	0	29464	28060	163370	26771	1059772	45230	110959	0	0	8060	574867	0	0
2024-07-26 16:57:47			0	37111	0	0	0	29477	28070	163454	26816	1059826	45254	110964	0	0	8059	575352	0	0
2024-07-26 16:58:47			0	37138	0	0	0	29488	28070	163350	26816	1059853	45243	110968	0	0	8061	574277	0	0
2024-07-26 16:59:47			0	37145	0	0	0	29464	28070	163346	26762	1059826	45254	110959	0	0	8062	573998	0	0
2024-07-26 17:00:47			0	37142	0	0	0	29462	28080	163242	26876	1059871	45244	110958	0	0	8062	574084	0	0
2024-07-26 17:01:47			0	37122	0	0	0	29488	28080	163274	26571	1059925	45266	110968	0	0	8060	574881	0	0
2024-07-26 17:02:47			0	37128	0	0	0	29488	28090	163386	26582	1059933	45255	110968	0	0	8060	574609	0	0
2024-07-26 17:03:47			0	37114	0	0	0	29490	28090	163414	26876	1059942	45267	110969	0	0	8059	575166	0	0
2024-07-26 17:04:47			0	37097	0	0	0	29493	28090	163602	27043	1059996	45256	110970	0	0	8058	575844	0	0
2024-07-26 17:05:47			0	37078	0	0	0	29548	28090	163542	27086	1060041	45266	110991	0	0	8056	576602	0	0
2024-07-26 17:06:47			0	37089	0	0	0	29566	28110	163590	27050	1060122	45280	110998	0	0	8057	576097	0	0
2024-07-26 17:07:47			0	37082	0	0	0	29524	28120	163634	26987	1060229	45282	110982	0	0	8057	576343	0	0
2024-07-26 17:08:47			0	37076	0	0	0	29532	28130	163714	27157	1060157	45248	110985	0	0	8057	576549	0	0
2024-07-26 17:09:47			0	37079	0	0	0	29522	28130	163710	27246	1060077	45259	110981	0	0	8057	576429	0	0
2024-07-26 17:10:47			0	37050	0	0	0	29506	28120	163646	27088	1060122	45248	110975	0	0	8056	577621	0	0
2024-07-26 17:11:47			0	37050	0	0	0	29490	28130	163786	26854	1060050	45237	110969	0	0	8056	577587	0	0
2024-07-26 17:12:47			0	37040	0	0	0	29485	28120	163770	27066	1060095	45259	110967	0	0	8055	578020	0	0
2024-07-26 17:13:47			0	37030	0	0	0	29490	28130	163798	27069	1060077	45248	110969	0	0	8055	578387	0	0
2024-07-26 17:14:47			0	37048	0	0	0	29493	28120	163642	27209	1060068	45237	110970	0	0	8056	577700	0	0
2024-07-26 17:15:47			0	37065	0	0	0	29516	28120	163638	27308	1060095	45259	110979	0	0	8056	577021	0	0
2024-07-26 17:16:47			0	37048	0	0	0	29516	28110	163566	27287	1060023	45258	110979	0	0	8055	577734	0	0
2024-07-26 17:17:47			0	37060	0	0	0	29514	28120	163578	27055	1060095	45248	110978	0	0	8056	577221	0	0
2024-07-26 17:18:47			0	37073	0	0	0	29516	28120	163674	27064	1060113	45269	110979	0	0	8057	576702	0	0
2024-07-26 17:19:47			0	37081	0	0	0	29514	28120	163594	27338	1060068	45248	110978	0	0	8057	576382	0	0
2024-07-26 17:20:47			0	37093	0	0	0	29522	28120	163522	27109	1060059	45247	110981	0	0	8058	575904	0	0
2024-07-26 17:21:47			0	37108	0	0	0	29519	28120	163558	27203	1060095	45248	110980	0	0	8059	575306	0	0
2024-07-26 17:22:47			0	37101	0	0	0	29542	28130	163478	27121	1060157	45259	110989	0	0	8058	575552	0	0
2024-07-26 17:23:47			0	37130	0	0	0	29579	28130	163490	27076	1060139	45271	111003	0	0	8059	574396	0	0
2024-07-26 17:24:47			0	37087	0	0	0	29586	28140	163482	26965	1060283	45271	111006	0	0	8056	576077	0	0
2024-07-26 17:25:47			0	37100	0	0	0	29553	28150	163470	27086	1060328	45272	110993	0	0	8058	575525	0	0
2024-07-26 17:26:47			0	37090	0	0	0	29548	28160	163374	26753	1060301	45274	110991	0	0	8057	575891	0	0
2024-07-26 17:27:47			0	37118	0	0	0	29545	28150	163382	26764	1060202	45250	110990	0	0	8059	574808	0	0
2024-07-26 17:28:47			0	37105	0	0	0	29540	28150	163466	26970	1060220	45250	110988	0	0	8058	575326	0	0
2024-07-26 17:29:47			0	37093	0	0	0	29532	28140	163482	27267	1060157	45239	110985	0	0	8058	575837	0	0
2024-07-26 17:30:47			0	37074	0	0	0	29540	28150	163478	27083	1060256	45250	110988	0	0	8057	576562	0	0
2024-07-26 17:31:47			0	37077	0	0	0	29535	28150	163538	27237	1060148	45262	110986	0	0	8057	576442	0	0
2024-07-26 17:32:47			0	37080	0	0	0	29535	28150	163534	27249	1060229	45250	110986	0	0	8057	576323	0	0
2024-07-26 17:33:47			0	37067	0	0	0	29535	28140	163546	27431	1060238	45239	110986	0	0	8056	576875	0	0
2024-07-26 17:34:47			0	37040	0	0	0	29522	28150	163602	26727	1060193	45250	110981	0	0	8055	577920	0	0
2024-07-26 17:35:47			0	37029	0	0	0	29522	28150	163698	27081	1060247	45239	110981	0	0	8054	578360	0	0
2024-07-26 17:36:47			0	37025	0	0	0	29542	28160	163758	27190	1060211	45250	110989	0	0	8054	578487	0	0
2024-07-26 17:37:47			0	37013	0	0	0	29555	28150	163858	27402	1060202	45262	110994	0	0	8053	579000	0	0
2024-07-26 17:38:47			0	36994	0	0	0	29558	28150	163930	27379	1060256	45262	110995	0	0	8052	579761	0	0
2024-07-26 17:39:47			0	36987	0	0	0	29550	28160	163946	26982	1060211	45250	110992	0	0	8051	580008	0	0
2024-07-26 17:40:47			0	36998	0	0	0	29527	28150	164014	27171	1060202	45250	110983	0	0	8052	579601	0	0
2024-07-26 17:41:47			0	36998	0	0	0	29524	28150	163842	27182	1060193	45250	110982	0	0	8052	579601	0	0
2024-07-26 17:42:47			0	37016	0	0	0	29527	28150	163766	27083	1060202	45250	110983	0	0	8053	578880	0	0
2024-07-26 17:43:47			0	37026	0	0	0	29516	28140	163770	27168	1060175	45238	110979	0	0	8054	578513	0	0
2024-07-26 17:44:47			0	37035	0	0	0	29527	28140	163734	27079	1060157	45261	110983	0	0	8054	578154	0	0
2024-07-26 17:45:47			0	37028	0	0	0	29524	28140	163598	27332	1060175	45249	110982	0	0	8054	578433	0	0
2024-07-26 17:46:47			0	37041	0	0	0	29524	28140	163746	27329	1060211	45250	110982	0	0	8055	577914	0	0
2024-07-26 17:47:47			0	37044	0	0	0	29527	28150	163626	26996	1060193	45250	110983	0	0	8055	577760	0	0
2024-07-26 17:48:47			0	37025	0	0	0	29522	28140	163674	27135	1060175	45249	110981	0	0	8054	578553	0	0
2024-07-26 17:49:47			0	37022	0	0	0	29511	28150	163750	27379	1060166	45239	110977	0	0	8054	578640	0	0
2024-07-26 17:50:47			0	37040	0	0	0	29506	28130	163718	27204	1060193	45260	110975	0	0	8055	577987	0	0
2024-07-26 17:51:47			0	37034	0	0	0	29511	28130	163710	27452	1060139	45249	110977	0	0	8055	578227	0	0
2024-07-26 17:52:47			0	37025	0	0	0	29524	28140	163726	27343	1060148	45260	110982	0	0	8054	578553	0	0
2024-07-26 17:53:47			0	37001	0	0	0	29522	28150	163806	27204	1060166	45272	110981	0	0	8053	579481	0	0
2024-07-26 17:54:47			0	37015	0	0	0	29524	28130	163782	27090	1060130	45248	110982	0	0	8053	578987	0	0
2024-07-26 17:55:47			0	37015	0	0	0	29527	28130	163786	27360	1060104	45259	110983	0	0	8053	578987	0	0
2024-07-26 17:56:47			0	37013	0	0	0	29529	28130	163770	27229	1060130	45248	110984	0	0	8053	579067	0	0
2024-07-26 17:57:47			0	36990	0	0	0	29529	28130	163862	26622	1060157	45248	110984	0	0	8052	579988	0	0
2024-07-26 17:58:47			0	36995	0	0	0	29535	28140	163906	27350	1060175	45238	110986	0	0	8052	579755	0	0
2024-07-26 17:59:47			0	36974	0	0	0	29532	28140	163946	26908	1060175	45249	110985	0	0	8051	580596	0	0
2024-07-26 18:00:47			0	36973	0	0	0	29527	28140	163926	27131	1060202	45260	110983	0	0	8051	580636	0	0
2024-07-26 18:01:47			0	36956	0	0	0	29529	28130	164058	26977	1060193	45260	110984	0	0	8050	581352	0	0
2024-07-26 18:02:47			0	36966	0	0	0	29524	28130	163990	26885	1060112	45249	110982	0	0	8050	580951	0	0
2024-07-26 18:03:47			0	36962	0	0	0	29527	28130	164022	27130	1060112	45249	110983	0	0	8050	581111	0	0
2024-07-26 18:04:47			0	36952	0	0	0	29535	28130	163986	27171	1060166	45249	110986	0	0	8049	581512	0	0
2024-07-26 18:05:47			0	36925	0	0	0	29532	28140	164062	27235	1060175	45249	110985	0	0	8048	582563	0	0
2024-07-26 18:06:47			0	36896	0	0	0	29529	28140	164182	26906	1060184	45250	110984	0	0	8046	583730	0	0
2024-07-26 18:07:47			0	36914	0	0	0	29535	28140	164270	27374	1060211	45261	110986	0	0	8047	583005	0	0
2024-07-26 18:08:47			0	36924	0	0	0	29537	28140	164254	27211	1060184	45250	110987	0	0	8048	582603	0	0
2024-07-26 18:09:47			0	36876	0	0	0	29535	28130	164258	27241	1060166	45271	110986	0	0	8045	584569	0	0
2024-07-26 18:10:47			0	36891	0	0	0	29542	28130	164274	26802	1060166	45238	110989	0	0	8046	583965	0	0
2024-07-26 18:11:47			0	36914	0	0	0	29540	28150	164058	27332	1060229	45262	110988	0	0	8047	582972	0	0
2024-07-26 18:12:47			0	36926	0	0	0	29540	28140	164042	27163	1060238	45272	110988	0	0	8048	582523	0	0
2024-07-26 18:13:47			0	36933	0	0	0	29542	28140	163978	26870	1060148	45260	110989	0	0	8048	582242	0	0
2024-07-26 18:14:47			0	36951	0	0	0	29535	28150	163986	26812	1060256	45262	110986	0	0	8049	581485	0	0
2024-07-26 18:15:47			0	36938	0	0	0	29537	28150	164010	26961	1060166	45261	110987	0	0	8049	582007	0	0
2024-07-26 18:16:47			0	36934	0	0	0	29542	28140	163986	27131	1060238	45272	110989	0	0	8048	582202	0	0
2024-07-26 18:17:47			0	36928	0	0	0	29535	28150	164038	26842	1060220	45239	110986	0	0	8048	582409	0	0
2024-07-26 18:18:47			0	36926	0	0	0	29532	28140	164030	27159	1060229	45238	110985	0	0	8048	582523	0	0
2024-07-26 18:19:47			0	36911	0	0	0	29540	28140	164146	27263	1060157	45261	110988	0	0	8047	583126	0	0
2024-07-26 18:20:47			0	36893	0	0	0	29542	28140	164162	26682	1060211	45261	110989	0	0	8046	583850	0	0
2024-07-26 18:21:47			0	36881	0	0	0	29542	28150	164238	26987	1060247	45272	110989	0	0	8045	584300	0	0
2024-07-26 18:22:47			0	36891	0	0	0	29542	28140	164194	27121	1060265	45261	110989	0	0	8046	583931	0	0
2024-07-26 18:23:47			0	36883	0	0	0	29550	28150	164210	27159	1060256	45250	110992	0	0	8045	584219	0	0
2024-07-26 18:24:47			0	36875	0	0	0	29542	28140	164266	27163	1060238	45261	110989	0	0	8045	584575	0	0
2024-07-26 18:25:47			0	36879	0	0	0	29550	28150	164254	27131	1060247	45261	110992	0	0	8045	584380	0	0
2024-07-26 18:26:47			0	36863	0	0	0	29550	28150	164262	27147	1060220	45250	110992	0	0	8044	585025	0	0
2024-07-26 18:27:47			0	36851	0	0	0	29553	28150	164402	27043	1060220	45250	110993	0	0	8043	585509	0	0
2024-07-26 18:28:47			0	36829	0	0	0	29550	28150	164406	27171	1060247	45261	110992	0	0	8042	586396	0	0
2024-07-26 18:29:47			0	36822	0	0	0	29553	28150	164402	26852	1060220	45261	110993	0	0	8042	586679	0	0
2024-07-26 18:30:47			0	36824	0	0	0	29545	28160	164534	27149	1060247	45263	110990	0	0	8042	586564	0	0
2024-07-26 18:31:47			0	36825	0	0	0	29542	28150	164442	27173	1060256	45273	110989	0	0	8042	586558	0	0
2024-07-26 18:32:47			0	36808	0	0	0	29542	28150	164530	26951	1060220	45272	110989	0	0	8041	587245	0	0
2024-07-26 18:33:47			0	36811	0	0	0	29548	28150	164490	27220	1060256	45273	110991	0	0	8041	587123	0	0
2024-07-26 18:34:47			0	36813	0	0	0	29555	28150	164458	27050	1060256	45262	110994	0	0	8041	587043	0	0
2024-07-26 18:35:47			0	36810	0	0	0	29548	28150	164518	27253	1060310	45262	110991	0	0	8041	587164	0	0
2024-07-26 18:36:47			0	36833	0	0	0	29545	28150	164506	26899	1060247	45261	110990	0	0	8042	586235	0	0
2024-07-26 18:37:47			0	36833	0	0	0	29529	28160	164462	26861	1060265	45250	110984	0	0	8043	586201	0	0
2024-07-26 18:38:47			0	36841	0	0	0	29532	28140	164394	26649	1060238	45261	110985	0	0	8043	585946	0	0
2024-07-26 18:39:47			0	36853	0	0	0	29514	28150	164326	26719	1060193	45261	110978	0	0	8044	585428	0	0
2024-07-26 18:40:47			0	36846	0	0	0	29516	28140	164386	27033	1060211	45239	110979	0	0	8044	585744	0	0
2024-07-26 18:41:47			0	36853	0	0	0	29509	28140	164366	26743	1060148	45249	110976	0	0	8044	585462	0	0
2024-07-26 18:42:47			0	36847	0	0	0	29527	28130	164382	26804	1060184	45248	110983	0	0	8043	585738	0	0
2024-07-26 18:43:47			0	36838	0	0	0	29522	28130	164394	27079	1060166	45260	110981	0	0	8043	586101	0	0
2024-07-26 18:44:47			0	36844	0	0	0	29511	28130	164442	27228	1060112	45271	110977	0	0	8043	585859	0	0
2024-07-26 18:45:47			0	36854	0	0	0	29503	28130	164406	27137	1060104	45259	110974	0	0	8044	585455	0	0
2024-07-26 18:46:47			0	36834	0	0	0	29501	28130	164386	26811	1060139	45271	110973	0	0	8043	586262	0	0
2024-07-26 18:47:47			0	36845	0	0	0	29501	28120	164450	27248	1060122	45248	110973	0	0	8044	585852	0	0
2024-07-26 18:48:47			0	36851	0	0	0	29501	28120	164430	27137	1060068	45237	110973	0	0	8044	585610	0	0
2024-07-26 18:49:47			0	36862	0	0	0	29490	28120	164346	27216	1060041	45259	110969	0	0	8045	585167	0	0
2024-07-26 18:50:47			0	36871	0	0	0	29485	28120	164370	27157	1060068	45259	110967	0	0	8045	584804	0	0
2024-07-26 18:51:47			0	36865	0	0	0	29480	28120	164358	27010	1059978	45258	110965	0	0	8045	585046	0	0
2024-07-26 18:52:47			0	36844	0	0	0	29483	28110	164350	27187	1060050	45258	110966	0	0	8044	585926	0	0
2024-07-26 18:53:47			0	36844	0	0	0	29488	28110	164418	27017	1060014	45257	110968	0	0	8044	585926	0	0
2024-07-26 18:54:47			0	36836	0	0	0	29498	28100	164470	27019	1060032	45268	110972	0	0	8043	586283	0	0
2024-07-26 18:55:47			0	36844	0	0	0	29493	28110	164498	27048	1060014	45257	110970	0	0	8044	585926	0	0
2024-07-26 18:56:47			0	36843	0	0	0	29488	28110	164562	27241	1060014	45235	110968	0	0	8044	585967	0	0
2024-07-26 18:57:47			0	36823	0	0	0	29475	28110	164526	26986	1060014	45246	110963	0	0	8043	586774	0	0
2024-07-26 18:58:47			0	36813	0	0	0	29477	28100	164662	26847	1059951	45257	110964	0	0	8042	587212	0	0
2024-07-26 18:59:47			0	36822	0	0	0	29472	28080	164602	27216	1059951	45255	110962	0	0	8043	586916	0	0
2024-07-26 19:00:47			0	36799	0	0	0	29480	28090	164606	27433	1059942	45245	110965	0	0	8041	587812	0	0
2024-07-26 19:01:47			0	36798	0	0	0	29485	28090	164686	27074	1059942	45245	110967	0	0	8041	587852	0	0
2024-07-26 19:02:47			0	36776	0	0	0	29475	28090	164630	27118	1059987	45255	110963	0	0	8040	588742	0	0
2024-07-26 19:03:47			0	36783	0	0	0	29431	28080	164758	27225	1059871	45255	110946	0	0	8041	588493	0	0
2024-07-26 19:04:47			0	36752	0	0	0	29459	28080	164790	26828	1059835	45254	110957	0	0	8039	589749	0	0
2024-07-26 19:05:47			0	36762	0	0	0	29470	28080	164806	27258	1059898	45255	110961	0	0	8039	589343	0	0
2024-07-26 19:06:47			0	36756	0	0	0	29467	28080	164722	26981	1059898	45255	110960	0	0	8039	589587	0	0
2024-07-26 19:07:47			0	36762	0	0	0	29470	28080	164738	27281	1059943	45254	110961	0	0	8039	589343	0	0
2024-07-26 19:08:47			0	36766	0	0	0	29475	28080	164794	27088	1059862	45254	110963	0	0	8039	589181	0	0
2024-07-26 19:09:47			0	36768	0	0	0	29472	28070	164822	27357	1059934	45254	110962	0	0	8039	589134	0	0
2024-07-26 19:10:47			0	36780	0	0	0	29470	28060	164926	27012	1059862	45253	110961	0	0	8040	588683	0	0
2024-07-26 19:11:47			0	36780	0	0	0	29467	28080	164754	27246	1059871	45266	110960	0	0	8040	588615	0	0
2024-07-26 19:12:47			0	36788	0	0	0	29459	28080	164798	27306	1059916	45254	110957	0	0	8041	588291	0	0
2024-07-26 19:13:47			0	36779	0	0	0	29464	28070	164798	26863	1059844	45253	110959	0	0	8040	588689	0	0
2024-07-26 19:14:47			0	36776	0	0	0	29464	28070	164794	27019	1059853	45254	110959	0	0	8040	588810	0	0
2024-07-26 19:15:47			0	36764	0	0	0	29475	28070	164718	27078	1059826	45254	110963	0	0	8039	589296	0	0
2024-07-26 19:16:47			0	36787	0	0	0	29475	28070	164810	26923	1059925	45242	110963	0	0	8040	588365	0	0
2024-07-26 19:17:47			0	36798	0	0	0	29454	28060	164754	27192	1059835	45264	110955	0	0	8041	587954	0	0
2024-07-26 19:18:47			0	36810	0	0	0	29441	28070	164682	27223	1059817	45242	110950	0	0	8042	587435	0	0
2024-07-26 19:19:47			0	36797	0	0	0	29436	28070	164614	27036	1059799	45265	110948	0	0	8042	587961	0	0
2024-07-26 19:20:47			0	36813	0	0	0	29425	28060	164774	27149	1059808	45253	110944	0	0	8043	587348	0	0
2024-07-26 19:21:47			0	36794	0	0	0	29436	28050	164766	26970	1059736	45230	110948	0	0	8041	588150	0	0
2024-07-26 19:22:47			0	36765	0	0	0	29446	28050	164802	27078	1059808	45251	110952	0	0	8039	589324	0	0
2024-07-26 19:23:47			0	36758	0	0	0	29441	28050	164946	26925	1059808	45229	110950	0	0	8039	589608	0	0
2024-07-26 19:24:47			0	36774	0	0	0	29444	28050	164898	26984	1059790	45242	110951	0	0	8040	588959	0	0
2024-07-26 19:25:47			0	36799	0	0	0	29444	28050	164766	27199	1059754	45274	110951	0	0	8042	587948	0	0
2024-07-26 19:26:47			0	36796	0	0	0	29436	28040	164678	26887	1059719	45261	110948	0	0	8041	588103	0	0
2024-07-26 19:27:47			0	36792	0	0	0	29431	28050	164722	26840	1059808	45262	110946	0	0	8041	588231	0	0
2024-07-26 19:28:47			0	36795	0	0	0	29407	28050	164686	26795	1059736	45252	110937	0	0	8042	588109	0	0
2024-07-26 19:29:47			0	36781	0	0	0	29412	28050	164798	27225	1059701	45251	110939	0	0	8041	588676	0	0
2024-07-26 19:30:47			0	36794	0	0	0	29423	28040	164846	26857	1059665	45250	110943	0	0	8042	588184	0	0
2024-07-26 19:31:47			0	36769	0	0	0	29423	28040	164858	27074	1059745	45250	110943	0	0	8040	589196	0	0
2024-07-26 19:32:47			0	36765	0	0	0	29420	28040	164826	26660	1059656	45250	110942	0	0	8040	589358	0	0
2024-07-26 19:33:47			0	36737	0	0	0	29407	28040	164922	26986	1059656	45250	110937	0	0	8038	590493	0	0
2024-07-26 19:34:47			0	36739	0	0	0	29431	28030	165030	26930	1059691	45250	110946	0	0	8038	590446	0	0
2024-07-26 19:35:47			0	36721	0	0	0	29438	28040	165054	26817	1059683	45273	110949	0	0	8037	591142	0	0
2024-07-26 19:36:47			0	36718	0	0	0	29444	28050	165158	26759	1059709	45263	110951	0	0	8037	591230	0	0
2024-07-26 19:37:47			0	36715	0	0	0	29441	28040	165150	26902	1059763	45261	110950	0	0	8037	591386	0	0
2024-07-26 19:38:47			0	36711	0	0	0	29441	28030	165090	27027	1059674	45250	110950	0	0	8036	591583	0	0
2024-07-26 19:39:47			0	36703	0	0	0	29441	28040	165250	27078	1059763	45273	110950	0	0	8036	591873	0	0
2024-07-26 19:40:47			0	36702	0	0	0	29444	28040	165250	27111	1059790	45250	110951	0	0	8036	591914	0	0
2024-07-26 19:41:47			0	36700	0	0	0	29444	28040	165158	27066	1059817	45261	110951	0	0	8036	591995	0	0
2024-07-26 19:42:47			0	36707	0	0	0	29441	28040	165078	27024	1059772	45261	110950	0	0	8036	591711	0	0
2024-07-26 19:43:47			0	36746	0	0	0	29438	28030	165022	27062	1059674	45250	110949	0	0	8038	590162	0	0
2024-07-26 19:44:47			0	36743	0	0	0	29441	28040	165102	26906	1059710	45261	110950	0	0	8038	590250	0	0
2024-07-26 19:45:47			0	36743	0	0	0	29441	28040	165082	26785	1059826	45250	110950	0	0	8038	590250	0	0
2024-07-26 19:46:47			0	36725	0	0	0	29446	28050	165122	27213	1059736	45252	110952	0	0	8037	590946	0	0
2024-07-26 19:47:47			0	36707	0	0	0	29444	28040	165074	27131	1059710	45250	110951	0	0	8036	591711	0	0
2024-07-26 19:48:47			0	36725	0	0	0	29438	28030	165134	26771	1059691	45250	110949	0	0	8037	591014	0	0
2024-07-26 19:49:47			0	36733	0	0	0	29420	28040	165146	26717	1059737	45261	110942	0	0	8038	590655	0	0
2024-07-26 19:50:47			0	36730	0	0	0	29410	28040	165114	27046	1059710	45261	110938	0	0	8038	590777	0	0
2024-07-26 19:51:47			0	36719	0	0	0	29412	28040	165186	26913	1059710	45250	110939	0	0	8037	591224	0	0
2024-07-26 19:52:47			0	36686	0	0	0	29410	28030	165194	27270	1059728	45261	110938	0	0	8035	592599	0	0
2024-07-26 19:53:47			0	36678	0	0	0	29418	28020	165210	27211	1059629	45238	110941	0	0	8035	592958	0	0
2024-07-26 19:54:47			0	36686	0	0	0	29412	28020	165290	26963	1059683	45271	110939	0	0	8035	592633	0	0
2024-07-26 19:55:47			0	36668	0	0	0	29420	28030	165334	27130	1059638	45250	110942	0	0	8034	593331	0	0
2024-07-26 19:56:47			0	36681	0	0	0	29394	28020	165342	27199	1059575	45259	110932	0	0	8035	592836	0	0
2024-07-26 19:57:47			0	36712	0	0	0	29402	28020	165246	27267	1059629	45249	110935	0	0	8037	591576	0	0
2024-07-26 19:58:47			0	36708	0	0	0	29402	28020	165154	26870	1059629	45259	110935	0	0	8037	591739	0	0
2024-07-26 19:59:47			0	36726	0	0	0	29418	28010	165194	27123	1059638	45259	110941	0	0	8037	591042	0	0
2024-07-26 20:00:47			0	36714	0	0	0	29418	28010	165142	26974	1059611	45271	110941	0	0	8037	591529	0	0
2024-07-26 20:01:47			0	36721	0	0	0	29412	28010	165118	26974	1059584	45259	110939	0	0	8037	591245	0	0
2024-07-26 20:02:47			0	36692	0	0	0	29407	28010	165198	27062	1059503	45259	110937	0	0	8036	592423	0	0
2024-07-26 20:03:47			0	36674	0	0	0	29410	28010	165390	26793	1059638	45249	110938	0	0	8035	593155	0	0
2024-07-26 20:04:47			0	36646	0	0	0	29405	28010	165490	27189	1059584	45249	110936	0	0	8033	594295	0	0
2024-07-26 20:05:47			0	36614	0	0	0	29412	28000	165682	27076	1059566	45257	110939	0	0	8031	595635	0	0
2024-07-26 20:06:47			0	36581	0	0	0	29405	28000	165861	27310	1059566	45257	110936	0	0	8029	596983	0	0
2024-07-26 20:07:47			0	36566	0	0	0	29407	28010	165929	26831	1059611	45249	110937	0	0	8028	597561	0	0
2024-07-26 20:08:47			0	36549	0	0	0	29415	28000	166021	27022	1059593	45236	110940	0	0	8027	598292	0	0
2024-07-26 20:09:47			0	36542	0	0	0	29407	28010	165929	26693	1059575	45258	110937	0	0	8027	598544	0	0
2024-07-26 20:10:47			0	36542	0	0	0	29410	28000	166013	26972	1059557	45269	110938	0	0	8027	598578	0	0
2024-07-26 20:11:47			0	36515	0	0	0	29418	28000	166053	27241	1059593	45257	110941	0	0	8025	599685	0	0
2024-07-26 20:12:47			0	36515	0	0	0	29405	28010	165989	27038	1059557	45271	110936	0	0	8025	599650	0	0
2024-07-26 20:13:47			0	36522	0	0	0	29399	28010	166013	27140	1059602	45270	110934	0	0	8026	599363	0	0
2024-07-26 20:14:47			0	36514	0	0	0	29405	28000	165985	27059	1059593	45280	110936	0	0	8025	599726	0	0
2024-07-26 20:15:47			0	36500	0	0	0	29397	28020	165969	27168	1059593	45259	110933	0	0	8024	600231	0	0
2024-07-26 20:16:47			0	36502	0	0	0	29412	28010	166013	27111	1059575	45258	110939	0	0	8024	600183	0	0
2024-07-26 20:17:47			0	36513	0	0	0	29407	28010	165957	26649	1059602	45258	110937	0	0	8025	599732	0	0
2024-07-26 20:18:47			0	36534	0	0	0	29402	28010	165953	26830	1059584	45259	110935	0	0	8026	598871	0	0
2024-07-26 20:19:47			0	36526	0	0	0	29394	28000	165897	26776	1059566	45257	110932	0	0	8026	599234	0	0
2024-07-26 20:20:47			0	36557	0	0	0	29394	28000	165913	26833	1059566	45269	110932	0	0	8028	597964	0	0
2024-07-26 20:21:47			0	36557	0	0	0	29389	28000	165801	27074	1059512	45257	110930	0	0	8028	597964	0	0
2024-07-26 20:22:47			0	36578	0	0	0	29386	27990	165701	27050	1059548	45257	110929	0	0	8029	597140	0	0
2024-07-26 20:23:47			0	36601	0	0	0	29379	28000	165658	27092	1059485	45269	110926	0	0	8031	596165	0	0
2024-07-26 20:24:47			0	36601	0	0	0	29379	27990	165514	27013	1059468	45246	110926	0	0	8031	596200	0	0
2024-07-26 20:25:47			0	36613	0	0	0	29384	28000	165622	26764	1059476	45269	110928	0	0	8031	595676	0	0
2024-07-26 20:26:47			0	36609	0	0	0	29386	27990	165646	27015	1059432	45257	110929	0	0	8031	595873	0	0
2024-07-26 20:27:47			0	36609	0	0	0	29381	27990	165634	27163	1059432	45257	110927	0	0	8031	595873	0	0
2024-07-26 20:28:47			0	36607	0	0	0	29376	27990	165694	27076	1059405	45268	110925	0	0	8031	595955	0	0
2024-07-26 20:29:47			0	36593	0	0	0	29371	27980	165714	26835	1059468	45244	110923	0	0	8030	596561	0	0
2024-07-26 20:30:47			0	36603	0	0	0	29363	27980	165798	27010	1059342	45256	110920	0	0	8031	596153	0	0
2024-07-26 20:31:47			0	36605	0	0	0	29363	27980	165650	27069	1059450	45256	110920	0	0	8031	596071	0	0
2024-07-26 20:32:47			0	36590	0	0	0	29358	27980	165714	27114	1059396	45256	110918	0	0	8030	596684	0	0
2024-07-26 20:33:47			0	36598	0	0	0	29353	27960	165662	26889	1059360	45265	110916	0	0	8031	596426	0	0
2024-07-26 20:34:47			0	36606	0	0	0	29348	27960	165698	26968	1059333	45254	110914	0	0	8031	596099	0	0
2024-07-26 20:35:47			0	36616	0	0	0	29345	27960	165730	27052	1059333	45232	110913	0	0	8032	595691	0	0
2024-07-26 20:36:47			0	36591	0	0	0	29361	27960	165653	26691	1059333	45243	110919	0	0	8030	596712	0	0
2024-07-26 20:37:47			0	36598	0	0	0	29355	27960	165726	26651	1059306	45254	110917	0	0	8031	596426	0	0
2024-07-26 20:38:47			0	36586	0	0	0	29368	27960	165769	26986	1059279	45243	110922	0	0	8030	596916	0	0
2024-07-26 20:39:47			0	36560	0	0	0	29368	27970	165909	26974	1059342	45266	110922	0	0	8028	597945	0	0
2024-07-26 20:40:47			0	36543	0	0	0	29376	27960	165929	27183	1059324	45264	110925	0	0	8027	598675	0	0
2024-07-26 20:41:47			0	36516	0	0	0	29384	27970	166069	26724	1059396	45277	110928	0	0	8025	599747	0	0
2024-07-26 20:42:47			0	36493	0	0	0	29384	27960	166229	26786	1059360	45254	110928	0	0	8024	600726	0	0
2024-07-26 20:43:47			0	36470	0	0	0	29394	27960	166333	26967	1059387	45265	110932	0	0	8022	601670	0	0
2024-07-26 20:44:47			0	36477	0	0	0	29389	27980	166281	27045	1059477	45278	110930	0	0	8023	601313	0	0
2024-07-26 20:45:47			0	36438	0	0	0	29397	27980	166321	26805	1059522	45266	110933	0	0	8021	602917	0	0
2024-07-26 20:46:47			0	36413	0	0	0	29394	27980	166501	26826	1059423	45256	110932	0	0	8019	603947	0	0
2024-07-26 20:47:47			0	36384	0	0	0	29389	27980	166717	26958	1059468	45255	110930	0	0	8018	605143	0	0
2024-07-26 20:48:47			0	36355	0	0	0	29399	27980	166833	26991	1059557	45267	110934	0	0	8016	606340	0	0
2024-07-26 20:49:47			0	36314	0	0	0	29402	27970	167081	26760	1059405	45266	110935	0	0	8013	608071	0	0
2024-07-26 20:50:47			0	36280	0	0	0	29389	27980	167021	26842	1059557	45267	110930	0	0	8011	609444	0	0
2024-07-26 20:51:47			0	36271	0	0	0	29376	27980	167157	26875	1059531	45267	110925	0	0	8011	609818	0	0
2024-07-26 20:52:47			0	36262	0	0	0	29363	27980	167145	26649	1059504	45256	110920	0	0	8011	610191	0	0
2024-07-26 20:53:47			0	36237	0	0	0	29368	27970	167249	26682	1059423	45255	110922	0	0	8009	611264	0	0
2024-07-26 20:54:47			0	36204	0	0	0	29379	27980	167457	26563	1059441	45244	110926	0	0	8007	612601	0	0
2024-07-26 20:55:47			0	36172	0	0	0	29392	27970	167617	26854	1059504	45266	110931	0	0	8005	613970	0	0
2024-07-26 20:56:47			0	36112	0	0	0	29392	27970	167913	26831	1059477	45255	110931	0	0	8001	616474	0	0
2024-07-26 20:57:47			0	36051	0	0	0	29389	27980	168305	27045	1059468	45266	110930	0	0	7998	618992	0	0
2024-07-26 20:58:47			0	35955	0	0	0	29386	27980	168569	26859	1059477	45256	110929	0	0	7992	623026	0	0
2024-07-26 20:59:47			0	35917	0	0	0	29394	27980	168721	26991	1059495	45266	110932	0	0	7989	624628	0	0
2024-07-26 21:00:47			0	35892	0	0	0	29394	27980	168861	26791	1059504	45256	110932	0	0	7988	625683	0	0
2024-07-26 21:01:47			0	35875	0	0	0	29389	27980	168993	26942	1059531	45267	110930	0	0	7987	626402	0	0
2024-07-26 21:02:47			0	35865	0	0	0	29386	27980	169029	26987	1059477	45256	110929	0	0	7986	626825	0	0
2024-07-26 21:03:47			0	35858	0	0	0	29384	27980	169049	26863	1059531	45267	110928	0	0	7986	627121	0	0
2024-07-26 21:04:47			0	35868	0	0	0	29386	27980	169129	27149	1059441	45255	110929	0	0	7987	626698	0	0
2024-07-26 21:05:47			0	35865	0	0	0	29392	27980	169069	27034	1059522	45255	110931	0	0	7986	626825	0	0
2024-07-26 21:06:47			0	35890	0	0	0	29386	27980	169001	26932	1059396	45256	110929	0	0	7988	625768	0	0
2024-07-26 21:07:47			0	35883	0	0	0	29379	27980	168977	26896	1059504	45278	110926	0	0	7988	626064	0	0
2024-07-26 21:08:47			0	35897	0	0	0	29379	27970	168897	27039	1059477	45244	110926	0	0	7988	625508	0	0
2024-07-26 21:09:47			0	35880	0	0	0	29374	27980	168957	27046	1059423	45267	110924	0	0	7987	626190	0	0
2024-07-26 21:10:47			0	35877	0	0	0	29384	27980	168985	26861	1059495	45244	110928	0	0	7987	626317	0	0
2024-07-26 21:11:47			0	35891	0	0	0	29384	27970	168969	27159	1059396	45255	110928	0	0	7988	625762	0	0
2024-07-26 21:12:47			0	35894	0	0	0	29368	27960	169065	27039	1059414	45265	110922	0	0	7988	625671	0	0
2024-07-26 21:13:47			0	35919	0	0	0	29374	27980	168897	26967	1059387	45277	110924	0	0	7990	624544	0	0
2024-07-26 21:14:47			0	35911	0	0	0	29374	27980	168849	27176	1059495	45255	110924	0	0	7989	624881	0	0
2024-07-26 21:15:47			0	35933	0	0	0	29368	27980	168825	27050	1059396	45267	110922	0	0	7991	623953	0	0
2024-07-26 21:16:47			0	35944	0	0	0	29371	27960	168565	27123	1059333	45254	110923	0	0	7991	623561	0	0
2024-07-26 21:17:47			0	35947	0	0	0	29363	27970	168645	26972	1059378	45255	110920	0	0	7992	623399	0	0
2024-07-26 21:18:47			0	35948	0	0	0	29368	27960	168709	27092	1059360	45254	110922	0	0	7992	623393	0	0
2024-07-26 21:19:47			0	35925	0	0	0	29368	27960	168817	26955	1059360	45243	110922	0	0	7990	624362	0	0
2024-07-26 21:20:47			0	35890	0	0	0	29366	27970	168945	26946	1059369	45277	110921	0	0	7988	625804	0	0
2024-07-26 21:21:47			0	35858	0	0	0	29361	27960	169021	26965	1059306	45243	110919	0	0	7986	627193	0	0
2024-07-26 21:22:47			0	35853	0	0	0	29363	27970	169080	26679	1059423	45266	110920	0	0	7986	627368	0	0
2024-07-26 21:23:47			0	35846	0	0	0	29366	27960	169144	27024	1059360	45265	110921	0	0	7985	627701	0	0
2024-07-26 21:24:47			0	35844	0	0	0	29366	27960	169084	27059	1059306	45265	110921	0	0	7985	627786	0	0
2024-07-26 21:25:47			0	35851	0	0	0	29355	27950	169096	26824	1059307	45253	110917	0	0	7986	627525	0	0
2024-07-26 21:26:47			0	35869	0	0	0	29363	27950	168817	27175	1059316	45253	110920	0	0	7987	626764	0	0
2024-07-26 21:27:47			0	35874	0	0	0	29350	27960	168893	26852	1059351	45264	110915	0	0	7987	626516	0	0
2024-07-26 21:28:47			0	35897	0	0	0	29363	27950	168985	27053	1059342	45253	110920	0	0	7989	625580	0	0
2024-07-26 21:29:47			0	35890	0	0	0	29361	27950	169017	26894	1059307	45253	110919	0	0	7988	625876	0	0
2024-07-26 21:30:47			0	35861	0	0	0	29345	27950	169037	26722	1059289	45253	110913	0	0	7987	627102	0	0
2024-07-26 21:31:47			0	35857	0	0	0	29350	27950	169192	27007	1059307	45253	110915	0	0	7986	627272	0	0
2024-07-26 21:32:47			0	35845	0	0	0	29342	27950	169228	27041	1059289	45264	110912	0	0	7986	627780	0	0
2024-07-26 21:33:47			0	35852	0	0	0	29345	27940	169261	27060	1059244	45274	110913	0	0	7986	627519	0	0
2024-07-26 21:34:47			0	35848	0	0	0	29337	27940	169160	26802	1059235	45251	110910	0	0	7986	627689	0	0
2024-07-26 21:35:47			0	35856	0	0	0	29348	27940	169192	26871	1059208	45262	110914	0	0	7986	627350	0	0
2024-07-26 21:36:47			0	35872	0	0	0	29340	27950	169153	26850	1059262	45253	110911	0	0	7987	626637	0	0
2024-07-26 21:37:47			0	35874	0	0	0	29348	27940	169045	26590	1059190	45263	110914	0	0	7987	626589	0	0
2024-07-26 21:38:47			0	35870	0	0	0	29342	27940	169029	27194	1059208	45251	110912	0	0	7987	626758	0	0
2024-07-26 21:39:47			0	35868	0	0	0	29358	27930	169181	26911	1059226	45262	110918	0	0	7987	626878	0	0
2024-07-26 21:40:47			0	35844	0	0	0	29350	27930	169256	26812	1059253	45273	110915	0	0	7985	627894	0	0
2024-07-26 21:41:47			0	35834	0	0	0	29345	27940	169344	27071	1059289	45262	110913	0	0	7985	628282	0	0
2024-07-26 21:42:47			0	35834	0	0	0	29355	27940	169352	26750	1059316	45273	110917	0	0	7985	628282	0	0
2024-07-26 21:43:47			0	35858	0	0	0	29350	27940	169344	27057	1059262	45262	110915	0	0	7986	627265	0	0
2024-07-26 21:44:47			0	35854	0	0	0	29342	27940	169320	26838	1059208	45262	110912	0	0	7986	627435	0	0
2024-07-26 21:45:47			0	35862	0	0	0	29337	27930	169152	27085	1059199	45251	110910	0	0	7987	627132	0	0
2024-07-26 21:46:47			0	35908	0	0	0	29332	27950	169121	26625	1059253	45275	110908	0	0	7990	625116	0	0
2024-07-26 21:47:47			0	35923	0	0	0	29335	27940	168953	26505	1059190	45263	110909	0	0	7991	624519	0	0
2024-07-26 21:48:47			0	35958	0	0	0	29335	27930	168789	27197	1059217	45262	110909	0	0	7993	623079	0	0
2024-07-26 21:49:47			0	35981	0	0	0	29335	27940	168737	26996	1059235	45273	110909	0	0	7994	622075	0	0
2024-07-26 21:50:47			0	35982	0	0	0	29340	27930	168665	27093	1059217	45251	110911	0	0	7994	622069	0	0
2024-07-26 21:51:47			0	36001	0	0	0	29345	27920	168617	26882	1059208	45250	110913	0	0	7995	621306	0	0
2024-07-26 21:52:47			0	36007	0	0	0	29340	27920	168653	26604	1059208	45272	110911	0	0	7995	621053	0	0
2024-07-26 21:53:47			0	36014	0	0	0	29332	27930	168585	26897	1059163	45262	110908	0	0	7996	620724	0	0
2024-07-26 21:54:47			0	36018	0	0	0	29348	27930	168505	27050	1059271	45262	110914	0	0	7996	620555	0	0
2024-07-26 21:55:47			0	36050	0	0	0	29335	27930	168261	26873	1059190	45251	110909	0	0	7998	619213	0	0
2024-07-26 21:56:47			0	36092	0	0	0	29327	27930	168173	26842	1059226	45251	110906	0	0	8001	617453	0	0
2024-07-26 21:57:47			0	36102	0	0	0	29332	27920	168197	26828	1059154	45261	110908	0	0	8001	617070	0	0
2024-07-26 21:58:47			0	36104	0	0	0	29327	27920	168113	26915	1059235	45261	110906	0	0	8001	616986	0	0
2024-07-26 21:59:47			0	36112	0	0	0	29329	27930	168169	26731	1059226	45262	110907	0	0	8002	616616	0	0
2024-07-26 22:00:47			0	36114	0	0	0	29324	27920	168205	26868	1059119	45260	110905	0	0	8002	616568	0	0
2024-07-26 22:01:47			0	36118	0	0	0	29322	27920	168265	26693	1059145	45260	110904	0	0	8002	616401	0	0
2024-07-26 22:02:47			0	36110	0	0	0	29311	27920	168253	26802	1059172	45272	110900	0	0	8002	616735	0	0
2024-07-26 22:03:47			0	36108	0	0	0	29322	27920	168185	27118	1059154	45250	110904	0	0	8002	616819	0	0
2024-07-26 22:04:47			0	36098	0	0	0	29316	27910	168237	26963	1059110	45271	110902	0	0	8001	617273	0	0
2024-07-26 22:05:47			0	36104	0	0	0	29314	27920	168145	27121	1059127	45250	110901	0	0	8002	616986	0	0
2024-07-26 22:06:47			0	36106	0	0	0	29314	27910	168185	26922	1059083	45259	110901	0	0	8002	616938	0	0
2024-07-26 22:07:47			0	36102	0	0	0	29309	27910	168225	26977	1059083	45259	110899	0	0	8002	617106	0	0
2024-07-26 22:08:47			0	36114	0	0	0	29303	27910	168085	26618	1059083	45259	110897	0	0	8002	616604	0	0
2024-07-26 22:09:47			0	36116	0	0	0	29309	27900	168113	27142	1059065	45249	110899	0	0	8002	616556	0	0
2024-07-26 22:10:47			0	36123	0	0	0	29303	27900	168093	27209	1059091	45259	110897	0	0	8003	616263	0	0
2024-07-26 22:11:47			0	36116	0	0	0	29301	27910	168145	26842	1059101	45249	110896	0	0	8003	616520	0	0
2024-07-26 22:12:47			0	36123	0	0	0	29298	27900	168221	26927	1059065	45249	110895	0	0	8003	616263	0	0
2024-07-26 22:13:47			0	36125	0	0	0	29303	27910	168061	26757	1059074	45249	110897	0	0	8003	616144	0	0
2024-07-26 22:14:47			0	36154	0	0	0	29303	27900	168013	26889	1059011	45271	110897	0	0	8005	614968	0	0
2024-07-26 22:15:47			0	36151	0	0	0	29290	27900	167973	26942	1059065	45249	110892	0	0	8005	615094	0	0
2024-07-26 22:16:47			0	36185	0	0	0	29285	27890	167841	27045	1059074	45269	110890	0	0	8007	613711	0	0
2024-07-26 22:17:47			0	36183	0	0	0	29288	27890	167853	26994	1058984	45247	110891	0	0	8007	613794	0	0
2024-07-26 22:18:47			0	36193	0	0	0	29277	27890	167837	26731	1058966	45269	110887	0	0	8008	613378	0	0
2024-07-26 22:19:47			0	36176	0	0	0	29288	27900	167793	26948	1059029	45270	110891	0	0	8006	614051	0	0
2024-07-26 22:20:47			0	36177	0	0	0	29288	27880	167845	26963	1058948	45235	110891	0	0	8006	614080	0	0
2024-07-26 22:21:47			0	36174	0	0	0	29277	27890	167873	27395	1058993	45257	110887	0	0	8006	614170	0	0
2024-07-26 22:22:47			0	36188	0	0	0	29277	27890	167881	26958	1058957	45257	110887	0	0	8007	613586	0	0
2024-07-26 22:23:47			0	36174	0	0	0	29272	27880	167781	26512	1058975	45257	110885	0	0	8006	614205	0	0
2024-07-26 22:24:47			0	36214	0	0	0	29267	27880	167769	26859	1058975	45269	110883	0	0	8009	612538	0	0
2024-07-26 22:25:47			0	36190	0	0	0	29262	27880	167841	26802	1058921	45257	110881	0	0	8008	613538	0	0
2024-07-26 22:26:47			0	36188	0	0	0	29264	27880	167857	26944	1058912	45246	110882	0	0	8007	613621	0	0
2024-07-26 22:27:47			0	36181	0	0	0	29259	27880	167813	27199	1058867	45257	110880	0	0	8007	613913	0	0
2024-07-26 22:28:47			0	36163	0	0	0	29270	27870	167881	26656	1058876	45267	110884	0	0	8006	614699	0	0
2024-07-26 22:29:47			0	36144	0	0	0	29262	27870	167937	26930	1058930	45255	110881	0	0	8005	615492	0	0
2024-07-26 22:30:47			0	36158	0	0	0	29249	27870	167961	26987	1058930	45245	110876	0	0	8006	614908	0	0
2024-07-26 22:31:47			0	36141	0	0	0	29251	27870	167953	27112	1058895	45255	110877	0	0	8005	615618	0	0
2024-07-26 22:32:47			0	36121	0	0	0	29257	27850	168061	26961	1058814	45253	110879	0	0	8003	616524	0	0
2024-07-26 22:33:47			0	36137	0	0	0	29259	27860	168025	26930	1058769	45254	110880	0	0	8004	615820	0	0
2024-07-26 22:34:47			0	36108	0	0	0	29257	27860	168161	26795	1058832	45255	110879	0	0	8003	617032	0	0
2024-07-26 22:35:47			0	36086	0	0	0	29249	27870	168209	26850	1058841	45255	110876	0	0	8001	617918	0	0
2024-07-26 22:36:47			0	36092	0	0	0	29244	27860	168201	27050	1058850	45244	110874	0	0	8002	617702	0	0
2024-07-26 22:37:47			0	36107	0	0	0	29236	27860	168265	26942	1058877	45266	110871	0	0	8003	617074	0	0
2024-07-26 22:38:47			0	36083	0	0	0	29244	27860	168209	26599	1058832	45255	110874	0	0	8001	618079	0	0
2024-07-26 22:39:47			0	36103	0	0	0	29233	27850	168125	26823	1058787	45253	110870	0	0	8003	617277	0	0
2024-07-26 22:40:47			0	36108	0	0	0	29236	27840	168285	27145	1058796	45252	110871	0	0	8003	617104	0	0
2024-07-26 22:41:47			0	36110	0	0	0	29223	27850	168225	26944	1058724	45252	110866	0	0	8003	616984	0	0
2024-07-26 22:42:47			0	36118	0	0	0	29225	27840	168161	26528	1058706	45264	110867	0	0	8004	616685	0	0
2024-07-26 22:43:47			0	36105	0	0	0	29220	27840	168193	27038	1058733	45264	110865	0	0	8003	617229	0	0
2024-07-26 22:44:47			0	36111	0	0	0	29212	27840	168117	26915	1058706	45252	110862	0	0	8003	616978	0	0
2024-07-26 22:45:47			0	36103	0	0	0	29212	27830	168133	26989	1058698	45251	110862	0	0	8003	617349	0	0
2024-07-26 22:46:47			0	36090	0	0	0	29205	27830	168225	26831	1058725	45241	110859	0	0	8002	617893	0	0
2024-07-26 22:47:47			0	36097	0	0	0	29202	27830	168145	27138	1058644	45230	110858	0	0	8003	617600	0	0
2024-07-26 22:48:47			0	36099	0	0	0	29194	27830	168177	27100	1058635	45240	110855	0	0	8003	617516	0	0
2024-07-26 22:49:47			0	36104	0	0	0	29192	27820	168077	26896	1058644	45240	110854	0	0	8003	617342	0	0
2024-07-26 22:50:47			0	36119	0	0	0	29189	27810	168089	27008	1058581	45250	110853	0	0	8004	616750	0	0
2024-07-26 22:51:47			0	36129	0	0	0	29179	27810	168049	27255	1058545	45238	110849	0	0	8005	616332	0	0
2024-07-26 22:52:47			0	36151	0	0	0	29173	27800	168041	26885	1058536	45250	110847	0	0	8006	615448	0	0
2024-07-26 22:53:47			0	36170	0	0	0	29171	27800	167953	27104	1058483	45250	110846	0	0	8007	614655	0	0
2024-07-26 22:54:47			0	36204	0	0	0	29168	27800	167897	27104	1058456	45238	110845	0	0	8010	613237	0	0
2024-07-26 22:55:47			0	36211	0	0	0	29161	27800	167849	26778	1058510	45238	110842	0	0	8010	612946	0	0
2024-07-26 22:56:47			0	36223	0	0	0	29150	27790	167577	26949	1058447	45260	110838	0	0	8011	612482	0	0
2024-07-26 22:57:47			0	36231	0	0	0	29145	27780	167737	26602	1058483	45236	110836	0	0	8011	612184	0	0
2024-07-26 22:58:47			0	36233	0	0	0	29145	27770	167653	26710	1058357	45247	110836	0	0	8012	612136	0	0
2024-07-26 22:59:47			0	36232	0	0	0	29153	27780	167669	27157	1058366	45235	110839	0	0	8011	612142	0	0
2024-07-26 23:00:47			0	36211	0	0	0	29148	27770	167613	27164	1058330	45257	110837	0	0	8010	613052	0	0
2024-07-26 23:01:47			0	36194	0	0	0	29145	27770	167781	27102	1058375	45257	110836	0	0	8009	613760	0	0
2024-07-26 23:02:47			0	36163	0	0	0	29155	27760	168061	26967	1058366	45234	110840	0	0	8007	615089	0	0
2024-07-26 23:03:47			0	36116	0	0	0	29142	27770	168205	26774	1058321	45235	110835	0	0	8005	617018	0	0
2024-07-26 23:04:47			0	36065	0	0	0	29140	27760	168421	27029	1058330	45245	110834	0	0	8001	619190	0	0
2024-07-26 23:05:47			0	36040	0	0	0	29153	27760	168597	26896	1058330	45245	110839	0	0	8000	620239	0	0
2024-07-26 23:06:47			0	36013	0	0	0	29155	27760	168657	27043	1058250	45245	110840	0	0	7998	621374	0	0
2024-07-26 23:07:47			0	35967	0	0	0	29148	27760	168869	26987	1058303	45245	110837	0	0	7995	623311	0	0
2024-07-26 23:08:47			0	35935	0	0	0	29155	27750	168993	26984	1058321	45255	110840	0	0	7993	624696	0	0
2024-07-26 23:09:47			0	35929	0	0	0	29161	27750	169085	26759	1058375	45233	110842	0	0	7993	624949	0	0
2024-07-26 23:10:47			0	35916	0	0	0	29166	27750	169093	27060	1058348	45255	110844	0	0	7992	625499	0	0
2024-07-26 23:11:47			0	35907	0	0	0	29163	27760	169189	26977	1058411	45245	110843	0	0	7992	625843	0	0
2024-07-26 23:12:47			0	35895	0	0	0	29161	27750	169197	26765	1058348	45245	110842	0	0	7991	626386	0	0
2024-07-26 23:13:47			0	35882	0	0	0	29161	27750	169165	26915	1058321	45245	110842	0	0	7990	626936	0	0
2024-07-26 23:14:47			0	35885	0	0	0	29155	27750	169137	26835	1058375	45233	110840	0	0	7990	626809	0	0
2024-07-26 23:15:47			0	35879	0	0	0	29161	27750	169197	27116	1058321	45255	110842	0	0	7990	627063	0	0
2024-07-26 23:16:47			0	35861	0	0	0	29153	27750	169313	27147	1058348	45245	110839	0	0	7989	627826	0	0
2024-07-26 23:17:47			0	35855	0	0	0	29145	27750	169297	26686	1058268	45255	110836	0	0	7989	628080	0	0
2024-07-26 23:18:47			0	35846	0	0	0	29155	27750	169472	26890	1058313	45245	110840	0	0	7988	628461	0	0
2024-07-26 23:19:47			0	35815	0	0	0	29150	27750	169472	26913	1058313	45233	110838	0	0	7986	629777	0	0
2024-07-26 23:20:47			0	35797	0	0	0	29142	27750	169612	26968	1058339	45233	110835	0	0	7985	630541	0	0
2024-07-26 23:21:47			0	35794	0	0	0	29145	27740	169744	26975	1058331	45254	110836	0	0	7985	630705	0	0
2024-07-26 23:22:47			0	35771	0	0	0	29145	27750	169696	27121	1058286	45245	110836	0	0	7984	631647	0	0
2024-07-26 23:23:47			0	35772	0	0	0	29127	27730	169748	26741	1058286	45253	110829	0	0	7984	631677	0	0
2024-07-26 23:24:47			0	35742	0	0	0	29129	27750	169940	26965	1058321	45245	110830	0	0	7982	632881	0	0
2024-07-26 23:25:47			0	35734	0	0	0	29122	27740	169916	26882	1058214	45243	110827	0	0	7982	633259	0	0
2024-07-26 23:26:47			0	35712	0	0	0	29124	27730	170020	26989	1058142	45243	110828	0	0	7980	634234	0	0
2024-07-26 23:27:47			0	35693	0	0	0	29119	27740	170036	26667	1058214	45231	110826	0	0	7979	635008	0	0
2024-07-26 23:28:47			0	35690	0	0	0	29093	27740	170068	26831	1058169	45244	110816	0	0	7979	635136	0	0
2024-07-26 23:29:47			0	35660	0	0	0	29062	27730	170248	26564	1058142	45231	110804	0	0	7978	636456	0	0
2024-07-26 23:30:47			0	35659	0	0	0	29072	27720	170444	26901	1058134	45230	110808	0	0	7978	636535	0	0
2024-07-26 23:31:47			0	35638	0	0	0	29083	27710	170468	27003	1058080	45228	110812	0	0	7976	637471	0	0
2024-07-26 23:32:47			0	35616	0	0	0	29085	27700	170644	27175	1058017	45240	110813	0	0	7975	638450	0	0
2024-07-26 23:33:47			0	35586	0	0	0	29083	27710	170740	27005	1058026	45228	110812	0	0	7973	639701	0	0
2024-07-26 23:34:47			0	35576	0	0	0	29093	27700	170748	26913	1057990	45240	110816	0	0	7972	640167	0	0
2024-07-26 23:35:47			0	35564	0	0	0	29090	27710	170908	26941	1058080	45240	110815	0	0	7972	640646	0	0
2024-07-26 23:36:47			0	35565	0	0	0	29093	27710	170836	26922	1058089	45251	110816	0	0	7972	640603	0	0
2024-07-26 23:37:47			0	35540	0	0	0	29083	27710	170924	26901	1058134	45250	110812	0	0	7970	641678	0	0
2024-07-26 23:38:47			0	35529	0	0	0	29090	27700	170944	27319	1058062	45250	110815	0	0	7969	642189	0	0
2024-07-26 23:39:47			0	35528	0	0	0	29098	27700	170952	26942	1058062	45227	110818	0	0	7969	642232	0	0
2024-07-26 23:40:47			0	35528	0	0	0	29098	27700	170956	26759	1057990	45240	110818	0	0	7969	642232	0	0
2024-07-26 23:41:47			0	35506	0	0	0	29101	27690	171044	27140	1058053	45238	110819	0	0	7968	643217	0	0
2024-07-26 23:42:47			0	35520	0	0	0	29098	27700	170940	26665	1058125	45250	110818	0	0	7969	642577	0	0
2024-07-26 23:43:47			0	35545	0	0	0	29106	27700	170944	26733	1058062	45239	110821	0	0	7970	641500	0	0
2024-07-26 23:44:47			0	35534	0	0	0	29103	27690	171008	26587	1058152	45238	110820	0	0	7969	642011	0	0
2024-07-26 23:45:47			0	35548	0	0	0	29106	27700	170888	26842	1058152	45262	110821	0	0	7970	641371	0	0
2024-07-26 23:46:47			0	35539	0	0	0	29114	27700	170928	26993	1058062	45261	110824	0	0	7970	641758	0	0
2024-07-26 23:47:47			0	35549	0	0	0	29106	27710	170864	26809	1058107	45240	110821	0	0	7970	641291	0	0
2024-07-26 23:48:47			0	35558	0	0	0	29111	27700	170852	26835	1058125	45228	110823	0	0	7971	640941	0	0
2024-07-26 23:49:47			0	35570	0	0	0	29103	27700	170792	26779	1058071	45240	110820	0	0	7972	640425	0	0
2024-07-26 23:50:47			0	35566	0	0	0	29096	27700	170904	27112	1058071	45240	110817	0	0	7972	640597	0	0
2024-07-26 23:51:47			0	35565	0	0	0	29096	27700	170808	27045	1058062	45227	110817	0	0	7971	640640	0	0
2024-07-26 23:52:47			0	35552	0	0	0	29103	27700	170776	27027	1058071	45250	110820	0	0	7971	641199	0	0
2024-07-26 23:53:47			0	35552	0	0	0	29090	27700	170872	26557	1057990	45240	110815	0	0	7971	641199	0	0
2024-07-26 23:54:47			0	35569	0	0	0	29106	27690	170872	26875	1057990	45238	110821	0	0	7972	640505	0	0
2024-07-26 23:55:47			0	35562	0	0	0	29106	27700	170852	27048	1058089	45239	110821	0	0	7971	640769	0	0
2024-07-26 23:56:47			0	35550	0	0	0	29101	27700	170744	26946	1057990	45250	110819	0	0	7970	641285	0	0
2024-07-26 23:57:47			0	35555	0	0	0	29101	27710	170768	26963	1057999	45228	110819	0	0	7971	641033	0	0
2024-07-26 23:58:47			0	35571	0	0	0	29101	27700	170864	27090	1058008	45250	110819	0	0	7972	640382	0	0
2024-07-26 23:59:47			0	35571	0	0	0	29098	27700	170832	26876	1058071	45240	110818	0	0	7972	640382	0	0
2024-07-27 00:00:47			0	35565	0	0	0	29103	27700	170800	26920	1058008	45239	110820	0	0	7971	640640	0	0
2024-07-27 00:01:47			0	35551	0	0	0	29088	27700	170804	26932	1058062	45250	110814	0	0	7971	641242	0	0
2024-07-27 00:02:47			0	35560	0	0	0	29106	27700	170796	26972	1058089	45239	110821	0	0	7971	640855	0	0
2024-07-27 00:03:47			0	35555	0	0	0	29103	27690	170860	26951	1058071	45249	110820	0	0	7971	641107	0	0
2024-07-27 00:04:47			0	35570	0	0	0	29090	27690	170772	26712	1058044	45249	110815	0	0	7972	640462	0	0
2024-07-27 00:05:47			0	35559	0	0	0	29098	27700	170772	26958	1058098	45240	110818	0	0	7971	640898	0	0
2024-07-27 00:06:47			0	35564	0	0	0	29093	27700	170760	26823	1058098	45250	110816	0	0	7971	640683	0	0
2024-07-27 00:07:47			0	35566	0	0	0	29093	27690	170896	26901	1058107	45249	110816	0	0	7972	640634	0	0
2024-07-27 00:08:47			0	35550	0	0	0	29085	27690	170864	26979	1057999	45249	110813	0	0	7971	641322	0	0
2024-07-27 00:09:47			0	35548	0	0	0	29083	27690	170840	26672	1057990	45238	110812	0	0	7971	641408	0	0
2024-07-27 00:10:47			0	35539	0	0	0	29083	27690	170936	26837	1057999	45249	110812	0	0	7970	641795	0	0
2024-07-27 00:11:47			0	35508	0	0	0	29085	27680	171076	27194	1057928	45238	110813	0	0	7968	643168	0	0
2024-07-27 00:12:47			0	35520	0	0	0	29088	27690	170928	26894	1058080	45238	110814	0	0	7969	642614	0	0
2024-07-27 00:13:47			0	35546	0	0	0	29085	27690	170936	26908	1057990	45249	110813	0	0	7970	641494	0	0
2024-07-27 00:14:47			0	35605	0	0	0	29077	27680	170628	27060	1057955	45249	110810	0	0	7974	638996	0	0
2024-07-27 00:15:47			0	35645	0	0	0	29075	27690	170500	26873	1057937	45238	110809	0	0	7977	637244	0	0
2024-07-27 00:16:47			0	35680	0	0	0	29083	27680	170444	26897	1057946	45237	110812	0	0	7979	635783	0	0
2024-07-27 00:17:47			0	35692	0	0	0	29080	27680	170180	26774	1057946	45225	110811	0	0	7979	635270	0	0
2024-07-27 00:18:47			0	35719	0	0	0	29075	27680	170160	26771	1057946	45248	110809	0	0	7981	634117	0	0
2024-07-27 00:19:47			0	35731	0	0	0	29072	27670	170020	26927	1057937	45247	110808	0	0	7982	633642	0	0
2024-07-27 00:20:47			0	35742	0	0	0	29083	27670	170116	26689	1057937	45247	110812	0	0	7982	633173	0	0
2024-07-27 00:21:47			0	35745	0	0	0	29088	27680	170000	27116	1057982	45226	110814	0	0	7983	633009	0	0
2024-07-27 00:22:47			0	35754	0	0	0	29085	27690	169996	26885	1057990	45238	110813	0	0	7983	632589	0	0
2024-07-27 00:23:47			0	35777	0	0	0	29083	27670	169924	26819	1057964	45247	110812	0	0	7985	631682	0	0
2024-07-27 00:24:47			0	35776	0	0	0	29080	27680	169872	27007	1058035	45238	110811	0	0	7985	631688	0	0
2024-07-27 00:25:47			0	35783	0	0	0	29085	27680	169844	26916	1057982	45249	110813	0	0	7985	631391	0	0
2024-07-27 00:26:47			0	35809	0	0	0	29085	27670	169780	26870	1057964	45236	110813	0	0	7986	630322	0	0
2024-07-27 00:27:47			0	35828	0	0	0	29070	27670	169680	26710	1057910	45258	110807	0	0	7988	629515	0	0
2024-07-27 00:28:47			0	35845	0	0	0	29072	27680	169592	26512	1057865	45237	110808	0	0	7989	628757	0	0
2024-07-27 00:29:47			0	35860	0	0	0	29075	27680	169445	26738	1057928	45238	110809	0	0	7990	628121	0	0
2024-07-27 00:30:47			0	35893	0	0	0	29067	27680	169409	26668	1057919	45248	110806	0	0	7992	626724	0	0
2024-07-27 00:31:47			0	35893	0	0	0	29059	27680	169273	26776	1057892	45225	110803	0	0	7992	626724	0	0
2024-07-27 00:32:47			0	35906	0	0	0	29072	27680	169257	26764	1057946	45237	110808	0	0	7993	626174	0	0
2024-07-27 00:33:47			0	35901	0	0	0	29062	27670	169349	26845	1057964	45258	110804	0	0	7992	626421	0	0
2024-07-27 00:34:47			0	35894	0	0	0	29067	27670	169317	26779	1057928	45236	110806	0	0	7992	626717	0	0
2024-07-27 00:35:47			0	35903	0	0	0	29057	27670	169241	26798	1057901	45247	110802	0	0	7993	626337	0	0
2024-07-27 00:36:47			0	35904	0	0	0	29057	27660	169229	26899	1057892	45247	110802	0	0	7993	626330	0	0
2024-07-27 00:37:47			0	35907	0	0	0	29064	27670	169137	26871	1057847	45236	110805	0	0	7993	626167	0	0
2024-07-27 00:38:47			0	35932	0	0	0	29057	27680	169193	26852	1057892	45248	110802	0	0	7994	625075	0	0
2024-07-27 00:39:47			0	35922	0	0	0	29059	27670	169077	26738	1057856	45247	110803	0	0	7994	625533	0	0
2024-07-27 00:40:47			0	35936	0	0	0	29057	27660	169105	26715	1057892	45247	110802	0	0	7995	624978	0	0
2024-07-27 00:41:47			0	35952	0	0	0	29054	27670	169145	26726	1057847	45236	110801	0	0	7996	624266	0	0
2024-07-27 00:42:47			0	35938	0	0	0	29044	27660	169185	26616	1057811	45236	110797	0	0	7995	624893	0	0
2024-07-27 00:43:47			0	35943	0	0	0	29051	27660	169045	26557	1057838	45236	110800	0	0	7995	624682	0	0
2024-07-27 00:44:47			0	35935	0	0	0	29041	27650	169093	26816	1057793	45245	110796	0	0	7995	625056	0	0
2024-07-27 00:45:47			0	35940	0	0	0	29049	27660	169061	26765	1057829	45235	110799	0	0	7995	624809	0	0
2024-07-27 00:46:47			0	35949	0	0	0	29041	27650	169105	27074	1057811	45234	110796	0	0	7996	624465	0	0
2024-07-27 00:47:47			0	35952	0	0	0	29036	27660	169125	26986	1057829	45235	110794	0	0	7996	624302	0	0
2024-07-27 00:48:47			0	35945	0	0	0	29033	27640	169157	27263	1057802	45222	110793	0	0	7995	624670	0	0
2024-07-27 00:49:47			0	35946	0	0	0	29033	27650	169097	26956	1057811	45234	110793	0	0	7996	624592	0	0
2024-07-27 00:50:47			0	35927	0	0	0	29033	27640	169145	26984	1057775	45233	110793	0	0	7994	625430	0	0
2024-07-27 00:51:47			0	35953	0	0	0	29044	27650	169101	26708	1057793	45245	110797	0	0	7996	624296	0	0
2024-07-27 00:52:47			0	35937	0	0	0	29033	27650	169133	27072	1057784	45245	110793	0	0	7995	624972	0	0
2024-07-27 00:53:47			0	35957	0	0	0	29044	27650	169117	26965	1057865	45234	110797	0	0	7996	624127	0	0
2024-07-27 00:54:47			0	35965	0	0	0	29041	27640	169053	26955	1057802	45233	110796	0	0	7997	623826	0	0
2024-07-27 00:55:47			0	35993	0	0	0	29036	27650	169013	27045	1057784	45245	110794	0	0	7998	622610	0	0
2024-07-27 00:56:47			0	35983	0	0	0	29028	27640	168969	26672	1057820	45244	110791	0	0	7998	623067	0	0
2024-07-27 00:57:47			0	36013	0	0	0	29020	27630	168781	27008	1057775	45254	110788	0	0	8000	621839	0	0
2024-07-27 00:58:47			0	36034	0	0	0	29028	27630	168785	27235	1057704	45243	110791	0	0	8001	620956	0	0
2024-07-27 00:59:47			0	36039	0	0	0	29033	27630	168717	27386	1057730	45221	110793	0	0	8001	620746	0	0
2024-07-27 01:00:47			0	36051	0	0	0	29033	27640	168665	27069	1057739	45255	110793	0	0	8002	620206	0	0
2024-07-27 01:01:47			0	36076	0	0	0	29033	27630	168597	26982	1057677	45232	110793	0	0	8003	619192	0	0
2024-07-27 01:02:47			0	36085	0	0	0	29031	27630	168529	26852	1057730	45232	110792	0	0	8004	618815	0	0
2024-07-27 01:03:47			0	36112	0	0	0	29044	27630	168401	27020	1057722	45232	110797	0	0	8005	617683	0	0
2024-07-27 01:04:47			0	36106	0	0	0	29038	27630	168321	26941	1057704	45243	110795	0	0	8005	617934	0	0
2024-07-27 01:05:47			0	36138	0	0	0	29041	27630	168393	27007	1057748	45243	110796	0	0	8007	616595	0	0
2024-07-27 01:06:47			0	36122	0	0	0	29025	27620	168345	27036	1057686	45242	110790	0	0	8006	617300	0	0
2024-07-27 01:07:47			0	36113	0	0	0	29033	27640	168305	26927	1057722	45244	110793	0	0	8006	617605	0	0
2024-07-27 01:08:47			0	36121	0	0	0	29036	27630	168365	26934	1057784	45243	110794	0	0	8006	617306	0	0
2024-07-27 01:09:47			0	36122	0	0	0	29031	27640	168333	27154	1057686	45222	110792	0	0	8006	617229	0	0
2024-07-27 01:10:47			0	36141	0	0	0	29023	27620	168325	26890	1057713	45242	110789	0	0	8007	616505	0	0
2024-07-27 01:11:47			0	36121	0	0	0	29036	27630	168369	26783	1057802	45243	110794	0	0	8006	617306	0	0
2024-07-27 01:12:47			0	36129	0	0	0	29020	27620	168313	27109	1057766	45242	110788	0	0	8007	617007	0	0
2024-07-27 01:13:47			0	36149	0	0	0	29028	27630	168205	27060	1057677	45243	110791	0	0	8008	616135	0	0
2024-07-27 01:14:47			0	36208	0	0	0	29036	27620	168089	27137	1057713	45231	110794	0	0	8011	613707	0	0
2024-07-27 01:15:47			0	36225	0	0	0	29038	27620	167925	27012	1057740	45242	110795	0	0	8012	612998	0	0
2024-07-27 01:16:47			0	36249	0	0	0	29038	27620	167849	26691	1057766	45242	110795	0	0	8014	611999	0	0
2024-07-27 01:17:47			0	36244	0	0	0	29046	27640	167777	26729	1057829	45255	110798	0	0	8013	612136	0	0
2024-07-27 01:18:47			0	36235	0	0	0	29038	27620	167869	27039	1057766	45242	110795	0	0	8013	612581	0	0
2024-07-27 01:19:47			0	36227	0	0	0	29036	27640	167885	26675	1057739	45233	110794	0	0	8012	612844	0	0
2024-07-27 01:20:47			0	36236	0	0	0	29033	27630	167885	26934	1057838	45243	110793	0	0	8013	612505	0	0
2024-07-27 01:21:47			0	36246	0	0	0	29033	27630	167953	26942	1057722	45243	110793	0	0	8014	612088	0	0
2024-07-27 01:22:47			0	36254	0	0	0	29025	27630	167781	26994	1057775	45232	110790	0	0	8014	611755	0	0
2024-07-27 01:23:47			0	36245	0	0	0	29033	27630	167725	27282	1057722	45243	110793	0	0	8013	612130	0	0
2024-07-27 01:24:47			0	36240	0	0	0	29038	27630	167773	27022	1057784	45221	110795	0	0	8013	612338	0	0
2024-07-27 01:25:47			0	36255	0	0	0	29038	27630	167845	26812	1057775	45232	110795	0	0	8014	611714	0	0
2024-07-27 01:26:47			0	36253	0	0	0	29038	27630	167673	27289	1057748	45232	110795	0	0	8014	611797	0	0
2024-07-27 01:27:47			0	36258	0	0	0	29031	27620	167865	27145	1057731	45242	110792	0	0	8014	611624	0	0
2024-07-27 01:28:47			0	36252	0	0	0	29036	27630	167873	26856	1057784	45243	110794	0	0	8014	611839	0	0
2024-07-27 01:29:47			0	36224	0	0	0	29033	27630	167977	26949	1057730	45254	110793	0	0	8012	613004	0	0
2024-07-27 01:30:47			0	36212	0	0	0	29044	27630	167941	26984	1057757	45243	110797	0	0	8011	613504	0	0
2024-07-27 01:31:47			0	36215	0	0	0	29046	27630	168017	26743	1057748	45243	110798	0	0	8011	613379	0	0
2024-07-27 01:32:47			0	36218	0	0	0	29038	27630	167889	27007	1057757	45265	110795	0	0	8012	613254	0	0
2024-07-27 01:33:47			0	36208	0	0	0	29044	27640	167941	27261	1057802	45255	110797	0	0	8011	613636	0	0
2024-07-27 01:34:47			0	36219	0	0	0	29044	27650	168017	27046	1057811	45256	110797	0	0	8012	613142	0	0
2024-07-27 01:35:47			0	36198	0	0	0	29031	27630	167953	26772	1057730	45254	110792	0	0	8011	614088	0	0
2024-07-27 01:36:47			0	36208	0	0	0	29023	27630	168085	27059	1057757	45243	110789	0	0	8011	613671	0	0
2024-07-27 01:37:47			0	36207	0	0	0	29036	27630	167989	26705	1057695	45243	110794	0	0	8011	613713	0	0
2024-07-27 01:38:47			0	36216	0	0	0	29038	27630	167937	27197	1057730	45243	110795	0	0	8012	613338	0	0
2024-07-27 01:39:47			0	36223	0	0	0	29023	27620	167933	26804	1057713	45242	110789	0	0	8012	613081	0	0
2024-07-27 01:40:47			0	36237	0	0	0	29025	27630	167841	27072	1057730	45243	110790	0	0	8013	612463	0	0
2024-07-27 01:41:47			0	36253	0	0	0	29033	27630	167813	27003	1057722	45243	110793	0	0	8014	611797	0	0
2024-07-27 01:42:47			0	36249	0	0	0	29033	27630	167825	26916	1057677	45243	110793	0	0	8014	611963	0	0
2024-07-27 01:43:47			0	36243	0	0	0	29033	27610	167881	26842	1057722	45230	110793	0	0	8013	612284	0	0
2024-07-27 01:44:47			0	36242	0	0	0	29031	27620	167873	27237	1057766	45253	110792	0	0	8013	612290	0	0
2024-07-27 01:45:47			0	36248	0	0	0	29041	27630	167933	27173	1057695	45232	110796	0	0	8014	612005	0	0
2024-07-27 01:46:47			0	36233	0	0	0	29046	27630	167945	27017	1057730	45243	110798	0	0	8013	612629	0	0
2024-07-27 01:47:47			0	36220	0	0	0	29041	27620	167941	26844	1057793	45242	110796	0	0	8012	613206	0	0
2024-07-27 01:48:47			0	36231	0	0	0	29049	27630	167849	26889	1057722	45243	110799	0	0	8012	612713	0	0
2024-07-27 01:49:47			0	36223	0	0	0	29038	27630	167985	26785	1057838	45254	110795	0	0	8012	613046	0	0
2024-07-27 01:50:47			0	36224	0	0	0	29031	27630	167929	26975	1057730	45243	110792	0	0	8012	613004	0	0
2024-07-27 01:51:47			0	36213	0	0	0	29044	27630	168009	27031	1057722	45243	110797	0	0	8011	613463	0	0
2024-07-27 01:52:47			0	36210	0	0	0	29038	27640	167933	26731	1057802	45233	110795	0	0	8011	613553	0	0
2024-07-27 01:53:47			0	36198	0	0	0	29038	27630	168037	27144	1057784	45254	110795	0	0	8011	614088	0	0
2024-07-27 01:54:47			0	36210	0	0	0	29038	27630	167985	26982	1057730	45243	110795	0	0	8011	613588	0	0
2024-07-27 01:55:47			0	36220	0	0	0	29036	27630	167829	27069	1057748	45243	110794	0	0	8012	613171	0	0
2024-07-27 01:56:47			0	36215	0	0	0	29031	27620	167913	26811	1057740	45231	110792	0	0	8012	613415	0	0
2024-07-27 01:57:47			0	36222	0	0	0	29025	27630	167921	26970	1057722	45243	110790	0	0	8012	613088	0	0
2024-07-27 01:58:47			0	36224	0	0	0	29025	27620	167933	26812	1057704	45242	110790	0	0	8012	613040	0	0
2024-07-27 01:59:47			0	36220	0	0	0	29020	27620	167965	26937	1057659	45231	110788	0	0	8012	613206	0	0
2024-07-27 02:00:47			0	36211	0	0	0	29018	27630	167905	26611	1057677	45243	110787	0	0	8012	613546	0	0
2024-07-27 02:01:47			0	36221	0	0	0	29010	27620	167909	26904	1057740	45242	110784	0	0	8012	613165	0	0
2024-07-27 02:02:47			0	36220	0	0	0	29007	27630	167929	27092	1057677	45254	110783	0	0	8012	613171	0	0
2024-07-27 02:03:47			0	36199	0	0	0	29023	27630	167941	26705	1057722	45243	110789	0	0	8011	614047	0	0
2024-07-27 02:04:47			0	36209	0	0	0	29031	27620	168001	26887	1057677	45242	110792	0	0	8011	613665	0	0
2024-07-27 02:05:47			0	36205	0	0	0	29020	27610	168069	26665	1057668	45252	110788	0	0	8011	613867	0	0
2024-07-27 02:06:47			0	36207	0	0	0	29020	27630	168057	27029	1057775	45254	110788	0	0	8011	613713	0	0
2024-07-27 02:07:47			0	36215	0	0	0	29010	27620	168021	27038	1057650	45242	110784	0	0	8012	613415	0	0
2024-07-27 02:08:47			0	36200	0	0	0	29020	27620	168045	27114	1057596	45242	110788	0	0	8011	614040	0	0
2024-07-27 02:09:47			0	36169	0	0	0	29015	27620	168129	27166	1057650	45242	110786	0	0	8009	615334	0	0
2024-07-27 02:10:47			0	36170	0	0	0	29023	27620	168105	26819	1057677	45242	110789	0	0	8009	615293	0	0
2024-07-27 02:11:47			0	36174	0	0	0	29012	27610	168233	27081	1057659	45240	110785	0	0	8009	615161	0	0
2024-07-27 02:12:47			0	36182	0	0	0	29012	27620	168177	26726	1057677	45242	110785	0	0	8010	614791	0	0
2024-07-27 02:13:47			0	36188	0	0	0	29012	27620	168149	27209	1057650	45242	110785	0	0	8010	614541	0	0
2024-07-27 02:14:47			0	36180	0	0	0	29015	27620	168229	27020	1057704	45242	110786	0	0	8010	614875	0	0
2024-07-27 02:15:47			0	36185	0	0	0	29012	27620	168089	27024	1057542	45242	110785	0	0	8010	614666	0	0
2024-07-27 02:16:47			0	36205	0	0	0	29010	27610	168089	26885	1057695	45241	110784	0	0	8011	613867	0	0
2024-07-27 02:17:47			0	36200	0	0	0	29012	27610	168113	26804	1057641	45252	110785	0	0	8011	614075	0	0
2024-07-27 02:18:47			0	36208	0	0	0	29002	27620	167973	27126	1057623	45264	110781	0	0	8012	613707	0	0
2024-07-27 02:19:47			0	36208	0	0	0	28992	27620	167933	27045	1057650	45231	110777	0	0	8012	613707	0	0
2024-07-27 02:20:47			0	36213	0	0	0	28986	27610	167913	26989	1057632	45251	110775	0	0	8012	613533	0	0
2024-07-27 02:21:47			0	36208	0	0	0	28986	27610	168013	27192	1057632	45240	110775	0	0	8012	613742	0	0
2024-07-27 02:22:47			0	36218	0	0	0	28989	27600	168037	26826	1057587	45229	110776	0	0	8012	613360	0	0
2024-07-27 02:23:47			0	36211	0	0	0	28986	27590	168021	26998	1057498	45228	110775	0	0	8012	613688	0	0
2024-07-27 02:24:47			0	36218	0	0	0	28984	27600	168165	26989	1057543	45229	110774	0	0	8013	613360	0	0
2024-07-27 02:25:47			0	36232	0	0	0	28979	27580	168093	27031	1057507	45250	110772	0	0	8013	612848	0	0
2024-07-27 02:26:47			0	36221	0	0	0	28981	27600	168041	26993	1057561	45229	110773	0	0	8013	613235	0	0
2024-07-27 02:27:47			0	36209	0	0	0	28992	27590	168013	26908	1057570	45250	110777	0	0	8012	613771	0	0
2024-07-27 02:28:47			0	36245	0	0	0	28989	27590	168037	26876	1057543	45238	110776	0	0	8014	612271	0	0
2024-07-27 02:29:47			0	36280	0	0	0	28971	27580	167921	26970	1057561	45238	110769	0	0	8016	610850	0	0
2024-07-27 02:30:47			0	36296	0	0	0	28992	27580	167745	26909	1057480	45227	110777	0	0	8017	610185	0	0
2024-07-27 02:31:47			0	36311	0	0	0	28979	27590	167601	26781	1057543	45238	110772	0	0	8018	609528	0	0
2024-07-27 02:32:47			0	36345	0	0	0	28971	27580	167485	26923	1057534	45238	110769	0	0	8020	608153	0	0
2024-07-27 02:33:47			0	36361	0	0	0	28979	27580	167373	26793	1057471	45238	110772	0	0	8021	607490	0	0
2024-07-27 02:34:47			0	36371	0	0	0	28976	27580	167317	27133	1057480	45238	110771	0	0	8022	607076	0	0
2024-07-27 02:35:47			0	36393	0	0	0	28979	27570	167189	26946	1057435	45238	110772	0	0	8023	606201	0	0
2024-07-27 02:36:47			0	36422	0	0	0	28958	27590	167157	26830	1057435	45238	110764	0	0	8025	604933	0	0
2024-07-27 02:37:47			0	36401	0	0	0	28963	27580	167129	26687	1057417	45238	110766	0	0	8024	605836	0	0
2024-07-27 02:38:47			0	36412	0	0	0	28953	27570	167053	27053	1057373	45237	110762	0	0	8025	605416	0	0
2024-07-27 02:39:47			0	36432	0	0	0	28940	27570	167097	26797	1057328	45226	110757	0	0	8026	604590	0	0
2024-07-27 02:40:47			0	36432	0	0	0	28955	27560	167089	26743	1057382	45247	110763	0	0	8026	604625	0	0
2024-07-27 02:41:47			0	36432	0	0	0	28948	27560	167145	26984	1057382	45224	110760	0	0	8026	604625	0	0
2024-07-27 02:42:47			0	36432	0	0	0	28955	27560	167121	26871	1057364	45225	110763	0	0	8026	604625	0	0
2024-07-27 02:43:47			0	36421	0	0	0	28948	27560	167165	26779	1057418	45248	110760	0	0	8025	605079	0	0
2024-07-27 02:44:47			0	36434	0	0	0	28937	27560	167197	27390	1057328	45224	110756	0	0	8026	604543	0	0
2024-07-27 02:45:47			0	36407	0	0	0	28927	27550	167341	26989	1057292	45247	110752	0	0	8025	605692	0	0
2024-07-27 02:46:47			0	36396	0	0	0	28929	27550	167233	27145	1057283	45235	110753	0	0	8024	606147	0	0
2024-07-27 02:47:47			0	36394	0	0	0	28937	27540	167341	26981	1057328	45235	110756	0	0	8024	606264	0	0
2024-07-27 02:48:47			0	36401	0	0	0	28929	27550	167373	26993	1057346	45247	110753	0	0	8024	605940	0	0
2024-07-27 02:49:47			0	36365	0	0	0	28945	27550	167457	27090	1057337	45235	110759	0	0	8022	607429	0	0
2024-07-27 02:50:47			0	36355	0	0	0	28942	27550	167593	27015	1057310	45246	110758	0	0	8021	607844	0	0
2024-07-27 02:51:47			0	36334	0	0	0	28935	27550	167673	27177	1057310	45223	110755	0	0	8020	608714	0	0
2024-07-27 02:52:47			0	36329	0	0	0	28940	27540	167737	27005	1057328	45223	110757	0	0	8020	608956	0	0
2024-07-27 02:53:47			0	36305	0	0	0	28929	27540	167625	27118	1057247	45235	110753	0	0	8018	609952	0	0
2024-07-27 02:54:47			0	36280	0	0	0	28927	27540	167713	27182	1057247	45223	110752	0	0	8017	610991	0	0
2024-07-27 02:55:47			0	36282	0	0	0	28932	27540	167837	27039	1057292	45245	110754	0	0	8017	610908	0	0
2024-07-27 02:56:47			0	36253	0	0	0	28935	27530	167929	26968	1057256	45245	110755	0	0	8015	612149	0	0
2024-07-27 02:57:47			0	36263	0	0	0	28924	27540	167993	26915	1057292	45234	110751	0	0	8016	611698	0	0
2024-07-27 02:58:47			0	36250	0	0	0	28940	27540	167953	26890	1057265	45234	110757	0	0	8015	612239	0	0
2024-07-27 02:59:47			0	36243	0	0	0	28937	27530	168025	26909	1057310	45222	110756	0	0	8014	612566	0	0
2024-07-27 03:00:47			0	36245	0	0	0	28929	27540	168097	27156	1057301	45246	110753	0	0	8015	612447	0	0
2024-07-27 03:01:47			0	36218	0	0	0	28935	27540	168169	26745	1057265	45245	110755	0	0	8013	613572	0	0
2024-07-27 03:02:47			0	36214	0	0	0	28924	27540	168221	26968	1057319	45234	110751	0	0	8013	613739	0	0
2024-07-27 03:03:47			0	36182	0	0	0	28937	27540	168373	27000	1057247	45235	110756	0	0	8011	615074	0	0
2024-07-27 03:04:47			0	36184	0	0	0	28924	27530	168309	27048	1057256	45234	110751	0	0	8011	615026	0	0
2024-07-27 03:05:47			0	36182	0	0	0	28937	27530	168405	26838	1057274	45221	110756	0	0	8011	615110	0	0
2024-07-27 03:06:47			0	36160	0	0	0	28937	27540	168421	27133	1057239	45234	110756	0	0	8010	615994	0	0
2024-07-27 03:07:47			0	36160	0	0	0	28937	27540	168533	27137	1057292	45245	110756	0	0	8010	615994	0	0
2024-07-27 03:08:47			0	36138	0	0	0	28932	27530	168485	26713	1057256	45255	110754	0	0	8008	616949	0	0
2024-07-27 03:09:47			0	36130	0	0	0	28935	27530	168517	27005	1057274	45221	110755	0	0	8008	617284	0	0
2024-07-27 03:10:47			0	36122	0	0	0	28932	27530	168597	27145	1057283	45234	110754	0	0	8007	617619	0	0
2024-07-27 03:11:47			0	36114	0	0	0	28924	27540	168641	26863	1057265	45234	110751	0	0	8007	617919	0	0
2024-07-27 03:12:47			0	36099	0	0	0	28922	27530	168637	26909	1057283	45234	110750	0	0	8006	618583	0	0
2024-07-27 03:13:47			0	36099	0	0	0	28916	27530	168665	26873	1057274	45244	110748	0	0	8006	618583	0	0
2024-07-27 03:14:47			0	36083	0	0	0	28922	27530	168737	26908	1057220	45233	110750	0	0	8005	619255	0	0
2024-07-27 03:15:47			0	36094	0	0	0	28932	27530	168753	27078	1057256	45245	110754	0	0	8006	618793	0	0
2024-07-27 03:16:47			0	36073	0	0	0	28924	27540	168745	26642	1057292	45234	110751	0	0	8005	619639	0	0
2024-07-27 03:17:47			0	36075	0	0	0	28929	27520	168877	26913	1057185	45232	110753	0	0	8004	619626	0	0
2024-07-27 03:18:47			0	36075	0	0	0	28924	27530	168769	26746	1057140	45233	110751	0	0	8005	619590	0	0
2024-07-27 03:19:47			0	36082	0	0	0	28924	27530	168897	26967	1057220	45233	110751	0	0	8005	619297	0	0
2024-07-27 03:20:47			0	36071	0	0	0	28927	27530	168877	27190	1057274	45244	110752	0	0	8004	619758	0	0
2024-07-27 03:21:47			0	36075	0	0	0	28922	27530	168841	26828	1057229	45245	110750	0	0	8005	619590	0	0
2024-07-27 03:22:47			0	36053	0	0	0	28922	27530	168873	26892	1057229	45234	110750	0	0	8003	620514	0	0
2024-07-27 03:23:47			0	36084	0	0	0	28922	27530	168817	26986	1057175	45234	110750	0	0	8005	619213	0	0
2024-07-27 03:24:47			0	36067	0	0	0	28916	27530	168889	27140	1057220	45233	110748	0	0	8004	619926	0	0
2024-07-27 03:25:47			0	36081	0	0	0	28906	27510	168889	26949	1057176	45232	110744	0	0	8005	619410	0	0
2024-07-27 03:26:47			0	36063	0	0	0	28914	27520	168845	27072	1057211	45232	110747	0	0	8004	620130	0	0
2024-07-27 03:27:47			0	36088	0	0	0	28909	27530	168773	27015	1057193	45244	110745	0	0	8006	619045	0	0
2024-07-27 03:28:47			0	36079	0	0	0	28903	27520	168701	26885	1057211	45232	110743	0	0	8005	619458	0	0
2024-07-27 03:29:47			0	36080	0	0	0	28909	27510	168685	26791	1057149	45243	110745	0	0	8005	619452	0	0
2024-07-27 03:30:47			0	36081	0	0	0	28914	27530	168737	27086	1057220	45233	110747	0	0	8005	619338	0	0
2024-07-27 03:31:47			0	36074	0	0	0	28911	27510	168853	26837	1057149	45232	110746	0	0	8005	619704	0	0
2024-07-27 03:32:47			0	36096	0	0	0	28901	27510	168817	26842	1057140	45242	110742	0	0	8006	618780	0	0
2024-07-27 03:33:47			0	36070	0	0	0	28909	27510	168813	27012	1057194	45231	110745	0	0	8004	619872	0	0
2024-07-27 03:34:47			0	36084	0	0	0	28909	27510	168861	27045	1057167	45231	110745	0	0	8005	619284	0	0
2024-07-27 03:35:47			0	36080	0	0	0	28901	27510	168825	26974	1057140	45231	110742	0	0	8005	619452	0	0
2024-07-27 03:36:47			0	36081	0	0	0	28906	27520	168813	26791	1057158	45232	110744	0	0	8005	619374	0	0
2024-07-27 03:37:47			0	36084	0	0	0	28896	27510	168761	26953	1057149	45232	110740	0	0	8006	619284	0	0
2024-07-27 03:38:47			0	36088	0	0	0	28898	27510	168773	27137	1057140	45231	110741	0	0	8006	619116	0	0
2024-07-27 03:39:47			0	36093	0	0	0	28893	27510	168701	27026	1057032	45252	110739	0	0	8006	618906	0	0
2024-07-27 03:40:47			0	36087	0	0	0	28885	27500	168729	27104	1057158	45231	110736	0	0	8006	619194	0	0
2024-07-27 03:41:47			0	36092	0	0	0	28877	27500	168769	26885	1057122	45230	110733	0	0	8006	618984	0	0
2024-07-27 03:42:47			0	36107	0	0	0	28883	27500	168805	26899	1057050	45231	110735	0	0	8007	618355	0	0
2024-07-27 03:43:47			0	36119	0	0	0	28883	27490	168781	26882	1057033	45241	110735	0	0	8008	617887	0	0
2024-07-27 03:44:47			0	36106	0	0	0	28880	27490	168697	27059	1057077	45217	110734	0	0	8007	618432	0	0
2024-07-27 03:45:47			0	36107	0	0	0	28880	27490	168657	26772	1057086	45241	110734	0	0	8007	618390	0	0
2024-07-27 03:46:47			0	36107	0	0	0	28872	27490	168625	27189	1057086	45230	110731	0	0	8007	618390	0	0
2024-07-27 03:47:47			0	36112	0	0	0	28875	27500	168637	27031	1057095	45230	110732	0	0	8007	618145	0	0
2024-07-27 03:48:47			0	36134	0	0	0	28880	27490	168609	26913	1057024	45229	110734	0	0	8009	617259	0	0
2024-07-27 03:49:47			0	36125	0	0	0	28862	27480	168549	27118	1057015	45229	110727	0	0	8008	617671	0	0
2024-07-27 03:50:47			0	36132	0	0	0	28857	27480	168641	27024	1056988	45229	110725	0	0	8009	617378	0	0
2024-07-27 03:51:47			0	36142	0	0	0	28854	27480	168625	26909	1056988	45229	110724	0	0	8010	616960	0	0
2024-07-27 03:52:47			0	36126	0	0	0	28857	27480	168481	27052	1056961	45217	110725	0	0	8009	617630	0	0
2024-07-27 03:53:47			0	36120	0	0	0	28862	27470	168617	26866	1056961	45227	110727	0	0	8008	617917	0	0
2024-07-27 03:54:47			0	36117	0	0	0	28857	27470	168649	26923	1057015	45227	110725	0	0	8008	618042	0	0
2024-07-27 03:55:47			0	36116	0	0	0	28857	27470	168777	27171	1056970	45239	110725	0	0	8008	618084	0	0
2024-07-27 03:56:47			0	36108	0	0	0	28846	27470	168625	26939	1056961	45227	110721	0	0	8008	618419	0	0
2024-07-27 03:57:47			0	36090	0	0	0	28849	27470	168625	27107	1056880	45238	110722	0	0	8006	619175	0	0
2024-07-27 03:58:47			0	36105	0	0	0	28857	27460	168729	27119	1056925	45226	110725	0	0	8007	618581	0	0
2024-07-27 03:59:47			0	36095	0	0	0	28864	27460	168673	27104	1057006	45237	110728	0	0	8006	619000	0	0
2024-07-27 04:00:47			0	36089	0	0	0	28854	27460	168741	27307	1056952	45237	110724	0	0	8006	619252	0	0
2024-07-27 04:01:47			0	36108	0	0	0	28851	27460	168817	27220	1056890	45226	110723	0	0	8007	618455	0	0
2024-07-27 04:02:47			0	36084	0	0	0	28857	27460	168737	27031	1056836	45237	110725	0	0	8006	619462	0	0
2024-07-27 04:03:47			0	36093	0	0	0	28859	27460	168797	27135	1056925	45214	110726	0	0	8006	619084	0	0
2024-07-27 04:04:47			0	36085	0	0	0	28854	27460	168817	26925	1056863	45226	110724	0	0	8006	619420	0	0
2024-07-27 04:05:47			0	36067	0	0	0	28844	27460	168885	27050	1056943	45226	110720	0	0	8005	620176	0	0
2024-07-27 04:06:47			0	36063	0	0	0	28846	27460	168905	27053	1056898	45237	110721	0	0	8005	620344	0	0
2024-07-27 04:07:47			0	36057	0	0	0	28849	27460	168829	27017	1056943	45237	110722	0	0	8004	620596	0	0
2024-07-27 04:08:47			0	36034	0	0	0	28838	27460	169001	27079	1056925	45259	110718	0	0	8003	621564	0	0
2024-07-27 04:09:47			0	36034	0	0	0	28849	27450	168969	27216	1056845	45225	110722	0	0	8003	621599	0	0
2024-07-27 04:10:47			0	36037	0	0	0	28854	27450	169057	27003	1056881	45226	110724	0	0	8003	621473	0	0
2024-07-27 04:11:47			0	36025	0	0	0	28851	27450	169025	27041	1056908	45226	110723	0	0	8002	621978	0	0
2024-07-27 04:12:47			0	36018	0	0	0	28849	27460	169061	27079	1056925	45237	110722	0	0	8002	622237	0	0
2024-07-27 04:13:47			0	36028	0	0	0	28849	27450	169069	27298	1056908	45226	110722	0	0	8003	621852	0	0
2024-07-27 04:14:47			0	36017	0	0	0	28849	27440	169129	27093	1056890	45235	110722	0	0	8002	622351	0	0
2024-07-27 04:15:47			0	36032	0	0	0	28844	27450	169089	27138	1056872	45225	110720	0	0	8003	621683	0	0
2024-07-27 04:16:47			0	36003	0	0	0	28838	27450	169173	27159	1056854	45226	110718	0	0	8001	622905	0	0
2024-07-27 04:17:47			0	36007	0	0	0	28836	27460	169221	26911	1056863	45237	110717	0	0	8002	622701	0	0
2024-07-27 04:18:47			0	36007	0	0	0	28838	27450	169081	27137	1056800	45226	110718	0	0	8002	622736	0	0
2024-07-27 04:19:47			0	35998	0	0	0	28841	27450	169097	27090	1056791	45236	110719	0	0	8001	623116	0	0
2024-07-27 04:20:47			0	36002	0	0	0	28844	27440	169057	26948	1056809	45224	110720	0	0	8001	622983	0	0
2024-07-27 04:21:47			0	35988	0	0	0	28841	27440	169145	26880	1056809	45235	110719	0	0	8000	623573	0	0
2024-07-27 04:22:47			0	35991	0	0	0	28844	27440	169149	26842	1056863	45224	110720	0	0	8000	623447	0	0
2024-07-27 04:23:47			0	35994	0	0	0	28844	27450	169241	26826	1056845	45236	110720	0	0	8001	623284	0	0
2024-07-27 04:24:47			0	35997	0	0	0	28849	27440	169145	27199	1056854	45247	110722	0	0	8001	623194	0	0
2024-07-27 04:25:47			0	35992	0	0	0	28844	27440	169197	26979	1056827	45235	110720	0	0	8000	623405	0	0
2024-07-27 04:26:47			0	35990	0	0	0	28836	27430	169113	26994	1056872	45235	110717	0	0	8000	623525	0	0
2024-07-27 04:27:47			0	35989	0	0	0	28836	27450	169269	27022	1056872	45225	110717	0	0	8000	623495	0	0
2024-07-27 04:28:47			0	35984	0	0	0	28844	27440	169245	27026	1056863	45224	110720	0	0	8000	623742	0	0
2024-07-27 04:29:47			0	35989	0	0	0	28849	27450	169273	27135	1056791	45236	110722	0	0	8000	623495	0	0
2024-07-27 04:30:47			0	35989	0	0	0	28836	27440	169325	26935	1056854	45235	110717	0	0	8000	623531	0	0
2024-07-27 04:31:47			0	35962	0	0	0	28838	27430	169145	27164	1056791	45224	110718	0	0	7999	624706	0	0
2024-07-27 04:32:47			0	35978	0	0	0	28828	27450	169285	27026	1056818	45225	110714	0	0	8000	623959	0	0
2024-07-27 04:33:47			0	35999	0	0	0	28825	27440	169177	27007	1056809	45224	110713	0	0	8001	623109	0	0
2024-07-27 04:34:47			0	35971	0	0	0	28831	27440	169345	26739	1056854	45224	110715	0	0	7999	624291	0	0
2024-07-27 04:35:47			0	35981	0	0	0	28833	27440	169229	27133	1056800	45224	110716	0	0	8000	623869	0	0
2024-07-27 04:36:47			0	35972	0	0	0	28818	27440	169369	27175	1056800	45224	110710	0	0	8000	624248	0	0
2024-07-27 04:37:47			0	35961	0	0	0	28833	27440	169349	26753	1056809	45235	110716	0	0	7999	624713	0	0
2024-07-27 04:38:47			0	35958	0	0	0	28831	27440	169413	27178	1056773	45235	110715	0	0	7999	624840	0	0
2024-07-27 04:39:47			0	35966	0	0	0	28823	27430	169393	27213	1056782	45234	110712	0	0	7999	624538	0	0
2024-07-27 04:40:47			0	35970	0	0	0	28825	27430	169357	27123	1056872	45212	110713	0	0	7999	624369	0	0
2024-07-27 04:41:47			0	35977	0	0	0	28820	27430	169361	27194	1056809	45223	110711	0	0	8000	624073	0	0
2024-07-27 04:42:47			0	35965	0	0	0	28833	27430	169317	27100	1056809	45223	110716	0	0	7999	624580	0	0
2024-07-27 04:43:47			0	35987	0	0	0	28828	27430	169401	27317	1056782	45234	110714	0	0	8000	623651	0	0
2024-07-27 04:44:47			0	35963	0	0	0	28831	27440	169489	27097	1056827	45235	110715	0	0	7999	624628	0	0
2024-07-27 04:45:47			0	35967	0	0	0	28825	27430	169297	27156	1056818	45235	110713	0	0	7999	624495	0	0
2024-07-27 04:46:47			0	35956	0	0	0	28820	27420	169413	27076	1056720	45222	110711	0	0	7999	624996	0	0
2024-07-27 04:47:47			0	35950	0	0	0	28831	27430	169369	27159	1056756	45234	110715	0	0	7998	625213	0	0
2024-07-27 04:48:47			0	35956	0	0	0	28815	27420	169445	26644	1056747	45222	110709	0	0	7999	624996	0	0
2024-07-27 04:49:47			0	35951	0	0	0	28825	27430	169373	26700	1056791	45247	110713	0	0	7998	625171	0	0
2024-07-27 04:50:47			0	35944	0	0	0	28818	27430	169473	26850	1056782	45246	110710	0	0	7998	625467	0	0
2024-07-27 04:51:47			0	35940	0	0	0	28828	27430	169465	26892	1056782	45223	110714	0	0	7998	625636	0	0
2024-07-27 04:52:47			0	35938	0	0	0	28810	27430	169465	27147	1056791	45257	110707	0	0	7998	625721	0	0
2024-07-27 04:53:47			0	35940	0	0	0	28818	27420	169521	26816	1056800	45222	110710	0	0	7998	625672	0	0
2024-07-27 04:54:47			0	35939	0	0	0	28818	27420	169401	26863	1056791	45233	110710	0	0	7998	625715	0	0
2024-07-27 04:55:47			0	35939	0	0	0	28825	27430	169513	27092	1056756	45234	110713	0	0	7998	625679	0	0
2024-07-27 04:56:47			0	35934	0	0	0	28810	27430	169577	27196	1056782	45234	110707	0	0	7997	625890	0	0
2024-07-27 04:57:47			0	35930	0	0	0	28810	27420	169481	27267	1056774	45210	110707	0	0	7997	626095	0	0
2024-07-27 04:58:47			0	35909	0	0	0	28805	27420	169621	26991	1056791	45222	110705	0	0	7996	626984	0	0
2024-07-27 04:59:47			0	35923	0	0	0	28805	27420	169605	27116	1056720	45222	110705	0	0	7997	626391	0	0
2024-07-27 05:00:47			0	35913	0	0	0	28797	27420	169625	27024	1056693	45222	110702	0	0	7996	626815	0	0
2024-07-27 05:01:47			0	35907	0	0	0	28789	27420	169697	26979	1056711	45222	110699	0	0	7996	627069	0	0
2024-07-27 05:02:47			0	35901	0	0	0	28789	27410	169697	26961	1056693	45232	110699	0	0	7996	627359	0	0
2024-07-27 05:03:47			0	35895	0	0	0	28797	27410	169725	27059	1056639	45232	110702	0	0	7995	627613	0	0
2024-07-27 05:04:47			0	35890	0	0	0	28789	27410	169669	26748	1056675	45232	110699	0	0	7995	627825	0	0
2024-07-27 05:05:47			0	35876	0	0	0	28802	27410	169793	27003	1056693	45221	110704	0	0	7994	628419	0	0
2024-07-27 05:06:47			0	35881	0	0	0	28789	27400	169833	27053	1056621	45219	110699	0	0	7994	628243	0	0
2024-07-27 05:07:47			0	35888	0	0	0	28792	27400	169785	26807	1056684	45243	110700	0	0	7995	627946	0	0
2024-07-27 05:08:47			0	35871	0	0	0	28799	27400	169865	27012	1056594	45242	110703	0	0	7994	628667	0	0
2024-07-27 05:09:47			0	35864	0	0	0	28784	27400	169945	26811	1056630	45231	110697	0	0	7994	628964	0	0
2024-07-27 05:10:47			0	35868	0	0	0	28781	27400	169925	27088	1056648	45230	110696	0	0	7994	628794	0	0
2024-07-27 05:11:47			0	35889	0	0	0	28789	27400	169953	26949	1056675	45230	110699	0	0	7995	627903	0	0
2024-07-27 05:12:47			0	35858	0	0	0	28784	27400	169864	26949	1056630	45209	110697	0	0	7993	629218	0	0
2024-07-27 05:13:47			0	35869	0	0	0	28784	27400	169857	27105	1056603	45231	110697	0	0	7994	628752	0	0
2024-07-27 05:14:47			0	35868	0	0	0	28781	27400	169957	27267	1056567	45219	110696	0	0	7994	628794	0	0
2024-07-27 05:15:47			0	35862	0	0	0	28784	27400	169881	27072	1056621	45219	110697	0	0	7993	629049	0	0
2024-07-27 05:16:47			0	35862	0	0	0	28784	27390	170041	26713	1056576	45230	110697	0	0	7993	629085	0	0
2024-07-27 05:17:47			0	35865	0	0	0	28781	27400	170105	26854	1056657	45220	110696	0	0	7994	628921	0	0
2024-07-27 05:18:47			0	35865	0	0	0	28781	27390	170029	26916	1056603	45219	110696	0	0	7994	628958	0	0
2024-07-27 05:19:47			0	35850	0	0	0	28779	27390	170028	27001	1056666	45230	110695	0	0	7993	629594	0	0
2024-07-27 05:20:47			0	35876	0	0	0	28771	27390	169933	26798	1056612	45230	110692	0	0	7994	628491	0	0
2024-07-27 05:21:47			0	35857	0	0	0	28784	27380	169904	27039	1056505	45228	110697	0	0	7993	629333	0	0
2024-07-27 05:22:47			0	35861	0	0	0	28776	27380	169885	26873	1056559	45228	110694	0	0	7993	629164	0	0
2024-07-27 05:23:47			0	35866	0	0	0	28771	27380	169993	26840	1056559	45217	110692	0	0	7994	628951	0	0
2024-07-27 05:24:47			0	35881	0	0	0	28771	27380	169893	26885	1056586	45217	110692	0	0	7995	628315	0	0
2024-07-27 05:25:47			0	35877	0	0	0	28763	27370	169973	27083	1056577	45217	110689	0	0	7995	628521	0	0
2024-07-27 05:26:47			0	35859	0	0	0	28761	27370	169912	27069	1056550	45240	110688	0	0	7993	629285	0	0
2024-07-27 05:27:47			0	35874	0	0	0	28753	27380	169933	27012	1056487	45218	110685	0	0	7995	628612	0	0
2024-07-27 05:28:47			0	35867	0	0	0	28761	27370	169969	26765	1056514	45228	110688	0	0	7994	628945	0	0
2024-07-27 05:29:47			0	35867	0	0	0	28763	27380	169937	26840	1056559	45228	110689	0	0	7994	628909	0	0
2024-07-27 05:30:47			0	35876	0	0	0	28763	27370	169917	26814	1056460	45228	110689	0	0	7994	628563	0	0
2024-07-27 05:31:47			0	35865	0	0	0	28755	27370	169988	26635	1056514	45240	110686	0	0	7994	629030	0	0
2024-07-27 05:32:47			0	35866	0	0	0	28755	27370	169865	26831	1056523	45207	110686	0	0	7994	628987	0	0
2024-07-27 05:33:47			0	35885	0	0	0	28768	27360	169869	26823	1056532	45239	110691	0	0	7995	628217	0	0
2024-07-27 05:34:47			0	35890	0	0	0	28763	27370	169893	26831	1056496	45228	110689	0	0	7995	627969	0	0
2024-07-27 05:35:47			0	35876	0	0	0	28753	27370	169941	26949	1056523	45228	110685	0	0	7995	628563	0	0
2024-07-27 05:36:47			0	35884	0	0	0	28755	27370	169909	27178	1056433	45228	110686	0	0	7995	628224	0	0
2024-07-27 05:37:47			0	35891	0	0	0	28748	27360	169917	27059	1056451	45216	110683	0	0	7996	627963	0	0
2024-07-27 05:38:47			0	35891	0	0	0	28742	27360	169813	26771	1056416	45215	110681	0	0	7996	627963	0	0
2024-07-27 05:39:47			0	35900	0	0	0	28737	27360	169829	27235	1056451	45227	110679	0	0	7996	627581	0	0
2024-07-27 05:40:47			0	35895	0	0	0	28742	27350	169685	26720	1056434	45215	110681	0	0	7996	627830	0	0
2024-07-27 05:41:47			0	35887	0	0	0	28742	27360	169801	27088	1056442	45226	110681	0	0	7995	628133	0	0
2024-07-27 05:42:47			0	35905	0	0	0	28748	27360	169793	27107	1056469	45226	110683	0	0	7996	627370	0	0
2024-07-27 05:43:47			0	35897	0	0	0	28740	27340	169789	26871	1056389	45226	110680	0	0	7996	627781	0	0
2024-07-27 05:44:47			0	35907	0	0	0	28735	27350	169749	26838	1056425	45226	110678	0	0	7997	627321	0	0
2024-07-27 05:45:47			0	35914	0	0	0	28735	27350	169809	26866	1056371	45215	110678	0	0	7997	627024	0	0
2024-07-27 05:46:47			0	35907	0	0	0	28727	27350	169881	27024	1056371	45215	110675	0	0	7997	627321	0	0
2024-07-27 05:47:47			0	35921	0	0	0	28729	27350	169817	26911	1056425	45226	110676	0	0	7998	626728	0	0
2024-07-27 05:48:47			0	35912	0	0	0	28719	27330	169837	26913	1056344	45212	110672	0	0	7997	627181	0	0
2024-07-27 05:49:47			0	35932	0	0	0	28722	27330	169761	26890	1056317	45212	110673	0	0	7998	626335	0	0
2024-07-27 05:50:47			0	35937	0	0	0	28716	27340	169769	26833	1056326	45225	110671	0	0	7999	626087	0	0
2024-07-27 05:51:47			0	35920	0	0	0	28714	27340	169813	27076	1056281	45214	110670	0	0	7998	626806	0	0
2024-07-27 05:52:47			0	35927	0	0	0	28714	27340	169785	26722	1056326	45225	110670	0	0	7998	626510	0	0
2024-07-27 05:53:47			0	35938	0	0	0	28711	27340	169713	26870	1056272	45213	110669	0	0	7999	626045	0	0
2024-07-27 05:54:47			0	35927	0	0	0	28706	27330	169785	26772	1056335	45212	110667	0	0	7998	626546	0	0
2024-07-27 05:55:47			0	35936	0	0	0	28709	27330	169649	26897	1056255	45235	110668	0	0	7999	626165	0	0
2024-07-27 05:56:47			0	35923	0	0	0	28703	27320	169689	26800	1056210	45211	110666	0	0	7998	626751	0	0
2024-07-27 05:57:47			0	35933	0	0	0	28701	27330	169645	26916	1056290	45224	110665	0	0	7999	626292	0	0
2024-07-27 05:58:47			0	35967	0	0	0	28693	27310	169737	26771	1056228	45210	110662	0	0	8001	624926	0	0
2024-07-27 05:59:47			0	35931	0	0	0	28690	27310	169681	26911	1056255	45222	110661	0	0	7999	626449	0	0
2024-07-27 06:00:47			0	35936	0	0	0	28688	27310	169693	27123	1056174	45210	110660	0	0	7999	626237	0	0
2024-07-27 06:01:47			0	35925	0	0	0	28685	27310	169725	27150	1056147	45222	110659	0	0	7998	626703	0	0
2024-07-27 06:02:47			0	35930	0	0	0	28688	27300	169677	27194	1056201	45199	110660	0	0	7999	626527	0	0
2024-07-27 06:03:47			0	35937	0	0	0	28685	27300	169765	27105	1056103	45222	110659	0	0	7999	626231	0	0
2024-07-27 06:04:47			0	35944	0	0	0	28675	27310	169693	26811	1056085	45210	110655	0	0	8000	625899	0	0
2024-07-27 06:05:47			0	35939	0	0	0	28683	27300	169817	27138	1056183	45222	110658	0	0	7999	626146	0	0
2024-07-27 06:06:47			0	35948	0	0	0	28693	27290	169649	26968	1056165	45208	110662	0	0	8000	625801	0	0
2024-07-27 06:07:47			0	35944	0	0	0	28690	27290	169569	27144	1056130	45208	110661	0	0	7999	625971	0	0
2024-07-27 06:08:47			0	35937	0	0	0	28688	27290	169625	27104	1056139	45231	110660	0	0	7999	626267	0	0
2024-07-27 06:09:47			0	35953	0	0	0	28698	27310	169661	27350	1056165	45222	110664	0	0	8000	625518	0	0
2024-07-27 06:10:47			0	35951	0	0	0	28701	27300	169621	27034	1056210	45210	110665	0	0	8000	625639	0	0
2024-07-27 06:11:47			0	35945	0	0	0	28696	27290	169617	26726	1056112	45220	110663	0	0	7999	625928	0	0
2024-07-27 06:12:47			0	35957	0	0	0	28688	27300	169593	27010	1056174	45209	110660	0	0	8000	625385	0	0
2024-07-27 06:13:47			0	35961	0	0	0	28693	27300	169633	26648	1056121	45221	110662	0	0	8000	625216	0	0
2024-07-27 06:14:47			0	35937	0	0	0	28688	27290	169609	27024	1056112	45231	110660	0	0	7999	626267	0	0
2024-07-27 06:15:47			0	35953	0	0	0	28683	27290	169641	27024	1056130	45208	110658	0	0	8000	625590	0	0
2024-07-27 06:16:47			0	35955	0	0	0	28685	27290	169585	27010	1056165	45231	110659	0	0	8000	625505	0	0
2024-07-27 06:17:47			0	35961	0	0	0	28696	27300	169521	26736	1056148	45221	110663	0	0	8000	625216	0	0
2024-07-27 06:18:47			0	35965	0	0	0	28690	27300	169653	27114	1056121	45221	110661	0	0	8001	625047	0	0
2024-07-27 06:19:47			0	35967	0	0	0	28690	27300	169649	26951	1056183	45222	110661	0	0	8001	624962	0	0
2024-07-27 06:20:47			0	35955	0	0	0	28701	27290	169581	26982	1056157	45220	110665	0	0	8000	625505	0	0
2024-07-27 06:21:47			0	35969	0	0	0	28698	27300	169601	27156	1056174	45209	110664	0	0	8001	624878	0	0
2024-07-27 06:22:47			0	35975	0	0	0	28698	27290	169505	27307	1056112	45220	110664	0	0	8001	624660	0	0
2024-07-27 06:23:47			0	35970	0	0	0	28701	27290	169585	26871	1056219	45231	110665	0	0	8001	624871	0	0
2024-07-27 06:24:47			0	35967	0	0	0	28698	27300	169509	26804	1056183	45210	110664	0	0	8001	624962	0	0
2024-07-27 06:25:47			0	35966	0	0	0	28690	27290	169469	26915	1056112	45231	110661	0	0	8001	625040	0	0
2024-07-27 06:26:47			0	35988	0	0	0	28701	27290	169413	27093	1056165	45220	110665	0	0	8002	624111	0	0
2024-07-27 06:27:47			0	35985	0	0	0	28698	27300	169421	27078	1056148	45221	110664	0	0	8002	624202	0	0
2024-07-27 06:28:47			0	35988	0	0	0	28696	27290	169497	26935	1056058	45220	110663	0	0	8002	624111	0	0
2024-07-27 06:29:47			0	35997	0	0	0	28701	27290	169385	26994	1056165	45208	110665	0	0	8002	623731	0	0
2024-07-27 06:30:47			0	35989	0	0	0	28698	27290	169321	27178	1056192	45220	110664	0	0	8002	624069	0	0
2024-07-27 06:31:47			0	35999	0	0	0	28693	27300	169257	27055	1056183	45233	110662	0	0	8003	623611	0	0
2024-07-27 06:32:47			0	36006	0	0	0	28693	27300	169369	27157	1056174	45221	110662	0	0	8003	623316	0	0
2024-07-27 06:33:47			0	36014	0	0	0	28696	27300	169313	27131	1056121	45209	110663	0	0	8004	622978	0	0
2024-07-27 06:34:47			0	36017	0	0	0	28685	27290	169337	27294	1056139	45231	110659	0	0	8004	622888	0	0
2024-07-27 06:35:47			0	36033	0	0	0	28696	27290	169233	27062	1056157	45231	110663	0	0	8005	622213	0	0
2024-07-27 06:36:47			0	36037	0	0	0	28696	27300	169197	27180	1056210	45222	110663	0	0	8005	622009	0	0
2024-07-27 06:37:47			0	36048	0	0	0	28703	27300	169337	27183	1056148	45221	110666	0	0	8006	621546	0	0
2024-07-27 06:38:47			0	36038	0	0	0	28698	27300	169213	27034	1056121	45243	110664	0	0	8005	621967	0	0
2024-07-27 06:39:47			0	36057	0	0	0	28709	27300	169253	27083	1056148	45209	110668	0	0	8006	621167	0	0
2024-07-27 06:40:47			0	36087	0	0	0	28706	27300	169149	27128	1056121	45221	110667	0	0	8008	619906	0	0
2024-07-27 06:41:47			0	36086	0	0	0	28698	27310	169073	26880	1056246	45233	110664	0	0	8008	619912	0	0
2024-07-27 06:42:47			0	36087	0	0	0	28711	27290	169085	26785	1056210	45220	110669	0	0	8008	619941	0	0
2024-07-27 06:43:47			0	36104	0	0	0	28711	27290	168957	26783	1056139	45220	110669	0	0	8009	619228	0	0
2024-07-27 06:44:47			0	36111	0	0	0	28706	27300	168905	26817	1056174	45232	110667	0	0	8009	618898	0	0
2024-07-27 06:45:47			0	36133	0	0	0	28714	27300	168829	26811	1056210	45222	110670	0	0	8010	617975	0	0
2024-07-27 06:46:47			0	36122	0	0	0	28714	27310	168673	27197	1056219	45233	110670	0	0	8010	618401	0	0
2024-07-27 06:47:47			0	36150	0	0	0	28711	27310	168673	27307	1056219	45222	110669	0	0	8012	617228	0	0
2024-07-27 06:48:47			0	36169	0	0	0	28703	27300	168533	27279	1056183	45233	110666	0	0	8013	616468	0	0
2024-07-27 06:49:47			0	36196	0	0	0	28711	27300	168609	26817	1056228	45232	110669	0	0	8014	615338	0	0
2024-07-27 06:50:47			0	36203	0	0	0	28714	27310	168485	26845	1056201	45233	110670	0	0	8015	615010	0	0
2024-07-27 06:51:47			0	36226	0	0	0	28714	27300	168425	27260	1056264	45233	110670	0	0	8016	614085	0	0
2024-07-27 06:52:47			0	36247	0	0	0	28714	27310	168361	27235	1056219	45222	110670	0	0	8017	613174	0	0
2024-07-27 06:53:47			0	36280	0	0	0	28711	27310	168205	26909	1056246	45222	110669	0	0	8019	611799	0	0
2024-07-27 06:54:47			0	36309	0	0	0	28711	27300	167997	26698	1056237	45233	110669	0	0	8021	610628	0	0
2024-07-27 06:55:47			0	36319	0	0	0	28706	27310	167977	27156	1056255	45210	110667	0	0	8022	610177	0	0
2024-07-27 06:56:47			0	36354	0	0	0	28722	27320	167917	27244	1056291	45211	110673	0	0	8024	608689	0	0
2024-07-27 06:57:47			0	36352	0	0	0	28719	27310	167701	27270	1056282	45210	110672	0	0	8024	608807	0	0
2024-07-27 06:58:47			0	36387	0	0	0	28711	27320	167629	27097	1056291	45211	110669	0	0	8026	607322	0	0
2024-07-27 06:59:47			0	36417	0	0	0	28716	27310	167497	26911	1056309	45233	110671	0	0	8028	606115	0	0
2024-07-27 07:00:47			0	36455	0	0	0	28719	27310	167321	27258	1056309	45222	110672	0	0	8030	604545	0	0
2024-07-27 07:01:47			0	36471	0	0	0	28716	27310	167297	27407	1056228	45233	110671	0	0	8031	603884	0	0
2024-07-27 07:02:47			0	36506	0	0	0	28716	27310	167145	27173	1056228	45222	110671	0	0	8033	602442	0	0
2024-07-27 07:03:47			0	36543	0	0	0	28711	27310	167081	27267	1056309	45233	110669	0	0	8035	600919	0	0
2024-07-27 07:04:47			0	36571	0	0	0	28714	27310	166817	27126	1056255	45222	110670	0	0	8037	599769	0	0
2024-07-27 07:05:47			0	36607	0	0	0	28703	27310	166586	27092	1056273	45233	110666	0	0	8039	598292	0	0
2024-07-27 07:06:47			0	36654	0	0	0	28703	27320	166510	27105	1056291	45223	110666	0	0	8042	596334	0	0
2024-07-27 07:07:47			0	36677	0	0	0	28711	27320	166310	27242	1056273	45212	110669	0	0	8043	595394	0	0
2024-07-27 07:08:47			0	36698	0	0	0	28709	27310	166298	27116	1056255	45222	110668	0	0	8044	594570	0	0
2024-07-27 07:09:47			0	36753	0	0	0	28716	27320	166150	27229	1056300	45212	110671	0	0	8048	592294	0	0
2024-07-27 07:10:47			0	36796	0	0	0	28714	27310	165826	27107	1056336	45222	110670	0	0	8050	590580	0	0
2024-07-27 07:11:47			0	36848	0	0	0	28714	27320	165634	27092	1056273	45235	110670	0	0	8053	588436	0	0
2024-07-27 07:12:47			0	36914	0	0	0	28716	27320	165442	27322	1056326	45224	110671	0	0	8057	585765	0	0
2024-07-27 07:13:47			0	36932	0	0	0	28724	27310	165366	27319	1056282	45222	110674	0	0	8058	585072	0	0
2024-07-27 07:14:47			0	36927	0	0	0	28722	27310	165426	27433	1056255	45222	110673	0	0	8058	585274	0	0
2024-07-27 07:15:47			0	36915	0	0	0	28724	27320	165470	27152	1056273	45235	110674	0	0	8057	585725	0	0
2024-07-27 07:16:47			0	36871	0	0	0	28727	27310	165562	27078	1056336	45222	110675	0	0	8054	587538	0	0
2024-07-27 07:17:47			0	36850	0	0	0	28727	27320	165654	27384	1056371	45223	110675	0	0	8053	588355	0	0
2024-07-27 07:18:47			0	36805	0	0	0	28732	27330	165846	27076	1056362	45224	110677	0	0	8050	590146	0	0
2024-07-27 07:19:47			0	36753	0	0	0	28719	27330	166114	27012	1056362	45235	110672	0	0	8048	592260	0	0
2024-07-27 07:20:47			0	36703	0	0	0	28735	27310	166166	27024	1056362	45244	110678	0	0	8044	594366	0	0
2024-07-27 07:21:47			0	36669	0	0	0	28732	27330	166446	27064	1056335	45212	110677	0	0	8042	595686	0	0
2024-07-27 07:22:47			0	36625	0	0	0	28735	27340	166698	26968	1056326	45236	110678	0	0	8040	597452	0	0
2024-07-27 07:23:47			0	36601	0	0	0	28724	27330	166790	27244	1056362	45224	110674	0	0	8038	598469	0	0
2024-07-27 07:24:47			0	36552	0	0	0	28737	27340	167073	27124	1056380	45225	110679	0	0	8035	600446	0	0
2024-07-27 07:25:47			0	36504	0	0	0	28732	27330	167261	27126	1056425	45224	110677	0	0	8033	602455	0	0
2024-07-27 07:26:47			0	36476	0	0	0	28742	27340	167389	27065	1056416	45237	110681	0	0	8031	603574	0	0
2024-07-27 07:27:47			0	36439	0	0	0	28740	27340	167645	27150	1056434	45213	110680	0	0	8029	605101	0	0
2024-07-27 07:28:47			0	36396	0	0	0	28737	27340	167713	27026	1056488	45236	110679	0	0	8026	606879	0	0
2024-07-27 07:29:47			0	36374	0	0	0	28742	27340	167813	26887	1056416	45226	110681	0	0	8025	607790	0	0
2024-07-27 07:30:47			0	36339	0	0	0	28742	27340	167953	27360	1056443	45226	110681	0	0	8023	609242	0	0
2024-07-27 07:31:47			0	36300	0	0	0	28748	27350	168081	27156	1056371	45238	110683	0	0	8020	610827	0	0
2024-07-27 07:32:47			0	36288	0	0	0	28750	27340	168161	27202	1056470	45226	110684	0	0	8019	611361	0	0
2024-07-27 07:33:47			0	36251	0	0	0	28755	27340	168225	27142	1056496	45226	110686	0	0	8017	612902	0	0
2024-07-27 07:34:47			0	36227	0	0	0	28753	27350	168313	27275	1056487	45215	110685	0	0	8016	613867	0	0
2024-07-27 07:35:47			0	36210	0	0	0	28766	27350	168581	27187	1056541	45238	110690	0	0	8014	614577	0	0
2024-07-27 07:36:47			0	36199	0	0	0	28761	27360	168605	27422	1056469	45249	110688	0	0	8014	615001	0	0
2024-07-27 07:37:47			0	36158	0	0	0	28768	27370	168609	27282	1056568	45240	110691	0	0	8011	616680	0	0
2024-07-27 07:38:47			0	36143	0	0	0	28761	27360	168913	27357	1056523	45238	110688	0	0	8011	617343	0	0
2024-07-27 07:39:47			0	36123	0	0	0	28774	27360	168941	27220	1056532	45239	110693	0	0	8009	618182	0	0
2024-07-27 07:40:47			0	36110	0	0	0	28763	27360	169045	27272	1056523	45249	110689	0	0	8009	618727	0	0
2024-07-27 07:41:47			0	36069	0	0	0	28768	27360	169081	27105	1056559	45239	110691	0	0	8006	620449	0	0
2024-07-27 07:42:47			0	36065	0	0	0	28771	27360	169277	27203	1056613	45239	110692	0	0	8006	620617	0	0
2024-07-27 07:43:47			0	36052	0	0	0	28771	27380	169325	27052	1056586	45228	110692	0	0	8005	621092	0	0
2024-07-27 07:44:47			0	36034	0	0	0	28774	27370	169409	27256	1056630	45240	110693	0	0	8004	621885	0	0
2024-07-27 07:45:47			0	36035	0	0	0	28771	27370	169437	27223	1056630	45240	110692	0	0	8004	621843	0	0
2024-07-27 07:46:47			0	36013	0	0	0	28771	27380	169425	27222	1056586	45228	110692	0	0	8003	622734	0	0
2024-07-27 07:47:47			0	35998	0	0	0	28786	27380	169389	27265	1056639	45228	110698	0	0	8002	623367	0	0
2024-07-27 07:48:47			0	35983	0	0	0	28781	27380	169509	27104	1056612	45240	110696	0	0	8001	623999	0	0
2024-07-27 07:49:47			0	35999	0	0	0	28786	27380	169361	27317	1056648	45229	110698	0	0	8002	623324	0	0
2024-07-27 07:50:47			0	35997	0	0	0	28784	27390	169505	27116	1056630	45230	110697	0	0	8002	623373	0	0
2024-07-27 07:51:47			0	35987	0	0	0	28792	27380	169505	27364	1056639	45240	110700	0	0	8001	623831	0	0
2024-07-27 07:52:47			0	35992	0	0	0	28789	27390	169657	27677	1056657	45242	110699	0	0	8001	623584	0	0
2024-07-27 07:53:47			0	35967	0	0	0	28792	27390	169661	27156	1056657	45230	110700	0	0	8000	624639	0	0
2024-07-27 07:54:47			0	35961	0	0	0	28786	27400	169625	27339	1056756	45230	110698	0	0	7999	624857	0	0
2024-07-27 07:55:47			0	35958	0	0	0	28794	27390	169685	27027	1056747	45242	110701	0	0	7999	625019	0	0
2024-07-27 07:56:47			0	35948	0	0	0	28799	27400	169693	27022	1056783	45219	110703	0	0	7998	625406	0	0
2024-07-27 07:57:47			0	35943	0	0	0	28797	27400	169689	27286	1056765	45243	110702	0	0	7998	625617	0	0
2024-07-27 07:58:47			0	35951	0	0	0	28792	27400	169649	27232	1056729	45242	110700	0	0	7999	625279	0	0
2024-07-27 07:59:47			0	35945	0	0	0	28797	27400	169733	27286	1056809	45230	110702	0	0	7998	625533	0	0
2024-07-27 08:00:47			0	35949	0	0	0	28799	27410	169689	27441	1056746	45232	110703	0	0	7998	625328	0	0
2024-07-27 08:01:47			0	35950	0	0	0	28797	27410	169789	27286	1056773	45232	110702	0	0	7999	625285	0	0
2024-07-27 08:02:47			0	35946	0	0	0	28792	27390	169729	27294	1056693	45252	110700	0	0	7998	625526	0	0
2024-07-27 08:03:47			0	35951	0	0	0	28802	27410	169717	27369	1056783	45244	110704	0	0	7999	625243	0	0
2024-07-27 08:04:47			0	35927	0	0	0	28799	27410	169713	27147	1056827	45244	110703	0	0	7997	626258	0	0
2024-07-27 08:05:47			0	35936	0	0	0	28792	27410	169713	27320	1056800	45244	110700	0	0	7998	625877	0	0
2024-07-27 08:06:47			0	35940	0	0	0	28799	27410	169657	27530	1056800	45254	110703	0	0	7998	625708	0	0
2024-07-27 08:07:47			0	35943	0	0	0	28810	27410	169649	27452	1056783	45244	110707	0	0	7998	625581	0	0
2024-07-27 08:08:47			0	35941	0	0	0	28805	27420	169641	27225	1056818	45233	110705	0	0	7998	625630	0	0
2024-07-27 08:09:47			0	35952	0	0	0	28805	27410	169529	27370	1056810	45232	110705	0	0	7999	625201	0	0
2024-07-27 08:10:47			0	35951	0	0	0	28799	27410	169601	27190	1056827	45232	110703	0	0	7999	625243	0	0
2024-07-27 08:11:47			0	35959	0	0	0	28805	27410	169585	27296	1056890	45221	110705	0	0	7999	624905	0	0
2024-07-27 08:12:47			0	35957	0	0	0	28805	27420	169453	27296	1056818	45255	110705	0	0	7999	624954	0	0
2024-07-27 08:13:47			0	35971	0	0	0	28812	27420	169525	27417	1056818	45245	110708	0	0	8000	624362	0	0
2024-07-27 08:14:47			0	35964	0	0	0	28823	27420	169565	27426	1056818	45222	110712	0	0	7999	624658	0	0
2024-07-27 08:15:47			0	35957	0	0	0	28820	27420	169533	27296	1056854	45233	110711	0	0	7999	624954	0	0
2024-07-27 08:16:47			0	35959	0	0	0	28825	27420	169453	27597	1056827	45233	110713	0	0	7999	624869	0	0
2024-07-27 08:17:47			0	35992	0	0	0	28818	27420	169429	27476	1056845	45233	110710	0	0	8001	623476	0	0
2024-07-27 08:18:47			0	35992	0	0	0	28815	27420	169341	27339	1056899	45233	110709	0	0	8001	623476	0	0
2024-07-27 08:19:47			0	35992	0	0	0	28818	27430	169377	27386	1056890	45256	110710	0	0	8001	623440	0	0
2024-07-27 08:20:47			0	36001	0	0	0	28818	27420	169317	27364	1056791	45233	110710	0	0	8001	623097	0	0
2024-07-27 08:21:47			0	36003	0	0	0	28825	27420	169317	27223	1056854	45245	110713	0	0	8001	623013	0	0
2024-07-27 08:22:47			0	35989	0	0	0	28823	27420	169349	27467	1056872	45222	110712	0	0	8001	623603	0	0
2024-07-27 08:23:47			0	35993	0	0	0	28823	27420	169201	27286	1056881	45233	110712	0	0	8001	623434	0	0
2024-07-27 08:24:47			0	36002	0	0	0	28805	27420	169233	27206	1056845	45233	110705	0	0	8002	623055	0	0
2024-07-27 08:25:47			0	36013	0	0	0	28807	27420	169253	27177	1056827	45233	110706	0	0	8002	622591	0	0
2024-07-27 08:26:47			0	36018	0	0	0	28807	27420	169233	26986	1056765	45245	110706	0	0	8003	622380	0	0
2024-07-27 08:27:47			0	36027	0	0	0	28805	27420	169301	27013	1056800	45233	110705	0	0	8003	622001	0	0
2024-07-27 08:28:47			0	36029	0	0	0	28823	27410	169321	27038	1056810	45221	110712	0	0	8003	621953	0	0
2024-07-27 08:29:47			0	36038	0	0	0	28820	27430	169089	27055	1056836	45223	110711	0	0	8004	621503	0	0
2024-07-27 08:30:47			0	36037	0	0	0	28812	27410	169225	27185	1056836	45244	110708	0	0	8004	621616	0	0
2024-07-27 08:31:47			0	36043	0	0	0	28807	27420	169181	26982	1056854	45245	110706	0	0	8004	621328	0	0
2024-07-27 08:32:47			0	36057	0	0	0	28812	27430	169189	27008	1056890	45246	110708	0	0	8005	620703	0	0
2024-07-27 08:33:47			0	36036	0	0	0	28820	27420	169141	27364	1056791	45245	110711	0	0	8003	621622	0	0
2024-07-27 08:34:47			0	36076	0	0	0	28818	27420	169129	27296	1056872	45245	110710	0	0	8006	619941	0	0
2024-07-27 08:35:47			0	36074	0	0	0	28815	27410	169105	27050	1056836	45221	110709	0	0	8006	620060	0	0
2024-07-27 08:36:47			0	36077	0	0	0	28823	27420	169037	27152	1056854	45233	110712	0	0	8006	619899	0	0
2024-07-27 08:37:47			0	36089	0	0	0	28820	27420	169033	27317	1056872	45245	110711	0	0	8007	619395	0	0
2024-07-27 08:38:47			0	36094	0	0	0	28818	27420	168997	27253	1056899	45255	110710	0	0	8007	619185	0	0
2024-07-27 08:39:47			0	36108	0	0	0	28815	27420	168993	27305	1056899	45233	110709	0	0	8008	618597	0	0
2024-07-27 08:40:47			0	36123	0	0	0	28825	27420	168881	27260	1056845	45222	110713	0	0	8009	617968	0	0
2024-07-27 08:41:47			0	36124	0	0	0	28820	27420	168889	27220	1056899	45245	110711	0	0	8009	617926	0	0
2024-07-27 08:42:47			0	36139	0	0	0	28818	27420	168825	27012	1056854	45245	110710	0	0	8010	617298	0	0
2024-07-27 08:43:47			0	36133	0	0	0	28823	27410	168865	27048	1056908	45244	110712	0	0	8009	617585	0	0
2024-07-27 08:44:47			0	36153	0	0	0	28820	27420	168849	27177	1056872	45255	110711	0	0	8010	616712	0	0
2024-07-27 08:45:47			0	36134	0	0	0	28833	27420	168797	26828	1056899	45245	110716	0	0	8009	617507	0	0
2024-07-27 08:46:47			0	36134	0	0	0	28825	27420	168769	27066	1056881	45233	110713	0	0	8009	617507	0	0
2024-07-27 08:47:47			0	36135	0	0	0	28828	27430	168705	27279	1056863	45234	110714	0	0	8009	617430	0	0
2024-07-27 08:48:47			0	36120	0	0	0	28825	27430	168809	27320	1056863	45267	110713	0	0	8008	618059	0	0
2024-07-27 08:49:47			0	36130	0	0	0	28828	27430	168853	26828	1056917	45246	110714	0	0	8009	617639	0	0
2024-07-27 08:50:47			0	36137	0	0	0	28831	27430	168897	27005	1056890	45234	110715	0	0	8009	617346	0	0
2024-07-27 08:51:47			0	36144	0	0	0	28823	27430	168857	26961	1056890	45234	110712	0	0	8010	617053	0	0
2024-07-27 08:52:47			0	36123	0	0	0	28823	27430	168833	27166	1056953	45235	110712	0	0	8009	617933	0	0
2024-07-27 08:53:47			0	36123	0	0	0	28831	27430	168921	27260	1056863	45246	110715	0	0	8009	617933	0	0
2024-07-27 08:54:47			0	36123	0	0	0	28833	27430	168873	26974	1056926	45247	110716	0	0	8009	617933	0	0
2024-07-27 08:55:47			0	36102	0	0	0	28831	27430	168981	27173	1056899	45257	110715	0	0	8007	618813	0	0
2024-07-27 08:56:47			0	36104	0	0	0	28836	27430	168873	27076	1056863	45246	110717	0	0	8007	618730	0	0
2024-07-27 08:57:47			0	36101	0	0	0	28836	27430	169041	27107	1056953	45235	110717	0	0	8007	618855	0	0
2024-07-27 08:58:47			0	36089	0	0	0	28841	27440	169009	26911	1056962	45235	110719	0	0	8006	619323	0	0
2024-07-27 08:59:47			0	36086	0	0	0	28849	27430	169125	27246	1057006	45224	110722	0	0	8006	619485	0	0
2024-07-27 09:00:47			0	36102	0	0	0	28851	27430	169097	26788	1056953	45247	110723	0	0	8007	618813	0	0
2024-07-27 09:01:47			0	36077	0	0	0	28846	27440	169013	27005	1056935	45235	110721	0	0	8006	619827	0	0
2024-07-27 09:02:47			0	36076	0	0	0	28846	27440	169017	26993	1057024	45247	110721	0	0	8006	619869	0	0
2024-07-27 09:03:47			0	36070	0	0	0	28854	27440	169033	27017	1056997	45247	110724	0	0	8005	620121	0	0
2024-07-27 09:04:47			0	36091	0	0	0	28851	27450	169117	26889	1057033	45258	110723	0	0	8006	619204	0	0
2024-07-27 09:05:47			0	36062	0	0	0	28849	27440	169053	26878	1057105	45235	110722	0	0	8005	620457	0	0
2024-07-27 09:06:47			0	36080	0	0	0	28857	27450	169093	27272	1057060	45248	110725	0	0	8006	619666	0	0
2024-07-27 09:07:47			0	36076	0	0	0	28864	27450	169129	27140	1057069	45249	110728	0	0	8005	619834	0	0
2024-07-27 09:08:47			0	36087	0	0	0	28859	27440	169065	27204	1057051	45247	110726	0	0	8006	619407	0	0
2024-07-27 09:09:47			0	36081	0	0	0	28864	27450	168949	27376	1057069	45249	110728	0	0	8006	619624	0	0
2024-07-27 09:10:47			0	36093	0	0	0	28864	27450	168941	27237	1057096	45259	110728	0	0	8006	619120	0	0
2024-07-27 09:11:47			0	36103	0	0	0	28872	27460	169057	27140	1057060	45237	110731	0	0	8007	618665	0	0
2024-07-27 09:12:47			0	36093	0	0	0	28867	27470	168989	26859	1057069	45238	110729	0	0	8006	619049	0	0
2024-07-27 09:13:47			0	36106	0	0	0	28867	27450	168961	27216	1057123	45249	110729	0	0	8007	618575	0	0
2024-07-27 09:14:47			0	36094	0	0	0	28877	27460	168857	26894	1057141	45249	110733	0	0	8006	619042	0	0
2024-07-27 09:15:47			0	36102	0	0	0	28875	27460	168845	27026	1057141	45259	110732	0	0	8007	618707	0	0
2024-07-27 09:16:47			0	36102	0	0	0	28875	27470	168905	27303	1057149	45250	110732	0	0	8007	618671	0	0
2024-07-27 09:17:47			0	36114	0	0	0	28885	27470	168773	27267	1057158	45250	110736	0	0	8007	618168	0	0
2024-07-27 09:18:47			0	36109	0	0	0	28885	27460	168761	27308	1057212	45249	110736	0	0	8007	618413	0	0
2024-07-27 09:19:47			0	36118	0	0	0	28888	27470	168821	27530	1057230	45250	110737	0	0	8007	618000	0	0
2024-07-27 09:20:47			0	36131	0	0	0	28888	27470	168729	27211	1057185	45261	110737	0	0	8008	617456	0	0
2024-07-27 09:21:47			0	36123	0	0	0	28888	27480	168745	27305	1057149	45250	110737	0	0	8008	617755	0	0
2024-07-27 09:22:47			0	36138	0	0	0	28896	27480	168877	27201	1057230	45262	110740	0	0	8009	617127	0	0
2024-07-27 09:23:47			0	36143	0	0	0	28896	27480	168741	27171	1057284	45250	110740	0	0	8009	616918	0	0
2024-07-27 09:24:47			0	36143	0	0	0	28898	27490	168777	27166	1057275	45251	110741	0	0	8009	616882	0	0
2024-07-27 09:25:47			0	36142	0	0	0	28896	27480	168613	27414	1057284	45250	110740	0	0	8009	616960	0	0
2024-07-27 09:26:47			0	36144	0	0	0	28906	27480	168641	27034	1057311	45250	110744	0	0	8009	616876	0	0
2024-07-27 09:27:47			0	36138	0	0	0	28903	27490	168721	27291	1057328	45251	110743	0	0	8009	617091	0	0
2024-07-27 09:28:47			0	36143	0	0	0	28906	27490	168641	27343	1057328	45251	110744	0	0	8009	616882	0	0
2024-07-27 09:29:47			0	36166	0	0	0	28903	27500	168693	27222	1057337	45241	110743	0	0	8010	615885	0	0
2024-07-27 09:30:47			0	36167	0	0	0	28919	27500	168637	26996	1057337	45263	110749	0	0	8010	615843	0	0
2024-07-27 09:31:47			0	36158	0	0	0	28922	27500	168621	27145	1057337	45263	110750	0	0	8009	616219	0	0
2024-07-27 09:32:47			0	36160	0	0	0	28922	27500	168617	27173	1057373	45252	110750	0	0	8010	616136	0	0
2024-07-27 09:33:47			0	36136	0	0	0	28916	27500	168617	27185	1057346	45252	110748	0	0	8008	617140	0	0
2024-07-27 09:34:47			0	36146	0	0	0	28922	27520	168653	26828	1057481	45253	110750	0	0	8009	616650	0	0
2024-07-27 09:35:47			0	36132	0	0	0	28924	27510	168653	27083	1057409	45264	110751	0	0	8008	617272	0	0
2024-07-27 09:36:47			0	36131	0	0	0	28922	27510	168685	27249	1057391	45253	110750	0	0	8008	617314	0	0
2024-07-27 09:37:47			0	36121	0	0	0	28929	27510	168701	27305	1057337	45243	110753	0	0	8007	617733	0	0
2024-07-27 09:38:47			0	36105	0	0	0	28940	27510	168785	26946	1057499	45243	110757	0	0	8006	618403	0	0
2024-07-27 09:39:47			0	36085	0	0	0	28950	27510	168853	27183	1057490	45252	110761	0	0	8005	619242	0	0
2024-07-27 09:40:47			0	36084	0	0	0	28942	27530	168797	27057	1057516	45266	110758	0	0	8005	619213	0	0
2024-07-27 09:41:47			0	36074	0	0	0	28945	27520	168853	27301	1057534	45253	110759	0	0	8004	619668	0	0
2024-07-27 09:42:47			0	36069	0	0	0	28953	27530	168965	27244	1057516	45254	110762	0	0	8004	619842	0	0
2024-07-27 09:43:47			0	36057	0	0	0	28955	27530	168961	27246	1057525	45255	110763	0	0	8003	620347	0	0
2024-07-27 09:44:47			0	36058	0	0	0	28958	27530	168977	27078	1057552	45255	110764	0	0	8003	620305	0	0
2024-07-27 09:45:47			0	36061	0	0	0	28971	27540	168985	27229	1057534	45267	110769	0	0	8003	620143	0	0
2024-07-27 09:46:47			0	36044	0	0	0	28955	27540	168893	27410	1057570	45268	110763	0	0	8002	620857	0	0
2024-07-27 09:47:47			0	36050	0	0	0	28961	27550	169009	27362	1057552	45246	110765	0	0	8003	620569	0	0
2024-07-27 09:48:47			0	36040	0	0	0	28973	27540	169005	27201	1057624	45268	110770	0	0	8002	621025	0	0
2024-07-27 09:49:47			0	36059	0	0	0	28976	27560	168981	27001	1057678	45269	110771	0	0	8003	620155	0	0
2024-07-27 09:50:47			0	36051	0	0	0	28953	27550	168953	27175	1057660	45279	110762	0	0	8003	620527	0	0
2024-07-27 09:51:47			0	36038	0	0	0	28958	27560	168965	27393	1057570	45257	110764	0	0	8002	621038	0	0
2024-07-27 09:52:47			0	36052	0	0	0	28968	27560	168885	27043	1057624	45257	110768	0	0	8003	620450	0	0
2024-07-27 09:53:47			0	36054	0	0	0	28981	27550	168853	27149	1057669	45257	110773	0	0	8002	620401	0	0
2024-07-27 09:54:47			0	36074	0	0	0	28971	27560	168753	27298	1057687	45270	110769	0	0	8004	619525	0	0
2024-07-27 09:55:47			0	36094	0	0	0	28986	27560	168765	27372	1057624	45280	110775	0	0	8005	618686	0	0
2024-07-27 09:56:47			0	36092	0	0	0	29002	27560	168725	27171	1057731	45257	110781	0	0	8004	618770	0	0
2024-07-27 09:57:47			0	36106	0	0	0	28992	27570	168593	27405	1057695	45258	110777	0	0	8006	618148	0	0
2024-07-27 09:58:47			0	36120	0	0	0	29002	27580	168505	27253	1057740	45271	110781	0	0	8006	617526	0	0
2024-07-27 09:59:47			0	36147	0	0	0	28986	27580	168485	27185	1057713	45259	110775	0	0	8008	616396	0	0
2024-07-27 10:00:47			0	36150	0	0	0	28984	27570	168437	27154	1057722	45270	110774	0	0	8008	616306	0	0
2024-07-27 10:01:47			0	36164	0	0	0	28976	27570	168305	27358	1057758	45259	110771	0	0	8009	615720	0	0
2024-07-27 10:02:47			0	36175	0	0	0	28968	27570	168405	27142	1057776	45248	110768	0	0	8010	615261	0	0
2024-07-27 10:03:47			0	36168	0	0	0	28971	27580	168273	27317	1057713	45249	110769	0	0	8010	615518	0	0
2024-07-27 10:04:47			0	36182	0	0	0	28984	27570	168293	27149	1057758	45259	110774	0	0	8010	614968	0	0
2024-07-27 10:05:47			0	36181	0	0	0	28986	27580	168245	27163	1057740	45249	110775	0	0	8010	614975	0	0
2024-07-27 10:06:47			0	36196	0	0	0	28981	27580	168233	27180	1057749	45260	110773	0	0	8011	614349	0	0
2024-07-27 10:07:47			0	36224	0	0	0	28984	27580	168125	26993	1057794	45259	110774	0	0	8013	613181	0	0
2024-07-27 10:08:47			0	36256	0	0	0	28979	27580	168057	26882	1057776	45260	110772	0	0	8015	611848	0	0
2024-07-27 10:09:47			0	36267	0	0	0	28976	27580	167993	26908	1057803	45250	110771	0	0	8016	611391	0	0
2024-07-27 10:10:47			0	36261	0	0	0	28971	27580	168025	27166	1057740	45249	110769	0	0	8015	611640	0	0
2024-07-27 10:11:47			0	36256	0	0	0	28986	27580	167993	26854	1057794	45249	110775	0	0	8015	611848	0	0
2024-07-27 10:12:47			0	36252	0	0	0	28992	27580	168061	27275	1057857	45272	110777	0	0	8014	612015	0	0
2024-07-27 10:13:47			0	36216	0	0	0	28981	27580	168049	27289	1057794	45249	110773	0	0	8012	613514	0	0
2024-07-27 10:14:47			0	36214	0	0	0	28994	27590	168133	26981	1057812	45272	110778	0	0	8012	613562	0	0
2024-07-27 10:15:47			0	36192	0	0	0	28986	27600	168213	27260	1057830	45262	110775	0	0	8011	614445	0	0
2024-07-27 10:16:47			0	36173	0	0	0	28981	27590	168301	27128	1057875	45261	110773	0	0	8010	615273	0	0
2024-07-27 10:17:47			0	36137	0	0	0	29002	27590	168409	27036	1057892	45260	110781	0	0	8007	616778	0	0
2024-07-27 10:18:47			0	36143	0	0	0	29025	27600	168509	27390	1057973	45274	110790	0	0	8007	616492	0	0
2024-07-27 10:19:47			0	36133	0	0	0	29025	27600	168541	27156	1058000	45274	110790	0	0	8007	616910	0	0
2024-07-27 10:20:47			0	36153	0	0	0	29020	27610	168425	27336	1057982	45262	110788	0	0	8008	616038	0	0
2024-07-27 10:21:47			0	36153	0	0	0	29002	27610	168341	27033	1057991	45263	110781	0	0	8008	616038	0	0
2024-07-27 10:22:47			0	36182	0	0	0	29002	27610	168269	27209	1057982	45251	110781	0	0	8010	614827	0	0
2024-07-27 10:23:47			0	36158	0	0	0	29041	27610	168393	27145	1057991	45263	110796	0	0	8008	615829	0	0
2024-07-27 10:24:47			0	36143	0	0	0	29059	27620	168349	27144	1058107	45253	110803	0	0	8007	616421	0	0
2024-07-27 10:25:47			0	36146	0	0	0	29083	27620	168537	27286	1058036	45264	110812	0	0	8007	616296	0	0
2024-07-27 10:26:47			0	36130	0	0	0	29106	27630	168433	27154	1058152	45265	110821	0	0	8005	616929	0	0
2024-07-27 10:27:47			0	36136	0	0	0	29135	27650	168381	27144	1058242	45290	110832	0	0	8005	616607	0	0
2024-07-27 10:28:47			0	36145	0	0	0	29148	27650	168345	27024	1058305	45290	110837	0	0	8006	616231	0	0
2024-07-27 10:29:47			0	36148	0	0	0	29145	27670	168265	27102	1058394	45280	110836	0	0	8006	616035	0	0
2024-07-27 10:30:47			0	36194	0	0	0	29145	27680	168181	26968	1058385	45293	110836	0	0	8009	614078	0	0
2024-07-27 10:31:47			0	36186	0	0	0	29140	27690	168217	27001	1058457	45293	110834	0	0	8008	614377	0	0
2024-07-27 10:32:47			0	36181	0	0	0	29145	27690	168353	26960	1058457	45282	110836	0	0	8008	614585	0	0
2024-07-27 10:33:47			0	36154	0	0	0	29155	27700	168333	27230	1058448	45273	110840	0	0	8006	615677	0	0
2024-07-27 10:34:47			0	36165	0	0	0	29150	27710	168417	26986	1058492	45296	110838	0	0	8007	615182	0	0
2024-07-27 10:35:47			0	36131	0	0	0	29140	27710	168441	27246	1058510	45295	110834	0	0	8005	616603	0	0
2024-07-27 10:36:47			0	36113	0	0	0	29127	27710	168425	27000	1058466	45285	110829	0	0	8004	617357	0	0
2024-07-27 10:37:47			0	36108	0	0	0	29132	27710	168569	27095	1058466	45274	110831	0	0	8004	617566	0	0
2024-07-27 10:38:47			0	36066	0	0	0	29140	27710	168777	27227	1058519	45263	110834	0	0	8001	619326	0	0
2024-07-27 10:39:47			0	36063	0	0	0	29142	27710	168837	27322	1058537	45273	110835	0	0	8001	619452	0	0
2024-07-27 10:40:47			0	36031	0	0	0	29148	27720	168857	27064	1058564	45275	110837	0	0	7999	620760	0	0
2024-07-27 10:41:47			0	35993	0	0	0	29148	27720	169041	27090	1058555	45285	110837	0	0	7997	622359	0	0
2024-07-27 10:42:47			0	35972	0	0	0	29166	27720	169169	27005	1058537	45286	110844	0	0	7995	623243	0	0
2024-07-27 10:43:47			0	35975	0	0	0	29184	27730	169165	27017	1058654	45276	110851	0	0	7995	623081	0	0
2024-07-27 10:44:47			0	35965	0	0	0	29179	27740	169173	27121	1058672	45287	110849	0	0	7995	623467	0	0
2024-07-27 10:45:47			0	35959	0	0	0	29171	27750	169169	26680	1058716	45289	110846	0	0	7994	623684	0	0
2024-07-27 10:46:47			0	35944	0	0	0	29173	27740	169257	27213	1058734	45277	110847	0	0	7994	624352	0	0
2024-07-27 10:47:47			0	35945	0	0	0	29184	27750	169269	26953	1058689	45278	110851	0	0	7993	624274	0	0
2024-07-27 10:48:47			0	35952	0	0	0	29184	27750	169289	27173	1058725	45289	110851	0	0	7994	623979	0	0
2024-07-27 10:49:47			0	35916	0	0	0	29189	27750	169265	27123	1058779	45278	110853	0	0	7992	625499	0	0
2024-07-27 10:50:47			0	35907	0	0	0	29197	27760	169485	26968	1058734	45278	110856	0	0	7991	625843	0	0
2024-07-27 10:51:47			0	35893	0	0	0	29202	27760	169493	27142	1058788	45289	110858	0	0	7990	626435	0	0
2024-07-27 10:52:47			0	35874	0	0	0	29197	27770	169617	27005	1058860	45280	110856	0	0	7989	627203	0	0
2024-07-27 10:53:47			0	35849	0	0	0	29207	27770	169608	26987	1058833	45291	110860	0	0	7987	628262	0	0
2024-07-27 10:54:47			0	35840	0	0	0	29205	27770	169708	27012	1058860	45280	110859	0	0	7987	628643	0	0
2024-07-27 10:55:47			0	35810	0	0	0	29218	27770	169912	27154	1058842	45268	110864	0	0	7985	629916	0	0
2024-07-27 10:56:47			0	35794	0	0	0	29220	27780	169868	26913	1058913	45281	110865	0	0	7984	630560	0	0
2024-07-27 10:57:47			0	35768	0	0	0	29225	27780	170044	27135	1058877	45280	110867	0	0	7982	631665	0	0
2024-07-27 10:58:47			0	35765	0	0	0	29228	27790	170044	27185	1058976	45303	110868	0	0	7982	631756	0	0
2024-07-27 10:59:47			0	35762	0	0	0	29223	27790	170112	26802	1058949	45282	110866	0	0	7982	631884	0	0
2024-07-27 11:00:47			0	35797	0	0	0	29218	27800	170116	27289	1058967	45271	110864	0	0	7984	630359	0	0
2024-07-27 11:01:47			0	35746	0	0	0	29220	27810	170088	26979	1059003	45283	110865	0	0	7981	632492	0	0
2024-07-27 11:02:47			0	35757	0	0	0	29225	27790	170108	26935	1058976	45292	110867	0	0	7982	632097	0	0
2024-07-27 11:03:47			0	35744	0	0	0	29225	27800	170188	27109	1059021	45293	110867	0	0	7981	632614	0	0
2024-07-27 11:04:47			0	35741	0	0	0	29212	27800	170228	27008	1058967	45283	110862	0	0	7981	632742	0	0
2024-07-27 11:05:47			0	35754	0	0	0	29212	27810	170092	27092	1059003	45283	110862	0	0	7982	632152	0	0
2024-07-27 11:06:47			0	35752	0	0	0	29215	27810	170204	27185	1058976	45271	110863	0	0	7981	632237	0	0
2024-07-27 11:07:47			0	35752	0	0	0	29212	27810	170096	27206	1059012	45284	110862	0	0	7982	632237	0	0
2024-07-27 11:08:47			0	35777	0	0	0	29215	27810	170220	26961	1058976	45271	110863	0	0	7983	631173	0	0
2024-07-27 11:09:47			0	35755	0	0	0	29225	27810	170100	26866	1059003	45271	110867	0	0	7981	632109	0	0
2024-07-27 11:10:47			0	35752	0	0	0	29220	27810	170100	27098	1059012	45284	110865	0	0	7981	632237	0	0
2024-07-27 11:11:47			0	35764	0	0	0	29225	27810	170096	27310	1059030	45283	110867	0	0	7982	631726	0	0
2024-07-27 11:12:47			0	35786	0	0	0	29233	27810	170012	26868	1059003	45293	110870	0	0	7983	630791	0	0
2024-07-27 11:13:47			0	35768	0	0	0	29236	27810	169996	27194	1059057	45293	110871	0	0	7982	631556	0	0
2024-07-27 11:14:47			0	35779	0	0	0	29236	27820	169980	27027	1059030	45295	110871	0	0	7983	631052	0	0
2024-07-27 11:15:47			0	35780	0	0	0	29249	27820	169896	27263	1059057	45295	110876	0	0	7983	631009	0	0
2024-07-27 11:16:47			0	35797	0	0	0	29246	27830	169984	27121	1059092	45295	110875	0	0	7984	630250	0	0
2024-07-27 11:17:47			0	35779	0	0	0	29259	27820	169852	27149	1059075	45285	110880	0	0	7982	631052	0	0
2024-07-27 11:18:47			0	35812	0	0	0	29272	27830	169916	26939	1059254	45285	110885	0	0	7984	629614	0	0
2024-07-27 11:19:47			0	35792	0	0	0	29293	27840	169840	27107	1059326	45287	110893	0	0	7983	630427	0	0
2024-07-27 11:20:47			0	35799	0	0	0	29285	27850	169752	26979	1059379	45309	110890	0	0	7983	630093	0	0
2024-07-27 11:21:47			0	35825	0	0	0	29296	27850	169784	27204	1059343	45297	110894	0	0	7985	628989	0	0
2024-07-27 11:22:47			0	35815	0	0	0	29296	27850	169572	26786	1059316	45308	110894	0	0	7984	629414	0	0
2024-07-27 11:23:47			0	35847	0	0	0	29306	27860	169644	27253	1059397	45311	110898	0	0	7986	628021	0	0
2024-07-27 11:24:47			0	35852	0	0	0	29303	27870	169532	27109	1059379	45323	110897	0	0	7986	627773	0	0
2024-07-27 11:25:47			0	35902	0	0	0	29309	27870	169397	27093	1059433	45289	110899	0	0	7989	625658	0	0
2024-07-27 11:26:47			0	35921	0	0	0	29327	27880	169097	26920	1059451	45301	110906	0	0	7990	624819	0	0
2024-07-27 11:27:47			0	35960	0	0	0	29329	27870	169145	27078	1059514	45300	110907	0	0	7992	623211	0	0
2024-07-27 11:28:47			0	35979	0	0	0	29345	27890	168805	26894	1059522	45302	110913	0	0	7993	622339	0	0
2024-07-27 11:29:47			0	36005	0	0	0	29363	27890	168869	26857	1059558	45302	110920	0	0	7995	621245	0	0
2024-07-27 11:30:47			0	36044	0	0	0	29363	27890	168705	27421	1059585	45302	110920	0	0	7997	619607	0	0
2024-07-27 11:31:47			0	36038	0	0	0	29353	27890	168601	27057	1059558	45302	110916	0	0	7997	619859	0	0
2024-07-27 11:32:47			0	36065	0	0	0	29355	27910	168589	27123	1059612	45304	110917	0	0	7999	618655	0	0
2024-07-27 11:33:47			0	36104	0	0	0	29335	27910	168437	27119	1059594	45304	110909	0	0	8001	617022	0	0
2024-07-27 11:34:47			0	36108	0	0	0	29327	27900	168421	27102	1059603	45315	110906	0	0	8002	616890	0	0
2024-07-27 11:35:47			0	36129	0	0	0	29316	27920	168297	27227	1059666	45294	110902	0	0	8003	615941	0	0
2024-07-27 11:36:47			0	36131	0	0	0	29303	27900	168321	26876	1059522	45282	110897	0	0	8003	615929	0	0
2024-07-27 11:37:47			0	36139	0	0	0	29290	27910	168237	27505	1059540	45292	110892	0	0	8004	615559	0	0
2024-07-27 11:38:47			0	36132	0	0	0	29290	27910	168321	27029	1059513	45292	110892	0	0	8004	615851	0	0
2024-07-27 11:39:47			0	36109	0	0	0	29288	27900	168269	27163	1059549	45304	110891	0	0	8002	616848	0	0
2024-07-27 11:40:47			0	36107	0	0	0	29296	27910	168269	27055	1059451	45292	110894	0	0	8002	616897	0	0
2024-07-27 11:41:47			0	36104	0	0	0	29290	27890	168413	27201	1059477	45302	110892	0	0	8002	617093	0	0
2024-07-27 11:42:47			0	36052	0	0	0	29277	27910	168573	26906	1059505	45304	110887	0	0	7999	619200	0	0
2024-07-27 11:43:47			0	36057	0	0	0	29272	27910	168769	26911	1059478	45292	110885	0	0	8000	618990	0	0
2024-07-27 11:44:47			0	36026	0	0	0	29257	27890	168741	26970	1059451	45291	110879	0	0	7998	620363	0	0
2024-07-27 11:45:47			0	36026	0	0	0	29251	27890	168793	26960	1059424	45291	110877	0	0	7998	620363	0	0
2024-07-27 11:46:47			0	35987	0	0	0	29249	27890	168917	26755	1059370	45280	110876	0	0	7996	622002	0	0
2024-07-27 11:47:47			0	35998	0	0	0	29259	27880	168841	27197	1059325	45280	110880	0	0	7996	621575	0	0
2024-07-27 11:48:47			0	35979	0	0	0	29259	27880	168893	27232	1059262	45279	110880	0	0	7995	622375	0	0
2024-07-27 11:49:47			0	35982	0	0	0	29249	27880	168849	27206	1059289	45290	110876	0	0	7995	622248	0	0
2024-07-27 11:50:47			0	35951	0	0	0	29254	27870	168957	26989	1059325	45278	110878	0	0	7993	623590	0	0
2024-07-27 11:51:47			0	35955	0	0	0	29241	27870	169009	27152	1059298	45289	110873	0	0	7994	623421	0	0
2024-07-27 11:52:47			0	35924	0	0	0	29238	27880	169069	26712	1059325	45291	110872	0	0	7992	624693	0	0
2024-07-27 11:53:47			0	35909	0	0	0	29246	27870	169125	27329	1059325	45289	110875	0	0	7991	625362	0	0
2024-07-27 11:54:47			0	35906	0	0	0	29246	27880	169189	27149	1059343	45290	110875	0	0	7991	625453	0	0
2024-07-27 11:55:47			0	35911	0	0	0	29257	27870	169269	27039	1059253	45289	110879	0	0	7991	625277	0	0
2024-07-27 11:56:47			0	35877	0	0	0	29270	27870	169309	27206	1059298	45289	110884	0	0	7988	626715	0	0
2024-07-27 11:57:47			0	35881	0	0	0	29275	27860	169433	27008	1059397	45300	110886	0	0	7989	626581	0	0
2024-07-27 11:58:47			0	35863	0	0	0	29275	27870	169501	27251	1059460	45300	110886	0	0	7988	627307	0	0
2024-07-27 11:59:47			0	35864	0	0	0	29293	27870	169365	27046	1059334	45289	110893	0	0	7987	627265	0	0
2024-07-27 12:00:47			0	35885	0	0	0	29280	27880	169381	27346	1059370	45312	110888	0	0	7989	626340	0	0
2024-07-27 12:01:47			0	35886	0	0	0	29319	27880	169309	26908	1059460	45302	110903	0	0	7988	626298	0	0
2024-07-27 12:02:47			0	35899	0	0	0	29332	27890	169253	27376	1059495	45291	110908	0	0	7989	625712	0	0
2024-07-27 12:03:47			0	35932	0	0	0	29332	27890	169001	26802	1059558	45313	110908	0	0	7991	624319	0	0
2024-07-27 12:04:47			0	35966	0	0	0	29329	27910	168997	27218	1059585	45315	110907	0	0	7993	622814	0	0
2024-07-27 12:05:47			0	35981	0	0	0	29306	27910	168981	27102	1059567	45304	110898	0	0	7994	622183	0	0
2024-07-27 12:06:47			0	35985	0	0	0	29309	27910	168881	27066	1059585	45292	110899	0	0	7995	622014	0	0
2024-07-27 12:07:47			0	35967	0	0	0	29306	27910	168973	27098	1059594	45304	110898	0	0	7994	622772	0	0
2024-07-27 12:08:47			0	35989	0	0	0	29314	27910	168841	27095	1059585	45304	110901	0	0	7995	621846	0	0
2024-07-27 12:09:47			0	35992	0	0	0	29296	27910	168833	27034	1059612	45292	110894	0	0	7995	621720	0	0
2024-07-27 12:10:47			0	35993	0	0	0	29296	27910	168737	27012	1059585	45282	110894	0	0	7995	621678	0	0
2024-07-27 12:11:47			0	36004	0	0	0	29288	27910	168625	27263	1059594	45304	110891	0	0	7996	621215	0	0
2024-07-27 12:12:47			0	36036	0	0	0	29314	27910	168537	27069	1059612	45282	110901	0	0	7998	619871	0	0
2024-07-27 12:13:47			0	36052	0	0	0	29327	27920	168545	27001	1059684	45305	110906	0	0	7998	619164	0	0
2024-07-27 12:14:47			0	36056	0	0	0	29358	27920	168509	27092	1059693	45317	110918	0	0	7998	618997	0	0
2024-07-27 12:15:47			0	36058	0	0	0	29389	27930	168561	26824	1059782	45318	110930	0	0	7998	618877	0	0
2024-07-27 12:16:47			0	36061	0	0	0	29381	27950	168465	26972	1059926	45320	110927	0	0	7998	618680	0	0
2024-07-27 12:17:47			0	36069	0	0	0	29361	27950	168389	27324	1059908	45309	110919	0	0	7999	618345	0	0
2024-07-27 12:18:47			0	36091	0	0	0	29402	27950	168297	26911	1059881	45309	110935	0	0	8000	617424	0	0
2024-07-27 12:19:47			0	36136	0	0	0	29363	27960	168165	27355	1059872	45310	110920	0	0	8003	615507	0	0
2024-07-27 12:20:47			0	36160	0	0	0	29363	27960	168009	27043	1059899	45298	110920	0	0	8004	614505	0	0
2024-07-27 12:21:47			0	36192	0	0	0	29371	27960	167961	27159	1059953	45288	110923	0	0	8006	613172	0	0
2024-07-27 12:22:47			0	36184	0	0	0	29410	27970	167953	26934	1060015	45311	110938	0	0	8005	613470	0	0
2024-07-27 12:23:47			0	36181	0	0	0	29374	27980	167777	27114	1059979	45311	110924	0	0	8006	613559	0	0
2024-07-27 12:24:47			0	36198	0	0	0	29379	27970	167853	27090	1059961	45299	110926	0	0	8006	612886	0	0
2024-07-27 12:25:47			0	36186	0	0	0	29392	27980	167693	27137	1060042	45290	110931	0	0	8006	613351	0	0
2024-07-27 12:26:47			0	36202	0	0	0	29462	27990	167913	26876	1060114	45324	110958	0	0	8005	612649	0	0
2024-07-27 12:27:47			0	36203	0	0	0	29457	28010	167793	27008	1060167	45326	110956	0	0	8006	612537	0	0
2024-07-27 12:28:47			0	36204	0	0	0	29444	28010	167729	27157	1060230	45337	110951	0	0	8006	612495	0	0
2024-07-27 12:29:47			0	36238	0	0	0	29436	28010	167593	26873	1060203	45315	110948	0	0	8008	611082	0	0
2024-07-27 12:30:47			0	36281	0	0	0	29392	28020	167337	27013	1060140	45304	110931	0	0	8012	609262	0	0
2024-07-27 12:31:47			0	36320	0	0	0	29368	28020	167165	27078	1060104	45315	110922	0	0	8014	607647	0	0
2024-07-27 12:32:47			0	36347	0	0	0	29355	28010	167109	26868	1060096	45293	110917	0	0	8016	606566	0	0
2024-07-27 12:33:47			0	36343	0	0	0	29337	28010	167001	27074	1060006	45281	110910	0	0	8016	606731	0	0
2024-07-27 12:34:47			0	36354	0	0	0	29335	28010	167065	26928	1059952	45292	110909	0	0	8017	606276	0	0
2024-07-27 12:35:47			0	36346	0	0	0	29353	27990	167089	27043	1060033	45291	110916	0	0	8016	606677	0	0
2024-07-27 12:36:47			0	36324	0	0	0	29368	28000	167229	27024	1060078	45313	110922	0	0	8014	607552	0	0
2024-07-27 12:37:47			0	36326	0	0	0	29371	28000	167225	26951	1060051	45313	110923	0	0	8014	607469	0	0
2024-07-27 12:38:47			0	36312	0	0	0	29366	28010	167301	26783	1059979	45292	110921	0	0	8014	608013	0	0
2024-07-27 12:39:47			0	36331	0	0	0	29353	28000	167245	26986	1060024	45291	110916	0	0	8015	607262	0	0
2024-07-27 12:40:47			0	36319	0	0	0	29350	27990	167317	27038	1059916	45291	110915	0	0	8014	607793	0	0
2024-07-27 12:41:47			0	36321	0	0	0	29337	27980	167157	26897	1059881	45290	110910	0	0	8015	607746	0	0
2024-07-27 12:42:47			0	36321	0	0	0	29324	27980	167345	26942	1059845	45289	110905	0	0	8015	607746	0	0
2024-07-27 12:43:47			0	36314	0	0	0	29332	27970	167201	27055	1059863	45289	110908	0	0	8014	608071	0	0
2024-07-27 12:44:47			0	36321	0	0	0	29335	27960	167201	26805	1059818	45288	110909	0	0	8015	607816	0	0
2024-07-27 12:45:47			0	36331	0	0	0	29335	27960	167125	27194	1059791	45276	110909	0	0	8015	607402	0	0
2024-07-27 12:46:47			0	36366	0	0	0	29358	27970	167177	26913	1059935	45311	110918	0	0	8017	605920	0	0
2024-07-27 12:47:47			0	36361	0	0	0	29381	27970	167141	26956	1059881	45311	110927	0	0	8016	606127	0	0
2024-07-27 12:48:47			0	36371	0	0	0	29415	27980	167097	27060	1059925	45322	110940	0	0	8016	605679	0	0
2024-07-27 12:49:47			0	36355	0	0	0	29415	27980	167109	26896	1059988	45312	110940	0	0	8015	606340	0	0
2024-07-27 12:50:47			0	36351	0	0	0	29407	27990	167197	27086	1060087	45313	110937	0	0	8015	606470	0	0
2024-07-27 12:51:47			0	36371	0	0	0	29405	27990	167145	26868	1060060	45313	110936	0	0	8017	605644	0	0
2024-07-27 12:52:47			0	36403	0	0	0	29402	27990	167025	27020	1060060	45291	110935	0	0	8018	604324	0	0
2024-07-27 12:53:47			0	36412	0	0	0	29412	28000	167005	27052	1060069	45302	110939	0	0	8019	603918	0	0
2024-07-27 12:54:47			0	36408	0	0	0	29399	27990	166897	27008	1060087	45301	110934	0	0	8019	604118	0	0
2024-07-27 12:55:47			0	36417	0	0	0	29418	27990	166893	26880	1060033	45301	110941	0	0	8019	603747	0	0
2024-07-27 12:56:47			0	36421	0	0	0	29436	28000	166901	27192	1060132	45313	110948	0	0	8019	603547	0	0
2024-07-27 12:57:47			0	36405	0	0	0	29446	28010	166889	27156	1060140	45326	110952	0	0	8018	604172	0	0
2024-07-27 12:58:47			0	36395	0	0	0	29436	28010	166853	26915	1060176	45304	110948	0	0	8018	604584	0	0
2024-07-27 12:59:47			0	36397	0	0	0	29420	28010	166885	26970	1060167	45303	110942	0	0	8018	604502	0	0
2024-07-27 13:00:47			0	36408	0	0	0	29433	28020	166953	26745	1060140	45315	110947	0	0	8018	604013	0	0
2024-07-27 13:01:47			0	36403	0	0	0	29457	28020	166825	27034	1060194	45315	110956	0	0	8018	604219	0	0
2024-07-27 13:02:47			0	36415	0	0	0	29470	28010	166761	26915	1060203	45327	110961	0	0	8018	603760	0	0
2024-07-27 13:03:47			0	36416	0	0	0	29498	28030	166837	26942	1060311	45316	110972	0	0	8018	603649	0	0
2024-07-27 13:04:47			0	36434	0	0	0	29625	28030	166653	26984	1060455	45339	111021	0	0	8017	602908	0	0
2024-07-27 13:05:47			0	36488	0	0	0	29654	28060	166541	27059	1060616	45365	111032	0	0	8020	600584	0	0
2024-07-27 13:06:47			0	36495	0	0	0	29667	28090	166389	26762	1060741	45356	111037	0	0	8020	600193	0	0
2024-07-27 13:07:47			0	36509	0	0	0	29623	28110	166321	26956	1060858	45358	111020	0	0	8022	599550	0	0
2024-07-27 13:08:47			0	36504	0	0	0	29607	28130	166289	26968	1060858	45348	111014	0	0	8022	599686	0	0
2024-07-27 13:09:47			0	36491	0	0	0	29602	28130	166369	27007	1060893	45316	111012	0	0	8021	600219	0	0
2024-07-27 13:10:47			0	36477	0	0	0	29607	28140	166397	27130	1060822	45349	111014	0	0	8020	600759	0	0
2024-07-27 13:11:47			0	36466	0	0	0	29612	28140	166433	26726	1060911	45328	111016	0	0	8019	601210	0	0
2024-07-27 13:12:47			0	36458	0	0	0	29610	28150	166445	26748	1060947	45328	111015	0	0	8019	601504	0	0
2024-07-27 13:13:47			0	36454	0	0	0	29615	28160	166485	26828	1060965	45329	111017	0	0	8019	601634	0	0
2024-07-27 13:14:47			0	36436	0	0	0	29636	28170	166529	26798	1061037	45341	111025	0	0	8017	602339	0	0
2024-07-27 13:15:47			0	36435	0	0	0	29636	28170	166545	27059	1060992	45341	111025	0	0	8017	602380	0	0
2024-07-27 13:16:47			0	36449	0	0	0	29641	28180	166521	27098	1061109	45342	111027	0	0	8018	601769	0	0
2024-07-27 13:17:47			0	36451	0	0	0	29646	28190	166565	27133	1061153	45332	111029	0	0	8018	601653	0	0
2024-07-27 13:18:47			0	36424	0	0	0	29649	28190	166501	26982	1061189	45343	111030	0	0	8017	602763	0	0
2024-07-27 13:19:47			0	36428	0	0	0	29646	28200	166549	27079	1061171	45356	111029	0	0	8017	602563	0	0
2024-07-27 13:20:47			0	36444	0	0	0	29633	28200	166509	27050	1061180	45344	111024	0	0	8018	601905	0	0
2024-07-27 13:21:47			0	36440	0	0	0	29646	28230	166461	27305	1061198	45336	111029	0	0	8018	601966	0	0
2024-07-27 13:22:47			0	36462	0	0	0	29646	28220	166433	27263	1061180	45335	111029	0	0	8019	601097	0	0
2024-07-27 13:23:47			0	36457	0	0	0	29633	28220	166361	27098	1061234	45335	111024	0	0	8019	601302	0	0
2024-07-27 13:24:47			0	36468	0	0	0	29607	28230	166301	26911	1061171	45347	111014	0	0	8020	600816	0	0
2024-07-27 13:25:47			0	36465	0	0	0	29597	28220	166373	27074	1061189	45325	111010	0	0	8020	600974	0	0
2024-07-27 13:26:47			0	36484	0	0	0	29594	28220	166293	27098	1061162	45325	111009	0	0	8021	600194	0	0
2024-07-27 13:27:47			0	36467	0	0	0	29605	28220	166329	27100	1061126	45346	111013	0	0	8020	600892	0	0
2024-07-27 13:28:47			0	36487	0	0	0	29607	28220	166309	27157	1061162	45325	111014	0	0	8021	600071	0	0
2024-07-27 13:29:47			0	36488	0	0	0	29625	28220	166361	27128	1061162	45335	111021	0	0	8021	600030	0	0
2024-07-27 13:30:47			0	36476	0	0	0	29636	28220	166369	27213	1061189	45335	111025	0	0	8020	600522	0	0
2024-07-27 13:31:47			0	36470	0	0	0	29641	28230	166373	27060	1061252	45336	111027	0	0	8020	600734	0	0
2024-07-27 13:32:47			0	36475	0	0	0	29628	28230	166513	27230	1061252	45336	111022	0	0	8020	600529	0	0
2024-07-27 13:33:47			0	36461	0	0	0	29615	28230	166397	27036	1061198	45326	111017	0	0	8020	601103	0	0
2024-07-27 13:34:47			0	36448	0	0	0	29636	28230	166505	26965	1061252	45336	111025	0	0	8018	601637	0	0
2024-07-27 13:35:47			0	36414	0	0	0	29610	28220	166741	27126	1061189	45346	111015	0	0	8017	603069	0	0
2024-07-27 13:36:47			0	36390	0	0	0	29602	28220	166785	27390	1061243	45325	111012	0	0	8015	604058	0	0
2024-07-27 13:37:47			0	36358	0	0	0	29615	28220	166853	27109	1061180	45325	111017	0	0	8013	605377	0	0
2024-07-27 13:38:47			0	36363	0	0	0	29615	28220	166949	27109	1061162	45325	111017	0	0	8014	605171	0	0
2024-07-27 13:39:47			0	36325	0	0	0	29612	28200	166881	26965	1061126	45333	111016	0	0	8011	606809	0	0
2024-07-27 13:40:47			0	36317	0	0	0	29625	28210	167045	26991	1061171	45324	111021	0	0	8011	607105	0	0
2024-07-27 13:41:47			0	36321	0	0	0	29641	28220	167125	27140	1061189	45346	111027	0	0	8011	606905	0	0
2024-07-27 13:42:47			0	36296	0	0	0	29646	28210	167161	26613	1061198	45324	111029	0	0	8009	607973	0	0
2024-07-27 13:43:47			0	36286	0	0	0	29659	28220	167233	27038	1061216	45346	111034	0	0	8008	608352	0	0
2024-07-27 13:44:47			0	36291	0	0	0	29667	28220	167205	27279	1061243	45346	111037	0	0	8008	608145	0	0
2024-07-27 13:45:47			0	36282	0	0	0	29662	28230	167277	27100	1061279	45347	111035	0	0	8008	608483	0	0
2024-07-27 13:46:47			0	36277	0	0	0	29670	28230	167245	27206	1061315	45347	111038	0	0	8008	608690	0	0
2024-07-27 13:47:47			0	36290	0	0	0	29646	28240	167161	27222	1061332	45338	111029	0	0	8009	608116	0	0
2024-07-27 13:48:47			0	36308	0	0	0	29651	28230	167213	26894	1061315	45347	111031	0	0	8010	607407	0	0
2024-07-27 13:49:47			0	36347	0	0	0	29649	28240	167113	27111	1061359	45338	111030	0	0	8012	605761	0	0
2024-07-27 13:50:47			0	36340	0	0	0	29644	28230	167101	27118	1061288	45336	111028	0	0	8012	606085	0	0
2024-07-27 13:51:47			0	36332	0	0	0	29651	28240	167153	27426	1061306	45327	111031	0	0	8011	606380	0	0
2024-07-27 13:52:47			0	36317	0	0	0	29641	28250	167253	27211	1061341	45327	111027	0	0	8011	606965	0	0
2024-07-27 13:53:47			0	36309	0	0	0	29657	28240	167149	27319	1061386	45327	111033	0	0	8010	607331	0	0
2024-07-27 13:54:47			0	36309	0	0	0	29651	28240	167253	27069	1061306	45327	111031	0	0	8010	607331	0	0
2024-07-27 13:55:47			0	36297	0	0	0	29623	28250	167229	26916	1061314	45327	111020	0	0	8010	607792	0	0
2024-07-27 13:56:47			0	36276	0	0	0	29620	28240	167313	26956	1061216	45327	111019	0	0	8008	608696	0	0
2024-07-27 13:57:47			0	36253	0	0	0	29610	28240	167469	26779	1061297	45327	111015	0	0	8007	609649	0	0
2024-07-27 13:58:47			0	36221	0	0	0	29615	28230	167525	27128	1061225	45326	111017	0	0	8005	611012	0	0
2024-07-27 13:59:47			0	36237	0	0	0	29605	28230	167497	27048	1061252	45326	111013	0	0	8006	610348	0	0
2024-07-27 14:00:47			0	36237	0	0	0	29599	28230	167605	26663	1061225	45326	111011	0	0	8006	610348	0	0
2024-07-27 14:01:47			0	36239	0	0	0	29599	28230	167517	27147	1061225	45326	111011	0	0	8007	610265	0	0
2024-07-27 14:02:47			0	36199	0	0	0	29605	28240	167569	26734	1061216	45327	111013	0	0	8004	611891	0	0
2024-07-27 14:03:47			0	36205	0	0	0	29636	28230	167609	26875	1061252	45336	111025	0	0	8004	611676	0	0
2024-07-27 14:04:47			0	36215	0	0	0	29646	28230	167577	26819	1061279	45336	111029	0	0	8004	611261	0	0
2024-07-27 14:05:47			0	36204	0	0	0	29646	28240	167661	27090	1061404	45360	111029	0	0	8004	611683	0	0
2024-07-27 14:06:47			0	36227	0	0	0	29641	28230	167465	27135	1061368	45336	111027	0	0	8005	610763	0	0
2024-07-27 14:07:47			0	36215	0	0	0	29638	28250	167513	27376	1061368	45338	111026	0	0	8005	611191	0	0
2024-07-27 14:08:47			0	36228	0	0	0	29646	28250	167493	27203	1061341	45349	111029	0	0	8005	610651	0	0
2024-07-27 14:09:47			0	36259	0	0	0	29623	28240	167449	26934	1061297	45348	111020	0	0	8007	609400	0	0
2024-07-27 14:10:47			0	36266	0	0	0	29605	28250	167377	27048	1061314	45338	111013	0	0	8008	609075	0	0
2024-07-27 14:11:47			0	36289	0	0	0	29607	28230	167237	26944	1061315	45326	111014	0	0	8009	608193	0	0
2024-07-27 14:12:47			0	36274	0	0	0	29597	28240	167181	26870	1061270	45315	111010	0	0	8009	608779	0	0
2024-07-27 14:13:47			0	36306	0	0	0	29599	28230	167145	27163	1061252	45326	111011	0	0	8011	607490	0	0
2024-07-27 14:14:47			0	36322	0	0	0	29607	28220	167165	27086	1061243	45325	111014	0	0	8011	606863	0	0
2024-07-27 14:15:47			0	36308	0	0	0	29618	28230	167049	27074	1061288	45336	111018	0	0	8010	607407	0	0
2024-07-27 14:16:47			0	36304	0	0	0	29618	28230	167053	27019	1061261	45326	111018	0	0	8010	607572	0	0
2024-07-27 14:17:47			0	36321	0	0	0	29638	28230	167101	27078	1061279	45336	111026	0	0	8011	606870	0	0
2024-07-27 14:18:47			0	36331	0	0	0	29625	28240	167129	27022	1061297	45337	111021	0	0	8012	606421	0	0
2024-07-27 14:19:47			0	36315	0	0	0	29633	28230	167157	26955	1061288	45347	111024	0	0	8011	607118	0	0
2024-07-27 14:20:47			0	36324	0	0	0	29641	28230	167033	26916	1061288	45326	111027	0	0	8011	606746	0	0
2024-07-27 14:21:47			0	36341	0	0	0	29625	28240	167081	27161	1061323	45348	111021	0	0	8012	606008	0	0
2024-07-27 14:22:47			0	36334	0	0	0	29631	28230	166937	26856	1061341	45336	111023	0	0	8012	606332	0	0
2024-07-27 14:23:47			0	36351	0	0	0	29654	28240	166985	27052	1061323	45348	111032	0	0	8012	605596	0	0
2024-07-27 14:24:47			0	36364	0	0	0	29662	28240	166973	26904	1061377	45337	111035	0	0	8013	605059	0	0
2024-07-27 14:25:47			0	36380	0	0	0	29698	28240	166913	26955	1061440	45349	111049	0	0	8013	604400	0	0
2024-07-27 14:26:47			0	36369	0	0	0	29703	28250	166817	26911	1061458	45361	111051	0	0	8013	604818	0	0
2024-07-27 14:27:47			0	36408	0	0	0	29706	28270	166629	26996	1061566	45363	111052	0	0	8015	603142	0	0
2024-07-27 14:28:47			0	36429	0	0	0	29706	28270	166601	26755	1061602	45340	111052	0	0	8016	602279	0	0
2024-07-27 14:29:47			0	36435	0	0	0	29701	28270	166441	26771	1061602	45340	111050	0	0	8017	602032	0	0
2024-07-27 14:30:47			0	36455	0	0	0	29683	28270	166413	27000	1061539	45351	111043	0	0	8018	601210	0	0
2024-07-27 14:31:47			0	36472	0	0	0	29693	28270	166409	27166	1061575	45351	111047	0	0	8019	600513	0	0
2024-07-27 14:32:47			0	36473	0	0	0	29716	28280	166349	27161	1061620	45365	111056	0	0	8019	600437	0	0
2024-07-27 14:33:47			0	36488	0	0	0	29719	28280	166265	27168	1061638	45364	111057	0	0	8020	599822	0	0
2024-07-27 14:34:47			0	36470	0	0	0	29709	28300	166293	27164	1061656	45355	111053	0	0	8019	600491	0	0
2024-07-27 14:35:47			0	36491	0	0	0	29696	28300	166269	27267	1061683	45355	111048	0	0	8020	599630	0	0
2024-07-27 14:36:47			0	36481	0	0	0	29685	28320	166217	27062	1061736	45333	111044	0	0	8020	599970	0	0
2024-07-27 14:37:47			0	36498	0	0	0	29690	28300	166297	26984	1061683	45344	111046	0	0	8021	599343	0	0
2024-07-27 14:38:47			0	36492	0	0	0	29696	28300	166285	26977	1061656	45344	111048	0	0	8020	599589	0	0
2024-07-27 14:39:47			0	36479	0	0	0	29696	28300	166405	26771	1061656	45355	111048	0	0	8020	600122	0	0
2024-07-27 14:40:47			0	36467	0	0	0	29698	28310	166317	27060	1061754	45345	111049	0	0	8019	600579	0	0
2024-07-27 14:41:47			0	36459	0	0	0	29685	28310	166333	27111	1061665	45345	111044	0	0	8019	600907	0	0
2024-07-27 14:42:47			0	36435	0	0	0	29670	28310	166537	26798	1061665	45323	111038	0	0	8017	601893	0	0
2024-07-27 14:43:47			0	36437	0	0	0	29664	28310	166569	27081	1061719	45345	111036	0	0	8018	601811	0	0
2024-07-27 14:44:47			0	36429	0	0	0	29709	28310	166605	27208	1061665	45345	111053	0	0	8016	602139	0	0
2024-07-27 14:45:47			0	36429	0	0	0	29696	28300	166425	27124	1061790	45344	111048	0	0	8017	602174	0	0
2024-07-27 14:46:47			0	36423	0	0	0	29690	28320	166449	27150	1061736	45333	111046	0	0	8016	602351	0	0
2024-07-27 14:47:47			0	36447	0	0	0	29672	28310	166417	26889	1061665	45333	111039	0	0	8018	601400	0	0
2024-07-27 14:48:47			0	36449	0	0	0	29664	28320	166325	26972	1061656	45356	111036	0	0	8018	601283	0	0
2024-07-27 14:49:47			0	36441	0	0	0	29667	28310	166361	27088	1061665	45333	111037	0	0	8018	601646	0	0
2024-07-27 14:50:47			0	36449	0	0	0	29675	28300	166333	26734	1061602	45333	111040	0	0	8018	601353	0	0
2024-07-27 14:51:47			0	36449	0	0	0	29683	28310	166325	27111	1061638	45333	111043	0	0	8018	601318	0	0
2024-07-27 14:52:47			0	36426	0	0	0	29688	28310	166445	27017	1061620	45333	111045	0	0	8017	602263	0	0
2024-07-27 14:53:47			0	36424	0	0	0	29701	28310	166377	26785	1061719	45345	111050	0	0	8016	602345	0	0
2024-07-27 14:54:47			0	36454	0	0	0	29690	28310	166365	27150	1061647	45333	111046	0	0	8018	601113	0	0
2024-07-27 14:55:47			0	36453	0	0	0	29675	28310	166357	27055	1061665	45345	111040	0	0	8018	601154	0	0
2024-07-27 14:56:47			0	36457	0	0	0	29683	28310	166373	27308	1061665	45345	111043	0	0	8019	600989	0	0
2024-07-27 14:57:47			0	36454	0	0	0	29706	28310	166433	27078	1061745	45356	111052	0	0	8018	601113	0	0
2024-07-27 14:58:47			0	36459	0	0	0	29698	28320	166333	27149	1061763	45345	111049	0	0	8018	600873	0	0
2024-07-27 14:59:47			0	36456	0	0	0	29664	28320	166261	27102	1061736	45356	111036	0	0	8019	600996	0	0
2024-07-27 15:00:47			0	36470	0	0	0	29685	28320	166341	27039	1061682	45345	111044	0	0	8019	600421	0	0
2024-07-27 15:01:47			0	36468	0	0	0	29719	28320	166233	27100	1061736	45345	111057	0	0	8019	600503	0	0
2024-07-27 15:02:47			0	36476	0	0	0	29722	28310	166297	27213	1061772	45356	111058	0	0	8019	600210	0	0
2024-07-27 15:03:47			0	36472	0	0	0	29677	28330	166313	26920	1061781	45347	111041	0	0	8020	600305	0	0
2024-07-27 15:04:47			0	36472	0	0	0	29703	28320	166341	27154	1061763	45356	111051	0	0	8019	600339	0	0
2024-07-27 15:05:47			0	36475	0	0	0	29680	28320	166269	27128	1061745	45334	111042	0	0	8020	600216	0	0
2024-07-27 15:06:47			0	36471	0	0	0	29701	28320	166273	27036	1061772	45324	111050	0	0	8019	600380	0	0
2024-07-27 15:07:47			0	36457	0	0	0	29690	28330	166289	27237	1061781	45335	111046	0	0	8019	600920	0	0
2024-07-27 15:08:47			0	36454	0	0	0	29662	28320	166297	27055	1061718	45334	111035	0	0	8019	601078	0	0
2024-07-27 15:09:47			0	36428	0	0	0	29693	28320	166373	27177	1061691	45346	111047	0	0	8017	602146	0	0
2024-07-27 15:10:47			0	36438	0	0	0	29709	28320	166437	27294	1061763	45345	111053	0	0	8017	601735	0	0
2024-07-27 15:11:47			0	36412	0	0	0	29670	28320	166489	26916	1061763	45356	111038	0	0	8016	602804	0	0
2024-07-27 15:12:47			0	36437	0	0	0	29646	28320	166485	27022	1061629	45345	111029	0	0	8018	601776	0	0
2024-07-27 15:13:47			0	36432	0	0	0	29620	28310	166417	27140	1061647	45323	111019	0	0	8018	602016	0	0
2024-07-27 15:14:47			0	36425	0	0	0	29625	28300	166361	27161	1061548	45333	111021	0	0	8018	602339	0	0
2024-07-27 15:15:47			0	36410	0	0	0	29638	28310	166477	27319	1061530	45323	111026	0	0	8016	602921	0	0
2024-07-27 15:16:47			0	36424	0	0	0	29659	28300	166493	26948	1061548	45333	111034	0	0	8017	602380	0	0
2024-07-27 15:17:47			0	36447	0	0	0	29659	28300	166557	27180	1061674	45343	111034	0	0	8018	601435	0	0
2024-07-27 15:18:47			0	36426	0	0	0	29688	28290	166453	27194	1061719	45354	111045	0	0	8016	602332	0	0
2024-07-27 15:19:47			0	36441	0	0	0	29701	28300	166377	27192	1061656	45344	111050	0	0	8017	601681	0	0
2024-07-27 15:20:47			0	36446	0	0	0	29677	28310	166369	27118	1061674	45356	111041	0	0	8018	601441	0	0
2024-07-27 15:21:47			0	36470	0	0	0	29698	28320	166457	27086	1061763	45345	111049	0	0	8019	600421	0	0
2024-07-27 15:22:47			0	36464	0	0	0	29709	28310	166373	27197	1061727	45356	111053	0	0	8018	600702	0	0
2024-07-27 15:23:47			0	36475	0	0	0	29714	28320	166397	27102	1061799	45346	111055	0	0	8019	600216	0	0
2024-07-27 15:24:47			0	36466	0	0	0	29696	28320	166345	26850	1061799	45346	111048	0	0	8019	600585	0	0
2024-07-27 15:25:47			0	36465	0	0	0	29662	28330	166333	26814	1061700	45347	111035	0	0	8019	600592	0	0
2024-07-27 15:26:47			0	36457	0	0	0	29662	28320	166393	26977	1061682	45345	111035	0	0	8019	600955	0	0
2024-07-27 15:27:47			0	36444	0	0	0	29664	28300	166353	27062	1061656	45344	111036	0	0	8018	601558	0	0
2024-07-27 15:28:47			0	36429	0	0	0	29680	28310	166437	26680	1061674	45345	111042	0	0	8017	602139	0	0
2024-07-27 15:29:47			0	36453	0	0	0	29657	28310	166449	27168	1061727	45345	111033	0	0	8019	601154	0	0
2024-07-27 15:30:47			0	36444	0	0	0	29631	28310	166337	27012	1061647	45323	111023	0	0	8019	601523	0	0
2024-07-27 15:31:47			0	36455	0	0	0	29688	28320	166393	27003	1061763	45345	111045	0	0	8018	601037	0	0
2024-07-27 15:32:47			0	36464	0	0	0	29735	28300	166337	26953	1061755	45354	111063	0	0	8018	600737	0	0
2024-07-27 15:33:47			0	36462	0	0	0	29685	28310	166285	26883	1061835	45356	111044	0	0	8019	600784	0	0
2024-07-27 15:34:47			0	36550	0	0	0	29605	28330	165957	26975	1061808	45347	111013	0	0	8025	597112	0	0
2024-07-27 15:35:47			0	36586	0	0	0	29548	28310	165721	27265	1061566	45323	110991	0	0	8028	595711	0	0
2024-07-27 15:36:47			0	36572	0	0	0	29542	28300	165713	26939	1061431	45298	110989	0	0	8028	596317	0	0
2024-07-27 15:37:47			0	36548	0	0	0	29532	28280	165805	27057	1061351	45320	110985	0	0	8026	597366	0	0
2024-07-27 15:38:47			0	36479	0	0	0	29561	28270	166141	27104	1061350	45295	110996	0	0	8022	600226	0	0
2024-07-27 15:39:47			0	36454	0	0	0	29522	28270	166417	27175	1061324	45318	110981	0	0	8021	601252	0	0
2024-07-27 15:40:47			0	36424	0	0	0	29568	28240	166581	27090	1061279	45316	110999	0	0	8018	602589	0	0
2024-07-27 15:41:47			0	36397	0	0	0	29540	28250	166701	27225	1061269	45327	110988	0	0	8017	603665	0	0
2024-07-27 15:42:47			0	36382	0	0	0	29519	28240	166677	27157	1061135	45304	110980	0	0	8016	604317	0	0
2024-07-27 15:43:47			0	36358	0	0	0	29535	28220	166813	26939	1061072	45313	110986	0	0	8015	605377	0	0
2024-07-27 15:44:47			0	36319	0	0	0	29529	28220	166941	26967	1061099	45302	110984	0	0	8012	606987	0	0
2024-07-27 15:45:47			0	36302	0	0	0	29522	28210	167101	27074	1061090	45324	110981	0	0	8012	607725	0	0
2024-07-27 15:46:47			0	36274	0	0	0	29516	28200	167273	26774	1061019	45311	110979	0	0	8010	608920	0	0
2024-07-27 15:47:47			0	36268	0	0	0	29529	28190	167253	26882	1060974	45310	110984	0	0	8009	609203	0	0
2024-07-27 15:48:47			0	36238	0	0	0	29527	28190	167489	27242	1061028	45333	110983	0	0	8007	610447	0	0
2024-07-27 15:49:47			0	36230	0	0	0	29519	28180	167513	27017	1060983	45321	110980	0	0	8007	610815	0	0
2024-07-27 15:50:47			0	36222	0	0	0	29516	28180	167697	27071	1061055	45321	110979	0	0	8007	611147	0	0
2024-07-27 15:51:47			0	36216	0	0	0	29524	28180	167561	27133	1060947	45309	110982	0	0	8006	611396	0	0
2024-07-27 15:52:47			0	36204	0	0	0	29542	28180	167689	26915	1060974	45321	110989	0	0	8005	611895	0	0
2024-07-27 15:53:47			0	36197	0	0	0	29542	28170	167657	27059	1060992	45331	110989	0	0	8005	612221	0	0
2024-07-27 15:54:47			0	36189	0	0	0	29529	28170	167729	26788	1061019	45331	110984	0	0	8004	612554	0	0
2024-07-27 15:55:47			0	36185	0	0	0	29537	28180	167753	26897	1061037	45332	110987	0	0	8004	612685	0	0
2024-07-27 15:56:47			0	36176	0	0	0	29563	28180	167709	26826	1061037	45332	110997	0	0	8003	613060	0	0
2024-07-27 15:57:47			0	36197	0	0	0	29579	28180	167749	26958	1061118	45332	111003	0	0	8004	612186	0	0
2024-07-27 15:58:47			0	36199	0	0	0	29646	28190	167769	27258	1061216	45343	111029	0	0	8003	612067	0	0
2024-07-27 15:59:47			0	36179	0	0	0	29735	28210	167777	26946	1061521	45357	111063	0	0	8001	612828	0	0
2024-07-27 16:00:47			0	36240	0	0	0	29750	28240	167553	26930	1061674	45381	111069	0	0	8004	610188	0	0
2024-07-27 16:01:47			0	36313	0	0	0	29771	28260	167157	27022	1061745	45384	111077	0	0	8008	607095	0	0
2024-07-27 16:02:47			0	36413	0	0	0	29781	28270	166605	26842	1061844	45363	111081	0	0	8014	602937	0	0
2024-07-27 16:03:47			0	36469	0	0	0	29774	28300	166477	27033	1061871	45388	111078	0	0	8018	600532	0	0
2024-07-27 16:04:47			0	36553	0	0	0	29727	28310	166033	27015	1061916	45367	111060	0	0	8023	597058	0	0
2024-07-27 16:05:47			0	36547	0	0	0	29711	28320	166065	26878	1061853	45357	111054	0	0	8023	597269	0	0
2024-07-27 16:06:47			0	36527	0	0	0	29781	28330	166097	26837	1061889	45358	111081	0	0	8021	598052	0	0
2024-07-27 16:07:47			0	36501	0	0	0	29779	28340	166197	27171	1061961	45369	111080	0	0	8020	599082	0	0
2024-07-27 16:08:47			0	36519	0	0	0	29732	28340	166085	26847	1061961	45369	111062	0	0	8022	598345	0	0
2024-07-27 16:09:47			0	36529	0	0	0	29693	28340	165993	27208	1061943	45336	111047	0	0	8023	597936	0	0
2024-07-27 16:10:47			0	36531	0	0	0	29693	28340	165981	27048	1061853	45335	111047	0	0	8023	597854	0	0
2024-07-27 16:11:47			0	36522	0	0	0	29693	28330	166013	27086	1061817	45335	111047	0	0	8022	598257	0	0
2024-07-27 16:12:47			0	36499	0	0	0	29680	28330	166141	26897	1061844	45347	111042	0	0	8021	599198	0	0
2024-07-27 16:13:47			0	36489	0	0	0	29667	28330	166369	27020	1061763	45313	111037	0	0	8021	599608	0	0
2024-07-27 16:14:47			0	36465	0	0	0	29636	28330	166269	26923	1061700	45335	111025	0	0	8020	600592	0	0
2024-07-27 16:15:47			0	36441	0	0	0	29633	28310	166325	26896	1061620	45333	111024	0	0	8018	601646	0	0
2024-07-27 16:16:47			0	36431	0	0	0	29768	28320	166425	27052	1061853	45357	111076	0	0	8016	602022	0	0
2024-07-27 16:17:47			0	36427	0	0	0	29724	28340	166509	27007	1062015	45369	111059	0	0	8016	602117	0	0
2024-07-27 16:18:47			0	36460	0	0	0	29703	28340	166293	27216	1061997	45359	111051	0	0	8019	600762	0	0
2024-07-27 16:19:47			0	36508	0	0	0	29727	28350	165917	27050	1061987	45337	111060	0	0	8021	598760	0	0
2024-07-27 16:20:47			0	36559	0	0	0	29748	28350	165897	27020	1061979	45337	111068	0	0	8024	596675	0	0
2024-07-27 16:21:47			0	36585	0	0	0	29779	28360	165825	27024	1062032	45349	111080	0	0	8025	595580	0	0
2024-07-27 16:22:47			0	36593	0	0	0	29789	28360	165770	26913	1062086	45361	111084	0	0	8025	595254	0	0
2024-07-27 16:23:47			0	36613	0	0	0	29755	28370	165694	26791	1062149	45362	111071	0	0	8027	594404	0	0
2024-07-27 16:24:47			0	36653	0	0	0	29771	28380	165630	26977	1062203	45363	111077	0	0	8029	592742	0	0
2024-07-27 16:25:47			0	36682	0	0	0	29771	28380	165286	27033	1062203	45340	111077	0	0	8031	591565	0	0
2024-07-27 16:26:47			0	36684	0	0	0	29763	28390	165314	26883	1062158	45364	111074	0	0	8031	591449	0	0
2024-07-27 16:27:47			0	36691	0	0	0	29761	28380	165250	26791	1062140	45340	111073	0	0	8031	591199	0	0
2024-07-27 16:28:47			0	36693	0	0	0	29745	28380	165250	27019	1062095	45351	111067	0	0	8032	591118	0	0
2024-07-27 16:29:47			0	36683	0	0	0	29740	28400	165298	27045	1062176	45342	111065	0	0	8031	591456	0	0
2024-07-27 16:30:47			0	36666	0	0	0	29729	28390	165374	26641	1062158	45341	111061	0	0	8031	592180	0	0
2024-07-27 16:31:47			0	36642	0	0	0	29683	28390	165474	26713	1062104	45341	111043	0	0	8030	593155	0	0
2024-07-27 16:32:47			0	36625	0	0	0	29690	28380	165614	26951	1062005	45351	111046	0	0	8029	593881	0	0
2024-07-27 16:33:47			0	36596	0	0	0	29729	28380	165757	26790	1062032	45340	111061	0	0	8026	595063	0	0
2024-07-27 16:34:47			0	36583	0	0	0	29740	28370	165713	26842	1062014	45350	111065	0	0	8025	595627	0	0
2024-07-27 16:35:47			0	36576	0	0	0	29753	28380	165765	26706	1062086	45351	111070	0	0	8025	595878	0	0
2024-07-27 16:36:47			0	36575	0	0	0	29774	28380	165689	26906	1062140	45340	111078	0	0	8024	595919	0	0
2024-07-27 16:37:47			0	36595	0	0	0	29805	28390	165802	26866	1062158	45364	111090	0	0	8025	595069	0	0
2024-07-27 16:38:47			0	36586	0	0	0	29812	28400	165714	26994	1062256	45365	111093	0	0	8024	595401	0	0
2024-07-27 16:39:47			0	36598	0	0	0	29758	28410	165770	27220	1062266	45365	111072	0	0	8026	594878	0	0
2024-07-27 16:40:47			0	36604	0	0	0	29789	28410	165666	27147	1062302	45354	111084	0	0	8026	594633	0	0
2024-07-27 16:41:47			0	36582	0	0	0	29810	28420	165677	27138	1062346	45367	111092	0	0	8024	595495	0	0
2024-07-27 16:42:47			0	36602	0	0	0	29776	28420	165770	26923	1062310	45367	111079	0	0	8026	594680	0	0
2024-07-27 16:43:47			0	36613	0	0	0	29763	28420	165702	27142	1062310	45355	111074	0	0	8027	594233	0	0
2024-07-27 16:44:47			0	36612	0	0	0	29890	28420	165742	27118	1062373	45344	111123	0	0	8025	594273	0	0
2024-07-27 16:45:47			0	36590	0	0	0	29940	28440	165798	27152	1062589	45379	111142	0	0	8023	595101	0	0
2024-07-27 16:46:47			0	36616	0	0	0	29922	28460	165654	26859	1062705	45404	111135	0	0	8025	593973	0	0
2024-07-27 16:47:47			0	36713	0	0	0	29810	28470	165258	26746	1062624	45382	111092	0	0	8032	590000	0	0
2024-07-27 16:48:47			0	36783	0	0	0	29810	28470	164938	27211	1062570	45349	111092	0	0	8036	587169	0	0
2024-07-27 16:49:47			0	36786	0	0	0	29781	28460	164854	26911	1062472	45337	111081	0	0	8037	587081	0	0
2024-07-27 16:50:47			0	36762	0	0	0	29750	28450	164854	27150	1062400	45325	111069	0	0	8036	588085	0	0
2024-07-27 16:51:47			0	36753	0	0	0	29781	28460	165010	27213	1062382	45348	111081	0	0	8035	588415	0	0
2024-07-27 16:52:47			0	36730	0	0	0	29768	28450	165162	27154	1062400	45314	111076	0	0	8034	589380	0	0
2024-07-27 16:53:47			0	36709	0	0	0	29802	28440	165198	27097	1062463	45358	111089	0	0	8032	590264	0	0
2024-07-27 16:54:47			0	36690	0	0	0	29854	28460	165282	26956	1062597	45381	111109	0	0	8030	590966	0	0
2024-07-27 16:55:47			0	36671	0	0	0	29786	28460	165398	26979	1062624	45371	111083	0	0	8030	591737	0	0
2024-07-27 16:56:47			0	36685	0	0	0	29716	28460	165318	27178	1062463	45336	111056	0	0	8032	591169	0	0
2024-07-27 16:57:47			0	36696	0	0	0	29883	28450	165274	27031	1062481	45347	111120	0	0	8030	590757	0	0
2024-07-27 16:58:47			0	36677	0	0	0	29893	28460	165470	27272	1062517	45348	111124	0	0	8029	591494	0	0
2024-07-27 16:59:47			0	36675	0	0	0	29880	28470	165438	26951	1062615	45349	111119	0	0	8029	591541	0	0
2024-07-27 17:00:47			0	36735	0	0	0	29802	28460	165126	26844	1062517	45348	111089	0	0	8034	589143	0	0
2024-07-27 17:01:47			0	36784	0	0	0	29973	28470	164870	27107	1062651	45360	111155	0	0	8034	587128	0	0
2024-07-27 17:02:47			0	36769	0	0	0	30023	28490	165102	27183	1062822	45395	111174	0	0	8032	587666	0	0
2024-07-27 17:03:47			0	36761	0	0	0	29942	28500	165010	26750	1062938	45396	111143	0	0	8033	587955	0	0
2024-07-27 17:04:47			0	36784	0	0	0	29880	28510	164882	27017	1062884	45376	111119	0	0	8036	586992	0	0
2024-07-27 17:05:47			0	36789	0	0	0	29870	28520	164898	27000	1062839	45365	111115	0	0	8036	586757	0	0
2024-07-27 17:06:47			0	36762	0	0	0	29870	28510	164902	26786	1062848	45365	111115	0	0	8034	587881	0	0
2024-07-27 17:07:47			0	36769	0	0	0	29890	28520	164958	27265	1062974	45354	111123	0	0	8035	587564	0	0
2024-07-27 17:08:47			0	36737	0	0	0	29841	28520	165046	27180	1062866	45365	111104	0	0	8033	588858	0	0
2024-07-27 17:09:47			0	36769	0	0	0	29844	28520	165022	26856	1062759	45342	111105	0	0	8035	587564	0	0
2024-07-27 17:10:47			0	36772	0	0	0	29906	28520	164946	27010	1062821	45366	111129	0	0	8034	587443	0	0
2024-07-27 17:11:47			0	36789	0	0	0	29919	28510	164870	27083	1062830	45354	111134	0	0	8035	586791	0	0
2024-07-27 17:12:47			0	36787	0	0	0	29968	28520	164802	27055	1062947	45365	111153	0	0	8034	586837	0	0
2024-07-27 17:13:47			0	36806	0	0	0	30002	28530	164790	26986	1062974	45378	111166	0	0	8035	586037	0	0
2024-07-27 17:14:47			0	36807	0	0	0	29971	28540	164514	26896	1063046	45378	111154	0	0	8035	585963	0	0
2024-07-27 17:15:47			0	36854	0	0	0	29927	28540	164442	27057	1063100	45390	111137	0	0	8039	584070	0	0
2024-07-27 17:16:47			0	36877	0	0	0	29906	28540	164342	27171	1063046	45368	111129	0	0	8041	583145	0	0
2024-07-27 17:17:47			0	36859	0	0	0	29922	28540	164566	27178	1063019	45345	111135	0	0	8039	583869	0	0
2024-07-27 17:18:47			0	36827	0	0	0	29906	28550	164598	27085	1062947	45346	111129	0	0	8038	585123	0	0
2024-07-27 17:19:47			0	36821	0	0	0	29916	28540	164638	27071	1062983	45367	111133	0	0	8037	585398	0	0
2024-07-27 17:20:47			0	36803	0	0	0	29963	28540	164786	27130	1063091	45367	111151	0	0	8035	586124	0	0
2024-07-27 17:21:47			0	36808	0	0	0	29992	28540	164770	27177	1063154	45390	111162	0	0	8035	585922	0	0
2024-07-27 17:22:47			0	36825	0	0	0	29992	28550	164666	27258	1063163	45391	111162	0	0	8036	585203	0	0
2024-07-27 17:23:47			0	36846	0	0	0	29935	28560	164518	27005	1063190	45380	111140	0	0	8038	584324	0	0
2024-07-27 17:24:47			0	36884	0	0	0	29916	28560	164410	27182	1063136	45380	111133	0	0	8041	582796	0	0
2024-07-27 17:25:47			0	36874	0	0	0	29922	28560	164358	26935	1063055	45359	111135	0	0	8040	583198	0	0
2024-07-27 17:26:47			0	36878	0	0	0	29924	28560	164458	26878	1063046	45358	111136	0	0	8041	583037	0	0
2024-07-27 17:27:47			0	36867	0	0	0	29929	28560	164502	27118	1063046	45358	111138	0	0	8040	583479	0	0
2024-07-27 17:28:47			0	36870	0	0	0	29981	28550	164618	26987	1063091	45369	111158	0	0	8039	583393	0	0
2024-07-27 17:29:47			0	36844	0	0	0	30002	28560	164626	26951	1063136	45380	111166	0	0	8037	584404	0	0
2024-07-27 17:30:47			0	36870	0	0	0	30018	28560	164494	27345	1063217	45380	111172	0	0	8038	583359	0	0
2024-07-27 17:31:47			0	36890	0	0	0	30038	28570	164406	26727	1063253	45393	111180	0	0	8039	582522	0	0
2024-07-27 17:32:47			0	36923	0	0	0	30075	28580	164374	27050	1063378	45394	111194	0	0	8041	581164	0	0
2024-07-27 17:33:47			0	36922	0	0	0	30049	28590	164270	26887	1063405	45407	111184	0	0	8041	581170	0	0
2024-07-27 17:34:47			0	36930	0	0	0	30054	28600	164174	26909	1063477	45396	111186	0	0	8042	580816	0	0
2024-07-27 17:35:47			0	36934	0	0	0	30036	28610	164166	26835	1063459	45397	111179	0	0	8042	580622	0	0
2024-07-27 17:36:47			0	36966	0	0	0	30025	28610	164074	26750	1063441	45386	111175	0	0	8044	579341	0	0
2024-07-27 17:37:47			0	36960	0	0	0	29979	28610	164094	27218	1063378	45363	111157	0	0	8045	579581	0	0
2024-07-27 17:38:47			0	36962	0	0	0	29937	28610	163946	27154	1063324	45363	111141	0	0	8046	579501	0	0
2024-07-27 17:39:47			0	36949	0	0	0	29911	28600	164022	27114	1063198	45362	111131	0	0	8045	580055	0	0
2024-07-27 17:40:47			0	36919	0	0	0	29906	28580	164030	27279	1063118	45361	111129	0	0	8043	581324	0	0
2024-07-27 17:41:47			0	36917	0	0	0	29940	28580	164210	27152	1063136	45361	111142	0	0	8043	581404	0	0
2024-07-27 17:42:47			0	36878	0	0	0	29937	28570	164278	26726	1063154	45371	111141	0	0	8040	583004	0	0
2024-07-27 17:43:47			0	36879	0	0	0	29958	28580	164410	26847	1063136	45372	111149	0	0	8040	582930	0	0
2024-07-27 17:44:47			0	36847	0	0	0	29971	28560	164426	26939	1063163	45380	111154	0	0	8038	584284	0	0
2024-07-27 17:45:47			0	36852	0	0	0	29984	28580	164470	27194	1063225	45382	111159	0	0	8038	584015	0	0
2024-07-27 17:46:47			0	36852	0	0	0	29950	28590	164494	27038	1063261	45383	111146	0	0	8039	583981	0	0
2024-07-27 17:47:47			0	36857	0	0	0	29877	28580	164470	26656	1063145	45382	111118	0	0	8040	583814	0	0
2024-07-27 17:48:47			0	36866	0	0	0	29849	28580	164382	26986	1062974	45349	111107	0	0	8041	583452	0	0
2024-07-27 17:49:47			0	36822	0	0	0	29841	28560	164514	26556	1062866	45336	111104	0	0	8039	585290	0	0
2024-07-27 17:50:47			0	36795	0	0	0	29841	28550	164706	27303	1062786	45335	111104	0	0	8037	586413	0	0
2024-07-27 17:51:47			0	36744	0	0	0	29942	28530	164906	26932	1062867	45344	111143	0	0	8032	588541	0	0
2024-07-27 17:52:47			0	36731	0	0	0	29851	28540	165006	26949	1062902	45389	111108	0	0	8033	589032	0	0
2024-07-27 17:53:47			0	36741	0	0	0	29831	28540	165054	26828	1062884	45368	111100	0	0	8034	588628	0	0
2024-07-27 17:54:47			0	36741	0	0	0	29867	28520	165026	26719	1062741	45366	111114	0	0	8033	588696	0	0
2024-07-27 17:55:47			0	36711	0	0	0	29896	28520	165154	26812	1062732	45332	111125	0	0	8031	589910	0	0
2024-07-27 17:56:47			0	36694	0	0	0	29911	28520	165170	26713	1062848	45377	111131	0	0	8030	590599	0	0
2024-07-27 17:57:47			0	36705	0	0	0	29929	28520	165142	26887	1062848	45377	111138	0	0	8030	590153	0	0
2024-07-27 17:58:47			0	36734	0	0	0	29950	28520	165038	26772	1062983	45343	111146	0	0	8031	588979	0	0
2024-07-27 17:59:47			0	36763	0	0	0	29950	28540	164934	26675	1063064	45400	111146	0	0	8033	587738	0	0
2024-07-27 18:00:47			0	36786	0	0	0	29924	28530	164866	27010	1063001	45389	111136	0	0	8035	586844	0	0
2024-07-27 18:01:47			0	36799	0	0	0	29927	28530	164646	26906	1063001	45367	111137	0	0	8036	586319	0	0
2024-07-27 18:02:47			0	36822	0	0	0	29927	28540	164566	27046	1063019	45368	111137	0	0	8037	585358	0	0
2024-07-27 18:03:47			0	36812	0	0	0	29955	28540	164578	27038	1063010	45356	111148	0	0	8036	585761	0	0
2024-07-27 18:04:47			0	36834	0	0	0	29981	28540	164542	27185	1063100	45390	111158	0	0	8037	584875	0	0
2024-07-27 18:05:47			0	36825	0	0	0	30005	28560	164654	27206	1063127	45402	111167	0	0	8036	585169	0	0
2024-07-27 18:06:47			0	36824	0	0	0	29950	28550	164566	27076	1063145	45379	111146	0	0	8037	585244	0	0
2024-07-27 18:07:47			0	36848	0	0	0	29924	28550	164418	26759	1063082	45379	111136	0	0	8039	584277	0	0
2024-07-27 18:08:47			0	36842	0	0	0	29924	28550	164490	27218	1063091	45379	111136	0	0	8038	584519	0	0
2024-07-27 18:09:47			0	36819	0	0	0	29919	28550	164566	26982	1063145	45379	111134	0	0	8037	585445	0	0
2024-07-27 18:10:47			0	36815	0	0	0	29901	28560	164610	27308	1063127	45379	111127	0	0	8037	585573	0	0
2024-07-27 18:11:47			0	36837	0	0	0	29893	28560	164514	27261	1063073	45358	111124	0	0	8039	584686	0	0
2024-07-27 18:12:47			0	36828	0	0	0	29940	28570	164562	27171	1063172	45371	111142	0	0	8037	585015	0	0
2024-07-27 18:13:47			0	36842	0	0	0	29955	28570	164478	26955	1063199	45371	111148	0	0	8038	584451	0	0
2024-07-27 18:14:47			0	36877	0	0	0	29935	28570	164442	27131	1063288	45404	111140	0	0	8040	583044	0	0
2024-07-27 18:15:47			0	36902	0	0	0	29948	28580	164226	27237	1063306	45394	111145	0	0	8042	582006	0	0
2024-07-27 18:16:47			0	36903	0	0	0	29940	28590	164222	26913	1063342	45395	111142	0	0	8042	581932	0	0
2024-07-27 18:17:47			0	36885	0	0	0	30002	28590	164310	27086	1063432	45384	111166	0	0	8040	582655	0	0
2024-07-27 18:18:47			0	36903	0	0	0	30057	28600	164382	27005	1063576	45407	111187	0	0	8040	581899	0	0
2024-07-27 18:19:47			0	36889	0	0	0	30072	28620	164338	27154	1063638	45419	111193	0	0	8039	582393	0	0
2024-07-27 18:20:47			0	36898	0	0	0	30025	28610	164350	27135	1063522	45398	111175	0	0	8040	582066	0	0
2024-07-27 18:21:47			0	36849	0	0	0	30067	28640	164430	27102	1063647	45400	111191	0	0	8037	583933	0	0
2024-07-27 18:22:47			0	36831	0	0	0	29914	28640	164590	27140	1063548	45389	111132	0	0	8038	584657	0	0
2024-07-27 18:23:47			0	36790	0	0	0	30067	28650	164706	27008	1063638	45378	111191	0	0	8033	586275	0	0
2024-07-27 18:24:47			0	36736	0	0	0	30114	28650	164858	27081	1063674	45390	111209	0	0	8029	588455	0	0
2024-07-27 18:25:47			0	36715	0	0	0	30124	28650	164998	27206	1063782	45413	111213	0	0	8028	589305	0	0
2024-07-27 18:26:47			0	36715	0	0	0	29992	28670	165090	26981	1063755	45424	111162	0	0	8030	589236	0	0
2024-07-27 18:27:47			0	36692	0	0	0	29877	28680	165126	27147	1063584	45371	111118	0	0	8031	590133	0	0
2024-07-27 18:28:47			0	36681	0	0	0	30031	28670	165042	27039	1063620	45369	111177	0	0	8028	590613	0	0
2024-07-27 18:29:47			0	36664	0	0	0	30041	28660	165334	27357	1063746	45391	111181	0	0	8026	591337	0	0
2024-07-27 18:30:47			0	36660	0	0	0	29919	28680	165186	27156	1063683	45381	111134	0	0	8028	591430	0	0
2024-07-27 18:31:47			0	36662	0	0	0	29994	28660	165242	26934	1063665	45358	111163	0	0	8027	591418	0	0
2024-07-27 18:32:47			0	36647	0	0	0	30070	28660	165214	27270	1063665	45380	111192	0	0	8025	592027	0	0
2024-07-27 18:33:47			0	36668	0	0	0	30054	28680	165182	27062	1063791	45381	111186	0	0	8027	591106	0	0
2024-07-27 18:34:47			0	36700	0	0	0	29979	28670	165038	26942	1063755	45380	111157	0	0	8030	589844	0	0
2024-07-27 18:35:47			0	36726	0	0	0	29932	28670	164914	27242	1063620	45380	111139	0	0	8032	588791	0	0
2024-07-27 18:36:47			0	36745	0	0	0	29971	28660	164898	27246	1063575	45345	111154	0	0	8032	588058	0	0
2024-07-27 18:37:47			0	36722	0	0	0	30051	28660	164882	27220	1063611	45369	111185	0	0	8030	588987	0	0
2024-07-27 18:38:47			0	36735	0	0	0	30119	28660	164842	26736	1063764	45379	111211	0	0	8029	588462	0	0
2024-07-27 18:39:47			0	36748	0	0	0	30163	28680	164922	27137	1063845	45392	111228	0	0	8029	587868	0	0
2024-07-27 18:40:47			0	36777	0	0	0	30168	28690	164850	26880	1063944	45404	111230	0	0	8031	586663	0	0
2024-07-27 18:41:47			0	36776	0	0	0	30166	28710	164738	27187	1064006	45395	111229	0	0	8031	586636	0	0
2024-07-27 18:42:47			0	36789	0	0	0	30179	28720	164622	27137	1064105	45407	111234	0	0	8032	586078	0	0
2024-07-27 18:43:47			0	36828	0	0	0	30119	28720	164502	26939	1064141	45408	111211	0	0	8035	584507	0	0
2024-07-27 18:44:47			0	36840	0	0	0	30103	28730	164254	26901	1064015	45397	111205	0	0	8036	583990	0	0
2024-07-27 18:45:47			0	36832	0	0	0	30158	28720	164314	26833	1064060	45408	111226	0	0	8035	584346	0	0
2024-07-27 18:46:47			0	36831	0	0	0	30179	28730	164354	26968	1064132	45398	111234	0	0	8034	584352	0	0
2024-07-27 18:47:47			0	36831	0	0	0	30166	28740	164302	26785	1064177	45410	111229	0	0	8035	584318	0	0
2024-07-27 18:48:47			0	36857	0	0	0	30137	28750	164246	26939	1064240	45399	111218	0	0	8037	583240	0	0
2024-07-27 18:49:47			0	36864	0	0	0	30142	28750	164222	26984	1064168	45388	111220	0	0	8037	582958	0	0
2024-07-27 18:50:47			0	36864	0	0	0	30137	28750	164158	26946	1064168	45388	111218	0	0	8037	582958	0	0
2024-07-27 18:51:47			0	36867	0	0	0	30132	28740	164206	27060	1064060	45398	111216	0	0	8037	582872	0	0
2024-07-27 18:52:47			0	36864	0	0	0	30148	28760	164190	26968	1064177	45401	111222	0	0	8037	582925	0	0
2024-07-27 18:53:47			0	36862	0	0	0	30163	28740	164158	26948	1064150	45399	111228	0	0	8036	583072	0	0
2024-07-27 18:54:47			0	36860	0	0	0	30163	28740	164078	27128	1064141	45398	111228	0	0	8036	583153	0	0
2024-07-27 18:55:47			0	36865	0	0	0	30158	28750	164102	26682	1064132	45399	111226	0	0	8037	582918	0	0
2024-07-27 18:56:47			0	36864	0	0	0	30174	28750	164110	26949	1064222	45411	111232	0	0	8036	582958	0	0
2024-07-27 18:57:47			0	36867	0	0	0	30181	28760	164134	27045	1064284	45412	111235	0	0	8037	582804	0	0
2024-07-27 18:58:47			0	36870	0	0	0	30145	28760	164146	27008	1064338	45412	111221	0	0	8037	582684	0	0
2024-07-27 18:59:47			0	36884	0	0	0	30124	28760	164066	27017	1064266	45389	111213	0	0	8038	582122	0	0
2024-07-27 19:00:47			0	36870	0	0	0	30132	28770	164186	26816	1064248	45389	111216	0	0	8038	582650	0	0
2024-07-27 19:01:47			0	36860	0	0	0	30132	28760	164214	26972	1064204	45389	111216	0	0	8037	583085	0	0
2024-07-27 19:02:47			0	36849	0	0	0	30155	28760	164246	27078	1064213	45389	111225	0	0	8036	583527	0	0
2024-07-27 19:03:47			0	36844	0	0	0	30153	28770	164218	27069	1064302	45389	111224	0	0	8036	583694	0	0
2024-07-27 19:04:47			0	36835	0	0	0	30114	28770	164202	27112	1064248	45378	111209	0	0	8036	584056	0	0
2024-07-27 19:05:47			0	36823	0	0	0	30114	28770	164386	26908	1064203	45390	111209	0	0	8035	584539	0	0
2024-07-27 19:06:47			0	36769	0	0	0	30135	28760	164486	27005	1064150	45401	111217	0	0	8032	586748	0	0
2024-07-27 19:07:47			0	36762	0	0	0	30148	28760	164574	26958	1064123	45401	111222	0	0	8031	587031	0	0
2024-07-27 19:08:47			0	36734	0	0	0	30168	28760	164714	26670	1064123	45401	111230	0	0	8029	588161	0	0
2024-07-27 19:09:47			0	36762	0	0	0	30163	28760	164662	27034	1064186	45412	111228	0	0	8031	587031	0	0
2024-07-27 19:10:47			0	36755	0	0	0	30153	28760	164630	27303	1064204	45389	111224	0	0	8030	587313	0	0
2024-07-27 19:11:47			0	36775	0	0	0	30127	28760	164462	27131	1064150	45401	111214	0	0	8032	586506	0	0
2024-07-27 19:12:47			0	36770	0	0	0	30153	28760	164622	27126	1064239	45401	111224	0	0	8031	586708	0	0
2024-07-27 19:13:47			0	36751	0	0	0	30161	28760	164710	27199	1064204	45423	111227	0	0	8030	587475	0	0
2024-07-27 19:14:47			0	36732	0	0	0	30174	28760	164642	26993	1064213	45401	111232	0	0	8029	588242	0	0
2024-07-27 19:15:47			0	36740	0	0	0	30176	28750	164766	26998	1064249	45400	111233	0	0	8029	587953	0	0
2024-07-27 19:16:47			0	36741	0	0	0	30179	28760	164734	26856	1064204	45401	111234	0	0	8029	587879	0	0
2024-07-27 19:17:47			0	36726	0	0	0	30181	28770	164702	26967	1064329	45389	111235	0	0	8028	588450	0	0
2024-07-27 19:18:47			0	36738	0	0	0	30168	28760	164714	26965	1064231	45412	111230	0	0	8029	588000	0	0
2024-07-27 19:19:47			0	36742	0	0	0	30155	28770	164750	27092	1064248	45412	111225	0	0	8030	587804	0	0
2024-07-27 19:20:47			0	36734	0	0	0	30142	28760	164558	27215	1064204	45412	111220	0	0	8029	588161	0	0
2024-07-27 19:21:47			0	36733	0	0	0	30145	28760	164714	26889	1064159	45401	111221	0	0	8029	588202	0	0
2024-07-27 19:22:47			0	36722	0	0	0	30148	28760	164726	27069	1064239	45401	111222	0	0	8029	588646	0	0
2024-07-27 19:23:47			0	36722	0	0	0	30127	28760	164698	27157	1064150	45389	111214	0	0	8029	588646	0	0
2024-07-27 19:24:47			0	36722	0	0	0	30119	28750	164794	27249	1064132	45410	111211	0	0	8029	588680	0	0
2024-07-27 19:25:47			0	36724	0	0	0	30119	28750	164694	26769	1064141	45400	111211	0	0	8029	588600	0	0
2024-07-27 19:26:47			0	36747	0	0	0	30109	28750	164582	26991	1064087	45400	111207	0	0	8031	587670	0	0
2024-07-27 19:27:47			0	36736	0	0	0	30103	28750	164702	26913	1064078	45388	111205	0	0	8030	588115	0	0
2024-07-27 19:28:47			0	36743	0	0	0	30106	28730	164590	26870	1064078	45398	111206	0	0	8030	587900	0	0
2024-07-27 19:29:47			0	36758	0	0	0	30103	28740	164674	26935	1064033	45398	111205	0	0	8031	587260	0	0
2024-07-27 19:30:47			0	36764	0	0	0	30122	28740	164674	26948	1064087	45398	111212	0	0	8031	587018	0	0
2024-07-27 19:31:47			0	36747	0	0	0	30137	28740	164630	26826	1064096	45410	111218	0	0	8030	587704	0	0
2024-07-27 19:32:47			0	36761	0	0	0	30137	28740	164710	27216	1064141	45420	111218	0	0	8031	587139	0	0
2024-07-27 19:33:47			0	36759	0	0	0	30137	28740	164654	27102	1064141	45398	111218	0	0	8031	587220	0	0
2024-07-27 19:34:47			0	36750	0	0	0	30142	28740	164678	27124	1064114	45398	111220	0	0	8030	587583	0	0
2024-07-27 19:35:47			0	36769	0	0	0	30137	28740	164610	26845	1064114	45398	111218	0	0	8031	586816	0	0
2024-07-27 19:36:47			0	36759	0	0	0	30148	28740	164602	27027	1064087	45398	111222	0	0	8031	587220	0	0
2024-07-27 19:37:47			0	36751	0	0	0	30150	28730	164722	27060	1064078	45409	111223	0	0	8030	587577	0	0
2024-07-27 19:38:47			0	36752	0	0	0	30145	28740	164714	26861	1064141	45409	111221	0	0	8030	587502	0	0
2024-07-27 19:39:47			0	36756	0	0	0	30153	28740	164678	26859	1064204	45410	111224	0	0	8030	587341	0	0
2024-07-27 19:40:47			0	36771	0	0	0	30150	28750	164706	26996	1064222	45411	111223	0	0	8031	586702	0	0
2024-07-27 19:41:47			0	36752	0	0	0	30155	28750	164726	27039	1064186	45421	111225	0	0	8030	587468	0	0
2024-07-27 19:42:47			0	36764	0	0	0	30168	28750	164714	27022	1064213	45410	111230	0	0	8031	586984	0	0
2024-07-27 19:43:47			0	36750	0	0	0	30168	28750	164754	27022	1064249	45388	111230	0	0	8030	587549	0	0
2024-07-27 19:44:47			0	36761	0	0	0	30153	28750	164746	26904	1064222	45433	111224	0	0	8031	587105	0	0
2024-07-27 19:45:47			0	36775	0	0	0	30153	28760	164694	26928	1064177	45412	111224	0	0	8032	586506	0	0
2024-07-27 19:46:47			0	36766	0	0	0	30158	28750	164586	26991	1064195	45400	111226	0	0	8031	586903	0	0
2024-07-27 19:47:47			0	36755	0	0	0	30155	28750	164638	27020	1064168	45400	111225	0	0	8030	587347	0	0
2024-07-27 19:48:47			0	36764	0	0	0	30153	28760	164702	26915	1064231	45423	111224	0	0	8031	586950	0	0
2024-07-27 19:49:47			0	36705	0	0	0	30153	28750	164886	27036	1064195	45411	111224	0	0	8027	589368	0	0
2024-07-27 19:50:47			0	36712	0	0	0	30155	28750	164930	26883	1064186	45410	111225	0	0	8028	589085	0	0
2024-07-27 19:51:47			0	36718	0	0	0	30153	28750	165030	26767	1064275	45411	111224	0	0	8028	588842	0	0
2024-07-27 19:52:47			0	36712	0	0	0	30145	28760	164926	27339	1064231	45412	111221	0	0	8028	589051	0	0
2024-07-27 19:53:47			0	36719	0	0	0	30158	28750	164958	27017	1064222	45422	111226	0	0	8028	588802	0	0
2024-07-27 19:54:47			0	36694	0	0	0	30155	28740	164998	26793	1064204	45410	111225	0	0	8027	589847	0	0
2024-07-27 19:55:47			0	36699	0	0	0	30158	28760	165034	26739	1064231	45401	111226	0	0	8027	589577	0	0
2024-07-27 19:56:47			0	36691	0	0	0	30158	28750	165002	27220	1064222	45411	111226	0	0	8027	589935	0	0
2024-07-27 19:57:47			0	36680	0	0	0	30163	28750	165102	27104	1064222	45411	111228	0	0	8026	590380	0	0
2024-07-27 19:58:47			0	36665	0	0	0	30168	28750	165046	26908	1064168	45422	111230	0	0	8025	590988	0	0
2024-07-27 19:59:47			0	36652	0	0	0	30171	28750	165086	27279	1064302	45422	111231	0	0	8024	591515	0	0
2024-07-27 20:00:47			0	36651	0	0	0	30171	28760	165146	27053	1064204	45423	111231	0	0	8024	591521	0	0
2024-07-27 20:01:47			0	36650	0	0	0	30168	28760	165118	27026	1064347	45412	111230	0	0	8024	591562	0	0
2024-07-27 20:02:47			0	36637	0	0	0	30163	28750	165218	27008	1064329	45411	111228	0	0	8023	592124	0	0
2024-07-27 20:03:47			0	36631	0	0	0	30168	28760	165318	26871	1064266	45412	111230	0	0	8023	592333	0	0
2024-07-27 20:04:47			0	36620	0	0	0	30166	28770	165402	27019	1064356	45412	111229	0	0	8022	592746	0	0
2024-07-27 20:05:47			0	36610	0	0	0	30166	28770	165330	26915	1064329	45423	111229	0	0	8022	593152	0	0
2024-07-27 20:06:47			0	36611	0	0	0	30158	28760	165330	27124	1064284	45401	111226	0	0	8022	593146	0	0
2024-07-27 20:07:47			0	36601	0	0	0	30171	28770	165366	27185	1064248	45412	111231	0	0	8021	593518	0	0
2024-07-27 20:08:47			0	36615	0	0	0	30166	28760	165274	26679	1064204	45401	111229	0	0	8022	592983	0	0
2024-07-27 20:09:47			0	36601	0	0	0	30168	28770	165282	27085	1064356	45412	111230	0	0	8021	593518	0	0
2024-07-27 20:10:47			0	36600	0	0	0	30166	28760	165374	26968	1064257	45423	111229	0	0	8021	593593	0	0
2024-07-27 20:11:47			0	36594	0	0	0	30158	28760	165290	26861	1064239	45412	111226	0	0	8021	593837	0	0
2024-07-27 20:12:47			0	36615	0	0	0	30161	28760	165310	26762	1064239	45423	111227	0	0	8022	592983	0	0
2024-07-27 20:13:47			0	36600	0	0	0	30158	28770	165374	26906	1064195	45423	111226	0	0	8021	593558	0	0
2024-07-27 20:14:47			0	36612	0	0	0	30161	28760	165358	26809	1064293	45412	111227	0	0	8022	593105	0	0
2024-07-27 20:15:47			0	36589	0	0	0	30153	28760	165397	26890	1064320	45412	111224	0	0	8021	594040	0	0
2024-07-27 20:16:47			0	36602	0	0	0	30155	28760	165470	26790	1064284	45401	111225	0	0	8021	593511	0	0
2024-07-27 20:17:47			0	36604	0	0	0	30155	28760	165418	26727	1064239	45423	111225	0	0	8021	593430	0	0
2024-07-27 20:18:47			0	36627	0	0	0	30155	28760	165322	27170	1064231	45412	111225	0	0	8023	592496	0	0
2024-07-27 20:19:47			0	36624	0	0	0	30155	28760	165282	26953	1064266	45412	111225	0	0	8023	592617	0	0
2024-07-27 20:20:47			0	36649	0	0	0	30155	28750	165242	27201	1064275	45411	111225	0	0	8024	591637	0	0
2024-07-27 20:21:47			0	36672	0	0	0	30155	28760	165086	27376	1064231	45412	111225	0	0	8025	590670	0	0
2024-07-27 20:22:47			0	36679	0	0	0	30142	28760	165002	27019	1064293	45412	111220	0	0	8026	590386	0	0
2024-07-27 20:23:47			0	36696	0	0	0	30142	28750	165022	27114	1064249	45400	111220	0	0	8027	589732	0	0
2024-07-27 20:24:47			0	36705	0	0	0	30142	28760	165038	27015	1064257	45412	111220	0	0	8028	589334	0	0
2024-07-27 20:25:47			0	36694	0	0	0	30140	28750	165038	26906	1064213	45421	111219	0	0	8027	589813	0	0
2024-07-27 20:26:47			0	36684	0	0	0	30127	28750	165138	27088	1064186	45399	111214	0	0	8027	590218	0	0
2024-07-27 20:27:47			0	36678	0	0	0	30135	28750	165166	27130	1064159	45410	111217	0	0	8026	590461	0	0
2024-07-27 20:28:47			0	36673	0	0	0	30122	28750	165158	27145	1064159	45399	111212	0	0	8026	590664	0	0
2024-07-27 20:29:47			0	36662	0	0	0	30132	28740	165206	26778	1064123	45410	111216	0	0	8025	591144	0	0
2024-07-27 20:30:47			0	36641	0	0	0	30122	28750	165238	27022	1064132	45410	111212	0	0	8024	591962	0	0
2024-07-27 20:31:47			0	36628	0	0	0	30124	28730	165382	26790	1064096	45397	111213	0	0	8023	592558	0	0
2024-07-27 20:32:47			0	36653	0	0	0	30114	28740	165258	26866	1064168	45409	111209	0	0	8025	591509	0	0
2024-07-27 20:33:47			0	36643	0	0	0	30109	28740	165258	27156	1064123	45421	111207	0	0	8024	591915	0	0
2024-07-27 20:34:47			0	36642	0	0	0	30103	28740	165250	26800	1064042	45410	111205	0	0	8025	591955	0	0
2024-07-27 20:35:47			0	36631	0	0	0	30103	28720	165270	27003	1064087	45408	111205	0	0	8024	592470	0	0
2024-07-27 20:36:47			0	36650	0	0	0	30116	28730	165194	27039	1064051	45409	111210	0	0	8025	591665	0	0
2024-07-27 20:37:47			0	36629	0	0	0	30116	28730	165334	26830	1064096	45408	111210	0	0	8023	592517	0	0
2024-07-27 20:38:47			0	36614	0	0	0	30111	28730	165390	26890	1064069	45397	111208	0	0	8023	593127	0	0
2024-07-27 20:39:47			0	36583	0	0	0	30106	28720	165513	27003	1064060	45408	111206	0	0	8021	594422	0	0
2024-07-27 20:40:47			0	36537	0	0	0	30106	28720	165717	27008	1064060	45419	111206	0	0	8018	596296	0	0
2024-07-27 20:41:47			0	36518	0	0	0	30116	28720	165817	26826	1064033	45408	111210	0	0	8017	597072	0	0
2024-07-27 20:42:47			0	36515	0	0	0	30109	28720	165857	27031	1064033	45408	111207	0	0	8017	597194	0	0
2024-07-27 20:43:47			0	36495	0	0	0	30101	28730	165853	26889	1064123	45419	111204	0	0	8016	597977	0	0
2024-07-27 20:44:47			0	36499	0	0	0	30101	28720	165957	27019	1064033	45408	111204	0	0	8016	597848	0	0
2024-07-27 20:45:47			0	36491	0	0	0	30103	28710	165897	26849	1064069	45418	111205	0	0	8015	598209	0	0
2024-07-27 20:46:47			0	36498	0	0	0	30101	28720	165937	27038	1064006	45419	111204	0	0	8016	597888	0	0
2024-07-27 20:47:47			0	36480	0	0	0	30106	28710	165989	26856	1063979	45417	111206	0	0	8015	598659	0	0
2024-07-27 20:48:47			0	36444	0	0	0	30106	28710	166077	27164	1064015	45407	111206	0	0	8013	600133	0	0
2024-07-27 20:49:47			0	36429	0	0	0	30106	28720	166185	26856	1064024	45418	111206	0	0	8012	600713	0	0
2024-07-27 20:50:47			0	36413	0	0	0	30103	28710	166217	26738	1063979	45406	111205	0	0	8011	601404	0	0
2024-07-27 20:51:47			0	36408	0	0	0	30103	28710	166165	27008	1063988	45418	111205	0	0	8010	601609	0	0
2024-07-27 20:52:47			0	36401	0	0	0	30090	28720	166229	26781	1063997	45418	111200	0	0	8010	601862	0	0
2024-07-27 20:53:47			0	36393	0	0	0	30101	28710	166257	27161	1064015	45418	111204	0	0	8010	602225	0	0
2024-07-27 20:54:47			0	36397	0	0	0	30090	28720	166305	26963	1063997	45418	111200	0	0	8010	602026	0	0
2024-07-27 20:55:47			0	36409	0	0	0	30098	28710	166441	27204	1064006	45417	111203	0	0	8011	601568	0	0
2024-07-27 20:56:47			0	36369	0	0	0	30088	28700	166505	27154	1063943	45406	111199	0	0	8008	603246	0	0
2024-07-27 20:57:47			0	36376	0	0	0	30096	28710	166509	26866	1064015	45418	111202	0	0	8009	602923	0	0
2024-07-27 20:58:47			0	36389	0	0	0	30090	28700	166433	26942	1063961	45416	111200	0	0	8010	602424	0	0
2024-07-27 20:59:47			0	36368	0	0	0	30088	28710	166573	26935	1063872	45417	111199	0	0	8008	603252	0	0
2024-07-27 21:00:47			0	36358	0	0	0	30083	28690	166485	26738	1063953	45405	111197	0	0	8008	603733	0	0
2024-07-27 21:01:47			0	36348	0	0	0	30083	28680	166553	27279	1063827	45416	111197	0	0	8007	604180	0	0
2024-07-27 21:02:47			0	36344	0	0	0	30083	28700	166617	26753	1063935	45416	111197	0	0	8007	604275	0	0
2024-07-27 21:03:47			0	36340	0	0	0	30062	28690	166525	26675	1063899	45405	111189	0	0	8007	604474	0	0
2024-07-27 21:04:47			0	36326	0	0	0	30044	28690	166697	26847	1063836	45426	111182	0	0	8007	605051	0	0
2024-07-27 21:05:47			0	36337	0	0	0	30005	28680	166617	26804	1063827	45404	111167	0	0	8008	604633	0	0
2024-07-27 21:06:47			0	36304	0	0	0	29973	28680	166737	26661	1063719	45404	111155	0	0	8006	605993	0	0
2024-07-27 21:07:47			0	36275	0	0	0	29979	28650	166845	27119	1063585	45378	111157	0	0	8004	607296	0	0
2024-07-27 21:08:47			0	36259	0	0	0	29976	28640	167109	26875	1063656	45367	111156	0	0	8003	607992	0	0
2024-07-27 21:09:47			0	36241	0	0	0	29986	28630	167041	27197	1063503	45388	111160	0	0	8002	608772	0	0
2024-07-27 21:10:47			0	36216	0	0	0	30007	28630	167093	26791	1063557	45388	111168	0	0	8000	609807	0	0
2024-07-27 21:11:47			0	36222	0	0	0	30018	28630	167261	26870	1063575	45387	111172	0	0	8000	609559	0	0
2024-07-27 21:12:47			0	36199	0	0	0	30031	28630	167341	27026	1063530	45400	111177	0	0	7999	610512	0	0
2024-07-27 21:13:47			0	36194	0	0	0	30033	28620	167413	27145	1063593	45409	111178	0	0	7998	610755	0	0
2024-07-27 21:14:47			0	36183	0	0	0	30028	28610	167461	27154	1063575	45419	111176	0	0	7998	611247	0	0
2024-07-27 21:15:47			0	36176	0	0	0	30015	28620	167453	26849	1063566	45409	111171	0	0	7998	611502	0	0
2024-07-27 21:16:47			0	36200	0	0	0	30002	28610	167341	26906	1063495	45398	111166	0	0	7999	610541	0	0
2024-07-27 21:17:47			0	36198	0	0	0	29994	28620	167389	26753	1063504	45398	111163	0	0	7999	610589	0	0
2024-07-27 21:18:47			0	36215	0	0	0	29979	28600	167293	26878	1063477	45407	111157	0	0	8001	609955	0	0
2024-07-27 21:19:47			0	36222	0	0	0	29981	28610	167301	27131	1063459	45408	111158	0	0	8001	609630	0	0
2024-07-27 21:20:47			0	36205	0	0	0	29984	28600	167325	26698	1063504	45407	111159	0	0	8000	610369	0	0
2024-07-27 21:21:47			0	36204	0	0	0	29981	28590	167305	27007	1063459	45407	111158	0	0	8000	610446	0	0
2024-07-27 21:22:47			0	36194	0	0	0	29986	28590	167309	26840	1063459	45418	111160	0	0	7999	610861	0	0
2024-07-27 21:23:47			0	36195	0	0	0	30002	28600	167473	26961	1063477	45396	111166	0	0	7999	610784	0	0
2024-07-27 21:24:47			0	36183	0	0	0	29973	28600	167441	26970	1063468	45407	111155	0	0	7999	611282	0	0
2024-07-27 21:25:47			0	36186	0	0	0	29981	28580	167437	26727	1063387	45405	111158	0	0	7999	611228	0	0
2024-07-27 21:26:47			0	36165	0	0	0	29981	28590	167553	27130	1063369	45395	111158	0	0	7997	612065	0	0
2024-07-27 21:27:47			0	36157	0	0	0	29984	28590	167561	26911	1063396	45417	111159	0	0	7997	612397	0	0
2024-07-27 21:28:47			0	36138	0	0	0	29973	28590	167617	26899	1063432	45407	111155	0	0	7996	613188	0	0
2024-07-27 21:29:47			0	36132	0	0	0	29981	28590	167693	26800	1063396	45395	111158	0	0	7995	613437	0	0
2024-07-27 21:30:47			0	36136	0	0	0	29958	28580	167629	26807	1063378	45405	111149	0	0	7996	613306	0	0
2024-07-27 21:31:47			0	36134	0	0	0	29963	28580	167601	26866	1063306	45405	111151	0	0	7996	613390	0	0
2024-07-27 21:32:47			0	36123	0	0	0	29948	28570	167745	26871	1063315	45393	111145	0	0	7995	613883	0	0
2024-07-27 21:33:47			0	36129	0	0	0	29953	28580	167601	27142	1063297	45405	111147	0	0	7996	613597	0	0
2024-07-27 21:34:47			0	36108	0	0	0	29950	28560	167729	26682	1063244	45403	111146	0	0	7994	614543	0	0
2024-07-27 21:35:47			0	36095	0	0	0	29945	28560	167877	26890	1063271	45392	111144	0	0	7994	615085	0	0
2024-07-27 21:36:47			0	36062	0	0	0	29945	28560	168033	26807	1063297	45403	111144	0	0	7992	616462	0	0
2024-07-27 21:37:47			0	36060	0	0	0	29940	28560	167981	26720	1063297	45415	111142	0	0	7992	616546	0	0
2024-07-27 21:38:47			0	36046	0	0	0	29942	28560	168121	26712	1063190	45403	111143	0	0	7991	617130	0	0
2024-07-27 21:39:47			0	36031	0	0	0	29968	28560	168109	26776	1063262	45402	111153	0	0	7989	617758	0	0
2024-07-27 21:40:47			0	36011	0	0	0	29958	28550	168157	26859	1063199	45414	111149	0	0	7988	618630	0	0
2024-07-27 21:41:47			0	36014	0	0	0	29932	28560	168241	26863	1063217	45392	111139	0	0	7989	618469	0	0
2024-07-27 21:42:47			0	35985	0	0	0	29929	28550	168293	26876	1063199	45402	111138	0	0	7987	619719	0	0
2024-07-27 21:43:47			0	35980	0	0	0	29963	28550	168273	26944	1063244	45414	111151	0	0	7986	619929	0	0
2024-07-27 21:44:47			0	35983	0	0	0	29963	28550	168429	27066	1063226	45414	111151	0	0	7987	619803	0	0
2024-07-27 21:45:47			0	35983	0	0	0	29971	28560	168369	27097	1063235	45414	111154	0	0	7987	619767	0	0
2024-07-27 21:46:47			0	35987	0	0	0	29973	28550	168333	26857	1063271	45414	111155	0	0	7987	619636	0	0
2024-07-27 21:47:47			0	35988	0	0	0	29973	28560	168449	26977	1063378	45403	111155	0	0	7987	619558	0	0
2024-07-27 21:48:47			0	36001	0	0	0	29989	28560	168317	26691	1063289	45414	111161	0	0	7987	619013	0	0
2024-07-27 21:49:47			0	35986	0	0	0	29984	28560	168393	26911	1063289	45424	111159	0	0	7986	619642	0	0
2024-07-27 21:50:47			0	35990	0	0	0	29984	28560	168461	26705	1063342	45414	111159	0	0	7987	619474	0	0
2024-07-27 21:51:47			0	36001	0	0	0	29976	28570	168313	26915	1063369	45416	111156	0	0	7988	618977	0	0
2024-07-27 21:52:47			0	36006	0	0	0	29976	28560	168369	26868	1063297	45415	111156	0	0	7988	618804	0	0
2024-07-27 21:53:47			0	36004	0	0	0	29958	28560	168309	26849	1063297	45415	111149	0	0	7988	618887	0	0
2024-07-27 21:54:47			0	36008	0	0	0	29961	28570	168357	26649	1063306	45416	111150	0	0	7988	618684	0	0
2024-07-27 21:55:47			0	36014	0	0	0	29958	28560	168085	26587	1063297	45392	111149	0	0	7989	618469	0	0
2024-07-27 21:56:47			0	36018	0	0	0	29945	28560	168333	26863	1063271	45403	111144	0	0	7989	618301	0	0
2024-07-27 21:57:47			0	36010	0	0	0	29937	28570	168297	26875	1063306	45404	111141	0	0	7989	618601	0	0
2024-07-27 21:58:47			0	36010	0	0	0	29940	28560	168365	26882	1063244	45392	111142	0	0	7989	618636	0	0
2024-07-27 21:59:47			0	36003	0	0	0	29929	28550	168369	26856	1063199	45391	111138	0	0	7988	618965	0	0
2024-07-27 22:00:47			0	36012	0	0	0	29929	28550	168333	26785	1063199	45402	111138	0	0	7989	618588	0	0
2024-07-27 22:01:47			0	36014	0	0	0	29932	28540	168353	26956	1063154	45401	111139	0	0	7989	618540	0	0
2024-07-27 22:02:47			0	36009	0	0	0	29916	28540	168433	26915	1063181	45390	111133	0	0	7989	618750	0	0
2024-07-27 22:03:47			0	35995	0	0	0	29927	28540	168369	26537	1063181	45413	111137	0	0	7988	619336	0	0
2024-07-27 22:04:47			0	35995	0	0	0	29919	28540	168429	26648	1063181	45401	111134	0	0	7988	619336	0	0
2024-07-27 22:05:47			0	35987	0	0	0	29922	28540	168485	26998	1063100	45401	111135	0	0	7987	619671	0	0
2024-07-27 22:06:47			0	35992	0	0	0	29916	28540	168657	27036	1063118	45389	111133	0	0	7988	619462	0	0
2024-07-27 22:07:47			0	35964	0	0	0	29919	28540	168517	27001	1063118	45400	111134	0	0	7986	620636	0	0
2024-07-27 22:08:47			0	35963	0	0	0	29916	28540	168629	26998	1063127	45401	111133	0	0	7986	620678	0	0
2024-07-27 22:09:47			0	35951	0	0	0	29914	28520	168621	27100	1063109	45387	111132	0	0	7985	621254	0	0
2024-07-27 22:10:47			0	35929	0	0	0	29919	28530	168665	26864	1063019	45412	111134	0	0	7984	622142	0	0
2024-07-27 22:11:47			0	35942	0	0	0	29909	28520	168717	27050	1063091	45388	111130	0	0	7985	621631	0	0
2024-07-27 22:12:47			0	35945	0	0	0	29901	28530	168721	26967	1063100	45400	111127	0	0	7985	621470	0	0
2024-07-27 22:13:47			0	35925	0	0	0	29893	28520	168673	26885	1063082	45398	111124	0	0	7984	622346	0	0
2024-07-27 22:14:47			0	35918	0	0	0	29890	28510	168829	27168	1063019	45410	111123	0	0	7984	622676	0	0
2024-07-27 22:15:47			0	35907	0	0	0	29883	28510	168789	27046	1063064	45387	111120	0	0	7983	623139	0	0
2024-07-27 22:16:47			0	35931	0	0	0	29875	28510	168845	26864	1063010	45387	111117	0	0	7985	622130	0	0
2024-07-27 22:17:47			0	35901	0	0	0	29872	28510	168913	26908	1062902	45420	111116	0	0	7983	623392	0	0
2024-07-27 22:18:47			0	35909	0	0	0	29864	28500	168865	26826	1063055	45397	111113	0	0	7984	623091	0	0
2024-07-27 22:19:47			0	35902	0	0	0	29857	28500	168825	26923	1062974	45397	111110	0	0	7983	623386	0	0
2024-07-27 22:20:47			0	35894	0	0	0	29851	28510	168905	26731	1062956	45398	111108	0	0	7983	623686	0	0
2024-07-27 22:21:47			0	35885	0	0	0	29851	28490	168965	26578	1062903	45374	111108	0	0	7982	624138	0	0
2024-07-27 22:22:47			0	35895	0	0	0	29849	28490	168853	27137	1062813	45395	111107	0	0	7983	623717	0	0
2024-07-27 22:23:47			0	35899	0	0	0	29841	28490	168889	27065	1062867	45407	111104	0	0	7983	623548	0	0
2024-07-27 22:24:47			0	35896	0	0	0	29838	28490	168937	26781	1062813	45395	111103	0	0	7983	623674	0	0
2024-07-27 22:25:47			0	35889	0	0	0	29838	28480	168953	26928	1062768	45383	111103	0	0	7983	624005	0	0
2024-07-27 22:26:47			0	35880	0	0	0	29828	28470	168989	26764	1062759	45394	111099	0	0	7982	624421	0	0
2024-07-27 22:27:47			0	35911	0	0	0	29831	28460	168837	26644	1062741	45405	111100	0	0	7984	623151	0	0
2024-07-27 22:28:47			0	35907	0	0	0	29828	28460	168901	27022	1062741	45394	111099	0	0	7984	623319	0	0
2024-07-27 22:29:47			0	35946	0	0	0	29823	28460	168785	26857	1062660	45394	111097	0	0	7986	621679	0	0
2024-07-27 22:30:47			0	35978	0	0	0	29825	28460	168629	26875	1062624	45393	111098	0	0	7988	620336	0	0
2024-07-27 22:31:47			0	35984	0	0	0	29812	28450	168573	27157	1062669	45380	111093	0	0	7989	620120	0	0
2024-07-27 22:32:47			0	36037	0	0	0	29815	28450	168405	27013	1062660	45392	111094	0	0	7992	617900	0	0
2024-07-27 22:33:47			0	36042	0	0	0	29812	28450	168205	27064	1062714	45380	111093	0	0	7992	617691	0	0
2024-07-27 22:34:47			0	36077	0	0	0	29792	28440	168093	26833	1062598	45403	111085	0	0	7995	616263	0	0
2024-07-27 22:35:47			0	36084	0	0	0	29786	28430	168161	26852	1062580	45378	111083	0	0	7995	616007	0	0
2024-07-27 22:36:47			0	36087	0	0	0	29792	28430	168129	26968	1062526	45378	111085	0	0	7995	615881	0	0
2024-07-27 22:37:47			0	36085	0	0	0	29797	28430	168153	27142	1062526	45390	111087	0	0	7995	615965	0	0
2024-07-27 22:38:47			0	36046	0	0	0	29794	28430	168337	27279	1062490	45389	111086	0	0	7993	617595	0	0
2024-07-27 22:39:47			0	36042	0	0	0	29792	28430	168349	26975	1062517	45400	111085	0	0	7992	617762	0	0
2024-07-27 22:40:47			0	36044	0	0	0	29789	28430	168557	26828	1062544	45400	111084	0	0	7993	617678	0	0
2024-07-27 22:41:47			0	36019	0	0	0	29789	28420	168613	26937	1062499	45389	111084	0	0	7991	618760	0	0
2024-07-27 22:42:47			0	36004	0	0	0	29797	28420	168581	26842	1062553	45377	111087	0	0	7990	619389	0	0
2024-07-27 22:43:47			0	35986	0	0	0	29786	28420	168709	26804	1062508	45411	111083	0	0	7989	620144	0	0
2024-07-27 22:44:47			0	35966	0	0	0	29786	28410	168661	26750	1062490	45376	111083	0	0	7988	621019	0	0
2024-07-27 22:45:47			0	35969	0	0	0	29794	28410	168761	26868	1062463	45376	111086	0	0	7988	620893	0	0
2024-07-27 22:46:47			0	35948	0	0	0	29784	28410	168945	27050	1062490	45388	111082	0	0	7987	621775	0	0
2024-07-27 22:47:47			0	35948	0	0	0	29792	28410	168845	26944	1062481	45398	111085	0	0	7987	621775	0	0
2024-07-27 22:48:47			0	35927	0	0	0	29792	28410	168993	27031	1062481	45387	111085	0	0	7985	622658	0	0
2024-07-27 22:49:47			0	35936	0	0	0	29792	28400	168949	27130	1062445	45398	111085	0	0	7986	622315	0	0
2024-07-27 22:50:47			0	35906	0	0	0	29802	28400	169029	26927	1062472	45387	111089	0	0	7984	623578	0	0
2024-07-27 22:51:47			0	35886	0	0	0	29797	28400	169049	26927	1062463	45398	111087	0	0	7983	624421	0	0
2024-07-27 22:52:47			0	35884	0	0	0	29797	28400	169125	26878	1062445	45387	111087	0	0	7983	624505	0	0
2024-07-27 22:53:47			0	35870	0	0	0	29797	28400	169137	26760	1062418	45398	111087	0	0	7982	625095	0	0
2024-07-27 22:54:47			0	35862	0	0	0	29802	28400	169229	27013	1062472	45398	111089	0	0	7981	625433	0	0
2024-07-27 22:55:47			0	35851	0	0	0	29789	28400	169188	26967	1062409	45387	111084	0	0	7981	625897	0	0
2024-07-27 22:56:47			0	35846	0	0	0	29784	28410	169300	26748	1062454	45375	111082	0	0	7981	626072	0	0
2024-07-27 22:57:47			0	35855	0	0	0	29786	28400	169220	27197	1062445	45387	111083	0	0	7981	625728	0	0
2024-07-27 22:58:47			0	35841	0	0	0	29786	28400	169264	26819	1062445	45387	111083	0	0	7980	626320	0	0
2024-07-27 22:59:47			0	35852	0	0	0	29789	28400	169296	26913	1062463	45387	111084	0	0	7981	625855	0	0
2024-07-27 23:00:47			0	35857	0	0	0	29792	28410	169208	26835	1062481	45387	111085	0	0	7981	625608	0	0
2024-07-27 23:01:47			0	35863	0	0	0	29792	28410	169281	27232	1062436	45388	111085	0	0	7982	625355	0	0
2024-07-27 23:02:47			0	35852	0	0	0	29766	28400	169308	26882	1062409	45398	111075	0	0	7981	625855	0	0
2024-07-27 23:03:47			0	35824	0	0	0	29779	28390	169356	26885	1062400	45386	111080	0	0	7979	627074	0	0
2024-07-27 23:04:47			0	35823	0	0	0	29781	28400	169512	26821	1062355	45387	111081	0	0	7979	627080	0	0
2024-07-27 23:05:47			0	35790	0	0	0	29768	28390	169428	26989	1062346	45397	111076	0	0	7977	628513	0	0
2024-07-27 23:06:47			0	35790	0	0	0	29766	28380	169608	27131	1062337	45396	111075	0	0	7977	628549	0	0
2024-07-27 23:07:47			0	35777	0	0	0	29755	28380	169672	27034	1062328	45385	111071	0	0	7977	629100	0	0
2024-07-27 23:08:47			0	35779	0	0	0	29755	28380	169672	27201	1062364	45385	111071	0	0	7977	629015	0	0
2024-07-27 23:09:47			0	35765	0	0	0	29740	28370	169740	26861	1062284	45373	111065	0	0	7976	629645	0	0
2024-07-27 23:10:47			0	35764	0	0	0	29724	28380	169844	26845	1062301	45385	111059	0	0	7977	629651	0	0
2024-07-27 23:11:47			0	35738	0	0	0	29722	28370	169740	26821	1062203	45395	111058	0	0	7975	630791	0	0
2024-07-27 23:12:47			0	35745	0	0	0	29714	28360	169640	26788	1062221	45383	111055	0	0	7975	630530	0	0
2024-07-27 23:13:47			0	35742	0	0	0	29722	28360	169856	26866	1062185	45382	111058	0	0	7975	630658	0	0
2024-07-27 23:14:47			0	35717	0	0	0	29727	28360	169752	27055	1062239	45371	111060	0	0	7974	631720	0	0
2024-07-27 23:15:47			0	35722	0	0	0	29722	28350	169720	27157	1062122	45382	111058	0	0	7974	631544	0	0
2024-07-27 23:16:47			0	35712	0	0	0	29722	28350	169864	26968	1062149	45405	111058	0	0	7973	631969	0	0
2024-07-27 23:17:47			0	35701	0	0	0	29727	28340	169948	26837	1062185	45381	111060	0	0	7972	632473	0	0
2024-07-27 23:18:47			0	35683	0	0	0	29729	28350	170024	27105	1062167	45371	111061	0	0	7971	633203	0	0
2024-07-27 23:19:47			0	35663	0	0	0	29735	28340	170064	26889	1062149	45380	111063	0	0	7970	634092	0	0
2024-07-27 23:20:47			0	35666	0	0	0	29727	28340	170092	27095	1062158	45392	111060	0	0	7970	633964	0	0
2024-07-27 23:21:47			0	35644	0	0	0	29729	28350	170144	27076	1062194	45382	111061	0	0	7969	634865	0	0
2024-07-27 23:22:47			0	35628	0	0	0	29722	28340	170272	27057	1062185	45392	111058	0	0	7968	635585	0	0
2024-07-27 23:23:47			0	35622	0	0	0	29724	28340	170264	26885	1062158	45381	111059	0	0	7968	635841	0	0
2024-07-27 23:24:47			0	35602	0	0	0	29719	28330	170336	27078	1062113	45391	111057	0	0	7966	636733	0	0
2024-07-27 23:25:47			0	35614	0	0	0	29719	28340	170376	26746	1062122	45380	111057	0	0	7967	636183	0	0
2024-07-27 23:26:47			0	35591	0	0	0	29714	28330	170432	26955	1062086	45391	111055	0	0	7966	637203	0	0
2024-07-27 23:27:47			0	35585	0	0	0	29716	28330	170524	26807	1062104	45391	111056	0	0	7965	637460	0	0
2024-07-27 23:28:47			0	35601	0	0	0	29703	28330	170480	26970	1062086	45369	111051	0	0	7967	636775	0	0
2024-07-27 23:29:47			0	35586	0	0	0	29706	28340	170468	26885	1062122	45391	111052	0	0	7966	637380	0	0
2024-07-27 23:30:47			0	35600	0	0	0	29696	28330	170516	26937	1062104	45380	111048	0	0	7967	636818	0	0
2024-07-27 23:31:47			0	35594	0	0	0	29698	28330	170420	27015	1062078	45391	111049	0	0	7966	637075	0	0
2024-07-27 23:32:47			0	35623	0	0	0	29698	28330	170556	27197	1062024	45369	111049	0	0	7968	635835	0	0
2024-07-27 23:33:47			0	35615	0	0	0	29698	28320	170352	26963	1062015	45379	111049	0	0	7968	636214	0	0
2024-07-27 23:34:47			0	35608	0	0	0	29696	28320	170364	26972	1062006	45378	111048	0	0	7967	636513	0	0
2024-07-27 23:35:47			0	35614	0	0	0	29688	28320	170340	27069	1062033	45378	111045	0	0	7968	636256	0	0
2024-07-27 23:36:47			0	35613	0	0	0	29677	28310	170376	27133	1061943	45378	111041	0	0	7968	636336	0	0
2024-07-27 23:37:47			0	35646	0	0	0	29683	28310	170372	26946	1062024	45378	111043	0	0	7970	634927	0	0
2024-07-27 23:38:47			0	35640	0	0	0	29675	28310	170220	27100	1061943	45367	111040	0	0	7969	635183	0	0
2024-07-27 23:39:47			0	35653	0	0	0	29672	28300	170164	27031	1061925	45366	111039	0	0	7970	634665	0	0
2024-07-27 23:40:47			0	35651	0	0	0	29675	28310	170100	26890	1061961	45378	111040	0	0	7970	634713	0	0
2024-07-27 23:41:47			0	35659	0	0	0	29667	28300	170184	26970	1061898	45377	111037	0	0	7971	634409	0	0
2024-07-27 23:42:47			0	35674	0	0	0	29667	28300	170040	26670	1061889	45387	111037	0	0	7972	633769	0	0
2024-07-27 23:43:47			0	35691	0	0	0	29659	28280	170092	26857	1061862	45375	111034	0	0	7973	633118	0	0
2024-07-27 23:44:47			0	35693	0	0	0	29662	28280	170080	26955	1061889	45375	111035	0	0	7973	633033	0	0
2024-07-27 23:45:47			0	35682	0	0	0	29662	28290	169968	26847	1061907	45376	111035	0	0	7972	633465	0	0
2024-07-27 23:46:47			0	35701	0	0	0	29662	28280	169964	26713	1061854	45364	111035	0	0	7973	632693	0	0
2024-07-27 23:47:47			0	35693	0	0	0	29662	28270	169944	27008	1061844	45396	111035	0	0	7973	633070	0	0
2024-07-27 23:48:47			0	35722	0	0	0	29657	28280	169836	27029	1061800	45375	111033	0	0	7975	631799	0	0
2024-07-27 23:49:47			0	35716	0	0	0	29654	28270	169896	26968	1061790	45374	111032	0	0	7974	632091	0	0
2024-07-27 23:50:47			0	35707	0	0	0	29654	28270	169832	27185	1061808	45384	111032	0	0	7974	632474	0	0
2024-07-27 23:51:47			0	35720	0	0	0	29644	28270	169908	26811	1061755	45384	111028	0	0	7975	631921	0	0
2024-07-27 23:52:47			0	35703	0	0	0	29646	28260	169868	27064	1061826	45374	111029	0	0	7974	632681	0	0
2024-07-27 23:53:47			0	35726	0	0	0	29644	28250	169876	27131	1061781	45382	111028	0	0	7975	631739	0	0
2024-07-27 23:54:47			0	35731	0	0	0	29641	28260	170012	26759	1061718	45384	111027	0	0	7975	631490	0	0
2024-07-27 23:55:47			0	35725	0	0	0	29641	28260	169908	26986	1061745	45374	111027	0	0	7975	631745	0	0
2024-07-27 23:56:47			0	35739	0	0	0	29644	28250	169772	26733	1061754	45394	111028	0	0	7976	631186	0	0
2024-07-27 23:57:47			0	35743	0	0	0	29636	28260	169880	26927	1061718	45384	111025	0	0	7976	630980	0	0
2024-07-27 23:58:47			0	35736	0	0	0	29636	28250	169812	27085	1061754	45382	111025	0	0	7976	631314	0	0
2024-07-27 23:59:47			0	35750	0	0	0	29638	28250	169880	27026	1061700	45372	111026	0	0	7976	630719	0	0
2024-07-28 00:00:47			0	35749	0	0	0	29638	28250	169936	26991	1061772	45382	111026	0	0	7976	630761	0	0
2024-07-28 00:01:47			0	35752	0	0	0	29628	28250	169860	26767	1061665	45382	111022	0	0	7977	630634	0	0
2024-07-28 00:02:47			0	35727	0	0	0	29636	28230	169872	26793	1061602	45380	111025	0	0	7975	631769	0	0
2024-07-28 00:03:47			0	35730	0	0	0	29638	28250	169988	27027	1061665	45382	111026	0	0	7975	631569	0	0
2024-07-28 00:04:47			0	35740	0	0	0	29631	28240	170084	26932	1061656	45382	111023	0	0	7976	631180	0	0
2024-07-28 00:05:47			0	35726	0	0	0	29638	28250	170084	26809	1061638	45394	111026	0	0	7975	631739	0	0
2024-07-28 00:06:47			0	35726	0	0	0	29625	28240	170056	26896	1061674	45393	111021	0	0	7975	631775	0	0
2024-07-28 00:07:47			0	35718	0	0	0	29623	28230	170032	26833	1061665	45392	111020	0	0	7975	632152	0	0
2024-07-28 00:08:47			0	35723	0	0	0	29615	28220	170044	26828	1061620	45380	111017	0	0	7975	631976	0	0
2024-07-28 00:09:47			0	35706	0	0	0	29612	28230	170212	26634	1061575	45380	111016	0	0	7974	632663	0	0
2024-07-28 00:10:47			0	35710	0	0	0	29620	28230	170236	26830	1061638	45370	111019	0	0	7974	632492	0	0
2024-07-28 00:11:47			0	35708	0	0	0	29612	28230	170196	26819	1061557	45370	111016	0	0	7974	632578	0	0
2024-07-28 00:12:47			0	35696	0	0	0	29605	28220	170128	26937	1061638	45380	111013	0	0	7974	633125	0	0
2024-07-28 00:13:47			0	35686	0	0	0	29610	28220	170144	26986	1061557	45380	111015	0	0	7973	633551	0	0
2024-07-28 00:14:47			0	35695	0	0	0	29605	28230	170264	26585	1061575	45392	111013	0	0	7974	633131	0	0
2024-07-28 00:15:47			0	35683	0	0	0	29602	28220	170292	26712	1061566	45391	111012	0	0	7973	633679	0	0
2024-07-28 00:16:47			0	35676	0	0	0	29602	28220	170284	26764	1061566	45380	111012	0	0	7972	633977	0	0
2024-07-28 00:17:47			0	35695	0	0	0	29597	28210	170220	27112	1061521	45368	111010	0	0	7974	633204	0	0
2024-07-28 00:18:47			0	35682	0	0	0	29594	28200	170288	27187	1061521	45367	111009	0	0	7973	633795	0	0
2024-07-28 00:19:47			0	35680	0	0	0	29597	28220	170284	26852	1061476	45369	111010	0	0	7973	633807	0	0
2024-07-28 00:20:47			0	35697	0	0	0	29592	28200	170260	26922	1061503	45367	111008	0	0	7974	633156	0	0
2024-07-28 00:21:47			0	35706	0	0	0	29589	28200	170232	26944	1061450	45389	111007	0	0	7974	632772	0	0
2024-07-28 00:22:47			0	35700	0	0	0	29592	28210	170176	26804	1061494	45379	111008	0	0	7974	632991	0	0
2024-07-28 00:23:47			0	35723	0	0	0	29586	28200	170188	26974	1061441	45378	111006	0	0	7975	632049	0	0
2024-07-28 00:24:47			0	35714	0	0	0	29589	28210	170264	26909	1061458	45379	111007	0	0	7975	632395	0	0
2024-07-28 00:25:47			0	35712	0	0	0	29589	28200	170152	26800	1061414	45367	111007	0	0	7975	632517	0	0
2024-07-28 00:26:47			0	35696	0	0	0	29581	28200	170208	26776	1061468	45389	111004	0	0	7974	633198	0	0
2024-07-28 00:27:47			0	35680	0	0	0	29586	28200	170256	26750	1061495	45389	111006	0	0	7973	633880	0	0
2024-07-28 00:28:47			0	35690	0	0	0	29576	28190	170276	26845	1061405	45366	111002	0	0	7974	633490	0	0
2024-07-28 00:29:47			0	35690	0	0	0	29581	28180	170292	27133	1061333	45376	111004	0	0	7973	633527	0	0
2024-07-28 00:30:47			0	35684	0	0	0	29576	28190	170388	26996	1061423	45376	111002	0	0	7973	633746	0	0
2024-07-28 00:31:47			0	35652	0	0	0	29571	28190	170432	26641	1061396	45376	111000	0	0	7971	635111	0	0
2024-07-28 00:32:47			0	35658	0	0	0	29571	28190	170348	26854	1061342	45376	111000	0	0	7972	634855	0	0
2024-07-28 00:33:47			0	35647	0	0	0	29571	28170	170448	27031	1061342	45386	111000	0	0	7971	635398	0	0
2024-07-28 00:34:47			0	35638	0	0	0	29576	28170	170520	27081	1061333	45385	111002	0	0	7970	635782	0	0
2024-07-28 00:35:47			0	35621	0	0	0	29566	28180	170680	26649	1061324	45387	110998	0	0	7969	636472	0	0
2024-07-28 00:36:47			0	35604	0	0	0	29555	28170	170612	26729	1061360	45363	110994	0	0	7969	637236	0	0
2024-07-28 00:37:47			0	35606	0	0	0	29561	28180	170692	26644	1061324	45376	110996	0	0	7969	637113	0	0
2024-07-28 00:38:47			0	35616	0	0	0	29555	28160	170756	26545	1061351	45375	110994	0	0	7969	636759	0	0
2024-07-28 00:39:47			0	35595	0	0	0	29561	28170	170788	26852	1061252	45375	110996	0	0	7968	637621	0	0
2024-07-28 00:40:47			0	35610	0	0	0	29558	28170	170652	26500	1061360	45375	110995	0	0	7969	636979	0	0
2024-07-28 00:41:47			0	35627	0	0	0	29558	28170	170620	26726	1061306	45375	110995	0	0	7970	636252	0	0
2024-07-28 00:42:47			0	35626	0	0	0	29561	28160	170496	26809	1061315	45384	110996	0	0	7970	636332	0	0
2024-07-28 00:43:47			0	35643	0	0	0	29555	28160	170428	27201	1061297	45375	110994	0	0	7971	635605	0	0
2024-07-28 00:44:47			0	35654	0	0	0	29558	28150	170504	26680	1061279	45374	110995	0	0	7971	635172	0	0
2024-07-28 00:45:47			0	35659	0	0	0	29553	28170	170408	26847	1061288	45386	110993	0	0	7972	634885	0	0
2024-07-28 00:46:47			0	35671	0	0	0	29550	28160	170420	27109	1061244	45363	110992	0	0	7973	634410	0	0
2024-07-28 00:47:47			0	35686	0	0	0	29553	28150	170372	26946	1061252	45374	110993	0	0	7973	633807	0	0
2024-07-28 00:48:47			0	35667	0	0	0	29548	28150	170456	26923	1061270	45361	110991	0	0	7972	634617	0	0
2024-07-28 00:49:47			0	35687	0	0	0	29548	28150	170436	27183	1061252	45374	110991	0	0	7974	633764	0	0
2024-07-28 00:50:47			0	35706	0	0	0	29548	28160	170276	27045	1061262	45374	110991	0	0	7975	632918	0	0
2024-07-28 00:51:47			0	35703	0	0	0	29548	28160	170308	26788	1061208	45362	110991	0	0	7975	633046	0	0
2024-07-28 00:52:47			0	35716	0	0	0	29542	28150	170312	26925	1061279	45384	110989	0	0	7975	632529	0	0
2024-07-28 00:53:47			0	35731	0	0	0	29542	28150	170232	26776	1061171	45374	110989	0	0	7976	631891	0	0
2024-07-28 00:54:47			0	35724	0	0	0	29535	28140	170160	26741	1061199	45372	110986	0	0	7976	632225	0	0
2024-07-28 00:55:47			0	35727	0	0	0	29535	28150	170084	26764	1061190	45383	110986	0	0	7976	632061	0	0
2024-07-28 00:56:47			0	35730	0	0	0	29540	28140	170096	26649	1061181	45383	110988	0	0	7976	631970	0	0
2024-07-28 00:57:47			0	35728	0	0	0	29532	28140	169972	26949	1061172	45372	110985	0	0	7976	632055	0	0
2024-07-28 00:58:47			0	35746	0	0	0	29532	28140	170032	26922	1061145	45372	110985	0	0	7977	631290	0	0
2024-07-28 00:59:47			0	35741	0	0	0	29532	28140	169972	26892	1061181	45361	110985	0	0	7977	631502	0	0
2024-07-28 01:00:47			0	35750	0	0	0	29522	28140	170092	26986	1061172	45382	110981	0	0	7978	631120	0	0
2024-07-28 01:01:47			0	35739	0	0	0	29529	28140	170020	26904	1061154	45383	110984	0	0	7977	631587	0	0
2024-07-28 01:02:47			0	35735	0	0	0	29529	28140	170040	27008	1061172	45349	110984	0	0	7977	631757	0	0
2024-07-28 01:03:47			0	35753	0	0	0	29519	28140	170176	26713	1061064	45382	110980	0	0	7978	630992	0	0
2024-07-28 01:04:47			0	35740	0	0	0	29516	28130	170056	26687	1061019	45371	110979	0	0	7977	631581	0	0
2024-07-28 01:05:47			0	35753	0	0	0	29514	28140	170032	26824	1061145	45360	110978	0	0	7978	630992	0	0
2024-07-28 01:06:47			0	35733	0	0	0	29524	28130	170076	26896	1061082	45372	110982	0	0	7977	631879	0	0
2024-07-28 01:07:47			0	35732	0	0	0	29514	28120	170064	26821	1061118	45371	110978	0	0	7977	631958	0	0
2024-07-28 01:08:47			0	35725	0	0	0	29514	28120	170132	27180	1061118	45371	110978	0	0	7976	632256	0	0
2024-07-28 01:09:47			0	35729	0	0	0	29509	28120	170112	27090	1061109	45370	110976	0	0	7977	632086	0	0
2024-07-28 01:10:47			0	35731	0	0	0	29514	28120	170156	26975	1061055	45370	110978	0	0	7977	632000	0	0
2024-07-28 01:11:47			0	35736	0	0	0	29519	28120	170092	26885	1061001	45370	110980	0	0	7977	631788	0	0
2024-07-28 01:12:47			0	35738	0	0	0	29509	28110	170268	26873	1061100	45392	110976	0	0	7977	631739	0	0
2024-07-28 01:13:47			0	35726	0	0	0	29496	28130	170192	26991	1061073	45359	110971	0	0	7977	632177	0	0
2024-07-28 01:14:47			0	35704	0	0	0	29496	28110	170252	26928	1061100	45370	110971	0	0	7975	633186	0	0
2024-07-28 01:15:47			0	35717	0	0	0	29511	28120	170288	26703	1061028	45370	110977	0	0	7976	632596	0	0
2024-07-28 01:16:47			0	35719	0	0	0	29511	28110	170136	26609	1061046	45380	110977	0	0	7976	632548	0	0
2024-07-28 01:17:47			0	35724	0	0	0	29511	28120	170068	26863	1061082	45370	110977	0	0	7976	632298	0	0
2024-07-28 01:18:47			0	35713	0	0	0	29516	28120	170044	26852	1061082	45392	110979	0	0	7976	632766	0	0
2024-07-28 01:19:47			0	35731	0	0	0	29509	28120	170088	26743	1061055	45370	110976	0	0	7977	632000	0	0
2024-07-28 01:20:47			0	35732	0	0	0	29522	28110	170060	26876	1061073	45370	110981	0	0	7977	631994	0	0
2024-07-28 01:21:47			0	35737	0	0	0	29511	28110	170140	26982	1061019	45370	110977	0	0	7977	631782	0	0
2024-07-28 01:22:47			0	35747	0	0	0	29506	28120	170096	26618	1061055	45380	110975	0	0	7978	631320	0	0
2024-07-28 01:23:47			0	35745	0	0	0	29509	28120	170196	26906	1061028	45370	110976	0	0	7978	631405	0	0
2024-07-28 01:24:47			0	35769	0	0	0	29506	28120	169960	27033	1061028	45358	110975	0	0	7979	630385	0	0
2024-07-28 01:25:47			0	35752	0	0	0	29509	28110	169916	26741	1061091	45369	110976	0	0	7978	631144	0	0
2024-07-28 01:26:47			0	35780	0	0	0	29498	28110	169928	26750	1060992	45380	110972	0	0	7980	629955	0	0
2024-07-28 01:27:47			0	35772	0	0	0	29501	28110	169996	26635	1061037	45369	110973	0	0	7979	630294	0	0
2024-07-28 01:28:47			0	35774	0	0	0	29503	28110	169888	26757	1061046	45380	110974	0	0	7979	630209	0	0
2024-07-28 01:29:47			0	35786	0	0	0	29498	28100	169940	26665	1060975	45379	110972	0	0	7980	629737	0	0
2024-07-28 01:30:47			0	35776	0	0	0	29496	28110	169904	26786	1061127	45370	110971	0	0	7980	630125	0	0
2024-07-28 01:31:47			0	35785	0	0	0	29496	28110	169852	26965	1061037	45369	110971	0	0	7980	629743	0	0
2024-07-28 01:32:47			0	35799	0	0	0	29503	28110	169740	26821	1060983	45379	110974	0	0	7981	629149	0	0
2024-07-28 01:33:47			0	35805	0	0	0	29493	28100	169820	26509	1061001	45369	110970	0	0	7981	628931	0	0
2024-07-28 01:34:47			0	35804	0	0	0	29493	28100	169788	26583	1060921	45391	110970	0	0	7981	628973	0	0
2024-07-28 01:35:47			0	35813	0	0	0	29496	28110	169728	26923	1060992	45370	110971	0	0	7982	628555	0	0
2024-07-28 01:36:47			0	35833	0	0	0	29493	28090	169692	26916	1060993	45368	110970	0	0	7983	627781	0	0
2024-07-28 01:37:47			0	35829	0	0	0	29488	28090	169684	26857	1060930	45377	110968	0	0	7983	627950	0	0
2024-07-28 01:38:47			0	35817	0	0	0	29496	28100	169580	26859	1060948	45369	110971	0	0	7982	628422	0	0
2024-07-28 01:39:47			0	35849	0	0	0	29485	28090	169524	26922	1060957	45377	110967	0	0	7984	627104	0	0
2024-07-28 01:40:47			0	35851	0	0	0	29485	28090	169576	27183	1060930	45367	110967	0	0	7984	627019	0	0
2024-07-28 01:41:47			0	35857	0	0	0	29483	28090	169481	26835	1060939	45378	110966	0	0	7985	626765	0	0
2024-07-28 01:42:47			0	35859	0	0	0	29485	28090	169421	26604	1060858	45378	110967	0	0	7985	626681	0	0
2024-07-28 01:43:47			0	35878	0	0	0	29483	28090	169593	26694	1060966	45368	110966	0	0	7986	625878	0	0
2024-07-28 01:44:47			0	35882	0	0	0	29488	28090	169441	26896	1060957	45377	110968	0	0	7986	625709	0	0
2024-07-28 01:45:47			0	35887	0	0	0	29490	28080	169353	26703	1060939	45388	110969	0	0	7986	625534	0	0
2024-07-28 01:46:47			0	35909	0	0	0	29496	28080	169349	26783	1060894	45377	110971	0	0	7988	624605	0	0
2024-07-28 01:47:47			0	35895	0	0	0	29493	28090	169365	26863	1060957	45367	110970	0	0	7987	625160	0	0
2024-07-28 01:48:47			0	35934	0	0	0	29485	28090	169385	26955	1060957	45377	110967	0	0	7989	623515	0	0
2024-07-28 01:49:47			0	35913	0	0	0	29480	28090	169233	26920	1060930	45377	110965	0	0	7988	624400	0	0
2024-07-28 01:50:47			0	35927	0	0	0	29470	28080	169309	26779	1060975	45377	110961	0	0	7989	623846	0	0
2024-07-28 01:51:47			0	35938	0	0	0	29470	28090	169189	27072	1060903	45389	110961	0	0	7990	623347	0	0
2024-07-28 01:52:47			0	35933	0	0	0	29470	28080	169305	27183	1060939	45376	110961	0	0	7990	623593	0	0
2024-07-28 01:53:47			0	35919	0	0	0	29472	28080	169257	26680	1060921	45377	110962	0	0	7989	624183	0	0
2024-07-28 01:54:47			0	35913	0	0	0	29475	28080	169285	26918	1060885	45366	110963	0	0	7988	624436	0	0
2024-07-28 01:55:47			0	35907	0	0	0	29475	28070	169241	27105	1060903	45376	110963	0	0	7988	624725	0	0
2024-07-28 01:56:47			0	35927	0	0	0	29454	28060	169277	27137	1060858	45365	110955	0	0	7989	623918	0	0
2024-07-28 01:57:47			0	35931	0	0	0	29462	28070	169277	26833	1060894	45375	110958	0	0	7990	623713	0	0
2024-07-28 01:58:47			0	35905	0	0	0	29457	28070	169313	26970	1060876	45366	110956	0	0	7988	624810	0	0
2024-07-28 01:59:47			0	35918	0	0	0	29459	28070	169337	26937	1060840	45375	110957	0	0	7989	624261	0	0
2024-07-28 02:00:47			0	35907	0	0	0	29462	28060	169405	26857	1060795	45353	110958	0	0	7988	624761	0	0
2024-07-28 02:01:47			0	35910	0	0	0	29470	28070	169397	26857	1060840	45387	110961	0	0	7988	624599	0	0
2024-07-28 02:02:47			0	35914	0	0	0	29459	28060	169397	26811	1060831	45365	110957	0	0	7988	624466	0	0
2024-07-28 02:03:47			0	35905	0	0	0	29457	28060	169373	26866	1060777	45365	110956	0	0	7988	624846	0	0
2024-07-28 02:04:47			0	35903	0	0	0	29454	28060	169425	26698	1060777	45365	110955	0	0	7988	624930	0	0
2024-07-28 02:05:47			0	35913	0	0	0	29457	28060	169345	26731	1060804	45365	110956	0	0	7988	624508	0	0
2024-07-28 02:06:47			0	35920	0	0	0	29457	28060	169309	26953	1060751	45375	110956	0	0	7989	624213	0	0
2024-07-28 02:07:47			0	35907	0	0	0	29457	28050	169397	26968	1060760	45375	110956	0	0	7988	624797	0	0
2024-07-28 02:08:47			0	35901	0	0	0	29459	28070	169345	26911	1060867	45375	110957	0	0	7988	624979	0	0
2024-07-28 02:09:47			0	35921	0	0	0	29464	28060	169313	26880	1060822	45375	110959	0	0	7989	624171	0	0
2024-07-28 02:10:47			0	35908	0	0	0	29470	28060	169237	26878	1060769	45375	110961	0	0	7988	624719	0	0
2024-07-28 02:11:47			0	35936	0	0	0	29464	28060	169253	26769	1060822	45386	110959	0	0	7990	623539	0	0
2024-07-28 02:12:47			0	35943	0	0	0	29464	28050	169137	26894	1060787	45353	110959	0	0	7990	623280	0	0
2024-07-28 02:13:47			0	35950	0	0	0	29459	28060	169225	26680	1060804	45365	110957	0	0	7991	622949	0	0
2024-07-28 02:14:47			0	35955	0	0	0	29451	28050	169157	26935	1060831	45363	110954	0	0	7991	622774	0	0
2024-07-28 02:15:47			0	35974	0	0	0	29444	28070	169189	27092	1060786	45387	110951	0	0	7992	621903	0	0
2024-07-28 02:16:47			0	35954	0	0	0	29446	28060	169161	26866	1060795	45353	110952	0	0	7991	622781	0	0
2024-07-28 02:17:47			0	35962	0	0	0	29449	28060	169173	26965	1060742	45364	110953	0	0	7992	622444	0	0
2024-07-28 02:18:47			0	35949	0	0	0	29446	28060	169233	27196	1060769	45364	110952	0	0	7991	622991	0	0
2024-07-28 02:19:47			0	35948	0	0	0	29451	28050	169069	27291	1060778	45363	110954	0	0	7991	623069	0	0
2024-07-28 02:20:47			0	35955	0	0	0	29454	28050	169097	26889	1060778	45374	110955	0	0	7991	622774	0	0
2024-07-28 02:21:47			0	35959	0	0	0	29446	28060	169033	26897	1060822	45375	110952	0	0	7991	622570	0	0
2024-07-28 02:22:47			0	35971	0	0	0	29441	28050	169081	27109	1060751	45374	110950	0	0	7992	622101	0	0
2024-07-28 02:23:47			0	35972	0	0	0	29444	28050	169069	27223	1060724	45385	110951	0	0	7992	622059	0	0
2024-07-28 02:24:47			0	35981	0	0	0	29454	28050	169025	26927	1060813	45375	110955	0	0	7993	621681	0	0
2024-07-28 02:25:47			0	35977	0	0	0	29451	28040	168969	26908	1060715	45384	110954	0	0	7992	621885	0	0
2024-07-28 02:26:47			0	35988	0	0	0	29446	28040	168909	26932	1060742	45362	110952	0	0	7993	621422	0	0
2024-07-28 02:27:47			0	35998	0	0	0	29438	28040	168953	26875	1060742	45373	110949	0	0	7994	621002	0	0
2024-07-28 02:28:47			0	35993	0	0	0	29444	28040	168821	26837	1060742	45362	110951	0	0	7993	621212	0	0
2024-07-28 02:29:47			0	36009	0	0	0	29444	28050	168829	27142	1060760	45386	110951	0	0	7994	620504	0	0
2024-07-28 02:30:47			0	36032	0	0	0	29428	28040	168777	27190	1060742	45384	110945	0	0	7996	619574	0	0
2024-07-28 02:31:47			0	36028	0	0	0	29436	28050	168805	26826	1060706	45364	110948	0	0	7996	619707	0	0
2024-07-28 02:32:47			0	36035	0	0	0	29425	28040	168825	26965	1060652	45362	110944	0	0	7996	619449	0	0
2024-07-28 02:33:47			0	36011	0	0	0	29425	28040	168805	26974	1060706	45362	110944	0	0	7995	620456	0	0
2024-07-28 02:34:47			0	36012	0	0	0	29420	28040	168869	26986	1060706	45384	110942	0	0	7995	620414	0	0
2024-07-28 02:35:47			0	36009	0	0	0	29431	28030	168809	26991	1060661	45372	110946	0	0	7995	620576	0	0
2024-07-28 02:36:47			0	35987	0	0	0	29428	28030	168917	27140	1060670	45373	110945	0	0	7993	621500	0	0
2024-07-28 02:37:47			0	36002	0	0	0	29433	28030	169017	27098	1060607	45361	110947	0	0	7994	620870	0	0
2024-07-28 02:38:47			0	35997	0	0	0	29431	28040	169025	27178	1060679	45384	110946	0	0	7994	621044	0	0
2024-07-28 02:39:47			0	36008	0	0	0	29431	28030	168921	26646	1060670	45384	110946	0	0	7994	620618	0	0
2024-07-28 02:40:47			0	36005	0	0	0	29436	28030	168893	26734	1060643	45373	110948	0	0	7994	620744	0	0
2024-07-28 02:41:47			0	36013	0	0	0	29436	28030	168801	26944	1060634	45372	110948	0	0	7995	620408	0	0
2024-07-28 02:42:47			0	36033	0	0	0	29438	28030	168789	26609	1060634	45383	110949	0	0	7996	619568	0	0
2024-07-28 02:43:47			0	36022	0	0	0	29431	28030	168749	26927	1060634	45372	110946	0	0	7995	620030	0	0
2024-07-28 02:44:47			0	36038	0	0	0	29436	28030	168885	26996	1060715	45372	110948	0	0	7996	619359	0	0
2024-07-28 02:45:47			0	36038	0	0	0	29425	28020	168789	27093	1060733	45382	110944	0	0	7996	619394	0	0
2024-07-28 02:46:47			0	36033	0	0	0	29428	28030	168841	27206	1060589	45373	110945	0	0	7996	619568	0	0
2024-07-28 02:47:47			0	36019	0	0	0	29423	28030	168777	26705	1060688	45372	110943	0	0	7995	620156	0	0
2024-07-28 02:48:47			0	36011	0	0	0	29418	28030	168961	27095	1060661	45383	110941	0	0	7995	620492	0	0
2024-07-28 02:49:47			0	36020	0	0	0	29418	28020	168777	26960	1060625	45372	110941	0	0	7995	620150	0	0
2024-07-28 02:50:47			0	36015	0	0	0	29412	28020	168973	26594	1060652	45360	110939	0	0	7995	620359	0	0
2024-07-28 02:51:47			0	36004	0	0	0	29420	28020	168921	26706	1060544	45360	110942	0	0	7994	620821	0	0
2024-07-28 02:52:47			0	36017	0	0	0	29412	28020	168905	26840	1060562	45382	110939	0	0	7995	620276	0	0
2024-07-28 02:53:47			0	35995	0	0	0	29412	28020	168989	27215	1060616	45382	110939	0	0	7994	621200	0	0
2024-07-28 02:54:47			0	36002	0	0	0	29412	28020	168917	26821	1060652	45360	110939	0	0	7994	620906	0	0
2024-07-28 02:55:47			0	35993	0	0	0	29405	28010	168921	27088	1060580	45372	110936	0	0	7994	621320	0	0
2024-07-28 02:56:47			0	36016	0	0	0	29423	28010	168957	27045	1060607	45360	110943	0	0	7995	620353	0	0
2024-07-28 02:57:47			0	35995	0	0	0	29415	28010	168865	26733	1060607	45382	110940	0	0	7994	621235	0	0
2024-07-28 02:58:47			0	36009	0	0	0	29420	28020	168905	26955	1060616	45360	110942	0	0	7995	620611	0	0
2024-07-28 02:59:47			0	36003	0	0	0	29418	28010	168933	26753	1060598	45359	110941	0	0	7994	620899	0	0
2024-07-28 03:00:47			0	36006	0	0	0	29407	28010	168869	26824	1060580	45360	110937	0	0	7995	620773	0	0
2024-07-28 03:01:47			0	36015	0	0	0	29412	28000	168881	26934	1060634	45358	110939	0	0	7995	620431	0	0
2024-07-28 03:02:47			0	36019	0	0	0	29407	28010	168909	26906	1060598	45359	110937	0	0	7995	620227	0	0
2024-07-28 03:03:47			0	36010	0	0	0	29407	28000	168889	26975	1060589	45380	110937	0	0	7995	620641	0	0
2024-07-28 03:04:47			0	36000	0	0	0	29399	28000	168893	27062	1060589	45370	110934	0	0	7994	621061	0	0
2024-07-28 03:05:47			0	35999	0	0	0	29402	28010	168865	27090	1060526	45382	110935	0	0	7994	621067	0	0
2024-07-28 03:06:47			0	36034	0	0	0	29402	28000	169009	26866	1060589	45380	110935	0	0	7996	619634	0	0
2024-07-28 03:07:47			0	36036	0	0	0	29405	28000	168865	26965	1060562	45358	110936	0	0	7996	619550	0	0
2024-07-28 03:08:47			0	36048	0	0	0	29397	28010	168753	27081	1060499	45382	110933	0	0	7997	619011	0	0
2024-07-28 03:09:47			0	36024	0	0	0	29402	28000	168861	27026	1060535	45358	110935	0	0	7996	620053	0	0
2024-07-28 03:10:47			0	36019	0	0	0	29407	28000	168953	27208	1060527	45370	110937	0	0	7995	620263	0	0
2024-07-28 03:11:47			0	36007	0	0	0	29394	28000	168909	27206	1060473	45358	110932	0	0	7995	620767	0	0
2024-07-28 03:12:47			0	36019	0	0	0	29394	28000	168793	27100	1060535	45370	110932	0	0	7996	620263	0	0
2024-07-28 03:13:47			0	36045	0	0	0	29397	28010	168873	27102	1060598	45381	110933	0	0	7997	619137	0	0
2024-07-28 03:14:47			0	36022	0	0	0	29402	28000	168941	27092	1060527	45358	110935	0	0	7996	620137	0	0
2024-07-28 03:15:47			0	36029	0	0	0	29394	28000	168933	26994	1060562	45370	110932	0	0	7996	619843	0	0
2024-07-28 03:16:47			0	36011	0	0	0	29386	27990	168837	26788	1060455	45357	110929	0	0	7995	620635	0	0
2024-07-28 03:17:47			0	36027	0	0	0	29386	27990	168913	27060	1060482	45369	110929	0	0	7996	619963	0	0
2024-07-28 03:18:47			0	36029	0	0	0	29392	27990	168909	27050	1060545	45357	110931	0	0	7996	619879	0	0
2024-07-28 03:19:47			0	36023	0	0	0	29386	27990	168989	26982	1060482	45357	110929	0	0	7996	620131	0	0
2024-07-28 03:20:47			0	36025	0	0	0	29379	27980	168845	26880	1060473	45368	110926	0	0	7996	620083	0	0
2024-07-28 03:21:47			0	36027	0	0	0	29379	27990	168925	26811	1060482	45379	110926	0	0	7996	619963	0	0
2024-07-28 03:22:47			0	36015	0	0	0	29374	27980	169001	27218	1060500	45378	110924	0	0	7996	620503	0	0
2024-07-28 03:23:47			0	36026	0	0	0	29374	27990	168905	27196	1060455	45369	110924	0	0	7996	620005	0	0
2024-07-28 03:24:47			0	36027	0	0	0	29371	27980	168945	26974	1060419	45368	110923	0	0	7996	619999	0	0
2024-07-28 03:25:47			0	36016	0	0	0	29379	27990	168961	26913	1060455	45379	110926	0	0	7996	620425	0	0
2024-07-28 03:26:47			0	36036	0	0	0	29374	27980	168925	27031	1060437	45367	110924	0	0	7997	619621	0	0
2024-07-28 03:27:47			0	36020	0	0	0	29358	27980	168929	26873	1060419	45368	110918	0	0	7996	620293	0	0
2024-07-28 03:28:47			0	36018	0	0	0	29374	27980	168865	27092	1060365	45356	110924	0	0	7996	620377	0	0
2024-07-28 03:29:47			0	36032	0	0	0	29361	27970	168985	26854	1060392	45367	110919	0	0	7997	619825	0	0
2024-07-28 03:30:47			0	36036	0	0	0	29368	27970	168929	27128	1060419	45355	110922	0	0	7997	619657	0	0
2024-07-28 03:31:47			0	36035	0	0	0	29366	27980	168961	26812	1060410	45367	110921	0	0	7997	619663	0	0
2024-07-28 03:32:47			0	36053	0	0	0	29368	27960	168901	26942	1060383	45376	110922	0	0	7998	618980	0	0
2024-07-28 03:33:47			0	36078	0	0	0	29368	27960	168833	27130	1060356	45366	110922	0	0	7999	617932	0	0
2024-07-28 03:34:47			0	36066	0	0	0	29374	27970	168749	26837	1060365	45388	110924	0	0	7999	618399	0	0
2024-07-28 03:35:47			0	36081	0	0	0	29368	27970	168637	26694	1060419	45367	110922	0	0	8000	617771	0	0
2024-07-28 03:36:47			0	36116	0	0	0	29363	27960	168537	26941	1060347	45353	110920	0	0	8002	616342	0	0
2024-07-28 03:37:47			0	36120	0	0	0	29358	27960	168545	26923	1060383	45366	110918	0	0	8002	616175	0	0
2024-07-28 03:38:47			0	36143	0	0	0	29361	27960	168545	26890	1060410	45366	110919	0	0	8003	615215	0	0
2024-07-28 03:39:47			0	36134	0	0	0	29361	27970	168505	27135	1060365	45377	110919	0	0	8003	615555	0	0
2024-07-28 03:40:47			0	36158	0	0	0	29358	27960	168469	27027	1060410	45366	110918	0	0	8004	614589	0	0
2024-07-28 03:41:47			0	36152	0	0	0	29361	27960	168501	27249	1060356	45376	110919	0	0	8004	614839	0	0
2024-07-28 03:42:47			0	36193	0	0	0	29363	27960	168277	26863	1060374	45375	110920	0	0	8006	613130	0	0
2024-07-28 03:43:47			0	36173	0	0	0	29353	27960	168293	26852	1060347	45375	110916	0	0	8005	613963	0	0
2024-07-28 03:44:47			0	36215	0	0	0	29361	27960	168233	27076	1060374	45365	110919	0	0	8008	612214	0	0
2024-07-28 03:45:47			0	36202	0	0	0	29358	27960	168281	26996	1060303	45366	110918	0	0	8007	612755	0	0
2024-07-28 03:46:47			0	36220	0	0	0	29358	27960	168141	26856	1060347	45365	110918	0	0	8008	612006	0	0
2024-07-28 03:47:47			0	36223	0	0	0	29366	27960	168109	26677	1060294	45365	110921	0	0	8008	611882	0	0
2024-07-28 03:48:47			0	36243	0	0	0	29358	27960	168025	26844	1060374	45365	110918	0	0	8010	611050	0	0
2024-07-28 03:49:47			0	36238	0	0	0	29363	27940	168053	26781	1060321	45375	110920	0	0	8009	611329	0	0
2024-07-28 03:50:47			0	36251	0	0	0	29348	27950	167981	27052	1060339	45365	110914	0	0	8010	610753	0	0
2024-07-28 03:51:47			0	36258	0	0	0	29353	27960	167849	27013	1060321	45375	110916	0	0	8010	610427	0	0
2024-07-28 03:52:47			0	36269	0	0	0	29355	27950	167801	26738	1060357	45353	110917	0	0	8011	610006	0	0
2024-07-28 03:53:47			0	36271	0	0	0	29350	27950	167953	26870	1060276	45365	110915	0	0	8011	609923	0	0
2024-07-28 03:54:47			0	36267	0	0	0	29355	27950	167769	26849	1060312	45365	110917	0	0	8011	610089	0	0
2024-07-28 03:55:47			0	36293	0	0	0	29353	27950	167897	27149	1060312	45386	110916	0	0	8013	609011	0	0
2024-07-28 03:56:47			0	36294	0	0	0	29353	27950	167837	26935	1060285	45365	110916	0	0	8013	608969	0	0
2024-07-28 03:57:47			0	36305	0	0	0	29355	27950	167809	26785	1060357	45353	110917	0	0	8013	608513	0	0
2024-07-28 03:58:47			0	36296	0	0	0	29358	27940	167749	26868	1060321	45364	110918	0	0	8013	608922	0	0
2024-07-28 03:59:47			0	36300	0	0	0	29348	27950	167757	26696	1060365	45375	110914	0	0	8013	608721	0	0
2024-07-28 04:00:47			0	36313	0	0	0	29358	27940	167829	26885	1060321	45375	110918	0	0	8014	608217	0	0
2024-07-28 04:01:47			0	36298	0	0	0	29345	27950	167777	26812	1060285	45365	110913	0	0	8013	608804	0	0
2024-07-28 04:02:47			0	36283	0	0	0	29366	27950	167745	26928	1060303	45365	110921	0	0	8012	609425	0	0
2024-07-28 04:03:47			0	36299	0	0	0	29353	27950	167713	27031	1060357	45365	110916	0	0	8013	608762	0	0
2024-07-28 04:04:47			0	36301	0	0	0	29361	27950	167741	26899	1060276	45375	110919	0	0	8013	608679	0	0
2024-07-28 04:05:47			0	36296	0	0	0	29345	27950	167697	26892	1060312	45365	110913	0	0	8013	608886	0	0
2024-07-28 04:06:47			0	36267	0	0	0	29340	27950	167861	26934	1060330	45386	110911	0	0	8011	610089	0	0
2024-07-28 04:07:47			0	36270	0	0	0	29342	27940	167833	26634	1060294	45375	110912	0	0	8011	610000	0	0
2024-07-28 04:08:47			0	36282	0	0	0	29335	27940	167901	26476	1060267	45364	110909	0	0	8012	609502	0	0
2024-07-28 04:09:47			0	36282	0	0	0	29340	27950	167885	26706	1060276	45353	110911	0	0	8012	609467	0	0
2024-07-28 04:10:47			0	36266	0	0	0	29348	27940	167837	26674	1060267	45375	110914	0	0	8011	610166	0	0
2024-07-28 04:11:47			0	36287	0	0	0	29345	27940	167753	26587	1060240	45352	110913	0	0	8012	609295	0	0
2024-07-28 04:12:47			0	36278	0	0	0	29340	27930	167869	26663	1060276	45385	110911	0	0	8012	609703	0	0
2024-07-28 04:13:47			0	36285	0	0	0	29348	27950	167873	26821	1060249	45365	110914	0	0	8012	609342	0	0
2024-07-28 04:14:47			0	36296	0	0	0	29340	27940	167793	26656	1060258	45385	110911	0	0	8013	608922	0	0
2024-07-28 04:15:47			0	36294	0	0	0	29335	27930	167813	26609	1060240	45374	110909	0	0	8013	609040	0	0
2024-07-28 04:16:47			0	36308	0	0	0	29329	27940	167801	26731	1060285	45385	110907	0	0	8014	608424	0	0
2024-07-28 04:17:47			0	36293	0	0	0	29335	27930	167837	26543	1060213	45363	110909	0	0	8013	609081	0	0
2024-07-28 04:18:47			0	36337	0	0	0	29335	27940	167753	26993	1060204	45363	110909	0	0	8015	607224	0	0
2024-07-28 04:19:47			0	36322	0	0	0	29332	27940	167641	27045	1060258	45374	110908	0	0	8015	607845	0	0
2024-07-28 04:20:47			0	36342	0	0	0	29342	27930	167653	27012	1060249	45374	110912	0	0	8016	607052	0	0
2024-07-28 04:21:47			0	36346	0	0	0	29337	27930	167509	27052	1060240	45374	110910	0	0	8016	606887	0	0
2024-07-28 04:22:47			0	36362	0	0	0	29340	27930	167553	26951	1060213	45374	110911	0	0	8017	606225	0	0
2024-07-28 04:23:47			0	36377	0	0	0	29332	27930	167357	27277	1060213	45374	110908	0	0	8018	605606	0	0
2024-07-28 04:24:47			0	36389	0	0	0	29324	27930	167273	26873	1060249	45363	110905	0	0	8019	605111	0	0
2024-07-28 04:25:47			0	36412	0	0	0	29327	27930	167093	26861	1060168	45374	110906	0	0	8020	604162	0	0
2024-07-28 04:26:47			0	36422	0	0	0	29335	27930	167145	26790	1060195	45374	110909	0	0	8020	603750	0	0
2024-07-28 04:27:47			0	36430	0	0	0	29324	27920	167077	26639	1060231	45373	110905	0	0	8021	603455	0	0
2024-07-28 04:28:47			0	36429	0	0	0	29335	27930	167165	26424	1060222	45363	110909	0	0	8021	603462	0	0
2024-07-28 04:29:47			0	36451	0	0	0	29337	27920	167061	26823	1060231	45384	110910	0	0	8022	602591	0	0
2024-07-28 04:30:47			0	36445	0	0	0	29324	27930	167045	26970	1060240	45385	110905	0	0	8022	602803	0	0
2024-07-28 04:31:47			0	36455	0	0	0	29329	27930	166989	26798	1060195	45351	110907	0	0	8023	602391	0	0
2024-07-28 04:32:47			0	36469	0	0	0	29324	27920	166973	26793	1060231	45373	110905	0	0	8023	601850	0	0
2024-07-28 04:33:47			0	36459	0	0	0	29327	27930	167057	26800	1060213	45374	110906	0	0	8023	602227	0	0
2024-07-28 04:34:47			0	36469	0	0	0	29311	27920	167025	26916	1060177	45362	110900	0	0	8024	601850	0	0
2024-07-28 04:35:47			0	36455	0	0	0	29329	27920	166997	26764	1060142	45361	110907	0	0	8022	602426	0	0
2024-07-28 04:36:47			0	36476	0	0	0	29316	27920	167073	26795	1060195	45361	110902	0	0	8024	601563	0	0
2024-07-28 04:37:47			0	36457	0	0	0	29322	27920	167017	26696	1060195	45361	110904	0	0	8023	602344	0	0
2024-07-28 04:38:47			0	36472	0	0	0	29324	27910	167061	27022	1060186	45360	110905	0	0	8024	601762	0	0
2024-07-28 04:39:47			0	36477	0	0	0	29319	27920	167109	26870	1060142	45372	110903	0	0	8024	601522	0	0
2024-07-28 04:40:47			0	36478	0	0	0	29329	27910	167021	26930	1060213	45371	110907	0	0	8024	601515	0	0
2024-07-28 04:41:47			0	36483	0	0	0	29314	27920	167045	26930	1060168	45361	110901	0	0	8024	601275	0	0
2024-07-28 04:42:47			0	36479	0	0	0	29316	27920	166945	26708	1060142	45372	110902	0	0	8024	601439	0	0
2024-07-28 04:43:47			0	36492	0	0	0	29311	27920	166953	26960	1060168	45372	110900	0	0	8025	600905	0	0
2024-07-28 04:44:47			0	36500	0	0	0	29311	27920	166949	26915	1060142	45361	110900	0	0	8025	600577	0	0
2024-07-28 04:45:47			0	36480	0	0	0	29306	27910	167017	26817	1060151	45371	110898	0	0	8024	601433	0	0
2024-07-28 04:46:47			0	36468	0	0	0	29306	27910	167061	26918	1060160	45371	110898	0	0	8024	601926	0	0
2024-07-28 04:47:47			0	36473	0	0	0	29303	27900	167017	26948	1060114	45360	110897	0	0	8024	601755	0	0
2024-07-28 04:48:47			0	36454	0	0	0	29311	27910	167009	26628	1060097	45371	110900	0	0	8023	602502	0	0
2024-07-28 04:49:47			0	36434	0	0	0	29303	27910	167085	26648	1060160	45360	110897	0	0	8022	603325	0	0
2024-07-28 04:50:47			0	36433	0	0	0	29311	27910	167273	26703	1060097	45371	110900	0	0	8021	603366	0	0
2024-07-28 04:51:47			0	36432	0	0	0	29311	27900	167201	26779	1060114	45371	110900	0	0	8021	603442	0	0
2024-07-28 04:52:47			0	36438	0	0	0	29311	27900	167269	26675	1060052	45359	110900	0	0	8022	603195	0	0
2024-07-28 04:53:47			0	36438	0	0	0	29306	27910	167345	26840	1060097	45371	110898	0	0	8022	603160	0	0
2024-07-28 04:54:47			0	36429	0	0	0	29306	27910	167253	26509	1060133	45371	110898	0	0	8021	603531	0	0
2024-07-28 04:55:47			0	36437	0	0	0	29301	27910	167125	26866	1060124	45348	110896	0	0	8022	603202	0	0
2024-07-28 04:56:47			0	36443	0	0	0	29301	27900	167165	26627	1060061	45371	110896	0	0	8022	602989	0	0
2024-07-28 04:57:47			0	36438	0	0	0	29293	27890	167137	26748	1060070	45346	110893	0	0	8022	603230	0	0
2024-07-28 04:58:47			0	36433	0	0	0	29296	27900	167213	26708	1060061	45371	110894	0	0	8022	603401	0	0
2024-07-28 04:59:47			0	36414	0	0	0	29288	27890	167221	26974	1060043	45346	110891	0	0	8021	604219	0	0
2024-07-28 05:00:47			0	36397	0	0	0	29280	27880	167377	27010	1060052	45358	110888	0	0	8020	604955	0	0
2024-07-28 05:01:47			0	36383	0	0	0	29290	27890	167313	26830	1060043	45358	110892	0	0	8019	605498	0	0
2024-07-28 05:02:47			0	36381	0	0	0	29290	27890	167437	26909	1060016	45358	110892	0	0	8019	605580	0	0
2024-07-28 05:03:47			0	36356	0	0	0	29277	27890	167485	26689	1059962	45358	110887	0	0	8017	606613	0	0
2024-07-28 05:04:47			0	36336	0	0	0	29275	27890	167573	26590	1060016	45369	110886	0	0	8016	607440	0	0
2024-07-28 05:05:47			0	36327	0	0	0	29280	27890	167525	26890	1060016	45369	110888	0	0	8016	607813	0	0
2024-07-28 05:06:47			0	36325	0	0	0	29275	27890	167669	26791	1059980	45369	110886	0	0	8015	607896	0	0
2024-07-28 05:07:47			0	36298	0	0	0	29288	27890	167809	26537	1060007	45358	110891	0	0	8014	609014	0	0
2024-07-28 05:08:47			0	36295	0	0	0	29283	27890	167849	26632	1060007	45358	110889	0	0	8014	609139	0	0
2024-07-28 05:09:47			0	36287	0	0	0	29288	27890	167909	26693	1060043	45346	110891	0	0	8013	609470	0	0
2024-07-28 05:10:47			0	36297	0	0	0	29283	27890	167877	26771	1060043	45369	110889	0	0	8014	609056	0	0
2024-07-28 05:11:47			0	36274	0	0	0	29280	27880	167897	27029	1059971	45369	110888	0	0	8012	610045	0	0
2024-07-28 05:12:47			0	36268	0	0	0	29283	27880	167865	26512	1060025	45358	110889	0	0	8012	610294	0	0
2024-07-28 05:13:47			0	36259	0	0	0	29283	27880	167969	27059	1059971	45369	110889	0	0	8011	610668	0	0
2024-07-28 05:14:47			0	36278	0	0	0	29272	27880	167877	26838	1059944	45358	110885	0	0	8013	609879	0	0
2024-07-28 05:15:47			0	36259	0	0	0	29275	27880	167965	26785	1059998	45369	110886	0	0	8011	610668	0	0
2024-07-28 05:16:47			0	36260	0	0	0	29275	27880	168033	26928	1059944	45369	110886	0	0	8012	610626	0	0
2024-07-28 05:17:47			0	36254	0	0	0	29270	27870	168037	26911	1059953	45378	110884	0	0	8011	610910	0	0
2024-07-28 05:18:47			0	36230	0	0	0	29272	27870	167925	26715	1059980	45367	110885	0	0	8010	611908	0	0
2024-07-28 05:19:47			0	36231	0	0	0	29262	27870	168149	26665	1059899	45367	110881	0	0	8010	611866	0	0
2024-07-28 05:20:47			0	36217	0	0	0	29270	27870	168065	26953	1059899	45367	110884	0	0	8009	612449	0	0
2024-07-28 05:21:47			0	36224	0	0	0	29262	27870	168097	26875	1059980	45367	110881	0	0	8010	612158	0	0
2024-07-28 05:22:47			0	36236	0	0	0	29264	27870	168085	26765	1059917	45356	110882	0	0	8010	611659	0	0
2024-07-28 05:23:47			0	36219	0	0	0	29262	27870	168069	26708	1059846	45367	110881	0	0	8009	612366	0	0
2024-07-28 05:24:47			0	36213	0	0	0	29254	27870	168105	26576	1059917	45378	110878	0	0	8009	612615	0	0
2024-07-28 05:25:47			0	36220	0	0	0	29262	27870	168185	26641	1059917	45367	110881	0	0	8009	612324	0	0
2024-07-28 05:26:47			0	36220	0	0	0	29251	27860	168281	26805	1059935	45356	110877	0	0	8009	612359	0	0
2024-07-28 05:27:47			0	36207	0	0	0	29254	27860	168301	26687	1059900	45366	110878	0	0	8009	612900	0	0
2024-07-28 05:28:47			0	36203	0	0	0	29254	27860	168185	27019	1059828	45344	110878	0	0	8008	613067	0	0
2024-07-28 05:29:47			0	36212	0	0	0	29251	27860	168205	26727	1059882	45356	110877	0	0	8009	612692	0	0
2024-07-28 05:30:47			0	36198	0	0	0	29244	27860	168109	26672	1059828	45367	110874	0	0	8008	613275	0	0
2024-07-28 05:31:47			0	36187	0	0	0	29249	27860	168229	26807	1059900	45366	110876	0	0	8007	613734	0	0
2024-07-28 05:32:47			0	36201	0	0	0	29246	27860	168181	26611	1059909	45367	110875	0	0	8008	613150	0	0
2024-07-28 05:33:47			0	36197	0	0	0	29246	27860	168241	26845	1059828	45367	110875	0	0	8008	613317	0	0
2024-07-28 05:34:47			0	36196	0	0	0	29254	27860	168265	26602	1059846	45355	110878	0	0	8008	613359	0	0
2024-07-28 05:35:47			0	36190	0	0	0	29249	27860	168125	26736	1059900	45366	110876	0	0	8008	613609	0	0
2024-07-28 05:36:47			0	36193	0	0	0	29244	27850	168297	26847	1059864	45365	110874	0	0	8008	613519	0	0
2024-07-28 05:37:47			0	36185	0	0	0	29257	27850	168301	26538	1059864	45365	110879	0	0	8007	613852	0	0
2024-07-28 05:38:47			0	36182	0	0	0	29257	27860	168389	26497	1059873	45355	110879	0	0	8007	613942	0	0
2024-07-28 05:39:47			0	36193	0	0	0	29246	27850	168297	26927	1059891	45365	110875	0	0	8008	613519	0	0
2024-07-28 05:40:47			0	36178	0	0	0	29238	27850	168281	26519	1059837	45342	110872	0	0	8007	614144	0	0
2024-07-28 05:41:47			0	36191	0	0	0	29241	27860	168301	26739	1059846	45366	110873	0	0	8008	613567	0	0
2024-07-28 05:42:47			0	36191	0	0	0	29246	27850	168345	26566	1059828	45364	110875	0	0	8008	613602	0	0
2024-07-28 05:43:47			0	36185	0	0	0	29254	27850	168305	26691	1059855	45353	110878	0	0	8007	613852	0	0
2024-07-28 05:44:47			0	36209	0	0	0	29246	27850	168237	26649	1059864	45365	110875	0	0	8009	612853	0	0
2024-07-28 05:45:47			0	36212	0	0	0	29244	27840	168369	26906	1059846	45364	110874	0	0	8009	612763	0	0
2024-07-28 05:46:47			0	36206	0	0	0	29236	27850	168321	26672	1059855	45353	110871	0	0	8009	612977	0	0
2024-07-28 05:47:47			0	36186	0	0	0	29233	27830	168293	26951	1059828	45375	110870	0	0	8008	613881	0	0
2024-07-28 05:48:47			0	36181	0	0	0	29228	27850	168357	26817	1059810	45365	110868	0	0	8007	614019	0	0
2024-07-28 05:49:47			0	36172	0	0	0	29233	27840	168381	26942	1059819	45364	110870	0	0	8007	614430	0	0
2024-07-28 05:50:47			0	36184	0	0	0	29223	27850	168477	26630	1059801	45364	110866	0	0	8008	613894	0	0
2024-07-28 05:51:47			0	36155	0	0	0	29228	27840	168497	27166	1059765	45364	110868	0	0	8006	615139	0	0
2024-07-28 05:52:47			0	36150	0	0	0	29225	27840	168505	27022	1059783	45364	110867	0	0	8006	615348	0	0
2024-07-28 05:53:47			0	36161	0	0	0	29233	27840	168485	26835	1059783	45353	110870	0	0	8006	614889	0	0
2024-07-28 05:54:47			0	36142	0	0	0	29223	27830	168449	26847	1059774	45352	110866	0	0	8005	615718	0	0
2024-07-28 05:55:47			0	36139	0	0	0	29220	27840	168477	26913	1059783	45364	110865	0	0	8005	615808	0	0
2024-07-28 05:56:47			0	36133	0	0	0	29220	27840	168513	26674	1059756	45364	110865	0	0	8005	616058	0	0
2024-07-28 05:57:47			0	36148	0	0	0	29223	27840	168529	26955	1059783	45364	110866	0	0	8005	615432	0	0
2024-07-28 05:58:47			0	36109	0	0	0	29223	27830	168617	26679	1059712	45351	110866	0	0	8003	617097	0	0
2024-07-28 05:59:47			0	36115	0	0	0	29215	27830	168633	26724	1059747	45352	110863	0	0	8004	616846	0	0
2024-07-28 06:00:47			0	36098	0	0	0	29228	27830	168733	26958	1059828	45375	110868	0	0	8002	617558	0	0
2024-07-28 06:01:47			0	36095	0	0	0	29228	27830	168829	26845	1059765	45340	110868	0	0	8002	617683	0	0
2024-07-28 06:02:47			0	36087	0	0	0	29210	27830	168761	26706	1059747	45363	110861	0	0	8002	618018	0	0
2024-07-28 06:03:47			0	36067	0	0	0	29212	27830	168869	26765	1059658	45362	110862	0	0	8001	618856	0	0
2024-07-28 06:04:47			0	36068	0	0	0	29205	27810	168941	27019	1059712	45339	110859	0	0	8001	618886	0	0
2024-07-28 06:05:47			0	36065	0	0	0	29212	27820	168929	26788	1059667	45351	110862	0	0	8001	618976	0	0
2024-07-28 06:06:47			0	36050	0	0	0	29207	27820	169013	27083	1059730	45362	110860	0	0	8000	619605	0	0
2024-07-28 06:07:47			0	36049	0	0	0	29212	27820	168937	26939	1059694	45351	110862	0	0	8000	619647	0	0
2024-07-28 06:08:47			0	36040	0	0	0	29199	27810	169021	26996	1059631	45361	110857	0	0	7999	620061	0	0
2024-07-28 06:09:47			0	36031	0	0	0	29199	27820	169061	27142	1059667	45374	110857	0	0	7999	620403	0	0
2024-07-28 06:10:47			0	36019	0	0	0	29192	27810	169069	27031	1059595	45349	110854	0	0	7998	620943	0	0
2024-07-28 06:11:47			0	36038	0	0	0	29212	27810	169081	26448	1059649	45360	110862	0	0	7999	620145	0	0
2024-07-28 06:12:47			0	36007	0	0	0	29210	27810	169029	26738	1059577	45350	110861	0	0	7997	621447	0	0
2024-07-28 06:13:47			0	36011	0	0	0	29210	27810	169061	27005	1059685	45373	110861	0	0	7997	621279	0	0
2024-07-28 06:14:47			0	36021	0	0	0	29220	27810	169049	26939	1059658	45373	110865	0	0	7998	620859	0	0
2024-07-28 06:15:47			0	36021	0	0	0	29197	27810	168997	26783	1059658	45373	110856	0	0	7998	620859	0	0
2024-07-28 06:16:47			0	36022	0	0	0	29218	27810	169057	26698	1059676	45360	110864	0	0	7998	620817	0	0
2024-07-28 06:17:47			0	36025	0	0	0	29218	27810	169065	26835	1059685	45361	110864	0	0	7998	620691	0	0
2024-07-28 06:18:47			0	36042	0	0	0	29205	27810	168937	26623	1059712	45373	110859	0	0	7999	619977	0	0
2024-07-28 06:19:47			0	36034	0	0	0	29207	27810	169009	27046	1059622	45360	110860	0	0	7999	620313	0	0
2024-07-28 06:20:47			0	36039	0	0	0	29199	27810	168989	26896	1059649	45360	110857	0	0	7999	620103	0	0
2024-07-28 06:21:47			0	36038	0	0	0	29205	27810	168985	27130	1059676	45372	110859	0	0	7999	620145	0	0
2024-07-28 06:22:47			0	36033	0	0	0	29202	27810	168941	26752	1059676	45360	110858	0	0	7999	620355	0	0
2024-07-28 06:23:47			0	36026	0	0	0	29202	27820	168949	26809	1059667	45374	110858	0	0	7998	620613	0	0
2024-07-28 06:24:47			0	36035	0	0	0	29194	27810	169041	26583	1059649	45349	110855	0	0	7999	620271	0	0
2024-07-28 06:25:47			0	36010	0	0	0	29202	27820	169045	26722	1059613	45362	110858	0	0	7997	621286	0	0
2024-07-28 06:26:47			0	36030	0	0	0	29197	27800	169017	26634	1059694	45360	110856	0	0	7999	620517	0	0
2024-07-28 06:27:47			0	36030	0	0	0	29186	27800	169093	26746	1059640	45360	110852	0	0	7999	620517	0	0
2024-07-28 06:28:47			0	36025	0	0	0	29194	27810	169061	26864	1059595	45360	110855	0	0	7998	620691	0	0
2024-07-28 06:29:47			0	36018	0	0	0	29186	27800	169009	26932	1059613	45360	110852	0	0	7998	621021	0	0
2024-07-28 06:30:47			0	36028	0	0	0	29192	27810	168945	26826	1059622	45360	110854	0	0	7999	620565	0	0
2024-07-28 06:31:47			0	36027	0	0	0	29184	27800	169065	26670	1059613	45360	110851	0	0	7999	620643	0	0
2024-07-28 06:32:47			0	36011	0	0	0	29194	27800	169021	26963	1059640	45349	110855	0	0	7998	621315	0	0
2024-07-28 06:33:47			0	36024	0	0	0	29173	27790	169037	26840	1059568	45381	110847	0	0	7999	620804	0	0
2024-07-28 06:34:47			0	36028	0	0	0	29179	27800	169081	26892	1059559	45372	110849	0	0	7999	620600	0	0
2024-07-28 06:35:47			0	36033	0	0	0	29173	27790	169037	26840	1059577	45338	110847	0	0	7999	620426	0	0
2024-07-28 06:36:47			0	36037	0	0	0	29176	27790	168989	26955	1059541	45371	110848	0	0	7999	620258	0	0
2024-07-28 06:37:47			0	36026	0	0	0	29176	27790	169089	26752	1059604	45360	110848	0	0	7999	620720	0	0
2024-07-28 06:38:47			0	36028	0	0	0	29176	27780	168965	26658	1059550	45369	110848	0	0	7999	620672	0	0
2024-07-28 06:39:47			0	36024	0	0	0	29171	27770	169133	26772	1059514	45357	110846	0	0	7999	620876	0	0
2024-07-28 06:40:47			0	36028	0	0	0	29171	27780	169057	26845	1059496	45346	110846	0	0	7999	620672	0	0
2024-07-28 06:41:47			0	36038	0	0	0	29173	27780	169085	26691	1059577	45357	110847	0	0	7999	620252	0	0
2024-07-28 06:42:47			0	36011	0	0	0	29168	27780	169157	26892	1059577	45346	110845	0	0	7998	621386	0	0
2024-07-28 06:43:47			0	36023	0	0	0	29173	27770	169121	26675	1059541	45357	110847	0	0	7998	620918	0	0
2024-07-28 06:44:47			0	36027	0	0	0	29179	27770	168945	26885	1059541	45357	110849	0	0	7999	620750	0	0
2024-07-28 06:45:47			0	36044	0	0	0	29184	27770	169045	26757	1059541	45357	110851	0	0	8000	620036	0	0
2024-07-28 06:46:47			0	36046	0	0	0	29184	27780	168993	26661	1059523	45357	110851	0	0	8000	619916	0	0
2024-07-28 06:47:47			0	36044	0	0	0	29181	27780	169097	26811	1059533	45347	110850	0	0	8000	620000	0	0
2024-07-28 06:48:47			0	36059	0	0	0	29176	27770	168905	26930	1059532	45357	110848	0	0	8001	619406	0	0
2024-07-28 06:49:47			0	36073	0	0	0	29181	27780	168965	26795	1059577	45357	110850	0	0	8001	618783	0	0
2024-07-28 06:50:47			0	36078	0	0	0	29181	27770	168737	26772	1059514	45369	110850	0	0	8002	618609	0	0
2024-07-28 06:51:47			0	36084	0	0	0	29179	27770	168813	26857	1059541	45369	110849	0	0	8002	618358	0	0
2024-07-28 06:52:47			0	36108	0	0	0	29168	27780	168677	26830	1059523	45357	110845	0	0	8004	617317	0	0
2024-07-28 06:53:47			0	36121	0	0	0	29161	27770	168621	26994	1059479	45369	110842	0	0	8005	616809	0	0
2024-07-28 06:54:47			0	36128	0	0	0	29161	27770	168657	26932	1059487	45357	110842	0	0	8005	616516	0	0
2024-07-28 06:55:47			0	36143	0	0	0	29161	27770	168537	26478	1059505	45357	110842	0	0	8006	615889	0	0
2024-07-28 06:56:47			0	36151	0	0	0	29161	27780	168577	26783	1059469	45357	110842	0	0	8006	615519	0	0
2024-07-28 06:57:47			0	36153	0	0	0	29166	27760	168517	26817	1059389	45368	110844	0	0	8006	615506	0	0
2024-07-28 06:58:47			0	36172	0	0	0	29166	27770	168341	26856	1059434	45369	110844	0	0	8008	614678	0	0
2024-07-28 06:59:47			0	36203	0	0	0	29161	27760	168421	26715	1059461	45344	110842	0	0	8009	613420	0	0
2024-07-28 07:00:47			0	36208	0	0	0	29166	27770	168257	26474	1059479	45357	110844	0	0	8010	613177	0	0
2024-07-28 07:01:47			0	36226	0	0	0	29179	27760	168125	26731	1059497	45357	110849	0	0	8011	612462	0	0
2024-07-28 07:02:47			0	36253	0	0	0	29163	27770	168085	26680	1059479	45357	110843	0	0	8012	611304	0	0
2024-07-28 07:03:47			0	36281	0	0	0	29173	27770	167953	26868	1059505	45357	110847	0	0	8014	610141	0	0
2024-07-28 07:04:47			0	36320	0	0	0	29173	27770	167865	26566	1059532	45369	110847	0	0	8016	608523	0	0
2024-07-28 07:05:47			0	36319	0	0	0	29163	27760	167657	26866	1059550	45357	110843	0	0	8016	608600	0	0
2024-07-28 07:06:47			0	36361	0	0	0	29163	27770	167605	26908	1059434	45357	110843	0	0	8019	606826	0	0
2024-07-28 07:07:47			0	36362	0	0	0	29163	27760	167617	26686	1059470	45357	110843	0	0	8019	606820	0	0
2024-07-28 07:08:47			0	36364	0	0	0	29166	27760	167601	26722	1059497	45345	110844	0	0	8019	606737	0	0
2024-07-28 07:09:47			0	36359	0	0	0	29173	27770	167589	26968	1059505	45346	110847	0	0	8019	606909	0	0
2024-07-28 07:10:47			0	36347	0	0	0	29189	27770	167537	26949	1059532	45357	110853	0	0	8018	607405	0	0
2024-07-28 07:11:47			0	36342	0	0	0	29199	27770	167613	26526	1059559	45357	110857	0	0	8017	607612	0	0
2024-07-28 07:12:47			0	36366	0	0	0	29189	27770	167557	26856	1059541	45357	110853	0	0	8019	606619	0	0
2024-07-28 07:13:47			0	36371	0	0	0	29189	27770	167497	27140	1059559	45369	110853	0	0	8019	606413	0	0
2024-07-28 07:14:47			0	36388	0	0	0	29186	27780	167469	27052	1059577	45369	110852	0	0	8020	605675	0	0
2024-07-28 07:15:47			0	36411	0	0	0	29197	27780	167385	26956	1059586	45370	110856	0	0	8021	604726	0	0
2024-07-28 07:16:47			0	36423	0	0	0	29197	27780	167245	26906	1059613	45370	110856	0	0	8022	604231	0	0
2024-07-28 07:17:47			0	36430	0	0	0	29197	27790	167169	26646	1059595	45359	110856	0	0	8023	603907	0	0
2024-07-28 07:18:47			0	36413	0	0	0	29197	27780	167293	27190	1059658	45369	110856	0	0	8021	604643	0	0
2024-07-28 07:19:47			0	36382	0	0	0	29205	27790	167393	27069	1059595	45359	110859	0	0	8020	605888	0	0
2024-07-28 07:20:47			0	36374	0	0	0	29194	27790	167549	26674	1059676	45348	110855	0	0	8019	606219	0	0
2024-07-28 07:21:47			0	36349	0	0	0	29199	27790	167361	26875	1059622	45371	110857	0	0	8018	607253	0	0
2024-07-28 07:22:47			0	36327	0	0	0	29192	27790	167565	27118	1059649	45371	110854	0	0	8016	608163	0	0
2024-07-28 07:23:47			0	36338	0	0	0	29197	27790	167657	27003	1059685	45360	110856	0	0	8017	607708	0	0
2024-07-28 07:24:47			0	36327	0	0	0	29199	27790	167633	26876	1059685	45360	110857	0	0	8016	608163	0	0
2024-07-28 07:25:47			0	36305	0	0	0	29205	27790	167753	26672	1059712	45349	110859	0	0	8015	609075	0	0
2024-07-28 07:26:47			0	36317	0	0	0	29205	27790	167665	27436	1059685	45372	110859	0	0	8016	608577	0	0
2024-07-28 07:27:47			0	36326	0	0	0	29210	27810	167573	27013	1059703	45360	110861	0	0	8016	608135	0	0
2024-07-28 07:28:47			0	36370	0	0	0	29205	27800	167413	26883	1059667	45360	110859	0	0	8019	606349	0	0
2024-07-28 07:29:47			0	36392	0	0	0	29212	27790	167333	27046	1059595	45371	110862	0	0	8020	605475	0	0
2024-07-28 07:30:47			0	36405	0	0	0	29207	27810	167193	26934	1059703	45372	110860	0	0	8021	604869	0	0
2024-07-28 07:31:47			0	36419	0	0	0	29202	27800	167077	26753	1059721	45372	110858	0	0	8022	604326	0	0
2024-07-28 07:32:47			0	36446	0	0	0	29210	27800	167173	26896	1059667	45372	110861	0	0	8023	603213	0	0
2024-07-28 07:33:47			0	36459	0	0	0	29207	27820	167053	26733	1059721	45374	110860	0	0	8024	602609	0	0
2024-07-28 07:34:47			0	36487	0	0	0	29215	27810	166861	26816	1059739	45373	110863	0	0	8026	601492	0	0
2024-07-28 07:35:47			0	36493	0	0	0	29210	27800	166945	26953	1059667	45360	110861	0	0	8026	601280	0	0
2024-07-28 07:36:47			0	36496	0	0	0	29212	27810	166905	27315	1059766	45373	110862	0	0	8026	601122	0	0
2024-07-28 07:37:47			0	36457	0	0	0	29215	27810	166945	26982	1059766	45373	110863	0	0	8024	602726	0	0
2024-07-28 07:38:47			0	36452	0	0	0	29218	27820	167093	26894	1059748	45374	110864	0	0	8024	602897	0	0
2024-07-28 07:39:47			0	36441	0	0	0	29215	27820	167073	27208	1059721	45362	110863	0	0	8023	603350	0	0
2024-07-28 07:40:47			0	36396	0	0	0	29215	27810	167109	27074	1059766	45383	110863	0	0	8020	605240	0	0
2024-07-28 07:41:47			0	36404	0	0	0	29220	27820	167289	27022	1059801	45362	110865	0	0	8021	604875	0	0
2024-07-28 07:42:47			0	36401	0	0	0	29220	27820	167241	26878	1059748	45374	110865	0	0	8021	604999	0	0
2024-07-28 07:43:47			0	36387	0	0	0	29220	27820	167309	26977	1059756	45362	110865	0	0	8020	605577	0	0
2024-07-28 07:44:47			0	36368	0	0	0	29228	27820	167421	26953	1059783	45374	110868	0	0	8018	606362	0	0
2024-07-28 07:45:47			0	36368	0	0	0	29231	27830	167377	27182	1059819	45362	110869	0	0	8018	606327	0	0
2024-07-28 07:46:47			0	36348	0	0	0	29228	27820	167497	27144	1059783	45362	110868	0	0	8017	607189	0	0
2024-07-28 07:47:47			0	36324	0	0	0	29233	27820	167605	27274	1059783	45362	110870	0	0	8016	608182	0	0
2024-07-28 07:48:47			0	36315	0	0	0	29236	27840	167601	27086	1059819	45353	110871	0	0	8015	608485	0	0
2024-07-28 07:49:47			0	36317	0	0	0	29241	27820	167709	27357	1059810	45374	110873	0	0	8015	608472	0	0
2024-07-28 07:50:47			0	36311	0	0	0	29231	27830	167741	27279	1059792	45362	110869	0	0	8015	608686	0	0
2024-07-28 07:51:47			0	36316	0	0	0	29236	27830	167545	27180	1059828	45375	110871	0	0	8015	608479	0	0
2024-07-28 07:52:47			0	36334	0	0	0	29246	27830	167473	27357	1059855	45385	110875	0	0	8016	607733	0	0
2024-07-28 07:53:47			0	36338	0	0	0	29246	27840	167465	27258	1059864	45364	110875	0	0	8016	607533	0	0
2024-07-28 07:54:47			0	36373	0	0	0	29249	27840	167449	27071	1059873	45375	110876	0	0	8019	606085	0	0
2024-07-28 07:55:47			0	36382	0	0	0	29241	27840	167489	27038	1059864	45364	110873	0	0	8019	605714	0	0
2024-07-28 07:56:47			0	36384	0	0	0	29238	27840	167337	27287	1059891	45375	110872	0	0	8019	605631	0	0
2024-07-28 07:57:47			0	36418	0	0	0	29238	27850	167233	27010	1059855	45353	110872	0	0	8021	604193	0	0
2024-07-28 07:58:47			0	36412	0	0	0	29244	27850	167205	26993	1059936	45364	110874	0	0	8021	604441	0	0
2024-07-28 07:59:47			0	36431	0	0	0	29238	27850	167113	27241	1059882	45364	110872	0	0	8022	603658	0	0
2024-07-28 08:00:47			0	36439	0	0	0	29236	27850	167129	27350	1059828	45364	110871	0	0	8023	603328	0	0
2024-07-28 08:01:47			0	36440	0	0	0	29238	27840	167077	27246	1059864	45364	110872	0	0	8023	603322	0	0
2024-07-28 08:02:47			0	36440	0	0	0	29251	27850	167089	27218	1059918	45365	110877	0	0	8023	603287	0	0
2024-07-28 08:03:47			0	36427	0	0	0	29244	27850	167201	26991	1059945	45354	110874	0	0	8022	603822	0	0
2024-07-28 08:04:47			0	36399	0	0	0	29251	27840	167333	27244	1059900	45364	110877	0	0	8020	605012	0	0
2024-07-28 08:05:47			0	36386	0	0	0	29244	27860	167389	27249	1059900	45366	110874	0	0	8019	605479	0	0
2024-07-28 08:06:47			0	36370	0	0	0	29254	27850	167489	26904	1059945	45376	110878	0	0	8018	606174	0	0
2024-07-28 08:07:47			0	36342	0	0	0	29241	27840	167445	27332	1059927	45364	110873	0	0	8017	607367	0	0
2024-07-28 08:08:47			0	36306	0	0	0	29233	27840	167605	27222	1059873	45364	110870	0	0	8015	608858	0	0
2024-07-28 08:09:47			0	36295	0	0	0	29241	27850	167761	27400	1059945	45354	110873	0	0	8014	609279	0	0
2024-07-28 08:10:47			0	36270	0	0	0	29241	27850	167789	27277	1059936	45364	110873	0	0	8013	610316	0	0
2024-07-28 08:11:47			0	36263	0	0	0	29251	27850	167817	27066	1059909	45364	110877	0	0	8012	610607	0	0
2024-07-28 08:12:47			0	36259	0	0	0	29254	27860	167941	26994	1059953	45366	110878	0	0	8012	610738	0	0
2024-07-28 08:13:47			0	36258	0	0	0	29246	27850	167857	27067	1059963	45375	110875	0	0	8012	610815	0	0
2024-07-28 08:14:47			0	36261	0	0	0	29254	27850	167821	27206	1059963	45364	110878	0	0	8012	610690	0	0
2024-07-28 08:15:47			0	36277	0	0	0	29262	27860	167857	27208	1059926	45366	110881	0	0	8013	609991	0	0
2024-07-28 08:16:47			0	36273	0	0	0	29249	27850	167889	27296	1059918	45376	110876	0	0	8013	610192	0	0
2024-07-28 08:17:47			0	36291	0	0	0	29257	27850	167881	27072	1059918	45365	110879	0	0	8014	609445	0	0
2024-07-28 08:18:47			0	36285	0	0	0	29249	27860	167821	27092	1059926	45377	110876	0	0	8013	609659	0	0
2024-07-28 08:19:47			0	36299	0	0	0	29238	27870	167773	27455	1059944	45356	110872	0	0	8014	609043	0	0
2024-07-28 08:20:47			0	36277	0	0	0	29244	27850	167905	27015	1059918	45354	110874	0	0	8013	610026	0	0
2024-07-28 08:21:47			0	36280	0	0	0	29249	27860	167849	27296	1059900	45355	110876	0	0	8013	609866	0	0
2024-07-28 08:22:47			0	36259	0	0	0	29236	27850	167949	27310	1059855	45375	110871	0	0	8012	610773	0	0
2024-07-28 08:23:47			0	36255	0	0	0	29246	27850	167813	27182	1059855	45364	110875	0	0	8012	610939	0	0
2024-07-28 08:24:47			0	36265	0	0	0	29238	27850	167893	27150	1059909	45353	110872	0	0	8012	610524	0	0
2024-07-28 08:25:47			0	36243	0	0	0	29244	27850	167981	27255	1059936	45375	110874	0	0	8011	611438	0	0
2024-07-28 08:26:47			0	36253	0	0	0	29251	27840	167997	27111	1059873	45375	110877	0	0	8011	611058	0	0
2024-07-28 08:27:47			0	36258	0	0	0	29238	27850	168013	26897	1059855	45375	110872	0	0	8012	610815	0	0
2024-07-28 08:28:47			0	36227	0	0	0	29246	27850	168053	27202	1059971	45376	110875	0	0	8010	612103	0	0
2024-07-28 08:29:47			0	36228	0	0	0	29246	27840	167993	27147	1059900	45375	110875	0	0	8010	612097	0	0
2024-07-28 08:30:47			0	36237	0	0	0	29251	27840	168157	27052	1059927	45364	110877	0	0	8010	611723	0	0
2024-07-28 08:31:47			0	36236	0	0	0	29251	27850	168033	26949	1059936	45364	110877	0	0	8010	611729	0	0
2024-07-28 08:32:47			0	36244	0	0	0	29251	27850	168029	26996	1059864	45365	110877	0	0	8011	611396	0	0
2024-07-28 08:33:47			0	36253	0	0	0	29259	27850	167901	26994	1059945	45365	110880	0	0	8011	611022	0	0
2024-07-28 08:34:47			0	36301	0	0	0	29264	27850	167817	27102	1059971	45376	110882	0	0	8014	609030	0	0
2024-07-28 08:35:47			0	36293	0	0	0	29257	27850	167681	27033	1059971	45365	110879	0	0	8014	609362	0	0
2024-07-28 08:36:47			0	36335	0	0	0	29257	27860	167537	26991	1059980	45366	110879	0	0	8016	607587	0	0
2024-07-28 08:37:47			0	36326	0	0	0	29257	27850	167537	26896	1059891	45365	110879	0	0	8016	607994	0	0
2024-07-28 08:38:47			0	36319	0	0	0	29262	27860	167677	27024	1059926	45355	110881	0	0	8015	608249	0	0
2024-07-28 08:39:47			0	36300	0	0	0	29264	27850	167597	27177	1059945	45376	110882	0	0	8014	609072	0	0
2024-07-28 08:40:47			0	36308	0	0	0	29254	27850	167701	27303	1059945	45387	110878	0	0	8015	608740	0	0
2024-07-28 08:41:47			0	36302	0	0	0	29264	27850	167621	26850	1059971	45376	110882	0	0	8014	608989	0	0
2024-07-28 08:42:47			0	36317	0	0	0	29259	27850	167709	27085	1060025	45365	110880	0	0	8015	608367	0	0
2024-07-28 08:43:47			0	36303	0	0	0	29264	27850	167673	27088	1059971	45376	110882	0	0	8014	608947	0	0
2024-07-28 08:44:47			0	36312	0	0	0	29270	27860	167665	26956	1060016	45378	110884	0	0	8015	608539	0	0
2024-07-28 08:45:47			0	36313	0	0	0	29272	27860	167729	27069	1059962	45356	110885	0	0	8015	608498	0	0
2024-07-28 08:46:47			0	36322	0	0	0	29277	27860	167557	27079	1060016	45367	110887	0	0	8015	608125	0	0
2024-07-28 08:47:47			0	36343	0	0	0	29277	27860	167441	27204	1059980	45355	110887	0	0	8016	607256	0	0
2024-07-28 08:48:47			0	36364	0	0	0	29270	27870	167533	27098	1060079	45378	110884	0	0	8018	606353	0	0
2024-07-28 08:49:47			0	36365	0	0	0	29272	27870	167389	26868	1060052	45367	110885	0	0	8018	606311	0	0
2024-07-28 08:50:47			0	36395	0	0	0	29272	27870	167361	27098	1060025	45378	110885	0	0	8020	605072	0	0
2024-07-28 08:51:47			0	36408	0	0	0	29277	27860	167253	26949	1060043	45356	110887	0	0	8020	604571	0	0
2024-07-28 08:52:47			0	36404	0	0	0	29233	27870	167157	27164	1060052	45367	110870	0	0	8021	604701	0	0
2024-07-28 08:53:47			0	36372	0	0	0	29220	27860	167389	26696	1059953	45366	110865	0	0	8019	606057	0	0
2024-07-28 08:54:47			0	36312	0	0	0	29244	27850	167661	26937	1059891	45354	110874	0	0	8015	608574	0	0
2024-07-28 08:55:47			0	36280	0	0	0	29257	27860	167869	26897	1059980	45366	110879	0	0	8013	609866	0	0
2024-07-28 08:56:47			0	36244	0	0	0	29262	27860	168129	26875	1059953	45388	110881	0	0	8011	611361	0	0
2024-07-28 08:57:47			0	36217	0	0	0	29254	27850	168209	27050	1059989	45353	110878	0	0	8009	612520	0	0
2024-07-28 08:58:47			0	36182	0	0	0	29262	27860	168329	27078	1060007	45377	110881	0	0	8007	613942	0	0
2024-07-28 08:59:47			0	36146	0	0	0	29259	27850	168441	26890	1059971	45376	110880	0	0	8005	615480	0	0
2024-07-28 09:00:47			0	36136	0	0	0	29254	27860	168609	26654	1059962	45367	110878	0	0	8004	615862	0	0
2024-07-28 09:01:47			0	36100	0	0	0	29262	27860	168609	27041	1060043	45367	110881	0	0	8002	617367	0	0
2024-07-28 09:02:47			0	36090	0	0	0	29270	27860	168901	26821	1059953	45377	110884	0	0	8001	617786	0	0
2024-07-28 09:03:47			0	36060	0	0	0	29272	27860	168845	27029	1059989	45378	110885	0	0	7999	619043	0	0
2024-07-28 09:04:47			0	36041	0	0	0	29272	27860	168933	26797	1060043	45378	110885	0	0	7998	619840	0	0
2024-07-28 09:05:47			0	36040	0	0	0	29275	27860	168877	26987	1059989	45378	110886	0	0	7998	619882	0	0
2024-07-28 09:06:47			0	36038	0	0	0	29277	27860	168953	26786	1060043	45378	110887	0	0	7998	619966	0	0
2024-07-28 09:07:47			0	36054	0	0	0	29267	27870	168897	26807	1060079	45378	110883	0	0	7999	619259	0	0
2024-07-28 09:08:47			0	36050	0	0	0	29275	27870	168945	26850	1060079	45389	110886	0	0	7999	619427	0	0
2024-07-28 09:09:47			0	36040	0	0	0	29277	27870	168985	27078	1060052	45367	110887	0	0	7998	619846	0	0
2024-07-28 09:10:47			0	36069	0	0	0	29272	27870	168861	27055	1060052	45389	110885	0	0	8000	618630	0	0
2024-07-28 09:11:47			0	36067	0	0	0	29277	27870	168889	26935	1060133	45378	110887	0	0	8000	618714	0	0
2024-07-28 09:12:47			0	36081	0	0	0	29262	27870	168773	26987	1060034	45378	110881	0	0	8001	618127	0	0
2024-07-28 09:13:47			0	36089	0	0	0	29275	27870	168761	27294	1060088	45389	110886	0	0	8001	617792	0	0
2024-07-28 09:14:47			0	36089	0	0	0	29267	27870	168789	27034	1060079	45367	110883	0	0	8001	617792	0	0
2024-07-28 09:15:47			0	36091	0	0	0	29264	27870	168561	27098	1060052	45389	110882	0	0	8002	617708	0	0
2024-07-28 09:16:47			0	36100	0	0	0	29272	27870	168705	26911	1060007	45389	110885	0	0	8002	617332	0	0
2024-07-28 09:17:47			0	36109	0	0	0	29275	27860	168589	27157	1060043	45367	110886	0	0	8002	616991	0	0
2024-07-28 09:18:47			0	36126	0	0	0	29296	27870	168533	27284	1060061	45367	110894	0	0	8003	616244	0	0
2024-07-28 09:19:47			0	36163	0	0	0	29293	27880	168361	27000	1060097	45390	110893	0	0	8005	614664	0	0
2024-07-28 09:20:47			0	36204	0	0	0	29303	27880	168173	26941	1060097	45390	110897	0	0	8008	612955	0	0
2024-07-28 09:21:47			0	36260	0	0	0	29306	27890	168029	27192	1060115	45391	110898	0	0	8011	610591	0	0
2024-07-28 09:22:47			0	36293	0	0	0	29303	27880	167669	27048	1060178	45379	110897	0	0	8013	609257	0	0
2024-07-28 09:23:47			0	36362	0	0	0	29322	27890	167441	26809	1060249	45391	110904	0	0	8017	606365	0	0
2024-07-28 09:24:47			0	36412	0	0	0	29332	27900	167249	26856	1060240	45381	110908	0	0	8020	604267	0	0
2024-07-28 09:25:47			0	36411	0	0	0	29332	27900	167289	26902	1060240	45381	110908	0	0	8020	604308	0	0
2024-07-28 09:26:47			0	36395	0	0	0	29340	27900	167357	26934	1060330	45382	110911	0	0	8019	604968	0	0
2024-07-28 09:27:47			0	36359	0	0	0	29335	27900	167605	26880	1060330	45382	110909	0	0	8017	606454	0	0
2024-07-28 09:28:47			0	36294	0	0	0	29337	27910	167753	26760	1060339	45404	110910	0	0	8013	609110	0	0
2024-07-28 09:29:47			0	36251	0	0	0	29342	27910	168029	26961	1060294	45382	110912	0	0	8010	610894	0	0
2024-07-28 09:30:47			0	36214	0	0	0	29319	27910	168081	26804	1060312	45371	110903	0	0	8008	612433	0	0
2024-07-28 09:31:47			0	36186	0	0	0	29314	27910	168173	26779	1060285	45360	110901	0	0	8007	613598	0	0
2024-07-28 09:32:47			0	36158	0	0	0	29251	27910	168341	27116	1060294	45371	110877	0	0	8006	614766	0	0
2024-07-28 09:33:47			0	36085	0	0	0	29212	27900	168681	27244	1060114	45360	110862	0	0	8002	617853	0	0
2024-07-28 09:34:47			0	35973	0	0	0	29194	27890	169205	26974	1060007	45346	110855	0	0	7996	622591	0	0
2024-07-28 09:35:47			0	35896	0	0	0	29218	27880	169485	26902	1059944	45358	110864	0	0	7991	625875	0	0
2024-07-28 09:36:47			0	35837	0	0	0	29233	27870	169852	27029	1059917	45367	110870	0	0	7987	628408	0	0
2024-07-28 09:37:47			0	35780	0	0	0	29249	27870	170064	26899	1060007	45367	110876	0	0	7983	630828	0	0
2024-07-28 09:38:47			0	35744	0	0	0	29246	27870	170304	27149	1060025	45367	110875	0	0	7981	632359	0	0
2024-07-28 09:39:47			0	35728	0	0	0	29270	27870	170336	26996	1060052	45378	110884	0	0	7979	633040	0	0
2024-07-28 09:40:47			0	35704	0	0	0	29293	27860	170472	26807	1060070	45389	110893	0	0	7977	634100	0	0
2024-07-28 09:41:47			0	35692	0	0	0	29293	27870	170524	26861	1060088	45400	110893	0	0	7977	634575	0	0
2024-07-28 09:42:47			0	35689	0	0	0	29293	27880	170596	27003	1060160	45391	110893	0	0	7977	634667	0	0
2024-07-28 09:43:47			0	35662	0	0	0	29298	27880	170664	26953	1060204	45379	110895	0	0	7975	635820	0	0
2024-07-28 09:44:47			0	35685	0	0	0	29311	27880	170564	27066	1060213	45391	110900	0	0	7976	634838	0	0
2024-07-28 09:45:47			0	35681	0	0	0	29309	27880	170536	27090	1060240	45369	110899	0	0	7976	635008	0	0
2024-07-28 09:46:47			0	35697	0	0	0	29314	27880	170548	27020	1060204	45379	110901	0	0	7977	634326	0	0
2024-07-28 09:47:47			0	35683	0	0	0	29311	27890	170440	26982	1060249	45391	110900	0	0	7976	634887	0	0
2024-07-28 09:48:47			0	35703	0	0	0	29337	27900	170516	26890	1060330	45382	110910	0	0	7977	633996	0	0
2024-07-28 09:49:47			0	35694	0	0	0	29353	27900	170276	27147	1060330	45382	110916	0	0	7976	634380	0	0
2024-07-28 09:50:47			0	35729	0	0	0	29335	27910	170296	27085	1060312	45404	110909	0	0	7979	632852	0	0
2024-07-28 09:51:47			0	35752	0	0	0	29342	27900	170192	26883	1060303	45393	110912	0	0	7980	631909	0	0
2024-07-28 09:52:47			0	35752	0	0	0	29345	27920	170164	27062	1060384	45394	110913	0	0	7980	631836	0	0
2024-07-28 09:53:47			0	35737	0	0	0	29342	27910	170156	27213	1060375	45393	110912	0	0	7979	632511	0	0
2024-07-28 09:54:47			0	35733	0	0	0	29348	27930	170192	26727	1060402	45385	110914	0	0	7979	632608	0	0
2024-07-28 09:55:47			0	35729	0	0	0	29353	27910	170168	26826	1060402	45393	110916	0	0	7978	632852	0	0
2024-07-28 09:56:47			0	35726	0	0	0	29355	27930	170204	27220	1060437	45385	110917	0	0	7978	632906	0	0
2024-07-28 09:57:47			0	35713	0	0	0	29374	27940	170304	26918	1060527	45396	110924	0	0	7977	633424	0	0
2024-07-28 09:58:47			0	35732	0	0	0	29384	27940	170180	26602	1060536	45408	110928	0	0	7978	632615	0	0
2024-07-28 09:59:47			0	35743	0	0	0	29394	27940	170172	26608	1060536	45385	110932	0	0	7979	632146	0	0
2024-07-28 10:00:47			0	35741	0	0	0	29394	27950	170164	26967	1060608	45398	110932	0	0	7978	632195	0	0
2024-07-28 10:01:47			0	35721	0	0	0	29392	27960	170248	26573	1060626	45387	110931	0	0	7977	633010	0	0
2024-07-28 10:02:47			0	35665	0	0	0	29402	27960	170588	26700	1060599	45387	110935	0	0	7974	635399	0	0
2024-07-28 10:03:47			0	35627	0	0	0	29410	27970	170680	26706	1060661	45377	110938	0	0	7971	636987	0	0
2024-07-28 10:04:47			0	35575	0	0	0	29415	27970	170892	26764	1060715	45400	110940	0	0	7968	639215	0	0
2024-07-28 10:05:47			0	35539	0	0	0	29415	27990	170960	27065	1060724	45390	110940	0	0	7966	640687	0	0
2024-07-28 10:06:47			0	35548	0	0	0	29405	27980	171124	26871	1060742	45389	110936	0	0	7967	640337	0	0
2024-07-28 10:07:47			0	35535	0	0	0	29410	27980	171140	27053	1060769	45389	110938	0	0	7966	640896	0	0
2024-07-28 10:08:47			0	35520	0	0	0	29415	27990	171244	26890	1060751	45390	110940	0	0	7965	641504	0	0
2024-07-28 10:09:47			0	35521	0	0	0	29407	27990	171176	27010	1060787	45390	110937	0	0	7965	641461	0	0
2024-07-28 10:10:47			0	35498	0	0	0	29415	27990	171232	26989	1060814	45390	110940	0	0	7963	642450	0	0
2024-07-28 10:11:47			0	35500	0	0	0	29412	28000	171248	26748	1060823	45391	110939	0	0	7964	642327	0	0
2024-07-28 10:12:47			0	35489	0	0	0	29420	28000	171256	26861	1060823	45380	110942	0	0	7963	642801	0	0
2024-07-28 10:13:47			0	35487	0	0	0	29418	27990	171340	27085	1060787	45413	110941	0	0	7963	642924	0	0
2024-07-28 10:14:47			0	35475	0	0	0	29425	28000	171276	27007	1060805	45403	110944	0	0	7962	643404	0	0
2024-07-28 10:15:47			0	35490	0	0	0	29431	28010	171152	26861	1060867	45404	110946	0	0	7963	642721	0	0
2024-07-28 10:16:47			0	35490	0	0	0	29436	28000	171268	26805	1060850	45414	110948	0	0	7963	642758	0	0
2024-07-28 10:17:47			0	35517	0	0	0	29446	28010	171188	27041	1060930	45382	110952	0	0	7964	641559	0	0
2024-07-28 10:18:47			0	35505	0	0	0	29451	28010	171196	26840	1060930	45382	110954	0	0	7963	642075	0	0
2024-07-28 10:19:47			0	35521	0	0	0	29454	28020	171076	26785	1060894	45405	110955	0	0	7964	641350	0	0
2024-07-28 10:20:47			0	35527	0	0	0	29457	28040	171120	27100	1061029	45407	110956	0	0	7965	641018	0	0
2024-07-28 10:21:47			0	35547	0	0	0	29475	28030	170960	27053	1061011	45406	110963	0	0	7966	640195	0	0
2024-07-28 10:22:47			0	35574	0	0	0	29501	28040	170856	26861	1061083	45417	110973	0	0	7967	639000	0	0
2024-07-28 10:23:47			0	35581	0	0	0	29509	28050	170888	26771	1061164	45409	110976	0	0	7967	638663	0	0
2024-07-28 10:24:47			0	35589	0	0	0	29516	28060	170884	26708	1061172	45409	110979	0	0	7968	638283	0	0
2024-07-28 10:25:47			0	35609	0	0	0	29514	28060	170704	26698	1061208	45398	110978	0	0	7969	637426	0	0
2024-07-28 10:26:47			0	35643	0	0	0	29514	28070	170356	26987	1061244	45410	110978	0	0	7971	635935	0	0
2024-07-28 10:27:47			0	35696	0	0	0	29503	28070	170308	26939	1061253	45399	110974	0	0	7975	633674	0	0
2024-07-28 10:28:47			0	35707	0	0	0	29511	28060	170268	26712	1061235	45410	110977	0	0	7975	633241	0	0
2024-07-28 10:29:47			0	35741	0	0	0	29524	28080	170148	26946	1061316	45411	110982	0	0	7977	631721	0	0
2024-07-28 10:30:47			0	35762	0	0	0	29529	28080	169948	26915	1061379	45400	110984	0	0	7978	630828	0	0
2024-07-28 10:31:47			0	35802	0	0	0	29542	28110	169732	26930	1061307	45413	110989	0	0	7981	629022	0	0
2024-07-28 10:32:47			0	35816	0	0	0	29550	28100	169668	26960	1061378	45424	110992	0	0	7981	628464	0	0
2024-07-28 10:33:47			0	35820	0	0	0	29553	28110	169580	26552	1061369	45414	110993	0	0	7981	628259	0	0
2024-07-28 10:34:47			0	35834	0	0	0	29563	28110	169588	26739	1061396	45403	110997	0	0	7982	627666	0	0
2024-07-28 10:35:47			0	35826	0	0	0	29550	28120	169576	26864	1061459	45403	110992	0	0	7982	627968	0	0
2024-07-28 10:36:47			0	35815	0	0	0	29563	28120	169672	26696	1061486	45403	110997	0	0	7981	628434	0	0
2024-07-28 10:37:47			0	35787	0	0	0	29563	28130	169752	26878	1061504	45404	110997	0	0	7979	629585	0	0
2024-07-28 10:38:47			0	35761	0	0	0	29568	28130	169848	26583	1061477	45415	110999	0	0	7978	630689	0	0
2024-07-28 10:39:47			0	35754	0	0	0	29568	28130	170028	26866	1061540	45405	110999	0	0	7977	630986	0	0
2024-07-28 10:40:47			0	35722	0	0	0	29550	28140	170048	26972	1061549	45416	110992	0	0	7976	632310	0	0
2024-07-28 10:41:47			0	35711	0	0	0	29545	28140	170156	27168	1061495	45416	110990	0	0	7975	632779	0	0
2024-07-28 10:42:47			0	35676	0	0	0	29540	28140	170240	26875	1061477	45406	110988	0	0	7973	634270	0	0
2024-07-28 10:43:47			0	35679	0	0	0	29529	28140	170268	26778	1061531	45406	110984	0	0	7973	634142	0	0
2024-07-28 10:44:47			0	35652	0	0	0	29532	28130	170308	26842	1061504	45415	110985	0	0	7972	635331	0	0
2024-07-28 10:45:47			0	35668	0	0	0	29545	28140	170288	26946	1061495	45416	110990	0	0	7972	634611	0	0
2024-07-28 10:46:47			0	35653	0	0	0	29561	28140	170360	26928	1061522	45394	110996	0	0	7971	635252	0	0
2024-07-28 10:47:47			0	35674	0	0	0	29571	28140	170372	26876	1061531	45416	111000	0	0	7972	634355	0	0
2024-07-28 10:48:47			0	35710	0	0	0	29576	28160	170108	26630	1061585	45407	111002	0	0	7975	632748	0	0
2024-07-28 10:49:47			0	35745	0	0	0	29581	28160	169940	26899	1061612	45407	111004	0	0	7977	631259	0	0
2024-07-28 10:50:47			0	35770	0	0	0	29581	28140	169808	26979	1061638	45395	111004	0	0	7978	630270	0	0
2024-07-28 10:51:47			0	35806	0	0	0	29579	28150	169772	26864	1061629	45407	111003	0	0	7980	628707	0	0
2024-07-28 10:52:47			0	35844	0	0	0	29579	28160	169684	26899	1061612	45407	111003	0	0	7983	627062	0	0
2024-07-28 10:53:47			0	35866	0	0	0	29599	28160	169529	26698	1061666	45417	111011	0	0	7984	626132	0	0
2024-07-28 10:54:47			0	35857	0	0	0	29597	28170	169424	27066	1061710	45418	111010	0	0	7983	626476	0	0
2024-07-28 10:55:47			0	35862	0	0	0	29594	28170	169505	26987	1061683	45418	111009	0	0	7984	626265	0	0
2024-07-28 10:56:47			0	35847	0	0	0	29592	28170	169488	26970	1061737	45408	111008	0	0	7983	626899	0	0
2024-07-28 10:57:47			0	35829	0	0	0	29592	28170	169616	26937	1061737	45408	111008	0	0	7982	627660	0	0
2024-07-28 10:58:47			0	35830	0	0	0	29615	28180	169640	26897	1061755	45410	111017	0	0	7981	627582	0	0
2024-07-28 10:59:47			0	35842	0	0	0	29618	28190	169512	26979	1061881	45410	111018	0	0	7982	627038	0	0
2024-07-28 11:00:47			0	35833	0	0	0	29610	28180	169508	26970	1061872	45420	111015	0	0	7982	627455	0	0
2024-07-28 11:01:47			0	35830	0	0	0	29602	28190	169492	26864	1061881	45410	111012	0	0	7982	627545	0	0
2024-07-28 11:02:47			0	35834	0	0	0	29581	28200	169612	27017	1061800	45412	111004	0	0	7982	627340	0	0
2024-07-28 11:03:47			0	35841	0	0	0	29584	28200	169364	26975	1061800	45400	111005	0	0	7983	627044	0	0
2024-07-28 11:04:47			0	35841	0	0	0	29589	28190	169460	27090	1061836	45399	111007	0	0	7983	627080	0	0
2024-07-28 11:05:47			0	35826	0	0	0	29605	28190	169520	26850	1061773	45420	111013	0	0	7981	627715	0	0
2024-07-28 11:06:47			0	35830	0	0	0	29625	28190	169616	26925	1061827	45420	111021	0	0	7981	627545	0	0
2024-07-28 11:07:47			0	35851	0	0	0	29633	28190	169544	27059	1061943	45421	111024	0	0	7982	626657	0	0
2024-07-28 11:08:47			0	35871	0	0	0	29657	28200	169385	27034	1061934	45422	111033	0	0	7983	625776	0	0
2024-07-28 11:09:47			0	35878	0	0	0	29667	28210	169185	26731	1061979	45413	111037	0	0	7984	625444	0	0
2024-07-28 11:10:47			0	35925	0	0	0	29662	28210	169173	27053	1061997	45435	111035	0	0	7986	623462	0	0
2024-07-28 11:11:47			0	35934	0	0	0	29651	28230	168969	26883	1062006	45437	111031	0	0	7987	623011	0	0
2024-07-28 11:12:47			0	35943	0	0	0	29644	28230	168977	26885	1062060	45425	111028	0	0	7988	622632	0	0
2024-07-28 11:13:47			0	35950	0	0	0	29662	28240	168953	26930	1062051	45416	111035	0	0	7988	622302	0	0
2024-07-28 11:14:47			0	35963	0	0	0	29657	28240	168961	26632	1062114	45416	111033	0	0	7989	621755	0	0
2024-07-28 11:15:47			0	35966	0	0	0	29659	28250	168989	26876	1062096	45427	111034	0	0	7989	621593	0	0
2024-07-28 11:16:47			0	35944	0	0	0	29664	28240	168825	27060	1062141	45416	111036	0	0	7988	622554	0	0
2024-07-28 11:17:47			0	35992	0	0	0	29688	28240	168841	26908	1062132	45416	111045	0	0	7990	620537	0	0
2024-07-28 11:18:47			0	36005	0	0	0	29680	28260	168765	26901	1062194	45428	111042	0	0	7991	619920	0	0
2024-07-28 11:19:47			0	36025	0	0	0	29672	28260	168657	26738	1062140	45417	111039	0	0	7993	619081	0	0
2024-07-28 11:20:47			0	36035	0	0	0	29680	28250	168561	26585	1062212	45416	111042	0	0	7993	618698	0	0
2024-07-28 11:21:47			0	36054	0	0	0	29690	28260	168565	27078	1062194	45417	111046	0	0	7994	617867	0	0
2024-07-28 11:22:47			0	36086	0	0	0	29685	28270	168377	26948	1062248	45440	111044	0	0	7996	616493	0	0
2024-07-28 11:23:47			0	36083	0	0	0	29722	28270	168457	26852	1062186	45429	111058	0	0	7995	616619	0	0
2024-07-28 11:24:47			0	36091	0	0	0	29716	28290	168373	26899	1062329	45431	111056	0	0	7996	616213	0	0
2024-07-28 11:25:47			0	36110	0	0	0	29706	28290	168253	26906	1062356	45431	111052	0	0	7997	615420	0	0
2024-07-28 11:26:47			0	36136	0	0	0	29706	28280	168061	26979	1062320	45442	111052	0	0	7999	614371	0	0
2024-07-28 11:27:47			0	36132	0	0	0	29716	28290	167997	26658	1062329	45442	111056	0	0	7998	614502	0	0
2024-07-28 11:28:47			0	36123	0	0	0	29709	28290	168177	26679	1062365	45432	111053	0	0	7998	614878	0	0
2024-07-28 11:29:47			0	36092	0	0	0	29693	28310	168317	26868	1062392	45434	111047	0	0	7997	616100	0	0
2024-07-28 11:30:47			0	36085	0	0	0	29685	28310	168313	26953	1062401	45434	111044	0	0	7996	616393	0	0
2024-07-28 11:31:47			0	36047	0	0	0	29685	28310	168433	27105	1062365	45423	111044	0	0	7994	617981	0	0
2024-07-28 11:32:47			0	36032	0	0	0	29670	28300	168533	27078	1062320	45399	111038	0	0	7993	618645	0	0
2024-07-28 11:33:47			0	35983	0	0	0	29672	28280	168697	26552	1062293	45431	111039	0	0	7990	620772	0	0
2024-07-28 11:34:47			0	35951	0	0	0	29667	28310	168957	26977	1062257	45434	111037	0	0	7988	622008	0	0
2024-07-28 11:35:47			0	35918	0	0	0	29659	28300	168993	27019	1062266	45410	111034	0	0	7987	623433	0	0
2024-07-28 11:36:47			0	35871	0	0	0	29662	28290	169193	26922	1062257	45432	111035	0	0	7984	625451	0	0
2024-07-28 11:37:47			0	35824	0	0	0	29670	28280	169368	27041	1062240	45420	111038	0	0	7981	627473	0	0
2024-07-28 11:38:47			0	35812	0	0	0	29693	28290	169420	26757	1062284	45410	111047	0	0	7979	627945	0	0
2024-07-28 11:39:47			0	35782	0	0	0	29685	28300	169536	27126	1062293	45432	111044	0	0	7978	629179	0	0
2024-07-28 11:40:47			0	35786	0	0	0	29685	28300	169600	26901	1062347	45432	111044	0	0	7978	629010	0	0
2024-07-28 11:41:47			0	35779	0	0	0	29693	28290	169496	26868	1062311	45410	111047	0	0	7977	629343	0	0
2024-07-28 11:42:47			0	35800	0	0	0	29701	28290	169612	26911	1062356	45431	111050	0	0	7979	628453	0	0
2024-07-28 11:43:47			0	35801	0	0	0	29688	28310	169524	27093	1062338	45423	111045	0	0	7979	628338	0	0
2024-07-28 11:44:47			0	35805	0	0	0	29690	28300	169588	26781	1062356	45411	111046	0	0	7979	628205	0	0
2024-07-28 11:45:47			0	35811	0	0	0	29688	28300	169440	26672	1062356	45422	111045	0	0	7980	627951	0	0
2024-07-28 11:46:47			0	35862	0	0	0	29688	28290	169348	26911	1062311	45432	111045	0	0	7983	625831	0	0
2024-07-28 11:47:47			0	35862	0	0	0	29677	28300	169373	26961	1062320	45421	111041	0	0	7983	625795	0	0
2024-07-28 11:48:47			0	35881	0	0	0	29693	28310	169225	26791	1062365	45423	111047	0	0	7984	624956	0	0
2024-07-28 11:49:47			0	35896	0	0	0	29662	28300	169233	26814	1062383	45411	111035	0	0	7985	624360	0	0
2024-07-28 11:50:47			0	35872	0	0	0	29680	28300	169349	27013	1062320	45421	111042	0	0	7983	625372	0	0
2024-07-28 11:51:47			0	35865	0	0	0	29690	28300	169261	26691	1062356	45422	111046	0	0	7983	625668	0	0
2024-07-28 11:52:47			0	35885	0	0	0	29677	28300	169257	27163	1062374	45432	111041	0	0	7984	624824	0	0
2024-07-28 11:53:47			0	35878	0	0	0	29696	28300	169201	27249	1062374	45421	111048	0	0	7984	625119	0	0
2024-07-28 11:54:47			0	35886	0	0	0	29680	28300	169153	26970	1062356	45433	111042	0	0	7984	624781	0	0
2024-07-28 11:55:47			0	35891	0	0	0	29706	28300	169213	27005	1062374	45432	111052	0	0	7984	624571	0	0
2024-07-28 11:56:47			0	35892	0	0	0	29701	28300	169245	26733	1062410	45433	111050	0	0	7984	624529	0	0
2024-07-28 11:57:47			0	35899	0	0	0	29703	28310	169189	26885	1062419	45423	111051	0	0	7985	624197	0	0
2024-07-28 11:58:47			0	35910	0	0	0	29690	28300	169037	27131	1062401	45421	111046	0	0	7986	623770	0	0
2024-07-28 11:59:47			0	35930	0	0	0	29690	28300	168921	26911	1062356	45411	111046	0	0	7987	622928	0	0
2024-07-28 12:00:47			0	35942	0	0	0	29677	28300	168869	27142	1062329	45422	111041	0	0	7988	622423	0	0
2024-07-28 12:01:47			0	35963	0	0	0	29662	28300	168885	26706	1062383	45422	111035	0	0	7989	621540	0	0
2024-07-28 12:02:47			0	35931	0	0	0	29696	28300	168857	26885	1062356	45400	111048	0	0	7987	622886	0	0
2024-07-28 12:03:47			0	35940	0	0	0	29701	28300	168969	26993	1062356	45433	111050	0	0	7987	622507	0	0
2024-07-28 12:04:47			0	35930	0	0	0	29722	28300	169097	26991	1062410	45422	111058	0	0	7986	622928	0	0
2024-07-28 12:05:47			0	35917	0	0	0	29729	28310	169125	26727	1062554	45445	111061	0	0	7985	623439	0	0
2024-07-28 12:06:47			0	35902	0	0	0	29758	28310	169233	27007	1062509	45445	111072	0	0	7984	624071	0	0
2024-07-28 12:07:47			0	35877	0	0	0	29727	28320	169301	26870	1062553	45446	111060	0	0	7983	625089	0	0
2024-07-28 12:08:47			0	35870	0	0	0	29722	28330	169281	27045	1062544	45425	111058	0	0	7983	625348	0	0
2024-07-28 12:09:47			0	35855	0	0	0	29716	28320	169240	26994	1062500	45424	111056	0	0	7982	626018	0	0
2024-07-28 12:10:47			0	35869	0	0	0	29732	28330	169245	26809	1062562	45436	111062	0	0	7983	625390	0	0
2024-07-28 12:11:47			0	35866	0	0	0	29750	28330	169301	26845	1062562	45425	111069	0	0	7982	625517	0	0
2024-07-28 12:12:47			0	35862	0	0	0	29766	28330	169201	26772	1062598	45436	111075	0	0	7981	625686	0	0
2024-07-28 12:13:47			0	35863	0	0	0	29779	28330	169381	26965	1062670	45447	111080	0	0	7981	625644	0	0
2024-07-28 12:14:47			0	35879	0	0	0	29784	28340	169173	27033	1062670	45448	111082	0	0	7982	624932	0	0
2024-07-28 12:15:47			0	35957	0	0	0	29774	28340	168937	26700	1062715	45436	111078	0	0	7987	621648	0	0
2024-07-28 12:16:47			0	36017	0	0	0	29781	28340	168505	26925	1062697	45437	111081	0	0	7991	619131	0	0
2024-07-28 12:17:47			0	36116	0	0	0	29766	28350	168141	26809	1062769	45438	111075	0	0	7997	614956	0	0
2024-07-28 12:18:47			0	36165	0	0	0	29776	28360	167893	26830	1062733	45427	111079	0	0	8000	612880	0	0
2024-07-28 12:19:47			0	36204	0	0	0	29768	28370	167717	26963	1062822	45451	111076	0	0	8002	611224	0	0
2024-07-28 12:20:47			0	36136	0	0	0	29748	28370	168053	27036	1062742	45440	111068	0	0	7999	614052	0	0
2024-07-28 12:21:47			0	36088	0	0	0	29701	28370	168337	26609	1062715	45417	111050	0	0	7996	616053	0	0
2024-07-28 12:22:47			0	36053	0	0	0	29735	28360	168509	26875	1062616	45416	111063	0	0	7994	617552	0	0
2024-07-28 12:23:47			0	36018	0	0	0	29768	28350	168549	27046	1062733	45426	111076	0	0	7991	619053	0	0
2024-07-28 12:24:47			0	36009	0	0	0	29638	28350	168557	26908	1062553	45438	111026	0	0	7993	619430	0	0
2024-07-28 12:25:47			0	36000	0	0	0	29696	28340	168605	27000	1062473	45391	111048	0	0	7991	619843	0	0
2024-07-28 12:26:47			0	35984	0	0	0	29693	28340	168757	26994	1062473	45403	111047	0	0	7990	620514	0	0
2024-07-28 12:27:47			0	35987	0	0	0	29753	28340	168661	26873	1062473	45425	111070	0	0	7989	620389	0	0
2024-07-28 12:28:47			0	35988	0	0	0	29748	28320	168789	27034	1062598	45434	111068	0	0	7989	620418	0	0
2024-07-28 12:29:47			0	35995	0	0	0	29761	28340	168741	26863	1062580	45447	111073	0	0	7990	620053	0	0
2024-07-28 12:30:47			0	35992	0	0	0	29750	28340	168713	26880	1062661	45436	111069	0	0	7990	620179	0	0
2024-07-28 12:31:47			0	35987	0	0	0	29771	28340	168717	27092	1062697	45425	111077	0	0	7989	620389	0	0
2024-07-28 12:32:47			0	35987	0	0	0	29784	28350	168801	27033	1062679	45438	111082	0	0	7989	620353	0	0
2024-07-28 12:33:47			0	36001	0	0	0	29786	28350	168665	26859	1062679	45460	111083	0	0	7990	619765	0	0
2024-07-28 12:34:47			0	35985	0	0	0	29742	28350	168629	26880	1062760	45438	111066	0	0	7989	620437	0	0
2024-07-28 12:35:47			0	36016	0	0	0	29740	28350	168617	26663	1062706	45426	111065	0	0	7991	619137	0	0
2024-07-28 12:36:47			0	36023	0	0	0	29745	28350	168653	27036	1062598	45426	111067	0	0	7992	618843	0	0
2024-07-28 12:37:47			0	36003	0	0	0	29740	28360	168513	26712	1062706	45416	111065	0	0	7991	619646	0	0
2024-07-28 12:38:47			0	36008	0	0	0	29763	28340	168621	26759	1062670	45425	111074	0	0	7990	619508	0	0
2024-07-28 12:39:47			0	35997	0	0	0	29742	28350	168669	26863	1062706	45416	111066	0	0	7990	619933	0	0
2024-07-28 12:40:47			0	36014	0	0	0	29781	28350	168613	27138	1062679	45416	111081	0	0	7991	619220	0	0
2024-07-28 12:41:47			0	36014	0	0	0	29763	28350	168629	26739	1062688	45426	111074	0	0	7991	619220	0	0
2024-07-28 12:42:47			0	36037	0	0	0	29781	28350	168401	26837	1062742	45438	111081	0	0	7992	618257	0	0
2024-07-28 12:43:47			0	36042	0	0	0	29763	28350	168365	26750	1062796	45449	111074	0	0	7993	618048	0	0
2024-07-28 12:44:47			0	36083	0	0	0	29750	28350	168309	26993	1062661	45449	111069	0	0	7995	616334	0	0
2024-07-28 12:45:47			0	36101	0	0	0	29755	28350	168277	27039	1062715	45426	111071	0	0	7996	615582	0	0
2024-07-28 12:46:47			0	36105	0	0	0	29763	28350	168253	26797	1062733	45438	111074	0	0	7996	615415	0	0
2024-07-28 12:47:47			0	36100	0	0	0	29750	28360	168185	27175	1062697	45438	111069	0	0	7996	615588	0	0
2024-07-28 12:48:47			0	36117	0	0	0	29758	28350	168217	26733	1062715	45426	111072	0	0	7997	614915	0	0
2024-07-28 12:49:47			0	36097	0	0	0	29802	28360	168189	26745	1062733	45439	111089	0	0	7995	615713	0	0
2024-07-28 12:50:47			0	36112	0	0	0	29794	28370	168049	26667	1062715	45440	111086	0	0	7996	615052	0	0
2024-07-28 12:51:47			0	36108	0	0	0	29797	28370	168173	26698	1062849	45451	111087	0	0	7996	615219	0	0
2024-07-28 12:52:47			0	36135	0	0	0	29818	28380	168049	27081	1062903	45452	111095	0	0	7997	614058	0	0
2024-07-28 12:53:47			0	36129	0	0	0	29802	28370	168101	26981	1062939	45452	111089	0	0	7997	614343	0	0
2024-07-28 12:54:47			0	36140	0	0	0	29802	28370	168081	27159	1062912	45429	111089	0	0	7998	613885	0	0
2024-07-28 12:55:47			0	36137	0	0	0	29784	28370	168073	26790	1062858	45441	111082	0	0	7998	614010	0	0
2024-07-28 12:56:47			0	36133	0	0	0	29789	28390	168025	26923	1062912	45453	111084	0	0	7998	614106	0	0
2024-07-28 12:57:47			0	36135	0	0	0	29794	28390	168009	27000	1062912	45419	111086	0	0	7998	614022	0	0
2024-07-28 12:58:47			0	36138	0	0	0	29797	28400	168185	26845	1062930	45431	111087	0	0	7998	613862	0	0
2024-07-28 12:59:47			0	36116	0	0	0	29815	28380	168217	27041	1062903	45452	111094	0	0	7996	614850	0	0
2024-07-28 13:00:47			0	36128	0	0	0	29818	28390	168093	27218	1062912	45453	111095	0	0	7997	614314	0	0
2024-07-28 13:01:47			0	36130	0	0	0	29831	28400	168061	26811	1062948	45443	111100	0	0	7997	614195	0	0
2024-07-28 13:02:47			0	36112	0	0	0	29828	28400	168133	27197	1063038	45454	111099	0	0	7996	614945	0	0
2024-07-28 13:03:47			0	36132	0	0	0	29807	28410	168157	27062	1063029	45455	111091	0	0	7998	614076	0	0
2024-07-28 13:04:47			0	36125	0	0	0	29810	28420	168013	27017	1063047	45445	111092	0	0	7997	614332	0	0
2024-07-28 13:05:47			0	36133	0	0	0	29797	28420	167973	27074	1063092	45456	111087	0	0	7998	613999	0	0
2024-07-28 13:06:47			0	36144	0	0	0	29794	28410	167989	27005	1063002	45444	111086	0	0	7998	613577	0	0
2024-07-28 13:07:47			0	36136	0	0	0	29841	28410	167961	27182	1063047	45443	111104	0	0	7997	613910	0	0
2024-07-28 13:08:47			0	36146	0	0	0	29859	28420	168049	26896	1063119	45456	111111	0	0	7998	613458	0	0
2024-07-28 13:09:47			0	36141	0	0	0	29854	28430	167965	27088	1063164	45478	111109	0	0	7997	613631	0	0
2024-07-28 13:10:47			0	36158	0	0	0	29867	28440	167945	27424	1063181	45458	111114	0	0	7998	612888	0	0
2024-07-28 13:11:47			0	36189	0	0	0	29883	28440	167733	27081	1063155	45458	111120	0	0	8000	611599	0	0
2024-07-28 13:12:47			0	36204	0	0	0	29901	28440	167781	27161	1063235	45447	111127	0	0	8000	610976	0	0
2024-07-28 13:13:47			0	36233	0	0	0	29914	28450	167673	27147	1063280	45469	111132	0	0	8002	609738	0	0
2024-07-28 13:14:47			0	36232	0	0	0	29937	28460	167585	27020	1063406	45459	111141	0	0	8002	609744	0	0
2024-07-28 13:15:47			0	36259	0	0	0	29940	28460	167497	27007	1063361	45483	111142	0	0	8003	608626	0	0
2024-07-28 13:16:47			0	36253	0	0	0	29924	28480	167345	27312	1063469	45439	111136	0	0	8003	608804	0	0
2024-07-28 13:17:47			0	36285	0	0	0	29883	28480	167253	27156	1063451	45462	111120	0	0	8006	607480	0	0
2024-07-28 13:18:47			0	36284	0	0	0	29883	28480	167069	26951	1063477	45451	111120	0	0	8006	607521	0	0
2024-07-28 13:19:47			0	36327	0	0	0	29929	28490	167077	26934	1063468	45451	111138	0	0	8008	605711	0	0
2024-07-28 13:20:47			0	36316	0	0	0	29961	28500	167129	27190	1063531	45441	111150	0	0	8006	606129	0	0
2024-07-28 13:21:47			0	36326	0	0	0	29945	28500	167097	27225	1063585	45463	111144	0	0	8007	605717	0	0
2024-07-28 13:22:47			0	36325	0	0	0	29927	28500	167029	26994	1063567	45464	111137	0	0	8007	605758	0	0
2024-07-28 13:23:47			0	36365	0	0	0	29924	28510	166905	27223	1063585	45454	111136	0	0	8010	604075	0	0
2024-07-28 13:24:47			0	36376	0	0	0	29906	28500	166913	26932	1063513	45442	111129	0	0	8011	603657	0	0
2024-07-28 13:25:47			0	36374	0	0	0	29909	28510	166849	26774	1063603	45454	111130	0	0	8011	603704	0	0
2024-07-28 13:26:47			0	36375	0	0	0	29909	28510	166697	27140	1063522	45443	111130	0	0	8011	603663	0	0
2024-07-28 13:27:47			0	36377	0	0	0	29914	28510	166941	27268	1063558	45443	111132	0	0	8011	603581	0	0
2024-07-28 13:28:47			0	36375	0	0	0	29922	28500	166853	27128	1063567	45464	111135	0	0	8011	603698	0	0
2024-07-28 13:29:47			0	36348	0	0	0	29924	28510	166917	27391	1063603	45454	111136	0	0	8009	604775	0	0
2024-07-28 13:30:47			0	36356	0	0	0	29953	28510	166841	27260	1063585	45454	111147	0	0	8009	604445	0	0
2024-07-28 13:31:47			0	36349	0	0	0	29955	28520	166953	27267	1063657	45466	111148	0	0	8009	604699	0	0
2024-07-28 13:32:47			0	36338	0	0	0	29935	28530	166929	27241	1063666	45467	111140	0	0	8008	605117	0	0
2024-07-28 13:33:47			0	36346	0	0	0	29909	28520	167009	27017	1063630	45466	111130	0	0	8009	604822	0	0
2024-07-28 13:34:47			0	36327	0	0	0	29916	28520	166949	26871	1063621	45454	111133	0	0	8008	605606	0	0
2024-07-28 13:35:47			0	36330	0	0	0	29940	28530	166993	27144	1063675	45445	111142	0	0	8008	605447	0	0
2024-07-28 13:36:47			0	36317	0	0	0	29953	28530	166997	26944	1063729	45467	111147	0	0	8007	605983	0	0
2024-07-28 13:37:47			0	36327	0	0	0	29961	28530	167113	26876	1063747	45456	111150	0	0	8007	605570	0	0
2024-07-28 13:38:47			0	36295	0	0	0	29935	28540	167129	26781	1063765	45478	111140	0	0	8006	606856	0	0
2024-07-28 13:39:47			0	36311	0	0	0	29922	28540	167205	26833	1063720	45446	111135	0	0	8007	606195	0	0
2024-07-28 13:40:47			0	36288	0	0	0	29885	28540	167113	27076	1063684	45434	111121	0	0	8006	607145	0	0
2024-07-28 13:41:47			0	36291	0	0	0	29906	28520	167137	27078	1063603	45421	111129	0	0	8006	607092	0	0
2024-07-28 13:42:47			0	36283	0	0	0	29903	28530	167153	27175	1063648	45456	111128	0	0	8006	607387	0	0
2024-07-28 13:43:47			0	36273	0	0	0	29903	28530	167241	26845	1063612	45456	111128	0	0	8005	607801	0	0
2024-07-28 13:44:47			0	36265	0	0	0	29914	28530	167257	27024	1063666	45445	111132	0	0	8004	608131	0	0
2024-07-28 13:45:47			0	36259	0	0	0	29903	28520	167289	27281	1063657	45455	111128	0	0	8004	608415	0	0
2024-07-28 13:46:47			0	36241	0	0	0	29901	28530	167249	26894	1063585	45467	111127	0	0	8003	609125	0	0
2024-07-28 13:47:47			0	36237	0	0	0	29909	28530	167325	26871	1063639	45456	111130	0	0	8003	609290	0	0
2024-07-28 13:48:47			0	36256	0	0	0	29916	28520	167369	26968	1063576	45455	111133	0	0	8004	608539	0	0
2024-07-28 13:49:47			0	36254	0	0	0	29929	28530	167409	26948	1063639	45434	111138	0	0	8003	608586	0	0
2024-07-28 13:50:47			0	36259	0	0	0	29932	28520	167265	26982	1063630	45433	111139	0	0	8004	608415	0	0
2024-07-28 13:51:47			0	36251	0	0	0	29914	28530	167309	26870	1063702	45456	111132	0	0	8003	608711	0	0
2024-07-28 13:52:47			0	36263	0	0	0	29901	28540	167197	27157	1063684	45445	111127	0	0	8004	608179	0	0
2024-07-28 13:53:47			0	36283	0	0	0	29885	28530	167089	26760	1063666	45445	111121	0	0	8006	607387	0	0
2024-07-28 13:54:47			0	36290	0	0	0	29932	28530	167045	26752	1063612	45467	111139	0	0	8005	607098	0	0
2024-07-28 13:55:47			0	36268	0	0	0	29950	28530	167153	27130	1063675	45478	111146	0	0	8004	608007	0	0
2024-07-28 13:56:47			0	36264	0	0	0	29953	28530	167129	27124	1063810	45456	111147	0	0	8004	608173	0	0
2024-07-28 13:57:47			0	36277	0	0	0	29979	28540	167137	27166	1063774	45457	111157	0	0	8004	607600	0	0
2024-07-28 13:58:47			0	36289	0	0	0	29966	28550	167153	26611	1063810	45492	111152	0	0	8005	607069	0	0
2024-07-28 13:59:47			0	36273	0	0	0	29940	28540	167001	26942	1063828	45468	111142	0	0	8004	607765	0	0
2024-07-28 14:00:47			0	36304	0	0	0	29927	28540	167077	27017	1063774	45446	111137	0	0	8006	606485	0	0
2024-07-28 14:01:47			0	36290	0	0	0	29935	28540	167049	26861	1063774	45468	111140	0	0	8005	607063	0	0
2024-07-28 14:02:47			0	36279	0	0	0	29953	28550	167033	26923	1063864	45458	111147	0	0	8005	607482	0	0
2024-07-28 14:03:47			0	36289	0	0	0	29932	28560	166989	27019	1063828	45469	111139	0	0	8006	607034	0	0
2024-07-28 14:04:47			0	36318	0	0	0	29927	28550	166997	26844	1063837	45458	111137	0	0	8007	605872	0	0
2024-07-28 14:05:47			0	36315	0	0	0	29935	28540	166953	26767	1063720	45446	111140	0	0	8007	606031	0	0
2024-07-28 14:06:47			0	36317	0	0	0	29932	28560	166913	26981	1063720	45447	111139	0	0	8007	605878	0	0
2024-07-28 14:07:47			0	36330	0	0	0	29979	28550	166841	26920	1063792	45458	111157	0	0	8007	605377	0	0
2024-07-28 14:08:47			0	36341	0	0	0	29971	28560	166825	26821	1063801	45458	111154	0	0	8008	604888	0	0
2024-07-28 14:09:47			0	36368	0	0	0	29955	28550	166773	26913	1063899	45469	111148	0	0	8010	603811	0	0
2024-07-28 14:10:47			0	36381	0	0	0	29945	28560	166705	27043	1063855	45458	111144	0	0	8011	603241	0	0
2024-07-28 14:11:47			0	36378	0	0	0	29950	28560	166569	27402	1063774	45458	111146	0	0	8011	603365	0	0
2024-07-28 14:12:47			0	36392	0	0	0	29958	28560	166449	26729	1063890	45458	111149	0	0	8011	602789	0	0
2024-07-28 14:13:47			0	36382	0	0	0	29968	28560	166557	27069	1063881	45480	111153	0	0	8010	603200	0	0
2024-07-28 14:14:47			0	36413	0	0	0	29981	28560	166581	27053	1063890	45481	111158	0	0	8012	601926	0	0
2024-07-28 14:15:47			0	36386	0	0	0	30005	28570	166537	27178	1063935	45459	111167	0	0	8010	603001	0	0
2024-07-28 14:16:47			0	36408	0	0	0	30007	28570	166697	26970	1064034	45482	111168	0	0	8011	602097	0	0
2024-07-28 14:17:47			0	36422	0	0	0	29989	28580	166425	27206	1064025	45472	111161	0	0	8013	601487	0	0
2024-07-28 14:18:47			0	36439	0	0	0	29968	28580	166329	27251	1064061	45460	111153	0	0	8014	600790	0	0
2024-07-28 14:19:47			0	36439	0	0	0	29940	28580	166441	27358	1063971	45472	111142	0	0	8014	600790	0	0
2024-07-28 14:20:47			0	36451	0	0	0	29932	28580	166261	26708	1063917	45450	111139	0	0	8015	600298	0	0
2024-07-28 14:21:47			0	36463	0	0	0	29927	28570	166301	26930	1063845	45449	111137	0	0	8016	599841	0	0
2024-07-28 14:22:47			0	36446	0	0	0	29916	28560	166317	27093	1063783	45448	111133	0	0	8015	600572	0	0
2024-07-28 14:23:47			0	36451	0	0	0	29911	28570	166345	27220	1063818	45449	111131	0	0	8016	600332	0	0
2024-07-28 14:24:47			0	36449	0	0	0	29940	28550	166189	27140	1063765	45447	111142	0	0	8015	600484	0	0
2024-07-28 14:25:47			0	36442	0	0	0	29955	28550	166373	27076	1063810	45447	111148	0	0	8014	600771	0	0
2024-07-28 14:26:47			0	36462	0	0	0	29955	28560	166253	26883	1063828	45435	111148	0	0	8015	599916	0	0
2024-07-28 14:27:47			0	36486	0	0	0	29950	28560	166157	26941	1063881	45458	111146	0	0	8017	598934	0	0
2024-07-28 14:28:47			0	36508	0	0	0	29945	28560	166069	27076	1063855	45447	111144	0	0	8018	598034	0	0
2024-07-28 14:29:47			0	36523	0	0	0	29966	28560	166069	27230	1063801	45458	111152	0	0	8019	597421	0	0
2024-07-28 14:30:47			0	36520	0	0	0	29981	28560	166153	27107	1063863	45470	111158	0	0	8018	597543	0	0
2024-07-28 14:31:47			0	36530	0	0	0	30002	28570	166109	27097	1063899	45471	111166	0	0	8019	597100	0	0
2024-07-28 14:32:47			0	36504	0	0	0	30020	28570	166025	26968	1064043	45471	111173	0	0	8017	598163	0	0
2024-07-28 14:33:47			0	36531	0	0	0	30015	28580	165961	27092	1064088	45472	111171	0	0	8019	597025	0	0
2024-07-28 14:34:47			0	36588	0	0	0	30033	28590	165837	27000	1064124	45496	111178	0	0	8022	594666	0	0
2024-07-28 14:35:47			0	36575	0	0	0	29984	28590	165749	26800	1064214	45474	111159	0	0	8022	595195	0	0
2024-07-28 14:36:47			0	36573	0	0	0	29976	28600	165661	27244	1064151	45474	111156	0	0	8022	595242	0	0
2024-07-28 14:37:47			0	36579	0	0	0	30033	28610	165781	27055	1064133	45475	111178	0	0	8021	594964	0	0
2024-07-28 14:38:47			0	36573	0	0	0	30062	28590	165821	26765	1064214	45474	111189	0	0	8020	595277	0	0
2024-07-28 14:39:47			0	36531	0	0	0	30083	28610	165981	26771	1064249	45476	111197	0	0	8018	596921	0	0
2024-07-28 14:40:47			0	36543	0	0	0	30083	28630	165897	26986	1064330	45477	111197	0	0	8018	596362	0	0
2024-07-28 14:41:47			0	36573	0	0	0	30038	28640	165853	27348	1064429	45489	111180	0	0	8021	595105	0	0
2024-07-28 14:42:47			0	36583	0	0	0	30049	28640	165781	27092	1064348	45489	111184	0	0	8021	594697	0	0
2024-07-28 14:43:47			0	36602	0	0	0	30114	28640	165590	27029	1064384	45479	111209	0	0	8021	593924	0	0
2024-07-28 14:44:47			0	36616	0	0	0	30186	28660	165562	26849	1064528	45502	111237	0	0	8021	593286	0	0
2024-07-28 14:45:47			0	36615	0	0	0	30202	28680	165614	26864	1064707	45515	111243	0	0	8021	593258	0	0
2024-07-28 14:46:47			0	36632	0	0	0	30207	28700	165414	27031	1064860	45506	111245	0	0	8022	592498	0	0
2024-07-28 14:47:47			0	36652	0	0	0	30135	28720	165354	27008	1064752	45485	111217	0	0	8024	591618	0	0
2024-07-28 14:48:47			0	36674	0	0	0	30101	28720	165202	26977	1064761	45486	111204	0	0	8026	590726	0	0
2024-07-28 14:49:47			0	36679	0	0	0	30072	28720	165210	26991	1064671	45474	111193	0	0	8027	590523	0	0
2024-07-28 14:50:47			0	36679	0	0	0	30101	28720	165194	26967	1064698	45474	111204	0	0	8027	590523	0	0
2024-07-28 14:51:47			0	36670	0	0	0	30044	28720	165202	26830	1064644	45474	111182	0	0	8027	590888	0	0
2024-07-28 14:52:47			0	36668	0	0	0	30025	28710	165262	27189	1064635	45474	111175	0	0	8027	591003	0	0
2024-07-28 14:53:47			0	36670	0	0	0	30031	28710	165214	27185	1064518	45440	111177	0	0	8027	590922	0	0
2024-07-28 14:54:47			0	36676	0	0	0	30101	28700	165298	26857	1064555	45472	111204	0	0	8026	590713	0	0
2024-07-28 14:55:47			0	36659	0	0	0	30127	28700	165362	26984	1064644	45484	111214	0	0	8025	591403	0	0
2024-07-28 14:56:47			0	36655	0	0	0	30116	28710	165370	26856	1064680	45484	111210	0	0	8025	591531	0	0
2024-07-28 14:57:47			0	36665	0	0	0	30101	28720	165378	26693	1064671	45474	111204	0	0	8026	591091	0	0
2024-07-28 14:58:47			0	36663	0	0	0	30064	28720	165254	26837	1064644	45474	111190	0	0	8026	591172	0	0
2024-07-28 14:59:47			0	36664	0	0	0	30038	28710	165142	26769	1064635	45474	111180	0	0	8027	591166	0	0
2024-07-28 15:00:47			0	36700	0	0	0	30044	28710	165122	26923	1064572	45462	111182	0	0	8029	589707	0	0
2024-07-28 15:01:47			0	36678	0	0	0	30077	28700	165146	26679	1064563	45462	111195	0	0	8027	590632	0	0
2024-07-28 15:02:47			0	36692	0	0	0	30080	28700	165278	26935	1064590	45462	111196	0	0	8028	590065	0	0
2024-07-28 15:03:47			0	36666	0	0	0	30090	28700	165270	26817	1064644	45473	111200	0	0	8026	591119	0	0
2024-07-28 15:04:47			0	36680	0	0	0	30093	28700	165362	26691	1064590	45462	111201	0	0	8027	590551	0	0
2024-07-28 15:05:47			0	36701	0	0	0	30096	28720	165242	26556	1064698	45485	111202	0	0	8028	589632	0	0
2024-07-28 15:06:47			0	36699	0	0	0	30116	28700	165190	26651	1064617	45473	111210	0	0	8027	589781	0	0
2024-07-28 15:07:47			0	36705	0	0	0	30127	28720	165226	26760	1064707	45486	111214	0	0	8028	589470	0	0
2024-07-28 15:08:47			0	36696	0	0	0	30129	28720	165226	26802	1064761	45475	111215	0	0	8027	589835	0	0
2024-07-28 15:09:47			0	36707	0	0	0	30119	28720	165126	27166	1064761	45486	111211	0	0	8028	589390	0	0
2024-07-28 15:10:47			0	36725	0	0	0	30145	28740	165090	27008	1064761	45476	111221	0	0	8029	588593	0	0
2024-07-28 15:11:47			0	36717	0	0	0	30163	28730	164966	26830	1064851	45486	111228	0	0	8028	588951	0	0
2024-07-28 15:12:47			0	36751	0	0	0	30179	28740	165006	26757	1064905	45477	111234	0	0	8030	587543	0	0
2024-07-28 15:13:47			0	36726	0	0	0	30184	28750	165046	27097	1064896	45489	111236	0	0	8028	588519	0	0
2024-07-28 15:14:47			0	36764	0	0	0	30192	28750	164938	26661	1064950	45489	111239	0	0	8030	586984	0	0
2024-07-28 15:15:47			0	36755	0	0	0	30205	28760	164854	27085	1065075	45490	111244	0	0	8030	587313	0	0
2024-07-28 15:16:47			0	36761	0	0	0	30207	28770	164858	26998	1065093	45491	111245	0	0	8030	587037	0	0
2024-07-28 15:17:47			0	36766	0	0	0	30220	28770	164886	26686	1065120	45502	111250	0	0	8030	586835	0	0
2024-07-28 15:18:47			0	36769	0	0	0	30236	28780	164838	26989	1065129	45492	111256	0	0	8030	586680	0	0
2024-07-28 15:19:47			0	36761	0	0	0	30215	28790	164890	27031	1065174	45482	111248	0	0	8030	586969	0	0
2024-07-28 15:20:47			0	36759	0	0	0	30223	28790	164874	26994	1065156	45493	111251	0	0	8030	587050	0	0
2024-07-28 15:21:47			0	36757	0	0	0	30210	28800	164830	27130	1065165	45483	111246	0	0	8030	587096	0	0
2024-07-28 15:22:47			0	36770	0	0	0	30205	28800	164722	26883	1065228	45483	111244	0	0	8031	586572	0	0
2024-07-28 15:23:47			0	36784	0	0	0	30212	28800	164618	27059	1065192	45483	111247	0	0	8031	586008	0	0
2024-07-28 15:24:47			0	36815	0	0	0	30212	28810	164582	26870	1065210	45484	111247	0	0	8033	584725	0	0
2024-07-28 15:25:47			0	36867	0	0	0	30218	28810	164374	26871	1065300	45484	111249	0	0	8036	582635	0	0
2024-07-28 15:26:47			0	36871	0	0	0	30236	28810	164366	26771	1065300	45484	111256	0	0	8036	582475	0	0
2024-07-28 15:27:47			0	36879	0	0	0	30233	28820	164374	27027	1065264	45486	111255	0	0	8037	582120	0	0
2024-07-28 15:28:47			0	36903	0	0	0	30264	28820	164266	26733	1065318	45486	111267	0	0	8038	581158	0	0
2024-07-28 15:29:47			0	36909	0	0	0	30285	28830	164214	26759	1065408	45507	111275	0	0	8038	580883	0	0
2024-07-28 15:30:47			0	36926	0	0	0	30301	28830	164106	26830	1065417	45497	111281	0	0	8038	580203	0	0
2024-07-28 15:31:47			0	36931	0	0	0	30298	28850	164102	27043	1065551	45499	111280	0	0	8039	579935	0	0
2024-07-28 15:32:47			0	36940	0	0	0	30293	28860	164074	26830	1065596	45500	111278	0	0	8039	579542	0	0
2024-07-28 15:33:47			0	36981	0	0	0	30314	28860	163870	26944	1065578	45511	111286	0	0	8041	577903	0	0
2024-07-28 15:34:47			0	37002	0	0	0	30306	28870	163766	26689	1065587	45500	111283	0	0	8043	577032	0	0
2024-07-28 15:35:47			0	37018	0	0	0	30306	28870	163698	26942	1065641	45500	111283	0	0	8044	576394	0	0
2024-07-28 15:36:47			0	37028	0	0	0	30314	28870	163714	26706	1065704	45501	111286	0	0	8044	575996	0	0
2024-07-28 15:37:47			0	37022	0	0	0	30327	28890	163562	26785	1065731	45503	111291	0	0	8044	576168	0	0
2024-07-28 15:38:47			0	37033	0	0	0	30335	28890	163570	26753	1065731	45492	111294	0	0	8044	575730	0	0
2024-07-28 15:39:47			0	37046	0	0	0	30327	28890	163610	26850	1065758	45503	111291	0	0	8045	575213	0	0
2024-07-28 15:40:47			0	37029	0	0	0	30342	28900	163642	27218	1065749	45503	111297	0	0	8044	575856	0	0
2024-07-28 15:41:47			0	37019	0	0	0	30342	28900	163602	26826	1065839	45493	111297	0	0	8043	576254	0	0
2024-07-28 15:42:47			0	37032	0	0	0	30348	28910	163730	26911	1065857	45494	111299	0	0	8044	575703	0	0
2024-07-28 15:43:47			0	37020	0	0	0	30353	28900	163566	27138	1065839	45504	111301	0	0	8043	576214	0	0
2024-07-28 15:44:47			0	37023	0	0	0	30363	28920	163710	27005	1065974	45516	111305	0	0	8043	576028	0	0
2024-07-28 15:45:47			0	37014	0	0	0	30350	28930	163654	26902	1065965	45496	111300	0	0	8043	576353	0	0
2024-07-28 15:46:47			0	37029	0	0	0	30335	28930	163478	26930	1065965	45496	111294	0	0	8044	575756	0	0
2024-07-28 15:47:47			0	37018	0	0	0	30361	28930	163538	27164	1065920	45507	111304	0	0	8043	576194	0	0
2024-07-28 15:48:47			0	37001	0	0	0	30384	28930	163570	27010	1066001	45507	111313	0	0	8042	576871	0	0
2024-07-28 15:49:47			0	37010	0	0	0	30394	28950	163694	26896	1066064	45521	111317	0	0	8042	576446	0	0
2024-07-28 15:50:47			0	37023	0	0	0	30405	28950	163506	27024	1066082	45498	111321	0	0	8043	575928	0	0
2024-07-28 15:51:47			0	37031	0	0	0	30418	28970	163510	26838	1066198	45500	111326	0	0	8043	575543	0	0
2024-07-28 15:52:47			0	37055	0	0	0	30405	28980	163402	26661	1066162	45512	111321	0	0	8045	574554	0	0
2024-07-28 15:53:47			0	37087	0	0	0	30394	28980	163254	26925	1066207	45500	111317	0	0	8047	573283	0	0
2024-07-28 15:54:47			0	37089	0	0	0	30392	28980	163186	26706	1066180	45500	111316	0	0	8047	573204	0	0
2024-07-28 15:55:47			0	37085	0	0	0	30485	28990	163230	26538	1066198	45512	111352	0	0	8045	573329	0	0
2024-07-28 15:56:47			0	37062	0	0	0	30477	29010	163370	26873	1066450	45525	111349	0	0	8044	574176	0	0
2024-07-28 15:57:47			0	37083	0	0	0	30459	29020	163246	27005	1066504	45528	111342	0	0	8046	573309	0	0
2024-07-28 15:58:47			0	37077	0	0	0	30420	29030	163282	27083	1066459	45517	111327	0	0	8046	573514	0	0
2024-07-28 15:59:47			0	37069	0	0	0	30405	29030	163262	27057	1066414	45495	111321	0	0	8046	573832	0	0
2024-07-28 16:00:47			0	37043	0	0	0	30407	29030	163402	26864	1066405	45495	111322	0	0	8044	574865	0	0
2024-07-28 16:01:47			0	37028	0	0	0	30428	29030	163450	26637	1066405	45517	111330	0	0	8043	575462	0	0
2024-07-28 16:02:47			0	37033	0	0	0	30449	29030	163442	26944	1066432	45517	111338	0	0	8043	575263	0	0
2024-07-28 16:03:47			0	37027	0	0	0	30462	29030	163498	27022	1066495	45505	111343	0	0	8042	575501	0	0
2024-07-28 16:04:47			0	37031	0	0	0	30488	29040	163494	26883	1066477	45518	111353	0	0	8042	575309	0	0
2024-07-28 16:05:47			0	37048	0	0	0	30451	29040	163438	26915	1066567	45530	111339	0	0	8044	574633	0	0
2024-07-28 16:06:47			0	37041	0	0	0	30446	29040	163418	26890	1066513	45519	111337	0	0	8044	574911	0	0
2024-07-28 16:07:47			0	37048	0	0	0	30415	29050	163338	26960	1066450	45507	111325	0	0	8045	574599	0	0
2024-07-28 16:08:47			0	37023	0	0	0	30464	29040	163398	26833	1066477	45506	111344	0	0	8042	575627	0	0
2024-07-28 16:09:47			0	36991	0	0	0	30488	29050	163418	26615	1066585	45507	111353	0	0	8040	576868	0	0
2024-07-28 16:10:47			0	36990	0	0	0	30477	29060	163430	26960	1066675	45519	111349	0	0	8040	576875	0	0
2024-07-28 16:11:47			0	36991	0	0	0	30477	29070	163530	27045	1066585	45499	111349	0	0	8040	576801	0	0
2024-07-28 16:12:47			0	36990	0	0	0	30464	29060	163502	27069	1066684	45509	111344	0	0	8040	576875	0	0
2024-07-28 16:13:47			0	37010	0	0	0	30475	29070	163482	26554	1066612	45509	111348	0	0	8041	576045	0	0
2024-07-28 16:14:47			0	36991	0	0	0	30545	29070	163426	26913	1066702	45509	111375	0	0	8039	576801	0	0
2024-07-28 16:15:47			0	37007	0	0	0	30516	29090	163490	26691	1066836	45523	111364	0	0	8041	576097	0	0
2024-07-28 16:16:47			0	36999	0	0	0	30483	29090	163462	26812	1066791	45523	111351	0	0	8041	576416	0	0
2024-07-28 16:17:47			0	37000	0	0	0	30496	29090	163450	26833	1066791	45501	111356	0	0	8041	576376	0	0
2024-07-28 16:18:47			0	37010	0	0	0	30519	29100	163570	26783	1066809	45513	111365	0	0	8041	575944	0	0
2024-07-28 16:19:47			0	36992	0	0	0	30535	29110	163526	26897	1066818	45514	111371	0	0	8040	576628	0	0
2024-07-28 16:20:47			0	37002	0	0	0	30576	29100	163486	26677	1066890	45524	111387	0	0	8039	576263	0	0
2024-07-28 16:21:47			0	36982	0	0	0	30537	29110	163470	26875	1067016	45514	111372	0	0	8039	577026	0	0
2024-07-28 16:22:47			0	37015	0	0	0	30511	29110	163470	27163	1066962	45525	111362	0	0	8041	575712	0	0
2024-07-28 16:23:47			0	37090	0	0	0	30524	29120	163174	27185	1066926	45503	111367	0	0	8046	572699	0	0
2024-07-28 16:24:47			0	37110	0	0	0	30535	29120	162990	26993	1066971	45514	111371	0	0	8047	571906	0	0
2024-07-28 16:25:47			0	37124	0	0	0	30553	29130	162982	27128	1066962	45539	111378	0	0	8047	571318	0	0
2024-07-28 16:26:47			0	37144	0	0	0	30581	29140	162878	26932	1067016	45528	111389	0	0	8048	570493	0	0
2024-07-28 16:27:47			0	37175	0	0	0	30545	29140	162798	26958	1067061	45527	111375	0	0	8050	569268	0	0
2024-07-28 16:28:47			0	37200	0	0	0	30527	29150	162638	26753	1067052	45529	111368	0	0	8052	568248	0	0
2024-07-28 16:29:47			0	37216	0	0	0	30537	29150	162494	27090	1066998	45518	111372	0	0	8053	567617	0	0
2024-07-28 16:30:47			0	37221	0	0	0	30540	29140	162518	27085	1066980	45516	111373	0	0	8053	567453	0	0
2024-07-28 16:31:47			0	37219	0	0	0	30548	29130	162542	27159	1066944	45516	111376	0	0	8053	567565	0	0
2024-07-28 16:32:47			0	37202	0	0	0	30558	29140	162602	26883	1066989	45517	111380	0	0	8052	568202	0	0
2024-07-28 16:33:47			0	37200	0	0	0	30566	29150	162618	26849	1067025	45529	111383	0	0	8051	568248	0	0
2024-07-28 16:34:47			0	37209	0	0	0	30571	29140	162574	26713	1067043	45517	111385	0	0	8052	567926	0	0
2024-07-28 16:35:47			0	37200	0	0	0	30607	29150	162566	27034	1067133	45529	111399	0	0	8051	568248	0	0
2024-07-28 16:36:47			0	37202	0	0	0	30607	29160	162574	26726	1067214	45530	111399	0	0	8051	568136	0	0
2024-07-28 16:37:47			0	37240	0	0	0	30599	29170	162426	27050	1067304	45542	111396	0	0	8053	566606	0	0
2024-07-28 16:38:47			0	37246	0	0	0	30618	29170	162270	26661	1067250	45531	111403	0	0	8053	566370	0	0
2024-07-28 16:39:47			0	37248	0	0	0	30631	29170	162338	26994	1067304	45542	111408	0	0	8053	566291	0	0
2024-07-28 16:40:47			0	37235	0	0	0	30636	29180	162422	27062	1067385	45543	111410	0	0	8052	566770	0	0
2024-07-28 16:41:47			0	37234	0	0	0	30641	29180	162366	26953	1067376	45543	111412	0	0	8052	566809	0	0
2024-07-28 16:42:47			0	37223	0	0	0	30636	29190	162490	26892	1067457	45556	111410	0	0	8052	567209	0	0
2024-07-28 16:43:47			0	37210	0	0	0	30651	29200	162426	27104	1067466	45534	111416	0	0	8051	567689	0	0
2024-07-28 16:44:47			0	37207	0	0	0	30654	29200	162482	26994	1067502	45534	111417	0	0	8051	567807	0	0
2024-07-28 16:45:47			0	37195	0	0	0	30657	29220	162486	27019	1067564	45526	111418	0	0	8050	568214	0	0
2024-07-28 16:46:47			0	37173	0	0	0	30638	29220	162634	26738	1067582	45525	111411	0	0	8049	569083	0	0
2024-07-28 16:47:47			0	37169	0	0	0	30651	29220	162594	27041	1067474	45536	111416	0	0	8048	569241	0	0
2024-07-28 16:48:47			0	37136	0	0	0	30659	29230	162778	26901	1067555	45538	111419	0	0	8046	570512	0	0
2024-07-28 16:49:47			0	37166	0	0	0	30659	29230	162706	26540	1067600	45526	111419	0	0	8048	569326	0	0
2024-07-28 16:50:47			0	37147	0	0	0	30683	29240	162758	26625	1067699	45527	111428	0	0	8047	570044	0	0
2024-07-28 16:51:47			0	37143	0	0	0	30688	29250	162710	26972	1067726	45540	111430	0	0	8046	570169	0	0
2024-07-28 16:52:47			0	37138	0	0	0	30724	29250	162834	27000	1067744	45539	111444	0	0	8046	570366	0	0
2024-07-28 16:53:47			0	37111	0	0	0	30709	29250	162842	26569	1067807	45550	111438	0	0	8044	571435	0	0
2024-07-28 16:54:47			0	37126	0	0	0	30698	29270	162798	26783	1067852	45530	111434	0	0	8045	570775	0	0
2024-07-28 16:55:47			0	37149	0	0	0	30706	29290	162730	27137	1067861	45542	111437	0	0	8047	569799	0	0
2024-07-28 16:56:47			0	37156	0	0	0	30693	29290	162686	26981	1067888	45542	111432	0	0	8047	569523	0	0
2024-07-28 16:57:47			0	37138	0	0	0	30701	29290	162778	26774	1067843	45554	111435	0	0	8046	570234	0	0
2024-07-28 16:58:47			0	37144	0	0	0	30693	29290	162794	26814	1067861	45532	111432	0	0	8047	569997	0	0
2024-07-28 16:59:47			0	37144	0	0	0	30685	29290	162674	26797	1067861	45542	111429	0	0	8047	569997	0	0
2024-07-28 17:00:47			0	37136	0	0	0	30701	29280	162870	26958	1067897	45541	111435	0	0	8046	570346	0	0
2024-07-28 17:01:47			0	37142	0	0	0	30714	29300	162822	27020	1067942	45544	111440	0	0	8046	570043	0	0
2024-07-28 17:02:47			0	37138	0	0	0	30711	29300	162818	26706	1067942	45533	111439	0	0	8046	570201	0	0
2024-07-28 17:03:47			0	37125	0	0	0	30719	29290	162874	26883	1067897	45543	111442	0	0	8045	570748	0	0
2024-07-28 17:04:47			0	37131	0	0	0	30737	29300	162934	27052	1067933	45554	111449	0	0	8045	570477	0	0
2024-07-28 17:05:47			0	37157	0	0	0	30732	29300	162906	26875	1067996	45544	111447	0	0	8047	569450	0	0
2024-07-28 17:06:47			0	37165	0	0	0	30745	29320	162710	26687	1068032	45557	111452	0	0	8047	569068	0	0
2024-07-28 17:07:47			0	37178	0	0	0	30779	29320	162570	27083	1068131	45545	111465	0	0	8047	568555	0	0
2024-07-28 17:08:47			0	37188	0	0	0	30779	29330	162534	26932	1068122	45557	111465	0	0	8048	568127	0	0
2024-07-28 17:09:47			0	37206	0	0	0	30763	29330	162390	27055	1068185	45536	111459	0	0	8049	567418	0	0
2024-07-28 17:10:47			0	37197	0	0	0	30740	29350	162606	27270	1068239	45559	111450	0	0	8049	567707	0	0
2024-07-28 17:11:47			0	37165	0	0	0	30745	29340	162558	27116	1068176	45548	111452	0	0	8047	569002	0	0
2024-07-28 17:12:47			0	37148	0	0	0	30737	29340	162766	27367	1068176	45548	111449	0	0	8046	569673	0	0
2024-07-28 17:13:47			0	37124	0	0	0	30745	29350	162778	27346	1068221	45538	111452	0	0	8045	570588	0	0
2024-07-28 17:14:47			0	37130	0	0	0	30750	29350	162682	26984	1068185	45548	111454	0	0	8045	570351	0	0
2024-07-28 17:15:47			0	37107	0	0	0	30753	29350	162794	26939	1068131	45537	111455	0	0	8044	571261	0	0
2024-07-28 17:16:47			0	37127	0	0	0	30748	29350	162806	27064	1068185	45537	111453	0	0	8045	570470	0	0
2024-07-28 17:17:47			0	37108	0	0	0	30729	29350	162666	27216	1068158	45526	111446	0	0	8044	571221	0	0
2024-07-28 17:18:47			0	37131	0	0	0	30732	29360	162782	26986	1068149	45528	111447	0	0	8046	570278	0	0
2024-07-28 17:19:47			0	37122	0	0	0	30737	29350	162758	27123	1068140	45527	111449	0	0	8045	570667	0	0
2024-07-28 17:20:47			0	37115	0	0	0	30748	29360	162854	27033	1068203	45528	111453	0	0	8044	570911	0	0
2024-07-28 17:21:47			0	37078	0	0	0	30758	29350	162922	27097	1068185	45548	111457	0	0	8042	572409	0	0
2024-07-28 17:22:47			0	37064	0	0	0	30789	29370	162970	26759	1068329	45562	111469	0	0	8041	572898	0	0
2024-07-28 17:23:47			0	37036	0	0	0	30820	29370	162986	26549	1068383	45562	111481	0	0	8039	574009	0	0
2024-07-28 17:24:47			0	37019	0	0	0	30794	29380	163074	26871	1068436	45575	111471	0	0	8038	574650	0	0
2024-07-28 17:25:47			0	37036	0	0	0	30784	29390	163110	27192	1068391	45564	111467	0	0	8039	573942	0	0
2024-07-28 17:26:47			0	37013	0	0	0	30802	29390	163122	26998	1068391	45553	111474	0	0	8038	574855	0	0
2024-07-28 17:27:47			0	37006	0	0	0	30812	29390	163170	26745	1068445	45576	111478	0	0	8037	575134	0	0
2024-07-28 17:28:47			0	36999	0	0	0	30797	29390	163182	27027	1068427	45564	111472	0	0	8037	575412	0	0
2024-07-28 17:29:47			0	37003	0	0	0	30789	29390	163178	26932	1068472	45553	111469	0	0	8037	575253	0	0
2024-07-28 17:30:47			0	37002	0	0	0	30789	29390	163186	27190	1068418	45541	111469	0	0	8037	575293	0	0
2024-07-28 17:31:47			0	37037	0	0	0	30805	29400	163138	27185	1068464	45542	111475	0	0	8039	573869	0	0
2024-07-28 17:32:47			0	37011	0	0	0	30799	29390	163102	27131	1068337	45541	111473	0	0	8038	574935	0	0
2024-07-28 17:33:47			0	37012	0	0	0	30797	29400	163158	27041	1068437	45554	111472	0	0	8038	574862	0	0
2024-07-28 17:34:47			0	37012	0	0	0	30758	29390	163166	26885	1068454	45553	111457	0	0	8038	574895	0	0
2024-07-28 17:35:47			0	37009	0	0	0	30748	29390	163078	27168	1068427	45553	111453	0	0	8038	575014	0	0
2024-07-28 17:36:47			0	37028	0	0	0	30740	29390	162974	27048	1068337	45541	111450	0	0	8040	574259	0	0
2024-07-28 17:37:47			0	37035	0	0	0	30709	29390	163058	26939	1068337	45553	111438	0	0	8040	573982	0	0
2024-07-28 17:38:47			0	37012	0	0	0	30703	29380	163030	27088	1068275	45552	111436	0	0	8039	574928	0	0
2024-07-28 17:39:47			0	37017	0	0	0	30748	29380	163194	26968	1068328	45541	111453	0	0	8039	574730	0	0
2024-07-28 17:40:47			0	36990	0	0	0	30766	29380	163182	27197	1068328	45541	111460	0	0	8037	575803	0	0
2024-07-28 17:41:47			0	36991	0	0	0	30789	29390	163270	27241	1068364	45564	111469	0	0	8037	575730	0	0
2024-07-28 17:42:47			0	36984	0	0	0	30792	29390	163206	27161	1068427	45576	111470	0	0	8036	576009	0	0
2024-07-28 17:43:47			0	37005	0	0	0	30786	29390	163126	26757	1068454	45541	111468	0	0	8037	575173	0	0
2024-07-28 17:44:47			0	37014	0	0	0	30805	29400	163038	26960	1068464	45542	111475	0	0	8038	574782	0	0
2024-07-28 17:45:47			0	37017	0	0	0	30807	29390	163026	26873	1068508	45553	111476	0	0	8038	574696	0	0
2024-07-28 17:46:47			0	37033	0	0	0	30799	29390	163070	26757	1068499	45553	111473	0	0	8039	574061	0	0
2024-07-28 17:47:47			0	37028	0	0	0	30753	29410	163082	27211	1068509	45543	111455	0	0	8039	574193	0	0
2024-07-28 17:48:47			0	37023	0	0	0	30776	29410	163102	26928	1068482	45566	111464	0	0	8039	574391	0	0
2024-07-28 17:49:47			0	37015	0	0	0	30836	29410	163122	27170	1068536	45555	111487	0	0	8037	574709	0	0
2024-07-28 17:50:47			0	36990	0	0	0	30846	29410	163174	27168	1068626	45566	111491	0	0	8036	575703	0	0
2024-07-28 17:51:47			0	37016	0	0	0	30844	29420	163118	26923	1068662	45556	111490	0	0	8037	574636	0	0
2024-07-28 17:52:47			0	37044	0	0	0	30857	29420	162942	27000	1068725	45557	111495	0	0	8039	573524	0	0
2024-07-28 17:53:47			0	37091	0	0	0	30802	29420	162886	27109	1068671	45568	111474	0	0	8042	571662	0	0
2024-07-28 17:54:47			0	37091	0	0	0	30750	29440	162730	26693	1068616	45558	111454	0	0	8043	571595	0	0
2024-07-28 17:55:47			0	37104	0	0	0	30776	29420	162662	26928	1068563	45535	111464	0	0	8044	571147	0	0
2024-07-28 17:56:47			0	37087	0	0	0	30862	29430	162690	27076	1068572	45568	111497	0	0	8041	571787	0	0
2024-07-28 17:57:47			0	37076	0	0	0	30854	29430	162898	26816	1068715	45557	111494	0	0	8041	572222	0	0
2024-07-28 17:58:47			0	37084	0	0	0	30836	29430	162758	26498	1068742	45545	111487	0	0	8041	571906	0	0
2024-07-28 17:59:47			0	37098	0	0	0	30836	29440	162794	26717	1068679	45547	111487	0	0	8042	571318	0	0
2024-07-28 18:00:47			0	37068	0	0	0	30818	29430	162802	26625	1068653	45557	111480	0	0	8041	572539	0	0
2024-07-28 18:01:47			0	37060	0	0	0	30781	29430	162802	27039	1068661	45557	111466	0	0	8041	572856	0	0
2024-07-28 18:02:47			0	37061	0	0	0	30789	29440	162882	26984	1068598	45558	111469	0	0	8041	572783	0	0
2024-07-28 18:03:47			0	37043	0	0	0	30810	29420	162926	26658	1068617	45557	111477	0	0	8039	573564	0	0
2024-07-28 18:04:47			0	37067	0	0	0	30823	29430	162906	27033	1068635	45545	111482	0	0	8041	572579	0	0
2024-07-28 18:05:47			0	37039	0	0	0	30825	29430	162910	26932	1068635	45557	111483	0	0	8039	573689	0	0
2024-07-28 18:06:47			0	37037	0	0	0	30846	29430	163046	27019	1068688	45579	111491	0	0	8038	573769	0	0
2024-07-28 18:07:47			0	37046	0	0	0	30862	29450	163078	26946	1068796	45558	111497	0	0	8039	573345	0	0
2024-07-28 18:08:47			0	37034	0	0	0	30867	29450	162974	26883	1068796	45570	111499	0	0	8038	573821	0	0
2024-07-28 18:09:47			0	37032	0	0	0	30885	29450	162902	27000	1068805	45547	111506	0	0	8038	573900	0	0
2024-07-28 18:10:47			0	37052	0	0	0	30901	29460	162882	27067	1068931	45572	111512	0	0	8039	573074	0	0
2024-07-28 18:11:47			0	37070	0	0	0	30906	29460	162678	26752	1068931	45572	111514	0	0	8040	572360	0	0
2024-07-28 18:12:47			0	37080	0	0	0	30927	29460	162806	27034	1068877	45572	111522	0	0	8040	571964	0	0
2024-07-28 18:13:47			0	37075	0	0	0	30924	29470	162770	27300	1069004	45561	111521	0	0	8040	572129	0	0
2024-07-28 18:14:47			0	37085	0	0	0	30935	29480	162670	27034	1069048	45584	111525	0	0	8040	571700	0	0
2024-07-28 18:15:47			0	37063	0	0	0	30932	29480	162734	27007	1069103	45584	111524	0	0	8039	572571	0	0
2024-07-28 18:16:47			0	37069	0	0	0	30919	29500	162758	27175	1069075	45575	111519	0	0	8039	572267	0	0
2024-07-28 18:17:47			0	37068	0	0	0	30890	29500	162718	26710	1069111	45586	111508	0	0	8040	572306	0	0
2024-07-28 18:18:47			0	37108	0	0	0	30877	29490	162734	27137	1069066	45563	111503	0	0	8042	570756	0	0
2024-07-28 18:19:47			0	37097	0	0	0	30890	29500	162554	26878	1068967	45563	111508	0	0	8042	571158	0	0
2024-07-28 18:20:47			0	37110	0	0	0	30896	29490	162602	27090	1068985	45563	111510	0	0	8042	570677	0	0
2024-07-28 18:21:47			0	37084	0	0	0	30885	29490	162670	27123	1068931	45575	111506	0	0	8041	571706	0	0
2024-07-28 18:22:47			0	37069	0	0	0	30901	29490	162666	26817	1069003	45563	111512	0	0	8040	572300	0	0
2024-07-28 18:23:47			0	37051	0	0	0	30864	29490	162622	26967	1068950	45552	111498	0	0	8039	573013	0	0
2024-07-28 18:24:47			0	37025	0	0	0	30864	29490	162766	26904	1068976	45563	111498	0	0	8038	574045	0	0
2024-07-28 18:25:47			0	37017	0	0	0	30875	29480	162882	26771	1068914	45551	111502	0	0	8037	574396	0	0
2024-07-28 18:26:47			0	37012	0	0	0	30864	29480	162930	26955	1068968	45551	111498	0	0	8037	574594	0	0
2024-07-28 18:27:47			0	37003	0	0	0	30872	29480	162982	27000	1068914	45584	111501	0	0	8036	574952	0	0
2024-07-28 18:28:47			0	36991	0	0	0	30896	29490	163034	27154	1069003	45585	111510	0	0	8035	575395	0	0
2024-07-28 18:29:47			0	36994	0	0	0	30914	29500	163058	26994	1068994	45575	111517	0	0	8035	575243	0	0
2024-07-28 18:30:47			0	36993	0	0	0	30901	29490	163110	26906	1068950	45563	111512	0	0	8035	575316	0	0
2024-07-28 18:31:47			0	36985	0	0	0	30909	29500	163098	27208	1069057	45576	111515	0	0	8035	575600	0	0
2024-07-28 18:32:47			0	36991	0	0	0	30903	29490	163038	26967	1069066	45563	111513	0	0	8035	575395	0	0
2024-07-28 18:33:47			0	36989	0	0	0	30901	29500	163038	26871	1069084	45564	111512	0	0	8035	575441	0	0
2024-07-28 18:34:47			0	36979	0	0	0	30906	29500	163066	27173	1069048	45552	111514	0	0	8034	575839	0	0
2024-07-28 18:35:47			0	36996	0	0	0	30903	29500	163070	26807	1068949	45576	111513	0	0	8035	575163	0	0
2024-07-28 18:36:47			0	36996	0	0	0	30906	29500	163018	27046	1069075	45563	111514	0	0	8035	575163	0	0
2024-07-28 18:37:47			0	36987	0	0	0	30896	29500	163078	26830	1069084	45553	111510	0	0	8035	575521	0	0
2024-07-28 18:38:47			0	36990	0	0	0	30888	29510	163094	27059	1068985	45554	111507	0	0	8035	575368	0	0
2024-07-28 18:39:47			0	36980	0	0	0	30888	29490	163174	26885	1068904	45563	111507	0	0	8035	575833	0	0
2024-07-28 18:40:47			0	36961	0	0	0	30893	29500	163242	27074	1068967	45575	111509	0	0	8034	576555	0	0
2024-07-28 18:41:47			0	36937	0	0	0	30893	29500	163338	27027	1069048	45575	111509	0	0	8032	577511	0	0
2024-07-28 18:42:47			0	36929	0	0	0	30901	29480	163406	26733	1068968	45562	111512	0	0	8031	577897	0	0
2024-07-28 18:43:47			0	36929	0	0	0	30888	29500	163342	26609	1068994	45563	111507	0	0	8032	577830	0	0
2024-07-28 18:44:47			0	36914	0	0	0	30903	29490	163366	26842	1069111	45563	111513	0	0	8031	578462	0	0
2024-07-28 18:45:47			0	36916	0	0	0	30901	29490	163442	26804	1068958	45575	111512	0	0	8031	578382	0	0
2024-07-28 18:46:47			0	36902	0	0	0	30906	29500	163390	26906	1069048	45563	111514	0	0	8030	578907	0	0
2024-07-28 18:47:47			0	36894	0	0	0	30914	29500	163494	26842	1068994	45563	111517	0	0	8029	579227	0	0
2024-07-28 18:48:47			0	36884	0	0	0	30919	29490	163566	26576	1068985	45575	111519	0	0	8029	579660	0	0
2024-07-28 18:49:47			0	36897	0	0	0	30914	29500	163578	26741	1069102	45575	111517	0	0	8029	579107	0	0
2024-07-28 18:50:47			0	36895	0	0	0	30911	29490	163462	27218	1069066	45585	111516	0	0	8029	579220	0	0
2024-07-28 18:51:47			0	36888	0	0	0	30919	29500	163582	26987	1069102	45575	111519	0	0	8029	579466	0	0
2024-07-28 18:52:47			0	36900	0	0	0	30922	29510	163538	26648	1069120	45599	111520	0	0	8030	578953	0	0
2024-07-28 18:53:47			0	36931	0	0	0	30932	29510	163522	27039	1069156	45577	111524	0	0	8031	577717	0	0
2024-07-28 18:54:47			0	36937	0	0	0	30935	29510	163394	26845	1069102	45554	111525	0	0	8032	577478	0	0
2024-07-28 18:55:47			0	36951	0	0	0	30937	29520	163198	26982	1069166	45587	111526	0	0	8032	576886	0	0
2024-07-28 18:56:47			0	36990	0	0	0	30932	29510	163102	26993	1069183	45577	111524	0	0	8035	575368	0	0
2024-07-28 18:57:47			0	36996	0	0	0	30937	29520	163034	26868	1069175	45578	111526	0	0	8035	575096	0	0
2024-07-28 18:58:47			0	36976	0	0	0	30940	29520	163254	26987	1069202	45588	111527	0	0	8034	575891	0	0
2024-07-28 18:59:47			0	36953	0	0	0	30942	29540	163294	26899	1069256	45590	111528	0	0	8032	576740	0	0
2024-07-28 19:00:47			0	36933	0	0	0	30914	29530	163322	26821	1069211	45589	111517	0	0	8032	577570	0	0
2024-07-28 19:01:47			0	36931	0	0	0	30924	29530	163374	27000	1069211	45567	111521	0	0	8031	577650	0	0
2024-07-28 19:02:47			0	36952	0	0	0	30927	29520	163302	26786	1069193	45577	111522	0	0	8033	576846	0	0
2024-07-28 19:03:47			0	36952	0	0	0	30927	29530	163282	27038	1069211	45579	111522	0	0	8033	576813	0	0
2024-07-28 19:04:47			0	36939	0	0	0	30929	29530	163426	26986	1069211	45579	111523	0	0	8032	577331	0	0
2024-07-28 19:05:47			0	36925	0	0	0	30937	29520	163286	27041	1069229	45578	111526	0	0	8031	577922	0	0
2024-07-28 19:06:47			0	36900	0	0	0	30929	29530	163414	26948	1069238	45589	111523	0	0	8030	578886	0	0
2024-07-28 19:07:47			0	36920	0	0	0	30929	29540	163410	26953	1069283	45580	111523	0	0	8031	578055	0	0
2024-07-28 19:08:47			0	36914	0	0	0	30924	29530	163354	26981	1069184	45589	111521	0	0	8030	578327	0	0
2024-07-28 19:09:47			0	36903	0	0	0	30922	29530	163390	26967	1069193	45568	111520	0	0	8030	578766	0	0
2024-07-28 19:10:47			0	36940	0	0	0	30911	29530	163402	26804	1069211	45567	111516	0	0	8032	577291	0	0
2024-07-28 19:11:47			0	36920	0	0	0	30898	29530	163426	27111	1069193	45557	111511	0	0	8031	578088	0	0
2024-07-28 19:12:47			0	36918	0	0	0	30896	29520	163346	26873	1069175	45566	111510	0	0	8031	578202	0	0
2024-07-28 19:13:47			0	36893	0	0	0	30924	29530	163534	26894	1069211	45579	111521	0	0	8029	579165	0	0
2024-07-28 19:14:47			0	36861	0	0	0	30927	29510	163598	26847	1069129	45565	111522	0	0	8027	580512	0	0
2024-07-28 19:15:47			0	36849	0	0	0	30922	29520	163678	26717	1069202	45566	111520	0	0	8027	580958	0	0
2024-07-28 19:16:47			0	36837	0	0	0	30916	29510	163734	26743	1069183	45577	111518	0	0	8026	581472	0	0
2024-07-28 19:17:47			0	36847	0	0	0	30919	29520	163722	27114	1069148	45578	111519	0	0	8027	581038	0	0
2024-07-28 19:18:47			0	36821	0	0	0	30919	29520	163934	26696	1069193	45577	111519	0	0	8025	582079	0	0
2024-07-28 19:19:47			0	36832	0	0	0	30914	29520	163622	26941	1069139	45565	111517	0	0	8026	581638	0	0
2024-07-28 19:20:47			0	36812	0	0	0	30911	29520	163774	26654	1069175	45578	111516	0	0	8025	582440	0	0
2024-07-28 19:21:47			0	36869	0	0	0	30932	29500	163558	26715	1069165	45564	111524	0	0	8028	580226	0	0
2024-07-28 19:22:47			0	36885	0	0	0	30922	29520	163462	27071	1069193	45565	111520	0	0	8029	579519	0	0
2024-07-28 19:23:47			0	36865	0	0	0	30909	29520	163530	26892	1069229	45588	111515	0	0	8028	580318	0	0
2024-07-28 19:24:47			0	36852	0	0	0	30914	29510	163682	26994	1069093	45554	111517	0	0	8027	580872	0	0
2024-07-28 19:25:47			0	36816	0	0	0	30909	29520	163690	26913	1069139	45565	111515	0	0	8025	582279	0	0
2024-07-28 19:26:47			0	36818	0	0	0	30906	29500	163742	26656	1069165	45586	111514	0	0	8025	582267	0	0
2024-07-28 19:27:47			0	36786	0	0	0	30898	29510	163926	26899	1069147	45577	111511	0	0	8023	583516	0	0
2024-07-28 19:28:47			0	36787	0	0	0	30901	29510	163974	26844	1069120	45577	111512	0	0	8023	583476	0	0
2024-07-28 19:29:47			0	36761	0	0	0	30906	29510	163898	26642	1069129	45587	111514	0	0	8022	584520	0	0
2024-07-28 19:30:47			0	36768	0	0	0	30903	29510	164026	26594	1069093	45577	111513	0	0	8022	584239	0	0
2024-07-28 19:31:47			0	36767	0	0	0	30901	29510	163994	26785	1069120	45587	111512	0	0	8022	584279	0	0
2024-07-28 19:32:47			0	36769	0	0	0	30901	29520	163982	26632	1069166	45577	111512	0	0	8022	584165	0	0
2024-07-28 19:33:47			0	36754	0	0	0	30906	29500	164098	26996	1069129	45563	111514	0	0	8021	584835	0	0
2024-07-28 19:34:47			0	36789	0	0	0	30906	29500	164018	26870	1069057	45586	111514	0	0	8023	583430	0	0
2024-07-28 19:35:47			0	36784	0	0	0	30901	29500	163966	26850	1069102	45563	111512	0	0	8023	583630	0	0
2024-07-28 19:36:47			0	36766	0	0	0	30906	29490	163994	26649	1069111	45585	111514	0	0	8022	584387	0	0
2024-07-28 19:37:47			0	36735	0	0	0	30909	29500	164274	26533	1069102	45575	111515	0	0	8020	585600	0	0
2024-07-28 19:38:47			0	36700	0	0	0	30909	29500	164338	26809	1069111	45576	111515	0	0	8018	587009	0	0
2024-07-28 19:39:47			0	36676	0	0	0	30903	29500	164470	26767	1069111	45564	111513	0	0	8017	587976	0	0
2024-07-28 19:40:47			0	36659	0	0	0	30909	29500	164434	27235	1069021	45585	111515	0	0	8016	588662	0	0
2024-07-28 19:41:47			0	36670	0	0	0	30906	29500	164534	26889	1069111	45576	111514	0	0	8016	588219	0	0
2024-07-28 19:42:47			0	36650	0	0	0	30914	29500	164542	27045	1069165	45576	111517	0	0	8015	589026	0	0
2024-07-28 19:43:47			0	36651	0	0	0	30909	29510	164562	26753	1069183	45577	111515	0	0	8015	588951	0	0
2024-07-28 19:44:47			0	36643	0	0	0	30909	29500	164658	26974	1069129	45575	111515	0	0	8015	589309	0	0
2024-07-28 19:45:47			0	36639	0	0	0	30898	29490	164698	26871	1069120	45585	111511	0	0	8015	589505	0	0
2024-07-28 19:46:47			0	36641	0	0	0	30906	29490	164550	26731	1069147	45585	111514	0	0	8015	589424	0	0
2024-07-28 19:47:47			0	36642	0	0	0	30909	29500	164638	26816	1069129	45575	111515	0	0	8015	589349	0	0
2024-07-28 19:48:47			0	36633	0	0	0	30909	29500	164606	26658	1069102	45585	111515	0	0	8014	589713	0	0
2024-07-28 19:49:47			0	36636	0	0	0	30927	29500	164694	26923	1069138	45586	111522	0	0	8014	589591	0	0
2024-07-28 19:50:47			0	36630	0	0	0	30911	29500	164614	26880	1069102	45585	111516	0	0	8014	589834	0	0
2024-07-28 19:51:47			0	36631	0	0	0	30911	29500	164678	26915	1069102	45597	111516	0	0	8014	589794	0	0
2024-07-28 19:52:47			0	36627	0	0	0	30916	29500	164734	26712	1069129	45585	111518	0	0	8014	589955	0	0
2024-07-28 19:53:47			0	36611	0	0	0	30916	29500	164782	26807	1069165	45598	111518	0	0	8013	590603	0	0
2024-07-28 19:54:47			0	36606	0	0	0	30922	29500	164798	26956	1069138	45586	111520	0	0	8012	590805	0	0
2024-07-28 19:55:47			0	36600	0	0	0	30922	29510	164837	26868	1069147	45587	111520	0	0	8012	591013	0	0
2024-07-28 19:56:47			0	36594	0	0	0	30922	29500	164714	26781	1069165	45576	111520	0	0	8012	591291	0	0
2024-07-28 19:57:47			0	36586	0	0	0	30911	29510	164833	26705	1069201	45587	111516	0	0	8011	591580	0	0
2024-07-28 19:58:47			0	36622	0	0	0	30911	29500	164898	26887	1069111	45576	111516	0	0	8013	590158	0	0
2024-07-28 19:59:47			0	36619	0	0	0	30922	29510	164646	26871	1069174	45587	111520	0	0	8013	590245	0	0
2024-07-28 20:00:47			0	36639	0	0	0	30932	29510	164766	26812	1069228	45599	111524	0	0	8014	589436	0	0
2024-07-28 20:01:47			0	36593	0	0	0	30927	29520	164826	26885	1069220	45587	111522	0	0	8012	591263	0	0
2024-07-28 20:02:47			0	36575	0	0	0	30914	29520	164969	27019	1069220	45587	111517	0	0	8011	591992	0	0
2024-07-28 20:03:47			0	36550	0	0	0	30924	29520	164957	26965	1069247	45577	111521	0	0	8009	593006	0	0
2024-07-28 20:04:47			0	36524	0	0	0	30929	29520	165257	26972	1069202	45578	111523	0	0	8007	594061	0	0
2024-07-28 20:05:47			0	36511	0	0	0	30924	29520	165193	26844	1069202	45578	111521	0	0	8007	594589	0	0
2024-07-28 20:06:47			0	36500	0	0	0	30916	29520	165209	26743	1069166	45565	111518	0	0	8006	595037	0	0
2024-07-28 20:07:47			0	36522	0	0	0	30898	29510	165217	26637	1069156	45587	111511	0	0	8008	594177	0	0
2024-07-28 20:08:47			0	36518	0	0	0	30914	29510	165145	26734	1069210	45599	111517	0	0	8007	594339	0	0
2024-07-28 20:09:47			0	36537	0	0	0	30914	29500	165117	27005	1069192	45586	111517	0	0	8008	593602	0	0
2024-07-28 20:10:47			0	36504	0	0	0	30914	29520	165233	26642	1069166	45587	111517	0	0	8006	594874	0	0
2024-07-28 20:11:47			0	36519	0	0	0	30922	29510	165261	26844	1069237	45577	111520	0	0	8007	594299	0	0
2024-07-28 20:12:47			0	36518	0	0	0	30911	29520	165161	26830	1069166	45587	111516	0	0	8007	594305	0	0
2024-07-28 20:13:47			0	36513	0	0	0	30911	29520	165265	26883	1069256	45578	111516	0	0	8007	594508	0	0
2024-07-28 20:14:47			0	36499	0	0	0	30903	29510	165221	26571	1069174	45577	111513	0	0	8006	595112	0	0
2024-07-28 20:15:47			0	36483	0	0	0	30896	29520	165277	26772	1069193	45577	111510	0	0	8006	595728	0	0
2024-07-28 20:16:47			0	36500	0	0	0	30901	29510	165337	26764	1069156	45577	111512	0	0	8006	595071	0	0
2024-07-28 20:17:47			0	36468	0	0	0	30896	29510	165417	26835	1069129	45587	111510	0	0	8005	596374	0	0
2024-07-28 20:18:47			0	36483	0	0	0	30885	29520	165425	26745	1069166	45587	111506	0	0	8006	595728	0	0
2024-07-28 20:19:47			0	36476	0	0	0	30880	29510	165345	26977	1069093	45577	111504	0	0	8005	596048	0	0
2024-07-28 20:20:47			0	36478	0	0	0	30877	29500	165313	26746	1069048	45597	111503	0	0	8005	596001	0	0
2024-07-28 20:21:47			0	36505	0	0	0	30890	29500	165329	27024	1069102	45575	111508	0	0	8007	594903	0	0
2024-07-28 20:22:47			0	36512	0	0	0	30893	29500	165317	26757	1069111	45586	111509	0	0	8007	594618	0	0
2024-07-28 20:23:47			0	36527	0	0	0	30898	29500	165237	26665	1069102	45575	111511	0	0	8008	594008	0	0
2024-07-28 20:24:47			0	36535	0	0	0	30896	29490	165217	26752	1069111	45585	111510	0	0	8008	593718	0	0
2024-07-28 20:25:47			0	36528	0	0	0	30898	29500	165189	26923	1069075	45585	111511	0	0	8008	593968	0	0
2024-07-28 20:26:47			0	36538	0	0	0	30877	29490	165253	26902	1069066	45575	111503	0	0	8009	593596	0	0
2024-07-28 20:27:47			0	36511	0	0	0	30875	29490	165209	26911	1069084	45597	111502	0	0	8007	594693	0	0
2024-07-28 20:28:47			0	36559	0	0	0	30888	29490	165157	26785	1069084	45575	111507	0	0	8010	592744	0	0
2024-07-28 20:29:47			0	36549	0	0	0	30890	29490	165053	26776	1069066	45585	111508	0	0	8009	593150	0	0
2024-07-28 20:30:47			0	36558	0	0	0	30885	29490	165065	26831	1069057	45575	111506	0	0	8010	592785	0	0
2024-07-28 20:31:47			0	36549	0	0	0	30885	29490	165137	26908	1069030	45585	111506	0	0	8009	593150	0	0
2024-07-28 20:32:47			0	36543	0	0	0	30880	29490	165165	26948	1068950	45585	111504	0	0	8009	593393	0	0
2024-07-28 20:33:47			0	36515	0	0	0	30888	29490	165153	26873	1069039	45585	111507	0	0	8007	594531	0	0
2024-07-28 20:34:47			0	36542	0	0	0	30883	29480	165157	26771	1069048	45596	111505	0	0	8009	593468	0	0
2024-07-28 20:35:47			0	36532	0	0	0	30885	29480	165089	26866	1068968	45574	111506	0	0	8008	593874	0	0
2024-07-28 20:36:47			0	36532	0	0	0	30877	29480	165053	27079	1069013	45583	111503	0	0	8009	593874	0	0
2024-07-28 20:37:47			0	36587	0	0	0	30883	29480	164897	26894	1069040	45583	111505	0	0	8012	591643	0	0
2024-07-28 20:38:47			0	36582	0	0	0	30877	29480	164957	26961	1069013	45573	111503	0	0	8012	591846	0	0
2024-07-28 20:39:47			0	36600	0	0	0	30870	29480	164842	26656	1069013	45573	111500	0	0	8013	591117	0	0
2024-07-28 20:40:47			0	36599	0	0	0	30867	29480	164966	26960	1068986	45583	111499	0	0	8013	591157	0	0
2024-07-28 20:41:47			0	36637	0	0	0	30867	29480	164794	26880	1069075	45574	111499	0	0	8015	589620	0	0
2024-07-28 20:42:47			0	36635	0	0	0	30872	29470	164778	27026	1068950	45583	111501	0	0	8015	589735	0	0
2024-07-28 20:43:47			0	36659	0	0	0	30875	29470	164658	26875	1068977	45595	111502	0	0	8016	588765	0	0
2024-07-28 20:44:47			0	36654	0	0	0	30875	29470	164642	26561	1069004	45573	111502	0	0	8016	588967	0	0
2024-07-28 20:45:47			0	36653	0	0	0	30875	29470	164794	26595	1069022	45583	111502	0	0	8016	589008	0	0
2024-07-28 20:46:47			0	36666	0	0	0	30870	29470	164682	26654	1069004	45573	111500	0	0	8017	588483	0	0
2024-07-28 20:47:47			0	36676	0	0	0	30877	29470	164658	26703	1069004	45595	111503	0	0	8017	588079	0	0
2024-07-28 20:48:47			0	36655	0	0	0	30875	29460	164730	26948	1068931	45583	111502	0	0	8016	588961	0	0
2024-07-28 20:49:47			0	36635	0	0	0	30875	29470	164850	26759	1069004	45595	111502	0	0	8015	589735	0	0
2024-07-28 20:50:47			0	36617	0	0	0	30875	29480	164882	27156	1068959	45595	111502	0	0	8014	590429	0	0
2024-07-28 20:51:47			0	36595	0	0	0	30883	29470	164970	26675	1068995	45595	111505	0	0	8012	591353	0	0
2024-07-28 20:52:47			0	36582	0	0	0	30862	29470	165025	26755	1069031	45583	111497	0	0	8012	591880	0	0
2024-07-28 20:53:47			0	36587	0	0	0	30872	29470	165033	27081	1068950	45583	111501	0	0	8012	591678	0	0
2024-07-28 20:54:47			0	36579	0	0	0	30864	29470	165017	26844	1069022	45583	111498	0	0	8012	592002	0	0
2024-07-28 20:55:47			0	36592	0	0	0	30862	29460	164873	26984	1068931	45583	111497	0	0	8012	591509	0	0
2024-07-28 20:56:47			0	36618	0	0	0	30857	29470	164898	27149	1068923	45583	111495	0	0	8014	590422	0	0
2024-07-28 20:57:47			0	36597	0	0	0	30851	29470	164798	26901	1068896	45595	111493	0	0	8013	591273	0	0
2024-07-28 20:58:47			0	36590	0	0	0	30844	29470	164841	26798	1068914	45595	111490	0	0	8012	591556	0	0
2024-07-28 20:59:47			0	36599	0	0	0	30838	29470	164973	26854	1068941	45561	111488	0	0	8013	591192	0	0
2024-07-28 21:00:47			0	36599	0	0	0	30849	29460	164869	27166	1068931	45583	111492	0	0	8013	591226	0	0
2024-07-28 21:01:47			0	36615	0	0	0	30841	29450	164954	26762	1068832	45581	111489	0	0	8014	590612	0	0
2024-07-28 21:02:47			0	36597	0	0	0	30846	29460	164886	26984	1068841	45571	111491	0	0	8013	591307	0	0
2024-07-28 21:03:47			0	36612	0	0	0	30846	29450	164962	26753	1068850	45581	111491	0	0	8014	590734	0	0
2024-07-28 21:04:47			0	36641	0	0	0	30849	29440	164778	26958	1068868	45581	111492	0	0	8015	589595	0	0
2024-07-28 21:05:47			0	36675	0	0	0	30844	29450	164554	26613	1068886	45581	111490	0	0	8017	588188	0	0
2024-07-28 21:06:47			0	36728	0	0	0	30846	29450	164342	26682	1068913	45581	111491	0	0	8020	586052	0	0
2024-07-28 21:07:47			0	36763	0	0	0	30851	29460	164186	26814	1068841	45582	111493	0	0	8023	584610	0	0
2024-07-28 21:08:47			0	36785	0	0	0	30838	29450	164098	26892	1068796	45592	111488	0	0	8024	583760	0	0
2024-07-28 21:09:47			0	36780	0	0	0	30846	29450	164142	27020	1068823	45581	111491	0	0	8024	583961	0	0
2024-07-28 21:10:47			0	36722	0	0	0	30838	29450	164318	26772	1068850	45592	111488	0	0	8020	586293	0	0
2024-07-28 21:11:47			0	36686	0	0	0	30836	29450	164534	26752	1068823	45592	111487	0	0	8018	587744	0	0
2024-07-28 21:12:47			0	36664	0	0	0	30844	29440	164558	27062	1068841	45592	111490	0	0	8017	588666	0	0
2024-07-28 21:13:47			0	36668	0	0	0	30841	29450	164622	27074	1068769	45603	111489	0	0	8017	588470	0	0
2024-07-28 21:14:47			0	36711	0	0	0	30833	29450	164442	26859	1068850	45603	111486	0	0	8020	586736	0	0
2024-07-28 21:15:47			0	36731	0	0	0	30841	29450	164250	27137	1068823	45592	111489	0	0	8021	585931	0	0
2024-07-28 21:16:47			0	36777	0	0	0	30846	29440	164098	27005	1068832	45591	111491	0	0	8023	584115	0	0
2024-07-28 21:17:47			0	36797	0	0	0	30846	29440	164206	26727	1068805	45569	111491	0	0	8024	583312	0	0
2024-07-28 21:18:47			0	36766	0	0	0	30846	29440	164190	26807	1068868	45570	111491	0	0	8023	584557	0	0
2024-07-28 21:19:47			0	36754	0	0	0	30841	29430	164162	27020	1068796	45579	111489	0	0	8022	585074	0	0
2024-07-28 21:20:47			0	36775	0	0	0	30844	29440	164174	26819	1068832	45580	111490	0	0	8023	584196	0	0
2024-07-28 21:21:47			0	36793	0	0	0	30838	29440	164182	27130	1068805	45580	111488	0	0	8024	583473	0	0
2024-07-28 21:22:47			0	36839	0	0	0	30836	29440	163886	27076	1068814	45581	111487	0	0	8027	581629	0	0
2024-07-28 21:23:47			0	36913	0	0	0	30825	29420	163626	27187	1068751	45590	111483	0	0	8032	578738	0	0
2024-07-28 21:24:47			0	36993	0	0	0	30823	29430	163274	27163	1068769	45568	111482	0	0	8036	575517	0	0
2024-07-28 21:25:47			0	37027	0	0	0	30823	29430	163090	27164	1068769	45590	111482	0	0	8038	574166	0	0
2024-07-28 21:26:47			0	37017	0	0	0	30828	29430	163014	26960	1068733	45579	111484	0	0	8038	574563	0	0
2024-07-28 21:27:47			0	36994	0	0	0	30823	29430	163326	26953	1068680	45579	111482	0	0	8036	575477	0	0
2024-07-28 21:28:47			0	36923	0	0	0	30825	29430	163462	26935	1068715	45590	111483	0	0	8032	578305	0	0
2024-07-28 21:29:47			0	36906	0	0	0	30815	29430	163622	27272	1068760	45590	111479	0	0	8031	578983	0	0
2024-07-28 21:30:47			0	36904	0	0	0	30815	29430	163694	26920	1068653	45579	111479	0	0	8031	579063	0	0
2024-07-28 21:31:47			0	36934	0	0	0	30820	29420	163494	27211	1068671	45590	111481	0	0	8033	577900	0	0
2024-07-28 21:32:47			0	36963	0	0	0	30812	29420	163346	27204	1068662	45578	111478	0	0	8035	576744	0	0
2024-07-28 21:33:47			0	36942	0	0	0	30815	29420	163450	27138	1068671	45590	111479	0	0	8033	577581	0	0
2024-07-28 21:34:47			0	36951	0	0	0	30820	29410	163446	26715	1068626	45588	111481	0	0	8034	577256	0	0
2024-07-28 21:35:47			0	36915	0	0	0	30807	29420	163550	27208	1068581	45578	111476	0	0	8032	578658	0	0
2024-07-28 21:36:47			0	36895	0	0	0	30802	29410	163634	26942	1068626	45577	111474	0	0	8031	579490	0	0
2024-07-28 21:37:47			0	36891	0	0	0	30802	29400	163706	27019	1068635	45588	111474	0	0	8031	579684	0	0
2024-07-28 21:38:47			0	36881	0	0	0	30794	29410	163734	26942	1068590	45577	111471	0	0	8030	580049	0	0
2024-07-28 21:39:47			0	36891	0	0	0	30792	29400	163714	27039	1068635	45588	111470	0	0	8031	579684	0	0
2024-07-28 21:40:47			0	36918	0	0	0	30789	29410	163546	27170	1068563	45588	111469	0	0	8032	578572	0	0
2024-07-28 21:41:47			0	36932	0	0	0	30776	29400	163570	26897	1068464	45598	111464	0	0	8033	578047	0	0
2024-07-28 21:42:47			0	36942	0	0	0	30771	29400	163442	27163	1068491	45587	111462	0	0	8034	577648	0	0
2024-07-28 21:43:47			0	36925	0	0	0	30763	29390	163454	26993	1068481	45586	111459	0	0	8033	578360	0	0
2024-07-28 21:44:47			0	36939	0	0	0	30761	29380	163394	27033	1068454	45585	111458	0	0	8034	577835	0	0
2024-07-28 21:45:47			0	36939	0	0	0	30763	29390	163418	27130	1068445	45586	111459	0	0	8034	577801	0	0
2024-07-28 21:46:47			0	36939	0	0	0	30758	29380	163458	27116	1068490	45585	111457	0	0	8034	577835	0	0
2024-07-28 21:47:47			0	36938	0	0	0	30755	29380	163502	26762	1068463	45585	111456	0	0	8034	577875	0	0
2024-07-28 21:48:47			0	36959	0	0	0	30758	29390	163330	27022	1068391	45576	111457	0	0	8035	577004	0	0
2024-07-28 21:49:47			0	36963	0	0	0	30753	29370	163318	27138	1068356	45584	111455	0	0	8035	576912	0	0
2024-07-28 21:50:47			0	36986	0	0	0	30753	29370	163442	26981	1068410	45574	111455	0	0	8037	575996	0	0
2024-07-28 21:51:47			0	36998	0	0	0	30755	29380	163138	26844	1068454	45575	111456	0	0	8038	575485	0	0
2024-07-28 21:52:47			0	36974	0	0	0	30748	29370	163286	26937	1068410	45584	111453	0	0	8036	576474	0	0
2024-07-28 21:53:47			0	36906	0	0	0	30750	29370	163582	27026	1068356	45574	111454	0	0	8032	579185	0	0
2024-07-28 21:54:47			0	36827	0	0	0	30742	29360	164058	27175	1068347	45573	111451	0	0	8028	582380	0	0
2024-07-28 21:55:47			0	36773	0	0	0	30740	29360	164270	26705	1068374	45573	111450	0	0	8024	584548	0	0
2024-07-28 21:56:47			0	36730	0	0	0	30740	29360	164466	26956	1068347	45573	111450	0	0	8022	586278	0	0
2024-07-28 21:57:47			0	36692	0	0	0	30737	29350	164446	27090	1068275	45594	111449	0	0	8020	587844	0	0
2024-07-28 21:58:47			0	36720	0	0	0	30737	29350	164462	27071	1068293	45593	111449	0	0	8021	586715	0	0
2024-07-28 21:59:47			0	36726	0	0	0	30737	29350	164570	26956	1068356	45583	111449	0	0	8022	586473	0	0
2024-07-28 22:00:47			0	36744	0	0	0	30737	29350	164366	27017	1068239	45582	111449	0	0	8023	585748	0	0
2024-07-28 22:01:47			0	36773	0	0	0	30729	29350	164194	26759	1068374	45582	111446	0	0	8025	584582	0	0
2024-07-28 22:02:47			0	36798	0	0	0	30735	29350	164130	27045	1068320	45593	111448	0	0	8026	583578	0	0
2024-07-28 22:03:47			0	36808	0	0	0	30737	29350	164090	27015	1068347	45582	111449	0	0	8027	583176	0	0
2024-07-28 22:04:47			0	36865	0	0	0	30727	29350	163934	26791	1068266	45571	111445	0	0	8030	580892	0	0
2024-07-28 22:05:47			0	36868	0	0	0	30732	29350	163794	27008	1068266	45582	111447	0	0	8030	580772	0	0
2024-07-28 22:06:47			0	36911	0	0	0	30722	29340	163702	26866	1068338	45593	111443	0	0	8033	579087	0	0
2024-07-28 22:07:47			0	36911	0	0	0	30727	29350	163602	27000	1068248	45583	111445	0	0	8033	579053	0	0
2024-07-28 22:08:47			0	36950	0	0	0	30727	29340	163402	27074	1068284	45571	111445	0	0	8035	577530	0	0
2024-07-28 22:09:47			0	36967	0	0	0	30724	29340	163398	26807	1068257	45559	111444	0	0	8036	576853	0	0
2024-07-28 22:10:47			0	36962	0	0	0	30729	29340	163330	26923	1068329	45582	111446	0	0	8036	577052	0	0
2024-07-28 22:11:47			0	36988	0	0	0	30729	29340	163314	26682	1068275	45593	111446	0	0	8037	576017	0	0
2024-07-28 22:12:47			0	36976	0	0	0	30732	29330	163318	26791	1068320	45592	111447	0	0	8036	576528	0	0
2024-07-28 22:13:47			0	36992	0	0	0	30729	29340	163222	26819	1068257	45593	111446	0	0	8037	575858	0	0
2024-07-28 22:14:47			0	37009	0	0	0	30740	29330	163134	26844	1068320	45592	111450	0	0	8038	575215	0	0
2024-07-28 22:15:47			0	37042	0	0	0	30737	29330	163062	26908	1068293	45581	111449	0	0	8040	573904	0	0
2024-07-28 22:16:47			0	37048	0	0	0	30735	29330	163082	26953	1068266	45581	111448	0	0	8041	573666	0	0
2024-07-28 22:17:47			0	37037	0	0	0	30727	29340	163090	27000	1068248	45593	111445	0	0	8040	574069	0	0
2024-07-28 22:18:47			0	37049	0	0	0	30732	29330	163106	27019	1068311	45569	111447	0	0	8041	573626	0	0
2024-07-28 22:19:47			0	37049	0	0	0	30732	29340	162990	26880	1068221	45593	111447	0	0	8041	573593	0	0
2024-07-28 22:20:47			0	37048	0	0	0	30735	29330	163106	26993	1068293	45592	111448	0	0	8041	573666	0	0
2024-07-28 22:21:47			0	37059	0	0	0	30735	29330	163030	27112	1068257	45580	111448	0	0	8041	573229	0	0
2024-07-28 22:22:47			0	37061	0	0	0	30732	29330	162934	26970	1068257	45591	111447	0	0	8041	573150	0	0
2024-07-28 22:23:47			0	37047	0	0	0	30729	29330	162894	26953	1068257	45580	111446	0	0	8041	573705	0	0
2024-07-28 22:24:47			0	37067	0	0	0	30732	29330	162910	26627	1068230	45580	111447	0	0	8042	572912	0	0
2024-07-28 22:25:47			0	37088	0	0	0	30729	29330	162898	27190	1068284	45591	111446	0	0	8043	572080	0	0
2024-07-28 22:26:47			0	37097	0	0	0	30727	29330	162830	27013	1068212	45570	111445	0	0	8044	571723	0	0
2024-07-28 22:27:47			0	37099	0	0	0	30727	29330	162790	26974	1068185	45570	111445	0	0	8044	571644	0	0
2024-07-28 22:28:47			0	37104	0	0	0	30724	29320	162770	26861	1068185	45579	111444	0	0	8044	571479	0	0
2024-07-28 22:29:47			0	37110	0	0	0	30719	29330	162766	27003	1068176	45591	111442	0	0	8044	571209	0	0
2024-07-28 22:30:47			0	37123	0	0	0	30729	29320	162678	27071	1068194	45569	111446	0	0	8045	570727	0	0
2024-07-28 22:31:47			0	37111	0	0	0	30719	29320	162746	26956	1068140	45580	111442	0	0	8044	571202	0	0
2024-07-28 22:32:47			0	37113	0	0	0	30722	29310	162634	26871	1068140	45578	111443	0	0	8044	571156	0	0
2024-07-28 22:33:47			0	37117	0	0	0	30714	29310	162710	27081	1068140	45567	111440	0	0	8045	570998	0	0
2024-07-28 22:34:47			0	37142	0	0	0	30711	29300	162758	26713	1068104	45578	111439	0	0	8046	570043	0	0
2024-07-28 22:35:47			0	37117	0	0	0	30709	29310	162690	27024	1068059	45589	111438	0	0	8045	570998	0	0
2024-07-28 22:36:47			0	37132	0	0	0	30698	29290	162698	26911	1068032	45599	111434	0	0	8046	570471	0	0
2024-07-28 22:37:47			0	37125	0	0	0	30693	29300	162606	26955	1068050	45589	111432	0	0	8046	570715	0	0
2024-07-28 22:38:47			0	37141	0	0	0	30703	29300	162730	26977	1068095	45588	111436	0	0	8046	570082	0	0
2024-07-28 22:39:47			0	37137	0	0	0	30698	29290	162658	26939	1068023	45587	111434	0	0	8046	570273	0	0
2024-07-28 22:40:47			0	37118	0	0	0	30701	29290	162706	27272	1068059	45588	111435	0	0	8045	571025	0	0
2024-07-28 22:41:47			0	37113	0	0	0	30685	29290	162762	26830	1067969	45576	111429	0	0	8045	571223	0	0
2024-07-28 22:42:47			0	37123	0	0	0	30683	29270	162590	26816	1067942	45575	111428	0	0	8045	570893	0	0
2024-07-28 22:43:47			0	37154	0	0	0	30667	29270	162654	26889	1067906	45585	111422	0	0	8048	569668	0	0
2024-07-28 22:44:47			0	37149	0	0	0	30659	29270	162634	26703	1067852	45574	111419	0	0	8047	569865	0	0
2024-07-28 22:45:47			0	37159	0	0	0	30649	29250	162610	27057	1067834	45573	111415	0	0	8048	569536	0	0
2024-07-28 22:46:47			0	37183	0	0	0	30636	29250	162566	26960	1067861	45573	111410	0	0	8050	568589	0	0
2024-07-28 22:47:47			0	37182	0	0	0	30628	29240	162502	26930	1067789	45572	111407	0	0	8050	568661	0	0
2024-07-28 22:48:47			0	37182	0	0	0	30620	29250	162458	26991	1067744	45583	111404	0	0	8050	568628	0	0
2024-07-28 22:49:47			0	37185	0	0	0	30618	29240	162438	27005	1067699	45571	111403	0	0	8050	568543	0	0
2024-07-28 22:50:47			0	37193	0	0	0	30607	29240	162458	26896	1067753	45583	111399	0	0	8051	568227	0	0
2024-07-28 22:51:47			0	37237	0	0	0	30605	29220	162238	27223	1067690	45569	111398	0	0	8053	566559	0	0
2024-07-28 22:52:47			0	37366	0	0	0	30597	29220	161643	26791	1067645	45570	111395	0	0	8061	561496	0	0
2024-07-28 22:53:47			0	37589	0	0	0	30584	29220	160775	26901	1067582	45558	111390	0	0	8074	552812	0	0
2024-07-28 22:54:47			0	37780	0	0	0	30597	29210	160127	26972	1067573	45569	111395	0	0	8085	545476	0	0
2024-07-28 22:55:47			0	37888	0	0	0	30586	29210	159659	27300	1067546	45558	111391	0	0	8091	541338	0	0
2024-07-28 22:56:47			0	37912	0	0	0	30581	29210	159531	27173	1067600	45569	111389	0	0	8093	540421	0	0
2024-07-28 22:57:47			0	37886	0	0	0	30586	29200	159575	27038	1067555	45579	111391	0	0	8091	541446	0	0
2024-07-28 22:58:47			0	37832	0	0	0	30581	29200	159851	27114	1067528	45567	111389	0	0	8088	543513	0	0
2024-07-28 22:59:47			0	37771	0	0	0	30589	29200	160191	26909	1067493	45589	111392	0	0	8084	545854	0	0
2024-07-28 23:00:47			0	37703	0	0	0	30584	29190	160339	26816	1067511	45579	111390	0	0	8080	548503	0	0
2024-07-28 23:01:47			0	37644	0	0	0	30581	29200	160595	27371	1067493	45579	111389	0	0	8077	550748	0	0
2024-07-28 23:02:47			0	37575	0	0	0	30581	29190	160771	27104	1067394	45566	111389	0	0	8073	553451	0	0
2024-07-28 23:03:47			0	37539	0	0	0	30584	29190	160995	26823	1067511	45579	111390	0	0	8071	554848	0	0
2024-07-28 23:04:47			0	37505	0	0	0	30579	29190	161135	26987	1067502	45588	111388	0	0	8069	556170	0	0
2024-07-28 23:05:47			0	37478	0	0	0	30579	29190	161267	27048	1067502	45566	111388	0	0	8067	557221	0	0
2024-07-28 23:06:47			0	37469	0	0	0	30584	29190	161359	26750	1067448	45566	111390	0	0	8067	557571	0	0
2024-07-28 23:07:47			0	37484	0	0	0	30584	29180	161283	26864	1067466	45587	111390	0	0	8068	557019	0	0
2024-07-28 23:08:47			0	37472	0	0	0	30568	29180	161399	26580	1067412	45577	111384	0	0	8067	557487	0	0
2024-07-28 23:09:47			0	37476	0	0	0	30568	29180	161463	26772	1067457	45554	111384	0	0	8067	557331	0	0
2024-07-28 23:10:47			0	37448	0	0	0	30568	29170	161603	26824	1067439	45576	111384	0	0	8066	558455	0	0
2024-07-28 23:11:47			0	37433	0	0	0	30568	29180	161643	26915	1067430	45554	111384	0	0	8065	559007	0	0
2024-07-28 23:12:47			0	37439	0	0	0	30568	29180	161519	27038	1067484	45587	111384	0	0	8065	558773	0	0
2024-07-28 23:13:47			0	37428	0	0	0	30563	29170	161583	26816	1067394	45565	111382	0	0	8065	559235	0	0
2024-07-28 23:14:47			0	37411	0	0	0	30561	29180	161587	26878	1067403	45565	111381	0	0	8064	559866	0	0
2024-07-28 23:15:47			0	37418	0	0	0	30563	29170	161531	26937	1067340	45577	111382	0	0	8064	559625	0	0
2024-07-28 23:16:47			0	37431	0	0	0	30566	29160	161607	26981	1067295	45575	111383	0	0	8065	559150	0	0
2024-07-28 23:17:47			0	37435	0	0	0	30553	29160	161527	26894	1067313	45564	111378	0	0	8065	558994	0	0
2024-07-28 23:18:47			0	37434	0	0	0	30540	29160	161451	26649	1067286	45575	111373	0	0	8065	559033	0	0
2024-07-28 23:19:47			0	37470	0	0	0	30527	29140	161483	27031	1067259	45562	111368	0	0	8068	557694	0	0
2024-07-28 23:20:47			0	37443	0	0	0	30503	29140	161399	26743	1067124	45550	111359	0	0	8066	558747	0	0
2024-07-28 23:21:47			0	37435	0	0	0	30490	29130	161463	26930	1067097	45561	111354	0	0	8066	559092	0	0
2024-07-28 23:22:47			0	37442	0	0	0	30480	29120	161371	26554	1066971	45547	111350	0	0	8067	558851	0	0
2024-07-28 23:23:47			0	37445	0	0	0	30467	29100	161487	27100	1066908	45557	111345	0	0	8067	558799	0	0
2024-07-28 23:24:47			0	37465	0	0	0	30459	29100	161407	26897	1066890	45546	111342	0	0	8068	558019	0	0
2024-07-28 23:25:47			0	37518	0	0	0	30446	29090	161215	26974	1066863	45557	111337	0	0	8072	555987	0	0
2024-07-28 23:26:47			0	37592	0	0	0	30444	29080	160887	26703	1066827	45556	111336	0	0	8076	553146	0	0
2024-07-28 23:27:47			0	37659	0	0	0	30428	29080	160675	27053	1066818	45543	111330	0	0	8080	550552	0	0
2024-07-28 23:28:47			0	37679	0	0	0	30423	29070	160651	27079	1066783	45554	111328	0	0	8081	549811	0	0
2024-07-28 23:29:47			0	37667	0	0	0	30415	29070	160543	26833	1066783	45554	111325	0	0	8081	550275	0	0
2024-07-28 23:30:47			0	37639	0	0	0	30423	29060	160675	26896	1066702	45553	111328	0	0	8079	551389	0	0
2024-07-28 23:31:47			0	37568	0	0	0	30423	29050	160887	26885	1066738	45563	111328	0	0	8075	554173	0	0
2024-07-28 23:32:47			0	37482	0	0	0	30423	29050	161371	26857	1066666	45552	111328	0	0	8070	557518	0	0
2024-07-28 23:33:47			0	37376	0	0	0	30410	29050	161743	26706	1066630	45552	111323	0	0	8064	561659	0	0
2024-07-28 23:34:47			0	37291	0	0	0	30420	29050	162194	26961	1066684	45563	111327	0	0	8059	564993	0	0
2024-07-28 23:35:47			0	37217	0	0	0	30420	29040	162414	26908	1066702	45563	111327	0	0	8054	567940	0	0
2024-07-28 23:36:47			0	37191	0	0	0	30425	29050	162534	26906	1066684	45563	111329	0	0	8053	568933	0	0
2024-07-28 23:37:47			0	37169	0	0	0	30423	29040	162674	26781	1066756	45575	111328	0	0	8051	569836	0	0
2024-07-28 23:38:47			0	37135	0	0	0	30420	29050	162902	27175	1066684	45563	111327	0	0	8050	571148	0	0
2024-07-28 23:39:47			0	37112	0	0	0	30420	29040	162970	27055	1066639	45562	111327	0	0	8048	572092	0	0
2024-07-28 23:40:47			0	37112	0	0	0	30415	29040	163058	26835	1066675	45563	111325	0	0	8048	572092	0	0
2024-07-28 23:41:47			0	37099	0	0	0	30412	29040	162922	26774	1066639	45551	111324	0	0	8048	572608	0	0
2024-07-28 23:42:47			0	37147	0	0	0	30407	29030	162838	26850	1066576	45550	111322	0	0	8050	570739	0	0
2024-07-28 23:43:47			0	37164	0	0	0	30415	29020	162702	27020	1066603	45560	111325	0	0	8051	570100	0	0
2024-07-28 23:44:47			0	37198	0	0	0	30405	29020	162650	26953	1066612	45561	111321	0	0	8053	568756	0	0
2024-07-28 23:45:47			0	37204	0	0	0	30402	29020	162646	26804	1066585	45561	111320	0	0	8054	568519	0	0
2024-07-28 23:46:47			0	37207	0	0	0	30399	29010	162574	27111	1066540	45548	111319	0	0	8054	568434	0	0
2024-07-28 23:47:47			0	37221	0	0	0	30389	29010	162534	26922	1066486	45559	111315	0	0	8055	567881	0	0
2024-07-28 23:48:47			0	37228	0	0	0	30381	29010	162534	26705	1066486	45548	111312	0	0	8055	567605	0	0
2024-07-28 23:49:47			0	37267	0	0	0	30384	29000	162294	26788	1066522	45547	111313	0	0	8058	566102	0	0
2024-07-28 23:50:47			0	37282	0	0	0	30389	29000	162238	26974	1066432	45558	111315	0	0	8058	565511	0	0
2024-07-28 23:51:47			0	37321	0	0	0	30381	29010	162095	26774	1066504	45558	111312	0	0	8061	563946	0	0
2024-07-28 23:52:47			0	37356	0	0	0	30381	29000	161919	27043	1066522	45570	111312	0	0	8063	562605	0	0
2024-07-28 23:53:47			0	37414	0	0	0	30376	29000	161771	27057	1066459	45570	111310	0	0	8066	560334	0	0
2024-07-28 23:54:47			0	37428	0	0	0	30384	28990	161507	27100	1066477	45557	111313	0	0	8067	559820	0	0
2024-07-28 23:55:47			0	37468	0	0	0	30386	28990	161483	26996	1066396	45557	111314	0	0	8069	558258	0	0
2024-07-28 23:56:47			0	37500	0	0	0	30386	29000	161343	27232	1066459	45570	111314	0	0	8071	556978	0	0
2024-07-28 23:57:47			0	37517	0	0	0	30392	29000	161307	26698	1066513	45558	111316	0	0	8072	556316	0	0
2024-07-28 23:58:47			0	37521	0	0	0	30386	29000	161287	27150	1066432	45558	111314	0	0	8072	556161	0	0
2024-07-28 23:59:47			0	37532	0	0	0	30405	29000	161211	27012	1066576	45570	111321	0	0	8073	555733	0	0
2024-07-29 00:00:47			0	37545	0	0	0	30399	29000	161187	26953	1066522	45570	111319	0	0	8073	555227	0	0
2024-07-29 00:01:47			0	37557	0	0	0	30397	29000	161167	27064	1066486	45547	111318	0	0	8074	554761	0	0
2024-07-29 00:02:47			0	37530	0	0	0	30397	29000	161187	27029	1066540	45558	111318	0	0	8073	555811	0	0
2024-07-29 00:03:47			0	37537	0	0	0	30410	28990	161211	26824	1066477	45557	111323	0	0	8073	555571	0	0
2024-07-29 00:04:47			0	37519	0	0	0	30405	29010	161315	26811	1066612	45570	111321	0	0	8072	556206	0	0
2024-07-29 00:05:47			0	37523	0	0	0	30410	29000	161267	27034	1066549	45570	111323	0	0	8072	556083	0	0
2024-07-29 00:06:47			0	37531	0	0	0	30418	29000	161371	27017	1066567	45570	111326	0	0	8072	555772	0	0
2024-07-29 00:07:47			0	37515	0	0	0	30412	29010	161307	26993	1066558	45558	111324	0	0	8072	556362	0	0
2024-07-29 00:08:47			0	37529	0	0	0	30415	29010	161283	26698	1066594	45571	111325	0	0	8072	555817	0	0
2024-07-29 00:09:47			0	37519	0	0	0	30415	29010	161315	26994	1066558	45558	111325	0	0	8072	556206	0	0
2024-07-29 00:10:47			0	37521	0	0	0	30412	29010	161187	27147	1066594	45559	111324	0	0	8072	556128	0	0
2024-07-29 00:11:47			0	37542	0	0	0	30418	29010	161235	26981	1066567	45582	111326	0	0	8073	555312	0	0
2024-07-29 00:12:47			0	37517	0	0	0	30412	29010	161255	27208	1066558	45547	111324	0	0	8072	556284	0	0
2024-07-29 00:13:47			0	37524	0	0	0	30420	29010	161255	26880	1066558	45581	111327	0	0	8072	556012	0	0
2024-07-29 00:14:47			0	37502	0	0	0	30423	29010	161291	27015	1066621	45559	111328	0	0	8071	556868	0	0
2024-07-29 00:15:47			0	37533	0	0	0	30420	29010	161315	27039	1066594	45559	111327	0	0	8072	555662	0	0
2024-07-29 00:16:47			0	37532	0	0	0	30423	29020	161219	26948	1066657	45572	111328	0	0	8072	555668	0	0
2024-07-29 00:17:47			0	37542	0	0	0	30428	29010	161239	27012	1066666	45558	111330	0	0	8073	555312	0	0
2024-07-29 00:18:47			0	37526	0	0	0	30428	29030	161231	27007	1066657	45573	111330	0	0	8072	555869	0	0
2024-07-29 00:19:47			0	37543	0	0	0	30428	29020	161179	26739	1066612	45561	111330	0	0	8073	555241	0	0
2024-07-29 00:20:47			0	37554	0	0	0	30449	29020	161171	26661	1066666	45573	111338	0	0	8073	554813	0	0
2024-07-29 00:21:47			0	37559	0	0	0	30451	29020	161003	26672	1066720	45595	111339	0	0	8074	554619	0	0
2024-07-29 00:22:47			0	37551	0	0	0	30462	29030	161111	26857	1066765	45583	111343	0	0	8073	554898	0	0
2024-07-29 00:23:47			0	37554	0	0	0	30470	29040	161055	26823	1066774	45574	111346	0	0	8073	554749	0	0
2024-07-29 00:24:47			0	37539	0	0	0	30472	29050	161059	27053	1066792	45585	111347	0	0	8072	555299	0	0
2024-07-29 00:25:47			0	37569	0	0	0	30472	29050	160955	26726	1066855	45575	111347	0	0	8074	554134	0	0
2024-07-29 00:26:47			0	37579	0	0	0	30483	29060	160995	26883	1066891	45586	111351	0	0	8074	553714	0	0
2024-07-29 00:27:47			0	37579	0	0	0	30480	29060	161011	26693	1066971	45576	111350	0	0	8074	553714	0	0
2024-07-29 00:28:47			0	37589	0	0	0	30493	29060	160851	26979	1066926	45577	111355	0	0	8075	553326	0	0
2024-07-29 00:29:47			0	37580	0	0	0	30498	29070	160919	26837	1066935	45598	111357	0	0	8074	553643	0	0
2024-07-29 00:30:47			0	37593	0	0	0	30506	29080	160915	26975	1066980	45566	111360	0	0	8075	553107	0	0
2024-07-29 00:31:47			0	37615	0	0	0	30498	29080	160867	26781	1066980	45588	111357	0	0	8076	552254	0	0
2024-07-29 00:32:47			0	37633	0	0	0	30503	29080	160839	26904	1067016	45579	111359	0	0	8077	551558	0	0
2024-07-29 00:33:47			0	37608	0	0	0	30511	29080	160907	26837	1066989	45579	111362	0	0	8076	552525	0	0
2024-07-29 00:34:47			0	37618	0	0	0	30498	29070	160799	26816	1066998	45565	111357	0	0	8076	552170	0	0
2024-07-29 00:35:47			0	37636	0	0	0	30496	29080	160799	27003	1066980	45578	111356	0	0	8077	551441	0	0
2024-07-29 00:36:47			0	37623	0	0	0	30503	29090	160715	26665	1067007	45568	111359	0	0	8077	551913	0	0
2024-07-29 00:37:47			0	37647	0	0	0	30498	29080	160639	26791	1066989	45567	111357	0	0	8078	551016	0	0
2024-07-29 00:38:47			0	37646	0	0	0	30498	29080	160639	26939	1066989	45567	111357	0	0	8078	551055	0	0
2024-07-29 00:39:47			0	37640	0	0	0	30498	29080	160651	26821	1066962	45589	111357	0	0	8078	551287	0	0
2024-07-29 00:40:47			0	37659	0	0	0	30496	29080	160619	27020	1066962	45579	111356	0	0	8079	550552	0	0
2024-07-29 00:41:47			0	37659	0	0	0	30493	29080	160675	26956	1066962	45579	111355	0	0	8079	550552	0	0
2024-07-29 00:42:47			0	37644	0	0	0	30488	29080	160639	26769	1066962	45579	111353	0	0	8078	551132	0	0
2024-07-29 00:43:47			0	37658	0	0	0	30477	29080	160803	26904	1066899	45566	111349	0	0	8079	550591	0	0
2024-07-29 00:44:47			0	37639	0	0	0	30480	29070	160663	26724	1066944	45554	111350	0	0	8078	551357	0	0
2024-07-29 00:45:47			0	37648	0	0	0	30475	29070	160707	26916	1066854	45565	111348	0	0	8078	551009	0	0
2024-07-29 00:46:47			0	37637	0	0	0	30467	29070	160687	26844	1066881	45577	111345	0	0	8078	551435	0	0
2024-07-29 00:47:47			0	37649	0	0	0	30467	29070	160779	26658	1066881	45577	111345	0	0	8079	550971	0	0
2024-07-29 00:48:47			0	37622	0	0	0	30470	29070	160775	26897	1066854	45577	111346	0	0	8077	552015	0	0
2024-07-29 00:49:47			0	37622	0	0	0	30464	29070	160839	26972	1066854	45565	111344	0	0	8077	552015	0	0
2024-07-29 00:50:47			0	37611	0	0	0	30459	29070	160831	26807	1066854	45565	111342	0	0	8077	552441	0	0
2024-07-29 00:51:47			0	37600	0	0	0	30451	29060	160923	26932	1066792	45554	111339	0	0	8076	552900	0	0
2024-07-29 00:52:47			0	37595	0	0	0	30454	29060	160943	26916	1066846	45577	111340	0	0	8076	553093	0	0
2024-07-29 00:53:47			0	37573	0	0	0	30451	29060	161003	27034	1066837	45576	111339	0	0	8075	553947	0	0
2024-07-29 00:54:47			0	37567	0	0	0	30446	29060	161083	26819	1066837	45564	111337	0	0	8074	554180	0	0
2024-07-29 00:55:47			0	37559	0	0	0	30457	29060	161171	27074	1066810	45576	111341	0	0	8074	554490	0	0
2024-07-29 00:56:47			0	37534	0	0	0	30449	29060	161139	26937	1066864	45564	111338	0	0	8072	555462	0	0
2024-07-29 00:57:47			0	37516	0	0	0	30451	29050	161215	26845	1066855	45575	111339	0	0	8071	556194	0	0
2024-07-29 00:58:47			0	37526	0	0	0	30449	29060	161263	26963	1066819	45577	111338	0	0	8072	555773	0	0
2024-07-29 00:59:47			0	37504	0	0	0	30449	29060	161355	26868	1066810	45564	111338	0	0	8071	556629	0	0
2024-07-29 01:00:47			0	37480	0	0	0	30444	29050	161359	26743	1066819	45575	111336	0	0	8069	557596	0	0
2024-07-29 01:01:47			0	37479	0	0	0	30449	29050	161331	26755	1066819	45563	111338	0	0	8069	557635	0	0
2024-07-29 01:02:47			0	37443	0	0	0	30451	29060	161451	26953	1066819	45577	111339	0	0	8067	559006	0	0
2024-07-29 01:03:47			0	37442	0	0	0	30457	29060	161487	27010	1066899	45587	111341	0	0	8067	559046	0	0
2024-07-29 01:04:47			0	37421	0	0	0	30457	29060	161627	26814	1066864	45576	111341	0	0	8066	559866	0	0
2024-07-29 01:05:47			0	37423	0	0	0	30467	29050	161603	26890	1066855	45563	111345	0	0	8066	559820	0	0
2024-07-29 01:06:47			0	37388	0	0	0	30477	29070	161703	26752	1066935	45577	111349	0	0	8063	561124	0	0
2024-07-29 01:07:47			0	37377	0	0	0	30475	29060	161687	27052	1066899	45577	111348	0	0	8063	561587	0	0
2024-07-29 01:08:47			0	37375	0	0	0	30472	29070	161739	26802	1066962	45587	111347	0	0	8063	561632	0	0
2024-07-29 01:09:47			0	37366	0	0	0	30470	29070	161847	26798	1066854	45577	111346	0	0	8062	561985	0	0
2024-07-29 01:10:47			0	37345	0	0	0	30464	29060	161871	26733	1066872	45577	111344	0	0	8061	562841	0	0
2024-07-29 01:11:47			0	37344	0	0	0	30472	29070	162007	26819	1066944	45577	111347	0	0	8061	562847	0	0
2024-07-29 01:12:47			0	37320	0	0	0	30472	29070	162058	26797	1066935	45565	111347	0	0	8060	563789	0	0
2024-07-29 01:13:47			0	37313	0	0	0	30467	29060	162039	26752	1066810	45576	111345	0	0	8059	564096	0	0
2024-07-29 01:14:47			0	37287	0	0	0	30472	29060	162138	26694	1066864	45576	111347	0	0	8058	565118	0	0
2024-07-29 01:15:47			0	37299	0	0	0	30470	29060	162166	26840	1066917	45576	111346	0	0	8058	564646	0	0
2024-07-29 01:16:47			0	37273	0	0	0	30470	29070	162198	26642	1066944	45577	111346	0	0	8057	565636	0	0
2024-07-29 01:17:47			0	37274	0	0	0	30472	29070	162198	26653	1066971	45587	111347	0	0	8057	565596	0	0
2024-07-29 01:18:47			0	37252	0	0	0	30472	29070	162250	26958	1066935	45587	111347	0	0	8056	566462	0	0
2024-07-29 01:19:47			0	37244	0	0	0	30477	29080	162286	27163	1067007	45578	111349	0	0	8055	566744	0	0
2024-07-29 01:20:47			0	37232	0	0	0	30472	29070	162314	26663	1066998	45577	111347	0	0	8054	567250	0	0
2024-07-29 01:21:47			0	37222	0	0	0	30477	29070	162470	26885	1066944	45577	111349	0	0	8054	567644	0	0
2024-07-29 01:22:47			0	37205	0	0	0	30477	29080	162530	26552	1066989	45579	111349	0	0	8053	568282	0	0
2024-07-29 01:23:47			0	37199	0	0	0	30472	29070	162510	26698	1066971	45587	111347	0	0	8053	568552	0	0
2024-07-29 01:24:47			0	37171	0	0	0	30483	29070	162522	26840	1066989	45565	111351	0	0	8051	569658	0	0
2024-07-29 01:25:47			0	37165	0	0	0	30472	29080	162582	26804	1066953	45578	111347	0	0	8051	569862	0	0
2024-07-29 01:26:47			0	37164	0	0	0	30475	29070	162674	27019	1066971	45577	111348	0	0	8050	569934	0	0
2024-07-29 01:27:47			0	37171	0	0	0	30472	29080	162670	26982	1066953	45578	111347	0	0	8051	569624	0	0
2024-07-29 01:28:47			0	37138	0	0	0	30472	29070	162694	26807	1066989	45577	111347	0	0	8049	570963	0	0
2024-07-29 01:29:47			0	37150	0	0	0	30480	29070	162786	26790	1066962	45587	111350	0	0	8050	570488	0	0
2024-07-29 01:30:47			0	37138	0	0	0	30477	29080	162758	26693	1066926	45578	111349	0	0	8049	570930	0	0
2024-07-29 01:31:47			0	37120	0	0	0	30477	29070	162762	26635	1066971	45577	111349	0	0	8048	571676	0	0
2024-07-29 01:32:47			0	37121	0	0	0	30470	29070	162814	26542	1066836	45565	111346	0	0	8048	571636	0	0
2024-07-29 01:33:47			0	37126	0	0	0	30472	29060	162862	26800	1066846	45577	111347	0	0	8048	571471	0	0
2024-07-29 01:34:47			0	37104	0	0	0	30459	29070	162902	26753	1066944	45565	111342	0	0	8047	572310	0	0
2024-07-29 01:35:47			0	37085	0	0	0	30464	29060	163046	26746	1066953	45554	111344	0	0	8046	573097	0	0
2024-07-29 01:36:47			0	37066	0	0	0	30462	29070	162970	26802	1066944	45577	111343	0	0	8045	573817	0	0
2024-07-29 01:37:47			0	37074	0	0	0	30451	29060	162994	26760	1066872	45565	111339	0	0	8046	573533	0	0
2024-07-29 01:38:47			0	37061	0	0	0	30444	29050	163086	26691	1066774	45563	111336	0	0	8045	574083	0	0
2024-07-29 01:39:47			0	37063	0	0	0	30441	29060	163146	26693	1066792	45577	111335	0	0	8045	573970	0	0
2024-07-29 01:40:47			0	37066	0	0	0	30433	29050	163122	26885	1066828	45563	111332	0	0	8045	573884	0	0
2024-07-29 01:41:47			0	37052	0	0	0	30433	29040	163174	26665	1066729	45563	111332	0	0	8044	574474	0	0
2024-07-29 01:42:47			0	37036	0	0	0	30436	29050	163214	27033	1066801	45552	111333	0	0	8044	575077	0	0
2024-07-29 01:43:47			0	37018	0	0	0	30425	29040	163278	26759	1066702	45575	111329	0	0	8043	575826	0	0
2024-07-29 01:44:47			0	37025	0	0	0	30425	29050	163330	26767	1066738	45575	111329	0	0	8043	575514	0	0
2024-07-29 01:45:47			0	37029	0	0	0	30425	29030	163266	26838	1066711	45573	111329	0	0	8043	575422	0	0
2024-07-29 01:46:47			0	37016	0	0	0	30425	29030	163374	26981	1066711	45561	111329	0	0	8042	575939	0	0
2024-07-29 01:47:47			0	37014	0	0	0	30418	29040	163226	26906	1066612	45562	111326	0	0	8042	575985	0	0
2024-07-29 01:48:47			0	37012	0	0	0	30415	29030	163410	26878	1066702	45550	111325	0	0	8042	576098	0	0
2024-07-29 01:49:47			0	37004	0	0	0	30407	29020	163334	26719	1066711	45560	111322	0	0	8042	576451	0	0
2024-07-29 01:50:47			0	36997	0	0	0	30412	29020	163318	27064	1066693	45561	111324	0	0	8042	576729	0	0
2024-07-29 01:51:47			0	36998	0	0	0	30410	29020	163342	26989	1066693	45561	111323	0	0	8042	576690	0	0
2024-07-29 01:52:47			0	36999	0	0	0	30415	29020	163262	26762	1066693	45573	111325	0	0	8042	576650	0	0
2024-07-29 01:53:47			0	37006	0	0	0	30412	29020	163322	26592	1066720	45561	111324	0	0	8042	576371	0	0
2024-07-29 01:54:47			0	37009	0	0	0	30415	29020	163338	27072	1066639	45583	111325	0	0	8042	576251	0	0
2024-07-29 01:55:47			0	37006	0	0	0	30410	29020	163294	27036	1066666	45561	111323	0	0	8042	576371	0	0
2024-07-29 01:56:47			0	37016	0	0	0	30412	29010	163362	26892	1066648	45571	111324	0	0	8043	576006	0	0
2024-07-29 01:57:47			0	37007	0	0	0	30412	29020	163394	26830	1066666	45573	111324	0	0	8042	576331	0	0
2024-07-29 01:58:47			0	37002	0	0	0	30418	29020	163330	27071	1066693	45573	111326	0	0	8042	576530	0	0
2024-07-29 01:59:47			0	37003	0	0	0	30410	29020	163338	26830	1066657	45572	111323	0	0	8042	576491	0	0
2024-07-29 02:00:47			0	36985	0	0	0	30407	29010	163342	27067	1066648	45571	111322	0	0	8041	577241	0	0
2024-07-29 02:01:47			0	36983	0	0	0	30407	29010	163446	26902	1066648	45559	111322	0	0	8041	577321	0	0
2024-07-29 02:02:47			0	36988	0	0	0	30412	29020	163310	27005	1066576	45560	111324	0	0	8041	577088	0	0
2024-07-29 02:03:47			0	36985	0	0	0	30402	29020	163394	26982	1066630	45572	111320	0	0	8041	577208	0	0
2024-07-29 02:04:47			0	36977	0	0	0	30399	29010	163406	26864	1066621	45559	111319	0	0	8041	577560	0	0
2024-07-29 02:05:47			0	36990	0	0	0	30405	29000	163462	26800	1066630	45570	111321	0	0	8041	577076	0	0
2024-07-29 02:06:47			0	36974	0	0	0	30399	29010	163390	26958	1066666	45570	111319	0	0	8040	577680	0	0
2024-07-29 02:07:47			0	36986	0	0	0	30397	29000	163398	27085	1066576	45570	111318	0	0	8041	577235	0	0
2024-07-29 02:08:47			0	36973	0	0	0	30384	29000	163390	27017	1066603	45581	111313	0	0	8040	577754	0	0
2024-07-29 02:09:47			0	37008	0	0	0	30399	29000	163418	26993	1066648	45570	111319	0	0	8042	576358	0	0
2024-07-29 02:10:47			0	37004	0	0	0	30397	29010	163290	26772	1066612	45570	111318	0	0	8042	576484	0	0
2024-07-29 02:11:47			0	37008	0	0	0	30399	29000	163322	26953	1066594	45570	111319	0	0	8042	576358	0	0
2024-07-29 02:12:47			0	37015	0	0	0	30402	29000	163226	27112	1066594	45570	111320	0	0	8043	576079	0	0
2024-07-29 02:13:47			0	37006	0	0	0	30405	29010	163298	27098	1066612	45570	111321	0	0	8042	576404	0	0
2024-07-29 02:14:47			0	37019	0	0	0	30394	29000	163258	26996	1066630	45558	111317	0	0	8043	575920	0	0
2024-07-29 02:15:47			0	37024	0	0	0	30384	29000	163234	27150	1066594	45570	111313	0	0	8043	575721	0	0
2024-07-29 02:16:47			0	37030	0	0	0	30389	29000	163198	26772	1066576	45558	111315	0	0	8044	575482	0	0
2024-07-29 02:17:47			0	37032	0	0	0	30389	29000	163210	26802	1066567	45570	111315	0	0	8044	575402	0	0
2024-07-29 02:18:47			0	36998	0	0	0	30379	29000	163306	26816	1066576	45558	111311	0	0	8042	576757	0	0
2024-07-29 02:19:47			0	37029	0	0	0	30381	28990	163222	27109	1066558	45557	111312	0	0	8044	575555	0	0
2024-07-29 02:20:47			0	37024	0	0	0	30381	28990	163254	26807	1066504	45557	111312	0	0	8043	575755	0	0
2024-07-29 02:21:47			0	37012	0	0	0	30381	28990	163346	26837	1066522	45579	111312	0	0	8043	576232	0	0
2024-07-29 02:22:47			0	37010	0	0	0	30368	28980	163274	26797	1066531	45556	111307	0	0	8043	576345	0	0
2024-07-29 02:23:47			0	37017	0	0	0	30376	28980	163298	27010	1066486	45556	111310	0	0	8043	576067	0	0
2024-07-29 02:24:47			0	37018	0	0	0	30371	28980	163386	26965	1066459	45579	111308	0	0	8043	576027	0	0
2024-07-29 02:25:47			0	37026	0	0	0	30373	28990	163290	27052	1066468	45579	111309	0	0	8044	575675	0	0
2024-07-29 02:26:47			0	37022	0	0	0	30361	28970	163422	26686	1066405	45566	111304	0	0	8044	575901	0	0
2024-07-29 02:27:47			0	37006	0	0	0	30353	28980	163422	26811	1066423	45579	111301	0	0	8043	576505	0	0
2024-07-29 02:28:47			0	37009	0	0	0	30355	28970	163358	26798	1066441	45555	111302	0	0	8043	576419	0	0
2024-07-29 02:29:47			0	37005	0	0	0	30355	28970	163422	26920	1066378	45566	111302	0	0	8043	576578	0	0
2024-07-29 02:30:47			0	37002	0	0	0	30350	28970	163482	26871	1066360	45555	111300	0	0	8043	576698	0	0
2024-07-29 02:31:47			0	37000	0	0	0	30361	28960	163546	26883	1066369	45566	111304	0	0	8042	576811	0	0
2024-07-29 02:32:47			0	36973	0	0	0	30363	28950	163530	27064	1066333	45566	111305	0	0	8041	577921	0	0
2024-07-29 02:33:47			0	36952	0	0	0	30371	28950	163626	26646	1066414	45554	111308	0	0	8039	578760	0	0
2024-07-29 02:34:47			0	36942	0	0	0	30371	28970	163806	27085	1066351	45566	111308	0	0	8039	579092	0	0
2024-07-29 02:35:47			0	36910	0	0	0	30368	28960	163782	27003	1066342	45566	111307	0	0	8037	580406	0	0
2024-07-29 02:36:47			0	36895	0	0	0	30358	28950	163946	26727	1066360	45566	111303	0	0	8036	581040	0	0
2024-07-29 02:37:47			0	36846	0	0	0	30350	28940	164150	27036	1066342	45564	111300	0	0	8033	583039	0	0
2024-07-29 02:38:47			0	36826	0	0	0	30342	28950	164258	26982	1066297	45565	111297	0	0	8032	583809	0	0
2024-07-29 02:39:47			0	36791	0	0	0	30348	28930	164566	27104	1066298	45551	111299	0	0	8030	585284	0	0
2024-07-29 02:40:47			0	36762	0	0	0	30340	28950	164682	26814	1066378	45565	111296	0	0	8029	586385	0	0
2024-07-29 02:41:47			0	36734	0	0	0	30332	28950	164638	26786	1066351	45576	111293	0	0	8027	587514	0	0
2024-07-29 02:42:47			0	36690	0	0	0	30327	28930	164838	26828	1066289	45574	111291	0	0	8024	589360	0	0
2024-07-29 02:43:47			0	36669	0	0	0	30324	28930	164926	27043	1066208	45574	111290	0	0	8023	590210	0	0
2024-07-29 02:44:47			0	36646	0	0	0	30314	28920	164990	26842	1066199	45573	111286	0	0	8022	591176	0	0
2024-07-29 02:45:47			0	36617	0	0	0	30319	28930	165114	27182	1066262	45563	111288	0	0	8020	592318	0	0
2024-07-29 02:46:47			0	36623	0	0	0	30324	28930	165086	27126	1066235	45563	111290	0	0	8021	592074	0	0
2024-07-29 02:47:47			0	36598	0	0	0	30319	28920	165205	27081	1066217	45561	111288	0	0	8019	593124	0	0
2024-07-29 02:48:47			0	36609	0	0	0	30319	28930	165186	26889	1066181	45563	111288	0	0	8020	592642	0	0
2024-07-29 02:49:47			0	36594	0	0	0	30316	28920	165209	26760	1066190	45572	111287	0	0	8019	593286	0	0
2024-07-29 02:50:47			0	36582	0	0	0	30314	28900	165297	26901	1066163	45560	111286	0	0	8018	593843	0	0
2024-07-29 02:51:47			0	36580	0	0	0	30311	28890	165281	26833	1066064	45559	111285	0	0	8018	593958	0	0
2024-07-29 02:52:47			0	36581	0	0	0	30303	28890	165401	26993	1066037	45582	111282	0	0	8018	593918	0	0
2024-07-29 02:53:47			0	36565	0	0	0	30296	28900	165385	26748	1066046	45548	111279	0	0	8017	594534	0	0
2024-07-29 02:54:47			0	36556	0	0	0	30285	28900	165401	26956	1066073	45559	111275	0	0	8017	594901	0	0
2024-07-29 02:55:47			0	36545	0	0	0	30288	28890	165537	27112	1066037	45559	111276	0	0	8016	595383	0	0
2024-07-29 02:56:47			0	36525	0	0	0	30290	28890	165625	27059	1066055	45548	111277	0	0	8015	596198	0	0
2024-07-29 02:57:47			0	36512	0	0	0	30285	28900	165641	26802	1066073	45548	111275	0	0	8015	596694	0	0
2024-07-29 02:58:47			0	36487	0	0	0	30270	28880	165805	26793	1066019	45558	111269	0	0	8013	597784	0	0
2024-07-29 02:59:47			0	36444	0	0	0	30254	28870	165933	26828	1065884	45556	111263	0	0	8011	599577	0	0
2024-07-29 03:00:47			0	36405	0	0	0	30220	28870	166049	26937	1065785	45535	111250	0	0	8009	601175	0	0
2024-07-29 03:01:47			0	36381	0	0	0	30181	28850	166229	26805	1065614	45521	111235	0	0	8008	602229	0	0
2024-07-29 03:02:47			0	36332	0	0	0	30168	28840	166469	26908	1065596	45543	111230	0	0	8006	604278	0	0
2024-07-29 03:03:47			0	36298	0	0	0	30184	28840	166617	26774	1065695	45531	111236	0	0	8003	605679	0	0
2024-07-29 03:04:47			0	36273	0	0	0	30181	28830	166705	26561	1065659	45552	111235	0	0	8002	606746	0	0
2024-07-29 03:05:47			0	36228	0	0	0	30166	28830	166937	26904	1065542	45541	111229	0	0	7999	608605	0	0
2024-07-29 03:06:47			0	36213	0	0	0	30140	28820	167073	26922	1065453	45530	111219	0	0	7999	609261	0	0
2024-07-29 03:07:47			0	36193	0	0	0	30140	28810	167101	26550	1065489	45550	111219	0	0	7998	610125	0	0
2024-07-29 03:08:47			0	36156	0	0	0	30163	28800	167349	26963	1065606	45549	111228	0	0	7995	611695	0	0
2024-07-29 03:09:47			0	36139	0	0	0	30181	28800	167349	26812	1065633	45561	111235	0	0	7994	612401	0	0
2024-07-29 03:10:47			0	36129	0	0	0	30189	28810	167381	26958	1065668	45573	111238	0	0	7993	612781	0	0
2024-07-29 03:11:47			0	36106	0	0	0	30197	28800	167385	27038	1065606	45549	111241	0	0	7991	613773	0	0
2024-07-29 03:12:47			0	36116	0	0	0	30181	28820	167413	26901	1065641	45552	111235	0	0	7992	613286	0	0
2024-07-29 03:13:47			0	36117	0	0	0	30179	28820	167305	26703	1065632	45551	111234	0	0	7992	613244	0	0
2024-07-29 03:14:47			0	36117	0	0	0	30179	28810	167357	27227	1065534	45550	111234	0	0	7992	613280	0	0
2024-07-29 03:15:47			0	36122	0	0	0	30181	28810	167349	26880	1065704	45550	111235	0	0	7993	613072	0	0
2024-07-29 03:16:47			0	36143	0	0	0	30189	28820	167301	27036	1065713	45541	111238	0	0	7994	612164	0	0
2024-07-29 03:17:47			0	36140	0	0	0	30207	28810	167397	26876	1065534	45550	111245	0	0	7993	612324	0	0
2024-07-29 03:18:47			0	36148	0	0	0	30218	28810	167301	27064	1065704	45550	111249	0	0	7994	611991	0	0
2024-07-29 03:19:47			0	36153	0	0	0	30228	28810	167229	26873	1065749	45573	111253	0	0	7994	611784	0	0
2024-07-29 03:20:47			0	36162	0	0	0	30231	28820	167209	27045	1065803	45564	111254	0	0	7994	611375	0	0
2024-07-29 03:21:47			0	36171	0	0	0	30202	28820	167249	26844	1065695	45564	111243	0	0	7995	611001	0	0
2024-07-29 03:22:47			0	36179	0	0	0	30192	28820	167177	27109	1065632	45541	111239	0	0	7996	610670	0	0
2024-07-29 03:23:47			0	36169	0	0	0	30186	28820	167153	27008	1065668	45541	111237	0	0	7995	611084	0	0
2024-07-29 03:24:47			0	36191	0	0	0	30179	28830	167141	26861	1065650	45564	111234	0	0	7997	610137	0	0
2024-07-29 03:25:47			0	36177	0	0	0	30179	28830	167141	26923	1065650	45552	111234	0	0	7996	610717	0	0
2024-07-29 03:26:47			0	36164	0	0	0	30163	28810	167209	26956	1065570	45550	111228	0	0	7995	611327	0	0
2024-07-29 03:27:47			0	36156	0	0	0	30153	28810	167253	27185	1065570	45562	111224	0	0	7995	611659	0	0
2024-07-29 03:28:47			0	36148	0	0	0	30137	28800	167261	26979	1065516	45539	111218	0	0	7995	612027	0	0
2024-07-29 03:29:47			0	36147	0	0	0	30129	28800	167149	26752	1065435	45539	111215	0	0	7995	612068	0	0
2024-07-29 03:30:47			0	36119	0	0	0	30124	28790	167313	26826	1065417	45538	111213	0	0	7993	613268	0	0
2024-07-29 03:31:47			0	36115	0	0	0	30109	28790	167353	26658	1065372	45526	111207	0	0	7993	613434	0	0
2024-07-29 03:32:47			0	36106	0	0	0	30098	28770	167453	26987	1065309	45536	111203	0	0	7993	613880	0	0
2024-07-29 03:33:47			0	36094	0	0	0	30083	28760	167489	26956	1065210	45535	111197	0	0	7992	614415	0	0
2024-07-29 03:34:47			0	36076	0	0	0	30077	28750	167609	26831	1065210	45533	111195	0	0	7991	615200	0	0
2024-07-29 03:35:47			0	36081	0	0	0	30070	28750	167549	27020	1065237	45522	111192	0	0	7992	614992	0	0
2024-07-29 03:36:47			0	36080	0	0	0	30059	28740	167677	26514	1065057	45542	111188	0	0	7992	615069	0	0
2024-07-29 03:37:47			0	36053	0	0	0	30057	28730	167709	26928	1065102	45532	111187	0	0	7990	616231	0	0
2024-07-29 03:38:47			0	36056	0	0	0	30062	28730	167673	26788	1065093	45531	111189	0	0	7990	616106	0	0
2024-07-29 03:39:47			0	36053	0	0	0	30059	28740	167817	26807	1065165	45542	111188	0	0	7990	616195	0	0
2024-07-29 03:40:47			0	36055	0	0	0	30049	28720	167777	26811	1065076	45519	111184	0	0	7990	616183	0	0
2024-07-29 03:41:47			0	36073	0	0	0	30051	28720	167761	26821	1065076	45541	111185	0	0	7991	615432	0	0
2024-07-29 03:42:47			0	36048	0	0	0	30054	28720	167745	27272	1065103	45541	111186	0	0	7990	616475	0	0
2024-07-29 03:43:47			0	36043	0	0	0	30046	28720	167821	26856	1065085	45541	111183	0	0	7990	616684	0	0
2024-07-29 03:44:47			0	36059	0	0	0	30054	28720	167865	26811	1064995	45530	111186	0	0	7991	616017	0	0
2024-07-29 03:45:47			0	36032	0	0	0	30049	28700	167881	26703	1065013	45540	111184	0	0	7989	617215	0	0
2024-07-29 03:46:47			0	36035	0	0	0	30044	28690	167881	26864	1064977	45517	111182	0	0	7989	617126	0	0
2024-07-29 03:47:47			0	36049	0	0	0	30036	28710	167837	27079	1064950	45529	111179	0	0	7990	616470	0	0
2024-07-29 03:48:47			0	36049	0	0	0	30036	28700	167853	26797	1064932	45528	111179	0	0	7990	616505	0	0
2024-07-29 03:49:47			0	36039	0	0	0	30036	28700	167825	26906	1064905	45528	111179	0	0	7990	616923	0	0
2024-07-29 03:50:47			0	36047	0	0	0	30023	28690	167869	27079	1064914	45539	111174	0	0	7990	616624	0	0
2024-07-29 03:51:47			0	36055	0	0	0	30015	28680	167849	27260	1064896	45526	111171	0	0	7991	616326	0	0
2024-07-29 03:52:47			0	36040	0	0	0	30007	28680	167945	26705	1064842	45548	111168	0	0	7990	616952	0	0
2024-07-29 03:53:47			0	36049	0	0	0	30005	28670	167877	27041	1064860	45537	111167	0	0	7990	616612	0	0
2024-07-29 03:54:47			0	36040	0	0	0	30010	28680	167857	26857	1064869	45559	111169	0	0	7990	616952	0	0
2024-07-29 03:55:47			0	36058	0	0	0	30007	28660	167937	26906	1064869	45513	111168	0	0	7991	616272	0	0
2024-07-29 03:56:47			0	36051	0	0	0	30015	28660	167817	26847	1064896	45536	111171	0	0	7990	616565	0	0
2024-07-29 03:57:47			0	36053	0	0	0	30028	28680	167733	27190	1064842	45548	111176	0	0	7990	616410	0	0
2024-07-29 03:58:47			0	36072	0	0	0	30041	28680	167725	27177	1064950	45548	111181	0	0	7991	615617	0	0
2024-07-29 03:59:47			0	36089	0	0	0	30044	28670	167777	26809	1064941	45537	111182	0	0	7992	614943	0	0
2024-07-29 04:00:47			0	36095	0	0	0	30049	28660	167789	26935	1064905	45537	111184	0	0	7992	614729	0	0
2024-07-29 04:01:47			0	36112	0	0	0	30054	28670	167793	26899	1064941	45525	111186	0	0	7993	613985	0	0
2024-07-29 04:02:47			0	36111	0	0	0	30062	28680	167589	27055	1064977	45548	111189	0	0	7993	613992	0	0
2024-07-29 04:03:47			0	36134	0	0	0	30049	28680	167553	26710	1064959	45549	111184	0	0	7995	613035	0	0
2024-07-29 04:04:47			0	36134	0	0	0	30036	28670	167573	26916	1064941	45525	111179	0	0	7995	613070	0	0
2024-07-29 04:05:47			0	36142	0	0	0	30033	28670	167477	26542	1064860	45525	111178	0	0	7996	612737	0	0
2024-07-29 04:06:47			0	36126	0	0	0	30020	28670	167477	26641	1064833	45525	111173	0	0	7995	613403	0	0
2024-07-29 04:07:47			0	36162	0	0	0	30005	28660	167417	27005	1064824	45514	111167	0	0	7997	611942	0	0
2024-07-29 04:08:47			0	36156	0	0	0	29992	28650	167493	26663	1064726	45524	111162	0	0	7997	612226	0	0
2024-07-29 04:09:47			0	36152	0	0	0	30012	28650	167533	26762	1064833	45536	111170	0	0	7996	612393	0	0
2024-07-29 04:10:47			0	36151	0	0	0	30012	28650	167489	26618	1064806	45524	111170	0	0	7996	612434	0	0
2024-07-29 04:11:47			0	36163	0	0	0	30028	28650	167325	26654	1064860	45524	111176	0	0	7997	611936	0	0
2024-07-29 04:12:47			0	36193	0	0	0	30041	28660	167373	26696	1064842	45546	111181	0	0	7998	610655	0	0
2024-07-29 04:13:47			0	36203	0	0	0	30054	28660	167321	26750	1064869	45536	111186	0	0	7999	610240	0	0
2024-07-29 04:14:47			0	36250	0	0	0	30070	28670	167121	26977	1064914	45547	111192	0	0	8001	608259	0	0
2024-07-29 04:15:47			0	36250	0	0	0	30064	28660	167009	26630	1064824	45537	111190	0	0	8001	608294	0	0
2024-07-29 04:16:47			0	36261	0	0	0	30057	28650	166897	26963	1064806	45524	111187	0	0	8002	607874	0	0
2024-07-29 04:17:47			0	36266	0	0	0	30057	28640	166885	27090	1064734	45523	111187	0	0	8002	607703	0	0
2024-07-29 04:18:47			0	36279	0	0	0	30046	28640	166897	26790	1064815	45535	111183	0	0	8003	607166	0	0
2024-07-29 04:19:47			0	36286	0	0	0	30038	28640	166857	26833	1064752	45544	111180	0	0	8004	606877	0	0
2024-07-29 04:20:47			0	36302	0	0	0	30044	28650	166849	27033	1064797	45545	111182	0	0	8005	606181	0	0
2024-07-29 04:21:47			0	36301	0	0	0	30046	28650	166865	27020	1064771	45535	111183	0	0	8005	606222	0	0
2024-07-29 04:22:47			0	36312	0	0	0	30041	28660	166725	26759	1064842	45536	111181	0	0	8006	605733	0	0
2024-07-29 04:23:47			0	36327	0	0	0	30044	28640	166717	27128	1064815	45535	111182	0	0	8006	605185	0	0
2024-07-29 04:24:47			0	36322	0	0	0	30033	28640	166669	26989	1064788	45535	111178	0	0	8006	605391	0	0
2024-07-29 04:25:47			0	36311	0	0	0	30031	28650	166653	26833	1064771	45523	111177	0	0	8006	605810	0	0
2024-07-29 04:26:47			0	36318	0	0	0	30023	28650	166697	27190	1064744	45535	111174	0	0	8006	605521	0	0
2024-07-29 04:27:47			0	36337	0	0	0	30015	28640	166637	27211	1064752	45534	111171	0	0	8007	604773	0	0
2024-07-29 04:28:47			0	36334	0	0	0	30010	28640	166561	27182	1064707	45545	111169	0	0	8007	604897	0	0
2024-07-29 04:29:47			0	36343	0	0	0	30012	28630	166605	26850	1064689	45534	111170	0	0	8008	604561	0	0
2024-07-29 04:30:47			0	36340	0	0	0	30012	28630	166609	26726	1064689	45534	111170	0	0	8008	604684	0	0
2024-07-29 04:31:47			0	36320	0	0	0	30012	28630	166657	26868	1064743	45534	111170	0	0	8006	605509	0	0
2024-07-29 04:32:47			0	36320	0	0	0	30018	28630	166601	26753	1064707	45533	111172	0	0	8006	605509	0	0
2024-07-29 04:33:47			0	36353	0	0	0	30020	28630	166657	26729	1064654	45543	111173	0	0	8008	604149	0	0
2024-07-29 04:34:47			0	36360	0	0	0	30015	28630	166673	26791	1064734	45533	111171	0	0	8009	603861	0	0
2024-07-29 04:35:47			0	36362	0	0	0	30015	28630	166565	26597	1064743	45534	111171	0	0	8009	603779	0	0
2024-07-29 04:36:47			0	36371	0	0	0	30025	28620	166573	26857	1064690	45542	111175	0	0	8009	603443	0	0
2024-07-29 04:37:47			0	36366	0	0	0	30020	28630	166465	26701	1064734	45533	111173	0	0	8009	603614	0	0
2024-07-29 04:38:47			0	36399	0	0	0	30023	28630	166469	26653	1064743	45534	111174	0	0	8011	602257	0	0
2024-07-29 04:39:47			0	36376	0	0	0	30025	28630	166389	26710	1064707	45554	111175	0	0	8010	603203	0	0
2024-07-29 04:40:47			0	36408	0	0	0	30023	28640	166353	26854	1064806	45555	111174	0	0	8011	601853	0	0
2024-07-29 04:41:47			0	36412	0	0	0	30023	28630	166477	26934	1064716	45534	111174	0	0	8012	601724	0	0
2024-07-29 04:42:47			0	36420	0	0	0	30028	28640	166357	27059	1064707	45535	111176	0	0	8012	601360	0	0
2024-07-29 04:43:47			0	36418	0	0	0	30033	28640	166329	27102	1064806	45544	111178	0	0	8012	601442	0	0
2024-07-29 04:44:47			0	36414	0	0	0	30018	28630	166373	27085	1064734	45543	111172	0	0	8012	601641	0	0
2024-07-29 04:45:47			0	36434	0	0	0	30023	28630	166349	26663	1064707	45533	111174	0	0	8013	600821	0	0
2024-07-29 04:46:47			0	36442	0	0	0	30015	28620	166365	26982	1064698	45532	111171	0	0	8014	600528	0	0
2024-07-29 04:47:47			0	36443	0	0	0	30020	28620	166297	26982	1064663	45542	111173	0	0	8014	600487	0	0
2024-07-29 04:48:47			0	36448	0	0	0	30010	28620	166261	26948	1064698	45542	111169	0	0	8014	600282	0	0
2024-07-29 04:49:47			0	36448	0	0	0	30007	28630	166233	26764	1064680	45533	111168	0	0	8014	600247	0	0
2024-07-29 04:50:47			0	36459	0	0	0	30020	28620	166225	26887	1064636	45542	111173	0	0	8014	599831	0	0
2024-07-29 04:51:47			0	36451	0	0	0	30010	28620	166257	26847	1064690	45542	111169	0	0	8014	600159	0	0
2024-07-29 04:52:47			0	36452	0	0	0	30015	28610	166201	27034	1064627	45532	111171	0	0	8014	600153	0	0
2024-07-29 04:53:47			0	36466	0	0	0	30015	28610	166129	26984	1064672	45531	111171	0	0	8015	599579	0	0
2024-07-29 04:54:47			0	36485	0	0	0	30018	28610	166077	27039	1064627	45542	111172	0	0	8016	598801	0	0
2024-07-29 04:55:47			0	36494	0	0	0	30015	28610	165953	26783	1064618	45553	111171	0	0	8017	598433	0	0
2024-07-29 04:56:47			0	36502	0	0	0	30025	28610	165889	26738	1064654	45542	111175	0	0	8017	598106	0	0
2024-07-29 04:57:47			0	36530	0	0	0	30025	28610	165941	26932	1064645	45531	111175	0	0	8019	596962	0	0
2024-07-29 04:58:47			0	36528	0	0	0	30028	28610	165797	26859	1064699	45531	111176	0	0	8018	597044	0	0
2024-07-29 04:59:47			0	36535	0	0	0	30028	28610	165845	26939	1064708	45542	111176	0	0	8019	596758	0	0
2024-07-29 05:00:47			0	36552	0	0	0	30023	28610	165829	26741	1064681	45542	111174	0	0	8020	596064	0	0
2024-07-29 05:01:47			0	36562	0	0	0	30020	28630	165773	26559	1064680	45554	111173	0	0	8021	595587	0	0
2024-07-29 05:02:47			0	36566	0	0	0	30031	28620	165649	26844	1064752	45554	111177	0	0	8021	595459	0	0
2024-07-29 05:03:47			0	36562	0	0	0	30025	28620	165589	27079	1064716	45532	111175	0	0	8020	595622	0	0
2024-07-29 05:04:47			0	36589	0	0	0	30025	28630	165501	26804	1064716	45544	111175	0	0	8022	594487	0	0
2024-07-29 05:05:47			0	36588	0	0	0	30028	28630	165485	26977	1064770	45544	111176	0	0	8022	594528	0	0
2024-07-29 05:06:47			0	36592	0	0	0	30033	28620	165477	26922	1064779	45554	111178	0	0	8022	594400	0	0
2024-07-29 05:07:47			0	36606	0	0	0	30036	28640	165394	26746	1064752	45544	111179	0	0	8023	593761	0	0
2024-07-29 05:08:47			0	36609	0	0	0	30044	28630	165450	26904	1064824	45544	111182	0	0	8023	593674	0	0
2024-07-29 05:09:47			0	36644	0	0	0	30051	28630	165366	26628	1064824	45534	111185	0	0	8025	592251	0	0
2024-07-29 05:10:47			0	36636	0	0	0	30049	28630	165182	26871	1064797	45534	111184	0	0	8025	592576	0	0
2024-07-29 05:11:47			0	36656	0	0	0	30046	28630	165190	26875	1064734	45554	111183	0	0	8026	591764	0	0
2024-07-29 05:12:47			0	36671	0	0	0	30031	28620	165246	27031	1064582	45509	111177	0	0	8027	591190	0	0
2024-07-29 05:13:47			0	36671	0	0	0	29966	28590	165266	26856	1064267	45485	111152	0	0	8028	591292	0	0
2024-07-29 05:14:47			0	36679	0	0	0	29880	28570	165258	26634	1064088	45482	111119	0	0	8030	591036	0	0
2024-07-29 05:15:47			0	36680	0	0	0	29857	28540	165138	27007	1063935	45491	111110	0	0	8030	591098	0	0
2024-07-29 05:16:47			0	36676	0	0	0	29825	28510	165210	26965	1063855	45488	111098	0	0	8030	591363	0	0
2024-07-29 05:17:47			0	36698	0	0	0	29805	28490	165210	26977	1063765	45473	111090	0	0	8032	590539	0	0
2024-07-29 05:18:47			0	36683	0	0	0	29805	28470	165350	26805	1063648	45494	111090	0	0	8031	591216	0	0
2024-07-29 05:19:47			0	36533	0	0	0	29794	28470	166045	26942	1063612	45505	111086	0	0	8022	597323	0	0
2024-07-29 05:20:47			0	36330	0	0	0	29779	28450	167001	26946	1063532	45514	111080	0	0	8010	605727	0	0
2024-07-29 05:21:47			0	36135	0	0	0	29763	28440	167661	26904	1063487	45492	111074	0	0	7999	613845	0	0
2024-07-29 05:22:47			0	35976	0	0	0	29750	28430	168437	26830	1063406	45511	111069	0	0	7989	620527	0	0
2024-07-29 05:23:47			0	35826	0	0	0	29732	28410	169176	26885	1063343	45499	111062	0	0	7980	626917	0	0
2024-07-29 05:24:47			0	35751	0	0	0	29729	28390	169584	26687	1063262	45498	111061	0	0	7976	630166	0	0
2024-07-29 05:25:47			0	35651	0	0	0	29724	28390	169924	26953	1063289	45498	111059	0	0	7970	634420	0	0
2024-07-29 05:26:47			0	35635	0	0	0	29722	28380	170236	27046	1063307	45497	111058	0	0	7969	635139	0	0
2024-07-29 05:27:47			0	35620	0	0	0	29706	28370	170320	26958	1063155	45507	111052	0	0	7968	635816	0	0
2024-07-29 05:28:47			0	35580	0	0	0	29703	28360	170272	26788	1063101	45494	111051	0	0	7966	637563	0	0
2024-07-29 05:29:47			0	35571	0	0	0	29696	28360	170440	26745	1063128	45504	111048	0	0	7965	637948	0	0
2024-07-29 05:30:47			0	35558	0	0	0	29703	28360	170520	26859	1063182	45504	111051	0	0	7964	638505	0	0
2024-07-29 05:31:47			0	35530	0	0	0	29688	28350	170620	26689	1063137	45504	111045	0	0	7963	639743	0	0
2024-07-29 05:32:47			0	35545	0	0	0	29690	28330	170688	26726	1063137	45502	111046	0	0	7963	639173	0	0
2024-07-29 05:33:47			0	35520	0	0	0	29701	28330	170520	26566	1063155	45514	111050	0	0	7962	640246	0	0
2024-07-29 05:34:47			0	35559	0	0	0	29719	28340	170520	26719	1063155	45538	111057	0	0	7964	638536	0	0
2024-07-29 05:35:47			0	35589	0	0	0	29755	28330	170392	26899	1063272	45537	111071	0	0	7965	637289	0	0
2024-07-29 05:36:47			0	35594	0	0	0	29768	28360	170360	26849	1063343	45539	111076	0	0	7965	636964	0	0
2024-07-29 05:37:47			0	35618	0	0	0	29763	28360	170380	26566	1063370	45527	111074	0	0	7967	635939	0	0
2024-07-29 05:38:47			0	35609	0	0	0	29771	28360	170356	26923	1063370	45527	111077	0	0	7966	636323	0	0
2024-07-29 05:39:47			0	35608	0	0	0	29768	28360	170288	26828	1063298	45528	111076	0	0	7966	636366	0	0
2024-07-29 05:40:47			0	35623	0	0	0	29766	28360	170288	26727	1063352	45528	111075	0	0	7967	635725	0	0
2024-07-29 05:41:47			0	35622	0	0	0	29761	28360	170204	26571	1063379	45540	111073	0	0	7967	635768	0	0
2024-07-29 05:42:47			0	35656	0	0	0	29761	28360	170080	26916	1063325	45528	111073	0	0	7969	634317	0	0
2024-07-29 05:43:47			0	35658	0	0	0	29750	28360	170116	27015	1063290	45516	111069	0	0	7970	634231	0	0
2024-07-29 05:44:47			0	35660	0	0	0	29748	28360	170064	26672	1063263	45516	111068	0	0	7970	634146	0	0
2024-07-29 05:45:47			0	35679	0	0	0	29755	28360	169908	26896	1063290	45516	111071	0	0	7971	633337	0	0
2024-07-29 05:46:47			0	35696	0	0	0	29753	28360	169916	26847	1063316	45539	111070	0	0	7972	632613	0	0
2024-07-29 05:47:47			0	35715	0	0	0	29750	28360	169768	26769	1063290	45527	111069	0	0	7973	631805	0	0
2024-07-29 05:48:47			0	35717	0	0	0	29753	28350	169860	26672	1063299	45516	111070	0	0	7973	631756	0	0
2024-07-29 05:49:47			0	35757	0	0	0	29758	28350	169640	26706	1063272	45516	111072	0	0	7975	630058	0	0
2024-07-29 05:50:47			0	35775	0	0	0	29755	28360	169608	26837	1063263	45527	111071	0	0	7977	629258	0	0
2024-07-29 05:51:47			0	35807	0	0	0	29768	28350	169380	26750	1063281	45527	111076	0	0	7978	627939	0	0
2024-07-29 05:52:47			0	35835	0	0	0	29758	28370	169256	26785	1063388	45529	111072	0	0	7980	626682	0	0
2024-07-29 05:53:47			0	35876	0	0	0	29763	28360	168897	26856	1063316	45527	111074	0	0	7983	624987	0	0
2024-07-29 05:54:47			0	35928	0	0	0	29761	28370	168833	26703	1063334	45541	111073	0	0	7986	622760	0	0
2024-07-29 05:55:47			0	35995	0	0	0	29753	28360	168405	26490	1063316	45516	111070	0	0	7990	619981	0	0
2024-07-29 05:56:47			0	36059	0	0	0	29748	28350	168117	26856	1063227	45504	111068	0	0	7994	617337	0	0
2024-07-29 05:57:47			0	36139	0	0	0	29748	28350	167865	26582	1063218	45516	111068	0	0	7999	613998	0	0
2024-07-29 05:58:47			0	36203	0	0	0	29737	28350	167513	26790	1063191	45516	111064	0	0	8003	611336	0	0
2024-07-29 05:59:47			0	36258	0	0	0	29732	28350	167321	26597	1063218	45504	111062	0	0	8006	609055	0	0
2024-07-29 06:00:47			0	36337	0	0	0	29722	28340	167117	26807	1063200	45514	111058	0	0	8011	605823	0	0
2024-07-29 06:01:47			0	36383	0	0	0	29724	28330	166805	26902	1063155	45514	111059	0	0	8014	603962	0	0
2024-07-29 06:02:47			0	36419	0	0	0	29709	28330	166589	26915	1063074	45502	111053	0	0	8016	602481	0	0
2024-07-29 06:03:47			0	36474	0	0	0	29703	28330	166369	26724	1063137	45492	111051	0	0	8019	600223	0	0
2024-07-29 06:04:47			0	36517	0	0	0	29690	28320	166145	26951	1063029	45500	111046	0	0	8022	598496	0	0
2024-07-29 06:05:47			0	36547	0	0	0	29690	28310	166025	26986	1063047	45512	111046	0	0	8024	597303	0	0
2024-07-29 06:06:47			0	36580	0	0	0	29683	28310	165777	26974	1063021	45500	111043	0	0	8026	595956	0	0
2024-07-29 06:07:47			0	36634	0	0	0	29675	28310	165702	26875	1062994	45512	111040	0	0	8029	593755	0	0
2024-07-29 06:08:47			0	36674	0	0	0	29677	28310	165470	27005	1063021	45512	111041	0	0	8031	592129	0	0
2024-07-29 06:09:47			0	36722	0	0	0	29680	28310	165278	26582	1062967	45512	111042	0	0	8034	590181	0	0
2024-07-29 06:10:47			0	36762	0	0	0	29675	28300	165082	26788	1062976	45511	111040	0	0	8037	588595	0	0
2024-07-29 06:11:47			0	36821	0	0	0	29657	28300	164886	26465	1062940	45499	111033	0	0	8040	586211	0	0
2024-07-29 06:12:47			0	36849	0	0	0	29664	28290	164638	26878	1062958	45510	111036	0	0	8042	585116	0	0
2024-07-29 06:13:47			0	36923	0	0	0	29670	28280	164442	26937	1062886	45509	111038	0	0	8046	582173	0	0
2024-07-29 06:14:47			0	36971	0	0	0	29651	28280	164154	26767	1062940	45498	111031	0	0	8049	580247	0	0
2024-07-29 06:15:47			0	37042	0	0	0	29657	28280	163898	26594	1062877	45508	111033	0	0	8053	577407	0	0
2024-07-29 06:16:47			0	37096	0	0	0	29662	28280	163646	27086	1062850	45508	111035	0	0	8056	575252	0	0
2024-07-29 06:17:47			0	37145	0	0	0	29649	28260	163314	26611	1062850	45496	111030	0	0	8059	573369	0	0
2024-07-29 06:18:47			0	37187	0	0	0	29659	28270	163150	26556	1062832	45507	111034	0	0	8062	571667	0	0
2024-07-29 06:19:47			0	37229	0	0	0	29641	28270	163006	26759	1062841	45496	111027	0	0	8064	570003	0	0
2024-07-29 06:20:47			0	37272	0	0	0	29641	28260	162890	26991	1062823	45518	111027	0	0	8067	568334	0	0
2024-07-29 06:21:47			0	37294	0	0	0	29646	28260	162762	26696	1062823	45507	111029	0	0	8068	567465	0	0
2024-07-29 06:22:47			0	37296	0	0	0	29636	28260	162754	26663	1062850	45507	111025	0	0	8068	567386	0	0
2024-07-29 06:23:47			0	37308	0	0	0	29636	28250	162778	26970	1062751	45505	111025	0	0	8069	566945	0	0
2024-07-29 06:24:47			0	37320	0	0	0	29628	28250	162699	26457	1062697	45505	111022	0	0	8070	566472	0	0
2024-07-29 06:25:47			0	37324	0	0	0	29620	28250	162643	26554	1062688	45495	111019	0	0	8070	566314	0	0
2024-07-29 06:26:47			0	37321	0	0	0	29605	28240	162715	26618	1062590	45494	111013	0	0	8070	566465	0	0
2024-07-29 06:27:47			0	37313	0	0	0	29602	28240	162850	26998	1062616	45494	111012	0	0	8070	566781	0	0
2024-07-29 06:28:47			0	37295	0	0	0	29597	28220	162890	27024	1062563	45492	111010	0	0	8069	567557	0	0
2024-07-29 06:29:47			0	37284	0	0	0	29597	28220	162986	26649	1062581	45492	111010	0	0	8068	567991	0	0
2024-07-29 06:30:47			0	37267	0	0	0	29584	28230	163042	27010	1062608	45503	111005	0	0	8067	568631	0	0
2024-07-29 06:31:47			0	37253	0	0	0	29584	28220	163050	26932	1062590	45492	111005	0	0	8067	569217	0	0
2024-07-29 06:32:47			0	37256	0	0	0	29573	28210	163174	27105	1062545	45491	111001	0	0	8067	569131	0	0
2024-07-29 06:33:47			0	37268	0	0	0	29584	28210	163042	26722	1062545	45501	111005	0	0	8067	568657	0	0
2024-07-29 06:34:47			0	37248	0	0	0	29579	28200	163034	26609	1062491	45511	111003	0	0	8066	569481	0	0
2024-07-29 06:35:47			0	37252	0	0	0	29579	28200	163078	26765	1062419	45490	111003	0	0	8067	569323	0	0
2024-07-29 06:36:47			0	37284	0	0	0	29586	28200	163118	26710	1062491	45490	111006	0	0	8068	568057	0	0
2024-07-29 06:37:47			0	37261	0	0	0	29576	28190	163058	26942	1062428	45500	111002	0	0	8067	568999	0	0
2024-07-29 06:38:47			0	37224	0	0	0	29579	28190	163178	26635	1062527	45510	111003	0	0	8065	570464	0	0
2024-07-29 06:39:47			0	37215	0	0	0	29579	28190	163250	26837	1062500	45499	111003	0	0	8064	570821	0	0
2024-07-29 06:40:47			0	37197	0	0	0	29589	28190	163566	26739	1062473	45488	111007	0	0	8063	571535	0	0
2024-07-29 06:41:47			0	37138	0	0	0	29581	28190	163642	26994	1062509	45511	111004	0	0	8060	573879	0	0
2024-07-29 06:42:47			0	37103	0	0	0	29594	28190	163830	26965	1062527	45499	111009	0	0	8058	575273	0	0
2024-07-29 06:43:47			0	37090	0	0	0	29589	28200	163966	26821	1062491	45490	111007	0	0	8057	575758	0	0
2024-07-29 06:44:47			0	37064	0	0	0	29592	28200	163998	26701	1062545	45500	111008	0	0	8055	576795	0	0
2024-07-29 06:45:47			0	37040	0	0	0	29592	28190	164174	26760	1062473	45510	111008	0	0	8054	577787	0	0
2024-07-29 06:46:47			0	37021	0	0	0	29586	28190	164178	26840	1062509	45511	111006	0	0	8053	578547	0	0
2024-07-29 06:47:47			0	37007	0	0	0	29594	28190	164250	26981	1062554	45510	111009	0	0	8052	579107	0	0
2024-07-29 06:48:47			0	36991	0	0	0	29597	28210	164350	26916	1062536	45512	111010	0	0	8051	579680	0	0
2024-07-29 06:49:47			0	36954	0	0	0	29612	28200	164470	27225	1062626	45500	111016	0	0	8049	581197	0	0
2024-07-29 06:50:47			0	36963	0	0	0	29625	28200	164578	27045	1062653	45534	111021	0	0	8049	580836	0	0
2024-07-29 06:51:47			0	36932	0	0	0	29636	28200	164526	26731	1062716	45545	111025	0	0	8047	582080	0	0
2024-07-29 06:52:47			0	36936	0	0	0	29646	28220	164570	26828	1062724	45525	111029	0	0	8047	581852	0	0
2024-07-29 06:53:47			0	36927	0	0	0	29657	28230	164490	27100	1062841	45514	111033	0	0	8046	582180	0	0
2024-07-29 06:54:47			0	36921	0	0	0	29670	28230	164582	26850	1062814	45526	111038	0	0	8046	582421	0	0
2024-07-29 06:55:47			0	36957	0	0	0	29667	28230	164574	26743	1062796	45514	111037	0	0	8048	580976	0	0
2024-07-29 06:56:47			0	36939	0	0	0	29662	28230	164418	26752	1062769	45503	111035	0	0	8047	581698	0	0
2024-07-29 06:57:47			0	36949	0	0	0	29649	28240	164358	26715	1062760	45528	111030	0	0	8048	581263	0	0
2024-07-29 06:58:47			0	36943	0	0	0	29662	28240	164410	27092	1062760	45516	111035	0	0	8047	581504	0	0
2024-07-29 06:59:47			0	36949	0	0	0	29677	28240	164442	26968	1062868	45505	111041	0	0	8047	581263	0	0
2024-07-29 07:00:47			0	36915	0	0	0	29672	28260	164386	27060	1062868	45517	111039	0	0	8046	582561	0	0
2024-07-29 07:01:47			0	36929	0	0	0	29685	28260	164402	27112	1062922	45517	111044	0	0	8046	581999	0	0
2024-07-29 07:02:47			0	36920	0	0	0	29703	28260	164582	27041	1062957	45518	111051	0	0	8045	582361	0	0
2024-07-29 07:03:47			0	36932	0	0	0	29706	28270	164662	27071	1063048	45530	111052	0	0	8046	581845	0	0
2024-07-29 07:04:47			0	36906	0	0	0	29709	28270	164646	26863	1063030	45530	111053	0	0	8044	582890	0	0
2024-07-29 07:05:47			0	36909	0	0	0	29703	28280	164538	26920	1063066	45508	111051	0	0	8045	582735	0	0
2024-07-29 07:06:47			0	36913	0	0	0	29711	28280	164626	27138	1063021	45520	111054	0	0	8045	582575	0	0
2024-07-29 07:07:47			0	36906	0	0	0	29711	28280	164550	27031	1063066	45519	111054	0	0	8044	582856	0	0
2024-07-29 07:08:47			0	36895	0	0	0	29722	28280	164618	26781	1063075	45520	111058	0	0	8044	583298	0	0
2024-07-29 07:09:47			0	36902	0	0	0	29719	28280	164638	26941	1063066	45541	111057	0	0	8044	583017	0	0
2024-07-29 07:10:47			0	36904	0	0	0	29722	28300	164674	26809	1063083	45511	111058	0	0	8044	582869	0	0
2024-07-29 07:11:47			0	36901	0	0	0	29719	28290	164658	26868	1063093	45521	111057	0	0	8044	583023	0	0
2024-07-29 07:12:47			0	36908	0	0	0	29716	28300	164578	26781	1063083	45511	111056	0	0	8045	582708	0	0
2024-07-29 07:13:47			0	36921	0	0	0	29719	28300	164542	26630	1063075	45521	111057	0	0	8045	582186	0	0
2024-07-29 07:14:47			0	36932	0	0	0	29724	28300	164478	26850	1063137	45522	111059	0	0	8046	581744	0	0
2024-07-29 07:15:47			0	36950	0	0	0	29737	28310	164314	26589	1063200	45535	111064	0	0	8047	580988	0	0
2024-07-29 07:16:47			0	36974	0	0	0	29745	28310	164338	26708	1063155	45523	111067	0	0	8048	580026	0	0
2024-07-29 07:17:47			0	36977	0	0	0	29740	28310	164350	26561	1063128	45523	111065	0	0	8048	579906	0	0
2024-07-29 07:18:47			0	37000	0	0	0	29716	28320	164150	26800	1063164	45512	111056	0	0	8050	578952	0	0
2024-07-29 07:19:47			0	37033	0	0	0	29729	28310	163994	26811	1063092	45512	111061	0	0	8052	577666	0	0
2024-07-29 07:20:47			0	37046	0	0	0	29716	28320	163998	26571	1063164	45523	111056	0	0	8053	577113	0	0
2024-07-29 07:21:47			0	37055	0	0	0	29711	28320	163930	26632	1063137	45512	111054	0	0	8053	576754	0	0
2024-07-29 07:22:47			0	37076	0	0	0	29706	28310	163926	26599	1063128	45512	111052	0	0	8055	575950	0	0
2024-07-29 07:23:47			0	37091	0	0	0	29706	28310	163830	26514	1063092	45523	111052	0	0	8056	575352	0	0
2024-07-29 07:24:47			0	37103	0	0	0	29690	28300	163558	26830	1063030	45511	111046	0	0	8056	574907	0	0
2024-07-29 07:25:47			0	37099	0	0	0	29693	28310	163622	26981	1063065	45512	111047	0	0	8056	575033	0	0
2024-07-29 07:26:47			0	37127	0	0	0	29698	28300	163582	27013	1063110	45511	111049	0	0	8058	573952	0	0
2024-07-29 07:27:47			0	37123	0	0	0	29696	28310	163578	26967	1063182	45500	111048	0	0	8058	574078	0	0
2024-07-29 07:28:47			0	37122	0	0	0	29711	28300	163462	27062	1063083	45511	111054	0	0	8057	574151	0	0
2024-07-29 07:29:47			0	37140	0	0	0	29701	28310	163474	27175	1063074	45523	111050	0	0	8058	573402	0	0
2024-07-29 07:30:47			0	37134	0	0	0	29698	28300	163558	26660	1063110	45500	111049	0	0	8058	573674	0	0
2024-07-29 07:31:47			0	37123	0	0	0	29701	28310	163522	26762	1063092	45500	111050	0	0	8057	574078	0	0
2024-07-29 07:32:47			0	37113	0	0	0	29696	28310	163510	26713	1063101	45500	111048	0	0	8057	574476	0	0
2024-07-29 07:33:47			0	37112	0	0	0	29698	28310	163546	26866	1063101	45523	111049	0	0	8057	574516	0	0
2024-07-29 07:34:47			0	37116	0	0	0	29690	28310	163498	27083	1063039	45523	111046	0	0	8057	574356	0	0
2024-07-29 07:35:47			0	37088	0	0	0	29693	28300	163598	26743	1063075	45521	111047	0	0	8056	575505	0	0
2024-07-29 07:36:47			0	37078	0	0	0	29693	28300	163658	26927	1063083	45511	111047	0	0	8055	575903	0	0
2024-07-29 07:37:47			0	37096	0	0	0	29701	28300	163714	27022	1063021	45510	111050	0	0	8056	575186	0	0
2024-07-29 07:38:47			0	37080	0	0	0	29701	28300	163774	26991	1063110	45522	111050	0	0	8055	575824	0	0
2024-07-29 07:39:47			0	37066	0	0	0	29696	28310	163754	26837	1063065	45512	111048	0	0	8054	576349	0	0
2024-07-29 07:40:47			0	37054	0	0	0	29701	28300	163886	26861	1063030	45522	111050	0	0	8053	576861	0	0
2024-07-29 07:41:47			0	37044	0	0	0	29688	28300	163874	26696	1063075	45510	111045	0	0	8053	577260	0	0
2024-07-29 07:42:47			0	37039	0	0	0	29690	28300	163938	26802	1063021	45521	111046	0	0	8053	577460	0	0
2024-07-29 07:43:47			0	37017	0	0	0	29693	28290	164018	26687	1062976	45509	111047	0	0	8051	578372	0	0
2024-07-29 07:44:47			0	37015	0	0	0	29683	28290	163994	26538	1062949	45498	111043	0	0	8051	578452	0	0
2024-07-29 07:45:47			0	36991	0	0	0	29680	28290	164110	26885	1063030	45509	111042	0	0	8050	579412	0	0
2024-07-29 07:46:47			0	36981	0	0	0	29675	28300	164154	27034	1062967	45521	111040	0	0	8050	579780	0	0
2024-07-29 07:47:47			0	36960	0	0	0	29680	28290	164162	26738	1063030	45487	111042	0	0	8048	580654	0	0
2024-07-29 07:48:47			0	36960	0	0	0	29675	28290	164286	26857	1062985	45510	111040	0	0	8048	580654	0	0
2024-07-29 07:49:47			0	36927	0	0	0	29677	28280	164386	26975	1063021	45509	111041	0	0	8046	582012	0	0
2024-07-29 07:50:47			0	36932	0	0	0	29670	28280	164358	26847	1062994	45509	111038	0	0	8047	581811	0	0
2024-07-29 07:51:47			0	36929	0	0	0	29675	28280	164394	27145	1062994	45509	111040	0	0	8046	581932	0	0
2024-07-29 07:52:47			0	36901	0	0	0	29680	28290	164546	27093	1062958	45521	111042	0	0	8045	583023	0	0
2024-07-29 07:53:47			0	36889	0	0	0	29683	28280	164518	27138	1063048	45509	111043	0	0	8044	583539	0	0
2024-07-29 07:54:47			0	36876	0	0	0	29680	28280	164558	27050	1063048	45520	111042	0	0	8043	584062	0	0
2024-07-29 07:55:47			0	36875	0	0	0	29693	28300	164622	26998	1063101	45533	111047	0	0	8043	584035	0	0
2024-07-29 07:56:47			0	36864	0	0	0	29703	28290	164570	27178	1063120	45521	111051	0	0	8042	584512	0	0
2024-07-29 07:57:47			0	36840	0	0	0	29701	28300	164710	26882	1063021	45521	111050	0	0	8041	585445	0	0
2024-07-29 07:58:47			0	36840	0	0	0	29698	28300	164686	27064	1063155	45521	111049	0	0	8041	585445	0	0
2024-07-29 07:59:47			0	36819	0	0	0	29706	28300	164822	27059	1063137	45522	111052	0	0	8039	586292	0	0
2024-07-29 08:00:47			0	36815	0	0	0	29706	28300	164870	26746	1063110	45511	111052	0	0	8039	586454	0	0
2024-07-29 08:01:47			0	36818	0	0	0	29719	28310	164886	27076	1063146	45535	111057	0	0	8039	586298	0	0
2024-07-29 08:02:47			0	36801	0	0	0	29729	28310	164918	27038	1063128	45523	111061	0	0	8038	586985	0	0
2024-07-29 08:03:47			0	36793	0	0	0	29724	28310	164930	27053	1063209	45523	111059	0	0	8038	587308	0	0
2024-07-29 08:04:47			0	36785	0	0	0	29740	28320	165042	27097	1063245	45500	111065	0	0	8037	587597	0	0
2024-07-29 08:05:47			0	36772	0	0	0	29750	28320	165010	27367	1063254	45536	111069	0	0	8036	588123	0	0
2024-07-29 08:06:47			0	36773	0	0	0	29755	28320	165138	27237	1063281	45536	111071	0	0	8036	588082	0	0
2024-07-29 08:07:47			0	36763	0	0	0	29755	28320	165094	27066	1063299	45523	111071	0	0	8035	588487	0	0
2024-07-29 08:08:47			0	36761	0	0	0	29748	28330	165118	26955	1063263	45514	111068	0	0	8036	588533	0	0
2024-07-29 08:09:47			0	36750	0	0	0	29750	28330	165014	26887	1063236	45547	111069	0	0	8035	588979	0	0
2024-07-29 08:10:47			0	36744	0	0	0	29758	28330	165106	27234	1063299	45525	111072	0	0	8034	589222	0	0
2024-07-29 08:11:47			0	36752	0	0	0	29755	28340	165134	26906	1063362	45525	111071	0	0	8035	588864	0	0
2024-07-29 08:12:47			0	36713	0	0	0	29755	28340	165162	27097	1063281	45514	111071	0	0	8033	590443	0	0
2024-07-29 08:13:47			0	36733	0	0	0	29753	28340	165206	27161	1063227	45525	111070	0	0	8034	589633	0	0
2024-07-29 08:14:47			0	36737	0	0	0	29748	28340	165194	26868	1063254	45514	111068	0	0	8034	589471	0	0
2024-07-29 08:15:47			0	36725	0	0	0	29742	28340	165270	27133	1063254	45514	111066	0	0	8034	589957	0	0
2024-07-29 08:16:47			0	36716	0	0	0	29737	28330	165290	27145	1063218	45525	111064	0	0	8033	590356	0	0
2024-07-29 08:17:47			0	36707	0	0	0	29727	28330	165338	27024	1063182	45514	111060	0	0	8033	590721	0	0
2024-07-29 08:18:47			0	36701	0	0	0	29735	28330	165306	26778	1063236	45514	111063	0	0	8032	590964	0	0
2024-07-29 08:19:47			0	36691	0	0	0	29729	28320	165330	26970	1063200	45524	111061	0	0	8032	591404	0	0
2024-07-29 08:20:47			0	36693	0	0	0	29716	28330	165338	27393	1063209	45525	111056	0	0	8032	591289	0	0
2024-07-29 08:21:47			0	36694	0	0	0	29722	28330	165370	26807	1063155	45514	111058	0	0	8032	591248	0	0
2024-07-29 08:22:47			0	36690	0	0	0	29703	28320	165418	27222	1063110	45500	111051	0	0	8032	591445	0	0
2024-07-29 08:23:47			0	36693	0	0	0	29698	28310	165386	27100	1063101	45500	111049	0	0	8032	591357	0	0
2024-07-29 08:24:47			0	36678	0	0	0	29675	28300	165342	26918	1063003	45500	111040	0	0	8032	592000	0	0
2024-07-29 08:25:47			0	36661	0	0	0	29657	28300	165390	26724	1062940	45499	111033	0	0	8031	592691	0	0
2024-07-29 08:26:47			0	36671	0	0	0	29649	28280	165470	26876	1062958	45497	111030	0	0	8032	592353	0	0
2024-07-29 08:27:47			0	36679	0	0	0	29636	28270	165558	26925	1062895	45507	111025	0	0	8032	592062	0	0
2024-07-29 08:28:47			0	36658	0	0	0	29636	28270	165490	26736	1062859	45496	111025	0	0	8031	592916	0	0
2024-07-29 08:29:47			0	36660	0	0	0	29623	28270	165510	26941	1062832	45507	111020	0	0	8031	592835	0	0
2024-07-29 08:30:47			0	36657	0	0	0	29620	28260	165390	27171	1062796	45507	111019	0	0	8031	592991	0	0
2024-07-29 08:31:47			0	36669	0	0	0	29623	28250	165534	26920	1062769	45495	111020	0	0	8032	592537	0	0
2024-07-29 08:32:47			0	36662	0	0	0	29615	28250	165502	26863	1062805	45505	111017	0	0	8032	592822	0	0
2024-07-29 08:33:47			0	36672	0	0	0	29620	28240	165406	27057	1062841	45505	111019	0	0	8032	592450	0	0
2024-07-29 08:34:47			0	36693	0	0	0	29631	28250	165374	26937	1062778	45505	111023	0	0	8033	591562	0	0
2024-07-29 08:35:47			0	36726	0	0	0	29633	28250	165262	26601	1062859	45516	111024	0	0	8035	590223	0	0
2024-07-29 08:36:47			0	36778	0	0	0	29644	28250	165062	26696	1062913	45516	111028	0	0	8038	588118	0	0
2024-07-29 08:37:47			0	36809	0	0	0	29649	28250	164774	26819	1062832	45516	111030	0	0	8040	586865	0	0
2024-07-29 08:38:47			0	36859	0	0	0	29644	28250	164670	27024	1062850	45516	111028	0	0	8043	584848	0	0
2024-07-29 08:39:47			0	36878	0	0	0	29646	28240	164562	26604	1062868	45505	111029	0	0	8044	584117	0	0
2024-07-29 08:40:47			0	36900	0	0	0	29644	28240	164574	26875	1062805	45515	111028	0	0	8045	583232	0	0
2024-07-29 08:41:47			0	36873	0	0	0	29649	28250	164642	26979	1062796	45495	111030	0	0	8043	584284	0	0
2024-07-29 08:42:47			0	36830	0	0	0	29644	28240	164822	27024	1062868	45516	111028	0	0	8041	586051	0	0
2024-07-29 08:43:47			0	36786	0	0	0	29649	28250	164974	27111	1062850	45516	111030	0	0	8038	587794	0	0
2024-07-29 08:44:47			0	36723	0	0	0	29651	28250	165274	27256	1062904	45516	111031	0	0	8035	590345	0	0
2024-07-29 08:45:47			0	36649	0	0	0	29641	28250	165626	27135	1062877	45505	111027	0	0	8030	593351	0	0
2024-07-29 08:46:47			0	36576	0	0	0	29644	28240	165777	27078	1062814	45516	111028	0	0	8026	596360	0	0
2024-07-29 08:47:47			0	36493	0	0	0	29654	28260	166173	27088	1062868	45517	111032	0	0	8021	599686	0	0
2024-07-29 08:48:47			0	36446	0	0	0	29649	28250	166445	26795	1062931	45516	111030	0	0	8018	601650	0	0
2024-07-29 08:49:47			0	36409	0	0	0	29659	28250	166753	26937	1062877	45528	111034	0	0	8016	603171	0	0
2024-07-29 08:50:47			0	36376	0	0	0	29664	28250	166817	26700	1062886	45516	111036	0	0	8014	604530	0	0
2024-07-29 08:51:47			0	36380	0	0	0	29667	28250	166833	26717	1062913	45516	111037	0	0	8014	604365	0	0
2024-07-29 08:52:47			0	36380	0	0	0	29667	28250	166901	26915	1062913	45516	111037	0	0	8014	604365	0	0
2024-07-29 08:53:47			0	36395	0	0	0	29670	28260	166749	27013	1062922	45529	111038	0	0	8015	603712	0	0
2024-07-29 08:54:47			0	36417	0	0	0	29672	28260	166733	26771	1062948	45517	111039	0	0	8016	602807	0	0
2024-07-29 08:55:47			0	36446	0	0	0	29677	28270	166501	26951	1063021	45518	111041	0	0	8018	601580	0	0
2024-07-29 08:56:47			0	36442	0	0	0	29667	28270	166513	26722	1062886	45518	111037	0	0	8018	601744	0	0
2024-07-29 08:57:47			0	36479	0	0	0	29662	28260	166437	27046	1063011	45518	111035	0	0	8020	600260	0	0
2024-07-29 08:58:47			0	36482	0	0	0	29662	28260	166317	26811	1062877	45507	111035	0	0	8020	600137	0	0
2024-07-29 08:59:47			0	36498	0	0	0	29649	28260	166273	27124	1062922	45517	111030	0	0	8021	599481	0	0
2024-07-29 09:00:47			0	36508	0	0	0	29649	28250	166189	26871	1062886	45516	111030	0	0	8022	599106	0	0
2024-07-29 09:01:47			0	36534	0	0	0	29651	28260	166093	27019	1062975	45517	111031	0	0	8023	598008	0	0
2024-07-29 09:02:47			0	36542	0	0	0	29651	28250	166061	27100	1062931	45505	111031	0	0	8024	597715	0	0
2024-07-29 09:03:47			0	36544	0	0	0	29649	28250	166053	26849	1062958	45505	111030	0	0	8024	597633	0	0
2024-07-29 09:04:47			0	36563	0	0	0	29654	28250	165965	26866	1062886	45528	111032	0	0	8025	596857	0	0
2024-07-29 09:05:47			0	36555	0	0	0	29667	28260	165881	27116	1062948	45506	111037	0	0	8024	597149	0	0
2024-07-29 09:06:47			0	36577	0	0	0	29657	28260	165897	26658	1062922	45529	111033	0	0	8026	596251	0	0
2024-07-29 09:07:47			0	36596	0	0	0	29675	28260	165841	26762	1062975	45529	111040	0	0	8027	595475	0	0
2024-07-29 09:08:47			0	36612	0	0	0	29683	28270	165626	26844	1062994	45518	111043	0	0	8028	594789	0	0
2024-07-29 09:09:47			0	36653	0	0	0	29680	28270	165478	26616	1063048	45518	111042	0	0	8030	593119	0	0
2024-07-29 09:10:47			0	36703	0	0	0	29693	28270	165318	26790	1063083	45530	111047	0	0	8033	591088	0	0
2024-07-29 09:11:47			0	36744	0	0	0	29693	28280	165154	27050	1063066	45531	111047	0	0	8035	589392	0	0
2024-07-29 09:12:47			0	36803	0	0	0	29688	28270	164814	26739	1063003	45518	111045	0	0	8039	587040	0	0
2024-07-29 09:13:47			0	36849	0	0	0	29688	28270	164594	26837	1063083	45507	111045	0	0	8041	585184	0	0
2024-07-29 09:14:47			0	36917	0	0	0	29690	28270	164374	27126	1063056	45507	111046	0	0	8045	582447	0	0
2024-07-29 09:15:47			0	36958	0	0	0	29685	28280	164210	26580	1063039	45497	111044	0	0	8048	580768	0	0
2024-07-29 09:16:47			0	36998	0	0	0	29688	28270	163966	26785	1063003	45530	111045	0	0	8050	579199	0	0
2024-07-29 09:17:47			0	37019	0	0	0	29688	28280	163858	26791	1063093	45508	111045	0	0	8051	578326	0	0
2024-07-29 09:18:47			0	37078	0	0	0	29688	28280	163690	26769	1063120	45531	111045	0	0	8055	575970	0	0
2024-07-29 09:19:47			0	37094	0	0	0	29696	28280	163634	27007	1063120	45531	111048	0	0	8056	575332	0	0
2024-07-29 09:20:47			0	37115	0	0	0	29690	28280	163534	26648	1063093	45531	111046	0	0	8057	574496	0	0
2024-07-29 09:21:47			0	37138	0	0	0	29688	28280	163466	26774	1063039	45519	111045	0	0	8058	573581	0	0
2024-07-29 09:22:47			0	37135	0	0	0	29696	28280	163322	26739	1063066	45531	111048	0	0	8058	573700	0	0
2024-07-29 09:23:47			0	37162	0	0	0	29698	28280	163314	26826	1063102	45520	111049	0	0	8060	572627	0	0
2024-07-29 09:24:47			0	37168	0	0	0	29690	28290	163302	26691	1063111	45520	111046	0	0	8060	572356	0	0
2024-07-29 09:25:47			0	37174	0	0	0	29696	28300	163294	26764	1063101	45521	111048	0	0	8060	572084	0	0
2024-07-29 09:26:47			0	37186	0	0	0	29703	28280	163266	26804	1063182	45520	111051	0	0	8061	571674	0	0
2024-07-29 09:27:47			0	37195	0	0	0	29709	28290	163166	26958	1063191	45520	111053	0	0	8061	571284	0	0
2024-07-29 09:28:47			0	37213	0	0	0	29711	28300	163146	26752	1063182	45521	111054	0	0	8063	570537	0	0
2024-07-29 09:29:47			0	37234	0	0	0	29722	28300	163050	26928	1063218	45522	111058	0	0	8064	569706	0	0
2024-07-29 09:30:47			0	37249	0	0	0	29716	28310	162930	26821	1063200	45523	111056	0	0	8065	569079	0	0
2024-07-29 09:31:47			0	37277	0	0	0	29722	28300	162886	26549	1063245	45534	111058	0	0	8066	568005	0	0
2024-07-29 09:32:47			0	37302	0	0	0	29722	28310	162734	26576	1063236	45523	111058	0	0	8068	566986	0	0
2024-07-29 09:33:47			0	37314	0	0	0	29727	28320	162675	26752	1063245	45523	111060	0	0	8068	566479	0	0
2024-07-29 09:34:47			0	37340	0	0	0	29740	28320	162395	27038	1063245	45535	111065	0	0	8070	565455	0	0
2024-07-29 09:35:47			0	37381	0	0	0	29740	28330	162359	26556	1063317	45547	111065	0	0	8072	563809	0	0
2024-07-29 09:36:47			0	37412	0	0	0	29745	28320	162339	26967	1063389	45524	111067	0	0	8074	562623	0	0
2024-07-29 09:37:47			0	37463	0	0	0	29750	28330	162211	27053	1063398	45537	111069	0	0	8077	560591	0	0
2024-07-29 09:38:47			0	37489	0	0	0	29766	28330	161983	26743	1063326	45525	111075	0	0	8078	559574	0	0
2024-07-29 09:39:47			0	37512	0	0	0	29766	28340	161871	26783	1063389	45547	111075	0	0	8079	558642	0	0
2024-07-29 09:40:47			0	37559	0	0	0	29766	28350	161655	26785	1063487	45527	111075	0	0	8082	556775	0	0
2024-07-29 09:41:47			0	37591	0	0	0	29779	28340	161591	26698	1063451	45526	111080	0	0	8084	555560	0	0
2024-07-29 09:42:47			0	37593	0	0	0	29786	28360	161487	26788	1063451	45527	111083	0	0	8084	555418	0	0
2024-07-29 09:43:47			0	37605	0	0	0	29776	28360	161399	27074	1063541	45528	111079	0	0	8084	554951	0	0
2024-07-29 09:44:47			0	37599	0	0	0	29781	28350	161423	26625	1063568	45527	111081	0	0	8084	555217	0	0
2024-07-29 09:45:47			0	37570	0	0	0	29792	28360	161467	26913	1063541	45528	111085	0	0	8082	556314	0	0
2024-07-29 09:46:47			0	37571	0	0	0	29792	28370	161579	26757	1063604	45529	111085	0	0	8082	556243	0	0
2024-07-29 09:47:47			0	37499	0	0	0	29789	28370	161835	26887	1063496	45529	111084	0	0	8078	559053	0	0
2024-07-29 09:48:47			0	37482	0	0	0	29784	28370	161903	26915	1063631	45541	111082	0	0	8077	559718	0	0
2024-07-29 09:49:47			0	37435	0	0	0	29784	28370	162003	26814	1063523	45518	111082	0	0	8075	561559	0	0
2024-07-29 09:50:47			0	37411	0	0	0	29781	28370	162135	26882	1063523	45518	111081	0	0	8073	562500	0	0
2024-07-29 09:51:47			0	37360	0	0	0	29776	28370	162419	26909	1063532	45530	111079	0	0	8070	564504	0	0
2024-07-29 09:52:47			0	37325	0	0	0	29774	28370	162603	26720	1063613	45519	111078	0	0	8068	565882	0	0
2024-07-29 09:53:47			0	37278	0	0	0	29776	28370	162686	26677	1063586	45530	111079	0	0	8066	567736	0	0
2024-07-29 09:54:47			0	37274	0	0	0	29781	28380	162806	26838	1063577	45530	111081	0	0	8065	567861	0	0
2024-07-29 09:55:47			0	37244	0	0	0	29789	28380	162934	27201	1063595	45530	111084	0	0	8063	569047	0	0
2024-07-29 09:56:47			0	37245	0	0	0	29789	28370	162854	26892	1063586	45530	111084	0	0	8063	569040	0	0
2024-07-29 09:57:47			0	37228	0	0	0	29786	28370	162942	26814	1063586	45507	111083	0	0	8062	569713	0	0
2024-07-29 09:58:47			0	37236	0	0	0	29794	28390	162982	26833	1063640	45541	111086	0	0	8063	569330	0	0
2024-07-29 09:59:47			0	37244	0	0	0	29797	28390	162806	26991	1063640	45520	111087	0	0	8063	569014	0	0
2024-07-29 10:00:47			0	37244	0	0	0	29792	28390	162826	26901	1063667	45541	111085	0	0	8063	569014	0	0
2024-07-29 10:01:47			0	37250	0	0	0	29802	28400	162922	26935	1063756	45532	111089	0	0	8064	568744	0	0
2024-07-29 10:02:47			0	37246	0	0	0	29805	28400	162906	26866	1063702	45532	111090	0	0	8063	568902	0	0
2024-07-29 10:03:47			0	37246	0	0	0	29810	28390	162818	26705	1063640	45531	111092	0	0	8063	568935	0	0
2024-07-29 10:04:47			0	37244	0	0	0	29812	28390	162858	26875	1063667	45541	111093	0	0	8063	569014	0	0
2024-07-29 10:05:47			0	37223	0	0	0	29818	28400	162950	27095	1063765	45532	111095	0	0	8062	569812	0	0
2024-07-29 10:06:47			0	37207	0	0	0	29820	28400	162870	26542	1063819	45532	111096	0	0	8061	570446	0	0
2024-07-29 10:07:47			0	37212	0	0	0	29831	28410	162962	26616	1063748	45521	111100	0	0	8061	570214	0	0
2024-07-29 10:08:47			0	37193	0	0	0	29825	28410	163022	26897	1063810	45543	111098	0	0	8060	570967	0	0
2024-07-29 10:09:47			0	37186	0	0	0	29836	28420	163114	26830	1063819	45534	111102	0	0	8059	571212	0	0
2024-07-29 10:10:47			0	37187	0	0	0	29838	28430	163178	26785	1063810	45544	111103	0	0	8059	571139	0	0
2024-07-29 10:11:47			0	37160	0	0	0	29828	28420	163262	26958	1063846	45534	111099	0	0	8058	572243	0	0
2024-07-29 10:12:47			0	37129	0	0	0	29825	28420	163214	26729	1063774	45534	111098	0	0	8056	573474	0	0
2024-07-29 10:13:47			0	37112	0	0	0	29828	28420	163362	26720	1063801	45511	111099	0	0	8055	574150	0	0
2024-07-29 10:14:47			0	37102	0	0	0	29825	28410	163462	26762	1063783	45533	111098	0	0	8055	574581	0	0
2024-07-29 10:15:47			0	37078	0	0	0	29831	28430	163582	26840	1063837	45534	111100	0	0	8053	575471	0	0
2024-07-29 10:16:47			0	37073	0	0	0	29825	28430	163702	26665	1063846	45545	111098	0	0	8053	575670	0	0
2024-07-29 10:17:47			0	37033	0	0	0	29828	28420	163642	26545	1063855	45523	111099	0	0	8051	577299	0	0
2024-07-29 10:18:47			0	37017	0	0	0	29825	28420	163738	26955	1063828	45534	111098	0	0	8050	577938	0	0
2024-07-29 10:19:47			0	36998	0	0	0	29828	28420	163842	26972	1063873	45544	111099	0	0	8049	578697	0	0
2024-07-29 10:20:47			0	36977	0	0	0	29838	28420	163926	26949	1063828	45523	111103	0	0	8047	579538	0	0
2024-07-29 10:21:47			0	36956	0	0	0	29836	28430	163950	26672	1063783	45534	111102	0	0	8046	580345	0	0
2024-07-29 10:22:47			0	36921	0	0	0	29838	28430	164106	27026	1063837	45523	111103	0	0	8044	581748	0	0
2024-07-29 10:23:47			0	36903	0	0	0	29831	28430	164198	26854	1063918	45534	111100	0	0	8043	582471	0	0
2024-07-29 10:24:47			0	36880	0	0	0	29838	28430	164330	26920	1063891	45544	111103	0	0	8041	583395	0	0
2024-07-29 10:25:47			0	36859	0	0	0	29846	28440	164342	26791	1063909	45536	111106	0	0	8040	584206	0	0
2024-07-29 10:26:47			0	36835	0	0	0	29844	28430	164430	26873	1063927	45545	111105	0	0	8039	585207	0	0
2024-07-29 10:27:47			0	36834	0	0	0	29846	28440	164546	26691	1064017	45525	111106	0	0	8039	585213	0	0
2024-07-29 10:28:47			0	36819	0	0	0	29846	28440	164634	26701	1063945	45537	111106	0	0	8038	585818	0	0
2024-07-29 10:29:47			0	36785	0	0	0	29854	28440	164702	26993	1063891	45526	111109	0	0	8036	587190	0	0
2024-07-29 10:30:47			0	36777	0	0	0	29851	28450	164710	27137	1063936	45537	111108	0	0	8035	587479	0	0
2024-07-29 10:31:47			0	36764	0	0	0	29851	28440	164790	26623	1063999	45559	111108	0	0	8034	588038	0	0
2024-07-29 10:32:47			0	36744	0	0	0	29854	28450	164870	26759	1063981	45537	111109	0	0	8033	588813	0	0
2024-07-29 10:33:47			0	36727	0	0	0	29859	28460	164894	26622	1063972	45538	111111	0	0	8032	589467	0	0
2024-07-29 10:34:47			0	36724	0	0	0	29857	28450	165022	26868	1063981	45537	111110	0	0	8032	589623	0	0
2024-07-29 10:35:47			0	36711	0	0	0	29851	28450	165018	26746	1063981	45537	111108	0	0	8031	590149	0	0
2024-07-29 10:36:47			0	36688	0	0	0	29862	28460	165134	26774	1064026	45538	111112	0	0	8030	591048	0	0
2024-07-29 10:37:47			0	36680	0	0	0	29864	28450	165194	26616	1063981	45537	111113	0	0	8029	591406	0	0
2024-07-29 10:38:47			0	36670	0	0	0	29857	28440	165250	26585	1063945	45537	111110	0	0	8029	591846	0	0
2024-07-29 10:39:47			0	36634	0	0	0	29851	28450	165226	26748	1064017	45537	111108	0	0	8027	593275	0	0
2024-07-29 10:40:47			0	36625	0	0	0	29838	28460	165422	26779	1064088	45539	111103	0	0	8027	593607	0	0
2024-07-29 10:41:47			0	36620	0	0	0	29849	28460	165486	26630	1063945	45548	111107	0	0	8026	593810	0	0
2024-07-29 10:42:47			0	36595	0	0	0	29854	28450	165610	26906	1064044	45547	111109	0	0	8025	594862	0	0
2024-07-29 10:43:47			0	36573	0	0	0	29859	28450	165665	26739	1064017	45547	111111	0	0	8023	595759	0	0
2024-07-29 10:44:47			0	36567	0	0	0	29851	28460	165721	26622	1064026	45548	111108	0	0	8023	595970	0	0
2024-07-29 10:45:47			0	36537	0	0	0	29854	28450	165741	27010	1064062	45547	111109	0	0	8021	597229	0	0
2024-07-29 10:46:47			0	36527	0	0	0	29857	28460	165849	26675	1064080	45548	111110	0	0	8020	597603	0	0
2024-07-29 10:47:47			0	36517	0	0	0	29864	28460	165901	26942	1064080	45548	111113	0	0	8020	598012	0	0
2024-07-29 10:48:47			0	36514	0	0	0	29867	28470	165861	26968	1064097	45549	111114	0	0	8020	598100	0	0
2024-07-29 10:49:47			0	36515	0	0	0	29877	28470	165881	26587	1064151	45527	111118	0	0	8019	598059	0	0
2024-07-29 10:50:47			0	36516	0	0	0	29867	28480	165881	26599	1064151	45541	111114	0	0	8020	597983	0	0
2024-07-29 10:51:47			0	36517	0	0	0	29877	28460	165965	26850	1064080	45538	111118	0	0	8020	598012	0	0
2024-07-29 10:52:47			0	36499	0	0	0	29888	28470	165825	26648	1064124	45549	111122	0	0	8018	598713	0	0
2024-07-29 10:53:47			0	36514	0	0	0	29883	28480	165877	27017	1064169	45550	111120	0	0	8019	598065	0	0
2024-07-29 10:54:47			0	36522	0	0	0	29896	28480	165925	27088	1064196	45540	111125	0	0	8020	597738	0	0
2024-07-29 10:55:47			0	36526	0	0	0	29903	28480	165893	26896	1064169	45540	111128	0	0	8020	597575	0	0
2024-07-29 10:56:47			0	36520	0	0	0	29893	28480	165869	26852	1064205	45551	111124	0	0	8020	597820	0	0
2024-07-29 10:57:47			0	36529	0	0	0	29896	28480	165861	27088	1064232	45551	111125	0	0	8020	597452	0	0
2024-07-29 10:58:47			0	36530	0	0	0	29893	28480	165917	27036	1064232	45551	111124	0	0	8020	597411	0	0
2024-07-29 10:59:47			0	36511	0	0	0	29896	28500	165761	26705	1064259	45541	111125	0	0	8019	598119	0	0
2024-07-29 11:00:47			0	36533	0	0	0	29903	28490	165901	26887	1064268	45541	111128	0	0	8020	597254	0	0
2024-07-29 11:01:47			0	36508	0	0	0	29914	28490	166041	26922	1064223	45541	111132	0	0	8019	598276	0	0
2024-07-29 11:02:47			0	36507	0	0	0	29893	28500	166021	26616	1064259	45541	111124	0	0	8019	598282	0	0
2024-07-29 11:03:47			0	36489	0	0	0	29901	28500	165993	26800	1064313	45541	111127	0	0	8018	599019	0	0
2024-07-29 11:04:47			0	36473	0	0	0	29906	28500	166061	26765	1064295	45553	111129	0	0	8017	599674	0	0
2024-07-29 11:05:47			0	36473	0	0	0	29896	28500	166105	26609	1064295	45553	111125	0	0	8017	599674	0	0
2024-07-29 11:06:47			0	36441	0	0	0	29906	28510	166197	26856	1064367	45532	111129	0	0	8015	600951	0	0
2024-07-29 11:07:47			0	36418	0	0	0	29890	28510	166305	26746	1064286	45543	111123	0	0	8014	601895	0	0
2024-07-29 11:08:47			0	36417	0	0	0	29888	28510	166385	26660	1064331	45543	111122	0	0	8014	601936	0	0
2024-07-29 11:09:47			0	36382	0	0	0	29867	28510	166481	26668	1064277	45543	111114	0	0	8012	603375	0	0
2024-07-29 11:10:47			0	36352	0	0	0	29854	28500	166545	27039	1064187	45542	111109	0	0	8010	604645	0	0
2024-07-29 11:11:47			0	36343	0	0	0	29862	28500	166573	26965	1064160	45531	111112	0	0	8010	605016	0	0
2024-07-29 11:12:47			0	36333	0	0	0	29857	28490	166825	26823	1064142	45529	111110	0	0	8009	605463	0	0
2024-07-29 11:13:47			0	36299	0	0	0	29838	28490	166869	26887	1064223	45529	111103	0	0	8007	606866	0	0
2024-07-29 11:14:47			0	36278	0	0	0	29851	28490	166985	26613	1064160	45541	111108	0	0	8006	607734	0	0
2024-07-29 11:15:47			0	36265	0	0	0	29857	28490	166913	26700	1064079	45529	111110	0	0	8005	608272	0	0
2024-07-29 11:16:47			0	36237	0	0	0	29846	28480	167061	26646	1064124	45541	111106	0	0	8003	609467	0	0
2024-07-29 11:17:47			0	36250	0	0	0	29838	28480	167101	26873	1064061	45528	111103	0	0	8004	608928	0	0
2024-07-29 11:18:47			0	36225	0	0	0	29841	28470	167101	26589	1064017	45527	111104	0	0	8003	609999	0	0
2024-07-29 11:19:47			0	36228	0	0	0	29872	28480	167185	26689	1064088	45540	111116	0	0	8003	609840	0	0
2024-07-29 11:20:47			0	36214	0	0	0	29893	28480	167237	26824	1064232	45541	111124	0	0	8001	610420	0	0
2024-07-29 11:21:47			0	36215	0	0	0	29911	28490	167169	27116	1064295	45551	111131	0	0	8001	610343	0	0
2024-07-29 11:22:47			0	36216	0	0	0	29924	28500	167229	26937	1064313	45541	111136	0	0	8001	610266	0	0
2024-07-29 11:23:47			0	36223	0	0	0	29922	28500	167161	26779	1064286	45564	111135	0	0	8001	609976	0	0
2024-07-29 11:24:47			0	36246	0	0	0	29916	28500	167093	27095	1064313	45552	111133	0	0	8003	609023	0	0
2024-07-29 11:25:47			0	36250	0	0	0	29927	28500	167013	26583	1064313	45541	111137	0	0	8003	608858	0	0
2024-07-29 11:26:47			0	36246	0	0	0	29937	28510	166961	26597	1064420	45543	111141	0	0	8003	608988	0	0
2024-07-29 11:27:47			0	36272	0	0	0	29942	28510	167005	26561	1064393	45554	111143	0	0	8004	607912	0	0
2024-07-29 11:28:47			0	36284	0	0	0	29955	28520	166941	26762	1064456	45554	111148	0	0	8005	607381	0	0
2024-07-29 11:29:47			0	36275	0	0	0	29955	28530	166885	26667	1064475	45556	111148	0	0	8004	607718	0	0
2024-07-29 11:30:47			0	36289	0	0	0	29966	28530	166721	26648	1064448	45545	111152	0	0	8005	607139	0	0
2024-07-29 11:31:47			0	36307	0	0	0	29958	28540	166665	26701	1064492	45556	111149	0	0	8006	606361	0	0
2024-07-29 11:32:47			0	36324	0	0	0	29961	28540	166697	26528	1064528	45557	111150	0	0	8007	605659	0	0
2024-07-29 11:33:47			0	36315	0	0	0	29971	28540	166669	26419	1064609	45557	111154	0	0	8006	606031	0	0
2024-07-29 11:34:47			0	36352	0	0	0	29973	28540	166625	26821	1064663	45546	111155	0	0	8009	604505	0	0
2024-07-29 11:35:47			0	36369	0	0	0	29966	28550	166601	26531	1064546	45558	111152	0	0	8010	603770	0	0
2024-07-29 11:36:47			0	36368	0	0	0	29971	28550	166489	26571	1064600	45547	111154	0	0	8010	603811	0	0
2024-07-29 11:37:47			0	36378	0	0	0	29958	28550	166437	26602	1064573	45547	111149	0	0	8010	603400	0	0
2024-07-29 11:38:47			0	36393	0	0	0	29958	28550	166397	26727	1064627	45558	111149	0	0	8011	602783	0	0
2024-07-29 11:39:47			0	36378	0	0	0	29953	28550	166389	26654	1064537	45536	111147	0	0	8010	603400	0	0
2024-07-29 11:40:47			0	36404	0	0	0	29942	28550	166313	26948	1064519	45547	111143	0	0	8012	602331	0	0
2024-07-29 11:41:47			0	36401	0	0	0	29924	28550	166253	26530	1064465	45547	111136	0	0	8012	602454	0	0
2024-07-29 11:42:47			0	36396	0	0	0	29911	28550	166277	26830	1064546	45536	111131	0	0	8012	602660	0	0
2024-07-29 11:43:47			0	36403	0	0	0	29911	28540	166217	27095	1064528	45546	111131	0	0	8013	602407	0	0
2024-07-29 11:44:47			0	36397	0	0	0	29922	28550	166313	26592	1064510	45536	111135	0	0	8012	602619	0	0
2024-07-29 11:45:47			0	36405	0	0	0	29942	28550	166261	26795	1064645	45558	111143	0	0	8012	602290	0	0
2024-07-29 11:46:47			0	36421	0	0	0	29937	28550	166137	26871	1064600	45547	111141	0	0	8013	601633	0	0
2024-07-29 11:47:47			0	36442	0	0	0	29929	28550	166057	26887	1064573	45536	111138	0	0	8015	600771	0	0
2024-07-29 11:48:47			0	36453	0	0	0	29916	28540	166133	26743	1064474	45535	111133	0	0	8015	600355	0	0
2024-07-29 11:49:47			0	36461	0	0	0	29922	28550	166105	26564	1064564	45547	111135	0	0	8016	599992	0	0
2024-07-29 11:50:47			0	36437	0	0	0	29903	28540	166125	26769	1064474	45546	111128	0	0	8015	601011	0	0
2024-07-29 11:51:47			0	36438	0	0	0	29893	28540	166049	26831	1064412	45545	111124	0	0	8015	600970	0	0
2024-07-29 11:52:47			0	36444	0	0	0	29893	28530	166013	26974	1064484	45534	111124	0	0	8015	600758	0	0
2024-07-29 11:53:47			0	36436	0	0	0	29896	28540	166165	26694	1064421	45557	111125	0	0	8015	601052	0	0
2024-07-29 11:54:47			0	36445	0	0	0	29896	28520	166141	26509	1064411	45544	111125	0	0	8015	600752	0	0
2024-07-29 11:55:47			0	36448	0	0	0	29903	28530	166117	26802	1064376	45545	111128	0	0	8015	600594	0	0
2024-07-29 11:56:47			0	36427	0	0	0	29909	28530	166253	26849	1064448	45534	111130	0	0	8014	601456	0	0
2024-07-29 11:57:47			0	36421	0	0	0	29940	28530	166185	26844	1064484	45556	111142	0	0	8013	601702	0	0
2024-07-29 11:58:47			0	36439	0	0	0	29966	28550	166253	26696	1064645	45558	111152	0	0	8014	600894	0	0
2024-07-29 11:59:47			0	36457	0	0	0	29984	28560	165997	26854	1064744	45581	111159	0	0	8015	600121	0	0
2024-07-29 12:00:47			0	36485	0	0	0	29979	28560	165985	26701	1064663	45569	111157	0	0	8016	598975	0	0
2024-07-29 12:01:47			0	36499	0	0	0	29979	28570	165965	26982	1064735	45560	111157	0	0	8017	598367	0	0
2024-07-29 12:02:47			0	36519	0	0	0	29994	28570	165765	26932	1064762	45549	111163	0	0	8018	597549	0	0
2024-07-29 12:03:47			0	36540	0	0	0	30010	28570	165737	26788	1064825	45571	111169	0	0	8019	596692	0	0
2024-07-29 12:04:47			0	36552	0	0	0	30010	28580	165661	26866	1064834	45561	111169	0	0	8020	596168	0	0
2024-07-29 12:05:47			0	36574	0	0	0	30005	28580	165461	26745	1064816	45550	111167	0	0	8021	595271	0	0
2024-07-29 12:06:47			0	36587	0	0	0	29997	28590	165533	26656	1064851	45551	111164	0	0	8022	594707	0	0
2024-07-29 12:07:47			0	36589	0	0	0	29989	28590	165457	26648	1064833	45574	111161	0	0	8023	594625	0	0
2024-07-29 12:08:47			0	36622	0	0	0	29992	28590	165298	26960	1064833	45563	111162	0	0	8024	593282	0	0
2024-07-29 12:09:47			0	36620	0	0	0	30012	28600	165202	26661	1064932	45574	111170	0	0	8024	593329	0	0
2024-07-29 12:10:47			0	36641	0	0	0	30010	28590	165206	26883	1064941	45563	111169	0	0	8025	592510	0	0
2024-07-29 12:11:47			0	36636	0	0	0	30020	28600	165238	26972	1064878	45552	111173	0	0	8025	592679	0	0
2024-07-29 12:12:47			0	36641	0	0	0	30015	28610	165174	26831	1064941	45553	111171	0	0	8025	592442	0	0
2024-07-29 12:13:47			0	36660	0	0	0	30002	28610	165170	26682	1064977	45554	111166	0	0	8027	591670	0	0
2024-07-29 12:14:47			0	36672	0	0	0	30007	28600	165174	26543	1064878	45530	111168	0	0	8027	591218	0	0
2024-07-29 12:15:47			0	36663	0	0	0	29994	28600	165110	27026	1064896	45563	111163	0	0	8027	591583	0	0
2024-07-29 12:16:47			0	36649	0	0	0	30012	28600	165178	26634	1064878	45541	111170	0	0	8026	592151	0	0
2024-07-29 12:17:47			0	36659	0	0	0	30018	28600	165098	26844	1064905	45563	111172	0	0	8026	591745	0	0
2024-07-29 12:18:47			0	36669	0	0	0	30046	28620	165038	26615	1065067	45587	111183	0	0	8026	591271	0	0
2024-07-29 12:19:47			0	36684	0	0	0	30101	28630	164902	26504	1065255	45600	111204	0	0	8026	590629	0	0
2024-07-29 12:20:47			0	36698	0	0	0	30158	28660	164806	26502	1065444	45614	111226	0	0	8026	589959	0	0
2024-07-29 12:21:47			0	36743	0	0	0	30199	28680	164682	26641	1065525	45605	111242	0	0	8029	588070	0	0
2024-07-29 12:22:47			0	36774	0	0	0	30212	28710	164566	27107	1065714	45608	111247	0	0	8030	586717	0	0
2024-07-29 12:23:47			0	36792	0	0	0	30225	28730	164550	27131	1065821	45609	111252	0	0	8031	585923	0	0
2024-07-29 12:24:47			0	36797	0	0	0	30257	28750	164418	26861	1065920	45589	111264	0	0	8031	585653	0	0
2024-07-29 12:25:47			0	36826	0	0	0	30277	28760	164418	26805	1065965	45613	111272	0	0	8032	584452	0	0
2024-07-29 12:26:47			0	36829	0	0	0	30288	28780	164334	26814	1066100	45603	111276	0	0	8033	584264	0	0
2024-07-29 12:27:47			0	36826	0	0	0	30288	28800	164226	26824	1066028	45627	111276	0	0	8032	584317	0	0
2024-07-29 12:28:47			0	36844	0	0	0	30288	28810	164166	26970	1066217	45606	111276	0	0	8034	583559	0	0
2024-07-29 12:29:47			0	36838	0	0	0	30267	28830	164158	26613	1066297	45620	111268	0	0	8034	583733	0	0
2024-07-29 12:30:47			0	36836	0	0	0	30306	28840	164062	26854	1066315	45598	111283	0	0	8033	583779	0	0
2024-07-29 12:31:47			0	36843	0	0	0	30342	28850	164142	26817	1066396	45587	111297	0	0	8033	583464	0	0
2024-07-29 12:32:47			0	36848	0	0	0	30363	28860	164010	26958	1066432	45600	111305	0	0	8033	583229	0	0
2024-07-29 12:33:47			0	36847	0	0	0	30361	28870	163998	26750	1066486	45590	111304	0	0	8033	583236	0	0
2024-07-29 12:34:47			0	36874	0	0	0	30355	28880	163970	26675	1066531	45591	111302	0	0	8035	582118	0	0
2024-07-29 12:35:47			0	36883	0	0	0	30361	28890	163890	26523	1066549	45592	111304	0	0	8035	581723	0	0
2024-07-29 12:36:47			0	36876	0	0	0	30345	28890	163766	26762	1066522	45582	111298	0	0	8035	582004	0	0
2024-07-29 12:37:47			0	36909	0	0	0	30342	28900	163738	26733	1066513	45583	111297	0	0	8037	580648	0	0
2024-07-29 12:38:47			0	36898	0	0	0	30355	28910	163770	26998	1066522	45594	111302	0	0	8036	581055	0	0
2024-07-29 12:39:47			0	36890	0	0	0	30363	28910	163770	26807	1066612	45583	111305	0	0	8036	581375	0	0
2024-07-29 12:40:47			0	36910	0	0	0	30373	28920	163662	26791	1066648	45583	111309	0	0	8037	580541	0	0
2024-07-29 12:41:47			0	36908	0	0	0	30381	28910	163682	26916	1066693	45606	111312	0	0	8036	580654	0	0
2024-07-29 12:42:47			0	36901	0	0	0	30386	28920	163550	26767	1066684	45595	111314	0	0	8036	580901	0	0
2024-07-29 12:43:47			0	36924	0	0	0	30389	28930	163650	26797	1066702	45585	111315	0	0	8037	579947	0	0
2024-07-29 12:44:47			0	36907	0	0	0	30397	28930	163694	26776	1066747	45585	111318	0	0	8036	580627	0	0
2024-07-29 12:45:47			0	36890	0	0	0	30399	28940	163738	26615	1066819	45596	111319	0	0	8035	581274	0	0
2024-07-29 12:46:47			0	36877	0	0	0	30405	28970	163794	26592	1066819	45600	111321	0	0	8034	581694	0	0
2024-07-29 12:47:47			0	36891	0	0	0	30410	28960	163890	26922	1066855	45599	111323	0	0	8035	581167	0	0
2024-07-29 12:48:47			0	36886	0	0	0	30418	28970	163842	26804	1066873	45600	111326	0	0	8035	581333	0	0
2024-07-29 12:49:47			0	36893	0	0	0	30418	28970	163806	27005	1066846	45589	111326	0	0	8035	581053	0	0
2024-07-29 12:50:47			0	36874	0	0	0	30420	28980	163694	26512	1066998	45601	111327	0	0	8034	581781	0	0
2024-07-29 12:51:47			0	36895	0	0	0	30431	28990	163722	27064	1066909	45602	111331	0	0	8035	580905	0	0
2024-07-29 12:52:47			0	36858	0	0	0	30438	28990	163894	26977	1067061	45612	111334	0	0	8033	582388	0	0
2024-07-29 12:53:47			0	36865	0	0	0	30449	29000	163818	26845	1067034	45592	111338	0	0	8033	582074	0	0
2024-07-29 12:54:47			0	36859	0	0	0	30446	29000	163886	26817	1067052	45603	111337	0	0	8033	582315	0	0
2024-07-29 12:55:47			0	36852	0	0	0	30446	29010	163914	26717	1067097	45592	111337	0	0	8032	582562	0	0
2024-07-29 12:56:47			0	36833	0	0	0	30431	29010	163938	26885	1067079	45593	111331	0	0	8032	583324	0	0
2024-07-29 12:57:47			0	36809	0	0	0	30431	29010	164194	26821	1067070	45592	111331	0	0	8030	584289	0	0
2024-07-29 12:58:47			0	36769	0	0	0	30438	29020	164250	26651	1067070	45595	111334	0	0	8028	585864	0	0
2024-07-29 12:59:47			0	36743	0	0	0	30444	29020	164322	27053	1067169	45605	111336	0	0	8026	586912	0	0
2024-07-29 13:00:47			0	36716	0	0	0	30436	29020	164602	26670	1067097	45606	111333	0	0	8025	588002	0	0
2024-07-29 13:01:47			0	36686	0	0	0	30457	29010	164650	27012	1067079	45593	111341	0	0	8022	589248	0	0
2024-07-29 13:02:47			0	36640	0	0	0	30457	29020	164786	26745	1067178	45606	111341	0	0	8020	591076	0	0
2024-07-29 13:03:47			0	36579	0	0	0	30470	29030	164965	26644	1067196	45606	111346	0	0	8016	593517	0	0
2024-07-29 13:04:47			0	36518	0	0	0	30472	29040	165197	26961	1067178	45618	111347	0	0	8012	595965	0	0
2024-07-29 13:05:47			0	36452	0	0	0	30485	29040	165493	26748	1067232	45607	111352	0	0	8008	598659	0	0
2024-07-29 13:06:47			0	36443	0	0	0	30488	29050	165713	26693	1067358	45608	111353	0	0	8008	598992	0	0
2024-07-29 13:07:47			0	36417	0	0	0	30496	29060	165773	26616	1067376	45609	111356	0	0	8006	600021	0	0
2024-07-29 13:08:47			0	36415	0	0	0	30519	29060	165777	26733	1067430	45631	111365	0	0	8006	600103	0	0
2024-07-29 13:09:47			0	36427	0	0	0	30527	29070	165813	26739	1067448	45621	111368	0	0	8006	599577	0	0
2024-07-29 13:10:47			0	36435	0	0	0	30537	29070	165633	26887	1067538	45621	111372	0	0	8007	599250	0	0
2024-07-29 13:11:47			0	36434	0	0	0	30542	29080	165633	26916	1067520	45622	111374	0	0	8006	599256	0	0
2024-07-29 13:12:47			0	36408	0	0	0	30532	29090	165693	26703	1067628	45635	111370	0	0	8005	600285	0	0
2024-07-29 13:13:47			0	36364	0	0	0	30555	29090	165877	27001	1067628	45613	111379	0	0	8002	602089	0	0
2024-07-29 13:14:47			0	36323	0	0	0	30550	29110	166129	26922	1067708	45615	111377	0	0	8000	603703	0	0
2024-07-29 13:15:47			0	36296	0	0	0	30545	29120	166289	26963	1067735	45626	111375	0	0	7998	604778	0	0
2024-07-29 13:16:47			0	36256	0	0	0	30563	29130	166441	27013	1067717	45627	111382	0	0	7996	606391	0	0
2024-07-29 13:17:47			0	36215	0	0	0	30628	29130	166485	26741	1067879	45639	111407	0	0	7992	608084	0	0
2024-07-29 13:18:47			0	36224	0	0	0	30664	29150	166513	26748	1067978	45652	111421	0	0	7992	607641	0	0
2024-07-29 13:19:47			0	36240	0	0	0	30670	29150	166389	26599	1068113	45629	111423	0	0	7993	606981	0	0
2024-07-29 13:20:47			0	36338	0	0	0	30641	29160	165993	26960	1068158	45642	111412	0	0	7999	602911	0	0
2024-07-29 13:21:47			0	36345	0	0	0	30594	29180	165797	26752	1068032	45610	111394	0	0	8001	602554	0	0
2024-07-29 13:22:47			0	36339	0	0	0	30579	29180	165913	26875	1067978	45622	111388	0	0	8001	602800	0	0
2024-07-29 13:23:47			0	36302	0	0	0	30550	29170	166053	26937	1067879	45599	111377	0	0	7999	604356	0	0
2024-07-29 13:24:47			0	36250	0	0	0	30542	29160	166293	26769	1067826	45608	111374	0	0	7996	606533	0	0
2024-07-29 13:25:47			0	36218	0	0	0	30545	29150	166469	26896	1067817	45607	111375	0	0	7994	607889	0	0
2024-07-29 13:26:47			0	36172	0	0	0	30503	29140	166569	26757	1067744	45606	111359	0	0	7992	609827	0	0
2024-07-29 13:27:47			0	36156	0	0	0	30532	29140	166781	26908	1067771	45583	111370	0	0	7990	610490	0	0
2024-07-29 13:28:47			0	36146	0	0	0	30529	29130	166785	26701	1067726	45605	111369	0	0	7990	610939	0	0
2024-07-29 13:29:47			0	36121	0	0	0	30545	29130	166841	26760	1067744	45605	111375	0	0	7988	611977	0	0
2024-07-29 13:30:47			0	36130	0	0	0	30584	29140	166901	26909	1067798	45618	111390	0	0	7988	611567	0	0
2024-07-29 13:31:47			0	36117	0	0	0	30571	29140	166957	26651	1067825	45618	111385	0	0	7987	612107	0	0
2024-07-29 13:32:47			0	36113	0	0	0	30555	29140	166917	26920	1067816	45605	111379	0	0	7987	612273	0	0
2024-07-29 13:33:47			0	36125	0	0	0	30581	29140	166917	26748	1067798	45606	111389	0	0	7988	611775	0	0
2024-07-29 13:34:47			0	36110	0	0	0	30574	29140	167053	26908	1067771	45606	111386	0	0	7987	612397	0	0
2024-07-29 13:35:47			0	36129	0	0	0	30574	29150	166937	26620	1067888	45619	111386	0	0	7988	611573	0	0
2024-07-29 13:36:47			0	36150	0	0	0	30540	29140	166785	26790	1067798	45606	111373	0	0	7990	610738	0	0
2024-07-29 13:37:47			0	36145	0	0	0	30522	29140	166813	26582	1067771	45606	111366	0	0	7990	610945	0	0
2024-07-29 13:38:47			0	36133	0	0	0	30548	29130	166857	26460	1067699	45605	111376	0	0	7989	611479	0	0
2024-07-29 13:39:47			0	36131	0	0	0	30561	29130	166969	26672	1067834	45627	111381	0	0	7988	611561	0	0
2024-07-29 13:40:47			0	36126	0	0	0	30602	29140	166909	26502	1067924	45617	111397	0	0	7987	611733	0	0
2024-07-29 13:41:47			0	36113	0	0	0	30638	29150	166993	26542	1067978	45619	111411	0	0	7986	612237	0	0
2024-07-29 13:42:47			0	36115	0	0	0	30599	29160	167057	26800	1067915	45608	111396	0	0	7987	612119	0	0
2024-07-29 13:43:47			0	36135	0	0	0	30605	29160	167021	26576	1068023	45642	111398	0	0	7988	611289	0	0
2024-07-29 13:44:47			0	36124	0	0	0	30618	29170	166941	26693	1067978	45621	111403	0	0	7987	611710	0	0
2024-07-29 13:45:47			0	36147	0	0	0	30592	29170	166973	26680	1068041	45610	111393	0	0	7989	610756	0	0
2024-07-29 13:46:47			0	36179	0	0	0	30592	29170	166701	26585	1068068	45610	111393	0	0	7991	609431	0	0
2024-07-29 13:47:47			0	36185	0	0	0	30618	29170	166609	26609	1068068	45610	111403	0	0	7991	609183	0	0
2024-07-29 13:48:47			0	36191	0	0	0	30633	29170	166681	26965	1068086	45631	111409	0	0	7991	608934	0	0
2024-07-29 13:49:47			0	36201	0	0	0	30633	29180	166601	26575	1068077	45622	111409	0	0	7992	608486	0	0
2024-07-29 13:50:47			0	36215	0	0	0	30651	29190	166609	26979	1068122	45623	111416	0	0	7992	607872	0	0
2024-07-29 13:51:47			0	36202	0	0	0	30696	29190	166649	26661	1068266	45634	111433	0	0	7991	608409	0	0
2024-07-29 13:52:47			0	36208	0	0	0	30706	29200	166649	26864	1068338	45657	111437	0	0	7991	608126	0	0
2024-07-29 13:53:47			0	36220	0	0	0	30716	29220	166633	26916	1068392	45636	111441	0	0	7991	607559	0	0
2024-07-29 13:54:47			0	36224	0	0	0	30672	29220	166525	26968	1068338	45647	111424	0	0	7992	607394	0	0
2024-07-29 13:55:47			0	36252	0	0	0	30683	29230	166437	26648	1068329	45637	111428	0	0	7994	606204	0	0
2024-07-29 13:56:47			0	36266	0	0	0	30685	29220	166293	27039	1068347	45626	111429	0	0	7995	605662	0	0
2024-07-29 13:57:47			0	36304	0	0	0	30683	29230	166133	27072	1068383	45648	111428	0	0	7997	604063	0	0
2024-07-29 13:58:47			0	36328	0	0	0	30701	29240	166013	26601	1068437	45650	111435	0	0	7998	603042	0	0
2024-07-29 13:59:47			0	36358	0	0	0	30706	29250	165965	26738	1068446	45639	111437	0	0	8000	601776	0	0
2024-07-29 14:00:47			0	36367	0	0	0	30706	29250	165929	26913	1068482	45651	111437	0	0	8001	601406	0	0
2024-07-29 14:01:47			0	36388	0	0	0	30706	29260	165885	26863	1068653	45651	111437	0	0	8002	600511	0	0
2024-07-29 14:02:47			0	36386	0	0	0	30703	29260	165729	26767	1068626	45663	111436	0	0	8002	600593	0	0
2024-07-29 14:03:47			0	36384	0	0	0	30719	29270	165693	26764	1068590	45665	111442	0	0	8001	600640	0	0
2024-07-29 14:04:47			0	36420	0	0	0	30719	29290	165601	26733	1068698	45643	111442	0	0	8004	599097	0	0
2024-07-29 14:05:47			0	36446	0	0	0	30716	29280	165449	26812	1068716	45621	111441	0	0	8005	598070	0	0
2024-07-29 14:06:47			0	36439	0	0	0	30706	29290	165445	26327	1068599	45632	111437	0	0	8005	598321	0	0
2024-07-29 14:07:47			0	36440	0	0	0	30722	29300	165365	26611	1068752	45645	111443	0	0	8005	598245	0	0
2024-07-29 14:08:47			0	36466	0	0	0	30711	29300	165293	27010	1068716	45644	111439	0	0	8007	597184	0	0
2024-07-29 14:09:47			0	36466	0	0	0	30727	29290	165261	26622	1068734	45632	111445	0	0	8006	597219	0	0
2024-07-29 14:10:47			0	36490	0	0	0	30727	29300	165205	26590	1068662	45666	111445	0	0	8008	596206	0	0
2024-07-29 14:11:47			0	36491	0	0	0	30709	29300	165137	26457	1068725	45645	111438	0	0	8008	596165	0	0
2024-07-29 14:12:47			0	36517	0	0	0	30724	29310	165241	26989	1068743	45634	111444	0	0	8009	595072	0	0
2024-07-29 14:13:47			0	36523	0	0	0	30724	29310	164929	26885	1068734	45612	111444	0	0	8010	594828	0	0
2024-07-29 14:14:47			0	36527	0	0	0	30716	29310	165061	26774	1068761	45633	111441	0	0	8010	594665	0	0
2024-07-29 14:15:47			0	36535	0	0	0	30729	29310	165121	26844	1068761	45645	111446	0	0	8010	594340	0	0
2024-07-29 14:16:47			0	36524	0	0	0	30748	29310	165053	26866	1068815	45656	111453	0	0	8009	594787	0	0
2024-07-29 14:17:47			0	36539	0	0	0	30732	29320	165013	26885	1068779	45634	111447	0	0	8011	594143	0	0
2024-07-29 14:18:47			0	36556	0	0	0	30724	29320	164913	26800	1068869	45635	111444	0	0	8012	593452	0	0
2024-07-29 14:19:47			0	36558	0	0	0	30724	29320	165009	26844	1068788	45635	111444	0	0	8012	593371	0	0
2024-07-29 14:20:47			0	36559	0	0	0	30745	29320	164953	26814	1068895	45635	111452	0	0	8012	593330	0	0
2024-07-29 14:21:47			0	36584	0	0	0	30750	29320	164873	27031	1068895	45635	111454	0	0	8013	592316	0	0
2024-07-29 14:22:47			0	36599	0	0	0	30714	29330	164814	26956	1068860	45636	111440	0	0	8015	591673	0	0
2024-07-29 14:23:47			0	36588	0	0	0	30727	29330	164753	26719	1068913	45636	111445	0	0	8014	592119	0	0
2024-07-29 14:24:47			0	36579	0	0	0	30766	29340	164853	26677	1068931	45649	111460	0	0	8013	592450	0	0
2024-07-29 14:25:47			0	36604	0	0	0	30766	29340	164690	26975	1068931	45660	111460	0	0	8014	591436	0	0
2024-07-29 14:26:47			0	36628	0	0	0	30758	29350	164614	27039	1068913	45660	111457	0	0	8016	590430	0	0
2024-07-29 14:27:47			0	36638	0	0	0	30748	29340	164582	26561	1068976	45649	111453	0	0	8016	590060	0	0
2024-07-29 14:28:47			0	36640	0	0	0	30742	29340	164506	26840	1068958	45649	111451	0	0	8017	589979	0	0
2024-07-29 14:29:47			0	36648	0	0	0	30758	29350	164486	26630	1068940	45649	111457	0	0	8017	589621	0	0
2024-07-29 14:30:47			0	36663	0	0	0	30771	29350	164542	26904	1068940	45637	111462	0	0	8017	589015	0	0
2024-07-29 14:31:47			0	36658	0	0	0	30742	29360	164478	26918	1069039	45662	111451	0	0	8018	589182	0	0
2024-07-29 14:32:47			0	36634	0	0	0	30745	29370	164538	26431	1069066	45640	111452	0	0	8016	590119	0	0
2024-07-29 14:33:47			0	36618	0	0	0	30732	29360	164530	26452	1068985	45639	111447	0	0	8015	590800	0	0
2024-07-29 14:34:47			0	36619	0	0	0	30742	29360	164614	26745	1068931	45639	111451	0	0	8015	590760	0	0
2024-07-29 14:35:47			0	36613	0	0	0	30753	29350	164614	26819	1068967	45626	111455	0	0	8015	591037	0	0
2024-07-29 14:36:47			0	36616	0	0	0	30773	29360	164622	26738	1068958	45662	111463	0	0	8015	590881	0	0
2024-07-29 14:37:47			0	36652	0	0	0	30768	29360	164666	26890	1069075	45651	111461	0	0	8017	589425	0	0
2024-07-29 14:38:47			0	36656	0	0	0	30773	29360	164426	27022	1069093	45662	111463	0	0	8017	589263	0	0
2024-07-29 14:39:47			0	36657	0	0	0	30758	29370	164338	26706	1069147	45640	111457	0	0	8017	589188	0	0
2024-07-29 14:40:47			0	36652	0	0	0	30745	29370	164390	26783	1069030	45640	111452	0	0	8017	589391	0	0
2024-07-29 14:41:47			0	36655	0	0	0	30745	29380	164494	26878	1069102	45641	111452	0	0	8018	589235	0	0
2024-07-29 14:42:47			0	36635	0	0	0	30781	29360	164482	27086	1069102	45639	111466	0	0	8016	590112	0	0
2024-07-29 14:43:47			0	36640	0	0	0	30761	29380	164534	27098	1069156	45653	111458	0	0	8016	589842	0	0
2024-07-29 14:44:47			0	36658	0	0	0	30729	29370	164430	26800	1069120	45640	111446	0	0	8018	589148	0	0
2024-07-29 14:45:47			0	36653	0	0	0	30794	29380	164462	26812	1069102	45641	111471	0	0	8017	589316	0	0
2024-07-29 14:46:47			0	36654	0	0	0	30742	29380	164490	26750	1069192	45641	111451	0	0	8018	589276	0	0
2024-07-29 14:47:47			0	36661	0	0	0	30688	29370	164438	26797	1069066	45652	111430	0	0	8019	589027	0	0
2024-07-29 14:48:47			0	36654	0	0	0	30677	29370	164494	26625	1068931	45618	111426	0	0	8019	589310	0	0
2024-07-29 14:49:47			0	36615	0	0	0	30776	29370	164746	26774	1069030	45629	111464	0	0	8015	590887	0	0
2024-07-29 14:50:47			0	36635	0	0	0	30727	29370	164602	26611	1069039	45640	111445	0	0	8017	590078	0	0
2024-07-29 14:51:47			0	36620	0	0	0	30683	29370	164578	26483	1069084	45629	111428	0	0	8016	590685	0	0
2024-07-29 14:52:47			0	36596	0	0	0	30659	29370	164686	26727	1069012	45652	111419	0	0	8015	591657	0	0
2024-07-29 14:53:47			0	36562	0	0	0	30696	29360	164857	26817	1068985	45628	111433	0	0	8013	593070	0	0
2024-07-29 14:54:47			0	36538	0	0	0	30683	29360	165021	26790	1068967	45639	111428	0	0	8012	594045	0	0
2024-07-29 14:55:47			0	36525	0	0	0	30672	29360	164965	26804	1068958	45628	111424	0	0	8011	594573	0	0
2024-07-29 14:56:47			0	36505	0	0	0	30703	29350	165065	26750	1068949	45616	111436	0	0	8009	595422	0	0
2024-07-29 14:57:47			0	36509	0	0	0	30677	29350	165145	26705	1068940	45637	111426	0	0	8010	595259	0	0
2024-07-29 14:58:47			0	36519	0	0	0	30709	29350	165189	27104	1069003	45616	111438	0	0	8010	594852	0	0
2024-07-29 14:59:47			0	36518	0	0	0	30745	29350	165005	26672	1069030	45638	111452	0	0	8009	594893	0	0
2024-07-29 15:00:47			0	36503	0	0	0	30706	29350	165061	26850	1069057	45638	111437	0	0	8009	595503	0	0
2024-07-29 15:01:47			0	36538	0	0	0	30711	29370	165121	26762	1069030	45629	111439	0	0	8011	594011	0	0
2024-07-29 15:02:47			0	36540	0	0	0	30719	29360	165129	26774	1068985	45628	111442	0	0	8011	593964	0	0
2024-07-29 15:03:47			0	36520	0	0	0	30714	29360	165053	26805	1068985	45628	111440	0	0	8010	594777	0	0
2024-07-29 15:04:47			0	36534	0	0	0	30688	29350	165133	26981	1068922	45627	111430	0	0	8011	594242	0	0
2024-07-29 15:05:47			0	36513	0	0	0	30709	29350	165129	26654	1068922	45627	111438	0	0	8010	595096	0	0
2024-07-29 15:06:47			0	36502	0	0	0	30729	29350	165269	26771	1069021	45637	111446	0	0	8009	595544	0	0
2024-07-29 15:07:47			0	36491	0	0	0	30716	29360	165181	26840	1068958	45639	111441	0	0	8008	595957	0	0
2024-07-29 15:08:47			0	36522	0	0	0	30735	29350	165173	26802	1069003	45627	111448	0	0	8010	594730	0	0
2024-07-29 15:09:47			0	36509	0	0	0	30729	29350	165201	27015	1068940	45637	111446	0	0	8009	595259	0	0
2024-07-29 15:10:47			0	36523	0	0	0	30732	29350	165109	26590	1069003	45616	111447	0	0	8010	594690	0	0
2024-07-29 15:11:47			0	36542	0	0	0	30727	29340	164989	26719	1068985	45637	111445	0	0	8011	593952	0	0
2024-07-29 15:12:47			0	36526	0	0	0	30748	29350	165105	26821	1069048	45626	111453	0	0	8010	594567	0	0
2024-07-29 15:13:47			0	36545	0	0	0	30740	29350	165009	26701	1068967	45649	111450	0	0	8011	593795	0	0
2024-07-29 15:14:47			0	36553	0	0	0	30732	29350	165041	26743	1069003	45638	111447	0	0	8012	593470	0	0
2024-07-29 15:15:47			0	36574	0	0	0	30740	29360	164981	26996	1069039	45651	111450	0	0	8013	592583	0	0
2024-07-29 15:16:47			0	36562	0	0	0	30735	29360	164981	27102	1069039	45639	111448	0	0	8012	593070	0	0
2024-07-29 15:17:47			0	36562	0	0	0	30753	29350	164885	26819	1069030	45638	111455	0	0	8012	593105	0	0
2024-07-29 15:18:47			0	36558	0	0	0	30758	29360	164909	26694	1069039	45639	111457	0	0	8012	593233	0	0
2024-07-29 15:19:47			0	36557	0	0	0	30776	29370	165013	26920	1069138	45640	111464	0	0	8011	593239	0	0
2024-07-29 15:20:47			0	36573	0	0	0	30792	29380	164989	26845	1069210	45641	111470	0	0	8012	592555	0	0
2024-07-29 15:21:47			0	36570	0	0	0	30789	29380	164869	26814	1069192	45641	111469	0	0	8012	592677	0	0
2024-07-29 15:22:47			0	36605	0	0	0	30784	29370	164786	26819	1069228	45652	111467	0	0	8014	591292	0	0
2024-07-29 15:23:47			0	36626	0	0	0	30810	29390	164726	26852	1069228	45642	111477	0	0	8015	590373	0	0
2024-07-29 15:24:47			0	36615	0	0	0	30812	29380	164722	26817	1069273	45653	111478	0	0	8014	590853	0	0
2024-07-29 15:25:47			0	36650	0	0	0	30810	29390	164638	26918	1069318	45654	111477	0	0	8016	589403	0	0
2024-07-29 15:26:47			0	36643	0	0	0	30786	29400	164498	26788	1069327	45643	111468	0	0	8016	589652	0	0
2024-07-29 15:27:47			0	36633	0	0	0	30789	29410	164590	26778	1069372	45666	111469	0	0	8016	590022	0	0
2024-07-29 15:28:47			0	36635	0	0	0	30825	29410	164502	27100	1069345	45656	111483	0	0	8015	589941	0	0
2024-07-29 15:29:47			0	36638	0	0	0	30805	29410	164486	26975	1069345	45644	111475	0	0	8016	589819	0	0
2024-07-29 15:30:47			0	36645	0	0	0	30794	29420	164550	26949	1069363	45657	111471	0	0	8016	589502	0	0
2024-07-29 15:31:47			0	36665	0	0	0	30831	29410	164430	26805	1069408	45656	111485	0	0	8017	588728	0	0
2024-07-29 15:32:47			0	36674	0	0	0	30838	29420	164534	26779	1069399	45658	111488	0	0	8017	588331	0	0
2024-07-29 15:33:47			0	36679	0	0	0	30828	29420	164294	26722	1069417	45645	111484	0	0	8018	588129	0	0
2024-07-29 15:34:47			0	36688	0	0	0	30810	29420	164338	26710	1069372	45646	111477	0	0	8019	587766	0	0
2024-07-29 15:35:47			0	36691	0	0	0	30828	29430	164290	26805	1069354	45635	111484	0	0	8019	587611	0	0
2024-07-29 15:36:47			0	36688	0	0	0	30844	29420	164310	26720	1069453	45658	111490	0	0	8018	587766	0	0
2024-07-29 15:37:47			0	36697	0	0	0	30825	29430	164278	26767	1069435	45635	111483	0	0	8019	587369	0	0
2024-07-29 15:38:47			0	36706	0	0	0	30815	29430	164242	26817	1069390	45646	111479	0	0	8020	587006	0	0
2024-07-29 15:39:47			0	36714	0	0	0	30805	29420	164326	26908	1069426	45646	111475	0	0	8020	586718	0	0
2024-07-29 15:40:47			0	36703	0	0	0	30820	29440	164278	27008	1069480	45647	111481	0	0	8019	587093	0	0
2024-07-29 15:41:47			0	36713	0	0	0	30823	29440	164166	26795	1069480	45647	111482	0	0	8020	586690	0	0
2024-07-29 15:42:47			0	36725	0	0	0	30805	29430	164242	26656	1069525	45635	111475	0	0	8021	586241	0	0
2024-07-29 15:43:47			0	36719	0	0	0	30851	29440	164254	26509	1069534	45647	111493	0	0	8020	586448	0	0
2024-07-29 15:44:47			0	36716	0	0	0	30841	29430	164146	26774	1069498	45658	111489	0	0	8020	586603	0	0
2024-07-29 15:45:47			0	36723	0	0	0	30875	29440	164194	27178	1069507	45680	111502	0	0	8020	586287	0	0
2024-07-29 15:46:47			0	36708	0	0	0	30880	29450	164198	26743	1069615	45637	111504	0	0	8019	586857	0	0
2024-07-29 15:47:47			0	36720	0	0	0	30870	29460	164158	27027	1069570	45649	111500	0	0	8020	586340	0	0
2024-07-29 15:48:47			0	36744	0	0	0	30875	29460	164118	26942	1069624	45649	111502	0	0	8021	585374	0	0
2024-07-29 15:49:47			0	36760	0	0	0	30893	29470	164046	26694	1069723	45651	111509	0	0	8022	584696	0	0
2024-07-29 15:50:47			0	36751	0	0	0	30890	29470	164114	26935	1069642	45651	111508	0	0	8021	585058	0	0
2024-07-29 15:51:47			0	36776	0	0	0	30888	29470	163974	26908	1069705	45640	111507	0	0	8023	584054	0	0
2024-07-29 15:52:47			0	36769	0	0	0	30888	29480	163982	26798	1069804	45652	111507	0	0	8022	584301	0	0
2024-07-29 15:53:47			0	36776	0	0	0	30890	29480	163942	26817	1069723	45652	111508	0	0	8023	584020	0	0
2024-07-29 15:54:47			0	36775	0	0	0	30877	29480	163970	27017	1069723	45652	111503	0	0	8023	584060	0	0
2024-07-29 15:55:47			0	36784	0	0	0	30857	29480	163818	26791	1069696	45652	111495	0	0	8024	583698	0	0
2024-07-29 15:56:47			0	36776	0	0	0	30877	29480	163890	26873	1069714	45651	111503	0	0	8023	584020	0	0
2024-07-29 15:57:47			0	36790	0	0	0	30877	29480	163882	26915	1069750	45641	111503	0	0	8024	583458	0	0
2024-07-29 15:58:47			0	36796	0	0	0	30885	29480	163786	26857	1069741	45640	111506	0	0	8024	583217	0	0
2024-07-29 15:59:47			0	36791	0	0	0	30875	29480	163858	26824	1069714	45662	111502	0	0	8024	583418	0	0
2024-07-29 16:00:47			0	36772	0	0	0	30885	29490	163786	27038	1069732	45653	111506	0	0	8023	584146	0	0
2024-07-29 16:01:47			0	36793	0	0	0	30896	29490	163850	26942	1069768	45653	111510	0	0	8024	583303	0	0
2024-07-29 16:02:47			0	36804	0	0	0	30836	29490	163842	27041	1069741	45642	111487	0	0	8025	582862	0	0
2024-07-29 16:03:47			0	36784	0	0	0	30825	29500	163938	26703	1069723	45642	111483	0	0	8024	583630	0	0
2024-07-29 16:04:47			0	36800	0	0	0	30849	29490	163930	26951	1069678	45653	111492	0	0	8025	583023	0	0
2024-07-29 16:05:47			0	36800	0	0	0	30833	29480	163906	26720	1069696	45629	111486	0	0	8025	583056	0	0
2024-07-29 16:06:47			0	36782	0	0	0	30851	29480	164002	26684	1069660	45640	111493	0	0	8024	583779	0	0
2024-07-29 16:07:47			0	36776	0	0	0	30844	29480	163898	26811	1069633	45651	111490	0	0	8023	584020	0	0
2024-07-29 16:08:47			0	36760	0	0	0	30851	29470	164034	26849	1069597	45628	111493	0	0	8022	584696	0	0
2024-07-29 16:09:47			0	36752	0	0	0	30859	29470	164126	26694	1069651	45651	111496	0	0	8022	585018	0	0
2024-07-29 16:10:47			0	36743	0	0	0	30870	29470	164082	27135	1069705	45640	111500	0	0	8021	585380	0	0
2024-07-29 16:11:47			0	36756	0	0	0	30890	29470	163994	27062	1069705	45628	111508	0	0	8021	584857	0	0
2024-07-29 16:12:47			0	36747	0	0	0	30906	29490	164150	27083	1069732	45664	111514	0	0	8021	585151	0	0
2024-07-29 16:13:47			0	36739	0	0	0	30880	29490	164026	26927	1069732	45642	111504	0	0	8021	585473	0	0
2024-07-29 16:14:47			0	36761	0	0	0	30870	29480	164022	26852	1069669	45663	111500	0	0	8022	584622	0	0
2024-07-29 16:15:47			0	36789	0	0	0	30849	29480	163874	26824	1069606	45640	111492	0	0	8024	583498	0	0
2024-07-29 16:16:47			0	36780	0	0	0	30846	29480	163922	26875	1069696	45674	111491	0	0	8024	583859	0	0
2024-07-29 16:17:47			0	36776	0	0	0	30864	29480	163862	26948	1069660	45640	111498	0	0	8023	584020	0	0
2024-07-29 16:18:47			0	36776	0	0	0	30857	29490	164002	27015	1069651	45642	111495	0	0	8023	583986	0	0
2024-07-29 16:19:47			0	36785	0	0	0	30870	29470	163926	26850	1069705	45662	111500	0	0	8024	583692	0	0
2024-07-29 16:20:47			0	36773	0	0	0	30857	29470	163910	26805	1069696	45651	111495	0	0	8023	584174	0	0
2024-07-29 16:21:47			0	36774	0	0	0	30849	29480	163878	27071	1069669	45652	111492	0	0	8023	584100	0	0
2024-07-29 16:22:47			0	36790	0	0	0	30854	29490	163858	27060	1069705	45653	111494	0	0	8024	583424	0	0
2024-07-29 16:23:47			0	36762	0	0	0	30864	29480	163870	27199	1069669	45652	111498	0	0	8022	584582	0	0
2024-07-29 16:24:47			0	36765	0	0	0	30875	29480	163950	27105	1069723	45652	111502	0	0	8022	584461	0	0
2024-07-29 16:25:47			0	36766	0	0	0	30883	29490	163922	27005	1069705	45642	111505	0	0	8022	584387	0	0
2024-07-29 16:26:47			0	36768	0	0	0	30862	29490	163930	27121	1069732	45653	111497	0	0	8023	584307	0	0
2024-07-29 16:27:47			0	36776	0	0	0	30841	29490	163922	26835	1069678	45642	111489	0	0	8024	583986	0	0
2024-07-29 16:28:47			0	36789	0	0	0	30857	29490	163906	26857	1069714	45653	111495	0	0	8024	583464	0	0
2024-07-29 16:29:47			0	36781	0	0	0	30836	29480	163878	26958	1069696	45652	111487	0	0	8024	583819	0	0
2024-07-29 16:30:47			0	36778	0	0	0	30841	29480	163822	26807	1069669	45641	111489	0	0	8024	583939	0	0
2024-07-29 16:31:47			0	36784	0	0	0	30831	29480	163886	26816	1069723	45641	111485	0	0	8024	583698	0	0
2024-07-29 16:32:47			0	36782	0	0	0	30857	29490	163882	26911	1069651	45642	111495	0	0	8024	583745	0	0
2024-07-29 16:33:47			0	36769	0	0	0	30877	29480	163914	26778	1069714	45651	111503	0	0	8023	584301	0	0
2024-07-29 16:34:47			0	36759	0	0	0	30846	29490	164086	26708	1069678	45653	111491	0	0	8023	584669	0	0
2024-07-29 16:35:47			0	36756	0	0	0	30875	29480	163898	26771	1069723	45641	111502	0	0	8022	584823	0	0
2024-07-29 16:36:47			0	36753	0	0	0	30867	29490	164054	26705	1069732	45653	111499	0	0	8022	584910	0	0
2024-07-29 16:37:47			0	36776	0	0	0	30857	29490	163974	26630	1069786	45675	111495	0	0	8023	583986	0	0
2024-07-29 16:38:47			0	36755	0	0	0	30838	29480	163954	26540	1069669	45641	111488	0	0	8022	584863	0	0
2024-07-29 16:39:47			0	36767	0	0	0	30841	29480	163974	26833	1069696	45641	111489	0	0	8023	584381	0	0
2024-07-29 16:40:47			0	36792	0	0	0	30828	29470	163950	26918	1069624	45640	111484	0	0	8025	583411	0	0
2024-07-29 16:41:47			0	36787	0	0	0	30797	29480	163974	26821	1069606	45628	111472	0	0	8025	583578	0	0
2024-07-29 16:42:47			0	36775	0	0	0	30799	29460	163958	26817	1069525	45627	111473	0	0	8024	584128	0	0
2024-07-29 16:43:47			0	36752	0	0	0	30805	29460	164062	26878	1069543	45638	111475	0	0	8023	585052	0	0
2024-07-29 16:44:47			0	36757	0	0	0	30805	29460	164062	26975	1069552	45627	111475	0	0	8023	584851	0	0
2024-07-29 16:45:47			0	36753	0	0	0	30792	29460	164178	26835	1069570	45649	111470	0	0	8023	585012	0	0
2024-07-29 16:46:47			0	36744	0	0	0	30805	29460	164142	26890	1069552	45661	111475	0	0	8022	585374	0	0
2024-07-29 16:47:47			0	36755	0	0	0	30877	29460	164110	26488	1069570	45649	111503	0	0	8022	584931	0	0
2024-07-29 16:48:47			0	36746	0	0	0	30890	29450	164166	27130	1069579	45659	111508	0	0	8021	585327	0	0
2024-07-29 16:49:47			0	36752	0	0	0	30901	29460	164110	26840	1069660	45672	111512	0	0	8021	585052	0	0
2024-07-29 16:50:47			0	36765	0	0	0	30903	29470	164066	26850	1069732	45662	111513	0	0	8022	584496	0	0
2024-07-29 16:51:47			0	36780	0	0	0	30893	29480	164018	27121	1069768	45651	111509	0	0	8023	583859	0	0
2024-07-29 16:52:47			0	36809	0	0	0	30859	29490	163886	26989	1069705	45653	111496	0	0	8025	582662	0	0
2024-07-29 16:53:47			0	36825	0	0	0	30812	29480	163726	27234	1069723	45652	111478	0	0	8027	582054	0	0
2024-07-29 16:54:47			0	36831	0	0	0	30805	29470	163738	26856	1069678	45618	111475	0	0	8027	581848	0	0
2024-07-29 16:55:47			0	36822	0	0	0	30825	29460	163806	26755	1069606	45650	111483	0	0	8026	582242	0	0
2024-07-29 16:56:47			0	36828	0	0	0	30870	29470	163786	27015	1069615	45628	111500	0	0	8026	581968	0	0
2024-07-29 16:57:47			0	36806	0	0	0	30888	29470	163778	26996	1069642	45673	111507	0	0	8024	582850	0	0
2024-07-29 16:58:47			0	36826	0	0	0	30888	29470	163758	26838	1069696	45662	111507	0	0	8026	582048	0	0
2024-07-29 16:59:47			0	36821	0	0	0	30859	29470	163830	26639	1069678	45673	111496	0	0	8026	582248	0	0
2024-07-29 17:00:47			0	36814	0	0	0	30846	29480	163694	26915	1069741	45662	111491	0	0	8026	582495	0	0
2024-07-29 17:01:47			0	36830	0	0	0	30862	29480	163830	27020	1069723	45652	111497	0	0	8026	581854	0	0
2024-07-29 17:02:47			0	36825	0	0	0	30859	29480	163806	26779	1069750	45652	111496	0	0	8026	582054	0	0
2024-07-29 17:03:47			0	36818	0	0	0	30867	29480	163826	26752	1069723	45652	111499	0	0	8026	582335	0	0
2024-07-29 17:04:47			0	36828	0	0	0	30846	29480	163774	26812	1069750	45663	111491	0	0	8027	581934	0	0
2024-07-29 17:05:47			0	36823	0	0	0	30836	29490	163834	27007	1069732	45653	111487	0	0	8026	582100	0	0
2024-07-29 17:06:47			0	36817	0	0	0	30833	29480	163866	26960	1069777	45641	111486	0	0	8026	582375	0	0
2024-07-29 17:07:47			0	36795	0	0	0	30844	29490	163866	26845	1069705	45642	111490	0	0	8025	583223	0	0
2024-07-29 17:08:47			0	36788	0	0	0	30823	29480	163914	26814	1069669	45652	111482	0	0	8025	583538	0	0
2024-07-29 17:09:47			0	36787	0	0	0	30810	29480	164018	26764	1069579	45640	111477	0	0	8025	583578	0	0
2024-07-29 17:10:47			0	36796	0	0	0	30802	29470	163938	26814	1069624	45651	111474	0	0	8025	583251	0	0
2024-07-29 17:11:47			0	36782	0	0	0	30820	29460	164078	26611	1069606	45627	111481	0	0	8024	583847	0	0
2024-07-29 17:12:47			0	36758	0	0	0	30846	29460	164110	26609	1069579	45639	111491	0	0	8022	584811	0	0
2024-07-29 17:13:47			0	36755	0	0	0	30849	29460	164174	26812	1069606	45650	111492	0	0	8022	584931	0	0
2024-07-29 17:14:47			0	36747	0	0	0	30885	29460	164178	26765	1069687	45650	111506	0	0	8021	585253	0	0
2024-07-29 17:15:47			0	36759	0	0	0	30875	29470	164110	26852	1069750	45673	111502	0	0	8022	584737	0	0
2024-07-29 17:16:47			0	36765	0	0	0	30896	29470	163986	26922	1069759	45651	111510	0	0	8022	584496	0	0
2024-07-29 17:17:47			0	36763	0	0	0	30898	29470	164050	26923	1069786	45662	111511	0	0	8022	584576	0	0
2024-07-29 17:18:47			0	36788	0	0	0	30903	29490	164030	26937	1069786	45653	111513	0	0	8023	583504	0	0
2024-07-29 17:19:47			0	36795	0	0	0	30906	29490	163982	26986	1069822	45664	111514	0	0	8024	583223	0	0
2024-07-29 17:20:47			0	36812	0	0	0	30875	29490	163918	26637	1069822	45664	111502	0	0	8025	582541	0	0
2024-07-29 17:21:47			0	36825	0	0	0	30857	29490	163842	26896	1069768	45642	111495	0	0	8026	582020	0	0
2024-07-29 17:22:47			0	36821	0	0	0	30857	29480	163814	26979	1069750	45629	111495	0	0	8026	582214	0	0
2024-07-29 17:23:47			0	36834	0	0	0	30851	29480	163734	27088	1069723	45629	111493	0	0	8027	581694	0	0
2024-07-29 17:24:47			0	36827	0	0	0	30857	29480	163710	26819	1069714	45651	111495	0	0	8026	581974	0	0
2024-07-29 17:25:47			0	36839	0	0	0	30854	29490	163786	26951	1069705	45653	111494	0	0	8027	581459	0	0
2024-07-29 17:26:47			0	36837	0	0	0	30857	29480	163778	27282	1069723	45663	111495	0	0	8027	581573	0	0
2024-07-29 17:27:47			0	36826	0	0	0	30880	29490	163846	26967	1069768	45664	111504	0	0	8026	581980	0	0
2024-07-29 17:28:47			0	36835	0	0	0	30864	29480	163826	26915	1069741	45651	111498	0	0	8027	581654	0	0
2024-07-29 17:29:47			0	36832	0	0	0	30836	29480	163754	26922	1069669	45641	111487	0	0	8027	581774	0	0
2024-07-29 17:30:47			0	36814	0	0	0	30833	29480	163806	26955	1069714	45651	111486	0	0	8026	582495	0	0
2024-07-29 17:31:47			0	36821	0	0	0	30841	29470	163750	26743	1069678	45640	111489	0	0	8026	582248	0	0
2024-07-29 17:32:47			0	36815	0	0	0	30851	29470	163746	27003	1069732	45640	111493	0	0	8026	582489	0	0
2024-07-29 17:33:47			0	36822	0	0	0	30857	29480	163818	26956	1069741	45651	111495	0	0	8026	582174	0	0
2024-07-29 17:34:47			0	36822	0	0	0	30846	29480	163838	26755	1069687	45651	111491	0	0	8026	582174	0	0
2024-07-29 17:35:47			0	36837	0	0	0	30844	29470	163850	26837	1069705	45651	111490	0	0	8027	581607	0	0
2024-07-29 17:36:47			0	36829	0	0	0	30838	29470	163718	26963	1069705	45640	111488	0	0	8027	581928	0	0
2024-07-29 17:37:47			0	36833	0	0	0	30867	29470	163742	26835	1069615	45651	111499	0	0	8026	581767	0	0
2024-07-29 17:38:47			0	36834	0	0	0	30872	29470	163822	26585	1069732	45662	111501	0	0	8026	581728	0	0
2024-07-29 17:39:47			0	36833	0	0	0	30849	29470	163718	26778	1069732	45673	111492	0	0	8027	581767	0	0
2024-07-29 17:40:47			0	36832	0	0	0	30844	29470	163666	26812	1069696	45662	111490	0	0	8027	581808	0	0
2024-07-29 17:41:47			0	36842	0	0	0	30859	29480	163674	26497	1069660	45651	111496	0	0	8027	581373	0	0
2024-07-29 17:42:47			0	36844	0	0	0	30880	29470	163738	27045	1069750	45662	111504	0	0	8027	581327	0	0
2024-07-29 17:43:47			0	36851	0	0	0	30877	29480	163770	26720	1069687	45651	111503	0	0	8027	581013	0	0
2024-07-29 17:44:47			0	36842	0	0	0	30888	29470	163706	26722	1069759	45662	111507	0	0	8027	581407	0	0
2024-07-29 17:45:47			0	36834	0	0	0	30893	29480	163742	26611	1069696	45652	111509	0	0	8026	581694	0	0
2024-07-29 17:46:47			0	36856	0	0	0	30911	29480	163666	26696	1069750	45663	111516	0	0	8027	580813	0	0
2024-07-29 17:47:47			0	36842	0	0	0	30922	29490	163678	26752	1069840	45686	111520	0	0	8026	581340	0	0
2024-07-29 17:48:47			0	36870	0	0	0	30927	29490	163746	26896	1069876	45664	111522	0	0	8028	580219	0	0
2024-07-29 17:49:47			0	36872	0	0	0	30927	29490	163606	26866	1069930	45664	111522	0	0	8028	580139	0	0
2024-07-29 17:50:47			0	36903	0	0	0	30890	29510	163490	26745	1069903	45655	111508	0	0	8030	578834	0	0
2024-07-29 17:51:47			0	36915	0	0	0	30844	29510	163446	26967	1069849	45643	111490	0	0	8032	578355	0	0
2024-07-29 17:52:47			0	36922	0	0	0	30883	29500	163430	26717	1069858	45664	111505	0	0	8031	578109	0	0
2024-07-29 17:53:47			0	36907	0	0	0	30870	29490	163458	26870	1069795	45653	111500	0	0	8031	578741	0	0
2024-07-29 17:54:47			0	36907	0	0	0	30872	29500	163526	26680	1069831	45653	111501	0	0	8031	578708	0	0
2024-07-29 17:55:47			0	36887	0	0	0	30890	29490	163594	26824	1069813	45642	111508	0	0	8029	579540	0	0
2024-07-29 17:56:47			0	36881	0	0	0	30872	29500	163754	26665	1069840	45654	111501	0	0	8029	579746	0	0
2024-07-29 17:57:47			0	36878	0	0	0	30846	29500	163714	26887	1069750	45675	111491	0	0	8030	579866	0	0
2024-07-29 17:58:47			0	36877	0	0	0	30854	29490	163746	26817	1069813	45653	111494	0	0	8029	579940	0	0
2024-07-29 17:59:47			0	36874	0	0	0	30862	29490	163790	26781	1069732	45642	111497	0	0	8029	580059	0	0
2024-07-29 18:00:47			0	36864	0	0	0	30867	29480	163834	26781	1069723	45629	111499	0	0	8028	580493	0	0
2024-07-29 18:01:47			0	36842	0	0	0	30875	29480	163862	26724	1069777	45641	111502	0	0	8027	581373	0	0
2024-07-29 18:02:47			0	36826	0	0	0	30883	29480	163926	26861	1069768	45651	111505	0	0	8026	582014	0	0
2024-07-29 18:03:47			0	36829	0	0	0	30872	29480	163950	27066	1069714	45651	111501	0	0	8026	581894	0	0
2024-07-29 18:04:47			0	36815	0	0	0	30872	29480	163950	26722	1069741	45662	111501	0	0	8025	582455	0	0
2024-07-29 18:05:47			0	36796	0	0	0	30872	29480	163974	26849	1069750	45663	111501	0	0	8024	583217	0	0
2024-07-29 18:06:47			0	36817	0	0	0	30838	29480	163902	27003	1069687	45651	111488	0	0	8026	582375	0	0
2024-07-29 18:07:47			0	36813	0	0	0	30838	29480	164082	26958	1069723	45652	111488	0	0	8026	582535	0	0
2024-07-29 18:08:47			0	36831	0	0	0	30846	29470	163898	26665	1069696	45640	111491	0	0	8027	581848	0	0
2024-07-29 18:09:47			0	36833	0	0	0	30859	29470	163882	26556	1069642	45662	111496	0	0	8027	581767	0	0
2024-07-29 18:10:47			0	36816	0	0	0	30838	29470	163974	27130	1069597	45651	111488	0	0	8026	582449	0	0
2024-07-29 18:11:47			0	36830	0	0	0	30851	29460	163930	26739	1069633	45672	111493	0	0	8026	581921	0	0
2024-07-29 18:12:47			0	36825	0	0	0	30851	29470	163890	26981	1069696	45651	111493	0	0	8026	582088	0	0
2024-07-29 18:13:47			0	36821	0	0	0	30854	29450	163954	26739	1069615	45648	111494	0	0	8026	582316	0	0
2024-07-29 18:14:47			0	36827	0	0	0	30864	29460	163926	27013	1069651	45649	111498	0	0	8026	582042	0	0
2024-07-29 18:15:47			0	36831	0	0	0	30859	29460	164022	26833	1069597	45649	111496	0	0	8026	581881	0	0
2024-07-29 18:16:47			0	36811	0	0	0	30859	29460	164074	26698	1069687	45650	111496	0	0	8025	582683	0	0
2024-07-29 18:17:47			0	36813	0	0	0	30849	29470	164002	26934	1069696	45651	111492	0	0	8026	582569	0	0
2024-07-29 18:18:47			0	36824	0	0	0	30854	29460	164006	26746	1069714	45672	111494	0	0	8026	582162	0	0
2024-07-29 18:19:47			0	36834	0	0	0	30854	29460	163986	26991	1069741	45650	111494	0	0	8027	581761	0	0
2024-07-29 18:20:47			0	36846	0	0	0	30854	29470	163918	26672	1069669	45651	111494	0	0	8027	581247	0	0
2024-07-29 18:21:47			0	36825	0	0	0	30859	29460	163910	26817	1069660	45672	111496	0	0	8026	582122	0	0
2024-07-29 18:22:47			0	36827	0	0	0	30846	29460	163926	26809	1069687	45661	111491	0	0	8026	582042	0	0
2024-07-29 18:23:47			0	36836	0	0	0	30851	29460	163946	26776	1069624	45682	111493	0	0	8027	581681	0	0
2024-07-29 18:24:47			0	36823	0	0	0	30857	29450	163902	26897	1069615	45648	111495	0	0	8026	582236	0	0
2024-07-29 18:25:47			0	36823	0	0	0	30844	29460	163986	26628	1069624	45649	111490	0	0	8026	582202	0	0
2024-07-29 18:26:47			0	36833	0	0	0	30851	29450	163882	26628	1069615	45648	111493	0	0	8027	581835	0	0
2024-07-29 18:27:47			0	36817	0	0	0	30846	29450	163982	26889	1069696	45659	111491	0	0	8026	582476	0	0
2024-07-29 18:28:47			0	36824	0	0	0	30846	29450	163990	26755	1069669	45670	111491	0	0	8026	582196	0	0
2024-07-29 18:29:47			0	36834	0	0	0	30846	29460	163942	26958	1069678	45649	111491	0	0	8027	581761	0	0
2024-07-29 18:30:47			0	36838	0	0	0	30846	29460	163882	26620	1069633	45683	111491	0	0	8027	581601	0	0
2024-07-29 18:31:47			0	36846	0	0	0	30825	29450	163718	26663	1069606	45648	111483	0	0	8028	581315	0	0
2024-07-29 18:32:47			0	36859	0	0	0	30810	29440	163846	26741	1069588	45658	111477	0	0	8029	580828	0	0
2024-07-29 18:33:47			0	36854	0	0	0	30828	29440	163826	27022	1069543	45659	111484	0	0	8028	581028	0	0
2024-07-29 18:34:47			0	36851	0	0	0	30828	29440	163838	26760	1069534	45658	111484	0	0	8028	581148	0	0
2024-07-29 18:35:47			0	36849	0	0	0	30807	29430	163742	26689	1069498	45668	111476	0	0	8028	581262	0	0
2024-07-29 18:36:47			0	36850	0	0	0	30820	29430	163838	26852	1069525	45646	111481	0	0	8028	581222	0	0
2024-07-29 18:37:47			0	36847	0	0	0	30820	29430	163866	26911	1069525	45658	111481	0	0	8028	581342	0	0
2024-07-29 18:38:47			0	36851	0	0	0	30818	29430	163806	26828	1069489	45658	111480	0	0	8028	581182	0	0
2024-07-29 18:39:47			0	36843	0	0	0	30820	29430	163974	26823	1069516	45646	111481	0	0	8028	581502	0	0
2024-07-29 18:40:47			0	36851	0	0	0	30815	29430	163958	27000	1069525	45668	111479	0	0	8028	581182	0	0
2024-07-29 18:41:47			0	36832	0	0	0	30805	29420	164026	27121	1069453	45668	111475	0	0	8027	581977	0	0
2024-07-29 18:42:47			0	36811	0	0	0	30807	29430	163978	26727	1069471	45646	111476	0	0	8026	582785	0	0
2024-07-29 18:43:47			0	36788	0	0	0	30815	29420	164090	26890	1069480	45658	111479	0	0	8024	583742	0	0
2024-07-29 18:44:47			0	36772	0	0	0	30815	29420	164158	26752	1069444	45657	111479	0	0	8023	584384	0	0
2024-07-29 18:45:47			0	36768	0	0	0	30812	29420	164162	27034	1069480	45658	111478	0	0	8023	584545	0	0
2024-07-29 18:46:47			0	36770	0	0	0	30807	29420	164230	26484	1069426	45658	111476	0	0	8023	584465	0	0
2024-07-29 18:47:47			0	36779	0	0	0	30810	29420	164230	26745	1069390	45645	111477	0	0	8024	584103	0	0
2024-07-29 18:48:47			0	36763	0	0	0	30799	29420	164342	26778	1069453	45668	111473	0	0	8023	584746	0	0
2024-07-29 18:49:47			0	36750	0	0	0	30802	29410	164366	26783	1069408	45656	111474	0	0	8022	585303	0	0
2024-07-29 18:50:47			0	36765	0	0	0	30807	29420	164362	26649	1069399	45668	111476	0	0	8023	584666	0	0
2024-07-29 18:51:47			0	36733	0	0	0	30812	29410	164466	26876	1069426	45656	111478	0	0	8021	585987	0	0
2024-07-29 18:52:47			0	36737	0	0	0	30794	29410	164438	26632	1069453	45656	111471	0	0	8022	585826	0	0
2024-07-29 18:53:47			0	36746	0	0	0	30786	29420	164342	26653	1069417	45667	111468	0	0	8022	585430	0	0
2024-07-29 18:54:47			0	36750	0	0	0	30797	29410	164398	26479	1069372	45656	111472	0	0	8022	585303	0	0
2024-07-29 18:55:47			0	36750	0	0	0	30807	29410	164406	26644	1069426	45656	111476	0	0	8022	585303	0	0
2024-07-29 18:56:47			0	36766	0	0	0	30807	29410	164414	26811	1069408	45656	111476	0	0	8023	584659	0	0
2024-07-29 18:57:47			0	36744	0	0	0	30802	29410	164378	26682	1069426	45656	111474	0	0	8022	585544	0	0
2024-07-29 18:58:47			0	36755	0	0	0	30802	29410	164354	26875	1069426	45644	111474	0	0	8023	585101	0	0
2024-07-29 18:59:47			0	36772	0	0	0	30794	29410	164366	26816	1069435	45656	111471	0	0	8024	584418	0	0
2024-07-29 19:00:47			0	36778	0	0	0	30799	29410	164390	26923	1069435	45677	111473	0	0	8024	584177	0	0
2024-07-29 19:01:47			0	36793	0	0	0	30799	29410	164254	26804	1069453	45656	111473	0	0	8025	583575	0	0
2024-07-29 19:02:47			0	36789	0	0	0	30797	29410	164166	26791	1069381	45656	111472	0	0	8025	583735	0	0
2024-07-29 19:03:47			0	36800	0	0	0	30781	29400	164306	26868	1069363	45644	111466	0	0	8026	583328	0	0
2024-07-29 19:04:47			0	36790	0	0	0	30784	29400	164106	26786	1069327	45666	111467	0	0	8025	583729	0	0
2024-07-29 19:05:47			0	36794	0	0	0	30779	29400	164086	26726	1069354	45643	111465	0	0	8025	583569	0	0
2024-07-29 19:06:47			0	36786	0	0	0	30773	29400	164290	26868	1069354	45666	111463	0	0	8025	583890	0	0
2024-07-29 19:07:47			0	36799	0	0	0	30779	29400	164242	26684	1069336	45677	111465	0	0	8026	583368	0	0
2024-07-29 19:08:47			0	36795	0	0	0	30768	29390	164074	26746	1069309	45665	111461	0	0	8025	583562	0	0
2024-07-29 19:09:47			0	36828	0	0	0	30773	29400	164034	26850	1069327	45666	111463	0	0	8027	582205	0	0
2024-07-29 19:10:47			0	36813	0	0	0	30784	29390	164002	26812	1069291	45665	111467	0	0	8026	582840	0	0
2024-07-29 19:11:47			0	36808	0	0	0	30781	29390	164058	27107	1069291	45654	111466	0	0	8026	583041	0	0
2024-07-29 19:12:47			0	36825	0	0	0	30776	29390	163962	26922	1069291	45654	111464	0	0	8027	582359	0	0
2024-07-29 19:13:47			0	36821	0	0	0	30771	29390	164114	27022	1069282	45654	111462	0	0	8027	582519	0	0
2024-07-29 19:14:47			0	36825	0	0	0	30763	29390	164094	26722	1069228	45654	111459	0	0	8027	582359	0	0
2024-07-29 19:15:47			0	36815	0	0	0	30761	29380	164006	26925	1069219	45641	111458	0	0	8027	582794	0	0
2024-07-29 19:16:47			0	36799	0	0	0	30763	29380	164082	26472	1069192	45664	111459	0	0	8026	583436	0	0
2024-07-29 19:17:47			0	36799	0	0	0	30761	29380	164202	26856	1069183	45653	111458	0	0	8026	583436	0	0
2024-07-29 19:18:47			0	36767	0	0	0	30758	29380	164282	26856	1069156	45664	111457	0	0	8024	584721	0	0
2024-07-29 19:19:47			0	36775	0	0	0	30758	29370	164222	27152	1069147	45652	111457	0	0	8024	584433	0	0
2024-07-29 19:20:47			0	36764	0	0	0	30761	29370	164354	27046	1069165	45652	111458	0	0	8024	584876	0	0
2024-07-29 19:21:47			0	36743	0	0	0	30742	29370	164438	26989	1069138	45663	111451	0	0	8023	585720	0	0
2024-07-29 19:22:47			0	36725	0	0	0	30737	29360	164490	26726	1069183	45651	111449	0	0	8022	586479	0	0
2024-07-29 19:23:47			0	36715	0	0	0	30740	29360	164594	26833	1069147	45673	111450	0	0	8021	586882	0	0
2024-07-29 19:24:47			0	36683	0	0	0	30742	29360	164686	26838	1069102	45662	111451	0	0	8019	588173	0	0
2024-07-29 19:25:47			0	36655	0	0	0	30735	29350	164734	26710	1069138	45650	111448	0	0	8018	589338	0	0
2024-07-29 19:26:47			0	36662	0	0	0	30740	29360	164762	26817	1069093	45651	111450	0	0	8018	589021	0	0
2024-07-29 19:27:47			0	36661	0	0	0	30729	29350	164706	26977	1069138	45650	111446	0	0	8018	589096	0	0
2024-07-29 19:28:47			0	36681	0	0	0	30735	29360	164726	26946	1069066	45651	111448	0	0	8019	588254	0	0
2024-07-29 19:29:47			0	36680	0	0	0	30724	29350	164650	26746	1069021	45660	111444	0	0	8019	588328	0	0
2024-07-29 19:30:47			0	36678	0	0	0	30722	29350	164802	26920	1069048	45660	111443	0	0	8019	588409	0	0
2024-07-29 19:31:47			0	36649	0	0	0	30714	29340	164770	27045	1069003	45649	111440	0	0	8018	589615	0	0
2024-07-29 19:32:47			0	36623	0	0	0	30711	29340	164914	26569	1069066	45660	111439	0	0	8016	590666	0	0
2024-07-29 19:33:47			0	36597	0	0	0	30727	29330	165138	26741	1068967	45670	111445	0	0	8014	591754	0	0
2024-07-29 19:34:47			0	36583	0	0	0	30714	29330	165173	26660	1068994	45648	111440	0	0	8014	592322	0	0
2024-07-29 19:35:47			0	36575	0	0	0	30714	29320	165185	26837	1068949	45658	111440	0	0	8013	592681	0	0
2024-07-29 19:36:47			0	36593	0	0	0	30711	29330	165229	26701	1069021	45670	111439	0	0	8014	591916	0	0
2024-07-29 19:37:47			0	36568	0	0	0	30709	29340	165257	27043	1069003	45671	111438	0	0	8013	592896	0	0
2024-07-29 19:38:47			0	36557	0	0	0	30724	29330	165265	26788	1068985	45658	111444	0	0	8012	593377	0	0
2024-07-29 19:39:47			0	36545	0	0	0	30719	29310	165321	26585	1068958	45634	111442	0	0	8011	593933	0	0
2024-07-29 19:40:47			0	36573	0	0	0	30719	29320	165257	26644	1069003	45635	111442	0	0	8013	592762	0	0
2024-07-29 19:41:47			0	36587	0	0	0	30711	29320	165181	26668	1068994	45668	111439	0	0	8014	592194	0	0
2024-07-29 19:42:47			0	36582	0	0	0	30716	29330	165129	26875	1068985	45658	111441	0	0	8013	592362	0	0
2024-07-29 19:43:47			0	36612	0	0	0	30719	29320	165198	26575	1069003	45658	111442	0	0	8015	591181	0	0
2024-07-29 19:44:47			0	36590	0	0	0	30711	29330	165265	26764	1068985	45658	111439	0	0	8014	592038	0	0
2024-07-29 19:45:47			0	36568	0	0	0	30706	29320	165293	26831	1068994	45646	111437	0	0	8013	592965	0	0
2024-07-29 19:46:47			0	36555	0	0	0	30706	29320	165281	26977	1068967	45657	111437	0	0	8012	593492	0	0
2024-07-29 19:47:47			0	36540	0	0	0	30698	29310	165445	26791	1068905	45668	111434	0	0	8011	594137	0	0
2024-07-29 19:48:47			0	36508	0	0	0	30690	29320	165569	26849	1068941	45646	111431	0	0	8010	595404	0	0
2024-07-29 19:49:47			0	36487	0	0	0	30677	29310	165545	26764	1068905	45646	111426	0	0	8008	596293	0	0
2024-07-29 19:50:47			0	36494	0	0	0	30672	29300	165633	27029	1068887	45633	111424	0	0	8009	596043	0	0
2024-07-29 19:51:47			0	36465	0	0	0	30680	29300	165813	27071	1068860	45667	111427	0	0	8007	597225	0	0
2024-07-29 19:52:47			0	36440	0	0	0	30667	29300	165905	27001	1068797	45655	111422	0	0	8006	598245	0	0
2024-07-29 19:53:47			0	36423	0	0	0	30680	29290	165881	26609	1068779	45654	111427	0	0	8004	598975	0	0
2024-07-29 19:54:47			0	36410	0	0	0	30680	29290	166049	26991	1068779	45666	111427	0	0	8004	599506	0	0
2024-07-29 19:55:47			0	36416	0	0	0	30683	29290	166037	26578	1068752	45666	111428	0	0	8004	599261	0	0
2024-07-29 19:56:47			0	36394	0	0	0	30672	29290	165965	26667	1068815	45666	111424	0	0	8003	600161	0	0
2024-07-29 19:57:47			0	36399	0	0	0	30675	29290	166077	26708	1068833	45654	111425	0	0	8003	599956	0	0
2024-07-29 19:58:47			0	36411	0	0	0	30675	29290	165929	26845	1068806	45666	111425	0	0	8004	599465	0	0
2024-07-29 19:59:47			0	36421	0	0	0	30662	29290	165969	26717	1068833	45676	111420	0	0	8005	599056	0	0
2024-07-29 20:00:47			0	36429	0	0	0	30664	29270	165977	26868	1068725	45642	111421	0	0	8005	598799	0	0
2024-07-29 20:01:47			0	36423	0	0	0	30657	29290	165977	26524	1068806	45631	111418	0	0	8005	598975	0	0
2024-07-29 20:02:47			0	36421	0	0	0	30667	29280	165985	26835	1068716	45654	111422	0	0	8005	599091	0	0
2024-07-29 20:03:47			0	36407	0	0	0	30657	29280	165965	26568	1068734	45642	111418	0	0	8004	599664	0	0
2024-07-29 20:04:47			0	36422	0	0	0	30657	29270	166105	26575	1068661	45641	111418	0	0	8005	599085	0	0
2024-07-29 20:05:47			0	36408	0	0	0	30654	29270	166133	26698	1068661	45664	111417	0	0	8004	599658	0	0
2024-07-29 20:06:47			0	36407	0	0	0	30651	29260	166217	26798	1068599	45651	111416	0	0	8004	599734	0	0
2024-07-29 20:07:47			0	36404	0	0	0	30644	29270	166077	27081	1068581	45629	111413	0	0	8004	599821	0	0
2024-07-29 20:08:47			0	36413	0	0	0	30651	29250	166041	26724	1068662	45662	111416	0	0	8004	599523	0	0
2024-07-29 20:09:47			0	36416	0	0	0	30651	29260	165997	26908	1068653	45651	111416	0	0	8004	599365	0	0
2024-07-29 20:10:47			0	36402	0	0	0	30649	29260	166057	27013	1068680	45640	111415	0	0	8004	599938	0	0
2024-07-29 20:11:47			0	36430	0	0	0	30651	29260	165961	26880	1068572	45663	111416	0	0	8005	598793	0	0
2024-07-29 20:12:47			0	36453	0	0	0	30654	29260	165885	26828	1068680	45651	111417	0	0	8007	597854	0	0
2024-07-29 20:13:47			0	36463	0	0	0	30657	29250	165757	26682	1068689	45672	111418	0	0	8007	597480	0	0
2024-07-29 20:14:47			0	36485	0	0	0	30649	29250	165617	26682	1068617	45663	111415	0	0	8008	596583	0	0
2024-07-29 20:15:47			0	36498	0	0	0	30659	29250	165617	26814	1068671	45663	111419	0	0	8009	596053	0	0
2024-07-29 20:16:47			0	36525	0	0	0	30659	29250	165565	26819	1068608	45662	111419	0	0	8011	594954	0	0
2024-07-29 20:17:47			0	36527	0	0	0	30654	29250	165469	26726	1068662	45639	111417	0	0	8011	594872	0	0
2024-07-29 20:18:47			0	36527	0	0	0	30657	29250	165541	26628	1068689	45650	111418	0	0	8011	594872	0	0
2024-07-29 20:19:47			0	36495	0	0	0	30651	29250	165657	26795	1068689	45650	111416	0	0	8009	596175	0	0
2024-07-29 20:20:47			0	36470	0	0	0	30659	29250	165681	26935	1068698	45651	111419	0	0	8007	597195	0	0
2024-07-29 20:21:47			0	36471	0	0	0	30651	29250	165781	26852	1068671	45651	111416	0	0	8008	597154	0	0
2024-07-29 20:22:47			0	36461	0	0	0	30651	29250	165825	26628	1068662	45672	111416	0	0	8007	597562	0	0
2024-07-29 20:23:47			0	36433	0	0	0	30654	29240	165901	26654	1068599	45662	111417	0	0	8005	598740	0	0
2024-07-29 20:24:47			0	36470	0	0	0	30657	29250	165941	27208	1068644	45663	111418	0	0	8007	597195	0	0
2024-07-29 20:25:47			0	36449	0	0	0	30654	29250	165881	26942	1068662	45672	111417	0	0	8006	598052	0	0
2024-07-29 20:26:47			0	36423	0	0	0	30651	29240	165873	26821	1068653	45662	111416	0	0	8005	599149	0	0
2024-07-29 20:27:47			0	36338	0	0	0	30657	29240	166205	26472	1068707	45650	111418	0	0	8000	602631	0	0
2024-07-29 20:28:47			0	36318	0	0	0	30659	29260	166289	26909	1068599	45651	111419	0	0	7998	603382	0	0
2024-07-29 20:29:47			0	36292	0	0	0	30664	29250	166533	26816	1068635	45662	111421	0	0	7997	604486	0	0
2024-07-29 20:30:47			0	36273	0	0	0	30667	29240	166597	26667	1068680	45672	111422	0	0	7996	605304	0	0
2024-07-29 20:31:47			0	36255	0	0	0	30649	29240	166597	26913	1068680	45672	111415	0	0	7995	606045	0	0
2024-07-29 20:32:47			0	36251	0	0	0	30654	29240	166761	26845	1068653	45672	111417	0	0	7994	606210	0	0
2024-07-29 20:33:47			0	36227	0	0	0	30659	29250	166709	26802	1068662	45662	111419	0	0	7993	607165	0	0
2024-07-29 20:34:47			0	36219	0	0	0	30657	29240	166849	26767	1068644	45649	111418	0	0	7992	607530	0	0
2024-07-29 20:35:47			0	36216	0	0	0	30662	29240	166833	26769	1068653	45672	111420	0	0	7992	607654	0	0
2024-07-29 20:36:47			0	36198	0	0	0	30662	29240	166833	26894	1068644	45649	111420	0	0	7991	608397	0	0
2024-07-29 20:37:47			0	36198	0	0	0	30654	29240	166881	26708	1068653	45662	111417	0	0	7991	608397	0	0
2024-07-29 20:38:47			0	36191	0	0	0	30664	29250	166985	26890	1068662	45662	111421	0	0	7991	608651	0	0
2024-07-29 20:39:47			0	36186	0	0	0	30662	29240	166965	26896	1068653	45662	111420	0	0	7990	608894	0	0
2024-07-29 20:40:47			0	36172	0	0	0	30654	29250	166909	26604	1068590	45663	111417	0	0	7990	609437	0	0
2024-07-29 20:41:47			0	36166	0	0	0	30646	29240	167197	26755	1068617	45649	111414	0	0	7990	609721	0	0
2024-07-29 20:42:47			0	36166	0	0	0	30649	29250	167045	26726	1068662	45672	111415	0	0	7990	609686	0	0
2024-07-29 20:43:47			0	36205	0	0	0	30636	29240	166865	26734	1068644	45649	111410	0	0	7992	608108	0	0
2024-07-29 20:44:47			0	36222	0	0	0	30641	29240	166877	26620	1068599	45639	111412	0	0	7993	607406	0	0
2024-07-29 20:45:47			0	36232	0	0	0	30644	29250	166801	26873	1068608	45662	111413	0	0	7994	606958	0	0
2024-07-29 20:46:47			0	36215	0	0	0	30651	29240	166857	26701	1068599	45662	111416	0	0	7992	607695	0	0
2024-07-29 20:47:47			0	36221	0	0	0	30651	29240	166969	26613	1068644	45661	111416	0	0	7993	607448	0	0
2024-07-29 20:48:47			0	36231	0	0	0	30654	29240	166777	26710	1068617	45661	111417	0	0	7993	607035	0	0
2024-07-29 20:49:47			0	36223	0	0	0	30649	29230	166813	26504	1068635	45661	111415	0	0	7993	607400	0	0
2024-07-29 20:50:47			0	36231	0	0	0	30651	29240	166849	26615	1068644	45661	111416	0	0	7993	607035	0	0
2024-07-29 20:51:47			0	36211	0	0	0	30659	29240	166805	26653	1068626	45672	111419	0	0	7992	607861	0	0
2024-07-29 20:52:47			0	36215	0	0	0	30654	29230	166873	26635	1068608	45671	111417	0	0	7992	607731	0	0
2024-07-29 20:53:47			0	36218	0	0	0	30646	29230	166897	26649	1068653	45660	111414	0	0	7993	607607	0	0
2024-07-29 20:54:47			0	36205	0	0	0	30641	29240	166897	26977	1068671	45661	111412	0	0	7992	608108	0	0
2024-07-29 20:55:47			0	36214	0	0	0	30649	29240	166933	26939	1068680	45662	111415	0	0	7992	607737	0	0
2024-07-29 20:56:47			0	36200	0	0	0	30654	29240	166897	26708	1068563	45671	111417	0	0	7991	608315	0	0
2024-07-29 20:57:47			0	36187	0	0	0	30649	29240	166973	26557	1068644	45661	111415	0	0	7991	608852	0	0
2024-07-29 20:58:47			0	36181	0	0	0	30649	29250	166937	26894	1068689	45662	111415	0	0	7990	609065	0	0
2024-07-29 20:59:47			0	36202	0	0	0	30644	29240	167021	26648	1068626	45650	111413	0	0	7992	608232	0	0
2024-07-29 21:00:47			0	36178	0	0	0	30649	29230	166961	26694	1068635	45661	111415	0	0	7990	609260	0	0
2024-07-29 21:01:47			0	36212	0	0	0	30654	29240	166841	26868	1068626	45672	111417	0	0	7992	607819	0	0
2024-07-29 21:02:47			0	36197	0	0	0	30654	29250	166901	26719	1068716	45662	111417	0	0	7991	608404	0	0
2024-07-29 21:03:47			0	36211	0	0	0	30646	29230	166973	26741	1068662	45671	111414	0	0	7992	607896	0	0
2024-07-29 21:04:47			0	36170	0	0	0	30644	29240	167033	26741	1068617	45683	111413	0	0	7990	609556	0	0
2024-07-29 21:05:47			0	36142	0	0	0	30644	29240	167205	26852	1068644	45649	111413	0	0	7988	610715	0	0
2024-07-29 21:06:47			0	36128	0	0	0	30638	29230	167285	26778	1068599	45670	111411	0	0	7987	611331	0	0
2024-07-29 21:07:47			0	36111	0	0	0	30644	29230	167205	26623	1068608	45661	111413	0	0	7986	612036	0	0
2024-07-29 21:08:47			0	36145	0	0	0	30641	29230	167165	26733	1068608	45661	111412	0	0	7988	610626	0	0
2024-07-29 21:09:47			0	36162	0	0	0	30649	29240	167157	26788	1068653	45672	111415	0	0	7989	609887	0	0
2024-07-29 21:10:47			0	36158	0	0	0	30651	29230	166997	26804	1068635	45661	111416	0	0	7989	610088	0	0
2024-07-29 21:11:47			0	36180	0	0	0	30641	29230	167045	26615	1068518	45648	111412	0	0	7990	609177	0	0
2024-07-29 21:12:47			0	36194	0	0	0	30649	29240	166913	26668	1068617	45661	111415	0	0	7991	608563	0	0
2024-07-29 21:13:47			0	36198	0	0	0	30638	29230	166941	26942	1068635	45671	111411	0	0	7992	608433	0	0
2024-07-29 21:14:47			0	36188	0	0	0	30646	29230	166929	26975	1068581	45661	111414	0	0	7991	608846	0	0
2024-07-29 21:15:47			0	36195	0	0	0	30641	29230	166949	26835	1068527	45661	111412	0	0	7991	608557	0	0
2024-07-29 21:16:47			0	36188	0	0	0	30649	29240	167093	27048	1068644	45671	111415	0	0	7991	608811	0	0
2024-07-29 21:17:47			0	36200	0	0	0	30633	29230	167117	26967	1068581	45671	111409	0	0	7992	608350	0	0
2024-07-29 21:18:47			0	36191	0	0	0	30623	29240	166957	26902	1068509	45671	111405	0	0	7991	608687	0	0
2024-07-29 21:19:47			0	36191	0	0	0	30615	29230	167025	26889	1068527	45649	111402	0	0	7991	608722	0	0
2024-07-29 21:20:47			0	36189	0	0	0	30618	29220	167053	27213	1068590	45660	111403	0	0	7991	608840	0	0
2024-07-29 21:21:47			0	36190	0	0	0	30623	29230	167025	27012	1068545	45660	111405	0	0	7991	608764	0	0
2024-07-29 21:22:47			0	36188	0	0	0	30625	29220	167077	26693	1068455	45660	111406	0	0	7991	608882	0	0
2024-07-29 21:23:47			0	36176	0	0	0	30628	29230	167173	26915	1068518	45670	111407	0	0	7990	609343	0	0
2024-07-29 21:24:47			0	36173	0	0	0	30625	29210	167021	26824	1068491	45647	111406	0	0	7990	609538	0	0
2024-07-29 21:25:47			0	36173	0	0	0	30623	29220	167069	26845	1068527	45636	111405	0	0	7990	609502	0	0
2024-07-29 21:26:47			0	36176	0	0	0	30628	29220	167065	26870	1068509	45670	111407	0	0	7990	609378	0	0
2024-07-29 21:27:47			0	36156	0	0	0	30615	29220	167193	26876	1068500	45659	111402	0	0	7989	610206	0	0
2024-07-29 21:28:47			0	36159	0	0	0	30610	29210	167201	26993	1068464	45669	111400	0	0	7990	610117	0	0
2024-07-29 21:29:47			0	36174	0	0	0	30602	29220	167149	26977	1068509	45660	111397	0	0	7991	609461	0	0
2024-07-29 21:30:47			0	36173	0	0	0	30612	29220	167185	26916	1068446	45669	111401	0	0	7990	609502	0	0
2024-07-29 21:31:47			0	36172	0	0	0	30615	29210	167049	27001	1068428	45658	111402	0	0	7990	609579	0	0
2024-07-29 21:32:47			0	36182	0	0	0	30612	29210	167125	26736	1068437	45669	111401	0	0	7991	609165	0	0
2024-07-29 21:33:47			0	36208	0	0	0	30599	29220	167133	26564	1068446	45669	111396	0	0	7993	608055	0	0
2024-07-29 21:34:47			0	36154	0	0	0	30602	29200	167153	26708	1068446	45667	111397	0	0	7989	610360	0	0
2024-07-29 21:35:47			0	36158	0	0	0	30605	29210	167241	27027	1068437	45659	111398	0	0	7990	610159	0	0
2024-07-29 21:36:47			0	36144	0	0	0	30602	29210	167205	26781	1068410	45669	111397	0	0	7989	610738	0	0
2024-07-29 21:37:47			0	36153	0	0	0	30592	29200	167229	26920	1068419	45657	111393	0	0	7989	610401	0	0
2024-07-29 21:38:47			0	36123	0	0	0	30597	29200	167453	27010	1068383	45667	111395	0	0	7988	611645	0	0
2024-07-29 21:39:47			0	36109	0	0	0	30594	29210	167641	26932	1068428	45646	111394	0	0	7987	612190	0	0
2024-07-29 21:40:47			0	36094	0	0	0	30602	29200	167529	26755	1068446	45657	111397	0	0	7986	612848	0	0
2024-07-29 21:41:47			0	36106	0	0	0	30607	29200	167497	26942	1068437	45657	111399	0	0	7986	612350	0	0
2024-07-29 21:42:47			0	36098	0	0	0	30597	29200	167585	26897	1068365	45645	111395	0	0	7986	612682	0	0
2024-07-29 21:43:47			0	36092	0	0	0	30602	29200	167621	26811	1068446	45657	111397	0	0	7986	612932	0	0
2024-07-29 21:44:47			0	36087	0	0	0	30597	29200	167569	27085	1068383	45657	111395	0	0	7985	613139	0	0
2024-07-29 21:45:47			0	36076	0	0	0	30605	29200	167725	26949	1068383	45657	111398	0	0	7985	613597	0	0
2024-07-29 21:46:47			0	36059	0	0	0	30597	29200	167621	26984	1068365	45657	111395	0	0	7984	614304	0	0
2024-07-29 21:47:47			0	36042	0	0	0	30594	29200	167709	26516	1068356	45667	111394	0	0	7983	615011	0	0
2024-07-29 21:48:47			0	36057	0	0	0	30586	29200	167797	26972	1068410	45667	111391	0	0	7984	614387	0	0
2024-07-29 21:49:47			0	36049	0	0	0	30597	29200	167813	26925	1068356	45657	111395	0	0	7983	614720	0	0
2024-07-29 21:50:47			0	36033	0	0	0	30597	29200	167785	27163	1068329	45667	111395	0	0	7982	615386	0	0
2024-07-29 21:51:47			0	36020	0	0	0	30589	29200	167821	26745	1068356	45667	111392	0	0	7982	615928	0	0
2024-07-29 21:52:47			0	36019	0	0	0	30584	29190	167789	26736	1068374	45645	111390	0	0	7982	616006	0	0
2024-07-29 21:53:47			0	36027	0	0	0	30589	29190	167893	27086	1068347	45667	111392	0	0	7982	615672	0	0
2024-07-29 21:54:47			0	36028	0	0	0	30581	29190	167913	26946	1068320	45667	111389	0	0	7982	615630	0	0
2024-07-29 21:55:47			0	36024	0	0	0	30586	29180	167969	27177	1068356	45666	111391	0	0	7982	615833	0	0
2024-07-29 21:56:47			0	36015	0	0	0	30576	29180	167945	26743	1068383	45643	111387	0	0	7981	616208	0	0
2024-07-29 21:57:47			0	36023	0	0	0	30579	29190	167973	27013	1068338	45656	111388	0	0	7982	615839	0	0
2024-07-29 21:58:47			0	36021	0	0	0	30581	29180	167933	26755	1068329	45666	111389	0	0	7982	615958	0	0
2024-07-29 21:59:47			0	36011	0	0	0	30574	29190	167993	26698	1068293	45667	111386	0	0	7981	616339	0	0
2024-07-29 22:00:47			0	36031	0	0	0	30592	29180	168005	26934	1068347	45677	111393	0	0	7982	615541	0	0
2024-07-29 22:01:47			0	36048	0	0	0	30576	29180	168005	26635	1068329	45655	111387	0	0	7983	614833	0	0
2024-07-29 22:02:47			0	36041	0	0	0	30574	29180	167901	26847	1068320	45677	111386	0	0	7983	615125	0	0
2024-07-29 22:03:47			0	36038	0	0	0	30581	29180	167989	27081	1068320	45666	111389	0	0	7983	615250	0	0
2024-07-29 22:04:47			0	36028	0	0	0	30584	29170	167913	26859	1068284	45666	111390	0	0	7982	615702	0	0
2024-07-29 22:05:47			0	36038	0	0	0	30584	29180	167917	26713	1068266	45677	111390	0	0	7983	615250	0	0
2024-07-29 22:06:47			0	36020	0	0	0	30579	29180	167941	26814	1068329	45677	111388	0	0	7982	616000	0	0
2024-07-29 22:07:47			0	36017	0	0	0	30571	29190	167921	26682	1068284	45656	111385	0	0	7982	616089	0	0
2024-07-29 22:08:47			0	36027	0	0	0	30571	29170	168021	26908	1068248	45676	111385	0	0	7982	615744	0	0
2024-07-29 22:09:47			0	36026	0	0	0	30571	29180	167913	26660	1068266	45655	111385	0	0	7982	615750	0	0
2024-07-29 22:10:47			0	36018	0	0	0	30576	29170	167925	26998	1068257	45655	111387	0	0	7981	616119	0	0
2024-07-29 22:11:47			0	36046	0	0	0	30581	29170	167945	26649	1068338	45666	111389	0	0	7983	614952	0	0
2024-07-29 22:12:47			0	36049	0	0	0	30576	29170	167853	26703	1068248	45654	111387	0	0	7983	614827	0	0
2024-07-29 22:13:47			0	36053	0	0	0	30579	29170	167921	26719	1068275	45665	111388	0	0	7984	614660	0	0
2024-07-29 22:14:47			0	36046	0	0	0	30566	29170	167897	26762	1068284	45677	111383	0	0	7983	614952	0	0
2024-07-29 22:15:47			0	36039	0	0	0	30571	29180	167885	26708	1068266	45666	111385	0	0	7983	615208	0	0
2024-07-29 22:16:47			0	36015	0	0	0	30571	29180	167881	26569	1068266	45666	111385	0	0	7981	616208	0	0
2024-07-29 22:17:47			0	36026	0	0	0	30555	29170	167885	26613	1068194	45665	111379	0	0	7982	615785	0	0
2024-07-29 22:18:47			0	36024	0	0	0	30561	29170	167897	26833	1068275	45665	111381	0	0	7982	615869	0	0
2024-07-29 22:19:47			0	36030	0	0	0	30581	29160	168117	26715	1068203	45664	111389	0	0	7982	615654	0	0
2024-07-29 22:20:47			0	36007	0	0	0	30574	29160	167973	26882	1068239	45653	111386	0	0	7981	616613	0	0
2024-07-29 22:21:47			0	35999	0	0	0	30563	29170	167929	26571	1068248	45665	111382	0	0	7981	616912	0	0
2024-07-29 22:22:47			0	36011	0	0	0	30561	29170	168037	27095	1068221	45665	111381	0	0	7981	616411	0	0
2024-07-29 22:23:47			0	36005	0	0	0	30568	29160	168037	26793	1068176	45653	111384	0	0	7981	616697	0	0
2024-07-29 22:24:47			0	35982	0	0	0	30568	29160	168057	26838	1068239	45653	111384	0	0	7979	617657	0	0
2024-07-29 22:25:47			0	35994	0	0	0	30558	29160	168093	26693	1068212	45664	111380	0	0	7980	617156	0	0
2024-07-29 22:26:47			0	36001	0	0	0	30561	29170	168117	26880	1068221	45654	111381	0	0	7981	616828	0	0
2024-07-29 22:27:47			0	35988	0	0	0	30561	29170	168113	26604	1068275	45665	111381	0	0	7980	617371	0	0
2024-07-29 22:28:47			0	36001	0	0	0	30563	29160	168053	26811	1068212	45664	111382	0	0	7981	616864	0	0
2024-07-29 22:29:47			0	35997	0	0	0	30561	29160	168021	26668	1068230	45664	111381	0	0	7980	617031	0	0
2024-07-29 22:30:47			0	36001	0	0	0	30563	29170	168129	26615	1068167	45654	111382	0	0	7981	616828	0	0
2024-07-29 22:31:47			0	35990	0	0	0	30558	29160	168041	26736	1068212	45664	111380	0	0	7980	617323	0	0
2024-07-29 22:32:47			0	35999	0	0	0	30555	29160	168173	26694	1068212	45653	111379	0	0	7981	616947	0	0
2024-07-29 22:33:47			0	35977	0	0	0	30553	29150	168073	26705	1068221	45663	111378	0	0	7979	617902	0	0
2024-07-29 22:34:47			0	35964	0	0	0	30553	29150	168137	26854	1068221	45652	111378	0	0	7979	618445	0	0
2024-07-29 22:35:47			0	35998	0	0	0	30550	29150	168033	26911	1068140	45674	111377	0	0	7981	617025	0	0
2024-07-29 22:36:47			0	36006	0	0	0	30553	29150	168013	26604	1068167	45663	111378	0	0	7981	616691	0	0
2024-07-29 22:37:47			0	36005	0	0	0	30545	29160	168053	26592	1068176	45664	111375	0	0	7981	616697	0	0
2024-07-29 22:38:47			0	36020	0	0	0	30553	29150	168001	26750	1068113	45674	111378	0	0	7982	616107	0	0
2024-07-29 22:39:47			0	36032	0	0	0	30555	29150	167913	26715	1068104	45652	111379	0	0	7983	615607	0	0
2024-07-29 22:40:47			0	36026	0	0	0	30563	29150	167937	26458	1068167	45663	111382	0	0	7982	615857	0	0
2024-07-29 22:41:47			0	36043	0	0	0	30558	29150	168017	26687	1068185	45674	111380	0	0	7983	615148	0	0
2024-07-29 22:42:47			0	36029	0	0	0	30553	29150	167985	26426	1068113	45652	111378	0	0	7982	615732	0	0
2024-07-29 22:43:47			0	36028	0	0	0	30555	29150	167957	26727	1068167	45663	111379	0	0	7982	615773	0	0
2024-07-29 22:44:47			0	36015	0	0	0	30550	29140	168017	26894	1068149	45673	111377	0	0	7982	616351	0	0
2024-07-29 22:45:47			0	36015	0	0	0	30558	29160	168021	26901	1068122	45653	111380	0	0	7982	616280	0	0
2024-07-29 22:46:47			0	36023	0	0	0	30545	29150	168017	26802	1068113	45674	111375	0	0	7982	615982	0	0
2024-07-29 22:47:47			0	36010	0	0	0	30537	29150	168129	26594	1068158	45652	111372	0	0	7982	616524	0	0
2024-07-29 22:48:47			0	35984	0	0	0	30545	29150	168145	26828	1068140	45663	111375	0	0	7980	617610	0	0
2024-07-29 22:49:47			0	35984	0	0	0	30542	29140	168213	26679	1068122	45662	111374	0	0	7980	617645	0	0
2024-07-29 22:50:47			0	35977	0	0	0	30535	29150	168261	26512	1068131	45652	111371	0	0	7980	617902	0	0
2024-07-29 22:51:47			0	35966	0	0	0	30542	29130	168305	26705	1068158	45672	111374	0	0	7979	618434	0	0
2024-07-29 22:52:47			0	35950	0	0	0	30532	29130	168437	26776	1068077	45672	111370	0	0	7978	619103	0	0
2024-07-29 22:53:47			0	35947	0	0	0	30537	29140	168445	26791	1068068	45662	111372	0	0	7978	619193	0	0
2024-07-29 22:54:47			0	35928	0	0	0	30535	29140	168489	26896	1068149	45662	111371	0	0	7977	619988	0	0
2024-07-29 22:55:47			0	35921	0	0	0	30527	29140	168393	26752	1068122	45651	111368	0	0	7976	620281	0	0
2024-07-29 22:56:47			0	35917	0	0	0	30527	29140	168481	26972	1068149	45662	111368	0	0	7976	620449	0	0
2024-07-29 22:57:47			0	35923	0	0	0	30524	29140	168549	26715	1068068	45651	111367	0	0	7976	620197	0	0
2024-07-29 22:58:47			0	35906	0	0	0	30524	29130	168705	26994	1067996	45650	111367	0	0	7975	620946	0	0
2024-07-29 22:59:47			0	35895	0	0	0	30524	29130	168593	26847	1068050	45661	111367	0	0	7975	621408	0	0
2024-07-29 23:00:47			0	35856	0	0	0	30535	29120	168804	26809	1068032	45649	111371	0	0	7972	623082	0	0
2024-07-29 23:01:47			0	35849	0	0	0	30529	29140	169004	26641	1068032	45661	111369	0	0	7972	623304	0	0
2024-07-29 23:02:47			0	35836	0	0	0	30516	29130	169032	26660	1067969	45639	111364	0	0	7971	623887	0	0
2024-07-29 23:03:47			0	35830	0	0	0	30522	29120	168952	26776	1068059	45660	111366	0	0	7971	624175	0	0
2024-07-29 23:04:47			0	35813	0	0	0	30519	29120	169088	26791	1068023	45648	111365	0	0	7970	624891	0	0
2024-07-29 23:05:47			0	35805	0	0	0	30511	29120	169164	26694	1068005	45660	111362	0	0	7969	625228	0	0
2024-07-29 23:06:47			0	35794	0	0	0	30501	29110	169200	26930	1067960	45670	111358	0	0	7969	625728	0	0
2024-07-29 23:07:47			0	35771	0	0	0	30493	29120	169204	26628	1067951	45660	111355	0	0	7968	626662	0	0
2024-07-29 23:08:47			0	35771	0	0	0	30503	29110	169296	26679	1067933	45625	111359	0	0	7967	626699	0	0
2024-07-29 23:09:47			0	35752	0	0	0	30498	29110	169220	26595	1067951	45659	111357	0	0	7966	627501	0	0
2024-07-29 23:10:47			0	35752	0	0	0	30509	29110	169336	26554	1067960	45659	111361	0	0	7966	627501	0	0
2024-07-29 23:11:47			0	35742	0	0	0	30506	29120	169504	26637	1067996	45670	111360	0	0	7966	627887	0	0
2024-07-29 23:12:47			0	35738	0	0	0	30503	29110	169400	26467	1067987	45659	111359	0	0	7965	628093	0	0
2024-07-29 23:13:47			0	35738	0	0	0	30506	29110	169480	26646	1067978	45648	111360	0	0	7965	628093	0	0
2024-07-29 23:14:47			0	35712	0	0	0	30490	29110	169436	26845	1067897	45648	111354	0	0	7964	629193	0	0
2024-07-29 23:15:47			0	35706	0	0	0	30501	29100	169492	26944	1067861	45658	111358	0	0	7964	629483	0	0
2024-07-29 23:16:47			0	35702	0	0	0	30483	29110	169636	26937	1067852	45648	111351	0	0	7964	629616	0	0
2024-07-29 23:17:47			0	35681	0	0	0	30475	29100	169576	26901	1067915	45669	111348	0	0	7962	630543	0	0
2024-07-29 23:18:47			0	35681	0	0	0	30480	29090	169664	26736	1067843	45658	111350	0	0	7962	630580	0	0
2024-07-29 23:19:47			0	35670	0	0	0	30485	29090	169720	27031	1067843	45658	111352	0	0	7962	631046	0	0
2024-07-29 23:20:47			0	35669	0	0	0	30480	29090	169824	27107	1067843	45658	111350	0	0	7962	631089	0	0
2024-07-29 23:21:47			0	35666	0	0	0	30472	29090	169728	26649	1067843	45646	111347	0	0	7962	631216	0	0
2024-07-29 23:22:47			0	35636	0	0	0	30483	29090	169840	26911	1067816	45646	111351	0	0	7960	632490	0	0
2024-07-29 23:23:47			0	35638	0	0	0	30475	29090	169988	26641	1067790	45658	111348	0	0	7960	632405	0	0
2024-07-29 23:24:47			0	35642	0	0	0	30470	29090	169964	26668	1067897	45658	111346	0	0	7960	632235	0	0
2024-07-29 23:25:47			0	35639	0	0	0	30467	29080	169992	27055	1067745	45657	111345	0	0	7960	632399	0	0
2024-07-29 23:26:47			0	35646	0	0	0	30462	29080	169868	27060	1067772	45657	111343	0	0	7960	632102	0	0
2024-07-29 23:27:47			0	35638	0	0	0	30454	29080	169928	27280	1067745	45645	111340	0	0	7960	632442	0	0
2024-07-29 23:28:47			0	35659	0	0	0	30454	29080	169868	26991	1067736	45644	111340	0	0	7961	631550	0	0
2024-07-29 23:29:47			0	35655	0	0	0	30457	29080	169932	26745	1067763	45656	111341	0	0	7961	631719	0	0
2024-07-29 23:30:47			0	35647	0	0	0	30451	29070	170000	26786	1067745	45655	111339	0	0	7961	632096	0	0
2024-07-29 23:31:47			0	35643	0	0	0	30441	29070	169992	26708	1067664	45666	111335	0	0	7961	632266	0	0
2024-07-29 23:32:47			0	35634	0	0	0	30444	29060	170008	26743	1067673	45665	111336	0	0	7960	632685	0	0
2024-07-29 23:33:47			0	35637	0	0	0	30444	29070	170056	26974	1067664	45643	111336	0	0	7960	632521	0	0
2024-07-29 23:34:47			0	35620	0	0	0	30451	29060	170092	26918	1067682	45655	111339	0	0	7959	633280	0	0
2024-07-29 23:35:47			0	35609	0	0	0	30446	29070	170084	26802	1067691	45655	111337	0	0	7958	633712	0	0
2024-07-29 23:36:47			0	35600	0	0	0	30451	29060	170108	26599	1067673	45654	111339	0	0	7958	634132	0	0
2024-07-29 23:37:47			0	35592	0	0	0	30441	29050	170268	26679	1067664	45653	111335	0	0	7957	634509	0	0
2024-07-29 23:38:47			0	35579	0	0	0	30441	29050	170288	26798	1067610	45674	111335	0	0	7957	635063	0	0
2024-07-29 23:39:47			0	35547	0	0	0	30433	29050	170376	26946	1067664	45653	111332	0	0	7955	636428	0	0
2024-07-29 23:40:47			0	35531	0	0	0	30444	29050	170524	26809	1067637	45653	111336	0	0	7954	637112	0	0
2024-07-29 23:41:47			0	35532	0	0	0	30433	29040	170560	26831	1067619	45653	111332	0	0	7954	637106	0	0
2024-07-29 23:42:47			0	35487	0	0	0	30431	29040	170592	26646	1067619	45641	111331	0	0	7951	639030	0	0
2024-07-29 23:43:47			0	35455	0	0	0	30431	29050	170732	26689	1067601	45664	111331	0	0	7949	640365	0	0
2024-07-29 23:44:47			0	35459	0	0	0	30428	29050	170836	26648	1067628	45653	111330	0	0	7949	640193	0	0
2024-07-29 23:45:47			0	35439	0	0	0	30436	29040	170928	26679	1067583	45663	111333	0	0	7948	641088	0	0
2024-07-29 23:46:47			0	35420	0	0	0	30428	29040	170936	26602	1067529	45652	111330	0	0	7947	641904	0	0
2024-07-29 23:47:47			0	35402	0	0	0	30412	29040	171108	26814	1067565	45664	111324	0	0	7946	642678	0	0
2024-07-29 23:48:47			0	35392	0	0	0	30412	29040	171240	26873	1067529	45652	111324	0	0	7946	643108	0	0
2024-07-29 23:49:47			0	35373	0	0	0	30399	29030	171212	26791	1067511	45651	111319	0	0	7945	643963	0	0
2024-07-29 23:50:47			0	35380	0	0	0	30399	29030	171300	26762	1067484	45639	111319	0	0	7945	643662	0	0
2024-07-29 23:51:47			0	35364	0	0	0	30392	29030	171320	26788	1067484	45651	111316	0	0	7944	644351	0	0
2024-07-29 23:52:47			0	35379	0	0	0	30397	29020	171300	26618	1067421	45651	111318	0	0	7945	643742	0	0
2024-07-29 23:53:47			0	35382	0	0	0	30399	29010	171368	26694	1067457	45637	111319	0	0	7945	643650	0	0
2024-07-29 23:54:47			0	35401	0	0	0	30392	29020	171212	26774	1067385	45661	111316	0	0	7946	642795	0	0
2024-07-29 23:55:47			0	35384	0	0	0	30394	29010	171216	26778	1067403	45660	111317	0	0	7945	643564	0	0
2024-07-29 23:56:47			0	35378	0	0	0	30381	29010	171256	26873	1067421	45648	111312	0	0	7945	643823	0	0
2024-07-29 23:57:47			0	35378	0	0	0	30384	29010	171348	26694	1067403	45637	111313	0	0	7945	643823	0	0
2024-07-29 23:58:47			0	35375	0	0	0	30386	29000	171312	26592	1067376	45648	111314	0	0	7945	643989	0	0
2024-07-29 23:59:47			0	35374	0	0	0	30381	29000	171332	26689	1067331	45648	111312	0	0	7945	644032	0	0
2024-07-30 00:00:47			0	35363	0	0	0	30381	29010	171416	26748	1067394	45648	111312	0	0	7944	644469	0	0
2024-07-30 00:01:47			0	35358	0	0	0	30373	29000	171396	26490	1067358	45648	111309	0	0	7944	644721	0	0
2024-07-30 00:02:47			0	35347	0	0	0	30366	28990	171408	26547	1067331	45634	111306	0	0	7943	645233	0	0
2024-07-30 00:03:47			0	35352	0	0	0	30366	28990	171392	26909	1067331	45646	111306	0	0	7944	645017	0	0
2024-07-30 00:04:47			0	35365	0	0	0	30361	28990	171408	26524	1067313	45647	111304	0	0	7944	644457	0	0
2024-07-30 00:05:47			0	35361	0	0	0	30340	28980	171448	27029	1067187	45634	111296	0	0	7945	644667	0	0
2024-07-30 00:06:47			0	35365	0	0	0	30340	28980	171356	26739	1067178	45634	111296	0	0	7945	644495	0	0
2024-07-30 00:07:47			0	35391	0	0	0	30345	28980	171252	26731	1067151	45646	111298	0	0	7946	643375	0	0
2024-07-30 00:08:47			0	35405	0	0	0	30342	28970	171172	26757	1067169	45645	111297	0	0	7947	642810	0	0
2024-07-30 00:09:47			0	35419	0	0	0	30340	28970	171064	26819	1067187	45655	111296	0	0	7948	642208	0	0
2024-07-30 00:10:47			0	35432	0	0	0	30342	28970	171008	26811	1067133	45655	111297	0	0	7949	641649	0	0
2024-07-30 00:11:47			0	35449	0	0	0	30337	28970	171088	26656	1067079	45666	111295	0	0	7950	640919	0	0
2024-07-30 00:12:47			0	35450	0	0	0	30340	28950	171040	26727	1067062	45644	111296	0	0	7950	640951	0	0
2024-07-30 00:13:47			0	35457	0	0	0	30345	28950	170976	26850	1067115	45655	111298	0	0	7950	640650	0	0
2024-07-30 00:14:47			0	35456	0	0	0	30337	28950	171032	26771	1067160	45654	111295	0	0	7950	640693	0	0
2024-07-30 00:15:47			0	35446	0	0	0	30329	28960	170972	26845	1067097	45644	111292	0	0	7950	641085	0	0
2024-07-30 00:16:47			0	35467	0	0	0	30335	28940	170988	26857	1067017	45642	111294	0	0	7951	640259	0	0
2024-07-30 00:17:47			0	35474	0	0	0	30329	28950	170912	27038	1066999	45654	111292	0	0	7952	639921	0	0
2024-07-30 00:18:47			0	35474	0	0	0	30327	28960	170876	26890	1067124	45644	111291	0	0	7952	639884	0	0
2024-07-30 00:19:47			0	35474	0	0	0	30324	28930	170916	26753	1066990	45641	111290	0	0	7951	639996	0	0
2024-07-30 00:20:47			0	35473	0	0	0	30327	28930	170912	26913	1067026	45652	111291	0	0	7951	640038	0	0
2024-07-30 00:21:47			0	35484	0	0	0	30329	28930	171008	26802	1067017	45652	111292	0	0	7952	639567	0	0
2024-07-30 00:22:47			0	35481	0	0	0	30314	28930	170792	26736	1067017	45641	111286	0	0	7952	639696	0	0
2024-07-30 00:23:47			0	35482	0	0	0	30314	28930	170940	26710	1067053	45664	111286	0	0	7952	639653	0	0
2024-07-30 00:24:47			0	35471	0	0	0	30319	28930	170988	26920	1066963	45641	111288	0	0	7951	640124	0	0
2024-07-30 00:25:47			0	35485	0	0	0	30314	28930	170960	27055	1067071	45641	111286	0	0	7952	639524	0	0
2024-07-30 00:26:47			0	35475	0	0	0	30306	28930	170956	26785	1066990	45641	111283	0	0	7952	639953	0	0
2024-07-30 00:27:47			0	35468	0	0	0	30311	28910	170960	27105	1066990	45650	111285	0	0	7951	640327	0	0
2024-07-30 00:28:47			0	35470	0	0	0	30309	28930	171068	27213	1066936	45629	111284	0	0	7951	640167	0	0
2024-07-30 00:29:47			0	35468	0	0	0	30303	28910	170908	26911	1066990	45639	111282	0	0	7951	640327	0	0
2024-07-30 00:30:47			0	35483	0	0	0	30306	28910	170792	27038	1066882	45639	111283	0	0	7952	639684	0	0
2024-07-30 00:31:47			0	35482	0	0	0	30303	28910	170900	26838	1066927	45650	111282	0	0	7952	639727	0	0
2024-07-30 00:32:47			0	35502	0	0	0	30298	28910	170800	26651	1066936	45650	111280	0	0	7954	638870	0	0
2024-07-30 00:33:47			0	35510	0	0	0	30298	28910	170808	27076	1066882	45639	111280	0	0	7954	638528	0	0
2024-07-30 00:34:47			0	35505	0	0	0	30288	28910	170776	26786	1066846	45650	111276	0	0	7954	638742	0	0
2024-07-30 00:35:47			0	35508	0	0	0	30296	28900	170784	26724	1066801	45660	111279	0	0	7954	638650	0	0
2024-07-30 00:36:47			0	35484	0	0	0	30306	28900	170944	27039	1066882	45637	111283	0	0	7952	639678	0	0
2024-07-30 00:37:47			0	35494	0	0	0	30306	28900	170896	26824	1066855	45648	111283	0	0	7953	639250	0	0
2024-07-30 00:38:47			0	35503	0	0	0	30301	28900	170880	27227	1066855	45637	111281	0	0	7953	638864	0	0
2024-07-30 00:39:47			0	35484	0	0	0	30296	28900	170924	26861	1066810	45626	111279	0	0	7952	639678	0	0
2024-07-30 00:40:47			0	35486	0	0	0	30280	28900	170804	26986	1066801	45637	111273	0	0	7953	639593	0	0
2024-07-30 00:41:47			0	35494	0	0	0	30283	28900	170892	27138	1066837	45638	111274	0	0	7953	639250	0	0
2024-07-30 00:42:47			0	35487	0	0	0	30275	28890	170912	26942	1066711	45648	111271	0	0	7953	639587	0	0
2024-07-30 00:43:47			0	35483	0	0	0	30267	28890	171004	26852	1066702	45648	111268	0	0	7953	639758	0	0
2024-07-30 00:44:47			0	35482	0	0	0	30267	28890	170984	26830	1066756	45637	111268	0	0	7953	639801	0	0
2024-07-30 00:45:47			0	35481	0	0	0	30272	28890	171032	26845	1066729	45637	111270	0	0	7953	639844	0	0
2024-07-30 00:46:47			0	35479	0	0	0	30272	28880	170968	26909	1066684	45646	111270	0	0	7952	639967	0	0
2024-07-30 00:47:47			0	35472	0	0	0	30277	28880	170976	26845	1066774	45647	111272	0	0	7952	640267	0	0
2024-07-30 00:48:47			0	35474	0	0	0	30264	28890	170988	26599	1066756	45637	111267	0	0	7952	640144	0	0
2024-07-30 00:49:47			0	35481	0	0	0	30267	28890	171084	26700	1066702	45637	111268	0	0	7953	639844	0	0
2024-07-30 00:50:47			0	35471	0	0	0	30267	28880	171056	26729	1066720	45636	111268	0	0	7952	640310	0	0
2024-07-30 00:51:47			0	35488	0	0	0	30257	28880	171004	26798	1066738	45635	111264	0	0	7953	639581	0	0
2024-07-30 00:52:47			0	35476	0	0	0	30257	28880	171052	27116	1066684	45635	111264	0	0	7952	640095	0	0
2024-07-30 00:53:47			0	35451	0	0	0	30249	28870	171176	26906	1066648	45646	111261	0	0	7951	641205	0	0
2024-07-30 00:54:47			0	35466	0	0	0	30251	28870	171140	26883	1066675	45658	111262	0	0	7952	640562	0	0
2024-07-30 00:55:47			0	35457	0	0	0	30257	28880	171140	26854	1066693	45647	111264	0	0	7951	640911	0	0
2024-07-30 00:56:47			0	35450	0	0	0	30249	28860	171076	26944	1066630	45645	111261	0	0	7951	641285	0	0
2024-07-30 00:57:47			0	35440	0	0	0	30251	28870	171124	26887	1066639	45645	111262	0	0	7950	641678	0	0
2024-07-30 00:58:47			0	35454	0	0	0	30246	28860	171020	26864	1066603	45645	111260	0	0	7951	641114	0	0
2024-07-30 00:59:47			0	35456	0	0	0	30233	28850	171092	26979	1066612	45632	111255	0	0	7952	641065	0	0
2024-07-30 01:00:47			0	35450	0	0	0	30236	28860	171136	26769	1066594	45644	111256	0	0	7951	641285	0	0
2024-07-30 01:01:47			0	35449	0	0	0	30246	28860	171108	27017	1066576	45645	111260	0	0	7951	641328	0	0
2024-07-30 01:02:47			0	35420	0	0	0	30241	28850	171108	27052	1066612	45643	111258	0	0	7949	642612	0	0
2024-07-30 01:03:47			0	35426	0	0	0	30236	28860	171176	26745	1066567	45633	111256	0	0	7950	642317	0	0
2024-07-30 01:04:47			0	35443	0	0	0	30244	28850	171208	27128	1066603	45643	111259	0	0	7951	641623	0	0
2024-07-30 01:05:47			0	35428	0	0	0	30236	28850	171192	26705	1066558	45632	111256	0	0	7950	642268	0	0
2024-07-30 01:06:47			0	35426	0	0	0	30228	28850	171228	26908	1066495	45632	111253	0	0	7950	642354	0	0
2024-07-30 01:07:47			0	35423	0	0	0	30218	28840	171244	27107	1066540	45643	111249	0	0	7950	642520	0	0
2024-07-30 01:08:47			0	35408	0	0	0	30207	28840	171304	26941	1066486	45632	111245	0	0	7949	643165	0	0
2024-07-30 01:09:47			0	35408	0	0	0	30220	28840	171332	26908	1066531	45631	111250	0	0	7949	643165	0	0
2024-07-30 01:10:47			0	35416	0	0	0	30218	28840	171324	26757	1066513	45643	111249	0	0	7949	642821	0	0
2024-07-30 01:11:47			0	35406	0	0	0	30210	28830	171308	27149	1066522	45664	111246	0	0	7949	643289	0	0
2024-07-30 01:12:47			0	35429	0	0	0	30212	28830	171220	26887	1066495	45653	111247	0	0	7950	642299	0	0
2024-07-30 01:13:47			0	35424	0	0	0	30210	28830	171288	27154	1066513	45642	111246	0	0	7950	642514	0	0
2024-07-30 01:14:47			0	35450	0	0	0	30207	28830	171188	26927	1066459	45630	111245	0	0	7951	641397	0	0
2024-07-30 01:15:47			0	35447	0	0	0	30205	28830	171272	26875	1066432	45642	111244	0	0	7951	641526	0	0
2024-07-30 01:16:47			0	35450	0	0	0	30202	28830	171340	26748	1066405	45630	111243	0	0	7952	641397	0	0
2024-07-30 01:17:47			0	35432	0	0	0	30205	28830	171200	26701	1066360	45642	111244	0	0	7950	642170	0	0
2024-07-30 01:18:47			0	35449	0	0	0	30202	28820	171280	26979	1066342	45642	111243	0	0	7951	641477	0	0
2024-07-30 01:19:47			0	35430	0	0	0	30197	28810	171272	26854	1066405	45640	111241	0	0	7950	642331	0	0
2024-07-30 01:20:47			0	35431	0	0	0	30199	28820	171236	26844	1066360	45629	111242	0	0	7950	642251	0	0
2024-07-30 01:21:47			0	35425	0	0	0	30197	28800	171284	26937	1066361	45650	111241	0	0	7950	642583	0	0
2024-07-30 01:22:47			0	35419	0	0	0	30184	28820	171288	26928	1066387	45641	111236	0	0	7950	642767	0	0
2024-07-30 01:23:47			0	35433	0	0	0	30197	28800	171268	26790	1066307	45650	111241	0	0	7950	642239	0	0
2024-07-30 01:24:47			0	35414	0	0	0	30189	28810	171280	27029	1066298	45628	111238	0	0	7949	643019	0	0
2024-07-30 01:25:47			0	35429	0	0	0	30197	28810	171276	26722	1066378	45628	111241	0	0	7950	642374	0	0
2024-07-30 01:26:47			0	35407	0	0	0	30186	28810	171460	26812	1066316	45628	111237	0	0	7949	643320	0	0
2024-07-30 01:27:47			0	35429	0	0	0	30192	28800	171380	26991	1066298	45639	111239	0	0	7950	642411	0	0
2024-07-30 01:28:47			0	35406	0	0	0	30179	28800	171348	26823	1066352	45639	111234	0	0	7949	643401	0	0
2024-07-30 01:29:47			0	35405	0	0	0	30184	28810	171448	27126	1066262	45628	111236	0	0	7949	643406	0	0
2024-07-30 01:30:47			0	35394	0	0	0	30168	28800	171488	26967	1066361	45650	111230	0	0	7949	643917	0	0
2024-07-30 01:31:47			0	35381	0	0	0	30171	28790	171528	26856	1066289	45616	111231	0	0	7948	644515	0	0
2024-07-30 01:32:47			0	35372	0	0	0	30184	28790	171496	26913	1066280	45638	111236	0	0	7947	644903	0	0
2024-07-30 01:33:47			0	35355	0	0	0	30168	28800	171568	26920	1066352	45627	111230	0	0	7946	645599	0	0
2024-07-30 01:34:47			0	35342	0	0	0	30176	28790	171652	26870	1066253	45638	111233	0	0	7945	646198	0	0
2024-07-30 01:35:47			0	35363	0	0	0	30166	28790	171576	26632	1066226	45649	111229	0	0	7947	645291	0	0
2024-07-30 01:36:47			0	35366	0	0	0	30163	28790	171540	26850	1066262	45638	111228	0	0	7947	645162	0	0
2024-07-30 01:37:47			0	35381	0	0	0	30158	28780	171504	26566	1066208	45615	111226	0	0	7948	644552	0	0
2024-07-30 01:38:47			0	35395	0	0	0	30155	28780	171420	26576	1066244	45648	111225	0	0	7949	643949	0	0
2024-07-30 01:39:47			0	35388	0	0	0	30161	28780	171424	26566	1066181	45648	111227	0	0	7948	644251	0	0
2024-07-30 01:40:47			0	35406	0	0	0	30153	28780	171388	26654	1066163	45625	111224	0	0	7949	643475	0	0
2024-07-30 01:41:47			0	35426	0	0	0	30153	28780	171352	26653	1066208	45625	111224	0	0	7951	642615	0	0
2024-07-30 01:42:47			0	35448	0	0	0	30140	28770	171272	26700	1066163	45624	111219	0	0	7952	641706	0	0
2024-07-30 01:43:47			0	35463	0	0	0	30135	28780	171268	26977	1066154	45637	111217	0	0	7953	641024	0	0
2024-07-30 01:44:47			0	35466	0	0	0	30140	28770	171092	27076	1066109	45624	111219	0	0	7953	640933	0	0
2024-07-30 01:45:47			0	35474	0	0	0	30148	28760	171072	26739	1066127	45624	111222	0	0	7954	640627	0	0
2024-07-30 01:46:47			0	35494	0	0	0	30150	28770	171024	26677	1066136	45613	111223	0	0	7955	639732	0	0
2024-07-30 01:47:47			0	35489	0	0	0	30148	28770	171024	26824	1066136	45624	111222	0	0	7955	639946	0	0
2024-07-30 01:48:47			0	35478	0	0	0	30148	28760	171012	26837	1066091	45646	111222	0	0	7954	640455	0	0
2024-07-30 01:49:47			0	35482	0	0	0	30153	28760	171020	26648	1066154	45635	111224	0	0	7954	640283	0	0
2024-07-30 01:50:47			0	35503	0	0	0	30150	28760	171036	27088	1066118	45635	111223	0	0	7955	639383	0	0
2024-07-30 01:51:47			0	35501	0	0	0	30142	28760	171016	26585	1066145	45613	111220	0	0	7955	639469	0	0
2024-07-30 01:52:47			0	35499	0	0	0	30142	28760	170960	27013	1066118	45635	111220	0	0	7955	639554	0	0
2024-07-30 01:53:47			0	35492	0	0	0	30142	28760	170996	26689	1066118	45635	111220	0	0	7955	639854	0	0
2024-07-30 01:54:47			0	35496	0	0	0	30140	28760	171028	26837	1066100	45635	111219	0	0	7955	639683	0	0
2024-07-30 01:55:47			0	35482	0	0	0	30135	28750	171084	26817	1066082	45634	111217	0	0	7954	640320	0	0
2024-07-30 01:56:47			0	35472	0	0	0	30132	28750	171088	26786	1066082	45634	111216	0	0	7954	640750	0	0
2024-07-30 01:57:47			0	35478	0	0	0	30124	28760	171140	26849	1066064	45646	111213	0	0	7954	640455	0	0
2024-07-30 01:58:47			0	35514	0	0	0	30135	28740	171044	26953	1066064	45633	111217	0	0	7956	638986	0	0
2024-07-30 01:59:47			0	35525	0	0	0	30129	28740	170904	26882	1066001	45643	111215	0	0	7957	638514	0	0
2024-07-30 02:00:47			0	35550	0	0	0	30124	28740	170696	26913	1066055	45632	111213	0	0	7959	637445	0	0
2024-07-30 02:01:47			0	35576	0	0	0	30122	28740	170572	27071	1065974	45643	111212	0	0	7960	636334	0	0
2024-07-30 02:02:47			0	35581	0	0	0	30124	28740	170576	26913	1066010	45633	111213	0	0	7960	636120	0	0
2024-07-30 02:03:47			0	35610	0	0	0	30124	28730	170500	26682	1065965	45643	111213	0	0	7962	634920	0	0
2024-07-30 02:04:47			0	35625	0	0	0	30122	28740	170528	26908	1065974	45632	111212	0	0	7963	634243	0	0
2024-07-30 02:05:47			0	35631	0	0	0	30109	28730	170492	26842	1065965	45632	111207	0	0	7964	634024	0	0
2024-07-30 02:06:47			0	35648	0	0	0	30114	28730	170364	27038	1065992	45632	111209	0	0	7965	633301	0	0
2024-07-30 02:07:47			0	35656	0	0	0	30114	28730	170216	27046	1065965	45632	111209	0	0	7965	632960	0	0
2024-07-30 02:08:47			0	35681	0	0	0	30106	28720	170172	26712	1065911	45630	111206	0	0	7967	631934	0	0
2024-07-30 02:09:47			0	35708	0	0	0	30111	28730	170224	26715	1065929	45620	111208	0	0	7968	630751	0	0
2024-07-30 02:10:47			0	35711	0	0	0	30119	28720	169928	26712	1065938	45641	111211	0	0	7968	630660	0	0
2024-07-30 02:11:47			0	35716	0	0	0	30103	28720	170044	26838	1065947	45620	111205	0	0	7969	630448	0	0
2024-07-30 02:12:47			0	35738	0	0	0	30116	28730	169964	26684	1065983	45642	111210	0	0	7970	629478	0	0
2024-07-30 02:13:47			0	35731	0	0	0	30114	28730	169924	26595	1065911	45632	111209	0	0	7970	629775	0	0
2024-07-30 02:14:47			0	35741	0	0	0	30114	28720	169968	26956	1065974	45631	111209	0	0	7970	629388	0	0
2024-07-30 02:15:47			0	35738	0	0	0	30109	28730	169944	26644	1065992	45655	111207	0	0	7970	629478	0	0
2024-07-30 02:16:47			0	35732	0	0	0	30109	28730	170000	26916	1066010	45642	111207	0	0	7970	629733	0	0
2024-07-30 02:17:47			0	35752	0	0	0	30109	28720	169924	26746	1065947	45642	111207	0	0	7971	628922	0	0
2024-07-30 02:18:47			0	35750	0	0	0	30109	28720	169900	27043	1065947	45631	111207	0	0	7971	629007	0	0
2024-07-30 02:19:47			0	35741	0	0	0	30106	28720	169816	27081	1065857	45630	111206	0	0	7970	629388	0	0
2024-07-30 02:20:47			0	35767	0	0	0	30096	28720	169880	26826	1065911	45641	111202	0	0	7972	628287	0	0
2024-07-30 02:21:47			0	35760	0	0	0	30098	28710	169840	26759	1065902	45630	111203	0	0	7972	628620	0	0
2024-07-30 02:22:47			0	35760	0	0	0	30093	28710	169816	26589	1065821	45619	111201	0	0	7972	628620	0	0
2024-07-30 02:23:47			0	35767	0	0	0	30098	28720	169828	26452	1065911	45630	111203	0	0	7972	628287	0	0
2024-07-30 02:24:47			0	35754	0	0	0	30101	28710	169752	26564	1065848	45619	111204	0	0	7971	628874	0	0
2024-07-30 02:25:47			0	35752	0	0	0	30101	28710	169920	26819	1065929	45630	111204	0	0	7971	628958	0	0
2024-07-30 02:26:47			0	35763	0	0	0	30101	28720	169856	26745	1065884	45641	111204	0	0	7972	628456	0	0
2024-07-30 02:27:47			0	35777	0	0	0	30103	28710	169856	26977	1065866	45629	111205	0	0	7973	627900	0	0
2024-07-30 02:28:47			0	35768	0	0	0	30101	28710	169864	26384	1065813	45629	111204	0	0	7972	628281	0	0
2024-07-30 02:29:47			0	35775	0	0	0	30098	28710	169768	26719	1065866	45640	111203	0	0	7973	627985	0	0
2024-07-30 02:30:47			0	35804	0	0	0	30093	28700	169720	26916	1065911	45618	111201	0	0	7974	626795	0	0
2024-07-30 02:31:47			0	35801	0	0	0	30090	28700	169732	26922	1065804	45629	111200	0	0	7974	626922	0	0
2024-07-30 02:32:47			0	35793	0	0	0	30088	28700	169796	26956	1065804	45629	111199	0	0	7974	627260	0	0
2024-07-30 02:33:47			0	35785	0	0	0	30083	28710	169776	26485	1065875	45630	111197	0	0	7973	627562	0	0
2024-07-30 02:34:47			0	35805	0	0	0	30085	28700	169688	26646	1065768	45639	111198	0	0	7975	626753	0	0
2024-07-30 02:35:47			0	35802	0	0	0	30096	28700	169764	26955	1065857	45629	111202	0	0	7974	626880	0	0
2024-07-30 02:36:47			0	35815	0	0	0	30090	28700	169728	26675	1065822	45628	111200	0	0	7975	626331	0	0
2024-07-30 02:37:47			0	35810	0	0	0	30085	28700	169792	26552	1065777	45640	111198	0	0	7975	626541	0	0
2024-07-30 02:38:47			0	35803	0	0	0	30077	28700	169652	26868	1065795	45651	111195	0	0	7975	626837	0	0
2024-07-30 02:39:47			0	35795	0	0	0	30075	28690	169700	26814	1065750	45638	111194	0	0	7974	627212	0	0
2024-07-30 02:40:47			0	35794	0	0	0	30077	28690	169872	26665	1065759	45639	111195	0	0	7974	627254	0	0
2024-07-30 02:41:47			0	35788	0	0	0	30072	28680	169804	26816	1065786	45626	111193	0	0	7974	627544	0	0
2024-07-30 02:42:47			0	35772	0	0	0	30075	28690	169732	26467	1065759	45628	111194	0	0	7973	628184	0	0
2024-07-30 02:43:47			0	35809	0	0	0	30072	28690	169740	26909	1065813	45628	111193	0	0	7975	626620	0	0
2024-07-30 02:44:47			0	35792	0	0	0	30072	28670	169732	26817	1065777	45636	111193	0	0	7974	627411	0	0
2024-07-30 02:45:47			0	35791	0	0	0	30075	28680	169768	26963	1065678	45637	111194	0	0	7974	627417	0	0
2024-07-30 02:46:47			0	35785	0	0	0	30067	28690	169756	27029	1065759	45628	111191	0	0	7974	627634	0	0
2024-07-30 02:47:47			0	35776	0	0	0	30059	28680	169760	26861	1065714	45627	111188	0	0	7973	628051	0	0
2024-07-30 02:48:47			0	35772	0	0	0	30054	28680	169772	26776	1065768	45616	111186	0	0	7973	628221	0	0
2024-07-30 02:49:47			0	35776	0	0	0	30051	28680	169752	26842	1065705	45626	111185	0	0	7973	628051	0	0
2024-07-30 02:50:47			0	35779	0	0	0	30062	28670	169796	26977	1065696	45625	111189	0	0	7973	627961	0	0
2024-07-30 02:51:47			0	35785	0	0	0	30059	28670	169776	27005	1065669	45614	111188	0	0	7974	627707	0	0
2024-07-30 02:52:47			0	35773	0	0	0	30064	28650	169916	26778	1065615	45635	111190	0	0	7973	628288	0	0
2024-07-30 02:53:47			0	35774	0	0	0	30054	28680	169784	26680	1065651	45626	111186	0	0	7973	628136	0	0
2024-07-30 02:54:47			0	35785	0	0	0	30057	28680	169776	26802	1065705	45649	111187	0	0	7974	627671	0	0
2024-07-30 02:55:47			0	35769	0	0	0	30059	28660	169860	26738	1065633	45636	111188	0	0	7973	628420	0	0
2024-07-30 02:56:47			0	35771	0	0	0	30051	28660	169864	26753	1065597	45635	111185	0	0	7973	628336	0	0
2024-07-30 02:57:47			0	35783	0	0	0	30054	28660	169740	26833	1065633	45636	111186	0	0	7974	627828	0	0
2024-07-30 02:58:47			0	35780	0	0	0	30044	28660	169816	26729	1065678	45625	111182	0	0	7974	627955	0	0
2024-07-30 02:59:47			0	35777	0	0	0	30041	28650	169892	26949	1065588	45635	111181	0	0	7973	628118	0	0
2024-07-30 03:00:47			0	35789	0	0	0	30046	28650	169856	26854	1065561	45613	111183	0	0	7974	627611	0	0
2024-07-30 03:01:47			0	35788	0	0	0	30046	28650	169860	26779	1065696	45635	111183	0	0	7974	627653	0	0
2024-07-30 03:02:47			0	35786	0	0	0	30033	28650	169864	27066	1065579	45624	111178	0	0	7974	627738	0	0
2024-07-30 03:03:47			0	35792	0	0	0	30036	28640	169756	26968	1065624	45624	111179	0	0	7974	627520	0	0
2024-07-30 03:04:47			0	35786	0	0	0	30038	28640	169832	26878	1065597	45612	111180	0	0	7974	627774	0	0
2024-07-30 03:05:47			0	35790	0	0	0	30033	28640	169904	26823	1065570	45624	111178	0	0	7974	627605	0	0
2024-07-30 03:06:47			0	35788	0	0	0	30031	28650	169856	26535	1065552	45612	111177	0	0	7974	627653	0	0
2024-07-30 03:07:47			0	35810	0	0	0	30031	28640	169764	26682	1065624	45624	111177	0	0	7975	626759	0	0
2024-07-30 03:08:47			0	35810	0	0	0	30038	28650	169756	26776	1065579	45634	111180	0	0	7975	626723	0	0
2024-07-30 03:09:47			0	35811	0	0	0	30033	28650	169732	26717	1065633	45634	111178	0	0	7976	626681	0	0
2024-07-30 03:10:47			0	35810	0	0	0	30023	28640	169672	26733	1065597	45624	111174	0	0	7976	626759	0	0
2024-07-30 03:11:47			0	35832	0	0	0	30036	28640	169736	26842	1065543	45634	111179	0	0	7977	625830	0	0
2024-07-30 03:12:47			0	35825	0	0	0	30031	28640	169708	26677	1065516	45624	111177	0	0	7976	626126	0	0
2024-07-30 03:13:47			0	35819	0	0	0	30023	28640	169692	26864	1065570	45624	111174	0	0	7976	626379	0	0
2024-07-30 03:14:47			0	35824	0	0	0	30018	28640	169620	26861	1065534	45623	111172	0	0	7977	626168	0	0
2024-07-30 03:15:47			0	35814	0	0	0	30012	28630	169672	26700	1065525	45633	111170	0	0	7976	626627	0	0
2024-07-30 03:16:47			0	35840	0	0	0	30012	28640	169608	26772	1065534	45623	111170	0	0	7978	625493	0	0
2024-07-30 03:17:47			0	35838	0	0	0	30007	28630	169688	26597	1065498	45633	111168	0	0	7978	625613	0	0
2024-07-30 03:18:47			0	35842	0	0	0	30010	28630	169644	26765	1065525	45633	111169	0	0	7978	625445	0	0
2024-07-30 03:19:47			0	35839	0	0	0	30018	28630	169664	26622	1065489	45622	111172	0	0	7977	625571	0	0
2024-07-30 03:20:47			0	35848	0	0	0	30018	28630	169640	26693	1065525	45612	111172	0	0	7978	625192	0	0
2024-07-30 03:21:47			0	35848	0	0	0	30012	28620	169616	26765	1065507	45621	111170	0	0	7978	625228	0	0
2024-07-30 03:22:47			0	35842	0	0	0	30031	28610	169600	26715	1065489	45643	111177	0	0	7977	625517	0	0
2024-07-30 03:23:47			0	35830	0	0	0	30025	28630	169540	26627	1065516	45644	111175	0	0	7977	625951	0	0
2024-07-30 03:24:47			0	35852	0	0	0	30033	28620	169612	26682	1065471	45621	111178	0	0	7978	625059	0	0
2024-07-30 03:25:47			0	35833	0	0	0	30025	28620	169744	26896	1065507	45631	111175	0	0	7977	625861	0	0
2024-07-30 03:26:47			0	35839	0	0	0	30023	28630	169544	26861	1065525	45623	111174	0	0	7977	625571	0	0
2024-07-30 03:27:47			0	35856	0	0	0	30028	28620	169540	26752	1065525	45621	111176	0	0	7978	624890	0	0
2024-07-30 03:28:47			0	35843	0	0	0	30020	28620	169564	26916	1065471	45610	111173	0	0	7978	625439	0	0
2024-07-30 03:29:47			0	35855	0	0	0	30015	28610	169541	26847	1065435	45621	111171	0	0	7978	624969	0	0
2024-07-30 03:30:47			0	35863	0	0	0	30020	28610	169481	26870	1065435	45621	111173	0	0	7979	624631	0	0
2024-07-30 03:31:47			0	35866	0	0	0	30007	28620	169569	26935	1065498	45631	111168	0	0	7979	624469	0	0
2024-07-30 03:32:47			0	35863	0	0	0	30010	28610	169477	26838	1065489	45621	111169	0	0	7979	624631	0	0
2024-07-30 03:33:47			0	35867	0	0	0	30018	28630	169425	26889	1065498	45633	111172	0	0	7979	624390	0	0
2024-07-30 03:34:47			0	35888	0	0	0	30015	28610	169357	26738	1065462	45631	111171	0	0	7980	623578	0	0
2024-07-30 03:35:47			0	35885	0	0	0	30020	28610	169329	26958	1065462	45631	111173	0	0	7980	623705	0	0
2024-07-30 03:36:47			0	35902	0	0	0	30015	28620	169421	26849	1065417	45631	111171	0	0	7981	622953	0	0
2024-07-30 03:37:47			0	35892	0	0	0	30012	28610	169477	26595	1065426	45630	111170	0	0	7981	623410	0	0
2024-07-30 03:38:47			0	35891	0	0	0	30002	28620	169389	26585	1065453	45621	111166	0	0	7981	623416	0	0
2024-07-30 03:39:47			0	35901	0	0	0	30007	28610	169385	26790	1065462	45631	111168	0	0	7981	623031	0	0
2024-07-30 03:40:47			0	35891	0	0	0	30012	28610	169429	26573	1065426	45620	111170	0	0	7981	623452	0	0
2024-07-30 03:41:47			0	35894	0	0	0	30005	28610	169505	26736	1065435	45610	111167	0	0	7981	623326	0	0
2024-07-30 03:42:47			0	35903	0	0	0	29999	28600	169385	26616	1065417	45619	111165	0	0	7981	622983	0	0
2024-07-30 03:43:47			0	35898	0	0	0	29986	28600	169385	26812	1065364	45619	111160	0	0	7981	623193	0	0
2024-07-30 03:44:47			0	35901	0	0	0	29989	28610	169441	26705	1065372	45620	111161	0	0	7982	623031	0	0
2024-07-30 03:45:47			0	35907	0	0	0	29981	28590	169401	26892	1065319	45619	111158	0	0	7982	622851	0	0
2024-07-30 03:46:47			0	35900	0	0	0	29976	28600	169441	26845	1065355	45619	111156	0	0	7982	623109	0	0
2024-07-30 03:47:47			0	35913	0	0	0	29979	28590	169457	26932	1065319	45608	111157	0	0	7982	622599	0	0
2024-07-30 03:48:47			0	35908	0	0	0	29971	28590	169425	26937	1065292	45641	111154	0	0	7982	622809	0	0
2024-07-30 03:49:47			0	35926	0	0	0	29971	28590	169257	27078	1065265	45619	111154	0	0	7983	622052	0	0
2024-07-30 03:50:47			0	35927	0	0	0	29976	28590	169369	26906	1065283	45628	111156	0	0	7983	622010	0	0
2024-07-30 03:51:47			0	35917	0	0	0	29966	28580	169293	27144	1065301	45617	111152	0	0	7983	622466	0	0
2024-07-30 03:52:47			0	35933	0	0	0	29963	28580	169293	26899	1065184	45617	111151	0	0	7984	621794	0	0
2024-07-30 03:53:47			0	35938	0	0	0	29979	28590	169189	26972	1065310	45628	111157	0	0	7984	621548	0	0
2024-07-30 03:54:47			0	35936	0	0	0	29986	28580	169265	26786	1065328	45617	111160	0	0	7984	621668	0	0
2024-07-30 03:55:47			0	35941	0	0	0	29984	28580	169173	26837	1065328	45627	111159	0	0	7984	621458	0	0
2024-07-30 03:56:47			0	35940	0	0	0	29984	28580	169165	26835	1065355	45617	111159	0	0	7984	621500	0	0
2024-07-30 03:57:47			0	35949	0	0	0	29981	28580	169229	26783	1065238	45627	111158	0	0	7984	621122	0	0
2024-07-30 03:58:47			0	35965	0	0	0	29971	28590	169149	26824	1065337	45640	111154	0	0	7986	620415	0	0
2024-07-30 03:59:47			0	35975	0	0	0	29973	28580	169145	26521	1065274	45617	111155	0	0	7986	620031	0	0
2024-07-30 04:00:47			0	35978	0	0	0	29979	28580	169153	26826	1065328	45627	111157	0	0	7986	619905	0	0
2024-07-30 04:01:47			0	36002	0	0	0	29973	28580	169073	26592	1065265	45639	111155	0	0	7988	618900	0	0
2024-07-30 04:02:47			0	36002	0	0	0	29973	28580	168925	26727	1065274	45627	111155	0	0	7988	618900	0	0
2024-07-30 04:03:47			0	36007	0	0	0	29971	28570	168965	26543	1065274	45616	111154	0	0	7988	618726	0	0
2024-07-30 04:04:47			0	36026	0	0	0	29966	28580	168925	26724	1065265	45617	111152	0	0	7989	617895	0	0
2024-07-30 04:05:47			0	36040	0	0	0	29968	28570	168825	26727	1065220	45616	111153	0	0	7990	617345	0	0
2024-07-30 04:06:47			0	36033	0	0	0	29963	28580	168845	26896	1065292	45639	111151	0	0	7990	617602	0	0
2024-07-30 04:07:47			0	36039	0	0	0	29958	28570	168809	26911	1065175	45627	111149	0	0	7990	617387	0	0
2024-07-30 04:08:47			0	36065	0	0	0	29955	28570	168721	26890	1065148	45616	111148	0	0	7992	616301	0	0
2024-07-30 04:09:47			0	36067	0	0	0	29948	28560	168633	26838	1065184	45626	111145	0	0	7992	616253	0	0
2024-07-30 04:10:47			0	36068	0	0	0	29948	28560	168645	26873	1065103	45604	111145	0	0	7992	616212	0	0
2024-07-30 04:11:47			0	36081	0	0	0	29948	28560	168633	26857	1065157	45615	111145	0	0	7993	615669	0	0
2024-07-30 04:12:47			0	36095	0	0	0	29948	28560	168513	26840	1065148	45625	111145	0	0	7994	615085	0	0
2024-07-30 04:13:47			0	36107	0	0	0	29948	28560	168441	26922	1065184	45615	111145	0	0	7994	614585	0	0
2024-07-30 04:14:47			0	36108	0	0	0	29935	28560	168509	26646	1065121	45625	111140	0	0	7995	614543	0	0
2024-07-30 04:15:47			0	36112	0	0	0	29932	28550	168541	26774	1065112	45614	111139	0	0	7995	614412	0	0
2024-07-30 04:16:47			0	36113	0	0	0	29929	28550	168485	26939	1065112	45614	111138	0	0	7995	614370	0	0
2024-07-30 04:17:47			0	36127	0	0	0	29929	28550	168433	26908	1065112	45625	111138	0	0	7996	613787	0	0
2024-07-30 04:18:47			0	36132	0	0	0	29935	28550	168397	26904	1065058	45636	111140	0	0	7996	613579	0	0
2024-07-30 04:19:47			0	36132	0	0	0	29924	28540	168333	26958	1065067	45635	111136	0	0	7996	613615	0	0
2024-07-30 04:20:47			0	36148	0	0	0	29924	28540	168297	26729	1065040	45613	111136	0	0	7997	612949	0	0
2024-07-30 04:21:47			0	36134	0	0	0	29927	28540	168293	26819	1065058	45634	111137	0	0	7996	613532	0	0
2024-07-30 04:22:47			0	36167	0	0	0	29929	28540	168309	26814	1065067	45625	111138	0	0	7998	612159	0	0
2024-07-30 04:23:47			0	36161	0	0	0	29935	28540	168309	27045	1065014	45625	111140	0	0	7998	612408	0	0
2024-07-30 04:24:47			0	36160	0	0	0	29937	28540	168357	26828	1065040	45625	111141	0	0	7998	612450	0	0
2024-07-30 04:25:47			0	36151	0	0	0	29935	28540	168309	26672	1065067	45625	111140	0	0	7997	612824	0	0
2024-07-30 04:26:47			0	36165	0	0	0	29924	28540	168269	26689	1065067	45613	111136	0	0	7998	612242	0	0
2024-07-30 04:27:47			0	36174	0	0	0	29919	28540	168329	26989	1065094	45635	111134	0	0	7999	611868	0	0
2024-07-30 04:28:47			0	36184	0	0	0	29914	28540	168369	26620	1065067	45625	111132	0	0	7999	611453	0	0
2024-07-30 04:29:47			0	36170	0	0	0	29919	28540	168189	26622	1065094	45625	111134	0	0	7999	612035	0	0
2024-07-30 04:30:47			0	36181	0	0	0	29916	28540	168053	26583	1065031	45624	111133	0	0	7999	611577	0	0
2024-07-30 04:31:47			0	36194	0	0	0	29916	28530	168121	26703	1065050	45601	111133	0	0	8000	611073	0	0
2024-07-30 04:32:47			0	36184	0	0	0	29911	28530	168137	26871	1065023	45624	111131	0	0	7999	611488	0	0
2024-07-30 04:33:47			0	36219	0	0	0	29906	28530	168057	26866	1064996	45624	111129	0	0	8002	610036	0	0
2024-07-30 04:34:47			0	36202	0	0	0	29898	28530	168025	26750	1064987	45612	111126	0	0	8001	610741	0	0
2024-07-30 04:35:47			0	36217	0	0	0	29898	28520	167945	27140	1064915	45622	111126	0	0	8002	610154	0	0
2024-07-30 04:36:47			0	36211	0	0	0	29903	28510	168133	26745	1064932	45622	111128	0	0	8001	610439	0	0
2024-07-30 04:37:47			0	36212	0	0	0	29896	28520	168089	26533	1064923	45600	111125	0	0	8001	610362	0	0
2024-07-30 04:38:47			0	36227	0	0	0	29888	28500	167973	26861	1064861	45621	111122	0	0	8002	609810	0	0
2024-07-30 04:39:47			0	36229	0	0	0	29890	28510	168093	26916	1064852	45610	111123	0	0	8002	609692	0	0
2024-07-30 04:40:47			0	36231	0	0	0	29888	28510	168033	26590	1064879	45610	111122	0	0	8003	609609	0	0
2024-07-30 04:41:47			0	36221	0	0	0	29883	28520	168073	26772	1064941	45622	111120	0	0	8002	609988	0	0
2024-07-30 04:42:47			0	36223	0	0	0	29890	28520	168025	26694	1064888	45622	111123	0	0	8002	609906	0	0
2024-07-30 04:43:47			0	36230	0	0	0	29888	28500	168113	26750	1064834	45621	111122	0	0	8002	609686	0	0
2024-07-30 04:44:47			0	36227	0	0	0	29890	28510	168057	26469	1064852	45610	111123	0	0	8002	609775	0	0
2024-07-30 04:45:47			0	36215	0	0	0	29893	28490	168085	26894	1064870	45619	111124	0	0	8001	610343	0	0
2024-07-30 04:46:47			0	36231	0	0	0	29888	28500	168109	26706	1064906	45608	111122	0	0	8003	609645	0	0
2024-07-30 04:47:47			0	36218	0	0	0	29880	28500	168153	26687	1064888	45621	111119	0	0	8002	610184	0	0
2024-07-30 04:48:47			0	36228	0	0	0	29870	28500	168185	26630	1064807	45609	111115	0	0	8003	609769	0	0
2024-07-30 04:49:47			0	36221	0	0	0	29877	28500	167985	26894	1064798	45620	111118	0	0	8002	610059	0	0
2024-07-30 04:50:47			0	36228	0	0	0	29872	28490	168041	26776	1064780	45619	111116	0	0	8003	609804	0	0
2024-07-30 04:51:47			0	36219	0	0	0	29872	28490	168057	26623	1064762	45629	111116	0	0	8002	610177	0	0
2024-07-30 04:52:47			0	36230	0	0	0	29867	28490	168173	26712	1064789	45629	111114	0	0	8003	609721	0	0
2024-07-30 04:53:47			0	36218	0	0	0	29859	28480	168109	26977	1064735	45606	111111	0	0	8002	610254	0	0
2024-07-30 04:54:47			0	36224	0	0	0	29864	28480	168069	27036	1064735	45606	111113	0	0	8002	610005	0	0
2024-07-30 04:55:47			0	36216	0	0	0	29857	28480	168185	27036	1064717	45607	111110	0	0	8002	610337	0	0
2024-07-30 04:56:47			0	36209	0	0	0	29857	28480	168153	27078	1064771	45619	111110	0	0	8002	610627	0	0
2024-07-30 04:57:47			0	36237	0	0	0	29849	28480	168141	26587	1064681	45618	111107	0	0	8003	609467	0	0
2024-07-30 04:58:47			0	36237	0	0	0	29846	28480	168161	26710	1064762	45618	111106	0	0	8003	609467	0	0
2024-07-30 04:59:47			0	36212	0	0	0	29841	28480	168097	26765	1064690	45619	111104	0	0	8002	610503	0	0
2024-07-30 05:00:47			0	36209	0	0	0	29844	28480	168193	26750	1064681	45628	111105	0	0	8002	610627	0	0
2024-07-30 05:01:47			0	36233	0	0	0	29841	28470	168097	26727	1064636	45617	111104	0	0	8003	609667	0	0
2024-07-30 05:02:47			0	36208	0	0	0	29838	28470	168185	26956	1064636	45617	111103	0	0	8002	610704	0	0
2024-07-30 05:03:47			0	36219	0	0	0	29844	28460	168157	26793	1064627	45627	111105	0	0	8002	610283	0	0
2024-07-30 05:04:47			0	36229	0	0	0	29838	28470	168173	26672	1064609	45617	111103	0	0	8003	609833	0	0
2024-07-30 05:05:47			0	36236	0	0	0	29838	28460	168205	26786	1064618	45638	111103	0	0	8003	609579	0	0
2024-07-30 05:06:47			0	36225	0	0	0	29831	28450	168049	26583	1064610	45625	111100	0	0	8003	610070	0	0
2024-07-30 05:07:47			0	36240	0	0	0	29828	28450	168049	26776	1064556	45615	111099	0	0	8004	609448	0	0
2024-07-30 05:08:47			0	36242	0	0	0	29844	28450	168005	26828	1064610	45625	111105	0	0	8004	609365	0	0
2024-07-30 05:09:47			0	36232	0	0	0	29854	28450	167981	27128	1064628	45637	111109	0	0	8003	609780	0	0
2024-07-30 05:10:47			0	36240	0	0	0	29859	28460	167969	26871	1064600	45627	111111	0	0	8003	609413	0	0
2024-07-30 05:11:47			0	36248	0	0	0	29854	28460	168025	26618	1064672	45626	111109	0	0	8004	609081	0	0
2024-07-30 05:12:47			0	36250	0	0	0	29849	28450	167965	26772	1064610	45615	111107	0	0	8004	609034	0	0
2024-07-30 05:13:47			0	36249	0	0	0	29841	28460	167933	27161	1064600	45617	111104	0	0	8004	609040	0	0
2024-07-30 05:14:47			0	36254	0	0	0	29833	28450	167937	26837	1064663	45615	111101	0	0	8005	608868	0	0
2024-07-30 05:15:47			0	36270	0	0	0	29823	28450	167989	26961	1064574	45615	111097	0	0	8006	608206	0	0
2024-07-30 05:16:47			0	36254	0	0	0	29823	28440	167905	26576	1064538	45603	111097	0	0	8005	608903	0	0
2024-07-30 05:17:47			0	36248	0	0	0	29812	28440	167877	26934	1064538	45603	111093	0	0	8005	609152	0	0
2024-07-30 05:18:47			0	36257	0	0	0	29812	28450	167905	26776	1064547	45625	111093	0	0	8005	608744	0	0
2024-07-30 05:19:47			0	36267	0	0	0	29820	28430	167805	26817	1064439	45624	111096	0	0	8005	608400	0	0
2024-07-30 05:20:47			0	36275	0	0	0	29812	28430	167861	26788	1064439	45601	111093	0	0	8006	608069	0	0
2024-07-30 05:21:47			0	36244	0	0	0	29820	28430	167945	27095	1064520	45601	111096	0	0	8004	609353	0	0
2024-07-30 05:22:47			0	36273	0	0	0	29818	28430	167889	26953	1064511	45623	111095	0	0	8006	608152	0	0
2024-07-30 05:23:47			0	36273	0	0	0	29828	28440	167881	26854	1064502	45625	111099	0	0	8006	608117	0	0
2024-07-30 05:24:47			0	36298	0	0	0	29815	28440	167809	26708	1064529	45602	111094	0	0	8007	607083	0	0
2024-07-30 05:25:47			0	36282	0	0	0	29815	28430	167805	26817	1064493	45635	111094	0	0	8006	607780	0	0
2024-07-30 05:26:47			0	36279	0	0	0	29810	28430	167781	26587	1064457	45612	111092	0	0	8006	607904	0	0
2024-07-30 05:27:47			0	36288	0	0	0	29805	28430	167761	26882	1064484	45600	111090	0	0	8007	607532	0	0
2024-07-30 05:28:47			0	36302	0	0	0	29799	28420	167861	26672	1064394	45612	111088	0	0	8008	606988	0	0
2024-07-30 05:29:47			0	36308	0	0	0	29794	28430	167769	26828	1064493	45624	111086	0	0	8008	606705	0	0
2024-07-30 05:30:47			0	36317	0	0	0	29797	28420	167773	26649	1064448	45623	111087	0	0	8009	606369	0	0
2024-07-30 05:31:47			0	36309	0	0	0	29810	28420	167789	26750	1064439	45612	111092	0	0	8008	606699	0	0
2024-07-30 05:32:47			0	36319	0	0	0	29799	28420	167841	26622	1064394	45612	111088	0	0	8009	606286	0	0
2024-07-30 05:33:47			0	36303	0	0	0	29797	28420	167809	26790	1064448	45600	111087	0	0	8008	606947	0	0
2024-07-30 05:34:47			0	36316	0	0	0	29807	28420	167897	26646	1064394	45623	111091	0	0	8009	606410	0	0
2024-07-30 05:35:47			0	36300	0	0	0	29794	28410	167785	26717	1064394	45610	111086	0	0	8008	607106	0	0
2024-07-30 05:36:47			0	36312	0	0	0	29797	28420	167785	26748	1064448	45612	111087	0	0	8008	606575	0	0
2024-07-30 05:37:47			0	36306	0	0	0	29807	28410	167821	26866	1064376	45611	111091	0	0	8008	606858	0	0
2024-07-30 05:38:47			0	36305	0	0	0	29792	28410	167753	26769	1064430	45611	111085	0	0	8008	606899	0	0
2024-07-30 05:39:47			0	36328	0	0	0	29789	28410	167817	26622	1064340	45621	111084	0	0	8010	605950	0	0
2024-07-30 05:40:47			0	36316	0	0	0	29802	28400	167669	26599	1064385	45610	111089	0	0	8009	606480	0	0
2024-07-30 05:41:47			0	36321	0	0	0	29786	28410	167701	27024	1064322	45622	111083	0	0	8009	606239	0	0
2024-07-30 05:42:47			0	36326	0	0	0	29794	28410	167757	26923	1064403	45611	111086	0	0	8009	606032	0	0
2024-07-30 05:43:47			0	36318	0	0	0	29805	28410	167781	26890	1064421	45598	111090	0	0	8009	606362	0	0
2024-07-30 05:44:47			0	36297	0	0	0	29802	28410	167681	26845	1064376	45633	111089	0	0	8007	607230	0	0
2024-07-30 05:45:47			0	36291	0	0	0	29799	28410	167749	26847	1064403	45611	111088	0	0	8007	607478	0	0
2024-07-30 05:46:47			0	36300	0	0	0	29799	28420	167801	26920	1064466	45612	111088	0	0	8008	607071	0	0
2024-07-30 05:47:47			0	36325	0	0	0	29802	28420	167725	26982	1064394	45623	111089	0	0	8009	606038	0	0
2024-07-30 05:48:47			0	36292	0	0	0	29807	28420	167729	26840	1064412	45612	111091	0	0	8007	607401	0	0
2024-07-30 05:49:47			0	36289	0	0	0	29812	28410	167753	26648	1064448	45621	111093	0	0	8007	607561	0	0
2024-07-30 05:50:47			0	36296	0	0	0	29820	28410	167777	26845	1064421	45621	111096	0	0	8007	607271	0	0
2024-07-30 05:51:47			0	36287	0	0	0	29823	28410	167853	26606	1064457	45622	111097	0	0	8007	607643	0	0
2024-07-30 05:52:47			0	36287	0	0	0	29823	28420	167797	26535	1064466	45623	111097	0	0	8007	607608	0	0
2024-07-30 05:53:47			0	36289	0	0	0	29812	28420	167773	26316	1064439	45612	111093	0	0	8007	607525	0	0
2024-07-30 05:54:47			0	36284	0	0	0	29815	28420	167829	26760	1064466	45623	111094	0	0	8007	607732	0	0
2024-07-30 05:55:47			0	36280	0	0	0	29799	28410	167781	26611	1064511	45622	111088	0	0	8007	607933	0	0
2024-07-30 05:56:47			0	36280	0	0	0	29799	28430	167797	26722	1064430	45612	111088	0	0	8007	607863	0	0
2024-07-30 05:57:47			0	36276	0	0	0	29799	28410	167797	26680	1064457	45622	111088	0	0	8006	608098	0	0
2024-07-30 05:58:47			0	36273	0	0	0	29805	28410	167853	26772	1064367	45610	111090	0	0	8006	608223	0	0
2024-07-30 05:59:47			0	36279	0	0	0	29805	28410	167849	26578	1064403	45622	111090	0	0	8006	607974	0	0
2024-07-30 06:00:47			0	36265	0	0	0	29797	28410	167877	26937	1064403	45622	111087	0	0	8006	608554	0	0
2024-07-30 06:01:47			0	36259	0	0	0	29799	28410	167889	26868	1064403	45622	111088	0	0	8005	608802	0	0
2024-07-30 06:02:47			0	36261	0	0	0	29799	28420	167905	26967	1064439	45623	111088	0	0	8005	608684	0	0
2024-07-30 06:03:47			0	36267	0	0	0	29797	28410	167981	26925	1064457	45633	111087	0	0	8006	608471	0	0
2024-07-30 06:04:47			0	36268	0	0	0	29799	28410	168033	26745	1064376	45611	111088	0	0	8006	608429	0	0
2024-07-30 06:05:47			0	36262	0	0	0	29789	28410	167993	26844	1064457	45611	111084	0	0	8006	608678	0	0
2024-07-30 06:06:47			0	36260	0	0	0	29792	28430	167977	26935	1064376	45612	111085	0	0	8006	608690	0	0
2024-07-30 06:07:47			0	36258	0	0	0	29784	28400	168045	27086	1064358	45610	111082	0	0	8005	608879	0	0
2024-07-30 06:08:47			0	36264	0	0	0	29771	28410	167937	27088	1064340	45610	111077	0	0	8006	608595	0	0
2024-07-30 06:09:47			0	36265	0	0	0	29774	28400	167945	27173	1064331	45598	111078	0	0	8006	608589	0	0
2024-07-30 06:10:47			0	36257	0	0	0	29779	28400	168085	27007	1064331	45610	111080	0	0	8005	608920	0	0
2024-07-30 06:11:47			0	36271	0	0	0	29768	28400	168005	27067	1064214	45598	111076	0	0	8006	608340	0	0
2024-07-30 06:12:47			0	36258	0	0	0	29763	28380	168077	27171	1064304	45596	111074	0	0	8006	608949	0	0
2024-07-30 06:13:47			0	36267	0	0	0	29742	28380	168029	26890	1064241	45596	111066	0	0	8007	608576	0	0
2024-07-30 06:14:47			0	36274	0	0	0	29753	28390	167977	26856	1064205	45609	111070	0	0	8007	608251	0	0
2024-07-30 06:15:47			0	36275	0	0	0	29742	28390	167945	26901	1064205	45609	111066	0	0	8007	608210	0	0
2024-07-30 06:16:47			0	36279	0	0	0	29745	28370	168025	27105	1064206	45596	111067	0	0	8007	608115	0	0
2024-07-30 06:17:47			0	36264	0	0	0	29742	28380	167937	27116	1064188	45608	111066	0	0	8006	608700	0	0
2024-07-30 06:18:47			0	36277	0	0	0	29740	28370	167861	27062	1064089	45596	111065	0	0	8007	608198	0	0
2024-07-30 06:19:47			0	36264	0	0	0	29724	28370	167957	26739	1064116	45607	111059	0	0	8007	608736	0	0
2024-07-30 06:20:47			0	36278	0	0	0	29719	28360	167941	27008	1064125	45627	111057	0	0	8007	608191	0	0
2024-07-30 06:21:47			0	36288	0	0	0	29729	28360	167845	27019	1064098	45605	111061	0	0	8008	607778	0	0
2024-07-30 06:22:47			0	36294	0	0	0	29716	28350	167881	27041	1064062	45594	111056	0	0	8008	607565	0	0
2024-07-30 06:23:47			0	36287	0	0	0	29716	28350	167857	26876	1064035	45616	111056	0	0	8008	607854	0	0
2024-07-30 06:24:47			0	36295	0	0	0	29696	28340	167861	27088	1064008	45581	111048	0	0	8009	607559	0	0
2024-07-30 06:25:47			0	36306	0	0	0	29709	28340	167929	27185	1063990	45604	111053	0	0	8009	607104	0	0
2024-07-30 06:26:47			0	36305	0	0	0	29706	28340	167877	26922	1064017	45593	111052	0	0	8009	607145	0	0
2024-07-30 06:27:47			0	36311	0	0	0	29709	28330	167933	26788	1063972	45603	111053	0	0	8009	606932	0	0
2024-07-30 06:28:47			0	36305	0	0	0	29709	28330	167893	26705	1063963	45614	111053	0	0	8009	607180	0	0
2024-07-30 06:29:47			0	36311	0	0	0	29711	28330	167749	27242	1064026	45603	111054	0	0	8009	606932	0	0
2024-07-30 06:30:47			0	36316	0	0	0	29711	28340	167785	26701	1064008	45603	111054	0	0	8010	606690	0	0
2024-07-30 06:31:47			0	36328	0	0	0	29714	28330	167785	26922	1063972	45614	111055	0	0	8010	606230	0	0
2024-07-30 06:32:47			0	36320	0	0	0	29719	28320	167713	26831	1064062	45602	111057	0	0	8010	606595	0	0
2024-07-30 06:33:47			0	36356	0	0	0	29722	28320	167701	26741	1063981	45613	111058	0	0	8012	605110	0	0
2024-07-30 06:34:47			0	36348	0	0	0	29719	28340	167725	26849	1064008	45614	111057	0	0	8012	605370	0	0
2024-07-30 06:35:47			0	36362	0	0	0	29727	28330	167609	26942	1063990	45603	111060	0	0	8012	604827	0	0
2024-07-30 06:36:47			0	36353	0	0	0	29727	28330	167693	27024	1063990	45614	111060	0	0	8012	605198	0	0
2024-07-30 06:37:47			0	36370	0	0	0	29727	28330	167621	27012	1063990	45603	111060	0	0	8013	604498	0	0
2024-07-30 06:38:47			0	36377	0	0	0	29724	28320	167549	26715	1064035	45613	111059	0	0	8013	604244	0	0
2024-07-30 06:39:47			0	36376	0	0	0	29727	28340	167549	26741	1064008	45603	111060	0	0	8013	604216	0	0
2024-07-30 06:40:47			0	36393	0	0	0	29716	28330	167485	26722	1064017	45603	111056	0	0	8014	603550	0	0
2024-07-30 06:41:47			0	36403	0	0	0	29724	28330	167477	27020	1064053	45614	111059	0	0	8015	603139	0	0
2024-07-30 06:42:47			0	36413	0	0	0	29732	28330	167457	27000	1063999	45614	111062	0	0	8015	602728	0	0
2024-07-30 06:43:47			0	36405	0	0	0	29732	28330	167417	26878	1064053	45603	111062	0	0	8015	603057	0	0
2024-07-30 06:44:47			0	36418	0	0	0	29745	28330	167381	26866	1064026	45614	111067	0	0	8015	602522	0	0
2024-07-30 06:45:47			0	36432	0	0	0	29737	28330	167369	26994	1064107	45614	111064	0	0	8016	601947	0	0
2024-07-30 06:46:47			0	36432	0	0	0	29740	28340	167317	27052	1064035	45603	111065	0	0	8016	601912	0	0
2024-07-30 06:47:47			0	36438	0	0	0	29729	28340	167261	26915	1064008	45603	111061	0	0	8017	601665	0	0
2024-07-30 06:48:47			0	36440	0	0	0	29740	28340	167329	26870	1064017	45604	111065	0	0	8017	601583	0	0
2024-07-30 06:49:47			0	36449	0	0	0	29737	28340	167321	27225	1064143	45614	111064	0	0	8017	601214	0	0
2024-07-30 06:50:47			0	36465	0	0	0	29719	28330	167201	27107	1064071	45603	111057	0	0	8018	600592	0	0
2024-07-30 06:51:47			0	36462	0	0	0	29735	28330	167113	26949	1064026	45614	111063	0	0	8018	600715	0	0
2024-07-30 06:52:47			0	36484	0	0	0	29737	28330	167013	27176	1064134	45614	111064	0	0	8019	599813	0	0
2024-07-30 06:53:47			0	36475	0	0	0	29745	28330	166993	27066	1064080	45614	111067	0	0	8019	600182	0	0
2024-07-30 06:54:47			0	36477	0	0	0	29732	28330	167069	27104	1064026	45603	111062	0	0	8019	600100	0	0
2024-07-30 06:55:47			0	36499	0	0	0	29729	28330	166997	26899	1064071	45592	111061	0	0	8020	599198	0	0
2024-07-30 06:56:47			0	36485	0	0	0	29735	28340	166937	26937	1064089	45592	111063	0	0	8019	599737	0	0
2024-07-30 06:57:47			0	36494	0	0	0	29737	28340	166917	26965	1064098	45626	111064	0	0	8020	599368	0	0
2024-07-30 06:58:47			0	36497	0	0	0	29740	28330	166897	26866	1064080	45603	111065	0	0	8020	599280	0	0
2024-07-30 06:59:47			0	36484	0	0	0	29735	28330	166929	27126	1064026	45614	111063	0	0	8019	599813	0	0
2024-07-30 07:00:47			0	36479	0	0	0	29727	28330	166901	27161	1063990	45614	111060	0	0	8019	600018	0	0
2024-07-30 07:01:47			0	36512	0	0	0	29722	28340	166729	27111	1064062	45603	111058	0	0	8021	598631	0	0
2024-07-30 07:02:47			0	36496	0	0	0	29727	28340	166829	26982	1064008	45603	111060	0	0	8020	599286	0	0
2024-07-30 07:03:47			0	36493	0	0	0	29722	28330	167001	26982	1063999	45603	111058	0	0	8020	599444	0	0
2024-07-30 07:04:47			0	36495	0	0	0	29724	28330	166913	27189	1064134	45614	111059	0	0	8020	599362	0	0
2024-07-30 07:05:47			0	36487	0	0	0	29729	28340	166869	27033	1064035	45614	111061	0	0	8020	599655	0	0
2024-07-30 07:06:47			0	36511	0	0	0	29727	28330	166797	26953	1064026	45592	111060	0	0	8021	598707	0	0
2024-07-30 07:07:47			0	36504	0	0	0	29724	28330	166857	27204	1064080	45603	111059	0	0	8021	598993	0	0
2024-07-30 07:08:47			0	36496	0	0	0	29729	28330	166809	27156	1064044	45603	111061	0	0	8020	599321	0	0
2024-07-30 07:09:47			0	36500	0	0	0	29732	28340	166793	27024	1064008	45592	111062	0	0	8020	599123	0	0
2024-07-30 07:10:47			0	36523	0	0	0	29722	28330	166801	27102	1064053	45603	111058	0	0	8022	598216	0	0
2024-07-30 07:11:47			0	36509	0	0	0	29729	28330	166801	27324	1063990	45603	111061	0	0	8021	598789	0	0
2024-07-30 07:12:47			0	36531	0	0	0	29724	28330	166789	26804	1064053	45614	111059	0	0	8022	597889	0	0
2024-07-30 07:13:47			0	36540	0	0	0	29722	28340	166857	26698	1064062	45603	111058	0	0	8023	597486	0	0
2024-07-30 07:14:47			0	36536	0	0	0	29703	28330	166757	27078	1063972	45614	111051	0	0	8023	597684	0	0
2024-07-30 07:15:47			0	36534	0	0	0	29716	28330	166725	26911	1063963	45603	111056	0	0	8023	597766	0	0
2024-07-30 07:16:47			0	36519	0	0	0	29711	28330	166729	26785	1063909	45614	111054	0	0	8022	598379	0	0
2024-07-30 07:17:47			0	36549	0	0	0	29706	28330	166733	26759	1064017	45603	111052	0	0	8024	597153	0	0
2024-07-30 07:18:47			0	36540	0	0	0	29698	28330	166653	26958	1064044	45603	111049	0	0	8023	597521	0	0
2024-07-30 07:19:47			0	36562	0	0	0	29711	28320	166577	26890	1063981	45602	111054	0	0	8024	596656	0	0
2024-07-30 07:20:47			0	36558	0	0	0	29714	28320	166633	27027	1063954	45602	111055	0	0	8024	596820	0	0
2024-07-30 07:21:47			0	36585	0	0	0	29701	28320	166601	27105	1063981	45613	111050	0	0	8026	595718	0	0
2024-07-30 07:22:47			0	36617	0	0	0	29709	28310	166386	26991	1063990	45601	111053	0	0	8028	594447	0	0
2024-07-30 07:23:47			0	36638	0	0	0	29706	28320	166266	27111	1064026	45612	111052	0	0	8029	593558	0	0
2024-07-30 07:24:47			0	36659	0	0	0	29709	28320	166218	27183	1063954	45602	111053	0	0	8030	592704	0	0
2024-07-30 07:25:47			0	36674	0	0	0	29706	28330	166138	27128	1063963	45603	111052	0	0	8031	592060	0	0
2024-07-30 07:26:47			0	36689	0	0	0	29706	28320	166086	27213	1063972	45601	111052	0	0	8032	591485	0	0
2024-07-30 07:27:47			0	36720	0	0	0	29711	28320	166110	27092	1063981	45602	111054	0	0	8034	590228	0	0
2024-07-30 07:28:47			0	36720	0	0	0	29709	28310	165914	27033	1064017	45612	111053	0	0	8034	590262	0	0
2024-07-30 07:29:47			0	36713	0	0	0	29711	28320	165930	27161	1064026	45601	111054	0	0	8033	590512	0	0
2024-07-30 07:30:47			0	36743	0	0	0	29714	28320	165842	26840	1063981	45602	111055	0	0	8035	589296	0	0
2024-07-30 07:31:47			0	36752	0	0	0	29706	28320	165734	27223	1063981	45602	111052	0	0	8036	588932	0	0
2024-07-30 07:32:47			0	36766	0	0	0	29719	28320	165694	27197	1064008	45625	111057	0	0	8036	588365	0	0
2024-07-30 07:33:47			0	36760	0	0	0	29724	28320	165694	27005	1063981	45602	111059	0	0	8036	588608	0	0
2024-07-30 07:34:47			0	36783	0	0	0	29711	28330	165682	26934	1064044	45603	111054	0	0	8037	587644	0	0
2024-07-30 07:35:47			0	36799	0	0	0	29709	28320	165650	27038	1064026	45601	111053	0	0	8038	587032	0	0
2024-07-30 07:36:47			0	36794	0	0	0	29706	28320	165534	27147	1063945	45590	111052	0	0	8038	587234	0	0
2024-07-30 07:37:47			0	36808	0	0	0	29703	28310	165606	27164	1063955	45601	111051	0	0	8039	586702	0	0
2024-07-30 07:38:47			0	36800	0	0	0	29711	28330	165410	27095	1064017	45614	111054	0	0	8038	586957	0	0
2024-07-30 07:39:47			0	36813	0	0	0	29714	28320	165538	27050	1063999	45612	111055	0	0	8039	586466	0	0
2024-07-30 07:40:47			0	36848	0	0	0	29703	28320	165398	26706	1063954	45602	111051	0	0	8041	585055	0	0
2024-07-30 07:41:47			0	36846	0	0	0	29706	28310	165318	26899	1063963	45601	111052	0	0	8041	585169	0	0
2024-07-30 07:42:47			0	36866	0	0	0	29709	28310	165214	26819	1063981	45612	111053	0	0	8042	584364	0	0
2024-07-30 07:43:47			0	36896	0	0	0	29711	28310	165130	26993	1064017	45612	111054	0	0	8044	583157	0	0
2024-07-30 07:44:47			0	36903	0	0	0	29709	28330	165054	27055	1064017	45614	111053	0	0	8045	582808	0	0
2024-07-30 07:45:47			0	36932	0	0	0	29709	28330	164970	26965	1063963	45603	111053	0	0	8046	581643	0	0
2024-07-30 07:46:47			0	36983	0	0	0	29698	28310	164786	26923	1063955	45601	111049	0	0	8049	579666	0	0
2024-07-30 07:47:47			0	36990	0	0	0	29685	28310	164710	27225	1063955	45601	111044	0	0	8050	579386	0	0
2024-07-30 07:48:47			0	37020	0	0	0	29690	28310	164710	27343	1063936	45601	111046	0	0	8052	578186	0	0
2024-07-30 07:49:47			0	36997	0	0	0	29690	28310	164706	27050	1063963	45624	111046	0	0	8050	579105	0	0
2024-07-30 07:50:47			0	36986	0	0	0	29693	28310	164746	27022	1063883	45590	111047	0	0	8050	579546	0	0
2024-07-30 07:51:47			0	37001	0	0	0	29690	28310	164702	27339	1063874	45590	111046	0	0	8051	578945	0	0
2024-07-30 07:52:47			0	36969	0	0	0	29693	28320	164782	27156	1063945	45612	111047	0	0	8049	580193	0	0
2024-07-30 07:53:47			0	36956	0	0	0	29701	28310	164822	27085	1063963	45601	111050	0	0	8048	580748	0	0
2024-07-30 07:54:47			0	36991	0	0	0	29688	28300	164786	27123	1063892	45600	111045	0	0	8050	579379	0	0
2024-07-30 07:55:47			0	37032	0	0	0	29685	28300	164514	27552	1063892	45600	111044	0	0	8052	577739	0	0
2024-07-30 07:56:47			0	37086	0	0	0	29688	28300	164410	27083	1063883	45611	111045	0	0	8055	575585	0	0
2024-07-30 07:57:47			0	37056	0	0	0	29680	28300	164578	27013	1063856	45611	111042	0	0	8054	576781	0	0
2024-07-30 07:58:47			0	37005	0	0	0	29683	28310	164766	27436	1063901	45612	111043	0	0	8051	578785	0	0
2024-07-30 07:59:47			0	36928	0	0	0	29683	28300	164986	27495	1063919	45600	111043	0	0	8046	581905	0	0
2024-07-30 08:00:47			0	36864	0	0	0	29670	28300	165270	26828	1063838	45600	111038	0	0	8043	584478	0	0
2024-07-30 08:01:47			0	36780	0	0	0	29662	28300	165526	27282	1063829	45599	111035	0	0	8038	587867	0	0
2024-07-30 08:02:47			0	36703	0	0	0	29677	28280	166026	27448	1063829	45610	111041	0	0	8033	591054	0	0
2024-07-30 08:03:47			0	36619	0	0	0	29667	28280	166406	27206	1063829	45610	111037	0	0	8028	594469	0	0
2024-07-30 08:04:47			0	36535	0	0	0	29675	28290	166673	27097	1063811	45576	111040	0	0	8023	597863	0	0
2024-07-30 08:05:47			0	36466	0	0	0	29683	28280	167013	27182	1063910	45610	111043	0	0	8019	600724	0	0
2024-07-30 08:06:47			0	36446	0	0	0	29683	28290	167217	27464	1063874	45611	111043	0	0	8018	601511	0	0
2024-07-30 08:07:47			0	36409	0	0	0	29701	28290	167465	27310	1063901	45611	111050	0	0	8015	603031	0	0
2024-07-30 08:08:47			0	36376	0	0	0	29693	28290	167469	27393	1063928	45611	111047	0	0	8013	604390	0	0
2024-07-30 08:09:47			0	36380	0	0	0	29693	28280	167637	27235	1063883	45610	111047	0	0	8014	604260	0	0
2024-07-30 08:10:47			0	36346	0	0	0	29693	28300	167605	27696	1063856	45622	111047	0	0	8012	605592	0	0
2024-07-30 08:11:47			0	36369	0	0	0	29683	28300	167477	27390	1063919	45600	111043	0	0	8013	604644	0	0
2024-07-30 08:12:47			0	36352	0	0	0	29688	28290	167541	27440	1063928	45622	111045	0	0	8012	605379	0	0
2024-07-30 08:13:47			0	36346	0	0	0	29685	28280	167573	27197	1063874	45586	111044	0	0	8012	605662	0	0
2024-07-30 08:14:47			0	36344	0	0	0	29677	28280	167645	27261	1063820	45597	111041	0	0	8012	605744	0	0
2024-07-30 08:15:47			0	36342	0	0	0	29685	28280	167585	27268	1063883	45610	111044	0	0	8011	605827	0	0
2024-07-30 08:16:47			0	36362	0	0	0	29685	28300	167453	27097	1063883	45611	111044	0	0	8013	604932	0	0
2024-07-30 08:17:47			0	36371	0	0	0	29677	28290	167489	26979	1063838	45598	111041	0	0	8013	604596	0	0
2024-07-30 08:18:47			0	36406	0	0	0	29677	28290	167269	27128	1063820	45611	111041	0	0	8015	603155	0	0
2024-07-30 08:19:47			0	36405	0	0	0	29672	28280	167245	26968	1063775	45587	111039	0	0	8015	603231	0	0
2024-07-30 08:20:47			0	36421	0	0	0	29670	28280	167221	27194	1063820	45597	111038	0	0	8016	602573	0	0
2024-07-30 08:21:47			0	36417	0	0	0	29664	28280	167273	27123	1063820	45597	111036	0	0	8016	602737	0	0
2024-07-30 08:22:47			0	36389	0	0	0	29670	28280	167269	27232	1063820	45609	111038	0	0	8015	603889	0	0
2024-07-30 08:23:47			0	36368	0	0	0	29662	28270	167369	27008	1063757	45608	111035	0	0	8013	604790	0	0
2024-07-30 08:24:47			0	36356	0	0	0	29664	28270	167453	27128	1063775	45608	111036	0	0	8013	605284	0	0
2024-07-30 08:25:47			0	36335	0	0	0	29670	28280	167609	26979	1063766	45609	111038	0	0	8011	606116	0	0
2024-07-30 08:26:47			0	36308	0	0	0	29680	28270	167701	26913	1063838	45596	111042	0	0	8009	607267	0	0
2024-07-30 08:27:47			0	36289	0	0	0	29670	28270	167845	27166	1063838	45596	111038	0	0	8009	608052	0	0
2024-07-30 08:28:47			0	36267	0	0	0	29680	28280	167957	26764	1063874	45597	111042	0	0	8007	608928	0	0
2024-07-30 08:29:47			0	36273	0	0	0	29675	28280	168093	27211	1063847	45609	111040	0	0	8008	608680	0	0
2024-07-30 08:30:47			0	36249	0	0	0	29683	28280	168065	26856	1063847	45609	111043	0	0	8006	609674	0	0
2024-07-30 08:31:47			0	36241	0	0	0	29688	28270	168125	26899	1063838	45608	111045	0	0	8005	610041	0	0
2024-07-30 08:32:47			0	36219	0	0	0	29696	28270	168133	27135	1063784	45596	111048	0	0	8004	610954	0	0
2024-07-30 08:33:47			0	36227	0	0	0	29696	28280	168249	26665	1063874	45597	111048	0	0	8004	610586	0	0
2024-07-30 08:34:47			0	36208	0	0	0	29696	28290	168237	27249	1063865	45621	111048	0	0	8003	611340	0	0
2024-07-30 08:35:47			0	36200	0	0	0	29690	28280	168277	27076	1063874	45597	111046	0	0	8003	611708	0	0
2024-07-30 08:36:47			0	36207	0	0	0	29693	28270	168421	27079	1063910	45619	111047	0	0	8003	611452	0	0
2024-07-30 08:37:47			0	36206	0	0	0	29693	28290	168301	26863	1063919	45598	111047	0	0	8003	611423	0	0
2024-07-30 08:38:47			0	36199	0	0	0	29685	28280	168341	27267	1063874	45609	111044	0	0	8003	611749	0	0
2024-07-30 08:39:47			0	36200	0	0	0	29688	28290	168213	27093	1063901	45599	111045	0	0	8003	611672	0	0
2024-07-30 08:40:47			0	36221	0	0	0	29680	28280	168233	26946	1063847	45609	111042	0	0	8004	610835	0	0
2024-07-30 08:41:47			0	36230	0	0	0	29677	28300	168209	27164	1063910	45599	111041	0	0	8005	610392	0	0
2024-07-30 08:42:47			0	36218	0	0	0	29683	28280	168137	27027	1063856	45610	111043	0	0	8004	610960	0	0
2024-07-30 08:43:47			0	36228	0	0	0	29657	28280	168125	26722	1063793	45586	111033	0	0	8005	610545	0	0
2024-07-30 08:44:47			0	36245	0	0	0	29638	28280	168109	27138	1063739	45597	111026	0	0	8006	609840	0	0
2024-07-30 08:45:47			0	36250	0	0	0	29641	28270	168113	26996	1063721	45585	111027	0	0	8007	609668	0	0
2024-07-30 08:46:47			0	36274	0	0	0	29654	28280	167977	26975	1063739	45597	111032	0	0	8008	608638	0	0
2024-07-30 08:47:47			0	36288	0	0	0	29641	28260	167905	26783	1063676	45584	111027	0	0	8009	608129	0	0
2024-07-30 08:48:47			0	36302	0	0	0	29646	28260	167837	26868	1063739	45585	111029	0	0	8010	607550	0	0
2024-07-30 08:49:47			0	36312	0	0	0	29646	28260	167777	27059	1063712	45596	111029	0	0	8010	607136	0	0
2024-07-30 08:50:47			0	36324	0	0	0	29649	28260	167681	26726	1063712	45596	111030	0	0	8011	606640	0	0
2024-07-30 08:51:47			0	36334	0	0	0	29641	28260	167669	26764	1063703	45607	111027	0	0	8012	606227	0	0
2024-07-30 08:52:47			0	36337	0	0	0	29638	28260	167717	26882	1063730	45595	111026	0	0	8012	606103	0	0
2024-07-30 08:53:47			0	36348	0	0	0	29646	28260	167649	27053	1063676	45595	111029	0	0	8012	605650	0	0
2024-07-30 08:54:47			0	36361	0	0	0	29651	28250	167609	27043	1063640	45606	111031	0	0	8013	605148	0	0
2024-07-30 08:55:47			0	36358	0	0	0	29649	28260	167525	26859	1063649	45618	111030	0	0	8013	605237	0	0
2024-07-30 08:56:47			0	36367	0	0	0	29649	28250	167573	26974	1063640	45617	111030	0	0	8013	604901	0	0
2024-07-30 08:57:47			0	36382	0	0	0	29654	28260	167441	27150	1063703	45618	111032	0	0	8014	604248	0	0
2024-07-30 08:58:47			0	36390	0	0	0	29657	28240	167401	27029	1063757	45606	111033	0	0	8015	603988	0	0
2024-07-30 08:59:47			0	36387	0	0	0	29675	28260	167397	26909	1063757	45607	111040	0	0	8014	604041	0	0
2024-07-30 09:00:47			0	36399	0	0	0	29675	28260	167521	26902	1063739	45608	111040	0	0	8015	603547	0	0
2024-07-30 09:01:47			0	36429	0	0	0	29696	28260	167253	26788	1063819	45619	111048	0	0	8016	602313	0	0
2024-07-30 09:02:47			0	36418	0	0	0	29688	28260	167245	26974	1063837	45618	111045	0	0	8016	602766	0	0
2024-07-30 09:03:47			0	36455	0	0	0	29688	28270	167173	27060	1063865	45596	111045	0	0	8018	601210	0	0
2024-07-30 09:04:47			0	36457	0	0	0	29698	28280	167149	26979	1063928	45609	111049	0	0	8018	601094	0	0
2024-07-30 09:05:47			0	36465	0	0	0	29696	28270	167073	26942	1063892	45596	111048	0	0	8019	600800	0	0
2024-07-30 09:06:47			0	36474	0	0	0	29693	28270	167065	27024	1063856	45596	111047	0	0	8019	600431	0	0
2024-07-30 09:07:47			0	36490	0	0	0	29701	28290	167033	27043	1063928	45622	111050	0	0	8020	599705	0	0
2024-07-30 09:08:47			0	36479	0	0	0	29693	28280	166905	26844	1063928	45620	111047	0	0	8020	600191	0	0
2024-07-30 09:09:47			0	36498	0	0	0	29709	28300	166917	27310	1063910	45622	111053	0	0	8020	599343	0	0
2024-07-30 09:10:47			0	36492	0	0	0	29711	28290	166897	26771	1063973	45610	111054	0	0	8020	599623	0	0
2024-07-30 09:11:47			0	36505	0	0	0	29714	28300	166917	26819	1063991	45622	111055	0	0	8021	599056	0	0
2024-07-30 09:12:47			0	36517	0	0	0	29711	28300	166837	27121	1063964	45611	111054	0	0	8022	598565	0	0
2024-07-30 09:13:47			0	36524	0	0	0	29711	28300	166813	26882	1063999	45612	111054	0	0	8022	598279	0	0
2024-07-30 09:14:47			0	36525	0	0	0	29711	28300	166705	26837	1063999	45623	111054	0	0	8022	598238	0	0
2024-07-30 09:15:47			0	36546	0	0	0	29719	28300	166725	26989	1064026	45612	111057	0	0	8023	597379	0	0
2024-07-30 09:16:47			0	36551	0	0	0	29719	28300	166653	26970	1063999	45623	111057	0	0	8023	597175	0	0
2024-07-30 09:17:47			0	36527	0	0	0	29727	28300	166709	26923	1064053	45612	111060	0	0	8022	598156	0	0
2024-07-30 09:18:47			0	36539	0	0	0	29729	28310	166669	26998	1064017	45624	111061	0	0	8023	597630	0	0
2024-07-30 09:19:47			0	36531	0	0	0	29729	28310	166729	26712	1064044	45612	111061	0	0	8022	597958	0	0
2024-07-30 09:20:47			0	36552	0	0	0	29727	28320	166725	26809	1064080	45624	111060	0	0	8023	597065	0	0
2024-07-30 09:21:47			0	36543	0	0	0	29735	28320	166641	27012	1064143	45625	111063	0	0	8023	597433	0	0
2024-07-30 09:22:47			0	36566	0	0	0	29732	28320	166689	27046	1064026	45612	111062	0	0	8024	596493	0	0
2024-07-30 09:23:47			0	36546	0	0	0	29729	28320	166637	26649	1064170	45625	111061	0	0	8023	597310	0	0
2024-07-30 09:24:47			0	36542	0	0	0	29737	28330	166717	27039	1064080	45614	111064	0	0	8023	597439	0	0
2024-07-30 09:25:47			0	36549	0	0	0	29737	28320	166689	26911	1064116	45625	111064	0	0	8023	597187	0	0
2024-07-30 09:26:47			0	36541	0	0	0	29735	28330	166637	27137	1064161	45614	111063	0	0	8023	597480	0	0
2024-07-30 09:27:47			0	36549	0	0	0	29748	28340	166777	27138	1064197	45614	111068	0	0	8023	597118	0	0
2024-07-30 09:28:47			0	36555	0	0	0	29745	28330	166693	27157	1064107	45625	111067	0	0	8023	596908	0	0
2024-07-30 09:29:47			0	36565	0	0	0	29753	28330	166513	27017	1064188	45603	111070	0	0	8024	596499	0	0
2024-07-30 09:30:47			0	36554	0	0	0	29755	28340	166653	27249	1064206	45615	111071	0	0	8023	596914	0	0
2024-07-30 09:31:47			0	36568	0	0	0	29755	28340	166573	27024	1064233	45604	111071	0	0	8024	596342	0	0
2024-07-30 09:32:47			0	36573	0	0	0	29748	28350	166621	26819	1064224	45605	111068	0	0	8025	596104	0	0
2024-07-30 09:33:47			0	36570	0	0	0	29755	28350	166597	27043	1064215	45616	111071	0	0	8024	596226	0	0
2024-07-30 09:34:47			0	36563	0	0	0	29763	28350	166489	26906	1064224	45605	111074	0	0	8024	596512	0	0
2024-07-30 09:35:47			0	36583	0	0	0	29755	28340	166481	26934	1064179	45615	111071	0	0	8025	595730	0	0
2024-07-30 09:36:47			0	36586	0	0	0	29763	28350	166445	26901	1064251	45616	111074	0	0	8025	595574	0	0
2024-07-30 09:37:47			0	36600	0	0	0	29774	28350	166446	27282	1064242	45605	111078	0	0	8026	595003	0	0
2024-07-30 09:38:47			0	36588	0	0	0	29763	28360	166438	27005	1064233	45627	111074	0	0	8025	595457	0	0
2024-07-30 09:39:47			0	36614	0	0	0	29768	28350	166382	26890	1064304	45616	111076	0	0	8027	594432	0	0
2024-07-30 09:40:47			0	36621	0	0	0	29758	28360	166386	27053	1064322	45617	111072	0	0	8027	594113	0	0
2024-07-30 09:41:47			0	36643	0	0	0	29774	28360	166266	27033	1064260	45616	111078	0	0	8028	593218	0	0
2024-07-30 09:42:47			0	36642	0	0	0	29768	28360	166258	26998	1064260	45605	111076	0	0	8028	593258	0	0
2024-07-30 09:43:47			0	36658	0	0	0	29768	28350	166110	26823	1064304	45605	111076	0	0	8029	592642	0	0
2024-07-30 09:44:47			0	36667	0	0	0	29766	28360	166146	26828	1064295	45639	111075	0	0	8030	592242	0	0
2024-07-30 09:45:47			0	36657	0	0	0	29768	28360	166194	26916	1064313	45616	111076	0	0	8029	592648	0	0
2024-07-30 09:46:47			0	36665	0	0	0	29763	28370	166042	26998	1064331	45640	111074	0	0	8030	592289	0	0
2024-07-30 09:47:47			0	36687	0	0	0	29776	28370	165990	26994	1064313	45630	111079	0	0	8031	591396	0	0
2024-07-30 09:48:47			0	36680	0	0	0	29784	28370	165926	26993	1064421	45619	111082	0	0	8030	591680	0	0
2024-07-30 09:49:47			0	36697	0	0	0	29779	28370	165886	27171	1064385	45618	111080	0	0	8031	590990	0	0
2024-07-30 09:50:47			0	36713	0	0	0	29779	28370	165998	27152	1064358	45618	111080	0	0	8032	590341	0	0
2024-07-30 09:51:47			0	36702	0	0	0	29781	28370	165910	27112	1064367	45641	111081	0	0	8032	590787	0	0
2024-07-30 09:52:47			0	36714	0	0	0	29786	28380	165858	26800	1064412	45630	111083	0	0	8032	590266	0	0
2024-07-30 09:53:47			0	36718	0	0	0	29797	28380	165970	27069	1064403	45619	111087	0	0	8032	590104	0	0
2024-07-30 09:54:47			0	36724	0	0	0	29792	28380	165942	26873	1064439	45619	111085	0	0	8033	589861	0	0
2024-07-30 09:55:47			0	36719	0	0	0	29799	28380	165854	27116	1064376	45630	111088	0	0	8032	590064	0	0
2024-07-30 09:56:47			0	36737	0	0	0	29792	28390	165818	26993	1064475	45631	111085	0	0	8034	589301	0	0
2024-07-30 09:57:47			0	36742	0	0	0	29807	28390	165686	27027	1064475	45620	111091	0	0	8034	589098	0	0
2024-07-30 09:58:47			0	36756	0	0	0	29807	28400	165626	27107	1064484	45632	111091	0	0	8035	588498	0	0
2024-07-30 09:59:47			0	36758	0	0	0	29820	28400	165642	26960	1064547	45632	111096	0	0	8034	588417	0	0
2024-07-30 10:00:47			0	36774	0	0	0	29820	28400	165610	27182	1064520	45621	111096	0	0	8035	587770	0	0
2024-07-30 10:01:47			0	36758	0	0	0	29823	28400	165694	27274	1064565	45632	111097	0	0	8034	588417	0	0
2024-07-30 10:02:47			0	36760	0	0	0	29833	28410	165630	27067	1064583	45632	111101	0	0	8034	588302	0	0
2024-07-30 10:03:47			0	36788	0	0	0	29838	28410	165658	26762	1064646	45633	111103	0	0	8036	587171	0	0
2024-07-30 10:04:47			0	36782	0	0	0	29833	28420	165522	27033	1064655	45634	111101	0	0	8036	587379	0	0
2024-07-30 10:05:47			0	36800	0	0	0	29836	28430	165458	26960	1064700	45623	111102	0	0	8037	586618	0	0
2024-07-30 10:06:47			0	36796	0	0	0	29833	28420	165398	26795	1064610	45634	111101	0	0	8037	586813	0	0
2024-07-30 10:07:47			0	36807	0	0	0	29841	28430	165430	26741	1064681	45613	111104	0	0	8037	586336	0	0
2024-07-30 10:08:47			0	36814	0	0	0	29838	28430	165458	26928	1064619	45612	111103	0	0	8038	586053	0	0
2024-07-30 10:09:47			0	36807	0	0	0	29836	28430	165362	26837	1064628	45624	111102	0	0	8037	586336	0	0
2024-07-30 10:10:47			0	36816	0	0	0	29831	28430	165346	26923	1064619	45623	111100	0	0	8038	585973	0	0
2024-07-30 10:11:47			0	36823	0	0	0	29828	28430	165258	26771	1064628	45613	111099	0	0	8038	585690	0	0
2024-07-30 10:12:47			0	36829	0	0	0	29818	28430	165398	26575	1064655	45613	111095	0	0	8039	585449	0	0
2024-07-30 10:13:47			0	36837	0	0	0	29825	28430	165286	26753	1064673	45623	111098	0	0	8039	585126	0	0
2024-07-30 10:14:47			0	36846	0	0	0	29833	28420	165306	27069	1064637	45612	111101	0	0	8040	584797	0	0
2024-07-30 10:15:47			0	36827	0	0	0	29836	28440	165354	26817	1064690	45625	111102	0	0	8038	585495	0	0
2024-07-30 10:16:47			0	36834	0	0	0	29849	28440	165258	26928	1064699	45637	111107	0	0	8039	585213	0	0
2024-07-30 10:17:47			0	36843	0	0	0	29854	28440	165282	26778	1064690	45636	111109	0	0	8039	584851	0	0
2024-07-30 10:18:47			0	36839	0	0	0	29854	28440	165274	26807	1064726	45625	111109	0	0	8039	585012	0	0
2024-07-30 10:19:47			0	36861	0	0	0	29864	28460	165258	26691	1064807	45626	111113	0	0	8040	584058	0	0
2024-07-30 10:20:47			0	36844	0	0	0	29872	28450	165110	26897	1064762	45637	111116	0	0	8039	584776	0	0
2024-07-30 10:21:47			0	36874	0	0	0	29877	28460	165186	26902	1064807	45638	111118	0	0	8041	583535	0	0
2024-07-30 10:22:47			0	36857	0	0	0	29885	28460	165054	26755	1064870	45627	111121	0	0	8039	584219	0	0
2024-07-30 10:23:47			0	36880	0	0	0	29903	28470	164918	27022	1064879	45639	111128	0	0	8041	583260	0	0
2024-07-30 10:24:47			0	36881	0	0	0	29909	28460	165018	27111	1064951	45627	111130	0	0	8040	583254	0	0
2024-07-30 10:25:47			0	36888	0	0	0	29880	28480	165002	26915	1064951	45628	111119	0	0	8041	582905	0	0
2024-07-30 10:26:47			0	36899	0	0	0	29875	28470	164946	26939	1064915	45627	111117	0	0	8042	582497	0	0
2024-07-30 10:27:47			0	36897	0	0	0	29877	28470	164918	27203	1064852	45617	111118	0	0	8042	582577	0	0
2024-07-30 10:28:47			0	36889	0	0	0	29870	28470	164922	26868	1064915	45627	111115	0	0	8042	582899	0	0
2024-07-30 10:29:47			0	36894	0	0	0	29867	28480	164938	26870	1064978	45628	111114	0	0	8042	582664	0	0
2024-07-30 10:30:47			0	36910	0	0	0	29883	28470	164926	27059	1064888	45639	111120	0	0	8043	582055	0	0
2024-07-30 10:31:47			0	36887	0	0	0	29880	28470	165054	27168	1064915	45627	111119	0	0	8041	582979	0	0
2024-07-30 10:32:47			0	36894	0	0	0	29890	28470	164882	26975	1064942	45617	111123	0	0	8042	582698	0	0
2024-07-30 10:33:47			0	36900	0	0	0	29898	28480	164986	26859	1064870	45618	111126	0	0	8042	582423	0	0
2024-07-30 10:34:47			0	36890	0	0	0	29896	28480	164902	26953	1065014	45629	111125	0	0	8041	582825	0	0
2024-07-30 10:35:47			0	36885	0	0	0	29903	28480	164882	26916	1064987	45629	111128	0	0	8041	583026	0	0
2024-07-30 10:36:47			0	36904	0	0	0	29911	28480	164890	26856	1064978	45640	111131	0	0	8042	582263	0	0
2024-07-30 10:37:47			0	36891	0	0	0	29906	28490	164814	26909	1065004	45629	111129	0	0	8041	582751	0	0
2024-07-30 10:38:47			0	36908	0	0	0	29914	28490	164850	26679	1065004	45629	111132	0	0	8042	582068	0	0
2024-07-30 10:39:47			0	36900	0	0	0	29922	28480	164874	26824	1065067	45629	111135	0	0	8041	582423	0	0
2024-07-30 10:40:47			0	36899	0	0	0	29932	28500	164774	26646	1065049	45642	111139	0	0	8041	582396	0	0
2024-07-30 10:41:47			0	36917	0	0	0	29929	28510	164870	26757	1065139	45643	111138	0	0	8043	581640	0	0
2024-07-30 10:42:47			0	36907	0	0	0	29935	28500	164834	26850	1065130	45631	111140	0	0	8042	582075	0	0
2024-07-30 10:43:47			0	36912	0	0	0	29935	28510	164914	27003	1065139	45655	111140	0	0	8042	581840	0	0
2024-07-30 10:44:47			0	36914	0	0	0	29932	28520	164830	26930	1065211	45643	111139	0	0	8042	581727	0	0
2024-07-30 10:45:47			0	36915	0	0	0	29932	28520	164834	27005	1065220	45633	111139	0	0	8042	581686	0	0
2024-07-30 10:46:47			0	36901	0	0	0	29955	28520	164834	26833	1065247	45633	111148	0	0	8041	582248	0	0
2024-07-30 10:47:47			0	36917	0	0	0	29955	28530	164858	27260	1065292	45657	111148	0	0	8042	581573	0	0
2024-07-30 10:48:47			0	36901	0	0	0	29955	28530	164886	27005	1065310	45634	111148	0	0	8041	582215	0	0
2024-07-30 10:49:47			0	36921	0	0	0	29950	28530	164918	26965	1065292	45645	111146	0	0	8042	581412	0	0
2024-07-30 10:50:47			0	36911	0	0	0	29945	28520	164822	26724	1065247	45633	111144	0	0	8042	581847	0	0
2024-07-30 10:51:47			0	36927	0	0	0	29950	28540	164850	26670	1065310	45635	111146	0	0	8043	581138	0	0
2024-07-30 10:52:47			0	36896	0	0	0	29948	28540	164926	26984	1065301	45657	111145	0	0	8041	582382	0	0
2024-07-30 10:53:47			0	36922	0	0	0	29966	28540	164918	26701	1065328	45634	111152	0	0	8042	581338	0	0
2024-07-30 10:54:47			0	36903	0	0	0	29963	28540	164846	26552	1065337	45625	111151	0	0	8041	582101	0	0
2024-07-30 10:55:47			0	36903	0	0	0	29961	28540	164918	26778	1065337	45635	111150	0	0	8041	582101	0	0
2024-07-30 10:56:47			0	36910	0	0	0	29968	28540	165030	26923	1065364	45625	111153	0	0	8042	581820	0	0
2024-07-30 10:57:47			0	36907	0	0	0	29961	28550	164902	26847	1065346	45636	111150	0	0	8042	581906	0	0
2024-07-30 10:58:47			0	36903	0	0	0	29973	28560	164790	26857	1065364	45636	111155	0	0	8041	582033	0	0
2024-07-30 10:59:47			0	36916	0	0	0	29971	28540	164810	26779	1065364	45625	111154	0	0	8042	581579	0	0
2024-07-30 11:00:47			0	36909	0	0	0	29971	28560	164826	26972	1065427	45637	111154	0	0	8042	581793	0	0
2024-07-30 11:01:47			0	36898	0	0	0	29976	28550	164978	26757	1065463	45636	111156	0	0	8041	582268	0	0
2024-07-30 11:02:47			0	36925	0	0	0	29989	28560	164810	27100	1065391	45636	111161	0	0	8042	581151	0	0
2024-07-30 11:03:47			0	36901	0	0	0	29981	28560	164938	26979	1065454	45637	111158	0	0	8041	582114	0	0
2024-07-30 11:04:47			0	36899	0	0	0	29992	28550	164870	26712	1065355	45647	111162	0	0	8041	582228	0	0
2024-07-30 11:05:47			0	36907	0	0	0	29986	28570	164930	26863	1065436	45649	111160	0	0	8041	581839	0	0
2024-07-30 11:06:47			0	36888	0	0	0	29992	28570	164918	26743	1065463	45649	111162	0	0	8040	582602	0	0
2024-07-30 11:07:47			0	36909	0	0	0	29989	28570	164834	27128	1065463	45649	111161	0	0	8041	581759	0	0
2024-07-30 11:08:47			0	36891	0	0	0	29984	28570	164942	26935	1065552	45627	111159	0	0	8040	582481	0	0
2024-07-30 11:09:47			0	36894	0	0	0	29984	28570	164998	26748	1065418	45638	111159	0	0	8041	582361	0	0
2024-07-30 11:10:47			0	36896	0	0	0	29986	28560	164882	26958	1065481	45648	111160	0	0	8041	582314	0	0
2024-07-30 11:11:47			0	36876	0	0	0	29979	28570	164994	27142	1065445	45638	111157	0	0	8040	583084	0	0
2024-07-30 11:12:47			0	36873	0	0	0	29979	28570	164970	26949	1065498	45638	111157	0	0	8039	583204	0	0
2024-07-30 11:13:47			0	36873	0	0	0	29981	28580	164982	27064	1065507	45627	111158	0	0	8039	583171	0	0
2024-07-30 11:14:47			0	36861	0	0	0	29986	28570	165022	26753	1065498	45627	111160	0	0	8039	583687	0	0
2024-07-30 11:15:47			0	36853	0	0	0	29992	28570	165094	26864	1065498	45627	111162	0	0	8038	584009	0	0
2024-07-30 11:16:47			0	36842	0	0	0	29999	28580	165082	26653	1065534	45639	111165	0	0	8037	584417	0	0
2024-07-30 11:17:47			0	36800	0	0	0	30005	28590	165178	27102	1065606	45640	111167	0	0	8035	586075	0	0
2024-07-30 11:18:47			0	36785	0	0	0	30010	28580	165386	26930	1065516	45650	111169	0	0	8034	586714	0	0
2024-07-30 11:19:47			0	36775	0	0	0	30020	28580	165330	26838	1065570	45639	111173	0	0	8033	587118	0	0
2024-07-30 11:20:47			0	36761	0	0	0	30015	28580	165426	26720	1065597	45639	111171	0	0	8032	587683	0	0
2024-07-30 11:21:47			0	36747	0	0	0	30023	28590	165550	26774	1065687	45640	111174	0	0	8031	588215	0	0
2024-07-30 11:22:47			0	36742	0	0	0	30025	28600	165650	26764	1065678	45641	111175	0	0	8031	588383	0	0
2024-07-30 11:23:47			0	36733	0	0	0	30023	28600	165626	27274	1065651	45652	111174	0	0	8031	588747	0	0
2024-07-30 11:24:47			0	36711	0	0	0	30005	28600	165694	26840	1065633	45652	111167	0	0	8030	589637	0	0
2024-07-30 11:25:47			0	36686	0	0	0	30012	28600	165742	27046	1065597	45641	111170	0	0	8028	590650	0	0
2024-07-30 11:26:47			0	36688	0	0	0	30007	28600	165866	27173	1065651	45652	111168	0	0	8028	590569	0	0
2024-07-30 11:27:47			0	36660	0	0	0	30018	28600	165886	27180	1065624	45641	111172	0	0	8026	591704	0	0
2024-07-30 11:28:47			0	36639	0	0	0	30033	28610	165994	26811	1065669	45653	111178	0	0	8025	592523	0	0
2024-07-30 11:29:47			0	36608	0	0	0	30033	28600	166054	26889	1065714	45652	111178	0	0	8023	593817	0	0
2024-07-30 11:30:47			0	36602	0	0	0	30038	28610	166246	27145	1065669	45642	111180	0	0	8023	594027	0	0
2024-07-30 11:31:47			0	36556	0	0	0	30025	28600	166229	27121	1065687	45652	111175	0	0	8020	595936	0	0
2024-07-30 11:32:47			0	36540	0	0	0	30046	28600	166325	27154	1065660	45652	111183	0	0	8019	596588	0	0
2024-07-30 11:33:47			0	36532	0	0	0	30038	28610	166381	27038	1065705	45654	111180	0	0	8018	596880	0	0
2024-07-30 11:34:47			0	36511	0	0	0	30041	28610	166589	27202	1065696	45653	111181	0	0	8017	597738	0	0
2024-07-30 11:35:47			0	36492	0	0	0	30038	28610	166621	26915	1065705	45631	111180	0	0	8016	598515	0	0
2024-07-30 11:36:47			0	36470	0	0	0	30025	28630	166721	27098	1065759	45632	111175	0	0	8015	599346	0	0
2024-07-30 11:37:47			0	36446	0	0	0	30044	28620	166733	26993	1065768	45643	111182	0	0	8013	600364	0	0
2024-07-30 11:38:47			0	36424	0	0	0	30044	28620	166877	26864	1065831	45631	111182	0	0	8012	601266	0	0
2024-07-30 11:39:47			0	36407	0	0	0	30046	28630	166949	26731	1065795	45633	111183	0	0	8011	601929	0	0
2024-07-30 11:40:47			0	36380	0	0	0	30049	28620	167221	27055	1065750	45643	111184	0	0	8009	603073	0	0
2024-07-30 11:41:47			0	36371	0	0	0	30041	28620	167165	26642	1065804	45643	111181	0	0	8009	603443	0	0
2024-07-30 11:42:47			0	36353	0	0	0	30041	28630	167273	26989	1065822	45656	111181	0	0	8008	604149	0	0
2024-07-30 11:43:47			0	36320	0	0	0	30041	28630	167357	27078	1065795	45645	111181	0	0	8006	605509	0	0
2024-07-30 11:44:47			0	36320	0	0	0	30054	28640	167477	27038	1065839	45657	111186	0	0	8006	605474	0	0
2024-07-30 11:45:47			0	36316	0	0	0	30059	28630	167489	27072	1065822	45667	111188	0	0	8005	605674	0	0
2024-07-30 11:46:47			0	36305	0	0	0	30070	28640	167401	26894	1065893	45646	111192	0	0	8005	606092	0	0
2024-07-30 11:47:47			0	36284	0	0	0	30070	28650	167441	27008	1065930	45646	111192	0	0	8003	606924	0	0
2024-07-30 11:48:47			0	36286	0	0	0	30080	28640	167505	27163	1065920	45657	111196	0	0	8003	606877	0	0
2024-07-30 11:49:47			0	36286	0	0	0	30075	28650	167597	26906	1065957	45668	111194	0	0	8003	606841	0	0
2024-07-30 11:50:47			0	36287	0	0	0	30067	28640	167557	26814	1065920	45646	111191	0	0	8004	606835	0	0
2024-07-30 11:51:47			0	36281	0	0	0	30083	28650	167621	26991	1065939	45658	111197	0	0	8003	607048	0	0
2024-07-30 11:52:47			0	36254	0	0	0	30080	28680	167693	27029	1065974	45649	111196	0	0	8002	608058	0	0
2024-07-30 11:53:47			0	36254	0	0	0	30083	28660	167621	27138	1065975	45647	111197	0	0	8001	608129	0	0
2024-07-30 11:54:47			0	36267	0	0	0	30109	28660	167701	27086	1066010	45648	111207	0	0	8002	607591	0	0
2024-07-30 11:55:47			0	36264	0	0	0	30101	28680	167621	27126	1066082	45660	111204	0	0	8002	607645	0	0
2024-07-30 11:56:47			0	36257	0	0	0	30109	28690	167613	27258	1066100	45650	111207	0	0	8001	607899	0	0
2024-07-30 11:57:47			0	36243	0	0	0	30114	28690	167605	27112	1066136	45673	111209	0	0	8000	608478	0	0
2024-07-30 11:58:47			0	36263	0	0	0	30119	28690	167641	26804	1066136	45651	111211	0	0	8001	607651	0	0
2024-07-30 11:59:47			0	36262	0	0	0	30135	28700	167589	27112	1066226	45662	111217	0	0	8001	607657	0	0
2024-07-30 12:00:47			0	36286	0	0	0	30140	28690	167577	26960	1066244	45673	111219	0	0	8002	606701	0	0
2024-07-30 12:01:47			0	36307	0	0	0	30116	28710	167397	26916	1066199	45674	111210	0	0	8004	605764	0	0
2024-07-30 12:02:47			0	36309	0	0	0	30103	28710	167405	27173	1066190	45663	111205	0	0	8005	605682	0	0
2024-07-30 12:03:47			0	36309	0	0	0	30129	28720	167461	27013	1066208	45641	111215	0	0	8004	605647	0	0
2024-07-30 12:04:47			0	36272	0	0	0	30137	28710	167513	26887	1066280	45674	111218	0	0	8002	607209	0	0
2024-07-30 12:05:47			0	36270	0	0	0	30132	28720	167521	26837	1066262	45653	111216	0	0	8002	607256	0	0
2024-07-30 12:06:47			0	36270	0	0	0	30158	28720	167677	26700	1066289	45641	111226	0	0	8001	607256	0	0
2024-07-30 12:07:47			0	36265	0	0	0	30163	28720	167625	26816	1066343	45664	111228	0	0	8001	607463	0	0
2024-07-30 12:08:47			0	36269	0	0	0	30168	28730	167717	27317	1066361	45654	111230	0	0	8001	607262	0	0
2024-07-30 12:09:47			0	36281	0	0	0	30161	28740	167549	27069	1066405	45655	111227	0	0	8002	606732	0	0
2024-07-30 12:10:47			0	36300	0	0	0	30163	28750	167469	27121	1066423	45656	111228	0	0	8003	605912	0	0
2024-07-30 12:11:47			0	36300	0	0	0	30171	28750	167461	27045	1066432	45667	111231	0	0	8003	605912	0	0
2024-07-30 12:12:47			0	36327	0	0	0	30168	28750	167553	26918	1066423	45666	111230	0	0	8005	604800	0	0
2024-07-30 12:13:47			0	36327	0	0	0	30163	28750	167505	27050	1066396	45644	111228	0	0	8005	604800	0	0
2024-07-30 12:14:47			0	36325	0	0	0	30174	28760	167377	27078	1066441	45658	111232	0	0	8005	604847	0	0
2024-07-30 12:15:47			0	36331	0	0	0	30163	28760	167417	27116	1066450	45658	111228	0	0	8005	604600	0	0
2024-07-30 12:16:47			0	36334	0	0	0	30174	28750	167361	26939	1066432	45657	111232	0	0	8005	604511	0	0
2024-07-30 12:17:47			0	36331	0	0	0	30171	28760	167393	26890	1066504	45668	111231	0	0	8005	604600	0	0
2024-07-30 12:18:47			0	36320	0	0	0	30176	28760	167429	26986	1066585	45668	111233	0	0	8004	605053	0	0
2024-07-30 12:19:47			0	36320	0	0	0	30179	28760	167433	26828	1066531	45668	111234	0	0	8004	605053	0	0
2024-07-30 12:20:47			0	36324	0	0	0	30168	28770	167437	26892	1066486	45668	111230	0	0	8005	604853	0	0
2024-07-30 12:21:47			0	36335	0	0	0	30184	28770	167517	27071	1066522	45658	111236	0	0	8005	604400	0	0
2024-07-30 12:22:47			0	36324	0	0	0	30186	28770	167345	26972	1066576	45658	111237	0	0	8004	604853	0	0
2024-07-30 12:23:47			0	36332	0	0	0	30171	28780	167273	26757	1066621	45670	111231	0	0	8005	604489	0	0
2024-07-30 12:24:47			0	36341	0	0	0	30155	28770	167261	27111	1066576	45658	111225	0	0	8006	604153	0	0
2024-07-30 12:25:47			0	36324	0	0	0	30145	28770	167269	26897	1066468	45669	111221	0	0	8005	604853	0	0
2024-07-30 12:26:47			0	36333	0	0	0	30150	28770	167313	26864	1066459	45658	111223	0	0	8006	604483	0	0
2024-07-30 12:27:47			0	36315	0	0	0	30148	28780	167413	27074	1066504	45648	111222	0	0	8005	605189	0	0
2024-07-30 12:28:47			0	36292	0	0	0	30148	28770	167461	26837	1066513	45658	111222	0	0	8003	606172	0	0
2024-07-30 12:29:47			0	36284	0	0	0	30155	28770	167481	27388	1066486	45646	111225	0	0	8003	606502	0	0
2024-07-30 12:30:47			0	36277	0	0	0	30142	28770	167565	26989	1066495	45658	111220	0	0	8002	606791	0	0
2024-07-30 12:31:47			0	36267	0	0	0	30137	28760	167561	26691	1066423	45646	111218	0	0	8002	607239	0	0
2024-07-30 12:32:47			0	36272	0	0	0	30132	28760	167621	27107	1066414	45658	111216	0	0	8002	607033	0	0
2024-07-30 12:33:47			0	36262	0	0	0	30119	28770	167609	27249	1066459	45658	111211	0	0	8002	607411	0	0
2024-07-30 12:34:47			0	36269	0	0	0	30122	28760	167693	26837	1066387	45668	111212	0	0	8002	607157	0	0
2024-07-30 12:35:47			0	36251	0	0	0	30135	28760	167773	26958	1066387	45658	111217	0	0	8001	607901	0	0
2024-07-30 12:36:47			0	36256	0	0	0	30132	28760	167673	26909	1066423	45668	111216	0	0	8001	607694	0	0
2024-07-30 12:37:47			0	36233	0	0	0	30129	28750	167825	27052	1066342	45666	111215	0	0	8000	608680	0	0
2024-07-30 12:38:47			0	36227	0	0	0	30135	28760	167733	27010	1066441	45658	111217	0	0	7999	608893	0	0
2024-07-30 12:39:47			0	36242	0	0	0	30145	28750	167757	26889	1066405	45667	111221	0	0	8000	608308	0	0
2024-07-30 12:40:47			0	36221	0	0	0	30137	28750	167885	26993	1066486	45678	111218	0	0	7999	609177	0	0
2024-07-30 12:41:47			0	36214	0	0	0	30127	28760	167881	27055	1066531	45668	111214	0	0	7999	609431	0	0
2024-07-30 12:42:47			0	36228	0	0	0	30114	28770	167833	27107	1066459	45679	111209	0	0	8000	608817	0	0
2024-07-30 12:43:47			0	36205	0	0	0	30096	28760	167881	27090	1066504	45646	111202	0	0	7999	609804	0	0
2024-07-30 12:44:47			0	36188	0	0	0	30085	28760	167861	26752	1066450	45635	111198	0	0	7998	610509	0	0
2024-07-30 12:45:47			0	36175	0	0	0	30171	28770	168005	27180	1066486	45658	111231	0	0	7996	611012	0	0
2024-07-30 12:46:47			0	36169	0	0	0	30189	28760	168049	26961	1066639	45658	111238	0	0	7995	611297	0	0
2024-07-30 12:47:47			0	36168	0	0	0	30155	28770	168097	27029	1066711	45692	111225	0	0	7996	611303	0	0
2024-07-30 12:48:47			0	36178	0	0	0	30137	28790	167965	26932	1066720	45660	111218	0	0	7997	610817	0	0
2024-07-30 12:49:47			0	36199	0	0	0	30103	28780	167905	27010	1066612	45659	111205	0	0	7998	609982	0	0
2024-07-30 12:50:47			0	36196	0	0	0	30093	28780	167933	26880	1066540	45648	111201	0	0	7998	610106	0	0
2024-07-30 12:51:47			0	36176	0	0	0	30119	28770	167985	26824	1066522	45658	111211	0	0	7997	610971	0	0
2024-07-30 12:52:47			0	36162	0	0	0	30137	28780	168053	26913	1066648	45659	111218	0	0	7996	611517	0	0
2024-07-30 12:53:47			0	36157	0	0	0	30192	28780	168153	27140	1066702	45670	111239	0	0	7994	611724	0	0
2024-07-30 12:54:47			0	36205	0	0	0	30202	28790	167893	27036	1066711	45660	111243	0	0	7997	609698	0	0
2024-07-30 12:55:47			0	36242	0	0	0	30184	28790	167649	26956	1066720	45660	111236	0	0	8000	608167	0	0
2024-07-30 12:56:47			0	36289	0	0	0	30197	28800	167533	26762	1066765	45672	111241	0	0	8002	606191	0	0
2024-07-30 12:57:47			0	36270	0	0	0	30168	28800	167437	26724	1066684	45661	111230	0	0	8002	606975	0	0
2024-07-30 12:58:47			0	36278	0	0	0	30163	28800	167393	26956	1066675	45661	111228	0	0	8002	606645	0	0
2024-07-30 12:59:47			0	36269	0	0	0	30194	28810	167657	26842	1066693	45651	111240	0	0	8001	606981	0	0
2024-07-30 13:00:47			0	36270	0	0	0	30210	28800	167549	27000	1066729	45661	111246	0	0	8001	606975	0	0
2024-07-30 13:01:47			0	36293	0	0	0	30199	28790	167529	26765	1066720	45660	111242	0	0	8002	606061	0	0
2024-07-30 13:02:47			0	36278	0	0	0	30194	28800	167505	26854	1066675	45661	111240	0	0	8002	606645	0	0
2024-07-30 13:03:47			0	36299	0	0	0	30168	28800	167417	27216	1066675	45661	111230	0	0	8003	605778	0	0
2024-07-30 13:04:47			0	36297	0	0	0	30168	28790	167401	26694	1066666	45660	111230	0	0	8003	605896	0	0
2024-07-30 13:05:47			0	36284	0	0	0	30189	28800	167469	26883	1066648	45661	111238	0	0	8002	606397	0	0
2024-07-30 13:06:47			0	36264	0	0	0	30176	28790	167481	26712	1066666	45660	111233	0	0	8001	607258	0	0
2024-07-30 13:07:47			0	36271	0	0	0	30163	28790	167621	26963	1066657	45638	111228	0	0	8002	606969	0	0
2024-07-30 13:08:47			0	36280	0	0	0	30189	28800	167541	26960	1066756	45661	111238	0	0	8002	606562	0	0
2024-07-30 13:09:47			0	36269	0	0	0	30184	28790	167553	26918	1066684	45671	111236	0	0	8001	607051	0	0
2024-07-30 13:10:47			0	36258	0	0	0	30192	28800	167573	27121	1066702	45661	111239	0	0	8000	607470	0	0
2024-07-30 13:11:47			0	36257	0	0	0	30192	28800	167601	26798	1066711	45672	111239	0	0	8000	607512	0	0
2024-07-30 13:12:47			0	36251	0	0	0	30186	28790	167725	27078	1066657	45660	111237	0	0	8000	607795	0	0
2024-07-30 13:13:47			0	36248	0	0	0	30184	28800	167609	26821	1066756	45661	111236	0	0	8000	607884	0	0
2024-07-30 13:14:47			0	36255	0	0	0	30184	28800	167705	27130	1066711	45661	111236	0	0	8000	607594	0	0
2024-07-30 13:15:47			0	36234	0	0	0	30158	28810	167737	27164	1066720	45662	111226	0	0	8000	608427	0	0
2024-07-30 13:16:47			0	36221	0	0	0	30161	28810	167749	26965	1066693	45662	111227	0	0	7999	608965	0	0
2024-07-30 13:17:47			0	36225	0	0	0	30218	28810	167781	27097	1066783	45673	111249	0	0	7998	608800	0	0
2024-07-30 13:18:47			0	36226	0	0	0	30197	28800	167841	26986	1066846	45683	111241	0	0	7998	608793	0	0
2024-07-30 13:19:47			0	36216	0	0	0	30194	28810	167853	27124	1066855	45684	111240	0	0	7998	609172	0	0
2024-07-30 13:20:47			0	36241	0	0	0	30168	28820	167761	26798	1066792	45663	111230	0	0	8000	608102	0	0
2024-07-30 13:21:47			0	36226	0	0	0	30158	28820	167649	27270	1066792	45674	111226	0	0	7999	608723	0	0
2024-07-30 13:22:47			0	36243	0	0	0	30163	28810	167725	27078	1066756	45662	111228	0	0	8000	608055	0	0
2024-07-30 13:23:47			0	36225	0	0	0	30186	28810	167713	26845	1066747	45662	111237	0	0	7999	608800	0	0
2024-07-30 13:24:47			0	36213	0	0	0	30186	28820	167841	26960	1066774	45653	111237	0	0	7998	609261	0	0
2024-07-30 13:25:47			0	36221	0	0	0	30184	28820	167749	26856	1066855	45675	111236	0	0	7999	608930	0	0
2024-07-30 13:26:47			0	36221	0	0	0	30199	28810	167825	26939	1066756	45662	111242	0	0	7998	608965	0	0
2024-07-30 13:27:47			0	36233	0	0	0	30184	28810	167665	26920	1066837	45651	111236	0	0	7999	608469	0	0
2024-07-30 13:28:47			0	36228	0	0	0	30181	28810	167673	27137	1066810	45673	111235	0	0	7999	608675	0	0
2024-07-30 13:29:47			0	36218	0	0	0	30181	28820	167721	27095	1066819	45652	111235	0	0	7998	609054	0	0
2024-07-30 13:30:47			0	36213	0	0	0	30215	28820	167853	26986	1066819	45663	111248	0	0	7998	609261	0	0
2024-07-30 13:31:47			0	36215	0	0	0	30254	28820	167873	27017	1066909	45698	111263	0	0	7997	609178	0	0
2024-07-30 13:32:47			0	36231	0	0	0	30267	28830	167733	26791	1067034	45686	111268	0	0	7998	608481	0	0
2024-07-30 13:33:47			0	36245	0	0	0	30275	28840	167697	26731	1067043	45676	111271	0	0	7999	607867	0	0
2024-07-30 13:34:47			0	36252	0	0	0	30298	28840	167705	27076	1067097	45676	111280	0	0	7999	607578	0	0
2024-07-30 13:35:47			0	36242	0	0	0	30270	28860	167673	27227	1067214	45689	111269	0	0	7999	607920	0	0
2024-07-30 13:36:47			0	36274	0	0	0	30231	28860	167533	27145	1067214	45678	111254	0	0	8001	606599	0	0
2024-07-30 13:37:47			0	36297	0	0	0	30207	28860	167421	26922	1067034	45679	111245	0	0	8003	605650	0	0
2024-07-30 13:38:47			0	36300	0	0	0	30215	28850	167389	27190	1067034	45666	111248	0	0	8003	605561	0	0
2024-07-30 13:39:47			0	36310	0	0	0	30197	28840	167385	27029	1066945	45655	111241	0	0	8004	605184	0	0
2024-07-30 13:40:47			0	36323	0	0	0	30202	28840	167273	27039	1066918	45655	111243	0	0	8004	604649	0	0
2024-07-30 13:41:47			0	36310	0	0	0	30205	28840	167289	26698	1066855	45654	111244	0	0	8004	605184	0	0
2024-07-30 13:42:47			0	36293	0	0	0	30212	28840	167373	27220	1066936	45665	111247	0	0	8002	605885	0	0
2024-07-30 13:43:47			0	36313	0	0	0	30207	28830	167397	26986	1066927	45664	111245	0	0	8004	605096	0	0
2024-07-30 13:44:47			0	36309	0	0	0	30189	28850	167429	27157	1067007	45666	111238	0	0	8004	605191	0	0
2024-07-30 13:45:47			0	36316	0	0	0	30176	28840	167373	26838	1066891	45666	111233	0	0	8004	604937	0	0
2024-07-30 13:46:47			0	36304	0	0	0	30176	28850	167425	27326	1066980	45677	111233	0	0	8004	605397	0	0
2024-07-30 13:47:47			0	36310	0	0	0	30197	28840	167373	27215	1066918	45643	111241	0	0	8004	605184	0	0
2024-07-30 13:48:47			0	36301	0	0	0	30241	28840	167505	27213	1067043	45676	111258	0	0	8002	605555	0	0
2024-07-30 13:49:47			0	36292	0	0	0	30277	28850	167461	27414	1067088	45688	111272	0	0	8001	605891	0	0
2024-07-30 13:50:47			0	36325	0	0	0	30270	28850	167317	27039	1067151	45677	111269	0	0	8003	604532	0	0
2024-07-30 13:51:47			0	36341	0	0	0	30267	28860	167325	27338	1067223	45702	111268	0	0	8004	603838	0	0
2024-07-30 13:52:47			0	36360	0	0	0	30267	28870	167153	27301	1067178	45679	111268	0	0	8006	603022	0	0
2024-07-30 13:53:47			0	36360	0	0	0	30257	28880	167081	26715	1067223	45668	111264	0	0	8006	602987	0	0
2024-07-30 13:54:47			0	36372	0	0	0	30189	28870	167085	26949	1067107	45646	111238	0	0	8008	602529	0	0
2024-07-30 13:55:47			0	36380	0	0	0	30168	28850	167069	27164	1067016	45643	111230	0	0	8008	602270	0	0
2024-07-30 13:56:47			0	36374	0	0	0	30207	28850	167189	27112	1066953	45643	111245	0	0	8007	602517	0	0
2024-07-30 13:57:47			0	36373	0	0	0	30251	28860	167137	27142	1067133	45666	111262	0	0	8007	602523	0	0
2024-07-30 13:58:47			0	36360	0	0	0	30262	28860	167133	27211	1067160	45678	111266	0	0	8006	603057	0	0
2024-07-30 13:59:47			0	36365	0	0	0	30272	28870	167081	27161	1067259	45679	111270	0	0	8006	602816	0	0
2024-07-30 14:00:47			0	36363	0	0	0	30218	28880	167089	27142	1067250	45691	111249	0	0	8007	602864	0	0
2024-07-30 14:01:47			0	36351	0	0	0	30194	28880	167085	27272	1067115	45658	111240	0	0	8006	603357	0	0
2024-07-30 14:02:47			0	36363	0	0	0	30186	28880	167113	27291	1067142	45646	111237	0	0	8007	602864	0	0
2024-07-30 14:03:47			0	36358	0	0	0	30192	28870	166997	27066	1067053	45658	111239	0	0	8007	603104	0	0
2024-07-30 14:04:47			0	36352	0	0	0	30186	28870	167033	27078	1067070	45634	111237	0	0	8007	603351	0	0
2024-07-30 14:05:47			0	36365	0	0	0	30215	28860	167181	27319	1067052	45656	111248	0	0	8007	602851	0	0
2024-07-30 14:06:47			0	36354	0	0	0	30220	28860	167105	26977	1067061	45667	111250	0	0	8006	603304	0	0
2024-07-30 14:07:47			0	36353	0	0	0	30233	28850	167161	26949	1067070	45666	111255	0	0	8006	603380	0	0
2024-07-30 14:08:47			0	36349	0	0	0	30233	28860	167141	27126	1067115	45679	111255	0	0	8006	603509	0	0
2024-07-30 14:09:47			0	36350	0	0	0	30218	28860	167257	27371	1067142	45657	111249	0	0	8006	603468	0	0
2024-07-30 14:10:47			0	36361	0	0	0	30218	28860	167085	27098	1067079	45656	111249	0	0	8006	603016	0	0
2024-07-30 14:11:47			0	36342	0	0	0	30259	28860	167093	27362	1067088	45657	111265	0	0	8005	603797	0	0
2024-07-30 14:12:47			0	36367	0	0	0	30288	28870	167185	27039	1067187	45668	111276	0	0	8006	602734	0	0
2024-07-30 14:13:47			0	36367	0	0	0	30319	28880	167177	27041	1067277	45691	111288	0	0	8005	602699	0	0
2024-07-30 14:14:47			0	36379	0	0	0	30301	28890	167189	27076	1067331	45693	111281	0	0	8006	602172	0	0
2024-07-30 14:15:47			0	36420	0	0	0	30262	28890	166969	26857	1067349	45682	111266	0	0	8009	600490	0	0
2024-07-30 14:16:47			0	36425	0	0	0	30233	28890	166849	27083	1067214	45660	111255	0	0	8010	600285	0	0
2024-07-30 14:17:47			0	36424	0	0	0	30223	28890	166885	27131	1067187	45660	111251	0	0	8010	600326	0	0
2024-07-30 14:18:47			0	36441	0	0	0	30228	28880	166921	26625	1067124	45647	111253	0	0	8011	599665	0	0
2024-07-30 14:19:47			0	36440	0	0	0	30246	28870	166957	27105	1067124	45657	111260	0	0	8011	599740	0	0
2024-07-30 14:20:47			0	36450	0	0	0	30262	28870	166909	27067	1067214	45668	111266	0	0	8011	599331	0	0
2024-07-30 14:21:47			0	36452	0	0	0	30301	28870	166845	27100	1067214	45668	111281	0	0	8011	599249	0	0
2024-07-30 14:22:47			0	36458	0	0	0	30288	28890	166785	27050	1067322	45693	111276	0	0	8011	598934	0	0
2024-07-30 14:23:47			0	36471	0	0	0	30228	28890	166717	26771	1067268	45682	111253	0	0	8013	598403	0	0
2024-07-30 14:24:47			0	36487	0	0	0	30205	28890	166609	26861	1067169	45660	111244	0	0	8014	597749	0	0
2024-07-30 14:25:47			0	36476	0	0	0	30205	28880	166673	27161	1067124	45647	111244	0	0	8014	598233	0	0
2024-07-30 14:26:47			0	36456	0	0	0	30319	28890	166737	27090	1067223	45682	111288	0	0	8011	599016	0	0
2024-07-30 14:27:47			0	36459	0	0	0	30397	28890	166901	27116	1067385	45682	111318	0	0	8009	598893	0	0
2024-07-30 14:28:47			0	36465	0	0	0	30431	28910	166837	27079	1067628	45706	111331	0	0	8009	598579	0	0
2024-07-30 14:29:47			0	36494	0	0	0	30428	28920	166613	27121	1067700	45695	111330	0	0	8011	597359	0	0
2024-07-30 14:30:47			0	36572	0	0	0	30290	28950	166313	27159	1067727	45699	111277	0	0	8018	594077	0	0
2024-07-30 14:31:47			0	36639	0	0	0	30288	28960	165822	26837	1067664	45689	111276	0	0	8022	591323	0	0
2024-07-30 14:32:47			0	36670	0	0	0	30277	28960	165714	26771	1067637	45666	111272	0	0	8024	590067	0	0
2024-07-30 14:33:47			0	36675	0	0	0	30348	28950	165726	26781	1067592	45676	111299	0	0	8023	589899	0	0
2024-07-30 14:34:47			0	36657	0	0	0	30381	28950	165854	26720	1067673	45676	111312	0	0	8022	590627	0	0
2024-07-30 14:35:47			0	36648	0	0	0	30288	28970	165862	27038	1067709	45689	111276	0	0	8023	590923	0	0
2024-07-30 14:36:47			0	36672	0	0	0	30249	28950	165678	27067	1067547	45677	111261	0	0	8025	590020	0	0
2024-07-30 14:37:47			0	36638	0	0	0	30197	28940	165682	26849	1067394	45630	111241	0	0	8024	591432	0	0
2024-07-30 14:38:47			0	36638	0	0	0	30192	28930	165854	26838	1067286	45641	111239	0	0	8024	591466	0	0
2024-07-30 14:39:47			0	36599	0	0	0	30207	28910	165934	26974	1067340	45650	111245	0	0	8021	593118	0	0
2024-07-30 14:40:47			0	36584	0	0	0	30272	28910	166077	26899	1067385	45672	111270	0	0	8019	593727	0	0
2024-07-30 14:41:47			0	36571	0	0	0	30246	28920	166165	26946	1067484	45672	111260	0	0	8019	594221	0	0
2024-07-30 14:42:47			0	36566	0	0	0	30220	28930	166129	26760	1067457	45664	111250	0	0	8019	594390	0	0
2024-07-30 14:43:47			0	36567	0	0	0	30199	28920	166185	26897	1067331	45651	111242	0	0	8019	594384	0	0
2024-07-30 14:44:47			0	36560	0	0	0	30155	28920	166233	27112	1067295	45639	111225	0	0	8020	594669	0	0
2024-07-30 14:45:47			0	36543	0	0	0	30207	28900	166241	27229	1067233	45648	111245	0	0	8018	595430	0	0
2024-07-30 14:46:47			0	36514	0	0	0	30228	28910	166441	26911	1067331	45672	111253	0	0	8016	596578	0	0
2024-07-30 14:47:47			0	36511	0	0	0	30223	28910	166489	26918	1067367	45672	111251	0	0	8016	596700	0	0
2024-07-30 14:48:47			0	36502	0	0	0	30210	28910	166505	27178	1067331	45650	111246	0	0	8015	597067	0	0
2024-07-30 14:49:47			0	36493	0	0	0	30225	28900	166509	26821	1067295	45661	111252	0	0	8014	597469	0	0
2024-07-30 14:50:47			0	36481	0	0	0	30140	28900	166549	27175	1067161	45638	111219	0	0	8015	597959	0	0
2024-07-30 14:51:47			0	36486	0	0	0	30197	28890	166485	27104	1067169	45648	111241	0	0	8014	597790	0	0
2024-07-30 14:52:47			0	36478	0	0	0	30246	28880	166653	27090	1067259	45659	111260	0	0	8013	598151	0	0
2024-07-30 14:53:47			0	36482	0	0	0	30267	28890	166721	26961	1067376	45682	111268	0	0	8013	597953	0	0
2024-07-30 14:54:47			0	36487	0	0	0	30262	28910	166621	26935	1067385	45672	111266	0	0	8013	597680	0	0
2024-07-30 14:55:47			0	36497	0	0	0	30194	28900	166673	26979	1067349	45661	111240	0	0	8015	597306	0	0
2024-07-30 14:56:47			0	36511	0	0	0	30184	28900	166521	26793	1067242	45638	111236	0	0	8016	596735	0	0
2024-07-30 14:57:47			0	36504	0	0	0	30231	28900	166557	27053	1067340	45648	111254	0	0	8015	597020	0	0
2024-07-30 14:58:47			0	36486	0	0	0	30259	28890	166493	27225	1067331	45670	111265	0	0	8013	597790	0	0
2024-07-30 14:59:47			0	36493	0	0	0	30259	28900	166493	27357	1067367	45660	111265	0	0	8014	597469	0	0
2024-07-30 15:00:47			0	36511	0	0	0	30285	28910	166521	26797	1067412	45684	111275	0	0	8015	596700	0	0
2024-07-30 15:01:47			0	36510	0	0	0	30275	28920	166605	26837	1067511	45672	111271	0	0	8015	596706	0	0
2024-07-30 15:02:47			0	36536	0	0	0	30262	28910	166441	26996	1067475	45662	111266	0	0	8016	595681	0	0
2024-07-30 15:03:47			0	36538	0	0	0	30262	28920	166269	26994	1067457	45672	111266	0	0	8017	595565	0	0
2024-07-30 15:04:47			0	36552	0	0	0	30293	28920	166377	27098	1067484	45650	111278	0	0	8017	594995	0	0
2024-07-30 15:05:47			0	36552	0	0	0	30301	28910	166293	27182	1067502	45672	111281	0	0	8017	595029	0	0
2024-07-30 15:06:47			0	36567	0	0	0	30290	28920	166257	26852	1067493	45673	111277	0	0	8018	594384	0	0
2024-07-30 15:07:47			0	36589	0	0	0	30296	28930	166158	26729	1067529	45674	111279	0	0	8019	593455	0	0
2024-07-30 15:08:47			0	36605	0	0	0	30306	28930	166110	27248	1067538	45664	111283	0	0	8020	592805	0	0
2024-07-30 15:09:47			0	36602	0	0	0	30355	28940	166094	27029	1067574	45697	111302	0	0	8019	592892	0	0
2024-07-30 15:10:47			0	36601	0	0	0	30405	28950	166114	26736	1067700	45676	111321	0	0	8018	592899	0	0
2024-07-30 15:11:47			0	36624	0	0	0	30444	28960	166018	26892	1067826	45689	111336	0	0	8019	591931	0	0
2024-07-30 15:12:47			0	36630	0	0	0	30451	28970	165930	26687	1067898	45678	111339	0	0	8019	591653	0	0
2024-07-30 15:13:47			0	36635	0	0	0	30467	28990	165982	26776	1068005	45690	111345	0	0	8019	591382	0	0
2024-07-30 15:14:47			0	36676	0	0	0	30470	29010	165718	27022	1068068	45692	111346	0	0	8022	589653	0	0
2024-07-30 15:15:47			0	36712	0	0	0	30483	29030	165426	26920	1068131	45684	111351	0	0	8024	588129	0	0
2024-07-30 15:16:47			0	36757	0	0	0	30483	29030	165330	27199	1068131	45707	111351	0	0	8026	586314	0	0
2024-07-30 15:17:47			0	36799	0	0	0	30480	29030	165190	26585	1068194	45684	111350	0	0	8029	584623	0	0
2024-07-30 15:18:47			0	36828	0	0	0	30464	29040	165030	26981	1068266	45686	111344	0	0	8031	583424	0	0
2024-07-30 15:19:47			0	36845	0	0	0	30493	29050	164994	26961	1068194	45708	111355	0	0	8031	582707	0	0
2024-07-30 15:20:47			0	36869	0	0	0	30485	29050	164822	27092	1068284	45674	111352	0	0	8033	581745	0	0
2024-07-30 15:21:47			0	36906	0	0	0	30493	29050	164570	26984	1068284	45697	111355	0	0	8035	580263	0	0
2024-07-30 15:22:47			0	36935	0	0	0	30480	29060	164410	26968	1068266	45687	111350	0	0	8037	579070	0	0
2024-07-30 15:23:47			0	36953	0	0	0	30464	29070	164450	26963	1068320	45699	111344	0	0	8038	578317	0	0
2024-07-30 15:24:47			0	36952	0	0	0	30464	29070	164322	27081	1068347	45666	111344	0	0	8038	578357	0	0
2024-07-30 15:25:47			0	36958	0	0	0	30449	29070	164438	26811	1068320	45699	111338	0	0	8039	578117	0	0
2024-07-30 15:26:47			0	36930	0	0	0	30467	29080	164486	27064	1068356	45666	111345	0	0	8037	579202	0	0
2024-07-30 15:27:47			0	36908	0	0	0	30470	29080	164546	27218	1068365	45678	111346	0	0	8036	580082	0	0
2024-07-30 15:28:47			0	36909	0	0	0	30399	29070	164530	27137	1068347	45699	111319	0	0	8037	580075	0	0
2024-07-30 15:29:47			0	36897	0	0	0	30386	29070	164590	26934	1068284	45676	111314	0	0	8036	580556	0	0
2024-07-30 15:30:47			0	36889	0	0	0	30363	29060	164686	26715	1068194	45666	111305	0	0	8036	580910	0	0
2024-07-30 15:31:47			0	36884	0	0	0	30337	29070	164674	27072	1068158	45676	111295	0	0	8036	581076	0	0
2024-07-30 15:32:47			0	36836	0	0	0	30350	29070	164758	26701	1068095	45676	111300	0	0	8033	583001	0	0
2024-07-30 15:33:47			0	36822	0	0	0	30366	29070	165034	26928	1068122	45666	111306	0	0	8032	583563	0	0
2024-07-30 15:34:47			0	36790	0	0	0	30353	29060	165070	26871	1068131	45675	111301	0	0	8031	584883	0	0
2024-07-30 15:35:47			0	36771	0	0	0	30327	29040	165198	27081	1067997	45686	111291	0	0	8030	585716	0	0
2024-07-30 15:36:47			0	36769	0	0	0	30322	29030	165214	26883	1067952	45651	111289	0	0	8030	585830	0	0
2024-07-30 15:37:47			0	36760	0	0	0	30402	29030	165298	26875	1068006	45673	111320	0	0	8028	586193	0	0
2024-07-30 15:38:47			0	36755	0	0	0	30412	29040	165366	27008	1068185	45686	111324	0	0	8027	586360	0	0
2024-07-30 15:39:47			0	36743	0	0	0	30402	29050	165390	27088	1068113	45697	111320	0	0	8027	586810	0	0
2024-07-30 15:40:47			0	36750	0	0	0	30436	29060	165394	27187	1068212	45709	111333	0	0	8027	586494	0	0
2024-07-30 15:41:47			0	36758	0	0	0	30407	29060	165358	27189	1068212	45687	111322	0	0	8028	586172	0	0
2024-07-30 15:42:47			0	36762	0	0	0	30363	29060	165274	26930	1068086	45688	111305	0	0	8029	586010	0	0
2024-07-30 15:43:47			0	36769	0	0	0	30384	29050	165330	27154	1068041	45674	111313	0	0	8029	585762	0	0
2024-07-30 15:44:47			0	36746	0	0	0	30384	29040	165226	27121	1067997	45674	111313	0	0	8027	586723	0	0
2024-07-30 15:45:47			0	36782	0	0	0	30392	29040	165246	27176	1068050	45674	111316	0	0	8029	585273	0	0
2024-07-30 15:46:47			0	36755	0	0	0	30415	29040	165306	26897	1068015	45663	111325	0	0	8027	586360	0	0
2024-07-30 15:47:47			0	36749	0	0	0	30423	29040	165394	27121	1068077	45674	111328	0	0	8027	586602	0	0
2024-07-30 15:48:47			0	36746	0	0	0	30405	29050	165330	26885	1068086	45674	111321	0	0	8027	586689	0	0
2024-07-30 15:49:47			0	36760	0	0	0	30379	29040	165122	26977	1068077	45674	111311	0	0	8028	586159	0	0
2024-07-30 15:50:47			0	36781	0	0	0	30350	29040	165130	27060	1068015	45663	111300	0	0	8030	585313	0	0
2024-07-30 15:51:47			0	36792	0	0	0	30329	29040	165122	26833	1067961	45652	111292	0	0	8031	584871	0	0
2024-07-30 15:52:47			0	36782	0	0	0	30324	29020	165162	27066	1067897	45650	111290	0	0	8030	585341	0	0
2024-07-30 15:53:47			0	36797	0	0	0	30316	29010	165034	27142	1067861	45660	111287	0	0	8031	584771	0	0
2024-07-30 15:54:47			0	36817	0	0	0	30337	29010	165010	27012	1067861	45660	111295	0	0	8032	583967	0	0
2024-07-30 15:55:47			0	36811	0	0	0	30314	29000	164974	27055	1067835	45670	111286	0	0	8032	584242	0	0
2024-07-30 15:56:47			0	36802	0	0	0	30303	29000	164998	26906	1067763	45670	111282	0	0	8032	584604	0	0
2024-07-30 15:57:47			0	36806	0	0	0	30319	29000	165026	26772	1067835	45659	111288	0	0	8032	584443	0	0
2024-07-30 15:58:47			0	36793	0	0	0	30350	28980	165026	26746	1067754	45668	111300	0	0	8030	585034	0	0
2024-07-30 15:59:47			0	36788	0	0	0	30358	29000	165030	26968	1067861	45670	111303	0	0	8030	585168	0	0
2024-07-30 16:00:47			0	36781	0	0	0	30335	29000	165058	27142	1067888	45659	111294	0	0	8030	585449	0	0
2024-07-30 16:01:47			0	36789	0	0	0	30329	29000	165138	27074	1067790	45670	111292	0	0	8031	585127	0	0
2024-07-30 16:02:47			0	36785	0	0	0	30329	29000	165150	27100	1067817	45681	111292	0	0	8030	585288	0	0
2024-07-30 16:03:47			0	36778	0	0	0	30361	28990	165122	26890	1067853	45680	111304	0	0	8029	585604	0	0
2024-07-30 16:04:47			0	36775	0	0	0	30386	29000	165058	27211	1067951	45670	111314	0	0	8029	585691	0	0
2024-07-30 16:05:47			0	36780	0	0	0	30386	29010	165166	27152	1067969	45693	111314	0	0	8029	585456	0	0
2024-07-30 16:06:47			0	36781	0	0	0	30386	29010	165046	26967	1067996	45682	111314	0	0	8029	585415	0	0
2024-07-30 16:07:47			0	36803	0	0	0	30368	29020	165030	27150	1068068	45684	111307	0	0	8031	584496	0	0
2024-07-30 16:08:47			0	36832	0	0	0	30376	29020	165090	27294	1068041	45673	111310	0	0	8032	583331	0	0
2024-07-30 16:09:47			0	36800	0	0	0	30366	29020	164986	27097	1067978	45683	111306	0	0	8031	584617	0	0
2024-07-30 16:10:47			0	36805	0	0	0	30358	29010	165002	27414	1067942	45671	111303	0	0	8031	584450	0	0
2024-07-30 16:11:47			0	36799	0	0	0	30363	29010	165034	27384	1067915	45660	111305	0	0	8031	584691	0	0
2024-07-30 16:12:47			0	36788	0	0	0	30381	29010	165038	27060	1067996	45682	111312	0	0	8030	585134	0	0
2024-07-30 16:13:47			0	36803	0	0	0	30392	29020	165062	27001	1068041	45695	111316	0	0	8030	584496	0	0
2024-07-30 16:14:47			0	36804	0	0	0	30394	29020	165038	27046	1068041	45673	111317	0	0	8030	584456	0	0
2024-07-30 16:15:47			0	36802	0	0	0	30389	29030	164986	27163	1068086	45695	111315	0	0	8031	584502	0	0
2024-07-30 16:16:47			0	36812	0	0	0	30392	29030	165002	27059	1068105	45673	111316	0	0	8031	584100	0	0
2024-07-30 16:17:47			0	36793	0	0	0	30402	29030	165046	27197	1068060	45684	111320	0	0	8030	584864	0	0
2024-07-30 16:18:47			0	36773	0	0	0	30464	29030	165078	27232	1068140	45684	111344	0	0	8028	585669	0	0
2024-07-30 16:19:47			0	36755	0	0	0	30397	29050	165130	26944	1068284	45697	111318	0	0	8028	586326	0	0
2024-07-30 16:20:47			0	36757	0	0	0	30402	29040	165182	27079	1068158	45674	111320	0	0	8028	586280	0	0
2024-07-30 16:21:47			0	36749	0	0	0	30425	29050	165218	27109	1068257	45686	111329	0	0	8027	586568	0	0
2024-07-30 16:22:47			0	36751	0	0	0	30441	29060	165238	27284	1068212	45698	111335	0	0	8027	586454	0	0
2024-07-30 16:23:47			0	36751	0	0	0	30449	29050	165318	27220	1068284	45697	111338	0	0	8027	586488	0	0
2024-07-30 16:24:47			0	36742	0	0	0	30425	29060	165194	26757	1068275	45688	111329	0	0	8027	586816	0	0
2024-07-30 16:25:47			0	36754	0	0	0	30399	29060	165202	27090	1068302	45688	111319	0	0	8028	586333	0	0
2024-07-30 16:26:47			0	36765	0	0	0	30371	29050	165062	27001	1068167	45674	111308	0	0	8029	585924	0	0
2024-07-30 16:27:47			0	36786	0	0	0	30392	29050	165258	26876	1068086	45674	111316	0	0	8030	585078	0	0
2024-07-30 16:28:47			0	36779	0	0	0	30415	29050	165118	27022	1068257	45674	111325	0	0	8029	585360	0	0
2024-07-30 16:29:47			0	36775	0	0	0	30446	29060	165046	26844	1068212	45687	111337	0	0	8028	585487	0	0
2024-07-30 16:30:47			0	36775	0	0	0	30441	29050	165202	27055	1068149	45674	111335	0	0	8028	585521	0	0
2024-07-30 16:31:47			0	36784	0	0	0	30454	29060	165174	27076	1068293	45698	111340	0	0	8028	585125	0	0
2024-07-30 16:32:47			0	36771	0	0	0	30477	29060	165162	26923	1068374	45698	111349	0	0	8027	585648	0	0
2024-07-30 16:33:47			0	36800	0	0	0	30477	29070	165082	26998	1068446	45688	111349	0	0	8029	584447	0	0
2024-07-30 16:34:47			0	36809	0	0	0	30472	29070	165098	27019	1068365	45688	111347	0	0	8030	584085	0	0
2024-07-30 16:35:47			0	36834	0	0	0	30451	29080	164954	26864	1068419	45678	111339	0	0	8032	583047	0	0
2024-07-30 16:36:47			0	36849	0	0	0	30412	29080	164790	27222	1068392	45678	111324	0	0	8033	582445	0	0
2024-07-30 16:37:47			0	36861	0	0	0	30392	29080	164742	27020	1068329	45666	111316	0	0	8034	581964	0	0
2024-07-30 16:38:47			0	36842	0	0	0	30381	29070	164670	26994	1068212	45666	111312	0	0	8033	582760	0	0
2024-07-30 16:39:47			0	36875	0	0	0	30358	29060	164774	26878	1068086	45666	111303	0	0	8035	581471	0	0
2024-07-30 16:40:47			0	36857	0	0	0	30345	29060	164770	26960	1068050	45665	111298	0	0	8035	582192	0	0
2024-07-30 16:41:47			0	36830	0	0	0	30337	29050	164946	26885	1068041	45664	111295	0	0	8033	583309	0	0
2024-07-30 16:42:47			0	36817	0	0	0	30353	29040	165078	26798	1068041	45663	111301	0	0	8032	583865	0	0
2024-07-30 16:43:47			0	36786	0	0	0	30405	29040	165174	26901	1068077	45674	111321	0	0	8029	585112	0	0
2024-07-30 16:44:47			0	36752	0	0	0	30399	29040	165170	27126	1068050	45686	111319	0	0	8027	586481	0	0
2024-07-30 16:45:47			0	36716	0	0	0	30462	29050	165434	26883	1068140	45674	111343	0	0	8024	587900	0	0
2024-07-30 16:46:47			0	36715	0	0	0	30464	29040	165458	26878	1068293	45708	111344	0	0	8024	587974	0	0
2024-07-30 16:47:47			0	36758	0	0	0	30436	29060	165418	27055	1068158	45687	111333	0	0	8027	586172	0	0
2024-07-30 16:48:47			0	36760	0	0	0	30444	29050	165374	27045	1068122	45674	111336	0	0	8027	586125	0	0
2024-07-30 16:49:47			0	36752	0	0	0	30449	29050	165150	27001	1068167	45686	111338	0	0	8027	586447	0	0
2024-07-30 16:50:47			0	36779	0	0	0	30467	29050	165174	27267	1068311	45686	111345	0	0	8028	585360	0	0
2024-07-30 16:51:47			0	36794	0	0	0	30459	29060	165170	26927	1068329	45688	111342	0	0	8029	584722	0	0
2024-07-30 16:52:47			0	36792	0	0	0	30433	29060	165174	26956	1068293	45687	111332	0	0	8029	584803	0	0
2024-07-30 16:53:47			0	36790	0	0	0	30477	29060	165090	26821	1068248	45688	111349	0	0	8028	584883	0	0
2024-07-30 16:54:47			0	36788	0	0	0	30488	29060	165042	26831	1068329	45676	111353	0	0	8028	584964	0	0
2024-07-30 16:55:47			0	36779	0	0	0	30467	29060	165074	27088	1068410	45699	111345	0	0	8028	585326	0	0
2024-07-30 16:56:47			0	36809	0	0	0	30467	29070	165006	26805	1068320	45699	111345	0	0	8030	584085	0	0
2024-07-30 16:57:47			0	36809	0	0	0	30436	29070	164986	26837	1068347	45676	111333	0	0	8030	584085	0	0
2024-07-30 16:58:47			0	36811	0	0	0	30433	29070	164870	26847	1068266	45676	111332	0	0	8030	584005	0	0
2024-07-30 16:59:47			0	36813	0	0	0	30428	29070	164922	26738	1068293	45688	111330	0	0	8031	583925	0	0
2024-07-30 17:00:47			0	36819	0	0	0	30428	29070	164890	27059	1068230	45666	111330	0	0	8031	583684	0	0
2024-07-30 17:01:47			0	36807	0	0	0	30405	29060	164930	27261	1068221	45655	111321	0	0	8031	584200	0	0
2024-07-30 17:02:47			0	36813	0	0	0	30418	29060	165010	26993	1068131	45687	111326	0	0	8031	583959	0	0
2024-07-30 17:03:47			0	36790	0	0	0	30425	29060	164998	27055	1068185	45675	111329	0	0	8029	584883	0	0
2024-07-30 17:04:47			0	36785	0	0	0	30438	29050	165030	27145	1068149	45674	111334	0	0	8029	585118	0	0
2024-07-30 17:05:47			0	36763	0	0	0	30423	29050	165146	26698	1068221	45686	111328	0	0	8028	586004	0	0
2024-07-30 17:06:47			0	36769	0	0	0	30389	29050	165042	26982	1068194	45674	111315	0	0	8029	585762	0	0
2024-07-30 17:07:47			0	36762	0	0	0	30394	29050	165214	27178	1068122	45674	111317	0	0	8028	586044	0	0
2024-07-30 17:08:47			0	36725	0	0	0	30381	29060	165398	27157	1068158	45675	111312	0	0	8026	587502	0	0
2024-07-30 17:09:47			0	36711	0	0	0	30376	29050	165546	27102	1068149	45674	111310	0	0	8025	588101	0	0
2024-07-30 17:10:47			0	36676	0	0	0	30386	29050	165642	26911	1068167	45686	111314	0	0	8023	589516	0	0
2024-07-30 17:11:47			0	36647	0	0	0	30407	29040	165674	27114	1068185	45697	111322	0	0	8021	590724	0	0
2024-07-30 17:12:47			0	36634	0	0	0	30420	29050	165890	26708	1068167	45697	111327	0	0	8020	591216	0	0
2024-07-30 17:13:47			0	36615	0	0	0	30420	29050	165858	27170	1068167	45686	111327	0	0	8019	591987	0	0
2024-07-30 17:14:47			0	36603	0	0	0	30415	29050	165902	27100	1068194	45686	111325	0	0	8018	592474	0	0
2024-07-30 17:15:47			0	36588	0	0	0	30431	29050	165998	27033	1068167	45674	111331	0	0	8017	593083	0	0
2024-07-30 17:16:47			0	36594	0	0	0	30431	29050	165977	27033	1068167	45686	111331	0	0	8018	592839	0	0
2024-07-30 17:17:47			0	36599	0	0	0	30420	29050	165922	26800	1068257	45686	111327	0	0	8018	592636	0	0
2024-07-30 17:18:47			0	36598	0	0	0	30415	29050	165910	27019	1068194	45686	111325	0	0	8018	592677	0	0
2024-07-30 17:19:47			0	36594	0	0	0	30402	29040	165985	27175	1068158	45686	111320	0	0	8018	592873	0	0
2024-07-30 17:20:47			0	36600	0	0	0	30407	29040	165962	26894	1068077	45664	111322	0	0	8018	592630	0	0
2024-07-30 17:21:47			0	36616	0	0	0	30436	29040	165866	26930	1068131	45697	111333	0	0	8019	591980	0	0
2024-07-30 17:22:47			0	36619	0	0	0	30477	29040	165910	26727	1068311	45708	111349	0	0	8018	591859	0	0
2024-07-30 17:23:47			0	36619	0	0	0	30467	29050	165838	26991	1068311	45697	111345	0	0	8019	591825	0	0
2024-07-30 17:24:47			0	36647	0	0	0	30433	29060	165818	26849	1068320	45698	111332	0	0	8021	590655	0	0
2024-07-30 17:25:47			0	36660	0	0	0	30412	29060	165722	26864	1068293	45698	111324	0	0	8022	590129	0	0
2024-07-30 17:26:47			0	36691	0	0	0	30397	29070	165506	27013	1068203	45676	111318	0	0	8024	588841	0	0
2024-07-30 17:27:47			0	36693	0	0	0	30405	29060	165534	26915	1068266	45675	111321	0	0	8024	588794	0	0
2024-07-30 17:28:47			0	36691	0	0	0	30392	29050	165550	26781	1068149	45686	111316	0	0	8024	588909	0	0
2024-07-30 17:29:47			0	36698	0	0	0	30410	29040	165498	27079	1068131	45674	111323	0	0	8024	588661	0	0
2024-07-30 17:30:47			0	36701	0	0	0	30407	29050	165574	26817	1068140	45674	111322	0	0	8024	588505	0	0
2024-07-30 17:31:47			0	36689	0	0	0	30423	29050	165466	27196	1068113	45697	111328	0	0	8023	588990	0	0
2024-07-30 17:32:47			0	36706	0	0	0	30415	29050	165518	27079	1068176	45664	111325	0	0	8025	588303	0	0
2024-07-30 17:33:47			0	36712	0	0	0	30407	29050	165454	26922	1068167	45674	111322	0	0	8025	588061	0	0
2024-07-30 17:34:47			0	36700	0	0	0	30405	29050	165538	27010	1068194	45686	111321	0	0	8024	588546	0	0
2024-07-30 17:35:47			0	36702	0	0	0	30394	29050	165370	27064	1068122	45686	111317	0	0	8025	588465	0	0
2024-07-30 17:36:47			0	36712	0	0	0	30386	29040	165418	27000	1068158	45686	111314	0	0	8025	588095	0	0
2024-07-30 17:37:47			0	36713	0	0	0	30386	29040	165406	26760	1068149	45685	111314	0	0	8025	588055	0	0
2024-07-30 17:38:47			0	36697	0	0	0	30402	29030	165346	26842	1068051	45684	111320	0	0	8024	588735	0	0
2024-07-30 17:39:47			0	36694	0	0	0	30418	29030	165582	26615	1068113	45684	111326	0	0	8024	588856	0	0
2024-07-30 17:40:47			0	36700	0	0	0	30418	29030	165510	26798	1068167	45673	111326	0	0	8024	588614	0	0
2024-07-30 17:41:47			0	36697	0	0	0	30415	29040	165566	26687	1068149	45685	111325	0	0	8024	588701	0	0
2024-07-30 17:42:47			0	36696	0	0	0	30431	29030	165606	26759	1068131	45695	111331	0	0	8024	588776	0	0
2024-07-30 17:43:47			0	36690	0	0	0	30436	29040	165534	26776	1068176	45685	111333	0	0	8023	588984	0	0
2024-07-30 17:44:47			0	36680	0	0	0	30436	29030	165614	26767	1068167	45707	111333	0	0	8023	589423	0	0
2024-07-30 17:45:47			0	36691	0	0	0	30436	29040	165530	26838	1068185	45686	111333	0	0	8023	588943	0	0
2024-07-30 17:46:47			0	36695	0	0	0	30428	29040	165486	26870	1068176	45696	111330	0	0	8024	588782	0	0
2024-07-30 17:47:47			0	36692	0	0	0	30457	29050	165602	26863	1068203	45697	111341	0	0	8023	588869	0	0
2024-07-30 17:48:47			0	36706	0	0	0	30454	29040	165578	26958	1068239	45686	111340	0	0	8024	588337	0	0
2024-07-30 17:49:47			0	36697	0	0	0	30462	29050	165490	26920	1068338	45697	111343	0	0	8023	588667	0	0
2024-07-30 17:50:47			0	36702	0	0	0	30454	29060	165450	27171	1068293	45709	111340	0	0	8024	588431	0	0
2024-07-30 17:51:47			0	36702	0	0	0	30444	29050	165430	26850	1068365	45697	111336	0	0	8024	588465	0	0
2024-07-30 17:52:47			0	36710	0	0	0	30438	29050	165482	27005	1068284	45697	111334	0	0	8024	588142	0	0
2024-07-30 17:53:47			0	36713	0	0	0	30433	29050	165542	26925	1068176	45697	111332	0	0	8025	588021	0	0
2024-07-30 17:54:47			0	36720	0	0	0	30433	29050	165470	26743	1068275	45686	111332	0	0	8025	587738	0	0
2024-07-30 17:55:47			0	36736	0	0	0	30449	29060	165402	26691	1068356	45676	111338	0	0	8026	587058	0	0
2024-07-30 17:56:47			0	36721	0	0	0	30449	29050	165374	26764	1068338	45697	111338	0	0	8025	587698	0	0
2024-07-30 17:57:47			0	36723	0	0	0	30444	29050	165438	27000	1068284	45686	111336	0	0	8025	587617	0	0
2024-07-30 17:58:47			0	36730	0	0	0	30451	29050	165458	26623	1068311	45686	111339	0	0	8025	587335	0	0
2024-07-30 17:59:47			0	36729	0	0	0	30451	29060	165482	27029	1068410	45688	111339	0	0	8025	587341	0	0
2024-07-30 18:00:47			0	36715	0	0	0	30449	29060	165322	27024	1068356	45699	111338	0	0	8025	587906	0	0
2024-07-30 18:01:47			0	36726	0	0	0	30428	29070	165450	26941	1068311	45688	111330	0	0	8026	587428	0	0
2024-07-30 18:02:47			0	36733	0	0	0	30438	29060	165490	27182	1068293	45698	111334	0	0	8026	587179	0	0
2024-07-30 18:03:47			0	36724	0	0	0	30446	29070	165298	26769	1068338	45699	111337	0	0	8025	587508	0	0
2024-07-30 18:04:47			0	36733	0	0	0	30446	29050	165350	27215	1068338	45686	111337	0	0	8026	587213	0	0
2024-07-30 18:05:47			0	36721	0	0	0	30444	29050	165282	27067	1068194	45708	111336	0	0	8025	587698	0	0
2024-07-30 18:06:47			0	36707	0	0	0	30444	29050	165354	27145	1068275	45697	111336	0	0	8024	588263	0	0
2024-07-30 18:07:47			0	36728	0	0	0	30444	29060	165258	27043	1068293	45687	111336	0	0	8025	587381	0	0
2024-07-30 18:08:47			0	36723	0	0	0	30446	29060	165414	27161	1068302	45699	111337	0	0	8025	587583	0	0
2024-07-30 18:09:47			0	36719	0	0	0	30454	29060	165378	27090	1068320	45698	111340	0	0	8025	587744	0	0
2024-07-30 18:10:47			0	36725	0	0	0	30441	29060	165290	27256	1068275	45699	111335	0	0	8025	587502	0	0
2024-07-30 18:11:47			0	36731	0	0	0	30436	29060	165330	27126	1068293	45698	111333	0	0	8026	587260	0	0
2024-07-30 18:12:47			0	36726	0	0	0	30431	29050	165302	27185	1068284	45686	111331	0	0	8025	587496	0	0
2024-07-30 18:13:47			0	36743	0	0	0	30431	29050	165314	27255	1068248	45686	111331	0	0	8026	586810	0	0
2024-07-30 18:14:47			0	36755	0	0	0	30433	29050	165218	27199	1068203	45686	111332	0	0	8027	586326	0	0
2024-07-30 18:15:47			0	36743	0	0	0	30441	29060	165286	27346	1068275	45688	111335	0	0	8026	586776	0	0
2024-07-30 18:16:47			0	36735	0	0	0	30449	29050	165326	26977	1068284	45697	111338	0	0	8026	587133	0	0
2024-07-30 18:17:47			0	36742	0	0	0	30454	29060	165278	26932	1068320	45709	111340	0	0	8026	586816	0	0
2024-07-30 18:18:47			0	36740	0	0	0	30462	29050	165342	26698	1068284	45697	111343	0	0	8026	586931	0	0
2024-07-30 18:19:47			0	36750	0	0	0	30451	29060	165282	26944	1068275	45699	111339	0	0	8027	586494	0	0
2024-07-30 18:20:47			0	36726	0	0	0	30441	29060	165138	27055	1068293	45687	111335	0	0	8025	587462	0	0
2024-07-30 18:21:47			0	36736	0	0	0	30449	29060	165278	27142	1068302	45688	111338	0	0	8026	587058	0	0
2024-07-30 18:22:47			0	36758	0	0	0	30459	29060	165290	26854	1068320	45687	111342	0	0	8027	586172	0	0
2024-07-30 18:23:47			0	36739	0	0	0	30451	29070	165374	27050	1068257	45710	111339	0	0	8026	586903	0	0
2024-07-30 18:24:47			0	36744	0	0	0	30444	29060	165298	26814	1068293	45687	111336	0	0	8026	586736	0	0
2024-07-30 18:25:47			0	36755	0	0	0	30449	29070	165326	26965	1068365	45688	111338	0	0	8027	586258	0	0
2024-07-30 18:26:47			0	36754	0	0	0	30441	29070	165366	26970	1068311	45688	111335	0	0	8027	586299	0	0
2024-07-30 18:27:47			0	36756	0	0	0	30441	29050	165346	27029	1068257	45686	111335	0	0	8027	586286	0	0
2024-07-30 18:28:47			0	36724	0	0	0	30446	29060	165366	27265	1068293	45698	111337	0	0	8025	587543	0	0
2024-07-30 18:29:47			0	36749	0	0	0	30446	29060	165382	27180	1068329	45688	111337	0	0	8027	586534	0	0
2024-07-30 18:30:47			0	36754	0	0	0	30451	29050	165358	27218	1068311	45697	111339	0	0	8027	586367	0	0
2024-07-30 18:31:47			0	36738	0	0	0	30423	29050	165338	27019	1068203	45686	111328	0	0	8026	587012	0	0
2024-07-30 18:32:47			0	36740	0	0	0	30425	29060	165302	27218	1068194	45688	111329	0	0	8026	586897	0	0
2024-07-30 18:33:47			0	36722	0	0	0	30423	29050	165338	27067	1068284	45686	111328	0	0	8025	587657	0	0
2024-07-30 18:34:47			0	36715	0	0	0	30420	29050	165438	27007	1068194	45686	111327	0	0	8025	587940	0	0
2024-07-30 18:35:47			0	36707	0	0	0	30425	29050	165530	27156	1068221	45697	111329	0	0	8024	588263	0	0
2024-07-30 18:36:47			0	36701	0	0	0	30444	29040	165346	26948	1068230	45685	111336	0	0	8024	588539	0	0
2024-07-30 18:37:47			0	36694	0	0	0	30441	29050	165506	26994	1068275	45708	111335	0	0	8023	588788	0	0
2024-07-30 18:38:47			0	36679	0	0	0	30433	29040	165526	26960	1068212	45697	111332	0	0	8023	589429	0	0
2024-07-30 18:39:47			0	36682	0	0	0	30433	29040	165510	26998	1068239	45697	111332	0	0	8023	589308	0	0
2024-07-30 18:40:47			0	36694	0	0	0	30438	29050	165506	27010	1068194	45697	111334	0	0	8023	588788	0	0
2024-07-30 18:41:47			0	36696	0	0	0	30436	29050	165498	27293	1068311	45674	111333	0	0	8024	588707	0	0
2024-07-30 18:42:47			0	36699	0	0	0	30446	29050	165566	26684	1068275	45719	111337	0	0	8024	588586	0	0
2024-07-30 18:43:47			0	36698	0	0	0	30441	29030	165650	27118	1068113	45695	111335	0	0	8024	588695	0	0
2024-07-30 18:44:47			0	36684	0	0	0	30446	29040	165562	27081	1068257	45696	111337	0	0	8023	589227	0	0
2024-07-30 18:45:47			0	36672	0	0	0	30441	29050	165538	27242	1068302	45686	111335	0	0	8022	589678	0	0
2024-07-30 18:46:47			0	36687	0	0	0	30441	29050	165522	26868	1068221	45674	111335	0	0	8023	589071	0	0
2024-07-30 18:47:47			0	36671	0	0	0	30446	29060	165526	26968	1068239	45687	111337	0	0	8022	589684	0	0
2024-07-30 18:48:47			0	36670	0	0	0	30433	29050	165614	26878	1068275	45708	111332	0	0	8022	589759	0	0
2024-07-30 18:49:47			0	36672	0	0	0	30438	29050	165622	27242	1068194	45697	111334	0	0	8022	589678	0	0
2024-07-30 18:50:47			0	36659	0	0	0	30431	29050	165714	27116	1068248	45697	111331	0	0	8021	590204	0	0
2024-07-30 18:51:47			0	36648	0	0	0	30428	29050	165674	27038	1068194	45708	111330	0	0	8021	590649	0	0
2024-07-30 18:52:47			0	36664	0	0	0	30425	29040	165710	26824	1068176	45696	111329	0	0	8022	590036	0	0
2024-07-30 18:53:47			0	36641	0	0	0	30441	29040	165722	26875	1068266	45697	111335	0	0	8020	590967	0	0
2024-07-30 18:54:47			0	36633	0	0	0	30433	29050	165778	26961	1068248	45708	111332	0	0	8020	591257	0	0
2024-07-30 18:55:47			0	36647	0	0	0	30441	29050	165682	27109	1068302	45697	111335	0	0	8021	590690	0	0
2024-07-30 18:56:47			0	36657	0	0	0	30441	29050	165782	26899	1068275	45708	111335	0	0	8021	590285	0	0
2024-07-30 18:57:47			0	36638	0	0	0	30438	29050	165802	26847	1068194	45708	111334	0	0	8020	591054	0	0
2024-07-30 18:58:47			0	36632	0	0	0	30428	29050	165746	26994	1068284	45697	111330	0	0	8020	591297	0	0
2024-07-30 18:59:47			0	36640	0	0	0	30433	29050	165762	26837	1068338	45708	111332	0	0	8020	590973	0	0
2024-07-30 19:00:47			0	36640	0	0	0	30431	29030	165746	27055	1068248	45684	111331	0	0	8020	591042	0	0
2024-07-30 19:01:47			0	36625	0	0	0	30441	29040	165726	27005	1068239	45697	111335	0	0	8019	591615	0	0
2024-07-30 19:02:47			0	36618	0	0	0	30441	29040	165798	27118	1068230	45696	111335	0	0	8019	591899	0	0
2024-07-30 19:03:47			0	36621	0	0	0	30444	29040	165838	27156	1068239	45697	111336	0	0	8019	591778	0	0
2024-07-30 19:04:47			0	36618	0	0	0	30436	29050	165938	26916	1068302	45697	111333	0	0	8019	591865	0	0
2024-07-30 19:05:47			0	36612	0	0	0	30433	29050	165910	26795	1068275	45697	111332	0	0	8019	592108	0	0
2024-07-30 19:06:47			0	36593	0	0	0	30441	29050	166050	26942	1068311	45697	111335	0	0	8017	592880	0	0
2024-07-30 19:07:47			0	36599	0	0	0	30449	29050	166026	26823	1068275	45697	111338	0	0	8018	592636	0	0
2024-07-30 19:08:47			0	36590	0	0	0	30449	29060	166050	26786	1068320	45709	111338	0	0	8017	592967	0	0
2024-07-30 19:09:47			0	36599	0	0	0	30444	29050	166061	26817	1068329	45697	111336	0	0	8018	592636	0	0
2024-07-30 19:10:47			0	36584	0	0	0	30431	29040	166093	26830	1068347	45686	111331	0	0	8017	593280	0	0
2024-07-30 19:11:47			0	36604	0	0	0	30438	29050	165990	27168	1068275	45708	111334	0	0	8018	592433	0	0
2024-07-30 19:12:47			0	36598	0	0	0	30433	29040	165922	27227	1068239	45708	111332	0	0	8018	592711	0	0
2024-07-30 19:13:47			0	36607	0	0	0	30431	29050	166022	26800	1068194	45697	111331	0	0	8018	592311	0	0
2024-07-30 19:14:47			0	36588	0	0	0	30436	29040	165970	26824	1068293	45697	111333	0	0	8017	593117	0	0
2024-07-30 19:15:47			0	36582	0	0	0	30438	29050	166013	27253	1068275	45697	111334	0	0	8017	593326	0	0
2024-07-30 19:16:47			0	36594	0	0	0	30431	29040	166029	26788	1068185	45697	111331	0	0	8018	592873	0	0
2024-07-30 19:17:47			0	36592	0	0	0	30431	29050	166033	26871	1068257	45697	111331	0	0	8018	592920	0	0
2024-07-30 19:18:47			0	36600	0	0	0	30428	29040	166026	27005	1068266	45708	111330	0	0	8018	592630	0	0
2024-07-30 19:19:47			0	36592	0	0	0	30428	29040	165970	27076	1068311	45696	111330	0	0	8018	592955	0	0
2024-07-30 19:20:47			0	36602	0	0	0	30431	29040	165990	27095	1068266	45686	111331	0	0	8018	592549	0	0
2024-07-30 19:21:47			0	36590	0	0	0	30444	29040	165977	26951	1068293	45708	111336	0	0	8017	593036	0	0
2024-07-30 19:22:47			0	36615	0	0	0	30433	29050	165890	27081	1068167	45708	111332	0	0	8019	591987	0	0
2024-07-30 19:23:47			0	36614	0	0	0	30431	29040	165926	27166	1068239	45708	111331	0	0	8019	592062	0	0
2024-07-30 19:24:47			0	36620	0	0	0	30423	29040	165878	26847	1068284	45708	111328	0	0	8019	591818	0	0
2024-07-30 19:25:47			0	36635	0	0	0	30420	29040	165866	26734	1068176	45696	111327	0	0	8020	591210	0	0
2024-07-30 19:26:47			0	36617	0	0	0	30420	29040	165942	26795	1068284	45708	111327	0	0	8019	591940	0	0
2024-07-30 19:27:47			0	36614	0	0	0	30425	29030	165854	27008	1068194	45707	111329	0	0	8019	592096	0	0
2024-07-30 19:28:47			0	36621	0	0	0	30423	29030	165930	27192	1068167	45695	111328	0	0	8019	591812	0	0
2024-07-30 19:29:47			0	36629	0	0	0	30425	29030	165866	27263	1068221	45684	111329	0	0	8020	591488	0	0
2024-07-30 19:30:47			0	36627	0	0	0	30423	29030	165890	27059	1068158	45695	111328	0	0	8020	591569	0	0
2024-07-30 19:31:47			0	36639	0	0	0	30420	29030	166002	26942	1068221	45707	111327	0	0	8020	591082	0	0
2024-07-30 19:32:47			0	36638	0	0	0	30425	29030	165846	27163	1068158	45695	111329	0	0	8020	591123	0	0
2024-07-30 19:33:47			0	36615	0	0	0	30428	29030	165886	27048	1068140	45707	111330	0	0	8019	592055	0	0
2024-07-30 19:34:47			0	36636	0	0	0	30420	29030	165750	26951	1068131	45707	111327	0	0	8020	591204	0	0
2024-07-30 19:35:47			0	36651	0	0	0	30415	29020	165862	26873	1068122	45707	111325	0	0	8021	590630	0	0
2024-07-30 19:36:47			0	36645	0	0	0	30418	29020	165842	26961	1068122	45684	111326	0	0	8021	590874	0	0
2024-07-30 19:37:47			0	36644	0	0	0	30407	29020	165918	27088	1068095	45707	111322	0	0	8021	590914	0	0
2024-07-30 19:38:47			0	36654	0	0	0	30412	29020	165938	27161	1068149	45707	111324	0	0	8021	590509	0	0
2024-07-30 19:39:47			0	36644	0	0	0	30410	29020	165950	26918	1068068	45695	111323	0	0	8021	590914	0	0
2024-07-30 19:40:47			0	36652	0	0	0	30420	29010	165886	27095	1068050	45693	111327	0	0	8021	590624	0	0
2024-07-30 19:41:47			0	36642	0	0	0	30412	29020	165890	26734	1068059	45694	111324	0	0	8021	590995	0	0
2024-07-30 19:42:47			0	36648	0	0	0	30412	29010	165878	27111	1068104	45693	111324	0	0	8021	590786	0	0
2024-07-30 19:43:47			0	36669	0	0	0	30412	29020	165926	26720	1068122	45695	111324	0	0	8022	589902	0	0
2024-07-30 19:44:47			0	36663	0	0	0	30405	29020	165866	26765	1068059	45706	111321	0	0	8022	590145	0	0
2024-07-30 19:45:47			0	36661	0	0	0	30397	29010	165810	26844	1068050	45705	111318	0	0	8022	590260	0	0
2024-07-30 19:46:47			0	36659	0	0	0	30407	29020	165898	26779	1068068	45717	111322	0	0	8022	590307	0	0
2024-07-30 19:47:47			0	36650	0	0	0	30405	29020	165870	27196	1068032	45706	111321	0	0	8021	590671	0	0
2024-07-30 19:48:47			0	36650	0	0	0	30405	29020	165830	26866	1068086	45694	111321	0	0	8021	590671	0	0
2024-07-30 19:49:47			0	36647	0	0	0	30405	29010	165850	27138	1067933	45714	111321	0	0	8021	590827	0	0
2024-07-30 19:50:47			0	36636	0	0	0	30407	29010	165946	26720	1068050	45715	111322	0	0	8020	591272	0	0
2024-07-30 19:51:47			0	36652	0	0	0	30376	29000	165874	26812	1068005	45704	111310	0	0	8022	590658	0	0
2024-07-30 19:52:47			0	36634	0	0	0	30384	29010	166074	26738	1067969	45715	111313	0	0	8021	591354	0	0
2024-07-30 19:53:47			0	36617	0	0	0	30397	29010	165930	26710	1067960	45704	111318	0	0	8019	592043	0	0
2024-07-30 19:54:47			0	36616	0	0	0	30402	29000	166014	26955	1068032	45704	111320	0	0	8019	592118	0	0
2024-07-30 19:55:47			0	36611	0	0	0	30394	29000	165986	27185	1067996	45704	111317	0	0	8019	592321	0	0
2024-07-30 19:56:47			0	36606	0	0	0	30392	29000	166078	27071	1067996	45714	111316	0	0	8019	592524	0	0
2024-07-30 19:57:47			0	36598	0	0	0	30399	29000	166089	26981	1068059	45692	111319	0	0	8018	592849	0	0
2024-07-30 19:58:47			0	36595	0	0	0	30392	29000	166138	26993	1068005	45704	111316	0	0	8018	592970	0	0
2024-07-30 19:59:47			0	36584	0	0	0	30386	29010	166054	26837	1068014	45692	111314	0	0	8018	593383	0	0
2024-07-30 20:00:47			0	36613	0	0	0	30386	29000	166190	26615	1068023	45692	111314	0	0	8019	592240	0	0
2024-07-30 20:01:47			0	36589	0	0	0	30394	29000	166145	26951	1067996	45704	111317	0	0	8018	593214	0	0
2024-07-30 20:02:47			0	36583	0	0	0	30381	29000	166149	26977	1067924	45704	111312	0	0	8018	593458	0	0
2024-07-30 20:03:47			0	36592	0	0	0	30379	28990	166093	26845	1067987	45703	111311	0	0	8018	593127	0	0
2024-07-30 20:04:47			0	36597	0	0	0	30376	28990	166034	26890	1067933	45691	111310	0	0	8018	592924	0	0
2024-07-30 20:05:47			0	36620	0	0	0	30384	28990	166110	27067	1067951	45679	111313	0	0	8020	591990	0	0
2024-07-30 20:06:47			0	36611	0	0	0	30381	28990	166006	26878	1067933	45680	111312	0	0	8019	592355	0	0
2024-07-30 20:07:47			0	36604	0	0	0	30366	28990	165886	26977	1067898	45690	111306	0	0	8019	592639	0	0
2024-07-30 20:08:47			0	36625	0	0	0	30358	28990	166014	26850	1067906	45691	111303	0	0	8020	591787	0	0
2024-07-30 20:09:47			0	36630	0	0	0	30363	28990	165942	26705	1067844	45702	111305	0	0	8021	591584	0	0
2024-07-30 20:10:47			0	36633	0	0	0	30353	28980	165902	26885	1067835	45712	111301	0	0	8021	591497	0	0
2024-07-30 20:11:47			0	36618	0	0	0	30355	28980	165946	26824	1067916	45702	111302	0	0	8020	592105	0	0
2024-07-30 20:12:47			0	36638	0	0	0	30358	28980	165926	26844	1067826	45702	111303	0	0	8021	591294	0	0
2024-07-30 20:13:47			0	36627	0	0	0	30350	28980	166058	26930	1067853	45702	111300	0	0	8021	591740	0	0
2024-07-30 20:14:47			0	36608	0	0	0	30361	28970	165994	27062	1067844	45711	111304	0	0	8019	592546	0	0
2024-07-30 20:15:47			0	36592	0	0	0	30353	28970	166022	26791	1067817	45711	111301	0	0	8018	593195	0	0
2024-07-30 20:16:47			0	36598	0	0	0	30353	28960	166169	27003	1067799	45700	111301	0	0	8019	592986	0	0
2024-07-30 20:17:47			0	36583	0	0	0	30358	28970	166205	26838	1067835	45710	111303	0	0	8018	593561	0	0
2024-07-30 20:18:47			0	36554	0	0	0	30350	28960	166189	26968	1067799	45710	111300	0	0	8016	594775	0	0
2024-07-30 20:19:47			0	36543	0	0	0	30350	28960	166241	26785	1067826	45700	111300	0	0	8016	595223	0	0
2024-07-30 20:20:47			0	36533	0	0	0	30350	28950	166305	26649	1067763	45700	111300	0	0	8015	595665	0	0
2024-07-30 20:21:47			0	36548	0	0	0	30345	28940	166449	26835	1067745	45708	111298	0	0	8016	595088	0	0
2024-07-30 20:22:47			0	36519	0	0	0	30335	28950	166457	26816	1067763	45700	111294	0	0	8014	596235	0	0
2024-07-30 20:23:47			0	36500	0	0	0	30342	28950	166405	27024	1067700	45688	111297	0	0	8013	597010	0	0
2024-07-30 20:24:47			0	36497	0	0	0	30350	28930	166385	26793	1067727	45686	111300	0	0	8013	597202	0	0
2024-07-30 20:25:47			0	36529	0	0	0	30350	28930	166497	26944	1067772	45708	111300	0	0	8015	595897	0	0
2024-07-30 20:26:47			0	36521	0	0	0	30353	28950	166465	27010	1067781	45709	111301	0	0	8014	596154	0	0
2024-07-30 20:27:47			0	36521	0	0	0	30353	28940	166381	26981	1067745	45698	111301	0	0	8014	596188	0	0
2024-07-30 20:28:47			0	36520	0	0	0	30353	28950	166461	27045	1067754	45699	111301	0	0	8014	596195	0	0
2024-07-30 20:29:47			0	36499	0	0	0	30345	28940	166557	26774	1067763	45686	111298	0	0	8013	597086	0	0
2024-07-30 20:30:47			0	36483	0	0	0	30335	28950	166541	26800	1067781	45709	111294	0	0	8012	597704	0	0
2024-07-30 20:31:47			0	36481	0	0	0	30348	28950	166577	26857	1067808	45709	111299	0	0	8012	597786	0	0
2024-07-30 20:32:47			0	36489	0	0	0	30348	28960	166613	26779	1067799	45710	111299	0	0	8012	597425	0	0
2024-07-30 20:33:47			0	36457	0	0	0	30345	28950	166613	26698	1067808	45688	111298	0	0	8010	598767	0	0
2024-07-30 20:34:47			0	36487	0	0	0	30342	28950	166569	26798	1067808	45699	111297	0	0	8012	597541	0	0
2024-07-30 20:35:47			0	36482	0	0	0	30342	28940	166613	27046	1067790	45697	111297	0	0	8012	597780	0	0
2024-07-30 20:36:47			0	36485	0	0	0	30350	28940	166625	27055	1067799	45687	111300	0	0	8012	597657	0	0
2024-07-30 20:37:47			0	36493	0	0	0	30361	28950	166633	26797	1067808	45699	111304	0	0	8012	597296	0	0
2024-07-30 20:38:47			0	36504	0	0	0	30350	28950	166513	26873	1067835	45709	111300	0	0	8013	596847	0	0
2024-07-30 20:39:47			0	36500	0	0	0	30358	28950	166393	26859	1067817	45710	111303	0	0	8013	597010	0	0
2024-07-30 20:40:47			0	36509	0	0	0	30353	28940	166449	26852	1067790	45719	111301	0	0	8013	596678	0	0
2024-07-30 20:41:47			0	36511	0	0	0	30350	28950	166377	26812	1067817	45710	111300	0	0	8014	596562	0	0
2024-07-30 20:42:47			0	36513	0	0	0	30348	28950	166469	26830	1067781	45699	111299	0	0	8014	596480	0	0
2024-07-30 20:43:47			0	36526	0	0	0	30353	28940	166329	26849	1067799	45720	111301	0	0	8014	595985	0	0
2024-07-30 20:44:47			0	36540	0	0	0	30358	28940	166293	26727	1067853	45708	111303	0	0	8015	595414	0	0
2024-07-30 20:45:47			0	36542	0	0	0	30361	28940	166341	27069	1067799	45708	111304	0	0	8015	595333	0	0
2024-07-30 20:46:47			0	36551	0	0	0	30358	28950	166289	26996	1067808	45709	111303	0	0	8016	594932	0	0
2024-07-30 20:47:47			0	36556	0	0	0	30371	28950	166225	26583	1067754	45709	111308	0	0	8016	594728	0	0
2024-07-30 20:48:47			0	36566	0	0	0	30361	28950	166221	27256	1067871	45722	111304	0	0	8017	594321	0	0
2024-07-30 20:49:47			0	36580	0	0	0	30355	28950	166185	26920	1067862	45709	111302	0	0	8018	593752	0	0
2024-07-30 20:50:47			0	36570	0	0	0	30358	28950	166205	26974	1067808	45709	111303	0	0	8017	594159	0	0
2024-07-30 20:51:47			0	36574	0	0	0	30363	28950	166105	26800	1067817	45700	111305	0	0	8017	593996	0	0
2024-07-30 20:52:47			0	36599	0	0	0	30361	28970	166153	26753	1067862	45700	111304	0	0	8019	592911	0	0
2024-07-30 20:53:47			0	36628	0	0	0	30358	28950	165994	27033	1067736	45689	111303	0	0	8020	591803	0	0
2024-07-30 20:54:47			0	36606	0	0	0	30368	28940	166030	26986	1067745	45687	111307	0	0	8019	592730	0	0
2024-07-30 20:55:47			0	36617	0	0	0	30355	28950	165926	26942	1067808	45699	111302	0	0	8020	592249	0	0
2024-07-30 20:56:47			0	36626	0	0	0	30361	28950	166062	26986	1067817	45710	111304	0	0	8020	591884	0	0
2024-07-30 20:57:47			0	36641	0	0	0	30355	28950	166014	26948	1067808	45699	111302	0	0	8021	591276	0	0
2024-07-30 20:58:47			0	36635	0	0	0	30363	28950	166018	26589	1067844	45700	111305	0	0	8021	591519	0	0
2024-07-30 20:59:47			0	36655	0	0	0	30361	28950	165966	26663	1067862	45721	111304	0	0	8022	590708	0	0
2024-07-30 21:00:47			0	36639	0	0	0	30371	28950	165926	26830	1067862	45709	111308	0	0	8021	591357	0	0
2024-07-30 21:01:47			0	36640	0	0	0	30363	28960	165938	26767	1067826	45710	111305	0	0	8021	591282	0	0
2024-07-30 21:02:47			0	36668	0	0	0	30368	28950	165826	26946	1067871	45722	111307	0	0	8023	590182	0	0
2024-07-30 21:03:47			0	36647	0	0	0	30361	28950	165930	26916	1067781	45721	111304	0	0	8021	591033	0	0
2024-07-30 21:04:47			0	36657	0	0	0	30358	28960	165958	26948	1067826	45710	111303	0	0	8022	590593	0	0
2024-07-30 21:05:47			0	36655	0	0	0	30361	28950	165914	26779	1067817	45710	111304	0	0	8022	590708	0	0
2024-07-30 21:06:47			0	36658	0	0	0	30366	28950	166002	27026	1067844	45710	111306	0	0	8022	590587	0	0
2024-07-30 21:07:47			0	36632	0	0	0	30355	28950	165930	27142	1067862	45709	111302	0	0	8021	591641	0	0
2024-07-30 21:08:47			0	36631	0	0	0	30348	28950	165902	26788	1067817	45700	111299	0	0	8021	591681	0	0
2024-07-30 21:09:47			0	36621	0	0	0	30348	28950	165938	26956	1067817	45700	111299	0	0	8020	592087	0	0
2024-07-30 21:10:47			0	36624	0	0	0	30361	28960	166026	26882	1067826	45689	111304	0	0	8020	591931	0	0
2024-07-30 21:11:47			0	36629	0	0	0	30350	28950	166046	26854	1067889	45709	111300	0	0	8021	591762	0	0
2024-07-30 21:12:47			0	36616	0	0	0	30342	28930	165970	27046	1067781	45686	111297	0	0	8020	592358	0	0
2024-07-30 21:13:47			0	36612	0	0	0	30350	28950	166078	26783	1067835	45709	111300	0	0	8020	592452	0	0
2024-07-30 21:14:47			0	36615	0	0	0	30337	28950	166074	27104	1067754	45699	111295	0	0	8020	592330	0	0
2024-07-30 21:15:47			0	36608	0	0	0	30342	28940	165986	26946	1067817	45708	111297	0	0	8019	592649	0	0
2024-07-30 21:16:47			0	36602	0	0	0	30348	28940	166058	26979	1067799	45687	111299	0	0	8019	592892	0	0
2024-07-30 21:17:47			0	36606	0	0	0	30345	28940	165962	26857	1067772	45708	111298	0	0	8019	592730	0	0
2024-07-30 21:18:47			0	36585	0	0	0	30350	28950	166133	26842	1067781	45699	111300	0	0	8018	593549	0	0
2024-07-30 21:19:47			0	36593	0	0	0	30348	28940	166141	26805	1067826	45698	111299	0	0	8018	593258	0	0
2024-07-30 21:20:47			0	36568	0	0	0	30350	28930	166221	26719	1067808	45697	111300	0	0	8017	594309	0	0
2024-07-30 21:21:47			0	36553	0	0	0	30342	28950	166201	27255	1067754	45709	111297	0	0	8016	594850	0	0
2024-07-30 21:22:47			0	36568	0	0	0	30337	28950	166229	27022	1067727	45709	111295	0	0	8017	594240	0	0
2024-07-30 21:23:47			0	36560	0	0	0	30329	28940	166173	27010	1067718	45708	111292	0	0	8017	594600	0	0
2024-07-30 21:24:47			0	36525	0	0	0	30316	28930	166261	27092	1067754	45708	111287	0	0	8015	596060	0	0
2024-07-30 21:25:47			0	36519	0	0	0	30322	28950	166501	26753	1067727	45699	111289	0	0	8015	596235	0	0
2024-07-30 21:26:47			0	36513	0	0	0	30314	28930	166561	27005	1067727	45686	111286	0	0	8014	596549	0	0
2024-07-30 21:27:47			0	36503	0	0	0	30311	28930	166449	26672	1067781	45719	111285	0	0	8014	596957	0	0
2024-07-30 21:28:47			0	36470	0	0	0	30309	28930	166617	27013	1067691	45686	111284	0	0	8012	598305	0	0
2024-07-30 21:29:47			0	36450	0	0	0	30311	28920	166801	27175	1067682	45696	111285	0	0	8011	599157	0	0
2024-07-30 21:30:47			0	36467	0	0	0	30306	28920	166733	26883	1067619	45695	111283	0	0	8012	598462	0	0
2024-07-30 21:31:47			0	36451	0	0	0	30311	28920	166781	26918	1067592	45706	111285	0	0	8011	599116	0	0
2024-07-30 21:32:47			0	36451	0	0	0	30309	28920	166773	27017	1067619	45684	111284	0	0	8011	599116	0	0
2024-07-30 21:33:47			0	36446	0	0	0	30311	28920	166721	26981	1067619	45695	111285	0	0	8010	599321	0	0
2024-07-30 21:34:47			0	36429	0	0	0	30314	28910	166865	26955	1067628	45706	111286	0	0	8009	600052	0	0
2024-07-30 21:35:47			0	36414	0	0	0	30311	28920	166869	27223	1067646	45706	111285	0	0	8008	600631	0	0
2024-07-30 21:36:47			0	36426	0	0	0	30303	28910	167005	26967	1067601	45695	111282	0	0	8009	600175	0	0
2024-07-30 21:37:47			0	36417	0	0	0	30298	28900	166961	26965	1067592	45705	111280	0	0	8009	600578	0	0
2024-07-30 21:38:47			0	36403	0	0	0	30288	28900	167005	26845	1067556	45693	111276	0	0	8008	601152	0	0
2024-07-30 21:39:47			0	36399	0	0	0	30293	28900	167121	26883	1067538	45683	111278	0	0	8008	601316	0	0
2024-07-30 21:40:47			0	36379	0	0	0	30298	28900	167081	27050	1067583	45693	111280	0	0	8006	602137	0	0
2024-07-30 21:41:47			0	36377	0	0	0	30298	28900	167081	27102	1067565	45705	111280	0	0	8006	602219	0	0
2024-07-30 21:42:47			0	36383	0	0	0	30309	28900	167181	26889	1067502	45693	111284	0	0	8006	601973	0	0
2024-07-30 21:43:47			0	36369	0	0	0	30301	28900	167165	26930	1067583	45704	111281	0	0	8006	602547	0	0
2024-07-30 21:44:47			0	36371	0	0	0	30298	28900	167181	27038	1067556	45693	111280	0	0	8006	602465	0	0
2024-07-30 21:45:47			0	36378	0	0	0	30298	28900	167105	27185	1067538	45694	111280	0	0	8006	602178	0	0
2024-07-30 21:46:47			0	36380	0	0	0	30293	28900	167173	26611	1067475	45693	111278	0	0	8007	602096	0	0
2024-07-30 21:47:47			0	36364	0	0	0	30285	28900	167125	26717	1067529	45693	111275	0	0	8006	602753	0	0
2024-07-30 21:48:47			0	36383	0	0	0	30293	28900	167253	26753	1067565	45694	111278	0	0	8007	601973	0	0
2024-07-30 21:49:47			0	36372	0	0	0	30298	28900	167257	26987	1067583	45693	111280	0	0	8006	602424	0	0
2024-07-30 21:50:47			0	36353	0	0	0	30288	28890	167245	26682	1067574	45704	111276	0	0	8005	603240	0	0
2024-07-30 21:51:47			0	36354	0	0	0	30283	28890	167281	26800	1067493	45693	111274	0	0	8005	603199	0	0
2024-07-30 21:52:47			0	36350	0	0	0	30262	28880	167333	26987	1067475	45692	111266	0	0	8005	603398	0	0
2024-07-30 21:53:47			0	36337	0	0	0	30270	28900	167369	26981	1067502	45704	111269	0	0	8004	603863	0	0
2024-07-30 21:54:47			0	36338	0	0	0	30270	28890	167445	26899	1067466	45693	111269	0	0	8004	603856	0	0
2024-07-30 21:55:47			0	36308	0	0	0	30264	28880	167565	26928	1067475	45704	111267	0	0	8003	605127	0	0
2024-07-30 21:56:47			0	36297	0	0	0	30283	28880	167685	27005	1067448	45704	111274	0	0	8002	605580	0	0
2024-07-30 21:57:47			0	36306	0	0	0	30293	28880	167661	27130	1067421	45714	111278	0	0	8002	605209	0	0
2024-07-30 21:58:47			0	36301	0	0	0	30296	28880	167673	27230	1067475	45704	111279	0	0	8002	605415	0	0
2024-07-30 21:59:47			0	36285	0	0	0	30285	28890	167657	26800	1067511	45715	111275	0	0	8001	606040	0	0
2024-07-30 22:00:47			0	36293	0	0	0	30283	28880	167721	27208	1067502	45704	111274	0	0	8001	605745	0	0
2024-07-30 22:01:47			0	36287	0	0	0	30285	28880	167677	27182	1067466	45703	111275	0	0	8001	605992	0	0
2024-07-30 22:02:47			0	36294	0	0	0	30285	28880	167657	27192	1067529	45704	111275	0	0	8001	605704	0	0
2024-07-30 22:03:47			0	36293	0	0	0	30275	28890	167757	27100	1067565	45715	111271	0	0	8002	605710	0	0
2024-07-30 22:04:47			0	36282	0	0	0	30267	28880	167681	27142	1067493	45703	111268	0	0	8001	606198	0	0
2024-07-30 22:05:47			0	36285	0	0	0	30264	28880	167709	26772	1067475	45692	111267	0	0	8001	606075	0	0
2024-07-30 22:06:47			0	36277	0	0	0	30272	28880	167749	26800	1067412	45703	111270	0	0	8001	606405	0	0
2024-07-30 22:07:47			0	36277	0	0	0	30264	28880	167737	26559	1067439	45703	111267	0	0	8001	606405	0	0
2024-07-30 22:08:47			0	36262	0	0	0	30270	28870	167821	26873	1067403	45691	111269	0	0	8000	607059	0	0
2024-07-30 22:09:47			0	36267	0	0	0	30251	28880	167853	26979	1067358	45691	111262	0	0	8000	606817	0	0
2024-07-30 22:10:47			0	36257	0	0	0	30225	28870	167889	26904	1067322	45691	111252	0	0	8000	607265	0	0
2024-07-30 22:11:47			0	36257	0	0	0	30238	28860	167877	26958	1067349	45678	111257	0	0	8000	607301	0	0
2024-07-30 22:12:47			0	36246	0	0	0	30236	28860	167869	26809	1067295	45689	111256	0	0	7999	607755	0	0
2024-07-30 22:13:47			0	36254	0	0	0	30236	28860	167941	26585	1067331	45690	111256	0	0	8000	607424	0	0
2024-07-30 22:14:47			0	36258	0	0	0	30231	28850	167949	26993	1067286	45688	111254	0	0	8000	607294	0	0
2024-07-30 22:15:47			0	36253	0	0	0	30233	28860	167909	26993	1067295	45701	111255	0	0	8000	607466	0	0
2024-07-30 22:16:47			0	36257	0	0	0	30231	28840	167901	26582	1067295	45688	111254	0	0	8000	607371	0	0
2024-07-30 22:17:47			0	36261	0	0	0	30231	28840	167929	26840	1067187	45700	111254	0	0	8000	607206	0	0
2024-07-30 22:18:47			0	36244	0	0	0	30223	28830	167953	26897	1067223	45708	111251	0	0	7999	607943	0	0
2024-07-30 22:19:47			0	36231	0	0	0	30223	28840	167929	27007	1067259	45699	111251	0	0	7999	608446	0	0
2024-07-30 22:20:47			0	36232	0	0	0	30225	28830	168109	26804	1067223	45698	111252	0	0	7999	608440	0	0
2024-07-30 22:21:47			0	36233	0	0	0	30212	28830	168049	26816	1067223	45686	111247	0	0	7999	608398	0	0
2024-07-30 22:22:47			0	36226	0	0	0	30215	28830	168097	26970	1067223	45698	111248	0	0	7998	608688	0	0
2024-07-30 22:23:47			0	36221	0	0	0	30215	28840	168057	26958	1067259	45699	111248	0	0	7998	608859	0	0
2024-07-30 22:24:47			0	36213	0	0	0	30212	28830	168157	26786	1067196	45698	111247	0	0	7998	609226	0	0
2024-07-30 22:25:47			0	36188	0	0	0	30220	28830	168205	26573	1067133	45708	111250	0	0	7996	610261	0	0
2024-07-30 22:26:47			0	36177	0	0	0	30205	28820	168309	26944	1067196	45685	111244	0	0	7996	610753	0	0
2024-07-30 22:27:47			0	36168	0	0	0	30210	28820	168373	26783	1067205	45698	111246	0	0	7995	611126	0	0
2024-07-30 22:28:47			0	36156	0	0	0	30212	28820	168421	26705	1067124	45698	111247	0	0	7994	611624	0	0
2024-07-30 22:29:47			0	36143	0	0	0	30210	28820	168577	26580	1067151	45698	111246	0	0	7993	612164	0	0
2024-07-30 22:30:47			0	36143	0	0	0	30205	28820	168553	26576	1067142	45685	111244	0	0	7993	612164	0	0
2024-07-30 22:31:47			0	36119	0	0	0	30199	28810	168621	26852	1067044	45696	111242	0	0	7992	613197	0	0
2024-07-30 22:32:47			0	36126	0	0	0	30202	28810	168645	26804	1067097	45696	111243	0	0	7992	612906	0	0
2024-07-30 22:33:47			0	36129	0	0	0	30189	28810	168593	26724	1067106	45684	111238	0	0	7993	612781	0	0
2024-07-30 22:34:47			0	36124	0	0	0	30174	28810	168633	26913	1067026	45696	111232	0	0	7993	612989	0	0
2024-07-30 22:35:47			0	36104	0	0	0	30176	28800	168717	26653	1067008	45683	111233	0	0	7992	613856	0	0
2024-07-30 22:36:47			0	36097	0	0	0	30179	28790	168705	26833	1066990	45682	111234	0	0	7991	614183	0	0
2024-07-30 22:37:47			0	36104	0	0	0	30171	28800	168785	26857	1067008	45695	111231	0	0	7992	613856	0	0
2024-07-30 22:38:47			0	36097	0	0	0	30176	28800	168653	26887	1066945	45706	111233	0	0	7991	614147	0	0
2024-07-30 22:39:47			0	36091	0	0	0	30181	28790	168653	26698	1066990	45682	111235	0	0	7991	614433	0	0
2024-07-30 22:40:47			0	36069	0	0	0	30176	28800	168693	26975	1067026	45706	111233	0	0	7989	615314	0	0
2024-07-30 22:41:47			0	36077	0	0	0	30174	28790	168825	27100	1066963	45705	111232	0	0	7990	615016	0	0
2024-07-30 22:42:47			0	36081	0	0	0	30181	28790	168769	26883	1066981	45694	111235	0	0	7990	614849	0	0
2024-07-30 22:43:47			0	36081	0	0	0	30186	28790	168813	26849	1066990	45705	111237	0	0	7990	614849	0	0
2024-07-30 22:44:47			0	36059	0	0	0	30181	28800	168765	26989	1067026	45695	111235	0	0	7989	615731	0	0
2024-07-30 22:45:47			0	36071	0	0	0	30179	28790	168753	26991	1066990	45694	111234	0	0	7989	615266	0	0
2024-07-30 22:46:47			0	36084	0	0	0	30174	28790	168737	26833	1066954	45682	111232	0	0	7990	614725	0	0
2024-07-30 22:47:47			0	36077	0	0	0	30181	28790	168681	26875	1066954	45682	111235	0	0	7990	615016	0	0
2024-07-30 22:48:47			0	36069	0	0	0	30171	28780	168777	26956	1066882	45693	111231	0	0	7989	615385	0	0
2024-07-30 22:49:47			0	36062	0	0	0	30176	28790	168813	26788	1066981	45694	111233	0	0	7989	615642	0	0
2024-07-30 22:50:47			0	36062	0	0	0	30176	28790	168809	26755	1066954	45694	111233	0	0	7989	615642	0	0
2024-07-30 22:51:47			0	36050	0	0	0	30174	28780	168877	26575	1066972	45704	111232	0	0	7988	616178	0	0
2024-07-30 22:52:47			0	36051	0	0	0	30171	28780	168785	26847	1066909	45681	111231	0	0	7988	616136	0	0
2024-07-30 22:53:47			0	36067	0	0	0	30171	28780	168757	26654	1066909	45693	111231	0	0	7989	615469	0	0
2024-07-30 22:54:47			0	36067	0	0	0	30176	28780	168813	26613	1066918	45681	111233	0	0	7989	615469	0	0
2024-07-30 22:55:47			0	36065	0	0	0	30161	28770	168693	26519	1066873	45692	111227	0	0	7989	615588	0	0
2024-07-30 22:56:47			0	36064	0	0	0	30174	28780	168813	27045	1066963	45693	111232	0	0	7989	615594	0	0
2024-07-30 22:57:47			0	36087	0	0	0	30166	28770	168745	26667	1066927	45692	111229	0	0	7991	614671	0	0
2024-07-30 22:58:47			0	36076	0	0	0	30166	28770	168809	27189	1066891	45691	111229	0	0	7990	615129	0	0
2024-07-30 22:59:47			0	36067	0	0	0	30158	28770	168857	26739	1066980	45692	111226	0	0	7989	615504	0	0
2024-07-30 23:00:47			0	36079	0	0	0	30161	28760	168705	26840	1066882	45691	111227	0	0	7990	615040	0	0
2024-07-30 23:01:47			0	36082	0	0	0	30155	28780	168809	26949	1066945	45693	111225	0	0	7990	614843	0	0
2024-07-30 23:02:47			0	36073	0	0	0	30153	28770	168693	26608	1066891	45679	111224	0	0	7990	615254	0	0
2024-07-30 23:03:47			0	36081	0	0	0	30145	28770	168701	26830	1066864	45679	111221	0	0	7991	614921	0	0
2024-07-30 23:04:47			0	36071	0	0	0	30150	28770	168741	26989	1066891	45679	111223	0	0	7990	615338	0	0
2024-07-30 23:05:47			0	36074	0	0	0	30145	28750	168741	26628	1066810	45690	111221	0	0	7990	615284	0	0
2024-07-30 23:06:47			0	36069	0	0	0	30140	28760	168733	26795	1066801	45679	111219	0	0	7990	615457	0	0
2024-07-30 23:07:47			0	36063	0	0	0	30140	28750	168713	26826	1066810	45690	111219	0	0	7989	615743	0	0
2024-07-30 23:08:47			0	36059	0	0	0	30142	28760	168813	26684	1066774	45691	111220	0	0	7989	615874	0	0
2024-07-30 23:09:47			0	36067	0	0	0	30140	28760	168721	26833	1066765	45691	111219	0	0	7990	615540	0	0
2024-07-30 23:10:47			0	36059	0	0	0	30137	28750	168757	27092	1066801	45689	111218	0	0	7989	615909	0	0
2024-07-30 23:11:47			0	36054	0	0	0	30135	28750	168773	26916	1066729	45678	111217	0	0	7989	616118	0	0
2024-07-30 23:12:47			0	36068	0	0	0	30135	28750	168809	26727	1066756	45678	111217	0	0	7990	615534	0	0
2024-07-30 23:13:47			0	36072	0	0	0	30135	28750	168765	27067	1066747	45689	111217	0	0	7990	615367	0	0
2024-07-30 23:14:47			0	36075	0	0	0	30135	28740	168769	26890	1066729	45688	111217	0	0	7990	615278	0	0
2024-07-30 23:15:47			0	36082	0	0	0	30132	28740	168681	26899	1066738	45689	111216	0	0	7991	614986	0	0
2024-07-30 23:16:47			0	36074	0	0	0	30116	28740	168733	26809	1066702	45699	111210	0	0	7990	615319	0	0
2024-07-30 23:17:47			0	36081	0	0	0	30127	28740	168757	26689	1066648	45688	111214	0	0	7991	615028	0	0
2024-07-30 23:18:47			0	36074	0	0	0	30116	28730	168797	26856	1066693	45699	111210	0	0	7990	615355	0	0
2024-07-30 23:19:47			0	36065	0	0	0	30111	28730	168801	26994	1066666	45676	111208	0	0	7990	615731	0	0
2024-07-30 23:20:47			0	36084	0	0	0	30114	28730	168797	26698	1066693	45676	111209	0	0	7991	614938	0	0
2024-07-30 23:21:47			0	36084	0	0	0	30114	28730	168865	26634	1066684	45687	111209	0	0	7991	614938	0	0
2024-07-30 23:22:47			0	36084	0	0	0	30106	28730	168853	27083	1066657	45687	111206	0	0	7991	614938	0	0
2024-07-30 23:23:47			0	36052	0	0	0	30116	28720	168753	26994	1066648	45698	111210	0	0	7989	616309	0	0
2024-07-30 23:24:47			0	36089	0	0	0	30114	28720	168797	26937	1066558	45686	111209	0	0	7991	614765	0	0
2024-07-30 23:25:47			0	36090	0	0	0	30116	28720	168753	26847	1066648	45687	111210	0	0	7991	614724	0	0
2024-07-30 23:26:47			0	36091	0	0	0	30119	28720	168781	26597	1066594	45687	111211	0	0	7991	614682	0	0
2024-07-30 23:27:47			0	36098	0	0	0	30109	28720	168721	26870	1066594	45687	111207	0	0	7992	614391	0	0
2024-07-30 23:28:47			0	36088	0	0	0	30111	28720	168757	26970	1066621	45698	111208	0	0	7991	614807	0	0
2024-07-30 23:29:47			0	36098	0	0	0	30109	28720	168693	26720	1066639	45674	111207	0	0	7992	614391	0	0
2024-07-30 23:30:47			0	36056	0	0	0	30106	28720	168797	27027	1066612	45674	111206	0	0	7989	616142	0	0
2024-07-30 23:31:47			0	36074	0	0	0	30109	28730	168865	26928	1066549	45687	111207	0	0	7991	615355	0	0
2024-07-30 23:32:47			0	36055	0	0	0	30098	28720	168901	26942	1066639	45697	111203	0	0	7990	616183	0	0
2024-07-30 23:33:47			0	36033	0	0	0	30096	28710	168949	26946	1066549	45697	111202	0	0	7988	617138	0	0
2024-07-30 23:34:47			0	36031	0	0	0	30096	28720	168957	26981	1066558	45674	111202	0	0	7988	617186	0	0
2024-07-30 23:35:47			0	36000	0	0	0	30098	28720	169033	26746	1066585	45697	111203	0	0	7986	618482	0	0
2024-07-30 23:36:47			0	36017	0	0	0	30101	28710	169073	26752	1066522	45674	111204	0	0	7987	617807	0	0
2024-07-30 23:37:47			0	35999	0	0	0	30093	28710	169085	26762	1066522	45686	111201	0	0	7986	618559	0	0
2024-07-30 23:38:47			0	35997	0	0	0	30096	28710	169113	26675	1066549	45686	111202	0	0	7986	618643	0	0
2024-07-30 23:39:47			0	35994	0	0	0	30085	28710	169225	26873	1066513	45696	111198	0	0	7986	618769	0	0
2024-07-30 23:40:47			0	35976	0	0	0	30085	28710	169201	26849	1066513	45673	111198	0	0	7985	619523	0	0
2024-07-30 23:41:47			0	35984	0	0	0	30083	28700	169261	26864	1066504	45673	111197	0	0	7985	619223	0	0
2024-07-30 23:42:47			0	35976	0	0	0	30072	28700	169317	26817	1066451	45685	111193	0	0	7985	619558	0	0
2024-07-30 23:43:47			0	35967	0	0	0	30083	28700	169353	26722	1066424	45685	111197	0	0	7984	619936	0	0
2024-07-30 23:44:47			0	35977	0	0	0	30088	28690	169233	27019	1066487	45695	111199	0	0	7985	619552	0	0
2024-07-30 23:45:47			0	35982	0	0	0	30085	28700	169345	26654	1066549	45684	111198	0	0	7985	619307	0	0
2024-07-30 23:46:47			0	35974	0	0	0	30083	28700	169305	26987	1066496	45684	111197	0	0	7985	619642	0	0
2024-07-30 23:47:47			0	35968	0	0	0	30088	28700	169305	27095	1066558	45708	111199	0	0	7984	619894	0	0
2024-07-30 23:48:47			0	35986	0	0	0	30096	28690	169381	26866	1066433	45673	111202	0	0	7985	619175	0	0
2024-07-30 23:49:47			0	35978	0	0	0	30098	28690	169413	26686	1066433	45695	111203	0	0	7985	619511	0	0
2024-07-30 23:50:47			0	35946	0	0	0	30088	28690	169361	26632	1066513	45684	111199	0	0	7983	620852	0	0
2024-07-30 23:51:47			0	35943	0	0	0	30088	28690	169505	26863	1066513	45673	111199	0	0	7983	620978	0	0
2024-07-30 23:52:47			0	35935	0	0	0	30083	28700	169369	27020	1066415	45684	111197	0	0	7982	621278	0	0
2024-07-30 23:53:47			0	35923	0	0	0	30085	28690	169649	26800	1066540	45695	111198	0	0	7982	621818	0	0
2024-07-30 23:54:47			0	35921	0	0	0	30067	28700	169661	26984	1066442	45673	111191	0	0	7982	621866	0	0
2024-07-30 23:55:47			0	35908	0	0	0	30067	28680	169649	26809	1066361	45694	111191	0	0	7981	622484	0	0
2024-07-30 23:56:47			0	35887	0	0	0	30059	28680	169753	26928	1066415	45683	111188	0	0	7980	623368	0	0
2024-07-30 23:57:47			0	35856	0	0	0	30067	28690	169876	26585	1066370	45683	111191	0	0	7978	624637	0	0
2024-07-30 23:58:47			0	35845	0	0	0	30062	28680	169892	26791	1066325	45682	111189	0	0	7977	625137	0	0
2024-07-30 23:59:47			0	35832	0	0	0	30059	28680	169908	26434	1066433	45671	111188	0	0	7977	625685	0	0
2024-07-31 00:00:47			0	35841	0	0	0	30054	28670	169972	26526	1066343	45670	111186	0	0	7977	625342	0	0
2024-07-31 00:01:47			0	35825	0	0	0	30059	28670	169996	27013	1066316	45670	111188	0	0	7976	626017	0	0
2024-07-31 00:02:47			0	35808	0	0	0	30051	28670	169936	26672	1066370	45681	111185	0	0	7975	626735	0	0
2024-07-31 00:03:47			0	35810	0	0	0	30059	28670	169976	26993	1066316	45681	111188	0	0	7975	626650	0	0
2024-07-31 00:04:47			0	35817	0	0	0	30067	28670	169932	27216	1066397	45681	111191	0	0	7975	626355	0	0
2024-07-31 00:05:47			0	35816	0	0	0	30070	28660	170016	26786	1066325	45680	111192	0	0	7975	626433	0	0
2024-07-31 00:06:47			0	35830	0	0	0	30057	28650	169992	26800	1066316	45691	111187	0	0	7976	625878	0	0
2024-07-31 00:07:47			0	35824	0	0	0	30064	28670	170044	26798	1066397	45704	111190	0	0	7976	626059	0	0
2024-07-31 00:08:47			0	35821	0	0	0	30057	28650	170060	26923	1066316	45680	111187	0	0	7976	626258	0	0
2024-07-31 00:09:47			0	35817	0	0	0	30064	28660	170064	26665	1066388	45681	111190	0	0	7975	626391	0	0
2024-07-31 00:10:47			0	35828	0	0	0	30062	28660	170004	26743	1066415	45681	111189	0	0	7976	625927	0	0
2024-07-31 00:11:47			0	35830	0	0	0	30054	28670	170048	26408	1066343	45704	111186	0	0	7976	625806	0	0
2024-07-31 00:12:47			0	35828	0	0	0	30049	28660	169984	26653	1066361	45681	111184	0	0	7976	625927	0	0
2024-07-31 00:13:47			0	35831	0	0	0	30051	28660	169920	26542	1066307	45704	111185	0	0	7976	625800	0	0
2024-07-31 00:14:47			0	35825	0	0	0	30046	28660	169892	27036	1066271	45691	111183	0	0	7976	626053	0	0
2024-07-31 00:15:47			0	35858	0	0	0	30044	28660	169873	26955	1066271	45680	111182	0	0	7978	624661	0	0
2024-07-31 00:16:47			0	35850	0	0	0	30044	28650	169856	27105	1066262	45669	111182	0	0	7978	625035	0	0
2024-07-31 00:17:47			0	35869	0	0	0	30033	28650	169792	26535	1066262	45680	111178	0	0	7979	624234	0	0
2024-07-31 00:18:47			0	35849	0	0	0	30041	28650	169860	26939	1066280	45679	111181	0	0	7978	625077	0	0
2024-07-31 00:19:47			0	35834	0	0	0	30036	28650	169872	26956	1066235	45691	111179	0	0	7977	625710	0	0
2024-07-31 00:20:47			0	35852	0	0	0	30031	28650	169829	26785	1066253	45679	111177	0	0	7978	624950	0	0
2024-07-31 00:21:47			0	35865	0	0	0	30033	28640	169929	26798	1066181	45678	111178	0	0	7979	624439	0	0
2024-07-31 00:22:47			0	35845	0	0	0	30036	28650	169924	26771	1066226	45690	111179	0	0	7978	625246	0	0
2024-07-31 00:23:47			0	35840	0	0	0	30025	28650	169948	26641	1066226	45668	111175	0	0	7977	625457	0	0
2024-07-31 00:24:47			0	35850	0	0	0	30020	28640	169916	26746	1066235	45667	111173	0	0	7978	625071	0	0
2024-07-31 00:25:47			0	35854	0	0	0	30020	28630	169900	26887	1066109	45677	111173	0	0	7978	624938	0	0
2024-07-31 00:26:47			0	35868	0	0	0	30005	28640	169873	26814	1066181	45667	111167	0	0	7979	624312	0	0
2024-07-31 00:27:47			0	35859	0	0	0	30002	28630	169904	26896	1066118	45689	111166	0	0	7979	624728	0	0
2024-07-31 00:28:47			0	35873	0	0	0	30007	28630	169893	26762	1066091	45678	111168	0	0	7980	624138	0	0
2024-07-31 00:29:47			0	35852	0	0	0	30010	28610	169869	27024	1066136	45666	111169	0	0	7978	625095	0	0
2024-07-31 00:30:47			0	35869	0	0	0	30005	28620	169821	27100	1066100	45688	111167	0	0	7979	624342	0	0
2024-07-31 00:31:47			0	35879	0	0	0	30002	28620	169817	27038	1066010	45688	111166	0	0	7980	623921	0	0
2024-07-31 00:32:47			0	35867	0	0	0	30002	28620	169721	27111	1066100	45666	111166	0	0	7979	624427	0	0
2024-07-31 00:33:47			0	35883	0	0	0	29999	28620	169745	27086	1066037	45676	111165	0	0	7980	623753	0	0
2024-07-31 00:34:47			0	35876	0	0	0	29997	28600	169749	27007	1066055	45674	111164	0	0	7980	624120	0	0
2024-07-31 00:35:47			0	35904	0	0	0	29999	28600	169745	26932	1066037	45674	111165	0	0	7981	622941	0	0
2024-07-31 00:36:47			0	35892	0	0	0	29992	28610	169733	26660	1066019	45665	111162	0	0	7981	623410	0	0
2024-07-31 00:37:47			0	35896	0	0	0	29992	28600	169769	26674	1066028	45664	111162	0	0	7981	623278	0	0
2024-07-31 00:38:47			0	35898	0	0	0	29984	28600	169837	27178	1066001	45686	111159	0	0	7981	623193	0	0
2024-07-31 00:39:47			0	35888	0	0	0	29992	28600	169833	26902	1066037	45686	111162	0	0	7981	623614	0	0
2024-07-31 00:40:47			0	35885	0	0	0	29992	28600	169677	26906	1066028	45664	111162	0	0	7980	623741	0	0
2024-07-31 00:41:47			0	35901	0	0	0	29986	28600	169769	26953	1066028	45664	111160	0	0	7982	623067	0	0
2024-07-31 00:42:47			0	35892	0	0	0	29984	28590	169801	26738	1065984	45685	111159	0	0	7981	623482	0	0
2024-07-31 00:43:47			0	35907	0	0	0	29981	28580	169797	27034	1066028	45672	111158	0	0	7982	622887	0	0
2024-07-31 00:44:47			0	35891	0	0	0	29984	28590	169857	26561	1065957	45673	111159	0	0	7981	623524	0	0
2024-07-31 00:45:47			0	35900	0	0	0	29979	28590	169789	26798	1065966	45686	111157	0	0	7982	623145	0	0
2024-07-31 00:46:47			0	35893	0	0	0	29984	28590	169801	26748	1065984	45673	111159	0	0	7981	623440	0	0
2024-07-31 00:47:47			0	35897	0	0	0	29976	28590	169773	26941	1065992	45674	111156	0	0	7981	623272	0	0
2024-07-31 00:48:47			0	35885	0	0	0	29992	28580	169825	26896	1065966	45672	111162	0	0	7980	623813	0	0
2024-07-31 00:49:47			0	35900	0	0	0	29979	28590	169761	26885	1066010	45673	111157	0	0	7982	623145	0	0
2024-07-31 00:50:47			0	35906	0	0	0	29994	28590	169709	26620	1066010	45696	111163	0	0	7982	622893	0	0
2024-07-31 00:51:47			0	35908	0	0	0	29992	28580	169709	26795	1065921	45695	111162	0	0	7982	622845	0	0
2024-07-31 00:52:47			0	35904	0	0	0	29981	28580	169757	26873	1065885	45684	111158	0	0	7982	623013	0	0
2024-07-31 00:53:47			0	35906	0	0	0	29976	28580	169609	26741	1065948	45672	111156	0	0	7982	622929	0	0
2024-07-31 00:54:47			0	35913	0	0	0	29979	28580	169661	26720	1065912	45672	111157	0	0	7982	622635	0	0
2024-07-31 00:55:47			0	35920	0	0	0	29979	28580	169741	26504	1065939	45684	111157	0	0	7983	622340	0	0
2024-07-31 00:56:47			0	35915	0	0	0	29966	28580	169661	26646	1065912	45684	111152	0	0	7983	622550	0	0
2024-07-31 00:57:47			0	35890	0	0	0	29989	28570	169657	26746	1065957	45671	111161	0	0	7981	623638	0	0
2024-07-31 00:58:47			0	35898	0	0	0	29971	28580	169617	26729	1065885	45684	111154	0	0	7981	623266	0	0
2024-07-31 00:59:47			0	35914	0	0	0	29966	28580	169709	26778	1065948	45684	111152	0	0	7983	622592	0	0
2024-07-31 01:00:47			0	35913	0	0	0	29973	28570	169693	26932	1065876	45694	111155	0	0	7982	622671	0	0
2024-07-31 01:01:47			0	35924	0	0	0	29971	28580	169645	26755	1065912	45684	111154	0	0	7983	622172	0	0
2024-07-31 01:02:47			0	35894	0	0	0	29966	28580	169693	26864	1065885	45684	111152	0	0	7981	623434	0	0
2024-07-31 01:03:47			0	35919	0	0	0	29968	28580	169585	26701	1065894	45684	111153	0	0	7983	622382	0	0
2024-07-31 01:04:47			0	35918	0	0	0	29976	28570	169573	26805	1065894	45671	111156	0	0	7983	622460	0	0
2024-07-31 01:05:47			0	35924	0	0	0	29963	28570	169573	26573	1065948	45671	111151	0	0	7983	622208	0	0
2024-07-31 01:06:47			0	35943	0	0	0	29968	28580	169653	26941	1065858	45672	111153	0	0	7984	621374	0	0
2024-07-31 01:07:47			0	35936	0	0	0	29955	28580	169521	26498	1065858	45684	111148	0	0	7984	621668	0	0
2024-07-31 01:08:47			0	35937	0	0	0	29961	28570	169489	26680	1065903	45683	111150	0	0	7984	621662	0	0
2024-07-31 01:09:47			0	35926	0	0	0	29963	28560	169513	26538	1065858	45670	111151	0	0	7983	622160	0	0
2024-07-31 01:10:47			0	35945	0	0	0	29963	28570	169613	26661	1065876	45683	111151	0	0	7984	621326	0	0
2024-07-31 01:11:47			0	35952	0	0	0	29961	28560	169573	26628	1065822	45692	111150	0	0	7985	621068	0	0
2024-07-31 01:12:47			0	35951	0	0	0	29955	28560	169613	26925	1065831	45682	111148	0	0	7985	621110	0	0
2024-07-31 01:13:47			0	35947	0	0	0	29961	28570	169473	26804	1065840	45671	111150	0	0	7985	621242	0	0
2024-07-31 01:14:47			0	35951	0	0	0	29958	28550	169621	26654	1065840	45681	111149	0	0	7985	621146	0	0
2024-07-31 01:15:47			0	35952	0	0	0	29955	28560	169601	26767	1065831	45682	111148	0	0	7985	621068	0	0
2024-07-31 01:16:47			0	35951	0	0	0	29945	28550	169529	26802	1065840	45669	111144	0	0	7985	621146	0	0
2024-07-31 01:17:47			0	35973	0	0	0	29942	28550	169573	26738	1065786	45659	111143	0	0	7986	620223	0	0
2024-07-31 01:18:47			0	35971	0	0	0	29940	28550	169521	26682	1065777	45681	111142	0	0	7986	620306	0	0
2024-07-31 01:19:47			0	35972	0	0	0	29940	28560	169453	26654	1065822	45669	111142	0	0	7986	620229	0	0
2024-07-31 01:20:47			0	35966	0	0	0	29942	28560	169425	26880	1065795	45681	111143	0	0	7986	620480	0	0
2024-07-31 01:21:47			0	35953	0	0	0	29940	28550	169445	26738	1065723	45681	111142	0	0	7985	621062	0	0
2024-07-31 01:22:47			0	35968	0	0	0	29932	28540	169461	26700	1065768	45680	111139	0	0	7986	620468	0	0
2024-07-31 01:23:47			0	35966	0	0	0	29935	28540	169425	26994	1065795	45668	111140	0	0	7986	620552	0	0
2024-07-31 01:24:47			0	35974	0	0	0	29932	28540	169485	26887	1065651	45657	111139	0	0	7987	620216	0	0
2024-07-31 01:25:47			0	35976	0	0	0	29929	28540	169389	26925	1065687	45680	111138	0	0	7987	620133	0	0
2024-07-31 01:26:47			0	35976	0	0	0	29924	28550	169501	26679	1065750	45669	111136	0	0	7987	620097	0	0
2024-07-31 01:27:47			0	35981	0	0	0	29935	28540	169437	26984	1065768	45668	111140	0	0	7987	619923	0	0
2024-07-31 01:28:47			0	35977	0	0	0	29929	28530	169405	26887	1065723	45667	111138	0	0	7987	620126	0	0
2024-07-31 01:29:47			0	35976	0	0	0	29937	28540	169385	26797	1065705	45667	111141	0	0	7987	620133	0	0
2024-07-31 01:30:47			0	35993	0	0	0	29932	28540	169425	27201	1065741	45668	111139	0	0	7988	619420	0	0
2024-07-31 01:31:47			0	35972	0	0	0	29929	28540	169233	26686	1065705	45702	111138	0	0	7986	620300	0	0
2024-07-31 01:32:47			0	35986	0	0	0	29919	28530	169489	26578	1065669	45657	111134	0	0	7987	619749	0	0
2024-07-31 01:33:47			0	35970	0	0	0	29922	28540	169345	27157	1065678	45667	111135	0	0	7986	620384	0	0
2024-07-31 01:34:47			0	35977	0	0	0	29924	28530	169413	26814	1065642	45690	111136	0	0	7987	620126	0	0
2024-07-31 01:35:47			0	35985	0	0	0	29916	28530	169469	27034	1065615	45679	111133	0	0	7987	619791	0	0
2024-07-31 01:36:47			0	35971	0	0	0	29919	28530	169425	26830	1065696	45657	111134	0	0	7987	620378	0	0
2024-07-31 01:37:47			0	35982	0	0	0	29914	28530	169441	26814	1065615	45679	111132	0	0	7987	619917	0	0
2024-07-31 01:38:47			0	35983	0	0	0	29909	28530	169349	26653	1065615	45679	111130	0	0	7987	619875	0	0
2024-07-31 01:39:47			0	35985	0	0	0	29914	28520	169425	26741	1065624	45678	111132	0	0	7987	619827	0	0
2024-07-31 01:40:47			0	35983	0	0	0	29909	28520	169361	26897	1065624	45666	111130	0	0	7987	619911	0	0
2024-07-31 01:41:47			0	35991	0	0	0	29919	28520	169449	27045	1065651	45678	111134	0	0	7988	619575	0	0
2024-07-31 01:42:47			0	35991	0	0	0	29922	28520	169389	26693	1065615	45688	111135	0	0	7988	619575	0	0
2024-07-31 01:43:47			0	35993	0	0	0	29914	28520	169385	27015	1065642	45688	111132	0	0	7988	619492	0	0
2024-07-31 01:44:47			0	35990	0	0	0	29916	28520	169345	26708	1065642	45677	111133	0	0	7988	619617	0	0
2024-07-31 01:45:47			0	35984	0	0	0	29916	28520	169437	26956	1065669	45666	111133	0	0	7987	619869	0	0
2024-07-31 01:46:47			0	35987	0	0	0	29916	28520	169477	26991	1065651	45678	111133	0	0	7987	619743	0	0
2024-07-31 01:47:47			0	35996	0	0	0	29919	28510	169309	26608	1065597	45666	111134	0	0	7988	619402	0	0
2024-07-31 01:48:47			0	35996	0	0	0	29914	28520	169325	26955	1065624	45689	111132	0	0	7988	619366	0	0
2024-07-31 01:49:47			0	35995	0	0	0	29901	28510	169313	27066	1065606	45688	111127	0	0	7988	619444	0	0
2024-07-31 01:50:47			0	35995	0	0	0	29896	28510	169417	26642	1065624	45677	111125	0	0	7988	619444	0	0
2024-07-31 01:51:47			0	35991	0	0	0	29909	28520	169345	26771	1065588	45677	111130	0	0	7988	619575	0	0
2024-07-31 01:52:47			0	36005	0	0	0	29909	28500	169393	26786	1065588	45676	111130	0	0	7989	619060	0	0
2024-07-31 01:53:47			0	35994	0	0	0	29903	28500	169449	26736	1065588	45676	111128	0	0	7988	619521	0	0
2024-07-31 01:54:47			0	35994	0	0	0	29893	28510	169377	26720	1065570	45677	111124	0	0	7988	619486	0	0
2024-07-31 01:55:47			0	35977	0	0	0	29896	28500	169397	26868	1065534	45665	111125	0	0	7987	620234	0	0
2024-07-31 01:56:47			0	35981	0	0	0	29888	28510	169393	26613	1065463	45677	111122	0	0	7988	620031	0	0
2024-07-31 01:57:47			0	35983	0	0	0	29898	28500	169341	26977	1065481	45665	111126	0	0	7987	619982	0	0
2024-07-31 01:58:47			0	35973	0	0	0	29893	28500	169361	26611	1065525	45664	111124	0	0	7987	620402	0	0
2024-07-31 01:59:47			0	36001	0	0	0	29896	28500	169353	26880	1065561	45665	111125	0	0	7989	619228	0	0
2024-07-31 02:00:47			0	35998	0	0	0	29885	28500	169377	26857	1065525	45664	111121	0	0	7989	619354	0	0
2024-07-31 02:01:47			0	35994	0	0	0	29893	28500	169249	26727	1065534	45665	111124	0	0	7988	619521	0	0
2024-07-31 02:02:47			0	36009	0	0	0	29901	28510	169225	27393	1065543	45677	111127	0	0	7989	618857	0	0
2024-07-31 02:03:47			0	36035	0	0	0	29901	28490	169269	26949	1065490	45685	111127	0	0	7990	617841	0	0
2024-07-31 02:04:47			0	36049	0	0	0	29906	28500	169241	26656	1065525	45675	111129	0	0	7991	617219	0	0
2024-07-31 02:05:47			0	36023	0	0	0	29896	28500	169277	26757	1065588	45676	111125	0	0	7990	618307	0	0
2024-07-31 02:06:47			0	36031	0	0	0	29888	28490	169229	26680	1065490	45685	111122	0	0	7990	618008	0	0
2024-07-31 02:07:47			0	36027	0	0	0	29893	28500	169177	26913	1065534	45687	111124	0	0	7990	618139	0	0
2024-07-31 02:08:47			0	36027	0	0	0	29893	28490	169141	26932	1065490	45674	111124	0	0	7990	618175	0	0
2024-07-31 02:09:47			0	36053	0	0	0	29888	28500	169249	26786	1065472	45664	111122	0	0	7992	617052	0	0
2024-07-31 02:10:47			0	36030	0	0	0	29893	28490	169193	26878	1065543	45674	111124	0	0	7990	618050	0	0
2024-07-31 02:11:47			0	36039	0	0	0	29880	28500	169153	26854	1065499	45686	111119	0	0	7991	617637	0	0
2024-07-31 02:12:47			0	36030	0	0	0	29883	28490	169261	26824	1065517	45663	111120	0	0	7990	618050	0	0
2024-07-31 02:13:47			0	36043	0	0	0	29885	28490	169289	26727	1065517	45674	111121	0	0	7991	617506	0	0
2024-07-31 02:14:47			0	36033	0	0	0	29885	28500	169265	26635	1065579	45675	111121	0	0	7991	617888	0	0
2024-07-31 02:15:47			0	36038	0	0	0	29890	28490	169209	26821	1065481	45674	111123	0	0	7991	617715	0	0
2024-07-31 02:16:47			0	36028	0	0	0	29890	28490	169309	26724	1065490	45663	111123	0	0	7990	618133	0	0
2024-07-31 02:17:47			0	36047	0	0	0	29888	28490	169217	26958	1065508	45685	111122	0	0	7991	617339	0	0
2024-07-31 02:18:47			0	36044	0	0	0	29893	28490	169137	26609	1065490	45674	111124	0	0	7991	617464	0	0
2024-07-31 02:19:47			0	36061	0	0	0	29896	28500	169201	26774	1065525	45675	111125	0	0	7992	616718	0	0
2024-07-31 02:20:47			0	36043	0	0	0	29896	28500	169149	26852	1065606	45675	111125	0	0	7991	617470	0	0
2024-07-31 02:21:47			0	36046	0	0	0	29896	28490	169173	26831	1065543	45685	111125	0	0	7991	617380	0	0
2024-07-31 02:22:47			0	36039	0	0	0	29901	28480	169165	27029	1065499	45685	111127	0	0	7991	617709	0	0
2024-07-31 02:23:47			0	36028	0	0	0	29888	28490	169185	26901	1065517	45674	111122	0	0	7990	618133	0	0
2024-07-31 02:24:47			0	36050	0	0	0	29890	28490	169141	26788	1065490	45674	111123	0	0	7992	617213	0	0
2024-07-31 02:25:47			0	36031	0	0	0	29893	28490	169193	26783	1065508	45674	111124	0	0	7990	618008	0	0
2024-07-31 02:26:47			0	36034	0	0	0	29890	28500	169165	26632	1065525	45675	111123	0	0	7991	617847	0	0
2024-07-31 02:27:47			0	36036	0	0	0	29896	28490	169273	26661	1065535	45685	111125	0	0	7991	617799	0	0
2024-07-31 02:28:47			0	36028	0	0	0	29890	28490	169229	26644	1065561	45674	111123	0	0	7990	618133	0	0
2024-07-31 02:29:47			0	36037	0	0	0	29885	28490	169185	26908	1065481	45674	111121	0	0	7991	617757	0	0
2024-07-31 02:30:47			0	36046	0	0	0	29885	28490	169221	26608	1065508	45685	111121	0	0	7991	617380	0	0
2024-07-31 02:31:47			0	36045	0	0	0	29888	28500	169161	26715	1065499	45675	111122	0	0	7991	617387	0	0
2024-07-31 02:32:47			0	36041	0	0	0	29883	28500	169149	26651	1065561	45665	111120	0	0	7991	617554	0	0
2024-07-31 02:33:47			0	36051	0	0	0	29888	28490	169097	27090	1065508	45685	111122	0	0	7992	617172	0	0
2024-07-31 02:34:47			0	36047	0	0	0	29880	28490	169017	26452	1065490	45674	111119	0	0	7992	617339	0	0
2024-07-31 02:35:47			0	36023	0	0	0	29885	28490	169225	26706	1065481	45674	111121	0	0	7990	618343	0	0
2024-07-31 02:36:47			0	36025	0	0	0	29883	28480	169181	26811	1065418	45663	111120	0	0	7990	618295	0	0
2024-07-31 02:37:47			0	36027	0	0	0	29885	28480	169089	26984	1065463	45673	111121	0	0	7990	618211	0	0
2024-07-31 02:38:47			0	36025	0	0	0	29875	28490	169305	26738	1065454	45685	111117	0	0	7990	618259	0	0
2024-07-31 02:39:47			0	36018	0	0	0	29872	28480	169209	26967	1065472	45685	111116	0	0	7990	618588	0	0
2024-07-31 02:40:47			0	35996	0	0	0	29867	28470	169237	26909	1065427	45661	111114	0	0	7989	619545	0	0
2024-07-31 02:41:47			0	35987	0	0	0	29875	28490	169365	26745	1065427	45663	111117	0	0	7988	619851	0	0
2024-07-31 02:42:47			0	36003	0	0	0	29870	28490	169265	26582	1065400	45663	111115	0	0	7989	619180	0	0
2024-07-31 02:43:47			0	36013	0	0	0	29870	28480	169377	26393	1065463	45673	111115	0	0	7990	618797	0	0
2024-07-31 02:44:47			0	36011	0	0	0	29880	28480	169221	26850	1065463	45662	111119	0	0	7989	618881	0	0
2024-07-31 02:45:47			0	36033	0	0	0	29875	28480	169305	26856	1065436	45673	111117	0	0	7991	617960	0	0
2024-07-31 02:46:47			0	36022	0	0	0	29875	28470	169241	26830	1065454	45672	111117	0	0	7990	618456	0	0
2024-07-31 02:47:47			0	36039	0	0	0	29875	28470	169161	26545	1065508	45672	111117	0	0	7991	617745	0	0
2024-07-31 02:48:47			0	36027	0	0	0	29877	28480	169213	26675	1065409	45673	111118	0	0	7990	618211	0	0
2024-07-31 02:49:47			0	36024	0	0	0	29877	28480	169169	26720	1065409	45673	111118	0	0	7990	618337	0	0
2024-07-31 02:50:47			0	35990	0	0	0	29877	28470	169329	26981	1065454	45683	111118	0	0	7988	619797	0	0
2024-07-31 02:51:47			0	35998	0	0	0	29875	28480	169289	26802	1065436	45651	111117	0	0	7989	619425	0	0
2024-07-31 02:52:47			0	35989	0	0	0	29877	28480	169437	26488	1065490	45662	111118	0	0	7988	619803	0	0
2024-07-31 02:53:47			0	35975	0	0	0	29872	28480	169585	26871	1065409	45684	111116	0	0	7987	620390	0	0
2024-07-31 02:54:47			0	35924	0	0	0	29867	28480	169541	26632	1065382	45662	111114	0	0	7984	622532	0	0
2024-07-31 02:55:47			0	35948	0	0	0	29862	28480	169617	26739	1065445	45674	111112	0	0	7986	621523	0	0
2024-07-31 02:56:47			0	35926	0	0	0	29867	28470	169685	26883	1065454	45683	111114	0	0	7984	622484	0	0
2024-07-31 02:57:47			0	35897	0	0	0	29862	28470	169757	26746	1065346	45661	111112	0	0	7983	623705	0	0
2024-07-31 02:58:47			0	35907	0	0	0	29857	28460	169861	26736	1065382	45672	111110	0	0	7983	623319	0	0
2024-07-31 02:59:47			0	35867	0	0	0	29849	28470	169769	26804	1065373	45672	111107	0	0	7981	624969	0	0
2024-07-31 03:00:47			0	35863	0	0	0	29851	28470	169869	26793	1065391	45683	111108	0	0	7981	625138	0	0
2024-07-31 03:01:47			0	35868	0	0	0	29859	28470	169813	26691	1065391	45661	111111	0	0	7981	624927	0	0
2024-07-31 03:02:47			0	35848	0	0	0	29854	28470	169964	26700	1065364	45683	111109	0	0	7980	625771	0	0
2024-07-31 03:03:47			0	35856	0	0	0	29862	28460	170025	26870	1065382	45672	111112	0	0	7980	625469	0	0
2024-07-31 03:04:47			0	35863	0	0	0	29859	28460	170033	26880	1065382	45672	111111	0	0	7981	625174	0	0
2024-07-31 03:05:47			0	35853	0	0	0	29854	28470	170064	26571	1065364	45672	111109	0	0	7980	625559	0	0
2024-07-31 03:06:47			0	35858	0	0	0	29862	28470	170156	26941	1065418	45683	111112	0	0	7980	625348	0	0
2024-07-31 03:07:47			0	35860	0	0	0	29844	28470	170100	26878	1065346	45672	111105	0	0	7981	625264	0	0
2024-07-31 03:08:47			0	35857	0	0	0	29841	28460	170072	27027	1065355	45661	111104	0	0	7981	625427	0	0
2024-07-31 03:09:47			0	35847	0	0	0	29844	28460	170108	26909	1065292	45671	111105	0	0	7980	625849	0	0
2024-07-31 03:10:47			0	35820	0	0	0	29841	28460	170292	26693	1065238	45660	111104	0	0	7978	626990	0	0
2024-07-31 03:11:47			0	35829	0	0	0	29841	28450	170316	26684	1065256	45648	111104	0	0	7979	626646	0	0
2024-07-31 03:12:47			0	35816	0	0	0	29836	28450	170248	26481	1065229	45670	111102	0	0	7978	627195	0	0
2024-07-31 03:13:47			0	35825	0	0	0	29836	28450	170120	26741	1065310	45670	111102	0	0	7979	626815	0	0
2024-07-31 03:14:47			0	35812	0	0	0	29838	28450	170228	26703	1065256	45681	111103	0	0	7978	627364	0	0
2024-07-31 03:15:47			0	35809	0	0	0	29831	28460	170276	26897	1065292	45671	111100	0	0	7978	627455	0	0
2024-07-31 03:16:47			0	35826	0	0	0	29838	28450	170272	26540	1065274	45670	111103	0	0	7979	626772	0	0
2024-07-31 03:17:47			0	35810	0	0	0	29833	28450	170280	26552	1065337	45693	111101	0	0	7978	627449	0	0
2024-07-31 03:18:47			0	35828	0	0	0	29836	28450	170268	26837	1065247	45670	111102	0	0	7979	626688	0	0
2024-07-31 03:19:47			0	35820	0	0	0	29828	28450	170268	26696	1065220	45670	111099	0	0	7979	627026	0	0
2024-07-31 03:20:47			0	35804	0	0	0	29825	28440	170328	26873	1065229	45669	111098	0	0	7978	627739	0	0
2024-07-31 03:21:47			0	35787	0	0	0	29823	28440	170456	27012	1065211	45670	111097	0	0	7977	628458	0	0
2024-07-31 03:22:47			0	35796	0	0	0	29823	28450	170388	26830	1065193	45670	111097	0	0	7977	628041	0	0
2024-07-31 03:23:47			0	35804	0	0	0	29833	28430	170296	27039	1065167	45668	111101	0	0	7977	627775	0	0
2024-07-31 03:24:47			0	35792	0	0	0	29831	28440	170332	26854	1065229	45658	111100	0	0	7977	628247	0	0
2024-07-31 03:25:47			0	35809	0	0	0	29828	28440	170228	26871	1065202	45658	111099	0	0	7978	627527	0	0
2024-07-31 03:26:47			0	35807	0	0	0	29823	28440	170180	26913	1065229	45669	111097	0	0	7978	627612	0	0
2024-07-31 03:27:47			0	35818	0	0	0	29820	28440	170272	26830	1065184	45670	111096	0	0	7978	627147	0	0
2024-07-31 03:28:47			0	35824	0	0	0	29823	28430	170240	26868	1065167	45679	111097	0	0	7979	626929	0	0
2024-07-31 03:29:47			0	35803	0	0	0	29818	28430	170284	26901	1065167	45658	111095	0	0	7978	627817	0	0
2024-07-31 03:30:47			0	35786	0	0	0	29820	28420	170160	26986	1065122	45667	111096	0	0	7976	628574	0	0
2024-07-31 03:31:47			0	35805	0	0	0	29818	28420	170276	26618	1065176	45678	111095	0	0	7978	627769	0	0
2024-07-31 03:32:47			0	35806	0	0	0	29820	28430	170204	27008	1065131	45667	111096	0	0	7978	627691	0	0
2024-07-31 03:33:47			0	35802	0	0	0	29820	28430	170160	26720	1065167	45668	111096	0	0	7977	627860	0	0
2024-07-31 03:34:47			0	35826	0	0	0	29812	28420	170316	26817	1065149	45667	111093	0	0	7979	626881	0	0
2024-07-31 03:35:47			0	35827	0	0	0	29815	28430	170188	26821	1065220	45679	111094	0	0	7979	626803	0	0
2024-07-31 03:36:47			0	35830	0	0	0	29810	28420	170168	26928	1065256	45667	111092	0	0	7979	626712	0	0
2024-07-31 03:37:47			0	35801	0	0	0	29815	28420	170136	26890	1065203	45667	111094	0	0	7977	627938	0	0
2024-07-31 03:38:47			0	35831	0	0	0	29815	28430	170172	26797	1065131	45678	111094	0	0	7979	626633	0	0
2024-07-31 03:39:47			0	35840	0	0	0	29820	28420	170136	26722	1065149	45667	111096	0	0	7980	626289	0	0
2024-07-31 03:40:47			0	35831	0	0	0	29815	28410	170224	26861	1065158	45677	111094	0	0	7979	626706	0	0
2024-07-31 03:41:47			0	35839	0	0	0	29810	28420	170140	26868	1065203	45667	111092	0	0	7980	626332	0	0
2024-07-31 03:42:47			0	35811	0	0	0	29810	28420	170164	26762	1065122	45657	111092	0	0	7978	627515	0	0
2024-07-31 03:43:47			0	35823	0	0	0	29815	28420	170320	26878	1065068	45678	111094	0	0	7979	627008	0	0
2024-07-31 03:44:47			0	35821	0	0	0	29797	28420	170288	26916	1065086	45667	111087	0	0	7979	627092	0	0
2024-07-31 03:45:47			0	35810	0	0	0	29802	28420	170388	26923	1065167	45657	111089	0	0	7978	627557	0	0
2024-07-31 03:46:47			0	35794	0	0	0	29807	28400	170356	26750	1065086	45655	111091	0	0	7977	628307	0	0
2024-07-31 03:47:47			0	35810	0	0	0	29797	28420	170316	26828	1065140	45657	111087	0	0	7978	627557	0	0
2024-07-31 03:48:47			0	35789	0	0	0	29789	28410	170416	26902	1065131	45666	111084	0	0	7977	628483	0	0
2024-07-31 03:49:47			0	35799	0	0	0	29789	28410	170380	26948	1065068	45666	111084	0	0	7978	628059	0	0
2024-07-31 03:50:47			0	35810	0	0	0	29786	28400	170368	26930	1065023	45666	111083	0	0	7978	627630	0	0
2024-07-31 03:51:47			0	35819	0	0	0	29789	28400	170348	27041	1065086	45666	111084	0	0	7979	627250	0	0
2024-07-31 03:52:47			0	35806	0	0	0	29786	28410	170384	26930	1065050	45666	111083	0	0	7978	627763	0	0
2024-07-31 03:53:47			0	35817	0	0	0	29799	28400	170400	26618	1065112	45676	111088	0	0	7979	627334	0	0
2024-07-31 03:54:47			0	35825	0	0	0	29799	28400	170344	26816	1065086	45676	111088	0	0	7979	626996	0	0
2024-07-31 03:55:47			0	35818	0	0	0	29794	28400	170440	26580	1065086	45666	111086	0	0	7979	627292	0	0
2024-07-31 03:56:47			0	35832	0	0	0	29789	28400	170424	27218	1065059	45655	111084	0	0	7980	626700	0	0
2024-07-31 03:57:47			0	35820	0	0	0	29792	28390	170344	26861	1065014	45665	111085	0	0	7979	627243	0	0
2024-07-31 03:58:47			0	35818	0	0	0	29784	28400	170400	26757	1065032	45666	111082	0	0	7979	627292	0	0
2024-07-31 03:59:47			0	35829	0	0	0	29789	28400	170388	26949	1065059	45676	111084	0	0	7979	626827	0	0
2024-07-31 04:00:47			0	35814	0	0	0	29789	28400	170328	26807	1065050	45666	111084	0	0	7979	627461	0	0
2024-07-31 04:01:47			0	35816	0	0	0	29797	28400	170392	26835	1065023	45666	111087	0	0	7979	627376	0	0
2024-07-31 04:02:47			0	35830	0	0	0	29786	28400	170384	26847	1064996	45666	111083	0	0	7980	626784	0	0
2024-07-31 04:03:47			0	35818	0	0	0	29784	28410	170420	26883	1065041	45676	111082	0	0	7979	627255	0	0
2024-07-31 04:04:47			0	35809	0	0	0	29776	28400	170320	26817	1065086	45676	111079	0	0	7978	627673	0	0
2024-07-31 04:05:47			0	35802	0	0	0	29784	28400	170412	26864	1065050	45676	111082	0	0	7978	627969	0	0
2024-07-31 04:06:47			0	35782	0	0	0	29781	28380	170448	26955	1065005	45653	111081	0	0	7977	628888	0	0
2024-07-31 04:07:47			0	35767	0	0	0	29779	28400	170380	26908	1064996	45676	111080	0	0	7976	629451	0	0
2024-07-31 04:08:47			0	35766	0	0	0	29779	28400	170568	26611	1065050	45666	111080	0	0	7976	629494	0	0
2024-07-31 04:09:47			0	35762	0	0	0	29771	28390	170596	26575	1064906	45665	111077	0	0	7976	629700	0	0
2024-07-31 04:10:47			0	35750	0	0	0	29779	28380	170520	26918	1064996	45664	111080	0	0	7975	630245	0	0
2024-07-31 04:11:47			0	35761	0	0	0	29763	28380	170548	26512	1064996	45664	111074	0	0	7976	629779	0	0
2024-07-31 04:12:47			0	35760	0	0	0	29768	28370	170584	26844	1064987	45674	111076	0	0	7975	629857	0	0
2024-07-31 04:13:47			0	35766	0	0	0	29758	28380	170692	26830	1064978	45664	111072	0	0	7976	629567	0	0
2024-07-31 04:14:47			0	35744	0	0	0	29763	28370	170712	26739	1064933	45664	111074	0	0	7975	630536	0	0
2024-07-31 04:15:47			0	35756	0	0	0	29758	28380	170700	26809	1064969	45674	111072	0	0	7975	629991	0	0
2024-07-31 04:16:47			0	35746	0	0	0	29761	28380	170712	26932	1064861	45674	111073	0	0	7975	630415	0	0
2024-07-31 04:17:47			0	35767	0	0	0	29761	28370	170684	26504	1064933	45664	111073	0	0	7976	629561	0	0
2024-07-31 04:18:47			0	35787	0	0	0	29761	28370	170664	26883	1064897	45673	111073	0	0	7977	628713	0	0
2024-07-31 04:19:47			0	35767	0	0	0	29755	28360	170544	26878	1064906	45661	111071	0	0	7976	629597	0	0
2024-07-31 04:20:47			0	35774	0	0	0	29750	28370	170660	26861	1064870	45652	111069	0	0	7977	629264	0	0
2024-07-31 04:21:47			0	35768	0	0	0	29742	28370	170460	26762	1064843	45663	111066	0	0	7976	629518	0	0
2024-07-31 04:22:47			0	35765	0	0	0	29750	28360	170664	26587	1064915	45684	111069	0	0	7976	629682	0	0
2024-07-31 04:23:47			0	35767	0	0	0	29748	28360	170616	26712	1064888	45672	111068	0	0	7976	629597	0	0
2024-07-31 04:24:47			0	35763	0	0	0	29742	28360	170576	26852	1064771	45661	111066	0	0	7976	629767	0	0
2024-07-31 04:25:47			0	35750	0	0	0	29753	28350	170544	26883	1064888	45683	111070	0	0	7975	630355	0	0
2024-07-31 04:26:47			0	35777	0	0	0	29750	28360	170656	26651	1064852	45661	111069	0	0	7977	629173	0	0
2024-07-31 04:27:47			0	35776	0	0	0	29758	28350	170624	26791	1064861	45661	111072	0	0	7977	629252	0	0
2024-07-31 04:28:47			0	35781	0	0	0	29753	28360	170508	26786	1064825	45661	111070	0	0	7977	629004	0	0
2024-07-31 04:29:47			0	35805	0	0	0	29745	28350	170500	26852	1064870	45661	111067	0	0	7979	628023	0	0
2024-07-31 04:30:47			0	35801	0	0	0	29753	28350	170484	26521	1064843	45683	111070	0	0	7978	628193	0	0
2024-07-31 04:31:47			0	35773	0	0	0	29745	28350	170576	26561	1064924	45650	111067	0	0	7977	629379	0	0
2024-07-31 04:32:47			0	35796	0	0	0	29750	28350	170476	26993	1064843	45650	111069	0	0	7978	628404	0	0
2024-07-31 04:33:47			0	35812	0	0	0	29766	28350	170404	26764	1064870	45671	111075	0	0	7979	627727	0	0
2024-07-31 04:34:47			0	35799	0	0	0	29766	28360	170412	27133	1064942	45672	111075	0	0	7978	628241	0	0
2024-07-31 04:35:47			0	35819	0	0	0	29766	28350	170352	26937	1064915	45671	111075	0	0	7979	627431	0	0
2024-07-31 04:36:47			0	35828	0	0	0	29758	28350	170304	26651	1064870	45671	111072	0	0	7980	627050	0	0
2024-07-31 04:37:47			0	35847	0	0	0	29755	28360	170224	26783	1064888	45662	111071	0	0	7981	626211	0	0
2024-07-31 04:38:47			0	35840	0	0	0	29755	28350	170192	26873	1064870	45661	111071	0	0	7980	626543	0	0
2024-07-31 04:39:47			0	35836	0	0	0	29761	28360	170236	26786	1064852	45661	111073	0	0	7980	626676	0	0
2024-07-31 04:40:47			0	35844	0	0	0	29745	28360	170272	26875	1064852	45661	111067	0	0	7981	626338	0	0
2024-07-31 04:41:47			0	35827	0	0	0	29753	28360	170396	26804	1064888	45672	111070	0	0	7980	627056	0	0
2024-07-31 04:42:47			0	35830	0	0	0	29742	28360	170416	27020	1064861	45672	111066	0	0	7980	626929	0	0
2024-07-31 04:43:47			0	35828	0	0	0	29745	28350	170340	26809	1064861	45683	111067	0	0	7980	627050	0	0
2024-07-31 04:44:47			0	35825	0	0	0	29740	28350	170340	26909	1064807	45661	111065	0	0	7980	627177	0	0
2024-07-31 04:45:47			0	35808	0	0	0	29742	28350	170456	27067	1064780	45661	111066	0	0	7979	627896	0	0
2024-07-31 04:46:47			0	35822	0	0	0	29735	28350	170396	26833	1064843	45661	111063	0	0	7980	627304	0	0
2024-07-31 04:47:47			0	35805	0	0	0	29737	28350	170396	27052	1064754	45671	111064	0	0	7979	628023	0	0
2024-07-31 04:48:47			0	35822	0	0	0	29737	28340	170388	27192	1064763	45659	111064	0	0	7980	627340	0	0
2024-07-31 04:49:47			0	35811	0	0	0	29732	28350	170348	27071	1064834	45661	111062	0	0	7979	627769	0	0
2024-07-31 04:50:47			0	35817	0	0	0	29722	28340	170444	26984	1064771	45660	111058	0	0	7980	627552	0	0
2024-07-31 04:51:47			0	35810	0	0	0	29735	28340	170388	26982	1064843	45659	111063	0	0	7979	627848	0	0
2024-07-31 04:52:47			0	35820	0	0	0	29732	28340	170436	26753	1064745	45660	111062	0	0	7980	627425	0	0
2024-07-31 04:53:47			0	35833	0	0	0	29735	28340	170312	26849	1064763	45669	111063	0	0	7980	626875	0	0
2024-07-31 04:54:47			0	35845	0	0	0	29735	28340	170316	26892	1064736	45669	111063	0	0	7981	626368	0	0
2024-07-31 04:55:47			0	35860	0	0	0	29737	28340	170177	26987	1064763	45681	111064	0	0	7982	625734	0	0
2024-07-31 04:56:47			0	35859	0	0	0	29735	28340	170221	26970	1064745	45660	111063	0	0	7982	625776	0	0
2024-07-31 04:57:47			0	35866	0	0	0	29735	28340	170165	26946	1064816	45659	111063	0	0	7982	625481	0	0
2024-07-31 04:58:47			0	35869	0	0	0	29742	28330	170141	26996	1064781	45669	111066	0	0	7982	625390	0	0
2024-07-31 04:59:47			0	35854	0	0	0	29742	28330	170056	26739	1064781	45669	111066	0	0	7981	626024	0	0
2024-07-31 05:00:47			0	35865	0	0	0	29742	28340	170145	26961	1064763	45648	111066	0	0	7982	625523	0	0
2024-07-31 05:01:47			0	35867	0	0	0	29740	28340	170285	26653	1064763	45659	111065	0	0	7982	625439	0	0
2024-07-31 05:02:47			0	35873	0	0	0	29735	28340	170113	26731	1064763	45669	111063	0	0	7983	625186	0	0
2024-07-31 05:03:47			0	35873	0	0	0	29729	28340	170077	26897	1064798	45660	111061	0	0	7983	625186	0	0
2024-07-31 05:04:47			0	35886	0	0	0	29729	28340	170105	26875	1064736	45659	111061	0	0	7984	624637	0	0
2024-07-31 05:05:47			0	35879	0	0	0	29727	28340	170025	27019	1064816	45669	111060	0	0	7983	624932	0	0
2024-07-31 05:06:47			0	35862	0	0	0	29727	28340	170245	26817	1064682	45659	111060	0	0	7982	625650	0	0
2024-07-31 05:07:47			0	35874	0	0	0	29724	28340	170165	27076	1064763	45648	111059	0	0	7983	625143	0	0
2024-07-31 05:08:47			0	35876	0	0	0	29711	28330	170197	27052	1064700	45659	111054	0	0	7983	625095	0	0
2024-07-31 05:09:47			0	35884	0	0	0	29711	28340	170105	26885	1064736	45669	111054	0	0	7984	624722	0	0
2024-07-31 05:10:47			0	35871	0	0	0	29724	28330	170044	26750	1064673	45669	111059	0	0	7983	625306	0	0
2024-07-31 05:11:47			0	35883	0	0	0	29722	28330	170209	26896	1064664	45648	111058	0	0	7984	624800	0	0
2024-07-31 05:12:47			0	35894	0	0	0	29719	28330	170093	27357	1064745	45659	111057	0	0	7984	624336	0	0
2024-07-31 05:13:47			0	35891	0	0	0	29698	28330	170077	26899	1064718	45659	111049	0	0	7984	624463	0	0
2024-07-31 05:14:47			0	35894	0	0	0	29701	28320	170077	26684	1064700	45646	111050	0	0	7984	624372	0	0
2024-07-31 05:15:47			0	35911	0	0	0	29688	28320	169953	26863	1064628	45658	111045	0	0	7986	623656	0	0
2024-07-31 05:16:47			0	35901	0	0	0	29688	28310	170053	26779	1064637	45646	111045	0	0	7985	624113	0	0
2024-07-31 05:17:47			0	35921	0	0	0	29683	28310	170053	27114	1064610	45646	111043	0	0	7986	623270	0	0
2024-07-31 05:18:47			0	35918	0	0	0	29680	28310	170085	27124	1064601	45657	111042	0	0	7986	623397	0	0
2024-07-31 05:19:47			0	35938	0	0	0	29675	28310	169873	26746	1064574	45668	111040	0	0	7988	622555	0	0
2024-07-31 05:20:47			0	35953	0	0	0	29677	28310	169901	26760	1064547	45668	111041	0	0	7988	621924	0	0
2024-07-31 05:21:47			0	35950	0	0	0	29677	28290	169813	26720	1064547	45655	111041	0	0	7988	622122	0	0
2024-07-31 05:22:47			0	35962	0	0	0	29672	28290	169813	27168	1064466	45655	111039	0	0	7989	621618	0	0
2024-07-31 05:23:47			0	35981	0	0	0	29670	28280	169781	26571	1064476	45666	111038	0	0	7990	620856	0	0
2024-07-31 05:24:47			0	35965	0	0	0	29677	28300	169749	26680	1064502	45666	111041	0	0	7989	621456	0	0
2024-07-31 05:25:47			0	35980	0	0	0	29680	28290	169753	26660	1064493	45666	111042	0	0	7990	620862	0	0
2024-07-31 05:26:47			0	35986	0	0	0	29662	28290	169829	26734	1064484	45666	111035	0	0	7991	620610	0	0
2024-07-31 05:27:47			0	35975	0	0	0	29670	28280	169629	26918	1064502	45654	111038	0	0	7990	621108	0	0
2024-07-31 05:28:47			0	35974	0	0	0	29662	28280	169689	26960	1064467	45653	111035	0	0	7990	621150	0	0
2024-07-31 05:29:47			0	35982	0	0	0	29662	28270	169581	26665	1064421	45664	111035	0	0	7990	620849	0	0
2024-07-31 05:30:47			0	35990	0	0	0	29654	28260	169641	26854	1064412	45652	111032	0	0	7991	620549	0	0
2024-07-31 05:31:47			0	35984	0	0	0	29657	28280	169581	27017	1064467	45675	111033	0	0	7990	620730	0	0
2024-07-31 05:32:47			0	36005	0	0	0	29662	28270	169505	26840	1064394	45664	111035	0	0	7992	619884	0	0
2024-07-31 05:33:47			0	36017	0	0	0	29659	28260	169589	26901	1064376	45651	111034	0	0	7992	619417	0	0
2024-07-31 05:34:47			0	36006	0	0	0	29644	28270	169577	26819	1064394	45674	111028	0	0	7992	619842	0	0
2024-07-31 05:35:47			0	36000	0	0	0	29646	28260	169661	26904	1064358	45641	111029	0	0	7992	620130	0	0
2024-07-31 05:36:47			0	36009	0	0	0	29641	28260	169717	26935	1064358	45652	111027	0	0	7992	619752	0	0
2024-07-31 05:37:47			0	35992	0	0	0	29636	28250	169745	26830	1064340	45639	111025	0	0	7991	620501	0	0
2024-07-31 05:38:47			0	35996	0	0	0	29625	28260	169841	26795	1064331	45652	111021	0	0	7992	620298	0	0
2024-07-31 05:39:47			0	36009	0	0	0	29623	28250	169733	26710	1064304	45650	111020	0	0	7992	619788	0	0
2024-07-31 05:40:47			0	35981	0	0	0	29618	28240	169821	26876	1064260	45649	111018	0	0	7991	620999	0	0
2024-07-31 05:41:47			0	35996	0	0	0	29607	28230	169729	26819	1064197	45637	111014	0	0	7992	620405	0	0
2024-07-31 05:42:47			0	35998	0	0	0	29605	28230	169765	26776	1064197	45637	111013	0	0	7992	620321	0	0
2024-07-31 05:43:47			0	35978	0	0	0	29602	28240	169685	26762	1064260	45638	111012	0	0	7991	621125	0	0
2024-07-31 05:44:47			0	35976	0	0	0	29607	28230	169737	26670	1064197	45648	111014	0	0	7991	621245	0	0
2024-07-31 05:45:47			0	35989	0	0	0	29607	28220	169761	27003	1064152	45669	111014	0	0	7991	620735	0	0
2024-07-31 05:46:47			0	35986	0	0	0	29605	28220	169745	26849	1064197	45647	111013	0	0	7991	620861	0	0
2024-07-31 05:47:47			0	35999	0	0	0	29607	28220	169729	26745	1064152	45659	111014	0	0	7992	620315	0	0
2024-07-31 05:48:47			0	35994	0	0	0	29597	28230	169757	26868	1064188	45648	111010	0	0	7992	620489	0	0
2024-07-31 05:49:47			0	36011	0	0	0	29599	28210	169689	26585	1064125	45646	111011	0	0	7993	619847	0	0
2024-07-31 05:50:47			0	36017	0	0	0	29597	28210	169633	26606	1064161	45646	111010	0	0	7993	619596	0	0
2024-07-31 05:51:47			0	36004	0	0	0	29602	28220	169645	26861	1064116	45647	111012	0	0	7992	620105	0	0
2024-07-31 05:52:47			0	36015	0	0	0	29597	28220	169697	26739	1064089	45647	111010	0	0	7993	619644	0	0
2024-07-31 05:53:47			0	36024	0	0	0	29597	28210	169585	26616	1064098	45658	111010	0	0	7994	619302	0	0
2024-07-31 05:54:47			0	36034	0	0	0	29592	28210	169605	26870	1064134	45658	111008	0	0	7994	618883	0	0
2024-07-31 05:55:47			0	36035	0	0	0	29584	28200	169561	26793	1064116	45645	111005	0	0	7994	618877	0	0
2024-07-31 05:56:47			0	36046	0	0	0	29584	28190	169609	26578	1064071	45644	111005	0	0	7995	618452	0	0
2024-07-31 05:57:47			0	36046	0	0	0	29589	28200	169597	26902	1064080	45645	111007	0	0	7995	618416	0	0
2024-07-31 05:58:47			0	36040	0	0	0	29586	28200	169549	26590	1064080	45657	111006	0	0	7995	618667	0	0
2024-07-31 05:59:47			0	36075	0	0	0	29589	28190	169453	26720	1064044	45666	111007	0	0	7997	617238	0	0
2024-07-31 06:00:47			0	36063	0	0	0	29571	28190	169493	26677	1064035	45643	111000	0	0	7996	617740	0	0
2024-07-31 06:01:47			0	36065	0	0	0	29571	28190	169385	26601	1064009	45632	111000	0	0	7996	617657	0	0
2024-07-31 06:02:47			0	36080	0	0	0	29568	28190	169353	26686	1064009	45632	110999	0	0	7997	617029	0	0
2024-07-31 06:03:47			0	36071	0	0	0	29571	28190	169425	26632	1063982	45655	111000	0	0	7997	617405	0	0
2024-07-31 06:04:47			0	36086	0	0	0	29568	28190	169281	26689	1063955	45655	110999	0	0	7998	616778	0	0
2024-07-31 06:05:47			0	36105	0	0	0	29553	28180	169233	26901	1063919	45643	110993	0	0	7999	616020	0	0
2024-07-31 06:06:47			0	36086	0	0	0	29558	28170	169297	26755	1063892	45653	110995	0	0	7998	616849	0	0
2024-07-31 06:07:47			0	36107	0	0	0	29561	28170	169237	26672	1063928	45654	110996	0	0	7999	615972	0	0
2024-07-31 06:08:47			0	36117	0	0	0	29563	28180	169141	26739	1063991	45643	110997	0	0	8000	615519	0	0
2024-07-31 06:09:47			0	36118	0	0	0	29550	28160	169145	26745	1063883	45630	110992	0	0	8000	615548	0	0
2024-07-31 06:10:47			0	36115	0	0	0	29555	28170	169205	26563	1063892	45653	110994	0	0	8000	615638	0	0
2024-07-31 06:11:47			0	36141	0	0	0	29553	28170	169145	26689	1063928	45642	110993	0	0	8001	614553	0	0
2024-07-31 06:12:47			0	36144	0	0	0	29545	28160	169081	26658	1063874	45640	110990	0	0	8001	614463	0	0
2024-07-31 06:13:47			0	36124	0	0	0	29550	28160	169121	26845	1063874	45629	110992	0	0	8000	615298	0	0
2024-07-31 06:14:47			0	36146	0	0	0	29542	28160	169245	26958	1063847	45652	110989	0	0	8002	614380	0	0
2024-07-31 06:15:47			0	36155	0	0	0	29540	28160	169133	26793	1063874	45652	110988	0	0	8002	614005	0	0
2024-07-31 06:16:47			0	36142	0	0	0	29537	28150	169205	26870	1063811	45640	110987	0	0	8001	614582	0	0
2024-07-31 06:17:47			0	36152	0	0	0	29545	28150	169013	27010	1063757	45652	110990	0	0	8002	614165	0	0
2024-07-31 06:18:47			0	36149	0	0	0	29532	28140	169037	26679	1063811	45650	110985	0	0	8002	614326	0	0
2024-07-31 06:19:47			0	36158	0	0	0	29532	28140	169193	26847	1063847	45639	110985	0	0	8002	613951	0	0
2024-07-31 06:20:47			0	36171	0	0	0	29532	28150	168993	26706	1063802	45651	110985	0	0	8003	613374	0	0
2024-07-31 06:21:47			0	36168	0	0	0	29524	28140	169069	26680	1063739	45639	110982	0	0	8003	613534	0	0
2024-07-31 06:22:47			0	36154	0	0	0	29524	28150	169053	26708	1063757	45652	110982	0	0	8002	614082	0	0
2024-07-31 06:23:47			0	36164	0	0	0	29529	28150	169101	26878	1063721	45639	110984	0	0	8003	613665	0	0
2024-07-31 06:24:47			0	36159	0	0	0	29519	28140	169069	26833	1063703	45650	110980	0	0	8003	613909	0	0
2024-07-31 06:25:47			0	36158	0	0	0	29516	28130	168913	26712	1063766	45637	110979	0	0	8003	613986	0	0
2024-07-31 06:26:47			0	36173	0	0	0	29511	28130	169065	26739	1063721	45638	110977	0	0	8004	613361	0	0
2024-07-31 06:27:47			0	36186	0	0	0	29516	28120	168837	26785	1063641	45636	110979	0	0	8004	612856	0	0
2024-07-31 06:28:47			0	36198	0	0	0	29514	28130	168869	26750	1063739	45649	110978	0	0	8005	612321	0	0
2024-07-31 06:29:47			0	36183	0	0	0	29516	28130	168929	27041	1063721	45638	110979	0	0	8004	612945	0	0
2024-07-31 06:30:47			0	36197	0	0	0	29506	28130	168909	26887	1063658	45649	110975	0	0	8005	612363	0	0
2024-07-31 06:31:47			0	36200	0	0	0	29503	28120	168865	27010	1063667	45636	110974	0	0	8005	612273	0	0
2024-07-31 06:32:47			0	36203	0	0	0	29501	28120	169057	26892	1063676	45637	110973	0	0	8005	612148	0	0
2024-07-31 06:33:47			0	36222	0	0	0	29506	28120	168933	26802	1063676	45649	110975	0	0	8007	611359	0	0
2024-07-31 06:34:47			0	36200	0	0	0	29493	28110	168829	26585	1063578	45648	110970	0	0	8005	612308	0	0
2024-07-31 06:35:47			0	36219	0	0	0	29503	28110	168765	26592	1063676	45647	110974	0	0	8006	611518	0	0
2024-07-31 06:36:47			0	36223	0	0	0	29503	28100	168717	26653	1063587	45647	110974	0	0	8007	611388	0	0
2024-07-31 06:37:47			0	36234	0	0	0	29488	28120	168729	26913	1063587	45648	110968	0	0	8008	610860	0	0
2024-07-31 06:38:47			0	36261	0	0	0	29496	28120	168649	26785	1063667	45648	110971	0	0	8009	609740	0	0
2024-07-31 06:39:47			0	36281	0	0	0	29496	28110	168653	26826	1063596	45647	110971	0	0	8010	608946	0	0
2024-07-31 06:40:47			0	36280	0	0	0	29493	28110	168501	26767	1063632	45648	110970	0	0	8010	608987	0	0
2024-07-31 06:41:47			0	36291	0	0	0	29498	28110	168437	26679	1063569	45647	110972	0	0	8011	608532	0	0
2024-07-31 06:42:47			0	36320	0	0	0	29503	28110	168425	26738	1063650	45647	110974	0	0	8012	607332	0	0
2024-07-31 06:43:47			0	36311	0	0	0	29485	28110	168373	26892	1063569	45658	110967	0	0	8012	607704	0	0
2024-07-31 06:44:47			0	36314	0	0	0	29493	28100	168533	26913	1063560	45647	110970	0	0	8012	607615	0	0
2024-07-31 06:45:47			0	36326	0	0	0	29488	28090	168429	26726	1063551	45646	110968	0	0	8013	607153	0	0
2024-07-31 06:46:47			0	36336	0	0	0	29490	28090	168333	26644	1063686	45646	110969	0	0	8013	606740	0	0
2024-07-31 06:47:47			0	36320	0	0	0	29490	28110	168461	26927	1063623	45647	110969	0	0	8013	607332	0	0
2024-07-31 06:48:47			0	36318	0	0	0	29493	28090	168425	26776	1063605	45635	110970	0	0	8012	607484	0	0
2024-07-31 06:49:47			0	36309	0	0	0	29501	28100	168289	26882	1063614	45647	110973	0	0	8012	607822	0	0
2024-07-31 06:50:47			0	36330	0	0	0	29503	28110	168381	26930	1063623	45647	110974	0	0	8013	606918	0	0
2024-07-31 06:51:47			0	36376	0	0	0	29522	28090	168305	26776	1063578	45657	110981	0	0	8015	605089	0	0
2024-07-31 06:52:47			0	36398	0	0	0	29522	28090	168089	27097	1063659	45635	110981	0	0	8017	604181	0	0
2024-07-31 06:53:47			0	36386	0	0	0	29511	28110	168133	26779	1063596	45636	110977	0	0	8016	604606	0	0
2024-07-31 06:54:47			0	36395	0	0	0	29514	28110	168089	26738	1063623	45647	110978	0	0	8017	604235	0	0
2024-07-31 06:55:47			0	36396	0	0	0	29511	28110	168029	26504	1063623	45647	110977	0	0	8017	604194	0	0
2024-07-31 06:56:47			0	36373	0	0	0	29514	28110	168189	26857	1063623	45658	110978	0	0	8015	605142	0	0
2024-07-31 06:57:47			0	36360	0	0	0	29506	28090	168261	26651	1063578	45646	110975	0	0	8015	605749	0	0
2024-07-31 06:58:47			0	36335	0	0	0	29506	28110	168293	26883	1063632	45636	110975	0	0	8013	606711	0	0
2024-07-31 06:59:47			0	36330	0	0	0	29511	28100	168389	26743	1063668	45647	110977	0	0	8013	606953	0	0
2024-07-31 07:00:47			0	36322	0	0	0	29501	28110	168433	26682	1063676	45647	110973	0	0	8013	607249	0	0
2024-07-31 07:01:47			0	36315	0	0	0	29503	28100	168433	26955	1063560	45647	110974	0	0	8012	607573	0	0
2024-07-31 07:02:47			0	36337	0	0	0	29506	28100	168317	27041	1063587	45647	110975	0	0	8013	606664	0	0
2024-07-31 07:03:47			0	36330	0	0	0	29509	28110	168401	26776	1063623	45647	110976	0	0	8013	606918	0	0
2024-07-31 07:04:47			0	36343	0	0	0	29503	28110	168265	27206	1063623	45647	110974	0	0	8014	606381	0	0
2024-07-31 07:05:47			0	36349	0	0	0	29511	28120	168197	26935	1063694	45648	110977	0	0	8014	606098	0	0
2024-07-31 07:06:47			0	36349	0	0	0	29509	28120	168141	26856	1063667	45659	110976	0	0	8014	606098	0	0
2024-07-31 07:07:47			0	36341	0	0	0	29503	28100	168121	27173	1063560	45647	110974	0	0	8014	606499	0	0
2024-07-31 07:08:47			0	36345	0	0	0	29506	28100	168201	26733	1063614	45636	110975	0	0	8014	606333	0	0
2024-07-31 07:09:47			0	36334	0	0	0	29506	28110	168225	27005	1063623	45636	110975	0	0	8013	606753	0	0
2024-07-31 07:10:47			0	36328	0	0	0	29501	28110	168301	26876	1063569	45647	110973	0	0	8013	607001	0	0
2024-07-31 07:11:47			0	36318	0	0	0	29493	28110	168333	27215	1063623	45647	110970	0	0	8012	607414	0	0
2024-07-31 07:12:47			0	36314	0	0	0	29488	28090	168429	26842	1063551	45635	110968	0	0	8012	607650	0	0
2024-07-31 07:13:47			0	36300	0	0	0	29488	28100	168409	26965	1063560	45647	110968	0	0	8011	608194	0	0
2024-07-31 07:14:47			0	36299	0	0	0	29488	28100	168409	27211	1063587	45636	110968	0	0	8011	608236	0	0
2024-07-31 07:15:47			0	36289	0	0	0	29490	28100	168469	26623	1063587	45625	110969	0	0	8011	608650	0	0
2024-07-31 07:16:47			0	36286	0	0	0	29488	28100	168541	27310	1063587	45636	110968	0	0	8011	608774	0	0
2024-07-31 07:17:47			0	36269	0	0	0	29493	28090	168505	27267	1063623	45634	110970	0	0	8009	609514	0	0
2024-07-31 07:18:47			0	36291	0	0	0	29490	28090	168425	27043	1063551	45624	110969	0	0	8011	608602	0	0
2024-07-31 07:19:47			0	36284	0	0	0	29493	28100	168545	26944	1063533	45636	110970	0	0	8010	608857	0	0
2024-07-31 07:20:47			0	36275	0	0	0	29488	28110	168501	26713	1063569	45636	110968	0	0	8010	609194	0	0
2024-07-31 07:21:47			0	36272	0	0	0	29490	28090	168473	26786	1063569	45645	110969	0	0	8010	609389	0	0
2024-07-31 07:22:47			0	36283	0	0	0	29485	28090	168513	26948	1063551	45624	110967	0	0	8010	608933	0	0
2024-07-31 07:23:47			0	36253	0	0	0	29485	28090	168605	26906	1063569	45656	110967	0	0	8009	610177	0	0
2024-07-31 07:24:47			0	36249	0	0	0	29480	28090	168537	26844	1063578	45635	110965	0	0	8008	610343	0	0
2024-07-31 07:25:47			0	36235	0	0	0	29488	28090	168581	27057	1063569	45634	110968	0	0	8007	610924	0	0
2024-07-31 07:26:47			0	36241	0	0	0	29496	28090	168565	26856	1063578	45635	110971	0	0	8008	610675	0	0
2024-07-31 07:27:47			0	36237	0	0	0	29498	28090	168585	27055	1063551	45646	110972	0	0	8007	610841	0	0
2024-07-31 07:28:47			0	36246	0	0	0	29501	28100	168509	26842	1063614	45636	110973	0	0	8008	610433	0	0
2024-07-31 07:29:47			0	36255	0	0	0	29506	28090	168493	26972	1063551	45657	110975	0	0	8008	610094	0	0
2024-07-31 07:30:47			0	36256	0	0	0	29516	28100	168541	27298	1063668	45647	110979	0	0	8008	610018	0	0
2024-07-31 07:31:47			0	36274	0	0	0	29514	28100	168525	27081	1063668	45658	110978	0	0	8009	609271	0	0
2024-07-31 07:32:47			0	36258	0	0	0	29509	28100	168577	27168	1063641	45647	110976	0	0	8009	609935	0	0
2024-07-31 07:33:47			0	36259	0	0	0	29503	28110	168525	27055	1063730	45647	110974	0	0	8009	609858	0	0
2024-07-31 07:34:47			0	36269	0	0	0	29514	28110	168433	27100	1063676	45669	110978	0	0	8009	609443	0	0
2024-07-31 07:35:47			0	36256	0	0	0	29524	28110	168553	26674	1063685	45636	110982	0	0	8008	609982	0	0
2024-07-31 07:36:47			0	36282	0	0	0	29529	28120	168449	26870	1063721	45648	110984	0	0	8010	608869	0	0
2024-07-31 07:37:47			0	36304	0	0	0	29540	28120	168257	26984	1063775	45648	110988	0	0	8011	607958	0	0
2024-07-31 07:38:47			0	36318	0	0	0	29542	28120	168269	26902	1063703	45649	110989	0	0	8012	607379	0	0
2024-07-31 07:39:47			0	36256	0	0	0	29558	28130	168509	27074	1063766	45671	110995	0	0	8008	609912	0	0
2024-07-31 07:40:47			0	36142	0	0	0	29550	28120	168945	26873	1063802	45648	110992	0	0	8001	614689	0	0
2024-07-31 07:41:47			0	36051	0	0	0	29550	28130	169369	26765	1063802	45661	110992	0	0	7996	618457	0	0
2024-07-31 07:42:47			0	35991	0	0	0	29558	28130	169693	26693	1063847	45660	110995	0	0	7992	620973	0	0
2024-07-31 07:43:47			0	35950	0	0	0	29561	28140	169893	27007	1063811	45650	110996	0	0	7989	622661	0	0
2024-07-31 07:44:47			0	35929	0	0	0	29555	28140	170085	27015	1063838	45650	110994	0	0	7988	623546	0	0
2024-07-31 07:45:47			0	35886	0	0	0	29566	28140	170013	27213	1063820	45651	110998	0	0	7985	625359	0	0
2024-07-31 07:46:47			0	35897	0	0	0	29550	28140	170193	26989	1063865	45650	110992	0	0	7986	624895	0	0
2024-07-31 07:47:47			0	35903	0	0	0	29555	28140	170029	27020	1063865	45661	110994	0	0	7987	624642	0	0
2024-07-31 07:48:47			0	35910	0	0	0	29550	28150	169913	27251	1063883	45651	110992	0	0	7987	624310	0	0
2024-07-31 07:49:47			0	35907	0	0	0	29553	28140	169957	27144	1063865	45661	110993	0	0	7987	624473	0	0
2024-07-31 07:50:47			0	35910	0	0	0	29561	28140	169909	26811	1063847	45651	110996	0	0	7987	624347	0	0
2024-07-31 07:51:47			0	35917	0	0	0	29558	28140	169825	26953	1063838	45650	110995	0	0	7987	624051	0	0
2024-07-31 07:52:47			0	35915	0	0	0	29558	28150	169945	26934	1063883	45651	110995	0	0	7987	624100	0	0
2024-07-31 07:53:47			0	35913	0	0	0	29550	28140	170017	27168	1063847	45662	110992	0	0	7987	624220	0	0
2024-07-31 07:54:47			0	35919	0	0	0	29561	28140	169973	26949	1063901	45651	110996	0	0	7987	623967	0	0
2024-07-31 07:55:47			0	35893	0	0	0	29553	28150	169961	27053	1063946	45652	110993	0	0	7986	625028	0	0
2024-07-31 07:56:47			0	35913	0	0	0	29558	28150	169989	27138	1063946	45652	110995	0	0	7987	624184	0	0
2024-07-31 07:57:47			0	35918	0	0	0	29563	28160	169917	27027	1063928	45652	110997	0	0	7987	623937	0	0
2024-07-31 07:58:47			0	35923	0	0	0	29558	28150	169913	26837	1063946	45652	110995	0	0	7988	623763	0	0
2024-07-31 07:59:47			0	35918	0	0	0	29568	28160	170029	26982	1063928	45652	110999	0	0	7987	623937	0	0
2024-07-31 08:00:47			0	35919	0	0	0	29561	28150	169961	26909	1063973	45652	110996	0	0	7988	623931	0	0
2024-07-31 08:01:47			0	35933	0	0	0	29571	28160	169849	27281	1063928	45640	111000	0	0	7988	623305	0	0
2024-07-31 08:02:47			0	35935	0	0	0	29558	28150	169765	26663	1063892	45652	110995	0	0	7989	623257	0	0
2024-07-31 08:03:47			0	35950	0	0	0	29563	28150	169841	27007	1063919	45663	110997	0	0	7989	622625	0	0
2024-07-31 08:04:47			0	35941	0	0	0	29568	28160	169813	27201	1063874	45640	110999	0	0	7989	622968	0	0
2024-07-31 08:05:47			0	35946	0	0	0	29561	28160	169869	27457	1063982	45652	110996	0	0	7989	622758	0	0
2024-07-31 08:06:47			0	35984	0	0	0	29558	28150	169717	27064	1063892	45652	110995	0	0	7991	621196	0	0
2024-07-31 08:07:47			0	35989	0	0	0	29561	28140	169689	27249	1063901	45651	110996	0	0	7992	621022	0	0
2024-07-31 08:08:47			0	36032	0	0	0	29555	28160	169509	26831	1063874	45652	110994	0	0	7994	619145	0	0
2024-07-31 08:09:47			0	36038	0	0	0	29561	28150	169457	27027	1063883	45639	110996	0	0	7995	618930	0	0
2024-07-31 08:10:47			0	36024	0	0	0	29545	28140	169377	27145	1063847	45639	110990	0	0	7994	619553	0	0
2024-07-31 08:11:47			0	36040	0	0	0	29535	28140	169369	26883	1063811	45661	110986	0	0	7995	618882	0	0
2024-07-31 08:12:47			0	36051	0	0	0	29535	28140	169289	26828	1063865	45638	110986	0	0	7996	618421	0	0
2024-07-31 08:13:47			0	36084	0	0	0	29542	28140	169217	27163	1063784	45638	110989	0	0	7998	617040	0	0
2024-07-31 08:14:47			0	36111	0	0	0	29537	28150	169169	27013	1063856	45651	110987	0	0	8000	615876	0	0
2024-07-31 08:15:47			0	36107	0	0	0	29535	28140	169185	27199	1063811	45661	110986	0	0	7999	616079	0	0
2024-07-31 08:16:47			0	36128	0	0	0	29540	28140	169209	27057	1063811	45638	110988	0	0	8000	615202	0	0
2024-07-31 08:17:47			0	36136	0	0	0	29537	28130	169073	27013	1063856	45650	110987	0	0	8001	614904	0	0
2024-07-31 08:18:47			0	36147	0	0	0	29542	28140	169145	26986	1063784	45650	110989	0	0	8002	614409	0	0
2024-07-31 08:19:47			0	36163	0	0	0	29542	28140	169009	26835	1063838	45638	110989	0	0	8002	613743	0	0
2024-07-31 08:20:47			0	36145	0	0	0	29540	28140	168981	26599	1063874	45651	110988	0	0	8001	614493	0	0
2024-07-31 08:21:47			0	36154	0	0	0	29537	28140	168921	27163	1063865	45638	110987	0	0	8002	614118	0	0
2024-07-31 08:22:47			0	36180	0	0	0	29532	28140	168801	26863	1063820	45639	110985	0	0	8004	613035	0	0
2024-07-31 08:23:47			0	36232	0	0	0	29527	28140	168617	27135	1063838	45638	110983	0	0	8007	610873	0	0
2024-07-31 08:24:47			0	36248	0	0	0	29532	28130	168633	27313	1063856	45638	110985	0	0	8008	610244	0	0
2024-07-31 08:25:47			0	36289	0	0	0	29540	28130	168413	27282	1063802	45650	110988	0	0	8010	608544	0	0
2024-07-31 08:26:47			0	36315	0	0	0	29542	28140	168249	26807	1063838	45650	110989	0	0	8012	607433	0	0
2024-07-31 08:27:47			0	36412	0	0	0	29540	28130	167845	27112	1063856	45650	110988	0	0	8017	603465	0	0
2024-07-31 08:28:47			0	36476	0	0	0	29540	28150	167521	26993	1063883	45651	110988	0	0	8021	600765	0	0
2024-07-31 08:29:47			0	36567	0	0	0	29540	28140	167093	26979	1063811	45650	110988	0	0	8027	597072	0	0
2024-07-31 08:30:47			0	36640	0	0	0	29535	28130	166874	26998	1063829	45638	110986	0	0	8031	594128	0	0
2024-07-31 08:31:47			0	36722	0	0	0	29527	28140	166454	26885	1063865	45650	110983	0	0	8036	590761	0	0
2024-07-31 08:32:47			0	36787	0	0	0	29537	28120	166154	26824	1063811	45649	110987	0	0	8040	588195	0	0
2024-07-31 08:33:47			0	36797	0	0	0	29532	28140	166050	27085	1063892	45650	110985	0	0	8040	587723	0	0
2024-07-31 08:34:47			0	36834	0	0	0	29542	28130	166018	27012	1063883	45650	110989	0	0	8042	586262	0	0
2024-07-31 08:35:47			0	36838	0	0	0	29537	28140	165926	26674	1063901	45651	110987	0	0	8043	586067	0	0
2024-07-31 08:36:47			0	36849	0	0	0	29532	28130	165810	27072	1063775	45650	110985	0	0	8043	585657	0	0
2024-07-31 08:37:47			0	36830	0	0	0	29537	28140	165926	27085	1063865	45638	110987	0	0	8042	586390	0	0
2024-07-31 08:38:47			0	36836	0	0	0	29535	28140	166030	26908	1063838	45650	110986	0	0	8043	586148	0	0
2024-07-31 08:39:47			0	36810	0	0	0	29548	28140	166062	26880	1063874	45651	110991	0	0	8041	587198	0	0
2024-07-31 08:40:47			0	36836	0	0	0	29545	28140	165906	27050	1063928	45651	110990	0	0	8042	586148	0	0
2024-07-31 08:41:47			0	36861	0	0	0	29548	28140	165930	26809	1063892	45638	110991	0	0	8044	585139	0	0
2024-07-31 08:42:47			0	36889	0	0	0	29555	28140	165802	26746	1063892	45650	110994	0	0	8045	584011	0	0
2024-07-31 08:43:47			0	36887	0	0	0	29540	28140	165766	26998	1063892	45650	110988	0	0	8046	584092	0	0
2024-07-31 08:44:47			0	36880	0	0	0	29540	28140	165758	27145	1063919	45638	110988	0	0	8045	584374	0	0
2024-07-31 08:45:47			0	36834	0	0	0	29532	28130	165878	26835	1063856	45638	110985	0	0	8042	586262	0	0
2024-07-31 08:46:47			0	36801	0	0	0	29535	28130	166026	26958	1063856	45650	110986	0	0	8041	587595	0	0
2024-07-31 08:47:47			0	36751	0	0	0	29535	28140	166310	26776	1063838	45650	110986	0	0	8038	589585	0	0
2024-07-31 08:48:47			0	36731	0	0	0	29535	28140	166250	26918	1063865	45638	110986	0	0	8036	590396	0	0
2024-07-31 08:49:47			0	36747	0	0	0	29537	28140	166294	26991	1063820	45651	110987	0	0	8037	589747	0	0
2024-07-31 08:50:47			0	36740	0	0	0	29550	28140	166450	26994	1063838	45638	110992	0	0	8037	590031	0	0
2024-07-31 08:51:47			0	36682	0	0	0	29542	28150	166570	26800	1063910	45651	110989	0	0	8033	592351	0	0
2024-07-31 08:52:47			0	36640	0	0	0	29553	28150	166774	27048	1063856	45639	110993	0	0	8031	594060	0	0
2024-07-31 08:53:47			0	36590	0	0	0	29540	28130	167018	26968	1063910	45650	110988	0	0	8028	596167	0	0
2024-07-31 08:54:47			0	36571	0	0	0	29529	28140	167101	26837	1063865	45638	110984	0	0	8027	596909	0	0
2024-07-31 08:55:47			0	36517	0	0	0	29519	28130	167317	26909	1063883	45661	110980	0	0	8024	599153	0	0
2024-07-31 08:56:47			0	36487	0	0	0	29514	28140	167377	26965	1063838	45650	110978	0	0	8022	600348	0	0
2024-07-31 08:57:47			0	36469	0	0	0	29524	28130	167533	26963	1063802	45638	110982	0	0	8021	601122	0	0
2024-07-31 08:58:47			0	36430	0	0	0	29532	28130	167729	27272	1063874	45660	110985	0	0	8019	602724	0	0
2024-07-31 08:59:47			0	36355	0	0	0	29540	28130	168013	26883	1063856	45650	110988	0	0	8014	605815	0	0
2024-07-31 09:00:47			0	36314	0	0	0	29540	28130	168301	27168	1063856	45638	110988	0	0	8012	607510	0	0
2024-07-31 09:01:47			0	36275	0	0	0	29542	28140	168453	27152	1063892	45650	110989	0	0	8009	609089	0	0
2024-07-31 09:02:47			0	36252	0	0	0	29550	28130	168561	27072	1063874	45649	110992	0	0	8008	610078	0	0
2024-07-31 09:03:47			0	36258	0	0	0	29540	28140	168541	27114	1063847	45662	110988	0	0	8008	609794	0	0
2024-07-31 09:04:47			0	36270	0	0	0	29548	28140	168473	26628	1063901	45651	110991	0	0	8009	609296	0	0
2024-07-31 09:05:47			0	36320	0	0	0	29550	28140	168177	26958	1063892	45638	110992	0	0	8012	607226	0	0
2024-07-31 09:06:47			0	36359	0	0	0	29550	28140	168001	26937	1063892	45661	110992	0	0	8014	605615	0	0
2024-07-31 09:07:47			0	36414	0	0	0	29555	28140	167901	26653	1063847	45651	110994	0	0	8017	603348	0	0
2024-07-31 09:08:47			0	36483	0	0	0	29553	28130	167425	26660	1063937	45638	110993	0	0	8021	600547	0	0
2024-07-31 09:09:47			0	36536	0	0	0	29555	28140	167229	26795	1063901	45651	110994	0	0	8025	598340	0	0
2024-07-31 09:10:47			0	36586	0	0	0	29542	28140	166901	26731	1063928	45639	110989	0	0	8028	596296	0	0
2024-07-31 09:11:47			0	36645	0	0	0	29558	28150	166754	26920	1063883	45662	110995	0	0	8031	593856	0	0
2024-07-31 09:12:47			0	36670	0	0	0	29561	28140	166538	26883	1063928	45651	110996	0	0	8032	592873	0	0
2024-07-31 09:13:47			0	36698	0	0	0	29558	28140	166514	27123	1063865	45638	110995	0	0	8034	591735	0	0
2024-07-31 09:14:47			0	36706	0	0	0	29555	28140	166470	27116	1063901	45651	110994	0	0	8035	591410	0	0
2024-07-31 09:15:47			0	36690	0	0	0	29558	28140	166422	26785	1063874	45639	110995	0	0	8034	592060	0	0
2024-07-31 09:16:47			0	36699	0	0	0	29566	28140	166526	26654	1063955	45662	110998	0	0	8034	591694	0	0
2024-07-31 09:17:47			0	36677	0	0	0	29561	28140	166538	26779	1063955	45662	110996	0	0	8033	592589	0	0
2024-07-31 09:18:47			0	36684	0	0	0	29561	28160	166614	26842	1064009	45685	110996	0	0	8033	592236	0	0
2024-07-31 09:19:47			0	36678	0	0	0	29566	28140	166678	26764	1063973	45638	110998	0	0	8033	592548	0	0
2024-07-31 09:20:47			0	36654	0	0	0	29558	28150	166666	26746	1063973	45640	110995	0	0	8032	593490	0	0
2024-07-31 09:21:47			0	36670	0	0	0	29555	28150	166846	26944	1063973	45652	110994	0	0	8033	592839	0	0
2024-07-31 09:22:47			0	36639	0	0	0	29561	28160	166674	27104	1063955	45663	110996	0	0	8031	594066	0	0
2024-07-31 09:23:47			0	36637	0	0	0	29558	28140	166882	26981	1063928	45651	110995	0	0	8030	594216	0	0
2024-07-31 09:24:47			0	36622	0	0	0	29550	28150	166910	27005	1063999	45652	110992	0	0	8030	594793	0	0
2024-07-31 09:25:47			0	36629	0	0	0	29550	28150	166866	26882	1063990	45651	110992	0	0	8030	594508	0	0
2024-07-31 09:26:47			0	36627	0	0	0	29548	28150	166886	27138	1063937	45662	110991	0	0	8030	594590	0	0
2024-07-31 09:27:47			0	36629	0	0	0	29563	28150	166914	27095	1063946	45652	110997	0	0	8030	594508	0	0
2024-07-31 09:28:47			0	36640	0	0	0	29555	28150	166878	26956	1063946	45652	110994	0	0	8031	594060	0	0
2024-07-31 09:29:47			0	36628	0	0	0	29550	28150	166826	26828	1064053	45652	110992	0	0	8030	594549	0	0
2024-07-31 09:30:47			0	36634	0	0	0	29561	28150	166958	27308	1063964	45651	110996	0	0	8030	594304	0	0
2024-07-31 09:31:47			0	36629	0	0	0	29563	28160	166830	26970	1063982	45652	110997	0	0	8030	594474	0	0
2024-07-31 09:32:47			0	36650	0	0	0	29566	28150	166822	26712	1063919	45663	110998	0	0	8031	593653	0	0
2024-07-31 09:33:47			0	36648	0	0	0	29568	28150	166710	27118	1063919	45652	110999	0	0	8031	593734	0	0
2024-07-31 09:34:47			0	36655	0	0	0	29563	28160	166822	26908	1064036	45640	110997	0	0	8032	593415	0	0
2024-07-31 09:35:47			0	36656	0	0	0	29566	28150	166918	27183	1064026	45652	110998	0	0	8032	593409	0	0
2024-07-31 09:36:47			0	36637	0	0	0	29573	28160	166878	27261	1063982	45663	111001	0	0	8030	594148	0	0
2024-07-31 09:37:47			0	36635	0	0	0	29573	28160	166850	27100	1064072	45653	111001	0	0	8030	594229	0	0
2024-07-31 09:38:47			0	36615	0	0	0	29571	28160	166938	26922	1064036	45652	111000	0	0	8029	595044	0	0
2024-07-31 09:39:47			0	36609	0	0	0	29571	28170	166886	27168	1064054	45653	111000	0	0	8029	595255	0	0
2024-07-31 09:40:47			0	36585	0	0	0	29571	28170	167026	27060	1064080	45664	111000	0	0	8027	596234	0	0
2024-07-31 09:41:47			0	36560	0	0	0	29579	28160	167093	27189	1064045	45653	111003	0	0	8026	597290	0	0
2024-07-31 09:42:47			0	36571	0	0	0	29584	28160	167053	27102	1064063	45652	111005	0	0	8026	596840	0	0
2024-07-31 09:43:47			0	36557	0	0	0	29584	28170	167077	27289	1064107	45664	111005	0	0	8025	597378	0	0
2024-07-31 09:44:47			0	36535	0	0	0	29571	28160	167269	27003	1064045	45653	111000	0	0	8024	598312	0	0
2024-07-31 09:45:47			0	36519	0	0	0	29581	28180	167341	26764	1064071	45666	111004	0	0	8023	598898	0	0
2024-07-31 09:46:47			0	36486	0	0	0	29576	28170	167373	27000	1064161	45653	111002	0	0	8021	600285	0	0
2024-07-31 09:47:47			0	36490	0	0	0	29586	28180	167389	27144	1064071	45643	111006	0	0	8021	600086	0	0
2024-07-31 09:48:47			0	36477	0	0	0	29581	28170	167489	27133	1064089	45654	111004	0	0	8021	600655	0	0
2024-07-31 09:49:47			0	36465	0	0	0	29594	28180	167525	27178	1064080	45666	111009	0	0	8020	601112	0	0
2024-07-31 09:50:47			0	36453	0	0	0	29597	28170	167561	26696	1064062	45654	111010	0	0	8019	601640	0	0
2024-07-31 09:51:47			0	36459	0	0	0	29594	28180	167589	27164	1064161	45655	111009	0	0	8019	601359	0	0
2024-07-31 09:52:47			0	36464	0	0	0	29594	28180	167601	27249	1064179	45655	111009	0	0	8020	601153	0	0
2024-07-31 09:53:47			0	36460	0	0	0	29599	28190	167569	26863	1064170	45655	111011	0	0	8020	601283	0	0
2024-07-31 09:54:47			0	36466	0	0	0	29602	28180	167585	27121	1064242	45666	111012	0	0	8020	601071	0	0
2024-07-31 09:55:47			0	36469	0	0	0	29605	28180	167565	27024	1064188	45666	111013	0	0	8020	600948	0	0
2024-07-31 09:56:47			0	36460	0	0	0	29612	28190	167541	26941	1064224	45666	111016	0	0	8019	601283	0	0
2024-07-31 09:57:47			0	36466	0	0	0	29610	28190	167529	26965	1064251	45643	111015	0	0	8020	601037	0	0
2024-07-31 09:58:47			0	36475	0	0	0	29615	28190	167469	26937	1064152	45656	111017	0	0	8020	600667	0	0
2024-07-31 09:59:47			0	36491	0	0	0	29623	28200	167405	26934	1064278	45679	111020	0	0	8021	599976	0	0
2024-07-31 10:00:47			0	36515	0	0	0	29620	28190	167349	27026	1064233	45666	111019	0	0	8022	599027	0	0
2024-07-31 10:01:47			0	36525	0	0	0	29620	28200	167353	27085	1064332	45657	111019	0	0	8023	598583	0	0
2024-07-31 10:02:47			0	36537	0	0	0	29631	28220	167269	26908	1064305	45659	111023	0	0	8024	598023	0	0
2024-07-31 10:03:47			0	36564	0	0	0	29625	28200	167209	26955	1064332	45667	111021	0	0	8025	596988	0	0
2024-07-31 10:04:47			0	36573	0	0	0	29633	28220	167133	27095	1064305	45659	111024	0	0	8026	596552	0	0
2024-07-31 10:05:47			0	36601	0	0	0	29631	28220	167054	26984	1064332	45659	111023	0	0	8028	595409	0	0
2024-07-31 10:06:47			0	36621	0	0	0	29631	28220	166830	27111	1064314	45669	111023	0	0	8029	594594	0	0
2024-07-31 10:07:47			0	36657	0	0	0	29625	28230	166790	27102	1064403	45660	111021	0	0	8031	593094	0	0
2024-07-31 10:08:47			0	36659	0	0	0	29631	28230	166654	27020	1064376	45670	111023	0	0	8031	593012	0	0
2024-07-31 10:09:47			0	36683	0	0	0	29631	28230	166534	26731	1064403	45681	111023	0	0	8032	592037	0	0
2024-07-31 10:10:47			0	36684	0	0	0	29633	28220	166598	27173	1064341	45647	111024	0	0	8032	592030	0	0
2024-07-31 10:11:47			0	36664	0	0	0	29631	28220	166638	27116	1064341	45647	111023	0	0	8031	592843	0	0
2024-07-31 10:12:47			0	36630	0	0	0	29628	28220	166846	27097	1064341	45659	111022	0	0	8029	594227	0	0
2024-07-31 10:13:47			0	36610	0	0	0	29636	28230	167026	26738	1064376	45660	111025	0	0	8028	595008	0	0
2024-07-31 10:14:47			0	36582	0	0	0	29638	28220	167037	26866	1064367	45659	111026	0	0	8026	596184	0	0
2024-07-31 10:15:47			0	36559	0	0	0	29641	28220	167113	26831	1064394	45659	111027	0	0	8025	597124	0	0
2024-07-31 10:16:47			0	36539	0	0	0	29644	28230	167225	27069	1064430	45681	111028	0	0	8024	597907	0	0
2024-07-31 10:17:47			0	36499	0	0	0	29651	28230	167381	26911	1064430	45660	111031	0	0	8021	599544	0	0
2024-07-31 10:18:47			0	36504	0	0	0	29651	28240	167417	27045	1064421	45661	111031	0	0	8022	599305	0	0
2024-07-31 10:19:47			0	36480	0	0	0	29651	28240	167653	27005	1064421	45661	111031	0	0	8020	600289	0	0
2024-07-31 10:20:47			0	36469	0	0	0	29657	28240	167653	27190	1064430	45683	111033	0	0	8019	600740	0	0
2024-07-31 10:21:47			0	36473	0	0	0	29651	28230	167733	27027	1064466	45660	111031	0	0	8020	600611	0	0
2024-07-31 10:22:47			0	36488	0	0	0	29654	28240	167629	26743	1064556	45661	111032	0	0	8021	599961	0	0
2024-07-31 10:23:47			0	36456	0	0	0	29664	28240	167601	27149	1064565	45662	111036	0	0	8018	601274	0	0
2024-07-31 10:24:47			0	36475	0	0	0	29680	28250	167577	27277	1064520	45662	111042	0	0	8019	600459	0	0
2024-07-31 10:25:47			0	36459	0	0	0	29670	28250	167669	26708	1064520	45683	111038	0	0	8019	601116	0	0
2024-07-31 10:26:47			0	36489	0	0	0	29672	28250	167545	27078	1064520	45662	111039	0	0	8020	599885	0	0
2024-07-31 10:27:47			0	36479	0	0	0	29667	28250	167545	26812	1064466	45683	111037	0	0	8020	600295	0	0
2024-07-31 10:28:47			0	36494	0	0	0	29664	28260	167489	26755	1064520	45652	111036	0	0	8021	599645	0	0
2024-07-31 10:29:47			0	36480	0	0	0	29672	28260	167413	27249	1064565	45663	111039	0	0	8020	600219	0	0
2024-07-31 10:30:47			0	36490	0	0	0	29662	28250	167429	26771	1064529	45662	111035	0	0	8021	599844	0	0
2024-07-31 10:31:47			0	36509	0	0	0	29664	28250	167405	26909	1064529	45662	111036	0	0	8022	599066	0	0
2024-07-31 10:32:47			0	36519	0	0	0	29677	28260	167405	26861	1064574	45674	111041	0	0	8022	598621	0	0
2024-07-31 10:33:47			0	36535	0	0	0	29677	28270	167217	27086	1064637	45664	111041	0	0	8023	597932	0	0
2024-07-31 10:34:47			0	36534	0	0	0	29688	28260	167081	26930	1064619	45673	111045	0	0	8023	598008	0	0
2024-07-31 10:35:47			0	36559	0	0	0	29688	28270	167025	27007	1064691	45685	111045	0	0	8024	596951	0	0
2024-07-31 10:36:47			0	36569	0	0	0	29696	28270	166961	27013	1064619	45664	111048	0	0	8025	596543	0	0
2024-07-31 10:37:47			0	36566	0	0	0	29696	28270	167021	27118	1064673	45664	111048	0	0	8025	596665	0	0
2024-07-31 10:38:47			0	36579	0	0	0	29703	28280	166937	26920	1064682	45665	111051	0	0	8025	596100	0	0
2024-07-31 10:39:47			0	36594	0	0	0	29711	28280	166869	27066	1064736	45653	111054	0	0	8026	595488	0	0
2024-07-31 10:40:47			0	36608	0	0	0	29711	28290	166994	26765	1064754	45666	111054	0	0	8027	594883	0	0
2024-07-31 10:41:47			0	36597	0	0	0	29716	28290	166821	27060	1064727	45687	111056	0	0	8026	595331	0	0
2024-07-31 10:42:47			0	36614	0	0	0	29711	28280	166722	27001	1064745	45654	111054	0	0	8027	594673	0	0
2024-07-31 10:43:47			0	36622	0	0	0	29711	28290	166714	26701	1064754	45687	111054	0	0	8028	594312	0	0
2024-07-31 10:44:47			0	36627	0	0	0	29711	28300	166710	26821	1064808	45678	111054	0	0	8028	594075	0	0
2024-07-31 10:45:47			0	36619	0	0	0	29719	28310	166758	27109	1064844	45668	111057	0	0	8028	594366	0	0
2024-07-31 10:46:47			0	36654	0	0	0	29716	28310	166730	26949	1064870	45668	111056	0	0	8030	592942	0	0
2024-07-31 10:47:47			0	36635	0	0	0	29719	28300	166678	26791	1064781	45667	111057	0	0	8028	593749	0	0
2024-07-31 10:48:47			0	36649	0	0	0	29729	28300	166590	27067	1064835	45678	111061	0	0	8029	593179	0	0
2024-07-31 10:49:47			0	36668	0	0	0	29732	28310	166530	26927	1064879	45690	111062	0	0	8030	592373	0	0
2024-07-31 10:50:47			0	36667	0	0	0	29729	28320	166654	27048	1064888	45668	111061	0	0	8030	592379	0	0
2024-07-31 10:51:47			0	36663	0	0	0	29737	28310	166554	27107	1064933	45668	111064	0	0	8030	592576	0	0
2024-07-31 10:52:47			0	36664	0	0	0	29740	28320	166614	26908	1064915	45679	111065	0	0	8030	592501	0	0
2024-07-31 10:53:47			0	36653	0	0	0	29753	28320	166546	26682	1064915	45668	111070	0	0	8029	592948	0	0
2024-07-31 10:54:47			0	36668	0	0	0	29750	28320	166474	26817	1064915	45668	111069	0	0	8030	592338	0	0
2024-07-31 10:55:47			0	36666	0	0	0	29766	28330	166486	26975	1064987	45669	111075	0	0	8030	592385	0	0
2024-07-31 10:56:47			0	36681	0	0	0	29758	28330	166414	26960	1065014	45681	111072	0	0	8031	591776	0	0
2024-07-31 10:57:47			0	36688	0	0	0	29768	28340	166442	27331	1065086	45692	111076	0	0	8031	591458	0	0
2024-07-31 10:58:47			0	36679	0	0	0	29776	28340	166386	26892	1065059	45659	111079	0	0	8030	591823	0	0
2024-07-31 10:59:47			0	36682	0	0	0	29781	28340	166266	26882	1065095	45705	111081	0	0	8030	591701	0	0
2024-07-31 11:00:47			0	36707	0	0	0	29774	28350	166354	26694	1065050	45683	111078	0	0	8032	590653	0	0
2024-07-31 11:01:47			0	36698	0	0	0	29779	28350	166346	26844	1065077	45671	111080	0	0	8031	591018	0	0
2024-07-31 11:02:47			0	36712	0	0	0	29774	28350	166298	27208	1065104	45683	111078	0	0	8032	590450	0	0
2024-07-31 11:03:47			0	36707	0	0	0	29776	28350	166386	26885	1065140	45694	111079	0	0	8032	590653	0	0
2024-07-31 11:04:47			0	36703	0	0	0	29786	28360	166318	26866	1065122	45683	111083	0	0	8032	590781	0	0
2024-07-31 11:05:47			0	36714	0	0	0	29776	28370	166214	27209	1065140	45673	111079	0	0	8032	590301	0	0
2024-07-31 11:06:47			0	36724	0	0	0	29768	28370	166298	27069	1065140	45696	111076	0	0	8033	589895	0	0
2024-07-31 11:07:47			0	36722	0	0	0	29786	28370	166210	26955	1065167	45685	111083	0	0	8033	589976	0	0
2024-07-31 11:08:47			0	36697	0	0	0	29789	28370	166326	26887	1065256	45674	111084	0	0	8031	590990	0	0
2024-07-31 11:09:47			0	36692	0	0	0	29792	28380	166302	26538	1065131	45686	111085	0	0	8031	591159	0	0
2024-07-31 11:10:47			0	36709	0	0	0	29786	28380	166374	26927	1065247	45686	111083	0	0	8032	590469	0	0
2024-07-31 11:11:47			0	36719	0	0	0	29797	28380	166234	27033	1065220	45664	111087	0	0	8032	590064	0	0
2024-07-31 11:12:47			0	36714	0	0	0	29818	28380	166266	26814	1065247	45686	111095	0	0	8032	590266	0	0
2024-07-31 11:13:47			0	36693	0	0	0	29815	28400	166362	26994	1065238	45676	111094	0	0	8031	591050	0	0
2024-07-31 11:14:47			0	36718	0	0	0	29823	28380	166214	26826	1065247	45686	111097	0	0	8032	590104	0	0
2024-07-31 11:15:47			0	36731	0	0	0	29831	28390	166310	26745	1065310	45665	111100	0	0	8033	589544	0	0
2024-07-31 11:16:47			0	36704	0	0	0	29820	28400	166234	27026	1065319	45699	111096	0	0	8031	590604	0	0
2024-07-31 11:17:47			0	36718	0	0	0	29815	28410	166258	27057	1065364	45676	111094	0	0	8032	590002	0	0
2024-07-31 11:18:47			0	36713	0	0	0	29825	28410	166378	26955	1065400	45689	111098	0	0	8032	590205	0	0
2024-07-31 11:19:47			0	36715	0	0	0	29831	28410	166262	26722	1065391	45699	111100	0	0	8032	590124	0	0
2024-07-31 11:20:47			0	36712	0	0	0	29838	28420	166238	26856	1065409	45690	111103	0	0	8032	590211	0	0
2024-07-31 11:21:47			0	36714	0	0	0	29836	28420	166214	26840	1065499	45701	111102	0	0	8032	590130	0	0
2024-07-31 11:22:47			0	36707	0	0	0	29841	28420	166182	27015	1065418	45690	111104	0	0	8031	590414	0	0
2024-07-31 11:23:47			0	36698	0	0	0	29841	28420	166186	26942	1065445	45701	111104	0	0	8031	590779	0	0
2024-07-31 11:24:47			0	36709	0	0	0	29841	28430	166198	27010	1065544	45691	111104	0	0	8031	590298	0	0
2024-07-31 11:25:47			0	36713	0	0	0	29849	28430	166202	27225	1065517	45691	111107	0	0	8031	590136	0	0
2024-07-31 11:26:47			0	36716	0	0	0	29836	28430	166182	27057	1065544	45679	111102	0	0	8032	590015	0	0
2024-07-31 11:27:47			0	36701	0	0	0	29844	28440	166262	26937	1065553	45680	111105	0	0	8031	590589	0	0
2024-07-31 11:28:47			0	36716	0	0	0	29841	28430	166178	27147	1065517	45702	111104	0	0	8032	590015	0	0
2024-07-31 11:29:47			0	36698	0	0	0	29851	28440	166270	26769	1065508	45681	111108	0	0	8031	590710	0	0
2024-07-31 11:30:47			0	36696	0	0	0	29844	28440	166318	26927	1065508	45681	111105	0	0	8031	590791	0	0
2024-07-31 11:31:47			0	36695	0	0	0	29841	28440	166206	26852	1065499	45680	111104	0	0	8031	590832	0	0
2024-07-31 11:32:47			0	36699	0	0	0	29846	28450	166310	27090	1065553	45681	111106	0	0	8031	590635	0	0
2024-07-31 11:33:47			0	36703	0	0	0	29846	28450	166286	26712	1065544	45681	111106	0	0	8031	590473	0	0
2024-07-31 11:34:47			0	36697	0	0	0	29854	28440	166366	26909	1065535	45681	111109	0	0	8030	590751	0	0
2024-07-31 11:35:47			0	36687	0	0	0	29841	28450	166322	27119	1065553	45693	111104	0	0	8030	591122	0	0
2024-07-31 11:36:47			0	36680	0	0	0	29859	28450	166262	26847	1065598	45681	111111	0	0	8029	591406	0	0
2024-07-31 11:37:47			0	36690	0	0	0	29857	28450	166226	26994	1065553	45681	111110	0	0	8030	591001	0	0
2024-07-31 11:38:47			0	36698	0	0	0	29867	28450	166390	26925	1065660	45681	111114	0	0	8030	590676	0	0
2024-07-31 11:39:47			0	36677	0	0	0	29867	28460	166310	27038	1065651	45695	111114	0	0	8029	591494	0	0
2024-07-31 11:40:47			0	36688	0	0	0	29870	28460	166310	27022	1065624	45695	111115	0	0	8030	591048	0	0
2024-07-31 11:41:47			0	36692	0	0	0	29872	28470	166282	26951	1065660	45672	111116	0	0	8030	590851	0	0
2024-07-31 11:42:47			0	36681	0	0	0	29870	28460	166250	26916	1065678	45683	111115	0	0	8029	591331	0	0
2024-07-31 11:43:47			0	36687	0	0	0	29870	28460	166194	26703	1065669	45671	111115	0	0	8030	591088	0	0
2024-07-31 11:44:47			0	36687	0	0	0	29875	28460	166370	26965	1065678	45672	111117	0	0	8030	591088	0	0
2024-07-31 11:45:47			0	36678	0	0	0	29875	28470	166342	26618	1065714	45683	111117	0	0	8029	591419	0	0
2024-07-31 11:46:47			0	36669	0	0	0	29867	28480	166322	27038	1065678	45673	111114	0	0	8029	591750	0	0
2024-07-31 11:47:47			0	36701	0	0	0	29885	28480	166250	26904	1065741	45674	111121	0	0	8030	590452	0	0
2024-07-31 11:48:47			0	36686	0	0	0	29875	28480	166322	27057	1065714	45685	111117	0	0	8030	591060	0	0
2024-07-31 11:49:47			0	36695	0	0	0	29880	28470	166246	26906	1065750	45695	111119	0	0	8030	590729	0	0
2024-07-31 11:50:47			0	36704	0	0	0	29880	28480	166322	26996	1065759	45696	111119	0	0	8031	590331	0	0
2024-07-31 11:51:47			0	36693	0	0	0	29893	28480	166390	27137	1065741	45708	111124	0	0	8030	590776	0	0
2024-07-31 11:52:47			0	36680	0	0	0	29909	28490	166270	26684	1065804	45685	111130	0	0	8029	591269	0	0
2024-07-31 11:53:47			0	36695	0	0	0	29919	28480	166314	26918	1065876	45697	111134	0	0	8029	590695	0	0
2024-07-31 11:54:47			0	36701	0	0	0	29929	28500	166390	27081	1065849	45686	111138	0	0	8030	590384	0	0
2024-07-31 11:55:47			0	36700	0	0	0	29914	28500	166190	27251	1065849	45686	111132	0	0	8030	590424	0	0
2024-07-31 11:56:47			0	36714	0	0	0	29901	28500	166210	26663	1065849	45686	111127	0	0	8031	589857	0	0
2024-07-31 11:57:47			0	36698	0	0	0	29906	28510	166238	26804	1065840	45688	111129	0	0	8030	590471	0	0
2024-07-31 11:58:47			0	36694	0	0	0	29911	28510	166206	26948	1065876	45688	111131	0	0	8030	590633	0	0
2024-07-31 11:59:47			0	36703	0	0	0	29914	28500	166134	27187	1065912	45687	111132	0	0	8030	590303	0	0
2024-07-31 12:00:47			0	36709	0	0	0	29922	28500	166174	27008	1065939	45699	111135	0	0	8030	590059	0	0
2024-07-31 12:01:47			0	36711	0	0	0	29937	28510	166174	27072	1065948	45700	111141	0	0	8030	589944	0	0
2024-07-31 12:02:47			0	36709	0	0	0	29940	28510	166170	27007	1065921	45700	111142	0	0	8030	590025	0	0
2024-07-31 12:03:47			0	36713	0	0	0	29942	28520	166226	26968	1066019	45688	111143	0	0	8030	589829	0	0
2024-07-31 12:04:47			0	36727	0	0	0	29955	28520	166114	27150	1066055	45689	111148	0	0	8031	589262	0	0
2024-07-31 12:05:47			0	36707	0	0	0	29963	28520	166090	27043	1066109	45701	111151	0	0	8030	590072	0	0
2024-07-31 12:06:47			0	36729	0	0	0	29984	28540	166002	27163	1066110	45702	111159	0	0	8031	589113	0	0
2024-07-31 12:07:47			0	36714	0	0	0	29981	28540	166070	26842	1066110	45702	111158	0	0	8030	589720	0	0
2024-07-31 12:08:47			0	36724	0	0	0	29994	28540	166174	27144	1066199	45703	111163	0	0	8030	589316	0	0
2024-07-31 12:09:47			0	36734	0	0	0	30005	28560	166114	27034	1066280	45714	111167	0	0	8031	588843	0	0
2024-07-31 12:10:47			0	36703	0	0	0	29994	28550	166182	27315	1066217	45704	111163	0	0	8029	590132	0	0
2024-07-31 12:11:47			0	36726	0	0	0	29984	28570	166102	27012	1066190	45683	111159	0	0	8031	589132	0	0
2024-07-31 12:12:47			0	36733	0	0	0	29994	28570	166126	27192	1066253	45716	111163	0	0	8031	588849	0	0
2024-07-31 12:13:47			0	36716	0	0	0	29994	28570	166078	26771	1066271	45683	111163	0	0	8030	589537	0	0
2024-07-31 12:14:47			0	36722	0	0	0	29992	28570	166034	26845	1066271	45694	111162	0	0	8030	589294	0	0
2024-07-31 12:15:47			0	36721	0	0	0	29999	28570	166026	27095	1066325	45705	111165	0	0	8030	589335	0	0
2024-07-31 12:16:47			0	36708	0	0	0	30002	28570	166122	26864	1066298	45705	111166	0	0	8029	589861	0	0
2024-07-31 12:17:47			0	36700	0	0	0	30010	28570	166086	26948	1066361	45705	111169	0	0	8029	590185	0	0
2024-07-31 12:18:47			0	36684	0	0	0	30025	28580	166130	27156	1066370	45695	111175	0	0	8028	590799	0	0
2024-07-31 12:19:47			0	36704	0	0	0	30033	28590	166154	26958	1066442	45729	111178	0	0	8029	589955	0	0
2024-07-31 12:20:47			0	36689	0	0	0	30028	28600	166134	27010	1066442	45730	111176	0	0	8028	590528	0	0
2024-07-31 12:21:47			0	36702	0	0	0	30041	28600	166146	27128	1066487	45697	111181	0	0	8028	590002	0	0
2024-07-31 12:22:47			0	36690	0	0	0	30028	28600	166134	27052	1066487	45697	111176	0	0	8028	590488	0	0
2024-07-31 12:23:47			0	36692	0	0	0	30049	28610	166198	26982	1066558	45708	111184	0	0	8028	590373	0	0
2024-07-31 12:24:47			0	36686	0	0	0	30038	28610	166142	26906	1066567	45709	111180	0	0	8028	590616	0	0
2024-07-31 12:25:47			0	36661	0	0	0	30038	28620	166170	26908	1066522	45709	111180	0	0	8026	591596	0	0
2024-07-31 12:26:47			0	36659	0	0	0	30049	28630	166182	26901	1066648	45710	111184	0	0	8026	591642	0	0
2024-07-31 12:27:47			0	36639	0	0	0	30044	28630	166126	26925	1066630	45701	111182	0	0	8025	592454	0	0
2024-07-31 12:28:47			0	36628	0	0	0	30049	28640	166258	26960	1066702	45712	111184	0	0	8024	592867	0	0
2024-07-31 12:29:47			0	36623	0	0	0	30044	28640	166218	26902	1066693	45723	111182	0	0	8024	593070	0	0
2024-07-31 12:30:47			0	36613	0	0	0	30054	28640	166422	27081	1066720	45701	111186	0	0	8023	593477	0	0
2024-07-31 12:31:47			0	36599	0	0	0	30049	28650	166430	27261	1066693	45713	111184	0	0	8022	594012	0	0
2024-07-31 12:32:47			0	36592	0	0	0	30054	28640	166449	27088	1066648	45702	111186	0	0	8022	594331	0	0
2024-07-31 12:33:47			0	36569	0	0	0	30049	28640	166461	26713	1066747	45701	111184	0	0	8021	595268	0	0
2024-07-31 12:34:47			0	36574	0	0	0	30049	28640	166493	27131	1066783	45712	111184	0	0	8021	595064	0	0
2024-07-31 12:35:47			0	36575	0	0	0	30057	28650	166473	26892	1066684	45702	111187	0	0	8021	594989	0	0
2024-07-31 12:36:47			0	36567	0	0	0	30051	28650	166549	26776	1066684	45712	111185	0	0	8021	595315	0	0
2024-07-31 12:37:47			0	36559	0	0	0	30046	28640	166585	27154	1066702	45690	111183	0	0	8020	595675	0	0
2024-07-31 12:38:47			0	36553	0	0	0	30044	28650	166589	27072	1066693	45680	111182	0	0	8020	595885	0	0
2024-07-31 12:39:47			0	36548	0	0	0	30057	28650	166645	26960	1066693	45703	111187	0	0	8019	596089	0	0
2024-07-31 12:40:47			0	36535	0	0	0	30072	28650	166513	26925	1066747	45703	111193	0	0	8018	596620	0	0
2024-07-31 12:41:47			0	36539	0	0	0	30085	28660	166517	27159	1066756	45725	111198	0	0	8018	596422	0	0
2024-07-31 12:42:47			0	36543	0	0	0	30093	28660	166569	27092	1066864	45725	111201	0	0	8018	596259	0	0
2024-07-31 12:43:47			0	36544	0	0	0	30088	28670	166497	26965	1066801	45714	111199	0	0	8019	596183	0	0
2024-07-31 12:44:47			0	36536	0	0	0	30088	28660	166625	26859	1066846	45714	111199	0	0	8018	596544	0	0
2024-07-31 12:45:47			0	36536	0	0	0	30098	28670	166705	26908	1066882	45714	111203	0	0	8018	596510	0	0
2024-07-31 12:46:47			0	36526	0	0	0	30098	28680	166745	26901	1066864	45705	111203	0	0	8017	596883	0	0
2024-07-31 12:47:47			0	36538	0	0	0	30093	28680	166593	26642	1066927	45706	111201	0	0	8018	596394	0	0
2024-07-31 12:48:47			0	36541	0	0	0	30103	28680	166641	27069	1066900	45694	111205	0	0	8018	596271	0	0
2024-07-31 12:49:47			0	36539	0	0	0	30109	28680	166693	26883	1066918	45715	111207	0	0	8018	596353	0	0
2024-07-31 12:50:47			0	36519	0	0	0	30098	28680	166669	26991	1066891	45705	111203	0	0	8017	597169	0	0
2024-07-31 12:51:47			0	36524	0	0	0	30093	28690	166685	26878	1066945	45729	111201	0	0	8017	596930	0	0
2024-07-31 12:52:47			0	36534	0	0	0	30090	28690	166609	26828	1066855	45706	111200	0	0	8018	596522	0	0
2024-07-31 12:53:47			0	36510	0	0	0	30085	28690	166733	27085	1066945	45707	111198	0	0	8017	597502	0	0
2024-07-31 12:54:47			0	36523	0	0	0	30098	28690	166757	26833	1066945	45707	111203	0	0	8017	596971	0	0
2024-07-31 12:55:47			0	36526	0	0	0	30098	28690	166801	26759	1066918	45729	111203	0	0	8017	596849	0	0
2024-07-31 12:56:47			0	36523	0	0	0	30083	28710	166761	26927	1066999	45718	111197	0	0	8018	596902	0	0
2024-07-31 12:57:47			0	36515	0	0	0	30059	28680	166769	27102	1066954	45716	111188	0	0	8017	597332	0	0
2024-07-31 12:58:47			0	36500	0	0	0	30064	28700	166765	26960	1066873	45717	111190	0	0	8017	597876	0	0
2024-07-31 12:59:47			0	36511	0	0	0	30070	28700	166813	26654	1066954	45695	111192	0	0	8017	597427	0	0
2024-07-31 13:00:47			0	36487	0	0	0	30093	28700	166805	27124	1066990	45708	111201	0	0	8015	598407	0	0
2024-07-31 13:01:47			0	36496	0	0	0	30083	28710	166909	27253	1066999	45718	111197	0	0	8016	598005	0	0
2024-07-31 13:02:47			0	36497	0	0	0	30090	28710	166973	26824	1067026	45718	111200	0	0	8016	597964	0	0
2024-07-31 13:03:47			0	36484	0	0	0	30135	28710	166953	26949	1067134	45718	111217	0	0	8014	598495	0	0
2024-07-31 13:04:47			0	36481	0	0	0	30161	28710	166973	27031	1067142	45742	111227	0	0	8014	598618	0	0
2024-07-31 13:05:47			0	36479	0	0	0	30163	28730	166917	26970	1067142	45709	111228	0	0	8014	598631	0	0
2024-07-31 13:06:47			0	36478	0	0	0	30114	28730	166989	26852	1067115	45698	111209	0	0	8015	598671	0	0
2024-07-31 13:07:47			0	36480	0	0	0	30122	28730	166993	27156	1067088	45709	111212	0	0	8015	598590	0	0
2024-07-31 13:08:47			0	36469	0	0	0	30109	28720	167009	26788	1067133	45732	111207	0	0	8014	599074	0	0
2024-07-31 13:09:47			0	36458	0	0	0	30075	28720	166953	27059	1067053	45698	111194	0	0	8014	599525	0	0
2024-07-31 13:10:47			0	36453	0	0	0	30067	28720	167081	26774	1066945	45698	111191	0	0	8014	599729	0	0
2024-07-31 13:11:47			0	36446	0	0	0	30098	28720	167077	26949	1066990	45708	111203	0	0	8013	600016	0	0
2024-07-31 13:12:47			0	36444	0	0	0	30085	28720	167037	26863	1067017	45719	111198	0	0	8013	600098	0	0
2024-07-31 13:13:47			0	36445	0	0	0	30096	28710	166981	27039	1066954	45697	111202	0	0	8013	600092	0	0
2024-07-31 13:14:47			0	36451	0	0	0	30119	28720	166989	27131	1067044	45708	111211	0	0	8013	599811	0	0
2024-07-31 13:15:47			0	36450	0	0	0	30122	28720	167009	27241	1067106	45720	111212	0	0	8013	599852	0	0
2024-07-31 13:16:47			0	36462	0	0	0	30096	28720	166889	27062	1067124	45731	111202	0	0	8014	599361	0	0
2024-07-31 13:17:47			0	36437	0	0	0	30096	28730	166981	26920	1067151	45721	111202	0	0	8012	600350	0	0
2024-07-31 13:18:47			0	36441	0	0	0	30093	28730	167013	27022	1067151	45721	111201	0	0	8013	600186	0	0
2024-07-31 13:19:47			0	36433	0	0	0	30077	28740	167065	27161	1067133	45699	111195	0	0	8013	600479	0	0
2024-07-31 13:20:47			0	36431	0	0	0	30075	28730	167113	27105	1067071	45710	111194	0	0	8012	600596	0	0
2024-07-31 13:21:47			0	36436	0	0	0	30067	28730	167085	26901	1067115	45709	111191	0	0	8013	600391	0	0
2024-07-31 13:22:47			0	36425	0	0	0	30067	28730	167101	27298	1067097	45710	111191	0	0	8012	600842	0	0
2024-07-31 13:23:47			0	36420	0	0	0	30059	28720	167073	26994	1066999	45687	111188	0	0	8012	601082	0	0
2024-07-31 13:24:47			0	36455	0	0	0	30059	28720	167049	27083	1067044	45697	111188	0	0	8014	599647	0	0
2024-07-31 13:25:47			0	36428	0	0	0	30059	28720	167077	27202	1066999	45709	111188	0	0	8012	600754	0	0
2024-07-31 13:26:47			0	36433	0	0	0	30070	28730	167005	26748	1067115	45698	111192	0	0	8013	600514	0	0
2024-07-31 13:27:47			0	36436	0	0	0	30064	28710	167117	27310	1067035	45708	111190	0	0	8013	600461	0	0
2024-07-31 13:28:47			0	36448	0	0	0	30070	28730	167073	26809	1067061	45687	111192	0	0	8014	599899	0	0
2024-07-31 13:29:47			0	36436	0	0	0	30057	28720	167057	27244	1067044	45686	111187	0	0	8013	600426	0	0
2024-07-31 13:30:47			0	36435	0	0	0	30062	28720	166993	27118	1067080	45698	111189	0	0	8013	600467	0	0
2024-07-31 13:31:47			0	36460	0	0	0	30054	28710	167077	27182	1067008	45697	111186	0	0	8014	599478	0	0
2024-07-31 13:32:47			0	36430	0	0	0	30070	28720	167077	27190	1067080	45698	111192	0	0	8012	600672	0	0
2024-07-31 13:33:47			0	36445	0	0	0	30077	28730	167077	26934	1067088	45709	111195	0	0	8013	600022	0	0
2024-07-31 13:34:47			0	36436	0	0	0	30075	28720	167169	26660	1067080	45709	111194	0	0	8013	600426	0	0
2024-07-31 13:35:47			0	36413	0	0	0	30072	28720	167193	26994	1067026	45709	111193	0	0	8011	601369	0	0
2024-07-31 13:36:47			0	36416	0	0	0	30072	28720	167189	27267	1067080	45698	111193	0	0	8012	601246	0	0
2024-07-31 13:37:47			0	36398	0	0	0	30075	28710	167093	27137	1067062	45708	111194	0	0	8010	602020	0	0
2024-07-31 13:38:47			0	36399	0	0	0	30072	28720	167293	27246	1067071	45708	111193	0	0	8011	601944	0	0
2024-07-31 13:39:47			0	36380	0	0	0	30083	28710	167381	27088	1066999	45696	111197	0	0	8009	602759	0	0
2024-07-31 13:40:47			0	36369	0	0	0	30116	28720	167185	27066	1067133	45709	111210	0	0	8008	603176	0	0
2024-07-31 13:41:47			0	36383	0	0	0	30153	28730	167369	27036	1067250	45720	111224	0	0	8008	602566	0	0
2024-07-31 13:42:47			0	36376	0	0	0	30184	28740	167349	26840	1067349	45754	111236	0	0	8007	602819	0	0
2024-07-31 13:43:47			0	36382	0	0	0	30218	28760	167265	26963	1067421	45735	111249	0	0	8007	602502	0	0
2024-07-31 13:44:47			0	36386	0	0	0	30280	28770	167321	27088	1067574	45758	111273	0	0	8006	602303	0	0
2024-07-31 13:45:47			0	36419	0	0	0	30316	28790	167225	27064	1067736	45760	111287	0	0	8008	600879	0	0
2024-07-31 13:46:47			0	36421	0	0	0	30251	28810	167077	27152	1067781	45751	111262	0	0	8009	600727	0	0
2024-07-31 13:47:47			0	36425	0	0	0	30231	28820	166965	27216	1067745	45731	111254	0	0	8010	600529	0	0
2024-07-31 13:48:47			0	36437	0	0	0	30254	28830	167049	26800	1067781	45731	111263	0	0	8010	600002	0	0
2024-07-31 13:49:47			0	36443	0	0	0	30236	28830	166897	27168	1067736	45731	111256	0	0	8011	599757	0	0
2024-07-31 13:50:47			0	36442	0	0	0	30228	28840	166953	27079	1067745	45720	111253	0	0	8011	599763	0	0
2024-07-31 13:51:47			0	36447	0	0	0	30194	28840	166885	27159	1067834	45721	111240	0	0	8012	599558	0	0
2024-07-31 13:52:47			0	36470	0	0	0	30197	28840	166845	27131	1067691	45709	111241	0	0	8013	598617	0	0
2024-07-31 13:53:47			0	36457	0	0	0	30189	28830	166773	27187	1067682	45708	111238	0	0	8013	599184	0	0
2024-07-31 13:54:47			0	36475	0	0	0	30189	28840	166873	26804	1067664	45720	111238	0	0	8014	598413	0	0
2024-07-31 13:55:47			0	36484	0	0	0	30223	28830	166789	26998	1067682	45719	111251	0	0	8014	598079	0	0
2024-07-31 13:56:47			0	36487	0	0	0	30251	28840	166805	26993	1067825	45732	111262	0	0	8013	597922	0	0
2024-07-31 13:57:47			0	36502	0	0	0	30192	28840	166833	26941	1067727	45700	111239	0	0	8015	597310	0	0
2024-07-31 13:58:47			0	36506	0	0	0	30197	28840	166881	26889	1067691	45720	111241	0	0	8015	597146	0	0
2024-07-31 13:59:47			0	36502	0	0	0	30207	28830	166689	27111	1067655	45708	111245	0	0	8015	597344	0	0
2024-07-31 14:00:47			0	36525	0	0	0	30238	28840	166705	26875	1067798	45720	111257	0	0	8016	596371	0	0
2024-07-31 14:01:47			0	36522	0	0	0	30223	28840	166637	26955	1067807	45710	111251	0	0	8016	596493	0	0
2024-07-31 14:02:47			0	36528	0	0	0	30189	28850	166561	26899	1067744	45710	111238	0	0	8017	596214	0	0
2024-07-31 14:03:47			0	36546	0	0	0	30207	28850	166537	26746	1067736	45710	111245	0	0	8018	595480	0	0
2024-07-31 14:04:47			0	36541	0	0	0	30205	28850	166645	26700	1067709	45733	111244	0	0	8017	595684	0	0
2024-07-31 14:05:47			0	36543	0	0	0	30207	28840	166625	27007	1067753	45700	111245	0	0	8017	595637	0	0
2024-07-31 14:06:47			0	36554	0	0	0	30207	28830	166629	26757	1067655	45719	111245	0	0	8018	595224	0	0
2024-07-31 14:07:47			0	36573	0	0	0	30212	28840	166569	26922	1067718	45709	111247	0	0	8019	594416	0	0
2024-07-31 14:08:47			0	36543	0	0	0	30223	28840	166677	26852	1067745	45709	111251	0	0	8017	595637	0	0
2024-07-31 14:09:47			0	36551	0	0	0	30233	28840	166617	27039	1067780	45733	111255	0	0	8017	595311	0	0
2024-07-31 14:10:47			0	36561	0	0	0	30251	28850	166513	26942	1067897	45721	111262	0	0	8018	594870	0	0
2024-07-31 14:11:47			0	36561	0	0	0	30270	28850	166689	26899	1067960	45744	111269	0	0	8017	594870	0	0
2024-07-31 14:12:47			0	36552	0	0	0	30264	28860	166613	27128	1067951	45735	111267	0	0	8017	595202	0	0
2024-07-31 14:13:47			0	36554	0	0	0	30296	28870	166633	27128	1068050	45713	111279	0	0	8017	595086	0	0
2024-07-31 14:14:47			0	36546	0	0	0	30350	28880	166629	26949	1068203	45748	111300	0	0	8015	595377	0	0
2024-07-31 14:15:47			0	36529	0	0	0	30340	28890	166597	27187	1068275	45749	111296	0	0	8015	596035	0	0
2024-07-31 14:16:47			0	36558	0	0	0	30329	28900	166537	26979	1068257	45749	111292	0	0	8016	594819	0	0
2024-07-31 14:17:47			0	36573	0	0	0	30327	28910	166565	27130	1068248	45728	111291	0	0	8017	594174	0	0
2024-07-31 14:18:47			0	36581	0	0	0	30358	28920	166509	27216	1068266	45728	111303	0	0	8017	593815	0	0
2024-07-31 14:19:47			0	36569	0	0	0	30368	28930	166489	27414	1068419	45742	111307	0	0	8017	594268	0	0
2024-07-31 14:20:47			0	36590	0	0	0	30332	28930	166421	27180	1068347	45730	111293	0	0	8018	593414	0	0
2024-07-31 14:21:47			0	36609	0	0	0	30303	28920	166346	27293	1068221	45718	111282	0	0	8020	592677	0	0
2024-07-31 14:22:47			0	36636	0	0	0	30298	28930	166266	27521	1068158	45697	111280	0	0	8022	591547	0	0
2024-07-31 14:23:47			0	36655	0	0	0	30322	28920	166106	27412	1068221	45718	111289	0	0	8022	590811	0	0
2024-07-31 14:24:47			0	36673	0	0	0	30337	28920	166050	27147	1068302	45718	111295	0	0	8023	590082	0	0
2024-07-31 14:25:47			0	36669	0	0	0	30296	28930	166026	27348	1068338	45730	111279	0	0	8024	590210	0	0
2024-07-31 14:26:47			0	36688	0	0	0	30290	28940	165906	27180	1068275	45708	111277	0	0	8025	589407	0	0
2024-07-31 14:27:47			0	36713	0	0	0	30280	28920	165890	27085	1068275	45707	111273	0	0	8027	588464	0	0
2024-07-31 14:28:47			0	36717	0	0	0	30306	28940	165890	27170	1068365	45731	111283	0	0	8026	588234	0	0
2024-07-31 14:29:47			0	36720	0	0	0	30337	28940	165854	27208	1068419	45731	111295	0	0	8026	588113	0	0
2024-07-31 14:30:47			0	36716	0	0	0	30298	28950	165838	27211	1068437	45733	111280	0	0	8027	588241	0	0
2024-07-31 14:31:47			0	36725	0	0	0	30277	28960	165906	27152	1068419	45722	111272	0	0	8028	587843	0	0
2024-07-31 14:32:47			0	36728	0	0	0	30264	28960	165798	27164	1068338	45722	111267	0	0	8028	587722	0	0
2024-07-31 14:33:47			0	36708	0	0	0	30264	28950	165706	27064	1068356	45710	111267	0	0	8027	588564	0	0
2024-07-31 14:34:47			0	36716	0	0	0	30267	28930	165710	27258	1068320	45697	111268	0	0	8027	588309	0	0
2024-07-31 14:35:47			0	36716	0	0	0	30249	28950	165742	27177	1068329	45722	111261	0	0	8027	588241	0	0
2024-07-31 14:36:47			0	36728	0	0	0	30254	28930	165734	27147	1068320	45708	111263	0	0	8028	587824	0	0
2024-07-31 14:37:47			0	36720	0	0	0	30314	28930	165798	27097	1068338	45719	111286	0	0	8026	588147	0	0
2024-07-31 14:38:47			0	36734	0	0	0	30363	28940	165694	26928	1068473	45720	111305	0	0	8027	587548	0	0
2024-07-31 14:39:47			0	36736	0	0	0	30402	28970	165666	27088	1068545	45734	111320	0	0	8026	587365	0	0
2024-07-31 14:40:47			0	36775	0	0	0	30394	28980	165538	26798	1068662	45747	111317	0	0	8029	585759	0	0
2024-07-31 14:41:47			0	36769	0	0	0	30350	28980	165550	26793	1068590	45735	111300	0	0	8029	586000	0	0
2024-07-31 14:42:47			0	36768	0	0	0	30316	28980	165486	27022	1068563	45724	111287	0	0	8030	586041	0	0
2024-07-31 14:43:47			0	36767	0	0	0	30345	28990	165442	27196	1068572	45712	111298	0	0	8029	586047	0	0
2024-07-31 14:44:47			0	36783	0	0	0	30420	29000	165478	27003	1068725	45737	111327	0	0	8029	585369	0	0
2024-07-31 14:45:47			0	36782	0	0	0	30376	29000	165386	27088	1068671	45737	111310	0	0	8029	585409	0	0
2024-07-31 14:46:47			0	36812	0	0	0	30402	29010	165326	27227	1068770	45737	111320	0	0	8031	584168	0	0
2024-07-31 14:47:47			0	36798	0	0	0	30446	29020	165298	27062	1068815	45750	111337	0	0	8029	584697	0	0
2024-07-31 14:48:47			0	36814	0	0	0	30451	29030	165338	26994	1068806	45740	111339	0	0	8030	584020	0	0
2024-07-31 14:49:47			0	36796	0	0	0	30483	29040	165286	27045	1068986	45763	111351	0	0	8029	584710	0	0
2024-07-31 14:50:47			0	36802	0	0	0	30477	29040	165190	26993	1068968	45742	111349	0	0	8029	584469	0	0
2024-07-31 14:51:47			0	36820	0	0	0	30441	29050	165242	26963	1069013	45742	111335	0	0	8031	583711	0	0
2024-07-31 14:52:47			0	36851	0	0	0	30402	29050	165022	27166	1068896	45731	111320	0	0	8033	582467	0	0
2024-07-31 14:53:47			0	36899	0	0	0	30379	29060	164786	26840	1068896	45733	111311	0	0	8037	580509	0	0
2024-07-31 14:54:47			0	36925	0	0	0	30412	29050	164758	27039	1068905	45731	111324	0	0	8037	579503	0	0
2024-07-31 14:55:47			0	36962	0	0	0	30425	29050	164626	27003	1068959	45719	111329	0	0	8039	578025	0	0
2024-07-31 14:56:47			0	36944	0	0	0	30397	29060	164534	27190	1068941	45732	111318	0	0	8039	578710	0	0
2024-07-31 14:57:47			0	36954	0	0	0	30379	29070	164546	27102	1068959	45733	111311	0	0	8040	578277	0	0
2024-07-31 14:58:47			0	36962	0	0	0	30379	29060	164570	27065	1068869	45721	111311	0	0	8040	577991	0	0
2024-07-31 14:59:47			0	36955	0	0	0	30371	29060	164642	26951	1068860	45732	111308	0	0	8040	578271	0	0
2024-07-31 15:00:47			0	36959	0	0	0	30373	29050	164606	26953	1068815	45719	111309	0	0	8040	578145	0	0
2024-07-31 15:01:47			0	36953	0	0	0	30363	29040	164614	26970	1068752	45708	111305	0	0	8040	578418	0	0
2024-07-31 15:02:47			0	36932	0	0	0	30368	29030	164694	26918	1068788	45729	111307	0	0	8038	579290	0	0
2024-07-31 15:03:47			0	36925	0	0	0	30361	29030	164710	26956	1068671	45729	111304	0	0	8038	579570	0	0
2024-07-31 15:04:47			0	36921	0	0	0	30353	29030	164746	26814	1068698	45729	111301	0	0	8038	579730	0	0
2024-07-31 15:05:47			0	36914	0	0	0	30361	29020	164758	26821	1068680	45706	111304	0	0	8038	580044	0	0
2024-07-31 15:06:47			0	36916	0	0	0	30350	29010	164782	26774	1068644	45705	111300	0	0	8038	579997	0	0
2024-07-31 15:07:47			0	36899	0	0	0	30361	29010	164814	27170	1068635	45714	111304	0	0	8037	580678	0	0
2024-07-31 15:08:47			0	36895	0	0	0	30355	29010	164906	27045	1068581	45714	111302	0	0	8036	580838	0	0
2024-07-31 15:09:47			0	36886	0	0	0	30361	29000	164974	27140	1068572	45714	111304	0	0	8036	581232	0	0
2024-07-31 15:10:47			0	36889	0	0	0	30361	29000	164986	26689	1068545	45714	111304	0	0	8036	581112	0	0
2024-07-31 15:11:47			0	36875	0	0	0	30363	28990	165058	26729	1068581	45725	111305	0	0	8035	581707	0	0
2024-07-31 15:12:47			0	36844	0	0	0	30363	29000	165170	26918	1068590	45714	111305	0	0	8033	582916	0	0
2024-07-31 15:13:47			0	36844	0	0	0	30353	29000	165102	27282	1068599	45726	111301	0	0	8033	582916	0	0
2024-07-31 15:14:47			0	36825	0	0	0	30348	28990	165218	26778	1068572	45712	111299	0	0	8032	583713	0	0
2024-07-31 15:15:47			0	36792	0	0	0	30340	28980	165294	27039	1068590	45724	111296	0	0	8031	585074	0	0
2024-07-31 15:16:47			0	36779	0	0	0	30332	28990	165342	27175	1068500	45703	111293	0	0	8030	585564	0	0
2024-07-31 15:17:47			0	36758	0	0	0	30329	28980	165482	26981	1068446	45735	111292	0	0	8029	586444	0	0
2024-07-31 15:18:47			0	36752	0	0	0	30324	28970	165470	26958	1068464	45723	111290	0	0	8028	586720	0	0
2024-07-31 15:19:47			0	36729	0	0	0	30319	28970	165634	26916	1068437	45723	111288	0	0	8027	587648	0	0
2024-07-31 15:20:47			0	36721	0	0	0	30311	28970	165706	27121	1068383	45711	111285	0	0	8027	587971	0	0
2024-07-31 15:21:47			0	36721	0	0	0	30314	28960	165590	26875	1068392	45722	111286	0	0	8027	588005	0	0
2024-07-31 15:22:47			0	36723	0	0	0	30327	28960	165654	26897	1068392	45722	111291	0	0	8027	587924	0	0
2024-07-31 15:23:47			0	36724	0	0	0	30322	28950	165742	27095	1068428	45721	111289	0	0	8027	587918	0	0
2024-07-31 15:24:47			0	36720	0	0	0	30332	28960	165710	26984	1068473	45722	111293	0	0	8026	588045	0	0
2024-07-31 15:25:47			0	36718	0	0	0	30340	28970	165730	26970	1068482	45733	111296	0	0	8026	588092	0	0
2024-07-31 15:26:47			0	36716	0	0	0	30353	28970	165790	27015	1068455	45733	111301	0	0	8026	588172	0	0
2024-07-31 15:27:47			0	36714	0	0	0	30371	28970	165758	27275	1068518	45711	111308	0	0	8025	588253	0	0
2024-07-31 15:28:47			0	36738	0	0	0	30389	28990	165674	26977	1068662	45736	111315	0	0	8027	587216	0	0
2024-07-31 15:29:47			0	36766	0	0	0	30394	28980	165582	27066	1068644	45747	111317	0	0	8028	586121	0	0
2024-07-31 15:30:47			0	36777	0	0	0	30386	28980	165498	27039	1068590	45747	111314	0	0	8029	585678	0	0
2024-07-31 15:31:47			0	36804	0	0	0	30373	29000	165410	26942	1068644	45737	111309	0	0	8031	584524	0	0
2024-07-31 15:32:47			0	36781	0	0	0	30373	28980	165370	26861	1068644	45747	111309	0	0	8029	585517	0	0
2024-07-31 15:33:47			0	36783	0	0	0	30358	29000	165526	27017	1068536	45726	111303	0	0	8030	585369	0	0
2024-07-31 15:34:47			0	36726	0	0	0	30366	29000	165646	27272	1068644	45726	111306	0	0	8026	587666	0	0
2024-07-31 15:35:47			0	36717	0	0	0	30371	28990	165694	26944	1068635	45748	111308	0	0	8026	588064	0	0
2024-07-31 15:36:47			0	36708	0	0	0	30376	29010	165710	27272	1068644	45738	111310	0	0	8025	588359	0	0
2024-07-31 15:37:47			0	36704	0	0	0	30381	28990	165698	27053	1068608	45736	111312	0	0	8025	588589	0	0
2024-07-31 15:38:47			0	36715	0	0	0	30381	28990	165718	26984	1068635	45736	111312	0	0	8025	588145	0	0
2024-07-31 15:39:47			0	36714	0	0	0	30384	29010	165762	27206	1068725	45750	111313	0	0	8025	588117	0	0
2024-07-31 15:40:47			0	36735	0	0	0	30389	29000	165694	27078	1068707	45759	111315	0	0	8026	587303	0	0
2024-07-31 15:41:47			0	36715	0	0	0	30386	29010	165678	27194	1068635	45726	111314	0	0	8025	588076	0	0
2024-07-31 15:42:47			0	36717	0	0	0	30368	29010	165782	27111	1068662	45737	111307	0	0	8026	587996	0	0
2024-07-31 15:43:47			0	36715	0	0	0	30376	29010	165782	27060	1068698	45727	111310	0	0	8026	588076	0	0
2024-07-31 15:44:47			0	36687	0	0	0	30376	29010	165798	26882	1068689	45737	111310	0	0	8024	589208	0	0
2024-07-31 15:45:47			0	36684	0	0	0	30384	29000	165678	26932	1068707	45726	111313	0	0	8024	589363	0	0
2024-07-31 15:46:47			0	36682	0	0	0	30410	29010	165794	26913	1068806	45738	111323	0	0	8023	589410	0	0
2024-07-31 15:47:47			0	36699	0	0	0	30407	29020	165706	26998	1068850	45750	111322	0	0	8024	588688	0	0
2024-07-31 15:48:47			0	36708	0	0	0	30428	29030	165722	27027	1068779	45750	111330	0	0	8024	588291	0	0
2024-07-31 15:49:47			0	36730	0	0	0	30431	29030	165694	27156	1068869	45740	111331	0	0	8026	587403	0	0
2024-07-31 15:50:47			0	36731	0	0	0	30407	29030	165618	27131	1068833	45729	111322	0	0	8026	587362	0	0
2024-07-31 15:51:47			0	36730	0	0	0	30410	29020	165786	26916	1068796	45729	111323	0	0	8026	587437	0	0
2024-07-31 15:52:47			0	36719	0	0	0	30415	29030	165714	26989	1068842	45740	111325	0	0	8025	587847	0	0
2024-07-31 15:53:47			0	36698	0	0	0	30449	29040	165794	26817	1068878	45751	111338	0	0	8023	588661	0	0
2024-07-31 15:54:47			0	36718	0	0	0	30410	29040	165734	26922	1068887	45731	111323	0	0	8025	587853	0	0
2024-07-31 15:55:47			0	36699	0	0	0	30397	29040	165794	26994	1068797	45708	111318	0	0	8024	588620	0	0
2024-07-31 15:56:47			0	36681	0	0	0	30418	29030	166006	27010	1068842	45740	111326	0	0	8023	589382	0	0
2024-07-31 15:57:47			0	36673	0	0	0	30402	29030	165770	27144	1068815	45750	111320	0	0	8023	589706	0	0
2024-07-31 15:58:47			0	36679	0	0	0	30420	29030	165946	26939	1068833	45729	111327	0	0	8023	589463	0	0
2024-07-31 15:59:47			0	36657	0	0	0	30418	29040	165918	26885	1068851	45751	111326	0	0	8022	590319	0	0
2024-07-31 16:00:47			0	36673	0	0	0	30423	29040	165974	26981	1068878	45730	111328	0	0	8022	589671	0	0
2024-07-31 16:01:47			0	36680	0	0	0	30423	29030	165926	26972	1068842	45729	111328	0	0	8023	589423	0	0
2024-07-31 16:02:47			0	36669	0	0	0	30438	29040	165874	26951	1068833	45731	111334	0	0	8022	589833	0	0
2024-07-31 16:03:47			0	36689	0	0	0	30449	29050	165946	26731	1068896	45742	111338	0	0	8023	588990	0	0
2024-07-31 16:04:47			0	36680	0	0	0	30485	29050	165830	27026	1068950	45742	111352	0	0	8022	589354	0	0
2024-07-31 16:05:47			0	36709	0	0	0	30480	29060	165702	27187	1068941	45743	111350	0	0	8024	588148	0	0
2024-07-31 16:06:47			0	36705	0	0	0	30470	29060	165854	26923	1069075	45732	111346	0	0	8024	588310	0	0
2024-07-31 16:07:47			0	36683	0	0	0	30477	29070	165818	26821	1069040	45744	111349	0	0	8022	589164	0	0
2024-07-31 16:08:47			0	36692	0	0	0	30475	29080	165914	26972	1069084	45745	111348	0	0	8023	588766	0	0
2024-07-31 16:09:47			0	36673	0	0	0	30498	29070	165810	26733	1069156	45754	111357	0	0	8021	589569	0	0
2024-07-31 16:10:47			0	36679	0	0	0	30480	29080	165762	27074	1069120	45735	111350	0	0	8022	589292	0	0
2024-07-31 16:11:47			0	36677	0	0	0	30470	29080	165878	27308	1069066	45735	111346	0	0	8022	589373	0	0
2024-07-31 16:12:47			0	36680	0	0	0	30467	29080	165842	27156	1069174	45746	111345	0	0	8022	589252	0	0
2024-07-31 16:13:47			0	36668	0	0	0	30501	29080	165846	27104	1069201	45735	111358	0	0	8021	589737	0	0
2024-07-31 16:14:47			0	36664	0	0	0	30522	29090	165830	27007	1069165	45747	111366	0	0	8020	589864	0	0
2024-07-31 16:15:47			0	36675	0	0	0	30522	29090	165898	27329	1069246	45747	111366	0	0	8021	589420	0	0
2024-07-31 16:16:47			0	36671	0	0	0	30514	29090	165846	27045	1069219	45735	111363	0	0	8021	589581	0	0
2024-07-31 16:17:47			0	36679	0	0	0	30501	29100	165814	27255	1069210	45748	111358	0	0	8022	589223	0	0
2024-07-31 16:18:47			0	36672	0	0	0	30496	29100	165602	27242	1069264	45748	111356	0	0	8021	589507	0	0
2024-07-31 16:19:47			0	36686	0	0	0	30496	29110	165650	26781	1069219	45749	111356	0	0	8022	588906	0	0
2024-07-31 16:20:47			0	36689	0	0	0	30514	29110	165686	27232	1069273	45749	111363	0	0	8022	588785	0	0
2024-07-31 16:21:47			0	36706	0	0	0	30532	29110	165582	26928	1069282	45759	111370	0	0	8023	588098	0	0
2024-07-31 16:22:47			0	36709	0	0	0	30522	29120	165554	26901	1069318	45759	111366	0	0	8023	587943	0	0
2024-07-31 16:23:47			0	36704	0	0	0	30524	29120	165634	26890	1069327	45760	111367	0	0	8023	588145	0	0
2024-07-31 16:24:47			0	36714	0	0	0	30462	29120	165462	26930	1069291	45737	111343	0	0	8025	587741	0	0
2024-07-31 16:25:47			0	36732	0	0	0	30425	29110	165338	26897	1069219	45726	111329	0	0	8026	587049	0	0
2024-07-31 16:26:47			0	36735	0	0	0	30501	29110	165518	26911	1069219	45726	111358	0	0	8025	586928	0	0
2024-07-31 16:27:47			0	36734	0	0	0	30535	29110	165470	27123	1069309	45749	111371	0	0	8024	586969	0	0
2024-07-31 16:28:47			0	36740	0	0	0	30524	29130	165446	26942	1069336	45739	111367	0	0	8025	586659	0	0
2024-07-31 16:29:47			0	36722	0	0	0	30516	29110	165422	27241	1069282	45749	111364	0	0	8024	587453	0	0
2024-07-31 16:30:47			0	36757	0	0	0	30537	29120	165374	27052	1069354	45750	111372	0	0	8026	586008	0	0
2024-07-31 16:31:47			0	36757	0	0	0	30527	29130	165306	26880	1069390	45750	111368	0	0	8026	585974	0	0
2024-07-31 16:32:47			0	36763	0	0	0	30540	29130	165250	26663	1069399	45761	111373	0	0	8026	585732	0	0
2024-07-31 16:33:47			0	36773	0	0	0	30527	29120	165382	26649	1069381	45750	111368	0	0	8027	585364	0	0
2024-07-31 16:34:47			0	36792	0	0	0	30553	29130	165262	26651	1069444	45750	111378	0	0	8028	584565	0	0
2024-07-31 16:35:47			0	36776	0	0	0	30506	29140	165234	26928	1069390	45740	111360	0	0	8028	585175	0	0
2024-07-31 16:36:47			0	36788	0	0	0	30483	29140	165210	26866	1069354	45750	111351	0	0	8029	584692	0	0
2024-07-31 16:37:47			0	36801	0	0	0	30509	29140	165106	27102	1069363	45740	111361	0	0	8029	584170	0	0
2024-07-31 16:38:47			0	36806	0	0	0	30519	29130	165174	27105	1069426	45750	111365	0	0	8029	584002	0	0
2024-07-31 16:39:47			0	36785	0	0	0	30545	29140	165130	26731	1069435	45761	111375	0	0	8027	584813	0	0
2024-07-31 16:40:47			0	36790	0	0	0	30548	29140	165074	27173	1069498	45740	111376	0	0	8028	584612	0	0
2024-07-31 16:41:47			0	36802	0	0	0	30553	29140	164990	27055	1069498	45762	111378	0	0	8028	584129	0	0
2024-07-31 16:42:47			0	36823	0	0	0	30542	29150	164970	27208	1069543	45741	111374	0	0	8030	583252	0	0
2024-07-31 16:43:47			0	36836	0	0	0	30555	29150	164954	26998	1069534	45775	111379	0	0	8030	582730	0	0
2024-07-31 16:44:47			0	36824	0	0	0	30563	29150	164970	27052	1069543	45752	111382	0	0	8029	583212	0	0
2024-07-31 16:45:47			0	36838	0	0	0	30571	29160	164986	27284	1069615	45764	111385	0	0	8030	582616	0	0
2024-07-31 16:46:47			0	36839	0	0	0	30586	29160	164878	27100	1069588	45764	111391	0	0	8030	582576	0	0
2024-07-31 16:47:47			0	36832	0	0	0	30586	29170	164970	26986	1069606	45755	111391	0	0	8030	582823	0	0
2024-07-31 16:48:47			0	36839	0	0	0	30586	29170	164926	27088	1069687	45766	111391	0	0	8030	582542	0	0
2024-07-31 16:49:47			0	36865	0	0	0	30592	29170	164934	26896	1069687	45766	111393	0	0	8031	581500	0	0
2024-07-31 16:50:47			0	36858	0	0	0	30576	29180	164922	27164	1069615	45766	111387	0	0	8031	581746	0	0
2024-07-31 16:51:47			0	36854	0	0	0	30579	29180	164802	27027	1069723	45755	111388	0	0	8031	581907	0	0
2024-07-31 16:52:47			0	36871	0	0	0	30589	29180	164766	27260	1069651	45755	111392	0	0	8032	581226	0	0
2024-07-31 16:53:47			0	36875	0	0	0	30602	29180	164826	27239	1069732	45755	111397	0	0	8032	581066	0	0
2024-07-31 16:54:47			0	36881	0	0	0	30599	29190	164814	26779	1069768	45767	111396	0	0	8032	580792	0	0
2024-07-31 16:55:47			0	36884	0	0	0	30625	29190	164814	27216	1069804	45757	111406	0	0	8032	580672	0	0
2024-07-31 16:56:47			0	36884	0	0	0	30631	29200	164662	26821	1069795	45757	111408	0	0	8032	580638	0	0
2024-07-31 16:57:47			0	36919	0	0	0	30667	29200	164582	27081	1069930	45757	111422	0	0	8033	579238	0	0
2024-07-31 16:58:47			0	36918	0	0	0	30649	29210	164590	26986	1069921	45770	111415	0	0	8034	579245	0	0
2024-07-31 16:59:47			0	36923	0	0	0	30625	29210	164614	27048	1069921	45782	111406	0	0	8034	579045	0	0
2024-07-31 17:00:47			0	36916	0	0	0	30586	29220	164678	27284	1069804	45749	111391	0	0	8035	579291	0	0
2024-07-31 17:01:47			0	36909	0	0	0	30566	29210	164562	27000	1069813	45748	111383	0	0	8035	579604	0	0
2024-07-31 17:02:47			0	36911	0	0	0	30589	29210	164514	27157	1069777	45736	111392	0	0	8034	579524	0	0
2024-07-31 17:03:47			0	36927	0	0	0	30592	29210	164474	27069	1069777	45758	111393	0	0	8035	578885	0	0
2024-07-31 17:04:47			0	36944	0	0	0	30584	29200	164486	27239	1069822	45746	111390	0	0	8036	578240	0	0
2024-07-31 17:05:47			0	36955	0	0	0	30602	29200	164494	27365	1069795	45735	111397	0	0	8037	577801	0	0
2024-07-31 17:06:47			0	36974	0	0	0	30610	29210	164446	26984	1069858	45747	111400	0	0	8038	577010	0	0
2024-07-31 17:07:47			0	36941	0	0	0	30561	29200	164310	26996	1069768	45746	111381	0	0	8037	578360	0	0
2024-07-31 17:08:47			0	36959	0	0	0	30511	29210	164398	27144	1069723	45747	111362	0	0	8039	577608	0	0
2024-07-31 17:09:47			0	36979	0	0	0	30501	29190	164202	27114	1069615	45746	111358	0	0	8040	576878	0	0
2024-07-31 17:10:47			0	36987	0	0	0	30501	29190	164262	26861	1069606	45745	111358	0	0	8040	576559	0	0
2024-07-31 17:11:47			0	36994	0	0	0	30537	29180	164330	27154	1069597	45755	111372	0	0	8040	576314	0	0
2024-07-31 17:12:47			0	36988	0	0	0	30550	29180	164214	27121	1069678	45744	111377	0	0	8039	576553	0	0
2024-07-31 17:13:47			0	37010	0	0	0	30558	29190	164230	27017	1069660	45756	111380	0	0	8041	575643	0	0
2024-07-31 17:14:47			0	37007	0	0	0	30581	29180	164242	26958	1069669	45755	111389	0	0	8040	575796	0	0
2024-07-31 17:15:47			0	37020	0	0	0	30594	29180	164198	26868	1069705	45755	111394	0	0	8041	575279	0	0
2024-07-31 17:16:47			0	37020	0	0	0	30599	29190	164254	26859	1069714	45756	111396	0	0	8041	575245	0	0
2024-07-31 17:17:47			0	37030	0	0	0	30568	29190	164166	26828	1069750	45757	111384	0	0	8042	574848	0	0
2024-07-31 17:18:47			0	37017	0	0	0	30529	29190	164178	27296	1069588	45746	111369	0	0	8042	575365	0	0
2024-07-31 17:19:47			0	37031	0	0	0	30514	29180	164046	27194	1069597	45733	111363	0	0	8043	574841	0	0
2024-07-31 17:20:47			0	37040	0	0	0	30542	29180	164054	27222	1069570	45744	111374	0	0	8043	574484	0	0
2024-07-31 17:21:47			0	37057	0	0	0	30545	29170	164090	27390	1069579	45744	111375	0	0	8043	573842	0	0
2024-07-31 17:22:47			0	37044	0	0	0	30532	29170	164022	27133	1069525	45755	111370	0	0	8043	574358	0	0
2024-07-31 17:23:47			0	37039	0	0	0	30529	29170	164094	26928	1069579	45744	111369	0	0	8043	574557	0	0
2024-07-31 17:24:47			0	37059	0	0	0	30524	29160	164002	26974	1069453	45742	111367	0	0	8044	573796	0	0
2024-07-31 17:25:47			0	37063	0	0	0	30529	29170	163986	26953	1069543	45765	111369	0	0	8044	573604	0	0
2024-07-31 17:26:47			0	37055	0	0	0	30553	29170	164038	26967	1069552	45755	111378	0	0	8043	573921	0	0
2024-07-31 17:27:47			0	37057	0	0	0	30548	29160	163974	26852	1069579	45753	111376	0	0	8043	573875	0	0
2024-07-31 17:28:47			0	37066	0	0	0	30548	29170	164014	27220	1069543	45754	111376	0	0	8044	573484	0	0
2024-07-31 17:29:47			0	37068	0	0	0	30558	29170	163974	27133	1069624	45754	111380	0	0	8044	573405	0	0
2024-07-31 17:30:47			0	37053	0	0	0	30545	29160	164014	27145	1069642	45764	111375	0	0	8043	574034	0	0
2024-07-31 17:31:47			0	37061	0	0	0	30522	29160	164070	26906	1069507	45742	111366	0	0	8044	573716	0	0
2024-07-31 17:32:47			0	37050	0	0	0	30548	29150	164102	26739	1069462	45752	111376	0	0	8043	574186	0	0
2024-07-31 17:33:47			0	37067	0	0	0	30553	29160	164118	27267	1069498	45742	111378	0	0	8044	573478	0	0
2024-07-31 17:34:47			0	37059	0	0	0	30561	29160	164118	27093	1069561	45753	111381	0	0	8043	573796	0	0
2024-07-31 17:35:47			0	37041	0	0	0	30571	29160	163938	27230	1069561	45753	111385	0	0	8042	574511	0	0
2024-07-31 17:36:47			0	37046	0	0	0	30553	29160	164078	27128	1069588	45764	111378	0	0	8043	574312	0	0
2024-07-31 17:37:47			0	37040	0	0	0	30537	29160	164038	26994	1069561	45742	111372	0	0	8043	574550	0	0
2024-07-31 17:38:47			0	37040	0	0	0	30509	29160	164114	26876	1069471	45742	111361	0	0	8043	574550	0	0
2024-07-31 17:39:47			0	37018	0	0	0	30524	29150	164142	27038	1069561	45752	111367	0	0	8041	575459	0	0
2024-07-31 17:40:47			0	37037	0	0	0	30555	29150	164194	26987	1069561	45752	111379	0	0	8042	574703	0	0
2024-07-31 17:41:47			0	37015	0	0	0	30561	29160	164266	26998	1069534	45753	111381	0	0	8041	575545	0	0
2024-07-31 17:42:47			0	37028	0	0	0	30519	29150	164294	27164	1069543	45752	111365	0	0	8042	575061	0	0
2024-07-31 17:43:47			0	37016	0	0	0	30516	29150	164238	27251	1069543	45741	111364	0	0	8041	575538	0	0
2024-07-31 17:44:47			0	37016	0	0	0	30514	29160	164214	26868	1069525	45753	111363	0	0	8042	575505	0	0
2024-07-31 17:45:47			0	37019	0	0	0	30519	29150	164226	27235	1069489	45752	111365	0	0	8042	575419	0	0
2024-07-31 17:46:47			0	37005	0	0	0	30542	29150	164138	27161	1069480	45752	111374	0	0	8040	575976	0	0
2024-07-31 17:47:47			0	37014	0	0	0	30540	29160	164262	26894	1069561	45776	111373	0	0	8041	575584	0	0
2024-07-31 17:48:47			0	37020	0	0	0	30501	29160	164190	26979	1069525	45742	111358	0	0	8042	575346	0	0
2024-07-31 17:49:47			0	37018	0	0	0	30511	29160	164130	27072	1069552	45742	111362	0	0	8042	575425	0	0
2024-07-31 17:50:47			0	37009	0	0	0	30540	29160	164126	27128	1069498	45753	111373	0	0	8041	575783	0	0
2024-07-31 17:51:47			0	37017	0	0	0	30529	29150	164174	26981	1069480	45752	111369	0	0	8041	575498	0	0
2024-07-31 17:52:47			0	37009	0	0	0	30509	29160	164230	26873	1069588	45776	111361	0	0	8041	575783	0	0
2024-07-31 17:53:47			0	37019	0	0	0	30522	29150	164294	26873	1069561	45741	111366	0	0	8042	575419	0	0
2024-07-31 17:54:47			0	37024	0	0	0	30542	29150	164222	26890	1069480	45752	111374	0	0	8042	575220	0	0
2024-07-31 17:55:47			0	37039	0	0	0	30542	29160	164110	27170	1069552	45753	111374	0	0	8042	574590	0	0
2024-07-31 17:56:47			0	37025	0	0	0	30548	29160	164098	26880	1069579	45753	111376	0	0	8042	575147	0	0
2024-07-31 17:57:47			0	37019	0	0	0	30553	29150	164162	26745	1069570	45775	111378	0	0	8041	575419	0	0
2024-07-31 17:58:47			0	37039	0	0	0	30548	29160	164190	27019	1069615	45764	111376	0	0	8042	574590	0	0
2024-07-31 17:59:47			0	37033	0	0	0	30545	29160	164122	27293	1069615	45764	111375	0	0	8042	574829	0	0
2024-07-31 18:00:47			0	37042	0	0	0	30545	29160	164142	27248	1069552	45753	111375	0	0	8043	574471	0	0
2024-07-31 18:01:47			0	37040	0	0	0	30529	29160	164110	27088	1069588	45753	111369	0	0	8043	574550	0	0
2024-07-31 18:02:47			0	37047	0	0	0	30537	29170	164034	26738	1069543	45754	111372	0	0	8043	574239	0	0
2024-07-31 18:03:47			0	37049	0	0	0	30553	29160	164006	27085	1069606	45764	111378	0	0	8043	574193	0	0
2024-07-31 18:04:47			0	37070	0	0	0	30555	29160	164006	27059	1069606	45753	111379	0	0	8044	573359	0	0
2024-07-31 18:05:47			0	37061	0	0	0	30540	29160	163970	26741	1069579	45764	111373	0	0	8044	573716	0	0
2024-07-31 18:06:47			0	37080	0	0	0	30524	29150	163926	27064	1069489	45752	111367	0	0	8045	572995	0	0
2024-07-31 18:07:47			0	37083	0	0	0	30511	29160	163846	26774	1069480	45764	111362	0	0	8046	572843	0	0
2024-07-31 18:08:47			0	37086	0	0	0	30519	29150	163958	27102	1069426	45741	111365	0	0	8046	572758	0	0
2024-07-31 18:09:47			0	37083	0	0	0	30524	29150	163962	27272	1069516	45752	111367	0	0	8045	572876	0	0
2024-07-31 18:10:47			0	37105	0	0	0	30516	29140	163842	27001	1069471	45751	111364	0	0	8047	572038	0	0
2024-07-31 18:11:47			0	37086	0	0	0	30522	29140	163834	26920	1069462	45750	111366	0	0	8045	572791	0	0
2024-07-31 18:12:47			0	37104	0	0	0	30516	29140	163874	27024	1069462	45750	111364	0	0	8047	572077	0	0
2024-07-31 18:13:47			0	37100	0	0	0	30524	29150	163838	26863	1069480	45752	111367	0	0	8046	572203	0	0
2024-07-31 18:14:47			0	37112	0	0	0	30529	29130	163794	26720	1069480	45750	111369	0	0	8047	571793	0	0
2024-07-31 18:15:47			0	37120	0	0	0	30542	29140	163838	27026	1069525	45751	111374	0	0	8047	571443	0	0
2024-07-31 18:16:47			0	37123	0	0	0	30542	29150	163846	26928	1069570	45741	111374	0	0	8047	571291	0	0
2024-07-31 18:17:47			0	37133	0	0	0	30550	29150	163818	27111	1069570	45763	111377	0	0	8048	570896	0	0
2024-07-31 18:18:47			0	37149	0	0	0	30540	29150	163726	26942	1069534	45763	111373	0	0	8049	570263	0	0
2024-07-31 18:19:47			0	37152	0	0	0	30548	29140	163670	27241	1069552	45774	111376	0	0	8049	570177	0	0
2024-07-31 18:20:47			0	37155	0	0	0	30555	29160	163566	27039	1069579	45776	111379	0	0	8049	569992	0	0
2024-07-31 18:21:47			0	37163	0	0	0	30555	29150	163586	27234	1069597	45752	111379	0	0	8049	569709	0	0
2024-07-31 18:22:47			0	37177	0	0	0	30555	29150	163538	27287	1069543	45775	111379	0	0	8050	569156	0	0
2024-07-31 18:23:47			0	37187	0	0	0	30555	29160	163562	27065	1069525	45764	111379	0	0	8051	568728	0	0
2024-07-31 18:24:47			0	37188	0	0	0	30553	29150	163414	26991	1069561	45763	111378	0	0	8051	568722	0	0
2024-07-31 18:25:47			0	37199	0	0	0	30545	29160	163470	26935	1069615	45742	111375	0	0	8052	568255	0	0
2024-07-31 18:26:47			0	37224	0	0	0	30524	29150	163398	26908	1069561	45752	111367	0	0	8053	567302	0	0
2024-07-31 18:27:47			0	37207	0	0	0	30537	29160	163270	26828	1069498	45742	111372	0	0	8052	567939	0	0
2024-07-31 18:28:47			0	37237	0	0	0	30535	29150	163210	27183	1069516	45775	111371	0	0	8054	566790	0	0
2024-07-31 18:29:47			0	37239	0	0	0	30511	29160	163222	26826	1069471	45742	111362	0	0	8055	566678	0	0
2024-07-31 18:30:47			0	37248	0	0	0	30488	29150	163174	27112	1069462	45752	111353	0	0	8055	566357	0	0
2024-07-31 18:31:47			0	37248	0	0	0	30490	29150	163154	27183	1069399	45752	111354	0	0	8055	566357	0	0
2024-07-31 18:32:47			0	37255	0	0	0	30496	29140	163194	27050	1069408	45750	111356	0	0	8056	566114	0	0
2024-07-31 18:33:47			0	37264	0	0	0	30483	29140	163006	27234	1069354	45739	111351	0	0	8056	565760	0	0
2024-07-31 18:34:47			0	37276	0	0	0	30477	29130	162978	27197	1069363	45739	111349	0	0	8057	565321	0	0
2024-07-31 18:35:47			0	37278	0	0	0	30472	29120	163122	27128	1069300	45738	111347	0	0	8057	565275	0	0
2024-07-31 18:36:47			0	37250	0	0	0	30457	29110	162858	26719	1069201	45749	111341	0	0	8056	566409	0	0
2024-07-31 18:37:47			0	37294	0	0	0	30451	29120	163086	27045	1069291	45749	111339	0	0	8059	564646	0	0
2024-07-31 18:38:47			0	37291	0	0	0	30462	29110	163026	26956	1069228	45737	111343	0	0	8058	564797	0	0
2024-07-31 18:39:47			0	37289	0	0	0	30462	29110	163210	26979	1069246	45749	111343	0	0	8058	564875	0	0
2024-07-31 18:40:47			0	37296	0	0	0	30444	29100	163062	27255	1069210	45748	111336	0	0	8059	564633	0	0
2024-07-31 18:41:47			0	37325	0	0	0	30446	29100	163071	26996	1069255	45747	111337	0	0	8060	563494	0	0
2024-07-31 18:42:47			0	37309	0	0	0	30462	29100	163074	27260	1069282	45769	111343	0	0	8059	564122	0	0
2024-07-31 18:43:47			0	37304	0	0	0	30470	29100	163054	27022	1069237	45758	111346	0	0	8059	564319	0	0
2024-07-31 18:44:47			0	37304	0	0	0	30462	29100	163078	27185	1069174	45769	111343	0	0	8059	564319	0	0
2024-07-31 18:45:47			0	37316	0	0	0	30462	29080	163055	27235	1069174	45746	111343	0	0	8060	563913	0	0
2024-07-31 18:46:47			0	37324	0	0	0	30451	29100	163047	27043	1069174	45735	111339	0	0	8060	563534	0	0
2024-07-31 18:47:47			0	37301	0	0	0	30451	29090	163002	26982	1069156	45757	111339	0	0	8059	564469	0	0
2024-07-31 18:48:47			0	37301	0	0	0	30425	29080	163046	27199	1069138	45734	111329	0	0	8059	564502	0	0
2024-07-31 18:49:47			0	37302	0	0	0	30425	29070	163158	27015	1069021	45733	111329	0	0	8059	564496	0	0
2024-07-31 18:50:47			0	37291	0	0	0	30418	29070	163102	26923	1069048	45754	111326	0	0	8059	564928	0	0
2024-07-31 18:51:47			0	37279	0	0	0	30423	29070	163286	27255	1069075	45744	111328	0	0	8058	565400	0	0
2024-07-31 18:52:47			0	37270	0	0	0	30438	29070	163318	27057	1069040	45744	111334	0	0	8057	565754	0	0
2024-07-31 18:53:47			0	37288	0	0	0	30454	29070	163142	27048	1069066	45766	111340	0	0	8058	565046	0	0
2024-07-31 18:54:47			0	37273	0	0	0	30470	29080	163242	27076	1069165	45767	111346	0	0	8057	565603	0	0
2024-07-31 18:55:47			0	37293	0	0	0	30472	29070	163210	26967	1069102	45777	111347	0	0	8058	564849	0	0
2024-07-31 18:56:47			0	37294	0	0	0	30462	29070	163174	27185	1069129	45766	111343	0	0	8058	564810	0	0
2024-07-31 18:57:47			0	37305	0	0	0	30472	29080	163162	27237	1069219	45767	111347	0	0	8059	564345	0	0
2024-07-31 18:58:47			0	37281	0	0	0	30485	29080	163166	26963	1069138	45755	111352	0	0	8057	565288	0	0
2024-07-31 18:59:47			0	37291	0	0	0	30490	29080	163242	26972	1069111	45755	111354	0	0	8058	564895	0	0
2024-07-31 19:00:47			0	37301	0	0	0	30488	29090	163210	27003	1069210	45757	111353	0	0	8058	564469	0	0
2024-07-31 19:01:47			0	37283	0	0	0	30498	29080	163138	26890	1069165	45767	111357	0	0	8057	565209	0	0
2024-07-31 19:02:47			0	37293	0	0	0	30493	29090	163126	26706	1069291	45769	111355	0	0	8058	564784	0	0
2024-07-31 19:03:47			0	37273	0	0	0	30496	29080	163162	26648	1069255	45768	111356	0	0	8056	565603	0	0
2024-07-31 19:04:47			0	37296	0	0	0	30493	29090	163202	27066	1069291	45757	111355	0	0	8058	564666	0	0
2024-07-31 19:05:47			0	37282	0	0	0	30501	29080	163118	27085	1069282	45756	111358	0	0	8057	565249	0	0
2024-07-31 19:06:47			0	37302	0	0	0	30501	29090	163214	27126	1069273	45780	111358	0	0	8058	564430	0	0
2024-07-31 19:07:47			0	37290	0	0	0	30503	29100	163202	27220	1069228	45757	111359	0	0	8057	564869	0	0
2024-07-31 19:08:47			0	37287	0	0	0	30511	29090	163158	27008	1069273	45769	111362	0	0	8057	565020	0	0
2024-07-31 19:09:47			0	37292	0	0	0	30516	29100	163070	26734	1069309	45780	111364	0	0	8057	564790	0	0
2024-07-31 19:10:47			0	37301	0	0	0	30514	29100	163058	26880	1069345	45770	111363	0	0	8058	564437	0	0
2024-07-31 19:11:47			0	37311	0	0	0	30529	29100	163055	27121	1069282	45769	111369	0	0	8058	564044	0	0
2024-07-31 19:12:47			0	37311	0	0	0	30532	29100	163098	27013	1069318	45803	111370	0	0	8058	564044	0	0
2024-07-31 19:13:47			0	37296	0	0	0	30540	29110	163110	27222	1069381	45771	111373	0	0	8057	564600	0	0
2024-07-31 19:14:47			0	37304	0	0	0	30540	29110	162938	27182	1069435	45782	111373	0	0	8058	564286	0	0
2024-07-31 19:15:47			0	37329	0	0	0	30548	29120	162947	27019	1069453	45782	111376	0	0	8059	563272	0	0
2024-07-31 19:16:47			0	37290	0	0	0	30561	29110	163038	26946	1069444	45759	111381	0	0	8056	564836	0	0
2024-07-31 19:17:47			0	37307	0	0	0	30555	29120	162934	27034	1069408	45794	111379	0	0	8058	564135	0	0
2024-07-31 19:18:47			0	37330	0	0	0	30548	29120	162975	27069	1069462	45783	111376	0	0	8059	563233	0	0
2024-07-31 19:19:47			0	37331	0	0	0	30545	29130	162899	27201	1069417	45761	111375	0	0	8059	563161	0	0
2024-07-31 19:20:47			0	37324	0	0	0	30548	29130	162850	27152	1069471	45773	111376	0	0	8059	563435	0	0
2024-07-31 19:21:47			0	37374	0	0	0	30548	29130	162747	27213	1069453	45773	111376	0	0	8062	561476	0	0
2024-07-31 19:22:47			0	37425	0	0	0	30524	29140	162599	26783	1069516	45761	111367	0	0	8065	559450	0	0
2024-07-31 19:23:47			0	37449	0	0	0	30540	29120	162335	27000	1069489	45772	111373	0	0	8066	558578	0	0
2024-07-31 19:24:47			0	37484	0	0	0	30545	29120	162239	26779	1069489	45772	111375	0	0	8068	557213	0	0
2024-07-31 19:25:47			0	37495	0	0	0	30519	29140	162167	26838	1069489	45784	111365	0	0	8069	556720	0	0
2024-07-31 19:26:47			0	37495	0	0	0	30519	29130	162151	26739	1069426	45784	111365	0	0	8069	556753	0	0
2024-07-31 19:27:47			0	37484	0	0	0	30509	29130	162235	26764	1069453	45739	111361	0	0	8069	557181	0	0
2024-07-31 19:28:47			0	37486	0	0	0	30490	29130	162299	26731	1069417	45784	111354	0	0	8069	557103	0	0
2024-07-31 19:29:47			0	37429	0	0	0	30496	29120	162407	27076	1069462	45750	111356	0	0	8066	559358	0	0
2024-07-31 19:30:47			0	37364	0	0	0	30490	29120	162751	26837	1069408	45772	111354	0	0	8062	561900	0	0
2024-07-31 19:31:47			0	37337	0	0	0	30475	29120	162943	27206	1069318	45759	111348	0	0	8061	562958	0	0
2024-07-31 19:32:47			0	37266	0	0	0	30483	29110	163222	27114	1069273	45749	111351	0	0	8056	565780	0	0
2024-07-31 19:33:47			0	37229	0	0	0	30483	29110	163446	26644	1069381	45771	111351	0	0	8054	567237	0	0
2024-07-31 19:34:47			0	37206	0	0	0	30485	29100	163470	27017	1069318	45781	111352	0	0	8053	568176	0	0
2024-07-31 19:35:47			0	37184	0	0	0	30467	29110	163542	27015	1069273	45771	111345	0	0	8052	569012	0	0
2024-07-31 19:36:47			0	37180	0	0	0	30436	29100	163582	27036	1069174	45757	111333	0	0	8052	569203	0	0
2024-07-31 19:37:47			0	37168	0	0	0	30441	29100	163662	27213	1069147	45747	111335	0	0	8051	569677	0	0
2024-07-31 19:38:47			0	37161	0	0	0	30433	29080	163742	26857	1069174	45735	111332	0	0	8051	570020	0	0
2024-07-31 19:39:47			0	37151	0	0	0	30436	29080	163638	26663	1069111	45745	111333	0	0	8050	570415	0	0
2024-07-31 19:40:47			0	37162	0	0	0	30470	29070	163626	26804	1069210	45766	111346	0	0	8050	570013	0	0
2024-07-31 19:41:47			0	37176	0	0	0	30475	29080	163642	26963	1069138	45755	111348	0	0	8051	569427	0	0
2024-07-31 19:42:47			0	37198	0	0	0	30467	29080	163574	26476	1069192	45755	111345	0	0	8053	568558	0	0
2024-07-31 19:43:47			0	37205	0	0	0	30480	29080	163542	26811	1069192	45755	111350	0	0	8053	568282	0	0
2024-07-31 19:44:47			0	37211	0	0	0	30475	29080	163506	27093	1069192	45778	111348	0	0	8053	568045	0	0
2024-07-31 19:45:47			0	37210	0	0	0	30472	29080	163494	26831	1069201	45756	111347	0	0	8053	568085	0	0
2024-07-31 19:46:47			0	37206	0	0	0	30477	29080	163538	26935	1069228	45791	111349	0	0	8053	568242	0	0
2024-07-31 19:47:47			0	37211	0	0	0	30467	29080	163434	26719	1069165	45755	111345	0	0	8053	568045	0	0
2024-07-31 19:48:47			0	37241	0	0	0	30464	29080	163458	27086	1069138	45755	111344	0	0	8055	566862	0	0
2024-07-31 19:49:47			0	37214	0	0	0	30467	29070	163542	26896	1069183	45744	111345	0	0	8053	567960	0	0
2024-07-31 19:50:47			0	37211	0	0	0	30483	29080	163474	26731	1069201	45779	111351	0	0	8053	568045	0	0
2024-07-31 19:51:47			0	37224	0	0	0	30477	29070	163414	26837	1069210	45754	111349	0	0	8054	567565	0	0
2024-07-31 19:52:47			0	37228	0	0	0	30472	29080	163462	26791	1069165	45755	111347	0	0	8054	567375	0	0
2024-07-31 19:53:47			0	37277	0	0	0	30464	29080	163258	26944	1069165	45755	111344	0	0	8057	565445	0	0
2024-07-31 19:54:47			0	37267	0	0	0	30459	29080	163314	26691	1069165	45755	111342	0	0	8057	565839	0	0
2024-07-31 19:55:47			0	37139	0	0	0	30444	29070	163770	26830	1069102	45754	111336	0	0	8049	570923	0	0
2024-07-31 19:56:47			0	37024	0	0	0	30444	29080	164226	26790	1069138	45767	111336	0	0	8043	575454	0	0
2024-07-31 19:57:47			0	36941	0	0	0	30454	29060	164694	27112	1069058	45744	111340	0	0	8038	578830	0	0
2024-07-31 19:58:47			0	36870	0	0	0	30457	29060	164978	26875	1069084	45766	111341	0	0	8033	581671	0	0
2024-07-31 19:59:47			0	36822	0	0	0	30457	29060	165162	26916	1069084	45766	111341	0	0	8031	583597	0	0
2024-07-31 20:00:47			0	36799	0	0	0	30457	29060	165182	26755	1069111	45754	111341	0	0	8029	584521	0	0
2024-07-31 20:01:47			0	36819	0	0	0	30459	29060	165294	26878	1069084	45754	111342	0	0	8030	583717	0	0
2024-07-31 20:02:47			0	36859	0	0	0	30462	29060	165186	27008	1069075	45753	111343	0	0	8033	582112	0	0
2024-07-31 20:03:47			0	36871	0	0	0	30467	29060	164994	26844	1069084	45766	111345	0	0	8033	581631	0	0
2024-07-31 20:04:47			0	36866	0	0	0	30464	29060	165046	26748	1069058	45754	111344	0	0	8033	581831	0	0
2024-07-31 20:05:47			0	36851	0	0	0	30464	29050	165074	27282	1069066	45752	111344	0	0	8032	582467	0	0
2024-07-31 20:06:47			0	36828	0	0	0	30464	29060	165162	26854	1069138	45789	111344	0	0	8031	583356	0	0
2024-07-31 20:07:47			0	36796	0	0	0	30449	29060	165394	26916	1069058	45766	111338	0	0	8029	584642	0	0
2024-07-31 20:08:47			0	36795	0	0	0	30407	29070	165462	27121	1069066	45744	111322	0	0	8030	584648	0	0
2024-07-31 20:09:47			0	36774	0	0	0	30397	29060	165430	26838	1069022	45765	111318	0	0	8029	585527	0	0
2024-07-31 20:10:47			0	36756	0	0	0	30397	29050	165610	26783	1068959	45752	111318	0	0	8028	586286	0	0
2024-07-31 20:11:47			0	36741	0	0	0	30397	29050	165494	26706	1068950	45752	111318	0	0	8027	586891	0	0
2024-07-31 20:12:47			0	36753	0	0	0	30402	29040	165594	27170	1068905	45741	111320	0	0	8027	586441	0	0
2024-07-31 20:13:47			0	36734	0	0	0	30397	29040	165534	26838	1068887	45752	111318	0	0	8026	587207	0	0
2024-07-31 20:14:47			0	36731	0	0	0	30399	29030	165550	27008	1068869	45750	111319	0	0	8026	587362	0	0
2024-07-31 20:15:47			0	36753	0	0	0	30410	29030	165546	27046	1068896	45762	111323	0	0	8027	586475	0	0
2024-07-31 20:16:47			0	36754	0	0	0	30431	29040	165622	26802	1068932	45741	111331	0	0	8027	586401	0	0
2024-07-31 20:17:47			0	36766	0	0	0	30418	29030	165686	27150	1068887	45762	111326	0	0	8028	585951	0	0
2024-07-31 20:18:47			0	36749	0	0	0	30418	29030	165598	26835	1068914	45762	111326	0	0	8027	586636	0	0
2024-07-31 20:19:47			0	36751	0	0	0	30415	29030	165530	26965	1068941	45750	111325	0	0	8027	586556	0	0
2024-07-31 20:20:47			0	36758	0	0	0	30423	29030	165602	26994	1068941	45773	111328	0	0	8027	586274	0	0
2024-07-31 20:21:47			0	36757	0	0	0	30410	29020	165578	26939	1068841	45761	111323	0	0	8027	586348	0	0
2024-07-31 20:22:47			0	36783	0	0	0	30397	29020	165430	26961	1068904	45750	111318	0	0	8029	585301	0	0
2024-07-31 20:23:47			0	36805	0	0	0	30394	29020	165450	26665	1068841	45761	111317	0	0	8031	584416	0	0
2024-07-31 20:24:47			0	36815	0	0	0	30399	29020	165354	26852	1068868	45750	111319	0	0	8031	584014	0	0
2024-07-31 20:25:47			0	36798	0	0	0	30397	29010	165390	27121	1068850	45770	111318	0	0	8030	584731	0	0
2024-07-31 20:26:47			0	36791	0	0	0	30392	29010	165454	27012	1068832	45783	111316	0	0	8030	585013	0	0
2024-07-31 20:27:47			0	36781	0	0	0	30394	29010	165458	27147	1068806	45750	111317	0	0	8029	585415	0	0
2024-07-31 20:28:47			0	36769	0	0	0	30384	29010	165510	26970	1068886	45760	111313	0	0	8029	585898	0	0
2024-07-31 20:29:47			0	36765	0	0	0	30384	29000	165526	26752	1068761	45759	111313	0	0	8028	586094	0	0
2024-07-31 20:30:47			0	36767	0	0	0	30371	29000	165558	26774	1068707	45759	111308	0	0	8029	586013	0	0
2024-07-31 20:31:47			0	36753	0	0	0	30371	29000	165538	26894	1068734	45759	111308	0	0	8028	586577	0	0
2024-07-31 20:32:47			0	36774	0	0	0	30371	29000	165486	26901	1068752	45759	111308	0	0	8029	585731	0	0
2024-07-31 20:33:47			0	36770	0	0	0	30384	29000	165518	26785	1068761	45759	111313	0	0	8029	585892	0	0
2024-07-31 20:34:47			0	36784	0	0	0	30392	29000	165582	26922	1068815	45770	111316	0	0	8029	585328	0	0
2024-07-31 20:35:47			0	36773	0	0	0	30397	29000	165586	26812	1068841	45782	111318	0	0	8029	585771	0	0
2024-07-31 20:36:47			0	36789	0	0	0	30399	29010	165634	26942	1068823	45782	111319	0	0	8029	585093	0	0
2024-07-31 20:37:47			0	36785	0	0	0	30405	29010	165518	26701	1068850	45770	111321	0	0	8029	585254	0	0
2024-07-31 20:38:47			0	36795	0	0	0	30399	28990	165458	26719	1068797	45781	111319	0	0	8030	584920	0	0
2024-07-31 20:39:47			0	36812	0	0	0	30410	29000	165406	27270	1068815	45737	111323	0	0	8031	584202	0	0
2024-07-31 20:40:47			0	36810	0	0	0	30402	29010	165454	26814	1068823	45759	111320	0	0	8031	584248	0	0
2024-07-31 20:41:47			0	36825	0	0	0	30402	29010	165338	26793	1068850	45782	111320	0	0	8032	583646	0	0
2024-07-31 20:42:47			0	36829	0	0	0	30412	29010	165254	26708	1068806	45771	111324	0	0	8032	583485	0	0
2024-07-31 20:43:47			0	36836	0	0	0	30407	29010	165250	26918	1068823	45770	111322	0	0	8032	583204	0	0
2024-07-31 20:44:47			0	36833	0	0	0	30423	29010	165286	26734	1068850	45782	111328	0	0	8032	583324	0	0
2024-07-31 20:45:47			0	36838	0	0	0	30412	29010	165246	26826	1068797	45759	111324	0	0	8032	583124	0	0
2024-07-31 20:46:47			0	36854	0	0	0	30399	29000	165202	26828	1068788	45770	111319	0	0	8033	582515	0	0
2024-07-31 20:47:47			0	36865	0	0	0	30412	29010	165158	26870	1068859	45783	111324	0	0	8034	582040	0	0
2024-07-31 20:48:47			0	36872	0	0	0	30415	29010	165194	26842	1068823	45782	111325	0	0	8034	581759	0	0
2024-07-31 20:49:47			0	36869	0	0	0	30402	29010	165142	26726	1068913	45760	111320	0	0	8034	581880	0	0
2024-07-31 20:50:47			0	36873	0	0	0	30407	29000	165174	26604	1068815	45759	111322	0	0	8034	581753	0	0
2024-07-31 20:51:47			0	36882	0	0	0	30399	29010	165122	26873	1068823	45749	111319	0	0	8035	581359	0	0
2024-07-31 20:52:47			0	36896	0	0	0	30394	29020	165034	27121	1068868	45772	111317	0	0	8036	580764	0	0
2024-07-31 20:53:47			0	36886	0	0	0	30399	29000	165126	26958	1068833	45749	111319	0	0	8035	581232	0	0
2024-07-31 20:54:47			0	36887	0	0	0	30386	29000	164978	26863	1068788	45782	111314	0	0	8035	581192	0	0
2024-07-31 20:55:47			0	36895	0	0	0	30384	29000	165090	26654	1068806	45770	111313	0	0	8036	580872	0	0
2024-07-31 20:56:47			0	36909	0	0	0	30394	29000	164886	26779	1068761	45770	111317	0	0	8037	580311	0	0
2024-07-31 20:57:47			0	36941	0	0	0	30392	29000	164786	26745	1068725	45759	111316	0	0	8038	579031	0	0
2024-07-31 20:58:47			0	36990	0	0	0	30389	29000	164582	26817	1068779	45749	111315	0	0	8041	577076	0	0
2024-07-31 20:59:47			0	37016	0	0	0	30392	28990	164554	26942	1068743	45748	111316	0	0	8043	576073	0	0
2024-07-31 21:00:47			0	36999	0	0	0	30376	28990	164554	26717	1068797	45769	111310	0	0	8042	576750	0	0
2024-07-31 21:01:47			0	36972	0	0	0	30381	28990	164686	26876	1068761	45747	111312	0	0	8040	577827	0	0
2024-07-31 21:02:47			0	36924	0	0	0	30386	28990	165014	26996	1068770	45758	111314	0	0	8038	579745	0	0
2024-07-31 21:03:47			0	36867	0	0	0	30392	28990	165198	26994	1068734	45747	111316	0	0	8034	582028	0	0
2024-07-31 21:04:47			0	36806	0	0	0	30389	29000	165294	26939	1068725	45759	111315	0	0	8031	584443	0	0
2024-07-31 21:05:47			0	36801	0	0	0	30381	28990	165542	26668	1068743	45791	111312	0	0	8030	584678	0	0
2024-07-31 21:06:47			0	36795	0	0	0	30379	28980	165486	26831	1068698	45747	111311	0	0	8030	584954	0	0
2024-07-31 21:07:47			0	36763	0	0	0	30368	28980	165638	27215	1068698	45757	111307	0	0	8028	586242	0	0
2024-07-31 21:08:47			0	36708	0	0	0	30368	28990	165902	26788	1068707	45757	111307	0	0	8025	588427	0	0
2024-07-31 21:09:47			0	36674	0	0	0	30363	28980	165998	27029	1068743	45757	111305	0	0	8023	589836	0	0
2024-07-31 21:10:47			0	36662	0	0	0	30353	28970	166142	26941	1068626	45746	111301	0	0	8023	590356	0	0
2024-07-31 21:11:47			0	36619	0	0	0	30363	28970	166234	26715	1068653	45756	111305	0	0	8020	592099	0	0
2024-07-31 21:12:47			0	36619	0	0	0	30361	28980	166270	27095	1068689	45757	111304	0	0	8020	592065	0	0
2024-07-31 21:13:47			0	36615	0	0	0	30355	28970	166250	26705	1068680	45756	111302	0	0	8020	592261	0	0
2024-07-31 21:14:47			0	36688	0	0	0	30355	28970	165922	27112	1068626	45779	111302	0	0	8024	589304	0	0
2024-07-31 21:15:47			0	36750	0	0	0	30358	28960	165602	26679	1068662	45766	111303	0	0	8028	586834	0	0
2024-07-31 21:16:47			0	36735	0	0	0	30361	28970	165642	26854	1068599	45756	111304	0	0	8027	587405	0	0
2024-07-31 21:17:47			0	36714	0	0	0	30350	28950	165826	26679	1068626	45766	111300	0	0	8026	588321	0	0
2024-07-31 21:18:47			0	36669	0	0	0	30350	28950	166062	26800	1068572	45789	111300	0	0	8023	590141	0	0
2024-07-31 21:19:47			0	36644	0	0	0	30342	28970	166242	26941	1068617	45755	111297	0	0	8022	591085	0	0
2024-07-31 21:20:47			0	36581	0	0	0	30345	28960	166305	26791	1068554	45755	111298	0	0	8018	593677	0	0
2024-07-31 21:21:47			0	36559	0	0	0	30350	28960	166489	27019	1068662	45733	111300	0	0	8016	594572	0	0
2024-07-31 21:22:47			0	36539	0	0	0	30348	28950	166673	27000	1068599	45766	111299	0	0	8015	595420	0	0
2024-07-31 21:23:47			0	36512	0	0	0	30348	28950	166649	26925	1068563	45766	111299	0	0	8014	596521	0	0
2024-07-31 21:24:47			0	36507	0	0	0	30342	28940	166625	26531	1068554	45776	111297	0	0	8013	596759	0	0
2024-07-31 21:25:47			0	36489	0	0	0	30340	28950	166745	27105	1068563	45777	111296	0	0	8012	597459	0	0
2024-07-31 21:26:47			0	36490	0	0	0	30337	28940	166781	26896	1068608	45753	111295	0	0	8013	597453	0	0
2024-07-31 21:27:47			0	36500	0	0	0	30342	28950	166769	26989	1068572	45755	111297	0	0	8013	597010	0	0
2024-07-31 21:28:47			0	36504	0	0	0	30337	28950	166737	26922	1068563	45744	111295	0	0	8013	596847	0	0
2024-07-31 21:29:47			0	36500	0	0	0	30332	28940	166693	27324	1068581	45753	111293	0	0	8013	597045	0	0
2024-07-31 21:30:47			0	36515	0	0	0	30335	28950	166721	26817	1068536	45754	111294	0	0	8014	596399	0	0
2024-07-31 21:31:47			0	36521	0	0	0	30324	28920	166597	26948	1068464	45751	111290	0	0	8014	596258	0	0
2024-07-31 21:32:47			0	36549	0	0	0	30322	28930	166561	26987	1068482	45742	111289	0	0	8016	595082	0	0
2024-07-31 21:33:47			0	36578	0	0	0	30319	28930	166505	27234	1068482	45752	111288	0	0	8018	593902	0	0
2024-07-31 21:34:47			0	36567	0	0	0	30316	28930	166541	26608	1068419	45764	111287	0	0	8017	594350	0	0
2024-07-31 21:35:47			0	36554	0	0	0	30314	28920	166477	26615	1068437	45741	111286	0	0	8017	594913	0	0
2024-07-31 21:36:47			0	36551	0	0	0	30311	28920	166617	27244	1068455	45762	111285	0	0	8016	595035	0	0
2024-07-31 21:37:47			0	36551	0	0	0	30309	28920	166533	27041	1068410	45785	111284	0	0	8017	595035	0	0
2024-07-31 21:38:47			0	36554	0	0	0	30309	28920	166641	26819	1068428	45750	111284	0	0	8017	594913	0	0
2024-07-31 21:39:47			0	36564	0	0	0	30306	28920	166533	26941	1068374	45773	111283	0	0	8017	594506	0	0
2024-07-31 21:40:47			0	36546	0	0	0	30303	28910	166513	26703	1068383	45762	111282	0	0	8016	595273	0	0
2024-07-31 21:41:47			0	36559	0	0	0	30296	28910	166517	26882	1068392	45762	111279	0	0	8017	594744	0	0
2024-07-31 21:42:47			0	36567	0	0	0	30293	28910	166625	26956	1068329	45750	111278	0	0	8018	594418	0	0
2024-07-31 21:43:47			0	36544	0	0	0	30298	28900	166429	27024	1068347	45739	111280	0	0	8016	595389	0	0
2024-07-31 21:44:47			0	36582	0	0	0	30290	28900	166429	26970	1068338	45738	111277	0	0	8019	593843	0	0
2024-07-31 21:45:47			0	36586	0	0	0	30288	28900	166517	26949	1068257	45760	111276	0	0	8019	593680	0	0
2024-07-31 21:46:47			0	36571	0	0	0	30283	28890	166489	26965	1068302	45760	111274	0	0	8018	594325	0	0
2024-07-31 21:47:47			0	36573	0	0	0	30293	28900	166429	26981	1068338	45749	111278	0	0	8018	594209	0	0
2024-07-31 21:48:47			0	36605	0	0	0	30290	28890	166274	27116	1068302	45760	111277	0	0	8020	592943	0	0
2024-07-31 21:49:47			0	36621	0	0	0	30288	28890	166390	26993	1068302	45771	111276	0	0	8021	592293	0	0
2024-07-31 21:50:47			0	36634	0	0	0	30285	28900	166350	27050	1068320	45750	111275	0	0	8022	591731	0	0
2024-07-31 21:51:47			0	36641	0	0	0	30290	28890	166286	26961	1068320	45760	111277	0	0	8022	591481	0	0
2024-07-31 21:52:47			0	36640	0	0	0	30270	28890	166270	26939	1068320	45749	111269	0	0	8022	591522	0	0
2024-07-31 21:53:47			0	36660	0	0	0	30283	28880	166234	26767	1068230	45759	111274	0	0	8023	590746	0	0
2024-07-31 21:54:47			0	36644	0	0	0	30290	28880	166146	27043	1068257	45759	111277	0	0	8022	591394	0	0
2024-07-31 21:55:47			0	36685	0	0	0	30280	28880	166198	26939	1068257	45770	111273	0	0	8025	589733	0	0
2024-07-31 21:56:47			0	36672	0	0	0	30280	28880	165970	26934	1068257	45759	111273	0	0	8024	590259	0	0
2024-07-31 21:57:47			0	36707	0	0	0	30277	28880	165990	26783	1068257	45759	111272	0	0	8026	588843	0	0
2024-07-31 21:58:47			0	36718	0	0	0	30280	28880	165858	26996	1068230	45770	111273	0	0	8027	588399	0	0
2024-07-31 21:59:47			0	36733	0	0	0	30280	28880	165962	27015	1068230	45759	111273	0	0	8028	587793	0	0
2024-07-31 22:00:47			0	36751	0	0	0	30275	28870	165794	26734	1068230	45746	111271	0	0	8029	587100	0	0
2024-07-31 22:01:47			0	36751	0	0	0	30277	28870	165798	26876	1068266	45758	111272	0	0	8029	587100	0	0
2024-07-31 22:02:47			0	36764	0	0	0	30275	28870	165674	26844	1068212	45747	111271	0	0	8029	586576	0	0
2024-07-31 22:03:47			0	36780	0	0	0	30277	28870	165618	26883	1068311	45757	111272	0	0	8030	585931	0	0
2024-07-31 22:04:47			0	36781	0	0	0	30277	28880	165562	27012	1068248	45769	111272	0	0	8030	585857	0	0
2024-07-31 22:05:47			0	36781	0	0	0	30277	28870	165594	26967	1068266	45758	111272	0	0	8030	585891	0	0
2024-07-31 22:06:47			0	36805	0	0	0	30277	28880	165462	26854	1068221	45781	111272	0	0	8032	584890	0	0
2024-07-31 22:07:47			0	36817	0	0	0	30280	28870	165478	27144	1068230	45746	111273	0	0	8032	584441	0	0
2024-07-31 22:08:47			0	36831	0	0	0	30267	28870	165434	27059	1068257	45746	111268	0	0	8033	583878	0	0
2024-07-31 22:09:47			0	36848	0	0	0	30267	28880	165390	26967	1068230	45770	111268	0	0	8035	583162	0	0
2024-07-31 22:10:47			0	36836	0	0	0	30264	28870	165370	26913	1068149	45746	111267	0	0	8034	583678	0	0
2024-07-31 22:11:47			0	36858	0	0	0	30270	28860	165310	27031	1068140	45746	111269	0	0	8035	582828	0	0
2024-07-31 22:12:47			0	36853	0	0	0	30264	28870	165246	27085	1068176	45757	111267	0	0	8035	582995	0	0
2024-07-31 22:13:47			0	36868	0	0	0	30254	28860	165194	26861	1068248	45746	111263	0	0	8036	582426	0	0
2024-07-31 22:14:47			0	36850	0	0	0	30259	28870	165082	26805	1068131	45781	111265	0	0	8035	583115	0	0
2024-07-31 22:15:47			0	36870	0	0	0	30259	28850	165206	27038	1068149	45744	111265	0	0	8036	582380	0	0
2024-07-31 22:16:47			0	36874	0	0	0	30257	28860	165170	26680	1068185	45745	111264	0	0	8036	582185	0	0
2024-07-31 22:17:47			0	36893	0	0	0	30246	28860	165130	27039	1068104	45756	111260	0	0	8037	581424	0	0
2024-07-31 22:18:47			0	36899	0	0	0	30257	28850	165190	26942	1068095	45733	111264	0	0	8038	581217	0	0
2024-07-31 22:19:47			0	36892	0	0	0	30257	28860	165126	27031	1068104	45767	111264	0	0	8037	581464	0	0
2024-07-31 22:20:47			0	36884	0	0	0	30236	28850	165166	26875	1068122	45744	111256	0	0	8037	581818	0	0
2024-07-31 22:21:47			0	36875	0	0	0	30236	28850	165130	26930	1068041	45755	111256	0	0	8037	582179	0	0
2024-07-31 22:22:47			0	36873	0	0	0	30238	28850	165074	26897	1068122	45744	111257	0	0	8036	582259	0	0
2024-07-31 22:23:47			0	36862	0	0	0	30223	28850	165146	26923	1068041	45755	111251	0	0	8036	582701	0	0
2024-07-31 22:24:47			0	36884	0	0	0	30223	28840	165102	26854	1068023	45755	111251	0	0	8037	581852	0	0
2024-07-31 22:25:47			0	36872	0	0	0	30220	28840	165110	26769	1067987	45754	111250	0	0	8037	582333	0	0
2024-07-31 22:26:47			0	36848	0	0	0	30212	28840	165230	26986	1067996	45766	111247	0	0	8035	583297	0	0
2024-07-31 22:27:47			0	36874	0	0	0	30212	28830	165302	27078	1067969	45742	111247	0	0	8037	582287	0	0
2024-07-31 22:28:47			0	36876	0	0	0	30207	28830	165218	26805	1068005	45764	111245	0	0	8037	582207	0	0
2024-07-31 22:29:47			0	36871	0	0	0	30210	28830	165290	26857	1067996	45742	111246	0	0	8037	582407	0	0
2024-07-31 22:30:47			0	36867	0	0	0	30197	28830	165290	26727	1067924	45753	111241	0	0	8037	582568	0	0
2024-07-31 22:31:47			0	36860	0	0	0	30189	28830	165338	27098	1067915	45753	111238	0	0	8036	582849	0	0
2024-07-31 22:32:47			0	36868	0	0	0	30189	28830	165326	27086	1067888	45753	111238	0	0	8037	582528	0	0
2024-07-31 22:33:47			0	36870	0	0	0	30194	28810	165274	27001	1067888	45740	111240	0	0	8037	582515	0	0
2024-07-31 22:34:47			0	36855	0	0	0	30184	28810	165350	27126	1067861	45740	111236	0	0	8036	583117	0	0
2024-07-31 22:35:47			0	36865	0	0	0	30179	28810	165338	26686	1067861	45740	111234	0	0	8037	582715	0	0
2024-07-31 22:36:47			0	36869	0	0	0	30179	28810	165286	26753	1067781	45751	111234	0	0	8037	582555	0	0
2024-07-31 22:37:47			0	36853	0	0	0	30155	28800	165370	26956	1067835	45750	111225	0	0	8036	583231	0	0
2024-07-31 22:38:47			0	36855	0	0	0	30155	28800	165326	26930	1067709	45761	111225	0	0	8036	583151	0	0
2024-07-31 22:39:47			0	36863	0	0	0	30150	28800	165354	26953	1067727	45761	111223	0	0	8037	582830	0	0
2024-07-31 22:40:47			0	36863	0	0	0	30153	28790	165386	27055	1067655	45760	111224	0	0	8037	582863	0	0
2024-07-31 22:41:47			0	36853	0	0	0	30135	28780	165402	26972	1067673	45749	111217	0	0	8037	583299	0	0
2024-07-31 22:42:47			0	36864	0	0	0	30132	28790	165378	26582	1067637	45738	111216	0	0	8037	582823	0	0
2024-07-31 22:43:47			0	36849	0	0	0	30137	28780	165366	26840	1067646	45771	111218	0	0	8036	583460	0	0
2024-07-31 22:44:47			0	36858	0	0	0	30124	28770	165402	26956	1067520	45748	111213	0	0	8037	583132	0	0
2024-07-31 22:45:47			0	36857	0	0	0	30116	28760	165346	26772	1067529	45747	111210	0	0	8037	583206	0	0
2024-07-31 22:46:47			0	36859	0	0	0	30106	28760	165342	26675	1067520	45724	111206	0	0	8037	583125	0	0
2024-07-31 22:47:47			0	36853	0	0	0	30098	28760	165418	26788	1067466	45757	111203	0	0	8037	583366	0	0
2024-07-31 22:48:47			0	36889	0	0	0	30103	28750	165242	26606	1067457	45735	111205	0	0	8039	581955	0	0
2024-07-31 22:49:47			0	36851	0	0	0	30085	28740	165314	26710	1067439	45745	111198	0	0	8037	583514	0	0
2024-07-31 22:50:47			0	36869	0	0	0	30083	28740	165426	26885	1067412	45755	111197	0	0	8038	582791	0	0
2024-07-31 22:51:47			0	36876	0	0	0	30080	28730	165386	26752	1067358	45743	111196	0	0	8039	582544	0	0
2024-07-31 22:52:47			0	36856	0	0	0	30072	28730	165462	26793	1067277	45732	111193	0	0	8038	583347	0	0
2024-07-31 22:53:47			0	36860	0	0	0	30075	28720	165514	26878	1067367	45742	111194	0	0	8038	583220	0	0
2024-07-31 22:54:47			0	36851	0	0	0	30064	28710	165410	26958	1067223	45764	111190	0	0	8037	583616	0	0
2024-07-31 22:55:47			0	36850	0	0	0	30064	28710	165378	26679	1067304	45752	111190	0	0	8037	583656	0	0
2024-07-31 22:56:47			0	36852	0	0	0	30070	28710	165434	26677	1067277	45752	111192	0	0	8037	583576	0	0
2024-07-31 22:57:47			0	36852	0	0	0	30062	28710	165450	26831	1067241	45751	111189	0	0	8037	583576	0	0
2024-07-31 22:58:47			0	36870	0	0	0	30062	28710	165482	26653	1067268	45730	111189	0	0	8038	582852	0	0
2024-07-31 22:59:47			0	36862	0	0	0	30057	28690	165450	26592	1067214	45750	111187	0	0	8038	583241	0	0
2024-07-31 23:00:47			0	36858	0	0	0	30054	28700	165470	26859	1067223	45750	111186	0	0	8038	583368	0	0
2024-07-31 23:01:47			0	36880	0	0	0	30049	28680	165362	26750	1067170	45728	111184	0	0	8039	582552	0	0
2024-07-31 23:02:47			0	36856	0	0	0	30051	28680	165390	26672	1067196	45739	111185	0	0	8038	583516	0	0
2024-07-31 23:03:47			0	36864	0	0	0	30044	28680	165494	26812	1067080	45727	111182	0	0	8038	583195	0	0
2024-07-31 23:04:47			0	36877	0	0	0	30028	28670	165394	26665	1067098	45726	111176	0	0	8039	582706	0	0
2024-07-31 23:05:47			0	36889	0	0	0	30025	28660	165482	26942	1067035	45749	111175	0	0	8040	582258	0	0
2024-07-31 23:06:47			0	36880	0	0	0	30041	28660	165414	27001	1067080	45748	111181	0	0	8039	582619	0	0
2024-07-31 23:07:47			0	36881	0	0	0	30025	28650	165434	27013	1067044	45748	111175	0	0	8039	582613	0	0
2024-07-31 23:08:47			0	36874	0	0	0	30028	28670	165362	26876	1066990	45737	111176	0	0	8039	582827	0	0
2024-07-31 23:09:47			0	36892	0	0	0	30023	28660	165310	26953	1067062	45737	111174	0	0	8040	582138	0	0
2024-07-31 23:10:47			0	36892	0	0	0	30023	28650	165410	26805	1067017	45725	111174	0	0	8040	582172	0	0
2024-07-31 23:11:47			0	36888	0	0	0	30028	28660	165274	26982	1066999	45748	111176	0	0	8040	582298	0	0
2024-07-31 23:12:47			0	36901	0	0	0	30025	28650	165218	26949	1066981	45735	111175	0	0	8041	581810	0	0
2024-07-31 23:13:47			0	36916	0	0	0	30025	28650	165126	26800	1067017	45748	111175	0	0	8042	581209	0	0
2024-07-31 23:14:47			0	36908	0	0	0	30023	28640	165214	27192	1066999	45747	111174	0	0	8041	581563	0	0
2024-07-31 23:15:47			0	36917	0	0	0	30020	28650	165166	26653	1067008	45724	111173	0	0	8042	581169	0	0
2024-07-31 23:16:47			0	36926	0	0	0	30007	28650	165182	26946	1066981	45757	111168	0	0	8042	580808	0	0
2024-07-31 23:17:47			0	36919	0	0	0	30012	28630	165134	26977	1067008	45746	111170	0	0	8042	581156	0	0
2024-07-31 23:18:47			0	36933	0	0	0	30020	28630	165154	26897	1066900	45756	111173	0	0	8042	580595	0	0
2024-07-31 23:19:47			0	36923	0	0	0	30018	28630	165194	26960	1066954	45746	111172	0	0	8042	580996	0	0
2024-07-31 23:20:47			0	36934	0	0	0	30007	28640	165194	26928	1066990	45734	111168	0	0	8043	580521	0	0
2024-07-31 23:21:47			0	36935	0	0	0	30010	28630	165162	27137	1066927	45746	111169	0	0	8043	580515	0	0
2024-07-31 23:22:47			0	36935	0	0	0	30005	28630	165166	26974	1066954	45734	111167	0	0	8043	580515	0	0
2024-07-31 23:23:47			0	36946	0	0	0	30002	28630	165202	27019	1066891	45722	111166	0	0	8044	580074	0	0
2024-07-31 23:24:47			0	36929	0	0	0	29992	28620	165158	27168	1066819	45744	111162	0	0	8043	580789	0	0
2024-07-31 23:25:47			0	36943	0	0	0	29992	28620	165062	26979	1066873	45732	111162	0	0	8044	580228	0	0
2024-07-31 23:26:47			0	36929	0	0	0	29986	28610	165130	27086	1066801	45743	111160	0	0	8043	580822	0	0
2024-07-31 23:27:47			0	36947	0	0	0	29981	28610	165122	26701	1066837	45721	111158	0	0	8044	580101	0	0
2024-07-31 23:28:47			0	36954	0	0	0	29981	28610	165058	27194	1066693	45743	111158	0	0	8044	579821	0	0
2024-07-31 23:29:47			0	36959	0	0	0	29981	28600	165126	27020	1066756	45752	111158	0	0	8045	579655	0	0
2024-07-31 23:30:47			0	36952	0	0	0	29976	28600	165002	26876	1066756	45719	111156	0	0	8044	579935	0	0
2024-07-31 23:31:47			0	36958	0	0	0	29968	28600	165034	27062	1066783	45742	111153	0	0	8045	579694	0	0
2024-07-31 23:32:47			0	36967	0	0	0	29979	28600	165098	27090	1066729	45730	111157	0	0	8045	579334	0	0
2024-07-31 23:33:47			0	36983	0	0	0	29968	28590	164938	26835	1066747	45730	111153	0	0	8046	578728	0	0
2024-07-31 23:34:47			0	36974	0	0	0	29971	28590	165034	26956	1066693	45719	111154	0	0	8046	579088	0	0
2024-07-31 23:35:47			0	36987	0	0	0	29971	28590	165046	27039	1066711	45741	111154	0	0	8046	578568	0	0
2024-07-31 23:36:47			0	36989	0	0	0	29971	28590	164870	26795	1066711	45729	111154	0	0	8046	578488	0	0
2024-07-31 23:37:47			0	37001	0	0	0	29963	28580	164850	27267	1066702	45728	111151	0	0	8047	578042	0	0
2024-07-31 23:38:47			0	37006	0	0	0	29968	28580	164862	27034	1066666	45740	111153	0	0	8047	577842	0	0
2024-07-31 23:39:47			0	37013	0	0	0	29976	28580	164882	26781	1066729	45728	111156	0	0	8048	577563	0	0
2024-07-31 23:40:47			0	37010	0	0	0	29973	28580	164790	27090	1066702	45717	111155	0	0	8048	577683	0	0
2024-07-31 23:41:47			0	37030	0	0	0	29981	28580	164822	27128	1066666	45740	111158	0	0	8049	576884	0	0
2024-07-31 23:42:47			0	37024	0	0	0	29973	28580	164830	26968	1066675	45740	111155	0	0	8048	577124	0	0
2024-07-31 23:43:47			0	37013	0	0	0	29976	28580	164774	27116	1066639	45740	111156	0	0	8048	577563	0	0
2024-07-31 23:44:47			0	37044	0	0	0	29976	28570	164722	26994	1066711	45739	111156	0	0	8049	576359	0	0
2024-07-31 23:45:47			0	37024	0	0	0	29971	28570	164806	26816	1066711	45739	111154	0	0	8048	577157	0	0
2024-07-31 23:46:47			0	37028	0	0	0	29976	28580	164886	26920	1066666	45717	111156	0	0	8049	576964	0	0
2024-07-31 23:47:47			0	37032	0	0	0	29979	28570	164850	26670	1066648	45727	111157	0	0	8049	576838	0	0
2024-07-31 23:48:47			0	37038	0	0	0	29979	28580	164914	27149	1066693	45740	111157	0	0	8049	576565	0	0
2024-07-31 23:49:47			0	37044	0	0	0	29976	28580	164878	26956	1066693	45728	111156	0	0	8049	576326	0	0
2024-07-31 23:50:47			0	37061	0	0	0	29971	28570	164762	26935	1066702	45739	111154	0	0	8051	575682	0	0
2024-07-31 23:51:47			0	37046	0	0	0	29968	28580	164698	27209	1066693	45750	111153	0	0	8050	576246	0	0
2024-07-31 23:52:47			0	37053	0	0	0	29966	28560	164778	26890	1066586	45738	111152	0	0	8050	576034	0	0
2024-07-31 23:53:47			0	37067	0	0	0	29963	28570	164730	26811	1066675	45727	111151	0	0	8051	575443	0	0
2024-07-31 23:54:47			0	37047	0	0	0	29966	28560	164762	26771	1066631	45737	111152	0	0	8050	576273	0	0
2024-07-31 23:55:47			0	37048	0	0	0	29966	28560	164738	26824	1066577	45737	111152	0	0	8050	576233	0	0
2024-07-31 23:56:47			0	37045	0	0	0	29958	28570	164742	26873	1066595	45727	111149	0	0	8050	576320	0	0
2024-07-31 23:57:47			0	37052	0	0	0	29958	28550	164790	27069	1066568	45725	111149	0	0	8050	576107	0	0
2024-07-31 23:58:47			0	37051	0	0	0	29948	28560	164794	26762	1066550	45737	111145	0	0	8050	576114	0	0
2024-07-31 23:59:47			0	37054	0	0	0	29953	28550	164754	26739	1066568	45725	111147	0	0	8050	576027	0	0
2024-08-01 00:00:47			0	37062	0	0	0	29948	28560	164862	27055	1066577	45725	111145	0	0	8051	575675	0	0
2024-08-01 00:01:47			0	37064	0	0	0	29940	28560	164838	26790	1066523	45725	111142	0	0	8051	575596	0	0
2024-08-01 00:02:47			0	37075	0	0	0	29937	28550	164686	26601	1066478	45725	111141	0	0	8052	575191	0	0
2024-08-01 00:03:47			0	37071	0	0	0	29932	28550	164742	26927	1066478	45737	111139	0	0	8052	575350	0	0
2024-08-01 00:04:47			0	37076	0	0	0	29940	28540	164698	26939	1066388	45747	111142	0	0	8052	575184	0	0
2024-08-01 00:05:47			0	37088	0	0	0	29937	28550	164630	26856	1066505	45748	111141	0	0	8053	574673	0	0
2024-08-01 00:06:47			0	37069	0	0	0	29932	28540	164634	27079	1066460	45723	111139	0	0	8052	575463	0	0
2024-08-01 00:07:47			0	37104	0	0	0	29932	28540	164578	27168	1066442	45736	111139	0	0	8054	574070	0	0
2024-08-01 00:08:47			0	37103	0	0	0	29919	28540	164586	27088	1066469	45724	111134	0	0	8054	574110	0	0
2024-08-01 00:09:47			0	37107	0	0	0	29916	28520	164630	26885	1066379	45734	111133	0	0	8054	574017	0	0
2024-08-01 00:10:47			0	37106	0	0	0	29914	28520	164586	26928	1066325	45722	111132	0	0	8054	574057	0	0
2024-08-01 00:11:47			0	37109	0	0	0	29906	28520	164566	27026	1066352	45734	111129	0	0	8054	573938	0	0
2024-08-01 00:12:47			0	37102	0	0	0	29909	28520	164650	26859	1066298	45722	111130	0	0	8054	574216	0	0
2024-08-01 00:13:47			0	37113	0	0	0	29906	28530	164602	26984	1066334	45712	111129	0	0	8054	573746	0	0
2024-08-01 00:14:47			0	37113	0	0	0	29898	28520	164638	26975	1066316	45721	111126	0	0	8055	573779	0	0
2024-08-01 00:15:47			0	37105	0	0	0	29901	28510	164554	26987	1066271	45733	111127	0	0	8054	574130	0	0
2024-08-01 00:16:47			0	37108	0	0	0	29896	28500	164566	27145	1066262	45720	111125	0	0	8054	574044	0	0
2024-08-01 00:17:47			0	37137	0	0	0	29898	28510	164570	26960	1066280	45733	111126	0	0	8056	572858	0	0
2024-08-01 00:18:47			0	37128	0	0	0	29883	28500	164434	26955	1066208	45720	111120	0	0	8056	573249	0	0
2024-08-01 00:19:47			0	37156	0	0	0	29885	28510	164446	27067	1066190	45721	111121	0	0	8057	572104	0	0
2024-08-01 00:20:47			0	37172	0	0	0	29880	28500	164386	26830	1066226	45719	111119	0	0	8058	571502	0	0
2024-08-01 00:21:47			0	37154	0	0	0	29880	28500	164374	26854	1066226	45708	111119	0	0	8057	572217	0	0
2024-08-01 00:22:47			0	37166	0	0	0	29864	28490	164350	26908	1066190	45718	111113	0	0	8058	571773	0	0
2024-08-01 00:23:47			0	37166	0	0	0	29864	28490	164294	26908	1066190	45730	111113	0	0	8058	571773	0	0
2024-08-01 00:24:47			0	37172	0	0	0	29862	28490	164342	27019	1066190	45730	111112	0	0	8058	571535	0	0
2024-08-01 00:25:47			0	37174	0	0	0	29870	28480	164318	26911	1066109	45729	111115	0	0	8058	571489	0	0
2024-08-01 00:26:47			0	37180	0	0	0	29864	28490	164210	27015	1066154	45730	111113	0	0	8059	571218	0	0
2024-08-01 00:27:47			0	37185	0	0	0	29870	28480	164242	26989	1066172	45741	111115	0	0	8059	571053	0	0
2024-08-01 00:28:47			0	37198	0	0	0	29862	28480	164278	27100	1066118	45730	111112	0	0	8060	570538	0	0
2024-08-01 00:29:47			0	37182	0	0	0	29862	28480	164282	26941	1066136	45740	111112	0	0	8059	571172	0	0
2024-08-01 00:30:47			0	37207	0	0	0	29864	28480	164250	26675	1066091	45730	111113	0	0	8060	570182	0	0
2024-08-01 00:31:47			0	37199	0	0	0	29862	28480	164218	26653	1066091	45741	111112	0	0	8060	570498	0	0
2024-08-01 00:32:47			0	37201	0	0	0	29859	28480	164194	26785	1066029	45717	111111	0	0	8060	570419	0	0
2024-08-01 00:33:47			0	37190	0	0	0	29854	28470	164266	26788	1066047	45728	111109	0	0	8060	570888	0	0
2024-08-01 00:34:47			0	37188	0	0	0	29857	28470	164278	26928	1065984	45739	111110	0	0	8059	570967	0	0
2024-08-01 00:35:47			0	37200	0	0	0	29849	28460	164214	26925	1065948	45695	111107	0	0	8060	570525	0	0
2024-08-01 00:36:47			0	37215	0	0	0	29833	28460	164186	27003	1065939	45727	111101	0	0	8061	569931	0	0
2024-08-01 00:37:47			0	37223	0	0	0	29838	28460	164134	26897	1065966	45727	111103	0	0	8062	569614	0	0
2024-08-01 00:38:47			0	37214	0	0	0	29844	28470	164134	26932	1066011	45728	111105	0	0	8061	569938	0	0
2024-08-01 00:39:47			0	37212	0	0	0	29836	28460	164078	27033	1065912	45727	111102	0	0	8061	570050	0	0
2024-08-01 00:40:47			0	37206	0	0	0	29833	28460	164026	26703	1065939	45715	111101	0	0	8061	570287	0	0
2024-08-01 00:41:47			0	37196	0	0	0	29833	28450	164138	27043	1065867	45726	111101	0	0	8060	570716	0	0
2024-08-01 00:42:47			0	37208	0	0	0	29836	28440	164222	26661	1065885	45714	111102	0	0	8061	570274	0	0
2024-08-01 00:43:47			0	37214	0	0	0	29831	28440	164286	27003	1065966	45737	111100	0	0	8061	570036	0	0
2024-08-01 00:44:47			0	37209	0	0	0	29820	28440	164198	26719	1065930	45725	111096	0	0	8061	570234	0	0
2024-08-01 00:45:47			0	37228	0	0	0	29825	28450	164210	26984	1065921	45714	111098	0	0	8062	569449	0	0
2024-08-01 00:46:47			0	37211	0	0	0	29825	28440	164146	27149	1065903	45748	111098	0	0	8061	570155	0	0
2024-08-01 00:47:47			0	37231	0	0	0	29823	28440	164206	27090	1065903	45725	111097	0	0	8062	569364	0	0
2024-08-01 00:48:47			0	37242	0	0	0	29823	28440	164082	27031	1065885	45726	111097	0	0	8063	568929	0	0
2024-08-01 00:49:47			0	37232	0	0	0	29820	28440	164146	26849	1065885	45737	111096	0	0	8062	569324	0	0
2024-08-01 00:50:47			0	37228	0	0	0	29815	28440	164110	26854	1065885	45737	111094	0	0	8062	569482	0	0
2024-08-01 00:51:47			0	37239	0	0	0	29815	28440	164066	26951	1065795	45713	111094	0	0	8063	569047	0	0
2024-08-01 00:52:47			0	37248	0	0	0	29810	28430	164110	26934	1065831	45723	111092	0	0	8063	568724	0	0
2024-08-01 00:53:47			0	37245	0	0	0	29812	28430	164014	26883	1065858	45723	111093	0	0	8063	568843	0	0
2024-08-01 00:54:47			0	37261	0	0	0	29810	28430	163982	26965	1065858	45734	111092	0	0	8064	568211	0	0
2024-08-01 00:55:47			0	37261	0	0	0	29812	28430	163934	26870	1065804	45734	111093	0	0	8064	568211	0	0
2024-08-01 00:56:47			0	37279	0	0	0	29823	28430	163918	26644	1065858	45746	111097	0	0	8065	567500	0	0
2024-08-01 00:57:47			0	37271	0	0	0	29823	28430	163846	27197	1065885	45723	111097	0	0	8065	567816	0	0
2024-08-01 00:58:47			0	37288	0	0	0	29820	28430	163858	26785	1065858	45712	111096	0	0	8066	567145	0	0
2024-08-01 00:59:47			0	37308	0	0	0	29810	28420	163886	26961	1065822	45712	111092	0	0	8067	566389	0	0
2024-08-01 01:00:47			0	37310	0	0	0	29812	28420	163826	26831	1065786	45734	111093	0	0	8067	566310	0	0
2024-08-01 01:01:47			0	37289	0	0	0	29802	28420	163906	27041	1065795	45723	111089	0	0	8066	567138	0	0
2024-08-01 01:02:47			0	37271	0	0	0	29797	28420	163970	26755	1065786	45734	111087	0	0	8065	567848	0	0
2024-08-01 01:03:47			0	37270	0	0	0	29805	28420	163938	26824	1065795	45734	111090	0	0	8065	567888	0	0
2024-08-01 01:04:47			0	37278	0	0	0	29807	28410	163918	26994	1065750	45711	111091	0	0	8065	567605	0	0
2024-08-01 01:05:47			0	37284	0	0	0	29799	28420	163810	27105	1065813	45734	111088	0	0	8066	567335	0	0
2024-08-01 01:06:47			0	37289	0	0	0	29807	28410	163882	26800	1065777	45733	111091	0	0	8066	567171	0	0
2024-08-01 01:07:47			0	37291	0	0	0	29799	28410	163838	27227	1065750	45722	111088	0	0	8066	567092	0	0
2024-08-01 01:08:47			0	37298	0	0	0	29797	28410	163750	26809	1065804	45722	111087	0	0	8067	566816	0	0
2024-08-01 01:09:47			0	37317	0	0	0	29799	28410	163786	26817	1065750	45722	111088	0	0	8068	566067	0	0
2024-08-01 01:10:47			0	37321	0	0	0	29799	28410	163679	27031	1065742	45744	111088	0	0	8068	565909	0	0
2024-08-01 01:11:47			0	37328	0	0	0	29794	28400	163703	26928	1065732	45732	111086	0	0	8068	565666	0	0
2024-08-01 01:12:47			0	37347	0	0	0	29797	28400	163643	26724	1065678	45721	111087	0	0	8069	564918	0	0
2024-08-01 01:13:47			0	37343	0	0	0	29789	28410	163603	27059	1065697	45711	111084	0	0	8069	565043	0	0
2024-08-01 01:14:47			0	37358	0	0	0	29786	28410	163639	27319	1065715	45710	111083	0	0	8070	564452	0	0
2024-08-01 01:15:47			0	37350	0	0	0	29792	28400	163727	26689	1065705	45732	111085	0	0	8070	564800	0	0
2024-08-01 01:16:47			0	37349	0	0	0	29789	28400	163563	26854	1065732	45732	111084	0	0	8070	564839	0	0
2024-08-01 01:17:47			0	37361	0	0	0	29784	28390	163583	27095	1065607	45709	111082	0	0	8070	564400	0	0
2024-08-01 01:18:47			0	37351	0	0	0	29786	28400	163603	26902	1065651	45732	111083	0	0	8070	564760	0	0
2024-08-01 01:19:47			0	37364	0	0	0	29781	28400	163731	26687	1065696	45732	111081	0	0	8071	564249	0	0
2024-08-01 01:20:47			0	37348	0	0	0	29789	28390	163575	26904	1065660	45720	111084	0	0	8069	564911	0	0
2024-08-01 01:21:47			0	37361	0	0	0	29786	28400	163579	26842	1065678	45732	111083	0	0	8070	564367	0	0
2024-08-01 01:22:47			0	37366	0	0	0	29776	28390	163475	26781	1065687	45731	111079	0	0	8071	564203	0	0
2024-08-01 01:23:47			0	37371	0	0	0	29784	28390	163579	26819	1065660	45731	111082	0	0	8071	564006	0	0
2024-08-01 01:24:47			0	37372	0	0	0	29771	28390	163539	26892	1065633	45731	111077	0	0	8071	563967	0	0
2024-08-01 01:25:47			0	37373	0	0	0	29781	28390	163591	26875	1065660	45709	111081	0	0	8071	563928	0	0
2024-08-01 01:26:47			0	37376	0	0	0	29771	28380	163691	26793	1065669	45730	111077	0	0	8071	563842	0	0
2024-08-01 01:27:47			0	37355	0	0	0	29776	28380	163679	27185	1065642	45719	111079	0	0	8070	564668	0	0
2024-08-01 01:28:47			0	37360	0	0	0	29768	28380	163647	26689	1065625	45708	111076	0	0	8070	564472	0	0
2024-08-01 01:29:47			0	37374	0	0	0	29771	28380	163571	27218	1065669	45708	111077	0	0	8071	563921	0	0
2024-08-01 01:30:47			0	37369	0	0	0	29763	28380	163503	26982	1065562	45708	111074	0	0	8071	564118	0	0
2024-08-01 01:31:47			0	37350	0	0	0	29766	28380	163651	27001	1065616	45742	111075	0	0	8070	564865	0	0
2024-08-01 01:32:47			0	37372	0	0	0	29768	28370	163663	26783	1065580	45730	111076	0	0	8071	564032	0	0
2024-08-01 01:33:47			0	37373	0	0	0	29755	28380	163679	27126	1065562	45730	111071	0	0	8071	563960	0	0
2024-08-01 01:34:47			0	37384	0	0	0	29771	28380	163651	26915	1065508	45708	111077	0	0	8072	563528	0	0
2024-08-01 01:35:47			0	37365	0	0	0	29755	28380	163663	26710	1065598	45719	111071	0	0	8071	564275	0	0
2024-08-01 01:36:47			0	37376	0	0	0	29755	28370	163619	26786	1065625	45718	111071	0	0	8072	563875	0	0
2024-08-01 01:37:47			0	37379	0	0	0	29748	28370	163587	26739	1065553	45708	111068	0	0	8072	563757	0	0
2024-08-01 01:38:47			0	37401	0	0	0	29758	28370	163591	26955	1065580	45730	111072	0	0	8073	562893	0	0
2024-08-01 01:39:47			0	37380	0	0	0	29753	28370	163635	26937	1065490	45718	111070	0	0	8072	563718	0	0
2024-08-01 01:40:47			0	37389	0	0	0	29750	28370	163695	26925	1065490	45729	111069	0	0	8072	563364	0	0
2024-08-01 01:41:47			0	37389	0	0	0	29745	28360	163623	26793	1065526	45706	111067	0	0	8072	563397	0	0
2024-08-01 01:42:47			0	37379	0	0	0	29748	28360	163547	26706	1065454	45728	111068	0	0	8072	563789	0	0
2024-08-01 01:43:47			0	37412	0	0	0	29742	28360	163579	26967	1065472	45727	111066	0	0	8074	562493	0	0
2024-08-01 01:44:47			0	37413	0	0	0	29745	28350	163539	26778	1065517	45727	111067	0	0	8074	562487	0	0
2024-08-01 01:45:47			0	37411	0	0	0	29742	28360	163511	27017	1065481	45728	111066	0	0	8074	562533	0	0
2024-08-01 01:46:47			0	37413	0	0	0	29748	28350	163507	26739	1065490	45739	111068	0	0	8074	562487	0	0
2024-08-01 01:47:47			0	37426	0	0	0	29735	28360	163447	27135	1065445	45716	111063	0	0	8075	561944	0	0
2024-08-01 01:48:47			0	37439	0	0	0	29745	28360	163359	26785	1065526	45727	111067	0	0	8075	561434	0	0
2024-08-01 01:49:47			0	37440	0	0	0	29740	28350	163391	27159	1065481	45716	111065	0	0	8075	561428	0	0
2024-08-01 01:50:47			0	37429	0	0	0	29737	28350	163399	26948	1065481	45727	111064	0	0	8075	561859	0	0
2024-08-01 01:51:47			0	37444	0	0	0	29740	28360	163399	27045	1065499	45706	111065	0	0	8076	561238	0	0
2024-08-01 01:52:47			0	37438	0	0	0	29750	28350	163399	26998	1065454	45716	111069	0	0	8075	561506	0	0
2024-08-01 01:53:47			0	37444	0	0	0	29740	28340	163323	26949	1065526	45705	111065	0	0	8076	561303	0	0
2024-08-01 01:54:47			0	37454	0	0	0	29742	28350	163335	27133	1065481	45727	111066	0	0	8076	560879	0	0
2024-08-01 01:55:47			0	37457	0	0	0	29735	28350	163303	27015	1065616	45727	111063	0	0	8077	560761	0	0
2024-08-01 01:56:47			0	37461	0	0	0	29740	28350	163375	26996	1065427	45739	111065	0	0	8077	560605	0	0
2024-08-01 01:57:47			0	37449	0	0	0	29745	28350	163263	26892	1065481	45716	111067	0	0	8076	561075	0	0
2024-08-01 01:58:47			0	37466	0	0	0	29737	28340	163299	26663	1065472	45705	111064	0	0	8077	560441	0	0
2024-08-01 01:59:47			0	37437	0	0	0	29740	28350	163359	26675	1065409	45739	111065	0	0	8075	561545	0	0
2024-08-01 02:00:47			0	37434	0	0	0	29735	28340	163367	26798	1065472	45715	111063	0	0	8075	561695	0	0
2024-08-01 02:01:47			0	37438	0	0	0	29737	28330	163391	27007	1065454	45714	111064	0	0	8075	561571	0	0
2024-08-01 02:02:47			0	37424	0	0	0	29737	28350	163439	27135	1065436	45727	111064	0	0	8075	562055	0	0
2024-08-01 02:03:47			0	37438	0	0	0	29735	28350	163367	26594	1065481	45739	111063	0	0	8075	561506	0	0
2024-08-01 02:04:47			0	37440	0	0	0	29732	28330	163399	26864	1065427	45714	111062	0	0	8075	561492	0	0
2024-08-01 02:05:47			0	37423	0	0	0	29732	28350	163419	27199	1065427	45706	111062	0	0	8075	562094	0	0
2024-08-01 02:06:47			0	37438	0	0	0	29727	28340	163299	26823	1065517	45726	111060	0	0	8076	561538	0	0
2024-08-01 02:07:47			0	37444	0	0	0	29727	28340	163355	26793	1065382	45737	111060	0	0	8076	561303	0	0
2024-08-01 02:08:47			0	37452	0	0	0	29722	28330	163211	26930	1065373	45714	111058	0	0	8076	561022	0	0
2024-08-01 02:09:47			0	37437	0	0	0	29719	28320	163363	26828	1065328	45703	111057	0	0	8075	561643	0	0
2024-08-01 02:10:47			0	37450	0	0	0	29719	28320	163355	26935	1065328	45713	111057	0	0	8076	561133	0	0
2024-08-01 02:11:47			0	37434	0	0	0	29711	28320	163251	26968	1065301	45713	111054	0	0	8075	561760	0	0
2024-08-01 02:12:47			0	37456	0	0	0	29709	28320	163251	27010	1065328	45725	111053	0	0	8077	560898	0	0
2024-08-01 02:13:47			0	37464	0	0	0	29703	28320	163211	26889	1065328	45703	111051	0	0	8077	560584	0	0
2024-08-01 02:14:47			0	37450	0	0	0	29703	28320	163291	26928	1065319	45702	111051	0	0	8077	561133	0	0
2024-08-01 02:15:47			0	37455	0	0	0	29703	28320	163207	26897	1065293	45712	111051	0	0	8077	560937	0	0
2024-08-01 02:16:47			0	37457	0	0	0	29711	28310	163163	26715	1065275	45712	111054	0	0	8077	560891	0	0
2024-08-01 02:17:47			0	37465	0	0	0	29701	28320	163279	26844	1065239	45724	111050	0	0	8077	560545	0	0
2024-08-01 02:18:47			0	37448	0	0	0	29701	28310	163287	27255	1065302	45712	111050	0	0	8076	561244	0	0
2024-08-01 02:19:47			0	37430	0	0	0	29698	28310	163275	27092	1065275	45724	111049	0	0	8075	561949	0	0
2024-08-01 02:20:47			0	37437	0	0	0	29698	28310	163323	27104	1065203	45712	111049	0	0	8076	561675	0	0
2024-08-01 02:21:47			0	37434	0	0	0	29696	28300	163455	27161	1065257	45700	111048	0	0	8076	561825	0	0
2024-08-01 02:22:47			0	37427	0	0	0	29690	28300	163319	27038	1065239	45711	111046	0	0	8075	562100	0	0
2024-08-01 02:23:47			0	37429	0	0	0	29701	28300	163363	27164	1065293	45711	111050	0	0	8075	562021	0	0
2024-08-01 02:24:47			0	37426	0	0	0	29690	28300	163351	27128	1065212	45711	111046	0	0	8075	562139	0	0
2024-08-01 02:25:47			0	37424	0	0	0	29683	28300	163395	27209	1065239	45711	111043	0	0	8075	562217	0	0
2024-08-01 02:26:47			0	37421	0	0	0	29683	28290	163395	27374	1065302	45722	111043	0	0	8075	562368	0	0
2024-08-01 02:27:47			0	37434	0	0	0	29683	28300	163395	27003	1065239	45734	111043	0	0	8076	561825	0	0
2024-08-01 02:28:47			0	37420	0	0	0	29677	28280	163355	26972	1065167	45720	111041	0	0	8075	562439	0	0
2024-08-01 02:29:47			0	37427	0	0	0	29680	28300	163379	27166	1065122	45733	111042	0	0	8075	562100	0	0
2024-08-01 02:30:47			0	37429	0	0	0	29677	28280	163395	26772	1065176	45721	111041	0	0	8076	562086	0	0
2024-08-01 02:31:47			0	37417	0	0	0	29672	28270	163359	26814	1065077	45685	111039	0	0	8075	562590	0	0
2024-08-01 02:32:47			0	37432	0	0	0	29664	28280	163279	26772	1065059	45698	111036	0	0	8076	561968	0	0
2024-08-01 02:33:47			0	37428	0	0	0	29664	28270	163327	26268	1065068	45719	111036	0	0	8076	562158	0	0
2024-08-01 02:34:47			0	37413	0	0	0	29651	28270	163399	26920	1065068	45719	111031	0	0	8075	562747	0	0
2024-08-01 02:35:47			0	37426	0	0	0	29654	28270	163491	26951	1065122	45708	111032	0	0	8076	562236	0	0
2024-08-01 02:36:47			0	37417	0	0	0	29649	28260	163443	26743	1065059	45719	111030	0	0	8075	562622	0	0
2024-08-01 02:37:47			0	37412	0	0	0	29649	28260	163487	26837	1065032	45708	111030	0	0	8075	562819	0	0
2024-08-01 02:38:47			0	37425	0	0	0	29644	28260	163451	27098	1065023	45718	111028	0	0	8076	562308	0	0
2024-08-01 02:39:47			0	37415	0	0	0	29646	28250	163403	27183	1064987	45706	111029	0	0	8075	562733	0	0
2024-08-01 02:40:47			0	37424	0	0	0	29644	28250	163403	26814	1065014	45706	111028	0	0	8076	562380	0	0
2024-08-01 02:41:47			0	37434	0	0	0	29646	28260	163307	26700	1065023	45718	111029	0	0	8076	561955	0	0
2024-08-01 02:42:47			0	37445	0	0	0	29641	28260	163279	26658	1065032	45719	111027	0	0	8077	561523	0	0
2024-08-01 02:43:47			0	37457	0	0	0	29649	28260	163407	26830	1064996	45729	111030	0	0	8078	561053	0	0
2024-08-01 02:44:47			0	37450	0	0	0	29649	28250	163451	27050	1065014	45695	111030	0	0	8077	561360	0	0
2024-08-01 02:45:47			0	37439	0	0	0	29638	28250	163415	26849	1065005	45695	111026	0	0	8077	561791	0	0
2024-08-01 02:46:47			0	37438	0	0	0	29649	28250	163355	26757	1065014	45717	111030	0	0	8076	561830	0	0
2024-08-01 02:47:47			0	37453	0	0	0	29641	28250	163247	27168	1065032	45717	111027	0	0	8077	561242	0	0
2024-08-01 02:48:47			0	37448	0	0	0	29651	28240	163339	26915	1064987	45705	111031	0	0	8077	561471	0	0
2024-08-01 02:49:47			0	37466	0	0	0	29649	28250	163243	26993	1064987	45717	111030	0	0	8078	560733	0	0
2024-08-01 02:50:47			0	37461	0	0	0	29646	28250	163271	26986	1064951	45717	111029	0	0	8078	560929	0	0
2024-08-01 02:51:47			0	37466	0	0	0	29633	28240	163303	26925	1064915	45717	111024	0	0	8078	560765	0	0
2024-08-01 02:52:47			0	37459	0	0	0	29638	28230	163283	26960	1064870	45715	111026	0	0	8078	561072	0	0
2024-08-01 02:53:47			0	37465	0	0	0	29618	28240	163263	27209	1064942	45717	111018	0	0	8078	560804	0	0
2024-08-01 02:54:47			0	37440	0	0	0	29623	28230	163291	26861	1064843	45715	111020	0	0	8077	561817	0	0
2024-08-01 02:55:47			0	37441	0	0	0	29615	28230	163327	26998	1064924	45726	111017	0	0	8077	561778	0	0
2024-08-01 02:56:47			0	37454	0	0	0	29618	28230	163295	27118	1064888	45715	111018	0	0	8078	561268	0	0
2024-08-01 02:57:47			0	37438	0	0	0	29610	28230	163363	26823	1064834	45693	111015	0	0	8077	561895	0	0
2024-08-01 02:58:47			0	37441	0	0	0	29620	28230	163407	27294	1064807	45693	111019	0	0	8077	561778	0	0
2024-08-01 02:59:47			0	37430	0	0	0	29610	28230	163355	27381	1064816	45715	111015	0	0	8077	562209	0	0
2024-08-01 03:00:47			0	37417	0	0	0	29607	28220	163463	26949	1064843	45714	111014	0	0	8076	562752	0	0
2024-08-01 03:01:47			0	37411	0	0	0	29607	28220	163451	27090	1064897	45714	111014	0	0	8075	562988	0	0
2024-08-01 03:02:47			0	37426	0	0	0	29612	28230	163515	27027	1064861	45726	111016	0	0	8076	562366	0	0
2024-08-01 03:03:47			0	37425	0	0	0	29615	28230	163439	26809	1064834	45726	111017	0	0	8076	562406	0	0
2024-08-01 03:04:47			0	37435	0	0	0	29599	28220	163371	26944	1064852	45714	111011	0	0	8077	562045	0	0
2024-08-01 03:05:47			0	37437	0	0	0	29610	28220	163383	27053	1064843	45714	111015	0	0	8077	561967	0	0
2024-08-01 03:06:47			0	37439	0	0	0	29615	28210	163427	26876	1064834	45713	111017	0	0	8077	561921	0	0
2024-08-01 03:07:47			0	37453	0	0	0	29612	28220	163343	26781	1064852	45714	111016	0	0	8078	561340	0	0
2024-08-01 03:08:47			0	37458	0	0	0	29610	28220	163359	27319	1064816	45714	111015	0	0	8078	561143	0	0
2024-08-01 03:09:47			0	37463	0	0	0	29610	28220	163343	26876	1064852	45714	111015	0	0	8078	560948	0	0
2024-08-01 03:10:47			0	37488	0	0	0	29610	28210	163215	27388	1064807	45713	111015	0	0	8080	560001	0	0
2024-08-01 03:11:47			0	37485	0	0	0	29607	28210	163215	27237	1064852	45713	111014	0	0	8080	560118	0	0
2024-08-01 03:12:47			0	37514	0	0	0	29612	28220	163047	26918	1064843	45714	111016	0	0	8081	558951	0	0
2024-08-01 03:13:47			0	37516	0	0	0	29607	28220	163035	26935	1064790	45714	111014	0	0	8082	558873	0	0
2024-08-01 03:14:47			0	37526	0	0	0	29612	28220	163019	27019	1064790	45714	111016	0	0	8082	558482	0	0
2024-08-01 03:15:47			0	37509	0	0	0	29607	28220	163083	27027	1064790	45692	111014	0	0	8081	559147	0	0
2024-08-01 03:16:47			0	37525	0	0	0	29605	28220	163087	27095	1064816	45714	111013	0	0	8082	558521	0	0
2024-08-01 03:17:47			0	37527	0	0	0	29602	28210	163051	26719	1064834	45713	111012	0	0	8082	558475	0	0
2024-08-01 03:18:47			0	37510	0	0	0	29607	28210	163139	27384	1064781	45713	111014	0	0	8081	559140	0	0
2024-08-01 03:19:47			0	37511	0	0	0	29605	28210	162963	27008	1064807	45724	111013	0	0	8081	559101	0	0
2024-08-01 03:20:47			0	37522	0	0	0	29602	28210	163023	26930	1064807	45724	111012	0	0	8082	558671	0	0
2024-08-01 03:21:47			0	37521	0	0	0	29597	28210	163107	27209	1064772	45702	111010	0	0	8082	558710	0	0
2024-08-01 03:22:47			0	37535	0	0	0	29615	28200	162999	26986	1064754	45712	111017	0	0	8082	558195	0	0
2024-08-01 03:23:47			0	37540	0	0	0	29599	28200	163123	26953	1064781	45701	111011	0	0	8083	558000	0	0
2024-08-01 03:24:47			0	37512	0	0	0	29610	28200	163103	26987	1064754	45712	111015	0	0	8081	559094	0	0
2024-08-01 03:25:47			0	37558	0	0	0	29605	28210	162975	26963	1064825	45713	111013	0	0	8084	557265	0	0
2024-08-01 03:26:47			0	37548	0	0	0	29605	28200	162887	26989	1064834	45723	111013	0	0	8083	557687	0	0
2024-08-01 03:27:47			0	37552	0	0	0	29605	28210	162911	27085	1064861	45702	111013	0	0	8084	557499	0	0
2024-08-01 03:28:47			0	37553	0	0	0	29602	28190	162919	26961	1064826	45711	111012	0	0	8084	557524	0	0
2024-08-01 03:29:47			0	37562	0	0	0	29599	28200	162827	27144	1064700	45701	111011	0	0	8084	557141	0	0
2024-08-01 03:30:47			0	37542	0	0	0	29597	28200	162931	26703	1064808	45712	111010	0	0	8083	557921	0	0
2024-08-01 03:31:47			0	37551	0	0	0	29599	28200	162891	26752	1064754	45723	111011	0	0	8084	557570	0	0
2024-08-01 03:32:47			0	37554	0	0	0	29605	28200	162927	26778	1064781	45723	111013	0	0	8084	557453	0	0
2024-08-01 03:33:47			0	37563	0	0	0	29602	28190	162831	27116	1064799	45711	111012	0	0	8084	557134	0	0
2024-08-01 03:34:47			0	37550	0	0	0	29605	28200	162811	26870	1064808	45679	111013	0	0	8083	557609	0	0
2024-08-01 03:35:47			0	37560	0	0	0	29597	28190	162851	26993	1064826	45711	111010	0	0	8084	557251	0	0
2024-08-01 03:36:47			0	37579	0	0	0	29602	28200	162959	26904	1064816	45701	111012	0	0	8085	556478	0	0
2024-08-01 03:37:47			0	37593	0	0	0	29599	28200	162883	26963	1064816	45701	111011	0	0	8086	555932	0	0
2024-08-01 03:38:47			0	37587	0	0	0	29602	28190	162803	26771	1064763	45710	111012	0	0	8086	556198	0	0
2024-08-01 03:39:47			0	37590	0	0	0	29605	28200	162775	27012	1064781	45712	111013	0	0	8086	556049	0	0
2024-08-01 03:40:47			0	37587	0	0	0	29597	28200	162851	26821	1064808	45701	111010	0	0	8086	556166	0	0
2024-08-01 03:41:47			0	37600	0	0	0	29597	28200	162827	27161	1064781	45701	111010	0	0	8086	555659	0	0
2024-08-01 03:42:47			0	37592	0	0	0	29599	28200	162803	27072	1064808	45690	111011	0	0	8086	555971	0	0
2024-08-01 03:43:47			0	37597	0	0	0	29594	28200	162863	27175	1064781	45712	111009	0	0	8086	555776	0	0
2024-08-01 03:44:47			0	37605	0	0	0	29586	28190	162779	26979	1064772	45700	111006	0	0	8087	555497	0	0
2024-08-01 03:45:47			0	37580	0	0	0	29594	28190	162795	26932	1064745	45700	111009	0	0	8085	556471	0	0
2024-08-01 03:46:47			0	37603	0	0	0	29586	28190	162871	27111	1064718	45711	111006	0	0	8087	555574	0	0
2024-08-01 03:47:47			0	37601	0	0	0	29592	28190	162779	27093	1064799	45711	111008	0	0	8087	555652	0	0
2024-08-01 03:48:47			0	37599	0	0	0	29594	28200	162855	26876	1064834	45723	111009	0	0	8086	555698	0	0
2024-08-01 03:49:47			0	37588	0	0	0	29589	28190	162959	26876	1064709	45710	111007	0	0	8086	556159	0	0
2024-08-01 03:50:47			0	37592	0	0	0	29573	28180	162795	27104	1064700	45688	111001	0	0	8086	556035	0	0
2024-08-01 03:51:47			0	37598	0	0	0	29579	28180	162855	26989	1064691	45710	111003	0	0	8087	555801	0	0
2024-08-01 03:52:47			0	37588	0	0	0	29573	28180	162779	27346	1064673	45699	111001	0	0	8086	556191	0	0
2024-08-01 03:53:47			0	37600	0	0	0	29571	28180	162839	26987	1064673	45699	111000	0	0	8087	555724	0	0
2024-08-01 03:54:47			0	37619	0	0	0	29573	28190	162683	27019	1064682	45688	111001	0	0	8088	554952	0	0
2024-08-01 03:55:47			0	37615	0	0	0	29573	28180	162791	26935	1064610	45710	111001	0	0	8088	555139	0	0
2024-08-01 03:56:47			0	37589	0	0	0	29571	28180	162931	26797	1064691	45721	111000	0	0	8086	556152	0	0
2024-08-01 03:57:47			0	37602	0	0	0	29563	28180	162783	27059	1064637	45733	110997	0	0	8087	555646	0	0
2024-08-01 03:58:47			0	37608	0	0	0	29561	28170	162815	27114	1064601	45698	110996	0	0	8087	555444	0	0
2024-08-01 03:59:47			0	37624	0	0	0	29563	28170	162655	27341	1064628	45709	110997	0	0	8088	554821	0	0
2024-08-01 04:00:47			0	37628	0	0	0	29558	28170	162707	26889	1064592	45708	110995	0	0	8089	554665	0	0
2024-08-01 04:01:47			0	37631	0	0	0	29563	28180	162731	27277	1064637	45688	110997	0	0	8089	554517	0	0
2024-08-01 04:02:47			0	37644	0	0	0	29561	28170	162647	26904	1064619	45708	110996	0	0	8089	554043	0	0
2024-08-01 04:03:47			0	37645	0	0	0	29558	28160	162587	26842	1064583	45697	110995	0	0	8090	554036	0	0
2024-08-01 04:04:47			0	37661	0	0	0	29558	28170	162591	27057	1064592	45708	110995	0	0	8090	553382	0	0
2024-08-01 04:05:47			0	37658	0	0	0	29566	28170	162535	27154	1064592	45719	110998	0	0	8090	553499	0	0
2024-08-01 04:06:47			0	37667	0	0	0	29566	28170	162463	27157	1064565	45697	110998	0	0	8091	553149	0	0
2024-08-01 04:07:47			0	37655	0	0	0	29561	28170	162419	27246	1064592	45708	110996	0	0	8090	553616	0	0
2024-08-01 04:08:47			0	37691	0	0	0	29563	28160	162451	26920	1064583	45697	110997	0	0	8092	552249	0	0
2024-08-01 04:09:47			0	37705	0	0	0	29571	28160	162427	27001	1064583	45697	111000	0	0	8093	551706	0	0
2024-08-01 04:10:47			0	37711	0	0	0	29558	28160	162283	27133	1064610	45719	110995	0	0	8093	551474	0	0
2024-08-01 04:11:47			0	37735	0	0	0	29568	28170	162327	26946	1064619	45708	110999	0	0	8095	550512	0	0
2024-08-01 04:12:47			0	37730	0	0	0	29568	28160	162219	26847	1064664	45697	110999	0	0	8094	550738	0	0
2024-08-01 04:13:47			0	37755	0	0	0	29566	28160	162003	27105	1064628	45718	110998	0	0	8096	549770	0	0
2024-08-01 04:14:47			0	37766	0	0	0	29568	28160	162127	27092	1064691	45697	110999	0	0	8096	549344	0	0
2024-08-01 04:15:47			0	37795	0	0	0	29563	28170	162055	26849	1064646	45719	110997	0	0	8098	548192	0	0
2024-08-01 04:16:47			0	37799	0	0	0	29571	28160	161871	27251	1064691	45697	111000	0	0	8098	548069	0	0
2024-08-01 04:17:47			0	37842	0	0	0	29568	28170	161823	27208	1064628	45709	110999	0	0	8101	546379	0	0
2024-08-01 04:18:47			0	37860	0	0	0	29571	28160	161771	26861	1064601	45708	111000	0	0	8102	545717	0	0
2024-08-01 04:19:47			0	37865	0	0	0	29568	28160	161719	26998	1064637	45697	110999	0	0	8102	545525	0	0
2024-08-01 04:20:47			0	37879	0	0	0	29571	28160	161691	27052	1064628	45708	111000	0	0	8103	544986	0	0
2024-08-01 04:21:47			0	37904	0	0	0	29573	28160	161663	27124	1064610	45708	111001	0	0	8104	544025	0	0
2024-08-01 04:22:47			0	37915	0	0	0	29555	28170	161431	26989	1064619	45719	110994	0	0	8105	543570	0	0
2024-08-01 04:23:47			0	37936	0	0	0	29568	28160	161291	26769	1064610	45719	110999	0	0	8106	542796	0	0
2024-08-01 04:24:47			0	37948	0	0	0	29561	28170	161231	27128	1064619	45697	110996	0	0	8107	542304	0	0
2024-08-01 04:25:47			0	37973	0	0	0	29566	28160	161123	26863	1064610	45731	110998	0	0	8108	541377	0	0
2024-08-01 04:26:47			0	38004	0	0	0	29571	28160	160999	27183	1064601	45708	111000	0	0	8110	540190	0	0
2024-08-01 04:27:47			0	38024	0	0	0	29573	28170	160972	26859	1064592	45697	111001	0	0	8111	539394	0	0
2024-08-01 04:28:47			0	38041	0	0	0	29568	28170	160872	27000	1064673	45697	110999	0	0	8112	538744	0	0
2024-08-01 04:29:47			0	38053	0	0	0	29566	28160	160772	26960	1064583	45708	110998	0	0	8113	538317	0	0
2024-08-01 04:30:47			0	38075	0	0	0	29563	28160	160724	26745	1064610	45719	110997	0	0	8114	537478	0	0
2024-08-01 04:31:47			0	38110	0	0	0	29576	28160	160636	26672	1064610	45719	111002	0	0	8116	536144	0	0
2024-08-01 04:32:47			0	38115	0	0	0	29571	28160	160532	27157	1064574	45718	111000	0	0	8116	535954	0	0
2024-08-01 04:33:47			0	38146	0	0	0	29573	28170	160476	27053	1064682	45709	111001	0	0	8118	534744	0	0
2024-08-01 04:34:47			0	38171	0	0	0	29571	28170	160288	26928	1064628	45709	111000	0	0	8120	533794	0	0
2024-08-01 04:35:47			0	38207	0	0	0	29566	28160	160188	27213	1064637	45708	110998	0	0	8122	532458	0	0
2024-08-01 04:36:47			0	38219	0	0	0	29576	28160	160192	26955	1064610	45719	111002	0	0	8122	532004	0	0
2024-08-01 04:37:47			0	38246	0	0	0	29563	28170	160092	26942	1064646	45697	110997	0	0	8124	530950	0	0
2024-08-01 04:38:47			0	38256	0	0	0	29563	28160	160028	27126	1064682	45708	110997	0	0	8125	530603	0	0
2024-08-01 04:39:47			0	38278	0	0	0	29563	28160	159992	27246	1064637	45708	110997	0	0	8126	529771	0	0
2024-08-01 04:40:47			0	38300	0	0	0	29571	28160	159860	26814	1064637	45708	111000	0	0	8127	528940	0	0
2024-08-01 04:41:47			0	38299	0	0	0	29566	28160	159812	27062	1064556	45686	110998	0	0	8127	528977	0	0
2024-08-01 04:42:47			0	38316	0	0	0	29566	28160	159800	26828	1064610	45708	110998	0	0	8128	528336	0	0
2024-08-01 04:43:47			0	38324	0	0	0	29566	28160	159728	27121	1064574	45718	110998	0	0	8128	528034	0	0
2024-08-01 04:44:47			0	38340	0	0	0	29558	28150	159732	26882	1064619	45697	110995	0	0	8129	527461	0	0
2024-08-01 04:45:47			0	38330	0	0	0	29558	28160	159776	27201	1064601	45708	110995	0	0	8129	527807	0	0
2024-08-01 04:46:47			0	38355	0	0	0	29568	28170	159756	27020	1064673	45708	110999	0	0	8130	526835	0	0
2024-08-01 04:47:47			0	38340	0	0	0	29571	28160	159700	27199	1064574	45708	111000	0	0	8129	527431	0	0
2024-08-01 04:48:47			0	38362	0	0	0	29563	28160	159728	26967	1064637	45708	110997	0	0	8131	526602	0	0
2024-08-01 04:49:47			0	38344	0	0	0	29568	28160	159704	27114	1064610	45686	110999	0	0	8130	527280	0	0
2024-08-01 04:50:47			0	38327	0	0	0	29561	28160	159792	27177	1064574	45697	110996	0	0	8129	527921	0	0
2024-08-01 04:51:47			0	38322	0	0	0	29558	28160	159896	26738	1064601	45718	110995	0	0	8128	528109	0	0
2024-08-01 04:52:47			0	38320	0	0	0	29550	28160	159844	26937	1064637	45708	110992	0	0	8128	528185	0	0
2024-08-01 04:53:47			0	38288	0	0	0	29563	28150	159896	26953	1064592	45718	110997	0	0	8126	529424	0	0
2024-08-01 04:54:47			0	38300	0	0	0	29563	28170	159932	26856	1064673	45708	110997	0	0	8127	528909	0	0
2024-08-01 04:55:47			0	38291	0	0	0	29561	28160	160116	27199	1064637	45708	110996	0	0	8127	529279	0	0
2024-08-01 04:56:47			0	38274	0	0	0	29563	28160	160024	26785	1064610	45708	110997	0	0	8126	529922	0	0
2024-08-01 04:57:47			0	38273	0	0	0	29571	28170	160116	27126	1064700	45719	111000	0	0	8125	529929	0	0
2024-08-01 04:58:47			0	38288	0	0	0	29573	28160	160084	26807	1064610	45686	111001	0	0	8126	529393	0	0
2024-08-01 04:59:47			0	38292	0	0	0	29563	28160	160024	27145	1064664	45719	110997	0	0	8127	529242	0	0
2024-08-01 05:00:47			0	38274	0	0	0	29568	28170	159992	26918	1064646	45708	110999	0	0	8126	529891	0	0
2024-08-01 05:01:47			0	38268	0	0	0	29571	28170	159960	26942	1064673	45708	111000	0	0	8125	530118	0	0
2024-08-01 05:02:47			0	38273	0	0	0	29576	28170	160012	26779	1064601	45720	111002	0	0	8125	529929	0	0
2024-08-01 05:03:47			0	38275	0	0	0	29571	28170	159940	26830	1064682	45709	111000	0	0	8126	529853	0	0
2024-08-01 05:04:47			0	38282	0	0	0	29571	28180	159976	26859	1064691	45733	111000	0	0	8126	529558	0	0
2024-08-01 05:05:47			0	38267	0	0	0	29576	28170	159964	26677	1064646	45719	111002	0	0	8125	530156	0	0
2024-08-01 05:06:47			0	38248	0	0	0	29576	28170	159940	26771	1064646	45697	111002	0	0	8124	530875	0	0
2024-08-01 05:07:47			0	38263	0	0	0	29579	28180	160104	26727	1064664	45721	111003	0	0	8125	530277	0	0
2024-08-01 05:08:47			0	38257	0	0	0	29573	28170	160136	26955	1064673	45686	111001	0	0	8125	530534	0	0
2024-08-01 05:09:47			0	38225	0	0	0	29581	28170	160224	27152	1064709	45709	111004	0	0	8123	531746	0	0
2024-08-01 05:10:47			0	38182	0	0	0	29573	28170	160232	26939	1064655	45698	111001	0	0	8120	533376	0	0
2024-08-01 05:11:47			0	38157	0	0	0	29566	28160	160376	26847	1064637	45708	110998	0	0	8119	534356	0	0
2024-08-01 05:12:47			0	38111	0	0	0	29576	28170	160496	27074	1064655	45687	111002	0	0	8116	536075	0	0
2024-08-01 05:13:47			0	38081	0	0	0	29571	28170	160732	27133	1064655	45709	111000	0	0	8114	537218	0	0
2024-08-01 05:14:47			0	38075	0	0	0	29571	28170	160828	26857	1064592	45719	111000	0	0	8114	537447	0	0
2024-08-01 05:15:47			0	38021	0	0	0	29561	28160	160899	26776	1064637	45708	110996	0	0	8111	539540	0	0
2024-08-01 05:16:47			0	38041	0	0	0	29558	28170	160856	27039	1064646	45697	110995	0	0	8112	538744	0	0
2024-08-01 05:17:47			0	38044	0	0	0	29561	28160	160848	26925	1064583	45708	110996	0	0	8112	538661	0	0
2024-08-01 05:18:47			0	38013	0	0	0	29561	28160	160879	26779	1064628	45708	110996	0	0	8111	539846	0	0
2024-08-01 05:19:47			0	38027	0	0	0	29558	28150	160924	27164	1064556	45717	110995	0	0	8111	539342	0	0
2024-08-01 05:20:47			0	38018	0	0	0	29550	28170	161011	27121	1064574	45709	110992	0	0	8111	539623	0	0
2024-08-01 05:21:47			0	38009	0	0	0	29558	28160	161019	27204	1064574	45697	110995	0	0	8111	539999	0	0
2024-08-01 05:22:47			0	37998	0	0	0	29553	28160	161019	27065	1064601	45708	110993	0	0	8110	540419	0	0
2024-08-01 05:23:47			0	37979	0	0	0	29548	28160	161179	26781	1064601	45718	110991	0	0	8109	541147	0	0
2024-08-01 05:24:47			0	37966	0	0	0	29553	28160	161159	26800	1064574	45718	110993	0	0	8108	541645	0	0
2024-08-01 05:25:47			0	37935	0	0	0	29550	28160	161247	26894	1064601	45718	110992	0	0	8106	542834	0	0
2024-08-01 05:26:47			0	37898	0	0	0	29548	28150	161459	27052	1064529	45707	110991	0	0	8104	544286	0	0
2024-08-01 05:27:47			0	37861	0	0	0	29553	28150	161555	27150	1064529	45707	110993	0	0	8102	545710	0	0
2024-08-01 05:28:47			0	37831	0	0	0	29550	28140	161707	27294	1064520	45707	110992	0	0	8100	546898	0	0
2024-08-01 05:29:47			0	37802	0	0	0	29532	28150	161767	26979	1064538	45685	110985	0	0	8099	547985	0	0
2024-08-01 05:30:47			0	37787	0	0	0	29548	28140	161943	26961	1064574	45707	110991	0	0	8098	548596	0	0
2024-08-01 05:31:47			0	37758	0	0	0	29540	28140	162143	27078	1064538	45706	110988	0	0	8096	549717	0	0
2024-08-01 05:32:47			0	37735	0	0	0	29542	28150	162119	27003	1064502	45707	110989	0	0	8095	550576	0	0
2024-08-01 05:33:47			0	37705	0	0	0	29535	28140	162239	27085	1064547	45717	110986	0	0	8093	551770	0	0
2024-08-01 05:34:47			0	37692	0	0	0	29527	28140	162335	26906	1064457	45716	110983	0	0	8093	552274	0	0
2024-08-01 05:35:47			0	37680	0	0	0	29532	28140	162411	26986	1064484	45695	110985	0	0	8092	552740	0	0
2024-08-01 05:36:47			0	37670	0	0	0	29537	28140	162463	26689	1064404	45706	110987	0	0	8091	553129	0	0
2024-08-01 05:37:47			0	37647	0	0	0	29524	28130	162619	26642	1064466	45705	110982	0	0	8090	554054	0	0
2024-08-01 05:38:47			0	37633	0	0	0	29522	28130	162599	26753	1064386	45705	110981	0	0	8089	554599	0	0
2024-08-01 05:39:47			0	37631	0	0	0	29524	28130	162691	26889	1064475	45706	110982	0	0	8089	554677	0	0
2024-08-01 05:40:47			0	37641	0	0	0	29522	28130	162751	26786	1064421	45706	110981	0	0	8090	554288	0	0
2024-08-01 05:41:47			0	37601	0	0	0	29516	28130	162831	26883	1064466	45694	110979	0	0	8088	555845	0	0
2024-08-01 05:42:47			0	37602	0	0	0	29516	28130	162851	26689	1064466	45705	110979	0	0	8088	555806	0	0
2024-08-01 05:43:47			0	37580	0	0	0	29514	28130	162931	26861	1064466	45705	110978	0	0	8086	556664	0	0
2024-08-01 05:44:47			0	37556	0	0	0	29527	28130	163051	26871	1064395	45716	110983	0	0	8085	557600	0	0
2024-08-01 05:45:47			0	37547	0	0	0	29519	28120	163075	26812	1064449	45704	110980	0	0	8084	557984	0	0
2024-08-01 05:46:47			0	37534	0	0	0	29522	28130	162975	26779	1064413	45715	110981	0	0	8084	558460	0	0
2024-08-01 05:47:47			0	37514	0	0	0	29516	28130	163195	27026	1064440	45705	110979	0	0	8082	559242	0	0
2024-08-01 05:48:47			0	37516	0	0	0	29514	28130	163127	26930	1064440	45705	110978	0	0	8083	559163	0	0
2024-08-01 05:49:47			0	37507	0	0	0	29514	28120	163159	26786	1064350	45705	110978	0	0	8082	559548	0	0
2024-08-01 05:50:47			0	37523	0	0	0	29514	28120	163175	27055	1064404	45682	110978	0	0	8083	558922	0	0
2024-08-01 05:51:47			0	37550	0	0	0	29514	28120	163115	26859	1064377	45715	110978	0	0	8085	557867	0	0
2024-08-01 05:52:47			0	37530	0	0	0	29506	28110	163119	26934	1064386	45704	110975	0	0	8084	558681	0	0
2024-08-01 05:53:47			0	37523	0	0	0	29509	28110	163287	26932	1064332	45704	110976	0	0	8083	558954	0	0
2024-08-01 05:54:47			0	37526	0	0	0	29503	28120	163151	26927	1064341	45704	110974	0	0	8083	558805	0	0
2024-08-01 05:55:47			0	37502	0	0	0	29506	28110	163291	26902	1064350	45692	110975	0	0	8082	559776	0	0
2024-08-01 05:56:47			0	37469	0	0	0	29503	28110	163403	26772	1064323	45692	110974	0	0	8080	561069	0	0
2024-08-01 05:57:47			0	37462	0	0	0	29501	28120	163487	26866	1064341	45714	110973	0	0	8080	561311	0	0
2024-08-01 05:58:47			0	37452	0	0	0	29498	28110	163523	26991	1064323	45703	110972	0	0	8079	561735	0	0
2024-08-01 05:59:47			0	37443	0	0	0	29498	28100	163595	26557	1064287	45713	110972	0	0	8079	562121	0	0
2024-08-01 06:00:47			0	37406	0	0	0	29498	28100	163699	26967	1064314	45680	110972	0	0	8076	563575	0	0
2024-08-01 06:01:47			0	37383	0	0	0	29493	28110	163715	27038	1064359	45704	110970	0	0	8075	564447	0	0
2024-08-01 06:02:47			0	37386	0	0	0	29493	28090	163827	27128	1064305	45691	110970	0	0	8075	564394	0	0
2024-08-01 06:03:47			0	37373	0	0	0	29490	28090	163799	27060	1064332	45691	110969	0	0	8075	564906	0	0
2024-08-01 06:04:47			0	37373	0	0	0	29493	28090	163831	26991	1064305	45702	110970	0	0	8075	564906	0	0
2024-08-01 06:05:47			0	37365	0	0	0	29490	28100	163959	27128	1064314	45713	110969	0	0	8074	565188	0	0
2024-08-01 06:06:47			0	37340	0	0	0	29488	28090	164079	26897	1064278	45724	110968	0	0	8073	566206	0	0
2024-08-01 06:07:47			0	37320	0	0	0	29480	28090	163958	26951	1064251	45702	110965	0	0	8072	566995	0	0
2024-08-01 06:08:47			0	37340	0	0	0	29485	28090	164071	26850	1064242	45711	110967	0	0	8073	566206	0	0
2024-08-01 06:09:47			0	37340	0	0	0	29485	28090	163903	27020	1064242	45678	110967	0	0	8073	566206	0	0
2024-08-01 06:10:47			0	37345	0	0	0	29475	28080	163943	26961	1064260	45701	110963	0	0	8073	566042	0	0
2024-08-01 06:11:47			0	37352	0	0	0	29477	28080	163947	26967	1064287	45701	110964	0	0	8074	565766	0	0
2024-08-01 06:12:47			0	37357	0	0	0	29488	28080	163951	27128	1064287	45711	110968	0	0	8074	565569	0	0
2024-08-01 06:13:47			0	37333	0	0	0	29483	28080	163963	26760	1064278	45700	110966	0	0	8072	566515	0	0
2024-08-01 06:14:47			0	37348	0	0	0	29464	28070	164071	27199	1064188	45700	110959	0	0	8073	565956	0	0
2024-08-01 06:15:47			0	37320	0	0	0	29472	28080	164098	26800	1064224	45689	110962	0	0	8072	567028	0	0
2024-08-01 06:16:47			0	37305	0	0	0	29477	28080	164142	26923	1064260	45701	110964	0	0	8071	567621	0	0
2024-08-01 06:17:47			0	37303	0	0	0	29477	28080	164078	27130	1064206	45701	110964	0	0	8071	567699	0	0
2024-08-01 06:18:47			0	37306	0	0	0	29467	28070	164138	27090	1064179	45699	110960	0	0	8071	567614	0	0
2024-08-01 06:19:47			0	37282	0	0	0	29475	28080	164234	26882	1064224	45700	110963	0	0	8069	568530	0	0
2024-08-01 06:20:47			0	37269	0	0	0	29467	28070	164326	27159	1064188	45689	110960	0	0	8069	569077	0	0
2024-08-01 06:21:47			0	37261	0	0	0	29464	28070	164346	27020	1064206	45699	110959	0	0	8068	569393	0	0
2024-08-01 06:22:47			0	37253	0	0	0	29470	28080	164298	27242	1064224	45700	110961	0	0	8068	569677	0	0
2024-08-01 06:23:47			0	37248	0	0	0	29467	28080	164354	27258	1064206	45711	110960	0	0	8068	569875	0	0
2024-08-01 06:24:47			0	37258	0	0	0	29480	28070	164406	26729	1064188	45710	110965	0	0	8068	569512	0	0
2024-08-01 06:25:47			0	37218	0	0	0	29475	28070	164506	27013	1064135	45700	110963	0	0	8066	571097	0	0
2024-08-01 06:26:47			0	37231	0	0	0	29467	28080	164490	27045	1064197	45710	110960	0	0	8067	570549	0	0
2024-08-01 06:27:47			0	37212	0	0	0	29467	28080	164526	27156	1064143	45722	110960	0	0	8066	571302	0	0
2024-08-01 06:28:47			0	37217	0	0	0	29472	28070	164658	26941	1064153	45709	110962	0	0	8066	571137	0	0
2024-08-01 06:29:47			0	37206	0	0	0	29467	28070	164674	26890	1064153	45688	110960	0	0	8065	571574	0	0
2024-08-01 06:30:47			0	37183	0	0	0	29462	28070	164654	26951	1064126	45699	110958	0	0	8064	572487	0	0
2024-08-01 06:31:47			0	37210	0	0	0	29462	28060	164622	27111	1064144	45699	110958	0	0	8065	571448	0	0
2024-08-01 06:32:47			0	37194	0	0	0	29470	28060	164650	26960	1064188	45698	110961	0	0	8064	572083	0	0
2024-08-01 06:33:47			0	37183	0	0	0	29462	28060	164738	27124	1064144	45699	110958	0	0	8064	572520	0	0
2024-08-01 06:34:47			0	37173	0	0	0	29464	28070	164706	26946	1064135	45722	110959	0	0	8063	572884	0	0
2024-08-01 06:35:47			0	37171	0	0	0	29454	28060	164790	27263	1064135	45708	110955	0	0	8063	572997	0	0
2024-08-01 06:36:47			0	37147	0	0	0	29451	28060	164810	27036	1064108	45698	110954	0	0	8062	573952	0	0
2024-08-01 06:37:47			0	37157	0	0	0	29454	28070	164930	27041	1064179	45709	110955	0	0	8062	573521	0	0
2024-08-01 06:38:47			0	37148	0	0	0	29449	28050	164970	27192	1064153	45698	110953	0	0	8062	573945	0	0
2024-08-01 06:39:47			0	37128	0	0	0	29454	28070	164974	26961	1064126	45699	110955	0	0	8061	574675	0	0
2024-08-01 06:40:47			0	37121	0	0	0	29454	28060	164894	27128	1064108	45698	110955	0	0	8060	574987	0	0
2024-08-01 06:41:47			0	37136	0	0	0	29451	28050	164938	26776	1064117	45697	110954	0	0	8061	574423	0	0
2024-08-01 06:42:47			0	37114	0	0	0	29451	28060	165010	27137	1064090	45709	110954	0	0	8060	575266	0	0
2024-08-01 06:43:47			0	37110	0	0	0	29454	28060	164998	26956	1064081	45698	110955	0	0	8060	575425	0	0
2024-08-01 06:44:47			0	37099	0	0	0	29457	28060	165034	26930	1064162	45720	110956	0	0	8059	575864	0	0
2024-08-01 06:45:47			0	37090	0	0	0	29449	28050	165170	27189	1064117	45697	110953	0	0	8059	576256	0	0
2024-08-01 06:46:47			0	37074	0	0	0	29451	28060	165078	27029	1064108	45698	110954	0	0	8058	576862	0	0
2024-08-01 06:47:47			0	37058	0	0	0	29454	28050	165086	27142	1064045	45687	110955	0	0	8057	577534	0	0
2024-08-01 06:48:47			0	37060	0	0	0	29449	28050	165182	27258	1064126	45708	110953	0	0	8057	577454	0	0
2024-08-01 06:49:47			0	37060	0	0	0	29449	28050	165214	26656	1064099	45687	110953	0	0	8057	577454	0	0
2024-08-01 06:50:47			0	37023	0	0	0	29446	28050	165278	26826	1064099	45698	110952	0	0	8055	578934	0	0
2024-08-01 06:51:47			0	37031	0	0	0	29446	28050	165270	26833	1064099	45675	110952	0	0	8055	578614	0	0
2024-08-01 06:52:47			0	37024	0	0	0	29444	28050	165318	26585	1064072	45675	110951	0	0	8055	578894	0	0
2024-08-01 06:53:47			0	37027	0	0	0	29441	28050	165182	26852	1064090	45708	110950	0	0	8055	578774	0	0
2024-08-01 06:54:47			0	37015	0	0	0	29444	28040	165314	26972	1064081	45707	110951	0	0	8054	579288	0	0
2024-08-01 06:55:47			0	37012	0	0	0	29444	28050	165318	26941	1064117	45708	110951	0	0	8054	579375	0	0
2024-08-01 06:56:47			0	36997	0	0	0	29446	28050	165422	26896	1064063	45686	110952	0	0	8053	579975	0	0
2024-08-01 06:57:47			0	36987	0	0	0	29446	28040	165458	26972	1064045	45685	110952	0	0	8053	580410	0	0
2024-08-01 06:58:47			0	36973	0	0	0	29438	28040	165398	27112	1064018	45718	110949	0	0	8052	580971	0	0
2024-08-01 06:59:47			0	36975	0	0	0	29436	28040	165362	26913	1064027	45685	110948	0	0	8052	580891	0	0
2024-08-01 07:00:47			0	36977	0	0	0	29428	28040	165462	26654	1064027	45685	110945	0	0	8052	580811	0	0
2024-08-01 07:01:47			0	36959	0	0	0	29438	28040	165474	26724	1064108	45707	110949	0	0	8051	581533	0	0
2024-08-01 07:02:47			0	36955	0	0	0	29433	28030	165610	26734	1064009	45707	110947	0	0	8051	581727	0	0
2024-08-01 07:03:47			0	36939	0	0	0	29438	28040	165642	26620	1064054	45707	110949	0	0	8050	582337	0	0
2024-08-01 07:04:47			0	36935	0	0	0	29446	28040	165710	26706	1064108	45707	110952	0	0	8049	582498	0	0
2024-08-01 07:05:47			0	36958	0	0	0	29449	28040	165658	26866	1064081	45707	110953	0	0	8051	581573	0	0
2024-08-01 07:06:47			0	36938	0	0	0	29441	28040	165690	27164	1064099	45696	110950	0	0	8050	582377	0	0
2024-08-01 07:07:47			0	36942	0	0	0	29451	28050	165610	26788	1064063	45697	110954	0	0	8050	582183	0	0
2024-08-01 07:08:47			0	36917	0	0	0	29457	28040	165670	27024	1064054	45707	110956	0	0	8048	583221	0	0
2024-08-01 07:09:47			0	36942	0	0	0	29462	28050	165710	27078	1064045	45708	110958	0	0	8050	582183	0	0
2024-08-01 07:10:47			0	36938	0	0	0	29454	28050	165654	26838	1064063	45697	110955	0	0	8050	582343	0	0
2024-08-01 07:11:47			0	36941	0	0	0	29449	28050	165642	27154	1064063	45674	110953	0	0	8050	582223	0	0
2024-08-01 07:12:47			0	36922	0	0	0	29446	28050	165622	27095	1064036	45686	110952	0	0	8049	582987	0	0
2024-08-01 07:13:47			0	36914	0	0	0	29446	28050	165694	27046	1064117	45697	110952	0	0	8048	583308	0	0
2024-08-01 07:14:47			0	36915	0	0	0	29446	28040	165630	27334	1064108	45707	110952	0	0	8048	583302	0	0
2024-08-01 07:15:47			0	36917	0	0	0	29449	28050	165694	27055	1064090	45697	110953	0	0	8048	583188	0	0
2024-08-01 07:16:47			0	36916	0	0	0	29438	28050	165718	27196	1064099	45698	110949	0	0	8049	583228	0	0
2024-08-01 07:17:47			0	36892	0	0	0	29444	28040	165798	26767	1064135	45696	110951	0	0	8047	584228	0	0
2024-08-01 07:18:47			0	36893	0	0	0	29438	28040	165834	26913	1064072	45696	110949	0	0	8047	584187	0	0
2024-08-01 07:19:47			0	36864	0	0	0	29444	28040	166030	26961	1064072	45696	110951	0	0	8045	585356	0	0
2024-08-01 07:20:47			0	36849	0	0	0	29441	28050	166098	27166	1064063	45708	110950	0	0	8045	585927	0	0
2024-08-01 07:21:47			0	36847	0	0	0	29444	28050	166070	27055	1064063	45697	110951	0	0	8044	586008	0	0
2024-08-01 07:22:47			0	36834	0	0	0	29449	28040	166034	27000	1064081	45696	110953	0	0	8043	586567	0	0
2024-08-01 07:23:47			0	36815	0	0	0	29441	28050	166198	27062	1064009	45697	110950	0	0	8043	587301	0	0
2024-08-01 07:24:47			0	36811	0	0	0	29446	28050	166174	26691	1064090	45686	110952	0	0	8042	587462	0	0
2024-08-01 07:25:47			0	36797	0	0	0	29446	28040	166254	26942	1064054	45696	110952	0	0	8041	588062	0	0
2024-08-01 07:26:47			0	36792	0	0	0	29436	28050	166262	26887	1064099	45698	110948	0	0	8041	588231	0	0
2024-08-01 07:27:47			0	36776	0	0	0	29446	28040	166250	27149	1064045	45696	110952	0	0	8040	588912	0	0
2024-08-01 07:28:47			0	36772	0	0	0	29444	28040	166330	27124	1064054	45707	110951	0	0	8040	589074	0	0
2024-08-01 07:29:47			0	36759	0	0	0	29436	28030	166370	27182	1064000	45684	110948	0	0	8039	589635	0	0
2024-08-01 07:30:47			0	36748	0	0	0	29438	28040	166422	27060	1064054	45707	110949	0	0	8039	590047	0	0
2024-08-01 07:31:47			0	36756	0	0	0	29428	28030	166486	27201	1064027	45706	110945	0	0	8039	589757	0	0
2024-08-01 07:32:47			0	36723	0	0	0	29428	28040	166526	27057	1064045	45685	110945	0	0	8037	591061	0	0
2024-08-01 07:33:47			0	36728	0	0	0	29433	28040	166482	27149	1063991	45696	110947	0	0	8037	590858	0	0
2024-08-01 07:34:47			0	36730	0	0	0	29433	28040	166578	26831	1064045	45696	110947	0	0	8038	590777	0	0
2024-08-01 07:35:47			0	36723	0	0	0	29436	28040	166538	26901	1063991	45696	110948	0	0	8037	591061	0	0
2024-08-01 07:36:47			0	36714	0	0	0	29428	28030	166706	27029	1064027	45695	110945	0	0	8037	591461	0	0
2024-08-01 07:37:47			0	36713	0	0	0	29425	28030	166634	27246	1063973	45695	110944	0	0	8037	591501	0	0
2024-08-01 07:38:47			0	36711	0	0	0	29428	28030	166650	26934	1064063	45707	110945	0	0	8037	591583	0	0
2024-08-01 07:39:47			0	36687	0	0	0	29431	28030	166662	27045	1064000	45695	110946	0	0	8035	592558	0	0
2024-08-01 07:40:47			0	36689	0	0	0	29420	28040	166658	27041	1064018	45685	110942	0	0	8035	592443	0	0
2024-08-01 07:41:47			0	36694	0	0	0	29423	28020	166754	26816	1063964	45705	110943	0	0	8036	592308	0	0
2024-08-01 07:42:47			0	36685	0	0	0	29415	28020	166754	27071	1064045	45705	110940	0	0	8035	592673	0	0
2024-08-01 07:43:47			0	36698	0	0	0	29420	28020	166726	26981	1063955	45694	110942	0	0	8036	592145	0	0
2024-08-01 07:44:47			0	36693	0	0	0	29415	28030	166686	27308	1064009	45685	110940	0	0	8036	592314	0	0
2024-08-01 07:45:47			0	36689	0	0	0	29420	28020	166734	26994	1063901	45694	110942	0	0	8035	592511	0	0
2024-08-01 07:46:47			0	36703	0	0	0	29425	28010	166790	27015	1063892	45694	110944	0	0	8036	591976	0	0
2024-08-01 07:47:47			0	36698	0	0	0	29418	28030	166702	26987	1063946	45706	110941	0	0	8036	592111	0	0
2024-08-01 07:48:47			0	36695	0	0	0	29420	28030	166770	27157	1063946	45695	110942	0	0	8036	592233	0	0
2024-08-01 07:49:47			0	36695	0	0	0	29415	28020	166742	26908	1064009	45683	110940	0	0	8036	592267	0	0
2024-08-01 07:50:47			0	36691	0	0	0	29418	28020	166794	27293	1063928	45694	110941	0	0	8035	592429	0	0
2024-08-01 07:51:47			0	36706	0	0	0	29412	28010	166674	26981	1063892	45716	110939	0	0	8036	591854	0	0
2024-08-01 07:52:47			0	36704	0	0	0	29410	28020	166670	27145	1063955	45694	110938	0	0	8036	591901	0	0
2024-08-01 07:53:47			0	36697	0	0	0	29418	28010	166650	26856	1063892	45694	110941	0	0	8036	592220	0	0
2024-08-01 07:54:47			0	36713	0	0	0	29402	28010	166658	27254	1063838	45694	110935	0	0	8037	591570	0	0
2024-08-01 07:55:47			0	36714	0	0	0	29407	28010	166634	27100	1063883	45682	110937	0	0	8037	591529	0	0
2024-08-01 07:56:47			0	36715	0	0	0	29402	28000	166654	26960	1063847	45704	110935	0	0	8037	591522	0	0
2024-08-01 07:57:47			0	36712	0	0	0	29394	28010	166670	27161	1063919	45694	110932	0	0	8037	591610	0	0
2024-08-01 07:58:47			0	36708	0	0	0	29397	28000	166562	27010	1063892	45692	110933	0	0	8037	591807	0	0
2024-08-01 07:59:47			0	36726	0	0	0	29410	28010	166590	26984	1063892	45694	110938	0	0	8038	591042	0	0
2024-08-01 08:00:47			0	36734	0	0	0	29407	28000	166534	27104	1063874	45704	110937	0	0	8038	590751	0	0
2024-08-01 08:01:47			0	36752	0	0	0	29412	28010	166482	27187	1063910	45715	110939	0	0	8039	589987	0	0
2024-08-01 08:02:47			0	36785	0	0	0	29412	28020	166362	26967	1063964	45694	110939	0	0	8041	588616	0	0
2024-08-01 08:03:47			0	36780	0	0	0	29415	28010	166386	27168	1063973	45705	110940	0	0	8041	588852	0	0
2024-08-01 08:04:47			0	36796	0	0	0	29420	28010	166226	27022	1063937	45693	110942	0	0	8042	588205	0	0
2024-08-01 08:05:47			0	36814	0	0	0	29418	28020	166214	27026	1063982	45705	110941	0	0	8043	587443	0	0
2024-08-01 08:06:47			0	36833	0	0	0	29418	28020	166166	26817	1064009	45705	110941	0	0	8044	586675	0	0
2024-08-01 08:07:47			0	36873	0	0	0	29425	28010	166134	26883	1063919	45716	110944	0	0	8046	585094	0	0
2024-08-01 08:08:47			0	36868	0	0	0	29420	28020	166082	27123	1063982	45671	110942	0	0	8046	585262	0	0
2024-08-01 08:09:47			0	36840	0	0	0	29423	28020	166118	26911	1064009	45705	110943	0	0	8044	586392	0	0
2024-08-01 08:10:47			0	36834	0	0	0	29423	28020	166158	26930	1063982	45694	110943	0	0	8044	586635	0	0
2024-08-01 08:11:47			0	36820	0	0	0	29415	28020	166234	26680	1063910	45694	110940	0	0	8043	587200	0	0
2024-08-01 08:12:47			0	36807	0	0	0	29433	28020	166390	26937	1063982	45694	110947	0	0	8042	587726	0	0
2024-08-01 08:13:47			0	36775	0	0	0	29420	28010	166410	26984	1063973	45694	110942	0	0	8040	589055	0	0
2024-08-01 08:14:47			0	36737	0	0	0	29428	28020	166586	26930	1063991	45705	110945	0	0	8038	590561	0	0
2024-08-01 08:15:47			0	36708	0	0	0	29428	28010	166606	26786	1063973	45705	110945	0	0	8036	591773	0	0
2024-08-01 08:16:47			0	36709	0	0	0	29428	28020	166726	26757	1063991	45705	110945	0	0	8036	591698	0	0
2024-08-01 08:17:47			0	36698	0	0	0	29420	28020	166838	26748	1063955	45694	110942	0	0	8036	592145	0	0
2024-08-01 08:18:47			0	36674	0	0	0	29420	28010	166874	26949	1064000	45694	110942	0	0	8034	593155	0	0
2024-08-01 08:19:47			0	36651	0	0	0	29418	28020	166926	26939	1063964	45705	110941	0	0	8033	594057	0	0
2024-08-01 08:20:47			0	36633	0	0	0	29418	28020	166946	26892	1064009	45694	110941	0	0	8032	594791	0	0
2024-08-01 08:21:47			0	36618	0	0	0	29420	28020	167154	27024	1064009	45694	110942	0	0	8031	595403	0	0
2024-08-01 08:22:47			0	36597	0	0	0	29431	28020	167198	26755	1063964	45694	110946	0	0	8030	596260	0	0
2024-08-01 08:23:47			0	36580	0	0	0	29425	28020	167165	27088	1064018	45705	110944	0	0	8029	596955	0	0
2024-08-01 08:24:47			0	36583	0	0	0	29428	28020	167309	26923	1064045	45705	110945	0	0	8029	596832	0	0
2024-08-01 08:25:47			0	36562	0	0	0	29433	28020	167361	26807	1064009	45694	110947	0	0	8028	597691	0	0
2024-08-01 08:26:47			0	36541	0	0	0	29433	28020	167385	27053	1063991	45694	110947	0	0	8026	598550	0	0
2024-08-01 08:27:47			0	36518	0	0	0	29425	28020	167369	26946	1064009	45683	110944	0	0	8025	599492	0	0
2024-08-01 08:28:47			0	36524	0	0	0	29423	28020	167417	26873	1064036	45705	110943	0	0	8025	599247	0	0
2024-08-01 08:29:47			0	36524	0	0	0	29428	28020	167381	26783	1064018	45694	110945	0	0	8025	599247	0	0
2024-08-01 08:30:47			0	36504	0	0	0	29431	28020	167533	26876	1064018	45705	110946	0	0	8024	600066	0	0
2024-08-01 08:31:47			0	36493	0	0	0	29433	28020	167573	27017	1063982	45716	110947	0	0	8023	600518	0	0
2024-08-01 08:32:47			0	36474	0	0	0	29423	28020	167625	26637	1063955	45694	110943	0	0	8022	601298	0	0
2024-08-01 08:33:47			0	36453	0	0	0	29433	28020	167749	27123	1063991	45705	110947	0	0	8021	602161	0	0
2024-08-01 08:34:47			0	36457	0	0	0	29436	28030	167849	26805	1064054	45706	110948	0	0	8021	601962	0	0
2024-08-01 08:35:47			0	36438	0	0	0	29441	28020	167857	27043	1064045	45694	110950	0	0	8020	602778	0	0
2024-08-01 08:36:47			0	36433	0	0	0	29449	28030	167869	27170	1064108	45695	110953	0	0	8020	602949	0	0
2024-08-01 08:37:47			0	36425	0	0	0	29462	28030	167905	27156	1064054	45717	110958	0	0	8019	603278	0	0
2024-08-01 08:38:47			0	36410	0	0	0	29475	28040	167849	26942	1064072	45707	110963	0	0	8018	603861	0	0
2024-08-01 08:39:47			0	36415	0	0	0	29475	28050	167973	26937	1064233	45708	110963	0	0	8018	603620	0	0
2024-08-01 08:40:47			0	36411	0	0	0	29485	28040	167965	27059	1064269	45718	110967	0	0	8018	603820	0	0
2024-08-01 08:41:47			0	36431	0	0	0	29503	28050	168009	26870	1064314	45720	110974	0	0	8019	602962	0	0
2024-08-01 08:42:47			0	36425	0	0	0	29493	28070	167965	26823	1064287	45709	110970	0	0	8019	603139	0	0
2024-08-01 08:43:47			0	36425	0	0	0	29511	28060	167957	27130	1064359	45721	110977	0	0	8018	603174	0	0
2024-08-01 08:44:47			0	36426	0	0	0	29519	28070	167913	27192	1064377	45710	110980	0	0	8018	603098	0	0
2024-08-01 08:45:47			0	36396	0	0	0	29524	28090	167957	26757	1064404	45734	110982	0	0	8016	604264	0	0
2024-08-01 08:46:47			0	36397	0	0	0	29519	28080	168153	26864	1064449	45711	110980	0	0	8017	604257	0	0
2024-08-01 08:47:47			0	36384	0	0	0	29529	28080	168093	27131	1064422	45711	110984	0	0	8016	604793	0	0
2024-08-01 08:48:47			0	36359	0	0	0	29532	28090	168257	26937	1064431	45711	110985	0	0	8014	605790	0	0
2024-08-01 08:49:47			0	36355	0	0	0	29542	28090	168241	26767	1064413	45712	110989	0	0	8014	605955	0	0
2024-08-01 08:50:47			0	36342	0	0	0	29540	28090	168305	26819	1064494	45724	110988	0	0	8013	606492	0	0
2024-08-01 08:51:47			0	36322	0	0	0	29537	28100	168413	26944	1064502	45713	110987	0	0	8012	607284	0	0
2024-08-01 08:52:47			0	36325	0	0	0	29535	28110	168401	26918	1064538	45713	110986	0	0	8012	607125	0	0
2024-08-01 08:53:47			0	36298	0	0	0	29542	28110	168445	26530	1064592	45713	110989	0	0	8010	608242	0	0
2024-08-01 08:54:47			0	36294	0	0	0	29548	28120	168437	27007	1064502	45714	110991	0	0	8010	608372	0	0
2024-08-01 08:55:47			0	36280	0	0	0	29545	28110	168533	26693	1064547	45737	110990	0	0	8009	608987	0	0
2024-08-01 08:56:47			0	36253	0	0	0	29540	28130	168653	26861	1064574	45715	110988	0	0	8008	610036	0	0
2024-08-01 08:57:47			0	36246	0	0	0	29550	28130	168721	26908	1064547	45715	110992	0	0	8007	610327	0	0
2024-08-01 08:58:47			0	36248	0	0	0	29548	28130	168741	27034	1064664	45728	110991	0	0	8007	610244	0	0
2024-08-01 08:59:47			0	36241	0	0	0	29563	28130	168673	26668	1064637	45716	110997	0	0	8007	610534	0	0
2024-08-01 09:00:47			0	36233	0	0	0	29568	28140	168681	26583	1064655	45707	110999	0	0	8006	610831	0	0
2024-08-01 09:01:47			0	36231	0	0	0	29566	28130	168689	27064	1064664	45706	110998	0	0	8006	610950	0	0
2024-08-01 09:02:47			0	36225	0	0	0	29561	28140	168793	26916	1064709	45707	110996	0	0	8006	611163	0	0
2024-08-01 09:03:47			0	36217	0	0	0	29558	28140	168765	27033	1064601	45717	110995	0	0	8005	611496	0	0
2024-08-01 09:04:47			0	36204	0	0	0	29558	28130	168781	27034	1064655	45705	110995	0	0	8005	612071	0	0
2024-08-01 09:05:47			0	36186	0	0	0	29550	28140	168825	27215	1064655	45717	110992	0	0	8004	612785	0	0
2024-08-01 09:06:47			0	36193	0	0	0	29553	28150	168801	27135	1064691	45707	110993	0	0	8004	612458	0	0
2024-08-01 09:07:47			0	36189	0	0	0	29555	28150	168837	26927	1064637	45717	110994	0	0	8004	612625	0	0
2024-08-01 09:08:47			0	36188	0	0	0	29553	28150	168873	26927	1064664	45717	110993	0	0	8004	612666	0	0
2024-08-01 09:09:47			0	36200	0	0	0	29548	28140	168897	27007	1064646	45695	110991	0	0	8005	612202	0	0
2024-08-01 09:10:47			0	36171	0	0	0	29545	28140	168977	26920	1064628	45707	110990	0	0	8003	613409	0	0
2024-08-01 09:11:47			0	36161	0	0	0	29550	28140	168861	26902	1064655	45729	110992	0	0	8002	613826	0	0
2024-08-01 09:12:47			0	36155	0	0	0	29545	28150	169057	27064	1064637	45707	110990	0	0	8002	614040	0	0
2024-08-01 09:13:47			0	36159	0	0	0	29540	28140	168989	26942	1064601	45707	110988	0	0	8002	613909	0	0
2024-08-01 09:14:47			0	36142	0	0	0	29537	28140	169061	26927	1064574	45707	110987	0	0	8001	614618	0	0
2024-08-01 09:15:47			0	36128	0	0	0	29537	28140	169109	27092	1064565	45716	110987	0	0	8000	615202	0	0
2024-08-01 09:16:47			0	36140	0	0	0	29532	28140	169089	27086	1064628	45717	110985	0	0	8001	614701	0	0
2024-08-01 09:17:47			0	36130	0	0	0	29529	28130	169049	26597	1064556	45695	110984	0	0	8001	615154	0	0
2024-08-01 09:18:47			0	36099	0	0	0	29524	28140	169181	27031	1064538	45706	110982	0	0	7999	616413	0	0
2024-08-01 09:19:47			0	36108	0	0	0	29522	28130	169197	26965	1064547	45705	110981	0	0	7999	616072	0	0
2024-08-01 09:20:47			0	36103	0	0	0	29519	28130	169197	26948	1064574	45705	110980	0	0	7999	616281	0	0
2024-08-01 09:21:47			0	36102	0	0	0	29524	28140	169333	26571	1064619	45706	110982	0	0	7999	616287	0	0
2024-08-01 09:22:47			0	36087	0	0	0	29524	28140	169201	26998	1064538	45706	110982	0	0	7998	616914	0	0
2024-08-01 09:23:47			0	36076	0	0	0	29537	28130	169421	26897	1064574	45705	110987	0	0	7997	617410	0	0
2024-08-01 09:24:47			0	36086	0	0	0	29532	28130	169349	26906	1064610	45706	110985	0	0	7998	616992	0	0
2024-08-01 09:25:47			0	36069	0	0	0	29532	28130	169345	27163	1064583	45706	110985	0	0	7997	617703	0	0
2024-08-01 09:26:47			0	36081	0	0	0	29540	28130	169401	26866	1064610	45706	110988	0	0	7998	617201	0	0
2024-08-01 09:27:47			0	36078	0	0	0	29542	28130	169385	26838	1064610	45706	110989	0	0	7997	617327	0	0
2024-08-01 09:28:47			0	36077	0	0	0	29537	28130	169501	26859	1064601	45715	110987	0	0	7997	617368	0	0
2024-08-01 09:29:47			0	36048	0	0	0	29532	28140	169593	26925	1064592	45695	110985	0	0	7996	618547	0	0
2024-08-01 09:30:47			0	36063	0	0	0	29548	28140	169497	26920	1064655	45717	110991	0	0	7996	617918	0	0
2024-08-01 09:31:47			0	36062	0	0	0	29548	28150	169417	26778	1064610	45717	110991	0	0	7996	617925	0	0
2024-08-01 09:32:47			0	36053	0	0	0	29542	28130	169477	26710	1064610	45716	110989	0	0	7996	618373	0	0
2024-08-01 09:33:47			0	36057	0	0	0	29550	28150	169457	26967	1064727	45708	110992	0	0	7996	618134	0	0
2024-08-01 09:34:47			0	36064	0	0	0	29542	28140	169469	26946	1064619	45706	110989	0	0	7997	617877	0	0
2024-08-01 09:35:47			0	36067	0	0	0	29558	28140	169625	26871	1064646	45706	110995	0	0	7996	617751	0	0
2024-08-01 09:36:47			0	36074	0	0	0	29553	28150	169545	26687	1064664	45717	110993	0	0	7997	617422	0	0
2024-08-01 09:37:47			0	36058	0	0	0	29558	28140	169481	26937	1064628	45717	110995	0	0	7996	618128	0	0
2024-08-01 09:38:47			0	36080	0	0	0	29558	28140	169349	26741	1064592	45706	110995	0	0	7997	617207	0	0
2024-08-01 09:39:47			0	36062	0	0	0	29555	28140	169421	26856	1064709	45707	110994	0	0	7996	617960	0	0
2024-08-01 09:40:47			0	36077	0	0	0	29540	28140	169449	26909	1064682	45717	110988	0	0	7997	617333	0	0
2024-08-01 09:41:47			0	36075	0	0	0	29555	28150	169329	26811	1064664	45707	110994	0	0	7997	617381	0	0
2024-08-01 09:42:47			0	36097	0	0	0	29553	28150	169329	27007	1064718	45707	110993	0	0	7998	616461	0	0
2024-08-01 09:43:47			0	36085	0	0	0	29550	28150	169233	27119	1064691	45696	110992	0	0	7998	616962	0	0
2024-08-01 09:44:47			0	36107	0	0	0	29542	28140	169149	26942	1064655	45729	110989	0	0	7999	616079	0	0
2024-08-01 09:45:47			0	36103	0	0	0	29550	28140	169225	26981	1064682	45707	110992	0	0	7999	616246	0	0
2024-08-01 09:46:47			0	36122	0	0	0	29558	28150	169185	27100	1064664	45707	110995	0	0	8000	615417	0	0
2024-08-01 09:47:47			0	36133	0	0	0	29561	28150	169125	26731	1064673	45718	110996	0	0	8000	614958	0	0
2024-08-01 09:48:47			0	36132	0	0	0	29558	28150	168977	26745	1064807	45730	110995	0	0	8000	614999	0	0
2024-08-01 09:49:47			0	36164	0	0	0	29555	28150	168869	26979	1064691	45717	110994	0	0	8002	613665	0	0
2024-08-01 09:50:47			0	36158	0	0	0	29555	28160	168873	26854	1064664	45719	110994	0	0	8002	613880	0	0
2024-08-01 09:51:47			0	36197	0	0	0	29550	28150	168885	26977	1064700	45708	110992	0	0	8004	612292	0	0
2024-08-01 09:52:47			0	36208	0	0	0	29558	28150	168873	27003	1064700	45708	110995	0	0	8005	611834	0	0
2024-08-01 09:53:47			0	36205	0	0	0	29553	28150	168809	27048	1064700	45718	110993	0	0	8005	611959	0	0
2024-08-01 09:54:47			0	36233	0	0	0	29555	28150	168545	26975	1064754	45708	110994	0	0	8007	610796	0	0
2024-08-01 09:55:47			0	36233	0	0	0	29555	28150	168565	26774	1064754	45718	110994	0	0	8007	610796	0	0
2024-08-01 09:56:47			0	36252	0	0	0	29550	28150	168517	26602	1064727	45718	110992	0	0	8008	610008	0	0
2024-08-01 09:57:47			0	36279	0	0	0	29561	28150	168533	27112	1064673	45718	110996	0	0	8009	608888	0	0
2024-08-01 09:58:47			0	36281	0	0	0	29558	28150	168377	26916	1064727	45708	110995	0	0	8009	608805	0	0
2024-08-01 09:59:47			0	36303	0	0	0	29548	28150	168349	27043	1064664	45717	110991	0	0	8011	607894	0	0
2024-08-01 10:00:47			0	36319	0	0	0	29558	28160	168137	27008	1064763	45718	110995	0	0	8012	607198	0	0
2024-08-01 10:01:47			0	36347	0	0	0	29571	28160	168125	27234	1064745	45708	111000	0	0	8013	606041	0	0
2024-08-01 10:02:47			0	36378	0	0	0	29571	28170	168069	26883	1064781	45719	111000	0	0	8015	604727	0	0
2024-08-01 10:03:47			0	36372	0	0	0	29579	28160	168025	27090	1064745	45719	111003	0	0	8014	605009	0	0
2024-08-01 10:04:47			0	36384	0	0	0	29592	28160	167937	26944	1064745	45708	111008	0	0	8015	604514	0	0
2024-08-01 10:05:47			0	36425	0	0	0	29581	28170	167789	26915	1064844	45720	111004	0	0	8018	602791	0	0
2024-08-01 10:06:47			0	36435	0	0	0	29589	28160	167757	26939	1064799	45731	111007	0	0	8018	602414	0	0
2024-08-01 10:07:47			0	36444	0	0	0	29589	28160	167713	26812	1064880	45719	111007	0	0	8019	602044	0	0
2024-08-01 10:08:47			0	36447	0	0	0	29586	28180	167645	27036	1064888	45744	111006	0	0	8019	601852	0	0
2024-08-01 10:09:47			0	36449	0	0	0	29586	28180	167537	27012	1064960	45710	111006	0	0	8019	601769	0	0
2024-08-01 10:10:47			0	36481	0	0	0	29579	28170	167617	26864	1064924	45720	111003	0	0	8021	600490	0	0
2024-08-01 10:11:47			0	36482	0	0	0	29586	28170	167537	27031	1064897	45720	111006	0	0	8021	600449	0	0
2024-08-01 10:12:47			0	36481	0	0	0	29584	28180	167521	27137	1064853	45721	111005	0	0	8021	600456	0	0
2024-08-01 10:13:47			0	36487	0	0	0	29584	28180	167537	26840	1064799	45721	111005	0	0	8021	600210	0	0
2024-08-01 10:14:47			0	36506	0	0	0	29605	28180	167433	27067	1064969	45733	111013	0	0	8022	599431	0	0
2024-08-01 10:15:47			0	36510	0	0	0	29612	28190	167341	27135	1064951	45710	111016	0	0	8022	599232	0	0
2024-08-01 10:16:47			0	36534	0	0	0	29618	28190	167357	26937	1064951	45733	111018	0	0	8024	598250	0	0
2024-08-01 10:17:47			0	36537	0	0	0	29623	28190	167273	27008	1064924	45721	111020	0	0	8024	598127	0	0
2024-08-01 10:18:47			0	36555	0	0	0	29610	28190	167229	27201	1065005	45721	111015	0	0	8025	597391	0	0
2024-08-01 10:19:47			0	36587	0	0	0	29623	28200	167041	26802	1064978	45712	111020	0	0	8027	596049	0	0
2024-08-01 10:20:47			0	36584	0	0	0	29610	28190	167117	26684	1065041	45711	111015	0	0	8027	596206	0	0
2024-08-01 10:21:47			0	36604	0	0	0	29615	28210	166986	26824	1065077	45724	111017	0	0	8028	595321	0	0
2024-08-01 10:22:47			0	36612	0	0	0	29631	28200	166850	27090	1064996	45723	111023	0	0	8028	595029	0	0
2024-08-01 10:23:47			0	36638	0	0	0	29625	28210	166594	27022	1065068	45713	111021	0	0	8030	593935	0	0
2024-08-01 10:24:47			0	36695	0	0	0	29631	28210	166554	27090	1065077	45724	111023	0	0	8033	591618	0	0
2024-08-01 10:25:47			0	36727	0	0	0	29641	28210	166450	26769	1065068	45736	111027	0	0	8035	590319	0	0
2024-08-01 10:26:47			0	36778	0	0	0	29638	28210	166278	27024	1065041	45724	111026	0	0	8038	588254	0	0
2024-08-01 10:27:47			0	36788	0	0	0	29633	28230	166078	27039	1065158	45738	111024	0	0	8039	587782	0	0
2024-08-01 10:28:47			0	36791	0	0	0	29638	28220	165906	27059	1065149	45725	111026	0	0	8039	587694	0	0
2024-08-01 10:29:47			0	36811	0	0	0	29651	28230	165814	26996	1065185	45715	111031	0	0	8040	586852	0	0
2024-08-01 10:30:47			0	36840	0	0	0	29654	28230	165782	27170	1065211	45726	111032	0	0	8041	585682	0	0
2024-08-01 10:31:47			0	36870	0	0	0	29659	28230	165770	27026	1065193	45726	111034	0	0	8043	584473	0	0
2024-08-01 10:32:47			0	36887	0	0	0	29667	28230	165498	26625	1065247	45726	111037	0	0	8044	583788	0	0
2024-08-01 10:33:47			0	36931	0	0	0	29672	28240	165402	27022	1065158	45728	111039	0	0	8046	581986	0	0
2024-08-01 10:34:47			0	36950	0	0	0	29662	28250	165282	26897	1065274	45717	111035	0	0	8048	581190	0	0
2024-08-01 10:35:47			0	36972	0	0	0	29677	28250	165262	26738	1065274	45728	111041	0	0	8049	580308	0	0
2024-08-01 10:36:47			0	36972	0	0	0	29672	28240	165178	27097	1065238	45717	111039	0	0	8049	580341	0	0
2024-08-01 10:37:47			0	36967	0	0	0	29672	28250	165186	26916	1065247	45728	111039	0	0	8049	580508	0	0
2024-08-01 10:38:47			0	36938	0	0	0	29672	28250	165270	26998	1065274	45728	111039	0	0	8047	581671	0	0
2024-08-01 10:39:47			0	36910	0	0	0	29677	28260	165402	27024	1065265	45729	111041	0	0	8045	582762	0	0
2024-08-01 10:40:47			0	36864	0	0	0	29677	28250	165658	27251	1065283	45728	111041	0	0	8042	584647	0	0
2024-08-01 10:41:47			0	36856	0	0	0	29685	28250	165638	27150	1065283	45728	111044	0	0	8042	584969	0	0
2024-08-01 10:42:47			0	36858	0	0	0	29675	28260	165810	26927	1065238	45729	111040	0	0	8042	584855	0	0
2024-08-01 10:43:47			0	36843	0	0	0	29667	28260	165926	27196	1065328	45730	111037	0	0	8041	585459	0	0
2024-08-01 10:44:47			0	36783	0	0	0	29680	28270	166006	27133	1065427	45730	111042	0	0	8038	587848	0	0
2024-08-01 10:45:47			0	36734	0	0	0	29680	28270	166230	27177	1065337	45763	111042	0	0	8035	589831	0	0
2024-08-01 10:46:47			0	36700	0	0	0	29693	28260	166502	26979	1065355	45719	111047	0	0	8033	591244	0	0
2024-08-01 10:47:47			0	36640	0	0	0	29706	28270	166618	27015	1065400	45752	111052	0	0	8029	593648	0	0
2024-08-01 10:48:47			0	36611	0	0	0	29711	28270	166826	26989	1065454	45730	111054	0	0	8027	594829	0	0
2024-08-01 10:49:47			0	36578	0	0	0	29719	28280	167001	26998	1065436	45743	111057	0	0	8025	596141	0	0
2024-08-01 10:50:47			0	36554	0	0	0	29727	28280	167025	26953	1065472	45754	111060	0	0	8023	597121	0	0
2024-08-01 10:51:47			0	36514	0	0	0	29732	28290	167141	26963	1065508	45732	111062	0	0	8021	598722	0	0
2024-08-01 10:52:47			0	36487	0	0	0	29729	28300	167357	26859	1065562	45745	111061	0	0	8019	599794	0	0
2024-08-01 10:53:47			0	36457	0	0	0	29732	28300	167517	26932	1065553	45733	111062	0	0	8018	601024	0	0
2024-08-01 10:54:47			0	36422	0	0	0	29729	28300	167645	26932	1065616	45711	111061	0	0	8016	602462	0	0
2024-08-01 10:55:47			0	36370	0	0	0	29732	28310	167829	26661	1065625	45735	111062	0	0	8013	604567	0	0
2024-08-01 10:56:47			0	36339	0	0	0	29750	28320	168129	26889	1065643	45746	111069	0	0	8010	605811	0	0
2024-08-01 10:57:47			0	36333	0	0	0	29774	28330	168153	26769	1065688	45748	111078	0	0	8010	606024	0	0
2024-08-01 10:58:47			0	36349	0	0	0	29794	28330	168013	26875	1065795	45759	111086	0	0	8010	605363	0	0
2024-08-01 10:59:47			0	36384	0	0	0	29807	28330	167821	27090	1065831	45770	111091	0	0	8012	603921	0	0
2024-08-01 11:00:47			0	36453	0	0	0	29812	28340	167461	27064	1065903	45738	111093	0	0	8016	601049	0	0
2024-08-01 11:01:47			0	36511	0	0	0	29818	28340	167177	26852	1065876	45749	111095	0	0	8020	598672	0	0
2024-08-01 11:02:47			0	36550	0	0	0	29820	28360	166997	27036	1065876	45739	111096	0	0	8022	597008	0	0
2024-08-01 11:03:47			0	36540	0	0	0	29820	28360	167005	27135	1065966	45762	111096	0	0	8021	597417	0	0
2024-08-01 11:04:47			0	36528	0	0	0	29825	28370	167049	26587	1066038	45752	111098	0	0	8021	597873	0	0
2024-08-01 11:05:47			0	36521	0	0	0	29828	28370	167189	26805	1066065	45742	111099	0	0	8020	598159	0	0
2024-08-01 11:06:47			0	36488	0	0	0	29828	28380	167377	27152	1066056	45752	111099	0	0	8018	599476	0	0
2024-08-01 11:07:47			0	36465	0	0	0	29844	28380	167297	27112	1066029	45742	111105	0	0	8017	600418	0	0
2024-08-01 11:08:47			0	36449	0	0	0	29838	28400	167345	27164	1066029	45754	111103	0	0	8016	601005	0	0
2024-08-01 11:09:47			0	36423	0	0	0	29841	28400	167353	26533	1066217	45754	111104	0	0	8014	602073	0	0
2024-08-01 11:10:47			0	36432	0	0	0	29851	28410	167533	26923	1066227	45754	111108	0	0	8015	601668	0	0
2024-08-01 11:11:47			0	36430	0	0	0	29857	28410	167537	27062	1066209	45767	111110	0	0	8014	601750	0	0
2024-08-01 11:12:47			0	36430	0	0	0	29870	28410	167437	26890	1066182	45755	111115	0	0	8014	601750	0	0
2024-08-01 11:13:47			0	36464	0	0	0	29875	28430	167389	26984	1066262	45756	111117	0	0	8016	600286	0	0
2024-08-01 11:14:47			0	36449	0	0	0	29875	28430	167485	26946	1066325	45747	111117	0	0	8015	600901	0	0
2024-08-01 11:15:47			0	36439	0	0	0	29870	28440	167477	27095	1066370	45771	111115	0	0	8015	601277	0	0
2024-08-01 11:16:47			0	36417	0	0	0	29877	28450	167545	27000	1066379	45749	111118	0	0	8014	602145	0	0
2024-08-01 11:17:47			0	36406	0	0	0	29870	28450	167609	27227	1066460	45749	111115	0	0	8013	602597	0	0
2024-08-01 11:18:47			0	36377	0	0	0	29864	28460	167665	27227	1066397	45750	111113	0	0	8011	603755	0	0
2024-08-01 11:19:47			0	36393	0	0	0	29854	28460	167625	27072	1066370	45760	111109	0	0	8013	603097	0	0
2024-08-01 11:20:47			0	36353	0	0	0	29875	28460	167769	26819	1066397	45760	111117	0	0	8010	604744	0	0
2024-08-01 11:21:47			0	36352	0	0	0	29880	28460	167797	26925	1066487	45750	111119	0	0	8010	604785	0	0
2024-08-01 11:22:47			0	36331	0	0	0	29875	28460	167801	26949	1066460	45761	111117	0	0	8009	605651	0	0
2024-08-01 11:23:47			0	36341	0	0	0	29888	28480	167845	26760	1066541	45751	111122	0	0	8009	605168	0	0
2024-08-01 11:24:47			0	36362	0	0	0	29893	28470	167789	27039	1066505	45761	111124	0	0	8010	604338	0	0
2024-08-01 11:25:47			0	36346	0	0	0	29911	28480	167709	27076	1066550	45763	111131	0	0	8009	604962	0	0
2024-08-01 11:26:47			0	36386	0	0	0	29906	28490	167553	26892	1066666	45752	111129	0	0	8011	603280	0	0
2024-08-01 11:27:47			0	36402	0	0	0	29898	28480	167485	26927	1066550	45763	111126	0	0	8012	602657	0	0
2024-08-01 11:28:47			0	36401	0	0	0	29906	28490	167521	27149	1066613	45752	111129	0	0	8012	602663	0	0
2024-08-01 11:29:47			0	36422	0	0	0	29916	28490	167465	26932	1066595	45752	111133	0	0	8013	601800	0	0
2024-08-01 11:30:47			0	36422	0	0	0	29911	28500	167381	26989	1066603	45753	111131	0	0	8014	601766	0	0
2024-08-01 11:31:47			0	36453	0	0	0	29909	28500	167369	27223	1066603	45764	111130	0	0	8015	600494	0	0
2024-08-01 11:32:47			0	36467	0	0	0	29906	28500	167201	27131	1066657	45753	111129	0	0	8016	599920	0	0
2024-08-01 11:33:47			0	36481	0	0	0	29909	28500	167193	26694	1066603	45742	111130	0	0	8017	599346	0	0
2024-08-01 11:34:47			0	36504	0	0	0	29906	28500	166985	26896	1066657	45764	111129	0	0	8018	598405	0	0
2024-08-01 11:35:47			0	36498	0	0	0	29909	28500	167053	27085	1066603	45753	111130	0	0	8018	598650	0	0
2024-08-01 11:36:47			0	36460	0	0	0	29909	28500	167241	27034	1066666	45743	111130	0	0	8016	600207	0	0
2024-08-01 11:37:47			0	36420	0	0	0	29901	28510	167401	27189	1066603	45766	111127	0	0	8014	601813	0	0
2024-08-01 11:38:47			0	36416	0	0	0	29903	28520	167485	27159	1066720	45755	111128	0	0	8013	601942	0	0
2024-08-01 11:39:47			0	36393	0	0	0	29919	28510	167501	26981	1066684	45744	111134	0	0	8012	602922	0	0
2024-08-01 11:40:47			0	36401	0	0	0	29932	28510	167545	27171	1066738	45755	111139	0	0	8012	602594	0	0
2024-08-01 11:41:47			0	36418	0	0	0	29940	28520	167361	26956	1066720	45755	111142	0	0	8013	601860	0	0
2024-08-01 11:42:47			0	36410	0	0	0	29948	28520	167409	27369	1066783	45756	111145	0	0	8012	602189	0	0
2024-08-01 11:43:47			0	36416	0	0	0	29940	28520	167365	27119	1066783	45756	111142	0	0	8013	601942	0	0
2024-08-01 11:44:47			0	36427	0	0	0	29942	28530	167301	26849	1066846	45768	111143	0	0	8013	601456	0	0
2024-08-01 11:45:47			0	36443	0	0	0	29940	28530	167229	27022	1066855	45746	111142	0	0	8014	600799	0	0
2024-08-01 11:46:47			0	36436	0	0	0	29935	28530	167309	27098	1066855	45746	111140	0	0	8014	601087	0	0
2024-08-01 11:47:47			0	36420	0	0	0	29914	28540	167233	26916	1066864	45757	111132	0	0	8014	601709	0	0
2024-08-01 11:48:47			0	36408	0	0	0	29906	28540	167265	27057	1066765	45747	111129	0	0	8013	602201	0	0
2024-08-01 11:49:47			0	36385	0	0	0	29901	28530	167517	27131	1066738	45746	111127	0	0	8012	603182	0	0
2024-08-01 11:50:47			0	36372	0	0	0	29898	28530	167569	26908	1066738	45768	111126	0	0	8011	603717	0	0
2024-08-01 11:51:47			0	36348	0	0	0	29901	28530	167661	26937	1066738	45735	111127	0	0	8009	604705	0	0
2024-08-01 11:52:47			0	36322	0	0	0	29903	28530	167765	27104	1066747	45757	111128	0	0	8008	605777	0	0
2024-08-01 11:53:47			0	36282	0	0	0	29893	28520	167925	26902	1066720	45755	111124	0	0	8006	607464	0	0
2024-08-01 11:54:47			0	36257	0	0	0	29903	28520	168145	26965	1066693	45755	111128	0	0	8004	608498	0	0
2024-08-01 11:55:47			0	36217	0	0	0	29898	28520	168313	27071	1066693	45744	111126	0	0	8002	610154	0	0
2024-08-01 11:56:47			0	36165	0	0	0	29898	28520	168425	26965	1066720	45755	111126	0	0	7998	612313	0	0
2024-08-01 11:57:47			0	36159	0	0	0	29890	28520	168533	26783	1066720	45755	111123	0	0	7998	612562	0	0
2024-08-01 11:58:47			0	36141	0	0	0	29877	28510	168637	26944	1066675	45744	111118	0	0	7997	613347	0	0
2024-08-01 11:59:47			0	36093	0	0	0	29890	28520	168837	26889	1066693	45755	111123	0	0	7994	615311	0	0
2024-08-01 12:00:47			0	36062	0	0	0	29911	28510	168901	26882	1066738	45766	111131	0	0	7992	616640	0	0
2024-08-01 12:01:47			0	36066	0	0	0	29909	28520	169057	26986	1066720	45755	111130	0	0	7992	616438	0	0
2024-08-01 12:02:47			0	36018	0	0	0	29914	28520	169165	27124	1066720	45766	111132	0	0	7989	618444	0	0
2024-08-01 12:03:47			0	36014	0	0	0	29914	28520	169249	27033	1066720	45744	111132	0	0	7989	618612	0	0
2024-08-01 12:04:47			0	35995	0	0	0	29919	28520	169381	26908	1066729	45745	111134	0	0	7988	619408	0	0
2024-08-01 12:05:47			0	35994	0	0	0	29898	28530	169397	26977	1066738	45757	111126	0	0	7988	619414	0	0
2024-08-01 12:06:47			0	35984	0	0	0	29903	28530	169329	27145	1066711	45757	111128	0	0	7988	619833	0	0
2024-08-01 12:07:47			0	35981	0	0	0	29911	28530	169501	26920	1066738	45746	111131	0	0	7987	619959	0	0
2024-08-01 12:08:47			0	35979	0	0	0	29924	28520	169561	27104	1066675	45745	111136	0	0	7987	620079	0	0
2024-08-01 12:09:47			0	35974	0	0	0	29901	28520	169413	27092	1066720	45755	111127	0	0	7987	620288	0	0
2024-08-01 12:10:47			0	35965	0	0	0	29906	28520	169325	27159	1066729	45756	111129	0	0	7986	620666	0	0
2024-08-01 12:11:47			0	35955	0	0	0	29919	28520	169481	26942	1066702	45756	111134	0	0	7986	621086	0	0
2024-08-01 12:12:47			0	35981	0	0	0	29914	28520	169437	26689	1066810	45756	111132	0	0	7987	619995	0	0
2024-08-01 12:13:47			0	35988	0	0	0	29906	28520	169413	27008	1066783	45767	111129	0	0	7988	619701	0	0
2024-08-01 12:14:47			0	35985	0	0	0	29924	28520	169381	26831	1066756	45767	111136	0	0	7987	619827	0	0
2024-08-01 12:15:47			0	35979	0	0	0	29932	28520	169401	26892	1066774	45766	111139	0	0	7987	620079	0	0
2024-08-01 12:16:47			0	35998	0	0	0	29932	28520	169477	27112	1066783	45745	111139	0	0	7988	619282	0	0
2024-08-01 12:17:47			0	36001	0	0	0	29927	28520	169397	27137	1066756	45745	111137	0	0	7988	619156	0	0
2024-08-01 12:18:47			0	36023	0	0	0	29935	28530	169281	27254	1066792	45757	111140	0	0	7989	618200	0	0
2024-08-01 12:19:47			0	36023	0	0	0	29942	28530	169305	26946	1066882	45768	111143	0	0	7989	618200	0	0
2024-08-01 12:20:47			0	36024	0	0	0	29942	28540	169229	26644	1066981	45780	111143	0	0	7989	618122	0	0
2024-08-01 12:21:47			0	36032	0	0	0	29976	28560	169157	27177	1067008	45770	111156	0	0	7989	617716	0	0
2024-08-01 12:22:47			0	36044	0	0	0	29953	28570	169025	26519	1067026	45772	111147	0	0	7991	617178	0	0
2024-08-01 12:23:47			0	36081	0	0	0	29955	28570	168957	26885	1067089	45760	111148	0	0	7993	615633	0	0
2024-08-01 12:24:47			0	36101	0	0	0	29976	28570	168697	26913	1067080	45772	111156	0	0	7994	614799	0	0
2024-08-01 12:25:47			0	36147	0	0	0	29981	28570	168597	26930	1067116	45772	111158	0	0	7996	612884	0	0
2024-08-01 12:26:47			0	36185	0	0	0	29976	28580	168429	26800	1067152	45773	111156	0	0	7999	611270	0	0
2024-08-01 12:27:47			0	36195	0	0	0	29973	28590	168293	27131	1067170	45762	111155	0	0	7999	610820	0	0
2024-08-01 12:28:47			0	36219	0	0	0	29976	28590	168297	27220	1067205	45775	111156	0	0	8001	609824	0	0
2024-08-01 12:29:47			0	36218	0	0	0	29997	28590	168189	27053	1067205	45752	111164	0	0	8000	609866	0	0
2024-08-01 12:30:47			0	36233	0	0	0	30064	28600	168177	26892	1067277	45763	111190	0	0	8000	609209	0	0
2024-08-01 12:31:47			0	36223	0	0	0	30015	28600	168149	26746	1067358	45752	111171	0	0	8000	609623	0	0
2024-08-01 12:32:47			0	36250	0	0	0	30005	28610	168025	27059	1067349	45765	111167	0	0	8002	608470	0	0
2024-08-01 12:33:47			0	36253	0	0	0	29999	28620	168129	27053	1067358	45765	111165	0	0	8003	608311	0	0
2024-08-01 12:34:47			0	36255	0	0	0	29971	28620	168045	27154	1067331	45788	111154	0	0	8003	608228	0	0
2024-08-01 12:35:47			0	36228	0	0	0	29966	28620	168117	26911	1067340	45765	111152	0	0	8002	609346	0	0
2024-08-01 12:36:47			0	36254	0	0	0	29958	28630	168093	26871	1067295	45733	111149	0	0	8003	608234	0	0
2024-08-01 12:37:47			0	36233	0	0	0	29966	28610	168081	26901	1067295	45754	111152	0	0	8002	609174	0	0
2024-08-01 12:38:47			0	36239	0	0	0	29979	28610	168117	26986	1067268	45754	111157	0	0	8002	608925	0	0
2024-08-01 12:39:47			0	36241	0	0	0	29992	28620	168217	27104	1067232	45754	111162	0	0	8002	608807	0	0
2024-08-01 12:40:47			0	36224	0	0	0	29984	28620	168153	27118	1067277	45744	111159	0	0	8001	609511	0	0
2024-08-01 12:41:47			0	36238	0	0	0	29971	28610	168189	27156	1067214	45744	111154	0	0	8002	608967	0	0
2024-08-01 12:42:47			0	36242	0	0	0	29973	28610	168225	27057	1067187	45754	111155	0	0	8002	608801	0	0
2024-08-01 12:43:47			0	36237	0	0	0	29971	28610	168277	26724	1067205	45731	111154	0	0	8002	609008	0	0
2024-08-01 12:44:47			0	36223	0	0	0	29976	28600	168357	26868	1067196	45752	111156	0	0	8001	609623	0	0
2024-08-01 12:45:47			0	36223	0	0	0	29981	28600	168281	27220	1067187	45752	111158	0	0	8001	609623	0	0
2024-08-01 12:46:47			0	36247	0	0	0	29973	28610	168189	27128	1067151	45743	111155	0	0	8003	608594	0	0
2024-08-01 12:47:47			0	36256	0	0	0	29973	28600	168121	26616	1067196	45742	111155	0	0	8003	608257	0	0
2024-08-01 12:48:47			0	36285	0	0	0	29976	28590	168153	26993	1067125	45742	111156	0	0	8005	607094	0	0
2024-08-01 12:49:47			0	36283	0	0	0	29984	28590	167973	26734	1067152	45763	111159	0	0	8004	607176	0	0
2024-08-01 12:50:47			0	36301	0	0	0	30002	28610	168005	26840	1067232	45753	111166	0	0	8005	606363	0	0
2024-08-01 12:51:47			0	36299	0	0	0	30057	28600	167977	26840	1067358	45786	111187	0	0	8004	606480	0	0
2024-08-01 12:52:47			0	36320	0	0	0	30083	28610	167957	27059	1067430	45777	111197	0	0	8005	605579	0	0
2024-08-01 12:53:47			0	36315	0	0	0	30057	28640	167877	26982	1067484	45802	111187	0	0	8005	605680	0	0
2024-08-01 12:54:47			0	36355	0	0	0	29997	28640	167669	26795	1067430	45768	111164	0	0	8009	604032	0	0
2024-08-01 12:55:47			0	36391	0	0	0	29984	28620	167513	26726	1067331	45744	111159	0	0	8011	602621	0	0
2024-08-01 12:56:47			0	36400	0	0	0	29961	28620	167521	26896	1067286	45754	111150	0	0	8012	602251	0	0
2024-08-01 12:57:47			0	36395	0	0	0	29979	28620	167465	27118	1067250	45765	111157	0	0	8011	602457	0	0
2024-08-01 12:58:47			0	36367	0	0	0	29999	28620	167661	26979	1067223	45744	111165	0	0	8009	603608	0	0
2024-08-01 12:59:47			0	36360	0	0	0	30023	28610	167801	27093	1067322	45765	111174	0	0	8008	603931	0	0
2024-08-01 13:00:47			0	36340	0	0	0	30051	28630	167789	26902	1067385	45767	111185	0	0	8007	604684	0	0
2024-08-01 13:01:47			0	36340	0	0	0	30051	28630	167757	26741	1067457	45766	111185	0	0	8007	604684	0	0
2024-08-01 13:02:47			0	36325	0	0	0	30031	28650	167889	26866	1067493	45757	111177	0	0	8006	605232	0	0
2024-08-01 13:03:47			0	36353	0	0	0	30059	28650	167933	27119	1067412	45768	111188	0	0	8008	604079	0	0
2024-08-01 13:04:47			0	36309	0	0	0	30075	28650	167945	26951	1067466	45768	111194	0	0	8005	605892	0	0
2024-08-01 13:05:47			0	36325	0	0	0	30085	28650	167877	27255	1067601	45768	111198	0	0	8006	605232	0	0
2024-08-01 13:06:47			0	36352	0	0	0	30077	28660	167917	26984	1067628	45759	111195	0	0	8007	604085	0	0
2024-08-01 13:07:47			0	36370	0	0	0	30077	28650	167665	27300	1067637	45769	111195	0	0	8008	603380	0	0
2024-08-01 13:08:47			0	36403	0	0	0	30142	28660	167597	27189	1067709	45792	111220	0	0	8009	601989	0	0
2024-08-01 13:09:47			0	36388	0	0	0	30212	28700	167565	27341	1067924	45807	111247	0	0	8007	602465	0	0
2024-08-01 13:10:47			0	36406	0	0	0	30205	28720	167537	27015	1067987	45809	111244	0	0	8009	601656	0	0
2024-08-01 13:11:47			0	36447	0	0	0	30184	28730	167353	27189	1068014	45799	111236	0	0	8012	599940	0	0
2024-08-01 13:12:47			0	36510	0	0	0	30153	28730	167133	27369	1068014	45777	111224	0	0	8016	597364	0	0
2024-08-01 13:13:47			0	36526	0	0	0	30137	28740	166901	27178	1067969	45766	111218	0	0	8017	596676	0	0
2024-08-01 13:14:47			0	36563	0	0	0	30140	28730	166721	27159	1067960	45766	111219	0	0	8019	595202	0	0
2024-08-01 13:15:47			0	36579	0	0	0	30129	28740	166809	27258	1067915	45766	111215	0	0	8020	594516	0	0
2024-08-01 13:16:47			0	36594	0	0	0	30132	28740	166806	27166	1068077	45744	111216	0	0	8021	593905	0	0
2024-08-01 13:17:47			0	36591	0	0	0	30129	28730	166721	26944	1067897	45753	111215	0	0	8021	594062	0	0
2024-08-01 13:18:47			0	36581	0	0	0	30142	28730	166601	27119	1067897	45753	111220	0	0	8020	594469	0	0
2024-08-01 13:19:47			0	36544	0	0	0	30140	28740	166749	27235	1067978	45778	111219	0	0	8018	595942	0	0
2024-08-01 13:20:47			0	36552	0	0	0	30155	28740	166889	27298	1067924	45790	111225	0	0	8018	595616	0	0
2024-08-01 13:21:47			0	36530	0	0	0	30161	28750	166849	27346	1067960	45767	111227	0	0	8017	596478	0	0
2024-08-01 13:22:47			0	36518	0	0	0	30155	28750	166941	26967	1067987	45767	111225	0	0	8016	596968	0	0
2024-08-01 13:23:47			0	36523	0	0	0	30174	28750	166937	26986	1068041	45778	111232	0	0	8016	596764	0	0
2024-08-01 13:24:47			0	36511	0	0	0	30168	28750	166981	26901	1068077	45791	111230	0	0	8016	597254	0	0
2024-08-01 13:25:47			0	36498	0	0	0	30168	28750	166961	26802	1068077	45779	111230	0	0	8015	597785	0	0
2024-08-01 13:26:47			0	36488	0	0	0	30163	28760	166993	26566	1068095	45791	111228	0	0	8014	598159	0	0
2024-08-01 13:27:47			0	36489	0	0	0	30166	28760	166953	26944	1068113	45769	111229	0	0	8014	598118	0	0
2024-08-01 13:28:47			0	36485	0	0	0	30186	28760	166925	27015	1068149	45769	111237	0	0	8014	598281	0	0
2024-08-01 13:29:47			0	36493	0	0	0	30166	28770	166961	26637	1068140	45781	111229	0	0	8015	597920	0	0
2024-08-01 13:30:47			0	36494	0	0	0	30135	28770	166913	26844	1068140	45770	111217	0	0	8015	597879	0	0
2024-08-01 13:31:47			0	36482	0	0	0	30129	28760	166881	26937	1068014	45757	111215	0	0	8015	598404	0	0
2024-08-01 13:32:47			0	36478	0	0	0	30116	28760	166993	27086	1068059	45769	111210	0	0	8015	598567	0	0
2024-08-01 13:33:47			0	36502	0	0	0	30122	28760	167069	27034	1067951	45769	111212	0	0	8016	597587	0	0
2024-08-01 13:34:47			0	36490	0	0	0	30127	28760	167045	26764	1068032	45757	111214	0	0	8015	598077	0	0
2024-08-01 13:35:47			0	36477	0	0	0	30132	28760	167093	27152	1068095	45769	111216	0	0	8014	598608	0	0
2024-08-01 13:36:47			0	36483	0	0	0	30137	28760	167141	27204	1068041	45757	111218	0	0	8015	598363	0	0
2024-08-01 13:37:47			0	36471	0	0	0	30132	28760	167101	27059	1068068	45769	111216	0	0	8014	598854	0	0
2024-08-01 13:38:47			0	36472	0	0	0	30137	28760	167157	27098	1068032	45780	111218	0	0	8014	598813	0	0
2024-08-01 13:39:47			0	36460	0	0	0	30127	28760	167117	26927	1068032	45769	111214	0	0	8013	599304	0	0
2024-08-01 13:40:47			0	36454	0	0	0	30135	28750	167045	27251	1067969	45756	111217	0	0	8013	599584	0	0
2024-08-01 13:41:47			0	36477	0	0	0	30142	28760	167085	27187	1068059	45769	111220	0	0	8014	598608	0	0
2024-08-01 13:42:47			0	36467	0	0	0	30137	28750	167101	27341	1068014	45778	111218	0	0	8014	599052	0	0
2024-08-01 13:43:47			0	36492	0	0	0	30140	28760	167049	26845	1068068	45780	111219	0	0	8015	597995	0	0
2024-08-01 13:44:47			0	36491	0	0	0	30140	28760	166937	27039	1068041	45769	111219	0	0	8015	598036	0	0
2024-08-01 13:45:47			0	36508	0	0	0	30155	28760	166921	27234	1068095	45780	111225	0	0	8016	597342	0	0
2024-08-01 13:46:47			0	36515	0	0	0	30148	28760	166913	27201	1068095	45769	111222	0	0	8016	597056	0	0
2024-08-01 13:47:47			0	36516	0	0	0	30145	28770	166973	26698	1068023	45780	111221	0	0	8016	596980	0	0
2024-08-01 13:48:47			0	36559	0	0	0	30155	28750	166873	26951	1068077	45779	111225	0	0	8019	595296	0	0
2024-08-01 13:49:47			0	36550	0	0	0	30158	28750	166757	26911	1068050	45791	111226	0	0	8018	595663	0	0
2024-08-01 13:50:47			0	36543	0	0	0	30158	28770	166737	26998	1068023	45780	111226	0	0	8018	595879	0	0
2024-08-01 13:51:47			0	36561	0	0	0	30155	28770	166589	27093	1068104	45769	111225	0	0	8019	595145	0	0
2024-08-01 13:52:47			0	36571	0	0	0	30145	28770	166521	27100	1068050	45769	111221	0	0	8020	594738	0	0
2024-08-01 13:53:47			0	36583	0	0	0	30132	28760	166537	27008	1068041	45780	111216	0	0	8021	594284	0	0
2024-08-01 13:54:47			0	36602	0	0	0	30137	28770	166454	26909	1068158	45769	111218	0	0	8022	593477	0	0
2024-08-01 13:55:47			0	36612	0	0	0	30137	28760	166486	26693	1068041	45769	111218	0	0	8022	593105	0	0
2024-08-01 13:56:47			0	36595	0	0	0	30132	28760	166498	27078	1068041	45769	111216	0	0	8021	593796	0	0
2024-08-01 13:57:47			0	36603	0	0	0	30135	28760	166434	26798	1068122	45769	111217	0	0	8022	593471	0	0
2024-08-01 13:58:47			0	36590	0	0	0	30140	28770	166517	26856	1068077	45780	111219	0	0	8021	593965	0	0
2024-08-01 13:59:47			0	36611	0	0	0	30140	28760	166458	26741	1068068	45780	111219	0	0	8022	593146	0	0
2024-08-01 14:00:47			0	36620	0	0	0	30140	28760	166454	27140	1068059	45769	111219	0	0	8023	592780	0	0
2024-08-01 14:01:47			0	36585	0	0	0	30150	28760	166453	27029	1068032	45780	111223	0	0	8020	594203	0	0
2024-08-01 14:02:47			0	36577	0	0	0	30189	28760	166517	26805	1068176	45769	111238	0	0	8019	594528	0	0
2024-08-01 14:03:47			0	36611	0	0	0	30210	28770	166514	27083	1068167	45781	111246	0	0	8021	593111	0	0
2024-08-01 14:04:47			0	36610	0	0	0	30215	28780	166498	27065	1068257	45804	111248	0	0	8021	593117	0	0
2024-08-01 14:05:47			0	36647	0	0	0	30194	28780	166214	26715	1068293	45793	111240	0	0	8023	591615	0	0
2024-08-01 14:06:47			0	36710	0	0	0	30179	28780	166010	26901	1068284	45782	111234	0	0	8027	589063	0	0
2024-08-01 14:07:47			0	36729	0	0	0	30174	28790	165946	27185	1068248	45783	111232	0	0	8029	588261	0	0
2024-08-01 14:08:47			0	36725	0	0	0	30184	28790	165886	26975	1068302	45783	111236	0	0	8028	588423	0	0
2024-08-01 14:09:47			0	36747	0	0	0	30192	28780	165898	26974	1068293	45782	111239	0	0	8029	587568	0	0
2024-08-01 14:10:47			0	36749	0	0	0	30176	28800	165806	27190	1068275	45773	111233	0	0	8030	587419	0	0
2024-08-01 14:11:47			0	36719	0	0	0	30174	28780	165938	27154	1068239	45759	111232	0	0	8028	588699	0	0
2024-08-01 14:12:47			0	36722	0	0	0	30184	28790	165946	27050	1068257	45783	111236	0	0	8028	588544	0	0
2024-08-01 14:13:47			0	36717	0	0	0	30192	28790	166106	26850	1068230	45794	111239	0	0	8028	588746	0	0
2024-08-01 14:14:47			0	36698	0	0	0	30192	28800	166046	27229	1068347	45773	111239	0	0	8027	589480	0	0
2024-08-01 14:15:47			0	36715	0	0	0	30218	28800	165978	26781	1068347	45795	111249	0	0	8027	588793	0	0
2024-08-01 14:16:47			0	36733	0	0	0	30238	28810	165990	27163	1068482	45807	111257	0	0	8028	588031	0	0
2024-08-01 14:17:47			0	36758	0	0	0	30262	28820	165842	27057	1068464	45786	111266	0	0	8029	586988	0	0
2024-08-01 14:18:47			0	36801	0	0	0	30264	28820	165630	26986	1068527	45797	111267	0	0	8032	585255	0	0
2024-08-01 14:19:47			0	36850	0	0	0	30246	28840	165366	26717	1068527	45798	111260	0	0	8035	583217	0	0
2024-08-01 14:20:47			0	36903	0	0	0	30205	28830	165126	26887	1068509	45787	111244	0	0	8039	581124	0	0
2024-08-01 14:21:47			0	36929	0	0	0	30205	28840	164970	26833	1068500	45754	111244	0	0	8040	580049	0	0
2024-08-01 14:22:47			0	36897	0	0	0	30241	28840	165162	26887	1068473	45788	111258	0	0	8038	581331	0	0
2024-08-01 14:23:47			0	36887	0	0	0	30249	28840	165202	27192	1068554	45788	111261	0	0	8037	581732	0	0
2024-08-01 14:24:47			0	36876	0	0	0	30241	28830	165306	27133	1068464	45776	111258	0	0	8036	582207	0	0
2024-08-01 14:25:47			0	36869	0	0	0	30220	28830	165310	26897	1068491	45776	111250	0	0	8036	582487	0	0
2024-08-01 14:26:47			0	36852	0	0	0	30223	28840	165370	27098	1068554	45788	111251	0	0	8035	583136	0	0
2024-08-01 14:27:47			0	36836	0	0	0	30218	28840	165410	26739	1068527	45777	111249	0	0	8034	583779	0	0
2024-08-01 14:28:47			0	36830	0	0	0	30220	28840	165450	27202	1068527	45777	111250	0	0	8034	584020	0	0
2024-08-01 14:29:47			0	36823	0	0	0	30238	28840	165530	27199	1068509	45766	111257	0	0	8033	584302	0	0
2024-08-01 14:30:47			0	36827	0	0	0	30236	28840	165566	27194	1068527	45765	111256	0	0	8034	584141	0	0
2024-08-01 14:31:47			0	36782	0	0	0	30215	28840	165590	27145	1068500	45777	111248	0	0	8031	585952	0	0
2024-08-01 14:32:47			0	36773	0	0	0	30212	28840	165646	26811	1068509	45778	111247	0	0	8031	586315	0	0
2024-08-01 14:33:47			0	36770	0	0	0	30225	28840	165690	27093	1068446	45754	111252	0	0	8030	586436	0	0
2024-08-01 14:34:47			0	36753	0	0	0	30231	28840	165790	26823	1068500	45788	111254	0	0	8029	587122	0	0
2024-08-01 14:35:47			0	36747	0	0	0	30228	28840	165854	26814	1068509	45778	111253	0	0	8029	587364	0	0
2024-08-01 14:36:47			0	36774	0	0	0	30223	28840	165670	27123	1068535	45778	111251	0	0	8031	586275	0	0
2024-08-01 14:37:47			0	36762	0	0	0	30223	28840	165634	27024	1068535	45789	111251	0	0	8030	586759	0	0
2024-08-01 14:38:47			0	36745	0	0	0	30283	28850	165762	27201	1068634	45789	111274	0	0	8028	587411	0	0
2024-08-01 14:39:47			0	36740	0	0	0	30311	28850	165914	26981	1068688	45799	111285	0	0	8027	587612	0	0
2024-08-01 14:40:47			0	36753	0	0	0	30275	28860	165578	26772	1068733	45791	111271	0	0	8029	587054	0	0
2024-08-01 14:41:47			0	36804	0	0	0	30228	28870	165558	26927	1068607	45780	111253	0	0	8033	584964	0	0
2024-08-01 14:42:47			0	36790	0	0	0	30309	28870	165538	26687	1068688	45780	111284	0	0	8030	585528	0	0
2024-08-01 14:43:47			0	36778	0	0	0	30251	28870	165566	26960	1068688	45780	111262	0	0	8031	586012	0	0
2024-08-01 14:44:47			0	36762	0	0	0	30283	28870	165646	26849	1068715	45780	111274	0	0	8029	586657	0	0
2024-08-01 14:45:47			0	36753	0	0	0	30251	28860	165822	27036	1068724	45790	111262	0	0	8029	587054	0	0
2024-08-01 14:46:47			0	36732	0	0	0	30228	28880	165846	26871	1068572	45758	111253	0	0	8028	587833	0	0
2024-08-01 14:47:47			0	36723	0	0	0	30280	28860	165866	27085	1068652	45768	111273	0	0	8027	588265	0	0
2024-08-01 14:48:47			0	36680	0	0	0	30293	28870	165998	26901	1068742	45791	111278	0	0	8024	589970	0	0
2024-08-01 14:49:47			0	36679	0	0	0	30348	28880	166062	27038	1068850	45803	111299	0	0	8023	589976	0	0
2024-08-01 14:50:47			0	36688	0	0	0	30361	28890	165942	26916	1068940	45804	111304	0	0	8024	589578	0	0
2024-08-01 14:51:47			0	36718	0	0	0	30366	28900	165862	27171	1068995	45828	111306	0	0	8025	588331	0	0
2024-08-01 14:52:47			0	36763	0	0	0	30342	28910	165782	27123	1069030	45818	111297	0	0	8028	586480	0	0
2024-08-01 14:53:47			0	36763	0	0	0	30288	28910	165618	26993	1069039	45795	111276	0	0	8029	586480	0	0
2024-08-01 14:54:47			0	36765	0	0	0	30262	28920	165642	26859	1068896	45785	111266	0	0	8030	586366	0	0
2024-08-01 14:55:47			0	36743	0	0	0	30293	28910	165694	26890	1068905	45784	111278	0	0	8028	587287	0	0
2024-08-01 14:56:47			0	36719	0	0	0	30322	28910	165754	26967	1068905	45773	111289	0	0	8026	588256	0	0
2024-08-01 14:57:47			0	36710	0	0	0	30309	28920	165782	27046	1069030	45807	111284	0	0	8026	588586	0	0
2024-08-01 14:58:47			0	36707	0	0	0	30316	28930	165890	27112	1069102	45808	111287	0	0	8026	588673	0	0
2024-08-01 14:59:47			0	36698	0	0	0	30345	28930	165894	27041	1069066	45808	111298	0	0	8025	589036	0	0
2024-08-01 15:00:47			0	36687	0	0	0	30350	28930	165926	26889	1069102	45797	111300	0	0	8024	589481	0	0
2024-08-01 15:01:47			0	36687	0	0	0	30296	28940	165854	26906	1069039	45787	111279	0	0	8025	589447	0	0
2024-08-01 15:02:47			0	36711	0	0	0	30259	28930	165894	26975	1068994	45775	111265	0	0	8027	588511	0	0
2024-08-01 15:03:47			0	36702	0	0	0	30249	28930	165862	27017	1068860	45775	111261	0	0	8027	588875	0	0
2024-08-01 15:04:47			0	36721	0	0	0	30218	28920	165866	26928	1068815	45774	111249	0	0	8028	588141	0	0
2024-08-01 15:05:47			0	36714	0	0	0	30241	28900	165982	26530	1068779	45783	111258	0	0	8027	588492	0	0
2024-08-01 15:06:47			0	36720	0	0	0	30283	28910	165894	26965	1068842	45773	111274	0	0	8027	588216	0	0
2024-08-01 15:07:47			0	36712	0	0	0	30306	28910	165942	26660	1068950	45784	111283	0	0	8026	588539	0	0
2024-08-01 15:08:47			0	36723	0	0	0	30296	28920	165926	26835	1068995	45795	111279	0	0	8027	588060	0	0
2024-08-01 15:09:47			0	36708	0	0	0	30301	28920	165850	26842	1068968	45806	111281	0	0	8026	588666	0	0
2024-08-01 15:10:47			0	36711	0	0	0	30311	28930	165874	26965	1069012	45797	111285	0	0	8026	588511	0	0
2024-08-01 15:11:47			0	36718	0	0	0	30314	28930	165834	26871	1068986	45786	111286	0	0	8026	588228	0	0
2024-08-01 15:12:47			0	36750	0	0	0	30319	28930	165798	26870	1069012	45786	111288	0	0	8028	586936	0	0
2024-08-01 15:13:47			0	36733	0	0	0	30309	28930	165746	26830	1069048	45786	111284	0	0	8027	587622	0	0
2024-08-01 15:14:47			0	36740	0	0	0	30301	28940	165778	26847	1069057	45786	111281	0	0	8028	587306	0	0
2024-08-01 15:15:47			0	36731	0	0	0	30314	28940	165734	26625	1069093	45776	111286	0	0	8027	587669	0	0
2024-08-01 15:16:47			0	36755	0	0	0	30342	28940	165722	26625	1069066	45787	111297	0	0	8028	586701	0	0
2024-08-01 15:17:47			0	36751	0	0	0	30348	28950	165670	26733	1069129	45788	111299	0	0	8028	586828	0	0
2024-08-01 15:18:47			0	36768	0	0	0	30337	28950	165610	26462	1069165	45800	111295	0	0	8029	586143	0	0
2024-08-01 15:19:47			0	36795	0	0	0	30350	28950	165510	26778	1069138	45800	111300	0	0	8030	585055	0	0
2024-08-01 15:20:47			0	36806	0	0	0	30358	28970	165594	26705	1069156	45789	111303	0	0	8031	584545	0	0
2024-08-01 15:21:47			0	36812	0	0	0	30361	28960	165370	26752	1069174	45789	111304	0	0	8031	584338	0	0
2024-08-01 15:22:47			0	36839	0	0	0	30342	28970	165306	26649	1069183	45778	111297	0	0	8033	583219	0	0
2024-08-01 15:23:47			0	36849	0	0	0	30361	28960	165310	26543	1069174	45800	111304	0	0	8033	582851	0	0
2024-08-01 15:24:47			0	36851	0	0	0	30353	28980	165262	26830	1069255	45813	111301	0	0	8034	582703	0	0
2024-08-01 15:25:47			0	36868	0	0	0	30355	28970	165094	26746	1069246	45790	111302	0	0	8035	582055	0	0
2024-08-01 15:26:47			0	36873	0	0	0	30355	28970	165130	26785	1069219	45790	111302	0	0	8035	581854	0	0
2024-08-01 15:27:47			0	36857	0	0	0	30348	28980	165146	26585	1069309	45813	111299	0	0	8034	582462	0	0
2024-08-01 15:28:47			0	36851	0	0	0	30348	28980	165186	26689	1069318	45802	111299	0	0	8034	582703	0	0
2024-08-01 15:29:47			0	36856	0	0	0	30342	28990	165186	26719	1069309	45791	111297	0	0	8034	582469	0	0
2024-08-01 15:30:47			0	36855	0	0	0	30361	28980	165126	26811	1069345	45791	111304	0	0	8034	582543	0	0
2024-08-01 15:31:47			0	36852	0	0	0	30361	28990	165206	26873	1069336	45781	111304	0	0	8034	582629	0	0
2024-08-01 15:32:47			0	36842	0	0	0	30348	28990	165182	27124	1069273	45791	111299	0	0	8033	583031	0	0
2024-08-01 15:33:47			0	36862	0	0	0	30353	28990	165202	26679	1069246	45791	111301	0	0	8034	582228	0	0
2024-08-01 15:34:47			0	36863	0	0	0	30355	28990	165214	27010	1069246	45791	111302	0	0	8034	582188	0	0
2024-08-01 15:35:47			0	36868	0	0	0	30358	28990	165202	26953	1069300	45813	111303	0	0	8035	581987	0	0
2024-08-01 15:36:47			0	36874	0	0	0	30376	28990	165110	26970	1069336	45791	111310	0	0	8035	581747	0	0
2024-08-01 15:37:47			0	36867	0	0	0	30373	28990	165078	27057	1069300	45768	111309	0	0	8034	582028	0	0
2024-08-01 15:38:47			0	36850	0	0	0	30394	29000	165098	26786	1069345	45804	111317	0	0	8033	582676	0	0
2024-08-01 15:39:47			0	36864	0	0	0	30402	28990	165102	26753	1069417	45803	111320	0	0	8034	582148	0	0
2024-08-01 15:40:47			0	36895	0	0	0	30397	29010	165034	26750	1069453	45783	111318	0	0	8036	580838	0	0
2024-08-01 15:41:47			0	36892	0	0	0	30402	29000	165082	27003	1069435	45815	111320	0	0	8035	580992	0	0
2024-08-01 15:42:47			0	36928	0	0	0	30397	29010	164914	27105	1069534	45805	111318	0	0	8038	579517	0	0
2024-08-01 15:43:47			0	36926	0	0	0	30394	29020	164810	26609	1069498	45818	111317	0	0	8038	579564	0	0
2024-08-01 15:44:47			0	36926	0	0	0	30381	29020	164846	26817	1069462	45794	111312	0	0	8038	579564	0	0
2024-08-01 15:45:47			0	36947	0	0	0	30373	29020	164758	27111	1069417	45762	111309	0	0	8039	578725	0	0
2024-08-01 15:46:47			0	36938	0	0	0	30386	29010	164794	26779	1069363	45792	111314	0	0	8038	579118	0	0
2024-08-01 15:47:47			0	36928	0	0	0	30384	29020	164838	26684	1069462	45794	111313	0	0	8038	579484	0	0
2024-08-01 15:48:47			0	36916	0	0	0	30368	29020	164890	26916	1069435	45794	111307	0	0	8038	579964	0	0
2024-08-01 15:49:47			0	36890	0	0	0	30376	29010	165042	26672	1069363	45782	111310	0	0	8036	581038	0	0
2024-08-01 15:50:47			0	36888	0	0	0	30371	29010	165098	26906	1069390	45792	111308	0	0	8036	581118	0	0
2024-08-01 15:51:47			0	36873	0	0	0	30389	29000	164982	26882	1069408	45804	111315	0	0	8035	581753	0	0
2024-08-01 15:52:47			0	36901	0	0	0	30431	29010	165102	27183	1069480	45805	111331	0	0	8036	580598	0	0
2024-08-01 15:53:47			0	36894	0	0	0	30470	29020	165054	26710	1069552	45818	111346	0	0	8034	580844	0	0
2024-08-01 15:54:47			0	36917	0	0	0	30436	29030	164982	26689	1069642	45829	111333	0	0	8036	579890	0	0
2024-08-01 15:55:47			0	36910	0	0	0	30462	29050	164974	26656	1069732	45809	111343	0	0	8036	580103	0	0
2024-08-01 15:56:47			0	36904	0	0	0	30436	29050	165026	26859	1069705	45809	111333	0	0	8036	580343	0	0
2024-08-01 15:57:47			0	36916	0	0	0	30459	29050	164938	26680	1069714	45787	111342	0	0	8036	579863	0	0
2024-08-01 15:58:47			0	36909	0	0	0	30438	29050	164982	27041	1069741	45820	111334	0	0	8036	580143	0	0
2024-08-01 15:59:47			0	36913	0	0	0	30454	29060	164958	26821	1069759	45811	111340	0	0	8036	579949	0	0
2024-08-01 16:00:47			0	36908	0	0	0	30467	29060	164874	26972	1069786	45789	111345	0	0	8036	580149	0	0
2024-08-01 16:01:47			0	36935	0	0	0	30467	29070	164822	26776	1069777	45811	111345	0	0	8037	579036	0	0
2024-08-01 16:02:47			0	36965	0	0	0	30464	29070	164822	27137	1069831	45822	111344	0	0	8039	577838	0	0
2024-08-01 16:03:47			0	36953	0	0	0	30457	29080	164790	27183	1069822	45813	111341	0	0	8038	578284	0	0
2024-08-01 16:04:47			0	36971	0	0	0	30449	29080	164734	26788	1069867	45800	111338	0	0	8040	577565	0	0
2024-08-01 16:05:47			0	36984	0	0	0	30451	29090	164718	27119	1069885	45814	111339	0	0	8040	577013	0	0
2024-08-01 16:06:47			0	36948	0	0	0	30480	29090	164742	27003	1069885	45802	111350	0	0	8038	578449	0	0
2024-08-01 16:07:47			0	36955	0	0	0	30490	29090	164722	27111	1069921	45802	111354	0	0	8038	578170	0	0
2024-08-01 16:08:47			0	36962	0	0	0	30459	29080	164730	27027	1069903	45801	111342	0	0	8039	577924	0	0
2024-08-01 16:09:47			0	36950	0	0	0	30449	29090	164690	26986	1069921	45802	111338	0	0	8038	578370	0	0
2024-08-01 16:10:47			0	36949	0	0	0	30509	29090	164734	26955	1069948	45802	111361	0	0	8037	578410	0	0
2024-08-01 16:11:47			0	36948	0	0	0	30529	29100	164870	26991	1069966	45815	111369	0	0	8037	578416	0	0
2024-08-01 16:12:47			0	36971	0	0	0	30509	29110	164714	26941	1070002	45804	111361	0	0	8039	577465	0	0
2024-08-01 16:13:47			0	36949	0	0	0	30527	29120	164778	27076	1070074	45815	111368	0	0	8037	578309	0	0
2024-08-01 16:14:47			0	36955	0	0	0	30545	29110	164730	26882	1070145	45815	111375	0	0	8037	578103	0	0
2024-08-01 16:15:47			0	36948	0	0	0	30532	29120	164794	27041	1070163	45805	111370	0	0	8037	578349	0	0
2024-08-01 16:16:47			0	36954	0	0	0	30548	29120	164762	26930	1070136	45816	111376	0	0	8037	578109	0	0
2024-08-01 16:17:47			0	36952	0	0	0	30542	29130	164682	27010	1070154	45806	111374	0	0	8037	578156	0	0
2024-08-01 16:18:47			0	36976	0	0	0	30555	29140	164662	26934	1070217	45806	111379	0	0	8038	577165	0	0
2024-08-01 16:19:47			0	36971	0	0	0	30550	29140	164654	27090	1070190	45817	111377	0	0	8038	577364	0	0
2024-08-01 16:20:47			0	36967	0	0	0	30555	29150	164670	26821	1070236	45819	111379	0	0	8038	577490	0	0
2024-08-01 16:21:47			0	36972	0	0	0	30568	29140	164582	27012	1070226	45807	111384	0	0	8038	577324	0	0
2024-08-01 16:22:47			0	36993	0	0	0	30574	29140	164622	26736	1070280	45830	111386	0	0	8039	576487	0	0
2024-08-01 16:23:47			0	36985	0	0	0	30568	29160	164454	26644	1070281	45832	111384	0	0	8039	576739	0	0
2024-08-01 16:24:47			0	36989	0	0	0	30561	29160	164422	26968	1070335	45820	111381	0	0	8039	576580	0	0
2024-08-01 16:25:47			0	36964	0	0	0	30563	29170	164522	26760	1070335	45822	111382	0	0	8038	577543	0	0
2024-08-01 16:26:47			0	36967	0	0	0	30563	29170	164566	26703	1070407	45810	111382	0	0	8038	577423	0	0
2024-08-01 16:27:47			0	36986	0	0	0	30558	29170	164582	26791	1070380	45810	111380	0	0	8039	576666	0	0
2024-08-01 16:28:47			0	36962	0	0	0	30571	29170	164598	26821	1070362	45811	111385	0	0	8037	577622	0	0
2024-08-01 16:29:47			0	36973	0	0	0	30579	29170	164550	27111	1070389	45811	111388	0	0	8038	577184	0	0
2024-08-01 16:30:47			0	36960	0	0	0	30571	29170	164586	27088	1070353	45810	111385	0	0	8037	577702	0	0
2024-08-01 16:31:47			0	36957	0	0	0	30581	29180	164558	26986	1070452	45811	111389	0	0	8037	577788	0	0
2024-08-01 16:32:47			0	36952	0	0	0	30579	29170	164630	26994	1070416	45822	111388	0	0	8037	578021	0	0
2024-08-01 16:33:47			0	36939	0	0	0	30571	29180	164626	27066	1070425	45800	111385	0	0	8036	578507	0	0
2024-08-01 16:34:47			0	36956	0	0	0	30561	29190	164714	26824	1070443	45812	111381	0	0	8037	577795	0	0
2024-08-01 16:35:47			0	36950	0	0	0	30568	29190	164594	27230	1070497	45823	111384	0	0	8037	578034	0	0
2024-08-01 16:36:47			0	36937	0	0	0	30576	29190	164706	26731	1070425	45824	111387	0	0	8036	578553	0	0
2024-08-01 16:37:47			0	36923	0	0	0	30584	29180	164770	26913	1070407	45811	111390	0	0	8035	579146	0	0
2024-08-01 16:38:47			0	36912	0	0	0	30594	29190	164794	26975	1070497	45823	111394	0	0	8034	579552	0	0
2024-08-01 16:39:47			0	36937	0	0	0	30586	29190	164770	27062	1070533	45813	111391	0	0	8036	578553	0	0
2024-08-01 16:40:47			0	36955	0	0	0	30566	29190	164706	26946	1070479	45813	111383	0	0	8037	577834	0	0
2024-08-01 16:41:47			0	36943	0	0	0	30548	29190	164742	26953	1070416	45812	111376	0	0	8037	578313	0	0
2024-08-01 16:42:47			0	36937	0	0	0	30532	29200	164614	27085	1070434	45813	111370	0	0	8037	578519	0	0
2024-08-01 16:43:47			0	36922	0	0	0	30535	29190	164838	26996	1070371	45802	111371	0	0	8036	579152	0	0
2024-08-01 16:44:47			0	36910	0	0	0	30563	29190	164874	27072	1070389	45801	111382	0	0	8035	579632	0	0
2024-08-01 16:45:47			0	36932	0	0	0	30574	29190	164842	27050	1070425	45802	111386	0	0	8036	578753	0	0
2024-08-01 16:46:47			0	36923	0	0	0	30548	29190	164814	26984	1070416	45801	111376	0	0	8036	579112	0	0
2024-08-01 16:47:47			0	36933	0	0	0	30529	29180	164730	27298	1070353	45800	111369	0	0	8037	578746	0	0
2024-08-01 16:48:47			0	36947	0	0	0	30532	29180	164742	27086	1070326	45811	111370	0	0	8037	578187	0	0
2024-08-01 16:49:47			0	36931	0	0	0	30524	29180	164798	27227	1070290	45800	111367	0	0	8037	578826	0	0
2024-08-01 16:50:47			0	36934	0	0	0	30532	29170	164834	27055	1070281	45811	111370	0	0	8037	578740	0	0
2024-08-01 16:51:47			0	36959	0	0	0	30506	29170	164734	26984	1070245	45810	111360	0	0	8038	577742	0	0
2024-08-01 16:52:47			0	36953	0	0	0	30496	29170	164754	27107	1070191	45788	111356	0	0	8038	577982	0	0
2024-08-01 16:53:47			0	36959	0	0	0	30524	29160	164714	27057	1070173	45809	111367	0	0	8038	577776	0	0
2024-08-01 16:54:47			0	36963	0	0	0	30548	29150	164686	26913	1070191	45808	111376	0	0	8038	577650	0	0
2024-08-01 16:55:47			0	36939	0	0	0	30561	29160	164874	26897	1070290	45809	111381	0	0	8036	578574	0	0
2024-08-01 16:56:47			0	36991	0	0	0	30579	29160	164734	27050	1070263	45809	111388	0	0	8039	576500	0	0
2024-08-01 16:57:47			0	36991	0	0	0	30576	29160	164634	26996	1070317	45832	111387	0	0	8039	576500	0	0
2024-08-01 16:58:47			0	37022	0	0	0	30574	29160	164550	27088	1070317	45809	111386	0	0	8041	575266	0	0
2024-08-01 16:59:47			0	37020	0	0	0	30571	29170	164414	27100	1070326	45821	111385	0	0	8041	575312	0	0
2024-08-01 17:00:47			0	37037	0	0	0	30566	29170	164294	26882	1070362	45833	111383	0	0	8042	574636	0	0
2024-08-01 17:01:47			0	37067	0	0	0	30548	29170	164314	26972	1070353	45821	111376	0	0	8044	573445	0	0
2024-08-01 17:02:47			0	37076	0	0	0	30555	29170	164102	27005	1070353	45810	111379	0	0	8044	573088	0	0
2024-08-01 17:03:47			0	37103	0	0	0	30540	29170	164102	26998	1070335	45822	111373	0	0	8046	572017	0	0
2024-08-01 17:04:47			0	37118	0	0	0	30524	29160	164014	26845	1070254	45798	111367	0	0	8047	571456	0	0
2024-08-01 17:05:47			0	37116	0	0	0	30516	29160	163910	26878	1070263	45809	111364	0	0	8047	571535	0	0
2024-08-01 17:06:47			0	37112	0	0	0	30519	29160	164046	26765	1070200	45809	111365	0	0	8047	571694	0	0
2024-08-01 17:07:47			0	37103	0	0	0	30527	29150	164018	26890	1070182	45819	111368	0	0	8046	572084	0	0
2024-08-01 17:08:47			0	37115	0	0	0	30545	29160	164006	27072	1070254	45809	111375	0	0	8047	571575	0	0
2024-08-01 17:09:47			0	37116	0	0	0	30548	29150	163986	26998	1070272	45808	111376	0	0	8047	571568	0	0
2024-08-01 17:10:47			0	37111	0	0	0	30545	29160	164070	26972	1070236	45809	111375	0	0	8047	571733	0	0
2024-08-01 17:11:47			0	37107	0	0	0	30514	29150	164034	26993	1070272	45831	111363	0	0	8047	571925	0	0
2024-08-01 17:12:47			0	37113	0	0	0	30493	29150	164118	27027	1070299	45797	111355	0	0	8048	571687	0	0
2024-08-01 17:13:47			0	37113	0	0	0	30475	29150	164006	26821	1070074	45808	111348	0	0	8048	571687	0	0
2024-08-01 17:14:47			0	37098	0	0	0	30446	29130	164106	26857	1070020	45784	111337	0	0	8047	572348	0	0
2024-08-01 17:15:47			0	37114	0	0	0	30467	29130	164198	26946	1070038	45795	111345	0	0	8048	571714	0	0
2024-08-01 17:16:47			0	37076	0	0	0	30467	29130	164186	27000	1070065	45806	111345	0	0	8046	573221	0	0
2024-08-01 17:17:47			0	37089	0	0	0	30477	29120	164138	26916	1070083	45805	111349	0	0	8046	572738	0	0
2024-08-01 17:18:47			0	37072	0	0	0	30488	29130	164146	27111	1070065	45806	111353	0	0	8045	573380	0	0
2024-08-01 17:19:47			0	37068	0	0	0	30480	29120	164178	26880	1070002	45816	111350	0	0	8045	573572	0	0
2024-08-01 17:20:47			0	37074	0	0	0	30462	29110	164262	26873	1069984	45793	111343	0	0	8046	573367	0	0
2024-08-01 17:21:47			0	37073	0	0	0	30457	29110	164346	27166	1069921	45804	111341	0	0	8046	573406	0	0
2024-08-01 17:22:47			0	37051	0	0	0	30441	29110	164322	26951	1069957	45804	111335	0	0	8045	574280	0	0
2024-08-01 17:23:47			0	36985	0	0	0	30433	29110	164394	27116	1069957	45804	111332	0	0	8041	576906	0	0
2024-08-01 17:24:47			0	36975	0	0	0	30454	29110	164718	27088	1069894	45804	111340	0	0	8040	577305	0	0
2024-08-01 17:25:47			0	36959	0	0	0	30488	29100	164678	26708	1069966	45803	111353	0	0	8038	577977	0	0
2024-08-01 17:26:47			0	36958	0	0	0	30514	29110	164838	27275	1070065	45815	111363	0	0	8038	577983	0	0
2024-08-01 17:27:47			0	36970	0	0	0	30514	29110	164794	27182	1070083	45815	111363	0	0	8039	577505	0	0
2024-08-01 17:28:47			0	36971	0	0	0	30514	29110	164738	27008	1070065	45815	111363	0	0	8039	577465	0	0
2024-08-01 17:29:47			0	36984	0	0	0	30516	29120	164702	26955	1070163	45828	111364	0	0	8039	576913	0	0
2024-08-01 17:30:47			0	37020	0	0	0	30511	29120	164550	26712	1070101	45815	111362	0	0	8042	575479	0	0
2024-08-01 17:31:47			0	37034	0	0	0	30480	29130	164506	26816	1070101	45817	111350	0	0	8043	574889	0	0
2024-08-01 17:32:47			0	37026	0	0	0	30477	29120	164478	27170	1070056	45816	111349	0	0	8043	575241	0	0
2024-08-01 17:33:47			0	37014	0	0	0	30457	29110	164594	27039	1070011	45815	111341	0	0	8042	575752	0	0
2024-08-01 17:34:47			0	37011	0	0	0	30449	29120	164682	26870	1070002	45783	111338	0	0	8042	575837	0	0
2024-08-01 17:35:47			0	36998	0	0	0	30410	29100	164686	26911	1069831	45803	111323	0	0	8042	576422	0	0
2024-08-01 17:36:47			0	36985	0	0	0	30410	29090	164642	27150	1069840	45769	111323	0	0	8041	576973	0	0
2024-08-01 17:37:47			0	36959	0	0	0	30423	29080	164886	26904	1069822	45791	111328	0	0	8039	578044	0	0
2024-08-01 17:38:47			0	36954	0	0	0	30433	29080	164782	26863	1069768	45801	111332	0	0	8039	578244	0	0
2024-08-01 17:39:47			0	36926	0	0	0	30467	29080	164862	26894	1069840	45800	111345	0	0	8037	579362	0	0
2024-08-01 17:40:47			0	36922	0	0	0	30470	29080	164858	27001	1069849	45813	111346	0	0	8036	579522	0	0
2024-08-01 17:41:47			0	36938	0	0	0	30431	29080	164866	26757	1069822	45824	111331	0	0	8038	578883	0	0
2024-08-01 17:42:47			0	36943	0	0	0	30405	29080	164838	27147	1069768	45801	111321	0	0	8039	578683	0	0
2024-08-01 17:43:47			0	36949	0	0	0	30405	29080	164802	27116	1069732	45790	111321	0	0	8039	578443	0	0
2024-08-01 17:44:47			0	36930	0	0	0	30410	29070	164818	26819	1069741	45799	111323	0	0	8038	579236	0	0
2024-08-01 17:45:47			0	36945	0	0	0	30436	29070	164842	27022	1069741	45799	111333	0	0	8038	578637	0	0
2024-08-01 17:46:47			0	36940	0	0	0	30451	29070	164822	26833	1069795	45799	111339	0	0	8038	578836	0	0
2024-08-01 17:47:47			0	36925	0	0	0	30457	29070	164954	27066	1069831	45822	111341	0	0	8037	579436	0	0
2024-08-01 17:48:47			0	36947	0	0	0	30462	29060	165034	27182	1069840	45811	111343	0	0	8038	578590	0	0
2024-08-01 17:49:47			0	36967	0	0	0	30457	29070	164958	26887	1069885	45822	111341	0	0	8039	577758	0	0
2024-08-01 17:50:47			0	36974	0	0	0	30472	29080	164858	26779	1069867	45812	111347	0	0	8039	577446	0	0
2024-08-01 17:51:47			0	36972	0	0	0	30475	29080	164866	26720	1069948	45812	111348	0	0	8039	577525	0	0
2024-08-01 17:52:47			0	36937	0	0	0	30488	29090	165074	27076	1069993	45814	111353	0	0	8037	578889	0	0
2024-08-01 17:53:47			0	36951	0	0	0	30519	29090	164858	26996	1070002	45814	111365	0	0	8037	578330	0	0
2024-08-01 17:54:47			0	36973	0	0	0	30548	29090	164786	26922	1070083	45825	111376	0	0	8038	577452	0	0
2024-08-01 17:55:47			0	37004	0	0	0	30545	29100	164578	27133	1070065	45814	111375	0	0	8040	576183	0	0
2024-08-01 17:56:47			0	37029	0	0	0	30537	29110	164462	26993	1070110	45827	111372	0	0	8042	575155	0	0
2024-08-01 17:57:47			0	37047	0	0	0	30558	29120	164394	27308	1070181	45827	111380	0	0	8042	574406	0	0
2024-08-01 17:58:47			0	37078	0	0	0	30579	29120	164226	27078	1070190	45828	111388	0	0	8044	573175	0	0
2024-08-01 17:59:47			0	37084	0	0	0	30579	29130	164186	27052	1070235	45829	111388	0	0	8044	572903	0	0
2024-08-01 18:00:47			0	37106	0	0	0	30568	29130	164114	26875	1070307	45817	111384	0	0	8046	572031	0	0
2024-08-01 18:01:47			0	37111	0	0	0	30574	29140	164038	26398	1070307	45830	111386	0	0	8046	571800	0	0
2024-08-01 18:02:47			0	37121	0	0	0	30581	29150	164094	26894	1070326	45831	111389	0	0	8047	571371	0	0
2024-08-01 18:03:47			0	37111	0	0	0	30576	29160	164082	26719	1070362	45832	111387	0	0	8046	571733	0	0
2024-08-01 18:04:47			0	37115	0	0	0	30576	29150	164094	27180	1070272	45819	111387	0	0	8046	571608	0	0
2024-08-01 18:05:47			0	37113	0	0	0	30574	29160	163978	26798	1070389	45820	111386	0	0	8046	571654	0	0
2024-08-01 18:06:47			0	37103	0	0	0	30568	29170	163926	27083	1070380	45833	111384	0	0	8046	572017	0	0
2024-08-01 18:07:47			0	37119	0	0	0	30579	29170	163998	26635	1070434	45833	111388	0	0	8047	571383	0	0
2024-08-01 18:08:47			0	37121	0	0	0	30553	29170	163986	27052	1070380	45810	111378	0	0	8047	571304	0	0
2024-08-01 18:09:47			0	37108	0	0	0	30581	29170	163882	27133	1070407	45821	111389	0	0	8046	571819	0	0
2024-08-01 18:10:47			0	37111	0	0	0	30589	29160	164006	26665	1070452	45820	111392	0	0	8046	571733	0	0
2024-08-01 18:11:47			0	37115	0	0	0	30586	29170	163942	26648	1070389	45833	111391	0	0	8046	571542	0	0
2024-08-01 18:12:47			0	37125	0	0	0	30581	29180	163990	26739	1070452	45833	111389	0	0	8047	571113	0	0
2024-08-01 18:13:47			0	37131	0	0	0	30579	29190	164022	27100	1070443	45823	111388	0	0	8047	570842	0	0
2024-08-01 18:14:47			0	37129	0	0	0	30584	29180	163954	26987	1070488	45833	111390	0	0	8047	570954	0	0
2024-08-01 18:15:47			0	37117	0	0	0	30594	29180	163958	26986	1070506	45833	111394	0	0	8046	571429	0	0
2024-08-01 18:16:47			0	37128	0	0	0	30586	29190	163878	26955	1070506	45824	111391	0	0	8047	570961	0	0
2024-08-01 18:17:47			0	37125	0	0	0	30602	29190	163982	26963	1070586	45835	111397	0	0	8047	571080	0	0
2024-08-01 18:18:47			0	37129	0	0	0	30605	29190	163950	26889	1070560	45824	111398	0	0	8047	570921	0	0
2024-08-01 18:19:47			0	37147	0	0	0	30615	29190	163942	27059	1070560	45824	111402	0	0	8048	570209	0	0
2024-08-01 18:20:47			0	37118	0	0	0	30625	29200	163994	27017	1070577	45835	111406	0	0	8046	571323	0	0
2024-08-01 18:21:47			0	37105	0	0	0	30644	29210	163902	27227	1070586	45825	111413	0	0	8045	571805	0	0
2024-08-01 18:22:47			0	37122	0	0	0	30659	29220	163926	26960	1070685	45826	111419	0	0	8046	571099	0	0
2024-08-01 18:23:47			0	37121	0	0	0	30651	29220	163906	26885	1070712	45860	111416	0	0	8046	571138	0	0
2024-08-01 18:24:47			0	37114	0	0	0	30672	29220	163830	27230	1070775	45838	111424	0	0	8045	571415	0	0
2024-08-01 18:25:47			0	37162	0	0	0	30680	29240	163810	26734	1070802	45839	111427	0	0	8048	569451	0	0
2024-08-01 18:26:47			0	37160	0	0	0	30683	29240	163718	27048	1070811	45818	111428	0	0	8047	569530	0	0
2024-08-01 18:27:47			0	37156	0	0	0	30683	29240	163750	27105	1070856	45850	111428	0	0	8047	569688	0	0
2024-08-01 18:28:47			0	37165	0	0	0	30693	29240	163634	27149	1070865	45851	111432	0	0	8048	569332	0	0
2024-08-01 18:29:47			0	37187	0	0	0	30690	29240	163734	27039	1070838	45840	111431	0	0	8049	568464	0	0
2024-08-01 18:30:47			0	37179	0	0	0	30688	29260	163718	27180	1070865	45841	111430	0	0	8049	568714	0	0
2024-08-01 18:31:47			0	37179	0	0	0	30683	29250	163690	27197	1070937	45841	111428	0	0	8049	568747	0	0
2024-08-01 18:32:47			0	37191	0	0	0	30690	29260	163642	27320	1070811	45830	111431	0	0	8049	568240	0	0
2024-08-01 18:33:47			0	37187	0	0	0	30670	29270	163650	26774	1070847	45831	111423	0	0	8049	568365	0	0
2024-08-01 18:34:47			0	37170	0	0	0	30657	29250	163766	26941	1070820	45829	111418	0	0	8049	569102	0	0
2024-08-01 18:35:47			0	37168	0	0	0	30662	29270	163742	26942	1070847	45842	111420	0	0	8048	569115	0	0
2024-08-01 18:36:47			0	37141	0	0	0	30664	29270	163702	26963	1070874	45842	111421	0	0	8047	570181	0	0
2024-08-01 18:37:47			0	37136	0	0	0	30659	29250	163830	27020	1070856	45830	111419	0	0	8047	570445	0	0
2024-08-01 18:38:47			0	37134	0	0	0	30670	29250	163850	26795	1070856	45830	111423	0	0	8046	570524	0	0
2024-08-01 18:39:47			0	37114	0	0	0	30659	29260	163950	27187	1070892	45830	111419	0	0	8045	571283	0	0
2024-08-01 18:40:47			0	37099	0	0	0	30662	29270	164002	26849	1070847	45842	111420	0	0	8044	571843	0	0
2024-08-01 18:41:47			0	37080	0	0	0	30649	29270	163998	26904	1070820	45842	111415	0	0	8044	572596	0	0
2024-08-01 18:42:47			0	37087	0	0	0	30636	29250	164138	27046	1070829	45830	111410	0	0	8044	572385	0	0
2024-08-01 18:43:47			0	37057	0	0	0	30636	29250	164194	26892	1070766	45818	111410	0	0	8042	573575	0	0
2024-08-01 18:44:47			0	37071	0	0	0	30628	29240	164182	27067	1070748	45828	111407	0	0	8043	573053	0	0
2024-08-01 18:45:47			0	37050	0	0	0	30618	29230	164282	26876	1070766	45784	111403	0	0	8042	573920	0	0
2024-08-01 18:46:47			0	37046	0	0	0	30620	29240	164334	26712	1070721	45828	111404	0	0	8042	574045	0	0
2024-08-01 18:47:47			0	37009	0	0	0	30615	29230	164394	27000	1070685	45828	111402	0	0	8040	575549	0	0
2024-08-01 18:48:47			0	36993	0	0	0	30612	29230	164538	27055	1070685	45805	111401	0	0	8039	576186	0	0
2024-08-01 18:49:47			0	36971	0	0	0	30610	29220	164546	27069	1070694	45827	111400	0	0	8038	577096	0	0
2024-08-01 18:50:47			0	36975	0	0	0	30618	29220	164614	27187	1070694	45827	111403	0	0	8038	576937	0	0
2024-08-01 18:51:47			0	36983	0	0	0	30623	29230	164662	26932	1070658	45828	111405	0	0	8038	576584	0	0
2024-08-01 18:52:47			0	36965	0	0	0	30646	29230	164770	26873	1070730	45838	111414	0	0	8037	577302	0	0
2024-08-01 18:53:47			0	36941	0	0	0	30670	29220	164798	27130	1070685	45837	111423	0	0	8035	578292	0	0
2024-08-01 18:54:47			0	36946	0	0	0	30649	29230	164782	26942	1070730	45838	111415	0	0	8036	578059	0	0
2024-08-01 18:55:47			0	36943	0	0	0	30638	29240	164794	26901	1070748	45839	111411	0	0	8036	578145	0	0
2024-08-01 18:56:47			0	36958	0	0	0	30633	29230	164794	27133	1070730	45827	111409	0	0	8036	577581	0	0
2024-08-01 18:57:47			0	36944	0	0	0	30625	29220	164726	27031	1070685	45837	111406	0	0	8036	578173	0	0
2024-08-01 18:58:47			0	36955	0	0	0	30646	29230	164634	27164	1070730	45838	111414	0	0	8036	577700	0	0
2024-08-01 18:59:47			0	36964	0	0	0	30654	29220	164678	27043	1070721	45838	111417	0	0	8036	577375	0	0
2024-08-01 19:00:47			0	36968	0	0	0	30651	29230	164774	27059	1070757	45838	111416	0	0	8037	577182	0	0
2024-08-01 19:01:47			0	36970	0	0	0	30667	29230	164738	27057	1070757	45838	111422	0	0	8037	577102	0	0
2024-08-01 19:02:47			0	36970	0	0	0	30670	29230	164606	27222	1070739	45828	111423	0	0	8037	577102	0	0
2024-08-01 19:03:47			0	36970	0	0	0	30636	29220	164642	26922	1070748	45827	111410	0	0	8037	577136	0	0
2024-08-01 19:04:47			0	36984	0	0	0	30625	29240	164634	27194	1070694	45828	111406	0	0	8038	576511	0	0
2024-08-01 19:05:47			0	36966	0	0	0	30638	29230	164694	26972	1070730	45838	111411	0	0	8037	577262	0	0
2024-08-01 19:06:47			0	36935	0	0	0	30623	29220	164726	27046	1070712	45826	111405	0	0	8035	578532	0	0
2024-08-01 19:07:47			0	36929	0	0	0	30612	29220	164698	26953	1070640	45827	111401	0	0	8035	578771	0	0
2024-08-01 19:08:47			0	36939	0	0	0	30641	29220	164718	26942	1070721	45838	111412	0	0	8035	578372	0	0
2024-08-01 19:09:47			0	36936	0	0	0	30646	29220	164866	26807	1070748	45827	111414	0	0	8035	578492	0	0
2024-08-01 19:10:47			0	36933	0	0	0	30662	29230	164886	27033	1070730	45838	111420	0	0	8035	578578	0	0
2024-08-01 19:11:47			0	36944	0	0	0	30659	29220	164858	26863	1070721	45849	111419	0	0	8035	578173	0	0
2024-08-01 19:12:47			0	36949	0	0	0	30649	29230	164826	27296	1070757	45838	111415	0	0	8036	577940	0	0
2024-08-01 19:13:47			0	36950	0	0	0	30654	29230	164742	26840	1070703	45838	111417	0	0	8036	577900	0	0
2024-08-01 19:14:47			0	36955	0	0	0	30657	29230	164734	26875	1070757	45849	111418	0	0	8036	577700	0	0
2024-08-01 19:15:47			0	36975	0	0	0	30670	29240	164606	27055	1070802	45839	111423	0	0	8037	576870	0	0
2024-08-01 19:16:47			0	36988	0	0	0	30651	29230	164562	27104	1070739	45839	111416	0	0	8038	576385	0	0
2024-08-01 19:17:47			0	36987	0	0	0	30657	29230	164674	27170	1070739	45850	111418	0	0	8038	576425	0	0
2024-08-01 19:18:47			0	36993	0	0	0	30646	29220	164510	26944	1070721	45838	111414	0	0	8038	576220	0	0
2024-08-01 19:19:47			0	36994	0	0	0	30631	29230	164482	27026	1070649	45816	111408	0	0	8039	576146	0	0
2024-08-01 19:20:47			0	36984	0	0	0	30610	29230	164514	27196	1070730	45827	111400	0	0	8038	576544	0	0
2024-08-01 19:21:47			0	36969	0	0	0	30594	29220	164678	27272	1070685	45826	111394	0	0	8038	577176	0	0
2024-08-01 19:22:47			0	36958	0	0	0	30561	29210	164786	26963	1070541	45826	111381	0	0	8038	577648	0	0
2024-08-01 19:23:47			0	36911	0	0	0	30553	29210	164874	26942	1070488	45815	111378	0	0	8035	579524	0	0
2024-08-01 19:24:47			0	36888	0	0	0	30550	29190	164986	27332	1070416	45823	111377	0	0	8034	580511	0	0
2024-08-01 19:25:47			0	36863	0	0	0	30548	29190	165086	26975	1070398	45824	111376	0	0	8032	581512	0	0
2024-08-01 19:26:47			0	36838	0	0	0	30548	29180	165190	26847	1070434	45822	111376	0	0	8031	582548	0	0
2024-08-01 19:27:47			0	36836	0	0	0	30550	29180	165238	26908	1070434	45822	111377	0	0	8031	582629	0	0
2024-08-01 19:28:47			0	36819	0	0	0	30561	29180	165318	26850	1070398	45833	111381	0	0	8029	583311	0	0
2024-08-01 19:29:47			0	36830	0	0	0	30555	29170	165366	26627	1070335	45833	111379	0	0	8030	582903	0	0
2024-08-01 19:30:47			0	36819	0	0	0	30558	29170	165306	26431	1070326	45843	111380	0	0	8029	583345	0	0
2024-08-01 19:31:47			0	36831	0	0	0	30566	29180	165374	27052	1070371	45833	111383	0	0	8030	582829	0	0
2024-08-01 19:32:47			0	36837	0	0	0	30571	29170	165354	26902	1070407	45833	111385	0	0	8030	582622	0	0
2024-08-01 19:33:47			0	36824	0	0	0	30571	29160	165362	27192	1070398	45842	111385	0	0	8029	583178	0	0
2024-08-01 19:34:47			0	36836	0	0	0	30576	29170	165442	26816	1070443	45844	111387	0	0	8030	582662	0	0
2024-08-01 19:35:47			0	36826	0	0	0	30581	29180	165342	26956	1070425	45833	111389	0	0	8029	583030	0	0
2024-08-01 19:36:47			0	36824	0	0	0	30589	29180	165358	26986	1070407	45833	111392	0	0	8029	583110	0	0
2024-08-01 19:37:47			0	36825	0	0	0	30599	29170	165418	27001	1070461	45833	111396	0	0	8029	583104	0	0
2024-08-01 19:38:47			0	36823	0	0	0	30597	29170	165362	26778	1070515	45821	111395	0	0	8029	583184	0	0
2024-08-01 19:39:47			0	36834	0	0	0	30594	29180	165374	26850	1070461	45844	111394	0	0	8030	582709	0	0
2024-08-01 19:40:47			0	36809	0	0	0	30592	29180	165322	26911	1070488	45844	111393	0	0	8028	583713	0	0
2024-08-01 19:41:47			0	36822	0	0	0	30599	29170	165406	26904	1070524	45833	111396	0	0	8029	583224	0	0
2024-08-01 19:42:47			0	36828	0	0	0	30599	29190	165326	27154	1070533	45846	111396	0	0	8029	582916	0	0
2024-08-01 19:43:47			0	36810	0	0	0	30605	29180	165362	26892	1070506	45833	111398	0	0	8028	583672	0	0
2024-08-01 19:44:47			0	36833	0	0	0	30597	29190	165270	27045	1070497	45823	111395	0	0	8030	582715	0	0
2024-08-01 19:45:47			0	36838	0	0	0	30586	29190	165158	27190	1070470	45834	111391	0	0	8030	582515	0	0
2024-08-01 19:46:47			0	36839	0	0	0	30584	29170	165138	26922	1070497	45833	111390	0	0	8030	582542	0	0
2024-08-01 19:47:47			0	36852	0	0	0	30589	29190	165110	27027	1070470	45845	111392	0	0	8031	581953	0	0
2024-08-01 19:48:47			0	36862	0	0	0	30589	29190	165106	26897	1070497	45834	111392	0	0	8031	581553	0	0
2024-08-01 19:49:47			0	36864	0	0	0	30592	29180	165142	26871	1070488	45833	111393	0	0	8031	581506	0	0
2024-08-01 19:50:47			0	36859	0	0	0	30589	29170	165202	26963	1070497	45833	111392	0	0	8031	581740	0	0
2024-08-01 19:51:47			0	36884	0	0	0	30584	29180	165070	26838	1070506	45833	111390	0	0	8033	580705	0	0
2024-08-01 19:52:47			0	36866	0	0	0	30589	29180	165170	26965	1070434	45833	111392	0	0	8032	581426	0	0
2024-08-01 19:53:47			0	36879	0	0	0	30581	29170	165258	26986	1070443	45844	111389	0	0	8032	580939	0	0
2024-08-01 19:54:47			0	36856	0	0	0	30574	29170	165230	27057	1070470	45822	111386	0	0	8031	581861	0	0
2024-08-01 19:55:47			0	36854	0	0	0	30568	29170	165102	26963	1070434	45843	111384	0	0	8031	581941	0	0
2024-08-01 19:56:47			0	36856	0	0	0	30563	29160	165114	27178	1070416	45854	111382	0	0	8031	581894	0	0
2024-08-01 19:57:47			0	36848	0	0	0	30555	29160	165174	26955	1070344	45842	111379	0	0	8031	582215	0	0
2024-08-01 19:58:47			0	36844	0	0	0	30555	29170	165230	27057	1070407	45833	111379	0	0	8031	582342	0	0
2024-08-01 19:59:47			0	36847	0	0	0	30558	29160	165202	27163	1070335	45842	111380	0	0	8031	582255	0	0
2024-08-01 20:00:47			0	36845	0	0	0	30537	29150	165234	26783	1070290	45831	111372	0	0	8031	582369	0	0
2024-08-01 20:01:47			0	36840	0	0	0	30545	29150	165306	26543	1070272	45831	111375	0	0	8031	582570	0	0
2024-08-01 20:02:47			0	36800	0	0	0	30514	29160	165406	26587	1070227	45832	111363	0	0	8029	584142	0	0
2024-08-01 20:03:47			0	36777	0	0	0	30519	29140	165546	26831	1070271	45829	111365	0	0	8027	585135	0	0
2024-08-01 20:04:47			0	36778	0	0	0	30516	29130	165678	26977	1070154	45829	111364	0	0	8027	585128	0	0
2024-08-01 20:05:47			0	36761	0	0	0	30509	29130	165678	26961	1070172	45839	111361	0	0	8027	585813	0	0
2024-08-01 20:06:47			0	36721	0	0	0	30498	29130	165854	27059	1070172	45829	111357	0	0	8024	587425	0	0
2024-08-01 20:07:47			0	36715	0	0	0	30490	29130	165938	26870	1070092	45829	111354	0	0	8024	587667	0	0
2024-08-01 20:08:47			0	36684	0	0	0	30483	29120	166134	27119	1070047	45815	111351	0	0	8022	588953	0	0
2024-08-01 20:09:47			0	36674	0	0	0	30475	29120	166062	26961	1070101	45815	111348	0	0	8022	589357	0	0
2024-08-01 20:10:47			0	36636	0	0	0	30472	29100	166154	26778	1070020	45815	111347	0	0	8020	590964	0	0
2024-08-01 20:11:47			0	36637	0	0	0	30467	29100	166338	27102	1069966	45826	111345	0	0	8020	590923	0	0
2024-08-01 20:12:47			0	36614	0	0	0	30483	29090	166382	27081	1069948	45814	111351	0	0	8018	591890	0	0
2024-08-01 20:13:47			0	36601	0	0	0	30488	29090	166518	26802	1069966	45825	111353	0	0	8017	592417	0	0
2024-08-01 20:14:47			0	36609	0	0	0	30488	29080	166414	27012	1069957	45834	111353	0	0	8018	592127	0	0
2024-08-01 20:15:47			0	36613	0	0	0	30483	29090	166466	26724	1069966	45835	111351	0	0	8018	591930	0	0
2024-08-01 20:16:47			0	36603	0	0	0	30477	29090	166482	26765	1070002	45835	111349	0	0	8018	592336	0	0
2024-08-01 20:17:47			0	36622	0	0	0	30470	29090	166370	26909	1069939	45835	111346	0	0	8019	591565	0	0
2024-08-01 20:18:47			0	36610	0	0	0	30459	29070	166478	26578	1069912	45833	111342	0	0	8018	592121	0	0
2024-08-01 20:19:47			0	36589	0	0	0	30462	29080	166550	26753	1069867	45833	111343	0	0	8017	592939	0	0
2024-08-01 20:20:47			0	36567	0	0	0	30470	29070	166697	26795	1069939	45822	111346	0	0	8015	593867	0	0
2024-08-01 20:21:47			0	36550	0	0	0	30467	29070	166801	27060	1069939	45844	111345	0	0	8015	594558	0	0
2024-08-01 20:22:47			0	36550	0	0	0	30470	29070	166749	26823	1069912	45833	111346	0	0	8014	594558	0	0
2024-08-01 20:23:47			0	36547	0	0	0	30470	29080	166837	26989	1069894	45823	111346	0	0	8014	594646	0	0
2024-08-01 20:24:47			0	36542	0	0	0	30470	29070	166709	27144	1069903	45822	111346	0	0	8014	594884	0	0
2024-08-01 20:25:47			0	36527	0	0	0	30462	29060	166825	26752	1069867	45844	111343	0	0	8013	595529	0	0
2024-08-01 20:26:47			0	36527	0	0	0	30459	29070	166901	27029	1069885	45833	111342	0	0	8013	595495	0	0
2024-08-01 20:27:47			0	36519	0	0	0	30454	29060	166865	26894	1069867	45833	111340	0	0	8013	595855	0	0
2024-08-01 20:28:47			0	36526	0	0	0	30444	29060	166841	26821	1069840	45833	111336	0	0	8013	595570	0	0
2024-08-01 20:29:47			0	36530	0	0	0	30441	29060	166877	26967	1069750	45832	111335	0	0	8014	595407	0	0
2024-08-01 20:30:47			0	36510	0	0	0	30433	29060	166945	26878	1069786	45833	111332	0	0	8013	596222	0	0
2024-08-01 20:31:47			0	36489	0	0	0	30451	29050	166969	27031	1069714	45831	111339	0	0	8011	597113	0	0
2024-08-01 20:32:47			0	36480	0	0	0	30436	29050	167009	26791	1069705	45831	111333	0	0	8011	597480	0	0
2024-08-01 20:33:47			0	36486	0	0	0	30431	29040	166997	26939	1069723	45831	111331	0	0	8011	597270	0	0
2024-08-01 20:34:47			0	36475	0	0	0	30433	29050	167089	26989	1069732	45809	111332	0	0	8011	597684	0	0
2024-08-01 20:35:47			0	36466	0	0	0	30420	29050	167169	27244	1069678	45831	111327	0	0	8010	598052	0	0
2024-08-01 20:36:47			0	36433	0	0	0	30415	29040	167161	26934	1069687	45819	111325	0	0	8008	599436	0	0
2024-08-01 20:37:47			0	36430	0	0	0	30407	29030	167373	27092	1069678	45818	111322	0	0	8008	599593	0	0
2024-08-01 20:38:47			0	36386	0	0	0	30405	29030	167397	26873	1069669	45818	111321	0	0	8006	601396	0	0
2024-08-01 20:39:47			0	36377	0	0	0	30405	29030	167597	26811	1069651	45829	111321	0	0	8005	601765	0	0
2024-08-01 20:40:47			0	36373	0	0	0	30399	29010	167633	27067	1069588	45828	111319	0	0	8005	601999	0	0
2024-08-01 20:41:47			0	36346	0	0	0	30402	29020	167661	26769	1069597	45828	111320	0	0	8003	603073	0	0
2024-08-01 20:42:47			0	36343	0	0	0	30386	29020	167757	26791	1069597	45828	111314	0	0	8003	603196	0	0
2024-08-01 20:43:47			0	36331	0	0	0	30394	29020	167853	27105	1069543	45828	111317	0	0	8003	603689	0	0
2024-08-01 20:44:47			0	36311	0	0	0	30394	29010	167933	26984	1069588	45816	111317	0	0	8001	604547	0	0
2024-08-01 20:45:47			0	36265	0	0	0	30392	29010	168097	26623	1069480	45816	111316	0	0	7999	606442	0	0
2024-08-01 20:46:47			0	36245	0	0	0	30410	29000	168193	26814	1069597	45827	111323	0	0	7997	607303	0	0
2024-08-01 20:47:47			0	36254	0	0	0	30399	29010	168245	26859	1069561	45805	111319	0	0	7998	606896	0	0
2024-08-01 20:48:47			0	36256	0	0	0	30392	29010	168205	27019	1069552	45837	111316	0	0	7998	606814	0	0
2024-08-01 20:49:47			0	36268	0	0	0	30392	29000	168085	26883	1069507	45827	111316	0	0	7999	606354	0	0
2024-08-01 20:50:47			0	36272	0	0	0	30381	29000	168169	27000	1069516	45815	111312	0	0	7999	606189	0	0
2024-08-01 20:51:47			0	36259	0	0	0	30381	29000	168213	26776	1069507	45827	111312	0	0	7998	606725	0	0
2024-08-01 20:52:47			0	36236	0	0	0	30379	28990	168333	26826	1069471	45814	111311	0	0	7997	607710	0	0
2024-08-01 20:53:47			0	36217	0	0	0	30371	28990	168309	26824	1069444	45826	111308	0	0	7996	608495	0	0
2024-08-01 20:54:47			0	36197	0	0	0	30371	28990	168537	26798	1069444	45836	111308	0	0	7995	609323	0	0
2024-08-01 20:55:47			0	36192	0	0	0	30353	28990	168629	26674	1069462	45825	111301	0	0	7995	609530	0	0
2024-08-01 20:56:47			0	36141	0	0	0	30355	28980	168701	26609	1069399	45825	111302	0	0	7992	611679	0	0
2024-08-01 20:57:47			0	36131	0	0	0	30353	28980	168761	26713	1069309	45825	111301	0	0	7991	612094	0	0
2024-08-01 20:58:47			0	36134	0	0	0	30355	28970	168861	26717	1069381	45824	111302	0	0	7991	612005	0	0
2024-08-01 20:59:47			0	36105	0	0	0	30353	28980	168993	27043	1069336	45813	111301	0	0	7990	613174	0	0
2024-08-01 21:00:47			0	36086	0	0	0	30353	28970	168957	26965	1069354	45824	111301	0	0	7988	614000	0	0
2024-08-01 21:01:47			0	36081	0	0	0	30358	28960	169045	26700	1069309	45811	111303	0	0	7988	614244	0	0
2024-08-01 21:02:47			0	36064	0	0	0	30353	28970	169013	26963	1069273	45824	111301	0	0	7987	614916	0	0
2024-08-01 21:03:47			0	36073	0	0	0	30348	28970	169077	26927	1069291	45811	111299	0	0	7988	614541	0	0
2024-08-01 21:04:47			0	36056	0	0	0	30358	28970	169057	26781	1069381	45824	111303	0	0	7986	615249	0	0
2024-08-01 21:05:47			0	36041	0	0	0	30366	28970	169157	26490	1069345	45833	111306	0	0	7985	615875	0	0
2024-08-01 21:06:47			0	36026	0	0	0	30366	28970	169149	26982	1069354	45834	111306	0	0	7984	616500	0	0
2024-08-01 21:07:47			0	36006	0	0	0	30361	28970	169181	26708	1069345	45823	111304	0	0	7983	617336	0	0
2024-08-01 21:08:47			0	36019	0	0	0	30342	28970	169309	27069	1069435	45824	111297	0	0	7984	616793	0	0
2024-08-01 21:09:47			0	36015	0	0	0	30361	28970	169217	27114	1069345	45811	111304	0	0	7984	616960	0	0
2024-08-01 21:10:47			0	36010	0	0	0	30353	28970	169325	26885	1069381	45812	111301	0	0	7984	617169	0	0
2024-08-01 21:11:47			0	36019	0	0	0	30355	28970	169321	26960	1069345	45811	111302	0	0	7984	616793	0	0
2024-08-01 21:12:47			0	36016	0	0	0	30348	28960	169305	27076	1069336	45823	111299	0	0	7984	616954	0	0
2024-08-01 21:13:47			0	36014	0	0	0	30355	28970	169085	26748	1069435	45834	111302	0	0	7984	617002	0	0
2024-08-01 21:14:47			0	36022	0	0	0	30350	28950	169409	27161	1069327	45800	111300	0	0	7984	616739	0	0
2024-08-01 21:15:47			0	36036	0	0	0	30345	28960	169181	27085	1069336	45811	111298	0	0	7985	616119	0	0
2024-08-01 21:16:47			0	36017	0	0	0	30345	28950	169161	26998	1069246	45833	111298	0	0	7984	616948	0	0
2024-08-01 21:17:47			0	36000	0	0	0	30345	28950	169337	26923	1069300	45833	111298	0	0	7983	617658	0	0
2024-08-01 21:18:47			0	35995	0	0	0	30379	28950	169413	26982	1069354	45811	111311	0	0	7982	617867	0	0
2024-08-01 21:19:47			0	35979	0	0	0	30363	28950	169469	26734	1069354	45823	111305	0	0	7982	618536	0	0
2024-08-01 21:20:47			0	35991	0	0	0	30340	28950	169425	26701	1069354	45823	111296	0	0	7983	618034	0	0
2024-08-01 21:21:47			0	35997	0	0	0	30348	28970	169425	27078	1069264	45823	111299	0	0	7983	617712	0	0
2024-08-01 21:22:47			0	35981	0	0	0	30348	28970	169449	26845	1069345	45833	111299	0	0	7982	618381	0	0
2024-08-01 21:23:47			0	35984	0	0	0	30348	28950	169429	26788	1069381	45823	111299	0	0	7982	618327	0	0
2024-08-01 21:24:47			0	35963	0	0	0	30332	28960	169573	26615	1069282	45833	111293	0	0	7981	619170	0	0
2024-08-01 21:25:47			0	35964	0	0	0	30335	28950	169545	26880	1069237	45822	111294	0	0	7981	619164	0	0
2024-08-01 21:26:47			0	35954	0	0	0	30363	28950	169601	27066	1069264	45822	111305	0	0	7980	619582	0	0
2024-08-01 21:27:47			0	35951	0	0	0	30345	28950	169649	27102	1069327	45823	111298	0	0	7980	619708	0	0
2024-08-01 21:28:47			0	35965	0	0	0	30337	28950	169577	26849	1069318	45822	111295	0	0	7981	619122	0	0
2024-08-01 21:29:47			0	35983	0	0	0	30340	28930	169385	27123	1069183	45808	111296	0	0	7982	618440	0	0
2024-08-01 21:30:47			0	35976	0	0	0	30345	28950	169341	27093	1069318	45822	111298	0	0	7982	618661	0	0
2024-08-01 21:31:47			0	36007	0	0	0	30348	28950	169329	26826	1069318	45822	111299	0	0	7984	617365	0	0
2024-08-01 21:32:47			0	36029	0	0	0	30337	28950	169381	27017	1069264	45822	111295	0	0	7985	616447	0	0
2024-08-01 21:33:47			0	36044	0	0	0	30332	28940	169233	26896	1069255	45809	111293	0	0	7986	615857	0	0
2024-08-01 21:34:47			0	36072	0	0	0	30324	28930	169009	26606	1069210	45820	111290	0	0	7988	614726	0	0
2024-08-01 21:35:47			0	36122	0	0	0	30322	28920	168861	26899	1069219	45807	111289	0	0	7991	612681	0	0
2024-08-01 21:36:47			0	36154	0	0	0	30303	28930	168781	27229	1069174	45797	111282	0	0	7993	611317	0	0
2024-08-01 21:37:47			0	36211	0	0	0	30301	28920	168441	27059	1069111	45807	111281	0	0	7996	608991	0	0
2024-08-01 21:38:47			0	36246	0	0	0	30293	28910	168329	26930	1069120	45806	111278	0	0	7999	607579	0	0
2024-08-01 21:39:47			0	36255	0	0	0	30298	28910	168173	27111	1069066	45806	111280	0	0	7999	607207	0	0
2024-08-01 21:40:47			0	36299	0	0	0	30288	28910	168145	26687	1069147	45806	111276	0	0	8002	605392	0	0
2024-08-01 21:41:47			0	36333	0	0	0	30288	28900	168017	26996	1069102	45805	111276	0	0	8004	604027	0	0
2024-08-01 21:42:47			0	36368	0	0	0	30293	28900	167857	27048	1069075	45805	111278	0	0	8006	602588	0	0
2024-08-01 21:43:47			0	36402	0	0	0	30288	28900	167657	27060	1069040	45816	111276	0	0	8008	601193	0	0
2024-08-01 21:44:47			0	36413	0	0	0	30254	28900	167489	26677	1068995	45805	111263	0	0	8009	600742	0	0
2024-08-01 21:45:47			0	36454	0	0	0	30251	28890	167417	26993	1068922	45793	111262	0	0	8012	599098	0	0
2024-08-01 21:46:47			0	36465	0	0	0	30244	28880	167325	26634	1068949	45791	111259	0	0	8012	598683	0	0
2024-08-01 21:47:47			0	36473	0	0	0	30233	28890	167281	26811	1068886	45804	111255	0	0	8013	598321	0	0
2024-08-01 21:48:47			0	36475	0	0	0	30215	28870	167369	26816	1068859	45802	111248	0	0	8013	598309	0	0
2024-08-01 21:49:47			0	36506	0	0	0	30186	28860	167129	27000	1068679	45780	111237	0	0	8016	597077	0	0
2024-08-01 21:50:47			0	36535	0	0	0	30129	28850	167057	26724	1068679	45789	111215	0	0	8018	595929	0	0
2024-08-01 21:51:47			0	36597	0	0	0	30098	28850	166862	26679	1068544	45789	111203	0	0	8022	593405	0	0
2024-08-01 21:52:47			0	36612	0	0	0	30090	28830	166878	27017	1068410	45787	111200	0	0	8023	592864	0	0
2024-08-01 21:53:47			0	36613	0	0	0	30083	28810	166730	26793	1068311	45774	111197	0	0	8023	592893	0	0
2024-08-01 21:54:47			0	36620	0	0	0	30088	28800	166810	27022	1068275	45761	111199	0	0	8024	592643	0	0
2024-08-01 21:55:47			0	36650	0	0	0	30124	28790	166830	26651	1068275	45794	111213	0	0	8025	591459	0	0
2024-08-01 21:56:47			0	36647	0	0	0	30103	28770	166666	26788	1068302	45781	111205	0	0	8025	591650	0	0
2024-08-01 21:57:47			0	36672	0	0	0	30101	28770	166798	26847	1068194	45792	111204	0	0	8026	590636	0	0
2024-08-01 21:58:47			0	36680	0	0	0	30075	28760	166614	26741	1068176	45791	111194	0	0	8027	590346	0	0
2024-08-01 21:59:47			0	36692	0	0	0	30038	28760	166602	26984	1068113	45780	111180	0	0	8029	589860	0	0
2024-08-01 22:00:47			0	36718	0	0	0	29997	28740	166310	26831	1068005	45778	111164	0	0	8031	588876	0	0
2024-08-01 22:01:47			0	36747	0	0	0	30002	28730	166274	26878	1067951	45776	111166	0	0	8032	587738	0	0
2024-08-01 22:02:47			0	36760	0	0	0	30033	28710	166250	26733	1067924	45787	111178	0	0	8033	587282	0	0
2024-08-01 22:03:47			0	36800	0	0	0	29986	28700	166138	26800	1067843	45773	111160	0	0	8036	585702	0	0
2024-08-01 22:04:47			0	36788	0	0	0	29997	28690	166178	27150	1067718	45784	111164	0	0	8035	586220	0	0
2024-08-01 22:05:47			0	36833	0	0	0	29994	28680	166070	26871	1067727	45783	111163	0	0	8037	584441	0	0
2024-08-01 22:06:47			0	36840	0	0	0	30046	28680	166074	27149	1067754	45783	111183	0	0	8037	584160	0	0
2024-08-01 22:07:47			0	36818	0	0	0	30080	28670	166294	27010	1067799	45804	111196	0	0	8035	585079	0	0
2024-08-01 22:08:47			0	36833	0	0	0	30090	28680	166214	26833	1067915	45793	111200	0	0	8036	584441	0	0
2024-08-01 22:09:47			0	36828	0	0	0	30106	28690	166082	27001	1067960	45794	111206	0	0	8035	584609	0	0
2024-08-01 22:10:47			0	36812	0	0	0	30098	28690	166082	27244	1067933	45806	111203	0	0	8034	585253	0	0
2024-08-01 22:11:47			0	36828	0	0	0	30111	28690	166154	27048	1068023	45807	111208	0	0	8035	584609	0	0
2024-08-01 22:12:47			0	36811	0	0	0	30103	28680	166210	27249	1067996	45793	111205	0	0	8034	585327	0	0
2024-08-01 22:13:47			0	36831	0	0	0	30111	28690	166174	27100	1067996	45818	111208	0	0	8035	584488	0	0
2024-08-01 22:14:47			0	36804	0	0	0	30127	28700	166234	27142	1068032	45818	111214	0	0	8033	585541	0	0
2024-08-01 22:15:47			0	36824	0	0	0	30124	28690	166190	26908	1067996	45807	111213	0	0	8035	584770	0	0
2024-08-01 22:16:47			0	36813	0	0	0	30119	28710	166110	27048	1068050	45796	111211	0	0	8034	585145	0	0
2024-08-01 22:17:47			0	36811	0	0	0	30124	28690	166158	26859	1067960	45806	111213	0	0	8034	585293	0	0
2024-08-01 22:18:47			0	36818	0	0	0	30116	28690	166162	27111	1067960	45784	111210	0	0	8034	585011	0	0
2024-08-01 22:19:47			0	36812	0	0	0	30106	28690	166218	26953	1067942	45807	111206	0	0	8034	585253	0	0
2024-08-01 22:20:47			0	36807	0	0	0	30111	28700	166302	26958	1068032	45785	111208	0	0	8034	585420	0	0
2024-08-01 22:21:47			0	36791	0	0	0	30119	28700	166282	26987	1068032	45795	111211	0	0	8033	586065	0	0
2024-08-01 22:22:47			0	36801	0	0	0	30132	28700	166294	27017	1068068	45808	111216	0	0	8033	585662	0	0
2024-08-01 22:23:47			0	36798	0	0	0	30140	28710	166274	26967	1068104	45819	111219	0	0	8033	585749	0	0
2024-08-01 22:24:47			0	36791	0	0	0	30148	28700	166250	26616	1068068	45808	111222	0	0	8032	586065	0	0
2024-08-01 22:25:47			0	36796	0	0	0	30150	28710	166262	26915	1068140	45809	111223	0	0	8033	585829	0	0
2024-08-01 22:26:47			0	36789	0	0	0	30168	28720	166234	26684	1068176	45820	111230	0	0	8032	586078	0	0
2024-08-01 22:27:47			0	36808	0	0	0	30166	28710	166346	26953	1068194	45809	111229	0	0	8033	585346	0	0
2024-08-01 22:28:47			0	36791	0	0	0	30168	28720	166282	26870	1068239	45821	111230	0	0	8032	585997	0	0
2024-08-01 22:29:47			0	36794	0	0	0	30174	28730	166286	26941	1068221	45832	111232	0	0	8032	585842	0	0
2024-08-01 22:30:47			0	36797	0	0	0	30179	28730	166302	27081	1068257	45822	111234	0	0	8032	585721	0	0
2024-08-01 22:31:47			0	36787	0	0	0	30181	28740	166238	26875	1068248	45800	111235	0	0	8032	586090	0	0
2024-08-01 22:32:47			0	36808	0	0	0	30168	28740	166198	26857	1068266	45799	111230	0	0	8033	585244	0	0
2024-08-01 22:33:47			0	36799	0	0	0	30181	28740	166142	27190	1068302	45811	111235	0	0	8032	585607	0	0
2024-08-01 22:34:47			0	36808	0	0	0	30181	28760	166098	26906	1068383	45813	111235	0	0	8033	585177	0	0
2024-08-01 22:35:47			0	36801	0	0	0	30181	28750	166222	26726	1068347	45812	111235	0	0	8033	585492	0	0
2024-08-01 22:36:47			0	36798	0	0	0	30179	28750	166114	26902	1068347	45824	111234	0	0	8032	585613	0	0
2024-08-01 22:37:47			0	36808	0	0	0	30181	28760	166022	27237	1068356	45825	111235	0	0	8033	585177	0	0
2024-08-01 22:38:47			0	36823	0	0	0	30192	28770	166078	26977	1068320	45825	111239	0	0	8034	584539	0	0
2024-08-01 22:39:47			0	36816	0	0	0	30189	28750	166122	27213	1068320	45824	111238	0	0	8033	584888	0	0
2024-08-01 22:40:47			0	36818	0	0	0	30186	28770	166018	27121	1068400	45802	111237	0	0	8034	584740	0	0
2024-08-01 22:41:47			0	36827	0	0	0	30189	28760	165962	27059	1068392	45802	111238	0	0	8034	584412	0	0
2024-08-01 22:42:47			0	36825	0	0	0	30186	28770	165998	26982	1068409	45803	111237	0	0	8034	584458	0	0
2024-08-01 22:43:47			0	36830	0	0	0	30194	28770	165938	26837	1068400	45825	111240	0	0	8034	584257	0	0
2024-08-01 22:44:47			0	36830	0	0	0	30186	28770	166046	27026	1068383	45803	111237	0	0	8034	584257	0	0
2024-08-01 22:45:47			0	36829	0	0	0	30189	28770	165938	26889	1068409	45814	111238	0	0	8034	584298	0	0
2024-08-01 22:46:47			0	36832	0	0	0	30192	28770	165962	26635	1068409	45814	111239	0	0	8034	584177	0	0
2024-08-01 22:47:47			0	36845	0	0	0	30186	28780	165926	27133	1068446	45815	111237	0	0	8035	583620	0	0
2024-08-01 22:48:47			0	36850	0	0	0	30189	28770	165842	26686	1068400	45813	111238	0	0	8035	583453	0	0
2024-08-01 22:49:47			0	36853	0	0	0	30192	28780	165814	26609	1068392	45815	111239	0	0	8036	583299	0	0
2024-08-01 22:50:47			0	36866	0	0	0	30189	28770	165794	27034	1068383	45814	111238	0	0	8036	582810	0	0
2024-08-01 22:51:47			0	36847	0	0	0	30179	28790	165798	27140	1068464	45816	111234	0	0	8036	583506	0	0
2024-08-01 22:52:47			0	36870	0	0	0	30189	28780	165730	26785	1068455	45815	111238	0	0	8037	582616	0	0
2024-08-01 22:53:47			0	36885	0	0	0	30192	28770	165766	26977	1068400	45802	111239	0	0	8037	582048	0	0
2024-08-01 22:54:47			0	36872	0	0	0	30189	28780	165766	26956	1068473	45815	111238	0	0	8037	582536	0	0
2024-08-01 22:55:47			0	36891	0	0	0	30194	28780	165634	26998	1068392	45827	111240	0	0	8038	581774	0	0
2024-08-01 22:56:47			0	36901	0	0	0	30194	28780	165686	27187	1068428	45827	111240	0	0	8038	581372	0	0
2024-08-01 22:57:47			0	36893	0	0	0	30189	28780	165686	26875	1068419	45827	111238	0	0	8038	581693	0	0
2024-08-01 22:58:47			0	36907	0	0	0	30189	28780	165594	26944	1068419	45804	111238	0	0	8039	581132	0	0
2024-08-01 22:59:47			0	36915	0	0	0	30199	28780	165602	26750	1068455	45804	111242	0	0	8039	580811	0	0
2024-08-01 23:00:47			0	36921	0	0	0	30192	28780	165562	27166	1068428	45804	111239	0	0	8040	580571	0	0
2024-08-01 23:01:47			0	36923	0	0	0	30197	28790	165498	27142	1068464	45816	111241	0	0	8040	580457	0	0
2024-08-01 23:02:47			0	36913	0	0	0	30197	28790	165454	27163	1068518	45816	111241	0	0	8039	580858	0	0
2024-08-01 23:03:47			0	36922	0	0	0	30194	28780	165502	27147	1068509	45804	111240	0	0	8040	580531	0	0
2024-08-01 23:04:47			0	36917	0	0	0	30192	28790	165502	26627	1068464	45805	111239	0	0	8039	580698	0	0
2024-08-01 23:05:47			0	36943	0	0	0	30199	28790	165502	26897	1068464	45828	111242	0	0	8041	579657	0	0
2024-08-01 23:06:47			0	36925	0	0	0	30186	28800	165550	26908	1068482	45806	111237	0	0	8040	580344	0	0
2024-08-01 23:07:47			0	36950	0	0	0	30197	28800	165554	27005	1068455	45817	111241	0	0	8041	579343	0	0
2024-08-01 23:08:47			0	36942	0	0	0	30199	28800	165442	26833	1068563	45817	111242	0	0	8041	579663	0	0
2024-08-01 23:09:47			0	36959	0	0	0	30194	28790	165494	27092	1068527	45816	111240	0	0	8042	579017	0	0
2024-08-01 23:10:47			0	36960	0	0	0	30202	28780	165370	26922	1068482	45815	111243	0	0	8042	579011	0	0
2024-08-01 23:11:47			0	36987	0	0	0	30202	28790	165366	26819	1068464	45816	111243	0	0	8043	577898	0	0
2024-08-01 23:12:47			0	36980	0	0	0	30205	28790	165338	27057	1068500	45805	111244	0	0	8043	578178	0	0
2024-08-01 23:13:47			0	36984	0	0	0	30210	28790	165334	26840	1068518	45828	111246	0	0	8043	578018	0	0
2024-08-01 23:14:47			0	36977	0	0	0	30205	28790	165294	26837	1068518	45794	111244	0	0	8043	578298	0	0
2024-08-01 23:15:47			0	36996	0	0	0	30197	28800	165194	27039	1068563	45806	111241	0	0	8044	577506	0	0
2024-08-01 23:16:47			0	36997	0	0	0	30210	28800	165170	26958	1068518	45806	111246	0	0	8044	577466	0	0
2024-08-01 23:17:47			0	36994	0	0	0	30207	28800	165198	26837	1068509	45829	111245	0	0	8044	577586	0	0
2024-08-01 23:18:47			0	37016	0	0	0	30197	28800	165174	26911	1068509	45806	111241	0	0	8045	576708	0	0
2024-08-01 23:19:47			0	37012	0	0	0	30210	28790	165062	26847	1068518	45828	111246	0	0	8045	576901	0	0
2024-08-01 23:20:47			0	37022	0	0	0	30212	28800	165106	26845	1068590	45806	111247	0	0	8045	576469	0	0
2024-08-01 23:21:47			0	37045	0	0	0	30205	28800	165086	26951	1068572	45817	111244	0	0	8047	575553	0	0
2024-08-01 23:22:47			0	37033	0	0	0	30207	28800	165046	26644	1068536	45806	111245	0	0	8046	576030	0	0
2024-08-01 23:23:47			0	37038	0	0	0	30205	28790	165038	26935	1068527	45805	111244	0	0	8046	575865	0	0
2024-08-01 23:24:47			0	37047	0	0	0	30212	28800	165034	26675	1068536	45817	111247	0	0	8047	575473	0	0
2024-08-01 23:25:47			0	37042	0	0	0	30215	28810	164986	26592	1068607	45807	111248	0	0	8046	575639	0	0
2024-08-01 23:26:47			0	37051	0	0	0	30199	28800	164966	26736	1068590	45806	111242	0	0	8047	575314	0	0
2024-08-01 23:27:47			0	37062	0	0	0	30207	28800	165094	26835	1068598	45817	111245	0	0	8048	574876	0	0
2024-08-01 23:28:47			0	37048	0	0	0	30210	28810	164990	26535	1068590	45818	111246	0	0	8047	575400	0	0
2024-08-01 23:29:47			0	37049	0	0	0	30202	28800	164998	26816	1068545	45806	111243	0	0	8047	575393	0	0
2024-08-01 23:30:47			0	37042	0	0	0	30212	28800	164962	26778	1068536	45829	111247	0	0	8046	575672	0	0
2024-08-01 23:31:47			0	37047	0	0	0	30212	28800	165042	26906	1068598	45817	111247	0	0	8047	575473	0	0
2024-08-01 23:32:47			0	37034	0	0	0	30207	28810	164918	26665	1068607	45818	111245	0	0	8046	575957	0	0
2024-08-01 23:33:47			0	37044	0	0	0	30197	28800	164898	26835	1068509	45817	111241	0	0	8047	575592	0	0
2024-08-01 23:34:47			0	37070	0	0	0	30197	28800	164974	26876	1068572	45806	111241	0	0	8048	574558	0	0
2024-08-01 23:35:47			0	37057	0	0	0	30210	28810	164866	27123	1068581	45830	111246	0	0	8047	575042	0	0
2024-08-01 23:36:47			0	37084	0	0	0	30207	28810	164890	26899	1068607	45818	111245	0	0	8049	573968	0	0
2024-08-01 23:37:47			0	37061	0	0	0	30212	28790	164922	27154	1068554	45816	111247	0	0	8048	574949	0	0
2024-08-01 23:38:47			0	37064	0	0	0	30212	28800	164970	27069	1068590	45817	111247	0	0	8048	574796	0	0
2024-08-01 23:39:47			0	37074	0	0	0	30205	28800	164918	27039	1068598	45795	111244	0	0	8048	574399	0	0
2024-08-01 23:40:47			0	37056	0	0	0	30199	28800	164882	27225	1068563	45806	111242	0	0	8047	575115	0	0
2024-08-01 23:41:47			0	37070	0	0	0	30184	28800	164854	27048	1068455	45795	111236	0	0	8049	574558	0	0
2024-08-01 23:42:47			0	37076	0	0	0	30189	28790	164834	27093	1068464	45783	111238	0	0	8049	574352	0	0
2024-08-01 23:43:47			0	37075	0	0	0	30192	28780	164850	26906	1068446	45804	111239	0	0	8049	574425	0	0
2024-08-01 23:44:47			0	37079	0	0	0	30186	28780	164826	27166	1068473	45804	111237	0	0	8049	574266	0	0
2024-08-01 23:45:47			0	37067	0	0	0	30194	28800	164886	27164	1068563	45829	111240	0	0	8048	574677	0	0
2024-08-01 23:46:47			0	37080	0	0	0	30186	28780	164878	27306	1068482	45827	111237	0	0	8049	574227	0	0
2024-08-01 23:47:47			0	37075	0	0	0	30186	28790	164822	26842	1068491	45828	111237	0	0	8049	574392	0	0
2024-08-01 23:48:47			0	37090	0	0	0	30205	28790	164694	27046	1068491	45816	111244	0	0	8049	573796	0	0
2024-08-01 23:49:47			0	37095	0	0	0	30202	28790	164750	26795	1068545	45838	111243	0	0	8050	573597	0	0
2024-08-01 23:50:47			0	37114	0	0	0	30197	28790	164702	27059	1068500	45805	111241	0	0	8051	572843	0	0
2024-08-01 23:51:47			0	37085	0	0	0	30163	28780	164814	26679	1068374	45815	111228	0	0	8050	574028	0	0
2024-08-01 23:52:47			0	37119	0	0	0	30181	28790	164814	27029	1068473	45794	111235	0	0	8051	572644	0	0
2024-08-01 23:53:47			0	37105	0	0	0	30153	28780	164782	26899	1068374	45793	111224	0	0	8051	573233	0	0
2024-08-01 23:54:47			0	37113	0	0	0	30145	28780	164678	27225	1068374	45804	111221	0	0	8052	572916	0	0
2024-08-01 23:55:47			0	37127	0	0	0	30124	28770	164618	26944	1068302	45792	111213	0	0	8053	572393	0	0
2024-08-01 23:56:47			0	37119	0	0	0	30122	28760	164722	27135	1068257	45802	111212	0	0	8052	572744	0	0
2024-08-01 23:57:47			0	37108	0	0	0	30132	28750	164658	26937	1068203	45800	111216	0	0	8051	573214	0	0
2024-08-01 23:58:47			0	37124	0	0	0	30166	28750	164742	26842	1068176	45800	111229	0	0	8052	572579	0	0
2024-08-01 23:59:47			0	37138	0	0	0	30192	28750	164754	27312	1068320	45812	111239	0	0	8052	572023	0	0
2024-08-02 00:00:47			0	37155	0	0	0	30174	28750	164590	26892	1068293	45824	111232	0	0	8053	571349	0	0
2024-08-02 00:01:47			0	37147	0	0	0	30179	28760	164626	26712	1068356	45813	111234	0	0	8053	571633	0	0
2024-08-02 00:02:47			0	37149	0	0	0	30184	28750	164594	26899	1068338	45823	111236	0	0	8053	571587	0	0
2024-08-02 00:03:47			0	37134	0	0	0	30150	28760	164554	26854	1068329	45825	111223	0	0	8053	572149	0	0
2024-08-02 00:04:47			0	37139	0	0	0	30163	28740	164650	27074	1068275	45823	111228	0	0	8053	572017	0	0
2024-08-02 00:05:47			0	37130	0	0	0	30181	28750	164630	26979	1068311	45823	111235	0	0	8052	572341	0	0
2024-08-02 00:06:47			0	37124	0	0	0	30194	28740	164694	26757	1068383	45833	111240	0	0	8051	572612	0	0
2024-08-02 00:07:47			0	37104	0	0	0	30199	28760	164822	26670	1068445	45813	111242	0	0	8050	573339	0	0
2024-08-02 00:08:47			0	37139	0	0	0	30181	28760	164758	27022	1068356	45825	111235	0	0	8052	571950	0	0
2024-08-02 00:09:47			0	37099	0	0	0	30171	28760	164818	26750	1068383	45825	111231	0	0	8050	573538	0	0
2024-08-02 00:10:47			0	37094	0	0	0	30171	28760	164910	26941	1068365	45813	111231	0	0	8050	573737	0	0
2024-08-02 00:11:47			0	37077	0	0	0	30168	28760	164962	27066	1068356	45825	111230	0	0	8049	574412	0	0
2024-08-02 00:12:47			0	37061	0	0	0	30163	28760	164970	26989	1068356	45835	111228	0	0	8048	575049	0	0
2024-08-02 00:13:47			0	37066	0	0	0	30161	28760	164946	26951	1068311	45825	111227	0	0	8049	574850	0	0
2024-08-02 00:14:47			0	37047	0	0	0	30168	28760	164902	26580	1068418	45825	111230	0	0	8047	575606	0	0
2024-08-02 00:15:47			0	37060	0	0	0	30168	28760	165006	26863	1068356	45813	111230	0	0	8048	575089	0	0
2024-08-02 00:16:47			0	37056	0	0	0	30174	28760	165062	26684	1068383	45813	111232	0	0	8048	575248	0	0
2024-08-02 00:17:47			0	37047	0	0	0	30161	28760	165118	27005	1068472	45813	111227	0	0	8047	575606	0	0
2024-08-02 00:18:47			0	37054	0	0	0	30155	28770	165038	26920	1068374	45813	111225	0	0	8048	575294	0	0
2024-08-02 00:19:47			0	37062	0	0	0	30150	28760	165054	26628	1068383	45813	111223	0	0	8048	575009	0	0
2024-08-02 00:20:47			0	37034	0	0	0	30150	28760	165006	26838	1068338	45813	111223	0	0	8047	576124	0	0
2024-08-02 00:21:47			0	37053	0	0	0	30142	28750	164966	26896	1068374	45824	111220	0	0	8048	575401	0	0
2024-08-02 00:22:47			0	37036	0	0	0	30140	28760	165086	26873	1068410	45813	111219	0	0	8047	576044	0	0
2024-08-02 00:23:47			0	37034	0	0	0	30137	28760	165002	26849	1068329	45813	111218	0	0	8047	576124	0	0
2024-08-02 00:24:47			0	37039	0	0	0	30140	28760	165022	26878	1068302	45813	111219	0	0	8047	575925	0	0
2024-08-02 00:25:47			0	37041	0	0	0	30127	28740	165086	26842	1068302	45800	111214	0	0	8048	575912	0	0
2024-08-02 00:26:47			0	37031	0	0	0	30137	28750	165078	27062	1068311	45811	111218	0	0	8047	576277	0	0
2024-08-02 00:27:47			0	37044	0	0	0	30137	28750	165054	27057	1068284	45811	111218	0	0	8048	575759	0	0
2024-08-02 00:28:47			0	37053	0	0	0	30135	28750	165006	26706	1068257	45811	111217	0	0	8048	575401	0	0
2024-08-02 00:29:47			0	37062	0	0	0	30137	28740	164958	26918	1068275	45811	111218	0	0	8049	575076	0	0
2024-08-02 00:30:47			0	37076	0	0	0	30142	28750	164970	27024	1068284	45823	111220	0	0	8049	574485	0	0
2024-08-02 00:31:47			0	37070	0	0	0	30148	28750	164918	26899	1068257	45800	111222	0	0	8049	574724	0	0
2024-08-02 00:32:47			0	37072	0	0	0	30166	28750	164850	27229	1068338	45823	111229	0	0	8049	574645	0	0
2024-08-02 00:33:47			0	37069	0	0	0	30163	28750	165034	26951	1068347	45801	111228	0	0	8049	574764	0	0
2024-08-02 00:34:47			0	37067	0	0	0	30168	28750	164886	27019	1068347	45812	111230	0	0	8048	574843	0	0
2024-08-02 00:35:47			0	37068	0	0	0	30161	28760	164982	26706	1068410	45813	111227	0	0	8049	574770	0	0
2024-08-02 00:36:47			0	37059	0	0	0	30161	28750	164858	26804	1068374	45824	111227	0	0	8048	575162	0	0
2024-08-02 00:37:47			0	37075	0	0	0	30163	28760	164962	26875	1068356	45813	111228	0	0	8049	574492	0	0
2024-08-02 00:38:47			0	37066	0	0	0	30150	28750	164894	26807	1068338	45800	111223	0	0	8049	574883	0	0
2024-08-02 00:39:47			0	37068	0	0	0	30155	28760	164914	27140	1068329	45813	111225	0	0	8049	574770	0	0
2024-08-02 00:40:47			0	37062	0	0	0	30135	28750	164922	27003	1068311	45811	111217	0	0	8049	575042	0	0
2024-08-02 00:41:47			0	37072	0	0	0	30140	28750	164970	26856	1068320	45801	111219	0	0	8049	574645	0	0
2024-08-02 00:42:47			0	37064	0	0	0	30114	28740	164998	26896	1068275	45811	111209	0	0	8049	574996	0	0
2024-08-02 00:43:47			0	37060	0	0	0	30119	28740	164934	26762	1068293	45810	111211	0	0	8049	575155	0	0
2024-08-02 00:44:47			0	37057	0	0	0	30109	28740	164974	27008	1068194	45823	111207	0	0	8049	575275	0	0
2024-08-02 00:45:47			0	37058	0	0	0	30116	28740	164886	27060	1068185	45810	111210	0	0	8049	575235	0	0
2024-08-02 00:46:47			0	37091	0	0	0	30109	28730	164898	26928	1068149	45810	111207	0	0	8051	573956	0	0
2024-08-02 00:47:47			0	37077	0	0	0	30109	28730	164822	26953	1068230	45799	111207	0	0	8050	574512	0	0
2024-08-02 00:48:47			0	37085	0	0	0	30114	28720	164758	26911	1068212	45798	111209	0	0	8050	574227	0	0
2024-08-02 00:49:47			0	37101	0	0	0	30119	28720	164786	27203	1068176	45820	111211	0	0	8051	573591	0	0
2024-08-02 00:50:47			0	37090	0	0	0	30124	28730	164826	27052	1068203	45822	111213	0	0	8050	573995	0	0
2024-08-02 00:51:47			0	37106	0	0	0	30129	28720	164762	27079	1068203	45809	111215	0	0	8051	573393	0	0
2024-08-02 00:52:47			0	37120	0	0	0	30135	28720	164802	26982	1068203	45820	111217	0	0	8052	572837	0	0
2024-08-02 00:53:47			0	37104	0	0	0	30142	28720	164790	26816	1068203	45820	111220	0	0	8051	573472	0	0
2024-08-02 00:54:47			0	37102	0	0	0	30145	28730	164850	26793	1068248	45809	111221	0	0	8051	573518	0	0
2024-08-02 00:55:47			0	37107	0	0	0	30122	28720	164826	26873	1068266	45809	111212	0	0	8051	573353	0	0
2024-08-02 00:56:47			0	37119	0	0	0	30109	28730	164730	26927	1068113	45809	111207	0	0	8052	572843	0	0
2024-08-02 00:57:47			0	37100	0	0	0	30088	28720	164798	27074	1068185	45809	111199	0	0	8052	573631	0	0
2024-08-02 00:58:47			0	37095	0	0	0	30088	28720	164794	26807	1068122	45797	111199	0	0	8051	573830	0	0
2024-08-02 00:59:47			0	37096	0	0	0	30075	28710	164738	27098	1068032	45787	111194	0	0	8051	573823	0	0
2024-08-02 01:00:47			0	37100	0	0	0	30080	28710	164778	27079	1068131	45808	111196	0	0	8052	573664	0	0
2024-08-02 01:01:47			0	37110	0	0	0	30075	28710	164778	26750	1068005	45787	111194	0	0	8052	573267	0	0
2024-08-02 01:02:47			0	37129	0	0	0	30070	28700	164698	26769	1068032	45795	111192	0	0	8053	572546	0	0
2024-08-02 01:03:47			0	37135	0	0	0	30067	28700	164838	26889	1068014	45796	111191	0	0	8054	572308	0	0
2024-08-02 01:04:47			0	37136	0	0	0	30064	28690	164630	27019	1067888	45818	111190	0	0	8054	572301	0	0
2024-08-02 01:05:47			0	37143	0	0	0	30070	28690	164642	26823	1067942	45795	111192	0	0	8054	572024	0	0
2024-08-02 01:06:47			0	37140	0	0	0	30070	28690	164674	26743	1067987	45817	111192	0	0	8054	572143	0	0
2024-08-02 01:07:47			0	37164	0	0	0	30054	28680	164570	26606	1067924	45817	111186	0	0	8056	571224	0	0
2024-08-02 01:08:47			0	37167	0	0	0	30064	28690	164670	26523	1067996	45829	111190	0	0	8056	571072	0	0
2024-08-02 01:09:47			0	37184	0	0	0	30080	28680	164538	27133	1067924	45794	111196	0	0	8056	570432	0	0
2024-08-02 01:10:47			0	37175	0	0	0	30077	28690	164486	27121	1067987	45806	111195	0	0	8056	570755	0	0
2024-08-02 01:11:47			0	37178	0	0	0	30075	28680	164490	26715	1067969	45816	111194	0	0	8056	570670	0	0
2024-08-02 01:12:47			0	37197	0	0	0	30067	28680	164486	26986	1067951	45806	111191	0	0	8057	569918	0	0
2024-08-02 01:13:47			0	37173	0	0	0	30057	28680	164554	26526	1067924	45817	111187	0	0	8056	570868	0	0
2024-08-02 01:14:47			0	37198	0	0	0	30070	28680	164414	26887	1067951	45817	111192	0	0	8057	569878	0	0
2024-08-02 01:15:47			0	37178	0	0	0	30067	28680	164422	26885	1067969	45816	111191	0	0	8056	570670	0	0
2024-08-02 01:16:47			0	37196	0	0	0	30057	28670	164494	26710	1067879	45804	111187	0	0	8057	569990	0	0
2024-08-02 01:17:47			0	37200	0	0	0	30046	28670	164430	26982	1067826	45804	111183	0	0	8058	569832	0	0
2024-08-02 01:18:47			0	37177	0	0	0	30033	28660	164546	27111	1067817	45792	111178	0	0	8057	570775	0	0
2024-08-02 01:19:47			0	37167	0	0	0	30041	28670	164718	26713	1067879	45792	111181	0	0	8056	571138	0	0
2024-08-02 01:20:47			0	37131	0	0	0	30033	28660	164786	26944	1067754	45803	111178	0	0	8054	572599	0	0
2024-08-02 01:21:47			0	37097	0	0	0	30041	28650	164938	27078	1067718	45803	111181	0	0	8052	573983	0	0
2024-08-02 01:22:47			0	37059	0	0	0	30036	28650	165102	26776	1067799	45803	111179	0	0	8050	575495	0	0
2024-08-02 01:23:47			0	37006	0	0	0	30038	28660	165278	26802	1067808	45825	111180	0	0	8047	577575	0	0
2024-08-02 01:24:47			0	36953	0	0	0	30031	28650	165494	26982	1067799	45814	111177	0	0	8044	579727	0	0
2024-08-02 01:25:47			0	36908	0	0	0	30025	28640	165798	27131	1067780	45802	111175	0	0	8041	581563	0	0
2024-08-02 01:26:47			0	36857	0	0	0	30028	28640	165942	27005	1067807	45813	111176	0	0	8038	583611	0	0
2024-08-02 01:27:47			0	36830	0	0	0	30020	28650	165978	26993	1067763	45768	111173	0	0	8037	584663	0	0
2024-08-02 01:28:47			0	36820	0	0	0	30023	28640	166138	26974	1067771	45801	111174	0	0	8036	585100	0	0
2024-08-02 01:29:47			0	36799	0	0	0	30033	28640	166282	27152	1067717	45790	111178	0	0	8034	585946	0	0
2024-08-02 01:30:47			0	36768	0	0	0	30033	28630	166490	27031	1067789	45801	111178	0	0	8033	587231	0	0
2024-08-02 01:31:47			0	36740	0	0	0	30020	28640	166530	26935	1067798	45801	111173	0	0	8031	588328	0	0
2024-08-02 01:32:47			0	36691	0	0	0	30020	28630	166718	26956	1067700	45800	111173	0	0	8028	590345	0	0
2024-08-02 01:33:47			0	36668	0	0	0	29994	28630	166858	26873	1067700	45800	111163	0	0	8027	591277	0	0
2024-08-02 01:34:47			0	36615	0	0	0	29992	28630	167050	26871	1067646	45789	111162	0	0	8024	593429	0	0
2024-08-02 01:35:47			0	36565	0	0	0	29986	28610	167213	27076	1067646	45788	111160	0	0	8021	595534	0	0
2024-08-02 01:36:47			0	36535	0	0	0	29994	28620	167373	26953	1067574	45810	111163	0	0	8019	596723	0	0
2024-08-02 01:37:47			0	36525	0	0	0	30002	28610	167353	26984	1067646	45799	111166	0	0	8019	597166	0	0
2024-08-02 01:38:47			0	36509	0	0	0	30007	28610	167625	26960	1067637	45787	111168	0	0	8018	597820	0	0
2024-08-02 01:39:47			0	36478	0	0	0	30002	28620	167669	26928	1067628	45821	111166	0	0	8016	599053	0	0
2024-08-02 01:40:47			0	36465	0	0	0	29992	28620	167789	26807	1067601	45788	111162	0	0	8015	599585	0	0
2024-08-02 01:41:47			0	36427	0	0	0	29981	28600	167957	26906	1067547	45808	111158	0	0	8013	601213	0	0
2024-08-02 01:42:47			0	36373	0	0	0	29992	28600	168261	26967	1067601	45808	111162	0	0	8010	603431	0	0
2024-08-02 01:43:47			0	36324	0	0	0	29999	28600	168485	27001	1067601	45808	111165	0	0	8007	605449	0	0
2024-08-02 01:44:47			0	36271	0	0	0	30018	28600	168657	26993	1067592	45797	111172	0	0	8003	607637	0	0
2024-08-02 01:45:47			0	36230	0	0	0	30031	28590	168877	26752	1067583	45786	111177	0	0	8000	609369	0	0
2024-08-02 01:46:47			0	36180	0	0	0	30038	28600	169037	26965	1067646	45797	111180	0	0	7997	611407	0	0
2024-08-02 01:47:47			0	36128	0	0	0	30062	28600	169361	27060	1067655	45797	111189	0	0	7994	613568	0	0
2024-08-02 01:48:47			0	36032	0	0	0	30080	28600	169693	26791	1067682	45808	111196	0	0	7988	617573	0	0
2024-08-02 01:49:47			0	35969	0	0	0	30080	28610	170005	26719	1067753	45810	111196	0	0	7984	620175	0	0
2024-08-02 01:50:47			0	35902	0	0	0	30077	28610	170185	26798	1067745	45809	111195	0	0	7980	622989	0	0
2024-08-02 01:51:47			0	35852	0	0	0	30057	28610	170557	26968	1067727	45810	111187	0	0	7977	625095	0	0
2024-08-02 01:52:47			0	35814	0	0	0	30075	28630	170656	26979	1067789	45823	111194	0	0	7975	626627	0	0
2024-08-02 01:53:47			0	35797	0	0	0	30080	28630	170964	26920	1067807	45822	111196	0	0	7974	627345	0	0
2024-08-02 01:54:47			0	35795	0	0	0	30077	28640	170844	27097	1067852	45834	111195	0	0	7974	627393	0	0
2024-08-02 01:55:47			0	35771	0	0	0	30080	28640	170944	26797	1067852	45823	111196	0	0	7972	628409	0	0
2024-08-02 01:56:47			0	35769	0	0	0	30062	28650	170872	26628	1067871	45824	111189	0	0	7972	628457	0	0
2024-08-02 01:57:47			0	35774	0	0	0	30044	28650	170928	26935	1067844	45824	111182	0	0	7973	628245	0	0
2024-08-02 01:58:47			0	35785	0	0	0	30036	28650	170884	26493	1067817	45813	111179	0	0	7974	627780	0	0
2024-08-02 01:59:47			0	35769	0	0	0	30005	28650	170824	26882	1067763	45791	111167	0	0	7973	628457	0	0
2024-08-02 02:00:47			0	35761	0	0	0	29958	28630	170920	26729	1067628	45790	111149	0	0	7974	628868	0	0
2024-08-02 02:01:47			0	35728	0	0	0	29937	28610	171028	26672	1067484	45777	111141	0	0	7972	630340	0	0
2024-08-02 02:02:47			0	35689	0	0	0	29945	28590	171320	26606	1067529	45763	111144	0	0	7969	632070	0	0
2024-08-02 02:03:47			0	35652	0	0	0	29953	28600	171464	26844	1067538	45797	111147	0	0	7967	633607	0	0
2024-08-02 02:04:47			0	35604	0	0	0	29963	28580	171620	26819	1067457	45795	111151	0	0	7964	635727	0	0
2024-08-02 02:05:47			0	35610	0	0	0	29971	28590	171776	26975	1067493	45807	111154	0	0	7964	635434	0	0
2024-08-02 02:06:47			0	35582	0	0	0	29992	28580	171840	26932	1067475	45795	111162	0	0	7962	636667	0	0
2024-08-02 02:07:47			0	35590	0	0	0	30041	28580	171864	27048	1067538	45806	111181	0	0	7962	636325	0	0
2024-08-02 02:08:47			0	35562	0	0	0	30015	28590	171960	27069	1067628	45807	111171	0	0	7960	637485	0	0
2024-08-02 02:09:47			0	35577	0	0	0	30010	28590	171968	27260	1067637	45808	111169	0	0	7961	636844	0	0
2024-08-02 02:10:47			0	35565	0	0	0	29992	28590	172008	26956	1067556	45797	111162	0	0	7961	637357	0	0
2024-08-02 02:11:47			0	35555	0	0	0	30012	28590	171976	26937	1067529	45808	111170	0	0	7960	637785	0	0
2024-08-02 02:12:47			0	35552	0	0	0	30036	28590	172008	27175	1067610	45820	111179	0	0	7959	637913	0	0
2024-08-02 02:13:47			0	35564	0	0	0	30059	28600	172028	27088	1067646	45808	111188	0	0	7960	637363	0	0
2024-08-02 02:14:47			0	35557	0	0	0	30067	28610	171888	26982	1067745	45798	111191	0	0	7959	637625	0	0
2024-08-02 02:15:47			0	35563	0	0	0	30059	28610	171964	27088	1067745	45820	111188	0	0	7960	637369	0	0
2024-08-02 02:16:47			0	35561	0	0	0	30020	28620	172024	26474	1067735	45821	111173	0	0	7960	637417	0	0
2024-08-02 02:17:47			0	35588	0	0	0	29963	28630	171888	26961	1067673	45800	111151	0	0	7963	636226	0	0
2024-08-02 02:18:47			0	35578	0	0	0	29976	28600	171792	26670	1067574	45808	111156	0	0	7962	636764	0	0
2024-08-02 02:19:47			0	35588	0	0	0	29981	28600	171840	26960	1067547	45797	111158	0	0	7963	636337	0	0
2024-08-02 02:20:47			0	35579	0	0	0	29999	28600	171928	27055	1067574	45786	111165	0	0	7962	636721	0	0
2024-08-02 02:21:47			0	35596	0	0	0	29979	28590	171812	26634	1067583	45786	111157	0	0	7963	636032	0	0
2024-08-02 02:22:47			0	35578	0	0	0	29973	28590	171800	26890	1067502	45797	111155	0	0	7962	636801	0	0
2024-08-02 02:23:47			0	35583	0	0	0	29986	28590	171944	26837	1067520	45796	111160	0	0	7962	636587	0	0
2024-08-02 02:24:47			0	35568	0	0	0	29971	28590	171972	26981	1067574	45796	111154	0	0	7961	637229	0	0
2024-08-02 02:25:47			0	35563	0	0	0	29973	28600	171992	26885	1067619	45808	111155	0	0	7961	637405	0	0
2024-08-02 02:26:47			0	35555	0	0	0	29945	28580	171920	26868	1067475	45795	111144	0	0	7961	637822	0	0
2024-08-02 02:27:47			0	35577	0	0	0	29924	28580	171984	26729	1067367	45795	111136	0	0	7963	636881	0	0
2024-08-02 02:28:47			0	35550	0	0	0	29916	28570	171988	26542	1067304	45794	111133	0	0	7961	638073	0	0
2024-08-02 02:29:47			0	35550	0	0	0	29890	28570	172008	26977	1067268	45760	111123	0	0	7962	638073	0	0
2024-08-02 02:30:47			0	35559	0	0	0	29896	28560	172008	26838	1067223	45770	111125	0	0	7962	637724	0	0
2024-08-02 02:31:47			0	35557	0	0	0	29885	28550	172028	26958	1067152	45770	111121	0	0	7962	637847	0	0
2024-08-02 02:32:47			0	35537	0	0	0	29906	28530	172056	26845	1067179	45791	111129	0	0	7960	638777	0	0
2024-08-02 02:33:47			0	35533	0	0	0	29906	28530	172088	26847	1067206	45791	111129	0	0	7960	638948	0	0
2024-08-02 02:34:47			0	35535	0	0	0	29914	28540	172160	26668	1067188	45801	111132	0	0	7960	638826	0	0
2024-08-02 02:35:47			0	35551	0	0	0	29914	28530	172080	26623	1067179	45791	111132	0	0	7961	638177	0	0
2024-08-02 02:36:47			0	35555	0	0	0	29898	28520	172036	26686	1067160	45790	111126	0	0	7962	638043	0	0
2024-08-02 02:37:47			0	35554	0	0	0	29877	28520	172040	26661	1067106	45800	111118	0	0	7962	638086	0	0
2024-08-02 02:38:47			0	35545	0	0	0	29875	28530	172072	26857	1067089	45779	111117	0	0	7961	638434	0	0
2024-08-02 02:39:47			0	35528	0	0	0	29877	28520	172104	27036	1067044	45789	111118	0	0	7960	639200	0	0
2024-08-02 02:40:47			0	35526	0	0	0	29872	28520	172252	26807	1067106	45790	111116	0	0	7960	639285	0	0
2024-08-02 02:41:47			0	35519	0	0	0	29867	28500	172340	26511	1067017	45788	111114	0	0	7960	639659	0	0
2024-08-02 02:42:47			0	35521	0	0	0	29870	28500	172276	26944	1066981	45809	111115	0	0	7960	639574	0	0
2024-08-02 02:43:47			0	35522	0	0	0	29877	28510	172300	26944	1067053	45799	111118	0	0	7960	639494	0	0
2024-08-02 02:44:47			0	35532	0	0	0	29885	28500	172208	26804	1067044	45798	111121	0	0	7960	639102	0	0
2024-08-02 02:45:47			0	35530	0	0	0	29877	28490	172180	27197	1066999	45796	111118	0	0	7960	639225	0	0
2024-08-02 02:46:47			0	35549	0	0	0	29870	28500	172304	26887	1067008	45809	111115	0	0	7962	638374	0	0
2024-08-02 02:47:47			0	35544	0	0	0	29880	28490	172240	26972	1067017	45786	111119	0	0	7961	638625	0	0
2024-08-02 02:48:47			0	35560	0	0	0	29903	28500	172268	26946	1067062	45787	111128	0	0	7962	637903	0	0
2024-08-02 02:49:47			0	35558	0	0	0	29906	28500	172224	26811	1067098	45810	111129	0	0	7961	637989	0	0
2024-08-02 02:50:47			0	35560	0	0	0	29916	28500	172040	26611	1067035	45797	111133	0	0	7961	637903	0	0
2024-08-02 02:51:47			0	35555	0	0	0	29909	28510	172136	26706	1067133	45822	111130	0	0	7961	638080	0	0
2024-08-02 02:52:47			0	35562	0	0	0	29919	28510	172080	26915	1067115	45811	111134	0	0	7962	637780	0	0
2024-08-02 02:53:47			0	35550	0	0	0	29901	28500	172200	26826	1067124	45810	111127	0	0	7961	638331	0	0
2024-08-02 02:54:47			0	35568	0	0	0	29890	28510	172180	26706	1067106	45799	111123	0	0	7962	637524	0	0
2024-08-02 02:55:47			0	35559	0	0	0	29901	28490	172216	26847	1067107	45786	111127	0	0	7962	637983	0	0
2024-08-02 02:56:47			0	35550	0	0	0	29893	28500	172172	26984	1067035	45787	111124	0	0	7961	638331	0	0
2024-08-02 02:57:47			0	35564	0	0	0	29880	28500	172184	26752	1067071	45788	111119	0	0	7962	637732	0	0
2024-08-02 02:58:47			0	35555	0	0	0	29883	28500	172152	27012	1067062	45797	111120	0	0	7962	638117	0	0
2024-08-02 02:59:47			0	35580	0	0	0	29880	28500	172124	26967	1067008	45797	111119	0	0	7963	637047	0	0
2024-08-02 03:00:47			0	35577	0	0	0	29883	28500	172040	27034	1067008	45797	111120	0	0	7963	637176	0	0
2024-08-02 03:01:47			0	35584	0	0	0	29888	28500	172088	27145	1067008	45787	111122	0	0	7963	636876	0	0
2024-08-02 03:02:47			0	35614	0	0	0	29901	28490	171944	26847	1067026	45808	111127	0	0	7965	635631	0	0
2024-08-02 03:03:47			0	35616	0	0	0	29898	28490	171888	27098	1067071	45808	111126	0	0	7965	635546	0	0
2024-08-02 03:04:47			0	35646	0	0	0	29901	28500	171852	26689	1067044	45798	111127	0	0	7967	634230	0	0
2024-08-02 03:05:47			0	35635	0	0	0	29888	28500	171836	26726	1067098	45810	111122	0	0	7966	634699	0	0
2024-08-02 03:06:47			0	35629	0	0	0	29875	28500	171808	26909	1067017	45788	111117	0	0	7966	634954	0	0
2024-08-02 03:07:47			0	35653	0	0	0	29880	28500	171816	26894	1067017	45798	111119	0	0	7968	633931	0	0
2024-08-02 03:08:47			0	35665	0	0	0	29885	28490	171760	26828	1066990	45786	111121	0	0	7968	633457	0	0
2024-08-02 03:09:47			0	35663	0	0	0	29890	28500	171692	26970	1067035	45797	111123	0	0	7968	633505	0	0
2024-08-02 03:10:47			0	35669	0	0	0	29893	28490	171556	26871	1067026	45808	111124	0	0	7968	633287	0	0
2024-08-02 03:11:47			0	35684	0	0	0	29883	28490	171572	26878	1066972	45808	111120	0	0	7970	632648	0	0
2024-08-02 03:12:47			0	35692	0	0	0	29870	28500	171560	27060	1066981	45809	111115	0	0	7970	632271	0	0
2024-08-02 03:13:47			0	35691	0	0	0	29880	28490	171600	26769	1066972	45808	111119	0	0	7970	632350	0	0
2024-08-02 03:14:47			0	35684	0	0	0	29877	28490	171592	27135	1066999	45796	111118	0	0	7970	632648	0	0
2024-08-02 03:15:47			0	35692	0	0	0	29857	28480	171636	26616	1066918	45785	111110	0	0	7970	632344	0	0
2024-08-02 03:16:47			0	35699	0	0	0	29867	28490	171520	26703	1066963	45808	111114	0	0	7971	632010	0	0
2024-08-02 03:17:47			0	35696	0	0	0	29875	28480	171520	27121	1066954	45796	111117	0	0	7970	632174	0	0
2024-08-02 03:18:47			0	35677	0	0	0	29875	28490	171632	26913	1066909	45786	111117	0	0	7969	632946	0	0
2024-08-02 03:19:47			0	35712	0	0	0	29864	28490	171464	26965	1066990	45796	111113	0	0	7972	631457	0	0
2024-08-02 03:20:47			0	35709	0	0	0	29864	28480	171428	26753	1066945	45795	111113	0	0	7971	631622	0	0
2024-08-02 03:21:47			0	35707	0	0	0	29875	28480	171464	27069	1066918	45785	111117	0	0	7971	631707	0	0
2024-08-02 03:22:47			0	35718	0	0	0	29893	28490	171412	26981	1066972	45796	111124	0	0	7971	631203	0	0
2024-08-02 03:23:47			0	35730	0	0	0	29893	28480	171292	26863	1066981	45808	111124	0	0	7972	630730	0	0
2024-08-02 03:24:47			0	35754	0	0	0	29906	28480	171316	26814	1067008	45786	111129	0	0	7973	629711	0	0
2024-08-02 03:25:47			0	35762	0	0	0	29909	28490	171180	26873	1067107	45808	111130	0	0	7974	629336	0	0
2024-08-02 03:26:47			0	35758	0	0	0	29911	28490	171204	26928	1067107	45808	111131	0	0	7974	629505	0	0
2024-08-02 03:27:47			0	35768	0	0	0	29893	28500	171124	26804	1067089	45797	111124	0	0	7975	629045	0	0
2024-08-02 03:28:47			0	35748	0	0	0	29880	28490	171180	26769	1067053	45796	111119	0	0	7973	629929	0	0
2024-08-02 03:29:47			0	35744	0	0	0	29859	28490	171244	27140	1067017	45786	111111	0	0	7974	630099	0	0
2024-08-02 03:30:47			0	35749	0	0	0	29831	28490	171268	27064	1066936	45786	111100	0	0	7974	629887	0	0
2024-08-02 03:31:47			0	35736	0	0	0	29825	28480	171300	26949	1066819	45786	111098	0	0	7974	630475	0	0
2024-08-02 03:32:47			0	35743	0	0	0	29833	28470	171292	27109	1066855	45784	111101	0	0	7974	630214	0	0
2024-08-02 03:33:47			0	35750	0	0	0	29825	28470	171136	26987	1066882	45784	111098	0	0	7974	629917	0	0
2024-08-02 03:34:47			0	35788	0	0	0	29812	28470	171128	27121	1066828	45784	111093	0	0	7977	628307	0	0
2024-08-02 03:35:47			0	35788	0	0	0	29810	28460	171004	26752	1066693	45783	111092	0	0	7977	628344	0	0
2024-08-02 03:36:47			0	35807	0	0	0	29810	28460	170940	26786	1066720	45783	111092	0	0	7978	627539	0	0
2024-08-02 03:37:47			0	35813	0	0	0	29807	28450	170856	26937	1066702	45771	111091	0	0	7978	627322	0	0
2024-08-02 03:38:47			0	35830	0	0	0	29818	28450	170924	26793	1066702	45782	111095	0	0	7979	626603	0	0
2024-08-02 03:39:47			0	35842	0	0	0	29841	28430	170920	26849	1066756	45791	111104	0	0	7980	626169	0	0
2024-08-02 03:40:47			0	35849	0	0	0	29833	28450	170848	27133	1066783	45792	111101	0	0	7980	625801	0	0
2024-08-02 03:41:47			0	35847	0	0	0	29836	28440	170732	26972	1066738	45803	111102	0	0	7980	625921	0	0
2024-08-02 03:42:47			0	35847	0	0	0	29854	28440	170784	27031	1066774	45792	111109	0	0	7980	625921	0	0
2024-08-02 03:43:47			0	35861	0	0	0	29859	28450	170713	27265	1066756	45792	111111	0	0	7980	625294	0	0
2024-08-02 03:44:47			0	35862	0	0	0	29867	28450	170685	27187	1066837	45804	111114	0	0	7980	625252	0	0
2024-08-02 03:45:47			0	35867	0	0	0	29862	28450	170645	27159	1066864	45804	111112	0	0	7981	625041	0	0
2024-08-02 03:46:47			0	35871	0	0	0	29872	28460	170761	26450	1066855	45793	111116	0	0	7981	624836	0	0
2024-08-02 03:47:47			0	35873	0	0	0	29877	28450	170641	26849	1066819	45792	111118	0	0	7981	624788	0	0
2024-08-02 03:48:47			0	35889	0	0	0	29877	28450	170605	26771	1066900	45792	111118	0	0	7982	624114	0	0
2024-08-02 03:49:47			0	35890	0	0	0	29883	28460	170581	27045	1066999	45806	111120	0	0	7982	624035	0	0
2024-08-02 03:50:47			0	35893	0	0	0	29890	28470	170509	26977	1066900	45794	111123	0	0	7982	623873	0	0
2024-08-02 03:51:47			0	35898	0	0	0	29903	28460	170477	27062	1066972	45794	111128	0	0	7982	623699	0	0
2024-08-02 03:52:47			0	35885	0	0	0	29877	28480	170593	27027	1066972	45807	111118	0	0	7982	624174	0	0
2024-08-02 03:53:47			0	35876	0	0	0	29836	28480	170509	27133	1066891	45785	111102	0	0	7982	624553	0	0
2024-08-02 03:54:47			0	35851	0	0	0	29820	28470	170600	26970	1066819	45794	111096	0	0	7981	625644	0	0
2024-08-02 03:55:47			0	35830	0	0	0	29810	28460	170836	26930	1066810	45794	111092	0	0	7979	626567	0	0
2024-08-02 03:56:47			0	35828	0	0	0	29807	28470	170784	26623	1066765	45784	111091	0	0	7979	626615	0	0
2024-08-02 03:57:47			0	35811	0	0	0	29799	28440	170920	26797	1066747	45782	111088	0	0	7978	627443	0	0
2024-08-02 03:58:47			0	35817	0	0	0	29789	28450	170840	26757	1066676	45771	111084	0	0	7979	627153	0	0
2024-08-02 03:59:47			0	35825	0	0	0	29779	28440	170888	26949	1066640	45782	111080	0	0	7980	626851	0	0
2024-08-02 04:00:47			0	35811	0	0	0	29761	28440	170984	26790	1066550	45803	111073	0	0	7979	627443	0	0
2024-08-02 04:01:47			0	35808	0	0	0	29761	28430	170912	26979	1066505	45779	111073	0	0	7979	627606	0	0
2024-08-02 04:02:47			0	35794	0	0	0	29758	28410	171080	26951	1066478	45767	111072	0	0	7978	628271	0	0
2024-08-02 04:03:47			0	35798	0	0	0	29758	28410	170936	26944	1066496	45777	111072	0	0	7978	628102	0	0
2024-08-02 04:04:47			0	35822	0	0	0	29758	28390	170852	26668	1066496	45765	111072	0	0	7980	627159	0	0
2024-08-02 04:05:47			0	35815	0	0	0	29755	28400	170980	26668	1066478	45799	111071	0	0	7979	627419	0	0
2024-08-02 04:06:47			0	35828	0	0	0	29753	28380	170940	26733	1066433	45775	111070	0	0	7980	626941	0	0
2024-08-02 04:07:47			0	35836	0	0	0	29753	28380	170864	26849	1066370	45787	111070	0	0	7980	626603	0	0
2024-08-02 04:08:47			0	35842	0	0	0	29750	28380	170908	26720	1066406	45775	111069	0	0	7981	626350	0	0
2024-08-02 04:09:47			0	35839	0	0	0	29737	28370	170840	26800	1066334	45787	111064	0	0	7981	626513	0	0
2024-08-02 04:10:47			0	35867	0	0	0	29745	28370	170741	26896	1066388	45787	111067	0	0	7982	625330	0	0
2024-08-02 04:11:47			0	35867	0	0	0	29740	28370	170697	26713	1066352	45774	111065	0	0	7982	625330	0	0
2024-08-02 04:12:47			0	35879	0	0	0	29729	28360	170809	26746	1066370	45785	111061	0	0	7983	624860	0	0
2024-08-02 04:13:47			0	35897	0	0	0	29727	28360	170673	26812	1066280	45784	111060	0	0	7984	624101	0	0
2024-08-02 04:14:47			0	35888	0	0	0	29724	28370	170593	26937	1066298	45774	111059	0	0	7984	624445	0	0
2024-08-02 04:15:47			0	35912	0	0	0	29719	28350	170613	26833	1066298	45772	111057	0	0	7985	623505	0	0
2024-08-02 04:16:47			0	35912	0	0	0	29724	28350	170589	26837	1066298	45772	111059	0	0	7985	623505	0	0
2024-08-02 04:17:47			0	35926	0	0	0	29750	28360	170461	26819	1066226	45772	111069	0	0	7986	622880	0	0
2024-08-02 04:18:47			0	35935	0	0	0	29750	28360	170617	26923	1066334	45805	111069	0	0	7986	622501	0	0
2024-08-02 04:19:47			0	35957	0	0	0	29758	28360	170397	26691	1066361	45784	111072	0	0	7988	621576	0	0
2024-08-02 04:20:47			0	35958	0	0	0	29755	28360	170345	26828	1066334	45784	111071	0	0	7988	621534	0	0
2024-08-02 04:21:47			0	35973	0	0	0	29748	28350	170349	26687	1066316	45784	111068	0	0	7989	620940	0	0
2024-08-02 04:22:47			0	35981	0	0	0	29740	28350	170257	26727	1066316	45772	111065	0	0	7989	620604	0	0
2024-08-02 04:23:47			0	35985	0	0	0	29748	28350	170353	26972	1066289	45784	111068	0	0	7989	620437	0	0
2024-08-02 04:24:47			0	35965	0	0	0	29742	28350	170313	26778	1066298	45784	111066	0	0	7988	621276	0	0
2024-08-02 04:25:47			0	35974	0	0	0	29742	28350	170329	26776	1066352	45784	111066	0	0	7989	620898	0	0
2024-08-02 04:26:47			0	35968	0	0	0	29755	28360	170309	26871	1066334	45784	111071	0	0	7988	621114	0	0
2024-08-02 04:27:47			0	35970	0	0	0	29766	28350	170329	26892	1066343	45784	111075	0	0	7988	621066	0	0
2024-08-02 04:28:47			0	35987	0	0	0	29776	28360	170261	26949	1066451	45785	111079	0	0	7989	620317	0	0
2024-08-02 04:29:47			0	35989	0	0	0	29781	28360	170269	26871	1066469	45794	111081	0	0	7989	620233	0	0
2024-08-02 04:30:47			0	35988	0	0	0	29786	28370	170193	26894	1066433	45786	111083	0	0	7989	620239	0	0
2024-08-02 04:31:47			0	35990	0	0	0	29789	28370	170165	27059	1066514	45796	111084	0	0	7989	620155	0	0
2024-08-02 04:32:47			0	35985	0	0	0	29789	28380	170093	26899	1066451	45797	111084	0	0	7989	620329	0	0
2024-08-02 04:33:47			0	35997	0	0	0	29779	28370	170189	26733	1066487	45796	111080	0	0	7990	619861	0	0
2024-08-02 04:34:47			0	35987	0	0	0	29771	28370	170165	26915	1066433	45786	111077	0	0	7989	620281	0	0
2024-08-02 04:35:47			0	35966	0	0	0	29776	28370	170269	26953	1066460	45796	111079	0	0	7988	621162	0	0
2024-08-02 04:36:47			0	35966	0	0	0	29784	28380	170253	27112	1066505	45797	111082	0	0	7988	621127	0	0
2024-08-02 04:37:47			0	35980	0	0	0	29774	28370	170297	26687	1066442	45787	111078	0	0	7989	620575	0	0
2024-08-02 04:38:47			0	35959	0	0	0	29784	28380	170213	27104	1066478	45797	111082	0	0	7987	621421	0	0
2024-08-02 04:39:47			0	35952	0	0	0	29779	28380	170209	26665	1066424	45775	111080	0	0	7987	621715	0	0
2024-08-02 04:40:47			0	35968	0	0	0	29781	28370	170213	27064	1066442	45797	111081	0	0	7988	621079	0	0
2024-08-02 04:41:47			0	35963	0	0	0	29766	28370	170185	26953	1066442	45787	111075	0	0	7988	621288	0	0
2024-08-02 04:42:47			0	35941	0	0	0	29761	28370	170337	26759	1066415	45787	111073	0	0	7987	622213	0	0
2024-08-02 04:43:47			0	35940	0	0	0	29758	28370	170349	26977	1066388	45775	111072	0	0	7987	622255	0	0
2024-08-02 04:44:47			0	35939	0	0	0	29748	28380	170293	26920	1066424	45797	111068	0	0	7987	622261	0	0
2024-08-02 04:45:47			0	35914	0	0	0	29740	28370	170345	26762	1066433	45774	111065	0	0	7985	623349	0	0
2024-08-02 04:46:47			0	35924	0	0	0	29755	28360	170393	26812	1066334	45761	111071	0	0	7986	622964	0	0
2024-08-02 04:47:47			0	35907	0	0	0	29748	28360	170393	26637	1066370	45773	111068	0	0	7985	623680	0	0
2024-08-02 04:48:47			0	35922	0	0	0	29750	28370	170485	26880	1066352	45796	111069	0	0	7986	623012	0	0
2024-08-02 04:49:47			0	35915	0	0	0	29732	28360	170489	26939	1066280	45772	111062	0	0	7985	623343	0	0
2024-08-02 04:50:47			0	35892	0	0	0	29732	28360	170525	26972	1066307	45772	111062	0	0	7984	624312	0	0
2024-08-02 04:51:47			0	35920	0	0	0	29732	28360	170581	27074	1066334	45805	111062	0	0	7986	623133	0	0
2024-08-02 04:52:47			0	35927	0	0	0	29735	28350	170461	27109	1066289	45784	111063	0	0	7986	622874	0	0
2024-08-02 04:53:47			0	35914	0	0	0	29724	28350	170457	27062	1066289	45772	111059	0	0	7985	623421	0	0
2024-08-02 04:54:47			0	35922	0	0	0	29745	28350	170549	27118	1066289	45784	111067	0	0	7986	623084	0	0
2024-08-02 04:55:47			0	35924	0	0	0	29742	28340	170501	26842	1066361	45771	111066	0	0	7986	623036	0	0
2024-08-02 04:56:47			0	35926	0	0	0	29735	28350	170589	26833	1066298	45772	111063	0	0	7986	622916	0	0
2024-08-02 04:57:47			0	35920	0	0	0	29753	28350	170529	26755	1066244	45772	111070	0	0	7985	623169	0	0
2024-08-02 04:58:47			0	35938	0	0	0	29753	28350	170393	26736	1066316	45772	111070	0	0	7986	622411	0	0
2024-08-02 04:59:47			0	35930	0	0	0	29753	28350	170501	27052	1066352	45794	111070	0	0	7986	622748	0	0
2024-08-02 05:00:47			0	35931	0	0	0	29753	28350	170497	26670	1066352	45794	111070	0	0	7986	622706	0	0
2024-08-02 05:01:47			0	35918	0	0	0	29737	28350	170477	26686	1066352	45805	111064	0	0	7985	623253	0	0
2024-08-02 05:02:47			0	35919	0	0	0	29740	28360	170433	26894	1066334	45772	111065	0	0	7986	623175	0	0
2024-08-02 05:03:47			0	35921	0	0	0	29735	28340	170557	26613	1066307	45771	111063	0	0	7986	623162	0	0
2024-08-02 05:04:47			0	35896	0	0	0	29732	28350	170605	26946	1066235	45772	111062	0	0	7984	624180	0	0
2024-08-02 05:05:47			0	35886	0	0	0	29724	28340	170653	26870	1066244	45782	111059	0	0	7984	624637	0	0
2024-08-02 05:06:47			0	35906	0	0	0	29698	28340	170717	26977	1066226	45783	111049	0	0	7985	623794	0	0
2024-08-02 05:07:47			0	35885	0	0	0	29706	28330	170753	26953	1066208	45792	111052	0	0	7984	624715	0	0
2024-08-02 05:08:47			0	35865	0	0	0	29703	28330	170801	26987	1066128	45782	111051	0	0	7983	625559	0	0
2024-08-02 05:09:47			0	35873	0	0	0	29688	28320	170801	26890	1066137	45781	111045	0	0	7983	625258	0	0
2024-08-02 05:10:47			0	35869	0	0	0	29683	28320	170797	26920	1066110	45769	111043	0	0	7983	625427	0	0
2024-08-02 05:11:47			0	35858	0	0	0	29706	28320	170924	27133	1066137	45758	111052	0	0	7982	625891	0	0
2024-08-02 05:12:47			0	35864	0	0	0	29709	28320	170913	27001	1066137	45769	111053	0	0	7983	625638	0	0
2024-08-02 05:13:47			0	35870	0	0	0	29727	28310	170757	27178	1066092	45768	111060	0	0	7983	625421	0	0
2024-08-02 05:14:47			0	35888	0	0	0	29786	28310	170877	26719	1066119	45757	111083	0	0	7983	624661	0	0
2024-08-02 05:15:47			0	35893	0	0	0	29935	28310	170709	26654	1066218	45791	111140	0	0	7980	624450	0	0
2024-08-02 05:16:47			0	35939	0	0	0	30015	28320	170529	26580	1066433	45814	111171	0	0	7982	622477	0	0
2024-08-02 05:17:47			0	36003	0	0	0	29877	28340	170357	26864	1066487	45826	111118	0	0	7988	619717	0	0
2024-08-02 05:18:47			0	36012	0	0	0	29942	28350	170321	26661	1066460	45805	111143	0	0	7988	619304	0	0
2024-08-02 05:19:47			0	35959	0	0	0	30111	28360	170365	26944	1066711	45828	111208	0	0	7982	621492	0	0
2024-08-02 05:20:47			0	35969	0	0	0	30153	28380	170361	27031	1066972	45842	111224	0	0	7982	621001	0	0
2024-08-02 05:21:47			0	35957	0	0	0	30116	28410	170529	26691	1067197	45855	111210	0	0	7982	621397	0	0
2024-08-02 05:22:47			0	35927	0	0	0	30205	28450	170609	26743	1067385	45882	111244	0	0	7979	622514	0	0
2024-08-02 05:23:47			0	35895	0	0	0	30145	28480	170717	26779	1067466	45875	111221	0	0	7978	623753	0	0
2024-08-02 05:24:47			0	35817	0	0	0	30129	28500	170920	26769	1067475	45866	111215	0	0	7973	626971	0	0
2024-08-02 05:25:47			0	35770	0	0	0	30114	28500	171172	26837	1067448	45843	111209	0	0	7971	628960	0	0
2024-08-02 05:26:47			0	35719	0	0	0	30116	28510	171284	26705	1067538	45855	111210	0	0	7968	631087	0	0
2024-08-02 05:27:47			0	35692	0	0	0	30161	28530	171508	26774	1067628	45846	111227	0	0	7965	632161	0	0
2024-08-02 05:28:47			0	35658	0	0	0	30189	28540	171664	26769	1067736	45858	111238	0	0	7963	633572	0	0
2024-08-02 05:29:47			0	35632	0	0	0	30202	28550	171648	26719	1067834	45859	111243	0	0	7961	634643	0	0
2024-08-02 05:30:47			0	35623	0	0	0	30215	28580	171784	26826	1067888	45874	111248	0	0	7961	634916	0	0
2024-08-02 05:31:47			0	35608	0	0	0	30199	28590	171804	26817	1067987	45853	111242	0	0	7960	635520	0	0
2024-08-02 05:32:47			0	35608	0	0	0	30238	28600	171736	26687	1068059	45864	111257	0	0	7959	635483	0	0
2024-08-02 05:33:47			0	35596	0	0	0	30238	28630	171796	26628	1068131	45878	111257	0	0	7959	635885	0	0
2024-08-02 05:34:47			0	35598	0	0	0	30236	28650	171792	26821	1068257	45881	111256	0	0	7959	635726	0	0
2024-08-02 05:35:47			0	35602	0	0	0	30218	28660	171644	26653	1068212	45870	111249	0	0	7960	635518	0	0
2024-08-02 05:36:47			0	35612	0	0	0	30184	28680	171600	26700	1068275	45862	111236	0	0	7961	635018	0	0
2024-08-02 05:37:47			0	35624	0	0	0	30189	28680	171552	26937	1068266	45849	111238	0	0	7962	634506	0	0
2024-08-02 05:38:47			0	35645	0	0	0	30127	28680	171348	26951	1068194	45828	111214	0	0	7964	633612	0	0
2024-08-02 05:39:47			0	35664	0	0	0	30176	28680	171356	26651	1068167	45839	111233	0	0	7964	632803	0	0
2024-08-02 05:40:47			0	35683	0	0	0	30186	28680	171376	26781	1068185	45838	111237	0	0	7965	631995	0	0
2024-08-02 05:41:47			0	35714	0	0	0	30122	28690	171220	26824	1068176	45839	111212	0	0	7968	630642	0	0
2024-08-02 05:42:47			0	35724	0	0	0	30067	28680	171072	26644	1068005	45806	111191	0	0	7970	630254	0	0
2024-08-02 05:43:47			0	35747	0	0	0	29994	28640	170960	26719	1067699	45780	111163	0	0	7972	629425	0	0
2024-08-02 05:44:47			0	35751	0	0	0	30044	28610	170868	26677	1067619	45777	111182	0	0	7971	629365	0	0
2024-08-02 05:45:47			0	35787	0	0	0	30038	28590	170796	27066	1067583	45797	111180	0	0	7974	627913	0	0
2024-08-02 05:46:47			0	35800	0	0	0	30031	28590	170736	26634	1067655	45796	111177	0	0	7975	627363	0	0
2024-08-02 05:47:47			0	35802	0	0	0	30025	28590	170888	26679	1067628	45819	111175	0	0	7975	627279	0	0
2024-08-02 05:48:47			0	35802	0	0	0	29981	28590	170776	26642	1067574	45819	111158	0	0	7976	627279	0	0
2024-08-02 05:49:47			0	35806	0	0	0	30044	28580	170648	26779	1067565	45829	111182	0	0	7975	627146	0	0
2024-08-02 05:50:47			0	35841	0	0	0	30090	28590	170616	26873	1067691	45820	111200	0	0	7976	625632	0	0
2024-08-02 05:51:47			0	35832	0	0	0	30057	28600	170564	26450	1067789	45831	111187	0	0	7976	625975	0	0
2024-08-02 05:52:47			0	35848	0	0	0	30072	28600	170684	26609	1067780	45831	111193	0	0	7977	625300	0	0
2024-08-02 05:53:47			0	35841	0	0	0	30015	28600	170600	26816	1067789	45841	111171	0	0	7977	625595	0	0
2024-08-02 05:54:47			0	35830	0	0	0	29994	28600	170580	26779	1067619	45808	111163	0	0	7977	626060	0	0
2024-08-02 05:55:47			0	35857	0	0	0	30036	28590	170632	26568	1067583	45831	111179	0	0	7978	624957	0	0
2024-08-02 05:56:47			0	35836	0	0	0	30007	28590	170676	26769	1067664	45831	111168	0	0	7977	625843	0	0
2024-08-02 05:57:47			0	35827	0	0	0	30007	28590	170736	26812	1067655	45819	111168	0	0	7977	626223	0	0
2024-08-02 05:58:47			0	35816	0	0	0	29919	28580	170720	26835	1067511	45806	111134	0	0	7977	626723	0	0
2024-08-02 05:59:47			0	35815	0	0	0	29825	28570	170692	26842	1067268	45783	111098	0	0	7979	626802	0	0
2024-08-02 06:00:47			0	35810	0	0	0	29794	28530	170828	26743	1066981	45757	111086	0	0	7979	627158	0	0
2024-08-02 06:01:47			0	35784	0	0	0	29781	28510	170920	26783	1066900	45777	111081	0	0	7977	628331	0	0
2024-08-02 06:02:47			0	35792	0	0	0	29748	28480	170872	26674	1066711	45763	111068	0	0	7978	628101	0	0
2024-08-02 06:03:47			0	35800	0	0	0	29742	28460	170816	27053	1066622	45750	111066	0	0	7979	627836	0	0
2024-08-02 06:04:47			0	35821	0	0	0	29636	28440	170872	26949	1066442	45758	111025	0	0	7982	627020	0	0
2024-08-02 06:05:47			0	35735	0	0	0	29594	28410	171180	27126	1066253	45744	111009	0	0	7977	630773	0	0
2024-08-02 06:06:47			0	35309	0	0	0	29607	28390	173252	26654	1066172	45743	111014	0	0	7951	649125	0	0
2024-08-02 06:07:47			0	34949	0	0	0	29610	28360	175035	26764	1066011	45772	111015	0	0	7928	664990	0	0
2024-08-02 06:08:47			0	34742	0	0	0	29597	28340	176211	26739	1066092	45783	111010	0	0	7915	674254	0	0
2024-08-02 06:09:47			0	34600	0	0	0	29636	28320	176835	26916	1065975	45769	111025	0	0	7905	680691	0	0
2024-08-02 06:10:47			0	34530	0	0	0	29636	28320	177291	26804	1066002	45791	111025	0	0	7901	683842	0	0
2024-08-02 06:11:47			0	34519	0	0	0	29618	28320	177295	26996	1066020	45780	111018	0	0	7900	684338	0	0
2024-08-02 06:12:47			0	34486	0	0	0	29628	28300	177563	26733	1065966	45779	111022	0	0	7898	685908	0	0
2024-08-02 06:13:47			0	34436	0	0	0	29670	28290	177827	26765	1065921	45789	111038	0	0	7894	688211	0	0
2024-08-02 06:14:47			0	34486	0	0	0	29657	28290	177523	26715	1065975	45789	111033	0	0	7897	685948	0	0
2024-08-02 06:15:47			0	34553	0	0	0	29633	28300	177203	26875	1065930	45789	111024	0	0	7902	682884	0	0
2024-08-02 06:16:47			0	34575	0	0	0	29649	28290	177227	26965	1065921	45789	111030	0	0	7903	681933	0	0
2024-08-02 06:17:47			0	34567	0	0	0	29628	28290	177219	26769	1065858	45798	111022	0	0	7903	682293	0	0
2024-08-02 06:18:47			0	34599	0	0	0	29628	28280	176979	26838	1065841	45797	111022	0	0	7905	680893	0	0
2024-08-02 06:19:47			0	34634	0	0	0	29628	28270	176887	26738	1065885	45796	111022	0	0	7907	679360	0	0
2024-08-02 06:20:47			0	34670	0	0	0	29636	28260	176743	26802	1065813	45796	111025	0	0	7909	677785	0	0
2024-08-02 06:21:47			0	34704	0	0	0	29628	28260	176619	26741	1065750	45785	111022	0	0	7912	676263	0	0
2024-08-02 06:22:47			0	34720	0	0	0	29628	28250	176463	26828	1065822	45784	111022	0	0	7913	675587	0	0
2024-08-02 06:23:47			0	34739	0	0	0	29625	28250	176419	26578	1065759	45773	111021	0	0	7914	674739	0	0
2024-08-02 06:24:47			0	34743	0	0	0	29644	28260	176423	26693	1065831	45785	111028	0	0	7914	674521	0	0
2024-08-02 06:25:47			0	34762	0	0	0	29646	28260	176179	26632	1065858	45807	111029	0	0	7915	673673	0	0
2024-08-02 06:26:47			0	34794	0	0	0	29677	28250	176087	26850	1065867	45784	111041	0	0	7916	672287	0	0
2024-08-02 06:27:47			0	34811	0	0	0	29701	28250	176103	26791	1065822	45795	111050	0	0	7917	671530	0	0
2024-08-02 06:28:47			0	34808	0	0	0	29667	28260	175939	26738	1065858	45785	111037	0	0	7918	671625	0	0
2024-08-02 06:29:47			0	34796	0	0	0	29683	28250	176083	26616	1065921	45795	111043	0	0	7916	672197	0	0
2024-08-02 06:30:47			0	34780	0	0	0	29711	28240	176211	26479	1065885	45784	111054	0	0	7915	672949	0	0
2024-08-02 06:31:47			0	34748	0	0	0	29709	28250	176303	26878	1065867	45795	111053	0	0	7913	674337	0	0
2024-08-02 06:32:47			0	34738	0	0	0	29732	28250	176407	26904	1065948	45784	111062	0	0	7912	674783	0	0
2024-08-02 06:33:47			0	34735	0	0	0	29732	28260	176443	26682	1065975	45796	111062	0	0	7912	674878	0	0
2024-08-02 06:34:47			0	34712	0	0	0	29745	28260	176515	26658	1066028	45796	111067	0	0	7910	675906	0	0
2024-08-02 06:35:47			0	34677	0	0	0	29745	28260	176647	26892	1066020	45796	111067	0	0	7908	677472	0	0
2024-08-02 06:36:47			0	34664	0	0	0	29732	28270	176803	26738	1065984	45808	111062	0	0	7907	678015	0	0
2024-08-02 06:37:47			0	34657	0	0	0	29724	28260	176843	26844	1065939	45796	111059	0	0	7907	678368	0	0
2024-08-02 06:38:47			0	34645	0	0	0	29735	28260	176935	26804	1066020	45796	111063	0	0	7906	678906	0	0
2024-08-02 06:39:47			0	34638	0	0	0	29685	28260	176979	26989	1065867	45763	111044	0	0	7906	679220	0	0
2024-08-02 06:40:47			0	34618	0	0	0	29610	28260	176991	27098	1065813	45786	111015	0	0	7906	680118	0	0
2024-08-02 06:41:47			0	34619	0	0	0	29561	28250	176923	27001	1065741	45761	110996	0	0	7907	680112	0	0
2024-08-02 06:42:47			0	34606	0	0	0	29545	28240	176979	26833	1065633	45772	110990	0	0	7907	680736	0	0
2024-08-02 06:43:47			0	34584	0	0	0	29542	28220	176923	26896	1065553	45781	110989	0	0	7905	681804	0	0
2024-08-02 06:44:47			0	34579	0	0	0	29542	28210	177251	26802	1065472	45769	110989	0	0	7905	682068	0	0
2024-08-02 06:45:47			0	34566	0	0	0	29535	28190	177299	26618	1065445	45778	110986	0	0	7904	682732	0	0
2024-08-02 06:46:47			0	34567	0	0	0	29540	28190	177127	27114	1065355	45777	110988	0	0	7904	682687	0	0
2024-08-02 06:47:47			0	34598	0	0	0	29537	28180	177103	26701	1065400	45777	110987	0	0	7906	681331	0	0
2024-08-02 06:48:47			0	34622	0	0	0	29540	28190	176967	26587	1065409	45789	110988	0	0	7908	680213	0	0
2024-08-02 06:49:47			0	34662	0	0	0	29545	28190	176851	26724	1065463	45766	110990	0	0	7910	678418	0	0
2024-08-02 06:50:47			0	34682	0	0	0	29555	28170	176687	26852	1065409	45776	110994	0	0	7911	677600	0	0
2024-08-02 06:51:47			0	34707	0	0	0	29545	28170	176495	27057	1065382	45788	110990	0	0	7913	676481	0	0
2024-08-02 06:52:47			0	34724	0	0	0	29540	28170	176503	27029	1065373	45787	110988	0	0	7914	675721	0	0
2024-08-02 06:53:47			0	34710	0	0	0	29529	28170	176515	26916	1065400	45787	110984	0	0	7913	676347	0	0
2024-08-02 06:54:47			0	34712	0	0	0	29529	28160	176627	26842	1065311	45775	110984	0	0	7913	676296	0	0
2024-08-02 06:55:47			0	34701	0	0	0	29529	28170	176655	26774	1065320	45775	110984	0	0	7913	676749	0	0
2024-08-02 06:56:47			0	34663	0	0	0	29527	28150	176763	26928	1065346	45774	110983	0	0	7910	678530	0	0
2024-08-02 06:57:47			0	34663	0	0	0	29537	28160	176807	26918	1065328	45774	110987	0	0	7910	678491	0	0
2024-08-02 06:58:47			0	34625	0	0	0	29553	28150	177027	26923	1065373	45774	110993	0	0	7907	680235	0	0
2024-08-02 06:59:47			0	34579	0	0	0	29581	28160	177327	27038	1065382	45808	111004	0	0	7904	682265	0	0
2024-08-02 07:00:47			0	34544	0	0	0	29566	28160	177443	26974	1065445	45797	110998	0	0	7902	683843	0	0
2024-08-02 07:01:47			0	34573	0	0	0	29548	28170	177307	26776	1065400	45787	110991	0	0	7904	682496	0	0
2024-08-02 07:02:47			0	34594	0	0	0	29535	28170	177239	26779	1065320	45775	110986	0	0	7906	681550	0	0
2024-08-02 07:03:47			0	34616	0	0	0	29545	28170	177107	26958	1065293	45775	110990	0	0	7907	680561	0	0
2024-08-02 07:04:47			0	34653	0	0	0	29542	28160	176959	26736	1065302	45763	110989	0	0	7909	678939	0	0
2024-08-02 07:05:47			0	34681	0	0	0	29545	28160	176871	26863	1065355	45763	110990	0	0	7911	677684	0	0
2024-08-02 07:06:47			0	34685	0	0	0	29566	28150	176651	26922	1065364	45795	110998	0	0	7911	677544	0	0
2024-08-02 07:07:47			0	34704	0	0	0	29566	28150	176651	26934	1065373	45774	110998	0	0	7912	676693	0	0
2024-08-02 07:08:47			0	34712	0	0	0	29571	28160	176523	27121	1065418	45787	111000	0	0	7913	676296	0	0
2024-08-02 07:09:47			0	34727	0	0	0	29586	28170	176463	26981	1065562	45797	111006	0	0	7913	675587	0	0
2024-08-02 07:10:47			0	34757	0	0	0	29584	28170	176303	26927	1065544	45788	111005	0	0	7915	674247	0	0
2024-08-02 07:11:47			0	34802	0	0	0	29644	28180	176115	27001	1065634	45799	111028	0	0	7917	672202	0	0
2024-08-02 07:12:47			0	34859	0	0	0	29688	28200	175887	26856	1065777	45801	111045	0	0	7920	669591	0	0
2024-08-02 07:13:47			0	34982	0	0	0	29706	28210	175279	26764	1065885	45813	111052	0	0	7928	664109	0	0
2024-08-02 07:14:47			0	35094	0	0	0	29651	28230	174571	26807	1065912	45827	111031	0	0	7936	659106	0	0
2024-08-02 07:15:47			0	35097	0	0	0	29623	28230	174615	26736	1065840	45782	111020	0	0	7936	658975	0	0
2024-08-02 07:16:47			0	35066	0	0	0	29636	28240	174707	26870	1065903	45794	111025	0	0	7934	660297	0	0
2024-08-02 07:17:47			0	35020	0	0	0	29657	28240	174887	27074	1065957	45794	111033	0	0	7931	662320	0	0
2024-08-02 07:18:47			0	35022	0	0	0	29605	28250	174987	26996	1065984	45795	111013	0	0	7932	662194	0	0
2024-08-02 07:19:47			0	35023	0	0	0	29568	28240	174903	26916	1065714	45772	110999	0	0	7933	662188	0	0
2024-08-02 07:20:47			0	35005	0	0	0	29581	28240	175139	26998	1065580	45760	111004	0	0	7931	662980	0	0
2024-08-02 07:21:47			0	35001	0	0	0	29573	28230	175011	27196	1065669	45759	111001	0	0	7931	663195	0	0
2024-08-02 07:22:47			0	35007	0	0	0	29555	28220	174979	26970	1065571	45781	110994	0	0	7932	662969	0	0
2024-08-02 07:23:47			0	35023	0	0	0	29568	28210	174935	27159	1065526	45747	110999	0	0	7933	662303	0	0
2024-08-02 07:24:47			0	35046	0	0	0	29584	28210	174911	26817	1065526	45757	111005	0	0	7934	661291	0	0
2024-08-02 07:25:47			0	35066	0	0	0	29594	28200	174763	27216	1065571	45779	111009	0	0	7935	660450	0	0
2024-08-02 07:26:47			0	35094	0	0	0	29610	28190	174623	27130	1065580	45778	111015	0	0	7936	659258	0	0
2024-08-02 07:27:47			0	35125	0	0	0	29620	28220	174400	26965	1065598	45770	111019	0	0	7938	657786	0	0
2024-08-02 07:28:47			0	35145	0	0	0	29605	28190	174244	27189	1065580	45778	111013	0	0	7939	657024	0	0
2024-08-02 07:29:47			0	35153	0	0	0	29620	28200	174200	26606	1065589	45768	111019	0	0	7940	656636	0	0
2024-08-02 07:30:47			0	35147	0	0	0	29625	28200	174256	26854	1065616	45779	111021	0	0	7939	656898	0	0
2024-08-02 07:31:47			0	35161	0	0	0	29615	28210	174308	26830	1065661	45791	111017	0	0	7940	656248	0	0
2024-08-02 07:32:47			0	35155	0	0	0	29688	28200	174276	26890	1065670	45779	111045	0	0	7939	656548	0	0
2024-08-02 07:33:47			0	35159	0	0	0	29766	28210	174352	27173	1065858	45813	111075	0	0	7938	656335	0	0
2024-08-02 07:34:47			0	35163	0	0	0	29771	28230	174136	26739	1065948	45804	111077	0	0	7938	656085	0	0
2024-08-02 07:35:47			0	35167	0	0	0	29766	28250	174180	26902	1066064	45806	111075	0	0	7938	655834	0	0
2024-08-02 07:36:47			0	35142	0	0	0	29742	28250	174332	26965	1066055	45806	111066	0	0	7937	656927	0	0
2024-08-02 07:37:47			0	35133	0	0	0	29709	28260	174316	26977	1066055	45796	111053	0	0	7937	657283	0	0
2024-08-02 07:38:47			0	35099	0	0	0	29716	28260	174571	26916	1066055	45808	111056	0	0	7935	658773	0	0
2024-08-02 07:39:47			0	35089	0	0	0	29716	28270	174555	26791	1066065	45786	111056	0	0	7934	659173	0	0
2024-08-02 07:40:47			0	35060	0	0	0	29722	28280	174675	26857	1066056	45797	111058	0	0	7933	660408	0	0
2024-08-02 07:41:47			0	35030	0	0	0	29709	28280	174811	26958	1066065	45810	111053	0	0	7931	661727	0	0
2024-08-02 07:42:47			0	35018	0	0	0	29696	28280	174855	26802	1066029	45776	111048	0	0	7930	662255	0	0
2024-08-02 07:43:47			0	35010	0	0	0	29724	28270	174971	26887	1066074	45786	111059	0	0	7929	662645	0	0
2024-08-02 07:44:47			0	35015	0	0	0	29716	28280	174823	26901	1066092	45777	111056	0	0	7930	662387	0	0
2024-08-02 07:45:47			0	34992	0	0	0	29776	28280	174915	27118	1066173	45810	111079	0	0	7927	663400	0	0
2024-08-02 07:46:47			0	35011	0	0	0	29792	28310	174899	26786	1066271	45801	111085	0	0	7929	662448	0	0
2024-08-02 07:47:47			0	35020	0	0	0	29802	28310	174879	27085	1066406	45835	111089	0	0	7929	662052	0	0
2024-08-02 07:48:47			0	35001	0	0	0	29794	28320	174899	26904	1066379	45814	111086	0	0	7928	662850	0	0
2024-08-02 07:49:47			0	34986	0	0	0	29807	28330	174923	27277	1066415	45815	111091	0	0	7927	663473	0	0
2024-08-02 07:50:47			0	34971	0	0	0	29828	28340	175123	26965	1066514	45803	111099	0	0	7926	664096	0	0
2024-08-02 07:51:47			0	34970	0	0	0	29825	28350	175099	26726	1066505	45817	111098	0	0	7926	664101	0	0
2024-08-02 07:52:47			0	34971	0	0	0	29810	28350	175151	27097	1066460	45828	111092	0	0	7926	664057	0	0
2024-08-02 07:53:47			0	34940	0	0	0	29828	28360	175107	27263	1066586	45785	111099	0	0	7924	665387	0	0
2024-08-02 07:54:47			0	34952	0	0	0	29833	28350	175123	27157	1066595	45805	111101	0	0	7924	664896	0	0
2024-08-02 07:55:47			0	34943	0	0	0	29841	28380	175223	27041	1066639	45820	111104	0	0	7924	665178	0	0
2024-08-02 07:56:47			0	34916	0	0	0	29836	28380	175315	26911	1066693	45808	111102	0	0	7922	666371	0	0
2024-08-02 07:57:47			0	34892	0	0	0	29831	28380	175323	27173	1066675	45820	111100	0	0	7921	667433	0	0
2024-08-02 07:58:47			0	34906	0	0	0	29833	28390	175339	27204	1066630	45821	111101	0	0	7922	666775	0	0
2024-08-02 07:59:47			0	34907	0	0	0	29825	28380	175479	27253	1066675	45808	111098	0	0	7922	666769	0	0
2024-08-02 08:00:47			0	34903	0	0	0	29825	28380	175219	26972	1066675	45808	111098	0	0	7922	666946	0	0
2024-08-02 08:01:47			0	34894	0	0	0	29838	28390	175291	26817	1066604	45798	111103	0	0	7921	667306	0	0
2024-08-02 08:02:47			0	34884	0	0	0	29836	28400	175535	26824	1066756	45799	111102	0	0	7920	667710	0	0
2024-08-02 08:03:47			0	34879	0	0	0	29836	28400	175291	26982	1066666	45799	111102	0	0	7920	667931	0	0
2024-08-02 08:04:47			0	34881	0	0	0	29786	28400	175283	26845	1066586	45789	111083	0	0	7921	667842	0	0
2024-08-02 08:05:47			0	34886	0	0	0	29745	28380	175451	26831	1066406	45775	111067	0	0	7922	667698	0	0
2024-08-02 08:06:47			0	34897	0	0	0	29815	28370	175355	27081	1066415	45775	111094	0	0	7921	667250	0	0
2024-08-02 08:07:47			0	34892	0	0	0	29812	28370	175359	27098	1066496	45797	111093	0	0	7921	667471	0	0
2024-08-02 08:08:47			0	34901	0	0	0	29722	28370	175331	27055	1066442	45797	111058	0	0	7923	667073	0	0
2024-08-02 08:09:47			0	34910	0	0	0	29709	28360	175363	26887	1066334	45784	111053	0	0	7924	666713	0	0
2024-08-02 08:10:47			0	34916	0	0	0	29711	28350	175231	27029	1066289	45772	111054	0	0	7924	666486	0	0
2024-08-02 08:11:47			0	34961	0	0	0	29701	28340	175067	27248	1066217	45770	111050	0	0	7927	664537	0	0
2024-08-02 08:12:47			0	34983	0	0	0	29722	28330	174947	27112	1066200	45759	111058	0	0	7928	663605	0	0
2024-08-02 08:13:47			0	34996	0	0	0	29735	28320	174759	26738	1066191	45781	111063	0	0	7929	663071	0	0
2024-08-02 08:14:47			0	35028	0	0	0	29750	28330	174711	26804	1066253	45792	111069	0	0	7930	661624	0	0
2024-08-02 08:15:47			0	35057	0	0	0	29745	28320	174723	26909	1066244	45802	111067	0	0	7932	660387	0	0
2024-08-02 08:16:47			0	35062	0	0	0	29703	28320	174539	26580	1066235	45780	111051	0	0	7933	660168	0	0
2024-08-02 08:17:47			0	35052	0	0	0	29628	28310	174559	27092	1066110	45780	111022	0	0	7934	660645	0	0
2024-08-02 08:18:47			0	35051	0	0	0	29599	28300	174607	27072	1065957	45755	111011	0	0	7934	660727	0	0
2024-08-02 08:19:47			0	35000	0	0	0	29602	28280	174923	26793	1065876	45765	111012	0	0	7931	663047	0	0
2024-08-02 08:20:47			0	34959	0	0	0	29618	28270	175127	27027	1065822	45775	111018	0	0	7928	664894	0	0
2024-08-02 08:21:47			0	34976	0	0	0	29618	28270	175063	27026	1065714	45775	111018	0	0	7929	664144	0	0
2024-08-02 08:22:47			0	34966	0	0	0	29607	28250	175215	26880	1065813	45773	111014	0	0	7929	664662	0	0
2024-08-02 08:23:47			0	34931	0	0	0	29628	28240	175231	26757	1065804	45784	111022	0	0	7926	666247	0	0
2024-08-02 08:24:47			0	34945	0	0	0	29628	28240	175299	26968	1065858	45773	111022	0	0	7927	665628	0	0
2024-08-02 08:25:47			0	34969	0	0	0	29615	28240	175331	26741	1065750	45795	111017	0	0	7929	664568	0	0
2024-08-02 08:26:47			0	34939	0	0	0	29610	28240	175295	26783	1065768	45783	111015	0	0	7927	665893	0	0
2024-08-02 08:27:47			0	34916	0	0	0	29615	28230	175527	26531	1065732	45771	111017	0	0	7925	666949	0	0
2024-08-02 08:28:47			0	34885	0	0	0	29620	28240	175571	26979	1065741	45783	111019	0	0	7923	668283	0	0
2024-08-02 08:29:47			0	34866	0	0	0	29610	28230	175663	26875	1065786	45782	111015	0	0	7922	669164	0	0
2024-08-02 08:30:47			0	34879	0	0	0	29602	28230	175723	26967	1065750	45782	111012	0	0	7923	668588	0	0
2024-08-02 08:31:47			0	34895	0	0	0	29612	28230	175587	26781	1065777	45771	111016	0	0	7924	667879	0	0
2024-08-02 08:32:47			0	34929	0	0	0	29623	28230	175603	26996	1065723	45782	111020	0	0	7926	666373	0	0
2024-08-02 08:33:47			0	34946	0	0	0	29620	28220	175623	26771	1065768	45792	111019	0	0	7927	665661	0	0
2024-08-02 08:34:47			0	34955	0	0	0	29633	28230	175419	26769	1065840	45771	111024	0	0	7927	665224	0	0
2024-08-02 08:35:47			0	34947	0	0	0	29633	28240	175355	26866	1065795	45805	111024	0	0	7927	665539	0	0
2024-08-02 08:36:47			0	34952	0	0	0	29641	28240	175455	26835	1065822	45783	111027	0	0	7927	665319	0	0
2024-08-02 08:37:47			0	34946	0	0	0	29641	28230	175347	26601	1065867	45804	111027	0	0	7927	665622	0	0
2024-08-02 08:38:47			0	34967	0	0	0	29649	28240	175407	26948	1065822	45783	111030	0	0	7928	664656	0	0
2024-08-02 08:39:47			0	34961	0	0	0	29625	28240	175331	26701	1065831	45795	111021	0	0	7928	664921	0	0
2024-08-02 08:40:47			0	34990	0	0	0	29638	28230	175147	27124	1065885	45782	111026	0	0	7929	663680	0	0
2024-08-02 08:41:47			0	35011	0	0	0	29628	28240	174979	26679	1065831	45773	111022	0	0	7931	662716	0	0
2024-08-02 08:42:47			0	35056	0	0	0	29628	28240	174839	26805	1065804	45784	111022	0	0	7934	660736	0	0
2024-08-02 08:43:47			0	35096	0	0	0	29623	28240	174695	26864	1065822	45783	111020	0	0	7936	658980	0	0
2024-08-02 08:44:47			0	35111	0	0	0	29641	28230	174604	26932	1065840	45793	111027	0	0	7937	658361	0	0
2024-08-02 08:45:47			0	35128	0	0	0	29651	28240	174480	27038	1065795	45783	111031	0	0	7938	657578	0	0
2024-08-02 08:46:47			0	35129	0	0	0	29657	28240	174520	27137	1065849	45794	111033	0	0	7938	657534	0	0
2024-08-02 08:47:47			0	35137	0	0	0	29657	28250	174532	27168	1065948	45784	111033	0	0	7938	657146	0	0
2024-08-02 08:48:47			0	35139	0	0	0	29690	28240	174376	27121	1065858	45784	111046	0	0	7938	657097	0	0
2024-08-02 08:49:47			0	35168	0	0	0	29677	28250	174312	26909	1065975	45795	111041	0	0	7940	655791	0	0
2024-08-02 08:50:47			0	35188	0	0	0	29659	28250	174320	26674	1065948	45795	111034	0	0	7942	654917	0	0
2024-08-02 08:51:47			0	35194	0	0	0	29670	28250	174268	26816	1065948	45795	111038	0	0	7942	654655	0	0
2024-08-02 08:52:47			0	35207	0	0	0	29677	28250	174260	27208	1065948	45784	111041	0	0	7942	654088	0	0
2024-08-02 08:53:47			0	35200	0	0	0	29667	28250	174128	27043	1065957	45795	111037	0	0	7942	654393	0	0
2024-08-02 08:54:47			0	35212	0	0	0	29667	28260	174188	26759	1065948	45786	111037	0	0	7943	653832	0	0
2024-08-02 08:55:47			0	35214	0	0	0	29680	28250	174080	26654	1066011	45784	111042	0	0	7943	653783	0	0
2024-08-02 08:56:47			0	35202	0	0	0	29714	28260	174028	26949	1066001	45796	111055	0	0	7941	654268	0	0
2024-08-02 08:57:47			0	35207	0	0	0	29732	28270	174120	26875	1066092	45808	111062	0	0	7942	654012	0	0
2024-08-02 08:58:47			0	35213	0	0	0	29714	28270	174048	26741	1066155	45796	111055	0	0	7942	653751	0	0
2024-08-02 08:59:47			0	35232	0	0	0	29696	28280	173992	27031	1066164	45809	111048	0	0	7944	652885	0	0
2024-08-02 09:00:47			0	35219	0	0	0	29696	28280	173920	26774	1066164	45776	111048	0	0	7943	653451	0	0
2024-08-02 09:01:47			0	35236	0	0	0	29693	28270	174048	26743	1066101	45796	111047	0	0	7944	652749	0	0
2024-08-02 09:02:47			0	35238	0	0	0	29677	28280	173964	26856	1066119	45788	111041	0	0	7944	652624	0	0
2024-08-02 09:03:47			0	35234	0	0	0	29677	28270	173984	26637	1066047	45796	111041	0	0	7944	652836	0	0
2024-08-02 09:04:47			0	35226	0	0	0	29675	28270	173964	26823	1066011	45775	111040	0	0	7944	653184	0	0
2024-08-02 09:05:47			0	35248	0	0	0	29722	28270	173804	27071	1066101	45786	111058	0	0	7944	652226	0	0
2024-08-02 09:06:47			0	35315	0	0	0	29792	28280	173656	26521	1066191	45797	111085	0	0	7947	649278	0	0
2024-08-02 09:07:47			0	35327	0	0	0	29794	28290	173416	26679	1066271	45811	111086	0	0	7948	648720	0	0
2024-08-02 09:08:47			0	35366	0	0	0	29763	28300	173304	26585	1066316	45800	111074	0	0	7951	646993	0	0
2024-08-02 09:09:47			0	35388	0	0	0	29742	28310	173144	26847	1066280	45801	111066	0	0	7953	646005	0	0
2024-08-02 09:10:47			0	35407	0	0	0	29768	28300	173044	27013	1066236	45800	111076	0	0	7953	645222	0	0
2024-08-02 09:11:47			0	35407	0	0	0	29740	28320	173088	27071	1066289	45780	111065	0	0	7954	645147	0	0
2024-08-02 09:12:47			0	35402	0	0	0	29745	28310	172940	26667	1066280	45801	111067	0	0	7954	645400	0	0
2024-08-02 09:13:47			0	35435	0	0	0	29753	28310	172984	26831	1066271	45801	111070	0	0	7956	643976	0	0
2024-08-02 09:14:47			0	35430	0	0	0	29753	28320	172876	26831	1066325	45814	111070	0	0	7955	644155	0	0
2024-08-02 09:15:47			0	35426	0	0	0	29753	28320	172988	26511	1066325	45791	111070	0	0	7955	644327	0	0
2024-08-02 09:16:47			0	35433	0	0	0	29763	28320	172896	26779	1066325	45814	111074	0	0	7955	644026	0	0
2024-08-02 09:17:47			0	35434	0	0	0	29761	28320	172844	27033	1066271	45802	111073	0	0	7955	643982	0	0
2024-08-02 09:18:47			0	35433	0	0	0	29750	28340	172864	26764	1066352	45803	111069	0	0	7956	643951	0	0
2024-08-02 09:19:47			0	35435	0	0	0	29748	28330	172812	26894	1066307	45792	111068	0	0	7956	643902	0	0
2024-08-02 09:20:47			0	35449	0	0	0	29727	28320	172836	26745	1066271	45791	111060	0	0	7957	643336	0	0
2024-08-02 09:21:47			0	35441	0	0	0	29779	28330	172692	26823	1066262	45803	111080	0	0	7956	643643	0	0
2024-08-02 09:22:47			0	35461	0	0	0	29805	28330	172760	26502	1066415	45826	111090	0	0	7956	642782	0	0
2024-08-02 09:23:47			0	35468	0	0	0	29818	28350	172724	26897	1066505	45805	111095	0	0	7957	642406	0	0
2024-08-02 09:24:47			0	35463	0	0	0	29789	28340	172760	27064	1066523	45793	111084	0	0	7957	642659	0	0
2024-08-02 09:25:47			0	35488	0	0	0	29742	28350	172692	26628	1066505	45805	111066	0	0	7959	641546	0	0
2024-08-02 09:26:47			0	35481	0	0	0	29719	28340	172664	26897	1066334	45783	111057	0	0	7959	641884	0	0
2024-08-02 09:27:47			0	35481	0	0	0	29729	28330	172716	26918	1066262	45803	111061	0	0	7959	641921	0	0
2024-08-02 09:28:47			0	35476	0	0	0	29740	28330	172700	26790	1066334	45803	111065	0	0	7958	642136	0	0
2024-08-02 09:29:47			0	35472	0	0	0	29719	28340	172756	26923	1066352	45782	111057	0	0	7959	642271	0	0
2024-08-02 09:30:47			0	35492	0	0	0	29685	28330	172660	27038	1066289	45782	111044	0	0	7960	641448	0	0
2024-08-02 09:31:47			0	35481	0	0	0	29659	28320	172592	26845	1066218	45781	111034	0	0	7960	641959	0	0
2024-08-02 09:32:47			0	35477	0	0	0	29638	28320	172604	26739	1066182	45768	111026	0	0	7960	642130	0	0
2024-08-02 09:33:47			0	35469	0	0	0	29620	28300	172772	26680	1066011	45778	111019	0	0	7960	642549	0	0
2024-08-02 09:34:47			0	35461	0	0	0	29610	28280	172772	26920	1065984	45777	111015	0	0	7959	642968	0	0
2024-08-02 09:35:47			0	35461	0	0	0	29605	28270	172692	26583	1066020	45786	111013	0	0	7959	643005	0	0
2024-08-02 09:36:47			0	35470	0	0	0	29618	28270	172688	26800	1065885	45786	111018	0	0	7960	642617	0	0
2024-08-02 09:37:47			0	35491	0	0	0	29644	28270	172668	26781	1065876	45775	111028	0	0	7961	641714	0	0
2024-08-02 09:38:47			0	35511	0	0	0	29641	28260	172560	26620	1065966	45785	111027	0	0	7962	640891	0	0
2024-08-02 09:39:47			0	35515	0	0	0	29654	28260	172612	26597	1065966	45785	111032	0	0	7962	640719	0	0
2024-08-02 09:40:47			0	35505	0	0	0	29651	28260	172676	26550	1065993	45796	111031	0	0	7961	641149	0	0
2024-08-02 09:41:47			0	35527	0	0	0	29644	28260	172672	26814	1065939	45785	111028	0	0	7963	640204	0	0
2024-08-02 09:42:47			0	35531	0	0	0	29636	28250	172636	27012	1065876	45795	111025	0	0	7963	640069	0	0
2024-08-02 09:43:47			0	35530	0	0	0	29644	28260	172596	26852	1065912	45785	111028	0	0	7963	640075	0	0
2024-08-02 09:44:47			0	35543	0	0	0	29649	28250	172656	26575	1066011	45795	111030	0	0	7964	639554	0	0
2024-08-02 09:45:47			0	35572	0	0	0	29662	28250	172432	26922	1065957	45795	111035	0	0	7965	638311	0	0
2024-08-02 09:46:47			0	35575	0	0	0	29662	28260	172376	27071	1065885	45785	111035	0	0	7965	638146	0	0
2024-08-02 09:47:47			0	35602	0	0	0	29670	28250	172140	27036	1066011	45795	111038	0	0	7967	637027	0	0
2024-08-02 09:48:47			0	35611	0	0	0	29680	28250	172092	26970	1065930	45795	111042	0	0	7967	636642	0	0
2024-08-02 09:49:47			0	35611	0	0	0	29680	28260	172132	26698	1066001	45786	111042	0	0	7967	636605	0	0
2024-08-02 09:50:47			0	35633	0	0	0	29677	28250	172000	26823	1066064	45795	111041	0	0	7969	635702	0	0
2024-08-02 09:51:47			0	35663	0	0	0	29683	28260	171968	26677	1066028	45786	111043	0	0	7970	634385	0	0
2024-08-02 09:52:47			0	35657	0	0	0	29727	28260	171868	26955	1066082	45796	111060	0	0	7969	634641	0	0
2024-08-02 09:53:47			0	35677	0	0	0	29714	28270	171812	26894	1066074	45808	111055	0	0	7971	633752	0	0
2024-08-02 09:54:47			0	35694	0	0	0	29794	28270	171716	26757	1066172	45819	111086	0	0	7970	633027	0	0
2024-08-02 09:55:47			0	35684	0	0	0	29838	28280	171856	26864	1066272	45809	111103	0	0	7969	633417	0	0
2024-08-02 09:56:47			0	35681	0	0	0	29859	28300	171900	26946	1066424	45834	111111	0	0	7969	633471	0	0
2024-08-02 09:57:47			0	35684	0	0	0	29888	28310	171852	26791	1066496	45813	111122	0	0	7968	633307	0	0
2024-08-02 09:58:47			0	35678	0	0	0	29914	28330	171820	26752	1066658	45826	111132	0	0	7968	633489	0	0
2024-08-02 09:59:47			0	35705	0	0	0	29929	28340	171776	27003	1066738	45849	111138	0	0	7969	632303	0	0
2024-08-02 10:00:47			0	35682	0	0	0	29950	28370	171724	26868	1066891	45852	111146	0	0	7968	633172	0	0
2024-08-02 10:01:47			0	35702	0	0	0	29958	28390	171740	26601	1067008	45854	111149	0	0	7969	632248	0	0
2024-08-02 10:02:47			0	35709	0	0	0	29973	28410	171660	26800	1067098	45856	111155	0	0	7969	631877	0	0
2024-08-02 10:03:47			0	35706	0	0	0	29979	28430	171652	26802	1067161	45858	111157	0	0	7969	631932	0	0
2024-08-02 10:04:47			0	35701	0	0	0	29976	28440	171596	26948	1067232	45848	111156	0	0	7969	632108	0	0
2024-08-02 10:05:47			0	35689	0	0	0	29984	28470	171508	26759	1067331	45850	111159	0	0	7968	632509	0	0
2024-08-02 10:06:47			0	35698	0	0	0	29994	28480	171560	26545	1067376	45851	111163	0	0	7968	632089	0	0
2024-08-02 10:07:47			0	35709	0	0	0	29984	28490	171564	26748	1067367	45841	111159	0	0	7969	631585	0	0
2024-08-02 10:08:47			0	35715	0	0	0	29994	28500	171532	26986	1067439	45820	111163	0	0	7970	631294	0	0
2024-08-02 10:09:47			0	35717	0	0	0	29994	28500	171484	27033	1067448	45833	111163	0	0	7970	631209	0	0
2024-08-02 10:10:47			0	35715	0	0	0	29981	28510	171456	26894	1067520	45822	111158	0	0	7970	631257	0	0
2024-08-02 10:11:47			0	35723	0	0	0	29950	28520	171476	27034	1067511	45823	111146	0	0	7971	630881	0	0
2024-08-02 10:12:47			0	35710	0	0	0	29950	28510	171456	27345	1067439	45799	111146	0	0	7970	631470	0	0
2024-08-02 10:13:47			0	35702	0	0	0	29958	28510	171436	26713	1067430	45833	111149	0	0	7969	631810	0	0
2024-08-02 10:14:47			0	35728	0	0	0	29976	28520	171384	26606	1067475	45822	111156	0	0	7971	630669	0	0
2024-08-02 10:15:47			0	35716	0	0	0	29981	28530	171328	26717	1067502	45824	111158	0	0	7970	631142	0	0
2024-08-02 10:16:47			0	35721	0	0	0	29976	28530	171344	27067	1067547	45835	111156	0	0	7970	630929	0	0
2024-08-02 10:17:47			0	35721	0	0	0	29932	28540	171320	26802	1067457	45813	111139	0	0	7971	630893	0	0
2024-08-02 10:18:47			0	35712	0	0	0	29953	28530	171288	26689	1067385	45801	111147	0	0	7970	631311	0	0
2024-08-02 10:19:47			0	35734	0	0	0	29906	28520	171108	26627	1067295	45823	111129	0	0	7972	630414	0	0
2024-08-02 10:20:47			0	35755	0	0	0	29867	28510	171364	26871	1067223	45799	111114	0	0	7974	629560	0	0
2024-08-02 10:21:47			0	35750	0	0	0	29903	28510	171200	26712	1067214	45789	111128	0	0	7973	629772	0	0
2024-08-02 10:22:47			0	35746	0	0	0	29901	28510	171200	26828	1067295	45811	111127	0	0	7973	629941	0	0
2024-08-02 10:23:47			0	35761	0	0	0	29898	28500	171224	26502	1067286	45798	111126	0	0	7974	629342	0	0
2024-08-02 10:24:47			0	35756	0	0	0	29924	28500	171180	27008	1067277	45809	111136	0	0	7973	629554	0	0
2024-08-02 10:25:47			0	35762	0	0	0	29922	28500	171136	26958	1067304	45820	111135	0	0	7974	629299	0	0
2024-08-02 10:26:47			0	35769	0	0	0	29940	28510	171112	26854	1067376	45811	111142	0	0	7974	628966	0	0
2024-08-02 10:27:47			0	35743	0	0	0	29979	28520	171148	26993	1067448	45833	111157	0	0	7972	630032	0	0
2024-08-02 10:28:47			0	35771	0	0	0	29968	28530	171116	26876	1067520	45824	111153	0	0	7974	628809	0	0
2024-08-02 10:29:47			0	35779	0	0	0	29984	28530	171032	26708	1067547	45824	111159	0	0	7974	628470	0	0
2024-08-02 10:30:47			0	35774	0	0	0	29963	28540	171136	27001	1067655	45847	111151	0	0	7974	628645	0	0
2024-08-02 10:31:47			0	35773	0	0	0	29963	28550	171072	26547	1067583	45836	111151	0	0	7974	628651	0	0
2024-08-02 10:32:47			0	35777	0	0	0	29955	28540	171016	26975	1067547	45825	111148	0	0	7974	628518	0	0
2024-08-02 10:33:47			0	35797	0	0	0	29948	28560	170980	26672	1067601	45815	111145	0	0	7976	627599	0	0
2024-08-02 10:34:47			0	35781	0	0	0	29937	28540	170976	26918	1067466	45814	111141	0	0	7975	628349	0	0
2024-08-02 10:35:47			0	35771	0	0	0	29948	28540	170908	26890	1067520	45802	111145	0	0	7974	628772	0	0
2024-08-02 10:36:47			0	35774	0	0	0	29963	28540	170940	26928	1067511	45824	111151	0	0	7974	628645	0	0
2024-08-02 10:37:47			0	35798	0	0	0	29953	28540	170948	26902	1067520	45814	111147	0	0	7976	627630	0	0
2024-08-02 10:38:47			0	35801	0	0	0	29942	28550	170960	26915	1067529	45826	111143	0	0	7976	627466	0	0
2024-08-02 10:39:47			0	35795	0	0	0	29929	28540	170928	26705	1067511	45835	111138	0	0	7976	627757	0	0
2024-08-02 10:40:47			0	35808	0	0	0	29903	28530	170884	26719	1067421	45813	111128	0	0	7977	627243	0	0
2024-08-02 10:41:47			0	35818	0	0	0	29893	28530	170836	26672	1067358	45801	111124	0	0	7978	626820	0	0
2024-08-02 10:42:47			0	35812	0	0	0	29901	28520	170976	26982	1067322	45812	111127	0	0	7977	627110	0	0
2024-08-02 10:43:47			0	35852	0	0	0	29961	28520	170656	26837	1067430	45800	111150	0	0	7979	625421	0	0
2024-08-02 10:44:47			0	35856	0	0	0	29966	28520	170740	26724	1067430	45823	111152	0	0	7979	625252	0	0
2024-08-02 10:45:47			0	35863	0	0	0	29976	28530	170645	26845	1067529	45813	111156	0	0	7979	624921	0	0
2024-08-02 10:46:47			0	35871	0	0	0	29963	28530	170685	26563	1067502	45824	111151	0	0	7980	624583	0	0
2024-08-02 10:47:47			0	35883	0	0	0	29976	28540	170653	26580	1067511	45835	111156	0	0	7980	624042	0	0
2024-08-02 10:48:47			0	35876	0	0	0	29961	28540	170585	26734	1067547	45825	111150	0	0	7980	624337	0	0
2024-08-02 10:49:47			0	35889	0	0	0	29950	28540	170597	26894	1067493	45825	111146	0	0	7981	623789	0	0
2024-08-02 10:50:47			0	35888	0	0	0	29929	28540	170485	26951	1067538	45835	111138	0	0	7981	623831	0	0
2024-08-02 10:51:47			0	35892	0	0	0	29924	28530	170525	26592	1067448	45835	111136	0	0	7982	623699	0	0
2024-08-02 10:52:47			0	35916	0	0	0	29914	28530	170489	26955	1067421	45824	111132	0	0	7983	622689	0	0
2024-08-02 10:53:47			0	35898	0	0	0	29916	28540	170485	26958	1067430	45813	111133	0	0	7982	623410	0	0
2024-08-02 10:54:47			0	35893	0	0	0	29922	28510	170509	26639	1067385	45822	111135	0	0	7982	623729	0	0
2024-08-02 10:55:47			0	35877	0	0	0	29911	28540	170461	26961	1067511	45824	111131	0	0	7981	624294	0	0
2024-08-02 10:56:47			0	35904	0	0	0	29906	28530	170457	26890	1067412	45824	111129	0	0	7983	623193	0	0
2024-08-02 10:57:47			0	35914	0	0	0	29909	28520	170525	26750	1067403	45800	111130	0	0	7983	622809	0	0
2024-08-02 10:58:47			0	35895	0	0	0	29922	28520	170485	26948	1067403	45823	111135	0	0	7982	623608	0	0
2024-08-02 10:59:47			0	35892	0	0	0	29916	28520	170437	26942	1067484	45823	111133	0	0	7982	623735	0	0
2024-08-02 11:00:47			0	35910	0	0	0	29911	28530	170433	26937	1067439	45824	111131	0	0	7983	622941	0	0
2024-08-02 11:01:47			0	35898	0	0	0	29922	28520	170457	26982	1067394	45811	111135	0	0	7982	623482	0	0
2024-08-02 11:02:47			0	35888	0	0	0	29935	28530	170541	26830	1067412	45824	111140	0	0	7981	623867	0	0
2024-08-02 11:03:47			0	35875	0	0	0	29950	28520	170581	27020	1067484	45823	111146	0	0	7980	624451	0	0
2024-08-02 11:04:47			0	35876	0	0	0	29937	28520	170629	26939	1067511	45812	111141	0	0	7980	624409	0	0
2024-08-02 11:05:47			0	35888	0	0	0	29932	28530	170477	27019	1067529	45813	111139	0	0	7981	623867	0	0
2024-08-02 11:06:47			0	35878	0	0	0	29940	28530	170541	26595	1067475	45824	111142	0	0	7981	624288	0	0
2024-08-02 11:07:47			0	35869	0	0	0	29955	28530	170545	27013	1067529	45835	111148	0	0	7980	624668	0	0
2024-08-02 11:08:47			0	35877	0	0	0	29966	28540	170649	26823	1067538	45835	111152	0	0	7980	624294	0	0
2024-08-02 11:09:47			0	35872	0	0	0	29973	28540	170545	26899	1067565	45824	111155	0	0	7980	624505	0	0
2024-08-02 11:10:47			0	35867	0	0	0	29981	28540	170581	26618	1067628	45835	111158	0	0	7979	624716	0	0
2024-08-02 11:11:47			0	35879	0	0	0	29981	28550	170509	26654	1067637	45826	111158	0	0	7980	624174	0	0
2024-08-02 11:12:47			0	35873	0	0	0	29984	28550	170665	26613	1067700	45836	111159	0	0	7980	624427	0	0
2024-08-02 11:13:47			0	35890	0	0	0	29994	28550	170569	26873	1067664	45826	111163	0	0	7980	623711	0	0
2024-08-02 11:14:47			0	35887	0	0	0	30007	28560	170581	26653	1067691	45827	111168	0	0	7980	623801	0	0
2024-08-02 11:15:47			0	35888	0	0	0	30015	28570	170421	26918	1067781	45838	111171	0	0	7980	623723	0	0
2024-08-02 11:16:47			0	35895	0	0	0	30025	28580	170497	26452	1067852	45851	111175	0	0	7980	623392	0	0
2024-08-02 11:17:47			0	35902	0	0	0	30025	28580	170441	26739	1067861	45851	111175	0	0	7981	623097	0	0
2024-08-02 11:18:47			0	35907	0	0	0	30031	28580	170289	26557	1067861	45829	111177	0	0	7981	622887	0	0
2024-08-02 11:19:47			0	35938	0	0	0	30041	28590	170265	26804	1067897	45840	111181	0	0	7983	621548	0	0
2024-08-02 11:20:47			0	35948	0	0	0	30041	28600	170165	26644	1067942	45831	111181	0	0	7983	621092	0	0
2024-08-02 11:21:47			0	35980	0	0	0	30046	28600	169989	26623	1067924	45831	111183	0	0	7985	619750	0	0
2024-08-02 11:22:47			0	35973	0	0	0	30044	28600	170057	26632	1067942	45820	111182	0	0	7985	620043	0	0
2024-08-02 11:23:47			0	35999	0	0	0	30038	28610	169969	26759	1067969	45821	111180	0	0	7987	618918	0	0
2024-08-02 11:24:47			0	35999	0	0	0	30033	28610	169925	26795	1067906	45842	111178	0	0	7987	618918	0	0
2024-08-02 11:25:47			0	36014	0	0	0	30033	28610	169893	26809	1067987	45832	111178	0	0	7988	618290	0	0
2024-08-02 11:26:47			0	36019	0	0	0	30041	28610	169849	27024	1067969	45843	111181	0	0	7988	618081	0	0
2024-08-02 11:27:47			0	36018	0	0	0	30033	28620	169845	27097	1067951	45833	111178	0	0	7988	618087	0	0
2024-08-02 11:28:47			0	36065	0	0	0	30033	28630	169825	26972	1068005	45812	111178	0	0	7991	616087	0	0
2024-08-02 11:29:47			0	36033	0	0	0	30023	28620	169749	26909	1067924	45833	111174	0	0	7989	617459	0	0
2024-08-02 11:30:47			0	36046	0	0	0	30025	28610	169809	26703	1067969	45833	111175	0	0	7990	616952	0	0
2024-08-02 11:31:47			0	36036	0	0	0	30020	28620	169853	26797	1068005	45821	111173	0	0	7989	617334	0	0
2024-08-02 11:32:47			0	36018	0	0	0	30031	28610	169801	26793	1067942	45821	111177	0	0	7988	618122	0	0
2024-08-02 11:33:47			0	36012	0	0	0	30041	28620	169957	26913	1067951	45833	111181	0	0	7987	618338	0	0
2024-08-02 11:34:47			0	36021	0	0	0	30046	28620	169973	27083	1067978	45821	111183	0	0	7988	617961	0	0
2024-08-02 11:35:47			0	36016	0	0	0	30041	28610	169897	26812	1068023	45833	111181	0	0	7988	618206	0	0
2024-08-02 11:36:47			0	36014	0	0	0	30033	28620	170061	26871	1068005	45833	111178	0	0	7988	618254	0	0
2024-08-02 11:37:47			0	36022	0	0	0	30036	28620	170073	26622	1067951	45810	111179	0	0	7988	617919	0	0
2024-08-02 11:38:47			0	36003	0	0	0	30023	28620	169969	26781	1068005	45833	111174	0	0	7987	618715	0	0
2024-08-02 11:39:47			0	35987	0	0	0	30031	28640	170037	26765	1068014	45812	111177	0	0	7986	619313	0	0
2024-08-02 11:40:47			0	36018	0	0	0	30046	28630	169989	26715	1068059	45834	111183	0	0	7988	618051	0	0
2024-08-02 11:41:47			0	36019	0	0	0	30057	28620	169841	26675	1068041	45833	111187	0	0	7988	618045	0	0
2024-08-02 11:42:47			0	36068	0	0	0	30057	28630	169813	26835	1068140	45823	111187	0	0	7991	615962	0	0
2024-08-02 11:43:47			0	36093	0	0	0	30054	28630	169669	26654	1068059	45834	111186	0	0	7992	614919	0	0
2024-08-02 11:44:47			0	36080	0	0	0	30067	28630	169597	26698	1068050	45822	111191	0	0	7991	615461	0	0
2024-08-02 11:45:47			0	36094	0	0	0	30070	28640	169621	26767	1068149	45834	111192	0	0	7992	614842	0	0
2024-08-02 11:46:47			0	36089	0	0	0	30077	28640	169637	27005	1068185	45824	111195	0	0	7992	615050	0	0
2024-08-02 11:47:47			0	36101	0	0	0	30093	28660	169625	26833	1068266	45847	111201	0	0	7992	614479	0	0
2024-08-02 11:48:47			0	36120	0	0	0	30111	28660	169469	26956	1068221	45848	111208	0	0	7993	613688	0	0
2024-08-02 11:49:47			0	36160	0	0	0	30106	28670	169337	26665	1068338	45837	111206	0	0	7995	611989	0	0
2024-08-02 11:50:47			0	36178	0	0	0	30109	28670	169173	26965	1068365	45837	111207	0	0	7996	611242	0	0
2024-08-02 11:51:47			0	36216	0	0	0	30109	28680	168977	26823	1068293	45849	111207	0	0	7999	609631	0	0
2024-08-02 11:52:47			0	36240	0	0	0	30116	28680	168925	26616	1068383	45862	111210	0	0	8000	608637	0	0
2024-08-02 11:53:47			0	36240	0	0	0	30132	28690	168933	26868	1068338	45828	111216	0	0	8000	608602	0	0
2024-08-02 11:54:47			0	36222	0	0	0	30127	28700	168981	26637	1068410	45851	111214	0	0	7999	609312	0	0
2024-08-02 11:55:47			0	36173	0	0	0	30129	28720	169149	26960	1068392	45842	111215	0	0	7996	611272	0	0
2024-08-02 11:56:47			0	36192	0	0	0	30129	28700	169157	27060	1068446	45852	111215	0	0	7997	610555	0	0
2024-08-02 11:57:47			0	36202	0	0	0	30132	28710	169073	26776	1068464	45853	111216	0	0	7998	610105	0	0
2024-08-02 11:58:47			0	36216	0	0	0	30137	28700	168917	26670	1068446	45830	111218	0	0	7998	609560	0	0
2024-08-02 11:59:47			0	36227	0	0	0	30137	28720	168721	26911	1068472	45842	111218	0	0	7999	609034	0	0
2024-08-02 12:00:47			0	36243	0	0	0	30153	28720	168749	26981	1068481	45843	111224	0	0	8000	608372	0	0
2024-08-02 12:01:47			0	36243	0	0	0	30153	28730	168833	27027	1068571	45832	111224	0	0	8000	608337	0	0
2024-08-02 12:02:47			0	36257	0	0	0	30181	28730	168721	27045	1068544	45843	111235	0	0	8000	607758	0	0
2024-08-02 12:03:47			0	36271	0	0	0	30186	28730	168689	26687	1068571	45866	111237	0	0	8001	607180	0	0
2024-08-02 12:04:47			0	36267	0	0	0	30179	28740	168633	26838	1068643	45844	111234	0	0	8001	607310	0	0
2024-08-02 12:05:47			0	36293	0	0	0	30174	28750	168449	26941	1068661	45868	111232	0	0	8003	606201	0	0
2024-08-02 12:06:47			0	36290	0	0	0	30179	28740	168441	27033	1068625	45833	111234	0	0	8002	606360	0	0
2024-08-02 12:07:47			0	36333	0	0	0	30163	28750	168317	26876	1068661	45845	111228	0	0	8005	604553	0	0
2024-08-02 12:08:47			0	36356	0	0	0	30168	28750	168145	26691	1068670	45834	111230	0	0	8006	603606	0	0
2024-08-02 12:09:47			0	36416	0	0	0	30179	28750	168037	27118	1068670	45824	111234	0	0	8010	601141	0	0
2024-08-02 12:10:47			0	36409	0	0	0	30184	28750	168053	26694	1068724	45834	111236	0	0	8009	601429	0	0
2024-08-02 12:11:47			0	36396	0	0	0	30194	28760	168097	26880	1068688	45858	111240	0	0	8008	601927	0	0
2024-08-02 12:12:47			0	36382	0	0	0	30186	28760	168201	26649	1068769	45835	111237	0	0	8008	602502	0	0
2024-08-02 12:13:47			0	36370	0	0	0	30189	28770	168149	27019	1068760	45848	111238	0	0	8007	602960	0	0
2024-08-02 12:14:47			0	36355	0	0	0	30174	28770	168301	26961	1068679	45836	111232	0	0	8006	603577	0	0
2024-08-02 12:15:47			0	36375	0	0	0	30168	28780	168285	26833	1068715	45849	111230	0	0	8008	602720	0	0
2024-08-02 12:16:47			0	36388	0	0	0	30179	28780	168045	26786	1068778	45837	111234	0	0	8008	602186	0	0
2024-08-02 12:17:47			0	36407	0	0	0	30158	28770	167909	27027	1068760	45826	111226	0	0	8010	601441	0	0
2024-08-02 12:18:47			0	36417	0	0	0	30163	28780	167877	26899	1068742	45827	111228	0	0	8010	600996	0	0
2024-08-02 12:19:47			0	36436	0	0	0	30155	28770	167949	26745	1068670	45835	111225	0	0	8012	600252	0	0
2024-08-02 12:20:47			0	36432	0	0	0	30145	28760	167805	27029	1068634	45835	111221	0	0	8011	600451	0	0
2024-08-02 12:21:47			0	36421	0	0	0	30153	28760	167745	26902	1068625	45835	111224	0	0	8011	600902	0	0
2024-08-02 12:22:47			0	36442	0	0	0	30161	28760	167845	27067	1068625	45847	111227	0	0	8012	600041	0	0
2024-08-02 12:23:47			0	36437	0	0	0	30158	28760	167909	27124	1068661	45835	111226	0	0	8012	600246	0	0
2024-08-02 12:24:47			0	36429	0	0	0	30189	28770	167917	27071	1068697	45835	111238	0	0	8011	600539	0	0
2024-08-02 12:25:47			0	36390	0	0	0	30189	28770	167889	26953	1068697	45835	111238	0	0	8008	602139	0	0
2024-08-02 12:26:47			0	36403	0	0	0	30212	28770	167957	27282	1068760	45836	111247	0	0	8009	601605	0	0
2024-08-02 12:27:47			0	36388	0	0	0	30246	28780	167917	27013	1068877	45860	111260	0	0	8007	602186	0	0
2024-08-02 12:28:47			0	36389	0	0	0	30264	28780	167957	26873	1068913	45849	111267	0	0	8007	602145	0	0
2024-08-02 12:29:47			0	36397	0	0	0	30254	28800	168017	26934	1069003	45851	111263	0	0	8008	601747	0	0
2024-08-02 12:30:47			0	36384	0	0	0	30233	28810	168073	27145	1069093	45852	111255	0	0	8007	602246	0	0
2024-08-02 12:31:47			0	36404	0	0	0	30220	28820	168001	26951	1069030	45875	111250	0	0	8009	601390	0	0
2024-08-02 12:32:47			0	36392	0	0	0	30231	28820	167969	26762	1069030	45841	111254	0	0	8008	601882	0	0
2024-08-02 12:33:47			0	36385	0	0	0	30238	28820	167889	26700	1069030	45853	111257	0	0	8007	602170	0	0
2024-08-02 12:34:47			0	36401	0	0	0	30246	28820	168013	26696	1069039	45842	111260	0	0	8008	601513	0	0
2024-08-02 12:35:47			0	36390	0	0	0	30231	28820	167969	26882	1069066	45865	111254	0	0	8008	601964	0	0
2024-08-02 12:36:47			0	36397	0	0	0	30225	28820	167905	26746	1068976	45864	111252	0	0	8008	601677	0	0
2024-08-02 12:37:47			0	36434	0	0	0	30207	28820	167797	26797	1069003	45853	111245	0	0	8011	600160	0	0
2024-08-02 12:38:47			0	36438	0	0	0	30207	28820	167853	26842	1069030	45841	111245	0	0	8011	599996	0	0
2024-08-02 12:39:47			0	36397	0	0	0	30233	28830	167905	26908	1069021	45832	111255	0	0	8008	601642	0	0
2024-08-02 12:40:47			0	36396	0	0	0	30228	28820	167913	26800	1069030	45864	111253	0	0	8008	601718	0	0
2024-08-02 12:41:47			0	36381	0	0	0	30215	28830	168101	26930	1068994	45842	111248	0	0	8008	602299	0	0
2024-08-02 12:42:47			0	36382	0	0	0	30194	28810	167985	26918	1068967	45852	111240	0	0	8008	602328	0	0
2024-08-02 12:43:47			0	36367	0	0	0	30199	28820	167989	27105	1068976	45831	111242	0	0	8007	602909	0	0
2024-08-02 12:44:47			0	36363	0	0	0	30197	28820	168109	26946	1068958	45832	111241	0	0	8007	603074	0	0
2024-08-02 12:45:47			0	36366	0	0	0	30207	28810	167985	26981	1068931	45840	111245	0	0	8007	602985	0	0
2024-08-02 12:46:47			0	36375	0	0	0	30215	28810	167909	26769	1068967	45852	111248	0	0	8007	602615	0	0
2024-08-02 12:47:47			0	36397	0	0	0	30202	28830	167849	26682	1069048	45865	111243	0	0	8009	601642	0	0
2024-08-02 12:48:47			0	36417	0	0	0	30207	28820	167961	27085	1069012	45854	111245	0	0	8010	600857	0	0
2024-08-02 12:49:47			0	36406	0	0	0	30215	28820	167905	26970	1069030	45819	111248	0	0	8009	601308	0	0
2024-08-02 12:50:47			0	36426	0	0	0	30225	28820	167853	26745	1069003	45853	111252	0	0	8010	600488	0	0
2024-08-02 12:51:47			0	36427	0	0	0	30231	28820	167765	26852	1069012	45875	111254	0	0	8010	600447	0	0
2024-08-02 12:52:47			0	36449	0	0	0	30228	28820	167733	26968	1069039	45854	111253	0	0	8011	599546	0	0
2024-08-02 12:53:47			0	36447	0	0	0	30246	28830	167729	26746	1069138	45842	111260	0	0	8011	599593	0	0
2024-08-02 12:54:47			0	36455	0	0	0	30249	28830	167717	26767	1069048	45854	111261	0	0	8011	599265	0	0
2024-08-02 12:55:47			0	36437	0	0	0	30249	28830	167769	26873	1069156	45854	111261	0	0	8010	600002	0	0
2024-08-02 12:56:47			0	36433	0	0	0	30249	28830	167833	27095	1069084	45865	111261	0	0	8010	600166	0	0
2024-08-02 12:57:47			0	36428	0	0	0	30251	28830	167785	26674	1069084	45842	111262	0	0	8010	600371	0	0
2024-08-02 12:58:47			0	36434	0	0	0	30254	28830	167785	26781	1069138	45842	111263	0	0	8010	600125	0	0
2024-08-02 12:59:47			0	36432	0	0	0	30246	28840	167697	26873	1069093	45843	111260	0	0	8010	600172	0	0
2024-08-02 13:00:47			0	36460	0	0	0	30254	28840	167737	27215	1069183	45856	111263	0	0	8012	599026	0	0
2024-08-02 13:01:47			0	36446	0	0	0	30254	28830	167613	27144	1069192	45865	111263	0	0	8011	599634	0	0
2024-08-02 13:02:47			0	36462	0	0	0	30257	28830	167681	27069	1069192	45842	111264	0	0	8012	598979	0	0
2024-08-02 13:03:47			0	36463	0	0	0	30262	28840	167681	26925	1069129	45856	111266	0	0	8012	598903	0	0
2024-08-02 13:04:47			0	36474	0	0	0	30244	28850	167581	27131	1069138	45833	111259	0	0	8013	598419	0	0
2024-08-02 13:05:47			0	36503	0	0	0	30249	28840	167545	27050	1069102	45856	111261	0	0	8014	597269	0	0
2024-08-02 13:06:47			0	36496	0	0	0	30233	28840	167473	26759	1069147	45843	111255	0	0	8014	597555	0	0
2024-08-02 13:07:47			0	36509	0	0	0	30241	28840	167437	26937	1069075	45844	111258	0	0	8015	597024	0	0
2024-08-02 13:08:47			0	36499	0	0	0	30225	28840	167361	27005	1069147	45843	111252	0	0	8014	597432	0	0
2024-08-02 13:09:47			0	36533	0	0	0	30207	28830	167373	27033	1069138	45842	111245	0	0	8017	596079	0	0
2024-08-02 13:10:47			0	36534	0	0	0	30225	28840	167341	26972	1069066	45833	111252	0	0	8017	596004	0	0
2024-08-02 13:11:47			0	36509	0	0	0	30220	28840	167469	26896	1069075	45844	111250	0	0	8015	597024	0	0
2024-08-02 13:12:47			0	36496	0	0	0	30246	28830	167465	26705	1069057	45865	111260	0	0	8014	597589	0	0
2024-08-02 13:13:47			0	36499	0	0	0	30244	28840	167369	26682	1069129	45844	111259	0	0	8014	597432	0	0
2024-08-02 13:14:47			0	36502	0	0	0	30249	28840	167373	26927	1069210	45867	111261	0	0	8014	597310	0	0
2024-08-02 13:15:47			0	36504	0	0	0	30262	28830	167465	26800	1069219	45842	111266	0	0	8014	597262	0	0
2024-08-02 13:16:47			0	36517	0	0	0	30262	28840	167453	26504	1069156	45856	111266	0	0	8015	596697	0	0
2024-08-02 13:17:47			0	36497	0	0	0	30280	28850	167369	26946	1069273	45844	111273	0	0	8013	597479	0	0
2024-08-02 13:18:47			0	36512	0	0	0	30290	28850	167481	26902	1069282	45856	111277	0	0	8014	596867	0	0
2024-08-02 13:19:47			0	36508	0	0	0	30298	28860	167493	26887	1069318	45868	111280	0	0	8014	596995	0	0
2024-08-02 13:20:47			0	36508	0	0	0	30303	28860	167433	26816	1069371	45868	111282	0	0	8014	596995	0	0
2024-08-02 13:21:47			0	36507	0	0	0	30309	28870	167533	26809	1069416	45858	111284	0	0	8014	597002	0	0
2024-08-02 13:22:47			0	36517	0	0	0	30316	28880	167461	27033	1069417	45859	111287	0	0	8014	596559	0	0
2024-08-02 13:23:47			0	36513	0	0	0	30335	28880	167437	27076	1069462	45880	111294	0	0	8014	596722	0	0
2024-08-02 13:24:47			0	36524	0	0	0	30368	28890	167449	27034	1069534	45872	111307	0	0	8014	596239	0	0
2024-08-02 13:25:47			0	36521	0	0	0	30405	28900	167381	27178	1069642	45895	111321	0	0	8013	596327	0	0
2024-08-02 13:26:47			0	36530	0	0	0	30389	28920	167353	27249	1069750	45874	111315	0	0	8014	595891	0	0
2024-08-02 13:27:47			0	36534	0	0	0	30379	28920	167321	26660	1069759	45875	111311	0	0	8014	595728	0	0
2024-08-02 13:28:47			0	36538	0	0	0	30373	28930	167297	26811	1069687	45875	111309	0	0	8015	595530	0	0
2024-08-02 13:29:47			0	36559	0	0	0	30361	28930	167189	26628	1069687	45864	111304	0	0	8016	594675	0	0
2024-08-02 13:30:47			0	36550	0	0	0	30373	28930	167201	26927	1069777	45864	111309	0	0	8015	595041	0	0
2024-08-02 13:31:47			0	36577	0	0	0	30384	28930	167121	26648	1069777	45886	111313	0	0	8017	593943	0	0
2024-08-02 13:32:47			0	36581	0	0	0	30394	28950	167093	27088	1069804	45866	111317	0	0	8017	593711	0	0
2024-08-02 13:33:47			0	36583	0	0	0	30405	28960	167033	26968	1069822	45867	111321	0	0	8017	593596	0	0
2024-08-02 13:34:47			0	36589	0	0	0	30405	28970	166989	26984	1069947	45879	111321	0	0	8017	593317	0	0
2024-08-02 13:35:47			0	36583	0	0	0	30410	28980	166977	27126	1069929	45880	111323	0	0	8017	593527	0	0
2024-08-02 13:36:47			0	36584	0	0	0	30405	28990	166937	27079	1069974	45869	111321	0	0	8017	593452	0	0
2024-08-02 13:37:47			0	36601	0	0	0	30418	28980	167006	27263	1069992	45869	111326	0	0	8018	592795	0	0
2024-08-02 13:38:47			0	36608	0	0	0	30428	28990	166998	27078	1070010	45859	111330	0	0	8018	592477	0	0
2024-08-02 13:39:47			0	36607	0	0	0	30425	29000	166894	27093	1070082	45860	111329	0	0	8018	592483	0	0
2024-08-02 13:40:47			0	36610	0	0	0	30423	29000	166882	26838	1070082	45882	111328	0	0	8018	592361	0	0
2024-08-02 13:41:47			0	36618	0	0	0	30431	29010	166922	26967	1070091	45871	111331	0	0	8019	592002	0	0
2024-08-02 13:42:47			0	36629	0	0	0	30433	29010	166930	27154	1070118	45871	111332	0	0	8019	591556	0	0
2024-08-02 13:43:47			0	36623	0	0	0	30441	29010	166918	27467	1070127	45872	111335	0	0	8019	591800	0	0
2024-08-02 13:44:47			0	36607	0	0	0	30467	29030	166918	27178	1070164	45885	111345	0	0	8018	592380	0	0
2024-08-02 13:45:47			0	36622	0	0	0	30477	29020	166814	26998	1070190	45862	111349	0	0	8018	591806	0	0
2024-08-02 13:46:47			0	36627	0	0	0	30488	29030	166914	26908	1070298	45874	111353	0	0	8019	591569	0	0
2024-08-02 13:47:47			0	36637	0	0	0	30501	29040	166890	26913	1070370	45887	111358	0	0	8019	591129	0	0
2024-08-02 13:48:47			0	36658	0	0	0	30506	29050	166758	26908	1070388	45898	111360	0	0	8020	590244	0	0
2024-08-02 13:49:47			0	36652	0	0	0	30503	29060	166778	26970	1070433	45889	111359	0	0	8020	590453	0	0
2024-08-02 13:50:47			0	36646	0	0	0	30511	29070	166746	26904	1070451	45877	111362	0	0	8019	590662	0	0
2024-08-02 13:51:47			0	36662	0	0	0	30509	29070	166666	26753	1070451	45877	111361	0	0	8020	590014	0	0
2024-08-02 13:52:47			0	36652	0	0	0	30506	29080	166574	26687	1070469	45869	111360	0	0	8020	590384	0	0
2024-08-02 13:53:47			0	36657	0	0	0	30511	29090	166674	26828	1070541	45892	111362	0	0	8020	590148	0	0
2024-08-02 13:54:47			0	36675	0	0	0	30524	29100	166602	26892	1070550	45880	111367	0	0	8021	589385	0	0
2024-08-02 13:55:47			0	36657	0	0	0	30555	29100	166690	26866	1070613	45881	111379	0	0	8020	590113	0	0
2024-08-02 13:56:47			0	36674	0	0	0	30579	29110	166646	26712	1070676	45905	111388	0	0	8020	589391	0	0
2024-08-02 13:57:47			0	36682	0	0	0	30584	29130	166558	26873	1070802	45884	111390	0	0	8021	589000	0	0
2024-08-02 13:58:47			0	36682	0	0	0	30584	29130	166566	27079	1070820	45884	111390	0	0	8021	589000	0	0
2024-08-02 13:59:47			0	36693	0	0	0	30576	29140	166510	26889	1070865	45884	111387	0	0	8021	588521	0	0
2024-08-02 14:00:47			0	36700	0	0	0	30579	29150	166606	26878	1070802	45875	111388	0	0	8022	588204	0	0
2024-08-02 14:01:47			0	36719	0	0	0	30589	29150	166458	26922	1070811	45886	111392	0	0	8023	587437	0	0
2024-08-02 14:02:47			0	36709	0	0	0	30571	29160	166366	26826	1070937	45876	111385	0	0	8023	587807	0	0
2024-08-02 14:03:47			0	36729	0	0	0	30563	29160	166326	26977	1070856	45876	111382	0	0	8024	587000	0	0
2024-08-02 14:04:47			0	36732	0	0	0	30542	29160	166334	26809	1070847	45876	111374	0	0	8024	586879	0	0
2024-08-02 14:05:47			0	36731	0	0	0	30542	29170	166258	27029	1070865	45866	111374	0	0	8024	586885	0	0
2024-08-02 14:06:47			0	36747	0	0	0	30550	29160	166318	26727	1070883	45876	111377	0	0	8025	586274	0	0
2024-08-02 14:07:47			0	36754	0	0	0	30550	29160	166158	26729	1070883	45887	111377	0	0	8026	585992	0	0
2024-08-02 14:08:47			0	36760	0	0	0	30563	29170	165966	26642	1070901	45889	111382	0	0	8026	585717	0	0
2024-08-02 14:09:47			0	36781	0	0	0	30605	29170	165958	26759	1070955	45867	111398	0	0	8026	584872	0	0
2024-08-02 14:10:47			0	36797	0	0	0	30670	29190	165902	26986	1071180	45902	111423	0	0	8026	584161	0	0
2024-08-02 14:11:47			0	36810	0	0	0	30703	29200	165862	26965	1071306	45914	111436	0	0	8026	583604	0	0
2024-08-02 14:12:47			0	36837	0	0	0	30703	29220	165682	26783	1071369	45916	111436	0	0	8028	582453	0	0
2024-08-02 14:13:47			0	36860	0	0	0	30716	29230	165666	26946	1071432	45894	111441	0	0	8029	581497	0	0
2024-08-02 14:14:47			0	36867	0	0	0	30711	29230	165510	27157	1071468	45906	111439	0	0	8030	581217	0	0
2024-08-02 14:15:47			0	36880	0	0	0	30709	29250	165486	27001	1071495	45896	111438	0	0	8031	580629	0	0
2024-08-02 14:16:47			0	36885	0	0	0	30683	29250	165438	26609	1071531	45897	111428	0	0	8031	580429	0	0
2024-08-02 14:17:47			0	36889	0	0	0	30638	29270	165422	26807	1071495	45898	111411	0	0	8033	580202	0	0
2024-08-02 14:18:47			0	36905	0	0	0	30633	29260	165346	27036	1071351	45885	111409	0	0	8034	579596	0	0
2024-08-02 14:19:47			0	36909	0	0	0	30623	29250	165398	26989	1071369	45875	111405	0	0	8034	579469	0	0
2024-08-02 14:20:47			0	36922	0	0	0	30618	29250	165406	27036	1071306	45874	111403	0	0	8035	578950	0	0
2024-08-02 14:21:47			0	36922	0	0	0	30625	29250	165270	26979	1071333	45884	111406	0	0	8035	578950	0	0
2024-08-02 14:22:47			0	36939	0	0	0	30631	29260	165234	27202	1071405	45885	111408	0	0	8036	578238	0	0
2024-08-02 14:23:47			0	36933	0	0	0	30631	29260	165278	26996	1071405	45875	111408	0	0	8035	578477	0	0
2024-08-02 14:24:47			0	36938	0	0	0	30628	29260	165154	26767	1071432	45885	111407	0	0	8036	578278	0	0
2024-08-02 14:25:47			0	36947	0	0	0	30644	29250	165230	27034	1071414	45884	111413	0	0	8036	577952	0	0
2024-08-02 14:26:47			0	36956	0	0	0	30675	29260	165286	26757	1071486	45908	111425	0	0	8036	577560	0	0
2024-08-02 14:27:47			0	36935	0	0	0	30735	29270	165230	26826	1071549	45909	111448	0	0	8034	578364	0	0
2024-08-02 14:28:47			0	36959	0	0	0	30771	29280	165218	26989	1071648	45899	111462	0	0	8034	577373	0	0
2024-08-02 14:29:47			0	36991	0	0	0	30781	29300	164954	26975	1071792	45912	111466	0	0	8036	576031	0	0
2024-08-02 14:30:47			0	37058	0	0	0	30792	29310	164650	26705	1071891	45935	111470	0	0	8040	573336	0	0
2024-08-02 14:31:47			0	37090	0	0	0	30779	29320	164590	26745	1071909	45925	111465	0	0	8042	572034	0	0
2024-08-02 14:32:47			0	37108	0	0	0	30750	29330	164422	26842	1071900	45904	111454	0	0	8044	571288	0	0
2024-08-02 14:33:47			0	37092	0	0	0	30742	29330	164378	26890	1071792	45915	111451	0	0	8043	571921	0	0
2024-08-02 14:34:47			0	37103	0	0	0	30753	29330	164278	26897	1071846	45904	111455	0	0	8043	571486	0	0
2024-08-02 14:35:47			0	37101	0	0	0	30742	29330	164286	26844	1071855	45893	111451	0	0	8043	571565	0	0
2024-08-02 14:36:47			0	37112	0	0	0	30716	29340	164238	26646	1071837	45894	111441	0	0	8045	571096	0	0
2024-08-02 14:37:47			0	37104	0	0	0	30693	29320	164298	26885	1071729	45881	111432	0	0	8044	571479	0	0
2024-08-02 14:38:47			0	37113	0	0	0	30693	29320	164262	26767	1071648	45881	111432	0	0	8045	571123	0	0
2024-08-02 14:39:47			0	37143	0	0	0	30701	29320	164286	26511	1071693	45880	111435	0	0	8047	569937	0	0
2024-08-02 14:40:47			0	37137	0	0	0	30719	29320	164142	27072	1071783	45892	111442	0	0	8046	570174	0	0
2024-08-02 14:41:47			0	37139	0	0	0	30711	29330	164286	26759	1071828	45882	111439	0	0	8046	570062	0	0
2024-08-02 14:42:47			0	37122	0	0	0	30693	29330	164266	26939	1071747	45882	111432	0	0	8046	570734	0	0
2024-08-02 14:43:47			0	37150	0	0	0	30698	29330	164270	27066	1071738	45881	111434	0	0	8047	569627	0	0
2024-08-02 14:44:47			0	37156	0	0	0	30714	29320	164134	26896	1071747	45914	111440	0	0	8047	569423	0	0
2024-08-02 14:45:47			0	37160	0	0	0	30740	29330	164070	26791	1071819	45904	111450	0	0	8047	569232	0	0
2024-08-02 14:46:47			0	37172	0	0	0	30719	29330	164142	26670	1071855	45905	111442	0	0	8048	568758	0	0
2024-08-02 14:47:47			0	37182	0	0	0	30703	29330	164098	26859	1071801	45893	111436	0	0	8049	568364	0	0
2024-08-02 14:48:47			0	37181	0	0	0	30703	29330	164054	26687	1071738	45881	111436	0	0	8049	568403	0	0
2024-08-02 14:49:47			0	37178	0	0	0	30696	29330	164054	26746	1071774	45882	111433	0	0	8049	568522	0	0
2024-08-02 14:50:47			0	37175	0	0	0	30693	29330	164022	26660	1071711	45881	111432	0	0	8049	568640	0	0
2024-08-02 14:51:47			0	37182	0	0	0	30683	29320	164054	26828	1071702	45892	111428	0	0	8049	568397	0	0
2024-08-02 14:52:47			0	37184	0	0	0	30683	29310	163990	26660	1071630	45869	111428	0	0	8049	568351	0	0
2024-08-02 14:53:47			0	37200	0	0	0	30696	29320	163978	26930	1071693	45891	111433	0	0	8050	567687	0	0
2024-08-02 14:54:47			0	37198	0	0	0	30711	29310	164014	27026	1071738	45880	111439	0	0	8050	567799	0	0
2024-08-02 14:55:47			0	37185	0	0	0	30727	29330	164014	27064	1071738	45892	111445	0	0	8049	568246	0	0
2024-08-02 14:56:47			0	37208	0	0	0	30732	29320	163978	26953	1071801	45914	111447	0	0	8050	567372	0	0
2024-08-02 14:57:47			0	37224	0	0	0	30732	29320	164026	26987	1071756	45881	111447	0	0	8051	566742	0	0
2024-08-02 14:58:47			0	37236	0	0	0	30719	29330	163866	27105	1071819	45904	111442	0	0	8052	566237	0	0
2024-08-02 14:59:47			0	37246	0	0	0	30722	29330	163790	26793	1071846	45892	111443	0	0	8052	565843	0	0
2024-08-02 15:00:47			0	37244	0	0	0	30742	29340	163778	26757	1071756	45894	111451	0	0	8052	565889	0	0
2024-08-02 15:01:47			0	37235	0	0	0	30753	29330	163714	26875	1071882	45893	111455	0	0	8051	566276	0	0
2024-08-02 15:02:47			0	37247	0	0	0	30735	29340	163798	27131	1071954	45916	111448	0	0	8052	565771	0	0
2024-08-02 15:03:47			0	37252	0	0	0	30740	29350	163758	26878	1071936	45906	111450	0	0	8052	565542	0	0
2024-08-02 15:04:47			0	37255	0	0	0	30755	29350	163718	26634	1071972	45895	111456	0	0	8052	565424	0	0
2024-08-02 15:05:47			0	37262	0	0	0	30763	29350	163786	26842	1071918	45895	111459	0	0	8053	565148	0	0
2024-08-02 15:06:47			0	37280	0	0	0	30781	29350	163622	26781	1071963	45894	111466	0	0	8053	564442	0	0
2024-08-02 15:07:47			0	37297	0	0	0	30789	29360	163610	26968	1072044	45896	111469	0	0	8054	563741	0	0
2024-08-02 15:08:47			0	37294	0	0	0	30807	29360	163630	26831	1072008	45929	111476	0	0	8054	563859	0	0
2024-08-02 15:09:47			0	37301	0	0	0	30794	29370	163506	26942	1072089	45909	111471	0	0	8054	563552	0	0
2024-08-02 15:10:47			0	37329	0	0	0	30794	29370	163427	26930	1072089	45897	111471	0	0	8056	562454	0	0
2024-08-02 15:11:47			0	37333	0	0	0	30789	29380	163359	26918	1072053	45910	111469	0	0	8056	562265	0	0
2024-08-02 15:12:47			0	37345	0	0	0	30789	29380	163383	26667	1072071	45898	111469	0	0	8057	561795	0	0
2024-08-02 15:13:47			0	37350	0	0	0	30773	29370	163295	26790	1072035	45886	111463	0	0	8058	561632	0	0
2024-08-02 15:14:47			0	37353	0	0	0	30768	29370	163223	26654	1072035	45909	111461	0	0	8058	561515	0	0
2024-08-02 15:15:47			0	37337	0	0	0	30763	29380	163319	26793	1071963	45898	111459	0	0	8057	562108	0	0
2024-08-02 15:16:47			0	37345	0	0	0	30766	29370	163343	27166	1072053	45886	111460	0	0	8057	561828	0	0
2024-08-02 15:17:47			0	37349	0	0	0	30771	29370	163315	26705	1071945	45909	111462	0	0	8058	561671	0	0
2024-08-02 15:18:47			0	37334	0	0	0	30748	29370	163371	26741	1072035	45897	111453	0	0	8057	562259	0	0
2024-08-02 15:19:47			0	37338	0	0	0	30732	29360	163295	26774	1071963	45885	111447	0	0	8058	562135	0	0
2024-08-02 15:20:47			0	37352	0	0	0	30735	29370	163275	26648	1071945	45897	111448	0	0	8058	561554	0	0
2024-08-02 15:21:47			0	37341	0	0	0	30732	29360	163363	26738	1071936	45896	111447	0	0	8058	562017	0	0
2024-08-02 15:22:47			0	37311	0	0	0	30716	29360	163410	26939	1071927	45896	111441	0	0	8056	563192	0	0
2024-08-02 15:23:47			0	37290	0	0	0	30729	29360	163418	26876	1071882	45908	111446	0	0	8055	564016	0	0
2024-08-02 15:24:47			0	37298	0	0	0	30732	29350	163518	26896	1071945	45895	111447	0	0	8055	563735	0	0
2024-08-02 15:25:47			0	37281	0	0	0	30716	29360	163598	26738	1071963	45885	111441	0	0	8055	564370	0	0
2024-08-02 15:26:47			0	37267	0	0	0	30711	29350	163666	27048	1071891	45895	111439	0	0	8054	564952	0	0
2024-08-02 15:27:47			0	37267	0	0	0	30727	29350	163582	26698	1071855	45883	111445	0	0	8053	564952	0	0
2024-08-02 15:28:47			0	37295	0	0	0	30740	29360	163630	26856	1071963	45896	111450	0	0	8055	563820	0	0
2024-08-02 15:29:47			0	37284	0	0	0	30742	29360	163578	26977	1071981	45908	111451	0	0	8054	564252	0	0
2024-08-02 15:30:47			0	37258	0	0	0	30735	29360	163710	27119	1071954	45908	111448	0	0	8053	565273	0	0
2024-08-02 15:31:47			0	37279	0	0	0	30755	29360	163626	26778	1071927	45896	111456	0	0	8054	564448	0	0
2024-08-02 15:32:47			0	37276	0	0	0	30786	29360	163646	27083	1072062	45918	111468	0	0	8053	564566	0	0
2024-08-02 15:33:47			0	37260	0	0	0	30784	29380	163706	27081	1072071	45920	111467	0	0	8052	565129	0	0
2024-08-02 15:34:47			0	37262	0	0	0	30807	29380	163574	26798	1072107	45920	111476	0	0	8052	565050	0	0
2024-08-02 15:35:47			0	37301	0	0	0	30815	29380	163486	26686	1072179	45910	111479	0	0	8054	563519	0	0
2024-08-02 15:36:47			0	37333	0	0	0	30771	29390	163279	26953	1072170	45911	111462	0	0	8057	562232	0	0
2024-08-02 15:37:47			0	37383	0	0	0	30729	29380	162999	26493	1072071	45887	111446	0	0	8060	560309	0	0
2024-08-02 15:38:47			0	37379	0	0	0	30740	29380	163067	26733	1071999	45898	111450	0	0	8060	560466	0	0
2024-08-02 15:39:47			0	37369	0	0	0	30763	29370	163215	26689	1072008	45886	111459	0	0	8059	560889	0	0
2024-08-02 15:40:47			0	37346	0	0	0	30763	29370	163271	26845	1072008	45886	111459	0	0	8058	561789	0	0
2024-08-02 15:41:47			0	37363	0	0	0	30750	29370	163271	27112	1072035	45897	111454	0	0	8059	561124	0	0
2024-08-02 15:42:47			0	37351	0	0	0	30724	29380	163207	26632	1071990	45898	111444	0	0	8059	561560	0	0
2024-08-02 15:43:47			0	37349	0	0	0	30716	29370	163227	26932	1071972	45897	111441	0	0	8059	561671	0	0
2024-08-02 15:44:47			0	37309	0	0	0	30763	29370	163406	26925	1072026	45897	111459	0	0	8055	563238	0	0
2024-08-02 15:45:47			0	37310	0	0	0	30792	29370	163478	26882	1072080	45897	111470	0	0	8055	563199	0	0
2024-08-02 15:46:47			0	37292	0	0	0	30789	29370	163478	26802	1072053	45909	111469	0	0	8054	563905	0	0
2024-08-02 15:47:47			0	37293	0	0	0	30750	29370	163526	26802	1072116	45897	111454	0	0	8055	563866	0	0
2024-08-02 15:48:47			0	37294	0	0	0	30742	29370	163518	27166	1072035	45909	111451	0	0	8055	563827	0	0
2024-08-02 15:49:47			0	37268	0	0	0	30735	29380	163566	26743	1072098	45898	111448	0	0	8054	564814	0	0
2024-08-02 15:50:47			0	37270	0	0	0	30768	29380	163574	26797	1072017	45875	111461	0	0	8053	564736	0	0
2024-08-02 15:51:47			0	37261	0	0	0	30784	29380	163626	27034	1072125	45910	111467	0	0	8052	565089	0	0
2024-08-02 15:52:47			0	37258	0	0	0	30781	29380	163586	26942	1072071	45898	111466	0	0	8052	565207	0	0
2024-08-02 15:53:47			0	37254	0	0	0	30763	29380	163618	26762	1072107	45910	111459	0	0	8052	565364	0	0
2024-08-02 15:54:47			0	37261	0	0	0	30768	29370	163634	26705	1072035	45909	111461	0	0	8053	565122	0	0
2024-08-02 15:55:47			0	37256	0	0	0	30781	29380	163650	27057	1072134	45898	111466	0	0	8052	565286	0	0
2024-08-02 15:56:47			0	37272	0	0	0	30786	29380	163630	26654	1072107	45898	111468	0	0	8053	564657	0	0
2024-08-02 15:57:47			0	37278	0	0	0	30805	29370	163574	26901	1072089	45897	111475	0	0	8053	564454	0	0
2024-08-02 15:58:47			0	37252	0	0	0	30807	29390	163686	26911	1072197	45911	111476	0	0	8051	565410	0	0
2024-08-02 15:59:47			0	37268	0	0	0	30753	29390	163634	26738	1072143	45911	111455	0	0	8053	564781	0	0
2024-08-02 16:00:47			0	37259	0	0	0	30766	29380	163686	26949	1072134	45910	111460	0	0	8053	565168	0	0
2024-08-02 16:01:47			0	37257	0	0	0	30729	29390	163654	26644	1072089	45888	111446	0	0	8053	565214	0	0
2024-08-02 16:02:47			0	37252	0	0	0	30724	29380	163738	26694	1071990	45910	111444	0	0	8053	565443	0	0
2024-08-02 16:03:47			0	37245	0	0	0	30786	29380	163670	27095	1072152	45910	111468	0	0	8051	565718	0	0
2024-08-02 16:04:47			0	37244	0	0	0	30781	29380	163610	26819	1072161	45898	111466	0	0	8051	565757	0	0
2024-08-02 16:05:47			0	37246	0	0	0	30784	29380	163650	27005	1072161	45898	111467	0	0	8051	565679	0	0
2024-08-02 16:06:47			0	37254	0	0	0	30781	29380	163698	27026	1072107	45898	111466	0	0	8052	565364	0	0
2024-08-02 16:07:47			0	37250	0	0	0	30789	29390	163614	27001	1072152	45911	111469	0	0	8052	565489	0	0
2024-08-02 16:08:47			0	37246	0	0	0	30773	29380	163550	27185	1072215	45898	111463	0	0	8052	565679	0	0
2024-08-02 16:09:47			0	37280	0	0	0	30823	29400	163638	27176	1072242	45912	111482	0	0	8053	564278	0	0
2024-08-02 16:10:47			0	37284	0	0	0	30854	29400	163598	27029	1072404	45933	111494	0	0	8053	564121	0	0
2024-08-02 16:11:47			0	37280	0	0	0	30851	29410	163550	26864	1072485	45923	111493	0	0	8052	564245	0	0
2024-08-02 16:12:47			0	37293	0	0	0	30797	29420	163434	27015	1072413	45914	111472	0	0	8054	563702	0	0
2024-08-02 16:13:47			0	37306	0	0	0	30794	29420	163434	27142	1072368	45903	111471	0	0	8055	563192	0	0
2024-08-02 16:14:47			0	37308	0	0	0	30815	29410	163518	27013	1072431	45901	111479	0	0	8055	563147	0	0
2024-08-02 16:15:47			0	37300	0	0	0	30870	29430	163406	27092	1072494	45925	111500	0	0	8053	563395	0	0
2024-08-02 16:16:47			0	37321	0	0	0	30862	29430	163486	27175	1072566	45915	111497	0	0	8055	562572	0	0
2024-08-02 16:17:47			0	37311	0	0	0	30810	29440	163422	27251	1072539	45905	111477	0	0	8055	562931	0	0
2024-08-02 16:18:47			0	37325	0	0	0	30797	29450	163319	27114	1072360	45916	111472	0	0	8056	562349	0	0
2024-08-02 16:19:47			0	37349	0	0	0	30815	29450	163359	26932	1072440	45916	111479	0	0	8057	561410	0	0
2024-08-02 16:20:47			0	37353	0	0	0	30841	29440	163199	27123	1072458	45894	111489	0	0	8057	561286	0	0
2024-08-02 16:21:47			0	37368	0	0	0	30841	29440	163167	27156	1072512	45905	111489	0	0	8058	560700	0	0
2024-08-02 16:22:47			0	37389	0	0	0	30807	29450	163011	26909	1072440	45905	111476	0	0	8060	559847	0	0
2024-08-02 16:23:47			0	37407	0	0	0	30802	29450	162867	26760	1072414	45894	111474	0	0	8061	559144	0	0
2024-08-02 16:24:47			0	37421	0	0	0	30805	29430	163047	26937	1072440	45892	111475	0	0	8061	558663	0	0
2024-08-02 16:25:47			0	37428	0	0	0	30794	29440	163079	26868	1072449	45881	111471	0	0	8062	558358	0	0
2024-08-02 16:26:47			0	37417	0	0	0	30818	29430	162931	27119	1072323	45903	111480	0	0	8061	558820	0	0
2024-08-02 16:27:47			0	37419	0	0	0	30836	29430	162971	26854	1072440	45903	111487	0	0	8061	558742	0	0
2024-08-02 16:28:47			0	37442	0	0	0	30844	29430	162923	26661	1072440	45903	111490	0	0	8062	557845	0	0
2024-08-02 16:29:47			0	37415	0	0	0	30846	29430	162983	27076	1072494	45915	111491	0	0	8060	558897	0	0
2024-08-02 16:30:47			0	37442	0	0	0	30828	29450	162903	26757	1072467	45905	111484	0	0	8062	557780	0	0
2024-08-02 16:31:47			0	37445	0	0	0	30851	29430	162907	26902	1072440	45892	111493	0	0	8062	557728	0	0
2024-08-02 16:32:47			0	37434	0	0	0	30818	29440	162883	26821	1072503	45904	111480	0	0	8062	558124	0	0
2024-08-02 16:33:47			0	37450	0	0	0	30862	29440	162863	26925	1072458	45916	111497	0	0	8062	557501	0	0
2024-08-02 16:34:47			0	37444	0	0	0	30898	29450	162911	27310	1072602	45916	111511	0	0	8061	557702	0	0
2024-08-02 16:35:47			0	37447	0	0	0	30901	29460	162891	26942	1072620	45928	111512	0	0	8062	557553	0	0
2024-08-02 16:36:47			0	37442	0	0	0	30888	29470	162799	26981	1072666	45930	111507	0	0	8061	557715	0	0
2024-08-02 16:37:47			0	37468	0	0	0	30862	29470	162715	27241	1072639	45930	111497	0	0	8063	556703	0	0
2024-08-02 16:38:47			0	37479	0	0	0	30877	29470	162611	27177	1072621	45919	111503	0	0	8064	556276	0	0
2024-08-02 16:39:47			0	37492	0	0	0	30877	29470	162515	26986	1072621	45897	111503	0	0	8065	555770	0	0
2024-08-02 16:40:47			0	37491	0	0	0	30831	29470	162535	27024	1072612	45908	111485	0	0	8065	555809	0	0
2024-08-02 16:41:47			0	37531	0	0	0	30799	29470	162391	27261	1072531	45897	111473	0	0	8068	554256	0	0
2024-08-02 16:42:47			0	37529	0	0	0	30768	29460	162403	27130	1072414	45907	111461	0	0	8069	554366	0	0
2024-08-02 16:43:47			0	37542	0	0	0	30763	29440	162403	27284	1072350	45882	111459	0	0	8069	553926	0	0
2024-08-02 16:44:47			0	37519	0	0	0	30784	29450	162383	26937	1072440	45882	111467	0	0	8068	554786	0	0
2024-08-02 16:45:47			0	37532	0	0	0	30799	29430	162487	26788	1072386	45892	111473	0	0	8068	554346	0	0
2024-08-02 16:46:47			0	37554	0	0	0	30846	29440	162475	26833	1072449	45916	111491	0	0	8069	553461	0	0
2024-08-02 16:47:47			0	37543	0	0	0	30872	29440	162495	27064	1072566	45916	111501	0	0	8067	553888	0	0
2024-08-02 16:48:47			0	37545	0	0	0	30893	29450	162403	26776	1072584	45927	111509	0	0	8067	553778	0	0
2024-08-02 16:49:47			0	37552	0	0	0	30906	29460	162419	27057	1072674	45917	111514	0	0	8067	553474	0	0
2024-08-02 16:50:47			0	37558	0	0	0	30911	29470	162327	26918	1072729	45908	111516	0	0	8068	553210	0	0
2024-08-02 16:51:47			0	37547	0	0	0	30906	29470	162327	26812	1072729	45930	111514	0	0	8067	553636	0	0
2024-08-02 16:52:47			0	37560	0	0	0	30924	29490	162263	26757	1072783	45932	111521	0	0	8068	553068	0	0
2024-08-02 16:53:47			0	37592	0	0	0	30932	29480	162323	27057	1072819	45919	111524	0	0	8069	551861	0	0
2024-08-02 16:54:47			0	37558	0	0	0	30919	29490	162395	26882	1072819	45932	111519	0	0	8068	553145	0	0
2024-08-02 16:55:47			0	37564	0	0	0	30890	29500	162279	26876	1072864	45921	111508	0	0	8069	552881	0	0
2024-08-02 16:56:47			0	37572	0	0	0	30862	29500	162283	26883	1072774	45899	111497	0	0	8070	552571	0	0
2024-08-02 16:57:47			0	37549	0	0	0	30875	29490	162327	26967	1072738	45899	111502	0	0	8068	553494	0	0
2024-08-02 16:58:47			0	37547	0	0	0	30870	29490	162375	27053	1072657	45910	111500	0	0	8068	553571	0	0
2024-08-02 16:59:47			0	37539	0	0	0	30851	29490	162315	26838	1072711	45910	111493	0	0	8068	553882	0	0
2024-08-02 17:00:47			0	37558	0	0	0	30849	29490	162279	26602	1072657	45910	111492	0	0	8069	553145	0	0
2024-08-02 17:01:47			0	37548	0	0	0	30854	29480	162351	26641	1072711	45908	111494	0	0	8068	553565	0	0
2024-08-02 17:02:47			0	37536	0	0	0	30825	29480	162355	27057	1072693	45898	111483	0	0	8068	554030	0	0
2024-08-02 17:03:47			0	37536	0	0	0	30810	29490	162379	26908	1072675	45899	111477	0	0	8068	553998	0	0
2024-08-02 17:04:47			0	37544	0	0	0	30841	29470	162399	26868	1072648	45897	111489	0	0	8068	553752	0	0
2024-08-02 17:05:47			0	37519	0	0	0	30854	29480	162403	27027	1072684	45919	111494	0	0	8067	554689	0	0
2024-08-02 17:06:47			0	37533	0	0	0	30844	29480	162403	26861	1072684	45908	111490	0	0	8068	554146	0	0
2024-08-02 17:07:47			0	37531	0	0	0	30831	29490	162451	26752	1072621	45899	111485	0	0	8068	554192	0	0
2024-08-02 17:08:47			0	37538	0	0	0	30786	29470	162375	26937	1072567	45908	111468	0	0	8069	553985	0	0
2024-08-02 17:09:47			0	37547	0	0	0	30799	29460	162359	26944	1072521	45884	111473	0	0	8069	553668	0	0
2024-08-02 17:10:47			0	37539	0	0	0	30838	29460	162355	26674	1072603	45896	111488	0	0	8068	553978	0	0
2024-08-02 17:11:47			0	37547	0	0	0	30841	29470	162459	26649	1072666	45919	111489	0	0	8068	553636	0	0
2024-08-02 17:12:47			0	37564	0	0	0	30849	29470	162343	27235	1072612	45919	111492	0	0	8069	552977	0	0
2024-08-02 17:13:47			0	37545	0	0	0	30836	29460	162423	26993	1072603	45929	111487	0	0	8068	553746	0	0
2024-08-02 17:14:47			0	37559	0	0	0	30864	29470	162475	26793	1072585	45908	111498	0	0	8069	553171	0	0
2024-08-02 17:15:47			0	37562	0	0	0	30885	29470	162363	27078	1072666	45897	111506	0	0	8068	553055	0	0
2024-08-02 17:16:47			0	37554	0	0	0	30864	29460	162363	27057	1072656	45907	111498	0	0	8068	553397	0	0
2024-08-02 17:17:47			0	37569	0	0	0	30851	29470	162367	27000	1072612	45908	111493	0	0	8069	552784	0	0
2024-08-02 17:18:47			0	37573	0	0	0	30854	29470	162415	27097	1072621	45897	111494	0	0	8070	552629	0	0
2024-08-02 17:19:47			0	37565	0	0	0	30862	29460	162395	26670	1072656	45907	111497	0	0	8069	552971	0	0
2024-08-02 17:20:47			0	37555	0	0	0	30841	29470	162279	26830	1072648	45908	111489	0	0	8069	553326	0	0
2024-08-02 17:21:47			0	37541	0	0	0	30836	29470	162415	26828	1072594	45908	111487	0	0	8068	553868	0	0
2024-08-02 17:22:47			0	37537	0	0	0	30833	29470	162479	26809	1072612	45908	111486	0	0	8068	554024	0	0
2024-08-02 17:23:47			0	37518	0	0	0	30812	29460	162495	27000	1072548	45918	111478	0	0	8067	554793	0	0
2024-08-02 17:24:47			0	37547	0	0	0	30864	29450	162387	27152	1072584	45916	111498	0	0	8068	553700	0	0
2024-08-02 17:25:47			0	37513	0	0	0	30885	29460	162419	26875	1072647	45906	111506	0	0	8066	554987	0	0
2024-08-02 17:26:47			0	37510	0	0	0	30906	29480	162491	26850	1072738	45919	111514	0	0	8065	555039	0	0
2024-08-02 17:27:47			0	37503	0	0	0	30914	29470	162563	27211	1072702	45908	111517	0	0	8065	555343	0	0
2024-08-02 17:28:47			0	37518	0	0	0	30911	29480	162515	26930	1072828	45909	111516	0	0	8066	554728	0	0
2024-08-02 17:29:47			0	37527	0	0	0	30927	29490	162511	27013	1072819	45932	111522	0	0	8066	554347	0	0
2024-08-02 17:30:47			0	37516	0	0	0	30932	29500	162419	26960	1072882	45932	111524	0	0	8065	554741	0	0
2024-08-02 17:31:47			0	37519	0	0	0	30929	29500	162467	27000	1072828	45910	111523	0	0	8065	554625	0	0
2024-08-02 17:32:47			0	37530	0	0	0	30932	29500	162327	26856	1072882	45932	111524	0	0	8066	554198	0	0
2024-08-02 17:33:47			0	37536	0	0	0	30927	29500	162355	26741	1072918	45933	111522	0	0	8066	553966	0	0
2024-08-02 17:34:47			0	37546	0	0	0	30932	29530	162335	26504	1072990	45936	111524	0	0	8067	553481	0	0
2024-08-02 17:35:47			0	37548	0	0	0	30937	29520	162323	26847	1072954	45923	111526	0	0	8067	553436	0	0
2024-08-02 17:36:47			0	37559	0	0	0	30935	29530	162395	27086	1072990	45936	111525	0	0	8068	552978	0	0
2024-08-02 17:37:47			0	37552	0	0	0	30955	29530	162355	26585	1073044	45936	111533	0	0	8067	553249	0	0
2024-08-02 17:38:47			0	37559	0	0	0	30948	29530	162219	26821	1073053	45925	111530	0	0	8068	552978	0	0
2024-08-02 17:39:47			0	37551	0	0	0	30955	29540	162375	26807	1073089	45925	111533	0	0	8067	553255	0	0
2024-08-02 17:40:47			0	37528	0	0	0	30955	29550	162411	26828	1073098	45915	111533	0	0	8066	554115	0	0
2024-08-02 17:41:47			0	37501	0	0	0	30966	29530	162495	26967	1073134	45925	111537	0	0	8064	555227	0	0
2024-08-02 17:42:47			0	37495	0	0	0	30973	29550	162619	26894	1073107	45926	111540	0	0	8063	555395	0	0
2024-08-02 17:43:47			0	37466	0	0	0	30976	29550	162603	26955	1073161	45926	111541	0	0	8062	556522	0	0
2024-08-02 17:44:47			0	37487	0	0	0	30979	29550	162631	26928	1073134	45938	111542	0	0	8063	555706	0	0
2024-08-02 17:45:47			0	37463	0	0	0	30973	29570	162643	26844	1073188	45939	111540	0	0	8062	556574	0	0
2024-08-02 17:46:47			0	37464	0	0	0	30966	29570	162591	26897	1073197	45940	111537	0	0	8062	556535	0	0
2024-08-02 17:47:47			0	37456	0	0	0	30966	29570	162583	26925	1073197	45928	111537	0	0	8061	556846	0	0
2024-08-02 17:48:47			0	37459	0	0	0	30963	29570	162595	26706	1073170	45917	111536	0	0	8062	556729	0	0
2024-08-02 17:49:47			0	37459	0	0	0	30950	29570	162659	27093	1073170	45917	111531	0	0	8062	556729	0	0
2024-08-02 17:50:47			0	37468	0	0	0	30950	29570	162631	27126	1073143	45928	111531	0	0	8062	556380	0	0
2024-08-02 17:51:47			0	37465	0	0	0	30903	29570	162567	26861	1073089	45906	111513	0	0	8063	556496	0	0
2024-08-02 17:52:47			0	37485	0	0	0	30896	29560	162563	26783	1073044	45894	111510	0	0	8064	555751	0	0
2024-08-02 17:53:47			0	37528	0	0	0	30914	29560	162515	27039	1073071	45905	111517	0	0	8066	554082	0	0
2024-08-02 17:54:47			0	37537	0	0	0	30932	29560	162359	26925	1073008	45927	111524	0	0	8067	553734	0	0
2024-08-02 17:55:47			0	37567	0	0	0	30919	29550	162083	26651	1073071	45925	111519	0	0	8069	552604	0	0
2024-08-02 17:56:47			0	37587	0	0	0	30901	29550	162095	26819	1072999	45905	111512	0	0	8070	551830	0	0
2024-08-02 17:57:47			0	37616	0	0	0	30919	29550	162051	26925	1073080	45916	111519	0	0	8071	550709	0	0
2024-08-02 17:58:47			0	37627	0	0	0	30935	29560	161927	26793	1073035	45916	111525	0	0	8072	550252	0	0
2024-08-02 17:59:47			0	37647	0	0	0	30935	29550	161839	26899	1073053	45916	111525	0	0	8073	549513	0	0
2024-08-02 18:00:47			0	37648	0	0	0	30948	29560	161931	26696	1073089	45916	111530	0	0	8073	549442	0	0
2024-08-02 18:01:47			0	37614	0	0	0	30937	29560	162027	26795	1073143	45916	111526	0	0	8071	550754	0	0
2024-08-02 18:02:47			0	37638	0	0	0	30909	29560	161935	26923	1073035	45939	111515	0	0	8073	549828	0	0
2024-08-02 18:03:47			0	37629	0	0	0	30875	29540	161823	26923	1073008	45915	111502	0	0	8073	550239	0	0
2024-08-02 18:04:47			0	37616	0	0	0	30880	29540	161983	26665	1072900	45904	111504	0	0	8072	550741	0	0
2024-08-02 18:05:47			0	37616	0	0	0	30867	29530	162107	26726	1072909	45903	111499	0	0	8072	550773	0	0
2024-08-02 18:06:47			0	37623	0	0	0	30870	29520	161919	26677	1072846	45902	111500	0	0	8072	550535	0	0
2024-08-02 18:07:47			0	37631	0	0	0	30877	29530	161927	27152	1072855	45924	111503	0	0	8073	550194	0	0
2024-08-02 18:08:47			0	37643	0	0	0	30888	29510	161935	27066	1072801	45912	111507	0	0	8073	549795	0	0
2024-08-02 18:09:47			0	37658	0	0	0	30888	29520	161875	26804	1072918	45901	111507	0	0	8074	549185	0	0
2024-08-02 18:10:47			0	37673	0	0	0	30854	29520	161827	26899	1072783	45912	111494	0	0	8076	548606	0	0
2024-08-02 18:11:47			0	37659	0	0	0	30844	29500	161751	26948	1072675	45888	111490	0	0	8075	549210	0	0
2024-08-02 18:12:47			0	37686	0	0	0	30833	29490	161739	26790	1072675	45899	111486	0	0	8077	548201	0	0
2024-08-02 18:13:47			0	37685	0	0	0	30831	29480	161747	26542	1072612	45909	111485	0	0	8077	548272	0	0
2024-08-02 18:14:47			0	37672	0	0	0	30825	29480	161775	26863	1072639	45909	111483	0	0	8076	548773	0	0
2024-08-02 18:15:47			0	37652	0	0	0	30844	29480	162015	27081	1072630	45919	111490	0	0	8074	549544	0	0
2024-08-02 18:16:47			0	37615	0	0	0	30818	29470	162051	27142	1072648	45897	111480	0	0	8073	551004	0	0
2024-08-02 18:17:47			0	37593	0	0	0	30812	29480	162123	26852	1072549	45930	111478	0	0	8072	551823	0	0
2024-08-02 18:18:47			0	37546	0	0	0	30823	29470	162343	26868	1072504	45919	111482	0	0	8069	553675	0	0
2024-08-02 18:19:47			0	37542	0	0	0	30823	29460	162383	27020	1072521	45918	111482	0	0	8068	553862	0	0
2024-08-02 18:20:47			0	37521	0	0	0	30810	29450	162479	26833	1072521	45894	111477	0	0	8067	554709	0	0
2024-08-02 18:21:47			0	37496	0	0	0	30818	29460	162515	26772	1072540	45917	111480	0	0	8066	555647	0	0
2024-08-02 18:22:47			0	37487	0	0	0	30825	29450	162527	26805	1072503	45916	111483	0	0	8065	556029	0	0
2024-08-02 18:23:47			0	37497	0	0	0	30823	29440	162531	26710	1072485	45938	111482	0	0	8066	555673	0	0
2024-08-02 18:24:47			0	37494	0	0	0	30823	29440	162487	26906	1072485	45905	111482	0	0	8065	555790	0	0
2024-08-02 18:25:47			0	37479	0	0	0	30810	29440	162539	26974	1072458	45905	111477	0	0	8065	556373	0	0
2024-08-02 18:26:47			0	37483	0	0	0	30818	29440	162583	26743	1072566	45916	111480	0	0	8065	556217	0	0
2024-08-02 18:27:47			0	37506	0	0	0	30823	29440	162455	26488	1072512	45916	111482	0	0	8066	555323	0	0
2024-08-02 18:28:47			0	37513	0	0	0	30828	29430	162543	27005	1072521	45925	111484	0	0	8066	555084	0	0
2024-08-02 18:29:47			0	37505	0	0	0	30825	29440	162567	26627	1072503	45916	111483	0	0	8066	555362	0	0
2024-08-02 18:30:47			0	37484	0	0	0	30833	29430	162615	26986	1072521	45903	111486	0	0	8065	556210	0	0
2024-08-02 18:31:47			0	37479	0	0	0	30833	29440	162599	26717	1072512	45905	111486	0	0	8064	556373	0	0
2024-08-02 18:32:47			0	37464	0	0	0	30828	29430	162743	27007	1072494	45925	111484	0	0	8064	556989	0	0
2024-08-02 18:33:47			0	37422	0	0	0	30823	29450	162735	26946	1072503	45916	111482	0	0	8061	558559	0	0
2024-08-02 18:34:47			0	37414	0	0	0	30825	29430	162863	26920	1072458	45915	111483	0	0	8061	558936	0	0
2024-08-02 18:35:47			0	37412	0	0	0	30825	29430	162995	26748	1072485	45903	111483	0	0	8061	559015	0	0
2024-08-02 18:36:47			0	37401	0	0	0	30825	29440	163023	26916	1072503	45904	111483	0	0	8060	559411	0	0
2024-08-02 18:37:47			0	37377	0	0	0	30825	29440	163183	26658	1072449	45916	111483	0	0	8059	560348	0	0
2024-08-02 18:38:47			0	37383	0	0	0	30831	29430	163091	26628	1072494	45925	111485	0	0	8059	560146	0	0
2024-08-02 18:39:47			0	37385	0	0	0	30831	29430	163171	26928	1072440	45925	111485	0	0	8059	560068	0	0
2024-08-02 18:40:47			0	37371	0	0	0	30841	29440	163243	26838	1072530	45937	111489	0	0	8058	560583	0	0
2024-08-02 18:41:47			0	37349	0	0	0	30844	29430	163227	26741	1072521	45915	111490	0	0	8057	561476	0	0
2024-08-02 18:42:47			0	37356	0	0	0	30849	29430	163151	26998	1072521	45925	111492	0	0	8057	561202	0	0
2024-08-02 18:43:47			0	37352	0	0	0	30838	29440	163287	26937	1072530	45926	111488	0	0	8057	561325	0	0
2024-08-02 18:44:47			0	37363	0	0	0	30844	29440	163327	26719	1072539	45916	111490	0	0	8058	560895	0	0
2024-08-02 18:45:47			0	37350	0	0	0	30849	29440	163167	26793	1072539	45927	111492	0	0	8057	561404	0	0
2024-08-02 18:46:47			0	37344	0	0	0	30854	29450	163243	26875	1072548	45916	111494	0	0	8056	561606	0	0
2024-08-02 18:47:47			0	37359	0	0	0	30854	29440	163231	27081	1072566	45927	111494	0	0	8057	561052	0	0
2024-08-02 18:48:47			0	37342	0	0	0	30854	29440	163255	26941	1072566	45927	111494	0	0	8056	561717	0	0
2024-08-02 18:49:47			0	37368	0	0	0	30838	29450	163183	26830	1072575	45916	111488	0	0	8058	560667	0	0
2024-08-02 18:50:47			0	37376	0	0	0	30818	29440	163187	26994	1072485	45916	111480	0	0	8059	560387	0	0
2024-08-02 18:51:47			0	37354	0	0	0	30828	29440	163151	26805	1072503	45916	111484	0	0	8057	561247	0	0
2024-08-02 18:52:47			0	37350	0	0	0	30836	29440	163179	26717	1072566	45905	111487	0	0	8057	561404	0	0
2024-08-02 18:53:47			0	37335	0	0	0	30841	29440	163203	27010	1072584	45904	111489	0	0	8056	561991	0	0
2024-08-02 18:54:47			0	37286	0	0	0	30833	29440	163418	26831	1072530	45926	111486	0	0	8053	563911	0	0
2024-08-02 18:55:47			0	37269	0	0	0	30841	29440	163642	26712	1072566	45905	111489	0	0	8052	564578	0	0
2024-08-02 18:56:47			0	37221	0	0	0	30841	29440	163810	27142	1072503	45916	111489	0	0	8049	566465	0	0
2024-08-02 18:57:47			0	37213	0	0	0	30836	29440	163866	26984	1072557	45904	111487	0	0	8049	566779	0	0
2024-08-02 18:58:47			0	37187	0	0	0	30838	29440	163922	27027	1072503	45926	111488	0	0	8047	567803	0	0
2024-08-02 18:59:47			0	37215	0	0	0	30823	29430	163722	26981	1072494	45915	111482	0	0	8049	566734	0	0
2024-08-02 19:00:47			0	37207	0	0	0	30828	29440	163862	26842	1072503	45916	111484	0	0	8049	567016	0	0
2024-08-02 19:01:47			0	37189	0	0	0	30836	29440	163826	27157	1072476	45937	111487	0	0	8048	567725	0	0
2024-08-02 19:02:47			0	37197	0	0	0	30838	29430	163962	27072	1072521	45925	111488	0	0	8048	567443	0	0
2024-08-02 19:03:47			0	37169	0	0	0	30844	29430	163954	26791	1072494	45915	111490	0	0	8046	568546	0	0
2024-08-02 19:04:47			0	37197	0	0	0	30846	29430	163814	26883	1072512	45915	111491	0	0	8048	567443	0	0
2024-08-02 19:05:47			0	37182	0	0	0	30849	29450	163882	26979	1072575	45916	111492	0	0	8047	567968	0	0
2024-08-02 19:06:47			0	37188	0	0	0	30846	29440	163922	26731	1072530	45926	111491	0	0	8047	567764	0	0
2024-08-02 19:07:47			0	37169	0	0	0	30836	29440	164046	26788	1072584	45926	111487	0	0	8046	568513	0	0
2024-08-02 19:08:47			0	37136	0	0	0	30833	29440	164050	26965	1072530	45937	111486	0	0	8045	569816	0	0
2024-08-02 19:09:47			0	37143	0	0	0	30849	29440	164106	26675	1072530	45916	111492	0	0	8045	569539	0	0
2024-08-02 19:10:47			0	37132	0	0	0	30838	29440	164082	26996	1072566	45927	111488	0	0	8044	569974	0	0
2024-08-02 19:11:47			0	37123	0	0	0	30851	29440	164174	26913	1072557	45916	111493	0	0	8043	570329	0	0
2024-08-02 19:12:47			0	37118	0	0	0	30851	29440	164182	26984	1072530	45926	111493	0	0	8043	570527	0	0
2024-08-02 19:13:47			0	37130	0	0	0	30841	29450	164158	26902	1072557	45916	111489	0	0	8044	570020	0	0
2024-08-02 19:14:47			0	37155	0	0	0	30846	29440	164154	26868	1072584	45916	111491	0	0	8045	569065	0	0
2024-08-02 19:15:47			0	37153	0	0	0	30844	29450	164058	26821	1072575	45927	111490	0	0	8045	569111	0	0
2024-08-02 19:16:47			0	37159	0	0	0	30844	29440	164006	26955	1072611	45926	111490	0	0	8046	568908	0	0
2024-08-02 19:17:47			0	37164	0	0	0	30838	29440	164062	26622	1072512	45927	111488	0	0	8046	568710	0	0
2024-08-02 19:18:47			0	37175	0	0	0	30844	29440	163978	26667	1072503	45916	111490	0	0	8047	568276	0	0
2024-08-02 19:19:47			0	37168	0	0	0	30833	29450	164074	26769	1072575	45927	111486	0	0	8046	568520	0	0
2024-08-02 19:20:47			0	37197	0	0	0	30846	29430	164010	26703	1072575	45925	111491	0	0	8048	567443	0	0
2024-08-02 19:21:47			0	37184	0	0	0	30851	29450	163970	26974	1072575	45916	111493	0	0	8047	567889	0	0
2024-08-02 19:22:47			0	37184	0	0	0	30846	29440	163918	26899	1072611	45926	111491	0	0	8047	567922	0	0
2024-08-02 19:23:47			0	37176	0	0	0	30846	29440	164018	26908	1072530	45937	111491	0	0	8047	568237	0	0
2024-08-02 19:24:47			0	37143	0	0	0	30836	29440	164102	26883	1072557	45916	111487	0	0	8045	569539	0	0
2024-08-02 19:25:47			0	37125	0	0	0	30836	29430	164142	26726	1072521	45925	111487	0	0	8044	570284	0	0
2024-08-02 19:26:47			0	37107	0	0	0	30825	29440	164194	26830	1072557	45916	111483	0	0	8043	570962	0	0
2024-08-02 19:27:47			0	37131	0	0	0	30815	29430	164170	26680	1072485	45925	111479	0	0	8044	570046	0	0
2024-08-02 19:28:47			0	37093	0	0	0	30820	29430	164222	27159	1072494	45915	111481	0	0	8042	571549	0	0
2024-08-02 19:29:47			0	37111	0	0	0	30820	29440	164246	26859	1072449	45916	111481	0	0	8043	570804	0	0
2024-08-02 19:30:47			0	37112	0	0	0	30807	29430	164338	27024	1072485	45915	111476	0	0	8044	570797	0	0
2024-08-02 19:31:47			0	37107	0	0	0	30810	29420	164334	26977	1072422	45915	111477	0	0	8043	571029	0	0
2024-08-02 19:32:47			0	37072	0	0	0	30799	29420	164394	26835	1072413	45924	111473	0	0	8041	572414	0	0
2024-08-02 19:33:47			0	37069	0	0	0	30810	29410	164522	26604	1072350	45913	111477	0	0	8041	572566	0	0
2024-08-02 19:34:47			0	37073	0	0	0	30799	29420	164570	27150	1072413	45924	111473	0	0	8041	572374	0	0
2024-08-02 19:35:47			0	37061	0	0	0	30810	29420	164558	26849	1072413	45914	111477	0	0	8040	572850	0	0
2024-08-02 19:36:47			0	37052	0	0	0	30802	29420	164630	26797	1072413	45924	111474	0	0	8040	573207	0	0
2024-08-02 19:37:47			0	37055	0	0	0	30794	29420	164586	26960	1072305	45914	111471	0	0	8040	573088	0	0
2024-08-02 19:38:47			0	37054	0	0	0	30781	29410	164558	26797	1072350	45913	111466	0	0	8040	573161	0	0
2024-08-02 19:39:47			0	37059	0	0	0	30789	29410	164590	26909	1072368	45913	111469	0	0	8041	572963	0	0
2024-08-02 19:40:47			0	37076	0	0	0	30784	29410	164506	26722	1072377	45913	111467	0	0	8042	572289	0	0
2024-08-02 19:41:47			0	37084	0	0	0	30797	29410	164274	26675	1072314	45923	111472	0	0	8042	571972	0	0
2024-08-02 19:42:47			0	37098	0	0	0	30794	29400	164310	26942	1072269	45912	111471	0	0	8043	571451	0	0
2024-08-02 19:43:47			0	37112	0	0	0	30779	29390	164238	26882	1072197	45921	111465	0	0	8044	570930	0	0
2024-08-02 19:44:47			0	37126	0	0	0	30781	29390	164226	26726	1072179	45921	111466	0	0	8045	570377	0	0
2024-08-02 19:45:47			0	37139	0	0	0	30771	29390	164098	27020	1072251	45932	111462	0	0	8046	569863	0	0
2024-08-02 19:46:47			0	37136	0	0	0	30781	29390	164130	26968	1072260	45921	111466	0	0	8045	569981	0	0
2024-08-02 19:47:47			0	37136	0	0	0	30781	29380	164142	26826	1072215	45920	111466	0	0	8045	570015	0	0
2024-08-02 19:48:47			0	37139	0	0	0	30802	29390	164066	26752	1072224	45932	111474	0	0	8045	569863	0	0
2024-08-02 19:49:47			0	37154	0	0	0	30805	29390	164118	26776	1072305	45921	111475	0	0	8046	569271	0	0
2024-08-02 19:50:47			0	37137	0	0	0	30745	29390	164174	26726	1072251	45921	111452	0	0	8046	569942	0	0
2024-08-02 19:51:47			0	37153	0	0	0	30706	29380	164062	26811	1072053	45910	111437	0	0	8047	569343	0	0
2024-08-02 19:52:47			0	37184	0	0	0	30672	29370	163970	26842	1072008	45886	111424	0	0	8050	568153	0	0
2024-08-02 19:53:47			0	37196	0	0	0	30672	29350	164010	27048	1071837	45895	111424	0	0	8050	567746	0	0
2024-08-02 19:54:47			0	37204	0	0	0	30706	29340	163998	26622	1071900	45872	111437	0	0	8050	567464	0	0
2024-08-02 19:55:47			0	37196	0	0	0	30729	29330	164038	26587	1071963	45893	111446	0	0	8049	567812	0	0
2024-08-02 19:56:47			0	37204	0	0	0	30732	29340	163966	27098	1071981	45916	111447	0	0	8050	567464	0	0
2024-08-02 19:57:47			0	37213	0	0	0	30727	29330	164058	26883	1071936	45927	111445	0	0	8050	567142	0	0
2024-08-02 19:58:47			0	37210	0	0	0	30698	29330	163954	26849	1071927	45915	111434	0	0	8051	567260	0	0
2024-08-02 19:59:47			0	37224	0	0	0	30690	29330	164018	26649	1071792	45926	111431	0	0	8052	566709	0	0
2024-08-02 20:00:47			0	37232	0	0	0	30693	29320	163990	26760	1071828	45914	111432	0	0	8052	566427	0	0
2024-08-02 20:01:47			0	37247	0	0	0	30685	29320	163862	26582	1071909	45914	111429	0	0	8053	565837	0	0
2024-08-02 20:02:47			0	37233	0	0	0	30664	29310	163926	26857	1071738	45903	111421	0	0	8052	566420	0	0
2024-08-02 20:03:47			0	37251	0	0	0	30667	29300	163778	26665	1071693	45913	111422	0	0	8053	565745	0	0
2024-08-02 20:04:47			0	37259	0	0	0	30659	29310	163894	26587	1071783	45902	111419	0	0	8054	565398	0	0
2024-08-02 20:05:47			0	37263	0	0	0	30649	29300	163738	26719	1071693	45902	111415	0	0	8054	565274	0	0
2024-08-02 20:06:47			0	37270	0	0	0	30628	29290	163830	26547	1071621	45901	111407	0	0	8055	565031	0	0
2024-08-02 20:07:47			0	37270	0	0	0	30623	29270	163806	26734	1071531	45899	111405	0	0	8055	565097	0	0
2024-08-02 20:08:47			0	37265	0	0	0	30618	29260	163674	26819	1071486	45897	111403	0	0	8055	565326	0	0
2024-08-02 20:09:47			0	37291	0	0	0	30610	29250	163722	26835	1071504	45919	111400	0	0	8056	564338	0	0
2024-08-02 20:10:47			0	37299	0	0	0	30605	29260	163730	26835	1071459	45919	111398	0	0	8057	563991	0	0
2024-08-02 20:11:47			0	37305	0	0	0	30607	29250	163690	26767	1071441	45896	111399	0	0	8057	563788	0	0
2024-08-02 20:12:47			0	37282	0	0	0	30615	29230	163794	27045	1071414	45895	111402	0	0	8056	564757	0	0
2024-08-02 20:13:47			0	37285	0	0	0	30615	29240	163802	26781	1071486	45907	111402	0	0	8056	564606	0	0
2024-08-02 20:14:47			0	37277	0	0	0	30625	29230	163774	26663	1071441	45917	111406	0	0	8055	564953	0	0
2024-08-02 20:15:47			0	37293	0	0	0	30631	29230	163778	26887	1071441	45906	111408	0	0	8056	564325	0	0
2024-08-02 20:16:47			0	37284	0	0	0	30631	29230	163734	26786	1071441	45906	111408	0	0	8056	564678	0	0
2024-08-02 20:17:47			0	37293	0	0	0	30625	29240	163754	26925	1071459	45929	111406	0	0	8056	564292	0	0
2024-08-02 20:18:47			0	37283	0	0	0	30584	29230	163726	26831	1071414	45895	111390	0	0	8056	564717	0	0
2024-08-02 20:19:47			0	37284	0	0	0	30620	29230	163766	26767	1071351	45905	111404	0	0	8056	564678	0	0
2024-08-02 20:20:47			0	37237	0	0	0	30641	29230	163970	26949	1071405	45905	111412	0	0	8053	566526	0	0
2024-08-02 20:21:47			0	37212	0	0	0	30646	29230	164126	26700	1071432	45905	111414	0	0	8051	567511	0	0
2024-08-02 20:22:47			0	37185	0	0	0	30641	29230	164106	26748	1071495	45917	111412	0	0	8050	568576	0	0
2024-08-02 20:23:47			0	37214	0	0	0	30646	29230	164086	26831	1071432	45916	111414	0	0	8051	567432	0	0
2024-08-02 20:24:47			0	37188	0	0	0	30628	29230	164194	26656	1071441	45906	111407	0	0	8050	568458	0	0
2024-08-02 20:25:47			0	37163	0	0	0	30620	29230	164278	26968	1071405	45916	111404	0	0	8049	569445	0	0
2024-08-02 20:26:47			0	37142	0	0	0	30618	29230	164274	27067	1071387	45906	111403	0	0	8047	570274	0	0
2024-08-02 20:27:47			0	37123	0	0	0	30607	29240	164362	26726	1071396	45917	111399	0	0	8047	570993	0	0
2024-08-02 20:28:47			0	37117	0	0	0	30594	29230	164502	26649	1071459	45905	111394	0	0	8046	571263	0	0
2024-08-02 20:29:47			0	37132	0	0	0	30628	29230	164538	26904	1071414	45906	111407	0	0	8047	570670	0	0
2024-08-02 20:30:47			0	37102	0	0	0	30636	29230	164502	26800	1071468	45917	111410	0	0	8045	571857	0	0
2024-08-02 20:31:47			0	37109	0	0	0	30636	29230	164570	26902	1071495	45906	111410	0	0	8045	571580	0	0
2024-08-02 20:32:47			0	37106	0	0	0	30615	29230	164514	26729	1071441	45917	111402	0	0	8045	571699	0	0
2024-08-02 20:33:47			0	37117	0	0	0	30589	29220	164586	26427	1071342	45894	111392	0	0	8046	571297	0	0
2024-08-02 20:34:47			0	37116	0	0	0	30555	29210	164558	26932	1071270	45893	111379	0	0	8047	571369	0	0
2024-08-02 20:35:47			0	37122	0	0	0	30527	29210	164434	26996	1071189	45893	111368	0	0	8048	571132	0	0
2024-08-02 20:36:47			0	37134	0	0	0	30483	29200	164430	26738	1071171	45869	111351	0	0	8049	570690	0	0
2024-08-02 20:37:47			0	37153	0	0	0	30490	29190	164298	26821	1071072	45880	111354	0	0	8050	569972	0	0
2024-08-02 20:38:47			0	37164	0	0	0	30483	29180	164270	27041	1071000	45900	111351	0	0	8051	569570	0	0
2024-08-02 20:39:47			0	37170	0	0	0	30425	29160	164230	26986	1070856	45876	111329	0	0	8052	569400	0	0
2024-08-02 20:40:47			0	37180	0	0	0	30415	29150	164238	26974	1070730	45864	111325	0	0	8053	569038	0	0
2024-08-02 20:41:47			0	37186	0	0	0	30329	29130	164186	27039	1070559	45874	111292	0	0	8054	568867	0	0
2024-08-02 20:42:47			0	37186	0	0	0	30324	29110	164182	26915	1070433	45860	111290	0	0	8054	568933	0	0
2024-08-02 20:43:47			0	37167	0	0	0	30288	29090	164298	27171	1070289	45835	111276	0	0	8054	569749	0	0
2024-08-02 20:44:47			0	37166	0	0	0	30254	29060	164342	26741	1070137	45833	111263	0	0	8054	569888	0	0
2024-08-02 20:45:47			0	37156	0	0	0	30228	29030	164398	26915	1070002	45829	111253	0	0	8054	570383	0	0
2024-08-02 20:46:47			0	37129	0	0	0	30228	29010	164642	26894	1069911	45849	111253	0	0	8052	571518	0	0
2024-08-02 20:47:47			0	37133	0	0	0	30199	28990	164638	27348	1069822	45859	111242	0	0	8053	571426	0	0
2024-08-02 20:48:47			0	37080	0	0	0	30161	28980	164698	27142	1069804	45858	111227	0	0	8050	573561	0	0
2024-08-02 20:49:47			0	37054	0	0	0	30137	28960	164810	27345	1069660	45844	111218	0	0	8049	574661	0	0
2024-08-02 20:50:47			0	37028	0	0	0	30153	28940	164950	26977	1069579	45832	111224	0	0	8047	575762	0	0
2024-08-02 20:51:47			0	37042	0	0	0	30135	28910	164958	26831	1069498	45840	111217	0	0	8048	575305	0	0
2024-08-02 20:52:47			0	37032	0	0	0	30140	28900	165078	27149	1069390	45838	111219	0	0	8048	575736	0	0
2024-08-02 20:53:47			0	37020	0	0	0	30067	28880	165158	26611	1069192	45825	111191	0	0	8048	576281	0	0
2024-08-02 20:54:47			0	37009	0	0	0	30036	28850	165162	26871	1069030	45822	111179	0	0	8048	576820	0	0
2024-08-02 20:55:47			0	36992	0	0	0	30012	28840	165314	27086	1069012	45798	111170	0	0	8047	577531	0	0
2024-08-02 20:56:47			0	36991	0	0	0	29971	28800	165338	26651	1068706	45806	111154	0	0	8048	577705	0	0
2024-08-02 20:57:47			0	36981	0	0	0	30018	28780	165334	26902	1068796	45827	111172	0	0	8046	578172	0	0
2024-08-02 20:58:47			0	36975	0	0	0	29981	28760	165478	26904	1068634	45835	111158	0	0	8046	578478	0	0
2024-08-02 20:59:47			0	36954	0	0	0	29986	28750	165546	26991	1068553	45823	111160	0	0	8045	579351	0	0
2024-08-02 21:00:47			0	36940	0	0	0	30028	28750	165618	26842	1068661	45845	111176	0	0	8043	579911	0	0
2024-08-02 21:01:47			0	36913	0	0	0	30010	28740	165658	26557	1068589	45844	111169	0	0	8042	581026	0	0
2024-08-02 21:02:47			0	36925	0	0	0	29986	28730	165734	26646	1068517	45821	111160	0	0	8043	580579	0	0
2024-08-02 21:03:47			0	36901	0	0	0	29999	28720	165818	26719	1068535	45832	111165	0	0	8041	581575	0	0
2024-08-02 21:04:47			0	36887	0	0	0	30036	28720	165898	27071	1068580	45842	111179	0	0	8040	582136	0	0
2024-08-02 21:05:47			0	36899	0	0	0	30028	28710	165938	26786	1068562	45841	111176	0	0	8041	581689	0	0
2024-08-02 21:06:47			0	36892	0	0	0	30085	28710	165898	27026	1068670	45875	111198	0	0	8039	581969	0	0
2024-08-02 21:07:47			0	36901	0	0	0	30062	28720	165894	27131	1068670	45876	111189	0	0	8040	581575	0	0
2024-08-02 21:08:47			0	36881	0	0	0	30023	28730	165962	26885	1068625	45876	111174	0	0	8040	582343	0	0
2024-08-02 21:09:47			0	36863	0	0	0	30038	28720	166086	26795	1068670	45854	111180	0	0	8039	583100	0	0
2024-08-02 21:10:47			0	36876	0	0	0	30064	28710	165962	27020	1068652	45853	111190	0	0	8039	582611	0	0
2024-08-02 21:11:47			0	36890	0	0	0	30070	28720	165938	26902	1068697	45876	111192	0	0	8040	582016	0	0
2024-08-02 21:12:47			0	36881	0	0	0	30070	28720	165974	26996	1068778	45854	111192	0	0	8039	582377	0	0
2024-08-02 21:13:47			0	36885	0	0	0	30059	28730	165950	26942	1068706	45876	111188	0	0	8040	582183	0	0
2024-08-02 21:14:47			0	36874	0	0	0	30031	28720	165962	27164	1068616	45854	111177	0	0	8039	582658	0	0
2024-08-02 21:15:47			0	36858	0	0	0	29997	28720	166046	26840	1068562	45832	111164	0	0	8039	583301	0	0
2024-08-02 21:16:47			0	36849	0	0	0	30018	28710	166066	26930	1068616	45852	111172	0	0	8038	583696	0	0
2024-08-02 21:17:47			0	36873	0	0	0	30018	28710	165970	27164	1068571	45853	111172	0	0	8039	582732	0	0
2024-08-02 21:18:47			0	36884	0	0	0	30080	28710	165970	26783	1068733	45865	111196	0	0	8039	582290	0	0
2024-08-02 21:19:47			0	36880	0	0	0	30085	28720	165994	26968	1068661	45865	111198	0	0	8039	582417	0	0
2024-08-02 21:20:47			0	36893	0	0	0	30049	28710	165890	26968	1068571	45842	111184	0	0	8040	581929	0	0
2024-08-02 21:21:47			0	36900	0	0	0	30044	28710	165902	26923	1068625	45853	111182	0	0	8041	581648	0	0
2024-08-02 21:22:47			0	36878	0	0	0	30046	28720	165834	26974	1068724	45854	111183	0	0	8039	582498	0	0
2024-08-02 21:23:47			0	36899	0	0	0	30153	28730	165830	27050	1068868	45887	111224	0	0	8039	581621	0	0
2024-08-02 21:24:47			0	36909	0	0	0	30158	28740	165842	26984	1068949	45878	111226	0	0	8039	581187	0	0
2024-08-02 21:25:47			0	36914	0	0	0	30135	28750	165782	27046	1068985	45868	111217	0	0	8040	580952	0	0
2024-08-02 21:26:47			0	36907	0	0	0	30041	28750	165790	26857	1068931	45856	111181	0	0	8041	581233	0	0
2024-08-02 21:27:47			0	36900	0	0	0	30005	28750	165846	27098	1068931	45856	111167	0	0	8041	581514	0	0
2024-08-02 21:28:47			0	36890	0	0	0	29958	28760	165750	27066	1068868	45858	111149	0	0	8042	581881	0	0
2024-08-02 21:29:47			0	36903	0	0	0	29966	28760	165826	26833	1068949	45869	111152	0	0	8042	581360	0	0
2024-08-02 21:30:47			0	36881	0	0	0	29997	28760	165774	26899	1068904	45847	111164	0	0	8040	582242	0	0
2024-08-02 21:31:47			0	36889	0	0	0	30080	28770	165906	26814	1069048	45869	111196	0	0	8040	581887	0	0
2024-08-02 21:32:47			0	36901	0	0	0	30075	28780	165738	26743	1069183	45860	111194	0	0	8040	581372	0	0
2024-08-02 21:33:47			0	36888	0	0	0	30122	28790	165722	27171	1069201	45872	111212	0	0	8039	581860	0	0
2024-08-02 21:34:47			0	36908	0	0	0	30124	28800	165854	26987	1069273	45873	111213	0	0	8040	581025	0	0
2024-08-02 21:35:47			0	36917	0	0	0	30122	28810	165698	27071	1069282	45885	111212	0	0	8041	580630	0	0
2024-08-02 21:36:47			0	36929	0	0	0	30070	28810	165638	26993	1069309	45863	111192	0	0	8042	580150	0	0
2024-08-02 21:37:47			0	36918	0	0	0	30057	28810	165562	27109	1069201	45840	111187	0	0	8042	580590	0	0
2024-08-02 21:38:47			0	36923	0	0	0	30083	28810	165590	26868	1069210	45852	111197	0	0	8042	580390	0	0
2024-08-02 21:39:47			0	36913	0	0	0	30153	28820	165650	27201	1069354	45853	111224	0	0	8040	580757	0	0
2024-08-02 21:40:47			0	36914	0	0	0	30161	28840	165514	26927	1069416	45866	111227	0	0	8040	580650	0	0
2024-08-02 21:41:47			0	36925	0	0	0	30072	28840	165486	26935	1069318	45856	111193	0	0	8042	580209	0	0
2024-08-02 21:42:47			0	36922	0	0	0	30010	28830	165578	26911	1069183	45832	111169	0	0	8043	580363	0	0
2024-08-02 21:43:47			0	36897	0	0	0	30028	28820	165654	27097	1069174	45832	111176	0	0	8041	581398	0	0
2024-08-02 21:44:47			0	36890	0	0	0	30179	28820	165614	27176	1069327	45841	111234	0	0	8038	581679	0	0
2024-08-02 21:45:47			0	36914	0	0	0	30272	28830	165718	27189	1069542	45875	111270	0	0	8038	580683	0	0
2024-08-02 21:46:47			0	36920	0	0	0	30306	28840	165730	26986	1069578	45876	111283	0	0	8038	580409	0	0
2024-08-02 21:47:47			0	36940	0	0	0	30329	28850	165486	26892	1069659	45867	111292	0	0	8039	579575	0	0
2024-08-02 21:48:47			0	36998	0	0	0	30355	28860	165282	26816	1069749	45868	111302	0	0	8042	577225	0	0
2024-08-02 21:49:47			0	37102	0	0	0	30358	28880	164838	26712	1069740	45881	111303	0	0	8048	573020	0	0
2024-08-02 21:50:47			0	37181	0	0	0	30358	28880	164422	27072	1069758	45870	111303	0	0	8052	569890	0	0
2024-08-02 21:51:47			0	37270	0	0	0	30358	28890	164098	27182	1069722	45894	111303	0	0	8058	566345	0	0
2024-08-02 21:52:47			0	37329	0	0	0	30355	28900	163811	27138	1069795	45872	111302	0	0	8061	563991	0	0
2024-08-02 21:53:47			0	37376	0	0	0	30353	28900	163607	27000	1069768	45872	111301	0	0	8064	562147	0	0
2024-08-02 21:54:47			0	37441	0	0	0	30345	28900	163399	26894	1069858	45873	111298	0	0	8068	559604	0	0
2024-08-02 21:55:47			0	37464	0	0	0	30348	28900	163235	27196	1069795	45872	111299	0	0	8069	558705	0	0
2024-08-02 21:56:47			0	37476	0	0	0	30342	28900	163155	26861	1069768	45860	111297	0	0	8070	558237	0	0
2024-08-02 21:57:47			0	37492	0	0	0	30342	28910	163191	26928	1069822	45862	111297	0	0	8071	557581	0	0
2024-08-02 21:58:47			0	37497	0	0	0	30332	28910	163095	26968	1069813	45851	111293	0	0	8071	557386	0	0
2024-08-02 21:59:47			0	37520	0	0	0	30332	28900	163015	26899	1069750	45861	111293	0	0	8073	556522	0	0
2024-08-02 22:00:47			0	37499	0	0	0	30319	28910	163031	26816	1069795	45851	111288	0	0	8072	557308	0	0
2024-08-02 22:01:47			0	37498	0	0	0	30309	28910	162995	26776	1069813	45862	111284	0	0	8072	557347	0	0
2024-08-02 22:02:47			0	37500	0	0	0	30306	28900	163063	27036	1069750	45873	111283	0	0	8072	557301	0	0
2024-08-02 22:03:47			0	37490	0	0	0	30275	28900	163107	26928	1069687	45849	111271	0	0	8072	557691	0	0
2024-08-02 22:04:47			0	37471	0	0	0	30238	28900	163111	26906	1069606	45860	111257	0	0	8071	558432	0	0
2024-08-02 22:05:47			0	37441	0	0	0	30155	28890	163271	27119	1069507	45849	111225	0	0	8071	559636	0	0
2024-08-02 22:06:47			0	37409	0	0	0	30124	28880	163547	26651	1069471	45837	111213	0	0	8070	560920	0	0
2024-08-02 22:07:47			0	37356	0	0	0	30080	28870	163479	26972	1069345	45836	111196	0	0	8067	563030	0	0
2024-08-02 22:08:47			0	37316	0	0	0	30059	28860	163819	26941	1069300	45846	111188	0	0	8065	564633	0	0
2024-08-02 22:09:47			0	37246	0	0	0	30098	28860	164122	27071	1069300	45835	111203	0	0	8061	567389	0	0
2024-08-02 22:10:47			0	37227	0	0	0	30137	28850	164258	26755	1069327	45844	111218	0	0	8059	568172	0	0
2024-08-02 22:11:47			0	37210	0	0	0	30106	28840	164266	26916	1069174	45833	111206	0	0	8058	568876	0	0
2024-08-02 22:12:47			0	37155	0	0	0	30070	28830	164474	26866	1069111	45832	111192	0	0	8056	571085	0	0
2024-08-02 22:13:47			0	37116	0	0	0	30064	28820	164670	26876	1069084	45831	111190	0	0	8053	572664	0	0
2024-08-02 22:14:47			0	37102	0	0	0	30062	28800	164626	26928	1068976	45829	111189	0	0	8053	573286	0	0
2024-08-02 22:15:47			0	37084	0	0	0	30101	28810	164790	26961	1069066	45840	111204	0	0	8051	573968	0	0
2024-08-02 22:16:47			0	37103	0	0	0	30127	28800	165006	26767	1069084	45839	111214	0	0	8051	573246	0	0
2024-08-02 22:17:47			0	37074	0	0	0	30163	28800	165126	26654	1069138	45851	111228	0	0	8049	574399	0	0
2024-08-02 22:18:47			0	37057	0	0	0	30148	28790	165030	26863	1069174	45850	111222	0	0	8048	575108	0	0
2024-08-02 22:19:47			0	37033	0	0	0	30096	28790	165126	26764	1068922	45828	111202	0	0	8048	576064	0	0
2024-08-02 22:20:47			0	37023	0	0	0	30057	28770	165142	27000	1068787	45826	111187	0	0	8048	576529	0	0
2024-08-02 22:21:47			0	37003	0	0	0	30018	28760	165242	26811	1068661	45813	111172	0	0	8047	577360	0	0
2024-08-02 22:22:47			0	36951	0	0	0	29971	28740	165366	26942	1068517	45823	111154	0	0	8045	579505	0	0
2024-08-02 22:23:47			0	36927	0	0	0	29940	28730	165618	26625	1068490	45832	111142	0	0	8044	580499	0	0
2024-08-02 22:24:47			0	36901	0	0	0	29906	28720	165746	26840	1068481	45809	111129	0	0	8043	581575	0	0
2024-08-02 22:25:47			0	36880	0	0	0	29888	28700	165902	27147	1068383	45807	111122	0	0	8042	582485	0	0
2024-08-02 22:26:47			0	36851	0	0	0	29844	28680	165910	26923	1068248	45794	111105	0	0	8041	583717	0	0
2024-08-02 22:27:47			0	36814	0	0	0	29810	28660	166158	27152	1068140	45792	111092	0	0	8039	585274	0	0
2024-08-02 22:28:47			0	36774	0	0	0	29805	28650	166202	27154	1068041	45791	111090	0	0	8037	586921	0	0
2024-08-02 22:29:47			0	36738	0	0	0	29805	28630	166386	27107	1068023	45800	111090	0	0	8035	588443	0	0
2024-08-02 22:30:47			0	36735	0	0	0	29784	28610	166558	27012	1067879	45798	111082	0	0	8035	588632	0	0
2024-08-02 22:31:47			0	36702	0	0	0	29779	28600	166626	26996	1067888	45808	111080	0	0	8033	590002	0	0
2024-08-02 22:32:47			0	36698	0	0	0	29789	28580	166714	27039	1067861	45806	111084	0	0	8032	590232	0	0
2024-08-02 22:33:47			0	36677	0	0	0	29786	28570	166866	26778	1067700	45794	111083	0	0	8031	591118	0	0
2024-08-02 22:34:47			0	36649	0	0	0	29768	28560	166982	27062	1067655	45781	111076	0	0	8030	592288	0	0
2024-08-02 22:35:47			0	36649	0	0	0	29768	28540	167074	26691	1067520	45791	111076	0	0	8030	592357	0	0
2024-08-02 22:36:47			0	36633	0	0	0	29763	28530	166998	27171	1067583	45791	111074	0	0	8029	593041	0	0
2024-08-02 22:37:47			0	36627	0	0	0	29766	28520	167042	26724	1067511	45790	111075	0	0	8028	593319	0	0
2024-08-02 22:38:47			0	36637	0	0	0	29779	28520	167046	27017	1067583	45811	111080	0	0	8029	592913	0	0
2024-08-02 22:39:47			0	36628	0	0	0	29906	28520	167086	26864	1067798	45833	111129	0	0	8026	593279	0	0
2024-08-02 22:40:47			0	36599	0	0	0	29981	28540	167233	26805	1067942	45869	111158	0	0	8023	594390	0	0
2024-08-02 22:41:47			0	36619	0	0	0	29976	28560	167238	26748	1068005	45848	111156	0	0	8024	593507	0	0
2024-08-02 22:42:47			0	36624	0	0	0	29919	28560	167158	26984	1067951	45836	111134	0	0	8026	593304	0	0
2024-08-02 22:43:47			0	36613	0	0	0	29849	28560	167226	26817	1067843	45826	111107	0	0	8026	593751	0	0
2024-08-02 22:44:47			0	36566	0	0	0	29812	28560	167293	26906	1067843	45815	111093	0	0	8024	595666	0	0
2024-08-02 22:45:47			0	36541	0	0	0	29820	28560	167441	26896	1067906	45816	111096	0	0	8022	596686	0	0
2024-08-02 22:46:47			0	36533	0	0	0	29846	28560	167565	26824	1068032	45836	111106	0	0	8022	597012	0	0
2024-08-02 22:47:47			0	36493	0	0	0	29864	28580	167625	26833	1068077	45839	111113	0	0	8019	598578	0	0
2024-08-02 22:48:47			0	36452	0	0	0	29841	28590	167697	26986	1068113	45840	111104	0	0	8017	600222	0	0
2024-08-02 22:49:47			0	36454	0	0	0	29818	28590	167789	27093	1068005	45819	111095	0	0	8017	600140	0	0
2024-08-02 22:50:47			0	36438	0	0	0	29823	28580	167957	26805	1067933	45806	111097	0	0	8016	600831	0	0
2024-08-02 22:51:47			0	36442	0	0	0	29870	28570	167981	26842	1067915	45783	111115	0	0	8016	600701	0	0
2024-08-02 22:52:47			0	36438	0	0	0	29883	28570	168073	27145	1067924	45817	111120	0	0	8015	600865	0	0
2024-08-02 22:53:47			0	36417	0	0	0	29903	28570	167973	26958	1067951	45817	111128	0	0	8014	601727	0	0
2024-08-02 22:54:47			0	36440	0	0	0	29867	28560	167821	26965	1067816	45803	111114	0	0	8016	600818	0	0
2024-08-02 22:55:47			0	36445	0	0	0	29799	28550	167893	26656	1067583	45781	111088	0	0	8017	600648	0	0
2024-08-02 22:56:47			0	36456	0	0	0	29766	28530	167957	26876	1067493	45757	111075	0	0	8018	600266	0	0
2024-08-02 22:57:47			0	36460	0	0	0	29784	28510	167997	26915	1067520	45799	111082	0	0	8018	600172	0	0
2024-08-02 22:58:47			0	36447	0	0	0	29854	28510	168157	26641	1067843	45833	111109	0	0	8016	600705	0	0
2024-08-02 22:59:47			0	36439	0	0	0	29875	28540	168085	26379	1067897	45858	111117	0	0	8015	600929	0	0
2024-08-02 23:00:47			0	36438	0	0	0	29890	28550	168177	26830	1067996	45859	111123	0	0	8015	600935	0	0
2024-08-02 23:01:47			0	36438	0	0	0	29872	28560	168069	26733	1067879	45827	111116	0	0	8015	600900	0	0
2024-08-02 23:02:47			0	36437	0	0	0	29859	28540	168085	26837	1067754	45791	111111	0	0	8015	601011	0	0
2024-08-02 23:03:47			0	36443	0	0	0	29872	28550	167969	26817	1067906	45803	111116	0	0	8016	600730	0	0
2024-08-02 23:04:47			0	36422	0	0	0	29919	28550	168105	26552	1067906	45836	111134	0	0	8014	601592	0	0
2024-08-02 23:05:47			0	36453	0	0	0	29919	28550	167977	26748	1067969	45815	111134	0	0	8015	600320	0	0
2024-08-02 23:06:47			0	36452	0	0	0	29909	28560	168113	26726	1067951	45803	111130	0	0	8016	600326	0	0
2024-08-02 23:07:47			0	36433	0	0	0	29903	28560	168037	27208	1067951	45826	111128	0	0	8015	601105	0	0
2024-08-02 23:08:47			0	36446	0	0	0	29872	28560	167985	26927	1067870	45815	111116	0	0	8016	600572	0	0
2024-08-02 23:09:47			0	36427	0	0	0	29862	28550	167969	27001	1067852	45836	111112	0	0	8015	601387	0	0
2024-08-02 23:10:47			0	36444	0	0	0	29844	28560	167977	26618	1067906	45804	111105	0	0	8016	600654	0	0
2024-08-02 23:11:47			0	36444	0	0	0	29812	28530	167993	26935	1067637	45791	111093	0	0	8017	600758	0	0
2024-08-02 23:12:47			0	36441	0	0	0	29797	28530	168009	27057	1067610	45779	111087	0	0	8017	600881	0	0
2024-08-02 23:13:47			0	36442	0	0	0	29779	28520	167957	27072	1067448	45766	111080	0	0	8017	600875	0	0
2024-08-02 23:14:47			0	36435	0	0	0	29750	28490	167961	26909	1067322	45763	111069	0	0	8017	601267	0	0
2024-08-02 23:15:47			0	36439	0	0	0	29735	28470	168065	26486	1067178	45773	111063	0	0	8017	601172	0	0
2024-08-02 23:16:47			0	36405	0	0	0	29724	28460	168045	26583	1067205	45772	111059	0	0	8015	602603	0	0
2024-08-02 23:17:47			0	36404	0	0	0	29719	28450	168241	26531	1067107	45771	111057	0	0	8015	602679	0	0
2024-08-02 23:18:47			0	36395	0	0	0	29696	28430	168321	26616	1066990	45779	111048	0	0	8015	603119	0	0
2024-08-02 23:19:47			0	36405	0	0	0	29683	28410	168289	26710	1066873	45766	111043	0	0	8016	602778	0	0
2024-08-02 23:20:47			0	36399	0	0	0	29680	28400	168317	26859	1066855	45777	111042	0	0	8016	603059	0	0
2024-08-02 23:21:47			0	36420	0	0	0	29685	28380	168137	26922	1066837	45787	111044	0	0	8017	602266	0	0
2024-08-02 23:22:47			0	36437	0	0	0	29680	28370	168241	26892	1066819	45775	111042	0	0	8018	601602	0	0
2024-08-02 23:23:47			0	36411	0	0	0	29670	28360	168177	27019	1066747	45785	111038	0	0	8016	602705	0	0
2024-08-02 23:24:47			0	36428	0	0	0	29685	28350	168261	26719	1066702	45794	111044	0	0	8017	602041	0	0
2024-08-02 23:25:47			0	36436	0	0	0	29685	28350	168181	26849	1066666	45794	111044	0	0	8017	601713	0	0
2024-08-02 23:26:47			0	36441	0	0	0	29683	28350	168169	27019	1066693	45784	111043	0	0	8018	601507	0	0
2024-08-02 23:27:47			0	36452	0	0	0	29670	28340	168185	27022	1066622	45803	111038	0	0	8019	601091	0	0
2024-08-02 23:28:47			0	36459	0	0	0	29662	28330	168221	26942	1066577	45792	111035	0	0	8019	600838	0	0
2024-08-02 23:29:47			0	36455	0	0	0	29662	28320	168193	26972	1066595	45791	111035	0	0	8019	601037	0	0
2024-08-02 23:30:47			0	36483	0	0	0	29646	28320	168073	27149	1066586	45801	111029	0	0	8021	599888	0	0
2024-08-02 23:31:47			0	36491	0	0	0	29649	28320	167909	26765	1066532	45791	111030	0	0	8021	599560	0	0
2024-08-02 23:32:47			0	36505	0	0	0	29654	28310	168005	26795	1066541	45801	111032	0	0	8022	599022	0	0
2024-08-02 23:33:47			0	36514	0	0	0	29649	28300	167989	26727	1066550	45789	111030	0	0	8022	598688	0	0
2024-08-02 23:34:47			0	36528	0	0	0	29654	28310	167861	26908	1066514	45824	111032	0	0	8023	598080	0	0
2024-08-02 23:35:47			0	36522	0	0	0	29651	28300	167877	26465	1066478	45800	111031	0	0	8023	598360	0	0
2024-08-02 23:36:47			0	36538	0	0	0	29659	28300	167801	26830	1066559	45800	111034	0	0	8024	597706	0	0
2024-08-02 23:37:47			0	36553	0	0	0	29651	28280	167781	26764	1066496	45798	111031	0	0	8025	597162	0	0
2024-08-02 23:38:47			0	36530	0	0	0	29662	28290	167865	26993	1066568	45822	111035	0	0	8023	598068	0	0
2024-08-02 23:39:47			0	36548	0	0	0	29698	28300	167917	26736	1066694	45823	111049	0	0	8024	597297	0	0
2024-08-02 23:40:47			0	36520	0	0	0	29753	28320	167829	27065	1066864	45858	111070	0	0	8021	598373	0	0
2024-08-02 23:41:47			0	36561	0	0	0	29776	28350	167857	27308	1067071	45850	111079	0	0	8023	596594	0	0
2024-08-02 23:42:47			0	36534	0	0	0	29851	28360	167877	26996	1067205	45862	111108	0	0	8020	597662	0	0
2024-08-02 23:43:47			0	36555	0	0	0	29854	28380	167781	26972	1067286	45853	111109	0	0	8022	596735	0	0
2024-08-02 23:44:47			0	36554	0	0	0	29877	28400	167697	27339	1067403	45855	111118	0	0	8021	596707	0	0
2024-08-02 23:45:47			0	36553	0	0	0	29909	28420	167685	27062	1067457	45857	111130	0	0	8021	596679	0	0
2024-08-02 23:46:47			0	36572	0	0	0	29883	28430	167673	26913	1067511	45835	111120	0	0	8023	595869	0	0
2024-08-02 23:47:47			0	36573	0	0	0	29880	28440	167489	26849	1067448	45827	111119	0	0	8023	595794	0	0
2024-08-02 23:48:47			0	36565	0	0	0	29867	28450	167641	27085	1067457	45827	111114	0	0	8023	596086	0	0
2024-08-02 23:49:47			0	36542	0	0	0	29877	28440	167701	27031	1067448	45815	111118	0	0	8021	597059	0	0
2024-08-02 23:50:47			0	36537	0	0	0	29864	28460	167669	26857	1067529	45838	111113	0	0	8021	597194	0	0
2024-08-02 23:51:47			0	36542	0	0	0	29872	28460	167701	27109	1067511	45817	111116	0	0	8021	596990	0	0
2024-08-02 23:52:47			0	36559	0	0	0	29896	28470	167685	26715	1067628	45839	111125	0	0	8022	596262	0	0
2024-08-02 23:53:47			0	36599	0	0	0	29953	28480	167598	27078	1067726	45840	111147	0	0	8023	594596	0	0
2024-08-02 23:54:47			0	36632	0	0	0	29979	28490	167426	27182	1067807	45864	111157	0	0	8025	593219	0	0
2024-08-02 23:55:47			0	36691	0	0	0	29997	28510	167106	27026	1067924	45844	111164	0	0	8028	590755	0	0
2024-08-02 23:56:47			0	36747	0	0	0	30015	28520	166826	26840	1067996	45856	111171	0	0	8031	588453	0	0
2024-08-02 23:57:47			0	36777	0	0	0	30038	28540	166682	26993	1068086	45858	111180	0	0	8033	587173	0	0
2024-08-02 23:58:47			0	36810	0	0	0	30051	28550	166446	26892	1068122	45859	111185	0	0	8034	585808	0	0
2024-08-02 23:59:47			0	36816	0	0	0	30077	28560	166430	27090	1068203	45860	111195	0	0	8034	585532	0	0
2024-08-03 00:00:47			0	36798	0	0	0	30077	28570	166666	27010	1068239	45861	111195	0	0	8033	586224	0	0
2024-08-03 00:01:47			0	36788	0	0	0	30075	28580	166574	26778	1068203	45851	111194	0	0	8033	586593	0	0
2024-08-03 00:02:47			0	36809	0	0	0	30067	28580	166410	26710	1068185	45862	111191	0	0	8034	585747	0	0
2024-08-03 00:03:47			0	36819	0	0	0	30036	28580	166422	26861	1068212	45839	111179	0	0	8035	585343	0	0
2024-08-03 00:04:47			0	36773	0	0	0	30002	28580	166530	26831	1068131	45851	111166	0	0	8033	587199	0	0
2024-08-03 00:05:47			0	36707	0	0	0	29986	28580	166762	26882	1068077	45851	111160	0	0	8030	589868	0	0
2024-08-03 00:06:47			0	36719	0	0	0	29958	28580	166786	26920	1068050	45829	111149	0	0	8031	589382	0	0
2024-08-03 00:07:47			0	36752	0	0	0	29927	28580	166626	26674	1067960	45829	111137	0	0	8033	588047	0	0
2024-08-03 00:08:47			0	36753	0	0	0	29922	28570	166646	26741	1067978	45828	111135	0	0	8033	588041	0	0
2024-08-03 00:09:47			0	36751	0	0	0	29940	28570	166714	26651	1067978	45828	111142	0	0	8033	588121	0	0
2024-08-03 00:10:47			0	36852	0	0	0	29937	28570	166218	26804	1068023	45828	111141	0	0	8039	584049	0	0
2024-08-03 00:11:47			0	37024	0	0	0	29966	28560	165426	26948	1068014	45849	111152	0	0	8048	577191	0	0
2024-08-03 00:12:47			0	37177	0	0	0	29994	28570	164798	27090	1068086	45838	111163	0	0	8057	571073	0	0
2024-08-03 00:13:47			0	37229	0	0	0	30020	28580	164570	27015	1068095	45851	111173	0	0	8060	568982	0	0
2024-08-03 00:14:47			0	37210	0	0	0	30036	28580	164646	27012	1068185	45851	111179	0	0	8058	569733	0	0
2024-08-03 00:15:47			0	37086	0	0	0	30049	28590	165162	26989	1068167	45852	111184	0	0	8051	574620	0	0
2024-08-03 00:16:47			0	37038	0	0	0	30038	28600	165442	26845	1068320	45875	111180	0	0	8048	576499	0	0
2024-08-03 00:17:47			0	37047	0	0	0	30057	28600	165330	27029	1068347	45853	111187	0	0	8048	576140	0	0
2024-08-03 00:18:47			0	37079	0	0	0	30062	28600	165330	26729	1068302	45864	111189	0	0	8050	574865	0	0
2024-08-03 00:19:47			0	37038	0	0	0	30067	28610	165374	26977	1068311	45854	111191	0	0	8048	576465	0	0
2024-08-03 00:20:47			0	36989	0	0	0	30049	28630	165530	26944	1068320	45856	111184	0	0	8045	578354	0	0
2024-08-03 00:21:47			0	36982	0	0	0	30015	28620	165650	26897	1068248	45855	111171	0	0	8045	578667	0	0
2024-08-03 00:22:47			0	36936	0	0	0	30010	28610	165770	26778	1068257	45842	111169	0	0	8043	580542	0	0
2024-08-03 00:23:47			0	36882	0	0	0	30012	28600	166106	26672	1068194	45831	111170	0	0	8039	582742	0	0
2024-08-03 00:24:47			0	36829	0	0	0	30031	28610	166258	26842	1068284	45842	111177	0	0	8036	584839	0	0
2024-08-03 00:25:47			0	36853	0	0	0	30028	28610	166186	26849	1068266	45843	111176	0	0	8038	583873	0	0
2024-08-03 00:26:47			0	36871	0	0	0	30028	28610	166042	26713	1068266	45855	111176	0	0	8039	583150	0	0
2024-08-03 00:27:47			0	36902	0	0	0	30044	28620	166046	26599	1068338	45855	111182	0	0	8040	581871	0	0
2024-08-03 00:28:47			0	36920	0	0	0	30046	28620	165902	26609	1068355	45833	111183	0	0	8041	581150	0	0
2024-08-03 00:29:47			0	36907	0	0	0	30062	28630	165902	26648	1068409	45857	111189	0	0	8040	581637	0	0
2024-08-03 00:30:47			0	36895	0	0	0	30064	28640	165902	26779	1068418	45857	111190	0	0	8040	582085	0	0
2024-08-03 00:31:47			0	36875	0	0	0	30062	28640	165958	27109	1068454	45869	111189	0	0	8038	582888	0	0
2024-08-03 00:32:47			0	36838	0	0	0	30067	28640	166082	26979	1068481	45858	111191	0	0	8036	584375	0	0
2024-08-03 00:33:47			0	36768	0	0	0	30070	28650	166398	26880	1068500	45847	111192	0	0	8032	587163	0	0
2024-08-03 00:34:47			0	36700	0	0	0	30064	28650	166854	26778	1068473	45859	111190	0	0	8028	589912	0	0
2024-08-03 00:35:47			0	36622	0	0	0	30057	28650	167102	26781	1068553	45870	111187	0	0	8024	593076	0	0
2024-08-03 00:36:47			0	36581	0	0	0	30067	28660	167329	26524	1068455	45847	111191	0	0	8021	594710	0	0
2024-08-03 00:37:47			0	36513	0	0	0	30057	28650	167525	26918	1068437	45846	111187	0	0	8017	597518	0	0
2024-08-03 00:38:47			0	36483	0	0	0	30031	28650	167705	26715	1068491	45835	111177	0	0	8016	598744	0	0
2024-08-03 00:39:47			0	36445	0	0	0	29999	28640	167901	26791	1068391	45834	111165	0	0	8014	600335	0	0
2024-08-03 00:40:47			0	36397	0	0	0	29979	28640	168141	26694	1068346	45846	111157	0	0	8012	602305	0	0
2024-08-03 00:41:47			0	36356	0	0	0	29976	28640	168241	26892	1068364	45845	111156	0	0	8009	603991	0	0
2024-08-03 00:42:47			0	36348	0	0	0	30002	28640	168325	26738	1068346	45846	111166	0	0	8008	604320	0	0
2024-08-03 00:43:47			0	36353	0	0	0	29997	28630	168277	26835	1068382	45845	111164	0	0	8009	604149	0	0
2024-08-03 00:44:47			0	36375	0	0	0	29981	28660	168453	26713	1068401	45847	111158	0	0	8010	603139	0	0
2024-08-03 00:45:47			0	36352	0	0	0	29976	28640	168389	26913	1068427	45858	111156	0	0	8009	604155	0	0
2024-08-03 00:46:47			0	36358	0	0	0	29994	28640	168429	26670	1068418	45857	111163	0	0	8009	603908	0	0
2024-08-03 00:47:47			0	36334	0	0	0	29986	28640	168353	26873	1068364	45845	111160	0	0	8008	604897	0	0
2024-08-03 00:48:47			0	36313	0	0	0	29968	28640	168385	27027	1068346	45835	111153	0	0	8007	605762	0	0
2024-08-03 00:49:47			0	36313	0	0	0	29937	28640	168461	26994	1068284	45845	111141	0	0	8007	605762	0	0
2024-08-03 00:50:47			0	36306	0	0	0	29968	28630	168637	26899	1068275	45823	111153	0	0	8006	606086	0	0
2024-08-03 00:51:47			0	36294	0	0	0	30031	28610	168613	26831	1068364	45854	111177	0	0	8004	606652	0	0
2024-08-03 00:52:47			0	36313	0	0	0	30070	28640	168489	26783	1068454	45869	111192	0	0	8005	605762	0	0
2024-08-03 00:53:47			0	36339	0	0	0	30088	28640	168337	26901	1068508	45858	111199	0	0	8006	604691	0	0
2024-08-03 00:54:47			0	36356	0	0	0	30103	28650	168373	26410	1068526	45870	111205	0	0	8007	603956	0	0
2024-08-03 00:55:47			0	36351	0	0	0	30109	28660	168369	26974	1068616	45859	111207	0	0	8007	604126	0	0
2024-08-03 00:56:47			0	36344	0	0	0	30116	28660	168337	27284	1068562	45859	111210	0	0	8006	604415	0	0
2024-08-03 00:57:47			0	36371	0	0	0	30114	28670	168301	26897	1068607	45860	111209	0	0	8008	603269	0	0
2024-08-03 00:58:47			0	36365	0	0	0	30114	28690	168201	27187	1068661	45862	111209	0	0	8008	603445	0	0
2024-08-03 00:59:47			0	36389	0	0	0	30083	28680	168157	26975	1068598	45862	111197	0	0	8010	602494	0	0
2024-08-03 01:00:47			0	36395	0	0	0	30070	28680	168221	27119	1068562	45838	111192	0	0	8010	602247	0	0
2024-08-03 01:01:47			0	36387	0	0	0	30012	28660	168105	26993	1068437	45848	111170	0	0	8011	602646	0	0
2024-08-03 01:02:47			0	36405	0	0	0	29984	28650	168185	27043	1068311	45847	111159	0	0	8012	601941	0	0
2024-08-03 01:03:47			0	36369	0	0	0	29958	28640	168197	26833	1068266	45813	111149	0	0	8010	603456	0	0
2024-08-03 01:04:47			0	36372	0	0	0	29940	28620	168137	27187	1068113	45833	111142	0	0	8011	603402	0	0
2024-08-03 01:05:47			0	36372	0	0	0	29919	28610	168233	27003	1068041	45809	111134	0	0	8011	603437	0	0
2024-08-03 01:06:47			0	36367	0	0	0	29893	28600	168293	26987	1067978	45820	111124	0	0	8011	603678	0	0
2024-08-03 01:07:47			0	36387	0	0	0	29880	28570	168185	26757	1067897	45805	111119	0	0	8012	602960	0	0
2024-08-03 01:08:47			0	36436	0	0	0	29870	28550	167969	26833	1067781	45815	111115	0	0	8015	601017	0	0
2024-08-03 01:09:47			0	36471	0	0	0	29862	28540	167813	27215	1067682	45814	111112	0	0	8017	599617	0	0
2024-08-03 01:10:47			0	36488	0	0	0	29846	28530	167717	27111	1067637	45813	111106	0	0	8019	598956	0	0
2024-08-03 01:11:47			0	36477	0	0	0	29841	28520	167865	26979	1067583	45822	111104	0	0	8018	599441	0	0
2024-08-03 01:12:47			0	36443	0	0	0	29825	28510	167901	26819	1067538	45811	111098	0	0	8016	600869	0	0
2024-08-03 01:13:47			0	36428	0	0	0	29812	28500	167985	26682	1067529	45810	111093	0	0	8016	601519	0	0
2024-08-03 01:14:47			0	36416	0	0	0	29805	28490	168153	26772	1067538	45819	111090	0	0	8015	602047	0	0
2024-08-03 01:15:47			0	36414	0	0	0	29818	28470	168141	26955	1067448	45817	111095	0	0	8014	602199	0	0
2024-08-03 01:16:47			0	36416	0	0	0	29802	28480	168221	26726	1067385	45819	111089	0	0	8015	602082	0	0
2024-08-03 01:17:47			0	36416	0	0	0	29815	28470	168225	26857	1067394	45829	111094	0	0	8015	602117	0	0
2024-08-03 01:18:47			0	36427	0	0	0	29823	28470	168113	26741	1067493	45829	111097	0	0	8015	601665	0	0
2024-08-03 01:19:47			0	36429	0	0	0	29836	28460	168081	27019	1067430	45850	111102	0	0	8015	601617	0	0
2024-08-03 01:20:47			0	36426	0	0	0	29857	28470	168241	27012	1067448	45839	111110	0	0	8015	601706	0	0
2024-08-03 01:21:47			0	36422	0	0	0	29862	28470	168161	26996	1067502	45839	111112	0	0	8014	601870	0	0
2024-08-03 01:22:47			0	36416	0	0	0	29872	28480	168245	26677	1067565	45851	111116	0	0	8014	602082	0	0
2024-08-03 01:23:47			0	36430	0	0	0	29875	28470	168193	26928	1067556	45839	111117	0	0	8014	601542	0	0
2024-08-03 01:24:47			0	36413	0	0	0	29880	28480	168201	26700	1067646	45851	111119	0	0	8013	602205	0	0
2024-08-03 01:25:47			0	36382	0	0	0	29875	28480	168345	26958	1067619	45851	111117	0	0	8012	603480	0	0
2024-08-03 01:26:47			0	36380	0	0	0	29875	28480	168421	26955	1067574	45831	111117	0	0	8012	603562	0	0
2024-08-03 01:27:47			0	36384	0	0	0	29867	28470	168357	26821	1067502	45829	111114	0	0	8012	603432	0	0
2024-08-03 01:28:47			0	36379	0	0	0	29875	28470	168301	26597	1067547	45850	111117	0	0	8011	603638	0	0
2024-08-03 01:29:47			0	36394	0	0	0	29870	28480	168369	26913	1067565	45840	111115	0	0	8012	602986	0	0
2024-08-03 01:30:47			0	36376	0	0	0	29864	28480	168269	26968	1067511	45840	111113	0	0	8011	603727	0	0
2024-08-03 01:31:47			0	36356	0	0	0	29872	28470	168449	26866	1067574	45839	111116	0	0	8010	604585	0	0
2024-08-03 01:32:47			0	36377	0	0	0	29877	28480	168369	26774	1067619	45840	111118	0	0	8011	603685	0	0
2024-08-03 01:33:47			0	36372	0	0	0	29880	28480	168485	26658	1067601	45831	111119	0	0	8011	603891	0	0
2024-08-03 01:34:47			0	36359	0	0	0	29875	28480	168489	26816	1067619	45840	111117	0	0	8010	604426	0	0
2024-08-03 01:35:47			0	36369	0	0	0	29880	28480	168413	26502	1067565	45851	111119	0	0	8011	604015	0	0
2024-08-03 01:36:47			0	36345	0	0	0	29883	28480	168401	27043	1067592	45840	111120	0	0	8009	605003	0	0
2024-08-03 01:37:47			0	36354	0	0	0	29888	28470	168417	27003	1067637	45850	111122	0	0	8010	604667	0	0
2024-08-03 01:38:47			0	36337	0	0	0	29898	28480	168625	26817	1067646	45851	111126	0	0	8009	605333	0	0
2024-08-03 01:39:47			0	36338	0	0	0	29901	28480	168641	26868	1067655	45864	111127	0	0	8009	605292	0	0
2024-08-03 01:40:47			0	36334	0	0	0	29901	28480	168585	26739	1067655	45841	111127	0	0	8008	605457	0	0
2024-08-03 01:41:47			0	36333	0	0	0	29901	28480	168649	26604	1067655	45841	111127	0	0	8008	605498	0	0
2024-08-03 01:42:47			0	36338	0	0	0	29885	28490	168733	26852	1067646	45852	111121	0	0	8009	605257	0	0
2024-08-03 01:43:47			0	36332	0	0	0	29875	28480	168649	26634	1067565	45840	111117	0	0	8009	605539	0	0
2024-08-03 01:44:47			0	36335	0	0	0	29859	28480	168681	27123	1067484	45840	111111	0	0	8009	605416	0	0
2024-08-03 01:45:47			0	36331	0	0	0	29854	28470	168461	26722	1067493	45839	111109	0	0	8009	605616	0	0
2024-08-03 01:46:47			0	36328	0	0	0	29844	28470	168469	26857	1067448	45829	111105	0	0	8009	605740	0	0
2024-08-03 01:47:47			0	36354	0	0	0	29831	28460	168469	26935	1067421	45838	111100	0	0	8011	604702	0	0
2024-08-03 01:48:47			0	36369	0	0	0	29825	28450	168465	26703	1067358	45837	111098	0	0	8012	604120	0	0
2024-08-03 01:49:47			0	36384	0	0	0	29802	28440	168405	26996	1067367	45827	111089	0	0	8013	603537	0	0
2024-08-03 01:50:47			0	36388	0	0	0	29802	28440	168285	26994	1067250	45826	111089	0	0	8013	603372	0	0
2024-08-03 01:51:47			0	36407	0	0	0	29805	28440	168333	27085	1067277	45826	111090	0	0	8014	602591	0	0
2024-08-03 01:52:47			0	36424	0	0	0	29810	28430	168209	26889	1067286	45824	111092	0	0	8015	601927	0	0
2024-08-03 01:53:47			0	36428	0	0	0	29802	28420	168129	26833	1067080	45824	111089	0	0	8015	601798	0	0
2024-08-03 01:54:47			0	36416	0	0	0	29797	28420	168225	27029	1067224	45834	111087	0	0	8015	602291	0	0
2024-08-03 01:55:47			0	36444	0	0	0	29810	28410	168089	26526	1067206	45844	111092	0	0	8016	601176	0	0
2024-08-03 01:56:47			0	36472	0	0	0	29807	28410	168065	26816	1067260	45844	111091	0	0	8018	600027	0	0
2024-08-03 01:57:47			0	36479	0	0	0	29810	28410	168029	26956	1067233	45823	111092	0	0	8018	599740	0	0
2024-08-03 01:58:47			0	36480	0	0	0	29810	28410	167929	27064	1067206	45833	111092	0	0	8018	599699	0	0
2024-08-03 01:59:47			0	36478	0	0	0	29810	28410	167873	27046	1067170	45843	111092	0	0	8018	599781	0	0
2024-08-03 02:00:47			0	36501	0	0	0	29794	28410	167893	26857	1067197	45843	111086	0	0	8020	598839	0	0
2024-08-03 02:01:47			0	36486	0	0	0	29786	28400	167933	26953	1067160	45833	111083	0	0	8019	599488	0	0
2024-08-03 02:02:47			0	36486	0	0	0	29786	28400	167937	26779	1067133	45833	111083	0	0	8019	599488	0	0
2024-08-03 02:03:47			0	36490	0	0	0	29786	28410	167909	26776	1067170	45833	111083	0	0	8019	599290	0	0
2024-08-03 02:04:47			0	36482	0	0	0	29784	28380	168029	27064	1067133	45820	111082	0	0	8019	599721	0	0
2024-08-03 02:05:47			0	36483	0	0	0	29779	28390	167961	26951	1067115	45843	111080	0	0	8019	599646	0	0
2024-08-03 02:06:47			0	36478	0	0	0	29779	28410	167965	26838	1067170	45833	111080	0	0	8019	599781	0	0
2024-08-03 02:07:47			0	36492	0	0	0	29774	28390	167973	27140	1067035	45832	111078	0	0	8019	599277	0	0
2024-08-03 02:08:47			0	36469	0	0	0	29771	28390	167957	26628	1067115	45843	111077	0	0	8018	600219	0	0
2024-08-03 02:09:47			0	36487	0	0	0	29774	28380	167957	26915	1067071	45831	111078	0	0	8019	599516	0	0
2024-08-03 02:10:47			0	36499	0	0	0	29766	28380	167873	26885	1067026	45853	111075	0	0	8020	599025	0	0
2024-08-03 02:11:47			0	36483	0	0	0	29776	28370	168077	27039	1067008	45820	111079	0	0	8019	599715	0	0
2024-08-03 02:12:47			0	36492	0	0	0	29763	28380	167909	27114	1067017	45831	111074	0	0	8020	599312	0	0
2024-08-03 02:13:47			0	36494	0	0	0	29766	28380	167945	27031	1067026	45842	111075	0	0	8020	599230	0	0
2024-08-03 02:14:47			0	36502	0	0	0	29766	28380	167997	26630	1066990	45842	111075	0	0	8020	598902	0	0
2024-08-03 02:15:47			0	36534	0	0	0	29758	28380	167929	26863	1067017	45820	111072	0	0	8022	597593	0	0
2024-08-03 02:16:47			0	36529	0	0	0	29763	28370	167929	27254	1066999	45830	111074	0	0	8022	597832	0	0
2024-08-03 02:17:47			0	36538	0	0	0	29761	28370	167837	26745	1066954	45842	111073	0	0	8022	597464	0	0
2024-08-03 02:18:47			0	36537	0	0	0	29758	28370	167817	27043	1066918	45841	111072	0	0	8022	597505	0	0
2024-08-03 02:19:47			0	36537	0	0	0	29761	28360	167729	27010	1067062	45850	111073	0	0	8022	597540	0	0
2024-08-03 02:20:47			0	36532	0	0	0	29768	28370	167813	26899	1067035	45831	111076	0	0	8022	597709	0	0
2024-08-03 02:21:47			0	36533	0	0	0	29768	28370	167733	26627	1067008	45831	111076	0	0	8022	597669	0	0
2024-08-03 02:22:47			0	36538	0	0	0	29748	28370	167773	27017	1066954	45820	111068	0	0	8023	597464	0	0
2024-08-03 02:23:47			0	36552	0	0	0	29685	28350	167781	27031	1066693	45805	111044	0	0	8024	596961	0	0
2024-08-03 02:24:47			0	36525	0	0	0	29649	28340	167833	26882	1066541	45792	111030	0	0	8023	598099	0	0
2024-08-03 02:25:47			0	36507	0	0	0	29602	28300	167961	27197	1066388	45789	111012	0	0	8023	598974	0	0
2024-08-03 02:26:47			0	36508	0	0	0	29563	28280	167893	26706	1066298	45797	110997	0	0	8023	599003	0	0
2024-08-03 02:27:47			0	36506	0	0	0	29535	28260	168097	27060	1066154	45796	110986	0	0	8024	599154	0	0
2024-08-03 02:28:47			0	36491	0	0	0	29522	28260	168201	26606	1066073	45785	110981	0	0	8023	599768	0	0
2024-08-03 02:29:47			0	36512	0	0	0	29519	28230	168133	27003	1065993	45782	110980	0	0	8024	599012	0	0
2024-08-03 02:30:47			0	36525	0	0	0	29511	28210	167849	26932	1066011	45791	110977	0	0	8025	598549	0	0
2024-08-03 02:31:47			0	36555	0	0	0	29503	28200	167653	26864	1065939	45791	110974	0	0	8027	597356	0	0
2024-08-03 02:32:47			0	36622	0	0	0	29509	28190	167514	26871	1065903	45800	110976	0	0	8031	594656	0	0
2024-08-03 02:33:47			0	36698	0	0	0	29516	28180	167298	27090	1065858	45822	110979	0	0	8035	591598	0	0
2024-08-03 02:34:47			0	36760	0	0	0	29514	28170	167086	27118	1065894	45798	110978	0	0	8039	589118	0	0
2024-08-03 02:35:47			0	36801	0	0	0	29506	28160	166810	27111	1065876	45797	110975	0	0	8041	587494	0	0
2024-08-03 02:36:47			0	36871	0	0	0	29493	28160	166546	26949	1065759	45796	110970	0	0	8045	584669	0	0
2024-08-03 02:37:47			0	36884	0	0	0	29485	28150	166510	27194	1065723	45796	110967	0	0	8046	584179	0	0
2024-08-03 02:38:47			0	36921	0	0	0	29475	28140	166266	27194	1065696	45794	110963	0	0	8049	582724	0	0
2024-08-03 02:39:47			0	36927	0	0	0	29451	28130	166266	27189	1065571	45793	110954	0	0	8049	582517	0	0
2024-08-03 02:40:47			0	36923	0	0	0	29449	28120	166326	26941	1065589	45793	110953	0	0	8049	582711	0	0
2024-08-03 02:41:47			0	36948	0	0	0	29451	28110	166274	26911	1065508	45814	110954	0	0	8050	581740	0	0
2024-08-03 02:42:47			0	36924	0	0	0	29454	28090	166246	27202	1065490	45791	110955	0	0	8049	582772	0	0
2024-08-03 02:43:47			0	36899	0	0	0	29446	28090	166362	27038	1065481	45801	110952	0	0	8048	583777	0	0
2024-08-03 02:44:47			0	36963	0	0	0	29441	28090	166174	27126	1065454	45801	110950	0	0	8051	581205	0	0
2024-08-03 02:45:47			0	36982	0	0	0	29438	28090	166218	26831	1065400	45801	110949	0	0	8053	580443	0	0
2024-08-03 02:46:47			0	36963	0	0	0	29441	28070	166338	26811	1065346	45800	110950	0	0	8051	581272	0	0
2024-08-03 02:47:47			0	36906	0	0	0	29433	28070	166370	27059	1065293	45822	110947	0	0	8048	583563	0	0
2024-08-03 02:48:47			0	36895	0	0	0	29433	28060	166422	27020	1065355	45788	110947	0	0	8047	584039	0	0
2024-08-03 02:49:47			0	36938	0	0	0	29428	28060	166282	27107	1065248	45810	110945	0	0	8050	582310	0	0
2024-08-03 02:50:47			0	36976	0	0	0	29418	28060	166170	27313	1065320	45809	110941	0	0	8052	580784	0	0
2024-08-03 02:51:47			0	36936	0	0	0	29425	28050	166382	27027	1065302	45797	110944	0	0	8050	582424	0	0
2024-08-03 02:52:47			0	36876	0	0	0	29412	28050	166602	26894	1065302	45808	110939	0	0	8047	584839	0	0
2024-08-03 02:53:47			0	36851	0	0	0	29418	28040	166718	27123	1065212	45796	110941	0	0	8045	585881	0	0
2024-08-03 02:54:47			0	36815	0	0	0	29425	28040	166862	26791	1065230	45796	110944	0	0	8043	587335	0	0
2024-08-03 02:55:47			0	36791	0	0	0	29412	28020	166918	26644	1065140	45805	110939	0	0	8041	588373	0	0
2024-08-03 02:56:47			0	36792	0	0	0	29405	28030	166942	26925	1065194	45807	110936	0	0	8042	588299	0	0
2024-08-03 02:57:47			0	36776	0	0	0	29405	28030	167058	26736	1065185	45806	110936	0	0	8041	588946	0	0
2024-08-03 02:58:47			0	36761	0	0	0	29394	28040	167206	26687	1065149	45796	110932	0	0	8040	589520	0	0
2024-08-03 02:59:47			0	36716	0	0	0	29399	28010	167378	26535	1065131	45817	110934	0	0	8037	591448	0	0
2024-08-03 03:00:47			0	36701	0	0	0	29384	28010	167434	26928	1065104	45794	110928	0	0	8037	592057	0	0
2024-08-03 03:01:47			0	36708	0	0	0	29394	28010	167386	26706	1065122	45804	110932	0	0	8037	591773	0	0
2024-08-03 03:02:47			0	36757	0	0	0	29376	28010	167162	26859	1065104	45794	110925	0	0	8040	589784	0	0
2024-08-03 03:03:47			0	36781	0	0	0	29389	28010	167038	26927	1065050	45805	110930	0	0	8041	588812	0	0
2024-08-03 03:04:47			0	36781	0	0	0	29392	28000	167102	26739	1065023	45792	110931	0	0	8041	588846	0	0
2024-08-03 03:05:47			0	36753	0	0	0	29386	28000	167110	26824	1065113	45792	110929	0	0	8040	589980	0	0
2024-08-03 03:06:47			0	36721	0	0	0	29381	27990	167310	26833	1065041	45791	110927	0	0	8038	591313	0	0
2024-08-03 03:07:47			0	36706	0	0	0	29384	27990	167382	26793	1065041	45802	110928	0	0	8037	591922	0	0
2024-08-03 03:08:47			0	36709	0	0	0	29381	27990	167346	26939	1065014	45802	110927	0	0	8037	591800	0	0
2024-08-03 03:09:47			0	36708	0	0	0	29379	28000	167386	27066	1065023	45792	110926	0	0	8037	591807	0	0
2024-08-03 03:10:47			0	36712	0	0	0	29384	27990	167398	26849	1064951	45814	110928	0	0	8037	591678	0	0
2024-08-03 03:11:47			0	36715	0	0	0	29384	27990	167310	26814	1065041	45802	110928	0	0	8037	591557	0	0
2024-08-03 03:12:47			0	36704	0	0	0	29379	27990	167454	26975	1065005	45802	110926	0	0	8037	592004	0	0
2024-08-03 03:13:47			0	36728	0	0	0	29376	27990	167370	26996	1065041	45802	110925	0	0	8038	591029	0	0
2024-08-03 03:14:47			0	36716	0	0	0	29384	28000	167330	26830	1065023	45803	110928	0	0	8037	591482	0	0
2024-08-03 03:15:47			0	36720	0	0	0	29374	27990	167374	26996	1065032	45802	110924	0	0	8038	591353	0	0
2024-08-03 03:16:47			0	36709	0	0	0	29374	28000	167478	26944	1064996	45792	110924	0	0	8037	591766	0	0
2024-08-03 03:17:47			0	36716	0	0	0	29366	27990	167334	27147	1065041	45802	110921	0	0	8038	591516	0	0
2024-08-03 03:18:47			0	36741	0	0	0	29371	27980	167222	27010	1064943	45801	110923	0	0	8039	590535	0	0
2024-08-03 03:19:47			0	36760	0	0	0	29366	27980	167286	27072	1064969	45791	110921	0	0	8040	589765	0	0
2024-08-03 03:20:47			0	36786	0	0	0	29366	27980	167182	26979	1064960	45790	110921	0	0	8042	588711	0	0
2024-08-03 03:21:47			0	36761	0	0	0	29368	27970	167234	26826	1064943	45790	110922	0	0	8040	589758	0	0
2024-08-03 03:22:47			0	36784	0	0	0	29374	27980	167058	26977	1064969	45791	110924	0	0	8041	588792	0	0
2024-08-03 03:23:47			0	36773	0	0	0	29361	27970	167058	26757	1064898	45800	110919	0	0	8041	589272	0	0
2024-08-03 03:24:47			0	36801	0	0	0	29379	27980	167082	26738	1064960	45800	110926	0	0	8042	588104	0	0
2024-08-03 03:25:47			0	36803	0	0	0	29381	27970	166958	27074	1064996	45812	110927	0	0	8042	588057	0	0
2024-08-03 03:26:47			0	36832	0	0	0	29374	27970	166870	26958	1064925	45800	110924	0	0	8044	586885	0	0
2024-08-03 03:27:47			0	36865	0	0	0	29371	27980	166814	27135	1064960	45800	110923	0	0	8046	585518	0	0
2024-08-03 03:28:47			0	36902	0	0	0	29374	27960	166646	26741	1064871	45798	110924	0	0	8048	584095	0	0
2024-08-03 03:29:47			0	36940	0	0	0	29368	27960	166370	26939	1064826	45789	110922	0	0	8051	582565	0	0
2024-08-03 03:30:47			0	36950	0	0	0	29363	27960	166186	26871	1064898	45798	110920	0	0	8051	582163	0	0
2024-08-03 03:31:47			0	36970	0	0	0	29361	27950	166346	26830	1064808	45788	110919	0	0	8053	581394	0	0
2024-08-03 03:32:47			0	36972	0	0	0	29350	27950	166242	26939	1064835	45798	110915	0	0	8053	581313	0	0
2024-08-03 03:33:47			0	36936	0	0	0	29353	27950	166390	26859	1064889	45788	110916	0	0	8051	582760	0	0
2024-08-03 03:34:47			0	36912	0	0	0	29342	27940	166498	26703	1064844	45787	110912	0	0	8049	583759	0	0
2024-08-03 03:35:47			0	36877	0	0	0	29353	27940	166674	26752	1064790	45787	110916	0	0	8047	585170	0	0
2024-08-03 03:36:47			0	36886	0	0	0	29342	27950	166670	26788	1064826	45788	110912	0	0	8048	584773	0	0
2024-08-03 03:37:47			0	36874	0	0	0	29345	27940	166710	26733	1064781	45796	110913	0	0	8047	585290	0	0
2024-08-03 03:38:47			0	36882	0	0	0	29340	27940	166718	26805	1064790	45797	110911	0	0	8048	584968	0	0
2024-08-03 03:39:47			0	36909	0	0	0	29329	27940	166470	26890	1064781	45786	110907	0	0	8049	583880	0	0
2024-08-03 03:40:47			0	36924	0	0	0	29332	27950	166530	26812	1064772	45798	110908	0	0	8050	583243	0	0
2024-08-03 03:41:47			0	36926	0	0	0	29327	27940	166430	26863	1064727	45774	110906	0	0	8050	583196	0	0
2024-08-03 03:42:47			0	36908	0	0	0	29332	27940	166510	26979	1064727	45796	110908	0	0	8049	583920	0	0
2024-08-03 03:43:47			0	36883	0	0	0	29335	27940	166618	26726	1064754	45796	110909	0	0	8048	584928	0	0
2024-08-03 03:44:47			0	36871	0	0	0	29329	27940	166698	27062	1064790	45797	110907	0	0	8047	585411	0	0
2024-08-03 03:45:47			0	36848	0	0	0	29332	27930	166758	27086	1064736	45796	110908	0	0	8046	586374	0	0
2024-08-03 03:46:47			0	36829	0	0	0	29345	27930	166946	26864	1064736	45808	110913	0	0	8044	587141	0	0
2024-08-03 03:47:47			0	36833	0	0	0	29340	27930	166886	27246	1064745	45796	110911	0	0	8045	586979	0	0
2024-08-03 03:48:47			0	36863	0	0	0	29363	27940	166738	26993	1064781	45786	110920	0	0	8046	585734	0	0
2024-08-03 03:49:47			0	36880	0	0	0	29361	27930	166626	26904	1064799	45796	110919	0	0	8047	585082	0	0
2024-08-03 03:50:47			0	36921	0	0	0	29371	27940	166470	27055	1064808	45808	110923	0	0	8049	583397	0	0
2024-08-03 03:51:47			0	36946	0	0	0	29379	27940	166350	26864	1064871	45797	110926	0	0	8051	582391	0	0
2024-08-03 03:52:47			0	36971	0	0	0	29389	27950	166438	26890	1064907	45798	110930	0	0	8052	581353	0	0
2024-08-03 03:53:47			0	36952	0	0	0	29384	27940	166346	26842	1064817	45809	110928	0	0	8051	582150	0	0
2024-08-03 03:54:47			0	36953	0	0	0	29389	27940	166358	26734	1064871	45787	110930	0	0	8051	582110	0	0
2024-08-03 03:55:47			0	36933	0	0	0	29394	27950	166442	26474	1064916	45810	110932	0	0	8050	582880	0	0
2024-08-03 03:56:47			0	36931	0	0	0	29402	27950	166502	26870	1064961	45810	110935	0	0	8050	582961	0	0
2024-08-03 03:57:47			0	36913	0	0	0	29410	27950	166622	27059	1064916	45810	110938	0	0	8048	583685	0	0
2024-08-03 03:58:47			0	36945	0	0	0	29423	27960	166438	26710	1064961	45799	110943	0	0	8050	582364	0	0
2024-08-03 03:59:47			0	36950	0	0	0	29425	27960	166382	26902	1065005	45798	110944	0	0	8050	582163	0	0
2024-08-03 04:00:47			0	36963	0	0	0	29446	27960	166306	26927	1065014	45811	110952	0	0	8051	581641	0	0
2024-08-03 04:01:47			0	37001	0	0	0	29467	27990	166294	26901	1065086	45825	110960	0	0	8053	580016	0	0
2024-08-03 04:02:47			0	36991	0	0	0	29472	27980	166202	26693	1065050	45824	110962	0	0	8052	580450	0	0
2024-08-03 04:03:47			0	36981	0	0	0	29472	27980	166206	26955	1065014	45812	110962	0	0	8051	580852	0	0
2024-08-03 04:04:47			0	36970	0	0	0	29464	27970	166270	26930	1064970	45790	110959	0	0	8051	581327	0	0
2024-08-03 04:05:47			0	36979	0	0	0	29454	27970	166306	26835	1065050	45800	110955	0	0	8052	580965	0	0
2024-08-03 04:06:47			0	36996	0	0	0	29459	27980	166314	26615	1065077	45801	110957	0	0	8053	580250	0	0
2024-08-03 04:07:47			0	37018	0	0	0	29488	27990	166094	26989	1065176	45814	110968	0	0	8053	579335	0	0
2024-08-03 04:08:47			0	37033	0	0	0	29514	27990	166034	26987	1065221	45825	110978	0	0	8054	578734	0	0
2024-08-03 04:09:47			0	37037	0	0	0	29537	28010	165958	27071	1065364	45827	110987	0	0	8054	578507	0	0
2024-08-03 04:10:47			0	37045	0	0	0	29553	28030	166006	26727	1065535	45839	110993	0	0	8054	578121	0	0
2024-08-03 04:11:47			0	37029	0	0	0	29566	28040	166034	26745	1065562	45840	110998	0	0	8053	578727	0	0
2024-08-03 04:12:47			0	37062	0	0	0	29579	28040	165906	26930	1065535	45840	111003	0	0	8055	577408	0	0
2024-08-03 04:13:47			0	37064	0	0	0	29566	28050	165806	26878	1065472	45832	110998	0	0	8055	577295	0	0
2024-08-03 04:14:47			0	37069	0	0	0	29563	28060	165786	26795	1065535	45809	110997	0	0	8055	577061	0	0
2024-08-03 04:15:47			0	37079	0	0	0	29573	28050	165882	27041	1065544	45831	111001	0	0	8056	576695	0	0
2024-08-03 04:16:47			0	37078	0	0	0	29561	28060	165818	26682	1065508	45832	110996	0	0	8056	576702	0	0
2024-08-03 04:17:47			0	37047	0	0	0	29566	28060	165882	27045	1065589	45820	110998	0	0	8054	577941	0	0
2024-08-03 04:18:47			0	37037	0	0	0	29579	28070	165958	26896	1065661	45833	111003	0	0	8053	578307	0	0
2024-08-03 04:19:47			0	37010	0	0	0	29576	28060	166074	26805	1065535	45832	111002	0	0	8052	579421	0	0
2024-08-03 04:20:47			0	36994	0	0	0	29568	28080	166138	26753	1065688	45834	110999	0	0	8051	579995	0	0
2024-08-03 04:21:47			0	36945	0	0	0	29563	28080	166286	27003	1065652	45833	110997	0	0	8048	581961	0	0
2024-08-03 04:22:47			0	36936	0	0	0	29581	28080	166514	27097	1065795	45845	111004	0	0	8047	582323	0	0
2024-08-03 04:23:47			0	36897	0	0	0	29605	28100	166510	26783	1065930	45870	111013	0	0	8045	583824	0	0
2024-08-03 04:24:47			0	36877	0	0	0	29631	28130	166626	26909	1066055	45861	111023	0	0	8043	584528	0	0
2024-08-03 04:25:47			0	36843	0	0	0	29644	28150	166782	27170	1066172	45874	111028	0	0	8041	585831	0	0
2024-08-03 04:26:47			0	36823	0	0	0	29659	28160	166982	26963	1066190	45864	111034	0	0	8040	586605	0	0
2024-08-03 04:27:47			0	36783	0	0	0	29662	28170	167058	27097	1066190	45854	111035	0	0	8037	588187	0	0
2024-08-03 04:28:47			0	36751	0	0	0	29675	28180	167202	26769	1066307	45877	111040	0	0	8035	589449	0	0
2024-08-03 04:29:47			0	36718	0	0	0	29675	28190	167366	26757	1066334	45845	111040	0	0	8034	590753	0	0
2024-08-03 04:30:47			0	36693	0	0	0	29680	28190	167406	26592	1066361	45845	111042	0	0	8032	591767	0	0
2024-08-03 04:31:47			0	36643	0	0	0	29683	28200	167610	27137	1066379	45857	111043	0	0	8029	593766	0	0
2024-08-03 04:32:47			0	36618	0	0	0	29683	28210	167662	26821	1066424	45835	111043	0	0	8028	594750	0	0
2024-08-03 04:33:47			0	36565	0	0	0	29685	28220	167801	26779	1066415	45859	111044	0	0	8024	596879	0	0
2024-08-03 04:34:47			0	36540	0	0	0	29677	28230	168073	27067	1066433	45837	111041	0	0	8023	597866	0	0
2024-08-03 04:35:47			0	36506	0	0	0	29675	28220	168229	26998	1066307	45848	111040	0	0	8021	599292	0	0
2024-08-03 04:36:47			0	36469	0	0	0	29657	28230	168333	26772	1066370	45837	111033	0	0	8019	600775	0	0
2024-08-03 04:37:47			0	36442	0	0	0	29651	28220	168429	27111	1066280	45826	111031	0	0	8018	601918	0	0
2024-08-03 04:38:47			0	36428	0	0	0	29667	28220	168585	27105	1066379	45836	111037	0	0	8017	602494	0	0
2024-08-03 04:39:47			0	36405	0	0	0	29667	28230	168793	27064	1066370	45837	111037	0	0	8015	603405	0	0
2024-08-03 04:40:47			0	36379	0	0	0	29677	28240	168817	27201	1066469	45850	111041	0	0	8014	604441	0	0
2024-08-03 04:41:47			0	36342	0	0	0	29680	28250	168909	26901	1066540	45862	111042	0	0	8011	605932	0	0
2024-08-03 04:42:47			0	36322	0	0	0	29688	28250	168917	26861	1066540	45839	111045	0	0	8010	606758	0	0
2024-08-03 04:43:47			0	36315	0	0	0	29688	28250	169021	27031	1066522	45839	111045	0	0	8010	607047	0	0
2024-08-03 04:44:47			0	36274	0	0	0	29698	28260	169269	27033	1066567	45841	111049	0	0	8007	608709	0	0
2024-08-03 04:45:47			0	36249	0	0	0	29698	28250	169321	27144	1066549	45851	111049	0	0	8006	609780	0	0
2024-08-03 04:46:47			0	36235	0	0	0	29701	28260	169365	26883	1066558	45830	111050	0	0	8005	610325	0	0
2024-08-03 04:47:47			0	36247	0	0	0	29696	28270	169313	27192	1066550	45831	111048	0	0	8006	609792	0	0
2024-08-03 04:48:47			0	36235	0	0	0	29701	28260	169405	26892	1066567	45841	111050	0	0	8005	610325	0	0
2024-08-03 04:49:47			0	36214	0	0	0	29693	28260	169417	27092	1066477	45830	111047	0	0	8004	611197	0	0
2024-08-03 04:50:47			0	36218	0	0	0	29696	28270	169385	27128	1066523	45831	111048	0	0	8004	610995	0	0
2024-08-03 04:51:47			0	36214	0	0	0	29685	28260	169485	26963	1066504	45840	111044	0	0	8004	611197	0	0
2024-08-03 04:52:47			0	36199	0	0	0	29690	28250	169481	26885	1066495	45829	111046	0	0	8003	611855	0	0
2024-08-03 04:53:47			0	36181	0	0	0	29680	28260	169549	27048	1066531	45840	111042	0	0	8002	612568	0	0
2024-08-03 04:54:47			0	36173	0	0	0	29672	28250	169589	27133	1066468	45829	111039	0	0	8001	612936	0	0
2024-08-03 04:55:47			0	36142	0	0	0	29680	28260	169677	27185	1066531	45840	111042	0	0	7999	614192	0	0
2024-08-03 04:56:47			0	36155	0	0	0	29664	28250	169717	27001	1066442	45851	111036	0	0	8000	613686	0	0
2024-08-03 04:57:47			0	36144	0	0	0	29659	28240	169673	27031	1066361	45816	111034	0	0	8000	614180	0	0
2024-08-03 04:58:47			0	36130	0	0	0	29659	28240	169665	26894	1066370	45829	111034	0	0	7999	614763	0	0
2024-08-03 04:59:47			0	36147	0	0	0	29638	28240	169669	26748	1066370	45829	111026	0	0	8000	614055	0	0
2024-08-03 05:00:47			0	36144	0	0	0	29623	28230	169769	27064	1066289	45804	111020	0	0	8000	614215	0	0
2024-08-03 05:01:47			0	36149	0	0	0	29625	28220	169673	27007	1066253	45814	111021	0	0	8001	614042	0	0
2024-08-03 05:02:47			0	36170	0	0	0	29649	28230	169657	27015	1066370	45827	111030	0	0	8002	613132	0	0
2024-08-03 05:03:47			0	36179	0	0	0	29641	28230	169629	27041	1066352	45849	111027	0	0	8002	612758	0	0
2024-08-03 05:04:47			0	36184	0	0	0	29636	28220	169545	27005	1066280	45836	111025	0	0	8003	612585	0	0
2024-08-03 05:05:47			0	36196	0	0	0	29633	28220	169569	27078	1066271	45836	111024	0	0	8003	612086	0	0
2024-08-03 05:06:47			0	36200	0	0	0	29612	28220	169449	27013	1066190	45836	111016	0	0	8004	611920	0	0
2024-08-03 05:07:47			0	36189	0	0	0	29607	28200	169525	27116	1066208	45824	111014	0	0	8003	612448	0	0
2024-08-03 05:08:47			0	36164	0	0	0	29618	28210	169633	27114	1066262	45825	111018	0	0	8002	613453	0	0
2024-08-03 05:09:47			0	36177	0	0	0	29618	28200	169649	26873	1066316	45834	111018	0	0	8002	612947	0	0
2024-08-03 05:10:47			0	36168	0	0	0	29628	28230	169549	26788	1066343	45837	111022	0	0	8002	613216	0	0
2024-08-03 05:11:47			0	36175	0	0	0	29623	28210	169669	27003	1066208	45825	111020	0	0	8002	612995	0	0
2024-08-03 05:12:47			0	36161	0	0	0	29599	28200	169581	26857	1066163	45812	111011	0	0	8002	613613	0	0
2024-08-03 05:13:47			0	36177	0	0	0	29589	28190	169705	27182	1066092	45811	111007	0	0	8003	612983	0	0
2024-08-03 05:14:47			0	36174	0	0	0	29576	28180	169597	26783	1066128	45799	111002	0	0	8003	613143	0	0
2024-08-03 05:15:47			0	36162	0	0	0	29581	28180	169725	27031	1066074	45833	111004	0	0	8002	613643	0	0
2024-08-03 05:16:47			0	36149	0	0	0	29592	28190	169729	26953	1066190	45844	111008	0	0	8001	614149	0	0
2024-08-03 05:17:47			0	36133	0	0	0	29610	28190	169609	27003	1066190	45833	111015	0	0	8000	614816	0	0
2024-08-03 05:18:47			0	36127	0	0	0	29633	28180	169733	27112	1066154	45844	111024	0	0	7999	615102	0	0
2024-08-03 05:19:47			0	36156	0	0	0	29625	28190	169701	26986	1066244	45833	111021	0	0	8001	613857	0	0
2024-08-03 05:20:47			0	36158	0	0	0	29610	28190	169661	26741	1066190	45822	111015	0	0	8001	613774	0	0
2024-08-03 05:21:47			0	36136	0	0	0	29597	28190	169793	26850	1066083	45822	111010	0	0	8000	614691	0	0
2024-08-03 05:22:47			0	36131	0	0	0	29535	28180	169789	26925	1065966	45810	110986	0	0	8001	614935	0	0
2024-08-03 05:23:47			0	36137	0	0	0	29470	28160	169709	26871	1065733	45796	110961	0	0	8002	614755	0	0
2024-08-03 05:24:47			0	36084	0	0	0	29418	28140	169761	27253	1065562	45784	110941	0	0	8000	617040	0	0
2024-08-03 05:25:47			0	36080	0	0	0	29386	28110	170017	26779	1065427	45769	110929	0	0	8000	617314	0	0
2024-08-03 05:26:47			0	36080	0	0	0	29363	28090	170037	27012	1065373	45779	110920	0	0	8000	617385	0	0
2024-08-03 05:27:47			0	36052	0	0	0	29355	28070	170101	27034	1065320	45778	110917	0	0	7999	618629	0	0
2024-08-03 05:28:47			0	36074	0	0	0	29337	28060	170105	26641	1065329	45788	110910	0	0	8000	617743	0	0
2024-08-03 05:29:47			0	36073	0	0	0	29376	28050	170085	26911	1065194	45775	110925	0	0	7999	617821	0	0
2024-08-03 05:30:47			0	36075	0	0	0	29405	28040	170073	26840	1065212	45796	110936	0	0	7999	617773	0	0
2024-08-03 05:31:47			0	36106	0	0	0	29392	28030	169917	26622	1065212	45795	110931	0	0	8001	616512	0	0
2024-08-03 05:32:47			0	36146	0	0	0	29368	28030	169805	26674	1065104	45795	110922	0	0	8004	614841	0	0
2024-08-03 05:33:47			0	36143	0	0	0	29348	28020	169705	26705	1065113	45805	110914	0	0	8004	615002	0	0
2024-08-03 05:34:47			0	36154	0	0	0	29342	28010	169881	27060	1065014	45782	110912	0	0	8005	614578	0	0
2024-08-03 05:35:47			0	36114	0	0	0	29335	28000	169921	26793	1065023	45781	110909	0	0	8002	616284	0	0
2024-08-03 05:36:47			0	36125	0	0	0	29337	27990	169985	26939	1064978	45791	110910	0	0	8003	615860	0	0
2024-08-03 05:37:47			0	36151	0	0	0	29355	27980	169785	26694	1064996	45813	110917	0	0	8004	614810	0	0
2024-08-03 05:38:47			0	36182	0	0	0	29355	27990	169805	26743	1065005	45814	110917	0	0	8006	613482	0	0
2024-08-03 05:39:47			0	36221	0	0	0	29363	27990	169621	26805	1064978	45802	110920	0	0	8008	611859	0	0
2024-08-03 05:40:47			0	36231	0	0	0	29361	27960	169493	26852	1064987	45799	110919	0	0	8009	611549	0	0
2024-08-03 05:41:47			0	36267	0	0	0	29368	27990	169333	26830	1065059	45814	110922	0	0	8011	609948	0	0
2024-08-03 05:42:47			0	36306	0	0	0	29350	27970	169273	26628	1064943	45823	110915	0	0	8013	608402	0	0
2024-08-03 05:43:47			0	36338	0	0	0	29348	27970	169225	26852	1064943	45790	110914	0	0	8015	607077	0	0
2024-08-03 05:44:47			0	36334	0	0	0	29342	27960	169093	26587	1064907	45789	110912	0	0	8015	607278	0	0
2024-08-03 05:45:47			0	36350	0	0	0	29340	27960	169133	27033	1064952	45798	110911	0	0	8016	606616	0	0
2024-08-03 05:46:47			0	36384	0	0	0	29342	27950	168993	26769	1064889	45810	110912	0	0	8018	605247	0	0
2024-08-03 05:47:47			0	36395	0	0	0	29340	27950	168857	26880	1064907	45810	110911	0	0	8019	604793	0	0
2024-08-03 05:48:47			0	36381	0	0	0	29358	27950	168761	26819	1064916	45788	110918	0	0	8018	605371	0	0
2024-08-03 05:49:47			0	36412	0	0	0	29342	27950	168773	26701	1064916	45821	110912	0	0	8020	604092	0	0
2024-08-03 05:50:47			0	36414	0	0	0	29345	27960	168697	26680	1064907	45799	110913	0	0	8020	603975	0	0
2024-08-03 05:51:47			0	36441	0	0	0	29348	27950	168729	26939	1064934	45810	110914	0	0	8021	602898	0	0
2024-08-03 05:52:47			0	36451	0	0	0	29358	27950	168549	27024	1064907	45810	110918	0	0	8022	602486	0	0
2024-08-03 05:53:47			0	36478	0	0	0	29376	27950	168513	26634	1064996	45810	110925	0	0	8023	601376	0	0
2024-08-03 05:54:47			0	36495	0	0	0	29399	27960	168385	26743	1065032	45821	110934	0	0	8024	600644	0	0
2024-08-03 05:55:47			0	36521	0	0	0	29433	27960	168277	26894	1065176	45833	110947	0	0	8025	599577	0	0
2024-08-03 05:56:47			0	36539	0	0	0	29451	27980	168161	27104	1065149	45833	110954	0	0	8026	598770	0	0
2024-08-03 05:57:47			0	36557	0	0	0	29428	27980	168209	26738	1065077	45813	110945	0	0	8027	598033	0	0
2024-08-03 05:58:47			0	36565	0	0	0	29410	27970	168105	26866	1065050	45800	110938	0	0	8028	597740	0	0
2024-08-03 05:59:47			0	36553	0	0	0	29392	27980	168197	27043	1065014	45790	110931	0	0	8028	598197	0	0
2024-08-03 06:00:47			0	36541	0	0	0	29397	27980	168153	26913	1065131	45801	110933	0	0	8027	598688	0	0
2024-08-03 06:01:47			0	36525	0	0	0	29436	27980	168205	26915	1065230	45833	110948	0	0	8025	599344	0	0
2024-08-03 06:02:47			0	36529	0	0	0	29457	27990	168257	26856	1065275	45825	110956	0	0	8025	599145	0	0
2024-08-03 06:03:47			0	36521	0	0	0	29459	28000	168321	26958	1065248	45815	110957	0	0	8025	599439	0	0
2024-08-03 06:04:47			0	36524	0	0	0	29446	28000	168177	27112	1065167	45803	110952	0	0	8025	599316	0	0
2024-08-03 06:05:47			0	36524	0	0	0	29425	28000	168181	26949	1065194	45815	110944	0	0	8025	599316	0	0
2024-08-03 06:06:47			0	36521	0	0	0	29433	28000	168281	26798	1065221	45803	110947	0	0	8025	599439	0	0
2024-08-03 06:07:47			0	36547	0	0	0	29446	27990	168281	27007	1065284	45802	110952	0	0	8026	598408	0	0
2024-08-03 06:08:47			0	36541	0	0	0	29462	28000	168149	26691	1065248	45815	110958	0	0	8026	598619	0	0
2024-08-03 06:09:47			0	36549	0	0	0	29444	27990	168077	27105	1065149	45791	110951	0	0	8026	598326	0	0
2024-08-03 06:10:47			0	36563	0	0	0	29428	28000	168125	27079	1065050	45792	110945	0	0	8028	597719	0	0
2024-08-03 06:11:47			0	36555	0	0	0	29436	27990	168133	27294	1065113	45825	110948	0	0	8027	598080	0	0
2024-08-03 06:12:47			0	36571	0	0	0	29438	27990	168001	27130	1065122	45825	110949	0	0	8028	597426	0	0
2024-08-03 06:13:47			0	36580	0	0	0	29441	27990	168033	27029	1065176	45814	110950	0	0	8028	597058	0	0
2024-08-03 06:14:47			0	36569	0	0	0	29464	28010	167869	26968	1065283	45837	110959	0	0	8027	597439	0	0
2024-08-03 06:15:47			0	36582	0	0	0	29485	28010	167909	26955	1065319	45850	110967	0	0	8028	596907	0	0
2024-08-03 06:16:47			0	36599	0	0	0	29501	28030	167934	26857	1065481	45839	110973	0	0	8029	596144	0	0
2024-08-03 06:17:47			0	36596	0	0	0	29503	28030	167873	27149	1065490	45840	110974	0	0	8028	596266	0	0
2024-08-03 06:18:47			0	36579	0	0	0	29509	28030	167949	26854	1065517	45863	110976	0	0	8027	596961	0	0
2024-08-03 06:19:47			0	36577	0	0	0	29514	28050	167817	26793	1065571	45841	110978	0	0	8027	596974	0	0
2024-08-03 06:20:47			0	36571	0	0	0	29511	28040	167985	26774	1065508	45819	110977	0	0	8027	597254	0	0
2024-08-03 06:21:47			0	36567	0	0	0	29503	28050	167989	26970	1065526	45809	110974	0	0	8027	597383	0	0
2024-08-03 06:22:47			0	36546	0	0	0	29496	28050	168069	27107	1065490	45820	110971	0	0	8026	598242	0	0
2024-08-03 06:23:47			0	36528	0	0	0	29477	28040	168085	26812	1065427	45796	110964	0	0	8025	599014	0	0
2024-08-03 06:24:47			0	36527	0	0	0	29488	28040	168137	26975	1065400	45819	110968	0	0	8025	599054	0	0
2024-08-03 06:25:47			0	36510	0	0	0	29490	28040	168245	26592	1065445	45819	110969	0	0	8024	599751	0	0
2024-08-03 06:26:47			0	36491	0	0	0	29496	28050	168269	27043	1065463	45820	110971	0	0	8022	600496	0	0
2024-08-03 06:27:47			0	36472	0	0	0	29490	28040	168329	26736	1065508	45830	110969	0	0	8021	601311	0	0
2024-08-03 06:28:47			0	36483	0	0	0	29493	28050	168213	27013	1065472	45820	110970	0	0	8022	600824	0	0
2024-08-03 06:29:47			0	36478	0	0	0	29490	28050	168261	27039	1065634	45832	110969	0	0	8022	601030	0	0
2024-08-03 06:30:47			0	36487	0	0	0	29501	28050	168237	27024	1065634	45809	110973	0	0	8022	600660	0	0
2024-08-03 06:31:47			0	36495	0	0	0	29503	28060	168273	26922	1065535	45832	110974	0	0	8023	600297	0	0
2024-08-03 06:32:47			0	36492	0	0	0	29501	28070	168217	27128	1065670	45822	110973	0	0	8022	600386	0	0
2024-08-03 06:33:47			0	36468	0	0	0	29498	28070	168345	27001	1065688	45821	110972	0	0	8021	601371	0	0
2024-08-03 06:34:47			0	36472	0	0	0	29506	28080	168305	26741	1065732	45822	110975	0	0	8021	601172	0	0
2024-08-03 06:35:47			0	36455	0	0	0	29509	28080	168361	26642	1065741	45823	110976	0	0	8020	601870	0	0
2024-08-03 06:36:47			0	36440	0	0	0	29511	28080	168585	26656	1065822	45812	110977	0	0	8019	602487	0	0
2024-08-03 06:37:47			0	36421	0	0	0	29503	28080	168613	26878	1065732	45811	110974	0	0	8018	603269	0	0
2024-08-03 06:38:47			0	36416	0	0	0	29514	28080	168645	26913	1065714	45823	110978	0	0	8018	603475	0	0
2024-08-03 06:39:47			0	36380	0	0	0	29514	28090	168901	26963	1065777	45812	110978	0	0	8016	604923	0	0
2024-08-03 06:40:47			0	36366	0	0	0	29506	28080	168857	27150	1065741	45823	110975	0	0	8015	605536	0	0
2024-08-03 06:41:47			0	36365	0	0	0	29529	28100	169001	26941	1065822	45825	110984	0	0	8015	605507	0	0
2024-08-03 06:42:47			0	36340	0	0	0	29511	28090	168905	26786	1065786	45835	110977	0	0	8013	606575	0	0
2024-08-03 06:43:47			0	36350	0	0	0	29516	28100	169049	26953	1065795	45836	110979	0	0	8014	606127	0	0
2024-08-03 06:44:47			0	36357	0	0	0	29527	28110	168869	26831	1065696	45814	110983	0	0	8014	605803	0	0
2024-08-03 06:45:47			0	36335	0	0	0	29519	28080	169005	26800	1065553	45801	110980	0	0	8013	606816	0	0
2024-08-03 06:46:47			0	36332	0	0	0	29511	28080	169049	26953	1065580	45823	110977	0	0	8013	606940	0	0
2024-08-03 06:47:47			0	36310	0	0	0	29506	28080	169117	26859	1065741	45834	110975	0	0	8012	607850	0	0
2024-08-03 06:48:47			0	36303	0	0	0	29506	28090	169217	27074	1065777	45834	110975	0	0	8011	608105	0	0
2024-08-03 06:49:47			0	36301	0	0	0	29514	28080	169325	27107	1065688	45823	110978	0	0	8011	608223	0	0
2024-08-03 06:50:47			0	36272	0	0	0	29516	28090	169249	26875	1065670	45812	110979	0	0	8009	609389	0	0
2024-08-03 06:51:47			0	36294	0	0	0	29519	28090	169313	26845	1065786	45835	110980	0	0	8010	608478	0	0
2024-08-03 06:52:47			0	36280	0	0	0	29516	28110	169293	26831	1065831	45825	110979	0	0	8010	608987	0	0
2024-08-03 06:53:47			0	36261	0	0	0	29522	28100	169377	26854	1065768	45847	110981	0	0	8009	609810	0	0
2024-08-03 06:54:47			0	36255	0	0	0	29519	28090	169389	26901	1065759	45835	110980	0	0	8008	610094	0	0
2024-08-03 06:55:47			0	36240	0	0	0	29524	28110	169505	26925	1065804	45825	110982	0	0	8007	610646	0	0
2024-08-03 06:56:47			0	36243	0	0	0	29535	28120	169509	26595	1065795	45815	110986	0	0	8007	610487	0	0
2024-08-03 06:57:47			0	36229	0	0	0	29522	28110	169401	26835	1065831	45825	110981	0	0	8007	611103	0	0
2024-08-03 06:58:47			0	36236	0	0	0	29524	28120	169449	26856	1065849	45837	110982	0	0	8007	610777	0	0
2024-08-03 06:59:47			0	36222	0	0	0	29532	28120	169549	26791	1065822	45826	110985	0	0	8006	611359	0	0
2024-08-03 07:00:47			0	36222	0	0	0	29529	28120	169617	26896	1065822	45826	110984	0	0	8006	611359	0	0
2024-08-03 07:01:47			0	36195	0	0	0	29527	28110	169621	26660	1065840	45826	110983	0	0	8005	612516	0	0
2024-08-03 07:02:47			0	36212	0	0	0	29532	28110	169405	26755	1065813	45826	110985	0	0	8005	611809	0	0
2024-08-03 07:03:47			0	36199	0	0	0	29532	28130	169613	26811	1065840	45816	110985	0	0	8005	612279	0	0
2024-08-03 07:04:47			0	36190	0	0	0	29532	28120	169657	26941	1065885	45827	110985	0	0	8004	612689	0	0
2024-08-03 07:05:47			0	36188	0	0	0	29532	28120	169601	26798	1065912	45827	110985	0	0	8004	612772	0	0
2024-08-03 07:06:47			0	36171	0	0	0	29540	28120	169709	27019	1065858	45838	110988	0	0	8003	613480	0	0
2024-08-03 07:07:47			0	36185	0	0	0	29540	28120	169597	26831	1065885	45827	110988	0	0	8004	612897	0	0
2024-08-03 07:08:47			0	36185	0	0	0	29532	28120	169553	26857	1065912	45827	110985	0	0	8004	612897	0	0
2024-08-03 07:09:47			0	36186	0	0	0	29537	28120	169533	26750	1065885	45827	110987	0	0	8004	612856	0	0
2024-08-03 07:10:47			0	36162	0	0	0	29535	28130	169461	26535	1065957	45828	110986	0	0	8002	613820	0	0
2024-08-03 07:11:47			0	36186	0	0	0	29537	28130	169513	26918	1065894	45816	110987	0	0	8004	612820	0	0
2024-08-03 07:12:47			0	36184	0	0	0	29537	28130	169437	27156	1065948	45805	110987	0	0	8004	612904	0	0
2024-08-03 07:13:47			0	36178	0	0	0	29535	28130	169553	27027	1065930	45828	110986	0	0	8003	613153	0	0
2024-08-03 07:14:47			0	36177	0	0	0	29542	28130	169537	27071	1065921	45816	110989	0	0	8003	613195	0	0
2024-08-03 07:15:47			0	36187	0	0	0	29542	28140	169573	26949	1065921	45840	110989	0	0	8004	612743	0	0
2024-08-03 07:16:47			0	36181	0	0	0	29535	28130	169513	26760	1065975	45838	110986	0	0	8004	613028	0	0
2024-08-03 07:17:47			0	36186	0	0	0	29537	28130	169477	26809	1065957	45828	110987	0	0	8004	612820	0	0
2024-08-03 07:18:47			0	36171	0	0	0	29540	28140	169397	27046	1065939	45839	110988	0	0	8003	613409	0	0
2024-08-03 07:19:47			0	36180	0	0	0	29537	28140	169497	26790	1065939	45828	110987	0	0	8004	613035	0	0
2024-08-03 07:20:47			0	36197	0	0	0	29542	28140	169469	26710	1065993	45828	110989	0	0	8005	612327	0	0
2024-08-03 07:21:47			0	36175	0	0	0	29535	28130	169645	26833	1065984	45828	110986	0	0	8003	613278	0	0
2024-08-03 07:22:47			0	36171	0	0	0	29527	28140	169505	26868	1065885	45817	110983	0	0	8003	613409	0	0
2024-08-03 07:23:47			0	36179	0	0	0	29511	28130	169641	26719	1065840	45805	110977	0	0	8004	613112	0	0
2024-08-03 07:24:47			0	36174	0	0	0	29514	28120	169617	26481	1065822	45792	110978	0	0	8004	613355	0	0
2024-08-03 07:25:47			0	36163	0	0	0	29498	28120	169593	26639	1065750	45805	110972	0	0	8003	613813	0	0
2024-08-03 07:26:47			0	36160	0	0	0	29485	28120	169473	26932	1065741	45815	110967	0	0	8003	613938	0	0
2024-08-03 07:27:47			0	36165	0	0	0	29483	28110	169649	26968	1065732	45815	110966	0	0	8003	613765	0	0
2024-08-03 07:28:47			0	36186	0	0	0	29470	28090	169605	26646	1065679	45802	110961	0	0	8005	612962	0	0
2024-08-03 07:29:47			0	36165	0	0	0	29462	28090	169617	26694	1065679	45802	110958	0	0	8004	613836	0	0
2024-08-03 07:30:47			0	36176	0	0	0	29467	28090	169529	26932	1065598	45813	110960	0	0	8004	613378	0	0
2024-08-03 07:31:47			0	36188	0	0	0	29467	28080	169597	26824	1065688	45812	110960	0	0	8005	612914	0	0
2024-08-03 07:32:47			0	36177	0	0	0	29472	28080	169549	26831	1065634	45823	110962	0	0	8004	613372	0	0
2024-08-03 07:33:47			0	36192	0	0	0	29457	28070	169393	26994	1065526	45799	110956	0	0	8005	612783	0	0
2024-08-03 07:34:47			0	36185	0	0	0	29431	28070	169465	26556	1065454	45789	110946	0	0	8005	613074	0	0
2024-08-03 07:35:47			0	36205	0	0	0	29402	28060	169457	26863	1065266	45798	110935	0	0	8007	612277	0	0
2024-08-03 07:36:47			0	36199	0	0	0	29363	28040	169385	26785	1065122	45774	110920	0	0	8007	612597	0	0
2024-08-03 07:37:47			0	36204	0	0	0	29324	28010	169453	27041	1065014	45771	110905	0	0	8008	612495	0	0
2024-08-03 07:38:47			0	36178	0	0	0	29309	27990	169545	26894	1064978	45780	110899	0	0	8007	613649	0	0
2024-08-03 07:39:47			0	36167	0	0	0	29306	27980	169485	26996	1064969	45791	110898	0	0	8006	614143	0	0
2024-08-03 07:40:47			0	36183	0	0	0	29327	27970	169553	27168	1064943	45790	110906	0	0	8006	613511	0	0
2024-08-03 07:41:47			0	36188	0	0	0	29342	27970	169513	26556	1065032	45800	110912	0	0	8007	613303	0	0
2024-08-03 07:42:47			0	36210	0	0	0	29384	27980	169449	26857	1065068	45812	110928	0	0	8007	612352	0	0
2024-08-03 07:43:47			0	36254	0	0	0	29397	27980	169413	26767	1065203	45823	110933	0	0	8010	610523	0	0
2024-08-03 07:44:47			0	36258	0	0	0	29418	27990	169209	26849	1065301	45825	110941	0	0	8010	610322	0	0
2024-08-03 07:45:47			0	36294	0	0	0	29415	27990	169065	27107	1065194	45835	110940	0	0	8012	608829	0	0
2024-08-03 07:46:47			0	36311	0	0	0	29389	27990	169089	26894	1065086	45814	110930	0	0	8013	608125	0	0
2024-08-03 07:47:47			0	36307	0	0	0	29402	27990	168981	27033	1065140	45802	110935	0	0	8013	608290	0	0
2024-08-03 07:48:47			0	36315	0	0	0	29402	27990	169077	27020	1065167	45802	110935	0	0	8013	607959	0	0
2024-08-03 07:49:47			0	36297	0	0	0	29407	27980	169153	27074	1065095	45800	110937	0	0	8012	608740	0	0
2024-08-03 07:50:47			0	36309	0	0	0	29420	27980	169037	26779	1065158	45813	110942	0	0	8013	608243	0	0
2024-08-03 07:51:47			0	36326	0	0	0	29428	27980	169049	26663	1065239	45824	110945	0	0	8013	607539	0	0
2024-08-03 07:52:47			0	36323	0	0	0	29454	27980	168881	27112	1065266	45824	110955	0	0	8013	607663	0	0
2024-08-03 07:53:47			0	36341	0	0	0	29470	28000	168929	26906	1065355	45826	110961	0	0	8014	606849	0	0
2024-08-03 07:54:47			0	36345	0	0	0	29480	28000	168789	27060	1065382	45848	110965	0	0	8014	606683	0	0
2024-08-03 07:55:47			0	36336	0	0	0	29485	28010	168941	26897	1065400	45817	110967	0	0	8013	607020	0	0
2024-08-03 07:56:47			0	36357	0	0	0	29485	28010	168825	26563	1065391	45816	110967	0	0	8014	606152	0	0
2024-08-03 07:57:47			0	36388	0	0	0	29493	28020	168845	27109	1065463	45805	110970	0	0	8016	604838	0	0
2024-08-03 07:58:47			0	36365	0	0	0	29477	28020	168817	27251	1065445	45805	110964	0	0	8015	605787	0	0
2024-08-03 07:59:47			0	36362	0	0	0	29457	28020	168825	26934	1065382	45794	110956	0	0	8015	605911	0	0
2024-08-03 08:00:47			0	36377	0	0	0	29459	28020	168889	26823	1065409	45805	110957	0	0	8016	605292	0	0
2024-08-03 08:01:47			0	36365	0	0	0	29454	28020	168853	26785	1065355	45817	110955	0	0	8015	605787	0	0
2024-08-03 08:02:47			0	36369	0	0	0	29438	28020	168813	26727	1065391	45805	110949	0	0	8016	605622	0	0
2024-08-03 08:03:47			0	36348	0	0	0	29433	28010	168793	27055	1065319	45828	110947	0	0	8015	606524	0	0
2024-08-03 08:04:47			0	36345	0	0	0	29431	28020	168797	26738	1065418	45828	110946	0	0	8015	606613	0	0
2024-08-03 08:05:47			0	36359	0	0	0	29433	28020	168921	26481	1065364	45828	110947	0	0	8015	606035	0	0
2024-08-03 08:06:47			0	36352	0	0	0	29431	28020	168821	26729	1065364	45828	110946	0	0	8015	606324	0	0
2024-08-03 08:07:47			0	36363	0	0	0	29423	28010	168801	26961	1065346	45805	110943	0	0	8016	605905	0	0
2024-08-03 08:08:47			0	36360	0	0	0	29438	28020	168813	26700	1065337	45817	110949	0	0	8015	605993	0	0
2024-08-03 08:09:47			0	36382	0	0	0	29433	28020	168781	26713	1065364	45828	110947	0	0	8017	605085	0	0
2024-08-03 08:10:47			0	36369	0	0	0	29433	28020	168725	27157	1065301	45817	110947	0	0	8016	605622	0	0
2024-08-03 08:11:47			0	36374	0	0	0	29425	28020	168629	26942	1065355	45794	110944	0	0	8017	605415	0	0
2024-08-03 08:12:47			0	36376	0	0	0	29415	28020	168709	26942	1065391	45817	110940	0	0	8017	605333	0	0
2024-08-03 08:13:47			0	36362	0	0	0	29410	28020	168745	26804	1065328	45805	110938	0	0	8016	605911	0	0
2024-08-03 08:14:47			0	36370	0	0	0	29405	28020	168617	26713	1065248	45817	110936	0	0	8017	605581	0	0
2024-08-03 08:15:47			0	36362	0	0	0	29415	28000	168669	26734	1065301	45815	110940	0	0	8016	605981	0	0
2024-08-03 08:16:47			0	36373	0	0	0	29397	28000	168669	26601	1065301	45792	110933	0	0	8017	605526	0	0
2024-08-03 08:17:47			0	36359	0	0	0	29386	28010	168753	26984	1065185	45805	110929	0	0	8016	606070	0	0
2024-08-03 08:18:47			0	36367	0	0	0	29392	28010	168661	27112	1065266	45805	110931	0	0	8017	605739	0	0
2024-08-03 08:19:47			0	36379	0	0	0	29379	28010	168625	26916	1065283	45816	110926	0	0	8018	605244	0	0
2024-08-03 08:20:47			0	36393	0	0	0	29386	27990	168613	26812	1065176	45814	110929	0	0	8018	604736	0	0
2024-08-03 08:21:47			0	36397	0	0	0	29392	27990	168613	27060	1065176	45802	110931	0	0	8018	604571	0	0
2024-08-03 08:22:47			0	36394	0	0	0	29384	27990	168449	26760	1065122	45802	110928	0	0	8018	604695	0	0
2024-08-03 08:23:47			0	36394	0	0	0	29363	27990	168509	27005	1065203	45802	110920	0	0	8019	604695	0	0
2024-08-03 08:24:47			0	36403	0	0	0	29366	27990	168537	26641	1065113	45802	110921	0	0	8019	604324	0	0
2024-08-03 08:25:47			0	36393	0	0	0	29355	27980	168641	26649	1065095	45790	110917	0	0	8019	604771	0	0
2024-08-03 08:26:47			0	36393	0	0	0	29348	27980	168637	26902	1065041	45812	110914	0	0	8019	604771	0	0
2024-08-03 08:27:47			0	36398	0	0	0	29361	27980	168625	27203	1065068	45800	110919	0	0	8019	604565	0	0
2024-08-03 08:28:47			0	36388	0	0	0	29366	27980	168605	27013	1065104	45801	110921	0	0	8018	604977	0	0
2024-08-03 08:29:47			0	36413	0	0	0	29386	27980	168541	26908	1065104	45824	110929	0	0	8019	603947	0	0
2024-08-03 08:30:47			0	36429	0	0	0	29392	27980	168465	26639	1065185	45824	110931	0	0	8020	603288	0	0
2024-08-03 08:31:47			0	36433	0	0	0	29389	27990	168413	26986	1065122	45825	110930	0	0	8020	603088	0	0
2024-08-03 08:32:47			0	36442	0	0	0	29399	27990	168353	27066	1065122	45802	110934	0	0	8021	602718	0	0
2024-08-03 08:33:47			0	36425	0	0	0	29394	27980	168481	26722	1065131	45813	110932	0	0	8020	603452	0	0
2024-08-03 08:34:47			0	36434	0	0	0	29399	27990	168417	26814	1065176	45814	110934	0	0	8020	603047	0	0
2024-08-03 08:35:47			0	36424	0	0	0	29397	28000	168593	26772	1065239	45826	110933	0	0	8020	603424	0	0
2024-08-03 08:36:47			0	36403	0	0	0	29407	27990	168517	26875	1065257	45814	110937	0	0	8018	604324	0	0
2024-08-03 08:37:47			0	36413	0	0	0	29402	27990	168685	26830	1065221	45802	110935	0	0	8019	603912	0	0
2024-08-03 08:38:47			0	36391	0	0	0	29405	27990	168597	26765	1065248	45814	110936	0	0	8018	604819	0	0
2024-08-03 08:39:47			0	36396	0	0	0	29410	27990	168685	26790	1065284	45802	110938	0	0	8018	604613	0	0
2024-08-03 08:40:47			0	36382	0	0	0	29392	27990	168641	26698	1065230	45802	110931	0	0	8017	605190	0	0
2024-08-03 08:41:47			0	36370	0	0	0	29386	27990	168645	27095	1065167	45791	110929	0	0	8017	605685	0	0
2024-08-03 08:42:47			0	36378	0	0	0	29371	27990	168737	26890	1065248	45802	110923	0	0	8018	605355	0	0
2024-08-03 08:43:47			0	36375	0	0	0	29366	27970	168721	26942	1065023	45800	110921	0	0	8017	605549	0	0
2024-08-03 08:44:47			0	36375	0	0	0	29366	27980	168705	26889	1065068	45812	110921	0	0	8017	605514	0	0
2024-08-03 08:45:47			0	36367	0	0	0	29376	27960	168797	27085	1065176	45799	110925	0	0	8017	605914	0	0
2024-08-03 08:46:47			0	36362	0	0	0	29374	27980	168737	26816	1065068	45800	110924	0	0	8016	606051	0	0
2024-08-03 08:47:47			0	36366	0	0	0	29384	27980	168841	27201	1065131	45824	110928	0	0	8017	605885	0	0
2024-08-03 08:48:47			0	36372	0	0	0	29386	27970	168837	27140	1065131	45812	110929	0	0	8017	605673	0	0
2024-08-03 08:49:47			0	36379	0	0	0	29384	27980	168817	27027	1065095	45812	110928	0	0	8017	605349	0	0
2024-08-03 08:50:47			0	36343	0	0	0	29376	27980	168965	26922	1065077	45801	110925	0	0	8015	606836	0	0
2024-08-03 08:51:47			0	36328	0	0	0	29361	27970	168913	27137	1065050	45800	110919	0	0	8015	607491	0	0
2024-08-03 08:52:47			0	36339	0	0	0	29363	27960	168945	27105	1065041	45799	110920	0	0	8015	607071	0	0
2024-08-03 08:53:47			0	36349	0	0	0	29358	27960	169033	26856	1065014	45811	110918	0	0	8016	606658	0	0
2024-08-03 08:54:47			0	36335	0	0	0	29353	27960	168945	26899	1065005	45810	110916	0	0	8015	607237	0	0
2024-08-03 08:55:47			0	36296	0	0	0	29348	27950	169169	26949	1065023	45810	110914	0	0	8013	608886	0	0
2024-08-03 08:56:47			0	36267	0	0	0	29355	27960	169305	27072	1065005	45810	110917	0	0	8011	610054	0	0
2024-08-03 08:57:47			0	36256	0	0	0	29358	27960	169461	26935	1064934	45799	110918	0	0	8010	610510	0	0
2024-08-03 08:58:47			0	36289	0	0	0	29353	27950	169245	26387	1064970	45810	110916	0	0	8012	609176	0	0
2024-08-03 08:59:47			0	36305	0	0	0	29355	27950	169197	26715	1064961	45810	110917	0	0	8013	608513	0	0
2024-08-03 09:00:47			0	36318	0	0	0	29358	27950	169045	26804	1065050	45798	110918	0	0	8014	607975	0	0
2024-08-03 09:01:47			0	36345	0	0	0	29355	27960	168921	26994	1065014	45822	110917	0	0	8016	606823	0	0
2024-08-03 09:02:47			0	36348	0	0	0	29363	27960	168917	26979	1065032	45798	110920	0	0	8016	606699	0	0
2024-08-03 09:03:47			0	36348	0	0	0	29363	27960	169041	26755	1065086	45821	110920	0	0	8016	606699	0	0
2024-08-03 09:04:47			0	36372	0	0	0	29363	27950	168889	26785	1064996	45788	110920	0	0	8017	605742	0	0
2024-08-03 09:05:47			0	36357	0	0	0	29350	27950	168721	26618	1064996	45810	110915	0	0	8016	606362	0	0
2024-08-03 09:06:47			0	36360	0	0	0	29358	27950	168793	26889	1065050	45798	110918	0	0	8016	606238	0	0
2024-08-03 09:07:47			0	36348	0	0	0	29368	27960	168897	26790	1065068	45811	110922	0	0	8016	606699	0	0
2024-08-03 09:08:47			0	36339	0	0	0	29374	27960	168845	26840	1065059	45810	110924	0	0	8015	607071	0	0
2024-08-03 09:09:47			0	36370	0	0	0	29363	27970	168777	27036	1065050	45800	110920	0	0	8017	605755	0	0
2024-08-03 09:10:47			0	36394	0	0	0	29368	27960	168765	26849	1065113	45821	110922	0	0	8018	604800	0	0
2024-08-03 09:11:47			0	36391	0	0	0	29366	27960	168681	26864	1065059	45810	110921	0	0	8018	604923	0	0
2024-08-03 09:12:47			0	36405	0	0	0	29374	27950	168589	26845	1065023	45810	110924	0	0	8019	604381	0	0
2024-08-03 09:13:47			0	36411	0	0	0	29366	27960	168661	26769	1065059	45798	110921	0	0	8019	604099	0	0
2024-08-03 09:14:47			0	36422	0	0	0	29366	27970	168601	26653	1065077	45812	110921	0	0	8020	603611	0	0
2024-08-03 09:15:47			0	36425	0	0	0	29371	27970	168553	26849	1065104	45800	110923	0	0	8020	603487	0	0
2024-08-03 09:16:47			0	36440	0	0	0	29376	27960	168557	26816	1065041	45822	110925	0	0	8021	602904	0	0
2024-08-03 09:17:47			0	36435	0	0	0	29374	27960	168589	26785	1065059	45810	110924	0	0	8021	603110	0	0
2024-08-03 09:18:47			0	36407	0	0	0	29381	27970	168709	26755	1065104	45823	110927	0	0	8019	604229	0	0
2024-08-03 09:19:47			0	36440	0	0	0	29374	27960	168525	26915	1065068	45833	110924	0	0	8021	602904	0	0
2024-08-03 09:20:47			0	36419	0	0	0	29376	27960	168589	26762	1065068	45811	110925	0	0	8020	603769	0	0
2024-08-03 09:21:47			0	36404	0	0	0	29371	27970	168581	26590	1065131	45800	110923	0	0	8019	604352	0	0
2024-08-03 09:22:47			0	36406	0	0	0	29379	27980	168657	26771	1065104	45813	110926	0	0	8019	604235	0	0
2024-08-03 09:23:47			0	36367	0	0	0	29381	27980	168725	26627	1065176	45800	110927	0	0	8017	605844	0	0
2024-08-03 09:24:47			0	36372	0	0	0	29374	27970	168601	26736	1065131	45812	110924	0	0	8017	605673	0	0
2024-08-03 09:25:47			0	36397	0	0	0	29384	27980	168729	26705	1065077	45813	110928	0	0	8018	604606	0	0
2024-08-03 09:26:47			0	36400	0	0	0	29386	27980	168753	26743	1065104	45813	110929	0	0	8019	604482	0	0
2024-08-03 09:27:47			0	36378	0	0	0	29389	27980	168745	26703	1065176	45823	110930	0	0	8017	605390	0	0
2024-08-03 09:28:47			0	36386	0	0	0	29392	27970	168809	26745	1065158	45812	110931	0	0	8018	605095	0	0
2024-08-03 09:29:47			0	36373	0	0	0	29386	27970	168881	26682	1065158	45812	110929	0	0	8017	605631	0	0
2024-08-03 09:30:47			0	36357	0	0	0	29384	27980	168829	26715	1065104	45813	110928	0	0	8016	606257	0	0
2024-08-03 09:31:47			0	36361	0	0	0	29392	27970	168861	26748	1065104	45812	110931	0	0	8016	606127	0	0
2024-08-03 09:32:47			0	36367	0	0	0	29386	27980	168833	26889	1065212	45813	110929	0	0	8017	605844	0	0
2024-08-03 09:33:47			0	36374	0	0	0	29392	27980	168733	26717	1065149	45812	110931	0	0	8017	605555	0	0
2024-08-03 09:34:47			0	36377	0	0	0	29386	27980	168785	26715	1065158	45801	110929	0	0	8017	605431	0	0
2024-08-03 09:35:47			0	36351	0	0	0	29389	27980	168881	27053	1065176	45823	110930	0	0	8016	606505	0	0
2024-08-03 09:36:47			0	36350	0	0	0	29386	27990	168921	26911	1065248	45802	110929	0	0	8016	606512	0	0
2024-08-03 09:37:47			0	36354	0	0	0	29392	27980	168757	26595	1065176	45800	110931	0	0	8016	606381	0	0
2024-08-03 09:38:47			0	36353	0	0	0	29389	27990	168893	26677	1065140	45814	110930	0	0	8016	606387	0	0
2024-08-03 09:39:47			0	36369	0	0	0	29397	27990	168865	26741	1065167	45814	110933	0	0	8017	605727	0	0
2024-08-03 09:40:47			0	36360	0	0	0	29392	27990	168749	26691	1065113	45825	110931	0	0	8016	606098	0	0
2024-08-03 09:41:47			0	36376	0	0	0	29394	27990	168721	26804	1065167	45814	110932	0	0	8017	605438	0	0
2024-08-03 09:42:47			0	36386	0	0	0	29386	27980	168745	26505	1065212	45824	110929	0	0	8018	605060	0	0
2024-08-03 09:43:47			0	36385	0	0	0	29389	27980	168629	26535	1065212	45813	110930	0	0	8018	605101	0	0
2024-08-03 09:44:47			0	36372	0	0	0	29379	27980	168717	26850	1065239	45813	110926	0	0	8017	605638	0	0
2024-08-03 09:45:47			0	36372	0	0	0	29381	27980	168849	26859	1065131	45801	110927	0	0	8017	605638	0	0
2024-08-03 09:46:47			0	36374	0	0	0	29392	27980	168721	26580	1065149	45800	110931	0	0	8017	605555	0	0
2024-08-03 09:47:47			0	36363	0	0	0	29379	27990	168773	26871	1065113	45802	110926	0	0	8016	605974	0	0
2024-08-03 09:48:47			0	36379	0	0	0	29386	27980	168833	26505	1065185	45824	110929	0	0	8017	605349	0	0
2024-08-03 09:49:47			0	36344	0	0	0	29384	27980	168877	26611	1065131	45813	110928	0	0	8015	606794	0	0
2024-08-03 09:50:47			0	36350	0	0	0	29368	27980	168881	26779	1065212	45801	110922	0	0	8016	606546	0	0
2024-08-03 09:51:47			0	36331	0	0	0	29374	27980	168965	26894	1065104	45801	110924	0	0	8015	607332	0	0
2024-08-03 09:52:47			0	36317	0	0	0	29376	27980	169041	26576	1065104	45791	110925	0	0	8014	607911	0	0
2024-08-03 09:53:47			0	36312	0	0	0	29376	27980	169109	26802	1065149	45800	110925	0	0	8013	608118	0	0
2024-08-03 09:54:47			0	36254	0	0	0	29379	27980	169385	26620	1065122	45800	110926	0	0	8010	610523	0	0
2024-08-03 09:55:47			0	36216	0	0	0	29374	27980	169521	26566	1065203	45800	110924	0	0	8008	612102	0	0
2024-08-03 09:56:47			0	36190	0	0	0	29384	27970	169561	26772	1065212	45812	110928	0	0	8006	613220	0	0
2024-08-03 09:57:47			0	36167	0	0	0	29392	27970	169633	26715	1065158	45823	110931	0	0	8004	614178	0	0
2024-08-03 09:58:47			0	36152	0	0	0	29394	27990	169701	26960	1065248	45814	110932	0	0	8004	614733	0	0
2024-08-03 09:59:47			0	36128	0	0	0	29397	27990	169897	26811	1065203	45814	110933	0	0	8002	615735	0	0
2024-08-03 10:00:47			0	36124	0	0	0	29407	27990	169909	27007	1065248	45825	110937	0	0	8002	615902	0	0
2024-08-03 10:01:47			0	36123	0	0	0	29415	28000	169817	26871	1065328	45826	110940	0	0	8002	615908	0	0
2024-08-03 10:02:47			0	36119	0	0	0	29415	27990	169929	26675	1065275	45825	110940	0	0	8001	616111	0	0
2024-08-03 10:03:47			0	36115	0	0	0	29425	28000	169881	26963	1065328	45803	110944	0	0	8001	616242	0	0
2024-08-03 10:04:47			0	36134	0	0	0	29425	28000	169825	27104	1065346	45826	110944	0	0	8002	615449	0	0
2024-08-03 10:05:47			0	36148	0	0	0	29425	28010	169829	27022	1065364	45793	110944	0	0	8003	614829	0	0
2024-08-03 10:06:47			0	36171	0	0	0	29425	28010	169673	27114	1065364	45804	110944	0	0	8004	613870	0	0
2024-08-03 10:07:47			0	36149	0	0	0	29431	28020	169705	26835	1065436	45794	110946	0	0	8003	614752	0	0
2024-08-03 10:08:47			0	36147	0	0	0	29431	28010	169789	26823	1065337	45827	110946	0	0	8003	614870	0	0
2024-08-03 10:09:47			0	36135	0	0	0	29433	28010	169837	26922	1065400	45805	110947	0	0	8002	615371	0	0
2024-08-03 10:10:47			0	36141	0	0	0	29436	28010	169849	26911	1065454	45817	110948	0	0	8002	615121	0	0
2024-08-03 10:11:47			0	36126	0	0	0	29438	28030	169845	26965	1065427	45818	110949	0	0	8001	615676	0	0
2024-08-03 10:12:47			0	36153	0	0	0	29444	28020	169749	27015	1065472	45817	110951	0	0	8003	614585	0	0
2024-08-03 10:13:47			0	36157	0	0	0	29431	28020	169733	27130	1065472	45817	110946	0	0	8003	614418	0	0
2024-08-03 10:14:47			0	36163	0	0	0	29441	28020	169541	26887	1065409	45828	110950	0	0	8004	614168	0	0
2024-08-03 10:15:47			0	36176	0	0	0	29451	28030	169645	26901	1065463	45830	110954	0	0	8004	613591	0	0
2024-08-03 10:16:47			0	36164	0	0	0	29457	28030	169565	27178	1065508	45829	110956	0	0	8003	614090	0	0
2024-08-03 10:17:47			0	36186	0	0	0	29462	28040	169637	27126	1065499	45830	110958	0	0	8005	613139	0	0
2024-08-03 10:18:47			0	36175	0	0	0	29470	28030	169645	26613	1065508	45806	110961	0	0	8004	613632	0	0
2024-08-03 10:19:47			0	36215	0	0	0	29475	28040	169393	26745	1065589	45819	110963	0	0	8006	611932	0	0
2024-08-03 10:20:47			0	36226	0	0	0	29475	28040	169361	26890	1065643	45819	110963	0	0	8007	611475	0	0
2024-08-03 10:21:47			0	36214	0	0	0	29485	28050	169445	26733	1065679	45831	110967	0	0	8006	611938	0	0
2024-08-03 10:22:47			0	36202	0	0	0	29483	28060	169409	26720	1065670	45832	110966	0	0	8005	612402	0	0
2024-08-03 10:23:47			0	36212	0	0	0	29490	28060	169473	26925	1065670	45820	110969	0	0	8006	611986	0	0
2024-08-03 10:24:47			0	36218	0	0	0	29480	28050	169289	26977	1065634	45832	110965	0	0	8006	611772	0	0
2024-08-03 10:25:47			0	36215	0	0	0	29483	28060	169353	26948	1065679	45833	110966	0	0	8006	611861	0	0
2024-08-03 10:26:47			0	36231	0	0	0	29477	28070	169365	26498	1065741	45821	110964	0	0	8007	611161	0	0
2024-08-03 10:27:47			0	36226	0	0	0	29480	28070	169417	26691	1065715	45821	110965	0	0	8007	611369	0	0
2024-08-03 10:28:47			0	36212	0	0	0	29485	28070	169401	26904	1065697	45811	110967	0	0	8006	611951	0	0
2024-08-03 10:29:47			0	36190	0	0	0	29490	28070	169501	26700	1065741	45821	110969	0	0	8005	612866	0	0
2024-08-03 10:30:47			0	36208	0	0	0	29475	28060	169485	27060	1065706	45810	110963	0	0	8006	612152	0	0
2024-08-03 10:31:47			0	36193	0	0	0	29472	28060	169553	26972	1065706	45821	110962	0	0	8005	612776	0	0
2024-08-03 10:32:47			0	36176	0	0	0	29477	28070	169557	27064	1065715	45799	110964	0	0	8004	613449	0	0
2024-08-03 10:33:47			0	36158	0	0	0	29467	28070	169653	26863	1065741	45821	110960	0	0	8003	614199	0	0
2024-08-03 10:34:47			0	36133	0	0	0	29483	28070	169713	26984	1065661	45810	110966	0	0	8001	615242	0	0
2024-08-03 10:35:47			0	36120	0	0	0	29477	28060	169713	26835	1065706	45810	110964	0	0	8001	615820	0	0
2024-08-03 10:36:47			0	36149	0	0	0	29493	28070	169773	26941	1065750	45822	110970	0	0	8002	614574	0	0
2024-08-03 10:37:47			0	36139	0	0	0	29496	28070	169661	26795	1065777	45822	110971	0	0	8001	614991	0	0
2024-08-03 10:38:47			0	36129	0	0	0	29509	28080	169677	27019	1065786	45822	110976	0	0	8001	615373	0	0
2024-08-03 10:39:47			0	36118	0	0	0	29483	28080	169761	27095	1065849	45823	110966	0	0	8000	615832	0	0
2024-08-03 10:40:47			0	36123	0	0	0	29477	28080	169861	27237	1065741	45812	110964	0	0	8001	615624	0	0
2024-08-03 10:41:47			0	36109	0	0	0	29480	28080	169901	26977	1065741	45801	110965	0	0	8000	616208	0	0
2024-08-03 10:42:47			0	36067	0	0	0	29464	28070	170089	27052	1065750	45811	110959	0	0	7998	618001	0	0
2024-08-03 10:43:47			0	36040	0	0	0	29472	28070	170197	26798	1065750	45822	110962	0	0	7996	619132	0	0
2024-08-03 10:44:47			0	35973	0	0	0	29462	28070	170393	26745	1065777	45822	110958	0	0	7992	621945	0	0
2024-08-03 10:45:47			0	35973	0	0	0	29472	28070	170485	26604	1065688	45810	110962	0	0	7992	621945	0	0
2024-08-03 10:46:47			0	35939	0	0	0	29467	28070	170577	27050	1065723	45811	110960	0	0	7990	623376	0	0
2024-08-03 10:47:47			0	35921	0	0	0	29464	28070	170801	26904	1065697	45811	110959	0	0	7989	624135	0	0
2024-08-03 10:48:47			0	35894	0	0	0	29483	28070	170757	26779	1065723	45811	110966	0	0	7987	625274	0	0
2024-08-03 10:49:47			0	35896	0	0	0	29483	28070	170933	27170	1065723	45811	110966	0	0	7987	625190	0	0
2024-08-03 10:50:47			0	35877	0	0	0	29480	28070	170953	27036	1065697	45811	110965	0	0	7986	625992	0	0
2024-08-03 10:51:47			0	35863	0	0	0	29472	28080	171005	27057	1065786	45811	110962	0	0	7985	626548	0	0
2024-08-03 10:52:47			0	35877	0	0	0	29485	28070	170993	26817	1065741	45833	110967	0	0	7986	625992	0	0
2024-08-03 10:53:47			0	35876	0	0	0	29480	28080	171061	26821	1065732	45822	110965	0	0	7986	625998	0	0
2024-08-03 10:54:47			0	35861	0	0	0	29477	28070	171177	27000	1065777	45822	110964	0	0	7985	626668	0	0
2024-08-03 10:55:47			0	35861	0	0	0	29475	28070	171157	27100	1065723	45811	110963	0	0	7985	626668	0	0
2024-08-03 10:56:47			0	35851	0	0	0	29470	28080	171144	27095	1065732	45811	110961	0	0	7985	627055	0	0
2024-08-03 10:57:47			0	35853	0	0	0	29467	28070	171064	26961	1065723	45800	110960	0	0	7985	627007	0	0
2024-08-03 10:58:47			0	35845	0	0	0	29467	28070	170988	27121	1065715	45821	110960	0	0	7984	627345	0	0
2024-08-03 10:59:47			0	35845	0	0	0	29454	28070	171040	26837	1065670	45811	110955	0	0	7984	627345	0	0
2024-08-03 11:00:47			0	35871	0	0	0	29454	28060	171077	27079	1065706	45810	110955	0	0	7986	626282	0	0
2024-08-03 11:01:47			0	35844	0	0	0	29451	28070	171068	26649	1065661	45810	110954	0	0	7984	627388	0	0
2024-08-03 11:02:47			0	35854	0	0	0	29431	28060	171040	26554	1065598	45810	110946	0	0	7985	627001	0	0
2024-08-03 11:03:47			0	35845	0	0	0	29431	28060	170960	26712	1065616	45798	110946	0	0	7985	627381	0	0
2024-08-03 11:04:47			0	35881	0	0	0	29431	28050	170897	26871	1065580	45832	110946	0	0	7987	625895	0	0
2024-08-03 11:05:47			0	35865	0	0	0	29449	28060	170932	26922	1065625	45810	110953	0	0	7986	626535	0	0
2024-08-03 11:06:47			0	35865	0	0	0	29454	28060	171053	26717	1065643	45809	110955	0	0	7986	626535	0	0
2024-08-03 11:07:47			0	35875	0	0	0	29441	28060	171049	26928	1065643	45820	110950	0	0	7986	626113	0	0
2024-08-03 11:08:47			0	35882	0	0	0	29457	28060	170997	26909	1065625	45821	110956	0	0	7987	625817	0	0
2024-08-03 11:09:47			0	35886	0	0	0	29459	28060	170969	26734	1065616	45820	110957	0	0	7987	625648	0	0
2024-08-03 11:10:47			0	35904	0	0	0	29446	28060	170881	26663	1065625	45810	110952	0	0	7988	624888	0	0
2024-08-03 11:11:47			0	35902	0	0	0	29441	28050	170945	26734	1065553	45809	110950	0	0	7988	625009	0	0
2024-08-03 11:12:47			0	35907	0	0	0	29446	28050	170961	26906	1065598	45831	110952	0	0	7988	624797	0	0
2024-08-03 11:13:47			0	35924	0	0	0	29431	28060	170809	26897	1065535	45798	110946	0	0	7990	624045	0	0
2024-08-03 11:14:47			0	35927	0	0	0	29441	28050	170801	26981	1065571	45820	110950	0	0	7990	623954	0	0
2024-08-03 11:15:47			0	35938	0	0	0	29444	28050	170681	27173	1065607	45809	110951	0	0	7990	623490	0	0
2024-08-03 11:16:47			0	35936	0	0	0	29446	28050	170749	27026	1065607	45809	110952	0	0	7990	623575	0	0
2024-08-03 11:17:47			0	35949	0	0	0	29446	28050	170577	27092	1065598	45808	110952	0	0	7991	623027	0	0
2024-08-03 11:18:47			0	35967	0	0	0	29451	28060	170629	26984	1065508	45820	110954	0	0	7992	622234	0	0
2024-08-03 11:19:47			0	35968	0	0	0	29444	28050	170573	27027	1065625	45808	110951	0	0	7992	622227	0	0
2024-08-03 11:20:47			0	35953	0	0	0	29444	28040	170569	27104	1065589	45807	110951	0	0	7991	622895	0	0
2024-08-03 11:21:47			0	35951	0	0	0	29446	28050	170809	27043	1065598	45808	110952	0	0	7991	622943	0	0
2024-08-03 11:22:47			0	35943	0	0	0	29438	28050	170781	26694	1065598	45831	110949	0	0	7991	623280	0	0
2024-08-03 11:23:47			0	35908	0	0	0	29444	28050	170813	27000	1065571	45808	110951	0	0	7988	624755	0	0
2024-08-03 11:24:47			0	35880	0	0	0	29438	28040	170945	27046	1065589	45807	110949	0	0	7987	625974	0	0
2024-08-03 11:25:47			0	35908	0	0	0	29441	28050	170977	26649	1065598	45820	110950	0	0	7988	624755	0	0
2024-08-03 11:26:47			0	35872	0	0	0	29454	28050	171145	27211	1065544	45797	110955	0	0	7986	626276	0	0
2024-08-03 11:27:47			0	35859	0	0	0	29441	28050	171169	26722	1065625	45820	110950	0	0	7985	626825	0	0
2024-08-03 11:28:47			0	35849	0	0	0	29436	28040	171228	26684	1065562	45807	110948	0	0	7985	627285	0	0
2024-08-03 11:29:47			0	35821	0	0	0	29441	28050	171296	26819	1065598	45820	110950	0	0	7983	628434	0	0
2024-08-03 11:30:47			0	35819	0	0	0	29441	28040	171328	26830	1065616	45796	110950	0	0	7983	628555	0	0
2024-08-03 11:31:47			0	35808	0	0	0	29444	28040	171360	27067	1065616	45819	110951	0	0	7982	629021	0	0
2024-08-03 11:32:47			0	35796	0	0	0	29444	28050	171544	26847	1065625	45820	110951	0	0	7982	629494	0	0
2024-08-03 11:33:47			0	35812	0	0	0	29441	28050	171384	26750	1065607	45832	110950	0	0	7983	628815	0	0
2024-08-03 11:34:47			0	35795	0	0	0	29433	28050	171336	26913	1065598	45808	110947	0	0	7982	629536	0	0
2024-08-03 11:35:47			0	35801	0	0	0	29431	28050	171504	26722	1065607	45798	110946	0	0	7982	629282	0	0
2024-08-03 11:36:47			0	35810	0	0	0	29433	28040	171408	26569	1065562	45796	110947	0	0	7983	628936	0	0
2024-08-03 11:37:47			0	35808	0	0	0	29433	28040	171312	26901	1065580	45796	110947	0	0	7982	629021	0	0
2024-08-03 11:38:47			0	35827	0	0	0	29428	28040	171328	26644	1065508	45807	110945	0	0	7984	628216	0	0
2024-08-03 11:39:47			0	35827	0	0	0	29436	28030	171244	26741	1065463	45819	110948	0	0	7983	628252	0	0
2024-08-03 11:40:47			0	35819	0	0	0	29444	28040	171316	26644	1065499	45830	110951	0	0	7983	628555	0	0
2024-08-03 11:41:47			0	35816	0	0	0	29446	28040	171232	26663	1065580	45807	110952	0	0	7983	628682	0	0
2024-08-03 11:42:47			0	35789	0	0	0	29451	28040	171396	26863	1065616	45807	110954	0	0	7981	629827	0	0
2024-08-03 11:43:47			0	35789	0	0	0	29462	28040	171548	26849	1065589	45830	110958	0	0	7981	629827	0	0
2024-08-03 11:44:47			0	35780	0	0	0	29454	28030	171520	26746	1065598	45819	110955	0	0	7980	630246	0	0
2024-08-03 11:45:47			0	35768	0	0	0	29449	28050	171664	26542	1065634	45820	110953	0	0	7980	630683	0	0
2024-08-03 11:46:47			0	35778	0	0	0	29441	28050	171480	26597	1065598	45797	110950	0	0	7980	630258	0	0
2024-08-03 11:47:47			0	35828	0	0	0	29441	28050	171280	26368	1065634	45798	110950	0	0	7984	628137	0	0
2024-08-03 11:48:47			0	35872	0	0	0	29441	28050	171053	26661	1065526	45798	110950	0	0	7986	626276	0	0
2024-08-03 11:49:47			0	35932	0	0	0	29433	28050	170737	26880	1065598	45797	110947	0	0	7990	623743	0	0
2024-08-03 11:50:47			0	36012	0	0	0	29423	28040	170421	26958	1065499	45796	110943	0	0	7995	620414	0	0
2024-08-03 11:51:47			0	36036	0	0	0	29423	28040	170405	26649	1065499	45819	110943	0	0	7996	619407	0	0
2024-08-03 11:52:47			0	36074	0	0	0	29418	28030	170193	26733	1065535	45806	110941	0	0	7999	617850	0	0
2024-08-03 11:53:47			0	36056	0	0	0	29428	28040	170225	26996	1065445	45807	110945	0	0	7997	618568	0	0
2024-08-03 11:54:47			0	36031	0	0	0	29431	28040	170253	26557	1065553	45807	110946	0	0	7996	619617	0	0
2024-08-03 11:55:47			0	36020	0	0	0	29425	28030	170269	26741	1065571	45819	110944	0	0	7995	620114	0	0
2024-08-03 11:56:47			0	36008	0	0	0	29425	28030	170337	26765	1065481	45818	110944	0	0	7995	620618	0	0
2024-08-03 11:57:47			0	36007	0	0	0	29425	28030	170421	26779	1065481	45795	110944	0	0	7995	620660	0	0
2024-08-03 11:58:47			0	35990	0	0	0	29438	28040	170409	26759	1065508	45819	110949	0	0	7993	621338	0	0
2024-08-03 11:59:47			0	35998	0	0	0	29431	28030	170533	26979	1065454	45818	110946	0	0	7994	621038	0	0
2024-08-03 12:00:47			0	35995	0	0	0	29436	28030	170545	26684	1065571	45819	110948	0	0	7994	621164	0	0
2024-08-03 12:01:47			0	35979	0	0	0	29433	28030	170537	26838	1065598	45807	110947	0	0	7993	621836	0	0
2024-08-03 12:02:47			0	35988	0	0	0	29436	28030	170613	26916	1065454	45818	110948	0	0	7993	621458	0	0
2024-08-03 12:03:47			0	35991	0	0	0	29441	28040	170565	26748	1065526	45807	110950	0	0	7993	621296	0	0
2024-08-03 12:04:47			0	35984	0	0	0	29444	28040	170593	26883	1065508	45819	110951	0	0	7993	621590	0	0
2024-08-03 12:05:47			0	35983	0	0	0	29433	28030	170593	26986	1065490	45819	110947	0	0	7993	621668	0	0
2024-08-03 12:06:47			0	36000	0	0	0	29441	28040	170553	26791	1065553	45807	110950	0	0	7994	620918	0	0
2024-08-03 12:07:47			0	35994	0	0	0	29441	28040	170597	27157	1065526	45807	110950	0	0	7994	621170	0	0
2024-08-03 12:08:47			0	36000	0	0	0	29451	28030	170629	26890	1065544	45807	110954	0	0	7994	620954	0	0
2024-08-03 12:09:47			0	35992	0	0	0	29449	28040	170593	26873	1065508	45830	110953	0	0	7993	621254	0	0
2024-08-03 12:10:47			0	35999	0	0	0	29446	28040	170497	26713	1065580	45819	110952	0	0	7994	620960	0	0
2024-08-03 12:11:47			0	35990	0	0	0	29449	28040	170637	26498	1065535	45807	110953	0	0	7993	621338	0	0
2024-08-03 12:12:47			0	35981	0	0	0	29451	28040	170625	26849	1065580	45807	110954	0	0	7993	621716	0	0
2024-08-03 12:13:47			0	35990	0	0	0	29462	28050	170589	26897	1065598	45820	110958	0	0	7993	621302	0	0
2024-08-03 12:14:47			0	36002	0	0	0	29483	28050	170533	26786	1065625	45820	110966	0	0	7993	620798	0	0
2024-08-03 12:15:47			0	35991	0	0	0	29496	28050	170461	26759	1065768	45832	110971	0	0	7992	621260	0	0
2024-08-03 12:16:47			0	36010	0	0	0	29511	28070	170513	26493	1065715	45833	110977	0	0	7993	620391	0	0
2024-08-03 12:17:47			0	35993	0	0	0	29524	28070	170513	26885	1065876	45833	110982	0	0	7992	621104	0	0
2024-08-03 12:18:47			0	35997	0	0	0	29532	28080	170601	27064	1065867	45822	110985	0	0	7992	620900	0	0
2024-08-03 12:19:47			0	35997	0	0	0	29537	28080	170557	26880	1065903	45823	110987	0	0	7992	620900	0	0
2024-08-03 12:20:47			0	36006	0	0	0	29537	28090	170473	26745	1065912	45823	110987	0	0	7993	620487	0	0
2024-08-03 12:21:47			0	36038	0	0	0	29550	28090	170305	27005	1065885	45834	110992	0	0	7995	619144	0	0
2024-08-03 12:22:47			0	36041	0	0	0	29542	28090	170237	26975	1065948	45846	110989	0	0	7995	619018	0	0
2024-08-03 12:23:47			0	36062	0	0	0	29545	28100	170225	26847	1065984	45825	110990	0	0	7996	618103	0	0
2024-08-03 12:24:47			0	36048	0	0	0	29558	28120	170205	26750	1066038	45837	110995	0	0	7995	618618	0	0
2024-08-03 12:25:47			0	36075	0	0	0	29540	28110	170261	26868	1066056	45826	110988	0	0	7997	617523	0	0
2024-08-03 12:26:47			0	36088	0	0	0	29540	28120	170045	26778	1066047	45838	110988	0	0	7998	616944	0	0
2024-08-03 12:27:47			0	36100	0	0	0	29535	28130	170085	26495	1066082	45838	110986	0	0	7999	616407	0	0
2024-08-03 12:28:47			0	36081	0	0	0	29535	28120	169961	26828	1066073	45816	110986	0	0	7998	617236	0	0
2024-08-03 12:29:47			0	36106	0	0	0	29550	28120	169893	26608	1066127	45827	110992	0	0	7999	616192	0	0
2024-08-03 12:30:47			0	36133	0	0	0	29532	28130	169841	26786	1066145	45839	110985	0	0	8001	615029	0	0
2024-08-03 12:31:47			0	36140	0	0	0	29511	28130	169749	26902	1066109	45816	110977	0	0	8002	614737	0	0
2024-08-03 12:32:47			0	36137	0	0	0	29514	28150	169773	26526	1066037	45818	110978	0	0	8001	614791	0	0
2024-08-03 12:33:47			0	36153	0	0	0	29511	28130	169629	26705	1066118	45828	110977	0	0	8002	614195	0	0
2024-08-03 12:34:47			0	36163	0	0	0	29532	28140	169725	26580	1066082	45829	110985	0	0	8003	613743	0	0
2024-08-03 12:35:47			0	36169	0	0	0	29576	28150	169753	26786	1066199	45818	111002	0	0	8002	613457	0	0
2024-08-03 12:36:47			0	36178	0	0	0	29610	28140	169625	26868	1066208	45839	111015	0	0	8002	613118	0	0
2024-08-03 12:37:47			0	36201	0	0	0	29602	28140	169601	26880	1066325	45851	111012	0	0	8004	612161	0	0
2024-08-03 12:38:47			0	36197	0	0	0	29558	28170	169693	26533	1066316	45831	110995	0	0	8004	612221	0	0
2024-08-03 12:39:47			0	36186	0	0	0	29542	28170	169561	26622	1066235	45831	110989	0	0	8004	612679	0	0
2024-08-03 12:40:47			0	36186	0	0	0	29535	28150	169549	26765	1066208	45830	110986	0	0	8004	612749	0	0
2024-08-03 12:41:47			0	36222	0	0	0	29563	28170	169537	26840	1066208	45820	110997	0	0	8006	611182	0	0
2024-08-03 12:42:47			0	36212	0	0	0	29568	28170	169529	26649	1066262	45820	110999	0	0	8005	611598	0	0
2024-08-03 12:43:47			0	36221	0	0	0	29586	28160	169501	26679	1066298	45841	111006	0	0	8005	611259	0	0
2024-08-03 12:44:47			0	36220	0	0	0	29579	28160	169521	26410	1066253	45842	111003	0	0	8005	611301	0	0
2024-08-03 12:45:47			0	36223	0	0	0	29584	28170	169405	26791	1066316	45842	111005	0	0	8006	611141	0	0
2024-08-03 12:46:47			0	36233	0	0	0	29584	28170	169373	26854	1066325	45821	111005	0	0	8006	610725	0	0
2024-08-03 12:47:47			0	36245	0	0	0	29599	28180	169493	26807	1066316	45822	111011	0	0	8007	610192	0	0
2024-08-03 12:48:47			0	36223	0	0	0	29602	28170	169425	26771	1066352	45832	111012	0	0	8005	611141	0	0
2024-08-03 12:49:47			0	36236	0	0	0	29602	28180	169397	26769	1066397	45822	111012	0	0	8006	610566	0	0
2024-08-03 12:50:47			0	36236	0	0	0	29592	28190	169337	26672	1066379	45822	111008	0	0	8006	610530	0	0
2024-08-03 12:51:47			0	36251	0	0	0	29586	28190	169385	26837	1066442	45823	111006	0	0	8007	609908	0	0
2024-08-03 12:52:47			0	36242	0	0	0	29599	28180	169365	26713	1066316	45833	111011	0	0	8006	610317	0	0
2024-08-03 12:53:47			0	36243	0	0	0	29592	28190	169277	26771	1066361	45833	111008	0	0	8007	610240	0	0
2024-08-03 12:54:47			0	36262	0	0	0	29602	28210	169261	26663	1066442	45825	111012	0	0	8008	609382	0	0
2024-08-03 12:55:47			0	36265	0	0	0	29602	28210	169233	26863	1066442	45835	111012	0	0	8008	609257	0	0
2024-08-03 12:56:47			0	36257	0	0	0	29597	28190	169285	26844	1066388	45833	111010	0	0	8007	609659	0	0
2024-08-03 12:57:47			0	36244	0	0	0	29607	28200	169221	26852	1066478	45824	111014	0	0	8007	610163	0	0
2024-08-03 12:58:47			0	36277	0	0	0	29620	28210	169233	26863	1066523	45825	111019	0	0	8008	608760	0	0
2024-08-03 12:59:47			0	36246	0	0	0	29628	28200	169317	26602	1066451	45834	111022	0	0	8006	610080	0	0
2024-08-03 13:00:47			0	36265	0	0	0	29625	28210	169277	26875	1066549	45825	111021	0	0	8008	609257	0	0
2024-08-03 13:01:47			0	36272	0	0	0	29620	28210	169205	26854	1066478	45835	111019	0	0	8008	608967	0	0
2024-08-03 13:02:47			0	36278	0	0	0	29628	28210	169337	26757	1066505	45835	111022	0	0	8008	608719	0	0
2024-08-03 13:03:47			0	36269	0	0	0	29651	28220	169229	26828	1066567	45848	111031	0	0	8007	609056	0	0
2024-08-03 13:04:47			0	36278	0	0	0	29662	28230	169381	26885	1066639	45827	111035	0	0	8008	608648	0	0
2024-08-03 13:05:47			0	36283	0	0	0	29667	28220	169289	26876	1066603	45836	111037	0	0	8008	608476	0	0
2024-08-03 13:06:47			0	36263	0	0	0	29664	28240	169221	26833	1066630	45838	111036	0	0	8007	609235	0	0
2024-08-03 13:07:47			0	36265	0	0	0	29662	28240	169225	26953	1066711	45828	111035	0	0	8007	609152	0	0
2024-08-03 13:08:47			0	36260	0	0	0	29662	28240	169221	26694	1066711	45828	111035	0	0	8007	609359	0	0
2024-08-03 13:09:47			0	36262	0	0	0	29672	28250	169181	26994	1066729	45851	111039	0	0	8007	609241	0	0
2024-08-03 13:10:47			0	36264	0	0	0	29693	28240	169197	26896	1066720	45829	111047	0	0	8006	609193	0	0
2024-08-03 13:11:47			0	36255	0	0	0	29698	28250	169145	26817	1066819	45851	111049	0	0	8006	609531	0	0
2024-08-03 13:12:47			0	36258	0	0	0	29727	28270	169169	26878	1066873	45841	111060	0	0	8006	609336	0	0
2024-08-03 13:13:47			0	36284	0	0	0	29729	28270	169149	26733	1066900	45853	111061	0	0	8007	608259	0	0
2024-08-03 13:14:47			0	36272	0	0	0	29727	28280	169197	27085	1066972	45854	111060	0	0	8007	608721	0	0
2024-08-03 13:15:47			0	36283	0	0	0	29722	28300	169141	26845	1067008	45833	111058	0	0	8007	608195	0	0
2024-08-03 13:16:47			0	36292	0	0	0	29729	28290	169137	27059	1067053	45844	111061	0	0	8008	607858	0	0
2024-08-03 13:17:47			0	36288	0	0	0	29745	28300	169113	26791	1067071	45857	111067	0	0	8007	607989	0	0
2024-08-03 13:18:47			0	36278	0	0	0	29763	28310	169169	26852	1067170	45846	111074	0	0	8006	608367	0	0
2024-08-03 13:19:47			0	36303	0	0	0	29781	28320	169085	26951	1067187	45858	111081	0	0	8008	607298	0	0
2024-08-03 13:20:47			0	36277	0	0	0	29789	28330	169077	26854	1067277	45859	111084	0	0	8006	608338	0	0
2024-08-03 13:21:47			0	36281	0	0	0	29779	28340	168985	26857	1067304	45849	111080	0	0	8007	608138	0	0
2024-08-03 13:22:47			0	36286	0	0	0	29789	28350	168997	26693	1067259	45861	111084	0	0	8007	607896	0	0
2024-08-03 13:23:47			0	36280	0	0	0	29794	28350	169049	26878	1067349	45850	111086	0	0	8006	608144	0	0
2024-08-03 13:24:47			0	36271	0	0	0	29786	28360	169137	26935	1067439	45839	111083	0	0	8006	608481	0	0
2024-08-03 13:25:47			0	36283	0	0	0	29755	28370	169021	26927	1067439	45853	111071	0	0	8007	607949	0	0
2024-08-03 13:26:47			0	36286	0	0	0	29763	28370	168953	27088	1067349	45841	111074	0	0	8007	607825	0	0
2024-08-03 13:27:47			0	36271	0	0	0	29820	28370	169005	27050	1067493	45864	111096	0	0	8005	608446	0	0
2024-08-03 13:28:47			0	36288	0	0	0	29820	28380	169017	26901	1067502	45853	111096	0	0	8006	607707	0	0
2024-08-03 13:29:47			0	36288	0	0	0	29841	28380	168937	26798	1067538	45853	111104	0	0	8006	607707	0	0
2024-08-03 13:30:47			0	36308	0	0	0	29818	28400	168925	26885	1067583	45866	111095	0	0	8008	606811	0	0
2024-08-03 13:31:47			0	36312	0	0	0	29823	28400	169001	26951	1067538	45866	111097	0	0	8008	606645	0	0
2024-08-03 13:32:47			0	36309	0	0	0	29818	28410	168973	26724	1067583	45867	111095	0	0	8008	606734	0	0
2024-08-03 13:33:47			0	36291	0	0	0	29833	28410	168817	27000	1067601	45843	111101	0	0	8007	607478	0	0
2024-08-03 13:34:47			0	36314	0	0	0	29849	28410	168929	26913	1067637	45856	111107	0	0	8008	606528	0	0
2024-08-03 13:35:47			0	36317	0	0	0	29849	28420	168833	27022	1067673	45868	111107	0	0	8008	606369	0	0
2024-08-03 13:36:47			0	36328	0	0	0	29854	28420	168905	27159	1067619	45845	111109	0	0	8008	605915	0	0
2024-08-03 13:37:47			0	36334	0	0	0	29851	28430	168889	26906	1067637	45845	111108	0	0	8009	605632	0	0
2024-08-03 13:38:47			0	36346	0	0	0	29854	28430	168781	26967	1067691	45834	111109	0	0	8010	605137	0	0
2024-08-03 13:39:47			0	36336	0	0	0	29857	28430	168741	26906	1067727	45846	111110	0	0	8009	605550	0	0
2024-08-03 13:40:47			0	36337	0	0	0	29846	28440	168661	26842	1067718	45871	111106	0	0	8009	605473	0	0
2024-08-03 13:41:47			0	36357	0	0	0	29836	28440	168661	27015	1067682	45847	111102	0	0	8011	604649	0	0
2024-08-03 13:42:47			0	36349	0	0	0	29831	28440	168745	26712	1067682	45847	111100	0	0	8010	604979	0	0
2024-08-03 13:43:47			0	36344	0	0	0	29836	28440	168645	26955	1067709	45859	111102	0	0	8010	605185	0	0
2024-08-03 13:44:47			0	36349	0	0	0	29836	28440	168681	26778	1067691	45848	111102	0	0	8010	604979	0	0
2024-08-03 13:45:47			0	36343	0	0	0	29831	28430	168681	27135	1067646	45846	111100	0	0	8010	605261	0	0
2024-08-03 13:46:47			0	36364	0	0	0	29820	28440	168617	26743	1067655	45847	111096	0	0	8011	604360	0	0
2024-08-03 13:47:47			0	36357	0	0	0	29820	28450	168661	27098	1067700	45837	111096	0	0	8011	604614	0	0
2024-08-03 13:48:47			0	36379	0	0	0	29823	28440	168597	26769	1067718	45848	111097	0	0	8012	603743	0	0
2024-08-03 13:49:47			0	36365	0	0	0	29828	28440	168485	26691	1067718	45848	111099	0	0	8011	604319	0	0
2024-08-03 13:50:47			0	36374	0	0	0	29823	28440	168625	26783	1067709	45847	111097	0	0	8012	603949	0	0
2024-08-03 13:51:47			0	36389	0	0	0	29841	28440	168529	27043	1067691	45848	111104	0	0	8012	603331	0	0
2024-08-03 13:52:47			0	36402	0	0	0	29828	28440	168521	26944	1067718	45848	111099	0	0	8013	602797	0	0
2024-08-03 13:53:47			0	36403	0	0	0	29836	28440	168373	27017	1067664	45860	111102	0	0	8013	602755	0	0
2024-08-03 13:54:47			0	36419	0	0	0	29844	28450	168397	27234	1067727	45837	111105	0	0	8014	602063	0	0
2024-08-03 13:55:47			0	36413	0	0	0	29828	28450	168457	26627	1067753	45860	111099	0	0	8014	602310	0	0
2024-08-03 13:56:47			0	36380	0	0	0	29833	28440	168549	27020	1067718	45837	111101	0	0	8012	603702	0	0
2024-08-03 13:57:47			0	36315	0	0	0	29820	28450	168737	26927	1067700	45848	111096	0	0	8008	606346	0	0
2024-08-03 13:58:47			0	36289	0	0	0	29815	28440	168989	27074	1067601	45859	111094	0	0	8007	607455	0	0
2024-08-03 13:59:47			0	36245	0	0	0	29812	28430	169117	26882	1067673	45846	111093	0	0	8004	609311	0	0
2024-08-03 14:00:47			0	36188	0	0	0	29805	28440	169289	26831	1067628	45836	111090	0	0	8001	611641	0	0
2024-08-03 14:01:47			0	36167	0	0	0	29807	28430	169553	26932	1067646	45846	111091	0	0	8000	612549	0	0
2024-08-03 14:02:47			0	36144	0	0	0	29812	28430	169557	26778	1067700	45846	111093	0	0	7998	613506	0	0
2024-08-03 14:03:47			0	36131	0	0	0	29823	28440	169737	26960	1067691	45871	111097	0	0	7997	614011	0	0
2024-08-03 14:04:47			0	36134	0	0	0	29825	28430	169709	26953	1067673	45858	111098	0	0	7997	613922	0	0
2024-08-03 14:05:47			0	36116	0	0	0	29836	28450	169797	26837	1067789	45860	111102	0	0	7996	614601	0	0
2024-08-03 14:06:47			0	36122	0	0	0	29828	28450	169681	26906	1067762	45837	111099	0	0	7997	614351	0	0
2024-08-03 14:07:47			0	36158	0	0	0	29805	28450	169569	26863	1067727	45837	111090	0	0	7999	612852	0	0
2024-08-03 14:08:47			0	36188	0	0	0	29807	28450	169425	26904	1067709	45848	111091	0	0	8001	611605	0	0
2024-08-03 14:09:47			0	36216	0	0	0	29815	28450	169273	27033	1067735	45848	111094	0	0	8003	610443	0	0
2024-08-03 14:10:47			0	36194	0	0	0	29831	28440	169357	27121	1067718	45871	111100	0	0	8001	611391	0	0
2024-08-03 14:11:47			0	36188	0	0	0	29820	28450	169389	26696	1067762	45848	111096	0	0	8001	611605	0	0
2024-08-03 14:12:47			0	36192	0	0	0	29815	28450	169341	26963	1067735	45860	111094	0	0	8001	611439	0	0
2024-08-03 14:13:47			0	36199	0	0	0	29810	28460	169417	26842	1067744	45849	111092	0	0	8002	611113	0	0
2024-08-03 14:14:47			0	36199	0	0	0	29812	28460	169389	26717	1067771	45838	111093	0	0	8002	611113	0	0
2024-08-03 14:15:47			0	36216	0	0	0	29797	28450	169393	27031	1067682	45837	111087	0	0	8003	610443	0	0
2024-08-03 14:16:47			0	36189	0	0	0	29792	28440	169365	26970	1067637	45837	111085	0	0	8001	611599	0	0
2024-08-03 14:17:47			0	36192	0	0	0	29789	28430	169381	26920	1067646	45846	111084	0	0	8002	611510	0	0
2024-08-03 14:18:47			0	36167	0	0	0	29781	28430	169517	26791	1067565	45835	111081	0	0	8000	612549	0	0
2024-08-03 14:19:47			0	36178	0	0	0	29774	28430	169569	26838	1067583	45845	111078	0	0	8001	612091	0	0
2024-08-03 14:20:47			0	36162	0	0	0	29768	28430	169549	26701	1067556	45834	111076	0	0	8000	612757	0	0
2024-08-03 14:21:47			0	36151	0	0	0	29763	28420	169629	26649	1067511	45834	111074	0	0	7999	613250	0	0
2024-08-03 14:22:47			0	36140	0	0	0	29755	28420	169637	26915	1067538	45857	111071	0	0	7999	613708	0	0
2024-08-03 14:23:47			0	36150	0	0	0	29745	28400	169761	26710	1067457	45855	111067	0	0	8000	613362	0	0
2024-08-03 14:24:47			0	36145	0	0	0	29753	28410	169633	27026	1067466	45833	111070	0	0	7999	613535	0	0
2024-08-03 14:25:47			0	36163	0	0	0	29755	28410	169669	26511	1067412	45843	111071	0	0	8000	612786	0	0
2024-08-03 14:26:47			0	36121	0	0	0	29745	28400	169681	26904	1067421	45822	111067	0	0	7998	614570	0	0
2024-08-03 14:27:47			0	36137	0	0	0	29753	28400	169761	26908	1067484	45855	111070	0	0	7999	613903	0	0
2024-08-03 14:28:47			0	36123	0	0	0	29758	28390	169813	26840	1067493	45843	111072	0	0	7998	614522	0	0
2024-08-03 14:29:47			0	36129	0	0	0	29771	28410	169925	26674	1067493	45843	111077	0	0	7998	614201	0	0
2024-08-03 14:30:47			0	36108	0	0	0	29768	28410	169841	26719	1067529	45844	111076	0	0	7997	615077	0	0
2024-08-03 14:31:47			0	36116	0	0	0	29784	28400	169725	26961	1067511	45843	111082	0	0	7997	614779	0	0
2024-08-03 14:32:47			0	36131	0	0	0	29784	28410	169745	26797	1067547	45843	111082	0	0	7998	614118	0	0
2024-08-03 14:33:47			0	36152	0	0	0	29802	28400	169621	26736	1067538	45843	111089	0	0	7999	613279	0	0
2024-08-03 14:34:47			0	36190	0	0	0	29810	28400	169497	26712	1067565	45855	111092	0	0	8001	611699	0	0
2024-08-03 14:35:47			0	36179	0	0	0	29831	28410	169585	26833	1067610	45844	111100	0	0	8000	612121	0	0
2024-08-03 14:36:47			0	36194	0	0	0	29836	28410	169493	26644	1067610	45867	111102	0	0	8001	611497	0	0
2024-08-03 14:37:47			0	36179	0	0	0	29818	28430	169469	26455	1067700	45858	111095	0	0	8000	612050	0	0
2024-08-03 14:38:47			0	36217	0	0	0	29797	28430	169325	26844	1067727	45858	111087	0	0	8003	610472	0	0
2024-08-03 14:39:47			0	36252	0	0	0	29776	28430	169189	27067	1067673	45858	111079	0	0	8005	609021	0	0
2024-08-03 14:40:47			0	36271	0	0	0	29779	28430	169001	26764	1067664	45834	111080	0	0	8006	608235	0	0
2024-08-03 14:41:47			0	36274	0	0	0	29805	28430	168941	27045	1067664	45845	111090	0	0	8006	608111	0	0
2024-08-03 14:42:47			0	36287	0	0	0	29823	28430	168893	26708	1067691	45845	111097	0	0	8007	607573	0	0
2024-08-03 14:43:47			0	36316	0	0	0	29815	28420	168993	26807	1067709	45845	111094	0	0	8008	606410	0	0
2024-08-03 14:44:47			0	36304	0	0	0	29825	28430	168789	26554	1067700	45858	111098	0	0	8008	606871	0	0
2024-08-03 14:45:47			0	36313	0	0	0	29831	28430	168805	26896	1067646	45846	111100	0	0	8008	606499	0	0
2024-08-03 14:46:47			0	36314	0	0	0	29825	28440	168945	26578	1067771	45848	111098	0	0	8008	606423	0	0
2024-08-03 14:47:47			0	36343	0	0	0	29838	28450	168777	27145	1067807	45860	111103	0	0	8010	605191	0	0
2024-08-03 14:48:47			0	36356	0	0	0	29849	28450	168597	27078	1067807	45837	111107	0	0	8010	604655	0	0
2024-08-03 14:49:47			0	36341	0	0	0	29851	28450	168645	26935	1067807	45848	111108	0	0	8009	605273	0	0
2024-08-03 14:50:47			0	36387	0	0	0	29854	28450	168477	27001	1067780	45848	111109	0	0	8012	603379	0	0
2024-08-03 14:51:47			0	36399	0	0	0	29844	28450	168373	26948	1067816	45860	111105	0	0	8013	602885	0	0
2024-08-03 14:52:47			0	36428	0	0	0	29849	28450	168345	26819	1067789	45848	111107	0	0	8015	601693	0	0
2024-08-03 14:53:47			0	36433	0	0	0	29859	28450	168129	26753	1067816	45860	111111	0	0	8015	601488	0	0
2024-08-03 14:54:47			0	36501	0	0	0	29841	28460	168029	26661	1067807	45862	111104	0	0	8019	598666	0	0
2024-08-03 14:55:47			0	36507	0	0	0	29833	28450	167913	26816	1067816	45848	111101	0	0	8020	598455	0	0
2024-08-03 14:56:47			0	36522	0	0	0	29838	28460	167793	26701	1067798	45849	111103	0	0	8021	597807	0	0
2024-08-03 14:57:47			0	36547	0	0	0	29838	28460	167697	26826	1067888	45862	111103	0	0	8022	596786	0	0
2024-08-03 14:58:47			0	36515	0	0	0	29849	28460	167833	26665	1067834	45862	111107	0	0	8020	598093	0	0
2024-08-03 14:59:47			0	36465	0	0	0	29825	28460	168093	26722	1067888	45850	111098	0	0	8017	600140	0	0
2024-08-03 15:00:47			0	36453	0	0	0	29805	28450	168237	26668	1067816	45860	111090	0	0	8017	600667	0	0
2024-08-03 15:01:47			0	36420	0	0	0	29805	28460	168225	26944	1067834	45850	111090	0	0	8015	601987	0	0
2024-08-03 15:02:47			0	36362	0	0	0	29763	28450	168357	26868	1067735	45837	111074	0	0	8012	604408	0	0
2024-08-03 15:03:47			0	36354	0	0	0	29753	28460	168557	26833	1067664	45849	111070	0	0	8012	604702	0	0
2024-08-03 15:04:47			0	36287	0	0	0	29745	28450	168845	27003	1067673	45827	111067	0	0	8008	607503	0	0
2024-08-03 15:05:47			0	36251	0	0	0	29771	28440	169185	26821	1067664	45837	111077	0	0	8005	609028	0	0
2024-08-03 15:06:47			0	36193	0	0	0	29799	28430	169165	27041	1067610	45824	111088	0	0	8001	611468	0	0
2024-08-03 15:07:47			0	36188	0	0	0	29828	28440	169341	26772	1067718	45848	111099	0	0	8001	611641	0	0
2024-08-03 15:08:47			0	36184	0	0	0	29828	28440	169325	26772	1067709	45836	111099	0	0	8000	611807	0	0
2024-08-03 15:09:47			0	36175	0	0	0	29823	28440	169377	26844	1067718	45848	111097	0	0	8000	612181	0	0
2024-08-03 15:10:47			0	36173	0	0	0	29823	28430	169349	26904	1067753	45846	111097	0	0	8000	612299	0	0
2024-08-03 15:11:47			0	36171	0	0	0	29794	28440	169281	27052	1067736	45847	111086	0	0	8000	612347	0	0
2024-08-03 15:12:47			0	36183	0	0	0	29810	28430	169341	26823	1067727	45846	111092	0	0	8001	611884	0	0
2024-08-03 15:13:47			0	36195	0	0	0	29823	28450	169189	26934	1067735	45848	111097	0	0	8001	611315	0	0
2024-08-03 15:14:47			0	36231	0	0	0	29823	28450	169061	26715	1067753	45848	111097	0	0	8003	609821	0	0
2024-08-03 15:15:47			0	36267	0	0	0	29815	28450	168981	26653	1067780	45848	111094	0	0	8006	608330	0	0
2024-08-03 15:16:47			0	36296	0	0	0	29818	28440	168725	26693	1067744	45848	111095	0	0	8007	607166	0	0
2024-08-03 15:17:47			0	36330	0	0	0	29789	28450	168713	26656	1067780	45848	111084	0	0	8010	605727	0	0
2024-08-03 15:18:47			0	36367	0	0	0	29781	28450	168573	26819	1067780	45848	111081	0	0	8012	604202	0	0
2024-08-03 15:19:47			0	36382	0	0	0	29786	28440	168417	26897	1067736	45847	111083	0	0	8013	603619	0	0
2024-08-03 15:20:47			0	36375	0	0	0	29807	28450	168433	26674	1067700	45860	111091	0	0	8012	603872	0	0
2024-08-03 15:21:47			0	36408	0	0	0	29841	28440	168465	26817	1067771	45848	111104	0	0	8014	602550	0	0
2024-08-03 15:22:47			0	36425	0	0	0	29862	28440	168333	26703	1067798	45848	111112	0	0	8014	601851	0	0
2024-08-03 15:23:47			0	36438	0	0	0	29838	28460	168225	26783	1067852	45872	111103	0	0	8016	601248	0	0
2024-08-03 15:24:47			0	36461	0	0	0	29841	28460	168097	26809	1067798	45838	111104	0	0	8017	600305	0	0
2024-08-03 15:25:47			0	36468	0	0	0	29823	28450	168021	26457	1067762	45848	111097	0	0	8017	600052	0	0
2024-08-03 15:26:47			0	36491	0	0	0	29774	28450	168057	26835	1067700	45837	111078	0	0	8020	599110	0	0
2024-08-03 15:27:47			0	36457	0	0	0	29766	28450	168157	26769	1067709	45848	111075	0	0	8018	600503	0	0
2024-08-03 15:28:47			0	36406	0	0	0	29740	28440	168373	26554	1067601	45836	111065	0	0	8015	602632	0	0
2024-08-03 15:29:47			0	36348	0	0	0	29729	28430	168605	27069	1067538	45825	111061	0	0	8012	605055	0	0
2024-08-03 15:30:47			0	36317	0	0	0	29753	28430	168781	26847	1067583	45812	111070	0	0	8010	606334	0	0
2024-08-03 15:31:47			0	36275	0	0	0	29789	28410	168985	26594	1067556	45811	111084	0	0	8006	608140	0	0
2024-08-03 15:32:47			0	36256	0	0	0	29771	28420	169005	26896	1067547	45845	111077	0	0	8006	608891	0	0
2024-08-03 15:33:47			0	36248	0	0	0	29784	28420	169061	26897	1067547	45857	111082	0	0	8005	609222	0	0
2024-08-03 15:34:47			0	36242	0	0	0	29781	28420	169073	26531	1067565	45834	111081	0	0	8005	609471	0	0
2024-08-03 15:35:47			0	36267	0	0	0	29812	28410	169057	27076	1067547	45843	111093	0	0	8006	608471	0	0
2024-08-03 15:36:47			0	36259	0	0	0	29807	28420	169081	27138	1067655	45834	111091	0	0	8005	608767	0	0
2024-08-03 15:37:47			0	36283	0	0	0	29794	28430	169029	26967	1067610	45845	111086	0	0	8007	607738	0	0
2024-08-03 15:38:47			0	36285	0	0	0	29797	28420	168985	27140	1067538	45845	111087	0	0	8007	607691	0	0
2024-08-03 15:39:47			0	36295	0	0	0	29818	28420	169021	27177	1067619	45845	111095	0	0	8007	607278	0	0
2024-08-03 15:40:47			0	36328	0	0	0	29815	28420	168785	26795	1067655	45845	111094	0	0	8009	605915	0	0
2024-08-03 15:41:47			0	36351	0	0	0	29820	28420	168577	26804	1067673	45845	111096	0	0	8010	604966	0	0
2024-08-03 15:42:47			0	36369	0	0	0	29818	28430	168601	26703	1067646	45846	111095	0	0	8012	604189	0	0
2024-08-03 15:43:47			0	36383	0	0	0	29825	28420	168593	26955	1067673	45845	111098	0	0	8012	603648	0	0
2024-08-03 15:44:47			0	36408	0	0	0	29828	28430	168565	26882	1067718	45857	111099	0	0	8014	602585	0	0
2024-08-03 15:45:47			0	36411	0	0	0	29818	28430	168409	26852	1067646	45858	111095	0	0	8014	602461	0	0
2024-08-03 15:46:47			0	36454	0	0	0	29805	28430	168313	26743	1067718	45857	111090	0	0	8017	600696	0	0
2024-08-03 15:47:47			0	36515	0	0	0	29812	28420	168065	26842	1067628	45824	111093	0	0	8020	598232	0	0
2024-08-03 15:48:47			0	36523	0	0	0	29815	28430	167933	26644	1067673	45858	111094	0	0	8021	597870	0	0
2024-08-03 15:49:47			0	36582	0	0	0	29794	28420	167746	26791	1067709	45834	111086	0	0	8025	595495	0	0
2024-08-03 15:50:47			0	36614	0	0	0	29805	28430	167570	27003	1067637	45845	111090	0	0	8026	594158	0	0
2024-08-03 15:51:47			0	36608	0	0	0	29810	28420	167686	26840	1067655	45845	111092	0	0	8026	594436	0	0
2024-08-03 15:52:47			0	36609	0	0	0	29828	28430	167494	26847	1067691	45845	111099	0	0	8026	594361	0	0
2024-08-03 15:53:47			0	36636	0	0	0	29836	28420	167438	26750	1067682	45845	111102	0	0	8027	593296	0	0
2024-08-03 15:54:47			0	36626	0	0	0	29841	28430	167418	27138	1067780	45869	111104	0	0	8026	593669	0	0
2024-08-03 15:55:47			0	36645	0	0	0	29841	28440	167342	27338	1067789	45859	111104	0	0	8028	592862	0	0
2024-08-03 15:56:47			0	36643	0	0	0	29838	28440	167382	26899	1067816	45859	111103	0	0	8028	592943	0	0
2024-08-03 15:57:47			0	36658	0	0	0	29846	28440	167374	26767	1067852	45871	111106	0	0	8028	592334	0	0
2024-08-03 15:58:47			0	36670	0	0	0	29805	28450	167314	26831	1067753	45860	111090	0	0	8030	591812	0	0
2024-08-03 15:59:47			0	36651	0	0	0	29820	28440	167414	26680	1067718	45827	111096	0	0	8028	592618	0	0
2024-08-03 16:00:47			0	36640	0	0	0	29828	28440	167290	26641	1067744	45848	111099	0	0	8028	593065	0	0
2024-08-03 16:01:47			0	36646	0	0	0	29810	28440	167270	26845	1067771	45860	111092	0	0	8028	592821	0	0
2024-08-03 16:02:47			0	36675	0	0	0	29802	28440	167174	26771	1067771	45860	111089	0	0	8030	591643	0	0
2024-08-03 16:03:47			0	36684	0	0	0	29805	28440	167042	26972	1067744	45848	111090	0	0	8031	591278	0	0
2024-08-03 16:04:47			0	36698	0	0	0	29799	28440	167110	26892	1067682	45847	111088	0	0	8031	590710	0	0
2024-08-03 16:05:47			0	36703	0	0	0	29805	28430	166970	26911	1067700	45858	111090	0	0	8032	590542	0	0
2024-08-03 16:06:47			0	36711	0	0	0	29805	28430	167018	26675	1067673	45846	111090	0	0	8032	590217	0	0
2024-08-03 16:07:47			0	36714	0	0	0	29820	28420	166962	26956	1067682	45845	111096	0	0	8032	590130	0	0
2024-08-03 16:08:47			0	36697	0	0	0	29825	28440	167006	26927	1067771	45860	111098	0	0	8031	590751	0	0
2024-08-03 16:09:47			0	36711	0	0	0	29838	28440	167066	26866	1067709	45847	111103	0	0	8032	590183	0	0
2024-08-03 16:10:47			0	36709	0	0	0	29851	28440	167106	27046	1067771	45860	111108	0	0	8031	590264	0	0
2024-08-03 16:11:47			0	36689	0	0	0	29857	28460	167014	26856	1067780	45862	111110	0	0	8030	591007	0	0
2024-08-03 16:12:47			0	36716	0	0	0	29875	28460	167106	26883	1067852	45861	111117	0	0	8031	589913	0	0
2024-08-03 16:13:47			0	36715	0	0	0	29890	28450	166986	26993	1067978	45848	111123	0	0	8031	589987	0	0
2024-08-03 16:14:47			0	36720	0	0	0	29846	28460	167066	27076	1067942	45862	111106	0	0	8032	589750	0	0
2024-08-03 16:15:47			0	36720	0	0	0	29823	28470	167026	27005	1067870	45862	111097	0	0	8033	589716	0	0
2024-08-03 16:16:47			0	36674	0	0	0	29776	28460	167006	27244	1067780	45850	111079	0	0	8031	591616	0	0
2024-08-03 16:17:47			0	36650	0	0	0	29753	28460	167234	26857	1067726	45839	111070	0	0	8030	592590	0	0
2024-08-03 16:18:47			0	36611	0	0	0	29771	28440	167430	27104	1067691	45827	111077	0	0	8027	594245	0	0
2024-08-03 16:19:47			0	36592	0	0	0	29779	28440	167526	26913	1067691	45837	111080	0	0	8026	595019	0	0
2024-08-03 16:20:47			0	36580	0	0	0	29755	28440	167593	27208	1067718	45848	111071	0	0	8025	595508	0	0
2024-08-03 16:21:47			0	36596	0	0	0	29779	28430	167578	26739	1067610	45845	111080	0	0	8026	594891	0	0
2024-08-03 16:22:47			0	36629	0	0	0	29771	28420	167530	26824	1067601	45845	111077	0	0	8028	593581	0	0
2024-08-03 16:23:47			0	36613	0	0	0	29786	28420	167378	26701	1067673	45845	111083	0	0	8027	594233	0	0
2024-08-03 16:24:47			0	36627	0	0	0	29761	28420	167294	26948	1067628	45845	111073	0	0	8028	593663	0	0
2024-08-03 16:25:47			0	36635	0	0	0	29812	28430	167450	27296	1067646	45835	111093	0	0	8027	593303	0	0
2024-08-03 16:26:47			0	36627	0	0	0	29799	28430	167442	27050	1067745	45857	111088	0	0	8027	593628	0	0
2024-08-03 16:27:47			0	36627	0	0	0	29797	28430	167530	27053	1067691	45845	111087	0	0	8027	593628	0	0
2024-08-03 16:28:47			0	36586	0	0	0	29799	28430	167649	26811	1067673	45846	111088	0	0	8025	595298	0	0
2024-08-03 16:29:47			0	36566	0	0	0	29786	28430	167689	27180	1067691	45834	111083	0	0	8024	596114	0	0
2024-08-03 16:30:47			0	36530	0	0	0	29797	28420	167929	26953	1067682	45845	111087	0	0	8021	597618	0	0
2024-08-03 16:31:47			0	36520	0	0	0	29794	28420	167909	27022	1067601	45834	111086	0	0	8021	598027	0	0
2024-08-03 16:32:47			0	36515	0	0	0	29776	28420	168073	26755	1067709	45845	111079	0	0	8021	598232	0	0
2024-08-03 16:33:47			0	36511	0	0	0	29776	28420	168009	26927	1067601	45845	111079	0	0	8021	598395	0	0
2024-08-03 16:34:47			0	36494	0	0	0	29763	28430	168117	27019	1067583	45834	111074	0	0	8020	599057	0	0
2024-08-03 16:35:47			0	36515	0	0	0	29766	28410	167989	26595	1067547	45822	111075	0	0	8021	598266	0	0
2024-08-03 16:36:47			0	36501	0	0	0	29774	28410	167933	26771	1067610	45833	111078	0	0	8020	598839	0	0
2024-08-03 16:37:47			0	36518	0	0	0	29792	28410	167893	26680	1067628	45843	111085	0	0	8021	598144	0	0
2024-08-03 16:38:47			0	36534	0	0	0	29784	28410	167829	26715	1067529	45833	111082	0	0	8022	597490	0	0
2024-08-03 16:39:47			0	36537	0	0	0	29797	28400	167841	26602	1067591	45855	111087	0	0	8022	597402	0	0
2024-08-03 16:40:47			0	36533	0	0	0	29797	28410	167877	26715	1067556	45856	111087	0	0	8022	597530	0	0
2024-08-03 16:41:47			0	36547	0	0	0	29779	28410	167849	26863	1067574	45843	111080	0	0	8023	596958	0	0
2024-08-03 16:42:47			0	36563	0	0	0	29789	28410	167749	26776	1067583	45833	111084	0	0	8024	596305	0	0
2024-08-03 16:43:47			0	36573	0	0	0	29799	28420	167757	26814	1067646	45857	111088	0	0	8024	595863	0	0
2024-08-03 16:44:47			0	36585	0	0	0	29789	28430	167781	26760	1067637	45845	111084	0	0	8025	595339	0	0
2024-08-03 16:45:47			0	36600	0	0	0	29789	28420	167646	26878	1067673	45824	111084	0	0	8026	594762	0	0
2024-08-03 16:46:47			0	36587	0	0	0	29784	28420	167690	26675	1067628	45834	111082	0	0	8025	595292	0	0
2024-08-03 16:47:47			0	36613	0	0	0	29771	28420	167642	26953	1067709	45845	111077	0	0	8027	594233	0	0
2024-08-03 16:48:47			0	36585	0	0	0	29750	28420	167593	26745	1067682	45845	111069	0	0	8026	595373	0	0
2024-08-03 16:49:47			0	36583	0	0	0	29688	28410	167757	26819	1067583	45823	111045	0	0	8026	595489	0	0
2024-08-03 16:50:47			0	36522	0	0	0	29675	28410	168021	26850	1067520	45833	111040	0	0	8023	597980	0	0
2024-08-03 16:51:47			0	36455	0	0	0	29727	28380	168313	26817	1067457	45831	111060	0	0	8018	600828	0	0
2024-08-03 16:52:47			0	36393	0	0	0	29740	28400	168681	26764	1067529	45833	111065	0	0	8014	603306	0	0
2024-08-03 16:53:47			0	36361	0	0	0	29750	28400	168817	26880	1067511	45833	111069	0	0	8012	604624	0	0
2024-08-03 16:54:47			0	36374	0	0	0	29711	28400	168785	27020	1067538	45843	111054	0	0	8014	604088	0	0
2024-08-03 16:55:47			0	36400	0	0	0	29763	28400	168785	27012	1067475	45843	111074	0	0	8014	603018	0	0
2024-08-03 16:56:47			0	36407	0	0	0	29815	28400	168589	27085	1067583	45843	111094	0	0	8014	602730	0	0
2024-08-03 16:57:47			0	36460	0	0	0	29799	28410	168389	26963	1067601	45855	111088	0	0	8017	600519	0	0
2024-08-03 16:58:47			0	36491	0	0	0	29755	28400	168197	27055	1067538	45843	111071	0	0	8020	599283	0	0
2024-08-03 16:59:47			0	36577	0	0	0	29748	28410	167865	26927	1067547	45843	111068	0	0	8025	595734	0	0
2024-08-03 17:00:47			0	36589	0	0	0	29745	28400	167805	26731	1067609	45843	111067	0	0	8026	595279	0	0
2024-08-03 17:01:47			0	36591	0	0	0	29779	28410	167725	26847	1067637	45844	111080	0	0	8025	595163	0	0
2024-08-03 17:02:47			0	36610	0	0	0	29820	28410	167686	26672	1067655	45843	111096	0	0	8026	594389	0	0
2024-08-03 17:03:47			0	36632	0	0	0	29823	28420	167566	26859	1067727	45845	111097	0	0	8027	593459	0	0
2024-08-03 17:04:47			0	36626	0	0	0	29784	28410	167542	26779	1067610	45844	111082	0	0	8027	593738	0	0
2024-08-03 17:05:47			0	36665	0	0	0	29789	28420	167342	26837	1067646	45857	111084	0	0	8030	592118	0	0
2024-08-03 17:06:47			0	36679	0	0	0	29841	28420	167306	26720	1067762	45834	111104	0	0	8030	591549	0	0
2024-08-03 17:07:47			0	36678	0	0	0	29810	28430	167306	26726	1067807	45858	111092	0	0	8030	591556	0	0
2024-08-03 17:08:47			0	36717	0	0	0	29820	28430	167258	26927	1067753	45846	111096	0	0	8032	589974	0	0
2024-08-03 17:09:47			0	36726	0	0	0	29841	28440	167138	26618	1067816	45836	111104	0	0	8032	589576	0	0
2024-08-03 17:10:47			0	36723	0	0	0	29880	28440	167102	26530	1067843	45859	111119	0	0	8032	589697	0	0
2024-08-03 17:11:47			0	36725	0	0	0	29893	28440	167030	26679	1067852	45860	111124	0	0	8031	589616	0	0
2024-08-03 17:12:47			0	36769	0	0	0	29872	28440	167018	26717	1067933	45860	111116	0	0	8034	587836	0	0
2024-08-03 17:13:47			0	36805	0	0	0	29888	28460	166734	26972	1067996	45873	111122	0	0	8036	586315	0	0
2024-08-03 17:14:47			0	36830	0	0	0	29888	28460	166630	26809	1068023	45850	111122	0	0	8038	585307	0	0
2024-08-03 17:15:47			0	36840	0	0	0	29893	28470	166534	27029	1068041	45850	111124	0	0	8038	584870	0	0
2024-08-03 17:16:47			0	36885	0	0	0	29914	28480	166366	26682	1067996	45851	111132	0	0	8041	583026	0	0
2024-08-03 17:17:47			0	36909	0	0	0	29859	28490	166238	26871	1068077	45864	111111	0	0	8043	582028	0	0
2024-08-03 17:18:47			0	36937	0	0	0	29815	28500	166086	27209	1067978	45853	111094	0	0	8046	580871	0	0
2024-08-03 17:19:47			0	36928	0	0	0	29820	28490	166066	27079	1067969	45852	111096	0	0	8045	581266	0	0
2024-08-03 17:20:47			0	36881	0	0	0	29872	28490	166314	27197	1068014	45852	111116	0	0	8041	583153	0	0
2024-08-03 17:21:47			0	36837	0	0	0	29919	28490	166522	27092	1068104	45864	111134	0	0	8038	584923	0	0
2024-08-03 17:22:47			0	36865	0	0	0	29883	28500	166554	27079	1068086	45853	111120	0	0	8040	583762	0	0
2024-08-03 17:23:47			0	36859	0	0	0	29929	28500	166350	26769	1068194	45865	111138	0	0	8039	584004	0	0
2024-08-03 17:24:47			0	36892	0	0	0	29942	28510	166262	26894	1068212	45867	111143	0	0	8041	582643	0	0
2024-08-03 17:25:47			0	36917	0	0	0	29984	28510	166178	26896	1068292	45889	111159	0	0	8042	581640	0	0
2024-08-03 17:26:47			0	36963	0	0	0	29966	28530	165954	26739	1068338	45879	111152	0	0	8045	579729	0	0
2024-08-03 17:27:47			0	37002	0	0	0	29937	28540	165694	27090	1068383	45858	111141	0	0	8048	578136	0	0
2024-08-03 17:28:47			0	37017	0	0	0	29940	28530	165718	27034	1068365	45869	111142	0	0	8048	577570	0	0
2024-08-03 17:29:47			0	37014	0	0	0	29919	28530	165658	26876	1068275	45857	111134	0	0	8048	577690	0	0
2024-08-03 17:30:47			0	36992	0	0	0	29877	28540	165794	26736	1068266	45857	111118	0	0	8048	578536	0	0
2024-08-03 17:31:47			0	36941	0	0	0	29877	28540	166014	26922	1068275	45847	111118	0	0	8045	580577	0	0
2024-08-03 17:32:47			0	36873	0	0	0	29916	28530	166238	26880	1068275	45846	111133	0	0	8040	583339	0	0
2024-08-03 17:33:47			0	36846	0	0	0	29854	28530	166362	26984	1068248	45846	111109	0	0	8040	584425	0	0
2024-08-03 17:34:47			0	36793	0	0	0	29968	28530	166718	26972	1068338	45857	111153	0	0	8035	586561	0	0
2024-08-03 17:35:47			0	36873	0	0	0	29955	28530	166354	26887	1068365	45869	111148	0	0	8040	583339	0	0
2024-08-03 17:36:47			0	36899	0	0	0	29966	28540	166134	26878	1068383	45858	111152	0	0	8041	582261	0	0
2024-08-03 17:37:47			0	36960	0	0	0	29937	28540	165894	27003	1068356	45870	111141	0	0	8045	579816	0	0
2024-08-03 17:38:47			0	36946	0	0	0	29922	28550	166018	26828	1068400	45871	111135	0	0	8045	580343	0	0
2024-08-03 17:39:47			0	36932	0	0	0	29916	28550	166190	27017	1068374	45859	111133	0	0	8044	580904	0	0
2024-08-03 17:40:47			0	36884	0	0	0	29903	28550	166214	26819	1068374	45859	111128	0	0	8041	582830	0	0
2024-08-03 17:41:47			0	36890	0	0	0	29901	28550	166230	26920	1068338	45859	111127	0	0	8042	582589	0	0
2024-08-03 17:42:47			0	36842	0	0	0	29927	28550	166446	27064	1068320	45859	111137	0	0	8038	584519	0	0
2024-08-03 17:43:47			0	36850	0	0	0	29955	28550	166378	27012	1068400	45871	111148	0	0	8038	584197	0	0
2024-08-03 17:44:47			0	36874	0	0	0	29953	28550	166302	26734	1068418	45871	111147	0	0	8040	583232	0	0
2024-08-03 17:45:47			0	36933	0	0	0	30007	28560	166106	26795	1068517	45871	111168	0	0	8042	580830	0	0
2024-08-03 17:46:47			0	36979	0	0	0	29976	28560	165770	26765	1068526	45882	111156	0	0	8046	578988	0	0
2024-08-03 17:47:47			0	36983	0	0	0	30002	28570	165786	26998	1068508	45883	111166	0	0	8045	578795	0	0
2024-08-03 17:48:47			0	36985	0	0	0	29942	28570	165802	26925	1068589	45850	111143	0	0	8047	578715	0	0
2024-08-03 17:49:47			0	36988	0	0	0	29903	28570	165818	27118	1068490	45873	111128	0	0	8047	578595	0	0
2024-08-03 17:50:47			0	36949	0	0	0	29883	28570	166006	26706	1068409	45861	111120	0	0	8045	580155	0	0
2024-08-03 17:51:47			0	36877	0	0	0	29888	28560	166174	27203	1068338	45837	111122	0	0	8041	583078	0	0
2024-08-03 17:52:47			0	36864	0	0	0	29893	28550	166362	26961	1068293	45836	111124	0	0	8040	583634	0	0
2024-08-03 17:53:47			0	36851	0	0	0	29890	28550	166350	26805	1068266	45836	111123	0	0	8039	584157	0	0
2024-08-03 17:54:47			0	36817	0	0	0	29888	28540	166502	26637	1068221	45847	111122	0	0	8037	585560	0	0
2024-08-03 17:55:47			0	36814	0	0	0	29922	28540	166462	26817	1068266	45846	111135	0	0	8037	585681	0	0
2024-08-03 17:56:47			0	36801	0	0	0	29971	28540	166598	26972	1068329	45847	111154	0	0	8035	586205	0	0
2024-08-03 17:57:47			0	36826	0	0	0	29924	28540	166362	26838	1068383	45858	111136	0	0	8037	585197	0	0
2024-08-03 17:58:47			0	36891	0	0	0	29880	28540	166154	27076	1068329	45847	111119	0	0	8042	582583	0	0
2024-08-03 17:59:47			0	36869	0	0	0	29919	28540	166406	27074	1068302	45847	111134	0	0	8040	583466	0	0
2024-08-03 18:00:47			0	36831	0	0	0	29945	28540	166414	26757	1068329	45858	111144	0	0	8037	584995	0	0
2024-08-03 18:01:47			0	36848	0	0	0	29945	28560	166458	26823	1068356	45859	111144	0	0	8038	584244	0	0
2024-08-03 18:02:47			0	36882	0	0	0	29940	28550	166362	26908	1068338	45859	111142	0	0	8040	582910	0	0
2024-08-03 18:03:47			0	36888	0	0	0	29885	28550	166158	27097	1068347	45859	111121	0	0	8042	582669	0	0
2024-08-03 18:04:47			0	36890	0	0	0	29872	28550	166234	26923	1068257	45848	111116	0	0	8042	582589	0	0
2024-08-03 18:05:47			0	36863	0	0	0	29867	28540	166462	26734	1068185	45835	111114	0	0	8041	583708	0	0
2024-08-03 18:06:47			0	36806	0	0	0	29870	28530	166590	26710	1068149	45835	111115	0	0	8037	586037	0	0
2024-08-03 18:07:47			0	36773	0	0	0	29883	28530	166726	26694	1068086	45846	111120	0	0	8035	587369	0	0
2024-08-03 18:08:47			0	36758	0	0	0	29906	28530	166774	26876	1068194	45835	111129	0	0	8034	587975	0	0
2024-08-03 18:09:47			0	36767	0	0	0	29989	28530	166898	26949	1068302	45869	111161	0	0	8033	587611	0	0
2024-08-03 18:10:47			0	36795	0	0	0	29997	28540	166690	26935	1068454	45869	111164	0	0	8034	586447	0	0
2024-08-03 18:11:47			0	36858	0	0	0	29961	28540	166418	27086	1068463	45880	111150	0	0	8039	583909	0	0
2024-08-03 18:12:47			0	36901	0	0	0	29961	28550	166250	27050	1068445	45871	111150	0	0	8041	582147	0	0
2024-08-03 18:13:47			0	36906	0	0	0	29937	28560	166114	26916	1068445	45872	111141	0	0	8042	581913	0	0
2024-08-03 18:14:47			0	36911	0	0	0	29945	28560	166222	26706	1068409	45859	111144	0	0	8042	581712	0	0
2024-08-03 18:15:47			0	36902	0	0	0	29935	28550	166210	26706	1068391	45859	111140	0	0	8042	582107	0	0
2024-08-03 18:16:47			0	36902	0	0	0	29935	28550	166210	26791	1068391	45859	111140	0	0	8042	582107	0	0
2024-08-03 18:17:47			0	36891	0	0	0	29958	28550	166282	26902	1068400	45848	111149	0	0	8041	582549	0	0
2024-08-03 18:18:47			0	36893	0	0	0	29971	28550	166186	26859	1068454	45859	111154	0	0	8041	582468	0	0
2024-08-03 18:19:47			0	36930	0	0	0	29955	28550	166078	26713	1068508	45871	111148	0	0	8043	580984	0	0
2024-08-03 18:20:47			0	36941	0	0	0	29971	28560	166074	27015	1068436	45859	111154	0	0	8043	580510	0	0
2024-08-03 18:21:47			0	36938	0	0	0	29976	28560	166054	27071	1068463	45859	111156	0	0	8043	580630	0	0
2024-08-03 18:22:47			0	36945	0	0	0	29973	28560	165986	26812	1068445	45872	111155	0	0	8044	580349	0	0
2024-08-03 18:23:47			0	36946	0	0	0	29968	28560	166058	26599	1068526	45872	111153	0	0	8044	580309	0	0
2024-08-03 18:24:47			0	36957	0	0	0	29963	28560	166062	26852	1068526	45872	111151	0	0	8045	579869	0	0
2024-08-03 18:25:47			0	36954	0	0	0	29953	28570	165998	27017	1068481	45861	111147	0	0	8045	579955	0	0
2024-08-03 18:26:47			0	36938	0	0	0	29948	28560	166030	26946	1068490	45859	111145	0	0	8044	580630	0	0
2024-08-03 18:27:47			0	36932	0	0	0	29937	28570	166042	26663	1068508	45873	111141	0	0	8044	580837	0	0
2024-08-03 18:28:47			0	36923	0	0	0	29948	28570	165998	27001	1068508	45861	111145	0	0	8043	581197	0	0
2024-08-03 18:29:47			0	36896	0	0	0	29966	28570	166058	26873	1068427	45873	111152	0	0	8041	582281	0	0
2024-08-03 18:30:47			0	36916	0	0	0	29929	28570	166166	27118	1068508	45861	111138	0	0	8043	581478	0	0
2024-08-03 18:31:47			0	36890	0	0	0	29888	28570	166182	26899	1068454	45861	111122	0	0	8042	582522	0	0
2024-08-03 18:32:47			0	36829	0	0	0	29973	28570	166434	27093	1068436	45861	111155	0	0	8037	584975	0	0
2024-08-03 18:33:47			0	36810	0	0	0	29948	28570	166590	26882	1068481	45873	111145	0	0	8036	585740	0	0
2024-08-03 18:34:47			0	36814	0	0	0	29989	28560	166578	26752	1068472	45860	111161	0	0	8036	585613	0	0
2024-08-03 18:35:47			0	36823	0	0	0	29924	28570	166526	26850	1068571	45883	111136	0	0	8037	585216	0	0
2024-08-03 18:36:47			0	36840	0	0	0	29911	28570	166442	27111	1068427	45850	111131	0	0	8039	584532	0	0
2024-08-03 18:37:47			0	36796	0	0	0	29922	28570	166630	26977	1068481	45838	111135	0	0	8036	586304	0	0
2024-08-03 18:38:47			0	36792	0	0	0	29979	28560	166774	26942	1068445	45849	111157	0	0	8035	586500	0	0
2024-08-03 18:39:47			0	36826	0	0	0	29979	28560	166658	26717	1068472	45860	111157	0	0	8037	585129	0	0
2024-08-03 18:40:47			0	36837	0	0	0	29966	28570	166550	26592	1068598	45873	111152	0	0	8037	584652	0	0
2024-08-03 18:41:47			0	36868	0	0	0	29984	28570	166486	26854	1068598	45861	111159	0	0	8039	583405	0	0
2024-08-03 18:42:47			0	36881	0	0	0	29963	28580	166478	26748	1068526	45874	111151	0	0	8040	582849	0	0
2024-08-03 18:43:47			0	36881	0	0	0	29950	28570	166354	26844	1068544	45850	111146	0	0	8040	582883	0	0
2024-08-03 18:44:47			0	36859	0	0	0	29966	28570	166426	26720	1068535	45850	111152	0	0	8039	583767	0	0
2024-08-03 18:45:47			0	36862	0	0	0	29979	28570	166446	27152	1068508	45850	111157	0	0	8039	583647	0	0
2024-08-03 18:46:47			0	36837	0	0	0	29989	28560	166410	27048	1068499	45860	111161	0	0	8037	584686	0	0
2024-08-03 18:47:47			0	36867	0	0	0	29986	28580	166442	26946	1068562	45874	111160	0	0	8039	583412	0	0
2024-08-03 18:48:47			0	36869	0	0	0	29984	28570	166370	26897	1068625	45861	111159	0	0	8039	583365	0	0
2024-08-03 18:49:47			0	36847	0	0	0	29984	28580	166354	26739	1068562	45874	111159	0	0	8038	584216	0	0
2024-08-03 18:50:47			0	36865	0	0	0	29979	28580	166346	27185	1068580	45862	111157	0	0	8039	583492	0	0
2024-08-03 18:51:47			0	36849	0	0	0	29945	28580	166434	27144	1068553	45862	111144	0	0	8039	584136	0	0
2024-08-03 18:52:47			0	36837	0	0	0	29937	28570	166518	26745	1068490	45850	111141	0	0	8038	584652	0	0
2024-08-03 18:53:47			0	36799	0	0	0	29942	28570	166486	26850	1068490	45873	111143	0	0	8036	586184	0	0
2024-08-03 18:54:47			0	36774	0	0	0	29942	28560	166838	26811	1068445	45849	111143	0	0	8034	587226	0	0
2024-08-03 18:55:47			0	36773	0	0	0	29937	28570	166678	26974	1068436	45850	111141	0	0	8034	587233	0	0
2024-08-03 18:56:47			0	36782	0	0	0	29942	28560	166714	26819	1068472	45849	111143	0	0	8035	586903	0	0
2024-08-03 18:57:47			0	36777	0	0	0	29945	28570	166746	27015	1068481	45861	111144	0	0	8034	587071	0	0
2024-08-03 18:58:47			0	36763	0	0	0	29935	28560	166806	26592	1068436	45881	111140	0	0	8034	587670	0	0
2024-08-03 18:59:47			0	36777	0	0	0	29940	28570	166762	26523	1068535	45873	111142	0	0	8034	587071	0	0
2024-08-03 19:00:47			0	36774	0	0	0	29953	28560	166890	26696	1068499	45860	111147	0	0	8034	587226	0	0
2024-08-03 19:01:47			0	36756	0	0	0	29968	28560	166854	26717	1068526	45860	111153	0	0	8033	587953	0	0
2024-08-03 19:02:47			0	36794	0	0	0	29968	28560	166766	26479	1068472	45860	111153	0	0	8035	586419	0	0
2024-08-03 19:03:47			0	36799	0	0	0	29968	28560	166694	26406	1068499	45872	111153	0	0	8035	586217	0	0
2024-08-03 19:04:47			0	36805	0	0	0	29976	28570	166622	26734	1068562	45861	111156	0	0	8035	585942	0	0
2024-08-03 19:05:47			0	36797	0	0	0	29961	28560	166610	26585	1068499	45860	111150	0	0	8035	586298	0	0
2024-08-03 19:06:47			0	36785	0	0	0	29971	28560	166686	26937	1068553	45872	111154	0	0	8034	586782	0	0
2024-08-03 19:07:47			0	36791	0	0	0	29971	28570	166686	26785	1068535	45861	111154	0	0	8035	586506	0	0
2024-08-03 19:08:47			0	36771	0	0	0	29971	28570	166758	27055	1068517	45883	111154	0	0	8034	587313	0	0
2024-08-03 19:09:47			0	36761	0	0	0	29971	28560	166722	27026	1068499	45860	111154	0	0	8033	587751	0	0
2024-08-03 19:10:47			0	36749	0	0	0	29968	28570	166670	26852	1068544	45861	111153	0	0	8032	588202	0	0
2024-08-03 19:11:47			0	36753	0	0	0	29958	28570	166830	26774	1068598	45861	111149	0	0	8033	588041	0	0
2024-08-03 19:12:47			0	36733	0	0	0	29924	28560	166902	27060	1068472	45872	111136	0	0	8032	588883	0	0
2024-08-03 19:13:47			0	36741	0	0	0	29927	28560	166962	26840	1068472	45872	111137	0	0	8032	588560	0	0
2024-08-03 19:14:47			0	36732	0	0	0	29932	28560	166942	26569	1068418	45860	111139	0	0	8032	588924	0	0
2024-08-03 19:15:47			0	36703	0	0	0	29929	28560	167058	26913	1068409	45836	111138	0	0	8030	590098	0	0
2024-08-03 19:16:47			0	36707	0	0	0	29937	28560	167098	26911	1068472	45860	111141	0	0	8030	589936	0	0
2024-08-03 19:17:47			0	36698	0	0	0	29950	28560	167110	26653	1068463	45848	111146	0	0	8030	590300	0	0
2024-08-03 19:18:47			0	36686	0	0	0	29940	28550	167082	26691	1068508	45859	111142	0	0	8029	590821	0	0
2024-08-03 19:19:47			0	36702	0	0	0	29919	28550	167074	26575	1068374	45859	111134	0	0	8030	590172	0	0
2024-08-03 19:20:47			0	36698	0	0	0	29903	28550	167150	27012	1068427	45859	111128	0	0	8030	590334	0	0
2024-08-03 19:21:47			0	36688	0	0	0	29914	28540	167210	26856	1068329	45858	111132	0	0	8029	590774	0	0
2024-08-03 19:22:47			0	36665	0	0	0	29914	28540	167226	26800	1068356	45870	111132	0	0	8028	591707	0	0
2024-08-03 19:23:47			0	36676	0	0	0	29916	28540	167278	26854	1068356	45858	111133	0	0	8029	591261	0	0
2024-08-03 19:24:47			0	36650	0	0	0	29909	28540	167358	26590	1068347	45857	111130	0	0	8027	592316	0	0
2024-08-03 19:25:47			0	36644	0	0	0	29911	28540	167410	27000	1068302	45858	111131	0	0	8027	592560	0	0
2024-08-03 19:26:47			0	36649	0	0	0	29916	28540	167306	26786	1068347	45846	111133	0	0	8027	592357	0	0
2024-08-03 19:27:47			0	36637	0	0	0	29922	28540	167486	26987	1068329	45858	111135	0	0	8026	592844	0	0
2024-08-03 19:28:47			0	36633	0	0	0	29924	28540	167478	26720	1068383	45858	111136	0	0	8026	593007	0	0
2024-08-03 19:29:47			0	36643	0	0	0	29929	28530	167398	26628	1068311	45869	111138	0	0	8026	592635	0	0
2024-08-03 19:30:47			0	36630	0	0	0	29927	28540	167434	26733	1068356	45870	111137	0	0	8026	593129	0	0
2024-08-03 19:31:47			0	36650	0	0	0	29916	28530	167386	26641	1068302	45846	111133	0	0	8027	592350	0	0
2024-08-03 19:32:47			0	36657	0	0	0	29922	28530	167386	26731	1068302	45869	111135	0	0	8027	592066	0	0
2024-08-03 19:33:47			0	36625	0	0	0	29922	28530	167486	26559	1068284	45857	111135	0	0	8026	593366	0	0
2024-08-03 19:34:47			0	36633	0	0	0	29919	28540	167530	26955	1068293	45835	111134	0	0	8026	593007	0	0
2024-08-03 19:35:47			0	36629	0	0	0	29919	28540	167602	26745	1068401	45857	111134	0	0	8026	593169	0	0
2024-08-03 19:36:47			0	36612	0	0	0	29924	28530	167626	26648	1068302	45857	111136	0	0	8025	593895	0	0
2024-08-03 19:37:47			0	36597	0	0	0	29914	28530	167517	26771	1068275	45857	111132	0	0	8024	594506	0	0
2024-08-03 19:38:47			0	36595	0	0	0	29927	28520	167582	26991	1068319	45868	111137	0	0	8024	594622	0	0
2024-08-03 19:39:47			0	36591	0	0	0	29919	28530	167597	26651	1068302	45869	111134	0	0	8024	594750	0	0
2024-08-03 19:40:47			0	36590	0	0	0	29924	28530	167633	26677	1068365	45869	111136	0	0	8023	594791	0	0
2024-08-03 19:41:47			0	36579	0	0	0	29916	28530	167601	26622	1068356	45869	111133	0	0	8023	595239	0	0
2024-08-03 19:42:47			0	36576	0	0	0	29916	28530	167741	26755	1068311	45857	111133	0	0	8023	595361	0	0
2024-08-03 19:43:47			0	36572	0	0	0	29924	28520	167857	27024	1068319	45868	111136	0	0	8022	595559	0	0
2024-08-03 19:44:47			0	36561	0	0	0	29909	28520	167969	27007	1068229	45855	111130	0	0	8022	596007	0	0
2024-08-03 19:45:47			0	36552	0	0	0	29914	28530	167869	26729	1068275	45869	111132	0	0	8021	596340	0	0
2024-08-03 19:46:47			0	36536	0	0	0	29914	28520	167893	26613	1068229	45867	111132	0	0	8020	597028	0	0
2024-08-03 19:47:47			0	36537	0	0	0	29906	28520	167937	26630	1068265	45856	111129	0	0	8021	596987	0	0
2024-08-03 19:48:47			0	36504	0	0	0	29911	28510	168001	26674	1068247	45867	111131	0	0	8018	598370	0	0
2024-08-03 19:49:47			0	36516	0	0	0	29903	28530	168057	26847	1068248	45869	111128	0	0	8019	597810	0	0
2024-08-03 19:50:47			0	36502	0	0	0	29901	28520	168129	26733	1068292	45856	111127	0	0	8019	598417	0	0
2024-08-03 19:51:47			0	36503	0	0	0	29903	28520	168217	26476	1068265	45868	111128	0	0	8019	598377	0	0
2024-08-03 19:52:47			0	36495	0	0	0	29911	28510	168241	26833	1068140	45855	111131	0	0	8018	598739	0	0
2024-08-03 19:53:47			0	36485	0	0	0	29888	28510	168257	26653	1068265	45867	111122	0	0	8018	599148	0	0
2024-08-03 19:54:47			0	36445	0	0	0	29893	28500	168237	26622	1068230	45866	111124	0	0	8015	600822	0	0
2024-08-03 19:55:47			0	36443	0	0	0	29888	28500	168337	27033	1068176	45854	111122	0	0	8015	600904	0	0
2024-08-03 19:56:47			0	36447	0	0	0	29885	28510	168469	26620	1068131	45867	111121	0	0	8015	600705	0	0
2024-08-03 19:57:47			0	36438	0	0	0	29877	28500	168401	26700	1068140	45865	111118	0	0	8015	601109	0	0
2024-08-03 19:58:47			0	36431	0	0	0	29883	28500	168345	26793	1068194	45842	111120	0	0	8015	601396	0	0
2024-08-03 19:59:47			0	36444	0	0	0	29885	28500	168425	26759	1068095	45866	111121	0	0	8015	600863	0	0
2024-08-03 20:00:47			0	36417	0	0	0	29888	28490	168401	26828	1068131	45864	111122	0	0	8014	602006	0	0
2024-08-03 20:01:47			0	36430	0	0	0	29883	28500	168389	26871	1068167	45853	111120	0	0	8014	601437	0	0
2024-08-03 20:02:47			0	36410	0	0	0	29875	28490	168461	27057	1068131	45864	111117	0	0	8013	602293	0	0
2024-08-03 20:03:47			0	36421	0	0	0	29875	28500	168517	26946	1068086	45875	111117	0	0	8014	601807	0	0
2024-08-03 20:04:47			0	36423	0	0	0	29870	28490	168585	26934	1068077	45864	111115	0	0	8014	601759	0	0
2024-08-03 20:05:47			0	36401	0	0	0	29875	28500	168697	26746	1068059	45875	111117	0	0	8013	602629	0	0
2024-08-03 20:06:47			0	36364	0	0	0	29872	28480	168789	26734	1068140	45864	111116	0	0	8011	604221	0	0
2024-08-03 20:07:47			0	36356	0	0	0	29870	28490	168733	26960	1068095	45852	111115	0	0	8010	604515	0	0
2024-08-03 20:08:47			0	36315	0	0	0	29877	28480	168957	26764	1068059	45875	111118	0	0	8008	606241	0	0
2024-08-03 20:09:47			0	36329	0	0	0	29880	28480	169005	26724	1068086	45864	111119	0	0	8008	605663	0	0
2024-08-03 20:10:47			0	36311	0	0	0	29870	28490	168953	26894	1068122	45864	111115	0	0	8008	606371	0	0
2024-08-03 20:11:47			0	36300	0	0	0	29870	28480	169053	26857	1068059	45864	111115	0	0	8007	606860	0	0
2024-08-03 20:12:47			0	36283	0	0	0	29872	28490	169185	26628	1068068	45875	111116	0	0	8006	607528	0	0
2024-08-03 20:13:47			0	36267	0	0	0	29872	28470	169141	26696	1068041	45862	111116	0	0	8005	608260	0	0
2024-08-03 20:14:47			0	36277	0	0	0	29877	28470	169309	26982	1068068	45873	111118	0	0	8005	607846	0	0
2024-08-03 20:15:47			0	36238	0	0	0	29859	28480	169277	26935	1068077	45851	111111	0	0	8003	609425	0	0
2024-08-03 20:16:47			0	36235	0	0	0	29872	28480	169409	26814	1068077	45863	111116	0	0	8003	609549	0	0
2024-08-03 20:17:47			0	36227	0	0	0	29864	28480	169409	26694	1068077	45874	111113	0	0	8003	609881	0	0
2024-08-03 20:18:47			0	36227	0	0	0	29867	28470	169405	26700	1068041	45850	111114	0	0	8002	609916	0	0
2024-08-03 20:19:47			0	36226	0	0	0	29857	28470	169465	26488	1068095	45850	111110	0	0	8003	609958	0	0
2024-08-03 20:20:47			0	36229	0	0	0	29851	28470	169465	26817	1068014	45862	111108	0	0	8003	609833	0	0
2024-08-03 20:21:47			0	36219	0	0	0	29836	28470	169493	26726	1067978	45862	111102	0	0	8003	610248	0	0
2024-08-03 20:22:47			0	36236	0	0	0	29833	28470	169373	27066	1067978	45850	111101	0	0	8004	609543	0	0
2024-08-03 20:23:47			0	36239	0	0	0	29846	28460	169425	26894	1068023	45862	111106	0	0	8004	609454	0	0
2024-08-03 20:24:47			0	36223	0	0	0	29844	28460	169321	26913	1067915	45850	111105	0	0	8003	610117	0	0
2024-08-03 20:25:47			0	36240	0	0	0	29854	28460	169329	27043	1067942	45862	111109	0	0	8003	609413	0	0
2024-08-03 20:26:47			0	36227	0	0	0	29849	28450	169433	26963	1067843	45860	111107	0	0	8003	609987	0	0
2024-08-03 20:27:47			0	36221	0	0	0	29849	28460	169493	26774	1067960	45861	111107	0	0	8002	610200	0	0
2024-08-03 20:28:47			0	36202	0	0	0	29841	28460	169501	26967	1067933	45861	111104	0	0	8001	610989	0	0
2024-08-03 20:29:47			0	36192	0	0	0	29849	28460	169549	27005	1068023	45839	111107	0	0	8001	611404	0	0
2024-08-03 20:30:47			0	36175	0	0	0	29851	28460	169669	26578	1067960	45872	111108	0	0	8000	612110	0	0
2024-08-03 20:31:47			0	36141	0	0	0	29841	28450	169749	26790	1067942	45860	111104	0	0	7998	613560	0	0
2024-08-03 20:32:47			0	36143	0	0	0	29841	28460	169817	26455	1067933	45872	111104	0	0	7998	613441	0	0
2024-08-03 20:33:47			0	36123	0	0	0	29838	28450	169873	26641	1067969	45837	111103	0	0	7997	614309	0	0
2024-08-03 20:34:47			0	36094	0	0	0	29831	28450	169977	26653	1067924	45860	111100	0	0	7995	615518	0	0
2024-08-03 20:35:47			0	36105	0	0	0	29838	28460	170013	26838	1067933	45861	111103	0	0	7996	615024	0	0
2024-08-03 20:36:47			0	36091	0	0	0	29838	28440	170061	26710	1067933	45860	111103	0	0	7995	615679	0	0
2024-08-03 20:37:47			0	36059	0	0	0	29831	28440	170041	26817	1067870	45881	111100	0	0	7993	617016	0	0
2024-08-03 20:38:47			0	36040	0	0	0	29833	28450	170225	26981	1067915	45860	111101	0	0	7992	617774	0	0
2024-08-03 20:39:47			0	36015	0	0	0	29828	28450	170329	26535	1067924	45871	111099	0	0	7990	618821	0	0
2024-08-03 20:40:47			0	36003	0	0	0	29820	28450	170401	26726	1067942	45860	111096	0	0	7990	619323	0	0
2024-08-03 20:41:47			0	35997	0	0	0	29818	28450	170545	27019	1067834	45860	111095	0	0	7989	619575	0	0
2024-08-03 20:42:47			0	35984	0	0	0	29828	28440	170529	26857	1067906	45871	111099	0	0	7988	620156	0	0
2024-08-03 20:43:47			0	35994	0	0	0	29833	28430	170537	26812	1067861	45858	111101	0	0	7989	619772	0	0
2024-08-03 20:44:47			0	35975	0	0	0	29831	28440	170549	26668	1067825	45848	111100	0	0	7988	620533	0	0
2024-08-03 20:45:47			0	35984	0	0	0	29820	28440	170601	26831	1067870	45859	111096	0	0	7989	620156	0	0
2024-08-03 20:46:47			0	35963	0	0	0	29818	28430	170601	26802	1067834	45846	111095	0	0	7987	621073	0	0
2024-08-03 20:47:47			0	35952	0	0	0	29831	28430	170693	26986	1067780	45858	111100	0	0	7986	621535	0	0
2024-08-03 20:48:47			0	35943	0	0	0	29825	28430	170801	26845	1067861	45858	111098	0	0	7986	621913	0	0
2024-08-03 20:49:47			0	35949	0	0	0	29838	28430	170693	26656	1067834	45869	111103	0	0	7986	621661	0	0
2024-08-03 20:50:47			0	35970	0	0	0	29831	28430	170705	26986	1067861	45846	111100	0	0	7987	620779	0	0
2024-08-03 20:51:47			0	35954	0	0	0	29833	28430	170553	26837	1067861	45858	111101	0	0	7986	621451	0	0
2024-08-03 20:52:47			0	35980	0	0	0	29841	28430	170497	26762	1067888	45869	111104	0	0	7988	620359	0	0
2024-08-03 20:53:47			0	36005	0	0	0	29833	28440	170529	26975	1067843	45859	111101	0	0	7990	619275	0	0
2024-08-03 20:54:47			0	35998	0	0	0	29820	28440	170489	26824	1067870	45859	111096	0	0	7989	619569	0	0
2024-08-03 20:55:47			0	36017	0	0	0	29831	28430	170525	27157	1067807	45858	111100	0	0	7990	618808	0	0
2024-08-03 20:56:47			0	36007	0	0	0	29823	28440	170569	26974	1067870	45859	111097	0	0	7990	619192	0	0
2024-08-03 20:57:47			0	36019	0	0	0	29836	28430	170521	26856	1067834	45858	111102	0	0	7990	618725	0	0
2024-08-03 20:58:47			0	36047	0	0	0	29825	28430	170417	27003	1067861	45858	111098	0	0	7992	617553	0	0
2024-08-03 20:59:47			0	36076	0	0	0	29823	28420	170173	27033	1067816	45868	111097	0	0	7994	616377	0	0
2024-08-03 21:00:47			0	36105	0	0	0	29831	28440	170141	26864	1067870	45870	111100	0	0	7996	615095	0	0
2024-08-03 21:01:47			0	36128	0	0	0	29812	28430	169917	27039	1067834	45858	111093	0	0	7997	614172	0	0
2024-08-03 21:02:47			0	36191	0	0	0	29820	28420	169805	26807	1067789	45879	111096	0	0	8001	611587	0	0
2024-08-03 21:03:47			0	36240	0	0	0	29807	28420	169521	26977	1067816	45845	111091	0	0	8004	609554	0	0
2024-08-03 21:04:47			0	36230	0	0	0	29820	28420	169433	26764	1067843	45845	111096	0	0	8003	609968	0	0
2024-08-03 21:05:47			0	36245	0	0	0	29820	28430	169329	26706	1067745	45868	111096	0	0	8004	609311	0	0
2024-08-03 21:06:47			0	36268	0	0	0	29818	28430	169317	26628	1067798	45857	111095	0	0	8006	608359	0	0
2024-08-03 21:07:47			0	36255	0	0	0	29812	28430	169321	26759	1067825	45857	111093	0	0	8005	608897	0	0
2024-08-03 21:08:47			0	36267	0	0	0	29818	28430	169381	26922	1067771	45868	111095	0	0	8006	608400	0	0
2024-08-03 21:09:47			0	36255	0	0	0	29812	28430	169381	26762	1067798	45879	111093	0	0	8005	608897	0	0
2024-08-03 21:10:47			0	36239	0	0	0	29810	28420	169493	27119	1067780	45857	111092	0	0	8004	609595	0	0
2024-08-03 21:11:47			0	36236	0	0	0	29792	28410	169413	26821	1067771	45856	111085	0	0	8004	609755	0	0
2024-08-03 21:12:47			0	36264	0	0	0	29799	28420	169421	26412	1067709	45845	111088	0	0	8006	608560	0	0
2024-08-03 21:13:47			0	36286	0	0	0	29802	28410	169309	26635	1067745	45844	111089	0	0	8007	607685	0	0
2024-08-03 21:14:47			0	36294	0	0	0	29802	28410	169161	26790	1067745	45867	111089	0	0	8007	607354	0	0
2024-08-03 21:15:47			0	36295	0	0	0	29802	28410	169129	26894	1067745	45833	111089	0	0	8007	607313	0	0
2024-08-03 21:16:47			0	36290	0	0	0	29805	28420	169257	26646	1067736	45845	111090	0	0	8007	607484	0	0
2024-08-03 21:17:47			0	36270	0	0	0	29805	28420	169377	27000	1067727	45845	111090	0	0	8006	608311	0	0
2024-08-03 21:18:47			0	36273	0	0	0	29799	28410	169529	26812	1067745	45844	111088	0	0	8006	608223	0	0
2024-08-03 21:19:47			0	36244	0	0	0	29802	28410	169433	26817	1067762	45855	111089	0	0	8004	609423	0	0
2024-08-03 21:20:47			0	36235	0	0	0	29799	28410	169441	26710	1067709	45855	111088	0	0	8004	609796	0	0
2024-08-03 21:21:47			0	36221	0	0	0	29799	28410	169589	26672	1067762	45866	111088	0	0	8003	610377	0	0
2024-08-03 21:22:47			0	36204	0	0	0	29797	28410	169697	26942	1067736	45866	111087	0	0	8002	611082	0	0
2024-08-03 21:23:47			0	36188	0	0	0	29805	28410	169873	26857	1067745	45856	111090	0	0	8001	611747	0	0
2024-08-03 21:24:47			0	36180	0	0	0	29799	28410	169813	26930	1067718	45856	111088	0	0	8001	612079	0	0
2024-08-03 21:25:47			0	36144	0	0	0	29779	28400	169921	26686	1067753	45866	111080	0	0	7999	613612	0	0
2024-08-03 21:26:47			0	36139	0	0	0	29792	28410	169857	26549	1067709	45866	111085	0	0	7998	613785	0	0
2024-08-03 21:27:47			0	36137	0	0	0	29774	28410	169965	27022	1067655	45843	111078	0	0	7998	613868	0	0
2024-08-03 21:28:47			0	36138	0	0	0	29774	28400	169893	27093	1067690	45843	111078	0	0	7998	613862	0	0
2024-08-03 21:29:47			0	36148	0	0	0	29766	28390	169953	27046	1067681	45865	111075	0	0	7999	613481	0	0
2024-08-03 21:30:47			0	36127	0	0	0	29781	28400	170009	27081	1067618	45855	111081	0	0	7998	614320	0	0
2024-08-03 21:31:47			0	36110	0	0	0	29776	28390	170109	27046	1067601	45843	111079	0	0	7997	615064	0	0
2024-08-03 21:32:47			0	36102	0	0	0	29786	28390	170033	27142	1067681	45854	111083	0	0	7996	615398	0	0
2024-08-03 21:33:47			0	36107	0	0	0	29768	28380	170169	26896	1067538	45875	111076	0	0	7997	615225	0	0
2024-08-03 21:34:47			0	36089	0	0	0	29792	28380	170301	26833	1067610	45853	111085	0	0	7995	615976	0	0
2024-08-03 21:35:47			0	36094	0	0	0	29768	28380	170241	26861	1067618	45853	111076	0	0	7996	615767	0	0
2024-08-03 21:36:47			0	36084	0	0	0	29766	28380	170233	27222	1067591	45842	111075	0	0	7995	616185	0	0
2024-08-03 21:37:47			0	36073	0	0	0	29771	28380	170305	26871	1067610	45853	111077	0	0	7994	616644	0	0
2024-08-03 21:38:47			0	36069	0	0	0	29753	28380	170289	26738	1067645	45853	111070	0	0	7994	616812	0	0
2024-08-03 21:39:47			0	36058	0	0	0	29755	28380	170385	26911	1067556	45842	111071	0	0	7994	617271	0	0
2024-08-03 21:40:47			0	36042	0	0	0	29758	28380	170441	27156	1067565	45842	111072	0	0	7993	617941	0	0
2024-08-03 21:41:47			0	36017	0	0	0	29740	28370	170541	26994	1067574	45853	111065	0	0	7992	619023	0	0
2024-08-03 21:42:47			0	36003	0	0	0	29761	28370	170513	27036	1067493	45864	111073	0	0	7990	619610	0	0
2024-08-03 21:43:47			0	35987	0	0	0	29750	28360	170645	27012	1067502	45851	111069	0	0	7989	620317	0	0
2024-08-03 21:44:47			0	35993	0	0	0	29737	28360	170613	26713	1067475	45840	111064	0	0	7990	620065	0	0
2024-08-03 21:45:47			0	35961	0	0	0	29745	28360	170733	26890	1067502	45862	111067	0	0	7988	621408	0	0
2024-08-03 21:46:47			0	35945	0	0	0	29732	28360	171001	26882	1067502	45840	111062	0	0	7987	622081	0	0
2024-08-03 21:47:47			0	35935	0	0	0	29729	28360	170989	26889	1067502	45840	111061	0	0	7987	622501	0	0
2024-08-03 21:48:47			0	35909	0	0	0	29716	28360	171061	27000	1067412	45850	111056	0	0	7985	623596	0	0
2024-08-03 21:49:47			0	35897	0	0	0	29714	28360	171221	26687	1067412	45850	111055	0	0	7985	624101	0	0
2024-08-03 21:50:47			0	35893	0	0	0	29701	28350	171197	26984	1067421	45839	111050	0	0	7985	624306	0	0
2024-08-03 21:51:47			0	35872	0	0	0	29680	28340	171213	27067	1067349	45837	111042	0	0	7984	625228	0	0
2024-08-03 21:52:47			0	35866	0	0	0	29683	28340	171253	26807	1067277	45849	111043	0	0	7983	625481	0	0
2024-08-03 21:53:47			0	35853	0	0	0	29693	28330	171340	26802	1067313	45837	111047	0	0	7982	626066	0	0
2024-08-03 21:54:47			0	35842	0	0	0	29685	28330	171440	27086	1067313	45837	111044	0	0	7982	626531	0	0
2024-08-03 21:55:47			0	35824	0	0	0	29670	28330	171468	26956	1067223	45848	111038	0	0	7981	627292	0	0
2024-08-03 21:56:47			0	35819	0	0	0	29677	28320	171576	26845	1067295	45847	111041	0	0	7980	627540	0	0
2024-08-03 21:57:47			0	35814	0	0	0	29667	28310	171696	27197	1067241	45846	111037	0	0	7980	627787	0	0
2024-08-03 21:58:47			0	35784	0	0	0	29683	28320	171736	26701	1067205	45835	111043	0	0	7978	629022	0	0
2024-08-03 21:59:47			0	35778	0	0	0	29680	28310	171820	26996	1067250	45846	111042	0	0	7978	629312	0	0
2024-08-03 22:00:47			0	35743	0	0	0	29672	28310	171860	26814	1067196	45846	111039	0	0	7976	630798	0	0
2024-08-03 22:01:47			0	35757	0	0	0	29672	28300	171876	27069	1067143	45856	111039	0	0	7977	630240	0	0
2024-08-03 22:02:47			0	35750	0	0	0	29670	28310	171844	26805	1067161	45846	111038	0	0	7976	630500	0	0
2024-08-03 22:03:47			0	35759	0	0	0	29667	28300	171840	26726	1067089	45844	111037	0	0	7977	630155	0	0
2024-08-03 22:04:47			0	35763	0	0	0	29675	28300	171860	26894	1067143	45844	111040	0	0	7977	629985	0	0
2024-08-03 22:05:47			0	35768	0	0	0	29670	28300	171760	26939	1067170	45833	111038	0	0	7977	629773	0	0
2024-08-03 22:06:47			0	35749	0	0	0	29651	28300	171920	26750	1067143	45833	111031	0	0	7976	630579	0	0
2024-08-03 22:07:47			0	35764	0	0	0	29659	28280	171940	26817	1067089	45833	111034	0	0	7977	630015	0	0
2024-08-03 22:08:47			0	35763	0	0	0	29649	28280	171852	27052	1067107	45832	111030	0	0	7977	630058	0	0
2024-08-03 22:09:47			0	35746	0	0	0	29657	28280	171888	26715	1067089	45843	111033	0	0	7976	630780	0	0
2024-08-03 22:10:47			0	35747	0	0	0	29667	28280	171852	26819	1067053	45854	111037	0	0	7976	630737	0	0
2024-08-03 22:11:47			0	35755	0	0	0	29654	28280	171916	26686	1067035	45843	111032	0	0	7977	630397	0	0
2024-08-03 22:12:47			0	35741	0	0	0	29654	28270	171948	26609	1067035	45841	111032	0	0	7976	631028	0	0
2024-08-03 22:13:47			0	35730	0	0	0	29649	28260	172004	26753	1067079	45831	111030	0	0	7975	631532	0	0
2024-08-03 22:14:47			0	35760	0	0	0	29651	28270	171924	26944	1067061	45831	111031	0	0	7977	630222	0	0
2024-08-03 22:15:47			0	35758	0	0	0	29636	28270	171740	26783	1067008	45841	111025	0	0	7977	630306	0	0
2024-08-03 22:16:47			0	35768	0	0	0	29644	28270	171864	26686	1067044	45853	111028	0	0	7978	629882	0	0
2024-08-03 22:17:47			0	35777	0	0	0	29631	28260	171760	26471	1067016	45852	111023	0	0	7978	629537	0	0
2024-08-03 22:18:47			0	35780	0	0	0	29631	28260	171720	26595	1066891	45831	111023	0	0	7978	629409	0	0
2024-08-03 22:19:47			0	35755	0	0	0	29636	28260	171808	26882	1066935	45852	111025	0	0	7977	630470	0	0
2024-08-03 22:20:47			0	35733	0	0	0	29628	28250	171956	26644	1066953	45829	111022	0	0	7976	631441	0	0
2024-08-03 22:21:47			0	35759	0	0	0	29633	28250	171796	26804	1066944	45851	111024	0	0	7977	630337	0	0
2024-08-03 22:22:47			0	35757	0	0	0	29612	28250	171880	26746	1066918	45839	111016	0	0	7977	630422	0	0
2024-08-03 22:23:47			0	35710	0	0	0	29615	28250	172100	26811	1066864	45839	111017	0	0	7974	632419	0	0
2024-08-03 22:24:47			0	35685	0	0	0	29623	28240	172152	26975	1066873	45828	111020	0	0	7973	633520	0	0
2024-08-03 22:25:47			0	35673	0	0	0	29612	28240	172340	26894	1066855	45839	111016	0	0	7972	634032	0	0
2024-08-03 22:26:47			0	35608	0	0	0	29615	28240	172548	26977	1066900	45838	111017	0	0	7968	636807	0	0
2024-08-03 22:27:47			0	35535	0	0	0	29612	28230	172900	26817	1066855	45849	111016	0	0	7964	639972	0	0
2024-08-03 22:28:47			0	35504	0	0	0	29607	28240	173028	26944	1066846	45838	111014	0	0	7962	641266	0	0
2024-08-03 22:29:47			0	35462	0	0	0	29605	28230	173324	26890	1066801	45837	111013	0	0	7959	643110	0	0
2024-08-03 22:30:47			0	35402	0	0	0	29599	28230	173592	26719	1066864	45849	111011	0	0	7956	645699	0	0
2024-08-03 22:31:47			0	35385	0	0	0	29592	28220	173592	26580	1066810	45836	111008	0	0	7955	646471	0	0
2024-08-03 22:32:47			0	35369	0	0	0	29592	28220	173824	26644	1066702	45836	111008	0	0	7954	647163	0	0
2024-08-03 22:33:47			0	35347	0	0	0	29599	28220	173800	26791	1066711	45848	111011	0	0	7952	648115	0	0
2024-08-03 22:34:47			0	35346	0	0	0	29602	28220	173884	26824	1066684	45836	111012	0	0	7952	648159	0	0
2024-08-03 22:35:47			0	35339	0	0	0	29579	28200	173828	26861	1066567	45834	111003	0	0	7952	648537	0	0
2024-08-03 22:36:47			0	35353	0	0	0	29594	28200	173884	26752	1066639	45834	111009	0	0	7953	647930	0	0
2024-08-03 22:37:47			0	35346	0	0	0	29586	28210	173912	26958	1066693	45835	111006	0	0	7952	648196	0	0
2024-08-03 22:38:47			0	35343	0	0	0	29589	28210	173884	26684	1066684	45858	111007	0	0	7952	648326	0	0
2024-08-03 22:39:47			0	35342	0	0	0	29584	28200	173844	26885	1066639	45846	111005	0	0	7952	648407	0	0
2024-08-03 22:40:47			0	35347	0	0	0	29584	28200	173812	26937	1066612	45834	111005	0	0	7952	648190	0	0
2024-08-03 22:41:47			0	35342	0	0	0	29573	28200	173964	26861	1066639	45824	111001	0	0	7952	648407	0	0
2024-08-03 22:42:47			0	35320	0	0	0	29584	28190	174072	26883	1066594	45833	111005	0	0	7951	649398	0	0
2024-08-03 22:43:47			0	35297	0	0	0	29573	28190	174172	26868	1066550	45833	111001	0	0	7949	650397	0	0
2024-08-03 22:44:47			0	35315	0	0	0	29581	28200	174084	26757	1066585	45834	111004	0	0	7950	649578	0	0
2024-08-03 22:45:47			0	35305	0	0	0	29571	28190	174192	26880	1066621	45822	111000	0	0	7950	650049	0	0
2024-08-03 22:46:47			0	35324	0	0	0	29571	28180	174116	26889	1066558	45866	111000	0	0	7951	649262	0	0
2024-08-03 22:47:47			0	35289	0	0	0	29568	28180	174384	26934	1066558	45844	110999	0	0	7949	650782	0	0
2024-08-03 22:48:47			0	35290	0	0	0	29573	28180	174268	26967	1066532	45833	111001	0	0	7949	650738	0	0
2024-08-03 22:49:47			0	35284	0	0	0	29568	28180	174424	27123	1066550	45822	110999	0	0	7949	650999	0	0
2024-08-03 22:50:47			0	35263	0	0	0	29561	28170	174368	27223	1066541	45832	110996	0	0	7947	651950	0	0
2024-08-03 22:51:47			0	35259	0	0	0	29550	28170	174312	27079	1066487	45832	110992	0	0	7947	652124	0	0
2024-08-03 22:52:47			0	35243	0	0	0	29558	28180	174412	26896	1066550	45844	110995	0	0	7946	652783	0	0
2024-08-03 22:53:47			0	35213	0	0	0	29553	28170	174536	27039	1066487	45843	110993	0	0	7944	654128	0	0
2024-08-03 22:54:47			0	35197	0	0	0	29548	28170	174644	27105	1066478	45831	110991	0	0	7944	654827	0	0
2024-08-03 22:55:47			0	35184	0	0	0	29537	28170	174808	26873	1066505	45842	110987	0	0	7943	655394	0	0
2024-08-03 22:56:47			0	35173	0	0	0	29542	28160	174880	27121	1066469	45842	110989	0	0	7942	655913	0	0
2024-08-03 22:57:47			0	35147	0	0	0	29542	28160	174992	26909	1066442	45831	110989	0	0	7940	657050	0	0
2024-08-03 22:58:47			0	35169	0	0	0	29537	28150	174848	26844	1066450	45830	110987	0	0	7942	656126	0	0
2024-08-03 22:59:47			0	35192	0	0	0	29542	28160	174864	26852	1066379	45830	110989	0	0	7943	655083	0	0
2024-08-03 23:00:47			0	35192	0	0	0	29535	28150	174784	26941	1066477	45841	110986	0	0	7943	655121	0	0
2024-08-03 23:01:47			0	35194	0	0	0	29540	28140	174796	26899	1066406	45829	110988	0	0	7943	655071	0	0
2024-08-03 23:02:47			0	35178	0	0	0	29545	28150	174852	27111	1066397	45841	110990	0	0	7942	655732	0	0
2024-08-03 23:03:47			0	35178	0	0	0	29532	28150	174984	26984	1066361	45840	110985	0	0	7943	655732	0	0
2024-08-03 23:04:47			0	35150	0	0	0	29529	28160	175004	27039	1066406	45841	110984	0	0	7941	656919	0	0
2024-08-03 23:05:47			0	35103	0	0	0	29532	28140	175147	26996	1066325	45840	110985	0	0	7938	659054	0	0
2024-08-03 23:06:47			0	35085	0	0	0	29527	28140	175311	26949	1066397	45839	110983	0	0	7937	659844	0	0
2024-08-03 23:07:47			0	35070	0	0	0	29532	28150	175291	26698	1066361	45851	110985	0	0	7936	660465	0	0
2024-08-03 23:08:47			0	35092	0	0	0	29529	28140	175299	26757	1066397	45839	110984	0	0	7937	659537	0	0
2024-08-03 23:09:47			0	35089	0	0	0	29529	28150	175331	26868	1066361	45840	110984	0	0	7937	659630	0	0
2024-08-03 23:10:47			0	35070	0	0	0	29524	28130	175415	27020	1066307	45839	110982	0	0	7936	660541	0	0
2024-08-03 23:11:47			0	35061	0	0	0	29514	28140	175463	26981	1066316	45817	110978	0	0	7935	660898	0	0
2024-08-03 23:12:47			0	35028	0	0	0	29511	28140	175523	27085	1066316	45839	110977	0	0	7933	662350	0	0
2024-08-03 23:13:47			0	35042	0	0	0	29511	28130	175619	26994	1066334	45839	110977	0	0	7934	661772	0	0
2024-08-03 23:14:47			0	35039	0	0	0	29519	28120	175695	26712	1066262	45838	110980	0	0	7934	661942	0	0
2024-08-03 23:15:47			0	35033	0	0	0	29516	28120	175571	26982	1066289	45827	110979	0	0	7934	662206	0	0
2024-08-03 23:16:47			0	35057	0	0	0	29516	28130	175487	26779	1066253	45839	110979	0	0	7935	661112	0	0
2024-08-03 23:17:47			0	35058	0	0	0	29522	28130	175535	26845	1066271	45838	110981	0	0	7935	661068	0	0
2024-08-03 23:18:47			0	35066	0	0	0	29511	28130	175435	26654	1066325	45827	110977	0	0	7936	660717	0	0
2024-08-03 23:19:47			0	35092	0	0	0	29514	28120	175375	26856	1066316	45838	110978	0	0	7937	659613	0	0
2024-08-03 23:20:47			0	35101	0	0	0	29514	28140	175223	26746	1066289	45839	110978	0	0	7938	659142	0	0
2024-08-03 23:21:47			0	35177	0	0	0	29522	28110	174820	26932	1066244	45837	110981	0	0	7942	655927	0	0
2024-08-03 23:22:47			0	35306	0	0	0	29516	28120	174288	26719	1066253	45848	110979	0	0	7951	650269	0	0
2024-08-03 23:23:47			0	35389	0	0	0	29501	28130	173784	26941	1066352	45838	110973	0	0	7956	646634	0	0
2024-08-03 23:24:47			0	35461	0	0	0	29511	28120	173524	26656	1066262	45838	110977	0	0	7960	643562	0	0
2024-08-03 23:25:47			0	35503	0	0	0	29511	28120	173296	26837	1066262	45827	110977	0	0	7963	641754	0	0
2024-08-03 23:26:47			0	35539	0	0	0	29516	28120	173280	26811	1066280	45837	110979	0	0	7965	640206	0	0
2024-08-03 23:27:47			0	35538	0	0	0	29516	28110	173148	26776	1066163	45837	110979	0	0	7965	640286	0	0
2024-08-03 23:28:47			0	35558	0	0	0	29514	28110	173156	26873	1066271	45837	110978	0	0	7966	639428	0	0
2024-08-03 23:29:47			0	35569	0	0	0	29511	28110	173040	26646	1066217	45837	110977	0	0	7967	638956	0	0
2024-08-03 23:30:47			0	35590	0	0	0	29511	28110	172928	26537	1066217	45837	110977	0	0	7968	638056	0	0
2024-08-03 23:31:47			0	35531	0	0	0	29514	28120	173092	26833	1066307	45826	110978	0	0	7964	640550	0	0
2024-08-03 23:32:47			0	35506	0	0	0	29501	28110	173368	26878	1066208	45814	110973	0	0	7963	641662	0	0
2024-08-03 23:33:47			0	35504	0	0	0	29514	28100	173352	26786	1066253	45836	110978	0	0	7963	641785	0	0
2024-08-03 23:34:47			0	35521	0	0	0	29503	28110	173240	26845	1066181	45836	110974	0	0	7964	641017	0	0
2024-08-03 23:35:47			0	35546	0	0	0	29501	28110	173092	26913	1066217	45837	110973	0	0	7966	639943	0	0
2024-08-03 23:36:47			0	35572	0	0	0	29501	28120	173004	26896	1066253	45826	110973	0	0	7967	638791	0	0
2024-08-03 23:37:47			0	35584	0	0	0	29496	28090	173004	26977	1066190	45835	110971	0	0	7968	638387	0	0
2024-08-03 23:38:47			0	35605	0	0	0	29498	28110	172904	26762	1066208	45836	110972	0	0	7969	637414	0	0
2024-08-03 23:39:47			0	35600	0	0	0	29503	28110	172904	26828	1066217	45826	110974	0	0	7969	637628	0	0
2024-08-03 23:40:47			0	35611	0	0	0	29501	28110	172892	26908	1066289	45836	110973	0	0	7970	637157	0	0
2024-08-03 23:41:47			0	35607	0	0	0	29501	28100	172840	26961	1066226	45836	110973	0	0	7969	637365	0	0
2024-08-03 23:42:47			0	35604	0	0	0	29493	28100	172904	26977	1066199	45836	110970	0	0	7969	637493	0	0
2024-08-03 23:43:47			0	35585	0	0	0	29485	28110	173024	26733	1066208	45836	110967	0	0	7968	638270	0	0
2024-08-03 23:44:47			0	35582	0	0	0	29496	28090	173096	26689	1066217	45835	110971	0	0	7968	638472	0	0
2024-08-03 23:45:47			0	35588	0	0	0	29496	28100	172844	26831	1066199	45825	110971	0	0	7968	638178	0	0
2024-08-03 23:46:47			0	35600	0	0	0	29496	28100	172984	26826	1066172	45836	110971	0	0	7969	637665	0	0
2024-08-03 23:47:47			0	35572	0	0	0	29496	28090	173180	26805	1066163	45824	110971	0	0	7967	638901	0	0
2024-08-03 23:48:47			0	35553	0	0	0	29490	28100	173216	26842	1066145	45836	110969	0	0	7966	639679	0	0
2024-08-03 23:49:47			0	35546	0	0	0	29488	28100	173296	26948	1066172	45825	110968	0	0	7966	639980	0	0
2024-08-03 23:50:47			0	35535	0	0	0	29483	28090	173228	26915	1066181	45845	110966	0	0	7965	640489	0	0
2024-08-03 23:51:47			0	35531	0	0	0	29483	28090	173348	26786	1066083	45835	110966	0	0	7965	640661	0	0
2024-08-03 23:52:47			0	35508	0	0	0	29477	28090	173408	26694	1066109	45835	110964	0	0	7964	641650	0	0
2024-08-03 23:53:47			0	35507	0	0	0	29467	28100	173484	26816	1066091	45836	110960	0	0	7964	641656	0	0
2024-08-03 23:54:47			0	35492	0	0	0	29467	28090	173548	26613	1066154	45823	110960	0	0	7963	642338	0	0
2024-08-03 23:55:47			0	35471	0	0	0	29459	28080	173664	26727	1066118	45823	110957	0	0	7962	643280	0	0
2024-08-03 23:56:47			0	35436	0	0	0	29462	28080	173740	26863	1066011	45812	110958	0	0	7959	644789	0	0
2024-08-03 23:57:47			0	35402	0	0	0	29464	28090	173888	26850	1066020	45823	110959	0	0	7957	646221	0	0
2024-08-03 23:58:47			0	35405	0	0	0	29464	28070	174072	26400	1066011	45833	110959	0	0	7957	646166	0	0
2024-08-03 23:59:47			0	35399	0	0	0	29467	28080	174016	26580	1066029	45844	110960	0	0	7957	646388	0	0
2024-08-04 00:00:47			0	35403	0	0	0	29451	28080	173976	26793	1066029	45833	110954	0	0	7957	646215	0	0
2024-08-04 00:01:47			0	35410	0	0	0	29449	28070	173992	26745	1066074	45833	110953	0	0	7958	645950	0	0
2024-08-04 00:02:47			0	35410	0	0	0	29454	28070	173912	26726	1065966	45822	110955	0	0	7958	645950	0	0
2024-08-04 00:03:47			0	35431	0	0	0	29451	28050	173936	26974	1065930	45842	110954	0	0	7959	645117	0	0
2024-08-04 00:04:47			0	35445	0	0	0	29436	28070	173872	26935	1065957	45821	110948	0	0	7960	644438	0	0
2024-08-04 00:05:47			0	35420	0	0	0	29438	28060	173808	26691	1065939	45832	110949	0	0	7959	645555	0	0
2024-08-04 00:06:47			0	35399	0	0	0	29446	28060	174092	26911	1065939	45842	110952	0	0	7957	646462	0	0
2024-08-04 00:07:47			0	35365	0	0	0	29436	28060	174280	27000	1065867	45833	110948	0	0	7955	647934	0	0
2024-08-04 00:08:47			0	35362	0	0	0	29436	28040	174088	26856	1065831	45819	110948	0	0	7955	648139	0	0
2024-08-04 00:09:47			0	35411	0	0	0	29438	28050	174056	26805	1065930	45798	110949	0	0	7958	645981	0	0
2024-08-04 00:10:47			0	35407	0	0	0	29433	28050	173804	26746	1065894	45831	110947	0	0	7958	646154	0	0
2024-08-04 00:11:47			0	35447	0	0	0	29423	28040	173740	26724	1065858	45807	110943	0	0	7960	644463	0	0
2024-08-04 00:12:47			0	35476	0	0	0	29444	28040	173720	26712	1065885	45819	110951	0	0	7962	643213	0	0
2024-08-04 00:13:47			0	35480	0	0	0	29441	28050	173664	27026	1065930	45832	110950	0	0	7962	643003	0	0
2024-08-04 00:14:47			0	35517	0	0	0	29444	28040	173444	26771	1065831	45840	110951	0	0	7964	641448	0	0
2024-08-04 00:15:47			0	35542	0	0	0	29441	28040	173288	26854	1065876	45830	110950	0	0	7966	640373	0	0
2024-08-04 00:16:47			0	35554	0	0	0	29441	28040	173088	26906	1065849	45819	110950	0	0	7967	639858	0	0
2024-08-04 00:17:47			0	35555	0	0	0	29444	28030	173272	27017	1065894	45819	110951	0	0	7967	639852	0	0
2024-08-04 00:18:47			0	35513	0	0	0	29441	28040	173432	26977	1065885	45830	110950	0	0	7964	641620	0	0
2024-08-04 00:19:47			0	35498	0	0	0	29438	28030	173552	26715	1065867	45819	110949	0	0	7963	642302	0	0
2024-08-04 00:20:47			0	35505	0	0	0	29433	28050	173584	26856	1066002	45841	110947	0	0	7964	641927	0	0
2024-08-04 00:21:47			0	35477	0	0	0	29436	28040	173532	26627	1065876	45819	110948	0	0	7962	643169	0	0
2024-08-04 00:22:47			0	35470	0	0	0	29433	28040	173656	26896	1065858	45830	110947	0	0	7962	643471	0	0
2024-08-04 00:23:47			0	35464	0	0	0	29433	28030	173776	27166	1065831	45839	110947	0	0	7961	643767	0	0
2024-08-04 00:24:47			0	35415	0	0	0	29420	28030	173832	27095	1065867	45840	110942	0	0	7958	645882	0	0
2024-08-04 00:25:47			0	35389	0	0	0	29431	28030	174080	27112	1065804	45829	110946	0	0	7957	647007	0	0
2024-08-04 00:26:47			0	35373	0	0	0	29420	28040	174020	26918	1065912	45830	110942	0	0	7956	647662	0	0
2024-08-04 00:27:47			0	35360	0	0	0	29415	28030	174128	27043	1065786	45830	110940	0	0	7955	648263	0	0
2024-08-04 00:28:47			0	35382	0	0	0	29418	28020	174132	26928	1065822	45817	110941	0	0	7956	647347	0	0
2024-08-04 00:29:47			0	35387	0	0	0	29415	28020	174164	26909	1065903	45817	110940	0	0	7957	647131	0	0
2024-08-04 00:30:47			0	35396	0	0	0	29410	28030	174156	27092	1065831	45829	110938	0	0	7957	646704	0	0
2024-08-04 00:31:47			0	35411	0	0	0	29418	28020	173896	26814	1065795	45828	110941	0	0	7958	646093	0	0
2024-08-04 00:32:47			0	35422	0	0	0	29423	28020	173764	26736	1065813	45817	110943	0	0	7959	645617	0	0
2024-08-04 00:33:47			0	35456	0	0	0	29418	28020	173704	26764	1065822	45828	110941	0	0	7961	644149	0	0
2024-08-04 00:34:47			0	35442	0	0	0	29418	28010	173860	26908	1065750	45828	110941	0	0	7960	644790	0	0
2024-08-04 00:35:47			0	35421	0	0	0	29405	28020	173912	26637	1065795	45817	110936	0	0	7959	645660	0	0
2024-08-04 00:36:47			0	35412	0	0	0	29410	28020	173980	26795	1065849	45828	110938	0	0	7958	646049	0	0
2024-08-04 00:37:47			0	35415	0	0	0	29410	28020	174044	26741	1065822	45828	110938	0	0	7959	645920	0	0
2024-08-04 00:38:47			0	35403	0	0	0	29418	28030	173984	26930	1065804	45806	110941	0	0	7958	646401	0	0
2024-08-04 00:39:47			0	35426	0	0	0	29415	28020	173936	26908	1065732	45838	110940	0	0	7959	645444	0	0
2024-08-04 00:40:47			0	35439	0	0	0	29407	28020	173848	27161	1065813	45828	110937	0	0	7960	644883	0	0
2024-08-04 00:41:47			0	35455	0	0	0	29399	28020	173744	26769	1065786	45838	110934	0	0	7961	644192	0	0
2024-08-04 00:42:47			0	35474	0	0	0	29394	28010	173684	26857	1065714	45816	110932	0	0	7962	643410	0	0
2024-08-04 00:43:47			0	35496	0	0	0	29386	28010	173636	27034	1065714	45816	110929	0	0	7964	642462	0	0
2024-08-04 00:44:47			0	35468	0	0	0	29392	28000	173720	26724	1065732	45815	110931	0	0	7962	643706	0	0
2024-08-04 00:45:47			0	35443	0	0	0	29386	28010	173940	26821	1065714	45816	110929	0	0	7961	644747	0	0
2024-08-04 00:46:47			0	35408	0	0	0	29379	28000	174076	26781	1065652	45815	110926	0	0	7959	646297	0	0
2024-08-04 00:47:47			0	35371	0	0	0	29394	28000	174256	26878	1065670	45815	110932	0	0	7956	647899	0	0
2024-08-04 00:48:47			0	35366	0	0	0	29384	27990	174300	26965	1065687	45814	110928	0	0	7956	648152	0	0
2024-08-04 00:49:47			0	35350	0	0	0	29389	27990	174264	27017	1065714	45814	110930	0	0	7955	648846	0	0
2024-08-04 00:50:47			0	35403	0	0	0	29394	28000	174168	26661	1065705	45826	110932	0	0	7958	646513	0	0
2024-08-04 00:51:47			0	35419	0	0	0	29389	27990	174044	26804	1065687	45825	110930	0	0	7959	645859	0	0
2024-08-04 00:52:47			0	35435	0	0	0	29389	28000	173868	26805	1065670	45826	110930	0	0	7960	645130	0	0
2024-08-04 00:53:47			0	35448	0	0	0	29386	28000	173784	26583	1065696	45815	110929	0	0	7961	644569	0	0
2024-08-04 00:54:47			0	35469	0	0	0	29394	28000	173672	26693	1065696	45826	110932	0	0	7962	643663	0	0
2024-08-04 00:55:47			0	35470	0	0	0	29399	28000	173752	26935	1065678	45836	110934	0	0	7962	643620	0	0
2024-08-04 00:56:47			0	35449	0	0	0	29389	27990	173736	27039	1065714	45814	110930	0	0	7961	644563	0	0
2024-08-04 00:57:47			0	35469	0	0	0	29389	27990	173776	26925	1065714	45825	110930	0	0	7962	643700	0	0
2024-08-04 00:58:47			0	35462	0	0	0	29376	27990	173680	26880	1065661	45825	110925	0	0	7962	644002	0	0
2024-08-04 00:59:47			0	35436	0	0	0	29379	27990	173864	26720	1065679	45825	110926	0	0	7960	645124	0	0
2024-08-04 01:00:47			0	35433	0	0	0	29376	27990	173892	26974	1065687	45825	110925	0	0	7960	645254	0	0
2024-08-04 01:01:47			0	35394	0	0	0	29376	27990	174116	26717	1065607	45825	110925	0	0	7958	646940	0	0
2024-08-04 01:02:47			0	35382	0	0	0	29379	27990	174144	27085	1065661	45825	110926	0	0	7957	647459	0	0
2024-08-04 01:03:47			0	35387	0	0	0	29371	27980	174248	26760	1065670	45813	110923	0	0	7957	647280	0	0
2024-08-04 01:04:47			0	35405	0	0	0	29379	27990	174108	27034	1065598	45835	110926	0	0	7958	646464	0	0
2024-08-04 01:05:47			0	35379	0	0	0	29371	27980	174136	26812	1065616	45813	110923	0	0	7957	647627	0	0
2024-08-04 01:06:47			0	35379	0	0	0	29374	27980	174208	26712	1065589	45824	110924	0	0	7957	647627	0	0
2024-08-04 01:07:47			0	35401	0	0	0	29366	27980	174032	27144	1065643	45834	110921	0	0	7958	646674	0	0
2024-08-04 01:08:47			0	35443	0	0	0	29366	27970	173864	26890	1065589	45812	110921	0	0	7961	644896	0	0
2024-08-04 01:09:47			0	35450	0	0	0	29381	27980	173804	27104	1065607	45812	110927	0	0	7961	644557	0	0
2024-08-04 01:10:47			0	35453	0	0	0	29374	27960	173716	26828	1065526	45822	110924	0	0	7961	644502	0	0
2024-08-04 01:11:47			0	35480	0	0	0	29384	27980	173632	26859	1065607	45823	110928	0	0	7963	643263	0	0
2024-08-04 01:12:47			0	35497	0	0	0	29374	27980	173600	26913	1065607	45812	110924	0	0	7964	642530	0	0
2024-08-04 01:13:47			0	35491	0	0	0	29381	27980	173628	27208	1065607	45823	110927	0	0	7964	642789	0	0
2024-08-04 01:14:47			0	35505	0	0	0	29371	27980	173620	26674	1065634	45823	110923	0	0	7965	642186	0	0
2024-08-04 01:15:47			0	35486	0	0	0	29368	27970	173536	26613	1065589	45812	110922	0	0	7963	643041	0	0
2024-08-04 01:16:47			0	35507	0	0	0	29368	27960	173540	26920	1065580	45811	110922	0	0	7965	642174	0	0
2024-08-04 01:17:47			0	35501	0	0	0	29371	27970	173564	27062	1065616	45823	110923	0	0	7964	642395	0	0
2024-08-04 01:18:47			0	35498	0	0	0	29368	27960	173724	26892	1065553	45811	110922	0	0	7964	642561	0	0
2024-08-04 01:19:47			0	35493	0	0	0	29363	27960	173612	26863	1065580	45822	110920	0	0	7964	642777	0	0
2024-08-04 01:20:47			0	35486	0	0	0	29361	27980	173620	26805	1065553	45812	110919	0	0	7964	643004	0	0
2024-08-04 01:21:47			0	35465	0	0	0	29361	27970	173816	26755	1065562	45833	110919	0	0	7962	643947	0	0
2024-08-04 01:22:47			0	35463	0	0	0	29368	27970	173936	26720	1065616	45812	110922	0	0	7962	644033	0	0
2024-08-04 01:23:47			0	35445	0	0	0	29363	27960	173872	27043	1065544	45832	110920	0	0	7961	644847	0	0
2024-08-04 01:24:47			0	35467	0	0	0	29368	27970	173808	26913	1065562	45845	110922	0	0	7962	643860	0	0
2024-08-04 01:25:47			0	35471	0	0	0	29363	27960	173788	26850	1065553	45822	110920	0	0	7963	643725	0	0
2024-08-04 01:26:47			0	35504	0	0	0	29366	27960	173720	27008	1065463	45832	110921	0	0	7965	642303	0	0
2024-08-04 01:27:47			0	35488	0	0	0	29366	27960	173872	26972	1065517	45832	110921	0	0	7964	642992	0	0
2024-08-04 01:28:47			0	35488	0	0	0	29363	27960	173796	27104	1065553	45811	110920	0	0	7964	642992	0	0
2024-08-04 01:29:47			0	35492	0	0	0	29363	27960	173768	26819	1065499	45833	110920	0	0	7964	642820	0	0
2024-08-04 01:30:47			0	35463	0	0	0	29363	27960	173852	26786	1065553	45822	110920	0	0	7962	644070	0	0
2024-08-04 01:31:47			0	35490	0	0	0	29358	27960	173852	26941	1065517	45832	110918	0	0	7964	642906	0	0
2024-08-04 01:32:47			0	35492	0	0	0	29363	27960	173800	26672	1065553	45811	110920	0	0	7964	642820	0	0
2024-08-04 01:33:47			0	35483	0	0	0	29353	27960	173752	26823	1065553	45822	110916	0	0	7963	643208	0	0
2024-08-04 01:34:47			0	35498	0	0	0	29363	27960	173736	26868	1065544	45821	110920	0	0	7964	642561	0	0
2024-08-04 01:35:47			0	35498	0	0	0	29361	27960	173684	26941	1065553	45811	110919	0	0	7964	642561	0	0
2024-08-04 01:36:47			0	35499	0	0	0	29361	27950	173788	26852	1065589	45821	110919	0	0	7964	642556	0	0
2024-08-04 01:37:47			0	35492	0	0	0	29353	27950	173712	26660	1065508	45832	110916	0	0	7964	642857	0	0
2024-08-04 01:38:47			0	35493	0	0	0	29361	27950	173728	26694	1065535	45821	110919	0	0	7964	642814	0	0
2024-08-04 01:39:47			0	35499	0	0	0	29353	27960	173712	26812	1065526	45811	110916	0	0	7964	642518	0	0
2024-08-04 01:40:47			0	35486	0	0	0	29355	27950	173724	27137	1065481	45821	110917	0	0	7964	643116	0	0
2024-08-04 01:41:47			0	35474	0	0	0	29345	27960	173768	26939	1065544	45832	110913	0	0	7963	643596	0	0
2024-08-04 01:42:47			0	35476	0	0	0	29337	27960	173832	26703	1065436	45810	110910	0	0	7963	643509	0	0
2024-08-04 01:43:47			0	35472	0	0	0	29337	27960	173828	26873	1065517	45821	110910	0	0	7963	643682	0	0
2024-08-04 01:44:47			0	35456	0	0	0	29337	27950	173880	27104	1065400	45821	110910	0	0	7962	644409	0	0
2024-08-04 01:45:47			0	35425	0	0	0	29345	27950	174004	27170	1065499	45821	110913	0	0	7960	645748	0	0
2024-08-04 01:46:47			0	35420	0	0	0	29340	27940	174244	26927	1065436	45842	110911	0	0	7960	646002	0	0
2024-08-04 01:47:47			0	35423	0	0	0	29340	27940	174132	27090	1065463	45820	110911	0	0	7960	645872	0	0
2024-08-04 01:48:47			0	35424	0	0	0	29345	27950	174032	26727	1065472	45821	110913	0	0	7960	645791	0	0
2024-08-04 01:49:47			0	35449	0	0	0	29335	27950	174068	26866	1065499	45832	110909	0	0	7962	644711	0	0
2024-08-04 01:50:47			0	35450	0	0	0	29332	27940	173940	26722	1065490	45809	110908	0	0	7962	644705	0	0
2024-08-04 01:51:47			0	35460	0	0	0	29329	27940	173912	26845	1065427	45819	110907	0	0	7962	644274	0	0
2024-08-04 01:52:47			0	35464	0	0	0	29319	27930	173924	26904	1065418	45830	110903	0	0	7963	644138	0	0
2024-08-04 01:53:47			0	35473	0	0	0	29322	27940	173932	26687	1065347	45819	110904	0	0	7963	643713	0	0
2024-08-04 01:54:47			0	35450	0	0	0	29311	27930	173984	26715	1065284	45808	110900	0	0	7962	644743	0	0
2024-08-04 01:55:47			0	35415	0	0	0	29306	27930	174108	26568	1065338	45808	110898	0	0	7960	646255	0	0
2024-08-04 01:56:47			0	35416	0	0	0	29309	27930	174236	26694	1065275	45819	110899	0	0	7960	646212	0	0
2024-08-04 01:57:47			0	35408	0	0	0	29316	27920	174212	26776	1065266	45818	110902	0	0	7959	646595	0	0
2024-08-04 01:58:47			0	35418	0	0	0	29319	27920	174112	26706	1065365	45817	110903	0	0	7960	646163	0	0
2024-08-04 01:59:47			0	35415	0	0	0	29314	27920	174168	26800	1065374	45807	110901	0	0	7960	646292	0	0
2024-08-04 02:00:47			0	35425	0	0	0	29316	27910	174148	26429	1065329	45793	110902	0	0	7960	645897	0	0
2024-08-04 02:01:47			0	35429	0	0	0	29311	27920	174040	26526	1065347	45818	110900	0	0	7961	645687	0	0
2024-08-04 02:02:47			0	35431	0	0	0	29316	27920	174036	26641	1065347	45818	110902	0	0	7961	645601	0	0
2024-08-04 02:03:47			0	35450	0	0	0	29324	27920	173936	26866	1065293	45818	110905	0	0	7962	644780	0	0
2024-08-04 02:04:47			0	35467	0	0	0	29316	27920	173992	26863	1065293	45818	110902	0	0	7963	644046	0	0
2024-08-04 02:05:47			0	35475	0	0	0	29332	27920	173840	26691	1065365	45817	110908	0	0	7963	643701	0	0
2024-08-04 02:06:47			0	35486	0	0	0	29319	27910	173888	26719	1065329	45816	110903	0	0	7964	643264	0	0
2024-08-04 02:07:47			0	35501	0	0	0	29324	27920	173828	26817	1065311	45828	110905	0	0	7965	642581	0	0
2024-08-04 02:08:47			0	35482	0	0	0	29296	27910	173796	26615	1065329	45816	110894	0	0	7964	643436	0	0
2024-08-04 02:09:47			0	35480	0	0	0	29296	27910	173812	26802	1065221	45793	110894	0	0	7964	643523	0	0
2024-08-04 02:10:47			0	35479	0	0	0	29303	27910	173808	26764	1065248	45816	110897	0	0	7964	643566	0	0
2024-08-04 02:11:47			0	35480	0	0	0	29293	27910	173904	26736	1065194	45805	110893	0	0	7964	643523	0	0
2024-08-04 02:12:47			0	35482	0	0	0	29280	27910	174024	26953	1065221	45805	110888	0	0	7964	643436	0	0
2024-08-04 02:13:47			0	35467	0	0	0	29270	27900	174068	26890	1065122	45793	110884	0	0	7964	644120	0	0
2024-08-04 02:14:47			0	35423	0	0	0	29262	27900	174020	26920	1065176	45805	110881	0	0	7961	646021	0	0
2024-08-04 02:15:47			0	35389	0	0	0	29267	27890	174324	26622	1065104	45803	110883	0	0	7959	647530	0	0
2024-08-04 02:16:47			0	35350	0	0	0	29285	27890	174516	26864	1065068	45814	110890	0	0	7956	649221	0	0
2024-08-04 02:17:47			0	35314	0	0	0	29290	27900	174688	26653	1065113	45804	110892	0	0	7954	650747	0	0
2024-08-04 02:18:47			0	35334	0	0	0	29296	27890	174492	26814	1065185	45803	110894	0	0	7955	649915	0	0
2024-08-04 02:19:47			0	35361	0	0	0	29298	27890	174424	26663	1065131	45814	110895	0	0	7956	648743	0	0
2024-08-04 02:20:47			0	35382	0	0	0	29298	27890	174384	26930	1065158	45803	110895	0	0	7958	647833	0	0
2024-08-04 02:21:47			0	35407	0	0	0	29296	27890	174364	26937	1065158	45814	110894	0	0	7959	646750	0	0
2024-08-04 02:22:47			0	35405	0	0	0	29290	27890	174376	27019	1065149	45814	110892	0	0	7959	646837	0	0
2024-08-04 02:23:47			0	35393	0	0	0	29298	27890	174300	26824	1065149	45826	110895	0	0	7958	647356	0	0
2024-08-04 02:24:47			0	35391	0	0	0	29290	27890	174296	26927	1065095	45803	110892	0	0	7958	647443	0	0
2024-08-04 02:25:47			0	35416	0	0	0	29293	27880	174304	26644	1065086	45803	110893	0	0	7960	646398	0	0
2024-08-04 02:26:47			0	35406	0	0	0	29290	27890	174176	26958	1065176	45814	110892	0	0	7959	646794	0	0
2024-08-04 02:27:47			0	35401	0	0	0	29293	27880	174132	27124	1065140	45803	110893	0	0	7959	647047	0	0
2024-08-04 02:28:47			0	35421	0	0	0	29285	27890	174216	27235	1065095	45826	110890	0	0	7960	646145	0	0
2024-08-04 02:29:47			0	35442	0	0	0	29277	27890	174108	27107	1065185	45814	110887	0	0	7962	645237	0	0
2024-08-04 02:30:47			0	35446	0	0	0	29280	27880	174052	27149	1065140	45803	110888	0	0	7962	645101	0	0
2024-08-04 02:31:47			0	35435	0	0	0	29283	27880	174028	27123	1065113	45814	110889	0	0	7961	645577	0	0
2024-08-04 02:32:47			0	35440	0	0	0	29283	27890	174016	26944	1065122	45826	110889	0	0	7962	645323	0	0
2024-08-04 02:33:47			0	35463	0	0	0	29283	27890	174056	26752	1065158	45826	110889	0	0	7963	644330	0	0
2024-08-04 02:34:47			0	35487	0	0	0	29288	27890	173932	26642	1065158	45803	110891	0	0	7964	643295	0	0
2024-08-04 02:35:47			0	35499	0	0	0	29290	27880	173852	26769	1065140	45826	110892	0	0	7965	642815	0	0
2024-08-04 02:36:47			0	35501	0	0	0	29290	27890	173748	26557	1065185	45814	110892	0	0	7965	642692	0	0
2024-08-04 02:37:47			0	35508	0	0	0	29288	27870	173736	26797	1065149	45812	110891	0	0	7966	642464	0	0
2024-08-04 02:38:47			0	35538	0	0	0	29277	27880	173620	26831	1065086	45803	110887	0	0	7968	641136	0	0
2024-08-04 02:39:47			0	35559	0	0	0	29272	27880	173524	26637	1065086	45814	110885	0	0	7969	640234	0	0
2024-08-04 02:40:47			0	35559	0	0	0	29277	27880	173536	26790	1065113	45814	110887	0	0	7969	640234	0	0
2024-08-04 02:41:47			0	35580	0	0	0	29267	27870	173408	26726	1065068	45812	110883	0	0	7970	639369	0	0
2024-08-04 02:42:47			0	35571	0	0	0	29267	27880	173348	26904	1065104	45825	110883	0	0	7970	639718	0	0
2024-08-04 02:43:47			0	35579	0	0	0	29267	27880	173404	27107	1065086	45803	110883	0	0	7970	639375	0	0
2024-08-04 02:44:47			0	35563	0	0	0	29270	27870	173500	27069	1065095	45812	110884	0	0	7969	640099	0	0
2024-08-04 02:45:47			0	35579	0	0	0	29262	27870	173416	26713	1065068	45801	110881	0	0	7970	639412	0	0
2024-08-04 02:46:47			0	35557	0	0	0	29262	27870	173456	26764	1065032	45801	110881	0	0	7969	640357	0	0
2024-08-04 02:47:47			0	35559	0	0	0	29264	27870	173552	26821	1065014	45812	110882	0	0	7969	640271	0	0
2024-08-04 02:48:47			0	35586	0	0	0	29259	27870	173492	26713	1065041	45812	110880	0	0	7971	639111	0	0
2024-08-04 02:49:47			0	35612	0	0	0	29251	27870	173296	26479	1064987	45824	110877	0	0	7973	637997	0	0
2024-08-04 02:50:47			0	35612	0	0	0	29246	27860	173344	26713	1064943	45812	110875	0	0	7973	638033	0	0
2024-08-04 02:51:47			0	35621	0	0	0	29246	27860	173364	26656	1064934	45800	110875	0	0	7973	637648	0	0
2024-08-04 02:52:47			0	35632	0	0	0	29236	27860	173264	26427	1064970	45812	110871	0	0	7974	637177	0	0
2024-08-04 02:53:47			0	35624	0	0	0	29236	27860	173224	26653	1064996	45812	110871	0	0	7974	637519	0	0
2024-08-04 02:54:47			0	35582	0	0	0	29223	27850	173280	26901	1064979	45799	110866	0	0	7971	639357	0	0
2024-08-04 02:55:47			0	35577	0	0	0	29220	27850	173592	26708	1064898	45810	110865	0	0	7971	639571	0	0
2024-08-04 02:56:47			0	35528	0	0	0	29231	27850	173612	26741	1064898	45810	110869	0	0	7968	641677	0	0
2024-08-04 02:57:47			0	35502	0	0	0	29228	27840	173712	26698	1064907	45809	110868	0	0	7966	642834	0	0
2024-08-04 02:58:47			0	35462	0	0	0	29215	27840	173984	26495	1064880	45809	110863	0	0	7964	644559	0	0
2024-08-04 02:59:47			0	35445	0	0	0	29210	27840	174004	26556	1064817	45798	110861	0	0	7963	645293	0	0
2024-08-04 03:00:47			0	35422	0	0	0	29215	27840	174104	26741	1064817	45821	110863	0	0	7961	646288	0	0
2024-08-04 03:01:47			0	35434	0	0	0	29207	27840	174092	26665	1064790	45798	110860	0	0	7962	645769	0	0
2024-08-04 03:02:47			0	35422	0	0	0	29202	27830	174208	26706	1064772	45796	110858	0	0	7962	646325	0	0
2024-08-04 03:03:47			0	35408	0	0	0	29210	27830	174256	26694	1064772	45796	110861	0	0	7961	646931	0	0
2024-08-04 03:04:47			0	35412	0	0	0	29202	27830	174328	26738	1064754	45786	110858	0	0	7961	646758	0	0
2024-08-04 03:05:47			0	35400	0	0	0	29205	27820	174316	26791	1064790	45807	110859	0	0	7960	647314	0	0
2024-08-04 03:06:47			0	35401	0	0	0	29194	27820	174360	26670	1064736	45807	110855	0	0	7960	647271	0	0
2024-08-04 03:07:47			0	35405	0	0	0	29186	27810	174288	26687	1064710	45794	110852	0	0	7961	647135	0	0
2024-08-04 03:08:47			0	35393	0	0	0	29199	27810	174380	26844	1064745	45806	110857	0	0	7960	647655	0	0
2024-08-04 03:09:47			0	35408	0	0	0	29192	27820	174492	26909	1064727	45807	110854	0	0	7961	646968	0	0
2024-08-04 03:10:47			0	35402	0	0	0	29194	27800	174372	26864	1064701	45817	110855	0	0	7960	647302	0	0
2024-08-04 03:11:47			0	35406	0	0	0	29189	27820	174304	26641	1064727	45807	110853	0	0	7961	647055	0	0
2024-08-04 03:12:47			0	35391	0	0	0	29192	27810	174348	26764	1064683	45805	110854	0	0	7960	647742	0	0
2024-08-04 03:13:47			0	35393	0	0	0	29176	27810	174420	26850	1064638	45806	110848	0	0	7960	647655	0	0
2024-08-04 03:14:47			0	35378	0	0	0	29179	27790	174460	26979	1064665	45805	110849	0	0	7959	648380	0	0
2024-08-04 03:15:47			0	35389	0	0	0	29184	27800	174480	26628	1064647	45794	110851	0	0	7960	647866	0	0
2024-08-04 03:16:47			0	35353	0	0	0	29171	27790	174564	26993	1064611	45805	110846	0	0	7958	649464	0	0
2024-08-04 03:17:47			0	35347	0	0	0	29181	27790	174572	26689	1064629	45804	110850	0	0	7957	649725	0	0
2024-08-04 03:18:47			0	35354	0	0	0	29176	27790	174728	27026	1064665	45794	110848	0	0	7958	649421	0	0
2024-08-04 03:19:47			0	35339	0	0	0	29179	27790	174676	26674	1064638	45817	110849	0	0	7957	650072	0	0
2024-08-04 03:20:47			0	35322	0	0	0	29186	27790	174736	26757	1064665	45794	110852	0	0	7955	650811	0	0
2024-08-04 03:21:47			0	35316	0	0	0	29189	27790	174664	26948	1064629	45804	110853	0	0	7955	651072	0	0
2024-08-04 03:22:47			0	35311	0	0	0	29189	27790	174880	26727	1064638	45817	110853	0	0	7955	651290	0	0
2024-08-04 03:23:47			0	35314	0	0	0	29192	27790	174872	26755	1064656	45804	110854	0	0	7955	651159	0	0
2024-08-04 03:24:47			0	35295	0	0	0	29192	27780	174796	26733	1064620	45815	110854	0	0	7954	652024	0	0
2024-08-04 03:25:47			0	35283	0	0	0	29179	27790	174944	26622	1064611	45805	110849	0	0	7953	652509	0	0
2024-08-04 03:26:47			0	35274	0	0	0	29176	27790	175072	26981	1064656	45793	110848	0	0	7953	652901	0	0
2024-08-04 03:27:47			0	35271	0	0	0	29192	27780	175024	26639	1064611	45802	110854	0	0	7952	653069	0	0
2024-08-04 03:28:47			0	35256	0	0	0	29179	27790	175076	26812	1064656	45793	110849	0	0	7951	653686	0	0
2024-08-04 03:29:47			0	35243	0	0	0	29173	27790	175140	26928	1064656	45793	110847	0	0	7951	654253	0	0
2024-08-04 03:30:47			0	35245	0	0	0	29176	27780	175088	26904	1064566	45803	110848	0	0	7951	654204	0	0
2024-08-04 03:31:47			0	35231	0	0	0	29173	27770	175208	26941	1064548	45814	110847	0	0	7950	654853	0	0
2024-08-04 03:32:47			0	35226	0	0	0	29173	27780	175252	26828	1064584	45814	110847	0	0	7950	655033	0	0
2024-08-04 03:33:47			0	35210	0	0	0	29163	27780	175260	26845	1064557	45814	110843	0	0	7949	655733	0	0
2024-08-04 03:34:47			0	35196	0	0	0	29161	27780	175312	27046	1064620	45803	110842	0	0	7948	656345	0	0
2024-08-04 03:35:47			0	35214	0	0	0	29163	27770	175364	26722	1064521	45802	110843	0	0	7949	655595	0	0
2024-08-04 03:36:47			0	35213	0	0	0	29166	27770	175232	26942	1064521	45791	110844	0	0	7949	655639	0	0
2024-08-04 03:37:47			0	35203	0	0	0	29161	27770	175352	26828	1064566	45802	110842	0	0	7948	656077	0	0
2024-08-04 03:38:47			0	35205	0	0	0	29173	27770	175440	26963	1064566	45814	110847	0	0	7948	655989	0	0
2024-08-04 03:39:47			0	35216	0	0	0	29158	27770	175332	26965	1064521	45802	110841	0	0	7949	655508	0	0
2024-08-04 03:40:47			0	35219	0	0	0	29163	27770	175264	26944	1064512	45802	110843	0	0	7949	655377	0	0
2024-08-04 03:41:47			0	35227	0	0	0	29150	27770	175260	26750	1064539	45791	110838	0	0	7950	655027	0	0
2024-08-04 03:42:47			0	35242	0	0	0	29158	27760	175240	26682	1064449	45791	110841	0	0	7951	654410	0	0
2024-08-04 03:43:47			0	35226	0	0	0	29161	27780	175188	26927	1064557	45802	110842	0	0	7950	655033	0	0
2024-08-04 03:44:47			0	35226	0	0	0	29166	27760	175296	26970	1064530	45813	110844	0	0	7950	655109	0	0
2024-08-04 03:45:47			0	35228	0	0	0	29163	27780	175232	26776	1064530	45791	110843	0	0	7950	654946	0	0
2024-08-04 03:46:47			0	35228	0	0	0	29166	27760	175164	26649	1064440	45800	110844	0	0	7950	655021	0	0
2024-08-04 03:47:47			0	35225	0	0	0	29155	27770	175268	26686	1064548	45802	110840	0	0	7950	655115	0	0
2024-08-04 03:48:47			0	35220	0	0	0	29166	27760	175100	26680	1064476	45791	110844	0	0	7949	655371	0	0
2024-08-04 03:49:47			0	35228	0	0	0	29163	27770	175304	26981	1064575	45802	110843	0	0	7950	654984	0	0
2024-08-04 03:50:47			0	35232	0	0	0	29168	27770	175120	26878	1064539	45814	110845	0	0	7950	654809	0	0
2024-08-04 03:51:47			0	35238	0	0	0	29153	27760	175248	26984	1064440	45800	110839	0	0	7951	654585	0	0
2024-08-04 03:52:47			0	35242	0	0	0	29150	27760	175116	26566	1064503	45813	110838	0	0	7951	654410	0	0
2024-08-04 03:53:47			0	35244	0	0	0	29150	27770	175184	26764	1064539	45791	110838	0	0	7951	654285	0	0
2024-08-04 03:54:47			0	35250	0	0	0	29161	27760	175176	27029	1064530	45801	110842	0	0	7951	654061	0	0
2024-08-04 03:55:47			0	35245	0	0	0	29145	27760	175184	26734	1064467	45800	110836	0	0	7951	654279	0	0
2024-08-04 03:56:47			0	35237	0	0	0	29132	27760	175228	27001	1064476	45801	110831	0	0	7951	654628	0	0
2024-08-04 03:57:47			0	35229	0	0	0	29132	27750	175276	26731	1064458	45800	110831	0	0	7950	655015	0	0
2024-08-04 03:58:47			0	35227	0	0	0	29124	27740	175228	26795	1064359	45799	110828	0	0	7950	655140	0	0
2024-08-04 03:59:47			0	35233	0	0	0	29137	27750	175212	26674	1064395	45800	110833	0	0	7951	654841	0	0
2024-08-04 04:00:47			0	35242	0	0	0	29137	27740	175072	26876	1064333	45789	110833	0	0	7951	654485	0	0
2024-08-04 04:01:47			0	35229	0	0	0	29148	27740	175108	26870	1064440	45799	110837	0	0	7950	655053	0	0
2024-08-04 04:02:47			0	35265	0	0	0	29145	27740	175116	26948	1064386	45799	110836	0	0	7952	653481	0	0
2024-08-04 04:03:47			0	35251	0	0	0	29145	27750	175084	27043	1064404	45790	110836	0	0	7952	654055	0	0
2024-08-04 04:04:47			0	35258	0	0	0	29142	27740	175112	26793	1064467	45811	110835	0	0	7952	653787	0	0
2024-08-04 04:05:47			0	35259	0	0	0	29129	27750	175132	26854	1064350	45800	110830	0	0	7952	653706	0	0
2024-08-04 04:06:47			0	35267	0	0	0	29122	27750	175088	26847	1064422	45800	110827	0	0	7953	653357	0	0
2024-08-04 04:07:47			0	35256	0	0	0	29114	27740	175060	26809	1064377	45798	110824	0	0	7952	653874	0	0
2024-08-04 04:08:47			0	35266	0	0	0	29116	27730	174992	26465	1064395	45798	110825	0	0	7953	653476	0	0
2024-08-04 04:09:47			0	35263	0	0	0	29103	27740	175136	26854	1064351	45798	110820	0	0	7953	653569	0	0
2024-08-04 04:10:47			0	35262	0	0	0	29098	27730	175188	26585	1064252	45798	110818	0	0	7953	653650	0	0
2024-08-04 04:11:47			0	35263	0	0	0	29103	27730	175256	26656	1064279	45788	110820	0	0	7953	653606	0	0
2024-08-04 04:12:47			0	35255	0	0	0	29129	27720	175124	27095	1064288	45796	110830	0	0	7952	653993	0	0
2024-08-04 04:13:47			0	35268	0	0	0	29129	27710	175116	26828	1064306	45808	110830	0	0	7953	653463	0	0
2024-08-04 04:14:47			0	35263	0	0	0	29127	27730	175192	27166	1064315	45810	110829	0	0	7952	653606	0	0
2024-08-04 04:15:47			0	35284	0	0	0	29129	27730	175000	26883	1064368	45798	110830	0	0	7954	652691	0	0
2024-08-04 04:16:47			0	35273	0	0	0	29127	27730	174980	26762	1064333	45798	110829	0	0	7953	653170	0	0
2024-08-04 04:17:47			0	35290	0	0	0	29127	27730	174900	26682	1064306	45798	110829	0	0	7954	652429	0	0
2024-08-04 04:18:47			0	35306	0	0	0	29122	27720	174856	26748	1064351	45820	110827	0	0	7955	651770	0	0
2024-08-04 04:19:47			0	35298	0	0	0	29114	27740	174848	26703	1064351	45798	110824	0	0	7955	652043	0	0
2024-08-04 04:20:47			0	35318	0	0	0	29116	27720	174808	26663	1064315	45786	110825	0	0	7956	651248	0	0
2024-08-04 04:21:47			0	35302	0	0	0	29129	27720	174788	26689	1064377	45787	110830	0	0	7955	651944	0	0
2024-08-04 04:22:47			0	35322	0	0	0	29135	27730	174764	26857	1064360	45798	110832	0	0	7956	651036	0	0
2024-08-04 04:23:47			0	35302	0	0	0	29129	27720	174824	26902	1064404	45797	110830	0	0	7955	651944	0	0
2024-08-04 04:24:47			0	35318	0	0	0	29137	27730	174932	26759	1064333	45798	110833	0	0	7956	651210	0	0
2024-08-04 04:25:47			0	35297	0	0	0	29153	27720	174812	26687	1064431	45809	110839	0	0	7954	652162	0	0
2024-08-04 04:26:47			0	35310	0	0	0	29158	27730	174900	26793	1064413	45788	110841	0	0	7955	651558	0	0
2024-08-04 04:27:47			0	35309	0	0	0	29161	27730	174724	26644	1064395	45798	110842	0	0	7955	651602	0	0
2024-08-04 04:28:47			0	35327	0	0	0	29168	27730	174864	26651	1064386	45798	110845	0	0	7956	650819	0	0
2024-08-04 04:29:47			0	35326	0	0	0	29163	27740	174732	26526	1064494	45799	110843	0	0	7956	650825	0	0
2024-08-04 04:30:47			0	35326	0	0	0	29166	27750	174940	26606	1064476	45812	110844	0	0	7956	650787	0	0
2024-08-04 04:31:47			0	35317	0	0	0	29173	27740	174876	26746	1064431	45810	110847	0	0	7955	651216	0	0
2024-08-04 04:32:47			0	35294	0	0	0	29161	27740	174868	26760	1064413	45811	110842	0	0	7954	652217	0	0
2024-08-04 04:33:47			0	35292	0	0	0	29166	27750	174924	26285	1064485	45800	110844	0	0	7954	652267	0	0
2024-08-04 04:34:47			0	35270	0	0	0	29161	27750	174952	26485	1064458	45800	110842	0	0	7952	653226	0	0
2024-08-04 04:35:47			0	35256	0	0	0	29158	27740	175056	27020	1064467	45799	110841	0	0	7952	653874	0	0
2024-08-04 04:36:47			0	35244	0	0	0	29158	27750	175168	26793	1064431	45823	110841	0	0	7951	654360	0	0
2024-08-04 04:37:47			0	35221	0	0	0	29150	27750	175360	26771	1064476	45823	110838	0	0	7950	655365	0	0
2024-08-04 04:38:47			0	35183	0	0	0	29155	27740	175316	26727	1064494	45799	110840	0	0	7947	657065	0	0
2024-08-04 04:39:47			0	35157	0	0	0	29163	27750	175568	26531	1064503	45812	110843	0	0	7945	658167	0	0
2024-08-04 04:40:47			0	35148	0	0	0	29176	27750	175776	26765	1064503	45823	110848	0	0	7945	658562	0	0
2024-08-04 04:41:47			0	35107	0	0	0	29171	27750	175744	26523	1064449	45823	110846	0	0	7942	660362	0	0
2024-08-04 04:42:47			0	35130	0	0	0	29166	27750	175768	26682	1064449	45800	110844	0	0	7944	659351	0	0
2024-08-04 04:43:47			0	35100	0	0	0	29158	27760	175707	26923	1064440	45812	110841	0	0	7942	660632	0	0
2024-08-04 04:44:47			0	35110	0	0	0	29153	27760	175783	26920	1064494	45790	110839	0	0	7943	660192	0	0
2024-08-04 04:45:47			0	35102	0	0	0	29153	27760	175955	26844	1064521	45790	110839	0	0	7942	660544	0	0
2024-08-04 04:46:47			0	35104	0	0	0	29158	27760	175867	26731	1064494	45812	110841	0	0	7942	660456	0	0
2024-08-04 04:47:47			0	35104	0	0	0	29148	27750	175975	26781	1064458	45800	110837	0	0	7942	660494	0	0
2024-08-04 04:48:47			0	35085	0	0	0	29137	27750	175855	26798	1064422	45779	110833	0	0	7941	661330	0	0
2024-08-04 04:49:47			0	35093	0	0	0	29127	27750	175899	26644	1064422	45800	110829	0	0	7942	660978	0	0
2024-08-04 04:50:47			0	35110	0	0	0	29132	27740	175896	26882	1064359	45799	110831	0	0	7943	660268	0	0
2024-08-04 04:51:47			0	35095	0	0	0	29135	27750	175983	26706	1064458	45800	110832	0	0	7942	660889	0	0
2024-08-04 04:52:47			0	35112	0	0	0	29127	27740	176068	27034	1064413	45799	110829	0	0	7943	660180	0	0
2024-08-04 04:53:47			0	35115	0	0	0	29111	27730	175892	27088	1064360	45788	110823	0	0	7943	660086	0	0
2024-08-04 04:54:47			0	35124	0	0	0	29106	27740	175944	26908	1064377	45798	110821	0	0	7944	659653	0	0
2024-08-04 04:55:47			0	35104	0	0	0	29088	27730	175891	26963	1064360	45788	110814	0	0	7943	660570	0	0
2024-08-04 04:56:47			0	35119	0	0	0	29093	27730	175860	26781	1064279	45788	110816	0	0	7944	659911	0	0
2024-08-04 04:57:47			0	35127	0	0	0	29083	27730	175924	27085	1064279	45788	110812	0	0	7945	659559	0	0
2024-08-04 04:58:47			0	35134	0	0	0	29083	27720	175852	27088	1064234	45796	110812	0	0	7945	659290	0	0
2024-08-04 04:59:47			0	35145	0	0	0	29085	27730	175732	26937	1064252	45798	110813	0	0	7946	658769	0	0
2024-08-04 05:00:47			0	35157	0	0	0	29101	27710	175732	26656	1064252	45808	110819	0	0	7946	658318	0	0
2024-08-04 05:01:47			0	35166	0	0	0	29106	27710	175672	26922	1064279	45808	110821	0	0	7947	657924	0	0
2024-08-04 05:02:47			0	35190	0	0	0	29116	27720	175556	26689	1064207	45808	110825	0	0	7948	656835	0	0
2024-08-04 05:03:47			0	35222	0	0	0	29124	27720	175492	26668	1064261	45796	110828	0	0	7950	655434	0	0
2024-08-04 05:04:47			0	35235	0	0	0	29114	27710	175300	26819	1064279	45808	110824	0	0	7951	654904	0	0
2024-08-04 05:05:47			0	35267	0	0	0	29111	27710	175184	26875	1064270	45785	110823	0	0	7953	653507	0	0
2024-08-04 05:06:47			0	35293	0	0	0	29106	27720	175116	26743	1064342	45808	110821	0	0	7955	652336	0	0
2024-08-04 05:07:47			0	35288	0	0	0	29101	27710	175112	26521	1064252	45808	110819	0	0	7954	652592	0	0
2024-08-04 05:08:47			0	35297	0	0	0	29114	27720	175244	26908	1064288	45796	110824	0	0	7955	652162	0	0
2024-08-04 05:09:47			0	35304	0	0	0	29114	27710	174892	26764	1064243	45807	110824	0	0	7955	651895	0	0
2024-08-04 05:10:47			0	35320	0	0	0	29127	27710	174864	26802	1064225	45796	110829	0	0	7956	651198	0	0
2024-08-04 05:11:47			0	35350	0	0	0	29098	27720	174752	26398	1064288	45808	110818	0	0	7958	649857	0	0
2024-08-04 05:12:47			0	35372	0	0	0	29109	27710	174656	26811	1064243	45795	110822	0	0	7959	648939	0	0
2024-08-04 05:13:47			0	35406	0	0	0	29101	27700	174616	26887	1064180	45785	110819	0	0	7962	647502	0	0
2024-08-04 05:14:47			0	35398	0	0	0	29106	27700	174456	26672	1064234	45795	110821	0	0	7961	647849	0	0
2024-08-04 05:15:47			0	35420	0	0	0	29109	27710	174400	26849	1064225	45808	110822	0	0	7962	646858	0	0
2024-08-04 05:16:47			0	35413	0	0	0	29093	27710	174488	26915	1064216	45785	110816	0	0	7962	647162	0	0
2024-08-04 05:17:47			0	35443	0	0	0	29080	27700	174208	26868	1064234	45795	110811	0	0	7964	645900	0	0
2024-08-04 05:18:47			0	35442	0	0	0	29085	27700	174220	26890	1064198	45794	110813	0	0	7964	645943	0	0
2024-08-04 05:19:47			0	35443	0	0	0	29083	27700	174280	26500	1064207	45795	110812	0	0	7964	645900	0	0
2024-08-04 05:20:47			0	35438	0	0	0	29080	27700	174252	26916	1064207	45795	110811	0	0	7964	646117	0	0
2024-08-04 05:21:47			0	35459	0	0	0	29085	27700	174312	26762	1064144	45784	110813	0	0	7965	645209	0	0
2024-08-04 05:22:47			0	35472	0	0	0	29077	27690	174132	26720	1064162	45783	110810	0	0	7966	644684	0	0
2024-08-04 05:23:47			0	35480	0	0	0	29083	27690	174212	26778	1064108	45793	110812	0	0	7966	644339	0	0
2024-08-04 05:24:47			0	35473	0	0	0	29070	27700	174172	26920	1064090	45794	110807	0	0	7966	644604	0	0
2024-08-04 05:25:47			0	35502	0	0	0	29090	27690	174032	26981	1064207	45783	110815	0	0	7968	643390	0	0
2024-08-04 05:26:47			0	35518	0	0	0	29093	27690	174096	26753	1064073	45793	110816	0	0	7969	642700	0	0
2024-08-04 05:27:47			0	35522	0	0	0	29090	27690	173940	27007	1064180	45793	110815	0	0	7969	642527	0	0
2024-08-04 05:28:47			0	35538	0	0	0	29080	27700	173952	26970	1064171	45784	110811	0	0	7970	641802	0	0
2024-08-04 05:29:47			0	35542	0	0	0	29057	27690	173872	26705	1064099	45793	110802	0	0	7971	641666	0	0
2024-08-04 05:30:47			0	35553	0	0	0	29054	27680	173944	26875	1064082	45771	110801	0	0	7971	641230	0	0
2024-08-04 05:31:47			0	35522	0	0	0	29062	27680	173996	26904	1064117	45783	110804	0	0	7969	642564	0	0
2024-08-04 05:32:47			0	35513	0	0	0	29064	27680	174000	26871	1064064	45793	110805	0	0	7969	642952	0	0
2024-08-04 05:33:47			0	35521	0	0	0	29062	27670	173952	26656	1064019	45803	110804	0	0	7969	642645	0	0
2024-08-04 05:34:47			0	35522	0	0	0	29072	27670	173964	26788	1064046	45803	110808	0	0	7969	642601	0	0
2024-08-04 05:35:47			0	35541	0	0	0	29072	27670	173840	26918	1064064	45791	110808	0	0	7970	641783	0	0
2024-08-04 05:36:47			0	35574	0	0	0	29067	27680	173792	26703	1064055	45792	110806	0	0	7972	640327	0	0
2024-08-04 05:37:47			0	35573	0	0	0	29064	27670	173648	26897	1064064	45791	110805	0	0	7972	640407	0	0
2024-08-04 05:38:47			0	35570	0	0	0	29059	27680	173700	26599	1064091	45805	110803	0	0	7972	640499	0	0
2024-08-04 05:39:47			0	35585	0	0	0	29054	27660	173652	26902	1064019	45791	110801	0	0	7973	639928	0	0
2024-08-04 05:40:47			0	35604	0	0	0	29044	27670	173668	26915	1063983	45781	110797	0	0	7975	639075	0	0
2024-08-04 05:41:47			0	35595	0	0	0	29064	27660	173672	26602	1064001	45791	110805	0	0	7974	639499	0	0
2024-08-04 05:42:47			0	35569	0	0	0	29064	27670	173764	26705	1064073	45791	110805	0	0	7972	640579	0	0
2024-08-04 05:43:47			0	35604	0	0	0	29059	27660	173624	26644	1064055	45803	110803	0	0	7974	639112	0	0
2024-08-04 05:44:47			0	35622	0	0	0	29062	27660	173452	26576	1064055	45791	110804	0	0	7975	638340	0	0
2024-08-04 05:45:47			0	35666	0	0	0	29064	27660	173428	26975	1063974	45803	110805	0	0	7978	636455	0	0
2024-08-04 05:46:47			0	35674	0	0	0	29064	27660	173360	26547	1064082	45781	110805	0	0	7979	636113	0	0
2024-08-04 05:47:47			0	35687	0	0	0	29041	27660	173048	27057	1064001	45791	110796	0	0	7980	635557	0	0
2024-08-04 05:48:47			0	35708	0	0	0	29041	27670	173128	26759	1064037	45791	110796	0	0	7981	634624	0	0
2024-08-04 05:49:47			0	35701	0	0	0	29031	27670	173056	27251	1063956	45791	110792	0	0	7981	634922	0	0
2024-08-04 05:50:47			0	35706	0	0	0	29036	27660	173184	26675	1063974	45791	110794	0	0	7981	634745	0	0
2024-08-04 05:51:47			0	35707	0	0	0	29044	27660	173080	26630	1063938	45791	110797	0	0	7981	634703	0	0
2024-08-04 05:52:47			0	35718	0	0	0	29038	27650	173080	26996	1063920	45790	110795	0	0	7982	634270	0	0
2024-08-04 05:53:47			0	35737	0	0	0	29036	27650	172916	26918	1063956	45790	110794	0	0	7983	633459	0	0
2024-08-04 05:54:47			0	35712	0	0	0	29025	27650	173080	26863	1063893	45790	110790	0	0	7981	634526	0	0
2024-08-04 05:55:47			0	35721	0	0	0	29033	27640	173020	26432	1063875	45789	110793	0	0	7982	634178	0	0
2024-08-04 05:56:47			0	35712	0	0	0	29031	27640	173016	27100	1063911	45789	110792	0	0	7981	634562	0	0
2024-08-04 05:57:47			0	35734	0	0	0	29031	27630	172948	26760	1063893	45789	110792	0	0	7983	633660	0	0
2024-08-04 05:58:47			0	35740	0	0	0	29023	27640	172936	26814	1063911	45789	110789	0	0	7983	633368	0	0
2024-08-04 05:59:47			0	35756	0	0	0	29025	27630	172996	26896	1063893	45799	110790	0	0	7984	632722	0	0
2024-08-04 06:00:47			0	35771	0	0	0	29025	27640	172812	26946	1063911	45767	110790	0	0	7985	632047	0	0
2024-08-04 06:01:47			0	35757	0	0	0	29023	27640	172828	26398	1063821	45800	110789	0	0	7984	632643	0	0
2024-08-04 06:02:47			0	35759	0	0	0	29031	27630	172792	27092	1063866	45789	110792	0	0	7984	632594	0	0
2024-08-04 06:03:47			0	35787	0	0	0	29033	27630	172784	26630	1063893	45789	110793	0	0	7986	631402	0	0
2024-08-04 06:04:47			0	35793	0	0	0	29025	27630	172756	26467	1063857	45789	110790	0	0	7986	631147	0	0
2024-08-04 06:05:47			0	35802	0	0	0	29023	27630	172704	26595	1063857	45789	110789	0	0	7987	630764	0	0
2024-08-04 06:06:47			0	35809	0	0	0	29007	27630	172688	26646	1063857	45789	110783	0	0	7988	630467	0	0
2024-08-04 06:07:47			0	35802	0	0	0	29007	27630	172528	26887	1063839	45777	110783	0	0	7987	630764	0	0
2024-08-04 06:08:47			0	35803	0	0	0	29005	27620	172584	26484	1063785	45798	110782	0	0	7987	630758	0	0
2024-08-04 06:09:47			0	35802	0	0	0	29007	27630	172684	26824	1063803	45789	110783	0	0	7987	630764	0	0
2024-08-04 06:10:47			0	35797	0	0	0	29005	27620	172740	26790	1063812	45788	110782	0	0	7987	631013	0	0
2024-08-04 06:11:47			0	35797	0	0	0	29010	27610	172660	26970	1063803	45787	110784	0	0	7987	631049	0	0
2024-08-04 06:12:47			0	35819	0	0	0	29005	27610	172548	26675	1063749	45787	110782	0	0	7988	630114	0	0
2024-08-04 06:13:47			0	35817	0	0	0	28999	27610	172472	26918	1063722	45775	110780	0	0	7988	630199	0	0
2024-08-04 06:14:47			0	35832	0	0	0	28986	27600	172528	26790	1063722	45786	110775	0	0	7989	629598	0	0
2024-08-04 06:15:47			0	35822	0	0	0	28994	27610	172612	26844	1063722	45787	110778	0	0	7988	629987	0	0
2024-08-04 06:16:47			0	35803	0	0	0	28992	27600	172676	26632	1063758	45786	110777	0	0	7987	630831	0	0
2024-08-04 06:17:47			0	35796	0	0	0	28989	27610	172820	26781	1063740	45796	110776	0	0	7987	631092	0	0
2024-08-04 06:18:47			0	35801	0	0	0	28984	27600	172824	26542	1063704	45796	110774	0	0	7987	630916	0	0
2024-08-04 06:19:47			0	35790	0	0	0	28992	27600	172716	26516	1063669	45786	110777	0	0	7987	631384	0	0
2024-08-04 06:20:47			0	35780	0	0	0	28984	27600	172832	26743	1063722	45774	110774	0	0	7986	631809	0	0
2024-08-04 06:21:47			0	35774	0	0	0	28981	27590	172800	26949	1063713	45795	110773	0	0	7986	632101	0	0
2024-08-04 06:22:47			0	35790	0	0	0	28979	27600	172920	26771	1063704	45796	110772	0	0	7987	631384	0	0
2024-08-04 06:23:47			0	35779	0	0	0	28986	27590	172756	26793	1063687	45785	110775	0	0	7986	631888	0	0
2024-08-04 06:24:47			0	35755	0	0	0	28986	27600	172768	26700	1063696	45796	110775	0	0	7984	632874	0	0
2024-08-04 06:25:47			0	35762	0	0	0	28979	27600	172724	26745	1063749	45786	110772	0	0	7985	632576	0	0
2024-08-04 06:26:47			0	35760	0	0	0	28981	27590	172856	26892	1063678	45761	110773	0	0	7985	632697	0	0
2024-08-04 06:27:47			0	35740	0	0	0	28966	27590	172920	27007	1063678	45772	110767	0	0	7984	633550	0	0
2024-08-04 06:28:47			0	35731	0	0	0	28968	27590	172936	26696	1063624	45784	110768	0	0	7983	633934	0	0
2024-08-04 06:29:47			0	35738	0	0	0	28963	27580	173024	26896	1063669	45772	110766	0	0	7984	633672	0	0
2024-08-04 06:30:47			0	35720	0	0	0	28961	27580	173084	27107	1063588	45784	110765	0	0	7983	634440	0	0
2024-08-04 06:31:47			0	35726	0	0	0	28963	27570	173032	26615	1063597	45771	110766	0	0	7983	634220	0	0
2024-08-04 06:32:47			0	35707	0	0	0	28958	27570	172940	26781	1063543	45783	110764	0	0	7982	635032	0	0
2024-08-04 06:33:47			0	35726	0	0	0	28966	27570	172944	26767	1063543	45783	110767	0	0	7983	634220	0	0
2024-08-04 06:34:47			0	35734	0	0	0	28942	27570	172964	26613	1063489	45783	110758	0	0	7984	633879	0	0
2024-08-04 06:35:47			0	35737	0	0	0	28950	27570	172944	26880	1063534	45770	110761	0	0	7984	633751	0	0
2024-08-04 06:36:47			0	35746	0	0	0	28958	27570	172940	26594	1063400	45782	110764	0	0	7984	633367	0	0
2024-08-04 06:37:47			0	35750	0	0	0	28942	27570	172940	26741	1063534	45792	110758	0	0	7985	633196	0	0
2024-08-04 06:38:47			0	35775	0	0	0	28958	27570	172800	26767	1063561	45782	110764	0	0	7986	632131	0	0
2024-08-04 06:39:47			0	35792	0	0	0	28953	27560	172708	27024	1063471	45782	110762	0	0	7987	631444	0	0
2024-08-04 06:40:47			0	35816	0	0	0	28950	27570	172648	26771	1063534	45792	110761	0	0	7989	630387	0	0
2024-08-04 06:41:47			0	35805	0	0	0	28945	27570	172552	26646	1063561	45782	110759	0	0	7988	630855	0	0
2024-08-04 06:42:47			0	35812	0	0	0	28940	27570	172788	26850	1063480	45782	110757	0	0	7989	630557	0	0
2024-08-04 06:43:47			0	35812	0	0	0	28937	27570	172548	26783	1063453	45782	110756	0	0	7989	630557	0	0
2024-08-04 06:44:47			0	35831	0	0	0	28932	27560	172564	26691	1063516	45781	110754	0	0	7990	629786	0	0
2024-08-04 06:45:47			0	35823	0	0	0	28924	27550	172448	26589	1063480	45769	110751	0	0	7989	630162	0	0
2024-08-04 06:46:47			0	35856	0	0	0	28924	27540	172376	26511	1063427	45790	110751	0	0	7991	628797	0	0
2024-08-04 06:47:47			0	35871	0	0	0	28935	27550	172529	26693	1063418	45768	110755	0	0	7992	628125	0	0
2024-08-04 06:48:47			0	35860	0	0	0	28919	27550	172397	26552	1063400	45781	110749	0	0	7992	628591	0	0
2024-08-04 06:49:47			0	35859	0	0	0	28924	27550	172397	26932	1063337	45768	110751	0	0	7992	628634	0	0
2024-08-04 06:50:47			0	35858	0	0	0	28911	27540	172333	26628	1063346	45779	110746	0	0	7992	628712	0	0
2024-08-04 06:51:47			0	35892	0	0	0	28919	27540	172265	26845	1063400	45767	110749	0	0	7994	627271	0	0
2024-08-04 06:52:47			0	35903	0	0	0	28911	27540	172249	26715	1063373	45790	110746	0	0	7994	626805	0	0
2024-08-04 06:53:47			0	35899	0	0	0	28903	27540	172201	26788	1063355	45780	110743	0	0	7994	626975	0	0
2024-08-04 06:54:47			0	35934	0	0	0	28909	27530	172185	26866	1063337	45767	110745	0	0	7996	625530	0	0
2024-08-04 06:55:47			0	35927	0	0	0	28909	27530	172161	26781	1063328	45778	110745	0	0	7996	625826	0	0
2024-08-04 06:56:47			0	35934	0	0	0	28911	27530	172169	26677	1063283	45779	110746	0	0	7996	625530	0	0
2024-08-04 06:57:47			0	35917	0	0	0	28906	27530	172153	26528	1063256	45767	110744	0	0	7995	626249	0	0
2024-08-04 06:58:47			0	35935	0	0	0	28909	27530	172105	26759	1063274	45766	110745	0	0	7996	625488	0	0
2024-08-04 06:59:47			0	35938	0	0	0	28896	27510	172077	27159	1063301	45764	110740	0	0	7997	625433	0	0
2024-08-04 07:00:47			0	35928	0	0	0	28883	27510	172113	26821	1063256	45765	110735	0	0	7996	625856	0	0
2024-08-04 07:01:47			0	35909	0	0	0	28883	27510	172269	26953	1063256	45765	110735	0	0	7995	626660	0	0
2024-08-04 07:02:47			0	35904	0	0	0	28890	27510	172289	26857	1063193	45776	110738	0	0	7995	626871	0	0
2024-08-04 07:03:47			0	35888	0	0	0	28883	27510	172321	26991	1063247	45764	110735	0	0	7994	627549	0	0
2024-08-04 07:04:47			0	35887	0	0	0	28885	27510	172305	26949	1063193	45753	110736	0	0	7994	627591	0	0
2024-08-04 07:05:47			0	35877	0	0	0	28877	27500	172421	26578	1063202	45775	110733	0	0	7993	628051	0	0
2024-08-04 07:06:47			0	35883	0	0	0	28872	27490	172429	26514	1063184	45762	110731	0	0	7994	627833	0	0
2024-08-04 07:07:47			0	35863	0	0	0	28883	27490	172365	26717	1063166	45775	110735	0	0	7992	628681	0	0
2024-08-04 07:08:47			0	35879	0	0	0	28875	27500	172517	26783	1063202	45763	110732	0	0	7993	627966	0	0
2024-08-04 07:09:47			0	35863	0	0	0	28875	27490	172385	26727	1063140	45752	110732	0	0	7992	628681	0	0
2024-08-04 07:10:47			0	35886	0	0	0	28875	27490	172385	26876	1063140	45775	110732	0	0	7994	627706	0	0
2024-08-04 07:11:47			0	35910	0	0	0	28870	27480	172229	26814	1063122	45785	110730	0	0	7995	626725	0	0
2024-08-04 07:12:47			0	35897	0	0	0	28870	27490	172169	27071	1063077	45774	110730	0	0	7995	627240	0	0
2024-08-04 07:13:47			0	35891	0	0	0	28870	27490	172309	26746	1063050	45774	110730	0	0	7994	627494	0	0
2024-08-04 07:14:47			0	35884	0	0	0	28857	27490	172389	27173	1063131	45762	110725	0	0	7994	627791	0	0
2024-08-04 07:15:47			0	35847	0	0	0	28857	27470	172420	26866	1063077	45773	110725	0	0	7992	629432	0	0
2024-08-04 07:16:47			0	35836	0	0	0	28846	27470	172484	26824	1063077	45773	110721	0	0	7991	629900	0	0
2024-08-04 07:17:47			0	35817	0	0	0	28844	27470	172600	26871	1063068	45760	110720	0	0	7990	630707	0	0
2024-08-04 07:18:47			0	35831	0	0	0	28849	27470	172664	26953	1063050	45773	110722	0	0	7991	630112	0	0
2024-08-04 07:19:47			0	35816	0	0	0	28849	27470	172704	26923	1063068	45783	110722	0	0	7990	630750	0	0
2024-08-04 07:20:47			0	35817	0	0	0	28841	27470	172736	27072	1063041	45760	110719	0	0	7990	630707	0	0
2024-08-04 07:21:47			0	35825	0	0	0	28846	27460	172544	27059	1063032	45771	110721	0	0	7990	630403	0	0
2024-08-04 07:22:47			0	35827	0	0	0	28844	27460	172660	26934	1063032	45771	110720	0	0	7991	630318	0	0
2024-08-04 07:23:47			0	35845	0	0	0	28838	27450	172500	26871	1063014	45771	110718	0	0	7992	629590	0	0
2024-08-04 07:24:47			0	35836	0	0	0	28841	27460	172476	27244	1063050	45771	110719	0	0	7991	629936	0	0
2024-08-04 07:25:47			0	35864	0	0	0	28844	27460	172397	27164	1062978	45759	110720	0	0	7993	628747	0	0
2024-08-04 07:26:47			0	35849	0	0	0	28851	27460	172568	26918	1062996	45759	110723	0	0	7992	629384	0	0
2024-08-04 07:27:47			0	35858	0	0	0	28844	27460	172596	26726	1062942	45771	110720	0	0	7992	629002	0	0
2024-08-04 07:28:47			0	35854	0	0	0	28849	27460	172544	27147	1062924	45759	110722	0	0	7992	629171	0	0
2024-08-04 07:29:47			0	35828	0	0	0	28841	27460	172496	27242	1062978	45771	110719	0	0	7991	630276	0	0
2024-08-04 07:30:47			0	35844	0	0	0	28846	27450	172444	26705	1063014	45771	110721	0	0	7991	629632	0	0
2024-08-04 07:31:47			0	35849	0	0	0	28849	27460	172536	26856	1062978	45759	110722	0	0	7992	629384	0	0
2024-08-04 07:32:47			0	35836	0	0	0	28841	27450	172532	26885	1063041	45759	110719	0	0	7991	629972	0	0
2024-08-04 07:33:47			0	35848	0	0	0	28857	27450	172432	26816	1063005	45770	110725	0	0	7992	629462	0	0
2024-08-04 07:34:47			0	35834	0	0	0	28849	27460	172544	26871	1063032	45749	110722	0	0	7991	630021	0	0
2024-08-04 07:35:47			0	35828	0	0	0	28846	27440	172432	27163	1062942	45757	110721	0	0	7990	630348	0	0
2024-08-04 07:36:47			0	35829	0	0	0	28846	27450	172604	26816	1062925	45781	110721	0	0	7991	630270	0	0
2024-08-04 07:37:47			0	35841	0	0	0	28846	27450	172500	27114	1062960	45771	110721	0	0	7991	629760	0	0
2024-08-04 07:38:47			0	35824	0	0	0	28844	27450	172596	26953	1063005	45758	110720	0	0	7990	630482	0	0
2024-08-04 07:39:47			0	35837	0	0	0	28849	27460	172620	27039	1063023	45771	110722	0	0	7991	629893	0	0
2024-08-04 07:40:47			0	35841	0	0	0	28851	27450	172536	26804	1062898	45781	110723	0	0	7991	629760	0	0
2024-08-04 07:41:47			0	35846	0	0	0	28836	27450	172620	26738	1062987	45759	110717	0	0	7992	629547	0	0
2024-08-04 07:42:47			0	35834	0	0	0	28851	27460	172536	26911	1062942	45782	110723	0	0	7991	630021	0	0
2024-08-04 07:43:47			0	35842	0	0	0	28870	27450	172524	26804	1062933	45771	110730	0	0	7991	629717	0	0
2024-08-04 07:44:47			0	35869	0	0	0	28877	27440	172485	27046	1062907	45769	110733	0	0	7992	628607	0	0
2024-08-04 07:45:47			0	35894	0	0	0	28859	27450	172373	27100	1062951	45770	110726	0	0	7994	627511	0	0
2024-08-04 07:46:47			0	35927	0	0	0	28880	27430	172269	27118	1062951	45757	110734	0	0	7996	626186	0	0
2024-08-04 07:47:47			0	35912	0	0	0	28831	27440	172101	27015	1062916	45769	110715	0	0	7996	626785	0	0
2024-08-04 07:48:47			0	35915	0	0	0	28836	27440	172229	27144	1062889	45780	110717	0	0	7996	626658	0	0
2024-08-04 07:49:47			0	35863	0	0	0	28870	27440	172376	27180	1062960	45780	110730	0	0	7992	628862	0	0
2024-08-04 07:50:47			0	35835	0	0	0	28916	27440	172560	26734	1062969	45769	110748	0	0	7990	630051	0	0
2024-08-04 07:51:47			0	35865	0	0	0	28828	27450	172477	27067	1062960	45782	110714	0	0	7993	628741	0	0
2024-08-04 07:52:47			0	35845	0	0	0	28807	27440	172552	26706	1062862	45780	110706	0	0	7992	629626	0	0
2024-08-04 07:53:47			0	35750	0	0	0	28789	27430	172928	26530	1062871	45757	110699	0	0	7987	633706	0	0
2024-08-04 07:54:47			0	35629	0	0	0	28784	27420	173444	26845	1062799	45767	110697	0	0	7979	638921	0	0
2024-08-04 07:55:47			0	35590	0	0	0	28784	27430	173672	27303	1062790	45757	110697	0	0	7977	640560	0	0
2024-08-04 07:56:47			0	35553	0	0	0	28802	27420	173904	27157	1062745	45756	110704	0	0	7974	642190	0	0
2024-08-04 07:57:47			0	35558	0	0	0	28807	27420	173952	26722	1062799	45778	110706	0	0	7975	641974	0	0
2024-08-04 07:58:47			0	35530	0	0	0	28807	27420	174020	27116	1062853	45790	110706	0	0	7973	643181	0	0
2024-08-04 07:59:47			0	35549	0	0	0	28818	27420	173920	27270	1062772	45778	110710	0	0	7974	642362	0	0
2024-08-04 08:00:47			0	35562	0	0	0	28828	27420	173932	26767	1062817	45756	110714	0	0	7974	641802	0	0
2024-08-04 08:01:47			0	35593	0	0	0	28815	27420	173820	27159	1062799	45767	110709	0	0	7977	640468	0	0
2024-08-04 08:02:47			0	35590	0	0	0	28815	27410	173816	27053	1062808	45777	110709	0	0	7976	640634	0	0
2024-08-04 08:03:47			0	35581	0	0	0	28831	27420	173924	27105	1062826	45767	110715	0	0	7976	640984	0	0
2024-08-04 08:04:47			0	35572	0	0	0	28859	27420	173928	27170	1062826	45767	110726	0	0	7974	641372	0	0
2024-08-04 08:05:47			0	35595	0	0	0	28896	27420	173776	27105	1062898	45767	110740	0	0	7975	640382	0	0
2024-08-04 08:06:47			0	35622	0	0	0	28916	27430	173732	26935	1062943	45801	110748	0	0	7977	639185	0	0
2024-08-04 08:07:47			0	35625	0	0	0	28929	27430	173556	27208	1063086	45791	110753	0	0	7977	639056	0	0
2024-08-04 08:08:47			0	35644	0	0	0	28924	27430	173532	26989	1063005	45791	110751	0	0	7978	638241	0	0
2024-08-04 08:09:47			0	35641	0	0	0	28929	27450	173564	27076	1063095	45771	110753	0	0	7978	638296	0	0
2024-08-04 08:10:47			0	35634	0	0	0	28953	27460	173628	26948	1063131	45804	110762	0	0	7977	638560	0	0
2024-08-04 08:11:47			0	35618	0	0	0	28966	27460	173696	26890	1063167	45793	110767	0	0	7976	639247	0	0
2024-08-04 08:12:47			0	35606	0	0	0	28971	27480	173768	26680	1063247	45795	110769	0	0	7975	639689	0	0
2024-08-04 08:13:47			0	35609	0	0	0	28963	27480	173788	26805	1063274	45784	110766	0	0	7975	639560	0	0
2024-08-04 08:14:47			0	35583	0	0	0	28976	27480	173856	27076	1063256	45796	110771	0	0	7973	640677	0	0
2024-08-04 08:15:47			0	35568	0	0	0	28976	27480	173940	26998	1063364	45796	110771	0	0	7973	641322	0	0
2024-08-04 08:16:47			0	35555	0	0	0	28976	27500	174032	27093	1063418	45808	110771	0	0	7972	641808	0	0
2024-08-04 08:17:47			0	35523	0	0	0	28961	27500	174204	26772	1063391	45796	110765	0	0	7970	643187	0	0
2024-08-04 08:18:47			0	35495	0	0	0	28979	27510	174192	26812	1063471	45810	110772	0	0	7968	644359	0	0
2024-08-04 08:19:47			0	35499	0	0	0	28986	27520	174300	26576	1063480	45798	110775	0	0	7968	644149	0	0
2024-08-04 08:20:47			0	35461	0	0	0	28986	27530	174348	26760	1063435	45811	110775	0	0	7966	645754	0	0
2024-08-04 08:21:47			0	35451	0	0	0	28989	27540	174504	26880	1063588	45800	110776	0	0	7965	646149	0	0
2024-08-04 08:22:47			0	35434	0	0	0	28997	27540	174468	26864	1063570	45801	110779	0	0	7964	646885	0	0
2024-08-04 08:23:47			0	35403	0	0	0	28994	27550	174660	26932	1063642	45791	110778	0	0	7962	648191	0	0
2024-08-04 08:24:47			0	35401	0	0	0	28992	27550	174688	26807	1063660	45801	110777	0	0	7962	648278	0	0
2024-08-04 08:25:47			0	35385	0	0	0	28999	27560	174776	26882	1063740	45792	110780	0	0	7961	648935	0	0
2024-08-04 08:26:47			0	35398	0	0	0	29002	27560	174812	26648	1063678	45791	110781	0	0	7962	648371	0	0
2024-08-04 08:27:47			0	35381	0	0	0	28989	27560	174772	26800	1063606	45782	110776	0	0	7961	649109	0	0
2024-08-04 08:28:47			0	35349	0	0	0	28981	27570	174848	26661	1063624	45804	110773	0	0	7959	650461	0	0
2024-08-04 08:29:47			0	35330	0	0	0	28989	27570	175024	26857	1063651	45793	110776	0	0	7958	651288	0	0
2024-08-04 08:30:47			0	35311	0	0	0	28986	27570	175016	26753	1063624	45783	110775	0	0	7957	652115	0	0
2024-08-04 08:31:47			0	35291	0	0	0	28981	27570	175096	26693	1063696	45792	110773	0	0	7956	652987	0	0
2024-08-04 08:32:47			0	35293	0	0	0	28984	27570	175200	27119	1063651	45783	110774	0	0	7956	652900	0	0
2024-08-04 08:33:47			0	35309	0	0	0	28984	27570	174988	26868	1063624	45771	110774	0	0	7957	652202	0	0
2024-08-04 08:34:47			0	35318	0	0	0	28968	27570	175064	27066	1063651	45793	110768	0	0	7958	651810	0	0
2024-08-04 08:35:47			0	35305	0	0	0	28955	27570	175100	26781	1063561	45770	110763	0	0	7957	652377	0	0
2024-08-04 08:36:47			0	35309	0	0	0	28948	27560	175116	26505	1063462	45769	110760	0	0	7957	652240	0	0
2024-08-04 08:37:47			0	35307	0	0	0	28945	27560	175096	26932	1063516	45781	110759	0	0	7957	652327	0	0
2024-08-04 08:38:47			0	35318	0	0	0	28924	27550	175072	26712	1063364	45780	110751	0	0	7958	651885	0	0
2024-08-04 08:39:47			0	35345	0	0	0	28916	27550	174964	26646	1063391	45768	110748	0	0	7960	650710	0	0
2024-08-04 08:40:47			0	35329	0	0	0	28903	27540	175080	26679	1063292	45756	110743	0	0	7959	651444	0	0
2024-08-04 08:41:47			0	35316	0	0	0	28877	27530	175016	26920	1063256	45746	110733	0	0	7959	652047	0	0
2024-08-04 08:42:47			0	35308	0	0	0	28872	27520	175036	26632	1063265	45754	110731	0	0	7958	652434	0	0
2024-08-04 08:43:47			0	35323	0	0	0	28841	27510	175188	26816	1063139	45764	110719	0	0	7960	651817	0	0
2024-08-04 08:44:47			0	35323	0	0	0	28825	27500	175048	26651	1063175	45763	110713	0	0	7960	651855	0	0
2024-08-04 08:45:47			0	35335	0	0	0	28818	27500	174932	26847	1063068	45763	110710	0	0	7961	651333	0	0
2024-08-04 08:46:47			0	35360	0	0	0	28812	27470	174936	26951	1063023	45750	110708	0	0	7962	650357	0	0
2024-08-04 08:47:47			0	35375	0	0	0	28815	27470	174792	26658	1062969	45740	110709	0	0	7963	649705	0	0
2024-08-04 08:48:47			0	35422	0	0	0	28810	27470	174552	26821	1062960	45760	110707	0	0	7966	647666	0	0
2024-08-04 08:49:47			0	35439	0	0	0	28818	27460	174372	27003	1062969	45759	110710	0	0	7967	646966	0	0
2024-08-04 08:50:47			0	35454	0	0	0	28810	27460	174340	26635	1062951	45759	110707	0	0	7968	646317	0	0
2024-08-04 08:51:47			0	35451	0	0	0	28823	27460	174396	26583	1062996	45759	110712	0	0	7968	646447	0	0
2024-08-04 08:52:47			0	35467	0	0	0	28815	27450	174452	26738	1062960	45771	110709	0	0	7969	645791	0	0
2024-08-04 08:53:47			0	35475	0	0	0	28805	27460	174124	26883	1062996	45759	110705	0	0	7970	645408	0	0
2024-08-04 08:54:47			0	35483	0	0	0	28828	27440	174244	26790	1062942	45769	110714	0	0	7970	645137	0	0
2024-08-04 08:55:47			0	35524	0	0	0	28823	27460	173996	26757	1062942	45782	110712	0	0	7972	643292	0	0
2024-08-04 08:56:47			0	35553	0	0	0	28812	27440	173920	26817	1062996	45769	110708	0	0	7974	642116	0	0
2024-08-04 08:57:47			0	35533	0	0	0	28807	27450	174024	27045	1062925	45770	110706	0	0	7973	642941	0	0
2024-08-04 08:58:47			0	35519	0	0	0	28799	27440	174072	26752	1062907	45769	110703	0	0	7972	643582	0	0
2024-08-04 08:59:47			0	35507	0	0	0	28802	27440	174004	26811	1062889	45769	110704	0	0	7972	644100	0	0
2024-08-04 09:00:47			0	35537	0	0	0	28810	27440	173908	26509	1062880	45769	110707	0	0	7973	642805	0	0
2024-08-04 09:01:47			0	35566	0	0	0	28818	27430	173764	26816	1062862	45779	110710	0	0	7975	641593	0	0
2024-08-04 09:02:47			0	35573	0	0	0	28815	27440	173876	26861	1062853	45757	110709	0	0	7975	641255	0	0
2024-08-04 09:03:47			0	35548	0	0	0	28820	27430	173860	27128	1062862	45756	110711	0	0	7974	642368	0	0
2024-08-04 09:04:47			0	35518	0	0	0	28823	27440	174172	26930	1062907	45757	110712	0	0	7972	643625	0	0
2024-08-04 09:05:47			0	35500	0	0	0	28836	27440	174240	26960	1062934	45780	110717	0	0	7971	644402	0	0
2024-08-04 09:06:47			0	35536	0	0	0	28833	27430	174028	26739	1062916	45756	110716	0	0	7973	642885	0	0
2024-08-04 09:07:47			0	35517	0	0	0	28831	27430	174056	26677	1062925	45780	110715	0	0	7972	643705	0	0
2024-08-04 09:08:47			0	35486	0	0	0	28838	27440	174280	26941	1062934	45780	110718	0	0	7970	645007	0	0
2024-08-04 09:09:47			0	35496	0	0	0	28836	27440	174268	26748	1062969	45780	110717	0	0	7970	644575	0	0
2024-08-04 09:10:47			0	35510	0	0	0	28854	27440	174176	26755	1062987	45780	110724	0	0	7971	643970	0	0
2024-08-04 09:11:47			0	35508	0	0	0	28862	27450	174112	26885	1063032	45770	110727	0	0	7971	644020	0	0
2024-08-04 09:12:47			0	35523	0	0	0	28857	27450	174124	26817	1062960	45793	110725	0	0	7972	643372	0	0
2024-08-04 09:13:47			0	35478	0	0	0	28854	27450	174244	26987	1063005	45781	110724	0	0	7969	645316	0	0
2024-08-04 09:14:47			0	35450	0	0	0	28849	27430	174372	26953	1062978	45780	110722	0	0	7967	646601	0	0
2024-08-04 09:15:47			0	35429	0	0	0	28857	27440	174432	26894	1063014	45780	110725	0	0	7966	647474	0	0
2024-08-04 09:16:47			0	35455	0	0	0	28883	27450	174248	26896	1063068	45782	110735	0	0	7967	646310	0	0
2024-08-04 09:17:47			0	35557	0	0	0	28898	27450	173804	27041	1063122	45793	110741	0	0	7973	641907	0	0
2024-08-04 09:18:47			0	35568	0	0	0	28914	27460	173612	26755	1063140	45782	110747	0	0	7974	641396	0	0
2024-08-04 09:19:47			0	35526	0	0	0	28911	27460	173820	26949	1063113	45782	110746	0	0	7971	643206	0	0
2024-08-04 09:20:47			0	35453	0	0	0	28903	27480	174256	26625	1063220	45784	110743	0	0	7967	646286	0	0
2024-08-04 09:21:47			0	35378	0	0	0	28909	27480	174800	26870	1063193	45795	110745	0	0	7962	649538	0	0
2024-08-04 09:22:47			0	35306	0	0	0	28909	27490	175104	26852	1063238	45785	110745	0	0	7958	652633	0	0
2024-08-04 09:23:47			0	35260	0	0	0	28903	27480	175300	26767	1063247	45784	110743	0	0	7955	654679	0	0
2024-08-04 09:24:47			0	35203	0	0	0	28901	27480	175596	26902	1063202	45785	110742	0	0	7951	657173	0	0
2024-08-04 09:25:47			0	35162	0	0	0	28888	27480	175800	27024	1063256	45785	110737	0	0	7949	658971	0	0
2024-08-04 09:26:47			0	35118	0	0	0	28901	27480	175900	26774	1063229	45774	110742	0	0	7946	660905	0	0
2024-08-04 09:27:47			0	35105	0	0	0	28901	27490	176163	26679	1063184	45774	110742	0	0	7945	661439	0	0
2024-08-04 09:28:47			0	35076	0	0	0	28885	27490	176079	26861	1063157	45774	110736	0	0	7944	662717	0	0
2024-08-04 09:29:47			0	35080	0	0	0	28893	27480	176155	26791	1063193	45773	110739	0	0	7944	662578	0	0
2024-08-04 09:30:47			0	35091	0	0	0	28893	27480	176031	26793	1063175	45785	110739	0	0	7944	662094	0	0
2024-08-04 09:31:47			0	35116	0	0	0	28911	27490	175892	26918	1063301	45763	110746	0	0	7946	660955	0	0
2024-08-04 09:32:47			0	35124	0	0	0	28924	27500	176024	26608	1063202	45796	110751	0	0	7946	660565	0	0
2024-08-04 09:33:47			0	35128	0	0	0	28914	27490	175840	26923	1063301	45763	110747	0	0	7946	660427	0	0
2024-08-04 09:34:47			0	35126	0	0	0	28919	27500	175860	26785	1063310	45775	110749	0	0	7946	660477	0	0
2024-08-04 09:35:47			0	35149	0	0	0	28909	27510	175776	26989	1063355	45764	110745	0	0	7948	659428	0	0
2024-08-04 09:36:47			0	35156	0	0	0	28916	27500	175732	26797	1063346	45787	110748	0	0	7948	659158	0	0
2024-08-04 09:37:47			0	35172	0	0	0	28906	27490	175760	26857	1063220	45763	110744	0	0	7949	658494	0	0
2024-08-04 09:38:47			0	35178	0	0	0	28901	27500	175692	26674	1063373	45764	110742	0	0	7950	658193	0	0
2024-08-04 09:39:47			0	35195	0	0	0	28903	27500	175468	26648	1063292	45776	110743	0	0	7951	657447	0	0
2024-08-04 09:40:47			0	35232	0	0	0	28911	27500	175456	26537	1063283	45786	110746	0	0	7953	655827	0	0
2024-08-04 09:41:47			0	35249	0	0	0	28906	27510	175304	26901	1063364	45777	110744	0	0	7954	655046	0	0
2024-08-04 09:42:47			0	35257	0	0	0	28911	27510	175252	26790	1063274	45787	110746	0	0	7955	654697	0	0
2024-08-04 09:43:47			0	35268	0	0	0	28919	27510	175144	26800	1063328	45787	110749	0	0	7955	654216	0	0
2024-08-04 09:44:47			0	35281	0	0	0	28906	27500	175140	26597	1063346	45776	110744	0	0	7956	653686	0	0
2024-08-04 09:45:47			0	35273	0	0	0	28909	27520	175136	26686	1063346	45777	110745	0	0	7956	653960	0	0
2024-08-04 09:46:47			0	35306	0	0	0	28901	27500	174968	26679	1063310	45763	110742	0	0	7958	652596	0	0
2024-08-04 09:47:47			0	35279	0	0	0	28901	27500	175180	26609	1063292	45776	110742	0	0	7956	653774	0	0
2024-08-04 09:48:47			0	35243	0	0	0	28896	27510	175316	26882	1063310	45788	110740	0	0	7954	655308	0	0
2024-08-04 09:49:47			0	35213	0	0	0	28903	27490	175384	27020	1063301	45786	110743	0	0	7952	656697	0	0
2024-08-04 09:50:47			0	35238	0	0	0	28909	27510	175420	26786	1063391	45777	110745	0	0	7953	655527	0	0
2024-08-04 09:51:47			0	35242	0	0	0	28919	27500	175348	26684	1063346	45787	110749	0	0	7953	655390	0	0
2024-08-04 09:52:47			0	35273	0	0	0	28914	27500	175172	26979	1063373	45787	110747	0	0	7955	654035	0	0
2024-08-04 09:53:47			0	35299	0	0	0	28909	27510	175132	26871	1063328	45776	110745	0	0	7957	652863	0	0
2024-08-04 09:54:47			0	35294	0	0	0	28919	27520	175004	26916	1063319	45765	110749	0	0	7957	653044	0	0
2024-08-04 09:55:47			0	35319	0	0	0	28924	27510	174952	26828	1063328	45787	110751	0	0	7958	651992	0	0
2024-08-04 09:56:47			0	35326	0	0	0	28927	27520	174928	26816	1063346	45798	110752	0	0	7959	651650	0	0
2024-08-04 09:57:47			0	35313	0	0	0	28937	27510	174916	26601	1063382	45776	110756	0	0	7958	652253	0	0
2024-08-04 09:58:47			0	35305	0	0	0	28942	27530	174940	27017	1063462	45789	110758	0	0	7957	652527	0	0
2024-08-04 09:59:47			0	35330	0	0	0	28950	27510	174924	27095	1063471	45777	110761	0	0	7958	651513	0	0
2024-08-04 10:00:47			0	35335	0	0	0	28945	27530	174800	26989	1063489	45766	110759	0	0	7959	651220	0	0
2024-08-04 10:01:47			0	35316	0	0	0	28945	27530	174924	27059	1063471	45779	110759	0	0	7958	652047	0	0
2024-08-04 10:02:47			0	35326	0	0	0	28932	27530	174904	26786	1063462	45789	110754	0	0	7959	651612	0	0
2024-08-04 10:03:47			0	35296	0	0	0	28932	27530	174980	26733	1063417	45790	110754	0	0	7957	652919	0	0
2024-08-04 10:04:47			0	35291	0	0	0	28937	27540	175104	26897	1063427	45779	110756	0	0	7956	653100	0	0
2024-08-04 10:05:47			0	35291	0	0	0	28927	27530	175056	26830	1063471	45790	110752	0	0	7957	653137	0	0
2024-08-04 10:06:47			0	35302	0	0	0	28927	27530	175004	26885	1063417	45779	110752	0	0	7957	652658	0	0
2024-08-04 10:07:47			0	35325	0	0	0	28935	27540	174888	26878	1063507	45756	110755	0	0	7959	651618	0	0
2024-08-04 10:08:47			0	35331	0	0	0	28935	27530	174972	26797	1063498	45779	110755	0	0	7959	651394	0	0
2024-08-04 10:09:47			0	35344	0	0	0	28945	27540	174736	26859	1063463	45768	110759	0	0	7960	650791	0	0
2024-08-04 10:10:47			0	35364	0	0	0	28955	27540	174720	27092	1063489	45780	110763	0	0	7961	649922	0	0
2024-08-04 10:11:47			0	35385	0	0	0	28945	27540	174544	27057	1063642	45779	110759	0	0	7962	649010	0	0
2024-08-04 10:12:47			0	35402	0	0	0	28945	27540	174448	27168	1063534	45779	110759	0	0	7963	648272	0	0
2024-08-04 10:13:47			0	35392	0	0	0	28953	27540	174480	26923	1063436	45780	110762	0	0	7962	648706	0	0
2024-08-04 10:14:47			0	35414	0	0	0	28948	27550	174512	26859	1063552	45780	110760	0	0	7964	647714	0	0
2024-08-04 10:15:47			0	35413	0	0	0	28950	27540	174532	26906	1063489	45780	110761	0	0	7964	647795	0	0
2024-08-04 10:16:47			0	35397	0	0	0	28955	27550	174392	27194	1063498	45791	110763	0	0	7963	648452	0	0
2024-08-04 10:17:47			0	35392	0	0	0	28955	27550	174492	27050	1063525	45768	110763	0	0	7962	648669	0	0
2024-08-04 10:18:47			0	35390	0	0	0	28953	27550	174576	26722	1063552	45801	110762	0	0	7962	648755	0	0
2024-08-04 10:19:47			0	35415	0	0	0	28961	27550	174464	27173	1063606	45780	110765	0	0	7964	647671	0	0
2024-08-04 10:20:47			0	35417	0	0	0	28955	27550	174372	27000	1063498	45791	110763	0	0	7964	647584	0	0
2024-08-04 10:21:47			0	35444	0	0	0	28955	27550	174264	26854	1063561	45781	110763	0	0	7966	646415	0	0
2024-08-04 10:22:47			0	35489	0	0	0	28955	27540	174120	27076	1063454	45779	110763	0	0	7968	644507	0	0
2024-08-04 10:23:47			0	35524	0	0	0	28958	27550	173904	26890	1063588	45769	110764	0	0	7971	642959	0	0
2024-08-04 10:24:47			0	35546	0	0	0	28958	27560	173796	26899	1063597	45791	110764	0	0	7972	641974	0	0
2024-08-04 10:25:47			0	35543	0	0	0	28953	27560	173760	26854	1063543	45781	110762	0	0	7972	642104	0	0
2024-08-04 10:26:47			0	35561	0	0	0	28948	27560	173764	26994	1063624	45781	110760	0	0	7973	641328	0	0
2024-08-04 10:27:47			0	35582	0	0	0	28953	27560	173668	26955	1063570	45769	110762	0	0	7974	640425	0	0
2024-08-04 10:28:47			0	35541	0	0	0	28958	27560	173808	26772	1063624	45781	110764	0	0	7972	642190	0	0
2024-08-04 10:29:47			0	35555	0	0	0	28958	27550	173808	26986	1063588	45769	110764	0	0	7972	641624	0	0
2024-08-04 10:30:47			0	35570	0	0	0	28948	27560	173808	26811	1063606	45803	110760	0	0	7974	640941	0	0
2024-08-04 10:31:47			0	35588	0	0	0	28948	27560	173704	27138	1063633	45770	110760	0	0	7975	640167	0	0
2024-08-04 10:32:47			0	35565	0	0	0	28945	27550	173728	26568	1063552	45768	110759	0	0	7973	641193	0	0
2024-08-04 10:33:47			0	35563	0	0	0	28935	27560	173740	26746	1063570	45769	110755	0	0	7973	641242	0	0
2024-08-04 10:34:47			0	35547	0	0	0	28937	27550	173788	27301	1063552	45780	110756	0	0	7972	641968	0	0
2024-08-04 10:35:47			0	35577	0	0	0	28948	27540	173692	26824	1063454	45779	110760	0	0	7974	640714	0	0
2024-08-04 10:36:47			0	35592	0	0	0	28945	27550	173556	26901	1063525	45791	110759	0	0	7975	640032	0	0
2024-08-04 10:37:47			0	35617	0	0	0	28948	27550	173424	26859	1063561	45781	110760	0	0	7976	638959	0	0
2024-08-04 10:38:47			0	35639	0	0	0	28945	27550	173276	27057	1063552	45780	110759	0	0	7978	638015	0	0
2024-08-04 10:39:47			0	35656	0	0	0	28950	27550	173264	26915	1063552	45780	110761	0	0	7979	637287	0	0
2024-08-04 10:40:47			0	35682	0	0	0	28950	27550	173188	26882	1063633	45780	110761	0	0	7980	636174	0	0
2024-08-04 10:41:47			0	35713	0	0	0	28958	27540	173084	27039	1063543	45768	110764	0	0	7982	634885	0	0
2024-08-04 10:42:47			0	35707	0	0	0	28955	27560	173044	26748	1063570	45791	110763	0	0	7982	635068	0	0
2024-08-04 10:43:47			0	35704	0	0	0	28953	27550	173060	26902	1063552	45791	110762	0	0	7982	635233	0	0
2024-08-04 10:44:47			0	35703	0	0	0	28963	27550	173132	26986	1063606	45791	110766	0	0	7981	635276	0	0
2024-08-04 10:45:47			0	35736	0	0	0	28955	27560	172968	26844	1063597	45791	110763	0	0	7984	633830	0	0
2024-08-04 10:46:47			0	35742	0	0	0	28950	27560	172900	26975	1063624	45791	110761	0	0	7984	633574	0	0
2024-08-04 10:47:47			0	35739	0	0	0	28953	27560	172980	26866	1063651	45769	110762	0	0	7984	633702	0	0
2024-08-04 10:48:47			0	35740	0	0	0	28950	27550	172896	26654	1063525	45768	110761	0	0	7984	633696	0	0
2024-08-04 10:49:47			0	35738	0	0	0	28948	27550	172884	26769	1063534	45791	110760	0	0	7984	633781	0	0
2024-08-04 10:50:47			0	35731	0	0	0	28950	27550	172804	26918	1063579	45791	110761	0	0	7983	634080	0	0
2024-08-04 10:51:47			0	35748	0	0	0	28948	27560	172784	27013	1063570	45769	110760	0	0	7984	633318	0	0
2024-08-04 10:52:47			0	35752	0	0	0	28953	27550	172836	26677	1063588	45791	110762	0	0	7985	633184	0	0
2024-08-04 10:53:47			0	35740	0	0	0	28948	27550	172892	26915	1063561	45791	110760	0	0	7984	633696	0	0
2024-08-04 10:54:47			0	35753	0	0	0	28948	27550	172892	26611	1063561	45769	110760	0	0	7985	633141	0	0
2024-08-04 10:55:47			0	35781	0	0	0	28950	27550	172796	27001	1063606	45780	110761	0	0	7986	631948	0	0
2024-08-04 10:56:47			0	35794	0	0	0	28950	27560	172540	26847	1063624	45781	110761	0	0	7987	631359	0	0
2024-08-04 10:57:47			0	35799	0	0	0	28945	27550	172664	26679	1063534	45781	110759	0	0	7988	631182	0	0
2024-08-04 10:58:47			0	35802	0	0	0	28945	27550	172568	26871	1063525	45780	110759	0	0	7988	631055	0	0
2024-08-04 10:59:47			0	35803	0	0	0	28948	27550	172580	27140	1063534	45769	110760	0	0	7988	631012	0	0
2024-08-04 11:00:47			0	35807	0	0	0	28948	27550	172656	26896	1063552	45768	110760	0	0	7988	630842	0	0
2024-08-04 11:01:47			0	35812	0	0	0	28950	27550	172540	26706	1063525	45780	110761	0	0	7988	630629	0	0
2024-08-04 11:02:47			0	35804	0	0	0	28950	27550	172536	26902	1063552	45780	110761	0	0	7988	630970	0	0
2024-08-04 11:03:47			0	35812	0	0	0	28945	27560	172720	27024	1063570	45769	110759	0	0	7988	630593	0	0
2024-08-04 11:04:47			0	35823	0	0	0	28942	27550	172532	26915	1063615	45781	110758	0	0	7989	630162	0	0
2024-08-04 11:05:47			0	35826	0	0	0	28942	27550	172460	26906	1063561	45769	110758	0	0	7989	630034	0	0
2024-08-04 11:06:47			0	35840	0	0	0	28945	27550	172424	26928	1063552	45780	110759	0	0	7990	629440	0	0
2024-08-04 11:07:47			0	35835	0	0	0	28942	27540	172440	27024	1063597	45768	110758	0	0	7990	629688	0	0
2024-08-04 11:08:47			0	35845	0	0	0	28948	27550	172372	26922	1063552	45791	110760	0	0	7990	629228	0	0
2024-08-04 11:09:47			0	35858	0	0	0	28950	27550	172329	26738	1063588	45781	110761	0	0	7991	628676	0	0
2024-08-04 11:10:47			0	35843	0	0	0	28948	27550	172304	26746	1063534	45781	110760	0	0	7990	629313	0	0
2024-08-04 11:11:47			0	35866	0	0	0	28945	27540	172221	26845	1063543	45768	110759	0	0	7992	628373	0	0
2024-08-04 11:12:47			0	35870	0	0	0	28942	27550	172225	26896	1063633	45780	110758	0	0	7992	628167	0	0
2024-08-04 11:13:47			0	35869	0	0	0	28950	27550	172293	26967	1063606	45791	110761	0	0	7992	628210	0	0
2024-08-04 11:14:47			0	35865	0	0	0	28948	27550	172429	27026	1063579	45780	110760	0	0	7992	628379	0	0
2024-08-04 11:15:47			0	35865	0	0	0	28963	27550	172457	26720	1063588	45781	110766	0	0	7991	628379	0	0
2024-08-04 11:16:47			0	35859	0	0	0	28953	27540	172493	26703	1063561	45790	110762	0	0	7991	628670	0	0
2024-08-04 11:17:47			0	35838	0	0	0	28950	27550	172440	26981	1063552	45780	110761	0	0	7990	629525	0	0
2024-08-04 11:18:47			0	35832	0	0	0	28950	27550	172484	27017	1063579	45780	110761	0	0	7990	629780	0	0
2024-08-04 11:19:47			0	35825	0	0	0	28950	27550	172632	27168	1063615	45781	110761	0	0	7989	630077	0	0
2024-08-04 11:20:47			0	35819	0	0	0	28955	27550	172544	26670	1063615	45781	110763	0	0	7989	630332	0	0
2024-08-04 11:21:47			0	35833	0	0	0	28966	27560	172572	26847	1063624	45781	110767	0	0	7989	629701	0	0
2024-08-04 11:22:47			0	35809	0	0	0	28963	27560	172444	26979	1063597	45769	110766	0	0	7988	630721	0	0
2024-08-04 11:23:47			0	35817	0	0	0	28966	27560	172552	26580	1063624	45781	110767	0	0	7988	630381	0	0
2024-08-04 11:24:47			0	35821	0	0	0	28989	27550	172484	26561	1063642	45791	110776	0	0	7988	630247	0	0
2024-08-04 11:25:47			0	35846	0	0	0	28997	27550	172412	26896	1063615	45791	110779	0	0	7990	629185	0	0
2024-08-04 11:26:47			0	35849	0	0	0	28984	27570	172376	26987	1063705	45783	110774	0	0	7990	628986	0	0
2024-08-04 11:27:47			0	35846	0	0	0	28989	27560	172372	26812	1063714	45803	110776	0	0	7990	629149	0	0
2024-08-04 11:28:47			0	35853	0	0	0	28994	27570	172437	26804	1063669	45792	110778	0	0	7990	628816	0	0
2024-08-04 11:29:47			0	35846	0	0	0	28997	27570	172564	26680	1063758	45783	110779	0	0	7990	629113	0	0
2024-08-04 11:30:47			0	35813	0	0	0	29002	27570	172692	26755	1063776	45792	110781	0	0	7988	630514	0	0
2024-08-04 11:31:47			0	35777	0	0	0	29012	27580	172640	26920	1063767	45793	110785	0	0	7985	632010	0	0
2024-08-04 11:32:47			0	35762	0	0	0	29010	27580	172824	26948	1063794	45783	110784	0	0	7984	632648	0	0
2024-08-04 11:33:47			0	35737	0	0	0	29005	27580	172952	26960	1063794	45793	110782	0	0	7983	633714	0	0
2024-08-04 11:34:47			0	35709	0	0	0	28999	27570	172968	27046	1063705	45804	110780	0	0	7981	634946	0	0
2024-08-04 11:35:47			0	35693	0	0	0	29012	27590	173132	26970	1063821	45785	110785	0	0	7980	635557	0	0
2024-08-04 11:36:47			0	35679	0	0	0	29023	27590	173132	27010	1063812	45784	110789	0	0	7979	636155	0	0
2024-08-04 11:37:47			0	35670	0	0	0	29020	27590	173228	26977	1063875	45785	110788	0	0	7979	636541	0	0
2024-08-04 11:38:47			0	35670	0	0	0	29023	27590	173236	26890	1063875	45795	110789	0	0	7979	636541	0	0
2024-08-04 11:39:47			0	35680	0	0	0	29028	27600	173244	26753	1063911	45796	110791	0	0	7979	636076	0	0
2024-08-04 11:40:47			0	35658	0	0	0	29031	27600	173144	26634	1063920	45786	110792	0	0	7978	637018	0	0
2024-08-04 11:41:47			0	35655	0	0	0	29033	27610	173300	26920	1063965	45787	110793	0	0	7978	637109	0	0
2024-08-04 11:42:47			0	35663	0	0	0	29031	27610	173248	26833	1064009	45786	110792	0	0	7978	636767	0	0
2024-08-04 11:43:47			0	35653	0	0	0	29025	27610	173400	26935	1064009	45786	110790	0	0	7978	637195	0	0
2024-08-04 11:44:47			0	35642	0	0	0	29028	27610	173304	27039	1063929	45786	110791	0	0	7977	637666	0	0
2024-08-04 11:45:47			0	35642	0	0	0	29033	27620	173236	26994	1063929	45798	110793	0	0	7977	637630	0	0
2024-08-04 11:46:47			0	35667	0	0	0	29038	27610	173324	26974	1063938	45797	110795	0	0	7978	636596	0	0
2024-08-04 11:47:47			0	35700	0	0	0	29033	27620	173020	27213	1063982	45809	110793	0	0	7980	635148	0	0
2024-08-04 11:48:47			0	35706	0	0	0	29028	27620	172984	27261	1063982	45776	110791	0	0	7981	634892	0	0
2024-08-04 11:49:47			0	35706	0	0	0	29028	27620	173052	26960	1063973	45798	110791	0	0	7981	634892	0	0
2024-08-04 11:50:47			0	35703	0	0	0	29033	27620	172976	27312	1064009	45776	110793	0	0	7981	635020	0	0
2024-08-04 11:51:47			0	35730	0	0	0	29025	27630	173056	27114	1064018	45789	110790	0	0	7982	633831	0	0
2024-08-04 11:52:47			0	35751	0	0	0	29023	27620	172932	26814	1064000	45788	110789	0	0	7984	632972	0	0
2024-08-04 11:53:47			0	35768	0	0	0	29005	27620	172880	27289	1063956	45788	110782	0	0	7985	632247	0	0
2024-08-04 11:54:47			0	35768	0	0	0	29028	27610	172760	27154	1063965	45775	110791	0	0	7985	632284	0	0
2024-08-04 11:55:47			0	35793	0	0	0	29033	27620	172684	26956	1063929	45798	110793	0	0	7986	631183	0	0
2024-08-04 11:56:47			0	35763	0	0	0	29046	27620	172800	27064	1063973	45776	110798	0	0	7984	632460	0	0
2024-08-04 11:57:47			0	35784	0	0	0	29044	27620	172604	26922	1064009	45788	110797	0	0	7985	631566	0	0
2024-08-04 11:58:47			0	35798	0	0	0	29038	27620	172432	26887	1064036	45798	110795	0	0	7986	630971	0	0
2024-08-04 11:59:47			0	35832	0	0	0	29046	27630	172356	27069	1064081	45789	110798	0	0	7988	629490	0	0
2024-08-04 12:00:47			0	35843	0	0	0	29044	27640	172304	27067	1064099	45789	110797	0	0	7989	628987	0	0
2024-08-04 12:01:47			0	35887	0	0	0	29051	27620	172137	26658	1064090	45798	110800	0	0	7992	627194	0	0
2024-08-04 12:02:47			0	35922	0	0	0	29054	27650	171949	26656	1064117	45790	110801	0	0	7994	625605	0	0
2024-08-04 12:03:47			0	35893	0	0	0	29062	27650	172157	26795	1064081	45790	110804	0	0	7992	626832	0	0
2024-08-04 12:04:47			0	35882	0	0	0	29054	27650	172161	26717	1064054	45790	110801	0	0	7991	627297	0	0
2024-08-04 12:05:47			0	35871	0	0	0	29054	27650	172109	27332	1064108	45801	110801	0	0	7991	627763	0	0
2024-08-04 12:06:47			0	35888	0	0	0	29062	27640	172141	26772	1064153	45789	110804	0	0	7991	627080	0	0
2024-08-04 12:07:47			0	35903	0	0	0	29064	27660	171981	27339	1064180	45802	110805	0	0	7992	626373	0	0
2024-08-04 12:08:47			0	35931	0	0	0	29067	27650	171997	26828	1064162	45812	110806	0	0	7994	625225	0	0
2024-08-04 12:09:47			0	35920	0	0	0	29075	27660	172025	27102	1064216	45791	110809	0	0	7993	625654	0	0
2024-08-04 12:10:47			0	35925	0	0	0	29085	27650	171881	26941	1064225	45801	110813	0	0	7993	625479	0	0
2024-08-04 12:11:47			0	35922	0	0	0	29083	27660	171925	27019	1064216	45791	110812	0	0	7993	625569	0	0
2024-08-04 12:12:47			0	35906	0	0	0	29098	27660	172061	26765	1064297	45791	110818	0	0	7992	626246	0	0
2024-08-04 12:13:47			0	35895	0	0	0	29101	27670	172117	26845	1064225	45803	110819	0	0	7991	626675	0	0
2024-08-04 12:14:47			0	35841	0	0	0	29101	27660	172256	26798	1064243	45803	110819	0	0	7988	628999	0	0
2024-08-04 12:15:47			0	35767	0	0	0	29101	27680	172664	26805	1064279	45793	110819	0	0	7984	632072	0	0
2024-08-04 12:16:47			0	35711	0	0	0	29093	27670	173000	27001	1064288	45803	110816	0	0	7980	634495	0	0
2024-08-04 12:17:47			0	35661	0	0	0	29090	27680	173212	26826	1064243	45792	110815	0	0	7977	636596	0	0
2024-08-04 12:18:47			0	35641	0	0	0	29096	27690	173376	26682	1064342	45793	110817	0	0	7976	637416	0	0
2024-08-04 12:19:47			0	35623	0	0	0	29098	27690	173332	26757	1064315	45805	110818	0	0	7975	638187	0	0
2024-08-04 12:20:47			0	35625	0	0	0	29093	27690	173388	26979	1064342	45805	110816	0	0	7975	638101	0	0
2024-08-04 12:21:47			0	35628	0	0	0	29085	27690	173356	26826	1064351	45793	110813	0	0	7975	637973	0	0
2024-08-04 12:22:47			0	35640	0	0	0	29088	27690	173348	27166	1064288	45793	110814	0	0	7976	637458	0	0
2024-08-04 12:23:47			0	35637	0	0	0	29098	27680	173264	27003	1064378	45804	110818	0	0	7976	637624	0	0
2024-08-04 12:24:47			0	35653	0	0	0	29096	27680	173248	26689	1064297	45815	110817	0	0	7977	636938	0	0
2024-08-04 12:25:47			0	35653	0	0	0	29103	27690	173276	27060	1064351	45793	110820	0	0	7977	636902	0	0
2024-08-04 12:26:47			0	35649	0	0	0	29098	27680	173228	26798	1064333	45805	110818	0	0	7976	637110	0	0
2024-08-04 12:27:47			0	35682	0	0	0	29098	27690	173124	26802	1064369	45783	110818	0	0	7979	635661	0	0
2024-08-04 12:28:47			0	35674	0	0	0	29103	27700	173196	27152	1064369	45795	110820	0	0	7978	635967	0	0
2024-08-04 12:29:47			0	35658	0	0	0	29101	27690	173140	26831	1064378	45805	110819	0	0	7977	636688	0	0
2024-08-04 12:30:47			0	35651	0	0	0	29109	27700	173180	26986	1064396	45807	110822	0	0	7977	636951	0	0
2024-08-04 12:31:47			0	35659	0	0	0	29114	27710	173112	26932	1064404	45807	110824	0	0	7977	636572	0	0
2024-08-04 12:32:47			0	35717	0	0	0	29080	27700	172896	27050	1064369	45795	110811	0	0	7981	634130	0	0
2024-08-04 12:33:47			0	35735	0	0	0	29075	27700	172828	27013	1064333	45806	110809	0	0	7982	633362	0	0
2024-08-04 12:34:47			0	35742	0	0	0	29116	27690	172852	27022	1064458	45793	110825	0	0	7982	633100	0	0
2024-08-04 12:35:47			0	35713	0	0	0	29122	27710	172840	26866	1064458	45807	110827	0	0	7980	634264	0	0
2024-08-04 12:36:47			0	35702	0	0	0	29132	27710	172992	27029	1064467	45808	110831	0	0	7979	634734	0	0
2024-08-04 12:37:47			0	35675	0	0	0	29145	27700	173012	26781	1064396	45807	110836	0	0	7977	635924	0	0
2024-08-04 12:38:47			0	35682	0	0	0	29153	27710	172996	27112	1064494	45808	110839	0	0	7978	635588	0	0
2024-08-04 12:39:47			0	35699	0	0	0	29150	27710	172924	27282	1064521	45796	110838	0	0	7979	634862	0	0
2024-08-04 12:40:47			0	35669	0	0	0	29155	27720	173044	27208	1064530	45796	110840	0	0	7977	636107	0	0
2024-08-04 12:41:47			0	35671	0	0	0	29161	27730	172988	27072	1064530	45810	110842	0	0	7977	635985	0	0
2024-08-04 12:42:47			0	35687	0	0	0	29158	27740	173056	27069	1064593	45821	110841	0	0	7978	635264	0	0
2024-08-04 12:43:47			0	35672	0	0	0	29161	27730	172988	26668	1064584	45810	110842	0	0	7977	635942	0	0
2024-08-04 12:44:47			0	35670	0	0	0	29166	27740	173072	27059	1064593	45798	110844	0	0	7977	635991	0	0
2024-08-04 12:45:47			0	35675	0	0	0	29166	27740	173024	26875	1064647	45788	110844	0	0	7977	635777	0	0
2024-08-04 12:46:47			0	35698	0	0	0	29173	27740	172960	26861	1064656	45811	110847	0	0	7979	634795	0	0
2024-08-04 12:47:47			0	35693	0	0	0	29163	27740	172952	27017	1064656	45811	110843	0	0	7978	635008	0	0
2024-08-04 12:48:47			0	35698	0	0	0	29189	27760	172900	26871	1064629	45800	110853	0	0	7978	634721	0	0
2024-08-04 12:49:47			0	35716	0	0	0	29181	27760	172840	26786	1064655	45834	110850	0	0	7980	633953	0	0
2024-08-04 12:50:47			0	35714	0	0	0	29181	27750	172864	26797	1064700	45800	110850	0	0	7979	634075	0	0
2024-08-04 12:51:47			0	35721	0	0	0	29189	27760	172872	26680	1064790	45812	110853	0	0	7980	633740	0	0
2024-08-04 12:52:47			0	35740	0	0	0	29181	27760	172816	27062	1064682	45800	110850	0	0	7981	632930	0	0
2024-08-04 12:53:47			0	35758	0	0	0	29192	27760	172748	26667	1064826	45813	110854	0	0	7982	632163	0	0
2024-08-04 12:54:47			0	35764	0	0	0	29181	27760	172644	26927	1064745	45801	110850	0	0	7983	631908	0	0
2024-08-04 12:55:47			0	35797	0	0	0	29194	27770	172408	26708	1064763	45802	110855	0	0	7984	630468	0	0
2024-08-04 12:56:47			0	35817	0	0	0	29192	27770	172392	26889	1064808	45814	110854	0	0	7986	629619	0	0
2024-08-04 12:57:47			0	35822	0	0	0	29186	27770	172272	26870	1064844	45791	110852	0	0	7986	629407	0	0
2024-08-04 12:58:47			0	35810	0	0	0	29192	27780	172388	26575	1064826	45802	110854	0	0	7985	629880	0	0
2024-08-04 12:59:47			0	35814	0	0	0	29189	27780	172284	27251	1064799	45814	110853	0	0	7986	629710	0	0
2024-08-04 13:00:47			0	35819	0	0	0	29189	27770	172348	26830	1064844	45791	110853	0	0	7986	629534	0	0
2024-08-04 13:01:47			0	35814	0	0	0	29189	27780	172428	26899	1064853	45802	110853	0	0	7986	629710	0	0
2024-08-04 13:02:47			0	35812	0	0	0	29194	27790	172368	26845	1064925	45804	110855	0	0	7985	629759	0	0
2024-08-04 13:03:47			0	35813	0	0	0	29192	27780	172476	26984	1064862	45803	110854	0	0	7985	629753	0	0
2024-08-04 13:04:47			0	35761	0	0	0	29184	27780	172580	27083	1064826	45802	110851	0	0	7982	631963	0	0
2024-08-04 13:05:47			0	35710	0	0	0	29179	27780	172760	26915	1064907	45802	110849	0	0	7979	634136	0	0
2024-08-04 13:06:47			0	35657	0	0	0	29189	27780	173140	27144	1064853	45802	110853	0	0	7976	636400	0	0
2024-08-04 13:07:47			0	35621	0	0	0	29181	27780	173352	27010	1064826	45791	110850	0	0	7974	637942	0	0
2024-08-04 13:08:47			0	35590	0	0	0	29189	27780	173428	26743	1064808	45792	110853	0	0	7972	639271	0	0
2024-08-04 13:09:47			0	35564	0	0	0	29192	27780	173388	27168	1064826	45802	110854	0	0	7970	640388	0	0
2024-08-04 13:10:47			0	35561	0	0	0	29192	27790	173592	27053	1064853	45805	110854	0	0	7970	640480	0	0
2024-08-04 13:11:47			0	35548	0	0	0	29192	27790	173664	26916	1064925	45816	110854	0	0	7969	641039	0	0
2024-08-04 13:12:47			0	35554	0	0	0	29199	27780	173584	27086	1064907	45802	110857	0	0	7969	640818	0	0
2024-08-04 13:13:47			0	35551	0	0	0	29194	27790	173596	27121	1064844	45816	110855	0	0	7969	640910	0	0
2024-08-04 13:14:47			0	35557	0	0	0	29194	27780	173628	26847	1064916	45792	110855	0	0	7970	640689	0	0
2024-08-04 13:15:47			0	35538	0	0	0	29202	27790	173552	26916	1064952	45804	110858	0	0	7968	641469	0	0
2024-08-04 13:16:47			0	35548	0	0	0	29210	27790	173560	26998	1064961	45794	110861	0	0	7969	641039	0	0
2024-08-04 13:17:47			0	35542	0	0	0	29205	27800	173636	27171	1064943	45805	110859	0	0	7969	641260	0	0
2024-08-04 13:18:47			0	35562	0	0	0	29202	27790	173572	26743	1064880	45817	110858	0	0	7970	640437	0	0
2024-08-04 13:19:47			0	35553	0	0	0	29212	27800	173516	26981	1064997	45817	110862	0	0	7969	640787	0	0
2024-08-04 13:20:47			0	35556	0	0	0	29215	27800	173608	26885	1064970	45817	110863	0	0	7969	640658	0	0
2024-08-04 13:21:47			0	35545	0	0	0	29212	27790	173520	27031	1064952	45804	110862	0	0	7969	641168	0	0
2024-08-04 13:22:47			0	35568	0	0	0	29223	27800	173592	26970	1064970	45805	110866	0	0	7970	640142	0	0
2024-08-04 13:23:47			0	35568	0	0	0	29223	27800	173428	26726	1065024	45817	110866	0	0	7970	640142	0	0
2024-08-04 13:24:47			0	35579	0	0	0	29233	27820	173352	26791	1065086	45819	110870	0	0	7971	639596	0	0
2024-08-04 13:25:47			0	35615	0	0	0	29238	27820	173236	26934	1065104	45819	110872	0	0	7973	638052	0	0
2024-08-04 13:26:47			0	35646	0	0	0	29241	27810	173244	26811	1065095	45818	110873	0	0	7975	636761	0	0
2024-08-04 13:27:47			0	35631	0	0	0	29254	27820	173152	26824	1065104	45819	110878	0	0	7973	637367	0	0
2024-08-04 13:28:47			0	35683	0	0	0	29267	27820	173072	27156	1065086	45819	110883	0	0	7976	635143	0	0
2024-08-04 13:29:47			0	35689	0	0	0	29277	27830	172912	26781	1065266	45831	110887	0	0	7977	634850	0	0
2024-08-04 13:30:47			0	35710	0	0	0	29293	27840	172708	26753	1065221	45821	110893	0	0	7978	633917	0	0
2024-08-04 13:31:47			0	35786	0	0	0	29288	27840	172388	27163	1065284	45842	110891	0	0	7982	630682	0	0
2024-08-04 13:32:47			0	35838	0	0	0	29283	27850	172044	27003	1065373	45832	110889	0	0	7986	628438	0	0
2024-08-04 13:33:47			0	35876	0	0	0	29277	27860	171945	27039	1065337	45823	110887	0	0	7988	626793	0	0
2024-08-04 13:34:47			0	35902	0	0	0	29283	27850	171845	26790	1065355	45822	110889	0	0	7990	625730	0	0
2024-08-04 13:35:47			0	35884	0	0	0	29288	27860	171905	27078	1065373	45824	110891	0	0	7989	626455	0	0
2024-08-04 13:36:47			0	35875	0	0	0	29280	27860	171993	26759	1065400	45812	110888	0	0	7988	626835	0	0
2024-08-04 13:37:47			0	35853	0	0	0	29277	27870	172076	26887	1065328	45824	110887	0	0	7987	627730	0	0
2024-08-04 13:38:47			0	35811	0	0	0	29283	27860	172284	27118	1065337	45823	110889	0	0	7984	629547	0	0
2024-08-04 13:39:47			0	35780	0	0	0	29288	27870	172652	26826	1065418	45824	110891	0	0	7982	630828	0	0
2024-08-04 13:40:47			0	35730	0	0	0	29332	27870	172644	27086	1065526	45834	110908	0	0	7978	632955	0	0
2024-08-04 13:41:47			0	35772	0	0	0	29332	27880	172440	27215	1065481	45835	110908	0	0	7981	631131	0	0
2024-08-04 13:42:47			0	35814	0	0	0	29322	27880	172260	27225	1065490	45826	110904	0	0	7984	629347	0	0
2024-08-04 13:43:47			0	35835	0	0	0	29314	27900	172192	26904	1065571	45827	110901	0	0	7985	628384	0	0
2024-08-04 13:44:47			0	35843	0	0	0	29309	27890	172120	26902	1065508	45814	110899	0	0	7986	628082	0	0
2024-08-04 13:45:47			0	35822	0	0	0	29324	27890	172256	26736	1065508	45826	110905	0	0	7984	628972	0	0
2024-08-04 13:46:47			0	35821	0	0	0	29322	27890	172156	26965	1065508	45814	110904	0	0	7984	629014	0	0
2024-08-04 13:47:47			0	35803	0	0	0	29332	27900	172256	26788	1065544	45815	110908	0	0	7983	629742	0	0
2024-08-04 13:48:47			0	35813	0	0	0	29332	27910	172316	26989	1065589	45838	110908	0	0	7984	629281	0	0
2024-08-04 13:49:47			0	35812	0	0	0	29335	27910	172176	27083	1065589	45828	110909	0	0	7984	629323	0	0
2024-08-04 13:50:47			0	35843	0	0	0	29329	27910	172148	27001	1065571	45838	110907	0	0	7986	628009	0	0
2024-08-04 13:51:47			0	35867	0	0	0	29335	27910	171941	26928	1065571	45838	110909	0	0	7987	626993	0	0
2024-08-04 13:52:47			0	35883	0	0	0	29332	27900	171917	26797	1065607	45816	110908	0	0	7988	626353	0	0
2024-08-04 13:53:47			0	35901	0	0	0	29324	27920	171849	26863	1065634	45828	110905	0	0	7989	625520	0	0
2024-08-04 13:54:47			0	35889	0	0	0	29335	27920	171845	27253	1065634	45828	110909	0	0	7988	626027	0	0
2024-08-04 13:55:47			0	35915	0	0	0	29348	27920	171829	27140	1065688	45828	110914	0	0	7990	624928	0	0
2024-08-04 13:56:47			0	35927	0	0	0	29335	27930	171789	26904	1065679	45830	110909	0	0	7991	624386	0	0
2024-08-04 13:57:47			0	35917	0	0	0	29368	27930	171725	26713	1065786	45830	110922	0	0	7990	624808	0	0
2024-08-04 13:58:47			0	35953	0	0	0	29348	27940	171621	27083	1065750	45830	110914	0	0	7992	623254	0	0
2024-08-04 13:59:47			0	35952	0	0	0	29358	27930	171617	26967	1065688	45830	110918	0	0	7992	623332	0	0
2024-08-04 14:00:47			0	35968	0	0	0	29353	27930	171545	26722	1065715	45830	110916	0	0	7993	622658	0	0
2024-08-04 14:01:47			0	35991	0	0	0	29358	27940	171409	26830	1065750	45819	110918	0	0	7994	621654	0	0
2024-08-04 14:02:47			0	36014	0	0	0	29363	27930	171345	26920	1065768	45819	110920	0	0	7995	620724	0	0
2024-08-04 14:03:47			0	36007	0	0	0	29374	27950	171249	27059	1065822	45832	110924	0	0	7995	620946	0	0
2024-08-04 14:04:47			0	36016	0	0	0	29376	27940	171233	27128	1065733	45842	110925	0	0	7995	620604	0	0
2024-08-04 14:05:47			0	36046	0	0	0	29381	27960	171129	26946	1065894	45832	110927	0	0	7997	619273	0	0
2024-08-04 14:06:47			0	36081	0	0	0	29374	27960	170913	27093	1065840	45843	110924	0	0	7999	617807	0	0
2024-08-04 14:07:47			0	36091	0	0	0	29371	27960	170913	26987	1065813	45843	110923	0	0	8000	617388	0	0
2024-08-04 14:08:47			0	36089	0	0	0	29368	27960	170805	26961	1065849	45833	110922	0	0	8000	617472	0	0
2024-08-04 14:09:47			0	36106	0	0	0	29379	27960	170849	27140	1065822	45822	110926	0	0	8001	616761	0	0
2024-08-04 14:10:47			0	36105	0	0	0	29376	27960	170881	26804	1065849	45833	110925	0	0	8001	616802	0	0
2024-08-04 14:11:47			0	36100	0	0	0	29368	27960	170745	27119	1065849	45844	110922	0	0	8001	617012	0	0
2024-08-04 14:12:47			0	36143	0	0	0	29384	27970	170657	27053	1065939	45845	110928	0	0	8003	615179	0	0
2024-08-04 14:13:47			0	36135	0	0	0	29368	27980	170737	26899	1066011	45833	110922	0	0	8003	615478	0	0
2024-08-04 14:14:47			0	36131	0	0	0	29358	27980	170713	26982	1065876	45812	110918	0	0	8003	615645	0	0
2024-08-04 14:15:47			0	36098	0	0	0	29389	27970	170789	27152	1065912	45833	110930	0	0	8000	617060	0	0
2024-08-04 14:16:47			0	36089	0	0	0	29412	27980	171037	26972	1066038	45823	110939	0	0	7999	617400	0	0
2024-08-04 14:17:47			0	36084	0	0	0	29433	27980	170897	27017	1065993	45834	110947	0	0	7999	617610	0	0
2024-08-04 14:18:47			0	36076	0	0	0	29425	27990	170905	27081	1066064	45835	110944	0	0	7998	617909	0	0
2024-08-04 14:19:47			0	36077	0	0	0	29433	28000	170997	27156	1066100	45848	110947	0	0	7998	617832	0	0
2024-08-04 14:20:47			0	36094	0	0	0	29425	28000	171041	27015	1066100	45848	110944	0	0	8000	617120	0	0
2024-08-04 14:21:47			0	36090	0	0	0	29431	28010	170765	26656	1066145	45827	110946	0	0	7999	617252	0	0
2024-08-04 14:22:47			0	36101	0	0	0	29431	28000	170701	26797	1066109	45848	110946	0	0	8000	616827	0	0
2024-08-04 14:23:47			0	36115	0	0	0	29431	28010	170813	26915	1066172	45827	110946	0	0	8001	616207	0	0
2024-08-04 14:24:47			0	36131	0	0	0	29418	28000	170745	26713	1066082	45826	110941	0	0	8002	615574	0	0
2024-08-04 14:25:47			0	36164	0	0	0	29399	28000	170517	27320	1066055	45815	110934	0	0	8004	614197	0	0
2024-08-04 14:26:47			0	36182	0	0	0	29386	28000	170377	27248	1066082	45826	110929	0	0	8006	613447	0	0
2024-08-04 14:27:47			0	36190	0	0	0	29379	28000	170321	27235	1066020	45815	110926	0	0	8006	613114	0	0
2024-08-04 14:28:47			0	36193	0	0	0	29384	28000	170361	27045	1065993	45815	110928	0	0	8006	612989	0	0
2024-08-04 14:29:47			0	36208	0	0	0	29394	27990	170381	27319	1066029	45835	110932	0	0	8007	612400	0	0
2024-08-04 14:30:47			0	36199	0	0	0	29386	27990	170305	26996	1066064	45814	110929	0	0	8007	612774	0	0
2024-08-04 14:31:47			0	36207	0	0	0	29384	28010	170385	26904	1066064	45837	110928	0	0	8007	612371	0	0
2024-08-04 14:32:47			0	36210	0	0	0	29389	28000	170465	27093	1066055	45826	110930	0	0	8007	612281	0	0
2024-08-04 14:33:47			0	36214	0	0	0	29397	28010	170425	26887	1066046	45828	110933	0	0	8007	612079	0	0
2024-08-04 14:34:47			0	36217	0	0	0	29386	28000	170477	26774	1066082	45836	110929	0	0	8008	611990	0	0
2024-08-04 14:35:47			0	36214	0	0	0	29389	28000	170453	27144	1066055	45826	110930	0	0	8007	612115	0	0
2024-08-04 14:36:47			0	36205	0	0	0	29402	28010	170485	26828	1066064	45827	110935	0	0	8007	612454	0	0
2024-08-04 14:37:47			0	36183	0	0	0	29412	28010	170453	26863	1066154	45838	110939	0	0	8005	613370	0	0
2024-08-04 14:38:47			0	36179	0	0	0	29384	28010	170545	26696	1066100	45817	110928	0	0	8005	613536	0	0
2024-08-04 14:39:47			0	36172	0	0	0	29386	28000	170677	26987	1066082	45836	110929	0	0	8005	613863	0	0
2024-08-04 14:40:47			0	36137	0	0	0	29397	28000	170741	27074	1066109	45826	110933	0	0	8003	615323	0	0
2024-08-04 14:41:47			0	36132	0	0	0	29407	28020	170797	27067	1066163	45838	110937	0	0	8002	615461	0	0
2024-08-04 14:42:47			0	36144	0	0	0	29410	28020	170773	27112	1066253	45838	110938	0	0	8003	614960	0	0
2024-08-04 14:43:47			0	36164	0	0	0	29428	28030	170685	26817	1066235	45851	110945	0	0	8004	614090	0	0
2024-08-04 14:44:47			0	36163	0	0	0	29470	28040	170693	26899	1066424	45840	110961	0	0	8003	614097	0	0
2024-08-04 14:45:47			0	36178	0	0	0	29483	28050	170429	26979	1066540	45853	110966	0	0	8004	613436	0	0
2024-08-04 14:46:47			0	36223	0	0	0	29470	28060	170393	26882	1066567	45866	110961	0	0	8007	611529	0	0
2024-08-04 14:47:47			0	36221	0	0	0	29514	28080	170305	27048	1066594	45856	110978	0	0	8006	611541	0	0
2024-08-04 14:48:47			0	36240	0	0	0	29519	28080	170261	27015	1066621	45867	110980	0	0	8007	610752	0	0
2024-08-04 14:49:47			0	36269	0	0	0	29483	28080	170133	27064	1066630	45857	110966	0	0	8010	609549	0	0
2024-08-04 14:50:47			0	36327	0	0	0	29454	28100	169921	26682	1066495	45825	110955	0	0	8014	607077	0	0
2024-08-04 14:51:47			0	36313	0	0	0	29454	28080	169905	26871	1066549	45823	110955	0	0	8013	607726	0	0
2024-08-04 14:52:47			0	36335	0	0	0	29470	28090	169913	26908	1066478	45834	110961	0	0	8014	606781	0	0
2024-08-04 14:53:47			0	36311	0	0	0	29511	28080	169905	26641	1066549	45845	110977	0	0	8012	607809	0	0
2024-08-04 14:54:47			0	36345	0	0	0	29506	28090	169765	26901	1066621	45835	110975	0	0	8014	606368	0	0
2024-08-04 14:55:47			0	36397	0	0	0	29532	28100	169537	26765	1066711	45847	110985	0	0	8016	604188	0	0
2024-08-04 14:56:47			0	36430	0	0	0	29537	28110	169401	26715	1066720	45836	110987	0	0	8018	602794	0	0
2024-08-04 14:57:47			0	36443	0	0	0	29545	28110	169301	26930	1066747	45836	110990	0	0	8019	602259	0	0
2024-08-04 14:58:47			0	36451	0	0	0	29553	28130	169297	26993	1066783	45861	110993	0	0	8019	601861	0	0
2024-08-04 14:59:47			0	36472	0	0	0	29480	28130	169229	26963	1066756	45838	110965	0	0	8022	600998	0	0
2024-08-04 15:00:47			0	36447	0	0	0	29472	28110	169273	27168	1066648	45826	110962	0	0	8021	602095	0	0
2024-08-04 15:01:47			0	36439	0	0	0	29490	28110	169253	26885	1066540	45826	110969	0	0	8020	602424	0	0
2024-08-04 15:02:47			0	36475	0	0	0	29529	28110	169137	26965	1066585	45825	110984	0	0	8021	600945	0	0
2024-08-04 15:03:47			0	36531	0	0	0	29488	28100	168865	26996	1066603	45825	110968	0	0	8025	598683	0	0
2024-08-04 15:04:47			0	36466	0	0	0	29368	28090	169125	26660	1066460	45813	110922	0	0	8023	601384	0	0
2024-08-04 15:05:47			0	36436	0	0	0	29441	28070	169297	26675	1066397	45811	110950	0	0	8020	602686	0	0
2024-08-04 15:06:47			0	36410	0	0	0	29480	28080	169401	26875	1066415	45834	110965	0	0	8018	603722	0	0
2024-08-04 15:07:47			0	36457	0	0	0	29527	28080	169205	26987	1066549	45823	110983	0	0	8020	601788	0	0
2024-08-04 15:08:47			0	36491	0	0	0	29480	28090	168981	27185	1066558	45834	110965	0	0	8023	600357	0	0
2024-08-04 15:09:47			0	36494	0	0	0	29449	28090	169021	26937	1066567	45824	110953	0	0	8024	600234	0	0
2024-08-04 15:10:47			0	36459	0	0	0	29384	28090	169185	26896	1066370	45812	110928	0	0	8023	601671	0	0
2024-08-04 15:11:47			0	36378	0	0	0	29348	28070	169541	26542	1066289	45811	110914	0	0	8018	605076	0	0
2024-08-04 15:12:47			0	36246	0	0	0	29332	28060	170089	26769	1066181	45798	110908	0	0	8011	610574	0	0
2024-08-04 15:13:47			0	36166	0	0	0	29327	28040	170465	26859	1066074	45785	110906	0	0	8006	613972	0	0
2024-08-04 15:14:47			0	36124	0	0	0	29329	28030	170481	26882	1065966	45795	110907	0	0	8003	615759	0	0
2024-08-04 15:15:47			0	36096	0	0	0	29335	28010	170841	27012	1065957	45793	110909	0	0	8001	617001	0	0
2024-08-04 15:16:47			0	36068	0	0	0	29342	27990	171017	26928	1065957	45814	110912	0	0	7999	618244	0	0
2024-08-04 15:17:47			0	36065	0	0	0	29340	27980	171073	26535	1065912	45824	110911	0	0	7999	618405	0	0
2024-08-04 15:18:47			0	36069	0	0	0	29337	27990	171061	26817	1065921	45825	110910	0	0	8000	618202	0	0
2024-08-04 15:19:47			0	36039	0	0	0	29337	27980	171217	26955	1065885	45801	110910	0	0	7998	619495	0	0
2024-08-04 15:20:47			0	36049	0	0	0	29340	27980	171129	26759	1065903	45823	110911	0	0	7998	619076	0	0
2024-08-04 15:21:47			0	36029	0	0	0	29342	27980	171161	26937	1065849	45823	110912	0	0	7997	619915	0	0
2024-08-04 15:22:47			0	36038	0	0	0	29335	27970	171293	26998	1065831	45823	110909	0	0	7998	619573	0	0
2024-08-04 15:23:47			0	36007	0	0	0	29340	27970	171213	26651	1065831	45812	110911	0	0	7996	620874	0	0
2024-08-04 15:24:47			0	36003	0	0	0	29355	27960	171381	26628	1065840	45821	110917	0	0	7995	621078	0	0
2024-08-04 15:25:47			0	36002	0	0	0	29353	27970	171161	26590	1065831	45833	110916	0	0	7995	621085	0	0
2024-08-04 15:26:47			0	36020	0	0	0	29368	27960	171301	27048	1065840	45810	110922	0	0	7996	620364	0	0
2024-08-04 15:27:47			0	35989	0	0	0	29361	27950	171297	26861	1065858	45821	110919	0	0	7994	621703	0	0
2024-08-04 15:28:47			0	35998	0	0	0	29363	27970	171269	27060	1065885	45823	110920	0	0	7995	621253	0	0
2024-08-04 15:29:47			0	36001	0	0	0	29366	27950	171321	26864	1065831	45843	110921	0	0	7995	621198	0	0
2024-08-04 15:30:47			0	36014	0	0	0	29368	27950	171289	27215	1065903	45821	110922	0	0	7996	620652	0	0
2024-08-04 15:31:47			0	35987	0	0	0	29368	27960	171269	26925	1065903	45822	110922	0	0	7994	621751	0	0
2024-08-04 15:32:47			0	36018	0	0	0	29374	27960	171221	26757	1065849	45833	110924	0	0	7996	620448	0	0
2024-08-04 15:33:47			0	36022	0	0	0	29384	27970	171297	26991	1065912	45833	110928	0	0	7996	620245	0	0
2024-08-04 15:34:47			0	36025	0	0	0	29392	27960	171197	27175	1065957	45833	110931	0	0	7996	620154	0	0
2024-08-04 15:35:47			0	36021	0	0	0	29386	27960	171225	26715	1065957	45844	110929	0	0	7996	620322	0	0
2024-08-04 15:36:47			0	36014	0	0	0	29399	27960	171185	27086	1065984	45833	110934	0	0	7995	620616	0	0
2024-08-04 15:37:47			0	36025	0	0	0	29392	27980	171317	27083	1066011	45833	110931	0	0	7996	620083	0	0
2024-08-04 15:38:47			0	36018	0	0	0	29397	27980	171193	26932	1065993	45846	110933	0	0	7995	620377	0	0
2024-08-04 15:39:47			0	36027	0	0	0	29405	27980	171205	26778	1066011	45833	110936	0	0	7996	619999	0	0
2024-08-04 15:40:47			0	36020	0	0	0	29402	27980	171241	26968	1066020	45834	110935	0	0	7995	620293	0	0
2024-08-04 15:41:47			0	36044	0	0	0	29428	27980	171137	26797	1066065	45823	110945	0	0	7996	619286	0	0
2024-08-04 15:42:47			0	36034	0	0	0	29431	27990	171141	26811	1066145	45835	110946	0	0	7996	619669	0	0
2024-08-04 15:43:47			0	36060	0	0	0	29441	28000	171001	27015	1066190	45848	110950	0	0	7997	618544	0	0
2024-08-04 15:44:47			0	36065	0	0	0	29451	28010	171057	26828	1066235	45838	110954	0	0	7997	618299	0	0
2024-08-04 15:45:47			0	36073	0	0	0	29451	28010	170905	27100	1066262	45850	110954	0	0	7998	617963	0	0
2024-08-04 15:46:47			0	36097	0	0	0	29446	28030	170877	27012	1066343	45839	110952	0	0	8000	616888	0	0
2024-08-04 15:47:47			0	36093	0	0	0	29454	28030	170865	27130	1066289	45839	110955	0	0	7999	617055	0	0
2024-08-04 15:48:47			0	36109	0	0	0	29475	28040	170841	27048	1066343	45830	110963	0	0	8000	616351	0	0
2024-08-04 15:49:47			0	36131	0	0	0	29475	28040	170717	26890	1066451	45863	110963	0	0	8001	615432	0	0
2024-08-04 15:50:47			0	36125	0	0	0	29475	28050	170757	27034	1066406	45853	110963	0	0	8001	615647	0	0
2024-08-04 15:51:47			0	36127	0	0	0	29475	28050	170633	27001	1066415	45842	110963	0	0	8001	615563	0	0
2024-08-04 15:52:47			0	36152	0	0	0	29472	28060	170649	26892	1066460	45843	110962	0	0	8003	614485	0	0
2024-08-04 15:53:47			0	36139	0	0	0	29490	28050	170613	27170	1066433	45841	110969	0	0	8001	615062	0	0
2024-08-04 15:54:47			0	36153	0	0	0	29488	28060	170537	27067	1066460	45843	110968	0	0	8002	614443	0	0
2024-08-04 15:55:47			0	36180	0	0	0	29488	28070	170537	26955	1066603	45843	110968	0	0	8004	613282	0	0
2024-08-04 15:56:47			0	36175	0	0	0	29485	28070	170473	26849	1066531	45833	110967	0	0	8004	613491	0	0
2024-08-04 15:57:47			0	36161	0	0	0	29488	28080	170457	27060	1066513	45856	110968	0	0	8003	614038	0	0
2024-08-04 15:58:47			0	36176	0	0	0	29529	28080	170477	27019	1066648	45833	110984	0	0	8003	613414	0	0
2024-08-04 15:59:47			0	36214	0	0	0	29579	28090	170281	26724	1066756	45858	111003	0	0	8005	611797	0	0
2024-08-04 16:00:47			0	36294	0	0	0	29555	28100	170017	26592	1066846	45859	110994	0	0	8010	608443	0	0
2024-08-04 16:01:47			0	36320	0	0	0	29568	28110	169837	27020	1066864	45860	110999	0	0	8011	607332	0	0
2024-08-04 16:02:47			0	36334	0	0	0	29573	28130	169697	26750	1066944	45849	111001	0	0	8012	606683	0	0
2024-08-04 16:03:47			0	36337	0	0	0	29540	28130	169669	27105	1066899	45862	110988	0	0	8013	606559	0	0
2024-08-04 16:04:47			0	36320	0	0	0	29542	28140	169777	26885	1066908	45839	110989	0	0	8012	607226	0	0
2024-08-04 16:05:47			0	36302	0	0	0	29535	28140	169965	26698	1066890	45851	110986	0	0	8011	607971	0	0
2024-08-04 16:06:47			0	36284	0	0	0	29522	28140	170097	27126	1066908	45839	110981	0	0	8010	608716	0	0
2024-08-04 16:07:47			0	36259	0	0	0	29542	28140	170121	27159	1066828	45839	110989	0	0	8008	609752	0	0
2024-08-04 16:08:47			0	36270	0	0	0	29548	28130	170113	26672	1066899	45839	110991	0	0	8009	609331	0	0
2024-08-04 16:09:47			0	36274	0	0	0	29537	28140	170097	26890	1066917	45840	110987	0	0	8009	609131	0	0
2024-08-04 16:10:47			0	36273	0	0	0	29550	28150	170029	26918	1066899	45829	110992	0	0	8009	609137	0	0
2024-08-04 16:11:47			0	36299	0	0	0	29592	28150	169913	26883	1066926	45874	111008	0	0	8010	608060	0	0
2024-08-04 16:12:47			0	36351	0	0	0	29594	28160	169801	26722	1067106	45864	111009	0	0	8013	605875	0	0
2024-08-04 16:13:47			0	36393	0	0	0	29615	28170	169577	26800	1067124	45853	111017	0	0	8015	604108	0	0
2024-08-04 16:14:47			0	36423	0	0	0	29597	28170	169421	26963	1067160	45854	111010	0	0	8017	602873	0	0
2024-08-04 16:15:47			0	36442	0	0	0	29586	28180	169441	26923	1067178	45855	111006	0	0	8019	602057	0	0
2024-08-04 16:16:47			0	36401	0	0	0	29589	28190	169437	26691	1067187	45855	111007	0	0	8016	603709	0	0
2024-08-04 16:17:47			0	36412	0	0	0	29592	28200	169461	26923	1067178	45834	111008	0	0	8017	603222	0	0
2024-08-04 16:18:47			0	36389	0	0	0	29602	28200	169473	27017	1067178	45846	111012	0	0	8015	604169	0	0
2024-08-04 16:19:47			0	36426	0	0	0	29636	28200	169261	26798	1067205	45846	111025	0	0	8017	602646	0	0
2024-08-04 16:20:47			0	36454	0	0	0	29618	28200	169221	26965	1067205	45846	111018	0	0	8019	601495	0	0
2024-08-04 16:21:47			0	36447	0	0	0	29618	28200	169345	27050	1067241	45857	111018	0	0	8018	601782	0	0
2024-08-04 16:22:47			0	36440	0	0	0	29612	28200	169253	26975	1067295	45846	111016	0	0	8018	602070	0	0
2024-08-04 16:23:47			0	36447	0	0	0	29602	28210	169217	26844	1067250	45858	111012	0	0	8019	601748	0	0
2024-08-04 16:24:47			0	36409	0	0	0	29602	28220	169421	26693	1067268	45848	111012	0	0	8017	603275	0	0
2024-08-04 16:25:47			0	36404	0	0	0	29602	28210	169409	26592	1067196	45847	111012	0	0	8016	603516	0	0
2024-08-04 16:26:47			0	36389	0	0	0	29599	28210	169561	27185	1067178	45835	111011	0	0	8015	604134	0	0
2024-08-04 16:27:47			0	36372	0	0	0	29605	28200	169593	26958	1067187	45857	111013	0	0	8014	604869	0	0
2024-08-04 16:28:47			0	36373	0	0	0	29605	28210	169573	27199	1067196	45835	111013	0	0	8014	604793	0	0
2024-08-04 16:29:47			0	36366	0	0	0	29610	28210	169549	26687	1067232	45835	111015	0	0	8014	605082	0	0
2024-08-04 16:30:47			0	36392	0	0	0	29607	28210	169505	26726	1067232	45835	111014	0	0	8015	604010	0	0
2024-08-04 16:31:47			0	36370	0	0	0	29618	28220	169477	27050	1067322	45859	111018	0	0	8014	604882	0	0
2024-08-04 16:32:47			0	36373	0	0	0	29620	28230	169417	27130	1067349	45837	111019	0	0	8014	604723	0	0
2024-08-04 16:33:47			0	36406	0	0	0	29610	28220	169341	26701	1067268	45848	111015	0	0	8016	603399	0	0
2024-08-04 16:34:47			0	36414	0	0	0	29625	28220	169249	26889	1067277	45848	111021	0	0	8016	603069	0	0
2024-08-04 16:35:47			0	36476	0	0	0	29649	28220	169253	27116	1067268	45848	111030	0	0	8020	600522	0	0
2024-08-04 16:36:47			0	36513	0	0	0	29633	28230	168933	27059	1067367	45849	111024	0	0	8022	598971	0	0
2024-08-04 16:37:47			0	36543	0	0	0	29644	28230	168825	27124	1067367	45849	111028	0	0	8024	597743	0	0
2024-08-04 16:38:47			0	36573	0	0	0	29646	28230	168653	26994	1067349	45849	111029	0	0	8026	596517	0	0
2024-08-04 16:39:47			0	36588	0	0	0	29641	28230	168522	27194	1067376	45849	111027	0	0	8027	595905	0	0
2024-08-04 16:40:47			0	36593	0	0	0	29638	28230	168317	26705	1067340	45849	111026	0	0	8027	595701	0	0
2024-08-04 16:41:47			0	36580	0	0	0	29636	28240	168522	26831	1067385	45850	111025	0	0	8026	596197	0	0
2024-08-04 16:42:47			0	36591	0	0	0	29631	28230	168405	26948	1067376	45849	111023	0	0	8027	595783	0	0
2024-08-04 16:43:47			0	36589	0	0	0	29636	28240	168565	26882	1067411	45850	111025	0	0	8027	595830	0	0
2024-08-04 16:44:47			0	36581	0	0	0	29620	28240	168613	26953	1067393	45862	111019	0	0	8027	596156	0	0
2024-08-04 16:45:47			0	36582	0	0	0	29623	28240	168638	26925	1067367	45829	111020	0	0	8027	596115	0	0
2024-08-04 16:46:47			0	36577	0	0	0	29641	28250	168617	26850	1067438	45839	111027	0	0	8026	596285	0	0
2024-08-04 16:47:47			0	36581	0	0	0	29636	28250	168617	26951	1067411	45862	111025	0	0	8026	596122	0	0
2024-08-04 16:48:47			0	36547	0	0	0	29602	28240	168733	26892	1067385	45838	111012	0	0	8025	597545	0	0
2024-08-04 16:49:47			0	36525	0	0	0	29628	28240	168817	26996	1067420	45851	111022	0	0	8023	598445	0	0
2024-08-04 16:50:47			0	36555	0	0	0	29633	28240	168621	26582	1067420	45851	111024	0	0	8025	597218	0	0
2024-08-04 16:51:47			0	36600	0	0	0	29641	28240	168586	26913	1067358	45861	111027	0	0	8027	595381	0	0
2024-08-04 16:52:47			0	36618	0	0	0	29641	28260	168410	26873	1067420	45863	111027	0	0	8029	594579	0	0
2024-08-04 16:53:47			0	36616	0	0	0	29644	28250	168438	26830	1067429	45851	111028	0	0	8028	594694	0	0
2024-08-04 16:54:47			0	36607	0	0	0	29649	28250	168490	26857	1067456	45851	111030	0	0	8028	595061	0	0
2024-08-04 16:55:47			0	36626	0	0	0	29657	28250	168382	26781	1067429	45851	111033	0	0	8029	594287	0	0
2024-08-04 16:56:47			0	36636	0	0	0	29657	28260	168322	26788	1067474	45852	111033	0	0	8029	593845	0	0
2024-08-04 16:57:47			0	36659	0	0	0	29657	28260	168198	27019	1067420	45840	111033	0	0	8031	592910	0	0
2024-08-04 16:58:47			0	36654	0	0	0	29659	28260	168190	26953	1067528	45852	111034	0	0	8030	593113	0	0
2024-08-04 16:59:47			0	36664	0	0	0	29654	28260	168238	26859	1067501	45863	111032	0	0	8031	592706	0	0
2024-08-04 17:00:47			0	36656	0	0	0	29623	28250	168150	26955	1067492	45851	111020	0	0	8031	593066	0	0
2024-08-04 17:01:47			0	36627	0	0	0	29644	28250	168354	26719	1067438	45851	111028	0	0	8029	594246	0	0
2024-08-04 17:02:47			0	36618	0	0	0	29651	28260	168402	27050	1067501	45852	111031	0	0	8028	594579	0	0
2024-08-04 17:03:47			0	36636	0	0	0	29654	28260	168222	26866	1067474	45852	111032	0	0	8029	593845	0	0
2024-08-04 17:04:47			0	36661	0	0	0	29654	28260	168178	26814	1067483	45864	111032	0	0	8031	592828	0	0
2024-08-04 17:05:47			0	36667	0	0	0	29646	28260	168154	26788	1067510	45864	111029	0	0	8031	592584	0	0
2024-08-04 17:06:47			0	36673	0	0	0	29654	28270	168106	26637	1067502	45853	111032	0	0	8032	592306	0	0
2024-08-04 17:07:47			0	36665	0	0	0	29646	28260	168278	26667	1067510	45853	111029	0	0	8031	592666	0	0
2024-08-04 17:08:47			0	36665	0	0	0	29649	28270	168154	26850	1067520	45853	111030	0	0	8031	592631	0	0
2024-08-04 17:09:47			0	36658	0	0	0	29670	28260	168134	26885	1067510	45853	111038	0	0	8030	592950	0	0
2024-08-04 17:10:47			0	36677	0	0	0	29664	28270	168090	27086	1067582	45853	111036	0	0	8032	592144	0	0
2024-08-04 17:11:47			0	36687	0	0	0	29659	28270	168014	26653	1067520	45853	111034	0	0	8032	591738	0	0
2024-08-04 17:12:47			0	36668	0	0	0	29649	28270	168114	26941	1067502	45853	111030	0	0	8031	592509	0	0
2024-08-04 17:13:47			0	36673	0	0	0	29641	28270	168230	27020	1067502	45853	111027	0	0	8032	592306	0	0
2024-08-04 17:14:47			0	36648	0	0	0	29638	28270	168234	26842	1067493	45864	111026	0	0	8030	593323	0	0
2024-08-04 17:15:47			0	36628	0	0	0	29641	28270	168270	26811	1067502	45841	111027	0	0	8029	594137	0	0
2024-08-04 17:16:47			0	36631	0	0	0	29646	28260	168178	26703	1067429	45831	111029	0	0	8029	594049	0	0
2024-08-04 17:17:47			0	36630	0	0	0	29651	28250	168362	27027	1067411	45851	111031	0	0	8029	594124	0	0
2024-08-04 17:18:47			0	36642	0	0	0	29654	28250	168270	26849	1067411	45851	111032	0	0	8030	593636	0	0
2024-08-04 17:19:47			0	36640	0	0	0	29654	28260	168218	26800	1067456	45853	111032	0	0	8030	593683	0	0
2024-08-04 17:20:47			0	36681	0	0	0	29644	28250	168174	26765	1067519	45829	111028	0	0	8032	592050	0	0
2024-08-04 17:21:47			0	36672	0	0	0	29649	28260	168198	26800	1067429	45853	111030	0	0	8032	592381	0	0
2024-08-04 17:22:47			0	36666	0	0	0	29657	28250	168198	26875	1067438	45851	111033	0	0	8031	592659	0	0
2024-08-04 17:23:47			0	36647	0	0	0	29659	28260	168170	26814	1067501	45852	111034	0	0	8030	593398	0	0
2024-08-04 17:24:47			0	36658	0	0	0	29664	28270	168150	26667	1067493	45841	111036	0	0	8031	592916	0	0
2024-08-04 17:25:47			0	36670	0	0	0	29654	28270	168142	26939	1067520	45853	111032	0	0	8031	592428	0	0
2024-08-04 17:26:47			0	36660	0	0	0	29662	28260	168198	26864	1067510	45853	111035	0	0	8031	592869	0	0
2024-08-04 17:27:47			0	36676	0	0	0	29659	28270	168118	26674	1067520	45853	111034	0	0	8032	592184	0	0
2024-08-04 17:28:47			0	36671	0	0	0	29659	28260	168170	26949	1067537	45853	111034	0	0	8031	592422	0	0
2024-08-04 17:29:47			0	36652	0	0	0	29662	28270	168230	26961	1067520	45853	111035	0	0	8030	593160	0	0
2024-08-04 17:30:47			0	36596	0	0	0	29646	28270	168430	26859	1067493	45853	111029	0	0	8027	595441	0	0
2024-08-04 17:31:47			0	36573	0	0	0	29657	28270	168669	26771	1067528	45841	111033	0	0	8026	596379	0	0
2024-08-04 17:32:47			0	36520	0	0	0	29644	28260	168737	26835	1067510	45841	111028	0	0	8023	598581	0	0
2024-08-04 17:33:47			0	36478	0	0	0	29649	28260	168981	27027	1067474	45840	111030	0	0	8020	600301	0	0
2024-08-04 17:34:47			0	36473	0	0	0	29651	28260	168973	26868	1067510	45853	111031	0	0	8020	600506	0	0
2024-08-04 17:35:47			0	36475	0	0	0	29651	28260	168981	27064	1067510	45853	111031	0	0	8020	600425	0	0
2024-08-04 17:36:47			0	36437	0	0	0	29638	28260	169077	27157	1067456	45853	111026	0	0	8018	601985	0	0
2024-08-04 17:37:47			0	36407	0	0	0	29644	28270	169285	27086	1067466	45864	111028	0	0	8016	603183	0	0
2024-08-04 17:38:47			0	36372	0	0	0	29636	28270	169385	26817	1067466	45864	111025	0	0	8014	604625	0	0
2024-08-04 17:39:47			0	36350	0	0	0	29633	28260	169589	26937	1067447	45840	111024	0	0	8013	605567	0	0
2024-08-04 17:40:47			0	36328	0	0	0	29644	28260	169653	27116	1067447	45863	111028	0	0	8011	606475	0	0
2024-08-04 17:41:47			0	36318	0	0	0	29638	28260	169701	26889	1067483	45853	111026	0	0	8011	606888	0	0
2024-08-04 17:42:47			0	36307	0	0	0	29631	28250	169765	26698	1067465	45839	111023	0	0	8010	607378	0	0
2024-08-04 17:43:47			0	36288	0	0	0	29625	28250	169777	27048	1067465	45862	111021	0	0	8009	608164	0	0
2024-08-04 17:44:47			0	36277	0	0	0	29631	28250	169853	26805	1067429	45851	111023	0	0	8008	608619	0	0
2024-08-04 17:45:47			0	36277	0	0	0	29625	28240	169949	26802	1067393	45839	111021	0	0	8008	608655	0	0
2024-08-04 17:46:47			0	36273	0	0	0	29612	28250	169973	26847	1067375	45851	111016	0	0	8008	608785	0	0
2024-08-04 17:47:47			0	36258	0	0	0	29607	28250	170029	26752	1067402	45851	111014	0	0	8008	609407	0	0
2024-08-04 17:48:47			0	36219	0	0	0	29602	28250	170061	27038	1067402	45839	111012	0	0	8005	611024	0	0
2024-08-04 17:49:47			0	36229	0	0	0	29599	28240	170193	27000	1067393	45839	111011	0	0	8006	610645	0	0
2024-08-04 17:50:47			0	36206	0	0	0	29597	28230	170297	26951	1067322	45849	111010	0	0	8005	611635	0	0
2024-08-04 17:51:47			0	36172	0	0	0	29605	28230	170297	27081	1067295	45837	111013	0	0	8002	613049	0	0
2024-08-04 17:52:47			0	36187	0	0	0	29592	28230	170469	26798	1067367	45837	111008	0	0	8004	612425	0	0
2024-08-04 17:53:47			0	36192	0	0	0	29599	28230	170301	27150	1067340	45860	111011	0	0	8004	612217	0	0
2024-08-04 17:54:47			0	36190	0	0	0	29599	28230	170429	27280	1067322	45860	111011	0	0	8004	612300	0	0
2024-08-04 17:55:47			0	36186	0	0	0	29599	28220	170417	27142	1067304	45859	111011	0	0	8003	612502	0	0
2024-08-04 17:56:47			0	36194	0	0	0	29594	28220	170369	27144	1067223	45848	111009	0	0	8004	612169	0	0
2024-08-04 17:57:47			0	36194	0	0	0	29597	28220	170493	27092	1067322	45859	111010	0	0	8004	612169	0	0
2024-08-04 17:58:47			0	36176	0	0	0	29599	28230	170493	27256	1067286	45849	111011	0	0	8003	612883	0	0
2024-08-04 17:59:47			0	36176	0	0	0	29597	28220	170397	27083	1067295	45848	111010	0	0	8003	612918	0	0
2024-08-04 18:00:47			0	36161	0	0	0	29597	28210	170581	26817	1067286	45825	111010	0	0	8002	613578	0	0
2024-08-04 18:01:47			0	36188	0	0	0	29597	28220	170621	26956	1067268	45848	111010	0	0	8003	612419	0	0
2024-08-04 18:02:47			0	36178	0	0	0	29607	28220	170593	27128	1067304	45836	111014	0	0	8003	612835	0	0
2024-08-04 18:03:47			0	36173	0	0	0	29576	28220	170561	27286	1067250	45848	111002	0	0	8003	613043	0	0
2024-08-04 18:04:47			0	36164	0	0	0	29553	28220	170533	27015	1067214	45870	110993	0	0	8003	613417	0	0
2024-08-04 18:05:47			0	36160	0	0	0	29568	28210	170517	27001	1067196	45847	110999	0	0	8002	613619	0	0
2024-08-04 18:06:47			0	36186	0	0	0	29573	28210	170517	27201	1067205	45847	111001	0	0	8004	612537	0	0
2024-08-04 18:07:47			0	36205	0	0	0	29581	28200	170453	26909	1067205	45846	111004	0	0	8005	611783	0	0
2024-08-04 18:08:47			0	36204	0	0	0	29584	28190	170497	26908	1067142	45845	111005	0	0	8004	611860	0	0
2024-08-04 18:09:47			0	36190	0	0	0	29579	28200	170497	27298	1067214	45846	111003	0	0	8004	612406	0	0
2024-08-04 18:10:47			0	36177	0	0	0	29584	28200	170493	27189	1067151	45834	111005	0	0	8003	612947	0	0
2024-08-04 18:11:47			0	36183	0	0	0	29548	28200	170437	26915	1067259	45846	110991	0	0	8004	612697	0	0
2024-08-04 18:12:47			0	36218	0	0	0	29558	28200	170437	26772	1067124	45846	110995	0	0	8006	611242	0	0
2024-08-04 18:13:47			0	36206	0	0	0	29563	28190	170417	27098	1067133	45833	110997	0	0	8005	611776	0	0
2024-08-04 18:14:47			0	36223	0	0	0	29558	28180	170381	26951	1067070	45855	110995	0	0	8006	611105	0	0
2024-08-04 18:15:47			0	36187	0	0	0	29568	28180	170365	26552	1067097	45844	110999	0	0	8004	612602	0	0
2024-08-04 18:16:47			0	36189	0	0	0	29561	28180	170481	26703	1067115	45844	110996	0	0	8004	612519	0	0
2024-08-04 18:17:47			0	36203	0	0	0	29545	28190	170477	27020	1067106	45855	110990	0	0	8005	611901	0	0
2024-08-04 18:18:47			0	36208	0	0	0	29550	28170	170417	27201	1067052	45843	110992	0	0	8005	611764	0	0
2024-08-04 18:19:47			0	36185	0	0	0	29553	28170	170405	27067	1067052	45832	110993	0	0	8004	612720	0	0
2024-08-04 18:20:47			0	36201	0	0	0	29563	28170	170429	26963	1067070	45853	110997	0	0	8005	612055	0	0
2024-08-04 18:21:47			0	36198	0	0	0	29545	28180	170493	27013	1067115	45855	110990	0	0	8005	612144	0	0
2024-08-04 18:22:47			0	36195	0	0	0	29555	28170	170505	26909	1067070	45842	110994	0	0	8004	612304	0	0
2024-08-04 18:23:47			0	36196	0	0	0	29537	28160	170417	27052	1066981	45842	110987	0	0	8005	612298	0	0
2024-08-04 18:24:47			0	36214	0	0	0	29532	28160	170421	27083	1066981	45853	110985	0	0	8006	611550	0	0
2024-08-04 18:25:47			0	36220	0	0	0	29545	28160	170357	26941	1066954	45842	110990	0	0	8006	611301	0	0
2024-08-04 18:26:47			0	36221	0	0	0	29537	28160	170365	27008	1067007	45842	110987	0	0	8006	611259	0	0
2024-08-04 18:27:47			0	36219	0	0	0	29555	28160	170297	27140	1067025	45830	110994	0	0	8006	611342	0	0
2024-08-04 18:28:47			0	36225	0	0	0	29548	28170	170329	27013	1067070	45853	110991	0	0	8006	611058	0	0
2024-08-04 18:29:47			0	36238	0	0	0	29545	28170	170213	26798	1066936	45842	110990	0	0	8007	610518	0	0
2024-08-04 18:30:47			0	36246	0	0	0	29550	28150	170265	27112	1066935	45841	110992	0	0	8007	610256	0	0
2024-08-04 18:31:47			0	36261	0	0	0	29542	28160	170249	27204	1066945	45841	110989	0	0	8008	609599	0	0
2024-08-04 18:32:47			0	36250	0	0	0	29561	28160	170097	26861	1067025	45852	110996	0	0	8007	610055	0	0
2024-08-04 18:33:47			0	36266	0	0	0	29568	28160	170177	27088	1067079	45852	110999	0	0	8008	609392	0	0
2024-08-04 18:34:47			0	36283	0	0	0	29563	28160	169993	26958	1067052	45852	110997	0	0	8009	608687	0	0
2024-08-04 18:35:47			0	36293	0	0	0	29573	28160	170141	27227	1067034	45853	111001	0	0	8010	608273	0	0
2024-08-04 18:36:47			0	36301	0	0	0	29558	28160	170097	27114	1067034	45842	110995	0	0	8011	607942	0	0
2024-08-04 18:37:47			0	36320	0	0	0	29571	28160	170001	27156	1066998	45852	111000	0	0	8012	607156	0	0
2024-08-04 18:38:47			0	36317	0	0	0	29558	28160	169857	26922	1066998	45864	110995	0	0	8012	607280	0	0
2024-08-04 18:39:47			0	36327	0	0	0	29576	28160	169873	26745	1067052	45841	111002	0	0	8012	606867	0	0
2024-08-04 18:40:47			0	36343	0	0	0	29576	28170	169809	26913	1067070	45842	111002	0	0	8013	606171	0	0
2024-08-04 18:41:47			0	36337	0	0	0	29568	28180	169841	26861	1067088	45844	110999	0	0	8013	606384	0	0
2024-08-04 18:42:47			0	36331	0	0	0	29576	28170	169641	27012	1067079	45843	111002	0	0	8012	606667	0	0
2024-08-04 18:43:47			0	36353	0	0	0	29571	28170	169709	27196	1067106	45854	111000	0	0	8014	605758	0	0
2024-08-04 18:44:47			0	36333	0	0	0	29566	28170	169693	27046	1067079	45854	110998	0	0	8012	606584	0	0
2024-08-04 18:45:47			0	36313	0	0	0	29566	28180	169793	26849	1067115	45844	110998	0	0	8011	607376	0	0
2024-08-04 18:46:47			0	36339	0	0	0	29576	28170	169785	26899	1067124	45842	111002	0	0	8013	606336	0	0
2024-08-04 18:47:47			0	36332	0	0	0	29581	28180	169825	27239	1067088	45855	111004	0	0	8012	606590	0	0
2024-08-04 18:48:47			0	36332	0	0	0	29568	28170	169753	26913	1067178	45842	110999	0	0	8012	606625	0	0
2024-08-04 18:49:47			0	36351	0	0	0	29563	28170	169717	27007	1067097	45842	110997	0	0	8014	605840	0	0
2024-08-04 18:50:47			0	36354	0	0	0	29576	28170	169677	27062	1067097	45842	111002	0	0	8013	605717	0	0
2024-08-04 18:51:47			0	36358	0	0	0	29571	28160	169705	27076	1067061	45831	111000	0	0	8014	605587	0	0
2024-08-04 18:52:47			0	36344	0	0	0	29568	28180	169737	27190	1067115	45844	110999	0	0	8013	606094	0	0
2024-08-04 18:53:47			0	36350	0	0	0	29576	28170	169753	27098	1067043	45842	111002	0	0	8013	605882	0	0
2024-08-04 18:54:47			0	36356	0	0	0	29579	28170	169733	26781	1067052	45843	111003	0	0	8014	605634	0	0
2024-08-04 18:55:47			0	36349	0	0	0	29563	28170	169653	26667	1067079	45854	110997	0	0	8013	605923	0	0
2024-08-04 18:56:47			0	36327	0	0	0	29553	28170	169773	26904	1067052	45843	110993	0	0	8012	606832	0	0
2024-08-04 18:57:47			0	36356	0	0	0	29537	28170	169793	27119	1067016	45853	110987	0	0	8014	605634	0	0
2024-08-04 18:58:47			0	36300	0	0	0	29537	28170	169893	26889	1066990	45842	110987	0	0	8011	607948	0	0
2024-08-04 18:59:47			0	36293	0	0	0	29540	28150	169957	27263	1066989	45830	110988	0	0	8010	608308	0	0
2024-08-04 19:00:47			0	36300	0	0	0	29537	28160	169981	27007	1066972	45830	110987	0	0	8011	607984	0	0
2024-08-04 19:01:47			0	36299	0	0	0	29555	28150	170045	27000	1066962	45841	110994	0	0	8010	608060	0	0
2024-08-04 19:02:47			0	36284	0	0	0	29537	28160	170001	27095	1066972	45841	110987	0	0	8010	608646	0	0
2024-08-04 19:03:47			0	36276	0	0	0	29545	28160	170109	26882	1066998	45852	110990	0	0	8009	608977	0	0
2024-08-04 19:04:47			0	36287	0	0	0	29558	28160	170117	27514	1066972	45841	110995	0	0	8010	608522	0	0
2024-08-04 19:05:47			0	36285	0	0	0	29553	28160	170057	27223	1066972	45841	110993	0	0	8010	608605	0	0
2024-08-04 19:06:47			0	36303	0	0	0	29555	28150	169953	27308	1067043	45841	110994	0	0	8011	607894	0	0
2024-08-04 19:07:47			0	36310	0	0	0	29561	28150	170037	27053	1067043	45852	110996	0	0	8011	607605	0	0
2024-08-04 19:08:47			0	36310	0	0	0	29563	28150	169977	27057	1067061	45829	110997	0	0	8011	607605	0	0
2024-08-04 19:09:47			0	36305	0	0	0	29527	28150	169997	27017	1067043	45852	110983	0	0	8011	607812	0	0
2024-08-04 19:10:47			0	36301	0	0	0	29498	28140	170001	27222	1066890	45840	110972	0	0	8012	608012	0	0
2024-08-04 19:11:47			0	36262	0	0	0	29516	28140	170177	27126	1066917	45829	110979	0	0	8009	609628	0	0
2024-08-04 19:12:47			0	36232	0	0	0	29532	28140	170153	26996	1066881	45817	110985	0	0	8007	610873	0	0
2024-08-04 19:13:47			0	36247	0	0	0	29537	28140	170221	27244	1066855	45839	110987	0	0	8008	610250	0	0
2024-08-04 19:14:47			0	36239	0	0	0	29542	28140	170261	26772	1066971	45840	110989	0	0	8007	610582	0	0
2024-08-04 19:15:47			0	36229	0	0	0	29548	28140	170229	26946	1066908	45839	110991	0	0	8006	610997	0	0
2024-08-04 19:16:47			0	36243	0	0	0	29568	28150	170201	27140	1066926	45840	110999	0	0	8007	610381	0	0
2024-08-04 19:17:47			0	36260	0	0	0	29555	28150	170221	27118	1067016	45864	110994	0	0	8008	609676	0	0
2024-08-04 19:18:47			0	36270	0	0	0	29553	28140	170117	27066	1066917	45851	110993	0	0	8009	609296	0	0
2024-08-04 19:19:47			0	36274	0	0	0	29550	28150	170057	26949	1067043	45852	110992	0	0	8009	609095	0	0
2024-08-04 19:20:47			0	36277	0	0	0	29545	28140	170113	26844	1067025	45863	110990	0	0	8009	609006	0	0
2024-08-04 19:21:47			0	36282	0	0	0	29535	28140	170237	27045	1066890	45840	110986	0	0	8010	608799	0	0
2024-08-04 19:22:47			0	36258	0	0	0	29509	28150	170137	27161	1066980	45840	110976	0	0	8009	609759	0	0
2024-08-04 19:23:47			0	36262	0	0	0	29506	28140	170249	26953	1066917	45851	110975	0	0	8009	609628	0	0
2024-08-04 19:24:47			0	36250	0	0	0	29509	28150	170237	26885	1066908	45841	110976	0	0	8008	610090	0	0
2024-08-04 19:25:47			0	36230	0	0	0	29519	28140	170289	26757	1066962	45850	110980	0	0	8007	610956	0	0
2024-08-04 19:26:47			0	36235	0	0	0	29511	28140	170345	26760	1066881	45839	110977	0	0	8007	610748	0	0
2024-08-04 19:27:47			0	36221	0	0	0	29519	28130	170365	27157	1066846	45850	110980	0	0	8006	611365	0	0
2024-08-04 19:28:47			0	36210	0	0	0	29519	28130	170409	27119	1066872	45850	110980	0	0	8006	611822	0	0
2024-08-04 19:29:47			0	36221	0	0	0	29511	28140	170425	27218	1066908	45850	110977	0	0	8006	611330	0	0
2024-08-04 19:30:47			0	36213	0	0	0	29514	28130	170529	27168	1066872	45850	110978	0	0	8006	611697	0	0
2024-08-04 19:31:47			0	36202	0	0	0	29496	28130	170469	26942	1066846	45839	110971	0	0	8006	612155	0	0
2024-08-04 19:32:47			0	36205	0	0	0	29503	28120	170549	26804	1066855	45838	110974	0	0	8006	612065	0	0
2024-08-04 19:33:47			0	36189	0	0	0	29503	28130	170457	27225	1066837	45838	110974	0	0	8005	612695	0	0
2024-08-04 19:34:47			0	36176	0	0	0	29503	28110	170505	27020	1066837	45837	110974	0	0	8004	613307	0	0
2024-08-04 19:35:47			0	36198	0	0	0	29493	28120	170593	27145	1066765	45826	110970	0	0	8005	612356	0	0
2024-08-04 19:36:47			0	36222	0	0	0	29470	28120	170401	26944	1066738	45837	110961	0	0	8007	611359	0	0
2024-08-04 19:37:47			0	36238	0	0	0	29477	28100	170497	27157	1066657	45836	110964	0	0	8008	610765	0	0
2024-08-04 19:38:47			0	36232	0	0	0	29493	28100	170417	27244	1066738	45836	110970	0	0	8007	611014	0	0
2024-08-04 19:39:47			0	36236	0	0	0	29506	28120	170405	27000	1066792	45837	110975	0	0	8007	610777	0	0
2024-08-04 19:40:47			0	36235	0	0	0	29511	28110	170369	26608	1066747	45859	110977	0	0	8007	610854	0	0
2024-08-04 19:41:47			0	36246	0	0	0	29524	28100	170317	27046	1066792	45836	110982	0	0	8008	610433	0	0
2024-08-04 19:42:47			0	36243	0	0	0	29509	28110	170377	27041	1066837	45871	110976	0	0	8008	610522	0	0
2024-08-04 19:43:47			0	36251	0	0	0	29516	28110	170393	26889	1066837	45837	110979	0	0	8008	610190	0	0
2024-08-04 19:44:47			0	36264	0	0	0	29511	28110	170265	26972	1066756	45848	110977	0	0	8009	609651	0	0
2024-08-04 19:45:47			0	36251	0	0	0	29503	28100	170233	27253	1066765	45847	110974	0	0	8008	610225	0	0
2024-08-04 19:46:47			0	36246	0	0	0	29483	28100	170365	27074	1066684	45836	110966	0	0	8008	610433	0	0
2024-08-04 19:47:47			0	36240	0	0	0	29470	28110	170333	26788	1066693	45859	110961	0	0	8008	610646	0	0
2024-08-04 19:48:47			0	36227	0	0	0	29467	28090	170441	26958	1066702	45835	110960	0	0	8007	611257	0	0
2024-08-04 19:49:47			0	36213	0	0	0	29467	28090	170477	26698	1066639	45845	110960	0	0	8007	611838	0	0
2024-08-04 19:50:47			0	36218	0	0	0	29470	28080	170525	26840	1066594	45844	110961	0	0	8007	611666	0	0
2024-08-04 19:51:47			0	36181	0	0	0	29467	28080	170685	26941	1066576	45834	110960	0	0	8005	613205	0	0
2024-08-04 19:52:47			0	36192	0	0	0	29454	28080	170485	26769	1066630	45834	110955	0	0	8005	612747	0	0
2024-08-04 19:53:47			0	36205	0	0	0	29472	28080	170577	27308	1066603	45823	110962	0	0	8006	612206	0	0
2024-08-04 19:54:47			0	36205	0	0	0	29472	28080	170637	26975	1066567	45833	110962	0	0	8006	612206	0	0
2024-08-04 19:55:47			0	36184	0	0	0	29464	28070	170601	27027	1066585	45822	110959	0	0	8005	613116	0	0
2024-08-04 19:56:47			0	36199	0	0	0	29470	28070	170577	26967	1066585	45833	110961	0	0	8006	612491	0	0
2024-08-04 19:57:47			0	36212	0	0	0	29470	28070	170597	27124	1066531	45822	110961	0	0	8006	611951	0	0
2024-08-04 19:58:47			0	36218	0	0	0	29475	28070	170617	26791	1066603	45843	110963	0	0	8007	611701	0	0
2024-08-04 19:59:47			0	36202	0	0	0	29475	28080	170601	27053	1066594	45844	110963	0	0	8006	612331	0	0
2024-08-04 20:00:47			0	36211	0	0	0	29457	28080	170589	26979	1066621	45844	110956	0	0	8007	611957	0	0
2024-08-04 20:01:47			0	36209	0	0	0	29441	28060	170629	26909	1066513	45833	110950	0	0	8007	612111	0	0
2024-08-04 20:02:47			0	36202	0	0	0	29399	28060	170489	26986	1066460	45833	110934	0	0	8007	612402	0	0
2024-08-04 20:03:47			0	36229	0	0	0	29402	28060	170425	26689	1066451	45820	110935	0	0	8008	611279	0	0
2024-08-04 20:04:47			0	36242	0	0	0	29425	28050	170473	26849	1066388	45832	110944	0	0	8009	610775	0	0
2024-08-04 20:05:47			0	36247	0	0	0	29423	28040	170353	26953	1066370	45830	110943	0	0	8009	610602	0	0
2024-08-04 20:06:47			0	36241	0	0	0	29384	28050	170397	27020	1066352	45831	110928	0	0	8009	610816	0	0
2024-08-04 20:07:47			0	36230	0	0	0	29361	28040	170493	27161	1066343	45819	110919	0	0	8009	611308	0	0
2024-08-04 20:08:47			0	36231	0	0	0	29366	28030	170461	26982	1066289	45839	110921	0	0	8009	611302	0	0
2024-08-04 20:09:47			0	36215	0	0	0	29379	28020	170485	26665	1066307	45817	110926	0	0	8008	612003	0	0
2024-08-04 20:10:47			0	36209	0	0	0	29361	28030	170441	26812	1066316	45839	110919	0	0	8008	612217	0	0
2024-08-04 20:11:47			0	36212	0	0	0	29381	28020	170485	26941	1066226	45828	110927	0	0	8008	612127	0	0
2024-08-04 20:12:47			0	36214	0	0	0	29384	28010	170565	26883	1066208	45828	110928	0	0	8008	612079	0	0
2024-08-04 20:13:47			0	36186	0	0	0	29332	28010	170657	26781	1066226	45827	110908	0	0	8007	613245	0	0
2024-08-04 20:14:47			0	36188	0	0	0	29363	28000	170609	26682	1066136	45836	110920	0	0	8006	613197	0	0
2024-08-04 20:15:47			0	36159	0	0	0	29374	28010	171001	27024	1066226	45816	110924	0	0	8004	614370	0	0
2024-08-04 20:16:47			0	36158	0	0	0	29353	28000	170849	26809	1066163	45826	110916	0	0	8005	614447	0	0
2024-08-04 20:17:47			0	36138	0	0	0	29363	28000	171009	26918	1066100	45836	110920	0	0	8003	615281	0	0
2024-08-04 20:18:47			0	36137	0	0	0	29376	28000	170993	27066	1066127	45836	110925	0	0	8003	615323	0	0
2024-08-04 20:19:47			0	36125	0	0	0	29345	27980	171021	26802	1066073	45834	110913	0	0	8003	615895	0	0
2024-08-04 20:20:47			0	36128	0	0	0	29361	27990	171041	26644	1066136	45835	110919	0	0	8003	615735	0	0
2024-08-04 20:21:47			0	36127	0	0	0	29332	27980	171037	26736	1066011	45823	110908	0	0	8003	615812	0	0
2024-08-04 20:22:47			0	36132	0	0	0	29340	27960	171049	26566	1065930	45822	110911	0	0	8003	615674	0	0
2024-08-04 20:23:47			0	36138	0	0	0	29353	27970	171053	27078	1065966	45823	110916	0	0	8003	615388	0	0
2024-08-04 20:24:47			0	36131	0	0	0	29345	27970	171141	27046	1066056	45833	110913	0	0	8003	615680	0	0
2024-08-04 20:25:47			0	36125	0	0	0	29327	27980	171049	26748	1066038	45823	110906	0	0	8003	615895	0	0
2024-08-04 20:26:47			0	36131	0	0	0	29311	27960	171069	26667	1065903	45822	110900	0	0	8004	615716	0	0
2024-08-04 20:27:47			0	36122	0	0	0	29303	27950	171053	26958	1065858	45798	110897	0	0	8003	616127	0	0
2024-08-04 20:28:47			0	36122	0	0	0	29298	27950	171065	26842	1065876	45832	110895	0	0	8003	616127	0	0
2024-08-04 20:29:47			0	36127	0	0	0	29285	27950	171089	26694	1065822	45821	110890	0	0	8004	615918	0	0
2024-08-04 20:30:47			0	36115	0	0	0	29306	27930	171077	26698	1065849	45808	110898	0	0	8003	616491	0	0
2024-08-04 20:31:47			0	36094	0	0	0	29319	27930	171293	26746	1065876	45830	110903	0	0	8001	617369	0	0
2024-08-04 20:32:47			0	36097	0	0	0	29303	27940	171245	26953	1065858	45819	110897	0	0	8002	617208	0	0
2024-08-04 20:33:47			0	36085	0	0	0	29314	27930	171205	26875	1065822	45808	110901	0	0	8001	617746	0	0
2024-08-04 20:34:47			0	36072	0	0	0	29290	27920	171137	26906	1065804	45829	110892	0	0	8000	618326	0	0
2024-08-04 20:35:47			0	36074	0	0	0	29277	27920	171277	26986	1065831	45818	110887	0	0	8001	618242	0	0
2024-08-04 20:36:47			0	36067	0	0	0	29270	27920	171257	26902	1065777	45807	110884	0	0	8000	618535	0	0
2024-08-04 20:37:47			0	36051	0	0	0	29264	27910	171349	26719	1065679	45816	110882	0	0	7999	619242	0	0
2024-08-04 20:38:47			0	36058	0	0	0	29272	27910	171429	26897	1065643	45816	110885	0	0	8000	618949	0	0
2024-08-04 20:39:47			0	36057	0	0	0	29277	27910	171485	26729	1065643	45816	110887	0	0	7999	618990	0	0
2024-08-04 20:40:47			0	36050	0	0	0	29293	27910	171465	26677	1065697	45816	110893	0	0	7999	619284	0	0
2024-08-04 20:41:47			0	36041	0	0	0	29296	27900	171549	26812	1065741	45828	110894	0	0	7998	619697	0	0
2024-08-04 20:42:47			0	36036	0	0	0	29301	27900	171581	26986	1065714	45828	110896	0	0	7998	619907	0	0
2024-08-04 20:43:47			0	36025	0	0	0	29298	27900	171541	26960	1065714	45838	110895	0	0	7997	620369	0	0
2024-08-04 20:44:47			0	36027	0	0	0	29290	27900	171557	26764	1065660	45838	110892	0	0	7997	620285	0	0
2024-08-04 20:45:47			0	36000	0	0	0	29288	27890	171657	27137	1065643	45814	110891	0	0	7996	621455	0	0
2024-08-04 20:46:47			0	36002	0	0	0	29285	27900	171553	27046	1065651	45827	110890	0	0	7996	621335	0	0
2024-08-04 20:47:47			0	36039	0	0	0	29283	27900	171465	26951	1065625	45815	110889	0	0	7998	619781	0	0
2024-08-04 20:48:47			0	36000	0	0	0	29277	27890	171649	26509	1065660	45814	110887	0	0	7996	621455	0	0
2024-08-04 20:49:47			0	35995	0	0	0	29267	27900	171605	26883	1065625	45827	110883	0	0	7996	621630	0	0
2024-08-04 20:50:47			0	36008	0	0	0	29270	27890	171561	26821	1065669	45803	110884	0	0	7996	621119	0	0
2024-08-04 20:51:47			0	36015	0	0	0	29270	27890	171641	26922	1065607	45836	110884	0	0	7997	620825	0	0
2024-08-04 20:52:47			0	36049	0	0	0	29251	27890	171473	27043	1065607	45803	110877	0	0	7999	619397	0	0
2024-08-04 20:53:47			0	36059	0	0	0	29215	27880	171381	26823	1065571	45814	110863	0	0	8000	619014	0	0
2024-08-04 20:54:47			0	36068	0	0	0	29241	27880	171369	26987	1065535	45825	110873	0	0	8001	618636	0	0
2024-08-04 20:55:47			0	36047	0	0	0	29259	27870	171389	26958	1065499	45812	110880	0	0	7999	619553	0	0
2024-08-04 20:56:47			0	36060	0	0	0	29259	27870	171449	27060	1065490	45812	110880	0	0	8000	619007	0	0
2024-08-04 20:57:47			0	36038	0	0	0	29262	27870	171413	26972	1065517	45845	110881	0	0	7998	619930	0	0
2024-08-04 20:58:47			0	36026	0	0	0	29264	27870	171485	26984	1065553	45824	110882	0	0	7998	620434	0	0
2024-08-04 20:59:47			0	36047	0	0	0	29264	27880	171509	27012	1065535	45813	110882	0	0	7999	619517	0	0
2024-08-04 21:00:47			0	36035	0	0	0	29267	27880	171425	26791	1065589	45825	110883	0	0	7998	620021	0	0
2024-08-04 21:01:47			0	36034	0	0	0	29272	27870	171469	27081	1065517	45824	110885	0	0	7998	620098	0	0
2024-08-04 21:02:47			0	36041	0	0	0	29254	27870	171533	27093	1065544	45812	110878	0	0	7999	619804	0	0
2024-08-04 21:03:47			0	36034	0	0	0	29238	27870	171573	26729	1065490	45812	110872	0	0	7999	620098	0	0
2024-08-04 21:04:47			0	36040	0	0	0	29246	27860	171549	26831	1065454	45812	110875	0	0	7999	619882	0	0
2024-08-04 21:05:47			0	36047	0	0	0	29251	27860	171573	26922	1065499	45823	110877	0	0	7999	619588	0	0
2024-08-04 21:06:47			0	36024	0	0	0	29262	27850	171629	26994	1065436	45822	110881	0	0	7997	620590	0	0
2024-08-04 21:07:47			0	36034	0	0	0	29259	27850	171565	26831	1065517	45810	110880	0	0	7998	620170	0	0
2024-08-04 21:08:47			0	36035	0	0	0	29246	27850	171601	27208	1065463	45810	110875	0	0	7998	620128	0	0
2024-08-04 21:09:47			0	36004	0	0	0	29241	27860	171601	26993	1065472	45811	110873	0	0	7997	621394	0	0
2024-08-04 21:10:47			0	35978	0	0	0	29231	27850	171881	26932	1065463	45822	110869	0	0	7995	622524	0	0
2024-08-04 21:11:47			0	35925	0	0	0	29238	27850	172093	27081	1065463	45810	110872	0	0	7992	624758	0	0
2024-08-04 21:12:47			0	35901	0	0	0	29233	27850	172169	26746	1065517	45822	110870	0	0	7990	625772	0	0
2024-08-04 21:13:47			0	35885	0	0	0	29236	27850	172373	26821	1065463	45822	110871	0	0	7989	626448	0	0
2024-08-04 21:14:47			0	35871	0	0	0	29225	27840	172381	27100	1065418	45821	110867	0	0	7989	627077	0	0
2024-08-04 21:15:47			0	35873	0	0	0	29228	27840	172265	27059	1065329	45821	110868	0	0	7989	626992	0	0
2024-08-04 21:16:47			0	35881	0	0	0	29220	27830	172257	26892	1065400	45808	110865	0	0	7989	626690	0	0
2024-08-04 21:17:47			0	35868	0	0	0	29225	27830	172405	26767	1065373	45820	110867	0	0	7988	627240	0	0
2024-08-04 21:18:47			0	35898	0	0	0	29215	27840	172381	26717	1065382	45821	110863	0	0	7991	625935	0	0
2024-08-04 21:19:47			0	35872	0	0	0	29212	27830	172309	26599	1065320	45820	110862	0	0	7989	627071	0	0
2024-08-04 21:20:47			0	35906	0	0	0	29197	27830	172233	26800	1065320	45808	110856	0	0	7991	625633	0	0
2024-08-04 21:21:47			0	35897	0	0	0	29194	27820	172221	26689	1065212	45807	110855	0	0	7991	626049	0	0
2024-08-04 21:22:47			0	35912	0	0	0	29199	27820	172197	26561	1065275	45796	110857	0	0	7992	625415	0	0
2024-08-04 21:23:47			0	35905	0	0	0	29192	27810	172121	26880	1065230	45806	110854	0	0	7991	625747	0	0
2024-08-04 21:24:47			0	35931	0	0	0	29194	27820	172117	26831	1065239	45819	110855	0	0	7993	624613	0	0
2024-08-04 21:25:47			0	35930	0	0	0	29186	27810	172017	26701	1065284	45818	110852	0	0	7993	624691	0	0
2024-08-04 21:26:47			0	35923	0	0	0	29184	27810	172141	26648	1065203	45818	110851	0	0	7992	624987	0	0
2024-08-04 21:27:47			0	35943	0	0	0	29184	27810	172045	26701	1065203	45818	110851	0	0	7994	624143	0	0
2024-08-04 21:28:47			0	35926	0	0	0	29192	27810	171981	26937	1065203	45795	110854	0	0	7992	624860	0	0
2024-08-04 21:29:47			0	35946	0	0	0	29179	27800	171929	26930	1065185	45828	110849	0	0	7994	624052	0	0
2024-08-04 21:30:47			0	35950	0	0	0	29189	27790	171993	26922	1065149	45817	110853	0	0	7994	623919	0	0
2024-08-04 21:31:47			0	35958	0	0	0	29184	27790	172105	26804	1065122	45828	110851	0	0	7994	623582	0	0
2024-08-04 21:32:47			0	35964	0	0	0	29184	27790	172053	27050	1065122	45817	110851	0	0	7995	623329	0	0
2024-08-04 21:33:47			0	35971	0	0	0	29181	27790	172017	27038	1065167	45804	110850	0	0	7995	623034	0	0
2024-08-04 21:34:47			0	35977	0	0	0	29181	27800	171985	27168	1065158	45817	110850	0	0	7996	622746	0	0
2024-08-04 21:35:47			0	35993	0	0	0	29176	27780	171953	26845	1065051	45815	110848	0	0	7997	622144	0	0
2024-08-04 21:36:47			0	35974	0	0	0	29168	27780	171869	26668	1065131	45815	110845	0	0	7996	622944	0	0
2024-08-04 21:37:47			0	35984	0	0	0	29173	27780	171797	26767	1065149	45825	110847	0	0	7996	622523	0	0
2024-08-04 21:38:47			0	35958	0	0	0	29173	27780	171905	26847	1065131	45815	110847	0	0	7995	623618	0	0
2024-08-04 21:39:47			0	35978	0	0	0	29173	27770	171873	26864	1065113	45814	110847	0	0	7996	622811	0	0
2024-08-04 21:40:47			0	35989	0	0	0	29166	27780	171821	26627	1065122	45814	110844	0	0	7997	622312	0	0
2024-08-04 21:41:47			0	35992	0	0	0	29173	27780	171837	26733	1065122	45814	110847	0	0	7997	622186	0	0
2024-08-04 21:42:47			0	36010	0	0	0	29168	27770	171865	26585	1065077	45814	110845	0	0	7998	621465	0	0
2024-08-04 21:43:47			0	36011	0	0	0	29168	27770	171825	26590	1065086	45814	110845	0	0	7998	621422	0	0
2024-08-04 21:44:47			0	36015	0	0	0	29166	27780	171753	26967	1065014	45802	110844	0	0	7998	621218	0	0
2024-08-04 21:45:47			0	36012	0	0	0	29155	27770	171805	26767	1064996	45825	110840	0	0	7998	621380	0	0
2024-08-04 21:46:47			0	36015	0	0	0	29145	27770	171793	26896	1064996	45781	110836	0	0	7998	621254	0	0
2024-08-04 21:47:47			0	36018	0	0	0	29145	27760	171785	27072	1064987	45813	110836	0	0	7999	621164	0	0
2024-08-04 21:48:47			0	36014	0	0	0	29142	27760	171781	26993	1064925	45800	110835	0	0	7998	621332	0	0
2024-08-04 21:49:47			0	36013	0	0	0	29140	27760	171841	27022	1064952	45812	110834	0	0	7998	621374	0	0
2024-08-04 21:50:47			0	35994	0	0	0	29135	27750	171893	27078	1064853	45812	110832	0	0	7997	622209	0	0
2024-08-04 21:51:47			0	35943	0	0	0	29127	27750	172109	26934	1064880	45812	110829	0	0	7994	624359	0	0
2024-08-04 21:52:47			0	35929	0	0	0	29132	27750	172245	27034	1064880	45800	110831	0	0	7993	624949	0	0
2024-08-04 21:53:47			0	35901	0	0	0	29137	27750	172289	26680	1064880	45800	110833	0	0	7992	626133	0	0
2024-08-04 21:54:47			0	35890	0	0	0	29137	27740	172429	26762	1064844	45799	110833	0	0	7991	626634	0	0
2024-08-04 21:55:47			0	35873	0	0	0	29132	27740	172573	26778	1064844	45811	110831	0	0	7990	627353	0	0
2024-08-04 21:56:47			0	35858	0	0	0	29137	27750	172652	26656	1064862	45790	110833	0	0	7989	627953	0	0
2024-08-04 21:57:47			0	35859	0	0	0	29145	27740	172577	26842	1064844	45822	110836	0	0	7989	627946	0	0
2024-08-04 21:58:47			0	35868	0	0	0	29145	27740	172621	26847	1064844	45811	110836	0	0	7989	627565	0	0
2024-08-04 21:59:47			0	35866	0	0	0	29145	27740	172628	26868	1064862	45821	110836	0	0	7989	627650	0	0
2024-08-04 22:00:47			0	35862	0	0	0	29140	27740	172589	26857	1064835	45810	110834	0	0	7989	627819	0	0
2024-08-04 22:01:47			0	35858	0	0	0	29137	27750	172613	26720	1064934	45800	110833	0	0	7989	627953	0	0
2024-08-04 22:02:47			0	35883	0	0	0	29135	27740	172613	26941	1064808	45810	110832	0	0	7990	626930	0	0
2024-08-04 22:03:47			0	35882	0	0	0	29137	27750	172465	26767	1064961	45800	110833	0	0	7990	626936	0	0
2024-08-04 22:04:47			0	35901	0	0	0	29135	27740	172397	26861	1064862	45788	110832	0	0	7992	626169	0	0
2024-08-04 22:05:47			0	35928	0	0	0	29129	27740	172365	26984	1064862	45798	110830	0	0	7993	625028	0	0
2024-08-04 22:06:47			0	35942	0	0	0	29127	27730	172317	26918	1064799	45798	110829	0	0	7994	624473	0	0
2024-08-04 22:07:47			0	35923	0	0	0	29127	27740	172317	26535	1064889	45810	110829	0	0	7993	625239	0	0
2024-08-04 22:08:47			0	35901	0	0	0	29132	27740	172473	27043	1064835	45810	110831	0	0	7992	626169	0	0
2024-08-04 22:09:47			0	35918	0	0	0	29132	27730	172337	26729	1064853	45798	110831	0	0	7993	625486	0	0
2024-08-04 22:10:47			0	35934	0	0	0	29122	27740	172293	26930	1064808	45798	110827	0	0	7994	624775	0	0
2024-08-04 22:11:47			0	35954	0	0	0	29114	27730	172261	26802	1064718	45810	110824	0	0	7995	623967	0	0
2024-08-04 22:12:47			0	35932	0	0	0	29111	27730	172289	26984	1064799	45798	110823	0	0	7994	624895	0	0
2024-08-04 22:13:47			0	35951	0	0	0	29106	27730	172117	27045	1064790	45821	110821	0	0	7995	624093	0	0
2024-08-04 22:14:47			0	35951	0	0	0	29106	27720	172165	26526	1064718	45796	110821	0	0	7995	624129	0	0
2024-08-04 22:15:47			0	35931	0	0	0	29103	27720	172277	26765	1064772	45808	110820	0	0	7994	624973	0	0
2024-08-04 22:16:47			0	35945	0	0	0	29093	27720	172181	26981	1064692	45786	110816	0	0	7995	624382	0	0
2024-08-04 22:17:47			0	35946	0	0	0	29093	27710	172173	26703	1064593	45807	110816	0	0	7995	624376	0	0
2024-08-04 22:18:47			0	35938	0	0	0	29080	27710	172185	26870	1064602	45808	110811	0	0	7995	624714	0	0
2024-08-04 22:19:47			0	35946	0	0	0	29090	27710	172137	26932	1064629	45808	110815	0	0	7995	624376	0	0
2024-08-04 22:20:47			0	35955	0	0	0	29075	27710	172193	26934	1064593	45807	110809	0	0	7996	623996	0	0
2024-08-04 22:21:47			0	35960	0	0	0	29072	27700	172205	26722	1064602	45794	110808	0	0	7996	623821	0	0
2024-08-04 22:22:47			0	35958	0	0	0	29080	27700	172137	26660	1064548	45817	110811	0	0	7996	623906	0	0
2024-08-04 22:23:47			0	35962	0	0	0	29072	27690	172165	26729	1064593	45793	110808	0	0	7996	623773	0	0
2024-08-04 22:24:47			0	35952	0	0	0	29077	27680	172265	26882	1064548	45805	110810	0	0	7995	624231	0	0
2024-08-04 22:25:47			0	35948	0	0	0	29075	27690	172237	26930	1064584	45793	110809	0	0	7995	624363	0	0
2024-08-04 22:26:47			0	35947	0	0	0	29083	27690	172233	26771	1064539	45805	110812	0	0	7995	624406	0	0
2024-08-04 22:27:47			0	35950	0	0	0	29070	27690	172249	26831	1064593	45805	110807	0	0	7995	624279	0	0
2024-08-04 22:28:47			0	35953	0	0	0	29077	27680	172333	26826	1064467	45793	110810	0	0	7995	624188	0	0
2024-08-04 22:29:47			0	35967	0	0	0	29075	27690	172309	26937	1064557	45828	110809	0	0	7996	623562	0	0
2024-08-04 22:30:47			0	35967	0	0	0	29085	27690	172149	26700	1064584	45816	110813	0	0	7996	623562	0	0
2024-08-04 22:31:47			0	35978	0	0	0	29098	27690	172153	27022	1064665	45816	110818	0	0	7997	623098	0	0
2024-08-04 22:32:47			0	35971	0	0	0	29090	27680	172025	26934	1064656	45793	110815	0	0	7996	623429	0	0
2024-08-04 22:33:47			0	35996	0	0	0	29088	27690	172125	27005	1064476	45805	110814	0	0	7998	622340	0	0
2024-08-04 22:34:47			0	36013	0	0	0	29077	27680	172053	26637	1064566	45815	110810	0	0	7999	621660	0	0
2024-08-04 22:35:47			0	36003	0	0	0	29075	27670	172065	26746	1064530	45791	110809	0	0	7998	622117	0	0
2024-08-04 22:36:47			0	36039	0	0	0	29070	27680	172057	26750	1064575	45805	110807	0	0	8001	620567	0	0
2024-08-04 22:37:47			0	36034	0	0	0	29067	27680	171989	26811	1064539	45804	110806	0	0	8000	620777	0	0
2024-08-04 22:38:47			0	36029	0	0	0	29070	27690	171909	26989	1064503	45805	110807	0	0	8000	620952	0	0
2024-08-04 22:39:47			0	36013	0	0	0	29067	27680	172033	27041	1064566	45815	110806	0	0	7999	621660	0	0
2024-08-04 22:40:47			0	36023	0	0	0	29072	27680	171885	27112	1064539	45804	110808	0	0	8000	621240	0	0
2024-08-04 22:41:47			0	36031	0	0	0	29070	27670	171869	26852	1064503	45803	110807	0	0	8000	620939	0	0
2024-08-04 22:42:47			0	36042	0	0	0	29072	27680	171809	27033	1064512	45804	110808	0	0	8001	620441	0	0
2024-08-04 22:43:47			0	36070	0	0	0	29080	27680	171761	26864	1064485	45815	110811	0	0	8002	619266	0	0
2024-08-04 22:44:47			0	36095	0	0	0	29083	27670	171613	26993	1064503	45803	110812	0	0	8004	618253	0	0
2024-08-04 22:45:47			0	36105	0	0	0	29072	27680	171565	27001	1064548	45805	110808	0	0	8005	617798	0	0
2024-08-04 22:46:47			0	36116	0	0	0	29080	27680	171505	26956	1064521	45805	110811	0	0	8005	617338	0	0
2024-08-04 22:47:47			0	36117	0	0	0	29072	27670	171553	27048	1064503	45803	110808	0	0	8005	617331	0	0
2024-08-04 22:48:47			0	36147	0	0	0	29077	27680	171353	27118	1064521	45805	110810	0	0	8007	616041	0	0
2024-08-04 22:49:47			0	36155	0	0	0	29064	27670	171361	27114	1064476	45803	110805	0	0	8008	615742	0	0
2024-08-04 22:50:47			0	36167	0	0	0	29054	27680	171385	27154	1064539	45804	110801	0	0	8009	615205	0	0
2024-08-04 22:51:47			0	36164	0	0	0	29064	27670	171345	27215	1064423	45814	110805	0	0	8008	615366	0	0
2024-08-04 22:52:47			0	36137	0	0	0	29041	27660	171417	26653	1064458	45803	110796	0	0	8007	616530	0	0
2024-08-04 22:53:47			0	36113	0	0	0	29041	27660	171461	26981	1064485	45791	110796	0	0	8006	617534	0	0
2024-08-04 22:54:47			0	36124	0	0	0	29046	27650	171637	26798	1064359	45812	110798	0	0	8006	617109	0	0
2024-08-04 22:55:47			0	36113	0	0	0	29038	27660	171653	26972	1064423	45791	110795	0	0	8006	617534	0	0
2024-08-04 22:56:47			0	36109	0	0	0	29036	27650	171545	27074	1064386	45790	110794	0	0	8005	617737	0	0
2024-08-04 22:57:47			0	36115	0	0	0	29038	27650	171645	27133	1064440	45790	110795	0	0	8006	617486	0	0
2024-08-04 22:58:47			0	36104	0	0	0	29036	27650	171589	27220	1064386	45790	110794	0	0	8005	617947	0	0
2024-08-04 22:59:47			0	36116	0	0	0	29033	27650	171577	26889	1064333	45812	110793	0	0	8006	617444	0	0
2024-08-04 23:00:47			0	36116	0	0	0	29036	27660	171553	27078	1064396	45802	110794	0	0	8006	617409	0	0
2024-08-04 23:01:47			0	36122	0	0	0	29033	27650	171537	26845	1064377	45790	110793	0	0	8006	617193	0	0
2024-08-04 23:02:47			0	36140	0	0	0	29028	27640	171409	26821	1064315	45800	110791	0	0	8007	616475	0	0
2024-08-04 23:03:47			0	36141	0	0	0	29023	27630	171409	26979	1064296	45789	110789	0	0	8007	616469	0	0
2024-08-04 23:04:47			0	36148	0	0	0	29023	27640	171417	26759	1064305	45789	110789	0	0	8008	616141	0	0
2024-08-04 23:05:47			0	36156	0	0	0	29025	27640	171313	26693	1064305	45823	110790	0	0	8008	615807	0	0
2024-08-04 23:06:47			0	36170	0	0	0	29023	27630	171397	27071	1064323	45810	110789	0	0	8009	615257	0	0
2024-08-04 23:07:47			0	36154	0	0	0	29028	27630	171301	26785	1064296	45810	110791	0	0	8008	615926	0	0
2024-08-04 23:08:47			0	36173	0	0	0	29015	27630	171273	26923	1064350	45789	110786	0	0	8009	615132	0	0
2024-08-04 23:09:47			0	36175	0	0	0	29025	27630	171285	27170	1064296	45789	110790	0	0	8009	615048	0	0
2024-08-04 23:10:47			0	36185	0	0	0	29012	27630	171257	27152	1064269	45799	110785	0	0	8010	614631	0	0
2024-08-04 23:11:47			0	36206	0	0	0	29020	27620	171209	27022	1064225	45798	110788	0	0	8011	613790	0	0
2024-08-04 23:12:47			0	36190	0	0	0	29012	27620	171113	27157	1064252	45809	110785	0	0	8010	614457	0	0
2024-08-04 23:13:47			0	36207	0	0	0	29015	27620	171141	27026	1064278	45798	110786	0	0	8011	613748	0	0
2024-08-04 23:14:47			0	36193	0	0	0	29007	27630	171265	26996	1064234	45799	110783	0	0	8011	614297	0	0
2024-08-04 23:15:47			0	36188	0	0	0	29018	27620	171273	26819	1064243	45798	110787	0	0	8010	614541	0	0
2024-08-04 23:16:47			0	36202	0	0	0	29012	27610	171229	26930	1064305	45807	110785	0	0	8011	613992	0	0
2024-08-04 23:17:47			0	36195	0	0	0	29002	27630	171305	26866	1064207	45810	110781	0	0	8011	614214	0	0
2024-08-04 23:18:47			0	36197	0	0	0	29002	27600	171285	26609	1064189	45786	110781	0	0	8011	614236	0	0
2024-08-04 23:19:47			0	36209	0	0	0	29007	27610	171241	26823	1064207	45787	110783	0	0	8012	613700	0	0
2024-08-04 23:20:47			0	36214	0	0	0	29007	27620	171225	26970	1064216	45798	110783	0	0	8012	613456	0	0
2024-08-04 23:21:47			0	36229	0	0	0	29007	27620	171197	27138	1064252	45788	110783	0	0	8013	612831	0	0
2024-08-04 23:22:47			0	36224	0	0	0	29012	27610	171033	26982	1064234	45787	110785	0	0	8012	613075	0	0
2024-08-04 23:23:47			0	36255	0	0	0	29002	27610	170937	26927	1064144	45786	110781	0	0	8014	611784	0	0
2024-08-04 23:24:47			0	36263	0	0	0	29005	27610	170913	26790	1064198	45807	110782	0	0	8015	611452	0	0
2024-08-04 23:25:47			0	36282	0	0	0	29007	27600	170761	27145	1064216	45786	110783	0	0	8016	610697	0	0
2024-08-04 23:26:47			0	36278	0	0	0	29007	27610	170781	27121	1064171	45796	110783	0	0	8016	610828	0	0
2024-08-04 23:27:47			0	36280	0	0	0	28997	27610	170873	26863	1064225	45786	110779	0	0	8016	610745	0	0
2024-08-04 23:28:47			0	36286	0	0	0	28997	27610	170857	27133	1064171	45786	110779	0	0	8016	610496	0	0
2024-08-04 23:29:47			0	36291	0	0	0	28992	27600	170877	26819	1064126	45796	110777	0	0	8017	610323	0	0
2024-08-04 23:30:47			0	36273	0	0	0	28984	27590	170869	27121	1064063	45795	110774	0	0	8016	611106	0	0
2024-08-04 23:31:47			0	36255	0	0	0	28976	27600	170977	27111	1064126	45807	110771	0	0	8015	611819	0	0
2024-08-04 23:32:47			0	36249	0	0	0	28973	27600	171005	27007	1064153	45786	110770	0	0	8015	612069	0	0
2024-08-04 23:33:47			0	36242	0	0	0	28968	27600	171041	26946	1064126	45796	110768	0	0	8014	612361	0	0
2024-08-04 23:34:47			0	36224	0	0	0	28968	27590	171021	26850	1064054	45784	110768	0	0	8013	613146	0	0
2024-08-04 23:35:47			0	36219	0	0	0	28966	27600	171093	26996	1064072	45796	110767	0	0	8013	613319	0	0
2024-08-04 23:36:47			0	36237	0	0	0	28966	27580	171057	26911	1064072	45794	110767	0	0	8014	612639	0	0
2024-08-04 23:37:47			0	36235	0	0	0	28971	27580	171045	26981	1064063	45760	110769	0	0	8014	612722	0	0
2024-08-04 23:38:47			0	36243	0	0	0	28961	27570	171053	26951	1064027	45783	110765	0	0	8014	612425	0	0
2024-08-04 23:39:47			0	36245	0	0	0	28950	27580	171097	26748	1064036	45793	110761	0	0	8015	612306	0	0
2024-08-04 23:40:47			0	36251	0	0	0	28942	27580	170985	26764	1063956	45804	110758	0	0	8015	612056	0	0
2024-08-04 23:41:47			0	36250	0	0	0	28940	27570	171049	26882	1063965	45782	110757	0	0	8015	612133	0	0
2024-08-04 23:42:47			0	36245	0	0	0	28935	27560	171197	26817	1063848	45782	110755	0	0	8015	612377	0	0
2024-08-04 23:43:47			0	36232	0	0	0	28932	27560	171105	26849	1063893	45781	110754	0	0	8014	612918	0	0
2024-08-04 23:44:47			0	36232	0	0	0	28940	27560	171077	27010	1063929	45782	110757	0	0	8014	612918	0	0
2024-08-04 23:45:47			0	36232	0	0	0	28935	27560	171077	27026	1063866	45791	110755	0	0	8014	612918	0	0
2024-08-04 23:46:47			0	36228	0	0	0	28937	27550	171157	27005	1063857	45791	110756	0	0	8014	613120	0	0
2024-08-04 23:47:47			0	36227	0	0	0	28935	27550	171161	26873	1063884	45802	110755	0	0	8014	613162	0	0
2024-08-04 23:48:47			0	36187	0	0	0	28932	27550	171209	26835	1063884	45791	110754	0	0	8011	614830	0	0
2024-08-04 23:49:47			0	36202	0	0	0	28935	27550	171173	26984	1063803	45791	110755	0	0	8012	614204	0	0
2024-08-04 23:50:47			0	36206	0	0	0	28935	27550	171281	26955	1063902	45780	110755	0	0	8012	614037	0	0
2024-08-04 23:51:47			0	36192	0	0	0	28929	27550	171341	27064	1063884	45791	110753	0	0	8012	614621	0	0
2024-08-04 23:52:47			0	36186	0	0	0	28935	27540	171325	27036	1063857	45800	110755	0	0	8011	614907	0	0
2024-08-04 23:53:47			0	36178	0	0	0	28935	27550	171385	27220	1063929	45791	110755	0	0	8011	615206	0	0
2024-08-04 23:54:47			0	36170	0	0	0	28935	27550	171389	26753	1063902	45801	110755	0	0	8010	615540	0	0
2024-08-04 23:55:47			0	36166	0	0	0	28932	27540	171329	26922	1063866	45791	110754	0	0	8010	615743	0	0
2024-08-04 23:56:47			0	36164	0	0	0	28927	27540	171417	27064	1063830	45790	110752	0	0	8010	615826	0	0
2024-08-04 23:57:47			0	36170	0	0	0	28924	27540	171437	26753	1063866	45791	110751	0	0	8010	615576	0	0
2024-08-04 23:58:47			0	36165	0	0	0	28922	27540	171457	26726	1063893	45801	110750	0	0	8010	615785	0	0
2024-08-04 23:59:47			0	36180	0	0	0	28932	27550	171237	26890	1063875	45801	110754	0	0	8011	615123	0	0
2024-08-05 00:00:47			0	36203	0	0	0	28922	27540	171377	27137	1063893	45801	110750	0	0	8012	614198	0	0
2024-08-05 00:01:47			0	36207	0	0	0	28919	27550	171237	26906	1063821	45791	110749	0	0	8013	613996	0	0
2024-08-05 00:02:47			0	36223	0	0	0	28924	27530	171189	26930	1063848	45790	110751	0	0	8013	613399	0	0
2024-08-05 00:03:47			0	36216	0	0	0	28922	27530	171193	27166	1063839	45789	110750	0	0	8013	613691	0	0
2024-08-05 00:04:47			0	36224	0	0	0	28914	27540	171197	26786	1063803	45800	110747	0	0	8014	613322	0	0
2024-08-05 00:05:47			0	36233	0	0	0	28911	27530	171161	26934	1063767	45790	110746	0	0	8014	612982	0	0
2024-08-05 00:06:47			0	36231	0	0	0	28916	27530	171157	26648	1063785	45789	110748	0	0	8014	613066	0	0
2024-08-05 00:07:47			0	36234	0	0	0	28911	27530	171189	26821	1063821	45790	110746	0	0	8014	612940	0	0
2024-08-05 00:08:47			0	36254	0	0	0	28909	27530	171065	26791	1063848	45790	110745	0	0	8016	612107	0	0
2024-08-05 00:09:47			0	36260	0	0	0	28922	27520	170997	26875	1063749	45798	110750	0	0	8016	611893	0	0
2024-08-05 00:10:47			0	36274	0	0	0	28909	27510	170953	26849	1063740	45798	110745	0	0	8017	611346	0	0
2024-08-05 00:11:47			0	36277	0	0	0	28914	27510	170949	26812	1063731	45787	110747	0	0	8017	611221	0	0
2024-08-05 00:12:47			0	36287	0	0	0	28906	27520	170833	26967	1063749	45788	110744	0	0	8018	610770	0	0
2024-08-05 00:13:47			0	36335	0	0	0	28906	27530	170685	26778	1063758	45778	110744	0	0	8021	608742	0	0
2024-08-05 00:14:47			0	36397	0	0	0	28903	27530	170425	26785	1063731	45789	110743	0	0	8024	606175	0	0
2024-08-05 00:15:47			0	36414	0	0	0	28896	27510	170333	27088	1063686	45788	110740	0	0	8025	605542	0	0
2024-08-05 00:16:47			0	36436	0	0	0	28911	27520	170229	26779	1063695	45798	110746	0	0	8026	604599	0	0
2024-08-05 00:17:47			0	36433	0	0	0	28906	27510	170161	26951	1063686	45777	110744	0	0	8026	604758	0	0
2024-08-05 00:18:47			0	36453	0	0	0	28901	27510	170057	26930	1063767	45777	110742	0	0	8028	603933	0	0
2024-08-05 00:19:47			0	36426	0	0	0	28901	27510	170121	27253	1063731	45797	110742	0	0	8026	605047	0	0
2024-08-05 00:20:47			0	36464	0	0	0	28903	27500	169981	26961	1063669	45787	110743	0	0	8028	603514	0	0
2024-08-05 00:21:47			0	36501	0	0	0	28896	27500	169825	27095	1063687	45796	110740	0	0	8030	601990	0	0
2024-08-05 00:22:47			0	36528	0	0	0	28890	27500	169705	27017	1063722	45787	110738	0	0	8032	600880	0	0
2024-08-05 00:23:47			0	36507	0	0	0	28898	27500	169725	26928	1063642	45787	110741	0	0	8031	601743	0	0
2024-08-05 00:24:47			0	36494	0	0	0	28890	27490	169933	26856	1063705	45786	110738	0	0	8030	602313	0	0
2024-08-05 00:25:47			0	36473	0	0	0	28890	27500	169937	26618	1063642	45787	110738	0	0	8029	603143	0	0
2024-08-05 00:26:47			0	36484	0	0	0	28890	27500	169833	26807	1063633	45796	110738	0	0	8030	602690	0	0
2024-08-05 00:27:47			0	36528	0	0	0	28890	27490	169797	26660	1063624	45796	110738	0	0	8032	600914	0	0
2024-08-05 00:28:47			0	36512	0	0	0	28883	27490	169709	26890	1063642	45785	110735	0	0	8031	601572	0	0
2024-08-05 00:29:47			0	36517	0	0	0	28883	27490	169773	26712	1063651	45786	110735	0	0	8032	601367	0	0
2024-08-05 00:30:47			0	36517	0	0	0	28883	27490	169789	26866	1063597	45786	110735	0	0	8032	601367	0	0
2024-08-05 00:31:47			0	36513	0	0	0	28872	27500	169689	26700	1063615	45797	110731	0	0	8032	601496	0	0
2024-08-05 00:32:47			0	36511	0	0	0	28880	27490	169809	26982	1063669	45785	110734	0	0	8031	601613	0	0
2024-08-05 00:33:47			0	36523	0	0	0	28875	27480	169849	26892	1063597	45784	110732	0	0	8032	601154	0	0
2024-08-05 00:34:47			0	36508	0	0	0	28875	27490	169721	26786	1063642	45796	110732	0	0	8031	601737	0	0
2024-08-05 00:35:47			0	36493	0	0	0	28885	27490	169857	26968	1063615	45796	110736	0	0	8030	602354	0	0
2024-08-05 00:36:47			0	36505	0	0	0	28877	27480	169853	26752	1063597	45773	110733	0	0	8031	601895	0	0
2024-08-05 00:37:47			0	36497	0	0	0	28883	27480	169697	26991	1063579	45785	110735	0	0	8030	602224	0	0
2024-08-05 00:38:47			0	36514	0	0	0	28883	27480	169821	26788	1063570	45773	110735	0	0	8031	601524	0	0
2024-08-05 00:39:47			0	36475	0	0	0	28872	27480	169857	26953	1063606	45785	110731	0	0	8029	603130	0	0
2024-08-05 00:40:47			0	36480	0	0	0	28877	27470	169893	26791	1063507	45806	110733	0	0	8029	602959	0	0
2024-08-05 00:41:47			0	36472	0	0	0	28872	27480	169953	26934	1063570	45773	110731	0	0	8029	603254	0	0
2024-08-05 00:42:47			0	36467	0	0	0	28867	27480	169933	26972	1063597	45784	110729	0	0	8029	603460	0	0
2024-08-05 00:43:47			0	36479	0	0	0	28870	27470	170009	27007	1063534	45784	110730	0	0	8029	603000	0	0
2024-08-05 00:44:47			0	36470	0	0	0	28864	27480	169925	26630	1063516	45773	110728	0	0	8029	603336	0	0
2024-08-05 00:45:47			0	36468	0	0	0	28859	27470	169917	26946	1063507	45784	110726	0	0	8029	603453	0	0
2024-08-05 00:46:47			0	36484	0	0	0	28872	27470	169973	26844	1063534	45795	110731	0	0	8030	602794	0	0
2024-08-05 00:47:47			0	36492	0	0	0	28864	27470	169889	27168	1063480	45773	110728	0	0	8030	602464	0	0
2024-08-05 00:48:47			0	36502	0	0	0	28870	27470	169781	27161	1063561	45784	110730	0	0	8031	602053	0	0
2024-08-05 00:49:47			0	36520	0	0	0	28862	27470	169801	27020	1063498	45783	110727	0	0	8032	601312	0	0
2024-08-05 00:50:47			0	36519	0	0	0	28859	27460	169801	27112	1063516	45793	110726	0	0	8032	601388	0	0
2024-08-05 00:51:47			0	36552	0	0	0	28870	27460	169645	26814	1063507	45782	110730	0	0	8034	600032	0	0
2024-08-05 00:52:47			0	36546	0	0	0	28867	27480	169597	27031	1063516	45784	110729	0	0	8034	600209	0	0
2024-08-05 00:53:47			0	36530	0	0	0	28872	27470	169697	26972	1063498	45794	110731	0	0	8032	600901	0	0
2024-08-05 00:54:47			0	36546	0	0	0	28870	27470	169693	27059	1063534	45795	110730	0	0	8033	600244	0	0
2024-08-05 00:55:47			0	36544	0	0	0	28867	27470	169653	26923	1063498	45783	110729	0	0	8033	600326	0	0
2024-08-05 00:56:47			0	36563	0	0	0	28867	27460	169577	26892	1063570	45782	110729	0	0	8034	599581	0	0
2024-08-05 00:57:47			0	36582	0	0	0	28867	27460	169498	26802	1063570	45782	110729	0	0	8036	598801	0	0
2024-08-05 00:58:47			0	36586	0	0	0	28864	27470	169569	27038	1063471	45794	110728	0	0	8036	598603	0	0
2024-08-05 00:59:47			0	36564	0	0	0	28870	27460	169549	26537	1063436	45793	110730	0	0	8034	599539	0	0
2024-08-05 01:00:47			0	36568	0	0	0	28864	27470	169601	26868	1063552	45772	110728	0	0	8035	599341	0	0
2024-08-05 01:01:47			0	36565	0	0	0	28862	27470	169565	27066	1063498	45783	110727	0	0	8035	599464	0	0
2024-08-05 01:02:47			0	36574	0	0	0	28864	27460	169577	27234	1063516	45771	110728	0	0	8035	599129	0	0
2024-08-05 01:03:47			0	36571	0	0	0	28857	27470	169609	26849	1063445	45772	110725	0	0	8035	599218	0	0
2024-08-05 01:04:47			0	36568	0	0	0	28864	27470	169637	27112	1063498	45772	110728	0	0	8035	599341	0	0
2024-08-05 01:05:47			0	36567	0	0	0	28857	27460	169601	27244	1063507	45782	110725	0	0	8035	599416	0	0
2024-08-05 01:06:47			0	36572	0	0	0	28859	27460	169613	27041	1063427	45771	110726	0	0	8035	599211	0	0
2024-08-05 01:07:47			0	36577	0	0	0	28857	27460	169521	26906	1063427	45782	110725	0	0	8035	599006	0	0
2024-08-05 01:08:47			0	36599	0	0	0	28851	27450	169494	27008	1063445	45782	110723	0	0	8037	598139	0	0
2024-08-05 01:09:47			0	36610	0	0	0	28859	27470	169402	26889	1063418	45783	110726	0	0	8037	597619	0	0
2024-08-05 01:10:47			0	36583	0	0	0	28849	27450	169489	26857	1063391	45782	110722	0	0	8036	598794	0	0
2024-08-05 01:11:47			0	36587	0	0	0	28844	27450	169613	26781	1063418	45771	110720	0	0	8036	598630	0	0
2024-08-05 01:12:47			0	36558	0	0	0	28838	27440	169549	26896	1063418	45769	110718	0	0	8035	599855	0	0
2024-08-05 01:13:47			0	36561	0	0	0	28838	27460	169617	27078	1063400	45771	110718	0	0	8035	599663	0	0
2024-08-05 01:14:47			0	36544	0	0	0	28833	27440	169725	27107	1063373	45780	110716	0	0	8034	600430	0	0
2024-08-05 01:15:47			0	36512	0	0	0	28831	27440	169817	26864	1063346	45780	110715	0	0	8032	601745	0	0
2024-08-05 01:16:47			0	36516	0	0	0	28820	27450	169909	27048	1063382	45770	110711	0	0	8032	601546	0	0
2024-08-05 01:17:47			0	36520	0	0	0	28818	27430	169745	27092	1063355	45769	110710	0	0	8033	601451	0	0
2024-08-05 01:18:47			0	36538	0	0	0	28823	27440	169753	26986	1063292	45769	110712	0	0	8034	600676	0	0
2024-08-05 01:19:47			0	36507	0	0	0	28810	27440	169805	27182	1063283	45780	110707	0	0	8032	601951	0	0
2024-08-05 01:20:47			0	36507	0	0	0	28815	27430	169689	27067	1063274	45791	110709	0	0	8032	601985	0	0
2024-08-05 01:21:47			0	36503	0	0	0	28818	27430	169925	26713	1063274	45780	110710	0	0	8032	602150	0	0
2024-08-05 01:22:47			0	36502	0	0	0	28807	27430	169793	26837	1063265	45768	110706	0	0	8032	602191	0	0
2024-08-05 01:23:47			0	36514	0	0	0	28807	27430	169837	27045	1063355	45780	110706	0	0	8032	601697	0	0
2024-08-05 01:24:47			0	36505	0	0	0	28805	27430	169841	26928	1063238	45779	110705	0	0	8032	602068	0	0
2024-08-05 01:25:47			0	36504	0	0	0	28810	27430	169813	26932	1063265	45779	110707	0	0	8032	602109	0	0
2024-08-05 01:26:47			0	36509	0	0	0	28805	27420	169829	26896	1063203	45778	110705	0	0	8032	601938	0	0
2024-08-05 01:27:47			0	36507	0	0	0	28805	27420	169865	26726	1063248	45790	110705	0	0	8032	602020	0	0
2024-08-05 01:28:47			0	36504	0	0	0	28805	27420	169769	26875	1063256	45778	110705	0	0	8032	602143	0	0
2024-08-05 01:29:47			0	36535	0	0	0	28810	27420	169677	26901	1063221	45767	110707	0	0	8034	600868	0	0
2024-08-05 01:30:47			0	36513	0	0	0	28810	27420	169749	26870	1063310	45778	110707	0	0	8032	601773	0	0
2024-08-05 01:31:47			0	36508	0	0	0	28810	27420	169781	26686	1063230	45800	110707	0	0	8032	601979	0	0
2024-08-05 01:32:47			0	36531	0	0	0	28815	27420	169709	26892	1063256	45778	110709	0	0	8033	601033	0	0
2024-08-05 01:33:47			0	36562	0	0	0	28807	27420	169737	27038	1063274	45767	110706	0	0	8035	599759	0	0
2024-08-05 01:34:47			0	36570	0	0	0	28794	27410	169601	27066	1063212	45789	110701	0	0	8036	599466	0	0
2024-08-05 01:35:47			0	36566	0	0	0	28794	27400	169505	26981	1063140	45788	110701	0	0	8036	599664	0	0
2024-08-05 01:36:47			0	36579	0	0	0	28792	27420	169461	26989	1063221	45790	110700	0	0	8036	599062	0	0
2024-08-05 01:37:47			0	36562	0	0	0	28794	27410	169469	26856	1063185	45789	110701	0	0	8035	599794	0	0
2024-08-05 01:38:47			0	36568	0	0	0	28792	27410	169553	26703	1063239	45777	110700	0	0	8036	599548	0	0
2024-08-05 01:39:47			0	36567	0	0	0	28802	27410	169541	26937	1063229	45777	110704	0	0	8036	599589	0	0
2024-08-05 01:40:47			0	36548	0	0	0	28792	27400	169621	26814	1063184	45787	110700	0	0	8035	600403	0	0
2024-08-05 01:41:47			0	36564	0	0	0	28789	27390	169589	26927	1063202	45787	110699	0	0	8035	599781	0	0
2024-08-05 01:42:47			0	36569	0	0	0	28789	27400	169577	27102	1063131	45775	110699	0	0	8036	599541	0	0
2024-08-05 01:43:47			0	36556	0	0	0	28792	27400	169597	26738	1063193	45788	110700	0	0	8035	600075	0	0
2024-08-05 01:44:47			0	36564	0	0	0	28789	27400	169485	26850	1063131	45775	110699	0	0	8036	599746	0	0
2024-08-05 01:45:47			0	36576	0	0	0	28799	27400	169509	26783	1063220	45788	110703	0	0	8036	599254	0	0
2024-08-05 01:46:47			0	36588	0	0	0	28794	27410	169526	26987	1063202	45777	110701	0	0	8037	598727	0	0
2024-08-05 01:47:47			0	36587	0	0	0	28799	27400	169410	26918	1063184	45787	110703	0	0	8037	598803	0	0
2024-08-05 01:48:47			0	36602	0	0	0	28792	27400	169362	26994	1063166	45788	110700	0	0	8038	598188	0	0
2024-08-05 01:49:47			0	36628	0	0	0	28797	27410	169354	26727	1063149	45777	110702	0	0	8039	597089	0	0
2024-08-05 01:50:47			0	36624	0	0	0	28799	27400	169434	27163	1063220	45776	110703	0	0	8039	597287	0	0
2024-08-05 01:51:47			0	36619	0	0	0	28786	27400	169346	26762	1063059	45776	110698	0	0	8039	597491	0	0
2024-08-05 01:52:47			0	36624	0	0	0	28789	27400	169302	27052	1063158	45775	110699	0	0	8039	597287	0	0
2024-08-05 01:53:47			0	36640	0	0	0	28794	27400	169294	26889	1063238	45775	110701	0	0	8040	596632	0	0
2024-08-05 01:54:47			0	36636	0	0	0	28797	27390	169358	26965	1063149	45775	110702	0	0	8040	596830	0	0
2024-08-05 01:55:47			0	36675	0	0	0	28789	27400	169102	27034	1063184	45775	110699	0	0	8042	595202	0	0
2024-08-05 01:56:47			0	36689	0	0	0	28789	27390	169054	26807	1063175	45775	110699	0	0	8043	594664	0	0
2024-08-05 01:57:47			0	36709	0	0	0	28784	27400	168990	26831	1063158	45775	110697	0	0	8044	593814	0	0
2024-08-05 01:58:47			0	36719	0	0	0	28786	27400	169018	26800	1063131	45775	110698	0	0	8045	593407	0	0
2024-08-05 01:59:47			0	36701	0	0	0	28781	27400	169030	27187	1063220	45788	110696	0	0	8044	594140	0	0
2024-08-05 02:00:47			0	36680	0	0	0	28794	27400	169090	26896	1063211	45787	110701	0	0	8042	594997	0	0
2024-08-05 02:01:47			0	36690	0	0	0	28799	27400	168998	27038	1063211	45787	110703	0	0	8043	594589	0	0
2024-08-05 02:02:47			0	36698	0	0	0	28794	27390	169022	26906	1063229	45787	110701	0	0	8043	594297	0	0
2024-08-05 02:03:47			0	36701	0	0	0	28797	27400	168994	26928	1063211	45775	110702	0	0	8044	594140	0	0
2024-08-05 02:04:47			0	36716	0	0	0	28794	27400	168830	27130	1063274	45788	110701	0	0	8044	593529	0	0
2024-08-05 02:05:47			0	36752	0	0	0	28794	27400	168834	27176	1063166	45788	110701	0	0	8047	592063	0	0
2024-08-05 02:06:47			0	36786	0	0	0	28799	27400	168674	26944	1063211	45775	110703	0	0	8049	590681	0	0
2024-08-05 02:07:47			0	36799	0	0	0	28799	27400	168598	27012	1063166	45776	110703	0	0	8049	590153	0	0
2024-08-05 02:08:47			0	36828	0	0	0	28802	27410	168610	26802	1063310	45789	110704	0	0	8051	588942	0	0
2024-08-05 02:09:47			0	36837	0	0	0	28812	27410	168482	27114	1063256	45777	110708	0	0	8051	588577	0	0
2024-08-05 02:10:47			0	36832	0	0	0	28815	27410	168298	26713	1063175	45777	110709	0	0	8051	588780	0	0
2024-08-05 02:11:47			0	36841	0	0	0	28815	27410	168350	26543	1063229	45789	110709	0	0	8052	588415	0	0
2024-08-05 02:12:47			0	36825	0	0	0	28810	27400	168378	26864	1063274	45776	110707	0	0	8051	589098	0	0
2024-08-05 02:13:47			0	36848	0	0	0	28818	27400	168398	26961	1063301	45754	110710	0	0	8052	588165	0	0
2024-08-05 02:14:47			0	36845	0	0	0	28815	27410	168402	27083	1063256	45789	110709	0	0	8052	588253	0	0
2024-08-05 02:15:47			0	36834	0	0	0	28799	27410	168374	26781	1063229	45777	110703	0	0	8051	588699	0	0
2024-08-05 02:16:47			0	36840	0	0	0	28815	27400	168306	26644	1063274	45788	110709	0	0	8051	588490	0	0
2024-08-05 02:17:47			0	36830	0	0	0	28810	27410	168390	26894	1063229	45766	110707	0	0	8051	588861	0	0
2024-08-05 02:18:47			0	36831	0	0	0	28807	27410	168414	26750	1063175	45777	110706	0	0	8051	588820	0	0
2024-08-05 02:19:47			0	36817	0	0	0	28812	27410	168458	26909	1063256	45766	110708	0	0	8050	589388	0	0
2024-08-05 02:20:47			0	36780	0	0	0	28805	27410	168466	26762	1063229	45789	110705	0	0	8048	590890	0	0
2024-08-05 02:21:47			0	36757	0	0	0	28807	27400	168578	26771	1063140	45788	110706	0	0	8047	591859	0	0
2024-08-05 02:22:47			0	36776	0	0	0	28799	27400	168670	26819	1063220	45798	110703	0	0	8048	591087	0	0
2024-08-05 02:23:47			0	36752	0	0	0	28792	27410	168814	26955	1063175	45777	110700	0	0	8047	592029	0	0
2024-08-05 02:24:47			0	36760	0	0	0	28794	27410	168818	26894	1063149	45766	110701	0	0	8047	591703	0	0
2024-08-05 02:25:47			0	36739	0	0	0	28802	27410	168806	26693	1063185	45789	110704	0	0	8046	592558	0	0
2024-08-05 02:26:47			0	36738	0	0	0	28805	27410	168774	26741	1063283	45789	110705	0	0	8046	592599	0	0
2024-08-05 02:27:47			0	36734	0	0	0	28792	27410	168834	27043	1063175	45766	110700	0	0	8046	592761	0	0
2024-08-05 02:28:47			0	36738	0	0	0	28799	27400	168718	27097	1063184	45775	110703	0	0	8046	592633	0	0
2024-08-05 02:29:47			0	36744	0	0	0	28794	27400	168662	26876	1063158	45764	110701	0	0	8046	592388	0	0
2024-08-05 02:30:47			0	36780	0	0	0	28802	27400	168590	26798	1063158	45787	110704	0	0	8048	590924	0	0
2024-08-05 02:31:47			0	36788	0	0	0	28799	27400	168502	26611	1063184	45787	110703	0	0	8049	590599	0	0
2024-08-05 02:32:47			0	36809	0	0	0	28794	27400	168486	26937	1063104	45753	110701	0	0	8050	589747	0	0
2024-08-05 02:33:47			0	36816	0	0	0	28794	27400	168478	27100	1063193	45776	110701	0	0	8050	589463	0	0
2024-08-05 02:34:47			0	36829	0	0	0	28792	27390	168482	26960	1063175	45775	110700	0	0	8051	588969	0	0
2024-08-05 02:35:47			0	36822	0	0	0	28794	27400	168426	26916	1063166	45776	110701	0	0	8051	589219	0	0
2024-08-05 02:36:47			0	36813	0	0	0	28792	27400	168390	27209	1063131	45775	110700	0	0	8050	589584	0	0
2024-08-05 02:37:47			0	36812	0	0	0	28786	27400	168370	27036	1063140	45776	110698	0	0	8050	589625	0	0
2024-08-05 02:38:47			0	36796	0	0	0	28792	27400	168510	26857	1063158	45787	110700	0	0	8049	590274	0	0
2024-08-05 02:39:47			0	36826	0	0	0	28781	27390	168366	26762	1063140	45775	110696	0	0	8051	589091	0	0
2024-08-05 02:40:47			0	36796	0	0	0	28784	27390	168478	26956	1063220	45764	110697	0	0	8049	590308	0	0
2024-08-05 02:41:47			0	36780	0	0	0	28776	27390	168686	26632	1063122	45764	110694	0	0	8048	590958	0	0
2024-08-05 02:42:47			0	36761	0	0	0	28781	27390	168578	26769	1063095	45787	110696	0	0	8047	591731	0	0
2024-08-05 02:43:47			0	36766	0	0	0	28774	27390	168686	26871	1063140	45787	110693	0	0	8048	591527	0	0
2024-08-05 02:44:47			0	36775	0	0	0	28781	27390	168658	27220	1063140	45775	110696	0	0	8048	591161	0	0
2024-08-05 02:45:47			0	36741	0	0	0	28784	27380	168686	26857	1063041	45773	110697	0	0	8046	592579	0	0
2024-08-05 02:46:47			0	36744	0	0	0	28781	27380	168702	26840	1063077	45774	110696	0	0	8046	592456	0	0
2024-08-05 02:47:47			0	36733	0	0	0	28771	27390	168702	26963	1063122	45787	110692	0	0	8046	592870	0	0
2024-08-05 02:48:47			0	36734	0	0	0	28766	27380	168702	26977	1063122	45773	110690	0	0	8046	592864	0	0
2024-08-05 02:49:47			0	36716	0	0	0	28774	27390	168942	26859	1063140	45775	110693	0	0	8045	593563	0	0
2024-08-05 02:50:47			0	36696	0	0	0	28768	27380	168978	27137	1063050	45763	110691	0	0	8044	594413	0	0
2024-08-05 02:51:47			0	36657	0	0	0	28766	27370	169094	27010	1062969	45785	110690	0	0	8041	596040	0	0
2024-08-05 02:52:47			0	36649	0	0	0	28768	27370	169222	26807	1063005	45785	110691	0	0	8041	596367	0	0
2024-08-05 02:53:47			0	36640	0	0	0	28771	27370	169254	26885	1063086	45785	110692	0	0	8040	596735	0	0
2024-08-05 02:54:47			0	36633	0	0	0	28771	27370	169226	26915	1063086	45785	110692	0	0	8040	597021	0	0
2024-08-05 02:55:47			0	36625	0	0	0	28776	27380	169246	26935	1063068	45785	110694	0	0	8039	597314	0	0
2024-08-05 02:56:47			0	36635	0	0	0	28771	27370	169178	26854	1063050	45773	110692	0	0	8040	596940	0	0
2024-08-05 02:57:47			0	36629	0	0	0	28763	27370	169186	26956	1063023	45773	110689	0	0	8040	597185	0	0
2024-08-05 02:58:47			0	36648	0	0	0	28763	27370	169214	26956	1063059	45773	110689	0	0	8041	596408	0	0
2024-08-05 02:59:47			0	36643	0	0	0	28763	27360	169190	26764	1063014	45772	110689	0	0	8040	596646	0	0
2024-08-05 03:00:47			0	36636	0	0	0	28766	27360	169270	26533	1063014	45784	110690	0	0	8040	596933	0	0
2024-08-05 03:01:47			0	36627	0	0	0	28768	27370	169174	27005	1063059	45773	110691	0	0	8039	597267	0	0
2024-08-05 03:02:47			0	36643	0	0	0	28771	27360	169242	27019	1063041	45772	110692	0	0	8040	596646	0	0
2024-08-05 03:03:47			0	36633	0	0	0	28763	27370	169198	27128	1063050	45773	110689	0	0	8040	597021	0	0
2024-08-05 03:04:47			0	36621	0	0	0	28763	27370	169170	26915	1063032	45773	110689	0	0	8039	597513	0	0
2024-08-05 03:05:47			0	36661	0	0	0	28748	27350	169078	27144	1062943	45783	110683	0	0	8042	595945	0	0
2024-08-05 03:06:47			0	36658	0	0	0	28750	27360	169114	26713	1062960	45772	110684	0	0	8042	596033	0	0
2024-08-05 03:07:47			0	36651	0	0	0	28753	27370	169118	26908	1062942	45762	110685	0	0	8041	596285	0	0
2024-08-05 03:08:47			0	36647	0	0	0	28753	27360	169154	27059	1063005	45771	110685	0	0	8041	596483	0	0
2024-08-05 03:09:47			0	36647	0	0	0	28758	27360	169118	27289	1063005	45760	110687	0	0	8041	596483	0	0
2024-08-05 03:10:47			0	36635	0	0	0	28740	27350	169246	26679	1062961	45760	110680	0	0	8040	597008	0	0
2024-08-05 03:11:47			0	36621	0	0	0	28740	27360	169310	27050	1062925	45783	110680	0	0	8040	597547	0	0
2024-08-05 03:12:47			0	36596	0	0	0	28750	27350	169350	27007	1062943	45771	110684	0	0	8038	598606	0	0
2024-08-05 03:13:47			0	36598	0	0	0	28750	27350	169366	26937	1062961	45771	110684	0	0	8038	598524	0	0
2024-08-05 03:14:47			0	36601	0	0	0	28753	27360	169318	26946	1062925	45783	110685	0	0	8038	598366	0	0
2024-08-05 03:15:47			0	36587	0	0	0	28748	27350	169449	27055	1062916	45771	110683	0	0	8037	598975	0	0
2024-08-05 03:16:47			0	36596	0	0	0	28742	27360	169402	27092	1062978	45771	110681	0	0	8038	598571	0	0
2024-08-05 03:17:47			0	36608	0	0	0	28742	27350	169406	26753	1062943	45771	110681	0	0	8039	598114	0	0
2024-08-05 03:18:47			0	36603	0	0	0	28745	27350	169314	26809	1062961	45771	110682	0	0	8038	598319	0	0
2024-08-05 03:19:47			0	36597	0	0	0	28742	27340	169354	27017	1062952	45792	110681	0	0	8038	598599	0	0
2024-08-05 03:20:47			0	36602	0	0	0	28748	27350	169390	27249	1062961	45783	110683	0	0	8038	598360	0	0
2024-08-05 03:21:47			0	36621	0	0	0	28748	27340	169342	26887	1062952	45759	110683	0	0	8039	597616	0	0
2024-08-05 03:22:47			0	36625	0	0	0	28735	27350	169234	26840	1062880	45771	110678	0	0	8040	597417	0	0
2024-08-05 03:23:47			0	36639	0	0	0	28745	27340	169130	26920	1062916	45781	110682	0	0	8040	596879	0	0
2024-08-05 03:24:47			0	36656	0	0	0	28742	27350	169214	27019	1062961	45771	110681	0	0	8042	596149	0	0
2024-08-05 03:25:47			0	36638	0	0	0	28742	27340	169258	26868	1062943	45769	110681	0	0	8040	596920	0	0
2024-08-05 03:26:47			0	36638	0	0	0	28740	27340	169298	26788	1062916	45769	110680	0	0	8040	596920	0	0
2024-08-05 03:27:47			0	36630	0	0	0	28742	27350	169214	26785	1062880	45771	110681	0	0	8040	597213	0	0
2024-08-05 03:28:47			0	36635	0	0	0	28737	27350	169226	27038	1062880	45771	110679	0	0	8040	597008	0	0
2024-08-05 03:29:47			0	36630	0	0	0	28740	27350	169174	27204	1062907	45793	110680	0	0	8040	597213	0	0
2024-08-05 03:30:47			0	36645	0	0	0	28735	27340	169198	26847	1062898	45782	110678	0	0	8041	596633	0	0
2024-08-05 03:31:47			0	36673	0	0	0	28727	27340	169194	26743	1062889	45769	110675	0	0	8043	595489	0	0
2024-08-05 03:32:47			0	36678	0	0	0	28729	27330	169054	26602	1062907	45768	110676	0	0	8043	595319	0	0
2024-08-05 03:33:47			0	36710	0	0	0	28735	27330	168838	26641	1062853	45780	110678	0	0	8045	594012	0	0
2024-08-05 03:34:47			0	36730	0	0	0	28729	27330	168870	26987	1062844	45780	110676	0	0	8046	593197	0	0
2024-08-05 03:35:47			0	36710	0	0	0	28727	27330	168762	26824	1062826	45768	110675	0	0	8045	594012	0	0
2024-08-05 03:36:47			0	36725	0	0	0	28711	27330	168818	26927	1062772	45780	110669	0	0	8046	593401	0	0
2024-08-05 03:37:47			0	36724	0	0	0	28714	27330	168830	27041	1062790	45768	110670	0	0	8046	593442	0	0
2024-08-05 03:38:47			0	36694	0	0	0	28714	27330	169050	27015	1062790	45768	110670	0	0	8044	594665	0	0
2024-08-05 03:39:47			0	36698	0	0	0	28711	27320	169050	26691	1062799	45779	110669	0	0	8044	594536	0	0
2024-08-05 03:40:47			0	36703	0	0	0	28711	27310	169154	26736	1062728	45766	110669	0	0	8045	594366	0	0
2024-08-05 03:41:47			0	36697	0	0	0	28709	27310	169126	26613	1062790	45766	110668	0	0	8044	594611	0	0
2024-08-05 03:42:47			0	36700	0	0	0	28706	27320	169054	26759	1062719	45779	110667	0	0	8045	594455	0	0
2024-08-05 03:43:47			0	36700	0	0	0	28701	27310	168982	27043	1062763	45766	110665	0	0	8045	594489	0	0
2024-08-05 03:44:47			0	36698	0	0	0	28703	27310	168986	27178	1062701	45766	110666	0	0	8044	594570	0	0
2024-08-05 03:45:47			0	36702	0	0	0	28706	27310	168950	27008	1062790	45766	110667	0	0	8045	594407	0	0
2024-08-05 03:46:47			0	36716	0	0	0	28703	27300	168938	27277	1062746	45766	110666	0	0	8046	593870	0	0
2024-08-05 03:47:47			0	36734	0	0	0	28706	27310	168902	27050	1062701	45766	110667	0	0	8047	593102	0	0
2024-08-05 03:48:47			0	36728	0	0	0	28690	27300	168954	27076	1062719	45766	110661	0	0	8046	593381	0	0
2024-08-05 03:49:47			0	36746	0	0	0	28693	27300	168766	27112	1062692	45778	110662	0	0	8047	592648	0	0
2024-08-05 03:50:47			0	36733	0	0	0	28696	27300	168722	27112	1062719	45778	110663	0	0	8047	593177	0	0
2024-08-05 03:51:47			0	36770	0	0	0	28693	27300	168638	26965	1062656	45765	110662	0	0	8049	591671	0	0
2024-08-05 03:52:47			0	36758	0	0	0	28693	27300	168534	27119	1062719	45789	110662	0	0	8048	592159	0	0
2024-08-05 03:53:47			0	36792	0	0	0	28698	27310	168638	26779	1062647	45766	110664	0	0	8050	590742	0	0
2024-08-05 03:54:47			0	36776	0	0	0	28698	27300	168586	27123	1062683	45765	110664	0	0	8049	591427	0	0
2024-08-05 03:55:47			0	36788	0	0	0	28690	27290	168418	27053	1062647	45764	110661	0	0	8050	590973	0	0
2024-08-05 03:56:47			0	36788	0	0	0	28685	27300	168462	26765	1062656	45765	110659	0	0	8050	590939	0	0
2024-08-05 03:57:47			0	36805	0	0	0	28690	27290	168490	26899	1062674	45753	110661	0	0	8051	590282	0	0
2024-08-05 03:58:47			0	36810	0	0	0	28683	27290	168422	26953	1062638	45764	110658	0	0	8051	590079	0	0
2024-08-05 03:59:47			0	36812	0	0	0	28693	27290	168402	26611	1062638	45764	110662	0	0	8051	589998	0	0
2024-08-05 04:00:47			0	36815	0	0	0	28685	27300	168382	26939	1062602	45777	110659	0	0	8052	589842	0	0
2024-08-05 04:01:47			0	36828	0	0	0	28683	27280	168414	27116	1062656	45764	110658	0	0	8052	589382	0	0
2024-08-05 04:02:47			0	36813	0	0	0	28675	27290	168402	26776	1062665	45764	110655	0	0	8052	589957	0	0
2024-08-05 04:03:47			0	36819	0	0	0	28683	27280	168466	27074	1062629	45776	110658	0	0	8052	589747	0	0
2024-08-05 04:04:47			0	36811	0	0	0	28672	27280	168418	26821	1062602	45776	110654	0	0	8052	590072	0	0
2024-08-05 04:05:47			0	36820	0	0	0	28667	27280	168390	26573	1062629	45776	110652	0	0	8052	589707	0	0
2024-08-05 04:06:47			0	36861	0	0	0	28680	27280	168122	27244	1062593	45763	110657	0	0	8054	588044	0	0
2024-08-05 04:07:47			0	36865	0	0	0	28670	27280	168194	26826	1062593	45763	110653	0	0	8055	587882	0	0
2024-08-05 04:08:47			0	36877	0	0	0	28672	27270	168158	27059	1062584	45751	110654	0	0	8055	587430	0	0
2024-08-05 04:09:47			0	36900	0	0	0	28670	27280	168070	27010	1062602	45776	110653	0	0	8057	586466	0	0
2024-08-05 04:10:47			0	36930	0	0	0	28664	27270	167962	26708	1062575	45773	110651	0	0	8059	585287	0	0
2024-08-05 04:11:47			0	36954	0	0	0	28670	27270	167862	26866	1062557	45762	110653	0	0	8060	584319	0	0
2024-08-05 04:12:47			0	36983	0	0	0	28662	27280	167714	26923	1062593	45752	110650	0	0	8062	583116	0	0
2024-08-05 04:13:47			0	36993	0	0	0	28670	27260	167650	26667	1062512	45773	110653	0	0	8062	582780	0	0
2024-08-05 04:14:47			0	37025	0	0	0	28657	27260	167582	26934	1062503	45773	110648	0	0	8064	581493	0	0
2024-08-05 04:15:47			0	37030	0	0	0	28664	27260	167554	26951	1062566	45750	110651	0	0	8065	581292	0	0
2024-08-05 04:16:47			0	37065	0	0	0	28670	27270	167378	26759	1062548	45773	110653	0	0	8067	579852	0	0
2024-08-05 04:17:47			0	37091	0	0	0	28657	27270	167258	26802	1062548	45761	110648	0	0	8068	578810	0	0
2024-08-05 04:18:47			0	37117	0	0	0	28662	27270	167170	27052	1062575	45773	110650	0	0	8070	577768	0	0
2024-08-05 04:19:47			0	37150	0	0	0	28651	27270	166978	26837	1062521	45761	110646	0	0	8072	576448	0	0
2024-08-05 04:20:47			0	37192	0	0	0	28662	27270	166862	27038	1062494	45750	110650	0	0	8074	574770	0	0
2024-08-05 04:21:47			0	37225	0	0	0	28654	27260	166610	26904	1062450	45761	110647	0	0	8076	573488	0	0
2024-08-05 04:22:47			0	37242	0	0	0	28651	27270	166650	26743	1062548	45761	110646	0	0	8077	572778	0	0
2024-08-05 04:23:47			0	37259	0	0	0	28651	27250	166546	27010	1062494	45750	110646	0	0	8078	572167	0	0
2024-08-05 04:24:47			0	37280	0	0	0	28649	27250	166410	26972	1062494	45760	110645	0	0	8079	571332	0	0
2024-08-05 04:25:47			0	37284	0	0	0	28649	27260	166386	26802	1062503	45773	110645	0	0	8080	571141	0	0
2024-08-05 04:26:47			0	37298	0	0	0	28644	27250	166438	26927	1062351	45771	110643	0	0	8080	570617	0	0
2024-08-05 04:27:47			0	37281	0	0	0	28644	27250	166414	26986	1062414	45772	110643	0	0	8080	571293	0	0
2024-08-05 04:28:47			0	37292	0	0	0	28644	27250	166358	26817	1062414	45760	110643	0	0	8080	570856	0	0
2024-08-05 04:29:47			0	37275	0	0	0	28649	27250	166422	26611	1062441	45750	110645	0	0	8079	571531	0	0
2024-08-05 04:30:47			0	37273	0	0	0	28644	27260	166554	26899	1062423	45773	110643	0	0	8079	571578	0	0
2024-08-05 04:31:47			0	37252	0	0	0	28638	27250	166578	26665	1062468	45760	110641	0	0	8078	572446	0	0
2024-08-05 04:32:47			0	37247	0	0	0	28644	27250	166666	26994	1062459	45782	110643	0	0	8078	572645	0	0
2024-08-05 04:33:47			0	37213	0	0	0	28646	27250	166742	26842	1062459	45759	110644	0	0	8075	573999	0	0
2024-08-05 04:34:47			0	37217	0	0	0	28649	27250	166754	26967	1062485	45759	110645	0	0	8076	573840	0	0
2024-08-05 04:35:47			0	37201	0	0	0	28638	27240	166722	26819	1062423	45759	110641	0	0	8075	574511	0	0
2024-08-05 04:36:47			0	37209	0	0	0	28636	27250	166866	27098	1062432	45782	110640	0	0	8075	574159	0	0
2024-08-05 04:37:47			0	37205	0	0	0	28641	27250	166774	27001	1062378	45759	110642	0	0	8075	574318	0	0
2024-08-05 04:38:47			0	37214	0	0	0	28641	27250	166806	26753	1062432	45771	110642	0	0	8076	573959	0	0
2024-08-05 04:39:47			0	37192	0	0	0	28628	27240	166822	26679	1062396	45759	110637	0	0	8075	574869	0	0
2024-08-05 04:40:47			0	37219	0	0	0	28628	27240	166866	26653	1062441	45759	110637	0	0	8076	573793	0	0
2024-08-05 04:41:47			0	37208	0	0	0	28623	27240	166762	26927	1062342	45749	110635	0	0	8076	574231	0	0
2024-08-05 04:42:47			0	37206	0	0	0	28620	27240	166846	27008	1062387	45759	110634	0	0	8075	574311	0	0
2024-08-05 04:43:47			0	37212	0	0	0	28610	27230	166798	27067	1062324	45748	110630	0	0	8076	574105	0	0
2024-08-05 04:44:47			0	37198	0	0	0	28605	27230	166766	26897	1062324	45759	110628	0	0	8075	574663	0	0
2024-08-05 04:45:47			0	36818	0	0	0	28594	27230	168430	26856	1062270	45770	110624	0	0	8053	589957	0	0
2024-08-05 04:46:47			0	36295	0	0	0	28586	27220	170885	27012	1062279	45769	110621	0	0	8022	611491	0	0
2024-08-05 04:47:47			0	36045	0	0	0	28586	27210	172189	26986	1062235	45757	110621	0	0	8007	621994	0	0
2024-08-05 04:48:47			0	35842	0	0	0	28581	27210	172936	26781	1062244	45769	110619	0	0	7995	630586	0	0
2024-08-05 04:49:47			0	35722	0	0	0	28586	27220	173536	26896	1062306	45758	110621	0	0	7987	635669	0	0
2024-08-05 04:50:47			0	35594	0	0	0	28576	27210	174196	26628	1062181	45768	110617	0	0	7980	641198	0	0
2024-08-05 04:51:47			0	35518	0	0	0	28576	27200	174544	26852	1062199	45756	110617	0	0	7975	644513	0	0
2024-08-05 04:52:47			0	35452	0	0	0	28579	27200	174932	26902	1062163	45766	110618	0	0	7971	647370	0	0
2024-08-05 04:53:47			0	35381	0	0	0	28579	27200	175116	26854	1062217	45766	110618	0	0	7966	650453	0	0
2024-08-05 04:54:47			0	35350	0	0	0	28571	27190	175380	26847	1062118	45755	110615	0	0	7964	651840	0	0
2024-08-05 04:55:47			0	35334	0	0	0	28561	27200	175484	26835	1062136	45766	110611	0	0	7964	652500	0	0
2024-08-05 04:56:47			0	35297	0	0	0	28555	27190	175448	26750	1062154	45744	110609	0	0	7961	654152	0	0
2024-08-05 04:57:47			0	35262	0	0	0	28553	27190	175716	26798	1062100	45744	110608	0	0	7959	655683	0	0
2024-08-05 04:58:47			0	35237	0	0	0	28558	27170	175852	27069	1062038	45753	110610	0	0	7958	656853	0	0
2024-08-05 04:59:47			0	35207	0	0	0	28563	27170	176184	26679	1062038	45764	110612	0	0	7956	658168	0	0
2024-08-05 05:00:47			0	35181	0	0	0	28555	27180	176304	27031	1062100	45742	110609	0	0	7954	659272	0	0
2024-08-05 05:01:47			0	35166	0	0	0	28550	27180	176324	26809	1062136	45765	110607	0	0	7953	659932	0	0
2024-08-05 05:02:47			0	35133	0	0	0	28563	27170	176436	27007	1062082	45753	110612	0	0	7951	661422	0	0
2024-08-05 05:03:47			0	35148	0	0	0	28563	27170	176476	26606	1062091	45753	110612	0	0	7952	660762	0	0
2024-08-05 05:04:47			0	35168	0	0	0	28558	27170	176364	26615	1062064	45753	110610	0	0	7953	659882	0	0
2024-08-05 05:05:47			0	35166	0	0	0	28558	27180	176332	26531	1062100	45753	110610	0	0	7953	659932	0	0
2024-08-05 05:06:47			0	35171	0	0	0	28553	27160	176368	26824	1062047	45763	110608	0	0	7953	659788	0	0
2024-08-05 05:07:47			0	35178	0	0	0	28540	27170	176348	26941	1061984	45764	110603	0	0	7954	659442	0	0
2024-08-05 05:08:47			0	35153	0	0	0	28540	27160	176272	26913	1061966	45741	110603	0	0	7953	660579	0	0
2024-08-05 05:09:47			0	35124	0	0	0	28529	27160	176476	26531	1061957	45729	110599	0	0	7951	661856	0	0
2024-08-05 05:10:47			0	35071	0	0	0	28527	27150	176711	26838	1061966	45751	110598	0	0	7948	664233	0	0
2024-08-05 05:11:47			0	34970	0	0	0	28522	27150	177163	26930	1061948	45740	110596	0	0	7941	668708	0	0
2024-08-05 05:12:47			0	34898	0	0	0	28524	27140	177659	26809	1061930	45750	110597	0	0	7937	671950	0	0
2024-08-05 05:13:47			0	34820	0	0	0	28527	27150	177919	26736	1061885	45751	110598	0	0	7932	675394	0	0
2024-08-05 05:14:47			0	34744	0	0	0	28524	27150	178403	26637	1061885	45751	110597	0	0	7927	678801	0	0
2024-08-05 05:15:47			0	34712	0	0	0	28537	27150	178631	26812	1061921	45762	110602	0	0	7925	680240	0	0
2024-08-05 05:16:47			0	34692	0	0	0	28532	27140	178615	26928	1061957	45750	110600	0	0	7923	681179	0	0
2024-08-05 05:17:47			0	34710	0	0	0	28540	27140	178499	26665	1061957	45750	110603	0	0	7924	680369	0	0
2024-08-05 05:18:47			0	34716	0	0	0	28537	27140	178627	26750	1061930	45772	110602	0	0	7925	680099	0	0
2024-08-05 05:19:47			0	34715	0	0	0	28542	27140	178619	26663	1061903	45739	110604	0	0	7925	680144	0	0
2024-08-05 05:20:47			0	34676	0	0	0	28540	27140	178651	26955	1061921	45750	110603	0	0	7922	681900	0	0
2024-08-05 05:21:47			0	34679	0	0	0	28529	27150	178699	26939	1061939	45740	110599	0	0	7923	681726	0	0
2024-08-05 05:22:47			0	34666	0	0	0	28532	27140	178739	26576	1061903	45761	110600	0	0	7922	682351	0	0
2024-08-05 05:23:47			0	34636	0	0	0	28540	27140	178955	26824	1061957	45761	110603	0	0	7920	683705	0	0
2024-08-05 05:24:47			0	34628	0	0	0	28542	27140	179047	26807	1061948	45760	110604	0	0	7919	684066	0	0
2024-08-05 05:25:47			0	34596	0	0	0	28535	27150	179219	26873	1061966	45762	110601	0	0	7917	685474	0	0
2024-08-05 05:26:47			0	34569	0	0	0	28535	27140	179315	26946	1061867	45750	110601	0	0	7915	686736	0	0
2024-08-05 05:27:47			0	34564	0	0	0	28527	27140	179251	26802	1061957	45761	110598	0	0	7915	686963	0	0
2024-08-05 05:28:47			0	34564	0	0	0	28532	27140	179379	26632	1061903	45761	110600	0	0	7915	686963	0	0
2024-08-05 05:29:47			0	34552	0	0	0	28540	27140	179459	26585	1061930	45750	110603	0	0	7914	687507	0	0
2024-08-05 05:30:47			0	34533	0	0	0	28545	27140	179443	26927	1061948	45760	110605	0	0	7913	688369	0	0
2024-08-05 05:31:47			0	34555	0	0	0	28537	27150	179551	26786	1061966	45751	110602	0	0	7915	687331	0	0
2024-08-05 05:32:47			0	34560	0	0	0	28529	27130	179483	26667	1061912	45760	110599	0	0	7915	687183	0	0
2024-08-05 05:33:47			0	34574	0	0	0	28532	27140	179451	26906	1061975	45750	110600	0	0	7916	686509	0	0
2024-08-05 05:34:47			0	34577	0	0	0	28527	27140	179451	27027	1061840	45750	110598	0	0	7916	686374	0	0
2024-08-05 05:35:47			0	34560	0	0	0	28532	27130	179391	26932	1061939	45771	110600	0	0	7915	687183	0	0
2024-08-05 05:36:47			0	34574	0	0	0	28535	27130	179419	26632	1061912	45760	110601	0	0	7916	686549	0	0
2024-08-05 05:37:47			0	34568	0	0	0	28527	27140	179335	26949	1061894	45771	110598	0	0	7915	686781	0	0
2024-08-05 05:38:47			0	34564	0	0	0	28535	27140	179423	26875	1061894	45750	110601	0	0	7915	686963	0	0
2024-08-05 05:39:47			0	34584	0	0	0	28540	27130	179339	26831	1061912	45750	110603	0	0	7916	686096	0	0
2024-08-05 05:40:47			0	34589	0	0	0	28532	27140	179351	27000	1061930	45761	110600	0	0	7917	685830	0	0
2024-08-05 05:41:47			0	34599	0	0	0	28527	27130	179219	26687	1061876	45759	110598	0	0	7917	685417	0	0
2024-08-05 05:42:47			0	34614	0	0	0	28532	27120	179091	27090	1061867	45759	110600	0	0	7918	684778	0	0
2024-08-05 05:43:47			0	34643	0	0	0	28529	27130	178987	26696	1061912	45760	110599	0	0	7920	683428	0	0
2024-08-05 05:44:47			0	34658	0	0	0	28527	27130	178975	26967	1061876	45749	110598	0	0	7921	682751	0	0
2024-08-05 05:45:47			0	34696	0	0	0	28532	27140	178747	26857	1061867	45760	110600	0	0	7924	680999	0	0
2024-08-05 05:46:47			0	34740	0	0	0	28540	27130	178675	26816	1061849	45749	110603	0	0	7926	679059	0	0
2024-08-05 05:47:47			0	34741	0	0	0	28535	27140	178547	26791	1061903	45761	110601	0	0	7926	678975	0	0
2024-08-05 05:48:47			0	34778	0	0	0	28532	27140	178383	26972	1061867	45750	110600	0	0	7929	677314	0	0
2024-08-05 05:49:47			0	34841	0	0	0	28532	27120	178043	26670	1061921	45759	110600	0	0	7933	674571	0	0
2024-08-05 05:50:47			0	34881	0	0	0	28532	27130	177935	27050	1061885	45738	110600	0	0	7935	672746	0	0
2024-08-05 05:51:47			0	34919	0	0	0	28529	27120	177663	26795	1061840	45749	110599	0	0	7938	671091	0	0
2024-08-05 05:52:47			0	34962	0	0	0	28514	27130	177487	26620	1061858	45760	110593	0	0	7941	669140	0	0
2024-08-05 05:53:47			0	34976	0	0	0	28527	27130	177303	27147	1061849	45737	110598	0	0	7941	668518	0	0
2024-08-05 05:54:47			0	35000	0	0	0	28519	27130	177115	26972	1061822	45749	110595	0	0	7943	667453	0	0
2024-08-05 05:55:47			0	35035	0	0	0	28514	27120	177139	27010	1061858	45748	110593	0	0	7945	665940	0	0
2024-08-05 05:56:47			0	35035	0	0	0	28503	27120	176975	26830	1061840	45737	110589	0	0	7946	665940	0	0
2024-08-05 05:57:47			0	35047	0	0	0	28511	27120	176975	26894	1061840	45759	110592	0	0	7946	665409	0	0
2024-08-05 05:58:47			0	35060	0	0	0	28501	27110	177015	26677	1061787	45747	110588	0	0	7947	664872	0	0
2024-08-05 05:59:47			0	35086	0	0	0	28514	27120	176931	26712	1061778	45748	110593	0	0	7949	663685	0	0
2024-08-05 06:00:47			0	35078	0	0	0	28511	27120	176811	26826	1061804	45748	110592	0	0	7948	664038	0	0
2024-08-05 06:01:47			0	35108	0	0	0	28503	27120	176676	27015	1061804	45748	110589	0	0	7950	662714	0	0
2024-08-05 06:02:47			0	35112	0	0	0	28501	27110	176544	26880	1061822	45735	110588	0	0	7950	662576	0	0
2024-08-05 06:03:47			0	35151	0	0	0	28501	27110	176512	26817	1061840	45757	110588	0	0	7953	660857	0	0
2024-08-05 06:04:47			0	35161	0	0	0	28506	27110	176448	26840	1061787	45747	110590	0	0	7953	660417	0	0
2024-08-05 06:05:47			0	35184	0	0	0	28498	27110	176292	27199	1061822	45747	110587	0	0	7955	659406	0	0
2024-08-05 06:06:47			0	35200	0	0	0	28501	27120	176316	26769	1061778	45748	110588	0	0	7956	658665	0	0
2024-08-05 06:07:47			0	35219	0	0	0	28493	27110	176152	26876	1061742	45735	110585	0	0	7957	657868	0	0
2024-08-05 06:08:47			0	35226	0	0	0	28503	27110	176112	26800	1061769	45757	110589	0	0	7957	657561	0	0
2024-08-05 06:09:47			0	35227	0	0	0	28496	27110	176112	26833	1061813	45747	110586	0	0	7958	657518	0	0
2024-08-05 06:10:47			0	35250	0	0	0	28509	27100	176068	27086	1061724	45735	110591	0	0	7959	656547	0	0
2024-08-05 06:11:47			0	35249	0	0	0	28490	27100	175968	26852	1061796	45756	110584	0	0	7959	656591	0	0
2024-08-05 06:12:47			0	35259	0	0	0	28496	27110	175860	26897	1061769	45735	110586	0	0	7960	656115	0	0
2024-08-05 06:13:47			0	35281	0	0	0	28501	27100	175844	27017	1061724	45735	110588	0	0	7961	655190	0	0
2024-08-05 06:14:47			0	35278	0	0	0	28493	27100	175916	26876	1061751	45747	110585	0	0	7961	655321	0	0
2024-08-05 06:15:47			0	35273	0	0	0	28498	27110	175840	26797	1061813	45747	110587	0	0	7960	655502	0	0
2024-08-05 06:16:47			0	35261	0	0	0	28496	27110	175956	26637	1061769	45747	110586	0	0	7960	656028	0	0
2024-08-05 06:17:47			0	35215	0	0	0	28496	27100	176108	26854	1061697	45757	110586	0	0	7957	658082	0	0
2024-08-05 06:18:47			0	35178	0	0	0	28501	27100	176196	26896	1061831	45747	110588	0	0	7954	659707	0	0
2024-08-05 06:19:47			0	35160	0	0	0	28503	27110	176316	26875	1061796	45747	110589	0	0	7953	660461	0	0
2024-08-05 06:20:47			0	35161	0	0	0	28501	27100	176368	26757	1061769	45746	110588	0	0	7953	660455	0	0
2024-08-05 06:21:47			0	35172	0	0	0	28501	27090	176296	26689	1061814	45766	110588	0	0	7954	660009	0	0
2024-08-05 06:22:47			0	35195	0	0	0	28483	27100	176292	27015	1061778	45747	110581	0	0	7956	658960	0	0
2024-08-05 06:23:47			0	35189	0	0	0	28493	27110	176244	26831	1061760	45747	110585	0	0	7955	659186	0	0
2024-08-05 06:24:47			0	35199	0	0	0	28493	27100	176172	26765	1061778	45735	110585	0	0	7956	658784	0	0
2024-08-05 06:25:47			0	35207	0	0	0	28485	27100	176176	26793	1061724	45757	110582	0	0	7957	658433	0	0
2024-08-05 06:26:47			0	35205	0	0	0	28485	27110	176176	26797	1061706	45747	110582	0	0	7956	658483	0	0
2024-08-05 06:27:47			0	35209	0	0	0	28483	27100	176216	26946	1061751	45757	110581	0	0	7957	658345	0	0
2024-08-05 06:28:47			0	35183	0	0	0	28483	27100	176228	26857	1061697	45757	110581	0	0	7955	659487	0	0
2024-08-05 06:29:47			0	35173	0	0	0	28475	27090	176468	26868	1061652	45755	110578	0	0	7955	659965	0	0
2024-08-05 06:30:47			0	35181	0	0	0	28480	27100	176428	26724	1061715	45734	110580	0	0	7955	659575	0	0
2024-08-05 06:31:47			0	35181	0	0	0	28472	27090	176456	26993	1061679	45745	110577	0	0	7955	659613	0	0
2024-08-05 06:32:47			0	35191	0	0	0	28475	27080	176388	26951	1061625	45744	110578	0	0	7956	659211	0	0
2024-08-05 06:33:47			0	35199	0	0	0	28472	27080	176380	26601	1061608	45755	110577	0	0	7956	658860	0	0
2024-08-05 06:34:47			0	35162	0	0	0	28459	27080	176532	26523	1061679	45744	110572	0	0	7954	660487	0	0
2024-08-05 06:35:47			0	35152	0	0	0	28464	27090	176604	26800	1061616	45745	110574	0	0	7953	660889	0	0
2024-08-05 06:36:47			0	35135	0	0	0	28457	27080	176680	26930	1061652	45732	110571	0	0	7952	661676	0	0
2024-08-05 06:37:47			0	35150	0	0	0	28464	27080	176520	27180	1061599	45732	110574	0	0	7953	661015	0	0
2024-08-05 06:38:47			0	35128	0	0	0	28464	27080	176644	26882	1061652	45732	110574	0	0	7952	661984	0	0
2024-08-05 06:39:47			0	35134	0	0	0	28467	27070	176620	26623	1061616	45753	110575	0	0	7952	661758	0	0
2024-08-05 06:40:47			0	35114	0	0	0	28462	27070	176623	26642	1061563	45743	110573	0	0	7951	662640	0	0
2024-08-05 06:41:47			0	35096	0	0	0	28457	27080	176635	26974	1061679	45732	110571	0	0	7950	663396	0	0
2024-08-05 06:42:47			0	35106	0	0	0	28459	27080	176824	26680	1061581	45745	110572	0	0	7951	662954	0	0
2024-08-05 06:43:47			0	35121	0	0	0	28464	27080	176660	26547	1061625	45732	110574	0	0	7951	662293	0	0
2024-08-05 06:44:47			0	35123	0	0	0	28477	27080	176680	26835	1061599	45766	110579	0	0	7951	662205	0	0
2024-08-05 06:45:47			0	35137	0	0	0	28467	27070	176612	26868	1061616	45743	110575	0	0	7952	661625	0	0
2024-08-05 06:46:47			0	35182	0	0	0	28470	27080	176500	26509	1061652	45744	110576	0	0	7955	659607	0	0
2024-08-05 06:47:47			0	35162	0	0	0	28477	27080	176436	27057	1061634	45745	110579	0	0	7954	660487	0	0
2024-08-05 06:48:47			0	35194	0	0	0	28483	27080	176432	26708	1061661	45755	110581	0	0	7956	659080	0	0
2024-08-05 06:49:47			0	35206	0	0	0	28477	27090	176424	26757	1061697	45745	110579	0	0	7957	658515	0	0
2024-08-05 06:50:47			0	35214	0	0	0	28470	27080	176204	26844	1061572	45744	110576	0	0	7957	658201	0	0
2024-08-05 06:51:47			0	35231	0	0	0	28470	27080	176324	26816	1061715	45755	110576	0	0	7958	657455	0	0
2024-08-05 06:52:47			0	35223	0	0	0	28470	27070	176192	26729	1061563	45753	110576	0	0	7958	657844	0	0
2024-08-05 06:53:47			0	35245	0	0	0	28475	27080	176192	26772	1061652	45744	110578	0	0	7959	656842	0	0
2024-08-05 06:54:47			0	35236	0	0	0	28470	27080	176080	26642	1061706	45754	110576	0	0	7958	657236	0	0
2024-08-05 06:55:47			0	35250	0	0	0	28472	27070	176124	27100	1061643	45731	110577	0	0	7959	656660	0	0
2024-08-05 06:56:47			0	35249	0	0	0	28472	27070	176076	27050	1061643	45753	110577	0	0	7959	656704	0	0
2024-08-05 06:57:47			0	35243	0	0	0	28472	27070	176136	26979	1061643	45731	110577	0	0	7959	656967	0	0
2024-08-05 06:58:47			0	35261	0	0	0	28475	27080	176108	26967	1061599	45754	110578	0	0	7960	656141	0	0
2024-08-05 06:59:47			0	35261	0	0	0	28470	27080	176016	26889	1061661	45755	110576	0	0	7960	656141	0	0
2024-08-05 07:00:47			0	35258	0	0	0	28470	27070	176092	26880	1061643	45743	110576	0	0	7960	656310	0	0
2024-08-05 07:01:47			0	35268	0	0	0	28480	27080	175988	26949	1061599	45744	110580	0	0	7960	655834	0	0
2024-08-05 07:02:47			0	35276	0	0	0	28483	27080	175980	26753	1061608	45755	110581	0	0	7961	655484	0	0
2024-08-05 07:03:47			0	35282	0	0	0	28472	27090	175884	26798	1061643	45755	110577	0	0	7961	655184	0	0
2024-08-05 07:04:47			0	35285	0	0	0	28475	27080	175944	26589	1061652	45744	110578	0	0	7961	655090	0	0
2024-08-05 07:05:47			0	35281	0	0	0	28477	27080	175864	26974	1061679	45744	110579	0	0	7961	655265	0	0
2024-08-05 07:06:47			0	35288	0	0	0	28483	27090	175944	26963	1061643	45733	110581	0	0	7962	654922	0	0
2024-08-05 07:07:47			0	35289	0	0	0	28475	27080	175816	26911	1061625	45754	110578	0	0	7962	654915	0	0
2024-08-05 07:08:47			0	35287	0	0	0	28467	27080	175872	26779	1061634	45745	110575	0	0	7962	655003	0	0
2024-08-05 07:09:47			0	35304	0	0	0	28464	27080	175840	26360	1061625	45754	110574	0	0	7963	654260	0	0
2024-08-05 07:10:47			0	35303	0	0	0	28470	27070	175820	26741	1061563	45743	110576	0	0	7963	654341	0	0
2024-08-05 07:11:47			0	35283	0	0	0	28464	27070	175872	26896	1061634	45743	110574	0	0	7961	655215	0	0
2024-08-05 07:12:47			0	35301	0	0	0	28470	27080	175928	27256	1061625	45754	110576	0	0	7963	654391	0	0
2024-08-05 07:13:47			0	35319	0	0	0	28464	27070	175816	27003	1061563	45731	110574	0	0	7964	653642	0	0
2024-08-05 07:14:47			0	35306	0	0	0	28464	27080	175668	26902	1061625	45744	110574	0	0	7963	654172	0	0
2024-08-05 07:15:47			0	35319	0	0	0	28451	27070	175696	26975	1061616	45731	110569	0	0	7964	653642	0	0
2024-08-05 07:16:47			0	35335	0	0	0	28464	27070	175660	26906	1061608	45743	110574	0	0	7965	652943	0	0
2024-08-05 07:17:47			0	35334	0	0	0	28441	27060	175536	26745	1061572	45742	110565	0	0	7965	653025	0	0
2024-08-05 07:18:47			0	35341	0	0	0	28418	27070	175636	26968	1061500	45731	110556	0	0	7966	652682	0	0
2024-08-05 07:19:47			0	35314	0	0	0	28425	27060	175792	26778	1061536	45742	110559	0	0	7964	653898	0	0
2024-08-05 07:20:47			0	35241	0	0	0	28425	27050	176052	26899	1061473	45729	110559	0	0	7959	657130	0	0
2024-08-05 07:21:47			0	35176	0	0	0	28431	27060	176416	26746	1061401	45719	110561	0	0	7955	659947	0	0
2024-08-05 07:22:47			0	35160	0	0	0	28423	27060	176492	26696	1061509	45730	110558	0	0	7954	660651	0	0
2024-08-05 07:23:47			0	35148	0	0	0	28425	27050	176620	26876	1061491	45741	110559	0	0	7954	661217	0	0
2024-08-05 07:24:47			0	35133	0	0	0	28428	27050	176636	27305	1061464	45751	110560	0	0	7953	661878	0	0
2024-08-05 07:25:47			0	35169	0	0	0	28438	27040	176488	26691	1061428	45740	110564	0	0	7955	660330	0	0
2024-08-05 07:26:47			0	35227	0	0	0	28457	27050	176200	26755	1061437	45741	110571	0	0	7958	657744	0	0
2024-08-05 07:27:47			0	35274	0	0	0	28451	27050	176092	26844	1061527	45729	110569	0	0	7961	655685	0	0
2024-08-05 07:28:47			0	35274	0	0	0	28454	27050	175960	26705	1061491	45741	110570	0	0	7961	655685	0	0
2024-08-05 07:29:47			0	35289	0	0	0	28446	27050	175888	26857	1061527	45751	110567	0	0	7962	655028	0	0
2024-08-05 07:30:47			0	35308	0	0	0	28441	27050	175840	26755	1061500	45729	110565	0	0	7963	654197	0	0
2024-08-05 07:31:47			0	35311	0	0	0	28449	27040	175800	26708	1061428	45740	110568	0	0	7963	654104	0	0
2024-08-05 07:32:47			0	35327	0	0	0	28449	27040	175700	26736	1061482	45750	110568	0	0	7964	653405	0	0
2024-08-05 07:33:47			0	35343	0	0	0	28449	27050	175612	26706	1061572	45729	110568	0	0	7965	652669	0	0
2024-08-05 07:34:47			0	35362	0	0	0	28457	27060	175628	27005	1061509	45730	110571	0	0	7966	651804	0	0
2024-08-05 07:35:47			0	35351	0	0	0	28459	27050	175588	27178	1061554	45751	110572	0	0	7966	652320	0	0
2024-08-05 07:36:47			0	35320	0	0	0	28449	27050	175784	26989	1061527	45751	110568	0	0	7964	653673	0	0
2024-08-05 07:37:47			0	35286	0	0	0	28446	27040	175904	26750	1061482	45728	110567	0	0	7962	655197	0	0
2024-08-05 07:38:47			0	35275	0	0	0	28446	27050	175996	26693	1061500	45741	110567	0	0	7961	655641	0	0
2024-08-05 07:39:47			0	35261	0	0	0	28457	27050	175932	26660	1061527	45751	110571	0	0	7960	656254	0	0
2024-08-05 07:40:47			0	35276	0	0	0	28444	27060	175968	26679	1061482	45742	110566	0	0	7961	655559	0	0
2024-08-05 07:41:47			0	35298	0	0	0	28444	27050	175844	26854	1061527	45751	110566	0	0	7963	654634	0	0
2024-08-05 07:42:47			0	35338	0	0	0	28444	27050	175828	26653	1061491	45751	110566	0	0	7965	652887	0	0
2024-08-05 07:43:47			0	35334	0	0	0	28441	27060	175692	26791	1061536	45742	110565	0	0	7965	653025	0	0
2024-08-05 07:44:47			0	35321	0	0	0	28433	27050	175768	26776	1061527	45729	110562	0	0	7964	653630	0	0
2024-08-05 07:45:47			0	35335	0	0	0	28436	27060	175816	26807	1061518	45730	110563	0	0	7965	652981	0	0
2024-08-05 07:46:47			0	35322	0	0	0	28436	27050	175912	26713	1061446	45751	110563	0	0	7964	653586	0	0
2024-08-05 07:47:47			0	35335	0	0	0	28436	27060	175668	26897	1061563	45752	110563	0	0	7965	652981	0	0
2024-08-05 07:48:47			0	35322	0	0	0	28433	27060	175636	26729	1061482	45730	110562	0	0	7964	653549	0	0
2024-08-05 07:49:47			0	35335	0	0	0	28433	27040	175680	26712	1061428	45728	110562	0	0	7965	653056	0	0
2024-08-05 07:50:47			0	35351	0	0	0	28438	27050	175616	26785	1061464	45741	110564	0	0	7966	652320	0	0
2024-08-05 07:51:47			0	35373	0	0	0	28433	27040	175612	27092	1061482	45740	110562	0	0	7967	651399	0	0
2024-08-05 07:52:47			0	35386	0	0	0	28431	27040	175436	26731	1061365	45750	110561	0	0	7968	650833	0	0
2024-08-05 07:53:47			0	35413	0	0	0	28428	27040	175384	26889	1061446	45750	110560	0	0	7970	649658	0	0
2024-08-05 07:54:47			0	35390	0	0	0	28431	27040	175396	26913	1061482	45750	110561	0	0	7969	650659	0	0
2024-08-05 07:55:47			0	35392	0	0	0	28425	27040	175388	26823	1061482	45762	110559	0	0	7969	650572	0	0
2024-08-05 07:56:47			0	35392	0	0	0	28431	27050	175472	26889	1061393	45751	110561	0	0	7969	650534	0	0
2024-08-05 07:57:47			0	35397	0	0	0	28438	27040	175464	26771	1061446	45740	110564	0	0	7969	650354	0	0
2024-08-05 07:58:47			0	35380	0	0	0	28446	27050	175444	26750	1061518	45751	110567	0	0	7968	651057	0	0
2024-08-05 07:59:47			0	35390	0	0	0	28444	27050	175436	26739	1061527	45751	110566	0	0	7968	650622	0	0
2024-08-05 08:00:47			0	35392	0	0	0	28441	27040	175432	26909	1061536	45740	110565	0	0	7968	650572	0	0
2024-08-05 08:01:47			0	35415	0	0	0	28446	27040	175360	26745	1061536	45728	110567	0	0	7970	649571	0	0
2024-08-05 08:02:47			0	35417	0	0	0	28459	27040	175304	26790	1061536	45740	110572	0	0	7970	649484	0	0
2024-08-05 08:03:47			0	35416	0	0	0	28498	27050	175212	26715	1061581	45741	110587	0	0	7969	649491	0	0
2024-08-05 08:04:47			0	35430	0	0	0	28519	27060	175220	26793	1061590	45752	110595	0	0	7970	648845	0	0
2024-08-05 08:05:47			0	35468	0	0	0	28519	27070	175132	26852	1061661	45753	110595	0	0	7972	647159	0	0
2024-08-05 08:06:47			0	35468	0	0	0	28542	27070	175080	26970	1061688	45776	110604	0	0	7972	647159	0	0
2024-08-05 08:07:47			0	35516	0	0	0	28561	27080	174880	26445	1061760	45754	110611	0	0	7974	645044	0	0
2024-08-05 08:08:47			0	35548	0	0	0	28566	27080	174752	26845	1061742	45778	110613	0	0	7976	643661	0	0
2024-08-05 08:09:47			0	35575	0	0	0	28563	27090	174624	26668	1061867	45766	110612	0	0	7978	642459	0	0
2024-08-05 08:10:47			0	35587	0	0	0	28550	27100	174564	26644	1061903	45756	110607	0	0	7979	641905	0	0
2024-08-05 08:11:47			0	35571	0	0	0	28558	27100	174620	26731	1061885	45768	110610	0	0	7978	642595	0	0
2024-08-05 08:12:47			0	35527	0	0	0	28568	27110	174780	26748	1061921	45768	110614	0	0	7975	644457	0	0
2024-08-05 08:13:47			0	35506	0	0	0	28576	27110	174892	26752	1061984	45768	110617	0	0	7974	645365	0	0
2024-08-05 08:14:47			0	35481	0	0	0	28594	27110	174988	26663	1061948	45780	110624	0	0	7972	646447	0	0
2024-08-05 08:15:47			0	35464	0	0	0	28620	27130	175124	26776	1062100	45760	110634	0	0	7970	647110	0	0
2024-08-05 08:16:47			0	35442	0	0	0	28644	27140	175192	26661	1062199	45806	110643	0	0	7969	648026	0	0
2024-08-05 08:17:47			0	35409	0	0	0	28651	27150	175316	26811	1062190	45795	110646	0	0	7967	649422	0	0
2024-08-05 08:18:47			0	35386	0	0	0	28659	27160	175484	26661	1062279	45773	110649	0	0	7965	650385	0	0
2024-08-05 08:19:47			0	35363	0	0	0	28657	27170	175496	26712	1062306	45775	110648	0	0	7964	651349	0	0
2024-08-05 08:20:47			0	35371	0	0	0	28667	27180	175540	26790	1062315	45775	110652	0	0	7964	650963	0	0
2024-08-05 08:21:47			0	35343	0	0	0	28672	27190	175652	26644	1062360	45777	110654	0	0	7962	652145	0	0
2024-08-05 08:22:47			0	35327	0	0	0	28659	27200	175780	26887	1062432	45789	110649	0	0	7962	652805	0	0
2024-08-05 08:23:47			0	35321	0	0	0	28646	27200	175816	26833	1062441	45778	110644	0	0	7961	653067	0	0
2024-08-05 08:24:47			0	35298	0	0	0	28644	27200	175840	26708	1062405	45766	110643	0	0	7960	654071	0	0
2024-08-05 08:25:47			0	35292	0	0	0	28638	27200	175828	26824	1062387	45745	110641	0	0	7960	654333	0	0
2024-08-05 08:26:47			0	35278	0	0	0	28628	27210	175856	26906	1062369	45746	110637	0	0	7959	654908	0	0
2024-08-05 08:27:47			0	35251	0	0	0	28633	27210	176036	27046	1062369	45757	110639	0	0	7957	656089	0	0
2024-08-05 08:28:47			0	35254	0	0	0	28646	27210	176060	26935	1062477	45779	110644	0	0	7957	655958	0	0
2024-08-05 08:29:47			0	35240	0	0	0	28654	27200	176020	26694	1062414	45767	110647	0	0	7956	656608	0	0
2024-08-05 08:30:47			0	35248	0	0	0	28659	27230	176108	27043	1062423	45769	110649	0	0	7957	656145	0	0
2024-08-05 08:31:47			0	35238	0	0	0	28649	27230	176212	26776	1062477	45758	110645	0	0	7956	656583	0	0
2024-08-05 08:32:47			0	35236	0	0	0	28662	27230	176100	26759	1062450	45769	110650	0	0	7956	656670	0	0
2024-08-05 08:33:47			0	35216	0	0	0	28657	27220	176216	26675	1062521	45758	110648	0	0	7955	657585	0	0
2024-08-05 08:34:47			0	35224	0	0	0	28675	27240	176144	26779	1062494	45771	110655	0	0	7955	657159	0	0
2024-08-05 08:35:47			0	35213	0	0	0	28672	27240	176180	27189	1062557	45782	110654	0	0	7954	657641	0	0
2024-08-05 08:36:47			0	35217	0	0	0	28677	27230	176240	26642	1062512	45781	110656	0	0	7955	657503	0	0
2024-08-05 08:37:47			0	35218	0	0	0	28670	27240	176188	26760	1062476	45759	110653	0	0	7955	657422	0	0
2024-08-05 08:38:47			0	35191	0	0	0	28664	27250	176244	26920	1062548	45760	110651	0	0	7953	658568	0	0
2024-08-05 08:39:47			0	35193	0	0	0	28664	27250	176272	26968	1062593	45782	110651	0	0	7953	658481	0	0
2024-08-05 08:40:47			0	35193	0	0	0	28680	27250	176176	26715	1062593	45771	110657	0	0	7953	658481	0	0
2024-08-05 08:41:47			0	35189	0	0	0	28685	27240	176260	27017	1062638	45771	110659	0	0	7953	658694	0	0
2024-08-05 08:42:47			0	35169	0	0	0	28683	27260	176212	26622	1062638	45784	110658	0	0	7952	659497	0	0
2024-08-05 08:43:47			0	35193	0	0	0	28698	27270	176256	26875	1062683	45773	110664	0	0	7953	658405	0	0
2024-08-05 08:44:47			0	35195	0	0	0	28701	27260	176036	26854	1062727	45773	110665	0	0	7953	658355	0	0
2024-08-05 08:45:47			0	35232	0	0	0	28690	27280	175984	26759	1062736	45776	110661	0	0	7956	656657	0	0
2024-08-05 08:46:47			0	35221	0	0	0	28698	27270	175968	26672	1062745	45774	110664	0	0	7955	657177	0	0
2024-08-05 08:47:47			0	35231	0	0	0	28696	27270	176096	26641	1062692	45774	110663	0	0	7955	656739	0	0
2024-08-05 08:48:47			0	35198	0	0	0	28703	27270	176052	26920	1062709	45784	110666	0	0	7953	658185	0	0
2024-08-05 08:49:47			0	35191	0	0	0	28709	27280	176196	26944	1062754	45752	110668	0	0	7953	658455	0	0
2024-08-05 08:50:47			0	35200	0	0	0	28706	27270	176068	26644	1062718	45762	110667	0	0	7953	658098	0	0
2024-08-05 08:51:47			0	35218	0	0	0	28698	27280	175992	26904	1062754	45775	110664	0	0	7955	657271	0	0
2024-08-05 08:52:47			0	35246	0	0	0	28693	27280	175876	26760	1062683	45776	110662	0	0	7956	656044	0	0
2024-08-05 08:53:47			0	35253	0	0	0	28636	27280	175832	26897	1062620	45763	110640	0	0	7958	655738	0	0
2024-08-05 08:54:47			0	35247	0	0	0	28615	27260	175852	26811	1062620	45740	110632	0	0	7958	656076	0	0
2024-08-05 08:55:47			0	35206	0	0	0	28610	27260	176120	26693	1062476	45740	110630	0	0	7955	657872	0	0
2024-08-05 08:56:47			0	35128	0	0	0	28615	27250	176508	26870	1062459	45759	110632	0	0	7950	661338	0	0
2024-08-05 08:57:47			0	35097	0	0	0	28625	27240	176643	27064	1062441	45738	110636	0	0	7948	662743	0	0
2024-08-05 08:58:47			0	35070	0	0	0	28631	27240	176691	26866	1062503	45771	110638	0	0	7946	663934	0	0
2024-08-05 08:59:47			0	35086	0	0	0	28659	27240	176551	26791	1062530	45771	110649	0	0	7947	663228	0	0
2024-08-05 09:00:47			0	35112	0	0	0	28657	27250	176515	26909	1062620	45793	110648	0	0	7948	662043	0	0
2024-08-05 09:01:47			0	35171	0	0	0	28675	27250	176228	26812	1062566	45759	110655	0	0	7952	659447	0	0
2024-08-05 09:02:47			0	35222	0	0	0	28680	27260	176156	26717	1062611	45784	110657	0	0	7955	657171	0	0
2024-08-05 09:03:47			0	35252	0	0	0	28675	27250	175940	26797	1062629	45772	110655	0	0	7957	655895	0	0
2024-08-05 09:04:47			0	35281	0	0	0	28680	27260	175756	26736	1062611	45773	110657	0	0	7959	654589	0	0
2024-08-05 09:05:47			0	35288	0	0	0	28685	27260	175688	26804	1062665	45773	110659	0	0	7959	654283	0	0
2024-08-05 09:06:47			0	35273	0	0	0	28683	27260	175648	26894	1062647	45784	110658	0	0	7958	654938	0	0
2024-08-05 09:07:47			0	35233	0	0	0	28688	27270	175908	26812	1062656	45784	110660	0	0	7956	656651	0	0
2024-08-05 09:08:47			0	35245	0	0	0	28675	27260	175932	26531	1062692	45761	110655	0	0	7957	656163	0	0
2024-08-05 09:09:47			0	35247	0	0	0	28659	27260	175880	26743	1062665	45761	110649	0	0	7957	656076	0	0
2024-08-05 09:10:47			0	35223	0	0	0	28654	27260	176096	26934	1062584	45761	110647	0	0	7955	657127	0	0
2024-08-05 09:11:47			0	35223	0	0	0	28651	27260	176092	26739	1062584	45750	110646	0	0	7956	657127	0	0
2024-08-05 09:12:47			0	35236	0	0	0	28659	27250	175916	26653	1062548	45760	110649	0	0	7956	656595	0	0
2024-08-05 09:13:47			0	35198	0	0	0	28670	27260	176160	26993	1062665	45773	110653	0	0	7954	658223	0	0
2024-08-05 09:14:47			0	35153	0	0	0	28672	27250	176328	26974	1062575	45760	110654	0	0	7951	660238	0	0
2024-08-05 09:15:47			0	35114	0	0	0	28680	27260	176492	26663	1062727	45773	110657	0	0	7948	661917	0	0
2024-08-05 09:16:47			0	35070	0	0	0	28683	27260	176843	26750	1062584	45795	110658	0	0	7945	663858	0	0
2024-08-05 09:17:47			0	35059	0	0	0	28680	27260	176791	26935	1062665	45773	110657	0	0	7945	664344	0	0
2024-08-05 09:18:47			0	35072	0	0	0	28670	27270	176851	26944	1062602	45784	110653	0	0	7946	663732	0	0
2024-08-05 09:19:47			0	35067	0	0	0	28667	27260	176899	26672	1062665	45761	110652	0	0	7946	663991	0	0
2024-08-05 09:20:47			0	35054	0	0	0	28670	27260	176707	26922	1062620	45761	110653	0	0	7945	664565	0	0
2024-08-05 09:21:47			0	35043	0	0	0	28657	27270	176891	26842	1062629	45773	110648	0	0	7944	665013	0	0
2024-08-05 09:22:47			0	35047	0	0	0	28654	27260	176815	26526	1062647	45761	110647	0	0	7944	664874	0	0
2024-08-05 09:23:47			0	35055	0	0	0	28654	27270	176663	26828	1062548	45750	110647	0	0	7945	664483	0	0
2024-08-05 09:24:47			0	35045	0	0	0	28644	27260	176675	26807	1062584	45773	110643	0	0	7945	664963	0	0
2024-08-05 09:25:47			0	35045	0	0	0	28644	27260	176775	27074	1062620	45773	110643	0	0	7945	664963	0	0
2024-08-05 09:26:47			0	35059	0	0	0	28646	27260	176731	26689	1062566	45761	110644	0	0	7945	664344	0	0
2024-08-05 09:27:47			0	35102	0	0	0	28662	27250	176543	26694	1062602	45760	110650	0	0	7948	662484	0	0
2024-08-05 09:28:47			0	35104	0	0	0	28672	27260	176496	26918	1062611	45773	110654	0	0	7948	662358	0	0
2024-08-05 09:29:47			0	35099	0	0	0	28670	27250	176475	26616	1062602	45760	110653	0	0	7947	662616	0	0
2024-08-05 09:30:47			0	35096	0	0	0	28664	27270	176447	26904	1062629	45773	110651	0	0	7947	662673	0	0
2024-08-05 09:31:47			0	35094	0	0	0	28667	27260	176571	26781	1062638	45761	110652	0	0	7947	662799	0	0
2024-08-05 09:32:47			0	35091	0	0	0	28675	27260	176579	26984	1062665	45773	110655	0	0	7947	662931	0	0
2024-08-05 09:33:47			0	35078	0	0	0	28675	27270	176691	26783	1062656	45773	110655	0	0	7946	663467	0	0
2024-08-05 09:34:47			0	35070	0	0	0	28670	27260	176711	26708	1062781	45773	110653	0	0	7946	663858	0	0
2024-08-05 09:35:47			0	35095	0	0	0	28670	27270	176523	26904	1062736	45773	110653	0	0	7947	662717	0	0
2024-08-05 09:36:47			0	35104	0	0	0	28680	27260	176511	26686	1062674	45773	110657	0	0	7948	662358	0	0
2024-08-05 09:37:47			0	35075	0	0	0	28683	27270	176539	26961	1062718	45785	110658	0	0	7946	663599	0	0
2024-08-05 09:38:47			0	35104	0	0	0	28680	27270	176524	26847	1062709	45773	110657	0	0	7948	662320	0	0
2024-08-05 09:39:47			0	35141	0	0	0	28667	27270	176408	26675	1062692	45762	110652	0	0	7950	660690	0	0
2024-08-05 09:40:47			0	35130	0	0	0	28670	27270	176380	26986	1062745	45774	110653	0	0	7949	661174	0	0
2024-08-05 09:41:47			0	35132	0	0	0	28677	27270	176200	27022	1062718	45774	110656	0	0	7949	661086	0	0
2024-08-05 09:42:47			0	35116	0	0	0	28677	27270	176452	26484	1062736	45773	110656	0	0	7948	661791	0	0
2024-08-05 09:43:47			0	35093	0	0	0	28677	27270	176511	26991	1062692	45774	110656	0	0	7947	662805	0	0
2024-08-05 09:44:47			0	35106	0	0	0	28685	27270	176492	26672	1062718	45774	110659	0	0	7948	662232	0	0
2024-08-05 09:45:47			0	35114	0	0	0	28683	27280	176592	26583	1062736	45764	110658	0	0	7948	661841	0	0
2024-08-05 09:46:47			0	35107	0	0	0	28685	27270	176580	26774	1062745	45785	110659	0	0	7948	662188	0	0
2024-08-05 09:47:47			0	35108	0	0	0	28683	27280	176479	26625	1062781	45786	110658	0	0	7948	662105	0	0
2024-08-05 09:48:47			0	35130	0	0	0	28680	27280	176464	26703	1062727	45763	110657	0	0	7949	661136	0	0
2024-08-05 09:49:47			0	35124	0	0	0	28675	27270	176392	26913	1062772	45774	110655	0	0	7949	661439	0	0
2024-08-05 09:50:47			0	35125	0	0	0	28683	27270	176420	26795	1062718	45774	110658	0	0	7949	661395	0	0
2024-08-05 09:51:47			0	35144	0	0	0	28672	27280	176340	26583	1062674	45763	110654	0	0	7950	660520	0	0
2024-08-05 09:52:47			0	35163	0	0	0	28662	27270	176256	26828	1062665	45774	110650	0	0	7952	659723	0	0
2024-08-05 09:53:47			0	35152	0	0	0	28654	27270	176196	26729	1062718	45774	110647	0	0	7951	660206	0	0
2024-08-05 09:54:47			0	35140	0	0	0	28657	27270	176308	26961	1062692	45774	110648	0	0	7950	660734	0	0
2024-08-05 09:55:47			0	35132	0	0	0	28659	27270	176436	26731	1062656	45761	110649	0	0	7950	661086	0	0
2024-08-05 09:56:47			0	35131	0	0	0	28659	27280	176516	26842	1062700	45775	110649	0	0	7950	661092	0	0
2024-08-05 09:57:47			0	35103	0	0	0	28662	27280	176559	26486	1062700	45786	110650	0	0	7948	662326	0	0
2024-08-05 09:58:47			0	35123	0	0	0	28677	27270	176488	26873	1062745	45774	110656	0	0	7949	661483	0	0
2024-08-05 09:59:47			0	35132	0	0	0	28672	27260	176508	26726	1062718	45773	110654	0	0	7949	661124	0	0
2024-08-05 10:00:47			0	35152	0	0	0	28664	27270	176368	26680	1062745	45774	110651	0	0	7951	660206	0	0
2024-08-05 10:01:47			0	35131	0	0	0	28670	27270	176444	26727	1062709	45761	110653	0	0	7950	661130	0	0
2024-08-05 10:02:47			0	35132	0	0	0	28662	27270	176400	26790	1062745	45762	110650	0	0	7950	661086	0	0
2024-08-05 10:03:47			0	35125	0	0	0	28667	27260	176488	26575	1062727	45761	110652	0	0	7949	661433	0	0
2024-08-05 10:04:47			0	35114	0	0	0	28664	27270	176588	26955	1062665	45751	110651	0	0	7949	661879	0	0
2024-08-05 10:05:47			0	35093	0	0	0	28659	27270	176451	26802	1062656	45761	110649	0	0	7947	662805	0	0
2024-08-05 10:06:47			0	35114	0	0	0	28662	27270	176487	26944	1062656	45750	110650	0	0	7949	661879	0	0
2024-08-05 10:07:47			0	35108	0	0	0	28662	27270	176535	26968	1062692	45762	110650	0	0	7948	662143	0	0
2024-08-05 10:08:47			0	35116	0	0	0	28670	27270	176511	27000	1062709	45761	110653	0	0	7949	661791	0	0
2024-08-05 10:09:47			0	35117	0	0	0	28667	27270	176408	27244	1062665	45774	110652	0	0	7949	661747	0	0
2024-08-05 10:10:47			0	35149	0	0	0	28670	27270	176336	27133	1062745	45774	110653	0	0	7951	660338	0	0
2024-08-05 10:11:47			0	35141	0	0	0	28675	27280	176376	26946	1062754	45775	110655	0	0	7950	660652	0	0
2024-08-05 10:12:47			0	35151	0	0	0	28675	27280	176336	26922	1062727	45775	110655	0	0	7951	660212	0	0
2024-08-05 10:13:47			0	35166	0	0	0	28690	27280	176324	26809	1062754	45763	110661	0	0	7951	659553	0	0
2024-08-05 10:14:47			0	35183	0	0	0	28693	27270	176188	27097	1062799	45774	110662	0	0	7952	658844	0	0
2024-08-05 10:15:47			0	35201	0	0	0	28706	27280	176144	27015	1062817	45764	110667	0	0	7953	658016	0	0
2024-08-05 10:16:47			0	35197	0	0	0	28703	27280	176092	26866	1062754	45786	110666	0	0	7953	658192	0	0
2024-08-05 10:17:47			0	35240	0	0	0	28711	27290	175864	26719	1062880	45787	110669	0	0	7956	656269	0	0
2024-08-05 10:18:47			0	35243	0	0	0	28719	27290	175896	26710	1062880	45787	110672	0	0	7956	656138	0	0
2024-08-05 10:19:47			0	35274	0	0	0	28722	27290	175864	26727	1062943	45776	110673	0	0	7958	654782	0	0
2024-08-05 10:20:47			0	35280	0	0	0	28735	27290	175596	26908	1062889	45776	110678	0	0	7958	654519	0	0
2024-08-05 10:21:47			0	35320	0	0	0	28735	27300	175452	26694	1062871	45777	110678	0	0	7960	652736	0	0
2024-08-05 10:22:47			0	35353	0	0	0	28729	27300	175288	27052	1063015	45778	110676	0	0	7963	651298	0	0
2024-08-05 10:23:47			0	35344	0	0	0	28735	27300	175472	26771	1062907	45789	110678	0	0	7962	651690	0	0
2024-08-05 10:24:47			0	35347	0	0	0	28732	27310	175380	27017	1062943	45778	110677	0	0	7962	651522	0	0
2024-08-05 10:25:47			0	35349	0	0	0	28732	27310	175320	27109	1062979	45778	110677	0	0	7962	651435	0	0
2024-08-05 10:26:47			0	35337	0	0	0	28732	27310	175276	26987	1063005	45778	110677	0	0	7962	651957	0	0
2024-08-05 10:27:47			0	35344	0	0	0	28727	27320	175376	27036	1063023	45791	110675	0	0	7962	651615	0	0
2024-08-05 10:28:47			0	35359	0	0	0	28729	27330	175364	26791	1063032	45780	110676	0	0	7963	650924	0	0
2024-08-05 10:29:47			0	35333	0	0	0	28727	27310	175196	26944	1063059	45766	110675	0	0	7961	652131	0	0
2024-08-05 10:30:47			0	35334	0	0	0	28729	27330	175268	26909	1063059	45768	110676	0	0	7962	652013	0	0
2024-08-05 10:31:47			0	35342	0	0	0	28745	27320	175304	26934	1063041	45790	110682	0	0	7962	651702	0	0
2024-08-05 10:32:47			0	35337	0	0	0	28745	27330	175316	26583	1063122	45791	110682	0	0	7961	651882	0	0
2024-08-05 10:33:47			0	35368	0	0	0	28737	27330	175264	26885	1063122	45780	110679	0	0	7963	650533	0	0
2024-08-05 10:34:47			0	35355	0	0	0	28732	27330	175288	26653	1063068	45780	110677	0	0	7963	651099	0	0
2024-08-05 10:35:47			0	35361	0	0	0	28753	27340	175224	26819	1063140	45782	110685	0	0	7963	650800	0	0
2024-08-05 10:36:47			0	35364	0	0	0	28761	27340	175196	26720	1063140	45782	110688	0	0	7963	650670	0	0
2024-08-05 10:37:47			0	35381	0	0	0	28766	27340	175232	27005	1063194	45770	110690	0	0	7964	649930	0	0
2024-08-05 10:38:47			0	35381	0	0	0	28768	27350	175192	26615	1063149	45783	110691	0	0	7964	649893	0	0
2024-08-05 10:39:47			0	35394	0	0	0	28735	27350	175172	26819	1063203	45771	110678	0	0	7965	649328	0	0
2024-08-05 10:40:47			0	35393	0	0	0	28693	27350	175052	27197	1063176	45771	110662	0	0	7966	649371	0	0
2024-08-05 10:41:47			0	35382	0	0	0	28688	27340	175108	26930	1063059	45759	110660	0	0	7965	649887	0	0
2024-08-05 10:42:47			0	35385	0	0	0	28722	27340	175104	26852	1063059	45770	110673	0	0	7965	649756	0	0
2024-08-05 10:43:47			0	35385	0	0	0	28719	27340	175176	26880	1063059	45770	110672	0	0	7965	649756	0	0
2024-08-05 10:44:47			0	35395	0	0	0	28714	27340	175144	26824	1063032	45770	110670	0	0	7966	649322	0	0
2024-08-05 10:45:47			0	35386	0	0	0	28719	27340	175180	27112	1063023	45769	110672	0	0	7965	649713	0	0
2024-08-05 10:46:47			0	35384	0	0	0	28742	27340	175064	26630	1063140	45759	110681	0	0	7964	649800	0	0
2024-08-05 10:47:47			0	35398	0	0	0	28766	27340	175096	27048	1063086	45782	110690	0	0	7965	649192	0	0
2024-08-05 10:48:47			0	35406	0	0	0	28763	27350	175208	27024	1063122	45783	110689	0	0	7965	648807	0	0
2024-08-05 10:49:47			0	35437	0	0	0	28755	27350	175028	27237	1063212	45793	110686	0	0	7968	647462	0	0
2024-08-05 10:50:47			0	35431	0	0	0	28716	27340	175016	27164	1063113	45782	110671	0	0	7968	647759	0	0
2024-08-05 10:51:47			0	35448	0	0	0	28719	27350	174888	27001	1063050	45760	110672	0	0	7969	646985	0	0
2024-08-05 10:52:47			0	35436	0	0	0	28742	27350	174924	27118	1063122	45783	110681	0	0	7968	647505	0	0
2024-08-05 10:53:47			0	35445	0	0	0	28784	27350	174884	26726	1063131	45793	110697	0	0	7968	647115	0	0
2024-08-05 10:54:47			0	35463	0	0	0	28794	27360	174964	27175	1063274	45771	110701	0	0	7969	646299	0	0
2024-08-05 10:55:47			0	35470	0	0	0	28797	27360	174788	26930	1063229	45794	110702	0	0	7969	645996	0	0
2024-08-05 10:56:47			0	35496	0	0	0	28802	27370	174716	26994	1063292	45785	110704	0	0	7971	644834	0	0
2024-08-05 10:57:47			0	35491	0	0	0	28805	27360	174684	27107	1063337	45784	110705	0	0	7970	645087	0	0
2024-08-05 10:58:47			0	35492	0	0	0	28807	27370	174684	26939	1063355	45785	110706	0	0	7970	645007	0	0
2024-08-05 10:59:47			0	35522	0	0	0	28820	27380	174628	27161	1063454	45786	110711	0	0	7972	643674	0	0
2024-08-05 11:00:47			0	35508	0	0	0	28815	27390	174604	26979	1063436	45797	110709	0	0	7971	644242	0	0
2024-08-05 11:01:47			0	35530	0	0	0	28807	27380	174412	26909	1063427	45774	110706	0	0	7973	643329	0	0
2024-08-05 11:02:47			0	35539	0	0	0	28818	27400	174404	26979	1063462	45776	110710	0	0	7973	642867	0	0
2024-08-05 11:03:47			0	35558	0	0	0	28812	27400	174468	26864	1063462	45798	110708	0	0	7974	642048	0	0
2024-08-05 11:04:47			0	35567	0	0	0	28818	27390	174348	26812	1063418	45797	110710	0	0	7975	641697	0	0
2024-08-05 11:05:47			0	35580	0	0	0	28820	27400	174160	26868	1063436	45776	110711	0	0	7976	641101	0	0
2024-08-05 11:06:47			0	35579	0	0	0	28825	27410	174304	26935	1063481	45777	110713	0	0	7975	641107	0	0
2024-08-05 11:07:47			0	35547	0	0	0	28831	27410	174344	26925	1063525	45777	110715	0	0	7973	642485	0	0
2024-08-05 11:08:47			0	35516	0	0	0	28833	27410	174420	26654	1063525	45777	110716	0	0	7971	643822	0	0
2024-08-05 11:09:47			0	35505	0	0	0	28831	27420	174624	26734	1063490	45800	110715	0	0	7971	644260	0	0
2024-08-05 11:10:47			0	35498	0	0	0	28828	27420	174496	26790	1063516	45800	110714	0	0	7970	644562	0	0
2024-08-05 11:11:47			0	35506	0	0	0	28823	27420	174424	26672	1063543	45800	110712	0	0	7971	644217	0	0
2024-08-05 11:12:47			0	35491	0	0	0	28828	27410	174688	26949	1063588	45789	110714	0	0	7970	644902	0	0
2024-08-05 11:13:47			0	35503	0	0	0	28833	27420	174592	26583	1063543	45790	110716	0	0	7971	644347	0	0
2024-08-05 11:14:47			0	35500	0	0	0	28841	27420	174468	26759	1063570	45767	110719	0	0	7970	644476	0	0
2024-08-05 11:15:47			0	35489	0	0	0	28854	27430	174556	27111	1063588	45768	110724	0	0	7970	644914	0	0
2024-08-05 11:16:47			0	35492	0	0	0	28851	27430	174432	26802	1063651	45802	110723	0	0	7970	644785	0	0
2024-08-05 11:17:47			0	35501	0	0	0	28857	27430	174444	26953	1063669	45791	110725	0	0	7970	644396	0	0
2024-08-05 11:18:47			0	35509	0	0	0	28851	27430	174452	26757	1063624	45791	110723	0	0	7971	644051	0	0
2024-08-05 11:19:47			0	35525	0	0	0	28857	27440	174484	26516	1063696	45791	110725	0	0	7972	643323	0	0
2024-08-05 11:20:47			0	35531	0	0	0	28859	27430	174340	26814	1063615	45791	110726	0	0	7972	643101	0	0
2024-08-05 11:21:47			0	35533	0	0	0	28864	27450	174288	26642	1063597	45792	110728	0	0	7972	642941	0	0
2024-08-05 11:22:47			0	35539	0	0	0	28867	27440	174292	26571	1063696	45780	110729	0	0	7972	642719	0	0
2024-08-05 11:23:47			0	35541	0	0	0	28877	27440	174156	26668	1063660	45791	110733	0	0	7972	642633	0	0
2024-08-05 11:24:47			0	35556	0	0	0	28875	27450	174196	27013	1063714	45782	110732	0	0	7973	641950	0	0
2024-08-05 11:25:47			0	35554	0	0	0	28875	27460	174096	27020	1063750	45793	110732	0	0	7973	641999	0	0
2024-08-05 11:26:47			0	35555	0	0	0	28877	27450	174144	26623	1063741	45793	110733	0	0	7973	641993	0	0
2024-08-05 11:27:47			0	35574	0	0	0	28875	27460	173992	26739	1063812	45793	110732	0	0	7975	641138	0	0
2024-08-05 11:28:47			0	35569	0	0	0	28877	27470	174104	26831	1063767	45783	110733	0	0	7974	641316	0	0
2024-08-05 11:29:47			0	35568	0	0	0	28883	27460	174036	26972	1063776	45793	110735	0	0	7974	641396	0	0
2024-08-05 11:30:47			0	35567	0	0	0	28883	27470	174140	26601	1063830	45784	110735	0	0	7974	641402	0	0
2024-08-05 11:31:47			0	35563	0	0	0	28885	27470	174040	26687	1063857	45784	110736	0	0	7974	641575	0	0
2024-08-05 11:32:47			0	35566	0	0	0	28893	27460	174180	26769	1063812	45793	110739	0	0	7974	641482	0	0
2024-08-05 11:33:47			0	35584	0	0	0	28890	27470	174060	26972	1063821	45783	110738	0	0	7975	640671	0	0
2024-08-05 11:34:47			0	35577	0	0	0	28883	27480	174024	26710	1063812	45795	110735	0	0	7975	640935	0	0
2024-08-05 11:35:47			0	35580	0	0	0	28877	27470	174128	26932	1063803	45795	110733	0	0	7975	640843	0	0
2024-08-05 11:36:47			0	35570	0	0	0	28875	27470	173996	26948	1063776	45773	110732	0	0	7974	641273	0	0
2024-08-05 11:37:47			0	35589	0	0	0	28890	27480	174104	26752	1063866	45795	110738	0	0	7975	640419	0	0
2024-08-05 11:38:47			0	35569	0	0	0	28893	27480	174040	26861	1063875	45796	110739	0	0	7974	641279	0	0
2024-08-05 11:39:47			0	35578	0	0	0	28893	27470	174092	26857	1063803	45784	110739	0	0	7975	640929	0	0
2024-08-05 11:40:47			0	35567	0	0	0	28896	27480	174076	26620	1063866	45784	110740	0	0	7974	641365	0	0
2024-08-05 11:41:47			0	35563	0	0	0	28916	27480	174164	26845	1063902	45785	110748	0	0	7973	641538	0	0
2024-08-05 11:42:47			0	35564	0	0	0	28901	27480	174176	26467	1063947	45795	110742	0	0	7974	641495	0	0
2024-08-05 11:43:47			0	35568	0	0	0	28890	27490	174180	26849	1063920	45808	110738	0	0	7974	641286	0	0
2024-08-05 11:44:47			0	35568	0	0	0	28885	27490	174080	26778	1063920	45796	110736	0	0	7974	641286	0	0
2024-08-05 11:45:47			0	35567	0	0	0	28880	27490	174080	26897	1063884	45796	110734	0	0	7974	641329	0	0
2024-08-05 11:46:47			0	35585	0	0	0	28885	27480	174040	26632	1063902	45785	110736	0	0	7975	640591	0	0
2024-08-05 11:47:47			0	35574	0	0	0	28911	27490	174076	26613	1063884	45796	110746	0	0	7974	641027	0	0
2024-08-05 11:48:47			0	35574	0	0	0	28919	27490	174064	26700	1064001	45796	110749	0	0	7974	641027	0	0
2024-08-05 11:49:47			0	35586	0	0	0	28927	27490	174080	26760	1064027	45796	110752	0	0	7975	640511	0	0
2024-08-05 11:50:47			0	35589	0	0	0	28937	27500	174080	27114	1064009	45808	110756	0	0	7975	640345	0	0
2024-08-05 11:51:47			0	35605	0	0	0	28955	27510	174024	26743	1064081	45809	110763	0	0	7975	639621	0	0
2024-08-05 11:52:47			0	35634	0	0	0	28953	27520	173892	26755	1064099	45798	110762	0	0	7977	638340	0	0
2024-08-05 11:53:47			0	35627	0	0	0	28950	27520	173772	26814	1064153	45810	110761	0	0	7977	638640	0	0
2024-08-05 11:54:47			0	35640	0	0	0	28929	27530	173704	26844	1064108	45799	110753	0	0	7978	638046	0	0
2024-08-05 11:55:47			0	35652	0	0	0	28940	27530	173740	26889	1064108	45789	110757	0	0	7979	637531	0	0
2024-08-05 11:56:47			0	35661	0	0	0	28948	27540	173664	26774	1064126	45812	110760	0	0	7979	637109	0	0
2024-08-05 11:57:47			0	35675	0	0	0	28961	27530	173504	26889	1064144	45812	110765	0	0	7980	636546	0	0
2024-08-05 11:58:47			0	35728	0	0	0	28961	27540	173408	26745	1064234	45812	110765	0	0	7983	634244	0	0
2024-08-05 11:59:47			0	35724	0	0	0	28940	27540	173332	26998	1064189	45791	110757	0	0	7983	634415	0	0
2024-08-05 12:00:47			0	35740	0	0	0	28942	27540	173340	26592	1064162	45813	110758	0	0	7984	633732	0	0
2024-08-05 12:01:47			0	35743	0	0	0	28953	27540	173272	26564	1064243	45780	110762	0	0	7984	633604	0	0
2024-08-05 12:02:47			0	35740	0	0	0	28958	27550	173260	26712	1064225	45813	110764	0	0	7984	633696	0	0
2024-08-05 12:03:47			0	35725	0	0	0	28948	27550	173360	26684	1064198	45801	110760	0	0	7983	634336	0	0
2024-08-05 12:04:47			0	35730	0	0	0	28940	27550	173404	26611	1064171	45780	110757	0	0	7983	634122	0	0
2024-08-05 12:05:47			0	35733	0	0	0	28927	27550	173396	26634	1064234	45791	110752	0	0	7984	633994	0	0
2024-08-05 12:06:47			0	35737	0	0	0	28922	27550	173304	26611	1064153	45791	110750	0	0	7984	633824	0	0
2024-08-05 12:07:47			0	35737	0	0	0	28914	27540	173364	26804	1064126	45790	110747	0	0	7984	633860	0	0
2024-08-05 12:08:47			0	35697	0	0	0	28919	27550	173248	26736	1064126	45781	110749	0	0	7982	635532	0	0
2024-08-05 12:09:47			0	35719	0	0	0	28940	27540	173368	26765	1064162	45791	110757	0	0	7983	634629	0	0
2024-08-05 12:10:47			0	35719	0	0	0	28961	27550	173328	27059	1064198	45791	110765	0	0	7982	634592	0	0
2024-08-05 12:11:47			0	35701	0	0	0	28963	27540	173440	26795	1064234	45823	110766	0	0	7981	635398	0	0
2024-08-05 12:12:47			0	35723	0	0	0	28976	27550	173412	26786	1064288	45802	110771	0	0	7982	634421	0	0
2024-08-05 12:13:47			0	35732	0	0	0	28973	27560	173312	26606	1064324	45802	110770	0	0	7983	634001	0	0
2024-08-05 12:14:47			0	35729	0	0	0	28986	27560	173332	26601	1064324	45791	110775	0	0	7983	634129	0	0
2024-08-05 12:15:47			0	35745	0	0	0	29015	27570	173244	26387	1064395	45803	110786	0	0	7983	633410	0	0
2024-08-05 12:16:47			0	35764	0	0	0	29025	27570	173156	26972	1064368	45826	110790	0	0	7984	632600	0	0
2024-08-05 12:17:47			0	35766	0	0	0	29010	27570	173076	26648	1064431	45827	110784	0	0	7985	632514	0	0
2024-08-05 12:18:47			0	35774	0	0	0	29041	27580	173004	26916	1064413	45816	110796	0	0	7985	632137	0	0
2024-08-05 12:19:47			0	35768	0	0	0	29031	27590	173100	27114	1064539	45805	110792	0	0	7984	632356	0	0
2024-08-05 12:20:47			0	35771	0	0	0	29051	27600	173012	26977	1064557	45819	110800	0	0	7984	632192	0	0
2024-08-05 12:21:47			0	35781	0	0	0	29046	27610	173016	26823	1064601	45807	110798	0	0	7985	631730	0	0
2024-08-05 12:22:47			0	35785	0	0	0	29067	27610	172920	27168	1064583	45820	110806	0	0	7985	631560	0	0
2024-08-05 12:23:47			0	35793	0	0	0	29064	27620	172880	26790	1064727	45798	110805	0	0	7986	631183	0	0
2024-08-05 12:24:47			0	35814	0	0	0	29083	27620	172840	26816	1064700	45809	110812	0	0	7987	630291	0	0
2024-08-05 12:25:47			0	35833	0	0	0	29075	27630	172808	26738	1064700	45810	110809	0	0	7988	629447	0	0
2024-08-05 12:26:47			0	35813	0	0	0	29080	27640	172752	26927	1064736	45823	110811	0	0	7987	630261	0	0
2024-08-05 12:27:47			0	35833	0	0	0	29062	27650	172880	26675	1064817	45801	110804	0	0	7988	629375	0	0
2024-08-05 12:28:47			0	35831	0	0	0	29070	27650	172836	26627	1064763	45801	110807	0	0	7988	629460	0	0
2024-08-05 12:29:47			0	35817	0	0	0	29062	27640	172744	27097	1064799	45800	110804	0	0	7987	630090	0	0
2024-08-05 12:30:47			0	35824	0	0	0	29072	27660	172820	26582	1064772	45813	110808	0	0	7988	629721	0	0
2024-08-05 12:31:47			0	35816	0	0	0	29064	27650	172860	26896	1064781	45824	110805	0	0	7987	630097	0	0
2024-08-05 12:32:47			0	35806	0	0	0	29077	27660	172664	26738	1064835	45803	110810	0	0	7986	630485	0	0
2024-08-05 12:33:47			0	35788	0	0	0	29070	27670	172836	27147	1064907	45803	110807	0	0	7985	631214	0	0
2024-08-05 12:34:47			0	35814	0	0	0	29057	27660	172812	26616	1064808	45803	110802	0	0	7987	630145	0	0
2024-08-05 12:35:47			0	35813	0	0	0	29064	27670	172720	26812	1064844	45814	110805	0	0	7987	630152	0	0
2024-08-05 12:36:47			0	35819	0	0	0	29080	27650	172636	26960	1064817	45812	110811	0	0	7987	629969	0	0
2024-08-05 12:37:47			0	35827	0	0	0	29075	27670	172760	26783	1064880	45803	110809	0	0	7988	629557	0	0
2024-08-05 12:38:47			0	35853	0	0	0	29044	27680	172528	26909	1064943	45792	110797	0	0	7990	628418	0	0
2024-08-05 12:39:47			0	35830	0	0	0	29064	27670	172736	26734	1064871	45803	110805	0	0	7988	629430	0	0
2024-08-05 12:40:47			0	35811	0	0	0	29054	27670	172728	26649	1064907	45814	110801	0	0	7987	630237	0	0
2024-08-05 12:41:47			0	35817	0	0	0	29049	27660	172700	26670	1064808	45803	110799	0	0	7987	630018	0	0
2024-08-05 12:42:47			0	35795	0	0	0	29083	27670	172664	26694	1064844	45814	110812	0	0	7986	630917	0	0
2024-08-05 12:43:47			0	35824	0	0	0	29088	27680	172760	26731	1064943	45815	110814	0	0	7987	629648	0	0
2024-08-05 12:44:47			0	35845	0	0	0	29059	27670	172560	27015	1064907	45814	110803	0	0	7989	628793	0	0
2024-08-05 12:45:47			0	35854	0	0	0	29051	27670	172548	26797	1064844	45814	110800	0	0	7990	628412	0	0
2024-08-05 12:46:47			0	35836	0	0	0	29064	27670	172620	26856	1064871	45814	110805	0	0	7988	629175	0	0
2024-08-05 12:47:47			0	35835	0	0	0	29072	27660	172620	27052	1064835	45814	110808	0	0	7988	629254	0	0
2024-08-05 12:48:47			0	35855	0	0	0	29072	27670	172600	26918	1064799	45803	110808	0	0	7989	628369	0	0
2024-08-05 12:49:47			0	35852	0	0	0	29088	27680	172544	26665	1064862	45804	110814	0	0	7989	628460	0	0
2024-08-05 12:50:47			0	35868	0	0	0	29085	27680	172445	26863	1064943	45804	110813	0	0	7990	627782	0	0
2024-08-05 12:51:47			0	35872	0	0	0	29041	27680	172529	26941	1064916	45815	110796	0	0	7991	627613	0	0
2024-08-05 12:52:47			0	35843	0	0	0	29051	27660	172588	26946	1064835	45814	110800	0	0	7989	628914	0	0
2024-08-05 12:53:47			0	35844	0	0	0	29064	27670	172728	26790	1064844	45814	110805	0	0	7989	628836	0	0
2024-08-05 12:54:47			0	35823	0	0	0	29064	27670	172892	27060	1064853	45826	110805	0	0	7988	629727	0	0
2024-08-05 12:55:47			0	35831	0	0	0	29093	27680	172760	27293	1064943	45804	110816	0	0	7988	629351	0	0
2024-08-05 12:56:47			0	35846	0	0	0	29132	27690	172680	26908	1065015	45828	110831	0	0	7988	628678	0	0
2024-08-05 12:57:47			0	35889	0	0	0	29142	27690	172413	26840	1065131	45828	110835	0	0	7990	626857	0	0
2024-08-05 12:58:47			0	35930	0	0	0	29127	27700	172253	26830	1065140	45829	110829	0	0	7993	625087	0	0
2024-08-05 12:59:47			0	35936	0	0	0	29093	27700	172201	27159	1065068	45807	110816	0	0	7994	624834	0	0
2024-08-05 13:00:47			0	35917	0	0	0	29093	27700	172361	26677	1065113	45806	110816	0	0	7993	625637	0	0
2024-08-05 13:01:47			0	35896	0	0	0	29137	27710	172421	26998	1065212	45818	110833	0	0	7991	626488	0	0
2024-08-05 13:02:47			0	35908	0	0	0	29148	27720	172317	27022	1065284	45819	110837	0	0	7992	625945	0	0
2024-08-05 13:03:47			0	35918	0	0	0	29129	27720	172257	27019	1065257	45831	110830	0	0	7993	625522	0	0
2024-08-05 13:04:47			0	35940	0	0	0	29129	27720	172261	26700	1065176	45796	110830	0	0	7994	624593	0	0
2024-08-05 13:05:47			0	35931	0	0	0	29135	27730	172237	26970	1065221	45821	110832	0	0	7993	624937	0	0
2024-08-05 13:06:47			0	35963	0	0	0	29124	27720	172169	26861	1065203	45831	110828	0	0	7995	623623	0	0
2024-08-05 13:07:47			0	35952	0	0	0	29124	27720	172169	27104	1065203	45819	110828	0	0	7995	624087	0	0
2024-08-05 13:08:47			0	35943	0	0	0	29119	27730	171989	27286	1065221	45798	110826	0	0	7994	624430	0	0
2024-08-05 13:09:47			0	35967	0	0	0	29114	27730	172037	26842	1065176	45821	110824	0	0	7996	623418	0	0
2024-08-05 13:10:47			0	35943	0	0	0	29106	27730	172113	26991	1065149	45810	110821	0	0	7995	624430	0	0
2024-08-05 13:11:47			0	35920	0	0	0	29122	27730	172137	27067	1065140	45810	110827	0	0	7993	625402	0	0
2024-08-05 13:12:47			0	35934	0	0	0	29140	27710	172249	27059	1065167	45808	110834	0	0	7993	624883	0	0
2024-08-05 13:13:47			0	35930	0	0	0	29137	27730	172193	26802	1065230	45821	110833	0	0	7993	624979	0	0
2024-08-05 13:14:47			0	35942	0	0	0	29140	27710	172153	26876	1065167	45819	110834	0	0	7994	624545	0	0
2024-08-05 13:15:47			0	35942	0	0	0	29142	27720	172161	27086	1065293	45797	110835	0	0	7994	624509	0	0
2024-08-05 13:16:47			0	35962	0	0	0	29163	27740	172085	26863	1065293	45821	110843	0	0	7995	623593	0	0
2024-08-05 13:17:47			0	35926	0	0	0	29168	27740	172125	27017	1065373	45833	110845	0	0	7992	625112	0	0
2024-08-05 13:18:47			0	35961	0	0	0	29145	27740	172045	26790	1065328	45833	110836	0	0	7995	623635	0	0
2024-08-05 13:19:47			0	35957	0	0	0	29153	27750	172153	26800	1065319	45823	110839	0	0	7995	623768	0	0
2024-08-05 13:20:47			0	35940	0	0	0	29129	27750	172161	26778	1065400	45812	110830	0	0	7994	624485	0	0
2024-08-05 13:21:47			0	35912	0	0	0	29150	27750	172133	26791	1065427	45823	110838	0	0	7992	625668	0	0
2024-08-05 13:22:47			0	35942	0	0	0	29148	27750	172225	26826	1065391	45812	110837	0	0	7994	624401	0	0
2024-08-05 13:23:47			0	35933	0	0	0	29158	27760	172233	27055	1065364	45824	110841	0	0	7993	624745	0	0
2024-08-05 13:24:47			0	35935	0	0	0	29145	27760	172217	26901	1065391	45813	110836	0	0	7994	624660	0	0
2024-08-05 13:25:47			0	35929	0	0	0	29148	27770	172261	26918	1065400	45814	110837	0	0	7993	624877	0	0
2024-08-05 13:26:47			0	35932	0	0	0	29153	27770	172109	26653	1065400	45814	110839	0	0	7993	624751	0	0
2024-08-05 13:27:47			0	35935	0	0	0	29171	27760	172177	26717	1065337	45801	110846	0	0	7993	624660	0	0
2024-08-05 13:28:47			0	35937	0	0	0	29181	27770	172213	26974	1065427	45814	110850	0	0	7993	624540	0	0
2024-08-05 13:29:47			0	35952	0	0	0	29194	27770	172049	26904	1065544	45814	110855	0	0	7994	623907	0	0
2024-08-05 13:30:47			0	36013	0	0	0	29259	27770	171829	26835	1065625	45835	110880	0	0	7996	621338	0	0
2024-08-05 13:31:47			0	36086	0	0	0	29272	27790	171441	26703	1065679	45849	110885	0	0	8001	618203	0	0
2024-08-05 13:32:47			0	36144	0	0	0	29223	27790	171153	26622	1065715	45850	110866	0	0	8005	615776	0	0
2024-08-05 13:33:47			0	36182	0	0	0	29181	27810	170841	26889	1065652	45828	110850	0	0	8008	614119	0	0
2024-08-05 13:34:47			0	36189	0	0	0	29186	27810	170997	26764	1065652	45817	110852	0	0	8008	613827	0	0
2024-08-05 13:35:47			0	36140	0	0	0	29197	27790	171129	26830	1065634	45817	110856	0	0	8005	615943	0	0
2024-08-05 13:36:47			0	36130	0	0	0	29220	27800	171277	27062	1065643	45828	110865	0	0	8004	616326	0	0
2024-08-05 13:37:47			0	36114	0	0	0	29236	27820	171177	27074	1065723	45819	110871	0	0	8003	616924	0	0
2024-08-05 13:38:47			0	36138	0	0	0	29262	27810	171221	26930	1065652	45828	110881	0	0	8004	615956	0	0
2024-08-05 13:39:47			0	36185	0	0	0	29275	27830	171041	27249	1065804	45841	110886	0	0	8007	613923	0	0
2024-08-05 13:40:47			0	36193	0	0	0	29267	27840	170841	26729	1065903	45842	110883	0	0	8007	613554	0	0
2024-08-05 13:41:47			0	36207	0	0	0	29267	27830	170797	26994	1065831	45841	110883	0	0	8008	613006	0	0
2024-08-05 13:42:47			0	36213	0	0	0	29290	27850	170809	27308	1065966	45842	110892	0	0	8008	612686	0	0
2024-08-05 13:43:47			0	36229	0	0	0	29311	27860	170613	27313	1066064	45844	110900	0	0	8009	611985	0	0
2024-08-05 13:44:47			0	36262	0	0	0	29327	27880	170473	27171	1066073	45858	110906	0	0	8011	610543	0	0
2024-08-05 13:45:47			0	36278	0	0	0	29332	27880	170549	27093	1066154	45835	110908	0	0	8012	609879	0	0
2024-08-05 13:46:47			0	36294	0	0	0	29332	27900	170209	26849	1066244	45848	110908	0	0	8013	609145	0	0
2024-08-05 13:47:47			0	36318	0	0	0	29322	27890	170277	27041	1066154	45836	110904	0	0	8014	608186	0	0
2024-08-05 13:48:47			0	36330	0	0	0	29324	27910	170201	27074	1066271	45849	110905	0	0	8015	607619	0	0
2024-08-05 13:49:47			0	36322	0	0	0	29324	27900	170393	27026	1066280	45838	110905	0	0	8015	607985	0	0
2024-08-05 13:50:47			0	36346	0	0	0	29332	27910	170129	27031	1066316	45838	110908	0	0	8016	606957	0	0
2024-08-05 13:51:47			0	36357	0	0	0	29332	27920	170017	27003	1066334	45850	110908	0	0	8017	606467	0	0
2024-08-05 13:52:47			0	36372	0	0	0	29366	27920	170025	26939	1066370	45829	110921	0	0	8017	605847	0	0
2024-08-05 13:53:47			0	36422	0	0	0	29368	27930	169749	26830	1066379	45852	110922	0	0	8020	603750	0	0
2024-08-05 13:54:47			0	36440	0	0	0	29371	27930	169573	27284	1066415	45841	110923	0	0	8021	603009	0	0
2024-08-05 13:55:47			0	36468	0	0	0	29384	27940	169597	27060	1066486	45853	110928	0	0	8022	601822	0	0
2024-08-05 13:56:47			0	36478	0	0	0	29394	27950	169597	26809	1066558	45854	110932	0	0	8023	601376	0	0
2024-08-05 13:57:47			0	36481	0	0	0	29410	27950	169453	27128	1066522	45843	110938	0	0	8023	601253	0	0
2024-08-05 13:58:47			0	36499	0	0	0	29444	27970	169393	26961	1066693	45845	110951	0	0	8023	600445	0	0
2024-08-05 13:59:47			0	36545	0	0	0	29446	27980	169137	26660	1066693	45869	110952	0	0	8026	598524	0	0
2024-08-05 14:00:47			0	36615	0	0	0	29451	27990	169054	26842	1066818	45847	110954	0	0	8030	595628	0	0
2024-08-05 14:01:47			0	36647	0	0	0	29418	27990	168778	26949	1066783	45858	110941	0	0	8033	594323	0	0
2024-08-05 14:02:47			0	36644	0	0	0	29397	28000	168786	26844	1066783	45836	110933	0	0	8033	594411	0	0
2024-08-05 14:03:47			0	36593	0	0	0	29392	28000	168910	26838	1066720	45859	110931	0	0	8030	596492	0	0
2024-08-05 14:04:47			0	36529	0	0	0	29397	28000	169225	26755	1066675	45848	110933	0	0	8026	599111	0	0
2024-08-05 14:05:47			0	36495	0	0	0	29402	28010	169413	26762	1066684	45860	110935	0	0	8024	600471	0	0
2024-08-05 14:06:47			0	36449	0	0	0	29420	28010	169485	27159	1066747	45828	110942	0	0	8021	602360	0	0
2024-08-05 14:07:47			0	36456	0	0	0	29428	28010	169541	26871	1066792	45837	110945	0	0	8021	602072	0	0
2024-08-05 14:08:47			0	36461	0	0	0	29446	28010	169593	26771	1066854	45861	110952	0	0	8021	601867	0	0
2024-08-05 14:09:47			0	36454	0	0	0	29446	28020	169441	26942	1066872	45850	110952	0	0	8021	602120	0	0
2024-08-05 14:10:47			0	36469	0	0	0	29451	28020	169425	27050	1066872	45850	110954	0	0	8022	601503	0	0
2024-08-05 14:11:47			0	36470	0	0	0	29511	28020	169457	26670	1066863	45850	110977	0	0	8021	601462	0	0
2024-08-05 14:12:47			0	36496	0	0	0	29503	28040	169385	26956	1067034	45863	110974	0	0	8023	600326	0	0
2024-08-05 14:13:47			0	36558	0	0	0	29485	28050	168985	26826	1067025	45853	110967	0	0	8027	597751	0	0
2024-08-05 14:14:47			0	36602	0	0	0	29480	28050	168902	26975	1066998	45853	110965	0	0	8029	595953	0	0
2024-08-05 14:15:47			0	36585	0	0	0	29475	28050	168885	26804	1067007	45842	110963	0	0	8028	596647	0	0
2024-08-05 14:16:47			0	36565	0	0	0	29475	28050	168997	26955	1067007	45842	110963	0	0	8027	597465	0	0
2024-08-05 14:17:47			0	36562	0	0	0	29477	28060	169033	26974	1067070	45842	110964	0	0	8027	597553	0	0
2024-08-05 14:18:47			0	36548	0	0	0	29490	28060	169129	26809	1067052	45855	110969	0	0	8026	598125	0	0
2024-08-05 14:19:47			0	36527	0	0	0	29496	28060	169137	26892	1067016	45854	110971	0	0	8025	598985	0	0
2024-08-05 14:20:47			0	36526	0	0	0	29498	28070	169341	26535	1067097	45844	110972	0	0	8025	598992	0	0
2024-08-05 14:21:47			0	36527	0	0	0	29503	28080	169189	27144	1067079	45867	110974	0	0	8025	598916	0	0
2024-08-05 14:22:47			0	36524	0	0	0	29514	28080	169201	26627	1067160	45867	110978	0	0	8024	599039	0	0
2024-08-05 14:23:47			0	36516	0	0	0	29501	28090	169209	26651	1067205	45857	110973	0	0	8024	599332	0	0
2024-08-05 14:24:47			0	36502	0	0	0	29522	28090	169285	26689	1067205	45857	110981	0	0	8023	599906	0	0
2024-08-05 14:25:47			0	36505	0	0	0	29597	28110	169193	26863	1067312	45859	111010	0	0	8022	599714	0	0
2024-08-05 14:26:47			0	36612	0	0	0	29573	28110	168822	26871	1067366	45870	111001	0	0	8029	595338	0	0
2024-08-05 14:27:47			0	36614	0	0	0	29589	28120	168842	26705	1067474	45861	111007	0	0	8028	595223	0	0
2024-08-05 14:28:47			0	36624	0	0	0	29566	28130	168714	26866	1067483	45872	110998	0	0	8030	594780	0	0
2024-08-05 14:29:47			0	36629	0	0	0	29540	28140	168574	27013	1067393	45862	110988	0	0	8030	594542	0	0
2024-08-05 14:30:47			0	36644	0	0	0	29540	28130	168594	26819	1067330	45850	110988	0	0	8031	593966	0	0
2024-08-05 14:31:47			0	36652	0	0	0	29535	28130	168586	26649	1067411	45839	110986	0	0	8032	593640	0	0
2024-08-05 14:32:47			0	36613	0	0	0	29522	28130	168638	26913	1067384	45850	110981	0	0	8030	595229	0	0
2024-08-05 14:33:47			0	36620	0	0	0	29519	28130	168698	26989	1067357	45862	110980	0	0	8030	594944	0	0
2024-08-05 14:34:47			0	36570	0	0	0	29519	28130	168901	27059	1067303	45850	110980	0	0	8027	596984	0	0
2024-08-05 14:35:47			0	36547	0	0	0	29532	28130	169017	26854	1067321	45849	110985	0	0	8026	597925	0	0
2024-08-05 14:36:47			0	36526	0	0	0	29555	28130	169037	27064	1067357	45862	110994	0	0	8024	598784	0	0
2024-08-05 14:37:47			0	36538	0	0	0	29542	28130	169137	26870	1067384	45850	110989	0	0	8025	598293	0	0
2024-08-05 14:38:47			0	36522	0	0	0	29548	28130	169241	26774	1067411	45862	110991	0	0	8024	598948	0	0
2024-08-05 14:39:47			0	36521	0	0	0	29553	28130	169093	26648	1067429	45861	110993	0	0	8024	598989	0	0
2024-08-05 14:40:47			0	36531	0	0	0	29555	28140	169229	26819	1067447	45862	110994	0	0	8024	598545	0	0
2024-08-05 14:41:47			0	36511	0	0	0	29548	28140	169173	26649	1067447	45850	110991	0	0	8023	599364	0	0
2024-08-05 14:42:47			0	36499	0	0	0	29550	28140	169189	26915	1067483	45863	110992	0	0	8022	599856	0	0
2024-08-05 14:43:47			0	36506	0	0	0	29540	28160	169173	26830	1067483	45864	110988	0	0	8023	599500	0	0
2024-08-05 14:44:47			0	36499	0	0	0	29537	28160	169125	26885	1067510	45852	110987	0	0	8023	599787	0	0
2024-08-05 14:45:47			0	36483	0	0	0	29540	28150	169265	26861	1067465	45851	110988	0	0	8022	600478	0	0
2024-08-05 14:46:47			0	36479	0	0	0	29535	28150	169321	26757	1067474	45852	110986	0	0	8022	600642	0	0
2024-08-05 14:47:47			0	36460	0	0	0	29550	28150	169221	26864	1067501	45852	110992	0	0	8020	601422	0	0
2024-08-05 14:48:47			0	36468	0	0	0	29545	28150	169341	26564	1067474	45841	110990	0	0	8021	601093	0	0
2024-08-05 14:49:47			0	36458	0	0	0	29545	28150	169389	26918	1067492	45863	110990	0	0	8020	601504	0	0
2024-08-05 14:50:47			0	36452	0	0	0	29532	28150	169365	26856	1067465	45851	110985	0	0	8020	601751	0	0
2024-08-05 14:51:47			0	36412	0	0	0	29498	28150	169625	27024	1067411	45851	110972	0	0	8018	603396	0	0
2024-08-05 14:52:47			0	36359	0	0	0	29451	28150	169665	27078	1067366	45852	110954	0	0	8016	605580	0	0
2024-08-05 14:53:47			0	36343	0	0	0	29477	28140	169797	26866	1067294	45840	110964	0	0	8014	606276	0	0
2024-08-05 14:54:47			0	36322	0	0	0	29509	28130	169897	26689	1067330	45839	110976	0	0	8013	607179	0	0
2024-08-05 14:55:47			0	36319	0	0	0	29527	28130	169921	26890	1067357	45850	110983	0	0	8012	607303	0	0
2024-08-05 14:56:47			0	36328	0	0	0	29522	28140	169861	26767	1067429	45851	110981	0	0	8013	606896	0	0
2024-08-05 14:57:47			0	36342	0	0	0	29522	28140	169809	26734	1067429	45851	110981	0	0	8014	606317	0	0
2024-08-05 14:58:47			0	36379	0	0	0	29524	28140	169689	26786	1067393	45862	110982	0	0	8016	604790	0	0
2024-08-05 14:59:47			0	36410	0	0	0	29545	28140	169629	26774	1067420	45850	110990	0	0	8017	603513	0	0
2024-08-05 15:00:47			0	36398	0	0	0	29553	28150	169553	26852	1067501	45875	110993	0	0	8016	603972	0	0
2024-08-05 15:01:47			0	36419	0	0	0	29581	28160	169633	26887	1067546	45853	111004	0	0	8017	603073	0	0
2024-08-05 15:02:47			0	36421	0	0	0	29573	28160	169617	26875	1067546	45865	111001	0	0	8017	602990	0	0
2024-08-05 15:03:47			0	36422	0	0	0	29579	28170	169549	26750	1067582	45865	111003	0	0	8018	602914	0	0
2024-08-05 15:04:47			0	36400	0	0	0	29566	28170	169621	27071	1067582	45842	110998	0	0	8016	603820	0	0
2024-08-05 15:05:47			0	36386	0	0	0	29579	28160	169641	27161	1067573	45853	111003	0	0	8015	604432	0	0
2024-08-05 15:06:47			0	36392	0	0	0	29581	28170	169721	26863	1067582	45853	111004	0	0	8016	604150	0	0
2024-08-05 15:07:47			0	36405	0	0	0	29584	28180	169465	26909	1067663	45877	111005	0	0	8016	603579	0	0
2024-08-05 15:08:47			0	36418	0	0	0	29581	28180	169609	26831	1067609	45866	111004	0	0	8017	603044	0	0
2024-08-05 15:09:47			0	36414	0	0	0	29553	28180	169657	26646	1067636	45855	110993	0	0	8018	603209	0	0
2024-08-05 15:10:47			0	36389	0	0	0	29537	28180	169685	26989	1067519	45855	110987	0	0	8016	604238	0	0
2024-08-05 15:11:47			0	36382	0	0	0	29553	28180	169805	26961	1067627	45877	110993	0	0	8016	604527	0	0
2024-08-05 15:12:47			0	36384	0	0	0	29584	28170	169813	26793	1067591	45854	111005	0	0	8015	604479	0	0
2024-08-05 15:13:47			0	36386	0	0	0	29586	28180	169697	27090	1067681	45866	111006	0	0	8015	604362	0	0
2024-08-05 15:14:47			0	36395	0	0	0	29592	28190	169617	27012	1067645	45877	111008	0	0	8016	603956	0	0
2024-08-05 15:15:47			0	36387	0	0	0	29581	28190	169801	27149	1067735	45867	111004	0	0	8015	604286	0	0
2024-08-05 15:16:47			0	36390	0	0	0	29599	28190	169761	27204	1067699	45866	111011	0	0	8015	604162	0	0
2024-08-05 15:17:47			0	36390	0	0	0	29576	28190	169725	26870	1067672	45866	111002	0	0	8016	604162	0	0
2024-08-05 15:18:47			0	36388	0	0	0	29584	28190	169641	26575	1067708	45878	111005	0	0	8015	604245	0	0
2024-08-05 15:19:47			0	36380	0	0	0	29586	28190	169641	26776	1067735	45867	111006	0	0	8015	604574	0	0
2024-08-05 15:20:47			0	36379	0	0	0	29568	28190	169657	26705	1067681	45856	110999	0	0	8015	604615	0	0
2024-08-05 15:21:47			0	36379	0	0	0	29553	28190	169773	26823	1067681	45845	110993	0	0	8015	604615	0	0
2024-08-05 15:22:47			0	36371	0	0	0	29550	28190	169705	26785	1067600	45845	110992	0	0	8015	604946	0	0
2024-08-05 15:23:47			0	36379	0	0	0	29542	28190	169801	26776	1067654	45845	110989	0	0	8016	604615	0	0
2024-08-05 15:24:47			0	36368	0	0	0	29573	28190	169749	26883	1067645	45844	111001	0	0	8014	605069	0	0
2024-08-05 15:25:47			0	36387	0	0	0	29589	28200	169645	26745	1067690	45857	111007	0	0	8015	604251	0	0
2024-08-05 15:26:47			0	36394	0	0	0	29597	28190	169653	26755	1067780	45866	111010	0	0	8016	603997	0	0
2024-08-05 15:27:47			0	36405	0	0	0	29612	28210	169585	26665	1067789	45869	111016	0	0	8016	603475	0	0
2024-08-05 15:28:47			0	36413	0	0	0	29631	28220	169461	26968	1067860	45881	111023	0	0	8016	603111	0	0
2024-08-05 15:29:47			0	36433	0	0	0	29649	28230	169489	26665	1067878	45871	111030	0	0	8017	602253	0	0
2024-08-05 15:30:47			0	36438	0	0	0	29654	28220	169401	26793	1067923	45870	111032	0	0	8017	602083	0	0
2024-08-05 15:31:47			0	36466	0	0	0	29641	28230	169313	26819	1067968	45860	111027	0	0	8019	600898	0	0
2024-08-05 15:32:47			0	36483	0	0	0	29618	28240	169245	26887	1067977	45861	111018	0	0	8021	600166	0	0
2024-08-05 15:33:47			0	36472	0	0	0	29625	28240	169345	26944	1067977	45861	111021	0	0	8020	600617	0	0
2024-08-05 15:34:47			0	36449	0	0	0	29641	28240	169261	26982	1067923	45872	111027	0	0	8018	601561	0	0
2024-08-05 15:35:47			0	36476	0	0	0	29649	28240	169405	27041	1067977	45850	111030	0	0	8020	600453	0	0
2024-08-05 15:36:47			0	36470	0	0	0	29644	28230	169313	26941	1067941	45860	111028	0	0	8020	600734	0	0
2024-08-05 15:37:47			0	36464	0	0	0	29628	28240	169309	27124	1067959	45873	111022	0	0	8020	600945	0	0
2024-08-05 15:38:47			0	36468	0	0	0	29599	28230	169205	26915	1067941	45860	111011	0	0	8020	600816	0	0
2024-08-05 15:39:47			0	36453	0	0	0	29594	28240	169381	26765	1067896	45861	111009	0	0	8019	601397	0	0
2024-08-05 15:40:47			0	36432	0	0	0	29594	28240	169489	26889	1067869	45850	111009	0	0	8018	602260	0	0
2024-08-05 15:41:47			0	36429	0	0	0	29594	28240	169585	26882	1067896	45850	111009	0	0	8018	602383	0	0
2024-08-05 15:42:47			0	36427	0	0	0	29615	28230	169561	27078	1067914	45849	111017	0	0	8017	602500	0	0
2024-08-05 15:43:47			0	36443	0	0	0	29607	28230	169489	26812	1067914	45860	111014	0	0	8019	601842	0	0
2024-08-05 15:44:47			0	36431	0	0	0	29605	28240	169589	26920	1067923	45883	111013	0	0	8018	602301	0	0
2024-08-05 15:45:47			0	36437	0	0	0	29623	28240	169525	27007	1067896	45872	111020	0	0	8018	602054	0	0
2024-08-05 15:46:47			0	36443	0	0	0	29628	28240	169369	26717	1067959	45862	111022	0	0	8018	601808	0	0
2024-08-05 15:47:47			0	36461	0	0	0	29623	28240	169381	26738	1068013	45862	111020	0	0	8019	601068	0	0
2024-08-05 15:48:47			0	36452	0	0	0	29615	28240	169417	27001	1067932	45851	111017	0	0	8019	601438	0	0
2024-08-05 15:49:47			0	36451	0	0	0	29636	28240	169369	26717	1067959	45851	111025	0	0	8019	601479	0	0
2024-08-05 15:50:47			0	36464	0	0	0	29646	28250	169309	27048	1067977	45862	111029	0	0	8019	600910	0	0
2024-08-05 15:51:47			0	36474	0	0	0	29659	28250	169369	26854	1068085	45884	111034	0	0	8020	600500	0	0
2024-08-05 15:52:47			0	36475	0	0	0	29657	28260	169249	26911	1068067	45874	111033	0	0	8020	600425	0	0
2024-08-05 15:53:47			0	36495	0	0	0	29670	28250	169193	26828	1068058	45873	111038	0	0	8021	599639	0	0
2024-08-05 15:54:47			0	36494	0	0	0	29672	28270	169177	26739	1068148	45886	111039	0	0	8021	599611	0	0
2024-08-05 15:55:47			0	36518	0	0	0	29677	28270	169077	26883	1068139	45886	111041	0	0	8022	598628	0	0
2024-08-05 15:56:47			0	36516	0	0	0	29685	28270	169081	27234	1068148	45875	111044	0	0	8022	598710	0	0
2024-08-05 15:57:47			0	36506	0	0	0	29680	28270	169121	26904	1068175	45853	111042	0	0	8021	599119	0	0
2024-08-05 15:58:47			0	36504	0	0	0	29675	28280	169165	26653	1068193	45855	111040	0	0	8021	599166	0	0
2024-08-05 15:59:47			0	36483	0	0	0	29690	28280	169149	26854	1068193	45866	111046	0	0	8020	600027	0	0
2024-08-05 16:00:47			0	36498	0	0	0	29709	28270	169205	26972	1068229	45875	111053	0	0	8020	599447	0	0
2024-08-05 16:01:47			0	36495	0	0	0	29711	28280	169313	26852	1068247	45888	111054	0	0	8020	599535	0	0
2024-08-05 16:02:47			0	36513	0	0	0	29711	28300	169193	26816	1068247	45877	111054	0	0	8021	598729	0	0
2024-08-05 16:03:47			0	36509	0	0	0	29711	28300	169105	26868	1068247	45867	111054	0	0	8021	598893	0	0
2024-08-05 16:04:47			0	36502	0	0	0	29706	28310	169157	26876	1068409	45879	111052	0	0	8021	599145	0	0
2024-08-05 16:05:47			0	36493	0	0	0	29683	28320	169201	26951	1068337	45879	111043	0	0	8021	599479	0	0
2024-08-05 16:06:47			0	36471	0	0	0	29685	28310	169353	26826	1068301	45879	111044	0	0	8019	600415	0	0
2024-08-05 16:07:47			0	36469	0	0	0	29709	28320	169349	26793	1068418	45879	111053	0	0	8019	600462	0	0
2024-08-05 16:08:47			0	36470	0	0	0	29683	28320	169321	26944	1068337	45858	111043	0	0	8019	600421	0	0
2024-08-05 16:09:47			0	36431	0	0	0	29690	28320	169365	26774	1068283	45858	111046	0	0	8017	602022	0	0
2024-08-05 16:10:47			0	36421	0	0	0	29685	28320	169581	27083	1068319	45858	111044	0	0	8016	602433	0	0
2024-08-05 16:11:47			0	36389	0	0	0	29729	28310	169681	27138	1068382	45869	111061	0	0	8014	603785	0	0
2024-08-05 16:12:47			0	36420	0	0	0	29706	28320	169509	27093	1068400	45880	111052	0	0	8016	602475	0	0
2024-08-05 16:13:47			0	36374	0	0	0	29706	28320	169581	26875	1068400	45880	111052	0	0	8013	604368	0	0
2024-08-05 16:14:47			0	36352	0	0	0	29709	28320	169913	27138	1068373	45870	111053	0	0	8012	605274	0	0
2024-08-05 16:15:47			0	36294	0	0	0	29706	28330	170037	27017	1068355	45881	111052	0	0	8009	607635	0	0
2024-08-05 16:16:47			0	36289	0	0	0	29703	28320	170081	26987	1068346	45880	111051	0	0	8008	607877	0	0
2024-08-05 16:17:47			0	36274	0	0	0	29698	28320	170213	26800	1068346	45870	111049	0	0	8007	608498	0	0
2024-08-05 16:18:47			0	36278	0	0	0	29690	28320	170093	26811	1068310	45869	111046	0	0	8008	608332	0	0
2024-08-05 16:19:47			0	36287	0	0	0	29698	28320	170069	26864	1068292	45870	111049	0	0	8008	607960	0	0
2024-08-05 16:20:47			0	36291	0	0	0	29693	28320	169981	26833	1068310	45891	111047	0	0	8009	607794	0	0
2024-08-05 16:21:47			0	36310	0	0	0	29690	28320	169905	26731	1068310	45869	111046	0	0	8010	607008	0	0
2024-08-05 16:22:47			0	36312	0	0	0	29688	28320	169869	26733	1068337	45869	111045	0	0	8010	606926	0	0
2024-08-05 16:23:47			0	36320	0	0	0	29690	28320	169881	26694	1068310	45869	111046	0	0	8010	606595	0	0
2024-08-05 16:24:47			0	36327	0	0	0	29693	28330	169853	26864	1068382	45871	111047	0	0	8011	606271	0	0
2024-08-05 16:25:47			0	36341	0	0	0	29698	28320	169793	26674	1068346	45870	111049	0	0	8011	605728	0	0
2024-08-05 16:26:47			0	36344	0	0	0	29690	28310	169729	26885	1068292	45858	111046	0	0	8012	605639	0	0
2024-08-05 16:27:47			0	36340	0	0	0	29690	28320	169785	26970	1068319	45858	111046	0	0	8011	605770	0	0
2024-08-05 16:28:47			0	36368	0	0	0	29688	28320	169717	26866	1068373	45870	111045	0	0	8013	604615	0	0
2024-08-05 16:29:47			0	36385	0	0	0	29690	28300	169605	26913	1068310	45868	111046	0	0	8014	603984	0	0
2024-08-05 16:30:47			0	36381	0	0	0	29696	28310	169689	27060	1068301	45858	111048	0	0	8014	604114	0	0
2024-08-05 16:31:47			0	36392	0	0	0	29693	28310	169533	26701	1068292	45869	111047	0	0	8014	603661	0	0
2024-08-05 16:32:47			0	36406	0	0	0	29693	28300	169597	26934	1068310	45868	111047	0	0	8015	603120	0	0
2024-08-05 16:33:47			0	36420	0	0	0	29696	28300	169429	26844	1068256	45845	111048	0	0	8016	602544	0	0
2024-08-05 16:34:47			0	36453	0	0	0	29698	28300	169281	26923	1068274	45877	111049	0	0	8018	601188	0	0
2024-08-05 16:35:47			0	36448	0	0	0	29714	28300	169177	26875	1068283	45868	111055	0	0	8017	601394	0	0
2024-08-05 16:36:47			0	36446	0	0	0	29709	28310	169161	26717	1068355	45879	111053	0	0	8017	601441	0	0
2024-08-05 16:37:47			0	36468	0	0	0	29698	28320	169181	26670	1068391	45891	111049	0	0	8019	600503	0	0
2024-08-05 16:38:47			0	36477	0	0	0	29701	28310	169057	26883	1068319	45869	111050	0	0	8019	600169	0	0
2024-08-05 16:39:47			0	36468	0	0	0	29701	28310	169225	26902	1068346	45879	111050	0	0	8019	600538	0	0
2024-08-05 16:40:47			0	36477	0	0	0	29690	28310	169109	26961	1068355	45879	111046	0	0	8020	600169	0	0
2024-08-05 16:41:47			0	36470	0	0	0	29698	28310	169217	26972	1068328	45858	111049	0	0	8019	600456	0	0
2024-08-05 16:42:47			0	36464	0	0	0	29703	28320	169189	26994	1068319	45870	111051	0	0	8019	600668	0	0
2024-08-05 16:43:47			0	36468	0	0	0	29714	28320	169185	26844	1068445	45869	111055	0	0	8019	600503	0	0
2024-08-05 16:44:47			0	36485	0	0	0	29709	28320	169053	26981	1068391	45891	111053	0	0	8020	599806	0	0
2024-08-05 16:45:47			0	36511	0	0	0	29711	28320	169037	26859	1068445	45869	111054	0	0	8021	598741	0	0
2024-08-05 16:46:47			0	36511	0	0	0	29696	28320	168985	26720	1068364	45869	111048	0	0	8022	598741	0	0
2024-08-05 16:47:47			0	36494	0	0	0	29690	28310	169013	26882	1068301	45858	111046	0	0	8021	599472	0	0
2024-08-05 16:48:47			0	36477	0	0	0	29662	28320	169149	26878	1068337	45858	111035	0	0	8020	600134	0	0
2024-08-05 16:49:47			0	36450	0	0	0	29680	28320	169241	26793	1068310	45869	111042	0	0	8018	601242	0	0
2024-08-05 16:50:47			0	36456	0	0	0	29703	28310	169233	26840	1068328	45869	111051	0	0	8018	601030	0	0
2024-08-05 16:51:47			0	36471	0	0	0	29701	28320	169165	27098	1068337	45869	111050	0	0	8019	600380	0	0
2024-08-05 16:52:47			0	36463	0	0	0	29680	28310	169165	27039	1068355	45879	111042	0	0	8019	600743	0	0
2024-08-05 16:53:47			0	36462	0	0	0	29638	28310	169113	26805	1068355	45869	111026	0	0	8020	600784	0	0
2024-08-05 16:54:47			0	36450	0	0	0	29657	28320	169233	26769	1068337	45869	111033	0	0	8019	601242	0	0
2024-08-05 16:55:47			0	36417	0	0	0	29662	28310	169341	26850	1068328	45879	111035	0	0	8016	602633	0	0
2024-08-05 16:56:47			0	36432	0	0	0	29662	28310	169433	27093	1068301	45879	111035	0	0	8017	602016	0	0
2024-08-05 16:57:47			0	36398	0	0	0	29688	28310	169485	26951	1068328	45879	111045	0	0	8015	603414	0	0
2024-08-05 16:58:47			0	36412	0	0	0	29644	28310	169505	27050	1068346	45858	111028	0	0	8017	602838	0	0
2024-08-05 16:59:47			0	36404	0	0	0	29612	28320	169545	27175	1068256	45858	111016	0	0	8017	603133	0	0
2024-08-05 17:00:47			0	36369	0	0	0	29558	28300	169613	26811	1068202	45845	110995	0	0	8015	604644	0	0
2024-08-05 17:01:47			0	36333	0	0	0	29568	28300	169769	26722	1068086	45856	110999	0	0	8013	606129	0	0
2024-08-05 17:02:47			0	36365	0	0	0	29615	28280	169633	27199	1068077	45842	111017	0	0	8014	604878	0	0
2024-08-05 17:03:47			0	36362	0	0	0	29542	28280	169721	27218	1068077	45854	110989	0	0	8015	605002	0	0
2024-08-05 17:04:47			0	36312	0	0	0	29571	28270	169873	26738	1068031	45853	111000	0	0	8012	607101	0	0
2024-08-05 17:05:47			0	36296	0	0	0	29573	28260	170001	27145	1067968	45864	111001	0	0	8011	607798	0	0
2024-08-05 17:06:47			0	36323	0	0	0	29568	28260	169897	26889	1067941	45831	110999	0	0	8012	606682	0	0
2024-08-05 17:07:47			0	36331	0	0	0	29579	28250	169821	26689	1067968	45851	111003	0	0	8012	606386	0	0
2024-08-05 17:08:47			0	36335	0	0	0	29561	28240	169837	26870	1067905	45851	110996	0	0	8013	606256	0	0
2024-08-05 17:09:47			0	36314	0	0	0	29558	28240	169893	26715	1067878	45862	110995	0	0	8012	607124	0	0
2024-08-05 17:10:47			0	36321	0	0	0	29592	28240	169961	26970	1067905	45862	111008	0	0	8012	606835	0	0
2024-08-05 17:11:47			0	36322	0	0	0	29597	28230	169969	26686	1067887	45860	111010	0	0	8012	606828	0	0
2024-08-05 17:12:47			0	36329	0	0	0	29592	28230	169929	26618	1067968	45871	111008	0	0	8012	606539	0	0
2024-08-05 17:13:47			0	36313	0	0	0	29610	28230	169973	27027	1067887	45860	111015	0	0	8011	607200	0	0
2024-08-05 17:14:47			0	36337	0	0	0	29594	28230	169913	26708	1067905	45849	111009	0	0	8012	606209	0	0
2024-08-05 17:15:47			0	36310	0	0	0	29599	28240	169949	26831	1067923	45872	111011	0	0	8011	607289	0	0
2024-08-05 17:16:47			0	36294	0	0	0	29579	28230	170049	26618	1067914	45860	111003	0	0	8010	607986	0	0
2024-08-05 17:17:47			0	36276	0	0	0	29599	28240	170081	26864	1067923	45872	111011	0	0	8009	608696	0	0
2024-08-05 17:18:47			0	36292	0	0	0	29631	28240	170269	26915	1067950	45861	111023	0	0	8009	608034	0	0
2024-08-05 17:19:47			0	36305	0	0	0	29654	28230	170093	26797	1067968	45860	111032	0	0	8010	607531	0	0
2024-08-05 17:20:47			0	36330	0	0	0	29680	28240	169933	27116	1068112	45872	111042	0	0	8011	606463	0	0
2024-08-05 17:21:47			0	36375	0	0	0	29644	28240	169769	26767	1068031	45883	111028	0	0	8014	604606	0	0
2024-08-05 17:22:47			0	36387	0	0	0	29659	28250	169685	27178	1068031	45873	111034	0	0	8014	604076	0	0
2024-08-05 17:23:47			0	36400	0	0	0	29664	28250	169681	26814	1068139	45862	111036	0	0	8015	603541	0	0
2024-08-05 17:24:47			0	36415	0	0	0	29654	28260	169601	27024	1068121	45874	111032	0	0	8016	602889	0	0
2024-08-05 17:25:47			0	36394	0	0	0	29631	28250	169625	27187	1068076	45873	111023	0	0	8015	603788	0	0
2024-08-05 17:26:47			0	36385	0	0	0	29623	28260	169633	26620	1068067	45863	111020	0	0	8015	604124	0	0
2024-08-05 17:27:47			0	36372	0	0	0	29633	28240	169877	27057	1067986	45862	111024	0	0	8014	604730	0	0
2024-08-05 17:28:47			0	36344	0	0	0	29644	28250	169829	27173	1068022	45851	111028	0	0	8012	605849	0	0
2024-08-05 17:29:47			0	36350	0	0	0	29625	28240	169837	26948	1068013	45873	111021	0	0	8013	605637	0	0
2024-08-05 17:30:47			0	36369	0	0	0	29628	28250	169785	26658	1068022	45862	111022	0	0	8014	604818	0	0
2024-08-05 17:31:47			0	36370	0	0	0	29633	28250	169773	27199	1068004	45873	111024	0	0	8014	604777	0	0
2024-08-05 17:32:47			0	36366	0	0	0	29623	28250	169777	26767	1068058	45862	111020	0	0	8014	604942	0	0
2024-08-05 17:33:47			0	36361	0	0	0	29615	28250	169789	27128	1068004	45873	111017	0	0	8014	605148	0	0
2024-08-05 17:34:47			0	36365	0	0	0	29615	28240	169865	27104	1068040	45862	111017	0	0	8014	605018	0	0
2024-08-05 17:35:47			0	36332	0	0	0	29631	28250	170013	26923	1068031	45873	111023	0	0	8012	606345	0	0
2024-08-05 17:36:47			0	36342	0	0	0	29610	28260	169925	26916	1068040	45863	111015	0	0	8013	605897	0	0
2024-08-05 17:37:47			0	36341	0	0	0	29558	28250	169829	27116	1067968	45851	110995	0	0	8013	605973	0	0
2024-08-05 17:38:47			0	36339	0	0	0	29618	28240	169885	27114	1067986	45862	111018	0	0	8012	606091	0	0
2024-08-05 17:39:47			0	36377	0	0	0	29659	28250	169865	27126	1068022	45862	111034	0	0	8014	604489	0	0
2024-08-05 17:40:47			0	36408	0	0	0	29659	28250	169681	26866	1068049	45873	111034	0	0	8016	603212	0	0
2024-08-05 17:41:47			0	36434	0	0	0	29571	28240	169417	26847	1068094	45873	111000	0	0	8019	602177	0	0
2024-08-05 17:42:47			0	36435	0	0	0	29532	28250	169385	26887	1067914	45862	110985	0	0	8019	602101	0	0
2024-08-05 17:43:47			0	36428	0	0	0	29537	28240	169513	27027	1067789	45850	110987	0	0	8019	602424	0	0
2024-08-05 17:44:47			0	36400	0	0	0	29537	28230	169597	26850	1067780	45849	110987	0	0	8017	603611	0	0
2024-08-05 17:45:47			0	36402	0	0	0	29529	28230	169581	26679	1067798	45837	110984	0	0	8017	603529	0	0
2024-08-05 17:46:47			0	36416	0	0	0	29571	28220	169549	26932	1067789	45848	111000	0	0	8018	602987	0	0
2024-08-05 17:47:47			0	36409	0	0	0	29589	28220	169589	26632	1067833	45870	111007	0	0	8017	603275	0	0
2024-08-05 17:48:47			0	36425	0	0	0	29594	28210	169529	26634	1067771	45858	111009	0	0	8018	602652	0	0
2024-08-05 17:49:47			0	36416	0	0	0	29602	28210	169537	26989	1067878	45858	111012	0	0	8017	603022	0	0
2024-08-05 17:50:47			0	36421	0	0	0	29568	28220	169601	26901	1067860	45870	110999	0	0	8018	602782	0	0
2024-08-05 17:51:47			0	36433	0	0	0	29545	28220	169609	27013	1067807	45870	110990	0	0	8019	602288	0	0
2024-08-05 17:52:47			0	36412	0	0	0	29503	28220	169613	26811	1067780	45848	110974	0	0	8018	603152	0	0
2024-08-05 17:53:47			0	36414	0	0	0	29509	28210	169713	27124	1067681	45847	110976	0	0	8018	603104	0	0
2024-08-05 17:54:47			0	36382	0	0	0	29493	28190	169681	26934	1067591	45833	110970	0	0	8017	604492	0	0
2024-08-05 17:55:47			0	36372	0	0	0	29555	28180	169725	27173	1067582	45855	110994	0	0	8015	604939	0	0
2024-08-05 17:56:47			0	36400	0	0	0	29589	28180	169833	26608	1067654	45866	111007	0	0	8016	603785	0	0
2024-08-05 17:57:47			0	36419	0	0	0	29581	28180	169649	26857	1067663	45866	111004	0	0	8017	603003	0	0
2024-08-05 17:58:47			0	36440	0	0	0	29566	28190	169641	26934	1067726	45877	110998	0	0	8019	602105	0	0
2024-08-05 17:59:47			0	36436	0	0	0	29563	28190	169461	26880	1067672	45855	110997	0	0	8019	602269	0	0
2024-08-05 18:00:47			0	36445	0	0	0	29561	28180	169501	26767	1067717	45866	110996	0	0	8019	601934	0	0
2024-08-05 18:01:47			0	36442	0	0	0	29579	28180	169553	27057	1067690	45866	111003	0	0	8019	602057	0	0
2024-08-05 18:02:47			0	36469	0	0	0	29581	28190	169513	26993	1067780	45866	111004	0	0	8020	600913	0	0
2024-08-05 18:03:47			0	36470	0	0	0	29592	28180	169397	26894	1067717	45866	111008	0	0	8020	600907	0	0
2024-08-05 18:04:47			0	36461	0	0	0	29566	28190	169517	26870	1067762	45878	110998	0	0	8020	601242	0	0
2024-08-05 18:05:47			0	36467	0	0	0	29576	28190	169481	26986	1067780	45844	111002	0	0	8020	600996	0	0
2024-08-05 18:06:47			0	36461	0	0	0	29581	28190	169517	26715	1067842	45867	111004	0	0	8020	601242	0	0
2024-08-05 18:07:47			0	36478	0	0	0	29485	28200	169373	26982	1067771	45857	110967	0	0	8023	600509	0	0
2024-08-05 18:08:47			0	36455	0	0	0	29441	28190	169445	26934	1067591	45844	110950	0	0	8022	601488	0	0
2024-08-05 18:09:47			0	36446	0	0	0	29441	28170	169549	27019	1067447	45831	110950	0	0	8021	601928	0	0
2024-08-05 18:10:47			0	36434	0	0	0	29550	28150	169649	26956	1067411	45840	110992	0	0	8019	602491	0	0
2024-08-05 18:11:47			0	36438	0	0	0	29540	28160	169625	26802	1067564	45864	110988	0	0	8019	602291	0	0
2024-08-05 18:12:47			0	36438	0	0	0	29550	28150	169693	26942	1067609	45875	110992	0	0	8019	602326	0	0
2024-08-05 18:13:47			0	36443	0	0	0	29529	28160	169625	26715	1067627	45875	110984	0	0	8020	602086	0	0
2024-08-05 18:14:47			0	36443	0	0	0	29550	28160	169569	26864	1067645	45885	110992	0	0	8019	602086	0	0
2024-08-05 18:15:47			0	36417	0	0	0	29573	28170	169673	27039	1067555	45865	111001	0	0	8017	603120	0	0
2024-08-05 18:16:47			0	36426	0	0	0	29550	28170	169697	26677	1067672	45876	110992	0	0	8018	602750	0	0
2024-08-05 18:17:47			0	36431	0	0	0	29444	28170	169601	26993	1067609	45853	110951	0	0	8020	602544	0	0
2024-08-05 18:18:47			0	36428	0	0	0	29454	28150	169521	26852	1067501	45830	110955	0	0	8020	602737	0	0
2024-08-05 18:19:47			0	36436	0	0	0	29516	28160	169717	26859	1067510	45841	110979	0	0	8019	602373	0	0
2024-08-05 18:20:47			0	36427	0	0	0	29542	28150	169553	26899	1067528	45852	110989	0	0	8018	602778	0	0
2024-08-05 18:21:47			0	36433	0	0	0	29522	28150	169689	27013	1067573	45851	110981	0	0	8019	602532	0	0
2024-08-05 18:22:47			0	36420	0	0	0	29477	28160	169749	26982	1067510	45852	110964	0	0	8019	603032	0	0
2024-08-05 18:23:47			0	36394	0	0	0	29451	28150	169749	26778	1067465	45863	110954	0	0	8018	604137	0	0
2024-08-05 18:24:47			0	36395	0	0	0	29470	28150	169821	26830	1067465	45863	110961	0	0	8018	604096	0	0
2024-08-05 18:25:47			0	36413	0	0	0	29498	28140	169809	26703	1067429	45863	110972	0	0	8018	603389	0	0
2024-08-05 18:26:47			0	36396	0	0	0	29503	28140	169853	26937	1067501	45862	110974	0	0	8017	604089	0	0
2024-08-05 18:27:47			0	36437	0	0	0	29483	28140	169625	26876	1067456	45840	110966	0	0	8020	602402	0	0
2024-08-05 18:28:47			0	36426	0	0	0	29381	28140	169777	26719	1067339	45850	110927	0	0	8021	602854	0	0
2024-08-05 18:29:47			0	36431	0	0	0	29322	28130	169525	26736	1067241	45827	110904	0	0	8022	602683	0	0
2024-08-05 18:30:47			0	36426	0	0	0	29327	28110	169653	26746	1067070	45825	110906	0	0	8022	602959	0	0
2024-08-05 18:31:47			0	36385	0	0	0	29407	28090	169741	26908	1067106	45813	110937	0	0	8018	604717	0	0
2024-08-05 18:32:47			0	36383	0	0	0	29480	28090	169865	26516	1067187	45858	110965	0	0	8016	604800	0	0
2024-08-05 18:33:47			0	36412	0	0	0	29511	28090	169737	26748	1067348	45869	110977	0	0	8018	603605	0	0
2024-08-05 18:34:47			0	36421	0	0	0	29514	28120	169773	26583	1067411	45881	110978	0	0	8018	603130	0	0
2024-08-05 18:35:47			0	36439	0	0	0	29457	28120	169629	26589	1067438	45881	110956	0	0	8020	602389	0	0
2024-08-05 18:36:47			0	36447	0	0	0	29420	28130	169549	26876	1067295	45849	110942	0	0	8021	602026	0	0
2024-08-05 18:37:47			0	36454	0	0	0	29540	28110	169625	26833	1067339	45859	110988	0	0	8020	601807	0	0
2024-08-05 18:38:47			0	36499	0	0	0	29496	28120	169437	26791	1067420	45872	110971	0	0	8023	599925	0	0
2024-08-05 18:39:47			0	36498	0	0	0	29431	28120	169365	26661	1067420	45861	110946	0	0	8024	599966	0	0
2024-08-05 18:40:47			0	36477	0	0	0	29412	28130	169349	26712	1067402	45849	110939	0	0	8023	600793	0	0
2024-08-05 18:41:47			0	36463	0	0	0	29449	28120	169513	27085	1067277	45837	110953	0	0	8022	601403	0	0
2024-08-05 18:42:47			0	36434	0	0	0	29493	28110	169593	26804	1067205	45836	110970	0	0	8019	602630	0	0
2024-08-05 18:43:47			0	36480	0	0	0	29467	28090	169585	26622	1067268	45846	110960	0	0	8022	600809	0	0
2024-08-05 18:44:47			0	36481	0	0	0	29361	28100	169313	26811	1067169	45825	110919	0	0	8024	600733	0	0
2024-08-05 18:45:47			0	36491	0	0	0	29311	28090	169365	26871	1067016	45834	110900	0	0	8026	600357	0	0
2024-08-05 18:46:47			0	36464	0	0	0	29355	28060	169473	26859	1066891	45799	110917	0	0	8023	601570	0	0
2024-08-05 18:47:47			0	36446	0	0	0	29366	28050	169701	26896	1066926	45832	110921	0	0	8022	602345	0	0
2024-08-05 18:48:47			0	36431	0	0	0	29420	28050	169709	26654	1066953	45820	110942	0	0	8020	602962	0	0
2024-08-05 18:49:47			0	36448	0	0	0	29457	28040	169705	26564	1067061	45830	110956	0	0	8020	602297	0	0
2024-08-05 18:50:47			0	36462	0	0	0	29457	28060	169705	26738	1067097	45865	110956	0	0	8021	601652	0	0
2024-08-05 18:51:47			0	36464	0	0	0	29449	28050	169493	26680	1067061	45865	110953	0	0	8022	601605	0	0
2024-08-05 18:52:47			0	36488	0	0	0	29454	28060	169493	26944	1067106	45855	110955	0	0	8023	600584	0	0
2024-08-05 18:53:47			0	36474	0	0	0	29449	28070	169465	26866	1067151	45833	110953	0	0	8022	601125	0	0
2024-08-05 18:54:47			0	36476	0	0	0	29379	28070	169441	26512	1067088	45843	110926	0	0	8024	601042	0	0
2024-08-05 18:55:47			0	36454	0	0	0	29405	28060	169669	26937	1067025	45833	110936	0	0	8022	601981	0	0
2024-08-05 18:56:47			0	36450	0	0	0	29431	28060	169705	26930	1067016	45854	110946	0	0	8021	602145	0	0
2024-08-05 18:57:47			0	36470	0	0	0	29433	28050	169601	26684	1067061	45842	110947	0	0	8022	601358	0	0
2024-08-05 18:58:47			0	36476	0	0	0	29431	28060	169569	26512	1067070	45854	110946	0	0	8023	601077	0	0
2024-08-05 18:59:47			0	36496	0	0	0	29428	28060	169421	26835	1067070	45842	110945	0	0	8024	600256	0	0
2024-08-05 19:00:47			0	36501	0	0	0	29436	28050	169525	27078	1067115	45842	110948	0	0	8024	600086	0	0
2024-08-05 19:01:47			0	36485	0	0	0	29467	28040	169597	26653	1067070	45840	110960	0	0	8023	600777	0	0
2024-08-05 19:02:47			0	36489	0	0	0	29477	28050	169489	26564	1067088	45854	110964	0	0	8023	600578	0	0
2024-08-05 19:03:47			0	36477	0	0	0	29467	28050	169621	26816	1067115	45865	110960	0	0	8022	601071	0	0
2024-08-05 19:04:47			0	36475	0	0	0	29459	28060	169517	26861	1067124	45854	110957	0	0	8022	601118	0	0
2024-08-05 19:05:47			0	36457	0	0	0	29451	28070	169625	26875	1067142	45855	110954	0	0	8021	601823	0	0
2024-08-05 19:06:47			0	36424	0	0	0	29462	28060	169801	26595	1067133	45855	110958	0	0	8019	603215	0	0
2024-08-05 19:07:47			0	36388	0	0	0	29449	28070	170021	26713	1067115	45843	110953	0	0	8017	604663	0	0
2024-08-05 19:08:47			0	36393	0	0	0	29444	28050	169841	26615	1067088	45854	110951	0	0	8017	604527	0	0
2024-08-05 19:09:47			0	36367	0	0	0	29441	28050	170037	26639	1067115	45854	110950	0	0	8016	605600	0	0
2024-08-05 19:10:47			0	36352	0	0	0	29449	28050	170021	26920	1067115	45854	110953	0	0	8015	606219	0	0
2024-08-05 19:11:47			0	36368	0	0	0	29449	28050	170097	26672	1067034	45854	110953	0	0	8016	605558	0	0
2024-08-05 19:12:47			0	36325	0	0	0	29438	28050	170169	26958	1067052	45841	110949	0	0	8014	607335	0	0
2024-08-05 19:13:47			0	36326	0	0	0	29441	28060	170125	27100	1067043	45842	110950	0	0	8014	607259	0	0
2024-08-05 19:14:47			0	36330	0	0	0	29454	28050	170125	26960	1067088	45842	110955	0	0	8014	607128	0	0
2024-08-05 19:15:47			0	36359	0	0	0	29449	28050	170089	26762	1067079	45853	110953	0	0	8015	605930	0	0
2024-08-05 19:16:47			0	36336	0	0	0	29449	28050	170249	26826	1067061	45854	110953	0	0	8014	606880	0	0
2024-08-05 19:17:47			0	36324	0	0	0	29449	28050	170325	27088	1067052	45853	110953	0	0	8013	607376	0	0
2024-08-05 19:18:47			0	36321	0	0	0	29449	28050	170237	26741	1067079	45841	110953	0	0	8013	607500	0	0
2024-08-05 19:19:47			0	36336	0	0	0	29454	28050	170213	26705	1067052	45841	110955	0	0	8014	606880	0	0
2024-08-05 19:20:47			0	36339	0	0	0	29462	28050	170141	27121	1067079	45853	110958	0	0	8014	606756	0	0
2024-08-05 19:21:47			0	36343	0	0	0	29467	28050	170205	27209	1067088	45854	110960	0	0	8014	606591	0	0
2024-08-05 19:22:47			0	36381	0	0	0	29477	28060	170157	26687	1067097	45865	110964	0	0	8016	604987	0	0
2024-08-05 19:23:47			0	36382	0	0	0	29467	28060	169953	27067	1067160	45876	110960	0	0	8016	604946	0	0
2024-08-05 19:24:47			0	36380	0	0	0	29470	28060	169965	26826	1067151	45865	110961	0	0	8016	605028	0	0
2024-08-05 19:25:47			0	36379	0	0	0	29480	28050	169949	26946	1067142	45875	110965	0	0	8016	605104	0	0
2024-08-05 19:26:47			0	36393	0	0	0	29472	28060	170137	27090	1067124	45865	110962	0	0	8017	604492	0	0
2024-08-05 19:27:47			0	36397	0	0	0	29477	28070	169905	26795	1067169	45866	110964	0	0	8017	604292	0	0
2024-08-05 19:28:47			0	36392	0	0	0	29412	28060	169877	26979	1067133	45855	110939	0	0	8018	604533	0	0
2024-08-05 19:29:47			0	36389	0	0	0	29425	28050	169969	27012	1067088	45842	110944	0	0	8018	604692	0	0
2024-08-05 19:30:47			0	36382	0	0	0	29441	28050	170061	26753	1067007	45842	110950	0	0	8017	604981	0	0
2024-08-05 19:31:47			0	36394	0	0	0	29457	28050	170081	26689	1066998	45841	110956	0	0	8017	604486	0	0
2024-08-05 19:32:47			0	36374	0	0	0	29457	28040	170129	26687	1067124	45852	110956	0	0	8016	605346	0	0
2024-08-05 19:33:47			0	36387	0	0	0	29467	28050	170053	26741	1067034	45865	110960	0	0	8017	604774	0	0
2024-08-05 19:34:47			0	36386	0	0	0	29464	28050	170033	26953	1067088	45875	110959	0	0	8017	604816	0	0
2024-08-05 19:35:47			0	36384	0	0	0	29470	28060	170077	26916	1067097	45865	110961	0	0	8017	604863	0	0
2024-08-05 19:36:47			0	36396	0	0	0	29451	28050	170025	27203	1067088	45865	110954	0	0	8018	604403	0	0
2024-08-05 19:37:47			0	36393	0	0	0	29459	28060	170109	26968	1067160	45866	110957	0	0	8017	604492	0	0
2024-08-05 19:38:47			0	36396	0	0	0	29451	28050	170081	27107	1067088	45875	110954	0	0	8018	604403	0	0
2024-08-05 19:39:47			0	36377	0	0	0	29454	28050	170041	26967	1067115	45854	110955	0	0	8016	605187	0	0
2024-08-05 19:40:47			0	36384	0	0	0	29446	28060	170137	26885	1067097	45854	110952	0	0	8017	604863	0	0
2024-08-05 19:41:47			0	36367	0	0	0	29444	28050	170069	26991	1067115	45854	110951	0	0	8016	605600	0	0
2024-08-05 19:42:47			0	36352	0	0	0	29355	28050	170165	26911	1067034	45842	110917	0	0	8017	606219	0	0
2024-08-05 19:43:47			0	36342	0	0	0	29324	28040	170269	26870	1066855	45830	110905	0	0	8016	606667	0	0
2024-08-05 19:44:47			0	36297	0	0	0	29337	28030	170497	26772	1066800	45829	110910	0	0	8013	608564	0	0
2024-08-05 19:45:47			0	36275	0	0	0	29337	28020	170497	26713	1066783	45838	110910	0	0	8012	609511	0	0
2024-08-05 19:46:47			0	36256	0	0	0	29368	28000	170525	26795	1066666	45836	110922	0	0	8010	610370	0	0
2024-08-05 19:47:47			0	36257	0	0	0	29374	28000	170557	26941	1066729	45836	110924	0	0	8010	610328	0	0
2024-08-05 19:48:47			0	36261	0	0	0	29376	28000	170641	27048	1066720	45848	110925	0	0	8010	610162	0	0
2024-08-05 19:49:47			0	36240	0	0	0	29394	28000	170697	26866	1066774	45848	110932	0	0	8009	611034	0	0
2024-08-05 19:50:47			0	36277	0	0	0	29412	28000	170605	26838	1066774	45836	110939	0	0	8011	609498	0	0
2024-08-05 19:51:47			0	36271	0	0	0	29399	28000	170601	27128	1066863	45859	110934	0	0	8011	609747	0	0
2024-08-05 19:52:47			0	36299	0	0	0	29407	28000	170521	26920	1066809	45859	110937	0	0	8012	608587	0	0
2024-08-05 19:53:47			0	36282	0	0	0	29405	28000	170465	26889	1066863	45848	110936	0	0	8011	609291	0	0
2024-08-05 19:54:47			0	36290	0	0	0	29423	28000	170429	26916	1066836	45848	110943	0	0	8011	608959	0	0
2024-08-05 19:55:47			0	36313	0	0	0	29436	28010	170473	26767	1066989	45850	110948	0	0	8013	607972	0	0
2024-08-05 19:56:47			0	36311	0	0	0	29459	28020	170533	26864	1066998	45861	110957	0	0	8012	608019	0	0
2024-08-05 19:57:47			0	36322	0	0	0	29454	28020	170481	26979	1066926	45861	110955	0	0	8013	607564	0	0
2024-08-05 19:58:47			0	36331	0	0	0	29467	28020	170393	26897	1067007	45873	110960	0	0	8013	607192	0	0
2024-08-05 19:59:47			0	36346	0	0	0	29451	28020	170305	26571	1067007	45861	110954	0	0	8014	606572	0	0
2024-08-05 20:00:47			0	36305	0	0	0	29449	28020	170257	26693	1066980	45873	110953	0	0	8012	608268	0	0
2024-08-05 20:01:47			0	36319	0	0	0	29454	28040	170221	26701	1067007	45874	110955	0	0	8013	607618	0	0
2024-08-05 20:02:47			0	36312	0	0	0	29444	28030	170461	26920	1067016	45862	110951	0	0	8013	607943	0	0
2024-08-05 20:03:47			0	36286	0	0	0	29446	28020	170533	26840	1067034	45850	110952	0	0	8011	609055	0	0
2024-08-05 20:04:47			0	36267	0	0	0	29438	28040	170537	27097	1067061	45863	110949	0	0	8010	609772	0	0
2024-08-05 20:05:47			0	36250	0	0	0	29436	28030	170689	26871	1066989	45839	110948	0	0	8009	610513	0	0
2024-08-05 20:06:47			0	36221	0	0	0	29433	28040	170753	26759	1067016	45863	110947	0	0	8007	611682	0	0
2024-08-05 20:07:47			0	36225	0	0	0	29428	28020	170757	27055	1066953	45850	110945	0	0	8008	611587	0	0
2024-08-05 20:08:47			0	36213	0	0	0	29425	28030	170873	26755	1066989	45851	110944	0	0	8007	612050	0	0
2024-08-05 20:09:47			0	36185	0	0	0	29420	28030	170993	26798	1066989	45862	110942	0	0	8005	613216	0	0
2024-08-05 20:10:47			0	36155	0	0	0	29415	28030	171225	26871	1066962	45851	110940	0	0	8004	614466	0	0
2024-08-05 20:11:47			0	36144	0	0	0	29418	28030	171149	26949	1066935	45851	110941	0	0	8003	614925	0	0
2024-08-05 20:12:47			0	36119	0	0	0	29407	28030	171313	26876	1066935	45851	110937	0	0	8002	615968	0	0
2024-08-05 20:13:47			0	36117	0	0	0	29415	28030	171281	26705	1066918	45863	110940	0	0	8001	616052	0	0
2024-08-05 20:14:47			0	36109	0	0	0	29405	28030	171377	26833	1066881	45851	110936	0	0	8001	616386	0	0
2024-08-05 20:15:47			0	36097	0	0	0	29405	28020	171353	27026	1066890	45838	110936	0	0	8000	616923	0	0
2024-08-05 20:16:47			0	36107	0	0	0	29415	28020	171325	26618	1066944	45850	110940	0	0	8001	616505	0	0
2024-08-05 20:17:47			0	36083	0	0	0	29340	28010	171433	26641	1066881	45838	110911	0	0	8000	617545	0	0
2024-08-05 20:18:47			0	36074	0	0	0	29348	28020	171533	26587	1066783	45850	110914	0	0	8000	617886	0	0
2024-08-05 20:19:47			0	36047	0	0	0	29371	28000	171637	26705	1066783	45836	110923	0	0	7998	619088	0	0
2024-08-05 20:20:47			0	36054	0	0	0	29381	28000	171689	26432	1066747	45836	110927	0	0	7998	618795	0	0
2024-08-05 20:21:47			0	36045	0	0	0	29355	28000	171729	26715	1066774	45859	110917	0	0	7998	619172	0	0
2024-08-05 20:22:47			0	36030	0	0	0	29379	28000	171637	26712	1066809	45836	110926	0	0	7997	619801	0	0
2024-08-05 20:23:47			0	36036	0	0	0	29402	28000	171817	27237	1066827	45859	110935	0	0	7997	619550	0	0
2024-08-05 20:24:47			0	36020	0	0	0	29402	27990	171897	27142	1066765	45847	110935	0	0	7995	620257	0	0
2024-08-05 20:25:47			0	36024	0	0	0	29402	27990	171853	26748	1066765	45870	110935	0	0	7996	620089	0	0
2024-08-05 20:26:47			0	36018	0	0	0	29402	27990	171801	26894	1066845	45847	110935	0	0	7995	620341	0	0
2024-08-05 20:27:47			0	36017	0	0	0	29405	28000	171837	26785	1066854	45871	110936	0	0	7995	620347	0	0
2024-08-05 20:28:47			0	36014	0	0	0	29410	27990	171857	26857	1066810	45858	110938	0	0	7995	620509	0	0
2024-08-05 20:29:47			0	36015	0	0	0	29412	27990	171965	26967	1066872	45847	110939	0	0	7995	620467	0	0
2024-08-05 20:30:47			0	35998	0	0	0	29405	28000	171989	27060	1066890	45859	110936	0	0	7994	621145	0	0
2024-08-05 20:31:47			0	35994	0	0	0	29386	27990	172025	27019	1066872	45847	110929	0	0	7994	621349	0	0
2024-08-05 20:32:47			0	35994	0	0	0	29337	28000	172053	26779	1066827	45848	110910	0	0	7995	621313	0	0
2024-08-05 20:33:47			0	35996	0	0	0	29280	27990	171937	26932	1066603	45835	110888	0	0	7996	621265	0	0
2024-08-05 20:34:47			0	36000	0	0	0	29283	27980	171889	26918	1066639	45824	110889	0	0	7996	621133	0	0
2024-08-05 20:35:47			0	35984	0	0	0	29236	27960	172001	27183	1066459	45832	110871	0	0	7996	621877	0	0
2024-08-05 20:36:47			0	35993	0	0	0	29298	27950	172137	26892	1066504	45821	110895	0	0	7995	621535	0	0
2024-08-05 20:37:47			0	35974	0	0	0	29340	27950	172125	27039	1066576	45854	110911	0	0	7994	622334	0	0
2024-08-05 20:38:47			0	35994	0	0	0	29319	27950	172105	26830	1066442	45854	110903	0	0	7995	621492	0	0
2024-08-05 20:39:47			0	35975	0	0	0	29254	27940	172173	26833	1066460	45842	110878	0	0	7995	622328	0	0
2024-08-05 20:40:47			0	35974	0	0	0	29176	27930	172065	27000	1066307	45819	110848	0	0	7996	622406	0	0
2024-08-05 20:41:47			0	35972	0	0	0	29197	27920	172033	26826	1066199	45817	110856	0	0	7996	622526	0	0
2024-08-05 20:42:47			0	35967	0	0	0	29220	27910	171989	26840	1066181	45816	110865	0	0	7995	622772	0	0
2024-08-05 20:43:47			0	35969	0	0	0	29264	27900	172133	26930	1066271	45848	110882	0	0	7994	622724	0	0
2024-08-05 20:44:47			0	35995	0	0	0	29264	27890	172101	26814	1066262	45847	110882	0	0	7996	621666	0	0
2024-08-05 20:45:47			0	35970	0	0	0	29166	27880	171929	26939	1066109	45836	110844	0	0	7996	622753	0	0
2024-08-05 20:46:47			0	35979	0	0	0	29166	27890	171905	26993	1066145	45814	110844	0	0	7997	622339	0	0
2024-08-05 20:47:47			0	35959	0	0	0	29223	27870	172057	27097	1066011	45812	110866	0	0	7994	623253	0	0
2024-08-05 20:48:47			0	35986	0	0	0	29309	27870	172101	26731	1066091	45834	110899	0	0	7994	622116	0	0
2024-08-05 20:49:47			0	35968	0	0	0	29345	27870	172173	26635	1066226	45857	110913	0	0	7993	622874	0	0
2024-08-05 20:50:47			0	36001	0	0	0	29345	27880	172073	26648	1066271	45859	110913	0	0	7995	621449	0	0
2024-08-05 20:51:47			0	36004	0	0	0	29353	27900	172053	26975	1066432	45860	110916	0	0	7995	621251	0	0
2024-08-05 20:52:47			0	36010	0	0	0	29353	27890	171969	26674	1066369	45859	110916	0	0	7995	621035	0	0
2024-08-05 20:53:47			0	35999	0	0	0	29340	27910	171929	26712	1066531	45861	110911	0	0	7995	621426	0	0
2024-08-05 20:54:47			0	35994	0	0	0	29342	27910	171849	26561	1066451	45872	110912	0	0	7995	621636	0	0
2024-08-05 20:55:47			0	35993	0	0	0	29350	27910	171913	26779	1066460	45849	110915	0	0	7994	621678	0	0
2024-08-05 20:56:47			0	35972	0	0	0	29342	27920	172017	26739	1066477	45851	110912	0	0	7993	622526	0	0
2024-08-05 20:57:47			0	35961	0	0	0	29345	27920	172241	26807	1066549	45850	110913	0	0	7993	622989	0	0
2024-08-05 20:58:47			0	35950	0	0	0	29345	27920	172177	26896	1066549	45850	110913	0	0	7992	623452	0	0
2024-08-05 20:59:47			0	35948	0	0	0	29342	27920	172209	26807	1066522	45839	110912	0	0	7992	623536	0	0
2024-08-05 21:00:47			0	35942	0	0	0	29337	27930	172177	26606	1066486	45841	110910	0	0	7992	623753	0	0
2024-08-05 21:01:47			0	35960	0	0	0	29322	27930	172197	26696	1066540	45852	110904	0	0	7993	622995	0	0
2024-08-05 21:02:47			0	35936	0	0	0	29324	27920	172297	26746	1066468	45850	110905	0	0	7991	624042	0	0
2024-08-05 21:03:47			0	35897	0	0	0	29322	27920	172349	26852	1066468	45850	110904	0	0	7989	625689	0	0
2024-08-05 21:04:47			0	35908	0	0	0	29316	27920	172393	26826	1066558	45851	110902	0	0	7990	625224	0	0
2024-08-05 21:05:47			0	35900	0	0	0	29324	27920	172305	26986	1066442	45850	110905	0	0	7989	625562	0	0
2024-08-05 21:06:47			0	35897	0	0	0	29309	27920	172353	27076	1066504	45840	110899	0	0	7989	625689	0	0
2024-08-05 21:07:47			0	35898	0	0	0	29303	27920	172485	26542	1066442	45828	110897	0	0	7989	625646	0	0
2024-08-05 21:08:47			0	35903	0	0	0	29303	27910	172345	27022	1066433	45849	110897	0	0	7990	625471	0	0
2024-08-05 21:09:47			0	35886	0	0	0	29293	27910	172429	26731	1066406	45849	110893	0	0	7989	626189	0	0
2024-08-05 21:10:47			0	35902	0	0	0	29303	27910	172313	26783	1066379	45838	110897	0	0	7990	625513	0	0
2024-08-05 21:11:47			0	35915	0	0	0	29303	27910	172397	26684	1066397	45838	110897	0	0	7990	624964	0	0
2024-08-05 21:12:47			0	35928	0	0	0	29298	27910	172345	26889	1066343	45838	110895	0	0	7991	624416	0	0
2024-08-05 21:13:47			0	35962	0	0	0	29298	27900	172177	26785	1066360	45849	110895	0	0	7993	623018	0	0
2024-08-05 21:14:47			0	35988	0	0	0	29303	27900	171993	26616	1066360	45849	110897	0	0	7995	621924	0	0
2024-08-05 21:15:47			0	36025	0	0	0	29296	27900	171885	26654	1066325	45848	110894	0	0	7997	620369	0	0
2024-08-05 21:16:47			0	36025	0	0	0	29296	27900	171885	27000	1066378	45848	110894	0	0	7997	620369	0	0
2024-08-05 21:17:47			0	36031	0	0	0	29285	27900	171881	26807	1066351	45848	110890	0	0	7998	620117	0	0
2024-08-05 21:18:47			0	36019	0	0	0	29280	27890	171873	26516	1066289	45847	110888	0	0	7997	620657	0	0
2024-08-05 21:19:47			0	36019	0	0	0	29277	27890	171909	26739	1066289	45847	110887	0	0	7997	620657	0	0
2024-08-05 21:20:47			0	36010	0	0	0	29285	27890	171933	26868	1066316	45859	110890	0	0	7996	621035	0	0
2024-08-05 21:21:47			0	35984	0	0	0	29288	27890	171985	26573	1066343	45847	110891	0	0	7995	622128	0	0
2024-08-05 21:22:47			0	36004	0	0	0	29283	27900	171965	26700	1066307	45838	110889	0	0	7996	621251	0	0
2024-08-05 21:23:47			0	36043	0	0	0	29277	27890	171885	26786	1066334	45847	110887	0	0	7998	619649	0	0
2024-08-05 21:24:47			0	36080	0	0	0	29267	27890	171653	26656	1066262	45870	110883	0	0	8001	618098	0	0
2024-08-05 21:25:47			0	36084	0	0	0	29264	27880	171681	26590	1066271	45859	110882	0	0	8001	617966	0	0
2024-08-05 21:26:47			0	36076	0	0	0	29259	27880	171713	26630	1066127	45835	110880	0	0	8001	618301	0	0
2024-08-05 21:27:47			0	36086	0	0	0	29251	27880	171613	26679	1066217	45847	110877	0	0	8001	617882	0	0
2024-08-05 21:28:47			0	36107	0	0	0	29249	27880	171517	26779	1066208	45835	110876	0	0	8003	617003	0	0
2024-08-05 21:29:47			0	36087	0	0	0	29254	27870	171601	26909	1066118	45834	110878	0	0	8001	617876	0	0
2024-08-05 21:30:47			0	36079	0	0	0	29270	27870	171605	26835	1066199	45834	110884	0	0	8001	618211	0	0
2024-08-05 21:31:47			0	36060	0	0	0	29267	27880	171725	26949	1066298	45836	110883	0	0	8000	618972	0	0
2024-08-05 21:32:47			0	36076	0	0	0	29254	27870	171717	26828	1066172	45845	110878	0	0	8001	618337	0	0
2024-08-05 21:33:47			0	36082	0	0	0	29264	27870	171781	26490	1066226	45845	110882	0	0	8001	618085	0	0
2024-08-05 21:34:47			0	36065	0	0	0	29259	27870	171613	26845	1066136	45857	110880	0	0	8000	618798	0	0
2024-08-05 21:35:47			0	36057	0	0	0	29259	27870	171809	27034	1066226	45845	110880	0	0	8000	619133	0	0
2024-08-05 21:36:47			0	36034	0	0	0	29238	27870	171941	26901	1066253	45845	110872	0	0	7999	620098	0	0
2024-08-05 21:37:47			0	36043	0	0	0	29225	27860	171793	26767	1066100	45845	110867	0	0	7999	619756	0	0
2024-08-05 21:38:47			0	36078	0	0	0	29215	27860	171653	26972	1066073	45834	110863	0	0	8002	618289	0	0
2024-08-05 21:39:47			0	36085	0	0	0	29212	27850	171693	26953	1066109	45833	110862	0	0	8002	618031	0	0
2024-08-05 21:40:47			0	36085	0	0	0	29197	27840	171697	26837	1065948	45842	110856	0	0	8002	618067	0	0
2024-08-05 21:41:47			0	36079	0	0	0	29194	27840	171609	26717	1065930	45832	110855	0	0	8002	618318	0	0
2024-08-05 21:42:47			0	36058	0	0	0	29194	27840	171765	26706	1065948	45832	110855	0	0	8001	619198	0	0
2024-08-05 21:43:47			0	36054	0	0	0	29184	27830	171909	26559	1065885	45831	110851	0	0	8000	619402	0	0
2024-08-05 21:44:47			0	36050	0	0	0	29181	27830	171865	26793	1065876	45830	110850	0	0	8000	619570	0	0
2024-08-05 21:45:47			0	36028	0	0	0	29161	27820	171865	26902	1065831	45819	110842	0	0	7999	620529	0	0
2024-08-05 21:46:47			0	36027	0	0	0	29179	27810	171981	26691	1065849	45818	110849	0	0	7999	620607	0	0
2024-08-05 21:47:47			0	36011	0	0	0	29184	27820	171981	26786	1065858	45840	110851	0	0	7998	621243	0	0
2024-08-05 21:48:47			0	36006	0	0	0	29199	27810	172169	26587	1065876	45851	110857	0	0	7997	621489	0	0
2024-08-05 21:49:47			0	36016	0	0	0	29192	27810	171961	26668	1065867	45838	110854	0	0	7998	621069	0	0
2024-08-05 21:50:47			0	36004	0	0	0	29181	27810	172029	26628	1065849	45829	110850	0	0	7997	621573	0	0
2024-08-05 21:51:47			0	35995	0	0	0	29179	27810	171877	26609	1065795	45839	110849	0	0	7997	621952	0	0
2024-08-05 21:52:47			0	35999	0	0	0	29168	27810	172045	26890	1065759	45828	110845	0	0	7997	621784	0	0
2024-08-05 21:53:47			0	35997	0	0	0	29166	27790	172009	26771	1065822	45828	110844	0	0	7997	621940	0	0
2024-08-05 21:54:47			0	36015	0	0	0	29137	27800	172017	26622	1065723	45817	110833	0	0	7999	621147	0	0
2024-08-05 21:55:47			0	36021	0	0	0	29145	27790	171893	26592	1065706	45837	110836	0	0	7999	620930	0	0
2024-08-05 21:56:47			0	36004	0	0	0	29168	27790	172029	26646	1065679	45837	110845	0	0	7997	621645	0	0
2024-08-05 21:57:47			0	36024	0	0	0	29176	27780	171865	26665	1065750	45836	110848	0	0	7999	620840	0	0
2024-08-05 21:58:47			0	36006	0	0	0	29181	27780	171941	26731	1065660	45835	110850	0	0	7997	621597	0	0
2024-08-05 21:59:47			0	36008	0	0	0	29184	27790	171881	27020	1065759	45837	110851	0	0	7997	621477	0	0
2024-08-05 22:00:47			0	36025	0	0	0	29186	27790	171917	26667	1065795	45838	110852	0	0	7998	620762	0	0
2024-08-05 22:01:47			0	36017	0	0	0	29163	27780	171925	26800	1065750	45836	110843	0	0	7998	621134	0	0
2024-08-05 22:02:47			0	36006	0	0	0	29145	27790	171965	26771	1065733	45804	110836	0	0	7998	621561	0	0
2024-08-05 22:03:47			0	36015	0	0	0	29145	27780	171857	26781	1065687	45825	110836	0	0	7998	621218	0	0
2024-08-05 22:04:47			0	36018	0	0	0	29153	27780	171833	26474	1065687	45825	110839	0	0	7999	621092	0	0
2024-08-05 22:05:47			0	36019	0	0	0	29171	27780	171941	26654	1065750	45836	110846	0	0	7998	621050	0	0
2024-08-05 22:06:47			0	36022	0	0	0	29173	27780	171945	26755	1065714	45835	110847	0	0	7998	620924	0	0
2024-08-05 22:07:47			0	36012	0	0	0	29181	27780	171941	26698	1065750	45836	110850	0	0	7998	621344	0	0
2024-08-05 22:08:47			0	36023	0	0	0	29173	27780	171881	26752	1065777	45836	110847	0	0	7998	620882	0	0
2024-08-05 22:09:47			0	36002	0	0	0	29184	27780	172041	26691	1065768	45835	110851	0	0	7997	621765	0	0
2024-08-05 22:10:47			0	36005	0	0	0	29192	27790	172105	26795	1065768	45850	110854	0	0	7997	621603	0	0
2024-08-05 22:11:47			0	35980	0	0	0	29181	27790	172053	26701	1065813	45849	110850	0	0	7996	622655	0	0
2024-08-05 22:12:47			0	35964	0	0	0	29197	27780	172285	26637	1065777	45836	110856	0	0	7995	623365	0	0
2024-08-05 22:13:47			0	35940	0	0	0	29192	27780	172265	26327	1065804	45848	110854	0	0	7993	624377	0	0
2024-08-05 22:14:47			0	35934	0	0	0	29199	27790	172241	26746	1065733	45827	110857	0	0	7993	624595	0	0
2024-08-05 22:15:47			0	35936	0	0	0	29197	27780	172373	26838	1065741	45835	110856	0	0	7993	624546	0	0
2024-08-05 22:16:47			0	35912	0	0	0	29197	27790	172329	26733	1065786	45849	110856	0	0	7991	625524	0	0
2024-08-05 22:17:47			0	35925	0	0	0	29215	27800	172293	26873	1065858	45850	110863	0	0	7992	624938	0	0
2024-08-05 22:18:47			0	35936	0	0	0	29212	27790	172289	26674	1065840	45837	110862	0	0	7993	624510	0	0
2024-08-05 22:19:47			0	35961	0	0	0	29207	27800	172257	26533	1065885	45850	110860	0	0	7994	623420	0	0
2024-08-05 22:20:47			0	35938	0	0	0	29218	27790	172257	26765	1065849	45838	110864	0	0	7993	624426	0	0
2024-08-05 22:21:47			0	35925	0	0	0	29223	27810	172401	26883	1065876	45851	110866	0	0	7992	624902	0	0
2024-08-05 22:22:47			0	35920	0	0	0	29220	27800	172417	26922	1065885	45850	110865	0	0	7992	625150	0	0
2024-08-05 22:23:47			0	35910	0	0	0	29220	27800	172409	26729	1065885	45838	110865	0	0	7991	625572	0	0
2024-08-05 22:24:47			0	35912	0	0	0	29210	27810	172401	27003	1065903	45851	110861	0	0	7991	625451	0	0
2024-08-05 22:25:47			0	35888	0	0	0	29207	27800	172581	26783	1065912	45838	110860	0	0	7990	626502	0	0
2024-08-05 22:26:47			0	35866	0	0	0	29199	27790	172657	26852	1065849	45828	110857	0	0	7989	627469	0	0
2024-08-05 22:27:47			0	35838	0	0	0	29212	27810	172728	26700	1065840	45838	110862	0	0	7987	628583	0	0
2024-08-05 22:28:47			0	35824	0	0	0	29205	27810	172896	26568	1065849	45839	110859	0	0	7986	629177	0	0
2024-08-05 22:29:47			0	35815	0	0	0	29202	27790	172868	26811	1065849	45850	110858	0	0	7985	629631	0	0
2024-08-05 22:30:47			0	35801	0	0	0	29205	27810	172964	26687	1065759	45828	110859	0	0	7985	630153	0	0
2024-08-05 22:31:47			0	35794	0	0	0	29202	27810	172832	26715	1065930	45829	110858	0	0	7984	630451	0	0
2024-08-05 22:32:47			0	35846	0	0	0	29205	27800	172664	27067	1065885	45850	110859	0	0	7987	628280	0	0
2024-08-05 22:33:47			0	35886	0	0	0	29202	27810	172461	26644	1065867	45828	110858	0	0	7990	626550	0	0
2024-08-05 22:34:47			0	35916	0	0	0	29194	27800	172389	27093	1065777	45838	110855	0	0	7992	625319	0	0
2024-08-05 22:35:47			0	35929	0	0	0	29192	27800	172341	26726	1065777	45828	110854	0	0	7993	624770	0	0
2024-08-05 22:36:47			0	35915	0	0	0	29181	27790	172297	27039	1065840	45827	110850	0	0	7992	625397	0	0
2024-08-05 22:37:47			0	35921	0	0	0	29186	27800	172301	26689	1065777	45838	110852	0	0	7992	625107	0	0
2024-08-05 22:38:47			0	35922	0	0	0	29176	27790	172337	26871	1065741	45838	110848	0	0	7992	625101	0	0
2024-08-05 22:39:47			0	35925	0	0	0	29184	27790	172225	26710	1065795	45828	110851	0	0	7992	624974	0	0
2024-08-05 22:40:47			0	35947	0	0	0	29176	27800	172209	26840	1065777	45838	110848	0	0	7994	624010	0	0
2024-08-05 22:41:47			0	35912	0	0	0	29168	27780	172285	27020	1065724	45836	110845	0	0	7992	625560	0	0
2024-08-05 22:42:47			0	35915	0	0	0	29173	27780	172405	26653	1065777	45826	110847	0	0	7992	625433	0	0
2024-08-05 22:43:47			0	35912	0	0	0	29166	27780	172449	26977	1065750	45826	110844	0	0	7992	625560	0	0
2024-08-05 22:44:47			0	35880	0	0	0	29171	27780	172569	26667	1065741	45825	110846	0	0	7990	626913	0	0
2024-08-05 22:45:47			0	35882	0	0	0	29179	27780	172561	26706	1065804	45848	110849	0	0	7990	626828	0	0
2024-08-05 22:46:47			0	35869	0	0	0	29184	27780	172613	26977	1065724	45836	110851	0	0	7989	627378	0	0
2024-08-05 22:47:47			0	35881	0	0	0	29181	27780	172441	26897	1065795	45847	110850	0	0	7990	626870	0	0
2024-08-05 22:48:47			0	35913	0	0	0	29181	27790	172577	27072	1065759	45849	110850	0	0	7992	625481	0	0
2024-08-05 22:49:47			0	35902	0	0	0	29176	27780	172573	27041	1065768	45835	110848	0	0	7991	625982	0	0
2024-08-05 22:50:47			0	35909	0	0	0	29181	27770	172445	26925	1065732	45835	110850	0	0	7991	625722	0	0
2024-08-05 22:51:47			0	35917	0	0	0	29176	27780	172345	26890	1065777	45836	110848	0	0	7992	625348	0	0
2024-08-05 22:52:47			0	35915	0	0	0	29173	27780	172509	26793	1065741	45835	110847	0	0	7992	625433	0	0
2024-08-05 22:53:47			0	35907	0	0	0	29171	27760	172473	26821	1065687	45846	110846	0	0	7991	625843	0	0
2024-08-05 22:54:47			0	35900	0	0	0	29171	27770	172521	26908	1065750	45847	110846	0	0	7991	626103	0	0
2024-08-05 22:55:47			0	35890	0	0	0	29161	27780	172497	26613	1065768	45814	110842	0	0	7991	626490	0	0
2024-08-05 22:56:47			0	35884	0	0	0	29161	27770	172569	26840	1065705	45825	110842	0	0	7990	626780	0	0
2024-08-05 22:57:47			0	35881	0	0	0	29163	27770	172601	26779	1065642	45835	110843	0	0	7990	626906	0	0
2024-08-05 22:58:47			0	35899	0	0	0	29168	27780	172565	26982	1065687	45847	110845	0	0	7991	626109	0	0
2024-08-05 22:59:47			0	35888	0	0	0	29163	27770	172573	26979	1065705	45835	110843	0	0	7990	626610	0	0
2024-08-05 23:00:47			0	35912	0	0	0	29171	27760	172557	26771	1065660	45835	110846	0	0	7992	625632	0	0
2024-08-05 23:01:47			0	35916	0	0	0	29166	27770	172409	27026	1065669	45835	110844	0	0	7992	625427	0	0
2024-08-05 23:02:47			0	35925	0	0	0	29171	27780	172333	27048	1065741	45847	110846	0	0	7993	625010	0	0
2024-08-05 23:03:47			0	35943	0	0	0	29161	27760	172465	26696	1065660	45824	110842	0	0	7994	624323	0	0
2024-08-05 23:04:47			0	35937	0	0	0	29163	27760	172365	27001	1065687	45846	110843	0	0	7993	624576	0	0
2024-08-05 23:05:47			0	35935	0	0	0	29158	27770	172337	27150	1065669	45835	110841	0	0	7993	624624	0	0
2024-08-05 23:06:47			0	35934	0	0	0	29148	27770	172389	26991	1065696	45835	110837	0	0	7993	624667	0	0
2024-08-05 23:07:47			0	35942	0	0	0	29137	27750	172377	26746	1065553	45823	110833	0	0	7994	624401	0	0
2024-08-05 23:08:47			0	35936	0	0	0	29140	27760	172389	27119	1065625	45834	110834	0	0	7994	624618	0	0
2024-08-05 23:09:47			0	35919	0	0	0	29137	27750	172485	26677	1065616	45834	110833	0	0	7993	625372	0	0
2024-08-05 23:10:47			0	35898	0	0	0	29140	27760	172537	26852	1065571	45823	110834	0	0	7991	626223	0	0
2024-08-05 23:11:47			0	35880	0	0	0	29122	27760	172593	26779	1065598	45823	110827	0	0	7991	626985	0	0
2024-08-05 23:12:47			0	35850	0	0	0	29124	27750	172800	26646	1065553	45834	110828	0	0	7989	628292	0	0
2024-08-05 23:13:47			0	35826	0	0	0	29119	27740	172816	26563	1065544	45833	110826	0	0	7987	629346	0	0
2024-08-05 23:14:47			0	35850	0	0	0	29116	27730	172944	26824	1065445	45843	110825	0	0	7989	628364	0	0
2024-08-05 23:15:47			0	35833	0	0	0	29116	27740	172868	26883	1065544	45833	110825	0	0	7988	629049	0	0
2024-08-05 23:16:47			0	35822	0	0	0	29114	27740	172816	26882	1065454	45843	110824	0	0	7987	629516	0	0
2024-08-05 23:17:47			0	35823	0	0	0	29116	27740	172848	26927	1065454	45833	110825	0	0	7987	629473	0	0
2024-08-05 23:18:47			0	35832	0	0	0	29106	27730	172876	26791	1065409	45843	110821	0	0	7988	629127	0	0
2024-08-05 23:19:47			0	35815	0	0	0	29103	27730	172900	27059	1065472	45843	110820	0	0	7987	629849	0	0
2024-08-05 23:20:47			0	35838	0	0	0	29096	27730	172792	26856	1065409	45810	110817	0	0	7988	628873	0	0
2024-08-05 23:21:47			0	35893	0	0	0	29098	27720	172537	26840	1065418	45831	110818	0	0	7992	626579	0	0
2024-08-05 23:22:47			0	35930	0	0	0	29103	27720	172437	26642	1065445	45819	110820	0	0	7994	625015	0	0
2024-08-05 23:23:47			0	35949	0	0	0	29098	27710	172317	26738	1065490	45841	110818	0	0	7995	624249	0	0
2024-08-05 23:24:47			0	35963	0	0	0	29103	27720	172105	26876	1065364	45831	110820	0	0	7996	623623	0	0
2024-08-05 23:25:47			0	35990	0	0	0	29096	27710	172121	26672	1065409	45831	110817	0	0	7997	622521	0	0
2024-08-05 23:26:47			0	36004	0	0	0	29093	27710	171997	26769	1065409	45831	110816	0	0	7998	621932	0	0
2024-08-05 23:27:47			0	36028	0	0	0	29093	27710	172001	26878	1065400	45818	110816	0	0	8000	620922	0	0
2024-08-05 23:28:47			0	36027	0	0	0	29090	27710	171905	26883	1065329	45831	110815	0	0	8000	620964	0	0
2024-08-05 23:29:47			0	36029	0	0	0	29085	27710	171949	27031	1065400	45851	110813	0	0	8000	620880	0	0
2024-08-05 23:30:47			0	36040	0	0	0	29085	27710	171869	26920	1065400	45840	110813	0	0	8001	620418	0	0
2024-08-05 23:31:47			0	36058	0	0	0	29090	27710	171697	26576	1065373	45830	110815	0	0	8002	619662	0	0
2024-08-05 23:32:47			0	36075	0	0	0	29080	27690	171633	26779	1065346	45838	110811	0	0	8003	619020	0	0
2024-08-05 23:33:47			0	36082	0	0	0	29093	27700	171769	26682	1065355	45829	110816	0	0	8003	618691	0	0
2024-08-05 23:34:47			0	36104	0	0	0	29093	27700	171645	26786	1065382	45839	110816	0	0	8004	617769	0	0
2024-08-05 23:35:47			0	36093	0	0	0	29083	27700	171745	26916	1065302	45829	110812	0	0	8004	618230	0	0
2024-08-05 23:36:47			0	36097	0	0	0	29085	27700	171701	27144	1065311	45840	110813	0	0	8004	618062	0	0
2024-08-05 23:37:47			0	36069	0	0	0	29083	27690	171813	26752	1065293	45828	110812	0	0	8002	619272	0	0
2024-08-05 23:38:47			0	36070	0	0	0	29085	27690	171733	26767	1065346	45828	110813	0	0	8002	619230	0	0
2024-08-05 23:39:47			0	36076	0	0	0	29072	27710	171805	26679	1065320	45830	110808	0	0	8003	618907	0	0
2024-08-05 23:40:47			0	36078	0	0	0	29077	27690	171825	26927	1065266	45828	110810	0	0	8003	618894	0	0
2024-08-05 23:41:47			0	36045	0	0	0	29080	27680	171977	26677	1065248	45828	110811	0	0	8001	620315	0	0
2024-08-05 23:42:47			0	36063	0	0	0	29064	27680	171929	26753	1065302	45838	110805	0	0	8002	619559	0	0
2024-08-05 23:43:47			0	36034	0	0	0	29070	27680	171921	26615	1065239	45827	110807	0	0	8000	620777	0	0
2024-08-05 23:44:47			0	36021	0	0	0	29067	27680	172025	26894	1065248	45828	110806	0	0	8000	621324	0	0
2024-08-05 23:45:47			0	36019	0	0	0	29077	27670	172137	26668	1065230	45836	110810	0	0	7999	621444	0	0
2024-08-05 23:46:47			0	36009	0	0	0	29072	27680	172133	26739	1065212	45827	110808	0	0	7999	621829	0	0
2024-08-05 23:47:47			0	35988	0	0	0	29067	27680	172161	26965	1065158	45837	110806	0	0	7998	622713	0	0
2024-08-05 23:48:47			0	35996	0	0	0	29077	27680	172169	26776	1065239	45827	110810	0	0	7998	622376	0	0
2024-08-05 23:49:47			0	36006	0	0	0	29067	27680	172133	26951	1065212	45827	110806	0	0	7999	621955	0	0
2024-08-05 23:50:47			0	36004	0	0	0	29054	27670	172117	26911	1065176	45814	110801	0	0	7999	622075	0	0
2024-08-05 23:51:47			0	35984	0	0	0	29064	27670	172197	26928	1065203	45826	110805	0	0	7997	622917	0	0
2024-08-05 23:52:47			0	35992	0	0	0	29059	27670	172177	26887	1065149	45826	110803	0	0	7998	622580	0	0
2024-08-05 23:53:47			0	35981	0	0	0	29062	27670	172257	26809	1065203	45826	110804	0	0	7997	623044	0	0
2024-08-05 23:54:47			0	35980	0	0	0	29057	27660	172293	26479	1065185	45836	110802	0	0	7997	623122	0	0
2024-08-05 23:55:47			0	35978	0	0	0	29051	27680	172205	27053	1065185	45827	110800	0	0	7997	623134	0	0
2024-08-05 23:56:47			0	35978	0	0	0	29057	27670	172209	27147	1065176	45826	110802	0	0	7997	623170	0	0
2024-08-05 23:57:47			0	36001	0	0	0	29041	27660	172261	26578	1065149	45813	110796	0	0	7999	622237	0	0
2024-08-05 23:58:47			0	36001	0	0	0	29044	27650	172145	26849	1065113	45812	110797	0	0	7999	622273	0	0
2024-08-05 23:59:47			0	35999	0	0	0	29044	27660	172221	26941	1065122	45825	110797	0	0	7999	622321	0	0
2024-08-06 00:00:47			0	35983	0	0	0	29049	27660	172201	26611	1065122	45825	110799	0	0	7998	622995	0	0
2024-08-06 00:01:47			0	36000	0	0	0	29051	27660	172225	26994	1065158	45826	110800	0	0	7999	622279	0	0
2024-08-06 00:02:47			0	35998	0	0	0	29046	27650	172189	26963	1065023	45812	110798	0	0	7998	622399	0	0
2024-08-06 00:03:47			0	36002	0	0	0	29033	27650	172113	27029	1065113	45824	110793	0	0	7999	622231	0	0
2024-08-06 00:04:47			0	36011	0	0	0	29041	27650	172113	26765	1065023	45824	110796	0	0	7999	621852	0	0
2024-08-06 00:05:47			0	36015	0	0	0	29028	27650	171989	26932	1065077	45824	110791	0	0	8000	621684	0	0
2024-08-06 00:06:47			0	36021	0	0	0	29036	27630	172085	26842	1065077	45833	110794	0	0	8000	621503	0	0
2024-08-06 00:07:47			0	36041	0	0	0	29033	27650	171973	26547	1065050	45824	110793	0	0	8001	620590	0	0
2024-08-06 00:08:47			0	36048	0	0	0	29033	27640	172049	26741	1065032	45833	110793	0	0	8002	620332	0	0
2024-08-06 00:09:47			0	36050	0	0	0	29020	27630	172073	26986	1064996	45833	110788	0	0	8002	620284	0	0
2024-08-06 00:10:47			0	36070	0	0	0	29023	27640	172053	26991	1065041	45823	110789	0	0	8003	619408	0	0
2024-08-06 00:11:47			0	36055	0	0	0	29023	27630	172073	26705	1064987	45833	110789	0	0	8002	620074	0	0
2024-08-06 00:12:47			0	36036	0	0	0	29007	27630	172009	26745	1065014	45799	110783	0	0	8001	620872	0	0
2024-08-06 00:13:47			0	36062	0	0	0	29010	27630	171853	26779	1064987	45822	110784	0	0	8003	619780	0	0
2024-08-06 00:14:47			0	36072	0	0	0	29007	27620	171713	26902	1064969	45821	110783	0	0	8003	619396	0	0
2024-08-06 00:15:47			0	36077	0	0	0	28999	27620	171769	26327	1064924	45832	110780	0	0	8004	619186	0	0
2024-08-06 00:16:47			0	36085	0	0	0	29007	27630	171729	26658	1064960	45822	110783	0	0	8004	618815	0	0
2024-08-06 00:17:47			0	36093	0	0	0	29012	27620	171785	26505	1064978	45832	110785	0	0	8005	618515	0	0
2024-08-06 00:18:47			0	36082	0	0	0	29005	27620	171777	26530	1064924	45843	110782	0	0	8004	618976	0	0
2024-08-06 00:19:47			0	36059	0	0	0	29007	27610	171777	26916	1064960	45820	110783	0	0	8003	619977	0	0
2024-08-06 00:20:47			0	36081	0	0	0	29002	27610	171773	26731	1064906	45808	110781	0	0	8004	619054	0	0
2024-08-06 00:21:47			0	36094	0	0	0	28999	27620	171877	26956	1064942	45832	110780	0	0	8005	618473	0	0
2024-08-06 00:22:47			0	36098	0	0	0	28994	27610	171773	26648	1064906	45820	110778	0	0	8005	618341	0	0
2024-08-06 00:23:47			0	36092	0	0	0	28992	27600	171713	26479	1064888	45830	110777	0	0	8005	618628	0	0
2024-08-06 00:24:47			0	36105	0	0	0	28992	27610	171749	27001	1064897	45852	110777	0	0	8006	618047	0	0
2024-08-06 00:25:47			0	36108	0	0	0	28992	27600	171697	26693	1064853	45830	110777	0	0	8006	617957	0	0
2024-08-06 00:26:47			0	36084	0	0	0	28992	27600	171749	26840	1064808	45819	110777	0	0	8004	618963	0	0
2024-08-06 00:27:47			0	36096	0	0	0	28997	27600	171829	26816	1064880	45819	110779	0	0	8005	618460	0	0
2024-08-06 00:28:47			0	36103	0	0	0	28992	27590	171781	26790	1064817	45829	110777	0	0	8005	618202	0	0
2024-08-06 00:29:47			0	36093	0	0	0	28992	27600	171973	26616	1064835	45819	110777	0	0	8005	618586	0	0
2024-08-06 00:30:47			0	36093	0	0	0	28997	27590	171817	26830	1064871	45806	110779	0	0	8005	618622	0	0
2024-08-06 00:31:47			0	36099	0	0	0	28986	27600	171665	27069	1064853	45819	110775	0	0	8005	618334	0	0
2024-08-06 00:32:47			0	36097	0	0	0	28999	27590	171817	26944	1064862	45839	110780	0	0	8005	618454	0	0
2024-08-06 00:33:47			0	36102	0	0	0	28994	27600	171761	26944	1064835	45807	110778	0	0	8005	618209	0	0
2024-08-06 00:34:47			0	36092	0	0	0	28989	27600	171881	26701	1064880	45819	110776	0	0	8005	618628	0	0
2024-08-06 00:35:47			0	36076	0	0	0	28992	27590	171809	26776	1064844	45829	110777	0	0	8004	619335	0	0
2024-08-06 00:36:47			0	36066	0	0	0	28984	27590	171937	27062	1064817	45818	110774	0	0	8003	619754	0	0
2024-08-06 00:37:47			0	36065	0	0	0	28984	27590	171961	26915	1064754	45828	110774	0	0	8003	619796	0	0
2024-08-06 00:38:47			0	36046	0	0	0	28981	27590	172037	27060	1064709	45829	110773	0	0	8002	620594	0	0
2024-08-06 00:39:47			0	36055	0	0	0	28984	27590	172057	26878	1064835	45817	110774	0	0	8003	620216	0	0
2024-08-06 00:40:47			0	36035	0	0	0	28984	27590	172033	26651	1064808	45817	110774	0	0	8001	621057	0	0
2024-08-06 00:41:47			0	36056	0	0	0	28973	27580	172069	26942	1064772	45817	110770	0	0	8003	620210	0	0
2024-08-06 00:42:47			0	36026	0	0	0	28968	27580	172109	27182	1064718	45817	110768	0	0	8001	621471	0	0
2024-08-06 00:43:47			0	36033	0	0	0	28973	27590	172089	27060	1064700	45828	110770	0	0	8002	621141	0	0
2024-08-06 00:44:47			0	36016	0	0	0	28973	27580	172073	26967	1064745	45828	110770	0	0	8000	621892	0	0
2024-08-06 00:45:47			0	36023	0	0	0	28979	27580	172161	26807	1064709	45827	110772	0	0	8001	621597	0	0
2024-08-06 00:46:47			0	36027	0	0	0	28973	27580	172069	26639	1064763	45827	110770	0	0	8001	621429	0	0
2024-08-06 00:47:47			0	36035	0	0	0	28976	27580	172069	26722	1064682	45827	110771	0	0	8002	621093	0	0
2024-08-06 00:48:47			0	36032	0	0	0	28966	27570	172189	26830	1064754	45804	110767	0	0	8001	621255	0	0
2024-08-06 00:49:47			0	36014	0	0	0	28981	27570	172185	26785	1064745	45826	110773	0	0	8000	622012	0	0
2024-08-06 00:50:47			0	35986	0	0	0	28968	27570	172269	26805	1064754	45827	110768	0	0	7999	623191	0	0
2024-08-06 00:51:47			0	36024	0	0	0	28981	27570	172153	26790	1064754	45816	110773	0	0	8001	621591	0	0
2024-08-06 00:52:47			0	36006	0	0	0	28973	27580	172229	26935	1064682	45827	110770	0	0	8000	622313	0	0
2024-08-06 00:53:47			0	36002	0	0	0	28973	27570	172365	26790	1064673	45816	110770	0	0	8000	622517	0	0
2024-08-06 00:54:47			0	36013	0	0	0	28953	27580	172165	26654	1064628	45816	110762	0	0	8001	622018	0	0
2024-08-06 00:55:47			0	36013	0	0	0	28955	27580	172161	26651	1064628	45816	110763	0	0	8001	622018	0	0
2024-08-06 00:56:47			0	36014	0	0	0	28948	27560	172197	27007	1064575	45815	110760	0	0	8001	622048	0	0
2024-08-06 00:57:47			0	36034	0	0	0	28950	27570	172177	26561	1064620	45816	110761	0	0	8002	621170	0	0
2024-08-06 00:58:47			0	36000	0	0	0	28942	27570	172221	26811	1064584	45815	110758	0	0	8000	622602	0	0
2024-08-06 00:59:47			0	36003	0	0	0	28937	27560	172305	26670	1064602	45826	110756	0	0	8000	622511	0	0
2024-08-06 01:00:47			0	35998	0	0	0	28937	27560	172229	26486	1064593	45825	110756	0	0	8000	622722	0	0
2024-08-06 01:01:47			0	36011	0	0	0	28948	27560	172169	26712	1064602	45826	110760	0	0	8000	622174	0	0
2024-08-06 01:02:47			0	36014	0	0	0	28935	27550	172181	26863	1064521	45813	110755	0	0	8001	622084	0	0
2024-08-06 01:03:47			0	35994	0	0	0	28935	27550	172265	26875	1064521	45801	110755	0	0	8000	622926	0	0
2024-08-06 01:04:47			0	35999	0	0	0	28924	27550	172297	26625	1064467	45813	110751	0	0	8000	622715	0	0
2024-08-06 01:05:47			0	35983	0	0	0	28911	27540	172245	26790	1064512	45835	110746	0	0	7999	623425	0	0
2024-08-06 01:06:47			0	35985	0	0	0	28906	27540	172429	26653	1064431	45813	110744	0	0	8000	623341	0	0
2024-08-06 01:07:47			0	35955	0	0	0	28911	27540	172429	26965	1064431	45824	110746	0	0	7998	624607	0	0
2024-08-06 01:08:47			0	35964	0	0	0	28906	27540	172505	26814	1064395	45812	110744	0	0	7998	624227	0	0
2024-08-06 01:09:47			0	35968	0	0	0	28903	27530	172393	26993	1064440	45823	110743	0	0	7998	624094	0	0
2024-08-06 01:10:47			0	35941	0	0	0	28893	27530	172537	26661	1064359	45800	110739	0	0	7997	625234	0	0
2024-08-06 01:11:47			0	35929	0	0	0	28896	27530	172473	26693	1064413	45834	110740	0	0	7996	625741	0	0
2024-08-06 01:12:47			0	35945	0	0	0	28880	27520	172593	26651	1064314	45821	110734	0	0	7997	625101	0	0
2024-08-06 01:13:47			0	35924	0	0	0	28880	27530	172625	26719	1064404	45822	110734	0	0	7996	625953	0	0
2024-08-06 01:14:47			0	35918	0	0	0	28885	27510	172685	26994	1064278	45810	110736	0	0	7996	626279	0	0
2024-08-06 01:15:47			0	35927	0	0	0	28883	27510	172665	26817	1064386	45833	110735	0	0	7996	625898	0	0
2024-08-06 01:16:47			0	35931	0	0	0	28880	27510	172609	26939	1064386	45821	110734	0	0	7997	625729	0	0
2024-08-06 01:17:47			0	35918	0	0	0	28880	27510	172765	26975	1064350	45809	110734	0	0	7996	626279	0	0
2024-08-06 01:18:47			0	35894	0	0	0	28880	27500	172741	26785	1064314	45809	110734	0	0	7994	627331	0	0
2024-08-06 01:19:47			0	35897	0	0	0	28880	27500	172885	26762	1064261	45820	110734	0	0	7994	627204	0	0
2024-08-06 01:20:47			0	35898	0	0	0	28870	27500	172821	26682	1064261	45809	110730	0	0	7995	627161	0	0
2024-08-06 01:21:47			0	35908	0	0	0	28867	27500	172805	26493	1064225	45808	110729	0	0	7995	626738	0	0
2024-08-06 01:22:47			0	35859	0	0	0	28864	27500	173037	26710	1064234	45820	110728	0	0	7992	628814	0	0
2024-08-06 01:23:47			0	35848	0	0	0	28870	27490	173092	27053	1064243	45796	110730	0	0	7992	629318	0	0
2024-08-06 01:24:47			0	35841	0	0	0	28846	27500	173072	26753	1064225	45808	110721	0	0	7992	629579	0	0
2024-08-06 01:25:47			0	35842	0	0	0	28831	27490	173204	26790	1064207	45807	110715	0	0	7992	629572	0	0
2024-08-06 01:26:47			0	35845	0	0	0	28833	27470	173100	26996	1064045	45806	110716	0	0	7992	629517	0	0
2024-08-06 01:27:47			0	35808	0	0	0	28812	27470	173204	26781	1064045	45795	110708	0	0	7990	631090	0	0
2024-08-06 01:28:47			0	35816	0	0	0	28820	27460	173304	26698	1064081	45793	110711	0	0	7990	630786	0	0
2024-08-06 01:29:47			0	35823	0	0	0	28810	27460	173228	26701	1064019	45815	110707	0	0	7991	630488	0	0
2024-08-06 01:30:47			0	35834	0	0	0	28818	27450	173320	26609	1064063	45793	110710	0	0	7991	630057	0	0
2024-08-06 01:31:47			0	35826	0	0	0	28818	27440	173316	26639	1063992	45802	110710	0	0	7991	630433	0	0
2024-08-06 01:32:47			0	35833	0	0	0	28828	27460	173204	26790	1064045	45804	110714	0	0	7991	630063	0	0
2024-08-06 01:33:47			0	35829	0	0	0	28823	27450	173344	27026	1063956	45804	110712	0	0	7991	630270	0	0
2024-08-06 01:34:47			0	35827	0	0	0	28828	27450	173272	26883	1063974	45814	110714	0	0	7991	630355	0	0
2024-08-06 01:35:47			0	35846	0	0	0	28820	27440	173228	26817	1063938	45802	110711	0	0	7992	629583	0	0
2024-08-06 01:36:47			0	35831	0	0	0	28825	27440	173244	26816	1063911	45802	110713	0	0	7991	630221	0	0
2024-08-06 01:37:47			0	35825	0	0	0	28823	27450	173376	26902	1063974	45792	110712	0	0	7991	630439	0	0
2024-08-06 01:38:47			0	35828	0	0	0	28833	27430	173124	26802	1063974	45825	110716	0	0	7991	630384	0	0
2024-08-06 01:39:47			0	35857	0	0	0	28823	27440	173152	26817	1064019	45813	110712	0	0	7993	629116	0	0
2024-08-06 01:40:47			0	35844	0	0	0	28818	27440	173204	26745	1063983	45802	110710	0	0	7992	629668	0	0
2024-08-06 01:41:47			0	35868	0	0	0	28820	27430	173145	26800	1063965	45812	110711	0	0	7993	628686	0	0
2024-08-06 01:42:47			0	35866	0	0	0	28823	27440	173125	26746	1063929	45835	110712	0	0	7993	628734	0	0
2024-08-06 01:43:47			0	35853	0	0	0	28820	27430	173240	26545	1063920	45813	110711	0	0	7992	629322	0	0
2024-08-06 01:44:47			0	35853	0	0	0	28828	27430	173128	26701	1063974	45802	110714	0	0	7992	629322	0	0
2024-08-06 01:45:47			0	35888	0	0	0	28825	27430	173133	26892	1063947	45802	110713	0	0	7994	627838	0	0
2024-08-06 01:46:47			0	35888	0	0	0	28818	27420	173065	26821	1063848	45811	110710	0	0	7994	627874	0	0
2024-08-06 01:47:47			0	35871	0	0	0	28818	27420	173121	27045	1063902	45800	110710	0	0	7993	628595	0	0
2024-08-06 01:48:47			0	35876	0	0	0	28810	27420	173097	26628	1063821	45823	110707	0	0	7994	628382	0	0
2024-08-06 01:49:47			0	35892	0	0	0	28812	27420	173145	26507	1063902	45811	110708	0	0	7995	627704	0	0
2024-08-06 01:50:47			0	35873	0	0	0	28802	27420	173161	26816	1063848	45823	110704	0	0	7994	628510	0	0
2024-08-06 01:51:47			0	35898	0	0	0	28805	27410	173085	26698	1063884	45799	110705	0	0	7995	627486	0	0
2024-08-06 01:52:47			0	35921	0	0	0	28810	27420	173109	26715	1063866	45800	110707	0	0	7997	626476	0	0
2024-08-06 01:53:47			0	35932	0	0	0	28797	27420	172977	26505	1063839	45800	110702	0	0	7998	626011	0	0
2024-08-06 01:54:47			0	35910	0	0	0	28786	27410	173029	26634	1063794	45810	110698	0	0	7996	626978	0	0
2024-08-06 01:55:47			0	35904	0	0	0	28789	27410	172981	26594	1063803	45810	110699	0	0	7996	627232	0	0
2024-08-06 01:56:47			0	35930	0	0	0	28779	27410	173001	26750	1063740	45810	110695	0	0	7998	626131	0	0
2024-08-06 01:57:47			0	35938	0	0	0	28781	27400	172853	26519	1063785	45798	110696	0	0	7998	625829	0	0
2024-08-06 01:58:47			0	35929	0	0	0	28766	27390	172889	26897	1063714	45797	110690	0	0	7998	626245	0	0
2024-08-06 01:59:47			0	35947	0	0	0	28753	27390	172877	26922	1063705	45820	110685	0	0	7999	625484	0	0
2024-08-06 02:00:47			0	35969	0	0	0	28748	27380	172813	26760	1063669	45807	110683	0	0	8000	624590	0	0
2024-08-06 02:01:47			0	35951	0	0	0	28742	27380	172841	26866	1063669	45807	110681	0	0	7999	625351	0	0
2024-08-06 02:02:47			0	35931	0	0	0	28737	27380	173029	26759	1063615	45796	110679	0	0	7998	626197	0	0
2024-08-06 02:03:47			0	35896	0	0	0	28724	27370	173097	26826	1063615	45795	110674	0	0	7996	627715	0	0
2024-08-06 02:04:47			0	35851	0	0	0	28732	27360	173276	26785	1063606	45805	110677	0	0	7993	629660	0	0
2024-08-06 02:05:47			0	35788	0	0	0	28737	27370	173776	26934	1063615	45806	110679	0	0	7990	632305	0	0
2024-08-06 02:06:47			0	35720	0	0	0	28732	27370	173948	26694	1063597	45795	110677	0	0	7985	635206	0	0
2024-08-06 02:07:47			0	35691	0	0	0	28740	27360	173984	26824	1063597	45804	110680	0	0	7983	636484	0	0
2024-08-06 02:08:47			0	35693	0	0	0	28735	27350	173916	26994	1063472	45783	110678	0	0	7984	636435	0	0
2024-08-06 02:09:47			0	35680	0	0	0	28729	27360	174084	27020	1063597	45804	110676	0	0	7983	636955	0	0
2024-08-06 02:10:47			0	35667	0	0	0	28732	27360	174276	26975	1063543	45793	110677	0	0	7982	637512	0	0
2024-08-06 02:11:47			0	35652	0	0	0	28737	27350	174108	26873	1063534	45816	110679	0	0	7981	638191	0	0
2024-08-06 02:12:47			0	35643	0	0	0	28745	27350	174264	26623	1063498	45816	110682	0	0	7980	638578	0	0
2024-08-06 02:13:47			0	35626	0	0	0	28742	27350	174396	26913	1063579	45816	110681	0	0	7979	639307	0	0
2024-08-06 02:14:47			0	35643	0	0	0	28740	27350	174300	26649	1063552	45804	110680	0	0	7980	638578	0	0
2024-08-06 02:15:47			0	35632	0	0	0	28750	27360	174320	26736	1063597	45804	110684	0	0	7980	639013	0	0
2024-08-06 02:16:47			0	35647	0	0	0	28742	27350	174292	26804	1063579	45804	110681	0	0	7981	638406	0	0
2024-08-06 02:17:47			0	35659	0	0	0	28750	27350	174288	26797	1063552	45827	110684	0	0	7981	637891	0	0
2024-08-06 02:18:47			0	35673	0	0	0	28748	27350	174060	26760	1063534	45816	110683	0	0	7982	637291	0	0
2024-08-06 02:19:47			0	35704	0	0	0	28750	27350	174052	26885	1063561	45816	110684	0	0	7984	635964	0	0
2024-08-06 02:20:47			0	35700	0	0	0	28745	27350	173992	26580	1063615	45816	110682	0	0	7984	636135	0	0
2024-08-06 02:21:47			0	35703	0	0	0	28742	27350	174068	26646	1063552	45804	110681	0	0	7984	636007	0	0
2024-08-06 02:22:47			0	35716	0	0	0	28745	27350	173980	26741	1063525	45783	110682	0	0	7985	635451	0	0
2024-08-06 02:23:47			0	35729	0	0	0	28737	27350	173876	26776	1063588	45804	110679	0	0	7986	634895	0	0
2024-08-06 02:24:47			0	35722	0	0	0	28737	27340	173932	26802	1063490	45792	110679	0	0	7985	635231	0	0
2024-08-06 02:25:47			0	35732	0	0	0	28750	27340	173892	26993	1063561	45791	110684	0	0	7986	634803	0	0
2024-08-06 02:26:47			0	35779	0	0	0	28742	27350	173700	26856	1063606	45804	110681	0	0	7989	632761	0	0
2024-08-06 02:27:47			0	35755	0	0	0	28737	27360	173768	26765	1063570	45804	110679	0	0	7987	633748	0	0
2024-08-06 02:28:47			0	35730	0	0	0	28745	27360	173848	26715	1063597	45804	110682	0	0	7986	634816	0	0
2024-08-06 02:29:47			0	35714	0	0	0	28740	27350	174084	26845	1063606	45793	110680	0	0	7985	635536	0	0
2024-08-06 02:30:47			0	35756	0	0	0	28742	27340	173872	26925	1063516	45804	110681	0	0	7987	633778	0	0
2024-08-06 02:31:47			0	35761	0	0	0	28735	27340	173736	27034	1063543	45792	110678	0	0	7988	633565	0	0
2024-08-06 02:32:47			0	35748	0	0	0	28737	27340	173800	27105	1063516	45792	110679	0	0	7987	634120	0	0
2024-08-06 02:33:47			0	35738	0	0	0	28732	27340	173872	26698	1063507	45803	110677	0	0	7986	634547	0	0
2024-08-06 02:34:47			0	35740	0	0	0	28729	27340	173756	27005	1063490	45792	110676	0	0	7987	634461	0	0
2024-08-06 02:35:47			0	35727	0	0	0	28729	27340	174044	26965	1063490	45804	110676	0	0	7986	635017	0	0
2024-08-06 02:36:47			0	35743	0	0	0	28722	27330	173988	26701	1063445	45802	110673	0	0	7987	634370	0	0
2024-08-06 02:37:47			0	35726	0	0	0	28729	27340	173940	26953	1063516	45792	110676	0	0	7986	635059	0	0
2024-08-06 02:38:47			0	35728	0	0	0	28722	27330	174004	26993	1063463	45791	110673	0	0	7986	635011	0	0
2024-08-06 02:39:47			0	35736	0	0	0	28719	27340	174020	27053	1063507	45791	110672	0	0	7986	634632	0	0
2024-08-06 02:40:47			0	35755	0	0	0	28724	27340	173904	26646	1063516	45792	110674	0	0	7988	633821	0	0
2024-08-06 02:41:47			0	35769	0	0	0	28722	27330	173704	26984	1063409	45791	110673	0	0	7988	633260	0	0
2024-08-06 02:42:47			0	35760	0	0	0	28716	27330	173700	26764	1063436	45791	110671	0	0	7988	633644	0	0
2024-08-06 02:43:47			0	35774	0	0	0	28722	27330	173764	26606	1063499	45791	110673	0	0	7989	633047	0	0
2024-08-06 02:44:47			0	35765	0	0	0	28716	27330	173708	26679	1063445	45802	110671	0	0	7988	633431	0	0
2024-08-06 02:45:47			0	35816	0	0	0	28716	27330	173576	26658	1063418	45791	110671	0	0	7991	631257	0	0
2024-08-06 02:46:47			0	35813	0	0	0	28706	27310	173484	26960	1063301	45800	110667	0	0	7991	631458	0	0
2024-08-06 02:47:47			0	35801	0	0	0	28711	27310	173564	27086	1063355	45811	110669	0	0	7990	631969	0	0
2024-08-06 02:48:47			0	35793	0	0	0	28703	27310	173644	26571	1063409	45789	110666	0	0	7990	632309	0	0
2024-08-06 02:49:47			0	35784	0	0	0	28706	27330	173520	26908	1063409	45791	110667	0	0	7990	632620	0	0
2024-08-06 02:50:47			0	35767	0	0	0	28696	27310	173604	27088	1063301	45789	110663	0	0	7989	633418	0	0
2024-08-06 02:51:47			0	35751	0	0	0	28701	27320	173744	27022	1063391	45790	110665	0	0	7988	634065	0	0
2024-08-06 02:52:47			0	35755	0	0	0	28693	27310	173736	26644	1063328	45800	110662	0	0	7988	633930	0	0
2024-08-06 02:53:47			0	35741	0	0	0	28685	27300	173712	26720	1063328	45799	110659	0	0	7987	634564	0	0
2024-08-06 02:54:47			0	35741	0	0	0	28688	27300	173812	26887	1063382	45788	110660	0	0	7987	634564	0	0
2024-08-06 02:55:47			0	35723	0	0	0	28693	27300	173736	26838	1063301	45799	110662	0	0	7986	635334	0	0
2024-08-06 02:56:47			0	35735	0	0	0	28683	27290	173712	26634	1063292	45798	110658	0	0	7987	634857	0	0
2024-08-06 02:57:47			0	35731	0	0	0	28672	27300	173724	26767	1063221	45799	110654	0	0	7987	634992	0	0
2024-08-06 02:58:47			0	35735	0	0	0	28680	27300	173636	26876	1063257	45811	110657	0	0	7987	634821	0	0
2024-08-06 02:59:47			0	35769	0	0	0	28670	27290	173664	26413	1063203	45798	110653	0	0	7989	633405	0	0
2024-08-06 03:00:47			0	35766	0	0	0	28670	27290	173640	26615	1063283	45798	110653	0	0	7989	633534	0	0
2024-08-06 03:01:47			0	35804	0	0	0	28675	27290	173416	26939	1063266	45798	110655	0	0	7991	631913	0	0
2024-08-06 03:02:47			0	35828	0	0	0	28675	27280	173320	26840	1063167	45798	110655	0	0	7993	630928	0	0
2024-08-06 03:03:47			0	35863	0	0	0	28670	27290	173205	26752	1063203	45787	110653	0	0	7995	629404	0	0
2024-08-06 03:04:47			0	35870	0	0	0	28675	27290	173137	26837	1063257	45798	110655	0	0	7995	629107	0	0
2024-08-06 03:05:47			0	35884	0	0	0	28677	27280	173085	26582	1063211	45786	110656	0	0	7996	628549	0	0
2024-08-06 03:06:47			0	35887	0	0	0	28683	27280	173033	26689	1063247	45798	110658	0	0	7996	628421	0	0
2024-08-06 03:07:47			0	35865	0	0	0	28664	27280	173121	26890	1063274	45798	110651	0	0	7995	629355	0	0
2024-08-06 03:08:47			0	35863	0	0	0	28667	27270	173185	26956	1063229	45785	110652	0	0	7995	629476	0	0
2024-08-06 03:09:47			0	35858	0	0	0	28680	27280	173253	26856	1063238	45797	110657	0	0	7994	629653	0	0
2024-08-06 03:10:47			0	35850	0	0	0	28672	27280	173256	27092	1063238	45819	110654	0	0	7994	629993	0	0
2024-08-06 03:11:47			0	35835	0	0	0	28670	27280	173164	26637	1063185	45786	110653	0	0	7993	630630	0	0
2024-08-06 03:12:47			0	35855	0	0	0	28664	27280	173160	26956	1063185	45786	110651	0	0	7994	629780	0	0
2024-08-06 03:13:47			0	35841	0	0	0	28670	27270	173300	27046	1063203	45785	110653	0	0	7993	630411	0	0
2024-08-06 03:14:47			0	35861	0	0	0	28664	27270	173189	26934	1063203	45785	110651	0	0	7995	629561	0	0
2024-08-06 03:15:47			0	35896	0	0	0	28667	27270	172897	26885	1063167	45795	110652	0	0	7997	628076	0	0
2024-08-06 03:16:47			0	35933	0	0	0	28662	27270	172729	26791	1063176	45796	110650	0	0	7999	626508	0	0
2024-08-06 03:17:47			0	35937	0	0	0	28662	27270	172861	26824	1063176	45785	110650	0	0	7999	626339	0	0
2024-08-06 03:18:47			0	35923	0	0	0	28662	27270	172777	27098	1063149	45785	110650	0	0	7999	626931	0	0
2024-08-06 03:19:47			0	35925	0	0	0	28659	27270	172793	26864	1063113	45784	110649	0	0	7999	626847	0	0
2024-08-06 03:20:47			0	35907	0	0	0	28662	27270	172985	27036	1063140	45795	110650	0	0	7998	627609	0	0
2024-08-06 03:21:47			0	35897	0	0	0	28651	27260	172961	26904	1063185	45795	110646	0	0	7997	628069	0	0
2024-08-06 03:22:47			0	35933	0	0	0	28654	27270	172897	26837	1063113	45784	110647	0	0	7999	626508	0	0
2024-08-06 03:23:47			0	35926	0	0	0	28649	27260	172677	26824	1063158	45795	110645	0	0	7999	626841	0	0
2024-08-06 03:24:47			0	35936	0	0	0	28657	27260	172773	26805	1063104	45795	110648	0	0	7999	626417	0	0
2024-08-06 03:25:47			0	35950	0	0	0	28657	27260	172713	26734	1063104	45784	110648	0	0	8000	625825	0	0
2024-08-06 03:26:47			0	35964	0	0	0	28651	27260	172533	26734	1063158	45795	110646	0	0	8001	625233	0	0
2024-08-06 03:27:47			0	35971	0	0	0	28654	27270	172709	26830	1063167	45795	110647	0	0	8002	624901	0	0
2024-08-06 03:28:47			0	35953	0	0	0	28657	27270	172837	27031	1063167	45795	110648	0	0	8000	625662	0	0
2024-08-06 03:29:47			0	35922	0	0	0	28654	27260	172797	27013	1063095	45795	110647	0	0	7999	627010	0	0
2024-08-06 03:30:47			0	35965	0	0	0	28654	27250	172693	26890	1063140	45794	110647	0	0	8001	625226	0	0
2024-08-06 03:31:47			0	35973	0	0	0	28651	27260	172525	26783	1063068	45806	110646	0	0	8002	624852	0	0
2024-08-06 03:32:47			0	35989	0	0	0	28657	27260	172525	27173	1063212	45784	110648	0	0	8003	624176	0	0
2024-08-06 03:33:47			0	35979	0	0	0	28662	27260	172473	27095	1063095	45795	110650	0	0	8002	624599	0	0
2024-08-06 03:34:47			0	35985	0	0	0	28664	27270	172605	27149	1063113	45806	110651	0	0	8002	624309	0	0
2024-08-06 03:35:47			0	36008	0	0	0	28659	27260	172529	26970	1063131	45784	110649	0	0	8004	623375	0	0
2024-08-06 03:36:47			0	36034	0	0	0	28664	27260	172377	26925	1063122	45784	110651	0	0	8005	622278	0	0
2024-08-06 03:37:47			0	36044	0	0	0	28654	27260	172269	27123	1063149	45784	110647	0	0	8006	621857	0	0
2024-08-06 03:38:47			0	36060	0	0	0	28651	27270	172269	26750	1063140	45784	110646	0	0	8007	621148	0	0
2024-08-06 03:39:47			0	36058	0	0	0	28651	27260	172145	27086	1063131	45784	110646	0	0	8007	621268	0	0
2024-08-06 03:40:47			0	36057	0	0	0	28644	27250	172169	27057	1063113	45805	110643	0	0	8007	621346	0	0
2024-08-06 03:41:47			0	36081	0	0	0	28646	27250	172145	27027	1063086	45783	110644	0	0	8008	620336	0	0
2024-08-06 03:42:47			0	36084	0	0	0	28638	27260	172149	26715	1063077	45784	110641	0	0	8009	620175	0	0
2024-08-06 03:43:47			0	36070	0	0	0	28644	27250	172233	26892	1063059	45772	110643	0	0	8008	620799	0	0
2024-08-06 03:44:47			0	36053	0	0	0	28636	27250	172161	26731	1062996	45793	110640	0	0	8007	621514	0	0
2024-08-06 03:45:47			0	36060	0	0	0	28636	27250	172093	27062	1063050	45771	110640	0	0	8007	621219	0	0
2024-08-06 03:46:47			0	36098	0	0	0	28633	27250	172021	26857	1063077	45782	110639	0	0	8009	619622	0	0
2024-08-06 03:47:47			0	36123	0	0	0	28636	27240	171705	27071	1063068	45804	110640	0	0	8011	618608	0	0
2024-08-06 03:48:47			0	36106	0	0	0	28628	27240	171933	27168	1063068	45782	110637	0	0	8010	619321	0	0
2024-08-06 03:49:47			0	36070	0	0	0	28623	27240	172145	27003	1063005	45793	110635	0	0	8008	620834	0	0
2024-08-06 03:50:47			0	36048	0	0	0	28623	27230	172213	27178	1062996	45814	110635	0	0	8007	621796	0	0
2024-08-06 03:51:47			0	36044	0	0	0	28620	27240	172313	26918	1062952	45793	110634	0	0	8006	621929	0	0
2024-08-06 03:52:47			0	36027	0	0	0	28615	27240	172341	27085	1062987	45793	110632	0	0	8005	622645	0	0
2024-08-06 03:53:47			0	36026	0	0	0	28620	27240	172353	26845	1062952	45782	110634	0	0	8005	622687	0	0
2024-08-06 03:54:47			0	36017	0	0	0	28612	27230	172313	26993	1062961	45780	110631	0	0	8005	623102	0	0
2024-08-06 03:55:47			0	36009	0	0	0	28607	27230	172429	27069	1062907	45780	110629	0	0	8004	623440	0	0
2024-08-06 03:56:47			0	36005	0	0	0	28612	27230	172473	27076	1062943	45781	110631	0	0	8004	623608	0	0
2024-08-06 03:57:47			0	36009	0	0	0	28610	27210	172437	27071	1062880	45801	110630	0	0	8004	623511	0	0
2024-08-06 03:58:47			0	36006	0	0	0	28597	27220	172513	26601	1062925	45802	110625	0	0	8004	623602	0	0
2024-08-06 03:59:47			0	36021	0	0	0	28612	27220	172441	27159	1062898	45791	110631	0	0	8005	622969	0	0
2024-08-06 04:00:47			0	36023	0	0	0	28605	27210	172469	27118	1062889	45791	110628	0	0	8005	622921	0	0
2024-08-06 04:01:47			0	36010	0	0	0	28602	27220	172517	26870	1062925	45769	110627	0	0	8005	623434	0	0
2024-08-06 04:02:47			0	36034	0	0	0	28607	27210	172341	27199	1062907	45791	110629	0	0	8006	622457	0	0
2024-08-06 04:03:47			0	36029	0	0	0	28605	27210	172329	27225	1062907	45801	110628	0	0	8006	622668	0	0
2024-08-06 04:04:47			0	36026	0	0	0	28597	27220	172353	27086	1062844	45780	110625	0	0	8006	622759	0	0
2024-08-06 04:05:47			0	36040	0	0	0	28602	27210	172465	26731	1062943	45802	110627	0	0	8006	622204	0	0
2024-08-06 04:06:47			0	36056	0	0	0	28597	27200	172381	26866	1062817	45778	110625	0	0	8007	621566	0	0
2024-08-06 04:07:47			0	36067	0	0	0	28592	27210	172313	26823	1062880	45791	110623	0	0	8008	621068	0	0
2024-08-06 04:08:47			0	36072	0	0	0	28602	27200	172233	27031	1062862	45777	110627	0	0	8008	620893	0	0
2024-08-06 04:09:47			0	36081	0	0	0	28589	27200	172221	27116	1062844	45778	110622	0	0	8009	620514	0	0
2024-08-06 04:10:47			0	36075	0	0	0	28607	27200	172101	27013	1062817	45790	110629	0	0	8008	620767	0	0
2024-08-06 04:11:47			0	36093	0	0	0	28599	27200	172129	27066	1062871	45790	110626	0	0	8010	620010	0	0
2024-08-06 04:12:47			0	36089	0	0	0	28605	27200	171985	27118	1062808	45777	110628	0	0	8009	620178	0	0
2024-08-06 04:13:47			0	36083	0	0	0	28597	27200	172049	27022	1062844	45778	110625	0	0	8009	620430	0	0
2024-08-06 04:14:47			0	36127	0	0	0	28605	27200	171945	27076	1062808	45789	110628	0	0	8011	618582	0	0
2024-08-06 04:15:47			0	36128	0	0	0	28599	27200	171897	27196	1062898	45790	110626	0	0	8012	618540	0	0
2024-08-06 04:16:47			0	36138	0	0	0	28597	27200	171813	27242	1062898	45778	110625	0	0	8012	618121	0	0
2024-08-06 04:17:47			0	36133	0	0	0	28605	27190	171789	26989	1062826	45799	110628	0	0	8012	618366	0	0
2024-08-06 04:18:47			0	36158	0	0	0	28599	27200	171849	26934	1062871	45790	110626	0	0	8013	617282	0	0
2024-08-06 04:19:47			0	36164	0	0	0	28607	27210	171689	26764	1062880	45801	110629	0	0	8014	616996	0	0
2024-08-06 04:20:47			0	36179	0	0	0	28602	27200	171721	27102	1062871	45790	110627	0	0	8015	616403	0	0
2024-08-06 04:21:47			0	36187	0	0	0	28607	27200	171657	26873	1062835	45777	110629	0	0	8015	616068	0	0
2024-08-06 04:22:47			0	36195	0	0	0	28605	27200	171585	26908	1062898	45800	110628	0	0	8016	615734	0	0
2024-08-06 04:23:47			0	36184	0	0	0	28602	27210	171613	26552	1062880	45801	110627	0	0	8015	616159	0	0
2024-08-06 04:24:47			0	36180	0	0	0	28599	27200	171761	26897	1062916	45789	110626	0	0	8015	616361	0	0
2024-08-06 04:25:47			0	36161	0	0	0	28594	27200	171861	26622	1062808	45789	110624	0	0	8014	617157	0	0
2024-08-06 04:26:47			0	36183	0	0	0	28597	27180	171657	26856	1062808	45788	110625	0	0	8015	616306	0	0
2024-08-06 04:27:47			0	36214	0	0	0	28589	27200	171449	26908	1062808	45789	110622	0	0	8017	614939	0	0
2024-08-06 04:28:47			0	36223	0	0	0	28592	27200	171601	26904	1062844	45790	110623	0	0	8017	614563	0	0
2024-08-06 04:29:47			0	36202	0	0	0	28584	27190	171657	26767	1062790	45789	110620	0	0	8016	615476	0	0
2024-08-06 04:30:47			0	36176	0	0	0	28584	27190	171705	26866	1062826	45789	110620	0	0	8015	616564	0	0
2024-08-06 04:31:47			0	36150	0	0	0	28573	27190	171713	26875	1062790	45789	110616	0	0	8013	617653	0	0
2024-08-06 04:32:47			0	36147	0	0	0	28573	27180	171937	26873	1062728	45776	110616	0	0	8013	617814	0	0
2024-08-06 04:33:47			0	36152	0	0	0	28568	27180	171841	26791	1062746	45775	110614	0	0	8013	617605	0	0
2024-08-06 04:34:47			0	36154	0	0	0	28571	27180	171933	27166	1062665	45775	110615	0	0	8014	617521	0	0
2024-08-06 04:35:47			0	36171	0	0	0	28571	27180	171793	26850	1062701	45788	110615	0	0	8015	616809	0	0
2024-08-06 04:36:47			0	36158	0	0	0	28571	27180	171937	26791	1062781	45788	110615	0	0	8014	617353	0	0
2024-08-06 04:37:47			0	36152	0	0	0	28571	27190	171885	26595	1062737	45799	110615	0	0	8013	617569	0	0
2024-08-06 04:38:47			0	36172	0	0	0	28571	27180	171821	26642	1062719	45797	110615	0	0	8015	616767	0	0
2024-08-06 04:39:47			0	36158	0	0	0	28568	27180	171885	26916	1062692	45787	110614	0	0	8014	617353	0	0
2024-08-06 04:40:47			0	36158	0	0	0	28563	27180	171777	26928	1062701	45788	110612	0	0	8014	617353	0	0
2024-08-06 04:41:47			0	36174	0	0	0	28555	27180	171757	26838	1062611	45787	110609	0	0	8015	616683	0	0
2024-08-06 04:42:47			0	36179	0	0	0	28561	27170	171765	27003	1062629	45775	110611	0	0	8015	616509	0	0
2024-08-06 04:43:47			0	36183	0	0	0	28548	27170	171717	26811	1062575	45797	110606	0	0	8016	616342	0	0
2024-08-06 04:44:47			0	36172	0	0	0	28540	27170	171661	26949	1062593	45775	110603	0	0	8015	616802	0	0
2024-08-06 04:45:47			0	36160	0	0	0	28540	27160	171789	26583	1062548	45795	110603	0	0	8014	617340	0	0
2024-08-06 04:46:47			0	36172	0	0	0	28529	27150	171785	26901	1062485	45785	110599	0	0	8015	616873	0	0
2024-08-06 04:47:47			0	36161	0	0	0	28532	27160	171753	26786	1062602	45773	110600	0	0	8015	617298	0	0
2024-08-06 04:48:47			0	36184	0	0	0	28529	27150	171801	27033	1062503	45773	110599	0	0	8016	616371	0	0
2024-08-06 04:49:47			0	36200	0	0	0	28532	27160	171593	26837	1062548	45773	110600	0	0	8017	615666	0	0
2024-08-06 04:50:47			0	36196	0	0	0	28529	27150	171629	26689	1062485	45785	110599	0	0	8017	615869	0	0
2024-08-06 04:51:47			0	36198	0	0	0	28537	27160	171729	26696	1062575	45785	110602	0	0	8017	615749	0	0
2024-08-06 04:52:47			0	36211	0	0	0	28535	27150	171677	26686	1062539	45773	110601	0	0	8017	615241	0	0
2024-08-06 04:53:47			0	36229	0	0	0	28532	27150	171665	26833	1062477	45785	110600	0	0	8019	614489	0	0
2024-08-06 04:54:47			0	36247	0	0	0	28532	27150	171533	26665	1062530	45785	110600	0	0	8020	613738	0	0
2024-08-06 04:55:47			0	36250	0	0	0	28537	27140	171541	26835	1062468	45784	110602	0	0	8020	613648	0	0
2024-08-06 04:56:47			0	36266	0	0	0	28532	27140	171301	26656	1062548	45772	110600	0	0	8021	612980	0	0
2024-08-06 04:57:47			0	36269	0	0	0	28535	27140	171353	26909	1062521	45772	110601	0	0	8021	612855	0	0
2024-08-06 04:58:47			0	36271	0	0	0	28522	27150	171305	26786	1062530	45785	110596	0	0	8021	612737	0	0
2024-08-06 04:59:47			0	36278	0	0	0	28532	27140	171365	26802	1062539	45771	110600	0	0	8021	612480	0	0
2024-08-06 05:00:47			0	36248	0	0	0	28532	27140	171481	26786	1062512	45793	110600	0	0	8020	613731	0	0
2024-08-06 05:01:47			0	36138	0	0	0	28527	27140	171869	26774	1062468	45772	110598	0	0	8013	618334	0	0
2024-08-06 05:02:47			0	36016	0	0	0	28524	27130	172497	26752	1062468	45792	110597	0	0	8006	623502	0	0
2024-08-06 05:03:47			0	35957	0	0	0	28532	27140	172933	26712	1062512	45783	110600	0	0	8002	625960	0	0
2024-08-06 05:04:47			0	35884	0	0	0	28527	27130	172997	26724	1062504	45805	110598	0	0	7998	629090	0	0
2024-08-06 05:05:47			0	35924	0	0	0	28529	27130	172953	26790	1062495	45782	110599	0	0	8000	627393	0	0
2024-08-06 05:06:47			0	35952	0	0	0	28522	27140	172837	27034	1062512	45760	110596	0	0	8002	626171	0	0
2024-08-06 05:07:47			0	35959	0	0	0	28540	27140	172853	26913	1062512	45783	110603	0	0	8002	625875	0	0
2024-08-06 05:08:47			0	35949	0	0	0	28542	27130	172737	26682	1062548	45782	110604	0	0	8001	626334	0	0
2024-08-06 05:09:47			0	35969	0	0	0	28540	27140	172725	26816	1062486	45771	110603	0	0	8003	625452	0	0
2024-08-06 05:10:47			0	35974	0	0	0	28548	27140	172761	26804	1062539	45793	110606	0	0	8003	625241	0	0
2024-08-06 05:11:47			0	36001	0	0	0	28540	27130	172653	26842	1062530	45783	110603	0	0	8005	624136	0	0
2024-08-06 05:12:47			0	36060	0	0	0	28537	27140	172625	26779	1062539	45793	110602	0	0	8008	621612	0	0
2024-08-06 05:13:47			0	36047	0	0	0	28535	27130	172421	26814	1062557	45771	110601	0	0	8007	622195	0	0
2024-08-06 05:14:47			0	36029	0	0	0	28535	27140	172521	26939	1062512	45783	110601	0	0	8006	622918	0	0
2024-08-06 05:15:47			0	35981	0	0	0	28540	27140	172705	26759	1062486	45793	110603	0	0	8003	624945	0	0
2024-08-06 05:16:47			0	35990	0	0	0	28535	27150	172669	26788	1062530	45795	110601	0	0	8004	624528	0	0
2024-08-06 05:17:47			0	36036	0	0	0	28532	27140	172601	26863	1062512	45783	110600	0	0	8007	622623	0	0
2024-08-06 05:18:47			0	36049	0	0	0	28540	27140	172433	26762	1062566	45783	110603	0	0	8008	622075	0	0
2024-08-06 05:19:47			0	36070	0	0	0	28548	27140	172429	26615	1062495	45784	110606	0	0	8009	621191	0	0
2024-08-06 05:20:47			0	36125	0	0	0	28553	27140	172209	26762	1062602	45784	110608	0	0	8012	618879	0	0
2024-08-06 05:21:47			0	36166	0	0	0	28542	27150	172061	27085	1062638	45773	110604	0	0	8015	617124	0	0
2024-08-06 05:22:47			0	36133	0	0	0	28550	27140	172177	27074	1062521	45784	110607	0	0	8012	618543	0	0
2024-08-06 05:23:47			0	36110	0	0	0	28537	27140	172177	26830	1062539	45783	110602	0	0	8011	619509	0	0
2024-08-06 05:24:47			0	36124	0	0	0	28540	27140	172165	26899	1062521	45772	110603	0	0	8012	618921	0	0
2024-08-06 05:25:47			0	36102	0	0	0	28532	27140	172245	26760	1062486	45760	110600	0	0	8011	619845	0	0
2024-08-06 05:26:47			0	36132	0	0	0	28532	27130	172205	26609	1062557	45771	110600	0	0	8013	618621	0	0
2024-08-06 05:27:47			0	36107	0	0	0	28532	27150	172245	26911	1062503	45785	110600	0	0	8011	619600	0	0
2024-08-06 05:28:47			0	36075	0	0	0	28527	27140	172333	26875	1062521	45784	110598	0	0	8009	620980	0	0
2024-08-06 05:29:47			0	36069	0	0	0	28519	27140	172565	26953	1062486	45783	110595	0	0	8009	621233	0	0
2024-08-06 05:30:47			0	36021	0	0	0	28514	27130	172585	26821	1062477	45771	110593	0	0	8006	623291	0	0
2024-08-06 05:31:47			0	36004	0	0	0	28519	27140	172593	26868	1062486	45783	110595	0	0	8005	623973	0	0
2024-08-06 05:32:47			0	35992	0	0	0	28516	27130	172721	26984	1062414	45792	110594	0	0	8004	624516	0	0
2024-08-06 05:33:47			0	35968	0	0	0	28506	27120	172821	26696	1062432	45782	110590	0	0	8003	625566	0	0
2024-08-06 05:34:47			0	35963	0	0	0	28509	27120	172857	26906	1062459	45782	110591	0	0	8003	625778	0	0
2024-08-06 05:35:47			0	35941	0	0	0	28501	27120	173073	26873	1062432	45770	110588	0	0	8002	626709	0	0
2024-08-06 05:36:47			0	35922	0	0	0	28503	27110	173085	26904	1062414	45757	110589	0	0	8000	627550	0	0
2024-08-06 05:37:47			0	35891	0	0	0	28506	27110	173149	26628	1062414	45791	110590	0	0	7998	628865	0	0
2024-08-06 05:38:47			0	35894	0	0	0	28501	27110	173125	26783	1062387	45780	110588	0	0	7999	628738	0	0
2024-08-06 05:39:47			0	35910	0	0	0	28511	27120	173185	26679	1062450	45791	110592	0	0	8000	628023	0	0
2024-08-06 05:40:47			0	35888	0	0	0	28509	27120	173253	26720	1062423	45781	110591	0	0	7998	628956	0	0
2024-08-06 05:41:47			0	35910	0	0	0	28514	27120	173149	26807	1062396	45791	110593	0	0	7999	628023	0	0
2024-08-06 05:42:47			0	35921	0	0	0	28516	27110	173121	26812	1062522	45791	110594	0	0	8000	627592	0	0
2024-08-06 05:43:47			0	35920	0	0	0	28516	27120	172973	26752	1062423	45791	110594	0	0	8000	627599	0	0
2024-08-06 05:44:47			0	35966	0	0	0	28511	27120	173029	27079	1062423	45781	110592	0	0	8003	625651	0	0
2024-08-06 05:45:47			0	35966	0	0	0	28511	27120	172877	27017	1062396	45791	110592	0	0	8003	625651	0	0
2024-08-06 05:46:47			0	35985	0	0	0	28516	27110	172749	27235	1062414	45791	110594	0	0	8004	624883	0	0
2024-08-06 05:47:47			0	35990	0	0	0	28509	27120	172837	27069	1062432	45782	110591	0	0	8004	624636	0	0
2024-08-06 05:48:47			0	35989	0	0	0	28511	27110	172781	27126	1062387	45791	110592	0	0	8004	624714	0	0
2024-08-06 05:49:47			0	35996	0	0	0	28501	27110	172633	26849	1062378	45791	110588	0	0	8005	624418	0	0
2024-08-06 05:50:47			0	35961	0	0	0	28511	27110	172945	26837	1062441	45780	110592	0	0	8003	625898	0	0
2024-08-06 05:51:47			0	35853	0	0	0	28516	27120	173492	26951	1062450	45781	110594	0	0	7996	630444	0	0
2024-08-06 05:52:47			0	35635	0	0	0	28516	27120	174388	26844	1062504	45781	110594	0	0	7983	639765	0	0
2024-08-06 05:53:47			0	35529	0	0	0	28509	27130	174900	26993	1062441	45782	110591	0	0	7976	644297	0	0
2024-08-06 05:54:47			0	35469	0	0	0	28511	27110	175296	26755	1062360	45780	110592	0	0	7972	646967	0	0
2024-08-06 05:55:47			0	35430	0	0	0	28511	27120	175424	26906	1062450	45781	110592	0	0	7970	648622	0	0
2024-08-06 05:56:47			0	35393	0	0	0	28511	27120	175568	26811	1062396	45781	110592	0	0	7968	650230	0	0
2024-08-06 05:57:47			0	35403	0	0	0	28516	27110	175628	26833	1062405	45791	110594	0	0	7968	649832	0	0
2024-08-06 05:58:47			0	35387	0	0	0	28514	27130	175660	27026	1062441	45782	110593	0	0	7967	650453	0	0
2024-08-06 05:59:47			0	35403	0	0	0	28514	27120	175612	26892	1062396	45781	110593	0	0	7968	649795	0	0
2024-08-06 06:00:47			0	35406	0	0	0	28516	27120	175512	26923	1062486	45792	110594	0	0	7968	649664	0	0
2024-08-06 06:01:47			0	35408	0	0	0	28514	27130	175456	26942	1062468	45792	110593	0	0	7969	649540	0	0
2024-08-06 06:02:47			0	35438	0	0	0	28522	27120	175540	26948	1062450	45781	110596	0	0	7970	648274	0	0
2024-08-06 06:03:47			0	35434	0	0	0	28516	27120	175444	27071	1062450	45769	110594	0	0	7970	648448	0	0
2024-08-06 06:04:47			0	35421	0	0	0	28514	27120	175476	26809	1062477	45769	110593	0	0	7969	649013	0	0
2024-08-06 06:05:47			0	35422	0	0	0	28514	27110	175472	27038	1062441	45780	110593	0	0	7969	649006	0	0
2024-08-06 06:06:47			0	35447	0	0	0	28516	27120	175480	26769	1062432	45770	110594	0	0	7971	647884	0	0
2024-08-06 06:07:47			0	35436	0	0	0	28516	27120	175408	26786	1062477	45781	110594	0	0	7970	648361	0	0
2024-08-06 06:08:47			0	35447	0	0	0	28516	27110	175328	26928	1062405	45791	110594	0	0	7971	647921	0	0
2024-08-06 06:09:47			0	35468	0	0	0	28514	27120	175248	27008	1062450	45791	110593	0	0	7972	646973	0	0
2024-08-06 06:10:47			0	35499	0	0	0	28514	27120	175140	26760	1062486	45782	110593	0	0	7974	645631	0	0
2024-08-06 06:11:47			0	35521	0	0	0	28506	27120	175092	26863	1062486	45770	110590	0	0	7976	644679	0	0
2024-08-06 06:12:47			0	35536	0	0	0	28516	27120	174956	26937	1062450	45781	110594	0	0	7977	644031	0	0
2024-08-06 06:13:47			0	35542	0	0	0	28511	27120	174840	27043	1062450	45769	110592	0	0	7977	643772	0	0
2024-08-06 06:14:47			0	35553	0	0	0	28511	27130	174856	26715	1062477	45793	110592	0	0	7978	643260	0	0
2024-08-06 06:15:47			0	35566	0	0	0	28509	27110	174644	27130	1062360	45768	110591	0	0	7978	642773	0	0
2024-08-06 06:16:47			0	35589	0	0	0	28509	27110	174664	26698	1062414	45768	110591	0	0	7980	641782	0	0
2024-08-06 06:17:47			0	35602	0	0	0	28509	27110	174608	27105	1062414	45780	110591	0	0	7981	641222	0	0
2024-08-06 06:18:47			0	35584	0	0	0	28498	27110	174580	26757	1062405	45780	110587	0	0	7980	641997	0	0
2024-08-06 06:19:47			0	35587	0	0	0	28501	27110	174560	27164	1062405	45757	110588	0	0	7980	641868	0	0
2024-08-06 06:20:47			0	35603	0	0	0	28485	27100	174524	26998	1062423	45780	110582	0	0	7981	641216	0	0
2024-08-06 06:21:47			0	35592	0	0	0	28493	27110	174656	26703	1062351	45780	110585	0	0	7980	641653	0	0
2024-08-06 06:22:47			0	35565	0	0	0	28493	27100	174720	26833	1062315	45780	110585	0	0	7979	642853	0	0
2024-08-06 06:23:47			0	35563	0	0	0	28480	27100	174852	26625	1062262	45780	110580	0	0	7979	642940	0	0
2024-08-06 06:24:47			0	35532	0	0	0	28485	27110	174952	26765	1062324	45768	110582	0	0	7977	644241	0	0
2024-08-06 06:25:47			0	35497	0	0	0	28480	27100	175140	26857	1062342	45780	110580	0	0	7975	645792	0	0
2024-08-06 06:26:47			0	35494	0	0	0	28475	27090	175088	26816	1062244	45766	110578	0	0	7974	645959	0	0
2024-08-06 06:27:47			0	35508	0	0	0	28477	27100	175120	26975	1062306	45756	110579	0	0	7975	645316	0	0
2024-08-06 06:28:47			0	35494	0	0	0	28485	27100	175108	27225	1062306	45767	110582	0	0	7974	645921	0	0
2024-08-06 06:29:47			0	35494	0	0	0	28477	27090	175168	26897	1062351	45778	110579	0	0	7974	645959	0	0
2024-08-06 06:30:47			0	35485	0	0	0	28483	27100	175236	26781	1062342	45768	110581	0	0	7974	646311	0	0
2024-08-06 06:31:47			0	35468	0	0	0	28477	27090	175180	27164	1062271	45778	110579	0	0	7973	647085	0	0
2024-08-06 06:32:47			0	35470	0	0	0	28483	27090	175336	26816	1062298	45778	110581	0	0	7973	646998	0	0
2024-08-06 06:33:47			0	35440	0	0	0	28485	27080	175360	26632	1062271	45777	110582	0	0	7971	648337	0	0
2024-08-06 06:34:47			0	35440	0	0	0	28480	27090	175368	27118	1062315	45766	110580	0	0	7971	648299	0	0
2024-08-06 06:35:47			0	35446	0	0	0	28483	27090	175276	27090	1062262	45778	110581	0	0	7971	648039	0	0
2024-08-06 06:36:47			0	35475	0	0	0	28483	27090	175276	26713	1062244	45778	110581	0	0	7973	646781	0	0
2024-08-06 06:37:47			0	35481	0	0	0	28477	27090	175136	26850	1062235	45778	110579	0	0	7974	646521	0	0
2024-08-06 06:38:47			0	35517	0	0	0	28483	27090	175084	26955	1062324	45766	110581	0	0	7976	644963	0	0
2024-08-06 06:39:47			0	35544	0	0	0	28475	27080	174984	26993	1062298	45777	110578	0	0	7978	643834	0	0
2024-08-06 06:40:47			0	35553	0	0	0	28480	27090	174796	26845	1062289	45789	110580	0	0	7978	643408	0	0
2024-08-06 06:41:47			0	35570	0	0	0	28472	27090	174696	27052	1062289	45778	110577	0	0	7979	642675	0	0
2024-08-06 06:42:47			0	35587	0	0	0	28477	27090	174632	26915	1062235	45778	110579	0	0	7980	641942	0	0
2024-08-06 06:43:47			0	35609	0	0	0	28475	27090	174560	26909	1062315	45778	110578	0	0	7982	640994	0	0
2024-08-06 06:44:47			0	35637	0	0	0	28477	27090	174488	26876	1062271	45778	110579	0	0	7983	639789	0	0
2024-08-06 06:45:47			0	35663	0	0	0	28483	27090	174392	26786	1062315	45778	110581	0	0	7985	638673	0	0
2024-08-06 06:46:47			0	35652	0	0	0	28480	27080	174228	26953	1062298	45766	110580	0	0	7984	639182	0	0
2024-08-06 06:47:47			0	35664	0	0	0	28477	27080	174320	26885	1062307	45778	110579	0	0	7985	638666	0	0
2024-08-06 06:48:47			0	35649	0	0	0	28472	27080	174272	27156	1062307	45778	110577	0	0	7984	639311	0	0
2024-08-06 06:49:47			0	35658	0	0	0	28485	27080	174356	26892	1062307	45778	110582	0	0	7984	638924	0	0
2024-08-06 06:50:47			0	35637	0	0	0	28472	27080	174360	26991	1062307	45789	110577	0	0	7983	639826	0	0
2024-08-06 06:51:47			0	35622	0	0	0	28475	27080	174472	26890	1062307	45766	110578	0	0	7982	640471	0	0
2024-08-06 06:52:47			0	35615	0	0	0	28470	27080	174520	26679	1062253	45778	110576	0	0	7982	640772	0	0
2024-08-06 06:53:47			0	35614	0	0	0	28475	27090	174464	26915	1062271	45778	110578	0	0	7982	640779	0	0
2024-08-06 06:54:47			0	35612	0	0	0	28470	27080	174512	26890	1062226	45778	110576	0	0	7982	640902	0	0
2024-08-06 06:55:47			0	35613	0	0	0	28480	27080	174632	26644	1062307	45778	110580	0	0	7982	640859	0	0
2024-08-06 06:56:47			0	35600	0	0	0	28477	27090	174648	26927	1062262	45789	110579	0	0	7981	641382	0	0
2024-08-06 06:57:47			0	35598	0	0	0	28475	27090	174548	26942	1062262	45778	110578	0	0	7981	641468	0	0
2024-08-06 06:58:47			0	35564	0	0	0	28475	27090	174720	27098	1062289	45778	110578	0	0	7979	642933	0	0
2024-08-06 06:59:47			0	35562	0	0	0	28485	27080	174652	26840	1062298	45777	110582	0	0	7978	643057	0	0
2024-08-06 07:00:47			0	35583	0	0	0	28472	27090	174696	26706	1062262	45778	110577	0	0	7980	642114	0	0
2024-08-06 07:01:47			0	35589	0	0	0	28475	27090	174616	27071	1062369	45778	110578	0	0	7980	641855	0	0
2024-08-06 07:02:47			0	35597	0	0	0	28483	27080	174600	26786	1062244	45788	110581	0	0	7981	641548	0	0
2024-08-06 07:03:47			0	35586	0	0	0	28485	27080	174660	26944	1062333	45778	110582	0	0	7980	642022	0	0
2024-08-06 07:04:47			0	35576	0	0	0	28475	27090	174748	27130	1062262	45778	110578	0	0	7980	642416	0	0
2024-08-06 07:05:47			0	35569	0	0	0	28475	27080	174752	26870	1062307	45778	110578	0	0	7979	642755	0	0
2024-08-06 07:06:47			0	35556	0	0	0	28467	27090	174788	27088	1062369	45778	110575	0	0	7978	643279	0	0
2024-08-06 07:07:47			0	35547	0	0	0	28477	27080	174740	27124	1062253	45778	110579	0	0	7978	643704	0	0
2024-08-06 07:08:47			0	35534	0	0	0	28475	27090	174856	27055	1062271	45778	110578	0	0	7977	644229	0	0
2024-08-06 07:09:47			0	35507	0	0	0	28477	27090	175100	26984	1062298	45778	110579	0	0	7975	645396	0	0
2024-08-06 07:10:47			0	35499	0	0	0	28477	27080	175152	27412	1062244	45777	110579	0	0	7975	645779	0	0
2024-08-06 07:11:47			0	35459	0	0	0	28483	27080	175272	27008	1062253	45789	110581	0	0	7972	647512	0	0
2024-08-06 07:12:47			0	35488	0	0	0	28480	27080	175116	27149	1062307	45766	110580	0	0	7974	646255	0	0
2024-08-06 07:13:47			0	35493	0	0	0	28483	27090	175084	27183	1062289	45778	110581	0	0	7974	646002	0	0
2024-08-06 07:14:47			0	35494	0	0	0	28483	27080	175012	27253	1062307	45778	110581	0	0	7974	645996	0	0
2024-08-06 07:15:47			0	35503	0	0	0	28488	27080	174980	27026	1062333	45766	110583	0	0	7975	645606	0	0
2024-08-06 07:16:47			0	35538	0	0	0	28475	27100	174948	26902	1062369	45768	110578	0	0	7977	644019	0	0
2024-08-06 07:17:47			0	35529	0	0	0	28483	27090	174868	27163	1062298	45778	110581	0	0	7976	644445	0	0
2024-08-06 07:18:47			0	35537	0	0	0	28477	27090	174852	26974	1062324	45778	110579	0	0	7977	644099	0	0
2024-08-06 07:19:47			0	35549	0	0	0	28485	27090	174784	27079	1062342	45778	110582	0	0	7978	643581	0	0
2024-08-06 07:20:47			0	35534	0	0	0	28490	27090	174896	27093	1062324	45766	110584	0	0	7977	644229	0	0
2024-08-06 07:21:47			0	35534	0	0	0	28490	27090	174860	26987	1062315	45778	110584	0	0	7977	644229	0	0
2024-08-06 07:22:47			0	35530	0	0	0	28496	27090	175008	26700	1062369	45789	110586	0	0	7976	644401	0	0
2024-08-06 07:23:47			0	35493	0	0	0	28501	27100	175056	26710	1062306	45790	110588	0	0	7974	645965	0	0
2024-08-06 07:24:47			0	35492	0	0	0	28493	27090	175068	27013	1062369	45778	110585	0	0	7974	646045	0	0
2024-08-06 07:25:47			0	35497	0	0	0	28498	27100	175116	26774	1062360	45779	110587	0	0	7974	645792	0	0
2024-08-06 07:26:47			0	35482	0	0	0	28501	27090	175164	27225	1062351	45755	110588	0	0	7973	646478	0	0
2024-08-06 07:27:47			0	35451	0	0	0	28498	27090	175196	26835	1062378	45789	110587	0	0	7971	647822	0	0
2024-08-06 07:28:47			0	35455	0	0	0	28501	27090	175348	27156	1062324	45766	110588	0	0	7972	647648	0	0
2024-08-06 07:29:47			0	35448	0	0	0	28506	27110	175364	27041	1062405	45791	110590	0	0	7971	647878	0	0
2024-08-06 07:30:47			0	35467	0	0	0	28501	27110	175120	26748	1062378	45780	110588	0	0	7972	647054	0	0
2024-08-06 07:31:47			0	35486	0	0	0	28511	27100	175092	27031	1062360	45790	110592	0	0	7973	646268	0	0
2024-08-06 07:32:47			0	35499	0	0	0	28503	27100	175120	26951	1062396	45780	110589	0	0	7974	645705	0	0
2024-08-06 07:33:47			0	35484	0	0	0	28506	27100	175152	27109	1062414	45790	110590	0	0	7973	646354	0	0
2024-08-06 07:34:47			0	35466	0	0	0	28516	27110	175204	27281	1062432	45791	110594	0	0	7972	647097	0	0
2024-08-06 07:35:47			0	35453	0	0	0	28522	27110	175244	26994	1062459	45780	110596	0	0	7971	647661	0	0
2024-08-06 07:36:47			0	35442	0	0	0	28527	27110	175240	26739	1062513	45791	110598	0	0	7970	648138	0	0
2024-08-06 07:37:47			0	35422	0	0	0	28537	27110	175488	27135	1062468	45780	110602	0	0	7969	649006	0	0
2024-08-06 07:38:47			0	35427	0	0	0	28548	27120	175436	27234	1062504	45791	110606	0	0	7969	648752	0	0
2024-08-06 07:39:47			0	35431	0	0	0	28529	27120	175424	27222	1062513	45792	110599	0	0	7970	648578	0	0
2024-08-06 07:40:47			0	35445	0	0	0	28537	27120	175444	27017	1062566	45804	110602	0	0	7971	647971	0	0
2024-08-06 07:41:47			0	35466	0	0	0	28535	27120	175208	26785	1062486	45770	110601	0	0	7972	647060	0	0
2024-08-06 07:42:47			0	35485	0	0	0	28532	27130	175156	26804	1062575	45782	110600	0	0	7973	646200	0	0
2024-08-06 07:43:47			0	35503	0	0	0	28529	27120	174976	26812	1062539	45782	110599	0	0	7974	645458	0	0
2024-08-06 07:44:47			0	35515	0	0	0	28535	27130	175036	26996	1062575	45770	110601	0	0	7975	644902	0	0
2024-08-06 07:45:47			0	35512	0	0	0	28542	27130	174940	26795	1062575	45782	110604	0	0	7975	645031	0	0
2024-08-06 07:46:47			0	35491	0	0	0	28532	27130	175040	27059	1062530	45771	110600	0	0	7974	645940	0	0
2024-08-06 07:47:47			0	35494	0	0	0	28532	27140	175080	27149	1062620	45793	110600	0	0	7974	645773	0	0
2024-08-06 07:48:47			0	35496	0	0	0	28535	27140	175016	26793	1062539	45771	110601	0	0	7974	645687	0	0
2024-08-06 07:49:47			0	35496	0	0	0	28540	27130	174972	27046	1062557	45771	110603	0	0	7974	645724	0	0
2024-08-06 07:50:47			0	35480	0	0	0	28537	27140	175048	26915	1062602	45772	110602	0	0	7973	646379	0	0
2024-08-06 07:51:47			0	35480	0	0	0	28542	27130	175056	26646	1062602	45770	110604	0	0	7973	646416	0	0
2024-08-06 07:52:47			0	35488	0	0	0	28548	27140	175052	27078	1062566	45783	110606	0	0	7973	646033	0	0
2024-08-06 07:53:47			0	35493	0	0	0	28553	27140	174968	26850	1062566	45783	110608	0	0	7973	645816	0	0
2024-08-06 07:54:47			0	35495	0	0	0	28553	27140	174916	26680	1062575	45772	110608	0	0	7973	645730	0	0
2024-08-06 07:55:47			0	35522	0	0	0	28540	27140	174928	26859	1062620	45783	110603	0	0	7975	644562	0	0
2024-08-06 07:56:47			0	35529	0	0	0	28558	27150	174844	26899	1062665	45785	110610	0	0	7976	644223	0	0
2024-08-06 07:57:47			0	35544	0	0	0	28555	27150	174780	26781	1062638	45795	110609	0	0	7977	643575	0	0
2024-08-06 07:58:47			0	35554	0	0	0	28548	27150	174664	26648	1062611	45785	110606	0	0	7977	643143	0	0
2024-08-06 07:59:47			0	35576	0	0	0	28555	27150	174696	26930	1062611	45795	110609	0	0	7978	642195	0	0
2024-08-06 08:00:47			0	35592	0	0	0	28558	27140	174668	26830	1062683	45772	110610	0	0	7979	641542	0	0
2024-08-06 08:01:47			0	35594	0	0	0	28558	27150	174464	26706	1062665	45785	110610	0	0	7980	641419	0	0
2024-08-06 08:02:47			0	35623	0	0	0	28561	27160	174484	27086	1062773	45796	110611	0	0	7981	640134	0	0
2024-08-06 08:03:47			0	35641	0	0	0	28568	27150	174408	26984	1062701	45785	110614	0	0	7982	639397	0	0
2024-08-06 08:04:47			0	35622	0	0	0	28568	27150	174392	26823	1062665	45795	110614	0	0	7981	640214	0	0
2024-08-06 08:05:47			0	35635	0	0	0	28563	27140	174444	26896	1062656	45772	110612	0	0	7982	639692	0	0
2024-08-06 08:06:47			0	35631	0	0	0	28563	27160	174400	26748	1062763	45785	110612	0	0	7982	639790	0	0
2024-08-06 08:07:47			0	35611	0	0	0	28566	27160	174380	27046	1062719	45786	110613	0	0	7980	640651	0	0
2024-08-06 08:08:47			0	35622	0	0	0	28566	27160	174400	27105	1062746	45786	110613	0	0	7981	640177	0	0
2024-08-06 08:09:47			0	35640	0	0	0	28568	27160	174368	26901	1062773	45786	110614	0	0	7982	639404	0	0
2024-08-06 08:10:47			0	35644	0	0	0	28576	27160	174392	26915	1062800	45774	110617	0	0	7982	639232	0	0
2024-08-06 08:11:47			0	35633	0	0	0	28573	27170	174372	26977	1062817	45797	110616	0	0	7982	639668	0	0
2024-08-06 08:12:47			0	35643	0	0	0	28586	27170	174432	26837	1062764	45787	110621	0	0	7982	639238	0	0
2024-08-06 08:13:47			0	35641	0	0	0	28576	27170	174428	26769	1062728	45787	110617	0	0	7982	639324	0	0
2024-08-06 08:14:47			0	35635	0	0	0	28571	27170	174496	27053	1062835	45775	110615	0	0	7982	639582	0	0
2024-08-06 08:15:47			0	35630	0	0	0	28573	27170	174408	26807	1062791	45787	110616	0	0	7982	639797	0	0
2024-08-06 08:16:47			0	35642	0	0	0	28573	27170	174480	27005	1062808	45787	110616	0	0	7982	639281	0	0
2024-08-06 08:17:47			0	35626	0	0	0	28576	27160	174404	26866	1062692	45786	110617	0	0	7981	640006	0	0
2024-08-06 08:18:47			0	35654	0	0	0	28579	27170	174440	27001	1062791	45775	110618	0	0	7983	638766	0	0
2024-08-06 08:19:47			0	35654	0	0	0	28573	27170	174268	27027	1062782	45775	110616	0	0	7983	638766	0	0
2024-08-06 08:20:47			0	35662	0	0	0	28576	27180	174168	27007	1062773	45787	110617	0	0	7984	638386	0	0
2024-08-06 08:21:47			0	35678	0	0	0	28566	27170	174164	26682	1062791	45775	110613	0	0	7985	637736	0	0
2024-08-06 08:22:47			0	35691	0	0	0	28571	27180	174128	26684	1062826	45787	110615	0	0	7985	637142	0	0
2024-08-06 08:23:47			0	35668	0	0	0	28576	27170	174236	27085	1062764	45775	110617	0	0	7984	638165	0	0
2024-08-06 08:24:47			0	35651	0	0	0	28581	27170	174248	26977	1062817	45797	110619	0	0	7983	638895	0	0
2024-08-06 08:25:47			0	35621	0	0	0	28579	27170	174448	27142	1062844	45787	110618	0	0	7981	640184	0	0
2024-08-06 08:26:47			0	35610	0	0	0	28576	27180	174524	27225	1062773	45787	110617	0	0	7980	640620	0	0
2024-08-06 08:27:47			0	35588	0	0	0	28579	27180	174496	27124	1062889	45776	110618	0	0	7979	641567	0	0
2024-08-06 08:28:47			0	35586	0	0	0	28581	27180	174552	27010	1062853	45787	110619	0	0	7979	641653	0	0
2024-08-06 08:29:47			0	35615	0	0	0	28584	27180	174468	26831	1062826	45797	110620	0	0	7981	640405	0	0
2024-08-06 08:30:47			0	35607	0	0	0	28589	27180	174496	27187	1062853	45787	110622	0	0	7980	640749	0	0
2024-08-06 08:31:47			0	35613	0	0	0	28581	27170	174404	26991	1062791	45787	110619	0	0	7980	640528	0	0
2024-08-06 08:32:47			0	35628	0	0	0	28579	27170	174400	26967	1062817	45787	110618	0	0	7981	639883	0	0
2024-08-06 08:33:47			0	35631	0	0	0	28581	27180	174348	27196	1062808	45788	110619	0	0	7982	639717	0	0
2024-08-06 08:34:47			0	35625	0	0	0	28581	27190	174340	27098	1062817	45789	110619	0	0	7981	639938	0	0
2024-08-06 08:35:47			0	35627	0	0	0	28586	27180	174388	26958	1062853	45775	110621	0	0	7981	639889	0	0
2024-08-06 08:36:47			0	35591	0	0	0	28584	27190	174496	26939	1062844	45799	110620	0	0	7979	641401	0	0
2024-08-06 08:37:47			0	35602	0	0	0	28581	27170	174524	27126	1062844	45797	110619	0	0	7980	641001	0	0
2024-08-06 08:38:47			0	35630	0	0	0	28573	27180	174396	27239	1062781	45788	110616	0	0	7982	639760	0	0
2024-08-06 08:39:47			0	35623	0	0	0	28568	27180	174496	27286	1062862	45788	110614	0	0	7981	640061	0	0
2024-08-06 08:40:47			0	35622	0	0	0	28571	27180	174468	27024	1062808	45810	110615	0	0	7981	640104	0	0
2024-08-06 08:41:47			0	35623	0	0	0	28568	27180	174476	26918	1062880	45775	110614	0	0	7981	640061	0	0
2024-08-06 08:42:47			0	35641	0	0	0	28581	27180	174416	27208	1062808	45788	110619	0	0	7982	639287	0	0
2024-08-06 08:43:47			0	35648	0	0	0	28584	27180	174312	26705	1062808	45798	110620	0	0	7983	638987	0	0
2024-08-06 08:44:47			0	35612	0	0	0	28579	27170	174460	26739	1062844	45797	110618	0	0	7980	640571	0	0
2024-08-06 08:45:47			0	35634	0	0	0	28584	27170	174532	26979	1062791	45797	110620	0	0	7982	639625	0	0
2024-08-06 08:46:47			0	35590	0	0	0	28576	27190	174516	27041	1062817	45777	110617	0	0	7979	641444	0	0
2024-08-06 08:47:47			0	35553	0	0	0	28563	27180	174660	26739	1062799	45787	110612	0	0	7977	643076	0	0
2024-08-06 08:48:47			0	35524	0	0	0	28566	27160	174932	27022	1062773	45774	110613	0	0	7975	644402	0	0
2024-08-06 08:49:47			0	35518	0	0	0	28561	27170	174892	27000	1062808	45787	110611	0	0	7975	644624	0	0
2024-08-06 08:50:47			0	35493	0	0	0	28561	27170	175088	27022	1062817	45797	110611	0	0	7973	645705	0	0
2024-08-06 08:51:47			0	35516	0	0	0	28555	27170	175032	27201	1062755	45775	110609	0	0	7975	644711	0	0
2024-08-06 08:52:47			0	35495	0	0	0	28555	27170	174968	27150	1062764	45787	110609	0	0	7974	645619	0	0
2024-08-06 08:53:47			0	35479	0	0	0	28553	27170	175100	26996	1062755	45787	110608	0	0	7973	646311	0	0
2024-08-06 08:54:47			0	35490	0	0	0	28558	27160	175088	27109	1062710	45773	110610	0	0	7973	645872	0	0
2024-08-06 08:55:47			0	35504	0	0	0	28550	27170	174928	26875	1062674	45775	110607	0	0	7974	645229	0	0
2024-08-06 08:56:47			0	35506	0	0	0	28553	27160	174972	27203	1062710	45795	110608	0	0	7974	645180	0	0
2024-08-06 08:57:47			0	35515	0	0	0	28548	27160	175124	26750	1062800	45786	110606	0	0	7975	644791	0	0
2024-08-06 08:58:47			0	35538	0	0	0	28545	27150	174892	26800	1062728	45785	110605	0	0	7976	643834	0	0
2024-08-06 08:59:47			0	35532	0	0	0	28550	27170	174848	27079	1062701	45787	110607	0	0	7976	644019	0	0
2024-08-06 09:00:47			0	35546	0	0	0	28553	27160	174820	26982	1062763	45785	110608	0	0	7977	643452	0	0
2024-08-06 09:01:47			0	35564	0	0	0	28553	27150	174612	27064	1062754	45785	110608	0	0	7978	642712	0	0
2024-08-06 09:02:47			0	35597	0	0	0	28561	27160	174700	27097	1062800	45786	110611	0	0	7980	641253	0	0
2024-08-06 09:03:47			0	35613	0	0	0	28555	27150	174424	27112	1062781	45773	110609	0	0	7981	640601	0	0
2024-08-06 09:04:47			0	35601	0	0	0	28553	27160	174476	26972	1062719	45786	110608	0	0	7980	641081	0	0
2024-08-06 09:05:47			0	35608	0	0	0	28545	27160	174480	27140	1062710	45762	110605	0	0	7981	640780	0	0
2024-08-06 09:06:47			0	35571	0	0	0	28540	27160	174820	26960	1062656	45785	110603	0	0	7978	642373	0	0
2024-08-06 09:07:47			0	35546	0	0	0	28540	27140	174848	26739	1062683	45784	110603	0	0	7977	643526	0	0
2024-08-06 09:08:47			0	35512	0	0	0	28545	27150	175000	26837	1062719	45785	110605	0	0	7975	644957	0	0
2024-08-06 09:09:47			0	35513	0	0	0	28553	27150	175088	26998	1062674	45795	110608	0	0	7975	644914	0	0
2024-08-06 09:10:47			0	35510	0	0	0	28558	27150	174952	27102	1062728	45785	110610	0	0	7974	645044	0	0
2024-08-06 09:11:47			0	35515	0	0	0	28558	27160	175032	26809	1062710	45785	110610	0	0	7975	644791	0	0
2024-08-06 09:12:47			0	35524	0	0	0	28555	27150	174960	26812	1062728	45795	110609	0	0	7975	644439	0	0
2024-08-06 09:13:47			0	35506	0	0	0	28558	27150	174912	26863	1062728	45773	110610	0	0	7974	645217	0	0
2024-08-06 09:14:47			0	35489	0	0	0	28558	27150	175040	26944	1062701	45785	110610	0	0	7973	645953	0	0
2024-08-06 09:15:47			0	35475	0	0	0	28561	27160	175208	26752	1062736	45785	110611	0	0	7972	646522	0	0
2024-08-06 09:16:47			0	35483	0	0	0	28563	27160	175140	26821	1062656	45785	110612	0	0	7973	646175	0	0
2024-08-06 09:17:47			0	35479	0	0	0	28563	27150	175192	27097	1062701	45795	110612	0	0	7972	646385	0	0
2024-08-06 09:18:47			0	35478	0	0	0	28566	27150	175208	27055	1062728	45785	110613	0	0	7972	646429	0	0
2024-08-06 09:19:47			0	35493	0	0	0	28563	27160	175108	26961	1062736	45795	110612	0	0	7973	645742	0	0
2024-08-06 09:20:47			0	35486	0	0	0	28566	27160	175108	26977	1062773	45774	110613	0	0	7973	646045	0	0
2024-08-06 09:21:47			0	35497	0	0	0	28568	27170	175112	27029	1062755	45797	110614	0	0	7973	645532	0	0
2024-08-06 09:22:47			0	35490	0	0	0	28568	27170	175160	27093	1062862	45797	110614	0	0	7973	645835	0	0
2024-08-06 09:23:47			0	35490	0	0	0	28576	27160	175108	27145	1062763	45785	110617	0	0	7973	645872	0	0
2024-08-06 09:24:47			0	35511	0	0	0	28573	27160	175120	27209	1062800	45796	110616	0	0	7974	644964	0	0
2024-08-06 09:25:47			0	35485	0	0	0	28568	27170	175100	27277	1062862	45797	110614	0	0	7973	646051	0	0
2024-08-06 09:26:47			0	35506	0	0	0	28573	27160	175000	26885	1062826	45786	110616	0	0	7974	645180	0	0
2024-08-06 09:27:47			0	35495	0	0	0	28571	27170	174900	26849	1062755	45787	110615	0	0	7973	645619	0	0
2024-08-06 09:28:47			0	35512	0	0	0	28581	27170	174860	27154	1062782	45787	110619	0	0	7974	644883	0	0
2024-08-06 09:29:47			0	35511	0	0	0	28581	27170	174852	27017	1062835	45797	110619	0	0	7974	644927	0	0
2024-08-06 09:30:47			0	35503	0	0	0	28589	27170	174824	26928	1062817	45787	110622	0	0	7974	645273	0	0
2024-08-06 09:31:47			0	35525	0	0	0	28584	27160	174808	26653	1062853	45796	110620	0	0	7975	644359	0	0
2024-08-06 09:32:47			0	35513	0	0	0	28584	27170	174832	26979	1062871	45787	110620	0	0	7974	644840	0	0
2024-08-06 09:33:47			0	35529	0	0	0	28594	27170	174848	26731	1062952	45787	110624	0	0	7975	644149	0	0
2024-08-06 09:34:47			0	35521	0	0	0	28581	27170	174868	26911	1062898	45809	110619	0	0	7975	644494	0	0
2024-08-06 09:35:47			0	35515	0	0	0	28584	27170	174816	26849	1062835	45775	110620	0	0	7974	644754	0	0
2024-08-06 09:36:47			0	35521	0	0	0	28579	27180	174892	26920	1062907	45787	110618	0	0	7975	644457	0	0
2024-08-06 09:37:47			0	35531	0	0	0	28573	27180	174776	27150	1062907	45787	110616	0	0	7976	644026	0	0
2024-08-06 09:38:47			0	35528	0	0	0	28579	27170	174808	27041	1062844	45787	110618	0	0	7975	644192	0	0
2024-08-06 09:39:47			0	35566	0	0	0	28586	27170	174580	27310	1062844	45787	110621	0	0	7977	642552	0	0
2024-08-06 09:40:47			0	35551	0	0	0	28581	27180	174504	27041	1062889	45788	110619	0	0	7977	643162	0	0
2024-08-06 09:41:47			0	35566	0	0	0	28589	27180	174572	26771	1062853	45787	110622	0	0	7977	642515	0	0
2024-08-06 09:42:47			0	35546	0	0	0	28597	27180	174588	26675	1062880	45787	110625	0	0	7976	643378	0	0
2024-08-06 09:43:47			0	35549	0	0	0	28599	27170	174580	26627	1062898	45797	110626	0	0	7976	643285	0	0
2024-08-06 09:44:47			0	35552	0	0	0	28592	27180	174776	26743	1062889	45776	110623	0	0	7977	643119	0	0
2024-08-06 09:45:47			0	35531	0	0	0	28592	27180	174912	26778	1062907	45787	110623	0	0	7975	644026	0	0
2024-08-06 09:46:47			0	35524	0	0	0	28605	27190	174852	26765	1062898	45799	110628	0	0	7975	644291	0	0
2024-08-06 09:47:47			0	35538	0	0	0	28605	27180	174828	27102	1062916	45788	110628	0	0	7975	643723	0	0
2024-08-06 09:48:47			0	35530	0	0	0	28605	27190	174836	26823	1062952	45777	110628	0	0	7975	644032	0	0
2024-08-06 09:49:47			0	35556	0	0	0	28605	27190	174800	26915	1062988	45789	110628	0	0	7977	642910	0	0
2024-08-06 09:50:47			0	35554	0	0	0	28612	27190	174708	26774	1063006	45799	110631	0	0	7976	642996	0	0
2024-08-06 09:51:47			0	35579	0	0	0	28618	27200	174696	26696	1063050	45789	110633	0	0	7978	641881	0	0
2024-08-06 09:52:47			0	35594	0	0	0	28615	27200	174584	27131	1062970	45811	110632	0	0	7979	641235	0	0
2024-08-06 09:53:47			0	35605	0	0	0	28615	27200	174556	26866	1063024	45799	110632	0	0	7980	640762	0	0
2024-08-06 09:54:47			0	35569	0	0	0	28612	27200	174592	27098	1063032	45790	110631	0	0	7977	642312	0	0
2024-08-06 09:55:47			0	35520	0	0	0	28610	27200	174836	26899	1063006	45800	110630	0	0	7974	644427	0	0
2024-08-06 09:56:47			0	35521	0	0	0	28620	27200	174868	26811	1062997	45789	110634	0	0	7974	644383	0	0
2024-08-06 09:57:47			0	35495	0	0	0	28620	27200	175072	26807	1063006	45800	110634	0	0	7973	645508	0	0
2024-08-06 09:58:47			0	35489	0	0	0	28618	27200	175196	26979	1063059	45790	110633	0	0	7972	645767	0	0
2024-08-06 09:59:47			0	35473	0	0	0	28623	27210	175152	27171	1063122	45801	110635	0	0	7971	646423	0	0
2024-08-06 10:00:47			0	35478	0	0	0	28628	27210	174996	26833	1063077	45802	110637	0	0	7972	646206	0	0
2024-08-06 10:01:47			0	35494	0	0	0	28623	27210	175080	26955	1063068	45801	110635	0	0	7973	645514	0	0
2024-08-06 10:02:47			0	35511	0	0	0	28625	27210	174916	26883	1063077	45791	110636	0	0	7974	644779	0	0
2024-08-06 10:03:47			0	35518	0	0	0	28625	27210	175036	26838	1063104	45802	110636	0	0	7974	644476	0	0
2024-08-06 10:04:47			0	35539	0	0	0	28628	27220	174816	27012	1063086	45802	110637	0	0	7975	643532	0	0
2024-08-06 10:05:47			0	35526	0	0	0	28628	27220	174972	26762	1063167	45791	110637	0	0	7975	644093	0	0
2024-08-06 10:06:47			0	35565	0	0	0	28631	27230	174856	26894	1063104	45792	110638	0	0	7977	642374	0	0
2024-08-06 10:07:47			0	35559	0	0	0	28631	27230	174784	27085	1063122	45802	110638	0	0	7977	642633	0	0
2024-08-06 10:08:47			0	35562	0	0	0	28638	27230	174724	27220	1063158	45803	110641	0	0	7977	642503	0	0
2024-08-06 10:09:47			0	35580	0	0	0	28638	27230	174652	26821	1063149	45813	110641	0	0	7978	641727	0	0
2024-08-06 10:10:47			0	35597	0	0	0	28636	27230	174624	27154	1063149	45802	110640	0	0	7979	640995	0	0
2024-08-06 10:11:47			0	35573	0	0	0	28646	27230	174712	27208	1063185	45792	110644	0	0	7977	642029	0	0
2024-08-06 10:12:47			0	35598	0	0	0	28649	27230	174632	27190	1063158	45803	110645	0	0	7979	640952	0	0
2024-08-06 10:13:47			0	35592	0	0	0	28646	27240	174568	27220	1063248	45804	110644	0	0	7978	641174	0	0
2024-08-06 10:14:47			0	35604	0	0	0	28654	27240	174580	26863	1063194	45815	110647	0	0	7979	640657	0	0
2024-08-06 10:15:47			0	35616	0	0	0	28659	27240	174544	26928	1063256	45782	110649	0	0	7980	640141	0	0
2024-08-06 10:16:47			0	35623	0	0	0	28662	27240	174464	26800	1063283	45804	110650	0	0	7980	639840	0	0
2024-08-06 10:17:47			0	35634	0	0	0	28662	27240	174456	26984	1063256	45804	110650	0	0	7981	639368	0	0
2024-08-06 10:18:47			0	35634	0	0	0	28662	27250	174432	27126	1063238	45793	110650	0	0	7981	639331	0	0
2024-08-06 10:19:47			0	35634	0	0	0	28662	27260	174412	27175	1063256	45784	110650	0	0	7981	639294	0	0
2024-08-06 10:20:47			0	35642	0	0	0	28659	27250	174364	26941	1063292	45793	110649	0	0	7981	638988	0	0
2024-08-06 10:21:47			0	35622	0	0	0	28667	27260	174260	26844	1063364	45806	110652	0	0	7980	639810	0	0
2024-08-06 10:22:47			0	35639	0	0	0	28672	27250	174316	27126	1063301	45805	110654	0	0	7981	639116	0	0
2024-08-06 10:23:47			0	35633	0	0	0	28680	27250	174340	26934	1063301	45805	110657	0	0	7980	639374	0	0
2024-08-06 10:24:47			0	35655	0	0	0	28677	27270	174284	26760	1063355	45806	110656	0	0	7982	638356	0	0
2024-08-06 10:25:47			0	35648	0	0	0	28677	27270	174148	26767	1063328	45806	110656	0	0	7981	638657	0	0
2024-08-06 10:26:47			0	35659	0	0	0	28685	27270	174292	26597	1063337	45807	110659	0	0	7982	638185	0	0
2024-08-06 10:27:47			0	35663	0	0	0	28688	27270	174152	27005	1063364	45796	110660	0	0	7982	638013	0	0
2024-08-06 10:28:47			0	35659	0	0	0	28690	27260	174184	26979	1063427	45795	110661	0	0	7982	638221	0	0
2024-08-06 10:29:47			0	35660	0	0	0	28685	27270	174188	26571	1063436	45806	110659	0	0	7982	638142	0	0
2024-08-06 10:30:47			0	35697	0	0	0	28683	27270	174016	26814	1063364	45807	110658	0	0	7984	636556	0	0
2024-08-06 10:31:47			0	35680	0	0	0	28685	27270	174020	26916	1063364	45818	110659	0	0	7983	637284	0	0
2024-08-06 10:32:47			0	35678	0	0	0	28688	27270	174044	26805	1063337	45796	110660	0	0	7983	637370	0	0
2024-08-06 10:33:47			0	35677	0	0	0	28690	27270	174004	27093	1063445	45796	110661	0	0	7983	637413	0	0
2024-08-06 10:34:47			0	35676	0	0	0	28690	27270	174168	26809	1063391	45807	110661	0	0	7983	637456	0	0
2024-08-06 10:35:47			0	35659	0	0	0	28693	27280	174080	27102	1063400	45808	110662	0	0	7982	638148	0	0
2024-08-06 10:36:47			0	35672	0	0	0	28701	27290	174084	26743	1063472	45809	110665	0	0	7983	637554	0	0
2024-08-06 10:37:47			0	35695	0	0	0	28709	27290	173960	27246	1063499	45820	110668	0	0	7984	636568	0	0
2024-08-06 10:38:47			0	35719	0	0	0	28729	27290	173848	27189	1063499	45809	110676	0	0	7985	635541	0	0
2024-08-06 10:39:47			0	35736	0	0	0	28745	27300	173784	26887	1063597	45810	110682	0	0	7986	634778	0	0
2024-08-06 10:40:47			0	35747	0	0	0	28745	27290	173680	27171	1063561	45820	110682	0	0	7986	634345	0	0
2024-08-06 10:41:47			0	35780	0	0	0	28753	27310	173624	27145	1063642	45822	110685	0	0	7988	632864	0	0
2024-08-06 10:42:47			0	35807	0	0	0	28763	27320	173520	27185	1063714	45812	110689	0	0	7990	631677	0	0
2024-08-06 10:43:47			0	35819	0	0	0	28761	27330	173464	27367	1063678	45813	110688	0	0	7991	631130	0	0
2024-08-06 10:44:47			0	35812	0	0	0	28763	27320	173216	27050	1063714	45801	110689	0	0	7990	631464	0	0
2024-08-06 10:45:47			0	35846	0	0	0	28753	27340	173196	26960	1063669	45814	110685	0	0	7993	629945	0	0
2024-08-06 10:46:47			0	35903	0	0	0	28742	27330	172941	27109	1063678	45813	110681	0	0	7996	627563	0	0
2024-08-06 10:47:47			0	35941	0	0	0	28742	27330	172705	26939	1063705	45791	110681	0	0	7999	625954	0	0
2024-08-06 10:48:47			0	35994	0	0	0	28742	27330	172501	26996	1063678	45813	110681	0	0	8002	623714	0	0
2024-08-06 10:49:47			0	36014	0	0	0	28742	27330	172333	26982	1063687	45813	110681	0	0	8003	622871	0	0
2024-08-06 10:50:47			0	36037	0	0	0	28745	27330	172137	26939	1063624	45802	110682	0	0	8004	621902	0	0
2024-08-06 10:51:47			0	36081	0	0	0	28748	27330	172077	27215	1063714	45813	110683	0	0	8007	620051	0	0
2024-08-06 10:52:47			0	36090	0	0	0	28750	27330	171941	26911	1063687	45802	110684	0	0	8007	619673	0	0
2024-08-06 10:53:47			0	36119	0	0	0	28750	27340	171969	26998	1063759	45792	110684	0	0	8009	618420	0	0
2024-08-06 10:54:47			0	36129	0	0	0	28758	27330	171869	26769	1063741	45802	110687	0	0	8010	618036	0	0
2024-08-06 10:55:47			0	36159	0	0	0	28755	27340	171841	27223	1063696	45814	110686	0	0	8012	616744	0	0
2024-08-06 10:56:47			0	36153	0	0	0	28761	27340	171741	27038	1063732	45826	110688	0	0	8011	616996	0	0
2024-08-06 10:57:47			0	36168	0	0	0	28761	27350	171693	27215	1063767	45804	110688	0	0	8012	616332	0	0
2024-08-06 10:58:47			0	36160	0	0	0	28758	27340	171645	26883	1063785	45815	110687	0	0	8012	616703	0	0
2024-08-06 10:59:47			0	36170	0	0	0	28766	27350	171645	26856	1063821	45804	110690	0	0	8012	616249	0	0
2024-08-06 11:00:47			0	36196	0	0	0	28776	27340	171617	26901	1063785	45815	110694	0	0	8013	615197	0	0
2024-08-06 11:01:47			0	36183	0	0	0	28786	27350	171577	27050	1063830	45816	110698	0	0	8013	615705	0	0
2024-08-06 11:02:47			0	36194	0	0	0	28792	27360	171593	26812	1063866	45804	110700	0	0	8013	615210	0	0
2024-08-06 11:03:47			0	36192	0	0	0	28802	27370	171573	27086	1063938	45829	110704	0	0	8013	615258	0	0
2024-08-06 11:04:47			0	36183	0	0	0	28815	27360	171609	27072	1063902	45817	110709	0	0	8012	615670	0	0
2024-08-06 11:05:47			0	36185	0	0	0	28820	27370	171565	26686	1063938	45818	110711	0	0	8012	615550	0	0
2024-08-06 11:06:47			0	36192	0	0	0	28823	27380	171513	27055	1063929	45818	110712	0	0	8013	615222	0	0
2024-08-06 11:07:47			0	36208	0	0	0	28823	27380	171457	27268	1063956	45829	110712	0	0	8014	614554	0	0
2024-08-06 11:08:47			0	36212	0	0	0	28825	27390	171409	27017	1064162	45820	110713	0	0	8014	614352	0	0
2024-08-06 11:09:47			0	36197	0	0	0	28825	27390	171377	27163	1064063	45797	110713	0	0	8013	614978	0	0
2024-08-06 11:10:47			0	36219	0	0	0	28833	27400	171365	27045	1064108	45832	110716	0	0	8014	614024	0	0
2024-08-06 11:11:47			0	36222	0	0	0	28836	27400	171357	27046	1064153	45820	110717	0	0	8014	613899	0	0
2024-08-06 11:12:47			0	36222	0	0	0	28818	27410	171289	26987	1064117	45822	110710	0	0	8015	613864	0	0
2024-08-06 11:13:47			0	36231	0	0	0	28833	27410	171353	26986	1064090	45822	110716	0	0	8015	613489	0	0
2024-08-06 11:14:47			0	36238	0	0	0	28846	27410	171261	27222	1064225	45822	110721	0	0	8015	613197	0	0
2024-08-06 11:15:47			0	36254	0	0	0	28859	27410	171213	26961	1064251	45810	110726	0	0	8016	612530	0	0
2024-08-06 11:16:47			0	36266	0	0	0	28864	27410	171141	27223	1064207	45844	110728	0	0	8016	612030	0	0
2024-08-06 11:17:47			0	36287	0	0	0	28862	27430	171045	26961	1064315	45834	110727	0	0	8018	611086	0	0
2024-08-06 11:18:47			0	36284	0	0	0	28872	27430	171053	27036	1064243	45835	110731	0	0	8018	611211	0	0
2024-08-06 11:19:47			0	36286	0	0	0	28893	27440	170873	27307	1064333	45825	110739	0	0	8017	611093	0	0
2024-08-06 11:20:47			0	36303	0	0	0	28872	27440	170893	27249	1064368	45813	110731	0	0	8019	610386	0	0
2024-08-06 11:21:47			0	36309	0	0	0	28867	27450	170921	27059	1064350	45814	110729	0	0	8019	610102	0	0
2024-08-06 11:22:47			0	36306	0	0	0	28859	27440	170893	26948	1064386	45825	110726	0	0	8019	610262	0	0
2024-08-06 11:23:47			0	36317	0	0	0	28870	27440	170785	26615	1064288	45825	110730	0	0	8020	609805	0	0
2024-08-06 11:24:47			0	36327	0	0	0	28872	27450	170769	27062	1064386	45837	110731	0	0	8020	609354	0	0
2024-08-06 11:25:47			0	36326	0	0	0	28870	27450	170753	27067	1064404	45826	110730	0	0	8020	609396	0	0
2024-08-06 11:26:47			0	36329	0	0	0	28864	27460	170709	27150	1064368	45837	110728	0	0	8021	609237	0	0
2024-08-06 11:27:47			0	36337	0	0	0	28859	27450	170745	26953	1064359	45815	110726	0	0	8021	608940	0	0
2024-08-06 11:28:47			0	36342	0	0	0	28872	27450	170637	26968	1064350	45826	110731	0	0	8021	608732	0	0
2024-08-06 11:29:47			0	36357	0	0	0	28870	27450	170721	26894	1064386	45815	110730	0	0	8022	608110	0	0
2024-08-06 11:30:47			0	36359	0	0	0	28877	27460	170569	26975	1064422	45827	110733	0	0	8022	607993	0	0
2024-08-06 11:31:47			0	36349	0	0	0	28898	27460	170625	27258	1064395	45827	110741	0	0	8021	608407	0	0
2024-08-06 11:32:47			0	36357	0	0	0	28916	27460	170601	27145	1064458	45827	110748	0	0	8021	608076	0	0
2024-08-06 11:33:47			0	36353	0	0	0	28909	27470	170545	26972	1064494	45828	110745	0	0	8021	608206	0	0
2024-08-06 11:34:47			0	36348	0	0	0	28903	27470	170577	27026	1064503	45839	110743	0	0	8021	608413	0	0
2024-08-06 11:35:47			0	36358	0	0	0	28919	27470	170721	27208	1064575	45828	110749	0	0	8021	607999	0	0
2024-08-06 11:36:47			0	36356	0	0	0	28914	27470	170721	26849	1064557	45829	110747	0	0	8021	608082	0	0
2024-08-06 11:37:47			0	36355	0	0	0	28924	27480	170629	26876	1064548	45830	110751	0	0	8021	608088	0	0
2024-08-06 11:38:47			0	36347	0	0	0	28932	27480	170625	26727	1064655	45840	110754	0	0	8021	608420	0	0
2024-08-06 11:39:47			0	36354	0	0	0	28937	27500	170673	26842	1064682	45819	110756	0	0	8021	608060	0	0
2024-08-06 11:40:47			0	36363	0	0	0	28942	27500	170581	27133	1064655	45841	110758	0	0	8021	607687	0	0
2024-08-06 11:41:47			0	36355	0	0	0	28948	27500	170557	27109	1064718	45832	110760	0	0	8021	608018	0	0
2024-08-06 11:42:47			0	36379	0	0	0	28948	27510	170421	27116	1064763	45843	110760	0	0	8022	606990	0	0
2024-08-06 11:43:47			0	36378	0	0	0	28968	27520	170417	26724	1064826	45833	110768	0	0	8022	606996	0	0
2024-08-06 11:44:47			0	36408	0	0	0	28968	27510	170417	27178	1064844	45833	110768	0	0	8024	605790	0	0
2024-08-06 11:45:47			0	36406	0	0	0	28971	27520	170397	26939	1064826	45821	110769	0	0	8024	605838	0	0
2024-08-06 11:46:47			0	36417	0	0	0	28971	27530	170333	26863	1064835	45833	110769	0	0	8024	605349	0	0
2024-08-06 11:47:47			0	36433	0	0	0	28976	27530	170193	26842	1064843	45834	110771	0	0	8025	604688	0	0
2024-08-06 11:48:47			0	36426	0	0	0	28997	27540	170241	27015	1064907	45834	110779	0	0	8024	604942	0	0
2024-08-06 11:49:47			0	36437	0	0	0	28997	27540	170213	26892	1064960	45834	110779	0	0	8025	604488	0	0
2024-08-06 11:50:47			0	36428	0	0	0	29028	27550	170189	27026	1064978	45835	110791	0	0	8024	604825	0	0
2024-08-06 11:51:47			0	36439	0	0	0	29036	27570	170353	27017	1065095	45848	110794	0	0	8025	604302	0	0
2024-08-06 11:52:47			0	36433	0	0	0	29049	27560	170301	27055	1065140	45848	110799	0	0	8024	604584	0	0
2024-08-06 11:53:47			0	36445	0	0	0	29064	27580	170153	27104	1065229	45850	110805	0	0	8025	604019	0	0
2024-08-06 11:54:47			0	36465	0	0	0	29054	27590	170173	27203	1065238	45861	110801	0	0	8026	603160	0	0
2024-08-06 11:55:47			0	36436	0	0	0	29049	27590	170093	27298	1065220	45840	110799	0	0	8024	604356	0	0
2024-08-06 11:56:47			0	36462	0	0	0	29044	27600	170109	26916	1065211	45852	110797	0	0	8026	603249	0	0
2024-08-06 11:57:47			0	36476	0	0	0	29054	27610	170005	27090	1065247	45852	110801	0	0	8027	602638	0	0
2024-08-06 11:58:47			0	36485	0	0	0	29051	27610	169917	27024	1065301	45852	110800	0	0	8027	602267	0	0
2024-08-06 11:59:47			0	36504	0	0	0	29062	27620	169813	26901	1065346	45843	110804	0	0	8028	601451	0	0
2024-08-06 12:00:47			0	36513	0	0	0	29083	27620	169709	26680	1065346	45854	110812	0	0	8029	601081	0	0
2024-08-06 12:01:47			0	36520	0	0	0	29077	27620	169801	27097	1065373	45843	110810	0	0	8029	600794	0	0
2024-08-06 12:02:47			0	36525	0	0	0	29083	27630	169681	27019	1065391	45843	110812	0	0	8029	600554	0	0
2024-08-06 12:03:47			0	36524	0	0	0	29057	27640	169629	27098	1065436	45844	110802	0	0	8030	600560	0	0
2024-08-06 12:04:47			0	36519	0	0	0	29062	27640	169613	27026	1065391	45867	110804	0	0	8029	600765	0	0
2024-08-06 12:05:47			0	36561	0	0	0	29067	27640	169665	27128	1065391	45833	110806	0	0	8032	599042	0	0
2024-08-06 12:06:47			0	36561	0	0	0	29062	27650	169549	26909	1065454	45834	110804	0	0	8032	599007	0	0
2024-08-06 12:07:47			0	36564	0	0	0	29064	27650	169509	26863	1065427	45824	110805	0	0	8032	598884	0	0
2024-08-06 12:08:47			0	36561	0	0	0	29070	27650	169577	26844	1065427	45845	110807	0	0	8032	599007	0	0
2024-08-06 12:09:47			0	36573	0	0	0	29077	27650	169465	26837	1065436	45857	110810	0	0	8032	598515	0	0
2024-08-06 12:10:47			0	36569	0	0	0	29077	27650	169377	26925	1065463	45845	110810	0	0	8032	598679	0	0
2024-08-06 12:11:47			0	36591	0	0	0	29072	27670	169485	26890	1065490	45847	110808	0	0	8034	597710	0	0
2024-08-06 12:12:47			0	36601	0	0	0	29072	27660	169318	27112	1065562	45847	110808	0	0	8034	597335	0	0
2024-08-06 12:13:47			0	36611	0	0	0	29067	27660	169278	26857	1065526	45858	110806	0	0	8035	596926	0	0
2024-08-06 12:14:47			0	36603	0	0	0	29064	27660	169322	27076	1065553	45846	110805	0	0	8034	597253	0	0
2024-08-06 12:15:47			0	36574	0	0	0	29049	27670	169389	26805	1065490	45847	110799	0	0	8033	598406	0	0
2024-08-06 12:16:47			0	36581	0	0	0	29038	27670	169382	26890	1065499	45836	110795	0	0	8034	598119	0	0
2024-08-06 12:17:47			0	36572	0	0	0	29041	27660	169485	26850	1065400	45847	110796	0	0	8033	598522	0	0
2024-08-06 12:18:47			0	36549	0	0	0	29031	27660	169457	26908	1065427	45836	110792	0	0	8032	599465	0	0
2024-08-06 12:19:47			0	36559	0	0	0	29059	27660	169617	26759	1065562	45826	110803	0	0	8032	599055	0	0
2024-08-06 12:20:47			0	36544	0	0	0	29202	27680	169613	26826	1065696	45871	110858	0	0	8029	599601	0	0
2024-08-06 12:21:47			0	36576	0	0	0	29186	27680	169461	27015	1065867	45872	110852	0	0	8031	598289	0	0
2024-08-06 12:22:47			0	36600	0	0	0	29145	27700	169422	26604	1065930	45874	110836	0	0	8033	597238	0	0
2024-08-06 12:23:47			0	36592	0	0	0	29119	27720	169314	26790	1065858	45875	110826	0	0	8033	597497	0	0
2024-08-06 12:24:47			0	36614	0	0	0	29181	27720	169342	26665	1065939	45865	110850	0	0	8033	596597	0	0
2024-08-06 12:25:47			0	36638	0	0	0	29205	27730	169250	26961	1065975	45854	110859	0	0	8034	595582	0	0
2024-08-06 12:26:47			0	36688	0	0	0	29116	27730	169126	26870	1066010	45866	110825	0	0	8039	593543	0	0
2024-08-06 12:27:47			0	36696	0	0	0	29059	27740	168998	27182	1065813	45844	110803	0	0	8040	593183	0	0
2024-08-06 12:28:47			0	36657	0	0	0	29041	27720	169134	26935	1065723	45809	110796	0	0	8038	594841	0	0
2024-08-06 12:29:47			0	36610	0	0	0	29062	27710	169410	27005	1065598	45831	110804	0	0	8035	596795	0	0
2024-08-06 12:30:47			0	36581	0	0	0	29080	27710	169441	26915	1065651	45819	110811	0	0	8033	597981	0	0
2024-08-06 12:31:47			0	36563	0	0	0	29098	27710	169497	26986	1065840	45841	110818	0	0	8032	598719	0	0
2024-08-06 12:32:47			0	36544	0	0	0	29098	27710	169685	26889	1065759	45841	110818	0	0	8031	599498	0	0
2024-08-06 12:33:47			0	36556	0	0	0	29088	27720	169477	27130	1065768	45852	110814	0	0	8032	598971	0	0
2024-08-06 12:34:47			0	36565	0	0	0	29080	27720	169525	26930	1065714	45852	110811	0	0	8032	598602	0	0
2024-08-06 12:35:47			0	36571	0	0	0	29080	27720	169425	26949	1065741	45831	110811	0	0	8033	598356	0	0
2024-08-06 12:36:47			0	36576	0	0	0	29085	27710	169553	26793	1065678	45841	110813	0	0	8033	598186	0	0
2024-08-06 12:37:47			0	36573	0	0	0	29083	27710	169533	26802	1065696	45830	110812	0	0	8033	598309	0	0
2024-08-06 12:38:47			0	36562	0	0	0	29090	27710	169585	26873	1065705	45852	110815	0	0	8032	598760	0	0
2024-08-06 12:39:47			0	36564	0	0	0	29103	27720	169485	27274	1065741	45841	110820	0	0	8032	598643	0	0
2024-08-06 12:40:47			0	36572	0	0	0	29114	27710	169461	26823	1065777	45851	110824	0	0	8032	598350	0	0
2024-08-06 12:41:47			0	36564	0	0	0	29124	27710	169441	26920	1065786	45864	110828	0	0	8031	598678	0	0
2024-08-06 12:42:47			0	36585	0	0	0	29122	27720	169469	27090	1065858	45853	110827	0	0	8033	597783	0	0
2024-08-06 12:43:47			0	36588	0	0	0	29122	27730	169386	26845	1065867	45854	110827	0	0	8033	597626	0	0
2024-08-06 12:44:47			0	36609	0	0	0	29122	27740	169414	27209	1065894	45855	110827	0	0	8034	596732	0	0
2024-08-06 12:45:47			0	36616	0	0	0	29119	27730	169358	26715	1065840	45843	110826	0	0	8035	596481	0	0
2024-08-06 12:46:47			0	36611	0	0	0	29135	27730	169378	26882	1065768	45854	110832	0	0	8034	596685	0	0
2024-08-06 12:47:47			0	36612	0	0	0	29135	27740	169318	27126	1065921	45844	110832	0	0	8034	596610	0	0
2024-08-06 12:48:47			0	36592	0	0	0	29132	27730	169438	27171	1065840	45833	110831	0	0	8033	597462	0	0
2024-08-06 12:49:47			0	36590	0	0	0	29137	27730	169270	27074	1065822	45843	110833	0	0	8033	597544	0	0
2024-08-06 12:50:47			0	36592	0	0	0	29124	27740	169389	27055	1065885	45843	110828	0	0	8033	597428	0	0
2024-08-06 12:51:47			0	36618	0	0	0	29119	27730	169434	26935	1065849	45843	110826	0	0	8035	596399	0	0
2024-08-06 12:52:47			0	36605	0	0	0	29142	27730	169354	27164	1065840	45843	110835	0	0	8034	596930	0	0
2024-08-06 12:53:47			0	36627	0	0	0	29155	27730	169338	27043	1065957	45843	110840	0	0	8035	596031	0	0
2024-08-06 12:54:47			0	36633	0	0	0	29163	27740	169298	27119	1065885	45854	110843	0	0	8035	595752	0	0
2024-08-06 12:55:47			0	36639	0	0	0	29168	27730	169134	26689	1065983	45843	110845	0	0	8035	595541	0	0
2024-08-06 12:56:47			0	36663	0	0	0	29179	27740	169054	27112	1066001	45844	110849	0	0	8036	594528	0	0
2024-08-06 12:57:47			0	36664	0	0	0	29205	27750	169106	26748	1066064	45868	110859	0	0	8036	594453	0	0
2024-08-06 12:58:47			0	36667	0	0	0	29212	27750	169066	26963	1066127	45868	110862	0	0	8036	594330	0	0
2024-08-06 12:59:47			0	36685	0	0	0	29212	27760	169054	27036	1066136	45856	110862	0	0	8037	593562	0	0
2024-08-06 13:00:47			0	36699	0	0	0	29205	27760	168978	26823	1066109	45868	110859	0	0	8038	592992	0	0
2024-08-06 13:01:47			0	36679	0	0	0	29210	27770	168954	26720	1066154	45847	110861	0	0	8037	593773	0	0
2024-08-06 13:02:47			0	36707	0	0	0	29202	27780	168910	26974	1066199	45858	110858	0	0	8039	592599	0	0
2024-08-06 13:03:47			0	36712	0	0	0	29184	27790	168974	26705	1066217	45849	110851	0	0	8040	592361	0	0
2024-08-06 13:04:47			0	36698	0	0	0	29184	27780	168878	27066	1066199	45847	110851	0	0	8039	592965	0	0
2024-08-06 13:05:47			0	36719	0	0	0	29199	27790	168842	26755	1066136	45860	110857	0	0	8040	592076	0	0
2024-08-06 13:06:47			0	36697	0	0	0	29197	27780	169014	27164	1066181	45836	110856	0	0	8038	593006	0	0
2024-08-06 13:07:47			0	36713	0	0	0	29215	27790	168794	26991	1066226	45850	110863	0	0	8039	592320	0	0
2024-08-06 13:08:47			0	36721	0	0	0	29220	27770	168786	26875	1066190	45858	110865	0	0	8039	592063	0	0
2024-08-06 13:09:47			0	36737	0	0	0	29231	27790	168810	26979	1066244	45860	110869	0	0	8040	591345	0	0
2024-08-06 13:10:47			0	36736	0	0	0	29197	27790	168738	26838	1066298	45860	110856	0	0	8041	591385	0	0
2024-08-06 13:11:47			0	36738	0	0	0	29199	27790	168642	26928	1066244	45860	110857	0	0	8041	591304	0	0
2024-08-06 13:12:47			0	36735	0	0	0	29150	27800	168702	27163	1066235	45850	110838	0	0	8042	591392	0	0
2024-08-06 13:13:47			0	36732	0	0	0	29140	27790	168682	26859	1066091	45817	110834	0	0	8041	591548	0	0
2024-08-06 13:14:47			0	36736	0	0	0	29106	27780	168698	26948	1066073	45836	110821	0	0	8042	591419	0	0
2024-08-06 13:15:47			0	36701	0	0	0	29096	27780	168806	26790	1065983	45814	110817	0	0	8040	592843	0	0
2024-08-06 13:16:47			0	36707	0	0	0	29093	27760	168910	27081	1065903	45824	110816	0	0	8041	592667	0	0
2024-08-06 13:17:47			0	36658	0	0	0	29103	27760	168902	27229	1065867	45834	110820	0	0	8038	594663	0	0
2024-08-06 13:18:47			0	36658	0	0	0	29241	27750	169022	27026	1066046	45856	110873	0	0	8035	594697	0	0
2024-08-06 13:19:47			0	36673	0	0	0	29303	27770	169082	27026	1066244	45880	110897	0	0	8035	594017	0	0
2024-08-06 13:20:47			0	36688	0	0	0	29337	27780	169034	26798	1066450	45892	110910	0	0	8035	593372	0	0
2024-08-06 13:21:47			0	36732	0	0	0	29293	27810	168758	26941	1066522	45874	110893	0	0	8039	591480	0	0
2024-08-06 13:22:47			0	36820	0	0	0	29262	27810	168474	26800	1066468	45874	110881	0	0	8045	587911	0	0
2024-08-06 13:23:47			0	36851	0	0	0	29197	27830	168254	27397	1066468	45885	110856	0	0	8048	586590	0	0
2024-08-06 13:24:47			0	36809	0	0	0	29109	27820	168322	27183	1066244	45840	110822	0	0	8047	588323	0	0
2024-08-06 13:25:47			0	36820	0	0	0	29098	27810	168258	26963	1066091	45839	110818	0	0	8047	587911	0	0
2024-08-06 13:26:47			0	36795	0	0	0	29114	27790	168418	27039	1066064	45828	110824	0	0	8046	588992	0	0
2024-08-06 13:27:47			0	36757	0	0	0	29096	27780	168502	27010	1065983	45825	110817	0	0	8044	590567	0	0
2024-08-06 13:28:47			0	36742	0	0	0	29083	27770	168702	26960	1065885	45825	110812	0	0	8043	591210	0	0
2024-08-06 13:29:47			0	36692	0	0	0	29093	27760	168770	26994	1065894	45834	110816	0	0	8040	593277	0	0
2024-08-06 13:30:47			0	36686	0	0	0	29080	27750	168926	26802	1065858	45834	110811	0	0	8040	593556	0	0
2024-08-06 13:31:47			0	36677	0	0	0	29041	27750	168946	26750	1065876	45823	110796	0	0	8040	593923	0	0
2024-08-06 13:32:47			0	36665	0	0	0	29028	27740	168990	26854	1065723	45810	110791	0	0	8039	594446	0	0
2024-08-06 13:33:47			0	36643	0	0	0	29041	27730	169058	26762	1065651	45833	110796	0	0	8038	595378	0	0
2024-08-06 13:34:47			0	36574	0	0	0	29044	27720	169353	26743	1065723	45820	110797	0	0	8033	598233	0	0
2024-08-06 13:35:47			0	36576	0	0	0	29062	27710	169473	26623	1065651	45831	110804	0	0	8033	598186	0	0
2024-08-06 13:36:47			0	36558	0	0	0	29072	27710	169529	26734	1065651	45831	110808	0	0	8032	598924	0	0
2024-08-06 13:37:47			0	36556	0	0	0	29054	27710	169545	26776	1065723	45840	110801	0	0	8032	599005	0	0
2024-08-06 13:38:47			0	36558	0	0	0	29041	27710	169533	26998	1065651	45841	110796	0	0	8032	598924	0	0
2024-08-06 13:39:47			0	36553	0	0	0	29020	27700	169493	27060	1065634	45840	110788	0	0	8032	599163	0	0
2024-08-06 13:40:47			0	36548	0	0	0	29023	27700	169505	27010	1065598	45817	110789	0	0	8032	599368	0	0
2024-08-06 13:41:47			0	36555	0	0	0	29023	27690	169605	26670	1065616	45828	110789	0	0	8032	599115	0	0
2024-08-06 13:42:47			0	36536	0	0	0	29059	27690	169581	27147	1065526	45838	110803	0	0	8031	599895	0	0
2024-08-06 13:43:47			0	36541	0	0	0	29072	27680	169573	27107	1065544	45849	110808	0	0	8031	599724	0	0
2024-08-06 13:44:47			0	36544	0	0	0	29072	27690	169613	26788	1065553	45838	110808	0	0	8031	599567	0	0
2024-08-06 13:45:47			0	36552	0	0	0	29072	27680	169549	26942	1065625	45849	110808	0	0	8031	599273	0	0
2024-08-06 13:46:47			0	36571	0	0	0	29059	27690	169493	26793	1065607	45849	110803	0	0	8033	598460	0	0
2024-08-06 13:47:47			0	36579	0	0	0	29070	27690	169405	26894	1065643	45838	110807	0	0	8033	598132	0	0
2024-08-06 13:48:47			0	36579	0	0	0	29057	27680	169481	26824	1065562	45837	110802	0	0	8033	598167	0	0
2024-08-06 13:49:47			0	36587	0	0	0	29070	27680	169397	26774	1065571	45828	110807	0	0	8034	597839	0	0
2024-08-06 13:50:47			0	36583	0	0	0	29072	27680	169309	26797	1065652	45828	110808	0	0	8033	598003	0	0
2024-08-06 13:51:47			0	36592	0	0	0	29101	27690	169421	26838	1065714	45861	110819	0	0	8033	597600	0	0
2024-08-06 13:52:47			0	36594	0	0	0	29088	27700	169337	27053	1065741	45874	110814	0	0	8034	597483	0	0
2024-08-06 13:53:47			0	36610	0	0	0	29083	27710	169362	26814	1065777	45830	110812	0	0	8035	596795	0	0
2024-08-06 13:54:47			0	36617	0	0	0	29083	27700	169306	26902	1065768	45830	110812	0	0	8035	596543	0	0
2024-08-06 13:55:47			0	36620	0	0	0	29083	27710	169262	27189	1065777	45840	110812	0	0	8035	596386	0	0
2024-08-06 13:56:47			0	36622	0	0	0	29067	27700	169278	26859	1065741	45840	110806	0	0	8036	596338	0	0
2024-08-06 13:57:47			0	36628	0	0	0	29070	27710	169198	26648	1065777	45851	110807	0	0	8036	596059	0	0
2024-08-06 13:58:47			0	36630	0	0	0	29085	27710	169190	27183	1065804	45851	110813	0	0	8036	595977	0	0
2024-08-06 13:59:47			0	36645	0	0	0	29106	27720	169214	27017	1065849	45841	110821	0	0	8037	595330	0	0
2024-08-06 14:00:47			0	36663	0	0	0	29098	27720	169022	26724	1065858	45853	110818	0	0	8038	594596	0	0
2024-08-06 14:01:47			0	36669	0	0	0	29101	27710	168986	27173	1065813	45852	110819	0	0	8038	594386	0	0
2024-08-06 14:02:47			0	36669	0	0	0	29049	27740	168942	26928	1065885	45843	110799	0	0	8039	594283	0	0
2024-08-06 14:03:47			0	36697	0	0	0	29036	27710	168830	26875	1065696	45830	110794	0	0	8041	593245	0	0
2024-08-06 14:04:47			0	36691	0	0	0	29028	27720	168958	26982	1065741	45831	110791	0	0	8041	593455	0	0
2024-08-06 14:05:47			0	36687	0	0	0	29036	27710	168854	26981	1065678	45831	110794	0	0	8040	593652	0	0
2024-08-06 14:06:47			0	36660	0	0	0	29088	27700	168974	26889	1065687	45830	110814	0	0	8038	594787	0	0
2024-08-06 14:07:47			0	36656	0	0	0	29148	27710	169030	26975	1065840	45841	110837	0	0	8036	594916	0	0
2024-08-06 14:08:47			0	36694	0	0	0	29251	27730	168974	26687	1066091	45888	110877	0	0	8037	593298	0	0
2024-08-06 14:09:47			0	36733	0	0	0	29236	27760	168782	26842	1066298	45878	110871	0	0	8040	591609	0	0
2024-08-06 14:10:47			0	36752	0	0	0	29207	27770	168718	27227	1066315	45870	110860	0	0	8041	590804	0	0
2024-08-06 14:11:47			0	36744	0	0	0	29142	27780	168610	26674	1066199	45847	110835	0	0	8042	591094	0	0
2024-08-06 14:12:47			0	36752	0	0	0	29142	27770	168662	27097	1066109	45825	110835	0	0	8043	590804	0	0
2024-08-06 14:13:47			0	36737	0	0	0	29179	27760	168674	27260	1066172	45846	110849	0	0	8041	591447	0	0
2024-08-06 14:14:47			0	36731	0	0	0	29207	27770	168726	26901	1066262	45870	110860	0	0	8040	591657	0	0
2024-08-06 14:15:47			0	36717	0	0	0	29272	27780	168678	27263	1066370	45871	110885	0	0	8038	592192	0	0
2024-08-06 14:16:47			0	36739	0	0	0	29231	27790	168770	27124	1066414	45894	110869	0	0	8040	591264	0	0
2024-08-06 14:17:47			0	36735	0	0	0	29223	27810	168726	27019	1066468	45862	110866	0	0	8040	591358	0	0
2024-08-06 14:18:47			0	36731	0	0	0	29202	27810	168762	26857	1066468	45851	110858	0	0	8040	591520	0	0
2024-08-06 14:19:47			0	36734	0	0	0	29241	27820	168818	26644	1066486	45863	110873	0	0	8040	591364	0	0
2024-08-06 14:20:47			0	36733	0	0	0	29283	27830	168726	27057	1066558	45864	110889	0	0	8039	591371	0	0
2024-08-06 14:21:47			0	36712	0	0	0	29311	27850	168826	26649	1066639	45876	110900	0	0	8038	592156	0	0
2024-08-06 14:22:47			0	36738	0	0	0	29371	27850	168694	27066	1066702	45877	110923	0	0	8038	591100	0	0
2024-08-06 14:23:47			0	36790	0	0	0	29355	27870	168470	26977	1066890	45879	110917	0	0	8042	588923	0	0
2024-08-06 14:24:47			0	36868	0	0	0	29319	27890	168230	26963	1066845	45870	110903	0	0	8047	585701	0	0
2024-08-06 14:25:47			0	36885	0	0	0	29342	27890	168018	26734	1066800	45881	110912	0	0	8048	585016	0	0
2024-08-06 14:26:47			0	36900	0	0	0	29345	27900	167974	27083	1066836	45871	110913	0	0	8048	584377	0	0
2024-08-06 14:27:47			0	36905	0	0	0	29361	27900	167890	26941	1066890	45860	110919	0	0	8048	584176	0	0
2024-08-06 14:28:47			0	36934	0	0	0	29368	27920	167798	27052	1067034	45873	110922	0	0	8050	582941	0	0
2024-08-06 14:29:47			0	36928	0	0	0	29379	27920	167742	26769	1066953	45862	110926	0	0	8050	583182	0	0
2024-08-06 14:30:47			0	36946	0	0	0	29366	27920	167670	27052	1067034	45873	110921	0	0	8051	582458	0	0
2024-08-06 14:31:47			0	36943	0	0	0	29363	27920	167670	27144	1067043	45863	110920	0	0	8051	582579	0	0
2024-08-06 14:32:47			0	36951	0	0	0	29366	27930	167694	26963	1067079	45875	110921	0	0	8051	582224	0	0
2024-08-06 14:33:47			0	36948	0	0	0	29381	27940	167654	27168	1067133	45875	110927	0	0	8051	582311	0	0
2024-08-06 14:34:47			0	36945	0	0	0	29379	27940	167710	26842	1067097	45864	110926	0	0	8051	582432	0	0
2024-08-06 14:35:47			0	36954	0	0	0	29376	27940	167726	27102	1067052	45865	110925	0	0	8051	582070	0	0
2024-08-06 14:36:47			0	36949	0	0	0	29358	27940	167678	26986	1067079	45865	110918	0	0	8051	582271	0	0
2024-08-06 14:37:47			0	36944	0	0	0	29371	27950	167714	27041	1067115	45866	110923	0	0	8051	582438	0	0
2024-08-06 14:38:47			0	36939	0	0	0	29355	27950	167710	26986	1067151	45866	110917	0	0	8051	582639	0	0
2024-08-06 14:39:47			0	36933	0	0	0	29361	27940	167782	27074	1067106	45853	110919	0	0	8050	582914	0	0
2024-08-06 14:40:47			0	36920	0	0	0	29342	27950	167846	26849	1067097	45876	110912	0	0	8050	583404	0	0
2024-08-06 14:41:47			0	36907	0	0	0	29361	27950	167838	26989	1067088	45866	110919	0	0	8049	583927	0	0
2024-08-06 14:42:47			0	36880	0	0	0	29361	27950	168010	26996	1067124	45866	110919	0	0	8047	585015	0	0
2024-08-06 14:43:47			0	36872	0	0	0	29368	27960	168010	27057	1067142	45867	110922	0	0	8047	585303	0	0
2024-08-06 14:44:47			0	36893	0	0	0	29379	27960	168026	26948	1067115	45867	110926	0	0	8048	584457	0	0
2024-08-06 14:45:47			0	36871	0	0	0	29392	27960	167990	27263	1067187	45876	110931	0	0	8046	585344	0	0
2024-08-06 14:46:47			0	36875	0	0	0	29379	27960	167954	26916	1067249	45867	110926	0	0	8047	585183	0	0
2024-08-06 14:47:47			0	36884	0	0	0	29371	27970	168058	27187	1067124	45856	110923	0	0	8047	584786	0	0
2024-08-06 14:48:47			0	36895	0	0	0	29366	27960	167910	27092	1067195	45877	110921	0	0	8048	584376	0	0
2024-08-06 14:49:47			0	36878	0	0	0	29376	27980	167874	27157	1067195	45878	110925	0	0	8047	584994	0	0
2024-08-06 14:50:47			0	36899	0	0	0	29376	27960	167894	27130	1067142	45855	110925	0	0	8048	584215	0	0
2024-08-06 14:51:47			0	36879	0	0	0	29381	27970	167966	27164	1067178	45868	110927	0	0	8047	584987	0	0
2024-08-06 14:52:47			0	36878	0	0	0	29379	27980	167974	27017	1067195	45868	110926	0	0	8047	584994	0	0
2024-08-06 14:53:47			0	36882	0	0	0	29384	27980	168010	26772	1067285	45857	110928	0	0	8047	584833	0	0
2024-08-06 14:54:47			0	36884	0	0	0	29412	27980	167930	26752	1067222	45868	110939	0	0	8047	584752	0	0
2024-08-06 14:55:47			0	36878	0	0	0	29446	28000	167970	26906	1067393	45881	110952	0	0	8046	584927	0	0
2024-08-06 14:56:47			0	36884	0	0	0	29431	28000	167874	27161	1067510	45892	110946	0	0	8047	584685	0	0
2024-08-06 14:57:47			0	36913	0	0	0	29410	28010	167886	27067	1067447	45883	110938	0	0	8049	583483	0	0
2024-08-06 14:58:47			0	36921	0	0	0	29428	28010	167826	26866	1067474	45894	110945	0	0	8049	583161	0	0
2024-08-06 14:59:47			0	36908	0	0	0	29412	28020	167870	26987	1067438	45894	110939	0	0	8048	583651	0	0
2024-08-06 15:00:47			0	36921	0	0	0	29412	28010	167810	26972	1067447	45861	110939	0	0	8049	583161	0	0
2024-08-06 15:01:47			0	36910	0	0	0	29407	28030	167762	26953	1067393	45884	110937	0	0	8049	583537	0	0
2024-08-06 15:02:47			0	36907	0	0	0	29418	28020	167838	26840	1067492	45850	110941	0	0	8048	583691	0	0
2024-08-06 15:03:47			0	36912	0	0	0	29464	28020	167834	26733	1067510	45873	110959	0	0	8048	583490	0	0
2024-08-06 15:04:47			0	36911	0	0	0	29501	28040	167810	27033	1067600	45885	110973	0	0	8047	583463	0	0
2024-08-06 15:05:47			0	36911	0	0	0	29467	28050	167818	27039	1067725	45897	110960	0	0	8048	583429	0	0
2024-08-06 15:06:47			0	36934	0	0	0	29470	28050	167574	26883	1067681	45887	110961	0	0	8049	582504	0	0
2024-08-06 15:07:47			0	36932	0	0	0	29490	28060	167538	26741	1067716	45887	110969	0	0	8049	582551	0	0
2024-08-06 15:08:47			0	36950	0	0	0	29496	28070	167458	26793	1067734	45888	110971	0	0	8050	581794	0	0
2024-08-06 15:09:47			0	36968	0	0	0	29501	28070	167518	26772	1067797	45889	110973	0	0	8051	581072	0	0
2024-08-06 15:10:47			0	36968	0	0	0	29548	28080	167462	26798	1067860	45877	110991	0	0	8050	581038	0	0
2024-08-06 15:11:47			0	36978	0	0	0	29519	28090	167346	26835	1067914	45891	110980	0	0	8051	580603	0	0
2024-08-06 15:12:47			0	36991	0	0	0	29475	28100	167422	27208	1067842	45892	110963	0	0	8053	580049	0	0
2024-08-06 15:13:47			0	37006	0	0	0	29496	28090	167330	27083	1067806	45869	110971	0	0	8053	579481	0	0
2024-08-06 15:14:47			0	37012	0	0	0	29516	28090	167322	27166	1067860	45879	110979	0	0	8053	579241	0	0
2024-08-06 15:15:47			0	37005	0	0	0	29527	28100	167282	26892	1067923	45892	110983	0	0	8052	579488	0	0
2024-08-06 15:16:47			0	37010	0	0	0	29493	28110	167366	27123	1067986	45880	110970	0	0	8053	579254	0	0
2024-08-06 15:17:47			0	37018	0	0	0	29503	28120	167262	26928	1067950	45904	110974	0	0	8054	578900	0	0
2024-08-06 15:18:47			0	37016	0	0	0	29584	28120	167370	27234	1068094	45894	111005	0	0	8052	578980	0	0
2024-08-06 15:19:47			0	37008	0	0	0	29558	28130	167302	27251	1068076	45882	110995	0	0	8052	579267	0	0
2024-08-06 15:20:47			0	37021	0	0	0	29438	28140	167238	26746	1068013	45873	110949	0	0	8055	578714	0	0
2024-08-06 15:21:47			0	37035	0	0	0	29490	28130	167074	27107	1068022	45894	110969	0	0	8055	578187	0	0
2024-08-06 15:22:47			0	37038	0	0	0	29586	28140	167130	26967	1068147	45895	111006	0	0	8054	578034	0	0
2024-08-06 15:23:47			0	37056	0	0	0	29550	28140	167142	26908	1068129	45884	110992	0	0	8055	577314	0	0
2024-08-06 15:24:47			0	37083	0	0	0	29529	28150	166890	26826	1068112	45896	110984	0	0	8057	576203	0	0
2024-08-06 15:25:47			0	37102	0	0	0	29516	28150	166838	26942	1068085	45896	110979	0	0	8059	575445	0	0
2024-08-06 15:26:47			0	37086	0	0	0	29527	28150	166714	27248	1068121	45875	110983	0	0	8057	576083	0	0
2024-08-06 15:27:47			0	37097	0	0	0	29511	28150	166714	27421	1068147	45875	110977	0	0	8058	575645	0	0
2024-08-06 15:28:47			0	37073	0	0	0	29568	28150	166858	27062	1068121	45885	110999	0	0	8056	576602	0	0
2024-08-06 15:29:47			0	37055	0	0	0	29623	28170	167022	27097	1068291	45910	111020	0	0	8054	577254	0	0
2024-08-06 15:30:47			0	37049	0	0	0	29644	28170	167202	27163	1068336	45909	111028	0	0	8053	577494	0	0
2024-08-06 15:31:47			0	37074	0	0	0	29623	28180	167162	26993	1068462	45900	111020	0	0	8055	576462	0	0
2024-08-06 15:32:47			0	37106	0	0	0	29605	28180	166854	27071	1068408	45911	111013	0	0	8057	575186	0	0
2024-08-06 15:33:47			0	37148	0	0	0	29612	28200	166626	27116	1068444	45902	111016	0	0	8060	573448	0	0
2024-08-06 15:34:47			0	37165	0	0	0	29597	28190	166570	26960	1068435	45878	111010	0	0	8061	572805	0	0
2024-08-06 15:35:47			0	37164	0	0	0	29620	28210	166622	27038	1068516	45891	111019	0	0	8061	572779	0	0
2024-08-06 15:36:47			0	37127	0	0	0	29628	28210	166594	27161	1068462	45903	111022	0	0	8058	574250	0	0
2024-08-06 15:37:47			0	37140	0	0	0	29654	28220	166770	27196	1068543	45915	111032	0	0	8059	573700	0	0
2024-08-06 15:38:47			0	37147	0	0	0	29662	28230	166702	27112	1068606	45893	111035	0	0	8059	573388	0	0
2024-08-06 15:39:47			0	37152	0	0	0	29670	28240	166554	26859	1068678	45906	111038	0	0	8059	573157	0	0
2024-08-06 15:40:47			0	37173	0	0	0	29662	28240	166642	26845	1068705	45906	111035	0	0	8061	572322	0	0
2024-08-06 15:41:47			0	37152	0	0	0	29659	28250	166510	27118	1068785	45917	111034	0	0	8060	573123	0	0
2024-08-06 15:42:47			0	37142	0	0	0	29688	28250	166530	27137	1068785	45895	111045	0	0	8059	573521	0	0
2024-08-06 15:43:47			0	37132	0	0	0	29696	28270	166582	27208	1068813	45909	111048	0	0	8058	573853	0	0
2024-08-06 15:44:47			0	37151	0	0	0	29683	28270	166478	27267	1068849	45909	111043	0	0	8059	573097	0	0
2024-08-06 15:45:47			0	37152	0	0	0	29693	28260	166422	27033	1068803	45897	111047	0	0	8059	573090	0	0
2024-08-06 15:46:47			0	37173	0	0	0	29683	28270	166482	27201	1068813	45897	111043	0	0	8060	572223	0	0
2024-08-06 15:47:47			0	37150	0	0	0	29667	28280	166534	26949	1068867	45888	111037	0	0	8059	573104	0	0
2024-08-06 15:48:47			0	37124	0	0	0	29672	28290	166590	26902	1068912	45889	111039	0	0	8058	574104	0	0
2024-08-06 15:49:47			0	37065	0	0	0	29701	28280	166770	27019	1068894	45899	111050	0	0	8054	576489	0	0
2024-08-06 15:50:47			0	37074	0	0	0	29696	28290	166802	27039	1068966	45900	111048	0	0	8055	576096	0	0
2024-08-06 15:51:47			0	37086	0	0	0	29716	28310	166702	27119	1068939	45902	111056	0	0	8055	575551	0	0
2024-08-06 15:52:47			0	37107	0	0	0	29716	28310	166506	27268	1069020	45913	111056	0	0	8056	574715	0	0
2024-08-06 15:53:47			0	37148	0	0	0	29729	28310	166378	26686	1068993	45902	111061	0	0	8058	573084	0	0
2024-08-06 15:54:47			0	37170	0	0	0	29737	28310	166378	26651	1068993	45891	111064	0	0	8060	572210	0	0
2024-08-06 15:55:47			0	37199	0	0	0	29737	28310	166222	27003	1069002	45913	111064	0	0	8061	571059	0	0
2024-08-06 15:56:47			0	37237	0	0	0	29722	28320	166126	27163	1069038	45902	111058	0	0	8064	569521	0	0
2024-08-06 15:57:47			0	37264	0	0	0	29711	28310	165986	26949	1069002	45902	111054	0	0	8066	568486	0	0
2024-08-06 15:58:47			0	37293	0	0	0	29709	28320	165978	27092	1069038	45902	111053	0	0	8067	567308	0	0
2024-08-06 15:59:47			0	37272	0	0	0	29701	28320	165934	26859	1068993	45892	111050	0	0	8066	568137	0	0
2024-08-06 16:00:47			0	37257	0	0	0	29701	28330	166158	27057	1069029	45893	111050	0	0	8065	568697	0	0
2024-08-06 16:01:47			0	37230	0	0	0	29709	28330	166094	27022	1069083	45915	111053	0	0	8064	569765	0	0
2024-08-06 16:02:47			0	37234	0	0	0	29709	28330	166138	27038	1069091	45904	111053	0	0	8064	569607	0	0
2024-08-06 16:03:47			0	37226	0	0	0	29711	28340	166102	27163	1069154	45893	111054	0	0	8063	569891	0	0
2024-08-06 16:04:47			0	37225	0	0	0	29719	28340	166202	27109	1069127	45904	111057	0	0	8063	569931	0	0
2024-08-06 16:05:47			0	37224	0	0	0	29727	28350	166210	26800	1069145	45895	111060	0	0	8063	569937	0	0
2024-08-06 16:06:47			0	37213	0	0	0	29737	28350	166246	26778	1069118	45916	111064	0	0	8062	570373	0	0
2024-08-06 16:07:47			0	37209	0	0	0	29750	28340	166126	26918	1069163	45927	111069	0	0	8062	570564	0	0
2024-08-06 16:08:47			0	37224	0	0	0	29742	28360	166118	27135	1069244	45916	111066	0	0	8063	569904	0	0
2024-08-06 16:09:47			0	37213	0	0	0	29740	28350	166122	27124	1069181	45906	111065	0	0	8062	570373	0	0
2024-08-06 16:10:47			0	37221	0	0	0	29755	28350	166350	27043	1069199	45906	111071	0	0	8062	570056	0	0
2024-08-06 16:11:47			0	37220	0	0	0	29761	28350	166210	27202	1069235	45906	111073	0	0	8062	570095	0	0
2024-08-06 16:12:47			0	37212	0	0	0	29771	28360	166242	27244	1069244	45895	111077	0	0	8062	570379	0	0
2024-08-06 16:13:47			0	37209	0	0	0	29774	28370	166238	27156	1069316	45918	111078	0	0	8062	570465	0	0
2024-08-06 16:14:47			0	37214	0	0	0	29776	28360	166290	26878	1069253	45907	111079	0	0	8062	570300	0	0
2024-08-06 16:15:47			0	37215	0	0	0	29776	28380	166198	27241	1069307	45909	111079	0	0	8062	570195	0	0
2024-08-06 16:16:47			0	37237	0	0	0	29774	28380	166150	27038	1069307	45898	111078	0	0	8063	569324	0	0
2024-08-06 16:17:47			0	37228	0	0	0	29781	28380	166246	27152	1069361	45898	111081	0	0	8063	569680	0	0
2024-08-06 16:18:47			0	37233	0	0	0	29799	28380	166042	27331	1069343	45909	111088	0	0	8063	569482	0	0
2024-08-06 16:19:47			0	37240	0	0	0	29810	28400	166022	27098	1069478	45911	111092	0	0	8063	569139	0	0
2024-08-06 16:20:47			0	37247	0	0	0	29797	28400	166006	26949	1069451	45921	111087	0	0	8064	568863	0	0
2024-08-06 16:21:47			0	37257	0	0	0	29802	28410	165934	27171	1069487	45933	111089	0	0	8064	568434	0	0
2024-08-06 16:22:47			0	37266	0	0	0	29799	28410	165830	26935	1069460	45911	111088	0	0	8065	568079	0	0
2024-08-06 16:23:47			0	37263	0	0	0	29802	28400	165926	27150	1069478	45911	111089	0	0	8064	568230	0	0
2024-08-06 16:24:47			0	37245	0	0	0	29802	28410	165978	27215	1069487	45900	111089	0	0	8063	568909	0	0
2024-08-06 16:25:47			0	37234	0	0	0	29805	28410	166090	27225	1069523	45912	111090	0	0	8063	569344	0	0
2024-08-06 16:26:47			0	37213	0	0	0	29799	28400	166178	27409	1069451	45911	111088	0	0	8061	570208	0	0
2024-08-06 16:27:47			0	37208	0	0	0	29810	28410	166178	27208	1069523	45901	111092	0	0	8061	570373	0	0
2024-08-06 16:28:47			0	37201	0	0	0	29812	28420	166206	27178	1069559	45923	111093	0	0	8061	570617	0	0
2024-08-06 16:29:47			0	37188	0	0	0	29825	28420	166178	27197	1069505	45913	111098	0	0	8060	571132	0	0
2024-08-06 16:30:47			0	37217	0	0	0	29836	28430	166126	27059	1069604	45923	111102	0	0	8061	569951	0	0
2024-08-06 16:31:47			0	37213	0	0	0	29841	28430	166058	27156	1069604	45913	111104	0	0	8061	570109	0	0
2024-08-06 16:32:47			0	37221	0	0	0	29857	28440	166138	27372	1069649	45925	111110	0	0	8061	569759	0	0
2024-08-06 16:33:47			0	37233	0	0	0	29880	28440	165962	27137	1069739	45926	111119	0	0	8061	569285	0	0
2024-08-06 16:34:47			0	37250	0	0	0	29844	28440	166006	27183	1069730	45925	111105	0	0	8063	568612	0	0
2024-08-06 16:35:47			0	37230	0	0	0	29792	28450	165950	27208	1069667	45926	111085	0	0	8063	569370	0	0
2024-08-06 16:36:47			0	37254	0	0	0	29812	28450	165830	26989	1069694	45926	111093	0	0	8064	568421	0	0
2024-08-06 16:37:47			0	37246	0	0	0	29810	28450	165830	27088	1069640	45916	111092	0	0	8063	568738	0	0
2024-08-06 16:38:47			0	37233	0	0	0	29805	28440	165838	27223	1069631	45926	111090	0	0	8063	569285	0	0
2024-08-06 16:39:47			0	37233	0	0	0	29836	28450	165966	26856	1069694	45916	111102	0	0	8062	569252	0	0
2024-08-06 16:40:47			0	37231	0	0	0	29854	28450	165962	26918	1069748	45916	111109	0	0	8062	569331	0	0
2024-08-06 16:41:47			0	37221	0	0	0	29870	28450	166098	26880	1069775	45905	111115	0	0	8061	569726	0	0
2024-08-06 16:42:47			0	37232	0	0	0	29883	28460	165982	27213	1069802	45928	111120	0	0	8061	569258	0	0
2024-08-06 16:43:47			0	37250	0	0	0	29888	28470	166082	27126	1069838	45928	111122	0	0	8062	568514	0	0
2024-08-06 16:44:47			0	37263	0	0	0	29898	28470	165858	27258	1069891	45917	111126	0	0	8063	568000	0	0
2024-08-06 16:45:47			0	37254	0	0	0	29906	28480	165918	27334	1069883	45907	111129	0	0	8062	568323	0	0
2024-08-06 16:46:47			0	37282	0	0	0	29909	28480	165666	27202	1069891	45930	111130	0	0	8064	567217	0	0
2024-08-06 16:47:47			0	37324	0	0	0	29893	28480	165679	27253	1069918	45919	111124	0	0	8067	565562	0	0
2024-08-06 16:48:47			0	37337	0	0	0	29888	28490	165563	27081	1069901	45930	111122	0	0	8068	565017	0	0
2024-08-06 16:49:47			0	37332	0	0	0	29890	28500	165499	27138	1069892	45909	111123	0	0	8067	565181	0	0
2024-08-06 16:50:47			0	37330	0	0	0	29877	28480	165515	27284	1069972	45919	111118	0	0	8067	565325	0	0
2024-08-06 16:51:47			0	37327	0	0	0	29883	28490	165587	27170	1069874	45919	111120	0	0	8067	565411	0	0
2024-08-06 16:52:47			0	37306	0	0	0	29893	28480	165638	27050	1069945	45919	111124	0	0	8066	566271	0	0
2024-08-06 16:53:47			0	37316	0	0	0	29898	28490	165570	27059	1070062	45919	111126	0	0	8066	565844	0	0
2024-08-06 16:54:47			0	37322	0	0	0	29909	28500	165607	27034	1070035	45921	111130	0	0	8066	565575	0	0
2024-08-06 16:55:47			0	37332	0	0	0	29911	28500	165587	27209	1070062	45932	111131	0	0	8067	565181	0	0
2024-08-06 16:56:47			0	37338	0	0	0	29906	28510	165535	27005	1070017	45922	111129	0	0	8067	564912	0	0
2024-08-06 16:57:47			0	37343	0	0	0	29893	28510	165523	27241	1070134	45922	111124	0	0	8068	564716	0	0
2024-08-06 16:58:47			0	37341	0	0	0	29890	28510	165499	27111	1070080	45911	111123	0	0	8068	564795	0	0
2024-08-06 16:59:47			0	37350	0	0	0	29888	28500	165575	27474	1070062	45921	111122	0	0	8068	564473	0	0
2024-08-06 17:00:47			0	37328	0	0	0	29898	28510	165515	27114	1070080	45933	111126	0	0	8067	565306	0	0
2024-08-06 17:01:47			0	37312	0	0	0	29893	28520	165642	27086	1070125	45934	111124	0	0	8066	565904	0	0
2024-08-06 17:02:47			0	37315	0	0	0	29906	28520	165703	27253	1070089	45933	111129	0	0	8066	565785	0	0
2024-08-06 17:03:47			0	37292	0	0	0	29937	28520	165662	27036	1070125	45934	111141	0	0	8064	566692	0	0
2024-08-06 17:04:47			0	37333	0	0	0	29940	28530	165711	27388	1070188	45924	111142	0	0	8067	565044	0	0
2024-08-06 17:05:47			0	37313	0	0	0	29935	28520	165583	27105	1070170	45922	111140	0	0	8066	565864	0	0
2024-08-06 17:06:47			0	37333	0	0	0	29942	28540	165659	27234	1070269	45903	111143	0	0	8067	565011	0	0
2024-08-06 17:07:47			0	37316	0	0	0	29937	28540	165675	26731	1070179	45935	111141	0	0	8066	565680	0	0
2024-08-06 17:08:47			0	37283	0	0	0	29932	28530	165762	27026	1070144	45913	111139	0	0	8064	567014	0	0
2024-08-06 17:09:47			0	37260	0	0	0	29937	28540	165810	27244	1070206	45924	111141	0	0	8063	567889	0	0
2024-08-06 17:10:47			0	37261	0	0	0	29948	28540	165854	27263	1070269	45925	111145	0	0	8062	567849	0	0
2024-08-06 17:11:47			0	37260	0	0	0	29958	28540	165910	26838	1070269	45936	111149	0	0	8062	567889	0	0
2024-08-06 17:12:47			0	37273	0	0	0	29953	28540	165826	27216	1070296	45936	111147	0	0	8063	567376	0	0
2024-08-06 17:13:47			0	37290	0	0	0	29963	28550	165754	27095	1070332	45915	111151	0	0	8064	566672	0	0
2024-08-06 17:14:47			0	37317	0	0	0	29971	28550	165546	27069	1070395	45937	111154	0	0	8065	565608	0	0
2024-08-06 17:15:47			0	37339	0	0	0	29966	28560	165439	27038	1070332	45927	111152	0	0	8067	564710	0	0
2024-08-06 17:16:47			0	37369	0	0	0	29968	28560	165335	27071	1070431	45937	111153	0	0	8068	563531	0	0
2024-08-06 17:17:47			0	37396	0	0	0	29966	28550	165303	26982	1070368	45915	111152	0	0	8070	562503	0	0
2024-08-06 17:18:47			0	37420	0	0	0	29955	28560	164999	26989	1070377	45937	111148	0	0	8072	561530	0	0
2024-08-06 17:19:47			0	37394	0	0	0	29942	28570	165067	26942	1070395	45916	111143	0	0	8070	562516	0	0
2024-08-06 17:20:47			0	37411	0	0	0	29927	28550	165023	26863	1070341	45926	111137	0	0	8072	561915	0	0
2024-08-06 17:21:47			0	37409	0	0	0	29935	28550	165215	27071	1070233	45915	111140	0	0	8071	561993	0	0
2024-08-06 17:22:47			0	37399	0	0	0	29929	28560	165091	27003	1070269	45926	111138	0	0	8071	562353	0	0
2024-08-06 17:23:47			0	37398	0	0	0	29935	28550	165079	26974	1070305	45937	111140	0	0	8071	562425	0	0
2024-08-06 17:24:47			0	37398	0	0	0	29932	28550	165043	26644	1070305	45915	111139	0	0	8071	562425	0	0
2024-08-06 17:25:47			0	37397	0	0	0	29935	28550	165059	27005	1070197	45926	111140	0	0	8071	562464	0	0
2024-08-06 17:26:47			0	37420	0	0	0	29929	28540	165087	27041	1070269	45914	111138	0	0	8072	561595	0	0
2024-08-06 17:27:47			0	37416	0	0	0	29932	28550	165151	26752	1070278	45926	111139	0	0	8072	561719	0	0
2024-08-06 17:28:47			0	37420	0	0	0	29924	28540	165055	27081	1070242	45914	111136	0	0	8072	561595	0	0
2024-08-06 17:29:47			0	37417	0	0	0	29924	28540	164939	26890	1070215	45925	111136	0	0	8072	561712	0	0
2024-08-06 17:30:47			0	37410	0	0	0	29958	28540	165047	26892	1070215	45925	111149	0	0	8071	561987	0	0
2024-08-06 17:31:47			0	37424	0	0	0	29966	28550	164947	27001	1070359	45926	111152	0	0	8072	561405	0	0
2024-08-06 17:32:47			0	37431	0	0	0	29963	28560	164959	27246	1070359	45938	111151	0	0	8072	561099	0	0
2024-08-06 17:33:47			0	37448	0	0	0	29906	28550	164939	26680	1070287	45937	111129	0	0	8074	560465	0	0
2024-08-06 17:34:47			0	37466	0	0	0	29864	28550	164899	27093	1070233	45904	111113	0	0	8076	559761	0	0
2024-08-06 17:35:47			0	37472	0	0	0	29844	28550	164899	27036	1070144	45915	111105	0	0	8077	559526	0	0
2024-08-06 17:36:47			0	37493	0	0	0	29880	28540	164767	26602	1070099	45913	111119	0	0	8077	558738	0	0
2024-08-06 17:37:47			0	37493	0	0	0	29919	28530	164639	27090	1070108	45924	111134	0	0	8076	558770	0	0
2024-08-06 17:38:47			0	37484	0	0	0	29961	28530	164719	27197	1070170	45935	111150	0	0	8075	559122	0	0
2024-08-06 17:39:47			0	37475	0	0	0	29976	28540	164895	27012	1070341	45947	111156	0	0	8074	559442	0	0
2024-08-06 17:40:47			0	37491	0	0	0	29976	28540	164779	27027	1070269	45948	111156	0	0	8075	558816	0	0
2024-08-06 17:41:47			0	37551	0	0	0	29973	28540	164603	26816	1070269	45936	111155	0	0	8079	556475	0	0
2024-08-06 17:42:47			0	37567	0	0	0	29981	28550	164491	27197	1070359	45937	111158	0	0	8080	555820	0	0
2024-08-06 17:43:47			0	37606	0	0	0	29981	28540	164231	27154	1070350	45948	111158	0	0	8082	554335	0	0
2024-08-06 17:44:47			0	37633	0	0	0	29971	28560	164091	27010	1070413	45938	111154	0	0	8084	553222	0	0
2024-08-06 17:45:47			0	37654	0	0	0	29963	28550	164071	26722	1070341	45937	111151	0	0	8085	552440	0	0
2024-08-06 17:46:47			0	37676	0	0	0	29968	28560	163995	26932	1070440	45938	111153	0	0	8086	551555	0	0
2024-08-06 17:47:47			0	37669	0	0	0	29976	28570	164059	26791	1070422	45961	111156	0	0	8086	551794	0	0
2024-08-06 17:48:47			0	37668	0	0	0	29958	28560	164023	26932	1070413	45950	111149	0	0	8086	551865	0	0
2024-08-06 17:49:47			0	37656	0	0	0	29961	28570	164031	26748	1070368	45916	111150	0	0	8085	552298	0	0
2024-08-06 17:50:47			0	37650	0	0	0	29968	28570	164011	26986	1070368	45939	111153	0	0	8085	552531	0	0
2024-08-06 17:51:47			0	37644	0	0	0	29968	28560	164123	26734	1070386	45938	111153	0	0	8084	552795	0	0
2024-08-06 17:52:47			0	37652	0	0	0	29992	28560	164103	26854	1070413	45938	111162	0	0	8084	552485	0	0
2024-08-06 17:53:47			0	37625	0	0	0	29976	28570	164219	26826	1070458	45951	111156	0	0	8083	553501	0	0
2024-08-06 17:54:47			0	37616	0	0	0	29966	28570	164127	26942	1070422	45939	111152	0	0	8083	553850	0	0
2024-08-06 17:55:47			0	37616	0	0	0	29992	28570	164335	27043	1070458	45939	111162	0	0	8082	553850	0	0
2024-08-06 17:56:47			0	37601	0	0	0	29981	28580	164431	26889	1070476	45929	111158	0	0	8082	554401	0	0
2024-08-06 17:57:47			0	37564	0	0	0	29989	28580	164455	26935	1070494	45951	111161	0	0	8080	555840	0	0
2024-08-06 17:58:47			0	37539	0	0	0	29979	28570	164491	26859	1070458	45951	111157	0	0	8078	556846	0	0
2024-08-06 17:59:47			0	37531	0	0	0	29976	28580	164579	26939	1070476	45929	111156	0	0	8078	557126	0	0
2024-08-06 18:00:47			0	37504	0	0	0	29976	28570	164663	27008	1070485	45939	111156	0	0	8076	558211	0	0
2024-08-06 18:01:47			0	37520	0	0	0	29989	28580	164615	26887	1070449	45940	111161	0	0	8077	557555	0	0
2024-08-06 18:02:47			0	37498	0	0	0	29994	28590	164883	26935	1070458	45952	111163	0	0	8076	558381	0	0
2024-08-06 18:03:47			0	37497	0	0	0	29997	28580	164779	26845	1070503	45951	111164	0	0	8076	558452	0	0
2024-08-06 18:04:47			0	37530	0	0	0	29999	28580	164759	27116	1070440	45940	111165	0	0	8077	557165	0	0
2024-08-06 18:05:47			0	37520	0	0	0	29992	28590	164631	27093	1070512	45952	111162	0	0	8077	557523	0	0
2024-08-06 18:06:47			0	37527	0	0	0	29992	28580	164527	27194	1070503	45940	111162	0	0	8077	557282	0	0
2024-08-06 18:07:47			0	37546	0	0	0	29992	28590	164619	26868	1070512	45941	111162	0	0	8078	556509	0	0
2024-08-06 18:08:47			0	37546	0	0	0	29986	28590	164563	26863	1070512	45952	111160	0	0	8079	556509	0	0
2024-08-06 18:09:47			0	37536	0	0	0	29994	28590	164515	27220	1070575	45931	111163	0	0	8078	556899	0	0
2024-08-06 18:10:47			0	37561	0	0	0	29992	28600	164607	26939	1070611	45942	111162	0	0	8079	555893	0	0
2024-08-06 18:11:47			0	37549	0	0	0	29999	28590	164555	27164	1070548	45953	111165	0	0	8079	556392	0	0
2024-08-06 18:12:47			0	37567	0	0	0	29997	28590	164535	26875	1070548	45942	111164	0	0	8080	555691	0	0
2024-08-06 18:13:47			0	37575	0	0	0	29979	28590	164463	27048	1070521	45942	111157	0	0	8080	555380	0	0
2024-08-06 18:14:47			0	37570	0	0	0	29948	28590	164483	27175	1070575	45942	111145	0	0	8081	555575	0	0
2024-08-06 18:15:47			0	37500	0	0	0	29950	28580	164595	27183	1070494	45940	111146	0	0	8076	558335	0	0
2024-08-06 18:16:47			0	37450	0	0	0	29922	28580	164847	26949	1070386	45940	111135	0	0	8074	560290	0	0
2024-08-06 18:17:47			0	37407	0	0	0	29911	28570	164983	27142	1070377	45928	111131	0	0	8072	562007	0	0
2024-08-06 18:18:47			0	37399	0	0	0	29919	28560	165107	26620	1070278	45916	111134	0	0	8071	562353	0	0
2024-08-06 18:19:47			0	37383	0	0	0	29914	28570	165239	27076	1070269	45916	111132	0	0	8070	562948	0	0
2024-08-06 18:20:47			0	37368	0	0	0	29929	28560	165235	27267	1070296	45915	111138	0	0	8069	563570	0	0
2024-08-06 18:21:47			0	37360	0	0	0	29937	28560	165279	26968	1070377	45926	111141	0	0	8068	563884	0	0
2024-08-06 18:22:47			0	37366	0	0	0	29966	28550	165187	27294	1070368	45926	111152	0	0	8068	563681	0	0
2024-08-06 18:23:47			0	37383	0	0	0	29981	28560	165359	27360	1070377	45949	111158	0	0	8069	562981	0	0
2024-08-06 18:24:47			0	37400	0	0	0	29984	28560	165111	27086	1070404	45949	111159	0	0	8070	562314	0	0
2024-08-06 18:25:47			0	37440	0	0	0	29992	28560	164983	26961	1070494	45960	111162	0	0	8072	560746	0	0
2024-08-06 18:26:47			0	37479	0	0	0	29989	28570	164875	27201	1070485	45939	111161	0	0	8075	559188	0	0
2024-08-06 18:27:47			0	37518	0	0	0	29994	28570	164759	27111	1070485	45951	111163	0	0	8077	557665	0	0
2024-08-06 18:28:47			0	37555	0	0	0	29997	28570	164555	27232	1070503	45951	111164	0	0	8079	556223	0	0
2024-08-06 18:29:47			0	37572	0	0	0	29989	28580	164519	27033	1070557	45929	111161	0	0	8080	555529	0	0
2024-08-06 18:30:47			0	37591	0	0	0	29992	28570	164455	27183	1070512	45939	111162	0	0	8081	554822	0	0
2024-08-06 18:31:47			0	37604	0	0	0	29981	28570	164403	27033	1070512	45951	111158	0	0	8082	554317	0	0
2024-08-06 18:32:47			0	37628	0	0	0	29976	28580	164283	27064	1070449	45929	111156	0	0	8083	553352	0	0
2024-08-06 18:33:47			0	37653	0	0	0	29961	28580	164239	26859	1070440	45929	111150	0	0	8085	552382	0	0
2024-08-06 18:34:47			0	37644	0	0	0	29953	28580	164159	26835	1070413	45929	111147	0	0	8085	552731	0	0
2024-08-06 18:35:47			0	37681	0	0	0	29940	28570	163987	26902	1070377	45928	111142	0	0	8087	551329	0	0
2024-08-06 18:36:47			0	37660	0	0	0	29945	28570	164091	27142	1070368	45939	111144	0	0	8086	552143	0	0
2024-08-06 18:37:47			0	37686	0	0	0	29945	28560	164031	27161	1070413	45927	111144	0	0	8087	551168	0	0
2024-08-06 18:38:47			0	37678	0	0	0	29955	28560	164127	26974	1070359	45950	111148	0	0	8087	551477	0	0
2024-08-06 18:39:47			0	37664	0	0	0	29953	28570	163995	26965	1070377	45928	111147	0	0	8086	551988	0	0
2024-08-06 18:40:47			0	37667	0	0	0	29942	28560	164139	27171	1070413	45950	111143	0	0	8086	551904	0	0
2024-08-06 18:41:47			0	37671	0	0	0	29937	28560	164051	26720	1070350	45926	111141	0	0	8086	551749	0	0
2024-08-06 18:42:47			0	37682	0	0	0	29937	28560	163959	26731	1070350	45937	111141	0	0	8087	551323	0	0
2024-08-06 18:43:47			0	37681	0	0	0	29932	28550	164071	27072	1070260	45926	111139	0	0	8087	551393	0	0
2024-08-06 18:44:47			0	37692	0	0	0	29932	28550	163915	26883	1070260	45937	111139	0	0	8088	550967	0	0
2024-08-06 18:45:47			0	37698	0	0	0	29924	28540	163923	26694	1070287	45947	111136	0	0	8088	550767	0	0
2024-08-06 18:46:47			0	37688	0	0	0	29929	28550	164031	26833	1070278	45926	111138	0	0	8088	551122	0	0
2024-08-06 18:47:47			0	37696	0	0	0	29922	28550	163959	26833	1070305	45949	111135	0	0	8088	550813	0	0
2024-08-06 18:48:47			0	37683	0	0	0	29909	28550	164107	27060	1070224	45926	111130	0	0	8088	551316	0	0
2024-08-06 18:49:47			0	37669	0	0	0	29911	28540	163943	26833	1070233	45924	111131	0	0	8087	551890	0	0
2024-08-06 18:50:47			0	37670	0	0	0	29890	28540	164111	27223	1070206	45924	111123	0	0	8087	551851	0	0
2024-08-06 18:51:47			0	37660	0	0	0	29896	28530	164151	27131	1070144	45935	111125	0	0	8086	552271	0	0
2024-08-06 18:52:47			0	37666	0	0	0	29903	28530	164235	27216	1070161	45935	111128	0	0	8087	552038	0	0
2024-08-06 18:53:47			0	37636	0	0	0	29906	28530	164347	26675	1070188	45924	111129	0	0	8085	553202	0	0
2024-08-06 18:54:47			0	37614	0	0	0	29888	28530	164367	26986	1070188	45924	111122	0	0	8084	554056	0	0
2024-08-06 18:55:47			0	37595	0	0	0	29877	28520	164391	27123	1070179	45934	111118	0	0	8083	554827	0	0
2024-08-06 18:56:47			0	37562	0	0	0	29864	28520	164559	26866	1070179	45923	111113	0	0	8081	556111	0	0
2024-08-06 18:57:47			0	37561	0	0	0	29854	28510	164599	27045	1069990	45933	111109	0	0	8081	556182	0	0
2024-08-06 18:58:47			0	37508	0	0	0	29851	28510	164795	26748	1069999	45922	111108	0	0	8078	558249	0	0
2024-08-06 18:59:47			0	37489	0	0	0	29818	28500	164847	26719	1069972	45920	111095	0	0	8078	559024	0	0
2024-08-06 19:00:47			0	37479	0	0	0	29836	28490	164963	26722	1069901	45919	111102	0	0	8077	559447	0	0
2024-08-06 19:01:47			0	37452	0	0	0	29828	28490	165019	26720	1069847	45930	111099	0	0	8075	560503	0	0
2024-08-06 19:02:47			0	37442	0	0	0	29825	28480	165187	26864	1069918	45930	111098	0	0	8075	560927	0	0
2024-08-06 19:03:47			0	37423	0	0	0	29836	28480	165267	26948	1069883	45918	111102	0	0	8073	561672	0	0
2024-08-06 19:04:47			0	37408	0	0	0	29851	28470	165371	27027	1069847	45917	111108	0	0	8072	562293	0	0
2024-08-06 19:05:47			0	37397	0	0	0	29846	28460	165411	26797	1069882	45917	111106	0	0	8072	562757	0	0
2024-08-06 19:06:47			0	37405	0	0	0	29838	28460	165463	26911	1069802	45906	111103	0	0	8072	562443	0	0
2024-08-06 19:07:47			0	37409	0	0	0	29838	28460	165275	27046	1069802	45928	111103	0	0	8073	562286	0	0
2024-08-06 19:08:47			0	37385	0	0	0	29838	28470	165263	27043	1069847	45917	111103	0	0	8071	563196	0	0
2024-08-06 19:09:47			0	37398	0	0	0	29833	28470	165403	26837	1069784	45928	111101	0	0	8072	562685	0	0
2024-08-06 19:10:47			0	37394	0	0	0	29831	28450	165323	27069	1069784	45916	111100	0	0	8072	562907	0	0
2024-08-06 19:11:47			0	37375	0	0	0	29846	28450	165411	27017	1069784	45926	111106	0	0	8070	563653	0	0
2024-08-06 19:12:47			0	37396	0	0	0	29857	28450	165315	26892	1069802	45938	111110	0	0	8071	562829	0	0
2024-08-06 19:13:47			0	37384	0	0	0	29862	28450	165315	26875	1069811	45938	111112	0	0	8071	563300	0	0
2024-08-06 19:14:47			0	37410	0	0	0	29849	28460	165151	26722	1069882	45940	111107	0	0	8072	562247	0	0
2024-08-06 19:15:47			0	37406	0	0	0	29851	28460	165163	26804	1069829	45940	111108	0	0	8072	562404	0	0
2024-08-06 19:16:47			0	37428	0	0	0	29846	28460	165119	26965	1069802	45928	111106	0	0	8073	561541	0	0
2024-08-06 19:17:47			0	37429	0	0	0	29849	28450	165251	26722	1069811	45938	111107	0	0	8073	561534	0	0
2024-08-06 19:18:47			0	37429	0	0	0	29851	28450	165143	27007	1069784	45926	111108	0	0	8073	561534	0	0
2024-08-06 19:19:47			0	37447	0	0	0	29851	28450	165047	26908	1069748	45926	111108	0	0	8074	560829	0	0
2024-08-06 19:20:47			0	37463	0	0	0	29849	28450	165011	26774	1069811	45938	111107	0	0	8075	560202	0	0
2024-08-06 19:21:47			0	37454	0	0	0	29851	28460	164979	26675	1069847	45927	111108	0	0	8075	560522	0	0
2024-08-06 19:22:47			0	37470	0	0	0	29849	28450	164975	26720	1069829	45926	111107	0	0	8076	559928	0	0
2024-08-06 19:23:47			0	37458	0	0	0	29805	28450	164995	26870	1069784	45905	111090	0	0	8076	560398	0	0
2024-08-06 19:24:47			0	37443	0	0	0	29789	28440	165127	26788	1069712	45926	111084	0	0	8075	561018	0	0
2024-08-06 19:25:47			0	37401	0	0	0	29789	28440	165187	26821	1069622	45925	111084	0	0	8073	562665	0	0
2024-08-06 19:26:47			0	37383	0	0	0	29786	28420	165483	26873	1069541	45913	111083	0	0	8072	563437	0	0
2024-08-06 19:27:47			0	37302	0	0	0	29781	28420	165682	26981	1069568	45913	111081	0	0	8067	566625	0	0
2024-08-06 19:28:47			0	37261	0	0	0	29771	28420	165946	26911	1069559	45913	111077	0	0	8065	568243	0	0
2024-08-06 19:29:47			0	37204	0	0	0	29774	28410	166158	26828	1069460	45921	111078	0	0	8061	570531	0	0
2024-08-06 19:30:47			0	37192	0	0	0	29774	28410	166298	26927	1069487	45911	111078	0	0	8061	571007	0	0
2024-08-06 19:31:47			0	37198	0	0	0	29779	28410	166270	26790	1069523	45922	111080	0	0	8061	570769	0	0
2024-08-06 19:32:47			0	37200	0	0	0	29753	28400	166198	27022	1069415	45921	111070	0	0	8062	570723	0	0
2024-08-06 19:33:47			0	37178	0	0	0	29737	28390	166250	27024	1069379	45910	111064	0	0	8060	571628	0	0
2024-08-06 19:34:47			0	37173	0	0	0	29724	28380	166286	26840	1069370	45919	111059	0	0	8060	571860	0	0
2024-08-06 19:35:47			0	37204	0	0	0	29696	28380	166262	26566	1069280	45909	111048	0	0	8063	570630	0	0
2024-08-06 19:36:47			0	37171	0	0	0	29675	28360	166382	26632	1069190	45906	111040	0	0	8061	572005	0	0
2024-08-06 19:37:47			0	37105	0	0	0	29672	28350	166698	26608	1069127	45906	111039	0	0	8057	574662	0	0
2024-08-06 19:38:47			0	37065	0	0	0	29670	28350	167002	26786	1069172	45906	111038	0	0	8055	576255	0	0
2024-08-06 19:39:47			0	37011	0	0	0	29677	28340	167114	26764	1069074	45904	111041	0	0	8051	578445	0	0
2024-08-06 19:40:47			0	36953	0	0	0	29693	28330	167358	27206	1069083	45915	111047	0	0	8048	580801	0	0
2024-08-06 19:41:47			0	36930	0	0	0	29688	28320	167494	26793	1069020	45914	111045	0	0	8046	581757	0	0
2024-08-06 19:42:47			0	36909	0	0	0	29685	28320	167582	26785	1069047	45914	111044	0	0	8045	582601	0	0
2024-08-06 19:43:47			0	36893	0	0	0	29688	28310	167682	26595	1069002	45924	111045	0	0	8044	583277	0	0
2024-08-06 19:44:47			0	36904	0	0	0	29677	28320	167738	26710	1069011	45924	111041	0	0	8045	582801	0	0
2024-08-06 19:45:47			0	36886	0	0	0	29680	28310	167674	27218	1068939	45924	111042	0	0	8044	583559	0	0
2024-08-06 19:46:47			0	36893	0	0	0	29683	28310	167702	27176	1068993	45913	111043	0	0	8044	583277	0	0
2024-08-06 19:47:47			0	36893	0	0	0	29680	28310	167726	26738	1068993	45924	111042	0	0	8044	583277	0	0
2024-08-06 19:48:47			0	36888	0	0	0	29675	28300	167690	27164	1068957	45923	111040	0	0	8044	583512	0	0
2024-08-06 19:49:47			0	36900	0	0	0	29680	28300	167646	26961	1068930	45913	111042	0	0	8045	583030	0	0
2024-08-06 19:50:47			0	36919	0	0	0	29675	28290	167574	27130	1068912	45912	111040	0	0	8046	582300	0	0
2024-08-06 19:51:47			0	36939	0	0	0	29670	28290	167594	26850	1068939	45912	111038	0	0	8047	581497	0	0
2024-08-06 19:52:47			0	36941	0	0	0	29672	28290	167582	26743	1068939	45900	111039	0	0	8047	581417	0	0
2024-08-06 19:53:47			0	36940	0	0	0	29657	28280	167578	27248	1068840	45911	111033	0	0	8047	581490	0	0
2024-08-06 19:54:47			0	36914	0	0	0	29649	28270	167746	26918	1068822	45909	111030	0	0	8046	582568	0	0
2024-08-06 19:55:47			0	36901	0	0	0	29618	28270	167694	26944	1068786	45909	111018	0	0	8046	583090	0	0
2024-08-06 19:56:47			0	36860	0	0	0	29620	28260	167834	26705	1068696	45909	111019	0	0	8043	584774	0	0
2024-08-06 19:57:47			0	36829	0	0	0	29631	28250	168002	27024	1068723	45917	111023	0	0	8041	586058	0	0
2024-08-06 19:58:47			0	36821	0	0	0	29657	28250	168150	27092	1068803	45917	111033	0	0	8040	586381	0	0
2024-08-06 19:59:47			0	36775	0	0	0	29677	28250	168298	27062	1068785	45917	111041	0	0	8037	588239	0	0
2024-08-06 20:00:47			0	36767	0	0	0	29592	28250	168298	26942	1068785	45907	111008	0	0	8038	588563	0	0
2024-08-06 20:01:47			0	36760	0	0	0	29602	28240	168326	27097	1068714	45928	111012	0	0	8037	588880	0	0
2024-08-06 20:02:47			0	36780	0	0	0	29602	28240	168242	26916	1068705	45906	111012	0	0	8039	588071	0	0
2024-08-06 20:03:47			0	36729	0	0	0	29620	28230	168410	26833	1068669	45905	111019	0	0	8035	590170	0	0
2024-08-06 20:04:47			0	36713	0	0	0	29605	28240	168614	26800	1068651	45906	111013	0	0	8035	590785	0	0
2024-08-06 20:05:47			0	36695	0	0	0	29599	28230	168554	26956	1068633	45905	111011	0	0	8034	591549	0	0
2024-08-06 20:06:47			0	36668	0	0	0	29605	28220	168778	26816	1068615	45892	111013	0	0	8032	592681	0	0
2024-08-06 20:07:47			0	36663	0	0	0	29573	28220	168850	26925	1068543	45904	111001	0	0	8032	592884	0	0
2024-08-06 20:08:47			0	36660	0	0	0	29548	28210	168870	26863	1068498	45891	110991	0	0	8032	593040	0	0
2024-08-06 20:09:47			0	36659	0	0	0	29519	28190	168862	26883	1068372	45888	110980	0	0	8033	593149	0	0
2024-08-06 20:10:47			0	36666	0	0	0	29485	28180	168706	26956	1068229	45888	110967	0	0	8034	592899	0	0
2024-08-06 20:11:47			0	36663	0	0	0	29490	28170	168914	26857	1068265	45876	110969	0	0	8033	593055	0	0
2024-08-06 20:12:47			0	36621	0	0	0	29501	28160	168970	26663	1068184	45885	110973	0	0	8031	594800	0	0
2024-08-06 20:13:47			0	36613	0	0	0	29501	28150	169070	27020	1068174	45885	110973	0	0	8030	595160	0	0
2024-08-06 20:14:47			0	36600	0	0	0	29470	28150	169142	27164	1068165	45884	110961	0	0	8030	595691	0	0
2024-08-06 20:15:47			0	36604	0	0	0	29480	28120	169178	27017	1068013	45882	110965	0	0	8030	595630	0	0
2024-08-06 20:16:47			0	36594	0	0	0	29470	28130	169177	26797	1068058	45883	110961	0	0	8029	596004	0	0
2024-08-06 20:17:47			0	36573	0	0	0	29459	28130	169361	26922	1067995	45882	110957	0	0	8028	596862	0	0
2024-08-06 20:18:47			0	36549	0	0	0	29475	28110	169437	26984	1067932	45892	110963	0	0	8027	597912	0	0
2024-08-06 20:19:47			0	36545	0	0	0	29493	28100	169461	26901	1067977	45936	110970	0	0	8026	598110	0	0
2024-08-06 20:20:47			0	36552	0	0	0	29516	28110	169481	26932	1068013	45903	110979	0	0	8026	597789	0	0
2024-08-06 20:21:47			0	36566	0	0	0	29519	28110	169373	26726	1068040	45915	110980	0	0	8027	597217	0	0
2024-08-06 20:22:47			0	36572	0	0	0	29524	28110	169393	27024	1068067	45903	110982	0	0	8027	596972	0	0
2024-08-06 20:23:47			0	36597	0	0	0	29493	28110	169277	26916	1067986	45915	110970	0	0	8029	595950	0	0
2024-08-06 20:24:47			0	36596	0	0	0	29480	28100	169337	26956	1067950	45903	110965	0	0	8029	596026	0	0
2024-08-06 20:25:47			0	36591	0	0	0	29493	28090	169274	26830	1067941	45891	110970	0	0	8029	596264	0	0
2024-08-06 20:26:47			0	36580	0	0	0	29503	28090	169365	26642	1067986	45901	110974	0	0	8028	596713	0	0
2024-08-06 20:27:47			0	36594	0	0	0	29535	28100	169285	26814	1068058	45903	110986	0	0	8028	596107	0	0
2024-08-06 20:28:47			0	36583	0	0	0	29545	28110	169265	26736	1068094	45915	110990	0	0	8027	596522	0	0
2024-08-06 20:29:47			0	36567	0	0	0	29566	28110	169561	26828	1068094	45925	110998	0	0	8026	597176	0	0
2024-08-06 20:30:47			0	36537	0	0	0	29568	28110	169513	27100	1068094	45936	110999	0	0	8024	598403	0	0
2024-08-06 20:31:47			0	36533	0	0	0	29573	28120	169497	27029	1068192	45916	111001	0	0	8024	598532	0	0
2024-08-06 20:32:47			0	36545	0	0	0	29571	28120	169461	26941	1068219	45904	111000	0	0	8025	598041	0	0
2024-08-06 20:33:47			0	36526	0	0	0	29571	28120	169429	26941	1068174	45916	111000	0	0	8024	598819	0	0
2024-08-06 20:34:47			0	36537	0	0	0	29566	28120	169409	26935	1068219	45916	110998	0	0	8024	598369	0	0
2024-08-06 20:35:47			0	36554	0	0	0	29540	28130	169353	27111	1068183	45894	110988	0	0	8026	597638	0	0
2024-08-06 20:36:47			0	36578	0	0	0	29509	28120	169357	26894	1068094	45905	110976	0	0	8028	596692	0	0
2024-08-06 20:37:47			0	36608	0	0	0	29511	28130	169298	27083	1068076	45894	110977	0	0	8030	595433	0	0
2024-08-06 20:38:47			0	36577	0	0	0	29511	28110	169249	26708	1067995	45904	110977	0	0	8028	596767	0	0
2024-08-06 20:39:47			0	36547	0	0	0	29496	28100	169441	27100	1067977	45903	110971	0	0	8026	598028	0	0
2024-08-06 20:40:47			0	36513	0	0	0	29496	28100	169545	26755	1068004	45892	110971	0	0	8024	599421	0	0
2024-08-06 20:41:47			0	36491	0	0	0	29493	28090	169533	26793	1067959	45913	110970	0	0	8023	600357	0	0
2024-08-06 20:42:47			0	36477	0	0	0	29501	28090	169689	26866	1067959	45901	110973	0	0	8022	600932	0	0
2024-08-06 20:43:47			0	36462	0	0	0	29490	28090	169805	26802	1067986	45913	110969	0	0	8021	601548	0	0
2024-08-06 20:44:47			0	36459	0	0	0	29488	28090	169813	26868	1067932	45913	110968	0	0	8021	601671	0	0
2024-08-06 20:45:47			0	36458	0	0	0	29496	28080	169725	27055	1067977	45901	110971	0	0	8021	601747	0	0
2024-08-06 20:46:47			0	36447	0	0	0	29490	28080	169877	26729	1067869	45901	110969	0	0	8020	602199	0	0
2024-08-06 20:47:47			0	36443	0	0	0	29488	28080	169945	26861	1067896	45901	110968	0	0	8020	602364	0	0
2024-08-06 20:48:47			0	36423	0	0	0	29477	28080	169977	27022	1067914	45889	110964	0	0	8019	603187	0	0
2024-08-06 20:49:47			0	36427	0	0	0	29472	28080	169941	26885	1067869	45913	110962	0	0	8019	603022	0	0
2024-08-06 20:50:47			0	36411	0	0	0	29472	28070	170137	26840	1067824	45877	110962	0	0	8018	603716	0	0
2024-08-06 20:51:47			0	36395	0	0	0	29467	28080	170121	26856	1067869	45913	110960	0	0	8017	604340	0	0
2024-08-06 20:52:47			0	36395	0	0	0	29470	28070	170033	26807	1067761	45899	110961	0	0	8017	604375	0	0
2024-08-06 20:53:47			0	36410	0	0	0	29457	28070	170109	26930	1067878	45900	110956	0	0	8018	603757	0	0
2024-08-06 20:54:47			0	36409	0	0	0	29462	28050	170217	27053	1067788	45898	110958	0	0	8018	603868	0	0
2024-08-06 20:55:47			0	36419	0	0	0	29449	28070	169973	26719	1067788	45899	110953	0	0	8019	603386	0	0
2024-08-06 20:56:47			0	36434	0	0	0	29449	28060	169997	26675	1067752	45899	110953	0	0	8020	602804	0	0
2024-08-06 20:57:47			0	36460	0	0	0	29457	28060	169969	26849	1067797	45898	110956	0	0	8021	601734	0	0
2024-08-06 20:58:47			0	36441	0	0	0	29446	28050	169965	27161	1067761	45887	110952	0	0	8020	602550	0	0
2024-08-06 20:59:47			0	36436	0	0	0	29446	28040	169801	26859	1067743	45929	110952	0	0	8020	602791	0	0
2024-08-06 21:00:47			0	36460	0	0	0	29441	28040	169837	27013	1067716	45896	110950	0	0	8021	601804	0	0
2024-08-06 21:01:47			0	36449	0	0	0	29444	28050	169949	26793	1067752	45909	110951	0	0	8021	602221	0	0
2024-08-06 21:02:47			0	36468	0	0	0	29438	28050	169769	26797	1067698	45909	110949	0	0	8022	601440	0	0
2024-08-06 21:03:47			0	36480	0	0	0	29431	28040	169793	26882	1067663	45896	110946	0	0	8023	600982	0	0
2024-08-06 21:04:47			0	36485	0	0	0	29423	28030	169685	26942	1067645	45874	110943	0	0	8023	600812	0	0
2024-08-06 21:05:47			0	36494	0	0	0	29425	28030	169649	26944	1067645	45896	110944	0	0	8024	600442	0	0
2024-08-06 21:06:47			0	36504	0	0	0	29420	28040	169661	26701	1067600	45908	110942	0	0	8024	599997	0	0
2024-08-06 21:07:47			0	36513	0	0	0	29423	28030	169697	26778	1067581	45884	110943	0	0	8025	599663	0	0
2024-08-06 21:08:47			0	36531	0	0	0	29412	28030	169477	26845	1067581	45907	110939	0	0	8026	598925	0	0
2024-08-06 21:09:47			0	36539	0	0	0	29410	28020	169401	27019	1067546	45894	110938	0	0	8027	598632	0	0
2024-08-06 21:10:47			0	36534	0	0	0	29399	28020	169465	26975	1067537	45906	110934	0	0	8026	598837	0	0
2024-08-06 21:11:47			0	36536	0	0	0	29402	28010	169489	26863	1067555	45906	110935	0	0	8026	598789	0	0
2024-08-06 21:12:47			0	36528	0	0	0	29397	28020	169537	26987	1067599	45894	110933	0	0	8026	599083	0	0
2024-08-06 21:13:47			0	36505	0	0	0	29389	28010	169733	27209	1067474	45883	110930	0	0	8025	600060	0	0
2024-08-06 21:14:47			0	36476	0	0	0	29389	28000	169809	26897	1067510	45892	110930	0	0	8023	601285	0	0
2024-08-06 21:15:47			0	36440	0	0	0	29386	28000	169893	27019	1067474	45904	110929	0	0	8021	602765	0	0
2024-08-06 21:16:47			0	36435	0	0	0	29389	27990	169865	26698	1067438	45891	110930	0	0	8021	603006	0	0
2024-08-06 21:17:47			0	36427	0	0	0	29386	27990	169965	26660	1067402	45891	110929	0	0	8020	603335	0	0
2024-08-06 21:18:47			0	36416	0	0	0	29381	27990	170057	26913	1067465	45891	110927	0	0	8020	603788	0	0
2024-08-06 21:19:47			0	36392	0	0	0	29379	27990	170213	26946	1067492	45891	110926	0	0	8018	604778	0	0
2024-08-06 21:20:47			0	36383	0	0	0	29379	27980	170241	26809	1067393	45890	110926	0	0	8018	605184	0	0
2024-08-06 21:21:47			0	36357	0	0	0	29379	27990	170289	26998	1067402	45903	110926	0	0	8016	606222	0	0
2024-08-06 21:22:47			0	36376	0	0	0	29386	27980	170373	26935	1067474	45879	110929	0	0	8017	605473	0	0
2024-08-06 21:23:47			0	36374	0	0	0	29376	27990	170385	26637	1067402	45891	110925	0	0	8017	605520	0	0
2024-08-06 21:24:47			0	36384	0	0	0	29374	27980	170225	27064	1067357	45889	110924	0	0	8018	605143	0	0
2024-08-06 21:25:47			0	36381	0	0	0	29368	27980	170225	26802	1067366	45890	110922	0	0	8018	605266	0	0
2024-08-06 21:26:47			0	36403	0	0	0	29371	27970	170161	27130	1067348	45901	110923	0	0	8019	604394	0	0
2024-08-06 21:27:47			0	36418	0	0	0	29371	27970	170077	27010	1067339	45889	110923	0	0	8020	603775	0	0
2024-08-06 21:28:47			0	36433	0	0	0	29358	27960	170017	27126	1067330	45888	110918	0	0	8021	603193	0	0
2024-08-06 21:29:47			0	36423	0	0	0	29363	27970	170029	27346	1067312	45889	110920	0	0	8020	603569	0	0
2024-08-06 21:30:47			0	36432	0	0	0	29358	27960	170097	26963	1067213	45899	110918	0	0	8021	603234	0	0
2024-08-06 21:31:47			0	36434	0	0	0	29358	27950	170009	26975	1067285	45887	110918	0	0	8021	603186	0	0
2024-08-06 21:32:47			0	36442	0	0	0	29350	27960	169945	27090	1067276	45888	110915	0	0	8022	602822	0	0
2024-08-06 21:33:47			0	36438	0	0	0	29355	27960	169997	26989	1067294	45899	110917	0	0	8021	602987	0	0
2024-08-06 21:34:47			0	36452	0	0	0	29348	27950	170033	26942	1067312	45899	110914	0	0	8022	602445	0	0
2024-08-06 21:35:47			0	36461	0	0	0	29345	27950	170037	27112	1067195	45887	110913	0	0	8023	602075	0	0
2024-08-06 21:36:47			0	36451	0	0	0	29350	27940	169905	26897	1067213	45886	110915	0	0	8022	602521	0	0
2024-08-06 21:37:47			0	36445	0	0	0	29342	27940	170025	27090	1067133	45886	110912	0	0	8022	602768	0	0
2024-08-06 21:38:47			0	36446	0	0	0	29345	27950	170173	27012	1067249	45887	110913	0	0	8022	602692	0	0
2024-08-06 21:39:47			0	36443	0	0	0	29340	27940	170001	27031	1067178	45897	110911	0	0	8022	602850	0	0
2024-08-06 21:40:47			0	36448	0	0	0	29342	27940	170017	26713	1067213	45898	110912	0	0	8022	602645	0	0
2024-08-06 21:41:47			0	36474	0	0	0	29342	27940	169897	26991	1067204	45897	110912	0	0	8023	601576	0	0
2024-08-06 21:42:47			0	36499	0	0	0	29337	27940	169953	27069	1067178	45885	110910	0	0	8025	600549	0	0
2024-08-06 21:43:47			0	36475	0	0	0	29345	27940	169789	27043	1067204	45897	110913	0	0	8023	601534	0	0
2024-08-06 21:44:47			0	36509	0	0	0	29345	27940	169817	26830	1067231	45885	110913	0	0	8026	600138	0	0
2024-08-06 21:45:47			0	36492	0	0	0	29337	27940	169673	26767	1067240	45898	110910	0	0	8025	600836	0	0
2024-08-06 21:46:47			0	36509	0	0	0	29350	27940	169761	27071	1067231	45885	110915	0	0	8025	600138	0	0
2024-08-06 21:47:47			0	36529	0	0	0	29355	27940	169697	26833	1067231	45897	110917	0	0	8027	599318	0	0
2024-08-06 21:48:47			0	36525	0	0	0	29350	27940	169705	27000	1067231	45908	110915	0	0	8026	599482	0	0
2024-08-06 21:49:47			0	36540	0	0	0	29353	27940	169617	27015	1067240	45898	110916	0	0	8027	598867	0	0
2024-08-06 21:50:47			0	36566	0	0	0	29350	27940	169569	26835	1067160	45886	110915	0	0	8029	597803	0	0
2024-08-06 21:51:47			0	36587	0	0	0	29350	27930	169550	27019	1067195	45897	110915	0	0	8030	596978	0	0
2024-08-06 21:52:47			0	36577	0	0	0	29342	27940	169417	27039	1067231	45897	110912	0	0	8030	597353	0	0
2024-08-06 21:53:47			0	36593	0	0	0	29337	27930	169433	26854	1067169	45908	110910	0	0	8031	596733	0	0
2024-08-06 21:54:47			0	36595	0	0	0	29353	27930	169438	26925	1067187	45875	110916	0	0	8030	596651	0	0
2024-08-06 21:55:47			0	36598	0	0	0	29355	27940	169378	27055	1067240	45886	110917	0	0	8031	596494	0	0
2024-08-06 21:56:47			0	36588	0	0	0	29350	27940	169246	27043	1067204	45885	110915	0	0	8030	596903	0	0
2024-08-06 21:57:47			0	36609	0	0	0	29350	27940	169202	26826	1067231	45897	110915	0	0	8031	596045	0	0
2024-08-06 21:58:47			0	36606	0	0	0	29353	27940	169326	26871	1067178	45875	110916	0	0	8031	596168	0	0
2024-08-06 21:59:47			0	36630	0	0	0	29342	27930	169130	26967	1067169	45885	110912	0	0	8033	595222	0	0
2024-08-06 22:00:47			0	36653	0	0	0	29342	27930	169190	27062	1067222	45897	110912	0	0	8034	594284	0	0
2024-08-06 22:01:47			0	36654	0	0	0	29350	27930	169126	26902	1067187	45908	110915	0	0	8034	594244	0	0
2024-08-06 22:02:47			0	36653	0	0	0	29342	27930	169182	26658	1067169	45885	110912	0	0	8034	594284	0	0
2024-08-06 22:03:47			0	36650	0	0	0	29342	27950	168990	26864	1067222	45887	110912	0	0	8034	594338	0	0
2024-08-06 22:04:47			0	36667	0	0	0	29342	27930	168942	27003	1067169	45885	110912	0	0	8035	593714	0	0
2024-08-06 22:05:47			0	36679	0	0	0	29337	27930	168958	27043	1067133	45908	110910	0	0	8036	593225	0	0
2024-08-06 22:06:47			0	36685	0	0	0	29353	27930	168942	27085	1067195	45908	110916	0	0	8036	592981	0	0
2024-08-06 22:07:47			0	36686	0	0	0	29340	27920	168922	27085	1067204	45907	110911	0	0	8036	592975	0	0
2024-08-06 22:08:47			0	36703	0	0	0	29345	27930	168902	26906	1067222	45897	110913	0	0	8037	592249	0	0
2024-08-06 22:09:47			0	36710	0	0	0	29340	27930	168746	27024	1067195	45897	110911	0	0	8037	591965	0	0
2024-08-06 22:10:47			0	36728	0	0	0	29337	27930	168710	26866	1067187	45897	110910	0	0	8039	591233	0	0
2024-08-06 22:11:47			0	36750	0	0	0	29345	27930	168610	26880	1067169	45885	110913	0	0	8040	590340	0	0
2024-08-06 22:12:47			0	36769	0	0	0	29335	27930	168582	26963	1067213	45897	110909	0	0	8041	589570	0	0
2024-08-06 22:13:47			0	36768	0	0	0	29332	27920	168574	26859	1067169	45895	110908	0	0	8041	589644	0	0
2024-08-06 22:14:47			0	36763	0	0	0	29332	27930	168558	27124	1067142	45897	110908	0	0	8041	589813	0	0
2024-08-06 22:15:47			0	36757	0	0	0	29340	27930	168438	27017	1067160	45885	110911	0	0	8040	590056	0	0
2024-08-06 22:16:47			0	36778	0	0	0	29324	27930	168466	26878	1067160	45875	110905	0	0	8042	589205	0	0
2024-08-06 22:17:47			0	36786	0	0	0	29332	27920	168406	26738	1067169	45895	110908	0	0	8042	588915	0	0
2024-08-06 22:18:47			0	36805	0	0	0	29329	27930	168342	26672	1067133	45885	110907	0	0	8043	588112	0	0
2024-08-06 22:19:47			0	36802	0	0	0	29332	27920	168510	26630	1067151	45884	110908	0	0	8043	588267	0	0
2024-08-06 22:20:47			0	36795	0	0	0	29337	27930	168502	26864	1067106	45919	110910	0	0	8043	588517	0	0
2024-08-06 22:21:47			0	36740	0	0	0	29329	27930	168666	27149	1067106	45885	110907	0	0	8039	590746	0	0
2024-08-06 22:22:47			0	36701	0	0	0	29335	27920	168906	26944	1067124	45884	110909	0	0	8037	592365	0	0
2024-08-06 22:23:47			0	36679	0	0	0	29335	27920	168958	26850	1067151	45884	110909	0	0	8036	593260	0	0
2024-08-06 22:24:47			0	36648	0	0	0	29348	27920	169102	26798	1067178	45907	110914	0	0	8034	594523	0	0
2024-08-06 22:25:47			0	36601	0	0	0	29348	27930	169254	27001	1067160	45885	110914	0	0	8031	596406	0	0
2024-08-06 22:26:47			0	36572	0	0	0	29348	27930	169469	27163	1067187	45897	110914	0	0	8029	597592	0	0
2024-08-06 22:27:47			0	36535	0	0	0	29345	27930	169717	27168	1067222	45919	110913	0	0	8027	599107	0	0
2024-08-06 22:28:47			0	36524	0	0	0	29345	27930	169709	26896	1067187	45897	110913	0	0	8026	599558	0	0
2024-08-06 22:29:47			0	36512	0	0	0	29340	27930	169669	27034	1067222	45908	110911	0	0	8026	600050	0	0
2024-08-06 22:30:47			0	36523	0	0	0	29348	27930	169657	26857	1067195	45897	110914	0	0	8026	599599	0	0
2024-08-06 22:31:47			0	36530	0	0	0	29345	27930	169517	26863	1067195	45885	110913	0	0	8027	599312	0	0
2024-08-06 22:32:47			0	36545	0	0	0	29348	27930	169653	26684	1067213	45897	110914	0	0	8028	598697	0	0
2024-08-06 22:33:47			0	36515	0	0	0	29355	27930	169789	26863	1067195	45897	110917	0	0	8026	599927	0	0
2024-08-06 22:34:47			0	36527	0	0	0	29376	27940	169669	27000	1067213	45886	110925	0	0	8026	599400	0	0
2024-08-06 22:35:47			0	36529	0	0	0	29384	27940	169717	27156	1067294	45886	110928	0	0	8026	599318	0	0
2024-08-06 22:36:47			0	36528	0	0	0	29381	27950	169721	27261	1067330	45910	110927	0	0	8026	599325	0	0
2024-08-06 22:37:47			0	36556	0	0	0	29389	27950	169713	27128	1067303	45899	110930	0	0	8028	598178	0	0
2024-08-06 22:38:47			0	36550	0	0	0	29397	27950	169581	27050	1067366	45887	110933	0	0	8027	598423	0	0
2024-08-06 22:39:47			0	36570	0	0	0	29381	27950	169573	26975	1067384	45899	110927	0	0	8029	597605	0	0
2024-08-06 22:40:47			0	36602	0	0	0	29392	27960	169298	26949	1067321	45910	110931	0	0	8030	596262	0	0
2024-08-06 22:41:47			0	36618	0	0	0	29386	27960	169282	27163	1067321	45899	110929	0	0	8031	595609	0	0
2024-08-06 22:42:47			0	36615	0	0	0	29392	27960	169370	27222	1067375	45899	110931	0	0	8031	595731	0	0
2024-08-06 22:43:47			0	36608	0	0	0	29384	27960	169306	26927	1067375	45887	110928	0	0	8031	596017	0	0
2024-08-06 22:44:47			0	36618	0	0	0	29376	27960	169314	26785	1067384	45911	110925	0	0	8032	595609	0	0
2024-08-06 22:45:47			0	36631	0	0	0	29371	27970	169230	26856	1067393	45889	110923	0	0	8032	595044	0	0
2024-08-06 22:46:47			0	36641	0	0	0	29374	27960	169178	27071	1067348	45887	110924	0	0	8033	594671	0	0
2024-08-06 22:47:47			0	36637	0	0	0	29361	27960	169174	27015	1067357	45911	110919	0	0	8033	594834	0	0
2024-08-06 22:48:47			0	36643	0	0	0	29363	27950	169130	26811	1067312	45899	110920	0	0	8033	594623	0	0
2024-08-06 22:49:47			0	36652	0	0	0	29363	27960	169138	27024	1067294	45899	110920	0	0	8034	594222	0	0
2024-08-06 22:50:47			0	36634	0	0	0	29353	27950	169098	27029	1067339	45876	110916	0	0	8033	594991	0	0
2024-08-06 22:51:47			0	36663	0	0	0	29353	27960	169018	27041	1067267	45876	110916	0	0	8035	593774	0	0
2024-08-06 22:52:47			0	36678	0	0	0	29350	27950	168982	27048	1067312	45899	110915	0	0	8035	593198	0	0
2024-08-06 22:53:47			0	36714	0	0	0	29348	27940	168794	26927	1067294	45886	110914	0	0	8038	591768	0	0
2024-08-06 22:54:47			0	36710	0	0	0	29355	27960	168874	27059	1067402	45887	110917	0	0	8037	591862	0	0
2024-08-06 22:55:47			0	36720	0	0	0	29363	27950	168710	27199	1067366	45887	110920	0	0	8038	591490	0	0
2024-08-06 22:56:47			0	36748	0	0	0	29361	27950	168666	26682	1067285	45899	110919	0	0	8039	590353	0	0
2024-08-06 22:57:47			0	36766	0	0	0	29374	27960	168498	26979	1067375	45910	110924	0	0	8040	589589	0	0
2024-08-06 22:58:47			0	36765	0	0	0	29376	27960	168586	27053	1067402	45899	110925	0	0	8040	589630	0	0
2024-08-06 22:59:47			0	36777	0	0	0	29376	27960	168486	26909	1067375	45899	110925	0	0	8041	589144	0	0
2024-08-06 23:00:47			0	36792	0	0	0	29386	27960	168454	26951	1067357	45900	110929	0	0	8042	588536	0	0
2024-08-06 23:01:47			0	36774	0	0	0	29386	27960	168526	26779	1067384	45900	110929	0	0	8041	589265	0	0
2024-08-06 23:02:47			0	36807	0	0	0	29405	27970	168538	26854	1067420	45901	110936	0	0	8042	587895	0	0
2024-08-06 23:03:47			0	36801	0	0	0	29384	27950	168402	26939	1067420	45899	110928	0	0	8042	588206	0	0
2024-08-06 23:04:47			0	36815	0	0	0	29399	27980	168382	27275	1067411	45923	110934	0	0	8043	587538	0	0
2024-08-06 23:05:47			0	36806	0	0	0	29389	27980	168274	27092	1067465	45901	110930	0	0	8043	587902	0	0
2024-08-06 23:06:47			0	36846	0	0	0	29402	27980	168326	26661	1067465	45889	110935	0	0	8045	586285	0	0
2024-08-06 23:07:47			0	36852	0	0	0	29397	27990	168170	26667	1067483	45903	110933	0	0	8045	586009	0	0
2024-08-06 23:08:47			0	36841	0	0	0	29394	27980	168122	26514	1067447	45890	110932	0	0	8045	586487	0	0
2024-08-06 23:09:47			0	36864	0	0	0	29402	27980	168186	26802	1067474	45890	110935	0	0	8046	585559	0	0
2024-08-06 23:10:47			0	36876	0	0	0	29394	27990	168170	26580	1067492	45903	110932	0	0	8047	585041	0	0
2024-08-06 23:11:47			0	36882	0	0	0	29402	27990	167950	26896	1067519	45891	110935	0	0	8047	584799	0	0
2024-08-06 23:12:47			0	36885	0	0	0	29392	27980	168010	27064	1067501	45902	110931	0	0	8047	584712	0	0
2024-08-06 23:13:47			0	36889	0	0	0	29399	27980	168002	26935	1067474	45902	110934	0	0	8047	584551	0	0
2024-08-06 23:14:47			0	36886	0	0	0	29392	27980	168106	26880	1067411	45912	110931	0	0	8047	584672	0	0
2024-08-06 23:15:47			0	36871	0	0	0	29397	27990	168078	26653	1067537	45903	110933	0	0	8046	585243	0	0
2024-08-06 23:16:47			0	36900	0	0	0	29394	27980	167942	26844	1067501	45902	110932	0	0	8048	584108	0	0
2024-08-06 23:17:47			0	36922	0	0	0	29394	27980	167910	26934	1067519	45912	110932	0	0	8049	583222	0	0
2024-08-06 23:18:47			0	36930	0	0	0	29392	27990	167822	26887	1067510	45914	110931	0	0	8050	582867	0	0
2024-08-06 23:19:47			0	36935	0	0	0	29394	27980	167842	27100	1067474	45902	110932	0	0	8050	582699	0	0
2024-08-06 23:20:47			0	36959	0	0	0	29389	27990	167810	26816	1067546	45914	110930	0	0	8052	581701	0	0
2024-08-06 23:21:47			0	36987	0	0	0	29399	27980	167646	26762	1067501	45913	110934	0	0	8053	580611	0	0
2024-08-06 23:22:47			0	37052	0	0	0	29394	27990	167294	26599	1067492	45891	110932	0	0	8057	577974	0	0
2024-08-06 23:23:47			0	37089	0	0	0	29402	27990	167222	26925	1067546	45925	110935	0	0	8059	576496	0	0
2024-08-06 23:24:47			0	37130	0	0	0	29402	27990	167050	26944	1067492	45914	110935	0	0	8061	574860	0	0
2024-08-06 23:25:47			0	37204	0	0	0	29394	27990	166726	26814	1067483	45903	110932	0	0	8066	571917	0	0
2024-08-06 23:26:47			0	37250	0	0	0	29402	27990	166382	26613	1067411	45891	110935	0	0	8068	570092	0	0
2024-08-06 23:27:47			0	37326	0	0	0	29394	27990	165975	26816	1067510	45903	110932	0	0	8073	567086	0	0
2024-08-06 23:28:47			0	37431	0	0	0	29394	27980	165707	26814	1067528	45890	110932	0	0	8079	562982	0	0
2024-08-06 23:29:47			0	37479	0	0	0	29392	27990	165367	27008	1067483	45925	110931	0	0	8082	561065	0	0
2024-08-06 23:30:47			0	37491	0	0	0	29394	27990	165343	26901	1067456	45903	110932	0	0	8083	560595	0	0
2024-08-06 23:31:47			0	37543	0	0	0	29389	27980	165187	26927	1067474	45902	110930	0	0	8086	558591	0	0
2024-08-06 23:32:47			0	37542	0	0	0	29384	27990	165115	26960	1067456	45891	110928	0	0	8086	558598	0	0
2024-08-06 23:33:47			0	37576	0	0	0	29392	27990	164951	26876	1067519	45903	110931	0	0	8088	557270	0	0
2024-08-06 23:34:47			0	37572	0	0	0	29394	27980	164975	26946	1067501	45924	110932	0	0	8087	557458	0	0
2024-08-06 23:35:47			0	37598	0	0	0	29381	27990	164923	26706	1067510	45891	110927	0	0	8089	556411	0	0
2024-08-06 23:36:47			0	37612	0	0	0	29384	27980	164911	26828	1067447	45890	110928	0	0	8090	555897	0	0
2024-08-06 23:37:47			0	37622	0	0	0	29389	27990	164795	26878	1067456	45891	110930	0	0	8090	555475	0	0
2024-08-06 23:38:47			0	37643	0	0	0	29397	27990	164795	26863	1067456	45903	110933	0	0	8091	554658	0	0
2024-08-06 23:39:47			0	37623	0	0	0	29386	27990	164787	27124	1067483	45903	110929	0	0	8090	555437	0	0
2024-08-06 23:40:47			0	37631	0	0	0	29397	27990	164875	26838	1067510	45891	110933	0	0	8091	555125	0	0
2024-08-06 23:41:47			0	37630	0	0	0	29394	27990	164747	26974	1067546	45903	110932	0	0	8091	555164	0	0
2024-08-06 23:42:47			0	37654	0	0	0	29397	27990	164679	26667	1067510	45914	110933	0	0	8092	554230	0	0
2024-08-06 23:43:47			0	37664	0	0	0	29394	27990	164671	26963	1067510	45925	110932	0	0	8093	553841	0	0
2024-08-06 23:44:47			0	37668	0	0	0	29402	27990	164603	26715	1067492	45891	110935	0	0	8093	553685	0	0
2024-08-06 23:45:47			0	37673	0	0	0	29399	28000	164643	26672	1067528	45892	110934	0	0	8093	553459	0	0
2024-08-06 23:46:47			0	37672	0	0	0	29394	27990	164655	27138	1067537	45903	110932	0	0	8093	553530	0	0
2024-08-06 23:47:47			0	37687	0	0	0	29394	27990	164655	26684	1067546	45891	110932	0	0	8094	552947	0	0
2024-08-06 23:48:47			0	37690	0	0	0	29397	28000	164531	27178	1067528	45904	110933	0	0	8094	552799	0	0
2024-08-06 23:49:47			0	37676	0	0	0	29399	28000	164607	26960	1067555	45926	110934	0	0	8093	553342	0	0
2024-08-06 23:50:47			0	37683	0	0	0	29407	28000	164699	26757	1067617	45904	110937	0	0	8094	553070	0	0
2024-08-06 23:51:47			0	37691	0	0	0	29418	28020	164775	26722	1067698	45906	110941	0	0	8094	552696	0	0
2024-08-06 23:52:47			0	37688	0	0	0	29418	28010	164663	26868	1067770	45927	110941	0	0	8094	552844	0	0
2024-08-06 23:53:47			0	37694	0	0	0	29428	28010	164575	26935	1067707	45927	110945	0	0	8094	552611	0	0
2024-08-06 23:54:47			0	37682	0	0	0	29433	28020	164599	27060	1067653	45916	110947	0	0	8093	553045	0	0
2024-08-06 23:55:47			0	37659	0	0	0	29436	28020	164639	26680	1067761	45906	110948	0	0	8092	553939	0	0
2024-08-06 23:56:47			0	37650	0	0	0	29444	28020	164763	27013	1067815	45927	110951	0	0	8091	554289	0	0
2024-08-06 23:57:47			0	37633	0	0	0	29446	28020	164695	27001	1067707	45906	110952	0	0	8090	554951	0	0
2024-08-06 23:58:47			0	37644	0	0	0	29449	28020	164747	26783	1067734	45927	110953	0	0	8091	554523	0	0
2024-08-06 23:59:47			0	37643	0	0	0	29449	28030	164747	26939	1067860	45908	110953	0	0	8091	554530	0	0
2024-08-07 00:00:47			0	37631	0	0	0	29457	28040	164747	26906	1067878	45908	110956	0	0	8090	554965	0	0
2024-08-07 00:01:47			0	37611	0	0	0	29470	28050	164747	26849	1067806	45919	110961	0	0	8089	555712	0	0
2024-08-07 00:02:47			0	37605	0	0	0	29470	28050	164819	26845	1067914	45909	110961	0	0	8088	555946	0	0
2024-08-07 00:03:47			0	37596	0	0	0	29477	28050	164875	27156	1067977	45931	110964	0	0	8088	556297	0	0
2024-08-07 00:04:47			0	37592	0	0	0	29483	28060	164851	26847	1067932	45931	110966	0	0	8087	556420	0	0
2024-08-07 00:05:47			0	37572	0	0	0	29485	28060	164987	26856	1068022	45911	110967	0	0	8086	557201	0	0
2024-08-07 00:06:47			0	37563	0	0	0	29485	28060	164923	26828	1067968	45932	110967	0	0	8086	557552	0	0
2024-08-07 00:07:47			0	37559	0	0	0	29480	28070	165019	26996	1068031	45921	110965	0	0	8085	557676	0	0
2024-08-07 00:08:47			0	37596	0	0	0	29498	28070	164731	26654	1068067	45922	110972	0	0	8087	556232	0	0
2024-08-07 00:09:47			0	37625	0	0	0	29503	28070	164787	26875	1068067	45912	110974	0	0	8089	555102	0	0
2024-08-07 00:10:47			0	37606	0	0	0	29509	28080	164759	27170	1068111	45913	110976	0	0	8088	555811	0	0
2024-08-07 00:11:47			0	37619	0	0	0	29511	28080	164731	26769	1068085	45923	110977	0	0	8088	555304	0	0
2024-08-07 00:12:47			0	37655	0	0	0	29506	28090	164599	27050	1068156	45935	110975	0	0	8091	553871	0	0
2024-08-07 00:13:47			0	37676	0	0	0	29519	28090	164499	27111	1068147	45913	110980	0	0	8092	553055	0	0
2024-08-07 00:14:47			0	37696	0	0	0	29511	28100	164475	27161	1068165	45925	110977	0	0	8093	552247	0	0
2024-08-07 00:15:47			0	37750	0	0	0	29511	28090	164255	27140	1068129	45914	110977	0	0	8096	550186	0	0
2024-08-07 00:16:47			0	37793	0	0	0	29514	28110	163987	26960	1068120	45915	110978	0	0	8099	548459	0	0
2024-08-07 00:17:47			0	37847	0	0	0	29522	28110	163875	26791	1068147	45925	110981	0	0	8102	546375	0	0
2024-08-07 00:18:47			0	37853	0	0	0	29529	28110	163807	27116	1068201	45915	110984	0	0	8102	546144	0	0
2024-08-07 00:19:47			0	37847	0	0	0	29529	28120	163735	27225	1068165	45904	110984	0	0	8101	546344	0	0
2024-08-07 00:20:47			0	37824	0	0	0	29527	28120	163871	27066	1068219	45937	110983	0	0	8100	547231	0	0
2024-08-07 00:21:47			0	37822	0	0	0	29537	28120	163851	26920	1068255	45950	110987	0	0	8100	547308	0	0
2024-08-07 00:22:47			0	37826	0	0	0	29529	28120	163867	26918	1068282	45916	110984	0	0	8100	547154	0	0
2024-08-07 00:23:47			0	37896	0	0	0	29537	28120	163563	26946	1068309	45927	110987	0	0	8104	544458	0	0
2024-08-07 00:24:47			0	37953	0	0	0	29535	28130	163279	26592	1068264	45938	110986	0	0	8108	542237	0	0
2024-08-07 00:25:47			0	37977	0	0	0	29542	28130	163399	26989	1068354	45917	110989	0	0	8109	541317	0	0
2024-08-07 00:26:47			0	37960	0	0	0	29529	28130	163283	26805	1068264	45916	110984	0	0	8108	541969	0	0
2024-08-07 00:27:47			0	37945	0	0	0	29535	28130	163347	26994	1068237	45905	110986	0	0	8107	542544	0	0
2024-08-07 00:28:47			0	37910	0	0	0	29540	28130	163495	26764	1068291	45905	110988	0	0	8105	543888	0	0
2024-08-07 00:29:47			0	37926	0	0	0	29540	28130	163499	26844	1068327	45928	110988	0	0	8106	543274	0	0
2024-08-07 00:30:47			0	37920	0	0	0	29545	28140	163427	26672	1068336	45917	110990	0	0	8106	543473	0	0
2024-08-07 00:31:47			0	37940	0	0	0	29542	28130	163347	26727	1068291	45927	110989	0	0	8107	542736	0	0
2024-08-07 00:32:47			0	37963	0	0	0	29540	28140	163387	26646	1068336	45917	110988	0	0	8108	541823	0	0
2024-08-07 00:33:47			0	37980	0	0	0	29540	28130	163303	26573	1068291	45916	110988	0	0	8109	541202	0	0
2024-08-07 00:34:47			0	38001	0	0	0	29537	28120	163183	26698	1068228	45916	110987	0	0	8110	540430	0	0
2024-08-07 00:35:47			0	38047	0	0	0	29540	28130	162968	27064	1068291	45927	110988	0	0	8113	538640	0	0
2024-08-07 00:36:47			0	38048	0	0	0	29542	28130	163044	26668	1068300	45917	110989	0	0	8113	538601	0	0
2024-08-07 00:37:47			0	38003	0	0	0	29540	28130	163111	26842	1068246	45917	110988	0	0	8110	540322	0	0
2024-08-07 00:38:47			0	37998	0	0	0	29540	28130	163267	26691	1068264	45905	110988	0	0	8110	540513	0	0
2024-08-07 00:39:47			0	37978	0	0	0	29532	28120	163379	26569	1068219	45916	110985	0	0	8109	541310	0	0
2024-08-07 00:40:47			0	37928	0	0	0	29527	28130	163419	26934	1068264	45905	110983	0	0	8106	543197	0	0
2024-08-07 00:41:47			0	37926	0	0	0	29535	28120	163459	27071	1068255	45916	110986	0	0	8106	543305	0	0
2024-08-07 00:42:47			0	37941	0	0	0	29527	28130	163463	26712	1068237	45916	110983	0	0	8107	542698	0	0
2024-08-07 00:43:47			0	37948	0	0	0	29529	28130	163371	27081	1068210	45938	110984	0	0	8107	542429	0	0
2024-08-07 00:44:47			0	37936	0	0	0	29535	28130	163375	26630	1068246	45906	110986	0	0	8107	542890	0	0
2024-08-07 00:45:47			0	37925	0	0	0	29535	28130	163471	26814	1068219	45906	110986	0	0	8106	543312	0	0
2024-08-07 00:46:47			0	37921	0	0	0	29529	28130	163439	26977	1068264	45916	110984	0	0	8106	543465	0	0
2024-08-07 00:47:47			0	37933	0	0	0	29522	28120	163351	26896	1068255	45894	110981	0	0	8107	543036	0	0
2024-08-07 00:48:47			0	37953	0	0	0	29519	28130	163511	27059	1068210	45905	110980	0	0	8108	542237	0	0
2024-08-07 00:49:47			0	37974	0	0	0	29527	28130	163315	27055	1068237	45905	110983	0	0	8109	541432	0	0
2024-08-07 00:50:47			0	37992	0	0	0	29519	28110	163291	26812	1068210	45916	110980	0	0	8110	540805	0	0
2024-08-07 00:51:47			0	38017	0	0	0	29522	28120	163151	27045	1068192	45937	110981	0	0	8111	539817	0	0
2024-08-07 00:52:47			0	38017	0	0	0	29524	28120	162995	27024	1068138	45916	110982	0	0	8111	539817	0	0
2024-08-07 00:53:47			0	38054	0	0	0	29519	28110	162992	26743	1068183	45904	110980	0	0	8114	538435	0	0
2024-08-07 00:54:47			0	38078	0	0	0	29516	28120	162884	26852	1068192	45904	110979	0	0	8115	537488	0	0
2024-08-07 00:55:47			0	38075	0	0	0	29514	28120	162836	26850	1068192	45916	110978	0	0	8115	537602	0	0
2024-08-07 00:56:47			0	38087	0	0	0	29511	28110	162872	26852	1068174	45903	110977	0	0	8116	537175	0	0
2024-08-07 00:57:47			0	38102	0	0	0	29519	28100	162888	26817	1068192	45915	110980	0	0	8116	536635	0	0
2024-08-07 00:58:47			0	38092	0	0	0	29511	28110	162724	26622	1068201	45892	110977	0	0	8116	536985	0	0
2024-08-07 00:59:47			0	38113	0	0	0	29514	28110	162716	26781	1068129	45937	110978	0	0	8117	536185	0	0
2024-08-07 01:00:47			0	38125	0	0	0	29503	28110	162624	26918	1068174	45915	110974	0	0	8118	535728	0	0
2024-08-07 01:01:47			0	38140	0	0	0	29506	28110	162660	26693	1068147	45915	110975	0	0	8119	535157	0	0
2024-08-07 01:02:47			0	38160	0	0	0	29506	28100	162616	26880	1068138	45915	110975	0	0	8120	534427	0	0
2024-08-07 01:03:47			0	38162	0	0	0	29506	28110	162464	27000	1068094	45915	110975	0	0	8120	534321	0	0
2024-08-07 01:04:47			0	38160	0	0	0	29501	28110	162440	26630	1068174	45925	110973	0	0	8120	534397	0	0
2024-08-07 01:05:47			0	38215	0	0	0	29511	28110	162472	27013	1068264	45916	110977	0	0	8123	532309	0	0
2024-08-07 01:06:47			0	38261	0	0	0	29514	28100	162040	26987	1068219	45925	110978	0	0	8125	530597	0	0
2024-08-07 01:07:47			0	38261	0	0	0	29514	28110	162044	26916	1068147	45948	110978	0	0	8125	530566	0	0
2024-08-07 01:08:47			0	38301	0	0	0	29519	28100	161936	26538	1068138	45915	110980	0	0	8128	529085	0	0
2024-08-07 01:09:47			0	38374	0	0	0	29514	28090	161780	26809	1068129	45924	110978	0	0	8132	526363	0	0
2024-08-07 01:10:47			0	38395	0	0	0	29511	28090	161528	26998	1068156	45914	110977	0	0	8133	525572	0	0
2024-08-07 01:11:47			0	38408	0	0	0	29514	28110	161432	27020	1068174	45936	110978	0	0	8134	525023	0	0
2024-08-07 01:12:47			0	38451	0	0	0	29516	28110	161380	26576	1068228	45936	110979	0	0	8136	523408	0	0
2024-08-07 01:13:47			0	38480	0	0	0	29516	28110	161272	27178	1068183	45937	110979	0	0	8138	522321	0	0
2024-08-07 01:14:47			0	38518	0	0	0	29516	28110	161000	26925	1068183	45916	110979	0	0	8140	520898	0	0
2024-08-07 01:15:47			0	38557	0	0	0	29529	28120	160840	26719	1068165	45916	110984	0	0	8142	519410	0	0
2024-08-07 01:16:47			0	38561	0	0	0	29532	28110	160920	27036	1068174	45915	110985	0	0	8142	519291	0	0
2024-08-07 01:17:47			0	38551	0	0	0	29527	28110	160908	27095	1068228	45936	110983	0	0	8142	519664	0	0
2024-08-07 01:18:47			0	38519	0	0	0	29524	28110	160992	27183	1068264	45916	110982	0	0	8140	520860	0	0
2024-08-07 01:19:47			0	38551	0	0	0	29529	28120	160984	26739	1068219	45926	110984	0	0	8142	519634	0	0
2024-08-07 01:20:47			0	38561	0	0	0	29529	28110	161004	27008	1068255	45915	110984	0	0	8142	519291	0	0
2024-08-07 01:21:47			0	38556	0	0	0	29532	28120	160860	27000	1068246	45916	110985	0	0	8142	519447	0	0
2024-08-07 01:22:47			0	38558	0	0	0	29535	28110	161000	26998	1068237	45937	110986	0	0	8142	519403	0	0
2024-08-07 01:23:47			0	38545	0	0	0	29529	28110	160844	26831	1068210	45926	110984	0	0	8141	519888	0	0
2024-08-07 01:24:47			0	38560	0	0	0	29532	28120	160904	26904	1068246	45904	110985	0	0	8142	519298	0	0
2024-08-07 01:25:47			0	38556	0	0	0	29532	28110	160880	26824	1068210	45937	110985	0	0	8142	519477	0	0
2024-08-07 01:26:47			0	38551	0	0	0	29524	28120	160876	27045	1068273	45916	110982	0	0	8142	519634	0	0
2024-08-07 01:27:47			0	38533	0	0	0	29527	28110	160972	26746	1068237	45916	110983	0	0	8141	520337	0	0
2024-08-07 01:28:47			0	38543	0	0	0	29527	28110	160868	26675	1068147	45903	110983	0	0	8141	519963	0	0
2024-08-07 01:29:47			0	38541	0	0	0	29511	28120	160820	26616	1068192	45904	110977	0	0	8142	520008	0	0
2024-08-07 01:30:47			0	38554	0	0	0	29516	28120	160828	26915	1068174	45927	110979	0	0	8142	519522	0	0
2024-08-07 01:31:47			0	38543	0	0	0	29516	28120	160816	26592	1068192	45937	110979	0	0	8142	519933	0	0
2024-08-07 01:32:47			0	38551	0	0	0	29514	28110	160824	26896	1068147	45915	110978	0	0	8142	519664	0	0
2024-08-07 01:33:47			0	38564	0	0	0	29514	28110	160652	26996	1068156	45916	110978	0	0	8143	519179	0	0
2024-08-07 01:34:47			0	38579	0	0	0	29514	28110	160756	26894	1068174	45915	110978	0	0	8144	518619	0	0
2024-08-07 01:35:47			0	38604	0	0	0	29522	28110	160676	26819	1068228	45915	110981	0	0	8145	517687	0	0
2024-08-07 01:36:47			0	38607	0	0	0	29514	28110	160652	26746	1068183	45926	110978	0	0	8145	517575	0	0
2024-08-07 01:37:47			0	38606	0	0	0	29519	28110	160680	26809	1068201	45936	110980	0	0	8145	517612	0	0
2024-08-07 01:38:47			0	38609	0	0	0	29522	28110	160544	26639	1068129	45937	110981	0	0	8145	517500	0	0
2024-08-07 01:39:47			0	38627	0	0	0	29509	28090	160596	26661	1068210	45902	110976	0	0	8146	516890	0	0
2024-08-07 01:40:47			0	38624	0	0	0	29514	28110	160596	26932	1068183	45926	110978	0	0	8146	516942	0	0
2024-08-07 01:41:47			0	38638	0	0	0	29522	28110	160636	26864	1068210	45937	110981	0	0	8147	516420	0	0
2024-08-07 01:42:47			0	38627	0	0	0	29511	28110	160524	26734	1068147	45915	110977	0	0	8146	516830	0	0
2024-08-07 01:43:47			0	38659	0	0	0	29509	28110	160448	26850	1068183	45926	110976	0	0	8148	515639	0	0
2024-08-07 01:44:47			0	38664	0	0	0	29506	28100	160424	26812	1068138	45915	110975	0	0	8149	515483	0	0
2024-08-07 01:45:47			0	38683	0	0	0	29506	28090	160340	26824	1068237	45902	110975	0	0	8150	514807	0	0
2024-08-07 01:46:47			0	38688	0	0	0	29511	28100	160364	26850	1068031	45925	110977	0	0	8150	514592	0	0
2024-08-07 01:47:47			0	38704	0	0	0	29501	28090	160276	26844	1068129	45914	110973	0	0	8151	514027	0	0
2024-08-07 01:48:47			0	38732	0	0	0	29498	28100	160241	26981	1068138	45915	110972	0	0	8153	512959	0	0
2024-08-07 01:49:47			0	38740	0	0	0	29501	28090	160089	26823	1068103	45924	110973	0	0	8153	512692	0	0
2024-08-07 01:50:47			0	38741	0	0	0	29496	28090	160049	26833	1068120	45923	110971	0	0	8153	512655	0	0
2024-08-07 01:51:47			0	38725	0	0	0	29496	28090	160208	26925	1068129	45902	110971	0	0	8152	513248	0	0
2024-08-07 01:52:47			0	38713	0	0	0	29493	28090	160220	26876	1068156	45924	110970	0	0	8152	513693	0	0
2024-08-07 01:53:47			0	38702	0	0	0	29488	28080	160324	26963	1068085	45934	110968	0	0	8151	514131	0	0
2024-08-07 01:54:47			0	38688	0	0	0	29496	28080	160432	26663	1068103	45922	110971	0	0	8150	514651	0	0
2024-08-07 01:55:47			0	38704	0	0	0	29488	28090	160360	27060	1068120	45923	110968	0	0	8151	514027	0	0
2024-08-07 01:56:47			0	38695	0	0	0	29496	28090	160364	26719	1068129	45914	110971	0	0	8151	514361	0	0
2024-08-07 01:57:47			0	38695	0	0	0	29503	28090	160284	26625	1068076	45935	110974	0	0	8150	514361	0	0
2024-08-07 01:58:47			0	38697	0	0	0	29496	28080	160260	27111	1068111	45901	110971	0	0	8151	514317	0	0
2024-08-07 01:59:47			0	38689	0	0	0	29490	28080	160296	26974	1068058	45934	110969	0	0	8150	514614	0	0
2024-08-07 02:00:47			0	38691	0	0	0	29488	28090	160316	27092	1068067	45913	110968	0	0	8150	514510	0	0
2024-08-07 02:01:47			0	38711	0	0	0	29483	28080	160196	26783	1068049	45912	110966	0	0	8152	513797	0	0
2024-08-07 02:02:47			0	38733	0	0	0	29480	28080	160225	27048	1068022	45900	110965	0	0	8153	512981	0	0
2024-08-07 02:03:47			0	38756	0	0	0	29480	28080	160093	27024	1068076	45933	110965	0	0	8154	512129	0	0
2024-08-07 02:04:47			0	38752	0	0	0	29483	28070	160113	26755	1068013	45933	110966	0	0	8154	512307	0	0
2024-08-07 02:05:47			0	38764	0	0	0	29480	28070	160097	26989	1068013	45933	110965	0	0	8155	511863	0	0
2024-08-07 02:06:47			0	38778	0	0	0	29483	28080	160013	27048	1068022	45912	110966	0	0	8155	511315	0	0
2024-08-07 02:07:47			0	38766	0	0	0	29475	28080	159969	27107	1068004	45913	110963	0	0	8155	511759	0	0
2024-08-07 02:08:47			0	38790	0	0	0	29485	28070	160009	27017	1068067	45933	110967	0	0	8156	510901	0	0
2024-08-07 02:09:47			0	38807	0	0	0	29475	28080	159893	27045	1067995	45912	110963	0	0	8157	510243	0	0
2024-08-07 02:10:47			0	38809	0	0	0	29480	28070	160021	27183	1068040	45922	110965	0	0	8157	510199	0	0
2024-08-07 02:11:47			0	38805	0	0	0	29480	28070	159929	27135	1067959	45922	110965	0	0	8157	510346	0	0
2024-08-07 02:12:47			0	38805	0	0	0	29472	28060	159857	26800	1067995	45932	110962	0	0	8157	510376	0	0
2024-08-07 02:13:47			0	38810	0	0	0	29475	28070	159805	26837	1068040	45933	110963	0	0	8157	510161	0	0
2024-08-07 02:14:47			0	38826	0	0	0	29467	28060	159669	26981	1067968	45911	110960	0	0	8158	509600	0	0
2024-08-07 02:15:47			0	38842	0	0	0	29477	28060	159773	26892	1067959	45910	110964	0	0	8159	509010	0	0
2024-08-07 02:16:47			0	38838	0	0	0	29464	28060	159641	26684	1067995	45932	110959	0	0	8159	509157	0	0
2024-08-07 02:17:47			0	38851	0	0	0	29459	28060	159761	26816	1067860	45911	110957	0	0	8160	508677	0	0
2024-08-07 02:18:47			0	38838	0	0	0	29462	28060	159753	27043	1067914	45911	110958	0	0	8159	509157	0	0
2024-08-07 02:19:47			0	38852	0	0	0	29457	28060	159797	27114	1067986	45898	110956	0	0	8160	508641	0	0
2024-08-07 02:20:47			0	38850	0	0	0	29454	28060	159617	26847	1067905	45898	110955	0	0	8160	508714	0	0
2024-08-07 02:21:47			0	38859	0	0	0	29451	28050	159677	26930	1067923	45910	110954	0	0	8160	508412	0	0
2024-08-07 02:22:47			0	38840	0	0	0	29451	28050	159769	26760	1067842	45920	110954	0	0	8159	509113	0	0
2024-08-07 02:23:47			0	38873	0	0	0	29451	28060	159781	26880	1067914	45921	110954	0	0	8161	507866	0	0
2024-08-07 02:24:47			0	38873	0	0	0	29449	28050	159713	26991	1067914	45930	110953	0	0	8161	507896	0	0
2024-08-07 02:25:47			0	38856	0	0	0	29457	28050	159609	27215	1067950	45910	110956	0	0	8160	508523	0	0
2024-08-07 02:26:47			0	38867	0	0	0	29457	28060	159637	27126	1067878	45910	110956	0	0	8161	508088	0	0
2024-08-07 02:27:47			0	38871	0	0	0	29449	28050	159725	27128	1067860	45897	110953	0	0	8161	507970	0	0
2024-08-07 02:28:47			0	38860	0	0	0	29446	28050	159717	27019	1067842	45910	110952	0	0	8161	508375	0	0
2024-08-07 02:29:47			0	38862	0	0	0	29454	28050	159673	27242	1067896	45910	110955	0	0	8161	508301	0	0
2024-08-07 02:30:47			0	38869	0	0	0	29449	28050	159709	26807	1067860	45909	110953	0	0	8161	508043	0	0
2024-08-07 02:31:47			0	38882	0	0	0	29444	28040	159657	26904	1067878	45929	110951	0	0	8162	507594	0	0
2024-08-07 02:32:47			0	38914	0	0	0	29441	28050	159689	27178	1067860	45930	110950	0	0	8164	506386	0	0
2024-08-07 02:33:47			0	38898	0	0	0	29446	28030	159609	27081	1067833	45918	110952	0	0	8163	507034	0	0
2024-08-07 02:34:47			0	38892	0	0	0	29438	28040	159501	27095	1067761	45918	110949	0	0	8162	507225	0	0
2024-08-07 02:35:47			0	38907	0	0	0	29438	28050	159569	27055	1067779	45909	110949	0	0	8163	506644	0	0
2024-08-07 02:36:47			0	38912	0	0	0	29444	28040	159549	27029	1067842	45896	110951	0	0	8164	506489	0	0
2024-08-07 02:37:47			0	38932	0	0	0	29438	28040	159565	27072	1067878	45918	110949	0	0	8165	505754	0	0
2024-08-07 02:38:47			0	38920	0	0	0	29444	28040	159489	26876	1067878	45929	110951	0	0	8164	506195	0	0
2024-08-07 02:39:47			0	38914	0	0	0	29457	28040	159509	26979	1067896	45908	110956	0	0	8163	506416	0	0
2024-08-07 02:40:47			0	38911	0	0	0	29470	28040	159633	26823	1067905	45929	110961	0	0	8163	506526	0	0
2024-08-07 02:41:47			0	38924	0	0	0	29475	28050	159509	27156	1068022	45930	110963	0	0	8164	506019	0	0
2024-08-07 02:42:47			0	38933	0	0	0	29493	28060	159449	27251	1068067	45954	110970	0	0	8164	505659	0	0
2024-08-07 02:43:47			0	38946	0	0	0	29498	28050	159417	27036	1068031	45931	110972	0	0	8165	505210	0	0
2024-08-07 02:44:47			0	38958	0	0	0	29501	28060	159329	26994	1068076	45944	110973	0	0	8165	504740	0	0
2024-08-07 02:45:47			0	38950	0	0	0	29519	28070	159309	26842	1068165	45932	110980	0	0	8165	505005	0	0
2024-08-07 02:46:47			0	38963	0	0	0	29527	28080	159241	26981	1068138	45946	110983	0	0	8165	504499	0	0
2024-08-07 02:47:47			0	38973	0	0	0	29522	28080	159297	26873	1068111	45934	110981	0	0	8166	504132	0	0
2024-08-07 02:48:47			0	38968	0	0	0	29519	28080	159189	26854	1068192	45934	110980	0	0	8166	504315	0	0
2024-08-07 02:49:47			0	38979	0	0	0	29537	28090	159181	26729	1068210	45935	110987	0	0	8166	503883	0	0
2024-08-07 02:50:47			0	38975	0	0	0	29537	28090	159249	26812	1068237	45935	110987	0	0	8166	504029	0	0
2024-08-07 02:51:47			0	38980	0	0	0	29529	28110	159225	27149	1068282	45948	110984	0	0	8166	503788	0	0
2024-08-07 02:52:47			0	38982	0	0	0	29532	28110	159189	26892	1068318	45949	110985	0	0	8166	503715	0	0
2024-08-07 02:53:47			0	38979	0	0	0	29532	28110	159153	27157	1068291	45949	110985	0	0	8166	503824	0	0
2024-08-07 02:54:47			0	38969	0	0	0	29537	28120	159145	26889	1068336	45927	110987	0	0	8166	504162	0	0
2024-08-07 02:55:47			0	38996	0	0	0	29540	28110	159125	27017	1068345	45937	110988	0	0	8167	503201	0	0
2024-08-07 02:56:47			0	38983	0	0	0	29545	28120	159169	26797	1068309	45938	110990	0	0	8166	503649	0	0
2024-08-07 02:57:47			0	38998	0	0	0	29542	28120	159217	27192	1068309	45927	110989	0	0	8167	503099	0	0
2024-08-07 02:58:47			0	38989	0	0	0	29540	28120	159129	27170	1068300	45926	110988	0	0	8167	503429	0	0
2024-08-07 02:59:47			0	38979	0	0	0	29540	28120	159141	26785	1068390	45916	110988	0	0	8166	503795	0	0
2024-08-07 03:00:47			0	38992	0	0	0	29540	28120	159129	26824	1068336	45938	110988	0	0	8167	503319	0	0
2024-08-07 03:01:47			0	38969	0	0	0	29550	28130	159137	26965	1068291	45916	110992	0	0	8165	504133	0	0
2024-08-07 03:02:47			0	38983	0	0	0	29550	28130	159001	27085	1068408	45917	110992	0	0	8166	503620	0	0
2024-08-07 03:03:47			0	38987	0	0	0	29548	28130	159145	27019	1068408	45939	110991	0	0	8166	503473	0	0
2024-08-07 03:04:47			0	39000	0	0	0	29537	28140	159113	26739	1068345	45918	110987	0	0	8167	502968	0	0
2024-08-07 03:05:47			0	39006	0	0	0	29545	28140	159093	26653	1068390	45917	110990	0	0	8168	502748	0	0
2024-08-07 03:06:47			0	39010	0	0	0	29545	28130	159089	27005	1068381	45928	110990	0	0	8168	502631	0	0
2024-08-07 03:07:47			0	39009	0	0	0	29555	28130	158993	26918	1068345	45938	110994	0	0	8168	502667	0	0
2024-08-07 03:08:47			0	39007	0	0	0	29555	28140	159045	26941	1068390	45939	110994	0	0	8168	502711	0	0
2024-08-07 03:09:47			0	39024	0	0	0	29561	28140	159017	26576	1068444	45917	110996	0	0	8168	502089	0	0
2024-08-07 03:10:47			0	39013	0	0	0	29553	28140	159037	26793	1068399	45940	110993	0	0	8168	502492	0	0
2024-08-07 03:11:47			0	39021	0	0	0	29566	28140	158985	26974	1068444	45951	110998	0	0	8168	502199	0	0
2024-08-07 03:12:47			0	39024	0	0	0	29563	28150	158981	26736	1068435	45929	110997	0	0	8168	502060	0	0
2024-08-07 03:13:47			0	39030	0	0	0	29561	28140	158985	26760	1068480	45940	110996	0	0	8169	501870	0	0
2024-08-07 03:14:47			0	39033	0	0	0	29561	28150	158937	26736	1068462	45929	110996	0	0	8169	501731	0	0
2024-08-07 03:15:47			0	39029	0	0	0	29553	28150	158945	26814	1068471	45930	110993	0	0	8169	501877	0	0
2024-08-07 03:16:47			0	39018	0	0	0	29563	28150	159005	26769	1068462	45952	110997	0	0	8168	502280	0	0
2024-08-07 03:17:47			0	39018	0	0	0	29563	28150	159057	26845	1068489	45940	110997	0	0	8168	502280	0	0
2024-08-07 03:18:47			0	39022	0	0	0	29553	28140	159049	26713	1068453	45940	110993	0	0	8168	502162	0	0
2024-08-07 03:19:47			0	39028	0	0	0	29563	28140	159065	26967	1068417	45928	110997	0	0	8169	501943	0	0
2024-08-07 03:20:47			0	39019	0	0	0	29558	28160	159025	26887	1068480	45919	110995	0	0	8168	502214	0	0
2024-08-07 03:21:47			0	39004	0	0	0	29553	28140	159101	26805	1068426	45940	110993	0	0	8167	502821	0	0
2024-08-07 03:22:47			0	38979	0	0	0	29566	28160	159033	26648	1068453	45953	110998	0	0	8166	503679	0	0
2024-08-07 03:23:47			0	38978	0	0	0	29555	28160	159041	26852	1068480	45930	110994	0	0	8166	503716	0	0
2024-08-07 03:24:47			0	38991	0	0	0	29558	28150	159125	26883	1068525	45941	110995	0	0	8167	503268	0	0
2024-08-07 03:25:47			0	38977	0	0	0	29555	28160	159189	26875	1068534	45941	110994	0	0	8166	503752	0	0
2024-08-07 03:26:47			0	38956	0	0	0	29566	28160	159213	26883	1068480	45941	110998	0	0	8165	504523	0	0
2024-08-07 03:27:47			0	38935	0	0	0	29568	28160	159225	26812	1068516	45942	110999	0	0	8163	505293	0	0
2024-08-07 03:28:47			0	38929	0	0	0	29558	28160	159345	26618	1068453	45919	110995	0	0	8163	505514	0	0
2024-08-07 03:29:47			0	38914	0	0	0	29566	28160	159465	26942	1068516	45954	110998	0	0	8162	506065	0	0
2024-08-07 03:30:47			0	38899	0	0	0	29566	28150	159525	27024	1068551	45941	110998	0	0	8161	506646	0	0
2024-08-07 03:31:47			0	38860	0	0	0	29555	28160	159641	26949	1068453	45919	110994	0	0	8159	508052	0	0
2024-08-07 03:32:47			0	38849	0	0	0	29561	28160	159685	27274	1068480	45941	110996	0	0	8159	508458	0	0
2024-08-07 03:33:47			0	38831	0	0	0	29573	28160	159741	27201	1068516	45942	111001	0	0	8157	509122	0	0
2024-08-07 03:34:47			0	38799	0	0	0	29566	28150	159809	26693	1068462	45940	110998	0	0	8156	510332	0	0
2024-08-07 03:35:47			0	38785	0	0	0	29561	28150	159917	27000	1068471	45941	110996	0	0	8155	510850	0	0
2024-08-07 03:36:47			0	38756	0	0	0	29563	28160	159957	26802	1068453	45941	110997	0	0	8153	511893	0	0
2024-08-07 03:37:47			0	38736	0	0	0	29563	28150	160037	26987	1068525	45930	110997	0	0	8152	512663	0	0
2024-08-07 03:38:47			0	38723	0	0	0	29568	28150	160152	26928	1068498	45953	110999	0	0	8151	513145	0	0
2024-08-07 03:39:47			0	38703	0	0	0	29555	28150	160156	27173	1068498	45941	110994	0	0	8150	513886	0	0
2024-08-07 03:40:47			0	38679	0	0	0	29566	28160	160384	27126	1068435	45919	110998	0	0	8149	514747	0	0
2024-08-07 03:41:47			0	38656	0	0	0	29563	28160	160348	26979	1068480	45919	110997	0	0	8147	515602	0	0
2024-08-07 03:42:47			0	38638	0	0	0	29563	28150	160464	27000	1068471	45919	110997	0	0	8146	516301	0	0
2024-08-07 03:43:47			0	38614	0	0	0	29550	28160	160532	27092	1068426	45930	110992	0	0	8145	517165	0	0
2024-08-07 03:44:47			0	38585	0	0	0	29542	28150	160704	26564	1068390	45930	110989	0	0	8144	518275	0	0
2024-08-07 03:45:47			0	38588	0	0	0	29545	28150	160716	26675	1068408	45929	110990	0	0	8144	518164	0	0
2024-08-07 03:46:47			0	38565	0	0	0	29542	28150	160716	26748	1068408	45929	110989	0	0	8143	519022	0	0
2024-08-07 03:47:47			0	38564	0	0	0	29537	28140	160828	27072	1068282	45917	110987	0	0	8143	519089	0	0
2024-08-07 03:48:47			0	38548	0	0	0	29509	28130	160844	26585	1068183	45882	110976	0	0	8142	519716	0	0
2024-08-07 03:49:47			0	38541	0	0	0	29488	28110	160872	26802	1068067	45892	110968	0	0	8142	520038	0	0
2024-08-07 03:50:47			0	38516	0	0	0	29467	28100	160948	27033	1067977	45892	110960	0	0	8141	521003	0	0
2024-08-07 03:51:47			0	38504	0	0	0	29480	28100	161044	26894	1068111	45915	110965	0	0	8140	521452	0	0
2024-08-07 03:52:47			0	38509	0	0	0	29470	28080	161020	26849	1068111	45934	110961	0	0	8140	521325	0	0
2024-08-07 03:53:47			0	38481	0	0	0	29475	28080	161196	26915	1067995	45922	110963	0	0	8139	522374	0	0
2024-08-07 03:54:47			0	38478	0	0	0	29459	28070	161216	26632	1067950	45932	110957	0	0	8139	522516	0	0
2024-08-07 03:55:47			0	38468	0	0	0	29431	28060	161168	26478	1067860	45899	110946	0	0	8139	522921	0	0
2024-08-07 03:56:47			0	38461	0	0	0	29397	28050	161256	27090	1067698	45886	110933	0	0	8139	523214	0	0
2024-08-07 03:57:47			0	38459	0	0	0	29392	28020	161256	26835	1067590	45873	110931	0	0	8138	523380	0	0
2024-08-07 03:58:47			0	38444	0	0	0	29366	28020	161436	26790	1067563	45883	110921	0	0	8138	523943	0	0
2024-08-07 03:59:47			0	38438	0	0	0	29358	28000	161380	26660	1067420	45881	110918	0	0	8138	524229	0	0
2024-08-07 04:00:47			0	38419	0	0	0	29332	27990	161468	26882	1067402	45891	110908	0	0	8137	524973	0	0
2024-08-07 04:01:47			0	38428	0	0	0	29327	27980	161444	26438	1067411	45889	110906	0	0	8138	524665	0	0
2024-08-07 04:02:47			0	38437	0	0	0	29319	27960	161424	26939	1067321	45899	110903	0	0	8138	524387	0	0
2024-08-07 04:03:47			0	38418	0	0	0	29311	27950	161448	26575	1067258	45899	110900	0	0	8137	525132	0	0
2024-08-07 04:04:47			0	38418	0	0	0	29298	27950	161452	26856	1067249	45887	110895	0	0	8137	525132	0	0
2024-08-07 04:05:47			0	38400	0	0	0	29296	27940	161516	26850	1067231	45897	110894	0	0	8136	525839	0	0
2024-08-07 04:06:47			0	38383	0	0	0	29293	27930	161488	26689	1067187	45897	110893	0	0	8135	526510	0	0
2024-08-07 04:07:47			0	38410	0	0	0	29285	27930	161580	26632	1067106	45908	110890	0	0	8137	525493	0	0
2024-08-07 04:08:47			0	38386	0	0	0	29283	27910	161668	26826	1067160	45916	110889	0	0	8136	526457	0	0
2024-08-07 04:09:47			0	38393	0	0	0	29283	27910	161556	26868	1067160	45894	110889	0	0	8136	526194	0	0
2024-08-07 04:10:47			0	38417	0	0	0	29275	27900	161636	26708	1067087	45905	110886	0	0	8138	525321	0	0
2024-08-07 04:11:47			0	38406	0	0	0	29275	27900	161704	26710	1067114	45916	110886	0	0	8137	525735	0	0
2024-08-07 04:12:47			0	38403	0	0	0	29293	27900	161724	27246	1067087	45916	110893	0	0	8136	525847	0	0
2024-08-07 04:13:47			0	38398	0	0	0	29277	27890	161680	26628	1067087	45892	110887	0	0	8136	526066	0	0
2024-08-07 04:14:47			0	38407	0	0	0	29283	27910	161652	26798	1067124	45894	110889	0	0	8137	525666	0	0
2024-08-07 04:15:47			0	38396	0	0	0	29277	27900	161696	26974	1067087	45927	110887	0	0	8136	526111	0	0
2024-08-07 04:16:47			0	38414	0	0	0	29290	27890	161556	26935	1067087	45925	110892	0	0	8137	525464	0	0
2024-08-07 04:17:47			0	38408	0	0	0	29280	27900	161608	26955	1067132	45916	110888	0	0	8137	525659	0	0
2024-08-07 04:18:47			0	38413	0	0	0	29288	27900	161704	26755	1067078	45926	110891	0	0	8137	525471	0	0
2024-08-07 04:19:47			0	38428	0	0	0	29293	27880	161620	26989	1067052	45915	110893	0	0	8138	524967	0	0
2024-08-07 04:20:47			0	38410	0	0	0	29293	27890	161556	26812	1067096	45892	110893	0	0	8137	525614	0	0
2024-08-07 04:21:47			0	38421	0	0	0	29288	27880	161636	26769	1067132	45903	110891	0	0	8137	525231	0	0
2024-08-07 04:22:47			0	38412	0	0	0	29285	27890	161600	26864	1067061	45915	110890	0	0	8137	525539	0	0
2024-08-07 04:23:47			0	38409	0	0	0	29298	27900	161596	26953	1067105	45916	110895	0	0	8137	525622	0	0
2024-08-07 04:24:47			0	38419	0	0	0	29296	27890	161488	26998	1067096	45915	110894	0	0	8137	525276	0	0
2024-08-07 04:25:47			0	38445	0	0	0	29296	27890	161484	26854	1067087	45915	110894	0	0	8139	524298	0	0
2024-08-07 04:26:47			0	38444	0	0	0	29301	27890	161468	26859	1067150	45903	110896	0	0	8139	524336	0	0
2024-08-07 04:27:47			0	38469	0	0	0	29293	27890	161544	26850	1067150	45892	110893	0	0	8140	523397	0	0
2024-08-07 04:28:47			0	38444	0	0	0	29285	27880	161384	26817	1067052	45903	110890	0	0	8139	524366	0	0
2024-08-07 04:29:47			0	38449	0	0	0	29290	27880	161388	26786	1067078	45915	110892	0	0	8139	524178	0	0
2024-08-07 04:30:47			0	38454	0	0	0	29280	27880	161308	27048	1067105	45892	110888	0	0	8139	523990	0	0
2024-08-07 04:31:47			0	38459	0	0	0	29298	27890	161368	26930	1067123	45915	110895	0	0	8139	523772	0	0
2024-08-07 04:32:47			0	38455	0	0	0	29298	27880	161308	27017	1067159	45915	110895	0	0	8139	523953	0	0
2024-08-07 04:33:47			0	38482	0	0	0	29288	27880	161364	26665	1067078	45925	110891	0	0	8141	522939	0	0
2024-08-07 04:34:47			0	38501	0	0	0	29293	27880	161248	26668	1067105	45915	110893	0	0	8142	522226	0	0
2024-08-07 04:35:47			0	38517	0	0	0	29293	27890	161124	26658	1067114	45915	110893	0	0	8143	521597	0	0
2024-08-07 04:36:47			0	38511	0	0	0	29283	27880	161088	27012	1067052	45903	110889	0	0	8143	521852	0	0
2024-08-07 04:37:47			0	38513	0	0	0	29277	27880	161164	26746	1067070	45902	110887	0	0	8143	521777	0	0
2024-08-07 04:38:47			0	38537	0	0	0	29277	27880	160984	26894	1067052	45892	110887	0	0	8144	520878	0	0
2024-08-07 04:39:47			0	38554	0	0	0	29272	27880	161076	26805	1067078	45892	110885	0	0	8145	520242	0	0
2024-08-07 04:40:47			0	38559	0	0	0	29283	27880	160896	26955	1067105	45915	110889	0	0	8145	520055	0	0
2024-08-07 04:41:47			0	38573	0	0	0	29280	27880	160960	26641	1067025	45915	110888	0	0	8146	519532	0	0
2024-08-07 04:42:47			0	38561	0	0	0	29272	27870	160816	26750	1066926	45913	110885	0	0	8146	520010	0	0
2024-08-07 04:43:47			0	38564	0	0	0	29264	27880	160928	26970	1067043	45914	110882	0	0	8146	519868	0	0
2024-08-07 04:44:47			0	38583	0	0	0	29275	27870	160940	26710	1066980	45890	110886	0	0	8147	519188	0	0
2024-08-07 04:45:47			0	38584	0	0	0	29264	27870	160840	27074	1066971	45879	110882	0	0	8147	519151	0	0
2024-08-07 04:46:47			0	38595	0	0	0	29270	27870	160872	26686	1066998	45913	110884	0	0	8148	518740	0	0
2024-08-07 04:47:47			0	38603	0	0	0	29272	27870	160748	26590	1066944	45913	110885	0	0	8148	518441	0	0
2024-08-07 04:48:47			0	38604	0	0	0	29264	27870	160772	26928	1067007	45890	110882	0	0	8148	518404	0	0
2024-08-07 04:49:47			0	38606	0	0	0	29262	27860	160736	26824	1066935	45901	110881	0	0	8148	518359	0	0
2024-08-07 04:50:47			0	38629	0	0	0	29257	27860	160760	26654	1066962	45913	110879	0	0	8150	517501	0	0
2024-08-07 04:51:47			0	38601	0	0	0	29259	27850	160812	27033	1066863	45911	110880	0	0	8148	518576	0	0
2024-08-07 04:52:47			0	38631	0	0	0	29259	27850	160724	26934	1066890	45888	110880	0	0	8150	517456	0	0
2024-08-07 04:53:47			0	38633	0	0	0	29249	27860	160720	26642	1066899	45912	110876	0	0	8150	517352	0	0
2024-08-07 04:54:47			0	38616	0	0	0	29241	27860	160724	26726	1066872	45867	110873	0	0	8149	517986	0	0
2024-08-07 04:55:47			0	38615	0	0	0	29241	27840	160664	26804	1066818	45898	110873	0	0	8149	518083	0	0
2024-08-07 04:56:47			0	38624	0	0	0	29233	27840	160692	26859	1066755	45910	110870	0	0	8150	517747	0	0
2024-08-07 04:57:47			0	38633	0	0	0	29231	27840	160784	26882	1066809	45898	110869	0	0	8150	517412	0	0
2024-08-07 04:58:47			0	38630	0	0	0	29220	27840	160712	26552	1066702	45887	110865	0	0	8150	517523	0	0
2024-08-07 04:59:47			0	38649	0	0	0	29220	27820	160612	27092	1066782	45896	110865	0	0	8151	516875	0	0
2024-08-07 05:00:47			0	38655	0	0	0	29225	27830	160524	26828	1066746	45909	110867	0	0	8152	516622	0	0
2024-08-07 05:01:47			0	38681	0	0	0	29223	27830	160496	26745	1066737	45885	110866	0	0	8153	515654	0	0
2024-08-07 05:02:47			0	38689	0	0	0	29220	27830	160424	27053	1066791	45885	110865	0	0	8154	515356	0	0
2024-08-07 05:03:47			0	38679	0	0	0	29212	27820	160400	26958	1066827	45885	110862	0	0	8153	515758	0	0
2024-08-07 05:04:47			0	38693	0	0	0	29212	27820	160356	26587	1066755	45918	110862	0	0	8154	515237	0	0
2024-08-07 05:05:47			0	38723	0	0	0	29210	27820	160328	26778	1066693	45896	110861	0	0	8156	514122	0	0
2024-08-07 05:06:47			0	38709	0	0	0	29212	27810	160504	27036	1066711	45895	110862	0	0	8155	514672	0	0
2024-08-07 05:07:47			0	38722	0	0	0	29192	27820	160236	26620	1066693	45896	110854	0	0	8156	514159	0	0
2024-08-07 05:08:47			0	38728	0	0	0	29197	27810	160273	26930	1066684	45884	110856	0	0	8156	513966	0	0
2024-08-07 05:09:47			0	38755	0	0	0	29194	27810	160273	26911	1066711	45884	110855	0	0	8158	512964	0	0
2024-08-07 05:10:47			0	38765	0	0	0	29199	27810	160113	26937	1066621	45906	110857	0	0	8158	512594	0	0
2024-08-07 05:11:47			0	38773	0	0	0	29186	27800	160081	26752	1066666	45906	110852	0	0	8159	512327	0	0
2024-08-07 05:12:47			0	38801	0	0	0	29189	27800	160041	27029	1066612	45906	110853	0	0	8160	511290	0	0
2024-08-07 05:13:47			0	38825	0	0	0	29194	27790	160009	26882	1066657	45916	110855	0	0	8162	510431	0	0
2024-08-07 05:14:47			0	38824	0	0	0	29199	27790	159945	26790	1066684	45906	110857	0	0	8162	510468	0	0
2024-08-07 05:15:47			0	38835	0	0	0	29197	27790	159921	26791	1066764	45883	110856	0	0	8162	510061	0	0
2024-08-07 05:16:47			0	38833	0	0	0	29210	27800	159933	26755	1066693	45916	110861	0	0	8162	510106	0	0
2024-08-07 05:17:47			0	38808	0	0	0	29215	27810	159837	26899	1066737	45917	110863	0	0	8160	511001	0	0
2024-08-07 05:18:47			0	38826	0	0	0	29220	27800	159929	26724	1066693	45916	110865	0	0	8161	510365	0	0
2024-08-07 05:19:47			0	38816	0	0	0	29218	27810	159929	26615	1066675	45916	110864	0	0	8161	510705	0	0
2024-08-07 05:20:47			0	38811	0	0	0	29225	27820	159917	26703	1066720	45908	110867	0	0	8160	510860	0	0
2024-08-07 05:21:47			0	38825	0	0	0	29223	27820	159869	26828	1066693	45930	110866	0	0	8161	510343	0	0
2024-08-07 05:22:47			0	38839	0	0	0	29223	27820	160009	26689	1066755	45908	110866	0	0	8162	509825	0	0
2024-08-07 05:23:47			0	38825	0	0	0	29207	27810	159905	26550	1066684	45884	110860	0	0	8162	510372	0	0
2024-08-07 05:24:47			0	38849	0	0	0	29220	27810	159889	26779	1066684	45895	110865	0	0	8163	509485	0	0
2024-08-07 05:25:47			0	38849	0	0	0	29207	27810	159849	26904	1066729	45906	110860	0	0	8163	509485	0	0
2024-08-07 05:26:47			0	38874	0	0	0	29202	27810	159789	26894	1066711	45895	110858	0	0	8164	508562	0	0
2024-08-07 05:27:47			0	38905	0	0	0	29202	27810	159621	27209	1066648	45906	110858	0	0	8166	507419	0	0
2024-08-07 05:28:47			0	38897	0	0	0	29199	27800	159573	26738	1066639	45906	110857	0	0	8166	507743	0	0
2024-08-07 05:29:47			0	38940	0	0	0	29192	27800	159581	26916	1066666	45906	110854	0	0	8168	506160	0	0
2024-08-07 05:30:47			0	38965	0	0	0	29202	27790	159389	26960	1066630	45906	110858	0	0	8170	505269	0	0
2024-08-07 05:31:47			0	38977	0	0	0	29192	27800	159349	27116	1066666	45906	110854	0	0	8170	504799	0	0
2024-08-07 05:32:47			0	39018	0	0	0	29197	27790	159265	26863	1066594	45916	110856	0	0	8173	503324	0	0
2024-08-07 05:33:47			0	39056	0	0	0	29199	27800	159061	26748	1066639	45906	110857	0	0	8175	501902	0	0
2024-08-07 05:34:47			0	39071	0	0	0	29194	27780	159001	27007	1066558	45904	110855	0	0	8176	501411	0	0
2024-08-07 05:35:47			0	39111	0	0	0	29194	27790	158837	26908	1066594	45916	110855	0	0	8178	499920	0	0
2024-08-07 05:36:47			0	39117	0	0	0	29194	27780	158725	26755	1066612	45915	110855	0	0	8178	499729	0	0
2024-08-07 05:37:47			0	39142	0	0	0	29186	27780	158733	26798	1066558	45881	110852	0	0	8180	498817	0	0
2024-08-07 05:38:47			0	39139	0	0	0	29184	27790	158813	26989	1066567	45882	110851	0	0	8180	498898	0	0
2024-08-07 05:39:47			0	39156	0	0	0	29181	27790	158705	26679	1066621	45893	110850	0	0	8181	498278	0	0
2024-08-07 05:40:47			0	39165	0	0	0	29184	27780	158701	26767	1066585	45892	110851	0	0	8181	497978	0	0
2024-08-07 05:41:47			0	39161	0	0	0	29197	27790	158705	26797	1066648	45905	110856	0	0	8181	498096	0	0
2024-08-07 05:42:47			0	39159	0	0	0	29210	27790	158661	26906	1066711	45916	110861	0	0	8180	498168	0	0
2024-08-07 05:43:47			0	39148	0	0	0	29218	27790	158765	26925	1066737	45916	110864	0	0	8180	498569	0	0
2024-08-07 05:44:47			0	39158	0	0	0	29233	27800	158661	26700	1066720	45916	110870	0	0	8180	498176	0	0
2024-08-07 05:45:47			0	39166	0	0	0	29231	27810	158645	26569	1066755	45916	110869	0	0	8181	497856	0	0
2024-08-07 05:46:47			0	39162	0	0	0	29241	27810	158669	26790	1066737	45907	110873	0	0	8180	498002	0	0
2024-08-07 05:47:47			0	39152	0	0	0	29233	27810	158761	26746	1066729	45894	110870	0	0	8180	498366	0	0
2024-08-07 05:48:47			0	39108	0	0	0	29223	27820	158785	26689	1066720	45908	110866	0	0	8177	499943	0	0
2024-08-07 05:49:47			0	39124	0	0	0	29223	27810	158853	26741	1066684	45907	110866	0	0	8178	499388	0	0
2024-08-07 05:50:47			0	39124	0	0	0	29218	27810	158849	26871	1066648	45906	110864	0	0	8178	499388	0	0
2024-08-07 05:51:47			0	39125	0	0	0	29207	27810	158877	26915	1066648	45883	110860	0	0	8179	499351	0	0
2024-08-07 05:52:47			0	39130	0	0	0	29212	27800	158849	26708	1066639	45906	110862	0	0	8179	499197	0	0
2024-08-07 05:53:47			0	39153	0	0	0	29205	27800	158757	27000	1066639	45883	110859	0	0	8180	498358	0	0
2024-08-07 05:54:47			0	39163	0	0	0	29210	27800	158777	26698	1066639	45883	110861	0	0	8181	497994	0	0
2024-08-07 05:55:47			0	39181	0	0	0	29207	27800	158709	26625	1066585	45906	110860	0	0	8182	497338	0	0
2024-08-07 05:56:47			0	39188	0	0	0	29189	27790	158657	26667	1066513	45893	110853	0	0	8182	497112	0	0
2024-08-07 05:57:47			0	39183	0	0	0	29184	27770	158625	26949	1066459	45891	110851	0	0	8182	497351	0	0
2024-08-07 05:58:47			0	39207	0	0	0	29168	27770	158609	26641	1066459	45891	110845	0	0	8184	496478	0	0
2024-08-07 05:59:47			0	39220	0	0	0	29161	27770	158493	26894	1066396	45891	110842	0	0	8185	496005	0	0
2024-08-07 06:00:47			0	39252	0	0	0	29145	27760	158361	26694	1066405	45868	110836	0	0	8187	494871	0	0
2024-08-07 06:01:47			0	39266	0	0	0	29132	27740	158337	26850	1066324	45877	110831	0	0	8188	494419	0	0
2024-08-07 06:02:47			0	39286	0	0	0	29129	27740	158273	26842	1066235	45866	110830	0	0	8189	493694	0	0
2024-08-07 06:03:47			0	39285	0	0	0	29127	27740	158293	26731	1066342	45876	110829	0	0	8189	493730	0	0
2024-08-07 06:04:47			0	39284	0	0	0	29109	27730	158261	26816	1066244	45876	110822	0	0	8189	493795	0	0
2024-08-07 06:05:47			0	39283	0	0	0	29109	27720	158373	27097	1066208	45875	110822	0	0	8189	493859	0	0
2024-08-07 06:06:47			0	39240	0	0	0	29096	27720	158501	26920	1066172	45875	110817	0	0	8187	495421	0	0
2024-08-07 06:07:47			0	39217	0	0	0	29101	27710	158581	27060	1066100	45896	110819	0	0	8185	496285	0	0
2024-08-07 06:08:47			0	39202	0	0	0	29083	27710	158669	26918	1066100	45885	110812	0	0	8185	496831	0	0
2024-08-07 06:09:47			0	39181	0	0	0	29083	27700	158705	27173	1066028	45873	110812	0	0	8183	497625	0	0
2024-08-07 06:10:47			0	39176	0	0	0	29077	27700	158745	27116	1066082	45862	110810	0	0	8183	497807	0	0
2024-08-07 06:11:47			0	39182	0	0	0	29080	27690	158793	27237	1066046	45872	110811	0	0	8183	497617	0	0
2024-08-07 06:12:47			0	39145	0	0	0	29072	27680	158889	27211	1066055	45905	110808	0	0	8181	498995	0	0
2024-08-07 06:13:47			0	39136	0	0	0	29072	27680	158885	27072	1066001	45883	110808	0	0	8181	499323	0	0
2024-08-07 06:14:47			0	39127	0	0	0	29070	27690	158829	27024	1066046	45894	110807	0	0	8181	499623	0	0
2024-08-07 06:15:47			0	39123	0	0	0	29072	27680	158933	26982	1066019	45893	110808	0	0	8180	499798	0	0
2024-08-07 06:16:47			0	39115	0	0	0	29070	27680	158945	26752	1065975	45894	110807	0	0	8180	500090	0	0
2024-08-07 06:17:47			0	39131	0	0	0	29070	27680	158917	27036	1066073	45893	110807	0	0	8181	499506	0	0
2024-08-07 06:18:47			0	39108	0	0	0	29062	27680	158929	27038	1066073	45893	110804	0	0	8180	500346	0	0
2024-08-07 06:19:47			0	39140	0	0	0	29057	27670	158953	27062	1065921	45892	110802	0	0	8181	499206	0	0
2024-08-07 06:20:47			0	39134	0	0	0	29062	27680	158825	27194	1065993	45893	110804	0	0	8181	499396	0	0
2024-08-07 06:21:47			0	39160	0	0	0	29067	27670	158813	26928	1066037	45892	110806	0	0	8182	498476	0	0
2024-08-07 06:22:47			0	39162	0	0	0	29062	27670	158889	26882	1066001	45892	110804	0	0	8183	498403	0	0
2024-08-07 06:23:47			0	39150	0	0	0	29075	27670	158857	26930	1065957	45881	110809	0	0	8182	498841	0	0
2024-08-07 06:24:47			0	39180	0	0	0	29070	27680	158789	26958	1066073	45893	110807	0	0	8184	497718	0	0
2024-08-07 06:25:47			0	39182	0	0	0	29075	27670	158741	26882	1066064	45881	110809	0	0	8183	497674	0	0
2024-08-07 06:26:47			0	39162	0	0	0	29067	27670	158685	26854	1066037	45903	110806	0	0	8182	498403	0	0
2024-08-07 06:27:47			0	39189	0	0	0	29077	27670	158805	26703	1066064	45892	110810	0	0	8184	497419	0	0
2024-08-07 06:28:47			0	39202	0	0	0	29088	27670	158761	27005	1066037	45903	110814	0	0	8184	496946	0	0
2024-08-07 06:29:47			0	39179	0	0	0	29072	27670	158769	27017	1066001	45870	110808	0	0	8183	497784	0	0
2024-08-07 06:30:47			0	39189	0	0	0	29072	27670	158769	26923	1066037	45903	110808	0	0	8184	497419	0	0
2024-08-07 06:31:47			0	39193	0	0	0	29083	27670	158661	27131	1066055	45881	110812	0	0	8184	497273	0	0
2024-08-07 06:32:47			0	39198	0	0	0	29083	27670	158777	26734	1066064	45903	110812	0	0	8184	497091	0	0
2024-08-07 06:33:47			0	39208	0	0	0	29083	27670	158777	26906	1066028	45892	110812	0	0	8185	496727	0	0
2024-08-07 06:34:47			0	39223	0	0	0	29077	27670	158725	27067	1066010	45881	110810	0	0	8186	496181	0	0
2024-08-07 06:35:47			0	39209	0	0	0	29077	27670	158593	27274	1066064	45903	110810	0	0	8185	496691	0	0
2024-08-07 06:36:47			0	39255	0	0	0	29072	27660	158625	27261	1065993	45892	110808	0	0	8188	495047	0	0
2024-08-07 06:37:47			0	39257	0	0	0	29064	27660	158653	26928	1066019	45892	110805	0	0	8188	494974	0	0
2024-08-07 06:38:47			0	39256	0	0	0	29064	27660	158457	26852	1065966	45892	110805	0	0	8188	495010	0	0
2024-08-07 06:39:47			0	39285	0	0	0	29070	27660	158429	27088	1065966	45903	110807	0	0	8189	493958	0	0
2024-08-07 06:40:47			0	39288	0	0	0	29062	27670	158385	26896	1065948	45881	110804	0	0	8190	493820	0	0
2024-08-07 06:41:47			0	39299	0	0	0	29059	27670	158389	27041	1065975	45892	110803	0	0	8190	493421	0	0
2024-08-07 06:42:47			0	39309	0	0	0	29051	27670	158341	26734	1065975	45881	110800	0	0	8191	493059	0	0
2024-08-07 06:43:47			0	39329	0	0	0	29046	27670	158301	27163	1065921	45892	110798	0	0	8192	492334	0	0
2024-08-07 06:44:47			0	39313	0	0	0	29049	27670	158261	26800	1065975	45892	110799	0	0	8191	492914	0	0
2024-08-07 06:45:47			0	39320	0	0	0	29051	27650	158229	27024	1065938	45868	110800	0	0	8192	492717	0	0
2024-08-07 06:46:47			0	39343	0	0	0	29051	27650	158333	27209	1065894	45879	110800	0	0	8193	491884	0	0
2024-08-07 06:47:47			0	39338	0	0	0	29046	27650	158293	27046	1065894	45879	110798	0	0	8193	492065	0	0
2024-08-07 06:48:47			0	39343	0	0	0	29038	27630	158273	26871	1065803	45888	110795	0	0	8193	491941	0	0
2024-08-07 06:49:47			0	39345	0	0	0	29036	27650	158221	27140	1065911	45890	110794	0	0	8193	491812	0	0
2024-08-07 06:50:47			0	39322	0	0	0	29036	27630	158305	27036	1065884	45877	110794	0	0	8192	492701	0	0
2024-08-07 06:51:47			0	39330	0	0	0	29031	27640	158241	26868	1065866	45878	110792	0	0	8193	492383	0	0
2024-08-07 06:52:47			0	39316	0	0	0	29033	27640	158237	27060	1065902	45889	110793	0	0	8192	492890	0	0
2024-08-07 06:53:47			0	39314	0	0	0	29041	27630	158229	27244	1065857	45866	110796	0	0	8191	492991	0	0
2024-08-07 06:54:47			0	39339	0	0	0	29033	27630	158193	26868	1065857	45888	110793	0	0	8193	492086	0	0
2024-08-07 06:55:47			0	39334	0	0	0	29028	27630	158165	27027	1065795	45866	110791	0	0	8193	492267	0	0
2024-08-07 06:56:47			0	39345	0	0	0	29028	27630	158245	27007	1065777	45899	110791	0	0	8193	491868	0	0
2024-08-07 06:57:47			0	39328	0	0	0	29028	27620	158253	26883	1065786	45876	110791	0	0	8192	492512	0	0
2024-08-07 06:58:47			0	39332	0	0	0	29015	27630	158221	26993	1065848	45888	110786	0	0	8193	492339	0	0
2024-08-07 06:59:47			0	39309	0	0	0	29028	27620	158325	26795	1065759	45887	110791	0	0	8191	493201	0	0
2024-08-07 07:00:47			0	39318	0	0	0	29023	27630	158245	27027	1065795	45888	110789	0	0	8192	492846	0	0
2024-08-07 07:01:47			0	39321	0	0	0	29023	27620	158365	27046	1065812	45887	110789	0	0	8192	492766	0	0
2024-08-07 07:02:47			0	39320	0	0	0	29025	27620	158245	26800	1065750	45887	110790	0	0	8192	492802	0	0
2024-08-07 07:03:47			0	39329	0	0	0	29015	27620	158305	27086	1065723	45887	110786	0	0	8193	492476	0	0
2024-08-07 07:04:47			0	39321	0	0	0	29015	27610	158345	27145	1065714	45886	110786	0	0	8192	492794	0	0
2024-08-07 07:05:47			0	39308	0	0	0	29018	27610	158273	26772	1065741	45875	110787	0	0	8191	493265	0	0
2024-08-07 07:06:47			0	39307	0	0	0	29010	27610	158313	27048	1065714	45886	110784	0	0	8191	493302	0	0
2024-08-07 07:07:47			0	39321	0	0	0	29020	27610	158313	26774	1065687	45864	110788	0	0	8192	492794	0	0
2024-08-07 07:08:47			0	39325	0	0	0	29010	27620	158245	27182	1065759	45887	110784	0	0	8193	492621	0	0
2024-08-07 07:09:47			0	39324	0	0	0	29018	27620	158337	27260	1065723	45887	110787	0	0	8192	492657	0	0
2024-08-07 07:10:47			0	39330	0	0	0	29023	27610	158209	27201	1065741	45897	110789	0	0	8193	492468	0	0
2024-08-07 07:11:47			0	39333	0	0	0	29010	27610	158273	26901	1065687	45897	110784	0	0	8193	492359	0	0
2024-08-07 07:12:47			0	39323	0	0	0	29015	27610	158261	27159	1065759	45875	110786	0	0	8192	492722	0	0
2024-08-07 07:13:47			0	39314	0	0	0	29010	27610	158237	27124	1065768	45886	110784	0	0	8192	493048	0	0
2024-08-07 07:14:47			0	39319	0	0	0	29020	27600	158253	27026	1065669	45885	110788	0	0	8192	492895	0	0
2024-08-07 07:15:47			0	39315	0	0	0	29020	27610	158301	26909	1065768	45897	110788	0	0	8192	493012	0	0
2024-08-07 07:16:47			0	39305	0	0	0	29023	27610	158361	27161	1065786	45897	110789	0	0	8191	493374	0	0
2024-08-07 07:17:47			0	39299	0	0	0	29023	27620	158341	27130	1065750	45887	110789	0	0	8191	493563	0	0
2024-08-07 07:18:47			0	39295	0	0	0	29020	27620	158369	26852	1065803	45876	110788	0	0	8191	493709	0	0
2024-08-07 07:19:47			0	39299	0	0	0	29023	27610	158413	27180	1065732	45885	110789	0	0	8191	493592	0	0
2024-08-07 07:20:47			0	39300	0	0	0	29028	27620	158305	26785	1065803	45898	110791	0	0	8191	493527	0	0
2024-08-07 07:21:47			0	39273	0	0	0	29023	27610	158437	26975	1065759	45885	110789	0	0	8189	494535	0	0
2024-08-07 07:22:47			0	39282	0	0	0	29031	27620	158373	27069	1065777	45887	110792	0	0	8190	494180	0	0
2024-08-07 07:23:47			0	39296	0	0	0	29031	27620	158357	27229	1065723	45887	110792	0	0	8190	493672	0	0
2024-08-07 07:24:47			0	39281	0	0	0	29028	27610	158373	26972	1065768	45886	110791	0	0	8190	494245	0	0
2024-08-07 07:25:47			0	39299	0	0	0	29028	27620	158405	27138	1065759	45865	110791	0	0	8191	493563	0	0
2024-08-07 07:26:47			0	39276	0	0	0	29023	27610	158373	27071	1065821	45886	110789	0	0	8189	494426	0	0
2024-08-07 07:27:47			0	39277	0	0	0	29025	27610	158521	27222	1065768	45864	110790	0	0	8189	494390	0	0
2024-08-07 07:28:47			0	39266	0	0	0	29025	27620	158493	27156	1065786	45887	110790	0	0	8189	494761	0	0
2024-08-07 07:29:47			0	39256	0	0	0	29033	27620	158549	26899	1065812	45898	110793	0	0	8188	495124	0	0
2024-08-07 07:30:47			0	39245	0	0	0	29036	27620	158597	26975	1065786	45887	110794	0	0	8188	495524	0	0
2024-08-07 07:31:47			0	39240	0	0	0	29041	27610	158489	27144	1065768	45875	110796	0	0	8187	495734	0	0
2024-08-07 07:32:47			0	39236	0	0	0	29041	27620	158577	26769	1065812	45876	110796	0	0	8187	495851	0	0
2024-08-07 07:33:47			0	39227	0	0	0	29049	27630	158505	26837	1065830	45899	110799	0	0	8186	496150	0	0
2024-08-07 07:34:47			0	39222	0	0	0	29044	27630	158581	27208	1065821	45888	110797	0	0	8186	496332	0	0
2024-08-07 07:35:47			0	39219	0	0	0	29054	27620	158633	27296	1065839	45887	110801	0	0	8186	496470	0	0
2024-08-07 07:36:47			0	39202	0	0	0	29046	27620	158677	27152	1065893	45898	110798	0	0	8185	497089	0	0
2024-08-07 07:37:47			0	39186	0	0	0	29041	27640	158661	27161	1065876	45889	110796	0	0	8184	497614	0	0
2024-08-07 07:38:47			0	39188	0	0	0	29036	27630	158733	26928	1065768	45899	110794	0	0	8184	497570	0	0
2024-08-07 07:39:47			0	39180	0	0	0	29031	27630	158773	27019	1065830	45877	110792	0	0	8184	497862	0	0
2024-08-07 07:40:47			0	39156	0	0	0	29025	27620	158765	26778	1065812	45887	110790	0	0	8183	498766	0	0
2024-08-07 07:41:47			0	39143	0	0	0	29025	27620	158873	26902	1065750	45887	110790	0	0	8182	499240	0	0
2024-08-07 07:42:47			0	39153	0	0	0	29023	27620	158913	27074	1065759	45887	110789	0	0	8182	498875	0	0
2024-08-07 07:43:47			0	39127	0	0	0	29028	27620	158881	27003	1065777	45876	110791	0	0	8181	499825	0	0
2024-08-07 07:44:47			0	39134	0	0	0	29028	27620	158937	27022	1065839	45887	110791	0	0	8181	499569	0	0
2024-08-07 07:45:47			0	39136	0	0	0	29023	27610	158933	27114	1065687	45886	110789	0	0	8181	499525	0	0
2024-08-07 07:46:47			0	39145	0	0	0	29020	27620	158933	27003	1065786	45876	110788	0	0	8182	499167	0	0
2024-08-07 07:47:47			0	39129	0	0	0	29018	27610	158853	26800	1065786	45885	110787	0	0	8181	499780	0	0
2024-08-07 07:48:47			0	39142	0	0	0	29015	27610	158849	26901	1065768	45875	110786	0	0	8182	499306	0	0
2024-08-07 07:49:47			0	39145	0	0	0	29010	27620	158933	27301	1065732	45898	110784	0	0	8182	499167	0	0
2024-08-07 07:50:47			0	39146	0	0	0	29023	27620	158933	26908	1065803	45898	110789	0	0	8182	499131	0	0
2024-08-07 07:51:47			0	39145	0	0	0	29028	27610	158841	27090	1065732	45885	110791	0	0	8182	499196	0	0
2024-08-07 07:52:47			0	39133	0	0	0	29025	27620	158889	26682	1065777	45898	110790	0	0	8181	499605	0	0
2024-08-07 07:53:47			0	39174	0	0	0	29015	27620	158885	26847	1065696	45898	110786	0	0	8184	498109	0	0
2024-08-07 07:54:47			0	39151	0	0	0	29018	27600	158841	26667	1065750	45885	110787	0	0	8182	499006	0	0
2024-08-07 07:55:47			0	39173	0	0	0	29025	27610	158841	26902	1065759	45863	110790	0	0	8184	498174	0	0
2024-08-07 07:56:47			0	39195	0	0	0	29046	27620	158753	26726	1065911	45887	110798	0	0	8184	497344	0	0
2024-08-07 07:57:47			0	39199	0	0	0	29093	27640	158797	27157	1066082	45922	110816	0	0	8184	497141	0	0
2024-08-07 07:58:47			0	39196	0	0	0	29114	27650	158669	26916	1066136	45923	110824	0	0	8184	497222	0	0
2024-08-07 07:59:47			0	39208	0	0	0	29124	27660	158677	26953	1066154	45903	110828	0	0	8184	496756	0	0
2024-08-07 08:00:47			0	39225	0	0	0	29116	27670	158633	26913	1066118	45903	110825	0	0	8185	496109	0	0
2024-08-07 08:01:47			0	39214	0	0	0	29111	27670	158497	26927	1066136	45881	110823	0	0	8185	496509	0	0
2024-08-07 08:02:47			0	39199	0	0	0	29090	27660	158613	27031	1065966	45892	110815	0	0	8184	497084	0	0
2024-08-07 08:03:47			0	39211	0	0	0	29090	27660	158497	26720	1065966	45881	110815	0	0	8185	496647	0	0
2024-08-07 08:04:47			0	39210	0	0	0	29083	27670	158561	27069	1065975	45881	110812	0	0	8185	496655	0	0
2024-08-07 08:05:47			0	39203	0	0	0	29088	27660	158685	26984	1066019	45892	110814	0	0	8184	496938	0	0
2024-08-07 08:06:47			0	39212	0	0	0	29116	27660	158613	26830	1066100	45903	110825	0	0	8184	496610	0	0
2024-08-07 08:07:47			0	39225	0	0	0	29155	27670	158605	26873	1066145	45915	110840	0	0	8185	496109	0	0
2024-08-07 08:08:47			0	39228	0	0	0	29176	27690	158489	26956	1066360	45939	110848	0	0	8184	495942	0	0
2024-08-07 08:09:47			0	39238	0	0	0	29179	27690	158485	26814	1066289	45916	110849	0	0	8185	495579	0	0
2024-08-07 08:10:47			0	39241	0	0	0	29194	27710	158405	27092	1066423	45929	110855	0	0	8185	495413	0	0
2024-08-07 08:11:47			0	39276	0	0	0	29244	27710	158293	27038	1066567	45953	110874	0	0	8186	494142	0	0
2024-08-07 08:12:47			0	39293	0	0	0	29264	27750	158061	27133	1066764	45934	110882	0	0	8187	493412	0	0
2024-08-07 08:13:47			0	39307	0	0	0	29267	27760	158109	26880	1066701	45945	110883	0	0	8188	492876	0	0
2024-08-07 08:14:47			0	39306	0	0	0	29262	27760	158105	26679	1066737	45935	110881	0	0	8188	492912	0	0
2024-08-07 08:15:47			0	39318	0	0	0	29283	27780	158093	26897	1066854	45937	110889	0	0	8188	492421	0	0
2024-08-07 08:16:47			0	39321	0	0	0	29306	27790	158077	26736	1066872	45939	110898	0	0	8188	492284	0	0
2024-08-07 08:17:47			0	39299	0	0	0	29316	27810	158069	26939	1066953	45951	110902	0	0	8187	493024	0	0
2024-08-07 08:18:47			0	39309	0	0	0	29322	27820	158189	26920	1066971	45952	110904	0	0	8187	492633	0	0
2024-08-07 08:19:47			0	39258	0	0	0	29316	27830	158293	26842	1066980	45941	110902	0	0	8184	494453	0	0
2024-08-07 08:20:47			0	39234	0	0	0	29306	27830	158345	26875	1066989	45919	110898	0	0	8183	495325	0	0
2024-08-07 08:21:47			0	39231	0	0	0	29296	27830	158385	26750	1067016	45931	110894	0	0	8183	495434	0	0
2024-08-07 08:22:47			0	39200	0	0	0	29314	27840	158413	26807	1067052	45920	110901	0	0	8181	496532	0	0
2024-08-07 08:23:47			0	39157	0	0	0	29303	27840	158597	26797	1067034	45932	110897	0	0	8179	498098	0	0
2024-08-07 08:24:47			0	39158	0	0	0	29285	27840	158661	26823	1066926	45920	110890	0	0	8179	498061	0	0
2024-08-07 08:25:47			0	39166	0	0	0	29275	27840	158641	26644	1066917	45910	110886	0	0	8180	497770	0	0
2024-08-07 08:26:47			0	39161	0	0	0	29270	27840	158669	26906	1066917	45920	110884	0	0	8180	497952	0	0
2024-08-07 08:27:47			0	39156	0	0	0	29280	27840	158625	27010	1066917	45932	110888	0	0	8179	498134	0	0
2024-08-07 08:28:47			0	39155	0	0	0	29285	27840	158565	26989	1066899	45910	110890	0	0	8179	498171	0	0
2024-08-07 08:29:47			0	39158	0	0	0	29275	27840	158545	26842	1066890	45898	110886	0	0	8179	498061	0	0
2024-08-07 08:30:47			0	39177	0	0	0	29298	27830	158609	27057	1066899	45896	110895	0	0	8180	497398	0	0
2024-08-07 08:31:47			0	39186	0	0	0	29306	27840	158593	26961	1066953	45932	110898	0	0	8181	497042	0	0
2024-08-07 08:32:47			0	39194	0	0	0	29327	27850	158577	26830	1067105	45944	110906	0	0	8181	496722	0	0
2024-08-07 08:33:47			0	39176	0	0	0	29329	27850	158561	26771	1067159	45921	110907	0	0	8180	497377	0	0
2024-08-07 08:34:47			0	39173	0	0	0	29329	27860	158493	26896	1067096	45935	110907	0	0	8180	497458	0	0
2024-08-07 08:35:47			0	39167	0	0	0	29329	27860	158585	27031	1067150	45935	110907	0	0	8179	497676	0	0
2024-08-07 08:36:47			0	39142	0	0	0	29332	27870	158621	26833	1067195	45935	110908	0	0	8178	498558	0	0
2024-08-07 08:37:47			0	39139	0	0	0	29340	27870	158673	27090	1067168	45935	110911	0	0	8177	498668	0	0
2024-08-07 08:38:47			0	39128	0	0	0	29327	27880	158769	27062	1067150	45924	110906	0	0	8177	499040	0	0
2024-08-07 08:39:47			0	39093	0	0	0	29319	27880	158753	26863	1067123	45914	110903	0	0	8175	500318	0	0
2024-08-07 08:40:47			0	39062	0	0	0	29340	27870	159005	26786	1067159	45946	110911	0	0	8173	501480	0	0
2024-08-07 08:41:47			0	39024	0	0	0	29361	27870	159097	26828	1067195	45946	110919	0	0	8171	502872	0	0
2024-08-07 08:42:47			0	38976	0	0	0	29374	27880	159237	27043	1067375	45936	110924	0	0	8168	504603	0	0
2024-08-07 08:43:47			0	38956	0	0	0	29389	27900	159513	26781	1067437	45960	110930	0	0	8166	505280	0	0
2024-08-07 08:44:47			0	38907	0	0	0	29392	27910	159585	26819	1067483	45960	110931	0	0	8164	507053	0	0
2024-08-07 08:45:47			0	38849	0	0	0	29392	27920	159769	27022	1067438	45951	110931	0	0	8160	509162	0	0
2024-08-07 08:46:47			0	38812	0	0	0	29392	27920	159885	27112	1067447	45929	110931	0	0	8158	510529	0	0
2024-08-07 08:47:47			0	38778	0	0	0	29399	27920	160093	27183	1067528	45952	110934	0	0	8156	511787	0	0
2024-08-07 08:48:47			0	38708	0	0	0	29402	27940	160216	27100	1067528	45953	110935	0	0	8152	514324	0	0
2024-08-07 08:49:47			0	38674	0	0	0	29418	27940	160368	26894	1067608	45953	110941	0	0	8150	515587	0	0
2024-08-07 08:50:47			0	38605	0	0	0	29423	27950	160632	27145	1067680	45943	110943	0	0	8146	518127	0	0
2024-08-07 08:51:47			0	38577	0	0	0	29431	27960	160904	27027	1067698	45965	110946	0	0	8144	519143	0	0
2024-08-07 08:52:47			0	38505	0	0	0	29436	27970	161088	26857	1067770	45957	110948	0	0	8140	521806	0	0
2024-08-07 08:53:47			0	38454	0	0	0	29449	27970	161280	27010	1067797	45945	110953	0	0	8137	523718	0	0
2024-08-07 08:54:47			0	38421	0	0	0	29451	27980	161524	27043	1067878	45968	110954	0	0	8135	524928	0	0
2024-08-07 08:55:47			0	38371	0	0	0	29449	27990	161600	27119	1067869	45958	110953	0	0	8132	526779	0	0
2024-08-07 08:56:47			0	38314	0	0	0	29457	28000	161716	26507	1067905	45937	110956	0	0	8129	528899	0	0
2024-08-07 08:57:47			0	38273	0	0	0	29454	28000	162016	27203	1067967	45948	110955	0	0	8127	530449	0	0
2024-08-07 08:58:47			0	38226	0	0	0	29454	28020	162116	26864	1067914	45950	110955	0	0	8124	532168	0	0
2024-08-07 08:59:47			0	38175	0	0	0	29459	28010	162352	26928	1067932	45950	110957	0	0	8121	534135	0	0
2024-08-07 09:00:47			0	38119	0	0	0	29462	28020	162576	26981	1067914	45939	110958	0	0	8118	536235	0	0
2024-08-07 09:01:47			0	38091	0	0	0	29459	28020	162684	27013	1067941	45939	110957	0	0	8116	537302	0	0
2024-08-07 09:02:47			0	38046	0	0	0	29462	28030	162880	26819	1067932	45951	110958	0	0	8114	538989	0	0
2024-08-07 09:03:47			0	37992	0	0	0	29467	28040	163087	27038	1067977	45929	110960	0	0	8111	541024	0	0
2024-08-07 09:04:47			0	37982	0	0	0	29470	28030	163119	26880	1067995	45941	110961	0	0	8110	541438	0	0
2024-08-07 09:05:47			0	37924	0	0	0	29467	28030	163331	26644	1068076	45952	110960	0	0	8107	543664	0	0
2024-08-07 09:06:47			0	37895	0	0	0	29459	28040	163459	26896	1068031	45941	110957	0	0	8105	544748	0	0
2024-08-07 09:07:47			0	37842	0	0	0	29459	28040	163631	26918	1067986	45941	110957	0	0	8102	546789	0	0
2024-08-07 09:08:47			0	37775	0	0	0	29451	28040	163831	27085	1068067	45941	110954	0	0	8098	549377	0	0
2024-08-07 09:09:47			0	37753	0	0	0	29459	28040	164031	26849	1067977	45941	110957	0	0	8097	550228	0	0
2024-08-07 09:10:47			0	37713	0	0	0	29454	28030	164115	26916	1067968	45929	110955	0	0	8095	551810	0	0
2024-08-07 09:11:47			0	37663	0	0	0	29451	28040	164367	26922	1067977	45918	110954	0	0	8092	553720	0	0
2024-08-07 09:12:47			0	37650	0	0	0	29451	28040	164491	27081	1067986	45941	110954	0	0	8091	554225	0	0
2024-08-07 09:13:47			0	37605	0	0	0	29446	28040	164683	26571	1067959	45929	110952	0	0	8089	555978	0	0
2024-08-07 09:14:47			0	37560	0	0	0	29449	28030	164843	26535	1067968	45941	110953	0	0	8086	557766	0	0
2024-08-07 09:15:47			0	37533	0	0	0	29451	28040	164903	27048	1067923	45941	110954	0	0	8084	558789	0	0
2024-08-07 09:16:47			0	37494	0	0	0	29444	28030	165127	27034	1067968	45941	110951	0	0	8082	560348	0	0
2024-08-07 09:17:47			0	37463	0	0	0	29444	28020	165155	26883	1067950	45927	110951	0	0	8080	561595	0	0
2024-08-07 09:18:47			0	37452	0	0	0	29444	28020	165259	26856	1067967	45939	110951	0	0	8080	562027	0	0
2024-08-07 09:19:47			0	37416	0	0	0	29441	28030	165315	26863	1067914	45929	110950	0	0	8078	563409	0	0
2024-08-07 09:20:47			0	37392	0	0	0	29441	28040	165555	26720	1067977	45941	110950	0	0	8076	564321	0	0
2024-08-07 09:21:47			0	37350	0	0	0	29441	28030	165663	26802	1067958	45940	110950	0	0	8074	566008	0	0
2024-08-07 09:22:47			0	37328	0	0	0	29451	28040	165871	26700	1067986	45952	110954	0	0	8072	566843	0	0
2024-08-07 09:23:47			0	37271	0	0	0	29444	28040	166022	27124	1067950	45941	110951	0	0	8069	569096	0	0
2024-08-07 09:24:47			0	37246	0	0	0	29441	28030	166118	27013	1068012	45940	110950	0	0	8068	570119	0	0
2024-08-07 09:25:47			0	37220	0	0	0	29451	28040	166182	26762	1068004	45952	110954	0	0	8066	571117	0	0
2024-08-07 09:26:47			0	37207	0	0	0	29449	28030	166274	27001	1067968	45941	110953	0	0	8065	571666	0	0
2024-08-07 09:27:47			0	37183	0	0	0	29441	28040	166342	26915	1068040	45918	110950	0	0	8064	572586	0	0
2024-08-07 09:28:47			0	37173	0	0	0	29451	28040	166458	26934	1068040	45929	110954	0	0	8063	572983	0	0
2024-08-07 09:29:47			0	37156	0	0	0	29446	28040	166502	26941	1067986	45941	110952	0	0	8062	573660	0	0
2024-08-07 09:30:47			0	37132	0	0	0	29449	28040	166594	26899	1068058	45941	110953	0	0	8061	574615	0	0
2024-08-07 09:31:47			0	37110	0	0	0	29457	28040	166646	26651	1068004	45941	110956	0	0	8060	575492	0	0
2024-08-07 09:32:47			0	37123	0	0	0	29454	28040	166758	26892	1068040	45918	110955	0	0	8060	574974	0	0
2024-08-07 09:33:47			0	37107	0	0	0	29454	28040	166742	27149	1067932	45941	110955	0	0	8059	575611	0	0
2024-08-07 09:34:47			0	37100	0	0	0	29451	28050	166806	26597	1068049	45942	110954	0	0	8059	575857	0	0
2024-08-07 09:35:47			0	37090	0	0	0	29441	28030	166762	27270	1067985	45940	110950	0	0	8059	576323	0	0
2024-08-07 09:36:47			0	37090	0	0	0	29428	28020	166778	27105	1067869	45906	110945	0	0	8059	576356	0	0
2024-08-07 09:37:47			0	37097	0	0	0	29420	28020	166790	27010	1067860	45927	110942	0	0	8059	576077	0	0
2024-08-07 09:38:47			0	37093	0	0	0	29423	28020	166826	26868	1067869	45927	110943	0	0	8059	576236	0	0
2024-08-07 09:39:47			0	37082	0	0	0	29402	28010	166834	27166	1067815	45927	110935	0	0	8059	576709	0	0
2024-08-07 09:40:47			0	37077	0	0	0	29399	28010	166782	26797	1067788	45927	110934	0	0	8058	576908	0	0
2024-08-07 09:41:47			0	37070	0	0	0	29402	28000	166894	27194	1067716	45937	110935	0	0	8058	577221	0	0
2024-08-07 09:42:47			0	37080	0	0	0	29399	28000	166854	26941	1067770	45926	110934	0	0	8059	576822	0	0
2024-08-07 09:43:47			0	37109	0	0	0	29405	27990	166790	27078	1067788	45936	110936	0	0	8060	575698	0	0
2024-08-07 09:44:47			0	37110	0	0	0	29405	27990	166762	27093	1067734	45936	110936	0	0	8060	575658	0	0
2024-08-07 09:45:47			0	37115	0	0	0	29405	27990	166622	26759	1067761	45925	110936	0	0	8060	575458	0	0
2024-08-07 09:46:47			0	37127	0	0	0	29392	27990	166630	26908	1067752	45936	110931	0	0	8061	574980	0	0
2024-08-07 09:47:47			0	37137	0	0	0	29392	27990	166658	26875	1067707	45936	110931	0	0	8062	574582	0	0
2024-08-07 09:48:47			0	37119	0	0	0	29384	27990	166698	26724	1067725	45925	110928	0	0	8061	575299	0	0
2024-08-07 09:49:47			0	37119	0	0	0	29392	27980	166746	26882	1067689	45924	110931	0	0	8061	575332	0	0
2024-08-07 09:50:47			0	37103	0	0	0	29384	27990	166734	26778	1067788	45947	110928	0	0	8060	575937	0	0
2024-08-07 09:51:47			0	37134	0	0	0	29384	27980	166718	26930	1067716	45935	110928	0	0	8062	574734	0	0
2024-08-07 09:52:47			0	37112	0	0	0	29381	27980	166674	26892	1067707	45945	110927	0	0	8061	575611	0	0
2024-08-07 09:53:47			0	37102	0	0	0	29376	27970	166850	27218	1067635	45923	110925	0	0	8060	576043	0	0
2024-08-07 09:54:47			0	37088	0	0	0	29389	27980	166850	26889	1067716	45946	110930	0	0	8059	576569	0	0
2024-08-07 09:55:47			0	37058	0	0	0	29386	27980	166866	26963	1067716	45935	110929	0	0	8057	577767	0	0
2024-08-07 09:56:47			0	37098	0	0	0	29384	27980	166738	26870	1067662	45935	110928	0	0	8060	576170	0	0
2024-08-07 09:57:47			0	37106	0	0	0	29392	27970	166778	27010	1067698	45945	110931	0	0	8060	575884	0	0
2024-08-07 09:58:47			0	37105	0	0	0	29386	27980	166830	26804	1067734	45923	110929	0	0	8060	575890	0	0
2024-08-07 09:59:47			0	37103	0	0	0	29381	27980	166866	26993	1067734	45934	110927	0	0	8060	575970	0	0
2024-08-07 10:00:47			0	37081	0	0	0	29389	27960	166814	26804	1067734	45944	110930	0	0	8059	576915	0	0
2024-08-07 10:01:47			0	37080	0	0	0	29384	27980	166830	26861	1067743	45935	110928	0	0	8059	576888	0	0
2024-08-07 10:02:47			0	37041	0	0	0	29386	27980	166998	26750	1067680	45923	110929	0	0	8056	578447	0	0
2024-08-07 10:03:47			0	37003	0	0	0	29384	27980	167302	26748	1067761	45934	110928	0	0	8054	579969	0	0
2024-08-07 10:04:47			0	37016	0	0	0	29381	27980	167262	26989	1067743	45935	110927	0	0	8055	579448	0	0
2024-08-07 10:05:47			0	37024	0	0	0	29394	27980	167326	26904	1067761	45934	110932	0	0	8055	579128	0	0
2024-08-07 10:06:47			0	37050	0	0	0	29394	27980	167002	26838	1067743	45924	110932	0	0	8057	578087	0	0
2024-08-07 10:07:47			0	37105	0	0	0	29386	27980	166906	26906	1067797	45924	110929	0	0	8060	575890	0	0
2024-08-07 10:08:47			0	37104	0	0	0	29399	27980	166998	26873	1067824	45935	110934	0	0	8060	575930	0	0
2024-08-07 10:09:47			0	37029	0	0	0	29397	27990	167178	27144	1067815	45947	110933	0	0	8056	578894	0	0
2024-08-07 10:10:47			0	37028	0	0	0	29405	27990	167294	26977	1067842	45925	110936	0	0	8055	578934	0	0
2024-08-07 10:11:47			0	37048	0	0	0	29410	27980	167070	27090	1067797	45935	110938	0	0	8056	578167	0	0
2024-08-07 10:12:47			0	37065	0	0	0	29410	27990	167090	26850	1067869	45936	110938	0	0	8057	577454	0	0
2024-08-07 10:13:47			0	37053	0	0	0	29418	28000	167022	26875	1067878	45948	110941	0	0	8057	577901	0	0
2024-08-07 10:14:47			0	37040	0	0	0	29420	27990	167186	26708	1067869	45936	110942	0	0	8056	578454	0	0
2024-08-07 10:15:47			0	37022	0	0	0	29428	28010	167222	26951	1067896	45938	110945	0	0	8055	579108	0	0
2024-08-07 10:16:47			0	37014	0	0	0	29433	28000	167218	27034	1067941	45959	110947	0	0	8054	579462	0	0
2024-08-07 10:17:47			0	37009	0	0	0	29431	28010	167178	26908	1067896	45949	110946	0	0	8054	579628	0	0
2024-08-07 10:18:47			0	36960	0	0	0	29444	28010	167490	27104	1067932	45950	110951	0	0	8051	581594	0	0
2024-08-07 10:19:47			0	36924	0	0	0	29438	28020	167622	26623	1067994	45950	110949	0	0	8049	583007	0	0
2024-08-07 10:20:47			0	36940	0	0	0	29438	28010	167642	26965	1067976	45938	110949	0	0	8050	582397	0	0
2024-08-07 10:21:47			0	36963	0	0	0	29441	28010	167566	26552	1068039	45950	110950	0	0	8051	581473	0	0
2024-08-07 10:22:47			0	36962	0	0	0	29451	28020	167454	26760	1068057	45927	110954	0	0	8051	581480	0	0
2024-08-07 10:23:47			0	36990	0	0	0	29451	28020	167510	26871	1068003	45927	110954	0	0	8053	580357	0	0
2024-08-07 10:24:47			0	37009	0	0	0	29462	28020	167354	26589	1068003	45950	110958	0	0	8053	579595	0	0
2024-08-07 10:25:47			0	37019	0	0	0	29459	28040	167398	26979	1068058	45941	110957	0	0	8054	579128	0	0
2024-08-07 10:26:47			0	37065	0	0	0	29459	28040	167194	27060	1068004	45941	110957	0	0	8057	577288	0	0
2024-08-07 10:27:47			0	37034	0	0	0	29459	28040	167162	27052	1068147	45952	110957	0	0	8055	578527	0	0
2024-08-07 10:28:47			0	37019	0	0	0	29470	28040	167266	27045	1068085	45941	110961	0	0	8054	579128	0	0
2024-08-07 10:29:47			0	37011	0	0	0	29470	28040	167458	27185	1068120	45952	110961	0	0	8054	579448	0	0
2024-08-07 10:30:47			0	36990	0	0	0	29470	28040	167474	27170	1068174	45952	110961	0	0	8052	580290	0	0
2024-08-07 10:31:47			0	36982	0	0	0	29475	28050	167450	27081	1068102	45964	110963	0	0	8052	580577	0	0
2024-08-07 10:32:47			0	37013	0	0	0	29483	28060	167326	26779	1068228	45954	110966	0	0	8054	579301	0	0
2024-08-07 10:33:47			0	37032	0	0	0	29483	28050	167294	27241	1068165	45931	110966	0	0	8055	578574	0	0
2024-08-07 10:34:47			0	37036	0	0	0	29477	28060	167214	27088	1068183	45944	110964	0	0	8055	578381	0	0
2024-08-07 10:35:47			0	37051	0	0	0	29483	28050	167122	26700	1068192	45954	110966	0	0	8056	577814	0	0
2024-08-07 10:36:47			0	37062	0	0	0	29480	28060	167126	26658	1068228	45965	110965	0	0	8056	577341	0	0
2024-08-07 10:37:47			0	37063	0	0	0	29480	28060	167078	26765	1068228	45943	110965	0	0	8056	577301	0	0
2024-08-07 10:38:47			0	37109	0	0	0	29493	28070	166942	27015	1068246	45955	110970	0	0	8059	575432	0	0
2024-08-07 10:39:47			0	37116	0	0	0	29493	28070	166850	26908	1068219	45955	110970	0	0	8059	575153	0	0
2024-08-07 10:40:47			0	37130	0	0	0	29509	28070	166778	26967	1068246	45955	110976	0	0	8060	574595	0	0
2024-08-07 10:41:47			0	37129	0	0	0	29511	28070	166786	27126	1068255	45956	110977	0	0	8060	574635	0	0
2024-08-07 10:42:47			0	37129	0	0	0	29511	28080	166750	27046	1068318	45933	110977	0	0	8060	574602	0	0
2024-08-07 10:43:47			0	37141	0	0	0	29501	28070	166754	27045	1068255	45945	110973	0	0	8061	574157	0	0
2024-08-07 10:44:47			0	37155	0	0	0	29498	28070	166602	27137	1068282	45933	110972	0	0	8062	573600	0	0
2024-08-07 10:45:47			0	37164	0	0	0	29506	28080	166510	26859	1068300	45946	110975	0	0	8062	573209	0	0
2024-08-07 10:46:47			0	37196	0	0	0	29519	28080	166586	26930	1068354	45968	110980	0	0	8064	571938	0	0
2024-08-07 10:47:47			0	37198	0	0	0	29516	28080	166550	26842	1068381	45946	110979	0	0	8064	571858	0	0
2024-08-07 10:48:47			0	37215	0	0	0	29514	28090	166370	27123	1068372	45958	110978	0	0	8065	571151	0	0
2024-08-07 10:49:47			0	37224	0	0	0	29522	28080	166386	26804	1068408	45946	110981	0	0	8065	570827	0	0
2024-08-07 10:50:47			0	37231	0	0	0	29524	28090	166206	26814	1068426	45958	110982	0	0	8066	570516	0	0
2024-08-07 10:51:47			0	37264	0	0	0	29532	28110	166138	26805	1068471	45936	110985	0	0	8068	569143	0	0
2024-08-07 10:52:47			0	37298	0	0	0	29542	28110	166118	27225	1068399	45949	110989	0	0	8069	567799	0	0
2024-08-07 10:53:47			0	37309	0	0	0	29545	28110	165938	26876	1068480	45949	110990	0	0	8070	567364	0	0
2024-08-07 10:54:47			0	37319	0	0	0	29542	28110	165878	26861	1068480	45949	110989	0	0	8071	566970	0	0
2024-08-07 10:55:47			0	37348	0	0	0	29550	28120	165767	26989	1068569	45959	110992	0	0	8072	565793	0	0
2024-08-07 10:56:47			0	37370	0	0	0	29561	28120	165623	27055	1068569	45949	110996	0	0	8073	564926	0	0
2024-08-07 10:57:47			0	37377	0	0	0	29566	28140	165611	26706	1068605	45961	110998	0	0	8074	564585	0	0
2024-08-07 10:58:47			0	37398	0	0	0	29563	28130	165539	27249	1068596	45951	110997	0	0	8075	563792	0	0
2024-08-07 10:59:47			0	37396	0	0	0	29576	28130	165591	27157	1068596	45961	111002	0	0	8075	563870	0	0
2024-08-07 11:00:47			0	37397	0	0	0	29579	28140	165575	27185	1068605	45951	111003	0	0	8075	563798	0	0
2024-08-07 11:01:47			0	37405	0	0	0	29584	28140	165483	27048	1068641	45962	111005	0	0	8075	563484	0	0
2024-08-07 11:02:47			0	37435	0	0	0	29581	28150	165479	26772	1068677	45974	111004	0	0	8077	562273	0	0
2024-08-07 11:03:47			0	37433	0	0	0	29589	28150	165347	27305	1068794	45963	111007	0	0	8077	562351	0	0
2024-08-07 11:04:47			0	37447	0	0	0	29594	28160	165295	27055	1068830	45963	111009	0	0	8077	561769	0	0
2024-08-07 11:05:47			0	37447	0	0	0	29610	28160	165283	26873	1068839	45976	111015	0	0	8077	561769	0	0
2024-08-07 11:06:47			0	37445	0	0	0	29623	28170	165311	27170	1068911	45977	111020	0	0	8077	561815	0	0
2024-08-07 11:07:47			0	37461	0	0	0	29644	28190	165283	26915	1068884	45978	111028	0	0	8078	561123	0	0
2024-08-07 11:08:47			0	37473	0	0	0	29649	28190	165131	26975	1068965	45978	111030	0	0	8078	560653	0	0
2024-08-07 11:09:47			0	37481	0	0	0	29664	28200	165099	27180	1069037	45991	111036	0	0	8078	560307	0	0
2024-08-07 11:10:47			0	37505	0	0	0	29675	28220	164979	27211	1069100	45970	111040	0	0	8080	559303	0	0
2024-08-07 11:11:47			0	37507	0	0	0	29675	28220	164991	26930	1069082	45948	111040	0	0	8080	559225	0	0
2024-08-07 11:12:47			0	37516	0	0	0	29685	28230	164855	27017	1069225	45960	111044	0	0	8080	558841	0	0
2024-08-07 11:13:47			0	37520	0	0	0	29688	28240	164879	26963	1069163	45972	111045	0	0	8080	558652	0	0
2024-08-07 11:14:47			0	37554	0	0	0	29696	28250	164863	26844	1069207	45962	111048	0	0	8082	557292	0	0
2024-08-07 11:15:47			0	37551	0	0	0	29703	28250	164795	27083	1069181	45973	111051	0	0	8082	557409	0	0
2024-08-07 11:16:47			0	37531	0	0	0	29706	28250	164787	27171	1069234	45973	111052	0	0	8081	558190	0	0
2024-08-07 11:17:47			0	37563	0	0	0	29706	28260	164747	26765	1069207	45964	111052	0	0	8083	556909	0	0
2024-08-07 11:18:47			0	37583	0	0	0	29711	28260	164643	27067	1069279	45974	111054	0	0	8084	556129	0	0
2024-08-07 11:19:47			0	37609	0	0	0	29714	28270	164563	27293	1069325	45975	111055	0	0	8085	555084	0	0
2024-08-07 11:20:47			0	37623	0	0	0	29724	28270	164403	26741	1069378	45986	111059	0	0	8086	554540	0	0
2024-08-07 11:21:47			0	37657	0	0	0	29724	28280	164115	27225	1069424	45999	111059	0	0	8088	553186	0	0
2024-08-07 11:22:47			0	37679	0	0	0	29732	28290	164095	27095	1069397	45978	111062	0	0	8089	552300	0	0
2024-08-07 11:23:47			0	37694	0	0	0	29745	28300	163895	27020	1069496	45968	111067	0	0	8090	551687	0	0
2024-08-07 11:24:47			0	37705	0	0	0	29750	28310	163939	26736	1069559	45980	111069	0	0	8090	551229	0	0
2024-08-07 11:25:47			0	37715	0	0	0	29763	28310	163863	26849	1069559	45991	111074	0	0	8091	550841	0	0
2024-08-07 11:26:47			0	37720	0	0	0	29758	28320	163895	27185	1069576	45969	111072	0	0	8091	550616	0	0
2024-08-07 11:27:47			0	37701	0	0	0	29771	28320	163923	27012	1069612	45981	111077	0	0	8090	551352	0	0
2024-08-07 11:28:47			0	37712	0	0	0	29771	28320	163891	26944	1069666	45981	111077	0	0	8091	550926	0	0
2024-08-07 11:29:47			0	37709	0	0	0	29776	28330	163839	27039	1069630	45993	111079	0	0	8090	551010	0	0
2024-08-07 11:30:47			0	37720	0	0	0	29781	28340	163871	27001	1069693	45982	111081	0	0	8091	550552	0	0
2024-08-07 11:31:47			0	37711	0	0	0	29784	28330	163811	26779	1069738	45971	111082	0	0	8090	550933	0	0
2024-08-07 11:32:47			0	37708	0	0	0	29789	28340	163783	26703	1069756	45972	111084	0	0	8090	551017	0	0
2024-08-07 11:33:47			0	37711	0	0	0	29797	28350	163851	26821	1069765	45995	111087	0	0	8090	550869	0	0
2024-08-07 11:34:47			0	37729	0	0	0	29802	28360	163743	26722	1069810	45995	111089	0	0	8091	550140	0	0
2024-08-07 11:35:47			0	37752	0	0	0	29802	28350	163659	26745	1069801	45984	111089	0	0	8092	549283	0	0
2024-08-07 11:36:47			0	37744	0	0	0	29807	28360	163623	27112	1069900	45985	111091	0	0	8092	549560	0	0
2024-08-07 11:37:47			0	37773	0	0	0	29810	28380	163659	27140	1069873	45975	111092	0	0	8094	548376	0	0
2024-08-07 11:38:47			0	37783	0	0	0	29805	28370	163735	26915	1069837	45987	111090	0	0	8094	548022	0	0
2024-08-07 11:39:47			0	37780	0	0	0	29799	28370	163607	27095	1069936	45974	111088	0	0	8094	548138	0	0
2024-08-07 11:40:47			0	37793	0	0	0	29812	28380	163535	27000	1069909	45975	111093	0	0	8095	547605	0	0
2024-08-07 11:41:47			0	37812	0	0	0	29823	28400	163415	26748	1069981	45989	111097	0	0	8096	546809	0	0
2024-08-07 11:42:47			0	37822	0	0	0	29818	28380	163367	26901	1070017	45975	111095	0	0	8096	546487	0	0
2024-08-07 11:43:47			0	37845	0	0	0	29823	28390	163251	27156	1069972	45988	111097	0	0	8098	545569	0	0
2024-08-07 11:44:47			0	37869	0	0	0	29833	28400	163095	26797	1070008	45989	111101	0	0	8099	544615	0	0
2024-08-07 11:45:47			0	37882	0	0	0	29836	28400	163111	26790	1070017	45989	111102	0	0	8100	544115	0	0
2024-08-07 11:46:47			0	37902	0	0	0	29841	28400	163039	26785	1070017	45989	111104	0	0	8101	543347	0	0
2024-08-07 11:47:47			0	37909	0	0	0	29844	28400	163047	27041	1070044	46000	111105	0	0	8101	543079	0	0
2024-08-07 11:48:47			0	37900	0	0	0	29846	28410	163027	27194	1070107	45989	111106	0	0	8101	543393	0	0
2024-08-07 11:49:47			0	37921	0	0	0	29854	28410	162991	27076	1070143	45978	111109	0	0	8102	542587	0	0
2024-08-07 11:50:47			0	37926	0	0	0	29851	28410	162963	26819	1070143	45978	111108	0	0	8102	542395	0	0
2024-08-07 11:51:47			0	37932	0	0	0	29854	28430	162855	27029	1070116	45991	111109	0	0	8102	542103	0	0
2024-08-07 11:52:47			0	37958	0	0	0	29862	28430	162863	27100	1070170	46001	111112	0	0	8104	541107	0	0
2024-08-07 11:53:47			0	37970	0	0	0	29864	28440	162791	27138	1070215	45981	111113	0	0	8104	540616	0	0
2024-08-07 11:54:47			0	37974	0	0	0	29867	28440	162631	26774	1070269	45981	111114	0	0	8105	540463	0	0
2024-08-07 11:55:47			0	37994	0	0	0	29880	28440	162575	26946	1070197	46004	111119	0	0	8106	539699	0	0
2024-08-07 11:56:47			0	38005	0	0	0	29877	28450	162519	26984	1070323	45994	111118	0	0	8106	539247	0	0
2024-08-07 11:57:47			0	38048	0	0	0	29888	28450	162536	27017	1070377	45994	111122	0	0	8109	537607	0	0
2024-08-07 11:58:47			0	38032	0	0	0	29903	28470	162488	27130	1070431	45996	111128	0	0	8107	538154	0	0
2024-08-07 11:59:47			0	38045	0	0	0	29911	28470	162396	27281	1070457	45984	111131	0	0	8108	537659	0	0
2024-08-07 12:00:47			0	38037	0	0	0	29924	28480	162232	26909	1070529	46007	111136	0	0	8107	537933	0	0
2024-08-07 12:01:47			0	38075	0	0	0	29940	28490	162364	26930	1070547	46008	111142	0	0	8109	536454	0	0
2024-08-07 12:02:47			0	38085	0	0	0	29948	28490	162244	26816	1070655	45998	111145	0	0	8110	536073	0	0
2024-08-07 12:03:47			0	38104	0	0	0	29968	28510	162172	26996	1070781	46011	111153	0	0	8111	535289	0	0
2024-08-07 12:04:47			0	38091	0	0	0	29981	28520	162168	27052	1070709	46011	111158	0	0	8110	535752	0	0
2024-08-07 12:05:47			0	38100	0	0	0	29981	28530	162188	26826	1070808	46002	111158	0	0	8110	535379	0	0
2024-08-07 12:06:47			0	38126	0	0	0	29994	28530	162144	27208	1070889	46002	111163	0	0	8112	534391	0	0
2024-08-07 12:07:47			0	38122	0	0	0	30002	28540	161984	27213	1070880	45991	111166	0	0	8111	534512	0	0
2024-08-07 12:08:47			0	38147	0	0	0	29997	28550	161880	27098	1070979	45993	111164	0	0	8113	533532	0	0
2024-08-07 12:09:47			0	38164	0	0	0	30015	28550	161840	27213	1070934	45993	111171	0	0	8113	532888	0	0
2024-08-07 12:10:47			0	38174	0	0	0	30012	28560	161872	26679	1071033	46016	111170	0	0	8114	532478	0	0
2024-08-07 12:11:47			0	38203	0	0	0	30007	28560	161844	26930	1070943	45982	111168	0	0	8116	531380	0	0
2024-08-07 12:12:47			0	38200	0	0	0	30012	28570	161600	26986	1070988	45995	111170	0	0	8116	531463	0	0
2024-08-07 12:13:47			0	38210	0	0	0	30012	28560	161564	27124	1070925	45983	111170	0	0	8116	531115	0	0
2024-08-07 12:14:47			0	38211	0	0	0	30015	28560	161612	27008	1070898	45983	111171	0	0	8116	531078	0	0
2024-08-07 12:15:47			0	38214	0	0	0	30012	28570	161512	27116	1071051	45995	111170	0	0	8116	530933	0	0
2024-08-07 12:16:47			0	38229	0	0	0	30018	28580	161484	26968	1071033	46007	111172	0	0	8117	530336	0	0
2024-08-07 12:17:47			0	38214	0	0	0	30015	28570	161580	26769	1071024	46006	111171	0	0	8116	530933	0	0
2024-08-07 12:18:47			0	38227	0	0	0	30028	28590	161484	27097	1071078	46008	111176	0	0	8117	530380	0	0
2024-08-07 12:19:47			0	38189	0	0	0	30036	28580	161536	27003	1071096	46007	111179	0	0	8115	531848	0	0
2024-08-07 12:20:47			0	38221	0	0	0	30036	28580	161468	27045	1071123	46007	111179	0	0	8117	530638	0	0
2024-08-07 12:21:47			0	38207	0	0	0	30044	28600	161452	27043	1071204	46009	111182	0	0	8116	531106	0	0
2024-08-07 12:22:47			0	38198	0	0	0	30054	28600	161464	26783	1071177	46020	111186	0	0	8115	531446	0	0
2024-08-07 12:23:47			0	38235	0	0	0	30064	28620	161392	27064	1071321	46022	111190	0	0	8117	529986	0	0
2024-08-07 12:24:47			0	38237	0	0	0	30072	28630	161420	26863	1071348	46012	111193	0	0	8117	529880	0	0
2024-08-07 12:25:47			0	38238	0	0	0	30075	28640	161352	27033	1071411	46012	111194	0	0	8117	529812	0	0
2024-08-07 12:26:47			0	38235	0	0	0	30093	28640	161392	26849	1071420	46002	111201	0	0	8117	529925	0	0
2024-08-07 12:27:47			0	38258	0	0	0	30093	28640	161356	26996	1071474	46002	111201	0	0	8118	529057	0	0
2024-08-07 12:28:47			0	38263	0	0	0	30096	28650	161404	26878	1071429	46013	111202	0	0	8118	528837	0	0
2024-08-07 12:29:47			0	38278	0	0	0	30090	28650	161412	27097	1071402	46025	111200	0	0	8119	528272	0	0
2024-08-07 12:30:47			0	38267	0	0	0	30088	28650	161296	27036	1071429	46002	111199	0	0	8119	528687	0	0
2024-08-07 12:31:47			0	38279	0	0	0	30077	28650	161284	27145	1071375	45980	111195	0	0	8119	528234	0	0
2024-08-07 12:32:47			0	38287	0	0	0	30067	28640	161216	27260	1071249	45991	111191	0	0	8120	527963	0	0
2024-08-07 12:33:47			0	38306	0	0	0	30057	28640	161196	27183	1071258	45969	111187	0	0	8121	527248	0	0
2024-08-07 12:34:47			0	38321	0	0	0	30038	28640	161240	27026	1071231	45958	111180	0	0	8123	526683	0	0
2024-08-07 12:35:47			0	38312	0	0	0	30031	28630	161164	27046	1071240	45991	111177	0	0	8122	527052	0	0
2024-08-07 12:36:47			0	38328	0	0	0	30031	28620	161232	27057	1071141	45989	111177	0	0	8123	526481	0	0
2024-08-07 12:37:47			0	38324	0	0	0	30025	28620	161060	26870	1071105	45989	111175	0	0	8123	526631	0	0
2024-08-07 12:38:47			0	38338	0	0	0	30018	28610	161204	26842	1071087	45999	111172	0	0	8124	526135	0	0
2024-08-07 12:39:47			0	38360	0	0	0	30023	28620	160976	26911	1071159	46000	111174	0	0	8125	525278	0	0
2024-08-07 12:40:47			0	38375	0	0	0	30012	28620	160900	26899	1071159	45989	111170	0	0	8126	524715	0	0
2024-08-07 12:41:47			0	38381	0	0	0	30023	28610	160940	27078	1071141	45999	111174	0	0	8126	524520	0	0
2024-08-07 12:42:47			0	38365	0	0	0	30028	28610	160884	27213	1071204	46000	111176	0	0	8125	525121	0	0
2024-08-07 12:43:47			0	38399	0	0	0	30044	28630	160872	26970	1071294	46024	111182	0	0	8127	523784	0	0
2024-08-07 12:44:47			0	38412	0	0	0	30059	28630	160880	26821	1071321	46012	111188	0	0	8127	523297	0	0
2024-08-07 12:45:47			0	38420	0	0	0	30064	28640	160852	26928	1071420	46025	111190	0	0	8128	522967	0	0
2024-08-07 12:46:47			0	38420	0	0	0	30064	28630	160696	26963	1071321	46012	111190	0	0	8128	522997	0	0
2024-08-07 12:47:47			0	38419	0	0	0	30046	28640	160708	26840	1071312	46025	111183	0	0	8128	523005	0	0
2024-08-07 12:48:47			0	38418	0	0	0	30044	28630	160768	26951	1071240	45991	111182	0	0	8128	523072	0	0
2024-08-07 12:49:47			0	38445	0	0	0	30025	28640	160692	27010	1071204	45980	111175	0	0	8130	522031	0	0
2024-08-07 12:50:47			0	38449	0	0	0	30012	28610	160636	26816	1071177	45989	111170	0	0	8130	521972	0	0
2024-08-07 12:51:47			0	38481	0	0	0	29999	28620	160584	27031	1071114	45989	111165	0	0	8132	520746	0	0
2024-08-07 12:52:47			0	38527	0	0	0	30007	28620	160360	27239	1071132	46000	111168	0	0	8135	519029	0	0
2024-08-07 12:53:47			0	38529	0	0	0	29997	28610	160316	27163	1071069	46000	111164	0	0	8135	518984	0	0
2024-08-07 12:54:47			0	38538	0	0	0	29992	28600	160252	26975	1071051	45975	111162	0	0	8135	518679	0	0
2024-08-07 12:55:47			0	38558	0	0	0	29989	28590	160172	26861	1071033	45998	111161	0	0	8137	517964	0	0
2024-08-07 12:56:47			0	38540	0	0	0	29981	28590	160244	26899	1070997	45986	111158	0	0	8136	518634	0	0
2024-08-07 12:57:47			0	38530	0	0	0	29992	28590	160272	27076	1070979	45998	111162	0	0	8135	519007	0	0
2024-08-07 12:58:47			0	38538	0	0	0	29979	28590	160304	27048	1070970	45997	111157	0	0	8136	518709	0	0
2024-08-07 12:59:47			0	38543	0	0	0	29984	28580	160340	27159	1071015	46007	111159	0	0	8136	518553	0	0
2024-08-07 13:00:47			0	38525	0	0	0	29986	28580	160472	26831	1070961	45973	111160	0	0	8135	519224	0	0
2024-08-07 13:01:47			0	38525	0	0	0	29968	28580	160376	27066	1070934	45996	111153	0	0	8135	519224	0	0
2024-08-07 13:02:47			0	38518	0	0	0	29963	28580	160324	26795	1070925	45985	111151	0	0	8135	519485	0	0
2024-08-07 13:03:47			0	38526	0	0	0	29961	28580	160392	26854	1070898	46007	111150	0	0	8135	519186	0	0
2024-08-07 13:04:47			0	38532	0	0	0	29963	28560	160308	26960	1070871	45994	111151	0	0	8135	519023	0	0
2024-08-07 13:05:47			0	38534	0	0	0	29968	28570	160336	26892	1070970	45995	111153	0	0	8136	518918	0	0
2024-08-07 13:06:47			0	38544	0	0	0	29989	28570	160224	26812	1070970	46006	111161	0	0	8136	518545	0	0
2024-08-07 13:07:47			0	38544	0	0	0	29984	28580	160296	26965	1071006	45996	111159	0	0	8136	518515	0	0
2024-08-07 13:08:47			0	38550	0	0	0	29992	28590	160180	26958	1071078	46008	111162	0	0	8136	518262	0	0
2024-08-07 13:09:47			0	38558	0	0	0	30002	28580	160228	26850	1071096	46007	111166	0	0	8136	517994	0	0
2024-08-07 13:10:47			0	38581	0	0	0	30002	28580	160096	27067	1071096	46007	111166	0	0	8138	517138	0	0
2024-08-07 13:11:47			0	38577	0	0	0	30002	28590	160124	26958	1071114	46009	111166	0	0	8137	517257	0	0
2024-08-07 13:12:47			0	38565	0	0	0	29999	28590	160176	26804	1071024	45997	111165	0	0	8137	517703	0	0
2024-08-07 13:13:47			0	38554	0	0	0	29986	28580	160144	26913	1071006	45996	111160	0	0	8136	518143	0	0
2024-08-07 13:14:47			0	38560	0	0	0	29999	28590	160128	26974	1071078	46008	111165	0	0	8137	517889	0	0
2024-08-07 13:15:47			0	38564	0	0	0	30002	28580	160192	27216	1071087	45985	111166	0	0	8137	517770	0	0
2024-08-07 13:16:47			0	38564	0	0	0	29999	28600	160204	27239	1071096	46009	111165	0	0	8137	517710	0	0
2024-08-07 13:17:47			0	38598	0	0	0	29994	28590	160096	27277	1071051	45986	111163	0	0	8139	516476	0	0
2024-08-07 13:18:47			0	38587	0	0	0	29999	28590	160004	27012	1071051	45997	111165	0	0	8138	516884	0	0
2024-08-07 13:19:47			0	38597	0	0	0	29994	28590	160032	26968	1071078	45997	111163	0	0	8139	516513	0	0
2024-08-07 13:20:47			0	38608	0	0	0	29997	28590	159876	27029	1071114	46009	111164	0	0	8139	516104	0	0
2024-08-07 13:21:47			0	38616	0	0	0	30005	28590	159872	26831	1071078	46008	111167	0	0	8140	515807	0	0
2024-08-07 13:22:47			0	38657	0	0	0	30005	28590	159656	27159	1071186	46008	111167	0	0	8142	514285	0	0
2024-08-07 13:23:47			0	38689	0	0	0	30012	28600	159512	27170	1071105	46009	111170	0	0	8144	513070	0	0
2024-08-07 13:24:47			0	38708	0	0	0	30015	28610	159600	26961	1071123	46000	111171	0	0	8145	512337	0	0
2024-08-07 13:25:47			0	38701	0	0	0	30028	28610	159488	26871	1071204	46000	111176	0	0	8144	512596	0	0
2024-08-07 13:26:47			0	38718	0	0	0	30038	28620	159488	27064	1071294	46011	111180	0	0	8145	511937	0	0
2024-08-07 13:27:47			0	38721	0	0	0	30059	28610	159436	27336	1071312	46022	111188	0	0	8145	511856	0	0
2024-08-07 13:28:47			0	38732	0	0	0	30051	28630	159461	26994	1071348	46012	111185	0	0	8146	511390	0	0
2024-08-07 13:29:47			0	38727	0	0	0	30054	28640	159348	27126	1071276	46024	111186	0	0	8145	511545	0	0
2024-08-07 13:30:47			0	38730	0	0	0	30036	28620	159464	27066	1071276	46000	111179	0	0	8146	511494	0	0
2024-08-07 13:31:47			0	38725	0	0	0	30046	28640	159473	26831	1071357	46001	111183	0	0	8145	511619	0	0
2024-08-07 13:32:47			0	38715	0	0	0	30090	28660	159480	27142	1071636	46037	111200	0	0	8144	511930	0	0
2024-08-07 13:33:47			0	38710	0	0	0	30166	28680	159492	26715	1071879	46050	111229	0	0	8143	512055	0	0
2024-08-07 13:34:47			0	38703	0	0	0	30215	28720	159528	27086	1072085	46076	111248	0	0	8142	512196	0	0
2024-08-07 13:35:47			0	38687	0	0	0	30215	28730	159544	27078	1072085	46056	111248	0	0	8141	512758	0	0
2024-08-07 13:36:47			0	38671	0	0	0	30181	28750	159548	27036	1071960	46024	111235	0	0	8141	513290	0	0
2024-08-07 13:37:47			0	38654	0	0	0	30145	28740	159540	26847	1071807	46001	111221	0	0	8140	513950	0	0
2024-08-07 13:38:47			0	38666	0	0	0	30111	28740	159552	27177	1071798	46011	111208	0	0	8141	513505	0	0
2024-08-07 13:39:47			0	38650	0	0	0	30124	28740	159548	26890	1071852	46011	111213	0	0	8140	514098	0	0
2024-08-07 13:40:47			0	38685	0	0	0	30114	28750	159472	26897	1071924	46001	111209	0	0	8142	512772	0	0
2024-08-07 13:41:47			0	38711	0	0	0	30109	28750	159388	26857	1071960	46013	111207	0	0	8144	511811	0	0
2024-08-07 13:42:47			0	38750	0	0	0	30127	28760	159381	26793	1071942	46025	111214	0	0	8146	510341	0	0
2024-08-07 13:43:47			0	38738	0	0	0	30150	28770	159253	27060	1072041	46025	111223	0	0	8145	510754	0	0
2024-08-07 13:44:47			0	38762	0	0	0	30150	28770	159265	26996	1072050	46004	111223	0	0	8146	509869	0	0
2024-08-07 13:45:47			0	38734	0	0	0	30158	28790	159353	27208	1072077	46005	111226	0	0	8145	510843	0	0
2024-08-07 13:46:47			0	38704	0	0	0	30158	28780	159444	27317	1072113	46004	111226	0	0	8143	511981	0	0
2024-08-07 13:47:47			0	38680	0	0	0	30155	28780	159420	26932	1072068	46004	111225	0	0	8142	512868	0	0
2024-08-07 13:48:47			0	38673	0	0	0	30161	28770	159612	27138	1072050	45993	111227	0	0	8141	513157	0	0
2024-08-07 13:49:47			0	38662	0	0	0	30150	28780	159644	27048	1072059	46004	111223	0	0	8141	513534	0	0
2024-08-07 13:50:47			0	38640	0	0	0	30161	28780	159700	26897	1072032	46004	111227	0	0	8139	514349	0	0
2024-08-07 13:51:47			0	38623	0	0	0	30179	28780	159764	27005	1072068	46016	111234	0	0	8138	514980	0	0
2024-08-07 13:52:47			0	38614	0	0	0	30192	28790	159884	26942	1072194	46017	111239	0	0	8137	515284	0	0
2024-08-07 13:53:47			0	38590	0	0	0	30199	28790	159904	26894	1072248	46017	111242	0	0	8136	516175	0	0
2024-08-07 13:54:47			0	38592	0	0	0	30205	28810	159864	27019	1072230	46030	111244	0	0	8136	516041	0	0
2024-08-07 13:55:47			0	38592	0	0	0	30210	28810	159884	27237	1072275	46041	111246	0	0	8136	516041	0	0
2024-08-07 13:56:47			0	38576	0	0	0	30207	28800	159892	27026	1072212	46018	111245	0	0	8135	516665	0	0
2024-08-07 13:57:47			0	38574	0	0	0	30202	28820	159816	27211	1072239	46008	111243	0	0	8135	516679	0	0
2024-08-07 13:58:47			0	38578	0	0	0	30210	28820	159936	27509	1072248	45999	111246	0	0	8135	516531	0	0
2024-08-07 13:59:47			0	38569	0	0	0	30194	28810	160036	27007	1072257	46007	111240	0	0	8135	516895	0	0
2024-08-07 14:00:47			0	38570	0	0	0	30194	28810	160036	27020	1072257	46019	111240	0	0	8135	516858	0	0
2024-08-07 14:01:47			0	38542	0	0	0	30186	28810	160016	26800	1072230	46007	111237	0	0	8133	517900	0	0
2024-08-07 14:02:47			0	38550	0	0	0	30199	28830	160128	26759	1072338	46032	111242	0	0	8134	517542	0	0
2024-08-07 14:03:47			0	38555	0	0	0	30238	28830	160060	27066	1072428	46054	111257	0	0	8133	517356	0	0
2024-08-07 14:04:47			0	38543	0	0	0	30238	28850	160032	27012	1072563	46045	111257	0	0	8133	517742	0	0
2024-08-07 14:05:47			0	38525	0	0	0	30244	28860	160068	27022	1072590	46025	111259	0	0	8132	518382	0	0
2024-08-07 14:06:47			0	38525	0	0	0	30249	28870	160080	26987	1072653	46036	111261	0	0	8132	518352	0	0
2024-08-07 14:07:47			0	38516	0	0	0	30238	28890	160072	26755	1072608	46028	111257	0	0	8131	518627	0	0
2024-08-07 14:08:47			0	38519	0	0	0	30236	28890	160180	27118	1072608	46028	111256	0	0	8132	518516	0	0
2024-08-07 14:09:47			0	38505	0	0	0	30225	28880	160072	26870	1072509	46014	111252	0	0	8131	519067	0	0
2024-08-07 14:10:47			0	38490	0	0	0	30207	28870	160152	26850	1072446	45993	111245	0	0	8130	519656	0	0
2024-08-07 14:11:47			0	38508	0	0	0	30205	28870	160104	26972	1072365	45993	111244	0	0	8131	518985	0	0
2024-08-07 14:12:47			0	38532	0	0	0	30210	28860	160136	27147	1072365	46001	111246	0	0	8133	518122	0	0
2024-08-07 14:13:47			0	38535	0	0	0	30210	28850	160032	27112	1072383	45978	111246	0	0	8133	518040	0	0
2024-08-07 14:14:47			0	38538	0	0	0	30199	28850	160024	27039	1072266	45990	111242	0	0	8133	517928	0	0
2024-08-07 14:15:47			0	38535	0	0	0	30181	28840	160036	27211	1072203	45990	111235	0	0	8133	518070	0	0
2024-08-07 14:16:47			0	38550	0	0	0	30174	28840	159992	27255	1072176	45990	111232	0	0	8134	517512	0	0
2024-08-07 14:17:47			0	38559	0	0	0	30184	28830	159996	26693	1072212	46009	111236	0	0	8134	517207	0	0
2024-08-07 14:18:47			0	38558	0	0	0	30186	28820	159872	27022	1072275	46009	111237	0	0	8134	517274	0	0
2024-08-07 14:19:47			0	38570	0	0	0	30184	28830	159876	27005	1072320	46009	111236	0	0	8135	516798	0	0
2024-08-07 14:20:47			0	38581	0	0	0	30186	28840	159832	27185	1072356	46010	111237	0	0	8136	516359	0	0
2024-08-07 14:21:47			0	38598	0	0	0	30168	28830	159800	27090	1072284	45999	111230	0	0	8137	515758	0	0
2024-08-07 14:22:47			0	38599	0	0	0	30179	28830	159748	26791	1072257	46009	111234	0	0	8137	515721	0	0
2024-08-07 14:23:47			0	38593	0	0	0	30181	28840	159812	27000	1072329	46022	111235	0	0	8137	515914	0	0
2024-08-07 14:24:47			0	38610	0	0	0	30215	28840	159624	27079	1072473	46034	111248	0	0	8137	515283	0	0
2024-08-07 14:25:47			0	38606	0	0	0	30218	28840	159676	27234	1072473	46023	111249	0	0	8137	515431	0	0
2024-08-07 14:26:47			0	38611	0	0	0	30231	28850	159696	27069	1072482	46034	111254	0	0	8137	515216	0	0
2024-08-07 14:27:47			0	38600	0	0	0	30220	28860	159756	26896	1072482	46025	111250	0	0	8136	515594	0	0
2024-08-07 14:28:47			0	38623	0	0	0	30223	28870	159752	26892	1072518	46013	111251	0	0	8138	514711	0	0
2024-08-07 14:29:47			0	38626	0	0	0	30228	28860	159744	27104	1072536	46025	111253	0	0	8138	514630	0	0
2024-08-07 14:30:47			0	38619	0	0	0	30244	28860	159688	27102	1072617	46036	111259	0	0	8137	514889	0	0
2024-08-07 14:31:47			0	38623	0	0	0	30246	28880	159744	26897	1072590	46003	111260	0	0	8137	514681	0	0
2024-08-07 14:32:47			0	38629	0	0	0	30244	28870	159676	27156	1072608	46037	111259	0	0	8138	514489	0	0
2024-08-07 14:33:47			0	38630	0	0	0	30257	28880	159676	26968	1072536	46014	111264	0	0	8138	514422	0	0
2024-08-07 14:34:47			0	38643	0	0	0	30249	28870	159652	27126	1072491	46025	111261	0	0	8138	513970	0	0
2024-08-07 14:35:47			0	38644	0	0	0	30259	28880	159632	27092	1072563	46003	111265	0	0	8138	513903	0	0
2024-08-07 14:36:47			0	38661	0	0	0	30262	28880	159652	27081	1072563	46014	111266	0	0	8139	513274	0	0
2024-08-07 14:37:47			0	38662	0	0	0	30272	28870	159632	27145	1072581	46014	111270	0	0	8139	513267	0	0
2024-08-07 14:38:47			0	38664	0	0	0	30275	28870	159576	26968	1072653	45992	111271	0	0	8139	513192	0	0
2024-08-07 14:39:47			0	38673	0	0	0	30275	28880	159548	27183	1072698	46026	111271	0	0	8140	512830	0	0
2024-08-07 14:40:47			0	38660	0	0	0	30296	28880	159516	26984	1072761	46049	111279	0	0	8139	513311	0	0
2024-08-07 14:41:47			0	38667	0	0	0	30314	28890	159476	26932	1072860	46039	111286	0	0	8139	513022	0	0
2024-08-07 14:42:47			0	38661	0	0	0	30335	28910	159376	26856	1072887	46030	111294	0	0	8138	513185	0	0
2024-08-07 14:43:47			0	38698	0	0	0	30337	28910	159388	26948	1072923	46030	111295	0	0	8140	511816	0	0
2024-08-07 14:44:47			0	38687	0	0	0	30348	28920	159340	26925	1072986	46052	111299	0	0	8139	512193	0	0
2024-08-07 14:45:47			0	38696	0	0	0	30363	28930	159308	26930	1073031	46042	111305	0	0	8140	511831	0	0
2024-08-07 14:46:47			0	38703	0	0	0	30376	28930	159348	26859	1073094	46032	111310	0	0	8140	511572	0	0
2024-08-07 14:47:47			0	38712	0	0	0	30389	28960	159240	26752	1073139	46023	111315	0	0	8140	511151	0	0
2024-08-07 14:48:47			0	38711	0	0	0	30386	28960	159204	26795	1073058	46057	111314	0	0	8140	511188	0	0
2024-08-07 14:49:47			0	38721	0	0	0	30405	28980	159236	26694	1073220	46014	111321	0	0	8141	510760	0	0
2024-08-07 14:50:47			0	38718	0	0	0	30412	28980	159208	26927	1073220	46037	111324	0	0	8140	510870	0	0
2024-08-07 14:51:47			0	38736	0	0	0	30412	28980	159061	27055	1073202	46047	111324	0	0	8141	510207	0	0
2024-08-07 14:52:47			0	38746	0	0	0	30425	28990	159081	26852	1073301	46048	111329	0	0	8142	509808	0	0
2024-08-07 14:53:47			0	38759	0	0	0	30438	29000	159081	26880	1073337	46039	111334	0	0	8142	509300	0	0
2024-08-07 14:54:47			0	38786	0	0	0	30446	29010	158961	26925	1073364	46040	111337	0	0	8144	508277	0	0
2024-08-07 14:55:47			0	38810	0	0	0	30446	29000	158961	26660	1073373	46039	111337	0	0	8145	507424	0	0
2024-08-07 14:56:47			0	38820	0	0	0	30454	29010	158781	27001	1073445	46040	111340	0	0	8146	507027	0	0
2024-08-07 14:57:47			0	38806	0	0	0	30436	29020	158869	27053	1073436	46052	111333	0	0	8145	507512	0	0
2024-08-07 14:58:47			0	38826	0	0	0	30438	29020	158793	27064	1073382	46052	111334	0	0	8146	506777	0	0
2024-08-07 14:59:47			0	38823	0	0	0	30459	29030	158797	27029	1073446	46041	111342	0	0	8146	506858	0	0
2024-08-07 15:00:47			0	38827	0	0	0	30470	29030	158765	26970	1073563	46030	111346	0	0	8146	506711	0	0
2024-08-07 15:01:47			0	38792	0	0	0	30490	29040	158797	27159	1073581	46065	111354	0	0	8144	507968	0	0
2024-08-07 15:02:47			0	38794	0	0	0	30503	29060	158805	26908	1073662	46044	111359	0	0	8144	507835	0	0
2024-08-07 15:03:47			0	38770	0	0	0	30506	29070	158905	27055	1073707	46045	111360	0	0	8142	508688	0	0
2024-08-07 15:04:47			0	38755	0	0	0	30516	29060	158993	27059	1073662	46044	111364	0	0	8141	509270	0	0
2024-08-07 15:05:47			0	38738	0	0	0	30509	29070	159025	26837	1073716	46045	111361	0	0	8140	509867	0	0
2024-08-07 15:06:47			0	38741	0	0	0	30498	29080	158965	26967	1073806	46057	111357	0	0	8141	509726	0	0
2024-08-07 15:07:47			0	38726	0	0	0	30501	29090	158997	27192	1073770	46048	111358	0	0	8140	510249	0	0
2024-08-07 15:08:47			0	38734	0	0	0	30522	29090	159065	26915	1073824	46059	111366	0	0	8140	509955	0	0
2024-08-07 15:09:47			0	38736	0	0	0	30532	29080	159041	26878	1073842	46058	111370	0	0	8140	509911	0	0
2024-08-07 15:10:47			0	38718	0	0	0	30532	29100	159036	26991	1073932	46049	111370	0	0	8139	510515	0	0
2024-08-07 15:11:47			0	38711	0	0	0	30537	29100	159088	26951	1073878	46060	111372	0	0	8138	510773	0	0
2024-08-07 15:12:47			0	38719	0	0	0	30535	29110	158936	26733	1073914	46050	111371	0	0	8139	510448	0	0
2024-08-07 15:13:47			0	38716	0	0	0	30535	29110	159016	26913	1073914	46061	111371	0	0	8139	510559	0	0
2024-08-07 15:14:47			0	38730	0	0	0	30535	29110	159081	27067	1073923	46061	111371	0	0	8140	510043	0	0
2024-08-07 15:15:47			0	38708	0	0	0	30535	29110	159076	27194	1073896	46061	111371	0	0	8138	510854	0	0
2024-08-07 15:16:47			0	38715	0	0	0	30550	29120	159036	27183	1073959	46061	111377	0	0	8139	510566	0	0
2024-08-07 15:17:47			0	38709	0	0	0	30558	29130	158940	26953	1074013	46051	111380	0	0	8138	510758	0	0
2024-08-07 15:18:47			0	38699	0	0	0	30561	29150	159012	26857	1074094	46065	111381	0	0	8138	511067	0	0
2024-08-07 15:19:47			0	38707	0	0	0	30568	29140	159044	27111	1074112	46064	111384	0	0	8138	510802	0	0
2024-08-07 15:20:47			0	38720	0	0	0	30571	29150	159000	27171	1074229	46065	111385	0	0	8139	510293	0	0
2024-08-07 15:21:47			0	38712	0	0	0	30581	29150	158988	27024	1074184	46042	111389	0	0	8138	510588	0	0
2024-08-07 15:22:47			0	38730	0	0	0	30592	29170	158949	27085	1074265	46067	111393	0	0	8139	509865	0	0
2024-08-07 15:23:47			0	38713	0	0	0	30599	29160	158912	26717	1074310	46066	111396	0	0	8138	510521	0	0
2024-08-07 15:24:47			0	38729	0	0	0	30602	29170	158936	26837	1074274	46068	111397	0	0	8139	509902	0	0
2024-08-07 15:25:47			0	38731	0	0	0	30605	29170	158957	27126	1074301	46068	111398	0	0	8139	509828	0	0
2024-08-07 15:26:47			0	38716	0	0	0	30607	29190	158840	26844	1074355	46057	111399	0	0	8138	510322	0	0
2024-08-07 15:27:47			0	38724	0	0	0	30612	29180	158865	27060	1074373	46068	111401	0	0	8138	510057	0	0
2024-08-07 15:28:47			0	38735	0	0	0	30636	29200	158741	27003	1074427	46070	111410	0	0	8139	509592	0	0
2024-08-07 15:29:47			0	38726	0	0	0	30693	29210	158865	27083	1074607	46082	111432	0	0	8137	509894	0	0
2024-08-07 15:30:47			0	38722	0	0	0	30729	29210	158888	27013	1074697	46083	111446	0	0	8136	510041	0	0
2024-08-07 15:31:47			0	38692	0	0	0	30735	29230	158908	26882	1074787	46074	111448	0	0	8135	511088	0	0
2024-08-07 15:32:47			0	38688	0	0	0	30719	29250	158960	27064	1074787	46085	111442	0	0	8135	511176	0	0
2024-08-07 15:33:47			0	38691	0	0	0	30711	29250	158980	26991	1074796	46086	111439	0	0	8135	511065	0	0
2024-08-07 15:34:47			0	38684	0	0	0	30693	29250	158868	26998	1074706	46052	111432	0	0	8135	511324	0	0
2024-08-07 15:35:47			0	38690	0	0	0	30690	29250	158924	26987	1074769	46064	111431	0	0	8135	511102	0	0
2024-08-07 15:36:47			0	38702	0	0	0	30690	29250	158844	26953	1074787	46052	111431	0	0	8136	510660	0	0
2024-08-07 15:37:47			0	38707	0	0	0	30688	29270	158844	27027	1074787	46054	111430	0	0	8136	510416	0	0
2024-08-07 15:38:47			0	38726	0	0	0	30698	29270	158893	27166	1074841	46042	111434	0	0	8137	509716	0	0
2024-08-07 15:39:47			0	38730	0	0	0	30698	29260	158796	26811	1074805	46076	111434	0	0	8137	509599	0	0
2024-08-07 15:40:47			0	38706	0	0	0	30727	29270	158892	26833	1074851	46078	111445	0	0	8136	510453	0	0
2024-08-07 15:41:47			0	38720	0	0	0	30727	29280	158704	27308	1074923	46079	111445	0	0	8137	509908	0	0
2024-08-07 15:42:47			0	38747	0	0	0	30732	29290	158737	27253	1074959	46067	111447	0	0	8138	508884	0	0
2024-08-07 15:43:47			0	38764	0	0	0	30755	29300	158725	27045	1075004	46090	111456	0	0	8139	508230	0	0
2024-08-07 15:44:47			0	38750	0	0	0	30761	29310	158685	27097	1075112	46082	111458	0	0	8138	508715	0	0
2024-08-07 15:45:47			0	38761	0	0	0	30773	29320	158673	27123	1075148	46070	111463	0	0	8138	508281	0	0
2024-08-07 15:46:47			0	38757	0	0	0	30761	29330	158553	27159	1075112	46093	111458	0	0	8138	508398	0	0
2024-08-07 15:47:47			0	38768	0	0	0	30766	29320	158649	26965	1075157	46071	111460	0	0	8139	508024	0	0
2024-08-07 15:48:47			0	38785	0	0	0	30773	29340	158477	26915	1075238	46084	111463	0	0	8140	507340	0	0
2024-08-07 15:49:47			0	38790	0	0	0	30776	29350	158449	27031	1075202	46084	111464	0	0	8140	507127	0	0
2024-08-07 15:50:47			0	38787	0	0	0	30771	29350	158521	26934	1075184	46096	111462	0	0	8140	507237	0	0
2024-08-07 15:51:47			0	38807	0	0	0	30773	29350	158497	27144	1075229	46084	111463	0	0	8141	506503	0	0
2024-08-07 15:52:47			0	38802	0	0	0	30784	29360	158417	27069	1075301	46075	111467	0	0	8141	506657	0	0
2024-08-07 15:53:47			0	38826	0	0	0	30773	29360	158317	26819	1075283	46064	111463	0	0	8142	505777	0	0
2024-08-07 15:54:47			0	38837	0	0	0	30781	29360	158249	26949	1075355	46075	111466	0	0	8143	505374	0	0
2024-08-07 15:55:47			0	38848	0	0	0	30794	29360	158213	26935	1075274	46075	111471	0	0	8143	504972	0	0
2024-08-07 15:56:47			0	38844	0	0	0	30786	29360	158153	27095	1075337	46086	111468	0	0	8143	505118	0	0
2024-08-07 15:57:47			0	38859	0	0	0	30786	29380	158101	27223	1075337	46066	111468	0	0	8144	504510	0	0
2024-08-07 15:58:47			0	38875	0	0	0	30784	29380	158133	27095	1075418	46077	111467	0	0	8145	503925	0	0
2024-08-07 15:59:47			0	38873	0	0	0	30781	29380	158181	26793	1075364	46077	111466	0	0	8145	503998	0	0
2024-08-07 16:00:47			0	38862	0	0	0	30786	29380	158213	26981	1075391	46077	111468	0	0	8144	504401	0	0
2024-08-07 16:01:47			0	38884	0	0	0	30794	29380	158089	26852	1075364	46077	111471	0	0	8145	503596	0	0
2024-08-07 16:02:47			0	38874	0	0	0	30799	29380	158065	27142	1075445	46077	111473	0	0	8145	503962	0	0
2024-08-07 16:03:47			0	38905	0	0	0	30805	29390	158077	26935	1075391	46067	111475	0	0	8146	502800	0	0
2024-08-07 16:04:47			0	38882	0	0	0	30818	29390	158001	27147	1075436	46100	111480	0	0	8145	503640	0	0
2024-08-07 16:05:47			0	38906	0	0	0	30818	29390	158109	26928	1075490	46089	111480	0	0	8146	502763	0	0
2024-08-07 16:06:47			0	38897	0	0	0	30815	29400	158025	27093	1075599	46102	111479	0	0	8146	503063	0	0
2024-08-07 16:07:47			0	38908	0	0	0	30823	29400	157917	27093	1075572	46091	111482	0	0	8146	502661	0	0
2024-08-07 16:08:47			0	38909	0	0	0	30836	29410	157977	26755	1075554	46102	111487	0	0	8146	502595	0	0
2024-08-07 16:09:47			0	38917	0	0	0	30831	29410	158017	26961	1075554	46102	111485	0	0	8147	502303	0	0
2024-08-07 16:10:47			0	38891	0	0	0	30846	29430	157989	26826	1075671	46082	111491	0	0	8145	503194	0	0
2024-08-07 16:11:47			0	38905	0	0	0	30846	29420	157905	26765	1075626	46081	111491	0	0	8146	502712	0	0
2024-08-07 16:12:47			0	38904	0	0	0	30844	29430	158001	27003	1075698	46082	111490	0	0	8146	502719	0	0
2024-08-07 16:13:47			0	38910	0	0	0	30857	29430	157893	26913	1075698	46093	111495	0	0	8146	502500	0	0
2024-08-07 16:14:47			0	38905	0	0	0	30867	29430	158061	27114	1075761	46093	111499	0	0	8145	502683	0	0
2024-08-07 16:15:47			0	38929	0	0	0	30867	29440	157841	27213	1075806	46095	111499	0	0	8147	501778	0	0
2024-08-07 16:16:47			0	38909	0	0	0	30877	29450	157925	27041	1075797	46083	111503	0	0	8145	502478	0	0
2024-08-07 16:17:47			0	38895	0	0	0	30888	29450	157941	27164	1075869	46083	111507	0	0	8145	502989	0	0
2024-08-07 16:18:47			0	38919	0	0	0	30893	29470	158001	27327	1075932	46086	111509	0	0	8146	502055	0	0
2024-08-07 16:19:47			0	38914	0	0	0	30898	29470	157885	27017	1075905	46109	111511	0	0	8146	502237	0	0
2024-08-07 16:20:47			0	38920	0	0	0	30898	29470	157797	26935	1075959	46086	111511	0	0	8146	502019	0	0
2024-08-07 16:21:47			0	38919	0	0	0	30888	29480	157917	26906	1075870	46097	111507	0	0	8146	502026	0	0
2024-08-07 16:22:47			0	38929	0	0	0	30885	29480	157933	27163	1075924	46086	111506	0	0	8147	501661	0	0
2024-08-07 16:23:47			0	38942	0	0	0	30890	29480	157857	26965	1076005	46086	111508	0	0	8147	501187	0	0
2024-08-07 16:24:47			0	38926	0	0	0	30893	29480	157889	26923	1075978	46076	111509	0	0	8146	501771	0	0
2024-08-07 16:25:47			0	38960	0	0	0	30896	29480	157777	27048	1075951	46076	111510	0	0	8148	500532	0	0
2024-08-07 16:26:47			0	38975	0	0	0	30896	29480	157697	27123	1075987	46077	111510	0	0	8149	499986	0	0
2024-08-07 16:27:47			0	38963	0	0	0	30880	29480	157673	27140	1075960	46098	111504	0	0	8149	500423	0	0
2024-08-07 16:28:47			0	38982	0	0	0	30898	29490	157621	27234	1075942	46099	111511	0	0	8149	499702	0	0
2024-08-07 16:29:47			0	38983	0	0	0	30901	29480	157685	27107	1075960	46087	111512	0	0	8149	499695	0	0
2024-08-07 16:30:47			0	39003	0	0	0	30890	29480	157637	26998	1075933	46087	111508	0	0	8151	498968	0	0
2024-08-07 16:31:47			0	38987	0	0	0	30893	29480	157565	26651	1075924	46086	111509	0	0	8150	499550	0	0
2024-08-07 16:32:47			0	39002	0	0	0	30888	29480	157529	26798	1075960	46098	111507	0	0	8151	499004	0	0
2024-08-07 16:33:47			0	39002	0	0	0	30893	29490	157597	27274	1075996	46099	111509	0	0	8151	498975	0	0
2024-08-07 16:34:47			0	38993	0	0	0	30890	29490	157725	26916	1076005	46088	111508	0	0	8150	499302	0	0
2024-08-07 16:35:47			0	38996	0	0	0	30893	29490	157577	26828	1076050	46099	111509	0	0	8150	499193	0	0
2024-08-07 16:36:47			0	38983	0	0	0	30909	29500	157625	26981	1076068	46099	111515	0	0	8149	499637	0	0
2024-08-07 16:37:47			0	38973	0	0	0	30903	29490	157645	27034	1076059	46088	111513	0	0	8149	500030	0	0
2024-08-07 16:38:47			0	38993	0	0	0	30896	29500	157597	27024	1076014	46099	111510	0	0	8150	499273	0	0
2024-08-07 16:39:47			0	39011	0	0	0	30872	29490	157597	26970	1075870	46066	111501	0	0	8152	498648	0	0
2024-08-07 16:40:47			0	39020	0	0	0	30846	29480	157409	27031	1075852	46077	111491	0	0	8152	498350	0	0
2024-08-07 16:41:47			0	39051	0	0	0	30854	29480	157353	27059	1075951	46097	111494	0	0	8154	497226	0	0
2024-08-07 16:42:47			0	39090	0	0	0	30859	29490	157177	26987	1076032	46099	111496	0	0	8156	495784	0	0
2024-08-07 16:43:47			0	39082	0	0	0	30862	29480	157113	27170	1075906	46087	111497	0	0	8156	496102	0	0
2024-08-07 16:44:47			0	39126	0	0	0	30870	29490	157089	27031	1076023	46099	111500	0	0	8158	494481	0	0
2024-08-07 16:45:47			0	39110	0	0	0	30880	29490	157113	26700	1076050	46111	111504	0	0	8157	495060	0	0
2024-08-07 16:46:47			0	39133	0	0	0	30888	29500	157141	26816	1076176	46099	111507	0	0	8158	494200	0	0
2024-08-07 16:47:47			0	39113	0	0	0	30890	29490	157001	27039	1076005	46088	111508	0	0	8157	494951	0	0
2024-08-07 16:48:47			0	39146	0	0	0	30898	29500	157021	27062	1076077	46089	111511	0	0	8159	493730	0	0
2024-08-07 16:49:47			0	39138	0	0	0	30906	29510	156897	27001	1076194	46113	111514	0	0	8158	493990	0	0
2024-08-07 16:50:47			0	39143	0	0	0	30919	29520	156849	27149	1076221	46102	111519	0	0	8158	493781	0	0
2024-08-07 16:51:47			0	39163	0	0	0	30922	29530	156845	27024	1076239	46093	111520	0	0	8160	493030	0	0
2024-08-07 16:52:47			0	39204	0	0	0	30922	29550	156669	27159	1076338	46104	111520	0	0	8162	491495	0	0
2024-08-07 16:53:47			0	39199	0	0	0	30937	29540	156665	26840	1076302	46082	111526	0	0	8161	491704	0	0
2024-08-07 16:54:47			0	39211	0	0	0	30937	29550	156617	26915	1076374	46105	111526	0	0	8162	491243	0	0
2024-08-07 16:55:47			0	39249	0	0	0	30963	29560	156561	27064	1076446	46106	111536	0	0	8164	489848	0	0
2024-08-07 16:56:47			0	39243	0	0	0	30963	29560	156485	26805	1076365	46106	111536	0	0	8163	490063	0	0
2024-08-07 16:57:47			0	39215	0	0	0	30948	29570	156577	26788	1076411	46096	111530	0	0	8162	491042	0	0
2024-08-07 16:58:47			0	39189	0	0	0	30958	29570	156645	27178	1076374	46083	111534	0	0	8161	491978	0	0
2024-08-07 16:59:47			0	39174	0	0	0	30966	29570	156765	27109	1076465	46119	111537	0	0	8160	492519	0	0
2024-08-07 17:00:47			0	39203	0	0	0	30971	29580	156753	26916	1076501	46097	111539	0	0	8161	491445	0	0
2024-08-07 17:01:47			0	39141	0	0	0	30976	29570	156781	27194	1076491	46107	111541	0	0	8158	493709	0	0
2024-08-07 17:02:47			0	39145	0	0	0	30976	29580	156841	27003	1076447	46120	111541	0	0	8158	493536	0	0
2024-08-07 17:03:47			0	39129	0	0	0	30979	29580	156921	27112	1076483	46085	111542	0	0	8157	494114	0	0
2024-08-07 17:04:47			0	39137	0	0	0	30973	29580	156865	27008	1076537	46097	111540	0	0	8157	493825	0	0
2024-08-07 17:05:47			0	39131	0	0	0	30976	29580	156949	26925	1076501	46108	111541	0	0	8157	494042	0	0
2024-08-07 17:06:47			0	39127	0	0	0	30981	29570	156961	27166	1076465	46096	111543	0	0	8157	494215	0	0
2024-08-07 17:07:47			0	39131	0	0	0	30979	29580	156953	26805	1076483	46097	111542	0	0	8157	494042	0	0
2024-08-07 17:08:47			0	39137	0	0	0	30976	29580	156869	26960	1076483	46108	111541	0	0	8157	493825	0	0
2024-08-07 17:09:47			0	39160	0	0	0	30986	29580	156909	27066	1076501	46097	111545	0	0	8158	492995	0	0
2024-08-07 17:10:47			0	39155	0	0	0	30989	29580	156829	27140	1076501	46097	111546	0	0	8158	493175	0	0
2024-08-07 17:11:47			0	39153	0	0	0	30994	29580	156781	27133	1076555	46120	111548	0	0	8158	493248	0	0
2024-08-07 17:12:47			0	39166	0	0	0	31002	29590	156849	27059	1076492	46108	111551	0	0	8159	492750	0	0
2024-08-07 17:13:47			0	39182	0	0	0	30999	29600	156717	27248	1076591	46110	111550	0	0	8160	492144	0	0
2024-08-07 17:14:47			0	39186	0	0	0	31005	29590	156601	27019	1076654	46108	111552	0	0	8160	492029	0	0
2024-08-07 17:15:47			0	39196	0	0	0	31012	29610	156657	27126	1076726	46111	111555	0	0	8160	491612	0	0
2024-08-07 17:16:47			0	39187	0	0	0	31023	29610	156585	27085	1076663	46111	111559	0	0	8160	491936	0	0
2024-08-07 17:17:47			0	39211	0	0	0	31023	29620	156541	26946	1076717	46125	111559	0	0	8161	491043	0	0
2024-08-07 17:18:47			0	39225	0	0	0	31038	29610	156529	27145	1076699	46111	111565	0	0	8161	490568	0	0
2024-08-07 17:19:47			0	39218	0	0	0	31025	29620	156477	27204	1076771	46113	111560	0	0	8161	490791	0	0
2024-08-07 17:20:47			0	39230	0	0	0	31028	29630	156477	27287	1076726	46113	111561	0	0	8162	490331	0	0
2024-08-07 17:21:47			0	39236	0	0	0	31033	29630	156437	27072	1076735	46113	111563	0	0	8162	490115	0	0
2024-08-07 17:22:47			0	39254	0	0	0	31041	29620	156389	26837	1076771	46125	111566	0	0	8163	489497	0	0
2024-08-07 17:23:47			0	39257	0	0	0	31038	29620	156389	27152	1076771	46113	111565	0	0	8163	489389	0	0
2024-08-07 17:24:47			0	39251	0	0	0	31033	29640	156433	26939	1076771	46114	111563	0	0	8163	489548	0	0
2024-08-07 17:25:47			0	39264	0	0	0	31018	29620	156329	27121	1076717	46102	111557	0	0	8164	489138	0	0
2024-08-07 17:26:47			0	39310	0	0	0	31010	29630	156297	27161	1076753	46102	111554	0	0	8167	487459	0	0
2024-08-07 17:27:47			0	39310	0	0	0	31023	29630	156177	27041	1076789	46102	111559	0	0	8167	487459	0	0
2024-08-07 17:28:47			0	39354	0	0	0	31033	29630	156137	27161	1076762	46113	111563	0	0	8169	485884	0	0
2024-08-07 17:29:47			0	39340	0	0	0	31041	29640	156053	27315	1076852	46114	111566	0	0	8168	486357	0	0
2024-08-07 17:30:47			0	39330	0	0	0	31059	29640	156089	27239	1076915	46126	111573	0	0	8167	486715	0	0
2024-08-07 17:31:47			0	39353	0	0	0	31070	29650	156121	27135	1076924	46126	111577	0	0	8168	485863	0	0
2024-08-07 17:32:47			0	39329	0	0	0	31062	29650	156133	27237	1076853	46126	111574	0	0	8167	486722	0	0
2024-08-07 17:33:47			0	39317	0	0	0	31049	29660	156233	27223	1076916	46116	111569	0	0	8167	487123	0	0
2024-08-07 17:34:47			0	39312	0	0	0	31049	29650	156197	27085	1076907	46115	111569	0	0	8166	487331	0	0
2024-08-07 17:35:47			0	39325	0	0	0	31046	29650	156221	27144	1076897	46115	111568	0	0	8167	486865	0	0
2024-08-07 17:36:47			0	39328	0	0	0	31046	29650	156173	27083	1076826	46115	111568	0	0	8167	486758	0	0
2024-08-07 17:37:47			0	39312	0	0	0	31036	29660	156161	27152	1076835	46105	111564	0	0	8167	487303	0	0
2024-08-07 17:38:47			0	39333	0	0	0	31028	29650	156117	27211	1076789	46115	111561	0	0	8168	486579	0	0
2024-08-07 17:39:47			0	39330	0	0	0	31025	29650	156081	26824	1076798	46126	111560	0	0	8168	486686	0	0
2024-08-07 17:40:47			0	39324	0	0	0	31010	29640	156169	27248	1076690	46103	111554	0	0	8168	486929	0	0
2024-08-07 17:41:47			0	39319	0	0	0	30981	29630	156217	27265	1076519	46090	111543	0	0	8168	487137	0	0
2024-08-07 17:42:47			0	39324	0	0	0	30935	29610	156105	27211	1076429	46066	111525	0	0	8169	487015	0	0
2024-08-07 17:43:47			0	39347	0	0	0	30901	29590	156117	27194	1076303	46064	111512	0	0	8171	486248	0	0
2024-08-07 17:44:47			0	39346	0	0	0	30880	29580	156053	26790	1076258	46085	111504	0	0	8171	486312	0	0
2024-08-07 17:45:47			0	39387	0	0	0	30890	29580	155873	27027	1076311	46097	111508	0	0	8173	484846	0	0
2024-08-07 17:46:47			0	39427	0	0	0	30898	29570	155782	26852	1076330	46096	111511	0	0	8175	483446	0	0
2024-08-07 17:47:47			0	39452	0	0	0	30922	29570	155738	27218	1076356	46096	111520	0	0	8176	482555	0	0
2024-08-07 17:48:47			0	39456	0	0	0	30924	29560	155618	26956	1076473	46106	111521	0	0	8176	482441	0	0
2024-08-07 17:49:47			0	39457	0	0	0	30958	29570	155698	26741	1076428	46106	111534	0	0	8176	482377	0	0
2024-08-07 17:50:47			0	39467	0	0	0	30973	29580	155766	26897	1076510	46130	111540	0	0	8176	481993	0	0
2024-08-07 17:51:47			0	39419	0	0	0	30981	29590	155838	27019	1076546	46120	111543	0	0	8173	483675	0	0
2024-08-07 17:52:47			0	39438	0	0	0	30999	29580	155818	26805	1076537	46108	111550	0	0	8174	483026	0	0
2024-08-07 17:53:47			0	39426	0	0	0	30994	29590	155790	26979	1076546	46130	111548	0	0	8173	483426	0	0
2024-08-07 17:54:47			0	39397	0	0	0	30989	29590	155873	26986	1076582	46121	111546	0	0	8172	484461	0	0
2024-08-07 17:55:47			0	39405	0	0	0	30994	29600	155949	26946	1076564	46099	111548	0	0	8172	484147	0	0
2024-08-07 17:56:47			0	39402	0	0	0	30999	29590	156025	26731	1076573	46108	111550	0	0	8172	484282	0	0
2024-08-07 17:57:47			0	39389	0	0	0	30999	29580	155865	26712	1076618	46108	111550	0	0	8171	484774	0	0
2024-08-07 17:58:47			0	39386	0	0	0	31002	29590	155929	26904	1076600	46108	111551	0	0	8171	484853	0	0
2024-08-07 17:59:47			0	39419	0	0	0	31005	29600	155950	27218	1076591	46132	111552	0	0	8173	483647	0	0
2024-08-07 18:00:47			0	39406	0	0	0	31007	29600	155845	27182	1076573	46100	111553	0	0	8172	484111	0	0
2024-08-07 18:01:47			0	39425	0	0	0	31007	29590	155886	27157	1076609	46121	111553	0	0	8173	483461	0	0
2024-08-07 18:02:47			0	39398	0	0	0	30997	29600	155825	26960	1076600	46111	111549	0	0	8172	484397	0	0
2024-08-07 18:03:47			0	39402	0	0	0	30994	29600	155829	26998	1076627	46111	111548	0	0	8172	484254	0	0
2024-08-07 18:04:47			0	39390	0	0	0	30999	29600	155869	27029	1076627	46111	111550	0	0	8171	484682	0	0
2024-08-07 18:05:47			0	39390	0	0	0	30994	29610	155929	27149	1076555	46100	111548	0	0	8171	484654	0	0
2024-08-07 18:06:47			0	39386	0	0	0	30997	29600	155913	27003	1076627	46111	111549	0	0	8171	484825	0	0
2024-08-07 18:07:47			0	39369	0	0	0	30992	29610	155953	27163	1076555	46111	111547	0	0	8170	485404	0	0
2024-08-07 18:08:47			0	39375	0	0	0	30994	29600	156013	27055	1076573	46123	111548	0	0	8171	485218	0	0
2024-08-07 18:09:47			0	39354	0	0	0	30994	29600	156005	27358	1076519	46123	111548	0	0	8169	485969	0	0
2024-08-07 18:10:47			0	39368	0	0	0	31002	29600	155977	27008	1076600	46123	111551	0	0	8170	485468	0	0
2024-08-07 18:11:47			0	39365	0	0	0	31002	29600	156065	27102	1076546	46123	111551	0	0	8170	485576	0	0
2024-08-07 18:12:47			0	39376	0	0	0	30994	29590	156025	27083	1076609	46121	111548	0	0	8171	485211	0	0
2024-08-07 18:13:47			0	39380	0	0	0	30997	29590	155937	27220	1076600	46120	111549	0	0	8171	485068	0	0
2024-08-07 18:14:47			0	39373	0	0	0	30994	29600	155957	27010	1076573	46100	111548	0	0	8170	485290	0	0
2024-08-07 18:15:47			0	39381	0	0	0	30997	29600	155937	26894	1076573	46111	111549	0	0	8171	485004	0	0
2024-08-07 18:16:47			0	39384	0	0	0	30981	29600	155973	27095	1076573	46111	111543	0	0	8171	484897	0	0
2024-08-07 18:17:47			0	39397	0	0	0	30979	29590	155925	26674	1076501	46121	111542	0	0	8172	484461	0	0
2024-08-07 18:18:47			0	39405	0	0	0	30981	29590	155905	27050	1076465	46108	111543	0	0	8172	484175	0	0
2024-08-07 18:19:47			0	39400	0	0	0	30971	29580	155941	27199	1076402	46120	111539	0	0	8172	484382	0	0
2024-08-07 18:20:47			0	39405	0	0	0	30979	29580	155969	27327	1076393	46120	111542	0	0	8172	484203	0	0
2024-08-07 18:21:47			0	39406	0	0	0	30971	29570	155985	26890	1076384	46107	111539	0	0	8173	484196	0	0
2024-08-07 18:22:47			0	39420	0	0	0	30968	29570	155878	27133	1076411	46107	111538	0	0	8173	483696	0	0
2024-08-07 18:23:47			0	39410	0	0	0	30958	29570	155817	27039	1076411	46119	111534	0	0	8173	484053	0	0
2024-08-07 18:24:47			0	39425	0	0	0	30953	29550	155766	27046	1076320	46105	111532	0	0	8174	483574	0	0
2024-08-07 18:25:47			0	39412	0	0	0	30948	29560	155757	27092	1076275	46118	111530	0	0	8173	484010	0	0
2024-08-07 18:26:47			0	39448	0	0	0	30945	29550	155786	27126	1076284	46104	111529	0	0	8175	482754	0	0
2024-08-07 18:27:47			0	39453	0	0	0	30935	29550	155826	27109	1076266	46105	111525	0	0	8176	482576	0	0
2024-08-07 18:28:47			0	39465	0	0	0	30945	29540	155662	26941	1076275	46126	111529	0	0	8176	482176	0	0
2024-08-07 18:29:47			0	39458	0	0	0	30935	29560	155802	27003	1076248	46106	111525	0	0	8176	482369	0	0
2024-08-07 18:30:47			0	39435	0	0	0	30937	29530	155850	27055	1076239	46116	111526	0	0	8175	483273	0	0
2024-08-07 18:31:47			0	39449	0	0	0	30914	29540	155862	27067	1076194	46104	111517	0	0	8176	482746	0	0
2024-08-07 18:32:47			0	39433	0	0	0	30890	29530	155930	27038	1076095	46103	111508	0	0	8175	483345	0	0
2024-08-07 18:33:47			0	39430	0	0	0	30875	29520	155826	27048	1076050	46090	111502	0	0	8175	483480	0	0
2024-08-07 18:34:47			0	39491	0	0	0	30864	29500	155730	27053	1075996	46100	111498	0	0	8179	481363	0	0
2024-08-07 18:35:47			0	39545	0	0	0	30862	29500	155462	27022	1075906	46099	111497	0	0	8182	479443	0	0
2024-08-07 18:36:47			0	39540	0	0	0	30862	29490	155590	27131	1076032	46078	111497	0	0	8182	479649	0	0
2024-08-07 18:37:47			0	39533	0	0	0	30864	29480	155562	27190	1075960	46110	111498	0	0	8181	479925	0	0
2024-08-07 18:38:47			0	39540	0	0	0	30870	29480	155566	27017	1075987	46110	111500	0	0	8182	479677	0	0
2024-08-07 18:39:47			0	39525	0	0	0	30870	29480	155578	27194	1075924	46097	111500	0	0	8181	480209	0	0
2024-08-07 18:40:47			0	39536	0	0	0	30859	29470	155598	26909	1075932	46097	111496	0	0	8181	479847	0	0
2024-08-07 18:41:47			0	39515	0	0	0	30864	29480	155662	27164	1075978	46109	111498	0	0	8180	480565	0	0
2024-08-07 18:42:47			0	39509	0	0	0	30864	29480	155598	27334	1075870	46109	111498	0	0	8180	480778	0	0
2024-08-07 18:43:47			0	39500	0	0	0	30857	29470	155642	27213	1075959	46109	111495	0	0	8179	481126	0	0
2024-08-07 18:44:47			0	39481	0	0	0	30867	29470	155758	27050	1075915	46097	111499	0	0	8178	481803	0	0
2024-08-07 18:45:47			0	39510	0	0	0	30857	29460	155642	27237	1075896	46097	111495	0	0	8180	480799	0	0
2024-08-07 18:46:47			0	39451	0	0	0	30854	29460	155918	26965	1075869	46119	111494	0	0	8177	482900	0	0
2024-08-07 18:47:47			0	39383	0	0	0	30862	29460	156241	27232	1075833	46107	111497	0	0	8173	485328	0	0
2024-08-07 18:48:47			0	39303	0	0	0	30857	29460	156437	27005	1075887	46118	111495	0	0	8168	488193	0	0
2024-08-07 18:49:47			0	39255	0	0	0	30859	29450	156569	27027	1075842	46106	111496	0	0	8165	489945	0	0
2024-08-07 18:50:47			0	39222	0	0	0	30862	29460	156701	27277	1075914	46096	111497	0	0	8164	491104	0	0
2024-08-07 18:51:47			0	39209	0	0	0	30854	29460	156769	27433	1075806	46096	111494	0	0	8163	491572	0	0
2024-08-07 18:52:47			0	39233	0	0	0	30841	29450	156669	27479	1075788	46106	111489	0	0	8164	490737	0	0
2024-08-07 18:53:47			0	39233	0	0	0	30841	29450	156781	27060	1075689	46083	111489	0	0	8164	490737	0	0
2024-08-07 18:54:47			0	39219	0	0	0	30844	29450	156809	26956	1075788	46117	111490	0	0	8164	491241	0	0
2024-08-07 18:55:47			0	39239	0	0	0	30844	29440	156733	27206	1075779	46106	111490	0	0	8165	490550	0	0
2024-08-07 18:56:47			0	39243	0	0	0	30833	29440	156725	27137	1075716	46116	111486	0	0	8165	490406	0	0
2024-08-07 18:57:47			0	39252	0	0	0	30833	29440	156649	27228	1075770	46105	111486	0	0	8166	490082	0	0
2024-08-07 18:58:47			0	39271	0	0	0	30825	29430	156593	27007	1075617	46104	111483	0	0	8167	489427	0	0
2024-08-07 18:59:47			0	39273	0	0	0	30818	29420	156457	27046	1075608	46104	111480	0	0	8167	489384	0	0
2024-08-07 19:00:47			0	39298	0	0	0	30818	29430	156501	27507	1075725	46093	111480	0	0	8168	488458	0	0
2024-08-07 19:01:47			0	39310	0	0	0	30825	29430	156377	27208	1075680	46104	111483	0	0	8169	488027	0	0
2024-08-07 19:02:47			0	39323	0	0	0	30823	29430	156317	27013	1075590	46115	111482	0	0	8170	487561	0	0
2024-08-07 19:03:47			0	39340	0	0	0	30823	29420	156301	26937	1075599	46103	111482	0	0	8171	486980	0	0
2024-08-07 19:04:47			0	39356	0	0	0	30818	29420	156265	27190	1075599	46103	111480	0	0	8172	486407	0	0
2024-08-07 19:05:47			0	39379	0	0	0	30802	29410	156201	26774	1075608	46113	111474	0	0	8173	485612	0	0
2024-08-07 19:06:47			0	39370	0	0	0	30812	29410	156141	27197	1075635	46113	111478	0	0	8173	485934	0	0
2024-08-07 19:07:47			0	39390	0	0	0	30807	29410	156081	27020	1075581	46102	111476	0	0	8174	485218	0	0
2024-08-07 19:08:47			0	39422	0	0	0	30799	29400	156058	27241	1075563	46112	111473	0	0	8176	484103	0	0
2024-08-07 19:09:47			0	39425	0	0	0	30797	29400	155982	27069	1075509	46090	111472	0	0	8176	483996	0	0
2024-08-07 19:10:47			0	39465	0	0	0	30786	29400	155994	27152	1075482	46101	111468	0	0	8178	482569	0	0
2024-08-07 19:11:47			0	39471	0	0	0	30781	29390	155978	26882	1075499	46089	111466	0	0	8179	482383	0	0
2024-08-07 19:12:47			0	39474	0	0	0	30781	29390	155906	27083	1075463	46100	111466	0	0	8179	482276	0	0
2024-08-07 19:13:47			0	39505	0	0	0	30779	29390	155866	27109	1075418	46111	111465	0	0	8181	481172	0	0
2024-08-07 19:14:47			0	39520	0	0	0	30776	29380	155754	27225	1075418	46099	111464	0	0	8182	480667	0	0
2024-08-07 19:15:47			0	39505	0	0	0	30781	29370	155818	27235	1075355	46109	111466	0	0	8181	481228	0	0
2024-08-07 19:16:47			0	39516	0	0	0	30773	29380	155642	26946	1075445	46110	111463	0	0	8181	480809	0	0
2024-08-07 19:17:47			0	39516	0	0	0	30779	29380	155686	27192	1075346	46110	111465	0	0	8181	480809	0	0
2024-08-07 19:18:47			0	39513	0	0	0	30781	29370	155666	26991	1075400	46109	111466	0	0	8181	480944	0	0
2024-08-07 19:19:47			0	39523	0	0	0	30776	29370	155682	27331	1075436	46098	111464	0	0	8182	480588	0	0
2024-08-07 19:20:47			0	39489	0	0	0	30771	29380	155634	26942	1075427	46110	111462	0	0	8180	481770	0	0
2024-08-07 19:21:47			0	39489	0	0	0	30776	29370	155786	27007	1075400	46098	111464	0	0	8180	481798	0	0
2024-08-07 19:22:47			0	39493	0	0	0	30779	29370	155814	27116	1075346	46121	111465	0	0	8180	481656	0	0
2024-08-07 19:23:47			0	39481	0	0	0	30773	29370	155802	27322	1075427	46109	111463	0	0	8179	482083	0	0
2024-08-07 19:24:47			0	39472	0	0	0	30781	29370	155858	27112	1075436	46098	111466	0	0	8179	482404	0	0
2024-08-07 19:25:47			0	39462	0	0	0	30781	29370	155918	26974	1075373	46109	111466	0	0	8178	482760	0	0
2024-08-07 19:26:47			0	39473	0	0	0	30768	29360	155914	27182	1075310	46108	111461	0	0	8179	482396	0	0
2024-08-07 19:27:47			0	39479	0	0	0	30748	29360	155886	27020	1075256	46075	111453	0	0	8180	482182	0	0
2024-08-07 19:28:47			0	39443	0	0	0	30737	29350	156030	27327	1075211	46074	111449	0	0	8178	483494	0	0
2024-08-07 19:29:47			0	39439	0	0	0	30716	29350	155994	27220	1075130	46074	111441	0	0	8178	483637	0	0
2024-08-07 19:30:47			0	39443	0	0	0	30701	29330	155914	27177	1075040	46083	111435	0	0	8178	483550	0	0
2024-08-07 19:31:47			0	39451	0	0	0	30698	29320	156018	27071	1075013	46092	111434	0	0	8179	483293	0	0
2024-08-07 19:32:47			0	39435	0	0	0	30685	29320	156030	27204	1075013	46082	111429	0	0	8178	483864	0	0
2024-08-07 19:33:47			0	39411	0	0	0	30690	29310	156061	27128	1074977	46092	111431	0	0	8176	484750	0	0
2024-08-07 19:34:47			0	39402	0	0	0	30685	29300	156277	27059	1074959	46091	111429	0	0	8176	485100	0	0
2024-08-07 19:35:47			0	39391	0	0	0	30675	29290	156225	27220	1074941	46102	111425	0	0	8176	485521	0	0
2024-08-07 19:36:47			0	39398	0	0	0	30675	29290	156213	27057	1074878	46101	111425	0	0	8176	485271	0	0
2024-08-07 19:37:47			0	39397	0	0	0	30662	29290	156237	27241	1074851	46089	111420	0	0	8176	485307	0	0
2024-08-07 19:38:47			0	39397	0	0	0	30667	29280	156197	27353	1074788	46101	111422	0	0	8176	485335	0	0
2024-08-07 19:39:47			0	39396	0	0	0	30651	29270	156217	27253	1074797	46088	111416	0	0	8176	485399	0	0
2024-08-07 19:40:47			0	39392	0	0	0	30644	29270	156225	26956	1074679	46077	111413	0	0	8176	485542	0	0
2024-08-07 19:41:47			0	39403	0	0	0	30612	29250	156245	27112	1074688	46076	111401	0	0	8177	485205	0	0
2024-08-07 19:42:47			0	39405	0	0	0	30592	29230	156205	27213	1074508	46061	111393	0	0	8177	485190	0	0
2024-08-07 19:43:47			0	39422	0	0	0	30581	29220	156134	27171	1074418	46083	111389	0	0	8179	484610	0	0
2024-08-07 19:44:47			0	39413	0	0	0	30574	29210	156325	26739	1074364	46071	111386	0	0	8178	484960	0	0
2024-08-07 19:45:47			0	39437	0	0	0	30555	29200	156222	27024	1074382	46081	111379	0	0	8180	484130	0	0
2024-08-07 19:46:47			0	39426	0	0	0	30545	29200	156194	27007	1074319	46081	111375	0	0	8179	484523	0	0
2024-08-07 19:47:47			0	39429	0	0	0	30550	29190	156082	27178	1074301	46069	111377	0	0	8179	484444	0	0
2024-08-07 19:48:47			0	39439	0	0	0	30535	29180	156158	26986	1074229	46079	111371	0	0	8180	484115	0	0
2024-08-07 19:49:47			0	39443	0	0	0	30529	29170	156070	27154	1074265	46078	111369	0	0	8180	484000	0	0
2024-08-07 19:50:47			0	39464	0	0	0	30519	29160	156086	27159	1074121	46077	111365	0	0	8182	483278	0	0
2024-08-07 19:51:47			0	39486	0	0	0	30503	29150	155922	27024	1074049	46076	111359	0	0	8183	482521	0	0
2024-08-07 19:52:47			0	39493	0	0	0	30488	29140	155922	27119	1074022	46074	111353	0	0	8184	482300	0	0
2024-08-07 19:53:47			0	39508	0	0	0	30472	29140	155862	26824	1074022	46074	111347	0	0	8185	481765	0	0
2024-08-07 19:54:47			0	39510	0	0	0	30464	29120	155870	26989	1073770	46072	111344	0	0	8185	481750	0	0
2024-08-07 19:55:47			0	39490	0	0	0	30462	29110	156026	27178	1073869	46072	111343	0	0	8184	482491	0	0
2024-08-07 19:56:47			0	39438	0	0	0	30446	29110	156170	26930	1073779	46072	111337	0	0	8181	484347	0	0
2024-08-07 19:57:47			0	39396	0	0	0	30444	29090	156393	26955	1073779	46070	111336	0	0	8179	485906	0	0
2024-08-07 19:58:47			0	39334	0	0	0	30449	29090	156689	27036	1073797	46059	111338	0	0	8175	488130	0	0
2024-08-07 19:59:47			0	39285	0	0	0	30457	29090	156773	27069	1073770	46070	111341	0	0	8172	489891	0	0
2024-08-07 20:00:47			0	39245	0	0	0	30446	29090	156921	26977	1073797	46070	111337	0	0	8170	491332	0	0
2024-08-07 20:01:47			0	39201	0	0	0	30436	29080	157101	27066	1073752	46080	111333	0	0	8168	492948	0	0
2024-08-07 20:02:47			0	39152	0	0	0	30444	29070	157229	26925	1073716	46079	111336	0	0	8165	494748	0	0
2024-08-07 20:03:47			0	39134	0	0	0	30444	29070	157385	27209	1073689	46067	111336	0	0	8164	495400	0	0
2024-08-07 20:04:47			0	39107	0	0	0	30441	29070	157477	27039	1073680	46079	111335	0	0	8162	496378	0	0
2024-08-07 20:05:47			0	39043	0	0	0	30446	29070	157705	27000	1073653	46089	111337	0	0	8159	498702	0	0
2024-08-07 20:06:47			0	39009	0	0	0	30431	29060	157877	27275	1073635	46066	111331	0	0	8157	499969	0	0
2024-08-07 20:07:47			0	38989	0	0	0	30436	29050	157985	27334	1073653	46077	111333	0	0	8156	500726	0	0
2024-08-07 20:08:47			0	38959	0	0	0	30428	29060	157993	26866	1073608	46066	111330	0	0	8154	501792	0	0
2024-08-07 20:09:47			0	38936	0	0	0	30441	29050	158161	27220	1073644	46087	111335	0	0	8153	502660	0	0
2024-08-07 20:10:47			0	38913	0	0	0	30425	29050	158209	27100	1073617	46077	111329	0	0	8152	503501	0	0
2024-08-07 20:11:47			0	38878	0	0	0	30428	29050	158373	26946	1073545	46077	111330	0	0	8150	504782	0	0
2024-08-07 20:12:47			0	38874	0	0	0	30428	29050	158425	26967	1073563	46077	111330	0	0	8149	504929	0	0
2024-08-07 20:13:47			0	38871	0	0	0	30423	29040	158413	26965	1073554	46065	111328	0	0	8149	505068	0	0
2024-08-07 20:14:47			0	38830	0	0	0	30423	29040	158545	27007	1073572	46076	111328	0	0	8147	506572	0	0
2024-08-07 20:15:47			0	38815	0	0	0	30433	29030	158609	26746	1073563	46085	111332	0	0	8146	507152	0	0
2024-08-07 20:16:47			0	38814	0	0	0	30425	29040	158773	27081	1073572	46076	111329	0	0	8146	507159	0	0
2024-08-07 20:17:47			0	38803	0	0	0	30433	29030	158781	27248	1073536	46075	111332	0	0	8145	507593	0	0
2024-08-07 20:18:47			0	38764	0	0	0	30433	29040	158833	27159	1073599	46076	111332	0	0	8143	508998	0	0
2024-08-07 20:19:47			0	38750	0	0	0	30438	29050	158929	27071	1073653	46077	111334	0	0	8142	509484	0	0
2024-08-07 20:20:47			0	38718	0	0	0	30444	29040	159080	26897	1073662	46099	111336	0	0	8140	510693	0	0
2024-08-07 20:21:47			0	38685	0	0	0	30441	29030	159164	26736	1073643	46075	111335	0	0	8138	511940	0	0
2024-08-07 20:22:47			0	38609	0	0	0	30449	29030	159488	26684	1073617	46075	111338	0	0	8134	514752	0	0
2024-08-07 20:23:47			0	38514	0	0	0	30449	29040	159852	27031	1073599	46086	111338	0	0	8128	518251	0	0
2024-08-07 20:24:47			0	38398	0	0	0	30457	29040	160268	26901	1073662	46077	111341	0	0	8122	522579	0	0
2024-08-07 20:25:47			0	38313	0	0	0	30457	29040	160568	27065	1073689	46099	111341	0	0	8117	525764	0	0
2024-08-07 20:26:47			0	38265	0	0	0	30457	29050	160700	26986	1073707	46077	111341	0	0	8114	527538	0	0
2024-08-07 20:27:47			0	38236	0	0	0	30457	29050	160980	27055	1073644	46087	111341	0	0	8112	528629	0	0
2024-08-07 20:28:47			0	38200	0	0	0	30457	29050	161032	27046	1073707	46065	111341	0	0	8110	529987	0	0
2024-08-07 20:29:47			0	38166	0	0	0	30454	29060	161216	27024	1073635	46088	111340	0	0	8109	531240	0	0
2024-08-07 20:30:47			0	38166	0	0	0	30451	29050	161116	26896	1073698	46110	111339	0	0	8109	531270	0	0
2024-08-07 20:31:47			0	38153	0	0	0	30449	29040	161280	27027	1073689	46087	111338	0	0	8108	531793	0	0
2024-08-07 20:32:47			0	38133	0	0	0	30454	29050	161376	26987	1073653	46087	111340	0	0	8107	532518	0	0
2024-08-07 20:33:47			0	38123	0	0	0	30454	29050	161524	27098	1073644	46099	111340	0	0	8106	532897	0	0
2024-08-07 20:34:47			0	38129	0	0	0	30462	29050	161356	27017	1073680	46099	111343	0	0	8106	532670	0	0
2024-08-07 20:35:47			0	38109	0	0	0	30459	29060	161436	26977	1073689	46088	111342	0	0	8105	533396	0	0
2024-08-07 20:36:47			0	38120	0	0	0	30457	29040	161504	27164	1073662	46087	111341	0	0	8106	533041	0	0
2024-08-07 20:37:47			0	38121	0	0	0	30462	29050	161492	27109	1073680	46087	111343	0	0	8106	532973	0	0
2024-08-07 20:38:47			0	38119	0	0	0	30462	29050	161464	27173	1073680	46087	111343	0	0	8106	533048	0	0
2024-08-07 20:39:47			0	38115	0	0	0	30464	29050	161532	27175	1073761	46077	111344	0	0	8105	533200	0	0
2024-08-07 20:40:47			0	38104	0	0	0	30462	29050	161504	27010	1073734	46077	111343	0	0	8105	533616	0	0
2024-08-07 20:41:47			0	38123	0	0	0	30462	29050	161472	26972	1073707	46077	111343	0	0	8106	532897	0	0
2024-08-07 20:42:47			0	38109	0	0	0	30475	29050	161524	27130	1073725	46077	111348	0	0	8105	533427	0	0
2024-08-07 20:43:47			0	38147	0	0	0	30470	29060	161488	27005	1073716	46078	111346	0	0	8107	531958	0	0
2024-08-07 20:44:47			0	38131	0	0	0	30472	29050	161484	26750	1073734	46099	111347	0	0	8106	532594	0	0
2024-08-07 20:45:47			0	38120	0	0	0	30472	29050	161488	27017	1073788	46077	111347	0	0	8106	533010	0	0
2024-08-07 20:46:47			0	38128	0	0	0	30467	29060	161488	26987	1073752	46089	111345	0	0	8106	532677	0	0
2024-08-07 20:47:47			0	38108	0	0	0	30467	29060	161348	27126	1073743	46088	111345	0	0	8105	533434	0	0
2024-08-07 20:48:47			0	38115	0	0	0	30472	29050	161440	26963	1073698	46077	111347	0	0	8105	533200	0	0
2024-08-07 20:49:47			0	38121	0	0	0	30467	29060	161444	27213	1073662	46078	111345	0	0	8106	532942	0	0
2024-08-07 20:50:47			0	38111	0	0	0	30464	29060	161412	27069	1073770	46078	111344	0	0	8105	533320	0	0
2024-08-07 20:51:47			0	38115	0	0	0	30464	29060	161420	26812	1073743	46088	111344	0	0	8105	533169	0	0
2024-08-07 20:52:47			0	38130	0	0	0	30470	29050	161380	27322	1073707	46087	111346	0	0	8106	532632	0	0
2024-08-07 20:53:47			0	38135	0	0	0	30464	29050	161448	27187	1073707	46077	111344	0	0	8107	532443	0	0
2024-08-07 20:54:47			0	38117	0	0	0	30462	29050	161396	27078	1073734	46087	111343	0	0	8106	533124	0	0
2024-08-07 20:55:47			0	38155	0	0	0	30467	29060	161404	27201	1073716	46078	111345	0	0	8108	531655	0	0
2024-08-07 20:56:47			0	38149	0	0	0	30457	29060	161388	26953	1073743	46088	111341	0	0	8108	531882	0	0
2024-08-07 20:57:47			0	38148	0	0	0	30449	29050	161308	26800	1073707	46087	111338	0	0	8108	531951	0	0
2024-08-07 20:58:47			0	38167	0	0	0	30449	29050	161324	27138	1073644	46087	111338	0	0	8109	531233	0	0
2024-08-07 20:59:47			0	38179	0	0	0	30446	29050	161336	27109	1073653	46087	111337	0	0	8109	530779	0	0
2024-08-07 21:00:47			0	38175	0	0	0	30444	29050	161288	27248	1073680	46077	111336	0	0	8109	530930	0	0
2024-08-07 21:01:47			0	38191	0	0	0	30446	29050	161276	26831	1073590	46065	111337	0	0	8110	530326	0	0
2024-08-07 21:02:47			0	38180	0	0	0	30441	29050	161272	26939	1073617	46087	111335	0	0	8110	530741	0	0
2024-08-07 21:03:47			0	38183	0	0	0	30428	29040	161256	27180	1073581	46065	111330	0	0	8110	530659	0	0
2024-08-07 21:04:47			0	38195	0	0	0	30431	29040	161316	26875	1073581	46099	111331	0	0	8110	530206	0	0
2024-08-07 21:05:47			0	38188	0	0	0	30433	29030	161244	26807	1073581	46085	111332	0	0	8110	530501	0	0
2024-08-07 21:06:47			0	38197	0	0	0	30425	29040	161244	27008	1073608	46087	111329	0	0	8111	530131	0	0
2024-08-07 21:07:47			0	38218	0	0	0	30438	29040	161164	27234	1073572	46076	111334	0	0	8112	529338	0	0
2024-08-07 21:08:47			0	38195	0	0	0	30423	29030	161188	26883	1073554	46075	111328	0	0	8111	530237	0	0
2024-08-07 21:09:47			0	38201	0	0	0	30425	29030	161256	26882	1073554	46075	111329	0	0	8111	530010	0	0
2024-08-07 21:10:47			0	38189	0	0	0	30423	29040	161164	26982	1073581	46087	111328	0	0	8110	530432	0	0
2024-08-07 21:11:47			0	38217	0	0	0	30423	29030	161140	26949	1073617	46085	111328	0	0	8112	529407	0	0
2024-08-07 21:12:47			0	38201	0	0	0	30428	29030	161196	27071	1073581	46063	111330	0	0	8111	530010	0	0
2024-08-07 21:13:47			0	38204	0	0	0	30423	29030	161140	27069	1073590	46075	111328	0	0	8111	529897	0	0
2024-08-07 21:14:47			0	38236	0	0	0	30428	29030	161144	27104	1073554	46075	111330	0	0	8113	528691	0	0
2024-08-07 21:15:47			0	38205	0	0	0	30425	29030	161180	26930	1073590	46085	111329	0	0	8111	529859	0	0
2024-08-07 21:16:47			0	38211	0	0	0	30428	29030	161160	26889	1073500	46085	111330	0	0	8111	529633	0	0
2024-08-07 21:17:47			0	38210	0	0	0	30423	29030	161104	27043	1073590	46085	111328	0	0	8111	529671	0	0
2024-08-07 21:18:47			0	38203	0	0	0	30428	29020	161056	27126	1073562	46074	111330	0	0	8111	529966	0	0
2024-08-07 21:19:47			0	38220	0	0	0	30418	29020	161140	26807	1073544	46075	111326	0	0	8112	529324	0	0
2024-08-07 21:20:47			0	38223	0	0	0	30410	29030	161140	26948	1073527	46075	111323	0	0	8112	529181	0	0
2024-08-07 21:21:47			0	38208	0	0	0	30407	29020	161124	27185	1073490	46075	111322	0	0	8112	529777	0	0
2024-08-07 21:22:47			0	38220	0	0	0	30418	29010	161112	26785	1073499	46073	111326	0	0	8112	529355	0	0
2024-08-07 21:23:47			0	38232	0	0	0	30410	29020	161160	26700	1073463	46085	111323	0	0	8113	528872	0	0
2024-08-07 21:24:47			0	38232	0	0	0	30412	29010	161076	27015	1073418	46083	111324	0	0	8113	528903	0	0
2024-08-07 21:25:47			0	38216	0	0	0	30410	29020	161080	26899	1073508	46074	111323	0	0	8112	529475	0	0
2024-08-07 21:26:47			0	38233	0	0	0	30402	29010	161080	27071	1073490	46083	111320	0	0	8113	528865	0	0
2024-08-07 21:27:47			0	38215	0	0	0	30415	29010	161164	27237	1073553	46083	111325	0	0	8112	529544	0	0
2024-08-07 21:28:47			0	38208	0	0	0	30405	29010	161112	26776	1073499	46073	111321	0	0	8112	529808	0	0
2024-08-07 21:29:47			0	38227	0	0	0	30418	29020	161076	27104	1073481	46074	111326	0	0	8112	529060	0	0
2024-08-07 21:30:47			0	38232	0	0	0	30423	29020	161136	27201	1073454	46084	111328	0	0	8113	528872	0	0
2024-08-07 21:31:47			0	38229	0	0	0	30410	29010	161128	27173	1073499	46083	111323	0	0	8113	529016	0	0
2024-08-07 21:32:47			0	38216	0	0	0	30420	29010	161064	26970	1073553	46095	111327	0	0	8112	529506	0	0
2024-08-07 21:33:47			0	38221	0	0	0	30405	29010	161092	26823	1073472	46083	111321	0	0	8112	529317	0	0
2024-08-07 21:34:47			0	38219	0	0	0	30405	29000	161108	27163	1073481	46072	111321	0	0	8112	529424	0	0
2024-08-07 21:35:47			0	38246	0	0	0	30407	29000	161120	26861	1073427	46083	111322	0	0	8114	528406	0	0
2024-08-07 21:36:47			0	38231	0	0	0	30405	29010	160960	27312	1073463	46083	111321	0	0	8113	528940	0	0
2024-08-07 21:37:47			0	38229	0	0	0	30397	29010	161060	26878	1073445	46073	111318	0	0	8113	529016	0	0
2024-08-07 21:38:47			0	38227	0	0	0	30405	29010	161076	26923	1073436	46072	111321	0	0	8113	529091	0	0
2024-08-07 21:39:47			0	38235	0	0	0	30399	29010	161032	27213	1073436	46072	111319	0	0	8113	528790	0	0
2024-08-07 21:40:47			0	38243	0	0	0	30399	29000	160972	27154	1073427	46094	111319	0	0	8114	528519	0	0
2024-08-07 21:41:47			0	38238	0	0	0	30397	29000	161076	26774	1073427	46094	111318	0	0	8113	528707	0	0
2024-08-07 21:42:47			0	38244	0	0	0	30386	29000	160972	26859	1073427	46083	111314	0	0	8114	528481	0	0
2024-08-07 21:43:47			0	38250	0	0	0	30394	29000	161096	26870	1073391	46083	111317	0	0	8114	528255	0	0
2024-08-07 21:44:47			0	38246	0	0	0	30384	28990	161008	27064	1073328	46071	111313	0	0	8114	528437	0	0
2024-08-07 21:45:47			0	38248	0	0	0	30376	28990	160876	27154	1073328	46071	111310	0	0	8114	528361	0	0
2024-08-07 21:46:47			0	38250	0	0	0	30366	28980	160936	27102	1073247	46070	111306	0	0	8114	528317	0	0
2024-08-07 21:47:47			0	38264	0	0	0	30355	28970	160936	27142	1073211	46046	111302	0	0	8115	527820	0	0
2024-08-07 21:48:47			0	38269	0	0	0	30355	28970	160940	27216	1073265	46080	111302	0	0	8116	527632	0	0
2024-08-07 21:49:47			0	38253	0	0	0	30350	28970	161012	26854	1073319	46069	111300	0	0	8115	528234	0	0
2024-08-07 21:50:47			0	38258	0	0	0	30363	28970	160992	27062	1073265	46080	111305	0	0	8115	528046	0	0
2024-08-07 21:51:47			0	38267	0	0	0	30361	28970	160964	26930	1073337	46090	111304	0	0	8115	527707	0	0
2024-08-07 21:52:47			0	38256	0	0	0	30363	28970	160916	27147	1073265	46091	111305	0	0	8115	528121	0	0
2024-08-07 21:53:47			0	38268	0	0	0	30368	28970	160940	26554	1073238	46080	111307	0	0	8115	527669	0	0
2024-08-07 21:54:47			0	38255	0	0	0	30368	28970	160972	26748	1073202	46068	111307	0	0	8115	528159	0	0
2024-08-07 21:55:47			0	38254	0	0	0	30355	28970	160972	27119	1073265	46069	111302	0	0	8115	528196	0	0
2024-08-07 21:56:47			0	38263	0	0	0	30358	28970	161004	27072	1073283	46090	111303	0	0	8115	527858	0	0
2024-08-07 21:57:47			0	38284	0	0	0	30345	28950	161008	27317	1073184	46079	111298	0	0	8117	527129	0	0
2024-08-07 21:58:47			0	38266	0	0	0	30327	28950	160964	27071	1073157	46079	111291	0	0	8116	527806	0	0
2024-08-07 21:59:47			0	38285	0	0	0	30316	28940	160940	26979	1073031	46055	111287	0	0	8117	527122	0	0
2024-08-07 22:00:47			0	38286	0	0	0	30288	28930	160912	26939	1073013	46065	111276	0	0	8118	527115	0	0
2024-08-07 22:01:47			0	38284	0	0	0	30280	28920	160896	27131	1072986	46063	111273	0	0	8118	527220	0	0
2024-08-07 22:02:47			0	38297	0	0	0	30309	28910	161024	26693	1072995	46074	111284	0	0	8118	526762	0	0
2024-08-07 22:03:47			0	38292	0	0	0	30324	28930	160968	27187	1073112	46076	111290	0	0	8117	526889	0	0
2024-08-07 22:04:47			0	38280	0	0	0	30335	28920	160976	26916	1073049	46075	111294	0	0	8116	527371	0	0
2024-08-07 22:05:47			0	38276	0	0	0	30342	28920	161008	26767	1073076	46086	111297	0	0	8116	527521	0	0
2024-08-07 22:06:47			0	38287	0	0	0	30342	28930	160960	26948	1073112	46076	111297	0	0	8117	527077	0	0
2024-08-07 22:07:47			0	38266	0	0	0	30332	28920	161128	27194	1073049	46075	111293	0	0	8116	527898	0	0
2024-08-07 22:08:47			0	38201	0	0	0	30316	28920	161328	26720	1073013	46063	111287	0	0	8112	530349	0	0
2024-08-07 22:09:47			0	38122	0	0	0	30293	28920	161640	27057	1072959	46085	111278	0	0	8108	533337	0	0
2024-08-07 22:10:47			0	38041	0	0	0	30270	28900	162012	26967	1072824	46062	111269	0	0	8104	536474	0	0
2024-08-07 22:11:47			0	38003	0	0	0	30251	28900	162107	26765	1072842	46061	111262	0	0	8102	537920	0	0
2024-08-07 22:12:47			0	37981	0	0	0	30249	28880	162207	26894	1072752	46048	111261	0	0	8101	538821	0	0
2024-08-07 22:13:47			0	38002	0	0	0	30249	28870	162183	26972	1072716	46070	111261	0	0	8102	538052	0	0
2024-08-07 22:14:47			0	37998	0	0	0	30233	28880	162087	27213	1072725	46059	111255	0	0	8102	538173	0	0
2024-08-07 22:15:47			0	38038	0	0	0	30215	28880	162140	27124	1072644	46048	111248	0	0	8104	536650	0	0
2024-08-07 22:16:47			0	37933	0	0	0	30205	28860	162491	26788	1072617	46069	111244	0	0	8098	540717	0	0
2024-08-07 22:17:47			0	37746	0	0	0	30233	28850	163363	27093	1072671	46067	111255	0	0	8087	547927	0	0
2024-08-07 22:18:47			0	37578	0	0	0	30249	28860	164015	27131	1072689	46102	111261	0	0	8077	554396	0	0
2024-08-07 22:19:47			0	37455	0	0	0	30254	28860	164519	26941	1072752	46069	111263	0	0	8070	559186	0	0
2024-08-07 22:20:47			0	37345	0	0	0	30264	28860	164959	26859	1072823	46080	111267	0	0	8064	563494	0	0
2024-08-07 22:21:47			0	37271	0	0	0	30264	28860	165294	26994	1072716	46068	111267	0	0	8059	566404	0	0
2024-08-07 22:22:47			0	37229	0	0	0	30270	28870	165466	26894	1072734	46081	111269	0	0	8057	568027	0	0
2024-08-07 22:23:47			0	37196	0	0	0	30288	28870	165534	27010	1072788	46081	111276	0	0	8054	569330	0	0
2024-08-07 22:24:47			0	37200	0	0	0	30303	28870	165582	27102	1072851	46082	111282	0	0	8054	569172	0	0
2024-08-07 22:25:47			0	37180	0	0	0	30296	28870	165518	26928	1072815	46091	111279	0	0	8053	569963	0	0
2024-08-07 22:26:47			0	37205	0	0	0	30293	28880	165558	27053	1072941	46092	111278	0	0	8055	568941	0	0
2024-08-07 22:27:47			0	37238	0	0	0	30293	28880	165450	26746	1072860	46082	111278	0	0	8057	567639	0	0
2024-08-07 22:28:47			0	37247	0	0	0	30306	28880	165398	27196	1072914	46082	111283	0	0	8057	567284	0	0
2024-08-07 22:29:47			0	37282	0	0	0	30296	28880	165182	27114	1072914	46070	111279	0	0	8059	565905	0	0
2024-08-07 22:30:47			0	37319	0	0	0	30296	28880	165003	26951	1072869	46071	111279	0	0	8062	564450	0	0
2024-08-07 22:31:47			0	37352	0	0	0	30298	28880	165051	26798	1072923	46083	111280	0	0	8063	563154	0	0
2024-08-07 22:32:47			0	37369	0	0	0	30298	28880	164875	27076	1072896	46083	111280	0	0	8064	562487	0	0
2024-08-07 22:33:47			0	37394	0	0	0	30290	28890	164739	26715	1072932	46061	111277	0	0	8066	561475	0	0
2024-08-07 22:34:47			0	37432	0	0	0	30293	28890	164603	26902	1072851	46072	111278	0	0	8068	559988	0	0
2024-08-07 22:35:47			0	37481	0	0	0	30285	28880	164463	26882	1072833	46070	111275	0	0	8071	558107	0	0
2024-08-07 22:36:47			0	37498	0	0	0	30259	28870	164319	26951	1072797	46082	111265	0	0	8073	557476	0	0
2024-08-07 22:37:47			0	37523	0	0	0	30246	28870	164127	26776	1072734	46047	111260	0	0	8074	556502	0	0
2024-08-07 22:38:47			0	37563	0	0	0	30267	28860	164139	27050	1072752	46069	111268	0	0	8076	554978	0	0
2024-08-07 22:39:47			0	37588	0	0	0	30283	28880	163967	27149	1072752	46070	111274	0	0	8077	553943	0	0
2024-08-07 22:40:47			0	37603	0	0	0	30262	28870	164067	26909	1072824	46082	111266	0	0	8079	553393	0	0
2024-08-07 22:41:47			0	37591	0	0	0	30257	28870	164019	26991	1072761	46069	111264	0	0	8078	553859	0	0
2024-08-07 22:42:47			0	37619	0	0	0	30223	28870	163839	26840	1072680	46058	111251	0	0	8080	552772	0	0
2024-08-07 22:43:47			0	37624	0	0	0	30168	28850	163827	26972	1072536	46034	111230	0	0	8081	552643	0	0
2024-08-07 22:44:47			0	37638	0	0	0	30155	28840	163771	27192	1072473	46034	111225	0	0	8082	552132	0	0
2024-08-07 22:45:47			0	37663	0	0	0	30150	28830	163739	26868	1072374	46043	111223	0	0	8084	551196	0	0
2024-08-07 22:46:47			0	37649	0	0	0	30150	28820	163687	27182	1072401	46065	111223	0	0	8083	551770	0	0
2024-08-07 22:47:47			0	37657	0	0	0	30161	28810	163815	26925	1072338	46041	111227	0	0	8083	551492	0	0
2024-08-07 22:48:47			0	37630	0	0	0	30174	28810	163799	27012	1072365	46052	111232	0	0	8081	552538	0	0
2024-08-07 22:49:47			0	37627	0	0	0	30210	28800	163927	26911	1072455	46074	111246	0	0	8080	552687	0	0
2024-08-07 22:50:47			0	37589	0	0	0	30215	28800	164031	26998	1072446	46074	111248	0	0	8078	554161	0	0
2024-08-07 22:51:47			0	37583	0	0	0	30194	28810	164171	26963	1072437	46064	111240	0	0	8078	554362	0	0
2024-08-07 22:52:47			0	37548	0	0	0	30184	28810	164267	27102	1072473	46064	111236	0	0	8076	555723	0	0
2024-08-07 22:53:47			0	37521	0	0	0	30192	28810	164323	26906	1072464	46052	111239	0	0	8075	556774	0	0
2024-08-07 22:54:47			0	37484	0	0	0	30181	28800	164459	27055	1072455	46063	111235	0	0	8073	558249	0	0
2024-08-07 22:55:47			0	37452	0	0	0	30140	28800	164527	27059	1072365	46063	111219	0	0	8072	559498	0	0
2024-08-07 22:56:47			0	37414	0	0	0	30093	28790	164703	26974	1072194	46040	111201	0	0	8070	561017	0	0
2024-08-07 22:57:47			0	37403	0	0	0	30067	28780	164879	27079	1072176	46039	111191	0	0	8070	561480	0	0
2024-08-07 22:58:47			0	37412	0	0	0	30067	28760	164743	27163	1071969	46037	111191	0	0	8070	561193	0	0
2024-08-07 22:59:47			0	37425	0	0	0	30046	28750	164795	26871	1071897	46035	111183	0	0	8071	560716	0	0
2024-08-07 23:00:47			0	37447	0	0	0	30093	28730	164723	27157	1071924	46044	111201	0	0	8072	559921	0	0
2024-08-07 23:01:47			0	37454	0	0	0	30085	28740	164667	26981	1071933	46056	111198	0	0	8072	559615	0	0
2024-08-07 23:02:47			0	37460	0	0	0	30109	28740	164595	26781	1072014	46067	111207	0	0	8072	559380	0	0
2024-08-07 23:03:47			0	37465	0	0	0	30124	28730	164619	26826	1072005	46067	111213	0	0	8072	559217	0	0
2024-08-07 23:04:47			0	37472	0	0	0	30106	28740	164611	27036	1071987	46079	111206	0	0	8073	558911	0	0
2024-08-07 23:05:47			0	37442	0	0	0	30114	28730	164663	26868	1072023	46055	111209	0	0	8071	560116	0	0
2024-08-07 23:06:47			0	37458	0	0	0	30103	28730	164723	27126	1071915	46055	111205	0	0	8072	559491	0	0
2024-08-07 23:07:47			0	37431	0	0	0	30085	28720	164719	27008	1071960	46077	111198	0	0	8071	560579	0	0
2024-08-07 23:08:47			0	37424	0	0	0	30111	28730	164899	27253	1071942	46055	111208	0	0	8070	560820	0	0
2024-08-07 23:09:47			0	37412	0	0	0	30103	28730	164903	26972	1072023	46055	111205	0	0	8070	561290	0	0
2024-08-07 23:10:47			0	37405	0	0	0	30140	28720	164971	26706	1072014	46077	111219	0	0	8068	561597	0	0
2024-08-07 23:11:47			0	37367	0	0	0	30109	28730	165023	26798	1072032	46056	111207	0	0	8067	563055	0	0
2024-08-07 23:12:47			0	37379	0	0	0	30109	28720	165115	26923	1071933	46055	111207	0	0	8067	562616	0	0
2024-08-07 23:13:47			0	37381	0	0	0	30111	28720	165115	27048	1072014	46055	111208	0	0	8068	562538	0	0
2024-08-07 23:14:47			0	37383	0	0	0	30114	28730	165131	26927	1071969	46055	111209	0	0	8068	562427	0	0
2024-08-07 23:15:47			0	37377	0	0	0	30114	28720	165099	26670	1072040	46066	111209	0	0	8067	562695	0	0
2024-08-07 23:16:47			0	37351	0	0	0	30129	28720	165115	26772	1072014	46077	111215	0	0	8065	563715	0	0
2024-08-07 23:17:47			0	37356	0	0	0	30135	28720	165119	26852	1071987	46066	111217	0	0	8066	563519	0	0
2024-08-07 23:18:47			0	37367	0	0	0	30129	28730	165095	27086	1072049	46043	111215	0	0	8066	563055	0	0
2024-08-07 23:19:47			0	37404	0	0	0	30116	28730	165075	27090	1072005	46079	111210	0	0	8069	561604	0	0
2024-08-07 23:20:47			0	37415	0	0	0	30122	28730	164959	26871	1072005	46056	111212	0	0	8069	561173	0	0
2024-08-07 23:21:47			0	37398	0	0	0	30135	28730	164935	26876	1071996	46066	111217	0	0	8068	561839	0	0
2024-08-07 23:22:47			0	37387	0	0	0	30114	28720	165019	27138	1072067	46088	111209	0	0	8068	562303	0	0
2024-08-07 23:23:47			0	37367	0	0	0	30119	28720	165071	27263	1072005	46076	111211	0	0	8067	563087	0	0
2024-08-07 23:24:47			0	37316	0	0	0	30114	28710	165303	27213	1071969	46054	111209	0	0	8064	565124	0	0
2024-08-07 23:25:47			0	37305	0	0	0	30103	28720	165346	26861	1071960	46077	111205	0	0	8063	565524	0	0
2024-08-07 23:26:47			0	37300	0	0	0	30109	28720	165462	27296	1071987	46066	111207	0	0	8063	565721	0	0
2024-08-07 23:27:47			0	37282	0	0	0	30122	28720	165470	27225	1071960	46055	111212	0	0	8062	566430	0	0
2024-08-07 23:28:47			0	37260	0	0	0	30114	28730	165686	27185	1071969	46066	111209	0	0	8060	567264	0	0
2024-08-07 23:29:47			0	37251	0	0	0	30080	28720	165654	27026	1071960	46077	111196	0	0	8060	567652	0	0
2024-08-07 23:30:47			0	37235	0	0	0	30096	28720	165818	27216	1071924	46065	111202	0	0	8059	568284	0	0
2024-08-07 23:31:47			0	37218	0	0	0	30072	28710	165790	27156	1071888	46065	111193	0	0	8059	568988	0	0
2024-08-07 23:32:47			0	37217	0	0	0	30072	28710	165750	26925	1071879	46053	111193	0	0	8059	569028	0	0
2024-08-07 23:33:47			0	37231	0	0	0	30090	28700	165750	27098	1071924	46064	111200	0	0	8059	568508	0	0
2024-08-07 23:34:47			0	37217	0	0	0	30085	28700	165734	26951	1071816	46064	111198	0	0	8058	569061	0	0
2024-08-07 23:35:47			0	37237	0	0	0	30083	28710	165750	26878	1071852	46064	111197	0	0	8060	568238	0	0
2024-08-07 23:36:47			0	37235	0	0	0	30085	28690	165826	26733	1071825	46052	111198	0	0	8059	568383	0	0
2024-08-07 23:37:47			0	37223	0	0	0	30090	28690	165762	26955	1071825	46063	111200	0	0	8059	568857	0	0
2024-08-07 23:38:47			0	37238	0	0	0	30057	28700	165702	26864	1071834	46063	111187	0	0	8060	568231	0	0
2024-08-07 23:39:47			0	37223	0	0	0	30054	28700	165690	27098	1071780	46041	111186	0	0	8059	568824	0	0
2024-08-07 23:40:47			0	37224	0	0	0	30059	28690	165714	27086	1071744	46052	111188	0	0	8059	568817	0	0
2024-08-07 23:41:47			0	37223	0	0	0	30090	28680	165762	26833	1071807	46062	111200	0	0	8058	568890	0	0
2024-08-07 23:42:47			0	37223	0	0	0	30101	28690	165766	27062	1071816	46074	111204	0	0	8058	568857	0	0
2024-08-07 23:43:47			0	37230	0	0	0	30093	28680	165634	27085	1071825	46061	111201	0	0	8059	568613	0	0
2024-08-07 23:44:47			0	37243	0	0	0	30090	28680	165718	27260	1071915	46062	111200	0	0	8060	568100	0	0
2024-08-07 23:45:47			0	37251	0	0	0	30046	28690	165770	27260	1071825	46041	111183	0	0	8061	567751	0	0
2024-08-07 23:46:47			0	37271	0	0	0	30088	28690	165634	27003	1071762	46074	111199	0	0	8061	566962	0	0
2024-08-07 23:47:47			0	37263	0	0	0	30062	28680	165470	27256	1071780	46051	111189	0	0	8061	567310	0	0
2024-08-07 23:48:47			0	37261	0	0	0	30059	28680	165602	27227	1071726	46051	111188	0	0	8061	567389	0	0
2024-08-07 23:49:47			0	37276	0	0	0	30041	28670	165530	27015	1071708	46038	111181	0	0	8062	566830	0	0
2024-08-07 23:50:47			0	37270	0	0	0	30059	28670	165566	26800	1071708	46049	111188	0	0	8062	567067	0	0
2024-08-07 23:51:47			0	37284	0	0	0	30072	28670	165494	26946	1071735	46060	111193	0	0	8062	566515	0	0
2024-08-07 23:52:47			0	37285	0	0	0	30054	28670	165490	26972	1071708	46060	111186	0	0	8063	566476	0	0
2024-08-07 23:53:47			0	37265	0	0	0	30062	28660	165566	27090	1071726	46038	111189	0	0	8061	567297	0	0
2024-08-07 23:54:47			0	37272	0	0	0	30070	28670	165442	27185	1071708	46049	111192	0	0	8062	566988	0	0
2024-08-07 23:55:47			0	37298	0	0	0	30044	28680	165506	26838	1071744	46050	111182	0	0	8064	565931	0	0
2024-08-07 23:56:47			0	37298	0	0	0	30041	28680	165530	27168	1071663	46061	111181	0	0	8064	565931	0	0
2024-08-07 23:57:47			0	37308	0	0	0	30028	28660	165466	27124	1071636	46059	111176	0	0	8064	565603	0	0
2024-08-07 23:58:47			0	37311	0	0	0	30025	28660	165490	26904	1071609	46048	111175	0	0	8065	565484	0	0
2024-08-07 23:59:47			0	37364	0	0	0	30025	28650	165379	27034	1071591	46058	111175	0	0	8068	563433	0	0
2024-08-08 00:00:47			0	37343	0	0	0	30031	28650	165219	26889	1071618	46047	111177	0	0	8066	564259	0	0
2024-08-08 00:01:47			0	37354	0	0	0	30005	28640	165343	26916	1071573	46046	111167	0	0	8067	563859	0	0
2024-08-08 00:02:47			0	37378	0	0	0	30015	28640	165207	26741	1071581	46036	111171	0	0	8069	562916	0	0
2024-08-08 00:03:47			0	37408	0	0	0	30015	28630	165123	26930	1071501	46045	111171	0	0	8070	561772	0	0
2024-08-08 00:04:47			0	37433	0	0	0	30020	28640	165027	26920	1071546	46057	111173	0	0	8072	560761	0	0
2024-08-08 00:05:47			0	37479	0	0	0	30012	28630	164807	26727	1071528	46056	111170	0	0	8074	558994	0	0
2024-08-08 00:06:47			0	37574	0	0	0	30002	28630	164299	26809	1071474	46056	111166	0	0	8080	555290	0	0
2024-08-08 00:07:47			0	37613	0	0	0	30007	28630	164279	26970	1071483	46069	111168	0	0	8082	553775	0	0
2024-08-08 00:08:47			0	37593	0	0	0	30020	28620	164247	27071	1071456	46044	111173	0	0	8081	554584	0	0
2024-08-08 00:09:47			0	37588	0	0	0	30020	28620	164303	26896	1071465	46044	111173	0	0	8081	554778	0	0
2024-08-08 00:10:47			0	37576	0	0	0	30018	28610	164431	26717	1071474	46033	111172	0	0	8080	555277	0	0
2024-08-08 00:11:47			0	37579	0	0	0	30012	28620	164335	27055	1071519	46055	111170	0	0	8080	555128	0	0
2024-08-08 00:12:47			0	37583	0	0	0	29994	28610	164431	26935	1071447	46044	111163	0	0	8081	555005	0	0
2024-08-08 00:13:47			0	37570	0	0	0	29986	28610	164391	27111	1071384	46054	111160	0	0	8080	555510	0	0
2024-08-08 00:14:47			0	37571	0	0	0	29966	28610	164355	27088	1071393	46044	111152	0	0	8080	555471	0	0
2024-08-08 00:15:47			0	37585	0	0	0	29984	28600	164375	26963	1071375	46053	111159	0	0	8081	554959	0	0
2024-08-08 00:16:47			0	37607	0	0	0	29994	28600	164275	27310	1071348	46042	111163	0	0	8082	554104	0	0
2024-08-08 00:17:47			0	37608	0	0	0	29997	28590	164159	26823	1071411	46042	111164	0	0	8082	554097	0	0
2024-08-08 00:18:47			0	37584	0	0	0	29999	28590	164247	26863	1071348	46041	111165	0	0	8081	555030	0	0
2024-08-08 00:19:47			0	37559	0	0	0	29997	28600	164395	27013	1071393	46076	111164	0	0	8079	555971	0	0
2024-08-08 00:20:47			0	37520	0	0	0	29958	28590	164535	26953	1071384	46053	111149	0	0	8078	557523	0	0
2024-08-08 00:21:47			0	37510	0	0	0	29979	28580	164519	26717	1071339	46063	111157	0	0	8077	557945	0	0
2024-08-08 00:22:47			0	37515	0	0	0	29994	28600	164623	27357	1071339	46053	111163	0	0	8077	557685	0	0
2024-08-08 00:23:47			0	37511	0	0	0	29986	28590	164651	26837	1071321	46052	111160	0	0	8077	557874	0	0
2024-08-08 00:24:47			0	37499	0	0	0	29981	28580	164667	26736	1071339	46063	111158	0	0	8076	558374	0	0
2024-08-08 00:25:47			0	37458	0	0	0	29966	28580	164739	27005	1071312	46051	111152	0	0	8074	559977	0	0
2024-08-08 00:26:47			0	37482	0	0	0	29986	28590	164755	26948	1071321	46030	111160	0	0	8075	559006	0	0
2024-08-08 00:27:47			0	37462	0	0	0	29963	28580	164895	27017	1071231	46051	111151	0	0	8074	559820	0	0
2024-08-08 00:28:47			0	37460	0	0	0	29961	28580	164823	26880	1071222	46051	111150	0	0	8074	559899	0	0
2024-08-08 00:29:47			0	37453	0	0	0	29966	28570	164915	26908	1071294	46050	111152	0	0	8073	560205	0	0
2024-08-08 00:30:47			0	37441	0	0	0	29950	28580	164931	26920	1071303	46063	111146	0	0	8073	560642	0	0
2024-08-08 00:31:47			0	37427	0	0	0	29958	28570	164867	26729	1071213	46062	111149	0	0	8072	561223	0	0
2024-08-08 00:32:47			0	37453	0	0	0	30002	28580	164939	27173	1071249	46063	111166	0	0	8073	560172	0	0
2024-08-08 00:33:47			0	37474	0	0	0	30007	28570	164903	26946	1071258	46073	111168	0	0	8074	559384	0	0
2024-08-08 00:34:47			0	37473	0	0	0	29989	28570	164819	26901	1071321	46073	111161	0	0	8074	559423	0	0
2024-08-08 00:35:47			0	37473	0	0	0	29968	28580	164747	26965	1071222	46063	111153	0	0	8075	559390	0	0
2024-08-08 00:36:47			0	37483	0	0	0	29968	28570	164743	26883	1071294	46050	111153	0	0	8075	559032	0	0
2024-08-08 00:37:47			0	37478	0	0	0	29963	28580	164671	26920	1071303	46041	111151	0	0	8075	559195	0	0
2024-08-08 00:38:47			0	37480	0	0	0	29981	28570	164711	26833	1071213	46040	111158	0	0	8075	559149	0	0
2024-08-08 00:39:47			0	37494	0	0	0	29973	28570	164719	26750	1071285	46040	111155	0	0	8076	558602	0	0
2024-08-08 00:40:47			0	37501	0	0	0	29973	28580	164707	26892	1071285	46051	111155	0	0	8076	558296	0	0
2024-08-08 00:41:47			0	37506	0	0	0	29989	28570	164691	26993	1071231	46050	111161	0	0	8076	558133	0	0
2024-08-08 00:42:47			0	37507	0	0	0	29981	28590	164599	26668	1071321	46075	111158	0	0	8076	558030	0	0
2024-08-08 00:43:47			0	37536	0	0	0	29973	28580	164523	26904	1071330	46063	111155	0	0	8078	556931	0	0
2024-08-08 00:44:47			0	37513	0	0	0	29992	28570	164663	27088	1071294	46062	111162	0	0	8076	557860	0	0
2024-08-08 00:45:47			0	37468	0	0	0	29999	28580	164659	27060	1071303	46063	111165	0	0	8074	559586	0	0
2024-08-08 00:46:47			0	37476	0	0	0	30002	28580	164803	26916	1071366	46051	111166	0	0	8074	559273	0	0
2024-08-08 00:47:47			0	37438	0	0	0	29984	28580	164931	26932	1071312	46051	111159	0	0	8072	560760	0	0
2024-08-08 00:48:47			0	37373	0	0	0	29971	28570	165243	26814	1071267	46062	111154	0	0	8069	563341	0	0
2024-08-08 00:49:47			0	37308	0	0	0	29955	28580	165414	27095	1071222	46051	111148	0	0	8065	565865	0	0
2024-08-08 00:50:47			0	37288	0	0	0	29940	28570	165634	26817	1071150	46040	111142	0	0	8064	566686	0	0
2024-08-08 00:51:47			0	37253	0	0	0	29935	28570	165866	26871	1071231	46050	111140	0	0	8062	568067	0	0
2024-08-08 00:52:47			0	37226	0	0	0	29966	28570	165934	26977	1071204	46040	111152	0	0	8060	569133	0	0
2024-08-08 00:53:47			0	37215	0	0	0	29971	28560	166002	26653	1071195	46061	111154	0	0	8059	569601	0	0
2024-08-08 00:54:47			0	37180	0	0	0	30010	28560	166098	27163	1071240	46060	111169	0	0	8057	570987	0	0
2024-08-08 00:55:47			0	37189	0	0	0	29999	28560	166114	26941	1071303	46072	111165	0	0	8057	570631	0	0
2024-08-08 00:56:47			0	37189	0	0	0	29989	28570	166046	27150	1071285	46062	111161	0	0	8058	570598	0	0
2024-08-08 00:57:47			0	37196	0	0	0	29966	28580	166082	26771	1071249	46041	111152	0	0	8059	570287	0	0
2024-08-08 00:58:47			0	37206	0	0	0	29942	28570	166022	27078	1071231	46028	111143	0	0	8059	569924	0	0
2024-08-08 00:59:47			0	37178	0	0	0	29958	28570	166070	26994	1071186	46050	111149	0	0	8058	571033	0	0
2024-08-08 01:00:47			0	37145	0	0	0	29940	28570	166066	27024	1071204	46050	111142	0	0	8056	572342	0	0
2024-08-08 01:01:47			0	37126	0	0	0	29966	28560	166302	26916	1071132	46048	111152	0	0	8054	573129	0	0
2024-08-08 01:02:47			0	37100	0	0	0	29979	28560	166406	27067	1071186	46060	111157	0	0	8053	574163	0	0
2024-08-08 01:03:47			0	37103	0	0	0	29971	28560	166382	26941	1071222	46061	111154	0	0	8053	574043	0	0
2024-08-08 01:04:47			0	37102	0	0	0	29968	28560	166462	27272	1071186	46048	111153	0	0	8053	574083	0	0
2024-08-08 01:05:47			0	37076	0	0	0	29997	28560	166374	27149	1071222	46049	111164	0	0	8051	575118	0	0
2024-08-08 01:06:47			0	37086	0	0	0	30010	28560	166338	26987	1071303	46061	111169	0	0	8051	574720	0	0
2024-08-08 01:07:47			0	37104	0	0	0	29968	28560	166362	27010	1071267	46071	111153	0	0	8053	574004	0	0
2024-08-08 01:08:47			0	37099	0	0	0	29979	28560	166442	26769	1071222	46061	111157	0	0	8053	574203	0	0
2024-08-08 01:09:47			0	37104	0	0	0	29973	28580	166450	27090	1071303	46063	111155	0	0	8053	573937	0	0
2024-08-08 01:10:47			0	37097	0	0	0	29945	28560	166338	27001	1071222	46061	111144	0	0	8053	574282	0	0
2024-08-08 01:11:47			0	37097	0	0	0	29942	28560	166442	27041	1071222	46049	111143	0	0	8053	574282	0	0
2024-08-08 01:12:47			0	37079	0	0	0	29935	28560	166454	26748	1071132	46038	111140	0	0	8052	574998	0	0
2024-08-08 01:13:47			0	37074	0	0	0	29945	28560	166522	26991	1071159	46048	111144	0	0	8052	575197	0	0
2024-08-08 01:14:47			0	37112	0	0	0	29929	28550	166362	27029	1071123	46060	111138	0	0	8054	573719	0	0
2024-08-08 01:15:47			0	37105	0	0	0	29927	28550	166262	27045	1071096	46038	111137	0	0	8054	573997	0	0
2024-08-08 01:16:47			0	37078	0	0	0	29922	28540	166498	27090	1071078	46037	111135	0	0	8052	575105	0	0
2024-08-08 01:17:47			0	37053	0	0	0	29927	28540	166642	26649	1071105	46047	111137	0	0	8051	576101	0	0
2024-08-08 01:18:47			0	37027	0	0	0	29919	28550	166746	26722	1071114	46038	111134	0	0	8049	577104	0	0
2024-08-08 01:19:47			0	36986	0	0	0	29919	28540	166934	27012	1071024	46037	111134	0	0	8047	578776	0	0
2024-08-08 01:20:47			0	36972	0	0	0	29916	28540	167054	26854	1071015	46046	111133	0	0	8046	579335	0	0
2024-08-08 01:21:47			0	36965	0	0	0	29924	28540	167002	27005	1071042	46058	111136	0	0	8046	579616	0	0
2024-08-08 01:22:47			0	36980	0	0	0	29927	28540	167042	26779	1071105	46059	111137	0	0	8046	579015	0	0
2024-08-08 01:23:47			0	36993	0	0	0	29929	28530	167022	26923	1071006	46058	111138	0	0	8047	578529	0	0
2024-08-08 01:24:47			0	36975	0	0	0	29924	28530	166974	26972	1071060	46046	111136	0	0	8046	579249	0	0
2024-08-08 01:25:47			0	36958	0	0	0	29922	28540	167110	26668	1071069	46046	111135	0	0	8045	579896	0	0
2024-08-08 01:26:47			0	36945	0	0	0	29909	28540	167154	27248	1071051	46059	111130	0	0	8045	580417	0	0
2024-08-08 01:27:47			0	36950	0	0	0	29911	28530	167186	27102	1071024	46046	111131	0	0	8045	580250	0	0
2024-08-08 01:28:47			0	36926	0	0	0	29906	28530	167330	27060	1070979	46046	111129	0	0	8044	581212	0	0
2024-08-08 01:29:47			0	36920	0	0	0	29903	28520	167314	26982	1070934	46057	111128	0	0	8043	581486	0	0
2024-08-08 01:30:47			0	36895	0	0	0	29924	28510	167434	27001	1070997	46056	111136	0	0	8041	582523	0	0
2024-08-08 01:31:47			0	36906	0	0	0	29922	28510	167450	27280	1070970	46067	111135	0	0	8042	582081	0	0
2024-08-08 01:32:47			0	36903	0	0	0	29901	28520	167346	27145	1071006	46044	111127	0	0	8042	582168	0	0
2024-08-08 01:33:47			0	36904	0	0	0	29919	28510	167506	27137	1070934	46044	111134	0	0	8042	582162	0	0
2024-08-08 01:34:47			0	36900	0	0	0	29911	28510	167474	27180	1070961	46056	111131	0	0	8042	582322	0	0
2024-08-08 01:35:47			0	36883	0	0	0	29896	28520	167542	26717	1070925	46056	111125	0	0	8041	582971	0	0
2024-08-08 01:36:47			0	36877	0	0	0	29919	28510	167574	26998	1070907	46056	111134	0	0	8040	583246	0	0
2024-08-08 01:37:47			0	36877	0	0	0	29919	28500	167594	26942	1070943	46054	111134	0	0	8040	583280	0	0
2024-08-08 01:38:47			0	36871	0	0	0	29919	28510	167518	26880	1070970	46056	111134	0	0	8040	583487	0	0
2024-08-08 01:39:47			0	36862	0	0	0	29898	28520	167558	26491	1070952	46044	111126	0	0	8040	583816	0	0
2024-08-08 01:40:47			0	36866	0	0	0	29893	28520	167566	26930	1070952	46044	111124	0	0	8040	583655	0	0
2024-08-08 01:41:47			0	36847	0	0	0	29903	28510	167646	26847	1070943	46044	111128	0	0	8039	584453	0	0
2024-08-08 01:42:47			0	36859	0	0	0	29911	28510	167642	26989	1070853	46044	111131	0	0	8039	583970	0	0
2024-08-08 01:43:47			0	36839	0	0	0	29890	28500	167610	27109	1070925	46043	111123	0	0	8039	584809	0	0
2024-08-08 01:44:47			0	36837	0	0	0	29893	28500	167746	26876	1070898	46055	111124	0	0	8038	584889	0	0
2024-08-08 01:45:47			0	36828	0	0	0	29893	28500	167710	26927	1070871	46043	111124	0	0	8038	585252	0	0
2024-08-08 01:46:47			0	36816	0	0	0	29896	28500	167798	27052	1070844	46066	111125	0	0	8037	585735	0	0
2024-08-08 01:47:47			0	36837	0	0	0	29914	28500	167714	26956	1070871	46055	111132	0	0	8038	584889	0	0
2024-08-08 01:48:47			0	36841	0	0	0	29906	28500	167794	26811	1070898	46055	111129	0	0	8038	584728	0	0
2024-08-08 01:49:47			0	36838	0	0	0	29901	28500	167682	27020	1070835	46065	111127	0	0	8038	584849	0	0
2024-08-08 01:50:47			0	36844	0	0	0	29903	28500	167654	26960	1070862	46042	111128	0	0	8039	584607	0	0
2024-08-08 01:51:47			0	36839	0	0	0	29896	28510	167706	27015	1070934	46056	111125	0	0	8038	584775	0	0
2024-08-08 01:52:47			0	36817	0	0	0	29893	28500	167786	27180	1070871	46021	111124	0	0	8037	585695	0	0
2024-08-08 01:53:47			0	36859	0	0	0	29903	28510	167786	26871	1070907	46044	111128	0	0	8040	583970	0	0
2024-08-08 01:54:47			0	36828	0	0	0	29877	28500	167930	27107	1070835	46054	111118	0	0	8038	585252	0	0
2024-08-08 01:55:47			0	36830	0	0	0	29885	28490	167862	26726	1070880	46053	111121	0	0	8038	585205	0	0
2024-08-08 01:56:47			0	36804	0	0	0	29864	28510	167882	27107	1070853	46044	111113	0	0	8037	586185	0	0
2024-08-08 01:57:47			0	36800	0	0	0	29864	28490	167946	26660	1070790	46053	111113	0	0	8037	586415	0	0
2024-08-08 01:58:47			0	36786	0	0	0	29877	28490	168046	26722	1070799	46041	111118	0	0	8036	586980	0	0
2024-08-08 01:59:47			0	36784	0	0	0	29888	28480	168034	26809	1070808	46041	111122	0	0	8035	587094	0	0
2024-08-08 02:00:47			0	36761	0	0	0	29906	28490	168114	27050	1070853	46053	111129	0	0	8034	587989	0	0
2024-08-08 02:01:47			0	36784	0	0	0	29885	28480	168042	26876	1070808	46041	111121	0	0	8035	587094	0	0
2024-08-08 02:02:47			0	36778	0	0	0	29883	28490	167966	26899	1070826	46053	111120	0	0	8035	587303	0	0
2024-08-08 02:03:47			0	36777	0	0	0	29872	28490	168034	27170	1070790	46041	111116	0	0	8035	587343	0	0
2024-08-08 02:04:47			0	36778	0	0	0	29883	28480	167990	27131	1070754	46041	111120	0	0	8035	587337	0	0
2024-08-08 02:05:47			0	36811	0	0	0	29893	28490	167934	27185	1070799	46053	111124	0	0	8037	585971	0	0
2024-08-08 02:06:47			0	36819	0	0	0	29867	28490	168054	26972	1070763	46041	111114	0	0	8038	585648	0	0
2024-08-08 02:07:47			0	36817	0	0	0	29862	28490	167942	27170	1070817	46041	111112	0	0	8038	585729	0	0
2024-08-08 02:08:47			0	36789	0	0	0	29851	28470	167982	27270	1070763	46040	111108	0	0	8036	586926	0	0
2024-08-08 02:09:47			0	36761	0	0	0	29862	28480	168178	26757	1070772	46030	111112	0	0	8034	588023	0	0
2024-08-08 02:10:47			0	36725	0	0	0	29883	28480	168178	27000	1070772	46052	111120	0	0	8032	589480	0	0
2024-08-08 02:11:47			0	36717	0	0	0	29890	28480	168314	26826	1070826	46052	111123	0	0	8031	589804	0	0
2024-08-08 02:12:47			0	36713	0	0	0	29885	28480	168350	27187	1070772	46052	111121	0	0	8031	589966	0	0
2024-08-08 02:13:47			0	36723	0	0	0	29888	28480	168306	26982	1070727	46053	111122	0	0	8032	589561	0	0
2024-08-08 02:14:47			0	36733	0	0	0	29890	28480	168250	27222	1070808	46053	111123	0	0	8032	589156	0	0
2024-08-08 02:15:47			0	36724	0	0	0	29883	28480	168322	27135	1070835	46041	111120	0	0	8032	589520	0	0
2024-08-08 02:16:47			0	36727	0	0	0	29867	28490	168374	27173	1070790	46041	111114	0	0	8032	589365	0	0
2024-08-08 02:17:47			0	36727	0	0	0	29870	28480	168370	27173	1070826	46030	111115	0	0	8032	589399	0	0
2024-08-08 02:18:47			0	36706	0	0	0	29859	28480	168446	27223	1070718	46041	111111	0	0	8031	590249	0	0
2024-08-08 02:19:47			0	36719	0	0	0	29859	28480	168258	26823	1070745	46052	111111	0	0	8032	589723	0	0
2024-08-08 02:20:47			0	36697	0	0	0	29870	28470	168442	26930	1070763	46040	111115	0	0	8030	590648	0	0
2024-08-08 02:21:47			0	36687	0	0	0	29857	28470	168458	27242	1070727	46040	111110	0	0	8030	591054	0	0
2024-08-08 02:22:47			0	36664	0	0	0	29859	28480	168558	26698	1070691	46052	111111	0	0	8029	591953	0	0
2024-08-08 02:23:47			0	36678	0	0	0	29854	28480	168494	26930	1070727	46053	111109	0	0	8030	591385	0	0
2024-08-08 02:24:47			0	36673	0	0	0	29862	28470	168438	27072	1070700	46040	111112	0	0	8029	591622	0	0
2024-08-08 02:25:47			0	36671	0	0	0	29844	28460	168634	26916	1070709	46039	111105	0	0	8029	591737	0	0
2024-08-08 02:26:47			0	36657	0	0	0	29844	28460	168630	27031	1070655	46061	111105	0	0	8028	592306	0	0
2024-08-08 02:27:47			0	36661	0	0	0	29854	28460	168622	26927	1070682	46050	111109	0	0	8028	592143	0	0
2024-08-08 02:28:47			0	36650	0	0	0	29857	28460	168670	26956	1070691	46051	111110	0	0	8028	592590	0	0
2024-08-08 02:29:47			0	36654	0	0	0	29857	28450	168622	26928	1070646	46060	111110	0	0	8028	592462	0	0
2024-08-08 02:30:47			0	36648	0	0	0	29851	28460	168638	27201	1070601	46050	111108	0	0	8028	592672	0	0
2024-08-08 02:31:47			0	36659	0	0	0	29849	28460	168686	26967	1070655	46039	111107	0	0	8028	592225	0	0
2024-08-08 02:32:47			0	36646	0	0	0	29851	28460	168654	26726	1070682	46050	111108	0	0	8028	592753	0	0
2024-08-08 02:33:47			0	36658	0	0	0	29846	28460	168638	26811	1070682	46039	111106	0	0	8028	592265	0	0
2024-08-08 02:34:47			0	36663	0	0	0	29836	28460	168630	27059	1070628	46039	111102	0	0	8029	592062	0	0
2024-08-08 02:35:47			0	36659	0	0	0	29846	28450	168722	27107	1070565	46049	111106	0	0	8028	592259	0	0
2024-08-08 02:36:47			0	36647	0	0	0	29825	28460	168670	26769	1070610	46040	111098	0	0	8028	592712	0	0
2024-08-08 02:37:47			0	36657	0	0	0	29820	28450	168598	27029	1070664	46038	111096	0	0	8029	592340	0	0
2024-08-08 02:38:47			0	36657	0	0	0	29831	28440	168702	27171	1070574	46049	111100	0	0	8029	592374	0	0
2024-08-08 02:39:47			0	36666	0	0	0	29841	28450	168634	27215	1070556	46060	111104	0	0	8029	591974	0	0
2024-08-08 02:40:47			0	36666	0	0	0	29841	28440	168622	27083	1070547	46060	111104	0	0	8029	592009	0	0
2024-08-08 02:41:47			0	36685	0	0	0	29844	28440	168574	27012	1070655	46072	111105	0	0	8030	591237	0	0
2024-08-08 02:42:47			0	36688	0	0	0	29833	28440	168490	26941	1070574	46049	111101	0	0	8030	591116	0	0
2024-08-08 02:43:47			0	36700	0	0	0	29833	28440	168450	27152	1070547	46049	111101	0	0	8031	590629	0	0
2024-08-08 02:44:47			0	36721	0	0	0	29831	28440	168422	27112	1070484	46037	111100	0	0	8032	589778	0	0
2024-08-08 02:45:47			0	36710	0	0	0	29818	28440	168378	26828	1070520	46060	111095	0	0	8032	590224	0	0
2024-08-08 02:46:47			0	36714	0	0	0	29828	28440	168398	27209	1070547	46038	111099	0	0	8032	590062	0	0
2024-08-08 02:47:47			0	36720	0	0	0	29825	28430	168290	27118	1070502	46025	111098	0	0	8032	589853	0	0
2024-08-08 02:48:47			0	36729	0	0	0	29828	28430	168310	27187	1070556	46070	111099	0	0	8033	589488	0	0
2024-08-08 02:49:47			0	36738	0	0	0	29823	28430	168286	27272	1070556	46058	111097	0	0	8033	589124	0	0
2024-08-08 02:50:47			0	36731	0	0	0	29851	28440	168274	27274	1070538	46048	111108	0	0	8033	589373	0	0
2024-08-08 02:51:47			0	36737	0	0	0	29841	28440	168250	27296	1070574	46049	111104	0	0	8033	589130	0	0
2024-08-08 02:52:47			0	36753	0	0	0	29838	28440	168170	26856	1070484	46059	111103	0	0	8034	588483	0	0
2024-08-08 02:53:47			0	36762	0	0	0	29831	28450	168290	26809	1070529	46049	111100	0	0	8035	588085	0	0
2024-08-08 02:54:47			0	36758	0	0	0	29831	28440	168126	27284	1070511	46048	111100	0	0	8034	588281	0	0
2024-08-08 02:55:47			0	36764	0	0	0	29820	28440	168154	27157	1070538	46037	111096	0	0	8035	588038	0	0
2024-08-08 02:56:47			0	36761	0	0	0	29844	28440	168242	27116	1070565	46037	111105	0	0	8034	588159	0	0
2024-08-08 02:57:47			0	36760	0	0	0	29833	28430	168090	27083	1070475	46047	111101	0	0	8035	588234	0	0
2024-08-08 02:58:47			0	36768	0	0	0	29857	28440	168182	27039	1070565	46059	111110	0	0	8035	587876	0	0
2024-08-08 02:59:47			0	36753	0	0	0	29828	28420	168054	26837	1070511	46036	111099	0	0	8034	588551	0	0
2024-08-08 03:00:47			0	36765	0	0	0	29836	28430	168058	26771	1070529	46047	111102	0	0	8035	588032	0	0
2024-08-08 03:01:47			0	36770	0	0	0	29851	28440	168134	27225	1070538	46048	111108	0	0	8035	587796	0	0
2024-08-08 03:02:47			0	36765	0	0	0	29841	28440	168102	26901	1070547	46072	111104	0	0	8035	587998	0	0
2024-08-08 03:03:47			0	36769	0	0	0	29825	28440	168070	26935	1070538	46048	111098	0	0	8035	587836	0	0
2024-08-08 03:04:47			0	36767	0	0	0	29846	28430	168038	27052	1070610	46058	111106	0	0	8035	587951	0	0
2024-08-08 03:05:47			0	36767	0	0	0	29844	28430	168110	26904	1070610	46047	111105	0	0	8035	587951	0	0
2024-08-08 03:06:47			0	36773	0	0	0	29841	28440	168122	26668	1070574	46060	111104	0	0	8035	587674	0	0
2024-08-08 03:07:47			0	36778	0	0	0	29833	28440	168090	26901	1070565	46048	111101	0	0	8036	587472	0	0
2024-08-08 03:08:47			0	36790	0	0	0	29833	28440	167990	26583	1070592	46048	111101	0	0	8036	586988	0	0
2024-08-08 03:09:47			0	36801	0	0	0	29838	28440	168094	26875	1070547	46060	111103	0	0	8037	586544	0	0
2024-08-08 03:10:47			0	36777	0	0	0	29833	28440	168202	26835	1070628	46049	111101	0	0	8036	587513	0	0
2024-08-08 03:11:47			0	36779	0	0	0	29828	28430	167990	26956	1070502	46058	111099	0	0	8036	587466	0	0
2024-08-08 03:12:47			0	36801	0	0	0	29825	28430	167966	27062	1070556	46047	111098	0	0	8037	586578	0	0
2024-08-08 03:13:47			0	36791	0	0	0	29838	28430	168062	27092	1070493	46057	111103	0	0	8036	586981	0	0
2024-08-08 03:14:47			0	36811	0	0	0	29818	28430	168146	26882	1070520	46036	111095	0	0	8038	586174	0	0
2024-08-08 03:15:47			0	36810	0	0	0	29828	28430	168018	27026	1070601	46036	111099	0	0	8038	586215	0	0
2024-08-08 03:16:47			0	36803	0	0	0	29841	28430	167982	26915	1070547	46057	111104	0	0	8037	586497	0	0
2024-08-08 03:17:47			0	36808	0	0	0	29818	28430	167950	26991	1070556	46047	111095	0	0	8038	586295	0	0
2024-08-08 03:18:47			0	36799	0	0	0	29828	28420	168070	26800	1070538	46036	111099	0	0	8037	586692	0	0
2024-08-08 03:19:47			0	36811	0	0	0	29815	28430	167966	27133	1070502	46036	111094	0	0	8038	586174	0	0
2024-08-08 03:20:47			0	36794	0	0	0	29815	28430	168118	26746	1070502	46047	111094	0	0	8037	586860	0	0
2024-08-08 03:21:47			0	36781	0	0	0	29825	28420	168050	26944	1070565	46046	111098	0	0	8036	587419	0	0
2024-08-08 03:22:47			0	36784	0	0	0	29820	28430	168110	26979	1070475	46058	111096	0	0	8036	587264	0	0
2024-08-08 03:23:47			0	36786	0	0	0	29815	28430	168042	27102	1070520	46046	111094	0	0	8036	587183	0	0
2024-08-08 03:24:47			0	36790	0	0	0	29825	28430	168090	27178	1070529	46058	111098	0	0	8036	587022	0	0
2024-08-08 03:25:47			0	36792	0	0	0	29807	28430	168126	27003	1070520	46057	111091	0	0	8037	586941	0	0
2024-08-08 03:26:47			0	36795	0	0	0	29825	28420	168074	27253	1070484	46046	111098	0	0	8037	586854	0	0
2024-08-08 03:27:47			0	36785	0	0	0	29820	28420	168178	26989	1070502	46046	111096	0	0	8036	587258	0	0
2024-08-08 03:28:47			0	36790	0	0	0	29815	28430	168074	27066	1070529	46047	111094	0	0	8037	587022	0	0
2024-08-08 03:29:47			0	36794	0	0	0	29820	28430	168162	27209	1070493	46057	111096	0	0	8037	586860	0	0
2024-08-08 03:30:47			0	36787	0	0	0	29836	28420	168146	26805	1070484	46046	111102	0	0	8036	587177	0	0
2024-08-08 03:31:47			0	36801	0	0	0	29820	28420	168102	27175	1070475	46046	111096	0	0	8037	586612	0	0
2024-08-08 03:32:47			0	36792	0	0	0	29823	28420	168006	26915	1070448	46046	111097	0	0	8037	586975	0	0
2024-08-08 03:33:47			0	36784	0	0	0	29818	28410	168094	27138	1070412	46045	111095	0	0	8036	587332	0	0
2024-08-08 03:34:47			0	36783	0	0	0	29815	28430	168170	27086	1070502	46047	111094	0	0	8036	587304	0	0
2024-08-08 03:35:47			0	36786	0	0	0	29810	28420	168182	26960	1070484	46036	111092	0	0	8036	587217	0	0
2024-08-08 03:36:47			0	36765	0	0	0	29820	28420	168150	26857	1070484	46046	111096	0	0	8035	588066	0	0
2024-08-08 03:37:47			0	36772	0	0	0	29810	28420	168142	27150	1070502	46046	111092	0	0	8036	587783	0	0
2024-08-08 03:38:47			0	36757	0	0	0	29820	28410	168194	26864	1070430	46055	111096	0	0	8034	588423	0	0
2024-08-08 03:39:47			0	36773	0	0	0	29818	28420	168166	27008	1070457	46046	111095	0	0	8035	587742	0	0
2024-08-08 03:40:47			0	36769	0	0	0	29823	28430	168334	27107	1070520	46057	111097	0	0	8035	587870	0	0
2024-08-08 03:41:47			0	36782	0	0	0	29823	28410	168158	27170	1070439	46045	111097	0	0	8036	587413	0	0
2024-08-08 03:42:47			0	36782	0	0	0	29831	28420	168070	27244	1070565	46069	111100	0	0	8036	587379	0	0
2024-08-08 03:43:47			0	36792	0	0	0	29825	28420	167990	26762	1070484	46057	111098	0	0	8036	586975	0	0
2024-08-08 03:44:47			0	36783	0	0	0	29812	28420	168034	26968	1070538	46046	111093	0	0	8036	587338	0	0
2024-08-08 03:45:47			0	36791	0	0	0	29831	28420	168142	27053	1070484	46046	111100	0	0	8036	587015	0	0
2024-08-08 03:46:47			0	36777	0	0	0	29815	28420	168178	27170	1070538	46036	111094	0	0	8036	587581	0	0
2024-08-08 03:47:47			0	36786	0	0	0	29825	28420	168078	26743	1070538	46046	111098	0	0	8036	587217	0	0
2024-08-08 03:48:47			0	36783	0	0	0	29833	28420	168102	27180	1070529	46046	111101	0	0	8036	587338	0	0
2024-08-08 03:49:47			0	36778	0	0	0	29836	28420	168114	27052	1070529	46069	111102	0	0	8035	587540	0	0
2024-08-08 03:50:47			0	36780	0	0	0	29823	28420	168174	26850	1070565	46046	111097	0	0	8036	587460	0	0
2024-08-08 03:51:47			0	36798	0	0	0	29831	28420	168150	26802	1070538	46036	111100	0	0	8037	586733	0	0
2024-08-08 03:52:47			0	36783	0	0	0	29818	28430	168102	26993	1070502	46047	111095	0	0	8036	587304	0	0
2024-08-08 03:53:47			0	36783	0	0	0	29828	28430	168050	27097	1070466	46046	111099	0	0	8036	587304	0	0
2024-08-08 03:54:47			0	36789	0	0	0	29818	28420	168138	26968	1070484	46057	111095	0	0	8036	587096	0	0
2024-08-08 03:55:47			0	36785	0	0	0	29823	28430	168058	27001	1070493	46046	111097	0	0	8036	587224	0	0
2024-08-08 03:56:47			0	36787	0	0	0	29815	28420	168086	27137	1070538	46057	111094	0	0	8036	587177	0	0
2024-08-08 03:57:47			0	36783	0	0	0	29805	28420	168082	27119	1070511	46057	111090	0	0	8036	587338	0	0
2024-08-08 03:58:47			0	36769	0	0	0	29807	28420	168198	26804	1070484	46046	111091	0	0	8035	587904	0	0
2024-08-08 03:59:47			0	36782	0	0	0	29802	28420	168226	27123	1070421	46057	111089	0	0	8036	587379	0	0
2024-08-08 04:00:47			0	36789	0	0	0	29797	28420	168118	27116	1070421	46036	111087	0	0	8037	587096	0	0
2024-08-08 04:01:47			0	36754	0	0	0	29792	28410	168318	26941	1070430	46033	111085	0	0	8035	588545	0	0
2024-08-08 04:02:47			0	36731	0	0	0	29779	28420	168278	27118	1070394	46057	111080	0	0	8034	589441	0	0
2024-08-08 04:03:47			0	36753	0	0	0	29792	28410	168354	27045	1070403	46033	111085	0	0	8035	588585	0	0
2024-08-08 04:04:47			0	36742	0	0	0	29818	28410	168374	27182	1070439	46056	111095	0	0	8034	589030	0	0
2024-08-08 04:05:47			0	36723	0	0	0	29836	28410	168438	27268	1070484	46067	111102	0	0	8032	589800	0	0
2024-08-08 04:06:47			0	36694	0	0	0	29831	28410	168450	27059	1070511	46067	111100	0	0	8031	590975	0	0
2024-08-08 04:07:47			0	36715	0	0	0	29797	28410	168466	27175	1070520	46068	111087	0	0	8032	590124	0	0
2024-08-08 04:08:47			0	36707	0	0	0	29779	28410	168466	26896	1070466	46045	111080	0	0	8032	590448	0	0
2024-08-08 04:09:47			0	36705	0	0	0	29779	28410	168470	27144	1070403	46044	111080	0	0	8032	590529	0	0
2024-08-08 04:10:47			0	36727	0	0	0	29779	28400	168398	27173	1070367	46044	111080	0	0	8033	589671	0	0
2024-08-08 04:11:47			0	36735	0	0	0	29771	28390	168398	27274	1070349	46043	111077	0	0	8034	589382	0	0
2024-08-08 04:12:47			0	36699	0	0	0	29784	28400	168606	26850	1070412	46044	111082	0	0	8032	590806	0	0
2024-08-08 04:13:47			0	36661	0	0	0	29779	28400	168714	26887	1070358	46033	111080	0	0	8029	592349	0	0
2024-08-08 04:14:47			0	36667	0	0	0	29774	28400	168706	27118	1070313	46044	111078	0	0	8030	592105	0	0
2024-08-08 04:15:47			0	36651	0	0	0	29784	28400	168774	26994	1070331	46044	111082	0	0	8029	592755	0	0
2024-08-08 04:16:47			0	36653	0	0	0	29792	28370	168834	26906	1070322	46042	111085	0	0	8029	592777	0	0
2024-08-08 04:17:47			0	36645	0	0	0	29789	28380	168738	26847	1070367	46053	111084	0	0	8028	593068	0	0
2024-08-08 04:18:47			0	36654	0	0	0	29794	28380	168730	27232	1070394	46053	111086	0	0	8029	592702	0	0
2024-08-08 04:19:47			0	36639	0	0	0	29802	28390	168742	26882	1070376	46066	111089	0	0	8028	593277	0	0
2024-08-08 04:20:47			0	36635	0	0	0	29805	28400	168822	27055	1070367	46055	111090	0	0	8027	593406	0	0
2024-08-08 04:21:47			0	36650	0	0	0	29802	28400	168838	26967	1070421	46055	111089	0	0	8028	592796	0	0
2024-08-08 04:22:47			0	36627	0	0	0	29797	28380	168930	27128	1070421	46053	111087	0	0	8027	593800	0	0
2024-08-08 04:23:47			0	36647	0	0	0	29799	28400	168830	27230	1070358	46055	111088	0	0	8028	592918	0	0
2024-08-08 04:24:47			0	36646	0	0	0	29805	28400	168722	27074	1070394	46055	111090	0	0	8028	592958	0	0
2024-08-08 04:25:47			0	36663	0	0	0	29792	28390	168650	26989	1070403	46043	111085	0	0	8029	592302	0	0
2024-08-08 04:26:47			0	36680	0	0	0	29794	28400	168586	27043	1070394	46033	111086	0	0	8030	591577	0	0
2024-08-08 04:27:47			0	36685	0	0	0	29789	28400	168694	27189	1070385	46044	111084	0	0	8031	591374	0	0
2024-08-08 04:28:47			0	36677	0	0	0	29807	28400	168590	26887	1070385	46044	111091	0	0	8030	591699	0	0
2024-08-08 04:29:47			0	36713	0	0	0	29807	28390	168546	26701	1070349	46054	111091	0	0	8032	590273	0	0
2024-08-08 04:30:47			0	36713	0	0	0	29784	28400	168570	27053	1070394	46055	111082	0	0	8032	590239	0	0
2024-08-08 04:31:47			0	36715	0	0	0	29781	28390	168470	26887	1070349	46043	111081	0	0	8033	590192	0	0
2024-08-08 04:32:47			0	36728	0	0	0	29784	28400	168482	26942	1070277	46033	111082	0	0	8033	589631	0	0
2024-08-08 04:33:47			0	36698	0	0	0	29779	28380	168542	26736	1070250	46053	111080	0	0	8032	590915	0	0
2024-08-08 04:34:47			0	36705	0	0	0	29771	28390	168558	27003	1070349	46066	111077	0	0	8032	590597	0	0
2024-08-08 04:35:47			0	36694	0	0	0	29761	28400	168586	26882	1070304	46033	111073	0	0	8032	591009	0	0
2024-08-08 04:36:47			0	36708	0	0	0	29755	28370	168646	26970	1070187	46042	111071	0	0	8032	590544	0	0
2024-08-08 04:37:47			0	36712	0	0	0	29776	28390	168570	26870	1070295	46043	111079	0	0	8032	590313	0	0
2024-08-08 04:38:47			0	36711	0	0	0	29781	28370	168626	26890	1070268	46053	111081	0	0	8032	590422	0	0
2024-08-08 04:39:47			0	36708	0	0	0	29779	28380	168502	26875	1070277	46053	111080	0	0	8032	590510	0	0
2024-08-08 04:40:47			0	36693	0	0	0	29774	28370	168574	27057	1070232	46052	111078	0	0	8031	591152	0	0
2024-08-08 04:41:47			0	36711	0	0	0	29779	28380	168518	27218	1070331	46042	111080	0	0	8032	590388	0	0
2024-08-08 04:42:47			0	36696	0	0	0	29781	28370	168574	26871	1070349	46053	111081	0	0	8031	591031	0	0
2024-08-08 04:43:47			0	36677	0	0	0	29776	28380	168606	27053	1070331	46065	111079	0	0	8030	591768	0	0
2024-08-08 04:44:47			0	36700	0	0	0	29781	28380	168614	26840	1070277	46053	111081	0	0	8032	590834	0	0
2024-08-08 04:45:47			0	36689	0	0	0	29776	28380	168534	27239	1070367	46053	111079	0	0	8031	591280	0	0
2024-08-08 04:46:47			0	36689	0	0	0	29781	28390	168646	27275	1070376	46054	111081	0	0	8031	591246	0	0
2024-08-08 04:47:47			0	36686	0	0	0	29763	28390	168610	26974	1070376	46054	111074	0	0	8031	591368	0	0
2024-08-08 04:48:47			0	36686	0	0	0	29786	28380	168602	27249	1070286	46053	111083	0	0	8031	591402	0	0
2024-08-08 04:49:47			0	36682	0	0	0	29763	28380	168602	27133	1070259	46042	111074	0	0	8031	591565	0	0
2024-08-08 04:50:47			0	36690	0	0	0	29774	28370	168658	27277	1070214	46042	111078	0	0	8031	591274	0	0
2024-08-08 04:51:47			0	36667	0	0	0	29768	28370	168674	27218	1070322	46042	111076	0	0	8030	592208	0	0
2024-08-08 04:52:47			0	36675	0	0	0	29761	28380	168638	27331	1070277	46053	111073	0	0	8030	591849	0	0
2024-08-08 04:53:47			0	36682	0	0	0	29740	28370	168678	27060	1070232	46030	111065	0	0	8031	591599	0	0
2024-08-08 04:54:47			0	36654	0	0	0	29750	28360	168726	26809	1070241	46040	111069	0	0	8029	592770	0	0
2024-08-08 04:55:47			0	36652	0	0	0	29750	28360	168890	26960	1070277	46051	111069	0	0	8029	592852	0	0
2024-08-08 04:56:47			0	36644	0	0	0	29753	28370	168926	27118	1070178	46041	111070	0	0	8029	593143	0	0
2024-08-08 04:57:47			0	36631	0	0	0	29742	28360	168894	26948	1070187	46040	111066	0	0	8028	593706	0	0
2024-08-08 04:58:47			0	36624	0	0	0	29761	28360	168922	27064	1070196	46041	111073	0	0	8027	593991	0	0
2024-08-08 04:59:47			0	36604	0	0	0	29763	28360	169006	27208	1070169	46063	111074	0	0	8026	594805	0	0
2024-08-08 05:00:47			0	36620	0	0	0	29732	28350	168930	27208	1070223	46050	111062	0	0	8028	594188	0	0
2024-08-08 05:01:47			0	36637	0	0	0	29732	28350	168982	26920	1070142	46040	111062	0	0	8029	593496	0	0
2024-08-08 05:02:47			0	36633	0	0	0	29735	28340	168978	27192	1070133	46049	111063	0	0	8028	593693	0	0
2024-08-08 05:03:47			0	36637	0	0	0	29742	28360	168906	27107	1070187	46040	111066	0	0	8028	593462	0	0
2024-08-08 05:04:47			0	36629	0	0	0	29737	28350	168934	27213	1070205	46028	111064	0	0	8028	593822	0	0
2024-08-08 05:05:47			0	36590	0	0	0	29740	28350	169134	27140	1070089	46050	111065	0	0	8026	595410	0	0
2024-08-08 05:06:47			0	36557	0	0	0	29748	28340	169157	26994	1070124	46048	111068	0	0	8024	596791	0	0
2024-08-08 05:07:47			0	36581	0	0	0	29750	28350	169197	26826	1070142	46050	111069	0	0	8025	595777	0	0
2024-08-08 05:08:47			0	36579	0	0	0	29742	28340	169113	27249	1070160	46028	111066	0	0	8025	595894	0	0
2024-08-08 05:09:47			0	36585	0	0	0	29735	28350	169241	27270	1070151	46040	111063	0	0	8025	595614	0	0
2024-08-08 05:10:47			0	36544	0	0	0	29724	28340	169149	27010	1070080	46016	111059	0	0	8023	597323	0	0
2024-08-08 05:11:47			0	36576	0	0	0	29729	28340	169209	27036	1070133	46049	111061	0	0	8025	596016	0	0
2024-08-08 05:12:47			0	36562	0	0	0	29750	28340	169169	27317	1070097	46048	111069	0	0	8024	596587	0	0
2024-08-08 05:13:47			0	36533	0	0	0	29745	28340	169353	26894	1070080	46049	111067	0	0	8022	597772	0	0
2024-08-08 05:14:47			0	36534	0	0	0	29742	28350	169333	27053	1070142	46050	111066	0	0	8022	597697	0	0
2024-08-08 05:15:47			0	36539	0	0	0	29745	28350	169373	27364	1070115	46040	111067	0	0	8023	597492	0	0
2024-08-08 05:16:47			0	36525	0	0	0	29748	28340	169357	27152	1070106	46061	111068	0	0	8022	598099	0	0
2024-08-08 05:17:47			0	36531	0	0	0	29753	28350	169365	27012	1070196	46062	111070	0	0	8022	597820	0	0
2024-08-08 05:18:47			0	36514	0	0	0	29729	28340	169497	27237	1070124	46048	111061	0	0	8021	598549	0	0
2024-08-08 05:19:47			0	36518	0	0	0	29729	28340	169437	26852	1070106	46039	111061	0	0	8022	598386	0	0
2024-08-08 05:20:47			0	36549	0	0	0	29722	28340	169409	26887	1070071	46048	111058	0	0	8023	597118	0	0
2024-08-08 05:21:47			0	36545	0	0	0	29724	28340	169481	27173	1070097	46038	111059	0	0	8023	597282	0	0
2024-08-08 05:22:47			0	36517	0	0	0	29711	28330	169441	26920	1070062	46048	111054	0	0	8022	598461	0	0
2024-08-08 05:23:47			0	36507	0	0	0	29701	28330	169349	26996	1070026	46027	111050	0	0	8021	598871	0	0
2024-08-08 05:24:47			0	36515	0	0	0	29711	28330	169569	26958	1070026	46038	111054	0	0	8022	598543	0	0
2024-08-08 05:25:47			0	36508	0	0	0	29701	28320	169505	27358	1069954	46025	111050	0	0	8021	598864	0	0
2024-08-08 05:26:47			0	36498	0	0	0	29698	28320	169445	27074	1069981	46058	111049	0	0	8021	599274	0	0
2024-08-08 05:27:47			0	36499	0	0	0	29701	28330	169525	27147	1070035	46048	111050	0	0	8021	599198	0	0
2024-08-08 05:28:47			0	36506	0	0	0	29688	28320	169553	26989	1069900	46046	111045	0	0	8021	598946	0	0
2024-08-08 05:29:47			0	36497	0	0	0	29693	28310	169609	27029	1069972	46046	111047	0	0	8021	599349	0	0
2024-08-08 05:30:47			0	36467	0	0	0	29690	28310	169653	26816	1069972	46036	111046	0	0	8019	600579	0	0
2024-08-08 05:31:47			0	36458	0	0	0	29693	28300	169741	26977	1069891	46034	111047	0	0	8018	600983	0	0
2024-08-08 05:32:47			0	36443	0	0	0	29690	28320	169801	26946	1069981	46036	111046	0	0	8018	601529	0	0
2024-08-08 05:33:47			0	36434	0	0	0	29696	28300	169989	27197	1069900	46057	111048	0	0	8017	601969	0	0
2024-08-08 05:34:47			0	36420	0	0	0	29737	28310	169973	26993	1069972	46046	111064	0	0	8015	602509	0	0
2024-08-08 05:35:47			0	36428	0	0	0	29709	28310	169949	27156	1069972	46036	111053	0	0	8016	602180	0	0
2024-08-08 05:36:47			0	36425	0	0	0	29722	28320	170009	26864	1070008	46046	111058	0	0	8016	602269	0	0
2024-08-08 05:37:47			0	36425	0	0	0	29714	28320	169993	27185	1069990	46059	111055	0	0	8016	602269	0	0
2024-08-08 05:38:47			0	36427	0	0	0	29698	28330	170041	26816	1069972	46038	111049	0	0	8017	602152	0	0
2024-08-08 05:39:47			0	36414	0	0	0	29688	28320	169969	26996	1069954	46046	111045	0	0	8016	602721	0	0
2024-08-08 05:40:47			0	36449	0	0	0	29680	28310	169989	26651	1069891	46046	111042	0	0	8018	601318	0	0
2024-08-08 05:41:47			0	36422	0	0	0	29690	28300	170025	26727	1069900	46045	111046	0	0	8016	602462	0	0
2024-08-08 05:42:47			0	36422	0	0	0	29703	28300	170121	26738	1069918	46044	111051	0	0	8016	602462	0	0
2024-08-08 05:43:47			0	36397	0	0	0	29685	28300	170125	26791	1069918	46044	111044	0	0	8015	603490	0	0
2024-08-08 05:44:47			0	36413	0	0	0	29664	28300	169985	26642	1069864	46034	111036	0	0	8016	602832	0	0
2024-08-08 05:45:47			0	36402	0	0	0	29683	28300	170125	26934	1069873	46035	111043	0	0	8015	603285	0	0
2024-08-08 05:46:47			0	36412	0	0	0	29683	28300	170049	26909	1069837	46034	111043	0	0	8016	602873	0	0
2024-08-08 05:47:47			0	36412	0	0	0	29693	28300	170145	26677	1069918	46023	111047	0	0	8016	602873	0	0
2024-08-08 05:48:47			0	36414	0	0	0	29685	28290	170113	27046	1069882	46056	111044	0	0	8016	602826	0	0
2024-08-08 05:49:47			0	36434	0	0	0	29688	28300	170057	26767	1069864	46044	111045	0	0	8017	601969	0	0
2024-08-08 05:50:47			0	36428	0	0	0	29688	28300	170077	26734	1069837	46034	111045	0	0	8017	602215	0	0
2024-08-08 05:51:47			0	36405	0	0	0	29685	28300	170005	26920	1069846	46045	111044	0	0	8015	603161	0	0
2024-08-08 05:52:47			0	36408	0	0	0	29688	28300	170153	26868	1069891	46056	111045	0	0	8015	603038	0	0
2024-08-08 05:53:47			0	36415	0	0	0	29685	28290	170161	26816	1069882	46044	111044	0	0	8016	602785	0	0
2024-08-08 05:54:47			0	36429	0	0	0	29670	28280	170057	26661	1069810	46022	111038	0	0	8017	602244	0	0
2024-08-08 05:55:47			0	36445	0	0	0	29654	28280	169985	26632	1069783	46033	111032	0	0	8018	601586	0	0
2024-08-08 05:56:47			0	36425	0	0	0	29657	28280	170097	26472	1069756	46033	111033	0	0	8017	602408	0	0
2024-08-08 05:57:47			0	36419	0	0	0	29657	28270	170125	26674	1069783	46053	111033	0	0	8017	602690	0	0
2024-08-08 05:58:47			0	36424	0	0	0	29633	28270	170113	26639	1069738	46041	111024	0	0	8017	602484	0	0
2024-08-08 05:59:47			0	36408	0	0	0	29644	28260	170109	26835	1069692	46020	111028	0	0	8016	603177	0	0
2024-08-08 06:00:47			0	36409	0	0	0	29667	28270	170133	26904	1069702	46041	111037	0	0	8016	603101	0	0
2024-08-08 06:01:47			0	36405	0	0	0	29670	28260	170121	26873	1069746	46041	111038	0	0	8015	603300	0	0
2024-08-08 06:02:47			0	36407	0	0	0	29672	28260	170145	26932	1069719	46041	111039	0	0	8015	603218	0	0
2024-08-08 06:03:47			0	36392	0	0	0	29654	28260	170157	26648	1069746	46031	111032	0	0	8015	603836	0	0
2024-08-08 06:04:47			0	36397	0	0	0	29651	28260	170157	26889	1069737	46030	111031	0	0	8015	603630	0	0
2024-08-08 06:05:47			0	36391	0	0	0	29644	28260	170241	26989	1069683	46030	111028	0	0	8015	603877	0	0
2024-08-08 06:06:47			0	36402	0	0	0	29628	28250	170269	26906	1069674	46040	111022	0	0	8016	603459	0	0
2024-08-08 06:07:47			0	36395	0	0	0	29631	28250	170237	27038	1069648	46029	111023	0	0	8015	603747	0	0
2024-08-08 06:08:47			0	36390	0	0	0	29631	28250	170281	26890	1069692	46040	111023	0	0	8015	603953	0	0
2024-08-08 06:09:47			0	36384	0	0	0	29644	28240	170233	26960	1069683	46040	111028	0	0	8014	604235	0	0
2024-08-08 06:10:47			0	36388	0	0	0	29672	28250	170341	27173	1069692	46029	111039	0	0	8014	604035	0	0
2024-08-08 06:11:47			0	36399	0	0	0	29680	28250	170101	27183	1069728	46040	111042	0	0	8015	603582	0	0
2024-08-08 06:12:47			0	36420	0	0	0	29670	28250	170205	27008	1069782	46051	111038	0	0	8016	602718	0	0
2024-08-08 06:13:47			0	36431	0	0	0	29672	28260	170065	27274	1069737	46041	111039	0	0	8017	602231	0	0
2024-08-08 06:14:47			0	36426	0	0	0	29651	28260	170085	27138	1069719	46031	111031	0	0	8017	602437	0	0
2024-08-08 06:15:47			0	36433	0	0	0	29644	28260	170073	27046	1069719	46020	111028	0	0	8018	602149	0	0
2024-08-08 06:16:47			0	36428	0	0	0	29644	28260	170145	26811	1069710	46041	111028	0	0	8017	602354	0	0
2024-08-08 06:17:47			0	36436	0	0	0	29638	28260	170105	26852	1069737	46019	111026	0	0	8018	602026	0	0
2024-08-08 06:18:47			0	36454	0	0	0	29633	28250	170101	27027	1069648	46029	111024	0	0	8019	601321	0	0
2024-08-08 06:19:47			0	36442	0	0	0	29631	28250	169921	26925	1069674	46040	111023	0	0	8018	601814	0	0
2024-08-08 06:20:47			0	36465	0	0	0	29615	28240	169905	27012	1069630	46006	111017	0	0	8020	600904	0	0
2024-08-08 06:21:47			0	36466	0	0	0	29623	28240	169905	27029	1069540	46028	111020	0	0	8020	600863	0	0
2024-08-08 06:22:47			0	36464	0	0	0	29607	28240	169925	26937	1069594	46050	111014	0	0	8020	600945	0	0
2024-08-08 06:23:47			0	36462	0	0	0	29612	28240	169865	26767	1069540	46017	111016	0	0	8020	601027	0	0
2024-08-08 06:24:47			0	36480	0	0	0	29623	28230	169929	27104	1069576	46038	111020	0	0	8021	600323	0	0
2024-08-08 06:25:47			0	36477	0	0	0	29623	28240	169821	26826	1069594	46050	111020	0	0	8020	600412	0	0
2024-08-08 06:26:47			0	36482	0	0	0	29636	28220	169865	26837	1069540	46048	111025	0	0	8020	600276	0	0
2024-08-08 06:27:47			0	36491	0	0	0	29638	28230	169681	26778	1069531	46038	111026	0	0	8021	599872	0	0
2024-08-08 06:28:47			0	36518	0	0	0	29610	28230	169773	26672	1069558	46038	111015	0	0	8023	598766	0	0
2024-08-08 06:29:47			0	36508	0	0	0	29631	28220	169797	26757	1069611	46037	111023	0	0	8022	599210	0	0
2024-08-08 06:30:47			0	36532	0	0	0	29641	28240	169705	26963	1069567	46039	111027	0	0	8023	598159	0	0
2024-08-08 06:31:47			0	36541	0	0	0	29638	28230	169705	26857	1069576	46038	111026	0	0	8024	597825	0	0
2024-08-08 06:32:47			0	36546	0	0	0	29638	28230	169685	27078	1069558	46038	111026	0	0	8024	597620	0	0
2024-08-08 06:33:47			0	36524	0	0	0	29649	28230	169669	26942	1069603	46049	111030	0	0	8023	598521	0	0
2024-08-08 06:34:47			0	36530	0	0	0	29651	28230	169605	27019	1069638	46049	111031	0	0	8023	598275	0	0
2024-08-08 06:35:47			0	36530	0	0	0	29631	28240	169621	27008	1069630	46040	111023	0	0	8023	598240	0	0
2024-08-08 06:36:47			0	36536	0	0	0	29662	28240	169705	26743	1069630	46029	111035	0	0	8023	597995	0	0
2024-08-08 06:37:47			0	36543	0	0	0	29646	28240	169609	26956	1069603	46040	111029	0	0	8024	597709	0	0
2024-08-08 06:38:47			0	36551	0	0	0	29644	28250	169709	27090	1069665	46040	111028	0	0	8024	597347	0	0
2024-08-08 06:39:47			0	36530	0	0	0	29618	28240	169669	26972	1069621	46039	111018	0	0	8024	598240	0	0
2024-08-08 06:40:47			0	36530	0	0	0	29610	28240	169661	27156	1069630	46040	111015	0	0	8024	598240	0	0
2024-08-08 06:41:47			0	36517	0	0	0	29620	28220	169573	27235	1069513	46037	111019	0	0	8023	598842	0	0
2024-08-08 06:42:47			0	36498	0	0	0	29607	28230	169765	27121	1069558	46016	111014	0	0	8022	599585	0	0
2024-08-08 06:43:47			0	36503	0	0	0	29612	28230	169833	26883	1069495	46038	111016	0	0	8022	599381	0	0
2024-08-08 06:44:47			0	36501	0	0	0	29607	28220	169861	26812	1069486	46026	111014	0	0	8022	599497	0	0
2024-08-08 06:45:47			0	36489	0	0	0	29599	28220	169885	27036	1069531	46048	111011	0	0	8021	599989	0	0
2024-08-08 06:46:47			0	36499	0	0	0	29605	28220	169837	26965	1069450	46037	111013	0	0	8022	599579	0	0
2024-08-08 06:47:47			0	36492	0	0	0	29602	28220	169821	26830	1069486	46026	111012	0	0	8022	599866	0	0
2024-08-08 06:48:47			0	36509	0	0	0	29599	28210	169805	26726	1069486	46025	111011	0	0	8023	599204	0	0
2024-08-08 06:49:47			0	36495	0	0	0	29586	28210	169813	26847	1069495	46014	111006	0	0	8022	599778	0	0
2024-08-08 06:50:47			0	36481	0	0	0	29597	28210	169817	27005	1069441	46036	111010	0	0	8021	600352	0	0
2024-08-08 06:51:47			0	36491	0	0	0	29586	28210	169829	26977	1069432	46025	111006	0	0	8022	599942	0	0
2024-08-08 06:52:47			0	36477	0	0	0	29599	28220	169957	27150	1069423	46015	111011	0	0	8021	600481	0	0
2024-08-08 06:53:47			0	36474	0	0	0	29599	28200	170053	27163	1069423	46036	111011	0	0	8020	600674	0	0
2024-08-08 06:54:47			0	36464	0	0	0	29592	28190	169989	26994	1069432	46035	111008	0	0	8020	601119	0	0
2024-08-08 06:55:47			0	36426	0	0	0	29594	28210	170041	27095	1069432	46036	111009	0	0	8018	602611	0	0
2024-08-08 06:56:47			0	36438	0	0	0	29586	28210	170217	26875	1069405	46047	111006	0	0	8019	602117	0	0
2024-08-08 06:57:47			0	36438	0	0	0	29576	28190	170105	26875	1069432	46035	111002	0	0	8019	602187	0	0
2024-08-08 06:58:47			0	36410	0	0	0	29584	28190	170221	26892	1069450	46022	111005	0	0	8017	603339	0	0
2024-08-08 06:59:47			0	36397	0	0	0	29579	28190	170313	26911	1069369	46022	111003	0	0	8016	603874	0	0
2024-08-08 07:00:47			0	36383	0	0	0	29581	28180	170353	26511	1069414	46022	111004	0	0	8015	604486	0	0
2024-08-08 07:01:47			0	36371	0	0	0	29579	28190	170433	26896	1069369	46022	111003	0	0	8015	604946	0	0
2024-08-08 07:02:47			0	36376	0	0	0	29576	28190	170469	26812	1069378	46023	111002	0	0	8015	604739	0	0
2024-08-08 07:03:47			0	36364	0	0	0	29586	28190	170509	27185	1069378	46035	111006	0	0	8014	605234	0	0
2024-08-08 07:04:47			0	36369	0	0	0	29576	28190	170585	27176	1069315	46034	111002	0	0	8014	605028	0	0
2024-08-08 07:05:47			0	36345	0	0	0	29579	28180	170589	27237	1069324	46044	111003	0	0	8013	606053	0	0
2024-08-08 07:06:47			0	36363	0	0	0	29589	28180	170505	26726	1069360	46034	111007	0	0	8014	605310	0	0
2024-08-08 07:07:47			0	36340	0	0	0	29597	28180	170509	27050	1069405	46034	111010	0	0	8012	606260	0	0
2024-08-08 07:08:47			0	36360	0	0	0	29581	28190	170477	26760	1069342	46034	111004	0	0	8014	605399	0	0
2024-08-08 07:09:47			0	36355	0	0	0	29584	28190	170505	26613	1069396	46034	111005	0	0	8014	605606	0	0
2024-08-08 07:10:47			0	36352	0	0	0	29566	28180	170565	26738	1069378	46034	110998	0	0	8014	605764	0	0
2024-08-08 07:11:47			0	36341	0	0	0	29555	28170	170577	27076	1069288	46021	110994	0	0	8013	606253	0	0
2024-08-08 07:12:47			0	36330	0	0	0	29561	28170	170545	26844	1069288	46021	110996	0	0	8012	606708	0	0
2024-08-08 07:13:47			0	36315	0	0	0	29576	28180	170589	26804	1069270	46022	111002	0	0	8011	607293	0	0
2024-08-08 07:14:47			0	36330	0	0	0	29576	28180	170597	27090	1069360	46034	111002	0	0	8012	606673	0	0
2024-08-08 07:15:47			0	36320	0	0	0	29563	28180	170569	26769	1069306	46034	110997	0	0	8012	607086	0	0
2024-08-08 07:16:47			0	36340	0	0	0	29553	28170	170697	26736	1069306	46032	110993	0	0	8013	606295	0	0
2024-08-08 07:17:47			0	36333	0	0	0	29550	28170	170561	26901	1069252	46020	110992	0	0	8013	606584	0	0
2024-08-08 07:18:47			0	36318	0	0	0	29558	28170	170609	27100	1069252	46020	110995	0	0	8012	607204	0	0
2024-08-08 07:19:47			0	36316	0	0	0	29550	28160	170569	27013	1069270	46032	110992	0	0	8012	607322	0	0
2024-08-08 07:20:47			0	36318	0	0	0	29563	28160	170565	27140	1069180	46031	110997	0	0	8012	607239	0	0
2024-08-08 07:21:47			0	36312	0	0	0	29584	28170	170553	27164	1069306	46042	111005	0	0	8011	607452	0	0
2024-08-08 07:22:47			0	36327	0	0	0	29594	28180	170589	26994	1069351	46034	111009	0	0	8012	606797	0	0
2024-08-08 07:23:47			0	36321	0	0	0	29584	28170	170609	27220	1069315	46033	111005	0	0	8011	607080	0	0
2024-08-08 07:24:47			0	36308	0	0	0	29584	28170	170597	26977	1069315	46033	111005	0	0	8011	607618	0	0
2024-08-08 07:25:47			0	36323	0	0	0	29605	28170	170661	26951	1069369	46043	111013	0	0	8011	606997	0	0
2024-08-08 07:26:47			0	36313	0	0	0	29612	28170	170657	26736	1069423	46033	111016	0	0	8010	607411	0	0
2024-08-08 07:27:47			0	36314	0	0	0	29589	28170	170605	27149	1069342	46043	111007	0	0	8011	607369	0	0
2024-08-08 07:28:47			0	36320	0	0	0	29579	28190	170553	27142	1069423	46034	111003	0	0	8012	607051	0	0
2024-08-08 07:29:47			0	36322	0	0	0	29592	28190	170561	27281	1069423	46034	111008	0	0	8011	606968	0	0
2024-08-08 07:30:47			0	36324	0	0	0	29592	28180	170465	27242	1069414	46034	111008	0	0	8011	606921	0	0
2024-08-08 07:31:47			0	36319	0	0	0	29597	28190	170617	27055	1069351	46056	111010	0	0	8011	607092	0	0
2024-08-08 07:32:47			0	36325	0	0	0	29594	28190	170565	26951	1069423	46044	111009	0	0	8012	606844	0	0
2024-08-08 07:33:47			0	36364	0	0	0	29602	28190	170457	27112	1069450	46044	111012	0	0	8014	605234	0	0
2024-08-08 07:34:47			0	36396	0	0	0	29610	28180	170297	27280	1069387	46022	111015	0	0	8015	603950	0	0
2024-08-08 07:35:47			0	36436	0	0	0	29615	28190	170121	27029	1069396	46034	111017	0	0	8018	602269	0	0
2024-08-08 07:36:47			0	36418	0	0	0	29605	28200	170077	27052	1069414	46046	111013	0	0	8017	602975	0	0
2024-08-08 07:37:47			0	36437	0	0	0	29610	28190	170045	27109	1069459	46045	111015	0	0	8018	602228	0	0
2024-08-08 07:38:47			0	36418	0	0	0	29607	28200	170077	26804	1069468	46057	111014	0	0	8017	602975	0	0
2024-08-08 07:39:47			0	36420	0	0	0	29612	28200	170077	27076	1069441	46036	111016	0	0	8017	602892	0	0
2024-08-08 07:40:47			0	36412	0	0	0	29628	28200	170157	27033	1069495	46046	111022	0	0	8016	603222	0	0
2024-08-08 07:41:47			0	36411	0	0	0	29612	28210	170209	27260	1069513	46047	111016	0	0	8016	603228	0	0
2024-08-08 07:42:47			0	36419	0	0	0	29610	28210	170089	26986	1069540	46047	111015	0	0	8017	602899	0	0
2024-08-08 07:43:47			0	36422	0	0	0	29612	28210	170105	26885	1069549	46036	111016	0	0	8017	602775	0	0
2024-08-08 07:44:47			0	36425	0	0	0	29615	28210	170105	26991	1069459	46036	111017	0	0	8017	602652	0	0
2024-08-08 07:45:47			0	36433	0	0	0	29607	28210	170093	26899	1069549	46036	111014	0	0	8018	602323	0	0
2024-08-08 07:46:47			0	36434	0	0	0	29612	28200	170145	26968	1069441	46046	111016	0	0	8018	602317	0	0
2024-08-08 07:47:47			0	36432	0	0	0	29620	28210	170225	27145	1069540	46047	111019	0	0	8018	602364	0	0
2024-08-08 07:48:47			0	36424	0	0	0	29618	28210	170137	27062	1069513	46047	111018	0	0	8017	602693	0	0
2024-08-08 07:49:47			0	36433	0	0	0	29623	28200	170149	26727	1069477	46036	111020	0	0	8018	602358	0	0
2024-08-08 07:50:47			0	36413	0	0	0	29607	28200	170053	26798	1069558	46036	111014	0	0	8017	603180	0	0
2024-08-08 07:51:47			0	36410	0	0	0	29615	28210	170145	27090	1069495	46036	111017	0	0	8016	603269	0	0
2024-08-08 07:52:47			0	36417	0	0	0	29620	28220	170093	26951	1069531	46048	111019	0	0	8017	602946	0	0
2024-08-08 07:53:47			0	36411	0	0	0	29620	28200	170129	27144	1069558	46046	111019	0	0	8016	603263	0	0
2024-08-08 07:54:47			0	36415	0	0	0	29620	28220	170081	27081	1069558	46037	111019	0	0	8017	603028	0	0
2024-08-08 07:55:47			0	36425	0	0	0	29625	28220	169997	26779	1069585	46026	111021	0	0	8017	602617	0	0
2024-08-08 07:56:47			0	36429	0	0	0	29646	28220	169901	26889	1069594	46026	111029	0	0	8017	602452	0	0
2024-08-08 07:57:47			0	36453	0	0	0	29644	28220	169905	26809	1069594	46037	111028	0	0	8018	601466	0	0
2024-08-08 07:58:47			0	36480	0	0	0	29649	28220	169753	27062	1069585	46059	111030	0	0	8020	600358	0	0
2024-08-08 07:59:47			0	36511	0	0	0	29651	28230	169529	26859	1069665	46049	111031	0	0	8022	599053	0	0
2024-08-08 08:00:47			0	36596	0	0	0	29654	28230	169178	26755	1069692	46038	111032	0	0	8027	595579	0	0
2024-08-08 08:01:47			0	36643	0	0	0	29657	28230	169074	26991	1069638	46038	111033	0	0	8030	593663	0	0
2024-08-08 08:02:47			0	36656	0	0	0	29649	28240	168946	26748	1069737	46051	111030	0	0	8031	593100	0	0
2024-08-08 08:03:47			0	36656	0	0	0	29664	28240	168898	27001	1069728	46039	111036	0	0	8030	593100	0	0
2024-08-08 08:04:47			0	36679	0	0	0	29657	28250	168778	27325	1069692	46040	111033	0	0	8032	592131	0	0
2024-08-08 08:05:47			0	36672	0	0	0	29657	28240	168806	26753	1069737	46040	111033	0	0	8031	592450	0	0
2024-08-08 08:06:47			0	36657	0	0	0	29664	28240	168906	27088	1069728	46028	111036	0	0	8030	593059	0	0
2024-08-08 08:07:47			0	36645	0	0	0	29667	28260	168978	27072	1069764	46041	111037	0	0	8030	593479	0	0
2024-08-08 08:08:47			0	36652	0	0	0	29667	28240	168986	27334	1069683	46040	111037	0	0	8030	593263	0	0
2024-08-08 08:09:47			0	36647	0	0	0	29662	28250	168986	27041	1069746	46040	111035	0	0	8030	593432	0	0
2024-08-08 08:10:47			0	36645	0	0	0	29667	28250	169046	27287	1069728	46040	111037	0	0	8030	593513	0	0
2024-08-08 08:11:47			0	36633	0	0	0	29667	28260	169106	27196	1069764	46041	111037	0	0	8029	593968	0	0
2024-08-08 08:12:47			0	36652	0	0	0	29664	28250	169078	26918	1069719	46051	111036	0	0	8030	593229	0	0
2024-08-08 08:13:47			0	36660	0	0	0	29662	28260	169126	27050	1069764	46052	111035	0	0	8031	592869	0	0
2024-08-08 08:14:47			0	36668	0	0	0	29672	28250	169006	27074	1069746	46040	111039	0	0	8031	592578	0	0
2024-08-08 08:15:47			0	36666	0	0	0	29680	28260	168910	27244	1069827	46031	111042	0	0	8031	592625	0	0
2024-08-08 08:16:47			0	36645	0	0	0	29688	28260	168994	27112	1069845	46063	111045	0	0	8029	593479	0	0
2024-08-08 08:17:47			0	36656	0	0	0	29683	28260	168922	27078	1069899	46041	111043	0	0	8030	593032	0	0
2024-08-08 08:18:47			0	36667	0	0	0	29696	28270	169150	27095	1069836	46041	111048	0	0	8031	592550	0	0
2024-08-08 08:19:47			0	36656	0	0	0	29688	28280	169034	26977	1069855	46054	111045	0	0	8030	592963	0	0
2024-08-08 08:20:47			0	36676	0	0	0	29696	28270	169002	27029	1069917	46041	111048	0	0	8031	592184	0	0
2024-08-08 08:21:47			0	36666	0	0	0	29696	28270	168934	27071	1069953	46053	111048	0	0	8030	592591	0	0
2024-08-08 08:22:47			0	36666	0	0	0	29696	28270	168846	26991	1069845	46031	111048	0	0	8030	592591	0	0
2024-08-08 08:23:47			0	36686	0	0	0	29693	28280	168990	26776	1069864	46055	111047	0	0	8032	591744	0	0
2024-08-08 08:24:47			0	36678	0	0	0	29693	28280	168898	26882	1069882	46042	111047	0	0	8031	592069	0	0
2024-08-08 08:25:47			0	36688	0	0	0	29696	28280	168846	26786	1069963	46054	111048	0	0	8032	591663	0	0
2024-08-08 08:26:47			0	36688	0	0	0	29701	28270	168802	26804	1069953	46041	111050	0	0	8032	591697	0	0
2024-08-08 08:27:47			0	36688	0	0	0	29698	28280	168830	27189	1069909	46032	111049	0	0	8032	591663	0	0
2024-08-08 08:28:47			0	36703	0	0	0	29698	28300	168758	26922	1069972	46034	111049	0	0	8033	590986	0	0
2024-08-08 08:29:47			0	36700	0	0	0	29701	28280	168782	27062	1069972	46033	111050	0	0	8032	591176	0	0
2024-08-08 08:30:47			0	36709	0	0	0	29714	28300	168846	27066	1069999	46056	111055	0	0	8033	590742	0	0
2024-08-08 08:31:47			0	36728	0	0	0	29719	28290	168726	26878	1069990	46056	111057	0	0	8034	590006	0	0
2024-08-08 08:32:47			0	36732	0	0	0	29711	28310	168670	26873	1070043	46046	111054	0	0	8034	589776	0	0
2024-08-08 08:33:47			0	36729	0	0	0	29711	28310	168598	26922	1070017	46069	111054	0	0	8034	589897	0	0
2024-08-08 08:34:47			0	36737	0	0	0	29714	28310	168586	27010	1070017	46058	111055	0	0	8035	589573	0	0
2024-08-08 08:35:47			0	36757	0	0	0	29703	28300	168570	27010	1070035	46045	111051	0	0	8036	588797	0	0
2024-08-08 08:36:47			0	36746	0	0	0	29706	28310	168430	27215	1070026	46046	111052	0	0	8035	589209	0	0
2024-08-08 08:37:47			0	36766	0	0	0	29709	28300	168490	27190	1069981	46045	111053	0	0	8036	588433	0	0
2024-08-08 08:38:47			0	36771	0	0	0	29709	28310	168522	26908	1070043	46058	111053	0	0	8037	588197	0	0
2024-08-08 08:39:47			0	36766	0	0	0	29706	28310	168494	26701	1070026	46046	111052	0	0	8036	588399	0	0
2024-08-08 08:40:47			0	36762	0	0	0	29701	28320	168482	27020	1070088	46046	111050	0	0	8036	588527	0	0
2024-08-08 08:41:47			0	36769	0	0	0	29701	28300	168506	26984	1070035	46045	111050	0	0	8037	588312	0	0
2024-08-08 08:42:47			0	36750	0	0	0	29698	28310	168574	27211	1070053	46058	111049	0	0	8036	589047	0	0
2024-08-08 08:43:47			0	36738	0	0	0	29706	28300	168454	26902	1070035	46057	111052	0	0	8035	589567	0	0
2024-08-08 08:44:47			0	36747	0	0	0	29706	28310	168562	26819	1070070	46036	111052	0	0	8035	589168	0	0
2024-08-08 08:45:47			0	36734	0	0	0	29706	28310	168530	26854	1070026	46036	111052	0	0	8035	589695	0	0
2024-08-08 08:46:47			0	36727	0	0	0	29714	28310	168590	26788	1070097	46046	111055	0	0	8034	589978	0	0
2024-08-08 08:47:47			0	36728	0	0	0	29719	28310	168622	27178	1070026	46036	111057	0	0	8034	589938	0	0
2024-08-08 08:48:47			0	36726	0	0	0	29709	28310	168690	26974	1070097	46036	111053	0	0	8034	590019	0	0
2024-08-08 08:49:47			0	36717	0	0	0	29706	28310	168638	27088	1069990	46058	111052	0	0	8034	590384	0	0
2024-08-08 08:50:47			0	36732	0	0	0	29714	28310	168658	26795	1070017	46058	111055	0	0	8034	589776	0	0
2024-08-08 08:51:47			0	36737	0	0	0	29706	28310	168598	26788	1070079	46046	111052	0	0	8035	589573	0	0
2024-08-08 08:52:47			0	36741	0	0	0	29711	28300	168542	26736	1070008	46035	111054	0	0	8035	589445	0	0
2024-08-08 08:53:47			0	36748	0	0	0	29706	28310	168566	26717	1070124	46036	111052	0	0	8035	589128	0	0
2024-08-08 08:54:47			0	36739	0	0	0	29701	28320	168618	27093	1070061	46058	111050	0	0	8035	589458	0	0
2024-08-08 08:55:47			0	36725	0	0	0	29703	28300	168758	27017	1070061	46045	111051	0	0	8034	590094	0	0
2024-08-08 08:56:47			0	36704	0	0	0	29706	28310	168650	27003	1070070	46046	111052	0	0	8033	590911	0	0
2024-08-08 08:57:47			0	36707	0	0	0	29703	28310	168606	27154	1070017	46036	111051	0	0	8033	590789	0	0
2024-08-08 08:58:47			0	36705	0	0	0	29709	28310	168818	26876	1070043	46069	111053	0	0	8033	590870	0	0
2024-08-08 08:59:47			0	36708	0	0	0	29714	28310	168738	26967	1070053	46058	111055	0	0	8033	590749	0	0
2024-08-08 09:00:47			0	36714	0	0	0	29701	28320	168670	27055	1070142	46036	111050	0	0	8033	590471	0	0
2024-08-08 09:01:47			0	36719	0	0	0	29709	28310	168734	27137	1070043	46046	111053	0	0	8034	590303	0	0
2024-08-08 09:02:47			0	36720	0	0	0	29698	28310	168806	27130	1070053	46025	111049	0	0	8034	590262	0	0
2024-08-08 09:03:47			0	36694	0	0	0	29716	28310	168762	27144	1069990	46046	111056	0	0	8032	591317	0	0
2024-08-08 09:04:47			0	36710	0	0	0	29724	28310	168770	26968	1070070	46058	111059	0	0	8033	590668	0	0
2024-08-08 09:05:47			0	36708	0	0	0	29735	28300	168674	27131	1070088	46045	111063	0	0	8032	590783	0	0
2024-08-08 09:06:47			0	36714	0	0	0	29724	28320	168798	26863	1070115	46058	111059	0	0	8033	590471	0	0
2024-08-08 09:07:47			0	36716	0	0	0	29740	28320	168742	26906	1070169	46058	111065	0	0	8033	590390	0	0
2024-08-08 09:08:47			0	36712	0	0	0	29748	28320	168826	26984	1070178	46047	111068	0	0	8033	590552	0	0
2024-08-08 09:09:47			0	36691	0	0	0	29735	28330	168802	27222	1070133	46060	111063	0	0	8032	591370	0	0
2024-08-08 09:10:47			0	36724	0	0	0	29737	28330	168714	27090	1070160	46060	111064	0	0	8034	590032	0	0
2024-08-08 09:11:47			0	36704	0	0	0	29732	28320	168842	27190	1070088	46036	111062	0	0	8032	590877	0	0
2024-08-08 09:12:47			0	36710	0	0	0	29719	28330	168834	26897	1070160	46038	111057	0	0	8033	590599	0	0
2024-08-08 09:13:47			0	36719	0	0	0	29732	28330	168738	27209	1070133	46060	111062	0	0	8033	590234	0	0
2024-08-08 09:14:47			0	36736	0	0	0	29729	28320	168734	26989	1070178	46047	111061	0	0	8034	589580	0	0
2024-08-08 09:15:47			0	36741	0	0	0	29737	28330	168502	27074	1070160	46048	111064	0	0	8035	589343	0	0
2024-08-08 09:16:47			0	36761	0	0	0	29740	28330	168538	26817	1070133	46060	111065	0	0	8036	588533	0	0
2024-08-08 09:17:47			0	36763	0	0	0	29737	28330	168582	27034	1070187	46060	111064	0	0	8036	588453	0	0
2024-08-08 09:18:47			0	36778	0	0	0	29735	28330	168522	26816	1070160	46060	111063	0	0	8037	587846	0	0
2024-08-08 09:19:47			0	36790	0	0	0	29732	28340	168506	26797	1070232	46048	111062	0	0	8038	587327	0	0
2024-08-08 09:20:47			0	36780	0	0	0	29727	28340	168514	27015	1070151	46060	111060	0	0	8037	587731	0	0
2024-08-08 09:21:47			0	36788	0	0	0	29729	28330	168422	27003	1070196	46060	111061	0	0	8037	587442	0	0
2024-08-08 09:22:47			0	36779	0	0	0	29737	28330	168386	26955	1070169	46048	111064	0	0	8037	587806	0	0
2024-08-08 09:23:47			0	36797	0	0	0	29748	28340	168334	26653	1070259	46060	111068	0	0	8038	587045	0	0
2024-08-08 09:24:47			0	36775	0	0	0	29742	28340	168486	26842	1070205	46048	111066	0	0	8036	587933	0	0
2024-08-08 09:25:47			0	36786	0	0	0	29748	28340	168510	27067	1070268	46061	111068	0	0	8037	587489	0	0
2024-08-08 09:26:47			0	36790	0	0	0	29742	28330	168434	26870	1070223	46048	111066	0	0	8037	587361	0	0
2024-08-08 09:27:47			0	36792	0	0	0	29748	28340	168334	27225	1070241	46049	111068	0	0	8037	587246	0	0
2024-08-08 09:28:47			0	36781	0	0	0	29750	28350	168374	26975	1070304	46073	111069	0	0	8037	587657	0	0
2024-08-08 09:29:47			0	36794	0	0	0	29753	28350	168330	26802	1070277	46050	111070	0	0	8037	587132	0	0
2024-08-08 09:30:47			0	36831	0	0	0	29753	28350	168250	27083	1070286	46050	111070	0	0	8040	585639	0	0
2024-08-08 09:31:47			0	36826	0	0	0	29758	28340	168310	27076	1070187	46049	111072	0	0	8039	585874	0	0
2024-08-08 09:32:47			0	36823	0	0	0	29763	28340	168162	27137	1070268	46061	111074	0	0	8039	585995	0	0
2024-08-08 09:33:47			0	36820	0	0	0	29768	28340	168190	27003	1070268	46039	111076	0	0	8039	586116	0	0
2024-08-08 09:34:47			0	36819	0	0	0	29761	28350	168218	26875	1070277	46050	111073	0	0	8039	586123	0	0
2024-08-08 09:35:47			0	36826	0	0	0	29771	28360	168118	26946	1070349	46073	111077	0	0	8039	585806	0	0
2024-08-08 09:36:47			0	36816	0	0	0	29768	28350	168086	26878	1070313	46073	111076	0	0	8039	586244	0	0
2024-08-08 09:37:47			0	36844	0	0	0	29776	28350	168150	27150	1070358	46062	111079	0	0	8040	585115	0	0
2024-08-08 09:38:47			0	36854	0	0	0	29781	28350	168238	27015	1070331	46062	111081	0	0	8041	584712	0	0
2024-08-08 09:39:47			0	36831	0	0	0	29784	28360	168086	26915	1070403	46062	111082	0	0	8039	585605	0	0
2024-08-08 09:40:47			0	36836	0	0	0	29794	28360	168034	26897	1070385	46063	111086	0	0	8039	585403	0	0
2024-08-08 09:41:47			0	36833	0	0	0	29794	28370	168106	27008	1070484	46053	111086	0	0	8039	585490	0	0
2024-08-08 09:42:47			0	36840	0	0	0	29792	28370	168138	26994	1070502	46064	111085	0	0	8040	585208	0	0
2024-08-08 09:43:47			0	36842	0	0	0	29799	28370	167982	26791	1070457	46065	111088	0	0	8040	585128	0	0
2024-08-08 09:44:47			0	36849	0	0	0	29805	28380	168010	27041	1070502	46053	111090	0	0	8040	584812	0	0
2024-08-08 09:45:47			0	36850	0	0	0	29799	28380	167954	27001	1070502	46065	111088	0	0	8040	584772	0	0
2024-08-08 09:46:47			0	36846	0	0	0	29810	28380	168058	26873	1070475	46065	111092	0	0	8040	584933	0	0
2024-08-08 09:47:47			0	36852	0	0	0	29812	28400	167994	27176	1070520	46067	111093	0	0	8040	584623	0	0
2024-08-08 09:48:47			0	36854	0	0	0	29818	28390	167942	27083	1070511	46066	111095	0	0	8040	584577	0	0
2024-08-08 09:49:47			0	36876	0	0	0	29815	28410	167922	27060	1070619	46067	111094	0	0	8042	583624	0	0
2024-08-08 09:50:47			0	36868	0	0	0	29820	28400	167902	27131	1070690	46067	111096	0	0	8041	583979	0	0
2024-08-08 09:51:47			0	36891	0	0	0	29818	28400	167890	27098	1070664	46067	111095	0	0	8042	583054	0	0
2024-08-08 09:52:47			0	36890	0	0	0	29818	28410	167846	27222	1070646	46067	111095	0	0	8042	583061	0	0
2024-08-08 09:53:47			0	36886	0	0	0	29823	28410	167790	26996	1070619	46044	111097	0	0	8042	583222	0	0
2024-08-08 09:54:47			0	36902	0	0	0	29820	28410	167710	26982	1070655	46079	111096	0	0	8043	582579	0	0
2024-08-08 09:55:47			0	36900	0	0	0	29825	28410	167658	26932	1070673	46078	111098	0	0	8043	582659	0	0
2024-08-08 09:56:47			0	36902	0	0	0	29825	28420	167746	26687	1070745	46069	111098	0	0	8043	582545	0	0
2024-08-08 09:57:47			0	36911	0	0	0	29841	28420	167694	26859	1070727	46069	111104	0	0	8043	582184	0	0
2024-08-08 09:58:47			0	36908	0	0	0	29846	28410	167702	27112	1070682	46079	111106	0	0	8043	582338	0	0
2024-08-08 09:59:47			0	36895	0	0	0	29846	28420	167618	27105	1070745	46069	111106	0	0	8042	582826	0	0
2024-08-08 10:00:47			0	36907	0	0	0	29849	28430	167674	27118	1070772	46058	111107	0	0	8043	582310	0	0
2024-08-08 10:01:47			0	36917	0	0	0	29849	28430	167738	27119	1070817	46057	111107	0	0	8043	581909	0	0
2024-08-08 10:02:47			0	36908	0	0	0	29846	28430	167566	27225	1070763	46057	111106	0	0	8043	582270	0	0
2024-08-08 10:03:47			0	36918	0	0	0	29859	28440	167658	26759	1070889	46071	111111	0	0	8043	581835	0	0
2024-08-08 10:04:47			0	36925	0	0	0	29859	28430	167682	26987	1070799	46070	111111	0	0	8044	581588	0	0
2024-08-08 10:05:47			0	36907	0	0	0	29867	28450	167570	27119	1070907	46083	111114	0	0	8043	582243	0	0
2024-08-08 10:06:47			0	36908	0	0	0	29862	28450	167638	27069	1070880	46060	111112	0	0	8043	582203	0	0
2024-08-08 10:07:47			0	36918	0	0	0	29862	28450	167578	27076	1070862	46083	111112	0	0	8043	581802	0	0
2024-08-08 10:08:47			0	36933	0	0	0	29867	28450	167662	26996	1070862	46072	111114	0	0	8044	581200	0	0
2024-08-08 10:09:47			0	36909	0	0	0	29867	28460	167542	26934	1070925	46050	111114	0	0	8043	582129	0	0
2024-08-08 10:10:47			0	36928	0	0	0	29870	28440	167586	26951	1070898	46072	111115	0	0	8044	581434	0	0
2024-08-08 10:11:47			0	36924	0	0	0	29880	28460	167558	26809	1070925	46061	111119	0	0	8044	581527	0	0
2024-08-08 10:12:47			0	36924	0	0	0	29877	28460	167610	27159	1070952	46073	111118	0	0	8044	581527	0	0
2024-08-08 10:13:47			0	36931	0	0	0	29888	28460	167582	27242	1070934	46062	111122	0	0	8044	581246	0	0
2024-08-08 10:14:47			0	36910	0	0	0	29890	28470	167578	27055	1070996	46084	111123	0	0	8043	582055	0	0
2024-08-08 10:15:47			0	36945	0	0	0	29890	28470	167562	26989	1070996	46074	111123	0	0	8045	580652	0	0
2024-08-08 10:16:47			0	36923	0	0	0	29880	28470	167534	26937	1070979	46074	111119	0	0	8043	581534	0	0
2024-08-08 10:17:47			0	36934	0	0	0	29890	28470	167582	26785	1070979	46074	111123	0	0	8044	581093	0	0
2024-08-08 10:18:47			0	36950	0	0	0	29898	28480	167582	27123	1071041	46063	111126	0	0	8045	580418	0	0
2024-08-08 10:19:47			0	36945	0	0	0	29903	28470	167618	26783	1071032	46074	111128	0	0	8044	580652	0	0
2024-08-08 10:20:47			0	36957	0	0	0	29911	28490	167546	27138	1071059	46076	111131	0	0	8045	580104	0	0
2024-08-08 10:21:47			0	36949	0	0	0	29911	28480	167534	27355	1071104	46076	111131	0	0	8045	580458	0	0
2024-08-08 10:22:47			0	36943	0	0	0	29901	28490	167538	27036	1071095	46064	111127	0	0	8044	580665	0	0
2024-08-08 10:23:47			0	36965	0	0	0	29914	28500	167466	27053	1071104	46065	111132	0	0	8046	579750	0	0
2024-08-08 10:24:47			0	36981	0	0	0	29922	28500	167534	26956	1071140	46088	111135	0	0	8046	579110	0	0
2024-08-08 10:25:47			0	36977	0	0	0	29932	28490	167394	27154	1071194	46076	111139	0	0	8046	579303	0	0
2024-08-08 10:26:47			0	36987	0	0	0	29942	28500	167486	27322	1071221	46066	111143	0	0	8046	578869	0	0
2024-08-08 10:27:47			0	36973	0	0	0	29953	28510	167498	27119	1071284	46089	111147	0	0	8045	579396	0	0
2024-08-08 10:28:47			0	36974	0	0	0	29968	28520	167366	27001	1071302	46100	111153	0	0	8045	579322	0	0
2024-08-08 10:29:47			0	36985	0	0	0	29966	28520	167466	26967	1071338	46090	111152	0	0	8046	578882	0	0
2024-08-08 10:30:47			0	37000	0	0	0	29963	28530	167314	26896	1071320	46102	111151	0	0	8047	578249	0	0
2024-08-08 10:31:47			0	36978	0	0	0	29963	28530	167254	26885	1071383	46091	111151	0	0	8046	579129	0	0
2024-08-08 10:32:47			0	37004	0	0	0	29973	28530	167230	27020	1071410	46091	111155	0	0	8047	578089	0	0
2024-08-08 10:33:47			0	37003	0	0	0	29973	28540	167238	27192	1071401	46082	111155	0	0	8047	578096	0	0
2024-08-08 10:34:47			0	37000	0	0	0	29979	28530	167194	27078	1071428	46091	111157	0	0	8047	578249	0	0
2024-08-08 10:35:47			0	37019	0	0	0	29986	28550	167198	27154	1071464	46082	111160	0	0	8048	577424	0	0
2024-08-08 10:36:47			0	37024	0	0	0	29984	28550	167110	26779	1071500	46093	111159	0	0	8048	577224	0	0
2024-08-08 10:37:47			0	37017	0	0	0	29989	28560	167070	26585	1071563	46082	111161	0	0	8048	577470	0	0
2024-08-08 10:38:47			0	37024	0	0	0	29992	28560	167086	26956	1071455	46093	111162	0	0	8048	577191	0	0
2024-08-08 10:39:47			0	37047	0	0	0	29992	28560	166998	27013	1071536	46082	111162	0	0	8049	576273	0	0
2024-08-08 10:40:47			0	37069	0	0	0	29999	28560	166810	26769	1071545	46072	111165	0	0	8050	575397	0	0
2024-08-08 10:41:47			0	37083	0	0	0	29997	28570	166730	26993	1071527	46073	111164	0	0	8051	574806	0	0
2024-08-08 10:42:47			0	37114	0	0	0	29999	28570	166662	26859	1071527	46073	111165	0	0	8053	573573	0	0
2024-08-08 10:43:47			0	37145	0	0	0	30002	28580	166654	27045	1071572	46084	111166	0	0	8055	572309	0	0
2024-08-08 10:44:47			0	37162	0	0	0	29989	28570	166494	27003	1071563	46073	111161	0	0	8056	571668	0	0
2024-08-08 10:45:47			0	37170	0	0	0	30002	28580	166454	27048	1071581	46074	111166	0	0	8056	571317	0	0
2024-08-08 10:46:47			0	37188	0	0	0	30007	28570	166310	26648	1071554	46095	111168	0	0	8057	570637	0	0
2024-08-08 10:47:47			0	37217	0	0	0	30010	28590	166194	26769	1071617	46085	111169	0	0	8059	569423	0	0
2024-08-08 10:48:47			0	37232	0	0	0	30015	28580	166142	26844	1071662	46084	111171	0	0	8060	568863	0	0
2024-08-08 10:49:47			0	37243	0	0	0	30007	28580	166042	26994	1071689	46074	111168	0	0	8061	568428	0	0
2024-08-08 10:50:47			0	37256	0	0	0	30018	28580	165918	26785	1071662	46084	111172	0	0	8061	567915	0	0
2024-08-08 10:51:47			0	37286	0	0	0	30018	28590	165934	26840	1071671	46085	111172	0	0	8063	566699	0	0
2024-08-08 10:52:47			0	37291	0	0	0	30033	28590	165870	26875	1071698	46085	111178	0	0	8063	566502	0	0
2024-08-08 10:53:47			0	37325	0	0	0	30028	28590	165731	27052	1071653	46086	111176	0	0	8065	565163	0	0
2024-08-08 10:54:47			0	37321	0	0	0	30036	28590	165671	26731	1071734	46076	111179	0	0	8065	565320	0	0
2024-08-08 10:55:47			0	37325	0	0	0	30044	28610	165643	26897	1071824	46067	111182	0	0	8065	565097	0	0
2024-08-08 10:56:47			0	37329	0	0	0	30051	28600	165599	26941	1071806	46086	111185	0	0	8065	564972	0	0
2024-08-08 10:57:47			0	37347	0	0	0	30062	28620	165535	26712	1071833	46089	111189	0	0	8066	564199	0	0
2024-08-08 10:58:47			0	37365	0	0	0	30049	28610	165587	27156	1071851	46100	111184	0	0	8067	563525	0	0
2024-08-08 10:59:47			0	37353	0	0	0	30054	28640	165467	27126	1071851	46091	111186	0	0	8066	563898	0	0
2024-08-08 11:00:47			0	37351	0	0	0	30051	28630	165507	26934	1071887	46090	111185	0	0	8066	564009	0	0
2024-08-08 11:01:47			0	37365	0	0	0	30057	28630	165515	26771	1071833	46090	111187	0	0	8067	563459	0	0
2024-08-08 11:02:47			0	37358	0	0	0	30067	28640	165631	26842	1071923	46090	111191	0	0	8067	563702	0	0
2024-08-08 11:03:47			0	37372	0	0	0	30067	28640	165527	26701	1071986	46081	111191	0	0	8067	563152	0	0
2024-08-08 11:04:47			0	37371	0	0	0	30067	28640	165527	27095	1071932	46091	111191	0	0	8067	563191	0	0
2024-08-08 11:05:47			0	37367	0	0	0	30085	28640	165547	27140	1071932	46091	111198	0	0	8067	563348	0	0
2024-08-08 11:06:47			0	37367	0	0	0	30077	28650	165471	26835	1072031	46104	111195	0	0	8067	563316	0	0
2024-08-08 11:07:47			0	37348	0	0	0	30088	28650	165495	27208	1072004	46092	111199	0	0	8066	564062	0	0
2024-08-08 11:08:47			0	37356	0	0	0	30093	28660	165535	27081	1072022	46093	111201	0	0	8066	563715	0	0
2024-08-08 11:09:47			0	37343	0	0	0	30090	28660	165491	26904	1072022	46083	111200	0	0	8065	564226	0	0
2024-08-08 11:10:47			0	37344	0	0	0	30101	28670	165543	27057	1072085	46083	111204	0	0	8065	564154	0	0
2024-08-08 11:11:47			0	37354	0	0	0	30101	28670	165535	27086	1072085	46105	111204	0	0	8066	563761	0	0
2024-08-08 11:12:47			0	37357	0	0	0	30090	28660	165523	27055	1072076	46105	111200	0	0	8066	563676	0	0
2024-08-08 11:13:47			0	37346	0	0	0	30083	28670	165495	26991	1072058	46083	111197	0	0	8066	564075	0	0
2024-08-08 11:14:47			0	37348	0	0	0	30096	28660	165475	27332	1072076	46093	111202	0	0	8066	564029	0	0
2024-08-08 11:15:47			0	37345	0	0	0	30103	28670	165635	26987	1072139	46093	111205	0	0	8065	564114	0	0
2024-08-08 11:16:47			0	37346	0	0	0	30111	28680	165475	26953	1072184	46095	111208	0	0	8065	564042	0	0
2024-08-08 11:17:47			0	37344	0	0	0	30111	28690	165559	26866	1072139	46095	111208	0	0	8065	564088	0	0
2024-08-08 11:18:47			0	37356	0	0	0	30106	28680	165619	26967	1072157	46095	111206	0	0	8066	563650	0	0
2024-08-08 11:19:47			0	37359	0	0	0	30114	28690	165515	26965	1072175	46096	111209	0	0	8066	563499	0	0
2024-08-08 11:20:47			0	37355	0	0	0	30116	28690	165515	26916	1072175	46085	111210	0	0	8066	563656	0	0
2024-08-08 11:21:47			0	37343	0	0	0	30114	28700	165463	26896	1072193	46086	111209	0	0	8065	564095	0	0
2024-08-08 11:22:47			0	37352	0	0	0	30116	28700	165455	27022	1072211	46096	111210	0	0	8066	563742	0	0
2024-08-08 11:23:47			0	37347	0	0	0	30109	28710	165403	27256	1072175	46086	111207	0	0	8066	563905	0	0
2024-08-08 11:24:47			0	37369	0	0	0	30114	28700	165431	27183	1072274	46086	111209	0	0	8067	563074	0	0
2024-08-08 11:25:47			0	37363	0	0	0	30116	28710	165271	27307	1072265	46098	111210	0	0	8066	563277	0	0
2024-08-08 11:26:47			0	37365	0	0	0	30122	28700	165395	27121	1072220	46109	111212	0	0	8066	563231	0	0
2024-08-08 11:27:47			0	37356	0	0	0	30140	28710	165443	27060	1072346	46098	111219	0	0	8066	563552	0	0
2024-08-08 11:28:47			0	37370	0	0	0	30142	28720	165383	27144	1072328	46110	111220	0	0	8066	562970	0	0
2024-08-08 11:29:47			0	37375	0	0	0	30140	28710	165311	27159	1072346	46110	111219	0	0	8067	562806	0	0
2024-08-08 11:30:47			0	37380	0	0	0	30148	28720	165395	27239	1072409	46098	111222	0	0	8067	562577	0	0
2024-08-08 11:31:47			0	37373	0	0	0	30153	28730	165451	27088	1072427	46111	111224	0	0	8066	562819	0	0
2024-08-08 11:32:47			0	37374	0	0	0	30148	28740	165431	26880	1072445	46100	111222	0	0	8067	562747	0	0
2024-08-08 11:33:47			0	37390	0	0	0	30155	28740	165247	27010	1072499	46100	111225	0	0	8067	562120	0	0
2024-08-08 11:34:47			0	37379	0	0	0	30163	28730	165291	27076	1072409	46089	111228	0	0	8067	562584	0	0
2024-08-08 11:35:47			0	37387	0	0	0	30168	28740	165251	26845	1072481	46101	111230	0	0	8067	562237	0	0
2024-08-08 11:36:47			0	37399	0	0	0	30161	28740	165279	27010	1072445	46089	111227	0	0	8068	561767	0	0
2024-08-08 11:37:47			0	37392	0	0	0	30166	28740	165187	27092	1072445	46089	111229	0	0	8067	562042	0	0
2024-08-08 11:38:47			0	37389	0	0	0	30171	28750	165235	26876	1072490	46101	111231	0	0	8067	562126	0	0
2024-08-08 11:39:47			0	37395	0	0	0	30174	28750	165187	27102	1072517	46124	111232	0	0	8067	561891	0	0
2024-08-08 11:40:47			0	37396	0	0	0	30189	28750	165211	27137	1072580	46102	111238	0	0	8067	561852	0	0
2024-08-08 11:41:47			0	37402	0	0	0	30186	28760	165207	26861	1072562	46092	111237	0	0	8068	561585	0	0
2024-08-08 11:42:47			0	37382	0	0	0	30199	28750	165115	26826	1072580	46114	111242	0	0	8066	562401	0	0
2024-08-08 11:43:47			0	37413	0	0	0	30199	28770	165099	27114	1072688	46125	111242	0	0	8068	561121	0	0
2024-08-08 11:44:47			0	37411	0	0	0	30192	28770	165187	27072	1072589	46104	111239	0	0	8068	561200	0	0
2024-08-08 11:45:47			0	37416	0	0	0	30184	28770	164955	26852	1072643	46116	111236	0	0	8069	561004	0	0
2024-08-08 11:46:47			0	37425	0	0	0	30199	28770	165063	27170	1072589	46104	111242	0	0	8069	560652	0	0
2024-08-08 11:47:47			0	37439	0	0	0	30205	28770	165039	27109	1072643	46104	111244	0	0	8070	560104	0	0
2024-08-08 11:48:47			0	37419	0	0	0	30223	28780	165023	27097	1072742	46105	111251	0	0	8068	560854	0	0
2024-08-08 11:49:47			0	37426	0	0	0	30233	28790	165007	27100	1072805	46128	111255	0	0	8068	560547	0	0
2024-08-08 11:50:47			0	37427	0	0	0	30262	28790	165003	26965	1072814	46118	111266	0	0	8068	560508	0	0
2024-08-08 11:51:47			0	37423	0	0	0	30277	28810	164855	27126	1072895	46130	111272	0	0	8068	560600	0	0
2024-08-08 11:52:47			0	37424	0	0	0	30277	28820	164887	26915	1072922	46110	111272	0	0	8068	560528	0	0
2024-08-08 11:53:47			0	37445	0	0	0	30283	28810	164839	27270	1072958	46120	111274	0	0	8069	559739	0	0
2024-08-08 11:54:47			0	37436	0	0	0	30280	28830	165003	27102	1073021	46122	111273	0	0	8068	560026	0	0
2024-08-08 11:55:47			0	37427	0	0	0	30285	28830	164963	26831	1073021	46122	111275	0	0	8068	560378	0	0
2024-08-08 11:56:47			0	37442	0	0	0	30296	28830	164831	26946	1073048	46122	111279	0	0	8068	559792	0	0
2024-08-08 11:57:47			0	37449	0	0	0	30293	28840	164915	26920	1073093	46112	111278	0	0	8069	559486	0	0
2024-08-08 11:58:47			0	37429	0	0	0	30293	28850	164843	27152	1073102	46124	111278	0	0	8068	560235	0	0
2024-08-08 11:59:47			0	37448	0	0	0	30285	28850	164691	27230	1073165	46101	111275	0	0	8069	559492	0	0
2024-08-08 12:00:47			0	37432	0	0	0	30293	28850	164751	27209	1073075	46101	111278	0	0	8068	560118	0	0
2024-08-08 12:01:47			0	37441	0	0	0	30293	28850	164819	27147	1073084	46112	111278	0	0	8069	559766	0	0
2024-08-08 12:02:47			0	37455	0	0	0	30298	28850	164783	27204	1073165	46112	111280	0	0	8069	559219	0	0
2024-08-08 12:03:47			0	37449	0	0	0	30290	28860	164835	27012	1073156	46114	111277	0	0	8069	559421	0	0
2024-08-08 12:04:47			0	37455	0	0	0	30298	28870	164795	27199	1073219	46125	111280	0	0	8069	559154	0	0
2024-08-08 12:05:47			0	37462	0	0	0	30303	28880	164755	27066	1073210	46115	111282	0	0	8070	558848	0	0
2024-08-08 12:06:47			0	37451	0	0	0	30296	28880	164627	26934	1073210	46115	111279	0	0	8069	559278	0	0
2024-08-08 12:07:47			0	37474	0	0	0	30303	28880	164695	27131	1073130	46115	111282	0	0	8070	558380	0	0
2024-08-08 12:08:47			0	37470	0	0	0	30303	28880	164683	27055	1073237	46115	111282	0	0	8070	558536	0	0
2024-08-08 12:09:47			0	37452	0	0	0	30316	28870	164611	27331	1073255	46126	111287	0	0	8069	559271	0	0
2024-08-08 12:10:47			0	37460	0	0	0	30319	28880	164731	27008	1073300	46138	111288	0	0	8069	558926	0	0
2024-08-08 12:11:47			0	37478	0	0	0	30319	28890	164699	26923	1073282	46128	111288	0	0	8070	558191	0	0
2024-08-08 12:12:47			0	37483	0	0	0	30332	28890	164643	27171	1073336	46117	111293	0	0	8071	557996	0	0
2024-08-08 12:13:47			0	37491	0	0	0	30335	28900	164563	27286	1073355	46139	111294	0	0	8071	557652	0	0
2024-08-08 12:14:47			0	37504	0	0	0	30355	28900	164575	26896	1073463	46117	111302	0	0	8071	557145	0	0
2024-08-08 12:15:47			0	37509	0	0	0	30361	28900	164531	27144	1073436	46128	111304	0	0	8072	556951	0	0
2024-08-08 12:16:47			0	37504	0	0	0	30345	28920	164535	27192	1073499	46141	111298	0	0	8072	557081	0	0
2024-08-08 12:17:47			0	37506	0	0	0	30355	28910	164627	27194	1073400	46130	111302	0	0	8072	557035	0	0
2024-08-08 12:18:47			0	37521	0	0	0	30358	28920	164567	27007	1073481	46131	111303	0	0	8072	556419	0	0
2024-08-08 12:19:47			0	37515	0	0	0	30358	28920	164431	27227	1073454	46120	111303	0	0	8072	556652	0	0
2024-08-08 12:20:47			0	37508	0	0	0	30361	28930	164487	27251	1073463	46121	111304	0	0	8072	556893	0	0
2024-08-08 12:21:47			0	37535	0	0	0	30371	28930	164435	27272	1073571	46121	111308	0	0	8073	555842	0	0
2024-08-08 12:22:47			0	37523	0	0	0	30386	28940	164355	27218	1073544	46133	111314	0	0	8072	556276	0	0
2024-08-08 12:23:47			0	37519	0	0	0	30397	28940	164379	27159	1073643	46110	111318	0	0	8072	556432	0	0
2024-08-08 12:24:47			0	37551	0	0	0	30392	28930	164351	26922	1073634	46121	111316	0	0	8074	555220	0	0
2024-08-08 12:25:47			0	37538	0	0	0	30389	28950	164363	27164	1073634	46112	111315	0	0	8073	555661	0	0
2024-08-08 12:26:47			0	37528	0	0	0	30381	28950	164311	27083	1073607	46123	111312	0	0	8073	556050	0	0
2024-08-08 12:27:47			0	37553	0	0	0	30376	28950	164255	27138	1073589	46113	111310	0	0	8074	555077	0	0
2024-08-08 12:28:47			0	37542	0	0	0	30366	28950	164223	26814	1073616	46124	111306	0	0	8074	555505	0	0
2024-08-08 12:29:47			0	37554	0	0	0	30361	28950	164195	26970	1073643	46113	111304	0	0	8074	555038	0	0
2024-08-08 12:30:47			0	37554	0	0	0	30366	28960	164191	27109	1073571	46113	111306	0	0	8074	555006	0	0
2024-08-08 12:31:47			0	37561	0	0	0	30373	28960	164131	27052	1073625	46135	111309	0	0	8075	554734	0	0
2024-08-08 12:32:47			0	37550	0	0	0	30376	28950	164135	26920	1073616	46113	111310	0	0	8074	555194	0	0
2024-08-08 12:33:47			0	37560	0	0	0	30379	28970	164247	27149	1073634	46124	111311	0	0	8075	554741	0	0
2024-08-08 12:34:47			0	37573	0	0	0	30371	28950	164195	27067	1073616	46113	111308	0	0	8075	554300	0	0
2024-08-08 12:35:47			0	37569	0	0	0	30376	28960	164191	27364	1073652	46124	111310	0	0	8075	554424	0	0
2024-08-08 12:36:47			0	37574	0	0	0	30381	28970	164151	27168	1073661	46124	111312	0	0	8075	554197	0	0
2024-08-08 12:37:47			0	37579	0	0	0	30384	28970	164179	26939	1073751	46136	111313	0	0	8076	554003	0	0
2024-08-08 12:38:47			0	37570	0	0	0	30389	28970	164115	26793	1073715	46135	111315	0	0	8075	554353	0	0
2024-08-08 12:39:47			0	37586	0	0	0	30399	28970	163999	27175	1073715	46135	111319	0	0	8076	553732	0	0
2024-08-08 12:40:47			0	37576	0	0	0	30407	28980	164103	27020	1073796	46125	111322	0	0	8075	554087	0	0
2024-08-08 12:41:47			0	37585	0	0	0	30423	28990	163987	27270	1073778	46136	111328	0	0	8075	553706	0	0
2024-08-08 12:42:47			0	37587	0	0	0	30436	28990	164007	27130	1073868	46137	111333	0	0	8075	553628	0	0
2024-08-08 12:43:47			0	37588	0	0	0	30441	29000	164031	27059	1073904	46150	111335	0	0	8075	553558	0	0
2024-08-08 12:44:47			0	37603	0	0	0	30431	29000	164027	27187	1073940	46138	111331	0	0	8076	552976	0	0
2024-08-08 12:45:47			0	37614	0	0	0	30436	29000	163979	26942	1073886	46138	111333	0	0	8077	552550	0	0
2024-08-08 12:46:47			0	37597	0	0	0	30438	29000	163899	26956	1073940	46138	111334	0	0	8076	553209	0	0
2024-08-08 12:47:47			0	37626	0	0	0	30438	29010	163939	27234	1073958	46139	111334	0	0	8078	552053	0	0
2024-08-08 12:48:47			0	37624	0	0	0	30446	29010	163867	26863	1073958	46139	111337	0	0	8077	552130	0	0
2024-08-08 12:49:47			0	37611	0	0	0	30446	29020	163951	27086	1073886	46140	111337	0	0	8077	552602	0	0
2024-08-08 12:50:47			0	37645	0	0	0	30441	29020	163907	26861	1074021	46119	111335	0	0	8079	551285	0	0
2024-08-08 12:51:47			0	37629	0	0	0	30449	29030	163947	27005	1073985	46130	111338	0	0	8078	551872	0	0
2024-08-08 12:52:47			0	37627	0	0	0	30441	29030	163875	26628	1074066	46153	111335	0	0	8078	551950	0	0
2024-08-08 12:53:47			0	37639	0	0	0	30444	29020	163783	27022	1074084	46141	111336	0	0	8078	551517	0	0
2024-08-08 12:54:47			0	37635	0	0	0	30446	29030	163879	27000	1074066	46141	111337	0	0	8078	551640	0	0
2024-08-08 12:55:47			0	37651	0	0	0	30459	29040	163631	27142	1074057	46121	111342	0	0	8079	550989	0	0
2024-08-08 12:56:47			0	37665	0	0	0	30459	29040	163771	27074	1074174	46143	111342	0	0	8080	550448	0	0
2024-08-08 12:57:47			0	37656	0	0	0	30462	29040	163719	26977	1074066	46143	111343	0	0	8079	550796	0	0
2024-08-08 12:58:47			0	37665	0	0	0	30454	29040	163755	27275	1074093	46143	111340	0	0	8080	550448	0	0
2024-08-08 12:59:47			0	37681	0	0	0	30446	29040	163707	26771	1074093	46132	111337	0	0	8081	549830	0	0
2024-08-08 13:00:47			0	37682	0	0	0	30436	29050	163627	26708	1074075	46132	111333	0	0	8081	549759	0	0
2024-08-08 13:01:47			0	37687	0	0	0	30444	29040	163635	26937	1074066	46122	111336	0	0	8081	549598	0	0
2024-08-08 13:02:47			0	37706	0	0	0	30446	29040	163591	27206	1074084	46121	111337	0	0	8082	548865	0	0
2024-08-08 13:03:47			0	37689	0	0	0	30407	29050	163655	26970	1074075	46132	111322	0	0	8082	549489	0	0
2024-08-08 13:04:47			0	37695	0	0	0	30402	29040	163707	27104	1073922	46109	111320	0	0	8082	549289	0	0
2024-08-08 13:05:47			0	37703	0	0	0	30402	29040	163567	27202	1073976	46109	111320	0	0	8083	548981	0	0
2024-08-08 13:06:47			0	37693	0	0	0	30418	29030	163515	26922	1074102	46141	111326	0	0	8082	549398	0	0
2024-08-08 13:07:47			0	37701	0	0	0	30405	29030	163627	27076	1074021	46130	111321	0	0	8083	549090	0	0
2024-08-08 13:08:47			0	37682	0	0	0	30389	29040	163583	26833	1073868	46109	111315	0	0	8082	549791	0	0
2024-08-08 13:09:47			0	37708	0	0	0	30373	29020	163575	26847	1073895	46108	111309	0	0	8083	548851	0	0
2024-08-08 13:10:47			0	37703	0	0	0	30402	29020	163559	27081	1073976	46130	111320	0	0	8083	549044	0	0
2024-08-08 13:11:47			0	37716	0	0	0	30425	29020	163551	27313	1073949	46153	111329	0	0	8083	548543	0	0
2024-08-08 13:12:47			0	37709	0	0	0	30470	29030	163527	26904	1074120	46153	111346	0	0	8082	548781	0	0
2024-08-08 13:13:47			0	37726	0	0	0	30464	29040	163463	27199	1074255	46143	111344	0	0	8083	548094	0	0
2024-08-08 13:14:47			0	37731	0	0	0	30454	29050	163443	26817	1074129	46143	111340	0	0	8084	547869	0	0
2024-08-08 13:15:47			0	37717	0	0	0	30462	29060	163519	26892	1074174	46144	111343	0	0	8083	548377	0	0
2024-08-08 13:16:47			0	37730	0	0	0	30472	29050	163371	26937	1074219	46143	111347	0	0	8083	547908	0	0
2024-08-08 13:17:47			0	37752	0	0	0	30475	29060	163355	27001	1074318	46145	111348	0	0	8084	547029	0	0
2024-08-08 13:18:47			0	37759	0	0	0	30480	29060	163347	26762	1074291	46145	111350	0	0	8085	546759	0	0
2024-08-08 13:19:47			0	37760	0	0	0	30483	29070	163351	26873	1074300	46157	111351	0	0	8085	546689	0	0
2024-08-08 13:20:47			0	37788	0	0	0	30493	29080	163231	26646	1074408	46136	111355	0	0	8086	545581	0	0
2024-08-08 13:21:47			0	37773	0	0	0	30493	29080	163259	26974	1074372	46146	111355	0	0	8085	546157	0	0
2024-08-08 13:22:47			0	37802	0	0	0	30493	29080	163187	27230	1074345	46135	111355	0	0	8087	545043	0	0
2024-08-08 13:23:47			0	37797	0	0	0	30477	29070	163111	26859	1074363	46124	111349	0	0	8087	545266	0	0
2024-08-08 13:24:47			0	37819	0	0	0	30470	29080	163083	26873	1074246	46136	111346	0	0	8088	544390	0	0
2024-08-08 13:25:47			0	37822	0	0	0	30470	29070	163099	27046	1074336	46134	111346	0	0	8089	544307	0	0
2024-08-08 13:26:47			0	37814	0	0	0	30472	29080	162951	26942	1074345	46135	111347	0	0	8088	544582	0	0
2024-08-08 13:27:47			0	37827	0	0	0	30488	29070	163019	26991	1074390	46145	111353	0	0	8089	544115	0	0
2024-08-08 13:28:47			0	37839	0	0	0	30501	29080	162999	26733	1074408	46147	111358	0	0	8089	543623	0	0
2024-08-08 13:29:47			0	37839	0	0	0	30522	29090	163015	26566	1074534	46160	111366	0	0	8089	543592	0	0
2024-08-08 13:30:47			0	37824	0	0	0	30548	29100	163051	27069	1074552	46161	111376	0	0	8088	544135	0	0
2024-08-08 13:31:47			0	37837	0	0	0	30540	29110	162987	26821	1074570	46162	111373	0	0	8088	543605	0	0
2024-08-08 13:32:47			0	37859	0	0	0	30545	29110	162983	26968	1074678	46139	111375	0	0	8090	542762	0	0
2024-08-08 13:33:47			0	37863	0	0	0	30548	29120	162899	27048	1074696	46163	111376	0	0	8090	542578	0	0
2024-08-08 13:34:47			0	37864	0	0	0	30548	29120	162831	27163	1074642	46151	111376	0	0	8090	542539	0	0
2024-08-08 13:35:47			0	37900	0	0	0	30532	29130	162679	27140	1074705	46141	111370	0	0	8092	541131	0	0
2024-08-08 13:36:47			0	37886	0	0	0	30506	29120	162663	27138	1074561	46118	111360	0	0	8092	541697	0	0
2024-08-08 13:37:47			0	37890	0	0	0	30483	29120	162663	27038	1074399	46118	111351	0	0	8093	541544	0	0
2024-08-08 13:38:47			0	37890	0	0	0	30477	29110	162615	27170	1074426	46128	111349	0	0	8093	541576	0	0
2024-08-08 13:39:47			0	37899	0	0	0	30498	29110	162663	27007	1074453	46150	111357	0	0	8093	541232	0	0
2024-08-08 13:40:47			0	37895	0	0	0	30514	29110	162631	27048	1074570	46150	111363	0	0	8092	541385	0	0
2024-08-08 13:41:47			0	37901	0	0	0	30522	29120	162699	26935	1074633	46150	111366	0	0	8092	541124	0	0
2024-08-08 13:42:47			0	37904	0	0	0	30537	29130	162759	27102	1074624	46164	111372	0	0	8092	540978	0	0
2024-08-08 13:43:47			0	37892	0	0	0	30548	29130	162687	26800	1074705	46164	111376	0	0	8092	541437	0	0
2024-08-08 13:44:47			0	37922	0	0	0	30550	29130	162655	26835	1074687	46141	111377	0	0	8093	540290	0	0
2024-08-08 13:45:47			0	37919	0	0	0	30542	29140	162639	27147	1074723	46141	111374	0	0	8093	540373	0	0
2024-08-08 13:46:47			0	37931	0	0	0	30561	29140	162567	27199	1074723	46152	111381	0	0	8094	539915	0	0
2024-08-08 13:47:47			0	37947	0	0	0	30568	29140	162479	27138	1074723	46164	111384	0	0	8094	539305	0	0
2024-08-08 13:48:47			0	37947	0	0	0	30586	29160	162435	27053	1074841	46155	111391	0	0	8094	539242	0	0
2024-08-08 13:49:47			0	37958	0	0	0	30612	29150	162403	26981	1074913	46143	111401	0	0	8094	538854	0	0
2024-08-08 13:50:47			0	37963	0	0	0	30631	29170	162415	26956	1074967	46167	111408	0	0	8094	538601	0	0
2024-08-08 13:51:47			0	37973	0	0	0	30623	29180	162343	27144	1075048	46146	111405	0	0	8095	538189	0	0
2024-08-08 13:52:47			0	37985	0	0	0	30625	29170	162347	27065	1075030	46157	111406	0	0	8096	537763	0	0
2024-08-08 13:53:47			0	37989	0	0	0	30612	29190	162327	26868	1074985	46136	111401	0	0	8096	537548	0	0
2024-08-08 13:54:47			0	37995	0	0	0	30597	29190	162243	26949	1075012	46136	111395	0	0	8097	537320	0	0
2024-08-08 13:55:47			0	37995	0	0	0	30615	29190	162299	26994	1075066	46148	111402	0	0	8097	537320	0	0
2024-08-08 13:56:47			0	38032	0	0	0	30628	29190	162208	26981	1075039	46148	111407	0	0	8099	535913	0	0
2024-08-08 13:57:47			0	38022	0	0	0	30599	29200	162259	26856	1075048	46148	111396	0	0	8098	536262	0	0
2024-08-08 13:58:47			0	38019	0	0	0	30584	29190	162127	26889	1075066	46148	111390	0	0	8099	536407	0	0
2024-08-08 13:59:47			0	38040	0	0	0	30584	29190	162132	26748	1075039	46148	111390	0	0	8100	535610	0	0
2024-08-08 14:00:47			0	38040	0	0	0	30602	29200	162156	26587	1075084	46148	111397	0	0	8099	535579	0	0
2024-08-08 14:01:47			0	38034	0	0	0	30623	29200	162112	26767	1075057	46148	111405	0	0	8099	535806	0	0
2024-08-08 14:02:47			0	38031	0	0	0	30649	29220	162144	26953	1075192	46172	111415	0	0	8098	535858	0	0
2024-08-08 14:03:47			0	38035	0	0	0	30670	29230	162088	26823	1075219	46163	111423	0	0	8098	535675	0	0
2024-08-08 14:04:47			0	38024	0	0	0	30675	29220	162123	26746	1075255	46173	111425	0	0	8097	536124	0	0
2024-08-08 14:05:47			0	38035	0	0	0	30683	29220	162112	26665	1075309	46151	111428	0	0	8098	535706	0	0
2024-08-08 14:06:47			0	38040	0	0	0	30680	29240	162088	26720	1075336	46152	111427	0	0	8098	535454	0	0
2024-08-08 14:07:47			0	38048	0	0	0	30649	29240	161932	26887	1075228	46140	111415	0	0	8099	535151	0	0
2024-08-08 14:08:47			0	38073	0	0	0	30618	29240	161808	26783	1075228	46152	111403	0	0	8101	534202	0	0
2024-08-08 14:09:47			0	38103	0	0	0	30638	29240	161832	26835	1075255	46129	111411	0	0	8103	533066	0	0
2024-08-08 14:10:47			0	38094	0	0	0	30651	29230	161732	27131	1075273	46152	111416	0	0	8102	533438	0	0
2024-08-08 14:11:47			0	38086	0	0	0	30641	29230	161920	26930	1075273	46152	111412	0	0	8102	533741	0	0
2024-08-08 14:12:47			0	38080	0	0	0	30610	29240	161840	26628	1075201	46152	111400	0	0	8102	533937	0	0
2024-08-08 14:13:47			0	38103	0	0	0	30618	29240	161756	26762	1075174	46140	111403	0	0	8103	533066	0	0
2024-08-08 14:14:47			0	38126	0	0	0	30646	29230	161696	26941	1075192	46152	111414	0	0	8104	532227	0	0
2024-08-08 14:15:47			0	38117	0	0	0	30662	29240	161736	26934	1075309	46152	111420	0	0	8103	532536	0	0
2024-08-08 14:16:47			0	38138	0	0	0	30657	29240	161724	27055	1075345	46153	111418	0	0	8104	531742	0	0
2024-08-08 14:17:47			0	38122	0	0	0	30623	29240	161644	26644	1075147	46140	111405	0	0	8104	532347	0	0
2024-08-08 14:18:47			0	38117	0	0	0	30615	29230	161688	26764	1075156	46139	111402	0	0	8104	532567	0	0
2024-08-08 14:19:47			0	38136	0	0	0	30610	29230	161668	26993	1075156	46151	111400	0	0	8105	531849	0	0
2024-08-08 14:20:47			0	38134	0	0	0	30610	29240	161708	26812	1075174	46152	111400	0	0	8105	531893	0	0
2024-08-08 14:21:47			0	38138	0	0	0	30584	29230	161684	26904	1075165	46152	111390	0	0	8106	531773	0	0
2024-08-08 14:22:47			0	38126	0	0	0	30568	29220	161572	26759	1075084	46138	111384	0	0	8105	532258	0	0
2024-08-08 14:23:47			0	38133	0	0	0	30581	29220	161748	26778	1075003	46150	111389	0	0	8105	531993	0	0
2024-08-08 14:24:47			0	38135	0	0	0	30576	29220	161864	26708	1075147	46151	111387	0	0	8105	531917	0	0
2024-08-08 14:25:47			0	38130	0	0	0	30592	29210	161732	26835	1075093	46149	111393	0	0	8105	532137	0	0
2024-08-08 14:26:47			0	38119	0	0	0	30620	29220	161696	26887	1075165	46161	111404	0	0	8104	532522	0	0
2024-08-08 14:27:47			0	38127	0	0	0	30620	29220	161788	26845	1075192	46150	111404	0	0	8104	532220	0	0
2024-08-08 14:28:47			0	38131	0	0	0	30615	29230	161748	26859	1075183	46151	111402	0	0	8105	532038	0	0
2024-08-08 14:29:47			0	38129	0	0	0	30610	29220	161760	27116	1075120	46139	111400	0	0	8105	532144	0	0
2024-08-08 14:30:47			0	38131	0	0	0	30615	29230	161736	26679	1075129	46139	111402	0	0	8105	532038	0	0
2024-08-08 14:31:47			0	38145	0	0	0	30631	29220	161820	27013	1075201	46151	111408	0	0	8105	531539	0	0
2024-08-08 14:32:47			0	38129	0	0	0	30649	29220	161704	27055	1075201	46151	111415	0	0	8104	532144	0	0
2024-08-08 14:33:47			0	38140	0	0	0	30654	29230	161764	27022	1075273	46163	111417	0	0	8104	531698	0	0
2024-08-08 14:34:47			0	38145	0	0	0	30654	29220	161632	27133	1075228	46162	111417	0	0	8105	531539	0	0
2024-08-08 14:35:47			0	38156	0	0	0	30667	29230	161652	26845	1075273	46152	111422	0	0	8105	531093	0	0
2024-08-08 14:36:47			0	38162	0	0	0	30680	29240	161632	27005	1075372	46153	111427	0	0	8105	530836	0	0
2024-08-08 14:37:47			0	38167	0	0	0	30690	29240	161560	26923	1075426	46175	111431	0	0	8105	530647	0	0
2024-08-08 14:38:47			0	38182	0	0	0	30693	29250	161428	26816	1075408	46153	111432	0	0	8106	530050	0	0
2024-08-08 14:39:47			0	38166	0	0	0	30703	29270	161388	27003	1075471	46166	111436	0	0	8105	530592	0	0
2024-08-08 14:40:47			0	38163	0	0	0	30696	29270	161312	26802	1075489	46155	111433	0	0	8105	530705	0	0
2024-08-08 14:41:47			0	38198	0	0	0	30688	29270	161384	26928	1075435	46155	111430	0	0	8107	529385	0	0
2024-08-08 14:42:47			0	38193	0	0	0	30683	29260	161404	26981	1075426	46176	111428	0	0	8107	529604	0	0
2024-08-08 14:43:47			0	38215	0	0	0	30696	29270	161288	26845	1075471	46166	111433	0	0	8108	528745	0	0
2024-08-08 14:44:47			0	38197	0	0	0	30703	29280	161364	26883	1075571	46157	111436	0	0	8107	529392	0	0
2024-08-08 14:45:47			0	38200	0	0	0	30714	29270	161340	26779	1075525	46166	111440	0	0	8107	529310	0	0
2024-08-08 14:46:47			0	38201	0	0	0	30727	29300	161360	26727	1075598	46168	111445	0	0	8107	529180	0	0
2024-08-08 14:47:47			0	38200	0	0	0	30727	29310	161332	26982	1075751	46159	111445	0	0	8107	529187	0	0
2024-08-08 14:48:47			0	38191	0	0	0	30753	29300	161304	26849	1075715	46159	111455	0	0	8106	529557	0	0
2024-08-08 14:49:47			0	38204	0	0	0	30766	29320	161292	27147	1075742	46170	111460	0	0	8107	529005	0	0
2024-08-08 14:50:47			0	38207	0	0	0	30766	29330	161304	27085	1075760	46161	111460	0	0	8107	528862	0	0
2024-08-08 14:51:47			0	38236	0	0	0	30766	29330	161240	26873	1075823	46162	111460	0	0	8109	527770	0	0
2024-08-08 14:52:47			0	38241	0	0	0	30771	29340	160980	26958	1075913	46173	111462	0	0	8109	527552	0	0
2024-08-08 14:53:47			0	38234	0	0	0	30763	29340	160976	27260	1075805	46173	111459	0	0	8108	527815	0	0
2024-08-08 14:54:47			0	38244	0	0	0	30781	29340	161008	26644	1075841	46163	111466	0	0	8109	527439	0	0
2024-08-08 14:55:47			0	38258	0	0	0	30763	29350	160984	26871	1075931	46173	111459	0	0	8110	526882	0	0
2024-08-08 14:56:47			0	38244	0	0	0	30789	29350	160984	26623	1075904	46173	111469	0	0	8109	527408	0	0
2024-08-08 14:57:47			0	38257	0	0	0	30773	29340	160812	27033	1075895	46173	111463	0	0	8110	526950	0	0
2024-08-08 14:58:47			0	38244	0	0	0	30745	29350	160872	26651	1075859	46164	111452	0	0	8109	527408	0	0
2024-08-08 14:59:47			0	38249	0	0	0	30742	29360	160992	26838	1075868	46175	111451	0	0	8110	527190	0	0
2024-08-08 15:00:47			0	38247	0	0	0	30729	29350	161036	26635	1075877	46173	111446	0	0	8110	527295	0	0
2024-08-08 15:01:47			0	38242	0	0	0	30732	29350	160920	26875	1075823	46140	111447	0	0	8110	527483	0	0
2024-08-08 15:02:47			0	38250	0	0	0	30737	29350	160924	26911	1075859	46174	111449	0	0	8110	527183	0	0
2024-08-08 15:03:47			0	38219	0	0	0	30740	29350	160976	27248	1075859	46174	111450	0	0	8108	528348	0	0
2024-08-08 15:04:47			0	38240	0	0	0	30724	29350	161032	27039	1075832	46152	111444	0	0	8110	527558	0	0
2024-08-08 15:05:47			0	38227	0	0	0	30719	29350	161020	26960	1075778	46152	111442	0	0	8109	528047	0	0
2024-08-08 15:06:47			0	38224	0	0	0	30701	29340	160944	27253	1075760	46163	111435	0	0	8109	528191	0	0
2024-08-08 15:07:47			0	38231	0	0	0	30685	29330	161016	27033	1075679	46161	111429	0	0	8110	527958	0	0
2024-08-08 15:08:47			0	38232	0	0	0	30654	29320	161104	27067	1075589	46138	111417	0	0	8110	527952	0	0
2024-08-08 15:09:47			0	38237	0	0	0	30633	29320	161000	26795	1075526	46148	111409	0	0	8111	527763	0	0
2024-08-08 15:10:47			0	38243	0	0	0	30628	29310	161004	26986	1075463	46137	111407	0	0	8111	527568	0	0
2024-08-08 15:11:47			0	38253	0	0	0	30646	29310	161076	26779	1075481	46159	111414	0	0	8111	527193	0	0
2024-08-08 15:12:47			0	38239	0	0	0	30641	29310	161200	26696	1075544	46160	111412	0	0	8111	527719	0	0
2024-08-08 15:13:47			0	38233	0	0	0	30659	29300	161048	27057	1075499	46147	111419	0	0	8110	527975	0	0
2024-08-08 15:14:47			0	38234	0	0	0	30654	29300	161004	26970	1075526	46147	111417	0	0	8110	527938	0	0
2024-08-08 15:15:47			0	38250	0	0	0	30618	29290	161096	27052	1075400	46135	111403	0	0	8112	527366	0	0
2024-08-08 15:16:47			0	38250	0	0	0	30592	29290	160996	27124	1075319	46113	111393	0	0	8112	527366	0	0
2024-08-08 15:17:47			0	38240	0	0	0	30558	29270	161168	26979	1075219	46121	111380	0	0	8112	527804	0	0
2024-08-08 15:18:47			0	38230	0	0	0	30540	29250	161108	26595	1075138	46130	111373	0	0	8112	528242	0	0
2024-08-08 15:19:47			0	38227	0	0	0	30532	29230	161172	26937	1075057	46119	111370	0	0	8111	528416	0	0
2024-08-08 15:20:47			0	38207	0	0	0	30537	29230	161252	27166	1075048	46118	111372	0	0	8110	529169	0	0
2024-08-08 15:21:47			0	38173	0	0	0	30553	29230	161344	27166	1075111	46140	111378	0	0	8108	530451	0	0
2024-08-08 15:22:47			0	38193	0	0	0	30571	29220	161264	26876	1075228	46151	111385	0	0	8109	529728	0	0
2024-08-08 15:23:47			0	38149	0	0	0	30581	29230	161516	27163	1075246	46174	111389	0	0	8106	531357	0	0
2024-08-08 15:24:47			0	38135	0	0	0	30568	29230	161600	27088	1075165	46152	111384	0	0	8106	531886	0	0
2024-08-08 15:25:47			0	38119	0	0	0	30584	29230	161560	26842	1075192	46140	111390	0	0	8104	532492	0	0
2024-08-08 15:26:47			0	38108	0	0	0	30644	29240	161664	26838	1075345	46141	111413	0	0	8103	532877	0	0
2024-08-08 15:27:47			0	38096	0	0	0	30659	29250	161744	26922	1075435	46164	111419	0	0	8102	533300	0	0
2024-08-08 15:28:47			0	38100	0	0	0	30649	29260	161696	27072	1075426	46165	111415	0	0	8102	533118	0	0
2024-08-08 15:29:47			0	38093	0	0	0	30654	29260	161700	26965	1075453	46165	111417	0	0	8102	533383	0	0
2024-08-08 15:30:47			0	38074	0	0	0	30654	29270	161660	27085	1075435	46155	111417	0	0	8101	534071	0	0
2024-08-08 15:31:47			0	38082	0	0	0	30667	29270	161784	27059	1075471	46156	111422	0	0	8101	533768	0	0
2024-08-08 15:32:47			0	38081	0	0	0	30677	29280	161752	26807	1075544	46167	111426	0	0	8101	533775	0	0
2024-08-08 15:33:47			0	38074	0	0	0	30657	29290	161736	26627	1075526	46145	111418	0	0	8101	534009	0	0
2024-08-08 15:34:47			0	38100	0	0	0	30631	29290	161656	27055	1075445	46145	111408	0	0	8103	533025	0	0
2024-08-08 15:35:47			0	38086	0	0	0	30628	29280	161596	26941	1075454	46156	111407	0	0	8102	533586	0	0
2024-08-08 15:36:47			0	38106	0	0	0	30623	29280	161620	27026	1075427	46144	111405	0	0	8103	532829	0	0
2024-08-08 15:37:47			0	38095	0	0	0	30631	29280	161608	27027	1075517	46157	111408	0	0	8103	533245	0	0
2024-08-08 15:38:47			0	38115	0	0	0	30631	29280	161600	27144	1075508	46156	111408	0	0	8104	532488	0	0
2024-08-08 15:39:47			0	38113	0	0	0	30623	29280	161660	27109	1075427	46156	111405	0	0	8104	532564	0	0
2024-08-08 15:40:47			0	38108	0	0	0	30631	29280	161668	27111	1075481	46156	111408	0	0	8103	532753	0	0
2024-08-08 15:41:47			0	38091	0	0	0	30664	29290	161584	27112	1075616	46158	111421	0	0	8102	533365	0	0
2024-08-08 15:42:47			0	38097	0	0	0	30693	29290	161620	26975	1075670	46168	111432	0	0	8102	533138	0	0
2024-08-08 15:43:47			0	38096	0	0	0	30688	29300	161704	26906	1075652	46158	111430	0	0	8102	533145	0	0
2024-08-08 15:44:47			0	38095	0	0	0	30677	29310	161756	26776	1075697	46159	111426	0	0	8102	533152	0	0
2024-08-08 15:45:47			0	38095	0	0	0	30664	29300	161604	26710	1075688	46169	111421	0	0	8102	533183	0	0
2024-08-08 15:46:47			0	38120	0	0	0	30667	29310	161468	26994	1075643	46147	111422	0	0	8103	532206	0	0
2024-08-08 15:47:47			0	38123	0	0	0	30667	29310	161508	27019	1075652	46160	111422	0	0	8104	532093	0	0
2024-08-08 15:48:47			0	38120	0	0	0	30683	29320	161480	26616	1075805	46161	111428	0	0	8103	532175	0	0
2024-08-08 15:49:47			0	38129	0	0	0	30722	29320	161504	26686	1075769	46170	111443	0	0	8103	531835	0	0
2024-08-08 15:50:47			0	38114	0	0	0	30709	29330	161544	26849	1075742	46172	111438	0	0	8103	532371	0	0
2024-08-08 15:51:47			0	38123	0	0	0	30685	29330	161496	26764	1075742	46150	111429	0	0	8103	532031	0	0
2024-08-08 15:52:47			0	38126	0	0	0	30693	29330	161508	26920	1075787	46149	111432	0	0	8103	531918	0	0
2024-08-08 15:53:47			0	38116	0	0	0	30709	29330	161632	26790	1075769	46162	111438	0	0	8103	532296	0	0
2024-08-08 15:54:47			0	38125	0	0	0	30690	29320	161420	26915	1075688	46137	111431	0	0	8103	531986	0	0
2024-08-08 15:55:47			0	38155	0	0	0	30672	29310	161488	26769	1075571	46125	111424	0	0	8105	530884	0	0
2024-08-08 15:56:47			0	38131	0	0	0	30633	29310	161516	27031	1075517	46115	111409	0	0	8105	531790	0	0
2024-08-08 15:57:47			0	38133	0	0	0	30633	29290	161416	26866	1075454	46124	111409	0	0	8105	531777	0	0
2024-08-08 15:58:47			0	38131	0	0	0	30649	29300	161552	26974	1075607	46136	111415	0	0	8104	531821	0	0
2024-08-08 15:59:47			0	38123	0	0	0	30688	29320	161516	26755	1075751	46161	111430	0	0	8103	532062	0	0
2024-08-08 16:00:47			0	38122	0	0	0	30729	29320	161576	26909	1075850	46182	111446	0	0	8103	532100	0	0
2024-08-08 16:01:47			0	38116	0	0	0	30750	29330	161616	26675	1075877	46172	111454	0	0	8102	532296	0	0
2024-08-08 16:02:47			0	38119	0	0	0	30758	29340	161664	26835	1075922	46173	111457	0	0	8102	532151	0	0
2024-08-08 16:03:47			0	38147	0	0	0	30763	29340	161496	26717	1076003	46185	111459	0	0	8104	531093	0	0
2024-08-08 16:04:47			0	38167	0	0	0	30776	29350	161312	26793	1076048	46174	111464	0	0	8104	530308	0	0
2024-08-08 16:05:47			0	38191	0	0	0	30802	29360	161216	27081	1076120	46175	111474	0	0	8105	529372	0	0
2024-08-08 16:06:47			0	38235	0	0	0	30831	29370	161100	26654	1076192	46188	111485	0	0	8108	527685	0	0
2024-08-08 16:07:47			0	38283	0	0	0	30818	29390	160920	26994	1076228	46167	111480	0	0	8111	525821	0	0
2024-08-08 16:08:47			0	38304	0	0	0	30807	29390	160752	27074	1076174	46167	111476	0	0	8112	525033	0	0
2024-08-08 16:09:47			0	38313	0	0	0	30797	29390	160704	27088	1076111	46156	111472	0	0	8113	524696	0	0
2024-08-08 16:10:47			0	38356	0	0	0	30784	29390	160532	27055	1076165	46156	111467	0	0	8115	523087	0	0
2024-08-08 16:11:47			0	38346	0	0	0	30794	29400	160548	26654	1076130	46168	111471	0	0	8115	523430	0	0
2024-08-08 16:12:47			0	38350	0	0	0	30789	29400	160600	27374	1076184	46146	111469	0	0	8115	523281	0	0
2024-08-08 16:13:47			0	38340	0	0	0	30789	29400	160600	27000	1076211	46168	111469	0	0	8114	523655	0	0
2024-08-08 16:14:47			0	38324	0	0	0	30820	29420	160636	26814	1076274	46159	111481	0	0	8113	524193	0	0
2024-08-08 16:15:47			0	38314	0	0	0	30836	29410	160684	26880	1076292	46169	111487	0	0	8112	524598	0	0
2024-08-08 16:16:47			0	38303	0	0	0	30841	29420	160628	26972	1076409	46181	111489	0	0	8111	524979	0	0
2024-08-08 16:17:47			0	38313	0	0	0	30841	29420	160664	26837	1076364	46160	111489	0	0	8112	524605	0	0
2024-08-08 16:18:47			0	38324	0	0	0	30820	29430	160660	26817	1076292	46171	111481	0	0	8113	524162	0	0
2024-08-08 16:19:47			0	38328	0	0	0	30815	29430	160656	26823	1076319	46171	111479	0	0	8113	524012	0	0
2024-08-08 16:20:47			0	38335	0	0	0	30831	29430	160640	27168	1076382	46171	111485	0	0	8114	523750	0	0
2024-08-08 16:21:47			0	38344	0	0	0	30823	29430	160548	27163	1076355	46160	111482	0	0	8114	523414	0	0
2024-08-08 16:22:47			0	38339	0	0	0	30820	29430	160668	27017	1076328	46160	111481	0	0	8114	523601	0	0
2024-08-08 16:23:47			0	38334	0	0	0	30836	29430	160556	27119	1076373	46160	111487	0	0	8113	523788	0	0
2024-08-08 16:24:47			0	38343	0	0	0	30846	29430	160488	27124	1076382	46171	111491	0	0	8114	523451	0	0
2024-08-08 16:25:47			0	38362	0	0	0	30857	29430	160508	26923	1076436	46171	111495	0	0	8115	522741	0	0
2024-08-08 16:26:47			0	38387	0	0	0	30859	29440	160428	26844	1076427	46173	111496	0	0	8116	521776	0	0
2024-08-08 16:27:47			0	38397	0	0	0	30864	29450	160392	26937	1076463	46162	111498	0	0	8117	521373	0	0
2024-08-08 16:28:47			0	38412	0	0	0	30849	29450	160300	26916	1076463	46162	111492	0	0	8118	520813	0	0
2024-08-08 16:29:47			0	38421	0	0	0	30844	29440	160300	26859	1076400	46151	111490	0	0	8118	520508	0	0
2024-08-08 16:30:47			0	38422	0	0	0	30838	29440	160216	26875	1076373	46151	111488	0	0	8118	520470	0	0
2024-08-08 16:31:47			0	38426	0	0	0	30841	29450	160264	26951	1076409	46162	111489	0	0	8119	520291	0	0
2024-08-08 16:32:47			0	38425	0	0	0	30851	29450	160124	26987	1076472	46151	111493	0	0	8118	520328	0	0
2024-08-08 16:33:47			0	38432	0	0	0	30864	29450	160280	26741	1076499	46184	111498	0	0	8119	520068	0	0
2024-08-08 16:34:47			0	38414	0	0	0	30885	29450	160248	26677	1076499	46173	111506	0	0	8117	520738	0	0
2024-08-08 16:35:47			0	38429	0	0	0	30896	29470	160156	26927	1076607	46175	111510	0	0	8118	520119	0	0
2024-08-08 16:36:47			0	38423	0	0	0	30909	29470	160192	26811	1076634	46198	111515	0	0	8117	520342	0	0
2024-08-08 16:37:47			0	38434	0	0	0	30898	29470	160208	26719	1076589	46175	111511	0	0	8118	519932	0	0
2024-08-08 16:38:47			0	38438	0	0	0	30914	29480	160136	26935	1076652	46187	111517	0	0	8118	519753	0	0
2024-08-08 16:39:47			0	38453	0	0	0	30914	29480	160116	26722	1076635	46188	111517	0	0	8119	519195	0	0
2024-08-08 16:40:47			0	38454	0	0	0	30901	29480	160016	26790	1076689	46166	111512	0	0	8119	519158	0	0
2024-08-08 16:41:47			0	38465	0	0	0	30916	29480	160076	26734	1076716	46176	111518	0	0	8120	518748	0	0
2024-08-08 16:42:47			0	38472	0	0	0	30909	29480	159996	26946	1076652	46165	111515	0	0	8120	518488	0	0
2024-08-08 16:43:47			0	38478	0	0	0	30914	29490	159952	26892	1076707	46189	111517	0	0	8121	518235	0	0
2024-08-08 16:44:47			0	38468	0	0	0	30906	29490	160096	26654	1076707	46177	111514	0	0	8120	518607	0	0
2024-08-08 16:45:47			0	38471	0	0	0	30903	29490	160160	26890	1076707	46177	111513	0	0	8120	518495	0	0
2024-08-08 16:46:47			0	38476	0	0	0	30903	29490	160040	26689	1076761	46189	111513	0	0	8121	518309	0	0
2024-08-08 16:47:47			0	38461	0	0	0	30911	29510	160136	26701	1076761	46179	111516	0	0	8120	518806	0	0
2024-08-08 16:48:47			0	38443	0	0	0	30903	29510	160096	26902	1076734	46179	111513	0	0	8119	519476	0	0
2024-08-08 16:49:47			0	38431	0	0	0	30906	29500	160216	26689	1076743	46177	111514	0	0	8118	519953	0	0
2024-08-08 16:50:47			0	38406	0	0	0	30896	29490	160256	26717	1076653	46189	111510	0	0	8117	520916	0	0
2024-08-08 16:51:47			0	38403	0	0	0	30903	29510	160320	26573	1076653	46168	111513	0	0	8117	520967	0	0
2024-08-08 16:52:47			0	38391	0	0	0	30903	29500	160316	26955	1076716	46166	111513	0	0	8116	521445	0	0
2024-08-08 16:53:47			0	38384	0	0	0	30911	29500	160412	26817	1076698	46178	111516	0	0	8115	521706	0	0
2024-08-08 16:54:47			0	38371	0	0	0	30911	29490	160380	26828	1076707	46189	111516	0	0	8115	522222	0	0
2024-08-08 16:55:47			0	38355	0	0	0	30914	29500	160412	26790	1076716	46177	111517	0	0	8114	522789	0	0
2024-08-08 16:56:47			0	38357	0	0	0	30909	29510	160516	26712	1076761	46191	111515	0	0	8114	522684	0	0
2024-08-08 16:57:47			0	38343	0	0	0	30916	29500	160364	26648	1076716	46189	111518	0	0	8113	523238	0	0
2024-08-08 16:58:47			0	38352	0	0	0	30919	29500	160436	27019	1076752	46178	111519	0	0	8113	522901	0	0
2024-08-08 16:59:47			0	38357	0	0	0	30916	29510	160396	27097	1076788	46191	111518	0	0	8114	522684	0	0
2024-08-08 17:00:47			0	38355	0	0	0	30927	29500	160388	26854	1076806	46190	111522	0	0	8113	522789	0	0
2024-08-08 17:01:47			0	38354	0	0	0	30924	29520	160416	26991	1076842	46192	111521	0	0	8113	522766	0	0
2024-08-08 17:02:47			0	38356	0	0	0	30937	29520	160432	26807	1076806	46202	111526	0	0	8113	522691	0	0
2024-08-08 17:03:47			0	38368	0	0	0	30940	29520	160464	26892	1076869	46192	111527	0	0	8114	522243	0	0
2024-08-08 17:04:47			0	38371	0	0	0	30940	29520	160376	26977	1076896	46192	111527	0	0	8114	522131	0	0
2024-08-08 17:05:47			0	38375	0	0	0	30942	29520	160300	26937	1076896	46192	111528	0	0	8114	521981	0	0
2024-08-08 17:06:47			0	38395	0	0	0	30937	29520	160368	26651	1076842	46180	111526	0	0	8116	521235	0	0
2024-08-08 17:07:47			0	38390	0	0	0	30942	29530	160320	27022	1076851	46181	111528	0	0	8115	521391	0	0
2024-08-08 17:08:47			0	38376	0	0	0	30950	29530	160420	26880	1076941	46182	111531	0	0	8114	521914	0	0
2024-08-08 17:09:47			0	38378	0	0	0	30945	29520	160340	26622	1076914	46191	111529	0	0	8114	521869	0	0
2024-08-08 17:10:47			0	38415	0	0	0	30948	29540	160244	26708	1076923	46194	111530	0	0	8117	520429	0	0
2024-08-08 17:11:47			0	38399	0	0	0	30948	29540	160268	26928	1076923	46171	111530	0	0	8116	521025	0	0
2024-08-08 17:12:47			0	38378	0	0	0	30940	29550	160184	26635	1076914	46195	111527	0	0	8115	521778	0	0
2024-08-08 17:13:47			0	38386	0	0	0	30950	29550	160352	26613	1076932	46182	111531	0	0	8115	521480	0	0
2024-08-08 17:14:47			0	38394	0	0	0	30953	29550	160168	26589	1076959	46182	111532	0	0	8115	521181	0	0
2024-08-08 17:15:47			0	38404	0	0	0	30950	29540	160292	26857	1076977	46182	111531	0	0	8116	520839	0	0
2024-08-08 17:16:47			0	38398	0	0	0	30955	29550	160288	26759	1076968	46206	111533	0	0	8116	521032	0	0
2024-08-08 17:17:47			0	38384	0	0	0	30953	29550	160276	26904	1076959	46194	111532	0	0	8115	521554	0	0
2024-08-08 17:18:47			0	38382	0	0	0	30953	29550	160268	26679	1076941	46183	111532	0	0	8115	521629	0	0
2024-08-08 17:19:47			0	38399	0	0	0	30950	29550	160304	26942	1077013	46194	111531	0	0	8116	520995	0	0
2024-08-08 17:20:47			0	38400	0	0	0	30945	29550	160300	26896	1076995	46206	111529	0	0	8116	520957	0	0
2024-08-08 17:21:47			0	38407	0	0	0	30955	29560	160272	26899	1076959	46196	111533	0	0	8116	520666	0	0
2024-08-08 17:22:47			0	38396	0	0	0	30953	29560	160340	26946	1077031	46196	111532	0	0	8116	521076	0	0
2024-08-08 17:23:47			0	38381	0	0	0	30961	29560	160260	27062	1077031	46196	111535	0	0	8115	521636	0	0
2024-08-08 17:24:47			0	38384	0	0	0	30966	29560	160152	26595	1077095	46184	111537	0	0	8115	521524	0	0
2024-08-08 17:25:47			0	38379	0	0	0	30950	29560	160240	26715	1077068	46196	111531	0	0	8115	521711	0	0
2024-08-08 17:26:47			0	38378	0	0	0	30955	29560	160224	26885	1077013	46184	111533	0	0	8114	521748	0	0
2024-08-08 17:27:47			0	38382	0	0	0	30945	29560	160188	26634	1077058	46207	111529	0	0	8115	521599	0	0
2024-08-08 17:28:47			0	38374	0	0	0	30963	29560	160308	27104	1077095	46184	111536	0	0	8114	521897	0	0
2024-08-08 17:29:47			0	38376	0	0	0	30976	29570	160220	26727	1077104	46196	111541	0	0	8114	521792	0	0
2024-08-08 17:30:47			0	38389	0	0	0	30966	29570	160220	26958	1077023	46196	111537	0	0	8115	521307	0	0
2024-08-08 17:31:47			0	38381	0	0	0	30958	29570	160328	27138	1077104	46196	111534	0	0	8115	521606	0	0
2024-08-08 17:32:47			0	38386	0	0	0	30961	29570	160272	27066	1077023	46207	111535	0	0	8115	521419	0	0
2024-08-08 17:33:47			0	38385	0	0	0	30968	29570	160164	26880	1077059	46197	111538	0	0	8115	521456	0	0
2024-08-08 17:34:47			0	38394	0	0	0	30979	29570	160196	26800	1077077	46196	111542	0	0	8115	521121	0	0
2024-08-08 17:35:47			0	38393	0	0	0	30971	29580	160200	26745	1077095	46198	111539	0	0	8115	521127	0	0
2024-08-08 17:36:47			0	38403	0	0	0	30979	29580	160124	26698	1077131	46198	111542	0	0	8116	520755	0	0
2024-08-08 17:37:47			0	38408	0	0	0	30976	29570	160116	26975	1077086	46208	111541	0	0	8116	520599	0	0
2024-08-08 17:38:47			0	38397	0	0	0	30976	29580	160104	26932	1077149	46208	111541	0	0	8115	520978	0	0
2024-08-08 17:39:47			0	38424	0	0	0	30973	29580	160060	27001	1077104	46198	111540	0	0	8117	519972	0	0
2024-08-08 17:40:47			0	38437	0	0	0	30961	29580	160100	27050	1077041	46198	111535	0	0	8118	519488	0	0
2024-08-08 17:41:47			0	38439	0	0	0	30950	29560	160060	26850	1076986	46184	111531	0	0	8118	519474	0	0
2024-08-08 17:42:47			0	38448	0	0	0	30953	29560	159936	26956	1077068	46184	111532	0	0	8119	519139	0	0
2024-08-08 17:43:47			0	38456	0	0	0	30945	29570	159968	26802	1077050	46207	111529	0	0	8119	518811	0	0
2024-08-08 17:44:47			0	38456	0	0	0	30950	29570	159884	26543	1077032	46174	111531	0	0	8119	518811	0	0
2024-08-08 17:45:47			0	38457	0	0	0	30948	29570	159940	27130	1077005	46185	111530	0	0	8119	518774	0	0
2024-08-08 17:46:47			0	38471	0	0	0	30948	29560	159932	26778	1077040	46196	111530	0	0	8120	518284	0	0
2024-08-08 17:47:47			0	38450	0	0	0	30945	29560	159956	26726	1077013	46184	111529	0	0	8119	519065	0	0
2024-08-08 17:48:47			0	38448	0	0	0	30940	29570	159900	26908	1076996	46184	111527	0	0	8119	519109	0	0
2024-08-08 17:49:47			0	38469	0	0	0	30940	29560	159832	27064	1076959	46196	111527	0	0	8120	518358	0	0
2024-08-08 17:50:47			0	38476	0	0	0	30945	29560	159904	26847	1077031	46184	111529	0	0	8120	518098	0	0
2024-08-08 17:51:47			0	38478	0	0	0	30950	29550	159912	26790	1076995	46195	111531	0	0	8120	518054	0	0
2024-08-08 17:52:47			0	38491	0	0	0	30953	29560	159788	26710	1077031	46196	111532	0	0	8121	517541	0	0
2024-08-08 17:53:47			0	38495	0	0	0	30963	29560	159852	26876	1077031	46218	111536	0	0	8121	517392	0	0
2024-08-08 17:54:47			0	38487	0	0	0	30953	29560	159864	26800	1077013	46184	111532	0	0	8121	517689	0	0
2024-08-08 17:55:47			0	38505	0	0	0	30953	29560	159876	26854	1077013	46207	111532	0	0	8122	517021	0	0
2024-08-08 17:56:47			0	38502	0	0	0	30950	29570	159808	26772	1077023	46184	111531	0	0	8122	517102	0	0
2024-08-08 17:57:47			0	38519	0	0	0	30953	29550	159800	26994	1076941	46183	111532	0	0	8123	516531	0	0
2024-08-08 17:58:47			0	38531	0	0	0	30948	29560	159852	26743	1077013	46184	111530	0	0	8123	516056	0	0
2024-08-08 17:59:47			0	38521	0	0	0	30924	29560	159780	26897	1076977	46184	111521	0	0	8123	516427	0	0
2024-08-08 18:00:47			0	38547	0	0	0	30901	29550	159712	27031	1076878	46171	111512	0	0	8125	515493	0	0
2024-08-08 18:01:47			0	38526	0	0	0	30872	29540	159736	26667	1076761	46182	111501	0	0	8124	516302	0	0
2024-08-08 18:02:47			0	38531	0	0	0	30838	29530	159672	26686	1076671	46161	111488	0	0	8125	516146	0	0
2024-08-08 18:03:47			0	38511	0	0	0	30812	29510	159828	26937	1076545	46158	111478	0	0	8124	516948	0	0
2024-08-08 18:04:47			0	38500	0	0	0	30779	29490	159864	26868	1076536	46144	111465	0	0	8124	517417	0	0
2024-08-08 18:05:47			0	38495	0	0	0	30771	29470	159916	26883	1076481	46175	111462	0	0	8124	517663	0	0
2024-08-08 18:06:47			0	38487	0	0	0	30768	29460	159916	27012	1076355	46164	111461	0	0	8123	517991	0	0
2024-08-08 18:07:47			0	38484	0	0	0	30779	29460	159972	26804	1076463	46174	111465	0	0	8123	518102	0	0
2024-08-08 18:08:47			0	38498	0	0	0	30779	29460	160004	26786	1076454	46174	111465	0	0	8124	517582	0	0
2024-08-08 18:09:47			0	38487	0	0	0	30758	29450	160000	26710	1076274	46162	111457	0	0	8124	518021	0	0
2024-08-08 18:10:47			0	38468	0	0	0	30732	29430	159996	26837	1076166	46149	111447	0	0	8123	518788	0	0
2024-08-08 18:11:47			0	38490	0	0	0	30711	29420	159988	26802	1076112	46148	111439	0	0	8124	518000	0	0
2024-08-08 18:12:47			0	38478	0	0	0	30735	29410	159964	27081	1076202	46169	111448	0	0	8123	518476	0	0
2024-08-08 18:13:47			0	38490	0	0	0	30781	29410	159992	26934	1076229	46180	111466	0	0	8123	518030	0	0
2024-08-08 18:14:47			0	38508	0	0	0	30771	29410	159912	26667	1076238	46158	111462	0	0	8124	517361	0	0
2024-08-08 18:15:47			0	38494	0	0	0	30732	29400	159992	26791	1076022	46146	111447	0	0	8124	517911	0	0
2024-08-08 18:16:47			0	38522	0	0	0	30703	29380	159928	27133	1075886	46144	111436	0	0	8126	516931	0	0
2024-08-08 18:17:47			0	38515	0	0	0	30685	29370	159932	26785	1075868	46166	111429	0	0	8126	517221	0	0
2024-08-08 18:18:47			0	38518	0	0	0	30670	29350	159940	27045	1075796	46140	111423	0	0	8126	517170	0	0
2024-08-08 18:19:47			0	38529	0	0	0	30662	29350	159968	26946	1075796	46163	111420	0	0	8127	516761	0	0
2024-08-08 18:20:47			0	38539	0	0	0	30654	29330	160032	26892	1075715	46139	111417	0	0	8128	516450	0	0
2024-08-08 18:21:47			0	38523	0	0	0	30657	29330	159932	26878	1075760	46161	111418	0	0	8127	517044	0	0
2024-08-08 18:22:47			0	38550	0	0	0	30657	29340	159892	26741	1075778	46163	111418	0	0	8128	516012	0	0
2024-08-08 18:23:47			0	38537	0	0	0	30646	29330	159844	26854	1075733	46161	111414	0	0	8128	516524	0	0
2024-08-08 18:24:47			0	38535	0	0	0	30659	29340	159956	26955	1075805	46163	111419	0	0	8127	516569	0	0
2024-08-08 18:25:47			0	38541	0	0	0	30659	29320	159948	26837	1075715	46160	111419	0	0	8128	516406	0	0
2024-08-08 18:26:47			0	38546	0	0	0	30644	29310	159880	26623	1075706	46137	111413	0	0	8128	516250	0	0
2024-08-08 18:27:47			0	38556	0	0	0	30633	29310	159920	26854	1075652	46160	111409	0	0	8129	515880	0	0
2024-08-08 18:28:47			0	38554	0	0	0	30615	29310	159844	26880	1075589	46147	111402	0	0	8129	515954	0	0
2024-08-08 18:29:47			0	38575	0	0	0	30602	29300	159804	26731	1075490	46146	111397	0	0	8130	515205	0	0
2024-08-08 18:30:47			0	38561	0	0	0	30599	29290	159888	26817	1075418	46145	111396	0	0	8130	515754	0	0
2024-08-08 18:31:47			0	38554	0	0	0	30594	29270	159868	26719	1075445	46133	111394	0	0	8129	516074	0	0
2024-08-08 18:32:47			0	38545	0	0	0	30612	29270	159892	26720	1075553	46156	111401	0	0	8128	516408	0	0
2024-08-08 18:33:47			0	38552	0	0	0	30651	29280	159936	26911	1075696	46178	111416	0	0	8128	516118	0	0
2024-08-08 18:34:47			0	38555	0	0	0	30701	29300	159800	26996	1075760	46180	111435	0	0	8128	515947	0	0
2024-08-08 18:35:47			0	38554	0	0	0	30719	29300	159844	26738	1075814	46180	111442	0	0	8127	515984	0	0
2024-08-08 18:36:47			0	38567	0	0	0	30716	29310	159848	26889	1075778	46181	111441	0	0	8128	515472	0	0
2024-08-08 18:37:47			0	38598	0	0	0	30724	29320	159780	26566	1075832	46171	111444	0	0	8130	514293	0	0
2024-08-08 18:38:47			0	38611	0	0	0	30724	29310	159788	26760	1075760	46170	111444	0	0	8131	513842	0	0
2024-08-08 18:39:47			0	38633	0	0	0	30722	29310	159764	27222	1075814	46160	111443	0	0	8132	513029	0	0
2024-08-08 18:40:47			0	38642	0	0	0	30748	29320	159704	26663	1075913	46171	111453	0	0	8132	512666	0	0
2024-08-08 18:41:47			0	38662	0	0	0	30753	29330	159580	26854	1075985	46195	111455	0	0	8133	511898	0	0
2024-08-08 18:42:47			0	38658	0	0	0	30755	29320	159604	27170	1075886	46182	111456	0	0	8133	512075	0	0
2024-08-08 18:43:47			0	38697	0	0	0	30758	29330	159540	26712	1075985	46183	111457	0	0	8135	510607	0	0
2024-08-08 18:44:47			0	38717	0	0	0	30766	29340	159492	26979	1076003	46185	111460	0	0	8136	509840	0	0
2024-08-08 18:45:47			0	38695	0	0	0	30771	29340	159436	26968	1076003	46185	111462	0	0	8135	510651	0	0
2024-08-08 18:46:47			0	38696	0	0	0	30766	29350	159540	26793	1075967	46174	111460	0	0	8135	510584	0	0
2024-08-08 18:47:47			0	38679	0	0	0	30761	29360	159460	26939	1075976	46175	111458	0	0	8134	511181	0	0
2024-08-08 18:48:47			0	38692	0	0	0	30750	29340	159460	26819	1075949	46173	111454	0	0	8135	510761	0	0
2024-08-08 18:49:47			0	38695	0	0	0	30729	29350	159376	26965	1075877	46163	111446	0	0	8135	510621	0	0
2024-08-08 18:50:47			0	38701	0	0	0	30735	29330	159336	26977	1075868	46161	111448	0	0	8136	510459	0	0
2024-08-08 18:51:47			0	38697	0	0	0	30740	29340	159472	26785	1075922	46185	111450	0	0	8135	510577	0	0
2024-08-08 18:52:47			0	38684	0	0	0	30740	29340	159460	27251	1075886	46173	111450	0	0	8135	511056	0	0
2024-08-08 18:53:47			0	38694	0	0	0	30742	29330	159404	27069	1075931	46172	111451	0	0	8135	510717	0	0
2024-08-08 18:54:47			0	38674	0	0	0	30758	29340	159440	26819	1075949	46173	111457	0	0	8134	511425	0	0
2024-08-08 18:55:47			0	38667	0	0	0	30740	29350	159488	26781	1075958	46185	111450	0	0	8134	511654	0	0
2024-08-08 18:56:47			0	38688	0	0	0	30740	29340	159380	26661	1075922	46173	111450	0	0	8135	510909	0	0
2024-08-08 18:57:47			0	38684	0	0	0	30737	29350	159408	26883	1075958	46173	111449	0	0	8135	511027	0	0
2024-08-08 18:58:47			0	38692	0	0	0	30742	29340	159292	26831	1075949	46163	111451	0	0	8135	510761	0	0
2024-08-08 18:59:47			0	38700	0	0	0	30745	29350	159220	26882	1075985	46163	111452	0	0	8135	510437	0	0
2024-08-08 19:00:47			0	38678	0	0	0	30745	29350	159316	26998	1075913	46186	111452	0	0	8134	511248	0	0
2024-08-08 19:01:47			0	38684	0	0	0	30714	29340	159304	26802	1075805	46163	111440	0	0	8135	511056	0	0
2024-08-08 19:02:47			0	38700	0	0	0	30703	29340	159328	26778	1075886	46173	111436	0	0	8136	510467	0	0
2024-08-08 19:03:47			0	38693	0	0	0	30701	29330	159220	26620	1075814	46171	111435	0	0	8136	510754	0	0
2024-08-08 19:04:47			0	38699	0	0	0	30714	29320	159216	27159	1075832	46171	111440	0	0	8136	510563	0	0
2024-08-08 19:05:47			0	38678	0	0	0	30714	29330	159252	26771	1075823	46183	111440	0	0	8135	511307	0	0
2024-08-08 19:06:47			0	38689	0	0	0	30701	29330	159320	26620	1075841	46171	111435	0	0	8135	510902	0	0
2024-08-08 19:07:47			0	38703	0	0	0	30714	29320	159176	26736	1075832	46171	111440	0	0	8136	510415	0	0
2024-08-08 19:08:47			0	38710	0	0	0	30724	29330	159276	26778	1075868	46182	111444	0	0	8136	510128	0	0
2024-08-08 19:09:47			0	38722	0	0	0	30727	29330	159216	26816	1075814	46171	111445	0	0	8137	509686	0	0
2024-08-08 19:10:47			0	38718	0	0	0	30735	29330	159124	26863	1075868	46194	111448	0	0	8137	509833	0	0
2024-08-08 19:11:47			0	38740	0	0	0	30724	29330	159137	26963	1075868	46171	111444	0	0	8138	509023	0	0
2024-08-08 19:12:47			0	38740	0	0	0	30727	29340	159033	26764	1075832	46185	111445	0	0	8138	508994	0	0
2024-08-08 19:13:47			0	38728	0	0	0	30732	29330	159149	26731	1075904	46183	111447	0	0	8137	509465	0	0
2024-08-08 19:14:47			0	38735	0	0	0	30732	29330	159101	26679	1075895	46171	111447	0	0	8138	509207	0	0
2024-08-08 19:15:47			0	38746	0	0	0	30729	29330	159145	26771	1075814	46171	111446	0	0	8138	508803	0	0
2024-08-08 19:16:47			0	38762	0	0	0	30737	29330	159021	26887	1075868	46161	111449	0	0	8139	508215	0	0
2024-08-08 19:17:47			0	38756	0	0	0	30724	29320	158845	26896	1075886	46182	111444	0	0	8139	508465	0	0
2024-08-08 19:18:47			0	38765	0	0	0	30732	29330	158977	27039	1075868	46194	111447	0	0	8139	508104	0	0
2024-08-08 19:19:47			0	38780	0	0	0	30722	29320	158925	26857	1075823	46170	111443	0	0	8140	507583	0	0
2024-08-08 19:20:47			0	38779	0	0	0	30737	29330	158977	26757	1075868	46171	111449	0	0	8140	507590	0	0
2024-08-08 19:21:47			0	38790	0	0	0	30735	29330	159005	26798	1075850	46183	111448	0	0	8141	507186	0	0
2024-08-08 19:22:47			0	38794	0	0	0	30719	29330	158969	26556	1075814	46182	111442	0	0	8141	507039	0	0
2024-08-08 19:23:47			0	38785	0	0	0	30701	29320	158949	26635	1075805	46171	111435	0	0	8141	507399	0	0
2024-08-08 19:24:47			0	38786	0	0	0	30685	29320	158917	26870	1075688	46160	111429	0	0	8141	507362	0	0
2024-08-08 19:25:47			0	38794	0	0	0	30659	29310	158953	26979	1075562	46159	111419	0	0	8142	507098	0	0
2024-08-08 19:26:47			0	38798	0	0	0	30631	29290	158921	26968	1075454	46146	111408	0	0	8143	507010	0	0
2024-08-08 19:27:47			0	38809	0	0	0	30607	29280	158809	26878	1075346	46144	111399	0	0	8144	506636	0	0
2024-08-08 19:28:47			0	38763	0	0	0	30584	29250	159005	26700	1075282	46142	111390	0	0	8141	508414	0	0
2024-08-08 19:29:47			0	38761	0	0	0	30568	29240	159021	26833	1075264	46141	111384	0	0	8141	508517	0	0
2024-08-08 19:30:47			0	38748	0	0	0	30576	29230	159089	26677	1075327	46152	111387	0	0	8140	509025	0	0
2024-08-08 19:31:47			0	38737	0	0	0	30592	29240	159152	26613	1075282	46163	111393	0	0	8140	509400	0	0
2024-08-08 19:32:47			0	38720	0	0	0	30612	29240	159216	26693	1075363	46185	111401	0	0	8138	510026	0	0
2024-08-08 19:33:47			0	38732	0	0	0	30623	29240	159177	26547	1075336	46174	111405	0	0	8139	509584	0	0
2024-08-08 19:34:47			0	38721	0	0	0	30618	29250	159208	26951	1075408	46186	111403	0	0	8138	509960	0	0
2024-08-08 19:35:47			0	38737	0	0	0	30631	29250	159205	27003	1075381	46175	111408	0	0	8139	509371	0	0
2024-08-08 19:36:47			0	38758	0	0	0	30644	29240	159109	26791	1075444	46185	111413	0	0	8140	508628	0	0
2024-08-08 19:37:47			0	38774	0	0	0	30651	29250	159005	26639	1075417	46176	111416	0	0	8141	508010	0	0
2024-08-08 19:38:47			0	38806	0	0	0	30662	29250	158821	26752	1075462	46164	111420	0	0	8142	506835	0	0
2024-08-08 19:39:47			0	38825	0	0	0	30657	29240	158745	26991	1075399	46175	111418	0	0	8143	506167	0	0
2024-08-08 19:40:47			0	38851	0	0	0	30659	29250	158681	27234	1075462	46186	111419	0	0	8145	505185	0	0
2024-08-08 19:41:47			0	38878	0	0	0	30649	29240	158521	26935	1075372	46175	111415	0	0	8147	504226	0	0
2024-08-08 19:42:47			0	38881	0	0	0	30657	29250	158497	26729	1075435	46175	111418	0	0	8147	504087	0	0
2024-08-08 19:43:47			0	38901	0	0	0	30649	29250	158517	26821	1075435	46175	111415	0	0	8148	503355	0	0
2024-08-08 19:44:47			0	38880	0	0	0	30654	29250	158437	26569	1075417	46187	111417	0	0	8147	504123	0	0
2024-08-08 19:45:47			0	38880	0	0	0	30651	29250	158549	26970	1075462	46164	111416	0	0	8147	504123	0	0
2024-08-08 19:46:47			0	38873	0	0	0	30649	29250	158533	26797	1075462	46153	111415	0	0	8146	504379	0	0
2024-08-08 19:47:47			0	38885	0	0	0	30644	29250	158653	26627	1075381	46175	111413	0	0	8147	503940	0	0
2024-08-08 19:48:47			0	38871	0	0	0	30644	29250	158605	26996	1075435	46186	111413	0	0	8146	504453	0	0
2024-08-08 19:49:47			0	38867	0	0	0	30649	29240	158613	26502	1075453	46186	111415	0	0	8146	504628	0	0
2024-08-08 19:50:47			0	38878	0	0	0	30641	29240	158557	26771	1075390	46174	111412	0	0	8147	504226	0	0
2024-08-08 19:51:47			0	38875	0	0	0	30623	29230	158565	26413	1075318	46151	111405	0	0	8147	504365	0	0
2024-08-08 19:52:47			0	38894	0	0	0	30636	29230	158593	26871	1075435	46174	111410	0	0	8148	503670	0	0
2024-08-08 19:53:47			0	38899	0	0	0	30636	29230	158577	26710	1075408	46174	111410	0	0	8148	503487	0	0
2024-08-08 19:54:47			0	38886	0	0	0	30631	29230	158569	26731	1075327	46163	111408	0	0	8147	503962	0	0
2024-08-08 19:55:47			0	38884	0	0	0	30620	29230	158561	26788	1075345	46162	111404	0	0	8147	504035	0	0
2024-08-08 19:56:47			0	38873	0	0	0	30618	29230	158609	26691	1075354	46185	111403	0	0	8147	504438	0	0
2024-08-08 19:57:47			0	38873	0	0	0	30625	29220	158585	26896	1075327	46172	111406	0	0	8147	504467	0	0
2024-08-08 19:58:47			0	38886	0	0	0	30633	29220	158645	26628	1075336	46173	111409	0	0	8147	503992	0	0
2024-08-08 19:59:47			0	38871	0	0	0	30644	29230	158509	26497	1075426	46207	111413	0	0	8146	504511	0	0
2024-08-08 20:00:47			0	38886	0	0	0	30649	29230	158649	26946	1075345	46184	111415	0	0	8147	503962	0	0
2024-08-08 20:01:47			0	38905	0	0	0	30644	29230	158625	26608	1075372	46173	111413	0	0	8148	503268	0	0
2024-08-08 20:02:47			0	38888	0	0	0	30651	29230	158501	26911	1075381	46185	111416	0	0	8147	503889	0	0
2024-08-08 20:03:47			0	38883	0	0	0	30646	29230	158533	26897	1075399	46173	111414	0	0	8147	504072	0	0
2024-08-08 20:04:47			0	38884	0	0	0	30646	29230	158553	26682	1075408	46197	111414	0	0	8147	504035	0	0
2024-08-08 20:05:47			0	38892	0	0	0	30641	29230	158573	26604	1075372	46184	111412	0	0	8148	503743	0	0
2024-08-08 20:06:47			0	38925	0	0	0	30644	29230	158433	26845	1075381	46185	111413	0	0	8149	502537	0	0
2024-08-08 20:07:47			0	38913	0	0	0	30641	29230	158461	26814	1075381	46185	111412	0	0	8149	502975	0	0
2024-08-08 20:08:47			0	38915	0	0	0	30638	29230	158417	26781	1075291	46173	111411	0	0	8149	502902	0	0
2024-08-08 20:09:47			0	38935	0	0	0	30631	29220	158485	26928	1075336	46184	111408	0	0	8150	502201	0	0
2024-08-08 20:10:47			0	38907	0	0	0	30623	29220	158309	26622	1075381	46161	111405	0	0	8149	503224	0	0
2024-08-08 20:11:47			0	38926	0	0	0	30620	29220	158497	26828	1075309	46184	111404	0	0	8150	502530	0	0
2024-08-08 20:12:47			0	38914	0	0	0	30623	29220	158433	26689	1075354	46172	111405	0	0	8149	502968	0	0
2024-08-08 20:13:47			0	38891	0	0	0	30628	29220	158593	26632	1075327	46195	111407	0	0	8148	503809	0	0
2024-08-08 20:14:47			0	38903	0	0	0	30623	29220	158541	26824	1075255	46184	111405	0	0	8148	503370	0	0
2024-08-08 20:15:47			0	38925	0	0	0	30612	29220	158545	27022	1075246	46172	111401	0	0	8150	502566	0	0
2024-08-08 20:16:47			0	38926	0	0	0	30610	29210	158417	26875	1075291	46172	111400	0	0	8150	502559	0	0
2024-08-08 20:17:47			0	38929	0	0	0	30607	29210	158521	26641	1075210	46172	111399	0	0	8150	502449	0	0
2024-08-08 20:18:47			0	38918	0	0	0	30605	29200	158541	26674	1075165	46170	111398	0	0	8149	502880	0	0
2024-08-08 20:19:47			0	38910	0	0	0	30599	29200	158533	26715	1075138	46159	111396	0	0	8149	503173	0	0
2024-08-08 20:20:47			0	38855	0	0	0	30589	29210	158689	27005	1075201	46171	111392	0	0	8146	505156	0	0
2024-08-08 20:21:47			0	38812	0	0	0	30594	29200	158877	26837	1075156	46170	111394	0	0	8144	506762	0	0
2024-08-08 20:22:47			0	38792	0	0	0	30597	29200	159141	26998	1075129	46170	111395	0	0	8142	507496	0	0
2024-08-08 20:23:47			0	38760	0	0	0	30589	29200	159153	26628	1075129	46181	111392	0	0	8141	508672	0	0
2024-08-08 20:24:47			0	38744	0	0	0	30589	29190	159313	26601	1075084	46180	111392	0	0	8140	509290	0	0
2024-08-08 20:25:47			0	38700	0	0	0	30581	29180	159564	26811	1075102	46179	111389	0	0	8137	510941	0	0
2024-08-08 20:26:47			0	38668	0	0	0	30568	29180	159872	26833	1075075	46157	111384	0	0	8136	512122	0	0
2024-08-08 20:27:47			0	38597	0	0	0	30568	29170	159896	26738	1075030	46157	111384	0	0	8132	514779	0	0
2024-08-08 20:28:47			0	38582	0	0	0	30555	29180	160052	26687	1075012	46179	111379	0	0	8131	515305	0	0
2024-08-08 20:29:47			0	38568	0	0	0	30550	29170	159972	26785	1075003	46179	111377	0	0	8130	515854	0	0
2024-08-08 20:30:47			0	38572	0	0	0	30545	29160	160084	26733	1074958	46166	111375	0	0	8131	515736	0	0
2024-08-08 20:31:47			0	38560	0	0	0	30545	29170	160088	26795	1074922	46168	111375	0	0	8130	516151	0	0
2024-08-08 20:32:47			0	38572	0	0	0	30548	29160	159888	27033	1074904	46177	111376	0	0	8131	515736	0	0
2024-08-08 20:33:47			0	38567	0	0	0	30537	29160	159988	26717	1074958	46166	111372	0	0	8130	515921	0	0
2024-08-08 20:34:47			0	38611	0	0	0	30529	29150	160060	26804	1074913	46154	111369	0	0	8133	514320	0	0
2024-08-08 20:35:47			0	38584	0	0	0	30527	29150	159844	26771	1074940	46166	111368	0	0	8132	515321	0	0
2024-08-08 20:36:47			0	38603	0	0	0	30529	29150	159732	26599	1074823	46166	111369	0	0	8133	514616	0	0
2024-08-08 20:37:47			0	38624	0	0	0	30529	29140	159752	26892	1074885	46152	111369	0	0	8134	513868	0	0
2024-08-08 20:38:47			0	38655	0	0	0	30527	29140	159676	26925	1074894	46165	111368	0	0	8136	512722	0	0
2024-08-08 20:39:47			0	38655	0	0	0	30524	29140	159608	26852	1074894	46165	111367	0	0	8136	512722	0	0
2024-08-08 20:40:47			0	38663	0	0	0	30509	29130	159728	26790	1074759	46164	111361	0	0	8136	512456	0	0
2024-08-08 20:41:47			0	38677	0	0	0	30514	29130	159500	26923	1074759	46164	111363	0	0	8137	511939	0	0
2024-08-08 20:42:47			0	38655	0	0	0	30509	29120	159600	27024	1074795	46150	111361	0	0	8136	512781	0	0
2024-08-08 20:43:47			0	38668	0	0	0	30503	29120	159624	26953	1074777	46151	111359	0	0	8137	512301	0	0
2024-08-08 20:44:47			0	38654	0	0	0	30498	29120	159580	27098	1074723	46151	111357	0	0	8136	512818	0	0
2024-08-08 20:45:47			0	38662	0	0	0	30498	29110	159568	27086	1074723	46172	111357	0	0	8136	512552	0	0
2024-08-08 20:46:47			0	38655	0	0	0	30503	29120	159600	27121	1074777	46185	111359	0	0	8136	512781	0	0
2024-08-08 20:47:47			0	38648	0	0	0	30503	29120	159612	27055	1074822	46172	111359	0	0	8135	513040	0	0
2024-08-08 20:48:47			0	38650	0	0	0	30496	29120	159688	27097	1074714	46184	111356	0	0	8136	512966	0	0
2024-08-08 20:49:47			0	38620	0	0	0	30501	29110	159772	26800	1074750	46162	111358	0	0	8134	514106	0	0
2024-08-08 20:50:47			0	38613	0	0	0	30501	29110	159792	26955	1074723	46162	111358	0	0	8133	514365	0	0
2024-08-08 20:51:47			0	38588	0	0	0	30514	29120	159832	26736	1074768	46172	111363	0	0	8132	515262	0	0
2024-08-08 20:52:47			0	38595	0	0	0	30503	29100	159844	26859	1074714	46161	111359	0	0	8132	515062	0	0
2024-08-08 20:53:47			0	38571	0	0	0	30496	29110	159932	27137	1074696	46162	111356	0	0	8131	515922	0	0
2024-08-08 20:54:47			0	38570	0	0	0	30503	29110	160040	27076	1074696	46162	111359	0	0	8131	515959	0	0
2024-08-08 20:55:47			0	38548	0	0	0	30501	29110	160120	27001	1074696	46150	111358	0	0	8130	516776	0	0
2024-08-08 20:56:47			0	38578	0	0	0	30490	29110	160036	27161	1074669	46150	111354	0	0	8132	515663	0	0
2024-08-08 20:57:47			0	38544	0	0	0	30477	29100	160052	27097	1074597	46170	111349	0	0	8130	516955	0	0
2024-08-08 20:58:47			0	38550	0	0	0	30485	29100	160208	26915	1074660	46161	111352	0	0	8130	516732	0	0
2024-08-08 20:59:47			0	38555	0	0	0	30488	29100	160048	26833	1074678	46170	111353	0	0	8130	516546	0	0
2024-08-08 21:00:47			0	38542	0	0	0	30488	29090	160168	27055	1074552	46160	111353	0	0	8130	517059	0	0
2024-08-08 21:01:47			0	38535	0	0	0	30483	29100	160232	27092	1074597	46160	111351	0	0	8129	517289	0	0
2024-08-08 21:02:47			0	38524	0	0	0	30475	29080	160156	26850	1074597	46169	111348	0	0	8129	517758	0	0
2024-08-08 21:03:47			0	38541	0	0	0	30470	29090	160160	26759	1074498	46170	111346	0	0	8130	517096	0	0
2024-08-08 21:04:47			0	38521	0	0	0	30472	29070	160224	26783	1074498	46157	111347	0	0	8129	517900	0	0
2024-08-08 21:05:47			0	38529	0	0	0	30470	29080	160112	26882	1074534	46158	111346	0	0	8129	517572	0	0
2024-08-08 21:06:47			0	38551	0	0	0	30464	29070	160180	27138	1074543	46167	111344	0	0	8130	516785	0	0
2024-08-08 21:07:47			0	38562	0	0	0	30457	29070	160008	27092	1074498	46157	111341	0	0	8131	516376	0	0
2024-08-08 21:08:47			0	38569	0	0	0	30454	29070	159960	26981	1074435	46145	111340	0	0	8132	516116	0	0
2024-08-08 21:09:47			0	38590	0	0	0	30451	29070	159920	27000	1074489	46167	111339	0	0	8133	515337	0	0
2024-08-08 21:10:47			0	38599	0	0	0	30438	29060	159984	26710	1074426	46157	111334	0	0	8134	515034	0	0
2024-08-08 21:11:47			0	38606	0	0	0	30444	29070	160036	27102	1074408	46167	111336	0	0	8134	514744	0	0
2024-08-08 21:12:47			0	38588	0	0	0	30436	29060	159880	26772	1074390	46144	111333	0	0	8133	515441	0	0
2024-08-08 21:13:47			0	38581	0	0	0	30444	29060	160128	26644	1074336	46166	111336	0	0	8132	515701	0	0
2024-08-08 21:14:47			0	38564	0	0	0	30441	29050	160172	26765	1074381	46166	111335	0	0	8131	516362	0	0
2024-08-08 21:15:47			0	38543	0	0	0	30451	29050	160172	26953	1074435	46166	111339	0	0	8130	517142	0	0
2024-08-08 21:16:47			0	38514	0	0	0	30446	29050	160256	26965	1074426	46166	111337	0	0	8129	518221	0	0
2024-08-08 21:17:47			0	38541	0	0	0	30446	29060	160228	26821	1074444	46178	111337	0	0	8130	517186	0	0
2024-08-08 21:18:47			0	38520	0	0	0	30457	29060	160252	27022	1074309	46178	111341	0	0	8129	517967	0	0
2024-08-08 21:19:47			0	38532	0	0	0	30454	29060	160348	26927	1074471	46166	111340	0	0	8129	517521	0	0
2024-08-08 21:20:47			0	38503	0	0	0	30457	29060	160348	27066	1074453	46167	111341	0	0	8128	518600	0	0
2024-08-08 21:21:47			0	38524	0	0	0	30462	29050	160324	27076	1074435	46155	111343	0	0	8129	517849	0	0
2024-08-08 21:22:47			0	38513	0	0	0	30454	29060	160352	26913	1074390	46156	111340	0	0	8128	518228	0	0
2024-08-08 21:23:47			0	38511	0	0	0	30462	29060	160344	26710	1074444	46166	111343	0	0	8128	518302	0	0
2024-08-08 21:24:47			0	38509	0	0	0	30451	29050	160344	26765	1074381	46166	111339	0	0	8128	518407	0	0
2024-08-08 21:25:47			0	38509	0	0	0	30444	29050	160376	26680	1074354	46177	111336	0	0	8128	518407	0	0
2024-08-08 21:26:47			0	38485	0	0	0	30441	29050	160400	26589	1074408	46166	111335	0	0	8127	519300	0	0
2024-08-08 21:27:47			0	38500	0	0	0	30444	29050	160368	26710	1074381	46155	111336	0	0	8128	518742	0	0
2024-08-08 21:28:47			0	38525	0	0	0	30446	29050	160420	26909	1074453	46155	111337	0	0	8129	517811	0	0
2024-08-08 21:29:47			0	38555	0	0	0	30446	29050	160228	26745	1074462	46155	111337	0	0	8131	516696	0	0
2024-08-08 21:30:47			0	38578	0	0	0	30446	29050	160204	26680	1074453	46166	111337	0	0	8132	515842	0	0
2024-08-08 21:31:47			0	38582	0	0	0	30444	29050	160156	26844	1074426	46155	111336	0	0	8132	515694	0	0
2024-08-08 21:32:47			0	38572	0	0	0	30451	29050	160128	26970	1074408	46166	111339	0	0	8132	516065	0	0
2024-08-08 21:33:47			0	38543	0	0	0	30441	29050	160232	26797	1074462	46166	111335	0	0	8130	517142	0	0
2024-08-08 21:34:47			0	38561	0	0	0	30451	29040	160244	26528	1074417	46166	111339	0	0	8131	516503	0	0
2024-08-08 21:35:47			0	38548	0	0	0	30444	29050	160212	26970	1074435	46166	111336	0	0	8130	516956	0	0
2024-08-08 21:36:47			0	38548	0	0	0	30454	29050	160260	26944	1074372	46177	111340	0	0	8130	516956	0	0
2024-08-08 21:37:47			0	38542	0	0	0	30457	29040	160232	26805	1074417	46166	111341	0	0	8130	517209	0	0
2024-08-08 21:38:47			0	38566	0	0	0	30451	29040	160156	26916	1074417	46166	111339	0	0	8131	516318	0	0
2024-08-08 21:39:47			0	38565	0	0	0	30449	29050	160212	26948	1074435	46155	111338	0	0	8131	516325	0	0
2024-08-08 21:40:47			0	38544	0	0	0	30457	29040	160248	27024	1074390	46155	111341	0	0	8130	517135	0	0
2024-08-08 21:41:47			0	38549	0	0	0	30459	29050	160208	26866	1074453	46177	111342	0	0	8130	516919	0	0
2024-08-08 21:42:47			0	38568	0	0	0	30457	29050	160196	26871	1074408	46177	111341	0	0	8131	516213	0	0
2024-08-08 21:43:47			0	38561	0	0	0	30457	29050	160228	26663	1074435	46166	111341	0	0	8131	516473	0	0
2024-08-08 21:44:47			0	38557	0	0	0	30444	29050	160176	26837	1074408	46155	111336	0	0	8131	516622	0	0
2024-08-08 21:45:47			0	38565	0	0	0	30449	29040	160172	26729	1074444	46177	111338	0	0	8131	516355	0	0
2024-08-08 21:46:47			0	38565	0	0	0	30441	29040	160164	26658	1074417	46166	111335	0	0	8131	516355	0	0
2024-08-08 21:47:47			0	38562	0	0	0	30431	29040	160164	26821	1074336	46166	111331	0	0	8131	516466	0	0
2024-08-08 21:48:47			0	38562	0	0	0	30431	29050	160056	26660	1074372	46143	111331	0	0	8131	516436	0	0
2024-08-08 21:49:47			0	38563	0	0	0	30428	29040	160100	26951	1074390	46166	111330	0	0	8132	516429	0	0
2024-08-08 21:50:47			0	38552	0	0	0	30438	29030	160012	27137	1074318	46164	111334	0	0	8131	516868	0	0
2024-08-08 21:51:47			0	38564	0	0	0	30428	29040	160164	26601	1074381	46165	111330	0	0	8132	516392	0	0
2024-08-08 21:52:47			0	38557	0	0	0	30444	29040	160076	26852	1074354	46154	111336	0	0	8131	516652	0	0
2024-08-08 21:53:47			0	38570	0	0	0	30436	29040	160156	26738	1074327	46176	111333	0	0	8132	516169	0	0
2024-08-08 21:54:47			0	38568	0	0	0	30436	29040	160112	26979	1074381	46165	111333	0	0	8132	516243	0	0
2024-08-08 21:55:47			0	38553	0	0	0	30423	29040	160148	26892	1074273	46176	111328	0	0	8131	516800	0	0
2024-08-08 21:56:47			0	38563	0	0	0	30423	29040	160228	26722	1074273	46154	111328	0	0	8132	516429	0	0
2024-08-08 21:57:47			0	38572	0	0	0	30420	29030	160016	26748	1074264	46164	111327	0	0	8132	516125	0	0
2024-08-08 21:58:47			0	38556	0	0	0	30418	29040	160132	26986	1074327	46176	111326	0	0	8131	516689	0	0
2024-08-08 21:59:47			0	38554	0	0	0	30410	29030	160220	26686	1074174	46153	111323	0	0	8131	516793	0	0
2024-08-08 22:00:47			0	38524	0	0	0	30410	29010	160276	27123	1074147	46151	111323	0	0	8129	517969	0	0
2024-08-08 22:01:47			0	38514	0	0	0	30410	29010	160276	26883	1074282	46151	111323	0	0	8129	518341	0	0
2024-08-08 22:02:47			0	38518	0	0	0	30410	29010	160284	26842	1074120	46151	111323	0	0	8129	518192	0	0
2024-08-08 22:03:47			0	38518	0	0	0	30405	29020	160292	26745	1074291	46174	111321	0	0	8129	518162	0	0
2024-08-08 22:04:47			0	38510	0	0	0	30405	29010	160368	27126	1074201	46151	111321	0	0	8129	518490	0	0
2024-08-08 22:05:47			0	38485	0	0	0	30402	29010	160396	27041	1074147	46162	111320	0	0	8127	519421	0	0
2024-08-08 22:06:47			0	38501	0	0	0	30399	29010	160380	26922	1074255	46173	111319	0	0	8128	518825	0	0
2024-08-08 22:07:47			0	38494	0	0	0	30394	29020	160360	27046	1074210	46163	111317	0	0	8128	519056	0	0
2024-08-08 22:08:47			0	38491	0	0	0	30399	29010	160420	27069	1074192	46172	111319	0	0	8128	519197	0	0
2024-08-08 22:09:47			0	38484	0	0	0	30402	29010	160272	27034	1074201	46173	111320	0	0	8127	519458	0	0
2024-08-08 22:10:47			0	38498	0	0	0	30402	29010	160324	27048	1074201	46139	111320	0	0	8128	518937	0	0
2024-08-08 22:11:47			0	38498	0	0	0	30397	29000	160400	27064	1074102	46161	111318	0	0	8128	518967	0	0
2024-08-08 22:12:47			0	38503	0	0	0	30399	28990	160384	26915	1074165	46160	111319	0	0	8128	518811	0	0
2024-08-08 22:13:47			0	38498	0	0	0	30407	29000	160364	26928	1074183	46172	111322	0	0	8128	518967	0	0
2024-08-08 22:14:47			0	38500	0	0	0	30399	29000	160364	26993	1074210	46172	111319	0	0	8128	518892	0	0
2024-08-08 22:15:47			0	38485	0	0	0	30397	29010	160316	26892	1074138	46161	111318	0	0	8127	519421	0	0
2024-08-08 22:16:47			0	38520	0	0	0	30394	29000	160404	26817	1074183	46150	111317	0	0	8129	518148	0	0
2024-08-08 22:17:47			0	38520	0	0	0	30399	29000	160348	26918	1074174	46150	111319	0	0	8129	518148	0	0
2024-08-08 22:18:47			0	38544	0	0	0	30394	29000	160272	26817	1074102	46161	111317	0	0	8131	517255	0	0
2024-08-08 22:19:47			0	38562	0	0	0	30394	29000	160164	27176	1074210	46161	111317	0	0	8132	516586	0	0
2024-08-08 22:20:47			0	38580	0	0	0	30405	28990	160120	27163	1074155	46170	111321	0	0	8133	515948	0	0
2024-08-08 22:21:47			0	38580	0	0	0	30397	29000	160020	27098	1074156	46161	111318	0	0	8133	515918	0	0
2024-08-08 22:22:47			0	38573	0	0	0	30394	29010	160068	26771	1074138	46172	111317	0	0	8133	516148	0	0
2024-08-08 22:23:47			0	38593	0	0	0	30389	28990	160232	27123	1074191	46149	111315	0	0	8134	515465	0	0
2024-08-08 22:24:47			0	38596	0	0	0	30392	29000	160040	26918	1074102	46161	111316	0	0	8134	515324	0	0
2024-08-08 22:25:47			0	38610	0	0	0	30394	28990	160004	26821	1074084	46160	111317	0	0	8135	514835	0	0
2024-08-08 22:26:47			0	38622	0	0	0	30392	29000	159832	26660	1074120	46138	111316	0	0	8135	514360	0	0
2024-08-08 22:27:47			0	38665	0	0	0	30389	29000	159776	26994	1074066	46150	111315	0	0	8138	512769	0	0
2024-08-08 22:28:47			0	38707	0	0	0	30384	29000	159624	27119	1074174	46150	111313	0	0	8140	511217	0	0
2024-08-08 22:29:47			0	38704	0	0	0	30386	28990	159608	26918	1074084	46160	111314	0	0	8140	511358	0	0
2024-08-08 22:30:47			0	38703	0	0	0	30381	28990	159568	27156	1074057	46160	111312	0	0	8140	511394	0	0
2024-08-08 22:31:47			0	38692	0	0	0	30381	28990	159624	27230	1074075	46181	111312	0	0	8139	511801	0	0
2024-08-08 22:32:47			0	38710	0	0	0	30373	28990	159620	27126	1074102	46148	111309	0	0	8141	511136	0	0
2024-08-08 22:33:47			0	38695	0	0	0	30376	28990	159648	27064	1074048	46159	111310	0	0	8140	511690	0	0
2024-08-08 22:34:47			0	38714	0	0	0	30373	28990	159680	27241	1074048	46148	111309	0	0	8141	510988	0	0
2024-08-08 22:35:47			0	38714	0	0	0	30373	28980	159592	26948	1074066	46170	111309	0	0	8141	511018	0	0
2024-08-08 22:36:47			0	38736	0	0	0	30371	28990	159529	26771	1074021	46170	111308	0	0	8142	510177	0	0
2024-08-08 22:37:47			0	38714	0	0	0	30368	28980	159512	26857	1074083	46159	111307	0	0	8141	511018	0	0
2024-08-08 22:38:47			0	38716	0	0	0	30376	28980	159512	26691	1074003	46159	111310	0	0	8141	510944	0	0
2024-08-08 22:39:47			0	38761	0	0	0	30371	28980	159477	26967	1073985	46181	111308	0	0	8144	509285	0	0
2024-08-08 22:40:47			0	38774	0	0	0	30361	28970	159389	27083	1073967	46158	111304	0	0	8144	508836	0	0
2024-08-08 22:41:47			0	38778	0	0	0	30355	28950	159441	26830	1073913	46157	111302	0	0	8145	508748	0	0
2024-08-08 22:42:47			0	38775	0	0	0	30355	28970	159393	27076	1074011	46157	111302	0	0	8145	508799	0	0
2024-08-08 22:43:47			0	38737	0	0	0	30363	28980	159525	27041	1074003	46170	111305	0	0	8142	510170	0	0
2024-08-08 22:44:47			0	38697	0	0	0	30371	28970	159704	27159	1073958	46168	111308	0	0	8140	511675	0	0
2024-08-08 22:45:47			0	38691	0	0	0	30355	28970	159816	27008	1073958	46168	111302	0	0	8140	511897	0	0
2024-08-08 22:46:47			0	38658	0	0	0	30358	28960	159916	26675	1074029	46157	111303	0	0	8138	513147	0	0
2024-08-08 22:47:47			0	38631	0	0	0	30353	28970	159860	27182	1074011	46168	111301	0	0	8136	514116	0	0
2024-08-08 22:48:47			0	38649	0	0	0	30358	28970	159936	27059	1073958	46168	111303	0	0	8137	513450	0	0
2024-08-08 22:49:47			0	38637	0	0	0	30358	28970	160020	27345	1073913	46158	111303	0	0	8137	513894	0	0
2024-08-08 22:50:47			0	38634	0	0	0	30361	28960	159956	26951	1073975	46157	111304	0	0	8136	514035	0	0
2024-08-08 22:51:47			0	38639	0	0	0	30350	28970	159916	27216	1073931	46157	111300	0	0	8137	513820	0	0
2024-08-08 22:52:47			0	38645	0	0	0	30353	28970	159816	27157	1073904	46168	111301	0	0	8137	513598	0	0
2024-08-08 22:53:47			0	38654	0	0	0	30350	28960	159872	27022	1073868	46157	111300	0	0	8138	513295	0	0
2024-08-08 22:54:47			0	38647	0	0	0	30350	28950	159912	27083	1073913	46168	111300	0	0	8137	513584	0	0
2024-08-08 22:55:47			0	38653	0	0	0	30348	28950	159940	26795	1073903	46167	111299	0	0	8138	513361	0	0
2024-08-08 22:56:47			0	38655	0	0	0	30350	28950	160008	27161	1073850	46145	111300	0	0	8138	513288	0	0
2024-08-08 22:57:47			0	38659	0	0	0	30345	28950	159932	26708	1073886	46146	111298	0	0	8138	513139	0	0
2024-08-08 22:58:47			0	38667	0	0	0	30337	28950	159908	27381	1073930	46145	111295	0	0	8139	512843	0	0
2024-08-08 22:59:47			0	38663	0	0	0	30335	28930	159844	26963	1073876	46166	111294	0	0	8138	513051	0	0
2024-08-08 23:00:47			0	38658	0	0	0	30345	28930	159896	26937	1073796	46166	111298	0	0	8138	513236	0	0
2024-08-08 23:01:47			0	38640	0	0	0	30342	28950	159812	26925	1073877	46167	111297	0	0	8137	513843	0	0
2024-08-08 23:02:47			0	38673	0	0	0	30340	28940	159828	27147	1073831	46154	111296	0	0	8139	512651	0	0
2024-08-08 23:03:47			0	38667	0	0	0	30340	28930	159808	26814	1073876	46143	111296	0	0	8138	512903	0	0
2024-08-08 23:04:47			0	38684	0	0	0	30340	28950	159708	26958	1073850	46167	111296	0	0	8140	512215	0	0
2024-08-08 23:05:47			0	38690	0	0	0	30340	28930	159736	26953	1073813	46154	111296	0	0	8140	512053	0	0
2024-08-08 23:06:47			0	38700	0	0	0	30337	28930	159684	26894	1073849	46154	111295	0	0	8140	511683	0	0
2024-08-08 23:07:47			0	38714	0	0	0	30350	28930	159596	26897	1073823	46143	111300	0	0	8141	511166	0	0
2024-08-08 23:08:47			0	38734	0	0	0	30335	28940	159488	26817	1073831	46166	111294	0	0	8142	510399	0	0
2024-08-08 23:09:47			0	38726	0	0	0	30335	28930	159473	27131	1073849	46166	111294	0	0	8142	510723	0	0
2024-08-08 23:10:47			0	38729	0	0	0	30335	28930	159497	27013	1073867	46154	111294	0	0	8142	510613	0	0
2024-08-08 23:11:47			0	38739	0	0	0	30337	28920	159549	26873	1073858	46165	111295	0	0	8143	510273	0	0
2024-08-08 23:12:47			0	38753	0	0	0	30335	28930	159481	27100	1073813	46143	111294	0	0	8143	509728	0	0
2024-08-08 23:13:47			0	38746	0	0	0	30329	28930	159453	27034	1073760	46166	111292	0	0	8143	509986	0	0
2024-08-08 23:14:47			0	38745	0	0	0	30335	28930	159433	26809	1073813	46176	111294	0	0	8143	510023	0	0
2024-08-08 23:15:47			0	38723	0	0	0	30319	28920	159540	26854	1073768	46164	111288	0	0	8142	510864	0	0
2024-08-08 23:16:47			0	38749	0	0	0	30319	28920	159465	26981	1073831	46153	111288	0	0	8143	509905	0	0
2024-08-08 23:17:47			0	38751	0	0	0	30319	28930	159493	26817	1073786	46166	111288	0	0	8144	509801	0	0
2024-08-08 23:18:47			0	38727	0	0	0	30332	28920	159341	26930	1073750	46165	111293	0	0	8142	510716	0	0
2024-08-08 23:19:47			0	38743	0	0	0	30316	28910	159381	26928	1073732	46174	111287	0	0	8143	510156	0	0
2024-08-08 23:20:47			0	38773	0	0	0	30311	28920	159333	27124	1073822	46164	111285	0	0	8145	509021	0	0
2024-08-08 23:21:47			0	38777	0	0	0	30319	28920	159253	26800	1073724	46153	111288	0	0	8145	508873	0	0
2024-08-08 23:22:47			0	38759	0	0	0	30319	28910	159341	27008	1073777	46164	111288	0	0	8144	509566	0	0
2024-08-08 23:23:47			0	38764	0	0	0	30319	28920	159285	26863	1073715	46152	111288	0	0	8144	509352	0	0
2024-08-08 23:24:47			0	38764	0	0	0	30311	28910	159345	27081	1073678	46152	111285	0	0	8144	509382	0	0
2024-08-08 23:25:47			0	38761	0	0	0	30309	28910	159385	26890	1073670	46152	111284	0	0	8144	509492	0	0
2024-08-08 23:26:47			0	38763	0	0	0	30311	28910	159349	26923	1073696	46141	111285	0	0	8144	509418	0	0
2024-08-08 23:27:47			0	38769	0	0	0	30296	28900	159401	26906	1073633	46151	111279	0	0	8145	509227	0	0
2024-08-08 23:28:47			0	38767	0	0	0	30303	28900	159333	26824	1073795	46151	111282	0	0	8145	509301	0	0
2024-08-08 23:29:47			0	38778	0	0	0	30301	28900	159325	26795	1073598	46162	111281	0	0	8145	508895	0	0
2024-08-08 23:30:47			0	38787	0	0	0	30298	28900	159237	26582	1073624	46162	111280	0	0	8146	508564	0	0
2024-08-08 23:31:47			0	38799	0	0	0	30293	28900	159225	26908	1073624	46162	111278	0	0	8147	508123	0	0
2024-08-08 23:32:47			0	38808	0	0	0	30298	28910	159153	27033	1073643	46164	111280	0	0	8147	507762	0	0
2024-08-08 23:33:47			0	38813	0	0	0	30293	28890	159041	26826	1073588	46139	111278	0	0	8147	507637	0	0
2024-08-08 23:34:47			0	38834	0	0	0	30301	28890	158981	26951	1073579	46162	111281	0	0	8148	506866	0	0
2024-08-08 23:35:47			0	38837	0	0	0	30296	28880	159081	26821	1073570	46161	111279	0	0	8149	506785	0	0
2024-08-08 23:36:47			0	38834	0	0	0	30290	28890	159017	26776	1073588	46172	111277	0	0	8149	506866	0	0
2024-08-08 23:37:47			0	38824	0	0	0	30293	28880	159017	26797	1073570	46171	111278	0	0	8148	507262	0	0
2024-08-08 23:38:47			0	38817	0	0	0	30290	28890	159081	26880	1073588	46162	111277	0	0	8148	507490	0	0
2024-08-08 23:39:47			0	38856	0	0	0	30290	28880	158989	26835	1073543	46171	111277	0	0	8150	506087	0	0
2024-08-08 23:40:47			0	38832	0	0	0	30290	28880	159025	26651	1073570	46161	111277	0	0	8148	506968	0	0
2024-08-08 23:41:47			0	38828	0	0	0	30285	28880	159085	26738	1073543	46161	111275	0	0	8148	507115	0	0
2024-08-08 23:42:47			0	38826	0	0	0	30296	28890	159105	26691	1073579	46150	111279	0	0	8148	507160	0	0
2024-08-08 23:43:47			0	38811	0	0	0	30275	28880	159073	26788	1073534	46160	111271	0	0	8148	507740	0	0
2024-08-08 23:44:47			0	38809	0	0	0	30283	28880	159217	26918	1073516	46149	111274	0	0	8147	507814	0	0
2024-08-08 23:45:47			0	38831	0	0	0	30283	28880	159085	26595	1073534	46160	111274	0	0	8149	507005	0	0
2024-08-08 23:46:47			0	38852	0	0	0	30285	28880	159009	26798	1073507	46160	111275	0	0	8150	506234	0	0
2024-08-08 23:47:47			0	38853	0	0	0	30272	28870	159021	26646	1073498	46160	111270	0	0	8150	506227	0	0
2024-08-08 23:48:47			0	38854	0	0	0	30270	28880	158925	26975	1073480	46170	111269	0	0	8150	506161	0	0
2024-08-08 23:49:47			0	38865	0	0	0	30270	28880	158953	26913	1073480	46148	111269	0	0	8151	505757	0	0
2024-08-08 23:50:47			0	38876	0	0	0	30264	28870	159053	26805	1073489	46147	111267	0	0	8151	505383	0	0
2024-08-08 23:51:47			0	38872	0	0	0	30262	28870	158953	26757	1073489	46159	111266	0	0	8151	505529	0	0
2024-08-08 23:52:47			0	38885	0	0	0	30264	28860	158901	26790	1073426	46159	111267	0	0	8152	505082	0	0
2024-08-08 23:53:47			0	38873	0	0	0	30264	28860	159049	26930	1073426	46147	111267	0	0	8151	505522	0	0
2024-08-08 23:54:47			0	38889	0	0	0	30262	28850	159037	26719	1073381	46157	111266	0	0	8152	504965	0	0
2024-08-08 23:55:47			0	38875	0	0	0	30244	28860	159013	26904	1073426	46147	111259	0	0	8152	505449	0	0
2024-08-08 23:56:47			0	38882	0	0	0	30249	28860	158969	26963	1073444	46158	111261	0	0	8152	505192	0	0
2024-08-08 23:57:47			0	38893	0	0	0	30249	28850	158949	27090	1073453	46145	111261	0	0	8152	504818	0	0
2024-08-08 23:58:47			0	38883	0	0	0	30257	28840	158877	27015	1073336	46145	111264	0	0	8152	505214	0	0
2024-08-08 23:59:47			0	38903	0	0	0	30238	28860	158889	26960	1073336	46168	111257	0	0	8153	504423	0	0
2024-08-09 00:00:47			0	38890	0	0	0	30257	28850	158877	26677	1073381	46157	111264	0	0	8152	504928	0	0
2024-08-09 00:01:47			0	38873	0	0	0	30241	28850	158925	26875	1073372	46157	111258	0	0	8151	505551	0	0
2024-08-09 00:02:47			0	38865	0	0	0	30244	28840	158901	26868	1073309	46145	111259	0	0	8151	505874	0	0
2024-08-09 00:03:47			0	38868	0	0	0	30244	28840	159045	27022	1073336	46157	111259	0	0	8151	505764	0	0
2024-08-09 00:04:47			0	38858	0	0	0	30249	28840	159109	27024	1073354	46133	111261	0	0	8150	506131	0	0
2024-08-09 00:05:47			0	38835	0	0	0	30241	28840	159169	27088	1073381	46156	111258	0	0	8149	506976	0	0
2024-08-09 00:06:47			0	38819	0	0	0	30241	28830	159177	27152	1073291	46143	111258	0	0	8148	507593	0	0
2024-08-09 00:07:47			0	38833	0	0	0	30233	28840	159101	26975	1073390	46145	111255	0	0	8149	507049	0	0
2024-08-09 00:08:47			0	38826	0	0	0	30236	28840	159149	26963	1073336	46145	111256	0	0	8149	507306	0	0
2024-08-09 00:09:47			0	38813	0	0	0	30241	28840	159173	26814	1073300	46156	111258	0	0	8148	507784	0	0
2024-08-09 00:10:47			0	38840	0	0	0	30246	28840	159165	26700	1073327	46144	111260	0	0	8149	506792	0	0
2024-08-09 00:11:47			0	38810	0	0	0	30233	28840	159129	26868	1073327	46156	111255	0	0	8148	507895	0	0
2024-08-09 00:12:47			0	38836	0	0	0	30236	28830	159229	27050	1073264	46166	111256	0	0	8149	506968	0	0
2024-08-09 00:13:47			0	38833	0	0	0	30228	28830	159189	26812	1073291	46155	111253	0	0	8149	507079	0	0
2024-08-09 00:14:47			0	38809	0	0	0	30231	28840	159197	26861	1073327	46144	111254	0	0	8148	507932	0	0
2024-08-09 00:15:47			0	38813	0	0	0	30236	28830	159337	26765	1073291	46143	111256	0	0	8148	507814	0	0
2024-08-09 00:16:47			0	38816	0	0	0	30236	28840	159217	26955	1073273	46156	111256	0	0	8148	507674	0	0
2024-08-09 00:17:47			0	38820	0	0	0	30225	28840	159089	26887	1073300	46166	111252	0	0	8149	507527	0	0
2024-08-09 00:18:47			0	38850	0	0	0	30225	28830	159073	27194	1073237	46143	111252	0	0	8150	506454	0	0
2024-08-09 00:19:47			0	38836	0	0	0	30223	28810	159037	27027	1073282	46153	111251	0	0	8150	507027	0	0
2024-08-09 00:20:47			0	38838	0	0	0	30225	28820	159041	26535	1073219	46166	111252	0	0	8150	506924	0	0
2024-08-09 00:21:47			0	38851	0	0	0	30218	28830	159041	26733	1073201	46143	111249	0	0	8151	506417	0	0
2024-08-09 00:22:47			0	38857	0	0	0	30218	28830	159029	26998	1073255	46166	111249	0	0	8151	506197	0	0
2024-08-09 00:23:47			0	38841	0	0	0	30215	28820	158973	26913	1073246	46143	111248	0	0	8150	506814	0	0
2024-08-09 00:24:47			0	38865	0	0	0	30210	28820	159053	26824	1073219	46155	111246	0	0	8151	505933	0	0
2024-08-09 00:25:47			0	38881	0	0	0	30212	28820	158993	26902	1073219	46143	111247	0	0	8152	505346	0	0
2024-08-09 00:26:47			0	38879	0	0	0	30218	28810	158945	27036	1073174	46153	111249	0	0	8152	505449	0	0
2024-08-09 00:27:47			0	38897	0	0	0	30218	28810	158869	26691	1073147	46153	111249	0	0	8153	504789	0	0
2024-08-09 00:28:47			0	38910	0	0	0	30207	28820	158833	26866	1073183	46131	111245	0	0	8154	504283	0	0
2024-08-09 00:29:47			0	38946	0	0	0	30210	28810	158789	26928	1073246	46142	111246	0	0	8156	502995	0	0
2024-08-09 00:30:47			0	38959	0	0	0	30210	28810	158733	26798	1073165	46142	111246	0	0	8157	502520	0	0
2024-08-09 00:31:47			0	38941	0	0	0	30205	28810	158813	26700	1073201	46153	111244	0	0	8156	503178	0	0
2024-08-09 00:32:47			0	38947	0	0	0	30210	28810	158729	26850	1073165	46142	111246	0	0	8156	502958	0	0
2024-08-09 00:33:47			0	38919	0	0	0	30207	28810	158833	26875	1073219	46153	111245	0	0	8155	503983	0	0
2024-08-09 00:34:47			0	38941	0	0	0	30202	28810	158837	27005	1073174	46153	111243	0	0	8156	503178	0	0
2024-08-09 00:35:47			0	38937	0	0	0	30199	28810	158841	26691	1073192	46153	111242	0	0	8156	503324	0	0
2024-08-09 00:36:47			0	38944	0	0	0	30205	28800	158721	26602	1073147	46163	111244	0	0	8156	503097	0	0
2024-08-09 00:37:47			0	38953	0	0	0	30202	28810	158773	26736	1073138	46142	111243	0	0	8157	502739	0	0
2024-08-09 00:38:47			0	38946	0	0	0	30207	28800	158653	26514	1073156	46152	111245	0	0	8156	503024	0	0
2024-08-09 00:39:47			0	38991	0	0	0	30202	28810	158625	26641	1073219	46153	111243	0	0	8159	501351	0	0
2024-08-09 00:40:47			0	39002	0	0	0	30205	28800	158481	26856	1073156	46152	111244	0	0	8159	500978	0	0
2024-08-09 00:41:47			0	39005	0	0	0	30202	28810	158445	26601	1073192	46153	111243	0	0	8159	500840	0	0
2024-08-09 00:42:47			0	39017	0	0	0	30202	28810	158449	26729	1073201	46142	111243	0	0	8160	500402	0	0
2024-08-09 00:43:47			0	39013	0	0	0	30194	28800	158405	26968	1073156	46163	111240	0	0	8160	500577	0	0
2024-08-09 00:44:47			0	39001	0	0	0	30202	28810	158425	26852	1073165	46142	111243	0	0	8159	500986	0	0
2024-08-09 00:45:47			0	39022	0	0	0	30197	28810	158373	26944	1073138	46153	111241	0	0	8161	500220	0	0
2024-08-09 00:46:47			0	39023	0	0	0	30192	28790	158393	26852	1073111	46151	111239	0	0	8161	500242	0	0
2024-08-09 00:47:47			0	39016	0	0	0	30194	28800	158485	27008	1073102	46152	111240	0	0	8160	500468	0	0
2024-08-09 00:48:47			0	39024	0	0	0	30199	28800	158441	26724	1073147	46152	111242	0	0	8161	500176	0	0
2024-08-09 00:49:47			0	39029	0	0	0	30199	28800	158381	26935	1073156	46163	111242	0	0	8161	499994	0	0
2024-08-09 00:50:47			0	39032	0	0	0	30199	28790	158397	27062	1073111	46151	111242	0	0	8161	499914	0	0
2024-08-09 00:51:47			0	39030	0	0	0	30192	28800	158297	26790	1073129	46141	111239	0	0	8161	499957	0	0
2024-08-09 00:52:47			0	39054	0	0	0	30199	28810	158185	26892	1073120	46164	111242	0	0	8162	499054	0	0
2024-08-09 00:53:47			0	39061	0	0	0	30192	28800	158041	26961	1073093	46152	111239	0	0	8163	498828	0	0
2024-08-09 00:54:47			0	39071	0	0	0	30192	28800	158197	26710	1073093	46163	111239	0	0	8163	498465	0	0
2024-08-09 00:55:47			0	39062	0	0	0	30186	28800	158097	26750	1073102	46152	111237	0	0	8163	498792	0	0
2024-08-09 00:56:47			0	39090	0	0	0	30189	28790	158177	26915	1073057	46151	111238	0	0	8164	497803	0	0
2024-08-09 00:57:47			0	39096	0	0	0	30189	28790	158105	26960	1073021	46140	111238	0	0	8165	497585	0	0
2024-08-09 00:58:47			0	39104	0	0	0	30186	28790	158037	26817	1073048	46151	111237	0	0	8165	497294	0	0
2024-08-09 00:59:47			0	39108	0	0	0	30184	28790	158057	27026	1073084	46151	111236	0	0	8166	497149	0	0
2024-08-09 01:00:47			0	39089	0	0	0	30192	28780	157929	27046	1073084	46150	111239	0	0	8164	497868	0	0
2024-08-09 01:01:47			0	39096	0	0	0	30184	28790	157989	26627	1073075	46140	111236	0	0	8165	497585	0	0
2024-08-09 01:02:47			0	39115	0	0	0	30186	28790	157977	26991	1073075	46151	111237	0	0	8166	496894	0	0
2024-08-09 01:03:47			0	39118	0	0	0	30181	28790	158041	26908	1073048	46162	111235	0	0	8166	496786	0	0
2024-08-09 01:04:47			0	39106	0	0	0	30168	28780	158001	26986	1073039	46150	111230	0	0	8166	497250	0	0
2024-08-09 01:05:47			0	39100	0	0	0	30171	28780	157865	27046	1073066	46161	111231	0	0	8165	497468	0	0
2024-08-09 01:06:47			0	39116	0	0	0	30174	28780	158013	26887	1073030	46150	111232	0	0	8166	496887	0	0
2024-08-09 01:07:47			0	39124	0	0	0	30174	28780	157949	27128	1073012	46150	111232	0	0	8167	496597	0	0
2024-08-09 01:08:47			0	39137	0	0	0	30168	28780	157937	26811	1073003	46161	111230	0	0	8167	496125	0	0
2024-08-09 01:09:47			0	39138	0	0	0	30168	28780	157893	27020	1073030	46139	111230	0	0	8167	496089	0	0
2024-08-09 01:10:47			0	39125	0	0	0	30171	28780	157917	26916	1072985	46161	111231	0	0	8167	496560	0	0
2024-08-09 01:11:47			0	39135	0	0	0	30174	28780	157881	26531	1073003	46150	111232	0	0	8167	496197	0	0
2024-08-09 01:12:47			0	39152	0	0	0	30174	28780	157893	26757	1072976	46139	111232	0	0	8168	495581	0	0
2024-08-09 01:13:47			0	39147	0	0	0	30168	28770	157773	26823	1072931	46159	111230	0	0	8168	495791	0	0
2024-08-09 01:14:47			0	39169	0	0	0	30168	28770	157761	26753	1072993	46149	111230	0	0	8169	494993	0	0
2024-08-09 01:15:47			0	39170	0	0	0	30171	28770	157717	26684	1072984	46159	111231	0	0	8169	494957	0	0
2024-08-09 01:16:47			0	39175	0	0	0	30163	28770	157733	26986	1073011	46137	111228	0	0	8170	494776	0	0
2024-08-09 01:17:47			0	39175	0	0	0	30155	28770	157713	26974	1072967	46160	111225	0	0	8170	494776	0	0
2024-08-09 01:18:47			0	39182	0	0	0	30163	28770	157729	27079	1072958	46159	111228	0	0	8170	494523	0	0
2024-08-09 01:19:47			0	39195	0	0	0	30150	28770	157689	26911	1072940	46149	111223	0	0	8171	494052	0	0
2024-08-09 01:20:47			0	39160	0	0	0	30158	28760	157753	27085	1072921	46148	111226	0	0	8169	495348	0	0
2024-08-09 01:21:47			0	39206	0	0	0	30150	28760	157633	26791	1072966	46148	111223	0	0	8172	493683	0	0
2024-08-09 01:22:47			0	39224	0	0	0	30148	28760	157685	26939	1072913	46137	111222	0	0	8173	493032	0	0
2024-08-09 01:23:47			0	39212	0	0	0	30142	28750	157673	27062	1072903	46147	111220	0	0	8172	493494	0	0
2024-08-09 01:24:47			0	39222	0	0	0	30135	28760	157581	27213	1072913	46148	111217	0	0	8173	493104	0	0
2024-08-09 01:25:47			0	39257	0	0	0	30145	28750	157541	26941	1072876	46147	111221	0	0	8174	491868	0	0
2024-08-09 01:26:47			0	39234	0	0	0	30132	28750	157573	26793	1072868	46146	111216	0	0	8173	492699	0	0
2024-08-09 01:27:47			0	39230	0	0	0	30148	28740	157601	26882	1072858	46157	111222	0	0	8173	492872	0	0
2024-08-09 01:28:47			0	39236	0	0	0	30132	28740	157621	26826	1072858	46168	111216	0	0	8173	492655	0	0
2024-08-09 01:29:47			0	39230	0	0	0	30132	28750	157581	26996	1072876	46158	111216	0	0	8173	492843	0	0
2024-08-09 01:30:47			0	39216	0	0	0	30137	28750	157633	27048	1072814	46146	111218	0	0	8172	493349	0	0
2024-08-09 01:31:47			0	39224	0	0	0	30132	28740	157581	26972	1072832	46146	111216	0	0	8173	493089	0	0
2024-08-09 01:32:47			0	39245	0	0	0	30127	28740	157605	26977	1072849	46145	111214	0	0	8174	492330	0	0
2024-08-09 01:33:47			0	39247	0	0	0	30124	28740	157533	27072	1072769	46145	111213	0	0	8174	492258	0	0
2024-08-09 01:34:47			0	39255	0	0	0	30124	28730	157521	27071	1072813	46156	111213	0	0	8175	491997	0	0
2024-08-09 01:35:47			0	39265	0	0	0	30132	28740	157373	26844	1072849	46156	111216	0	0	8175	491608	0	0
2024-08-09 01:36:47			0	39287	0	0	0	30129	28730	157289	26816	1072778	46144	111215	0	0	8176	490843	0	0
2024-08-09 01:37:47			0	39288	0	0	0	30129	28740	157369	27124	1072796	46145	111215	0	0	8176	490778	0	0
2024-08-09 01:38:47			0	39305	0	0	0	30127	28740	157381	26628	1072796	46156	111214	0	0	8177	490166	0	0
2024-08-09 01:39:47			0	39293	0	0	0	30122	28730	157257	26951	1072778	46144	111212	0	0	8177	490626	0	0
2024-08-09 01:40:47			0	39303	0	0	0	30122	28730	157325	27048	1072813	46156	111212	0	0	8177	490266	0	0
2024-08-09 01:41:47			0	39310	0	0	0	30124	28730	157269	27095	1072787	46145	111213	0	0	8178	490014	0	0
2024-08-09 01:42:47			0	39296	0	0	0	30111	28730	157345	26899	1072804	46155	111208	0	0	8177	490518	0	0
2024-08-09 01:43:47			0	39318	0	0	0	30116	28730	157289	26816	1072751	46155	111210	0	0	8178	489726	0	0
2024-08-09 01:44:47			0	39311	0	0	0	30111	28720	157233	27072	1072759	46154	111208	0	0	8178	490006	0	0
2024-08-09 01:45:47			0	39313	0	0	0	30109	28710	157333	26767	1072724	46132	111207	0	0	8178	489963	0	0
2024-08-09 01:46:47			0	39318	0	0	0	30116	28730	157161	26658	1072724	46155	111210	0	0	8178	489726	0	0
2024-08-09 01:47:47			0	39338	0	0	0	30106	28710	157209	26882	1072670	46166	111206	0	0	8180	489063	0	0
2024-08-09 01:48:47			0	39323	0	0	0	30114	28720	157249	26694	1072742	46166	111209	0	0	8179	489574	0	0
2024-08-09 01:49:47			0	39326	0	0	0	30109	28730	157273	27026	1072778	46144	111207	0	0	8179	489438	0	0
2024-08-09 01:50:47			0	39323	0	0	0	30109	28710	157149	26776	1072688	46142	111207	0	0	8179	489602	0	0
2024-08-09 01:51:47			0	39334	0	0	0	30101	28720	157177	26961	1072733	46143	111204	0	0	8179	489178	0	0
2024-08-09 01:52:47			0	39343	0	0	0	30103	28720	157117	26960	1072706	46143	111205	0	0	8180	488854	0	0
2024-08-09 01:53:47			0	39343	0	0	0	30106	28710	157133	26887	1072697	46143	111206	0	0	8180	488883	0	0
2024-08-09 01:54:47			0	39341	0	0	0	30098	28710	157073	26887	1072661	46142	111203	0	0	8180	488955	0	0
2024-08-09 01:55:47			0	39331	0	0	0	30103	28700	157141	27022	1072598	46165	111205	0	0	8179	489343	0	0
2024-08-09 01:56:47			0	39333	0	0	0	30093	28720	157169	26849	1072598	46143	111201	0	0	8180	489214	0	0
2024-08-09 01:57:47			0	39332	0	0	0	30088	28700	157177	26743	1072696	46141	111199	0	0	8179	489307	0	0
2024-08-09 01:58:47			0	39346	0	0	0	30093	28710	157197	26923	1072661	46142	111201	0	0	8180	488775	0	0
2024-08-09 01:59:47			0	39325	0	0	0	30096	28700	157217	26786	1072571	46142	111202	0	0	8179	489559	0	0
2024-08-09 02:00:47			0	39309	0	0	0	30080	28700	157205	27149	1072571	46153	111196	0	0	8178	490135	0	0
2024-08-09 02:01:47			0	39294	0	0	0	30088	28700	157341	26885	1072643	46141	111199	0	0	8177	490676	0	0
2024-08-09 02:02:47			0	39281	0	0	0	30080	28690	157477	26972	1072607	46152	111196	0	0	8177	491173	0	0
2024-08-09 02:03:47			0	39278	0	0	0	30080	28690	157413	27286	1072571	46129	111196	0	0	8177	491281	0	0
2024-08-09 02:04:47			0	39275	0	0	0	30083	28690	157485	27086	1072553	46152	111197	0	0	8176	491389	0	0
2024-08-09 02:05:47			0	39276	0	0	0	30075	28700	157417	27088	1072589	46152	111194	0	0	8177	491325	0	0
2024-08-09 02:06:47			0	39286	0	0	0	30075	28690	157377	27147	1072517	46151	111194	0	0	8177	490993	0	0
2024-08-09 02:07:47			0	39291	0	0	0	30077	28690	157269	26748	1072517	46140	111195	0	0	8177	490812	0	0
2024-08-09 02:08:47			0	39308	0	0	0	30070	28690	157237	27116	1072517	46151	111192	0	0	8178	490200	0	0
2024-08-09 02:09:47			0	39313	0	0	0	30075	28680	157177	26859	1072562	46151	111194	0	0	8179	490048	0	0
2024-08-09 02:10:47			0	39332	0	0	0	30070	28670	157285	26700	1072490	46150	111192	0	0	8180	489392	0	0
2024-08-09 02:11:47			0	39327	0	0	0	30077	28670	157209	27039	1072517	46138	111195	0	0	8179	489572	0	0
2024-08-09 02:12:47			0	39352	0	0	0	30072	28680	157189	26620	1072535	46151	111193	0	0	8181	488644	0	0
2024-08-09 02:13:47			0	39347	0	0	0	30075	28680	157169	27175	1072499	46128	111194	0	0	8180	488824	0	0
2024-08-09 02:14:47			0	39357	0	0	0	30067	28680	157149	27100	1072472	46139	111191	0	0	8181	488464	0	0
2024-08-09 02:15:47			0	39352	0	0	0	30070	28660	157201	26960	1072508	46127	111192	0	0	8181	488700	0	0
2024-08-09 02:16:47			0	39380	0	0	0	30075	28660	157117	27062	1072535	46161	111194	0	0	8182	487694	0	0
2024-08-09 02:17:47			0	39365	0	0	0	30077	28670	157081	26741	1072490	46138	111195	0	0	8181	488205	0	0
2024-08-09 02:18:47			0	39384	0	0	0	30083	28680	157021	27066	1072553	46139	111197	0	0	8182	487494	0	0
2024-08-09 02:19:47			0	39385	0	0	0	30096	28680	157013	26873	1072553	46151	111202	0	0	8182	487458	0	0
2024-08-09 02:20:47			0	39393	0	0	0	30098	28680	157017	26686	1072526	46151	111203	0	0	8183	487170	0	0
2024-08-09 02:21:47			0	39382	0	0	0	30101	28690	157005	26956	1072598	46163	111204	0	0	8182	487537	0	0
2024-08-09 02:22:47			0	39363	0	0	0	30101	28680	157073	26774	1072606	46162	111204	0	0	8181	488248	0	0
2024-08-09 02:23:47			0	39402	0	0	0	30101	28700	157097	26809	1072616	46152	111204	0	0	8183	486791	0	0
2024-08-09 02:24:47			0	39403	0	0	0	30098	28680	156945	27026	1072616	46151	111203	0	0	8183	486812	0	0
2024-08-09 02:25:47			0	39425	0	0	0	30103	28680	156898	27064	1072642	46151	111205	0	0	8184	486022	0	0
2024-08-09 02:26:47			0	39431	0	0	0	30093	28690	156850	26927	1072651	46151	111201	0	0	8185	485779	0	0
2024-08-09 02:27:47			0	39453	0	0	0	30106	28680	156854	26994	1072562	46163	111206	0	0	8186	485019	0	0
2024-08-09 02:28:47			0	39460	0	0	0	30077	28690	156806	27079	1072571	46163	111195	0	0	8187	484740	0	0
2024-08-09 02:29:47			0	39468	0	0	0	30083	28690	156638	27140	1072490	46140	111197	0	0	8187	484454	0	0
2024-08-09 02:30:47			0	39469	0	0	0	30077	28680	156698	27161	1072535	46151	111195	0	0	8187	484446	0	0
2024-08-09 02:31:47			0	39476	0	0	0	30077	28680	156674	27137	1072535	46163	111195	0	0	8188	484196	0	0
2024-08-09 02:32:47			0	39473	0	0	0	30067	28660	156670	27228	1072535	46138	111191	0	0	8188	484359	0	0
2024-08-09 02:33:47			0	39450	0	0	0	30064	28670	156734	27085	1072409	46138	111190	0	0	8186	485155	0	0
2024-08-09 02:34:47			0	39463	0	0	0	30051	28660	156890	26842	1072481	46138	111185	0	0	8187	484717	0	0
2024-08-09 02:35:47			0	39466	0	0	0	30062	28660	156774	26961	1072427	46161	111189	0	0	8187	484610	0	0
2024-08-09 02:36:47			0	39440	0	0	0	30054	28660	156946	27118	1072391	46137	111186	0	0	8186	485541	0	0
2024-08-09 02:37:47			0	39418	0	0	0	30057	28650	156925	26906	1072373	46114	111187	0	0	8185	486358	0	0
2024-08-09 02:38:47			0	39406	0	0	0	30054	28660	156989	26826	1072418	46149	111186	0	0	8184	486760	0	0
2024-08-09 02:39:47			0	39391	0	0	0	30051	28650	157053	27090	1072463	46149	111185	0	0	8183	487327	0	0
2024-08-09 02:40:47			0	39383	0	0	0	30049	28650	157117	26880	1072409	46137	111184	0	0	8183	487614	0	0
2024-08-09 02:41:47			0	39396	0	0	0	30051	28650	157089	27086	1072409	46137	111185	0	0	8184	487147	0	0
2024-08-09 02:42:47			0	39389	0	0	0	30046	28650	157105	27211	1072409	46137	111183	0	0	8183	487399	0	0
2024-08-09 02:43:47			0	39403	0	0	0	30044	28650	157101	27000	1072373	46136	111182	0	0	8184	486896	0	0
2024-08-09 02:44:47			0	39388	0	0	0	30041	28640	157041	27072	1072390	46136	111181	0	0	8183	487463	0	0
2024-08-09 02:45:47			0	39381	0	0	0	30036	28640	157177	27171	1072309	46148	111179	0	0	8183	487714	0	0
2024-08-09 02:46:47			0	39376	0	0	0	30038	28650	157097	26701	1072319	46136	111180	0	0	8183	487866	0	0
2024-08-09 02:47:47			0	39396	0	0	0	30028	28630	157061	27204	1072309	46134	111176	0	0	8184	487204	0	0
2024-08-09 02:48:47			0	39375	0	0	0	30033	28630	157133	27220	1072372	46158	111178	0	0	8183	487958	0	0
2024-08-09 02:49:47			0	39390	0	0	0	30025	28630	157021	27000	1072282	46146	111175	0	0	8184	487419	0	0
2024-08-09 02:50:47			0	39372	0	0	0	30020	28630	157109	27027	1072264	46135	111173	0	0	8183	488066	0	0
2024-08-09 02:51:47			0	39357	0	0	0	30023	28630	157193	26771	1072228	46157	111174	0	0	8182	488606	0	0
2024-08-09 02:52:47			0	39343	0	0	0	30018	28620	157085	26847	1072210	46133	111172	0	0	8181	489138	0	0
2024-08-09 02:53:47			0	39338	0	0	0	30015	28620	157181	27027	1072264	46133	111171	0	0	8181	489318	0	0
2024-08-09 02:54:47			0	39339	0	0	0	30015	28600	157309	27286	1072156	46143	111171	0	0	8181	489338	0	0
2024-08-09 02:55:47			0	39330	0	0	0	29999	28610	157277	27046	1072201	46133	111165	0	0	8180	489634	0	0
2024-08-09 02:56:47			0	39324	0	0	0	30010	28610	157329	26876	1072139	46132	111169	0	0	8180	489850	0	0
2024-08-09 02:57:47			0	39314	0	0	0	29999	28600	157361	27012	1072130	46143	111165	0	0	8180	490239	0	0
2024-08-09 02:58:47			0	39307	0	0	0	29999	28600	157369	26918	1072183	46143	111165	0	0	8179	490491	0	0
2024-08-09 02:59:47			0	39312	0	0	0	29997	28600	157321	27060	1072183	46143	111164	0	0	8179	490311	0	0
2024-08-09 03:00:47			0	39299	0	0	0	29999	28600	157333	26604	1072076	46131	111165	0	0	8179	490780	0	0
2024-08-09 03:01:47			0	39295	0	0	0	29992	28600	157405	27104	1072067	46143	111162	0	0	8179	490924	0	0
2024-08-09 03:02:47			0	39274	0	0	0	29989	28600	157329	27109	1072067	46143	111161	0	0	8177	491682	0	0
2024-08-09 03:03:47			0	39282	0	0	0	29984	28590	157429	27140	1072076	46130	111159	0	0	8178	491421	0	0
2024-08-09 03:04:47			0	39288	0	0	0	29986	28590	157365	27022	1072085	46143	111160	0	0	8178	491205	0	0
2024-08-09 03:05:47			0	39289	0	0	0	29981	28590	157421	26873	1072129	46130	111158	0	0	8178	491169	0	0
2024-08-09 03:06:47			0	39271	0	0	0	29979	28590	157581	26850	1072049	46120	111157	0	0	8177	491818	0	0
2024-08-09 03:07:47			0	39268	0	0	0	29981	28590	157525	26908	1072058	46131	111158	0	0	8177	491927	0	0
2024-08-09 03:08:47			0	39269	0	0	0	29976	28580	157517	26904	1072040	46141	111156	0	0	8177	491919	0	0
2024-08-09 03:09:47			0	39263	0	0	0	29979	28580	157505	27036	1072004	46129	111157	0	0	8177	492136	0	0
2024-08-09 03:10:47			0	39248	0	0	0	29973	28580	157537	26844	1071986	46141	111155	0	0	8176	492678	0	0
2024-08-09 03:11:47			0	39252	0	0	0	29976	28580	157553	26977	1072004	46141	111156	0	0	8176	492533	0	0
2024-08-09 03:12:47			0	39261	0	0	0	29966	28570	157713	26941	1071968	46128	111152	0	0	8177	492236	0	0
2024-08-09 03:13:47			0	39237	0	0	0	29973	28570	157701	26889	1071968	46128	111155	0	0	8175	493104	0	0
2024-08-09 03:14:47			0	39207	0	0	0	29971	28580	157837	26896	1072058	46129	111154	0	0	8174	494161	0	0
2024-08-09 03:15:47			0	39198	0	0	0	29973	28570	157865	26890	1072022	46140	111155	0	0	8173	494516	0	0
2024-08-09 03:16:47			0	39178	0	0	0	29961	28570	157873	26844	1071995	46140	111150	0	0	8172	495241	0	0
2024-08-09 03:17:47			0	39165	0	0	0	29963	28570	157893	27114	1072022	46140	111151	0	0	8172	495712	0	0
2024-08-09 03:18:47			0	39169	0	0	0	29963	28560	157965	26987	1072004	46127	111151	0	0	8172	495596	0	0
2024-08-09 03:19:47			0	39171	0	0	0	29968	28570	157869	27100	1071986	46151	111153	0	0	8172	495494	0	0
2024-08-09 03:20:47			0	39191	0	0	0	29966	28570	157989	27255	1071968	46140	111152	0	0	8173	494769	0	0
2024-08-09 03:21:47			0	39166	0	0	0	29966	28560	157997	27085	1071968	46149	111152	0	0	8171	495704	0	0
2024-08-09 03:22:47			0	39168	0	0	0	29966	28570	157961	26963	1071959	46140	111152	0	0	8172	495603	0	0
2024-08-09 03:23:47			0	39148	0	0	0	29968	28560	157993	27043	1071977	46139	111153	0	0	8170	496358	0	0
2024-08-09 03:24:47			0	39152	0	0	0	29963	28560	158145	26769	1071950	46139	111151	0	0	8171	496213	0	0
2024-08-09 03:25:47			0	39156	0	0	0	29966	28560	158081	26953	1072030	46139	111152	0	0	8171	496067	0	0
2024-08-09 03:26:47			0	39149	0	0	0	29968	28570	158001	26842	1072013	46140	111153	0	0	8171	496293	0	0
2024-08-09 03:27:47			0	39143	0	0	0	29968	28570	157985	27123	1072049	46128	111153	0	0	8170	496511	0	0
2024-08-09 03:28:47			0	39161	0	0	0	29971	28560	158105	26864	1071995	46126	111154	0	0	8171	495886	0	0
2024-08-09 03:29:47			0	39115	0	0	0	29961	28560	158133	26880	1071968	46126	111150	0	0	8169	497557	0	0
2024-08-09 03:30:47			0	39122	0	0	0	29966	28570	158153	26928	1071986	46128	111152	0	0	8169	497273	0	0
2024-08-09 03:31:47			0	39130	0	0	0	29971	28560	158149	26654	1071950	46127	111154	0	0	8169	497011	0	0
2024-08-09 03:32:47			0	39135	0	0	0	29963	28550	158169	26939	1071959	46126	111151	0	0	8170	496859	0	0
2024-08-09 03:33:47			0	39119	0	0	0	29955	28560	158181	26776	1071950	46127	111148	0	0	8169	497411	0	0
2024-08-09 03:34:47			0	39096	0	0	0	29958	28560	158241	26646	1071941	46138	111149	0	0	8168	498248	0	0
2024-08-09 03:35:47			0	39101	0	0	0	29950	28560	158253	26977	1071968	46138	111146	0	0	8168	498066	0	0
2024-08-09 03:36:47			0	39083	0	0	0	29961	28560	158293	27105	1071923	46139	111150	0	0	8167	498721	0	0
2024-08-09 03:37:47			0	39109	0	0	0	29958	28550	158269	27196	1071932	46149	111149	0	0	8168	497804	0	0
2024-08-09 03:38:47			0	39072	0	0	0	29958	28550	158481	26797	1071950	46138	111149	0	0	8166	499150	0	0
2024-08-09 03:39:47			0	39077	0	0	0	29961	28550	158377	26873	1071905	46126	111150	0	0	8166	498968	0	0
2024-08-09 03:40:47			0	39047	0	0	0	29953	28550	158409	26880	1071959	46138	111147	0	0	8165	500062	0	0
2024-08-09 03:41:47			0	39056	0	0	0	29955	28560	158429	27062	1071923	46139	111148	0	0	8165	499705	0	0
2024-08-09 03:42:47			0	39063	0	0	0	29963	28560	158317	27012	1071968	46126	111151	0	0	8166	499449	0	0
2024-08-09 03:43:47			0	39055	0	0	0	29966	28550	158389	27164	1071950	46149	111152	0	0	8165	499770	0	0
2024-08-09 03:44:47			0	39065	0	0	0	29961	28560	158413	26956	1071914	46138	111150	0	0	8166	499377	0	0
2024-08-09 03:45:47			0	39044	0	0	0	29961	28560	158441	26882	1071941	46149	111150	0	0	8165	500142	0	0
2024-08-09 03:46:47			0	39044	0	0	0	29963	28560	158397	27008	1071977	46150	111151	0	0	8165	500142	0	0
2024-08-09 03:47:47			0	39050	0	0	0	29963	28560	158377	26767	1071950	46139	111151	0	0	8165	499923	0	0
2024-08-09 03:48:47			0	39038	0	0	0	29966	28550	158549	27104	1071932	46138	111152	0	0	8164	500390	0	0
2024-08-09 03:49:47			0	39032	0	0	0	29963	28560	158445	26918	1071941	46149	111151	0	0	8164	500580	0	0
2024-08-09 03:50:47			0	39009	0	0	0	29958	28560	158493	26828	1071950	46127	111149	0	0	8163	501420	0	0
2024-08-09 03:51:47			0	39026	0	0	0	29958	28570	158465	27081	1071959	46140	111149	0	0	8164	500770	0	0
2024-08-09 03:52:47			0	39008	0	0	0	29958	28560	158585	26939	1071914	46126	111149	0	0	8163	501456	0	0
2024-08-09 03:53:47			0	39016	0	0	0	29958	28560	158653	26705	1071914	46149	111149	0	0	8163	501164	0	0
2024-08-09 03:54:47			0	38996	0	0	0	29953	28550	158621	27050	1071905	46138	111147	0	0	8162	501923	0	0
2024-08-09 03:55:47			0	39000	0	0	0	29953	28560	158565	26844	1071950	46127	111147	0	0	8162	501748	0	0
2024-08-09 03:56:47			0	38971	0	0	0	29955	28560	158689	27206	1071941	46138	111148	0	0	8161	502808	0	0
2024-08-09 03:57:47			0	38972	0	0	0	29958	28550	158689	26953	1071932	46149	111149	0	0	8161	502801	0	0
2024-08-09 03:58:47			0	38965	0	0	0	29953	28550	158657	27178	1071905	46138	111147	0	0	8160	503057	0	0
2024-08-09 03:59:47			0	38971	0	0	0	29942	28560	158673	27296	1071950	46150	111143	0	0	8161	502808	0	0
2024-08-09 04:00:47			0	38961	0	0	0	29963	28550	158689	27294	1071986	46138	111151	0	0	8160	503204	0	0
2024-08-09 04:01:47			0	38960	0	0	0	29948	28540	158745	27000	1071914	46148	111145	0	0	8160	503269	0	0
2024-08-09 04:02:47			0	38938	0	0	0	29963	28550	158789	26823	1071905	46149	111151	0	0	8159	504046	0	0
2024-08-09 04:03:47			0	38968	0	0	0	29955	28540	158897	26790	1071887	46137	111148	0	0	8160	502977	0	0
2024-08-09 04:04:47			0	38943	0	0	0	29953	28550	158757	27206	1071869	46149	111147	0	0	8159	503863	0	0
2024-08-09 04:05:47			0	38964	0	0	0	29955	28560	158693	27105	1071914	46126	111148	0	0	8160	503065	0	0
2024-08-09 04:06:47			0	38956	0	0	0	29950	28550	158825	27111	1071896	46126	111146	0	0	8160	503387	0	0
2024-08-09 04:07:47			0	38949	0	0	0	29948	28550	158825	27050	1071896	46149	111145	0	0	8159	503643	0	0
2024-08-09 04:08:47			0	38933	0	0	0	29937	28540	158813	26913	1071905	46114	111141	0	0	8159	504258	0	0
2024-08-09 04:09:47			0	38942	0	0	0	29937	28540	158789	27450	1071851	46125	111141	0	0	8159	503928	0	0
2024-08-09 04:10:47			0	38934	0	0	0	29937	28540	158845	26904	1071824	46136	111141	0	0	8159	504222	0	0
2024-08-09 04:11:47			0	38945	0	0	0	29940	28550	158841	26906	1071869	46138	111142	0	0	8159	503789	0	0
2024-08-09 04:12:47			0	38941	0	0	0	29935	28540	158881	27178	1071887	46137	111140	0	0	8159	503965	0	0
2024-08-09 04:13:47			0	38929	0	0	0	29929	28540	158861	27008	1071833	46125	111138	0	0	8159	504405	0	0
2024-08-09 04:14:47			0	38912	0	0	0	29929	28540	158929	27135	1071824	46147	111138	0	0	8158	505028	0	0
2024-08-09 04:15:47			0	38906	0	0	0	29929	28530	159001	27015	1071788	46136	111138	0	0	8157	505278	0	0
2024-08-09 04:16:47			0	38899	0	0	0	29927	28530	158877	26844	1071779	46136	111137	0	0	8157	505534	0	0
2024-08-09 04:17:47			0	38901	0	0	0	29929	28520	159025	26736	1071796	46135	111138	0	0	8157	505490	0	0
2024-08-09 04:18:47			0	38897	0	0	0	29922	28530	158953	27126	1071815	46158	111135	0	0	8157	505608	0	0
2024-08-09 04:19:47			0	38889	0	0	0	29924	28520	159053	26951	1071796	46135	111136	0	0	8156	505931	0	0
2024-08-09 04:20:47			0	38897	0	0	0	29927	28530	158993	26996	1071779	46125	111137	0	0	8157	505608	0	0
2024-08-09 04:21:47			0	38869	0	0	0	29924	28530	159113	26906	1071806	46147	111136	0	0	8155	506636	0	0
2024-08-09 04:22:47			0	38852	0	0	0	29927	28520	159065	27033	1071796	46146	111137	0	0	8154	507291	0	0
2024-08-09 04:23:47			0	38859	0	0	0	29919	28520	159221	26899	1071769	46135	111134	0	0	8155	507033	0	0
2024-08-09 04:24:47			0	38851	0	0	0	29916	28520	159297	27010	1071715	46146	111133	0	0	8154	507327	0	0
2024-08-09 04:25:47			0	38824	0	0	0	29919	28530	159245	26765	1071752	46136	111134	0	0	8153	508292	0	0
2024-08-09 04:26:47			0	38836	0	0	0	29919	28520	159237	26837	1071689	46135	111134	0	0	8153	507879	0	0
2024-08-09 04:27:47			0	38833	0	0	0	29906	28520	159329	27163	1071715	46135	111129	0	0	8153	507990	0	0
2024-08-09 04:28:47			0	38834	0	0	0	29906	28520	159357	27069	1071742	46135	111129	0	0	8153	507953	0	0
2024-08-09 04:29:47			0	38818	0	0	0	29909	28510	159257	26986	1071751	46134	111130	0	0	8152	508571	0	0
2024-08-09 04:30:47			0	38816	0	0	0	29909	28520	159381	27008	1071769	46146	111130	0	0	8152	508616	0	0
2024-08-09 04:31:47			0	38835	0	0	0	29909	28520	159213	26835	1071787	46134	111130	0	0	8153	507916	0	0
2024-08-09 04:32:47			0	38826	0	0	0	29914	28510	159321	26736	1071697	46134	111132	0	0	8153	508277	0	0
2024-08-09 04:33:47			0	38828	0	0	0	29906	28520	159177	26960	1071706	46145	111129	0	0	8153	508174	0	0
2024-08-09 04:34:47			0	38823	0	0	0	29909	28510	159333	26873	1071688	46145	111130	0	0	8153	508387	0	0
2024-08-09 04:35:47			0	38829	0	0	0	29898	28510	159341	27029	1071688	46134	111126	0	0	8153	508166	0	0
2024-08-09 04:36:47			0	38827	0	0	0	29906	28510	159309	26904	1071688	46134	111129	0	0	8153	508240	0	0
2024-08-09 04:37:47			0	38835	0	0	0	29911	28510	159281	26918	1071724	46134	111131	0	0	8153	507946	0	0
2024-08-09 04:38:47			0	38812	0	0	0	29893	28500	159313	26937	1071706	46133	111124	0	0	8152	508822	0	0
2024-08-09 04:39:47			0	38818	0	0	0	29903	28500	159357	26797	1071679	46144	111128	0	0	8152	508601	0	0
2024-08-09 04:40:47			0	38829	0	0	0	29896	28500	159385	26759	1071670	46143	111125	0	0	8153	508196	0	0
2024-08-09 04:41:47			0	38814	0	0	0	29893	28500	159409	27196	1071679	46133	111124	0	0	8152	508748	0	0
2024-08-09 04:42:47			0	38803	0	0	0	29896	28510	159305	27019	1071635	46134	111125	0	0	8152	509124	0	0
2024-08-09 04:43:47			0	38804	0	0	0	29898	28500	159361	27095	1071626	46122	111126	0	0	8152	509117	0	0
2024-08-09 04:44:47			0	38812	0	0	0	29896	28500	159249	26901	1071706	46144	111125	0	0	8152	508822	0	0
2024-08-09 04:45:47			0	38821	0	0	0	29885	28500	159397	26922	1071617	46121	111121	0	0	8153	508490	0	0
2024-08-09 04:46:47			0	38837	0	0	0	29885	28490	159281	26804	1071608	46131	111121	0	0	8154	507931	0	0
2024-08-09 04:47:47			0	38839	0	0	0	29885	28500	159225	27005	1071617	46132	111121	0	0	8154	507828	0	0
2024-08-09 04:48:47			0	38856	0	0	0	29888	28490	159221	27062	1071608	46131	111122	0	0	8155	507232	0	0
2024-08-09 04:49:47			0	38870	0	0	0	29880	28490	159213	27313	1071545	46142	111119	0	0	8156	506717	0	0
2024-08-09 04:50:47			0	38864	0	0	0	29880	28490	159253	27123	1071652	46120	111119	0	0	8155	506937	0	0
2024-08-09 04:51:47			0	38850	0	0	0	29875	28490	159293	27100	1071599	46109	111117	0	0	8155	507452	0	0
2024-08-09 04:52:47			0	38827	0	0	0	29885	28490	159313	27208	1071581	46131	111121	0	0	8153	508299	0	0
2024-08-09 04:53:47			0	38813	0	0	0	29875	28490	159353	26998	1071679	46131	111117	0	0	8153	508815	0	0
2024-08-09 04:54:47			0	38827	0	0	0	29880	28490	159441	26937	1071527	46131	111119	0	0	8153	508299	0	0
2024-08-09 04:55:47			0	38828	0	0	0	29875	28480	159261	27133	1071500	46141	111117	0	0	8153	508291	0	0
2024-08-09 04:56:47			0	38825	0	0	0	29864	28480	159333	27052	1071536	46131	111113	0	0	8153	508402	0	0
2024-08-09 04:57:47			0	38840	0	0	0	29885	28470	159349	27383	1071518	46129	111121	0	0	8154	507879	0	0
2024-08-09 04:58:47			0	38828	0	0	0	29870	28480	159357	27256	1071527	46141	111115	0	0	8154	508291	0	0
2024-08-09 04:59:47			0	38841	0	0	0	29854	28470	159329	27041	1071437	46129	111109	0	0	8154	507842	0	0
2024-08-09 05:00:47			0	38841	0	0	0	29857	28470	159217	27185	1071482	46107	111110	0	0	8154	507842	0	0
2024-08-09 05:01:47			0	38850	0	0	0	29859	28470	159321	27076	1071428	46129	111111	0	0	8155	507511	0	0
2024-08-09 05:02:47			0	38818	0	0	0	29862	28470	159365	27036	1071464	46129	111112	0	0	8153	508689	0	0
2024-08-09 05:03:47			0	38832	0	0	0	29851	28470	159353	26994	1071482	46129	111108	0	0	8154	508173	0	0
2024-08-09 05:04:47			0	38835	0	0	0	29849	28460	159433	26991	1071446	46140	111107	0	0	8154	508092	0	0
2024-08-09 05:05:47			0	38813	0	0	0	29849	28470	159381	26753	1071482	46118	111107	0	0	8153	508873	0	0
2024-08-09 05:06:47			0	38810	0	0	0	29844	28460	159341	26752	1071419	46118	111105	0	0	8153	509013	0	0
2024-08-09 05:07:47			0	38821	0	0	0	29844	28450	159441	26703	1071455	46127	111105	0	0	8153	508637	0	0
2024-08-09 05:08:47			0	38807	0	0	0	29846	28460	159433	27156	1071410	46117	111106	0	0	8153	509124	0	0
2024-08-09 05:09:47			0	38780	0	0	0	29844	28460	159589	26889	1071356	46117	111105	0	0	8151	510120	0	0
2024-08-09 05:10:47			0	38770	0	0	0	29849	28450	159605	27017	1071401	46127	111107	0	0	8150	510519	0	0
2024-08-09 05:11:47			0	38719	0	0	0	29846	28450	159784	27135	1071374	46127	111106	0	0	8148	512404	0	0
2024-08-09 05:12:47			0	38706	0	0	0	29838	28440	159816	26890	1071329	46127	111103	0	0	8147	512915	0	0
2024-08-09 05:13:47			0	38684	0	0	0	29844	28450	160064	27209	1071374	46116	111105	0	0	8146	513700	0	0
2024-08-09 05:14:47			0	38650	0	0	0	29841	28450	160004	27046	1071347	46127	111104	0	0	8144	514962	0	0
2024-08-09 05:15:47			0	38650	0	0	0	29838	28440	160084	27019	1071356	46127	111103	0	0	8144	514991	0	0
2024-08-09 05:16:47			0	38661	0	0	0	29846	28450	160088	26916	1071365	46127	111106	0	0	8144	514553	0	0
2024-08-09 05:17:47			0	38670	0	0	0	29844	28450	159944	26802	1071401	46127	111105	0	0	8145	514220	0	0
2024-08-09 05:18:47			0	38678	0	0	0	29838	28450	159956	27033	1071392	46116	111103	0	0	8145	513923	0	0
2024-08-09 05:19:47			0	38687	0	0	0	29838	28440	159960	27095	1071410	46127	111103	0	0	8146	513619	0	0
2024-08-09 05:20:47			0	38674	0	0	0	29844	28450	159952	26646	1071392	46127	111105	0	0	8145	514071	0	0
2024-08-09 05:21:47			0	38680	0	0	0	29836	28450	160072	26759	1071365	46127	111102	0	0	8146	513849	0	0
2024-08-09 05:22:47			0	38666	0	0	0	29831	28440	160044	26982	1071329	46127	111100	0	0	8145	514398	0	0
2024-08-09 05:23:47			0	38680	0	0	0	29836	28440	159936	26648	1071356	46127	111102	0	0	8145	513878	0	0
2024-08-09 05:24:47			0	38678	0	0	0	29831	28440	160036	26897	1071320	46115	111100	0	0	8145	513952	0	0
2024-08-09 05:25:47			0	38699	0	0	0	29828	28440	159996	26830	1071266	46126	111099	0	0	8147	513174	0	0
2024-08-09 05:26:47			0	38710	0	0	0	29825	28440	159928	27012	1071293	46126	111098	0	0	8147	512767	0	0
2024-08-09 05:27:47			0	38706	0	0	0	29818	28440	159876	26960	1071266	46115	111095	0	0	8147	512915	0	0
2024-08-09 05:28:47			0	38744	0	0	0	29820	28430	159745	27123	1071275	46125	111096	0	0	8149	511539	0	0
2024-08-09 05:29:47			0	38735	0	0	0	29818	28430	159805	26977	1071230	46136	111095	0	0	8149	511871	0	0
2024-08-09 05:30:47			0	38726	0	0	0	29812	28430	159820	26998	1071221	46125	111093	0	0	8148	512204	0	0
2024-08-09 05:31:47			0	38728	0	0	0	29815	28420	159817	27041	1071320	46125	111094	0	0	8148	512160	0	0
2024-08-09 05:32:47			0	38710	0	0	0	29820	28410	159840	26873	1071221	46112	111096	0	0	8147	512856	0	0
2024-08-09 05:33:47			0	38711	0	0	0	29815	28430	159880	26679	1071275	46135	111094	0	0	8148	512760	0	0
2024-08-09 05:34:47			0	38689	0	0	0	29807	28430	160000	26927	1071302	46125	111091	0	0	8146	513574	0	0
2024-08-09 05:35:47			0	38684	0	0	0	29807	28420	159996	26923	1071149	46125	111091	0	0	8146	513790	0	0
2024-08-09 05:36:47			0	38678	0	0	0	29802	28410	159936	26908	1071221	46124	111089	0	0	8146	514042	0	0
2024-08-09 05:37:47			0	38672	0	0	0	29807	28420	159964	26996	1071149	46113	111091	0	0	8145	514234	0	0
2024-08-09 05:38:47			0	38678	0	0	0	29797	28420	159996	26752	1071185	46125	111087	0	0	8146	514012	0	0
2024-08-09 05:39:47			0	38691	0	0	0	29799	28400	159948	26580	1071176	46111	111088	0	0	8147	513589	0	0
2024-08-09 05:40:47			0	38694	0	0	0	29797	28410	159996	26887	1071104	46133	111087	0	0	8147	513449	0	0
2024-08-09 05:41:47			0	38692	0	0	0	29789	28400	159904	26639	1071095	46111	111084	0	0	8147	513552	0	0
2024-08-09 05:42:47			0	38667	0	0	0	29784	28410	160060	26840	1071131	46111	111082	0	0	8145	514450	0	0
2024-08-09 05:43:47			0	38659	0	0	0	29792	28410	159964	26830	1071131	46111	111085	0	0	8145	514747	0	0
2024-08-09 05:44:47			0	38668	0	0	0	29789	28390	160056	26939	1071158	46132	111084	0	0	8145	514472	0	0
2024-08-09 05:45:47			0	38668	0	0	0	29792	28390	160016	27001	1071023	46122	111085	0	0	8145	514472	0	0
2024-08-09 05:46:47			0	38671	0	0	0	29776	28400	159936	26767	1071113	46145	111079	0	0	8146	514331	0	0
2024-08-09 05:47:47			0	38703	0	0	0	29776	28390	159996	26930	1071104	46132	111079	0	0	8148	513175	0	0
2024-08-09 05:48:47			0	38681	0	0	0	29781	28400	160052	26674	1071113	46123	111081	0	0	8146	513960	0	0
2024-08-09 05:49:47			0	38681	0	0	0	29774	28380	160004	26934	1071041	46121	111078	0	0	8146	514020	0	0
2024-08-09 05:50:47			0	38665	0	0	0	29776	28380	160120	27001	1071041	46121	111079	0	0	8145	514613	0	0
2024-08-09 05:51:47			0	38673	0	0	0	29781	28390	160112	26606	1071104	46122	111081	0	0	8146	514287	0	0
2024-08-09 05:52:47			0	38658	0	0	0	29784	28380	160052	26918	1071041	46131	111082	0	0	8145	514873	0	0
2024-08-09 05:53:47			0	38647	0	0	0	29771	28380	160120	26864	1071005	46131	111077	0	0	8144	515281	0	0
2024-08-09 05:54:47			0	38658	0	0	0	29784	28380	160140	26989	1071068	46131	111082	0	0	8145	514873	0	0
2024-08-09 05:55:47			0	38667	0	0	0	29768	28380	160040	26927	1071122	46121	111076	0	0	8146	514539	0	0
2024-08-09 05:56:47			0	38666	0	0	0	29771	28390	159980	26847	1071050	46122	111077	0	0	8146	514546	0	0
2024-08-09 05:57:47			0	38663	0	0	0	29776	28380	160068	27064	1070978	46121	111079	0	0	8145	514687	0	0
2024-08-09 05:58:47			0	38657	0	0	0	29779	28370	160012	27199	1070987	46108	111080	0	0	8145	514940	0	0
2024-08-09 05:59:47			0	38676	0	0	0	29758	28370	160128	27038	1071014	46108	111072	0	0	8146	514235	0	0
2024-08-09 06:00:47			0	38668	0	0	0	29753	28380	160024	27060	1071005	46121	111070	0	0	8146	514502	0	0
2024-08-09 06:01:47			0	38666	0	0	0	29755	28370	160120	26826	1070996	46121	111071	0	0	8146	514606	0	0
2024-08-09 06:02:47			0	38661	0	0	0	29755	28360	160048	27147	1070951	46107	111071	0	0	8145	514821	0	0
2024-08-09 06:03:47			0	38671	0	0	0	29750	28360	160056	27053	1070897	46119	111069	0	0	8146	514450	0	0
2024-08-09 06:04:47			0	38679	0	0	0	29753	28350	160020	27059	1070906	46118	111070	0	0	8146	514183	0	0
2024-08-09 06:05:47			0	38692	0	0	0	29748	28360	160012	26951	1070942	46118	111068	0	0	8147	513671	0	0
2024-08-09 06:06:47			0	38704	0	0	0	29742	28360	159980	26778	1070915	46118	111066	0	0	8148	513226	0	0
2024-08-09 06:07:47			0	38699	0	0	0	29745	28360	160056	26700	1070888	46118	111067	0	0	8148	513412	0	0
2024-08-09 06:08:47			0	38703	0	0	0	29742	28350	160004	26951	1070816	46128	111066	0	0	8148	513293	0	0
2024-08-09 06:09:47			0	38717	0	0	0	29737	28350	160004	26679	1070897	46118	111064	0	0	8149	512775	0	0
2024-08-09 06:10:47			0	38697	0	0	0	29727	28350	159996	26771	1070816	46128	111060	0	0	8148	513515	0	0
2024-08-09 06:11:47			0	38687	0	0	0	29737	28350	159996	26785	1070843	46128	111064	0	0	8147	513886	0	0
2024-08-09 06:12:47			0	38685	0	0	0	29735	28340	160064	26861	1070825	46104	111063	0	0	8147	513990	0	0
2024-08-09 06:13:47			0	38668	0	0	0	29735	28340	160044	26870	1070915	46127	111063	0	0	8146	514621	0	0
2024-08-09 06:14:47			0	38657	0	0	0	29729	28340	160092	26916	1070834	46139	111061	0	0	8146	515029	0	0
2024-08-09 06:15:47			0	38659	0	0	0	29729	28330	160192	26883	1070753	46116	111061	0	0	8146	514985	0	0
2024-08-09 06:16:47			0	38665	0	0	0	29732	28340	160104	26935	1070825	46116	111062	0	0	8146	514732	0	0
2024-08-09 06:17:47			0	38654	0	0	0	29727	28340	160240	26805	1070807	46117	111060	0	0	8145	515141	0	0
2024-08-09 06:18:47			0	38631	0	0	0	29719	28330	160252	26882	1070807	46126	111057	0	0	8144	516025	0	0
2024-08-09 06:19:47			0	38644	0	0	0	29727	28340	160224	27048	1070834	46117	111060	0	0	8145	515512	0	0
2024-08-09 06:20:47			0	38619	0	0	0	29727	28330	160332	26967	1070843	46116	111060	0	0	8143	516471	0	0
2024-08-09 06:21:47			0	38612	0	0	0	29724	28340	160360	27033	1070825	46138	111059	0	0	8143	516702	0	0
2024-08-09 06:22:47			0	38619	0	0	0	29732	28340	160360	26779	1070771	46116	111062	0	0	8143	516441	0	0
2024-08-09 06:23:47			0	38616	0	0	0	29732	28340	160360	26991	1070852	46104	111062	0	0	8143	516553	0	0
2024-08-09 06:24:47			0	38612	0	0	0	29727	28340	160412	27098	1070771	46126	111060	0	0	8143	516702	0	0
2024-08-09 06:25:47			0	38587	0	0	0	29724	28330	160340	26625	1070834	46126	111059	0	0	8142	517662	0	0
2024-08-09 06:26:47			0	38592	0	0	0	29722	28340	160400	27055	1070861	46117	111058	0	0	8142	517446	0	0
2024-08-09 06:27:47			0	38622	0	0	0	29729	28340	160340	26840	1070798	46104	111061	0	0	8144	516330	0	0
2024-08-09 06:28:47			0	38590	0	0	0	29732	28330	160400	27152	1070789	46093	111062	0	0	8142	517551	0	0
2024-08-09 06:29:47			0	38634	0	0	0	29722	28330	160364	27102	1070816	46126	111058	0	0	8144	515914	0	0
2024-08-09 06:30:47			0	38616	0	0	0	29724	28330	160424	26852	1070780	46126	111059	0	0	8143	516583	0	0
2024-08-09 06:31:47			0	38621	0	0	0	29719	28330	160260	26896	1070807	46126	111057	0	0	8144	516397	0	0
2024-08-09 06:32:47			0	38615	0	0	0	29711	28320	160432	26996	1070798	46125	111054	0	0	8143	516650	0	0
2024-08-09 06:33:47			0	38618	0	0	0	29711	28330	160368	26882	1070780	46138	111054	0	0	8144	516508	0	0
2024-08-09 06:34:47			0	38612	0	0	0	29711	28330	160332	26781	1070699	46104	111054	0	0	8143	516732	0	0
2024-08-09 06:35:47			0	38618	0	0	0	29709	28320	160424	27053	1070825	46115	111053	0	0	8144	516538	0	0
2024-08-09 06:36:47			0	38631	0	0	0	29716	28330	160260	26842	1070780	46116	111056	0	0	8144	516025	0	0
2024-08-09 06:37:47			0	38642	0	0	0	29724	28330	160316	26927	1070834	46116	111059	0	0	8145	515616	0	0
2024-08-09 06:38:47			0	38643	0	0	0	29719	28320	160224	26918	1070717	46115	111057	0	0	8145	515609	0	0
2024-08-09 06:39:47			0	38636	0	0	0	29716	28330	160320	26776	1070780	46116	111056	0	0	8145	515839	0	0
2024-08-09 06:40:47			0	38659	0	0	0	29722	28330	160300	26894	1070780	46126	111058	0	0	8146	514985	0	0
2024-08-09 06:41:47			0	38643	0	0	0	29722	28330	160216	26720	1070780	46116	111058	0	0	8145	515579	0	0
2024-08-09 06:42:47			0	38652	0	0	0	29724	28320	160220	26755	1070735	46102	111059	0	0	8145	515274	0	0
2024-08-09 06:43:47			0	38671	0	0	0	29706	28330	160212	27007	1070726	46116	111052	0	0	8147	514539	0	0
2024-08-09 06:44:47			0	38635	0	0	0	29714	28320	160180	26717	1070744	46125	111055	0	0	8144	515906	0	0
2024-08-09 06:45:47			0	38657	0	0	0	29711	28320	160348	27012	1070735	46114	111054	0	0	8146	515089	0	0
2024-08-09 06:46:47			0	38656	0	0	0	29709	28310	160208	26812	1070672	46125	111053	0	0	8146	515156	0	0
2024-08-09 06:47:47			0	38638	0	0	0	29714	28320	160172	26859	1070708	46114	111055	0	0	8145	515795	0	0
2024-08-09 06:48:47			0	38642	0	0	0	29703	28320	160124	26828	1070744	46125	111051	0	0	8145	515646	0	0
2024-08-09 06:49:47			0	38631	0	0	0	29709	28310	160224	27119	1070753	46102	111053	0	0	8144	516085	0	0
2024-08-09 06:50:47			0	38639	0	0	0	29711	28320	160244	26923	1070762	46125	111054	0	0	8145	515757	0	0
2024-08-09 06:51:47			0	38635	0	0	0	29714	28310	160188	27017	1070726	46125	111055	0	0	8144	515936	0	0
2024-08-09 06:52:47			0	38620	0	0	0	29714	28310	160332	27161	1070753	46114	111055	0	0	8144	516494	0	0
2024-08-09 06:53:47			0	38648	0	0	0	29714	28310	160240	27107	1070699	46102	111055	0	0	8145	515453	0	0
2024-08-09 06:54:47			0	38636	0	0	0	29716	28320	160224	26994	1070717	46103	111056	0	0	8144	515869	0	0
2024-08-09 06:55:47			0	38627	0	0	0	29709	28320	160256	26563	1070762	46136	111053	0	0	8144	516204	0	0
2024-08-09 06:56:47			0	38598	0	0	0	29706	28310	160344	27057	1070753	46136	111052	0	0	8142	517313	0	0
2024-08-09 06:57:47			0	38617	0	0	0	29711	28310	160292	26644	1070726	46114	111054	0	0	8143	516605	0	0
2024-08-09 06:58:47			0	38598	0	0	0	29711	28320	160428	26802	1070717	46115	111054	0	0	8142	517283	0	0
2024-08-09 06:59:47			0	38608	0	0	0	29711	28320	160256	27194	1070708	46114	111054	0	0	8143	516910	0	0
2024-08-09 07:00:47			0	38637	0	0	0	29706	28320	160272	26738	1070708	46114	111052	0	0	8145	515832	0	0
2024-08-09 07:01:47			0	38617	0	0	0	29701	28320	160296	26974	1070654	46125	111050	0	0	8144	516575	0	0
2024-08-09 07:02:47			0	38625	0	0	0	29703	28310	160248	26814	1070726	46114	111051	0	0	8144	516308	0	0
2024-08-09 07:03:47			0	38638	0	0	0	29703	28310	160352	26857	1070672	46125	111051	0	0	8145	515824	0	0
2024-08-09 07:04:47			0	38644	0	0	0	29709	28310	160292	27013	1070699	46136	111053	0	0	8145	515601	0	0
2024-08-09 07:05:47			0	38652	0	0	0	29706	28310	160204	27019	1070636	46125	111052	0	0	8146	515304	0	0
2024-08-09 07:06:47			0	38679	0	0	0	29709	28310	160192	26830	1070717	46102	111053	0	0	8147	514302	0	0
2024-08-09 07:07:47			0	38663	0	0	0	29706	28310	160212	27003	1070744	46114	111052	0	0	8146	514896	0	0
2024-08-09 07:08:47			0	38697	0	0	0	29709	28300	160072	26493	1070681	46124	111053	0	0	8148	513664	0	0
2024-08-09 07:09:47			0	38683	0	0	0	29701	28310	160172	26915	1070753	46125	111050	0	0	8147	514153	0	0
2024-08-09 07:10:47			0	38680	0	0	0	29706	28310	160204	27093	1070726	46125	111052	0	0	8147	514265	0	0
2024-08-09 07:11:47			0	38677	0	0	0	29709	28320	160224	26833	1070708	46114	111053	0	0	8147	514346	0	0
2024-08-09 07:12:47			0	38703	0	0	0	29719	28310	160164	26727	1070780	46136	111057	0	0	8148	513412	0	0
2024-08-09 07:13:47			0	38691	0	0	0	29709	28310	160092	26762	1070753	46114	111053	0	0	8148	513857	0	0
2024-08-09 07:14:47			0	38695	0	0	0	29709	28310	160108	27114	1070690	46114	111053	0	0	8148	513708	0	0
2024-08-09 07:15:47			0	38715	0	0	0	29711	28300	160160	26746	1070708	46135	111054	0	0	8149	512997	0	0
2024-08-09 07:16:47			0	38695	0	0	0	29711	28310	159984	26986	1070690	46114	111054	0	0	8148	513708	0	0
2024-08-09 07:17:47			0	38724	0	0	0	29711	28310	160009	27000	1070690	46114	111054	0	0	8150	512634	0	0
2024-08-09 07:18:47			0	38712	0	0	0	29711	28310	160028	26833	1070780	46114	111054	0	0	8149	513078	0	0
2024-08-09 07:19:47			0	38684	0	0	0	29709	28310	159908	27069	1070636	46114	111053	0	0	8147	514116	0	0
2024-08-09 07:20:47			0	38693	0	0	0	29716	28310	160076	26759	1070690	46125	111056	0	0	8148	513782	0	0
2024-08-09 07:21:47			0	38703	0	0	0	29714	28310	160124	26741	1070744	46125	111055	0	0	8148	513412	0	0
2024-08-09 07:22:47			0	38707	0	0	0	29714	28320	160128	26679	1070708	46114	111055	0	0	8149	513234	0	0
2024-08-09 07:23:47			0	38718	0	0	0	29714	28310	159996	26906	1070753	46114	111055	0	0	8149	512856	0	0
2024-08-09 07:24:47			0	38698	0	0	0	29709	28310	160076	27133	1070726	46114	111053	0	0	8148	513597	0	0
2024-08-09 07:25:47			0	38729	0	0	0	29711	28300	160061	27244	1070681	46113	111054	0	0	8150	512478	0	0
2024-08-09 07:26:47			0	38721	0	0	0	29696	28300	159980	27166	1070681	46113	111048	0	0	8150	512774	0	0
2024-08-09 07:27:47			0	38721	0	0	0	29709	28310	160004	26948	1070663	46125	111053	0	0	8149	512745	0	0
2024-08-09 07:28:47			0	38722	0	0	0	29703	28310	159980	27111	1070717	46114	111051	0	0	8150	512708	0	0
2024-08-09 07:29:47			0	38706	0	0	0	29706	28310	159972	27317	1070744	46125	111052	0	0	8149	513301	0	0
2024-08-09 07:30:47			0	38709	0	0	0	29696	28300	160000	26989	1070726	46123	111048	0	0	8149	513219	0	0
2024-08-09 07:31:47			0	38718	0	0	0	29696	28300	160008	27178	1070627	46113	111048	0	0	8149	512886	0	0
2024-08-09 07:32:47			0	38695	0	0	0	29703	28310	160032	26996	1070636	46125	111051	0	0	8148	513708	0	0
2024-08-09 07:33:47			0	38694	0	0	0	29703	28300	159952	27071	1070708	46124	111051	0	0	8148	513775	0	0
2024-08-09 07:34:47			0	38708	0	0	0	29698	28300	160112	27119	1070681	46113	111049	0	0	8149	513256	0	0
2024-08-09 07:35:47			0	38695	0	0	0	29696	28300	159988	27197	1070645	46123	111048	0	0	8148	513738	0	0
2024-08-09 07:36:47			0	38690	0	0	0	29698	28300	160128	26883	1070627	46113	111049	0	0	8148	513924	0	0
2024-08-09 07:37:47			0	38676	0	0	0	29693	28300	160124	27261	1070708	46113	111047	0	0	8147	514443	0	0
2024-08-09 07:38:47			0	38672	0	0	0	29696	28300	160040	26817	1070627	46113	111048	0	0	8147	514591	0	0
2024-08-09 07:39:47			0	38679	0	0	0	29690	28300	160124	26583	1070654	46101	111046	0	0	8147	514331	0	0
2024-08-09 07:40:47			0	38685	0	0	0	29685	28280	160080	26752	1070591	46122	111044	0	0	8148	514168	0	0
2024-08-09 07:41:47			0	38698	0	0	0	29690	28300	159952	27144	1070654	46113	111046	0	0	8148	513627	0	0
2024-08-09 07:42:47			0	38694	0	0	0	29683	28290	160084	26955	1070636	46100	111043	0	0	8148	513805	0	0
2024-08-09 07:43:47			0	38705	0	0	0	29696	28280	159940	26960	1070555	46132	111048	0	0	8149	513427	0	0
2024-08-09 07:44:47			0	38682	0	0	0	29693	28300	160060	26944	1070591	46112	111047	0	0	8147	514220	0	0
2024-08-09 07:45:47			0	38672	0	0	0	29680	28290	160048	26868	1070663	46112	111042	0	0	8147	514621	0	0
2024-08-09 07:46:47			0	38705	0	0	0	29690	28280	160000	26856	1070591	46122	111046	0	0	8149	513427	0	0
2024-08-09 07:47:47			0	38706	0	0	0	29688	28280	160048	26814	1070564	46111	111045	0	0	8149	513389	0	0
2024-08-09 07:48:47			0	38712	0	0	0	29688	28290	159952	26698	1070609	46112	111045	0	0	8149	513137	0	0
2024-08-09 07:49:47			0	38714	0	0	0	29693	28290	159972	26590	1070681	46111	111047	0	0	8149	513063	0	0
2024-08-09 07:50:47			0	38712	0	0	0	29688	28280	159984	26717	1070537	46122	111045	0	0	8149	513167	0	0
2024-08-09 07:51:47			0	38725	0	0	0	29675	28280	159929	26935	1070672	46122	111040	0	0	8150	512686	0	0
2024-08-09 07:52:47			0	38717	0	0	0	29685	28280	159948	26894	1070609	46121	111044	0	0	8149	512982	0	0
2024-08-09 07:53:47			0	38714	0	0	0	29688	28290	159956	26866	1070582	46112	111045	0	0	8149	513063	0	0
2024-08-09 07:54:47			0	38704	0	0	0	29683	28280	160040	26958	1070537	46122	111043	0	0	8149	513464	0	0
2024-08-09 07:55:47			0	38709	0	0	0	29675	28280	160060	26694	1070663	46121	111040	0	0	8149	513278	0	0
2024-08-09 07:56:47			0	38704	0	0	0	29683	28290	160056	26556	1070654	46133	111043	0	0	8149	513434	0	0
2024-08-09 07:57:47			0	38670	0	0	0	29675	28280	160188	26928	1070582	46098	111040	0	0	8147	514725	0	0
2024-08-09 07:58:47			0	38682	0	0	0	29683	28280	160084	26774	1070609	46110	111043	0	0	8147	514280	0	0
2024-08-09 07:59:47			0	38658	0	0	0	29690	28290	160168	26622	1070654	46099	111046	0	0	8146	515141	0	0
2024-08-09 08:00:47			0	38644	0	0	0	29688	28270	160140	27086	1070600	46120	111045	0	0	8145	515721	0	0
2024-08-09 08:01:47			0	38637	0	0	0	29688	28280	160252	26752	1070636	46110	111045	0	0	8145	515951	0	0
2024-08-09 08:02:47			0	38614	0	0	0	29685	28280	160304	26956	1070618	46099	111044	0	0	8144	516807	0	0
2024-08-09 08:03:47			0	38626	0	0	0	29688	28270	160340	26861	1070627	46109	111045	0	0	8144	516390	0	0
2024-08-09 08:04:47			0	38604	0	0	0	29688	28300	160416	26844	1070672	46112	111045	0	0	8143	517119	0	0
2024-08-09 08:05:47			0	38606	0	0	0	29696	28300	160368	26634	1070672	46100	111048	0	0	8143	517045	0	0
2024-08-09 08:06:47			0	38594	0	0	0	29688	28280	160436	26800	1070618	46122	111045	0	0	8142	517551	0	0
2024-08-09 08:07:47			0	38589	0	0	0	29693	28290	160376	27067	1070663	46123	111047	0	0	8142	517707	0	0
2024-08-09 08:08:47			0	38588	0	0	0	29693	28300	160508	26585	1070699	46134	111047	0	0	8142	517715	0	0
2024-08-09 08:09:47			0	38595	0	0	0	29698	28300	160368	26864	1070708	46113	111049	0	0	8142	517454	0	0
2024-08-09 08:10:47			0	38606	0	0	0	29696	28300	160484	26896	1070699	46134	111048	0	0	8143	517045	0	0
2024-08-09 08:11:47			0	38589	0	0	0	29701	28300	160444	26835	1070618	46123	111050	0	0	8142	517678	0	0
2024-08-09 08:12:47			0	38586	0	0	0	29685	28300	160448	27005	1070699	46123	111044	0	0	8142	517789	0	0
2024-08-09 08:13:47			0	38576	0	0	0	29688	28280	160492	26771	1070663	46110	111045	0	0	8141	518222	0	0
2024-08-09 08:14:47			0	38573	0	0	0	29698	28280	160504	26955	1070645	46099	111049	0	0	8141	518334	0	0
2024-08-09 08:15:47			0	38563	0	0	0	29693	28280	160544	26689	1070672	46099	111047	0	0	8141	518707	0	0
2024-08-09 08:16:47			0	38555	0	0	0	29698	28300	160520	27170	1070699	46123	111049	0	0	8140	518945	0	0
2024-08-09 08:17:47			0	38533	0	0	0	29696	28290	160612	26771	1070690	46123	111048	0	0	8139	519796	0	0
2024-08-09 08:18:47			0	38538	0	0	0	29696	28310	160700	26892	1070726	46125	111048	0	0	8139	519550	0	0
2024-08-09 08:19:47			0	38515	0	0	0	29690	28300	160668	27031	1070672	46100	111046	0	0	8138	520439	0	0
2024-08-09 08:20:47			0	38510	0	0	0	29701	28300	160804	26807	1070753	46134	111050	0	0	8137	520626	0	0
2024-08-09 08:21:47			0	38501	0	0	0	29696	28280	160732	26864	1070672	46111	111048	0	0	8137	521022	0	0
2024-08-09 08:22:47			0	38516	0	0	0	29690	28300	160620	26961	1070699	46134	111046	0	0	8138	520401	0	0
2024-08-09 08:23:47			0	38541	0	0	0	29690	28290	160604	26724	1070717	46123	111046	0	0	8139	519498	0	0
2024-08-09 08:24:47			0	38539	0	0	0	29688	28280	160544	26745	1070591	46133	111045	0	0	8139	519602	0	0
2024-08-09 08:25:47			0	38527	0	0	0	29685	28290	160776	26864	1070663	46123	111044	0	0	8139	520020	0	0
2024-08-09 08:26:47			0	38550	0	0	0	29683	28300	160708	26615	1070672	46123	111043	0	0	8140	519132	0	0
2024-08-09 08:27:47			0	38527	0	0	0	29688	28300	160684	26982	1070672	46123	111045	0	0	8139	519990	0	0
2024-08-09 08:28:47			0	38526	0	0	0	29693	28290	160736	26847	1070654	46099	111047	0	0	8138	520058	0	0
2024-08-09 08:29:47			0	38528	0	0	0	29690	28290	160792	26835	1070690	46112	111046	0	0	8139	519983	0	0
2024-08-09 08:30:47			0	38521	0	0	0	29693	28300	160716	26738	1070672	46123	111047	0	0	8138	520215	0	0
2024-08-09 08:31:47			0	38537	0	0	0	29685	28300	160728	26668	1070645	46112	111044	0	0	8139	519617	0	0
2024-08-09 08:32:47			0	38528	0	0	0	29698	28290	160720	26797	1070627	46122	111049	0	0	8138	519983	0	0
2024-08-09 08:33:47			0	38532	0	0	0	29688	28300	160660	27005	1070645	46112	111045	0	0	8139	519804	0	0
2024-08-09 08:34:47			0	38522	0	0	0	29685	28290	160816	26826	1070681	46099	111044	0	0	8138	520207	0	0
2024-08-09 08:35:47			0	38554	0	0	0	29688	28290	160656	26578	1070690	46123	111045	0	0	8140	519012	0	0
2024-08-09 08:36:47			0	38553	0	0	0	29683	28300	160728	26996	1070726	46123	111043	0	0	8140	519020	0	0
2024-08-09 08:37:47			0	38548	0	0	0	29693	28290	160636	26994	1070717	46134	111047	0	0	8140	519236	0	0
2024-08-09 08:38:47			0	38542	0	0	0	29690	28290	160684	26805	1070744	46134	111046	0	0	8139	519460	0	0
2024-08-09 08:39:47			0	38566	0	0	0	29701	28300	160576	26961	1070726	46123	111050	0	0	8141	518535	0	0
2024-08-09 08:40:47			0	38592	0	0	0	29688	28300	160556	26850	1070654	46124	111045	0	0	8142	517566	0	0
2024-08-09 08:41:47			0	38591	0	0	0	29690	28300	160464	26844	1070726	46123	111046	0	0	8142	517603	0	0
2024-08-09 08:42:47			0	38588	0	0	0	29698	28290	160432	26946	1070717	46112	111049	0	0	8142	517745	0	0
2024-08-09 08:43:47			0	38597	0	0	0	29709	28290	160564	26927	1070744	46112	111053	0	0	8142	517409	0	0
2024-08-09 08:44:47			0	38601	0	0	0	29696	28300	160504	26788	1070762	46113	111048	0	0	8143	517231	0	0
2024-08-09 08:45:47			0	38597	0	0	0	29703	28290	160512	26438	1070690	46123	111051	0	0	8142	517409	0	0
2024-08-09 08:46:47			0	38590	0	0	0	29698	28300	160532	26956	1070735	46113	111049	0	0	8142	517640	0	0
2024-08-09 08:47:47			0	38567	0	0	0	29703	28290	160540	27017	1070744	46100	111051	0	0	8141	518527	0	0
2024-08-09 08:48:47			0	38583	0	0	0	29701	28310	160544	27027	1070717	46114	111050	0	0	8142	517871	0	0
2024-08-09 08:49:47			0	38571	0	0	0	29706	28310	160572	26994	1070690	46114	111052	0	0	8141	518319	0	0
2024-08-09 08:50:47			0	38584	0	0	0	29703	28300	160552	27118	1070753	46112	111051	0	0	8142	517864	0	0
2024-08-09 08:51:47			0	38544	0	0	0	29709	28300	160596	26835	1070753	46123	111053	0	0	8139	519356	0	0
2024-08-09 08:52:47			0	38549	0	0	0	29696	28300	160760	26965	1070726	46123	111048	0	0	8140	519169	0	0
2024-08-09 08:53:47			0	38538	0	0	0	29706	28300	160760	26677	1070708	46113	111052	0	0	8139	519580	0	0
2024-08-09 08:54:47			0	38533	0	0	0	29703	28290	160788	27078	1070690	46112	111051	0	0	8139	519796	0	0
2024-08-09 08:55:47			0	38521	0	0	0	29706	28310	160880	27206	1070744	46114	111052	0	0	8138	520184	0	0
2024-08-09 08:56:47			0	38501	0	0	0	29711	28300	160888	27046	1070699	46112	111054	0	0	8137	520962	0	0
2024-08-09 08:57:47			0	38503	0	0	0	29706	28310	160924	26868	1070771	46114	111052	0	0	8137	520857	0	0
2024-08-09 08:58:47			0	38484	0	0	0	29709	28300	161080	26840	1070762	46124	111053	0	0	8136	521598	0	0
2024-08-09 08:59:47			0	38475	0	0	0	29711	28310	161008	26746	1070771	46102	111054	0	0	8135	521905	0	0
2024-08-09 09:00:47			0	38459	0	0	0	29709	28310	161048	26706	1070771	46102	111053	0	0	8134	522504	0	0
2024-08-09 09:01:47			0	38455	0	0	0	29714	28300	161012	26802	1070780	46123	111055	0	0	8134	522684	0	0
2024-08-09 09:02:47			0	38453	0	0	0	29714	28310	160940	27168	1070780	46136	111055	0	0	8134	522729	0	0
2024-08-09 09:03:47			0	38460	0	0	0	29711	28310	161036	27189	1070744	46114	111054	0	0	8134	522467	0	0
2024-08-09 09:04:47			0	38464	0	0	0	29711	28300	161088	27140	1070762	46101	111054	0	0	8135	522347	0	0
2024-08-09 09:05:47			0	38452	0	0	0	29709	28310	161016	27034	1070852	46125	111053	0	0	8134	522766	0	0
2024-08-09 09:06:47			0	38456	0	0	0	29706	28310	161000	26797	1070780	46125	111052	0	0	8134	522616	0	0
2024-08-09 09:07:47			0	38462	0	0	0	29706	28320	161068	27176	1070762	46136	111052	0	0	8135	522361	0	0
2024-08-09 09:08:47			0	38455	0	0	0	29719	28310	161012	26741	1070771	46114	111057	0	0	8134	522654	0	0
2024-08-09 09:09:47			0	38486	0	0	0	29719	28310	160952	26585	1070798	46125	111057	0	0	8136	521493	0	0
2024-08-09 09:10:47			0	38494	0	0	0	29714	28310	160948	26998	1070798	46125	111055	0	0	8136	521194	0	0
2024-08-09 09:11:47			0	38483	0	0	0	29722	28310	160832	27261	1070834	46102	111058	0	0	8136	521605	0	0
2024-08-09 09:12:47			0	38504	0	0	0	29714	28320	160832	27119	1070825	46115	111055	0	0	8137	520790	0	0
2024-08-09 09:13:47			0	38533	0	0	0	29711	28310	160752	26823	1070825	46125	111054	0	0	8139	519736	0	0
2024-08-09 09:14:47			0	38540	0	0	0	29714	28320	160644	26852	1070843	46114	111055	0	0	8139	519445	0	0
2024-08-09 09:15:47			0	38551	0	0	0	29727	28320	160656	26970	1070825	46137	111060	0	0	8139	519034	0	0
2024-08-09 09:16:47			0	38554	0	0	0	29716	28330	160648	26759	1070861	46126	111056	0	0	8140	518892	0	0
2024-08-09 09:17:47			0	38543	0	0	0	29729	28320	160616	27020	1070852	46125	111061	0	0	8139	519333	0	0
2024-08-09 09:18:47			0	38543	0	0	0	29722	28320	160508	26793	1070789	46136	111058	0	0	8139	519333	0	0
2024-08-09 09:19:47			0	38518	0	0	0	29724	28330	160660	26861	1070861	46149	111059	0	0	8138	520236	0	0
2024-08-09 09:20:47			0	38513	0	0	0	29732	28330	160696	27090	1070861	46126	111062	0	0	8137	520423	0	0
2024-08-09 09:21:47			0	38509	0	0	0	29724	28320	160744	26857	1070906	46137	111059	0	0	8137	520603	0	0
2024-08-09 09:22:47			0	38484	0	0	0	29735	28320	160960	26882	1070924	46125	111063	0	0	8135	521538	0	0
2024-08-09 09:23:47			0	38469	0	0	0	29735	28320	160900	26956	1070906	46125	111063	0	0	8135	522099	0	0
2024-08-09 09:24:47			0	38474	0	0	0	29748	28330	161048	26953	1070942	46126	111068	0	0	8135	521882	0	0
2024-08-09 09:25:47			0	38474	0	0	0	29737	28330	160844	27102	1070924	46138	111064	0	0	8135	521882	0	0
2024-08-09 09:26:47			0	38481	0	0	0	29745	28330	160868	26913	1070942	46126	111067	0	0	8135	521620	0	0
2024-08-09 09:27:47			0	38471	0	0	0	29737	28330	160844	27161	1070951	46126	111064	0	0	8135	521994	0	0
2024-08-09 09:28:47			0	38481	0	0	0	29745	28330	160804	27010	1070924	46116	111067	0	0	8135	521620	0	0
2024-08-09 09:29:47			0	38472	0	0	0	29745	28330	160872	26733	1070870	46126	111067	0	0	8135	521957	0	0
2024-08-09 09:30:47			0	38477	0	0	0	29740	28340	160848	26958	1070906	46116	111065	0	0	8135	521739	0	0
2024-08-09 09:31:47			0	38465	0	0	0	29742	28330	160788	27216	1070978	46116	111066	0	0	8134	522219	0	0
2024-08-09 09:32:47			0	38491	0	0	0	29745	28340	160768	27057	1070933	46116	111067	0	0	8136	521216	0	0
2024-08-09 09:33:47			0	38503	0	0	0	29742	28340	160776	26925	1070996	46127	111066	0	0	8137	520767	0	0
2024-08-09 09:34:47			0	38503	0	0	0	29737	28340	160740	27078	1070933	46126	111064	0	0	8137	520767	0	0
2024-08-09 09:35:47			0	38498	0	0	0	29753	28350	160684	26795	1070978	46118	111070	0	0	8136	520924	0	0
2024-08-09 09:36:47			0	38512	0	0	0	29753	28350	160600	26864	1071014	46118	111070	0	0	8137	520400	0	0
2024-08-09 09:37:47			0	38524	0	0	0	29755	28340	160664	27116	1070987	46149	111071	0	0	8138	519982	0	0
2024-08-09 09:38:47			0	38538	0	0	0	29742	28340	160572	26949	1070933	46126	111066	0	0	8139	519460	0	0
2024-08-09 09:39:47			0	38559	0	0	0	29740	28330	160512	27180	1070924	46116	111065	0	0	8140	518706	0	0
2024-08-09 09:40:47			0	38561	0	0	0	29724	28340	160516	26965	1070879	46104	111059	0	0	8140	518601	0	0
2024-08-09 09:41:47			0	38575	0	0	0	29701	28320	160540	26960	1070798	46082	111050	0	0	8141	518139	0	0
2024-08-09 09:42:47			0	38570	0	0	0	29703	28320	160424	26800	1070762	46114	111051	0	0	8141	518326	0	0
2024-08-09 09:43:47			0	38584	0	0	0	29701	28310	160612	27163	1070780	46102	111050	0	0	8142	517834	0	0
2024-08-09 09:44:47			0	38556	0	0	0	29696	28320	160632	26948	1070789	46114	111048	0	0	8140	518848	0	0
2024-08-09 09:45:47			0	38568	0	0	0	29696	28310	160464	26783	1070834	46102	111048	0	0	8141	518430	0	0
2024-08-09 09:46:47			0	38591	0	0	0	29701	28310	160396	27118	1070834	46125	111050	0	0	8142	517573	0	0
2024-08-09 09:47:47			0	38581	0	0	0	29698	28310	160404	27177	1070744	46125	111049	0	0	8142	517946	0	0
2024-08-09 09:48:47			0	38600	0	0	0	29701	28310	160316	26923	1070780	46136	111050	0	0	8143	517238	0	0
2024-08-09 09:49:47			0	38593	0	0	0	29703	28310	160364	27230	1070825	46125	111051	0	0	8142	517499	0	0
2024-08-09 09:50:47			0	38578	0	0	0	29703	28310	160344	26982	1070726	46114	111051	0	0	8141	518058	0	0
2024-08-09 09:51:47			0	38595	0	0	0	29698	28300	160276	27085	1070735	46113	111049	0	0	8142	517454	0	0
2024-08-09 09:52:47			0	38589	0	0	0	29698	28300	160404	26887	1070753	46112	111049	0	0	8142	517678	0	0
2024-08-09 09:53:47			0	38584	0	0	0	29690	28300	160340	27263	1070753	46112	111046	0	0	8142	517864	0	0
2024-08-09 09:54:47			0	38605	0	0	0	29690	28300	160492	27067	1070780	46112	111046	0	0	8143	517082	0	0
2024-08-09 09:55:47			0	38615	0	0	0	29696	28300	160396	27119	1070699	46112	111048	0	0	8144	516710	0	0
2024-08-09 09:56:47			0	38596	0	0	0	29693	28290	160380	27001	1070663	46112	111047	0	0	8142	517447	0	0
2024-08-09 09:57:47			0	38620	0	0	0	29698	28300	160344	27180	1070762	46113	111049	0	0	8144	516524	0	0
2024-08-09 09:58:47			0	38622	0	0	0	29703	28300	160356	27131	1070735	46113	111051	0	0	8144	516449	0	0
2024-08-09 09:59:47			0	38622	0	0	0	29698	28300	160328	27142	1070753	46123	111049	0	0	8144	516449	0	0
2024-08-09 10:00:47			0	38620	0	0	0	29706	28310	160316	27105	1070825	46114	111052	0	0	8144	516494	0	0
2024-08-09 10:01:47			0	38606	0	0	0	29709	28290	160356	27107	1070771	46134	111053	0	0	8143	517075	0	0
2024-08-09 10:02:47			0	38580	0	0	0	29706	28300	160400	27067	1070753	46123	111052	0	0	8141	518013	0	0
2024-08-09 10:03:47			0	38584	0	0	0	29706	28300	160452	27175	1070789	46124	111052	0	0	8142	517864	0	0
2024-08-09 10:04:47			0	38567	0	0	0	29706	28300	160480	27293	1070726	46123	111052	0	0	8141	518498	0	0
2024-08-09 10:05:47			0	38549	0	0	0	29706	28310	160596	27142	1070744	46125	111052	0	0	8140	519139	0	0
2024-08-09 10:06:47			0	38564	0	0	0	29714	28310	160556	26906	1070771	46136	111055	0	0	8140	518579	0	0
2024-08-09 10:07:47			0	38568	0	0	0	29711	28310	160588	26942	1070825	46114	111054	0	0	8141	518430	0	0
2024-08-09 10:08:47			0	38566	0	0	0	29722	28300	160592	27178	1070816	46135	111058	0	0	8140	518535	0	0
2024-08-09 10:09:47			0	38583	0	0	0	29727	28320	160456	26824	1070897	46147	111060	0	0	8141	517841	0	0
2024-08-09 10:10:47			0	38582	0	0	0	29742	28320	160380	27206	1070951	46147	111066	0	0	8141	517879	0	0
2024-08-09 10:11:47			0	38597	0	0	0	29748	28320	160476	26772	1070924	46125	111068	0	0	8142	517320	0	0
2024-08-09 10:12:47			0	38618	0	0	0	29763	28330	160428	27256	1070969	46138	111074	0	0	8143	516508	0	0
2024-08-09 10:13:47			0	38606	0	0	0	29758	28340	160380	26752	1070987	46149	111072	0	0	8142	516925	0	0
2024-08-09 10:14:47			0	38630	0	0	0	29771	28340	160304	27137	1070987	46116	111077	0	0	8143	516032	0	0
2024-08-09 10:15:47			0	38628	0	0	0	29774	28340	160352	26870	1071103	46127	111078	0	0	8143	516107	0	0
2024-08-09 10:16:47			0	38626	0	0	0	29771	28340	160304	26944	1071023	46139	111077	0	0	8143	516181	0	0
2024-08-09 10:17:47			0	38609	0	0	0	29774	28350	160232	27024	1071068	46151	111078	0	0	8142	516784	0	0
2024-08-09 10:18:47			0	38617	0	0	0	29779	28360	160360	27197	1071104	46128	111080	0	0	8143	516456	0	0
2024-08-09 10:19:47			0	38609	0	0	0	29771	28350	160328	26937	1071095	46128	111077	0	0	8142	516784	0	0
2024-08-09 10:20:47			0	38615	0	0	0	29779	28360	160380	27019	1071077	46128	111080	0	0	8142	516530	0	0
2024-08-09 10:21:47			0	38611	0	0	0	29784	28360	160276	26892	1071113	46141	111082	0	0	8142	516679	0	0
2024-08-09 10:22:47			0	38618	0	0	0	29771	28360	160376	27095	1071140	46141	111077	0	0	8143	516419	0	0
2024-08-09 10:23:47			0	38628	0	0	0	29789	28370	160340	26830	1071122	46142	111084	0	0	8143	516017	0	0
2024-08-09 10:24:47			0	38593	0	0	0	29786	28360	160412	26861	1071113	46141	111083	0	0	8141	517349	0	0
2024-08-09 10:25:47			0	38596	0	0	0	29789	28370	160356	26838	1071149	46130	111084	0	0	8141	517208	0	0
2024-08-09 10:26:47			0	38595	0	0	0	29781	28360	160524	26915	1071193	46141	111081	0	0	8141	517275	0	0
2024-08-09 10:27:47			0	38575	0	0	0	29781	28380	160508	27038	1071166	46143	111081	0	0	8140	517960	0	0
2024-08-09 10:28:47			0	38590	0	0	0	29784	28370	160448	27114	1071158	46131	111082	0	0	8141	517431	0	0
2024-08-09 10:29:47			0	38586	0	0	0	29786	28370	160488	27088	1071184	46143	111083	0	0	8141	517580	0	0
2024-08-09 10:30:47			0	38589	0	0	0	29794	28370	160432	26974	1071202	46130	111086	0	0	8141	517468	0	0
2024-08-09 10:31:47			0	38600	0	0	0	29799	28370	160340	26902	1071184	46131	111088	0	0	8141	517059	0	0
2024-08-09 10:32:47			0	38591	0	0	0	29797	28380	160408	27045	1071166	46131	111087	0	0	8141	517364	0	0
2024-08-09 10:33:47			0	38593	0	0	0	29807	28380	160324	27230	1071229	46131	111091	0	0	8141	517289	0	0
2024-08-09 10:34:47			0	38611	0	0	0	29799	28390	160304	26909	1071265	46132	111088	0	0	8142	516590	0	0
2024-08-09 10:35:47			0	38611	0	0	0	29805	28400	160228	26765	1071283	46133	111090	0	0	8142	516560	0	0
2024-08-09 10:36:47			0	38636	0	0	0	29810	28390	160264	26939	1071238	46132	111092	0	0	8143	515660	0	0
2024-08-09 10:37:47			0	38640	0	0	0	29807	28390	160124	26722	1071292	46132	111091	0	0	8143	515512	0	0
2024-08-09 10:38:47			0	38649	0	0	0	29810	28400	160128	26847	1071310	46133	111092	0	0	8144	515148	0	0
2024-08-09 10:39:47			0	38667	0	0	0	29815	28410	160052	27012	1071329	46146	111094	0	0	8145	514450	0	0
2024-08-09 10:40:47			0	38680	0	0	0	29815	28400	160032	27116	1071310	46133	111094	0	0	8146	513997	0	0
2024-08-09 10:41:47			0	38688	0	0	0	29823	28410	159988	26939	1071347	46156	111097	0	0	8146	513671	0	0
2024-08-09 10:42:47			0	38702	0	0	0	29825	28410	159944	26800	1071293	46145	111098	0	0	8147	513152	0	0
2024-08-09 10:43:47			0	38694	0	0	0	29825	28420	159868	26991	1071419	46135	111098	0	0	8146	513419	0	0
2024-08-09 10:44:47			0	38711	0	0	0	29838	28430	159848	27053	1071383	46135	111103	0	0	8147	512760	0	0
2024-08-09 10:45:47			0	38711	0	0	0	29836	28420	159964	26979	1071472	46147	111102	0	0	8147	512789	0	0
2024-08-09 10:46:47			0	38724	0	0	0	29846	28430	159921	26776	1071463	46135	111106	0	0	8148	512278	0	0
2024-08-09 10:47:47			0	38758	0	0	0	29846	28420	159721	27008	1071481	46147	111106	0	0	8150	511051	0	0
2024-08-09 10:48:47			0	38777	0	0	0	29838	28420	159641	26857	1071481	46135	111103	0	0	8151	510349	0	0
2024-08-09 10:49:47			0	38809	0	0	0	29846	28430	159421	27029	1071553	46136	111106	0	0	8153	509139	0	0
2024-08-09 10:50:47			0	38815	0	0	0	29851	28440	159409	27060	1071535	46137	111108	0	0	8153	508888	0	0
2024-08-09 10:51:47			0	38817	0	0	0	29854	28440	159389	26987	1071562	46137	111109	0	0	8153	508814	0	0
2024-08-09 10:52:47			0	38833	0	0	0	29857	28450	159329	26783	1071607	46150	111110	0	0	8154	508195	0	0
2024-08-09 10:53:47			0	38859	0	0	0	29859	28450	159385	26850	1071589	46161	111111	0	0	8155	507238	0	0
2024-08-09 10:54:47			0	38891	0	0	0	29872	28450	159245	26956	1071643	46150	111116	0	0	8157	506062	0	0
2024-08-09 10:55:47			0	38912	0	0	0	29875	28450	159109	26998	1071670	46150	111117	0	0	8158	505291	0	0
2024-08-09 10:56:47			0	38923	0	0	0	29880	28460	158969	27175	1071715	46140	111119	0	0	8159	504858	0	0
2024-08-09 10:57:47			0	38933	0	0	0	29901	28460	158973	27092	1071661	46163	111127	0	0	8159	504492	0	0
2024-08-09 10:58:47			0	38936	0	0	0	29896	28470	158885	26901	1071733	46151	111125	0	0	8159	504352	0	0
2024-08-09 10:59:47			0	38952	0	0	0	29901	28480	158821	26951	1071778	46165	111127	0	0	8160	503737	0	0
2024-08-09 11:00:47			0	38951	0	0	0	29911	28480	158897	26934	1071850	46152	111131	0	0	8160	503774	0	0
2024-08-09 11:01:47			0	38940	0	0	0	29924	28500	158825	27003	1071913	46143	111136	0	0	8159	504118	0	0
2024-08-09 11:02:47			0	38971	0	0	0	29919	28490	158849	26809	1071895	46142	111134	0	0	8161	503012	0	0
2024-08-09 11:03:47			0	38980	0	0	0	29929	28490	158809	26833	1071922	46165	111138	0	0	8161	502683	0	0
2024-08-09 11:04:47			0	38984	0	0	0	29927	28510	158725	26974	1072012	46156	111137	0	0	8162	502478	0	0
2024-08-09 11:05:47			0	38979	0	0	0	29927	28510	158725	26458	1071940	46145	111137	0	0	8161	502661	0	0
2024-08-09 11:06:47			0	38993	0	0	0	29927	28510	158649	27010	1071913	46156	111137	0	0	8162	502149	0	0
2024-08-09 11:07:47			0	39017	0	0	0	29937	28510	158717	26946	1071994	46145	111141	0	0	8163	501272	0	0
2024-08-09 11:08:47			0	39022	0	0	0	29929	28510	158585	27227	1071994	46134	111138	0	0	8164	501090	0	0
2024-08-09 11:09:47			0	39028	0	0	0	29940	28520	158601	27118	1072057	46145	111142	0	0	8164	500842	0	0
2024-08-09 11:10:47			0	39032	0	0	0	29927	28520	158489	26920	1071895	46134	111137	0	0	8164	500696	0	0
2024-08-09 11:11:47			0	39010	0	0	0	29924	28510	158461	26859	1071913	46134	111136	0	0	8163	501528	0	0
2024-08-09 11:12:47			0	39009	0	0	0	29901	28510	158605	27098	1071769	46134	111127	0	0	8163	501565	0	0
2024-08-09 11:13:47			0	38989	0	0	0	29901	28510	158637	27203	1071823	46145	111127	0	0	8162	502296	0	0
2024-08-09 11:14:47			0	38955	0	0	0	29898	28500	158845	26762	1071868	46155	111126	0	0	8160	503569	0	0
2024-08-09 11:15:47			0	38905	0	0	0	29903	28500	158933	27048	1071868	46144	111128	0	0	8157	505402	0	0
2024-08-09 11:16:47			0	38849	0	0	0	29914	28500	159177	27090	1071895	46133	111132	0	0	8154	507460	0	0
2024-08-09 11:17:47			0	38819	0	0	0	29919	28510	159309	27001	1071967	46145	111134	0	0	8152	508535	0	0
2024-08-09 11:18:47			0	38798	0	0	0	29916	28500	159421	26778	1071859	46154	111133	0	0	8151	509338	0	0
2024-08-09 11:19:47			0	38791	0	0	0	29929	28520	159365	26965	1071958	46146	111138	0	0	8151	509537	0	0
2024-08-09 11:20:47			0	38788	0	0	0	29927	28520	159417	26844	1071922	46134	111137	0	0	8150	509648	0	0
2024-08-09 11:21:47			0	38801	0	0	0	29919	28500	159341	26956	1071922	46133	111134	0	0	8151	509227	0	0
2024-08-09 11:22:47			0	38802	0	0	0	29922	28510	159405	27102	1071931	46134	111135	0	0	8151	509161	0	0
2024-08-09 11:23:47			0	38797	0	0	0	29916	28500	159417	26956	1071841	46144	111133	0	0	8151	509375	0	0
2024-08-09 11:24:47			0	38795	0	0	0	29911	28510	159401	27071	1071877	46145	111131	0	0	8151	509419	0	0
2024-08-09 11:25:47			0	38788	0	0	0	29916	28510	159385	26876	1071859	46156	111133	0	0	8151	509677	0	0
2024-08-09 11:26:47			0	38787	0	0	0	29906	28490	159521	26687	1071742	46142	111129	0	0	8151	509773	0	0
2024-08-09 11:27:47			0	38777	0	0	0	29896	28500	159521	26928	1071751	46132	111125	0	0	8150	510113	0	0
2024-08-09 11:28:47			0	38757	0	0	0	29888	28490	159617	27213	1071742	46131	111122	0	0	8149	510881	0	0
2024-08-09 11:29:47			0	38728	0	0	0	29870	28490	159757	26916	1071679	46131	111115	0	0	8148	511953	0	0
2024-08-09 11:30:47			0	38708	0	0	0	29877	28490	159776	26972	1071706	46142	111118	0	0	8147	512693	0	0
2024-08-09 11:31:47			0	38702	0	0	0	29872	28480	159912	26927	1071751	46131	111116	0	0	8146	512944	0	0
2024-08-09 11:32:47			0	38702	0	0	0	29870	28470	159872	26828	1071652	46140	111115	0	0	8146	512974	0	0
2024-08-09 11:33:47			0	38696	0	0	0	29877	28480	159892	27085	1071670	46131	111118	0	0	8146	513167	0	0
2024-08-09 11:34:47			0	38702	0	0	0	29875	28480	159900	26948	1071616	46142	111117	0	0	8146	512944	0	0
2024-08-09 11:35:47			0	38727	0	0	0	29877	28470	159781	26701	1071670	46129	111118	0	0	8148	512049	0	0
2024-08-09 11:36:47			0	38757	0	0	0	29870	28480	159677	26880	1071607	46141	111115	0	0	8149	510910	0	0
2024-08-09 11:37:47			0	38767	0	0	0	29872	28470	159681	26871	1071706	46129	111116	0	0	8150	510570	0	0
2024-08-09 11:38:47			0	38775	0	0	0	29883	28470	159597	27003	1071724	46140	111120	0	0	8150	510275	0	0
2024-08-09 11:39:47			0	38781	0	0	0	29872	28470	159509	26856	1071787	46151	111116	0	0	8151	510054	0	0
2024-08-09 11:40:47			0	38802	0	0	0	29885	28470	159365	26916	1071706	46140	111121	0	0	8152	509279	0	0
2024-08-09 11:41:47			0	38807	0	0	0	29885	28480	159321	26842	1071778	46142	111121	0	0	8152	509065	0	0
2024-08-09 11:42:47			0	38837	0	0	0	29890	28470	159209	26981	1071733	46163	111123	0	0	8154	507989	0	0
2024-08-09 11:43:47			0	38862	0	0	0	29901	28480	159101	26915	1071778	46142	111127	0	0	8155	507040	0	0
2024-08-09 11:44:47			0	38878	0	0	0	29898	28490	159041	26982	1071787	46142	111126	0	0	8156	506423	0	0
2024-08-09 11:45:47			0	38888	0	0	0	29903	28490	158925	27057	1071850	46142	111128	0	0	8156	506055	0	0
2024-08-09 11:46:47			0	38946	0	0	0	29909	28480	158797	27213	1071832	46131	111130	0	0	8160	503957	0	0
2024-08-09 11:47:47			0	38950	0	0	0	29903	28500	158753	27308	1071859	46154	111128	0	0	8160	503752	0	0
2024-08-09 11:48:47			0	38986	0	0	0	29909	28500	158669	27324	1071859	46143	111130	0	0	8162	502434	0	0
2024-08-09 11:49:47			0	39004	0	0	0	29906	28490	158517	27133	1071796	46142	111129	0	0	8163	501805	0	0
2024-08-09 11:50:47			0	38996	0	0	0	29911	28500	158505	26823	1071859	46154	111131	0	0	8162	502069	0	0
2024-08-09 11:51:47			0	39003	0	0	0	29911	28500	158593	27050	1071949	46133	111131	0	0	8163	501813	0	0
2024-08-09 11:52:47			0	38962	0	0	0	29919	28490	158661	26948	1071931	46142	111134	0	0	8160	503342	0	0
2024-08-09 11:53:47			0	38931	0	0	0	29924	28510	158837	27010	1071994	46156	111136	0	0	8159	504419	0	0
2024-08-09 11:54:47			0	38916	0	0	0	29935	28500	158985	26835	1072030	46155	111140	0	0	8158	504998	0	0
2024-08-09 11:55:47			0	38858	0	0	0	29937	28510	159093	26977	1071958	46156	111141	0	0	8154	507099	0	0
2024-08-09 11:56:47			0	38829	0	0	0	29948	28510	159277	26942	1072075	46156	111145	0	0	8152	508166	0	0
2024-08-09 11:57:47			0	38798	0	0	0	29953	28530	159513	26956	1072030	46147	111147	0	0	8151	509250	0	0
2024-08-09 11:58:47			0	38766	0	0	0	29958	28520	159509	26870	1072093	46168	111149	0	0	8149	510460	0	0
2024-08-09 11:59:47			0	38740	0	0	0	29961	28520	159645	26878	1072093	46157	111150	0	0	8147	511420	0	0
2024-08-09 12:00:47			0	38698	0	0	0	29976	28530	159784	26871	1072246	46169	111156	0	0	8145	512944	0	0
2024-08-09 12:01:47			0	38672	0	0	0	29994	28550	159836	27177	1072336	46171	111163	0	0	8143	513848	0	0
2024-08-09 12:02:47			0	38642	0	0	0	29999	28560	159996	26942	1072345	46182	111165	0	0	8141	514931	0	0
2024-08-09 12:03:47			0	38617	0	0	0	30018	28570	160112	26637	1072426	46184	111172	0	0	8139	515829	0	0
2024-08-09 12:04:47			0	38615	0	0	0	30018	28570	160120	27150	1072345	46162	111172	0	0	8139	515903	0	0
2024-08-09 12:05:47			0	38597	0	0	0	30012	28570	160128	26771	1072282	46162	111170	0	0	8138	516572	0	0
2024-08-09 12:06:47			0	38569	0	0	0	29997	28570	160184	26897	1072255	46151	111164	0	0	8137	517614	0	0
2024-08-09 12:07:47			0	38564	0	0	0	29986	28570	160248	26972	1072201	46151	111160	0	0	8137	517800	0	0
2024-08-09 12:08:47			0	38554	0	0	0	29994	28570	160320	26875	1072228	46140	111163	0	0	8136	518173	0	0
2024-08-09 12:09:47			0	38543	0	0	0	29989	28560	160300	26840	1072327	46139	111161	0	0	8136	518613	0	0
2024-08-09 12:10:47			0	38543	0	0	0	29997	28560	160368	27190	1072300	46161	111164	0	0	8136	518613	0	0
2024-08-09 12:11:47			0	38537	0	0	0	29999	28570	160412	27130	1072282	46162	111165	0	0	8135	518806	0	0
2024-08-09 12:12:47			0	38522	0	0	0	29997	28570	160396	27177	1072345	46162	111164	0	0	8134	519366	0	0
2024-08-09 12:13:47			0	38527	0	0	0	29997	28570	160396	27038	1072318	46151	111164	0	0	8135	519179	0	0
2024-08-09 12:14:47			0	38522	0	0	0	29992	28580	160472	26765	1072327	46152	111162	0	0	8134	519336	0	0
2024-08-09 12:15:47			0	38512	0	0	0	29989	28570	160384	26953	1072264	46162	111161	0	0	8134	519739	0	0
2024-08-09 12:16:47			0	38499	0	0	0	29989	28570	160524	26864	1072318	46151	111161	0	0	8133	520224	0	0
2024-08-09 12:17:47			0	38495	0	0	0	29984	28560	160556	27041	1072300	46161	111159	0	0	8133	520404	0	0
2024-08-09 12:18:47			0	38481	0	0	0	29989	28570	160528	26663	1072345	46173	111161	0	0	8132	520897	0	0
2024-08-09 12:19:47			0	38480	0	0	0	30002	28570	160596	27398	1072372	46173	111166	0	0	8132	520934	0	0
2024-08-09 12:20:47			0	38469	0	0	0	30002	28570	160548	26762	1072345	46151	111166	0	0	8131	521345	0	0
2024-08-09 12:21:47			0	38482	0	0	0	30007	28580	160440	27142	1072444	46174	111168	0	0	8132	520829	0	0
2024-08-09 12:22:47			0	38503	0	0	0	30010	28590	160424	26994	1072426	46164	111169	0	0	8133	520015	0	0
2024-08-09 12:23:47			0	38540	0	0	0	30015	28590	160336	27157	1072354	46165	111171	0	0	8135	518634	0	0
2024-08-09 12:24:47			0	38555	0	0	0	30028	28600	160124	27244	1072525	46154	111176	0	0	8136	518046	0	0
2024-08-09 12:25:47			0	38570	0	0	0	30038	28600	160204	27211	1072561	46176	111180	0	0	8137	517487	0	0
2024-08-09 12:26:47			0	38593	0	0	0	30033	28600	160148	27013	1072507	46165	111178	0	0	8138	516632	0	0
2024-08-09 12:27:47			0	38589	0	0	0	30046	28610	160200	27033	1072552	46166	111183	0	0	8138	516750	0	0
2024-08-09 12:28:47			0	38602	0	0	0	30049	28620	160048	26844	1072561	46166	111184	0	0	8138	516237	0	0
2024-08-09 12:29:47			0	38608	0	0	0	30059	28620	160124	26804	1072588	46178	111188	0	0	8138	516014	0	0
2024-08-09 12:30:47			0	38619	0	0	0	30054	28630	160068	26864	1072660	46157	111186	0	0	8139	515576	0	0
2024-08-09 12:31:47			0	38600	0	0	0	30057	28620	160032	27033	1072570	46156	111187	0	0	8138	516312	0	0
2024-08-09 12:32:47			0	38623	0	0	0	30054	28630	159944	27289	1072696	46168	111186	0	0	8139	515427	0	0
2024-08-09 12:33:47			0	38628	0	0	0	30059	28640	159900	27045	1072732	46168	111188	0	0	8140	515212	0	0
2024-08-09 12:34:47			0	38632	0	0	0	30080	28650	159860	27100	1072759	46160	111196	0	0	8140	515034	0	0
2024-08-09 12:35:47			0	38672	0	0	0	30096	28650	159932	26960	1072813	46170	111202	0	0	8142	513551	0	0
2024-08-09 12:36:47			0	38672	0	0	0	30098	28670	159844	27041	1072786	46183	111203	0	0	8142	513491	0	0
2024-08-09 12:37:47			0	38670	0	0	0	30106	28660	159760	27052	1072804	46171	111206	0	0	8141	513595	0	0
2024-08-09 12:38:47			0	38688	0	0	0	30116	28680	159820	26776	1072903	46184	111210	0	0	8142	512869	0	0
2024-08-09 12:39:47			0	38682	0	0	0	30124	28680	159612	27203	1072930	46172	111213	0	0	8142	513091	0	0
2024-08-09 12:40:47			0	38707	0	0	0	30129	28700	159656	27166	1073047	46186	111215	0	0	8143	512107	0	0
2024-08-09 12:41:47			0	38702	0	0	0	30135	28700	159744	27088	1073020	46164	111217	0	0	8143	512292	0	0
2024-08-09 12:42:47			0	38719	0	0	0	30145	28710	159637	26620	1073119	46187	111221	0	0	8144	511634	0	0
2024-08-09 12:43:47			0	38737	0	0	0	30150	28720	159513	26837	1073056	46154	111223	0	0	8145	510939	0	0
2024-08-09 12:44:47			0	38720	0	0	0	30153	28710	159508	26991	1073101	46199	111224	0	0	8144	511597	0	0
2024-08-09 12:45:47			0	38720	0	0	0	30158	28720	159500	27026	1073173	46177	111226	0	0	8144	511567	0	0
2024-08-09 12:46:47			0	38708	0	0	0	30161	28730	159704	26930	1073182	46177	111227	0	0	8143	511981	0	0
2024-08-09 12:47:47			0	38701	0	0	0	30171	28740	159748	26670	1073227	46190	111231	0	0	8142	512210	0	0
2024-08-09 12:48:47			0	38691	0	0	0	30161	28730	159656	27050	1073164	46167	111227	0	0	8142	512610	0	0
2024-08-09 12:49:47			0	38671	0	0	0	30153	28730	159672	26970	1073128	46177	111224	0	0	8141	513350	0	0
2024-08-09 12:50:47			0	38685	0	0	0	30150	28740	159564	26791	1073200	46156	111223	0	0	8142	512802	0	0
2024-08-09 12:51:47			0	38703	0	0	0	30142	28730	159604	26811	1073137	46167	111220	0	0	8143	512166	0	0
2024-08-09 12:52:47			0	38707	0	0	0	30142	28740	159520	27138	1073173	46178	111220	0	0	8143	511988	0	0
2024-08-09 12:53:47			0	38685	0	0	0	30161	28730	159684	26783	1073218	46178	111227	0	0	8142	512832	0	0
2024-08-09 12:54:47			0	38698	0	0	0	30158	28740	159600	26982	1073236	46191	111226	0	0	8142	512321	0	0
2024-08-09 12:55:47			0	38692	0	0	0	30166	28750	159572	26844	1073227	46180	111229	0	0	8142	512513	0	0
2024-08-09 12:56:47			0	38694	0	0	0	30168	28740	159688	26830	1073263	46179	111230	0	0	8142	512469	0	0
2024-08-09 12:57:47			0	38707	0	0	0	30166	28750	159568	26644	1073245	46179	111229	0	0	8143	511959	0	0
2024-08-09 12:58:47			0	38718	0	0	0	30163	28750	159504	26599	1073272	46168	111228	0	0	8144	511552	0	0
2024-08-09 12:59:47			0	38730	0	0	0	30166	28750	159548	26658	1073173	46169	111229	0	0	8144	511109	0	0
2024-08-09 13:00:47			0	38729	0	0	0	30148	28750	159429	26776	1073164	46168	111222	0	0	8144	511146	0	0
2024-08-09 13:01:47			0	38727	0	0	0	30145	28750	159492	26578	1073191	46157	111221	0	0	8144	511220	0	0
2024-08-09 13:02:47			0	38722	0	0	0	30137	28750	159492	27007	1073218	46179	111218	0	0	8144	511404	0	0
2024-08-09 13:03:47			0	38718	0	0	0	30135	28740	159600	26935	1073182	46168	111217	0	0	8144	511582	0	0
2024-08-09 13:04:47			0	38725	0	0	0	30142	28740	159453	26613	1073155	46157	111220	0	0	8144	511323	0	0
2024-08-09 13:05:47			0	38720	0	0	0	30142	28740	159457	27043	1073182	46168	111220	0	0	8144	511508	0	0
2024-08-09 13:06:47			0	38705	0	0	0	30153	28750	159504	26948	1073326	46191	111224	0	0	8143	512032	0	0
2024-08-09 13:07:47			0	38734	0	0	0	30171	28750	159464	27177	1073254	46180	111231	0	0	8144	510961	0	0
2024-08-09 13:08:47			0	38726	0	0	0	30176	28760	159352	26923	1073317	46170	111233	0	0	8144	511227	0	0
2024-08-09 13:09:47			0	38766	0	0	0	30181	28770	159269	27012	1073362	46181	111235	0	0	8146	509721	0	0
2024-08-09 13:10:47			0	38783	0	0	0	30199	28770	159237	27137	1073452	46194	111242	0	0	8147	509095	0	0
2024-08-09 13:11:47			0	38803	0	0	0	30205	28780	159149	26804	1073515	46195	111244	0	0	8148	508329	0	0
2024-08-09 13:12:47			0	38813	0	0	0	30210	28780	158993	26774	1073497	46183	111246	0	0	8148	507961	0	0
2024-08-09 13:13:47			0	38838	0	0	0	30218	28800	158973	27102	1073578	46185	111249	0	0	8150	506983	0	0
2024-08-09 13:14:47			0	38841	0	0	0	30225	28800	158977	26987	1073632	46185	111252	0	0	8150	506873	0	0
2024-08-09 13:15:47			0	38847	0	0	0	30238	28800	158981	27137	1073560	46174	111257	0	0	8150	506652	0	0
2024-08-09 13:16:47			0	38852	0	0	0	30236	28810	158933	26835	1073605	46186	111256	0	0	8150	506439	0	0
2024-08-09 13:17:47			0	38844	0	0	0	30236	28820	158957	26989	1073614	46187	111256	0	0	8150	506704	0	0
2024-08-09 13:18:47			0	38828	0	0	0	30244	28820	159113	26909	1073614	46187	111259	0	0	8149	507292	0	0
2024-08-09 13:19:47			0	38799	0	0	0	30241	28820	159197	27076	1073677	46188	111258	0	0	8147	508358	0	0
2024-08-09 13:20:47			0	38798	0	0	0	30251	28830	159201	27036	1073722	46188	111262	0	0	8147	508366	0	0
2024-08-09 13:21:47			0	38791	0	0	0	30262	28830	159269	26759	1073776	46188	111266	0	0	8146	508623	0	0
2024-08-09 13:22:47			0	38778	0	0	0	30254	28830	159209	27088	1073776	46200	111263	0	0	8146	509102	0	0
2024-08-09 13:23:47			0	38767	0	0	0	30270	28840	159293	26987	1073812	46189	111269	0	0	8145	509478	0	0
2024-08-09 13:24:47			0	38778	0	0	0	30280	28850	159153	27072	1073920	46202	111273	0	0	8145	509043	0	0
2024-08-09 13:25:47			0	38819	0	0	0	30296	28860	159045	26948	1073983	46203	111279	0	0	8148	507505	0	0
2024-08-09 13:26:47			0	38837	0	0	0	30303	28860	159017	27038	1074037	46203	111282	0	0	8148	506843	0	0
2024-08-09 13:27:47			0	38844	0	0	0	30316	28870	158965	27008	1074091	46205	111287	0	0	8149	506557	0	0
2024-08-09 13:28:47			0	38849	0	0	0	30332	28870	158825	26668	1074145	46182	111293	0	0	8149	506374	0	0
2024-08-09 13:29:47			0	38850	0	0	0	30332	28890	158853	26746	1074173	46195	111293	0	0	8149	506278	0	0
2024-08-09 13:30:47			0	38841	0	0	0	30319	28890	158917	27225	1074128	46195	111288	0	0	8149	506608	0	0
2024-08-09 13:31:47			0	38859	0	0	0	30306	28890	158789	26868	1074128	46184	111283	0	0	8150	505948	0	0
2024-08-09 13:32:47			0	38863	0	0	0	30301	28890	158761	26955	1074128	46184	111281	0	0	8150	505801	0	0
2024-08-09 13:33:47			0	38854	0	0	0	30288	28890	158809	27092	1074011	46184	111276	0	0	8150	506131	0	0
2024-08-09 13:34:47			0	38878	0	0	0	30283	28890	158909	26883	1073957	46184	111274	0	0	8151	505251	0	0
2024-08-09 13:35:47			0	38861	0	0	0	30270	28880	158865	27189	1073921	46161	111269	0	0	8150	505904	0	0
2024-08-09 13:36:47			0	38867	0	0	0	30254	28870	158797	27154	1073876	46160	111263	0	0	8151	505713	0	0
2024-08-09 13:37:47			0	38873	0	0	0	30254	28870	158933	26779	1073903	46182	111263	0	0	8151	505493	0	0
2024-08-09 13:38:47			0	38853	0	0	0	30267	28880	158753	27104	1073912	46193	111268	0	0	8150	506197	0	0
2024-08-09 13:39:47			0	38877	0	0	0	30285	28880	158737	26743	1073993	46193	111275	0	0	8151	505317	0	0
2024-08-09 13:40:47			0	38897	0	0	0	30285	28890	158725	27057	1074146	46206	111275	0	0	8152	504555	0	0
2024-08-09 13:41:47			0	38902	0	0	0	30303	28890	158641	26821	1074119	46195	111282	0	0	8152	504372	0	0
2024-08-09 13:42:47			0	38927	0	0	0	30298	28890	158665	26722	1074128	46206	111280	0	0	8154	503457	0	0
2024-08-09 13:43:47			0	38914	0	0	0	30303	28900	158657	26559	1074164	46184	111282	0	0	8153	503903	0	0
2024-08-09 13:44:47			0	38941	0	0	0	30309	28890	158561	26750	1074146	46195	111284	0	0	8154	502944	0	0
2024-08-09 13:45:47			0	38937	0	0	0	30322	28900	158577	27078	1074200	46196	111289	0	0	8154	503062	0	0
2024-08-09 13:46:47			0	38928	0	0	0	30342	28900	158661	26774	1074299	46184	111297	0	0	8153	503391	0	0
2024-08-09 13:47:47			0	38923	0	0	0	30353	28910	158481	27121	1074263	46197	111301	0	0	8153	503544	0	0
2024-08-09 13:48:47			0	38957	0	0	0	30358	28920	158469	27050	1074371	46198	111303	0	0	8155	502272	0	0
2024-08-09 13:49:47			0	38930	0	0	0	30371	28920	158561	26932	1074263	46198	111308	0	0	8153	503259	0	0
2024-08-09 13:50:47			0	38945	0	0	0	30373	28930	158573	26823	1074362	46199	111309	0	0	8154	502682	0	0
2024-08-09 13:51:47			0	38927	0	0	0	30361	28930	158421	26764	1074380	46199	111304	0	0	8153	503340	0	0
2024-08-09 13:52:47			0	38969	0	0	0	30373	28950	158397	26661	1074443	46201	111309	0	0	8155	501747	0	0
2024-08-09 13:53:47			0	38961	0	0	0	30366	28950	158393	26953	1074425	46202	111306	0	0	8155	502039	0	0
2024-08-09 13:54:47			0	38976	0	0	0	30368	28950	158457	26922	1074398	46213	111307	0	0	8156	501491	0	0
2024-08-09 13:55:47			0	38983	0	0	0	30368	28950	158409	26717	1074398	46191	111307	0	0	8156	501236	0	0
2024-08-09 13:56:47			0	38980	0	0	0	30363	28960	158505	26923	1074380	46202	111305	0	0	8156	501316	0	0
2024-08-09 13:57:47			0	38980	0	0	0	30368	28970	158337	26951	1074470	46191	111307	0	0	8156	501287	0	0
2024-08-09 13:58:47			0	38997	0	0	0	30376	28970	158285	26713	1074470	46191	111310	0	0	8157	500667	0	0
2024-08-09 13:59:47			0	38956	0	0	0	30392	28970	158329	27060	1074533	46192	111316	0	0	8154	502163	0	0
2024-08-09 14:00:47			0	38972	0	0	0	30368	28970	158369	26757	1074506	46180	111307	0	0	8156	501579	0	0
2024-08-09 14:01:47			0	38990	0	0	0	30376	28980	158297	26982	1074542	46193	111310	0	0	8156	500893	0	0
2024-08-09 14:02:47			0	39003	0	0	0	30379	28990	158213	26717	1074587	46204	111311	0	0	8157	500390	0	0
2024-08-09 14:03:47			0	39010	0	0	0	30394	28990	158141	26987	1074668	46204	111317	0	0	8157	500135	0	0
2024-08-09 14:04:47			0	39046	0	0	0	30423	29000	158041	26682	1074749	46216	111328	0	0	8159	498796	0	0
2024-08-09 14:05:47			0	39053	0	0	0	30441	29010	158033	27071	1074785	46216	111335	0	0	8159	498512	0	0
2024-08-09 14:06:47			0	39081	0	0	0	30449	29020	157913	26902	1074722	46218	111338	0	0	8161	497466	0	0
2024-08-09 14:07:47			0	39074	0	0	0	30446	29020	157953	26958	1074839	46208	111337	0	0	8160	497720	0	0
2024-08-09 14:08:47			0	39078	0	0	0	30449	29020	157913	26850	1074812	46208	111338	0	0	8160	497575	0	0
2024-08-09 14:09:47			0	39075	0	0	0	30444	29030	157837	26923	1074795	46198	111336	0	0	8160	497655	0	0
2024-08-09 14:10:47			0	39081	0	0	0	30433	29030	157897	26830	1074858	46198	111332	0	0	8161	497437	0	0
2024-08-09 14:11:47			0	39053	0	0	0	30438	29030	157949	26902	1074795	46198	111334	0	0	8159	498454	0	0
2024-08-09 14:12:47			0	39055	0	0	0	30423	29030	157997	27215	1074768	46186	111328	0	0	8160	498382	0	0
2024-08-09 14:13:47			0	39056	0	0	0	30412	29020	158081	27039	1074722	46197	111324	0	0	8160	498374	0	0
2024-08-09 14:14:47			0	39036	0	0	0	30399	29030	158017	26982	1074633	46198	111319	0	0	8159	499073	0	0
2024-08-09 14:15:47			0	39035	0	0	0	30410	29020	158053	26791	1074722	46197	111323	0	0	8159	499138	0	0
2024-08-09 14:16:47			0	39036	0	0	0	30397	29020	158069	26901	1074722	46185	111318	0	0	8159	499102	0	0
2024-08-09 14:17:47			0	39023	0	0	0	30389	29020	158133	26975	1074587	46185	111315	0	0	8158	499575	0	0
2024-08-09 14:18:47			0	39040	0	0	0	30376	29010	158049	27034	1074704	46183	111310	0	0	8159	498985	0	0
2024-08-09 14:19:47			0	39046	0	0	0	30384	29020	157969	27026	1074695	46197	111313	0	0	8160	498738	0	0
2024-08-09 14:20:47			0	39061	0	0	0	30389	29030	158025	26630	1074750	46198	111315	0	0	8160	498164	0	0
2024-08-09 14:21:47			0	39057	0	0	0	30381	29020	157881	26885	1074623	46198	111312	0	0	8160	498338	0	0
2024-08-09 14:22:47			0	39053	0	0	0	30371	29020	157861	27066	1074704	46186	111308	0	0	8160	498483	0	0
2024-08-09 14:23:47			0	39038	0	0	0	30376	29010	157901	26987	1074686	46196	111310	0	0	8159	499058	0	0
2024-08-09 14:24:47			0	39016	0	0	0	30376	29020	158101	27086	1074668	46197	111310	0	0	8158	499830	0	0
2024-08-09 14:25:47			0	39039	0	0	0	30376	29020	158041	27050	1074722	46197	111310	0	0	8159	498993	0	0
2024-08-09 14:26:47			0	39046	0	0	0	30402	29020	158153	26870	1074803	46208	111320	0	0	8159	498738	0	0
2024-08-09 14:27:47			0	39017	0	0	0	30410	29040	157965	27118	1074813	46199	111323	0	0	8158	499735	0	0
2024-08-09 14:28:47			0	39040	0	0	0	30418	29030	157917	27275	1074714	46198	111326	0	0	8159	498927	0	0
2024-08-09 14:29:47			0	39064	0	0	0	30407	29040	157805	27022	1074813	46187	111322	0	0	8160	498026	0	0
2024-08-09 14:30:47			0	39076	0	0	0	30402	29020	157721	26972	1074731	46186	111320	0	0	8161	497648	0	0
2024-08-09 14:31:47			0	39115	0	0	0	30389	29020	157761	27039	1074677	46186	111315	0	0	8164	496232	0	0
2024-08-09 14:32:47			0	39129	0	0	0	30397	29020	157701	27092	1074722	46197	111318	0	0	8164	495725	0	0
2024-08-09 14:33:47			0	39124	0	0	0	30399	29020	157601	27157	1074776	46208	111319	0	0	8164	495906	0	0
2024-08-09 14:34:47			0	39125	0	0	0	30405	29030	157641	26628	1074777	46208	111321	0	0	8164	495841	0	0
2024-08-09 14:35:47			0	39110	0	0	0	30402	29030	157621	27232	1074804	46208	111320	0	0	8163	496385	0	0
2024-08-09 14:36:47			0	39115	0	0	0	30412	29040	157733	26913	1074894	46199	111324	0	0	8163	496175	0	0
2024-08-09 14:37:47			0	39109	0	0	0	30436	29040	157665	27140	1074876	46188	111333	0	0	8162	496392	0	0
2024-08-09 14:38:47			0	39098	0	0	0	30425	29040	157657	26965	1074894	46187	111329	0	0	8162	496791	0	0
2024-08-09 14:39:47			0	39098	0	0	0	30431	29040	157749	27275	1074876	46188	111331	0	0	8162	496791	0	0
2024-08-09 14:40:47			0	39073	0	0	0	30428	29040	157753	27048	1074867	46199	111330	0	0	8161	497699	0	0
2024-08-09 14:41:47			0	39051	0	0	0	30431	29050	157813	27036	1074858	46200	111331	0	0	8159	498469	0	0
2024-08-09 14:42:47			0	39060	0	0	0	30431	29050	157853	27241	1074975	46200	111331	0	0	8160	498142	0	0
2024-08-09 14:43:47			0	39043	0	0	0	30433	29050	157857	26852	1074993	46210	111332	0	0	8159	498760	0	0
2024-08-09 14:44:47			0	39044	0	0	0	30436	29050	157945	26916	1074975	46200	111333	0	0	8159	498724	0	0
2024-08-09 14:45:47			0	39051	0	0	0	30441	29050	157849	27008	1074885	46177	111335	0	0	8159	498469	0	0
2024-08-09 14:46:47			0	39054	0	0	0	30431	29060	157901	27157	1074903	46201	111331	0	0	8160	498331	0	0
2024-08-09 14:47:47			0	39057	0	0	0	30428	29050	157945	27093	1074831	46188	111330	0	0	8160	498251	0	0
2024-08-09 14:48:47			0	39083	0	0	0	30420	29040	157957	27029	1074849	46188	111327	0	0	8161	497336	0	0
2024-08-09 14:49:47			0	39063	0	0	0	30423	29050	157909	27022	1074858	46200	111328	0	0	8160	498033	0	0
2024-08-09 14:50:47			0	39063	0	0	0	30431	29040	157801	27057	1074822	46200	111331	0	0	8160	498062	0	0
2024-08-09 14:51:47			0	39072	0	0	0	30423	29040	157805	27052	1074795	46200	111328	0	0	8161	497735	0	0
2024-08-09 14:52:47			0	39072	0	0	0	30412	29050	157817	26719	1074939	46188	111324	0	0	8161	497706	0	0
2024-08-09 14:53:47			0	39067	0	0	0	30425	29050	157761	27005	1074831	46210	111329	0	0	8160	497888	0	0
2024-08-09 14:54:47			0	39073	0	0	0	30418	29050	157873	27185	1074858	46200	111326	0	0	8161	497670	0	0
2024-08-09 14:55:47			0	39073	0	0	0	30428	29050	157869	26967	1074921	46188	111330	0	0	8161	497670	0	0
2024-08-09 14:56:47			0	39064	0	0	0	30428	29050	157797	27202	1075029	46200	111330	0	0	8160	497997	0	0
2024-08-09 14:57:47			0	39084	0	0	0	30431	29060	157765	27168	1074993	46202	111331	0	0	8161	497242	0	0
2024-08-09 14:58:47			0	39108	0	0	0	30436	29060	157769	26748	1075101	46223	111333	0	0	8162	496371	0	0
2024-08-09 14:59:47			0	39097	0	0	0	30470	29090	157741	27138	1075254	46205	111346	0	0	8161	496683	0	0
2024-08-09 15:00:47			0	39109	0	0	0	30480	29090	157693	26753	1075317	46215	111350	0	0	8162	496248	0	0
2024-08-09 15:01:47			0	39082	0	0	0	30493	29110	157589	26824	1075344	46228	111355	0	0	8160	497170	0	0
2024-08-09 15:02:47			0	39114	0	0	0	30498	29110	157669	26774	1075407	46217	111357	0	0	8162	496009	0	0
2024-08-09 15:03:47			0	39115	0	0	0	30501	29120	157521	26948	1075479	46218	111358	0	0	8162	495944	0	0
2024-08-09 15:04:47			0	39118	0	0	0	30516	29140	157557	26958	1075533	46219	111364	0	0	8162	495778	0	0
2024-08-09 15:05:47			0	39127	0	0	0	30529	29140	157469	26909	1075623	46208	111369	0	0	8162	495452	0	0
2024-08-09 15:06:47			0	39125	0	0	0	30558	29160	157421	27111	1075677	46222	111380	0	0	8162	495467	0	0
2024-08-09 15:07:47			0	39113	0	0	0	30571	29170	157453	26949	1075803	46223	111385	0	0	8161	495873	0	0
2024-08-09 15:08:47			0	39120	0	0	0	30607	29190	157513	27059	1075821	46226	111399	0	0	8161	495562	0	0
2024-08-09 15:09:47			0	39111	0	0	0	30618	29190	157569	27308	1075875	46214	111403	0	0	8160	495888	0	0
2024-08-09 15:10:47			0	39113	0	0	0	30620	29200	157541	27081	1075911	46214	111404	0	0	8160	495786	0	0
2024-08-09 15:11:47			0	39122	0	0	0	30623	29210	157493	26883	1075939	46206	111405	0	0	8161	495432	0	0
2024-08-09 15:12:47			0	39125	0	0	0	30628	29210	157509	27131	1075939	46216	111407	0	0	8161	495323	0	0
2024-08-09 15:13:47			0	39137	0	0	0	30628	29220	157329	26852	1075903	46207	111407	0	0	8162	494860	0	0
2024-08-09 15:14:47			0	39167	0	0	0	30628	29220	157341	26802	1075948	46216	111407	0	0	8163	493775	0	0
2024-08-09 15:15:47			0	39186	0	0	0	30623	29210	157257	27034	1075885	46195	111405	0	0	8164	493117	0	0
2024-08-09 15:16:47			0	39187	0	0	0	30602	29210	157285	27225	1075831	46195	111397	0	0	8165	493081	0	0
2024-08-09 15:17:47			0	39180	0	0	0	30610	29210	157257	27013	1075858	46195	111400	0	0	8164	493334	0	0
2024-08-09 15:18:47			0	39192	0	0	0	30607	29220	157293	27244	1075921	46216	111399	0	0	8165	492872	0	0
2024-08-09 15:19:47			0	39164	0	0	0	30605	29220	157317	27109	1075813	46206	111398	0	0	8164	493883	0	0
2024-08-09 15:20:47			0	39164	0	0	0	30597	29200	157385	27215	1075786	46204	111395	0	0	8164	493941	0	0
2024-08-09 15:21:47			0	39157	0	0	0	30592	29220	157381	27010	1075813	46206	111393	0	0	8163	494137	0	0
2024-08-09 15:22:47			0	39142	0	0	0	30592	29210	157357	26715	1075777	46206	111393	0	0	8162	494708	0	0
2024-08-09 15:23:47			0	39153	0	0	0	30589	29210	157361	26878	1075768	46205	111392	0	0	8163	494310	0	0
2024-08-09 15:24:47			0	39161	0	0	0	30597	29200	157329	26824	1075776	46214	111395	0	0	8163	494049	0	0
2024-08-09 15:25:47			0	39165	0	0	0	30602	29200	157273	26729	1075786	46204	111397	0	0	8164	493905	0	0
2024-08-09 15:26:47			0	39182	0	0	0	30612	29200	157257	26693	1075786	46214	111401	0	0	8164	493290	0	0
2024-08-09 15:27:47			0	39203	0	0	0	30628	29210	157145	27249	1075876	46215	111407	0	0	8165	492504	0	0
2024-08-09 15:28:47			0	39213	0	0	0	30633	29220	157041	27081	1076011	46217	111409	0	0	8166	492114	0	0
2024-08-09 15:29:47			0	39237	0	0	0	30649	29230	157037	26556	1076029	46230	111415	0	0	8167	491221	0	0
2024-08-09 15:30:47			0	39251	0	0	0	30657	29240	156965	26752	1076038	46230	111418	0	0	8168	490688	0	0
2024-08-09 15:31:47			0	39261	0	0	0	30659	29230	156861	26613	1076047	46217	111419	0	0	8168	490356	0	0
2024-08-09 15:32:47			0	39293	0	0	0	30659	29240	156829	26696	1076047	46219	111419	0	0	8170	489177	0	0
2024-08-09 15:33:47			0	39320	0	0	0	30662	29240	156697	26809	1076038	46218	111420	0	0	8171	488207	0	0
2024-08-09 15:34:47			0	39312	0	0	0	30664	29250	156641	26706	1076029	46219	111421	0	0	8171	488466	0	0
2024-08-09 15:35:47			0	39294	0	0	0	30649	29260	156793	27013	1076074	46209	111415	0	0	8170	489084	0	0
2024-08-09 15:36:47			0	39271	0	0	0	30657	29250	156833	27024	1076011	46232	111418	0	0	8169	489940	0	0
2024-08-09 15:37:47			0	39247	0	0	0	30654	29240	156913	26932	1076074	46219	111417	0	0	8167	490832	0	0
2024-08-09 15:38:47			0	39234	0	0	0	30651	29250	157061	26960	1076092	46209	111416	0	0	8167	491272	0	0
2024-08-09 15:39:47			0	39214	0	0	0	30651	29250	156981	26831	1076065	46209	111416	0	0	8166	491993	0	0
2024-08-09 15:40:47			0	39211	0	0	0	30638	29250	157129	26850	1076038	46209	111411	0	0	8166	492101	0	0
2024-08-09 15:41:47			0	39205	0	0	0	30625	29250	157129	26908	1075975	46208	111406	0	0	8166	492317	0	0
2024-08-09 15:42:47			0	39191	0	0	0	30633	29250	157005	26977	1076002	46208	111409	0	0	8165	492822	0	0
2024-08-09 15:43:47			0	39186	0	0	0	30633	29250	157101	26863	1075921	46208	111409	0	0	8164	493003	0	0
2024-08-09 15:44:47			0	39192	0	0	0	30620	29240	157133	26604	1075957	46208	111404	0	0	8165	492815	0	0
2024-08-09 15:45:47			0	39194	0	0	0	30618	29240	157153	26828	1075957	46197	111403	0	0	8165	492743	0	0
2024-08-09 15:46:47			0	39204	0	0	0	30620	29240	157129	26998	1075930	46197	111404	0	0	8166	492382	0	0
2024-08-09 15:47:47			0	39209	0	0	0	30610	29240	157101	26979	1075903	46208	111400	0	0	8166	492201	0	0
2024-08-09 15:48:47			0	39210	0	0	0	30610	29230	157129	26811	1075921	46218	111400	0	0	8166	492194	0	0
2024-08-09 15:49:47			0	39206	0	0	0	30628	29230	157129	27001	1075966	46217	111407	0	0	8166	492338	0	0
2024-08-09 15:50:47			0	39210	0	0	0	30633	29230	157101	26807	1075975	46230	111409	0	0	8166	492194	0	0
2024-08-09 15:51:47			0	39213	0	0	0	30631	29230	157085	26661	1075975	46218	111408	0	0	8166	492086	0	0
2024-08-09 15:52:47			0	39235	0	0	0	30633	29240	156989	26902	1076011	46208	111409	0	0	8167	491264	0	0
2024-08-09 15:53:47			0	39252	0	0	0	30654	29240	156893	27027	1076065	46208	111417	0	0	8168	490652	0	0
2024-08-09 15:54:47			0	39300	0	0	0	30651	29240	156761	26984	1076065	46218	111416	0	0	8171	488926	0	0
2024-08-09 15:55:47			0	39363	0	0	0	30664	29250	156693	26679	1076092	46220	111421	0	0	8174	486637	0	0
2024-08-09 15:56:47			0	39394	0	0	0	30664	29250	156541	26646	1076119	46232	111421	0	0	8176	485527	0	0
2024-08-09 15:57:47			0	39419	0	0	0	30672	29250	156190	27008	1076119	46220	111424	0	0	8177	484633	0	0
2024-08-09 15:58:47			0	39476	0	0	0	30667	29270	156050	26821	1076173	46245	111422	0	0	8180	482541	0	0
2024-08-09 15:59:47			0	39492	0	0	0	30683	29270	156066	26847	1076191	46221	111428	0	0	8181	481971	0	0
2024-08-09 16:00:47			0	39496	0	0	0	30716	29280	156098	26646	1076344	46245	111441	0	0	8181	481801	0	0
2024-08-09 16:01:47			0	39481	0	0	0	30742	29290	155986	26977	1076425	46247	111451	0	0	8179	482307	0	0
2024-08-09 16:02:47			0	39505	0	0	0	30771	29310	156018	26824	1076479	46259	111462	0	0	8180	481396	0	0
2024-08-09 16:03:47			0	39518	0	0	0	30773	29340	155934	26927	1076624	46251	111463	0	0	8181	480850	0	0
2024-08-09 16:04:47			0	39544	0	0	0	30779	29340	155894	27093	1076588	46251	111465	0	0	8183	479925	0	0
2024-08-09 16:05:47			0	39546	0	0	0	30789	29340	155806	26706	1076705	46251	111469	0	0	8183	479854	0	0
2024-08-09 16:06:47			0	39564	0	0	0	30797	29350	155754	26883	1076723	46230	111472	0	0	8184	479187	0	0
2024-08-09 16:07:47			0	39544	0	0	0	30807	29360	155738	26876	1076786	46253	111476	0	0	8182	479869	0	0
2024-08-09 16:08:47			0	39526	0	0	0	30820	29380	155794	26819	1076930	46255	111481	0	0	8181	480453	0	0
2024-08-09 16:09:47			0	39506	0	0	0	30844	29400	155902	26625	1077047	46257	111490	0	0	8180	481109	0	0
2024-08-09 16:10:47			0	39474	0	0	0	30883	29410	155990	27005	1077146	46281	111505	0	0	8177	482220	0	0
2024-08-09 16:11:47			0	39461	0	0	0	30909	29430	156102	26899	1077219	46283	111515	0	0	8176	482627	0	0
2024-08-09 16:12:47			0	39470	0	0	0	30945	29450	156042	26798	1077381	46273	111529	0	0	8176	482250	0	0
2024-08-09 16:13:47			0	39448	0	0	0	30973	29470	156010	26668	1077471	46288	111540	0	0	8175	482978	0	0
2024-08-09 16:14:47			0	39442	0	0	0	30963	29470	156050	26674	1077417	46265	111536	0	0	8174	483192	0	0
2024-08-09 16:15:47			0	39447	0	0	0	30958	29480	155966	26974	1077381	46254	111534	0	0	8175	482986	0	0
2024-08-09 16:16:47			0	39468	0	0	0	30948	29490	156050	27235	1077427	46256	111530	0	0	8176	482210	0	0
2024-08-09 16:17:47			0	39428	0	0	0	30935	29480	156070	27119	1077418	46266	111525	0	0	8174	483664	0	0
2024-08-09 16:18:47			0	39413	0	0	0	30935	29490	156061	26823	1077409	46245	111525	0	0	8173	484171	0	0
2024-08-09 16:19:47			0	39412	0	0	0	30932	29490	156181	26909	1077427	46245	111524	0	0	8173	484207	0	0
2024-08-09 16:20:47			0	39406	0	0	0	30929	29490	156205	26821	1077409	46234	111523	0	0	8173	484421	0	0
2024-08-09 16:21:47			0	39396	0	0	0	30927	29490	156233	26981	1077400	46245	111522	0	0	8172	484778	0	0
2024-08-09 16:22:47			0	39384	0	0	0	30919	29510	156233	26828	1077409	46236	111519	0	0	8172	485151	0	0
2024-08-09 16:23:47			0	39385	0	0	0	30914	29500	156277	26967	1077364	46245	111517	0	0	8172	485143	0	0
2024-08-09 16:24:47			0	39390	0	0	0	30909	29500	156245	26878	1077391	46234	111515	0	0	8172	484964	0	0
2024-08-09 16:25:47			0	39396	0	0	0	30906	29490	156153	26998	1077373	46234	111514	0	0	8173	484778	0	0
2024-08-09 16:26:47			0	39404	0	0	0	30901	29480	156213	26876	1077364	46255	111512	0	0	8173	484521	0	0
2024-08-09 16:27:47			0	39396	0	0	0	30909	29490	156241	27173	1077409	46245	111515	0	0	8173	484778	0	0
2024-08-09 16:28:47			0	39415	0	0	0	30914	29500	156205	27007	1077499	46245	111517	0	0	8174	484071	0	0
2024-08-09 16:29:47			0	39382	0	0	0	30929	29490	156205	27147	1077463	46267	111523	0	0	8172	485279	0	0
2024-08-09 16:30:47			0	39389	0	0	0	30932	29520	156169	27007	1077535	46258	111524	0	0	8172	484944	0	0
2024-08-09 16:31:47			0	39397	0	0	0	30945	29520	156133	26937	1077589	46258	111529	0	0	8172	484658	0	0
2024-08-09 16:32:47			0	39400	0	0	0	30958	29520	156097	26788	1077589	46269	111534	0	0	8172	484551	0	0
2024-08-09 16:33:47			0	39407	0	0	0	30955	29540	156089	27031	1077571	46260	111533	0	0	8173	484244	0	0
2024-08-09 16:34:47			0	39427	0	0	0	30958	29530	156078	26783	1077589	46272	111534	0	0	8174	483559	0	0
2024-08-09 16:35:47			0	39432	0	0	0	30955	29540	156018	26708	1077571	46250	111533	0	0	8174	483352	0	0
2024-08-09 16:36:47			0	39442	0	0	0	30953	29530	155966	26653	1077643	46260	111532	0	0	8175	483024	0	0
2024-08-09 16:37:47			0	39431	0	0	0	30945	29540	156014	26935	1077625	46260	111529	0	0	8174	483388	0	0
2024-08-09 16:38:47			0	39438	0	0	0	30929	29530	156058	27007	1077445	46249	111523	0	0	8175	483166	0	0
2024-08-09 16:39:47			0	39438	0	0	0	30914	29520	156082	26791	1077382	46225	111517	0	0	8175	483195	0	0
2024-08-09 16:40:47			0	39427	0	0	0	30893	29520	156006	26852	1077436	46248	111509	0	0	8175	483587	0	0
2024-08-09 16:41:47			0	39432	0	0	0	30888	29510	156050	26837	1077418	46247	111507	0	0	8175	483437	0	0
2024-08-09 16:42:47			0	39434	0	0	0	30880	29510	155946	26694	1077337	46236	111504	0	0	8175	483365	0	0
2024-08-09 16:43:47			0	39457	0	0	0	30872	29490	156074	27033	1077301	46245	111501	0	0	8177	482602	0	0
2024-08-09 16:44:47			0	39442	0	0	0	30857	29490	156078	26547	1077355	46234	111495	0	0	8176	483136	0	0
2024-08-09 16:45:47			0	39436	0	0	0	30864	29490	156038	26930	1077319	46245	111498	0	0	8176	483350	0	0
2024-08-09 16:46:47			0	39470	0	0	0	30875	29490	155938	26986	1077355	46245	111502	0	0	8178	482138	0	0
2024-08-09 16:47:47			0	39472	0	0	0	30880	29490	155914	26951	1077328	46245	111504	0	0	8178	482067	0	0
2024-08-09 16:48:47			0	39480	0	0	0	30880	29500	155862	26680	1077427	46246	111504	0	0	8178	481754	0	0
2024-08-09 16:49:47			0	39486	0	0	0	30898	29500	155814	26791	1077427	46246	111511	0	0	8178	481541	0	0
2024-08-09 16:50:47			0	39481	0	0	0	30893	29500	155814	26861	1077481	46246	111509	0	0	8178	481719	0	0
2024-08-09 16:51:47			0	39493	0	0	0	30906	29510	155918	26667	1077544	46269	111514	0	0	8178	481263	0	0
2024-08-09 16:52:47			0	39482	0	0	0	30916	29520	155826	26906	1077571	46248	111518	0	0	8178	481627	0	0
2024-08-09 16:53:47			0	39489	0	0	0	30935	29520	155774	27098	1077598	46259	111525	0	0	8178	481378	0	0
2024-08-09 16:54:47			0	39513	0	0	0	30935	29530	155574	26651	1077607	46249	111525	0	0	8179	480496	0	0
2024-08-09 16:55:47			0	39532	0	0	0	30935	29530	155646	26821	1077580	46259	111525	0	0	8180	479821	0	0
2024-08-09 16:56:47			0	39542	0	0	0	30929	29530	155486	26727	1077634	46249	111523	0	0	8181	479466	0	0
2024-08-09 16:57:47			0	39554	0	0	0	30935	29530	155426	26920	1077589	46239	111525	0	0	8181	479040	0	0
2024-08-09 16:58:47			0	39542	0	0	0	30937	29530	155490	26733	1077562	46250	111526	0	0	8181	479466	0	0
2024-08-09 16:59:47			0	39563	0	0	0	30948	29540	155502	26894	1077598	46272	111530	0	0	8182	478693	0	0
2024-08-09 17:00:47			0	39562	0	0	0	30958	29530	155446	26986	1077616	46250	111534	0	0	8181	478756	0	0
2024-08-09 17:01:47			0	39560	0	0	0	30966	29550	155490	26674	1077670	46261	111537	0	0	8181	478772	0	0
2024-08-09 17:02:47			0	39560	0	0	0	30968	29560	155510	27183	1077841	46274	111538	0	0	8181	478744	0	0
2024-08-09 17:03:47			0	39565	0	0	0	30971	29560	155478	26680	1077878	46274	111539	0	0	8182	478566	0	0
2024-08-09 17:04:47			0	39563	0	0	0	30992	29570	155358	26993	1077887	46274	111547	0	0	8181	478609	0	0
2024-08-09 17:05:47			0	39575	0	0	0	30997	29580	155334	26726	1077905	46276	111549	0	0	8182	478156	0	0
2024-08-09 17:06:47			0	39588	0	0	0	30994	29580	155402	27038	1077941	46253	111548	0	0	8183	477695	0	0
2024-08-09 17:07:47			0	39600	0	0	0	30994	29590	155326	26887	1077923	46253	111548	0	0	8183	477243	0	0
2024-08-09 17:08:47			0	39589	0	0	0	30999	29590	155318	26863	1077896	46253	111550	0	0	8183	477632	0	0
2024-08-09 17:09:47			0	39594	0	0	0	31002	29590	155306	26890	1077950	46243	111551	0	0	8183	477455	0	0
2024-08-09 17:10:47			0	39578	0	0	0	31007	29600	155322	26857	1077941	46266	111553	0	0	8182	477994	0	0
2024-08-09 17:11:47			0	39572	0	0	0	31005	29600	155378	26925	1078022	46266	111552	0	0	8182	478207	0	0
2024-08-09 17:12:47			0	39598	0	0	0	31005	29600	155298	26861	1077977	46267	111552	0	0	8183	477286	0	0
2024-08-09 17:13:47			0	39580	0	0	0	31012	29610	155306	26684	1078049	46267	111555	0	0	8182	477895	0	0
2024-08-09 17:14:47			0	39587	0	0	0	31010	29610	155278	27050	1077995	46279	111554	0	0	8182	477647	0	0
2024-08-09 17:15:47			0	39593	0	0	0	31010	29610	155318	26717	1077995	46267	111554	0	0	8183	477435	0	0
2024-08-09 17:16:47			0	39590	0	0	0	30994	29600	155286	26902	1077896	46267	111548	0	0	8183	477569	0	0
2024-08-09 17:17:47			0	39588	0	0	0	30989	29600	155310	26916	1077887	46255	111546	0	0	8183	477640	0	0
2024-08-09 17:18:47			0	39602	0	0	0	30976	29600	155366	27142	1077815	46246	111541	0	0	8184	477144	0	0
2024-08-09 17:19:47			0	39608	0	0	0	30973	29580	155362	27029	1077806	46264	111540	0	0	8184	476987	0	0
2024-08-09 17:20:47			0	39615	0	0	0	30961	29580	155262	26838	1077806	46243	111535	0	0	8185	476740	0	0
2024-08-09 17:21:47			0	39625	0	0	0	30948	29570	155166	26814	1077653	46242	111530	0	0	8185	476414	0	0
2024-08-09 17:22:47			0	39614	0	0	0	30937	29560	155294	26866	1077635	46241	111526	0	0	8185	476831	0	0
2024-08-09 17:23:47			0	39606	0	0	0	30929	29550	155330	27218	1077562	46240	111523	0	0	8185	477142	0	0
2024-08-09 17:24:47			0	39585	0	0	0	30916	29550	155378	27140	1077535	46240	111518	0	0	8184	477885	0	0
2024-08-09 17:25:47			0	39626	0	0	0	30909	29540	155298	27039	1077544	46239	111515	0	0	8186	476461	0	0
2024-08-09 17:26:47			0	39631	0	0	0	30906	29530	155206	26849	1077508	46227	111514	0	0	8186	476312	0	0
2024-08-09 17:27:47			0	39621	0	0	0	30903	29530	155178	27024	1077454	46260	111513	0	0	8186	476666	0	0
2024-08-09 17:28:47			0	39629	0	0	0	30885	29530	155130	26897	1077427	46250	111506	0	0	8187	476383	0	0
2024-08-09 17:29:47			0	39649	0	0	0	30883	29520	155202	26993	1077355	46237	111505	0	0	8188	475704	0	0
2024-08-09 17:30:47			0	39650	0	0	0	30883	29510	155122	27289	1077445	46224	111505	0	0	8188	475696	0	0
2024-08-09 17:31:47			0	39651	0	0	0	30870	29510	155134	26944	1077355	46247	111500	0	0	8188	475661	0	0
2024-08-09 17:32:47			0	39660	0	0	0	30870	29500	155154	26797	1077364	46245	111500	0	0	8188	475370	0	0
2024-08-09 17:33:47			0	39666	0	0	0	30877	29500	155102	26857	1077391	46245	111503	0	0	8189	475158	0	0
2024-08-09 17:34:47			0	39686	0	0	0	30872	29500	155066	26955	1077373	46268	111501	0	0	8190	474452	0	0
2024-08-09 17:35:47			0	39697	0	0	0	30875	29500	155058	26705	1077364	46245	111502	0	0	8190	474064	0	0
2024-08-09 17:36:47			0	39705	0	0	0	30862	29490	155018	26918	1077292	46245	111497	0	0	8191	473809	0	0
2024-08-09 17:37:47			0	39738	0	0	0	30867	29490	154902	26974	1077355	46256	111499	0	0	8193	472646	0	0
2024-08-09 17:38:47			0	39724	0	0	0	30870	29480	154906	26759	1077381	46243	111500	0	0	8192	473167	0	0
2024-08-09 17:39:47			0	39746	0	0	0	30870	29490	154798	26717	1077409	46256	111500	0	0	8193	472365	0	0
2024-08-09 17:40:47			0	39743	0	0	0	30870	29490	154782	26857	1077346	46245	111500	0	0	8193	472470	0	0
2024-08-09 17:41:47			0	39766	0	0	0	30877	29490	154758	26927	1077427	46267	111503	0	0	8194	471661	0	0
2024-08-09 17:42:47			0	39749	0	0	0	30888	29500	154730	26863	1077499	46256	111507	0	0	8193	472232	0	0
2024-08-09 17:43:47			0	39759	0	0	0	30906	29510	154742	26840	1077526	46258	111514	0	0	8193	471852	0	0
2024-08-09 17:44:47			0	39767	0	0	0	30903	29500	154666	27015	1077472	46256	111513	0	0	8194	471598	0	0
2024-08-09 17:45:47			0	39760	0	0	0	30903	29510	154710	26894	1077472	46258	111513	0	0	8194	471817	0	0
2024-08-09 17:46:47			0	39743	0	0	0	30901	29510	154674	26706	1077499	46258	111512	0	0	8193	472415	0	0
2024-08-09 17:47:47			0	39762	0	0	0	30909	29520	154682	27175	1077598	46259	111515	0	0	8194	471719	0	0
2024-08-09 17:48:47			0	39767	0	0	0	30914	29520	154690	26996	1077544	46248	111517	0	0	8194	471543	0	0
2024-08-09 17:49:47			0	39765	0	0	0	30906	29520	154630	26785	1077562	46258	111514	0	0	8194	471614	0	0
2024-08-09 17:50:47			0	39766	0	0	0	30914	29520	154698	26982	1077535	46247	111517	0	0	8194	471579	0	0
2024-08-09 17:51:47			0	39780	0	0	0	30911	29500	154674	26868	1077508	46246	111516	0	0	8194	471141	0	0
2024-08-09 17:52:47			0	39786	0	0	0	30911	29520	154666	26913	1077562	46258	111516	0	0	8195	470875	0	0
2024-08-09 17:53:47			0	39786	0	0	0	30922	29530	154622	27029	1077553	46259	111520	0	0	8195	470848	0	0
2024-08-09 17:54:47			0	39797	0	0	0	30914	29520	154594	27026	1077562	46269	111517	0	0	8195	470489	0	0
2024-08-09 17:55:47			0	39771	0	0	0	30914	29520	154606	26974	1077625	46248	111517	0	0	8194	471403	0	0
2024-08-09 17:56:47			0	39790	0	0	0	30916	29530	154598	26960	1077508	46239	111518	0	0	8195	470707	0	0
2024-08-09 17:57:47			0	39799	0	0	0	30914	29530	154654	26864	1077553	46282	111517	0	0	8196	470391	0	0
2024-08-09 17:58:47			0	39804	0	0	0	30906	29520	154646	26979	1077571	46248	111514	0	0	8196	470243	0	0
2024-08-09 17:59:47			0	39816	0	0	0	30911	29520	154526	26620	1077517	46259	111516	0	0	8197	469822	0	0
2024-08-09 18:00:47			0	39813	0	0	0	30903	29520	154570	26769	1077598	46259	111513	0	0	8197	469927	0	0
2024-08-09 18:01:47			0	39813	0	0	0	30903	29530	154474	26571	1077580	46259	111513	0	0	8197	469900	0	0
2024-08-09 18:02:47			0	39815	0	0	0	30901	29520	154466	26958	1077535	46258	111512	0	0	8197	469857	0	0
2024-08-09 18:03:47			0	39819	0	0	0	30911	29530	154322	27064	1077589	46272	111516	0	0	8197	469689	0	0
2024-08-09 18:04:47			0	39833	0	0	0	30914	29530	154450	27001	1077607	46259	111517	0	0	8198	469198	0	0
2024-08-09 18:05:47			0	39831	0	0	0	30919	29540	154430	26951	1077625	46272	111519	0	0	8197	469241	0	0
2024-08-09 18:06:47			0	39846	0	0	0	30922	29540	154442	27100	1077625	46272	111520	0	0	8198	468715	0	0
2024-08-09 18:07:47			0	39835	0	0	0	30919	29530	154422	26837	1077670	46260	111519	0	0	8198	469128	0	0
2024-08-09 18:08:47			0	39837	0	0	0	30937	29550	154454	27026	1077724	46261	111526	0	0	8197	469003	0	0
2024-08-09 18:09:47			0	39835	0	0	0	30932	29550	154386	26975	1077715	46260	111524	0	0	8197	469073	0	0
2024-08-09 18:10:47			0	39825	0	0	0	30937	29550	154438	26840	1077697	46261	111526	0	0	8197	469424	0	0
2024-08-09 18:11:47			0	39832	0	0	0	30948	29550	154374	26944	1077715	46250	111530	0	0	8197	469178	0	0
2024-08-09 18:12:47			0	39844	0	0	0	30945	29550	154298	26816	1077751	46250	111529	0	0	8198	468758	0	0
2024-08-09 18:13:47			0	39843	0	0	0	30950	29550	154330	27161	1077724	46250	111531	0	0	8198	468793	0	0
2024-08-09 18:14:47			0	39843	0	0	0	30953	29570	154242	27182	1077752	46251	111532	0	0	8198	468738	0	0
2024-08-09 18:15:47			0	39850	0	0	0	30948	29560	154358	26819	1077824	46262	111530	0	0	8198	468520	0	0
2024-08-09 18:16:47			0	39869	0	0	0	30963	29560	154294	26961	1077743	46262	111536	0	0	8199	467855	0	0
2024-08-09 18:17:47			0	39852	0	0	0	30966	29550	154366	26835	1077751	46261	111537	0	0	8198	468477	0	0
2024-08-09 18:18:47			0	39872	0	0	0	30961	29570	154262	27228	1077833	46262	111535	0	0	8199	467722	0	0
2024-08-09 18:19:47			0	39881	0	0	0	30968	29570	154238	27209	1077752	46296	111538	0	0	8200	467408	0	0
2024-08-09 18:20:47			0	39869	0	0	0	30971	29560	154110	27150	1077797	46251	111539	0	0	8199	467855	0	0
2024-08-09 18:21:47			0	39897	0	0	0	30971	29570	154286	26963	1077833	46251	111539	0	0	8200	466848	0	0
2024-08-09 18:22:47			0	39880	0	0	0	30981	29580	154218	27296	1077851	46253	111543	0	0	8199	467415	0	0
2024-08-09 18:23:47			0	39888	0	0	0	30981	29570	154178	26842	1077833	46285	111543	0	0	8200	467163	0	0
2024-08-09 18:24:47			0	39885	0	0	0	30986	29570	154166	27072	1077896	46252	111545	0	0	8199	467268	0	0
2024-08-09 18:25:47			0	39887	0	0	0	30989	29570	154186	26866	1077833	46251	111546	0	0	8200	467198	0	0
2024-08-09 18:26:47			0	39902	0	0	0	30981	29570	154170	27019	1077860	46262	111543	0	0	8201	466673	0	0
2024-08-09 18:27:47			0	39871	0	0	0	30986	29570	154350	27192	1077869	46286	111545	0	0	8199	467758	0	0
2024-08-09 18:28:47			0	39867	0	0	0	30986	29580	154338	26935	1077878	46253	111545	0	0	8199	467870	0	0
2024-08-09 18:29:47			0	39880	0	0	0	30984	29580	154286	26937	1077914	46253	111544	0	0	8199	467415	0	0
2024-08-09 18:30:47			0	39884	0	0	0	30992	29600	154342	26826	1077941	46278	111547	0	0	8199	467221	0	0
2024-08-09 18:31:47			0	39859	0	0	0	30992	29580	154358	27097	1077905	46264	111547	0	0	8198	468150	0	0
2024-08-09 18:32:47			0	39868	0	0	0	30992	29580	154346	26896	1077941	46253	111547	0	0	8198	467835	0	0
2024-08-09 18:33:47			0	39879	0	0	0	30989	29580	154350	26804	1077905	46264	111546	0	0	8199	467450	0	0
2024-08-09 18:34:47			0	39861	0	0	0	30997	29590	154282	27130	1077869	46253	111549	0	0	8198	468053	0	0
2024-08-09 18:35:47			0	39885	0	0	0	30989	29580	154398	26760	1077860	46264	111546	0	0	8199	467240	0	0
2024-08-09 18:36:47			0	39879	0	0	0	30984	29590	154322	27085	1077896	46253	111544	0	0	8199	467423	0	0
2024-08-09 18:37:47			0	39887	0	0	0	30989	29580	154350	27130	1077860	46264	111546	0	0	8200	467170	0	0
2024-08-09 18:38:47			0	39866	0	0	0	30989	29580	154398	27079	1077941	46264	111546	0	0	8198	467905	0	0
2024-08-09 18:39:47			0	39869	0	0	0	30989	29580	154298	27026	1077878	46276	111546	0	0	8199	467800	0	0
2024-08-09 18:40:47			0	39880	0	0	0	30981	29580	154318	26984	1077860	46264	111543	0	0	8199	467415	0	0
2024-08-09 18:41:47			0	39853	0	0	0	30986	29590	154366	27164	1077869	46264	111545	0	0	8198	468333	0	0
2024-08-09 18:42:47			0	39885	0	0	0	30976	29580	154346	27076	1077851	46253	111541	0	0	8200	467240	0	0
2024-08-09 18:43:47			0	39890	0	0	0	30981	29580	154298	27149	1077851	46264	111543	0	0	8200	467066	0	0
2024-08-09 18:44:47			0	39882	0	0	0	30984	29580	154370	27041	1077878	46264	111544	0	0	8199	467345	0	0
2024-08-09 18:45:47			0	39908	0	0	0	30971	29580	154286	27071	1077851	46264	111539	0	0	8201	466436	0	0
2024-08-09 18:46:47			0	39894	0	0	0	30973	29580	154358	27244	1077860	46287	111540	0	0	8200	466926	0	0
2024-08-09 18:47:47			0	39881	0	0	0	30971	29580	154290	27081	1077851	46264	111539	0	0	8200	467380	0	0
2024-08-09 18:48:47			0	39897	0	0	0	30981	29570	154294	26993	1077815	46263	111543	0	0	8200	466848	0	0
2024-08-09 18:49:47			0	39899	0	0	0	30973	29580	154266	27114	1077824	46276	111540	0	0	8201	466751	0	0
2024-08-09 18:50:47			0	39886	0	0	0	30966	29580	154122	27041	1077851	46264	111537	0	0	8200	467205	0	0
2024-08-09 18:51:47			0	39907	0	0	0	30973	29580	154126	27069	1077806	46264	111540	0	0	8201	466471	0	0
2024-08-09 18:52:47			0	39897	0	0	0	30976	29560	154158	27308	1077851	46262	111541	0	0	8200	466875	0	0
2024-08-09 18:53:47			0	39903	0	0	0	30973	29580	154190	26982	1077797	46264	111540	0	0	8201	466611	0	0
2024-08-09 18:54:47			0	39934	0	0	0	30963	29570	154014	27050	1077707	46263	111536	0	0	8203	465555	0	0
2024-08-09 18:55:47			0	39917	0	0	0	30961	29560	154054	27017	1077689	46251	111535	0	0	8202	466176	0	0
2024-08-09 18:56:47			0	39916	0	0	0	30945	29550	154038	27326	1077616	46261	111529	0	0	8202	466238	0	0
2024-08-09 18:57:47			0	39939	0	0	0	30940	29550	154038	27045	1077634	46260	111527	0	0	8203	465435	0	0
2024-08-09 18:58:47			0	39940	0	0	0	30932	29550	154002	27007	1077661	46272	111524	0	0	8203	465400	0	0
2024-08-09 18:59:47			0	39937	0	0	0	30940	29560	154062	27072	1077680	46262	111527	0	0	8203	465477	0	0
2024-08-09 19:00:47			0	39946	0	0	0	30937	29550	154090	26965	1077715	46260	111526	0	0	8204	465190	0	0
2024-08-09 19:01:47			0	39933	0	0	0	30935	29540	153962	26956	1077679	46272	111525	0	0	8203	465671	0	0
2024-08-09 19:02:47			0	39965	0	0	0	30940	29530	154066	26965	1077643	46260	111527	0	0	8205	464581	0	0
2024-08-09 19:03:47			0	39932	0	0	0	30942	29540	154002	26918	1077625	46272	111528	0	0	8203	465706	0	0
2024-08-09 19:04:47			0	39941	0	0	0	30942	29540	154034	26729	1077652	46272	111528	0	0	8203	465392	0	0
2024-08-09 19:05:47			0	39956	0	0	0	30942	29540	153986	27116	1077652	46260	111528	0	0	8204	464868	0	0
2024-08-09 19:06:47			0	39949	0	0	0	30935	29530	154006	27284	1077688	46282	111525	0	0	8204	465140	0	0
2024-08-09 19:07:47			0	39934	0	0	0	30937	29540	153930	27045	1077706	46260	111526	0	0	8203	465636	0	0
2024-08-09 19:08:47			0	39924	0	0	0	30942	29550	154086	26901	1077688	46260	111528	0	0	8202	465958	0	0
2024-08-09 19:09:47			0	39924	0	0	0	30945	29550	153946	26913	1077688	46260	111529	0	0	8202	465958	0	0
2024-08-09 19:10:47			0	39919	0	0	0	30942	29550	154082	27230	1077751	46261	111528	0	0	8202	466133	0	0
2024-08-09 19:11:47			0	39913	0	0	0	30942	29540	154130	27166	1077760	46272	111528	0	0	8202	466370	0	0
2024-08-09 19:12:47			0	39892	0	0	0	30945	29540	154154	27062	1077787	46272	111529	0	0	8200	467104	0	0
2024-08-09 19:13:47			0	39893	0	0	0	30950	29560	154118	27124	1077743	46274	111531	0	0	8200	467015	0	0
2024-08-09 19:14:47			0	39901	0	0	0	30950	29550	154142	27317	1077778	46273	111531	0	0	8201	466762	0	0
2024-08-09 19:15:47			0	39905	0	0	0	30955	29540	154146	26812	1077706	46272	111533	0	0	8201	466650	0	0
2024-08-09 19:16:47			0	39899	0	0	0	30950	29550	154182	26712	1077715	46260	111531	0	0	8201	466832	0	0
2024-08-09 19:17:47			0	39907	0	0	0	30950	29550	154198	27192	1077724	46273	111531	0	0	8201	466553	0	0
2024-08-09 19:18:47			0	39902	0	0	0	30955	29540	154022	27119	1077733	46272	111533	0	0	8201	466755	0	0
2024-08-09 19:19:47			0	39893	0	0	0	30955	29550	154162	27104	1077751	46284	111533	0	0	8200	467042	0	0
2024-08-09 19:20:47			0	39913	0	0	0	30945	29550	154218	26781	1077697	46250	111529	0	0	8202	466343	0	0
2024-08-09 19:21:47			0	39914	0	0	0	30950	29550	154126	27128	1077769	46272	111531	0	0	8202	466308	0	0
2024-08-09 19:22:47			0	39899	0	0	0	30950	29550	154142	27104	1077769	46272	111531	0	0	8201	466832	0	0
2024-08-09 19:23:47			0	39904	0	0	0	30958	29550	154178	27048	1077778	46284	111534	0	0	8201	466657	0	0
2024-08-09 19:24:47			0	39919	0	0	0	30958	29550	154130	27331	1077715	46260	111534	0	0	8202	466133	0	0
2024-08-09 19:25:47			0	39895	0	0	0	30958	29550	154222	26868	1077751	46261	111534	0	0	8200	466972	0	0
2024-08-09 19:26:47			0	39909	0	0	0	30953	29550	154214	26975	1077724	46273	111532	0	0	8201	466483	0	0
2024-08-09 19:27:47			0	39902	0	0	0	30955	29560	154338	27140	1077734	46262	111533	0	0	8201	466700	0	0
2024-08-09 19:28:47			0	39893	0	0	0	30955	29560	154226	27093	1077734	46274	111533	0	0	8200	467015	0	0
2024-08-09 19:29:47			0	39913	0	0	0	30958	29550	154150	26826	1077778	46273	111534	0	0	8201	466343	0	0
2024-08-09 19:30:47			0	39917	0	0	0	30961	29550	154210	27027	1077778	46261	111535	0	0	8202	466203	0	0
2024-08-09 19:31:47			0	39907	0	0	0	30961	29550	154126	26875	1077832	46273	111535	0	0	8201	466553	0	0
2024-08-09 19:32:47			0	39922	0	0	0	30963	29560	154262	27123	1077734	46274	111536	0	0	8202	466001	0	0
2024-08-09 19:33:47			0	39922	0	0	0	30966	29560	154146	27033	1077788	46274	111537	0	0	8202	466001	0	0
2024-08-09 19:34:47			0	39911	0	0	0	30973	29560	154214	26654	1077743	46285	111540	0	0	8201	466386	0	0
2024-08-09 19:35:47			0	39925	0	0	0	30966	29570	154174	26814	1077752	46274	111537	0	0	8202	465869	0	0
2024-08-09 19:36:47			0	39922	0	0	0	30966	29570	154210	27066	1077842	46286	111537	0	0	8202	465974	0	0
2024-08-09 19:37:47			0	39908	0	0	0	30963	29560	154158	27138	1077743	46274	111536	0	0	8201	466490	0	0
2024-08-09 19:38:47			0	39910	0	0	0	30966	29560	154198	26890	1077851	46285	111537	0	0	8201	466421	0	0
2024-08-09 19:39:47			0	39917	0	0	0	30961	29550	154162	27031	1077751	46284	111535	0	0	8202	466203	0	0
2024-08-09 19:40:47			0	39911	0	0	0	30968	29570	154134	27022	1077869	46275	111538	0	0	8201	466359	0	0
2024-08-09 19:41:47			0	39908	0	0	0	30971	29560	154198	26857	1077797	46285	111539	0	0	8201	466490	0	0
2024-08-09 19:42:47			0	39912	0	0	0	30971	29560	154210	27007	1077824	46285	111539	0	0	8201	466351	0	0
2024-08-09 19:43:47			0	39939	0	0	0	30971	29560	154238	26906	1077851	46262	111539	0	0	8203	465408	0	0
2024-08-09 19:44:47			0	39920	0	0	0	30968	29560	154190	26906	1077824	46285	111538	0	0	8202	466071	0	0
2024-08-09 19:45:47			0	39909	0	0	0	30973	29560	154142	26816	1077851	46274	111540	0	0	8201	466456	0	0
2024-08-09 19:46:47			0	39920	0	0	0	30968	29560	154118	26951	1077878	46274	111538	0	0	8202	466071	0	0
2024-08-09 19:47:47			0	39920	0	0	0	30966	29570	154074	27274	1077860	46274	111537	0	0	8202	466044	0	0
2024-08-09 19:48:47			0	39940	0	0	0	30963	29560	154142	27098	1077797	46274	111536	0	0	8203	465373	0	0
2024-08-09 19:49:47			0	39933	0	0	0	30963	29560	154046	26556	1077770	46285	111536	0	0	8203	465617	0	0
2024-08-09 19:50:47			0	39921	0	0	0	30950	29560	154074	26923	1077770	46285	111531	0	0	8202	466036	0	0
2024-08-09 19:51:47			0	39941	0	0	0	30955	29550	154062	27161	1077670	46284	111533	0	0	8203	465365	0	0
2024-08-09 19:52:47			0	39939	0	0	0	30950	29550	154050	26948	1077778	46273	111531	0	0	8203	465435	0	0
2024-08-09 19:53:47			0	39945	0	0	0	30953	29550	154082	27055	1077715	46283	111532	0	0	8203	465225	0	0
2024-08-09 19:54:47			0	39919	0	0	0	30948	29540	154078	26944	1077733	46272	111530	0	0	8202	466160	0	0
2024-08-09 19:55:47			0	39935	0	0	0	30945	29540	154066	26930	1077679	46272	111529	0	0	8203	465601	0	0
2024-08-09 19:56:47			0	39913	0	0	0	30937	29550	154038	26814	1077688	46283	111526	0	0	8202	466343	0	0
2024-08-09 19:57:47			0	39922	0	0	0	30935	29560	154086	26878	1077680	46285	111525	0	0	8202	466001	0	0
2024-08-09 19:58:47			0	39915	0	0	0	30932	29560	154058	27010	1077680	46274	111524	0	0	8202	466246	0	0
2024-08-09 19:59:47			0	39912	0	0	0	30932	29550	154110	26701	1077661	46260	111524	0	0	8202	466378	0	0
2024-08-09 20:00:47			0	39918	0	0	0	30924	29530	154066	26644	1077607	46259	111521	0	0	8202	466222	0	0
2024-08-09 20:01:47			0	39927	0	0	0	30916	29530	154010	27003	1077616	46260	111518	0	0	8203	465908	0	0
2024-08-09 20:02:47			0	39943	0	0	0	30916	29520	154078	27078	1077598	46270	111518	0	0	8204	465376	0	0
2024-08-09 20:03:47			0	39935	0	0	0	30919	29520	153930	26734	1077616	46258	111519	0	0	8203	465656	0	0
2024-08-09 20:04:47			0	39964	0	0	0	30914	29520	153982	26821	1077535	46258	111517	0	0	8205	464643	0	0
2024-08-09 20:05:47			0	39961	0	0	0	30916	29520	153950	26856	1077589	46269	111518	0	0	8205	464748	0	0
2024-08-09 20:06:47			0	39977	0	0	0	30911	29520	153882	26882	1077571	46270	111516	0	0	8206	464190	0	0
2024-08-09 20:07:47			0	39978	0	0	0	30911	29520	153874	27045	1077562	46269	111516	0	0	8206	464155	0	0
2024-08-09 20:08:47			0	39971	0	0	0	30906	29520	153838	27104	1077508	46258	111514	0	0	8205	464399	0	0
2024-08-09 20:09:47			0	39981	0	0	0	30898	29510	153794	26979	1077490	46258	111511	0	0	8206	464078	0	0
2024-08-09 20:10:47			0	39997	0	0	0	30896	29510	153806	26994	1077436	46258	111510	0	0	8207	463520	0	0
2024-08-09 20:11:47			0	39994	0	0	0	30898	29500	153786	26779	1077472	46256	111511	0	0	8207	463652	0	0
2024-08-09 20:12:47			0	39988	0	0	0	30896	29500	153770	26779	1077472	46256	111510	0	0	8207	463861	0	0
2024-08-09 20:13:47			0	39974	0	0	0	30885	29490	153734	27156	1077454	46278	111506	0	0	8206	464376	0	0
2024-08-09 20:14:47			0	39985	0	0	0	30880	29490	153854	26762	1077454	46278	111504	0	0	8207	463992	0	0
2024-08-09 20:15:47			0	40004	0	0	0	30883	29490	153706	26837	1077400	46267	111505	0	0	8208	463330	0	0
2024-08-09 20:16:47			0	40009	0	0	0	30875	29490	153770	26734	1077346	46267	111502	0	0	8208	463156	0	0
2024-08-09 20:17:47			0	40014	0	0	0	30880	29470	153798	26953	1077372	46276	111504	0	0	8208	463036	0	0
2024-08-09 20:18:47			0	40017	0	0	0	30888	29480	153794	27098	1077336	46266	111507	0	0	8208	462905	0	0
2024-08-09 20:19:47			0	40014	0	0	0	30880	29490	153846	26845	1077373	46256	111504	0	0	8208	462982	0	0
2024-08-09 20:20:47			0	40014	0	0	0	30875	29480	153834	26885	1077381	46254	111502	0	0	8208	463009	0	0
2024-08-09 20:21:47			0	40020	0	0	0	30870	29460	153838	26805	1077318	46263	111500	0	0	8209	462854	0	0
2024-08-09 20:22:47			0	40016	0	0	0	30859	29470	153806	26901	1077291	46254	111496	0	0	8209	462966	0	0
2024-08-09 20:23:47			0	40014	0	0	0	30864	29460	153750	26948	1077273	46275	111498	0	0	8208	463063	0	0
2024-08-09 20:24:47			0	40027	0	0	0	30857	29470	153906	26850	1077255	46276	111495	0	0	8209	462583	0	0
2024-08-09 20:25:47			0	40011	0	0	0	30844	29450	153798	27052	1077174	46273	111490	0	0	8208	463194	0	0
2024-08-09 20:26:47			0	40015	0	0	0	30838	29440	153830	26805	1077156	46251	111488	0	0	8209	463082	0	0
2024-08-09 20:27:47			0	40008	0	0	0	30825	29440	153890	27005	1077075	46262	111483	0	0	8209	463326	0	0
2024-08-09 20:28:47			0	40024	0	0	0	30823	29420	153854	27289	1076985	46260	111482	0	0	8209	462822	0	0
2024-08-09 20:29:47			0	40022	0	0	0	30812	29430	153810	26876	1077021	46260	111478	0	0	8210	462865	0	0
2024-08-09 20:30:47			0	40011	0	0	0	30805	29420	153906	27033	1076949	46249	111475	0	0	8209	463275	0	0
2024-08-09 20:31:47			0	40018	0	0	0	30802	29410	153854	26828	1076940	46258	111474	0	0	8209	463058	0	0
2024-08-09 20:32:47			0	40015	0	0	0	30805	29410	153982	27218	1076985	46258	111475	0	0	8209	463163	0	0
2024-08-09 20:33:47			0	40015	0	0	0	30810	29410	153878	26949	1076985	46281	111477	0	0	8209	463163	0	0
2024-08-09 20:34:47			0	40017	0	0	0	30818	29410	153950	27152	1077075	46258	111480	0	0	8209	463093	0	0
2024-08-09 20:35:47			0	39998	0	0	0	30825	29410	153950	26887	1077075	46269	111483	0	0	8208	463755	0	0
2024-08-09 20:36:47			0	40013	0	0	0	30838	29430	153942	26968	1077075	46283	111488	0	0	8209	463178	0	0
2024-08-09 20:37:47			0	40000	0	0	0	30841	29430	154014	26816	1077102	46271	111489	0	0	8208	463631	0	0
2024-08-09 20:38:47			0	40018	0	0	0	30849	29430	153914	26802	1077210	46271	111492	0	0	8209	463004	0	0
2024-08-09 20:39:47			0	40018	0	0	0	30857	29430	153866	26932	1077246	46260	111495	0	0	8209	463004	0	0
2024-08-09 20:40:47			0	40010	0	0	0	30867	29450	153846	26986	1077300	46295	111499	0	0	8208	463229	0	0
2024-08-09 20:41:47			0	40025	0	0	0	30870	29440	153930	26922	1077318	46285	111500	0	0	8209	462734	0	0
2024-08-09 20:42:47			0	40032	0	0	0	30877	29440	153866	26998	1077291	46285	111503	0	0	8209	462490	0	0
2024-08-09 20:43:47			0	40016	0	0	0	30875	29450	153878	26930	1077327	46285	111502	0	0	8208	463020	0	0
2024-08-09 20:44:47			0	40030	0	0	0	30877	29460	153706	27159	1077318	46274	111503	0	0	8209	462506	0	0
2024-08-09 20:45:47			0	40037	0	0	0	30880	29460	153838	26939	1077291	46263	111504	0	0	8209	462262	0	0
2024-08-09 20:46:47			0	40036	0	0	0	30872	29460	153766	27069	1077372	46274	111501	0	0	8209	462297	0	0
2024-08-09 20:47:47			0	40033	0	0	0	30885	29460	153782	27062	1077300	46275	111506	0	0	8209	462401	0	0
2024-08-09 20:48:47			0	40034	0	0	0	30872	29460	153778	27248	1077264	46263	111501	0	0	8209	462367	0	0
2024-08-09 20:49:47			0	40046	0	0	0	30854	29450	153810	27215	1077201	46262	111494	0	0	8210	461976	0	0
2024-08-09 20:50:47			0	40056	0	0	0	30844	29440	153674	26975	1077183	46251	111490	0	0	8211	461655	0	0
2024-08-09 20:51:47			0	40049	0	0	0	30831	29440	153654	26741	1077093	46261	111485	0	0	8211	461899	0	0
2024-08-09 20:52:47			0	40070	0	0	0	30820	29430	153610	26741	1077102	46271	111481	0	0	8212	461196	0	0
2024-08-09 20:53:47			0	40065	0	0	0	30828	29430	153630	27013	1077111	46260	111484	0	0	8212	461369	0	0
2024-08-09 20:54:47			0	40060	0	0	0	30820	29430	153590	27093	1077102	46271	111481	0	0	8212	461543	0	0
2024-08-09 20:55:47			0	40037	0	0	0	30818	29420	153802	26733	1077093	46260	111480	0	0	8210	462370	0	0
2024-08-09 20:56:47			0	40029	0	0	0	30833	29440	153746	26975	1077120	46272	111486	0	0	8210	462595	0	0
2024-08-09 20:57:47			0	40033	0	0	0	30828	29430	153850	26765	1077075	46260	111484	0	0	8210	462482	0	0
2024-08-09 20:58:47			0	40020	0	0	0	30818	29410	153902	26849	1077102	46258	111480	0	0	8209	462989	0	0
2024-08-09 20:59:47			0	40011	0	0	0	30812	29420	153906	26852	1077030	46259	111478	0	0	8209	463275	0	0
2024-08-09 21:00:47			0	40010	0	0	0	30812	29420	154042	26566	1077039	46271	111478	0	0	8209	463310	0	0
2024-08-09 21:01:47			0	39987	0	0	0	30810	29420	154134	26708	1077111	46270	111477	0	0	8208	464112	0	0
2024-08-09 21:02:47			0	39979	0	0	0	30807	29410	154054	27138	1077075	46269	111476	0	0	8207	464417	0	0
2024-08-09 21:03:47			0	39981	0	0	0	30815	29420	154002	27095	1077066	46271	111479	0	0	8207	464321	0	0
2024-08-09 21:04:47			0	39971	0	0	0	30797	29420	154134	26748	1077030	46270	111472	0	0	8207	464670	0	0
2024-08-09 21:05:47			0	39986	0	0	0	30799	29400	154166	27079	1076948	46269	111473	0	0	8208	464200	0	0
2024-08-09 21:06:47			0	39960	0	0	0	30807	29410	154006	26967	1077021	46269	111476	0	0	8206	465081	0	0
2024-08-09 21:07:47			0	39972	0	0	0	30805	29400	154054	27015	1076975	46269	111475	0	0	8207	464689	0	0
2024-08-09 21:08:47			0	39935	0	0	0	30810	29410	154162	27010	1076985	46269	111477	0	0	8205	465954	0	0
2024-08-09 21:09:47			0	39975	0	0	0	30789	29400	154134	26762	1076912	46247	111469	0	0	8207	464584	0	0
2024-08-09 21:10:47			0	39952	0	0	0	30779	29390	154222	26842	1076876	46267	111465	0	0	8206	465414	0	0
2024-08-09 21:11:47			0	39961	0	0	0	30789	29390	154178	26880	1076903	46256	111469	0	0	8206	465100	0	0
2024-08-09 21:12:47			0	39966	0	0	0	30779	29390	154146	27079	1076894	46234	111465	0	0	8207	464925	0	0
2024-08-09 21:13:47			0	39973	0	0	0	30784	29390	154194	27092	1076930	46256	111467	0	0	8207	464681	0	0
2024-08-09 21:14:47			0	39941	0	0	0	30781	29380	154142	26925	1076849	46267	111466	0	0	8205	465825	0	0
2024-08-09 21:15:47			0	39965	0	0	0	30776	29390	154230	26890	1076921	46267	111464	0	0	8207	464960	0	0
2024-08-09 21:16:47			0	39947	0	0	0	30779	29390	154222	26972	1076894	46267	111465	0	0	8206	465589	0	0
2024-08-09 21:17:47			0	39958	0	0	0	30771	29380	154238	27215	1076858	46267	111462	0	0	8206	465231	0	0
2024-08-09 21:18:47			0	39946	0	0	0	30771	29380	154266	27041	1076849	46255	111462	0	0	8206	465651	0	0
2024-08-09 21:19:47			0	39956	0	0	0	30768	29390	154278	27121	1076786	46256	111461	0	0	8206	465274	0	0
2024-08-09 21:20:47			0	39920	0	0	0	30766	29380	154322	26967	1076831	46267	111460	0	0	8204	466559	0	0
2024-08-09 21:21:47			0	39912	0	0	0	30761	29370	154422	26902	1076786	46254	111458	0	0	8204	466866	0	0
2024-08-09 21:22:47			0	39909	0	0	0	30755	29370	154430	26687	1076804	46254	111456	0	0	8204	466971	0	0
2024-08-09 21:23:47			0	39891	0	0	0	30740	29370	154506	26956	1076723	46254	111450	0	0	8203	467601	0	0
2024-08-09 21:24:47			0	39873	0	0	0	30732	29370	154506	27227	1076696	46254	111447	0	0	8202	468232	0	0
2024-08-09 21:25:47			0	39840	0	0	0	30732	29350	154578	27194	1076633	46241	111447	0	0	8200	469444	0	0
2024-08-09 21:26:47			0	39848	0	0	0	30719	29330	154602	26880	1076525	46217	111442	0	0	8201	469218	0	0
2024-08-09 21:27:47			0	39832	0	0	0	30696	29330	154678	26946	1076471	46240	111433	0	0	8200	469779	0	0
2024-08-09 21:28:47			0	39826	0	0	0	30696	29330	154674	27104	1076462	46250	111433	0	0	8200	469990	0	0
2024-08-09 21:29:47			0	39818	0	0	0	30688	29320	154730	26845	1076417	46260	111430	0	0	8200	470298	0	0
2024-08-09 21:30:47			0	39806	0	0	0	30672	29300	154802	26928	1076335	46248	111424	0	0	8199	470775	0	0
2024-08-09 21:31:47			0	39801	0	0	0	30670	29290	154758	27024	1076344	46247	111423	0	0	8199	470978	0	0
2024-08-09 21:32:47			0	39816	0	0	0	30670	29290	154754	26915	1076308	46257	111423	0	0	8200	470451	0	0
2024-08-09 21:33:47			0	39806	0	0	0	30675	29290	154802	26857	1076425	46236	111425	0	0	8199	470802	0	0
2024-08-09 21:34:47			0	39798	0	0	0	30670	29290	154770	27085	1076362	46257	111423	0	0	8199	471083	0	0
2024-08-09 21:35:47			0	39810	0	0	0	30662	29290	154766	26974	1076362	46246	111420	0	0	8199	470661	0	0
2024-08-09 21:36:47			0	39794	0	0	0	30675	29280	154726	26724	1076344	46256	111425	0	0	8198	471252	0	0
2024-08-09 21:37:47			0	39802	0	0	0	30672	29290	154798	27081	1076335	46246	111424	0	0	8199	470943	0	0
2024-08-09 21:38:47			0	39799	0	0	0	30664	29280	154750	26641	1076344	46245	111421	0	0	8199	471076	0	0
2024-08-09 21:39:47			0	39805	0	0	0	30672	29270	154858	26772	1076335	46245	111424	0	0	8199	470892	0	0
2024-08-09 21:40:47			0	39809	0	0	0	30664	29290	154746	27062	1076335	46268	111421	0	0	8199	470697	0	0
2024-08-09 21:41:47			0	39825	0	0	0	30672	29280	154738	26844	1076236	46256	111424	0	0	8200	470162	0	0
2024-08-09 21:42:47			0	39830	0	0	0	30675	29270	154766	26878	1076272	46255	111425	0	0	8200	470013	0	0
2024-08-09 21:43:47			0	39832	0	0	0	30667	29270	154658	27187	1076299	46266	111422	0	0	8201	469943	0	0
2024-08-09 21:44:47			0	39835	0	0	0	30667	29270	154698	26871	1076308	46256	111422	0	0	8201	469838	0	0
2024-08-09 21:45:47			0	39834	0	0	0	30657	29250	154626	26823	1076281	46254	111418	0	0	8201	469927	0	0
2024-08-09 21:46:47			0	39841	0	0	0	30659	29250	154586	26776	1076227	46243	111419	0	0	8201	469682	0	0
2024-08-09 21:47:47			0	39852	0	0	0	30654	29260	154582	27170	1076263	46243	111417	0	0	8202	469268	0	0
2024-08-09 21:48:47			0	39843	0	0	0	30657	29270	154486	27242	1076245	46255	111418	0	0	8201	469557	0	0
2024-08-09 21:49:47			0	39886	0	0	0	30667	29250	154550	27017	1076281	46265	111422	0	0	8204	468103	0	0
2024-08-09 21:50:47			0	39880	0	0	0	30662	29250	154450	26816	1076245	46253	111420	0	0	8203	468313	0	0
2024-08-09 21:51:47			0	39874	0	0	0	30659	29250	154518	26965	1076218	46253	111419	0	0	8203	468524	0	0
2024-08-09 21:52:47			0	39878	0	0	0	30657	29260	154474	27052	1076290	46265	111418	0	0	8203	468356	0	0
2024-08-09 21:53:47			0	39889	0	0	0	30657	29250	154546	27062	1076227	46254	111418	0	0	8204	467998	0	0
2024-08-09 21:54:47			0	39889	0	0	0	30657	29250	154494	26852	1076227	46254	111418	0	0	8204	467998	0	0
2024-08-09 21:55:47			0	39912	0	0	0	30664	29260	154414	27031	1076263	46243	111421	0	0	8205	467165	0	0
2024-08-09 21:56:47			0	39896	0	0	0	30659	29240	154454	26934	1076200	46252	111419	0	0	8204	467780	0	0
2024-08-09 21:57:47			0	39913	0	0	0	30651	29260	154430	26826	1076236	46254	111416	0	0	8205	467130	0	0
2024-08-09 21:58:47			0	39892	0	0	0	30644	29250	154482	27185	1076200	46243	111413	0	0	8204	467893	0	0
2024-08-09 21:59:47			0	39898	0	0	0	30657	29240	154430	27109	1076209	46253	111418	0	0	8204	467710	0	0
2024-08-09 22:00:47			0	39910	0	0	0	30649	29240	154442	27232	1076236	46264	111415	0	0	8205	467289	0	0
2024-08-09 22:01:47			0	39920	0	0	0	30644	29240	154318	27190	1076209	46275	111413	0	0	8206	466939	0	0
2024-08-09 22:02:47			0	39893	0	0	0	30636	29250	154438	27215	1076218	46253	111410	0	0	8204	467858	0	0
2024-08-09 22:03:47			0	39908	0	0	0	30646	29230	154450	26894	1076164	46263	111414	0	0	8205	467386	0	0
2024-08-09 22:04:47			0	39909	0	0	0	30641	29230	154370	27216	1076164	46252	111412	0	0	8205	467351	0	0
2024-08-09 22:05:47			0	39913	0	0	0	30641	29250	154466	27041	1076191	46264	111412	0	0	8205	467157	0	0
2024-08-09 22:06:47			0	39908	0	0	0	30638	29240	154298	27100	1076146	46263	111411	0	0	8205	467359	0	0
2024-08-09 22:07:47			0	39927	0	0	0	30628	29230	154330	27222	1076164	46241	111407	0	0	8206	466721	0	0
2024-08-09 22:08:47			0	39911	0	0	0	30636	29230	154258	27085	1076137	46263	111410	0	0	8205	467281	0	0
2024-08-09 22:09:47			0	39941	0	0	0	30628	29220	154218	26972	1076146	46262	111407	0	0	8207	466259	0	0
2024-08-09 22:10:47			0	39949	0	0	0	30631	29220	154422	27130	1076029	46239	111408	0	0	8208	465979	0	0
2024-08-09 22:11:47			0	39952	0	0	0	30631	29220	154346	27048	1076119	46262	111408	0	0	8208	465874	0	0
2024-08-09 22:12:47			0	39966	0	0	0	30631	29220	154322	27242	1076056	46250	111408	0	0	8209	465385	0	0
2024-08-09 22:13:47			0	39948	0	0	0	30625	29220	154354	26982	1076092	46251	111406	0	0	8208	466014	0	0
2024-08-09 22:14:47			0	39956	0	0	0	30618	29230	154254	27050	1076047	46240	111403	0	0	8208	465707	0	0
2024-08-09 22:15:47			0	39977	0	0	0	30612	29220	154242	26700	1076029	46239	111401	0	0	8209	465000	0	0
2024-08-09 22:16:47			0	39965	0	0	0	30612	29210	154218	26880	1076010	46238	111401	0	0	8209	465447	0	0
2024-08-09 22:17:47			0	39974	0	0	0	30607	29210	154178	27090	1075930	46238	111399	0	0	8209	465132	0	0
2024-08-09 22:18:47			0	39967	0	0	0	30597	29210	154126	26734	1076010	46250	111395	0	0	8209	465377	0	0
2024-08-09 22:19:47			0	39989	0	0	0	30605	29190	154138	27057	1075983	46249	111398	0	0	8210	464662	0	0
2024-08-09 22:20:47			0	39995	0	0	0	30594	29200	154130	27022	1075911	46249	111394	0	0	8211	464426	0	0
2024-08-09 22:21:47			0	39990	0	0	0	30592	29190	154142	26878	1075956	46259	111393	0	0	8210	464627	0	0
2024-08-09 22:22:47			0	39994	0	0	0	30594	29190	154106	26765	1075920	46248	111394	0	0	8211	464488	0	0
2024-08-09 22:23:47			0	39985	0	0	0	30586	29190	154202	27038	1075893	46270	111391	0	0	8210	464802	0	0
2024-08-09 22:24:47			0	39999	0	0	0	30589	29190	154054	26987	1075920	46248	111392	0	0	8211	464313	0	0
2024-08-09 22:25:47			0	40001	0	0	0	30589	29190	154166	26809	1075893	46248	111392	0	0	8211	464244	0	0
2024-08-09 22:26:47			0	40021	0	0	0	30592	29180	154090	27071	1075911	46235	111393	0	0	8212	463573	0	0
2024-08-09 22:27:47			0	40019	0	0	0	30594	29180	154114	27145	1075884	46257	111394	0	0	8212	463643	0	0
2024-08-09 22:28:47			0	40029	0	0	0	30584	29180	154114	27124	1075902	46247	111390	0	0	8213	463294	0	0
2024-08-09 22:29:47			0	40029	0	0	0	30579	29180	154134	26859	1075965	46247	111388	0	0	8213	463294	0	0
2024-08-09 22:30:47			0	40028	0	0	0	30589	29180	154086	27057	1075875	46257	111392	0	0	8213	463329	0	0
2024-08-09 22:31:47			0	40043	0	0	0	30594	29180	154014	27045	1075857	46269	111394	0	0	8213	462806	0	0
2024-08-09 22:32:47			0	40050	0	0	0	30592	29190	154102	27066	1075929	46259	111393	0	0	8214	462536	0	0
2024-08-09 22:33:47			0	40025	0	0	0	30597	29180	154122	27093	1075911	46257	111395	0	0	8212	463433	0	0
2024-08-09 22:34:47			0	40051	0	0	0	30597	29180	154006	26946	1075929	46269	111395	0	0	8214	462528	0	0
2024-08-09 22:35:47			0	40048	0	0	0	30599	29190	153994	26955	1075947	46248	111396	0	0	8214	462605	0	0
2024-08-09 22:36:47			0	40065	0	0	0	30594	29190	153974	27164	1075947	46248	111394	0	0	8215	462013	0	0
2024-08-09 22:37:47			0	40065	0	0	0	30584	29180	153990	27007	1075938	46257	111390	0	0	8215	462040	0	0
2024-08-09 22:38:47			0	40061	0	0	0	30592	29190	153938	26833	1075893	46248	111393	0	0	8214	462153	0	0
2024-08-09 22:39:47			0	40068	0	0	0	30605	29180	153898	26890	1075911	46269	111398	0	0	8215	461936	0	0
2024-08-09 22:40:47			0	40061	0	0	0	30594	29180	153938	27138	1075938	46247	111394	0	0	8214	462179	0	0
2024-08-09 22:41:47			0	40071	0	0	0	30594	29180	153866	27130	1075884	46247	111394	0	0	8215	461831	0	0
2024-08-09 22:42:47			0	40099	0	0	0	30599	29190	153962	26925	1075875	46259	111396	0	0	8216	460831	0	0
2024-08-09 22:43:47			0	40071	0	0	0	30594	29190	153886	27163	1075929	46271	111394	0	0	8215	461805	0	0
2024-08-09 22:44:47			0	40075	0	0	0	30599	29190	153926	27147	1075947	46258	111396	0	0	8215	461665	0	0
2024-08-09 22:45:47			0	40079	0	0	0	30592	29180	153902	27105	1075875	46269	111393	0	0	8215	461553	0	0
2024-08-09 22:46:47			0	40098	0	0	0	30592	29180	153851	27215	1075911	46269	111393	0	0	8216	460892	0	0
2024-08-09 22:47:47			0	40074	0	0	0	30592	29190	153906	27260	1076010	46249	111393	0	0	8215	461700	0	0
2024-08-09 22:48:47			0	40086	0	0	0	30594	29190	153874	27204	1075956	46249	111394	0	0	8216	461283	0	0
2024-08-09 22:49:47			0	40091	0	0	0	30597	29180	153782	27163	1075965	46257	111395	0	0	8216	461136	0	0
2024-08-09 22:50:47			0	40092	0	0	0	30612	29190	153850	26993	1075929	46259	111401	0	0	8216	461074	0	0
2024-08-09 22:51:47			0	40086	0	0	0	30597	29190	153806	27248	1076001	46258	111395	0	0	8216	461283	0	0
2024-08-09 22:52:47			0	40089	0	0	0	30597	29190	153751	27019	1075893	46248	111395	0	0	8216	461179	0	0
2024-08-09 22:53:47			0	40100	0	0	0	30589	29180	153798	27097	1075875	46257	111392	0	0	8217	460823	0	0
2024-08-09 22:54:47			0	40103	0	0	0	30581	29180	153807	27272	1075821	46235	111389	0	0	8217	460719	0	0
2024-08-09 22:55:47			0	40108	0	0	0	30576	29180	153839	27220	1075821	46247	111387	0	0	8217	460545	0	0
2024-08-09 22:56:47			0	40125	0	0	0	30574	29180	153703	27003	1075875	46235	111386	0	0	8218	459955	0	0
2024-08-09 22:57:47			0	40119	0	0	0	30568	29170	153775	26941	1075812	46247	111384	0	0	8218	460190	0	0
2024-08-09 22:58:47			0	40138	0	0	0	30561	29170	153667	27128	1075812	46257	111381	0	0	8219	459530	0	0
2024-08-09 22:59:47			0	40128	0	0	0	30558	29180	153631	26797	1075794	46235	111380	0	0	8219	459851	0	0
2024-08-09 23:00:47			0	40151	0	0	0	30555	29170	153571	26876	1075776	46234	111379	0	0	8220	459079	0	0
2024-08-09 23:01:47			0	40171	0	0	0	30548	29160	153503	26987	1075704	46255	111376	0	0	8221	458412	0	0
2024-08-09 23:02:47			0	40187	0	0	0	30550	29160	153519	27168	1075767	46255	111377	0	0	8222	457858	0	0
2024-08-09 23:03:47			0	40169	0	0	0	30550	29160	153487	26875	1075785	46245	111377	0	0	8221	458482	0	0
2024-08-09 23:04:47			0	40187	0	0	0	30545	29150	153527	26974	1075695	46254	111375	0	0	8222	457885	0	0
2024-08-09 23:05:47			0	40170	0	0	0	30545	29150	153599	27100	1075659	46232	111375	0	0	8221	458474	0	0
2024-08-09 23:06:47			0	40175	0	0	0	30535	29150	153555	27003	1075695	46254	111371	0	0	8222	458300	0	0
2024-08-09 23:07:47			0	40165	0	0	0	30537	29150	153663	27173	1075686	46232	111372	0	0	8221	458647	0	0
2024-08-09 23:08:47			0	40134	0	0	0	30540	29150	153675	27119	1075668	46254	111373	0	0	8219	459722	0	0
2024-08-09 23:09:47			0	40121	0	0	0	30540	29150	153763	27232	1075695	46232	111373	0	0	8219	460174	0	0
2024-08-09 23:10:47			0	40106	0	0	0	30535	29150	153851	27097	1075659	46244	111371	0	0	8218	460695	0	0
2024-08-09 23:11:47			0	40108	0	0	0	30524	29140	153875	27182	1075641	46252	111367	0	0	8218	460652	0	0
2024-08-09 23:12:47			0	40094	0	0	0	30529	29130	153878	27249	1075632	46230	111369	0	0	8217	461165	0	0
2024-08-09 23:13:47			0	40067	0	0	0	30522	29130	154042	27121	1075623	46252	111366	0	0	8216	462105	0	0
2024-08-09 23:14:47			0	40082	0	0	0	30522	29140	153998	27376	1075596	46243	111366	0	0	8217	461556	0	0
2024-08-09 23:15:47			0	40058	0	0	0	30529	29130	154126	27048	1075596	46252	111369	0	0	8215	462418	0	0
2024-08-09 23:16:47			0	40070	0	0	0	30527	29140	154086	27152	1075641	46252	111368	0	0	8216	461974	0	0
2024-08-09 23:17:47			0	40044	0	0	0	30527	29130	154090	26974	1075623	46252	111368	0	0	8214	462906	0	0
2024-08-09 23:18:47			0	40030	0	0	0	30527	29130	154094	26870	1075605	46252	111368	0	0	8214	463394	0	0
2024-08-09 23:19:47			0	40052	0	0	0	30532	29130	154106	27067	1075515	46252	111370	0	0	8215	462627	0	0
2024-08-09 23:20:47			0	40041	0	0	0	30524	29120	154074	27279	1075614	46251	111367	0	0	8214	463037	0	0
2024-08-09 23:21:47			0	40036	0	0	0	30524	29110	154158	27109	1075542	46250	111367	0	0	8214	463238	0	0
2024-08-09 23:22:47			0	40059	0	0	0	30514	29120	154094	27187	1075533	46251	111363	0	0	8215	462410	0	0
2024-08-09 23:23:47			0	40047	0	0	0	30496	29120	154102	27144	1075443	46250	111356	0	0	8215	462828	0	0
2024-08-09 23:24:47			0	40052	0	0	0	30498	29110	154090	27036	1075461	46240	111357	0	0	8215	462681	0	0
2024-08-09 23:25:47			0	40067	0	0	0	30496	29100	154102	26722	1075416	46239	111356	0	0	8216	462185	0	0
2024-08-09 23:26:47			0	40049	0	0	0	30488	29100	154122	26902	1075335	46239	111353	0	0	8215	462812	0	0
2024-08-09 23:27:47			0	40051	0	0	0	30485	29100	154018	27052	1075416	46250	111352	0	0	8215	462743	0	0
2024-08-09 23:28:47			0	40030	0	0	0	30477	29100	154114	27185	1075389	46250	111349	0	0	8214	463475	0	0
2024-08-09 23:29:47			0	40006	0	0	0	30477	29090	154206	26901	1075335	46249	111349	0	0	8213	464339	0	0
2024-08-09 23:30:47			0	39977	0	0	0	30475	29100	154202	26899	1075326	46238	111348	0	0	8211	465325	0	0
2024-08-09 23:31:47			0	40020	0	0	0	30470	29080	154298	27168	1075406	46248	111346	0	0	8214	463877	0	0
2024-08-09 23:32:47			0	40011	0	0	0	30470	29090	154286	27003	1075335	46238	111346	0	0	8213	464164	0	0
2024-08-09 23:33:47			0	40007	0	0	0	30472	29080	154278	26767	1075380	46237	111347	0	0	8213	464331	0	0
2024-08-09 23:34:47			0	39993	0	0	0	30470	29090	154330	26944	1075398	46238	111346	0	0	8212	464793	0	0
2024-08-09 23:35:47			0	39993	0	0	0	30467	29070	154310	27102	1075298	46246	111345	0	0	8212	464847	0	0
2024-08-09 23:36:47			0	39981	0	0	0	30462	29070	154366	26899	1075245	46246	111343	0	0	8212	465266	0	0
2024-08-09 23:37:47			0	39987	0	0	0	30459	29070	154258	27275	1075227	46235	111342	0	0	8212	465056	0	0
2024-08-09 23:38:47			0	39998	0	0	0	30462	29070	154410	26663	1075271	46246	111343	0	0	8213	464672	0	0
2024-08-09 23:39:47			0	40003	0	0	0	30459	29060	154318	27026	1075253	46256	111342	0	0	8213	464524	0	0
2024-08-09 23:40:47			0	40005	0	0	0	30454	29060	154334	26942	1075155	46246	111340	0	0	8213	464454	0	0
2024-08-09 23:41:47			0	39994	0	0	0	30451	29060	154382	27104	1075208	46257	111339	0	0	8212	464839	0	0
2024-08-09 23:42:47			0	40012	0	0	0	30457	29070	154362	27126	1075271	46235	111341	0	0	8213	464183	0	0
2024-08-09 23:43:47			0	40024	0	0	0	30446	29050	154338	27346	1075136	46255	111337	0	0	8214	463818	0	0
2024-08-09 23:44:47			0	39999	0	0	0	30446	29060	154346	27142	1075199	46245	111337	0	0	8213	464664	0	0
2024-08-09 23:45:47			0	40015	0	0	0	30446	29060	154258	27263	1075208	46246	111337	0	0	8214	464105	0	0
2024-08-09 23:46:47			0	40004	0	0	0	30444	29060	154270	27100	1075208	46246	111336	0	0	8213	464489	0	0
2024-08-09 23:47:47			0	40030	0	0	0	30441	29060	154298	27005	1075226	46245	111335	0	0	8215	463582	0	0
2024-08-09 23:48:47			0	40026	0	0	0	30446	29060	154234	26984	1075128	46246	111337	0	0	8214	463722	0	0
2024-08-09 23:49:47			0	40020	0	0	0	30436	29050	154182	26857	1075154	46233	111333	0	0	8214	463958	0	0
2024-08-09 23:50:47			0	40025	0	0	0	30433	29050	154226	27109	1075073	46233	111332	0	0	8214	463783	0	0
2024-08-09 23:51:47			0	40037	0	0	0	30433	29040	154198	27144	1075055	46243	111332	0	0	8215	463392	0	0
2024-08-09 23:52:47			0	40025	0	0	0	30428	29030	154314	27176	1075046	46242	111330	0	0	8214	463837	0	0
2024-08-09 23:53:47			0	40040	0	0	0	30425	29030	154266	26989	1075073	46253	111329	0	0	8215	463314	0	0
2024-08-09 23:54:47			0	40037	0	0	0	30420	29020	154190	27081	1075028	46253	111327	0	0	8215	463446	0	0
2024-08-09 23:55:47			0	40030	0	0	0	30410	29020	154158	27177	1074974	46242	111323	0	0	8215	463690	0	0
2024-08-09 23:56:47			0	40039	0	0	0	30415	29020	154182	26807	1075001	46231	111325	0	0	8215	463376	0	0
2024-08-09 23:57:47			0	40050	0	0	0	30410	29020	154202	27020	1075001	46253	111323	0	0	8216	462992	0	0
2024-08-09 23:58:47			0	40033	0	0	0	30410	29020	154226	26930	1074965	46252	111323	0	0	8215	463585	0	0
2024-08-09 23:59:47			0	40032	0	0	0	30405	29010	154214	27225	1074983	46240	111321	0	0	8215	463647	0	0
2024-08-10 00:00:47			0	40044	0	0	0	30407	29010	154170	27199	1074929	46251	111322	0	0	8216	463228	0	0
2024-08-10 00:01:47			0	40040	0	0	0	30394	29010	154278	27017	1074875	46217	111317	0	0	8216	463368	0	0
2024-08-10 00:02:47			0	40043	0	0	0	30389	29000	154238	27109	1074830	46239	111315	0	0	8216	463290	0	0
2024-08-10 00:03:47			0	40031	0	0	0	30389	29000	154238	26925	1074875	46228	111315	0	0	8215	463709	0	0
2024-08-10 00:04:47			0	40025	0	0	0	30386	29000	154242	26984	1074875	46239	111314	0	0	8215	463918	0	0
2024-08-10 00:05:47			0	40010	0	0	0	30389	29000	154230	26894	1074911	46250	111315	0	0	8214	464442	0	0
2024-08-10 00:06:47			0	40013	0	0	0	30389	29000	154306	27203	1074902	46250	111315	0	0	8214	464337	0	0
2024-08-10 00:07:47			0	40009	0	0	0	30386	29000	154310	27041	1074848	46261	111314	0	0	8214	464477	0	0
2024-08-10 00:08:47			0	40000	0	0	0	30392	29000	154338	26774	1074938	46228	111316	0	0	8214	464791	0	0
2024-08-10 00:09:47			0	39993	0	0	0	30392	28990	154434	27092	1074830	46237	111316	0	0	8213	465062	0	0
2024-08-10 00:10:47			0	39979	0	0	0	30399	28990	154430	26987	1074839	46238	111319	0	0	8212	465552	0	0
2024-08-10 00:11:47			0	39973	0	0	0	30392	28990	154402	26613	1074857	46259	111316	0	0	8212	465762	0	0
2024-08-10 00:12:47			0	39987	0	0	0	30394	28990	154454	26991	1074893	46238	111317	0	0	8213	465272	0	0
2024-08-10 00:13:47			0	39986	0	0	0	30397	28990	154494	26762	1074866	46250	111318	0	0	8213	465307	0	0
2024-08-10 00:14:47			0	39978	0	0	0	30399	29000	154322	26913	1074911	46250	111319	0	0	8212	465560	0	0
2024-08-10 00:15:47			0	39975	0	0	0	30386	29000	154358	27102	1074902	46261	111314	0	0	8212	465665	0	0
2024-08-10 00:16:47			0	39969	0	0	0	30389	29000	154346	26955	1074875	46239	111315	0	0	8212	465874	0	0
2024-08-10 00:17:47			0	39969	0	0	0	30389	29000	154422	26615	1074884	46250	111315	0	0	8212	465874	0	0
2024-08-10 00:18:47			0	39984	0	0	0	30394	28990	154394	26785	1074893	46250	111317	0	0	8213	465377	0	0
2024-08-10 00:19:47			0	39964	0	0	0	30386	29000	154534	26670	1074875	46239	111314	0	0	8212	466049	0	0
2024-08-10 00:20:47			0	39974	0	0	0	30397	28990	154490	26817	1074866	46260	111318	0	0	8212	465727	0	0
2024-08-10 00:21:47			0	39956	0	0	0	30392	29000	154426	26811	1074929	46239	111316	0	0	8211	466329	0	0
2024-08-10 00:22:47			0	39964	0	0	0	30392	29000	154458	26701	1074911	46250	111316	0	0	8211	466049	0	0
2024-08-10 00:23:47			0	39952	0	0	0	30389	28990	154442	27107	1074893	46250	111315	0	0	8211	466497	0	0
2024-08-10 00:24:47			0	39966	0	0	0	30397	29000	154462	26844	1074875	46250	111318	0	0	8212	465980	0	0
2024-08-10 00:25:47			0	39970	0	0	0	30384	28990	154490	26979	1074920	46227	111313	0	0	8212	465867	0	0
2024-08-10 00:26:47			0	39964	0	0	0	30376	28990	154438	26824	1074830	46237	111310	0	0	8212	466076	0	0
2024-08-10 00:27:47			0	39954	0	0	0	30381	28990	154534	27013	1074803	46259	111312	0	0	8211	466426	0	0
2024-08-10 00:28:47			0	39941	0	0	0	30379	28990	154518	26677	1074884	46237	111311	0	0	8210	466882	0	0
2024-08-10 00:29:47			0	39949	0	0	0	30373	28980	154442	27119	1074821	46237	111309	0	0	8211	466628	0	0
2024-08-10 00:30:47			0	39934	0	0	0	30373	28990	154482	26915	1074830	46214	111309	0	0	8210	467127	0	0
2024-08-10 00:31:47			0	39923	0	0	0	30373	28980	154574	26974	1074767	46237	111309	0	0	8209	467539	0	0
2024-08-10 00:32:47			0	39935	0	0	0	30371	28980	154658	27137	1074785	46249	111308	0	0	8210	467119	0	0
2024-08-10 00:33:47			0	39929	0	0	0	30368	28970	154558	27228	1074749	46236	111307	0	0	8210	467356	0	0
2024-08-10 00:34:47			0	39910	0	0	0	30366	28970	154574	27213	1074722	46236	111306	0	0	8209	468022	0	0
2024-08-10 00:35:47			0	39931	0	0	0	30363	28970	154670	26951	1074686	46235	111305	0	0	8210	467286	0	0
2024-08-10 00:36:47			0	39904	0	0	0	30353	28970	154674	27007	1074686	46235	111301	0	0	8209	468233	0	0
2024-08-10 00:37:47			0	39920	0	0	0	30358	28950	154690	26906	1074695	46247	111303	0	0	8209	467726	0	0
2024-08-10 00:38:47			0	39900	0	0	0	30350	28960	154622	27078	1074650	46224	111300	0	0	8208	468400	0	0
2024-08-10 00:39:47			0	39889	0	0	0	30342	28940	154806	26937	1074623	46233	111297	0	0	8208	468841	0	0
2024-08-10 00:40:47			0	39896	0	0	0	30337	28960	154714	26982	1074677	46224	111295	0	0	8208	468541	0	0
2024-08-10 00:41:47			0	39890	0	0	0	30329	28950	154798	26847	1074578	46234	111292	0	0	8208	468778	0	0
2024-08-10 00:42:47			0	39883	0	0	0	30329	28930	154842	26840	1074569	46221	111292	0	0	8208	469079	0	0
2024-08-10 00:43:47			0	39903	0	0	0	30319	28930	154754	26911	1074542	46210	111288	0	0	8209	468376	0	0
2024-08-10 00:44:47			0	39882	0	0	0	30329	28940	154906	27213	1074533	46221	111292	0	0	8208	469087	0	0
2024-08-10 00:45:47			0	39879	0	0	0	30314	28920	154902	26793	1074533	46231	111286	0	0	8208	469246	0	0
2024-08-10 00:46:47			0	39872	0	0	0	30309	28910	154874	27154	1074461	46242	111284	0	0	8207	469519	0	0
2024-08-10 00:47:47			0	39867	0	0	0	30303	28920	154886	27012	1074497	46230	111282	0	0	8207	469668	0	0
2024-08-10 00:48:47			0	39853	0	0	0	30301	28900	154954	27076	1074443	46241	111281	0	0	8206	470215	0	0
2024-08-10 00:49:47			0	39856	0	0	0	30290	28910	154898	27254	1074425	46230	111277	0	0	8207	470082	0	0
2024-08-10 00:50:47			0	39840	0	0	0	30293	28910	154998	27069	1074425	46252	111278	0	0	8206	470645	0	0
2024-08-10 00:51:47			0	39853	0	0	0	30293	28900	154962	26955	1074416	46218	111278	0	0	8206	470215	0	0
2024-08-10 00:52:47			0	39845	0	0	0	30283	28890	154938	26701	1074370	46240	111274	0	0	8206	470523	0	0
2024-08-10 00:53:47			0	39848	0	0	0	30280	28890	155054	27083	1074361	46228	111273	0	0	8206	470418	0	0
2024-08-10 00:54:47			0	39815	0	0	0	30270	28880	155130	27241	1074325	46227	111269	0	0	8205	471607	0	0
2024-08-10 00:55:47			0	39846	0	0	0	30283	28890	155082	26932	1074343	46240	111274	0	0	8206	470488	0	0
2024-08-10 00:56:47			0	39832	0	0	0	30272	28880	155110	26989	1074271	46227	111270	0	0	8206	471008	0	0
2024-08-10 00:57:47			0	39832	0	0	0	30270	28880	155062	26944	1074271	46227	111269	0	0	8206	471008	0	0
2024-08-10 00:58:47			0	39839	0	0	0	30267	28880	155058	27135	1074289	46215	111268	0	0	8206	470762	0	0
2024-08-10 00:59:47			0	39824	0	0	0	30259	28880	155054	26764	1074262	46215	111265	0	0	8205	471290	0	0
2024-08-10 01:00:47			0	39843	0	0	0	30259	28880	155106	26922	1074262	46215	111265	0	0	8206	470621	0	0
2024-08-10 01:01:47			0	39829	0	0	0	30264	28870	155222	27150	1074199	46238	111267	0	0	8205	471141	0	0
2024-08-10 01:02:47			0	39832	0	0	0	30259	28870	155098	26705	1074271	46225	111265	0	0	8206	471035	0	0
2024-08-10 01:03:47			0	39826	0	0	0	30259	28870	155098	27031	1074280	46226	111265	0	0	8205	471247	0	0
2024-08-10 01:04:47			0	39831	0	0	0	30262	28860	155110	27128	1074181	46225	111266	0	0	8206	471098	0	0
2024-08-10 01:05:47			0	39836	0	0	0	30254	28850	155130	27079	1074208	46223	111263	0	0	8206	470949	0	0
2024-08-10 01:06:47			0	39841	0	0	0	30257	28870	155082	27208	1074217	46237	111264	0	0	8206	470719	0	0
2024-08-10 01:07:47			0	39843	0	0	0	30249	28850	155118	26989	1074190	46223	111261	0	0	8206	470703	0	0
2024-08-10 01:08:47			0	39844	0	0	0	30249	28870	155086	26769	1074217	46225	111261	0	0	8207	470613	0	0
2024-08-10 01:09:47			0	39828	0	0	0	30246	28860	155070	26961	1074145	46224	111260	0	0	8206	471204	0	0
2024-08-10 01:10:47			0	39850	0	0	0	30241	28860	154998	27131	1074208	46225	111258	0	0	8207	470429	0	0
2024-08-10 01:11:47			0	39837	0	0	0	30241	28850	155178	27312	1074136	46212	111258	0	0	8206	470914	0	0
2024-08-10 01:12:47			0	39842	0	0	0	30246	28860	155030	26896	1074172	46213	111260	0	0	8206	470711	0	0
2024-08-10 01:13:47			0	39866	0	0	0	30241	28850	155118	26842	1074109	46223	111258	0	0	8208	469894	0	0
2024-08-10 01:14:47			0	39843	0	0	0	30241	28850	155154	26821	1074109	46223	111258	0	0	8207	470703	0	0
2024-08-10 01:15:47			0	39843	0	0	0	30238	28850	155118	26812	1074109	46223	111257	0	0	8207	470703	0	0
2024-08-10 01:16:47			0	39833	0	0	0	30236	28840	155058	26993	1074091	46223	111256	0	0	8206	471082	0	0
2024-08-10 01:17:47			0	39844	0	0	0	30241	28840	155130	26826	1074109	46234	111258	0	0	8207	470695	0	0
2024-08-10 01:18:47			0	39843	0	0	0	30225	28840	155122	26840	1074118	46223	111252	0	0	8207	470730	0	0
2024-08-10 01:19:47			0	39856	0	0	0	30225	28840	155150	27128	1074136	46222	111252	0	0	8207	470273	0	0
2024-08-10 01:20:47			0	39851	0	0	0	30233	28830	155014	27041	1074127	46210	111255	0	0	8207	470476	0	0
2024-08-10 01:21:47			0	39845	0	0	0	30228	28850	155114	26729	1074127	46235	111253	0	0	8207	470632	0	0
2024-08-10 01:22:47			0	39858	0	0	0	30228	28840	155102	27112	1074082	46234	111253	0	0	8208	470202	0	0
2024-08-10 01:23:47			0	39850	0	0	0	30233	28830	155186	26733	1074118	46210	111255	0	0	8207	470511	0	0
2024-08-10 01:24:47			0	39838	0	0	0	30238	28840	155090	26961	1074091	46235	111257	0	0	8206	470906	0	0
2024-08-10 01:25:47			0	39859	0	0	0	30223	28830	155082	27123	1074100	46233	111251	0	0	8208	470194	0	0
2024-08-10 01:26:47			0	39852	0	0	0	30223	28840	155102	27052	1074082	46245	111251	0	0	8207	470413	0	0
2024-08-10 01:27:47			0	39861	0	0	0	30220	28830	155110	27027	1074073	46221	111250	0	0	8208	470124	0	0
2024-08-10 01:28:47			0	39826	0	0	0	30220	28830	155118	27074	1074091	46221	111250	0	0	8206	471356	0	0
2024-08-10 01:29:47			0	39826	0	0	0	30215	28830	155234	26857	1074064	46221	111248	0	0	8206	471356	0	0
2024-08-10 01:30:47			0	39859	0	0	0	30215	28830	155162	26970	1074019	46221	111248	0	0	8208	470194	0	0
2024-08-10 01:31:47			0	39842	0	0	0	30212	28820	155062	26904	1074028	46221	111247	0	0	8207	470820	0	0
2024-08-10 01:32:47			0	39854	0	0	0	30207	28820	155122	27007	1073947	46221	111245	0	0	8208	470397	0	0
2024-08-10 01:33:47			0	39832	0	0	0	30207	28820	155110	27057	1074001	46244	111245	0	0	8206	471172	0	0
2024-08-10 01:34:47			0	39825	0	0	0	30202	28810	155106	27157	1074010	46231	111243	0	0	8206	471446	0	0
2024-08-10 01:35:47			0	39848	0	0	0	30205	28810	155030	27026	1073956	46231	111244	0	0	8207	470636	0	0
2024-08-10 01:36:47			0	39843	0	0	0	30205	28820	155122	27086	1073965	46232	111244	0	0	8207	470785	0	0
2024-08-10 01:37:47			0	39826	0	0	0	30205	28820	155154	26892	1073965	46220	111244	0	0	8206	471383	0	0
2024-08-10 01:38:47			0	39843	0	0	0	30197	28820	155058	27144	1073992	46209	111241	0	0	8207	470785	0	0
2024-08-10 01:39:47			0	39852	0	0	0	30199	28810	155050	27183	1073866	46242	111242	0	0	8208	470495	0	0
2024-08-10 01:40:47			0	39831	0	0	0	30199	28810	155070	27196	1073920	46208	111242	0	0	8206	471234	0	0
2024-08-10 01:41:47			0	39827	0	0	0	30194	28820	155094	26889	1073938	46220	111240	0	0	8206	471348	0	0
2024-08-10 01:42:47			0	39848	0	0	0	30197	28810	155062	27149	1073848	46231	111241	0	0	8207	470636	0	0
2024-08-10 01:43:47			0	39836	0	0	0	30192	28810	155106	27138	1073974	46219	111239	0	0	8207	471058	0	0
2024-08-10 01:44:47			0	39851	0	0	0	30192	28790	155030	27033	1073812	46229	111239	0	0	8208	470585	0	0
2024-08-10 01:45:47			0	39838	0	0	0	30184	28800	155090	26955	1073938	46218	111236	0	0	8207	471015	0	0
2024-08-10 01:46:47			0	39839	0	0	0	30176	28800	155058	26785	1073875	46230	111233	0	0	8207	470980	0	0
2024-08-10 01:47:47			0	39852	0	0	0	30179	28800	155054	26916	1073884	46218	111234	0	0	8208	470522	0	0
2024-08-10 01:48:47			0	39867	0	0	0	30179	28790	155022	26859	1073857	46217	111234	0	0	8209	470022	0	0
2024-08-10 01:49:47			0	39849	0	0	0	30171	28790	155078	27013	1073857	46217	111231	0	0	8208	470655	0	0
2024-08-10 01:50:47			0	39851	0	0	0	30174	28790	155074	27107	1073803	46240	111232	0	0	8208	470585	0	0
2024-08-10 01:51:47			0	39854	0	0	0	30171	28800	155086	27015	1073875	46218	111231	0	0	8208	470452	0	0
2024-08-10 01:52:47			0	39838	0	0	0	30168	28790	155158	27000	1073830	46217	111230	0	0	8207	471042	0	0
2024-08-10 01:53:47			0	39850	0	0	0	30171	28790	155038	26663	1073866	46251	111231	0	0	8208	470620	0	0
2024-08-10 01:54:47			0	39865	0	0	0	30168	28780	155090	26961	1073794	46228	111230	0	0	8209	470119	0	0
2024-08-10 01:55:47			0	39858	0	0	0	30163	28780	155078	26791	1073713	46216	111228	0	0	8208	470366	0	0
2024-08-10 01:56:47			0	39853	0	0	0	30168	28790	155046	26781	1073722	46229	111230	0	0	8208	470514	0	0
2024-08-10 01:57:47			0	39836	0	0	0	30168	28780	155010	27218	1073785	46228	111230	0	0	8207	471140	0	0
2024-08-10 01:58:47			0	39845	0	0	0	30168	28770	155046	26935	1073713	46226	111230	0	0	8208	470851	0	0
2024-08-10 01:59:47			0	39864	0	0	0	30176	28780	155018	27118	1073785	46228	111233	0	0	8209	470155	0	0
2024-08-10 02:00:47			0	39854	0	0	0	30168	28780	155050	26856	1073704	46216	111230	0	0	8208	470507	0	0
2024-08-10 02:01:47			0	39853	0	0	0	30168	28780	154950	27081	1073812	46216	111230	0	0	8208	470542	0	0
2024-08-10 02:02:47			0	39865	0	0	0	30171	28770	154966	26845	1073802	46227	111231	0	0	8209	470147	0	0
2024-08-10 02:03:47			0	39864	0	0	0	30176	28780	154998	26736	1073812	46228	111233	0	0	8209	470155	0	0
2024-08-10 02:04:47			0	39868	0	0	0	30171	28780	154934	26785	1073731	46228	111231	0	0	8209	470014	0	0
2024-08-10 02:05:47			0	39877	0	0	0	30174	28780	155042	26965	1073794	46216	111232	0	0	8209	469698	0	0
2024-08-10 02:06:47			0	39879	0	0	0	30166	28780	155078	27100	1073794	46228	111229	0	0	8210	469627	0	0
2024-08-10 02:07:47			0	39883	0	0	0	30166	28780	154938	27001	1073704	46239	111229	0	0	8210	469487	0	0
2024-08-10 02:08:47			0	39899	0	0	0	30166	28780	155014	26942	1073785	46228	111229	0	0	8211	468924	0	0
2024-08-10 02:09:47			0	39884	0	0	0	30163	28770	154902	27102	1073793	46214	111228	0	0	8210	469479	0	0
2024-08-10 02:10:47			0	39895	0	0	0	30168	28760	154890	27112	1073757	46214	111230	0	0	8210	469119	0	0
2024-08-10 02:11:47			0	39886	0	0	0	30158	28770	154830	26991	1073668	46227	111226	0	0	8210	469408	0	0
2024-08-10 02:12:47			0	39894	0	0	0	30153	28760	154854	27013	1073596	46214	111224	0	0	8211	469154	0	0
2024-08-10 02:13:47			0	39887	0	0	0	30155	28760	154918	26698	1073731	46214	111225	0	0	8210	469400	0	0
2024-08-10 02:14:47			0	39897	0	0	0	30150	28770	154846	27052	1073766	46237	111223	0	0	8211	469022	0	0
2024-08-10 02:15:47			0	39905	0	0	0	30155	28760	154950	26847	1073748	46226	111225	0	0	8211	468768	0	0
2024-08-10 02:16:47			0	39886	0	0	0	30155	28770	154998	26975	1073686	46214	111225	0	0	8210	469408	0	0
2024-08-10 02:17:47			0	39896	0	0	0	30163	28760	154898	26885	1073784	46214	111228	0	0	8210	469084	0	0
2024-08-10 02:18:47			0	39903	0	0	0	30163	28770	154798	26890	1073713	46226	111228	0	0	8211	468811	0	0
2024-08-10 02:19:47			0	39902	0	0	0	30153	28770	154874	26684	1073793	46226	111224	0	0	8211	468846	0	0
2024-08-10 02:20:47			0	39906	0	0	0	30161	28780	154874	26696	1073704	46228	111227	0	0	8211	468679	0	0
2024-08-10 02:21:47			0	39888	0	0	0	30161	28760	154906	26850	1073650	46226	111227	0	0	8210	469365	0	0
2024-08-10 02:22:47			0	39885	0	0	0	30163	28770	154874	27026	1073695	46227	111228	0	0	8210	469444	0	0
2024-08-10 02:23:47			0	39900	0	0	0	30166	28760	154930	26830	1073704	46214	111229	0	0	8211	468944	0	0
2024-08-10 02:24:47			0	39911	0	0	0	30166	28770	154918	27171	1073695	46215	111229	0	0	8211	468530	0	0
2024-08-10 02:25:47			0	39913	0	0	0	30168	28770	154862	26873	1073695	46205	111230	0	0	8211	468460	0	0
2024-08-10 02:26:47			0	39916	0	0	0	30161	28760	154946	27029	1073668	46204	111227	0	0	8212	468382	0	0
2024-08-10 02:27:47			0	39901	0	0	0	30161	28770	154886	27123	1073686	46214	111227	0	0	8211	468881	0	0
2024-08-10 02:28:47			0	39919	0	0	0	30161	28760	154894	26984	1073641	46249	111227	0	0	8212	468277	0	0
2024-08-10 02:29:47			0	39917	0	0	0	30158	28770	154890	26918	1073713	46214	111226	0	0	8212	468320	0	0
2024-08-10 02:30:47			0	39919	0	0	0	30168	28770	154846	27105	1073713	46226	111230	0	0	8212	468249	0	0
2024-08-10 02:31:47			0	39927	0	0	0	30163	28760	154866	26786	1073784	46193	111228	0	0	8212	467996	0	0
2024-08-10 02:32:47			0	39918	0	0	0	30161	28770	154894	26691	1073695	46227	111227	0	0	8212	468284	0	0
2024-08-10 02:33:47			0	39922	0	0	0	30158	28760	154858	26935	1073704	46237	111226	0	0	8212	468171	0	0
2024-08-10 02:34:47			0	39906	0	0	0	30155	28770	154774	26887	1073713	46226	111225	0	0	8211	468706	0	0
2024-08-10 02:35:47			0	39918	0	0	0	30150	28770	154754	27015	1073686	46226	111223	0	0	8212	468284	0	0
2024-08-10 02:36:47			0	39924	0	0	0	30155	28760	154806	26913	1073677	46237	111225	0	0	8212	468101	0	0
2024-08-10 02:37:47			0	39929	0	0	0	30150	28760	154786	27116	1073677	46226	111223	0	0	8213	467925	0	0
2024-08-10 02:38:47			0	39932	0	0	0	30158	28760	154798	26968	1073704	46226	111226	0	0	8213	467820	0	0
2024-08-10 02:39:47			0	39933	0	0	0	30161	28760	154794	27171	1073623	46214	111227	0	0	8213	467785	0	0
2024-08-10 02:40:47			0	39918	0	0	0	30153	28760	154822	26748	1073695	46214	111224	0	0	8212	468312	0	0
2024-08-10 02:41:47			0	39921	0	0	0	30153	28770	154614	27064	1073686	46237	111224	0	0	8212	468179	0	0
2024-08-10 02:42:47			0	39929	0	0	0	30150	28760	154702	26972	1073704	46237	111223	0	0	8213	467925	0	0
2024-08-10 02:43:47			0	39938	0	0	0	30150	28760	154734	27301	1073731	46214	111223	0	0	8213	467610	0	0
2024-08-10 02:44:47			0	39934	0	0	0	30150	28760	154750	26892	1073704	46214	111223	0	0	8213	467750	0	0
2024-08-10 02:45:47			0	39937	0	0	0	30145	28760	154742	26948	1073668	46214	111221	0	0	8213	467645	0	0
2024-08-10 02:46:47			0	39922	0	0	0	30155	28750	154750	27005	1073569	46224	111225	0	0	8212	468198	0	0
2024-08-10 02:47:47			0	39946	0	0	0	30148	28750	154774	26960	1073685	46203	111222	0	0	8214	467356	0	0
2024-08-10 02:48:47			0	39942	0	0	0	30145	28750	154762	26941	1073605	46236	111221	0	0	8213	467497	0	0
2024-08-10 02:49:47			0	39935	0	0	0	30140	28750	154806	26946	1073676	46224	111219	0	0	8213	467742	0	0
2024-08-10 02:50:47			0	39914	0	0	0	30140	28750	154834	27104	1073650	46212	111219	0	0	8212	468479	0	0
2024-08-10 02:51:47			0	39940	0	0	0	30145	28750	154794	27154	1073569	46224	111221	0	0	8213	467567	0	0
2024-08-10 02:52:47			0	39923	0	0	0	30140	28750	154754	27116	1073569	46224	111219	0	0	8212	468163	0	0
2024-08-10 02:53:47			0	39939	0	0	0	30142	28740	154750	26941	1073614	46224	111220	0	0	8213	467629	0	0
2024-08-10 02:54:47			0	39945	0	0	0	30137	28750	154778	27045	1073605	46225	111218	0	0	8214	467391	0	0
2024-08-10 02:55:47			0	39935	0	0	0	30132	28750	154750	26987	1073596	46212	111216	0	0	8213	467742	0	0
2024-08-10 02:56:47			0	39933	0	0	0	30132	28740	154826	26811	1073587	46235	111216	0	0	8213	467839	0	0
2024-08-10 02:57:47			0	39935	0	0	0	30132	28740	154738	27090	1073560	46224	111216	0	0	8213	467769	0	0
2024-08-10 02:58:47			0	39936	0	0	0	30122	28740	154758	26668	1073578	46223	111212	0	0	8213	467734	0	0
2024-08-10 02:59:47			0	39948	0	0	0	30129	28740	154698	27029	1073470	46223	111215	0	0	8214	467313	0	0
2024-08-10 03:00:47			0	39929	0	0	0	30124	28740	154766	26951	1073551	46212	111213	0	0	8213	467980	0	0
2024-08-10 03:01:47			0	39935	0	0	0	30122	28740	154822	26762	1073524	46212	111212	0	0	8213	467769	0	0
2024-08-10 03:02:47			0	39941	0	0	0	30111	28730	154850	27185	1073461	46201	111208	0	0	8214	467586	0	0
2024-08-10 03:03:47			0	39934	0	0	0	30106	28730	154778	27052	1073488	46223	111206	0	0	8213	467831	0	0
2024-08-10 03:04:47			0	39937	0	0	0	30114	28730	154914	26965	1073515	46234	111209	0	0	8213	467726	0	0
2024-08-10 03:05:47			0	39939	0	0	0	30106	28730	154798	26781	1073479	46222	111206	0	0	8214	467656	0	0
2024-08-10 03:06:47			0	39942	0	0	0	30101	28720	154842	26852	1073470	46211	111204	0	0	8214	467578	0	0
2024-08-10 03:07:47			0	39944	0	0	0	30101	28720	154838	27097	1073497	46211	111204	0	0	8214	467508	0	0
2024-08-10 03:08:47			0	39929	0	0	0	30103	28720	154926	26878	1073443	46222	111205	0	0	8213	468034	0	0
2024-08-10 03:09:47			0	39941	0	0	0	30098	28710	154842	26762	1073371	46221	111203	0	0	8214	467640	0	0
2024-08-10 03:10:47			0	39938	0	0	0	30098	28710	154878	26935	1073344	46221	111203	0	0	8214	467745	0	0
2024-08-10 03:11:47			0	39932	0	0	0	30093	28710	154838	27052	1073416	46220	111201	0	0	8213	467956	0	0
2024-08-10 03:12:47			0	39920	0	0	0	30096	28710	154826	27093	1073389	46220	111202	0	0	8213	468377	0	0
2024-08-10 03:13:47			0	39927	0	0	0	30093	28710	154930	27086	1073335	46220	111201	0	0	8213	468131	0	0
2024-08-10 03:14:47			0	39928	0	0	0	30085	28710	154850	26915	1073335	46220	111198	0	0	8213	468096	0	0
2024-08-10 03:15:47			0	39920	0	0	0	30083	28700	154950	27057	1073398	46230	111197	0	0	8213	468404	0	0
2024-08-10 03:16:47			0	39912	0	0	0	30093	28710	155038	27171	1073281	46220	111201	0	0	8212	468658	0	0
2024-08-10 03:17:47			0	39918	0	0	0	30077	28700	154974	27192	1073371	46197	111195	0	0	8213	468474	0	0
2024-08-10 03:18:47			0	39922	0	0	0	30083	28700	154946	26661	1073326	46220	111197	0	0	8213	468334	0	0
2024-08-10 03:19:47			0	39917	0	0	0	30083	28690	154894	27178	1073335	46230	111197	0	0	8213	468537	0	0
2024-08-10 03:20:47			0	39928	0	0	0	30080	28700	154934	27140	1073263	46208	111196	0	0	8213	468123	0	0
2024-08-10 03:21:47			0	39919	0	0	0	30075	28690	154954	27050	1073245	46208	111194	0	0	8213	468466	0	0
2024-08-10 03:22:47			0	39932	0	0	0	30075	28700	154998	26908	1073344	46208	111194	0	0	8214	467983	0	0
2024-08-10 03:23:47			0	39907	0	0	0	30075	28680	155018	26791	1073254	46228	111194	0	0	8212	468915	0	0
2024-08-10 03:24:47			0	39920	0	0	0	30064	28680	155090	26863	1073209	46229	111190	0	0	8213	468458	0	0
2024-08-10 03:25:47			0	39908	0	0	0	30067	28690	155022	26791	1073254	46208	111191	0	0	8212	468853	0	0
2024-08-10 03:26:47			0	39914	0	0	0	30064	28680	154954	26901	1073236	46208	111190	0	0	8213	468669	0	0
2024-08-10 03:27:47			0	39898	0	0	0	30062	28680	154934	27234	1073209	46229	111189	0	0	8212	469231	0	0
2024-08-10 03:28:47			0	39925	0	0	0	30072	28680	154974	27107	1073263	46218	111193	0	0	8213	468283	0	0
2024-08-10 03:29:47			0	39910	0	0	0	30059	28680	154938	26845	1073227	46207	111188	0	0	8213	468810	0	0
2024-08-10 03:30:47			0	39904	0	0	0	30064	28670	155038	26712	1073218	46216	111190	0	0	8212	469048	0	0
2024-08-10 03:31:47			0	39917	0	0	0	30057	28680	155042	26967	1073182	46229	111187	0	0	8213	468564	0	0
2024-08-10 03:32:47			0	39899	0	0	0	30059	28660	155006	27064	1073101	46227	111188	0	0	8212	469250	0	0
2024-08-10 03:33:47			0	39896	0	0	0	30062	28670	154966	26876	1073164	46216	111189	0	0	8212	469329	0	0
2024-08-10 03:34:47			0	39906	0	0	0	30054	28660	155066	26953	1073173	46205	111186	0	0	8212	469004	0	0
2024-08-10 03:35:47			0	39896	0	0	0	30051	28660	155010	26816	1073074	46227	111185	0	0	8212	469356	0	0
2024-08-10 03:36:47			0	39902	0	0	0	30059	28660	155046	26958	1073128	46206	111188	0	0	8212	469145	0	0
2024-08-10 03:37:47			0	39906	0	0	0	30041	28660	155058	27043	1073182	46216	111181	0	0	8213	469004	0	0
2024-08-10 03:38:47			0	39891	0	0	0	30044	28660	154946	26637	1073146	46205	111182	0	0	8212	469532	0	0
2024-08-10 03:39:47			0	39896	0	0	0	30044	28650	155014	26812	1073101	46204	111182	0	0	8212	469383	0	0
2024-08-10 03:40:47			0	39894	0	0	0	30038	28650	155050	26741	1073110	46226	111180	0	0	8212	469453	0	0
2024-08-10 03:41:47			0	39892	0	0	0	30033	28650	155118	26970	1073047	46204	111178	0	0	8212	469524	0	0
2024-08-10 03:42:47			0	39886	0	0	0	30036	28640	155066	26731	1073091	46214	111179	0	0	8212	469762	0	0
2024-08-10 03:43:47			0	39900	0	0	0	30033	28650	155074	27048	1073110	46226	111178	0	0	8212	469242	0	0
2024-08-10 03:44:47			0	39886	0	0	0	30041	28640	155142	26814	1073118	46214	111181	0	0	8211	469762	0	0
2024-08-10 03:45:47			0	39882	0	0	0	30036	28640	155062	26922	1073082	46203	111179	0	0	8211	469903	0	0
2024-08-10 03:46:47			0	39881	0	0	0	30046	28650	155170	26672	1072993	46204	111183	0	0	8211	469911	0	0
2024-08-10 03:47:47			0	39890	0	0	0	30041	28640	155142	26623	1073091	46225	111181	0	0	8212	469621	0	0
2024-08-10 03:48:47			0	39878	0	0	0	30036	28640	155090	26915	1073055	46213	111179	0	0	8211	470043	0	0
2024-08-10 03:49:47			0	39895	0	0	0	30033	28640	155126	27066	1073109	46213	111178	0	0	8212	469445	0	0
2024-08-10 03:50:47			0	39874	0	0	0	30044	28640	155118	26889	1073028	46213	111182	0	0	8211	470184	0	0
2024-08-10 03:51:47			0	39902	0	0	0	30028	28640	155042	27064	1073082	46236	111176	0	0	8213	469199	0	0
2024-08-10 03:52:47			0	39874	0	0	0	30036	28640	155042	27008	1073091	46225	111179	0	0	8211	470184	0	0
2024-08-10 03:53:47			0	39873	0	0	0	30036	28620	155102	27064	1072974	46211	111179	0	0	8211	470274	0	0
2024-08-10 03:54:47			0	39895	0	0	0	30031	28640	155066	27020	1073001	46224	111177	0	0	8212	469445	0	0
2024-08-10 03:55:47			0	39885	0	0	0	30018	28620	155178	26800	1072938	46211	111172	0	0	8212	469852	0	0
2024-08-10 03:56:47			0	39874	0	0	0	30023	28630	155146	26960	1073019	46203	111174	0	0	8211	470211	0	0
2024-08-10 03:57:47			0	39885	0	0	0	30015	28630	155114	27140	1072983	46212	111171	0	0	8212	469824	0	0
2024-08-10 03:58:47			0	39878	0	0	0	30010	28630	155126	26812	1072992	46224	111169	0	0	8211	470071	0	0
2024-08-10 03:59:47			0	39874	0	0	0	30012	28630	155094	27088	1072992	46203	111170	0	0	8211	470211	0	0
2024-08-10 04:00:47			0	39872	0	0	0	30010	28610	155218	26915	1072956	46189	111169	0	0	8211	470336	0	0
2024-08-10 04:01:47			0	39888	0	0	0	30012	28610	155150	27062	1072929	46211	111170	0	0	8212	469773	0	0
2024-08-10 04:02:47			0	39871	0	0	0	30005	28620	155138	27088	1072938	46222	111167	0	0	8211	470344	0	0
2024-08-10 04:03:47			0	39881	0	0	0	30015	28610	155170	26866	1072866	46200	111171	0	0	8211	470019	0	0
2024-08-10 04:04:47			0	39861	0	0	0	30007	28610	155198	27053	1072902	46201	111168	0	0	8210	470723	0	0
2024-08-10 04:05:47			0	39877	0	0	0	30002	28610	155122	27138	1072875	46211	111166	0	0	8211	470160	0	0
2024-08-10 04:06:47			0	39860	0	0	0	30002	28610	155126	26743	1072956	46211	111166	0	0	8210	470759	0	0
2024-08-10 04:07:47			0	39881	0	0	0	30005	28600	155126	26987	1072911	46209	111167	0	0	8212	470047	0	0
2024-08-10 04:08:47			0	39876	0	0	0	30002	28620	155106	26838	1072857	46222	111166	0	0	8211	470168	0	0
2024-08-10 04:09:47			0	39872	0	0	0	30002	28610	155170	26979	1072893	46210	111166	0	0	8211	470336	0	0
2024-08-10 04:10:47			0	39849	0	0	0	30007	28600	155230	26790	1072794	46220	111168	0	0	8210	471174	0	0
2024-08-10 04:11:47			0	39857	0	0	0	29999	28600	155134	26871	1072857	46220	111165	0	0	8210	470892	0	0
2024-08-10 04:12:47			0	39854	0	0	0	30002	28600	155178	26965	1072911	46209	111166	0	0	8210	470997	0	0
2024-08-10 04:13:47			0	39855	0	0	0	29997	28610	155150	26590	1072866	46210	111164	0	0	8210	470935	0	0
2024-08-10 04:14:47			0	39850	0	0	0	29994	28590	155158	26486	1072812	46209	111163	0	0	8210	471166	0	0
2024-08-10 04:15:47			0	39849	0	0	0	29992	28590	155226	26693	1072839	46199	111162	0	0	8210	471201	0	0
2024-08-10 04:16:47			0	39831	0	0	0	29992	28600	155278	26897	1072830	46209	111162	0	0	8209	471808	0	0
2024-08-10 04:17:47			0	39834	0	0	0	29992	28590	155278	26996	1072812	46199	111162	0	0	8209	471729	0	0
2024-08-10 04:18:47			0	39836	0	0	0	29989	28600	155290	27060	1072768	46209	111161	0	0	8209	471632	0	0
2024-08-10 04:19:47			0	39832	0	0	0	29984	28590	155366	26668	1072866	46209	111159	0	0	8209	471800	0	0
2024-08-10 04:20:47			0	39845	0	0	0	29981	28590	155290	26878	1072785	46209	111158	0	0	8210	471342	0	0
2024-08-10 04:21:47			0	39834	0	0	0	29976	28590	155366	26802	1072776	46220	111156	0	0	8209	471729	0	0
2024-08-10 04:22:47			0	39850	0	0	0	29973	28580	155278	27220	1072812	46197	111155	0	0	8210	471193	0	0
2024-08-10 04:23:47			0	39841	0	0	0	29976	28590	155366	27062	1072776	46208	111156	0	0	8210	471483	0	0
2024-08-10 04:24:47			0	39829	0	0	0	29973	28580	155358	26942	1072740	46208	111155	0	0	8209	471933	0	0
2024-08-10 04:25:47			0	39840	0	0	0	29971	28580	155414	27092	1072767	46197	111154	0	0	8210	471545	0	0
2024-08-10 04:26:47			0	39848	0	0	0	29973	28580	155474	26927	1072785	46218	111155	0	0	8210	471263	0	0
2024-08-10 04:27:47			0	39834	0	0	0	29966	28580	155458	26694	1072705	46208	111152	0	0	8209	471757	0	0
2024-08-10 04:28:47			0	39834	0	0	0	29966	28570	155366	26788	1072695	46196	111152	0	0	8209	471784	0	0
2024-08-10 04:29:47			0	39835	0	0	0	29966	28570	155406	26889	1072749	46196	111152	0	0	8209	471749	0	0
2024-08-10 04:30:47			0	39814	0	0	0	29963	28570	155314	27001	1072695	46207	111151	0	0	8208	472490	0	0
2024-08-10 04:31:47			0	39837	0	0	0	29953	28560	155310	26955	1072650	46206	111147	0	0	8210	471706	0	0
2024-08-10 04:32:47			0	39824	0	0	0	29953	28570	155346	26823	1072686	46207	111147	0	0	8209	472137	0	0
2024-08-10 04:33:47			0	39820	0	0	0	29950	28570	155426	26720	1072660	46207	111146	0	0	8209	472278	0	0
2024-08-10 04:34:47			0	39824	0	0	0	29955	28560	155450	26540	1072677	46206	111148	0	0	8209	472164	0	0
2024-08-10 04:35:47			0	39820	0	0	0	29948	28560	155342	26757	1072650	46216	111145	0	0	8209	472305	0	0
2024-08-10 04:36:47			0	39812	0	0	0	29953	28560	155566	26748	1072624	46206	111147	0	0	8208	472588	0	0
2024-08-10 04:37:47			0	39824	0	0	0	29950	28560	155490	26948	1072677	46216	111146	0	0	8209	472164	0	0
2024-08-10 04:38:47			0	39819	0	0	0	29953	28550	155554	26684	1072606	46205	111147	0	0	8209	472368	0	0
2024-08-10 04:39:47			0	39820	0	0	0	29942	28550	155518	26793	1072659	46194	111143	0	0	8209	472333	0	0
2024-08-10 04:40:47			0	39805	0	0	0	29948	28550	155634	26602	1072623	46215	111145	0	0	8208	472862	0	0
2024-08-10 04:41:47			0	39800	0	0	0	29948	28550	155490	26809	1072596	46194	111145	0	0	8208	473039	0	0
2024-08-10 04:42:47			0	39797	0	0	0	29942	28550	155522	26739	1072570	46194	111143	0	0	8208	473145	0	0
2024-08-10 04:43:47			0	39804	0	0	0	29942	28550	155582	26613	1072543	46194	111143	0	0	8208	472897	0	0
2024-08-10 04:44:47			0	39805	0	0	0	29935	28540	155526	26826	1072578	46203	111140	0	0	8208	472889	0	0
2024-08-10 04:45:47			0	39795	0	0	0	29927	28540	155482	26682	1072534	46214	111137	0	0	8208	473243	0	0
2024-08-10 04:46:47			0	39800	0	0	0	29940	28530	155626	26944	1072569	46213	111142	0	0	8208	473093	0	0
2024-08-10 04:47:47			0	39781	0	0	0	29927	28530	155622	26882	1072543	46203	111137	0	0	8207	473765	0	0
2024-08-10 04:48:47			0	39793	0	0	0	29927	28540	155546	26866	1072551	46213	111137	0	0	8208	473313	0	0
2024-08-10 04:49:47			0	39773	0	0	0	29929	28540	155602	27156	1072525	46213	111138	0	0	8206	474020	0	0
2024-08-10 04:50:47			0	39772	0	0	0	29919	28520	155690	26613	1072470	46202	111134	0	0	8206	474110	0	0
2024-08-10 04:51:47			0	39765	0	0	0	29919	28530	155574	26563	1072516	46203	111134	0	0	8206	474331	0	0
2024-08-10 04:52:47			0	39790	0	0	0	29919	28530	155618	26734	1072453	46203	111134	0	0	8208	473447	0	0
2024-08-10 04:53:47			0	39775	0	0	0	29922	28530	155690	26778	1072489	46192	111135	0	0	8207	473977	0	0
2024-08-10 04:54:47			0	39760	0	0	0	29911	28530	155654	26963	1072516	46213	111131	0	0	8206	474508	0	0
2024-08-10 04:55:47			0	39782	0	0	0	29924	28530	155662	26694	1072435	46203	111136	0	0	8207	473729	0	0
2024-08-10 04:56:47			0	39777	0	0	0	29906	28520	155722	26722	1072434	46212	111129	0	0	8207	473934	0	0
2024-08-10 04:57:47			0	39766	0	0	0	29919	28530	155694	26726	1072462	46203	111134	0	0	8206	474295	0	0
2024-08-10 04:58:47			0	39752	0	0	0	29903	28520	155706	27046	1072407	46212	111128	0	0	8206	474818	0	0
2024-08-10 04:59:47			0	39760	0	0	0	29914	28520	155734	26897	1072461	46201	111132	0	0	8206	474535	0	0
2024-08-10 05:00:47			0	39766	0	0	0	29914	28520	155690	26871	1072461	46201	111132	0	0	8206	474323	0	0
2024-08-10 05:01:47			0	39765	0	0	0	29911	28520	155738	27052	1072416	46224	111131	0	0	8206	474358	0	0
2024-08-10 05:02:47			0	39764	0	0	0	29906	28520	155742	26901	1072434	46201	111129	0	0	8206	474393	0	0
2024-08-10 05:03:47			0	39761	0	0	0	29909	28520	155702	26932	1072470	46212	111130	0	0	8206	474500	0	0
2024-08-10 05:04:47			0	39757	0	0	0	29911	28520	155738	26762	1072461	46190	111131	0	0	8206	474641	0	0
2024-08-10 05:05:47			0	39760	0	0	0	29911	28520	155830	26892	1072488	46201	111131	0	0	8206	474535	0	0
2024-08-10 05:06:47			0	39752	0	0	0	29914	28520	155734	26932	1072524	46202	111132	0	0	8205	474818	0	0
2024-08-10 05:07:47			0	39754	0	0	0	29916	28530	155694	26970	1072533	46203	111133	0	0	8206	474720	0	0
2024-08-10 05:08:47			0	39751	0	0	0	29916	28520	155778	26734	1072470	46224	111133	0	0	8205	474853	0	0
2024-08-10 05:09:47			0	39756	0	0	0	29924	28520	155826	26625	1072497	46212	111136	0	0	8206	474676	0	0
2024-08-10 05:10:47			0	39762	0	0	0	29914	28520	155754	26774	1072407	46201	111132	0	0	8206	474464	0	0
2024-08-10 05:11:47			0	39764	0	0	0	29922	28520	155770	26960	1072524	46202	111135	0	0	8206	474393	0	0
2024-08-10 05:12:47			0	39758	0	0	0	29922	28530	155830	27053	1072506	46203	111135	0	0	8206	474578	0	0
2024-08-10 05:13:47			0	39749	0	0	0	29922	28530	155658	26953	1072506	46203	111135	0	0	8205	474897	0	0
2024-08-10 05:14:47			0	39750	0	0	0	29924	28530	155742	26783	1072480	46203	111136	0	0	8205	474861	0	0
2024-08-10 05:15:47			0	39740	0	0	0	29924	28530	155726	26781	1072489	46192	111136	0	0	8205	475215	0	0
2024-08-10 05:16:47			0	39754	0	0	0	29919	28520	155674	26882	1072497	46202	111134	0	0	8205	474747	0	0
2024-08-10 05:17:47			0	39753	0	0	0	29919	28520	155594	27069	1072488	46212	111134	0	0	8205	474783	0	0
2024-08-10 05:18:47			0	39771	0	0	0	29922	28520	155634	26594	1072497	46212	111135	0	0	8206	474146	0	0
2024-08-10 05:19:47			0	39780	0	0	0	29924	28530	155734	27204	1072480	46192	111136	0	0	8207	473800	0	0
2024-08-10 05:20:47			0	39765	0	0	0	29916	28520	155618	27088	1072470	46191	111133	0	0	8206	474358	0	0
2024-08-10 05:21:47			0	39762	0	0	0	29922	28520	155690	26963	1072524	46191	111135	0	0	8206	474464	0	0
2024-08-10 05:22:47			0	39750	0	0	0	29922	28520	155562	27039	1072443	46212	111135	0	0	8205	474889	0	0
2024-08-10 05:23:47			0	39757	0	0	0	29922	28520	155622	27140	1072434	46190	111135	0	0	8206	474641	0	0
2024-08-10 05:24:47			0	39766	0	0	0	29924	28530	155626	26856	1072506	46203	111136	0	0	8206	474295	0	0
2024-08-10 05:25:47			0	39768	0	0	0	29929	28520	155674	26821	1072470	46202	111138	0	0	8206	474252	0	0
2024-08-10 05:26:47			0	39770	0	0	0	29924	28520	155590	26571	1072443	46202	111136	0	0	8206	474181	0	0
2024-08-10 05:27:47			0	39759	0	0	0	29927	28530	155710	26856	1072560	46192	111137	0	0	8206	474543	0	0
2024-08-10 05:28:47			0	39762	0	0	0	29924	28520	155582	26998	1072551	46202	111136	0	0	8206	474464	0	0
2024-08-10 05:29:47			0	39768	0	0	0	29922	28530	155706	27010	1072516	46203	111135	0	0	8206	474224	0	0
2024-08-10 05:30:47			0	39785	0	0	0	29924	28530	155626	26984	1072453	46203	111136	0	0	8207	473623	0	0
2024-08-10 05:31:47			0	39769	0	0	0	29919	28520	155686	26710	1072416	46202	111134	0	0	8206	474217	0	0
2024-08-10 05:32:47			0	39760	0	0	0	29916	28530	155626	26687	1072480	46213	111133	0	0	8206	474508	0	0
2024-08-10 05:33:47			0	39766	0	0	0	29911	28530	155654	26677	1072453	46203	111131	0	0	8206	474295	0	0
2024-08-10 05:34:47			0	39768	0	0	0	29906	28520	155718	26717	1072497	46212	111129	0	0	8206	474252	0	0
2024-08-10 05:35:47			0	39780	0	0	0	29898	28520	155566	27005	1072407	46190	111126	0	0	8207	473828	0	0
2024-08-10 05:36:47			0	39777	0	0	0	29898	28510	155598	26816	1072398	46190	111126	0	0	8207	473961	0	0
2024-08-10 05:37:47			0	39775	0	0	0	29896	28510	155506	26892	1072344	46190	111125	0	0	8207	474032	0	0
2024-08-10 05:38:47			0	39770	0	0	0	29885	28500	155526	26908	1072299	46200	111121	0	0	8207	474236	0	0
2024-08-10 05:39:47			0	39780	0	0	0	29883	28500	155530	26887	1072353	46189	111120	0	0	8207	473882	0	0
2024-08-10 05:40:47			0	39765	0	0	0	29883	28500	155534	26753	1072290	46199	111120	0	0	8207	474413	0	0
2024-08-10 05:41:47			0	39779	0	0	0	29870	28500	155570	26785	1072236	46210	111115	0	0	8208	473918	0	0
2024-08-10 05:42:47			0	39782	0	0	0	29875	28480	155558	26717	1072236	46187	111117	0	0	8208	473866	0	0
2024-08-10 05:43:47			0	39758	0	0	0	29870	28480	155662	26788	1072236	46198	111115	0	0	8206	474716	0	0
2024-08-10 05:44:47			0	39773	0	0	0	29872	28490	155526	26850	1072218	46175	111116	0	0	8207	474157	0	0
2024-08-10 05:45:47			0	39761	0	0	0	29864	28480	155626	27010	1072200	46186	111113	0	0	8207	474609	0	0
2024-08-10 05:46:47			0	39764	0	0	0	29862	28480	155662	26986	1072182	46220	111112	0	0	8207	474503	0	0
2024-08-10 05:47:47			0	39763	0	0	0	29854	28480	155714	26748	1072173	46186	111109	0	0	8207	474539	0	0
2024-08-10 05:48:47			0	39745	0	0	0	29851	28480	155754	27048	1072173	46208	111108	0	0	8206	475176	0	0
2024-08-10 05:49:47			0	39743	0	0	0	29836	28470	155710	26719	1072102	46196	111102	0	0	8206	475274	0	0
2024-08-10 05:50:47			0	39754	0	0	0	29846	28460	155830	26632	1072119	46208	111106	0	0	8206	474912	0	0
2024-08-10 05:51:47			0	39732	0	0	0	29833	28460	155778	26604	1072083	46207	111101	0	0	8205	475691	0	0
2024-08-10 05:52:47			0	39732	0	0	0	29831	28450	155806	27003	1072048	46206	111100	0	0	8205	475719	0	0
2024-08-10 05:53:47			0	39729	0	0	0	29836	28450	155814	26821	1072092	46194	111102	0	0	8205	475825	0	0
2024-08-10 05:54:47			0	39716	0	0	0	29841	28450	155890	26811	1072048	46183	111104	0	0	8204	476286	0	0
2024-08-10 05:55:47			0	39733	0	0	0	29828	28450	155894	27114	1072075	46194	111099	0	0	8206	475683	0	0
2024-08-10 05:56:47			0	39731	0	0	0	29838	28450	155806	26908	1072065	46206	111103	0	0	8205	475754	0	0
2024-08-10 05:57:47			0	39709	0	0	0	29823	28450	155922	26930	1072065	46183	111097	0	0	8204	476534	0	0
2024-08-10 05:58:47			0	39713	0	0	0	29828	28450	155826	26804	1072048	46206	111099	0	0	8204	476392	0	0
2024-08-10 05:59:47			0	39723	0	0	0	29825	28440	155938	26880	1072074	46215	111098	0	0	8205	476065	0	0
2024-08-10 06:00:47			0	39701	0	0	0	29833	28440	155954	26677	1072030	46216	111101	0	0	8204	476846	0	0
2024-08-10 06:01:47			0	39708	0	0	0	29833	28450	155902	26719	1072021	46206	111101	0	0	8204	476570	0	0
2024-08-10 06:02:47			0	39714	0	0	0	29844	28450	155910	27126	1072075	46216	111105	0	0	8204	476357	0	0
2024-08-10 06:03:47			0	39699	0	0	0	29844	28450	155962	26677	1072065	46206	111105	0	0	8203	476889	0	0
2024-08-10 06:04:47			0	39696	0	0	0	29836	28450	156030	26580	1072146	46194	111102	0	0	8203	476996	0	0
2024-08-10 06:05:47			0	39705	0	0	0	29844	28440	155946	26583	1072056	46194	111105	0	0	8204	476704	0	0
2024-08-10 06:06:47			0	39706	0	0	0	29841	28460	155938	26741	1072137	46207	111104	0	0	8204	476613	0	0
2024-08-10 06:07:47			0	39711	0	0	0	29841	28440	155858	27180	1072083	46206	111104	0	0	8204	476491	0	0
2024-08-10 06:08:47			0	39719	0	0	0	29844	28450	155878	26817	1072119	46206	111105	0	0	8204	476180	0	0
2024-08-10 06:09:47			0	39717	0	0	0	29849	28450	155858	26701	1072146	46194	111107	0	0	8204	476251	0	0
2024-08-10 06:10:47			0	39722	0	0	0	29841	28450	155858	26968	1072101	46216	111104	0	0	8205	476073	0	0
2024-08-10 06:11:47			0	39710	0	0	0	29849	28440	155898	27012	1072137	46206	111107	0	0	8204	476526	0	0
2024-08-10 06:12:47			0	39700	0	0	0	29844	28450	155850	26665	1072146	46206	111105	0	0	8203	476854	0	0
2024-08-10 06:13:47			0	39706	0	0	0	29846	28450	155842	26805	1072119	46194	111106	0	0	8204	476641	0	0
2024-08-10 06:14:47			0	39702	0	0	0	29841	28440	155946	26922	1072137	46194	111104	0	0	8203	476810	0	0
2024-08-10 06:15:47			0	39711	0	0	0	29841	28450	155862	26849	1072146	46194	111104	0	0	8204	476464	0	0
2024-08-10 06:16:47			0	39704	0	0	0	29844	28440	155818	26871	1072110	46206	111105	0	0	8204	476739	0	0
2024-08-10 06:17:47			0	39705	0	0	0	29838	28450	155826	27024	1072128	46194	111103	0	0	8204	476676	0	0
2024-08-10 06:18:47			0	39733	0	0	0	29838	28440	155866	26899	1072110	46194	111103	0	0	8205	475711	0	0
2024-08-10 06:19:47			0	39701	0	0	0	29838	28460	155858	27183	1072137	46217	111103	0	0	8204	476791	0	0
2024-08-10 06:20:47			0	39723	0	0	0	29846	28450	155874	27059	1072119	46194	111106	0	0	8205	476038	0	0
2024-08-10 06:21:47			0	39697	0	0	0	29849	28440	155910	27003	1072083	46194	111107	0	0	8203	476988	0	0
2024-08-10 06:22:47			0	39706	0	0	0	29846	28440	155802	27223	1072137	46216	111106	0	0	8204	476668	0	0
2024-08-10 06:23:47			0	39709	0	0	0	29841	28450	155830	26863	1072155	46206	111104	0	0	8204	476534	0	0
2024-08-10 06:24:47			0	39723	0	0	0	29849	28450	155810	26719	1072209	46206	111107	0	0	8205	476038	0	0
2024-08-10 06:25:47			0	39719	0	0	0	29854	28450	155910	26902	1072155	46206	111109	0	0	8204	476180	0	0
2024-08-10 06:26:47			0	39713	0	0	0	29846	28460	155750	26701	1072137	46207	111106	0	0	8204	476365	0	0
2024-08-10 06:27:47			0	39695	0	0	0	29846	28460	155802	27157	1072137	46207	111106	0	0	8203	477004	0	0
2024-08-10 06:28:47			0	39717	0	0	0	29849	28450	155874	26982	1072128	46194	111107	0	0	8204	476251	0	0
2024-08-10 06:29:47			0	39705	0	0	0	29851	28450	155866	26847	1072128	46194	111108	0	0	8204	476676	0	0
2024-08-10 06:30:47			0	39705	0	0	0	29838	28460	155846	26660	1072057	46195	111103	0	0	8204	476649	0	0
2024-08-10 06:31:47			0	39723	0	0	0	29841	28450	155922	27218	1072146	46194	111104	0	0	8205	476038	0	0
2024-08-10 06:32:47			0	39716	0	0	0	29844	28450	155886	26965	1072155	46206	111105	0	0	8204	476286	0	0
2024-08-10 06:33:47			0	39715	0	0	0	29844	28440	155834	27039	1072110	46194	111105	0	0	8204	476349	0	0
2024-08-10 06:34:47			0	39702	0	0	0	29838	28450	155842	27248	1072101	46206	111103	0	0	8204	476783	0	0
2024-08-10 06:35:47			0	39716	0	0	0	29836	28450	155790	26986	1072065	46194	111102	0	0	8204	476286	0	0
2024-08-10 06:36:47			0	39710	0	0	0	29828	28440	155878	27182	1072128	46182	111099	0	0	8204	476526	0	0
2024-08-10 06:37:47			0	39716	0	0	0	29838	28440	155870	27192	1072056	46194	111103	0	0	8204	476314	0	0
2024-08-10 06:38:47			0	39720	0	0	0	29825	28440	155810	26833	1072074	46205	111098	0	0	8205	476172	0	0
2024-08-10 06:39:47			0	39716	0	0	0	29828	28440	155918	26871	1072056	46183	111099	0	0	8205	476314	0	0
2024-08-10 06:40:47			0	39699	0	0	0	29823	28450	155882	27059	1072065	46206	111097	0	0	8204	476889	0	0
2024-08-10 06:41:47			0	39687	0	0	0	29823	28430	155882	27092	1072011	46192	111097	0	0	8203	477370	0	0
2024-08-10 06:42:47			0	39692	0	0	0	29812	28440	155870	26892	1072056	46194	111093	0	0	8203	477165	0	0
2024-08-10 06:43:47			0	39694	0	0	0	29823	28430	155878	26830	1072003	46213	111097	0	0	8203	477122	0	0
2024-08-10 06:44:47			0	39695	0	0	0	29820	28430	155946	26956	1071985	46192	111096	0	0	8203	477086	0	0
2024-08-10 06:45:47			0	39696	0	0	0	29807	28430	155846	27078	1071958	46192	111091	0	0	8204	477051	0	0
2024-08-10 06:46:47			0	39695	0	0	0	29799	28430	155878	27189	1071976	46203	111088	0	0	8204	477086	0	0
2024-08-10 06:47:47			0	39707	0	0	0	29805	28430	155974	26606	1071904	46181	111090	0	0	8204	476660	0	0
2024-08-10 06:48:47			0	39694	0	0	0	29805	28420	155926	26795	1071958	46180	111090	0	0	8204	477149	0	0
2024-08-10 06:49:47			0	39692	0	0	0	29794	28420	155938	26939	1071886	46191	111086	0	0	8204	477220	0	0
2024-08-10 06:50:47			0	39678	0	0	0	29792	28410	156018	27066	1071975	46190	111085	0	0	8203	477745	0	0
2024-08-10 06:51:47			0	39671	0	0	0	29794	28420	155906	26701	1071904	46191	111086	0	0	8202	477966	0	0
2024-08-10 06:52:47			0	39671	0	0	0	29786	28420	156034	26835	1071877	46191	111083	0	0	8203	477966	0	0
2024-08-10 06:53:47			0	39678	0	0	0	29781	28410	156114	26968	1071814	46202	111081	0	0	8203	477745	0	0
2024-08-10 06:54:47			0	39658	0	0	0	29784	28400	155998	27064	1071840	46189	111082	0	0	8202	478484	0	0
2024-08-10 06:55:47			0	39671	0	0	0	29786	28400	155986	27005	1071840	46189	111083	0	0	8202	478022	0	0
2024-08-10 06:56:47			0	39654	0	0	0	29789	28400	156014	26934	1071786	46201	111084	0	0	8201	478626	0	0
2024-08-10 06:57:47			0	39651	0	0	0	29779	28410	156082	26739	1071832	46201	111080	0	0	8202	478705	0	0
2024-08-10 06:58:47			0	39660	0	0	0	29784	28400	156122	26953	1071813	46189	111082	0	0	8202	478413	0	0
2024-08-10 06:59:47			0	39654	0	0	0	29781	28390	156126	27026	1071777	46188	111081	0	0	8202	478654	0	0
2024-08-10 07:00:47			0	39640	0	0	0	29768	28400	156102	26958	1071813	46178	111076	0	0	8201	479124	0	0
2024-08-10 07:01:47			0	39644	0	0	0	29776	28400	156158	26961	1071786	46189	111079	0	0	8201	478982	0	0
2024-08-10 07:02:47			0	39633	0	0	0	29768	28380	156130	26911	1071741	46199	111076	0	0	8201	479429	0	0
2024-08-10 07:03:47			0	39631	0	0	0	29766	28380	156282	26698	1071732	46187	111075	0	0	8200	479500	0	0
2024-08-10 07:04:47			0	39645	0	0	0	29771	28380	156354	27020	1071732	46176	111077	0	0	8201	479002	0	0
2024-08-10 07:05:47			0	39617	0	0	0	29768	28370	156410	27253	1071714	46198	111076	0	0	8200	480026	0	0
2024-08-10 07:06:47			0	39619	0	0	0	29771	28380	156314	27194	1071795	46199	111077	0	0	8200	479927	0	0
2024-08-10 07:07:47			0	39604	0	0	0	29776	28380	156366	27251	1071768	46187	111079	0	0	8199	480462	0	0
2024-08-10 07:08:47			0	39611	0	0	0	29761	28390	156314	27166	1071777	46200	111073	0	0	8199	480185	0	0
2024-08-10 07:09:47			0	39600	0	0	0	29771	28400	156398	27301	1071786	46189	111077	0	0	8199	480549	0	0
2024-08-10 07:10:47			0	39610	0	0	0	29768	28380	156446	27203	1071759	46199	111076	0	0	8199	480248	0	0
2024-08-10 07:11:47			0	39585	0	0	0	29768	28380	156394	26920	1071705	46187	111076	0	0	8198	481139	0	0
2024-08-10 07:12:47			0	39604	0	0	0	29776	28380	156482	27215	1071822	46199	111079	0	0	8199	480462	0	0
2024-08-10 07:13:47			0	39588	0	0	0	29766	28380	156454	27267	1071786	46187	111075	0	0	8198	481032	0	0
2024-08-10 07:14:47			0	39589	0	0	0	29771	28380	156394	27237	1071795	46187	111077	0	0	8198	480997	0	0
2024-08-10 07:15:47			0	39579	0	0	0	29781	28380	156438	27156	1071759	46199	111081	0	0	8197	481354	0	0
2024-08-10 07:16:47			0	39599	0	0	0	29774	28380	156354	27046	1071822	46199	111078	0	0	8199	480640	0	0
2024-08-10 07:17:47			0	39585	0	0	0	29774	28370	156350	27102	1071670	46199	111078	0	0	8198	481167	0	0
2024-08-10 07:18:47			0	39582	0	0	0	29774	28370	156506	26996	1071750	46199	111078	0	0	8198	481274	0	0
2024-08-10 07:19:47			0	39576	0	0	0	29781	28380	156474	27105	1071768	46220	111081	0	0	8197	481461	0	0
2024-08-10 07:20:47			0	39571	0	0	0	29784	28380	156510	27055	1071786	46199	111082	0	0	8197	481639	0	0
2024-08-10 07:21:47			0	39576	0	0	0	29779	28380	156642	27126	1071705	46209	111080	0	0	8197	481461	0	0
2024-08-10 07:22:47			0	39557	0	0	0	29781	28370	156474	27135	1071795	46198	111081	0	0	8196	482167	0	0
2024-08-10 07:23:47			0	39565	0	0	0	29771	28380	156566	26876	1071768	46199	111077	0	0	8197	481853	0	0
2024-08-10 07:24:47			0	39567	0	0	0	29786	28370	156558	27050	1071723	46187	111083	0	0	8196	481810	0	0
2024-08-10 07:25:47			0	39557	0	0	0	29779	28380	156610	27118	1071822	46209	111080	0	0	8196	482139	0	0
2024-08-10 07:26:47			0	39574	0	0	0	29779	28380	156610	26913	1071822	46199	111080	0	0	8197	481532	0	0
2024-08-10 07:27:47			0	39560	0	0	0	29784	28380	156522	27156	1071768	46187	111082	0	0	8196	482032	0	0
2024-08-10 07:28:47			0	39560	0	0	0	29779	28380	156634	26994	1071867	46199	111080	0	0	8196	482032	0	0
2024-08-10 07:29:47			0	39552	0	0	0	29786	28370	156602	27227	1071795	46198	111083	0	0	8196	482345	0	0
2024-08-10 07:30:47			0	39533	0	0	0	29781	28390	156666	27064	1071831	46200	111081	0	0	8195	482969	0	0
2024-08-10 07:31:47			0	39549	0	0	0	29781	28380	156750	27083	1071714	46199	111081	0	0	8196	482425	0	0
2024-08-10 07:32:47			0	39551	0	0	0	29786	28380	156590	27038	1071813	46209	111083	0	0	8196	482353	0	0
2024-08-10 07:33:47			0	39528	0	0	0	29781	28380	156678	27031	1071768	46199	111081	0	0	8194	483175	0	0
2024-08-10 07:34:47			0	39547	0	0	0	29789	28380	156746	26925	1071768	46187	111084	0	0	8195	482496	0	0
2024-08-10 07:35:47			0	39536	0	0	0	29766	28380	156758	27020	1071759	46199	111075	0	0	8195	482889	0	0
2024-08-10 07:36:47			0	39504	0	0	0	29774	28380	156854	26981	1071759	46187	111078	0	0	8193	484034	0	0
2024-08-10 07:37:47			0	39529	0	0	0	29768	28370	156734	26963	1071804	46199	111076	0	0	8195	483168	0	0
2024-08-10 07:38:47			0	39501	0	0	0	29766	28380	156854	26811	1071813	46187	111075	0	0	8193	484141	0	0
2024-08-10 07:39:47			0	39505	0	0	0	29768	28370	156798	26902	1071777	46199	111076	0	0	8193	484026	0	0
2024-08-10 07:40:47			0	39496	0	0	0	29768	28380	156894	27081	1071867	46176	111076	0	0	8193	484320	0	0
2024-08-10 07:41:47			0	39477	0	0	0	29771	28380	156906	27031	1071759	46199	111077	0	0	8192	485001	0	0
2024-08-10 07:42:47			0	39490	0	0	0	29774	28390	156966	27001	1071777	46200	111078	0	0	8192	484507	0	0
2024-08-10 07:43:47			0	39486	0	0	0	29761	28380	156906	26795	1071759	46187	111073	0	0	8192	484679	0	0
2024-08-10 07:44:47			0	39466	0	0	0	29768	28380	156926	26987	1071759	46199	111076	0	0	8191	485395	0	0
2024-08-10 07:45:47			0	39466	0	0	0	29768	28380	157006	26901	1071786	46199	111076	0	0	8191	485395	0	0
2024-08-10 07:46:47			0	39485	0	0	0	29771	28370	157038	26977	1071777	46209	111077	0	0	8192	484742	0	0
2024-08-10 07:47:47			0	39474	0	0	0	29776	28380	156954	26864	1071786	46199	111079	0	0	8191	485109	0	0
2024-08-10 07:48:47			0	39491	0	0	0	29781	28370	156946	27124	1071768	46186	111081	0	0	8192	484527	0	0
2024-08-10 07:49:47			0	39459	0	0	0	29766	28370	156986	26622	1071750	46176	111075	0	0	8191	485675	0	0
2024-08-10 07:50:47			0	39470	0	0	0	29776	28380	157154	26765	1071795	46209	111079	0	0	8191	485252	0	0
2024-08-10 07:51:47			0	39454	0	0	0	29776	28370	157126	26625	1071777	46176	111079	0	0	8190	485854	0	0
2024-08-10 07:52:47			0	39443	0	0	0	29776	28390	157078	26800	1071831	46177	111079	0	0	8190	486192	0	0
2024-08-10 07:53:47			0	39452	0	0	0	29776	28380	157098	27007	1071813	46187	111079	0	0	8190	485898	0	0
2024-08-10 07:54:47			0	39443	0	0	0	29768	28380	157098	26984	1071849	46199	111076	0	0	8190	486221	0	0
2024-08-10 07:55:47			0	39447	0	0	0	29774	28380	157222	26772	1071795	46199	111078	0	0	8190	486077	0	0
2024-08-10 07:56:47			0	39450	0	0	0	29776	28380	157250	27104	1071759	46199	111079	0	0	8190	485969	0	0
2024-08-10 07:57:47			0	39400	0	0	0	29774	28380	157085	27296	1071732	46187	111078	0	0	8187	487765	0	0
2024-08-10 07:58:47			0	39417	0	0	0	29766	28380	157166	26871	1071732	46187	111075	0	0	8188	487154	0	0
2024-08-10 07:59:47			0	39418	0	0	0	29763	28380	157066	27315	1071813	46176	111074	0	0	8188	487118	0	0
2024-08-10 08:00:47			0	39392	0	0	0	29768	28380	157181	27390	1071786	46187	111076	0	0	8187	488053	0	0
2024-08-10 08:01:47			0	39398	0	0	0	29774	28370	157241	27137	1071777	46199	111078	0	0	8187	487865	0	0
2024-08-10 08:02:47			0	39387	0	0	0	29763	28380	157277	27348	1071786	46176	111074	0	0	8187	488233	0	0
2024-08-10 08:03:47			0	39375	0	0	0	29761	28370	157293	27137	1071777	46209	111073	0	0	8186	488693	0	0
2024-08-10 08:04:47			0	39381	0	0	0	29763	28380	157253	27270	1071768	46199	111074	0	0	8186	488449	0	0
2024-08-10 08:05:47			0	39352	0	0	0	29763	28380	157261	27400	1071759	46176	111074	0	0	8185	489493	0	0
2024-08-10 08:06:47			0	39364	0	0	0	29763	28370	157253	27215	1071804	46199	111074	0	0	8185	489089	0	0
2024-08-10 08:07:47			0	39353	0	0	0	29771	28380	157405	27220	1071822	46187	111077	0	0	8185	489457	0	0
2024-08-10 08:08:47			0	39348	0	0	0	29768	28370	157429	27159	1071750	46199	111076	0	0	8184	489665	0	0
2024-08-10 08:09:47			0	39338	0	0	0	29774	28380	157393	27088	1071813	46187	111078	0	0	8184	489997	0	0
2024-08-10 08:10:47			0	39343	0	0	0	29771	28370	157445	26882	1071768	46208	111077	0	0	8184	489845	0	0
2024-08-10 08:11:47			0	39332	0	0	0	29771	28370	157421	26798	1071804	46199	111077	0	0	8183	490242	0	0
2024-08-10 08:12:47			0	39327	0	0	0	29774	28380	157445	27161	1071795	46199	111078	0	0	8183	490394	0	0
2024-08-10 08:13:47			0	39338	0	0	0	29781	28380	157477	27048	1071867	46199	111081	0	0	8184	489997	0	0
2024-08-10 08:14:47			0	39324	0	0	0	29774	28380	157513	27147	1071876	46199	111078	0	0	8183	490502	0	0
2024-08-10 08:15:47			0	39321	0	0	0	29776	28380	157445	26927	1071849	46187	111079	0	0	8183	490610	0	0
2024-08-10 08:16:47			0	39307	0	0	0	29776	28380	157505	26861	1071849	46187	111079	0	0	8182	491116	0	0
2024-08-10 08:17:47			0	39316	0	0	0	29784	28380	157601	27232	1071849	46187	111082	0	0	8182	490791	0	0
2024-08-10 08:18:47			0	39310	0	0	0	29779	28380	157609	27452	1071903	46187	111080	0	0	8182	491007	0	0
2024-08-10 08:19:47			0	39292	0	0	0	29784	28380	157565	26927	1071876	46187	111082	0	0	8181	491657	0	0
2024-08-10 08:20:47			0	39289	0	0	0	29776	28390	157597	27345	1071858	46200	111079	0	0	8181	491737	0	0
2024-08-10 08:21:47			0	39289	0	0	0	29776	28380	157673	27300	1071876	46187	111079	0	0	8181	491766	0	0
2024-08-10 08:22:47			0	39280	0	0	0	29776	28380	157565	27215	1071741	46187	111079	0	0	8180	492091	0	0
2024-08-10 08:23:47			0	39264	0	0	0	29768	28370	157597	27317	1071804	46187	111076	0	0	8180	492698	0	0
2024-08-10 08:24:47			0	39302	0	0	0	29774	28390	157717	27019	1071858	46188	111078	0	0	8182	491268	0	0
2024-08-10 08:25:47			0	39268	0	0	0	29774	28380	157621	27216	1071840	46199	111078	0	0	8180	492525	0	0
2024-08-10 08:26:47			0	39279	0	0	0	29776	28380	157533	27104	1071849	46187	111079	0	0	8180	492127	0	0
2024-08-10 08:27:47			0	39272	0	0	0	29784	28370	157661	27064	1071858	46199	111082	0	0	8180	492409	0	0
2024-08-10 08:28:47			0	39244	0	0	0	29776	28390	157681	26902	1071858	46200	111079	0	0	8178	493364	0	0
2024-08-10 08:29:47			0	39265	0	0	0	29779	28390	157681	27114	1071858	46200	111080	0	0	8180	492605	0	0
2024-08-10 08:30:47			0	39262	0	0	0	29779	28380	157625	27029	1071876	46199	111080	0	0	8179	492742	0	0
2024-08-10 08:31:47			0	39246	0	0	0	29774	28380	157637	27052	1071840	46209	111078	0	0	8178	493321	0	0
2024-08-10 08:32:47			0	39259	0	0	0	29776	28390	157669	27097	1071885	46188	111079	0	0	8179	492822	0	0
2024-08-10 08:33:47			0	39245	0	0	0	29776	28390	157613	27107	1071858	46210	111079	0	0	8178	493328	0	0
2024-08-10 08:34:47			0	39250	0	0	0	29789	28380	157689	26876	1071867	46199	111084	0	0	8178	493176	0	0
2024-08-10 08:35:47			0	39239	0	0	0	29784	28400	157713	26845	1071867	46189	111082	0	0	8178	493517	0	0
2024-08-10 08:36:47			0	39261	0	0	0	29784	28380	157657	26923	1071768	46187	111082	0	0	8179	492778	0	0
2024-08-10 08:37:47			0	39248	0	0	0	29792	28390	157669	27152	1071858	46200	111085	0	0	8178	493220	0	0
2024-08-10 08:38:47			0	39245	0	0	0	29794	28390	157693	27010	1071804	46210	111086	0	0	8178	493328	0	0
2024-08-10 08:39:47			0	39248	0	0	0	29784	28390	157737	27107	1071831	46200	111082	0	0	8178	493220	0	0
2024-08-10 08:40:47			0	39248	0	0	0	29794	28400	157721	26927	1071921	46201	111086	0	0	8178	493191	0	0
2024-08-10 08:41:47			0	39249	0	0	0	29802	28400	157629	26961	1071930	46201	111089	0	0	8178	493155	0	0
2024-08-10 08:42:47			0	39245	0	0	0	29797	28390	157765	27022	1071885	46210	111087	0	0	8178	493328	0	0
2024-08-10 08:43:47			0	39249	0	0	0	29797	28390	157761	26944	1071858	46210	111087	0	0	8178	493183	0	0
2024-08-10 08:44:47			0	39234	0	0	0	29807	28410	157773	26661	1071913	46189	111091	0	0	8177	493669	0	0
2024-08-10 08:45:47			0	39235	0	0	0	29805	28400	157741	27135	1071867	46189	111090	0	0	8177	493662	0	0
2024-08-10 08:46:47			0	39241	0	0	0	29799	28400	157753	27020	1071930	46201	111088	0	0	8178	493444	0	0
2024-08-10 08:47:47			0	39219	0	0	0	29797	28400	157769	26963	1071876	46201	111087	0	0	8177	494241	0	0
2024-08-10 08:48:47			0	39239	0	0	0	29794	28400	157701	27034	1071984	46201	111086	0	0	8178	493517	0	0
2024-08-10 08:49:47			0	39216	0	0	0	29805	28400	157741	27081	1071948	46211	111090	0	0	8176	494350	0	0
2024-08-10 08:50:47			0	39227	0	0	0	29799	28410	157741	26850	1071913	46189	111088	0	0	8177	493923	0	0
2024-08-10 08:51:47			0	39218	0	0	0	29810	28400	157769	27043	1071903	46189	111092	0	0	8176	494277	0	0
2024-08-10 08:52:47			0	39223	0	0	0	29802	28410	157801	27036	1071975	46202	111089	0	0	8177	494068	0	0
2024-08-10 08:53:47			0	39252	0	0	0	29807	28400	157777	27161	1072011	46189	111091	0	0	8178	493046	0	0
2024-08-10 08:54:47			0	39247	0	0	0	29810	28410	157789	27189	1071966	46211	111092	0	0	8178	493199	0	0
2024-08-10 08:55:47			0	39228	0	0	0	29810	28410	157733	27131	1072002	46212	111092	0	0	8177	493887	0	0
2024-08-10 08:56:47			0	39207	0	0	0	29818	28410	157797	27343	1072020	46189	111095	0	0	8176	494647	0	0
2024-08-10 08:57:47			0	39235	0	0	0	29807	28410	157717	27138	1071993	46201	111091	0	0	8177	493633	0	0
2024-08-10 08:58:47			0	39211	0	0	0	29820	28420	157781	27038	1072011	46203	111096	0	0	8176	494474	0	0
2024-08-10 08:59:47			0	39236	0	0	0	29815	28410	157809	27206	1072002	46212	111094	0	0	8177	493597	0	0
2024-08-10 09:00:47			0	39243	0	0	0	29823	28430	157801	27138	1072110	46191	111097	0	0	8178	493286	0	0
2024-08-10 09:01:47			0	39234	0	0	0	29828	28420	157733	27445	1072047	46191	111099	0	0	8177	493641	0	0
2024-08-10 09:02:47			0	39231	0	0	0	29825	28420	157721	27074	1072065	46213	111098	0	0	8177	493749	0	0
2024-08-10 09:03:47			0	39236	0	0	0	29823	28430	157689	27222	1072056	46213	111097	0	0	8177	493540	0	0
2024-08-10 09:04:47			0	39218	0	0	0	29818	28430	157777	26852	1072029	46213	111095	0	0	8176	494192	0	0
2024-08-10 09:05:47			0	39234	0	0	0	29833	28420	157689	26814	1072101	46203	111101	0	0	8177	493641	0	0
2024-08-10 09:06:47			0	39238	0	0	0	29841	28420	157781	26960	1072074	46203	111104	0	0	8177	493496	0	0
2024-08-10 09:07:47			0	39216	0	0	0	29833	28430	157777	27209	1072119	46214	111101	0	0	8176	494264	0	0
2024-08-10 09:08:47			0	39235	0	0	0	29831	28430	157753	26897	1072173	46192	111100	0	0	8177	493576	0	0
2024-08-10 09:09:47			0	39228	0	0	0	29841	28430	157745	26741	1072092	46214	111104	0	0	8177	493829	0	0
2024-08-10 09:10:47			0	39232	0	0	0	29841	28430	157657	27055	1072065	46204	111104	0	0	8177	493685	0	0
2024-08-10 09:11:47			0	39229	0	0	0	29836	28440	157829	27050	1072047	46215	111102	0	0	8177	493765	0	0
2024-08-10 09:12:47			0	39232	0	0	0	29836	28440	157677	27213	1072110	46206	111102	0	0	8177	493656	0	0
2024-08-10 09:13:47			0	39232	0	0	0	29836	28430	157785	26984	1072092	46181	111102	0	0	8177	493685	0	0
2024-08-10 09:14:47			0	39221	0	0	0	29838	28440	157733	26941	1072101	46182	111103	0	0	8176	494054	0	0
2024-08-10 09:15:47			0	39235	0	0	0	29844	28440	157749	27270	1072137	46194	111105	0	0	8177	493547	0	0
2024-08-10 09:16:47			0	39228	0	0	0	29841	28440	157789	27154	1072164	46216	111104	0	0	8177	493801	0	0
2024-08-10 09:17:47			0	39223	0	0	0	29838	28440	157917	27140	1072056	46216	111103	0	0	8176	493982	0	0
2024-08-10 09:18:47			0	39225	0	0	0	29844	28450	157769	27007	1072173	46216	111105	0	0	8176	493881	0	0
2024-08-10 09:19:47			0	39221	0	0	0	29846	28440	157797	27095	1072191	46216	111106	0	0	8176	494054	0	0
2024-08-10 09:20:47			0	39221	0	0	0	29851	28450	157773	27118	1072173	46206	111108	0	0	8176	494026	0	0
2024-08-10 09:21:47			0	39234	0	0	0	29854	28450	157793	26715	1072290	46194	111109	0	0	8177	493555	0	0
2024-08-10 09:22:47			0	39229	0	0	0	29867	28460	157717	26902	1072218	46207	111114	0	0	8176	493708	0	0
2024-08-10 09:23:47			0	39214	0	0	0	29867	28460	157785	26791	1072218	46207	111114	0	0	8175	494251	0	0
2024-08-10 09:24:47			0	39216	0	0	0	29864	28450	157761	27114	1072281	46194	111113	0	0	8176	494207	0	0
2024-08-10 09:25:47			0	39227	0	0	0	29864	28460	157705	26920	1072299	46195	111113	0	0	8176	493780	0	0
2024-08-10 09:26:47			0	39225	0	0	0	29870	28460	157673	26948	1072326	46207	111115	0	0	8176	493852	0	0
2024-08-10 09:27:47			0	39213	0	0	0	29875	28460	157657	27095	1072272	46217	111117	0	0	8175	494287	0	0
2024-08-10 09:28:47			0	39210	0	0	0	29867	28470	157773	26894	1072272	46196	111114	0	0	8175	494367	0	0
2024-08-10 09:29:47			0	39226	0	0	0	29867	28470	157797	27156	1072371	46208	111114	0	0	8176	493788	0	0
2024-08-10 09:30:47			0	39229	0	0	0	29877	28470	157673	26864	1072407	46208	111118	0	0	8176	493679	0	0
2024-08-10 09:31:47			0	39222	0	0	0	29880	28470	157717	27055	1072299	46218	111119	0	0	8176	493932	0	0
2024-08-10 09:32:47			0	39233	0	0	0	29877	28480	157745	27100	1072362	46208	111118	0	0	8176	493506	0	0
2024-08-10 09:33:47			0	39208	0	0	0	29883	28470	157765	27208	1072353	46196	111120	0	0	8175	494440	0	0
2024-08-10 09:34:47			0	39246	0	0	0	29883	28480	157821	26960	1072371	46220	111120	0	0	8177	493035	0	0
2024-08-10 09:35:47			0	39208	0	0	0	29888	28480	157885	26960	1072344	46220	111122	0	0	8175	494411	0	0
2024-08-10 09:36:47			0	39224	0	0	0	29890	28480	157833	27123	1072344	46209	111123	0	0	8176	493831	0	0
2024-08-10 09:37:47			0	39216	0	0	0	29893	28480	157877	26953	1072416	46208	111124	0	0	8175	494121	0	0
2024-08-10 09:38:47			0	39227	0	0	0	29893	28490	157793	27152	1072434	46209	111124	0	0	8176	493694	0	0
2024-08-10 09:39:47			0	39215	0	0	0	29898	28490	157901	26927	1072470	46209	111126	0	0	8175	494129	0	0
2024-08-10 09:40:47			0	39204	0	0	0	29906	28490	157825	27230	1072524	46220	111129	0	0	8174	494527	0	0
2024-08-10 09:41:47			0	39228	0	0	0	29898	28500	157761	27119	1072479	46210	111126	0	0	8176	493629	0	0
2024-08-10 09:42:47			0	39207	0	0	0	29906	28500	157837	26814	1072479	46221	111129	0	0	8175	494390	0	0
2024-08-10 09:43:47			0	39205	0	0	0	29916	28490	157821	27100	1072443	46209	111133	0	0	8174	494491	0	0
2024-08-10 09:44:47			0	39221	0	0	0	29909	28500	157737	26654	1072515	46200	111130	0	0	8175	493883	0	0
2024-08-10 09:45:47			0	39209	0	0	0	29916	28510	157773	26883	1072578	46223	111133	0	0	8175	494289	0	0
2024-08-10 09:46:47			0	39208	0	0	0	29922	28520	157701	26989	1072596	46212	111135	0	0	8174	494297	0	0
2024-08-10 09:47:47			0	39214	0	0	0	29919	28510	157777	27282	1072605	46212	111134	0	0	8175	494108	0	0
2024-08-10 09:48:47			0	39205	0	0	0	29935	28530	157733	27201	1072641	46213	111140	0	0	8174	494377	0	0
2024-08-10 09:49:47			0	39191	0	0	0	29945	28520	157681	27095	1072596	46223	111144	0	0	8173	494912	0	0
2024-08-10 09:50:47			0	39194	0	0	0	29935	28530	157741	27199	1072614	46225	111140	0	0	8173	494775	0	0
2024-08-10 09:51:47			0	39212	0	0	0	29950	28530	157741	26930	1072749	46213	111146	0	0	8174	494123	0	0
2024-08-10 09:52:47			0	39211	0	0	0	29953	28530	157713	26823	1072722	46203	111147	0	0	8174	494159	0	0
2024-08-10 09:53:47			0	39209	0	0	0	29950	28540	157625	26925	1072767	46225	111146	0	0	8174	494203	0	0
2024-08-10 09:54:47			0	39221	0	0	0	29955	28530	157669	26932	1072731	46213	111148	0	0	8175	493797	0	0
2024-08-10 09:55:47			0	39200	0	0	0	29955	28540	157749	27046	1072686	46203	111148	0	0	8174	494529	0	0
2024-08-10 09:56:47			0	39203	0	0	0	29963	28540	157713	26942	1072740	46213	111151	0	0	8174	494420	0	0
2024-08-10 09:57:47			0	39202	0	0	0	29963	28550	157629	27152	1072785	46227	111151	0	0	8174	494428	0	0
2024-08-10 09:58:47			0	39202	0	0	0	29961	28550	157749	26987	1072812	46215	111150	0	0	8174	494428	0	0
2024-08-10 09:59:47			0	39197	0	0	0	29968	28550	157717	27234	1072812	46215	111153	0	0	8173	494609	0	0
2024-08-10 10:00:47			0	39207	0	0	0	29971	28550	157705	26991	1072812	46215	111154	0	0	8174	494247	0	0
2024-08-10 10:01:47			0	39201	0	0	0	29958	28560	157653	26876	1072749	46227	111149	0	0	8174	494436	0	0
2024-08-10 10:02:47			0	39203	0	0	0	29963	28550	157653	26765	1072785	46205	111151	0	0	8174	494392	0	0
2024-08-10 10:03:47			0	39196	0	0	0	29955	28550	157637	26785	1072821	46205	111148	0	0	8173	494646	0	0
2024-08-10 10:04:47			0	39190	0	0	0	29971	28560	157633	27038	1072803	46215	111154	0	0	8173	494834	0	0
2024-08-10 10:05:47			0	39183	0	0	0	29961	28560	157753	27074	1072830	46215	111150	0	0	8173	495088	0	0
2024-08-10 10:06:47			0	39200	0	0	0	29968	28560	157729	26981	1072776	46227	111153	0	0	8173	494472	0	0
2024-08-10 10:07:47			0	39171	0	0	0	29966	28560	157797	27222	1072830	46215	111152	0	0	8172	495523	0	0
2024-08-10 10:08:47			0	39194	0	0	0	29971	28560	157713	26984	1072785	46216	111154	0	0	8173	494689	0	0
2024-08-10 10:09:47			0	39179	0	0	0	29966	28550	157801	26916	1072848	46205	111152	0	0	8172	495262	0	0
2024-08-10 10:10:47			0	39169	0	0	0	29979	28560	157813	26628	1072893	46206	111157	0	0	8171	495596	0	0
2024-08-10 10:11:47			0	39176	0	0	0	29979	28570	157689	27066	1072821	46217	111157	0	0	8172	495313	0	0
2024-08-10 10:12:47			0	39180	0	0	0	29989	28560	157757	27128	1072866	46228	111161	0	0	8172	495197	0	0
2024-08-10 10:13:47			0	39165	0	0	0	29986	28560	157853	27093	1072947	46216	111160	0	0	8171	495741	0	0
2024-08-10 10:14:47			0	39154	0	0	0	29994	28570	157809	27050	1072956	46207	111163	0	0	8170	496111	0	0
2024-08-10 10:15:47			0	39177	0	0	0	29989	28570	157789	27211	1072965	46229	111161	0	0	8172	495277	0	0
2024-08-10 10:16:47			0	39182	0	0	0	29992	28570	157805	26996	1072911	46217	111162	0	0	8172	495096	0	0
2024-08-10 10:17:47			0	39179	0	0	0	29992	28580	157789	27050	1072974	46208	111162	0	0	8172	495176	0	0
2024-08-10 10:18:47			0	39174	0	0	0	29999	28590	157773	26996	1072992	46220	111165	0	0	8172	495328	0	0
2024-08-10 10:19:47			0	39155	0	0	0	30002	28590	157749	27183	1072992	46220	111166	0	0	8170	496018	0	0
2024-08-10 10:20:47			0	39161	0	0	0	30007	28590	157865	26979	1073028	46220	111168	0	0	8171	495800	0	0
2024-08-10 10:21:47			0	39141	0	0	0	30007	28600	157793	27071	1073091	46232	111168	0	0	8170	496497	0	0
2024-08-10 10:22:47			0	39160	0	0	0	30025	28600	157789	26922	1073073	46220	111175	0	0	8170	495807	0	0
2024-08-10 10:23:47			0	39166	0	0	0	30010	28600	157757	27092	1073064	46232	111169	0	0	8171	495590	0	0
2024-08-10 10:24:47			0	39164	0	0	0	30015	28600	157737	27079	1073073	46220	111171	0	0	8171	495662	0	0
2024-08-10 10:25:47			0	39148	0	0	0	30015	28600	157753	27034	1073073	46220	111171	0	0	8170	496243	0	0
2024-08-10 10:26:47			0	39165	0	0	0	30020	28610	157737	26748	1073118	46222	111173	0	0	8171	495597	0	0
2024-08-10 10:27:47			0	39154	0	0	0	30025	28610	157785	27072	1073028	46233	111175	0	0	8170	495996	0	0
2024-08-10 10:28:47			0	39147	0	0	0	30015	28610	157817	26864	1073064	46234	111171	0	0	8170	496250	0	0
2024-08-10 10:29:47			0	39172	0	0	0	30018	28610	157761	26793	1073109	46210	111172	0	0	8171	495343	0	0
2024-08-10 10:30:47			0	39157	0	0	0	30020	28610	157685	27060	1073109	46233	111173	0	0	8170	495887	0	0
2024-08-10 10:31:47			0	39170	0	0	0	30025	28620	157721	26755	1073154	46234	111175	0	0	8171	495387	0	0
2024-08-10 10:32:47			0	39161	0	0	0	30025	28610	157769	26863	1073091	46222	111175	0	0	8170	495742	0	0
2024-08-10 10:33:47			0	39157	0	0	0	30023	28610	157753	27234	1073190	46221	111174	0	0	8170	495887	0	0
2024-08-10 10:34:47			0	39164	0	0	0	30031	28610	157909	26896	1073118	46211	111177	0	0	8170	495633	0	0
2024-08-10 10:35:47			0	39172	0	0	0	30033	28630	157813	26727	1073172	46212	111178	0	0	8171	495286	0	0
2024-08-10 10:36:47			0	39165	0	0	0	30036	28630	157749	27012	1073199	46235	111179	0	0	8171	495540	0	0
2024-08-10 10:37:47			0	39169	0	0	0	30036	28620	157753	26918	1073235	46222	111179	0	0	8171	495424	0	0
2024-08-10 10:38:47			0	39163	0	0	0	30044	28630	157709	27072	1073289	46224	111182	0	0	8170	495613	0	0
2024-08-10 10:39:47			0	39167	0	0	0	30057	28630	157649	27074	1073280	46223	111187	0	0	8170	495467	0	0
2024-08-10 10:40:47			0	39185	0	0	0	30059	28650	157817	26660	1073316	46237	111188	0	0	8171	494758	0	0
2024-08-10 10:41:47			0	39179	0	0	0	30057	28640	157597	26922	1073334	46237	111187	0	0	8171	495004	0	0
2024-08-10 10:42:47			0	39194	0	0	0	30049	28640	157613	27083	1073307	46225	111184	0	0	8172	494460	0	0
2024-08-10 10:43:47			0	39182	0	0	0	30064	28650	157681	27083	1073433	46238	111190	0	0	8171	494866	0	0
2024-08-10 10:44:47			0	39181	0	0	0	30059	28650	157585	27050	1073370	46237	111188	0	0	8171	494903	0	0
2024-08-10 10:45:47			0	39178	0	0	0	30067	28650	157585	27038	1073352	46215	111191	0	0	8171	495011	0	0
2024-08-10 10:46:47			0	39187	0	0	0	30070	28650	157565	26975	1073433	46238	111192	0	0	8171	494685	0	0
2024-08-10 10:47:47			0	39179	0	0	0	30085	28650	157713	26896	1073460	46226	111198	0	0	8171	494975	0	0
2024-08-10 10:48:47			0	39191	0	0	0	30088	28670	157609	26953	1073460	46227	111199	0	0	8171	494483	0	0
2024-08-10 10:49:47			0	39194	0	0	0	30088	28670	157653	26960	1073460	46239	111199	0	0	8172	494374	0	0
2024-08-10 10:50:47			0	39208	0	0	0	30093	28680	157457	26731	1073469	46240	111201	0	0	8172	493839	0	0
2024-08-10 10:51:47			0	39213	0	0	0	30093	28670	157481	26805	1073460	46227	111201	0	0	8173	493687	0	0
2024-08-10 10:52:47			0	39195	0	0	0	30090	28680	157541	26982	1073505	46251	111200	0	0	8172	494310	0	0
2024-08-10 10:53:47			0	39208	0	0	0	30093	28680	157421	26734	1073604	46240	111201	0	0	8172	493839	0	0
2024-08-10 10:54:47			0	39207	0	0	0	30096	28690	157429	26942	1073577	46242	111202	0	0	8172	493847	0	0
2024-08-10 10:55:47			0	39219	0	0	0	30109	28690	157453	26991	1073577	46230	111207	0	0	8173	493412	0	0
2024-08-10 10:56:47			0	39237	0	0	0	30122	28700	157485	27057	1073748	46252	111212	0	0	8174	492733	0	0
2024-08-10 10:57:47			0	39242	0	0	0	30132	28710	157409	27293	1073775	46254	111216	0	0	8174	492524	0	0
2024-08-10 10:58:47			0	39221	0	0	0	30142	28710	157429	27001	1073748	46232	111220	0	0	8172	493283	0	0
2024-08-10 10:59:47			0	39258	0	0	0	30137	28720	157369	26989	1073793	46233	111218	0	0	8175	491918	0	0
2024-08-10 11:00:47			0	39244	0	0	0	30132	28730	157373	27156	1073775	46233	111216	0	0	8174	492395	0	0
2024-08-10 11:01:47			0	39253	0	0	0	30148	28740	157285	26968	1073820	46246	111222	0	0	8174	492041	0	0
2024-08-10 11:02:47			0	39261	0	0	0	30150	28730	157277	26984	1073838	46223	111223	0	0	8175	491781	0	0
2024-08-10 11:03:47			0	39256	0	0	0	30148	28730	157329	27124	1073811	46234	111222	0	0	8174	491961	0	0
2024-08-10 11:04:47			0	39254	0	0	0	30155	28740	157217	27173	1073883	46235	111225	0	0	8174	492005	0	0
2024-08-10 11:05:47			0	39260	0	0	0	30150	28730	157113	26968	1073838	46246	111223	0	0	8174	491817	0	0
2024-08-10 11:06:47			0	39251	0	0	0	30163	28740	157129	27022	1073856	46247	111228	0	0	8174	492113	0	0
2024-08-10 11:07:47			0	39272	0	0	0	30163	28740	157165	27005	1073928	46234	111228	0	0	8175	491355	0	0
2024-08-10 11:08:47			0	39286	0	0	0	30163	28750	157205	27038	1073901	46236	111228	0	0	8176	490822	0	0
2024-08-10 11:09:47			0	39276	0	0	0	30171	28760	157313	26545	1073910	46237	111231	0	0	8175	491154	0	0
2024-08-10 11:10:47			0	39269	0	0	0	30171	28760	157209	27140	1073937	46237	111231	0	0	8175	491407	0	0
2024-08-10 11:11:47			0	39263	0	0	0	30171	28750	157181	27284	1073946	46224	111231	0	0	8174	491652	0	0
2024-08-10 11:12:47			0	39283	0	0	0	30174	28760	157197	26897	1074000	46249	111232	0	0	8176	490902	0	0
2024-08-10 11:13:47			0	39269	0	0	0	30179	28760	157233	27039	1073937	46249	111234	0	0	8175	491407	0	0
2024-08-10 11:14:47			0	39275	0	0	0	30181	28760	157205	27126	1074027	46237	111235	0	0	8175	491190	0	0
2024-08-10 11:15:47			0	39269	0	0	0	30184	28760	157241	26908	1073991	46249	111236	0	0	8175	491407	0	0
2024-08-10 11:16:47			0	39273	0	0	0	30192	28780	157157	26944	1074028	46250	111239	0	0	8175	491205	0	0
2024-08-10 11:17:47			0	39282	0	0	0	30194	28770	157137	26937	1074045	46250	111240	0	0	8175	490909	0	0
2024-08-10 11:18:47			0	39296	0	0	0	30192	28780	157145	26981	1074081	46250	111239	0	0	8176	490376	0	0
2024-08-10 11:19:47			0	39276	0	0	0	30205	28780	157085	27024	1074091	46239	111244	0	0	8175	491097	0	0
2024-08-10 11:20:47			0	39279	0	0	0	30207	28790	157145	27052	1074127	46251	111245	0	0	8175	490961	0	0
2024-08-10 11:21:47			0	39294	0	0	0	30223	28800	157073	27118	1074261	46275	111251	0	0	8175	490392	0	0
2024-08-10 11:22:47			0	39292	0	0	0	30236	28790	157001	27201	1074270	46262	111256	0	0	8175	490492	0	0
2024-08-10 11:23:47			0	39301	0	0	0	30251	28800	156997	26941	1074306	46252	111262	0	0	8175	490139	0	0
2024-08-10 11:24:47			0	39310	0	0	0	30257	28820	156961	27022	1074405	46244	111264	0	0	8176	489758	0	0
2024-08-10 11:25:47			0	39310	0	0	0	30264	28830	156997	27020	1074423	46266	111267	0	0	8176	489730	0	0
2024-08-10 11:26:47			0	39316	0	0	0	30283	28830	156949	26942	1074414	46255	111274	0	0	8176	489514	0	0
2024-08-10 11:27:47			0	39337	0	0	0	30277	28840	156901	26989	1074433	46256	111272	0	0	8177	488730	0	0
2024-08-10 11:28:47			0	39342	0	0	0	30285	28840	156825	26866	1074442	46268	111275	0	0	8177	488551	0	0
2024-08-10 11:29:47			0	39340	0	0	0	30288	28840	156949	27121	1074495	46257	111276	0	0	8177	488622	0	0
2024-08-10 11:30:47			0	39336	0	0	0	30288	28850	156841	26783	1074505	46235	111276	0	0	8177	488738	0	0
2024-08-10 11:31:47			0	39348	0	0	0	30296	28850	156761	26868	1074541	46246	111279	0	0	8178	488307	0	0
2024-08-10 11:32:47			0	39354	0	0	0	30301	28860	156745	27013	1074559	46259	111281	0	0	8178	488063	0	0
2024-08-10 11:33:47			0	39353	0	0	0	30293	28860	156729	26975	1074576	46258	111278	0	0	8178	488099	0	0
2024-08-10 11:34:47			0	39366	0	0	0	30301	28870	156685	26693	1074649	46259	111281	0	0	8179	487603	0	0
2024-08-10 11:35:47			0	39367	0	0	0	30311	28870	156805	26904	1074622	46259	111285	0	0	8178	487567	0	0
2024-08-10 11:36:47			0	39360	0	0	0	30311	28880	156777	26861	1074667	46238	111285	0	0	8178	487791	0	0
2024-08-10 11:37:47			0	39362	0	0	0	30322	28890	156813	26904	1074766	46262	111289	0	0	8178	487691	0	0
2024-08-10 11:38:47			0	39358	0	0	0	30329	28890	156637	26823	1074748	46262	111292	0	0	8178	487834	0	0
2024-08-10 11:39:47			0	39369	0	0	0	30335	28890	156673	26826	1074775	46273	111294	0	0	8178	487439	0	0
2024-08-10 11:40:47			0	39362	0	0	0	30348	28890	156629	27116	1074802	46250	111299	0	0	8178	487691	0	0
2024-08-10 11:41:47			0	39370	0	0	0	30353	28890	156637	26944	1074883	46262	111301	0	0	8178	487403	0	0
2024-08-10 11:42:47			0	39376	0	0	0	30353	28920	156669	27150	1074874	46264	111301	0	0	8178	487103	0	0
2024-08-10 11:43:47			0	39399	0	0	0	30363	28920	156601	26856	1074955	46264	111305	0	0	8180	486278	0	0
2024-08-10 11:44:47			0	39391	0	0	0	30376	28930	156601	26606	1074973	46266	111310	0	0	8179	486537	0	0
2024-08-10 11:45:47			0	39390	0	0	0	30373	28930	156553	27076	1075027	46266	111309	0	0	8179	486573	0	0
2024-08-10 11:46:47			0	39404	0	0	0	30384	28950	156609	26842	1075063	46268	111313	0	0	8180	486015	0	0
2024-08-10 11:47:47			0	39393	0	0	0	30405	28950	156565	26932	1075117	46268	111321	0	0	8179	486409	0	0
2024-08-10 11:48:47			0	39406	0	0	0	30402	28970	156521	26745	1075144	46269	111320	0	0	8180	485887	0	0
2024-08-10 11:49:47			0	39403	0	0	0	30412	28960	156469	27256	1075081	46269	111324	0	0	8179	486022	0	0
2024-08-10 11:50:47			0	39418	0	0	0	30410	28970	156402	26897	1075261	46270	111323	0	0	8180	485457	0	0
2024-08-10 11:51:47			0	39421	0	0	0	30418	28970	156394	26745	1075207	46270	111326	0	0	8180	485349	0	0
2024-08-10 11:52:47			0	39408	0	0	0	30428	28980	156365	26996	1075199	46282	111330	0	0	8179	485787	0	0
2024-08-10 11:53:47			0	39404	0	0	0	30423	29000	156421	26956	1075226	46250	111328	0	0	8179	485874	0	0
2024-08-10 11:54:47			0	39416	0	0	0	30425	28990	156290	26951	1075271	46272	111329	0	0	8180	485472	0	0
2024-08-10 11:55:47			0	39397	0	0	0	30423	28990	156257	26743	1075298	46272	111328	0	0	8179	486153	0	0
2024-08-10 11:56:47			0	39403	0	0	0	30433	28990	156429	27114	1075271	46260	111332	0	0	8179	485938	0	0
2024-08-10 11:57:47			0	39407	0	0	0	30436	29010	156386	26984	1075325	46261	111333	0	0	8179	485738	0	0
2024-08-10 11:58:47			0	39423	0	0	0	30438	29000	156362	26998	1075316	46273	111334	0	0	8180	485193	0	0
2024-08-10 11:59:47			0	39404	0	0	0	30441	29010	156345	26811	1075388	46285	111335	0	0	8179	485845	0	0
2024-08-10 12:00:47			0	39419	0	0	0	30451	29020	156426	26892	1075487	46264	111339	0	0	8180	485280	0	0
2024-08-10 12:01:47			0	39424	0	0	0	30446	29020	156354	26909	1075424	46275	111337	0	0	8180	485101	0	0
2024-08-10 12:02:47			0	39417	0	0	0	30449	29030	156422	27118	1075469	46275	111338	0	0	8180	485324	0	0
2024-08-10 12:03:47			0	39426	0	0	0	30457	29020	156342	27079	1075460	46287	111341	0	0	8180	485030	0	0
2024-08-10 12:04:47			0	39414	0	0	0	30480	29040	156333	27038	1075550	46277	111350	0	0	8179	485403	0	0
2024-08-10 12:05:47			0	39433	0	0	0	30485	29050	156210	26672	1075532	46277	111352	0	0	8180	484695	0	0
2024-08-10 12:06:47			0	39433	0	0	0	30475	29040	156182	27185	1075595	46288	111348	0	0	8180	484723	0	0
2024-08-10 12:07:47			0	39453	0	0	0	30485	29050	156170	27088	1075640	46266	111352	0	0	8181	483980	0	0
2024-08-10 12:08:47			0	39436	0	0	0	30477	29060	156162	26871	1075604	46279	111349	0	0	8180	484559	0	0
2024-08-10 12:09:47			0	39461	0	0	0	30472	29050	156158	26965	1075613	46266	111347	0	0	8182	483694	0	0
2024-08-10 12:10:47			0	39447	0	0	0	30480	29060	156066	27027	1075604	46267	111350	0	0	8181	484166	0	0
2024-08-10 12:11:47			0	39444	0	0	0	30483	29060	156138	27022	1075613	46268	111351	0	0	8181	484273	0	0
2024-08-10 12:12:47			0	39449	0	0	0	30472	29060	156210	27244	1075577	46279	111347	0	0	8181	484095	0	0
2024-08-10 12:13:47			0	39444	0	0	0	30467	29070	156130	26939	1075649	46280	111345	0	0	8181	484245	0	0
2024-08-10 12:14:47			0	39444	0	0	0	30467	29070	156162	26804	1075622	46268	111345	0	0	8181	484245	0	0
2024-08-10 12:15:47			0	39456	0	0	0	30475	29050	156198	26693	1075568	46266	111348	0	0	8182	483873	0	0
2024-08-10 12:16:47			0	39434	0	0	0	30470	29050	156154	26984	1075595	46255	111346	0	0	8180	484659	0	0
2024-08-10 12:17:47			0	39443	0	0	0	30472	29060	156162	26726	1075550	46267	111347	0	0	8181	484309	0	0
2024-08-10 12:18:47			0	39445	0	0	0	30470	29060	156138	27112	1075685	46279	111346	0	0	8181	484238	0	0
2024-08-10 12:19:47			0	39454	0	0	0	30483	29070	156194	26913	1075622	46280	111351	0	0	8181	483888	0	0
2024-08-10 12:20:47			0	39461	0	0	0	30493	29070	156126	26970	1075658	46280	111355	0	0	8182	483638	0	0
2024-08-10 12:21:47			0	39462	0	0	0	30485	29070	156186	27192	1075739	46268	111352	0	0	8182	483602	0	0
2024-08-10 12:22:47			0	39457	0	0	0	30498	29080	156134	26965	1075721	46281	111357	0	0	8181	483753	0	0
2024-08-10 12:23:47			0	39457	0	0	0	30493	29080	156146	26986	1075703	46270	111355	0	0	8181	483753	0	0
2024-08-10 12:24:47			0	39451	0	0	0	30493	29080	156074	26844	1075703	46270	111355	0	0	8181	483967	0	0
2024-08-10 12:25:47			0	39467	0	0	0	30480	29080	156150	26767	1075703	46248	111350	0	0	8182	483396	0	0
2024-08-10 12:26:47			0	39457	0	0	0	30483	29070	156094	27088	1075658	46268	111351	0	0	8182	483781	0	0
2024-08-10 12:27:47			0	39450	0	0	0	30472	29080	156074	27142	1075730	46270	111347	0	0	8181	484003	0	0
2024-08-10 12:28:47			0	39457	0	0	0	30477	29070	156074	27133	1075712	46257	111349	0	0	8182	483781	0	0
2024-08-10 12:29:47			0	39467	0	0	0	30475	29080	156154	27130	1075721	46269	111348	0	0	8182	483396	0	0
2024-08-10 12:30:47			0	39466	0	0	0	30475	29080	156126	27027	1075667	46269	111348	0	0	8182	483431	0	0
2024-08-10 12:31:47			0	39458	0	0	0	30472	29080	156098	26922	1075703	46270	111347	0	0	8182	483717	0	0
2024-08-10 12:32:47			0	39467	0	0	0	30467	29090	156002	27161	1075721	46271	111345	0	0	8182	483368	0	0
2024-08-10 12:33:47			0	39460	0	0	0	30472	29080	156102	27203	1075730	46259	111347	0	0	8182	483646	0	0
2024-08-10 12:34:47			0	39473	0	0	0	30488	29080	156054	26968	1075775	46269	111353	0	0	8182	483181	0	0
2024-08-10 12:35:47			0	39491	0	0	0	30485	29080	156018	27012	1075784	46270	111352	0	0	8183	482539	0	0
2024-08-10 12:36:47			0	39480	0	0	0	30488	29090	156038	27183	1075739	46283	111353	0	0	8183	482903	0	0
2024-08-10 12:37:47			0	39482	0	0	0	30506	29100	155994	26743	1075811	46283	111360	0	0	8183	482804	0	0
2024-08-10 12:38:47			0	39479	0	0	0	30516	29090	156014	27027	1075883	46283	111364	0	0	8182	482939	0	0
2024-08-10 12:39:47			0	39497	0	0	0	30506	29100	156082	27039	1075793	46283	111360	0	0	8184	482269	0	0
2024-08-10 12:40:47			0	39479	0	0	0	30519	29100	155986	27083	1075838	46271	111365	0	0	8182	482911	0	0
2024-08-10 12:41:47			0	39503	0	0	0	30516	29110	156010	26868	1075856	46284	111364	0	0	8184	482027	0	0
2024-08-10 12:42:47			0	39510	0	0	0	30519	29110	155914	27163	1075856	46273	111365	0	0	8184	481778	0	0
2024-08-10 12:43:47			0	39498	0	0	0	30537	29110	155890	27208	1075946	46273	111372	0	0	8183	482205	0	0
2024-08-10 12:44:47			0	39525	0	0	0	30548	29120	155866	26719	1076009	46295	111376	0	0	8185	481215	0	0
2024-08-10 12:45:47			0	39535	0	0	0	30550	29130	155802	27149	1076090	46297	111377	0	0	8185	480831	0	0
2024-08-10 12:46:47			0	39534	0	0	0	30571	29130	155778	27078	1076063	46297	111385	0	0	8185	480867	0	0
2024-08-10 12:47:47			0	39528	0	0	0	30568	29140	155842	26741	1076163	46276	111384	0	0	8184	481053	0	0
2024-08-10 12:48:47			0	39533	0	0	0	30571	29150	155814	27267	1076199	46288	111385	0	0	8185	480847	0	0
2024-08-10 12:49:47			0	39538	0	0	0	30586	29150	155798	26960	1076226	46288	111391	0	0	8185	480669	0	0
2024-08-10 12:50:47			0	39590	0	0	0	30610	29160	155658	26762	1076253	46300	111400	0	0	8187	478792	0	0
2024-08-10 12:51:47			0	39614	0	0	0	30599	29170	155498	26743	1076235	46290	111396	0	0	8189	477913	0	0
2024-08-10 12:52:47			0	39653	0	0	0	30607	29170	155418	27041	1076181	46290	111399	0	0	8191	476531	0	0
2024-08-10 12:53:47			0	39649	0	0	0	30618	29180	155354	27093	1076316	46269	111403	0	0	8191	476645	0	0
2024-08-10 12:54:47			0	39652	0	0	0	30636	29180	155338	26932	1076370	46302	111410	0	0	8190	476539	0	0
2024-08-10 12:55:47			0	39639	0	0	0	30644	29190	155438	26922	1076442	46292	111413	0	0	8190	476971	0	0
2024-08-10 12:56:47			0	39626	0	0	0	30657	29200	155478	27190	1076451	46292	111418	0	0	8189	477404	0	0
2024-08-10 12:57:47			0	39623	0	0	0	30675	29210	155494	27078	1076523	46293	111425	0	0	8188	477483	0	0
2024-08-10 12:58:47			0	39631	0	0	0	30677	29210	155602	26762	1076586	46294	111426	0	0	8189	477199	0	0
2024-08-10 12:59:47			0	39603	0	0	0	30688	29230	155654	26719	1076613	46295	111430	0	0	8187	478137	0	0
2024-08-10 13:00:47			0	39604	0	0	0	30698	29230	155574	26746	1076703	46296	111434	0	0	8187	478101	0	0
2024-08-10 13:01:47			0	39604	0	0	0	30701	29240	155670	26800	1076766	46296	111435	0	0	8187	478073	0	0
2024-08-10 13:02:47			0	39594	0	0	0	30711	29250	155598	26831	1076848	46310	111439	0	0	8186	478400	0	0
2024-08-10 13:03:47			0	39603	0	0	0	30722	29270	155546	26731	1076839	46311	111443	0	0	8187	478025	0	0
2024-08-10 13:04:47			0	39590	0	0	0	30727	29280	155634	26828	1076947	46301	111445	0	0	8186	478459	0	0
2024-08-10 13:05:47			0	39596	0	0	0	30742	29300	155622	26455	1076974	46314	111451	0	0	8186	478190	0	0
2024-08-10 13:06:47			0	39580	0	0	0	30750	29310	155610	26712	1077019	46315	111454	0	0	8185	478730	0	0
2024-08-10 13:07:47			0	39579	0	0	0	30763	29320	155574	26878	1077091	46304	111459	0	0	8185	478738	0	0
2024-08-10 13:08:47			0	39577	0	0	0	30771	29320	155566	27024	1077181	46317	111462	0	0	8185	478809	0	0
2024-08-10 13:09:47			0	39565	0	0	0	30779	29320	155506	26812	1077208	46305	111465	0	0	8184	479235	0	0
2024-08-10 13:10:47			0	39579	0	0	0	30779	29320	155582	27066	1077073	46305	111465	0	0	8185	478738	0	0
2024-08-10 13:11:47			0	39572	0	0	0	30773	29340	155606	26981	1077128	46296	111463	0	0	8184	478931	0	0
2024-08-10 13:12:47			0	39557	0	0	0	30771	29350	155614	26847	1077173	46285	111462	0	0	8184	479435	0	0
2024-08-10 13:13:47			0	39546	0	0	0	30758	29340	155586	27130	1077191	46296	111457	0	0	8183	479854	0	0
2024-08-10 13:14:47			0	39559	0	0	0	30761	29340	155702	26909	1077218	46307	111458	0	0	8184	479392	0	0
2024-08-10 13:15:47			0	39538	0	0	0	30758	29350	155674	26545	1077209	46297	111457	0	0	8183	480111	0	0
2024-08-10 13:16:47			0	39529	0	0	0	30732	29350	155662	27057	1077119	46285	111447	0	0	8183	480430	0	0
2024-08-10 13:17:47			0	39526	0	0	0	30709	29350	155738	26698	1076984	46274	111438	0	0	8183	480537	0	0
2024-08-10 13:18:47			0	39502	0	0	0	30714	29340	155758	27079	1077056	46274	111440	0	0	8181	481419	0	0
2024-08-10 13:19:47			0	39499	0	0	0	30706	29340	155914	27019	1077083	46296	111437	0	0	8181	481526	0	0
2024-08-10 13:20:47			0	39504	0	0	0	30709	29340	155850	27000	1077020	46296	111438	0	0	8182	481348	0	0
2024-08-10 13:21:47			0	39481	0	0	0	30688	29340	155982	27095	1076948	46274	111430	0	0	8181	482167	0	0
2024-08-10 13:22:47			0	39472	0	0	0	30672	29320	155982	26793	1076911	46283	111424	0	0	8180	482544	0	0
2024-08-10 13:23:47			0	39475	0	0	0	30664	29320	155934	27128	1076965	46294	111421	0	0	8181	482437	0	0
2024-08-10 13:24:47			0	39478	0	0	0	30719	29320	155922	26984	1077037	46304	111442	0	0	8180	482330	0	0
2024-08-10 13:25:47			0	39476	0	0	0	30709	29330	155894	27038	1076983	46306	111438	0	0	8180	482373	0	0
2024-08-10 13:26:47			0	39469	0	0	0	30696	29330	155874	26844	1076947	46272	111433	0	0	8180	482623	0	0
2024-08-10 13:27:47			0	39474	0	0	0	30675	29320	155922	27123	1076884	46283	111425	0	0	8180	482473	0	0
2024-08-10 13:28:47			0	39473	0	0	0	30672	29330	156026	26861	1077001	46294	111424	0	0	8180	482480	0	0
2024-08-10 13:29:47			0	39467	0	0	0	30680	29320	156030	27157	1076992	46294	111427	0	0	8180	482722	0	0
2024-08-10 13:30:47			0	39449	0	0	0	30693	29330	156058	27192	1077091	46306	111432	0	0	8179	483336	0	0
2024-08-10 13:31:47			0	39454	0	0	0	30690	29330	156010	27088	1077055	46305	111431	0	0	8179	483158	0	0
2024-08-10 13:32:47			0	39450	0	0	0	30683	29330	155998	27220	1077037	46295	111428	0	0	8179	483300	0	0
2024-08-10 13:33:47			0	39431	0	0	0	30675	29330	156074	26941	1076957	46273	111425	0	0	8178	483979	0	0
2024-08-10 13:34:47			0	39436	0	0	0	30659	29320	156110	27019	1076902	46260	111419	0	0	8178	483828	0	0
2024-08-10 13:35:47			0	39443	0	0	0	30649	29320	155974	26970	1076848	46260	111415	0	0	8179	483578	0	0
2024-08-10 13:36:47			0	39438	0	0	0	30649	29310	156018	27109	1076866	46293	111415	0	0	8179	483785	0	0
2024-08-10 13:37:47			0	39433	0	0	0	30651	29310	156038	27159	1076893	46293	111416	0	0	8178	483964	0	0
2024-08-10 13:38:47			0	39434	0	0	0	30633	29320	156110	27038	1076929	46293	111409	0	0	8179	483900	0	0
2024-08-10 13:39:47			0	39422	0	0	0	30620	29310	156058	27104	1076839	46271	111404	0	0	8178	484356	0	0
2024-08-10 13:40:47			0	39436	0	0	0	30607	29310	156126	26915	1076776	46259	111399	0	0	8179	483856	0	0
2024-08-10 13:41:47			0	39445	0	0	0	30586	29290	156078	26816	1076560	46258	111391	0	0	8180	483591	0	0
2024-08-10 13:42:47			0	39422	0	0	0	30579	29270	156126	27178	1076605	46256	111388	0	0	8179	484469	0	0
2024-08-10 13:43:47			0	39431	0	0	0	30584	29270	156134	26817	1076578	46278	111390	0	0	8179	484147	0	0
2024-08-10 13:44:47			0	39435	0	0	0	30581	29270	156090	26932	1076569	46277	111389	0	0	8180	484005	0	0
2024-08-10 13:45:47			0	39415	0	0	0	30574	29250	156138	27126	1076542	46264	111386	0	0	8178	484776	0	0
2024-08-10 13:46:47			0	39422	0	0	0	30571	29240	156098	27232	1076416	46275	111385	0	0	8179	484554	0	0
2024-08-10 13:47:47			0	39394	0	0	0	30568	29230	156397	27216	1076353	46241	111384	0	0	8177	485583	0	0
2024-08-10 13:48:47			0	39395	0	0	0	30561	29240	156225	27112	1076443	46263	111381	0	0	8177	485519	0	0
2024-08-10 13:49:47			0	39396	0	0	0	30574	29220	156269	26717	1076487	46273	111386	0	0	8177	485540	0	0
2024-08-10 13:50:47			0	39375	0	0	0	30576	29220	156285	27085	1076433	46273	111387	0	0	8176	486292	0	0
2024-08-10 13:51:47			0	39381	0	0	0	30579	29220	156329	27038	1076442	46274	111388	0	0	8176	486077	0	0
2024-08-10 13:52:47			0	39398	0	0	0	30579	29220	156385	27076	1076406	46284	111388	0	0	8177	485468	0	0
2024-08-10 13:53:47			0	39393	0	0	0	30592	29210	156405	27017	1076415	46260	111393	0	0	8177	485675	0	0
2024-08-10 13:54:47			0	39377	0	0	0	30618	29220	156345	27209	1076604	46295	111403	0	0	8175	486220	0	0
2024-08-10 13:55:47			0	39393	0	0	0	30662	29230	156373	27123	1076703	46296	111420	0	0	8176	485619	0	0
2024-08-10 13:56:47			0	39382	0	0	0	30685	29250	156409	26974	1076821	46310	111429	0	0	8175	485956	0	0
2024-08-10 13:57:47			0	39403	0	0	0	30711	29270	156297	27024	1076812	46311	111439	0	0	8176	485148	0	0
2024-08-10 13:58:47			0	39391	0	0	0	30719	29270	156265	27263	1076866	46299	111442	0	0	8175	485578	0	0
2024-08-10 13:59:47			0	39417	0	0	0	30711	29280	156197	27170	1076866	46291	111439	0	0	8176	484620	0	0
2024-08-10 14:00:47			0	39405	0	0	0	30706	29280	156213	27088	1076866	46279	111437	0	0	8176	485049	0	0
2024-08-10 14:01:47			0	39405	0	0	0	30696	29290	156073	26967	1076821	46291	111433	0	0	8176	485021	0	0
2024-08-10 14:02:47			0	39410	0	0	0	30696	29290	156194	26970	1076848	46279	111433	0	0	8176	484842	0	0
2024-08-10 14:03:47			0	39424	0	0	0	30693	29290	156154	27133	1076803	46291	111432	0	0	8177	484341	0	0
2024-08-10 14:04:47			0	39404	0	0	0	30701	29290	156137	26769	1076848	46291	111435	0	0	8176	485056	0	0
2024-08-10 14:05:47			0	39427	0	0	0	30690	29290	156158	27017	1076794	46291	111431	0	0	8177	484234	0	0
2024-08-10 14:06:47			0	39401	0	0	0	30683	29290	156253	27031	1076848	46279	111428	0	0	8176	485163	0	0
2024-08-10 14:07:47			0	39413	0	0	0	30675	29290	156190	27124	1076821	46291	111425	0	0	8177	484735	0	0
2024-08-10 14:08:47			0	39404	0	0	0	30670	29290	156213	27119	1076767	46268	111423	0	0	8176	485056	0	0
2024-08-10 14:09:47			0	39397	0	0	0	30646	29270	156181	27071	1076704	46266	111414	0	0	8176	485363	0	0
2024-08-10 14:10:47			0	39388	0	0	0	30649	29270	156293	27377	1076623	46266	111415	0	0	8176	485685	0	0
2024-08-10 14:11:47			0	39384	0	0	0	30644	29260	156245	27197	1076695	46288	111413	0	0	8176	485856	0	0
2024-08-10 14:12:47			0	39384	0	0	0	30638	29260	156277	27064	1076641	46276	111411	0	0	8176	485856	0	0
2024-08-10 14:13:47			0	39375	0	0	0	30633	29250	156429	27088	1076596	46275	111409	0	0	8175	486207	0	0
2024-08-10 14:14:47			0	39382	0	0	0	30631	29250	156397	27183	1076596	46264	111408	0	0	8176	485956	0	0
2024-08-10 14:15:47			0	39375	0	0	0	30628	29250	156449	26930	1076569	46287	111407	0	0	8175	486207	0	0
2024-08-10 14:16:47			0	39363	0	0	0	30628	29240	156393	27156	1076533	46275	111407	0	0	8175	486665	0	0
2024-08-10 14:17:47			0	39364	0	0	0	30623	29240	156397	27097	1076496	46286	111405	0	0	8175	486629	0	0
2024-08-10 14:18:47			0	39347	0	0	0	30615	29240	156465	26982	1076577	46275	111402	0	0	8174	487239	0	0
2024-08-10 14:19:47			0	39337	0	0	0	30618	29230	156477	26937	1076487	46286	111403	0	0	8173	487625	0	0
2024-08-10 14:20:47			0	39350	0	0	0	30610	29220	156457	27062	1076496	46285	111400	0	0	8174	487188	0	0
2024-08-10 14:21:47			0	39337	0	0	0	30612	29220	156557	26927	1076460	46273	111401	0	0	8173	487654	0	0
2024-08-10 14:22:47			0	39334	0	0	0	30610	29220	156585	26941	1076433	46273	111400	0	0	8173	487761	0	0
2024-08-10 14:23:47			0	39343	0	0	0	30599	29220	156545	26989	1076433	46284	111396	0	0	8174	487439	0	0
2024-08-10 14:24:47			0	39338	0	0	0	30610	29220	156545	27149	1076460	46284	111400	0	0	8173	487618	0	0
2024-08-10 14:25:47			0	39342	0	0	0	30610	29220	156537	26811	1076460	46273	111400	0	0	8174	487474	0	0
2024-08-10 14:26:47			0	39329	0	0	0	30599	29210	156561	27157	1076451	46273	111396	0	0	8173	487969	0	0
2024-08-10 14:27:47			0	39340	0	0	0	30592	29230	156469	26994	1076451	46285	111393	0	0	8174	487518	0	0
2024-08-10 14:28:47			0	39346	0	0	0	30602	29220	156457	27046	1076433	46294	111397	0	0	8174	487331	0	0
2024-08-10 14:29:47			0	39335	0	0	0	30589	29210	156441	27303	1076397	46273	111392	0	0	8173	487754	0	0
2024-08-10 14:30:47			0	39322	0	0	0	30594	29210	156449	26927	1076415	46260	111394	0	0	8173	488221	0	0
2024-08-10 14:31:47			0	39338	0	0	0	30584	29200	156433	26951	1076433	46271	111390	0	0	8174	487675	0	0
2024-08-10 14:32:47			0	39310	0	0	0	30586	29200	156429	26779	1076379	46282	111391	0	0	8172	488680	0	0
2024-08-10 14:33:47			0	39343	0	0	0	30589	29200	156437	26946	1076379	46282	111392	0	0	8174	487495	0	0
2024-08-10 14:34:47			0	39335	0	0	0	30586	29210	156489	27261	1076388	46293	111391	0	0	8173	487754	0	0
2024-08-10 14:35:47			0	39330	0	0	0	30586	29200	156465	26972	1076379	46282	111391	0	0	8173	487962	0	0
2024-08-10 14:36:47			0	39332	0	0	0	30584	29210	156433	27048	1076388	46283	111390	0	0	8173	487862	0	0
2024-08-10 14:37:47			0	39343	0	0	0	30581	29190	156457	26863	1076307	46271	111389	0	0	8174	487524	0	0
2024-08-10 14:38:47			0	39334	0	0	0	30574	29190	156461	27166	1076271	46270	111386	0	0	8174	487846	0	0
2024-08-10 14:39:47			0	39338	0	0	0	30566	29190	156525	27152	1076253	46271	111383	0	0	8174	487703	0	0
2024-08-10 14:40:47			0	39321	0	0	0	30574	29190	156593	27008	1076325	46281	111386	0	0	8173	488313	0	0
2024-08-10 14:41:47			0	39325	0	0	0	30568	29180	156501	27048	1076262	46269	111384	0	0	8173	488198	0	0
2024-08-10 14:42:47			0	39331	0	0	0	30576	29190	156529	26876	1076280	46282	111387	0	0	8173	487954	0	0
2024-08-10 14:43:47			0	39320	0	0	0	30576	29180	156573	26889	1076262	46269	111387	0	0	8173	488377	0	0
2024-08-10 14:44:47			0	39324	0	0	0	30566	29180	156569	27012	1076289	46280	111383	0	0	8173	488234	0	0
2024-08-10 14:45:47			0	39315	0	0	0	30571	29180	156465	26908	1076307	46269	111385	0	0	8172	488557	0	0
2024-08-10 14:46:47			0	39318	0	0	0	30561	29180	156589	26739	1076253	46280	111381	0	0	8173	488449	0	0
2024-08-10 14:47:47			0	39328	0	0	0	30571	29180	156653	26965	1076280	46269	111385	0	0	8173	488090	0	0
2024-08-10 14:48:47			0	39313	0	0	0	30576	29170	156629	26901	1076271	46280	111387	0	0	8172	488657	0	0
2024-08-10 14:49:47			0	39319	0	0	0	30568	29190	156589	26805	1076325	46270	111384	0	0	8173	488385	0	0
2024-08-10 14:50:47			0	39316	0	0	0	30574	29190	156613	26788	1076379	46270	111386	0	0	8173	488493	0	0
2024-08-10 14:51:47			0	39314	0	0	0	30571	29170	156645	27020	1076289	46279	111385	0	0	8172	488621	0	0
2024-08-10 14:52:47			0	39329	0	0	0	30568	29180	156573	26953	1076280	46280	111384	0	0	8173	488054	0	0
2024-08-10 14:53:47			0	39330	0	0	0	30581	29180	156617	27128	1076343	46280	111389	0	0	8173	488018	0	0
2024-08-10 14:54:47			0	39319	0	0	0	30576	29190	156581	26759	1076469	46304	111387	0	0	8173	488385	0	0
2024-08-10 14:55:47			0	39310	0	0	0	30586	29190	156589	26972	1076415	46315	111391	0	0	8172	488708	0	0
2024-08-10 14:56:47			0	39303	0	0	0	30584	29190	156533	26826	1076388	46292	111390	0	0	8172	488960	0	0
2024-08-10 14:57:47			0	39316	0	0	0	30592	29200	156569	26786	1076424	46292	111393	0	0	8172	488464	0	0
2024-08-10 14:58:47			0	39341	0	0	0	30594	29200	156585	26970	1076487	46292	111394	0	0	8174	487567	0	0
2024-08-10 14:59:47			0	39321	0	0	0	30592	29200	156697	26854	1076424	46292	111393	0	0	8173	488285	0	0
2024-08-10 15:00:47			0	39320	0	0	0	30592	29200	156621	27081	1076487	46304	111393	0	0	8173	488321	0	0
2024-08-10 15:01:47			0	39318	0	0	0	30605	29200	156585	26840	1076487	46292	111398	0	0	8172	488392	0	0
2024-08-10 15:02:47			0	39325	0	0	0	30592	29210	156509	27180	1076469	46272	111393	0	0	8173	488113	0	0
2024-08-10 15:03:47			0	39315	0	0	0	30592	29200	156585	26802	1076487	46282	111393	0	0	8172	488500	0	0
2024-08-10 15:04:47			0	39319	0	0	0	30592	29210	156473	26987	1076415	46283	111393	0	0	8172	488328	0	0
2024-08-10 15:05:47			0	39323	0	0	0	30592	29210	156593	26788	1076496	46293	111393	0	0	8173	488185	0	0
2024-08-10 15:06:47			0	39312	0	0	0	30589	29200	156565	26805	1076460	46282	111392	0	0	8172	488608	0	0
2024-08-10 15:07:47			0	39314	0	0	0	30599	29210	156573	27180	1076478	46284	111396	0	0	8172	488508	0	0
2024-08-10 15:08:47			0	39322	0	0	0	30594	29210	156541	26996	1076532	46284	111394	0	0	8173	488221	0	0
2024-08-10 15:09:47			0	39312	0	0	0	30599	29200	156617	26804	1076460	46282	111396	0	0	8172	488608	0	0
2024-08-10 15:10:47			0	39317	0	0	0	30605	29210	156557	26590	1076505	46294	111398	0	0	8172	488400	0	0
2024-08-10 15:11:47			0	39310	0	0	0	30649	29220	156617	26922	1076739	46307	111415	0	0	8171	488623	0	0
2024-08-10 15:12:47			0	39299	0	0	0	30667	29240	156553	26942	1076829	46332	111422	0	0	8170	488962	0	0
2024-08-10 15:13:47			0	39296	0	0	0	30688	29250	156485	27152	1076901	46321	111430	0	0	8170	489041	0	0
2024-08-10 15:14:47			0	39296	0	0	0	30698	29270	156593	27071	1077010	46334	111434	0	0	8170	488984	0	0
2024-08-10 15:15:47			0	39313	0	0	0	30711	29290	156557	27027	1077073	46314	111439	0	0	8170	488317	0	0
2024-08-10 15:16:47			0	39319	0	0	0	30690	29310	156473	26849	1077100	46292	111431	0	0	8171	488045	0	0
2024-08-10 15:17:47			0	39329	0	0	0	30714	29310	156445	27060	1077055	46293	111440	0	0	8171	487686	0	0
2024-08-10 15:18:47			0	39314	0	0	0	30701	29310	156457	26967	1077028	46304	111435	0	0	8171	488224	0	0
2024-08-10 15:19:47			0	39325	0	0	0	30693	29320	156373	27208	1076983	46293	111432	0	0	8172	487801	0	0
2024-08-10 15:20:47			0	39327	0	0	0	30690	29320	156449	27034	1077064	46293	111431	0	0	8172	487729	0	0
2024-08-10 15:21:47			0	39310	0	0	0	30706	29320	156457	26996	1077145	46304	111437	0	0	8171	488339	0	0
2024-08-10 15:22:47			0	39324	0	0	0	30737	29330	156449	27213	1077325	46317	111449	0	0	8171	487808	0	0
2024-08-10 15:23:47			0	39330	0	0	0	30812	29360	156433	27123	1077623	46332	111478	0	0	8170	487508	0	0
2024-08-10 15:24:47			0	39345	0	0	0	30875	29390	156325	27005	1077731	46346	111502	0	0	8170	486886	0	0
2024-08-10 15:25:47			0	39365	0	0	0	30932	29410	156297	26977	1077902	46359	111524	0	0	8170	486113	0	0
2024-08-10 15:26:47			0	39389	0	0	0	30914	29430	156241	26852	1077831	46338	111517	0	0	8172	485198	0	0
2024-08-10 15:27:47			0	39415	0	0	0	30911	29440	156065	26951	1077912	46330	111516	0	0	8174	484240	0	0
2024-08-10 15:28:47			0	39407	0	0	0	30903	29450	156085	27237	1077894	46307	111513	0	0	8173	484498	0	0
2024-08-10 15:29:47			0	39390	0	0	0	30906	29450	156201	27194	1077921	46330	111514	0	0	8172	485106	0	0
2024-08-10 15:30:47			0	39371	0	0	0	30927	29460	156257	26955	1078020	46331	111522	0	0	8171	485757	0	0
2024-08-10 15:31:47			0	39357	0	0	0	30953	29460	156333	26996	1078029	46320	111532	0	0	8170	486258	0	0
2024-08-10 15:32:47			0	39332	0	0	0	30950	29480	156313	26956	1078083	46321	111531	0	0	8168	487096	0	0
2024-08-10 15:33:47			0	39322	0	0	0	30919	29480	156389	27008	1078029	46298	111519	0	0	8168	487455	0	0
2024-08-10 15:34:47			0	39330	0	0	0	30916	29480	156333	26958	1078011	46311	111518	0	0	8169	487168	0	0
2024-08-10 15:35:47			0	39312	0	0	0	30914	29490	156317	26967	1078003	46312	111517	0	0	8168	487785	0	0
2024-08-10 15:36:47			0	39313	0	0	0	30924	29490	156409	27083	1078048	46323	111521	0	0	8168	487749	0	0
2024-08-10 15:37:47			0	39309	0	0	0	30942	29500	156437	27194	1078120	46312	111528	0	0	8167	487864	0	0
2024-08-10 15:38:47			0	39286	0	0	0	30958	29500	156505	27012	1078156	46324	111534	0	0	8166	488689	0	0
2024-08-10 15:39:47			0	39292	0	0	0	30966	29520	156485	27034	1078264	46314	111537	0	0	8166	488417	0	0
2024-08-10 15:40:47			0	39272	0	0	0	30984	29530	156453	26870	1078309	46327	111544	0	0	8165	489107	0	0
2024-08-10 15:41:47			0	39260	0	0	0	30989	29530	156405	27052	1078345	46328	111546	0	0	8164	489538	0	0
2024-08-10 15:42:47			0	39277	0	0	0	30986	29550	156389	26890	1078363	46328	111545	0	0	8165	488870	0	0
2024-08-10 15:43:47			0	39268	0	0	0	30981	29560	156469	26923	1078382	46341	111543	0	0	8165	489165	0	0
2024-08-10 15:44:47			0	39254	0	0	0	30989	29560	156477	26850	1078364	46319	111546	0	0	8164	489668	0	0
2024-08-10 15:45:47			0	39255	0	0	0	30981	29560	156449	26984	1078418	46330	111543	0	0	8164	489632	0	0
2024-08-10 15:46:47			0	39241	0	0	0	30981	29560	156429	26667	1078418	46319	111543	0	0	8163	490135	0	0
2024-08-10 15:47:47			0	39240	0	0	0	30994	29570	156465	27015	1078517	46331	111548	0	0	8163	490142	0	0
2024-08-10 15:48:47			0	39235	0	0	0	31012	29580	156501	26956	1078562	46332	111555	0	0	8162	490294	0	0
2024-08-10 15:49:47			0	39233	0	0	0	31018	29590	156457	26849	1078517	46332	111557	0	0	8162	490337	0	0
2024-08-10 15:50:47			0	39239	0	0	0	31025	29600	156481	27007	1078679	46324	111560	0	0	8162	490093	0	0
2024-08-10 15:51:47			0	39228	0	0	0	31028	29600	156473	27008	1078733	46334	111561	0	0	8162	490488	0	0
2024-08-10 15:52:47			0	39240	0	0	0	31036	29610	156593	27118	1078616	46334	111564	0	0	8162	490028	0	0
2024-08-10 15:53:47			0	39231	0	0	0	31033	29610	156501	26828	1078778	46324	111563	0	0	8162	490352	0	0
2024-08-10 15:54:47			0	39234	0	0	0	31062	29630	156541	27123	1078805	46347	111574	0	0	8162	490187	0	0
2024-08-10 15:55:47			0	39238	0	0	0	31064	29640	156577	26797	1078959	46348	111575	0	0	8162	490015	0	0
2024-08-10 15:56:47			0	39226	0	0	0	31080	29650	156497	26974	1078986	46338	111581	0	0	8161	490417	0	0
2024-08-10 15:57:47			0	39224	0	0	0	31077	29660	156493	26663	1078968	46351	111580	0	0	8161	490461	0	0
2024-08-10 15:58:47			0	39226	0	0	0	31090	29680	156437	26998	1079112	46341	111585	0	0	8161	490332	0	0
2024-08-10 15:59:47			0	39234	0	0	0	31098	29660	156473	26837	1078977	46340	111588	0	0	8161	490101	0	0
2024-08-10 16:00:47			0	39223	0	0	0	31096	29670	156397	27131	1078986	46331	111587	0	0	8161	490468	0	0
2024-08-10 16:01:47			0	39225	0	0	0	31106	29670	156521	27135	1079049	46341	111591	0	0	8161	490396	0	0
2024-08-10 16:02:47			0	39220	0	0	0	31101	29680	156453	26930	1079121	46342	111589	0	0	8160	490548	0	0
2024-08-10 16:03:47			0	39220	0	0	0	31106	29690	156481	26896	1079140	46343	111591	0	0	8160	490519	0	0
2024-08-10 16:04:47			0	39222	0	0	0	31114	29690	156513	26670	1079140	46343	111594	0	0	8160	490447	0	0
2024-08-10 16:05:47			0	39223	0	0	0	31114	29710	156529	27052	1079194	46345	111594	0	0	8160	490354	0	0
2024-08-10 16:06:47			0	39215	0	0	0	31103	29700	156461	26800	1079212	46344	111590	0	0	8160	490670	0	0
2024-08-10 16:07:47			0	39217	0	0	0	31124	29710	156473	26878	1079221	46356	111598	0	0	8160	490570	0	0
2024-08-10 16:08:47			0	39201	0	0	0	31137	29710	156557	26939	1079311	46356	111603	0	0	8159	491145	0	0
2024-08-10 16:09:47			0	39196	0	0	0	31163	29730	156557	27161	1079401	46347	111613	0	0	8158	491268	0	0
2024-08-10 16:10:47			0	39205	0	0	0	31168	29730	156581	26866	1079392	46336	111615	0	0	8159	490944	0	0
2024-08-10 16:11:47			0	39207	0	0	0	31150	29740	156541	27057	1079383	46336	111608	0	0	8159	490844	0	0
2024-08-10 16:12:47			0	39206	0	0	0	31155	29740	156533	26632	1079392	46326	111610	0	0	8159	490880	0	0
2024-08-10 16:13:47			0	39203	0	0	0	31155	29750	156497	26887	1079455	46349	111610	0	0	8159	490959	0	0
2024-08-10 16:14:47			0	39191	0	0	0	31163	29740	156465	27024	1079419	46359	111613	0	0	8158	491419	0	0
2024-08-10 16:15:47			0	39216	0	0	0	31171	29760	156493	26635	1079473	46350	111616	0	0	8159	490463	0	0
2024-08-10 16:16:47			0	39212	0	0	0	31189	29760	156405	26979	1079554	46350	111623	0	0	8159	490607	0	0
2024-08-10 16:17:47			0	39189	0	0	0	31186	29760	156425	26760	1079564	46338	111622	0	0	8158	491434	0	0
2024-08-10 16:18:47			0	39208	0	0	0	31189	29770	156421	26830	1079573	46339	111623	0	0	8159	490722	0	0
2024-08-10 16:19:47			0	39200	0	0	0	31189	29780	156481	26580	1079546	46340	111623	0	0	8158	490981	0	0
2024-08-10 16:20:47			0	39202	0	0	0	31197	29780	156381	26790	1079645	46352	111626	0	0	8158	490909	0	0
2024-08-10 16:21:47			0	39214	0	0	0	31197	29770	156373	27000	1079663	46363	111626	0	0	8159	490506	0	0
2024-08-10 16:22:47			0	39223	0	0	0	31199	29790	156453	27072	1079663	46342	111627	0	0	8159	490125	0	0
2024-08-10 16:23:47			0	39202	0	0	0	31199	29790	156437	27001	1079636	46342	111627	0	0	8158	490880	0	0
2024-08-10 16:24:47			0	39227	0	0	0	31197	29780	156413	27180	1079600	46340	111626	0	0	8160	490010	0	0
2024-08-10 16:25:47			0	39215	0	0	0	31192	29790	156325	27242	1079663	46353	111624	0	0	8159	490413	0	0
2024-08-10 16:26:47			0	39230	0	0	0	31192	29790	156401	27046	1079636	46364	111624	0	0	8160	489874	0	0
2024-08-10 16:27:47			0	39219	0	0	0	31199	29800	156329	27111	1079771	46344	111627	0	0	8159	490241	0	0
2024-08-10 16:28:47			0	39222	0	0	0	31215	29810	156365	27116	1079753	46355	111633	0	0	8159	490104	0	0
2024-08-10 16:29:47			0	39217	0	0	0	31218	29810	156357	26956	1079763	46367	111634	0	0	8159	490284	0	0
2024-08-10 16:30:47			0	39221	0	0	0	31202	29810	156289	26736	1079726	46366	111628	0	0	8159	490140	0	0
2024-08-10 16:31:47			0	39242	0	0	0	31212	29810	156421	26948	1079753	46355	111632	0	0	8160	489386	0	0
2024-08-10 16:32:47			0	39227	0	0	0	31225	29810	156337	27100	1079835	46355	111637	0	0	8159	489925	0	0
2024-08-10 16:33:47			0	39238	0	0	0	31249	29820	156329	26778	1079889	46357	111646	0	0	8160	489501	0	0
2024-08-10 16:34:47			0	39236	0	0	0	31262	29830	156241	26916	1079925	46368	111651	0	0	8159	489544	0	0
2024-08-10 16:35:47			0	39266	0	0	0	31280	29840	156233	27031	1080105	46370	111658	0	0	8161	488439	0	0
2024-08-10 16:36:47			0	39261	0	0	0	31275	29840	156153	26913	1080051	46359	111656	0	0	8160	488619	0	0
2024-08-10 16:37:47			0	39266	0	0	0	31280	29850	156181	26635	1079925	46359	111658	0	0	8161	488411	0	0
2024-08-10 16:38:47			0	39277	0	0	0	31270	29850	156161	26901	1079934	46360	111654	0	0	8162	488017	0	0
2024-08-10 16:39:47			0	39271	0	0	0	31262	29860	156181	26915	1079997	46348	111651	0	0	8161	488203	0	0
2024-08-10 16:40:47			0	39266	0	0	0	31254	29850	156225	27024	1080015	46348	111648	0	0	8161	488411	0	0
2024-08-10 16:41:47			0	39272	0	0	0	31249	29850	156229	26776	1080006	46359	111646	0	0	8162	488196	0	0
2024-08-10 16:42:47			0	39286	0	0	0	31246	29860	156137	26956	1079997	46348	111645	0	0	8162	487666	0	0
2024-08-10 16:43:47			0	39274	0	0	0	31223	29860	156013	27222	1079970	46360	111636	0	0	8162	488096	0	0
2024-08-10 16:44:47			0	39283	0	0	0	31238	29860	156181	27189	1079997	46360	111642	0	0	8162	487773	0	0
2024-08-10 16:45:47			0	39282	0	0	0	31238	29850	156105	27088	1080042	46360	111642	0	0	8162	487837	0	0
2024-08-10 16:46:47			0	39281	0	0	0	31218	29850	156193	26857	1079961	46348	111634	0	0	8163	487873	0	0
2024-08-10 16:47:47			0	39293	0	0	0	31225	29860	156153	26928	1080087	46338	111637	0	0	8163	487415	0	0
2024-08-10 16:48:47			0	39285	0	0	0	31249	29860	156157	27187	1080078	46348	111646	0	0	8162	487702	0	0
2024-08-10 16:49:47			0	39281	0	0	0	31259	29850	156177	26958	1080069	46348	111650	0	0	8162	487873	0	0
2024-08-10 16:50:47			0	39296	0	0	0	31254	29860	156101	26776	1080033	46349	111648	0	0	8163	487308	0	0
2024-08-10 16:51:47			0	39300	0	0	0	31246	29870	156009	26896	1079988	46349	111645	0	0	8163	487136	0	0
2024-08-10 16:52:47			0	39295	0	0	0	31233	29860	155989	26922	1080060	46361	111640	0	0	8163	487343	0	0
2024-08-10 16:53:47			0	39311	0	0	0	31233	29860	155897	26868	1080051	46348	111640	0	0	8164	486771	0	0
2024-08-10 16:54:47			0	39332	0	0	0	31238	29860	156073	26909	1079979	46372	111642	0	0	8165	486020	0	0
2024-08-10 16:55:47			0	39302	0	0	0	31251	29860	156033	26720	1080078	46360	111647	0	0	8163	487093	0	0
2024-08-10 16:56:47			0	39305	0	0	0	31246	29860	156013	26715	1079997	46360	111645	0	0	8164	486985	0	0
2024-08-10 16:57:47			0	39322	0	0	0	31257	29860	155973	26776	1080051	46360	111649	0	0	8164	486377	0	0
2024-08-10 16:58:47			0	39316	0	0	0	31262	29860	155901	26767	1080141	46349	111651	0	0	8164	486592	0	0
2024-08-10 16:59:47			0	39321	0	0	0	31257	29870	156037	27083	1080069	46338	111649	0	0	8164	486385	0	0
2024-08-10 17:00:47			0	39344	0	0	0	31249	29860	155933	26885	1080087	46349	111646	0	0	8166	485591	0	0
2024-08-10 17:01:47			0	39317	0	0	0	31236	29870	155829	26793	1080069	46349	111641	0	0	8164	486528	0	0
2024-08-10 17:02:47			0	39358	0	0	0	31231	29870	155901	26757	1080096	46361	111639	0	0	8167	485062	0	0
2024-08-10 17:03:47			0	39344	0	0	0	31223	29870	155797	26684	1079988	46349	111636	0	0	8166	485562	0	0
2024-08-10 17:04:47			0	39349	0	0	0	31223	29860	155933	26668	1080006	46349	111636	0	0	8166	485412	0	0
2024-08-10 17:05:47			0	39337	0	0	0	31205	29850	155937	26675	1079961	46348	111629	0	0	8166	485869	0	0
2024-08-10 17:06:47			0	39318	0	0	0	31197	29860	156025	26729	1079979	46349	111626	0	0	8165	486520	0	0
2024-08-10 17:07:47			0	39333	0	0	0	31194	29870	155921	26559	1079961	46349	111625	0	0	8166	485956	0	0
2024-08-10 17:08:47			0	39329	0	0	0	31207	29860	155993	27086	1079979	46349	111630	0	0	8166	486127	0	0
2024-08-10 17:09:47			0	39322	0	0	0	31179	29860	155929	26759	1079952	46349	111619	0	0	8166	486377	0	0
2024-08-10 17:10:47			0	39334	0	0	0	31155	29840	155945	26637	1079808	46347	111610	0	0	8167	486005	0	0
2024-08-10 17:11:47			0	39336	0	0	0	31163	29840	155925	26911	1079889	46336	111613	0	0	8167	485933	0	0
2024-08-10 17:12:47			0	39353	0	0	0	31168	29830	155909	26854	1079763	46345	111615	0	0	8167	485354	0	0
2024-08-10 17:13:47			0	39315	0	0	0	31163	29830	155949	26873	1079790	46334	111613	0	0	8165	486713	0	0
2024-08-10 17:14:47			0	39331	0	0	0	31161	29820	155873	26927	1079754	46357	111612	0	0	8166	486169	0	0
2024-08-10 17:15:47			0	39333	0	0	0	31171	29840	155861	26831	1079862	46336	111616	0	0	8166	486041	0	0
2024-08-10 17:16:47			0	39317	0	0	0	31184	29820	155781	26909	1079835	46334	111621	0	0	8165	486669	0	0
2024-08-10 17:17:47			0	39335	0	0	0	31163	29820	155785	26595	1079754	46334	111613	0	0	8166	486026	0	0
2024-08-10 17:18:47			0	39350	0	0	0	31168	29810	155837	26982	1079708	46344	111615	0	0	8167	485518	0	0
2024-08-10 17:19:47			0	39342	0	0	0	31166	29810	155797	26975	1079735	46344	111614	0	0	8167	485804	0	0
2024-08-10 17:20:47			0	39348	0	0	0	31163	29810	155753	26549	1079735	46344	111613	0	0	8167	485589	0	0
2024-08-10 17:21:47			0	39350	0	0	0	31137	29800	155745	26802	1079582	46344	111603	0	0	8168	485546	0	0
2024-08-10 17:22:47			0	39364	0	0	0	31101	29790	155741	27041	1079510	46332	111589	0	0	8169	485074	0	0
2024-08-10 17:23:47			0	39365	0	0	0	31090	29780	155681	26911	1079438	46319	111585	0	0	8169	485067	0	0
2024-08-10 17:24:47			0	39373	0	0	0	31103	29770	155797	26745	1079393	46340	111590	0	0	8169	484809	0	0
2024-08-10 17:25:47			0	39351	0	0	0	31111	29770	155821	27137	1079411	46329	111593	0	0	8168	485595	0	0
2024-08-10 17:26:47			0	39375	0	0	0	31124	29760	155737	27100	1079392	46328	111598	0	0	8169	484766	0	0
2024-08-10 17:27:47			0	39360	0	0	0	31122	29760	155825	26885	1079374	46328	111597	0	0	8168	485302	0	0
2024-08-10 17:28:47			0	39360	0	0	0	31122	29760	155801	26897	1079473	46338	111597	0	0	8168	485302	0	0
2024-08-10 17:29:47			0	39348	0	0	0	31150	29760	155781	26977	1079446	46361	111608	0	0	8167	485731	0	0
2024-08-10 17:30:47			0	39365	0	0	0	31163	29770	155685	27015	1079573	46351	111613	0	0	8168	485095	0	0
2024-08-10 17:31:47			0	39366	0	0	0	31148	29770	155725	26961	1079528	46352	111607	0	0	8168	485059	0	0
2024-08-10 17:32:47			0	39364	0	0	0	31142	29770	155685	26927	1079528	46340	111605	0	0	8168	485131	0	0
2024-08-10 17:33:47			0	39386	0	0	0	31137	29760	155745	26937	1079510	46373	111603	0	0	8170	484373	0	0
2024-08-10 17:34:47			0	39398	0	0	0	31142	29770	155765	26885	1079519	46329	111605	0	0	8170	483917	0	0
2024-08-10 17:35:47			0	39388	0	0	0	31153	29760	155837	27003	1079564	46361	111609	0	0	8169	484302	0	0
2024-08-10 17:36:47			0	39393	0	0	0	31181	29790	155717	26953	1079690	46364	111620	0	0	8169	484039	0	0
2024-08-10 17:37:47			0	39396	0	0	0	31179	29780	155773	27055	1079645	46363	111619	0	0	8169	483960	0	0
2024-08-10 17:38:47			0	39379	0	0	0	31199	29780	155733	27131	1079708	46352	111627	0	0	8168	484567	0	0
2024-08-10 17:39:47			0	39404	0	0	0	31197	29790	155761	26935	1079753	46365	111626	0	0	8170	483647	0	0
2024-08-10 17:40:47			0	39395	0	0	0	31192	29780	155605	26608	1079627	46363	111624	0	0	8169	483996	0	0
2024-08-10 17:41:47			0	39403	0	0	0	31202	29800	155657	26923	1079762	46387	111628	0	0	8170	483654	0	0
2024-08-10 17:42:47			0	39413	0	0	0	31202	29800	155629	27159	1079771	46366	111628	0	0	8170	483298	0	0
2024-08-10 17:43:47			0	39398	0	0	0	31205	29800	155721	26667	1079825	46366	111629	0	0	8169	483833	0	0
2024-08-10 17:44:47			0	39391	0	0	0	31220	29800	155697	26883	1079798	46355	111635	0	0	8169	484082	0	0
2024-08-10 17:45:47			0	39398	0	0	0	31228	29800	155685	26602	1079852	46377	111638	0	0	8169	483833	0	0
2024-08-10 17:46:47			0	39392	0	0	0	31244	29810	155733	26974	1079817	46367	111644	0	0	8168	484018	0	0
2024-08-10 17:47:47			0	39404	0	0	0	31241	29810	155677	26970	1079871	46356	111643	0	0	8169	483590	0	0
2024-08-10 17:48:47			0	39394	0	0	0	31241	29820	155769	26602	1079934	46356	111643	0	0	8168	483919	0	0
2024-08-10 17:49:47			0	39387	0	0	0	31241	29830	155745	26883	1079952	46368	111643	0	0	8168	484140	0	0
2024-08-10 17:50:47			0	39391	0	0	0	31251	29820	155721	26817	1079970	46357	111647	0	0	8168	484026	0	0
2024-08-10 17:51:47			0	39392	0	0	0	31238	29840	155785	26876	1079970	46359	111642	0	0	8169	483934	0	0
2024-08-10 17:52:47			0	39408	0	0	0	31249	29830	155769	26618	1079979	46357	111646	0	0	8169	483391	0	0
2024-08-10 17:53:47			0	39390	0	0	0	31246	29840	155737	26838	1079970	46359	111645	0	0	8168	484005	0	0
2024-08-10 17:54:47			0	39398	0	0	0	31231	29830	155653	26809	1079907	46369	111639	0	0	8169	483748	0	0
2024-08-10 17:55:47			0	39375	0	0	0	31238	29840	155773	26984	1079970	46347	111642	0	0	8168	484540	0	0
2024-08-10 17:56:47			0	39375	0	0	0	31228	29830	155713	26589	1079961	46358	111638	0	0	8168	484569	0	0
2024-08-10 17:57:47			0	39374	0	0	0	31233	29830	155705	27050	1079880	46358	111640	0	0	8168	484604	0	0
2024-08-10 17:58:47			0	39368	0	0	0	31244	29830	155741	26677	1079961	46358	111644	0	0	8167	484818	0	0
2024-08-10 17:59:47			0	39360	0	0	0	31241	29850	155669	26667	1080060	46347	111643	0	0	8167	485047	0	0
2024-08-10 18:00:47			0	39361	0	0	0	31241	29850	155833	26974	1079979	46359	111643	0	0	8167	485012	0	0
2024-08-10 18:01:47			0	39377	0	0	0	31249	29850	155717	27083	1080006	46359	111646	0	0	8168	484441	0	0
2024-08-10 18:02:47			0	39371	0	0	0	31246	29850	155813	27211	1079988	46360	111645	0	0	8167	484655	0	0
2024-08-10 18:03:47			0	39355	0	0	0	31238	29860	155729	26710	1079997	46371	111642	0	0	8167	485198	0	0
2024-08-10 18:04:47			0	39354	0	0	0	31236	29850	155789	27005	1080006	46359	111641	0	0	8166	485262	0	0
2024-08-10 18:05:47			0	39361	0	0	0	31241	29850	155797	27057	1079988	46360	111643	0	0	8167	485012	0	0
2024-08-10 18:06:47			0	39364	0	0	0	31233	29850	155725	27071	1079952	46359	111640	0	0	8167	484905	0	0
2024-08-10 18:07:47			0	39354	0	0	0	31241	29850	155789	26901	1079979	46336	111643	0	0	8166	485262	0	0
2024-08-10 18:08:47			0	39364	0	0	0	31238	29850	155793	26788	1079961	46360	111642	0	0	8167	484905	0	0
2024-08-10 18:09:47			0	39372	0	0	0	31241	29850	155777	27211	1080033	46359	111643	0	0	8167	484619	0	0
2024-08-10 18:10:47			0	39352	0	0	0	31241	29850	155841	27133	1080033	46359	111643	0	0	8166	485333	0	0
2024-08-10 18:11:47			0	39371	0	0	0	31238	29840	155665	27102	1079943	46370	111642	0	0	8167	484683	0	0
2024-08-10 18:12:47			0	39356	0	0	0	31241	29850	155833	27244	1079898	46370	111643	0	0	8166	485190	0	0
2024-08-10 18:13:47			0	39367	0	0	0	31244	29850	155837	27305	1080060	46370	111644	0	0	8167	484797	0	0
2024-08-10 18:14:47			0	39374	0	0	0	31241	29850	155733	26993	1080060	46359	111643	0	0	8167	484548	0	0
2024-08-10 18:15:47			0	39384	0	0	0	31257	29850	155793	27208	1080096	46371	111649	0	0	8168	484191	0	0
2024-08-10 18:16:47			0	39368	0	0	0	31254	29850	155777	27175	1080087	46370	111648	0	0	8167	484762	0	0
2024-08-10 18:17:47			0	39386	0	0	0	31259	29860	155757	27124	1080051	46360	111650	0	0	8168	484091	0	0
2024-08-10 18:18:47			0	39386	0	0	0	31264	29860	155753	27043	1080078	46371	111652	0	0	8168	484091	0	0
2024-08-10 18:19:47			0	39400	0	0	0	31270	29860	155697	26904	1080051	46360	111654	0	0	8169	483592	0	0
2024-08-10 18:20:47			0	39406	0	0	0	31270	29870	155722	27175	1080123	46361	111654	0	0	8169	483350	0	0
2024-08-10 18:21:47			0	39393	0	0	0	31275	29870	155789	27045	1080123	46361	111656	0	0	8168	483813	0	0
2024-08-10 18:22:47			0	39396	0	0	0	31251	29860	155661	27187	1080141	46372	111647	0	0	8169	483735	0	0
2024-08-10 18:23:47			0	39389	0	0	0	31251	29860	155665	26868	1080024	46348	111647	0	0	8168	483984	0	0
2024-08-10 18:24:47			0	39402	0	0	0	31246	29860	155741	27242	1080060	46349	111645	0	0	8169	483521	0	0
2024-08-10 18:25:47			0	39405	0	0	0	31236	29860	155677	27050	1080114	46361	111641	0	0	8169	483414	0	0
2024-08-10 18:26:47			0	39403	0	0	0	31233	29860	155681	27218	1080033	46361	111640	0	0	8169	483485	0	0
2024-08-10 18:27:47			0	39410	0	0	0	31236	29850	155653	27242	1079988	46360	111641	0	0	8170	483264	0	0
2024-08-10 18:28:47			0	39405	0	0	0	31244	29850	155537	27086	1079979	46370	111644	0	0	8169	483442	0	0
2024-08-10 18:29:47			0	39388	0	0	0	31251	29850	155577	26909	1080069	46348	111647	0	0	8168	484048	0	0
2024-08-10 18:30:47			0	39390	0	0	0	31241	29860	155557	26927	1080051	46360	111643	0	0	8168	483949	0	0
2024-08-10 18:31:47			0	39400	0	0	0	31244	29850	155481	26797	1080060	46359	111644	0	0	8169	483620	0	0
2024-08-10 18:32:47			0	39425	0	0	0	31236	29860	155550	27104	1080024	46348	111641	0	0	8171	482701	0	0
2024-08-10 18:33:47			0	39417	0	0	0	31244	29850	155494	27088	1079979	46347	111644	0	0	8170	483014	0	0
2024-08-10 18:34:47			0	39416	0	0	0	31231	29850	155534	26979	1079988	46348	111639	0	0	8170	483050	0	0
2024-08-10 18:35:47			0	39424	0	0	0	31212	29850	155570	26994	1079961	46371	111632	0	0	8171	482765	0	0
2024-08-10 18:36:47			0	39421	0	0	0	31220	29850	155610	26894	1079952	46347	111635	0	0	8171	482872	0	0
2024-08-10 18:37:47			0	39422	0	0	0	31218	29850	155514	26840	1080006	46359	111634	0	0	8171	482836	0	0
2024-08-10 18:38:47			0	39428	0	0	0	31220	29850	155418	26958	1079979	46347	111635	0	0	8171	482623	0	0
2024-08-10 18:39:47			0	39419	0	0	0	31228	29850	155498	27041	1079979	46359	111638	0	0	8170	482943	0	0
2024-08-10 18:40:47			0	39423	0	0	0	31212	29850	155482	26894	1079925	46347	111632	0	0	8171	482801	0	0
2024-08-10 18:41:47			0	39439	0	0	0	31215	29830	155354	26970	1079907	46358	111633	0	0	8172	482287	0	0
2024-08-10 18:42:47			0	39424	0	0	0	31205	29830	155410	27183	1079853	46358	111629	0	0	8171	482821	0	0
2024-08-10 18:43:47			0	39423	0	0	0	31202	29830	155506	27081	1079853	46369	111628	0	0	8171	482857	0	0
2024-08-10 18:44:47			0	39434	0	0	0	31205	29830	155438	26880	1079871	46368	111629	0	0	8171	482465	0	0
2024-08-10 18:45:47			0	39414	0	0	0	31205	29820	155485	27085	1079853	46367	111629	0	0	8170	483206	0	0
2024-08-10 18:46:47			0	39430	0	0	0	31212	29820	155402	27007	1079880	46367	111632	0	0	8171	482636	0	0
2024-08-10 18:47:47			0	39447	0	0	0	31205	29830	155410	26745	1079898	46368	111629	0	0	8172	482003	0	0
2024-08-10 18:48:47			0	39442	0	0	0	31210	29820	155466	27131	1079853	46378	111631	0	0	8172	482209	0	0
2024-08-10 18:49:47			0	39427	0	0	0	31215	29820	155358	26894	1079835	46368	111633	0	0	8171	482743	0	0
2024-08-10 18:50:47			0	39449	0	0	0	31212	29820	155438	26691	1079880	46356	111632	0	0	8172	481959	0	0
2024-08-10 18:51:47			0	39451	0	0	0	31218	29820	155510	27100	1079889	46357	111634	0	0	8172	481888	0	0
2024-08-10 18:52:47			0	39446	0	0	0	31215	29830	155434	26811	1079844	46368	111633	0	0	8172	482038	0	0
2024-08-10 18:53:47			0	39460	0	0	0	31218	29810	155362	27206	1079871	46378	111634	0	0	8173	481596	0	0
2024-08-10 18:54:47			0	39452	0	0	0	31210	29820	155334	26984	1079853	46378	111631	0	0	8172	481853	0	0
2024-08-10 18:55:47			0	39472	0	0	0	31210	29830	155518	26915	1079871	46368	111631	0	0	8173	481113	0	0
2024-08-10 18:56:47			0	39464	0	0	0	31207	29820	155398	27121	1079781	46357	111630	0	0	8173	481426	0	0
2024-08-10 18:57:47			0	39465	0	0	0	31212	29810	155410	27140	1079817	46356	111632	0	0	8173	481418	0	0
2024-08-10 18:58:47			0	39454	0	0	0	31207	29820	155402	26916	1079880	46356	111630	0	0	8172	481782	0	0
2024-08-10 18:59:47			0	39465	0	0	0	31205	29810	155362	27265	1079871	46378	111629	0	0	8173	481418	0	0
2024-08-10 19:00:47			0	39471	0	0	0	31207	29820	155398	27121	1079826	46367	111630	0	0	8173	481177	0	0
2024-08-10 19:01:47			0	39477	0	0	0	31207	29810	155458	26944	1079808	46377	111630	0	0	8174	480992	0	0
2024-08-10 19:02:47			0	39467	0	0	0	31210	29810	155318	27173	1079871	46356	111631	0	0	8173	481347	0	0
2024-08-10 19:03:47			0	39456	0	0	0	31205	29810	155370	27039	1079790	46367	111629	0	0	8173	481738	0	0
2024-08-10 19:04:47			0	39455	0	0	0	31207	29810	155358	27026	1079817	46367	111630	0	0	8172	481774	0	0
2024-08-10 19:05:47			0	39462	0	0	0	31194	29810	155370	27026	1079780	46366	111625	0	0	8173	481525	0	0
2024-08-10 19:06:47			0	39472	0	0	0	31202	29800	155346	26873	1079798	46366	111628	0	0	8173	481198	0	0
2024-08-10 19:07:47			0	39481	0	0	0	31197	29810	155282	26996	1079808	46366	111626	0	0	8174	480850	0	0
2024-08-10 19:08:47			0	39456	0	0	0	31197	29800	155338	27102	1079744	46366	111626	0	0	8173	481767	0	0
2024-08-10 19:09:47			0	39444	0	0	0	31202	29800	155342	27126	1079789	46365	111628	0	0	8172	482194	0	0
2024-08-10 19:10:47			0	39474	0	0	0	31199	29800	155310	27062	1079771	46366	111627	0	0	8174	481127	0	0
2024-08-10 19:11:47			0	39474	0	0	0	31189	29800	155270	26970	1079744	46388	111623	0	0	8174	481127	0	0
2024-08-10 19:12:47			0	39474	0	0	0	31199	29800	155450	26668	1079789	46365	111627	0	0	8174	481127	0	0
2024-08-10 19:13:47			0	39467	0	0	0	31199	29800	155334	26901	1079762	46354	111627	0	0	8173	481375	0	0
2024-08-10 19:14:47			0	39485	0	0	0	31205	29800	155306	26778	1079825	46366	111629	0	0	8174	480736	0	0
2024-08-10 19:15:47			0	39488	0	0	0	31205	29800	155318	26979	1079798	46377	111629	0	0	8174	480629	0	0
2024-08-10 19:16:47			0	39477	0	0	0	31205	29800	155378	26958	1079798	46366	111629	0	0	8174	481020	0	0
2024-08-10 19:17:47			0	39474	0	0	0	31205	29800	155390	27048	1079762	46365	111629	0	0	8174	481127	0	0
2024-08-10 19:18:47			0	39498	0	0	0	31205	29810	155394	26786	1079780	46355	111629	0	0	8175	480246	0	0
2024-08-10 19:19:47			0	39489	0	0	0	31199	29800	155330	26722	1079771	46377	111627	0	0	8174	480594	0	0
2024-08-10 19:20:47			0	39494	0	0	0	31199	29800	155374	27001	1079735	46365	111627	0	0	8175	480416	0	0
2024-08-10 19:21:47			0	39501	0	0	0	31212	29800	155330	26762	1079852	46366	111632	0	0	8175	480167	0	0
2024-08-10 19:22:47			0	39497	0	0	0	31205	29810	155350	26939	1079780	46366	111629	0	0	8175	480281	0	0
2024-08-10 19:23:47			0	39499	0	0	0	31210	29800	155338	26975	1079744	46366	111631	0	0	8175	480238	0	0
2024-08-10 19:24:47			0	39503	0	0	0	31210	29800	155318	27008	1079825	46377	111631	0	0	8175	480096	0	0
2024-08-10 19:25:47			0	39517	0	0	0	31212	29810	155230	26906	1079835	46366	111632	0	0	8176	479571	0	0
2024-08-10 19:26:47			0	39512	0	0	0	31205	29810	155238	26717	1079780	46366	111629	0	0	8176	479749	0	0
2024-08-10 19:27:47			0	39509	0	0	0	31207	29800	155258	27102	1079771	46366	111630	0	0	8175	479883	0	0
2024-08-10 19:28:47			0	39509	0	0	0	31205	29810	155250	27199	1079808	46366	111629	0	0	8176	479855	0	0
2024-08-10 19:29:47			0	39540	0	0	0	31225	29810	155246	26923	1079862	46366	111637	0	0	8177	478756	0	0
2024-08-10 19:30:47			0	39554	0	0	0	31202	29810	155074	27029	1079808	46366	111628	0	0	8178	478260	0	0
2024-08-10 19:31:47			0	39544	0	0	0	31194	29800	155042	26987	1079789	46365	111625	0	0	8178	478642	0	0
2024-08-10 19:32:47			0	39554	0	0	0	31194	29800	155194	26852	1079771	46366	111625	0	0	8178	478287	0	0
2024-08-10 19:33:47			0	39556	0	0	0	31184	29790	155006	26989	1079771	46353	111621	0	0	8178	478244	0	0
2024-08-10 19:34:47			0	39575	0	0	0	31181	29800	155090	27071	1079708	46365	111620	0	0	8180	477544	0	0
2024-08-10 19:35:47			0	39560	0	0	0	31179	29780	155134	26913	1079654	46352	111619	0	0	8179	478131	0	0
2024-08-10 19:36:47			0	39542	0	0	0	31171	29780	155202	26720	1079591	46352	111616	0	0	8178	478769	0	0
2024-08-10 19:37:47			0	39529	0	0	0	31171	29770	155266	26738	1079609	46363	111616	0	0	8177	479257	0	0
2024-08-10 19:38:47			0	39506	0	0	0	31163	29770	155394	26502	1079600	46362	111613	0	0	8176	480074	0	0
2024-08-10 19:39:47			0	39496	0	0	0	31163	29770	155394	27121	1079663	46363	111613	0	0	8175	480429	0	0
2024-08-10 19:40:47			0	39486	0	0	0	31163	29770	155374	27081	1079627	46374	111613	0	0	8175	480784	0	0
2024-08-10 19:41:47			0	39520	0	0	0	31155	29770	155358	26835	1079636	46363	111610	0	0	8177	479577	0	0
2024-08-10 19:42:47			0	39542	0	0	0	31163	29760	155238	26876	1079510	46373	111613	0	0	8178	478824	0	0
2024-08-10 19:43:47			0	39551	0	0	0	31155	29760	155162	26856	1079564	46361	111610	0	0	8179	478505	0	0
2024-08-10 19:44:47			0	39560	0	0	0	31142	29760	155170	27078	1079536	46361	111605	0	0	8179	478186	0	0
2024-08-10 19:45:47			0	39562	0	0	0	31145	29760	155110	27066	1079581	46361	111606	0	0	8179	478116	0	0
2024-08-10 19:46:47			0	39556	0	0	0	31153	29760	155170	27265	1079500	46361	111609	0	0	8179	478328	0	0
2024-08-10 19:47:47			0	39583	0	0	0	31142	29760	155162	26960	1079527	46361	111605	0	0	8181	477372	0	0
2024-08-10 19:48:47			0	39551	0	0	0	31142	29750	155166	27163	1079518	46361	111605	0	0	8179	478533	0	0
2024-08-10 19:49:47			0	39560	0	0	0	31158	29740	155054	26930	1079527	46359	111611	0	0	8179	478242	0	0
2024-08-10 19:50:47			0	39563	0	0	0	31148	29750	155114	27026	1079509	46372	111607	0	0	8179	478108	0	0
2024-08-10 19:51:47			0	39576	0	0	0	31142	29760	155086	27166	1079500	46350	111605	0	0	8180	477620	0	0
2024-08-10 19:52:47			0	39558	0	0	0	31142	29740	155214	27060	1079500	46359	111605	0	0	8179	478313	0	0
2024-08-10 19:53:47			0	39559	0	0	0	31140	29750	155218	26812	1079563	46360	111604	0	0	8179	478250	0	0
2024-08-10 19:54:47			0	39540	0	0	0	31135	29750	155166	27027	1079455	46372	111602	0	0	8178	478923	0	0
2024-08-10 19:55:47			0	39523	0	0	0	31132	29750	155238	26769	1079482	46372	111601	0	0	8177	479526	0	0
2024-08-10 19:56:47			0	39511	0	0	0	31135	29740	155398	26876	1079437	46359	111602	0	0	8177	479980	0	0
2024-08-10 19:57:47			0	39467	0	0	0	31122	29740	155394	26902	1079464	46348	111597	0	0	8174	481544	0	0
2024-08-10 19:58:47			0	39450	0	0	0	31111	29740	155574	27173	1079419	46371	111593	0	0	8173	482149	0	0
2024-08-10 19:59:47			0	39428	0	0	0	31114	29740	155598	26963	1079329	46371	111594	0	0	8172	482932	0	0
2024-08-10 20:00:47			0	39404	0	0	0	31111	29720	155865	26809	1079329	46357	111593	0	0	8171	483844	0	0
2024-08-10 20:01:47			0	39371	0	0	0	31111	29730	155857	26970	1079311	46358	111593	0	0	8169	484994	0	0
2024-08-10 20:02:47			0	39349	0	0	0	31088	29710	156005	26719	1079230	46356	111584	0	0	8168	485837	0	0
2024-08-10 20:03:47			0	39325	0	0	0	31077	29700	156157	27142	1079158	46344	111580	0	0	8167	486724	0	0
2024-08-10 20:04:47			0	39303	0	0	0	31067	29700	156213	27064	1079122	46343	111576	0	0	8166	487511	0	0
2024-08-10 20:05:47			0	39273	0	0	0	31057	29690	156309	26857	1079130	46333	111572	0	0	8164	488615	0	0
2024-08-10 20:06:47			0	39262	0	0	0	31051	29690	156449	26746	1079049	46343	111570	0	0	8164	489010	0	0
2024-08-10 20:07:47			0	39226	0	0	0	31051	29680	156425	27107	1079112	46352	111570	0	0	8162	490332	0	0
2024-08-10 20:08:47			0	39220	0	0	0	31041	29670	156605	27022	1079040	46352	111566	0	0	8161	490576	0	0
2024-08-10 20:09:47			0	39190	0	0	0	31046	29670	156693	27057	1078995	46352	111568	0	0	8160	491656	0	0
2024-08-10 20:10:47			0	39159	0	0	0	31038	29670	156849	26915	1078968	46352	111565	0	0	8158	492773	0	0
2024-08-10 20:11:47			0	39123	0	0	0	31031	29660	156897	26958	1078950	46330	111562	0	0	8156	494100	0	0
2024-08-10 20:12:47			0	39089	0	0	0	31036	29650	157013	27093	1079013	46350	111564	0	0	8154	495358	0	0
2024-08-10 20:13:47			0	39074	0	0	0	31025	29650	157161	26795	1078932	46361	111560	0	0	8153	495901	0	0
2024-08-10 20:14:47			0	39033	0	0	0	31028	29650	157297	26974	1078977	46361	111561	0	0	8151	497386	0	0
2024-08-10 20:15:47			0	39017	0	0	0	31031	29650	157209	26935	1078959	46350	111562	0	0	8150	497966	0	0
2024-08-10 20:16:47			0	39006	0	0	0	31028	29640	157369	26654	1078905	46348	111561	0	0	8149	498395	0	0
2024-08-10 20:17:47			0	39001	0	0	0	31031	29640	157445	26923	1078887	46350	111562	0	0	8149	498576	0	0
2024-08-10 20:18:47			0	38979	0	0	0	31036	29640	157449	26944	1078914	46361	111564	0	0	8148	499375	0	0
2024-08-10 20:19:47			0	38965	0	0	0	31044	29640	157509	26991	1079022	46361	111567	0	0	8147	499884	0	0
2024-08-10 20:20:47			0	38952	0	0	0	31054	29640	157525	26715	1078941	46350	111571	0	0	8146	500357	0	0
2024-08-10 20:21:47			0	38958	0	0	0	31049	29640	157673	26844	1078914	46361	111569	0	0	8146	500139	0	0
2024-08-10 20:22:47			0	38943	0	0	0	31049	29650	157685	26821	1078986	46372	111569	0	0	8145	500655	0	0
2024-08-10 20:23:47			0	38929	0	0	0	31038	29640	157665	27092	1078941	46383	111565	0	0	8145	501194	0	0
2024-08-10 20:24:47			0	38926	0	0	0	31023	29650	157693	27067	1078923	46350	111559	0	0	8145	501275	0	0
2024-08-10 20:25:47			0	38928	0	0	0	31031	29640	157725	26779	1078878	46360	111562	0	0	8145	501231	0	0
2024-08-10 20:26:47			0	38932	0	0	0	31020	29630	157677	27105	1078841	46359	111558	0	0	8145	501114	0	0
2024-08-10 20:27:47			0	38925	0	0	0	31005	29630	157777	27083	1078868	46347	111552	0	0	8145	501369	0	0
2024-08-10 20:28:47			0	38936	0	0	0	31007	29630	157765	27029	1078832	46336	111553	0	0	8146	500969	0	0
2024-08-10 20:29:47			0	38929	0	0	0	31002	29630	157713	26998	1078814	46347	111551	0	0	8145	501224	0	0
2024-08-10 20:30:47			0	38918	0	0	0	30994	29620	157749	27180	1078679	46346	111548	0	0	8145	501654	0	0
2024-08-10 20:31:47			0	38937	0	0	0	30992	29620	157689	27414	1078679	46358	111547	0	0	8146	500961	0	0
2024-08-10 20:32:47			0	38966	0	0	0	30989	29610	157713	27196	1078688	46345	111546	0	0	8148	499935	0	0
2024-08-10 20:33:47			0	38953	0	0	0	30973	29610	157721	27227	1078607	46357	111540	0	0	8147	500408	0	0
2024-08-10 20:34:47			0	38954	0	0	0	30979	29610	157597	26791	1078715	46345	111542	0	0	8147	500372	0	0
2024-08-10 20:35:47			0	38984	0	0	0	30973	29610	157517	26981	1078742	46345	111540	0	0	8149	499281	0	0
2024-08-10 20:36:47			0	38995	0	0	0	30984	29600	157533	27064	1078733	46345	111544	0	0	8149	498910	0	0
2024-08-10 20:37:47			0	39009	0	0	0	30981	29600	157449	26899	1078724	46356	111543	0	0	8150	498402	0	0
2024-08-10 20:38:47			0	39029	0	0	0	30986	29600	157405	27206	1078679	46379	111545	0	0	8151	497676	0	0
2024-08-10 20:39:47			0	39036	0	0	0	30989	29580	157341	26847	1078670	46343	111546	0	0	8151	497480	0	0
2024-08-10 20:40:47			0	39048	0	0	0	30981	29590	157281	27033	1078742	46344	111543	0	0	8152	497016	0	0
2024-08-10 20:41:47			0	39053	0	0	0	30984	29590	157189	27098	1078679	46343	111544	0	0	8152	496835	0	0
2024-08-10 20:42:47			0	39082	0	0	0	30986	29600	157145	26901	1078697	46367	111545	0	0	8154	495756	0	0
2024-08-10 20:43:47			0	39099	0	0	0	30979	29600	157017	26805	1078652	46368	111542	0	0	8155	495141	0	0
2024-08-10 20:44:47			0	39113	0	0	0	30976	29590	156925	26927	1078625	46343	111541	0	0	8156	494663	0	0
2024-08-10 20:45:47			0	39133	0	0	0	30973	29590	156969	27048	1078598	46343	111540	0	0	8157	493941	0	0
2024-08-10 20:46:47			0	39165	0	0	0	30971	29580	156853	26826	1078535	46332	111539	0	0	8159	492815	0	0
2024-08-10 20:47:47			0	39169	0	0	0	30973	29570	156773	26795	1078544	46342	111540	0	0	8159	492699	0	0
2024-08-10 20:48:47			0	39194	0	0	0	30961	29580	156757	26948	1078580	46343	111535	0	0	8161	491769	0	0
2024-08-10 20:49:47			0	39218	0	0	0	30955	29580	156657	26859	1078553	46343	111533	0	0	8162	490905	0	0
2024-08-10 20:50:47			0	39213	0	0	0	30981	29580	156677	27163	1078580	46343	111543	0	0	8162	491085	0	0
2024-08-10 20:51:47			0	39228	0	0	0	30981	29580	156737	27007	1078643	46365	111543	0	0	8162	490545	0	0
2024-08-10 20:52:47			0	39230	0	0	0	30989	29580	156681	26984	1078661	46376	111546	0	0	8162	490474	0	0
2024-08-10 20:53:47			0	39228	0	0	0	30986	29580	156705	26863	1078634	46354	111545	0	0	8162	490545	0	0
2024-08-10 20:54:47			0	39244	0	0	0	30981	29580	156541	26828	1078670	46354	111543	0	0	8163	489970	0	0
2024-08-10 20:55:47			0	39253	0	0	0	30984	29570	156553	26994	1078598	46353	111544	0	0	8164	489675	0	0
2024-08-10 20:56:47			0	39267	0	0	0	30981	29580	156697	27026	1078643	46343	111543	0	0	8165	489144	0	0
2024-08-10 20:57:47			0	39261	0	0	0	30986	29580	156613	27199	1078697	46365	111545	0	0	8164	489359	0	0
2024-08-10 20:58:47			0	39264	0	0	0	30981	29580	156497	26897	1078616	46354	111543	0	0	8164	489252	0	0
2024-08-10 20:59:47			0	39275	0	0	0	30981	29590	156425	27064	1078607	46366	111543	0	0	8165	488828	0	0
2024-08-10 21:00:47			0	39264	0	0	0	30979	29590	156365	27180	1078634	46355	111542	0	0	8165	489223	0	0
2024-08-10 21:01:47			0	39264	0	0	0	30973	29580	156453	27060	1078661	46354	111540	0	0	8165	489252	0	0
2024-08-10 21:02:47			0	39269	0	0	0	30971	29580	156505	27201	1078580	46354	111539	0	0	8165	489072	0	0
2024-08-10 21:03:47			0	39267	0	0	0	30973	29590	156313	26824	1078571	46354	111540	0	0	8165	489116	0	0
2024-08-10 21:04:47			0	39264	0	0	0	30961	29580	156469	26800	1078580	46354	111535	0	0	8165	489252	0	0
2024-08-10 21:05:47			0	39270	0	0	0	30958	29570	156525	27005	1078571	46353	111534	0	0	8165	489065	0	0
2024-08-10 21:06:47			0	39270	0	0	0	30958	29570	156497	27237	1078517	46331	111534	0	0	8165	489065	0	0
2024-08-10 21:07:47			0	39266	0	0	0	30950	29570	156577	27199	1078571	46331	111531	0	0	8165	489208	0	0
2024-08-10 21:08:47			0	39265	0	0	0	30948	29560	156365	27189	1078499	46341	111530	0	0	8165	489273	0	0
2024-08-10 21:09:47			0	39257	0	0	0	30942	29570	156513	27086	1078454	46330	111528	0	0	8165	489532	0	0
2024-08-10 21:10:47			0	39254	0	0	0	30935	29570	156461	27144	1078463	46353	111525	0	0	8165	489639	0	0
2024-08-10 21:11:47			0	39242	0	0	0	30932	29570	156493	27015	1078454	46341	111524	0	0	8164	490071	0	0
2024-08-10 21:12:47			0	39242	0	0	0	30937	29560	156457	27199	1078472	46341	111526	0	0	8164	490099	0	0
2024-08-10 21:13:47			0	39244	0	0	0	30942	29550	156533	27230	1078535	46340	111528	0	0	8164	490056	0	0
2024-08-10 21:14:47			0	39235	0	0	0	30937	29550	156625	26986	1078444	46350	111526	0	0	8163	490379	0	0
2024-08-10 21:15:47			0	39220	0	0	0	30937	29550	156549	26719	1078471	46361	111526	0	0	8163	490919	0	0
2024-08-10 21:16:47			0	39211	0	0	0	30942	29550	156681	27001	1078526	46350	111528	0	0	8162	491243	0	0
2024-08-10 21:17:47			0	39217	0	0	0	30935	29550	156673	26958	1078444	46350	111525	0	0	8162	491027	0	0
2024-08-10 21:18:47			0	39229	0	0	0	30935	29560	156701	27078	1078436	46363	111525	0	0	8163	490567	0	0
2024-08-10 21:19:47			0	39188	0	0	0	30924	29550	156721	27119	1078390	46350	111521	0	0	8161	492071	0	0
2024-08-10 21:20:47			0	39197	0	0	0	30924	29540	156737	27142	1078408	46339	111521	0	0	8161	491776	0	0
2024-08-10 21:21:47			0	39197	0	0	0	30927	29550	156829	27029	1078336	46361	111522	0	0	8161	491747	0	0
2024-08-10 21:22:47			0	39178	0	0	0	30916	29530	156817	26897	1078318	46350	111518	0	0	8160	492489	0	0
2024-08-10 21:23:47			0	39173	0	0	0	30916	29530	156865	27237	1078399	46339	111518	0	0	8160	492669	0	0
2024-08-10 21:24:47			0	39174	0	0	0	30916	29520	156929	27039	1078345	46347	111518	0	0	8160	492662	0	0
2024-08-10 21:25:47			0	39162	0	0	0	30911	29530	156933	26923	1078390	46338	111516	0	0	8160	493066	0	0
2024-08-10 21:26:47			0	39161	0	0	0	30903	29510	156881	26963	1078309	46347	111513	0	0	8160	493160	0	0
2024-08-10 21:27:47			0	39169	0	0	0	30914	29520	156857	26949	1078381	46337	111517	0	0	8160	492843	0	0
2024-08-10 21:28:47			0	39149	0	0	0	30901	29520	156841	26727	1078318	46370	111512	0	0	8159	493564	0	0
2024-08-10 21:29:47			0	39150	0	0	0	30911	29520	156961	27095	1078291	46347	111516	0	0	8159	493528	0	0
2024-08-10 21:30:47			0	39151	0	0	0	30911	29510	156933	26901	1078336	46358	111516	0	0	8159	493521	0	0
2024-08-10 21:31:47			0	39143	0	0	0	30909	29520	156881	26908	1078273	46359	111515	0	0	8159	493781	0	0
2024-08-10 21:32:47			0	39131	0	0	0	30906	29510	156937	27013	1078228	46370	111514	0	0	8158	494243	0	0
2024-08-10 21:33:47			0	39134	0	0	0	30909	29510	156969	27010	1078273	46358	111515	0	0	8158	494135	0	0
2024-08-10 21:34:47			0	39110	0	0	0	30906	29520	157017	27012	1078318	46336	111514	0	0	8157	494973	0	0
2024-08-10 21:35:47			0	39118	0	0	0	30898	29520	157021	26885	1078273	46348	111511	0	0	8157	494684	0	0
2024-08-10 21:36:47			0	39114	0	0	0	30906	29510	157185	27144	1078246	46347	111514	0	0	8157	494858	0	0
2024-08-10 21:37:47			0	39132	0	0	0	30901	29500	157109	26760	1078255	46356	111512	0	0	8158	494236	0	0
2024-08-10 21:38:47			0	39107	0	0	0	30898	29500	157049	26569	1078291	46335	111511	0	0	8157	495140	0	0
2024-08-10 21:39:47			0	39100	0	0	0	30896	29500	157149	27135	1078228	46345	111510	0	0	8156	495393	0	0
2024-08-10 21:40:47			0	39087	0	0	0	30898	29490	157081	26875	1078273	46345	111511	0	0	8155	495892	0	0
2024-08-10 21:41:47			0	39086	0	0	0	30898	29500	157113	27090	1078309	46356	111511	0	0	8155	495900	0	0
2024-08-10 21:42:47			0	39090	0	0	0	30898	29500	157109	27114	1078255	46334	111511	0	0	8156	495755	0	0
2024-08-10 21:43:47			0	39091	0	0	0	30890	29500	157149	27296	1078201	46356	111508	0	0	8156	495719	0	0
2024-08-10 21:44:47			0	39075	0	0	0	30896	29490	157169	27105	1078183	46334	111510	0	0	8155	496327	0	0
2024-08-10 21:45:47			0	39102	0	0	0	30877	29490	157125	26835	1078156	46334	111503	0	0	8157	495349	0	0
2024-08-10 21:46:47			0	39066	0	0	0	30877	29480	157205	27164	1078120	46322	111503	0	0	8155	496682	0	0
2024-08-10 21:47:47			0	39078	0	0	0	30870	29490	157269	27124	1078165	46345	111500	0	0	8155	496218	0	0
2024-08-10 21:48:47			0	39067	0	0	0	30857	29470	157285	26873	1078074	46354	111495	0	0	8155	496674	0	0
2024-08-10 21:49:47			0	39070	0	0	0	30854	29470	157273	26996	1078047	46343	111494	0	0	8155	496566	0	0
2024-08-10 21:50:47			0	39071	0	0	0	30859	29470	157229	27064	1078074	46343	111496	0	0	8155	496529	0	0
2024-08-10 21:51:47			0	39077	0	0	0	30854	29460	157281	26998	1078056	46342	111494	0	0	8155	496341	0	0
2024-08-10 21:52:47			0	39060	0	0	0	30846	29460	157265	26817	1077993	46341	111491	0	0	8155	496957	0	0
2024-08-10 21:53:47			0	39083	0	0	0	30857	29470	157237	27050	1078011	46343	111495	0	0	8156	496095	0	0
2024-08-10 21:54:47			0	39077	0	0	0	30849	29460	157273	27170	1077993	46352	111492	0	0	8156	496341	0	0
2024-08-10 21:55:47			0	39053	0	0	0	30851	29460	157265	27353	1077993	46352	111493	0	0	8154	497211	0	0
2024-08-10 21:56:47			0	39066	0	0	0	30841	29460	157341	26821	1078047	46352	111489	0	0	8155	496739	0	0
2024-08-10 21:57:47			0	39056	0	0	0	30844	29450	157405	27123	1077975	46330	111490	0	0	8154	497131	0	0
2024-08-10 21:58:47			0	39065	0	0	0	30838	29460	157365	26880	1077939	46352	111488	0	0	8155	496776	0	0
2024-08-10 21:59:47			0	39068	0	0	0	30836	29450	157333	27079	1077948	46330	111487	0	0	8155	496696	0	0
2024-08-10 22:00:47			0	39041	0	0	0	30841	29450	157377	27026	1077930	46352	111489	0	0	8154	497675	0	0
2024-08-10 22:01:47			0	39037	0	0	0	30844	29450	157341	26932	1077894	46330	111490	0	0	8153	497820	0	0
2024-08-10 22:02:47			0	39064	0	0	0	30831	29440	157373	27098	1077939	46340	111485	0	0	8155	496870	0	0
2024-08-10 22:03:47			0	39042	0	0	0	30831	29450	157385	26856	1077921	46352	111485	0	0	8154	497639	0	0
2024-08-10 22:04:47			0	39057	0	0	0	30825	29440	157449	26989	1077858	46352	111483	0	0	8155	497124	0	0
2024-08-10 22:05:47			0	39043	0	0	0	30818	29440	157453	27225	1077876	46339	111480	0	0	8154	497631	0	0
2024-08-10 22:06:47			0	39052	0	0	0	30823	29440	157385	27350	1077822	46329	111482	0	0	8154	497305	0	0
2024-08-10 22:07:47			0	39037	0	0	0	30820	29440	157473	26987	1077903	46339	111481	0	0	8154	497849	0	0
2024-08-10 22:08:47			0	39045	0	0	0	30820	29430	157381	27131	1077804	46338	111481	0	0	8154	497588	0	0
2024-08-10 22:09:47			0	39035	0	0	0	30823	29430	157337	26911	1077840	46338	111482	0	0	8153	497951	0	0
2024-08-10 22:10:47			0	39039	0	0	0	30818	29430	157425	27076	1077858	46350	111480	0	0	8154	497805	0	0
2024-08-10 22:11:47			0	39039	0	0	0	30812	29430	157445	27142	1077840	46338	111478	0	0	8154	497805	0	0
2024-08-10 22:12:47			0	39053	0	0	0	30815	29430	157409	27048	1077750	46338	111479	0	0	8155	497297	0	0
2024-08-10 22:13:47			0	39056	0	0	0	30807	29420	157385	27005	1077813	46360	111476	0	0	8155	497218	0	0
2024-08-10 22:14:47			0	39043	0	0	0	30812	29410	157489	27067	1077776	46326	111478	0	0	8154	497718	0	0
2024-08-10 22:15:47			0	39037	0	0	0	30807	29420	157349	27220	1077813	46349	111476	0	0	8154	497907	0	0
2024-08-10 22:16:47			0	39055	0	0	0	30807	29420	157397	26902	1077759	46337	111476	0	0	8155	497254	0	0
2024-08-10 22:17:47			0	39045	0	0	0	30799	29420	157449	27062	1077768	46350	111473	0	0	8154	497617	0	0
2024-08-10 22:18:47			0	39058	0	0	0	30799	29400	157433	27029	1077623	46326	111473	0	0	8155	497203	0	0
2024-08-10 22:19:47			0	39042	0	0	0	30792	29400	157445	27105	1077704	46326	111470	0	0	8154	497784	0	0
2024-08-10 22:20:47			0	39041	0	0	0	30794	29410	157381	26951	1077740	46336	111471	0	0	8154	497791	0	0
2024-08-10 22:21:47			0	39056	0	0	0	30797	29410	157377	26956	1077740	46336	111472	0	0	8155	497247	0	0
2024-08-10 22:22:47			0	39064	0	0	0	30792	29400	157369	27305	1077650	46336	111470	0	0	8156	496985	0	0
2024-08-10 22:23:47			0	39052	0	0	0	30789	29400	157341	27012	1077668	46325	111469	0	0	8155	497421	0	0
2024-08-10 22:24:47			0	39055	0	0	0	30799	29390	157385	26819	1077659	46346	111473	0	0	8155	497341	0	0
2024-08-10 22:25:47			0	39040	0	0	0	30789	29400	157413	27026	1077704	46336	111469	0	0	8154	497856	0	0
2024-08-10 22:26:47			0	39043	0	0	0	30792	29400	157333	27079	1077722	46335	111470	0	0	8154	497747	0	0
2024-08-10 22:27:47			0	39061	0	0	0	30784	29390	157501	26648	1077713	46346	111467	0	0	8155	497123	0	0
2024-08-10 22:28:47			0	39048	0	0	0	30794	29390	157473	26922	1077659	46334	111471	0	0	8155	497595	0	0
2024-08-10 22:29:47			0	39052	0	0	0	30786	29400	157405	27081	1077722	46335	111468	0	0	8155	497421	0	0
2024-08-10 22:30:47			0	39054	0	0	0	30789	29400	157429	27105	1077677	46336	111469	0	0	8155	497348	0	0
2024-08-10 22:31:47			0	39065	0	0	0	30784	29390	157437	27093	1077605	46346	111467	0	0	8156	496978	0	0
2024-08-10 22:32:47			0	39059	0	0	0	30771	29370	157337	27043	1077623	46344	111462	0	0	8155	497253	0	0
2024-08-10 22:33:47			0	39052	0	0	0	30768	29390	157417	26972	1077578	46334	111461	0	0	8155	497450	0	0
2024-08-10 22:34:47			0	39054	0	0	0	30781	29380	157397	27189	1077560	46345	111466	0	0	8155	497406	0	0
2024-08-10 22:35:47			0	39059	0	0	0	30771	29380	157361	27012	1077614	46333	111462	0	0	8155	497225	0	0
2024-08-10 22:36:47			0	39063	0	0	0	30763	29380	157337	26934	1077605	46333	111459	0	0	8156	497079	0	0
2024-08-10 22:37:47			0	39062	0	0	0	30773	29380	157341	27255	1077560	46345	111463	0	0	8156	497116	0	0
2024-08-10 22:38:47			0	39054	0	0	0	30761	29370	157441	27121	1077515	46333	111458	0	0	8155	497435	0	0
2024-08-10 22:39:47			0	39074	0	0	0	30761	29380	157333	27052	1077497	46333	111458	0	0	8157	496681	0	0
2024-08-10 22:40:47			0	39065	0	0	0	30753	29370	157417	26864	1077515	46344	111455	0	0	8156	497036	0	0
2024-08-10 22:41:47			0	39062	0	0	0	30755	29370	157365	26812	1077479	46333	111456	0	0	8156	497145	0	0
2024-08-10 22:42:47			0	39080	0	0	0	30750	29360	157401	26953	1077470	46332	111454	0	0	8157	496521	0	0
2024-08-10 22:43:47			0	39081	0	0	0	30745	29370	157273	26908	1077506	46333	111452	0	0	8157	496456	0	0
2024-08-10 22:44:47			0	39071	0	0	0	30750	29360	157349	26896	1077461	46343	111454	0	0	8156	496847	0	0
2024-08-10 22:45:47			0	39063	0	0	0	30748	29360	157357	27164	1077461	46354	111453	0	0	8156	497137	0	0
2024-08-10 22:46:47			0	39075	0	0	0	30748	29350	157349	27067	1077479	46331	111453	0	0	8157	496731	0	0
2024-08-10 22:47:47			0	39062	0	0	0	30742	29350	157369	26996	1077506	46331	111451	0	0	8156	497202	0	0
2024-08-10 22:48:47			0	39070	0	0	0	30737	29350	157349	27244	1077443	46330	111449	0	0	8157	496912	0	0
2024-08-10 22:49:47			0	39047	0	0	0	30737	29360	157329	26901	1077434	46343	111449	0	0	8155	497718	0	0
2024-08-10 22:50:47			0	39069	0	0	0	30735	29350	157325	27140	1077398	46342	111448	0	0	8157	496949	0	0
2024-08-10 22:51:47			0	39070	0	0	0	30737	29340	157297	27204	1077487	46352	111449	0	0	8157	496941	0	0
2024-08-10 22:52:47			0	39063	0	0	0	30740	29350	157365	27130	1077496	46330	111450	0	0	8156	497166	0	0
2024-08-10 22:53:47			0	39060	0	0	0	30740	29350	157353	27289	1077389	46341	111450	0	0	8156	497275	0	0
2024-08-10 22:54:47			0	39070	0	0	0	30735	29340	157385	27171	1077424	46341	111448	0	0	8157	496941	0	0
2024-08-10 22:55:47			0	39067	0	0	0	30727	29330	157345	27206	1077334	46329	111445	0	0	8156	497079	0	0
2024-08-10 22:56:47			0	39068	0	0	0	30727	29340	157425	27019	1077380	46341	111445	0	0	8157	497014	0	0
2024-08-10 22:57:47			0	39085	0	0	0	30722	29330	157333	27137	1077388	46340	111443	0	0	8158	496426	0	0
2024-08-10 22:58:47			0	39074	0	0	0	30719	29340	157345	26764	1077370	46330	111442	0	0	8157	496796	0	0
2024-08-10 22:59:47			0	39064	0	0	0	30719	29330	157337	26656	1077334	46340	111442	0	0	8156	497188	0	0
2024-08-10 23:00:47			0	39088	0	0	0	30714	29330	157381	27092	1077325	46339	111440	0	0	8158	496317	0	0
2024-08-10 23:01:47			0	39080	0	0	0	30722	29330	157325	26876	1077271	46317	111443	0	0	8157	496607	0	0
2024-08-10 23:02:47			0	39062	0	0	0	30716	29330	157329	27157	1077298	46339	111441	0	0	8156	497260	0	0
2024-08-10 23:03:47			0	39095	0	0	0	30716	29320	157289	26753	1077316	46339	111441	0	0	8158	496093	0	0
2024-08-10 23:04:47			0	39063	0	0	0	30709	29320	157317	26790	1077289	46339	111438	0	0	8156	497253	0	0
2024-08-10 23:05:47			0	39075	0	0	0	30714	29320	157381	26817	1077199	46327	111440	0	0	8157	496818	0	0
2024-08-10 23:06:47			0	39078	0	0	0	30698	29310	157377	27147	1077271	46327	111434	0	0	8157	496738	0	0
2024-08-10 23:07:47			0	39089	0	0	0	30703	29320	157365	26944	1077280	46338	111436	0	0	8158	496310	0	0
2024-08-10 23:08:47			0	39073	0	0	0	30711	29300	157365	27131	1077172	46315	111439	0	0	8157	496948	0	0
2024-08-10 23:09:47			0	39058	0	0	0	30701	29310	157397	26956	1077244	46327	111435	0	0	8156	497463	0	0
2024-08-10 23:10:47			0	39083	0	0	0	30701	29310	157353	26994	1077190	46338	111435	0	0	8158	496556	0	0
2024-08-10 23:11:47			0	39086	0	0	0	30696	29310	157225	26876	1077208	46326	111433	0	0	8158	496448	0	0
2024-08-10 23:12:47			0	39070	0	0	0	30703	29300	157369	26793	1077172	46326	111436	0	0	8157	497057	0	0
2024-08-10 23:13:47			0	39069	0	0	0	30690	29300	157361	27105	1077190	46347	111431	0	0	8157	497093	0	0
2024-08-10 23:14:47			0	39071	0	0	0	30690	29310	157373	26854	1077181	46337	111431	0	0	8157	496992	0	0
2024-08-10 23:15:47			0	39064	0	0	0	30698	29300	157357	26753	1077136	46314	111434	0	0	8157	497274	0	0
2024-08-10 23:16:47			0	39084	0	0	0	30688	29300	157385	26823	1077136	46325	111430	0	0	8158	496549	0	0
2024-08-10 23:17:47			0	39065	0	0	0	30685	29290	157381	27156	1077091	46346	111429	0	0	8157	497267	0	0
2024-08-10 23:18:47			0	39071	0	0	0	30683	29290	157401	27140	1077172	46324	111428	0	0	8157	497049	0	0
2024-08-10 23:19:47			0	39065	0	0	0	30683	29290	157469	26762	1077064	46324	111428	0	0	8157	497267	0	0
2024-08-10 23:20:47			0	39071	0	0	0	30685	29290	157293	26807	1077091	46313	111429	0	0	8157	497049	0	0
2024-08-10 23:21:47			0	39057	0	0	0	30680	29290	157365	26691	1077064	46335	111427	0	0	8157	497557	0	0
2024-08-10 23:22:47			0	39066	0	0	0	30677	29290	157417	26960	1077091	46335	111426	0	0	8157	497231	0	0
2024-08-10 23:23:47			0	39065	0	0	0	30667	29270	157405	26844	1077037	46323	111422	0	0	8157	497325	0	0
2024-08-10 23:24:47			0	39064	0	0	0	30667	29290	157497	26850	1077037	46358	111422	0	0	8157	497303	0	0
2024-08-10 23:25:47			0	39055	0	0	0	30667	29280	157369	26809	1077019	46345	111422	0	0	8157	497659	0	0
2024-08-10 23:26:47			0	39062	0	0	0	30664	29270	157449	26859	1076974	46322	111421	0	0	8157	497434	0	0
2024-08-10 23:27:47			0	39061	0	0	0	30664	29270	157445	26892	1076974	46322	111421	0	0	8157	497470	0	0
2024-08-10 23:28:47			0	39089	0	0	0	30662	29280	157425	26930	1076992	46323	111420	0	0	8159	496426	0	0
2024-08-10 23:29:47			0	39069	0	0	0	30657	29250	157385	26942	1077009	46321	111418	0	0	8157	497237	0	0
2024-08-10 23:30:47			0	39058	0	0	0	30649	29250	157409	27171	1076955	46321	111415	0	0	8157	497637	0	0
2024-08-10 23:31:47			0	39073	0	0	0	30646	29250	157493	26816	1076973	46320	111414	0	0	8158	497092	0	0
2024-08-10 23:32:47			0	39056	0	0	0	30644	29250	157441	26892	1076946	46332	111413	0	0	8157	497709	0	0
2024-08-10 23:33:47			0	39077	0	0	0	30641	29240	157425	26795	1076910	46320	111412	0	0	8158	496976	0	0
2024-08-10 23:34:47			0	39055	0	0	0	30644	29250	157541	26955	1076955	46333	111413	0	0	8157	497746	0	0
2024-08-10 23:35:47			0	39072	0	0	0	30641	29250	157493	26694	1076946	46309	111412	0	0	8158	497129	0	0
2024-08-10 23:36:47			0	39063	0	0	0	30638	29250	157469	26996	1076919	46332	111411	0	0	8157	497455	0	0
2024-08-10 23:37:47			0	39069	0	0	0	30646	29250	157541	27166	1076919	46332	111414	0	0	8158	497237	0	0
2024-08-10 23:38:47			0	39072	0	0	0	30641	29240	157493	27031	1076829	46342	111412	0	0	8158	497158	0	0
2024-08-10 23:39:47			0	39061	0	0	0	30633	29240	157461	27098	1076847	46331	111409	0	0	8157	497557	0	0
2024-08-10 23:40:47			0	39059	0	0	0	30633	29240	157457	27019	1076874	46331	111409	0	0	8157	497629	0	0
2024-08-10 23:41:47			0	39066	0	0	0	30628	29230	157501	26920	1076892	46319	111407	0	0	8158	497404	0	0
2024-08-10 23:42:47			0	39051	0	0	0	30638	29230	157441	26968	1076919	46331	111411	0	0	8157	497949	0	0
2024-08-10 23:43:47			0	39079	0	0	0	30625	29230	157425	27185	1076865	46319	111406	0	0	8158	496932	0	0
2024-08-10 23:44:47			0	39068	0	0	0	30641	29230	157421	27130	1076883	46330	111412	0	0	8158	497331	0	0
2024-08-10 23:45:47			0	39072	0	0	0	30625	29230	157437	27022	1076829	46318	111406	0	0	8158	497186	0	0
2024-08-10 23:46:47			0	39057	0	0	0	30631	29230	157449	27128	1076883	46340	111408	0	0	8157	497731	0	0
2024-08-10 23:47:47			0	39066	0	0	0	30631	29220	157465	27072	1076784	46329	111408	0	0	8158	497433	0	0
2024-08-10 23:48:47			0	39057	0	0	0	30628	29230	157357	26868	1076865	46319	111407	0	0	8157	497731	0	0
2024-08-10 23:49:47			0	39079	0	0	0	30623	29230	157473	27187	1076802	46352	111405	0	0	8158	496932	0	0
2024-08-10 23:50:47			0	39053	0	0	0	30625	29220	157417	26953	1076784	46329	111406	0	0	8157	497905	0	0
2024-08-10 23:51:47			0	39053	0	0	0	30620	29220	157493	27183	1076766	46340	111404	0	0	8157	497905	0	0
2024-08-10 23:52:47			0	39073	0	0	0	30618	29210	157509	27088	1076721	46317	111403	0	0	8158	497208	0	0
2024-08-10 23:53:47			0	39056	0	0	0	30618	29220	157477	27045	1076757	46339	111403	0	0	8157	497796	0	0
2024-08-10 23:54:47			0	39068	0	0	0	30615	29210	157345	27294	1076694	46329	111402	0	0	8158	497389	0	0
2024-08-10 23:55:47			0	39068	0	0	0	30612	29210	157501	27012	1076775	46339	111401	0	0	8158	497389	0	0
2024-08-10 23:56:47			0	39071	0	0	0	30612	29210	157429	27024	1076694	46329	111401	0	0	8158	497280	0	0
2024-08-10 23:57:47			0	39041	0	0	0	30610	29210	157425	27286	1076775	46329	111400	0	0	8156	498370	0	0
2024-08-10 23:58:47			0	39058	0	0	0	30599	29210	157449	27135	1076685	46316	111396	0	0	8158	497752	0	0
2024-08-10 23:59:47			0	39058	0	0	0	30605	29210	157413	27107	1076739	46328	111398	0	0	8157	497752	0	0
2024-08-11 00:00:47			0	39059	0	0	0	30610	29210	157517	27294	1076712	46328	111400	0	0	8157	497716	0	0
2024-08-11 00:01:47			0	39052	0	0	0	30602	29210	157561	27152	1076739	46338	111397	0	0	8157	497970	0	0
2024-08-11 00:02:47			0	39060	0	0	0	30602	29200	157509	27149	1076676	46327	111397	0	0	8158	497709	0	0
2024-08-11 00:03:47			0	39052	0	0	0	30597	29200	157533	27085	1076757	46315	111395	0	0	8157	497999	0	0
2024-08-11 00:04:47			0	39062	0	0	0	30602	29200	157581	27020	1076730	46327	111397	0	0	8158	497636	0	0
2024-08-11 00:05:47			0	39061	0	0	0	30599	29200	157465	27045	1076640	46337	111396	0	0	8158	497672	0	0
2024-08-11 00:06:47			0	39065	0	0	0	30589	29200	157485	26920	1076622	46337	111392	0	0	8158	497527	0	0
2024-08-11 00:07:47			0	39069	0	0	0	30599	29200	157465	27128	1076613	46315	111396	0	0	8158	497382	0	0
2024-08-11 00:08:47			0	39049	0	0	0	30594	29200	157473	26939	1076694	46315	111394	0	0	8157	498108	0	0
2024-08-11 00:09:47			0	39060	0	0	0	30592	29200	157473	27274	1076667	46327	111393	0	0	8158	497709	0	0
2024-08-11 00:10:47			0	39054	0	0	0	30594	29190	157465	27305	1076676	46336	111394	0	0	8157	497955	0	0
2024-08-11 00:11:47			0	39073	0	0	0	30594	29190	157521	27126	1076631	46349	111394	0	0	8158	497266	0	0
2024-08-11 00:12:47			0	39063	0	0	0	30589	29200	157469	27140	1076703	46337	111392	0	0	8158	497600	0	0
2024-08-11 00:13:47			0	39063	0	0	0	30594	29200	157457	26824	1076622	46315	111394	0	0	8158	497600	0	0
2024-08-11 00:14:47			0	39058	0	0	0	30584	29190	157465	27104	1076604	46315	111390	0	0	8158	497810	0	0
2024-08-11 00:15:47			0	39071	0	0	0	30584	29190	157357	26953	1076622	46326	111390	0	0	8158	497338	0	0
2024-08-11 00:16:47			0	39055	0	0	0	30599	29190	157569	26887	1076622	46326	111396	0	0	8157	497919	0	0
2024-08-11 00:17:47			0	39059	0	0	0	30584	29190	157441	26868	1076712	46337	111390	0	0	8158	497774	0	0
2024-08-11 00:18:47			0	39060	0	0	0	30597	29190	157489	26786	1076622	46336	111395	0	0	8158	497737	0	0
2024-08-11 00:19:47			0	39066	0	0	0	30594	29190	157557	26847	1076568	46326	111394	0	0	8158	497520	0	0
2024-08-11 00:20:47			0	39059	0	0	0	30592	29190	157469	26870	1076676	46326	111393	0	0	8158	497774	0	0
2024-08-11 00:21:47			0	39065	0	0	0	30597	29190	157513	27102	1076577	46337	111395	0	0	8158	497556	0	0
2024-08-11 00:22:47			0	39065	0	0	0	30592	29190	157573	27045	1076703	46326	111393	0	0	8158	497556	0	0
2024-08-11 00:23:47			0	39063	0	0	0	30581	29190	157461	26788	1076550	46327	111389	0	0	8158	497629	0	0
2024-08-11 00:24:47			0	39055	0	0	0	30592	29190	157569	27017	1076604	46315	111393	0	0	8157	497919	0	0
2024-08-11 00:25:47			0	39069	0	0	0	30586	29200	157493	26923	1076586	46337	111391	0	0	8158	497382	0	0
2024-08-11 00:26:47			0	39071	0	0	0	30589	29180	157489	26899	1076586	46325	111392	0	0	8158	497367	0	0
2024-08-11 00:27:47			0	39075	0	0	0	30581	29180	157489	27119	1076613	46335	111389	0	0	8159	497222	0	0
2024-08-11 00:28:47			0	39063	0	0	0	30581	29190	157525	27008	1076541	46326	111389	0	0	8158	497629	0	0
2024-08-11 00:29:47			0	39067	0	0	0	30581	29180	157625	26741	1076577	46335	111389	0	0	8158	497512	0	0
2024-08-11 00:30:47			0	39075	0	0	0	30589	29170	157497	26748	1076568	46335	111392	0	0	8159	497251	0	0
2024-08-11 00:31:47			0	39067	0	0	0	30581	29180	157605	27066	1076586	46313	111389	0	0	8158	497512	0	0
2024-08-11 00:32:47			0	39056	0	0	0	30584	29180	157673	27067	1076586	46325	111390	0	0	8158	497912	0	0
2024-08-11 00:33:47			0	39078	0	0	0	30581	29170	157541	27013	1076487	46335	111389	0	0	8159	497142	0	0
2024-08-11 00:34:47			0	39066	0	0	0	30581	29170	157557	27142	1076568	46325	111389	0	0	8158	497577	0	0
2024-08-11 00:35:47			0	39054	0	0	0	30571	29180	157589	26838	1076523	46335	111385	0	0	8158	497984	0	0
2024-08-11 00:36:47			0	39068	0	0	0	30574	29180	157561	27072	1076550	46313	111386	0	0	8158	497476	0	0
2024-08-11 00:37:47			0	39058	0	0	0	30574	29180	157585	27178	1076523	46325	111386	0	0	8158	497839	0	0
2024-08-11 00:38:47			0	39055	0	0	0	30581	29170	157465	26738	1076514	46335	111389	0	0	8158	497977	0	0
2024-08-11 00:39:47			0	39081	0	0	0	30581	29180	157501	26883	1076586	46335	111389	0	0	8159	497004	0	0
2024-08-11 00:40:47			0	39062	0	0	0	30571	29170	157477	26930	1076559	46346	111385	0	0	8158	497723	0	0
2024-08-11 00:41:47			0	39067	0	0	0	30568	29180	157481	26920	1076496	46335	111384	0	0	8158	497512	0	0
2024-08-11 00:42:47			0	39068	0	0	0	30571	29170	157417	26885	1076487	46335	111385	0	0	8158	497505	0	0
2024-08-11 00:43:47			0	39065	0	0	0	30566	29170	157437	26991	1076595	46325	111383	0	0	8158	497614	0	0
2024-08-11 00:44:47			0	39071	0	0	0	30568	29170	157453	26830	1076532	46324	111384	0	0	8159	497396	0	0
2024-08-11 00:45:47			0	39086	0	0	0	30568	29170	157517	27227	1076532	46334	111384	0	0	8160	496852	0	0
2024-08-11 00:46:47			0	39060	0	0	0	30555	29170	157565	27135	1076505	46334	111379	0	0	8158	497795	0	0
2024-08-11 00:47:47			0	39087	0	0	0	30561	29160	157521	26994	1076442	46333	111381	0	0	8160	496844	0	0
2024-08-11 00:48:47			0	39067	0	0	0	30555	29160	157593	26948	1076406	46333	111379	0	0	8159	497570	0	0
2024-08-11 00:49:47			0	39067	0	0	0	30553	29170	157437	27013	1076451	46324	111378	0	0	8159	497541	0	0
2024-08-11 00:50:47			0	39073	0	0	0	30555	29160	157477	27140	1076433	46323	111379	0	0	8159	497352	0	0
2024-08-11 00:51:47			0	39073	0	0	0	30555	29160	157441	26767	1076433	46311	111379	0	0	8159	497352	0	0
2024-08-11 00:52:47			0	39085	0	0	0	30550	29160	157381	27123	1076406	46333	111377	0	0	8160	496917	0	0
2024-08-11 00:53:47			0	39088	0	0	0	30553	29160	157541	26804	1076433	46323	111378	0	0	8160	496808	0	0
2024-08-11 00:54:47			0	39068	0	0	0	30542	29150	157557	27043	1076361	46344	111374	0	0	8159	497563	0	0
2024-08-11 00:55:47			0	39075	0	0	0	30548	29150	157481	26970	1076397	46344	111376	0	0	8159	497309	0	0
2024-08-11 00:56:47			0	39085	0	0	0	30542	29150	157457	27116	1076424	46322	111374	0	0	8160	496946	0	0
2024-08-11 00:57:47			0	39086	0	0	0	30548	29150	157509	26847	1076415	46333	111376	0	0	8160	496909	0	0
2024-08-11 00:58:47			0	39078	0	0	0	30540	29140	157533	27111	1076378	46321	111373	0	0	8159	497229	0	0
2024-08-11 00:59:47			0	39057	0	0	0	30529	29140	157493	27168	1076351	46321	111369	0	0	8158	497991	0	0
2024-08-11 01:00:47			0	39092	0	0	0	30524	29130	157485	26831	1076279	46320	111367	0	0	8160	496749	0	0
2024-08-11 01:01:47			0	39087	0	0	0	30516	29130	157489	27093	1076252	46320	111364	0	0	8160	496931	0	0
2024-08-11 01:02:47			0	39080	0	0	0	30519	29140	157473	26956	1076261	46320	111365	0	0	8160	497156	0	0
2024-08-11 01:03:47			0	39083	0	0	0	30509	29120	157505	26982	1076207	46307	111361	0	0	8160	497105	0	0
2024-08-11 01:04:47			0	39092	0	0	0	30501	29120	157541	26923	1076252	46329	111358	0	0	8161	496778	0	0
2024-08-11 01:05:47			0	39095	0	0	0	30506	29110	157561	27306	1076135	46329	111360	0	0	8161	496698	0	0
2024-08-11 01:06:47			0	39071	0	0	0	30501	29110	157469	27147	1076153	46329	111358	0	0	8160	497569	0	0
2024-08-11 01:07:47			0	39083	0	0	0	30498	29110	157577	26783	1076216	46318	111357	0	0	8160	497134	0	0
2024-08-11 01:08:47			0	39073	0	0	0	30493	29110	157349	26828	1076180	46318	111355	0	0	8160	497497	0	0
2024-08-11 01:09:47			0	39091	0	0	0	30503	29100	157445	27012	1076198	46317	111359	0	0	8161	496872	0	0
2024-08-11 01:10:47			0	39078	0	0	0	30496	29110	157513	27222	1076135	46340	111356	0	0	8160	497315	0	0
2024-08-11 01:11:47			0	39100	0	0	0	30485	29100	157553	26713	1076171	46328	111352	0	0	8161	496546	0	0
2024-08-11 01:12:47			0	39084	0	0	0	30483	29100	157465	27154	1076162	46316	111351	0	0	8161	497126	0	0
2024-08-11 01:13:47			0	39100	0	0	0	30488	29090	157437	26809	1076090	46338	111353	0	0	8161	496575	0	0
2024-08-11 01:14:47			0	39100	0	0	0	30488	29090	157449	27074	1076144	46327	111353	0	0	8161	496575	0	0
2024-08-11 01:15:47			0	39082	0	0	0	30485	29090	157513	27067	1076099	46316	111352	0	0	8160	497228	0	0
2024-08-11 01:16:47			0	39100	0	0	0	30480	29100	157501	26821	1076108	46304	111350	0	0	8161	496546	0	0
2024-08-11 01:17:47			0	39084	0	0	0	30472	29090	157633	26961	1076072	46316	111347	0	0	8161	497155	0	0
2024-08-11 01:18:47			0	39106	0	0	0	30480	29090	157457	26991	1076063	46316	111350	0	0	8162	496357	0	0
2024-08-11 01:19:47			0	39085	0	0	0	30470	29080	157533	27253	1076018	46314	111346	0	0	8161	497148	0	0
2024-08-11 01:20:47			0	39097	0	0	0	30457	29080	157657	26786	1076045	46314	111341	0	0	8162	496712	0	0
2024-08-11 01:21:47			0	39105	0	0	0	30464	29080	157469	27156	1076000	46315	111344	0	0	8162	496422	0	0
2024-08-11 01:22:47			0	39090	0	0	0	30462	29080	157533	26998	1075964	46302	111343	0	0	8161	496966	0	0
2024-08-11 01:23:47			0	39092	0	0	0	30462	29070	157653	26994	1075928	46313	111343	0	0	8161	496922	0	0
2024-08-11 01:24:47			0	39102	0	0	0	30457	29070	157501	26932	1075982	46313	111341	0	0	8162	496560	0	0
2024-08-11 01:25:47			0	39106	0	0	0	30454	29060	157573	27332	1075910	46324	111340	0	0	8162	496443	0	0
2024-08-11 01:26:47			0	39096	0	0	0	30444	29060	157597	27052	1075910	46313	111336	0	0	8162	496806	0	0
2024-08-11 01:27:47			0	39103	0	0	0	30451	29060	157561	27100	1075901	46334	111339	0	0	8162	496552	0	0
2024-08-11 01:28:47			0	39104	0	0	0	30449	29050	157577	27156	1075892	46311	111338	0	0	8162	496545	0	0
2024-08-11 01:29:47			0	39109	0	0	0	30449	29050	157537	27145	1075892	46322	111338	0	0	8162	496363	0	0
2024-08-11 01:30:47			0	39112	0	0	0	30438	29060	157589	27197	1075883	46324	111334	0	0	8163	496226	0	0
2024-08-11 01:31:47			0	39117	0	0	0	30438	29050	157517	27128	1075856	46311	111334	0	0	8163	496073	0	0
2024-08-11 01:32:47			0	39110	0	0	0	30438	29050	157453	26896	1075910	46322	111334	0	0	8163	496327	0	0
2024-08-11 01:33:47			0	39096	0	0	0	30438	29050	157549	27100	1075946	46311	111334	0	0	8162	496835	0	0
2024-08-11 01:34:47			0	39105	0	0	0	30441	29050	157497	27149	1075892	46322	111335	0	0	8162	496509	0	0
2024-08-11 01:35:47			0	39115	0	0	0	30449	29050	157473	27227	1075838	46311	111338	0	0	8163	496146	0	0
2024-08-11 01:36:47			0	39119	0	0	0	30449	29050	157525	27066	1075892	46322	111338	0	0	8163	496001	0	0
2024-08-11 01:37:47			0	39132	0	0	0	30444	29060	157397	26923	1075901	46312	111336	0	0	8164	495501	0	0
2024-08-11 01:38:47			0	39114	0	0	0	30444	29040	157337	27157	1075874	46322	111336	0	0	8163	496211	0	0
2024-08-11 01:39:47			0	39102	0	0	0	30441	29050	157273	26908	1075892	46333	111335	0	0	8162	496617	0	0
2024-08-11 01:40:47			0	39115	0	0	0	30449	29060	157397	27190	1075928	46323	111338	0	0	8163	496117	0	0
2024-08-11 01:41:47			0	39128	0	0	0	30438	29050	157377	27140	1075892	46311	111334	0	0	8164	495675	0	0
2024-08-11 01:42:47			0	39144	0	0	0	30446	29040	157373	27161	1075793	46344	111337	0	0	8164	495124	0	0
2024-08-11 01:43:47			0	39144	0	0	0	30441	29040	157397	26873	1075838	46321	111335	0	0	8164	495124	0	0
2024-08-11 01:44:47			0	39135	0	0	0	30433	29050	157397	26956	1075892	46344	111332	0	0	8164	495421	0	0
2024-08-11 01:45:47			0	39110	0	0	0	30436	29050	157273	26830	1075910	46322	111333	0	0	8163	496327	0	0
2024-08-11 01:46:47			0	39127	0	0	0	30423	29050	157381	26991	1075883	46322	111328	0	0	8164	495711	0	0
2024-08-11 01:47:47			0	39127	0	0	0	30433	29040	157417	27008	1075838	46310	111332	0	0	8164	495740	0	0
2024-08-11 01:48:47			0	39131	0	0	0	30425	29040	157337	27001	1075811	46321	111329	0	0	8164	495595	0	0
2024-08-11 01:49:47			0	39145	0	0	0	30431	29040	157325	26930	1075865	46321	111331	0	0	8165	495088	0	0
2024-08-11 01:50:47			0	39147	0	0	0	30425	29040	157297	26885	1075784	46310	111329	0	0	8165	495015	0	0
2024-08-11 01:51:47			0	39121	0	0	0	30433	29050	157297	26928	1075802	46333	111332	0	0	8163	495928	0	0
2024-08-11 01:52:47			0	39140	0	0	0	30438	29030	157317	26946	1075856	46320	111334	0	0	8164	495297	0	0
2024-08-11 01:53:47			0	39142	0	0	0	30433	29030	157313	27074	1075856	46320	111332	0	0	8164	495225	0	0
2024-08-11 01:54:47			0	39142	0	0	0	30425	29030	157345	27072	1075793	46320	111329	0	0	8164	495225	0	0
2024-08-11 01:55:47			0	39159	0	0	0	30425	29030	157325	26970	1075802	46320	111329	0	0	8165	494610	0	0
2024-08-11 01:56:47			0	39141	0	0	0	30433	29040	157381	26961	1075784	46333	111332	0	0	8164	495233	0	0
2024-08-11 01:57:47			0	39147	0	0	0	30425	29040	157237	27123	1075865	46321	111329	0	0	8165	495015	0	0
2024-08-11 01:58:47			0	39151	0	0	0	30428	29030	157349	27086	1075829	46332	111330	0	0	8165	494899	0	0
2024-08-11 01:59:47			0	39161	0	0	0	30425	29030	157277	27022	1075775	46320	111329	0	0	8166	494537	0	0
2024-08-11 02:00:47			0	39166	0	0	0	30415	29030	157345	26665	1075829	46320	111325	0	0	8166	494356	0	0
2024-08-11 02:01:47			0	39161	0	0	0	30436	29030	157293	26864	1075802	46320	111333	0	0	8165	494537	0	0
2024-08-11 02:02:47			0	39158	0	0	0	30425	29030	157341	27277	1075820	46309	111329	0	0	8165	494646	0	0
2024-08-11 02:03:47			0	39146	0	0	0	30423	29030	157261	26861	1075775	46320	111328	0	0	8165	495080	0	0
2024-08-11 02:04:47			0	39165	0	0	0	30428	29030	157341	27211	1075793	46320	111330	0	0	8166	494392	0	0
2024-08-11 02:05:47			0	39172	0	0	0	30425	29030	157337	27230	1075820	46320	111329	0	0	8166	494139	0	0
2024-08-11 02:06:47			0	39174	0	0	0	30423	29020	157277	27008	1075783	46309	111328	0	0	8166	494096	0	0
2024-08-11 02:07:47			0	39174	0	0	0	30428	29030	157225	27196	1075802	46309	111330	0	0	8166	494067	0	0
2024-08-11 02:08:47			0	39176	0	0	0	30418	29030	157249	27119	1075820	46309	111326	0	0	8167	493995	0	0
2024-08-11 02:09:47			0	39159	0	0	0	30431	29030	157289	27064	1075766	46332	111331	0	0	8165	494610	0	0
2024-08-11 02:10:47			0	39183	0	0	0	30418	29030	157309	27052	1075766	46320	111326	0	0	8167	493741	0	0
2024-08-11 02:11:47			0	39183	0	0	0	30415	29030	157269	26993	1075793	46320	111325	0	0	8167	493741	0	0
2024-08-11 02:12:47			0	39197	0	0	0	30415	29020	157133	27192	1075810	46320	111325	0	0	8168	493264	0	0
2024-08-11 02:13:47			0	39204	0	0	0	30418	29020	157181	26866	1075747	46308	111326	0	0	8168	493011	0	0
2024-08-11 02:14:47			0	39190	0	0	0	30412	29020	157317	26804	1075756	46320	111324	0	0	8167	493517	0	0
2024-08-11 02:15:47			0	39173	0	0	0	30412	29020	157205	27182	1075702	46320	111324	0	0	8166	494132	0	0
2024-08-11 02:16:47			0	39187	0	0	0	30410	29000	157133	27223	1075693	46329	111323	0	0	8167	493683	0	0
2024-08-11 02:17:47			0	39190	0	0	0	30407	29020	157129	27083	1075837	46309	111322	0	0	8167	493517	0	0
2024-08-11 02:18:47			0	39185	0	0	0	30412	29010	157229	27196	1075711	46330	111324	0	0	8167	493726	0	0
2024-08-11 02:19:47			0	39208	0	0	0	30407	29010	157209	26811	1075738	46318	111322	0	0	8168	492895	0	0
2024-08-11 02:20:47			0	39199	0	0	0	30415	29020	157245	26920	1075720	46319	111325	0	0	8168	493192	0	0
2024-08-11 02:21:47			0	39212	0	0	0	30405	29020	157093	27274	1075756	46320	111321	0	0	8169	492722	0	0
2024-08-11 02:22:47			0	39205	0	0	0	30405	29010	157093	27130	1075738	46318	111321	0	0	8168	493004	0	0
2024-08-11 02:23:47			0	39211	0	0	0	30407	29020	157085	27137	1075720	46319	111322	0	0	8169	492758	0	0
2024-08-11 02:24:47			0	39225	0	0	0	30412	29010	157049	27069	1075702	46329	111324	0	0	8169	492282	0	0
2024-08-11 02:25:47			0	39220	0	0	0	30410	29000	157249	27057	1075666	46306	111323	0	0	8169	492490	0	0
2024-08-11 02:26:47			0	39206	0	0	0	30402	29010	157057	27352	1075675	46306	111320	0	0	8168	492967	0	0
2024-08-11 02:27:47			0	39219	0	0	0	30397	29010	157073	27222	1075675	46329	111318	0	0	8169	492498	0	0
2024-08-11 02:28:47			0	39224	0	0	0	30397	29010	157113	27223	1075675	46306	111318	0	0	8170	492318	0	0
2024-08-11 02:29:47			0	39232	0	0	0	30402	29010	157041	27216	1075729	46306	111320	0	0	8170	492029	0	0
2024-08-11 02:30:47			0	39210	0	0	0	30386	29010	157129	27157	1075684	46318	111314	0	0	8169	492823	0	0
2024-08-11 02:31:47			0	39216	0	0	0	30407	29000	157101	27015	1075639	46329	111322	0	0	8169	492635	0	0
2024-08-11 02:32:47			0	39223	0	0	0	30397	29010	157037	27147	1075675	46317	111318	0	0	8169	492354	0	0
2024-08-11 02:33:47			0	39225	0	0	0	30402	29000	157037	27043	1075657	46329	111320	0	0	8169	492310	0	0
2024-08-11 02:34:47			0	39227	0	0	0	30402	29010	157109	26986	1075702	46317	111320	0	0	8170	492209	0	0
2024-08-11 02:35:47			0	39240	0	0	0	30397	29020	157005	26932	1075666	46308	111318	0	0	8170	491712	0	0
2024-08-11 02:36:47			0	39229	0	0	0	30397	29000	157057	26975	1075693	46317	111318	0	0	8170	492166	0	0
2024-08-11 02:37:47			0	39241	0	0	0	30399	29000	157005	27119	1075666	46329	111319	0	0	8170	491733	0	0
2024-08-11 02:38:47			0	39244	0	0	0	30392	29000	156997	27046	1075666	46294	111316	0	0	8171	491625	0	0
2024-08-11 02:39:47			0	39246	0	0	0	30384	29000	157081	27360	1075666	46339	111313	0	0	8171	491552	0	0
2024-08-11 02:40:47			0	39242	0	0	0	30386	28990	157129	27222	1075594	46316	111314	0	0	8171	491725	0	0
2024-08-11 02:41:47			0	39236	0	0	0	30392	28990	157065	27036	1075594	46305	111316	0	0	8170	491942	0	0
2024-08-11 02:42:47			0	39257	0	0	0	30384	29000	157021	26935	1075630	46306	111313	0	0	8172	491156	0	0
2024-08-11 02:43:47			0	39245	0	0	0	30384	28990	157045	27215	1075621	46316	111313	0	0	8171	491617	0	0
2024-08-11 02:44:47			0	39267	0	0	0	30384	28990	157049	27182	1075621	46305	111313	0	0	8172	490824	0	0
2024-08-11 02:45:47			0	39253	0	0	0	30386	28990	156993	27135	1075639	46315	111314	0	0	8171	491329	0	0
2024-08-11 02:46:47			0	39253	0	0	0	30384	28990	156921	26956	1075648	46316	111313	0	0	8171	491329	0	0
2024-08-11 02:47:47			0	39251	0	0	0	30389	29000	157029	27166	1075603	46317	111315	0	0	8171	491372	0	0
2024-08-11 02:48:47			0	39264	0	0	0	30399	29000	157037	26979	1075684	46317	111319	0	0	8172	490904	0	0
2024-08-11 02:49:47			0	39273	0	0	0	30389	29000	157113	27203	1075630	46317	111315	0	0	8172	490579	0	0
2024-08-11 02:50:47			0	39266	0	0	0	30389	28990	156989	26922	1075612	46315	111315	0	0	8172	490860	0	0
2024-08-11 02:51:47			0	39261	0	0	0	30379	28990	156937	26994	1075621	46305	111311	0	0	8172	491040	0	0
2024-08-11 02:52:47			0	39253	0	0	0	30384	28980	157001	27251	1075594	46304	111313	0	0	8171	491357	0	0
2024-08-11 02:53:47			0	39294	0	0	0	30381	29000	156977	27064	1075630	46306	111312	0	0	8174	489823	0	0
2024-08-11 02:54:47			0	39287	0	0	0	30376	28990	156897	27069	1075585	46315	111310	0	0	8173	490104	0	0
2024-08-11 02:55:47			0	39265	0	0	0	30371	28990	156981	27171	1075612	46315	111308	0	0	8172	490896	0	0
2024-08-11 02:56:47			0	39264	0	0	0	30371	28990	156905	26840	1075612	46315	111308	0	0	8172	490932	0	0
2024-08-11 02:57:47			0	39275	0	0	0	30371	28980	156849	26719	1075549	46304	111308	0	0	8173	490564	0	0
2024-08-11 02:58:47			0	39266	0	0	0	30358	28970	156953	27203	1075468	46313	111303	0	0	8172	490917	0	0
2024-08-11 02:59:47			0	39290	0	0	0	30373	28980	157017	27031	1075576	46315	111309	0	0	8174	490024	0	0
2024-08-11 03:00:47			0	39290	0	0	0	30371	28970	156849	27284	1075558	46303	111308	0	0	8174	490052	0	0
2024-08-11 03:01:47			0	39277	0	0	0	30366	28970	156821	26993	1075585	46303	111306	0	0	8173	490521	0	0
2024-08-11 03:02:47			0	39293	0	0	0	30361	28970	156837	26779	1075504	46303	111304	0	0	8174	489944	0	0
2024-08-11 03:03:47			0	39291	0	0	0	30350	28980	156937	27055	1075513	46315	111300	0	0	8174	489988	0	0
2024-08-11 03:04:47			0	39306	0	0	0	30361	28970	156877	27123	1075441	46313	111304	0	0	8175	489477	0	0
2024-08-11 03:05:47			0	39302	0	0	0	30355	28970	156949	26672	1075468	46313	111302	0	0	8174	489621	0	0
2024-08-11 03:06:47			0	39298	0	0	0	30355	28960	157013	26974	1075486	46302	111302	0	0	8174	489793	0	0
2024-08-11 03:07:47			0	39294	0	0	0	30358	28970	156865	26932	1075531	46314	111303	0	0	8174	489908	0	0
2024-08-11 03:08:47			0	39307	0	0	0	30353	28970	156897	26861	1075504	46314	111301	0	0	8175	489441	0	0
2024-08-11 03:09:47			0	39312	0	0	0	30353	28970	156781	27007	1075468	46291	111301	0	0	8175	489261	0	0
2024-08-11 03:10:47			0	39283	0	0	0	30350	28950	156749	26760	1075423	46313	111300	0	0	8173	490361	0	0
2024-08-11 03:11:47			0	39314	0	0	0	30345	28960	156817	27093	1075459	46313	111298	0	0	8175	489217	0	0
2024-08-11 03:12:47			0	39297	0	0	0	30353	28960	156781	26899	1075432	46325	111301	0	0	8174	489829	0	0
2024-08-11 03:13:47			0	39304	0	0	0	30358	28970	156873	26630	1075441	46313	111303	0	0	8175	489549	0	0
2024-08-11 03:14:47			0	39313	0	0	0	30350	28940	156837	26963	1075396	46299	111300	0	0	8175	489310	0	0
2024-08-11 03:15:47			0	39314	0	0	0	30353	28950	156821	27194	1075441	46301	111301	0	0	8175	489246	0	0
2024-08-11 03:16:47			0	39317	0	0	0	30358	28950	156741	27029	1075450	46313	111303	0	0	8175	489138	0	0
2024-08-11 03:17:47			0	39316	0	0	0	30355	28970	156813	26795	1075441	46313	111302	0	0	8175	489117	0	0
2024-08-11 03:18:47			0	39326	0	0	0	30342	28950	156881	26989	1075477	46325	111297	0	0	8176	488814	0	0
2024-08-11 03:19:47			0	39326	0	0	0	30345	28950	156793	27019	1075423	46313	111298	0	0	8176	488814	0	0
2024-08-11 03:20:47			0	39312	0	0	0	30345	28950	156729	27121	1075414	46312	111298	0	0	8175	489317	0	0
2024-08-11 03:21:47			0	39333	0	0	0	30340	28940	156793	27081	1075378	46323	111296	0	0	8176	488591	0	0
2024-08-11 03:22:47			0	39319	0	0	0	30337	28950	156769	26920	1075387	46312	111295	0	0	8176	489066	0	0
2024-08-11 03:23:47			0	39314	0	0	0	30342	28950	156709	26916	1075414	46301	111297	0	0	8175	489246	0	0
2024-08-11 03:24:47			0	39335	0	0	0	30345	28940	156825	26726	1075405	46323	111298	0	0	8176	488519	0	0
2024-08-11 03:25:47			0	39328	0	0	0	30340	28940	156697	27166	1075378	46289	111296	0	0	8176	488771	0	0
2024-08-11 03:26:47			0	39340	0	0	0	30340	28940	156733	26993	1075378	46311	111296	0	0	8177	488339	0	0
2024-08-11 03:27:47			0	39324	0	0	0	30332	28930	156733	27319	1075360	46310	111293	0	0	8176	488943	0	0
2024-08-11 03:28:47			0	39347	0	0	0	30342	28930	156721	27154	1075360	46310	111297	0	0	8177	488116	0	0
2024-08-11 03:29:47			0	39348	0	0	0	30337	28930	156769	26765	1075324	46310	111295	0	0	8177	488080	0	0
2024-08-11 03:30:47			0	39340	0	0	0	30332	28940	156825	27197	1075369	46333	111293	0	0	8177	488339	0	0
2024-08-11 03:31:47			0	39339	0	0	0	30332	28930	156609	26994	1075360	46322	111293	0	0	8177	488403	0	0
2024-08-11 03:32:47			0	39350	0	0	0	30327	28940	156757	26759	1075342	46310	111291	0	0	8178	487980	0	0
2024-08-11 03:33:47			0	39337	0	0	0	30329	28930	156629	26786	1075360	46310	111292	0	0	8177	488475	0	0
2024-08-11 03:34:47			0	39342	0	0	0	30327	28940	156765	26977	1075396	46310	111291	0	0	8177	488267	0	0
2024-08-11 03:35:47			0	39344	0	0	0	30322	28920	156637	26788	1075279	46308	111289	0	0	8177	488252	0	0
2024-08-11 03:36:47			0	39356	0	0	0	30324	28920	156769	26856	1075387	46297	111290	0	0	8178	487821	0	0
2024-08-11 03:37:47			0	39366	0	0	0	30322	28910	156877	26882	1075270	46308	111289	0	0	8178	487490	0	0
2024-08-11 03:38:47			0	39333	0	0	0	30319	28920	156717	26830	1075306	46308	111288	0	0	8177	488647	0	0
2024-08-11 03:39:47			0	39355	0	0	0	30316	28920	156745	26660	1075369	46309	111287	0	0	8178	487857	0	0
2024-08-11 03:40:47			0	39344	0	0	0	30316	28920	156781	26543	1075315	46298	111287	0	0	8177	488252	0	0
2024-08-11 03:41:47			0	39362	0	0	0	30319	28930	156789	26949	1075243	46299	111288	0	0	8178	487577	0	0
2024-08-11 03:42:47			0	39366	0	0	0	30327	28920	156849	26755	1075261	46321	111291	0	0	8178	487462	0	0
2024-08-11 03:43:47			0	39350	0	0	0	30324	28920	156797	26923	1075360	46320	111290	0	0	8177	488037	0	0
2024-08-11 03:44:47			0	39360	0	0	0	30319	28920	156733	26934	1075306	46308	111288	0	0	8178	487677	0	0
2024-08-11 03:45:47			0	39361	0	0	0	30319	28920	156677	26911	1075360	46308	111288	0	0	8178	487642	0	0
2024-08-11 03:46:47			0	39370	0	0	0	30319	28920	156641	26948	1075279	46297	111288	0	0	8179	487319	0	0
2024-08-11 03:47:47			0	39357	0	0	0	30309	28920	156553	27081	1075252	46297	111284	0	0	8178	487785	0	0
2024-08-11 03:48:47			0	39370	0	0	0	30314	28920	156569	27239	1075306	46320	111286	0	0	8179	487319	0	0
2024-08-11 03:49:47			0	39378	0	0	0	30311	28910	156697	26667	1075270	46308	111285	0	0	8179	487060	0	0
2024-08-11 03:50:47			0	39374	0	0	0	30311	28900	156645	26788	1075252	46307	111285	0	0	8179	487231	0	0
2024-08-11 03:51:47			0	39381	0	0	0	30306	28910	156605	26602	1075288	46297	111283	0	0	8180	486952	0	0
2024-08-11 03:52:47			0	39373	0	0	0	30306	28910	156749	26967	1075243	46308	111283	0	0	8179	487239	0	0
2024-08-11 03:53:47			0	39374	0	0	0	30301	28910	156525	27057	1075270	46320	111281	0	0	8179	487203	0	0
2024-08-11 03:54:47			0	39372	0	0	0	30303	28910	156585	26911	1075243	46308	111282	0	0	8179	487275	0	0
2024-08-11 03:55:47			0	39383	0	0	0	30306	28910	156585	26885	1075234	46320	111283	0	0	8180	486880	0	0
2024-08-11 03:56:47			0	39384	0	0	0	30306	28910	156677	26970	1075234	46286	111283	0	0	8180	486844	0	0
2024-08-11 03:57:47			0	39383	0	0	0	30296	28900	156661	27154	1075252	46319	111279	0	0	8180	486909	0	0
2024-08-11 03:58:47			0	39368	0	0	0	30306	28910	156585	26993	1075261	46331	111283	0	0	8179	487419	0	0
2024-08-11 03:59:47			0	39387	0	0	0	30301	28900	156625	26892	1075225	46307	111281	0	0	8180	486765	0	0
2024-08-11 04:00:47			0	39377	0	0	0	30303	28900	156645	27242	1075198	46296	111282	0	0	8179	487124	0	0
2024-08-11 04:01:47			0	39398	0	0	0	30298	28900	156645	27098	1075189	46306	111280	0	0	8181	486371	0	0
2024-08-11 04:02:47			0	39379	0	0	0	30296	28910	156661	26887	1075234	46308	111279	0	0	8180	487024	0	0
2024-08-11 04:03:47			0	39396	0	0	0	30293	28900	156565	26864	1075189	46306	111278	0	0	8181	486442	0	0
2024-08-11 04:04:47			0	39378	0	0	0	30283	28890	156493	26873	1075197	46295	111274	0	0	8180	487116	0	0
2024-08-11 04:05:47			0	39392	0	0	0	30290	28890	156509	26698	1075170	46306	111277	0	0	8180	486614	0	0
2024-08-11 04:06:47			0	39384	0	0	0	30285	28900	156589	26753	1075162	46329	111275	0	0	8180	486873	0	0
2024-08-11 04:07:47			0	39384	0	0	0	30301	28890	156565	26854	1075144	46306	111281	0	0	8180	486901	0	0
2024-08-11 04:08:47			0	39400	0	0	0	30293	28900	156617	26856	1075189	46306	111278	0	0	8181	486299	0	0
2024-08-11 04:09:47			0	39397	0	0	0	30293	28890	156505	27067	1075117	46295	111278	0	0	8181	486435	0	0
2024-08-11 04:10:47			0	39400	0	0	0	30296	28900	156629	27258	1075189	46295	111279	0	0	8181	486299	0	0
2024-08-11 04:11:47			0	39403	0	0	0	30293	28890	156589	26883	1075126	46306	111278	0	0	8181	486220	0	0
2024-08-11 04:12:47			0	39400	0	0	0	30290	28900	156509	27024	1075162	46329	111277	0	0	8181	486299	0	0
2024-08-11 04:13:47			0	39413	0	0	0	30288	28880	156485	27007	1075179	46304	111276	0	0	8181	485889	0	0
2024-08-11 04:14:47			0	39394	0	0	0	30293	28890	156453	27057	1075197	46306	111278	0	0	8180	486542	0	0
2024-08-11 04:15:47			0	39396	0	0	0	30283	28880	156465	26743	1075161	46305	111274	0	0	8181	486499	0	0
2024-08-11 04:16:47			0	39407	0	0	0	30293	28880	156453	27026	1075135	46305	111278	0	0	8181	486104	0	0
2024-08-11 04:17:47			0	39384	0	0	0	30285	28890	156457	26986	1075144	46306	111275	0	0	8180	486901	0	0
2024-08-11 04:18:47			0	39417	0	0	0	30288	28890	156438	27060	1075170	46318	111276	0	0	8182	485718	0	0
2024-08-11 04:19:47			0	39422	0	0	0	30288	28890	156422	26750	1075117	46318	111276	0	0	8182	485539	0	0
2024-08-11 04:20:47			0	39417	0	0	0	30285	28880	156474	26868	1075108	46317	111275	0	0	8182	485746	0	0
2024-08-11 04:21:47			0	39405	0	0	0	30290	28880	156582	26861	1075081	46294	111277	0	0	8181	486176	0	0
2024-08-11 04:22:47			0	39412	0	0	0	30277	28890	156537	26974	1075117	46318	111272	0	0	8182	485897	0	0
2024-08-11 04:23:47			0	39416	0	0	0	30277	28880	156474	27116	1075071	46304	111272	0	0	8182	485782	0	0
2024-08-11 04:24:47			0	39417	0	0	0	30277	28860	156442	26828	1075044	46292	111272	0	0	8182	485802	0	0
2024-08-11 04:25:47			0	39422	0	0	0	30272	28880	156394	27121	1075027	46305	111270	0	0	8182	485567	0	0
2024-08-11 04:26:47			0	39400	0	0	0	30270	28870	156465	27168	1074972	46292	111269	0	0	8181	486384	0	0
2024-08-11 04:27:47			0	39418	0	0	0	30270	28870	156494	27038	1075035	46304	111269	0	0	8182	485738	0	0
2024-08-11 04:28:47			0	39407	0	0	0	30259	28880	156465	27173	1075045	46304	111265	0	0	8182	486104	0	0
2024-08-11 04:29:47			0	39412	0	0	0	30262	28860	156377	27048	1074963	46326	111266	0	0	8182	485982	0	0
2024-08-11 04:30:47			0	39430	0	0	0	30262	28860	156458	26930	1074990	46303	111266	0	0	8183	485337	0	0
2024-08-11 04:31:47			0	39419	0	0	0	30259	28870	156498	27131	1074945	46292	111265	0	0	8182	485703	0	0
2024-08-11 04:32:47			0	39421	0	0	0	30257	28860	156578	26989	1074963	46303	111264	0	0	8182	485659	0	0
2024-08-11 04:33:47			0	39420	0	0	0	30259	28850	156530	27229	1074945	46301	111265	0	0	8182	485723	0	0
2024-08-11 04:34:47			0	39414	0	0	0	30249	28860	156521	27031	1074954	46314	111261	0	0	8182	485910	0	0
2024-08-11 04:35:47			0	39413	0	0	0	30251	28860	156461	27135	1074936	46303	111262	0	0	8182	485946	0	0
2024-08-11 04:36:47			0	39407	0	0	0	30244	28850	156521	27045	1074855	46301	111259	0	0	8182	486189	0	0
2024-08-11 04:37:47			0	39428	0	0	0	30246	28860	156546	27114	1075008	46302	111260	0	0	8183	485408	0	0
2024-08-11 04:38:47			0	39418	0	0	0	30246	28850	156538	27059	1074918	46301	111260	0	0	8182	485795	0	0
2024-08-11 04:39:47			0	39423	0	0	0	30244	28860	156386	27317	1074927	46302	111259	0	0	8183	485587	0	0
2024-08-11 04:40:47			0	39425	0	0	0	30246	28850	156530	26932	1074963	46301	111260	0	0	8183	485544	0	0
2024-08-11 04:41:47			0	39425	0	0	0	30236	28850	156402	27013	1074909	46313	111256	0	0	8183	485544	0	0
2024-08-11 04:42:47			0	39421	0	0	0	30241	28850	156406	27168	1074891	46291	111258	0	0	8183	485687	0	0
2024-08-11 04:43:47			0	39434	0	0	0	30236	28850	156510	27171	1074909	46301	111256	0	0	8183	485222	0	0
2024-08-11 04:44:47			0	39416	0	0	0	30233	28840	156409	26703	1074864	46300	111255	0	0	8182	485895	0	0
2024-08-11 04:45:47			0	39426	0	0	0	30228	28840	156474	27268	1074864	46312	111253	0	0	8183	485536	0	0
2024-08-11 04:46:47			0	39424	0	0	0	30228	28840	156370	26930	1074846	46291	111253	0	0	8183	485608	0	0
2024-08-11 04:47:47			0	39435	0	0	0	30233	28840	156426	27194	1074846	46313	111255	0	0	8183	485214	0	0
2024-08-11 04:48:47			0	39442	0	0	0	30220	28830	156458	27029	1074900	46299	111250	0	0	8184	484991	0	0
2024-08-11 04:49:47			0	39433	0	0	0	30236	28840	156530	27241	1074837	46290	111256	0	0	8183	485286	0	0
2024-08-11 04:50:47			0	39423	0	0	0	30225	28840	156462	26946	1074837	46300	111252	0	0	8183	485644	0	0
2024-08-11 04:51:47			0	39434	0	0	0	30220	28840	156442	26805	1074810	46300	111250	0	0	8184	485250	0	0
2024-08-11 04:52:47			0	39434	0	0	0	30228	28830	156330	27036	1074873	46311	111253	0	0	8183	485278	0	0
2024-08-11 04:53:47			0	39438	0	0	0	30225	28830	156602	27057	1074792	46322	111252	0	0	8184	485135	0	0
2024-08-11 04:54:47			0	39430	0	0	0	30223	28830	156534	27060	1074882	46322	111251	0	0	8183	485421	0	0
2024-08-11 04:55:47			0	39445	0	0	0	30223	28830	156478	26939	1074855	46311	111251	0	0	8184	484884	0	0
2024-08-11 04:56:47			0	39436	0	0	0	30225	28830	156434	26986	1074855	46299	111252	0	0	8184	485206	0	0
2024-08-11 04:57:47			0	39440	0	0	0	30220	28830	156462	27005	1074801	46311	111250	0	0	8184	485063	0	0
2024-08-11 04:58:47			0	39429	0	0	0	30223	28820	156478	27109	1074837	46299	111251	0	0	8183	485485	0	0
2024-08-11 04:59:47			0	39443	0	0	0	30220	28820	156426	27102	1074774	46288	111250	0	0	8184	484984	0	0
2024-08-11 05:00:47			0	39433	0	0	0	30212	28830	156542	26739	1074801	46311	111247	0	0	8184	485314	0	0
2024-08-11 05:01:47			0	39424	0	0	0	30215	28820	156634	27086	1074810	46299	111248	0	0	8183	485664	0	0
2024-08-11 05:02:47			0	39431	0	0	0	30202	28810	156514	27204	1074711	46309	111243	0	0	8184	485442	0	0
2024-08-11 05:03:47			0	39449	0	0	0	30215	28820	156514	27046	1074783	46299	111248	0	0	8184	484769	0	0
2024-08-11 05:04:47			0	39462	0	0	0	30207	28810	156570	27071	1074783	46297	111245	0	0	8185	484332	0	0
2024-08-11 05:05:47			0	39452	0	0	0	30199	28820	156542	27019	1074666	46298	111242	0	0	8185	484662	0	0
2024-08-11 05:06:47			0	39438	0	0	0	30199	28820	156606	27105	1074639	46310	111242	0	0	8184	485163	0	0
2024-08-11 05:07:47			0	39436	0	0	0	30199	28820	156610	26946	1074639	46298	111242	0	0	8184	485234	0	0
2024-08-11 05:08:47			0	39459	0	0	0	30192	28800	156518	27154	1074666	46308	111239	0	0	8185	484467	0	0
2024-08-11 05:09:47			0	39428	0	0	0	30207	28800	156678	27294	1074666	46308	111245	0	0	8183	485577	0	0
2024-08-11 05:10:47			0	39446	0	0	0	30194	28810	156482	27007	1074621	46297	111240	0	0	8185	484905	0	0
2024-08-11 05:11:47			0	39454	0	0	0	30202	28800	156546	27150	1074666	46308	111243	0	0	8185	484646	0	0
2024-08-11 05:12:47			0	39456	0	0	0	30194	28800	156606	26762	1074612	46308	111240	0	0	8185	484575	0	0
2024-08-11 05:13:47			0	39452	0	0	0	30194	28800	156486	27157	1074558	46308	111240	0	0	8185	484718	0	0
2024-08-11 05:14:47			0	39447	0	0	0	30192	28800	156474	27062	1074603	46308	111239	0	0	8185	484897	0	0
2024-08-11 05:15:47			0	39439	0	0	0	30194	28800	156598	26975	1074576	46296	111240	0	0	8184	485183	0	0
2024-08-11 05:16:47			0	39456	0	0	0	30189	28790	156606	27008	1074594	46307	111238	0	0	8185	484603	0	0
2024-08-11 05:17:47			0	39431	0	0	0	30186	28790	156538	26762	1074612	46307	111237	0	0	8184	485498	0	0
2024-08-11 05:18:47			0	39435	0	0	0	30184	28790	156554	26542	1074612	46295	111236	0	0	8184	485354	0	0
2024-08-11 05:19:47			0	39434	0	0	0	30184	28790	156518	26986	1074621	46318	111236	0	0	8184	485390	0	0
2024-08-11 05:20:47			0	39448	0	0	0	30176	28780	156526	26953	1074576	46306	111233	0	0	8185	484917	0	0
2024-08-11 05:21:47			0	39449	0	0	0	30179	28790	156542	26948	1074531	46285	111234	0	0	8185	484853	0	0
2024-08-11 05:22:47			0	39442	0	0	0	30171	28790	156530	26746	1074504	46295	111231	0	0	8185	485104	0	0
2024-08-11 05:23:47			0	39436	0	0	0	30176	28780	156462	26932	1074486	46294	111233	0	0	8184	485347	0	0
2024-08-11 05:24:47			0	39438	0	0	0	30174	28780	156578	26649	1074513	46329	111232	0	0	8184	485275	0	0
2024-08-11 05:25:47			0	39436	0	0	0	30174	28780	156534	26807	1074594	46294	111232	0	0	8184	485347	0	0
2024-08-11 05:26:47			0	39440	0	0	0	30171	28780	156614	26942	1074567	46284	111231	0	0	8185	485204	0	0
2024-08-11 05:27:47			0	39448	0	0	0	30166	28780	156578	27116	1074549	46294	111229	0	0	8185	484917	0	0
2024-08-11 05:28:47			0	39425	0	0	0	30166	28780	156538	27057	1074567	46294	111229	0	0	8184	485741	0	0
2024-08-11 05:29:47			0	39451	0	0	0	30168	28770	156526	26727	1074450	46293	111230	0	0	8185	484838	0	0
2024-08-11 05:30:47			0	39440	0	0	0	30155	28770	156562	26925	1074450	46305	111225	0	0	8185	485232	0	0
2024-08-11 05:31:47			0	39450	0	0	0	30150	28760	156514	27046	1074513	46292	111223	0	0	8185	484902	0	0
2024-08-11 05:32:47			0	39445	0	0	0	30153	28760	156558	26852	1074486	46292	111224	0	0	8185	485081	0	0
2024-08-11 05:33:47			0	39450	0	0	0	30148	28770	156590	27133	1074450	46293	111222	0	0	8185	484874	0	0
2024-08-11 05:34:47			0	39448	0	0	0	30155	28770	156570	27007	1074477	46316	111225	0	0	8185	484945	0	0
2024-08-11 05:35:47			0	39462	0	0	0	30148	28760	156566	26941	1074396	46292	111222	0	0	8186	484472	0	0
2024-08-11 05:36:47			0	39449	0	0	0	30145	28760	156670	27140	1074423	46292	111221	0	0	8185	484938	0	0
2024-08-11 05:37:47			0	39458	0	0	0	30142	28760	156550	26745	1074450	46292	111220	0	0	8186	484615	0	0
2024-08-11 05:38:47			0	39452	0	0	0	30140	28750	156618	27206	1074378	46280	111219	0	0	8186	484858	0	0
2024-08-11 05:39:47			0	39453	0	0	0	30140	28760	156602	26949	1074405	46292	111219	0	0	8186	484794	0	0
2024-08-11 05:40:47			0	39449	0	0	0	30132	28760	156618	27053	1074369	46315	111216	0	0	8186	484938	0	0
2024-08-11 05:41:47			0	39450	0	0	0	30132	28760	156506	26896	1074396	46282	111216	0	0	8186	484902	0	0
2024-08-11 05:42:47			0	39453	0	0	0	30132	28750	156622	27190	1074378	46302	111216	0	0	8186	484822	0	0
2024-08-11 05:43:47			0	39459	0	0	0	30135	28750	156558	26738	1074360	46291	111217	0	0	8186	484608	0	0
2024-08-11 05:44:47			0	39457	0	0	0	30129	28740	156662	26791	1074342	46291	111215	0	0	8186	484707	0	0
2024-08-11 05:45:47			0	39450	0	0	0	30132	28740	156674	26696	1074288	46291	111216	0	0	8186	484958	0	0
2024-08-11 05:46:47			0	39448	0	0	0	30122	28740	156610	27013	1074315	46280	111212	0	0	8186	485029	0	0
2024-08-11 05:47:47			0	39437	0	0	0	30122	28740	156498	27213	1074306	46301	111212	0	0	8185	485424	0	0
2024-08-11 05:48:47			0	39458	0	0	0	30124	28740	156526	26887	1074315	46302	111213	0	0	8186	484672	0	0
2024-08-11 05:49:47			0	39458	0	0	0	30122	28730	156514	26960	1074270	46312	111212	0	0	8186	484700	0	0
2024-08-11 05:50:47			0	39484	0	0	0	30119	28730	156450	26864	1074297	46301	111211	0	0	8188	483770	0	0
2024-08-11 05:51:47			0	39441	0	0	0	30122	28730	156510	26868	1074261	46278	111212	0	0	8185	485308	0	0
2024-08-11 05:52:47			0	39463	0	0	0	30106	28720	156550	26726	1074252	46300	111206	0	0	8187	484549	0	0
2024-08-11 05:53:47			0	39449	0	0	0	30114	28730	156522	26779	1074261	46300	111209	0	0	8186	485022	0	0
2024-08-11 05:54:47			0	39441	0	0	0	30114	28720	156502	27178	1074225	46300	111209	0	0	8185	485336	0	0
2024-08-11 05:55:47			0	39469	0	0	0	30111	28730	156546	26883	1074234	46289	111208	0	0	8187	484306	0	0
2024-08-11 05:56:47			0	39449	0	0	0	30109	28720	156510	27057	1074189	46288	111207	0	0	8186	485050	0	0
2024-08-11 05:57:47			0	39452	0	0	0	30106	28720	156446	26927	1074216	46299	111206	0	0	8186	484943	0	0
2024-08-11 05:58:47			0	39475	0	0	0	30109	28710	156478	26986	1074207	46299	111207	0	0	8187	484148	0	0
2024-08-11 05:59:47			0	39483	0	0	0	30106	28720	156582	27112	1074108	46288	111206	0	0	8188	483833	0	0
2024-08-11 06:00:47			0	39468	0	0	0	30103	28720	156530	26981	1074225	46300	111205	0	0	8187	484370	0	0
2024-08-11 06:01:47			0	39485	0	0	0	30101	28720	156498	26696	1074216	46288	111204	0	0	8188	483762	0	0
2024-08-11 06:02:47			0	39450	0	0	0	30098	28710	156610	26880	1074207	46299	111203	0	0	8186	485042	0	0
2024-08-11 06:03:47			0	39455	0	0	0	30093	28710	156498	26835	1074180	46288	111201	0	0	8186	484863	0	0
2024-08-11 06:04:47			0	39452	0	0	0	30103	28700	156470	26922	1074108	46298	111205	0	0	8186	484999	0	0
2024-08-11 06:05:47			0	39459	0	0	0	30103	28720	156430	26750	1074162	46288	111205	0	0	8187	484692	0	0
2024-08-11 06:06:47			0	39468	0	0	0	30093	28710	156554	26698	1074117	46298	111201	0	0	8187	484398	0	0
2024-08-11 06:07:47			0	39472	0	0	0	30093	28710	156466	26856	1074224	46309	111201	0	0	8187	484255	0	0
2024-08-11 06:08:47			0	39454	0	0	0	30088	28710	156418	27112	1074117	46298	111199	0	0	8186	484899	0	0
2024-08-11 06:09:47			0	39468	0	0	0	30083	28700	156510	26897	1074126	46297	111197	0	0	8187	484426	0	0
2024-08-11 06:10:47			0	39448	0	0	0	30085	28700	156482	26828	1074072	46275	111198	0	0	8186	485142	0	0
2024-08-11 06:11:47			0	39458	0	0	0	30080	28690	156498	26890	1074036	46297	111196	0	0	8187	484812	0	0
2024-08-11 06:12:47			0	39481	0	0	0	30070	28690	156498	26812	1073982	46297	111192	0	0	8188	483989	0	0
2024-08-11 06:13:47			0	39459	0	0	0	30064	28680	156594	27005	1074045	46296	111190	0	0	8187	484804	0	0
2024-08-11 06:14:47			0	39461	0	0	0	30072	28680	156462	26981	1074018	46285	111193	0	0	8187	484733	0	0
2024-08-11 06:15:47			0	39465	0	0	0	30072	28670	156426	26764	1074053	46294	111193	0	0	8187	484618	0	0
2024-08-11 06:16:47			0	39478	0	0	0	30067	28680	156478	26961	1074036	46295	111191	0	0	8188	484124	0	0
2024-08-11 06:17:47			0	39480	0	0	0	30059	28680	156498	26852	1073955	46306	111188	0	0	8188	484053	0	0
2024-08-11 06:18:47			0	39475	0	0	0	30059	28680	156530	26968	1073955	46295	111188	0	0	8188	484232	0	0
2024-08-11 06:19:47			0	39473	0	0	0	30067	28680	156610	26845	1073955	46284	111191	0	0	8188	484303	0	0
2024-08-11 06:20:47			0	39457	0	0	0	30072	28670	156426	27119	1073973	46317	111193	0	0	8187	484904	0	0
2024-08-11 06:21:47			0	39457	0	0	0	30064	28680	156498	26684	1074036	46306	111190	0	0	8187	484876	0	0
2024-08-11 06:22:47			0	39462	0	0	0	30059	28680	156538	27007	1074045	46296	111188	0	0	8187	484697	0	0
2024-08-11 06:23:47			0	39460	0	0	0	30064	28680	156514	26618	1073991	46307	111190	0	0	8187	484768	0	0
2024-08-11 06:24:47			0	39467	0	0	0	30075	28680	156582	26757	1074036	46306	111194	0	0	8187	484518	0	0
2024-08-11 06:25:47			0	39449	0	0	0	30070	28680	156510	26925	1073982	46318	111192	0	0	8186	485162	0	0
2024-08-11 06:26:47			0	39466	0	0	0	30070	28680	156498	26599	1074045	46296	111192	0	0	8187	484554	0	0
2024-08-11 06:27:47			0	39458	0	0	0	30075	28680	156622	26710	1074045	46307	111194	0	0	8187	484840	0	0
2024-08-11 06:28:47			0	39464	0	0	0	30070	28680	156538	26809	1074071	46319	111192	0	0	8187	484625	0	0
2024-08-11 06:29:47			0	39474	0	0	0	30080	28680	156530	27072	1074089	46295	111196	0	0	8188	484267	0	0
2024-08-11 06:30:47			0	39459	0	0	0	30083	28680	156406	27135	1074045	46296	111197	0	0	8187	484804	0	0
2024-08-11 06:31:47			0	39447	0	0	0	30077	28680	156414	27071	1074018	46285	111195	0	0	8186	485234	0	0
2024-08-11 06:32:47			0	39467	0	0	0	30077	28680	156390	26814	1074071	46296	111195	0	0	8187	484518	0	0
2024-08-11 06:33:47			0	39473	0	0	0	30077	28690	156418	26762	1074036	46297	111195	0	0	8188	484275	0	0
2024-08-11 06:34:47			0	39476	0	0	0	30080	28680	156398	27109	1074045	46307	111196	0	0	8188	484196	0	0
2024-08-11 06:35:47			0	39468	0	0	0	30075	28690	156526	27039	1074063	46297	111194	0	0	8187	484454	0	0
2024-08-11 06:36:47			0	39490	0	0	0	30083	28680	156462	26854	1074062	46306	111197	0	0	8188	483695	0	0
2024-08-11 06:37:47			0	39471	0	0	0	30083	28690	156434	26809	1074063	46286	111197	0	0	8187	484347	0	0
2024-08-11 06:38:47			0	39486	0	0	0	30070	28680	156418	26840	1074125	46307	111192	0	0	8188	483838	0	0
2024-08-11 06:39:47			0	39488	0	0	0	30083	28680	156474	26913	1074036	46295	111197	0	0	8188	483767	0	0
2024-08-11 06:40:47			0	39486	0	0	0	30080	28690	156374	26800	1074036	46320	111196	0	0	8188	483810	0	0
2024-08-11 06:41:47			0	39499	0	0	0	30080	28690	156462	26857	1074090	46297	111196	0	0	8189	483345	0	0
2024-08-11 06:42:47			0	39487	0	0	0	30077	28680	156306	26835	1074089	46284	111195	0	0	8188	483802	0	0
2024-08-11 06:43:47			0	39491	0	0	0	30093	28690	156422	26705	1074116	46308	111201	0	0	8188	483631	0	0
2024-08-11 06:44:47			0	39505	0	0	0	30083	28690	156342	26831	1074116	46297	111197	0	0	8189	483131	0	0
2024-08-11 06:45:47			0	39500	0	0	0	30085	28690	156466	26769	1074063	46308	111198	0	0	8189	483310	0	0
2024-08-11 06:46:47			0	39483	0	0	0	30083	28680	156306	27078	1074071	46296	111197	0	0	8188	483945	0	0
2024-08-11 06:47:47			0	39513	0	0	0	30080	28680	156442	26979	1074098	46285	111196	0	0	8190	482873	0	0
2024-08-11 06:48:47			0	39499	0	0	0	30090	28690	156394	27012	1074090	46308	111200	0	0	8189	483345	0	0
2024-08-11 06:49:47			0	39500	0	0	0	30083	28690	156314	26852	1074081	46307	111197	0	0	8189	483310	0	0
2024-08-11 06:50:47			0	39499	0	0	0	30083	28680	156326	27055	1074098	46274	111197	0	0	8189	483373	0	0
2024-08-11 06:51:47			0	39524	0	0	0	30083	28690	156346	26786	1074134	46285	111197	0	0	8190	482452	0	0
2024-08-11 06:52:47			0	39508	0	0	0	30077	28680	156214	26844	1074098	46285	111195	0	0	8190	483052	0	0
2024-08-11 06:53:47			0	39521	0	0	0	30083	28680	156322	26908	1074098	46285	111197	0	0	8190	482587	0	0
2024-08-11 06:54:47			0	39520	0	0	0	30085	28690	156310	26935	1074081	46285	111198	0	0	8190	482595	0	0
2024-08-11 06:55:47			0	39514	0	0	0	30088	28690	156242	27015	1074116	46297	111199	0	0	8190	482809	0	0
2024-08-11 06:56:47			0	39508	0	0	0	30080	28680	156238	27052	1074071	46285	111196	0	0	8190	483052	0	0
2024-08-11 06:57:47			0	39513	0	0	0	30077	28690	156210	26819	1074107	46285	111195	0	0	8190	482845	0	0
2024-08-11 06:58:47			0	39518	0	0	0	30088	28680	156206	26670	1074098	46307	111199	0	0	8190	482694	0	0
2024-08-11 06:59:47			0	39531	0	0	0	30077	28690	156282	26974	1074134	46296	111195	0	0	8191	482202	0	0
2024-08-11 07:00:47			0	39531	0	0	0	30083	28690	156214	26824	1074090	46308	111197	0	0	8191	482202	0	0
2024-08-11 07:01:47			0	39518	0	0	0	30088	28690	156226	26814	1074090	46297	111199	0	0	8190	482666	0	0
2024-08-11 07:02:47			0	39516	0	0	0	30083	28690	156194	26930	1074063	46286	111197	0	0	8190	482738	0	0
2024-08-11 07:03:47			0	39541	0	0	0	30088	28690	156158	26902	1074143	46286	111199	0	0	8191	481846	0	0
2024-08-11 07:04:47			0	39528	0	0	0	30080	28690	156158	27055	1074054	46296	111196	0	0	8191	482309	0	0
2024-08-11 07:05:47			0	39526	0	0	0	30072	28680	156310	26887	1074062	46284	111193	0	0	8191	482409	0	0
2024-08-11 07:06:47			0	39524	0	0	0	30077	28690	156238	27164	1074027	46296	111195	0	0	8191	482452	0	0
2024-08-11 07:07:47			0	39521	0	0	0	30077	28680	156166	26844	1074062	46295	111195	0	0	8190	482587	0	0
2024-08-11 07:08:47			0	39542	0	0	0	30080	28680	156210	27222	1074045	46296	111196	0	0	8191	481838	0	0
2024-08-11 07:09:47			0	39527	0	0	0	30075	28680	156178	26986	1074018	46274	111194	0	0	8191	482373	0	0
2024-08-11 07:10:47			0	39536	0	0	0	30075	28680	156158	27182	1074071	46285	111194	0	0	8191	482052	0	0
2024-08-11 07:11:47			0	39541	0	0	0	30085	28690	156198	27112	1074116	46275	111198	0	0	8191	481846	0	0
2024-08-11 07:12:47			0	39548	0	0	0	30080	28670	156162	27029	1074026	46294	111196	0	0	8192	481652	0	0
2024-08-11 07:13:47			0	39553	0	0	0	30085	28680	156254	27010	1074045	46307	111198	0	0	8192	481445	0	0
2024-08-11 07:14:47			0	39527	0	0	0	30083	28680	156110	26986	1074152	46296	111197	0	0	8191	482373	0	0
2024-08-11 07:15:47			0	39545	0	0	0	30083	28680	156154	27100	1074062	46318	111197	0	0	8192	481731	0	0
2024-08-11 07:16:47			0	39547	0	0	0	30088	28680	156102	26850	1074062	46295	111199	0	0	8192	481659	0	0
2024-08-11 07:17:47			0	39546	0	0	0	30088	28680	156106	27147	1074206	46285	111199	0	0	8192	481695	0	0
2024-08-11 07:18:47			0	39537	0	0	0	30088	28690	156134	26665	1074081	46296	111199	0	0	8191	481988	0	0
2024-08-11 07:19:47			0	39553	0	0	0	30085	28680	156150	26864	1074098	46285	111198	0	0	8192	481445	0	0
2024-08-11 07:20:47			0	39563	0	0	0	30088	28680	156182	26890	1074089	46295	111199	0	0	8192	481089	0	0
2024-08-11 07:21:47			0	39545	0	0	0	30085	28690	156230	26811	1074063	46320	111198	0	0	8192	481703	0	0
2024-08-11 07:22:47			0	39558	0	0	0	30085	28690	156182	26998	1074143	46308	111198	0	0	8192	481239	0	0
2024-08-11 07:23:47			0	39549	0	0	0	30085	28690	156214	27189	1074134	46307	111198	0	0	8192	481560	0	0
2024-08-11 07:24:47			0	39535	0	0	0	30090	28690	156190	26443	1074081	46285	111200	0	0	8191	482060	0	0
2024-08-11 07:25:47			0	39557	0	0	0	30093	28690	156090	26552	1074143	46297	111201	0	0	8192	481275	0	0
2024-08-11 07:26:47			0	39562	0	0	0	30090	28700	156226	26958	1074099	46286	111200	0	0	8192	481069	0	0
2024-08-11 07:27:47			0	39547	0	0	0	30088	28690	156206	26830	1074116	46297	111199	0	0	8192	481631	0	0
2024-08-11 07:28:47			0	39555	0	0	0	30098	28690	156146	26467	1074188	46307	111203	0	0	8192	481346	0	0
2024-08-11 07:29:47			0	39571	0	0	0	30096	28680	156090	26622	1074089	46295	111202	0	0	8193	480804	0	0
2024-08-11 07:30:47			0	39569	0	0	0	30096	28700	156162	26840	1074162	46298	111202	0	0	8193	480819	0	0
2024-08-11 07:31:47			0	39549	0	0	0	30096	28690	156130	26717	1074143	46308	111202	0	0	8192	481560	0	0
2024-08-11 07:32:47			0	39557	0	0	0	30090	28680	156086	26750	1074098	46296	111200	0	0	8192	481303	0	0
2024-08-11 07:33:47			0	39577	0	0	0	30096	28680	156066	26974	1074125	46319	111202	0	0	8193	480590	0	0
2024-08-11 07:34:47			0	39563	0	0	0	30090	28690	156186	26795	1074081	46285	111200	0	0	8192	481061	0	0
2024-08-11 07:35:47			0	39555	0	0	0	30080	28690	156118	26733	1074134	46285	111196	0	0	8192	481346	0	0
2024-08-11 07:36:47			0	39571	0	0	0	30080	28670	156214	26883	1074026	46283	111196	0	0	8193	480832	0	0
2024-08-11 07:37:47			0	39548	0	0	0	30080	28680	156166	27079	1074062	46295	111196	0	0	8192	481624	0	0
2024-08-11 07:38:47			0	39565	0	0	0	30080	28680	156066	26767	1074089	46295	111196	0	0	8193	481018	0	0
2024-08-11 07:39:47			0	39546	0	0	0	30064	28680	156146	26798	1074071	46285	111190	0	0	8192	481695	0	0
2024-08-11 07:40:47			0	39547	0	0	0	30075	28680	156142	26837	1074062	46295	111194	0	0	8192	481659	0	0
2024-08-11 07:41:47			0	39552	0	0	0	30083	28690	156194	26748	1074081	46296	111197	0	0	8192	481453	0	0
2024-08-11 07:42:47			0	39534	0	0	0	30077	28670	156214	26686	1074107	46283	111195	0	0	8191	482151	0	0
2024-08-11 07:43:47			0	39556	0	0	0	30072	28670	156238	27159	1074026	46305	111193	0	0	8192	481366	0	0
2024-08-11 07:44:47			0	39549	0	0	0	30070	28680	156222	26642	1074045	46307	111192	0	0	8192	481588	0	0
2024-08-11 07:45:47			0	39548	0	0	0	30072	28680	156162	26963	1074071	46307	111193	0	0	8192	481624	0	0
2024-08-11 07:46:47			0	39556	0	0	0	30072	28670	156198	26826	1074080	46294	111193	0	0	8192	481366	0	0
2024-08-11 07:47:47			0	39557	0	0	0	30077	28680	156074	27055	1074089	46284	111195	0	0	8192	481303	0	0
2024-08-11 07:48:47			0	39548	0	0	0	30067	28680	156078	26993	1074062	46284	111191	0	0	8192	481624	0	0
2024-08-11 07:49:47			0	39554	0	0	0	30075	28670	156166	26928	1074053	46294	111194	0	0	8192	481438	0	0
2024-08-11 07:50:47			0	39556	0	0	0	30072	28680	156126	26927	1074062	46306	111193	0	0	8192	481338	0	0
2024-08-11 07:51:47			0	39553	0	0	0	30077	28680	156178	26876	1074089	46318	111195	0	0	8192	481445	0	0
2024-08-11 07:52:47			0	39560	0	0	0	30083	28680	156126	27279	1074036	46295	111197	0	0	8192	481196	0	0
2024-08-11 07:53:47			0	39553	0	0	0	30083	28680	156114	27086	1074089	46295	111197	0	0	8192	481445	0	0
2024-08-11 07:54:47			0	39564	0	0	0	30080	28680	156114	27064	1074098	46285	111196	0	0	8193	481053	0	0
2024-08-11 07:55:47			0	39553	0	0	0	30075	28680	156054	27036	1074125	46296	111194	0	0	8192	481445	0	0
2024-08-11 07:56:47			0	39557	0	0	0	30085	28680	156058	26788	1074071	46307	111198	0	0	8192	481303	0	0
2024-08-11 07:57:47			0	39567	0	0	0	30090	28690	156090	26805	1074134	46296	111200	0	0	8193	480918	0	0
2024-08-11 07:58:47			0	39550	0	0	0	30088	28680	156138	26934	1074125	46296	111199	0	0	8192	481552	0	0
2024-08-11 07:59:47			0	39570	0	0	0	30085	28680	156122	27055	1074116	46306	111198	0	0	8193	480839	0	0
2024-08-11 08:00:47			0	39551	0	0	0	30096	28680	156098	27069	1074152	46307	111202	0	0	8192	481517	0	0
2024-08-11 08:01:47			0	39574	0	0	0	30096	28710	156190	26925	1074144	46309	111202	0	0	8193	480613	0	0
2024-08-11 08:02:47			0	39561	0	0	0	30085	28690	156118	26913	1074170	46297	111198	0	0	8192	481132	0	0
2024-08-11 08:03:47			0	39565	0	0	0	30088	28690	156118	26916	1074197	46320	111199	0	0	8193	480990	0	0
2024-08-11 08:04:47			0	39560	0	0	0	30088	28680	156178	26955	1074125	46285	111199	0	0	8192	481196	0	0
2024-08-11 08:05:47			0	39578	0	0	0	30093	28690	156162	27041	1074161	46296	111201	0	0	8193	480527	0	0
2024-08-11 08:06:47			0	39572	0	0	0	30093	28700	156054	26748	1074233	46308	111201	0	0	8193	480712	0	0
2024-08-11 08:07:47			0	39560	0	0	0	30101	28690	156082	26930	1074170	46308	111204	0	0	8192	481168	0	0
2024-08-11 08:08:47			0	39569	0	0	0	30093	28700	156058	26651	1074206	46297	111201	0	0	8193	480819	0	0
2024-08-11 08:09:47			0	39557	0	0	0	30090	28700	156086	26894	1074188	46309	111200	0	0	8192	481247	0	0
2024-08-11 08:10:47			0	39555	0	0	0	30090	28690	156026	27118	1074161	46296	111200	0	0	8192	481346	0	0
2024-08-11 08:11:47			0	39575	0	0	0	30096	28690	156058	26654	1074197	46297	111202	0	0	8193	480633	0	0
2024-08-11 08:12:47			0	39582	0	0	0	30090	28700	155986	26850	1074153	46297	111200	0	0	8194	480356	0	0
2024-08-11 08:13:47			0	39564	0	0	0	30098	28690	156074	26746	1074107	46307	111203	0	0	8192	481025	0	0
2024-08-11 08:14:47			0	39554	0	0	0	30096	28700	156126	26991	1074153	46297	111202	0	0	8192	481354	0	0
2024-08-11 08:15:47			0	39571	0	0	0	30093	28690	156134	26800	1074143	46297	111201	0	0	8193	480776	0	0
2024-08-11 08:16:47			0	39565	0	0	0	30090	28700	156042	26762	1074162	46298	111200	0	0	8193	480962	0	0
2024-08-11 08:17:47			0	39583	0	0	0	30085	28680	156050	26833	1074116	46284	111198	0	0	8194	480376	0	0
2024-08-11 08:18:47			0	39563	0	0	0	30093	28680	156070	26724	1074098	46285	111201	0	0	8192	481089	0	0
2024-08-11 08:19:47			0	39576	0	0	0	30098	28700	156058	27086	1074126	46286	111203	0	0	8193	480570	0	0
2024-08-11 08:20:47			0	39565	0	0	0	30085	28690	156118	26937	1074107	46296	111198	0	0	8193	480990	0	0
2024-08-11 08:21:47			0	39563	0	0	0	30093	28690	156026	27093	1074143	46308	111201	0	0	8192	481061	0	0
2024-08-11 08:22:47			0	39582	0	0	0	30085	28690	156114	26925	1074143	46308	111198	0	0	8194	480384	0	0
2024-08-11 08:23:47			0	39562	0	0	0	30088	28690	156178	26871	1074143	46297	111199	0	0	8192	481097	0	0
2024-08-11 08:24:47			0	39570	0	0	0	30090	28700	156126	26575	1074233	46297	111200	0	0	8193	480784	0	0
2024-08-11 08:25:47			0	39566	0	0	0	30090	28690	156078	26870	1074188	46319	111200	0	0	8193	480954	0	0
2024-08-11 08:26:47			0	39562	0	0	0	30096	28700	156146	26840	1074188	46309	111202	0	0	8192	481069	0	0
2024-08-11 08:27:47			0	39568	0	0	0	30085	28700	156158	27083	1074206	46297	111198	0	0	8193	480855	0	0
2024-08-11 08:28:47			0	39555	0	0	0	30093	28690	156146	26876	1074143	46297	111201	0	0	8192	481346	0	0
2024-08-11 08:29:47			0	39570	0	0	0	30096	28700	156186	26994	1074206	46297	111202	0	0	8193	480784	0	0
2024-08-11 08:30:47			0	39561	0	0	0	30101	28690	156098	26812	1074188	46319	111204	0	0	8192	481132	0	0
2024-08-11 08:31:47			0	39548	0	0	0	30093	28700	156166	26850	1074215	46309	111201	0	0	8192	481568	0	0
2024-08-11 08:32:47			0	39558	0	0	0	30103	28690	156134	27024	1074170	46286	111205	0	0	8192	481239	0	0
2024-08-11 08:33:47			0	39538	0	0	0	30103	28710	156226	27135	1074197	46309	111205	0	0	8191	481897	0	0
2024-08-11 08:34:47			0	39529	0	0	0	30111	28700	156130	26646	1074296	46298	111208	0	0	8190	482246	0	0
2024-08-11 08:35:47			0	39548	0	0	0	30109	28700	156130	27001	1074269	46321	111207	0	0	8191	481568	0	0
2024-08-11 08:36:47			0	39529	0	0	0	30119	28720	156150	26705	1074305	46311	111211	0	0	8190	482190	0	0
2024-08-11 08:37:47			0	39548	0	0	0	30111	28710	156170	27022	1074287	46299	111208	0	0	8191	481540	0	0
2024-08-11 08:38:47			0	39541	0	0	0	30119	28710	156206	26727	1074287	46299	111211	0	0	8191	481790	0	0
2024-08-11 08:39:47			0	39538	0	0	0	30124	28730	156094	26748	1074368	46300	111213	0	0	8191	481841	0	0
2024-08-11 08:40:47			0	39543	0	0	0	30122	28720	156158	26892	1074377	46322	111212	0	0	8191	481691	0	0
2024-08-11 08:41:47			0	39554	0	0	0	30127	28730	156198	27007	1074341	46323	111214	0	0	8192	481270	0	0
2024-08-11 08:42:47			0	39545	0	0	0	30122	28720	156242	27069	1074359	46311	111212	0	0	8191	481619	0	0
2024-08-11 08:43:47			0	39537	0	0	0	30132	28720	156254	27121	1074359	46311	111216	0	0	8190	481905	0	0
2024-08-11 08:44:47			0	39536	0	0	0	30132	28720	156210	27057	1074413	46311	111216	0	0	8190	481940	0	0
2024-08-11 08:45:47			0	39541	0	0	0	30135	28730	156198	27161	1074377	46324	111217	0	0	8191	481734	0	0
2024-08-11 08:46:47			0	39544	0	0	0	30140	28740	156178	27083	1074440	46324	111219	0	0	8191	481599	0	0
2024-08-11 08:47:47			0	39541	0	0	0	30137	28730	156242	26762	1074404	46301	111218	0	0	8191	481734	0	0
2024-08-11 08:48:47			0	39548	0	0	0	30145	28730	156250	27135	1074449	46300	111221	0	0	8191	481484	0	0
2024-08-11 08:49:47			0	39539	0	0	0	30142	28740	156282	26896	1074413	46301	111220	0	0	8190	481777	0	0
2024-08-11 08:50:47			0	39539	0	0	0	30137	28730	156166	27131	1074485	46279	111218	0	0	8191	481805	0	0
2024-08-11 08:51:47			0	39530	0	0	0	30137	28730	156246	26949	1074431	46312	111218	0	0	8190	482126	0	0
2024-08-11 08:52:47			0	39537	0	0	0	30137	28740	156298	26807	1074413	46324	111218	0	0	8190	481849	0	0
2024-08-11 08:53:47			0	39546	0	0	0	30145	28740	156278	26902	1074467	46301	111221	0	0	8191	481528	0	0
2024-08-11 08:54:47			0	39534	0	0	0	30145	28740	156222	26920	1074494	46301	111221	0	0	8190	481956	0	0
2024-08-11 08:55:47			0	39514	0	0	0	30150	28740	156218	26798	1074494	46312	111223	0	0	8189	482670	0	0
2024-08-11 08:56:47			0	39524	0	0	0	30153	28750	156218	26750	1074458	46313	111224	0	0	8189	482285	0	0
2024-08-11 08:57:47			0	39528	0	0	0	30153	28740	156226	27218	1074449	46302	111224	0	0	8190	482170	0	0
2024-08-11 08:58:47			0	39524	0	0	0	30150	28740	156330	27092	1074422	46313	111223	0	0	8189	482313	0	0
2024-08-11 08:59:47			0	39505	0	0	0	30150	28740	156206	26946	1074467	46301	111223	0	0	8188	482991	0	0
2024-08-11 09:00:47			0	39506	0	0	0	30155	28740	156334	26932	1074449	46313	111225	0	0	8188	482955	0	0
2024-08-11 09:01:47			0	39525	0	0	0	30153	28750	156262	26783	1074539	46313	111224	0	0	8190	482249	0	0
2024-08-11 09:02:47			0	39491	0	0	0	30158	28750	156250	26885	1074512	46313	111226	0	0	8188	483463	0	0
2024-08-11 09:03:47			0	39514	0	0	0	30153	28750	156294	27131	1074468	46303	111224	0	0	8189	482642	0	0
2024-08-11 09:04:47			0	39505	0	0	0	30166	28750	156394	27003	1074548	46303	111229	0	0	8188	482963	0	0
2024-08-11 09:05:47			0	39490	0	0	0	30155	28760	156330	26764	1074477	46327	111225	0	0	8188	483471	0	0
2024-08-11 09:06:47			0	39493	0	0	0	30158	28750	156250	27118	1074521	46303	111226	0	0	8188	483392	0	0
2024-08-11 09:07:47			0	39485	0	0	0	30161	28760	156350	26979	1074566	46292	111227	0	0	8187	483650	0	0
2024-08-11 09:08:47			0	39466	0	0	0	30163	28760	156398	26765	1074530	46304	111228	0	0	8186	484329	0	0
2024-08-11 09:09:47			0	39477	0	0	0	30155	28760	156410	26802	1074540	46327	111225	0	0	8187	483936	0	0
2024-08-11 09:10:47			0	39474	0	0	0	30163	28760	156410	27022	1074557	46292	111228	0	0	8187	484043	0	0
2024-08-11 09:11:47			0	39464	0	0	0	30168	28750	156434	26984	1074521	46303	111230	0	0	8186	484429	0	0
2024-08-11 09:12:47			0	39463	0	0	0	30166	28760	156362	26908	1074540	46304	111229	0	0	8186	484436	0	0
2024-08-11 09:13:47			0	39463	0	0	0	30171	28760	156410	27116	1074566	46292	111231	0	0	8186	484436	0	0
2024-08-11 09:14:47			0	39446	0	0	0	30166	28770	156410	27022	1074602	46304	111229	0	0	8185	485017	0	0
2024-08-11 09:15:47			0	39458	0	0	0	30168	28760	156482	26788	1074647	46304	111230	0	0	8186	484615	0	0
2024-08-11 09:16:47			0	39444	0	0	0	30174	28760	156450	26937	1074593	46304	111232	0	0	8185	485117	0	0
2024-08-11 09:17:47			0	39436	0	0	0	30155	28770	156426	27039	1074549	46292	111225	0	0	8185	485375	0	0
2024-08-11 09:18:47			0	39433	0	0	0	30127	28750	156550	26908	1074494	46291	111214	0	0	8185	485539	0	0
2024-08-11 09:19:47			0	39418	0	0	0	30129	28750	156658	26982	1074405	46302	111215	0	0	8184	486076	0	0
2024-08-11 09:20:47			0	39360	0	0	0	30127	28750	156717	27052	1074485	46291	111214	0	0	8181	488158	0	0
2024-08-11 09:21:47			0	39348	0	0	0	30137	28750	156873	26883	1074458	46313	111218	0	0	8180	488590	0	0
2024-08-11 09:22:47			0	39323	0	0	0	30145	28760	156965	27074	1074450	46327	111221	0	0	8178	489461	0	0
2024-08-11 09:23:47			0	39305	0	0	0	30153	28750	156981	26864	1074548	46303	111224	0	0	8177	490137	0	0
2024-08-11 09:24:47			0	39291	0	0	0	30148	28760	157033	27000	1074503	46315	111222	0	0	8176	490613	0	0
2024-08-11 09:25:47			0	39274	0	0	0	30171	28760	157045	27234	1074584	46315	111231	0	0	8175	491226	0	0
2024-08-11 09:26:47			0	39242	0	0	0	30155	28760	157193	26996	1074638	46327	111225	0	0	8174	492381	0	0
2024-08-11 09:27:47			0	39233	0	0	0	30158	28750	157213	27024	1074575	46314	111226	0	0	8173	492735	0	0
2024-08-11 09:28:47			0	39217	0	0	0	30158	28760	157233	26868	1074593	46304	111226	0	0	8172	493285	0	0
2024-08-11 09:29:47			0	39186	0	0	0	30161	28750	157361	27057	1074566	46313	111227	0	0	8170	494435	0	0
2024-08-11 09:30:47			0	39165	0	0	0	30161	28750	157465	27074	1074548	46303	111227	0	0	8169	495196	0	0
2024-08-11 09:31:47			0	39140	0	0	0	30158	28750	157545	26880	1074566	46313	111226	0	0	8168	496102	0	0
2024-08-11 09:32:47			0	39118	0	0	0	30155	28750	157625	26849	1074575	46326	111225	0	0	8166	496901	0	0
2024-08-11 09:33:47			0	39086	0	0	0	30155	28760	157737	27178	1074557	46327	111225	0	0	8165	498035	0	0
2024-08-11 09:34:47			0	39073	0	0	0	30163	28760	157865	27126	1074557	46327	111228	0	0	8164	498507	0	0
2024-08-11 09:35:47			0	39048	0	0	0	30163	28760	157997	26965	1074593	46282	111228	0	0	8162	499418	0	0
2024-08-11 09:36:47			0	39046	0	0	0	30166	28760	157977	27145	1074647	46315	111229	0	0	8162	499490	0	0
2024-08-11 09:37:47			0	39012	0	0	0	30166	28770	158109	26833	1074683	46315	111229	0	0	8160	500701	0	0
2024-08-11 09:38:47			0	38984	0	0	0	30168	28770	158065	27078	1074683	46304	111230	0	0	8159	501723	0	0
2024-08-11 09:39:47			0	38966	0	0	0	30176	28770	158229	26901	1074656	46327	111233	0	0	8158	502380	0	0
2024-08-11 09:40:47			0	38953	0	0	0	30179	28770	158217	26826	1074665	46328	111234	0	0	8157	502855	0	0
2024-08-11 09:41:47			0	38935	0	0	0	30179	28780	158345	27052	1074702	46317	111234	0	0	8156	503485	0	0
2024-08-11 09:42:47			0	38903	0	0	0	30189	28780	158561	27090	1074702	46317	111238	0	0	8154	504657	0	0
2024-08-11 09:43:47			0	38908	0	0	0	30184	28770	158505	26620	1074773	46316	111236	0	0	8154	504503	0	0
2024-08-11 09:44:47			0	38889	0	0	0	30197	28780	158629	27173	1074783	46329	111241	0	0	8153	505170	0	0
2024-08-11 09:45:47			0	38881	0	0	0	30199	28780	158617	26935	1074765	46317	111242	0	0	8152	505463	0	0
2024-08-11 09:46:47			0	38872	0	0	0	30210	28790	158629	26759	1074774	46318	111246	0	0	8152	505764	0	0
2024-08-11 09:47:47			0	38841	0	0	0	30202	28790	158713	27196	1074756	46330	111243	0	0	8150	506902	0	0
2024-08-11 09:48:47			0	38841	0	0	0	30202	28800	158813	27039	1074801	46331	111243	0	0	8150	506873	0	0
2024-08-11 09:49:47			0	38811	0	0	0	30210	28790	158741	26845	1074783	46318	111246	0	0	8148	508005	0	0
2024-08-11 09:50:47			0	38818	0	0	0	30207	28800	158889	26897	1074792	46296	111245	0	0	8149	507718	0	0
2024-08-11 09:51:47			0	38792	0	0	0	30202	28790	158845	26961	1074810	46307	111243	0	0	8147	508704	0	0
2024-08-11 09:52:47			0	38771	0	0	0	30207	28800	158905	26991	1074819	46308	111245	0	0	8146	509449	0	0
2024-08-11 09:53:47			0	38781	0	0	0	30207	28800	158997	27024	1074819	46296	111245	0	0	8147	509080	0	0
2024-08-11 09:54:47			0	38753	0	0	0	30210	28810	159045	27031	1074864	46297	111246	0	0	8145	510083	0	0
2024-08-11 09:55:47			0	38757	0	0	0	30207	28800	158993	27013	1074738	46319	111245	0	0	8145	509965	0	0
2024-08-11 09:56:47			0	38760	0	0	0	30207	28800	159145	27138	1074846	46308	111245	0	0	8145	509854	0	0
2024-08-11 09:57:47			0	38731	0	0	0	30210	28790	159229	27123	1074837	46318	111246	0	0	8144	510953	0	0
2024-08-11 09:58:47			0	38731	0	0	0	30202	28800	159184	27213	1074801	46319	111243	0	0	8144	510924	0	0
2024-08-11 09:59:47			0	38733	0	0	0	30210	28810	159065	27005	1074837	46309	111246	0	0	8144	510820	0	0
2024-08-11 10:00:47			0	38718	0	0	0	30210	28800	159236	27031	1074846	46296	111246	0	0	8143	511404	0	0
2024-08-11 10:01:47			0	38723	0	0	0	30207	28810	159240	27306	1074891	46297	111245	0	0	8143	511190	0	0
2024-08-11 10:02:47			0	38732	0	0	0	30218	28800	159197	27027	1074882	46308	111249	0	0	8144	510887	0	0
2024-08-11 10:03:47			0	38708	0	0	0	30220	28810	159224	27263	1074864	46342	111250	0	0	8142	511744	0	0
2024-08-11 10:04:47			0	38704	0	0	0	30225	28820	159252	26873	1074936	46321	111252	0	0	8142	511862	0	0
2024-08-11 10:05:47			0	38688	0	0	0	30223	28810	159200	26791	1074927	46309	111251	0	0	8141	512483	0	0
2024-08-11 10:06:47			0	38692	0	0	0	30225	28820	159400	27187	1074891	46333	111252	0	0	8141	512305	0	0
2024-08-11 10:07:47			0	38687	0	0	0	30233	28820	159344	27019	1074945	46333	111255	0	0	8141	512490	0	0
2024-08-11 10:08:47			0	38702	0	0	0	30233	28820	159276	26923	1074999	46322	111255	0	0	8142	511936	0	0
2024-08-11 10:09:47			0	38688	0	0	0	30236	28820	159364	27343	1074972	46322	111256	0	0	8141	512453	0	0
2024-08-11 10:10:47			0	38689	0	0	0	30236	28840	159152	26974	1075053	46323	111256	0	0	8141	512357	0	0
2024-08-11 10:11:47			0	38710	0	0	0	30241	28830	159220	26925	1075098	46322	111258	0	0	8142	511610	0	0
2024-08-11 10:12:47			0	38713	0	0	0	30241	28840	159220	26975	1075062	46313	111258	0	0	8142	511470	0	0
2024-08-11 10:13:47			0	38701	0	0	0	30249	28830	159168	26939	1074963	46333	111261	0	0	8141	511943	0	0
2024-08-11 10:14:47			0	38687	0	0	0	30249	28840	159192	27175	1075026	46312	111261	0	0	8141	512431	0	0
2024-08-11 10:15:47			0	38709	0	0	0	30249	28840	159248	27048	1075053	46334	111261	0	0	8142	511618	0	0
2024-08-11 10:16:47			0	38711	0	0	0	30257	28840	159180	27196	1075161	46323	111264	0	0	8142	511544	0	0
2024-08-11 10:17:47			0	38717	0	0	0	30262	28840	159092	26972	1075035	46324	111266	0	0	8142	511322	0	0
2024-08-11 10:18:47			0	38717	0	0	0	30257	28840	159152	27152	1075107	46312	111264	0	0	8142	511322	0	0
2024-08-11 10:19:47			0	38723	0	0	0	30249	28850	159205	27109	1075071	46324	111261	0	0	8143	511071	0	0
2024-08-11 10:20:47			0	38726	0	0	0	30267	28850	159137	27194	1075152	46313	111268	0	0	8143	510960	0	0
2024-08-11 10:21:47			0	38745	0	0	0	30272	28850	159113	27024	1075098	46335	111270	0	0	8144	510259	0	0
2024-08-11 10:22:47			0	38734	0	0	0	30259	28850	159101	27156	1075125	46335	111265	0	0	8143	510665	0	0
2024-08-11 10:23:47			0	38754	0	0	0	30277	28850	159049	27192	1075161	46335	111272	0	0	8144	509927	0	0
2024-08-11 10:24:47			0	38756	0	0	0	30270	28860	158997	26987	1075143	46336	111269	0	0	8144	509824	0	0
2024-08-11 10:25:47			0	38766	0	0	0	30270	28860	158885	27346	1075116	46314	111269	0	0	8145	509456	0	0
2024-08-11 10:26:47			0	38772	0	0	0	30277	28860	158949	27163	1075206	46326	111272	0	0	8145	509235	0	0
2024-08-11 10:27:47			0	38803	0	0	0	30288	28870	159065	27291	1075242	46303	111276	0	0	8147	508064	0	0
2024-08-11 10:28:47			0	38786	0	0	0	30288	28870	158985	27024	1075242	46337	111276	0	0	8146	508689	0	0
2024-08-11 10:29:47			0	38780	0	0	0	30296	28880	158921	26861	1075233	46316	111279	0	0	8145	508881	0	0
2024-08-11 10:30:47			0	38809	0	0	0	30290	28870	158937	27144	1075296	46315	111277	0	0	8147	507843	0	0
2024-08-11 10:31:47			0	38792	0	0	0	30290	28880	158857	27345	1075341	46327	111277	0	0	8146	508439	0	0
2024-08-11 10:32:47			0	38801	0	0	0	30290	28870	158821	26835	1075251	46327	111277	0	0	8147	508138	0	0
2024-08-11 10:33:47			0	38802	0	0	0	30298	28880	158821	26958	1075323	46339	111280	0	0	8147	508071	0	0
2024-08-11 10:34:47			0	38806	0	0	0	30309	28890	158821	26875	1075368	46340	111284	0	0	8147	507895	0	0
2024-08-11 10:35:47			0	38816	0	0	0	30316	28880	158737	27150	1075296	46328	111287	0	0	8147	507556	0	0
2024-08-11 10:36:47			0	38844	0	0	0	30314	28890	158745	27175	1075386	46329	111286	0	0	8149	506498	0	0
2024-08-11 10:37:47			0	38835	0	0	0	30316	28900	158697	27104	1075432	46329	111287	0	0	8148	506799	0	0
2024-08-11 10:38:47			0	38860	0	0	0	30327	28890	158565	27220	1075413	46318	111291	0	0	8149	505911	0	0
2024-08-11 10:39:47			0	38868	0	0	0	30327	28900	158513	27170	1075405	46340	111291	0	0	8150	505588	0	0
2024-08-11 10:40:47			0	38897	0	0	0	30340	28900	158437	27265	1075468	46330	111296	0	0	8151	504525	0	0
2024-08-11 10:41:47			0	38911	0	0	0	30332	28910	158337	27242	1075513	46342	111293	0	0	8152	503984	0	0
2024-08-11 10:42:47			0	38908	0	0	0	30329	28910	158369	27131	1075459	46320	111292	0	0	8152	504093	0	0
2024-08-11 10:43:47			0	38929	0	0	0	30345	28910	158221	26871	1075477	46320	111298	0	0	8153	503325	0	0
2024-08-11 10:44:47			0	38942	0	0	0	30345	28920	158121	26911	1075504	46343	111298	0	0	8154	502820	0	0
2024-08-11 10:45:47			0	38958	0	0	0	30353	28930	158145	27109	1075513	46333	111301	0	0	8155	502207	0	0
2024-08-11 10:46:47			0	38963	0	0	0	30355	28920	158121	26904	1075531	46332	111302	0	0	8155	502053	0	0
2024-08-11 10:47:47			0	38968	0	0	0	30358	28920	158001	26873	1075558	46321	111303	0	0	8155	501871	0	0
2024-08-11 10:48:47			0	38985	0	0	0	30355	28930	157981	26961	1075540	46333	111302	0	0	8156	501221	0	0
2024-08-11 10:49:47			0	38992	0	0	0	30350	28930	157885	27234	1075540	46333	111300	0	0	8157	500966	0	0
2024-08-11 10:50:47			0	39004	0	0	0	30363	28930	157957	27034	1075594	46322	111305	0	0	8157	500528	0	0
2024-08-11 10:51:47			0	39030	0	0	0	30363	28940	158009	27105	1075621	46333	111305	0	0	8159	499552	0	0
2024-08-11 10:52:47			0	39015	0	0	0	30366	28950	157913	27045	1075657	46324	111306	0	0	8158	500069	0	0
2024-08-11 10:53:47			0	39021	0	0	0	30371	28940	157885	27140	1075531	46344	111308	0	0	8158	499880	0	0
2024-08-11 10:54:47			0	39029	0	0	0	30373	28950	157849	27064	1075585	46335	111309	0	0	8159	499559	0	0
2024-08-11 10:55:47			0	39028	0	0	0	30376	28950	157777	26982	1075639	46335	111310	0	0	8158	499596	0	0
2024-08-11 10:56:47			0	39033	0	0	0	30373	28970	157805	27055	1075684	46347	111309	0	0	8159	499356	0	0
2024-08-11 10:57:47			0	39028	0	0	0	30389	28970	157793	26956	1075801	46348	111315	0	0	8158	499538	0	0
2024-08-11 10:58:47			0	39044	0	0	0	30397	28960	157721	26934	1075756	46347	111318	0	0	8159	498984	0	0
2024-08-11 10:59:47			0	39040	0	0	0	30394	28970	157765	27138	1075774	46336	111317	0	0	8159	499101	0	0
2024-08-11 11:00:47			0	39055	0	0	0	30397	28980	157697	26975	1075783	46349	111318	0	0	8160	498526	0	0
2024-08-11 11:01:47			0	39025	0	0	0	30399	28980	157717	27090	1075810	46349	111319	0	0	8158	499618	0	0
2024-08-11 11:02:47			0	39042	0	0	0	30405	28980	157757	26982	1075837	46349	111321	0	0	8159	498999	0	0
2024-08-11 11:03:47			0	39070	0	0	0	30412	28990	157689	27161	1075855	46349	111324	0	0	8160	497952	0	0
2024-08-11 11:04:47			0	39047	0	0	0	30415	28990	157749	27144	1075810	46338	111325	0	0	8159	498788	0	0
2024-08-11 11:05:47			0	39085	0	0	0	30412	28990	157665	27083	1075855	46327	111324	0	0	8161	497407	0	0
2024-08-11 11:06:47			0	39075	0	0	0	30412	29000	157849	27324	1075846	46329	111324	0	0	8161	497742	0	0
2024-08-11 11:07:47			0	39080	0	0	0	30418	29000	157565	27225	1075963	46329	111326	0	0	8161	497560	0	0
2024-08-11 11:08:47			0	39101	0	0	0	30423	29000	157457	27104	1075873	46362	111328	0	0	8162	496798	0	0
2024-08-11 11:09:47			0	39106	0	0	0	30423	29000	157473	26899	1075927	46339	111328	0	0	8162	496616	0	0
2024-08-11 11:10:47			0	39120	0	0	0	30420	29000	157369	27303	1075936	46351	111327	0	0	8163	496109	0	0
2024-08-11 11:11:47			0	39130	0	0	0	30420	29010	157353	27144	1075891	46351	111327	0	0	8164	495717	0	0
2024-08-11 11:12:47			0	39134	0	0	0	30428	29010	157321	27277	1075954	46340	111330	0	0	8164	495572	0	0
2024-08-11 11:13:47			0	39154	0	0	0	30436	29010	157377	27085	1075927	46352	111333	0	0	8165	494848	0	0
2024-08-11 11:14:47			0	39152	0	0	0	30431	29020	157285	26868	1076080	46320	111331	0	0	8165	494892	0	0
2024-08-11 11:15:47			0	39165	0	0	0	30438	29030	157173	27308	1076090	46353	111334	0	0	8166	494392	0	0
2024-08-11 11:16:47			0	39186	0	0	0	30444	29030	157217	27190	1076036	46342	111336	0	0	8167	493633	0	0
2024-08-11 11:17:47			0	39200	0	0	0	30446	29040	157157	26930	1076054	46343	111337	0	0	8167	493098	0	0
2024-08-11 11:18:47			0	39203	0	0	0	30449	29030	157093	27131	1076143	46332	111338	0	0	8168	493019	0	0
2024-08-11 11:19:47			0	39202	0	0	0	30451	29030	156981	27218	1076126	46332	111339	0	0	8167	493055	0	0
2024-08-11 11:20:47			0	39221	0	0	0	30462	29040	156997	27095	1076117	46344	111343	0	0	8168	492340	0	0
2024-08-11 11:21:47			0	39237	0	0	0	30462	29040	156889	26902	1076117	46322	111343	0	0	8169	491763	0	0
2024-08-11 11:22:47			0	39213	0	0	0	30451	29050	156981	27215	1076180	46344	111339	0	0	8168	492600	0	0
2024-08-11 11:23:47			0	39234	0	0	0	30464	29050	156901	27010	1076153	46344	111344	0	0	8169	491842	0	0
2024-08-11 11:24:47			0	39233	0	0	0	30467	29050	157033	27140	1076243	46355	111345	0	0	8169	491879	0	0
2024-08-11 11:25:47			0	39235	0	0	0	30470	29050	156945	26757	1076243	46355	111346	0	0	8169	491806	0	0
2024-08-11 11:26:47			0	39230	0	0	0	30483	29050	156961	27053	1076189	46355	111351	0	0	8169	491987	0	0
2024-08-11 11:27:47			0	39239	0	0	0	30480	29060	157045	27171	1076252	46356	111350	0	0	8169	491634	0	0
2024-08-11 11:28:47			0	39232	0	0	0	30483	29060	157105	27197	1076207	46346	111351	0	0	8169	491886	0	0
2024-08-11 11:29:47			0	39239	0	0	0	30496	29070	156921	27286	1076378	46346	111356	0	0	8169	491605	0	0
2024-08-11 11:30:47			0	39243	0	0	0	30493	29080	156945	27119	1076342	46359	111355	0	0	8169	491432	0	0
2024-08-11 11:31:47			0	39246	0	0	0	30490	29080	156953	26854	1076315	46336	111354	0	0	8169	491324	0	0
2024-08-11 11:32:47			0	39249	0	0	0	30490	29080	156833	27142	1076342	46336	111354	0	0	8170	491216	0	0
2024-08-11 11:33:47			0	39241	0	0	0	30496	29070	156933	27294	1076306	46335	111356	0	0	8169	491533	0	0
2024-08-11 11:34:47			0	39240	0	0	0	30485	29080	156785	27192	1076324	46348	111352	0	0	8169	491540	0	0
2024-08-11 11:35:47			0	39250	0	0	0	30488	29080	156929	27159	1076342	46347	111353	0	0	8170	491180	0	0
2024-08-11 11:36:47			0	39241	0	0	0	30493	29090	156961	27144	1076306	46338	111355	0	0	8169	491476	0	0
2024-08-11 11:37:47			0	39228	0	0	0	30493	29080	157049	27111	1076423	46347	111355	0	0	8168	491973	0	0
2024-08-11 11:38:47			0	39222	0	0	0	30501	29090	157033	27112	1076423	46349	111358	0	0	8168	492161	0	0
2024-08-11 11:39:47			0	39212	0	0	0	30509	29090	157085	27126	1076369	46360	111361	0	0	8167	492522	0	0
2024-08-11 11:40:47			0	39197	0	0	0	30529	29090	157049	26925	1076450	46360	111369	0	0	8166	493064	0	0
2024-08-11 11:41:47			0	39200	0	0	0	30527	29100	157029	27150	1076495	46339	111368	0	0	8166	492927	0	0
2024-08-11 11:42:47			0	39226	0	0	0	30524	29110	156989	27237	1076423	46362	111367	0	0	8168	491960	0	0
2024-08-11 11:43:47			0	39206	0	0	0	30524	29110	156929	27081	1076477	46362	111367	0	0	8167	492681	0	0
2024-08-11 11:44:47			0	39229	0	0	0	30529	29110	157069	26979	1076486	46340	111369	0	0	8168	491852	0	0
2024-08-11 11:45:47			0	39239	0	0	0	30529	29120	156909	26951	1076522	46329	111369	0	0	8169	491463	0	0
2024-08-11 11:46:47			0	39235	0	0	0	30524	29120	156905	27090	1076495	46351	111367	0	0	8168	491607	0	0
2024-08-11 11:47:47			0	39247	0	0	0	30532	29110	156809	27079	1076567	46329	111370	0	0	8169	491203	0	0
2024-08-11 11:48:47			0	39254	0	0	0	30527	29120	156749	27194	1076585	46352	111368	0	0	8170	490922	0	0
2024-08-11 11:49:47			0	39241	0	0	0	30537	29120	156797	27204	1076612	46363	111372	0	0	8169	491390	0	0
2024-08-11 11:50:47			0	39264	0	0	0	30524	29120	156765	27024	1076612	46352	111367	0	0	8170	490562	0	0
2024-08-11 11:51:47			0	39266	0	0	0	30522	29120	156705	27062	1076477	46330	111366	0	0	8170	490490	0	0
2024-08-11 11:52:47			0	39261	0	0	0	30529	29130	156781	27112	1076513	46342	111369	0	0	8170	490641	0	0
2024-08-11 11:53:47			0	39276	0	0	0	30542	29130	156753	26958	1076630	46364	111374	0	0	8171	490101	0	0
2024-08-11 11:54:47			0	39269	0	0	0	30545	29130	156709	27046	1076657	46353	111375	0	0	8170	490353	0	0
2024-08-11 11:55:47			0	39275	0	0	0	30524	29130	156793	27000	1076603	46342	111367	0	0	8171	490137	0	0
2024-08-11 11:56:47			0	39264	0	0	0	30496	29120	156629	26791	1076423	46341	111356	0	0	8171	490562	0	0
2024-08-11 11:57:47			0	39240	0	0	0	30470	29120	156993	26797	1076396	46319	111346	0	0	8170	491426	0	0
2024-08-11 11:58:47			0	39145	0	0	0	30480	29100	157193	27013	1076441	46339	111350	0	0	8164	494915	0	0
2024-08-11 11:59:47			0	39054	0	0	0	30503	29110	157549	26928	1076450	46340	111359	0	0	8159	498187	0	0
2024-08-11 12:00:47			0	39026	0	0	0	30548	29110	157701	27010	1076594	46362	111376	0	0	8156	499205	0	0
2024-08-11 12:01:47			0	39012	0	0	0	30542	29120	157729	27027	1076612	46352	111374	0	0	8156	499685	0	0
2024-08-11 12:02:47			0	38983	0	0	0	30524	29130	157893	26968	1076513	46342	111367	0	0	8154	500712	0	0
2024-08-11 12:03:47			0	38960	0	0	0	30503	29110	157977	27043	1076459	46340	111359	0	0	8153	501609	0	0
2024-08-11 12:04:47			0	38936	0	0	0	30514	29120	158057	27230	1076477	46352	111363	0	0	8152	502456	0	0
2024-08-11 12:05:47			0	38905	0	0	0	30509	29110	158197	27270	1076540	46340	111361	0	0	8150	503619	0	0
2024-08-11 12:06:47			0	38876	0	0	0	30506	29110	158245	27079	1076477	46362	111360	0	0	8148	504680	0	0
2024-08-11 12:07:47			0	38851	0	0	0	30522	29120	158301	27074	1076549	46329	111366	0	0	8147	505566	0	0
2024-08-11 12:08:47			0	38865	0	0	0	30519	29120	158421	27118	1076522	46340	111365	0	0	8148	505053	0	0
2024-08-11 12:09:47			0	38856	0	0	0	30514	29110	158401	27156	1076459	46340	111363	0	0	8147	505412	0	0
2024-08-11 12:10:47			0	38868	0	0	0	30522	29110	158389	27048	1076531	46351	111366	0	0	8148	504973	0	0
2024-08-11 12:11:47			0	38836	0	0	0	30519	29120	158349	26795	1076585	46352	111365	0	0	8146	506116	0	0
2024-08-11 12:12:47			0	38831	0	0	0	30527	29120	158321	27145	1076603	46362	111368	0	0	8145	506300	0	0
2024-08-11 12:13:47			0	38831	0	0	0	30532	29120	158341	27178	1076639	46352	111370	0	0	8145	506300	0	0
2024-08-11 12:14:47			0	38841	0	0	0	30540	29130	158365	27072	1076702	46342	111373	0	0	8146	505904	0	0
2024-08-11 12:15:47			0	38821	0	0	0	30540	29130	158329	26759	1076648	46364	111373	0	0	8145	506637	0	0
2024-08-11 12:16:47			0	38819	0	0	0	30527	29130	158417	27019	1076657	46353	111368	0	0	8145	506711	0	0
2024-08-11 12:17:47			0	38829	0	0	0	30540	29130	158461	27235	1076630	46375	111373	0	0	8145	506344	0	0
2024-08-11 12:18:47			0	38830	0	0	0	30550	29130	158377	26951	1076675	46353	111377	0	0	8145	506307	0	0
2024-08-11 12:19:47			0	38802	0	0	0	30555	29140	158385	27222	1076774	46353	111379	0	0	8143	507305	0	0
2024-08-11 12:20:47			0	38814	0	0	0	30566	29160	158381	27048	1076811	46356	111383	0	0	8144	506806	0	0
2024-08-11 12:21:47			0	38806	0	0	0	30579	29160	158369	27081	1076811	46367	111388	0	0	8143	507100	0	0
2024-08-11 12:22:47			0	38832	0	0	0	30584	29150	158345	27111	1076900	46355	111390	0	0	8145	506175	0	0
2024-08-11 12:23:47			0	38797	0	0	0	30599	29170	158381	27209	1076964	46368	111396	0	0	8143	507401	0	0
2024-08-11 12:24:47			0	38826	0	0	0	30602	29170	158353	27171	1076946	46391	111397	0	0	8144	506336	0	0
2024-08-11 12:25:47			0	38825	0	0	0	30612	29180	158357	26981	1077018	46380	111401	0	0	8144	506343	0	0
2024-08-11 12:26:47			0	38828	0	0	0	30607	29190	158389	27229	1077000	46348	111399	0	0	8144	506204	0	0
2024-08-11 12:27:47			0	38828	0	0	0	30618	29200	158385	27248	1077045	46371	111403	0	0	8144	506175	0	0
2024-08-11 12:28:47			0	38827	0	0	0	30610	29190	158369	27088	1077027	46370	111400	0	0	8144	506241	0	0
2024-08-11 12:29:47			0	38813	0	0	0	30607	29200	158393	27194	1077045	46371	111399	0	0	8143	506725	0	0
2024-08-11 12:30:47			0	38811	0	0	0	30607	29200	158337	26889	1077018	46360	111399	0	0	8143	506798	0	0
2024-08-11 12:31:47			0	38810	0	0	0	30607	29200	158381	27185	1077099	46349	111399	0	0	8143	506835	0	0
2024-08-11 12:32:47			0	38818	0	0	0	30625	29200	158433	27142	1077099	46360	111406	0	0	8143	506541	0	0
2024-08-11 12:33:47			0	38828	0	0	0	30631	29210	158385	27034	1077153	46362	111408	0	0	8144	506145	0	0
2024-08-11 12:34:47			0	38825	0	0	0	30631	29210	158329	27072	1077207	46373	111408	0	0	8144	506255	0	0
2024-08-11 12:35:47			0	38824	0	0	0	30638	29220	158397	27041	1077162	46329	111411	0	0	8144	506262	0	0
2024-08-11 12:36:47			0	38824	0	0	0	30638	29230	158333	27055	1077261	46352	111411	0	0	8144	506233	0	0
2024-08-11 12:37:47			0	38827	0	0	0	30636	29230	158357	26864	1077315	46352	111410	0	0	8144	506123	0	0
2024-08-11 12:38:47			0	38824	0	0	0	30636	29240	158309	26878	1077198	46364	111410	0	0	8144	506204	0	0
2024-08-11 12:39:47			0	38841	0	0	0	30641	29240	158241	27097	1077315	46365	111412	0	0	8145	505580	0	0
2024-08-11 12:40:47			0	38838	0	0	0	30657	29250	158293	26923	1077324	46353	111418	0	0	8144	505661	0	0
2024-08-11 12:41:47			0	38825	0	0	0	30659	29250	158357	26816	1077351	46387	111419	0	0	8144	506138	0	0
2024-08-11 12:42:47			0	38824	0	0	0	30677	29250	158193	27154	1077360	46376	111426	0	0	8143	506174	0	0
2024-08-11 12:43:47			0	38823	0	0	0	30680	29250	158321	27152	1077387	46366	111427	0	0	8143	506211	0	0
2024-08-11 12:44:47			0	38829	0	0	0	30675	29260	158245	26909	1077369	46376	111425	0	0	8144	505962	0	0
2024-08-11 12:45:47			0	38837	0	0	0	30659	29250	158201	27088	1077279	46354	111419	0	0	8144	505698	0	0
2024-08-11 12:46:47			0	38841	0	0	0	30654	29250	158177	27215	1077270	46353	111417	0	0	8145	505551	0	0
2024-08-11 12:47:47			0	38849	0	0	0	30664	29260	158153	27102	1077342	46376	111421	0	0	8145	505229	0	0
2024-08-11 12:48:47			0	38860	0	0	0	30667	29250	158193	27253	1077333	46343	111422	0	0	8145	504855	0	0
2024-08-11 12:49:47			0	38865	0	0	0	30659	29260	158185	27319	1077288	46354	111419	0	0	8146	504643	0	0
2024-08-11 12:50:47			0	38849	0	0	0	30670	29260	158213	27142	1077342	46376	111423	0	0	8145	505229	0	0
2024-08-11 12:51:47			0	38863	0	0	0	30670	29270	158125	26930	1077432	46367	111423	0	0	8146	504687	0	0
2024-08-11 12:52:47			0	38868	0	0	0	30683	29280	158233	26958	1077451	46368	111428	0	0	8146	504474	0	0
2024-08-11 12:53:47			0	38868	0	0	0	30696	29290	158201	27062	1077496	46346	111433	0	0	8146	504445	0	0
2024-08-11 12:54:47			0	38890	0	0	0	30690	29280	158241	27022	1077424	46378	111431	0	0	8147	503670	0	0
2024-08-11 12:55:47			0	38865	0	0	0	30690	29290	158121	26958	1077523	46358	111431	0	0	8145	504555	0	0
2024-08-11 12:56:47			0	38887	0	0	0	30688	29280	158013	27095	1077451	46368	111430	0	0	8147	503779	0	0
2024-08-11 12:57:47			0	38910	0	0	0	30680	29270	158057	26819	1077388	46378	111427	0	0	8148	502968	0	0
2024-08-11 12:58:47			0	38896	0	0	0	30693	29280	158109	26741	1077433	46391	111432	0	0	8147	503450	0	0
2024-08-11 12:59:47			0	38911	0	0	0	30701	29290	158041	26798	1077532	46370	111435	0	0	8148	502873	0	0
2024-08-11 13:00:47			0	38912	0	0	0	30706	29290	157961	26823	1077496	46358	111437	0	0	8148	502837	0	0
2024-08-11 13:01:47			0	38926	0	0	0	30701	29290	157929	26989	1077505	46370	111435	0	0	8149	502325	0	0
2024-08-11 13:02:47			0	38930	0	0	0	30709	29290	157793	26965	1077586	46370	111438	0	0	8149	502179	0	0
2024-08-11 13:03:47			0	38932	0	0	0	30701	29290	157901	27020	1077559	46370	111435	0	0	8149	502106	0	0
2024-08-11 13:04:47			0	38927	0	0	0	30701	29300	157729	26878	1077568	46380	111435	0	0	8149	502260	0	0
2024-08-11 13:05:47			0	38944	0	0	0	30716	29300	157789	26899	1077514	46380	111441	0	0	8150	501639	0	0
2024-08-11 13:06:47			0	38952	0	0	0	30716	29300	157765	27064	1077595	46380	111441	0	0	8150	501348	0	0
2024-08-11 13:07:47			0	38953	0	0	0	30722	29310	157781	27142	1077622	46394	111443	0	0	8150	501282	0	0
2024-08-11 13:08:47			0	38954	0	0	0	30724	29310	157825	27012	1077676	46382	111444	0	0	8150	501246	0	0
2024-08-11 13:09:47			0	38947	0	0	0	30740	29320	157781	27085	1077685	46394	111450	0	0	8149	501472	0	0
2024-08-11 13:10:47			0	38966	0	0	0	30737	29320	157697	27081	1077685	46372	111449	0	0	8151	500779	0	0
2024-08-11 13:11:47			0	38968	0	0	0	30745	29320	157625	27072	1077748	46383	111452	0	0	8150	500707	0	0
2024-08-11 13:12:47			0	38986	0	0	0	30745	29330	157713	27255	1077784	46383	111452	0	0	8152	500022	0	0
2024-08-11 13:13:47			0	39014	0	0	0	30753	29330	157637	27076	1077739	46384	111455	0	0	8153	499003	0	0
2024-08-11 13:14:47			0	39003	0	0	0	30753	29330	157541	26844	1077757	46383	111455	0	0	8152	499403	0	0
2024-08-11 13:15:47			0	39010	0	0	0	30753	29340	157413	26909	1077748	46363	111455	0	0	8153	499120	0	0
2024-08-11 13:16:47			0	39011	0	0	0	30755	29340	157437	26793	1077775	46363	111456	0	0	8153	499083	0	0
2024-08-11 13:17:47			0	39035	0	0	0	30742	29350	157453	26974	1077793	46385	111451	0	0	8154	498182	0	0
2024-08-11 13:18:47			0	39027	0	0	0	30740	29330	157421	27066	1077793	46384	111450	0	0	8154	498531	0	0
2024-08-11 13:19:47			0	39020	0	0	0	30750	29340	157249	27034	1077757	46385	111454	0	0	8153	498756	0	0
2024-08-11 13:20:47			0	39053	0	0	0	30758	29340	157265	26975	1077829	46375	111457	0	0	8155	497558	0	0
2024-08-11 13:21:47			0	39051	0	0	0	30748	29340	157209	27013	1077784	46385	111453	0	0	8155	497631	0	0
2024-08-11 13:22:47			0	39071	0	0	0	30755	29340	157177	27041	1077784	46375	111456	0	0	8156	496905	0	0
2024-08-11 13:23:47			0	39074	0	0	0	30753	29360	157201	27048	1077812	46376	111455	0	0	8157	496738	0	0
2024-08-11 13:24:47			0	39087	0	0	0	30742	29350	157233	27301	1077830	46364	111451	0	0	8157	496296	0	0
2024-08-11 13:25:47			0	39081	0	0	0	30745	29340	157245	26859	1077757	46375	111452	0	0	8157	496542	0	0
2024-08-11 13:26:47			0	39073	0	0	0	30750	29350	157245	27208	1077856	46364	111454	0	0	8156	496803	0	0
2024-08-11 13:27:47			0	39087	0	0	0	30755	29350	157157	27189	1077856	46375	111456	0	0	8157	496296	0	0
2024-08-11 13:28:47			0	39090	0	0	0	30750	29360	157181	27124	1077893	46376	111454	0	0	8158	496158	0	0
2024-08-11 13:29:47			0	39098	0	0	0	30768	29350	157153	26811	1077883	46398	111461	0	0	8158	495898	0	0
2024-08-11 13:30:47			0	39114	0	0	0	30771	29360	157057	26923	1077929	46387	111462	0	0	8159	495290	0	0
2024-08-11 13:31:47			0	39111	0	0	0	30781	29360	156997	26991	1077929	46376	111466	0	0	8158	495398	0	0
2024-08-11 13:32:47			0	39124	0	0	0	30786	29380	157061	27104	1077956	46401	111468	0	0	8159	494870	0	0
2024-08-11 13:33:47			0	39138	0	0	0	30797	29380	156961	27029	1078064	46401	111472	0	0	8160	494364	0	0
2024-08-11 13:34:47			0	39156	0	0	0	30799	29380	156905	26779	1078073	46389	111473	0	0	8161	493713	0	0
2024-08-11 13:35:47			0	39158	0	0	0	30805	29390	156933	26696	1078145	46379	111475	0	0	8161	493612	0	0
2024-08-11 13:36:47			0	39170	0	0	0	30828	29400	156773	26757	1078208	46403	111484	0	0	8161	493151	0	0
2024-08-11 13:37:47			0	39180	0	0	0	30841	29400	156793	26826	1078181	46403	111489	0	0	8161	492790	0	0
2024-08-11 13:38:47			0	39188	0	0	0	30851	29410	156801	26765	1078316	46392	111493	0	0	8162	492472	0	0
2024-08-11 13:39:47			0	39210	0	0	0	30862	29430	156665	26750	1078344	46383	111497	0	0	8163	491622	0	0
2024-08-11 13:40:47			0	39218	0	0	0	30867	29430	156657	27007	1078407	46394	111499	0	0	8163	491334	0	0
2024-08-11 13:41:47			0	39252	0	0	0	30870	29430	156569	26847	1078317	46394	111500	0	0	8165	490110	0	0
2024-08-11 13:42:47			0	39259	0	0	0	30877	29440	156517	26909	1078470	46407	111503	0	0	8165	489830	0	0
2024-08-11 13:43:47			0	39270	0	0	0	30883	29440	156417	26920	1078497	46384	111505	0	0	8166	489435	0	0
2024-08-11 13:44:47			0	39285	0	0	0	30893	29450	156393	27138	1078542	46396	111509	0	0	8167	488867	0	0
2024-08-11 13:45:47			0	39272	0	0	0	30906	29460	156409	27144	1078614	46409	111514	0	0	8166	489306	0	0
2024-08-11 13:46:47			0	39309	0	0	0	30903	29470	156325	27246	1078668	46399	111513	0	0	8168	487949	0	0
2024-08-11 13:47:47			0	39307	0	0	0	30909	29480	156281	26816	1078650	46399	111515	0	0	8168	487993	0	0
2024-08-11 13:48:47			0	39303	0	0	0	30906	29480	156277	26939	1078660	46400	111514	0	0	8167	488136	0	0
2024-08-11 13:49:47			0	39332	0	0	0	30922	29490	156237	27008	1078732	46401	111520	0	0	8169	487068	0	0
2024-08-11 13:50:47			0	39306	0	0	0	30929	29500	156109	26993	1078741	46413	111523	0	0	8167	487972	0	0
2024-08-11 13:51:47			0	39332	0	0	0	30924	29500	156173	26781	1078687	46390	111521	0	0	8169	487040	0	0
2024-08-11 13:52:47			0	39327	0	0	0	30929	29500	156173	27119	1078777	46402	111523	0	0	8169	487219	0	0
2024-08-11 13:53:47			0	39321	0	0	0	30935	29510	156209	27183	1078813	46392	111525	0	0	8168	487406	0	0
2024-08-11 13:54:47			0	39338	0	0	0	30932	29510	156125	27131	1078759	46415	111524	0	0	8169	486797	0	0
2024-08-11 13:55:47			0	39338	0	0	0	30940	29530	156145	26956	1078795	46394	111527	0	0	8169	486740	0	0
2024-08-11 13:56:47			0	39341	0	0	0	30940	29530	156081	26968	1078795	46405	111527	0	0	8169	486632	0	0
2024-08-11 13:57:47			0	39336	0	0	0	30945	29530	156177	26691	1078885	46406	111529	0	0	8169	486812	0	0
2024-08-11 13:58:47			0	39332	0	0	0	30948	29550	156105	27327	1078904	46395	111530	0	0	8169	486898	0	0
2024-08-11 13:59:47			0	39349	0	0	0	30950	29550	156061	27152	1078904	46383	111531	0	0	8170	486289	0	0
2024-08-11 14:00:47			0	39338	0	0	0	30945	29550	156129	26776	1078877	46395	111529	0	0	8169	486683	0	0
2024-08-11 14:01:47			0	39350	0	0	0	30940	29550	156129	27029	1078913	46384	111527	0	0	8170	486254	0	0
2024-08-11 14:02:47			0	39350	0	0	0	30940	29540	156057	26802	1078813	46383	111527	0	0	8170	486282	0	0
2024-08-11 14:03:47			0	39371	0	0	0	30940	29540	156077	27119	1078867	46406	111527	0	0	8171	485531	0	0
2024-08-11 14:04:47			0	39378	0	0	0	30935	29530	155945	27007	1078912	46395	111525	0	0	8171	485309	0	0
2024-08-11 14:05:47			0	39363	0	0	0	30935	29530	155921	26996	1078831	46383	111525	0	0	8171	485845	0	0
2024-08-11 14:06:47			0	39367	0	0	0	30932	29540	155901	26991	1078867	46395	111524	0	0	8171	485674	0	0
2024-08-11 14:07:47			0	39368	0	0	0	30937	29540	155981	27008	1078867	46383	111526	0	0	8171	485638	0	0
2024-08-11 14:08:47			0	39374	0	0	0	30935	29540	155881	27104	1078840	46395	111525	0	0	8171	485423	0	0
2024-08-11 14:09:47			0	39381	0	0	0	30961	29550	155961	26883	1078994	46418	111535	0	0	8171	485145	0	0
2024-08-11 14:10:47			0	39381	0	0	0	30963	29550	155893	27135	1079021	46407	111536	0	0	8171	485145	0	0
2024-08-11 14:11:47			0	39398	0	0	0	30963	29560	155837	26923	1078985	46397	111536	0	0	8172	484509	0	0
2024-08-11 14:12:47			0	39375	0	0	0	30953	29550	155861	27235	1078913	46384	111532	0	0	8171	485359	0	0
2024-08-11 14:13:47			0	39383	0	0	0	30932	29550	155957	27095	1078832	46374	111524	0	0	8172	485074	0	0
2024-08-11 14:14:47			0	39418	0	0	0	30916	29530	155922	27222	1078831	46373	111518	0	0	8174	483880	0	0
2024-08-11 14:15:47			0	39409	0	0	0	30896	29540	155817	26856	1078732	46383	111510	0	0	8174	484173	0	0
2024-08-11 14:16:47			0	39430	0	0	0	30885	29520	155838	27218	1078534	46370	111506	0	0	8175	483480	0	0
2024-08-11 14:17:47			0	39441	0	0	0	30864	29500	155774	27083	1078561	46357	111498	0	0	8176	483144	0	0
2024-08-11 14:18:47			0	39457	0	0	0	30857	29490	155666	27124	1078462	46356	111495	0	0	8177	482602	0	0
2024-08-11 14:19:47			0	39444	0	0	0	30841	29480	155698	27204	1078390	46355	111489	0	0	8177	483093	0	0
2024-08-11 14:20:47			0	39465	0	0	0	30841	29480	155686	27265	1078461	46376	111489	0	0	8178	482345	0	0
2024-08-11 14:21:47			0	39425	0	0	0	30862	29480	155794	27086	1078596	46388	111497	0	0	8175	483771	0	0
2024-08-11 14:22:47			0	39411	0	0	0	30875	29480	155893	26812	1078633	46400	111502	0	0	8174	484271	0	0
2024-08-11 14:23:47			0	39393	0	0	0	30883	29500	155925	27045	1078795	46401	111505	0	0	8173	484857	0	0
2024-08-11 14:24:47			0	39381	0	0	0	30911	29500	156065	27083	1078750	46402	111516	0	0	8172	485286	0	0
2024-08-11 14:25:47			0	39360	0	0	0	30924	29510	156081	26994	1078876	46415	111521	0	0	8171	486009	0	0
2024-08-11 14:26:47			0	39367	0	0	0	30958	29530	156073	27109	1079020	46417	111534	0	0	8170	485702	0	0
2024-08-11 14:27:47			0	39347	0	0	0	30994	29560	156101	26847	1079300	46441	111548	0	0	8169	486333	0	0
2024-08-11 14:28:47			0	39349	0	0	0	31023	29590	156137	26913	1079300	46432	111559	0	0	8169	486176	0	0
2024-08-11 14:29:47			0	39354	0	0	0	31044	29600	155973	27145	1079435	46435	111567	0	0	8169	485969	0	0
2024-08-11 14:30:47			0	39385	0	0	0	31070	29620	155925	27228	1079516	46447	111577	0	0	8170	484804	0	0
2024-08-11 14:31:47			0	39389	0	0	0	31103	29630	155745	27258	1079589	46426	111590	0	0	8170	484633	0	0
2024-08-11 14:32:47			0	39444	0	0	0	31111	29650	155610	27057	1079625	46416	111593	0	0	8173	482615	0	0
2024-08-11 14:33:47			0	39486	0	0	0	31106	29660	155490	27052	1079589	46428	111591	0	0	8175	481092	0	0
2024-08-11 14:34:47			0	39524	0	0	0	31111	29670	155330	26852	1079634	46419	111593	0	0	8177	479714	0	0
2024-08-11 14:35:47			0	39565	0	0	0	31111	29670	155158	26887	1079715	46419	111593	0	0	8180	478260	0	0
2024-08-11 14:36:47			0	39571	0	0	0	31109	29680	155074	27093	1079680	46431	111592	0	0	8180	478020	0	0
2024-08-11 14:37:47			0	39595	0	0	0	31096	29680	155066	27095	1079635	46410	111587	0	0	8182	477170	0	0
2024-08-11 14:38:47			0	39600	0	0	0	31093	29690	154994	27111	1079761	46421	111586	0	0	8182	476965	0	0
2024-08-11 14:39:47			0	39619	0	0	0	31098	29690	154826	27093	1079779	46399	111588	0	0	8183	476293	0	0
2024-08-11 14:40:47			0	39640	0	0	0	31122	29690	154890	27027	1079842	46421	111597	0	0	8184	475551	0	0
2024-08-11 14:41:47			0	39620	0	0	0	31148	29710	154870	27012	1079950	46435	111607	0	0	8182	476202	0	0
2024-08-11 14:42:47			0	39615	0	0	0	31173	29720	154850	26951	1080085	46424	111617	0	0	8182	476351	0	0
2024-08-11 14:43:47			0	39597	0	0	0	31199	29740	155026	27128	1080176	46437	111627	0	0	8180	476932	0	0
2024-08-11 14:44:47			0	39602	0	0	0	31212	29750	154970	27060	1080248	46439	111632	0	0	8180	476727	0	0
2024-08-11 14:45:47			0	39592	0	0	0	31225	29760	154962	27355	1080320	46439	111637	0	0	8180	477053	0	0
2024-08-11 14:46:47			0	39593	0	0	0	31236	29770	154958	26871	1080338	46441	111641	0	0	8180	476990	0	0
2024-08-11 14:47:47			0	39607	0	0	0	31236	29790	154902	27201	1080429	46432	111641	0	0	8180	476440	0	0
2024-08-11 14:48:47			0	39619	0	0	0	31244	29790	154902	27362	1080402	46421	111644	0	0	8181	476016	0	0
2024-08-11 14:49:47			0	39626	0	0	0	31249	29800	154818	27211	1080474	46422	111646	0	0	8181	475740	0	0
2024-08-11 14:50:47			0	39644	0	0	0	31262	29810	154770	27081	1080573	46434	111651	0	0	8182	475077	0	0
2024-08-11 14:51:47			0	39635	0	0	0	31259	29810	154722	27339	1080573	46445	111650	0	0	8182	475395	0	0
2024-08-11 14:52:47			0	39627	0	0	0	31270	29820	154746	27185	1080591	46435	111654	0	0	8181	475650	0	0
2024-08-11 14:53:47			0	39666	0	0	0	31272	29830	154726	26958	1080573	46435	111655	0	0	8183	474246	0	0
2024-08-11 14:54:47			0	39655	0	0	0	31264	29840	154718	27178	1080564	46415	111652	0	0	8183	474606	0	0
2024-08-11 14:55:47			0	39655	0	0	0	31267	29830	154670	27327	1080636	46436	111653	0	0	8183	474634	0	0
2024-08-11 14:56:47			0	39650	0	0	0	31264	29850	154734	27282	1080681	46404	111652	0	0	8183	474755	0	0
2024-08-11 14:57:47			0	39641	0	0	0	31262	29850	154618	27294	1080636	46427	111651	0	0	8182	475072	0	0
2024-08-11 14:58:47			0	39656	0	0	0	31257	29840	154698	27246	1080645	46426	111649	0	0	8183	474571	0	0
2024-08-11 14:59:47			0	39658	0	0	0	31249	29850	154578	27227	1080492	46404	111646	0	0	8183	474473	0	0
2024-08-11 15:00:47			0	39668	0	0	0	31238	29850	154590	27086	1080519	46415	111642	0	0	8184	474120	0	0
2024-08-11 15:01:47			0	39664	0	0	0	31241	29850	154478	27440	1080519	46404	111643	0	0	8184	474261	0	0
2024-08-11 15:02:47			0	39695	0	0	0	31236	29850	154566	26972	1080546	46415	111641	0	0	8186	473169	0	0
2024-08-11 15:03:47			0	39686	0	0	0	31241	29850	154402	27187	1080519	46404	111643	0	0	8185	473486	0	0
2024-08-11 15:04:47			0	39681	0	0	0	31228	29840	154566	27400	1080564	46426	111638	0	0	8185	473690	0	0
2024-08-11 15:05:47			0	39663	0	0	0	31225	29840	154534	27116	1080537	46415	111637	0	0	8184	474324	0	0
2024-08-11 15:06:47			0	39675	0	0	0	31228	29830	154582	27170	1080465	46424	111638	0	0	8185	473929	0	0
2024-08-11 15:07:47			0	39642	0	0	0	31218	29850	154614	27055	1080519	46415	111634	0	0	8183	475037	0	0
2024-08-11 15:08:47			0	39621	0	0	0	31223	29830	154714	27052	1080447	46414	111636	0	0	8182	475834	0	0
2024-08-11 15:09:47			0	39605	0	0	0	31215	29830	154770	27118	1080438	46402	111633	0	0	8181	476399	0	0
2024-08-11 15:10:47			0	39583	0	0	0	31212	29830	154886	27138	1080438	46402	111632	0	0	8180	477177	0	0
2024-08-11 15:11:47			0	39567	0	0	0	31215	29830	154930	27133	1080465	46402	111633	0	0	8179	477743	0	0
2024-08-11 15:12:47			0	39538	0	0	0	31212	29830	155050	26918	1080528	46403	111632	0	0	8177	478771	0	0
2024-08-11 15:13:47			0	39500	0	0	0	31212	29830	155142	26963	1080465	46424	111632	0	0	8175	480119	0	0
2024-08-11 15:14:47			0	39476	0	0	0	31236	29820	155258	27326	1080483	46413	111641	0	0	8173	480999	0	0
2024-08-11 15:15:47			0	39432	0	0	0	31228	29820	155310	26993	1080537	46424	111638	0	0	8171	482565	0	0
2024-08-11 15:16:47			0	39421	0	0	0	31228	29830	155406	27088	1080546	46413	111638	0	0	8170	482928	0	0
2024-08-11 15:17:47			0	39399	0	0	0	31238	29850	155597	27142	1080600	46437	111642	0	0	8169	483656	0	0
2024-08-11 15:18:47			0	39381	0	0	0	31238	29850	155681	27109	1080546	46415	111642	0	0	8168	484298	0	0
2024-08-11 15:19:47			0	39367	0	0	0	31244	29830	155661	27249	1080555	46425	111644	0	0	8167	484854	0	0
2024-08-11 15:20:47			0	39355	0	0	0	31241	29840	155693	27296	1080591	46437	111643	0	0	8166	485254	0	0
2024-08-11 15:21:47			0	39333	0	0	0	31241	29850	155889	26937	1080663	46416	111643	0	0	8165	486012	0	0
2024-08-11 15:22:47			0	39324	0	0	0	31246	29860	155845	27039	1080646	46438	111645	0	0	8165	486306	0	0
2024-08-11 15:23:47			0	39319	0	0	0	31254	29850	155809	26963	1080691	46416	111648	0	0	8164	486513	0	0
2024-08-11 15:24:47			0	39335	0	0	0	31244	29850	155857	27171	1080663	46438	111644	0	0	8165	485941	0	0
2024-08-11 15:25:47			0	39322	0	0	0	31257	29850	155825	27161	1080681	46448	111649	0	0	8164	486406	0	0
2024-08-11 15:26:47			0	39336	0	0	0	31262	29850	155745	27287	1080636	46449	111651	0	0	8165	485905	0	0
2024-08-11 15:27:47			0	39349	0	0	0	31267	29850	155757	27062	1080718	46438	111653	0	0	8166	485440	0	0
2024-08-11 15:28:47			0	39369	0	0	0	31270	29860	155769	26930	1080700	46438	111654	0	0	8167	484698	0	0
2024-08-11 15:29:47			0	39363	0	0	0	31283	29870	155613	26889	1080862	46440	111659	0	0	8166	484884	0	0
2024-08-11 15:30:47			0	39354	0	0	0	31293	29880	155633	27078	1080844	46451	111663	0	0	8166	485177	0	0
2024-08-11 15:31:47			0	39366	0	0	0	31306	29900	155573	26902	1080989	46453	111668	0	0	8166	484692	0	0
2024-08-11 15:32:47			0	39376	0	0	0	31316	29890	155705	26880	1081034	46464	111672	0	0	8167	484363	0	0
2024-08-11 15:33:47			0	39362	0	0	0	31327	29900	155525	27024	1080971	46454	111676	0	0	8166	484835	0	0
2024-08-11 15:34:47			0	39394	0	0	0	31322	29910	155477	27060	1081016	46433	111674	0	0	8168	483665	0	0
2024-08-11 15:35:47			0	39418	0	0	0	31324	29910	155429	26958	1081007	46420	111675	0	0	8169	482810	0	0
2024-08-11 15:36:47			0	39437	0	0	0	31316	29920	155318	26752	1081052	46434	111672	0	0	8170	482105	0	0
2024-08-11 15:37:47			0	39485	0	0	0	31322	29910	155122	26807	1081061	46443	111674	0	0	8173	480427	0	0
2024-08-11 15:38:47			0	39502	0	0	0	31327	29920	155082	27013	1081079	46445	111676	0	0	8174	479796	0	0
2024-08-11 15:39:47			0	39532	0	0	0	31327	29920	155050	27142	1081115	46434	111676	0	0	8175	478732	0	0
2024-08-11 15:40:47			0	39554	0	0	0	31340	29940	154926	26923	1081115	46447	111681	0	0	8176	477897	0	0
2024-08-11 15:41:47			0	39544	0	0	0	31332	29930	154754	26824	1081097	46445	111678	0	0	8176	478279	0	0
2024-08-11 15:42:47			0	39570	0	0	0	31340	29950	154754	27043	1081133	46436	111681	0	0	8177	477303	0	0
2024-08-11 15:43:47			0	39561	0	0	0	31345	29930	154846	26668	1081187	46435	111683	0	0	8177	477677	0	0
2024-08-11 15:44:47			0	39590	0	0	0	31355	29940	154706	26996	1081169	46447	111687	0	0	8178	476624	0	0
2024-08-11 15:45:47			0	39572	0	0	0	31361	29960	154682	26972	1081260	46459	111689	0	0	8177	477205	0	0
2024-08-11 15:46:47			0	39571	0	0	0	31368	29950	154774	26767	1081296	46458	111692	0	0	8177	477268	0	0
2024-08-11 15:47:47			0	39585	0	0	0	31386	29960	154694	27059	1081368	46459	111699	0	0	8177	476745	0	0
2024-08-11 15:48:47			0	39566	0	0	0	31389	29980	154690	27138	1081350	46439	111700	0	0	8176	477361	0	0
2024-08-11 15:49:47			0	39603	0	0	0	31392	29970	154610	26852	1081341	46450	111701	0	0	8178	476081	0	0
2024-08-11 15:50:47			0	39603	0	0	0	31381	29980	154598	27048	1081305	46440	111697	0	0	8179	476053	0	0
2024-08-11 15:51:47			0	39661	0	0	0	31361	29970	154502	26968	1081197	46427	111689	0	0	8182	474035	0	0
2024-08-11 15:52:47			0	39679	0	0	0	31355	29960	154318	26701	1081242	46426	111687	0	0	8183	473429	0	0
2024-08-11 15:53:47			0	39728	0	0	0	31342	29960	154142	26975	1081107	46404	111682	0	0	8186	471705	0	0
2024-08-11 15:54:47			0	39791	0	0	0	31337	29960	153954	26850	1081098	46426	111680	0	0	8190	469494	0	0
2024-08-11 15:55:47			0	39857	0	0	0	31337	29960	153754	27097	1081188	46416	111680	0	0	8194	467185	0	0
2024-08-11 15:56:47			0	39886	0	0	0	31348	29950	153694	26627	1081214	46436	111684	0	0	8195	466199	0	0
2024-08-11 15:57:47			0	39928	0	0	0	31348	29960	153490	26715	1081179	46426	111684	0	0	8198	464707	0	0
2024-08-11 15:58:47			0	39951	0	0	0	31358	29960	153382	26712	1081233	46459	111688	0	0	8199	463906	0	0
2024-08-11 15:59:47			0	39959	0	0	0	31348	29960	153390	26585	1081296	46449	111684	0	0	8199	463628	0	0
2024-08-11 16:00:47			0	39959	0	0	0	31345	29950	153378	27216	1081197	46448	111683	0	0	8199	463655	0	0
2024-08-11 16:01:47			0	39979	0	0	0	31337	29970	153238	26823	1081170	46427	111680	0	0	8201	462905	0	0
2024-08-11 16:02:47			0	39950	0	0	0	31340	29960	153346	26654	1081287	46426	111681	0	0	8199	463941	0	0
2024-08-11 16:03:47			0	39979	0	0	0	31350	29960	153338	26691	1081107	46459	111685	0	0	8200	462932	0	0
2024-08-11 16:04:47			0	39963	0	0	0	31350	29960	153410	26719	1081269	46426	111685	0	0	8199	463488	0	0
2024-08-11 16:05:47			0	39980	0	0	0	31361	29970	153302	26887	1081305	46450	111689	0	0	8200	462870	0	0
2024-08-11 16:06:47			0	39965	0	0	0	31355	29970	153394	26967	1081278	46427	111687	0	0	8200	463392	0	0
2024-08-11 16:07:47			0	39946	0	0	0	31355	29970	153362	27183	1081224	46438	111687	0	0	8198	464053	0	0
2024-08-11 16:08:47			0	39958	0	0	0	31358	29970	153426	26883	1081260	46450	111688	0	0	8199	463636	0	0
2024-08-11 16:09:47			0	39941	0	0	0	31350	29960	153318	27001	1081269	46437	111685	0	0	8198	464254	0	0
2024-08-11 16:10:47			0	39939	0	0	0	31353	29970	153418	26875	1081260	46427	111686	0	0	8198	464297	0	0
2024-08-11 16:11:47			0	39931	0	0	0	31371	29970	153350	26987	1081341	46450	111693	0	0	8197	464576	0	0
2024-08-11 16:12:47			0	39933	0	0	0	31379	29990	153430	26887	1081431	46462	111696	0	0	8197	464452	0	0
2024-08-11 16:13:47			0	39937	0	0	0	31389	29990	153378	27062	1081422	46462	111700	0	0	8197	464312	0	0
2024-08-11 16:14:47			0	39938	0	0	0	31389	29980	153402	26885	1081413	46452	111700	0	0	8197	464305	0	0
2024-08-11 16:15:47			0	39963	0	0	0	31402	30000	153222	26838	1081476	46464	111705	0	0	8199	463380	0	0
2024-08-11 16:16:47			0	39942	0	0	0	31399	30010	153270	26878	1081567	46454	111704	0	0	8198	464084	0	0
2024-08-11 16:17:47			0	39961	0	0	0	31399	30010	153222	27072	1081540	46454	111704	0	0	8199	463423	0	0
2024-08-11 16:18:47			0	39990	0	0	0	31407	30000	153254	27020	1081476	46464	111707	0	0	8200	462442	0	0
2024-08-11 16:19:47			0	39955	0	0	0	31405	30020	153206	26804	1081531	46465	111706	0	0	8198	463605	0	0
2024-08-11 16:20:47			0	39984	0	0	0	31394	30010	153158	26776	1081522	46442	111702	0	0	8200	462623	0	0
2024-08-11 16:21:47			0	39976	0	0	0	31376	30000	153114	27012	1081413	46419	111695	0	0	8200	462928	0	0
2024-08-11 16:22:47			0	39985	0	0	0	31366	30010	153186	26656	1081431	46431	111691	0	0	8201	462588	0	0
2024-08-11 16:23:47			0	39995	0	0	0	31368	29990	152986	26618	1081323	46429	111692	0	0	8201	462295	0	0
2024-08-11 16:24:47			0	40019	0	0	0	31366	30000	152994	26850	1081476	46454	111691	0	0	8203	461435	0	0
2024-08-11 16:25:47			0	40027	0	0	0	31368	30000	153034	26757	1081440	46419	111692	0	0	8203	461157	0	0
2024-08-11 16:26:47			0	40048	0	0	0	31373	30000	152926	26639	1081476	46454	111694	0	0	8204	460429	0	0
2024-08-11 16:27:47			0	40065	0	0	0	31389	30000	152858	26816	1081467	46453	111700	0	0	8205	459840	0	0
2024-08-11 16:28:47			0	40070	0	0	0	31402	30000	152950	26691	1081476	46442	111705	0	0	8205	459667	0	0
2024-08-11 16:29:47			0	40079	0	0	0	31402	30010	152814	26942	1081513	46442	111705	0	0	8205	459328	0	0
2024-08-11 16:30:47			0	40085	0	0	0	31410	30020	152786	26765	1081639	46443	111708	0	0	8206	459094	0	0
2024-08-11 16:31:47			0	40073	0	0	0	31420	30020	152806	26961	1081585	46455	111712	0	0	8205	459509	0	0
2024-08-11 16:32:47			0	40079	0	0	0	31423	30020	152770	27000	1081675	46456	111713	0	0	8205	459302	0	0
2024-08-11 16:33:47			0	40070	0	0	0	31433	30030	152786	26776	1081738	46444	111717	0	0	8204	459586	0	0
2024-08-11 16:34:47			0	40054	0	0	0	31449	30040	152850	26622	1081729	46479	111723	0	0	8203	460114	0	0
2024-08-11 16:35:47			0	40058	0	0	0	31454	30030	152946	27052	1081720	46445	111725	0	0	8203	460002	0	0
2024-08-11 16:36:47			0	40056	0	0	0	31470	30040	152842	26890	1081793	46468	111731	0	0	8203	460044	0	0
2024-08-11 16:37:47			0	40078	0	0	0	31470	30050	152850	27090	1081856	46481	111731	0	0	8204	459256	0	0
2024-08-11 16:38:47			0	40075	0	0	0	31480	30060	152774	26734	1081874	46469	111735	0	0	8204	459333	0	0
2024-08-11 16:39:47			0	40073	0	0	0	31485	30070	152746	26878	1081928	46460	111737	0	0	8204	459375	0	0
2024-08-11 16:40:47			0	40089	0	0	0	31488	30070	152738	26911	1081983	46460	111738	0	0	8205	458821	0	0
2024-08-11 16:41:47			0	40100	0	0	0	31496	30070	152667	26937	1082037	46483	111741	0	0	8205	458441	0	0
2024-08-11 16:42:47			0	40109	0	0	0	31501	30080	152707	26646	1082019	46460	111743	0	0	8206	458103	0	0
2024-08-11 16:43:47			0	40119	0	0	0	31496	30080	152635	26850	1081947	46472	111741	0	0	8206	457758	0	0
2024-08-11 16:44:47			0	40101	0	0	0	31501	30090	152671	26618	1082046	46462	111743	0	0	8205	458353	0	0
2024-08-11 16:45:47			0	40110	0	0	0	31493	30090	152655	26963	1082037	46473	111740	0	0	8206	458042	0	0
2024-08-11 16:46:47			0	40144	0	0	0	31496	30090	152611	27204	1082046	46440	111741	0	0	8208	456868	0	0
2024-08-11 16:47:47			0	40108	0	0	0	31485	30090	152635	27118	1081992	46451	111737	0	0	8206	458111	0	0
2024-08-11 16:48:47			0	40114	0	0	0	31470	30090	152687	27175	1081938	46451	111731	0	0	8207	457904	0	0
2024-08-11 16:49:47			0	40098	0	0	0	31470	30090	152686	26807	1082037	46440	111731	0	0	8206	458457	0	0
2024-08-11 16:50:47			0	40081	0	0	0	31475	30080	152710	26805	1081974	46439	111733	0	0	8205	459071	0	0
2024-08-11 16:51:47			0	40066	0	0	0	31472	30090	152858	26731	1081965	46451	111732	0	0	8204	459564	0	0
2024-08-11 16:52:47			0	40049	0	0	0	31480	30090	152850	26854	1081929	46451	111735	0	0	8203	460152	0	0
2024-08-11 16:53:47			0	40052	0	0	0	31457	30090	152934	27060	1081902	46451	111726	0	0	8203	460049	0	0
2024-08-11 16:54:47			0	40047	0	0	0	31470	30090	152906	27147	1081956	46451	111731	0	0	8203	460222	0	0
2024-08-11 16:55:47			0	40050	0	0	0	31480	30080	152974	26795	1082001	46461	111735	0	0	8203	460145	0	0
2024-08-11 16:56:47			0	40034	0	0	0	31483	30090	153054	26928	1082064	46451	111736	0	0	8202	460672	0	0
2024-08-11 16:57:47			0	40003	0	0	0	31493	30090	153102	27088	1082064	46462	111740	0	0	8200	461748	0	0
2024-08-11 16:58:47			0	40007	0	0	0	31493	30090	153082	26897	1082037	46451	111740	0	0	8200	461609	0	0
2024-08-11 16:59:47			0	39963	0	0	0	31490	30100	153058	27112	1082064	46452	111739	0	0	8198	463110	0	0
2024-08-11 17:00:47			0	39957	0	0	0	31496	30110	153182	26807	1082046	46464	111741	0	0	8197	463292	0	0
2024-08-11 17:01:47			0	39981	0	0	0	31490	30100	153170	26896	1082082	46451	111739	0	0	8199	462484	0	0
2024-08-11 17:02:47			0	39969	0	0	0	31503	30110	153098	27020	1082127	46464	111744	0	0	8198	462874	0	0
2024-08-11 17:03:47			0	39968	0	0	0	31501	30110	153202	27168	1082073	46464	111743	0	0	8198	462909	0	0
2024-08-11 17:04:47			0	39952	0	0	0	31498	30120	153134	26949	1082091	46465	111742	0	0	8197	463438	0	0
2024-08-11 17:05:47			0	39945	0	0	0	31496	30110	153198	26791	1082163	46465	111741	0	0	8197	463709	0	0
2024-08-11 17:06:47			0	39950	0	0	0	31503	30120	153210	26949	1082091	46465	111744	0	0	8197	463508	0	0
2024-08-11 17:07:47			0	39933	0	0	0	31503	30130	153218	26968	1082181	46465	111744	0	0	8196	464072	0	0
2024-08-11 17:08:47			0	39924	0	0	0	31522	30120	153366	27119	1082145	46454	111751	0	0	8195	464413	0	0
2024-08-11 17:09:47			0	39930	0	0	0	31511	30120	153238	27036	1082172	46465	111747	0	0	8196	464204	0	0
2024-08-11 17:10:47			0	39920	0	0	0	31516	30120	153286	27026	1082172	46465	111749	0	0	8195	464552	0	0
2024-08-11 17:11:47			0	39910	0	0	0	31522	30130	153310	27069	1082272	46455	111751	0	0	8194	464873	0	0
2024-08-11 17:12:47			0	39919	0	0	0	31529	30130	153390	27109	1082317	46465	111754	0	0	8195	464560	0	0
2024-08-11 17:13:47			0	39897	0	0	0	31535	30140	153410	26866	1082254	46456	111756	0	0	8193	465299	0	0
2024-08-11 17:14:47			0	39895	0	0	0	31550	30130	153434	27076	1082326	46466	111762	0	0	8193	465396	0	0
2024-08-11 17:15:47			0	39894	0	0	0	31558	30150	153470	27074	1082353	46478	111765	0	0	8193	465376	0	0
2024-08-11 17:16:47			0	39890	0	0	0	31553	30150	153346	27308	1082353	46467	111763	0	0	8193	465516	0	0
2024-08-11 17:17:47			0	39884	0	0	0	31563	30150	153394	27138	1082380	46467	111767	0	0	8192	465725	0	0
2024-08-11 17:18:47			0	39894	0	0	0	31566	30160	153398	26977	1082317	46469	111768	0	0	8193	465349	0	0
2024-08-11 17:19:47			0	39899	0	0	0	31568	30150	153366	26932	1082416	46468	111769	0	0	8193	465202	0	0
2024-08-11 17:20:47			0	39896	0	0	0	31568	30160	153338	27066	1082435	46469	111769	0	0	8193	465279	0	0
2024-08-11 17:21:47			0	39892	0	0	0	31571	30160	153350	26922	1082381	46469	111770	0	0	8193	465419	0	0
2024-08-11 17:22:47			0	39886	0	0	0	31574	30160	153338	26996	1082408	46469	111771	0	0	8192	465628	0	0
2024-08-11 17:23:47			0	39875	0	0	0	31576	30160	153338	26847	1082435	46447	111772	0	0	8192	466012	0	0
2024-08-11 17:24:47			0	39877	0	0	0	31586	30180	153418	26615	1082543	46471	111776	0	0	8192	465887	0	0
2024-08-11 17:25:47			0	39881	0	0	0	31592	30170	153366	26719	1082507	46470	111778	0	0	8192	465775	0	0
2024-08-11 17:26:47			0	39880	0	0	0	31589	30180	153438	26882	1082516	46471	111777	0	0	8192	465783	0	0
2024-08-11 17:27:47			0	39875	0	0	0	31597	30180	153334	26928	1082570	46471	111780	0	0	8191	465957	0	0
2024-08-11 17:28:47			0	39851	0	0	0	31592	30180	153338	26826	1082462	46471	111778	0	0	8190	466795	0	0
2024-08-11 17:29:47			0	39872	0	0	0	31594	30190	153358	26899	1082507	46472	111779	0	0	8191	466035	0	0
2024-08-11 17:30:47			0	39850	0	0	0	31586	30180	153454	26861	1082498	46460	111776	0	0	8190	466830	0	0
2024-08-11 17:31:47			0	39840	0	0	0	31589	30180	153478	27015	1082525	46460	111777	0	0	8189	467179	0	0
2024-08-11 17:32:47			0	39851	0	0	0	31579	30190	153450	27053	1082489	46460	111773	0	0	8190	466767	0	0
2024-08-11 17:33:47			0	39824	0	0	0	31566	30180	153442	26996	1082435	46459	111768	0	0	8189	467738	0	0
2024-08-11 17:34:47			0	39823	0	0	0	31563	30170	153474	26894	1082363	46469	111767	0	0	8189	467800	0	0
2024-08-11 17:35:47			0	39835	0	0	0	31561	30160	153466	26844	1082344	46469	111766	0	0	8190	467408	0	0
2024-08-11 17:36:47			0	39821	0	0	0	31561	30180	153498	27079	1082327	46449	111766	0	0	8189	467843	0	0
2024-08-11 17:37:47			0	39816	0	0	0	31535	30160	153582	26928	1082299	46435	111756	0	0	8189	468072	0	0
2024-08-11 17:38:47			0	39782	0	0	0	31529	30150	153662	27300	1082218	46456	111754	0	0	8187	469289	0	0
2024-08-11 17:39:47			0	39765	0	0	0	31527	30150	153694	27163	1082335	46446	111753	0	0	8186	469885	0	0
2024-08-11 17:40:47			0	39773	0	0	0	31527	30160	153718	27180	1082317	46458	111753	0	0	8187	469577	0	0
2024-08-11 17:41:47			0	39745	0	0	0	31532	30150	153866	27008	1082299	46478	111755	0	0	8185	470586	0	0
2024-08-11 17:42:47			0	39722	0	0	0	31540	30150	153922	26941	1082335	46468	111758	0	0	8183	471393	0	0
2024-08-11 17:43:47			0	39714	0	0	0	31548	30140	154034	26915	1082236	46467	111761	0	0	8183	471701	0	0
2024-08-11 17:44:47			0	39675	0	0	0	31545	30150	154122	27027	1082335	46479	111760	0	0	8181	473045	0	0
2024-08-11 17:45:47			0	39673	0	0	0	31542	30160	154134	26930	1082344	46469	111759	0	0	8181	473087	0	0
2024-08-11 17:46:47			0	39674	0	0	0	31548	30150	154174	27085	1082308	46479	111761	0	0	8181	473080	0	0
2024-08-11 17:47:47			0	39649	0	0	0	31548	30150	154158	26941	1082299	46467	111761	0	0	8179	473960	0	0
2024-08-11 17:48:47			0	39658	0	0	0	31545	30150	154230	26859	1082308	46468	111760	0	0	8180	473643	0	0
2024-08-11 17:49:47			0	39641	0	0	0	31542	30150	154222	26795	1082362	46446	111759	0	0	8179	474241	0	0
2024-08-11 17:50:47			0	39630	0	0	0	31550	30150	154242	27098	1082308	46468	111762	0	0	8178	474629	0	0
2024-08-11 17:51:47			0	39642	0	0	0	31537	30150	154390	27092	1082335	46468	111757	0	0	8179	474206	0	0
2024-08-11 17:52:47			0	39609	0	0	0	31545	30150	154398	27159	1082326	46467	111760	0	0	8177	475369	0	0
2024-08-11 17:53:47			0	39613	0	0	0	31545	30150	154350	26866	1082218	46467	111760	0	0	8177	475228	0	0
2024-08-11 17:54:47			0	39613	0	0	0	31529	30150	154378	26797	1082281	46468	111754	0	0	8177	475228	0	0
2024-08-11 17:55:47			0	39609	0	0	0	31527	30150	154414	27154	1082272	46467	111753	0	0	8177	475369	0	0
2024-08-11 17:56:47			0	39604	0	0	0	31529	30140	154358	26750	1082236	46467	111754	0	0	8177	475574	0	0
2024-08-11 17:57:47			0	39592	0	0	0	31532	30140	154442	26922	1082209	46467	111755	0	0	8176	475997	0	0
2024-08-11 17:58:47			0	39578	0	0	0	31529	30140	154502	26745	1082263	46456	111754	0	0	8175	476492	0	0
2024-08-11 17:59:47			0	39567	0	0	0	31529	30140	154450	26809	1082281	46478	111754	0	0	8175	476880	0	0
2024-08-11 18:00:47			0	39559	0	0	0	31527	30140	154642	26915	1082227	46467	111753	0	0	8174	477163	0	0
2024-08-11 18:01:47			0	39575	0	0	0	31522	30150	154534	26767	1082191	46467	111751	0	0	8175	476570	0	0
2024-08-11 18:02:47			0	39566	0	0	0	31527	30140	154490	26932	1082200	46478	111753	0	0	8175	476915	0	0
2024-08-11 18:03:47			0	39549	0	0	0	31519	30150	154642	26960	1082272	46467	111750	0	0	8174	477489	0	0
2024-08-11 18:04:47			0	39547	0	0	0	31529	30140	154618	26967	1082308	46467	111754	0	0	8174	477587	0	0
2024-08-11 18:05:47			0	39541	0	0	0	31524	30130	154702	26817	1082299	46466	111752	0	0	8173	477827	0	0
2024-08-11 18:06:47			0	39557	0	0	0	31524	30140	154602	26691	1082200	46478	111752	0	0	8174	477234	0	0
2024-08-11 18:07:47			0	39538	0	0	0	31527	30140	154682	26963	1082200	46456	111753	0	0	8173	477906	0	0
2024-08-11 18:08:47			0	39536	0	0	0	31529	30140	154714	26875	1082173	46467	111754	0	0	8173	477976	0	0
2024-08-11 18:09:47			0	39534	0	0	0	31524	30130	154646	26561	1082218	46477	111752	0	0	8173	478075	0	0
2024-08-11 18:10:47			0	39535	0	0	0	31514	30130	154634	27123	1082181	46454	111748	0	0	8173	478040	0	0
2024-08-11 18:11:47			0	39514	0	0	0	31511	30110	154662	26774	1082109	46465	111747	0	0	8172	478839	0	0
2024-08-11 18:12:47			0	39541	0	0	0	31503	30120	154694	26772	1082145	46465	111744	0	0	8174	477855	0	0
2024-08-11 18:13:47			0	39527	0	0	0	31514	30110	154734	26823	1082100	46475	111748	0	0	8173	478379	0	0
2024-08-11 18:14:47			0	39525	0	0	0	31506	30120	154770	26771	1082118	46443	111745	0	0	8173	478421	0	0
2024-08-11 18:15:47			0	39504	0	0	0	31506	30120	154622	26864	1082145	46465	111745	0	0	8172	479165	0	0
2024-08-11 18:16:47			0	39516	0	0	0	31498	30110	154742	26953	1082154	46464	111742	0	0	8172	478768	0	0
2024-08-11 18:17:47			0	39505	0	0	0	31490	30110	154714	27024	1082127	46475	111739	0	0	8172	479158	0	0
2024-08-11 18:18:47			0	39505	0	0	0	31503	30110	154642	27033	1082073	46475	111744	0	0	8172	479158	0	0
2024-08-11 18:19:47			0	39510	0	0	0	31498	30100	154782	26713	1082055	46462	111742	0	0	8172	479009	0	0
2024-08-11 18:20:47			0	39512	0	0	0	31488	30110	154750	26835	1081992	46475	111738	0	0	8172	478910	0	0
2024-08-11 18:21:47			0	39507	0	0	0	31488	30100	154830	26991	1082091	46474	111738	0	0	8172	479115	0	0
2024-08-11 18:22:47			0	39502	0	0	0	31477	30090	154742	26686	1081992	46473	111734	0	0	8172	479320	0	0
2024-08-11 18:23:47			0	39511	0	0	0	31480	30100	154794	27046	1082055	46462	111735	0	0	8172	478973	0	0
2024-08-11 18:24:47			0	39477	0	0	0	31477	30090	154938	27085	1081983	46485	111734	0	0	8170	480207	0	0
2024-08-11 18:25:47			0	39504	0	0	0	31475	30090	154802	26987	1081938	46462	111733	0	0	8172	479249	0	0
2024-08-11 18:26:47			0	39484	0	0	0	31467	30090	154930	27095	1081992	46462	111730	0	0	8171	479958	0	0
2024-08-11 18:27:47			0	39483	0	0	0	31475	30080	154950	26736	1081884	46460	111733	0	0	8171	480022	0	0
2024-08-11 18:28:47			0	39494	0	0	0	31467	30080	154834	26720	1081974	46484	111730	0	0	8171	479632	0	0
2024-08-11 18:29:47			0	39509	0	0	0	31467	30080	154742	27024	1081947	46461	111730	0	0	8172	479100	0	0
2024-08-11 18:30:47			0	39479	0	0	0	31467	30070	154834	26979	1081928	46460	111730	0	0	8171	480192	0	0
2024-08-11 18:31:47			0	39504	0	0	0	31464	30070	154802	26755	1081901	46471	111729	0	0	8172	479305	0	0
2024-08-11 18:32:47			0	39479	0	0	0	31451	30070	154886	26706	1081901	46460	111724	0	0	8171	480192	0	0
2024-08-11 18:33:47			0	39503	0	0	0	31451	30070	154798	26897	1081901	46460	111724	0	0	8172	479341	0	0
2024-08-11 18:34:47			0	39503	0	0	0	31451	30080	154762	26880	1081884	46471	111724	0	0	8172	479313	0	0
2024-08-11 18:35:47			0	39503	0	0	0	31451	30060	154886	27119	1081856	46459	111724	0	0	8172	479369	0	0
2024-08-11 18:36:47			0	39527	0	0	0	31459	30070	154774	27033	1081838	46483	111727	0	0	8173	478490	0	0
2024-08-11 18:37:47			0	39526	0	0	0	31446	30070	154802	27116	1081838	46460	111722	0	0	8174	478526	0	0
2024-08-11 18:38:47			0	39531	0	0	0	31441	30050	154854	27306	1081811	46469	111720	0	0	8174	478405	0	0
2024-08-11 18:39:47			0	39520	0	0	0	31441	30060	154762	26830	1081847	46469	111720	0	0	8173	478766	0	0
2024-08-11 18:40:47			0	39522	0	0	0	31428	30050	154666	27112	1081811	46469	111715	0	0	8174	478723	0	0
2024-08-11 18:41:47			0	39547	0	0	0	31433	30050	154694	27104	1081757	46458	111717	0	0	8175	477838	0	0
2024-08-11 18:42:47			0	39529	0	0	0	31425	30040	154774	26991	1081766	46468	111714	0	0	8174	478503	0	0
2024-08-11 18:43:47			0	39533	0	0	0	31415	30040	154810	26977	1081766	46468	111710	0	0	8174	478362	0	0
2024-08-11 18:44:47			0	39555	0	0	0	31428	30030	154802	27031	1081693	46457	111715	0	0	8175	477611	0	0
2024-08-11 18:45:47			0	39559	0	0	0	31425	30040	154774	26703	1081756	46457	111714	0	0	8176	477442	0	0
2024-08-11 18:46:47			0	39556	0	0	0	31420	30040	154774	27053	1081766	46458	111712	0	0	8176	477548	0	0
2024-08-11 18:47:47			0	39551	0	0	0	31415	30040	154794	27294	1081675	46479	111710	0	0	8175	477725	0	0
2024-08-11 18:48:47			0	39563	0	0	0	31415	30040	154722	27150	1081739	46458	111710	0	0	8176	477300	0	0
2024-08-11 18:49:47			0	39556	0	0	0	31420	30040	154602	26817	1081621	46457	111712	0	0	8176	477548	0	0
2024-08-11 18:50:47			0	39586	0	0	0	31423	30030	154594	26955	1081684	46466	111713	0	0	8177	476515	0	0
2024-08-11 18:51:47			0	39576	0	0	0	31418	30020	154642	27026	1081729	46478	111711	0	0	8177	476896	0	0
2024-08-11 18:52:47			0	39602	0	0	0	31423	30030	154450	26870	1081684	46456	111713	0	0	8178	475950	0	0
2024-08-11 18:53:47			0	39609	0	0	0	31412	30030	154586	27085	1081657	46478	111709	0	0	8179	475703	0	0
2024-08-11 18:54:47			0	39626	0	0	0	31410	30020	154526	26876	1081621	46456	111708	0	0	8180	475130	0	0
2024-08-11 18:55:47			0	39643	0	0	0	31412	30030	154386	26953	1081585	46467	111709	0	0	8181	474503	0	0
2024-08-11 18:56:47			0	39650	0	0	0	31410	30020	154362	26899	1081648	46489	111708	0	0	8181	474284	0	0
2024-08-11 18:57:47			0	39663	0	0	0	31412	30020	154294	27116	1081648	46456	111709	0	0	8182	473826	0	0
2024-08-11 18:58:47			0	39696	0	0	0	31420	30030	154234	27000	1081711	46456	111712	0	0	8183	472637	0	0
2024-08-11 18:59:47			0	39683	0	0	0	31412	30030	154154	27249	1081711	46466	111709	0	0	8183	473095	0	0
2024-08-11 19:00:47			0	39708	0	0	0	31405	30030	154198	26772	1081684	46466	111706	0	0	8184	472215	0	0
2024-08-11 19:01:47			0	39714	0	0	0	31405	30020	154206	26696	1081693	46465	111706	0	0	8185	472032	0	0
2024-08-11 19:02:47			0	39708	0	0	0	31412	30020	154234	27085	1081639	46465	111709	0	0	8184	472243	0	0
2024-08-11 19:03:47			0	39721	0	0	0	31412	30020	154110	26776	1081666	46465	111709	0	0	8185	471786	0	0
2024-08-11 19:04:47			0	39726	0	0	0	31405	30020	154142	27098	1081639	46477	111706	0	0	8185	471610	0	0
2024-08-11 19:05:47			0	39740	0	0	0	31405	30020	154146	27107	1081639	46477	111706	0	0	8186	471119	0	0
2024-08-11 19:06:47			0	39731	0	0	0	31402	30010	154026	26982	1081648	46464	111705	0	0	8186	471462	0	0
2024-08-11 19:07:47			0	39731	0	0	0	31410	30020	153950	27215	1081612	46465	111708	0	0	8186	471435	0	0
2024-08-11 19:08:47			0	39766	0	0	0	31412	30020	154062	27069	1081666	46455	111709	0	0	8188	470206	0	0
2024-08-11 19:09:47			0	39774	0	0	0	31407	30020	153950	26668	1081621	46478	111707	0	0	8188	469926	0	0
2024-08-11 19:10:47			0	39771	0	0	0	31410	30010	153938	27034	1081630	46464	111708	0	0	8188	470059	0	0
2024-08-11 19:11:47			0	39769	0	0	0	31399	30000	153858	27071	1081585	46476	111704	0	0	8188	470156	0	0
2024-08-11 19:12:47			0	39805	0	0	0	31405	30010	153806	26963	1081549	46464	111706	0	0	8190	468867	0	0
2024-08-11 19:13:47			0	39788	0	0	0	31405	30010	153922	26870	1081621	46454	111706	0	0	8189	469463	0	0
2024-08-11 19:14:47			0	39805	0	0	0	31410	30020	153782	26828	1081639	46455	111708	0	0	8190	468840	0	0
2024-08-11 19:15:47			0	39822	0	0	0	31394	30010	153750	27057	1081522	46454	111702	0	0	8191	468272	0	0
2024-08-11 19:16:47			0	39801	0	0	0	31397	30010	153782	26833	1081576	46464	111703	0	0	8190	469007	0	0
2024-08-11 19:17:47			0	39816	0	0	0	31405	30000	153826	27209	1081503	46464	111706	0	0	8190	468509	0	0
2024-08-11 19:18:47			0	39849	0	0	0	31394	30000	153714	27376	1081585	46464	111702	0	0	8192	467355	0	0
2024-08-11 19:19:47			0	39839	0	0	0	31394	30000	153650	27267	1081503	46464	111702	0	0	8192	467705	0	0
2024-08-11 19:20:47			0	39854	0	0	0	31386	30000	153590	27232	1081467	46475	111699	0	0	8193	467181	0	0
2024-08-11 19:21:47			0	39847	0	0	0	31389	30000	153654	27078	1081467	46463	111700	0	0	8192	467425	0	0
2024-08-11 19:22:47			0	39856	0	0	0	31392	29980	153690	26939	1081494	46474	111701	0	0	8193	467165	0	0
2024-08-11 19:23:47			0	39840	0	0	0	31389	30000	153550	27020	1081494	46475	111700	0	0	8192	467670	0	0
2024-08-11 19:24:47			0	39860	0	0	0	31394	30000	153542	26755	1081494	46463	111702	0	0	8193	466971	0	0
2024-08-11 19:25:47			0	39849	0	0	0	31386	29990	153626	27092	1081512	46462	111699	0	0	8193	467383	0	0
2024-08-11 19:26:47			0	39847	0	0	0	31381	29990	153594	26937	1081485	46462	111697	0	0	8192	467453	0	0
2024-08-11 19:27:47			0	39856	0	0	0	31379	29990	153634	27100	1081512	46462	111696	0	0	8193	467138	0	0
2024-08-11 19:28:47			0	39827	0	0	0	31379	29980	153758	27150	1081413	46462	111696	0	0	8191	468179	0	0
2024-08-11 19:29:47			0	39862	0	0	0	31376	29980	153670	26911	1081494	46452	111695	0	0	8193	466956	0	0
2024-08-11 19:30:47			0	39842	0	0	0	31376	29980	153578	27159	1081467	46440	111695	0	0	8192	467655	0	0
2024-08-11 19:31:47			0	39884	0	0	0	31379	29990	153534	27164	1081449	46474	111696	0	0	8195	466160	0	0
2024-08-11 19:32:47			0	39869	0	0	0	31376	29970	153650	26896	1081449	46450	111695	0	0	8194	466738	0	0
2024-08-11 19:33:47			0	39884	0	0	0	31379	29990	153566	27152	1081476	46452	111696	0	0	8195	466160	0	0
2024-08-11 19:34:47			0	39868	0	0	0	31381	29980	153706	27079	1081413	46462	111697	0	0	8194	466746	0	0
2024-08-11 19:35:47			0	39889	0	0	0	31371	29980	153526	27152	1081404	46473	111693	0	0	8195	466013	0	0
2024-08-11 19:36:47			0	39888	0	0	0	31376	29980	153674	27124	1081458	46451	111695	0	0	8195	466048	0	0
2024-08-11 19:37:47			0	39862	0	0	0	31368	29970	153618	26981	1081449	46472	111692	0	0	8193	466983	0	0
2024-08-11 19:38:47			0	39888	0	0	0	31366	29970	153602	27012	1081368	46460	111691	0	0	8195	466075	0	0
2024-08-11 19:39:47			0	39854	0	0	0	31368	29970	153614	27111	1081395	46460	111692	0	0	8193	467262	0	0
2024-08-11 19:40:47			0	39867	0	0	0	31373	29970	153658	27116	1081449	46472	111694	0	0	8194	466808	0	0
2024-08-11 19:41:47			0	39868	0	0	0	31366	29970	153614	27298	1081395	46450	111691	0	0	8194	466773	0	0
2024-08-11 19:42:47			0	39850	0	0	0	31366	29980	153586	26729	1081458	46473	111691	0	0	8193	467375	0	0
2024-08-11 19:43:47			0	39870	0	0	0	31368	29970	153698	27206	1081413	46472	111692	0	0	8194	466703	0	0
2024-08-11 19:44:47			0	39857	0	0	0	31368	29970	153666	27050	1081386	46460	111692	0	0	8193	467158	0	0
2024-08-11 19:45:47			0	39856	0	0	0	31368	29980	153650	26840	1081377	46461	111692	0	0	8193	467165	0	0
2024-08-11 19:46:47			0	39858	0	0	0	31363	29970	153726	26686	1081413	46460	111690	0	0	8193	467123	0	0
2024-08-11 19:47:47			0	39851	0	0	0	31358	29970	153618	26854	1081368	46450	111688	0	0	8193	467367	0	0
2024-08-11 19:48:47			0	39862	0	0	0	31355	29960	153726	27041	1081368	46449	111687	0	0	8194	467010	0	0
2024-08-11 19:49:47			0	39840	0	0	0	31366	29960	153670	26859	1081314	46471	111691	0	0	8192	467779	0	0
2024-08-11 19:50:47			0	39850	0	0	0	31353	29970	153698	26975	1081359	46472	111686	0	0	8193	467402	0	0
2024-08-11 19:51:47			0	39856	0	0	0	31355	29960	153578	27114	1081314	46449	111687	0	0	8193	467220	0	0
2024-08-11 19:52:47			0	39843	0	0	0	31353	29960	153682	27208	1081296	46459	111686	0	0	8193	467674	0	0
2024-08-11 19:53:47			0	39835	0	0	0	31350	29960	153830	27178	1081314	46459	111685	0	0	8192	467954	0	0
2024-08-11 19:54:47			0	39851	0	0	0	31337	29950	153790	27256	1081241	46458	111680	0	0	8193	467422	0	0
2024-08-11 19:55:47			0	39842	0	0	0	31327	29940	153782	27086	1081178	46447	111676	0	0	8193	467764	0	0
2024-08-11 19:56:47			0	39831	0	0	0	31332	29950	153902	26935	1081224	46458	111678	0	0	8192	468121	0	0
2024-08-11 19:57:47			0	39820	0	0	0	31335	29940	153870	27086	1081142	46458	111679	0	0	8192	468534	0	0
2024-08-11 19:58:47			0	39808	0	0	0	31327	29940	153902	26949	1081196	46458	111676	0	0	8191	468954	0	0
2024-08-11 19:59:47			0	39819	0	0	0	31329	29930	153926	26883	1081268	46468	111677	0	0	8192	468596	0	0
2024-08-11 20:00:47			0	39797	0	0	0	31337	29940	153882	27131	1081277	46469	111680	0	0	8190	469339	0	0
2024-08-11 20:01:47			0	39791	0	0	0	31340	29940	153834	26896	1081205	46458	111681	0	0	8190	469549	0	0
2024-08-11 20:02:47			0	39782	0	0	0	31335	29930	153854	27010	1081205	46467	111679	0	0	8189	469892	0	0
2024-08-11 20:03:47			0	39788	0	0	0	31335	29930	153874	27216	1081268	46457	111679	0	0	8190	469682	0	0
2024-08-11 20:04:47			0	39774	0	0	0	31337	29940	153906	27157	1081277	46458	111680	0	0	8189	470145	0	0
2024-08-11 20:05:47			0	39785	0	0	0	31340	29950	153986	27000	1081241	46470	111681	0	0	8190	469732	0	0
2024-08-11 20:06:47			0	39768	0	0	0	31342	29940	153994	26689	1081286	46469	111682	0	0	8188	470356	0	0
2024-08-11 20:07:47			0	39768	0	0	0	31345	29940	154050	26915	1081232	46458	111683	0	0	8188	470356	0	0
2024-08-11 20:08:47			0	39785	0	0	0	31340	29940	153902	27168	1081259	46458	111681	0	0	8189	469760	0	0
2024-08-11 20:09:47			0	39766	0	0	0	31335	29940	153990	26785	1081250	46469	111679	0	0	8188	470426	0	0
2024-08-11 20:10:47			0	39746	0	0	0	31337	29940	153958	27111	1081223	46480	111680	0	0	8187	471128	0	0
2024-08-11 20:11:47			0	39761	0	0	0	31335	29940	154010	26859	1081277	46458	111679	0	0	8188	470601	0	0
2024-08-11 20:12:47			0	39759	0	0	0	31329	29940	154018	27128	1081223	46469	111677	0	0	8188	470672	0	0
2024-08-11 20:13:47			0	39754	0	0	0	31329	29930	154170	26998	1081205	46467	111677	0	0	8188	470874	0	0
2024-08-11 20:14:47			0	39722	0	0	0	31329	29930	153966	27048	1081259	46467	111677	0	0	8186	471999	0	0
2024-08-11 20:15:47			0	39733	0	0	0	31329	29940	154074	27322	1081223	46458	111677	0	0	8187	471584	0	0
2024-08-11 20:16:47			0	39730	0	0	0	31324	29940	154166	26847	1081196	46458	111675	0	0	8187	471690	0	0
2024-08-11 20:17:47			0	39721	0	0	0	31322	29930	154246	27135	1081178	46467	111674	0	0	8186	472034	0	0
2024-08-11 20:18:47			0	39732	0	0	0	31322	29940	154286	26956	1081277	46458	111674	0	0	8187	471620	0	0
2024-08-11 20:19:47			0	39709	0	0	0	31324	29920	154310	27216	1081196	46478	111675	0	0	8185	472483	0	0
2024-08-11 20:20:47			0	39683	0	0	0	31319	29920	154290	27048	1081115	46467	111673	0	0	8184	473398	0	0
2024-08-11 20:21:47			0	39717	0	0	0	31316	29920	154330	26972	1081196	46456	111672	0	0	8186	472202	0	0
2024-08-11 20:22:47			0	39685	0	0	0	31316	29920	154398	26922	1081196	46467	111672	0	0	8184	473328	0	0
2024-08-11 20:23:47			0	39701	0	0	0	31309	29940	154426	27173	1081223	46458	111669	0	0	8185	472710	0	0
2024-08-11 20:24:47			0	39681	0	0	0	31314	29920	154458	26712	1081088	46456	111671	0	0	8184	473469	0	0
2024-08-11 20:25:47			0	39663	0	0	0	31309	29920	154390	26842	1081160	46467	111669	0	0	8183	474103	0	0
2024-08-11 20:26:47			0	39683	0	0	0	31311	29910	154426	27090	1081097	46466	111670	0	0	8184	473426	0	0
2024-08-11 20:27:47			0	39658	0	0	0	31309	29910	154402	26951	1081097	46466	111669	0	0	8183	474307	0	0
2024-08-11 20:28:47			0	39662	0	0	0	31306	29910	154430	26991	1081097	46455	111668	0	0	8183	474166	0	0
2024-08-11 20:29:47			0	39670	0	0	0	31314	29910	154486	26885	1081097	46477	111671	0	0	8183	473884	0	0
2024-08-11 20:30:47			0	39635	0	0	0	31309	29910	154430	26981	1081088	46476	111669	0	0	8181	475118	0	0
2024-08-11 20:31:47			0	39659	0	0	0	31303	29910	154542	27029	1081124	46455	111667	0	0	8183	474271	0	0
2024-08-11 20:32:47			0	39641	0	0	0	31303	29910	154426	26715	1081169	46476	111667	0	0	8182	474906	0	0
2024-08-11 20:33:47			0	39646	0	0	0	31309	29910	154438	27034	1081124	46455	111669	0	0	8182	474730	0	0
2024-08-11 20:34:47			0	39624	0	0	0	31309	29910	154558	27137	1081124	46466	111669	0	0	8181	475506	0	0
2024-08-11 20:35:47			0	39621	0	0	0	31303	29910	154546	26811	1081097	46455	111667	0	0	8181	475612	0	0
2024-08-11 20:36:47			0	39627	0	0	0	31303	29910	154546	26963	1081115	46465	111667	0	0	8181	475400	0	0
2024-08-11 20:37:47			0	39615	0	0	0	31301	29910	154574	27086	1081070	46477	111666	0	0	8180	475824	0	0
2024-08-11 20:38:47			0	39605	0	0	0	31290	29900	154514	27064	1081016	46453	111662	0	0	8180	476205	0	0
2024-08-11 20:39:47			0	39612	0	0	0	31298	29900	154554	27209	1081070	46464	111665	0	0	8180	475958	0	0
2024-08-11 20:40:47			0	39604	0	0	0	31293	29890	154610	27102	1081061	46475	111663	0	0	8180	476268	0	0
2024-08-11 20:41:47			0	39592	0	0	0	31288	29900	154606	26899	1080962	46453	111661	0	0	8179	476664	0	0
2024-08-11 20:42:47			0	39595	0	0	0	31293	29890	154686	27201	1081034	46442	111663	0	0	8179	476586	0	0
2024-08-11 20:43:47			0	39586	0	0	0	31283	29890	154790	27246	1080980	46453	111659	0	0	8179	476904	0	0
2024-08-11 20:44:47			0	39569	0	0	0	31280	29900	154802	27114	1080989	46475	111658	0	0	8178	477478	0	0
2024-08-11 20:45:47			0	39590	0	0	0	31280	29880	154670	27059	1080988	46463	111658	0	0	8179	476791	0	0
2024-08-11 20:46:47			0	39585	0	0	0	31283	29890	154726	27197	1080997	46452	111659	0	0	8179	476940	0	0
2024-08-11 20:47:47			0	39583	0	0	0	31275	29880	154722	27272	1080934	46441	111656	0	0	8179	477038	0	0
2024-08-11 20:48:47			0	39570	0	0	0	31272	29880	154778	26899	1080898	46462	111655	0	0	8178	477498	0	0
2024-08-11 20:49:47			0	39551	0	0	0	31264	29880	154802	27114	1080925	46462	111652	0	0	8177	478171	0	0
2024-08-11 20:50:47			0	39550	0	0	0	31262	29870	154910	27177	1080880	46450	111651	0	0	8177	478234	0	0
2024-08-11 20:51:47			0	39559	0	0	0	31259	29880	154850	27119	1080844	46462	111650	0	0	8178	477887	0	0
2024-08-11 20:52:47			0	39536	0	0	0	31254	29870	154830	26753	1080880	46472	111648	0	0	8177	478730	0	0
2024-08-11 20:53:47			0	39553	0	0	0	31259	29870	154894	27147	1080862	46451	111650	0	0	8177	478128	0	0
2024-08-11 20:54:47			0	39539	0	0	0	31254	29870	154914	26786	1080799	46461	111648	0	0	8177	478624	0	0
2024-08-11 20:55:47			0	39545	0	0	0	31249	29860	154990	27102	1080835	46449	111646	0	0	8177	478439	0	0
2024-08-11 20:56:47			0	39544	0	0	0	31249	29870	154930	27171	1080799	46450	111646	0	0	8177	478447	0	0
2024-08-11 20:57:47			0	39521	0	0	0	31241	29860	154846	26939	1080781	46449	111643	0	0	8176	479290	0	0
2024-08-11 20:58:47			0	39536	0	0	0	31241	29860	154986	27248	1080763	46461	111643	0	0	8177	478758	0	0
2024-08-11 20:59:47			0	39522	0	0	0	31233	29850	154982	27244	1080799	46460	111640	0	0	8176	479282	0	0
2024-08-11 21:00:47			0	39518	0	0	0	31236	29850	155010	26984	1080745	46449	111641	0	0	8176	479424	0	0
2024-08-11 21:01:47			0	39533	0	0	0	31236	29850	155002	27230	1080772	46471	111641	0	0	8177	478892	0	0
2024-08-11 21:02:47			0	39519	0	0	0	31236	29850	155038	26932	1080663	46471	111641	0	0	8176	479389	0	0
2024-08-11 21:03:47			0	39522	0	0	0	31223	29860	155130	26974	1080700	46449	111636	0	0	8176	479254	0	0
2024-08-11 21:04:47			0	39503	0	0	0	31212	29850	155118	26993	1080654	46437	111632	0	0	8175	479956	0	0
2024-08-11 21:05:47			0	39516	0	0	0	31220	29830	154966	26654	1080654	46458	111635	0	0	8176	479551	0	0
2024-08-11 21:06:47			0	39510	0	0	0	31220	29830	155034	26868	1080600	46458	111635	0	0	8175	479764	0	0
2024-08-11 21:07:47			0	39516	0	0	0	31215	29830	155098	27187	1080627	46458	111633	0	0	8176	479551	0	0
2024-08-11 21:08:47			0	39511	0	0	0	31218	29820	155006	27164	1080663	46457	111634	0	0	8175	479756	0	0
2024-08-11 21:09:47			0	39495	0	0	0	31212	29820	155086	26955	1080699	46458	111632	0	0	8175	480324	0	0
2024-08-11 21:10:47			0	39510	0	0	0	31210	29830	155102	26935	1080681	46468	111631	0	0	8176	479764	0	0
2024-08-11 21:11:47			0	39497	0	0	0	31210	29820	155182	26845	1080672	46468	111631	0	0	8175	480253	0	0
2024-08-11 21:12:47			0	39515	0	0	0	31212	29820	155050	27060	1080564	46446	111632	0	0	8176	479614	0	0
2024-08-11 21:13:47			0	39490	0	0	0	31210	29820	155102	26948	1080555	46467	111631	0	0	8174	480502	0	0
2024-08-11 21:14:47			0	39492	0	0	0	31207	29820	155174	26807	1080537	46458	111630	0	0	8175	480431	0	0
2024-08-11 21:15:47			0	39498	0	0	0	31202	29810	155146	26932	1080564	46466	111628	0	0	8175	480246	0	0
2024-08-11 21:16:47			0	39492	0	0	0	31205	29800	155094	27027	1080474	46456	111629	0	0	8175	480487	0	0
2024-08-11 21:17:47			0	39494	0	0	0	31192	29800	155118	27057	1080528	46456	111624	0	0	8175	480416	0	0
2024-08-11 21:18:47			0	39498	0	0	0	31189	29810	155086	26833	1080573	46445	111623	0	0	8175	480246	0	0
2024-08-11 21:19:47			0	39512	0	0	0	31194	29810	155030	26812	1080510	46456	111625	0	0	8176	479749	0	0
2024-08-11 21:20:47			0	39481	0	0	0	31189	29790	154994	26696	1080429	46455	111623	0	0	8174	480906	0	0
2024-08-11 21:21:47			0	39514	0	0	0	31181	29800	155134	27137	1080447	46456	111620	0	0	8176	479706	0	0
2024-08-11 21:22:47			0	39493	0	0	0	31184	29790	155070	27109	1080429	46455	111621	0	0	8175	480479	0	0
2024-08-11 21:23:47			0	39502	0	0	0	31176	29780	155058	26790	1080438	46453	111618	0	0	8176	480188	0	0
2024-08-11 21:24:47			0	39504	0	0	0	31171	29780	155138	26745	1080384	46441	111616	0	0	8176	480117	0	0
2024-08-11 21:25:47			0	39504	0	0	0	31161	29780	155230	26733	1080329	46441	111612	0	0	8176	480117	0	0
2024-08-11 21:26:47			0	39516	0	0	0	31163	29780	155270	26689	1080329	46441	111613	0	0	8177	479691	0	0
2024-08-11 21:27:47			0	39493	0	0	0	31161	29780	155238	27372	1080293	46441	111612	0	0	8175	480507	0	0
2024-08-11 21:28:47			0	39512	0	0	0	31153	29770	155186	27024	1080302	46452	111609	0	0	8176	479861	0	0
2024-08-11 21:29:47			0	39507	0	0	0	31155	29770	155138	26783	1080329	46429	111610	0	0	8176	480038	0	0
2024-08-11 21:30:47			0	39505	0	0	0	31153	29760	155214	27190	1080320	46451	111609	0	0	8176	480137	0	0
2024-08-11 21:31:47			0	39508	0	0	0	31145	29770	155086	27135	1080302	46462	111606	0	0	8176	480003	0	0
2024-08-11 21:32:47			0	39506	0	0	0	31145	29770	155182	26923	1080302	46452	111606	0	0	8176	480074	0	0
2024-08-11 21:33:47			0	39521	0	0	0	31142	29770	155258	26805	1080275	46462	111605	0	0	8177	479541	0	0
2024-08-11 21:34:47			0	39482	0	0	0	31137	29760	155170	27237	1080176	46461	111603	0	0	8175	480954	0	0
2024-08-11 21:35:47			0	39482	0	0	0	31132	29750	155238	27092	1080248	46439	111601	0	0	8175	480982	0	0
2024-08-11 21:36:47			0	39503	0	0	0	31124	29750	155226	26883	1080167	46439	111598	0	0	8176	480236	0	0
2024-08-11 21:37:47			0	39498	0	0	0	31116	29740	155250	26909	1080149	46449	111595	0	0	8176	480442	0	0
2024-08-11 21:38:47			0	39487	0	0	0	31124	29750	155190	26833	1080212	46450	111598	0	0	8175	480805	0	0
2024-08-11 21:39:47			0	39490	0	0	0	31114	29740	155262	27107	1080149	46437	111594	0	0	8176	480726	0	0
2024-08-11 21:40:47			0	39477	0	0	0	31111	29730	155322	27043	1080130	46448	111593	0	0	8175	481216	0	0
2024-08-11 21:41:47			0	39476	0	0	0	31101	29730	155498	27078	1080040	46436	111589	0	0	8175	481252	0	0
2024-08-11 21:42:47			0	39480	0	0	0	31090	29720	155402	27223	1079968	46435	111585	0	0	8175	481137	0	0
2024-08-11 21:43:47			0	39486	0	0	0	31090	29710	155490	26649	1079959	46457	111585	0	0	8176	480952	0	0
2024-08-11 21:44:47			0	39474	0	0	0	31098	29720	155522	26824	1079941	46446	111588	0	0	8175	481351	0	0
2024-08-11 21:45:47			0	39465	0	0	0	31088	29710	155522	26876	1080013	46423	111584	0	0	8175	481699	0	0
2024-08-11 21:46:47			0	39475	0	0	0	31093	29710	155510	26960	1079986	46435	111586	0	0	8175	481343	0	0
2024-08-11 21:47:47			0	39471	0	0	0	31083	29710	155574	27187	1079932	46423	111582	0	0	8175	481486	0	0
2024-08-11 21:48:47			0	39469	0	0	0	31072	29700	155498	26795	1079968	46434	111578	0	0	8175	481585	0	0
2024-08-11 21:49:47			0	39469	0	0	0	31054	29680	155586	26925	1079878	46443	111571	0	0	8175	481641	0	0
2024-08-11 21:50:47			0	39460	0	0	0	31051	29680	155570	26993	1079788	46442	111570	0	0	8175	481961	0	0
2024-08-11 21:51:47			0	39468	0	0	0	31044	29670	155426	26935	1079698	46442	111567	0	0	8175	481705	0	0
2024-08-11 21:52:47			0	39457	0	0	0	31041	29670	155494	26965	1079769	46442	111566	0	0	8175	482096	0	0
2024-08-11 21:53:47			0	39452	0	0	0	31041	29660	155562	26861	1079697	46462	111566	0	0	8174	482302	0	0
2024-08-11 21:54:47			0	39441	0	0	0	31044	29670	155578	27038	1079671	46453	111567	0	0	8174	482666	0	0
2024-08-11 21:55:47			0	39453	0	0	0	31044	29660	155562	26857	1079751	46440	111567	0	0	8174	482267	0	0
2024-08-11 21:56:47			0	39426	0	0	0	31041	29670	155622	26811	1079607	46431	111566	0	0	8173	483201	0	0
2024-08-11 21:57:47			0	39429	0	0	0	31028	29660	155542	26710	1079724	46451	111561	0	0	8173	483122	0	0
2024-08-11 21:58:47			0	39434	0	0	0	31028	29650	155562	26753	1079634	46439	111561	0	0	8174	482972	0	0
2024-08-11 21:59:47			0	39432	0	0	0	31023	29650	155550	26915	1079625	46439	111559	0	0	8174	483043	0	0
2024-08-11 22:00:47			0	39444	0	0	0	31015	29640	155566	27022	1079616	46439	111556	0	0	8174	482643	0	0
2024-08-11 22:01:47			0	39445	0	0	0	31018	29640	155666	26965	1079670	46439	111557	0	0	8174	482608	0	0
2024-08-11 22:02:47			0	39442	0	0	0	31018	29640	155554	26720	1079607	46449	111557	0	0	8174	482715	0	0
2024-08-11 22:03:47			0	39449	0	0	0	31012	29630	155586	26739	1079571	46426	111555	0	0	8175	482493	0	0
2024-08-11 22:04:47			0	39450	0	0	0	31007	29640	155686	26748	1079589	46439	111553	0	0	8175	482430	0	0
2024-08-11 22:05:47			0	39449	0	0	0	30992	29620	155558	27045	1079526	46415	111547	0	0	8175	482521	0	0
2024-08-11 22:06:47			0	39454	0	0	0	30986	29630	155574	27170	1079454	46426	111545	0	0	8175	482315	0	0
2024-08-11 22:07:47			0	39434	0	0	0	30979	29620	155554	26960	1079408	46436	111542	0	0	8174	483056	0	0
2024-08-11 22:08:47			0	39443	0	0	0	30976	29620	155598	26892	1079408	46403	111541	0	0	8175	482735	0	0
2024-08-11 22:09:47			0	39445	0	0	0	30966	29610	155506	27013	1079336	46435	111537	0	0	8175	482692	0	0
2024-08-11 22:10:47			0	39449	0	0	0	30955	29590	155562	27171	1079273	46444	111533	0	0	8175	482606	0	0
2024-08-11 22:11:47			0	39433	0	0	0	30945	29590	155678	26887	1079246	46410	111529	0	0	8175	483176	0	0
2024-08-11 22:12:47			0	39431	0	0	0	30942	29580	155582	26835	1079210	46432	111528	0	0	8175	483275	0	0
2024-08-11 22:13:47			0	39445	0	0	0	30932	29570	155510	26960	1079165	46431	111524	0	0	8175	482804	0	0
2024-08-11 22:14:47			0	39437	0	0	0	30924	29560	155558	26835	1079147	46419	111521	0	0	8175	483118	0	0
2024-08-11 22:15:47			0	39434	0	0	0	30919	29550	155606	26880	1079102	46429	111519	0	0	8175	483253	0	0
2024-08-11 22:16:47			0	39436	0	0	0	30911	29550	155562	26833	1079066	46428	111516	0	0	8175	483181	0	0
2024-08-11 22:17:47			0	39438	0	0	0	30911	29550	155558	26852	1079021	46429	111516	0	0	8175	483110	0	0
2024-08-11 22:18:47			0	39462	0	0	0	30916	29530	155470	26842	1078984	46416	111518	0	0	8177	482311	0	0
2024-08-11 22:19:47			0	39451	0	0	0	30914	29530	155558	26894	1079011	46427	111517	0	0	8176	482703	0	0
2024-08-11 22:20:47			0	39456	0	0	0	30909	29530	155558	26994	1078984	46427	111515	0	0	8176	482525	0	0
2024-08-11 22:21:47			0	39454	0	0	0	30909	29530	155550	27036	1079038	46438	111515	0	0	8176	482596	0	0
2024-08-11 22:22:47			0	39443	0	0	0	30901	29530	155586	27046	1079011	46438	111512	0	0	8176	482988	0	0
2024-08-11 22:23:47			0	39452	0	0	0	30906	29530	155422	26894	1078984	46438	111514	0	0	8176	482667	0	0
2024-08-11 22:24:47			0	39461	0	0	0	30909	29520	155470	26887	1078939	46436	111515	0	0	8177	482375	0	0
2024-08-11 22:25:47			0	39455	0	0	0	30906	29520	155562	27029	1079002	46437	111514	0	0	8176	482588	0	0
2024-08-11 22:26:47			0	39472	0	0	0	30896	29500	155394	26760	1078930	46446	111510	0	0	8177	482039	0	0
2024-08-11 22:27:47			0	39472	0	0	0	30903	29520	155478	26809	1078993	46436	111513	0	0	8177	481983	0	0
2024-08-11 22:28:47			0	39478	0	0	0	30903	29510	155446	26883	1078984	46448	111513	0	0	8178	481797	0	0
2024-08-11 22:29:47			0	39484	0	0	0	30898	29510	155446	26795	1078930	46436	111511	0	0	8178	481584	0	0
2024-08-11 22:30:47			0	39486	0	0	0	30893	29500	155362	26961	1078885	46436	111509	0	0	8178	481541	0	0
2024-08-11 22:31:47			0	39480	0	0	0	30893	29500	155406	26928	1078939	46424	111509	0	0	8178	481754	0	0
2024-08-11 22:32:47			0	39478	0	0	0	30901	29490	155374	26694	1078867	46423	111512	0	0	8178	481853	0	0
2024-08-11 22:33:47			0	39496	0	0	0	30896	29500	155410	26899	1078876	46435	111510	0	0	8179	481185	0	0
2024-08-11 22:34:47			0	39498	0	0	0	30893	29500	155362	26925	1078912	46447	111509	0	0	8179	481114	0	0
2024-08-11 22:35:47			0	39485	0	0	0	30896	29490	155434	26904	1078921	46435	111510	0	0	8178	481604	0	0
2024-08-11 22:36:47			0	39502	0	0	0	30888	29490	155374	27085	1078867	46435	111507	0	0	8179	480999	0	0
2024-08-11 22:37:47			0	39508	0	0	0	30885	29500	155402	26731	1078849	46435	111506	0	0	8180	480758	0	0
2024-08-11 22:38:47			0	39505	0	0	0	30885	29490	155470	27114	1078831	46423	111506	0	0	8179	480893	0	0
2024-08-11 22:39:47			0	39512	0	0	0	30890	29490	155390	26791	1078831	46413	111508	0	0	8180	480644	0	0
2024-08-11 22:40:47			0	39512	0	0	0	30877	29480	155262	26698	1078822	46434	111503	0	0	8180	480672	0	0
2024-08-11 22:41:47			0	39495	0	0	0	30872	29470	155314	26915	1078767	46433	111501	0	0	8179	481304	0	0
2024-08-11 22:42:47			0	39511	0	0	0	30880	29490	155258	27008	1078885	46435	111504	0	0	8180	480679	0	0
2024-08-11 22:43:47			0	39509	0	0	0	30875	29480	155342	26979	1078812	46411	111502	0	0	8180	480778	0	0
2024-08-11 22:44:47			0	39510	0	0	0	30870	29480	155314	26897	1078785	46433	111500	0	0	8180	480743	0	0
2024-08-11 22:45:47			0	39498	0	0	0	30864	29470	155270	26883	1078776	46433	111498	0	0	8179	481198	0	0
2024-08-11 22:46:47			0	39489	0	0	0	30864	29480	155282	26738	1078768	46422	111498	0	0	8179	481490	0	0
2024-08-11 22:47:47			0	39516	0	0	0	30864	29470	155302	26556	1078776	46444	111498	0	0	8180	480557	0	0
2024-08-11 22:48:47			0	39511	0	0	0	30870	29470	155302	26864	1078776	46433	111500	0	0	8180	480735	0	0
2024-08-11 22:49:47			0	39503	0	0	0	30854	29460	155350	26968	1078731	46432	111494	0	0	8180	481048	0	0
2024-08-11 22:50:47			0	39507	0	0	0	30870	29470	155374	26927	1078767	46433	111500	0	0	8180	480877	0	0
2024-08-11 22:51:47			0	39493	0	0	0	30870	29470	155298	26927	1078722	46433	111500	0	0	8179	481375	0	0
2024-08-11 22:52:47			0	39514	0	0	0	30859	29460	155326	27223	1078677	46432	111496	0	0	8180	480656	0	0
2024-08-11 22:53:47			0	39505	0	0	0	30854	29470	155334	27097	1078686	46433	111494	0	0	8180	480948	0	0
2024-08-11 22:54:47			0	39508	0	0	0	30846	29460	155310	26982	1078695	46431	111491	0	0	8180	480870	0	0
2024-08-11 22:55:47			0	39504	0	0	0	30841	29450	155266	26871	1078632	46430	111489	0	0	8180	481040	0	0
2024-08-11 22:56:47			0	39510	0	0	0	30844	29450	155254	26856	1078623	46430	111490	0	0	8180	480827	0	0
2024-08-11 22:57:47			0	39509	0	0	0	30841	29440	155226	26743	1078614	46408	111489	0	0	8180	480890	0	0
2024-08-11 22:58:47			0	39505	0	0	0	30836	29440	155230	26880	1078614	46418	111487	0	0	8180	481032	0	0
2024-08-11 22:59:47			0	39520	0	0	0	30831	29430	155346	26819	1078533	46428	111485	0	0	8181	480527	0	0
2024-08-11 23:00:47			0	39549	0	0	0	30831	29440	155302	26823	1078578	46428	111485	0	0	8183	479469	0	0
2024-08-11 23:01:47			0	39512	0	0	0	30823	29440	155334	26982	1078605	46417	111482	0	0	8181	480783	0	0
2024-08-11 23:02:47			0	39533	0	0	0	30828	29430	155218	26916	1078569	46439	111484	0	0	8182	480065	0	0
2024-08-11 23:03:47			0	39511	0	0	0	30831	29430	155298	26859	1078542	46428	111485	0	0	8180	480847	0	0
2024-08-11 23:04:47			0	39521	0	0	0	30825	29430	155334	26942	1078569	46428	111483	0	0	8181	480491	0	0
2024-08-11 23:05:47			0	39521	0	0	0	30823	29440	155246	26530	1078497	46440	111482	0	0	8181	480463	0	0
2024-08-11 23:06:47			0	39515	0	0	0	30823	29420	155334	26880	1078523	46439	111482	0	0	8181	480733	0	0
2024-08-11 23:07:47			0	39535	0	0	0	30810	29420	155302	27043	1078523	46439	111477	0	0	8182	480022	0	0
2024-08-11 23:08:47			0	39526	0	0	0	30810	29420	155322	27296	1078470	46428	111477	0	0	8181	480342	0	0
2024-08-11 23:09:47			0	39524	0	0	0	30818	29410	155322	26509	1078451	46415	111480	0	0	8181	480441	0	0
2024-08-11 23:10:47			0	39519	0	0	0	30812	29410	155378	26840	1078469	46415	111478	0	0	8181	480618	0	0
2024-08-11 23:11:47			0	39519	0	0	0	30810	29410	155438	26928	1078424	46426	111477	0	0	8181	480618	0	0
2024-08-11 23:12:47			0	39518	0	0	0	30810	29410	155306	26982	1078451	46404	111477	0	0	8181	480654	0	0
2024-08-11 23:13:47			0	39545	0	0	0	30807	29410	155454	26899	1078478	46437	111476	0	0	8183	479694	0	0
2024-08-11 23:14:47			0	39520	0	0	0	30815	29410	155294	26930	1078451	46415	111479	0	0	8181	480583	0	0
2024-08-11 23:15:47			0	39523	0	0	0	30807	29410	155394	26873	1078469	46437	111476	0	0	8181	480476	0	0
2024-08-11 23:16:47			0	39520	0	0	0	30810	29410	155302	26887	1078532	46426	111477	0	0	8181	480583	0	0
2024-08-11 23:17:47			0	39526	0	0	0	30807	29410	155350	26800	1078451	46437	111476	0	0	8181	480369	0	0
2024-08-11 23:18:47			0	39534	0	0	0	30802	29420	155322	26857	1078460	46438	111474	0	0	8182	480057	0	0
2024-08-11 23:19:47			0	39538	0	0	0	30805	29410	155266	27038	1078505	46426	111475	0	0	8182	479943	0	0
2024-08-11 23:20:47			0	39519	0	0	0	30810	29410	155342	26935	1078442	46426	111477	0	0	8181	480618	0	0
2024-08-11 23:21:47			0	39522	0	0	0	30789	29410	155350	26977	1078505	46426	111469	0	0	8182	480512	0	0
2024-08-11 23:22:47			0	39523	0	0	0	30802	29400	155310	26830	1078406	46415	111474	0	0	8181	480504	0	0
2024-08-11 23:23:47			0	39532	0	0	0	30805	29410	155290	26902	1078415	46437	111475	0	0	8182	480156	0	0
2024-08-11 23:24:47			0	39542	0	0	0	30810	29410	155330	27027	1078397	46437	111477	0	0	8182	479801	0	0
2024-08-11 23:25:47			0	39556	0	0	0	30802	29400	155218	26585	1078406	46426	111474	0	0	8183	479332	0	0
2024-08-11 23:26:47			0	39526	0	0	0	30797	29400	155326	26713	1078397	46425	111472	0	0	8182	480397	0	0
2024-08-11 23:27:47			0	39541	0	0	0	30794	29400	155210	26826	1078370	46425	111471	0	0	8182	479864	0	0
2024-08-11 23:28:47			0	39537	0	0	0	30794	29400	155374	27078	1078460	46415	111471	0	0	8182	480007	0	0
2024-08-11 23:29:47			0	39533	0	0	0	30789	29400	155390	26902	1078379	46426	111469	0	0	8182	480149	0	0
2024-08-11 23:30:47			0	39541	0	0	0	30789	29400	155366	26729	1078289	46436	111469	0	0	8183	479864	0	0
2024-08-11 23:31:47			0	39553	0	0	0	30789	29400	155318	26774	1078379	46426	111469	0	0	8183	479438	0	0
2024-08-11 23:32:47			0	39552	0	0	0	30794	29380	155406	26875	1078334	46434	111471	0	0	8183	479529	0	0
2024-08-11 23:33:47			0	39556	0	0	0	30781	29390	155318	27034	1078352	46413	111466	0	0	8184	479359	0	0
2024-08-11 23:34:47			0	39554	0	0	0	30786	29400	155382	26850	1078289	46414	111468	0	0	8183	479402	0	0
2024-08-11 23:35:47			0	39577	0	0	0	30784	29390	155334	26736	1078334	46424	111467	0	0	8185	478614	0	0
2024-08-11 23:36:47			0	39562	0	0	0	30776	29390	155274	26887	1078244	46413	111464	0	0	8184	479146	0	0
2024-08-11 23:37:47			0	39543	0	0	0	30784	29390	155342	27102	1078280	46435	111467	0	0	8183	479821	0	0
2024-08-11 23:38:47			0	39556	0	0	0	30779	29380	155306	27053	1078235	46423	111465	0	0	8184	479387	0	0
2024-08-11 23:39:47			0	39560	0	0	0	30781	29380	155290	26880	1078235	46434	111466	0	0	8184	479245	0	0
2024-08-11 23:40:47			0	39563	0	0	0	30773	29380	155366	26840	1078289	46434	111463	0	0	8184	479139	0	0
2024-08-11 23:41:47			0	39560	0	0	0	30771	29380	155354	26656	1078343	46423	111462	0	0	8184	479245	0	0
2024-08-11 23:42:47			0	39569	0	0	0	30779	29390	155350	26913	1078244	46446	111465	0	0	8184	478898	0	0
2024-08-11 23:43:47			0	39558	0	0	0	30776	29380	155374	26908	1078172	46434	111464	0	0	8184	479316	0	0
2024-08-11 23:44:47			0	39562	0	0	0	30768	29370	155310	26845	1078154	46433	111461	0	0	8184	479202	0	0
2024-08-11 23:45:47			0	39563	0	0	0	30763	29370	155258	26713	1078181	46433	111459	0	0	8184	479167	0	0
2024-08-11 23:46:47			0	39555	0	0	0	30768	29370	155278	26831	1078190	46422	111461	0	0	8184	479451	0	0
2024-08-11 23:47:47			0	39572	0	0	0	30766	29380	155298	26861	1078172	46434	111460	0	0	8185	478819	0	0
2024-08-11 23:48:47			0	39563	0	0	0	30753	29370	155262	26807	1078163	46411	111455	0	0	8184	479167	0	0
2024-08-11 23:49:47			0	39574	0	0	0	30761	29370	155262	26951	1078208	46422	111458	0	0	8185	478776	0	0
2024-08-11 23:50:47			0	39574	0	0	0	30758	29360	155382	27128	1078145	46432	111457	0	0	8185	478804	0	0
2024-08-11 23:51:47			0	39574	0	0	0	30748	29360	155378	27013	1078091	46432	111453	0	0	8185	478804	0	0
2024-08-11 23:52:47			0	39565	0	0	0	30737	29360	155350	27291	1078162	46421	111449	0	0	8185	479124	0	0
2024-08-11 23:53:47			0	39563	0	0	0	30745	29350	155298	27213	1078099	46420	111452	0	0	8184	479222	0	0
2024-08-11 23:54:47			0	39580	0	0	0	30740	29350	155318	27246	1078099	46431	111450	0	0	8185	478619	0	0
2024-08-11 23:55:47			0	39569	0	0	0	30745	29360	155326	27211	1078091	46410	111452	0	0	8185	478981	0	0
2024-08-11 23:56:47			0	39547	0	0	0	30737	29350	155354	26807	1078090	46430	111449	0	0	8184	479791	0	0
2024-08-11 23:57:47			0	39561	0	0	0	30740	29350	155318	27050	1078045	46420	111450	0	0	8184	479293	0	0
2024-08-11 23:58:47			0	39575	0	0	0	30729	29340	155330	27017	1078108	46419	111446	0	0	8185	478824	0	0
2024-08-11 23:59:47			0	39562	0	0	0	30740	29340	155278	26885	1078081	46408	111450	0	0	8184	479286	0	0
2024-08-12 00:00:47			0	39551	0	0	0	30732	29340	155230	27102	1078045	46419	111447	0	0	8184	479676	0	0
2024-08-12 00:01:47			0	39558	0	0	0	30735	29340	155206	26708	1078054	46430	111448	0	0	8184	479428	0	0
2024-08-12 00:02:47			0	39560	0	0	0	30727	29330	155306	26805	1078063	46429	111445	0	0	8184	479385	0	0
2024-08-12 00:03:47			0	39573	0	0	0	30729	29330	155270	27076	1077982	46418	111446	0	0	8185	478923	0	0
2024-08-12 00:04:47			0	39572	0	0	0	30727	29350	155246	26868	1078063	46430	111445	0	0	8185	478903	0	0
2024-08-12 00:05:47			0	39561	0	0	0	30727	29330	155198	26788	1078009	46429	111445	0	0	8184	479349	0	0
2024-08-12 00:06:47			0	39568	0	0	0	30722	29330	155222	27033	1078009	46429	111443	0	0	8185	479101	0	0
2024-08-12 00:07:47			0	39571	0	0	0	30732	29320	155202	27215	1078018	46395	111447	0	0	8185	479022	0	0
2024-08-12 00:08:47			0	39553	0	0	0	30732	29340	155362	27097	1078054	46419	111447	0	0	8184	479605	0	0
2024-08-12 00:09:47			0	39600	0	0	0	30716	29330	155346	27204	1077973	46417	111441	0	0	8187	477965	0	0
2024-08-12 00:10:47			0	39584	0	0	0	30724	29330	155242	27225	1078009	46429	111444	0	0	8186	478533	0	0
2024-08-12 00:11:47			0	39595	0	0	0	30724	29330	155290	27024	1078027	46428	111444	0	0	8186	478142	0	0
2024-08-12 00:12:47			0	39593	0	0	0	30724	29330	155286	26994	1078000	46417	111444	0	0	8186	478213	0	0
2024-08-12 00:13:47			0	39577	0	0	0	30724	29320	155098	27029	1078018	46406	111444	0	0	8185	478809	0	0
2024-08-12 00:14:47			0	39581	0	0	0	30722	29320	155178	27111	1077928	46438	111443	0	0	8186	478667	0	0
2024-08-12 00:15:47			0	39590	0	0	0	30724	29320	155210	27229	1078045	46417	111444	0	0	8186	478348	0	0
2024-08-12 00:16:47			0	39576	0	0	0	30722	29320	155166	26970	1078036	46427	111443	0	0	8185	478844	0	0
2024-08-12 00:17:47			0	39570	0	0	0	30716	29330	155170	26613	1078000	46428	111441	0	0	8185	479030	0	0
2024-08-12 00:18:47			0	39585	0	0	0	30722	29320	155186	26968	1077901	46405	111443	0	0	8186	478525	0	0
2024-08-12 00:19:47			0	39596	0	0	0	30711	29320	155138	26641	1077955	46416	111439	0	0	8187	478135	0	0
2024-08-12 00:20:47			0	39593	0	0	0	30714	29310	155210	27079	1077892	46427	111440	0	0	8186	478269	0	0
2024-08-12 00:21:47			0	39601	0	0	0	30706	29320	155214	26736	1077955	46394	111437	0	0	8187	477957	0	0
2024-08-12 00:22:47			0	39611	0	0	0	30703	29310	155230	26887	1077892	46394	111436	0	0	8188	477631	0	0
2024-08-12 00:23:47			0	39595	0	0	0	30703	29310	155122	26578	1077883	46426	111436	0	0	8187	478198	0	0
2024-08-12 00:24:47			0	39602	0	0	0	30696	29310	155162	26743	1077892	46416	111433	0	0	8187	477950	0	0
2024-08-12 00:25:47			0	39600	0	0	0	30693	29300	155182	26590	1077865	46436	111432	0	0	8187	478049	0	0
2024-08-12 00:26:47			0	39618	0	0	0	30698	29300	155162	26719	1077865	46425	111434	0	0	8188	477410	0	0
2024-08-12 00:27:47			0	39604	0	0	0	30693	29310	155126	27163	1077856	46404	111432	0	0	8187	477879	0	0
2024-08-12 00:28:47			0	39602	0	0	0	30688	29310	155194	26975	1077856	46426	111430	0	0	8187	477950	0	0
2024-08-12 00:29:47			0	39620	0	0	0	30693	29300	155110	26856	1077838	46415	111432	0	0	8188	477340	0	0
2024-08-12 00:30:47			0	39606	0	0	0	30701	29300	155262	26785	1077811	46436	111435	0	0	8187	477836	0	0
2024-08-12 00:31:47			0	39610	0	0	0	30696	29290	155194	26977	1077748	46425	111433	0	0	8188	477722	0	0
2024-08-12 00:32:47			0	39605	0	0	0	30688	29290	155226	27031	1077802	46415	111430	0	0	8187	477899	0	0
2024-08-12 00:33:47			0	39598	0	0	0	30693	29290	155266	26762	1077829	46425	111432	0	0	8187	478147	0	0
2024-08-12 00:34:47			0	39605	0	0	0	30685	29290	155250	26800	1077829	46403	111429	0	0	8187	477899	0	0
2024-08-12 00:35:47			0	39599	0	0	0	30685	29290	155254	26925	1077766	46414	111429	0	0	8187	478112	0	0
2024-08-12 00:36:47			0	39613	0	0	0	30683	29290	155166	26897	1077820	46424	111428	0	0	8188	477615	0	0
2024-08-12 00:37:47			0	39609	0	0	0	30680	29300	155194	26677	1077811	46415	111427	0	0	8188	477729	0	0
2024-08-12 00:38:47			0	39604	0	0	0	30677	29290	155166	26831	1077829	46425	111426	0	0	8188	477934	0	0
2024-08-12 00:39:47			0	39619	0	0	0	30698	29290	155246	26739	1077802	46436	111434	0	0	8188	477403	0	0
2024-08-12 00:40:47			0	39587	0	0	0	30690	29290	155154	26852	1077820	46424	111431	0	0	8186	478537	0	0
2024-08-12 00:41:47			0	39607	0	0	0	30680	29290	155146	26913	1077775	46425	111427	0	0	8188	477828	0	0
2024-08-12 00:42:47			0	39600	0	0	0	30683	29290	155106	26779	1077847	46424	111428	0	0	8187	478076	0	0
2024-08-12 00:43:47			0	39611	0	0	0	30688	29290	155170	27017	1077766	46414	111430	0	0	8188	477686	0	0
2024-08-12 00:44:47			0	39615	0	0	0	30680	29290	155110	26982	1077829	46425	111427	0	0	8188	477544	0	0
2024-08-12 00:45:47			0	39601	0	0	0	30685	29270	155118	26953	1077766	46423	111429	0	0	8187	478096	0	0
2024-08-12 00:46:47			0	39625	0	0	0	30685	29290	155126	26776	1077766	46436	111429	0	0	8189	477190	0	0
2024-08-12 00:47:47			0	39606	0	0	0	30683	29290	155190	27052	1077793	46414	111428	0	0	8188	477864	0	0
2024-08-12 00:48:47			0	39611	0	0	0	30680	29280	155090	27277	1077748	46401	111427	0	0	8188	477714	0	0
2024-08-12 00:49:47			0	39611	0	0	0	30683	29280	155170	26984	1077802	46435	111428	0	0	8188	477714	0	0
2024-08-12 00:50:47			0	39619	0	0	0	30680	29290	155166	26993	1077739	46424	111427	0	0	8188	477403	0	0
2024-08-12 00:51:47			0	39632	0	0	0	30675	29280	155110	26864	1077757	46424	111425	0	0	8189	476970	0	0
2024-08-12 00:52:47			0	39618	0	0	0	30672	29290	155034	26953	1077739	46424	111424	0	0	8188	477438	0	0
2024-08-12 00:53:47			0	39635	0	0	0	30675	29280	155082	27003	1077757	46424	111425	0	0	8189	476864	0	0
2024-08-12 00:54:47			0	39626	0	0	0	30672	29270	154986	26944	1077756	46412	111424	0	0	8189	477210	0	0
2024-08-12 00:55:47			0	39630	0	0	0	30677	29270	155110	26812	1077712	46423	111426	0	0	8189	477068	0	0
2024-08-12 00:56:47			0	39652	0	0	0	30670	29280	155190	27027	1077721	46413	111423	0	0	8190	476262	0	0
2024-08-12 00:57:47			0	39630	0	0	0	30670	29260	155142	26816	1077693	46411	111423	0	0	8189	477096	0	0
2024-08-12 00:58:47			0	39634	0	0	0	30659	29250	155174	26828	1077711	46411	111419	0	0	8189	476982	0	0
2024-08-12 00:59:47			0	39634	0	0	0	30662	29260	155174	26894	1077693	46421	111420	0	0	8189	476954	0	0
2024-08-12 01:00:47			0	39622	0	0	0	30664	29260	155178	27046	1077693	46433	111421	0	0	8189	477380	0	0
2024-08-12 01:01:47			0	39627	0	0	0	30662	29260	155178	27069	1077693	46411	111420	0	0	8189	477203	0	0
2024-08-12 01:02:47			0	39638	0	0	0	30667	29250	155170	27093	1077684	46411	111422	0	0	8189	476841	0	0
2024-08-12 01:03:47			0	39631	0	0	0	30657	29250	155182	27105	1077675	46410	111418	0	0	8189	477088	0	0
2024-08-12 01:04:47			0	39644	0	0	0	30654	29240	155098	26960	1077639	46420	111417	0	0	8190	476656	0	0
2024-08-12 01:05:47			0	39633	0	0	0	30646	29240	155158	26743	1077666	46410	111414	0	0	8189	477045	0	0
2024-08-12 01:06:47			0	39634	0	0	0	30649	29250	155178	26930	1077657	46411	111415	0	0	8190	476982	0	0
2024-08-12 01:07:47			0	39651	0	0	0	30644	29250	155142	26837	1077603	46421	111413	0	0	8191	476380	0	0
2024-08-12 01:08:47			0	39658	0	0	0	30657	29240	155086	26769	1077603	46397	111418	0	0	8191	476160	0	0
2024-08-12 01:09:47			0	39628	0	0	0	30659	29250	155126	26916	1077621	46420	111419	0	0	8189	477195	0	0
2024-08-12 01:10:47			0	39633	0	0	0	30644	29250	155122	26989	1077648	46420	111413	0	0	8190	477018	0	0
2024-08-12 01:11:47			0	39642	0	0	0	30649	29240	155178	27249	1077639	46420	111415	0	0	8190	476727	0	0
2024-08-12 01:12:47			0	39634	0	0	0	30641	29250	155194	27147	1077621	46420	111412	0	0	8190	476982	0	0
2024-08-12 01:13:47			0	39641	0	0	0	30649	29250	155194	26845	1077621	46420	111415	0	0	8190	476734	0	0
2024-08-12 01:14:47			0	39643	0	0	0	30644	29240	155186	26982	1077612	46431	111413	0	0	8190	476691	0	0
2024-08-12 01:15:47			0	39628	0	0	0	30644	29240	155102	27133	1077549	46419	111413	0	0	8189	477223	0	0
2024-08-12 01:16:47			0	39642	0	0	0	30638	29240	155090	27000	1077549	46409	111411	0	0	8190	476727	0	0
2024-08-12 01:17:47			0	39648	0	0	0	30644	29240	155166	26885	1077558	46410	111413	0	0	8190	476514	0	0
2024-08-12 01:18:47			0	39625	0	0	0	30636	29240	155130	26788	1077522	46409	111410	0	0	8189	477329	0	0
2024-08-12 01:19:47			0	39646	0	0	0	30636	29240	155142	27093	1077549	46409	111410	0	0	8190	476585	0	0
2024-08-12 01:20:47			0	39647	0	0	0	30638	29230	155154	26771	1077567	46409	111411	0	0	8190	476577	0	0
2024-08-12 01:21:47			0	39654	0	0	0	30631	29230	155042	26759	1077513	46419	111408	0	0	8191	476329	0	0
2024-08-12 01:22:47			0	39655	0	0	0	30625	29230	155102	26916	1077540	46409	111406	0	0	8191	476294	0	0
2024-08-12 01:23:47			0	39656	0	0	0	30625	29230	155114	27152	1077504	46429	111406	0	0	8191	476259	0	0
2024-08-12 01:24:47			0	39653	0	0	0	30628	29230	155114	27107	1077477	46408	111407	0	0	8191	476365	0	0
2024-08-12 01:25:47			0	39648	0	0	0	30628	29220	155102	26786	1077540	46407	111407	0	0	8191	476569	0	0
2024-08-12 01:26:47			0	39664	0	0	0	30618	29220	155086	26909	1077486	46407	111403	0	0	8192	476003	0	0
2024-08-12 01:27:47			0	39660	0	0	0	30625	29230	155046	26935	1077504	46418	111406	0	0	8191	476117	0	0
2024-08-12 01:28:47			0	39645	0	0	0	30618	29220	154990	27291	1077522	46408	111403	0	0	8191	476676	0	0
2024-08-12 01:29:47			0	39660	0	0	0	30612	29210	155042	27248	1077450	46417	111401	0	0	8191	476172	0	0
2024-08-12 01:30:47			0	39654	0	0	0	30612	29210	155090	27062	1077387	46394	111401	0	0	8191	476385	0	0
2024-08-12 01:31:47			0	39656	0	0	0	30607	29210	154974	27407	1077423	46417	111399	0	0	8191	476314	0	0
2024-08-12 01:32:47			0	39664	0	0	0	30607	29210	155034	27282	1077396	46428	111399	0	0	8192	476031	0	0
2024-08-12 01:33:47			0	39651	0	0	0	30612	29210	155062	27206	1077387	46416	111401	0	0	8191	476491	0	0
2024-08-12 01:34:47			0	39664	0	0	0	30599	29210	155050	27339	1077342	46407	111396	0	0	8192	476031	0	0
2024-08-12 01:35:47			0	39655	0	0	0	30610	29200	155034	26991	1077432	46416	111400	0	0	8191	476377	0	0
2024-08-12 01:36:47			0	39669	0	0	0	30602	29200	155046	27419	1077378	46427	111397	0	0	8192	475882	0	0
2024-08-12 01:37:47			0	39664	0	0	0	30602	29200	155098	26847	1077351	46416	111397	0	0	8192	476058	0	0
2024-08-12 01:38:47			0	39642	0	0	0	30589	29200	155078	27178	1077369	46416	111392	0	0	8191	476837	0	0
2024-08-12 01:39:47			0	39656	0	0	0	30599	29200	154990	27022	1077351	46416	111396	0	0	8191	476342	0	0
2024-08-12 01:40:47			0	39659	0	0	0	30597	29190	155058	27377	1077414	46416	111395	0	0	8192	476263	0	0
2024-08-12 01:41:47			0	39656	0	0	0	30589	29200	155054	27376	1077342	46393	111392	0	0	8192	476342	0	0
2024-08-12 01:42:47			0	39643	0	0	0	30584	29190	155098	26939	1077387	46405	111390	0	0	8191	476830	0	0
2024-08-12 01:43:47			0	39643	0	0	0	30586	29190	155058	26882	1077351	46415	111391	0	0	8191	476830	0	0
2024-08-12 01:44:47			0	39630	0	0	0	30594	29190	155178	27199	1077360	46393	111394	0	0	8190	477290	0	0
2024-08-12 01:45:47			0	39653	0	0	0	30584	29190	155218	27081	1077324	46404	111390	0	0	8191	476475	0	0
2024-08-12 01:46:47			0	39646	0	0	0	30581	29190	155146	27150	1077324	46415	111389	0	0	8191	476723	0	0
2024-08-12 01:47:47			0	39641	0	0	0	30576	29190	155146	27287	1077270	46404	111387	0	0	8191	476900	0	0
2024-08-12 01:48:47			0	39643	0	0	0	30581	29190	155166	27015	1077243	46415	111389	0	0	8191	476830	0	0
2024-08-12 01:49:47			0	39652	0	0	0	30576	29180	155190	27064	1077180	46403	111387	0	0	8191	476539	0	0
2024-08-12 01:50:47			0	39641	0	0	0	30563	29180	155206	27081	1077261	46414	111382	0	0	8191	476928	0	0
2024-08-12 01:51:47			0	39645	0	0	0	30561	29170	155162	27218	1077234	46413	111381	0	0	8191	476814	0	0
2024-08-12 01:52:47			0	39655	0	0	0	30566	29180	155158	26765	1077198	46425	111383	0	0	8192	476432	0	0
2024-08-12 01:53:47			0	39630	0	0	0	30568	29160	155182	27081	1077197	46412	111384	0	0	8190	477373	0	0
2024-08-12 01:54:47			0	39637	0	0	0	30563	29180	155262	27251	1077225	46414	111382	0	0	8191	477070	0	0
2024-08-12 01:55:47			0	39656	0	0	0	30555	29160	155286	27116	1077143	46401	111379	0	0	8192	476452	0	0
2024-08-12 01:56:47			0	39639	0	0	0	30553	29150	155282	27001	1077152	46411	111378	0	0	8191	477082	0	0
2024-08-12 01:57:47			0	39644	0	0	0	30545	29150	155274	27048	1077152	46400	111375	0	0	8191	476905	0	0
2024-08-12 01:58:47			0	39640	0	0	0	30550	29160	155326	27066	1077161	46401	111377	0	0	8191	477019	0	0
2024-08-12 01:59:47			0	39628	0	0	0	30542	29150	155314	26951	1077089	46400	111374	0	0	8191	477472	0	0
2024-08-12 02:00:47			0	39637	0	0	0	30535	29150	155262	27116	1077017	46411	111371	0	0	8191	477153	0	0
2024-08-12 02:01:47			0	39629	0	0	0	30545	29140	155318	26821	1077044	46409	111375	0	0	8191	477464	0	0
2024-08-12 02:02:47			0	39620	0	0	0	30542	29140	155354	26925	1077026	46421	111374	0	0	8190	477783	0	0
2024-08-12 02:03:47			0	39621	0	0	0	30537	29140	155298	27138	1077107	46399	111372	0	0	8190	477748	0	0
2024-08-12 02:04:47			0	39624	0	0	0	30540	29140	155326	26850	1077071	46398	111373	0	0	8190	477641	0	0
2024-08-12 02:05:47			0	39631	0	0	0	30537	29140	155390	26958	1077107	46399	111372	0	0	8191	477393	0	0
2024-08-12 02:06:47			0	39622	0	0	0	30537	29140	155350	26996	1077053	46421	111372	0	0	8190	477712	0	0
2024-08-12 02:07:47			0	39622	0	0	0	30537	29140	155294	27163	1077017	46398	111372	0	0	8190	477712	0	0
2024-08-12 02:08:47			0	39624	0	0	0	30540	29140	155294	27270	1077053	46421	111373	0	0	8190	477641	0	0
2024-08-12 02:09:47			0	39611	0	0	0	30535	29130	155222	27072	1077089	46409	111371	0	0	8190	478130	0	0
2024-08-12 02:10:47			0	39609	0	0	0	30524	29130	155206	27379	1077035	46420	111367	0	0	8190	478201	0	0
2024-08-12 02:11:47			0	39638	0	0	0	30532	29140	155358	27346	1077017	46409	111370	0	0	8191	477145	0	0
2024-08-12 02:12:47			0	39623	0	0	0	30524	29130	155318	27260	1076972	46409	111367	0	0	8191	477705	0	0
2024-08-12 02:13:47			0	39633	0	0	0	30529	29120	155282	27277	1076963	46419	111369	0	0	8191	477378	0	0
2024-08-12 02:14:47			0	39598	0	0	0	30524	29130	155330	27265	1077008	46409	111367	0	0	8189	478592	0	0
2024-08-12 02:15:47			0	39611	0	0	0	30519	29130	155306	27377	1076972	46420	111365	0	0	8190	478130	0	0
2024-08-12 02:16:47			0	39618	0	0	0	30514	29120	155270	27183	1076963	46408	111363	0	0	8190	477910	0	0
2024-08-12 02:17:47			0	39614	0	0	0	30519	29120	155330	27144	1076963	46397	111365	0	0	8190	478052	0	0
2024-08-12 02:18:47			0	39627	0	0	0	30519	29130	155338	27156	1077008	46409	111365	0	0	8191	477563	0	0
2024-08-12 02:19:47			0	39625	0	0	0	30509	29130	155222	27081	1076918	46420	111361	0	0	8191	477634	0	0
2024-08-12 02:20:47			0	39635	0	0	0	30509	29110	155282	27024	1076963	46418	111361	0	0	8191	477335	0	0
2024-08-12 02:21:47			0	39627	0	0	0	30514	29120	155262	26864	1076927	46407	111363	0	0	8191	477591	0	0
2024-08-12 02:22:47			0	39631	0	0	0	30516	29110	155258	27086	1076972	46407	111364	0	0	8191	477476	0	0
2024-08-12 02:23:47			0	39619	0	0	0	30509	29120	155346	26857	1076954	46418	111361	0	0	8190	477874	0	0
2024-08-12 02:24:47			0	39632	0	0	0	30516	29110	155266	26882	1076918	46418	111364	0	0	8191	477441	0	0
2024-08-12 02:25:47			0	39631	0	0	0	30514	29110	155190	26811	1076918	46396	111363	0	0	8191	477476	0	0
2024-08-12 02:26:47			0	39631	0	0	0	30516	29120	155366	27121	1076927	46407	111364	0	0	8191	477449	0	0
2024-08-12 02:27:47			0	39618	0	0	0	30511	29110	155334	27163	1076945	46407	111362	0	0	8190	477938	0	0
2024-08-12 02:28:47			0	39610	0	0	0	30506	29110	155262	27199	1076891	46418	111360	0	0	8190	478221	0	0
2024-08-12 02:29:47			0	39614	0	0	0	30511	29110	155346	26844	1076918	46418	111362	0	0	8190	478080	0	0
2024-08-12 02:30:47			0	39634	0	0	0	30511	29110	155310	27055	1076909	46407	111362	0	0	8191	477370	0	0
2024-08-12 02:31:47			0	39621	0	0	0	30509	29100	155414	27270	1076873	46417	111361	0	0	8191	477859	0	0
2024-08-12 02:32:47			0	39621	0	0	0	30506	29110	155294	27150	1076810	46407	111360	0	0	8191	477831	0	0
2024-08-12 02:33:47			0	39632	0	0	0	30501	29110	155310	27072	1076882	46418	111358	0	0	8191	477441	0	0
2024-08-12 02:34:47			0	39617	0	0	0	30503	29110	155350	27403	1076864	46407	111359	0	0	8190	477973	0	0
2024-08-12 02:35:47			0	39630	0	0	0	30498	29100	155318	27192	1076873	46417	111357	0	0	8191	477540	0	0
2024-08-12 02:36:47			0	39624	0	0	0	30496	29110	155306	27338	1076882	46407	111356	0	0	8191	477725	0	0
2024-08-12 02:37:47			0	39636	0	0	0	30496	29110	155330	27336	1076864	46407	111356	0	0	8192	477299	0	0
2024-08-12 02:38:47			0	39637	0	0	0	30498	29100	155358	27260	1076810	46405	111357	0	0	8192	477291	0	0
2024-08-12 02:39:47			0	39625	0	0	0	30485	29100	155306	27079	1076837	46416	111352	0	0	8191	477717	0	0
2024-08-12 02:40:47			0	39647	0	0	0	30498	29100	155302	27161	1076846	46417	111357	0	0	8192	476937	0	0
2024-08-12 02:41:47			0	39634	0	0	0	30488	29090	155330	27013	1076855	46416	111353	0	0	8192	477426	0	0
2024-08-12 02:42:47			0	39640	0	0	0	30485	29090	155326	27097	1076801	46416	111352	0	0	8192	477213	0	0
2024-08-12 02:43:47			0	39633	0	0	0	30488	29090	155242	27379	1076801	46405	111353	0	0	8192	477461	0	0
2024-08-12 02:44:47			0	39623	0	0	0	30493	29100	155346	26809	1076837	46394	111355	0	0	8191	477788	0	0
2024-08-12 02:45:47			0	39639	0	0	0	30477	29090	155290	26991	1076765	46416	111349	0	0	8192	477248	0	0
2024-08-12 02:46:47			0	39638	0	0	0	30477	29090	155294	27031	1076738	46416	111349	0	0	8192	477284	0	0
2024-08-12 02:47:47			0	39618	0	0	0	30485	29090	155358	27109	1076774	46394	111352	0	0	8191	477993	0	0
2024-08-12 02:48:47			0	39633	0	0	0	30483	29080	155290	27088	1076756	46393	111351	0	0	8192	477489	0	0
2024-08-12 02:49:47			0	39628	0	0	0	30477	29090	155306	26902	1076738	46394	111349	0	0	8191	477638	0	0
2024-08-12 02:50:47			0	39617	0	0	0	30464	29080	155254	26802	1076720	46403	111344	0	0	8191	478056	0	0
2024-08-12 02:51:47			0	39615	0	0	0	30467	29090	155234	27246	1076738	46394	111345	0	0	8191	478099	0	0
2024-08-12 02:52:47			0	39635	0	0	0	30470	29080	155242	26856	1076720	46415	111346	0	0	8192	477418	0	0
2024-08-12 02:53:47			0	39629	0	0	0	30470	29070	155254	27287	1076630	46414	111346	0	0	8191	477658	0	0
2024-08-12 02:54:47			0	39645	0	0	0	30464	29070	155254	27026	1076701	46391	111344	0	0	8193	477091	0	0
2024-08-12 02:55:47			0	39635	0	0	0	30462	29070	155226	27140	1076701	46402	111343	0	0	8192	477446	0	0
2024-08-12 02:56:47			0	39623	0	0	0	30462	29060	155246	27287	1076638	46402	111343	0	0	8191	477899	0	0
2024-08-12 02:57:47			0	39624	0	0	0	30457	29060	155246	27039	1076611	46414	111341	0	0	8191	477863	0	0
2024-08-12 02:58:47			0	39625	0	0	0	30451	29060	155418	27213	1076611	46424	111339	0	0	8192	477828	0	0
2024-08-12 02:59:47			0	39632	0	0	0	30454	29070	155354	26819	1076701	46402	111340	0	0	8192	477552	0	0
2024-08-12 03:00:47			0	39634	0	0	0	30457	29070	155422	26994	1076603	46402	111341	0	0	8192	477481	0	0
2024-08-12 03:01:47			0	39635	0	0	0	30446	29060	155282	27232	1076611	46391	111337	0	0	8192	477473	0	0
2024-08-12 03:02:47			0	39624	0	0	0	30446	29060	155258	27039	1076558	46402	111337	0	0	8192	477863	0	0
2024-08-12 03:03:47			0	39637	0	0	0	30446	29060	155354	27033	1076602	46401	111337	0	0	8192	477402	0	0
2024-08-12 03:04:47			0	39626	0	0	0	30444	29060	155310	27036	1076575	46401	111336	0	0	8192	477792	0	0
2024-08-12 03:05:47			0	39629	0	0	0	30451	29050	155290	27003	1076530	46400	111339	0	0	8192	477714	0	0
2024-08-12 03:06:47			0	39616	0	0	0	30438	29050	155306	27119	1076584	46400	111334	0	0	8191	478175	0	0
2024-08-12 03:07:47			0	39621	0	0	0	30438	29050	155278	27254	1076485	46412	111334	0	0	8191	477998	0	0
2024-08-12 03:08:47			0	39617	0	0	0	30441	29050	155306	27215	1076593	46400	111335	0	0	8191	478140	0	0
2024-08-12 03:09:47			0	39627	0	0	0	30433	29050	155354	27071	1076566	46389	111332	0	0	8192	477785	0	0
2024-08-12 03:10:47			0	39632	0	0	0	30433	29040	155366	27078	1076548	46412	111332	0	0	8192	477635	0	0
2024-08-12 03:11:47			0	39624	0	0	0	30433	29040	155362	26909	1076467	46389	111332	0	0	8192	477919	0	0
2024-08-12 03:12:47			0	39619	0	0	0	30428	29040	155386	27161	1076512	46399	111330	0	0	8192	478096	0	0
2024-08-12 03:13:47			0	39622	0	0	0	30425	29030	155446	27034	1076476	46398	111329	0	0	8192	478017	0	0
2024-08-12 03:14:47			0	39618	0	0	0	30423	29030	155358	27220	1076530	46398	111328	0	0	8191	478159	0	0
2024-08-12 03:15:47			0	39620	0	0	0	30425	29030	155374	26844	1076503	46410	111329	0	0	8192	478089	0	0
2024-08-12 03:16:47			0	39629	0	0	0	30420	29030	155434	27043	1076440	46398	111327	0	0	8192	477769	0	0
2024-08-12 03:17:47			0	39612	0	0	0	30420	29030	155482	27223	1076467	46387	111327	0	0	8191	478372	0	0
2024-08-12 03:18:47			0	39619	0	0	0	30410	29020	155418	26882	1076431	46398	111323	0	0	8192	478152	0	0
2024-08-12 03:19:47			0	39615	0	0	0	30415	29020	155390	26902	1076377	46398	111325	0	0	8191	478294	0	0
2024-08-12 03:20:47			0	39631	0	0	0	30410	29010	155426	27277	1076359	46385	111323	0	0	8192	477754	0	0
2024-08-12 03:21:47			0	39606	0	0	0	30399	29020	155558	26981	1076458	46387	111319	0	0	8191	478613	0	0
2024-08-12 03:22:47			0	39606	0	0	0	30397	29020	155446	26953	1076395	46386	111318	0	0	8191	478613	0	0
2024-08-12 03:23:47			0	39614	0	0	0	30394	29020	155510	27062	1076395	46397	111317	0	0	8192	478329	0	0
2024-08-12 03:24:47			0	39615	0	0	0	30397	29020	155406	26618	1076368	46397	111318	0	0	8192	478294	0	0
2024-08-12 03:25:47			0	39611	0	0	0	30397	29010	155566	27081	1076323	46395	111318	0	0	8191	478464	0	0
2024-08-12 03:26:47			0	39611	0	0	0	30392	29010	155350	26870	1076377	46417	111316	0	0	8192	478464	0	0
2024-08-12 03:27:47			0	39627	0	0	0	30381	29010	155466	26975	1076350	46407	111312	0	0	8193	477896	0	0
2024-08-12 03:28:47			0	39611	0	0	0	30379	29000	155526	26727	1076233	46395	111311	0	0	8192	478491	0	0
2024-08-12 03:29:47			0	39609	0	0	0	30389	29000	155370	27131	1076260	46395	111315	0	0	8191	478562	0	0
2024-08-12 03:30:47			0	39624	0	0	0	30389	28990	155446	26963	1076269	46406	111315	0	0	8192	478057	0	0
2024-08-12 03:31:47			0	39613	0	0	0	30379	28990	155542	26960	1076296	46394	111311	0	0	8192	478448	0	0
2024-08-12 03:32:47			0	39607	0	0	0	30381	28990	155498	27020	1076269	46406	111312	0	0	8191	478661	0	0
2024-08-12 03:33:47			0	39601	0	0	0	30373	29000	155478	26772	1076251	46407	111309	0	0	8191	478846	0	0
2024-08-12 03:34:47			0	39618	0	0	0	30381	28990	155434	27081	1076269	46394	111312	0	0	8192	478270	0	0
2024-08-12 03:35:47			0	39607	0	0	0	30373	28990	155526	26965	1076215	46416	111309	0	0	8192	478661	0	0
2024-08-12 03:36:47			0	39601	0	0	0	30373	28990	155506	26993	1076215	46394	111309	0	0	8191	478874	0	0
2024-08-12 03:37:47			0	39596	0	0	0	30379	28990	155566	26793	1076233	46405	111311	0	0	8191	479052	0	0
2024-08-12 03:38:47			0	39614	0	0	0	30366	28980	155458	27140	1076170	46393	111306	0	0	8192	478440	0	0
2024-08-12 03:39:47			0	39604	0	0	0	30368	28980	155462	27083	1076224	46405	111307	0	0	8191	478795	0	0
2024-08-12 03:40:47			0	39613	0	0	0	30361	28980	155566	27111	1076170	46405	111304	0	0	8192	478476	0	0
2024-08-12 03:41:47			0	39585	0	0	0	30358	28980	155482	26890	1076161	46405	111303	0	0	8190	479471	0	0
2024-08-12 03:42:47			0	39592	0	0	0	30361	28980	155482	27024	1076188	46405	111304	0	0	8191	479222	0	0
2024-08-12 03:43:47			0	39582	0	0	0	30348	28970	155574	27055	1076116	46380	111299	0	0	8190	479605	0	0
2024-08-12 03:44:47			0	39568	0	0	0	30361	28970	155598	27017	1076152	46381	111304	0	0	8189	480103	0	0
2024-08-12 03:45:47			0	39589	0	0	0	30368	28980	155494	27140	1076134	46405	111307	0	0	8191	479328	0	0
2024-08-12 03:46:47			0	39591	0	0	0	30366	28970	155690	27005	1076143	46403	111306	0	0	8191	479285	0	0
2024-08-12 03:47:47			0	39596	0	0	0	30371	28970	155566	27010	1076197	46391	111308	0	0	8191	479107	0	0
2024-08-12 03:48:47			0	39581	0	0	0	30384	28960	155618	27263	1076161	46414	111313	0	0	8190	479668	0	0
2024-08-12 03:49:47			0	39570	0	0	0	30389	28970	155574	27178	1076206	46392	111315	0	0	8189	480032	0	0
2024-08-12 03:50:47			0	39564	0	0	0	30407	28980	155614	27052	1076296	46405	111322	0	0	8188	480218	0	0
2024-08-12 03:51:47			0	39583	0	0	0	30423	28980	155670	26826	1076403	46405	111328	0	0	8189	479542	0	0
2024-08-12 03:52:47			0	39569	0	0	0	30425	29000	155582	26961	1076413	46417	111329	0	0	8189	479984	0	0
2024-08-12 03:53:47			0	39595	0	0	0	30428	28990	155554	27027	1076404	46406	111330	0	0	8190	479087	0	0
2024-08-12 03:54:47			0	39591	0	0	0	30436	28990	155522	27324	1076404	46416	111333	0	0	8190	479230	0	0
2024-08-12 03:55:47			0	39578	0	0	0	30438	29000	155494	26889	1076413	46417	111334	0	0	8189	479664	0	0
2024-08-12 03:56:47			0	39626	0	0	0	30441	29010	155522	27145	1076431	46429	111335	0	0	8192	477931	0	0
2024-08-12 03:57:47			0	39616	0	0	0	30449	29010	155350	27216	1076458	46429	111338	0	0	8191	478286	0	0
2024-08-12 03:58:47			0	39620	0	0	0	30449	29020	155430	26981	1076566	46420	111338	0	0	8191	478116	0	0
2024-08-12 03:59:47			0	39635	0	0	0	30454	29020	155326	27218	1076512	46410	111340	0	0	8192	477584	0	0
2024-08-12 04:00:47			0	39630	0	0	0	30462	29030	155234	27178	1076602	46420	111343	0	0	8192	477734	0	0
2024-08-12 04:01:47			0	39657	0	0	0	30449	29030	155242	27135	1076611	46410	111338	0	0	8193	476776	0	0
2024-08-12 04:02:47			0	39646	0	0	0	30459	29040	155250	26824	1076602	46422	111342	0	0	8193	477139	0	0
2024-08-12 04:03:47			0	39657	0	0	0	30462	29050	155218	26899	1076665	46412	111343	0	0	8193	476721	0	0
2024-08-12 04:04:47			0	39669	0	0	0	30462	29040	155226	27145	1076593	46421	111343	0	0	8194	476324	0	0
2024-08-12 04:05:47			0	39663	0	0	0	30459	29050	155194	27118	1076584	46400	111342	0	0	8194	476509	0	0
2024-08-12 04:06:47			0	39676	0	0	0	30457	29040	155194	27038	1076593	46411	111341	0	0	8194	476076	0	0
2024-08-12 04:07:47			0	39652	0	0	0	30459	29050	155226	27086	1076584	46400	111342	0	0	8193	476898	0	0
2024-08-12 04:08:47			0	39661	0	0	0	30438	29030	155182	26844	1076449	46398	111334	0	0	8194	476635	0	0
2024-08-12 04:09:47			0	39663	0	0	0	30425	29020	155346	27059	1076458	46387	111329	0	0	8194	476592	0	0
2024-08-12 04:10:47			0	39682	0	0	0	30423	29020	155194	26722	1076368	46386	111328	0	0	8195	475919	0	0
2024-08-12 04:11:47			0	39695	0	0	0	30407	29010	155246	26870	1076278	46396	111322	0	0	8196	475486	0	0
2024-08-12 04:12:47			0	39698	0	0	0	30389	29000	155202	27072	1076143	46384	111315	0	0	8196	475408	0	0
2024-08-12 04:13:47			0	39694	0	0	0	30381	28990	155150	26733	1076215	46372	111312	0	0	8196	475577	0	0
2024-08-12 04:14:47			0	39713	0	0	0	30373	28980	155198	26821	1076107	46382	111309	0	0	8197	474932	0	0
2024-08-12 04:15:47			0	39716	0	0	0	30358	28970	155106	27170	1076044	46381	111303	0	0	8198	474854	0	0
2024-08-12 04:16:47			0	39723	0	0	0	30355	28960	155122	26979	1076026	46391	111302	0	0	8198	474634	0	0
2024-08-12 04:17:47			0	39712	0	0	0	30348	28950	155206	27053	1076044	46403	111299	0	0	8198	475050	0	0
2024-08-12 04:18:47			0	39729	0	0	0	30350	28930	155070	26968	1075980	46388	111300	0	0	8199	474504	0	0
2024-08-12 04:19:47			0	39726	0	0	0	30340	28940	155154	26864	1075972	46401	111296	0	0	8199	474583	0	0
2024-08-12 04:20:47			0	39729	0	0	0	30335	28930	155210	26833	1075944	46411	111294	0	0	8199	474504	0	0
2024-08-12 04:21:47			0	39719	0	0	0	30332	28930	155210	27255	1075980	46400	111293	0	0	8198	474858	0	0
2024-08-12 04:22:47			0	39693	0	0	0	30332	28920	155142	26824	1075881	46399	111293	0	0	8197	475805	0	0
2024-08-12 04:23:47			0	39703	0	0	0	30327	28920	155246	27093	1075899	46386	111291	0	0	8197	475452	0	0
2024-08-12 04:24:47			0	39680	0	0	0	30316	28910	155310	27173	1075809	46386	111287	0	0	8196	476293	0	0
2024-08-12 04:25:47			0	39661	0	0	0	30306	28910	155350	27147	1075773	46398	111283	0	0	8195	476967	0	0
2024-08-12 04:26:47			0	39658	0	0	0	30293	28900	155346	27086	1075701	46407	111278	0	0	8195	477101	0	0
2024-08-12 04:27:47			0	39642	0	0	0	30290	28890	155462	27133	1075683	46374	111277	0	0	8194	477696	0	0
2024-08-12 04:28:47			0	39609	0	0	0	30270	28890	155602	26883	1075656	46384	111269	0	0	8193	478868	0	0
2024-08-12 04:29:47			0	39584	0	0	0	30264	28880	155618	27182	1075584	46382	111267	0	0	8192	479784	0	0
2024-08-12 04:30:47			0	39568	0	0	0	30246	28870	155774	26927	1075548	46372	111260	0	0	8191	480382	0	0
2024-08-12 04:31:47			0	39538	0	0	0	30236	28860	155838	27145	1075449	46381	111256	0	0	8189	481478	0	0
2024-08-12 04:32:47			0	39511	0	0	0	30223	28850	156026	27057	1075448	46379	111251	0	0	8188	482469	0	0
2024-08-12 04:33:47			0	39477	0	0	0	30210	28840	156006	26812	1075403	46368	111246	0	0	8186	483711	0	0
2024-08-12 04:34:47			0	39460	0	0	0	30210	28830	156246	26797	1075340	46389	111246	0	0	8185	484347	0	0
2024-08-12 04:35:47			0	39400	0	0	0	30202	28820	156257	26859	1075313	46388	111243	0	0	8182	486524	0	0
2024-08-12 04:36:47			0	39372	0	0	0	30186	28820	156529	26632	1075349	46377	111237	0	0	8181	487529	0	0
2024-08-12 04:37:47			0	39338	0	0	0	30186	28820	156717	26977	1075313	46376	111237	0	0	8179	488751	0	0
2024-08-12 04:38:47			0	39279	0	0	0	30174	28810	156825	27234	1075322	46375	111232	0	0	8176	490904	0	0
2024-08-12 04:39:47			0	39247	0	0	0	30168	28800	157021	26857	1075286	46386	111230	0	0	8174	492087	0	0
2024-08-12 04:40:47			0	39190	0	0	0	30161	28790	157213	26894	1075187	46385	111227	0	0	8171	494176	0	0
2024-08-12 04:41:47			0	39165	0	0	0	30171	28790	157321	26785	1075241	46374	111231	0	0	8169	495081	0	0
2024-08-12 04:42:47			0	39155	0	0	0	30168	28790	157465	27045	1075187	46374	111230	0	0	8168	495443	0	0
2024-08-12 04:43:47			0	39106	0	0	0	30158	28780	157529	27055	1075079	46384	111226	0	0	8166	497250	0	0
2024-08-12 04:44:47			0	39105	0	0	0	30150	28780	157565	26698	1075133	46373	111223	0	0	8166	497286	0	0
2024-08-12 04:45:47			0	39093	0	0	0	30155	28780	157485	26989	1075061	46395	111225	0	0	8165	497723	0	0
2024-08-12 04:46:47			0	39082	0	0	0	30153	28770	157685	26932	1075088	46371	111224	0	0	8164	498151	0	0
2024-08-12 04:47:47			0	39071	0	0	0	30150	28770	157657	26809	1075115	46382	111223	0	0	8164	498551	0	0
2024-08-12 04:48:47			0	39075	0	0	0	30153	28760	157749	27090	1074998	46393	111224	0	0	8164	498435	0	0
2024-08-12 04:49:47			0	39071	0	0	0	30142	28760	157725	26779	1075106	46393	111220	0	0	8164	498580	0	0
2024-08-12 04:50:47			0	39056	0	0	0	30140	28760	157721	27137	1075079	46382	111219	0	0	8163	499126	0	0
2024-08-12 04:51:47			0	39081	0	0	0	30132	28760	157593	27001	1075070	46371	111216	0	0	8165	498216	0	0
2024-08-12 04:52:47			0	39089	0	0	0	30137	28760	157785	26906	1075043	46371	111218	0	0	8165	497926	0	0
2024-08-12 04:53:47			0	39087	0	0	0	30135	28760	157689	27007	1075043	46371	111217	0	0	8165	497998	0	0
2024-08-12 04:54:47			0	39093	0	0	0	30129	28750	157721	27062	1074944	46391	111215	0	0	8165	497809	0	0
2024-08-12 04:55:47			0	39097	0	0	0	30127	28750	157737	27083	1074971	46380	111214	0	0	8166	497664	0	0
2024-08-12 04:56:47			0	39110	0	0	0	30122	28740	157701	27019	1074989	46380	111212	0	0	8166	497220	0	0
2024-08-12 04:57:47			0	39101	0	0	0	30129	28740	157609	26873	1074962	46380	111215	0	0	8166	497547	0	0
2024-08-12 04:58:47			0	39108	0	0	0	30116	28740	157633	26798	1074926	46379	111210	0	0	8166	497293	0	0
2024-08-12 04:59:47			0	39093	0	0	0	30122	28730	157593	27114	1074890	46368	111212	0	0	8165	497867	0	0
2024-08-12 05:00:47			0	39100	0	0	0	30122	28730	157721	26724	1074971	46379	111212	0	0	8166	497612	0	0
2024-08-12 05:01:47			0	39121	0	0	0	30119	28730	157625	27015	1074908	46389	111211	0	0	8167	496849	0	0
2024-08-12 05:02:47			0	39116	0	0	0	30111	28730	157713	26878	1074890	46379	111208	0	0	8167	497031	0	0
2024-08-12 05:03:47			0	39115	0	0	0	30111	28720	157641	26786	1074845	46378	111208	0	0	8167	497096	0	0
2024-08-12 05:04:47			0	39127	0	0	0	30116	28720	157625	26955	1074872	46367	111210	0	0	8167	496660	0	0
2024-08-12 05:05:47			0	39121	0	0	0	30114	28720	157557	27043	1074926	46367	111209	0	0	8167	496878	0	0
2024-08-12 05:06:47			0	39133	0	0	0	30106	28730	157649	26861	1074917	46390	111206	0	0	8168	496414	0	0
2024-08-12 05:07:47			0	39128	0	0	0	30103	28720	157625	27123	1074872	46378	111205	0	0	8168	496624	0	0
2024-08-12 05:08:47			0	39118	0	0	0	30109	28720	157653	27027	1074863	46366	111207	0	0	8167	496987	0	0
2024-08-12 05:09:47			0	39114	0	0	0	30101	28710	157521	26682	1074899	46376	111204	0	0	8167	497161	0	0
2024-08-12 05:10:47			0	39136	0	0	0	30101	28720	157697	26915	1074890	46388	111204	0	0	8168	496333	0	0
2024-08-12 05:11:47			0	39107	0	0	0	30109	28720	157621	27055	1074890	46377	111207	0	0	8166	497387	0	0
2024-08-12 05:12:47			0	39139	0	0	0	30103	28710	157633	27069	1074854	46400	111205	0	0	8168	496253	0	0
2024-08-12 05:13:47			0	39121	0	0	0	30098	28720	157633	27067	1074863	46366	111203	0	0	8167	496878	0	0
2024-08-12 05:14:47			0	39109	0	0	0	30103	28710	157677	27166	1074800	46388	111205	0	0	8167	497343	0	0
2024-08-12 05:15:47			0	39133	0	0	0	30098	28710	157585	26970	1074872	46376	111203	0	0	8168	496471	0	0
2024-08-12 05:16:47			0	39125	0	0	0	30093	28710	157605	27062	1074800	46355	111201	0	0	8168	496762	0	0
2024-08-12 05:17:47			0	39118	0	0	0	30090	28710	157653	26722	1074845	46376	111200	0	0	8167	497016	0	0
2024-08-12 05:18:47			0	39124	0	0	0	30090	28700	157645	26854	1074800	46375	111200	0	0	8168	496827	0	0
2024-08-12 05:19:47			0	39126	0	0	0	30090	28700	157485	27079	1074782	46376	111200	0	0	8168	496754	0	0
2024-08-12 05:20:47			0	39114	0	0	0	30098	28710	157585	27067	1074854	46366	111203	0	0	8167	497161	0	0
2024-08-12 05:21:47			0	39124	0	0	0	30088	28710	157657	27157	1074827	46366	111199	0	0	8168	496798	0	0
2024-08-12 05:22:47			0	39102	0	0	0	30077	28700	157677	26811	1074809	46365	111195	0	0	8167	497626	0	0
2024-08-12 05:23:47			0	39138	0	0	0	30083	28700	157621	27005	1074800	46386	111197	0	0	8169	496318	0	0
2024-08-12 05:24:47			0	39124	0	0	0	30085	28700	157549	26908	1074755	46376	111198	0	0	8168	496827	0	0
2024-08-12 05:25:47			0	39106	0	0	0	30077	28700	157557	27239	1074800	46364	111195	0	0	8167	497481	0	0
2024-08-12 05:26:47			0	39113	0	0	0	30088	28700	157637	27083	1074746	46364	111199	0	0	8167	497226	0	0
2024-08-12 05:27:47			0	39132	0	0	0	30083	28690	157681	27223	1074737	46375	111197	0	0	8168	496565	0	0
2024-08-12 05:28:47			0	39099	0	0	0	30080	28690	157673	27079	1074764	46375	111196	0	0	8166	497764	0	0
2024-08-12 05:29:47			0	39114	0	0	0	30077	28700	157593	26880	1074836	46376	111195	0	0	8167	497190	0	0
2024-08-12 05:30:47			0	39123	0	0	0	30077	28690	157673	27199	1074764	46375	111195	0	0	8168	496892	0	0
2024-08-12 05:31:47			0	39110	0	0	0	30083	28690	157529	26897	1074755	46385	111197	0	0	8167	497364	0	0
2024-08-12 05:32:47			0	39114	0	0	0	30067	28690	157637	26866	1074791	46364	111191	0	0	8167	497219	0	0
2024-08-12 05:33:47			0	39115	0	0	0	30075	28690	157625	26817	1074737	46375	111194	0	0	8167	497182	0	0
2024-08-12 05:34:47			0	39124	0	0	0	30075	28690	157653	26977	1074674	46375	111194	0	0	8168	496856	0	0
2024-08-12 05:35:47			0	39116	0	0	0	30080	28700	157705	26802	1074692	46375	111196	0	0	8167	497117	0	0
2024-08-12 05:36:47			0	39111	0	0	0	30080	28680	157633	27168	1074746	46375	111196	0	0	8167	497357	0	0
2024-08-12 05:37:47			0	39132	0	0	0	30067	28680	157557	27182	1074638	46385	111191	0	0	8168	496594	0	0
2024-08-12 05:38:47			0	39134	0	0	0	30062	28690	157609	26698	1074701	46375	111189	0	0	8169	496492	0	0
2024-08-12 05:39:47			0	39134	0	0	0	30062	28680	157601	26963	1074683	46374	111189	0	0	8169	496521	0	0
2024-08-12 05:40:47			0	39135	0	0	0	30070	28680	157553	26691	1074692	46363	111192	0	0	8169	496485	0	0
2024-08-12 05:41:47			0	39114	0	0	0	30057	28680	157665	26719	1074638	46375	111187	0	0	8168	497248	0	0
2024-08-12 05:42:47			0	39122	0	0	0	30059	28680	157585	26779	1074683	46362	111188	0	0	8168	496957	0	0
2024-08-12 05:43:47			0	39134	0	0	0	30062	28670	157517	26804	1074647	46373	111189	0	0	8169	496550	0	0
2024-08-12 05:44:47			0	39127	0	0	0	30054	28680	157541	27116	1074629	46374	111186	0	0	8168	496775	0	0
2024-08-12 05:45:47			0	39132	0	0	0	30049	28660	157581	26946	1074638	46373	111184	0	0	8169	496651	0	0
2024-08-12 05:46:47			0	39121	0	0	0	30054	28660	157569	26759	1074638	46361	111186	0	0	8168	497051	0	0
2024-08-12 05:47:47			0	39139	0	0	0	30054	28650	157469	27100	1074593	46360	111186	0	0	8169	496426	0	0
2024-08-12 05:48:47			0	39142	0	0	0	30049	28670	157525	27109	1074593	46373	111184	0	0	8169	496260	0	0
2024-08-12 05:49:47			0	39138	0	0	0	30051	28650	157605	27081	1074620	46360	111185	0	0	8169	496462	0	0
2024-08-12 05:50:47			0	39131	0	0	0	30041	28660	157645	27222	1074602	46382	111181	0	0	8169	496688	0	0
2024-08-12 05:51:47			0	39146	0	0	0	30046	28650	157657	26821	1074593	46360	111183	0	0	8169	496172	0	0
2024-08-12 05:52:47			0	39135	0	0	0	30044	28650	157545	27320	1074503	46371	111182	0	0	8169	496571	0	0
2024-08-12 05:53:47			0	39133	0	0	0	30036	28640	157517	27116	1074493	46371	111179	0	0	8169	496672	0	0
2024-08-12 05:54:47			0	39124	0	0	0	30033	28650	157541	26873	1074512	46360	111178	0	0	8168	496971	0	0
2024-08-12 05:55:47			0	39150	0	0	0	30031	28640	157597	26984	1074493	46371	111177	0	0	8170	496055	0	0
2024-08-12 05:56:47			0	39143	0	0	0	30028	28630	157545	27222	1074448	46380	111176	0	0	8169	496338	0	0
2024-08-12 05:57:47			0	39152	0	0	0	30023	28650	157521	27007	1074530	46359	111174	0	0	8170	495954	0	0
2024-08-12 05:58:47			0	39153	0	0	0	30023	28630	157465	27112	1074448	46358	111174	0	0	8170	495975	0	0
2024-08-12 05:59:47			0	39155	0	0	0	30015	28630	157513	27119	1074448	46370	111171	0	0	8170	495903	0	0
2024-08-12 06:00:47			0	39134	0	0	0	30018	28630	157545	27234	1074466	46357	111172	0	0	8169	496665	0	0
2024-08-12 06:01:47			0	39160	0	0	0	30010	28620	157597	26757	1074367	46368	111169	0	0	8171	495750	0	0
2024-08-12 06:02:47			0	39146	0	0	0	29999	28620	157505	27008	1074340	46368	111165	0	0	8170	496258	0	0
2024-08-12 06:03:47			0	39142	0	0	0	30002	28610	157541	27010	1074304	46378	111166	0	0	8170	496432	0	0
2024-08-12 06:04:47			0	39133	0	0	0	30002	28630	157533	26942	1074385	46357	111166	0	0	8169	496701	0	0
2024-08-12 06:05:47			0	39156	0	0	0	29997	28630	157625	27034	1074358	46379	111164	0	0	8171	495866	0	0
2024-08-12 06:06:47			0	39148	0	0	0	29999	28620	157589	27090	1074421	46356	111165	0	0	8170	496185	0	0
2024-08-12 06:07:47			0	39156	0	0	0	29999	28610	157537	27102	1074322	46355	111165	0	0	8171	495924	0	0
2024-08-12 06:08:47			0	39159	0	0	0	29989	28610	157649	27109	1074322	46355	111161	0	0	8171	495815	0	0
2024-08-12 06:09:47			0	39153	0	0	0	29994	28600	157553	27147	1074313	46366	111163	0	0	8170	496061	0	0
2024-08-12 06:10:47			0	39134	0	0	0	30002	28610	157677	26968	1074268	46377	111166	0	0	8169	496722	0	0
2024-08-12 06:11:47			0	39152	0	0	0	29989	28600	157541	27057	1074259	46376	111161	0	0	8170	496098	0	0
2024-08-12 06:12:47			0	39152	0	0	0	29989	28610	157645	27005	1074268	46344	111161	0	0	8171	496069	0	0
2024-08-12 06:13:47			0	39159	0	0	0	29992	28600	157617	26809	1074286	46354	111162	0	0	8171	495844	0	0
2024-08-12 06:14:47			0	39157	0	0	0	29984	28590	157593	26715	1074268	46366	111159	0	0	8171	495945	0	0
2024-08-12 06:15:47			0	39172	0	0	0	29989	28610	157633	27104	1074241	46355	111161	0	0	8172	495343	0	0
2024-08-12 06:16:47			0	39161	0	0	0	29989	28590	157537	26726	1074214	46376	111161	0	0	8171	495800	0	0
2024-08-12 06:17:47			0	39187	0	0	0	29973	28580	157469	26922	1074142	46352	111155	0	0	8173	494886	0	0
2024-08-12 06:18:47			0	39168	0	0	0	29976	28570	157557	26765	1074151	46351	111156	0	0	8171	495603	0	0
2024-08-12 06:19:47			0	39186	0	0	0	29966	28590	157473	26946	1074151	46353	111152	0	0	8173	494893	0	0
2024-08-12 06:20:47			0	39208	0	0	0	29968	28580	157357	27055	1074115	46341	111153	0	0	8174	494125	0	0
2024-08-12 06:21:47			0	39200	0	0	0	29963	28570	157445	27046	1074097	46363	111151	0	0	8174	494443	0	0
2024-08-12 06:22:47			0	39209	0	0	0	29966	28570	157357	26868	1074070	46363	111152	0	0	8174	494117	0	0
2024-08-12 06:23:47			0	39225	0	0	0	29955	28560	157461	27005	1074016	46349	111148	0	0	8175	493567	0	0
2024-08-12 06:24:47			0	39200	0	0	0	29948	28570	157457	27123	1074043	46363	111145	0	0	8174	494443	0	0
2024-08-12 06:25:47			0	39206	0	0	0	29955	28560	157413	27038	1074052	46373	111148	0	0	8174	494255	0	0
2024-08-12 06:26:47			0	39208	0	0	0	29948	28560	157537	26974	1074052	46350	111145	0	0	8174	494182	0	0
2024-08-12 06:27:47			0	39205	0	0	0	29940	28550	157453	26748	1074034	46349	111142	0	0	8174	494319	0	0
2024-08-12 06:28:47			0	39196	0	0	0	29945	28540	157429	27274	1073989	46360	111144	0	0	8173	494674	0	0
2024-08-12 06:29:47			0	39187	0	0	0	29937	28550	157493	27268	1074007	46372	111141	0	0	8173	494972	0	0
2024-08-12 06:30:47			0	39193	0	0	0	29940	28550	157537	27116	1073944	46372	111142	0	0	8173	494754	0	0
2024-08-12 06:31:47			0	39194	0	0	0	29929	28550	157465	27048	1073998	46361	111138	0	0	8174	494718	0	0
2024-08-12 06:32:47			0	39191	0	0	0	29937	28550	157561	27121	1073971	46361	111141	0	0	8173	494827	0	0
2024-08-12 06:33:47			0	39191	0	0	0	29929	28540	157585	26752	1073989	46360	111138	0	0	8173	494855	0	0
2024-08-12 06:34:47			0	39178	0	0	0	29929	28540	157577	26951	1073908	46360	111138	0	0	8173	495327	0	0
2024-08-12 06:35:47			0	39179	0	0	0	29927	28540	157653	26928	1073899	46347	111137	0	0	8173	495290	0	0
2024-08-12 06:36:47			0	39187	0	0	0	29937	28530	157609	26941	1073998	46347	111141	0	0	8173	495029	0	0
2024-08-12 06:37:47			0	39185	0	0	0	29963	28540	157593	26911	1074034	46359	111151	0	0	8173	495073	0	0
2024-08-12 06:38:47			0	39182	0	0	0	29966	28540	157641	26764	1074043	46371	111152	0	0	8172	495182	0	0
2024-08-12 06:39:47			0	39162	0	0	0	29968	28550	157705	27072	1074061	46372	111153	0	0	8171	495878	0	0
2024-08-12 06:40:47			0	39153	0	0	0	29958	28550	157717	27038	1074025	46372	111149	0	0	8171	496205	0	0
2024-08-12 06:41:47			0	39165	0	0	0	29963	28560	157685	27059	1074016	46372	111151	0	0	8171	495741	0	0
2024-08-12 06:42:47			0	39178	0	0	0	29963	28550	157621	27213	1074088	46383	111151	0	0	8172	495298	0	0
2024-08-12 06:43:47			0	39192	0	0	0	29961	28550	157625	26779	1074034	46361	111150	0	0	8173	494790	0	0
2024-08-12 06:44:47			0	39197	0	0	0	29958	28540	157505	26927	1073989	46360	111149	0	0	8173	494638	0	0
2024-08-12 06:45:47			0	39198	0	0	0	29948	28550	157469	26920	1074007	46372	111145	0	0	8174	494573	0	0
2024-08-12 06:46:47			0	39203	0	0	0	29963	28540	157541	26880	1074016	46348	111151	0	0	8174	494420	0	0
2024-08-12 06:47:47			0	39215	0	0	0	29986	28540	157413	27145	1074034	46359	111160	0	0	8174	493986	0	0
2024-08-12 06:48:47			0	39207	0	0	0	29999	28540	157453	27024	1074097	46360	111165	0	0	8173	494276	0	0
2024-08-12 06:49:47			0	39241	0	0	0	30012	28550	157409	27053	1074115	46361	111170	0	0	8175	493016	0	0
2024-08-12 06:50:47			0	39217	0	0	0	30007	28550	157405	26949	1074061	46372	111168	0	0	8174	493885	0	0
2024-08-12 06:51:47			0	39222	0	0	0	30018	28550	157357	26804	1074079	46372	111172	0	0	8174	493704	0	0
2024-08-12 06:52:47			0	39235	0	0	0	30031	28550	157381	27000	1074133	46383	111177	0	0	8174	493234	0	0
2024-08-12 06:53:47			0	39235	0	0	0	30020	28550	157325	26908	1074061	46372	111173	0	0	8174	493234	0	0
2024-08-12 06:54:47			0	39270	0	0	0	30010	28550	157217	26639	1074088	46372	111169	0	0	8177	491968	0	0
2024-08-12 06:55:47			0	39272	0	0	0	30015	28550	157189	26785	1074052	46383	111171	0	0	8177	491896	0	0
2024-08-12 06:56:47			0	39305	0	0	0	30002	28540	157197	27092	1074043	46360	111166	0	0	8179	490734	0	0
2024-08-12 06:57:47			0	39333	0	0	0	29992	28550	157145	26961	1073971	46361	111162	0	0	8180	489696	0	0
2024-08-12 06:58:47			0	39336	0	0	0	29973	28540	156953	26608	1073953	46347	111155	0	0	8181	489616	0	0
2024-08-12 06:59:47			0	39369	0	0	0	29961	28540	156833	26680	1073926	46347	111150	0	0	8183	488428	0	0
2024-08-12 07:00:47			0	39382	0	0	0	29950	28530	156781	26741	1073917	46359	111146	0	0	8184	487989	0	0
2024-08-12 07:01:47			0	39422	0	0	0	29953	28530	156670	26878	1073854	46359	111147	0	0	8186	486552	0	0
2024-08-12 07:02:47			0	39439	0	0	0	29935	28520	156558	26817	1073818	46358	111140	0	0	8187	485970	0	0
2024-08-12 07:03:47			0	39472	0	0	0	29922	28520	156498	26713	1073809	46357	111135	0	0	8189	484788	0	0
2024-08-12 07:04:47			0	39452	0	0	0	29914	28510	156538	26583	1073800	46357	111132	0	0	8188	485532	0	0
2024-08-12 07:05:47			0	39442	0	0	0	29911	28510	156610	26974	1073764	46357	111131	0	0	8188	485891	0	0
2024-08-12 07:06:47			0	39429	0	0	0	29909	28510	156678	27152	1073737	46357	111130	0	0	8187	486357	0	0
2024-08-12 07:07:47			0	39406	0	0	0	29890	28510	156777	26752	1073710	46357	111123	0	0	8186	487183	0	0
2024-08-12 07:08:47			0	39394	0	0	0	29883	28490	156761	27001	1073647	46365	111120	0	0	8186	487671	0	0
2024-08-12 07:09:47			0	39356	0	0	0	29890	28490	156885	26864	1073656	46343	111123	0	0	8183	489038	0	0
2024-08-12 07:10:47			0	39344	0	0	0	29888	28490	156973	26920	1073593	46365	111122	0	0	8183	489470	0	0
2024-08-12 07:11:47			0	39325	0	0	0	29885	28490	157005	27008	1073701	46354	111121	0	0	8182	490154	0	0
2024-08-12 07:12:47			0	39310	0	0	0	29893	28490	157101	26885	1073656	46387	111124	0	0	8181	490695	0	0
2024-08-12 07:13:47			0	39306	0	0	0	29890	28490	157081	26809	1073728	46365	111123	0	0	8180	490839	0	0
2024-08-12 07:14:47			0	39274	0	0	0	29903	28490	157129	26861	1073728	46376	111128	0	0	8178	491995	0	0
2024-08-12 07:15:47			0	39260	0	0	0	29888	28490	157377	26887	1073710	46365	111122	0	0	8178	492501	0	0
2024-08-12 07:16:47			0	39261	0	0	0	29898	28490	157313	26887	1073791	46365	111126	0	0	8178	492464	0	0
2024-08-12 07:17:47			0	39249	0	0	0	29909	28500	157345	26701	1073773	46377	111130	0	0	8177	492870	0	0
2024-08-12 07:18:47			0	39224	0	0	0	29922	28490	157233	27008	1073836	46365	111135	0	0	8175	493803	0	0
2024-08-12 07:19:47			0	39221	0	0	0	29922	28500	157293	26974	1073827	46377	111135	0	0	8175	493883	0	0
2024-08-12 07:20:47			0	39231	0	0	0	29927	28500	157401	26894	1073854	46377	111137	0	0	8176	493521	0	0
2024-08-12 07:21:47			0	39207	0	0	0	29929	28500	157465	26951	1073809	46378	111138	0	0	8174	494390	0	0
2024-08-12 07:22:47			0	39229	0	0	0	29919	28500	157445	26705	1073809	46356	111134	0	0	8176	493593	0	0
2024-08-12 07:23:47			0	39215	0	0	0	29914	28500	157457	26951	1073827	46355	111132	0	0	8175	494100	0	0
2024-08-12 07:24:47			0	39226	0	0	0	29909	28500	157385	26871	1073755	46367	111130	0	0	8176	493702	0	0
2024-08-12 07:25:47			0	39234	0	0	0	29911	28500	157393	27178	1073755	46367	111131	0	0	8176	493412	0	0
2024-08-12 07:26:47			0	39216	0	0	0	29896	28500	157433	26922	1073719	46366	111125	0	0	8175	494064	0	0
2024-08-12 07:27:47			0	39237	0	0	0	29890	28490	157429	26800	1073737	46343	111123	0	0	8176	493332	0	0
2024-08-12 07:28:47			0	39230	0	0	0	29883	28490	157381	27098	1073647	46354	111120	0	0	8176	493586	0	0
2024-08-12 07:29:47			0	39226	0	0	0	29880	28490	157401	26762	1073620	46354	111119	0	0	8176	493730	0	0
2024-08-12 07:30:47			0	39229	0	0	0	29875	28480	157433	26741	1073611	46354	111117	0	0	8176	493650	0	0
2024-08-12 07:31:47			0	39243	0	0	0	29859	28470	157357	26876	1073530	46340	111111	0	0	8177	493172	0	0
2024-08-12 07:32:47			0	39208	0	0	0	29849	28470	157413	26878	1073539	46340	111107	0	0	8175	494440	0	0
2024-08-12 07:33:47			0	39215	0	0	0	29857	28470	157437	27088	1073593	46340	111110	0	0	8176	494186	0	0
2024-08-12 07:34:47			0	39210	0	0	0	29846	28460	157473	27015	1073521	46363	111106	0	0	8176	494396	0	0
2024-08-12 07:35:47			0	39204	0	0	0	29844	28450	157553	26906	1073476	46350	111105	0	0	8175	494642	0	0
2024-08-12 07:36:47			0	39197	0	0	0	29841	28460	157561	26797	1073494	46363	111104	0	0	8175	494867	0	0
2024-08-12 07:37:47			0	39183	0	0	0	29838	28450	157613	26870	1073440	46350	111103	0	0	8174	495403	0	0
2024-08-12 07:38:47			0	39172	0	0	0	29870	28450	157733	27147	1073530	46350	111115	0	0	8173	495802	0	0
2024-08-12 07:39:47			0	39176	0	0	0	29919	28450	157681	27105	1073611	46361	111134	0	0	8172	495657	0	0
2024-08-12 07:40:47			0	39169	0	0	0	29935	28470	157709	27105	1073674	46375	111140	0	0	8172	495854	0	0
2024-08-12 07:41:47			0	39135	0	0	0	29935	28460	157717	27201	1073593	46362	111140	0	0	8170	497117	0	0
2024-08-12 07:42:47			0	39145	0	0	0	29950	28470	157685	26967	1073746	46385	111146	0	0	8170	496725	0	0
2024-08-12 07:43:47			0	39147	0	0	0	29979	28470	157721	26977	1073889	46408	111157	0	0	8170	496653	0	0
2024-08-12 07:44:47			0	39148	0	0	0	30018	28500	157641	27197	1073962	46411	111172	0	0	8169	496530	0	0
2024-08-12 07:45:47			0	39168	0	0	0	30033	28510	157565	27015	1074070	46390	111178	0	0	8170	495775	0	0
2024-08-12 07:46:47			0	39169	0	0	0	30038	28520	157625	26748	1074115	46414	111180	0	0	8170	495710	0	0
2024-08-12 07:47:47			0	39186	0	0	0	30041	28530	157573	27112	1074097	46392	111181	0	0	8171	495065	0	0
2024-08-12 07:48:47			0	39189	0	0	0	30012	28530	157505	26939	1073971	46381	111170	0	0	8172	494956	0	0
2024-08-12 07:49:47			0	39217	0	0	0	29981	28510	157441	27064	1073854	46357	111158	0	0	8174	493999	0	0
2024-08-12 07:50:47			0	39234	0	0	0	29961	28510	157429	26672	1073764	46357	111150	0	0	8175	493384	0	0
2024-08-12 07:51:47			0	39273	0	0	0	29940	28500	157221	27085	1073701	46344	111142	0	0	8178	492002	0	0
2024-08-12 07:52:47			0	39288	0	0	0	29911	28490	157185	26821	1073629	46343	111131	0	0	8179	491489	0	0
2024-08-12 07:53:47			0	39317	0	0	0	29896	28500	157141	26790	1073584	46355	111125	0	0	8181	490414	0	0
2024-08-12 07:54:47			0	39329	0	0	0	29885	28490	157049	26922	1073602	46354	111121	0	0	8182	490010	0	0
2024-08-12 07:55:47			0	39314	0	0	0	29877	28470	157141	26726	1073566	46352	111118	0	0	8181	490608	0	0
2024-08-12 07:56:47			0	39305	0	0	0	29880	28470	157109	27015	1073566	46352	111119	0	0	8180	490932	0	0
2024-08-12 07:57:47			0	39276	0	0	0	29870	28470	157321	26719	1073566	46363	111115	0	0	8179	491979	0	0
2024-08-12 07:58:47			0	39265	0	0	0	29872	28460	157273	26791	1073548	46363	111116	0	0	8178	492405	0	0
2024-08-12 07:59:47			0	39243	0	0	0	29877	28470	157349	26807	1073611	46363	111118	0	0	8177	493172	0	0
2024-08-12 08:00:47			0	39216	0	0	0	29880	28460	157533	27013	1073593	46374	111119	0	0	8175	494178	0	0
2024-08-12 08:01:47			0	39209	0	0	0	29883	28460	157497	27104	1073629	46363	111120	0	0	8175	494432	0	0
2024-08-12 08:02:47			0	39190	0	0	0	29888	28460	157489	27055	1073602	46352	111122	0	0	8174	495121	0	0
2024-08-12 08:03:47			0	39200	0	0	0	29888	28470	157625	26942	1073674	46385	111122	0	0	8174	494729	0	0
2024-08-12 08:04:47			0	39170	0	0	0	29893	28470	157637	26902	1073620	46385	111124	0	0	8173	495818	0	0
2024-08-12 08:05:47			0	39158	0	0	0	29893	28470	157701	26866	1073647	46375	111124	0	0	8172	496253	0	0
2024-08-12 08:06:47			0	39147	0	0	0	29880	28470	157661	27019	1073647	46363	111119	0	0	8171	496653	0	0
2024-08-12 08:07:47			0	39140	0	0	0	29885	28470	157713	26902	1073647	46340	111121	0	0	8171	496907	0	0
2024-08-12 08:08:47			0	39133	0	0	0	29875	28470	157757	26838	1073584	46352	111117	0	0	8171	497161	0	0
2024-08-12 08:09:47			0	39121	0	0	0	29872	28470	157773	26828	1073611	46340	111116	0	0	8170	497598	0	0
2024-08-12 08:10:47			0	39126	0	0	0	29867	28460	157761	26793	1073548	46375	111114	0	0	8170	497445	0	0
2024-08-12 08:11:47			0	39118	0	0	0	29864	28470	157809	26795	1073530	46363	111113	0	0	8170	497707	0	0
2024-08-12 08:12:47			0	39115	0	0	0	29862	28460	157849	27287	1073539	46351	111112	0	0	8170	497845	0	0
2024-08-12 08:13:47			0	39099	0	0	0	29864	28460	157853	26909	1073566	46351	111113	0	0	8169	498427	0	0
2024-08-12 08:14:47			0	39099	0	0	0	29862	28460	157925	26812	1073593	46362	111112	0	0	8169	498427	0	0
2024-08-12 08:15:47			0	39098	0	0	0	29859	28460	157965	26795	1073512	46362	111111	0	0	8169	498463	0	0
2024-08-12 08:16:47			0	39097	0	0	0	29854	28460	157957	26790	1073539	46362	111109	0	0	8169	498500	0	0
2024-08-12 08:17:47			0	39075	0	0	0	29857	28460	157897	26852	1073575	46352	111110	0	0	8168	499301	0	0
2024-08-12 08:18:47			0	39055	0	0	0	29851	28450	157993	26991	1073476	46361	111108	0	0	8167	500059	0	0
2024-08-12 08:19:47			0	39059	0	0	0	29846	28460	158073	26982	1073539	46362	111106	0	0	8167	499884	0	0
2024-08-12 08:20:47			0	39050	0	0	0	29851	28460	158009	26951	1073566	46362	111108	0	0	8166	500213	0	0
2024-08-12 08:21:47			0	39041	0	0	0	29841	28450	158029	26892	1073476	46373	111104	0	0	8166	500570	0	0
2024-08-12 08:22:47			0	39041	0	0	0	29841	28450	158013	26753	1073548	46361	111104	0	0	8166	500570	0	0
2024-08-12 08:23:47			0	39030	0	0	0	29851	28450	158025	27123	1073476	46361	111108	0	0	8165	500971	0	0
2024-08-12 08:24:47			0	39030	0	0	0	29844	28450	158121	27024	1073530	46338	111105	0	0	8165	500971	0	0
2024-08-12 08:25:47			0	39027	0	0	0	29838	28460	158121	27007	1073485	46362	111103	0	0	8165	501052	0	0
2024-08-12 08:26:47			0	39016	0	0	0	29844	28450	158165	26694	1073503	46361	111105	0	0	8165	501483	0	0
2024-08-12 08:27:47			0	39020	0	0	0	29838	28440	158221	26816	1073476	46360	111103	0	0	8165	501366	0	0
2024-08-12 08:28:47			0	39005	0	0	0	29844	28450	158225	27126	1073503	46350	111105	0	0	8164	501885	0	0
2024-08-12 08:29:47			0	39006	0	0	0	29833	28450	158133	27043	1073530	46373	111101	0	0	8164	501848	0	0
2024-08-12 08:30:47			0	39013	0	0	0	29841	28450	158177	26847	1073530	46361	111104	0	0	8164	501592	0	0
2024-08-12 08:31:47			0	39017	0	0	0	29844	28450	158233	26984	1073503	46361	111105	0	0	8165	501446	0	0
2024-08-12 08:32:47			0	39002	0	0	0	29846	28460	158201	26904	1073512	46362	111106	0	0	8164	501965	0	0
2024-08-12 08:33:47			0	38990	0	0	0	29851	28450	158217	27248	1073521	46361	111108	0	0	8163	502433	0	0
2024-08-12 08:34:47			0	39002	0	0	0	29849	28460	158277	26838	1073539	46362	111107	0	0	8164	501965	0	0
2024-08-12 08:35:47			0	39005	0	0	0	29849	28450	158209	26798	1073584	46373	111107	0	0	8164	501885	0	0
2024-08-12 08:36:47			0	38992	0	0	0	29844	28460	158245	26958	1073566	46351	111105	0	0	8163	502331	0	0
2024-08-12 08:37:47			0	38982	0	0	0	29851	28450	158261	26844	1073557	46350	111108	0	0	8162	502726	0	0
2024-08-12 08:38:47			0	38988	0	0	0	29838	28450	158257	26941	1073503	46350	111103	0	0	8163	502507	0	0
2024-08-12 08:39:47			0	38993	0	0	0	29851	28460	158305	26920	1073512	46362	111108	0	0	8163	502295	0	0
2024-08-12 08:40:47			0	38987	0	0	0	29851	28450	158297	27251	1073503	46350	111108	0	0	8163	502543	0	0
2024-08-12 08:41:47			0	38994	0	0	0	29846	28460	158349	26941	1073620	46362	111106	0	0	8163	502258	0	0
2024-08-12 08:42:47			0	38995	0	0	0	29851	28450	158289	26927	1073557	46361	111108	0	0	8163	502250	0	0
2024-08-12 08:43:47			0	38991	0	0	0	29854	28470	158189	26753	1073638	46363	111109	0	0	8163	502339	0	0
2024-08-12 08:44:47			0	38998	0	0	0	29859	28450	158337	27171	1073584	46350	111111	0	0	8163	502141	0	0
2024-08-12 08:45:47			0	38999	0	0	0	29857	28460	158309	26942	1073593	46351	111110	0	0	8163	502075	0	0
2024-08-12 08:46:47			0	38982	0	0	0	29862	28460	158265	27159	1073629	46363	111112	0	0	8162	502697	0	0
2024-08-12 08:47:47			0	39011	0	0	0	29872	28460	158417	27242	1073602	46352	111116	0	0	8164	501636	0	0
2024-08-12 08:48:47			0	39004	0	0	0	29877	28470	158237	27152	1073728	46363	111118	0	0	8163	501863	0	0
2024-08-12 08:49:47			0	38994	0	0	0	29883	28470	158353	27052	1073665	46352	111120	0	0	8163	502229	0	0
2024-08-12 08:50:47			0	38989	0	0	0	29883	28470	158269	26802	1073611	46375	111120	0	0	8162	502412	0	0
2024-08-12 08:51:47			0	38964	0	0	0	29880	28480	158245	27208	1073683	46353	111119	0	0	8161	503297	0	0
2024-08-12 08:52:47			0	38998	0	0	0	29880	28480	158181	27105	1073710	46375	111119	0	0	8163	502054	0	0
2024-08-12 08:53:47			0	38996	0	0	0	29864	28470	158317	27024	1073674	46352	111113	0	0	8163	502156	0	0
2024-08-12 08:54:47			0	39005	0	0	0	29877	28470	158205	27062	1073593	46375	111118	0	0	8163	501827	0	0
2024-08-12 08:55:47			0	38991	0	0	0	29875	28470	158205	26939	1073611	46352	111117	0	0	8163	502339	0	0
2024-08-12 08:56:47			0	39012	0	0	0	29862	28470	158177	27170	1073638	46352	111112	0	0	8164	501571	0	0
2024-08-12 08:57:47			0	38997	0	0	0	29864	28480	158181	27277	1073683	46364	111113	0	0	8163	502090	0	0
2024-08-12 08:58:47			0	39003	0	0	0	29872	28470	158157	26927	1073638	46352	111116	0	0	8163	501900	0	0
2024-08-12 08:59:47			0	39013	0	0	0	29870	28470	158241	27249	1073728	46363	111115	0	0	8164	501534	0	0
2024-08-12 09:00:47			0	39003	0	0	0	29877	28470	158277	26904	1073665	46363	111118	0	0	8163	501900	0	0
2024-08-12 09:01:47			0	38993	0	0	0	29877	28470	158285	27429	1073674	46352	111118	0	0	8163	502266	0	0
2024-08-12 09:02:47			0	38977	0	0	0	29875	28470	158313	27105	1073647	46352	111117	0	0	8162	502851	0	0
2024-08-12 09:03:47			0	38991	0	0	0	29877	28470	158377	27403	1073674	46375	111118	0	0	8163	502339	0	0
2024-08-12 09:04:47			0	38991	0	0	0	29875	28470	158245	27104	1073746	46363	111117	0	0	8163	502339	0	0
2024-08-12 09:05:47			0	39003	0	0	0	29883	28480	158357	27039	1073683	46353	111120	0	0	8163	501871	0	0
2024-08-12 09:06:47			0	38973	0	0	0	29885	28490	158385	27239	1073728	46354	111121	0	0	8162	502939	0	0
2024-08-12 09:07:47			0	38973	0	0	0	29883	28480	158345	27220	1073800	46354	111120	0	0	8162	502968	0	0
2024-08-12 09:08:47			0	38978	0	0	0	29888	28480	158309	27280	1073773	46387	111122	0	0	8162	502785	0	0
2024-08-12 09:09:47			0	38977	0	0	0	29888	28490	158409	27045	1073701	46343	111122	0	0	8162	502793	0	0
2024-08-12 09:10:47			0	38970	0	0	0	29885	28490	158473	27159	1073755	46365	111121	0	0	8161	503049	0	0
2024-08-12 09:11:47			0	38989	0	0	0	29898	28490	158365	27343	1073836	46354	111126	0	0	8162	502354	0	0
2024-08-12 09:12:47			0	38976	0	0	0	29888	28490	158357	27176	1073737	46365	111122	0	0	8162	502829	0	0
2024-08-12 09:13:47			0	38960	0	0	0	29885	28490	158365	27130	1073782	46365	111121	0	0	8161	503415	0	0
2024-08-12 09:14:47			0	38974	0	0	0	29890	28490	158353	27173	1073818	46354	111123	0	0	8162	502902	0	0
2024-08-12 09:15:47			0	38977	0	0	0	29890	28490	158377	27086	1073791	46354	111123	0	0	8162	502793	0	0
2024-08-12 09:16:47			0	38967	0	0	0	29888	28500	158285	26896	1073854	46355	111122	0	0	8161	503130	0	0
2024-08-12 09:17:47			0	38990	0	0	0	29898	28490	158317	26961	1073845	46376	111126	0	0	8162	502317	0	0
2024-08-12 09:18:47			0	38993	0	0	0	29896	28500	158333	27275	1073827	46355	111125	0	0	8163	502178	0	0
2024-08-12 09:19:47			0	38954	0	0	0	29898	28490	158493	27085	1073791	46376	111126	0	0	8160	503635	0	0
2024-08-12 09:20:47			0	38931	0	0	0	29898	28500	158553	26793	1073827	46366	111126	0	0	8159	504448	0	0
2024-08-12 09:21:47			0	38923	0	0	0	29909	28500	158613	26961	1073863	46378	111130	0	0	8158	504742	0	0
2024-08-12 09:22:47			0	38925	0	0	0	29903	28500	158705	27116	1073863	46367	111128	0	0	8159	504668	0	0
2024-08-12 09:23:47			0	38913	0	0	0	29911	28510	158617	27147	1073845	46368	111131	0	0	8158	505079	0	0
2024-08-12 09:24:47			0	38919	0	0	0	29909	28510	158733	27251	1073818	46368	111130	0	0	8158	504859	0	0
2024-08-12 09:25:47			0	38901	0	0	0	29911	28500	158609	27159	1073863	46356	111131	0	0	8157	505549	0	0
2024-08-12 09:26:47			0	38907	0	0	0	29906	28500	158597	26894	1073854	46355	111129	0	0	8158	505328	0	0
2024-08-12 09:27:47			0	38906	0	0	0	29906	28500	158553	26648	1073836	46367	111129	0	0	8157	505365	0	0
2024-08-12 09:28:47			0	38908	0	0	0	29909	28510	158633	26927	1073872	46368	111130	0	0	8158	505263	0	0
2024-08-12 09:29:47			0	38918	0	0	0	29906	28510	158689	27294	1073935	46357	111129	0	0	8158	504896	0	0
2024-08-12 09:30:47			0	38936	0	0	0	29906	28500	158593	27095	1073836	46367	111129	0	0	8159	504265	0	0
2024-08-12 09:31:47			0	38909	0	0	0	29901	28510	158573	27215	1073881	46357	111127	0	0	8158	505226	0	0
2024-08-12 09:32:47			0	38912	0	0	0	29916	28510	158625	27123	1073845	46357	111133	0	0	8158	505116	0	0
2024-08-12 09:33:47			0	38920	0	0	0	29898	28510	158445	27059	1073899	46379	111126	0	0	8158	504822	0	0
2024-08-12 09:34:47			0	38903	0	0	0	29906	28500	158541	26998	1073863	46344	111129	0	0	8157	505475	0	0
2024-08-12 09:35:47			0	38918	0	0	0	29903	28500	158721	26835	1073863	46356	111128	0	0	8158	504925	0	0
2024-08-12 09:36:47			0	38925	0	0	0	29901	28520	158629	27074	1073863	46368	111127	0	0	8159	504610	0	0
2024-08-12 09:37:47			0	38919	0	0	0	29906	28500	158625	26887	1073863	46367	111129	0	0	8158	504888	0	0
2024-08-12 09:38:47			0	38913	0	0	0	29901	28500	158633	27241	1073890	46367	111127	0	0	8158	505108	0	0
2024-08-12 09:39:47			0	38916	0	0	0	29909	28510	158621	27306	1073872	46368	111130	0	0	8158	504969	0	0
2024-08-12 09:40:47			0	38910	0	0	0	29903	28510	158549	27039	1073899	46368	111128	0	0	8158	505189	0	0
2024-08-12 09:41:47			0	38929	0	0	0	29919	28510	158601	27357	1073872	46368	111134	0	0	8159	504492	0	0
2024-08-12 09:42:47			0	38913	0	0	0	29924	28520	158501	26981	1073917	46357	111136	0	0	8158	505050	0	0
2024-08-12 09:43:47			0	38913	0	0	0	29927	28520	158505	27019	1073944	46368	111137	0	0	8158	505050	0	0
2024-08-12 09:44:47			0	38919	0	0	0	29929	28530	158517	26793	1073935	46359	111138	0	0	8158	504801	0	0
2024-08-12 09:45:47			0	38917	0	0	0	29929	28530	158521	27170	1074025	46381	111138	0	0	8158	504874	0	0
2024-08-12 09:46:47			0	38908	0	0	0	29940	28520	158617	26906	1074034	46369	111142	0	0	8157	505233	0	0
2024-08-12 09:47:47			0	38922	0	0	0	29937	28520	158689	26686	1074007	46369	111141	0	0	8158	504720	0	0
2024-08-12 09:48:47			0	38911	0	0	0	29940	28530	158521	27031	1074097	46359	111142	0	0	8157	505094	0	0
2024-08-12 09:49:47			0	38899	0	0	0	29937	28530	158425	26987	1074025	46392	111141	0	0	8157	505534	0	0
2024-08-12 09:50:47			0	38916	0	0	0	29948	28540	158577	26902	1074061	46370	111145	0	0	8157	504881	0	0
2024-08-12 09:51:47			0	38911	0	0	0	29940	28530	158609	26986	1074052	46370	111142	0	0	8157	505094	0	0
2024-08-12 09:52:47			0	38912	0	0	0	29950	28540	158553	26951	1074124	46360	111146	0	0	8157	505028	0	0
2024-08-12 09:53:47			0	38927	0	0	0	29955	28540	158569	27175	1074124	46360	111148	0	0	8158	504478	0	0
2024-08-12 09:54:47			0	38915	0	0	0	29955	28540	158517	26474	1074097	46382	111148	0	0	8157	504918	0	0
2024-08-12 09:55:47			0	38918	0	0	0	29961	28540	158545	26634	1074115	46359	111150	0	0	8157	504808	0	0
2024-08-12 09:56:47			0	38913	0	0	0	29958	28550	158633	26913	1074133	46349	111149	0	0	8157	504962	0	0
2024-08-12 09:57:47			0	38926	0	0	0	29955	28560	158597	26951	1074124	46361	111148	0	0	8158	504456	0	0
2024-08-12 09:58:47			0	38916	0	0	0	29968	28550	158505	27121	1074115	46361	111153	0	0	8157	504852	0	0
2024-08-12 09:59:47			0	38915	0	0	0	29963	28550	158585	27041	1074187	46383	111151	0	0	8157	504889	0	0
2024-08-12 10:00:47			0	38913	0	0	0	29968	28550	158477	27256	1074142	46349	111153	0	0	8157	504962	0	0
2024-08-12 10:01:47			0	38913	0	0	0	29968	28560	158557	26696	1074178	46372	111153	0	0	8157	504933	0	0
2024-08-12 10:02:47			0	38902	0	0	0	29976	28550	158553	26932	1074142	46361	111156	0	0	8156	505366	0	0
2024-08-12 10:03:47			0	38913	0	0	0	29971	28560	158645	27019	1074178	46372	111154	0	0	8157	504933	0	0
2024-08-12 10:04:47			0	38897	0	0	0	29976	28570	158573	26776	1074169	46374	111156	0	0	8156	505491	0	0
2024-08-12 10:05:47			0	38904	0	0	0	29981	28570	158569	27105	1074232	46363	111158	0	0	8156	505234	0	0
2024-08-12 10:06:47			0	38915	0	0	0	29973	28570	158541	27322	1074250	46363	111155	0	0	8157	504830	0	0
2024-08-12 10:07:47			0	38907	0	0	0	29976	28560	158569	27320	1074232	46372	111156	0	0	8157	505153	0	0
2024-08-12 10:08:47			0	38927	0	0	0	29986	28570	158553	26833	1074259	46385	111160	0	0	8158	504391	0	0
2024-08-12 10:09:47			0	38909	0	0	0	29986	28570	158617	26948	1074250	46385	111160	0	0	8157	505050	0	0
2024-08-12 10:10:47			0	38925	0	0	0	29992	28570	158565	27022	1074340	46374	111162	0	0	8157	504464	0	0
2024-08-12 10:11:47			0	38912	0	0	0	29992	28570	158561	26856	1074313	46363	111162	0	0	8157	504941	0	0
2024-08-12 10:12:47			0	38905	0	0	0	29989	28580	158577	26986	1074358	46386	111161	0	0	8156	505168	0	0
2024-08-12 10:13:47			0	38913	0	0	0	29999	28580	158645	26675	1074385	46375	111165	0	0	8157	504875	0	0
2024-08-12 10:14:47			0	38908	0	0	0	29999	28590	158553	26771	1074376	46366	111165	0	0	8156	505029	0	0
2024-08-12 10:15:47			0	38917	0	0	0	30007	28590	158533	26906	1074403	46366	111168	0	0	8157	504699	0	0
2024-08-12 10:16:47			0	38914	0	0	0	30010	28590	158445	27039	1074403	46366	111169	0	0	8157	504809	0	0
2024-08-12 10:17:47			0	38921	0	0	0	30007	28600	158593	26604	1074475	46376	111168	0	0	8157	504523	0	0
2024-08-12 10:18:47			0	38913	0	0	0	30012	28590	158541	27003	1074376	46366	111170	0	0	8156	504845	0	0
2024-08-12 10:19:47			0	38920	0	0	0	30012	28600	158533	26710	1074439	46388	111170	0	0	8157	504560	0	0
2024-08-12 10:20:47			0	38926	0	0	0	30015	28600	158497	27046	1074439	46376	111171	0	0	8157	504340	0	0
2024-08-12 10:21:47			0	38915	0	0	0	30028	28600	158481	26844	1074529	46376	111176	0	0	8156	504743	0	0
2024-08-12 10:22:47			0	38921	0	0	0	30020	28620	158513	26736	1074511	46378	111173	0	0	8157	504464	0	0
2024-08-12 10:23:47			0	38933	0	0	0	30033	28610	158529	27124	1074628	46378	111178	0	0	8157	504054	0	0
2024-08-12 10:24:47			0	38950	0	0	0	30033	28630	158469	26991	1074628	46379	111178	0	0	8158	503373	0	0
2024-08-12 10:25:47			0	38925	0	0	0	30049	28610	158469	27071	1074592	46367	111184	0	0	8157	504347	0	0
2024-08-12 10:26:47			0	38904	0	0	0	30046	28640	158489	26859	1074619	46370	111183	0	0	8156	505029	0	0
2024-08-12 10:27:47			0	38933	0	0	0	30049	28640	158477	27157	1074628	46371	111184	0	0	8157	503966	0	0
2024-08-12 10:28:47			0	38927	0	0	0	30049	28640	158437	26793	1074646	46380	111184	0	0	8157	504186	0	0
2024-08-12 10:29:47			0	38941	0	0	0	30051	28640	158401	26814	1074628	46381	111185	0	0	8158	503673	0	0
2024-08-12 10:30:47			0	38946	0	0	0	30049	28640	158469	27050	1074655	46381	111184	0	0	8158	503490	0	0
2024-08-12 10:31:47			0	38931	0	0	0	30064	28640	158449	26726	1074709	46381	111190	0	0	8157	504040	0	0
2024-08-12 10:32:47			0	38947	0	0	0	30059	28640	158497	26793	1074709	46371	111188	0	0	8158	503454	0	0
2024-08-12 10:33:47			0	38943	0	0	0	30062	28640	158485	26863	1074736	46371	111189	0	0	8158	503600	0	0
2024-08-12 10:34:47			0	38946	0	0	0	30080	28650	158437	26731	1074781	46372	111196	0	0	8157	503461	0	0
2024-08-12 10:35:47			0	38921	0	0	0	30080	28660	158433	26715	1074826	46373	111196	0	0	8156	504348	0	0
2024-08-12 10:36:47			0	38942	0	0	0	30080	28680	158477	26906	1074844	46384	111196	0	0	8157	503520	0	0
2024-08-12 10:37:47			0	38936	0	0	0	30090	28670	158249	26922	1074862	46395	111200	0	0	8157	503769	0	0
2024-08-12 10:38:47			0	38935	0	0	0	30096	28680	158317	26956	1074853	46385	111202	0	0	8157	503776	0	0
2024-08-12 10:39:47			0	38950	0	0	0	30096	28680	158333	26882	1074961	46385	111202	0	0	8158	503227	0	0
2024-08-12 10:40:47			0	38953	0	0	0	30101	28690	158389	27150	1074916	46375	111204	0	0	8158	503089	0	0
2024-08-12 10:41:47			0	38955	0	0	0	30111	28700	158449	27066	1075015	46398	111208	0	0	8158	502986	0	0
2024-08-12 10:42:47			0	38930	0	0	0	30116	28700	158341	26857	1074970	46376	111210	0	0	8156	503901	0	0
2024-08-12 10:43:47			0	38966	0	0	0	30122	28710	158245	26861	1074979	46387	111212	0	0	8158	502555	0	0
2024-08-12 10:44:47			0	38953	0	0	0	30127	28710	158389	26696	1075087	46376	111214	0	0	8157	503030	0	0
2024-08-12 10:45:47			0	38941	0	0	0	30122	28710	158333	26821	1075033	46387	111212	0	0	8157	503469	0	0
2024-08-12 10:46:47			0	38942	0	0	0	30140	28720	158321	27012	1075159	46388	111219	0	0	8157	503403	0	0
2024-08-12 10:47:47			0	38947	0	0	0	30135	28730	158193	27026	1075177	46389	111217	0	0	8157	503192	0	0
2024-08-12 10:48:47			0	38946	0	0	0	30155	28740	158265	27066	1075142	46402	111225	0	0	8157	503199	0	0
2024-08-12 10:49:47			0	38954	0	0	0	30163	28740	158253	27052	1075231	46380	111228	0	0	8157	502906	0	0
2024-08-12 10:50:47			0	38965	0	0	0	30166	28750	158085	27173	1075250	46392	111229	0	0	8158	502475	0	0
2024-08-12 10:51:47			0	38966	0	0	0	30166	28760	158145	26793	1075313	46382	111229	0	0	8158	502409	0	0
2024-08-12 10:52:47			0	38954	0	0	0	30168	28760	158149	26715	1075295	46393	111230	0	0	8157	502848	0	0
2024-08-12 10:53:47			0	38953	0	0	0	30184	28770	158141	27170	1075304	46405	111236	0	0	8157	502855	0	0
2024-08-12 10:54:47			0	38948	0	0	0	30181	28780	158153	27142	1075484	46395	111235	0	0	8156	503009	0	0
2024-08-12 10:55:47			0	38953	0	0	0	30205	28760	158041	27098	1075349	46393	111244	0	0	8156	502885	0	0
2024-08-12 10:56:47			0	38971	0	0	0	30186	28780	158025	26982	1075439	46395	111237	0	0	8158	502168	0	0
2024-08-12 10:57:47			0	38954	0	0	0	30194	28780	158085	26887	1075412	46395	111240	0	0	8157	502790	0	0
2024-08-12 10:58:47			0	38960	0	0	0	30197	28800	158041	26981	1075466	46386	111241	0	0	8157	502512	0	0
2024-08-12 10:59:47			0	38968	0	0	0	30199	28790	158045	26653	1075475	46385	111242	0	0	8157	502249	0	0
2024-08-12 11:00:47			0	38981	0	0	0	30207	28800	158029	27088	1075466	46397	111245	0	0	8158	501745	0	0
2024-08-12 11:01:47			0	38989	0	0	0	30215	28800	157985	26776	1075547	46386	111248	0	0	8158	501453	0	0
2024-08-12 11:02:47			0	38987	0	0	0	30218	28800	157905	26663	1075520	46386	111249	0	0	8158	501526	0	0
2024-08-12 11:03:47			0	38999	0	0	0	30228	28810	157957	27187	1075592	46387	111253	0	0	8159	501059	0	0
2024-08-12 11:04:47			0	38994	0	0	0	30225	28810	157837	27022	1075619	46398	111252	0	0	8158	501241	0	0
2024-08-12 11:05:47			0	39005	0	0	0	30238	28820	157989	27038	1075646	46400	111257	0	0	8159	500811	0	0
2024-08-12 11:06:47			0	39004	0	0	0	30246	28820	157941	26863	1075619	46389	111260	0	0	8159	500847	0	0
2024-08-12 11:07:47			0	38993	0	0	0	30244	28830	158045	27124	1075682	46389	111259	0	0	8158	501220	0	0
2024-08-12 11:08:47			0	38997	0	0	0	30262	28830	157949	26696	1075655	46389	111266	0	0	8158	501074	0	0
2024-08-12 11:09:47			0	39002	0	0	0	30257	28830	157969	27024	1075682	46400	111264	0	0	8158	500891	0	0
2024-08-12 11:10:47			0	38988	0	0	0	30254	28840	157857	26870	1075700	46413	111263	0	0	8158	501373	0	0
2024-08-12 11:11:47			0	38984	0	0	0	30262	28840	157857	27019	1075727	46390	111266	0	0	8157	501519	0	0
2024-08-12 11:12:47			0	38991	0	0	0	30257	28850	157825	27190	1075745	46402	111264	0	0	8158	501235	0	0
2024-08-12 11:13:47			0	38994	0	0	0	30270	28850	157865	27102	1075754	46414	111269	0	0	8158	501125	0	0
2024-08-12 11:14:47			0	38992	0	0	0	30272	28850	157925	26946	1075835	46402	111270	0	0	8158	501198	0	0
2024-08-12 11:15:47			0	39010	0	0	0	30272	28850	157961	26965	1075799	46391	111270	0	0	8159	500542	0	0
2024-08-12 11:16:47			0	38998	0	0	0	30277	28860	157929	27126	1075853	46404	111272	0	0	8158	500950	0	0
2024-08-12 11:17:47			0	38983	0	0	0	30283	28860	157865	26670	1075844	46403	111274	0	0	8157	501497	0	0
2024-08-12 11:18:47			0	38999	0	0	0	30288	28870	157909	27150	1075889	46381	111276	0	0	8158	500885	0	0
2024-08-12 11:19:47			0	39006	0	0	0	30290	28870	157917	26866	1075953	46382	111277	0	0	8158	500629	0	0
2024-08-12 11:20:47			0	38988	0	0	0	30301	28880	157901	26762	1075944	46395	111281	0	0	8157	501257	0	0
2024-08-12 11:21:47			0	39011	0	0	0	30316	28880	157877	27036	1075971	46406	111287	0	0	8158	500418	0	0
2024-08-12 11:22:47			0	38990	0	0	0	30316	28900	157889	26838	1076079	46407	111287	0	0	8157	501126	0	0
2024-08-12 11:23:47			0	38990	0	0	0	30324	28900	157873	26970	1076025	46418	111290	0	0	8157	501126	0	0
2024-08-12 11:24:47			0	39001	0	0	0	30335	28900	157893	26878	1076106	46418	111294	0	0	8157	500725	0	0
2024-08-12 11:25:47			0	39007	0	0	0	30342	28910	157797	26902	1076151	46409	111297	0	0	8158	500477	0	0
2024-08-12 11:26:47			0	39007	0	0	0	30329	28910	157925	26864	1076097	46409	111292	0	0	8158	500477	0	0
2024-08-12 11:27:47			0	39005	0	0	0	30335	28920	157937	26757	1076115	46398	111294	0	0	8158	500521	0	0
2024-08-12 11:28:47			0	39018	0	0	0	30345	28910	157925	26587	1076214	46398	111298	0	0	8158	500076	0	0
2024-08-12 11:29:47			0	38999	0	0	0	30350	28920	157969	26665	1076169	46398	111300	0	0	8157	500739	0	0
2024-08-12 11:30:47			0	39007	0	0	0	30348	28920	157773	26873	1076205	46399	111299	0	0	8158	500448	0	0
2024-08-12 11:31:47			0	39020	0	0	0	30353	28940	157797	26840	1076151	46400	111301	0	0	8158	499916	0	0
2024-08-12 11:32:47			0	39020	0	0	0	30353	28930	157833	27095	1076169	46411	111301	0	0	8158	499945	0	0
2024-08-12 11:33:47			0	39023	0	0	0	30353	28930	157769	26906	1076250	46411	111301	0	0	8158	499836	0	0
2024-08-12 11:34:47			0	39001	0	0	0	30348	28930	157829	26804	1076223	46400	111299	0	0	8157	500638	0	0
2024-08-12 11:35:47			0	39008	0	0	0	30353	28940	157741	26965	1076187	46401	111301	0	0	8158	500353	0	0
2024-08-12 11:36:47			0	39003	0	0	0	30361	28950	157897	26837	1076277	46413	111304	0	0	8157	500506	0	0
2024-08-12 11:37:47			0	39008	0	0	0	30355	28940	157809	26887	1076259	46433	111302	0	0	8158	500353	0	0
2024-08-12 11:38:47			0	39001	0	0	0	30358	28940	157789	26800	1076295	46412	111303	0	0	8157	500608	0	0
2024-08-12 11:39:47			0	39004	0	0	0	30355	28950	157805	27000	1076304	46402	111302	0	0	8157	500470	0	0
2024-08-12 11:40:47			0	39012	0	0	0	30355	28950	157709	27017	1076196	46423	111302	0	0	8158	500178	0	0
2024-08-12 11:41:47			0	39016	0	0	0	30358	28950	157709	26776	1076205	46391	111303	0	0	8158	500033	0	0
2024-08-12 11:42:47			0	39007	0	0	0	30366	28950	157717	26739	1076286	46414	111306	0	0	8157	500361	0	0
2024-08-12 11:43:47			0	39005	0	0	0	30368	28950	157785	26847	1076340	46414	111307	0	0	8157	500434	0	0
2024-08-12 11:44:47			0	39028	0	0	0	30376	28970	157733	26852	1076385	46403	111310	0	0	8159	499538	0	0
2024-08-12 11:45:47			0	39021	0	0	0	30371	28970	157741	26852	1076367	46404	111308	0	0	8158	499793	0	0
2024-08-12 11:46:47			0	39017	0	0	0	30376	28970	157653	27277	1076394	46415	111310	0	0	8158	499938	0	0
2024-08-12 11:47:47			0	39018	0	0	0	30379	28960	157649	27102	1076349	46391	111311	0	0	8158	499931	0	0
2024-08-12 11:48:47			0	39039	0	0	0	30392	28970	157637	26783	1076421	46415	111316	0	0	8159	499137	0	0
2024-08-12 11:49:47			0	39025	0	0	0	30389	28990	157777	27029	1076511	46416	111315	0	0	8158	499589	0	0
2024-08-12 11:50:47			0	39027	0	0	0	30389	28980	157589	26786	1076457	46393	111315	0	0	8158	499545	0	0
2024-08-12 11:51:47			0	39041	0	0	0	30384	28970	157597	27027	1076421	46415	111313	0	0	8159	499065	0	0
2024-08-12 11:52:47			0	39019	0	0	0	30386	28980	157629	26746	1076386	46405	111314	0	0	8158	499836	0	0
2024-08-12 11:53:47			0	39018	0	0	0	30379	28980	157673	26922	1076466	46405	111311	0	0	8158	499873	0	0
2024-08-12 11:54:47			0	39015	0	0	0	30379	28970	157661	27076	1076394	46404	111311	0	0	8158	500011	0	0
2024-08-12 11:55:47			0	39017	0	0	0	30379	28980	157709	27010	1076430	46416	111311	0	0	8158	499909	0	0
2024-08-12 11:56:47			0	39021	0	0	0	30384	28980	157613	27017	1076430	46416	111313	0	0	8158	499764	0	0
2024-08-12 11:57:47			0	39002	0	0	0	30373	28980	157761	27012	1076493	46405	111309	0	0	8157	500456	0	0
2024-08-12 11:58:47			0	39013	0	0	0	30371	28980	157705	26963	1076466	46405	111308	0	0	8158	500055	0	0
2024-08-12 11:59:47			0	39000	0	0	0	30386	28990	157749	27034	1076485	46406	111314	0	0	8157	500500	0	0
2024-08-12 12:00:47			0	39015	0	0	0	30381	28980	157693	26817	1076413	46405	111312	0	0	8158	499982	0	0
2024-08-12 12:01:47			0	39000	0	0	0	30379	28980	157717	27020	1076403	46405	111311	0	0	8157	500529	0	0
2024-08-12 12:02:47			0	38995	0	0	0	30381	28970	157661	26772	1076394	46392	111312	0	0	8157	500740	0	0
2024-08-12 12:03:47			0	39006	0	0	0	30373	28990	157705	26665	1076448	46405	111309	0	0	8157	500281	0	0
2024-08-12 12:04:47			0	39012	0	0	0	30376	28980	157689	26899	1076430	46405	111310	0	0	8158	500091	0	0
2024-08-12 12:05:47			0	39008	0	0	0	30379	28980	157685	26795	1076413	46405	111311	0	0	8157	500237	0	0
2024-08-12 12:06:47			0	39005	0	0	0	30379	28980	157693	26960	1076350	46416	111311	0	0	8157	500347	0	0
2024-08-12 12:07:47			0	39006	0	0	0	30373	28990	157765	27116	1076431	46416	111309	0	0	8157	500281	0	0
2024-08-12 12:08:47			0	39011	0	0	0	30386	28980	157737	26993	1076493	46393	111314	0	0	8157	500128	0	0
2024-08-12 12:09:47			0	38999	0	0	0	30376	28990	157729	27131	1076485	46394	111310	0	0	8157	500536	0	0
2024-08-12 12:10:47			0	38989	0	0	0	30394	28990	157589	27152	1076502	46416	111317	0	0	8156	500901	0	0
2024-08-12 12:11:47			0	39000	0	0	0	30405	28990	157709	26805	1076592	46416	111321	0	0	8157	500500	0	0
2024-08-12 12:12:47			0	39020	0	0	0	30412	29010	157521	26915	1076620	46417	111324	0	0	8158	499713	0	0
2024-08-12 12:13:47			0	39068	0	0	0	30423	29010	157413	26955	1076647	46407	111328	0	0	8160	497967	0	0
2024-08-12 12:14:47			0	39068	0	0	0	30423	29010	157425	27012	1076620	46429	111328	0	0	8160	497967	0	0
2024-08-12 12:15:47			0	39063	0	0	0	30433	29010	157469	27170	1076620	46417	111332	0	0	8160	498149	0	0
2024-08-12 12:16:47			0	39036	0	0	0	30428	29010	157641	27104	1076629	46429	111330	0	0	8158	499131	0	0
2024-08-12 12:17:47			0	39019	0	0	0	30431	29020	157585	26961	1076692	46419	111331	0	0	8157	499720	0	0
2024-08-12 12:18:47			0	39015	0	0	0	30436	29020	157721	26870	1076701	46410	111333	0	0	8157	499866	0	0
2024-08-12 12:19:47			0	39019	0	0	0	30449	29030	157633	26955	1076746	46420	111338	0	0	8157	499691	0	0
2024-08-12 12:20:47			0	38997	0	0	0	30454	29030	157733	27104	1076746	46420	111340	0	0	8156	500493	0	0
2024-08-12 12:21:47			0	38993	0	0	0	30454	29040	157701	26944	1076701	46421	111340	0	0	8156	500610	0	0
2024-08-12 12:22:47			0	38998	0	0	0	30457	29030	157797	27029	1076746	46410	111341	0	0	8156	500456	0	0
2024-08-12 12:23:47			0	39012	0	0	0	30467	29040	157729	27149	1076845	46412	111345	0	0	8156	499917	0	0
2024-08-12 12:24:47			0	39010	0	0	0	30464	29050	157681	27020	1076863	46422	111344	0	0	8156	499961	0	0
2024-08-12 12:25:47			0	39027	0	0	0	30485	29050	157689	26660	1076809	46433	111352	0	0	8157	499342	0	0
2024-08-12 12:26:47			0	39013	0	0	0	30485	29050	157633	27175	1076917	46433	111352	0	0	8156	499852	0	0
2024-08-12 12:27:47			0	39008	0	0	0	30485	29060	157585	27027	1076962	46435	111352	0	0	8156	500005	0	0
2024-08-12 12:28:47			0	39032	0	0	0	30496	29070	157617	26729	1077007	46414	111356	0	0	8157	499102	0	0
2024-08-12 12:29:47			0	39032	0	0	0	30498	29070	157625	27171	1076926	46424	111357	0	0	8157	499102	0	0
2024-08-12 12:30:47			0	39046	0	0	0	30488	29060	157617	27220	1076962	46414	111353	0	0	8158	498622	0	0
2024-08-12 12:31:47			0	39023	0	0	0	30488	29070	157629	26826	1076953	46402	111353	0	0	8157	499430	0	0
2024-08-12 12:32:47			0	39023	0	0	0	30485	29070	157645	27026	1076980	46402	111352	0	0	8157	499430	0	0
2024-08-12 12:33:47			0	39030	0	0	0	30485	29070	157505	27107	1076926	46414	111352	0	0	8157	499175	0	0
2024-08-12 12:34:47			0	39029	0	0	0	30485	29070	157541	26925	1076980	46424	111352	0	0	8157	499212	0	0
2024-08-12 12:35:47			0	39047	0	0	0	30483	29080	157645	27038	1076971	46426	111351	0	0	8158	498528	0	0
2024-08-12 12:36:47			0	39036	0	0	0	30480	29070	157529	27083	1076998	46414	111350	0	0	8158	498957	0	0
2024-08-12 12:37:47			0	39042	0	0	0	30483	29080	157545	27033	1076962	46415	111351	0	0	8158	498710	0	0
2024-08-12 12:38:47			0	39033	0	0	0	30483	29070	157517	27275	1076980	46402	111351	0	0	8157	499066	0	0
2024-08-12 12:39:47			0	39035	0	0	0	30485	29070	157501	26979	1076980	46402	111352	0	0	8158	498993	0	0
2024-08-12 12:40:47			0	39027	0	0	0	30483	29080	157537	27190	1076998	46416	111351	0	0	8157	499255	0	0
2024-08-12 12:41:47			0	39032	0	0	0	30493	29080	157445	26783	1076998	46404	111355	0	0	8157	499073	0	0
2024-08-12 12:42:47			0	39033	0	0	0	30488	29080	157629	26918	1076998	46426	111353	0	0	8157	499037	0	0
2024-08-12 12:43:47			0	39037	0	0	0	30493	29090	157541	27121	1077070	46427	111355	0	0	8158	498863	0	0
2024-08-12 12:44:47			0	39047	0	0	0	30503	29090	157549	27187	1077061	46438	111359	0	0	8158	498499	0	0
2024-08-12 12:45:47			0	39042	0	0	0	30511	29100	157533	27033	1077133	46438	111362	0	0	8158	498652	0	0
2024-08-12 12:46:47			0	39029	0	0	0	30519	29100	157497	27130	1077160	46427	111365	0	0	8157	499125	0	0
2024-08-12 12:47:47			0	39047	0	0	0	30529	29100	157565	27074	1077196	46417	111369	0	0	8158	498470	0	0
2024-08-12 12:48:47			0	39051	0	0	0	30532	29120	157501	27270	1077278	46440	111370	0	0	8158	498267	0	0
2024-08-12 12:49:47			0	39042	0	0	0	30540	29120	157549	27301	1077260	46441	111373	0	0	8157	498594	0	0
2024-08-12 12:50:47			0	39057	0	0	0	30535	29120	157461	27053	1077287	46419	111371	0	0	8158	498049	0	0
2024-08-12 12:51:47			0	39048	0	0	0	30545	29120	157469	26873	1077287	46419	111375	0	0	8158	498376	0	0
2024-08-12 12:52:47			0	39052	0	0	0	30535	29130	157381	26908	1077269	46420	111371	0	0	8158	498202	0	0
2024-08-12 12:53:47			0	39048	0	0	0	30540	29130	157421	27057	1077296	46420	111373	0	0	8158	498347	0	0
2024-08-12 12:54:47			0	39059	0	0	0	30540	29130	157357	27022	1077296	46431	111373	0	0	8158	497947	0	0
2024-08-12 12:55:47			0	39073	0	0	0	30540	29130	157449	27052	1077305	46409	111373	0	0	8159	497439	0	0
2024-08-12 12:56:47			0	39064	0	0	0	30532	29120	157357	26941	1077287	46408	111370	0	0	8159	497795	0	0
2024-08-12 12:57:47			0	39053	0	0	0	30532	29130	157429	26965	1077215	46431	111370	0	0	8158	498165	0	0
2024-08-12 12:58:47			0	39060	0	0	0	30532	29130	157497	26897	1077251	46420	111370	0	0	8158	497911	0	0
2024-08-12 12:59:47			0	39062	0	0	0	30537	29130	157357	26849	1077278	46431	111372	0	0	8158	497838	0	0
2024-08-12 13:00:47			0	39070	0	0	0	30540	29140	157333	26991	1077368	46431	111373	0	0	8159	497519	0	0
2024-08-12 13:01:47			0	39060	0	0	0	30555	29140	157329	27034	1077404	46432	111379	0	0	8158	497882	0	0
2024-08-12 13:02:47			0	39070	0	0	0	30568	29150	157273	27189	1077467	46422	111384	0	0	8159	497490	0	0
2024-08-12 13:03:47			0	39063	0	0	0	30594	29160	157381	27114	1077602	46457	111394	0	0	8158	497715	0	0
2024-08-12 13:04:47			0	39068	0	0	0	30618	29160	157377	27017	1077656	46445	111403	0	0	8158	497534	0	0
2024-08-12 13:05:47			0	39073	0	0	0	30612	29180	157289	27253	1077665	46458	111401	0	0	8158	497294	0	0
2024-08-12 13:06:47			0	39066	0	0	0	30615	29200	157241	26842	1077720	46438	111402	0	0	8158	497491	0	0
2024-08-12 13:07:47			0	39080	0	0	0	30638	29210	157249	27137	1077765	46450	111411	0	0	8158	496954	0	0
2024-08-12 13:08:47			0	39087	0	0	0	30638	29210	157169	27176	1077828	46440	111411	0	0	8159	496700	0	0
2024-08-12 13:09:47			0	39093	0	0	0	30646	29220	157225	27150	1077891	46451	111414	0	0	8159	496454	0	0
2024-08-12 13:10:47			0	39086	0	0	0	30651	29230	157109	27060	1077936	46441	111416	0	0	8158	496679	0	0
2024-08-12 13:11:47			0	39089	0	0	0	30651	29240	157093	26887	1077882	46443	111416	0	0	8159	496541	0	0
2024-08-12 13:12:47			0	39105	0	0	0	30636	29240	157121	26901	1077846	46430	111410	0	0	8160	495961	0	0
2024-08-12 13:13:47			0	39116	0	0	0	30631	29240	157041	27039	1077792	46430	111408	0	0	8160	495563	0	0
2024-08-12 13:14:47			0	39108	0	0	0	30610	29230	157041	26937	1077756	46430	111400	0	0	8160	495881	0	0
2024-08-12 13:15:47			0	39112	0	0	0	30602	29230	157137	27130	1077747	46408	111397	0	0	8161	495736	0	0
2024-08-12 13:16:47			0	39106	0	0	0	30605	29210	157165	27034	1077747	46417	111398	0	0	8160	496011	0	0
2024-08-12 13:17:47			0	39120	0	0	0	30602	29220	157025	27097	1077729	46440	111397	0	0	8161	495475	0	0
2024-08-12 13:18:47			0	39102	0	0	0	30605	29210	157153	27048	1077747	46428	111398	0	0	8160	496156	0	0
2024-08-12 13:19:47			0	39094	0	0	0	30605	29220	157217	27086	1077729	46417	111398	0	0	8160	496417	0	0
2024-08-12 13:20:47			0	39086	0	0	0	30602	29210	157125	27246	1077774	46428	111397	0	0	8159	496736	0	0
2024-08-12 13:21:47			0	39087	0	0	0	30607	29220	157153	26996	1077792	46441	111399	0	0	8159	496671	0	0
2024-08-12 13:22:47			0	39073	0	0	0	30618	29230	157189	27156	1077855	46429	111403	0	0	8158	497150	0	0
2024-08-12 13:23:47			0	39078	0	0	0	30623	29220	157193	27237	1077792	46452	111405	0	0	8158	496998	0	0
2024-08-12 13:24:47			0	39083	0	0	0	30628	29230	157157	26901	1077828	46429	111407	0	0	8159	496787	0	0
2024-08-12 13:25:47			0	39079	0	0	0	30628	29230	157105	27289	1077891	46430	111407	0	0	8158	496932	0	0
2024-08-12 13:26:47			0	39100	0	0	0	30628	29240	157185	27232	1077900	46442	111407	0	0	8160	496142	0	0
2024-08-12 13:27:47			0	39099	0	0	0	30633	29250	157165	27031	1077999	46431	111409	0	0	8160	496150	0	0
2024-08-12 13:28:47			0	39093	0	0	0	30638	29260	157053	26994	1078044	46444	111411	0	0	8159	496338	0	0
2024-08-12 13:29:47			0	39085	0	0	0	30651	29270	157109	27170	1078107	46434	111416	0	0	8158	496599	0	0
2024-08-12 13:30:47			0	39088	0	0	0	30633	29270	157077	26970	1077972	46434	111409	0	0	8159	496491	0	0
2024-08-12 13:31:47			0	39091	0	0	0	30638	29280	157105	27062	1078054	46447	111411	0	0	8159	496353	0	0
2024-08-12 13:32:47			0	39104	0	0	0	30636	29270	157097	27081	1078026	46434	111410	0	0	8160	495911	0	0
2024-08-12 13:33:47			0	39088	0	0	0	30638	29270	157061	27085	1078026	46434	111411	0	0	8159	496491	0	0
2024-08-12 13:34:47			0	39107	0	0	0	30680	29270	157101	26710	1078251	46457	111427	0	0	8159	495802	0	0
2024-08-12 13:35:47			0	39099	0	0	0	30735	29300	157061	27024	1078432	46470	111448	0	0	8158	496006	0	0
2024-08-12 13:36:47			0	39114	0	0	0	30763	29320	157057	27121	1078522	46450	111459	0	0	8158	495405	0	0
2024-08-12 13:37:47			0	39123	0	0	0	30794	29350	156925	27261	1078612	46476	111471	0	0	8159	494993	0	0
2024-08-12 13:38:47			0	39150	0	0	0	30812	29360	156905	26823	1078765	46465	111478	0	0	8160	493988	0	0
2024-08-12 13:39:47			0	39157	0	0	0	30833	29360	156813	26847	1078792	46465	111486	0	0	8160	493735	0	0
2024-08-12 13:40:47			0	39171	0	0	0	30841	29380	156725	26960	1078820	46479	111489	0	0	8161	493172	0	0
2024-08-12 13:41:47			0	39197	0	0	0	30838	29390	156621	27114	1078730	46458	111488	0	0	8162	492205	0	0
2024-08-12 13:42:47			0	39195	0	0	0	30820	29390	156581	27007	1078703	46446	111481	0	0	8162	492277	0	0
2024-08-12 13:43:47			0	39204	0	0	0	30802	29390	156649	26776	1078622	46424	111474	0	0	8163	491953	0	0
2024-08-12 13:44:47			0	39175	0	0	0	30792	29380	156629	26824	1078640	46434	111470	0	0	8162	493027	0	0
2024-08-12 13:45:47			0	39193	0	0	0	30776	29380	156573	27107	1078613	46445	111464	0	0	8163	492378	0	0
2024-08-12 13:46:47			0	39172	0	0	0	30773	29370	156677	26800	1078541	46433	111463	0	0	8162	493164	0	0
2024-08-12 13:47:47			0	39163	0	0	0	30763	29380	156705	27182	1078523	46423	111459	0	0	8162	493461	0	0
2024-08-12 13:48:47			0	39174	0	0	0	30763	29370	156709	26958	1078568	46444	111459	0	0	8162	493092	0	0
2024-08-12 13:49:47			0	39163	0	0	0	30771	29370	156881	27147	1078559	46444	111462	0	0	8161	493489	0	0
2024-08-12 13:50:47			0	39136	0	0	0	30761	29370	156849	27019	1078541	46444	111458	0	0	8160	494465	0	0
2024-08-12 13:51:47			0	39124	0	0	0	30763	29370	156813	27109	1078531	46422	111459	0	0	8159	494899	0	0
2024-08-12 13:52:47			0	39136	0	0	0	30758	29360	156857	26873	1078441	46443	111457	0	0	8160	494494	0	0
2024-08-12 13:53:47			0	39124	0	0	0	30755	29360	156889	26889	1078459	46432	111456	0	0	8159	494928	0	0
2024-08-12 13:54:47			0	39106	0	0	0	30745	29360	156889	26788	1078495	46455	111452	0	0	8158	495579	0	0
2024-08-12 13:55:47			0	39114	0	0	0	30758	29360	156897	26953	1078495	46432	111457	0	0	8159	495290	0	0
2024-08-12 13:56:47			0	39113	0	0	0	30755	29360	156985	26776	1078549	46432	111456	0	0	8159	495326	0	0
2024-08-12 13:57:47			0	39100	0	0	0	30758	29360	156917	27168	1078603	46443	111457	0	0	8158	495796	0	0
2024-08-12 13:58:47			0	39111	0	0	0	30776	29370	156921	27041	1078693	46444	111464	0	0	8158	495369	0	0
2024-08-12 13:59:47			0	39119	0	0	0	30781	29380	156757	27223	1078712	46457	111466	0	0	8159	495051	0	0
2024-08-12 14:00:47			0	39181	0	0	0	30807	29380	156729	26849	1078766	46457	111476	0	0	8162	492811	0	0
2024-08-12 14:01:47			0	39173	0	0	0	30812	29390	156625	27242	1078766	46446	111478	0	0	8161	493071	0	0
2024-08-12 14:02:47			0	39151	0	0	0	30812	29400	156713	27428	1078748	46447	111478	0	0	8160	493837	0	0
2024-08-12 14:03:47			0	39154	0	0	0	30807	29390	156761	26828	1078784	46446	111476	0	0	8160	493757	0	0
2024-08-12 14:04:47			0	39150	0	0	0	30815	29400	156769	26802	1078865	46448	111479	0	0	8160	493873	0	0
2024-08-12 14:05:47			0	39145	0	0	0	30825	29410	156721	27222	1078793	46448	111483	0	0	8160	494025	0	0
2024-08-12 14:06:47			0	39147	0	0	0	30823	29410	156737	27341	1078901	46459	111482	0	0	8160	493952	0	0
2024-08-12 14:07:47			0	39141	0	0	0	30838	29420	156785	27102	1078946	46460	111488	0	0	8159	494140	0	0
2024-08-12 14:08:47			0	39117	0	0	0	30849	29420	156817	27279	1079009	46472	111492	0	0	8158	495008	0	0
2024-08-12 14:09:47			0	39131	0	0	0	30859	29430	156789	27168	1079046	46450	111496	0	0	8158	494473	0	0
2024-08-12 14:10:47			0	39147	0	0	0	30862	29430	156769	26899	1079046	46472	111497	0	0	8159	493895	0	0
2024-08-12 14:11:47			0	39142	0	0	0	30867	29440	156765	27010	1079010	46462	111499	0	0	8159	494047	0	0
2024-08-12 14:12:47			0	39149	0	0	0	30872	29440	156761	26918	1079073	46452	111501	0	0	8159	493794	0	0
2024-08-12 14:13:47			0	39149	0	0	0	30883	29450	156757	26989	1079109	46474	111505	0	0	8159	493765	0	0
2024-08-12 14:14:47			0	39149	0	0	0	30877	29450	156729	26856	1079064	46452	111503	0	0	8159	493765	0	0
2024-08-12 14:15:47			0	39139	0	0	0	30872	29450	156785	27145	1079082	46452	111501	0	0	8159	494126	0	0
2024-08-12 14:16:47			0	39154	0	0	0	30875	29450	156629	27182	1079091	46463	111502	0	0	8159	493585	0	0
2024-08-12 14:17:47			0	39152	0	0	0	30875	29450	156653	27156	1079091	46441	111502	0	0	8159	493657	0	0
2024-08-12 14:18:47			0	39149	0	0	0	30862	29460	156637	27358	1079073	46453	111497	0	0	8159	493737	0	0
2024-08-12 14:19:47			0	39146	0	0	0	30849	29450	156733	26880	1079010	46463	111492	0	0	8159	493874	0	0
2024-08-12 14:20:47			0	39155	0	0	0	30828	29450	156709	27201	1078947	46452	111484	0	0	8160	493549	0	0
2024-08-12 14:21:47			0	39155	0	0	0	30810	29450	156633	27235	1079001	46441	111477	0	0	8161	493549	0	0
2024-08-12 14:22:47			0	39139	0	0	0	30815	29440	156733	27279	1078992	46430	111479	0	0	8160	494155	0	0
2024-08-12 14:23:47			0	39138	0	0	0	30802	29440	156745	27105	1078956	46440	111474	0	0	8160	494191	0	0
2024-08-12 14:24:47			0	39127	0	0	0	30810	29440	156745	27066	1079010	46440	111477	0	0	8159	494589	0	0
2024-08-12 14:25:47			0	39132	0	0	0	30831	29430	156753	27112	1078974	46450	111485	0	0	8159	494437	0	0
2024-08-12 14:26:47			0	39135	0	0	0	30833	29450	156817	27008	1079010	46441	111486	0	0	8159	494271	0	0
2024-08-12 14:27:47			0	39136	0	0	0	30841	29450	156849	26987	1079091	46452	111489	0	0	8159	494235	0	0
2024-08-12 14:28:47			0	39142	0	0	0	30838	29460	156801	27192	1079046	46464	111488	0	0	8159	493989	0	0
2024-08-12 14:29:47			0	39144	0	0	0	30867	29470	156745	26755	1079199	46466	111499	0	0	8159	493888	0	0
2024-08-12 14:30:47			0	39140	0	0	0	30888	29470	156701	27244	1079199	46444	111507	0	0	8159	494033	0	0
2024-08-12 14:31:47			0	39168	0	0	0	30885	29470	156641	26920	1079181	46466	111506	0	0	8160	493022	0	0
2024-08-12 14:32:47			0	39162	0	0	0	30877	29470	156641	27194	1079064	46455	111503	0	0	8160	493239	0	0
2024-08-12 14:33:47			0	39199	0	0	0	30867	29450	156545	27123	1079037	46430	111499	0	0	8162	491961	0	0
2024-08-12 14:34:47			0	39194	0	0	0	30857	29460	156493	27074	1078992	46464	111495	0	0	8162	492113	0	0
2024-08-12 14:35:47			0	39192	0	0	0	30854	29450	156453	27074	1079064	46452	111494	0	0	8162	492214	0	0
2024-08-12 14:36:47			0	39198	0	0	0	30862	29470	156477	27199	1079172	46466	111497	0	0	8162	491940	0	0
2024-08-12 14:37:47			0	39206	0	0	0	30883	29460	156425	27197	1079244	46465	111505	0	0	8162	491680	0	0
2024-08-12 14:38:47			0	39210	0	0	0	30906	29480	156409	27416	1079298	46477	111514	0	0	8162	491479	0	0
2024-08-12 14:39:47			0	39212	0	0	0	30922	29500	156377	27327	1079416	46479	111520	0	0	8162	491350	0	0
2024-08-12 14:40:47			0	39230	0	0	0	30916	29490	156313	27284	1079290	46479	111518	0	0	8163	490731	0	0
2024-08-12 14:41:47			0	39236	0	0	0	30903	29490	156377	27197	1079272	46446	111513	0	0	8164	490515	0	0
2024-08-12 14:42:47			0	39237	0	0	0	30880	29490	156265	26982	1079155	46435	111504	0	0	8164	490479	0	0
2024-08-12 14:43:47			0	39244	0	0	0	30867	29480	156333	26958	1079136	46444	111499	0	0	8165	490255	0	0
2024-08-12 14:44:47			0	39240	0	0	0	30854	29470	156357	27175	1079145	46444	111494	0	0	8165	490428	0	0
2024-08-12 14:45:47			0	39247	0	0	0	30854	29480	156257	27083	1079109	46444	111494	0	0	8165	490148	0	0
2024-08-12 14:46:47			0	39256	0	0	0	30859	29470	156337	27163	1079208	46466	111496	0	0	8166	489852	0	0
2024-08-12 14:47:47			0	39230	0	0	0	30867	29470	156269	27092	1079235	46466	111499	0	0	8164	490788	0	0
2024-08-12 14:48:47			0	39206	0	0	0	30864	29480	156285	26847	1079226	46456	111498	0	0	8163	491623	0	0
2024-08-12 14:49:47			0	39214	0	0	0	30857	29480	156265	27071	1079173	46456	111495	0	0	8163	491335	0	0
2024-08-12 14:50:47			0	39228	0	0	0	30862	29480	156301	27194	1079163	46444	111497	0	0	8164	490831	0	0
2024-08-12 14:51:47			0	39227	0	0	0	30875	29480	156313	26963	1079335	46467	111502	0	0	8164	490867	0	0
2024-08-12 14:52:47			0	39226	0	0	0	30888	29490	156357	27036	1079461	46468	111507	0	0	8163	490874	0	0
2024-08-12 14:53:47			0	39242	0	0	0	30890	29500	156301	27293	1079416	46491	111508	0	0	8164	490270	0	0
2024-08-12 14:54:47			0	39220	0	0	0	30898	29510	156329	27055	1079497	46470	111511	0	0	8163	491033	0	0
2024-08-12 14:55:47			0	39230	0	0	0	30901	29520	156297	27166	1079515	46471	111512	0	0	8164	490645	0	0
2024-08-12 14:56:47			0	39255	0	0	0	30906	29530	156165	27218	1079497	46450	111514	0	0	8165	489717	0	0
2024-08-12 14:57:47			0	39256	0	0	0	30906	29530	156157	27069	1079506	46461	111514	0	0	8165	489682	0	0
2024-08-12 14:58:47			0	39259	0	0	0	30888	29520	156049	27076	1079299	46449	111507	0	0	8165	489602	0	0
2024-08-12 14:59:47			0	39280	0	0	0	30862	29510	156085	26996	1079191	46436	111497	0	0	8167	488876	0	0
2024-08-12 15:00:47			0	39279	0	0	0	30849	29500	156089	27144	1079182	46436	111492	0	0	8167	488941	0	0
2024-08-12 15:01:47			0	39289	0	0	0	30844	29490	156001	26968	1079290	46446	111490	0	0	8168	488610	0	0
2024-08-12 15:02:47			0	39310	0	0	0	30862	29500	155969	27116	1079362	46468	111497	0	0	8169	487828	0	0
2024-08-12 15:03:47			0	39314	0	0	0	30864	29520	156017	27019	1079479	46481	111498	0	0	8169	487628	0	0
2024-08-12 15:04:47			0	39295	0	0	0	30893	29520	155997	27218	1079614	46481	111509	0	0	8167	488310	0	0
2024-08-12 15:05:47			0	39297	0	0	0	30914	29550	155973	27284	1079768	46496	111517	0	0	8167	488153	0	0
2024-08-12 15:06:47			0	39321	0	0	0	30906	29560	155829	26667	1079741	46475	111514	0	0	8169	487264	0	0
2024-08-12 15:07:47			0	39300	0	0	0	30914	29570	155917	27097	1079750	46475	111517	0	0	8168	487988	0	0
2024-08-12 15:08:47			0	39307	0	0	0	30919	29580	155961	27048	1079741	46477	111519	0	0	8168	487709	0	0
2024-08-12 15:09:47			0	39321	0	0	0	30906	29570	155833	27398	1079705	46443	111514	0	0	8169	487235	0	0
2024-08-12 15:10:47			0	39323	0	0	0	30914	29570	155817	27059	1079750	46453	111517	0	0	8169	487164	0	0
2024-08-12 15:11:47			0	39334	0	0	0	30948	29580	155845	27088	1079768	46477	111530	0	0	8169	486741	0	0
2024-08-12 15:12:47			0	39332	0	0	0	30961	29590	155733	27227	1079813	46477	111535	0	0	8169	486785	0	0
2024-08-12 15:13:47			0	39349	0	0	0	30950	29590	155733	27192	1079732	46444	111531	0	0	8170	486176	0	0
2024-08-12 15:14:47			0	39360	0	0	0	30927	29580	155785	27166	1079669	46444	111522	0	0	8171	485811	0	0
2024-08-12 15:15:47			0	39369	0	0	0	30919	29570	155701	27232	1079570	46464	111519	0	0	8171	485517	0	0
2024-08-12 15:16:47			0	39367	0	0	0	30932	29570	155785	27183	1079678	46443	111524	0	0	8171	485589	0	0
2024-08-12 15:17:47			0	39376	0	0	0	30937	29570	155645	27196	1079642	46453	111526	0	0	8171	485267	0	0
2024-08-12 15:18:47			0	39388	0	0	0	30922	29570	155761	26904	1079516	46431	111520	0	0	8172	484838	0	0
2024-08-12 15:19:47			0	39375	0	0	0	30922	29560	155657	27137	1079606	46441	111520	0	0	8172	485331	0	0
2024-08-12 15:20:47			0	39388	0	0	0	30924	29560	155649	27182	1079633	46463	111521	0	0	8172	484867	0	0
2024-08-12 15:21:47			0	39379	0	0	0	30940	29560	155633	27081	1079741	46463	111527	0	0	8172	485188	0	0
2024-08-12 15:22:47			0	39409	0	0	0	30971	29580	155729	26972	1079822	46465	111539	0	0	8173	484060	0	0
2024-08-12 15:23:47			0	39396	0	0	0	30953	29570	155645	26866	1079678	46454	111532	0	0	8172	484553	0	0
2024-08-12 15:24:47			0	39393	0	0	0	30948	29580	155629	27074	1079750	46465	111530	0	0	8172	484631	0	0
2024-08-12 15:25:47			0	39414	0	0	0	30940	29580	155625	26951	1079768	46444	111527	0	0	8174	483882	0	0
2024-08-12 15:26:47			0	39398	0	0	0	30955	29580	155661	26696	1079804	46465	111533	0	0	8172	484453	0	0
2024-08-12 15:27:47			0	39400	0	0	0	30971	29590	155537	27072	1079867	46477	111539	0	0	8172	484353	0	0
2024-08-12 15:28:47			0	39423	0	0	0	30979	29590	155554	27147	1079840	46455	111542	0	0	8174	483533	0	0
2024-08-12 15:29:47			0	39414	0	0	0	30976	29600	155509	26885	1079894	46458	111541	0	0	8173	483825	0	0
2024-08-12 15:30:47			0	39423	0	0	0	30981	29610	155506	27024	1079886	46458	111543	0	0	8174	483476	0	0
2024-08-12 15:31:47			0	39422	0	0	0	30961	29600	155494	27005	1079786	46446	111535	0	0	8174	483540	0	0
2024-08-12 15:32:47			0	39425	0	0	0	30927	29580	155518	26873	1079534	46444	111522	0	0	8174	483489	0	0
2024-08-12 15:33:47			0	39438	0	0	0	30896	29560	155570	27046	1079444	46419	111510	0	0	8176	483082	0	0
2024-08-12 15:34:47			0	39453	0	0	0	30901	29560	155494	26882	1079435	46419	111512	0	0	8176	482547	0	0
2024-08-12 15:35:47			0	39431	0	0	0	30875	29540	155558	27076	1079354	46428	111502	0	0	8176	483388	0	0
2024-08-12 15:36:47			0	39448	0	0	0	30877	29540	155542	26798	1079462	46451	111503	0	0	8176	482782	0	0
2024-08-12 15:37:47			0	39449	0	0	0	30877	29530	155562	26946	1079344	46451	111503	0	0	8176	482774	0	0
2024-08-12 15:38:47			0	39432	0	0	0	30867	29530	155586	27020	1079362	46450	111499	0	0	8176	483380	0	0
2024-08-12 15:39:47			0	39435	0	0	0	30862	29530	155530	26840	1079254	46438	111497	0	0	8176	483273	0	0
2024-08-12 15:40:47			0	39428	0	0	0	30849	29510	155586	26979	1079299	46436	111492	0	0	8176	483579	0	0
2024-08-12 15:41:47			0	39406	0	0	0	30867	29500	155677	26994	1079344	46458	111499	0	0	8174	484393	0	0
2024-08-12 15:42:47			0	39420	0	0	0	30890	29510	155626	27286	1079515	46458	111508	0	0	8175	483865	0	0
2024-08-12 15:43:47			0	39407	0	0	0	30914	29530	155613	27067	1079605	46483	111517	0	0	8173	484273	0	0
2024-08-12 15:44:47			0	39396	0	0	0	30924	29540	155681	26928	1079651	46473	111521	0	0	8173	484637	0	0
2024-08-12 15:45:47			0	39402	0	0	0	30916	29550	155685	26569	1079552	46473	111518	0	0	8173	484395	0	0
2024-08-12 15:46:47			0	39388	0	0	0	30935	29560	155697	27114	1079714	46475	111525	0	0	8172	484867	0	0
2024-08-12 15:47:47			0	39397	0	0	0	30909	29560	155685	27237	1079687	46463	111515	0	0	8173	484545	0	0
2024-08-12 15:48:47			0	39408	0	0	0	30919	29560	155609	26930	1079687	46453	111519	0	0	8174	484152	0	0
2024-08-12 15:49:47			0	39402	0	0	0	30924	29570	155545	27197	1079750	46463	111521	0	0	8173	484338	0	0
2024-08-12 15:50:47			0	39422	0	0	0	30961	29570	155606	26986	1079840	46464	111535	0	0	8174	483625	0	0
2024-08-12 15:51:47			0	39418	0	0	0	30992	29590	155529	26727	1080029	46500	111547	0	0	8173	483711	0	0
2024-08-12 15:52:47			0	39422	0	0	0	31020	29620	155602	26987	1080138	46503	111558	0	0	8173	483484	0	0
2024-08-12 15:53:47			0	39401	0	0	0	31044	29630	155565	26811	1080165	46493	111567	0	0	8171	484205	0	0
2024-08-12 15:54:47			0	39392	0	0	0	31064	29630	155593	26675	1080273	46493	111575	0	0	8171	484526	0	0
2024-08-12 15:55:47			0	39365	0	0	0	31075	29650	155593	26868	1080309	46484	111579	0	0	8169	485434	0	0
2024-08-12 15:56:47			0	39380	0	0	0	31088	29670	155613	26710	1080400	46498	111584	0	0	8170	484842	0	0
2024-08-12 15:57:47			0	39372	0	0	0	31109	29680	155621	26899	1080445	46499	111592	0	0	8169	485099	0	0
2024-08-12 15:58:47			0	39376	0	0	0	31111	29680	155625	26934	1080553	46510	111593	0	0	8169	484957	0	0
2024-08-12 15:59:47			0	39396	0	0	0	31127	29700	155625	26882	1080535	46478	111599	0	0	8170	484186	0	0
2024-08-12 16:00:47			0	39371	0	0	0	31124	29710	155653	27133	1080544	46491	111598	0	0	8169	485050	0	0
2024-08-12 16:01:47			0	39384	0	0	0	31119	29720	155629	27164	1080626	46502	111596	0	0	8170	484558	0	0
2024-08-12 16:02:47			0	39380	0	0	0	31132	29710	155657	27220	1080715	46491	111601	0	0	8169	484729	0	0
2024-08-12 16:03:47			0	39354	0	0	0	31116	29720	155629	26911	1080653	46480	111595	0	0	8168	485630	0	0
2024-08-12 16:04:47			0	39346	0	0	0	31103	29730	155717	26767	1080671	46481	111590	0	0	8168	485887	0	0
2024-08-12 16:05:47			0	39329	0	0	0	31085	29740	155889	27059	1080599	46482	111583	0	0	8167	486467	0	0
2024-08-12 16:06:47			0	39304	0	0	0	31077	29740	155901	26826	1080608	46482	111580	0	0	8166	487362	0	0
2024-08-12 16:07:47			0	39276	0	0	0	31075	29740	155977	26838	1080581	46471	111579	0	0	8164	488366	0	0
2024-08-12 16:08:47			0	39245	0	0	0	31077	29740	156085	27059	1080608	46449	111580	0	0	8162	489478	0	0
2024-08-12 16:09:47			0	39220	0	0	0	31109	29740	156149	27043	1080716	46471	111592	0	0	8161	490376	0	0
2024-08-12 16:10:47			0	39201	0	0	0	31155	29750	156317	26873	1080806	46495	111610	0	0	8159	491031	0	0
2024-08-12 16:11:47			0	39167	0	0	0	31166	29770	156385	26679	1080870	46485	111614	0	0	8157	492198	0	0
2024-08-12 16:12:47			0	39161	0	0	0	31171	29770	156409	26859	1080870	46485	111616	0	0	8156	492414	0	0
2024-08-12 16:13:47			0	39146	0	0	0	31184	29770	156417	26970	1080924	46485	111621	0	0	8155	492954	0	0
2024-08-12 16:14:47			0	39146	0	0	0	31199	29780	156421	26927	1080915	46486	111627	0	0	8155	492926	0	0
2024-08-12 16:15:47			0	39134	0	0	0	31186	29790	156565	26956	1080879	46476	111622	0	0	8155	493330	0	0
2024-08-12 16:16:47			0	39136	0	0	0	31173	29780	156477	27041	1080915	46463	111617	0	0	8155	493286	0	0
2024-08-12 16:17:47			0	39123	0	0	0	31173	29780	156533	27149	1080843	46486	111617	0	0	8154	493755	0	0
2024-08-12 16:18:47			0	39124	0	0	0	31158	29770	156509	26764	1080789	46474	111611	0	0	8154	493748	0	0
2024-08-12 16:19:47			0	39114	0	0	0	31163	29780	156545	26571	1080807	46475	111613	0	0	8154	494080	0	0
2024-08-12 16:20:47			0	39097	0	0	0	31166	29780	156713	26906	1080843	46463	111614	0	0	8153	494694	0	0
2024-08-12 16:21:47			0	39080	0	0	0	31181	29780	156605	26767	1080897	46463	111620	0	0	8152	495308	0	0
2024-08-12 16:22:47			0	39081	0	0	0	31184	29780	156625	26902	1080915	46486	111621	0	0	8152	495272	0	0
2024-08-12 16:23:47			0	39057	0	0	0	31155	29780	156669	27067	1080789	46463	111610	0	0	8151	496140	0	0
2024-08-12 16:24:47			0	39070	0	0	0	31067	29750	156677	26935	1080302	46406	111576	0	0	8153	495757	0	0
2024-08-12 16:25:47			0	39071	0	0	0	31041	29730	156765	27166	1080256	46415	111566	0	0	8153	495778	0	0
2024-08-12 16:26:47			0	39052	0	0	0	31038	29710	156861	27029	1080274	46457	111565	0	0	8152	496524	0	0
2024-08-12 16:27:47			0	39032	0	0	0	31038	29710	156829	27211	1080274	46457	111565	0	0	8151	497249	0	0
2024-08-12 16:28:47			0	39004	0	0	0	31051	29700	156985	26863	1080373	46478	111570	0	0	8149	498293	0	0
2024-08-12 16:29:47			0	38983	0	0	0	31054	29700	157117	26828	1080373	46467	111571	0	0	8148	499055	0	0
2024-08-12 16:30:47			0	38968	0	0	0	31077	29710	157233	26987	1080436	46479	111580	0	0	8147	499572	0	0
2024-08-12 16:31:47			0	38941	0	0	0	31093	29720	157213	26776	1080544	46492	111586	0	0	8145	500524	0	0
2024-08-12 16:32:47			0	38933	0	0	0	31127	29720	157297	26776	1080643	46501	111599	0	0	8144	500815	0	0
2024-08-12 16:33:47			0	38932	0	0	0	31186	29730	157297	26922	1080833	46493	111622	0	0	8143	500823	0	0
2024-08-12 16:34:47			0	38933	0	0	0	31199	29750	157337	26909	1081004	46518	111627	0	0	8143	500728	0	0
2024-08-12 16:35:47			0	38931	0	0	0	31199	29770	157325	26972	1080951	46507	111627	0	0	8143	500742	0	0
2024-08-12 16:36:47			0	38911	0	0	0	31179	29770	157289	26870	1080933	46498	111619	0	0	8142	501470	0	0
2024-08-12 16:37:47			0	38927	0	0	0	31199	29780	157337	27104	1080951	46498	111627	0	0	8143	500859	0	0
2024-08-12 16:38:47			0	38927	0	0	0	31197	29780	157413	27118	1081032	46508	111626	0	0	8143	500859	0	0
2024-08-12 16:39:47			0	38929	0	0	0	31207	29790	157357	26956	1081023	46477	111630	0	0	8143	500757	0	0
2024-08-12 16:40:47			0	38924	0	0	0	31202	29790	157377	27300	1080969	46465	111628	0	0	8142	500939	0	0
2024-08-12 16:41:47			0	38923	0	0	0	31189	29780	157193	26875	1080843	46463	111623	0	0	8143	501004	0	0
2024-08-12 16:42:47			0	38929	0	0	0	31161	29780	157141	27043	1080789	46475	111612	0	0	8143	500786	0	0
2024-08-12 16:43:47			0	38911	0	0	0	31150	29780	157309	26885	1080834	46463	111608	0	0	8142	501441	0	0
2024-08-12 16:44:47			0	38921	0	0	0	31150	29770	157325	26849	1080735	46452	111608	0	0	8143	501106	0	0
2024-08-12 16:45:47			0	38909	0	0	0	31150	29770	157253	26882	1080843	46485	111608	0	0	8142	501543	0	0
2024-08-12 16:46:47			0	38917	0	0	0	31155	29770	157285	26894	1080798	46475	111610	0	0	8143	501252	0	0
2024-08-12 16:47:47			0	38924	0	0	0	31163	29770	157297	27209	1080816	46485	111613	0	0	8143	500997	0	0
2024-08-12 16:48:47			0	38923	0	0	0	31161	29780	157237	26967	1080780	46486	111612	0	0	8143	501004	0	0
2024-08-12 16:49:47			0	38905	0	0	0	31161	29770	157217	26748	1080843	46474	111612	0	0	8142	501689	0	0
2024-08-12 16:50:47			0	38918	0	0	0	31150	29770	157257	26998	1080717	46475	111608	0	0	8143	501215	0	0
2024-08-12 16:51:47			0	38907	0	0	0	31145	29760	157269	26922	1080716	46473	111606	0	0	8142	501645	0	0
2024-08-12 16:52:47			0	38933	0	0	0	31148	29760	157213	27008	1080689	46484	111607	0	0	8144	500699	0	0
2024-08-12 16:53:47			0	38927	0	0	0	31145	29760	157133	26890	1080797	46484	111606	0	0	8143	500917	0	0
2024-08-12 16:54:47			0	38937	0	0	0	31153	29760	157217	26941	1080797	46473	111609	0	0	8144	500553	0	0
2024-08-12 16:55:47			0	38950	0	0	0	31153	29770	157137	26844	1080816	46474	111609	0	0	8145	500051	0	0
2024-08-12 16:56:47			0	38939	0	0	0	31161	29770	157181	26727	1080906	46486	111612	0	0	8144	500451	0	0
2024-08-12 16:57:47			0	38958	0	0	0	31189	29780	157113	26975	1081023	46498	111623	0	0	8144	499731	0	0
2024-08-12 16:58:47			0	38959	0	0	0	31210	29800	157101	27085	1081059	46510	111631	0	0	8144	499637	0	0
2024-08-12 16:59:47			0	38973	0	0	0	31210	29800	157045	26819	1081041	46500	111631	0	0	8145	499128	0	0
2024-08-12 17:00:47			0	38973	0	0	0	31218	29800	157081	27000	1081068	46511	111634	0	0	8145	499128	0	0
2024-08-12 17:01:47			0	38982	0	0	0	31210	29810	157105	26925	1081077	46489	111631	0	0	8146	498772	0	0
2024-08-12 17:02:47			0	38988	0	0	0	31205	29810	157029	26960	1081059	46501	111629	0	0	8146	498554	0	0
2024-08-12 17:03:47			0	38978	0	0	0	31194	29800	157029	27180	1081014	46489	111625	0	0	8146	498946	0	0
2024-08-12 17:04:47			0	38988	0	0	0	31192	29800	156929	26916	1080960	46478	111624	0	0	8146	498583	0	0
2024-08-12 17:05:47			0	38984	0	0	0	31186	29790	156933	26970	1081023	46477	111622	0	0	8146	498757	0	0
2024-08-12 17:06:47			0	38995	0	0	0	31189	29790	156961	26909	1080960	46476	111623	0	0	8147	498358	0	0
2024-08-12 17:07:47			0	39004	0	0	0	31194	29800	156969	26797	1080978	46488	111625	0	0	8147	498003	0	0
2024-08-12 17:08:47			0	38981	0	0	0	31179	29790	157021	27020	1080888	46465	111619	0	0	8146	498866	0	0
2024-08-12 17:09:47			0	38992	0	0	0	31173	29790	156949	26967	1080915	46477	111617	0	0	8147	498467	0	0
2024-08-12 17:10:47			0	38999	0	0	0	31155	29790	156981	27026	1080888	46465	111610	0	0	8147	498213	0	0
2024-08-12 17:11:47			0	39001	0	0	0	31163	29780	156949	27246	1080870	46463	111613	0	0	8147	498170	0	0
2024-08-12 17:12:47			0	38987	0	0	0	31153	29780	157009	27150	1080834	46486	111609	0	0	8147	498678	0	0
2024-08-12 17:13:47			0	38995	0	0	0	31142	29770	156917	27055	1080825	46475	111605	0	0	8147	498416	0	0
2024-08-12 17:14:47			0	38996	0	0	0	31137	29780	156941	26680	1080807	46475	111603	0	0	8148	498351	0	0
2024-08-12 17:15:47			0	38988	0	0	0	31129	29770	156961	27157	1080707	46462	111600	0	0	8147	498670	0	0
2024-08-12 17:16:47			0	38987	0	0	0	31129	29760	156957	26856	1080743	46461	111600	0	0	8147	498736	0	0
2024-08-12 17:17:47			0	38991	0	0	0	31114	29750	156949	27027	1080653	46473	111594	0	0	8147	498620	0	0
2024-08-12 17:18:47			0	38992	0	0	0	31127	29750	157057	26649	1080599	46461	111599	0	0	8147	498583	0	0
2024-08-12 17:19:47			0	38965	0	0	0	31119	29740	156973	26804	1080716	46471	111596	0	0	8146	499593	0	0
2024-08-12 17:20:47			0	38968	0	0	0	31119	29750	157025	26899	1080707	46484	111596	0	0	8146	499455	0	0
2024-08-12 17:21:47			0	38957	0	0	0	31111	29740	157141	27060	1080680	46494	111593	0	0	8146	499884	0	0
2024-08-12 17:22:47			0	38959	0	0	0	31114	29750	157181	27008	1080725	46460	111594	0	0	8146	499782	0	0
2024-08-12 17:23:47			0	38958	0	0	0	31124	29740	157113	26726	1080707	46471	111598	0	0	8145	499848	0	0
2024-08-12 17:24:47			0	38926	0	0	0	31137	29750	157273	27331	1080734	46484	111603	0	0	8143	500983	0	0
2024-08-12 17:25:47			0	38925	0	0	0	31150	29750	157329	26930	1080788	46518	111608	0	0	8143	501019	0	0
2024-08-12 17:26:47			0	38906	0	0	0	31161	29760	157309	27150	1080797	46506	111612	0	0	8142	501682	0	0
2024-08-12 17:27:47			0	38875	0	0	0	31150	29760	157433	27220	1080833	46496	111608	0	0	8140	502812	0	0
2024-08-12 17:28:47			0	38857	0	0	0	31153	29760	157413	26890	1080806	46496	111609	0	0	8139	503469	0	0
2024-08-12 17:29:47			0	38853	0	0	0	31171	29770	157477	27066	1080852	46486	111616	0	0	8139	503585	0	0
2024-08-12 17:30:47			0	38842	0	0	0	31184	29780	157565	26939	1080969	46508	111621	0	0	8138	503958	0	0
2024-08-12 17:31:47			0	38828	0	0	0	31194	29780	157641	27131	1080951	46508	111625	0	0	8137	504469	0	0
2024-08-12 17:32:47			0	38819	0	0	0	31184	29790	157553	26981	1080960	46487	111621	0	0	8137	504769	0	0
2024-08-12 17:33:47			0	38807	0	0	0	31197	29790	157721	26838	1080987	46499	111626	0	0	8136	505208	0	0
2024-08-12 17:34:47			0	38803	0	0	0	31186	29790	157749	26916	1081014	46499	111622	0	0	8136	505354	0	0
2024-08-12 17:35:47			0	38800	0	0	0	31181	29780	157605	27005	1080978	46486	111620	0	0	8136	505493	0	0
2024-08-12 17:36:47			0	38788	0	0	0	31181	29790	157681	26902	1080915	46500	111620	0	0	8135	505903	0	0
2024-08-12 17:37:47			0	38812	0	0	0	31179	29800	157645	27043	1081005	46488	111619	0	0	8136	504996	0	0
2024-08-12 17:38:47			0	38826	0	0	0	31194	29790	157577	26774	1080996	46500	111625	0	0	8137	504513	0	0
2024-08-12 17:39:47			0	38823	0	0	0	31197	29790	157537	27085	1081077	46500	111626	0	0	8137	504623	0	0
2024-08-12 17:40:47			0	38846	0	0	0	31205	29800	157549	26998	1081113	46510	111629	0	0	8138	503753	0	0
2024-08-12 17:41:47			0	38841	0	0	0	31225	29810	157481	26878	1081194	46512	111637	0	0	8137	503906	0	0
2024-08-12 17:42:47			0	38844	0	0	0	31238	29830	157505	27126	1081222	46502	111642	0	0	8137	503738	0	0
2024-08-12 17:43:47			0	38862	0	0	0	31238	29830	157545	26951	1081303	46491	111642	0	0	8138	503081	0	0
2024-08-12 17:44:47			0	38873	0	0	0	31241	29840	157405	26984	1081321	46515	111643	0	0	8139	502650	0	0
2024-08-12 17:45:47			0	38851	0	0	0	31264	29850	157305	27078	1081447	46516	111652	0	0	8137	503424	0	0
2024-08-12 17:46:47			0	38902	0	0	0	31283	29860	157257	27059	1081537	46528	111659	0	0	8140	501535	0	0
2024-08-12 17:47:47			0	38916	0	0	0	31296	29880	157121	26863	1081573	46518	111664	0	0	8141	500967	0	0
2024-08-12 17:48:47			0	38922	0	0	0	31311	29880	157165	27109	1081546	46529	111670	0	0	8141	500748	0	0
2024-08-12 17:49:47			0	38946	0	0	0	31311	29880	157049	26824	1081556	46519	111670	0	0	8142	499876	0	0
2024-08-12 17:50:47			0	38977	0	0	0	31316	29890	156953	27114	1081619	46508	111672	0	0	8144	498721	0	0
2024-08-12 17:51:47			0	38996	0	0	0	31314	29890	156921	26859	1081655	46487	111671	0	0	8145	498032	0	0
2024-08-12 17:52:47			0	39039	0	0	0	31306	29890	156745	26727	1081547	46498	111668	0	0	8148	496474	0	0
2024-08-12 17:53:47			0	39045	0	0	0	31303	29890	156689	27033	1081601	46509	111667	0	0	8148	496257	0	0
2024-08-12 17:54:47			0	39068	0	0	0	31296	29900	156713	26817	1081565	46499	111664	0	0	8149	495396	0	0
2024-08-12 17:55:47			0	39068	0	0	0	31285	29890	156689	27078	1081520	46498	111660	0	0	8150	495425	0	0
2024-08-12 17:56:47			0	39077	0	0	0	31293	29890	156533	26956	1081592	46497	111663	0	0	8150	495099	0	0
2024-08-12 17:57:47			0	39105	0	0	0	31303	29900	156561	26961	1081637	46509	111667	0	0	8151	494059	0	0
2024-08-12 17:58:47			0	39102	0	0	0	31306	29900	156445	27093	1081646	46510	111668	0	0	8151	494168	0	0
2024-08-12 17:59:47			0	39094	0	0	0	31324	29910	156481	26795	1081745	46511	111675	0	0	8151	494428	0	0
2024-08-12 18:00:47			0	39104	0	0	0	31327	29910	156485	27079	1081691	46511	111676	0	0	8151	494067	0	0
2024-08-12 18:01:47			0	39094	0	0	0	31329	29910	156537	26880	1081718	46500	111677	0	0	8150	494428	0	0
2024-08-12 18:02:47			0	39084	0	0	0	31324	29920	156597	26833	1081755	46512	111675	0	0	8150	494760	0	0
2024-08-12 18:03:47			0	39084	0	0	0	31327	29920	156477	27059	1081737	46490	111676	0	0	8150	494760	0	0
2024-08-12 18:04:47			0	39080	0	0	0	31322	29920	156517	26719	1081628	46512	111674	0	0	8150	494904	0	0
2024-08-12 18:05:47			0	39093	0	0	0	31314	29930	156449	26946	1081692	46500	111671	0	0	8151	494406	0	0
2024-08-12 18:06:47			0	39090	0	0	0	31303	29930	156509	27107	1081746	46500	111667	0	0	8151	494514	0	0
2024-08-12 18:07:47			0	39092	0	0	0	31309	29920	156413	27190	1081737	46512	111669	0	0	8151	494471	0	0
2024-08-12 18:08:47			0	39107	0	0	0	31314	29930	156381	27223	1081800	46512	111671	0	0	8151	493901	0	0
2024-08-12 18:09:47			0	39098	0	0	0	31316	29920	156441	27104	1081700	46500	111672	0	0	8151	494254	0	0
2024-08-12 18:10:47			0	39089	0	0	0	31316	29940	156477	27048	1081818	46502	111672	0	0	8150	494522	0	0
2024-08-12 18:11:47			0	39097	0	0	0	31311	29950	156445	27138	1081809	46515	111670	0	0	8151	494204	0	0
2024-08-12 18:12:47			0	39109	0	0	0	31290	29940	156433	27218	1081719	46502	111662	0	0	8152	493800	0	0
2024-08-12 18:13:47			0	39085	0	0	0	31277	29940	156457	27479	1081602	46492	111657	0	0	8151	494666	0	0
2024-08-12 18:14:47			0	39105	0	0	0	31264	29920	156397	27353	1081511	46490	111652	0	0	8152	494002	0	0
2024-08-12 18:15:47			0	39115	0	0	0	31262	29910	156469	27227	1081583	46477	111651	0	0	8153	493670	0	0
2024-08-12 18:16:47			0	39087	0	0	0	31259	29910	156489	27171	1081547	46488	111650	0	0	8151	494680	0	0
2024-08-12 18:17:47			0	39087	0	0	0	31275	29900	156509	27244	1081592	46499	111656	0	0	8151	494709	0	0
2024-08-12 18:18:47			0	39093	0	0	0	31277	29910	156541	27010	1081574	46510	111657	0	0	8151	494464	0	0
2024-08-12 18:19:47			0	39096	0	0	0	31275	29910	156589	27092	1081556	46500	111656	0	0	8151	494355	0	0
2024-08-12 18:20:47			0	39091	0	0	0	31277	29910	156625	27196	1081601	46499	111657	0	0	8151	494536	0	0
2024-08-12 18:21:47			0	39109	0	0	0	31277	29910	156457	27005	1081601	46510	111657	0	0	8152	493886	0	0
2024-08-12 18:22:47			0	39095	0	0	0	31298	29910	156461	27211	1081637	46522	111665	0	0	8151	494391	0	0
2024-08-12 18:23:47			0	39099	0	0	0	31298	29910	156469	27045	1081637	46489	111665	0	0	8151	494247	0	0
2024-08-12 18:24:47			0	39087	0	0	0	31296	29910	156481	27045	1081628	46499	111664	0	0	8151	494680	0	0
2024-08-12 18:25:47			0	39109	0	0	0	31290	29910	156425	26890	1081610	46489	111662	0	0	8152	493886	0	0
2024-08-12 18:26:47			0	39114	0	0	0	31298	29910	156433	26859	1081637	46500	111665	0	0	8152	493706	0	0
2024-08-12 18:27:47			0	39103	0	0	0	31314	29910	156501	27154	1081637	46511	111671	0	0	8151	494103	0	0
2024-08-12 18:28:47			0	39096	0	0	0	31280	29910	156533	27026	1081583	46500	111658	0	0	8151	494355	0	0
2024-08-12 18:29:47			0	39107	0	0	0	31267	29910	156393	26816	1081529	46489	111653	0	0	8152	493958	0	0
2024-08-12 18:30:47			0	39103	0	0	0	31283	29900	156409	26831	1081592	46499	111659	0	0	8152	494131	0	0
2024-08-12 18:31:47			0	39091	0	0	0	31275	29900	156549	26804	1081502	46509	111656	0	0	8151	494565	0	0
2024-08-12 18:32:47			0	39079	0	0	0	31280	29900	156649	26916	1081538	46499	111658	0	0	8150	494998	0	0
2024-08-12 18:33:47			0	39059	0	0	0	31283	29900	156677	27078	1081565	46510	111659	0	0	8149	495721	0	0
2024-08-12 18:34:47			0	39046	0	0	0	31283	29900	156669	27076	1081529	46509	111659	0	0	8148	496191	0	0
2024-08-12 18:35:47			0	39036	0	0	0	31280	29900	156693	26870	1081511	46510	111658	0	0	8148	496553	0	0
2024-08-12 18:36:47			0	39034	0	0	0	31275	29890	156849	26790	1081547	46498	111656	0	0	8148	496655	0	0
2024-08-12 18:37:47			0	39004	0	0	0	31267	29890	156773	26896	1081484	46508	111653	0	0	8146	497741	0	0
2024-08-12 18:38:47			0	39014	0	0	0	31264	29890	156793	26955	1081439	46498	111652	0	0	8147	497379	0	0
2024-08-12 18:39:47			0	39013	0	0	0	31262	29890	156861	26722	1081493	46509	111651	0	0	8147	497415	0	0
2024-08-12 18:40:47			0	38982	0	0	0	31254	29880	156913	27209	1081420	46497	111648	0	0	8145	498569	0	0
2024-08-12 18:41:47			0	38976	0	0	0	31251	29880	156845	27090	1081438	46496	111647	0	0	8145	498786	0	0
2024-08-12 18:42:47			0	38960	0	0	0	31241	29870	156941	26840	1081402	46496	111643	0	0	8144	499396	0	0
2024-08-12 18:43:47			0	38972	0	0	0	31244	29880	157029	26807	1081519	46485	111644	0	0	8145	498931	0	0
2024-08-12 18:44:47			0	38951	0	0	0	31246	29880	157085	27130	1081393	46497	111645	0	0	8144	499694	0	0
2024-08-12 18:45:47			0	38960	0	0	0	31244	29870	156925	27093	1081321	46518	111644	0	0	8144	499396	0	0
2024-08-12 18:46:47			0	38964	0	0	0	31246	29870	157005	26894	1081366	46495	111645	0	0	8144	499251	0	0
2024-08-12 18:47:47			0	38966	0	0	0	31251	29870	156949	26918	1081339	46506	111647	0	0	8144	499178	0	0
2024-08-12 18:48:47			0	38945	0	0	0	31249	29870	156961	26791	1081429	46507	111646	0	0	8143	499941	0	0
2024-08-12 18:49:47			0	38940	0	0	0	31249	29860	157053	27119	1081384	46506	111646	0	0	8143	500152	0	0
2024-08-12 18:50:47			0	38958	0	0	0	31244	29860	157053	26908	1081402	46516	111644	0	0	8144	499498	0	0
2024-08-12 18:51:47			0	38960	0	0	0	31262	29870	157061	26987	1081402	46507	111651	0	0	8144	499396	0	0
2024-08-12 18:52:47			0	38939	0	0	0	31259	29870	156989	27017	1081339	46517	111650	0	0	8143	500159	0	0
2024-08-12 18:53:47			0	38940	0	0	0	31259	29870	157077	26654	1081285	46506	111650	0	0	8143	500123	0	0
2024-08-12 18:54:47			0	38921	0	0	0	31259	29870	157069	26942	1081393	46506	111650	0	0	8142	500814	0	0
2024-08-12 18:55:47			0	38916	0	0	0	31254	29860	157121	26859	1081411	46495	111648	0	0	8141	501025	0	0
2024-08-12 18:56:47			0	38898	0	0	0	31257	29860	157101	27381	1081357	46506	111649	0	0	8140	501681	0	0
2024-08-12 18:57:47			0	38905	0	0	0	31254	29870	157181	26835	1081429	46518	111648	0	0	8141	501397	0	0
2024-08-12 18:58:47			0	38906	0	0	0	31257	29870	157265	26533	1081393	46506	111649	0	0	8141	501360	0	0
2024-08-12 18:59:47			0	38874	0	0	0	31267	29860	157345	26885	1081330	46506	111653	0	0	8139	502555	0	0
2024-08-12 19:00:47			0	38849	0	0	0	31249	29860	157473	26937	1081357	46517	111646	0	0	8138	503467	0	0
2024-08-12 19:01:47			0	38822	0	0	0	31257	29870	157533	26967	1081429	46507	111649	0	0	8136	504424	0	0
2024-08-12 19:02:47			0	38783	0	0	0	31251	29860	157573	26923	1081348	46505	111647	0	0	8134	505880	0	0
2024-08-12 19:03:47			0	38723	0	0	0	31241	29860	157796	26790	1081411	46506	111643	0	0	8131	508079	0	0
2024-08-12 19:04:47			0	38672	0	0	0	31249	29860	158060	27000	1081348	46494	111646	0	0	8128	509953	0	0
2024-08-12 19:05:47			0	38626	0	0	0	31246	29870	158300	26882	1081420	46506	111645	0	0	8125	511617	0	0
2024-08-12 19:06:47			0	38578	0	0	0	31257	29850	158324	27038	1081366	46505	111649	0	0	8122	513447	0	0
2024-08-12 19:07:47			0	38579	0	0	0	31251	29860	158496	27067	1081411	46506	111647	0	0	8122	513381	0	0
2024-08-12 19:08:47			0	38546	0	0	0	31251	29860	158524	26819	1081375	46505	111647	0	0	8120	514600	0	0
2024-08-12 19:09:47			0	38560	0	0	0	31254	29860	158504	26840	1081384	46506	111648	0	0	8121	514082	0	0
2024-08-12 19:10:47			0	38563	0	0	0	31249	29850	158468	26807	1081285	46505	111646	0	0	8121	514002	0	0
2024-08-12 19:11:47			0	38570	0	0	0	31257	29870	158484	27066	1081366	46506	111649	0	0	8122	513683	0	0
2024-08-12 19:12:47			0	38574	0	0	0	31249	29860	158360	27019	1081357	46506	111646	0	0	8122	513565	0	0
2024-08-12 19:13:47			0	38616	0	0	0	31254	29860	158324	26909	1081375	46494	111648	0	0	8124	512015	0	0
2024-08-12 19:14:47			0	38620	0	0	0	31249	29860	158272	27086	1081357	46517	111646	0	0	8125	511868	0	0
2024-08-12 19:15:47			0	38645	0	0	0	31249	29860	158144	27062	1081267	46505	111646	0	0	8126	510947	0	0
2024-08-12 19:16:47			0	38666	0	0	0	31244	29850	158136	26890	1081357	46504	111644	0	0	8127	510203	0	0
2024-08-12 19:17:47			0	38687	0	0	0	31244	29860	158040	26906	1081330	46506	111644	0	0	8129	509401	0	0
2024-08-12 19:18:47			0	38691	0	0	0	31241	29860	157980	27033	1081348	46505	111643	0	0	8129	509254	0	0
2024-08-12 19:19:47			0	38715	0	0	0	31249	29850	158016	26686	1081285	46505	111646	0	0	8130	508402	0	0
2024-08-12 19:20:47			0	38721	0	0	0	31238	29850	157904	26771	1081312	46494	111642	0	0	8131	508182	0	0
2024-08-12 19:21:47			0	38740	0	0	0	31246	29850	157881	27173	1081303	46493	111645	0	0	8131	507485	0	0
2024-08-12 19:22:47			0	38739	0	0	0	31238	29850	157961	26729	1081330	46504	111642	0	0	8132	507522	0	0
2024-08-12 19:23:47			0	38725	0	0	0	31236	29850	157925	26972	1081303	46515	111641	0	0	8131	508035	0	0
2024-08-12 19:24:47			0	38730	0	0	0	31233	29850	157837	27055	1081249	46504	111640	0	0	8131	507852	0	0
2024-08-12 19:25:47			0	38726	0	0	0	31233	29850	157901	26774	1081285	46505	111640	0	0	8131	507999	0	0
2024-08-12 19:26:47			0	38713	0	0	0	31223	29840	157916	26543	1081267	46493	111636	0	0	8130	508505	0	0
2024-08-12 19:27:47			0	38708	0	0	0	31231	29850	158012	26866	1081222	46504	111639	0	0	8130	508659	0	0
2024-08-12 19:28:47			0	38692	0	0	0	31233	29850	158004	26956	1081249	46504	111640	0	0	8129	509247	0	0
2024-08-12 19:29:47			0	38706	0	0	0	31223	29850	158020	26883	1081222	46504	111636	0	0	8130	508733	0	0
2024-08-12 19:30:47			0	38693	0	0	0	31228	29840	158076	26932	1081186	46493	111638	0	0	8129	509240	0	0
2024-08-12 19:31:47			0	38678	0	0	0	31218	29830	158084	26986	1081231	46526	111634	0	0	8128	509821	0	0
2024-08-12 19:32:47			0	38696	0	0	0	31218	29840	158036	26993	1081159	46515	111634	0	0	8129	509130	0	0
2024-08-12 19:33:47			0	38681	0	0	0	31218	29830	158128	26939	1081195	46502	111634	0	0	8129	509711	0	0
2024-08-12 19:34:47			0	38690	0	0	0	31212	29820	158020	27133	1081213	46491	111632	0	0	8129	509410	0	0
2024-08-12 19:35:47			0	38682	0	0	0	31223	29830	158192	27251	1081141	46502	111636	0	0	8128	509674	0	0
2024-08-12 19:36:47			0	38690	0	0	0	31218	29830	158052	26594	1081168	46513	111634	0	0	8129	509380	0	0
2024-08-12 19:37:47			0	38679	0	0	0	31210	29820	158060	26616	1081131	46525	111631	0	0	8128	509814	0	0
2024-08-12 19:38:47			0	38679	0	0	0	31205	29830	158088	27157	1081168	46502	111629	0	0	8129	509784	0	0
2024-08-12 19:39:47			0	38668	0	0	0	31202	29810	158172	27071	1081113	46501	111628	0	0	8128	510249	0	0
2024-08-12 19:40:47			0	38686	0	0	0	31199	29810	158060	27137	1081059	46490	111627	0	0	8129	509586	0	0
2024-08-12 19:41:47			0	38689	0	0	0	31199	29810	158084	26627	1081104	46511	111627	0	0	8129	509476	0	0
2024-08-12 19:42:47			0	38677	0	0	0	31202	29810	158196	27107	1081059	46524	111628	0	0	8128	509918	0	0
2024-08-12 19:43:47			0	38657	0	0	0	31202	29810	158200	27133	1081113	46524	111628	0	0	8127	510654	0	0
2024-08-12 19:44:47			0	38655	0	0	0	31199	29810	158208	27026	1081077	46523	111627	0	0	8127	510727	0	0
2024-08-12 19:45:47			0	38654	0	0	0	31192	29810	158284	27090	1081077	46489	111624	0	0	8127	510764	0	0
2024-08-12 19:46:47			0	38657	0	0	0	31192	29820	158252	27140	1081122	46524	111624	0	0	8128	510624	0	0
2024-08-12 19:47:47			0	38640	0	0	0	31186	29810	158208	26769	1081050	46500	111622	0	0	8127	511280	0	0
2024-08-12 19:48:47			0	38651	0	0	0	31176	29800	158300	26883	1081041	46489	111618	0	0	8127	510904	0	0
2024-08-12 19:49:47			0	38650	0	0	0	31166	29790	158268	26937	1081023	46500	111614	0	0	8127	510971	0	0
2024-08-12 19:50:47			0	38656	0	0	0	31171	29790	158300	27001	1080969	46500	111616	0	0	8128	510750	0	0
2024-08-12 19:51:47			0	38641	0	0	0	31158	29780	158304	27218	1080897	46498	111611	0	0	8127	511332	0	0
2024-08-12 19:52:47			0	38661	0	0	0	31161	29790	158312	26949	1080906	46509	111612	0	0	8128	510566	0	0
2024-08-12 19:53:47			0	38623	0	0	0	31161	29790	158352	26764	1080915	46510	111612	0	0	8126	511966	0	0
2024-08-12 19:54:47			0	38631	0	0	0	31153	29770	158420	27024	1080906	46475	111609	0	0	8126	511731	0	0
2024-08-12 19:55:47			0	38613	0	0	0	31148	29780	158484	26831	1080915	46498	111607	0	0	8126	512365	0	0
2024-08-12 19:56:47			0	38623	0	0	0	31140	29770	158376	26922	1080825	46508	111604	0	0	8126	512026	0	0
2024-08-12 19:57:47			0	38610	0	0	0	31135	29760	158500	27197	1080806	46496	111602	0	0	8126	512535	0	0
2024-08-12 19:58:47			0	38624	0	0	0	31124	29770	158508	26708	1080789	46507	111598	0	0	8127	511989	0	0
2024-08-12 19:59:47			0	38622	0	0	0	31122	29760	158436	26960	1080770	46506	111597	0	0	8126	512092	0	0
2024-08-12 20:00:47			0	38613	0	0	0	31114	29760	158480	26826	1080770	46496	111594	0	0	8126	512424	0	0
2024-08-12 20:01:47			0	38620	0	0	0	31106	29740	158404	27024	1080689	46516	111591	0	0	8127	512226	0	0
2024-08-12 20:02:47			0	38630	0	0	0	31111	29750	158528	26870	1080752	46483	111593	0	0	8127	511827	0	0
2024-08-12 20:03:47			0	38611	0	0	0	31111	29740	158432	27029	1080653	46504	111593	0	0	8126	512558	0	0
2024-08-12 20:04:47			0	38613	0	0	0	31103	29740	158456	26942	1080716	46482	111590	0	0	8126	512484	0	0
2024-08-12 20:05:47			0	38605	0	0	0	31101	29740	158592	27019	1080734	46504	111589	0	0	8126	512779	0	0
2024-08-12 20:06:47			0	38611	0	0	0	31109	29720	158596	27135	1080680	46502	111592	0	0	8126	512618	0	0
2024-08-12 20:07:47			0	38607	0	0	0	31111	29730	158532	27109	1080725	46503	111593	0	0	8126	512736	0	0
2024-08-12 20:08:47			0	38618	0	0	0	31119	29740	158588	27286	1080734	46516	111596	0	0	8126	512300	0	0
2024-08-12 20:09:47			0	38608	0	0	0	31116	29740	158544	26977	1080734	46504	111595	0	0	8126	512669	0	0
2024-08-12 20:10:47			0	38603	0	0	0	31116	29740	158548	26982	1080734	46504	111595	0	0	8125	512853	0	0
2024-08-12 20:11:47			0	38604	0	0	0	31122	29750	158440	27048	1080725	46517	111597	0	0	8125	512786	0	0
2024-08-12 20:12:47			0	38603	0	0	0	31114	29740	158592	27039	1080734	46504	111594	0	0	8125	512853	0	0
2024-08-12 20:13:47			0	38617	0	0	0	31122	29730	158432	27118	1080662	46493	111597	0	0	8126	512366	0	0
2024-08-12 20:14:47			0	38627	0	0	0	31114	29730	158472	27135	1080644	46503	111594	0	0	8127	511998	0	0
2024-08-12 20:15:47			0	38660	0	0	0	31111	29730	158296	26786	1080698	46503	111593	0	0	8129	510781	0	0
2024-08-12 20:16:47			0	38656	0	0	0	31109	29730	158424	26885	1080689	46493	111592	0	0	8128	510929	0	0
2024-08-12 20:17:47			0	38676	0	0	0	31103	29720	158288	27109	1080653	46502	111590	0	0	8130	510222	0	0
2024-08-12 20:18:47			0	38683	0	0	0	31101	29730	158232	27066	1080671	46493	111589	0	0	8130	509935	0	0
2024-08-12 20:19:47			0	38678	0	0	0	31096	29730	158268	27105	1080662	46503	111587	0	0	8130	510118	0	0
2024-08-12 20:20:47			0	38671	0	0	0	31103	29720	158252	27130	1080626	46480	111590	0	0	8129	510406	0	0
2024-08-12 20:21:47			0	38688	0	0	0	31109	29720	158316	27055	1080653	46502	111592	0	0	8130	509780	0	0
2024-08-12 20:22:47			0	38676	0	0	0	31106	29720	158244	27043	1080616	46491	111591	0	0	8130	510222	0	0
2024-08-12 20:23:47			0	38672	0	0	0	31096	29720	158332	27357	1080589	46513	111587	0	0	8130	510369	0	0
2024-08-12 20:24:47			0	38686	0	0	0	31096	29720	158232	26847	1080626	46502	111587	0	0	8130	509854	0	0
2024-08-12 20:25:47			0	38687	0	0	0	31093	29720	158200	26899	1080589	46501	111586	0	0	8130	509817	0	0
2024-08-12 20:26:47			0	38682	0	0	0	31083	29710	158168	27060	1080553	46479	111582	0	0	8130	510031	0	0
2024-08-12 20:27:47			0	38691	0	0	0	31077	29720	158160	27043	1080616	46501	111580	0	0	8131	509670	0	0
2024-08-12 20:28:47			0	38700	0	0	0	31085	29710	158128	27177	1080544	46491	111583	0	0	8131	509369	0	0
2024-08-12 20:29:47			0	38697	0	0	0	31083	29700	158184	26712	1080481	46500	111582	0	0	8131	509509	0	0
2024-08-12 20:30:47			0	38681	0	0	0	31072	29710	158144	26920	1080490	46491	111578	0	0	8130	510068	0	0
2024-08-12 20:31:47			0	38693	0	0	0	31075	29700	158280	26961	1080499	46489	111579	0	0	8131	509656	0	0
2024-08-12 20:32:47			0	38680	0	0	0	31064	29700	158304	27140	1080472	46477	111575	0	0	8130	510134	0	0
2024-08-12 20:33:47			0	38682	0	0	0	31067	29690	158460	26889	1080436	46489	111576	0	0	8130	510090	0	0
2024-08-12 20:34:47			0	38665	0	0	0	31067	29690	158256	27066	1080427	46500	111576	0	0	8130	510716	0	0
2024-08-12 20:35:47			0	38654	0	0	0	31062	29690	158272	27008	1080481	46489	111574	0	0	8129	511121	0	0
2024-08-12 20:36:47			0	38656	0	0	0	31062	29690	158488	26885	1080436	46511	111574	0	0	8129	511048	0	0
2024-08-12 20:37:47			0	38651	0	0	0	31072	29690	158420	26835	1080373	46511	111578	0	0	8129	511232	0	0
2024-08-12 20:38:47			0	38648	0	0	0	31064	29690	158488	27085	1080436	46489	111575	0	0	8129	511342	0	0
2024-08-12 20:39:47			0	38637	0	0	0	31059	29680	158508	26956	1080418	46499	111573	0	0	8128	511778	0	0
2024-08-12 20:40:47			0	38629	0	0	0	31059	29680	158520	26845	1080328	46487	111573	0	0	8128	512073	0	0
2024-08-12 20:41:47			0	38626	0	0	0	31054	29690	158596	27092	1080436	46500	111571	0	0	8128	512154	0	0
2024-08-12 20:42:47			0	38625	0	0	0	31044	29680	158620	27137	1080274	46498	111567	0	0	8128	512220	0	0
2024-08-12 20:43:47			0	38605	0	0	0	31044	29680	158620	26977	1080310	46476	111567	0	0	8126	512959	0	0
2024-08-12 20:44:47			0	38633	0	0	0	31046	29670	158636	27227	1080337	46487	111568	0	0	8128	511955	0	0
2024-08-12 20:45:47			0	38606	0	0	0	31041	29670	158612	27255	1080292	46498	111566	0	0	8127	512952	0	0
2024-08-12 20:46:47			0	38604	0	0	0	31038	29670	158840	27052	1080310	46498	111565	0	0	8126	513025	0	0
2024-08-12 20:47:47			0	38593	0	0	0	31033	29660	158688	27045	1080247	46486	111563	0	0	8126	513462	0	0
2024-08-12 20:48:47			0	38591	0	0	0	31041	29660	158816	27074	1080328	46497	111566	0	0	8126	513536	0	0
2024-08-12 20:49:47			0	38571	0	0	0	31025	29660	158796	27152	1080247	46486	111560	0	0	8125	514275	0	0
2024-08-12 20:50:47			0	38589	0	0	0	31025	29650	158788	27170	1080228	46495	111560	0	0	8126	513639	0	0
2024-08-12 20:51:47			0	38575	0	0	0	31020	29650	158760	26689	1080255	46484	111558	0	0	8125	514157	0	0
2024-08-12 20:52:47			0	38587	0	0	0	31023	29650	158756	26814	1080228	46495	111559	0	0	8126	513713	0	0
2024-08-12 20:53:47			0	38593	0	0	0	31028	29650	158748	26970	1080228	46495	111561	0	0	8126	513492	0	0
2024-08-12 20:54:47			0	38566	0	0	0	31031	29640	158752	27024	1080201	46505	111562	0	0	8124	514520	0	0
2024-08-12 20:55:47			0	38566	0	0	0	31033	29650	158860	27201	1080273	46495	111563	0	0	8124	514490	0	0
2024-08-12 20:56:47			0	38559	0	0	0	31025	29650	158900	26991	1080219	46506	111560	0	0	8124	514749	0	0
2024-08-12 20:57:47			0	38545	0	0	0	31025	29630	158892	27083	1080138	46504	111560	0	0	8123	515327	0	0
2024-08-12 20:58:47			0	38560	0	0	0	31020	29650	158820	27046	1080165	46495	111558	0	0	8124	514712	0	0
2024-08-12 20:59:47			0	38568	0	0	0	31020	29640	158880	27177	1080120	46494	111558	0	0	8125	514446	0	0
2024-08-12 21:00:47			0	38554	0	0	0	31020	29640	158936	26908	1080147	46494	111558	0	0	8124	514964	0	0
2024-08-12 21:01:47			0	38542	0	0	0	31012	29640	158932	26906	1080174	46494	111555	0	0	8123	515408	0	0
2024-08-12 21:02:47			0	38571	0	0	0	31007	29640	158928	26774	1080093	46505	111553	0	0	8125	514335	0	0
2024-08-12 21:03:47			0	38568	0	0	0	31005	29630	158864	26937	1080138	46493	111552	0	0	8125	514476	0	0
2024-08-12 21:04:47			0	38562	0	0	0	31005	29630	158844	26904	1080102	46493	111552	0	0	8124	514698	0	0
2024-08-12 21:05:47			0	38561	0	0	0	30999	29620	158852	26743	1080039	46493	111550	0	0	8124	514765	0	0
2024-08-12 21:06:47			0	38564	0	0	0	30986	29620	158804	26826	1080039	46493	111545	0	0	8125	514654	0	0
2024-08-12 21:07:47			0	38559	0	0	0	30986	29620	158848	27187	1080084	46503	111545	0	0	8125	514839	0	0
2024-08-12 21:08:47			0	38571	0	0	0	30989	29610	158852	26887	1079984	46491	111546	0	0	8125	514425	0	0
2024-08-12 21:09:47			0	38565	0	0	0	30986	29620	158768	26757	1080066	46504	111545	0	0	8125	514617	0	0
2024-08-12 21:10:47			0	38564	0	0	0	30989	29620	158892	26644	1080003	46492	111546	0	0	8125	514654	0	0
2024-08-12 21:11:47			0	38547	0	0	0	30986	29600	158976	26852	1079948	46502	111545	0	0	8124	515343	0	0
2024-08-12 21:12:47			0	38561	0	0	0	30986	29600	158916	26928	1080029	46502	111545	0	0	8125	514825	0	0
2024-08-12 21:13:47			0	38561	0	0	0	30979	29610	158920	26613	1079984	46480	111542	0	0	8125	514795	0	0
2024-08-12 21:14:47			0	38568	0	0	0	30979	29600	158840	27274	1079921	46468	111542	0	0	8125	514566	0	0
2024-08-12 21:15:47			0	38571	0	0	0	30973	29600	158880	27083	1079948	46491	111540	0	0	8125	514455	0	0
2024-08-12 21:16:47			0	38560	0	0	0	30979	29600	158868	26837	1079921	46480	111542	0	0	8125	514862	0	0
2024-08-12 21:17:47			0	38588	0	0	0	30963	29590	158816	26809	1079921	46488	111536	0	0	8126	513856	0	0
2024-08-12 21:18:47			0	38572	0	0	0	30966	29580	158916	27135	1079876	46488	111537	0	0	8125	514478	0	0
2024-08-12 21:19:47			0	38551	0	0	0	30961	29580	158896	26648	1079849	46500	111535	0	0	8124	515255	0	0
2024-08-12 21:20:47			0	38586	0	0	0	30958	29570	158812	26726	1079867	46487	111534	0	0	8126	513990	0	0
2024-08-12 21:21:47			0	38581	0	0	0	30961	29580	158788	26601	1079795	46488	111535	0	0	8126	514145	0	0
2024-08-12 21:22:47			0	38578	0	0	0	30953	29570	158920	27050	1079840	46476	111532	0	0	8126	514286	0	0
2024-08-12 21:23:47			0	38589	0	0	0	30945	29580	158812	26967	1079822	46488	111529	0	0	8127	513849	0	0
2024-08-12 21:24:47			0	38582	0	0	0	30945	29570	158792	26750	1079759	46499	111529	0	0	8126	514138	0	0
2024-08-12 21:25:47			0	38597	0	0	0	30948	29560	158832	26733	1079768	46486	111530	0	0	8127	513613	0	0
2024-08-12 21:26:47			0	38587	0	0	0	30937	29560	158756	26837	1079768	46486	111526	0	0	8127	513983	0	0
2024-08-12 21:27:47			0	38595	0	0	0	30937	29570	158760	26625	1079750	46475	111526	0	0	8127	513657	0	0
2024-08-12 21:28:47			0	38610	0	0	0	30948	29550	158712	26876	1079750	46485	111530	0	0	8128	513162	0	0
2024-08-12 21:29:47			0	38615	0	0	0	30937	29560	158696	26953	1079768	46486	111526	0	0	8128	512948	0	0
2024-08-12 21:30:47			0	38600	0	0	0	30935	29550	158812	27293	1079669	46497	111525	0	0	8127	513532	0	0
2024-08-12 21:31:47			0	38606	0	0	0	30932	29550	158696	27078	1079696	46497	111524	0	0	8128	513310	0	0
2024-08-12 21:32:47			0	38605	0	0	0	30929	29560	158836	26908	1079768	46498	111523	0	0	8128	513317	0	0
2024-08-12 21:33:47			0	38621	0	0	0	30932	29550	158804	26790	1079687	46496	111524	0	0	8129	512756	0	0
2024-08-12 21:34:47			0	38604	0	0	0	30935	29550	158760	26837	1079696	46497	111525	0	0	8128	513384	0	0
2024-08-12 21:35:47			0	38618	0	0	0	30935	29550	158656	26781	1079687	46484	111525	0	0	8128	512867	0	0
2024-08-12 21:36:47			0	38618	0	0	0	30932	29550	158740	26856	1079696	46497	111524	0	0	8128	512867	0	0
2024-08-12 21:37:47			0	38625	0	0	0	30932	29540	158692	26769	1079624	46484	111524	0	0	8129	512638	0	0
2024-08-12 21:38:47			0	38648	0	0	0	30929	29550	158644	27069	1079660	46484	111523	0	0	8130	511759	0	0
2024-08-12 21:39:47			0	38645	0	0	0	30940	29540	158756	26967	1079597	46496	111527	0	0	8130	511900	0	0
2024-08-12 21:40:47			0	38633	0	0	0	30932	29540	158624	26977	1079705	46496	111524	0	0	8129	512343	0	0
2024-08-12 21:41:47			0	38632	0	0	0	30932	29540	158696	26892	1079624	46496	111524	0	0	8129	512380	0	0
2024-08-12 21:42:47			0	38659	0	0	0	30922	29540	158564	26833	1079651	46473	111520	0	0	8131	511384	0	0
2024-08-12 21:43:47			0	38625	0	0	0	30924	29540	158620	27222	1079651	46496	111521	0	0	8129	512638	0	0
2024-08-12 21:44:47			0	38643	0	0	0	30922	29540	158520	26941	1079678	46496	111520	0	0	8130	511974	0	0
2024-08-12 21:45:47			0	38648	0	0	0	30919	29530	158596	26788	1079632	46483	111519	0	0	8130	511819	0	0
2024-08-12 21:46:47			0	38648	0	0	0	30911	29520	158624	27076	1079614	46470	111516	0	0	8130	511849	0	0
2024-08-12 21:47:47			0	38676	0	0	0	30901	29530	158556	26816	1079632	46495	111512	0	0	8132	510787	0	0
2024-08-12 21:48:47			0	38671	0	0	0	30903	29520	158596	26897	1079587	46493	111513	0	0	8132	511001	0	0
2024-08-12 21:49:47			0	38666	0	0	0	30901	29520	158584	26844	1079569	46482	111512	0	0	8132	511185	0	0
2024-08-12 21:50:47			0	38671	0	0	0	30898	29520	158672	27107	1079560	46481	111511	0	0	8132	511001	0	0
2024-08-12 21:51:47			0	38660	0	0	0	30901	29510	158652	26951	1079515	46493	111512	0	0	8131	511436	0	0
2024-08-12 21:52:47			0	38661	0	0	0	30890	29510	158612	26987	1079488	46493	111508	0	0	8131	511399	0	0
2024-08-12 21:53:47			0	38676	0	0	0	30890	29520	158652	27055	1079506	46481	111508	0	0	8132	510816	0	0
2024-08-12 21:54:47			0	38686	0	0	0	30885	29500	158584	26791	1079443	46491	111506	0	0	8133	510507	0	0
2024-08-12 21:55:47			0	38671	0	0	0	30880	29500	158632	26757	1079497	46468	111504	0	0	8132	511060	0	0
2024-08-12 21:56:47			0	38661	0	0	0	30877	29510	158596	27039	1079524	46503	111503	0	0	8132	511399	0	0
2024-08-12 21:57:47			0	38658	0	0	0	30883	29490	158640	26819	1079461	46491	111505	0	0	8131	511569	0	0
2024-08-12 21:58:47			0	38675	0	0	0	30877	29490	158624	26797	1079425	46479	111503	0	0	8132	510942	0	0
2024-08-12 21:59:47			0	38673	0	0	0	30880	29490	158516	27048	1079452	46501	111504	0	0	8132	511016	0	0
2024-08-12 22:00:47			0	38674	0	0	0	30875	29490	158468	27071	1079434	46479	111502	0	0	8132	510979	0	0
2024-08-12 22:01:47			0	38670	0	0	0	30877	29490	158672	27267	1079479	46491	111503	0	0	8132	511127	0	0
2024-08-12 22:02:47			0	38681	0	0	0	30885	29490	158540	27196	1079425	46479	111506	0	0	8133	510721	0	0
2024-08-12 22:03:47			0	38681	0	0	0	30877	29480	158548	26908	1079416	46490	111503	0	0	8133	510751	0	0
2024-08-12 22:04:47			0	38673	0	0	0	30880	29490	158388	26831	1079290	46491	111504	0	0	8132	511016	0	0
2024-08-12 22:05:47			0	38661	0	0	0	30877	29480	158536	27203	1079389	46500	111503	0	0	8132	511488	0	0
2024-08-12 22:06:47			0	38681	0	0	0	30875	29480	158552	27220	1079433	46489	111502	0	0	8133	510751	0	0
2024-08-12 22:07:47			0	38689	0	0	0	30870	29480	158440	27147	1079416	46490	111500	0	0	8133	510456	0	0
2024-08-12 22:08:47			0	38683	0	0	0	30875	29480	158524	27079	1079325	46466	111502	0	0	8133	510677	0	0
2024-08-12 22:09:47			0	38695	0	0	0	30867	29480	158492	26967	1079389	46490	111499	0	0	8134	510235	0	0
2024-08-12 22:10:47			0	38691	0	0	0	30867	29480	158504	26920	1079335	46490	111499	0	0	8133	510383	0	0
2024-08-12 22:11:47			0	38702	0	0	0	30867	29470	158392	27135	1079307	46500	111499	0	0	8134	510007	0	0
2024-08-12 22:12:47			0	38691	0	0	0	30862	29470	158340	27177	1079343	46477	111497	0	0	8133	510412	0	0
2024-08-12 22:13:47			0	38698	0	0	0	30864	29470	158480	27220	1079289	46511	111498	0	0	8134	510154	0	0
2024-08-12 22:14:47			0	38694	0	0	0	30859	29470	158492	26913	1079253	46477	111496	0	0	8134	510302	0	0
2024-08-12 22:15:47			0	38688	0	0	0	30859	29470	158412	26875	1079253	46500	111496	0	0	8133	510523	0	0
2024-08-12 22:16:47			0	38691	0	0	0	30849	29460	158404	27109	1079235	46475	111492	0	0	8134	510442	0	0
2024-08-12 22:17:47			0	38700	0	0	0	30851	29470	158408	26587	1079280	46489	111493	0	0	8134	510081	0	0
2024-08-12 22:18:47			0	38703	0	0	0	30851	29460	158428	27036	1079181	46487	111493	0	0	8134	510000	0	0
2024-08-12 22:19:47			0	38717	0	0	0	30849	29450	158428	27052	1079271	46486	111492	0	0	8135	509514	0	0
2024-08-12 22:20:47			0	38692	0	0	0	30838	29450	158420	27211	1079280	46463	111488	0	0	8134	510435	0	0
2024-08-12 22:21:47			0	38715	0	0	0	30849	29460	158348	26909	1079235	46487	111492	0	0	8135	509558	0	0
2024-08-12 22:22:47			0	38684	0	0	0	30841	29450	158460	27078	1079217	46463	111489	0	0	8133	510730	0	0
2024-08-12 22:23:47			0	38702	0	0	0	30841	29450	158536	27092	1079253	46497	111489	0	0	8134	510066	0	0
2024-08-12 22:24:47			0	38686	0	0	0	30849	29440	158492	26630	1079235	46497	111492	0	0	8133	510686	0	0
2024-08-12 22:25:47			0	38696	0	0	0	30841	29440	158548	27182	1079208	46486	111489	0	0	8134	510317	0	0
2024-08-12 22:26:47			0	38694	0	0	0	30849	29450	158464	26982	1079163	46486	111492	0	0	8134	510361	0	0
2024-08-12 22:27:47			0	38688	0	0	0	30844	29440	158380	26875	1079154	46486	111490	0	0	8133	510612	0	0
2024-08-12 22:28:47			0	38692	0	0	0	30841	29440	158564	26948	1079199	46485	111489	0	0	8134	510464	0	0
2024-08-12 22:29:47			0	38687	0	0	0	30846	29440	158488	26816	1079145	46496	111491	0	0	8133	510649	0	0
2024-08-12 22:30:47			0	38693	0	0	0	30849	29450	158508	27206	1079199	46486	111492	0	0	8134	510398	0	0
2024-08-12 22:31:47			0	38685	0	0	0	30849	29440	158464	27157	1079181	46497	111492	0	0	8133	510722	0	0
2024-08-12 22:32:47			0	38671	0	0	0	30851	29450	158500	27156	1079253	46486	111493	0	0	8132	511209	0	0
2024-08-12 22:33:47			0	38690	0	0	0	30849	29450	158484	27074	1079244	46486	111492	0	0	8134	510509	0	0
2024-08-12 22:34:47			0	38679	0	0	0	30854	29440	158548	27078	1079181	46486	111494	0	0	8133	510944	0	0
2024-08-12 22:35:47			0	38693	0	0	0	30851	29450	158420	27003	1079271	46508	111493	0	0	8134	510398	0	0
2024-08-12 22:36:47			0	38681	0	0	0	30846	29450	158592	27052	1079271	46497	111491	0	0	8133	510840	0	0
2024-08-12 22:37:47			0	38686	0	0	0	30836	29450	158628	26826	1079145	46486	111487	0	0	8134	510656	0	0
2024-08-12 22:38:47			0	38706	0	0	0	30828	29440	158512	27057	1079118	46473	111484	0	0	8135	509949	0	0
2024-08-12 22:39:47			0	38685	0	0	0	30820	29430	158500	26854	1079100	46484	111481	0	0	8134	510752	0	0
2024-08-12 22:40:47			0	38684	0	0	0	30805	29440	158432	27098	1079064	46473	111475	0	0	8134	510759	0	0
2024-08-12 22:41:47			0	38691	0	0	0	30799	29410	158424	26694	1078964	46482	111473	0	0	8134	510590	0	0
2024-08-12 22:42:47			0	38682	0	0	0	30797	29410	158584	27234	1078937	46482	111472	0	0	8134	510922	0	0
2024-08-12 22:43:47			0	38720	0	0	0	30792	29410	158556	27015	1078847	46482	111470	0	0	8136	509522	0	0
2024-08-12 22:44:47			0	38712	0	0	0	30779	29410	158552	26942	1078901	46470	111465	0	0	8136	509817	0	0
2024-08-12 22:45:47			0	38709	0	0	0	30776	29400	158628	27166	1078910	46481	111464	0	0	8136	509957	0	0
2024-08-12 22:46:47			0	38696	0	0	0	30771	29390	158616	26948	1078838	46480	111462	0	0	8135	510466	0	0
2024-08-12 22:47:47			0	38705	0	0	0	30771	29390	158572	26785	1078838	46491	111462	0	0	8135	510134	0	0
2024-08-12 22:48:47			0	38665	0	0	0	30768	29380	158680	26923	1078856	46467	111461	0	0	8133	511638	0	0
2024-08-12 22:49:47			0	38681	0	0	0	30766	29390	158696	26677	1078784	46491	111460	0	0	8134	511018	0	0
2024-08-12 22:50:47			0	38661	0	0	0	30766	29380	158632	26856	1078829	46479	111460	0	0	8133	511786	0	0
2024-08-12 22:51:47			0	38663	0	0	0	30755	29370	158716	27008	1078676	46478	111456	0	0	8133	511742	0	0
2024-08-12 22:52:47			0	38648	0	0	0	30761	29380	158640	27046	1078721	46479	111458	0	0	8132	512266	0	0
2024-08-12 22:53:47			0	38656	0	0	0	30748	29370	158696	27033	1078811	46489	111453	0	0	8133	512000	0	0
2024-08-12 22:54:47			0	38657	0	0	0	30748	29370	158752	27012	1078747	46478	111453	0	0	8133	511963	0	0
2024-08-12 22:55:47			0	38648	0	0	0	30745	29360	158632	26906	1078756	46477	111452	0	0	8132	512325	0	0
2024-08-12 22:56:47			0	38666	0	0	0	30740	29360	158752	26753	1078657	46488	111450	0	0	8134	511661	0	0
2024-08-12 22:57:47			0	38656	0	0	0	30732	29350	158728	26611	1078693	46476	111447	0	0	8133	512060	0	0
2024-08-12 22:58:47			0	38651	0	0	0	30727	29360	158708	27138	1078648	46455	111445	0	0	8133	512215	0	0
2024-08-12 22:59:47			0	38639	0	0	0	30735	29360	158840	26998	1078621	46477	111448	0	0	8132	512658	0	0
2024-08-12 23:00:47			0	38639	0	0	0	30727	29350	158788	27083	1078630	46463	111445	0	0	8132	512688	0	0
2024-08-12 23:01:47			0	38637	0	0	0	30716	29350	158856	27010	1078549	46463	111441	0	0	8132	512761	0	0
2024-08-12 23:02:47			0	38624	0	0	0	30714	29340	158804	26918	1078567	46463	111440	0	0	8132	513272	0	0
2024-08-12 23:03:47			0	38642	0	0	0	30719	29330	158904	26764	1078603	46474	111442	0	0	8132	512636	0	0
2024-08-12 23:04:47			0	38644	0	0	0	30716	29320	158804	26790	1078477	46496	111441	0	0	8133	512592	0	0
2024-08-12 23:05:47			0	38627	0	0	0	30716	29330	158948	27171	1078540	46484	111441	0	0	8132	513191	0	0
2024-08-12 23:06:47			0	38645	0	0	0	30714	29320	158944	27126	1078531	46461	111440	0	0	8133	512555	0	0
2024-08-12 23:07:47			0	38626	0	0	0	30706	29320	158956	26828	1078549	46472	111437	0	0	8132	513257	0	0
2024-08-12 23:08:47			0	38643	0	0	0	30709	29330	158840	27255	1078567	46484	111438	0	0	8133	512599	0	0
2024-08-12 23:09:47			0	38656	0	0	0	30706	29320	158832	26757	1078441	46483	111437	0	0	8133	512149	0	0
2024-08-12 23:10:47			0	38647	0	0	0	30703	29320	158924	26537	1078522	46472	111436	0	0	8133	512481	0	0
2024-08-12 23:11:47			0	38638	0	0	0	30709	29310	159016	26753	1078432	46472	111438	0	0	8132	512844	0	0
2024-08-12 23:12:47			0	38648	0	0	0	30701	29310	158836	26602	1078459	46483	111435	0	0	8133	512474	0	0
2024-08-12 23:13:47			0	38658	0	0	0	30696	29320	158960	26604	1078504	46473	111433	0	0	8134	512075	0	0
2024-08-12 23:14:47			0	38642	0	0	0	30706	29320	158944	26703	1078522	46483	111437	0	0	8133	512666	0	0
2024-08-12 23:15:47			0	38653	0	0	0	30701	29310	158820	27026	1078486	46472	111435	0	0	8133	512290	0	0
2024-08-12 23:16:47			0	38649	0	0	0	30698	29310	158844	27119	1078477	46494	111434	0	0	8133	512437	0	0
2024-08-12 23:17:47			0	38634	0	0	0	30696	29310	158900	27010	1078459	46483	111433	0	0	8132	512992	0	0
2024-08-12 23:18:47			0	38639	0	0	0	30701	29310	158892	26795	1078423	46482	111435	0	0	8132	512807	0	0
2024-08-12 23:19:47			0	38657	0	0	0	30698	29310	158820	27015	1078405	46483	111434	0	0	8134	512142	0	0
2024-08-12 23:20:47			0	38660	0	0	0	30690	29310	158800	26771	1078450	46482	111431	0	0	8134	512031	0	0
2024-08-12 23:21:47			0	38656	0	0	0	30690	29310	158816	26731	1078369	46459	111431	0	0	8134	512179	0	0
2024-08-12 23:22:47			0	38656	0	0	0	30690	29300	158824	27079	1078441	46471	111431	0	0	8134	512209	0	0
2024-08-12 23:23:47			0	38652	0	0	0	30703	29300	158848	27041	1078324	46470	111436	0	0	8133	512356	0	0
2024-08-12 23:24:47			0	38677	0	0	0	30685	29300	158836	26939	1078351	46470	111429	0	0	8135	511433	0	0
2024-08-12 23:25:47			0	38674	0	0	0	30675	29300	158812	26812	1078333	46471	111425	0	0	8135	511544	0	0
2024-08-12 23:26:47			0	38658	0	0	0	30667	29290	158920	27274	1078369	46470	111422	0	0	8134	512164	0	0
2024-08-12 23:27:47			0	38667	0	0	0	30672	29290	158784	27284	1078288	46481	111424	0	0	8134	511832	0	0
2024-08-12 23:28:47			0	38678	0	0	0	30670	29290	158840	27170	1078360	46469	111423	0	0	8135	511426	0	0
2024-08-12 23:29:47			0	38666	0	0	0	30677	29270	158884	27046	1078278	46457	111426	0	0	8134	511929	0	0
2024-08-12 23:30:47			0	38679	0	0	0	30667	29270	158936	27246	1078305	46457	111422	0	0	8135	511449	0	0
2024-08-12 23:31:47			0	38684	0	0	0	30670	29280	158788	27055	1078261	46479	111423	0	0	8135	511235	0	0
2024-08-12 23:32:47			0	38671	0	0	0	30664	29270	158856	27078	1078305	46468	111421	0	0	8135	511744	0	0
2024-08-12 23:33:47			0	38667	0	0	0	30664	29270	158856	26904	1078242	46478	111421	0	0	8135	511892	0	0
2024-08-12 23:34:47			0	38672	0	0	0	30670	29260	158904	26897	1078260	46466	111423	0	0	8135	511737	0	0
2024-08-12 23:35:47			0	38680	0	0	0	30654	29260	158804	26944	1078206	46477	111417	0	0	8135	511442	0	0
2024-08-12 23:36:47			0	38692	0	0	0	30664	29260	158752	27138	1078233	46477	111421	0	0	8136	510999	0	0
2024-08-12 23:37:47			0	38679	0	0	0	30659	29270	158844	27265	1078215	46467	111419	0	0	8135	511449	0	0
2024-08-12 23:38:47			0	38684	0	0	0	30659	29260	158832	27121	1078314	46466	111419	0	0	8136	511294	0	0
2024-08-12 23:39:47			0	38681	0	0	0	30659	29270	158844	27100	1078269	46478	111419	0	0	8135	511375	0	0
2024-08-12 23:40:47			0	38694	0	0	0	30659	29260	158836	27445	1078287	46477	111419	0	0	8136	510925	0	0
2024-08-12 23:41:47			0	38688	0	0	0	30651	29270	158768	26968	1078242	46478	111416	0	0	8136	511117	0	0
2024-08-12 23:42:47			0	38697	0	0	0	30659	29250	158820	27085	1078224	46477	111419	0	0	8136	510844	0	0
2024-08-12 23:43:47			0	38678	0	0	0	30651	29240	158764	26868	1078233	46465	111416	0	0	8135	511575	0	0
2024-08-12 23:44:47			0	38697	0	0	0	30657	29250	158764	27112	1078197	46489	111418	0	0	8136	510844	0	0
2024-08-12 23:45:47			0	38698	0	0	0	30651	29250	158728	26920	1078269	46465	111416	0	0	8136	510807	0	0
2024-08-12 23:46:47			0	38689	0	0	0	30657	29250	158708	26876	1078215	46465	111418	0	0	8136	511139	0	0
2024-08-12 23:47:47			0	38703	0	0	0	30654	29260	158716	27050	1078206	46466	111417	0	0	8137	510593	0	0
2024-08-12 23:48:47			0	38684	0	0	0	30662	29250	158844	26906	1078170	46477	111420	0	0	8135	511324	0	0
2024-08-12 23:49:47			0	38695	0	0	0	30667	29240	158784	27071	1078287	46476	111422	0	0	8136	510948	0	0
2024-08-12 23:50:47			0	38701	0	0	0	30659	29250	158688	26894	1078269	46476	111419	0	0	8136	510697	0	0
2024-08-12 23:51:47			0	38703	0	0	0	30664	29250	158648	27201	1078278	46466	111421	0	0	8136	510623	0	0
2024-08-12 23:52:47			0	38702	0	0	0	30657	29250	158720	27059	1078296	46476	111418	0	0	8137	510660	0	0
2024-08-12 23:53:47			0	38689	0	0	0	30659	29240	158740	27020	1078152	46454	111419	0	0	8136	511169	0	0
2024-08-12 23:54:47			0	38712	0	0	0	30654	29250	158620	27190	1078215	46476	111417	0	0	8137	510291	0	0
2024-08-12 23:55:47			0	38711	0	0	0	30644	29260	158688	27097	1078233	46477	111413	0	0	8137	510299	0	0
2024-08-12 23:56:47			0	38703	0	0	0	30654	29250	158704	26800	1078188	46465	111417	0	0	8137	510623	0	0
2024-08-12 23:57:47			0	38721	0	0	0	30641	29250	158612	26970	1078215	46454	111412	0	0	8138	509960	0	0
2024-08-12 23:58:47			0	38723	0	0	0	30644	29260	158680	26946	1078179	46466	111413	0	0	8138	509856	0	0
2024-08-12 23:59:47			0	38730	0	0	0	30646	29250	158581	27066	1078215	46454	111414	0	0	8138	509628	0	0
2024-08-13 00:00:47			0	38720	0	0	0	30641	29240	158616	26928	1078179	46476	111412	0	0	8138	510026	0	0
2024-08-13 00:01:47			0	38717	0	0	0	30641	29250	158628	27133	1078116	46466	111412	0	0	8138	510107	0	0
2024-08-13 00:02:47			0	38729	0	0	0	30631	29230	158641	27156	1078125	46463	111408	0	0	8138	509724	0	0
2024-08-13 00:03:47			0	38730	0	0	0	30631	29230	158673	27126	1078125	46474	111408	0	0	8138	509688	0	0
2024-08-13 00:04:47			0	38738	0	0	0	30628	29240	158565	27008	1078152	46465	111407	0	0	8139	509363	0	0
2024-08-13 00:05:47			0	38740	0	0	0	30623	29230	158645	27062	1078098	46486	111405	0	0	8139	509319	0	0
2024-08-13 00:06:47			0	38735	0	0	0	30628	29230	158701	26772	1078080	46464	111407	0	0	8139	509503	0	0
2024-08-13 00:07:47			0	38736	0	0	0	30623	29220	158601	27097	1077999	46473	111405	0	0	8139	509496	0	0
2024-08-13 00:08:47			0	38728	0	0	0	30612	29230	158600	26883	1078098	46463	111401	0	0	8139	509761	0	0
2024-08-13 00:09:47			0	38744	0	0	0	30607	29220	158713	27227	1077954	46463	111399	0	0	8140	509202	0	0
2024-08-13 00:10:47			0	38740	0	0	0	30610	29210	158713	27086	1077963	46462	111400	0	0	8139	509378	0	0
2024-08-13 00:11:47			0	38728	0	0	0	30599	29210	158645	26913	1077990	46451	111396	0	0	8139	509820	0	0
2024-08-13 00:12:47			0	38724	0	0	0	30602	29210	158652	27187	1077882	46451	111397	0	0	8139	509968	0	0
2024-08-13 00:13:47			0	38747	0	0	0	30594	29210	158705	27027	1077873	46461	111394	0	0	8140	509121	0	0
2024-08-13 00:14:47			0	38757	0	0	0	30589	29200	158673	27031	1077881	46449	111392	0	0	8141	508782	0	0
2024-08-13 00:15:47			0	38723	0	0	0	30589	29190	158705	26882	1077926	46460	111392	0	0	8139	510064	0	0
2024-08-13 00:16:47			0	38735	0	0	0	30586	29200	158669	26902	1077891	46471	111391	0	0	8139	509592	0	0
2024-08-13 00:17:47			0	38720	0	0	0	30584	29210	158620	27078	1077873	46472	111390	0	0	8139	510115	0	0
2024-08-13 00:18:47			0	38746	0	0	0	30581	29190	158649	26901	1077845	46471	111389	0	0	8140	509217	0	0
2024-08-13 00:19:47			0	38735	0	0	0	30571	29180	158621	27092	1077746	46469	111385	0	0	8140	509651	0	0
2024-08-13 00:20:47			0	38743	0	0	0	30574	29180	158641	27239	1077800	46458	111386	0	0	8140	509357	0	0
2024-08-13 00:21:47			0	38736	0	0	0	30566	29180	158661	27050	1077764	46458	111383	0	0	8140	509615	0	0
2024-08-13 00:22:47			0	38745	0	0	0	30566	29180	158585	26958	1077764	46481	111383	0	0	8140	509283	0	0
2024-08-13 00:23:47			0	38738	0	0	0	30558	29170	158637	27211	1077755	46469	111380	0	0	8140	509571	0	0
2024-08-13 00:24:47			0	38756	0	0	0	30558	29170	158625	27163	1077755	46458	111380	0	0	8141	508908	0	0
2024-08-13 00:25:47			0	38759	0	0	0	30550	29160	158661	27121	1077710	46457	111377	0	0	8141	508827	0	0
2024-08-13 00:26:47			0	38757	0	0	0	30561	29170	158645	27131	1077728	46458	111381	0	0	8141	508871	0	0
2024-08-13 00:27:47			0	38746	0	0	0	30563	29170	158553	27149	1077728	46469	111382	0	0	8140	509276	0	0
2024-08-13 00:28:47			0	38755	0	0	0	30561	29170	158561	27046	1077638	46458	111381	0	0	8141	508945	0	0
2024-08-13 00:29:47			0	38763	0	0	0	30555	29170	158541	27159	1077692	46458	111379	0	0	8141	508650	0	0
2024-08-13 00:30:47			0	38760	0	0	0	30548	29160	158549	26873	1077674	46457	111376	0	0	8141	508790	0	0
2024-08-13 00:31:47			0	38752	0	0	0	30548	29160	158677	27192	1077566	46467	111376	0	0	8141	509085	0	0
2024-08-13 00:32:47			0	38745	0	0	0	30540	29150	158537	27286	1077665	46456	111373	0	0	8141	509372	0	0
2024-08-13 00:33:47			0	38779	0	0	0	30545	29150	158537	27163	1077611	46466	111375	0	0	8142	508121	0	0
2024-08-13 00:34:47			0	38771	0	0	0	30537	29150	158557	27057	1077575	46489	111372	0	0	8142	508415	0	0
2024-08-13 00:35:47			0	38773	0	0	0	30537	29150	158593	27133	1077602	46466	111372	0	0	8142	508342	0	0
2024-08-13 00:36:47			0	38779	0	0	0	30522	29150	158533	27218	1077611	46444	111366	0	0	8143	508121	0	0
2024-08-13 00:37:47			0	38793	0	0	0	30527	29140	158593	26861	1077557	46454	111368	0	0	8143	507636	0	0
2024-08-13 00:38:47			0	38784	0	0	0	30524	29130	158505	27107	1077548	46454	111367	0	0	8143	507996	0	0
2024-08-13 00:39:47			0	38764	0	0	0	30519	29130	158457	27104	1077467	46454	111365	0	0	8142	508732	0	0
2024-08-13 00:40:47			0	38767	0	0	0	30516	29130	158577	27104	1077512	46464	111364	0	0	8142	508621	0	0
2024-08-13 00:41:47			0	38777	0	0	0	30514	29130	158625	27088	1077494	46454	111363	0	0	8143	508254	0	0
2024-08-13 00:42:47			0	38768	0	0	0	30506	29120	158513	26975	1077422	46453	111360	0	0	8142	508614	0	0
2024-08-13 00:43:47			0	38775	0	0	0	30501	29120	158589	27003	1077422	46453	111358	0	0	8143	508357	0	0
2024-08-13 00:44:47			0	38774	0	0	0	30503	29120	158601	27100	1077440	46452	111359	0	0	8143	508394	0	0
2024-08-13 00:45:47			0	38773	0	0	0	30501	29120	158549	27322	1077386	46452	111358	0	0	8143	508430	0	0
2024-08-13 00:46:47			0	38768	0	0	0	30498	29110	158481	26998	1077394	46462	111357	0	0	8142	508644	0	0
2024-08-13 00:47:47			0	38795	0	0	0	30493	29110	158609	27111	1077313	46462	111355	0	0	8144	507651	0	0
2024-08-13 00:48:47			0	38770	0	0	0	30488	29100	158517	27242	1077412	46439	111353	0	0	8143	508600	0	0
2024-08-13 00:49:47			0	38799	0	0	0	30490	29100	158525	26892	1077349	46438	111354	0	0	8144	507533	0	0
2024-08-13 00:50:47			0	38784	0	0	0	30483	29100	158521	26826	1077268	46450	111351	0	0	8143	508085	0	0
2024-08-13 00:51:47			0	38781	0	0	0	30472	29090	158509	27104	1077313	46450	111347	0	0	8143	508225	0	0
2024-08-13 00:52:47			0	38801	0	0	0	30467	29080	158449	27017	1077268	46459	111345	0	0	8145	507519	0	0
2024-08-13 00:53:47			0	38788	0	0	0	30470	29080	158481	27031	1077241	46459	111346	0	0	8144	507997	0	0
2024-08-13 00:54:47			0	38797	0	0	0	30457	29080	158437	27192	1077205	46448	111341	0	0	8145	507666	0	0
2024-08-13 00:55:47			0	38810	0	0	0	30462	29070	158429	27008	1077196	46458	111343	0	0	8145	507218	0	0
2024-08-13 00:56:47			0	38799	0	0	0	30454	29080	158613	26864	1077178	46458	111340	0	0	8145	507592	0	0
2024-08-13 00:57:47			0	38787	0	0	0	30454	29070	158557	27024	1077223	46447	111340	0	0	8144	508063	0	0
2024-08-13 00:58:47			0	38796	0	0	0	30449	29070	158517	27029	1077169	46469	111338	0	0	8145	507732	0	0
2024-08-13 00:59:47			0	38787	0	0	0	30441	29060	158569	27128	1077151	46458	111335	0	0	8144	508092	0	0
2024-08-13 01:00:47			0	38802	0	0	0	30441	29060	158521	26916	1077178	46469	111335	0	0	8145	507541	0	0
2024-08-13 01:01:47			0	38803	0	0	0	30454	29060	158389	27017	1077115	46457	111340	0	0	8145	507504	0	0
2024-08-13 01:02:47			0	38813	0	0	0	30457	29060	158417	27003	1077142	46468	111341	0	0	8145	507137	0	0
2024-08-13 01:03:47			0	38793	0	0	0	30457	29060	158461	26871	1077124	46447	111341	0	0	8144	507872	0	0
2024-08-13 01:04:47			0	38808	0	0	0	30457	29050	158537	26935	1077106	46445	111341	0	0	8145	507350	0	0
2024-08-13 01:05:47			0	38804	0	0	0	30451	29050	158425	26946	1077070	46467	111339	0	0	8145	507497	0	0
2024-08-13 01:06:47			0	38826	0	0	0	30454	29050	158477	26944	1077070	46445	111340	0	0	8146	506689	0	0
2024-08-13 01:07:47			0	38817	0	0	0	30459	29050	158409	27157	1077124	46467	111342	0	0	8146	507019	0	0
2024-08-13 01:08:47			0	38845	0	0	0	30475	29040	158389	27222	1077196	46467	111348	0	0	8147	506021	0	0
2024-08-13 01:09:47			0	38818	0	0	0	30493	29060	158373	27135	1077196	46479	111355	0	0	8145	506953	0	0
2024-08-13 01:10:47			0	38832	0	0	0	30493	29060	158461	26785	1077169	46468	111355	0	0	8146	506439	0	0
2024-08-13 01:11:47			0	38843	0	0	0	30503	29060	158485	27000	1077277	46468	111359	0	0	8146	506036	0	0
2024-08-13 01:12:47			0	38831	0	0	0	30501	29060	158369	27246	1077277	46468	111358	0	0	8146	506476	0	0
2024-08-13 01:13:47			0	38838	0	0	0	30501	29060	158357	27086	1077205	46469	111358	0	0	8146	506219	0	0
2024-08-13 01:14:47			0	38852	0	0	0	30514	29060	158321	27131	1077286	46469	111363	0	0	8147	505706	0	0
2024-08-13 01:15:47			0	38858	0	0	0	30516	29070	158317	26750	1077214	46469	111364	0	0	8147	505456	0	0
2024-08-13 01:16:47			0	38865	0	0	0	30516	29070	158233	26779	1077331	46469	111364	0	0	8147	505200	0	0
2024-08-13 01:17:47			0	38841	0	0	0	30527	29060	158181	27013	1077259	46469	111368	0	0	8146	506109	0	0
2024-08-13 01:18:47			0	38861	0	0	0	30524	29070	158121	27131	1077241	46469	111367	0	0	8147	505347	0	0
2024-08-13 01:19:47			0	38881	0	0	0	30506	29060	158225	26831	1077169	46457	111360	0	0	8148	504643	0	0
2024-08-13 01:20:47			0	38886	0	0	0	30498	29060	158153	26896	1077178	46458	111357	0	0	8149	504460	0	0
2024-08-13 01:21:47			0	38878	0	0	0	30475	29060	158149	27017	1077151	46458	111348	0	0	8149	504753	0	0
2024-08-13 01:22:47			0	38898	0	0	0	30459	29060	158237	26691	1077061	46446	111342	0	0	8150	504021	0	0
2024-08-13 01:23:47			0	38905	0	0	0	30441	29050	158297	26864	1077043	46456	111335	0	0	8151	503794	0	0
2024-08-13 01:24:47			0	38894	0	0	0	30457	29040	158101	26811	1076980	46456	111341	0	0	8150	504226	0	0
2024-08-13 01:25:47			0	38886	0	0	0	30433	29030	158049	26781	1076989	46454	111332	0	0	8150	504548	0	0
2024-08-13 01:26:47			0	38892	0	0	0	30425	29030	158169	26923	1076962	46443	111329	0	0	8150	504328	0	0
2024-08-13 01:27:47			0	38902	0	0	0	30425	29020	158029	27168	1076943	46454	111329	0	0	8151	503991	0	0
2024-08-13 01:28:47			0	38886	0	0	0	30420	29020	158161	27033	1076907	46442	111327	0	0	8150	504577	0	0
2024-08-13 01:29:47			0	38872	0	0	0	30418	29020	158329	26965	1076943	46443	111326	0	0	8149	505090	0	0
2024-08-13 01:30:47			0	38877	0	0	0	30405	29020	158301	27157	1076809	46454	111321	0	0	8150	504907	0	0
2024-08-13 01:31:47			0	38867	0	0	0	30399	29000	158309	27206	1076826	46440	111319	0	0	8149	505332	0	0
2024-08-13 01:32:47			0	38875	0	0	0	30397	29010	158329	27178	1076835	46462	111318	0	0	8150	505009	0	0
2024-08-13 01:33:47			0	38871	0	0	0	30407	29000	158357	27462	1076772	46451	111322	0	0	8149	505185	0	0
2024-08-13 01:34:47			0	38857	0	0	0	30397	29000	158481	27244	1076844	46451	111318	0	0	8149	505699	0	0
2024-08-13 01:35:47			0	38859	0	0	0	30410	28990	158345	27289	1076781	46439	111323	0	0	8148	505654	0	0
2024-08-13 01:36:47			0	38842	0	0	0	30405	29000	158409	26989	1076772	46440	111321	0	0	8148	506249	0	0
2024-08-13 01:37:47			0	38854	0	0	0	30402	29000	158369	27055	1076853	46473	111320	0	0	8148	505808	0	0
2024-08-13 01:38:47			0	38848	0	0	0	30402	28990	158401	26946	1076826	46460	111320	0	0	8148	506058	0	0
2024-08-13 01:39:47			0	38848	0	0	0	30399	29000	158381	27003	1076817	46451	111319	0	0	8148	506029	0	0
2024-08-13 01:40:47			0	38851	0	0	0	30384	28990	158461	27152	1076691	46449	111313	0	0	8148	505948	0	0
2024-08-13 01:41:47			0	38862	0	0	0	30371	28980	158425	26700	1076673	46449	111308	0	0	8149	505574	0	0
2024-08-13 01:42:47			0	38862	0	0	0	30368	28970	158333	26932	1076583	46437	111307	0	0	8149	505603	0	0
2024-08-13 01:43:47			0	38868	0	0	0	30355	28970	158349	26982	1076628	46447	111302	0	0	8150	505383	0	0
2024-08-13 01:44:47			0	38878	0	0	0	30353	28970	158297	26989	1076601	46458	111301	0	0	8150	505017	0	0
2024-08-13 01:45:47			0	38890	0	0	0	30350	28950	158289	26812	1076601	46446	111300	0	0	8151	504636	0	0
2024-08-13 01:46:47			0	38882	0	0	0	30335	28960	158325	26828	1076538	46436	111294	0	0	8151	504899	0	0
2024-08-13 01:47:47			0	38884	0	0	0	30335	28950	158405	27147	1076556	46447	111294	0	0	8151	504855	0	0
2024-08-13 01:48:47			0	38870	0	0	0	30337	28940	158401	26991	1076484	46445	111295	0	0	8150	505398	0	0
2024-08-13 01:49:47			0	38876	0	0	0	30332	28930	158417	26923	1076547	46456	111293	0	0	8150	505207	0	0
2024-08-13 01:50:47			0	38877	0	0	0	30340	28930	158525	27022	1076520	46456	111296	0	0	8150	505171	0	0
2024-08-13 01:51:47			0	38868	0	0	0	30342	28930	158501	27164	1076547	46444	111297	0	0	8150	505500	0	0
2024-08-13 01:52:47			0	38846	0	0	0	30332	28940	158425	26967	1076538	46445	111293	0	0	8149	506278	0	0
2024-08-13 01:53:47			0	38850	0	0	0	30335	28930	158449	27105	1076484	46444	111294	0	0	8149	506161	0	0
2024-08-13 01:54:47			0	38841	0	0	0	30324	28930	158405	26734	1076511	46456	111290	0	0	8149	506491	0	0
2024-08-13 01:55:47			0	38851	0	0	0	30324	28930	158469	26958	1076466	46444	111290	0	0	8149	506124	0	0
2024-08-13 01:56:47			0	38860	0	0	0	30332	28920	158413	27279	1076556	46465	111293	0	0	8150	505823	0	0
2024-08-13 01:57:47			0	38846	0	0	0	30342	28930	158461	27124	1076619	46478	111297	0	0	8149	506307	0	0
2024-08-13 01:58:47			0	38852	0	0	0	30340	28930	158445	27367	1076601	46466	111296	0	0	8149	506087	0	0
2024-08-13 01:59:47			0	38846	0	0	0	30340	28940	158377	27116	1076583	46478	111296	0	0	8149	506278	0	0
2024-08-13 02:00:47			0	38849	0	0	0	30332	28930	158505	27201	1076511	46456	111293	0	0	8149	506197	0	0
2024-08-13 02:01:47			0	38854	0	0	0	30332	28950	158461	27000	1076547	46468	111293	0	0	8149	505955	0	0
2024-08-13 02:02:47			0	38857	0	0	0	30340	28930	158589	26804	1076547	46466	111296	0	0	8149	505904	0	0
2024-08-13 02:03:47			0	38856	0	0	0	30322	28930	158405	27177	1076457	46433	111289	0	0	8150	505941	0	0
2024-08-13 02:04:47			0	38849	0	0	0	30306	28920	158449	26955	1076385	46431	111283	0	0	8149	506227	0	0
2024-08-13 02:05:47			0	38849	0	0	0	30296	28920	158533	26994	1076367	46455	111279	0	0	8150	506227	0	0
2024-08-13 02:06:47			0	38843	0	0	0	30296	28910	158437	27206	1076367	46431	111279	0	0	8149	506476	0	0
2024-08-13 02:07:47			0	38853	0	0	0	30280	28910	158497	27178	1076367	46442	111273	0	0	8150	506109	0	0
2024-08-13 02:08:47			0	38859	0	0	0	30290	28900	158513	27161	1076304	46463	111277	0	0	8150	505918	0	0
2024-08-13 02:09:47			0	38850	0	0	0	30283	28890	158629	27033	1076285	46440	111274	0	0	8150	506278	0	0
2024-08-13 02:10:47			0	38836	0	0	0	30285	28890	158605	27060	1076339	46440	111275	0	0	8149	506792	0	0
2024-08-13 02:11:47			0	38829	0	0	0	30283	28890	158629	26942	1076312	46452	111274	0	0	8148	507049	0	0
2024-08-13 02:12:47			0	38814	0	0	0	30280	28900	158717	27053	1076268	46440	111273	0	0	8148	507571	0	0
2024-08-13 02:13:47			0	38792	0	0	0	30275	28890	158813	27074	1076249	46440	111271	0	0	8146	508410	0	0
2024-08-13 02:14:47			0	38801	0	0	0	30272	28880	158845	27013	1076258	46438	111270	0	0	8147	508108	0	0
2024-08-13 02:15:47			0	38773	0	0	0	30272	28880	158821	27185	1076231	46438	111270	0	0	8145	509139	0	0
2024-08-13 02:16:47			0	38765	0	0	0	30267	28880	158929	26951	1076258	46450	111268	0	0	8145	509433	0	0
2024-08-13 02:17:47			0	38768	0	0	0	30267	28880	158909	26963	1076231	46438	111268	0	0	8145	509323	0	0
2024-08-13 02:18:47			0	38743	0	0	0	30267	28870	158953	26859	1076222	46427	111268	0	0	8144	510274	0	0
2024-08-13 02:19:47			0	38731	0	0	0	30270	28880	158897	27218	1076258	46450	111269	0	0	8143	510687	0	0
2024-08-13 02:20:47			0	38727	0	0	0	30264	28870	159013	26826	1076222	46438	111267	0	0	8143	510864	0	0
2024-08-13 02:21:47			0	38698	0	0	0	30272	28870	159132	27121	1076195	46460	111270	0	0	8141	511935	0	0
2024-08-13 02:22:47			0	38688	0	0	0	30275	28870	159160	26870	1076186	46449	111271	0	0	8140	512305	0	0
2024-08-13 02:23:47			0	38686	0	0	0	30272	28880	159220	26817	1076294	46461	111270	0	0	8140	512349	0	0
2024-08-13 02:24:47			0	38674	0	0	0	30280	28870	159160	26948	1076222	46460	111273	0	0	8140	512822	0	0
2024-08-13 02:25:47			0	38681	0	0	0	30272	28870	159232	27149	1076222	46450	111270	0	0	8140	512564	0	0
2024-08-13 02:26:47			0	38651	0	0	0	30267	28870	159296	26923	1076222	46450	111268	0	0	8139	513674	0	0
2024-08-13 02:27:47			0	38625	0	0	0	30259	28870	159452	26946	1076105	46437	111265	0	0	8137	514637	0	0
2024-08-13 02:28:47			0	38633	0	0	0	30251	28870	159356	26800	1076132	46437	111262	0	0	8138	514341	0	0
2024-08-13 02:29:47			0	38604	0	0	0	30257	28850	159396	26896	1076132	46424	111264	0	0	8136	515476	0	0
2024-08-13 02:30:47			0	38591	0	0	0	30236	28850	159432	26897	1076078	46424	111256	0	0	8136	515958	0	0
2024-08-13 02:31:47			0	38580	0	0	0	30238	28850	159548	26878	1076069	46435	111257	0	0	8135	516367	0	0
2024-08-13 02:32:47			0	38575	0	0	0	30225	28840	159568	26835	1075952	46435	111252	0	0	8135	516582	0	0
2024-08-13 02:33:47			0	38556	0	0	0	30223	28840	159532	26852	1075943	46434	111251	0	0	8134	517289	0	0
2024-08-13 02:34:47			0	38549	0	0	0	30220	28830	159668	26915	1075907	46422	111250	0	0	8133	517579	0	0
2024-08-13 02:35:47			0	38537	0	0	0	30220	28830	159776	26932	1075925	46456	111250	0	0	8133	518026	0	0
2024-08-13 02:36:47			0	38531	0	0	0	30220	28830	159828	27001	1075988	46433	111250	0	0	8132	518249	0	0
2024-08-13 02:37:47			0	38504	0	0	0	30215	28830	159916	27126	1075952	46433	111248	0	0	8131	519255	0	0
2024-08-13 02:38:47			0	38490	0	0	0	30205	28810	159976	27000	1075844	46431	111244	0	0	8130	519837	0	0
2024-08-13 02:39:47			0	38483	0	0	0	30210	28810	159924	27137	1075817	46443	111246	0	0	8130	520098	0	0
2024-08-13 02:40:47			0	38474	0	0	0	30202	28820	159964	27081	1075826	46444	111243	0	0	8129	520404	0	0
2024-08-13 02:41:47			0	38450	0	0	0	30202	28810	160064	27274	1075844	46431	111243	0	0	8128	521331	0	0
2024-08-13 02:42:47			0	38457	0	0	0	30194	28810	160096	27182	1075862	46420	111240	0	0	8128	521069	0	0
2024-08-13 02:43:47			0	38456	0	0	0	30199	28810	160060	27244	1075790	46420	111242	0	0	8128	521106	0	0
2024-08-13 02:44:47			0	38436	0	0	0	30192	28810	160116	26823	1075781	46431	111239	0	0	8127	521854	0	0
2024-08-13 02:45:47			0	38429	0	0	0	30179	28800	160244	27202	1075763	46442	111234	0	0	8127	522146	0	0
2024-08-13 02:46:47			0	38409	0	0	0	30179	28800	160248	26981	1075664	46419	111234	0	0	8126	522894	0	0
2024-08-13 02:47:47			0	38402	0	0	0	30179	28790	160248	27121	1075718	46429	111234	0	0	8125	523187	0	0
2024-08-13 02:48:47			0	38404	0	0	0	30161	28770	160308	27121	1075636	46427	111227	0	0	8126	523173	0	0
2024-08-13 02:49:47			0	38375	0	0	0	30150	28780	160504	27157	1075646	46407	111223	0	0	8124	524229	0	0
2024-08-13 02:50:47			0	38389	0	0	0	30155	28780	160472	26876	1075619	46451	111225	0	0	8125	523704	0	0
2024-08-13 02:51:47			0	38377	0	0	0	30153	28780	160452	27203	1075619	46428	111224	0	0	8124	524154	0	0
2024-08-13 02:52:47			0	38388	0	0	0	30145	28780	160532	27145	1075646	46440	111221	0	0	8125	523742	0	0
2024-08-13 02:53:47			0	38366	0	0	0	30145	28770	160572	26975	1075627	46426	111221	0	0	8124	524597	0	0
2024-08-13 02:54:47			0	38367	0	0	0	30135	28760	160496	26722	1075582	46449	111217	0	0	8124	524590	0	0
2024-08-13 02:55:47			0	38357	0	0	0	30150	28770	160564	26896	1075600	46438	111223	0	0	8123	524935	0	0
2024-08-13 02:56:47			0	38353	0	0	0	30132	28760	160628	27111	1075528	46438	111216	0	0	8123	525115	0	0
2024-08-13 02:57:47			0	38335	0	0	0	30132	28760	160636	27038	1075555	46426	111216	0	0	8122	525791	0	0
2024-08-13 02:58:47			0	38361	0	0	0	30132	28760	160472	27196	1075591	46426	111216	0	0	8124	524815	0	0
2024-08-13 02:59:47			0	38347	0	0	0	30137	28760	160616	27204	1075555	46438	111218	0	0	8123	525341	0	0
2024-08-13 03:00:47			0	38319	0	0	0	30129	28750	160692	27074	1075573	46425	111215	0	0	8121	526423	0	0
2024-08-13 03:01:47			0	38338	0	0	0	30135	28760	160580	26838	1075555	46426	111217	0	0	8122	525679	0	0
2024-08-13 03:02:47			0	38341	0	0	0	30142	28760	160704	27105	1075555	46449	111220	0	0	8122	525566	0	0
2024-08-13 03:03:47			0	38337	0	0	0	30127	28760	160676	27263	1075609	46438	111214	0	0	8122	525716	0	0
2024-08-13 03:04:47			0	38344	0	0	0	30135	28760	160604	27090	1075582	46426	111217	0	0	8123	525453	0	0
2024-08-13 03:05:47			0	38331	0	0	0	30137	28750	160532	27043	1075600	46415	111218	0	0	8122	525972	0	0
2024-08-13 03:06:47			0	38327	0	0	0	30140	28760	160604	27043	1075591	46426	111219	0	0	8122	526092	0	0
2024-08-13 03:07:47			0	38350	0	0	0	30145	28770	160572	27031	1075600	46438	111221	0	0	8123	525198	0	0
2024-08-13 03:08:47			0	38330	0	0	0	30127	28760	160492	27043	1075582	46416	111214	0	0	8122	525979	0	0
2024-08-13 03:09:47			0	38347	0	0	0	30140	28760	160596	27057	1075582	46426	111219	0	0	8123	525341	0	0
2024-08-13 03:10:47			0	38341	0	0	0	30145	28750	160672	26996	1075564	46414	111221	0	0	8122	525596	0	0
2024-08-13 03:11:47			0	38355	0	0	0	30135	28750	160584	26946	1075564	46424	111217	0	0	8123	525071	0	0
2024-08-13 03:12:47			0	38349	0	0	0	30132	28760	160552	27182	1075528	46426	111216	0	0	8123	525266	0	0
2024-08-13 03:13:47			0	38355	0	0	0	30132	28750	160564	26838	1075537	46414	111216	0	0	8123	525071	0	0
2024-08-13 03:14:47			0	38353	0	0	0	30129	28750	160604	26909	1075537	46447	111215	0	0	8123	525146	0	0
2024-08-13 03:15:47			0	38359	0	0	0	30132	28750	160552	27157	1075519	46425	111216	0	0	8124	524920	0	0
2024-08-13 03:16:47			0	38372	0	0	0	30127	28750	160572	26856	1075483	46424	111214	0	0	8124	524433	0	0
2024-08-13 03:17:47			0	38366	0	0	0	30129	28750	160536	26937	1075510	46424	111215	0	0	8124	524658	0	0
2024-08-13 03:18:47			0	38380	0	0	0	30132	28740	160544	27128	1075447	46424	111216	0	0	8125	524163	0	0
2024-08-13 03:19:47			0	38360	0	0	0	30129	28750	160520	27135	1075537	46424	111215	0	0	8124	524883	0	0
2024-08-13 03:20:47			0	38376	0	0	0	30129	28740	160476	26686	1075528	46436	111215	0	0	8125	524313	0	0
2024-08-13 03:21:47			0	38387	0	0	0	30132	28740	160392	26968	1075474	46414	111216	0	0	8125	523901	0	0
2024-08-13 03:22:47			0	38364	0	0	0	30132	28750	160504	27043	1075456	46424	111216	0	0	8124	524733	0	0
2024-08-13 03:23:47			0	38386	0	0	0	30127	28740	160512	26778	1075492	46413	111214	0	0	8125	523938	0	0
2024-08-13 03:24:47			0	38386	0	0	0	30137	28740	160444	26703	1075474	46447	111218	0	0	8125	523938	0	0
2024-08-13 03:25:47			0	38389	0	0	0	30132	28750	160456	26786	1075537	46447	111216	0	0	8125	523795	0	0
2024-08-13 03:26:47			0	38411	0	0	0	30135	28740	160344	27034	1075492	46423	111217	0	0	8126	523001	0	0
2024-08-13 03:27:47			0	38401	0	0	0	30127	28740	160400	27189	1075474	46436	111214	0	0	8126	523376	0	0
2024-08-13 03:28:47			0	38423	0	0	0	30122	28730	160360	26734	1075483	46423	111212	0	0	8127	522582	0	0
2024-08-13 03:29:47			0	38409	0	0	0	30116	28740	160368	26975	1075447	46436	111210	0	0	8127	523076	0	0
2024-08-13 03:30:47			0	38417	0	0	0	30111	28740	160324	26625	1075384	46413	111208	0	0	8127	522777	0	0
2024-08-13 03:31:47			0	38412	0	0	0	30114	28730	160308	26817	1075366	46434	111209	0	0	8127	522994	0	0
2024-08-13 03:32:47			0	38424	0	0	0	30109	28720	160352	26816	1075348	46400	111207	0	0	8128	522575	0	0
2024-08-13 03:33:47			0	38413	0	0	0	30103	28720	160280	26850	1075411	46422	111205	0	0	8127	522987	0	0
2024-08-13 03:34:47			0	38432	0	0	0	30101	28710	160284	26941	1075339	46411	111204	0	0	8128	522306	0	0
2024-08-13 03:35:47			0	38439	0	0	0	30098	28730	160300	26774	1075339	46422	111203	0	0	8129	521984	0	0
2024-08-13 03:36:47			0	38421	0	0	0	30090	28710	160232	26710	1075366	46421	111200	0	0	8128	522718	0	0
2024-08-13 03:37:47			0	38437	0	0	0	30090	28710	160264	26733	1075330	46432	111200	0	0	8129	522119	0	0
2024-08-13 03:38:47			0	38443	0	0	0	30093	28700	160264	26878	1075294	46443	111201	0	0	8129	521925	0	0
2024-08-13 03:39:47			0	38435	0	0	0	30088	28710	160296	26875	1075303	46420	111199	0	0	8128	522194	0	0
2024-08-13 03:40:47			0	38442	0	0	0	30090	28710	160240	26854	1075303	46420	111200	0	0	8129	521932	0	0
2024-08-13 03:41:47			0	38433	0	0	0	30093	28700	160240	27180	1075339	46431	111201	0	0	8128	522299	0	0
2024-08-13 03:42:47			0	38440	0	0	0	30101	28710	160284	26708	1075303	46432	111204	0	0	8129	522007	0	0
2024-08-13 03:43:47			0	38454	0	0	0	30088	28700	160240	26863	1075294	46443	111199	0	0	8130	521513	0	0
2024-08-13 03:44:47			0	38448	0	0	0	30096	28690	160216	26854	1075276	46419	111202	0	0	8129	521768	0	0
2024-08-13 03:45:47			0	38446	0	0	0	30106	28700	160236	27090	1075231	46431	111206	0	0	8129	521813	0	0
2024-08-13 03:46:47			0	38456	0	0	0	30098	28690	160240	27059	1075249	46431	111203	0	0	8129	521469	0	0
2024-08-13 03:47:47			0	38457	0	0	0	30085	28700	160296	27079	1075177	46409	111198	0	0	8130	521401	0	0
2024-08-13 03:48:47			0	38463	0	0	0	30072	28680	160204	26920	1075114	46417	111193	0	0	8130	521237	0	0
2024-08-13 03:49:47			0	38478	0	0	0	30062	28680	160192	26856	1075069	46430	111189	0	0	8131	520677	0	0
2024-08-13 03:50:47			0	38494	0	0	0	30062	28680	160232	26791	1075141	46407	111189	0	0	8132	520079	0	0
2024-08-13 03:51:47			0	38478	0	0	0	30059	28670	160060	26890	1075024	46406	111188	0	0	8131	520707	0	0
2024-08-13 03:52:47			0	38489	0	0	0	30054	28660	160188	26800	1075069	46416	111186	0	0	8132	520326	0	0
2024-08-13 03:53:47			0	38495	0	0	0	30036	28660	160200	27157	1074979	46438	111179	0	0	8133	520102	0	0
2024-08-13 03:54:47			0	38505	0	0	0	30028	28650	160164	26920	1075051	46427	111176	0	0	8133	519759	0	0
2024-08-13 03:55:47			0	38488	0	0	0	30028	28650	160128	26854	1075024	46427	111176	0	0	8132	520394	0	0
2024-08-13 03:56:47			0	38494	0	0	0	30028	28630	160268	26955	1074907	46403	111176	0	0	8133	520230	0	0
2024-08-13 03:57:47			0	38483	0	0	0	30025	28640	160180	27121	1075006	46415	111175	0	0	8132	520611	0	0
2024-08-13 03:58:47			0	38514	0	0	0	30023	28630	160236	27272	1074880	46414	111174	0	0	8134	519484	0	0
2024-08-13 03:59:47			0	38504	0	0	0	30020	28640	160128	27331	1074970	46436	111173	0	0	8133	519827	0	0
2024-08-13 04:00:47			0	38501	0	0	0	30028	28630	160116	26724	1074987	46425	111176	0	0	8133	519969	0	0
2024-08-13 04:01:47			0	38502	0	0	0	30051	28640	160172	27147	1075077	46448	111185	0	0	8133	519901	0	0
2024-08-13 04:02:47			0	38505	0	0	0	30083	28640	160196	26899	1075131	46448	111197	0	0	8132	519789	0	0
2024-08-13 04:03:47			0	38499	0	0	0	30090	28660	160068	26769	1075222	46460	111200	0	0	8132	519953	0	0
2024-08-13 04:04:47			0	38517	0	0	0	30109	28670	160116	26857	1075375	46461	111207	0	0	8133	519252	0	0
2024-08-13 04:05:47			0	38513	0	0	0	30129	28690	160092	26868	1075456	46463	111215	0	0	8132	519340	0	0
2024-08-13 04:06:47			0	38517	0	0	0	30148	28700	160056	26863	1075537	46476	111222	0	0	8132	519161	0	0
2024-08-13 04:07:47			0	38516	0	0	0	30161	28720	159932	27345	1075645	46478	111227	0	0	8132	519139	0	0
2024-08-13 04:08:47			0	38525	0	0	0	30179	28730	159948	27152	1075699	46435	111234	0	0	8132	518773	0	0
2024-08-13 04:09:47			0	38539	0	0	0	30186	28740	159972	27098	1075735	46468	111237	0	0	8133	518221	0	0
2024-08-13 04:10:47			0	38537	0	0	0	30194	28740	159900	27175	1075690	46469	111240	0	0	8133	518296	0	0
2024-08-13 04:11:47			0	38548	0	0	0	30192	28760	159864	27046	1075780	46449	111239	0	0	8133	517826	0	0
2024-08-13 04:12:47			0	38559	0	0	0	30194	28760	159780	27192	1075780	46449	111240	0	0	8134	517417	0	0
2024-08-13 04:13:47			0	38557	0	0	0	30186	28750	159824	27034	1075762	46437	111237	0	0	8134	517521	0	0
2024-08-13 04:14:47			0	38588	0	0	0	30192	28770	159748	26892	1075744	46450	111239	0	0	8136	516309	0	0
2024-08-13 04:15:47			0	38573	0	0	0	30181	28770	159712	27007	1075762	46449	111235	0	0	8135	516866	0	0
2024-08-13 04:16:47			0	38571	0	0	0	30184	28780	159632	27147	1075807	46428	111236	0	0	8135	516911	0	0
2024-08-13 04:17:47			0	38562	0	0	0	30194	28770	159688	27138	1075771	46450	111240	0	0	8134	517275	0	0
2024-08-13 04:18:47			0	38586	0	0	0	30194	28780	159736	26982	1075816	46440	111240	0	0	8136	516353	0	0
2024-08-13 04:19:47			0	38568	0	0	0	30199	28780	159744	26977	1075736	46451	111242	0	0	8135	517022	0	0
2024-08-13 04:20:47			0	38567	0	0	0	30199	28780	159776	26805	1075834	46451	111242	0	0	8134	517059	0	0
2024-08-13 04:21:47			0	38576	0	0	0	30199	28780	159768	27124	1075780	46451	111242	0	0	8135	516725	0	0
2024-08-13 04:22:47			0	38582	0	0	0	30215	28790	159748	27045	1075808	46441	111248	0	0	8135	516472	0	0
2024-08-13 04:23:47			0	38581	0	0	0	30228	28800	159812	27107	1075925	46475	111253	0	0	8135	516479	0	0
2024-08-13 04:24:47			0	38570	0	0	0	30249	28800	159704	26772	1076032	46464	111261	0	0	8134	516888	0	0
2024-08-13 04:25:47			0	38564	0	0	0	30262	28810	159764	27128	1076131	46476	111266	0	0	8133	517081	0	0
2024-08-13 04:26:47			0	38547	0	0	0	30264	28830	159764	27206	1076114	46478	111267	0	0	8132	517654	0	0
2024-08-13 04:27:47			0	38565	0	0	0	30275	28830	159760	26946	1076123	46467	111271	0	0	8133	516984	0	0
2024-08-13 04:28:47			0	38563	0	0	0	30272	28840	159764	27107	1076132	46446	111270	0	0	8133	517028	0	0
2024-08-13 04:29:47			0	38554	0	0	0	30270	28840	159760	27192	1076213	46468	111269	0	0	8133	517363	0	0
2024-08-13 04:30:47			0	38550	0	0	0	30270	28840	159784	27168	1076186	46446	111269	0	0	8133	517512	0	0
2024-08-13 04:31:47			0	38554	0	0	0	30270	28850	159748	27098	1076186	46469	111269	0	0	8133	517333	0	0
2024-08-13 04:32:47			0	38543	0	0	0	30262	28850	159788	27076	1076204	46447	111266	0	0	8132	517742	0	0
2024-08-13 04:33:47			0	38545	0	0	0	30257	28850	159848	27263	1076123	46435	111264	0	0	8133	517668	0	0
2024-08-13 04:34:47			0	38546	0	0	0	30233	28840	159836	27062	1075889	46423	111255	0	0	8133	517661	0	0
2024-08-13 04:35:47			0	38519	0	0	0	30197	28820	159896	27157	1075754	46400	111241	0	0	8132	518726	0	0
2024-08-13 04:36:47			0	38526	0	0	0	30181	28800	159824	27033	1075763	46419	111235	0	0	8133	518525	0	0
2024-08-13 04:37:47			0	38518	0	0	0	30176	28790	160052	27057	1075700	46429	111233	0	0	8132	518853	0	0
2024-08-13 04:38:47			0	38509	0	0	0	30171	28780	159980	26970	1075655	46428	111231	0	0	8132	519219	0	0
2024-08-13 04:39:47			0	38491	0	0	0	30184	28780	160036	27144	1075736	46440	111236	0	0	8130	519890	0	0
2024-08-13 04:40:47			0	38497	0	0	0	30176	28780	160028	27175	1075736	46462	111233	0	0	8131	519666	0	0
2024-08-13 04:41:47			0	38493	0	0	0	30197	28790	160188	27225	1075862	46463	111241	0	0	8130	519786	0	0
2024-08-13 04:42:47			0	38471	0	0	0	30199	28790	160144	27234	1075888	46452	111242	0	0	8129	520607	0	0
2024-08-13 04:43:47			0	38457	0	0	0	30202	28790	160188	26833	1075835	46452	111243	0	0	8128	521130	0	0
2024-08-13 04:44:47			0	38442	0	0	0	30199	28790	160296	26948	1075727	46452	111242	0	0	8127	521690	0	0
2024-08-13 04:45:47			0	38431	0	0	0	30189	28800	160336	27076	1075763	46453	111238	0	0	8127	522071	0	0
2024-08-13 04:46:47			0	38440	0	0	0	30207	28790	160328	27208	1075888	46452	111245	0	0	8127	521765	0	0
2024-08-13 04:47:47			0	38434	0	0	0	30215	28800	160380	27124	1075978	46442	111248	0	0	8127	521959	0	0
2024-08-13 04:48:47			0	38399	0	0	0	30233	28810	160432	26915	1076023	46465	111255	0	0	8124	523239	0	0
2024-08-13 04:49:47			0	38398	0	0	0	30246	28820	160476	26660	1076069	46466	111260	0	0	8124	523246	0	0
2024-08-13 04:50:47			0	38386	0	0	0	30249	28830	160508	27107	1076231	46467	111261	0	0	8124	523665	0	0
2024-08-13 04:51:47			0	38396	0	0	0	30262	28840	160452	27140	1076186	46468	111266	0	0	8124	523260	0	0
2024-08-13 04:52:47			0	38372	0	0	0	30262	28840	160492	27211	1076195	46458	111266	0	0	8123	524159	0	0
2024-08-13 04:53:47			0	38379	0	0	0	30267	28850	160548	27090	1076204	46469	111268	0	0	8123	523867	0	0
2024-08-13 04:54:47			0	38358	0	0	0	30267	28850	160524	26960	1076231	46469	111268	0	0	8122	524654	0	0
2024-08-13 04:55:47			0	38363	0	0	0	30270	28850	160544	26915	1076231	46458	111269	0	0	8122	524466	0	0
2024-08-13 04:56:47			0	38339	0	0	0	30277	28860	160596	27105	1076276	46470	111272	0	0	8120	525337	0	0
2024-08-13 04:57:47			0	38347	0	0	0	30283	28870	160652	26835	1076321	46471	111274	0	0	8121	525006	0	0
2024-08-13 04:58:47			0	38324	0	0	0	30285	28870	160664	27071	1076348	46471	111275	0	0	8120	525869	0	0
2024-08-13 04:59:47			0	38321	0	0	0	30293	28880	160588	27029	1076366	46460	111278	0	0	8119	525952	0	0
2024-08-13 05:00:47			0	38308	0	0	0	30298	28880	160700	27055	1076393	46450	111280	0	0	8118	526440	0	0
2024-08-13 05:01:47			0	38290	0	0	0	30314	28890	160648	26939	1076411	46452	111286	0	0	8117	527086	0	0
2024-08-13 05:02:47			0	38288	0	0	0	30309	28890	160816	26986	1076393	46462	111284	0	0	8117	527162	0	0
2024-08-13 05:03:47			0	38272	0	0	0	30303	28880	160796	27197	1076294	46428	111282	0	0	8116	527794	0	0
2024-08-13 05:04:47			0	38259	0	0	0	30285	28860	160860	27137	1076033	46403	111275	0	0	8116	528345	0	0
2024-08-13 05:05:47			0	38262	0	0	0	30257	28830	160908	27211	1075826	46377	111264	0	0	8116	528324	0	0
2024-08-13 05:06:47			0	38243	0	0	0	30231	28810	160976	27043	1075592	46387	111254	0	0	8116	529102	0	0
2024-08-13 05:07:47			0	38236	0	0	0	30207	28780	161064	27192	1075403	46373	111245	0	0	8115	529458	0	0
2024-08-13 05:08:47			0	38237	0	0	0	30153	28740	160960	27131	1075258	46358	111224	0	0	8116	529543	0	0
2024-08-13 05:09:47			0	38233	0	0	0	30103	28730	161024	27190	1074989	46367	111205	0	0	8117	529724	0	0
2024-08-13 05:10:47			0	38219	0	0	0	30059	28690	161268	27119	1074845	46364	111188	0	0	8117	530376	0	0
2024-08-13 05:11:47			0	38219	0	0	0	30023	28660	161328	27003	1074683	46360	111174	0	0	8117	530468	0	0
2024-08-13 05:12:47			0	38172	0	0	0	29989	28630	161360	26996	1074574	46369	111161	0	0	8115	532338	0	0
2024-08-13 05:13:47			0	38177	0	0	0	29950	28600	161488	26883	1074412	46366	111146	0	0	8116	532241	0	0
2024-08-13 05:14:47			0	38150	0	0	0	29914	28570	161524	26935	1074394	46385	111132	0	0	8114	533357	0	0
2024-08-13 05:15:47			0	38140	0	0	0	29888	28540	161716	26972	1074205	46371	111122	0	0	8114	533829	0	0
2024-08-13 05:16:47			0	38112	0	0	0	29862	28540	161756	27100	1074250	46392	111112	0	0	8113	534892	0	0
2024-08-13 05:17:47			0	38103	0	0	0	29846	28520	161828	27124	1074141	46391	111106	0	0	8113	535296	0	0
2024-08-13 05:18:47			0	38077	0	0	0	29833	28510	162020	27118	1074087	46402	111101	0	0	8111	536316	0	0
2024-08-13 05:19:47			0	38073	0	0	0	29823	28500	162012	27270	1074042	46399	111097	0	0	8111	536499	0	0
2024-08-13 05:20:47			0	38055	0	0	0	29815	28490	162060	26958	1074024	46398	111094	0	0	8110	537215	0	0
2024-08-13 05:21:47			0	38051	0	0	0	29805	28470	162172	26817	1073997	46397	111090	0	0	8110	537430	0	0
2024-08-13 05:22:47			0	38061	0	0	0	29802	28460	162104	26928	1073952	46408	111089	0	0	8111	537080	0	0
2024-08-13 05:23:47			0	38046	0	0	0	29792	28460	162176	27107	1073916	46407	111085	0	0	8110	537652	0	0
2024-08-13 05:24:47			0	38050	0	0	0	29802	28460	162152	27138	1073889	46407	111089	0	0	8110	537499	0	0
2024-08-13 05:25:47			0	38056	0	0	0	29797	28450	162204	26885	1073934	46395	111087	0	0	8111	537302	0	0
2024-08-13 05:26:47			0	38042	0	0	0	29792	28450	162120	27012	1073907	46416	111085	0	0	8110	537835	0	0
2024-08-13 05:27:47			0	38053	0	0	0	29799	28450	162164	26939	1073871	46428	111088	0	0	8110	537416	0	0
2024-08-13 05:28:47			0	38057	0	0	0	29792	28440	162080	26968	1073916	46406	111085	0	0	8111	537295	0	0
2024-08-13 05:29:47			0	38057	0	0	0	29802	28440	162256	26885	1073853	46416	111089	0	0	8110	537295	0	0
2024-08-13 05:30:47			0	38044	0	0	0	29802	28430	162208	27005	1073871	46415	111089	0	0	8110	537821	0	0
2024-08-13 05:31:47			0	38070	0	0	0	29802	28440	162216	26720	1073907	46416	111089	0	0	8111	536799	0	0
2024-08-13 05:32:47			0	38062	0	0	0	29792	28440	162196	26844	1073997	46428	111085	0	0	8111	537104	0	0
2024-08-13 05:33:47			0	38043	0	0	0	29807	28440	162060	27020	1073907	46427	111091	0	0	8110	537828	0	0
2024-08-13 05:34:47			0	38066	0	0	0	29794	28440	162176	26889	1073907	46394	111086	0	0	8111	536952	0	0
2024-08-13 05:35:47			0	38081	0	0	0	29797	28430	162088	27130	1073871	46393	111087	0	0	8112	536412	0	0
2024-08-13 05:36:47			0	38081	0	0	0	29794	28420	162172	27147	1073799	46403	111086	0	0	8112	536443	0	0
2024-08-13 05:37:47			0	38087	0	0	0	29797	28420	162116	27057	1073826	46403	111087	0	0	8112	536214	0	0
2024-08-13 05:38:47			0	38085	0	0	0	29786	28420	162076	27017	1073736	46392	111083	0	0	8112	536290	0	0
2024-08-13 05:39:47			0	38105	0	0	0	29779	28410	162072	27128	1073808	46402	111080	0	0	8113	535560	0	0
2024-08-13 05:40:47			0	38092	0	0	0	29776	28420	162056	27048	1073709	46403	111079	0	0	8113	536024	0	0
2024-08-13 05:41:47			0	38103	0	0	0	29776	28400	162052	26968	1073727	46412	111079	0	0	8113	535667	0	0
2024-08-13 05:42:47			0	38098	0	0	0	29768	28400	161952	27137	1073700	46401	111076	0	0	8113	535858	0	0
2024-08-13 05:43:47			0	38094	0	0	0	29763	28400	161928	26896	1073646	46401	111074	0	0	8113	536010	0	0
2024-08-13 05:44:47			0	38113	0	0	0	29766	28400	161960	26632	1073646	46423	111075	0	0	8114	535287	0	0
2024-08-13 05:45:47			0	38109	0	0	0	29758	28400	161924	26816	1073628	46412	111072	0	0	8114	535439	0	0
2024-08-13 05:46:47			0	38115	0	0	0	29755	28380	161948	26935	1073619	46399	111071	0	0	8114	535273	0	0
2024-08-13 05:47:47			0	38123	0	0	0	29750	28380	162044	26956	1073619	46388	111069	0	0	8115	534969	0	0
2024-08-13 05:48:47			0	38124	0	0	0	29755	28380	161948	27310	1073565	46399	111071	0	0	8115	534931	0	0
2024-08-13 05:49:47			0	38132	0	0	0	29742	28370	161888	27272	1073529	46399	111066	0	0	8115	534658	0	0
2024-08-13 05:50:47			0	38131	0	0	0	29748	28370	161880	27244	1073547	46398	111068	0	0	8115	534696	0	0
2024-08-13 05:51:47			0	38146	0	0	0	29742	28370	161904	27313	1073520	46398	111066	0	0	8116	534126	0	0
2024-08-13 05:52:47			0	38138	0	0	0	29737	28360	161912	27215	1073529	46407	111064	0	0	8116	534461	0	0
2024-08-13 05:53:47			0	38151	0	0	0	29732	28360	161876	26772	1073502	46407	111062	0	0	8117	533967	0	0
2024-08-13 05:54:47			0	38144	0	0	0	29732	28350	161912	27067	1073511	46396	111062	0	0	8116	534264	0	0
2024-08-13 05:55:47			0	38154	0	0	0	29742	28350	161844	27043	1073520	46407	111066	0	0	8117	533884	0	0
2024-08-13 05:56:47			0	38153	0	0	0	29727	28350	161888	27022	1073484	46396	111060	0	0	8117	533922	0	0
2024-08-13 05:57:47			0	38138	0	0	0	29729	28350	161936	27010	1073484	46385	111061	0	0	8116	534492	0	0
2024-08-13 05:58:47			0	38168	0	0	0	29735	28350	161880	26743	1073466	46407	111063	0	0	8118	533353	0	0
2024-08-13 05:59:47			0	38161	0	0	0	29732	28360	161768	27022	1073529	46407	111062	0	0	8117	533587	0	0
2024-08-13 06:00:47			0	38170	0	0	0	29729	28340	161704	26941	1073439	46394	111061	0	0	8118	533308	0	0
2024-08-13 06:01:47			0	38160	0	0	0	29727	28340	161716	27234	1073493	46394	111060	0	0	8117	533687	0	0
2024-08-13 06:02:47			0	38174	0	0	0	29727	28350	161768	27078	1073511	46396	111060	0	0	8118	533125	0	0
2024-08-13 06:03:47			0	38180	0	0	0	29732	28350	161780	27041	1073547	46418	111062	0	0	8118	532898	0	0
2024-08-13 06:04:47			0	38193	0	0	0	29745	28350	161612	26961	1073538	46407	111067	0	0	8119	532405	0	0
2024-08-13 06:05:47			0	38189	0	0	0	29735	28360	161668	26932	1073610	46418	111063	0	0	8119	532526	0	0
2024-08-13 06:06:47			0	38197	0	0	0	29755	28370	161648	27071	1073682	46398	111071	0	0	8119	532192	0	0
2024-08-13 06:07:47			0	38196	0	0	0	29763	28370	161668	27182	1073655	46420	111074	0	0	8119	532230	0	0
2024-08-13 06:08:47			0	38204	0	0	0	29779	28380	161612	26993	1073754	46421	111080	0	0	8119	531896	0	0
2024-08-13 06:09:47			0	38212	0	0	0	29784	28370	161704	27038	1073745	46410	111082	0	0	8119	531623	0	0
2024-08-13 06:10:47			0	38221	0	0	0	29779	28390	161472	26953	1073745	46422	111080	0	0	8120	531221	0	0
2024-08-13 06:11:47			0	38238	0	0	0	29789	28400	161484	27223	1073808	46434	111084	0	0	8121	530548	0	0
2024-08-13 06:12:47			0	38228	0	0	0	29805	28400	161364	27111	1073790	46412	111090	0	0	8120	530926	0	0
2024-08-13 06:13:47			0	38233	0	0	0	29815	28410	161256	27059	1073862	46424	111094	0	0	8120	530706	0	0
2024-08-13 06:14:47			0	38256	0	0	0	29828	28410	161312	27060	1073943	46424	111099	0	0	8121	529837	0	0
2024-08-13 06:15:47			0	38251	0	0	0	29831	28420	161192	27114	1074033	46414	111100	0	0	8121	529995	0	0
2024-08-13 06:16:47			0	38274	0	0	0	29838	28440	161200	27275	1074096	46416	111103	0	0	8122	529065	0	0
2024-08-13 06:17:47			0	38248	0	0	0	29844	28430	161084	26611	1074006	46404	111105	0	0	8121	530078	0	0
2024-08-13 06:18:47			0	38290	0	0	0	29844	28440	161136	26786	1074069	46427	111105	0	0	8123	528462	0	0
2024-08-13 06:19:47			0	38303	0	0	0	29838	28440	161156	26937	1074015	46405	111103	0	0	8124	527971	0	0
2024-08-13 06:20:47			0	38298	0	0	0	29846	28440	161024	26814	1073997	46395	111106	0	0	8124	528160	0	0
2024-08-13 06:21:47			0	38325	0	0	0	29841	28430	160952	26788	1073925	46415	111104	0	0	8125	527173	0	0
2024-08-13 06:22:47			0	38327	0	0	0	29833	28430	160960	26844	1073916	46392	111101	0	0	8125	527098	0	0
2024-08-13 06:23:47			0	38320	0	0	0	29836	28430	160916	27043	1073844	46404	111102	0	0	8125	527361	0	0
2024-08-13 06:24:47			0	38340	0	0	0	29828	28430	160976	27039	1073943	46414	111099	0	0	8126	526608	0	0
2024-08-13 06:25:47			0	38350	0	0	0	29825	28430	160888	26630	1073862	46403	111098	0	0	8127	526232	0	0
2024-08-13 06:26:47			0	38362	0	0	0	29823	28430	160948	27130	1074024	46403	111097	0	0	8128	525781	0	0
2024-08-13 06:27:47			0	38354	0	0	0	29828	28430	160912	26986	1073970	46392	111099	0	0	8127	526082	0	0
2024-08-13 06:28:47			0	38371	0	0	0	29825	28420	160948	27090	1073880	46392	111098	0	0	8128	525473	0	0
2024-08-13 06:29:47			0	38382	0	0	0	29825	28430	160836	27107	1073889	46403	111098	0	0	8129	525029	0	0
2024-08-13 06:30:47			0	38370	0	0	0	29810	28420	160816	27050	1073907	46392	111092	0	0	8128	525511	0	0
2024-08-13 06:31:47			0	38361	0	0	0	29810	28430	160832	26894	1073898	46381	111092	0	0	8128	525818	0	0
2024-08-13 06:32:47			0	38369	0	0	0	29805	28410	160760	27024	1073862	46391	111090	0	0	8128	525578	0	0
2024-08-13 06:33:47			0	38405	0	0	0	29802	28420	160708	27173	1073790	46403	111089	0	0	8130	524196	0	0
2024-08-13 06:34:47			0	38378	0	0	0	29797	28420	160760	27190	1073763	46403	111087	0	0	8129	525210	0	0
2024-08-13 06:35:47			0	38376	0	0	0	29792	28410	160808	27008	1073727	46402	111085	0	0	8129	525315	0	0
2024-08-13 06:36:47			0	38414	0	0	0	29792	28420	160716	27171	1073844	46392	111085	0	0	8131	523858	0	0
2024-08-13 06:37:47			0	38405	0	0	0	29786	28410	160696	26840	1073745	46401	111083	0	0	8131	524226	0	0
2024-08-13 06:38:47			0	38412	0	0	0	29784	28400	160628	26870	1073727	46401	111082	0	0	8131	523994	0	0
2024-08-13 06:39:47			0	38421	0	0	0	29786	28400	160656	26915	1073736	46423	111083	0	0	8131	523656	0	0
2024-08-13 06:40:47			0	38420	0	0	0	29781	28400	160616	26965	1073790	46390	111081	0	0	8131	523694	0	0
2024-08-13 06:41:47			0	38408	0	0	0	29784	28400	160812	26902	1073709	46390	111082	0	0	8131	524144	0	0
2024-08-13 06:42:47			0	38427	0	0	0	29774	28410	160728	26736	1073745	46401	111078	0	0	8132	523401	0	0
2024-08-13 06:43:47			0	38437	0	0	0	29768	28400	160756	26923	1073700	46378	111076	0	0	8133	523056	0	0
2024-08-13 06:44:47			0	38442	0	0	0	29768	28400	160788	26948	1073700	46401	111076	0	0	8133	522869	0	0
2024-08-13 06:45:47			0	38424	0	0	0	29753	28380	160572	27072	1073601	46388	111070	0	0	8132	523604	0	0
2024-08-13 06:46:47			0	38431	0	0	0	29753	28380	160656	27093	1073592	46388	111070	0	0	8132	523342	0	0
2024-08-13 06:47:47			0	38442	0	0	0	29735	28370	160636	27322	1073529	46388	111063	0	0	8133	522960	0	0
2024-08-13 06:48:47			0	38439	0	0	0	29737	28360	160624	27097	1073484	46375	111064	0	0	8133	523102	0	0
2024-08-13 06:49:47			0	38431	0	0	0	29727	28360	160676	27270	1073448	46385	111060	0	0	8133	523402	0	0
2024-08-13 06:50:47			0	38450	0	0	0	29727	28350	160676	26982	1073466	46385	111060	0	0	8134	522720	0	0
2024-08-13 06:51:47			0	38459	0	0	0	29716	28350	160656	26974	1073376	46374	111056	0	0	8135	522383	0	0
2024-08-13 06:52:47			0	38467	0	0	0	29709	28340	160684	26989	1073421	46384	111053	0	0	8135	522114	0	0
2024-08-13 06:53:47			0	38478	0	0	0	29703	28340	160572	27156	1073358	46372	111051	0	0	8136	521702	0	0
2024-08-13 06:54:47			0	38460	0	0	0	29693	28330	160520	27020	1073349	46394	111047	0	0	8135	522406	0	0
2024-08-13 06:55:47			0	38493	0	0	0	29690	28330	160596	27092	1073286	46383	111046	0	0	8137	521171	0	0
2024-08-13 06:56:47			0	38490	0	0	0	29688	28320	160472	27339	1073250	46393	111045	0	0	8137	521313	0	0
2024-08-13 06:57:47			0	38482	0	0	0	29677	28320	160536	26743	1073295	46381	111041	0	0	8136	521613	0	0
2024-08-13 06:58:47			0	38504	0	0	0	29683	28310	160548	27092	1073259	46370	111043	0	0	8137	520820	0	0
2024-08-13 06:59:47			0	38487	0	0	0	29675	28300	160576	27251	1073241	46380	111040	0	0	8137	521486	0	0
2024-08-13 07:00:47			0	38462	0	0	0	29667	28300	160616	27007	1073178	46390	111037	0	0	8135	522422	0	0
2024-08-13 07:01:47			0	38474	0	0	0	29667	28290	160600	27031	1073187	46378	111037	0	0	8136	522003	0	0
2024-08-13 07:02:47			0	38466	0	0	0	29662	28280	160744	27213	1073124	46389	111035	0	0	8135	522332	0	0
2024-08-13 07:03:47			0	38478	0	0	0	29651	28280	160684	27131	1073097	46378	111031	0	0	8136	521883	0	0
2024-08-13 07:04:47			0	38482	0	0	0	29654	28280	160648	27107	1073124	46389	111032	0	0	8137	521733	0	0
2024-08-13 07:05:47			0	38488	0	0	0	29646	28280	160664	27246	1073115	46388	111029	0	0	8137	521509	0	0
2024-08-13 07:06:47			0	38534	0	0	0	29649	28290	160420	27123	1073079	46378	111030	0	0	8140	519759	0	0
2024-08-13 07:07:47			0	38569	0	0	0	29649	28270	160236	26958	1073133	46376	111030	0	0	8142	518513	0	0
2024-08-13 07:08:47			0	38640	0	0	0	29646	28270	160032	26859	1073097	46398	111029	0	0	8146	515869	0	0
2024-08-13 07:09:47			0	38674	0	0	0	29651	28270	159920	26930	1073097	46365	111031	0	0	8148	514606	0	0
2024-08-13 07:10:47			0	38688	0	0	0	29644	28270	159828	27095	1073070	46376	111028	0	0	8148	514087	0	0
2024-08-13 07:11:47			0	38712	0	0	0	29644	28260	159736	26889	1073087	46387	111028	0	0	8150	513226	0	0
2024-08-13 07:12:47			0	38729	0	0	0	29649	28260	159680	26968	1073078	46386	111030	0	0	8151	512597	0	0
2024-08-13 07:13:47			0	38719	0	0	0	29646	28260	159696	26838	1073105	46386	111029	0	0	8150	512967	0	0
2024-08-13 07:14:47			0	38728	0	0	0	29651	28270	159781	26987	1073043	46376	111031	0	0	8151	512604	0	0
2024-08-13 07:15:47			0	38714	0	0	0	29646	28260	159724	26896	1073006	46365	111029	0	0	8150	513152	0	0
2024-08-13 07:16:47			0	38706	0	0	0	29649	28260	159812	27079	1073006	46387	111030	0	0	8149	513449	0	0
2024-08-13 07:17:47			0	38672	0	0	0	29654	28250	159796	27135	1073042	46396	111032	0	0	8147	514740	0	0
2024-08-13 07:18:47			0	38654	0	0	0	29651	28260	159996	27010	1073051	46397	111031	0	0	8146	515379	0	0
2024-08-13 07:19:47			0	38643	0	0	0	29646	28260	159996	26904	1073024	46397	111029	0	0	8146	515788	0	0
2024-08-13 07:20:47			0	38634	0	0	0	29651	28250	160092	26906	1073033	46375	111031	0	0	8145	516152	0	0
2024-08-13 07:21:47			0	38620	0	0	0	29646	28260	160168	27072	1072997	46386	111029	0	0	8144	516643	0	0
2024-08-13 07:22:47			0	38610	0	0	0	29657	28250	160212	27325	1073015	46385	111033	0	0	8144	517045	0	0
2024-08-13 07:23:47			0	38596	0	0	0	29644	28250	160172	26823	1072979	46385	111028	0	0	8143	517566	0	0
2024-08-13 07:24:47			0	38583	0	0	0	29646	28250	160348	27303	1073015	46385	111029	0	0	8142	518051	0	0
2024-08-13 07:25:47			0	38581	0	0	0	29633	28250	160264	27474	1073006	46396	111024	0	0	8142	518125	0	0
2024-08-13 07:26:47			0	38562	0	0	0	29636	28250	160368	27301	1072979	46396	111025	0	0	8141	518834	0	0
2024-08-13 07:27:47			0	38558	0	0	0	29633	28250	160440	27003	1072979	46375	111024	0	0	8141	518983	0	0
2024-08-13 07:28:47			0	38537	0	0	0	29633	28240	160444	27095	1072916	46385	111024	0	0	8140	519797	0	0
2024-08-13 07:29:47			0	38508	0	0	0	29633	28240	160552	27227	1072890	46375	111024	0	0	8138	520881	0	0
2024-08-13 07:30:47			0	38468	0	0	0	29628	28240	160724	27334	1072934	46395	111022	0	0	8136	522378	0	0
2024-08-13 07:31:47			0	38439	0	0	0	29631	28230	160752	26856	1072845	46373	111023	0	0	8134	523496	0	0
2024-08-13 07:32:47			0	38405	0	0	0	29620	28220	160972	27246	1072880	46372	111019	0	0	8132	524802	0	0
2024-08-13 07:33:47			0	38355	0	0	0	29620	28230	161076	27282	1072845	46383	111019	0	0	8130	526652	0	0
2024-08-13 07:34:47			0	38351	0	0	0	29623	28240	161208	27412	1072916	46375	111020	0	0	8129	526773	0	0
2024-08-13 07:35:47			0	38322	0	0	0	29620	28230	161260	27248	1072836	46383	111019	0	0	8128	527896	0	0
2024-08-13 07:36:47			0	38327	0	0	0	29618	28230	161364	27194	1072898	46383	111018	0	0	8128	527707	0	0
2024-08-13 07:37:47			0	38326	0	0	0	29620	28220	161328	26993	1072907	46382	111019	0	0	8128	527776	0	0
2024-08-13 07:38:47			0	38295	0	0	0	29610	28230	161328	27209	1072925	46394	111015	0	0	8126	528915	0	0
2024-08-13 07:39:47			0	38265	0	0	0	29620	28230	161496	26793	1072836	46373	111019	0	0	8124	530048	0	0
2024-08-13 07:40:47			0	38243	0	0	0	29628	28240	161716	27123	1072961	46384	111022	0	0	8123	530849	0	0
2024-08-13 07:41:47			0	38171	0	0	0	29628	28240	161892	27046	1072961	46395	111022	0	0	8119	533578	0	0
2024-08-13 07:42:47			0	38162	0	0	0	29636	28230	162096	27239	1072979	46383	111025	0	0	8118	533950	0	0
2024-08-13 07:43:47			0	38130	0	0	0	29636	28240	162092	27123	1072961	46395	111025	0	0	8117	535136	0	0
2024-08-13 07:44:47			0	38124	0	0	0	29638	28230	162172	27196	1072952	46394	111026	0	0	8116	535395	0	0
2024-08-13 07:45:47			0	38105	0	0	0	29631	28230	162160	26897	1072952	46383	111023	0	0	8115	536118	0	0
2024-08-13 07:46:47			0	38104	0	0	0	29628	28240	162136	27060	1072961	46395	111022	0	0	8115	536125	0	0
2024-08-13 07:47:47			0	38131	0	0	0	29631	28240	162064	26911	1072988	46384	111023	0	0	8117	535098	0	0
2024-08-13 07:48:47			0	38147	0	0	0	29638	28240	162056	27166	1072961	46374	111026	0	0	8117	534489	0	0
2024-08-13 07:49:47			0	38148	0	0	0	29628	28230	161964	27052	1072889	46373	111022	0	0	8118	534482	0	0
2024-08-13 07:50:47			0	38185	0	0	0	29628	28230	161884	27161	1072916	46394	111022	0	0	8120	533077	0	0
2024-08-13 07:51:47			0	38209	0	0	0	29631	28240	161800	27045	1072961	46384	111023	0	0	8121	532137	0	0
2024-08-13 07:52:47			0	38221	0	0	0	29631	28220	161744	27241	1072880	46372	111023	0	0	8122	531743	0	0
2024-08-13 07:53:47			0	38288	0	0	0	29641	28230	161528	27149	1072925	46383	111027	0	0	8125	529179	0	0
2024-08-13 07:54:47			0	38291	0	0	0	29623	28220	161404	27138	1072844	46393	111020	0	0	8126	529096	0	0
2024-08-13 07:55:47			0	38326	0	0	0	29620	28220	161296	27168	1072880	46382	111019	0	0	8128	527776	0	0
2024-08-13 07:56:47			0	38351	0	0	0	29612	28220	161232	27001	1072934	46405	111016	0	0	8129	526833	0	0
2024-08-13 07:57:47			0	38381	0	0	0	29615	28220	161176	27170	1072853	46405	111017	0	0	8131	525704	0	0
2024-08-13 07:58:47			0	38395	0	0	0	29615	28230	161004	27083	1072872	46394	111017	0	0	8132	525148	0	0
2024-08-13 07:59:47			0	38405	0	0	0	29605	28220	160976	26844	1072844	46360	111013	0	0	8133	524802	0	0
2024-08-13 08:00:47			0	38422	0	0	0	29610	28220	160920	27005	1072853	46393	111015	0	0	8134	524164	0	0
2024-08-13 08:01:47			0	38446	0	0	0	29605	28220	160808	27069	1072880	46382	111013	0	0	8135	523263	0	0
2024-08-13 08:02:47			0	38469	0	0	0	29607	28220	160772	26939	1072934	46372	111014	0	0	8136	522401	0	0
2024-08-13 08:03:47			0	38454	0	0	0	29610	28220	160792	27022	1072818	46372	111015	0	0	8135	522963	0	0
2024-08-13 08:04:47			0	38478	0	0	0	29615	28220	160792	26960	1072844	46393	111017	0	0	8137	522064	0	0
2024-08-13 08:05:47			0	38472	0	0	0	29610	28220	160712	26916	1072818	46382	111015	0	0	8136	522289	0	0
2024-08-13 08:06:47			0	38472	0	0	0	29615	28200	160784	27017	1072817	46380	111017	0	0	8136	522349	0	0
2024-08-13 08:07:47			0	38454	0	0	0	29607	28220	160760	27222	1072818	46382	111014	0	0	8135	522963	0	0
2024-08-13 08:08:47			0	38458	0	0	0	29612	28220	160768	26994	1072880	46382	111016	0	0	8136	522813	0	0
2024-08-13 08:09:47			0	38440	0	0	0	29610	28220	160836	27275	1072880	46382	111015	0	0	8135	523488	0	0
2024-08-13 08:10:47			0	38443	0	0	0	29612	28220	160796	27138	1072925	46405	111016	0	0	8135	523376	0	0
2024-08-13 08:11:47			0	38440	0	0	0	29615	28220	160776	27170	1072907	46393	111017	0	0	8135	523488	0	0
2024-08-13 08:12:47			0	38450	0	0	0	29610	28220	160860	27074	1072818	46382	111015	0	0	8135	523113	0	0
2024-08-13 08:13:47			0	38452	0	0	0	29607	28210	160832	26897	1072835	46392	111014	0	0	8135	523068	0	0
2024-08-13 08:14:47			0	38451	0	0	0	29607	28220	160748	27154	1072871	46382	111014	0	0	8135	523076	0	0
2024-08-13 08:15:47			0	38450	0	0	0	29599	28200	160712	27118	1072764	46391	111011	0	0	8135	523174	0	0
2024-08-13 08:16:47			0	38455	0	0	0	29605	28200	160732	26902	1072844	46358	111013	0	0	8135	522986	0	0
2024-08-13 08:17:47			0	38476	0	0	0	29610	28200	160640	27317	1072790	46380	111015	0	0	8137	522199	0	0
2024-08-13 08:18:47			0	38484	0	0	0	29610	28200	160736	27071	1072835	46391	111015	0	0	8137	521899	0	0
2024-08-13 08:19:47			0	38489	0	0	0	29615	28200	160580	26856	1072817	46391	111017	0	0	8137	521712	0	0
2024-08-13 08:20:47			0	38473	0	0	0	29620	28220	160612	27225	1072871	46393	111019	0	0	8136	522251	0	0
2024-08-13 08:21:47			0	38498	0	0	0	29615	28200	160596	27189	1072889	46391	111017	0	0	8138	521375	0	0
2024-08-13 08:22:47			0	38489	0	0	0	29612	28210	160620	27003	1072862	46392	111016	0	0	8137	521682	0	0
2024-08-13 08:23:47			0	38493	0	0	0	29612	28210	160564	27228	1072835	46381	111016	0	0	8138	521532	0	0
2024-08-13 08:24:47			0	38492	0	0	0	29620	28210	160540	26987	1072880	46392	111019	0	0	8137	521570	0	0
2024-08-13 08:25:47			0	38488	0	0	0	29615	28220	160640	26963	1072880	46360	111017	0	0	8137	521689	0	0
2024-08-13 08:26:47			0	38503	0	0	0	29610	28220	160616	27149	1072871	46393	111015	0	0	8138	521128	0	0
2024-08-13 08:27:47			0	38500	0	0	0	29615	28210	160528	26890	1072862	46371	111017	0	0	8138	521270	0	0
2024-08-13 08:28:47			0	38498	0	0	0	29615	28220	160396	26902	1072853	46382	111017	0	0	8138	521315	0	0
2024-08-13 08:29:47			0	38525	0	0	0	29618	28220	160500	26828	1072844	46393	111018	0	0	8139	520305	0	0
2024-08-13 08:30:47			0	38543	0	0	0	29623	28200	160392	26975	1072871	46380	111020	0	0	8140	519693	0	0
2024-08-13 08:31:47			0	38545	0	0	0	29615	28220	160364	26859	1072934	46382	111017	0	0	8141	519558	0	0
2024-08-13 08:32:47			0	38575	0	0	0	29612	28220	160360	27119	1072907	46382	111016	0	0	8142	518439	0	0
2024-08-13 08:33:47			0	38563	0	0	0	29618	28220	160204	27189	1072898	46382	111018	0	0	8142	518886	0	0
2024-08-13 08:34:47			0	38592	0	0	0	29615	28220	160168	26979	1072880	46372	111017	0	0	8143	517805	0	0
2024-08-13 08:35:47			0	38620	0	0	0	29615	28220	160208	27001	1072907	46393	111017	0	0	8145	516762	0	0
2024-08-13 08:36:47			0	38627	0	0	0	29610	28200	160156	27066	1072916	46391	111015	0	0	8145	516562	0	0
2024-08-13 08:37:47			0	38642	0	0	0	29612	28220	160112	26675	1072853	46393	111016	0	0	8146	515944	0	0
2024-08-13 08:38:47			0	38653	0	0	0	29605	28210	160040	26984	1072835	46392	111013	0	0	8147	515565	0	0
2024-08-13 08:39:47			0	38672	0	0	0	29605	28220	159984	26835	1072853	46393	111013	0	0	8148	514829	0	0
2024-08-13 08:40:47			0	38659	0	0	0	29605	28210	159892	26885	1072862	46371	111013	0	0	8147	515342	0	0
2024-08-13 08:41:47			0	38668	0	0	0	29612	28220	159928	26930	1072880	46382	111016	0	0	8148	514978	0	0
2024-08-13 08:42:47			0	38678	0	0	0	29615	28200	159864	26897	1072898	46391	111017	0	0	8148	514666	0	0
2024-08-13 08:43:47			0	38669	0	0	0	29618	28220	159852	27147	1072952	46382	111018	0	0	8148	514941	0	0
2024-08-13 08:44:47			0	38674	0	0	0	29612	28230	159868	27026	1072889	46383	111016	0	0	8148	514725	0	0
2024-08-13 08:45:47			0	38663	0	0	0	29625	28220	159928	26977	1072907	46393	111021	0	0	8147	515164	0	0
2024-08-13 08:46:47			0	38658	0	0	0	29625	28220	159908	27010	1072907	46393	111021	0	0	8147	515349	0	0
2024-08-13 08:47:47			0	38663	0	0	0	29631	28230	160040	26771	1072943	46394	111023	0	0	8147	515134	0	0
2024-08-13 08:48:47			0	38631	0	0	0	29623	28230	159956	27085	1072970	46383	111020	0	0	8145	516323	0	0
2024-08-13 08:49:47			0	38651	0	0	0	29641	28230	160012	26927	1072970	46394	111027	0	0	8146	515579	0	0
2024-08-13 08:50:47			0	38638	0	0	0	29633	28230	159936	27086	1072970	46383	111024	0	0	8146	516063	0	0
2024-08-13 08:51:47			0	38625	0	0	0	29638	28220	159972	26812	1072961	46372	111026	0	0	8145	516576	0	0
2024-08-13 08:52:47			0	38635	0	0	0	29631	28230	160104	26984	1072970	46394	111023	0	0	8145	516175	0	0
2024-08-13 08:53:47			0	38630	0	0	0	29633	28230	160088	26925	1072943	46394	111024	0	0	8145	516360	0	0
2024-08-13 08:54:47			0	38617	0	0	0	29638	28240	160084	26942	1072988	46395	111026	0	0	8144	516814	0	0
2024-08-13 08:55:47			0	38645	0	0	0	29649	28240	159972	27062	1073042	46384	111030	0	0	8146	515773	0	0
2024-08-13 08:56:47			0	38634	0	0	0	29649	28240	159996	27081	1073069	46395	111030	0	0	8145	516182	0	0
2024-08-13 08:57:47			0	38659	0	0	0	29657	28240	159996	26937	1073078	46396	111033	0	0	8146	515253	0	0
2024-08-13 08:58:47			0	38668	0	0	0	29651	28240	159812	27079	1073051	46375	111031	0	0	8147	514918	0	0
2024-08-13 08:59:47			0	38668	0	0	0	29657	28240	159840	27052	1073078	46385	111033	0	0	8147	514918	0	0
2024-08-13 09:00:47			0	38695	0	0	0	29657	28240	159844	27017	1073078	46396	111033	0	0	8148	513916	0	0
2024-08-13 09:01:47			0	38707	0	0	0	29662	28250	159672	27170	1073069	46396	111035	0	0	8149	513441	0	0
2024-08-13 09:02:47			0	38713	0	0	0	29672	28260	159624	26661	1073159	46397	111039	0	0	8149	513189	0	0
2024-08-13 09:03:47			0	38737	0	0	0	29693	28260	159573	26953	1073240	46409	111047	0	0	8150	512300	0	0
2024-08-13 09:04:47			0	38749	0	0	0	29698	28270	159441	27005	1073258	46398	111049	0	0	8151	511827	0	0
2024-08-13 09:05:47			0	38756	0	0	0	29742	28270	159393	26887	1073402	46420	111066	0	0	8151	511568	0	0
2024-08-13 09:06:47			0	38812	0	0	0	29771	28300	159117	26928	1073582	46423	111077	0	0	8153	509411	0	0
2024-08-13 09:07:47			0	38923	0	0	0	29794	28330	158677	26890	1073717	46439	111086	0	0	8160	505238	0	0
2024-08-13 09:08:47			0	39088	0	0	0	29825	28330	158025	27078	1073798	46427	111098	0	0	8168	499202	0	0
2024-08-13 09:09:47			0	39233	0	0	0	29846	28350	157521	27222	1073969	46441	111106	0	0	8176	493877	0	0
2024-08-13 09:10:47			0	39331	0	0	0	29877	28360	157101	26791	1073969	46453	111118	0	0	8181	490306	0	0
2024-08-13 09:11:47			0	39394	0	0	0	29883	28380	156985	26906	1074086	46432	111120	0	0	8185	487981	0	0
2024-08-13 09:12:47			0	39359	0	0	0	29880	28410	156965	27036	1074132	46435	111119	0	0	8183	489156	0	0
2024-08-13 09:13:47			0	39291	0	0	0	29906	28420	157313	26930	1074284	46448	111129	0	0	8179	491580	0	0
2024-08-13 09:14:47			0	39215	0	0	0	29922	28440	157593	26923	1074428	46461	111135	0	0	8174	494272	0	0
2024-08-13 09:15:47			0	39155	0	0	0	29940	28460	157701	26859	1074464	46453	111142	0	0	8171	496391	0	0
2024-08-13 09:16:47			0	39106	0	0	0	29968	28480	157853	27048	1074635	46455	111153	0	0	8168	498115	0	0
2024-08-13 09:17:47			0	39107	0	0	0	29986	28490	157909	26899	1074752	46465	111160	0	0	8167	498049	0	0
2024-08-13 09:18:47			0	39124	0	0	0	30002	28520	157769	27048	1074779	46446	111166	0	0	8168	497345	0	0
2024-08-13 09:19:47			0	39152	0	0	0	30023	28540	157609	27130	1074906	46460	111174	0	0	8170	496270	0	0
2024-08-13 09:20:47			0	39169	0	0	0	30031	28550	157497	26909	1074915	46450	111177	0	0	8171	495624	0	0
2024-08-13 09:21:47			0	39170	0	0	0	30046	28570	157573	26864	1074978	46463	111183	0	0	8170	495531	0	0
2024-08-13 09:22:47			0	39128	0	0	0	30057	28580	157653	27024	1075104	46453	111187	0	0	8168	497027	0	0
2024-08-13 09:23:47			0	39100	0	0	0	30059	28590	157821	26805	1075149	46443	111188	0	0	8166	498016	0	0
2024-08-13 09:24:47			0	39100	0	0	0	30075	28600	157969	26838	1075167	46432	111194	0	0	8166	497987	0	0
2024-08-13 09:25:47			0	39074	0	0	0	30067	28610	157805	26715	1075086	46434	111191	0	0	8165	498904	0	0
2024-08-13 09:26:47			0	39086	0	0	0	30067	28610	157873	26786	1075113	46423	111191	0	0	8165	498468	0	0
2024-08-13 09:27:47			0	39067	0	0	0	30062	28610	157881	26674	1075113	46434	111189	0	0	8164	499159	0	0
2024-08-13 09:28:47			0	39074	0	0	0	30070	28610	157817	26890	1075194	46434	111192	0	0	8165	498904	0	0
2024-08-13 09:29:47			0	39049	0	0	0	30085	28630	157929	26819	1075257	46436	111198	0	0	8163	499757	0	0
2024-08-13 09:30:47			0	39042	0	0	0	30096	28640	157917	27064	1075275	46437	111202	0	0	8163	499983	0	0
2024-08-13 09:31:47			0	39047	0	0	0	30111	28640	158093	26790	1075410	46459	111208	0	0	8163	499801	0	0
2024-08-13 09:32:47			0	39052	0	0	0	30127	28660	158005	26894	1075383	46450	111214	0	0	8163	499561	0	0
2024-08-13 09:33:47			0	39044	0	0	0	30106	28660	157945	26994	1075330	46427	111206	0	0	8163	499853	0	0
2024-08-13 09:34:47			0	39029	0	0	0	30119	28670	158021	26762	1075375	46461	111211	0	0	8162	500371	0	0
2024-08-13 09:35:47			0	39003	0	0	0	30124	28680	158053	26894	1075438	46440	111213	0	0	8160	501290	0	0
2024-08-13 09:36:47			0	38990	0	0	0	30116	28680	158221	26946	1075420	46441	111210	0	0	8159	501765	0	0
2024-08-13 09:37:47			0	38982	0	0	0	30127	28680	158265	26828	1075420	46453	111214	0	0	8159	502057	0	0
2024-08-13 09:38:47			0	38927	0	0	0	30122	28690	158361	26696	1075438	46442	111212	0	0	8156	504040	0	0
2024-08-13 09:39:47			0	38914	0	0	0	30122	28690	158449	27036	1075384	46431	111212	0	0	8155	504516	0	0
2024-08-13 09:40:47			0	38865	0	0	0	30124	28700	158649	27020	1075501	46442	111213	0	0	8152	506285	0	0
2024-08-13 09:41:47			0	38829	0	0	0	30129	28700	158813	26497	1075510	46455	111215	0	0	8150	507608	0	0
2024-08-13 09:42:47			0	38792	0	0	0	30140	28710	158949	26575	1075573	46443	111219	0	0	8148	508940	0	0
2024-08-13 09:43:47			0	38743	0	0	0	30145	28710	159065	27144	1075609	46456	111221	0	0	8145	510747	0	0
2024-08-13 09:44:47			0	38710	0	0	0	30150	28710	159340	26798	1075582	46433	111223	0	0	8143	511966	0	0
2024-08-13 09:45:47			0	38643	0	0	0	30150	28710	159484	27069	1075582	46444	111223	0	0	8139	514447	0	0
2024-08-13 09:46:47			0	38604	0	0	0	30150	28720	159600	26745	1075618	46444	111223	0	0	8137	515864	0	0
2024-08-13 09:47:47			0	38606	0	0	0	30150	28720	159736	26880	1075591	46444	111223	0	0	8137	515790	0	0
2024-08-13 09:48:47			0	38547	0	0	0	30148	28720	159868	26819	1075591	46421	111222	0	0	8134	517984	0	0
2024-08-13 09:49:47			0	38516	0	0	0	30148	28720	160012	26632	1075573	46434	111222	0	0	8132	519139	0	0
2024-08-13 09:50:47			0	38474	0	0	0	30119	28710	160112	26691	1075438	46432	111211	0	0	8130	520736	0	0
2024-08-13 09:51:47			0	38459	0	0	0	30098	28700	160276	26830	1075375	46410	111203	0	0	8130	521326	0	0
2024-08-13 09:52:47			0	38424	0	0	0	30077	28690	160472	27164	1075249	46398	111195	0	0	8128	522666	0	0
2024-08-13 09:53:47			0	38367	0	0	0	30049	28680	160544	26904	1075150	46408	111184	0	0	8125	524833	0	0
2024-08-13 09:54:47			0	38346	0	0	0	30031	28660	160716	27048	1075141	46405	111177	0	0	8124	525683	0	0
2024-08-13 09:55:47			0	38323	0	0	0	30028	28660	160816	27013	1075114	46416	111176	0	0	8123	526547	0	0
2024-08-13 09:56:47			0	38294	0	0	0	30023	28650	160848	26793	1075096	46415	111174	0	0	8121	527669	0	0
2024-08-13 09:57:47			0	38282	0	0	0	30023	28640	160944	26946	1075023	46425	111174	0	0	8121	528152	0	0
2024-08-13 09:58:47			0	38264	0	0	0	30023	28640	161048	26731	1075023	46403	111174	0	0	8119	528830	0	0
2024-08-13 09:59:47			0	38247	0	0	0	30007	28630	161144	26837	1075014	46414	111168	0	0	8119	529502	0	0
2024-08-13 10:00:47			0	38236	0	0	0	30028	28630	161236	26687	1075059	46414	111176	0	0	8118	529918	0	0
2024-08-13 10:01:47			0	38210	0	0	0	30044	28640	161292	26696	1075158	46448	111182	0	0	8116	530870	0	0
2024-08-13 10:02:47			0	38212	0	0	0	30062	28640	161252	26876	1075185	46458	111189	0	0	8116	530794	0	0
2024-08-13 10:03:47			0	38186	0	0	0	30088	28650	161324	26937	1075294	46460	111199	0	0	8114	531746	0	0
2024-08-13 10:04:47			0	38186	0	0	0	30109	28660	161452	26920	1075410	46450	111207	0	0	8114	531716	0	0
2024-08-13 10:05:47			0	38186	0	0	0	30122	28680	161420	26868	1075545	46452	111212	0	0	8114	531654	0	0
2024-08-13 10:06:47			0	38177	0	0	0	30142	28680	161428	27166	1075501	46475	111220	0	0	8113	531995	0	0
2024-08-13 10:07:47			0	38171	0	0	0	30145	28690	161496	26918	1075546	46464	111221	0	0	8112	532191	0	0
2024-08-13 10:08:47			0	38160	0	0	0	30155	28710	161428	26739	1075663	46466	111225	0	0	8112	532546	0	0
2024-08-13 10:09:47			0	38141	0	0	0	30158	28710	161472	27244	1075609	46466	111226	0	0	8110	533266	0	0
2024-08-13 10:10:47			0	38143	0	0	0	30142	28720	161400	26937	1075537	46433	111220	0	0	8111	533159	0	0
2024-08-13 10:11:47			0	38147	0	0	0	30132	28700	161468	26968	1075456	46432	111216	0	0	8111	533069	0	0
2024-08-13 10:12:47			0	38131	0	0	0	30124	28700	161532	27152	1075420	46419	111213	0	0	8110	533676	0	0
2024-08-13 10:13:47			0	38113	0	0	0	30111	28700	161552	27022	1075366	46419	111208	0	0	8110	534359	0	0
2024-08-13 10:14:47			0	38113	0	0	0	30109	28680	161660	26817	1075366	46430	111207	0	0	8110	534421	0	0
2024-08-13 10:15:47			0	38107	0	0	0	30088	28680	161720	26741	1075303	46417	111199	0	0	8110	534648	0	0
2024-08-13 10:16:47			0	38087	0	0	0	30088	28680	161604	26842	1075303	46429	111199	0	0	8108	535408	0	0
2024-08-13 10:17:47			0	38101	0	0	0	30070	28670	161784	26876	1075213	46416	111192	0	0	8110	534907	0	0
2024-08-13 10:18:47			0	38093	0	0	0	30059	28660	161700	27102	1075231	46428	111188	0	0	8109	535242	0	0
2024-08-13 10:19:47			0	38086	0	0	0	30038	28660	161696	26856	1075168	46416	111180	0	0	8109	535508	0	0
2024-08-13 10:20:47			0	38091	0	0	0	30054	28650	161708	27038	1075186	46416	111186	0	0	8109	535349	0	0
2024-08-13 10:21:47			0	38089	0	0	0	30046	28650	161752	27159	1075186	46438	111183	0	0	8109	535425	0	0
2024-08-13 10:22:47			0	38088	0	0	0	30049	28650	161600	27201	1075186	46438	111184	0	0	8109	535463	0	0
2024-08-13 10:23:47			0	38087	0	0	0	30054	28640	161756	27313	1075140	46437	111186	0	0	8109	535532	0	0
2024-08-13 10:24:47			0	38088	0	0	0	30049	28640	161668	27093	1075167	46449	111184	0	0	8109	535494	0	0
2024-08-13 10:25:47			0	38089	0	0	0	30041	28640	161676	26998	1075167	46437	111181	0	0	8109	535456	0	0
2024-08-13 10:26:47			0	38092	0	0	0	30038	28640	161688	27053	1075194	46449	111180	0	0	8109	535342	0	0
2024-08-13 10:27:47			0	38098	0	0	0	30038	28650	161588	26750	1075204	46437	111180	0	0	8110	535083	0	0
2024-08-13 10:28:47			0	38092	0	0	0	30041	28640	161684	27060	1075113	46459	111181	0	0	8109	535342	0	0
2024-08-13 10:29:47			0	38101	0	0	0	30041	28640	161564	27062	1075158	46425	111181	0	0	8110	535000	0	0
2024-08-13 10:30:47			0	38091	0	0	0	30067	28640	161628	26852	1075221	46449	111191	0	0	8109	535380	0	0
2024-08-13 10:31:47			0	38104	0	0	0	30098	28660	161728	27206	1075383	46450	111203	0	0	8109	534824	0	0
2024-08-13 10:32:47			0	38112	0	0	0	30119	28670	161628	27213	1075509	46473	111211	0	0	8109	534489	0	0
2024-08-13 10:33:47			0	38114	0	0	0	30137	28690	161580	26944	1075600	46487	111218	0	0	8109	534352	0	0
2024-08-13 10:34:47			0	38118	0	0	0	30150	28710	161464	26981	1075690	46489	111223	0	0	8109	534138	0	0
2024-08-13 10:35:47			0	38132	0	0	0	30158	28720	161480	26850	1075726	46466	111226	0	0	8110	533576	0	0
2024-08-13 10:36:47			0	38125	0	0	0	30171	28730	161448	26996	1075807	46468	111231	0	0	8109	533811	0	0
2024-08-13 10:37:47			0	38122	0	0	0	30171	28750	161484	27045	1075780	46447	111231	0	0	8109	533863	0	0
2024-08-13 10:38:47			0	38134	0	0	0	30155	28750	161456	26733	1075726	46436	111225	0	0	8110	533408	0	0
2024-08-13 10:39:47			0	38138	0	0	0	30161	28750	161388	26920	1075834	46436	111227	0	0	8110	533256	0	0
2024-08-13 10:40:47			0	38147	0	0	0	30171	28750	161432	26967	1075780	46436	111231	0	0	8111	532915	0	0
2024-08-13 10:41:47			0	38129	0	0	0	30166	28750	161444	27246	1075672	46436	111229	0	0	8110	533597	0	0
2024-08-13 10:42:47			0	38123	0	0	0	30155	28750	161464	27048	1075672	46436	111225	0	0	8110	533825	0	0
2024-08-13 10:43:47			0	38126	0	0	0	30150	28740	161452	27144	1075690	46436	111223	0	0	8110	533742	0	0
2024-08-13 10:44:47			0	38103	0	0	0	30140	28740	161504	26850	1075654	46435	111219	0	0	8109	534614	0	0
2024-08-13 10:45:47			0	38114	0	0	0	30145	28730	161420	26937	1075636	46445	111221	0	0	8109	534228	0	0
2024-08-13 10:46:47			0	38093	0	0	0	30142	28740	161588	26967	1075627	46435	111220	0	0	8108	534994	0	0
2024-08-13 10:47:47			0	38086	0	0	0	30132	28740	161600	26817	1075573	46435	111216	0	0	8108	535260	0	0
2024-08-13 10:48:47			0	38105	0	0	0	30119	28720	161584	27005	1075519	46434	111211	0	0	8109	534601	0	0
2024-08-13 10:49:47			0	38082	0	0	0	30119	28710	161600	26708	1075492	46432	111211	0	0	8108	535505	0	0
2024-08-13 10:50:47			0	38072	0	0	0	30103	28710	161656	27104	1075474	46433	111205	0	0	8107	535885	0	0
2024-08-13 10:51:47			0	38068	0	0	0	30096	28710	161612	26835	1075411	46432	111202	0	0	8107	536037	0	0
2024-08-13 10:52:47			0	38098	0	0	0	30090	28700	161584	26984	1075420	46419	111200	0	0	8109	534928	0	0
2024-08-13 10:53:47			0	38089	0	0	0	30085	28700	161656	26958	1075456	46432	111198	0	0	8109	535270	0	0
2024-08-13 10:54:47			0	38095	0	0	0	30090	28700	161580	26831	1075420	46442	111200	0	0	8109	535042	0	0
2024-08-13 10:55:47			0	38092	0	0	0	30098	28710	161588	26937	1075438	46443	111203	0	0	8109	535125	0	0
2024-08-13 10:56:47			0	38102	0	0	0	30109	28700	161564	26963	1075528	46442	111207	0	0	8109	534776	0	0
2024-08-13 10:57:47			0	38108	0	0	0	30119	28710	161556	27229	1075519	46443	111211	0	0	8109	534518	0	0
2024-08-13 10:58:47			0	38132	0	0	0	30124	28700	161504	26819	1075537	46455	111213	0	0	8111	533638	0	0
2024-08-13 10:59:47			0	38109	0	0	0	30124	28720	161512	27066	1075510	46444	111213	0	0	8109	534449	0	0
2024-08-13 11:00:47			0	38132	0	0	0	30150	28720	161496	27055	1075645	46456	111223	0	0	8110	533576	0	0
2024-08-13 11:01:47			0	38135	0	0	0	30158	28720	161516	27041	1075681	46457	111226	0	0	8110	533462	0	0
2024-08-13 11:02:47			0	38124	0	0	0	30155	28730	161420	26987	1075609	46457	111225	0	0	8110	533849	0	0
2024-08-13 11:03:47			0	38142	0	0	0	30166	28730	161320	26817	1075699	46446	111229	0	0	8111	533166	0	0
2024-08-13 11:04:47			0	38146	0	0	0	30158	28740	161328	26658	1075735	46423	111226	0	0	8111	532984	0	0
2024-08-13 11:05:47			0	38132	0	0	0	30148	28730	161340	27022	1075744	46457	111222	0	0	8110	533545	0	0
2024-08-13 11:06:47			0	38147	0	0	0	30158	28740	161448	27033	1075771	46469	111226	0	0	8111	532946	0	0
2024-08-13 11:07:47			0	38139	0	0	0	30153	28740	161380	27045	1075744	46436	111224	0	0	8111	533249	0	0
2024-08-13 11:08:47			0	38145	0	0	0	30166	28750	161372	26935	1075726	46447	111229	0	0	8111	532991	0	0
2024-08-13 11:09:47			0	38156	0	0	0	30163	28750	161268	27067	1075726	46447	111228	0	0	8111	532574	0	0
2024-08-13 11:10:47			0	38162	0	0	0	30166	28750	161244	27043	1075726	46447	111229	0	0	8112	532347	0	0
2024-08-13 11:11:47			0	38163	0	0	0	30176	28750	161288	27022	1075762	46448	111233	0	0	8112	532309	0	0
2024-08-13 11:12:47			0	38168	0	0	0	30166	28760	161232	27045	1075780	46438	111229	0	0	8112	532089	0	0
2024-08-13 11:13:47			0	38165	0	0	0	30174	28760	161168	27067	1075852	46449	111232	0	0	8112	532202	0	0
2024-08-13 11:14:47			0	38187	0	0	0	30176	28750	161156	27130	1075789	46459	111233	0	0	8113	531401	0	0
2024-08-13 11:15:47			0	38197	0	0	0	30179	28760	161100	27107	1075825	46460	111234	0	0	8114	530992	0	0
2024-08-13 11:16:47			0	38202	0	0	0	30184	28760	161152	27067	1075834	46460	111236	0	0	8114	530803	0	0
2024-08-13 11:17:47			0	38208	0	0	0	30176	28770	161088	27140	1075843	46471	111233	0	0	8114	530545	0	0
2024-08-13 11:18:47			0	38218	0	0	0	30189	28770	161008	26967	1075924	46438	111238	0	0	8115	530168	0	0
2024-08-13 11:19:47			0	38205	0	0	0	30186	28780	161128	26785	1075969	46451	111237	0	0	8114	530628	0	0
2024-08-13 11:20:47			0	38231	0	0	0	30194	28780	161004	26826	1075915	46462	111240	0	0	8115	529646	0	0
2024-08-13 11:21:47			0	38218	0	0	0	30202	28780	160932	26786	1076023	46462	111243	0	0	8114	530137	0	0
2024-08-13 11:22:47			0	38251	0	0	0	30199	28790	160828	26965	1075987	46463	111242	0	0	8116	528861	0	0
2024-08-13 11:23:47			0	38328	0	0	0	30205	28780	160568	26620	1076023	46451	111244	0	0	8121	525993	0	0
2024-08-13 11:24:47			0	38353	0	0	0	30197	28790	160544	26684	1075987	46452	111241	0	0	8122	525024	0	0
2024-08-13 11:25:47			0	38387	0	0	0	30202	28790	160400	26779	1076014	46441	111243	0	0	8124	523749	0	0
2024-08-13 11:26:47			0	38394	0	0	0	30199	28790	160368	26793	1075969	46441	111242	0	0	8125	523487	0	0
2024-08-13 11:27:47			0	38381	0	0	0	30205	28800	160256	26885	1076113	46464	111244	0	0	8124	523943	0	0
2024-08-13 11:28:47			0	38386	0	0	0	30212	28800	160288	27074	1076113	46464	111247	0	0	8124	523756	0	0
2024-08-13 11:29:47			0	38376	0	0	0	30225	28800	160368	27104	1076203	46475	111252	0	0	8123	524131	0	0
2024-08-13 11:30:47			0	38356	0	0	0	30231	28810	160312	26928	1076185	46465	111254	0	0	8122	524851	0	0
2024-08-13 11:31:47			0	38327	0	0	0	30244	28820	160484	26790	1076203	46477	111259	0	0	8120	525909	0	0
2024-08-13 11:32:47			0	38310	0	0	0	30249	28830	160496	26981	1076275	46467	111261	0	0	8119	526517	0	0
2024-08-13 11:33:47			0	38298	0	0	0	30249	28830	160660	26746	1076284	46467	111261	0	0	8118	526969	0	0
2024-08-13 11:34:47			0	38275	0	0	0	30259	28830	160732	26873	1076338	46467	111265	0	0	8117	527834	0	0
2024-08-13 11:35:47			0	38252	0	0	0	30264	28840	160856	26987	1076410	46480	111267	0	0	8116	528670	0	0
2024-08-13 11:36:47			0	38223	0	0	0	30285	28850	160876	26904	1076393	46469	111275	0	0	8114	529733	0	0
2024-08-13 11:37:47			0	38219	0	0	0	30296	28860	160844	27060	1076554	46482	111279	0	0	8113	529853	0	0
2024-08-13 11:38:47			0	38234	0	0	0	30314	28860	157796	26913	1076491	46470	111286	0	0	8114	529287	0	0
2024-08-13 11:39:47			0	38206	0	0	0	30311	28880	157904	26961	1076555	46472	111285	0	0	8112	530283	0	0
2024-08-13 11:40:47			0	38183	0	0	0	30316	28890	157916	26807	1076555	46485	111287	0	0	8111	531121	0	0
2024-08-13 11:41:47			0	38148	0	0	0	30311	28890	158068	27183	1076627	46462	111285	0	0	8109	532445	0	0
2024-08-13 11:42:47			0	38114	0	0	0	30319	28880	158132	27039	1076564	46473	111288	0	0	8107	533764	0	0
2024-08-13 11:43:47			0	38101	0	0	0	30324	28900	158136	27149	1076645	46462	111290	0	0	8106	534195	0	0
2024-08-13 11:44:47			0	38058	0	0	0	30332	28900	158296	27102	1076672	46462	111293	0	0	8104	535827	0	0
2024-08-13 11:45:47			0	38029	0	0	0	30337	28910	158375	27244	1076744	46476	111295	0	0	8102	536899	0	0
2024-08-13 11:46:47			0	38021	0	0	0	30342	28910	158360	26925	1076744	46454	111297	0	0	8101	537204	0	0
2024-08-13 11:47:47			0	38011	0	0	0	30337	28910	158475	26788	1076727	46454	111295	0	0	8101	537584	0	0
2024-08-13 11:48:47			0	38009	0	0	0	30337	28910	158563	27241	1076781	46476	111295	0	0	8101	537660	0	0
2024-08-13 11:49:47			0	38013	0	0	0	30329	28920	158539	27230	1076772	46455	111292	0	0	8101	537477	0	0
2024-08-13 11:50:47			0	38000	0	0	0	30337	28920	158451	27209	1076790	46476	111295	0	0	8100	537972	0	0
2024-08-13 11:51:47			0	38017	0	0	0	30350	28930	158391	27199	1076916	46466	111300	0	0	8101	537294	0	0
2024-08-13 11:52:47			0	38028	0	0	0	30348	28950	158368	26776	1076925	46458	111299	0	0	8102	536813	0	0
2024-08-13 11:53:47			0	38049	0	0	0	30345	28930	158248	26987	1076808	46466	111298	0	0	8103	536076	0	0
2024-08-13 11:54:47			0	38044	0	0	0	30340	28950	158280	27241	1076817	46446	111296	0	0	8103	536204	0	0
2024-08-13 11:55:47			0	38032	0	0	0	30340	28950	158348	27111	1076844	46468	111296	0	0	8102	536660	0	0
2024-08-13 11:56:47			0	38045	0	0	0	30345	28940	158272	26948	1076880	46456	111298	0	0	8103	536197	0	0
2024-08-13 11:57:47			0	38062	0	0	0	30361	28950	158212	27157	1076817	46458	111304	0	0	8104	535520	0	0
2024-08-13 11:58:47			0	38078	0	0	0	30358	28930	158124	27085	1076871	46466	111303	0	0	8105	534975	0	0
2024-08-13 11:59:47			0	38086	0	0	0	30361	28940	158124	27206	1076862	46457	111304	0	0	8105	534640	0	0
2024-08-13 12:00:47			0	38085	0	0	0	30348	28950	157952	27135	1076844	46458	111299	0	0	8105	534647	0	0
2024-08-13 12:01:47			0	38097	0	0	0	30358	28950	157964	27166	1076934	46436	111303	0	0	8106	534192	0	0
2024-08-13 12:02:47			0	38105	0	0	0	30353	28940	157960	26991	1076862	46457	111301	0	0	8106	533919	0	0
2024-08-13 12:03:47			0	38094	0	0	0	30353	28950	157900	26694	1076871	46458	111301	0	0	8106	534305	0	0
2024-08-13 12:04:47			0	38099	0	0	0	30350	28950	157892	26982	1076871	46468	111300	0	0	8106	534116	0	0
2024-08-13 12:05:47			0	38093	0	0	0	30358	28940	157840	26956	1076889	46457	111303	0	0	8105	534374	0	0
2024-08-13 12:06:47			0	38118	0	0	0	30363	28970	157896	26864	1076979	46458	111305	0	0	8107	533334	0	0
2024-08-13 12:07:47			0	38119	0	0	0	30358	28980	157888	26908	1077078	46483	111303	0	0	8107	533265	0	0
2024-08-13 12:08:47			0	38109	0	0	0	30355	28970	157888	27020	1076988	46459	111302	0	0	8107	533675	0	0
2024-08-13 12:09:47			0	38111	0	0	0	30355	28970	157904	26984	1076988	46459	111302	0	0	8107	533599	0	0
2024-08-13 12:10:47			0	38110	0	0	0	30363	28970	157840	26915	1076961	46448	111305	0	0	8106	533637	0	0
2024-08-13 12:11:47			0	38108	0	0	0	30350	28970	157740	26870	1076952	46458	111300	0	0	8107	533713	0	0
2024-08-13 12:12:47			0	38102	0	0	0	30355	28970	157744	26637	1076934	46470	111302	0	0	8106	533940	0	0
2024-08-13 12:13:47			0	38099	0	0	0	30358	28980	157820	26779	1076997	46483	111303	0	0	8106	534023	0	0
2024-08-13 12:14:47			0	38103	0	0	0	30371	28980	157784	26882	1077051	46483	111308	0	0	8106	533871	0	0
2024-08-13 12:15:47			0	38125	0	0	0	30373	28980	157752	27005	1077087	46471	111309	0	0	8107	533038	0	0
2024-08-13 12:16:47			0	38122	0	0	0	30376	28990	157780	26726	1077096	46460	111310	0	0	8107	533120	0	0
2024-08-13 12:17:47			0	38119	0	0	0	30368	28980	157784	26668	1077060	46449	111307	0	0	8107	533265	0	0
2024-08-13 12:18:47			0	38122	0	0	0	30376	29000	157800	27041	1077060	46473	111310	0	0	8107	533089	0	0
2024-08-13 12:19:47			0	38105	0	0	0	30384	28990	157744	27074	1077105	46450	111313	0	0	8106	533764	0	0
2024-08-13 12:20:47			0	38117	0	0	0	30392	28990	157700	26987	1077132	46472	111316	0	0	8106	533310	0	0
2024-08-13 12:21:47			0	38160	0	0	0	30420	29010	157628	26785	1077240	46485	111327	0	0	8109	531621	0	0
2024-08-13 12:22:47			0	38168	0	0	0	30428	29010	157580	26802	1077330	46486	111330	0	0	8109	531318	0	0
2024-08-13 12:23:47			0	38177	0	0	0	30451	29020	157476	27168	1077321	46488	111339	0	0	8109	530947	0	0
2024-08-13 12:24:47			0	38196	0	0	0	30459	29030	157364	26852	1077394	46476	111342	0	0	8110	530199	0	0
2024-08-13 12:25:47			0	38190	0	0	0	30470	29040	157420	27128	1077412	46478	111346	0	0	8110	530395	0	0
2024-08-13 12:26:47			0	38202	0	0	0	30472	29050	157368	26802	1077394	46490	111347	0	0	8110	529911	0	0
2024-08-13 12:27:47			0	38212	0	0	0	30467	29050	157304	27003	1077430	46478	111345	0	0	8111	529534	0	0
2024-08-13 12:28:47			0	38205	0	0	0	30464	29040	157192	27027	1077439	46467	111344	0	0	8111	529829	0	0
2024-08-13 12:29:47			0	38197	0	0	0	30470	29050	157216	26965	1077394	46478	111346	0	0	8110	530100	0	0
2024-08-13 12:30:47			0	38210	0	0	0	30464	29050	157196	27090	1077403	46445	111344	0	0	8111	529609	0	0
2024-08-13 12:31:47			0	38203	0	0	0	30451	29050	157268	26727	1077367	46467	111339	0	0	8111	529873	0	0
2024-08-13 12:32:47			0	38200	0	0	0	30441	29050	157200	26948	1077313	46433	111335	0	0	8111	529987	0	0
2024-08-13 12:33:47			0	38191	0	0	0	30433	29040	157176	26941	1077304	46445	111332	0	0	8110	530357	0	0
2024-08-13 12:34:47			0	38173	0	0	0	30423	29030	157284	26949	1077259	46476	111328	0	0	8109	531068	0	0
2024-08-13 12:35:47			0	38156	0	0	0	30405	29030	157228	26880	1077142	46454	111321	0	0	8109	531710	0	0
2024-08-13 12:36:47			0	38165	0	0	0	30415	29030	157288	26896	1077223	46454	111325	0	0	8109	531370	0	0
2024-08-13 12:37:47			0	38152	0	0	0	30418	29030	157256	26661	1077286	46465	111326	0	0	8108	531861	0	0
2024-08-13 12:38:47			0	38143	0	0	0	30410	29040	157280	26953	1077304	46456	111323	0	0	8108	532171	0	0
2024-08-13 12:39:47			0	38123	0	0	0	30405	29040	157428	27019	1077241	46444	111321	0	0	8107	532928	0	0
2024-08-13 12:40:47			0	38093	0	0	0	30399	29030	157428	26967	1077169	46454	111319	0	0	8105	534095	0	0
2024-08-13 12:41:47			0	38079	0	0	0	30399	29040	157500	26920	1077268	46466	111319	0	0	8104	534595	0	0
2024-08-13 12:42:47			0	38089	0	0	0	30420	29040	157412	26975	1077295	46477	111327	0	0	8105	534216	0	0
2024-08-13 12:43:47			0	38080	0	0	0	30420	29030	157440	26951	1077340	46454	111327	0	0	8104	534588	0	0
2024-08-13 12:44:47			0	38080	0	0	0	30433	29040	157308	26849	1077376	46489	111332	0	0	8104	534557	0	0
2024-08-13 12:45:47			0	38088	0	0	0	30459	29040	157384	27220	1077403	46489	111342	0	0	8104	534254	0	0
2024-08-13 12:46:47			0	38091	0	0	0	30480	29040	157240	27008	1077493	46478	111350	0	0	8104	534140	0	0
2024-08-13 12:47:47			0	38093	0	0	0	30483	29060	157224	26949	1077601	46479	111351	0	0	8104	534002	0	0
2024-08-13 12:48:47			0	38113	0	0	0	30485	29060	157168	27154	1077529	46480	111352	0	0	8105	533245	0	0
2024-08-13 12:49:47			0	38112	0	0	0	30490	29070	157160	26902	1077592	46480	111354	0	0	8105	533252	0	0
2024-08-13 12:50:47			0	38131	0	0	0	30480	29070	157136	26922	1077520	46469	111350	0	0	8106	532532	0	0
2024-08-13 12:51:47			0	38141	0	0	0	30470	29070	157160	26765	1077520	46447	111346	0	0	8107	532154	0	0
2024-08-13 12:52:47			0	38150	0	0	0	30462	29060	157060	26807	1077394	46458	111343	0	0	8107	531844	0	0
2024-08-13 12:53:47			0	38139	0	0	0	30441	29070	157004	26873	1077430	46458	111335	0	0	8107	532229	0	0
2024-08-13 12:54:47			0	38140	0	0	0	30436	29070	156928	27114	1077403	46469	111333	0	0	8107	532192	0	0
2024-08-13 12:55:47			0	38134	0	0	0	30462	29060	157068	26975	1077529	46469	111343	0	0	8107	532450	0	0
2024-08-13 12:56:47			0	38145	0	0	0	30475	29070	157000	26871	1077511	46480	111348	0	0	8107	532002	0	0
2024-08-13 12:57:47			0	38134	0	0	0	30498	29080	157020	26876	1077610	46470	111357	0	0	8106	532388	0	0
2024-08-13 12:58:47			0	38148	0	0	0	30506	29090	156936	26802	1077682	46472	111360	0	0	8107	531827	0	0
2024-08-13 12:59:47			0	38146	0	0	0	30509	29100	156948	26731	1077727	46495	111361	0	0	8107	531872	0	0
2024-08-13 13:00:47			0	38166	0	0	0	30503	29100	156964	26994	1077727	46483	111359	0	0	8108	531116	0	0
2024-08-13 13:01:47			0	38176	0	0	0	30480	29100	156944	26849	1077628	46451	111350	0	0	8109	530739	0	0
2024-08-13 13:02:47			0	38174	0	0	0	30451	29090	156888	26856	1077556	46472	111339	0	0	8109	530845	0	0
2024-08-13 13:03:47			0	38169	0	0	0	30462	29090	156844	27066	1077610	46460	111343	0	0	8109	531034	0	0
2024-08-13 13:04:47			0	38157	0	0	0	30477	29090	156804	26859	1077664	46460	111349	0	0	8108	531487	0	0
2024-08-13 13:05:47			0	38178	0	0	0	30496	29100	156904	27104	1077727	46483	111356	0	0	8109	530663	0	0
2024-08-13 13:06:47			0	38169	0	0	0	30485	29110	156836	26821	1077835	46497	111352	0	0	8108	530972	0	0
2024-08-13 13:07:47			0	38159	0	0	0	30496	29120	156928	26878	1077817	46497	111356	0	0	8108	531319	0	0
2024-08-13 13:08:47			0	38162	0	0	0	30498	29120	156812	26932	1077853	46486	111357	0	0	8108	531206	0	0
2024-08-13 13:09:47			0	38164	0	0	0	30483	29120	156860	26889	1077799	46475	111351	0	0	8108	531130	0	0
2024-08-13 13:10:47			0	38158	0	0	0	30477	29130	156856	26660	1077808	46476	111349	0	0	8108	531326	0	0
2024-08-13 13:11:47			0	38157	0	0	0	30485	29120	156740	26727	1077772	46475	111352	0	0	8108	531395	0	0
2024-08-13 13:12:47			0	38169	0	0	0	30493	29130	156784	27093	1077817	46476	111355	0	0	8108	530911	0	0
2024-08-13 13:13:47			0	38171	0	0	0	30509	29130	156836	26956	1077952	46487	111361	0	0	8108	530835	0	0
2024-08-13 13:14:47			0	38169	0	0	0	30535	29150	156820	26859	1078043	46489	111371	0	0	8108	530849	0	0
2024-08-13 13:15:47			0	38182	0	0	0	30568	29170	156820	27118	1078178	46502	111384	0	0	8108	530296	0	0
2024-08-13 13:16:47			0	38172	0	0	0	30568	29180	156788	26944	1078232	46492	111384	0	0	8108	530643	0	0
2024-08-13 13:17:47			0	38185	0	0	0	30607	29180	156752	26736	1078286	46503	111399	0	0	8108	530152	0	0
2024-08-13 13:18:47			0	38188	0	0	0	30628	29190	156664	26788	1078403	46493	111407	0	0	8107	530008	0	0
2024-08-13 13:19:47			0	38207	0	0	0	30628	29220	156584	26674	1078484	46485	111407	0	0	8109	529200	0	0
2024-08-13 13:20:47			0	38217	0	0	0	30623	29210	156380	26559	1078448	46496	111405	0	0	8109	528854	0	0
2024-08-13 13:21:47			0	38218	0	0	0	30631	29220	156380	26528	1078521	46486	111408	0	0	8109	528786	0	0
2024-08-13 13:22:47			0	38205	0	0	0	30659	29240	156448	26680	1078530	46488	111419	0	0	8108	529214	0	0
2024-08-13 13:23:47			0	38223	0	0	0	30722	29240	156400	26809	1078692	46521	111443	0	0	8108	528536	0	0
2024-08-13 13:24:47			0	38220	0	0	0	30758	29250	156344	26757	1078764	46533	111457	0	0	8107	528618	0	0
2024-08-13 13:25:47			0	38224	0	0	0	30779	29280	156360	27048	1078854	46513	111465	0	0	8107	528375	0	0
2024-08-13 13:26:47			0	38243	0	0	0	30781	29310	156212	26788	1078936	46515	111466	0	0	8109	527568	0	0
2024-08-13 13:27:47			0	38253	0	0	0	30784	29310	156148	26733	1078963	46515	111467	0	0	8109	527193	0	0
2024-08-13 13:28:47			0	38242	0	0	0	30792	29310	156176	26875	1079053	46516	111470	0	0	8108	527606	0	0
2024-08-13 13:29:47			0	38265	0	0	0	30766	29330	155996	26618	1078999	46496	111460	0	0	8110	526680	0	0
2024-08-13 13:30:47			0	38242	0	0	0	30753	29320	156148	26837	1078963	46506	111455	0	0	8109	527575	0	0
2024-08-13 13:31:47			0	38237	0	0	0	30740	29330	155936	26752	1079026	46484	111450	0	0	8109	527733	0	0
2024-08-13 13:32:47			0	38246	0	0	0	30735	29340	156040	26894	1078990	46475	111448	0	0	8110	527364	0	0
2024-08-13 13:33:47			0	38235	0	0	0	30714	29330	156132	26849	1078900	46474	111440	0	0	8109	527808	0	0
2024-08-13 13:34:47			0	38222	0	0	0	30698	29330	156040	26838	1078900	46485	111434	0	0	8109	528297	0	0
2024-08-13 13:35:47			0	38219	0	0	0	30664	29330	156112	26753	1078864	46461	111421	0	0	8109	528410	0	0
2024-08-13 13:36:47			0	38204	0	0	0	30659	29320	156088	26549	1078801	46473	111419	0	0	8108	529005	0	0
2024-08-13 13:37:47			0	38178	0	0	0	30625	29320	156176	26646	1078711	46460	111406	0	0	8108	529985	0	0
2024-08-13 13:38:47			0	38181	0	0	0	30594	29300	156132	26578	1078603	46449	111394	0	0	8108	529934	0	0
2024-08-13 13:39:47			0	38172	0	0	0	30589	29290	156168	26538	1078522	46458	111392	0	0	8108	530304	0	0
2024-08-13 13:40:47			0	38155	0	0	0	30574	29270	156236	26679	1078440	46457	111386	0	0	8107	531007	0	0
2024-08-13 13:41:47			0	38154	0	0	0	30558	29250	156272	26637	1078350	46454	111380	0	0	8107	531107	0	0
2024-08-13 13:42:47			0	38146	0	0	0	30548	29240	156364	26608	1078395	46443	111376	0	0	8107	531440	0	0
2024-08-13 13:43:47			0	38144	0	0	0	30558	29240	156344	26916	1078449	46476	111380	0	0	8106	531515	0	0
2024-08-13 13:44:47			0	38148	0	0	0	30568	29240	156400	26726	1078422	46465	111384	0	0	8106	531364	0	0
2024-08-13 13:45:47			0	38111	0	0	0	30576	29250	156452	26852	1078431	46465	111387	0	0	8104	532732	0	0
2024-08-13 13:46:47			0	38150	0	0	0	30576	29240	156292	26706	1078386	46464	111387	0	0	8106	531289	0	0
2024-08-13 13:47:47			0	38147	0	0	0	30576	29240	156232	26635	1078440	46464	111387	0	0	8106	531402	0	0
2024-08-13 13:48:47			0	38140	0	0	0	30586	29240	156380	26719	1078467	46475	111391	0	0	8106	531667	0	0
2024-08-13 13:49:47			0	38160	0	0	0	30594	29250	156368	27033	1078521	46500	111394	0	0	8107	530880	0	0
2024-08-13 13:50:47			0	38157	0	0	0	30602	29250	156280	26923	1078575	46500	111397	0	0	8106	530993	0	0
2024-08-13 13:51:47			0	38163	0	0	0	30612	29250	156272	27081	1078602	46489	111401	0	0	8107	530767	0	0
2024-08-13 13:52:47			0	38160	0	0	0	30625	29260	156284	26902	1078638	46489	111406	0	0	8106	530849	0	0
2024-08-13 13:53:47			0	38162	0	0	0	30636	29270	156276	26660	1078656	46501	111410	0	0	8106	530743	0	0
2024-08-13 13:54:47			0	38183	0	0	0	30625	29270	156196	26700	1078656	46468	111406	0	0	8108	529951	0	0
2024-08-13 13:55:47			0	38166	0	0	0	30636	29280	156256	26656	1078746	46501	111410	0	0	8106	530561	0	0
2024-08-13 13:56:47			0	38173	0	0	0	30649	29290	156196	26809	1078765	46492	111415	0	0	8107	530266	0	0
2024-08-13 13:57:47			0	38185	0	0	0	30657	29290	156184	26889	1078747	46503	111418	0	0	8107	529814	0	0
2024-08-13 13:58:47			0	38200	0	0	0	30667	29300	156212	27098	1078846	46494	111422	0	0	8108	529218	0	0
2024-08-13 13:59:47			0	38198	0	0	0	30677	29290	156140	26746	1078801	46503	111426	0	0	8108	529324	0	0
2024-08-13 14:00:47			0	38209	0	0	0	30667	29300	156124	26821	1078810	46503	111422	0	0	8109	528879	0	0
2024-08-13 14:01:47			0	38224	0	0	0	30680	29310	156208	26791	1078828	46494	111427	0	0	8109	528283	0	0
2024-08-13 14:02:47			0	38211	0	0	0	30685	29310	156148	26876	1078918	46495	111429	0	0	8108	528773	0	0
2024-08-13 14:03:47			0	38216	0	0	0	30714	29310	156024	26857	1078999	46505	111440	0	0	8108	528584	0	0
2024-08-13 14:04:47			0	38204	0	0	0	30740	29330	156048	26849	1079143	46507	111450	0	0	8107	528975	0	0
2024-08-13 14:05:47			0	38207	0	0	0	30729	29340	156124	27150	1079080	46508	111446	0	0	8108	528831	0	0
2024-08-13 14:06:47			0	38218	0	0	0	30737	29360	156056	27053	1079161	46500	111449	0	0	8108	528356	0	0
2024-08-13 14:07:47			0	38224	0	0	0	30761	29370	156108	26946	1079287	46500	111458	0	0	8108	528099	0	0
2024-08-13 14:08:47			0	38236	0	0	0	30784	29380	156012	27069	1079315	46501	111467	0	0	8108	527617	0	0
2024-08-13 14:09:47			0	38239	0	0	0	30805	29380	156100	27123	1079342	46501	111475	0	0	8108	527504	0	0
2024-08-13 14:10:47			0	38244	0	0	0	30805	29390	155928	26724	1079414	46502	111475	0	0	8109	527285	0	0
2024-08-13 14:11:47			0	38258	0	0	0	30797	29390	155844	27145	1079405	46502	111472	0	0	8110	526759	0	0
2024-08-13 14:12:47			0	38258	0	0	0	30789	29400	155848	27112	1079369	46492	111469	0	0	8110	526729	0	0
2024-08-13 14:13:47			0	38264	0	0	0	30776	29400	155736	26944	1079396	46481	111464	0	0	8110	526503	0	0
2024-08-13 14:14:47			0	38251	0	0	0	30779	29400	155800	26904	1079405	46493	111465	0	0	8109	526992	0	0
2024-08-13 14:15:47			0	38262	0	0	0	30794	29400	155812	26824	1079432	46504	111471	0	0	8110	526579	0	0
2024-08-13 14:16:47			0	38262	0	0	0	30799	29410	155760	26890	1079468	46504	111473	0	0	8110	526548	0	0
2024-08-13 14:17:47			0	38250	0	0	0	30810	29410	155740	26977	1079504	46504	111477	0	0	8109	526999	0	0
2024-08-13 14:18:47			0	38244	0	0	0	30812	29410	155856	26987	1079558	46504	111478	0	0	8109	527224	0	0
2024-08-13 14:19:47			0	38240	0	0	0	30810	29430	155876	26942	1079595	46517	111477	0	0	8108	527313	0	0
2024-08-13 14:20:47			0	38260	0	0	0	30786	29430	155788	26849	1079504	46495	111468	0	0	8110	526562	0	0
2024-08-13 14:21:47			0	38244	0	0	0	30794	29430	155748	26892	1079514	46495	111471	0	0	8109	527163	0	0
2024-08-13 14:22:47			0	38256	0	0	0	30786	29430	155836	26826	1079514	46495	111468	0	0	8110	526712	0	0
2024-08-13 14:23:47			0	38244	0	0	0	30784	29430	155740	27140	1079514	46484	111467	0	0	8109	527163	0	0
2024-08-13 14:24:47			0	38240	0	0	0	30792	29430	155732	27031	1079541	46484	111470	0	0	8109	527313	0	0
2024-08-13 14:25:47			0	38257	0	0	0	30792	29430	155812	27140	1079514	46495	111470	0	0	8110	526675	0	0
2024-08-13 14:26:47			0	38249	0	0	0	30779	29430	155808	26944	1079487	46495	111465	0	0	8110	526975	0	0
2024-08-13 14:27:47			0	38244	0	0	0	30781	29430	155728	26805	1079514	46495	111466	0	0	8109	527163	0	0
2024-08-13 14:28:47			0	38251	0	0	0	30781	29440	155712	26939	1079496	46485	111466	0	0	8110	526869	0	0
2024-08-13 14:29:47			0	38246	0	0	0	30776	29430	155728	26708	1079487	46495	111464	0	0	8109	527088	0	0
2024-08-13 14:30:47			0	38254	0	0	0	30802	29430	155736	26765	1079514	46495	111474	0	0	8109	526787	0	0
2024-08-13 14:31:47			0	38256	0	0	0	30825	29450	155732	26871	1079703	46519	111483	0	0	8109	526651	0	0
2024-08-13 14:32:47			0	38266	0	0	0	30820	29460	155628	27012	1079784	46521	111481	0	0	8110	526245	0	0
2024-08-13 14:33:47			0	38248	0	0	0	30810	29470	155652	26726	1079739	46511	111477	0	0	8109	526890	0	0
2024-08-13 14:34:47			0	38255	0	0	0	30802	29470	155512	26934	1079667	46500	111474	0	0	8110	526627	0	0
2024-08-13 14:35:47			0	38264	0	0	0	30794	29460	155588	26906	1079640	46498	111471	0	0	8110	526320	0	0
2024-08-13 14:36:47			0	38262	0	0	0	30807	29460	155548	27041	1079640	46498	111476	0	0	8110	526395	0	0
2024-08-13 14:37:47			0	38270	0	0	0	30818	29450	155496	26743	1079712	46497	111480	0	0	8110	526125	0	0
2024-08-13 14:38:47			0	38275	0	0	0	30844	29460	155520	26944	1079775	46475	111490	0	0	8110	525907	0	0
2024-08-13 14:39:47			0	38288	0	0	0	30849	29480	155520	27001	1079757	46500	111492	0	0	8111	525358	0	0
2024-08-13 14:40:47			0	38295	0	0	0	30867	29470	155464	26852	1079802	46511	111499	0	0	8111	525127	0	0
2024-08-13 14:41:47			0	38298	0	0	0	30872	29490	155492	26748	1079884	46501	111501	0	0	8111	524953	0	0
2024-08-13 14:42:47			0	38289	0	0	0	30890	29490	155392	27007	1079947	46513	111508	0	0	8110	525290	0	0
2024-08-13 14:43:47			0	38291	0	0	0	30890	29500	155372	26705	1080037	46524	111508	0	0	8110	525185	0	0
2024-08-13 14:44:47			0	38314	0	0	0	30898	29500	155208	26939	1080118	46513	111511	0	0	8112	524323	0	0
2024-08-13 14:45:47			0	38318	0	0	0	30906	29510	155276	27059	1080028	46515	111514	0	0	8112	524143	0	0
2024-08-13 14:46:47			0	38325	0	0	0	30914	29530	155144	27180	1080119	46517	111517	0	0	8112	523820	0	0
2024-08-13 14:47:47			0	38327	0	0	0	30932	29530	155104	27026	1080146	46505	111524	0	0	8112	523745	0	0
2024-08-13 14:48:47			0	38327	0	0	0	30937	29550	155040	26870	1080209	46530	111526	0	0	8112	523684	0	0
2024-08-13 14:49:47			0	38322	0	0	0	30950	29540	155060	27289	1080164	46506	111531	0	0	8111	523902	0	0
2024-08-13 14:50:47			0	38340	0	0	0	30958	29550	155152	26956	1080254	46506	111534	0	0	8112	523198	0	0
2024-08-13 14:51:47			0	38331	0	0	0	30958	29560	155136	27388	1080299	46498	111534	0	0	8112	523504	0	0
2024-08-13 14:52:47			0	38344	0	0	0	30950	29550	155040	26670	1080236	46507	111531	0	0	8113	523048	0	0
2024-08-13 14:53:47			0	38334	0	0	0	30953	29560	155028	27216	1080308	46508	111532	0	0	8112	523392	0	0
2024-08-13 14:54:47			0	38346	0	0	0	30950	29560	154996	26920	1080245	46508	111531	0	0	8113	522943	0	0
2024-08-13 14:55:47			0	38341	0	0	0	30958	29570	155028	26974	1080272	46509	111534	0	0	8112	523100	0	0
2024-08-13 14:56:47			0	38345	0	0	0	30953	29560	154836	27062	1080227	46498	111532	0	0	8113	522980	0	0
2024-08-13 14:57:47			0	38363	0	0	0	30966	29560	154840	26821	1080308	46498	111537	0	0	8113	522308	0	0
2024-08-13 14:58:47			0	38338	0	0	0	30953	29570	154820	27310	1080245	46499	111532	0	0	8112	523212	0	0
2024-08-13 14:59:47			0	38349	0	0	0	30955	29570	154872	26942	1080245	46509	111533	0	0	8113	522801	0	0
2024-08-13 15:00:47			0	38377	0	0	0	30945	29570	154796	27114	1080209	46508	111529	0	0	8115	521755	0	0
2024-08-13 15:01:47			0	38350	0	0	0	30942	29560	154832	27026	1080137	46498	111528	0	0	8113	522794	0	0
2024-08-13 15:02:47			0	38361	0	0	0	30916	29550	154844	26812	1080065	46484	111518	0	0	8114	522413	0	0
2024-08-13 15:03:47			0	38371	0	0	0	30903	29550	154796	26961	1080101	46497	111513	0	0	8115	522040	0	0
2024-08-13 15:04:47			0	38366	0	0	0	30901	29550	154752	26975	1080092	46496	111512	0	0	8115	522226	0	0
2024-08-13 15:05:47			0	38374	0	0	0	30906	29540	154812	26882	1080056	46506	111514	0	0	8115	521958	0	0
2024-08-13 15:06:47			0	38366	0	0	0	30903	29530	154844	27022	1080037	46495	111513	0	0	8115	522287	0	0
2024-08-13 15:07:47			0	38372	0	0	0	30909	29530	154884	27242	1079966	46518	111515	0	0	8115	522063	0	0
2024-08-13 15:08:47			0	38355	0	0	0	30911	29540	154820	26731	1080029	46506	111516	0	0	8114	522668	0	0
2024-08-13 15:09:47			0	38376	0	0	0	30937	29530	154808	26783	1080209	46506	111526	0	0	8115	521914	0	0
2024-08-13 15:10:47			0	38371	0	0	0	30979	29560	154796	27260	1080326	46541	111542	0	0	8114	522009	0	0
2024-08-13 15:11:47			0	38384	0	0	0	30973	29560	154808	26680	1080416	46541	111540	0	0	8115	521524	0	0
2024-08-13 15:12:47			0	38393	0	0	0	30984	29570	154716	27246	1080407	46521	111544	0	0	8115	521158	0	0
2024-08-13 15:13:47			0	38390	0	0	0	30997	29580	154664	26894	1080425	46510	111549	0	0	8115	521239	0	0
2024-08-13 15:14:47			0	38405	0	0	0	31012	29580	154732	27031	1080389	46543	111555	0	0	8115	520680	0	0
2024-08-13 15:15:47			0	38395	0	0	0	31028	29600	154648	27067	1080570	46525	111561	0	0	8114	520992	0	0
2024-08-13 15:16:47			0	38413	0	0	0	31041	29610	154564	26987	1080615	46525	111566	0	0	8115	520291	0	0
2024-08-13 15:17:47			0	38405	0	0	0	31036	29620	154532	27187	1080606	46538	111564	0	0	8115	520559	0	0
2024-08-13 15:18:47			0	38447	0	0	0	31025	29620	154448	26920	1080606	46515	111560	0	0	8118	518995	0	0
2024-08-13 15:19:47			0	38424	0	0	0	31031	29630	154544	27055	1080669	46515	111562	0	0	8116	519821	0	0
2024-08-13 15:20:47			0	38428	0	0	0	31028	29630	154452	26918	1080597	46527	111561	0	0	8116	519672	0	0
2024-08-13 15:21:47			0	38432	0	0	0	31031	29640	154496	26667	1080633	46528	111562	0	0	8117	519493	0	0
2024-08-13 15:22:47			0	38436	0	0	0	31028	29630	154420	26970	1080651	46527	111561	0	0	8117	519374	0	0
2024-08-13 15:23:47			0	38433	0	0	0	31036	29640	154432	27104	1080606	46528	111564	0	0	8117	519456	0	0
2024-08-13 15:24:47			0	38425	0	0	0	31028	29640	154412	26831	1080660	46528	111561	0	0	8116	519753	0	0
2024-08-13 15:25:47			0	38435	0	0	0	31023	29650	154404	26864	1080679	46529	111559	0	0	8117	519351	0	0
2024-08-13 15:26:47			0	38442	0	0	0	31059	29650	154416	26927	1080733	46529	111573	0	0	8117	519090	0	0
2024-08-13 15:27:47			0	38441	0	0	0	31077	29650	154404	26769	1080796	46550	111580	0	0	8116	519127	0	0
2024-08-13 15:28:47			0	38455	0	0	0	31096	29670	154368	27062	1080877	46553	111587	0	0	8117	518546	0	0
2024-08-13 15:29:47			0	38450	0	0	0	31111	29670	154312	27013	1080913	46542	111593	0	0	8116	518732	0	0
2024-08-13 15:30:47			0	38452	0	0	0	31114	29680	154316	27131	1081003	46553	111594	0	0	8117	518628	0	0
2024-08-13 15:31:47			0	38467	0	0	0	31114	29700	154192	26790	1080985	46522	111594	0	0	8118	518010	0	0
2024-08-13 15:32:47			0	38458	0	0	0	31101	29700	154188	26974	1081012	46522	111589	0	0	8117	518344	0	0
2024-08-13 15:33:47			0	38469	0	0	0	31096	29700	154196	26736	1081021	46535	111587	0	0	8118	517936	0	0
2024-08-13 15:34:47			0	38473	0	0	0	31085	29700	154092	26953	1081012	46533	111583	0	0	8118	517787	0	0
2024-08-13 15:35:47			0	38488	0	0	0	31072	29700	154172	27017	1081039	46511	111578	0	0	8119	517230	0	0
2024-08-13 15:36:47			0	38488	0	0	0	31075	29700	154180	26746	1080931	46511	111579	0	0	8119	517230	0	0
2024-08-13 15:37:47			0	38494	0	0	0	31070	29700	154128	27093	1080904	46522	111577	0	0	8120	517008	0	0
2024-08-13 15:38:47			0	38478	0	0	0	31072	29700	154200	26968	1080985	46522	111578	0	0	8119	517601	0	0
2024-08-13 15:39:47			0	38480	0	0	0	31057	29700	154108	27012	1080985	46511	111572	0	0	8119	517527	0	0
2024-08-13 15:40:47			0	38477	0	0	0	31067	29690	154156	27175	1080922	46511	111576	0	0	8119	517669	0	0
2024-08-13 15:41:47			0	38476	0	0	0	31067	29690	154068	27013	1080895	46522	111576	0	0	8119	517706	0	0
2024-08-13 15:42:47			0	38470	0	0	0	31054	29700	154156	27043	1080931	46511	111571	0	0	8119	517898	0	0
2024-08-13 15:43:47			0	38471	0	0	0	31038	29700	154092	26717	1080904	46522	111565	0	0	8119	517861	0	0
2024-08-13 15:44:47			0	38495	0	0	0	31025	29690	154072	26844	1080841	46511	111560	0	0	8121	517001	0	0
2024-08-13 15:45:47			0	38490	0	0	0	31036	29680	153960	26630	1080823	46510	111564	0	0	8120	517216	0	0
2024-08-13 15:46:47			0	38491	0	0	0	31038	29680	154020	27001	1080895	46509	111565	0	0	8120	517179	0	0
2024-08-13 15:47:47			0	38499	0	0	0	31036	29690	153980	26838	1080832	46522	111564	0	0	8121	516852	0	0
2024-08-13 15:48:47			0	38490	0	0	0	31015	29680	154036	26948	1080823	46510	111556	0	0	8120	517216	0	0
2024-08-13 15:49:47			0	38505	0	0	0	31005	29680	154068	27107	1080760	46498	111552	0	0	8121	516660	0	0
2024-08-13 15:50:47			0	38497	0	0	0	31015	29670	153932	27123	1080778	46509	111556	0	0	8121	516987	0	0
2024-08-13 15:51:47			0	38499	0	0	0	31041	29670	153980	27241	1080832	46531	111566	0	0	8120	516912	0	0
2024-08-13 15:52:47			0	38513	0	0	0	31057	29680	154048	27150	1080904	46554	111572	0	0	8121	516363	0	0
2024-08-13 15:53:47			0	38508	0	0	0	31057	29690	153952	27031	1080913	46544	111572	0	0	8121	516518	0	0
2024-08-13 15:54:47			0	38501	0	0	0	31051	29690	153848	27145	1080913	46533	111570	0	0	8120	516778	0	0
2024-08-13 15:55:47			0	38539	0	0	0	31036	29690	153816	27088	1080832	46522	111564	0	0	8123	515370	0	0
2024-08-13 15:56:47			0	38521	0	0	0	31041	29690	153732	26923	1080895	46533	111566	0	0	8122	516036	0	0
2024-08-13 15:57:47			0	38539	0	0	0	31038	29680	153728	27046	1080769	46510	111565	0	0	8123	515399	0	0
2024-08-13 15:58:47			0	38535	0	0	0	31046	29670	153744	27015	1080805	46509	111568	0	0	8122	515578	0	0
2024-08-13 15:59:47			0	38546	0	0	0	31036	29680	153844	26908	1080877	46521	111564	0	0	8123	515140	0	0
2024-08-13 16:00:47			0	38542	0	0	0	31041	29680	153756	27026	1080895	46498	111566	0	0	8123	515288	0	0
2024-08-13 16:01:47			0	38560	0	0	0	31041	29680	153720	27144	1080841	46531	111566	0	0	8124	514622	0	0
2024-08-13 16:02:47			0	38560	0	0	0	31038	29670	153708	27045	1080805	46520	111565	0	0	8124	514652	0	0
2024-08-13 16:03:47			0	38548	0	0	0	31023	29670	153812	27289	1080769	46509	111559	0	0	8124	515096	0	0
2024-08-13 16:04:47			0	38558	0	0	0	31018	29680	153800	27274	1080814	46509	111557	0	0	8124	514696	0	0
2024-08-13 16:05:47			0	38559	0	0	0	31023	29670	153736	26871	1080796	46520	111559	0	0	8124	514689	0	0
2024-08-13 16:06:47			0	38563	0	0	0	31025	29660	153700	27005	1080787	46508	111560	0	0	8124	514571	0	0
2024-08-13 16:07:47			0	38574	0	0	0	31041	29680	153708	26830	1080868	46509	111566	0	0	8125	514104	0	0
2024-08-13 16:08:47			0	38571	0	0	0	31072	29690	153688	27026	1081021	46544	111578	0	0	8124	514185	0	0
2024-08-13 16:09:47			0	38578	0	0	0	31070	29680	153684	27173	1080931	46532	111577	0	0	8124	513956	0	0
2024-08-13 16:10:47			0	38575	0	0	0	31075	29690	153712	27111	1081003	46511	111579	0	0	8124	514037	0	0
2024-08-13 16:11:47			0	38571	0	0	0	31106	29700	153644	26993	1081093	46533	111591	0	0	8124	514155	0	0
2024-08-13 16:12:47			0	38600	0	0	0	31103	29700	153644	27029	1081102	46545	111590	0	0	8125	513084	0	0
2024-08-13 16:13:47			0	38589	0	0	0	31106	29710	153572	27196	1081030	46536	111591	0	0	8125	513460	0	0
2024-08-13 16:14:47			0	38598	0	0	0	31114	29710	153608	27175	1081067	46536	111594	0	0	8125	513128	0	0
2024-08-13 16:15:47			0	38601	0	0	0	31109	29720	153516	27176	1081103	46524	111592	0	0	8125	512987	0	0
2024-08-13 16:16:47			0	38602	0	0	0	31101	29710	153520	26861	1081085	46524	111589	0	0	8125	512980	0	0
2024-08-13 16:17:47			0	38618	0	0	0	31103	29710	153440	26644	1081094	46513	111590	0	0	8126	512389	0	0
2024-08-13 16:18:47			0	38606	0	0	0	31114	29710	153464	27253	1081148	46546	111594	0	0	8125	512832	0	0
2024-08-13 16:19:47			0	38612	0	0	0	31116	29720	153444	26949	1081157	46524	111595	0	0	8126	512581	0	0
2024-08-13 16:20:47			0	38611	0	0	0	31109	29710	153428	27272	1081148	46536	111592	0	0	8126	512647	0	0
2024-08-13 16:21:47			0	38617	0	0	0	31101	29730	153444	27050	1081175	46526	111589	0	0	8126	512366	0	0
2024-08-13 16:22:47			0	38619	0	0	0	31096	29710	153468	26934	1081094	46524	111587	0	0	8127	512352	0	0
2024-08-13 16:23:47			0	38612	0	0	0	31093	29720	153428	26887	1081112	46537	111586	0	0	8126	512581	0	0
2024-08-13 16:24:47			0	38627	0	0	0	31085	29720	153408	26953	1081130	46536	111583	0	0	8127	512027	0	0
2024-08-13 16:25:47			0	38594	0	0	0	31090	29730	153424	27171	1081148	46526	111585	0	0	8125	513215	0	0
2024-08-13 16:26:47			0	38609	0	0	0	31077	29730	153368	26717	1081094	46526	111580	0	0	8126	512662	0	0
2024-08-13 16:27:47			0	38607	0	0	0	31067	29730	153416	27013	1081013	46515	111576	0	0	8126	512736	0	0
2024-08-13 16:28:47			0	38613	0	0	0	31070	29720	153484	27013	1080968	46524	111577	0	0	8127	512544	0	0
2024-08-13 16:29:47			0	38616	0	0	0	31080	29710	153400	26902	1081013	46536	111581	0	0	8127	512463	0	0
2024-08-13 16:30:47			0	38615	0	0	0	31090	29720	153420	27171	1081076	46536	111585	0	0	8126	512470	0	0
2024-08-13 16:31:47			0	38601	0	0	0	31093	29720	153372	27211	1081166	46537	111586	0	0	8126	512987	0	0
2024-08-13 16:32:47			0	38601	0	0	0	31088	29730	153368	26974	1081121	46548	111584	0	0	8126	512957	0	0
2024-08-13 16:33:47			0	38604	0	0	0	31067	29720	153408	27045	1081049	46524	111576	0	0	8126	512876	0	0
2024-08-13 16:34:47			0	38611	0	0	0	31057	29720	153432	27015	1081004	46514	111572	0	0	8127	512618	0	0
2024-08-13 16:35:47			0	38609	0	0	0	31057	29710	153340	26793	1080976	46524	111572	0	0	8127	512721	0	0
2024-08-13 16:36:47			0	38624	0	0	0	31041	29710	153488	27069	1080976	46524	111566	0	0	8128	512168	0	0
2024-08-13 16:37:47			0	38608	0	0	0	31033	29700	153444	26795	1080967	46512	111563	0	0	8127	512788	0	0
2024-08-13 16:38:47			0	38595	0	0	0	31046	29700	153364	26814	1080940	46523	111568	0	0	8126	513268	0	0
2024-08-13 16:39:47			0	38594	0	0	0	31046	29710	153380	27109	1080976	46536	111568	0	0	8126	513275	0	0
2024-08-13 16:40:47			0	38609	0	0	0	31044	29690	153352	26741	1080949	46522	111567	0	0	8127	512781	0	0
2024-08-13 16:41:47			0	38609	0	0	0	31049	29700	153460	26616	1080913	46523	111569	0	0	8127	512751	0	0
2024-08-13 16:42:47			0	38599	0	0	0	31044	29700	153424	26967	1080931	46522	111567	0	0	8126	513121	0	0
2024-08-13 16:43:47			0	38602	0	0	0	31054	29700	153408	26972	1080931	46522	111571	0	0	8126	513010	0	0
2024-08-13 16:44:47			0	38595	0	0	0	31064	29700	153456	26963	1080985	46522	111575	0	0	8126	513268	0	0
2024-08-13 16:45:47			0	38603	0	0	0	31077	29700	153432	26790	1081102	46556	111580	0	0	8126	512973	0	0
2024-08-13 16:46:47			0	38599	0	0	0	31090	29720	153528	26967	1081211	46569	111585	0	0	8126	513061	0	0
2024-08-13 16:47:47			0	38606	0	0	0	31088	29730	153392	26828	1081229	46537	111584	0	0	8126	512772	0	0
2024-08-13 16:48:47			0	38627	0	0	0	31106	29730	153348	26831	1081292	46571	111591	0	0	8127	511998	0	0
2024-08-13 16:49:47			0	38615	0	0	0	31132	29740	153304	27255	1081391	46572	111601	0	0	8126	512410	0	0
2024-08-13 16:50:47			0	38617	0	0	0	31140	29760	153260	26779	1081508	46551	111604	0	0	8126	512277	0	0
2024-08-13 16:51:47			0	38631	0	0	0	31119	29760	153364	26663	1081427	46540	111596	0	0	8127	511761	0	0
2024-08-13 16:52:47			0	38630	0	0	0	31106	29770	153220	27007	1081365	46541	111591	0	0	8127	511767	0	0
2024-08-13 16:53:47			0	38624	0	0	0	31093	29760	153224	26901	1081346	46518	111586	0	0	8127	512019	0	0
2024-08-13 16:54:47			0	38650	0	0	0	31098	29770	153316	27093	1081329	46519	111588	0	0	8129	511030	0	0
2024-08-13 16:55:47			0	38651	0	0	0	31098	29760	153260	27109	1081229	46518	111588	0	0	8129	511023	0	0
2024-08-13 16:56:47			0	38614	0	0	0	31096	29760	153356	27092	1081283	46518	111587	0	0	8126	512388	0	0
2024-08-13 16:57:47			0	38632	0	0	0	31096	29760	153252	26930	1081337	46540	111587	0	0	8127	511724	0	0
2024-08-13 16:58:47			0	38630	0	0	0	31085	29760	153336	27067	1081292	46529	111583	0	0	8128	511797	0	0
2024-08-13 16:59:47			0	38622	0	0	0	31075	29760	153436	26863	1081319	46529	111579	0	0	8127	512092	0	0
2024-08-13 17:00:47			0	38626	0	0	0	31070	29760	153284	26852	1081310	46529	111577	0	0	8128	511945	0	0
2024-08-13 17:01:47			0	38639	0	0	0	31059	29760	153312	26944	1081283	46518	111573	0	0	8128	511466	0	0
2024-08-13 17:02:47			0	38608	0	0	0	31038	29760	153344	26622	1081265	46518	111565	0	0	8127	512609	0	0
2024-08-13 17:03:47			0	38632	0	0	0	31005	29760	153212	27052	1081148	46506	111552	0	0	8129	511724	0	0
2024-08-13 17:04:47			0	38613	0	0	0	30966	29730	153360	26814	1080914	46470	111537	0	0	8128	512514	0	0
2024-08-13 17:05:47			0	38605	0	0	0	30937	29710	153368	26767	1080706	46468	111526	0	0	8128	512869	0	0
2024-08-13 17:06:47			0	38611	0	0	0	30929	29690	153456	27128	1080598	46477	111523	0	0	8129	512707	0	0
2024-08-13 17:07:47			0	38593	0	0	0	30901	29670	153412	27144	1080535	46475	111512	0	0	8128	513432	0	0
2024-08-13 17:08:47			0	38601	0	0	0	30898	29660	153480	26996	1080517	46486	111511	0	0	8129	513166	0	0
2024-08-13 17:09:47			0	38580	0	0	0	30890	29650	153432	27156	1080571	46506	111508	0	0	8128	513972	0	0
2024-08-13 17:10:47			0	38582	0	0	0	30890	29650	153544	26982	1080516	46506	111508	0	0	8128	513898	0	0
2024-08-13 17:11:47			0	38576	0	0	0	30896	29630	153532	26909	1080489	46493	111510	0	0	8127	514180	0	0
2024-08-13 17:12:47			0	38549	0	0	0	30909	29630	153484	26750	1080543	46504	111515	0	0	8125	515179	0	0
2024-08-13 17:13:47			0	38559	0	0	0	30950	29630	153688	26837	1080561	46515	111531	0	0	8125	514809	0	0
2024-08-13 17:14:47			0	38552	0	0	0	30976	29640	153584	26698	1080660	46516	111541	0	0	8124	515038	0	0
2024-08-13 17:15:47			0	38563	0	0	0	31005	29650	153696	26876	1080814	46529	111552	0	0	8125	514601	0	0
2024-08-13 17:16:47			0	38549	0	0	0	31002	29660	153608	26708	1080778	46529	111551	0	0	8124	515089	0	0
2024-08-13 17:17:47			0	38536	0	0	0	30984	29660	153656	26989	1080751	46518	111544	0	0	8123	515571	0	0
2024-08-13 17:18:47			0	38568	0	0	0	30989	29650	153604	27000	1080787	46506	111546	0	0	8125	514416	0	0
2024-08-13 17:19:47			0	38564	0	0	0	30973	29650	153680	27041	1080634	46506	111540	0	0	8125	514564	0	0
2024-08-13 17:20:47			0	38577	0	0	0	30955	29640	153544	26871	1080615	46517	111533	0	0	8126	514113	0	0
2024-08-13 17:21:47			0	38577	0	0	0	30945	29620	153512	27289	1080552	46504	111529	0	0	8126	514173	0	0
2024-08-13 17:22:47			0	38570	0	0	0	30942	29630	153600	26838	1080516	46504	111528	0	0	8126	514402	0	0
2024-08-13 17:23:47			0	38565	0	0	0	30940	29620	153512	27041	1080444	46493	111527	0	0	8126	514617	0	0
2024-08-13 17:24:47			0	38564	0	0	0	30937	29610	153616	26958	1080534	46513	111526	0	0	8126	514684	0	0
2024-08-13 17:25:47			0	38542	0	0	0	30932	29620	153640	26908	1080489	46514	111524	0	0	8124	515469	0	0
2024-08-13 17:26:47			0	38551	0	0	0	30948	29620	153640	26882	1080552	46504	111530	0	0	8125	515135	0	0
2024-08-13 17:27:47			0	38539	0	0	0	30973	29610	153684	26941	1080615	46536	111540	0	0	8124	515610	0	0
2024-08-13 17:28:47			0	38527	0	0	0	30997	29630	153588	26786	1080696	46538	111549	0	0	8123	515994	0	0
2024-08-13 17:29:47			0	38522	0	0	0	31025	29640	153724	27149	1080822	46539	111560	0	0	8122	516150	0	0
2024-08-13 17:30:47			0	38525	0	0	0	31062	29660	153716	26948	1080886	46541	111574	0	0	8122	515978	0	0
2024-08-13 17:31:47			0	38527	0	0	0	31075	29670	153768	26918	1081093	46553	111579	0	0	8121	515874	0	0
2024-08-13 17:32:47			0	38525	0	0	0	31103	29690	153648	26672	1081183	46555	111590	0	0	8121	515888	0	0
2024-08-13 17:33:47			0	38528	0	0	0	31088	29710	153664	26930	1081220	46557	111584	0	0	8121	515717	0	0
2024-08-13 17:34:47			0	38527	0	0	0	31096	29710	153672	27033	1081139	46546	111587	0	0	8121	515754	0	0
2024-08-13 17:35:47			0	38530	0	0	0	31106	29720	153532	26706	1081247	46547	111591	0	0	8121	515613	0	0
2024-08-13 17:36:47			0	38557	0	0	0	31124	29730	153608	27133	1081202	46537	111598	0	0	8123	514583	0	0
2024-08-13 17:37:47			0	38556	0	0	0	31129	29730	153532	26807	1081310	46526	111600	0	0	8122	514620	0	0
2024-08-13 17:38:47			0	38570	0	0	0	31132	29730	153512	26864	1081292	46537	111601	0	0	8123	514102	0	0
2024-08-13 17:39:47			0	38556	0	0	0	31132	29730	153604	27003	1081283	46515	111601	0	0	8122	514620	0	0
2024-08-13 17:40:47			0	38542	0	0	0	31142	29740	153536	26866	1081364	46527	111605	0	0	8121	515108	0	0
2024-08-13 17:41:47			0	38547	0	0	0	31155	29740	153468	26873	1081364	46549	111610	0	0	8122	514923	0	0
2024-08-13 17:42:47			0	38548	0	0	0	31166	29750	153600	27012	1081409	46540	111614	0	0	8121	514856	0	0
2024-08-13 17:43:47			0	38539	0	0	0	31176	29760	153524	27069	1081536	46551	111618	0	0	8121	515159	0	0
2024-08-13 17:44:47			0	38550	0	0	0	31173	29760	153520	26807	1081526	46540	111617	0	0	8122	514752	0	0
2024-08-13 17:45:47			0	38528	0	0	0	31181	29770	153560	26984	1081491	46541	111620	0	0	8120	515537	0	0
2024-08-13 17:46:47			0	38558	0	0	0	31184	29780	153408	26918	1081536	46553	111621	0	0	8122	514396	0	0
2024-08-13 17:47:47			0	38517	0	0	0	31186	29770	153520	27059	1081581	46520	111622	0	0	8119	515944	0	0
2024-08-13 17:48:47			0	38545	0	0	0	31192	29790	153404	26622	1081554	46565	111624	0	0	8121	514847	0	0
2024-08-13 17:49:47			0	38540	0	0	0	31192	29800	153444	26849	1081608	46567	111624	0	0	8121	515002	0	0
2024-08-13 17:50:47			0	38538	0	0	0	31189	29790	153476	26927	1081644	46555	111623	0	0	8121	515106	0	0
2024-08-13 17:51:47			0	38536	0	0	0	31192	29790	153460	26984	1081617	46533	111624	0	0	8121	515180	0	0
2024-08-13 17:52:47			0	38530	0	0	0	31186	29790	153452	26989	1081725	46544	111622	0	0	8120	515403	0	0
2024-08-13 17:53:47			0	38536	0	0	0	31202	29800	153480	26816	1081653	46533	111628	0	0	8120	515150	0	0
2024-08-13 17:54:47			0	38528	0	0	0	31212	29810	153480	26677	1081708	46535	111632	0	0	8120	515416	0	0
2024-08-13 17:55:47			0	38542	0	0	0	31212	29810	153492	27138	1081735	46545	111632	0	0	8121	514898	0	0
2024-08-13 17:56:47			0	38525	0	0	0	31225	29810	153444	27116	1081726	46544	111637	0	0	8119	515528	0	0
2024-08-13 17:57:47			0	38543	0	0	0	31244	29820	153424	26717	1081852	46557	111644	0	0	8120	514831	0	0
2024-08-13 17:58:47			0	38545	0	0	0	31238	29820	153376	26928	1081780	46546	111642	0	0	8120	514757	0	0
2024-08-13 17:59:47			0	38543	0	0	0	31236	29830	153424	26915	1081852	46537	111641	0	0	8120	514801	0	0
2024-08-13 18:00:47			0	38533	0	0	0	31238	29830	153328	27024	1081843	46536	111642	0	0	8120	515171	0	0
2024-08-13 18:01:47			0	38519	0	0	0	31251	29840	153304	26961	1081942	46548	111647	0	0	8119	515659	0	0
2024-08-13 18:02:47			0	38529	0	0	0	31272	29850	153288	27171	1081951	46560	111655	0	0	8119	515259	0	0
2024-08-13 18:03:47			0	38535	0	0	0	31275	29850	153304	26861	1081987	46561	111656	0	0	8119	515037	0	0
2024-08-13 18:04:47			0	38544	0	0	0	31277	29870	153200	26779	1082078	46551	111657	0	0	8120	514644	0	0
2024-08-13 18:05:47			0	38537	0	0	0	31272	29870	153204	26757	1082069	46550	111655	0	0	8120	514903	0	0
2024-08-13 18:06:47			0	38567	0	0	0	31267	29870	153048	27027	1082024	46551	111653	0	0	8121	513794	0	0
2024-08-13 18:07:47			0	38546	0	0	0	31246	29870	153076	27027	1082051	46563	111645	0	0	8121	514570	0	0
2024-08-13 18:08:47			0	38556	0	0	0	31264	29870	153124	27027	1082024	46563	111652	0	0	8121	514200	0	0
2024-08-13 18:09:47			0	38566	0	0	0	31257	29880	153136	27015	1082087	46541	111649	0	0	8122	513801	0	0
2024-08-13 18:10:47			0	38552	0	0	0	31267	29860	153176	26755	1082060	46540	111653	0	0	8120	514378	0	0
2024-08-13 18:11:47			0	38550	0	0	0	31275	29880	153212	26901	1082042	46541	111656	0	0	8120	514392	0	0
2024-08-13 18:12:47			0	38571	0	0	0	31272	29870	153184	26713	1082078	46563	111655	0	0	8122	513646	0	0
2024-08-13 18:13:47			0	38567	0	0	0	31280	29880	153192	27039	1082096	46552	111658	0	0	8121	513764	0	0
2024-08-13 18:14:47			0	38553	0	0	0	31283	29880	153148	26892	1082069	46575	111659	0	0	8120	514281	0	0
2024-08-13 18:15:47			0	38562	0	0	0	31280	29880	153120	26920	1082042	46541	111658	0	0	8121	513949	0	0
2024-08-13 18:16:47			0	38562	0	0	0	31285	29890	153212	27133	1082132	46541	111660	0	0	8121	513919	0	0
2024-08-13 18:17:47			0	38556	0	0	0	31283	29890	153076	27027	1082087	46565	111659	0	0	8121	514141	0	0
2024-08-13 18:18:47			0	38574	0	0	0	31270	29890	153080	26915	1082078	46541	111654	0	0	8122	513475	0	0
2024-08-13 18:19:47			0	38568	0	0	0	31267	29890	153048	26854	1082060	46542	111653	0	0	8122	513697	0	0
2024-08-13 18:20:47			0	38580	0	0	0	31251	29880	153084	27197	1081979	46529	111647	0	0	8122	513284	0	0
2024-08-13 18:21:47			0	38589	0	0	0	31246	29880	153068	26856	1081952	46529	111645	0	0	8123	512951	0	0
2024-08-13 18:22:47			0	38590	0	0	0	31233	29870	153044	26812	1081853	46529	111640	0	0	8123	512945	0	0
2024-08-13 18:23:47			0	38588	0	0	0	31225	29860	153060	26856	1081843	46550	111637	0	0	8123	513048	0	0
2024-08-13 18:24:47			0	38593	0	0	0	31210	29860	153060	26986	1081861	46528	111631	0	0	8124	512864	0	0
2024-08-13 18:25:47			0	38572	0	0	0	31202	29850	153060	26972	1081771	46539	111628	0	0	8123	513669	0	0
2024-08-13 18:26:47			0	38579	0	0	0	31189	29840	152968	26814	1081807	46538	111623	0	0	8123	513441	0	0
2024-08-13 18:27:47			0	38597	0	0	0	31176	29830	153004	26771	1081717	46526	111618	0	0	8124	512806	0	0
2024-08-13 18:28:47			0	38590	0	0	0	31171	29830	152960	26733	1081654	46525	111616	0	0	8124	513064	0	0
2024-08-13 18:29:47			0	38604	0	0	0	31161	29820	153000	26790	1081618	46536	111612	0	0	8125	512577	0	0
2024-08-13 18:30:47			0	38559	0	0	0	31176	29820	153152	26783	1081636	46535	111618	0	0	8122	514240	0	0
2024-08-13 18:31:47			0	38583	0	0	0	31176	29820	152988	27027	1081690	46545	111618	0	0	8124	513353	0	0
2024-08-13 18:32:47			0	38574	0	0	0	31176	29830	152952	26830	1081744	46537	111618	0	0	8123	513655	0	0
2024-08-13 18:33:47			0	38590	0	0	0	31192	29820	152940	26974	1081690	46545	111624	0	0	8124	513094	0	0
2024-08-13 18:34:47			0	38565	0	0	0	31186	29810	153060	26937	1081672	46544	111622	0	0	8122	514048	0	0
2024-08-13 18:35:47			0	38579	0	0	0	31181	29810	152932	26774	1081654	46535	111620	0	0	8123	513530	0	0
2024-08-13 18:36:47			0	38571	0	0	0	31176	29810	152964	26677	1081627	46535	111618	0	0	8123	513826	0	0
2024-08-13 18:37:47			0	38591	0	0	0	31166	29810	153012	26738	1081573	46535	111614	0	0	8124	513087	0	0
2024-08-13 18:38:47			0	38602	0	0	0	31158	29800	152956	26835	1081554	46511	111611	0	0	8125	512711	0	0
2024-08-13 18:39:47			0	38600	0	0	0	31163	29790	152868	27126	1081527	46532	111613	0	0	8125	512815	0	0
2024-08-13 18:40:47			0	38614	0	0	0	31173	29790	152776	26986	1081563	46533	111617	0	0	8125	512298	0	0
2024-08-13 18:41:47			0	38631	0	0	0	31171	29790	152848	26871	1081590	46544	111616	0	0	8126	511671	0	0
2024-08-13 18:42:47			0	38631	0	0	0	31155	29790	152792	26908	1081563	46533	111610	0	0	8127	511671	0	0
2024-08-13 18:43:47			0	38638	0	0	0	31145	29780	152844	26880	1081545	46541	111606	0	0	8127	511443	0	0
2024-08-13 18:44:47			0	38637	0	0	0	31153	29790	152796	26771	1081419	46542	111609	0	0	8127	511450	0	0
2024-08-13 18:45:47			0	38637	0	0	0	31135	29790	152772	26753	1081392	46532	111602	0	0	8127	511450	0	0
2024-08-13 18:46:47			0	38649	0	0	0	31145	29780	152748	27024	1081437	46531	111606	0	0	8128	511038	0	0
2024-08-13 18:47:47			0	38644	0	0	0	31150	29780	152688	26809	1081437	46541	111608	0	0	8127	511222	0	0
2024-08-13 18:48:47			0	38642	0	0	0	31158	29780	152636	26953	1081491	46531	111611	0	0	8127	511295	0	0
2024-08-13 18:49:47			0	38648	0	0	0	31184	29780	152656	26937	1081536	46564	111621	0	0	8127	511074	0	0
2024-08-13 18:50:47			0	38660	0	0	0	31179	29790	152720	26710	1081608	46554	111619	0	0	8128	510603	0	0
2024-08-13 18:51:47			0	38666	0	0	0	31189	29790	152744	26941	1081635	46565	111623	0	0	8128	510382	0	0
2024-08-13 18:52:47			0	38665	0	0	0	31189	29790	152652	26859	1081644	46544	111623	0	0	8128	510419	0	0
2024-08-13 18:53:47			0	38679	0	0	0	31184	29790	152604	27024	1081617	46566	111621	0	0	8129	509903	0	0
2024-08-13 18:54:47			0	38675	0	0	0	31171	29800	152556	26845	1081626	46566	111616	0	0	8129	510021	0	0
2024-08-13 18:55:47			0	38682	0	0	0	31163	29800	152412	26870	1081518	46544	111613	0	0	8129	509763	0	0
2024-08-13 18:56:47			0	38687	0	0	0	31150	29780	152556	27183	1081464	46531	111608	0	0	8130	509639	0	0
2024-08-13 18:57:47			0	38689	0	0	0	31150	29780	152412	27152	1081491	46531	111608	0	0	8130	509565	0	0
2024-08-13 18:58:47			0	38692	0	0	0	31150	29790	152496	27005	1081527	46554	111608	0	0	8130	509425	0	0
2024-08-13 18:59:47			0	38701	0	0	0	31168	29780	152460	26856	1081545	46553	111615	0	0	8130	509124	0	0
2024-08-13 19:00:47			0	38706	0	0	0	31171	29780	152396	26876	1081518	46531	111616	0	0	8131	508940	0	0
2024-08-13 19:01:47			0	38691	0	0	0	31179	29790	152416	27131	1081554	46542	111619	0	0	8130	509462	0	0
2024-08-13 19:02:47			0	38715	0	0	0	31179	29780	152324	26760	1081599	46541	111619	0	0	8131	508610	0	0
2024-08-13 19:03:47			0	38742	0	0	0	31192	29790	152357	26998	1081635	46554	111624	0	0	8132	507589	0	0
2024-08-13 19:04:47			0	38731	0	0	0	31186	29790	152341	26672	1081590	46555	111622	0	0	8132	507993	0	0
2024-08-13 19:05:47			0	38742	0	0	0	31194	29800	152277	26967	1081653	46566	111625	0	0	8132	507559	0	0
2024-08-13 19:06:47			0	38730	0	0	0	31189	29800	152268	26772	1081653	46555	111623	0	0	8132	508000	0	0
2024-08-13 19:07:47			0	38726	0	0	0	31173	29800	152229	27039	1081518	46544	111617	0	0	8132	508147	0	0
2024-08-13 19:08:47			0	38746	0	0	0	31158	29790	152265	27045	1081527	46554	111611	0	0	8133	507442	0	0
2024-08-13 19:09:47			0	38747	0	0	0	31155	29800	152241	26863	1081572	46544	111610	0	0	8133	507376	0	0
2024-08-13 19:10:47			0	38739	0	0	0	31168	29790	152265	26934	1081554	46532	111615	0	0	8132	507699	0	0
2024-08-13 19:11:47			0	38773	0	0	0	31176	29790	152261	26890	1081617	46566	111618	0	0	8134	506453	0	0
2024-08-13 19:12:47			0	38743	0	0	0	31186	29790	152325	26557	1081563	46544	111622	0	0	8132	507552	0	0
2024-08-13 19:13:47			0	38743	0	0	0	31194	29790	152341	26701	1081581	46565	111625	0	0	8132	507552	0	0
2024-08-13 19:14:47			0	38740	0	0	0	31194	29800	152233	26693	1081626	46555	111625	0	0	8132	507633	0	0
2024-08-13 19:15:47			0	38749	0	0	0	31176	29800	152197	26911	1081572	46566	111618	0	0	8133	507303	0	0
2024-08-13 19:16:47			0	38771	0	0	0	31189	29790	152165	26786	1081563	46566	111623	0	0	8134	506526	0	0
2024-08-13 19:17:47			0	38776	0	0	0	31184	29800	152125	26923	1081572	46566	111621	0	0	8134	506313	0	0
2024-08-13 19:18:47			0	38771	0	0	0	31186	29790	152105	26833	1081590	46544	111622	0	0	8134	506526	0	0
2024-08-13 19:19:47			0	38760	0	0	0	31192	29790	152045	26687	1081644	46533	111624	0	0	8133	506929	0	0
2024-08-13 19:20:47			0	38781	0	0	0	31186	29790	152157	26953	1081644	46566	111622	0	0	8135	506160	0	0
2024-08-13 19:21:47			0	38774	0	0	0	31197	29800	152169	26726	1081690	46567	111626	0	0	8134	506386	0	0
2024-08-13 19:22:47			0	38767	0	0	0	31194	29790	152125	26906	1081644	46555	111625	0	0	8134	506672	0	0
2024-08-13 19:23:47			0	38786	0	0	0	31205	29800	152033	26774	1081626	46555	111629	0	0	8135	505947	0	0
2024-08-13 19:24:47			0	38791	0	0	0	31202	29800	151961	26733	1081690	46556	111628	0	0	8135	505764	0	0
2024-08-13 19:25:47			0	38783	0	0	0	31210	29800	151969	26913	1081680	46555	111631	0	0	8134	506057	0	0
2024-08-13 19:26:47			0	38793	0	0	0	31218	29810	152097	26804	1081699	46544	111634	0	0	8135	505661	0	0
2024-08-13 19:27:47			0	38806	0	0	0	31210	29800	151913	26916	1081690	46567	111631	0	0	8136	505215	0	0
2024-08-13 19:28:47			0	38797	0	0	0	31207	29810	151969	26597	1081726	46567	111630	0	0	8135	505515	0	0
2024-08-13 19:29:47			0	38811	0	0	0	31212	29810	152017	26668	1081708	46545	111632	0	0	8136	505003	0	0
2024-08-13 19:30:47			0	38818	0	0	0	31210	29810	151929	26811	1081699	46544	111631	0	0	8136	504747	0	0
2024-08-13 19:31:47			0	38836	0	0	0	31207	29810	151885	26706	1081672	46556	111630	0	0	8137	504089	0	0
2024-08-13 19:32:47			0	38836	0	0	0	31220	29810	151729	26828	1081627	46568	111635	0	0	8137	504089	0	0
2024-08-13 19:33:47			0	38805	0	0	0	31205	29810	151821	26830	1081672	46556	111629	0	0	8136	505222	0	0
2024-08-13 19:34:47			0	38825	0	0	0	31210	29810	151833	26845	1081753	46556	111631	0	0	8137	504491	0	0
2024-08-13 19:35:47			0	38829	0	0	0	31210	29810	151833	26975	1081708	46568	111631	0	0	8137	504345	0	0
2024-08-13 19:36:47			0	38838	0	0	0	31218	29800	151725	26713	1081707	46566	111634	0	0	8137	504045	0	0
2024-08-13 19:37:47			0	38821	0	0	0	31205	29810	151745	26892	1081672	46567	111629	0	0	8137	504637	0	0
2024-08-13 19:38:47			0	38835	0	0	0	31207	29800	151701	26894	1081717	46556	111630	0	0	8137	504155	0	0
2024-08-13 19:39:47			0	38846	0	0	0	31202	29810	151697	26870	1081654	46557	111628	0	0	8138	503724	0	0
2024-08-13 19:40:47			0	38855	0	0	0	31202	29800	151701	26812	1081663	46556	111628	0	0	8139	503424	0	0
2024-08-13 19:41:47			0	38837	0	0	0	31205	29800	151649	26538	1081663	46567	111629	0	0	8137	504082	0	0
2024-08-13 19:42:47			0	38862	0	0	0	31205	29810	151653	26870	1081645	46556	111629	0	0	8139	503140	0	0
2024-08-13 19:43:47			0	38858	0	0	0	31194	29800	151625	26380	1081653	46555	111625	0	0	8139	503315	0	0
2024-08-13 19:44:47			0	38857	0	0	0	31202	29800	151717	26745	1081635	46556	111628	0	0	8139	503351	0	0
2024-08-13 19:45:47			0	38853	0	0	0	31197	29810	151537	26682	1081681	46557	111626	0	0	8139	503468	0	0
2024-08-13 19:46:47			0	38862	0	0	0	31197	29800	151533	26628	1081690	46556	111626	0	0	8139	503169	0	0
2024-08-13 19:47:47			0	38877	0	0	0	31197	29800	151497	26746	1081608	46544	111626	0	0	8140	502622	0	0
2024-08-13 19:48:47			0	38860	0	0	0	31186	29800	151477	26981	1081581	46556	111622	0	0	8139	503242	0	0
2024-08-13 19:49:47			0	38875	0	0	0	31194	29790	151349	26648	1081581	46554	111625	0	0	8140	502724	0	0
2024-08-13 19:50:47			0	38863	0	0	0	31192	29800	151389	26592	1081608	46556	111624	0	0	8139	503132	0	0
2024-08-13 19:51:47			0	38893	0	0	0	31184	29780	151477	26960	1081599	46564	111621	0	0	8141	502097	0	0
2024-08-13 19:52:47			0	38893	0	0	0	31186	29800	151377	26908	1081626	46544	111622	0	0	8141	502038	0	0
2024-08-13 19:53:47			0	38896	0	0	0	31189	29790	151449	27081	1081644	46544	111623	0	0	8141	501958	0	0
2024-08-13 19:54:47			0	38889	0	0	0	31189	29800	151421	26925	1081581	46556	111623	0	0	8141	502184	0	0
2024-08-13 19:55:47			0	38914	0	0	0	31186	29790	151417	26859	1081581	46565	111622	0	0	8142	501303	0	0
2024-08-13 19:56:47			0	38909	0	0	0	31186	29800	151357	27095	1081599	46566	111622	0	0	8142	501455	0	0
2024-08-13 19:57:47			0	38908	0	0	0	31186	29800	151433	27020	1081680	46555	111622	0	0	8142	501492	0	0
2024-08-13 19:58:47			0	38918	0	0	0	31173	29800	151369	26873	1081663	46556	111617	0	0	8143	501128	0	0
2024-08-13 19:59:47			0	38916	0	0	0	31179	29790	151425	27039	1081617	46566	111619	0	0	8142	501230	0	0
2024-08-13 20:00:47			0	38910	0	0	0	31158	29790	151301	27105	1081581	46554	111611	0	0	8142	501448	0	0
2024-08-13 20:01:47			0	38926	0	0	0	31158	29780	151357	26849	1081599	46553	111611	0	0	8143	500895	0	0
2024-08-13 20:02:47			0	38946	0	0	0	31137	29790	151149	26542	1081536	46555	111603	0	0	8145	500138	0	0
2024-08-13 20:03:47			0	38929	0	0	0	31148	29790	151241	26906	1081473	46542	111607	0	0	8144	500757	0	0
2024-08-13 20:04:47			0	38946	0	0	0	31137	29770	151349	27017	1081392	46541	111603	0	0	8145	500196	0	0
2024-08-13 20:05:47			0	38935	0	0	0	31127	29770	151369	26970	1081356	46541	111599	0	0	8144	500597	0	0
2024-08-13 20:06:47			0	38937	0	0	0	31124	29770	151393	27112	1081365	46541	111598	0	0	8144	500524	0	0
2024-08-13 20:07:47			0	38946	0	0	0	31114	29750	151325	26644	1081382	46551	111594	0	0	8145	500255	0	0
2024-08-13 20:08:47			0	38932	0	0	0	31114	29750	151293	26996	1081328	46540	111594	0	0	8144	500764	0	0
2024-08-13 20:09:47			0	38940	0	0	0	31111	29740	151217	26864	1081247	46549	111593	0	0	8145	500502	0	0
2024-08-13 20:10:47			0	38942	0	0	0	31109	29740	151193	27041	1081247	46549	111592	0	0	8145	500429	0	0
2024-08-13 20:11:47			0	38965	0	0	0	31101	29730	151313	26880	1081238	46548	111589	0	0	8146	499622	0	0
2024-08-13 20:12:47			0	38965	0	0	0	31085	29730	151209	26889	1081184	46548	111583	0	0	8146	499622	0	0
2024-08-13 20:13:47			0	38967	0	0	0	31098	29720	151233	26795	1081139	46537	111588	0	0	8146	499579	0	0
2024-08-13 20:14:47			0	38954	0	0	0	31085	29730	151197	27024	1081157	46548	111583	0	0	8146	500022	0	0
2024-08-13 20:15:47			0	38948	0	0	0	31077	29720	151205	26719	1081166	46558	111580	0	0	8146	500269	0	0
2024-08-13 20:16:47			0	38966	0	0	0	31083	29710	151145	26774	1081148	46524	111582	0	0	8146	499644	0	0
2024-08-13 20:17:47			0	38974	0	0	0	31077	29710	151205	26873	1081094	46536	111580	0	0	8147	499353	0	0
2024-08-13 20:18:47			0	38971	0	0	0	31083	29710	151233	26982	1081148	46536	111582	0	0	8147	499462	0	0
2024-08-13 20:19:47			0	38976	0	0	0	31080	29710	151193	26880	1081121	46546	111581	0	0	8147	499281	0	0
2024-08-13 20:20:47			0	38979	0	0	0	31080	29710	151113	26741	1081040	46546	111581	0	0	8147	499172	0	0
2024-08-13 20:21:47			0	38983	0	0	0	31077	29700	151129	26767	1081048	46545	111580	0	0	8147	499055	0	0
2024-08-13 20:22:47			0	38988	0	0	0	31088	29710	151109	27092	1081139	46536	111584	0	0	8148	498845	0	0
2024-08-13 20:23:47			0	38991	0	0	0	31080	29700	151201	26878	1081066	46544	111581	0	0	8148	498765	0	0
2024-08-13 20:24:47			0	38989	0	0	0	31083	29700	151129	26901	1081102	46545	111582	0	0	8148	498838	0	0
2024-08-13 20:25:47			0	39012	0	0	0	31075	29690	151081	26450	1081057	46544	111579	0	0	8149	498032	0	0
2024-08-13 20:26:47			0	39002	0	0	0	31072	29700	151057	26854	1081012	46555	111578	0	0	8149	498366	0	0
2024-08-13 20:27:47			0	39014	0	0	0	31067	29690	151009	26811	1081030	46544	111576	0	0	8149	497959	0	0
2024-08-13 20:28:47			0	38999	0	0	0	31077	29700	150917	26883	1081039	46544	111580	0	0	8148	498475	0	0
2024-08-13 20:29:47			0	39003	0	0	0	31072	29690	151021	26811	1081057	46555	111578	0	0	8149	498358	0	0
2024-08-13 20:30:47			0	39006	0	0	0	31077	29690	151065	26578	1080976	46555	111580	0	0	8149	498249	0	0
2024-08-13 20:31:47			0	39009	0	0	0	31070	29700	151069	26715	1081039	46567	111577	0	0	8149	498112	0	0
2024-08-13 20:32:47			0	39005	0	0	0	31067	29690	151101	26767	1081021	46544	111576	0	0	8149	498286	0	0
2024-08-13 20:33:47			0	39010	0	0	0	31070	29680	150925	26823	1081012	46554	111577	0	0	8149	498133	0	0
2024-08-13 20:34:47			0	39023	0	0	0	31070	29690	150945	26805	1081030	46555	111577	0	0	8150	497633	0	0
2024-08-13 20:35:47			0	39030	0	0	0	31072	29680	150997	26894	1080958	46577	111578	0	0	8150	497408	0	0
2024-08-13 20:36:47			0	39025	0	0	0	31075	29680	150957	26798	1081012	46554	111579	0	0	8150	497589	0	0
2024-08-13 20:37:47			0	39034	0	0	0	31070	29680	150849	26951	1080931	46543	111577	0	0	8150	497263	0	0
2024-08-13 20:38:47			0	39023	0	0	0	31070	29680	150929	27066	1080985	46566	111577	0	0	8150	497662	0	0
2024-08-13 20:39:47			0	39027	0	0	0	31064	29680	150889	27062	1080976	46553	111575	0	0	8150	497517	0	0
2024-08-13 20:40:47			0	39038	0	0	0	31067	29670	150917	26838	1080913	46542	111576	0	0	8151	497147	0	0
2024-08-13 20:41:47			0	39022	0	0	0	31070	29680	150881	26937	1081003	46542	111577	0	0	8150	497698	0	0
2024-08-13 20:42:47			0	39033	0	0	0	31064	29680	150885	27085	1080958	46554	111575	0	0	8150	497299	0	0
2024-08-13 20:43:47			0	39028	0	0	0	31064	29680	151005	27102	1080949	46565	111575	0	0	8150	497480	0	0
2024-08-13 20:44:47			0	39025	0	0	0	31057	29680	150961	27111	1080922	46553	111572	0	0	8150	497589	0	0
2024-08-13 20:45:47			0	39035	0	0	0	31049	29670	151005	27112	1080913	46553	111569	0	0	8151	497256	0	0
2024-08-13 20:46:47			0	39038	0	0	0	31059	29670	150917	26970	1080904	46542	111573	0	0	8151	497147	0	0
2024-08-13 20:47:47			0	39026	0	0	0	31044	29670	150949	27050	1080904	46553	111567	0	0	8150	497582	0	0
2024-08-13 20:48:47			0	39042	0	0	0	31041	29660	150941	27003	1080841	46530	111566	0	0	8151	497031	0	0
2024-08-13 20:49:47			0	39081	0	0	0	31025	29660	151005	26987	1080832	46551	111560	0	0	8154	495619	0	0
2024-08-13 20:50:47			0	39056	0	0	0	31020	29660	150857	27301	1080814	46530	111558	0	0	8152	496524	0	0
2024-08-13 20:51:47			0	39060	0	0	0	31033	29670	150985	26824	1080796	46553	111563	0	0	8152	496350	0	0
2024-08-13 20:52:47			0	39040	0	0	0	31020	29650	150861	27170	1080823	46550	111558	0	0	8151	497132	0	0
2024-08-13 20:53:47			0	39047	0	0	0	31018	29650	150977	26953	1080742	46529	111557	0	0	8152	496879	0	0
2024-08-13 20:54:47			0	39056	0	0	0	31005	29650	150829	27074	1080796	46540	111552	0	0	8153	496553	0	0
2024-08-13 20:55:47			0	39048	0	0	0	30997	29650	150897	27027	1080733	46529	111549	0	0	8152	496842	0	0
2024-08-13 20:56:47			0	39057	0	0	0	30992	29650	150861	27213	1080706	46540	111547	0	0	8153	496516	0	0
2024-08-13 20:57:47			0	39035	0	0	0	30984	29640	150881	26715	1080669	46529	111544	0	0	8152	497343	0	0
2024-08-13 20:58:47			0	39047	0	0	0	30984	29630	150929	26951	1080651	46527	111544	0	0	8152	496936	0	0
2024-08-13 20:59:47			0	39041	0	0	0	30994	29630	150957	26953	1080678	46538	111548	0	0	8152	497154	0	0
2024-08-13 21:00:47			0	39018	0	0	0	31002	29620	150869	27041	1080714	46548	111551	0	0	8150	498017	0	0
2024-08-13 21:01:47			0	39016	0	0	0	30994	29630	150925	27022	1080669	46548	111548	0	0	8150	498061	0	0
2024-08-13 21:02:47			0	39012	0	0	0	31010	29630	151061	26960	1080615	46560	111554	0	0	8150	498206	0	0
2024-08-13 21:03:47			0	39032	0	0	0	30999	29630	151045	27093	1080642	46548	111550	0	0	8151	497480	0	0
2024-08-13 21:04:47			0	39022	0	0	0	30989	29630	150997	26876	1080642	46560	111546	0	0	8151	497843	0	0
2024-08-13 21:05:47			0	39020	0	0	0	30994	29620	151029	26994	1080606	46548	111548	0	0	8151	497944	0	0
2024-08-13 21:06:47			0	39009	0	0	0	31002	29630	150937	26934	1080669	46548	111551	0	0	8150	498315	0	0
2024-08-13 21:07:47			0	39014	0	0	0	30997	29630	150981	27039	1080696	46548	111549	0	0	8150	498133	0	0
2024-08-13 21:08:47			0	39009	0	0	0	31002	29630	151045	26892	1080669	46548	111551	0	0	8150	498315	0	0
2024-08-13 21:09:47			0	39000	0	0	0	31005	29620	151033	27031	1080651	46547	111552	0	0	8149	498670	0	0
2024-08-13 21:10:47			0	38985	0	0	0	31005	29620	150957	26904	1080678	46547	111552	0	0	8148	499215	0	0
2024-08-13 21:11:47			0	38984	0	0	0	30994	29630	151009	26750	1080669	46548	111548	0	0	8149	499223	0	0
2024-08-13 21:12:47			0	38990	0	0	0	31010	29620	151025	26776	1080660	46548	111554	0	0	8149	499034	0	0
2024-08-13 21:13:47			0	38983	0	0	0	31010	29620	151033	26746	1080687	46548	111554	0	0	8148	499288	0	0
2024-08-13 21:14:47			0	38991	0	0	0	31007	29630	151041	26760	1080669	46560	111553	0	0	8149	498968	0	0
2024-08-13 21:15:47			0	38974	0	0	0	31010	29620	151061	26824	1080705	46537	111554	0	0	8148	499615	0	0
2024-08-13 21:16:47			0	38968	0	0	0	31007	29620	151081	27206	1080660	46548	111553	0	0	8147	499833	0	0
2024-08-13 21:17:47			0	38965	0	0	0	31015	29610	151045	26982	1080615	46558	111556	0	0	8147	499972	0	0
2024-08-13 21:18:47			0	38962	0	0	0	31012	29610	151125	26611	1080642	46546	111555	0	0	8147	500081	0	0
2024-08-13 21:19:47			0	38983	0	0	0	31005	29620	151093	26833	1080624	46547	111552	0	0	8148	499288	0	0
2024-08-13 21:20:47			0	38954	0	0	0	31002	29620	151121	26876	1080624	46537	111551	0	0	8147	500343	0	0
2024-08-13 21:21:47			0	38960	0	0	0	30992	29620	151193	26795	1080543	46547	111547	0	0	8147	500124	0	0
2024-08-13 21:22:47			0	38941	0	0	0	30994	29610	151125	26616	1080615	46546	111548	0	0	8146	500845	0	0
2024-08-13 21:23:47			0	38951	0	0	0	30997	29610	151097	27071	1080606	46536	111549	0	0	8147	500481	0	0
2024-08-13 21:24:47			0	38956	0	0	0	30986	29610	151021	26828	1080561	46546	111545	0	0	8147	500299	0	0
2024-08-13 21:25:47			0	38953	0	0	0	30986	29610	151069	27069	1080615	46546	111545	0	0	8147	500408	0	0
2024-08-13 21:26:47			0	38942	0	0	0	30986	29610	151145	27050	1080552	46546	111545	0	0	8146	500808	0	0
2024-08-13 21:27:47			0	38921	0	0	0	30992	29610	151237	26752	1080588	46546	111547	0	0	8145	501573	0	0
2024-08-13 21:28:47			0	38940	0	0	0	30992	29610	151221	26819	1080588	46546	111547	0	0	8146	500881	0	0
2024-08-13 21:29:47			0	38944	0	0	0	30986	29610	151125	27192	1080606	46558	111545	0	0	8146	500736	0	0
2024-08-13 21:30:47			0	38926	0	0	0	30989	29600	151113	27034	1080560	46535	111546	0	0	8145	501420	0	0
2024-08-13 21:31:47			0	38904	0	0	0	30989	29610	151257	26935	1080579	46558	111546	0	0	8144	502193	0	0
2024-08-13 21:32:47			0	38919	0	0	0	30992	29600	151281	27001	1080570	46546	111547	0	0	8145	501676	0	0
2024-08-13 21:33:47			0	38914	0	0	0	30976	29590	151289	26615	1080542	46543	111541	0	0	8145	501887	0	0
2024-08-13 21:34:47			0	38906	0	0	0	30976	29600	151325	26817	1080533	46545	111541	0	0	8144	502149	0	0
2024-08-13 21:35:47			0	38912	0	0	0	30984	29590	151249	26765	1080524	46556	111544	0	0	8144	501960	0	0
2024-08-13 21:36:47			0	38907	0	0	0	30979	29600	151361	26977	1080597	46546	111542	0	0	8144	502113	0	0
2024-08-13 21:37:47			0	38902	0	0	0	30984	29600	151413	26736	1080533	46557	111544	0	0	8144	502295	0	0
2024-08-13 21:38:47			0	38899	0	0	0	30984	29590	151377	26663	1080515	46543	111544	0	0	8144	502434	0	0
2024-08-13 21:39:47			0	38881	0	0	0	30976	29590	151357	27154	1080542	46533	111541	0	0	8143	503091	0	0
2024-08-13 21:40:47			0	38888	0	0	0	30976	29590	151509	26514	1080497	46556	111541	0	0	8143	502835	0	0
2024-08-13 21:41:47			0	38883	0	0	0	30979	29600	151433	26606	1080533	46545	111542	0	0	8143	502989	0	0
2024-08-13 21:42:47			0	38865	0	0	0	30973	29580	151449	26779	1080443	46543	111540	0	0	8142	503704	0	0
2024-08-13 21:43:47			0	38855	0	0	0	30971	29580	151409	26935	1080479	46555	111539	0	0	8141	504070	0	0
2024-08-13 21:44:47			0	38854	0	0	0	30966	29580	151521	26993	1080425	46543	111537	0	0	8141	504106	0	0
2024-08-13 21:45:47			0	38866	0	0	0	30958	29580	151417	26868	1080416	46555	111534	0	0	8142	503668	0	0
2024-08-13 21:46:47			0	38839	0	0	0	30958	29580	151509	26634	1080389	46533	111534	0	0	8141	504655	0	0
2024-08-13 21:47:47			0	38842	0	0	0	30955	29570	151481	26538	1080488	46542	111533	0	0	8141	504575	0	0
2024-08-13 21:48:47			0	38836	0	0	0	30966	29580	151565	26951	1080470	46555	111537	0	0	8140	504765	0	0
2024-08-13 21:49:47			0	38835	0	0	0	30953	29580	151573	26691	1080416	46543	111532	0	0	8141	504801	0	0
2024-08-13 21:50:47			0	38822	0	0	0	30963	29580	151629	26998	1080452	46555	111536	0	0	8140	505277	0	0
2024-08-13 21:51:47			0	38819	0	0	0	30968	29570	151593	26972	1080515	46542	111538	0	0	8139	505416	0	0
2024-08-13 21:52:47			0	38817	0	0	0	30966	29580	151581	26951	1080533	46543	111537	0	0	8139	505460	0	0
2024-08-13 21:53:47			0	38796	0	0	0	30973	29570	151741	26720	1080452	46564	111540	0	0	8138	506259	0	0
2024-08-13 21:54:47			0	38776	0	0	0	30976	29570	151653	27194	1080434	46565	111541	0	0	8137	506992	0	0
2024-08-13 21:55:47			0	38795	0	0	0	30973	29580	151645	26807	1080443	46533	111540	0	0	8138	506266	0	0
2024-08-13 21:56:47			0	38784	0	0	0	30968	29580	151665	26639	1080497	46543	111538	0	0	8137	506669	0	0
2024-08-13 21:57:47			0	38784	0	0	0	30973	29580	151617	27202	1080443	46533	111540	0	0	8137	506669	0	0
2024-08-13 21:58:47			0	38759	0	0	0	30973	29570	151665	26720	1080515	46542	111540	0	0	8136	507616	0	0
2024-08-13 21:59:47			0	38777	0	0	0	30971	29570	151709	26870	1080434	46542	111539	0	0	8137	506955	0	0
2024-08-13 22:00:47			0	38775	0	0	0	30968	29570	151717	26734	1080407	46554	111538	0	0	8137	507029	0	0
2024-08-13 22:01:47			0	38770	0	0	0	30963	29580	151733	26722	1080425	46555	111536	0	0	8137	507182	0	0
2024-08-13 22:02:47			0	38760	0	0	0	30968	29580	151713	27041	1080443	46555	111538	0	0	8136	507550	0	0
2024-08-13 22:03:47			0	38766	0	0	0	30963	29580	151833	26925	1080470	46555	111536	0	0	8137	507329	0	0
2024-08-13 22:04:47			0	38735	0	0	0	30968	29580	151761	26883	1080470	46555	111538	0	0	8135	508467	0	0
2024-08-13 22:05:47			0	38721	0	0	0	30968	29570	151832	26935	1080407	46542	111538	0	0	8134	509012	0	0
2024-08-13 22:06:47			0	38731	0	0	0	30966	29570	151893	26753	1080461	46542	111537	0	0	8134	508644	0	0
2024-08-13 22:07:47			0	38736	0	0	0	30966	29570	151753	26878	1080479	46541	111537	0	0	8135	508460	0	0
2024-08-13 22:08:47			0	38737	0	0	0	30966	29580	151889	26523	1080416	46533	111537	0	0	8135	508394	0	0
2024-08-13 22:09:47			0	38720	0	0	0	30950	29570	151864	26620	1080407	46532	111531	0	0	8134	509048	0	0
2024-08-13 22:10:47			0	38714	0	0	0	30945	29560	151856	27055	1080362	46541	111529	0	0	8134	509299	0	0
2024-08-13 22:11:47			0	38711	0	0	0	30937	29560	151884	26930	1080308	46531	111526	0	0	8134	509409	0	0
2024-08-13 22:12:47			0	38715	0	0	0	30932	29560	151888	26902	1080335	46531	111524	0	0	8134	509262	0	0
2024-08-13 22:13:47			0	38689	0	0	0	30927	29550	151900	26733	1080281	46529	111522	0	0	8133	510248	0	0
2024-08-13 22:14:47			0	38700	0	0	0	30922	29550	151940	26677	1080254	46540	111520	0	0	8133	509843	0	0
2024-08-13 22:15:47			0	38696	0	0	0	30919	29560	151952	26672	1080218	46541	111519	0	0	8133	509961	0	0
2024-08-13 22:16:47			0	38679	0	0	0	30914	29530	152016	26622	1080128	46529	111517	0	0	8132	510676	0	0
2024-08-13 22:17:47			0	38680	0	0	0	30906	29520	152000	26911	1080127	46526	111514	0	0	8132	510669	0	0
2024-08-13 22:18:47			0	38670	0	0	0	30896	29520	152068	26830	1080100	46526	111510	0	0	8132	511038	0	0
2024-08-13 22:19:47			0	38667	0	0	0	30896	29520	152064	26883	1080109	46538	111510	0	0	8132	511148	0	0
2024-08-13 22:20:47			0	38665	0	0	0	30893	29510	152116	26987	1080118	46537	111509	0	0	8132	511251	0	0
2024-08-13 22:21:47			0	38672	0	0	0	30885	29500	152088	26771	1080037	46524	111506	0	0	8132	511023	0	0
2024-08-13 22:22:47			0	38663	0	0	0	30893	29500	152156	26866	1080010	46546	111509	0	0	8131	511355	0	0
2024-08-13 22:23:47			0	38646	0	0	0	30888	29490	152104	27000	1079947	46535	111507	0	0	8131	512012	0	0
2024-08-13 22:24:47			0	38654	0	0	0	30872	29490	152044	27124	1079992	46524	111501	0	0	8131	511717	0	0
2024-08-13 22:25:47			0	38636	0	0	0	30877	29480	152200	27069	1079929	46545	111503	0	0	8130	512411	0	0
2024-08-13 22:26:47			0	38646	0	0	0	30870	29480	152072	27079	1079929	46523	111500	0	0	8131	512042	0	0
2024-08-13 22:27:47			0	38649	0	0	0	30862	29480	152176	27183	1079892	46533	111497	0	0	8131	511931	0	0
2024-08-13 22:28:47			0	38637	0	0	0	30862	29470	152188	27112	1079856	46533	111497	0	0	8130	512404	0	0
2024-08-13 22:29:47			0	38626	0	0	0	30864	29480	152184	27154	1079838	46533	111498	0	0	8130	512780	0	0
2024-08-13 22:30:47			0	38636	0	0	0	30867	29470	152200	27007	1079847	46533	111499	0	0	8130	512441	0	0
2024-08-13 22:31:47			0	38633	0	0	0	30870	29470	152300	26899	1079829	46555	111500	0	0	8130	512552	0	0
2024-08-13 22:32:47			0	38618	0	0	0	30857	29470	152204	26880	1079928	46544	111495	0	0	8129	513106	0	0
2024-08-13 22:33:47			0	38610	0	0	0	30867	29460	152268	26875	1079829	46531	111499	0	0	8129	513431	0	0
2024-08-13 22:34:47			0	38624	0	0	0	30864	29470	152276	26736	1079874	46533	111498	0	0	8130	512884	0	0
2024-08-13 22:35:47			0	38628	0	0	0	30859	29450	152296	26972	1079820	46541	111496	0	0	8130	512796	0	0
2024-08-13 22:36:47			0	38613	0	0	0	30864	29460	152228	26804	1079865	46532	111498	0	0	8129	513320	0	0
2024-08-13 22:37:47			0	38623	0	0	0	30862	29450	152348	27067	1079847	46541	111497	0	0	8130	512980	0	0
2024-08-13 22:38:47			0	38644	0	0	0	30875	29450	152260	27039	1079892	46552	111502	0	0	8130	512205	0	0
2024-08-13 22:39:47			0	38607	0	0	0	30880	29460	152392	26691	1079946	46543	111504	0	0	8128	513542	0	0
2024-08-13 22:40:47			0	38619	0	0	0	30877	29460	152236	26667	1079892	46543	111503	0	0	8129	513099	0	0
2024-08-13 22:41:47			0	38614	0	0	0	30875	29460	152308	26932	1079937	46542	111502	0	0	8129	513283	0	0
2024-08-13 22:42:47			0	38631	0	0	0	30867	29450	152340	26736	1079928	46552	111499	0	0	8130	512685	0	0
2024-08-13 22:43:47			0	38617	0	0	0	30875	29460	152316	26977	1079919	46554	111502	0	0	8129	513172	0	0
2024-08-13 22:44:47			0	38616	0	0	0	30872	29460	152352	26866	1079919	46554	111501	0	0	8129	513209	0	0
2024-08-13 22:45:47			0	38591	0	0	0	30872	29460	152292	26944	1079919	46543	111501	0	0	8128	514134	0	0
2024-08-13 22:46:47			0	38605	0	0	0	30867	29460	152284	26946	1079865	46543	111499	0	0	8128	513616	0	0
2024-08-13 22:47:47			0	38606	0	0	0	30857	29450	152308	26729	1079820	46530	111495	0	0	8129	513609	0	0
2024-08-13 22:48:47			0	38597	0	0	0	30849	29450	152236	27034	1079820	46541	111492	0	0	8128	513942	0	0
2024-08-13 22:49:47			0	38602	0	0	0	30836	29450	152248	26816	1079793	46552	111487	0	0	8129	513757	0	0
2024-08-13 22:50:47			0	38598	0	0	0	30833	29450	152248	27131	1079784	46541	111486	0	0	8129	513905	0	0
2024-08-13 22:51:47			0	38585	0	0	0	30828	29450	152284	27010	1079757	46552	111484	0	0	8128	514386	0	0
2024-08-13 22:52:47			0	38599	0	0	0	30812	29440	152356	27140	1079712	46518	111478	0	0	8129	513898	0	0
2024-08-13 22:53:47			0	38577	0	0	0	30825	29430	152332	26876	1079666	46529	111483	0	0	8127	514742	0	0
2024-08-13 22:54:47			0	38562	0	0	0	30825	29440	152368	26706	1079739	46541	111483	0	0	8127	515267	0	0
2024-08-13 22:55:47			0	38588	0	0	0	30828	29430	152312	26493	1079730	46540	111484	0	0	8128	514335	0	0
2024-08-13 22:56:47			0	38588	0	0	0	30833	29430	152368	26920	1079774	46540	111486	0	0	8128	514335	0	0
2024-08-13 22:57:47			0	38576	0	0	0	30831	29440	152360	26684	1079748	46541	111485	0	0	8127	514749	0	0
2024-08-13 22:58:47			0	38593	0	0	0	30846	29440	152356	26639	1079793	46541	111491	0	0	8128	514120	0	0
2024-08-13 22:59:47			0	38568	0	0	0	30831	29440	152256	26708	1079685	46541	111485	0	0	8127	515045	0	0
2024-08-13 23:00:47			0	38575	0	0	0	30828	29430	152348	26849	1079720	46550	111484	0	0	8127	514816	0	0
2024-08-13 23:01:47			0	38589	0	0	0	30825	29430	152320	26970	1079720	46540	111483	0	0	8128	514298	0	0
2024-08-13 23:02:47			0	38590	0	0	0	30825	29430	152272	26759	1079693	46529	111483	0	0	8128	514261	0	0
2024-08-13 23:03:47			0	38612	0	0	0	30833	29430	152224	26873	1079747	46529	111486	0	0	8129	513447	0	0
2024-08-13 23:04:47			0	38591	0	0	0	30828	29430	152188	26908	1079676	46529	111484	0	0	8128	514224	0	0
2024-08-13 23:05:47			0	38597	0	0	0	30833	29430	152140	26906	1079747	46540	111486	0	0	8128	514002	0	0
2024-08-13 23:06:47			0	38589	0	0	0	30825	29420	152092	26696	1079657	46540	111483	0	0	8128	514327	0	0
2024-08-13 23:07:47			0	38601	0	0	0	30831	29440	152236	26717	1079712	46541	111485	0	0	8129	513824	0	0
2024-08-13 23:08:47			0	38599	0	0	0	30818	29420	152100	26899	1079675	46527	111480	0	0	8129	513957	0	0
2024-08-13 23:09:47			0	38608	0	0	0	30823	29420	152124	27015	1079684	46529	111482	0	0	8129	513624	0	0
2024-08-13 23:10:47			0	38599	0	0	0	30823	29420	152212	26873	1079621	46527	111482	0	0	8129	513957	0	0
2024-08-13 23:11:47			0	38613	0	0	0	30812	29420	152220	27157	1079657	46540	111478	0	0	8130	513440	0	0
2024-08-13 23:12:47			0	38612	0	0	0	30818	29420	152164	27218	1079648	46549	111480	0	0	8129	513477	0	0
2024-08-13 23:13:47			0	38618	0	0	0	30818	29420	152164	27223	1079621	46539	111480	0	0	8130	513255	0	0
2024-08-13 23:14:47			0	38612	0	0	0	30815	29410	152184	27008	1079603	46526	111479	0	0	8129	513507	0	0
2024-08-13 23:15:47			0	38608	0	0	0	30815	29420	152212	26880	1079621	46539	111479	0	0	8129	513624	0	0
2024-08-13 23:16:47			0	38612	0	0	0	30810	29420	152124	26674	1079675	46539	111477	0	0	8130	513477	0	0
2024-08-13 23:17:47			0	38619	0	0	0	30810	29410	152188	26939	1079666	46548	111477	0	0	8130	513248	0	0
2024-08-13 23:18:47			0	38621	0	0	0	30807	29410	152188	26863	1079612	46548	111476	0	0	8130	513174	0	0
2024-08-13 23:19:47			0	38613	0	0	0	30810	29410	152172	26982	1079612	46538	111477	0	0	8130	513470	0	0
2024-08-13 23:20:47			0	38624	0	0	0	30805	29410	152132	26828	1079666	46526	111475	0	0	8130	513063	0	0
2024-08-13 23:21:47			0	38623	0	0	0	30802	29410	152072	26974	1079666	46538	111474	0	0	8130	513100	0	0
2024-08-13 23:22:47			0	38635	0	0	0	30805	29400	152076	26963	1079594	46538	111475	0	0	8131	512686	0	0
2024-08-13 23:23:47			0	38629	0	0	0	30797	29410	152068	27152	1079558	46526	111472	0	0	8131	512878	0	0
2024-08-13 23:24:47			0	38609	0	0	0	30797	29410	151948	26880	1079576	46538	111472	0	0	8130	513617	0	0
2024-08-13 23:25:47			0	38660	0	0	0	30784	29410	152016	26892	1079558	46538	111467	0	0	8133	511734	0	0
2024-08-13 23:26:47			0	38629	0	0	0	30789	29410	152088	26977	1079495	46526	111469	0	0	8131	512878	0	0
2024-08-13 23:27:47			0	38638	0	0	0	30786	29400	152112	26987	1079531	46559	111468	0	0	8131	512575	0	0
2024-08-13 23:28:47			0	38633	0	0	0	30784	29400	152012	27105	1079531	46525	111467	0	0	8131	512760	0	0
2024-08-13 23:29:47			0	38644	0	0	0	30781	29400	152052	26991	1079567	46538	111466	0	0	8132	512354	0	0
2024-08-13 23:30:47			0	38636	0	0	0	30781	29390	152084	27208	1079549	46536	111466	0	0	8131	512679	0	0
2024-08-13 23:31:47			0	38632	0	0	0	30784	29390	151940	27038	1079513	46536	111467	0	0	8131	512827	0	0
2024-08-13 23:32:47			0	38647	0	0	0	30784	29400	152100	27156	1079486	46538	111467	0	0	8132	512243	0	0
2024-08-13 23:33:47			0	38650	0	0	0	30776	29390	151936	27093	1079522	46558	111464	0	0	8132	512162	0	0
2024-08-13 23:34:47			0	38648	0	0	0	30776	29390	151936	27010	1079459	46536	111464	0	0	8132	512236	0	0
2024-08-13 23:35:47			0	38657	0	0	0	30781	29390	151984	26876	1079567	46546	111466	0	0	8133	511904	0	0
2024-08-13 23:36:47			0	38641	0	0	0	30784	29380	151904	26972	1079477	46545	111467	0	0	8132	512524	0	0
2024-08-13 23:37:47			0	38657	0	0	0	30779	29390	151896	26928	1079495	46536	111465	0	0	8133	511904	0	0
2024-08-13 23:38:47			0	38657	0	0	0	30786	29390	151824	26901	1079432	46546	111468	0	0	8132	511904	0	0
2024-08-13 23:39:47			0	38658	0	0	0	30779	29390	151788	27010	1079495	46536	111465	0	0	8133	511867	0	0
2024-08-13 23:40:47			0	38643	0	0	0	30776	29390	151880	26750	1079441	46536	111464	0	0	8132	512421	0	0
2024-08-13 23:41:47			0	38672	0	0	0	30779	29380	151848	27111	1079369	46557	111465	0	0	8133	511380	0	0
2024-08-13 23:42:47			0	38668	0	0	0	30779	29390	151792	26987	1079432	46536	111465	0	0	8133	511498	0	0
2024-08-13 23:43:47			0	38664	0	0	0	30776	29370	151876	26842	1079431	46522	111464	0	0	8133	511705	0	0
2024-08-13 23:44:47			0	38664	0	0	0	30771	29380	151816	26649	1079423	46535	111462	0	0	8133	511675	0	0
2024-08-13 23:45:47			0	38659	0	0	0	30771	29380	151828	26868	1079414	46523	111462	0	0	8133	511860	0	0
2024-08-13 23:46:47			0	38650	0	0	0	30766	29370	151796	26908	1079404	46522	111460	0	0	8132	512222	0	0
2024-08-13 23:47:47			0	38671	0	0	0	30761	29370	151812	27149	1079377	46544	111458	0	0	8134	511447	0	0
2024-08-13 23:48:47			0	38662	0	0	0	30763	29370	151828	27060	1079395	46534	111459	0	0	8133	511779	0	0
2024-08-13 23:49:47			0	38677	0	0	0	30753	29380	151800	26996	1079440	46535	111455	0	0	8134	511196	0	0
2024-08-13 23:50:47			0	38663	0	0	0	30761	29360	151800	26767	1079323	46543	111458	0	0	8133	511772	0	0
2024-08-13 23:51:47			0	38693	0	0	0	30763	29370	151848	27100	1079341	46522	111459	0	0	8135	510635	0	0
2024-08-13 23:52:47			0	38692	0	0	0	30763	29370	151804	26911	1079368	46544	111459	0	0	8135	510672	0	0
2024-08-13 23:53:47			0	38669	0	0	0	30766	29360	151680	27046	1079332	46533	111460	0	0	8133	511550	0	0
2024-08-13 23:54:47			0	38680	0	0	0	30748	29370	151760	26887	1079368	46534	111453	0	0	8134	511115	0	0
2024-08-13 23:55:47			0	38686	0	0	0	30755	29360	151792	27079	1079386	46533	111456	0	0	8134	510923	0	0
2024-08-13 23:56:47			0	38673	0	0	0	30761	29360	151692	27055	1079332	46533	111458	0	0	8134	511403	0	0
2024-08-13 23:57:47			0	38690	0	0	0	30761	29370	151692	27173	1079314	46534	111458	0	0	8135	510746	0	0
2024-08-13 23:58:47			0	38677	0	0	0	30758	29360	151684	26918	1079386	46543	111457	0	0	8134	511255	0	0
2024-08-13 23:59:47			0	38694	0	0	0	30753	29360	151548	27201	1079350	46543	111455	0	0	8135	510628	0	0
2024-08-14 00:00:47			0	38686	0	0	0	30758	29370	151616	27010	1079341	46544	111457	0	0	8134	510894	0	0
2024-08-14 00:01:47			0	38680	0	0	0	30750	29350	151624	26861	1079341	46542	111454	0	0	8134	511174	0	0
2024-08-14 00:02:47			0	38681	0	0	0	30748	29360	151652	26856	1079296	46543	111453	0	0	8134	511108	0	0
2024-08-14 00:03:47			0	38690	0	0	0	30758	29350	151596	27000	1079305	46520	111457	0	0	8135	510806	0	0
2024-08-14 00:04:47			0	38702	0	0	0	30755	29350	151676	26883	1079368	46532	111456	0	0	8135	510363	0	0
2024-08-14 00:05:47			0	38703	0	0	0	30755	29360	151612	27235	1079377	46543	111456	0	0	8135	510297	0	0
2024-08-14 00:06:47			0	38703	0	0	0	30748	29370	151592	26932	1079368	46544	111453	0	0	8136	510267	0	0
2024-08-14 00:07:47			0	38707	0	0	0	30755	29350	151588	26896	1079341	46542	111456	0	0	8136	510179	0	0
2024-08-14 00:08:47			0	38704	0	0	0	30748	29360	151580	26953	1079377	46555	111453	0	0	8136	510260	0	0
2024-08-14 00:09:47			0	38705	0	0	0	30750	29360	151496	26956	1079377	46533	111454	0	0	8136	510223	0	0
2024-08-14 00:10:47			0	38717	0	0	0	30753	29350	151612	27203	1079314	46521	111455	0	0	8136	509811	0	0
2024-08-14 00:11:47			0	38720	0	0	0	30748	29350	151516	26946	1079332	46531	111453	0	0	8136	509700	0	0
2024-08-14 00:12:47			0	38700	0	0	0	30742	29350	151544	26939	1079368	46542	111451	0	0	8135	510437	0	0
2024-08-14 00:13:47			0	38715	0	0	0	30742	29350	151472	26920	1079305	46541	111451	0	0	8136	509884	0	0
2024-08-14 00:14:47			0	38728	0	0	0	30737	29350	151457	27100	1079251	46531	111449	0	0	8137	509406	0	0
2024-08-14 00:15:47			0	38713	0	0	0	30737	29350	151564	27232	1079278	46531	111449	0	0	8136	509958	0	0
2024-08-14 00:16:47			0	38710	0	0	0	30735	29350	151468	26781	1079224	46541	111448	0	0	8136	510069	0	0
2024-08-14 00:17:47			0	38716	0	0	0	30735	29350	151460	27235	1079332	46541	111448	0	0	8136	509848	0	0
2024-08-14 00:18:47			0	38715	0	0	0	30742	29340	151472	27204	1079323	46541	111451	0	0	8136	509914	0	0
2024-08-14 00:19:47			0	38717	0	0	0	30727	29340	151376	27241	1079233	46541	111445	0	0	8137	509840	0	0
2024-08-14 00:20:47			0	38728	0	0	0	30735	29340	151497	27109	1079206	46531	111448	0	0	8137	509435	0	0
2024-08-14 00:21:47			0	38714	0	0	0	30732	29350	151396	26724	1079278	46520	111447	0	0	8136	509921	0	0
2024-08-14 00:22:47			0	38746	0	0	0	30724	29330	151337	27190	1079170	46530	111444	0	0	8138	508803	0	0
2024-08-14 00:23:47			0	38729	0	0	0	30727	29340	151365	26837	1079269	46531	111445	0	0	8137	509399	0	0
2024-08-14 00:24:47			0	38716	0	0	0	30729	29340	151368	27133	1079206	46541	111446	0	0	8137	509877	0	0
2024-08-14 00:25:47			0	38724	0	0	0	30729	29340	151369	27053	1079206	46541	111446	0	0	8137	509583	0	0
2024-08-14 00:26:47			0	38721	0	0	0	30727	29340	151376	26797	1079233	46553	111445	0	0	8137	509693	0	0
2024-08-14 00:27:47			0	38743	0	0	0	30737	29330	151385	27145	1079197	46541	111449	0	0	8138	508913	0	0
2024-08-14 00:28:47			0	38739	0	0	0	30727	29330	151305	26854	1079197	46530	111445	0	0	8138	509060	0	0
2024-08-14 00:29:47			0	38733	0	0	0	30727	29330	151405	27036	1079170	46541	111445	0	0	8137	509281	0	0
2024-08-14 00:30:47			0	38743	0	0	0	30727	29330	151285	26835	1079215	46540	111445	0	0	8138	508913	0	0
2024-08-14 00:31:47			0	38757	0	0	0	30727	29320	151265	27000	1079206	46529	111445	0	0	8139	508428	0	0
2024-08-14 00:32:47			0	38735	0	0	0	30732	29340	151261	27008	1079233	46531	111447	0	0	8138	509178	0	0
2024-08-14 00:33:47			0	38752	0	0	0	30724	29330	151273	26948	1079197	46541	111444	0	0	8139	508582	0	0
2024-08-14 00:34:47			0	38742	0	0	0	30727	29330	151329	27059	1079215	46529	111445	0	0	8138	508950	0	0
2024-08-14 00:35:47			0	38745	0	0	0	30729	29340	151293	26824	1079233	46541	111446	0	0	8138	508810	0	0
2024-08-14 00:36:47			0	38749	0	0	0	30716	29330	151337	26824	1079143	46519	111441	0	0	8139	508692	0	0
2024-08-14 00:37:47			0	38762	0	0	0	30722	29330	151317	26826	1079134	46540	111443	0	0	8139	508215	0	0
2024-08-14 00:38:47			0	38748	0	0	0	30714	29320	151321	26989	1079179	46529	111440	0	0	8139	508759	0	0
2024-08-14 00:39:47			0	38763	0	0	0	30711	29320	151229	26845	1079152	46529	111439	0	0	8139	508207	0	0
2024-08-14 00:40:47			0	38766	0	0	0	30701	29320	151261	26944	1079116	46528	111435	0	0	8140	508097	0	0
2024-08-14 00:41:47			0	38767	0	0	0	30703	29320	151193	26764	1079044	46540	111436	0	0	8140	508060	0	0
2024-08-14 00:42:47			0	38763	0	0	0	30698	29310	151225	27048	1079134	46528	111434	0	0	8140	508237	0	0
2024-08-14 00:43:47			0	38755	0	0	0	30693	29310	151165	26708	1079026	46539	111432	0	0	8139	508531	0	0
2024-08-14 00:44:47			0	38747	0	0	0	30688	29320	151205	27183	1079035	46516	111430	0	0	8139	508795	0	0
2024-08-14 00:45:47			0	38759	0	0	0	30696	29310	151121	27001	1079017	46538	111433	0	0	8139	508384	0	0
2024-08-14 00:46:47			0	38758	0	0	0	30680	29310	151281	27086	1079017	46549	111427	0	0	8140	508421	0	0
2024-08-14 00:47:47			0	38772	0	0	0	30683	29290	151189	27234	1078936	46526	111428	0	0	8140	507965	0	0
2024-08-14 00:48:47			0	38768	0	0	0	30677	29310	151165	27157	1079017	46527	111426	0	0	8140	508053	0	0
2024-08-14 00:49:47			0	38758	0	0	0	30675	29290	151237	26904	1078990	46548	111425	0	0	8140	508480	0	0
2024-08-14 00:50:47			0	38765	0	0	0	30677	29300	151161	26816	1078999	46548	111426	0	0	8140	508193	0	0
2024-08-14 00:51:47			0	38761	0	0	0	30672	29290	151233	26809	1078963	46537	111424	0	0	8140	508369	0	0
2024-08-14 00:52:47			0	38763	0	0	0	30677	29290	151193	26961	1078953	46536	111426	0	0	8140	508296	0	0
2024-08-14 00:53:47			0	38775	0	0	0	30662	29290	151197	26861	1078926	46513	111420	0	0	8141	507855	0	0
2024-08-14 00:54:47			0	38769	0	0	0	30667	29280	151141	27074	1078944	46536	111422	0	0	8140	508105	0	0
2024-08-14 00:55:47			0	38768	0	0	0	30672	29280	151105	26724	1078971	46536	111424	0	0	8140	508142	0	0
2024-08-14 00:56:47			0	38761	0	0	0	30675	29280	151181	26892	1078917	46525	111425	0	0	8140	508399	0	0
2024-08-14 00:57:47			0	38767	0	0	0	30680	29290	151145	26930	1078882	46526	111427	0	0	8140	508149	0	0
2024-08-14 00:58:47			0	38770	0	0	0	30670	29290	151081	27000	1078872	46525	111423	0	0	8140	508039	0	0
2024-08-14 00:59:47			0	38770	0	0	0	30672	29270	151125	26883	1078953	46535	111424	0	0	8140	508098	0	0
2024-08-14 01:00:47			0	38769	0	0	0	30659	29280	151109	27013	1078827	46535	111419	0	0	8140	508105	0	0
2024-08-14 01:01:47			0	38775	0	0	0	30654	29270	151109	26840	1078863	46534	111417	0	0	8141	507914	0	0
2024-08-14 01:02:47			0	38768	0	0	0	30659	29270	151249	26941	1078890	46534	111419	0	0	8140	508171	0	0
2024-08-14 01:03:47			0	38773	0	0	0	30667	29260	151193	26967	1078827	46522	111422	0	0	8140	508017	0	0
2024-08-14 01:04:47			0	38759	0	0	0	30662	29260	151065	27168	1078881	46522	111420	0	0	8140	508532	0	0
2024-08-14 01:05:47			0	38768	0	0	0	30651	29270	151125	27001	1078791	46535	111416	0	0	8140	508171	0	0
2024-08-14 01:06:47			0	38780	0	0	0	30657	29270	151165	26674	1078791	46524	111418	0	0	8141	507730	0	0
2024-08-14 01:07:47			0	38770	0	0	0	30659	29270	151193	26892	1078809	46523	111419	0	0	8140	508098	0	0
2024-08-14 01:08:47			0	38769	0	0	0	30649	29260	151061	26805	1078854	46544	111415	0	0	8141	508164	0	0
2024-08-14 01:09:47			0	38785	0	0	0	30644	29250	151073	26563	1078755	46532	111413	0	0	8141	507606	0	0
2024-08-14 01:10:47			0	38782	0	0	0	30641	29250	151117	26911	1078728	46521	111412	0	0	8141	507716	0	0
2024-08-14 01:11:47			0	38759	0	0	0	30638	29240	151049	27102	1078719	46532	111411	0	0	8140	508591	0	0
2024-08-14 01:12:47			0	38783	0	0	0	30638	29250	151085	27003	1078728	46521	111411	0	0	8141	507679	0	0
2024-08-14 01:13:47			0	38776	0	0	0	30638	29250	151125	27206	1078755	46510	111411	0	0	8141	507936	0	0
2024-08-14 01:14:47			0	38775	0	0	0	30636	29250	151129	26955	1078683	46522	111410	0	0	8141	507973	0	0
2024-08-14 01:15:47			0	38765	0	0	0	30628	29240	151069	26790	1078683	46531	111407	0	0	8141	508370	0	0
2024-08-14 01:16:47			0	38762	0	0	0	30633	29230	151057	26941	1078674	46531	111409	0	0	8140	508510	0	0
2024-08-14 01:17:47			0	38761	0	0	0	30625	29230	151177	27157	1078691	46519	111406	0	0	8140	508547	0	0
2024-08-14 01:18:47			0	38778	0	0	0	30636	29230	151157	26623	1078620	46520	111410	0	0	8141	507922	0	0
2024-08-14 01:19:47			0	38777	0	0	0	30625	29230	151109	26785	1078674	46531	111406	0	0	8141	507959	0	0
2024-08-14 01:20:47			0	38754	0	0	0	30631	29230	151041	26837	1078647	46531	111408	0	0	8140	508804	0	0
2024-08-14 01:21:47			0	38759	0	0	0	30625	29230	151173	26648	1078674	46520	111406	0	0	8140	508620	0	0
2024-08-14 01:22:47			0	38753	0	0	0	30623	29220	151173	26981	1078682	46530	111405	0	0	8140	508871	0	0
2024-08-14 01:23:47			0	38762	0	0	0	30625	29230	151133	26731	1078611	46507	111406	0	0	8140	508510	0	0
2024-08-14 01:24:47			0	38769	0	0	0	30623	29220	151085	26894	1078601	46541	111405	0	0	8141	508282	0	0
2024-08-14 01:25:47			0	38764	0	0	0	30623	29220	151157	26960	1078682	46530	111405	0	0	8141	508466	0	0
2024-08-14 01:26:47			0	38751	0	0	0	30615	29220	151097	26776	1078628	46519	111402	0	0	8140	508944	0	0
2024-08-14 01:27:47			0	38756	0	0	0	30610	29220	151101	27043	1078619	46529	111400	0	0	8140	508760	0	0
2024-08-14 01:28:47			0	38743	0	0	0	30612	29210	151057	27206	1078583	46518	111401	0	0	8139	509268	0	0
2024-08-14 01:29:47			0	38770	0	0	0	30618	29210	151021	26930	1078610	46529	111403	0	0	8141	508275	0	0
2024-08-14 01:30:47			0	38753	0	0	0	30612	29210	151025	27196	1078583	46529	111401	0	0	8140	508900	0	0
2024-08-14 01:31:47			0	38756	0	0	0	30615	29210	151157	27038	1078583	46529	111402	0	0	8140	508790	0	0
2024-08-14 01:32:47			0	38751	0	0	0	30615	29210	151053	27019	1078574	46540	111402	0	0	8140	508974	0	0
2024-08-14 01:33:47			0	38745	0	0	0	30612	29210	151145	26835	1078610	46529	111401	0	0	8140	509195	0	0
2024-08-14 01:34:47			0	38755	0	0	0	30610	29210	151125	27019	1078574	46517	111400	0	0	8140	508826	0	0
2024-08-14 01:35:47			0	38742	0	0	0	30612	29200	151153	26961	1078565	46527	111401	0	0	8139	509334	0	0
2024-08-14 01:36:47			0	38735	0	0	0	30602	29210	151189	27111	1078529	46529	111397	0	0	8139	509563	0	0
2024-08-14 01:37:47			0	38740	0	0	0	30607	29200	151045	26908	1078538	46516	111399	0	0	8139	509408	0	0
2024-08-14 01:38:47			0	38727	0	0	0	30599	29200	151161	27074	1078565	46527	111396	0	0	8139	509887	0	0
2024-08-14 01:39:47			0	38762	0	0	0	30594	29200	151141	27248	1078538	46539	111394	0	0	8141	508599	0	0
2024-08-14 01:40:47			0	38743	0	0	0	30599	29200	151169	26987	1078511	46527	111396	0	0	8140	509298	0	0
2024-08-14 01:41:47			0	38739	0	0	0	30602	29210	151089	26981	1078520	46540	111397	0	0	8139	509415	0	0
2024-08-14 01:42:47			0	38734	0	0	0	30602	29200	151237	26809	1078538	46527	111397	0	0	8139	509629	0	0
2024-08-14 01:43:47			0	38743	0	0	0	30605	29200	151201	27076	1078565	46527	111398	0	0	8140	509298	0	0
2024-08-14 01:44:47			0	38763	0	0	0	30594	29200	151233	26960	1078502	46527	111394	0	0	8141	508562	0	0
2024-08-14 01:45:47			0	38744	0	0	0	30602	29200	151101	26909	1078556	46527	111397	0	0	8140	509261	0	0
2024-08-14 01:46:47			0	38746	0	0	0	30586	29200	151261	26876	1078556	46527	111391	0	0	8140	509187	0	0
2024-08-14 01:47:47			0	38746	0	0	0	30597	29200	151097	26748	1078529	46516	111395	0	0	8140	509187	0	0
2024-08-14 01:48:47			0	38762	0	0	0	30592	29190	151205	26998	1078493	46516	111393	0	0	8141	508628	0	0
2024-08-14 01:49:47			0	38734	0	0	0	30584	29180	151161	27033	1078529	46514	111390	0	0	8139	509688	0	0
2024-08-14 01:50:47			0	38751	0	0	0	30594	29200	151081	27050	1078475	46527	111394	0	0	8140	509003	0	0
2024-08-14 01:51:47			0	38738	0	0	0	30592	29190	151073	27010	1078547	46527	111393	0	0	8139	509511	0	0
2024-08-14 01:52:47			0	38739	0	0	0	30589	29190	151037	26845	1078493	46527	111392	0	0	8140	509475	0	0
2024-08-14 01:53:47			0	38742	0	0	0	30589	29190	151081	27022	1078430	46515	111392	0	0	8140	509364	0	0
2024-08-14 01:54:47			0	38736	0	0	0	30592	29190	151113	26913	1078493	46516	111393	0	0	8139	509585	0	0
2024-08-14 01:55:47			0	38747	0	0	0	30589	29190	151157	26908	1078493	46516	111392	0	0	8140	509180	0	0
2024-08-14 01:56:47			0	38742	0	0	0	30589	29190	151061	26833	1078439	46527	111392	0	0	8140	509364	0	0
2024-08-14 01:57:47			0	38745	0	0	0	30581	29190	150941	27043	1078484	46515	111389	0	0	8140	509254	0	0
2024-08-14 01:58:47			0	38748	0	0	0	30586	29190	150965	26885	1078493	46516	111391	0	0	8140	509143	0	0
2024-08-14 01:59:47			0	38752	0	0	0	30579	29180	151013	27109	1078475	46514	111388	0	0	8140	509026	0	0
2024-08-14 02:00:47			0	38749	0	0	0	30581	29180	150953	26991	1078448	46525	111389	0	0	8140	509136	0	0
2024-08-14 02:01:47			0	38737	0	0	0	30574	29180	151021	26892	1078475	46514	111386	0	0	8140	509578	0	0
2024-08-14 02:02:47			0	38731	0	0	0	30576	29180	150936	26882	1078394	46525	111387	0	0	8139	509799	0	0
2024-08-14 02:03:47			0	38745	0	0	0	30576	29170	150993	26703	1078403	46525	111387	0	0	8140	509313	0	0
2024-08-14 02:04:47			0	38731	0	0	0	30579	29190	151076	26791	1078430	46515	111388	0	0	8139	509769	0	0
2024-08-14 02:05:47			0	38730	0	0	0	30566	29180	150985	26783	1078385	46525	111383	0	0	8139	509836	0	0
2024-08-14 02:06:47			0	38728	0	0	0	30574	29180	150981	27093	1078421	46525	111386	0	0	8139	509909	0	0
2024-08-14 02:07:47			0	38729	0	0	0	30568	29180	150960	26797	1078412	46514	111384	0	0	8139	509872	0	0
2024-08-14 02:08:47			0	38735	0	0	0	30571	29180	151037	27329	1078331	46514	111385	0	0	8140	509651	0	0
2024-08-14 02:09:47			0	38733	0	0	0	30574	29170	150985	26856	1078340	46524	111386	0	0	8139	509755	0	0
2024-08-14 02:10:47			0	38741	0	0	0	30571	29170	151029	27086	1078340	46536	111385	0	0	8140	509460	0	0
2024-08-14 02:11:47			0	38733	0	0	0	30563	29170	151029	26807	1078403	46525	111382	0	0	8140	509755	0	0
2024-08-14 02:12:47			0	38726	0	0	0	30555	29170	151005	26691	1078313	46524	111379	0	0	8139	510012	0	0
2024-08-14 02:13:47			0	38747	0	0	0	30561	29170	150993	26674	1078367	46513	111381	0	0	8140	509239	0	0
2024-08-14 02:14:47			0	38715	0	0	0	30563	29170	151004	26854	1078340	46513	111382	0	0	8139	510418	0	0
2024-08-14 02:15:47			0	38705	0	0	0	30563	29160	151020	26849	1078295	46512	111382	0	0	8138	510816	0	0
2024-08-14 02:16:47			0	38729	0	0	0	30558	29160	151025	26850	1078250	46523	111380	0	0	8139	509932	0	0
2024-08-14 02:17:47			0	38721	0	0	0	30558	29170	150984	26637	1078268	46525	111380	0	0	8139	510197	0	0
2024-08-14 02:18:47			0	38754	0	0	0	30555	29150	151041	26918	1078313	46534	111379	0	0	8141	509041	0	0
2024-08-14 02:19:47			0	38715	0	0	0	30555	29170	151092	26828	1078340	46513	111379	0	0	8139	510418	0	0
2024-08-14 02:20:47			0	38731	0	0	0	30548	29160	151069	26861	1078277	46523	111376	0	0	8140	509858	0	0
2024-08-14 02:21:47			0	38717	0	0	0	30550	29160	151020	26889	1078223	46523	111377	0	0	8139	510374	0	0
2024-08-14 02:22:47			0	38713	0	0	0	30545	29150	151052	26849	1078223	46522	111375	0	0	8139	510551	0	0
2024-08-14 02:23:47			0	38728	0	0	0	30535	29150	151100	26845	1078232	46522	111371	0	0	8140	509998	0	0
2024-08-14 02:24:47			0	38706	0	0	0	30537	29150	150940	27031	1078205	46500	111372	0	0	8138	510809	0	0
2024-08-14 02:25:47			0	38714	0	0	0	30532	29150	151052	26845	1078232	46511	111370	0	0	8139	510514	0	0
2024-08-14 02:26:47			0	38704	0	0	0	30529	29140	151108	27003	1078186	46500	111369	0	0	8138	510913	0	0
2024-08-14 02:27:47			0	38702	0	0	0	30532	29140	151144	26814	1078186	46510	111370	0	0	8138	510986	0	0
2024-08-14 02:28:47			0	38714	0	0	0	30522	29140	151076	26658	1078123	46520	111366	0	0	8139	510544	0	0
2024-08-14 02:29:47			0	38709	0	0	0	30519	29120	151116	26764	1078096	46519	111365	0	0	8139	510787	0	0
2024-08-14 02:30:47			0	38703	0	0	0	30516	29130	151224	26710	1078078	46520	111364	0	0	8138	510979	0	0
2024-08-14 02:31:47			0	38710	0	0	0	30516	29140	151240	26694	1078123	46520	111364	0	0	8139	510691	0	0
2024-08-14 02:32:47			0	38710	0	0	0	30522	29130	151044	26785	1078105	46509	111366	0	0	8139	510721	0	0
2024-08-14 02:33:47			0	38718	0	0	0	30514	29120	151092	26665	1078096	46519	111363	0	0	8139	510456	0	0
2024-08-14 02:34:47			0	38713	0	0	0	30511	29120	151148	27039	1078096	46519	111362	0	0	8139	510640	0	0
2024-08-14 02:35:47			0	38704	0	0	0	30506	29130	151204	27098	1078078	46498	111360	0	0	8139	510942	0	0
2024-08-14 02:36:47			0	38713	0	0	0	30506	29120	151128	27086	1078069	46519	111360	0	0	8139	510640	0	0
2024-08-14 02:37:47			0	38710	0	0	0	30509	29130	151128	27033	1078105	46520	111361	0	0	8139	510721	0	0
2024-08-14 02:38:47			0	38688	0	0	0	30498	29120	151136	26729	1078042	46519	111357	0	0	8138	511562	0	0
2024-08-14 02:39:47			0	38694	0	0	0	30503	29120	151132	27100	1078087	46518	111359	0	0	8138	511341	0	0
2024-08-14 02:40:47			0	38705	0	0	0	30498	29110	151120	26571	1077988	46530	111357	0	0	8139	510965	0	0
2024-08-14 02:41:47			0	38705	0	0	0	30509	29110	151112	26845	1078078	46518	111361	0	0	8139	510965	0	0
2024-08-14 02:42:47			0	38703	0	0	0	30506	29110	151056	26667	1078078	46507	111360	0	0	8139	511038	0	0
2024-08-14 02:43:47			0	38707	0	0	0	30506	29110	151140	27038	1078042	46518	111360	0	0	8139	510891	0	0
2024-08-14 02:44:47			0	38700	0	0	0	30501	29100	151040	26840	1078006	46517	111358	0	0	8138	511179	0	0
2024-08-14 02:45:47			0	38700	0	0	0	30496	29110	151096	26965	1077970	46530	111356	0	0	8139	511149	0	0
2024-08-14 02:46:47			0	38698	0	0	0	30503	29110	151144	27000	1077997	46518	111359	0	0	8138	511223	0	0
2024-08-14 02:47:47			0	38698	0	0	0	30498	29110	151104	27140	1078015	46530	111357	0	0	8138	511223	0	0
2024-08-14 02:48:47			0	38697	0	0	0	30496	29110	150980	27137	1078015	46518	111356	0	0	8138	511260	0	0
2024-08-14 02:49:47			0	38711	0	0	0	30498	29100	151168	27079	1077952	46529	111357	0	0	8139	510773	0	0
2024-08-14 02:50:47			0	38711	0	0	0	30493	29100	151016	26915	1077979	46517	111355	0	0	8139	510773	0	0
2024-08-14 02:51:47			0	38708	0	0	0	30485	29100	151044	26634	1077979	46506	111352	0	0	8139	510884	0	0
2024-08-14 02:52:47			0	38685	0	0	0	30490	29100	151064	27239	1078033	46517	111354	0	0	8138	511732	0	0
2024-08-14 02:53:47			0	38694	0	0	0	30496	29100	151116	27066	1078006	46529	111356	0	0	8138	511400	0	0
2024-08-14 02:54:47			0	38718	0	0	0	30493	29100	151104	27046	1078024	46505	111355	0	0	8140	510515	0	0
2024-08-14 02:55:47			0	38702	0	0	0	30501	29100	151044	26908	1077997	46516	111358	0	0	8139	511105	0	0
2024-08-14 02:56:47			0	38692	0	0	0	30496	29100	151140	26892	1078033	46529	111356	0	0	8138	511474	0	0
2024-08-14 02:57:47			0	38700	0	0	0	30490	29090	151064	27007	1077907	46516	111354	0	0	8139	511208	0	0
2024-08-14 02:58:47			0	38707	0	0	0	30493	29100	151144	26930	1078024	46516	111355	0	0	8139	510920	0	0
2024-08-14 02:59:47			0	38703	0	0	0	30490	29100	151108	26729	1077943	46528	111354	0	0	8139	511068	0	0
2024-08-14 03:00:47			0	38689	0	0	0	30493	29100	151024	27024	1077943	46505	111355	0	0	8138	511585	0	0
2024-08-14 03:01:47			0	38704	0	0	0	30488	29100	151068	26961	1077916	46516	111353	0	0	8139	511031	0	0
2024-08-14 03:02:47			0	38701	0	0	0	30483	29090	151044	27072	1077961	46528	111351	0	0	8139	511172	0	0
2024-08-14 03:03:47			0	38697	0	0	0	30477	29090	151008	26949	1077898	46528	111349	0	0	8139	511319	0	0
2024-08-14 03:04:47			0	38691	0	0	0	30477	29090	151124	26837	1077934	46516	111349	0	0	8138	511541	0	0
2024-08-14 03:05:47			0	38706	0	0	0	30472	29090	151048	26778	1077925	46516	111347	0	0	8139	510987	0	0
2024-08-14 03:06:47			0	38696	0	0	0	30475	29080	151128	26835	1077889	46515	111348	0	0	8139	511386	0	0
2024-08-14 03:07:47			0	38690	0	0	0	30472	29090	151048	26668	1077907	46528	111347	0	0	8138	511578	0	0
2024-08-14 03:08:47			0	38692	0	0	0	30477	29090	151164	26790	1077907	46528	111349	0	0	8138	511504	0	0
2024-08-14 03:09:47			0	38692	0	0	0	30477	29090	151092	26717	1077871	46516	111349	0	0	8138	511504	0	0
2024-08-14 03:10:47			0	38700	0	0	0	30472	29090	151060	27022	1077898	46539	111347	0	0	8139	511208	0	0
2024-08-14 03:11:47			0	38703	0	0	0	30470	29080	151072	27229	1077862	46515	111346	0	0	8139	511127	0	0
2024-08-14 03:12:47			0	38686	0	0	0	30470	29080	151060	27059	1077916	46515	111346	0	0	8138	511755	0	0
2024-08-14 03:13:47			0	38688	0	0	0	30472	29080	151080	27045	1077916	46504	111347	0	0	8138	511681	0	0
2024-08-14 03:14:47			0	38683	0	0	0	30462	29070	151044	26970	1077790	46525	111343	0	0	8138	511895	0	0
2024-08-14 03:15:47			0	38688	0	0	0	30459	29070	151152	26864	1077835	46513	111342	0	0	8138	511711	0	0
2024-08-14 03:16:47			0	38687	0	0	0	30464	29080	151200	27010	1077880	46526	111344	0	0	8138	511718	0	0
2024-08-14 03:17:47			0	38670	0	0	0	30457	29070	151236	26963	1077835	46513	111341	0	0	8137	512376	0	0
2024-08-14 03:18:47			0	38683	0	0	0	30462	29070	151168	26991	1077835	46513	111343	0	0	8138	511895	0	0
2024-08-14 03:19:47			0	38671	0	0	0	30459	29080	151184	27072	1077835	46504	111342	0	0	8137	512309	0	0
2024-08-14 03:20:47			0	38658	0	0	0	30459	29080	151196	27036	1077808	46527	111342	0	0	8137	512790	0	0
2024-08-14 03:21:47			0	38678	0	0	0	30462	29070	151240	27112	1077790	46525	111343	0	0	8138	512080	0	0
2024-08-14 03:22:47			0	38662	0	0	0	30467	29070	151112	27062	1077862	46513	111345	0	0	8137	512672	0	0
2024-08-14 03:23:47			0	38666	0	0	0	30462	29070	151164	26908	1077700	46513	111343	0	0	8137	512524	0	0
2024-08-14 03:24:47			0	38662	0	0	0	30446	29070	151240	27109	1077790	46513	111337	0	0	8137	512672	0	0
2024-08-14 03:25:47			0	38665	0	0	0	30457	29060	151220	27249	1077826	46513	111341	0	0	8137	512590	0	0
2024-08-14 03:26:47			0	38659	0	0	0	30449	29070	151184	26968	1077781	46513	111338	0	0	8137	512782	0	0
2024-08-14 03:27:47			0	38658	0	0	0	30449	29070	151268	27045	1077790	46513	111338	0	0	8137	512819	0	0
2024-08-14 03:28:47			0	38672	0	0	0	30449	29060	151204	26816	1077772	46502	111338	0	0	8137	512332	0	0
2024-08-14 03:29:47			0	38662	0	0	0	30457	29060	151116	27152	1077799	46525	111341	0	0	8137	512701	0	0
2024-08-14 03:30:47			0	38669	0	0	0	30449	29050	151312	27121	1077781	46523	111338	0	0	8137	512472	0	0
2024-08-14 03:31:47			0	38674	0	0	0	30462	29070	151160	26989	1077736	46513	111343	0	0	8137	512228	0	0
2024-08-14 03:32:47			0	38635	0	0	0	30462	29060	151296	27261	1077763	46512	111343	0	0	8135	513700	0	0
2024-08-14 03:33:47			0	38669	0	0	0	30454	29070	151188	26930	1077781	46502	111340	0	0	8137	512413	0	0
2024-08-14 03:34:47			0	38645	0	0	0	30454	29060	151272	26961	1077763	46524	111340	0	0	8136	513330	0	0
2024-08-14 03:35:47			0	38653	0	0	0	30451	29060	151136	26970	1077736	46512	111339	0	0	8136	513034	0	0
2024-08-14 03:36:47			0	38645	0	0	0	30449	29060	151364	27183	1077745	46513	111338	0	0	8136	513330	0	0
2024-08-14 03:37:47			0	38666	0	0	0	30446	29050	151280	27164	1077781	46523	111337	0	0	8137	512583	0	0
2024-08-14 03:38:47			0	38642	0	0	0	30449	29060	151208	26996	1077745	46513	111338	0	0	8136	513441	0	0
2024-08-14 03:39:47			0	38653	0	0	0	30446	29050	151312	27086	1077646	46511	111337	0	0	8136	513064	0	0
2024-08-14 03:40:47			0	38644	0	0	0	30446	29040	151224	27204	1077681	46511	111337	0	0	8136	513426	0	0
2024-08-14 03:41:47			0	38655	0	0	0	30438	29060	151284	26998	1077682	46501	111334	0	0	8137	512960	0	0
2024-08-14 03:42:47			0	38656	0	0	0	30444	29050	151164	27230	1077673	46523	111336	0	0	8137	512953	0	0
2024-08-14 03:43:47			0	38644	0	0	0	30449	29050	151320	27026	1077727	46534	111338	0	0	8136	513397	0	0
2024-08-14 03:44:47			0	38650	0	0	0	30441	29040	151256	27039	1077655	46511	111335	0	0	8136	513204	0	0
2024-08-14 03:45:47			0	38644	0	0	0	30436	29040	151220	27071	1077628	46523	111333	0	0	8136	513426	0	0
2024-08-14 03:46:47			0	38642	0	0	0	30431	29040	151236	26975	1077574	46511	111331	0	0	8136	513501	0	0
2024-08-14 03:47:47			0	38651	0	0	0	30436	29050	151192	26981	1077673	46500	111333	0	0	8136	513138	0	0
2024-08-14 03:48:47			0	38636	0	0	0	30433	29050	151188	27201	1077664	46500	111332	0	0	8136	513693	0	0
2024-08-14 03:49:47			0	38617	0	0	0	30436	29040	151128	27164	1077601	46511	111333	0	0	8134	514426	0	0
2024-08-14 03:50:47			0	38639	0	0	0	30431	29050	151196	26868	1077673	46511	111331	0	0	8136	513582	0	0
2024-08-14 03:51:47			0	38625	0	0	0	30436	29040	151232	27038	1077655	46511	111333	0	0	8135	514130	0	0
2024-08-14 03:52:47			0	38631	0	0	0	30433	29040	151288	26906	1077574	46511	111332	0	0	8135	513908	0	0
2024-08-14 03:53:47			0	38619	0	0	0	30425	29040	151264	27230	1077601	46523	111329	0	0	8135	514352	0	0
2024-08-14 03:54:47			0	38610	0	0	0	30425	29040	151264	27048	1077628	46511	111329	0	0	8134	514685	0	0
2024-08-14 03:55:47			0	38618	0	0	0	30433	29030	151320	26876	1077636	46509	111332	0	0	8135	514419	0	0
2024-08-14 03:56:47			0	38623	0	0	0	30428	29050	151296	26920	1077664	46523	111330	0	0	8135	514174	0	0
2024-08-14 03:57:47			0	38609	0	0	0	30428	29040	151292	26956	1077601	46511	111330	0	0	8134	514723	0	0
2024-08-14 03:58:47			0	38620	0	0	0	30438	29040	151176	27138	1077655	46490	111334	0	0	8135	514315	0	0
2024-08-14 03:59:47			0	38621	0	0	0	30431	29040	151240	26942	1077628	46523	111331	0	0	8135	514278	0	0
2024-08-14 04:00:47			0	38613	0	0	0	30436	29040	151236	26948	1077618	46510	111333	0	0	8134	514574	0	0
2024-08-14 04:01:47			0	38623	0	0	0	30431	29040	151140	26970	1077645	46500	111331	0	0	8135	514204	0	0
2024-08-14 04:02:47			0	38598	0	0	0	30433	29040	151212	26916	1077618	46522	111332	0	0	8133	515130	0	0
2024-08-14 04:03:47			0	38611	0	0	0	30431	29040	151124	26706	1077645	46510	111331	0	0	8134	514648	0	0
2024-08-14 04:04:47			0	38618	0	0	0	30428	29040	151212	26994	1077655	46511	111330	0	0	8135	514389	0	0
2024-08-14 04:05:47			0	38603	0	0	0	30438	29040	151220	26786	1077655	46511	111334	0	0	8134	514945	0	0
2024-08-14 04:06:47			0	38613	0	0	0	30433	29040	151248	26977	1077618	46533	111332	0	0	8134	514574	0	0
2024-08-14 04:07:47			0	38621	0	0	0	30431	29040	151176	26986	1077591	46500	111331	0	0	8135	514278	0	0
2024-08-14 04:08:47			0	38609	0	0	0	30436	29040	151232	27121	1077699	46522	111333	0	0	8134	514723	0	0
2024-08-14 04:09:47			0	38603	0	0	0	30420	29030	151220	26911	1077609	46521	111327	0	0	8134	514975	0	0
2024-08-14 04:10:47			0	38616	0	0	0	30425	29020	151212	27000	1077591	46521	111329	0	0	8135	514523	0	0
2024-08-14 04:11:47			0	38600	0	0	0	30423	29030	151288	27043	1077663	46521	111328	0	0	8134	515086	0	0
2024-08-14 04:12:47			0	38588	0	0	0	30428	29030	151296	27166	1077546	46509	111330	0	0	8133	515531	0	0
2024-08-14 04:13:47			0	38597	0	0	0	30425	29030	151308	26974	1077663	46509	111329	0	0	8133	515197	0	0
2024-08-14 04:14:47			0	38596	0	0	0	30420	29020	151328	26948	1077591	46521	111327	0	0	8133	515264	0	0
2024-08-14 04:15:47			0	38584	0	0	0	30425	29030	151276	27159	1077546	46509	111329	0	0	8133	515680	0	0
2024-08-14 04:16:47			0	38593	0	0	0	30415	29030	151300	27118	1077600	46521	111325	0	0	8133	515346	0	0
2024-08-14 04:17:47			0	38589	0	0	0	30418	29020	151288	26885	1077537	46521	111326	0	0	8133	515524	0	0
2024-08-14 04:18:47			0	38605	0	0	0	30415	29020	151268	27168	1077591	46509	111325	0	0	8134	514931	0	0
2024-08-14 04:19:47			0	38585	0	0	0	30420	29020	151356	27100	1077591	46521	111327	0	0	8133	515672	0	0
2024-08-14 04:20:47			0	38598	0	0	0	30423	29020	151312	27220	1077528	46508	111328	0	0	8134	515190	0	0
2024-08-14 04:21:47			0	38571	0	0	0	30412	29020	151420	26739	1077510	46521	111324	0	0	8132	516192	0	0
2024-08-14 04:22:47			0	38588	0	0	0	30420	29020	151308	27092	1077537	46521	111327	0	0	8133	515561	0	0
2024-08-14 04:23:47			0	38590	0	0	0	30402	29020	151404	26759	1077501	46508	111320	0	0	8133	515487	0	0
2024-08-14 04:24:47			0	38579	0	0	0	30410	29020	151452	26994	1077582	46520	111323	0	0	8133	515895	0	0
2024-08-14 04:25:47			0	38594	0	0	0	30418	29030	151520	26785	1077519	46509	111326	0	0	8133	515309	0	0
2024-08-14 04:26:47			0	38599	0	0	0	30405	29010	151452	27045	1077492	46519	111321	0	0	8134	515183	0	0
2024-08-14 04:27:47			0	38589	0	0	0	30415	29020	151440	27203	1077564	46521	111325	0	0	8133	515524	0	0
2024-08-14 04:28:47			0	38585	0	0	0	30407	29010	151440	27039	1077519	46519	111322	0	0	8133	515702	0	0
2024-08-14 04:29:47			0	38590	0	0	0	30412	29020	151476	27144	1077528	46498	111324	0	0	8133	515487	0	0
2024-08-14 04:30:47			0	38560	0	0	0	30407	29020	151344	27097	1077537	46521	111322	0	0	8132	516600	0	0
2024-08-14 04:31:47			0	38577	0	0	0	30399	29020	151448	27007	1077501	46520	111319	0	0	8133	515969	0	0
2024-08-14 04:32:47			0	38565	0	0	0	30392	29010	151408	27197	1077483	46518	111316	0	0	8132	516445	0	0
2024-08-14 04:33:47			0	38583	0	0	0	30392	29010	151320	27300	1077492	46519	111316	0	0	8133	515776	0	0
2024-08-14 04:34:47			0	38589	0	0	0	30394	29010	151400	27140	1077456	46506	111317	0	0	8133	515554	0	0
2024-08-14 04:35:47			0	38577	0	0	0	30394	29010	151340	27079	1077483	46518	111317	0	0	8133	515999	0	0
2024-08-14 04:36:47			0	38554	0	0	0	30389	29000	151380	27079	1077420	46518	111315	0	0	8132	516883	0	0
2024-08-14 04:37:47			0	38576	0	0	0	30386	29010	151412	27043	1077519	46519	111314	0	0	8133	516036	0	0
2024-08-14 04:38:47			0	38556	0	0	0	30389	29010	151440	27180	1077465	46507	111315	0	0	8132	516779	0	0
2024-08-14 04:39:47			0	38562	0	0	0	30384	29000	151356	27294	1077420	46518	111313	0	0	8132	516586	0	0
2024-08-14 04:40:47			0	38570	0	0	0	30389	29000	151452	27074	1077474	46506	111315	0	0	8132	516289	0	0
2024-08-14 04:41:47			0	38593	0	0	0	30379	29000	151400	27275	1077474	46506	111311	0	0	8134	515435	0	0
2024-08-14 04:42:47			0	38567	0	0	0	30381	29000	151420	27114	1077438	46518	111312	0	0	8132	516400	0	0
2024-08-14 04:43:47			0	38560	0	0	0	30381	28990	151448	27211	1077402	46505	111312	0	0	8132	516690	0	0
2024-08-14 04:44:47			0	38555	0	0	0	30376	29000	151380	27149	1077393	46518	111310	0	0	8132	516846	0	0
2024-08-14 04:45:47			0	38572	0	0	0	30386	28990	151508	26939	1077339	46516	111314	0	0	8133	516245	0	0
2024-08-14 04:46:47			0	38571	0	0	0	30384	29000	151392	27227	1077411	46506	111313	0	0	8133	516252	0	0
2024-08-14 04:47:47			0	38556	0	0	0	30381	29000	151536	26909	1077411	46506	111312	0	0	8132	516809	0	0
2024-08-14 04:48:47			0	38572	0	0	0	30386	28990	151580	27128	1077420	46516	111314	0	0	8133	516245	0	0
2024-08-14 04:49:47			0	38551	0	0	0	30381	28990	151444	26788	1077366	46504	111312	0	0	8131	517025	0	0
2024-08-14 04:50:47			0	38575	0	0	0	30381	28990	151340	27097	1077420	46504	111312	0	0	8133	516133	0	0
2024-08-14 04:51:47			0	38569	0	0	0	30381	29000	151452	26916	1077420	46506	111312	0	0	8133	516326	0	0
2024-08-14 04:52:47			0	38549	0	0	0	30376	28990	151484	27327	1077420	46516	111310	0	0	8131	517099	0	0
2024-08-14 04:53:47			0	38570	0	0	0	30376	28990	151448	27043	1077366	46504	111310	0	0	8133	516319	0	0
2024-08-14 04:54:47			0	38560	0	0	0	30373	28990	151384	26811	1077366	46516	111309	0	0	8132	516690	0	0
2024-08-14 04:55:47			0	38562	0	0	0	30373	28980	151408	26849	1077330	46504	111309	0	0	8132	516646	0	0
2024-08-14 04:56:47			0	38559	0	0	0	30373	28970	151440	26975	1077366	46515	111309	0	0	8132	516788	0	0
2024-08-14 04:57:47			0	38562	0	0	0	30368	28980	151440	26871	1077330	46494	111307	0	0	8132	516646	0	0
2024-08-14 04:58:47			0	38564	0	0	0	30361	28980	151468	26753	1077411	46504	111304	0	0	8132	516572	0	0
2024-08-14 04:59:47			0	38556	0	0	0	30363	28970	151424	26811	1077312	46515	111305	0	0	8132	516899	0	0
2024-08-14 05:00:47			0	38556	0	0	0	30368	28970	151456	27029	1077285	46503	111307	0	0	8132	516899	0	0
2024-08-14 05:01:47			0	38564	0	0	0	30361	28980	151424	26850	1077267	46504	111304	0	0	8132	516572	0	0
2024-08-14 05:02:47			0	38566	0	0	0	30353	28970	151420	26920	1077339	46503	111301	0	0	8133	516527	0	0
2024-08-14 05:03:47			0	38553	0	0	0	30363	28970	151492	26887	1077204	46493	111305	0	0	8132	517010	0	0
2024-08-14 05:04:47			0	38566	0	0	0	30361	28970	151460	26897	1077312	46515	111304	0	0	8133	516527	0	0
2024-08-14 05:05:47			0	38557	0	0	0	30353	28970	151472	26543	1077312	46526	111301	0	0	8132	516862	0	0
2024-08-14 05:06:47			0	38563	0	0	0	30348	28970	151536	26649	1077339	46503	111299	0	0	8133	516639	0	0
2024-08-14 05:07:47			0	38551	0	0	0	30353	28960	151452	26850	1077213	46492	111301	0	0	8132	517115	0	0
2024-08-14 05:08:47			0	38545	0	0	0	30348	28960	151524	26925	1077240	46502	111299	0	0	8132	517338	0	0
2024-08-14 05:09:47			0	38550	0	0	0	30353	28960	151556	26961	1077267	46514	111301	0	0	8132	517152	0	0
2024-08-14 05:10:47			0	38544	0	0	0	30350	28960	151424	26654	1077240	46525	111300	0	0	8131	517375	0	0
2024-08-14 05:11:47			0	38540	0	0	0	30350	28970	151540	26788	1077222	46492	111300	0	0	8131	517494	0	0
2024-08-14 05:12:47			0	38538	0	0	0	30348	28960	151508	27118	1077267	46514	111299	0	0	8131	517598	0	0
2024-08-14 05:13:47			0	38548	0	0	0	30340	28960	151572	26679	1077213	46502	111296	0	0	8132	517226	0	0
2024-08-14 05:14:47			0	38545	0	0	0	30345	28950	151360	26694	1077177	46514	111298	0	0	8132	517368	0	0
2024-08-14 05:15:47			0	38536	0	0	0	30350	28940	151484	26894	1077158	46500	111300	0	0	8131	517733	0	0
2024-08-14 05:16:47			0	38535	0	0	0	30342	28950	151484	26823	1077258	46502	111297	0	0	8131	517740	0	0
2024-08-14 05:17:47			0	38536	0	0	0	30340	28950	151496	27041	1077195	46501	111296	0	0	8131	517703	0	0
2024-08-14 05:18:47			0	38533	0	0	0	30335	28940	151452	26885	1077203	46500	111294	0	0	8131	517844	0	0
2024-08-14 05:19:47			0	38541	0	0	0	30337	28950	151476	27286	1077248	46501	111295	0	0	8131	517517	0	0
2024-08-14 05:20:47			0	38526	0	0	0	30337	28930	151512	26960	1077167	46500	111295	0	0	8130	518135	0	0
2024-08-14 05:21:47			0	38528	0	0	0	30332	28940	151440	26537	1077122	46500	111293	0	0	8131	518030	0	0
2024-08-14 05:22:47			0	38547	0	0	0	30335	28930	151480	26885	1077194	46500	111294	0	0	8132	517353	0	0
2024-08-14 05:23:47			0	38542	0	0	0	30335	28930	151504	27138	1077140	46511	111294	0	0	8131	517539	0	0
2024-08-14 05:24:47			0	38526	0	0	0	30329	28930	151512	26604	1077140	46489	111292	0	0	8131	518135	0	0
2024-08-14 05:25:47			0	38532	0	0	0	30324	28920	151480	26767	1077095	46510	111290	0	0	8131	517941	0	0
2024-08-14 05:26:47			0	38514	0	0	0	30327	28930	151520	26904	1077104	46500	111291	0	0	8130	518581	0	0
2024-08-14 05:27:47			0	38527	0	0	0	30316	28930	151460	26970	1077050	46500	111287	0	0	8131	518097	0	0
2024-08-14 05:28:47			0	38519	0	0	0	30324	28920	151484	26864	1077095	46510	111290	0	0	8130	518425	0	0
2024-08-14 05:29:47			0	38529	0	0	0	30314	28930	151392	26970	1077140	46500	111286	0	0	8131	518023	0	0
2024-08-14 05:30:47			0	38521	0	0	0	30316	28930	151392	26963	1077077	46500	111287	0	0	8131	518321	0	0
2024-08-14 05:31:47			0	38514	0	0	0	30311	28920	151516	26977	1077005	46509	111285	0	0	8130	518612	0	0
2024-08-14 05:32:47			0	38539	0	0	0	30303	28920	151512	26807	1077041	46499	111282	0	0	8132	517681	0	0
2024-08-14 05:33:47			0	38510	0	0	0	30306	28910	151444	26927	1077077	46487	111283	0	0	8130	518791	0	0
2024-08-14 05:34:47			0	38531	0	0	0	30301	28910	151424	27237	1077014	46509	111281	0	0	8131	518009	0	0
2024-08-14 05:35:47			0	38522	0	0	0	30288	28910	151428	26981	1077014	46487	111276	0	0	8131	518344	0	0
2024-08-14 05:36:47			0	38524	0	0	0	30288	28900	151412	27119	1076978	46508	111276	0	0	8131	518299	0	0
2024-08-14 05:37:47			0	38517	0	0	0	30290	28900	151332	26896	1076942	46496	111277	0	0	8131	518560	0	0
2024-08-14 05:38:47			0	38530	0	0	0	30288	28900	151472	26965	1076951	46498	111276	0	0	8131	518076	0	0
2024-08-14 05:39:47			0	38506	0	0	0	30296	28890	151392	26901	1076960	46496	111279	0	0	8130	519000	0	0
2024-08-14 05:40:47			0	38515	0	0	0	30283	28890	151488	27003	1076924	46496	111274	0	0	8131	518665	0	0
2024-08-14 05:41:47			0	38520	0	0	0	30285	28890	151512	27052	1076933	46518	111275	0	0	8131	518478	0	0
2024-08-14 05:42:47			0	38522	0	0	0	30283	28900	151512	26736	1076888	46496	111274	0	0	8131	518374	0	0
2024-08-14 05:43:47			0	38526	0	0	0	30272	28890	151500	27083	1076978	46507	111270	0	0	8131	518255	0	0
2024-08-14 05:44:47			0	38511	0	0	0	30285	28890	151460	26866	1076906	46507	111275	0	0	8130	518813	0	0
2024-08-14 05:45:47			0	38517	0	0	0	30280	28880	151508	27095	1076852	46516	111273	0	0	8131	518620	0	0
2024-08-14 05:46:47			0	38519	0	0	0	30280	28880	151528	26986	1076834	46495	111273	0	0	8131	518546	0	0
2024-08-14 05:47:47			0	38506	0	0	0	30275	28890	151560	27015	1076870	46496	111271	0	0	8130	519000	0	0
2024-08-14 05:48:47			0	38502	0	0	0	30283	28870	151532	27092	1076897	46494	111274	0	0	8130	519209	0	0
2024-08-14 05:49:47			0	38506	0	0	0	30283	28890	151508	27157	1076870	46485	111274	0	0	8130	519000	0	0
2024-08-14 05:50:47			0	38511	0	0	0	30277	28880	151512	27320	1076906	46494	111272	0	0	8130	518844	0	0
2024-08-14 05:51:47			0	38519	0	0	0	30272	28870	151532	27020	1076870	46494	111270	0	0	8131	518576	0	0
2024-08-14 05:52:47			0	38509	0	0	0	30275	28880	151536	27135	1076852	46494	111271	0	0	8130	518918	0	0
2024-08-14 05:53:47			0	38515	0	0	0	30262	28880	151420	26837	1076825	46483	111266	0	0	8131	518695	0	0
2024-08-14 05:54:47			0	38508	0	0	0	30259	28870	151512	26993	1076735	46494	111265	0	0	8130	518985	0	0
2024-08-14 05:55:47			0	38500	0	0	0	30257	28880	151476	27133	1076852	46505	111264	0	0	8130	519254	0	0
2024-08-14 05:56:47			0	38518	0	0	0	30262	28870	151548	27173	1076779	46504	111266	0	0	8131	518613	0	0
2024-08-14 05:57:47			0	38511	0	0	0	30259	28870	151440	27163	1076762	46494	111265	0	0	8131	518874	0	0
2024-08-14 05:58:47			0	38514	0	0	0	30257	28870	151524	27041	1076860	46504	111264	0	0	8131	518762	0	0
2024-08-14 05:59:47			0	38503	0	0	0	30259	28860	151440	26791	1076716	46504	111265	0	0	8130	519202	0	0
2024-08-14 06:00:47			0	38509	0	0	0	30254	28860	151484	26970	1076788	46503	111263	0	0	8131	518978	0	0
2024-08-14 06:01:47			0	38497	0	0	0	30257	28850	151464	26693	1076698	46491	111264	0	0	8130	519456	0	0
2024-08-14 06:02:47			0	38512	0	0	0	30257	28860	151424	26986	1076734	46503	111264	0	0	8131	518866	0	0
2024-08-14 06:03:47			0	38500	0	0	0	30254	28850	151476	26913	1076716	46502	111263	0	0	8130	519344	0	0
2024-08-14 06:04:47			0	38481	0	0	0	30241	28860	151604	26970	1076734	46503	111258	0	0	8129	520022	0	0
2024-08-14 06:05:47			0	38500	0	0	0	30244	28860	151568	26689	1076716	46493	111259	0	0	8130	519314	0	0
2024-08-14 06:06:47			0	38496	0	0	0	30249	28850	151552	27041	1076743	46480	111261	0	0	8130	519493	0	0
2024-08-14 06:07:47			0	38494	0	0	0	30244	28850	151536	27289	1076725	46491	111259	0	0	8130	519567	0	0
2024-08-14 06:08:47			0	38501	0	0	0	30241	28850	151588	27270	1076743	46502	111258	0	0	8130	519307	0	0
2024-08-14 06:09:47			0	38499	0	0	0	30244	28850	151616	26925	1076671	46491	111259	0	0	8130	519381	0	0
2024-08-14 06:10:47			0	38510	0	0	0	30246	28850	151572	26892	1076689	46502	111260	0	0	8131	518971	0	0
2024-08-14 06:11:47			0	38490	0	0	0	30244	28840	151448	26852	1076653	46491	111259	0	0	8130	519747	0	0
2024-08-14 06:12:47			0	38501	0	0	0	30231	28840	151548	27131	1076653	46491	111254	0	0	8130	519337	0	0
2024-08-14 06:13:47			0	38493	0	0	0	30225	28850	151472	26941	1076662	46502	111252	0	0	8130	519605	0	0
2024-08-14 06:14:47			0	38502	0	0	0	30223	28840	151420	26932	1076626	46502	111251	0	0	8131	519299	0	0
2024-08-14 06:15:47			0	38495	0	0	0	30223	28840	151572	26930	1076653	46502	111251	0	0	8130	519560	0	0
2024-08-14 06:16:47			0	38496	0	0	0	30228	28840	151604	26816	1076671	46479	111253	0	0	8130	519523	0	0
2024-08-14 06:17:47			0	38479	0	0	0	30223	28840	151628	27071	1076617	46501	111251	0	0	8129	520157	0	0
2024-08-14 06:18:47			0	38506	0	0	0	30225	28840	151508	27019	1076617	46501	111252	0	0	8131	519150	0	0
2024-08-14 06:19:47			0	38470	0	0	0	30207	28840	151536	26828	1076590	46501	111245	0	0	8129	520493	0	0
2024-08-14 06:20:47			0	38465	0	0	0	30220	28830	151472	27067	1076545	46478	111250	0	0	8129	520710	0	0
2024-08-14 06:21:47			0	38482	0	0	0	30218	28830	151472	27090	1076527	46500	111249	0	0	8130	520075	0	0
2024-08-14 06:22:47			0	38473	0	0	0	30212	28830	151496	26922	1076581	46478	111247	0	0	8129	520411	0	0
2024-08-14 06:23:47			0	38467	0	0	0	30207	28830	151512	27194	1076545	46500	111245	0	0	8129	520635	0	0
2024-08-14 06:24:47			0	38478	0	0	0	30205	28820	151436	27223	1076527	46489	111244	0	0	8129	520255	0	0
2024-08-14 06:25:47			0	38473	0	0	0	30199	28820	151520	26646	1076527	46489	111242	0	0	8129	520441	0	0
2024-08-14 06:26:47			0	38469	0	0	0	30210	28810	151568	26963	1076455	46509	111246	0	0	8129	520621	0	0
2024-08-14 06:27:47			0	38477	0	0	0	30197	28810	151584	26923	1076464	46488	111241	0	0	8130	520322	0	0
2024-08-14 06:28:47			0	38460	0	0	0	30197	28810	151612	27059	1076491	46488	111241	0	0	8129	520957	0	0
2024-08-14 06:29:47			0	38481	0	0	0	30207	28810	151604	27111	1076518	46499	111245	0	0	8130	520173	0	0
2024-08-14 06:30:47			0	38465	0	0	0	30199	28800	151548	26906	1076392	46498	111242	0	0	8129	520801	0	0
2024-08-14 06:31:47			0	38451	0	0	0	30199	28800	151492	27029	1076419	46498	111242	0	0	8128	521323	0	0
2024-08-14 06:32:47			0	38468	0	0	0	30202	28800	151592	26902	1076500	46486	111243	0	0	8129	520689	0	0
2024-08-14 06:33:47			0	38481	0	0	0	30212	28800	151612	27130	1076464	46520	111247	0	0	8129	520203	0	0
2024-08-14 06:34:47			0	38467	0	0	0	30220	28810	151568	27086	1076545	46499	111250	0	0	8129	520696	0	0
2024-08-14 06:35:47			0	38463	0	0	0	30212	28810	151576	26648	1076509	46488	111247	0	0	8128	520845	0	0
2024-08-14 06:36:47			0	38486	0	0	0	30220	28790	151556	27327	1076455	46507	111250	0	0	8130	520047	0	0
2024-08-14 06:37:47			0	38479	0	0	0	30223	28790	151616	26892	1076482	46485	111251	0	0	8129	520308	0	0
2024-08-14 06:38:47			0	38475	0	0	0	30238	28800	151592	27112	1076527	46508	111257	0	0	8129	520427	0	0
2024-08-14 06:39:47			0	38464	0	0	0	30244	28820	151624	26885	1076644	46500	111259	0	0	8128	520777	0	0
2024-08-14 06:40:47			0	38453	0	0	0	30257	28830	151556	27085	1076599	46500	111264	0	0	8127	521158	0	0
2024-08-14 06:41:47			0	38456	0	0	0	30264	28820	151564	27197	1076698	46500	111267	0	0	8127	521076	0	0
2024-08-14 06:42:47			0	38464	0	0	0	30264	28820	151628	26930	1076617	46534	111267	0	0	8128	520777	0	0
2024-08-14 06:43:47			0	38452	0	0	0	30272	28830	151636	27036	1076707	46523	111270	0	0	8127	521196	0	0
2024-08-14 06:44:47			0	38457	0	0	0	30267	28830	151788	26932	1076689	46511	111268	0	0	8127	521009	0	0
2024-08-14 06:45:47			0	38434	0	0	0	30257	28830	151776	26743	1076581	46511	111264	0	0	8126	521868	0	0
2024-08-14 06:46:47			0	38441	0	0	0	30236	28820	151732	27104	1076509	46500	111256	0	0	8127	521637	0	0
2024-08-14 06:47:47			0	38424	0	0	0	30241	28810	151792	27043	1076599	46499	111258	0	0	8126	522303	0	0
2024-08-14 06:48:47			0	38415	0	0	0	30254	28820	151824	26727	1076554	46510	111263	0	0	8125	522609	0	0
2024-08-14 06:49:47			0	38406	0	0	0	30270	28820	151812	26897	1076608	46510	111269	0	0	8124	522946	0	0
2024-08-14 06:50:47			0	38383	0	0	0	30270	28830	151788	26765	1076707	46511	111269	0	0	8123	523777	0	0
2024-08-14 06:51:47			0	38382	0	0	0	30267	28820	151860	26935	1076698	46523	111268	0	0	8123	523845	0	0
2024-08-14 06:52:47			0	38347	0	0	0	30283	28830	152028	26883	1076797	46534	111274	0	0	8121	525128	0	0
2024-08-14 06:53:47			0	38326	0	0	0	30290	28850	152052	27201	1076905	46536	111277	0	0	8119	525855	0	0
2024-08-14 06:54:47			0	38324	0	0	0	30298	28840	151992	26956	1076896	46536	111280	0	0	8119	525961	0	0
2024-08-14 06:55:47			0	38311	0	0	0	30311	28870	152104	26635	1076941	46538	111285	0	0	8118	526358	0	0
2024-08-14 06:56:47			0	38276	0	0	0	30306	28860	152172	27171	1076932	46538	111283	0	0	8116	527705	0	0
2024-08-14 06:57:47			0	38281	0	0	0	30316	28870	152160	27211	1076897	46539	111287	0	0	8117	527486	0	0
2024-08-14 06:58:47			0	38255	0	0	0	30319	28890	152348	27156	1076924	46518	111288	0	0	8115	528404	0	0
2024-08-14 06:59:47			0	38231	0	0	0	30311	28880	152400	26823	1076906	46516	111285	0	0	8114	529339	0	0
2024-08-14 07:00:47			0	38205	0	0	0	30301	28880	152464	27071	1076852	46516	111281	0	0	8113	530320	0	0
2024-08-14 07:01:47			0	38196	0	0	0	30309	28880	152540	27185	1076879	46505	111284	0	0	8112	530660	0	0
2024-08-14 07:02:47			0	38168	0	0	0	30303	28880	152608	27237	1076906	46516	111282	0	0	8110	531719	0	0
2024-08-14 07:03:47			0	38124	0	0	0	30298	28880	152708	27230	1076906	46516	111280	0	0	8108	533385	0	0
2024-08-14 07:04:47			0	38117	0	0	0	30290	28870	152792	26986	1076843	46516	111277	0	0	8108	533681	0	0
2024-08-14 07:05:47			0	38089	0	0	0	30267	28870	152824	26946	1076671	46482	111268	0	0	8106	534743	0	0
2024-08-14 07:06:47			0	38074	0	0	0	30249	28850	153044	27383	1076617	46480	111261	0	0	8106	535375	0	0
2024-08-14 07:07:47			0	38045	0	0	0	30251	28840	153080	26837	1076653	46491	111262	0	0	8104	536508	0	0
2024-08-14 07:08:47			0	38040	0	0	0	30236	28840	153108	27071	1076545	46491	111256	0	0	8104	536698	0	0
2024-08-14 07:09:47			0	38007	0	0	0	30231	28840	153311	27178	1076509	46491	111254	0	0	8102	537955	0	0
2024-08-14 07:10:47			0	37985	0	0	0	30228	28820	153327	27031	1076563	46500	111253	0	0	8101	538856	0	0
2024-08-14 07:11:47			0	37990	0	0	0	30238	28830	153531	26849	1076626	46511	111257	0	0	8101	538634	0	0
2024-08-14 07:12:47			0	37952	0	0	0	30257	28830	153411	26991	1076653	46523	111264	0	0	8099	540084	0	0
2024-08-14 07:13:47			0	37961	0	0	0	30257	28830	153567	27092	1076707	46534	111264	0	0	8099	539741	0	0
2024-08-14 07:14:47			0	37935	0	0	0	30270	28850	153507	27142	1076689	46502	111269	0	0	8097	540671	0	0
2024-08-14 07:15:47			0	37934	0	0	0	30267	28840	153587	27256	1076806	46512	111268	0	0	8097	540741	0	0
2024-08-14 07:16:47			0	37905	0	0	0	30272	28840	153719	27196	1076734	46502	111270	0	0	8096	541850	0	0
2024-08-14 07:17:47			0	37905	0	0	0	30264	28850	153699	27241	1076797	46525	111267	0	0	8096	541819	0	0
2024-08-14 07:18:47			0	37873	0	0	0	30280	28840	153707	26760	1076761	46525	111273	0	0	8094	543076	0	0
2024-08-14 07:19:47			0	37876	0	0	0	30267	28850	153803	26854	1076752	46513	111268	0	0	8094	542930	0	0
2024-08-14 07:20:47			0	37876	0	0	0	30249	28840	153831	27154	1076761	46513	111261	0	0	8094	542961	0	0
2024-08-14 07:21:47			0	37846	0	0	0	30231	28850	153875	27055	1076689	46513	111254	0	0	8093	544080	0	0
2024-08-14 07:22:47			0	37840	0	0	0	30236	28850	153867	27119	1076743	46502	111256	0	0	8093	544310	0	0
2024-08-14 07:23:47			0	37815	0	0	0	30241	28840	153935	26785	1076680	46502	111258	0	0	8091	545302	0	0
2024-08-14 07:24:47			0	37815	0	0	0	30228	28850	154071	26993	1076662	46513	111253	0	0	8091	545271	0	0
2024-08-14 07:25:47			0	37790	0	0	0	30225	28840	154079	26864	1076653	46502	111252	0	0	8090	546264	0	0
2024-08-14 07:26:47			0	37788	0	0	0	30212	28840	154155	27090	1076590	46491	111247	0	0	8090	546341	0	0
2024-08-14 07:27:47			0	37781	0	0	0	30205	28840	154207	26896	1076572	46502	111244	0	0	8090	546610	0	0
2024-08-14 07:28:47			0	37748	0	0	0	30189	28840	154191	27149	1076563	46491	111238	0	0	8088	547881	0	0
2024-08-14 07:29:47			0	37728	0	0	0	30186	28830	154183	27147	1076545	46500	111237	0	0	8087	548684	0	0
2024-08-14 07:30:47			0	37728	0	0	0	30181	28820	154267	27185	1076563	46500	111235	0	0	8087	548716	0	0
2024-08-14 07:31:47			0	37704	0	0	0	30199	28830	154403	27057	1076599	46490	111242	0	0	8085	549611	0	0
2024-08-14 07:32:47			0	37699	0	0	0	30189	28830	154439	27300	1076572	46511	111238	0	0	8085	549804	0	0
2024-08-14 07:33:47			0	37679	0	0	0	30197	28820	154483	27220	1076563	46523	111241	0	0	8084	550609	0	0
2024-08-14 07:34:47			0	37668	0	0	0	30205	28820	154555	27289	1076590	46511	111244	0	0	8083	551035	0	0
2024-08-14 07:35:47			0	37656	0	0	0	30207	28840	154695	27168	1076644	46524	111245	0	0	8082	551435	0	0
2024-08-14 07:36:47			0	37630	0	0	0	30225	28830	154771	26965	1076680	46500	111252	0	0	8081	552474	0	0
2024-08-14 07:37:47			0	37639	0	0	0	30233	28840	154711	27048	1076725	46501	111255	0	0	8081	552093	0	0
2024-08-14 07:38:47			0	37622	0	0	0	30244	28840	154783	27170	1076725	46524	111259	0	0	8080	552752	0	0
2024-08-14 07:39:47			0	37599	0	0	0	30257	28840	154779	27343	1076815	46513	111264	0	0	8078	553644	0	0
2024-08-14 07:40:47			0	37598	0	0	0	30246	28840	154779	27036	1076761	46502	111260	0	0	8078	553683	0	0
2024-08-14 07:41:47			0	37594	0	0	0	30249	28850	154759	26864	1076725	46491	111261	0	0	8078	553806	0	0
2024-08-14 07:42:47			0	37582	0	0	0	30257	28850	154839	27050	1076743	46491	111264	0	0	8077	554272	0	0
2024-08-14 07:43:47			0	37587	0	0	0	30249	28840	154859	26876	1076698	46491	111261	0	0	8078	554110	0	0
2024-08-14 07:44:47			0	37609	0	0	0	30238	28840	154787	27187	1076644	46491	111257	0	0	8079	553256	0	0
2024-08-14 07:45:47			0	37597	0	0	0	30236	28840	154779	27159	1076617	46512	111256	0	0	8078	553722	0	0
2024-08-14 07:46:47			0	37601	0	0	0	30223	28830	154811	27300	1076635	46478	111251	0	0	8079	553599	0	0
2024-08-14 07:47:47			0	37611	0	0	0	30220	28830	154847	26899	1076635	46490	111250	0	0	8080	553211	0	0
2024-08-14 07:48:47			0	37591	0	0	0	30207	28830	154847	27178	1076491	46478	111245	0	0	8079	553987	0	0
2024-08-14 07:49:47			0	37600	0	0	0	30197	28810	154803	26944	1076428	46488	111241	0	0	8079	553702	0	0
2024-08-14 07:50:47			0	37594	0	0	0	30184	28810	154743	27013	1076428	46476	111236	0	0	8079	553935	0	0
2024-08-14 07:51:47			0	37599	0	0	0	30161	28810	154803	27133	1076401	46465	111227	0	0	8080	553741	0	0
2024-08-14 07:52:47			0	37596	0	0	0	30163	28780	154807	26902	1076302	46473	111228	0	0	8079	553953	0	0
2024-08-14 07:53:47			0	37601	0	0	0	30153	28790	154803	27107	1076320	46485	111224	0	0	8080	553727	0	0
2024-08-14 07:54:47			0	37602	0	0	0	30140	28790	154907	27112	1076230	46485	111219	0	0	8080	553688	0	0
2024-08-14 07:55:47			0	37591	0	0	0	30140	28770	154935	26812	1076203	46483	111219	0	0	8079	554180	0	0
2024-08-14 07:56:47			0	37598	0	0	0	30135	28770	154823	27090	1076140	46494	111217	0	0	8080	553908	0	0
2024-08-14 07:57:47			0	37602	0	0	0	30116	28760	154859	27244	1076131	46483	111210	0	0	8080	553785	0	0
2024-08-14 07:58:47			0	37595	0	0	0	30103	28750	154859	26922	1076130	46469	111205	0	0	8080	554089	0	0
2024-08-14 07:59:47			0	37598	0	0	0	30106	28740	154899	27183	1076004	46480	111206	0	0	8080	554004	0	0
2024-08-14 08:00:47			0	37589	0	0	0	30101	28730	154919	26654	1076049	46480	111204	0	0	8080	554386	0	0
2024-08-14 08:01:47			0	37599	0	0	0	30090	28730	154903	27097	1075905	46490	111200	0	0	8081	553997	0	0
2024-08-14 08:02:47			0	37604	0	0	0	30080	28720	154931	27299	1075950	46479	111196	0	0	8081	553835	0	0
2024-08-14 08:03:47			0	37599	0	0	0	30077	28710	154911	27322	1075896	46488	111195	0	0	8081	554062	0	0
2024-08-14 08:04:47			0	37604	0	0	0	30083	28710	154843	27052	1075959	46466	111197	0	0	8081	553867	0	0
2024-08-14 08:05:47			0	37595	0	0	0	30098	28710	154851	26967	1075923	46488	111203	0	0	8080	554217	0	0
2024-08-14 08:06:47			0	37621	0	0	0	30088	28710	154843	27187	1075923	46465	111199	0	0	8082	553208	0	0
2024-08-14 08:07:47			0	37629	0	0	0	30090	28700	154791	27034	1075905	46487	111200	0	0	8082	552929	0	0
2024-08-14 08:08:47			0	37625	0	0	0	30090	28700	154875	26817	1075905	46487	111200	0	0	8082	553084	0	0
2024-08-14 08:09:47			0	37630	0	0	0	30093	28690	154787	27017	1075923	46498	111201	0	0	8082	552922	0	0
2024-08-14 08:10:47			0	37643	0	0	0	30093	28700	154755	26960	1075932	46498	111201	0	0	8083	552386	0	0
2024-08-14 08:11:47			0	37647	0	0	0	30083	28700	154771	26724	1075878	46487	111197	0	0	8083	552231	0	0
2024-08-14 08:12:47			0	37645	0	0	0	30083	28690	154683	27076	1075869	46498	111197	0	0	8083	552341	0	0
2024-08-14 08:13:47			0	37657	0	0	0	30075	28700	154727	26653	1075941	46488	111194	0	0	8084	551844	0	0
2024-08-14 08:14:47			0	37651	0	0	0	30064	28690	154631	27008	1075869	46487	111190	0	0	8084	552108	0	0
2024-08-14 08:15:47			0	37667	0	0	0	30072	28680	154691	27043	1075788	46474	111193	0	0	8085	551520	0	0
2024-08-14 08:16:47			0	37675	0	0	0	30070	28680	154639	26817	1075770	46497	111192	0	0	8085	551211	0	0
2024-08-14 08:17:47			0	37683	0	0	0	30067	28680	154659	26979	1075815	46496	111191	0	0	8086	550901	0	0
2024-08-14 08:18:47			0	37689	0	0	0	30059	28680	154599	26733	1075788	46485	111188	0	0	8086	550669	0	0
2024-08-14 08:19:47			0	37686	0	0	0	30059	28680	154567	26559	1075761	46485	111188	0	0	8086	550785	0	0
2024-08-14 08:20:47			0	37686	0	0	0	30054	28680	154543	26871	1075797	46497	111186	0	0	8086	550785	0	0
2024-08-14 08:21:47			0	37705	0	0	0	30059	28680	154447	26871	1075824	46497	111188	0	0	8087	550050	0	0
2024-08-14 08:22:47			0	37719	0	0	0	30059	28670	154443	27300	1075806	46495	111188	0	0	8088	549541	0	0
2024-08-14 08:23:47			0	37722	0	0	0	30064	28690	154399	26835	1075860	46486	111190	0	0	8088	549361	0	0
2024-08-14 08:24:47			0	37730	0	0	0	30070	28670	154375	26920	1075860	46473	111192	0	0	8088	549116	0	0
2024-08-14 08:25:47			0	37714	0	0	0	30064	28680	154463	26826	1075815	46496	111190	0	0	8087	549702	0	0
2024-08-14 08:26:47			0	37718	0	0	0	30057	28680	154435	27119	1075842	46485	111187	0	0	8088	549548	0	0
2024-08-14 08:27:47			0	37724	0	0	0	30064	28690	154423	27294	1075806	46486	111190	0	0	8088	549284	0	0
2024-08-14 08:28:47			0	37705	0	0	0	30064	28680	154503	26961	1075878	46486	111190	0	0	8087	550050	0	0
2024-08-14 08:29:47			0	37689	0	0	0	30062	28680	154643	27124	1075842	46474	111189	0	0	8086	550669	0	0
2024-08-14 08:30:47			0	37657	0	0	0	30064	28680	154731	26882	1075869	46485	111190	0	0	8084	551908	0	0
2024-08-14 08:31:47			0	37615	0	0	0	30070	28680	154883	26837	1075869	46485	111192	0	0	8082	553537	0	0
2024-08-14 08:32:47			0	37573	0	0	0	30072	28670	154959	27128	1075914	46484	111193	0	0	8079	555201	0	0
2024-08-14 08:33:47			0	37529	0	0	0	30080	28680	155251	27267	1075851	46497	111196	0	0	8076	556881	0	0
2024-08-14 08:34:47			0	37462	0	0	0	30085	28690	155419	26821	1075896	46498	111198	0	0	8073	559464	0	0
2024-08-14 08:35:47			0	37423	0	0	0	30085	28690	155571	27100	1075923	46509	111198	0	0	8070	560990	0	0
2024-08-14 08:36:47			0	37391	0	0	0	30090	28690	155695	26885	1075950	46498	111200	0	0	8068	562243	0	0
2024-08-14 08:37:47			0	37348	0	0	0	30085	28700	155919	27218	1075932	46487	111198	0	0	8066	563899	0	0
2024-08-14 08:38:47			0	37321	0	0	0	30088	28700	155999	27149	1075941	46488	111199	0	0	8064	564960	0	0
2024-08-14 08:39:47			0	37295	0	0	0	30096	28690	156150	27104	1075950	46475	111202	0	0	8063	566016	0	0
2024-08-14 08:40:47			0	37273	0	0	0	30096	28700	156066	27118	1075959	46487	111202	0	0	8061	566850	0	0
2024-08-14 08:41:47			0	37255	0	0	0	30088	28690	156118	27019	1075923	46487	111199	0	0	8060	567593	0	0
2024-08-14 08:42:47			0	37279	0	0	0	30096	28700	156322	26922	1075932	46487	111202	0	0	8062	566614	0	0
2024-08-14 08:43:47			0	37248	0	0	0	30106	28690	156390	26908	1075914	46497	111206	0	0	8060	567869	0	0
2024-08-14 08:44:47			0	37249	0	0	0	30098	28710	156290	27305	1075950	46499	111203	0	0	8060	567764	0	0
2024-08-14 08:45:47			0	37260	0	0	0	30103	28700	156234	27320	1076022	46499	111205	0	0	8061	567363	0	0
2024-08-14 08:46:47			0	37256	0	0	0	30106	28700	156278	27353	1075932	46498	111206	0	0	8060	567521	0	0
2024-08-14 08:47:47			0	37238	0	0	0	30098	28700	156230	27204	1075932	46498	111203	0	0	8059	568231	0	0
2024-08-14 08:48:47			0	37276	0	0	0	30106	28700	156202	27213	1076076	46488	111206	0	0	8061	566732	0	0
2024-08-14 08:49:47			0	37266	0	0	0	30116	28710	156178	27039	1076004	46476	111210	0	0	8061	567093	0	0
2024-08-14 08:50:47			0	37293	0	0	0	30109	28710	156234	26974	1076004	46488	111207	0	0	8062	566029	0	0
2024-08-14 08:51:47			0	37283	0	0	0	30124	28700	156110	27078	1075995	46476	111213	0	0	8062	566456	0	0
2024-08-14 08:52:47			0	37307	0	0	0	30119	28710	156066	27071	1076121	46489	111211	0	0	8063	565478	0	0
2024-08-14 08:53:47			0	37306	0	0	0	30127	28720	155962	27183	1076112	46490	111214	0	0	8063	565485	0	0
2024-08-14 08:54:47			0	37334	0	0	0	30111	28710	155979	26963	1076013	46489	111208	0	0	8065	564416	0	0
2024-08-14 08:55:47			0	37356	0	0	0	30116	28710	155939	27253	1076031	46499	111210	0	0	8066	563552	0	0
2024-08-14 08:56:47			0	37335	0	0	0	30109	28710	155875	26866	1076013	46500	111207	0	0	8065	564377	0	0
2024-08-14 08:57:47			0	37340	0	0	0	30114	28720	155875	27225	1076076	46500	111209	0	0	8065	564148	0	0
2024-08-14 08:58:47			0	37356	0	0	0	30127	28720	155859	26868	1076076	46500	111214	0	0	8066	563519	0	0
2024-08-14 08:59:47			0	37372	0	0	0	30127	28720	155775	27154	1076085	46490	111214	0	0	8067	562891	0	0
2024-08-14 09:00:47			0	37367	0	0	0	30122	28730	155791	27182	1076103	46501	111212	0	0	8067	563055	0	0
2024-08-14 09:01:47			0	37373	0	0	0	30111	28720	155819	27147	1076049	46511	111208	0	0	8067	562852	0	0
2024-08-14 09:02:47			0	37405	0	0	0	30116	28720	155667	27176	1076103	46500	111210	0	0	8069	561597	0	0
2024-08-14 09:03:47			0	37405	0	0	0	30119	28730	155655	26974	1076067	46500	111211	0	0	8069	561565	0	0
2024-08-14 09:04:47			0	37398	0	0	0	30124	28720	155547	27206	1076085	46500	111213	0	0	8068	561872	0	0
2024-08-14 09:05:47			0	37428	0	0	0	30124	28720	155631	27471	1076103	46500	111213	0	0	8070	560696	0	0
2024-08-14 09:06:47			0	37417	0	0	0	30116	28720	155555	27443	1076112	46500	111210	0	0	8070	561127	0	0
2024-08-14 09:07:47			0	37419	0	0	0	30129	28730	155547	26986	1076121	46490	111215	0	0	8069	561016	0	0
2024-08-14 09:08:47			0	37423	0	0	0	30140	28720	155483	27019	1076166	46500	111219	0	0	8069	560892	0	0
2024-08-14 09:09:47			0	37429	0	0	0	30137	28740	155503	27050	1076166	46501	111218	0	0	8070	560592	0	0
2024-08-14 09:10:47			0	37426	0	0	0	30142	28740	155507	27215	1076193	46491	111220	0	0	8070	560710	0	0
2024-08-14 09:11:47			0	37434	0	0	0	30150	28740	155407	27062	1076229	46492	111223	0	0	8070	560397	0	0
2024-08-14 09:12:47			0	37433	0	0	0	30153	28750	155371	26970	1076292	46502	111224	0	0	8070	560403	0	0
2024-08-14 09:13:47			0	37453	0	0	0	30153	28760	155335	27267	1076283	46516	111224	0	0	8071	559589	0	0
2024-08-14 09:14:47			0	37459	0	0	0	30161	28760	155375	27027	1076364	46516	111227	0	0	8071	559354	0	0
2024-08-14 09:15:47			0	37457	0	0	0	30168	28760	155335	27218	1076319	46504	111230	0	0	8071	559432	0	0
2024-08-14 09:16:47			0	37476	0	0	0	30168	28760	155275	27173	1076400	46504	111230	0	0	8072	558690	0	0
2024-08-14 09:17:47			0	37479	0	0	0	30171	28760	155215	26906	1076319	46504	111231	0	0	8072	558573	0	0
2024-08-14 09:18:47			0	37481	0	0	0	30171	28770	155291	27213	1076355	46504	111231	0	0	8073	558463	0	0
2024-08-14 09:19:47			0	37470	0	0	0	30174	28760	155243	27031	1076346	46471	111232	0	0	8072	558925	0	0
2024-08-14 09:20:47			0	37459	0	0	0	30176	28770	155239	27348	1076409	46483	111233	0	0	8071	559322	0	0
2024-08-14 09:21:47			0	37428	0	0	0	30186	28770	155431	27185	1076391	46495	111237	0	0	8069	560534	0	0
2024-08-14 09:22:47			0	37376	0	0	0	30184	28770	155667	27237	1076445	46483	111236	0	0	8066	562571	0	0
2024-08-14 09:23:47			0	37346	0	0	0	30189	28780	155735	27320	1076509	46496	111238	0	0	8064	563716	0	0
2024-08-14 09:24:47			0	37322	0	0	0	30194	28790	155923	26970	1076527	46507	111240	0	0	8063	564626	0	0
2024-08-14 09:25:47			0	37298	0	0	0	30199	28790	155910	27187	1076473	46519	111242	0	0	8062	565570	0	0
2024-08-14 09:26:47			0	37284	0	0	0	30192	28790	156082	27215	1076482	46485	111239	0	0	8061	566122	0	0
2024-08-14 09:27:47			0	37254	0	0	0	30192	28780	156074	27168	1076464	46496	111239	0	0	8059	567337	0	0
2024-08-14 09:28:47			0	37239	0	0	0	30197	28790	156206	27357	1076527	46507	111241	0	0	8058	567896	0	0
2024-08-14 09:29:47			0	37245	0	0	0	30192	28780	156186	27386	1076410	46496	111239	0	0	8059	567692	0	0
2024-08-14 09:30:47			0	37237	0	0	0	30189	28790	156178	27322	1076500	46507	111238	0	0	8058	567974	0	0
2024-08-14 09:31:47			0	37256	0	0	0	30199	28800	156234	27286	1076518	46498	111242	0	0	8059	567192	0	0
2024-08-14 09:32:47			0	37232	0	0	0	30189	28790	156214	27098	1076473	46485	111238	0	0	8058	568172	0	0
2024-08-14 09:33:47			0	37251	0	0	0	30192	28790	156286	27161	1076428	46497	111239	0	0	8059	567422	0	0
2024-08-14 09:34:47			0	37259	0	0	0	30194	28790	156146	26616	1076482	46497	111240	0	0	8059	567107	0	0
2024-08-14 09:35:47			0	37287	0	0	0	30202	28800	156102	27059	1076491	46498	111243	0	0	8061	565971	0	0
2024-08-14 09:36:47			0	37312	0	0	0	30202	28800	155898	27135	1076518	46508	111243	0	0	8062	564987	0	0
2024-08-14 09:37:47			0	37311	0	0	0	30199	28800	155882	27008	1076527	46498	111242	0	0	8062	565026	0	0
2024-08-14 09:38:47			0	37333	0	0	0	30202	28790	155775	27112	1076554	46507	111243	0	0	8064	564194	0	0
2024-08-14 09:39:47			0	37380	0	0	0	30207	28810	155607	27093	1076590	46476	111245	0	0	8066	562284	0	0
2024-08-14 09:40:47			0	37396	0	0	0	30207	28810	155539	26932	1076590	46499	111245	0	0	8067	561657	0	0
2024-08-14 09:41:47			0	37424	0	0	0	30207	28800	155487	27100	1076608	46486	111245	0	0	8069	560593	0	0
2024-08-14 09:42:47			0	37445	0	0	0	30210	28810	155355	26828	1076509	46488	111246	0	0	8070	559739	0	0
2024-08-14 09:43:47			0	37451	0	0	0	30202	28800	155323	26965	1076581	46498	111243	0	0	8070	559537	0	0
2024-08-14 09:44:47			0	37432	0	0	0	30210	28810	155459	26942	1076590	46509	111246	0	0	8069	560248	0	0
2024-08-14 09:45:47			0	37395	0	0	0	30212	28800	155523	26765	1076554	46486	111247	0	0	8067	561729	0	0
2024-08-14 09:46:47			0	37353	0	0	0	30207	28800	155747	26972	1076581	46498	111245	0	0	8065	563376	0	0
2024-08-14 09:47:47			0	37330	0	0	0	30215	28810	155747	27019	1076563	46488	111248	0	0	8063	564246	0	0
2024-08-14 09:48:47			0	37287	0	0	0	30207	28810	155938	27298	1076572	46509	111245	0	0	8061	565938	0	0
2024-08-14 09:49:47			0	37276	0	0	0	30207	28810	155998	26908	1076599	46521	111245	0	0	8060	566371	0	0
2024-08-14 09:50:47			0	37263	0	0	0	30218	28820	156130	27100	1076635	46489	111249	0	0	8059	566850	0	0
2024-08-14 09:51:47			0	37241	0	0	0	30210	28810	156158	26949	1076572	46509	111246	0	0	8058	567751	0	0
2024-08-14 09:52:47			0	37209	0	0	0	30207	28810	156214	27178	1076563	46509	111245	0	0	8056	569014	0	0
2024-08-14 09:53:47			0	37197	0	0	0	30207	28810	156182	26883	1076563	46499	111245	0	0	8056	569489	0	0
2024-08-14 09:54:47			0	37207	0	0	0	30212	28810	156330	26974	1076617	46499	111247	0	0	8056	569093	0	0
2024-08-14 09:55:47			0	37185	0	0	0	30210	28810	156362	26882	1076626	46499	111246	0	0	8055	569963	0	0
2024-08-14 09:56:47			0	37177	0	0	0	30223	28810	156410	26984	1076599	46499	111251	0	0	8054	570280	0	0
2024-08-14 09:57:47			0	37165	0	0	0	30231	28810	156434	27027	1076599	46499	111254	0	0	8053	570755	0	0
2024-08-14 09:58:47			0	37152	0	0	0	30233	28810	156322	27109	1076653	46499	111255	0	0	8053	571270	0	0
2024-08-14 09:59:47			0	37170	0	0	0	30225	28810	156414	27176	1076653	46509	111252	0	0	8054	570557	0	0
2024-08-14 10:00:47			0	37173	0	0	0	30218	28820	156406	27076	1076716	46500	111249	0	0	8054	570405	0	0
2024-08-14 10:01:47			0	37177	0	0	0	30233	28830	156446	26960	1076707	46500	111255	0	0	8054	570214	0	0
2024-08-14 10:02:47			0	37198	0	0	0	30238	28830	156362	27234	1076734	46500	111257	0	0	8055	569383	0	0
2024-08-14 10:03:47			0	37190	0	0	0	30231	28820	156234	26946	1076698	46511	111254	0	0	8055	569732	0	0
2024-08-14 10:04:47			0	37199	0	0	0	30244	28830	156278	27315	1076707	46490	111259	0	0	8055	569343	0	0
2024-08-14 10:05:47			0	37204	0	0	0	30249	28840	156142	27024	1076779	46512	111261	0	0	8055	569113	0	0
2024-08-14 10:06:47			0	37221	0	0	0	30259	28830	156194	27351	1076797	46523	111265	0	0	8056	568474	0	0
2024-08-14 10:07:47			0	37242	0	0	0	30262	28840	156182	26928	1076788	46502	111266	0	0	8057	567613	0	0
2024-08-14 10:08:47			0	37247	0	0	0	30264	28840	156014	27209	1076842	46502	111267	0	0	8058	567415	0	0
2024-08-14 10:09:47			0	37280	0	0	0	30270	28840	155918	26996	1076869	46502	111269	0	0	8060	566115	0	0
2024-08-14 10:10:47			0	37295	0	0	0	30270	28850	155862	26951	1076824	46502	111269	0	0	8060	565492	0	0
2024-08-14 10:11:47			0	37342	0	0	0	30272	28850	155659	26887	1076824	46513	111270	0	0	8063	563644	0	0
2024-08-14 10:12:47			0	37386	0	0	0	30277	28870	155483	27034	1076887	46515	111272	0	0	8066	561853	0	0
2024-08-14 10:13:47			0	37441	0	0	0	30270	28850	155191	26902	1076887	46502	111269	0	0	8069	559766	0	0
2024-08-14 10:14:47			0	37521	0	0	0	30275	28860	154907	27154	1076869	46514	111271	0	0	8074	556612	0	0
2024-08-14 10:15:47			0	37563	0	0	0	30262	28860	154759	27154	1076815	46503	111266	0	0	8076	554978	0	0
2024-08-14 10:16:47			0	37571	0	0	0	30259	28850	154755	27220	1076833	46513	111265	0	0	8077	554700	0	0
2024-08-14 10:17:47			0	37541	0	0	0	30264	28860	154831	27206	1076896	46492	111267	0	0	8075	555834	0	0
2024-08-14 10:18:47			0	37531	0	0	0	30257	28860	154955	27176	1076923	46503	111264	0	0	8074	556223	0	0
2024-08-14 10:19:47			0	37499	0	0	0	30259	28860	154979	27362	1076869	46503	111265	0	0	8073	557470	0	0
2024-08-14 10:20:47			0	37465	0	0	0	30262	28850	155103	27216	1076806	46491	111266	0	0	8070	558828	0	0
2024-08-14 10:21:47			0	37453	0	0	0	30257	28850	155207	27161	1076806	46491	111264	0	0	8070	559297	0	0
2024-08-14 10:22:47			0	37422	0	0	0	30251	28850	155359	27079	1076833	46513	111262	0	0	8068	560509	0	0
2024-08-14 10:23:47			0	37422	0	0	0	30254	28850	155439	27194	1076851	46502	111263	0	0	8068	560509	0	0
2024-08-14 10:24:47			0	37385	0	0	0	30259	28850	155363	27076	1076860	46513	111265	0	0	8066	561958	0	0
2024-08-14 10:25:47			0	37395	0	0	0	30259	28860	155459	27171	1076824	46504	111265	0	0	8066	561533	0	0
2024-08-14 10:26:47			0	37389	0	0	0	30264	28860	155431	27183	1076869	46503	111267	0	0	8066	561768	0	0
2024-08-14 10:27:47			0	37412	0	0	0	30272	28860	155267	27052	1076905	46493	111270	0	0	8067	560868	0	0
2024-08-14 10:28:47			0	37412	0	0	0	30283	28870	155263	27270	1076914	46504	111274	0	0	8067	560835	0	0
2024-08-14 10:29:47			0	37452	0	0	0	30288	28870	155179	26977	1076968	46515	111276	0	0	8069	559271	0	0
2024-08-14 10:30:47			0	37478	0	0	0	30283	28870	155043	26847	1076978	46505	111274	0	0	8071	558256	0	0
2024-08-14 10:31:47			0	37498	0	0	0	30285	28860	154967	27327	1076959	46515	111275	0	0	8072	557508	0	0
2024-08-14 10:32:47			0	37543	0	0	0	30293	28880	154727	27306	1076987	46505	111278	0	0	8075	555692	0	0
2024-08-14 10:33:47			0	37564	0	0	0	30301	28880	154567	27033	1077014	46505	111281	0	0	8076	554875	0	0
2024-08-14 10:34:47			0	37579	0	0	0	30303	28880	154547	27043	1077014	46516	111282	0	0	8076	554293	0	0
2024-08-14 10:35:47			0	37575	0	0	0	30306	28880	154559	27039	1076996	46506	111283	0	0	8076	554448	0	0
2024-08-14 10:36:47			0	37558	0	0	0	30303	28890	154731	27237	1077086	46518	111282	0	0	8075	555076	0	0
2024-08-14 10:37:47			0	37525	0	0	0	30311	28890	154799	26745	1077086	46518	111285	0	0	8073	556360	0	0
2024-08-14 10:38:47			0	37514	0	0	0	30311	28890	154931	27261	1077068	46530	111285	0	0	8073	556788	0	0
2024-08-14 10:39:47			0	37488	0	0	0	30311	28890	154931	27254	1077059	46496	111285	0	0	8071	557802	0	0
2024-08-14 10:40:47			0	37493	0	0	0	30301	28890	155019	26989	1077122	46518	111281	0	0	8072	557607	0	0
2024-08-14 10:41:47			0	37473	0	0	0	30309	28900	154899	27303	1077050	46541	111284	0	0	8070	558354	0	0
2024-08-14 10:42:47			0	37478	0	0	0	30303	28890	154883	27112	1077041	46518	111282	0	0	8071	558191	0	0
2024-08-14 10:43:47			0	37470	0	0	0	30303	28900	155011	27203	1077113	46508	111282	0	0	8070	558471	0	0
2024-08-14 10:44:47			0	37481	0	0	0	30311	28900	155067	26885	1077140	46531	111285	0	0	8071	558042	0	0
2024-08-14 10:45:47			0	37451	0	0	0	30324	28900	154951	26885	1077158	46518	111290	0	0	8069	559213	0	0
2024-08-14 10:46:47			0	37446	0	0	0	30322	28900	155019	27078	1077167	46508	111289	0	0	8069	559408	0	0
2024-08-14 10:47:47			0	37472	0	0	0	30316	28900	155087	27197	1077104	46518	111287	0	0	8070	558393	0	0
2024-08-14 10:48:47			0	37457	0	0	0	30314	28910	155107	27039	1077176	46509	111286	0	0	8069	558946	0	0
2024-08-14 10:49:47			0	37458	0	0	0	30316	28910	155107	27010	1077149	46509	111287	0	0	8069	558907	0	0
2024-08-14 10:50:47			0	37461	0	0	0	30329	28920	155039	27119	1077167	46509	111292	0	0	8069	558758	0	0
2024-08-14 10:51:47			0	37441	0	0	0	30345	28910	155079	27003	1077293	46509	111298	0	0	8068	559571	0	0
2024-08-14 10:52:47			0	37459	0	0	0	30363	28920	155039	27267	1077338	46521	111305	0	0	8069	558836	0	0
2024-08-14 10:53:47			0	37452	0	0	0	30384	28930	155115	27235	1077401	46534	111313	0	0	8068	559077	0	0
2024-08-14 10:54:47			0	37433	0	0	0	30407	28950	155087	27263	1077473	46537	111322	0	0	8067	559754	0	0
2024-08-14 10:55:47			0	37441	0	0	0	30402	28970	155007	26824	1077491	46547	111320	0	0	8067	559377	0	0
2024-08-14 10:56:47			0	37448	0	0	0	30410	28970	155003	27126	1077527	46526	111323	0	0	8068	559103	0	0
2024-08-14 10:57:47			0	37456	0	0	0	30410	28970	154991	26946	1077527	46515	111323	0	0	8068	558791	0	0
2024-08-14 10:58:47			0	37482	0	0	0	30415	28980	154931	27007	1077573	46527	111325	0	0	8069	557744	0	0
2024-08-14 10:59:47			0	37501	0	0	0	30415	28980	154991	27114	1077626	46527	111325	0	0	8071	557004	0	0
2024-08-14 11:00:47			0	37497	0	0	0	30418	28990	154927	26906	1077645	46517	111326	0	0	8070	557127	0	0
2024-08-14 11:01:47			0	37499	0	0	0	30431	28990	154835	26805	1077726	46528	111331	0	0	8070	557049	0	0
2024-08-14 11:02:47			0	37524	0	0	0	30436	29000	154811	26970	1077735	46529	111333	0	0	8072	556044	0	0
2024-08-14 11:03:47			0	37535	0	0	0	30433	29010	154603	26774	1077753	46529	111332	0	0	8072	555584	0	0
2024-08-14 11:04:47			0	37548	0	0	0	30438	29020	154563	26987	1077807	46521	111334	0	0	8073	555046	0	0
2024-08-14 11:05:47			0	37559	0	0	0	30433	29020	154479	26759	1077771	46542	111332	0	0	8074	554619	0	0
2024-08-14 11:06:47			0	37569	0	0	0	30425	29020	154487	27206	1077717	46531	111329	0	0	8075	554231	0	0
2024-08-14 11:07:47			0	37571	0	0	0	30410	29020	154431	27064	1077690	46520	111323	0	0	8075	554153	0	0
2024-08-14 11:08:47			0	37593	0	0	0	30420	29020	154371	27137	1077753	46509	111327	0	0	8076	553300	0	0
2024-08-14 11:09:47			0	37588	0	0	0	30407	29020	154319	27133	1077663	46520	111322	0	0	8076	553493	0	0
2024-08-14 11:10:47			0	37606	0	0	0	30394	29020	154395	26845	1077771	46508	111317	0	0	8077	552796	0	0
2024-08-14 11:11:47			0	37583	0	0	0	30397	29010	154343	27085	1077672	46518	111318	0	0	8076	553719	0	0
2024-08-14 11:12:47			0	37594	0	0	0	30397	29020	154403	27202	1077717	46520	111318	0	0	8076	553261	0	0
2024-08-14 11:13:47			0	37587	0	0	0	30392	29010	154363	27109	1077681	46507	111316	0	0	8076	553564	0	0
2024-08-14 11:14:47			0	37576	0	0	0	30392	29010	154339	26981	1077735	46497	111316	0	0	8075	553991	0	0
2024-08-14 11:15:47			0	37589	0	0	0	30386	29010	154471	27126	1077654	46519	111314	0	0	8076	553487	0	0
2024-08-14 11:16:47			0	37574	0	0	0	30386	29010	154443	26961	1077699	46518	111314	0	0	8075	554069	0	0
2024-08-14 11:17:47			0	37567	0	0	0	30392	29010	154439	27055	1077726	46529	111316	0	0	8075	554340	0	0
2024-08-14 11:18:47			0	37578	0	0	0	30384	29010	154471	26922	1077708	46530	111313	0	0	8076	553913	0	0
2024-08-14 11:19:47			0	37570	0	0	0	30389	29010	154463	26953	1077645	46518	111315	0	0	8075	554224	0	0
2024-08-14 11:20:47			0	37593	0	0	0	30379	29010	154439	27069	1077681	46507	111311	0	0	8077	553332	0	0
2024-08-14 11:21:47			0	37582	0	0	0	30381	29010	154491	26979	1077672	46496	111312	0	0	8076	553758	0	0
2024-08-14 11:22:47			0	37581	0	0	0	30394	29000	154483	27234	1077663	46518	111317	0	0	8076	553829	0	0
2024-08-14 11:23:47			0	37576	0	0	0	30397	29010	154503	26883	1077681	46519	111318	0	0	8075	553991	0	0
2024-08-14 11:24:47			0	37582	0	0	0	30405	29010	154515	27263	1077708	46530	111321	0	0	8076	553758	0	0
2024-08-14 11:25:47			0	37583	0	0	0	30397	29020	154435	27268	1077690	46542	111318	0	0	8076	553687	0	0
2024-08-14 11:26:47			0	37554	0	0	0	30402	29020	154495	26909	1077753	46521	111320	0	0	8074	554813	0	0
2024-08-14 11:27:47			0	37567	0	0	0	30405	29020	154475	27067	1077753	46521	111321	0	0	8075	554308	0	0
2024-08-14 11:28:47			0	37579	0	0	0	30405	29030	154359	27168	1077816	46521	111321	0	0	8075	553810	0	0
2024-08-14 11:29:47			0	37570	0	0	0	30420	29020	154471	27287	1077780	46509	111327	0	0	8075	554192	0	0
2024-08-14 11:30:47			0	37574	0	0	0	30423	29030	154415	27111	1077771	46521	111328	0	0	8075	554004	0	0
2024-08-14 11:31:47			0	37562	0	0	0	30425	29030	154423	27152	1077825	46532	111329	0	0	8074	554470	0	0
2024-08-14 11:32:47			0	37590	0	0	0	30428	29040	154387	27119	1077807	46522	111330	0	0	8076	553352	0	0
2024-08-14 11:33:47			0	37580	0	0	0	30433	29040	154427	26993	1077816	46545	111332	0	0	8075	553739	0	0
2024-08-14 11:34:47			0	37586	0	0	0	30418	29030	154411	27088	1077789	46499	111326	0	0	8076	553539	0	0
2024-08-14 11:35:47			0	37610	0	0	0	30420	29040	154359	26922	1077753	46522	111327	0	0	8077	552576	0	0
2024-08-14 11:36:47			0	37600	0	0	0	30428	29030	154383	26920	1077762	46521	111330	0	0	8076	552996	0	0
2024-08-14 11:37:47			0	37608	0	0	0	30418	29040	154403	27298	1077789	46523	111326	0	0	8077	552654	0	0
2024-08-14 11:38:47			0	37622	0	0	0	30418	29020	154247	26949	1077753	46509	111326	0	0	8078	552175	0	0
2024-08-14 11:39:47			0	37625	0	0	0	30425	29020	154255	27274	1077690	46520	111329	0	0	8078	552059	0	0
2024-08-14 11:40:47			0	37650	0	0	0	30431	29030	154215	27255	1077771	46532	111331	0	0	8079	551060	0	0
2024-08-14 11:41:47			0	37632	0	0	0	30423	29040	154255	27232	1077780	46510	111328	0	0	8078	551724	0	0
2024-08-14 11:42:47			0	37656	0	0	0	30418	29030	154047	26840	1077771	46509	111326	0	0	8080	550828	0	0
2024-08-14 11:43:47			0	37663	0	0	0	30425	29030	154071	26918	1077717	46532	111329	0	0	8080	550557	0	0
2024-08-14 11:44:47			0	37666	0	0	0	30428	29040	154087	27244	1077834	46533	111330	0	0	8080	550409	0	0
2024-08-14 11:45:47			0	37668	0	0	0	30446	29030	154031	27144	1077816	46532	111337	0	0	8080	550364	0	0
2024-08-14 11:46:47			0	37684	0	0	0	30454	29040	154055	26871	1077897	46545	111340	0	0	8081	549714	0	0
2024-08-14 11:47:47			0	37673	0	0	0	30459	29040	153991	27012	1077942	46522	111342	0	0	8080	550139	0	0
2024-08-14 11:48:47			0	37686	0	0	0	30449	29050	153959	26844	1077942	46523	111338	0	0	8081	549605	0	0
2024-08-14 11:49:47			0	37680	0	0	0	30462	29050	153943	26890	1078014	46523	111343	0	0	8080	549837	0	0
2024-08-14 11:50:47			0	37694	0	0	0	30472	29070	153983	27223	1078060	46536	111347	0	0	8081	549232	0	0
2024-08-14 11:51:47			0	37696	0	0	0	30490	29080	153943	26639	1078096	46537	111354	0	0	8081	549123	0	0
2024-08-14 11:52:47			0	37690	0	0	0	30490	29070	153871	27163	1078114	46547	111354	0	0	8081	549387	0	0
2024-08-14 11:53:47			0	37722	0	0	0	30483	29080	153839	27012	1078123	46526	111351	0	0	8083	548121	0	0
2024-08-14 11:54:47			0	37712	0	0	0	30483	29080	153819	27130	1078078	46527	111351	0	0	8082	548506	0	0
2024-08-14 11:55:47			0	37712	0	0	0	30477	29080	153779	26958	1078051	46527	111349	0	0	8082	548506	0	0
2024-08-14 11:56:47			0	37712	0	0	0	30475	29070	153871	26883	1078078	46536	111348	0	0	8082	548538	0	0
2024-08-14 11:57:47			0	37721	0	0	0	30503	29090	153727	26847	1078141	46550	111359	0	0	8082	548127	0	0
2024-08-14 11:58:47			0	37736	0	0	0	30503	29090	153623	27173	1078177	46539	111359	0	0	8083	547549	0	0
2024-08-14 11:59:47			0	37738	0	0	0	30509	29090	153695	26982	1078141	46528	111361	0	0	8083	547472	0	0
2024-08-14 12:00:47			0	37731	0	0	0	30506	29090	153587	27242	1078204	46539	111360	0	0	8083	547742	0	0
2024-08-14 12:01:47			0	37741	0	0	0	30511	29100	153655	27161	1078186	46528	111362	0	0	8083	547325	0	0
2024-08-14 12:02:47			0	37759	0	0	0	30516	29110	153763	27196	1078258	46530	111364	0	0	8084	546601	0	0
2024-08-14 12:03:47			0	37747	0	0	0	30532	29110	153695	27268	1078204	46541	111370	0	0	8083	547062	0	0
2024-08-14 12:04:47			0	37772	0	0	0	30535	29100	153711	27045	1078303	46540	111371	0	0	8085	546132	0	0
2024-08-14 12:05:47			0	37751	0	0	0	30542	29120	153683	27279	1078420	46541	111374	0	0	8084	546877	0	0
2024-08-14 12:06:47			0	37772	0	0	0	30581	29130	153659	27111	1078510	46554	111389	0	0	8084	546037	0	0
2024-08-14 12:07:47			0	37761	0	0	0	30599	29140	153595	26949	1078537	46555	111396	0	0	8083	546428	0	0
2024-08-14 12:08:47			0	37768	0	0	0	30620	29150	153667	27289	1078628	46567	111404	0	0	8083	546127	0	0
2024-08-14 12:09:47			0	37775	0	0	0	30615	29170	153539	27104	1078637	46558	111402	0	0	8084	545795	0	0
2024-08-14 12:10:47			0	37780	0	0	0	30615	29170	153387	27253	1078700	46537	111402	0	0	8084	545603	0	0
2024-08-14 12:11:47			0	37783	0	0	0	30618	29180	153471	26986	1078637	46547	111403	0	0	8084	545456	0	0
2024-08-14 12:12:47			0	37798	0	0	0	30602	29180	153503	26961	1078709	46537	111397	0	0	8085	544880	0	0
2024-08-14 12:13:47			0	37777	0	0	0	30599	29180	153471	26844	1078718	46537	111396	0	0	8084	545687	0	0
2024-08-14 12:14:47			0	37781	0	0	0	30623	29190	153423	27078	1078763	46561	111405	0	0	8084	545501	0	0
2024-08-14 12:15:47			0	37786	0	0	0	30615	29190	153467	26793	1078817	46549	111402	0	0	8085	545309	0	0
2024-08-14 12:16:47			0	37773	0	0	0	30631	29210	153559	27161	1078898	46550	111408	0	0	8084	545745	0	0
2024-08-14 12:17:47			0	37784	0	0	0	30625	29210	153403	26987	1078907	46551	111406	0	0	8084	545323	0	0
2024-08-14 12:18:47			0	37785	0	0	0	30638	29210	153427	26902	1079015	46563	111411	0	0	8084	545284	0	0
2024-08-14 12:19:47			0	37780	0	0	0	30670	29220	153439	27199	1079105	46551	111423	0	0	8083	545445	0	0
2024-08-14 12:20:47			0	37779	0	0	0	30683	29240	153507	26734	1079141	46576	111428	0	0	8083	545420	0	0
2024-08-14 12:21:47			0	37757	0	0	0	30701	29250	153463	27164	1079196	46555	111435	0	0	8082	546233	0	0
2024-08-14 12:22:47			0	37764	0	0	0	30716	29270	153527	26797	1079241	46556	111441	0	0	8082	545901	0	0
2024-08-14 12:23:47			0	37781	0	0	0	30727	29270	153363	27083	1079322	46579	111445	0	0	8083	545248	0	0
2024-08-14 12:24:47			0	37776	0	0	0	30735	29290	153399	26987	1079385	46558	111448	0	0	8082	545376	0	0
2024-08-14 12:25:47			0	37789	0	0	0	30745	29300	153235	26693	1079376	46559	111452	0	0	8083	544846	0	0
2024-08-14 12:26:47			0	37784	0	0	0	30753	29310	153327	27085	1079458	46573	111455	0	0	8083	545006	0	0
2024-08-14 12:27:47			0	37758	0	0	0	30768	29310	153343	27168	1079530	46560	111461	0	0	8081	546004	0	0
2024-08-14 12:28:47			0	37771	0	0	0	30781	29320	153391	27022	1079530	46584	111466	0	0	8082	545473	0	0
2024-08-14 12:29:47			0	37767	0	0	0	30794	29330	153315	27003	1079683	46563	111471	0	0	8081	545595	0	0
2024-08-14 12:30:47			0	37778	0	0	0	30812	29340	153459	26902	1079701	46553	111478	0	0	8082	545141	0	0
2024-08-14 12:31:47			0	37779	0	0	0	30825	29350	153343	26911	1079683	46564	111483	0	0	8081	545071	0	0
2024-08-14 12:32:47			0	37788	0	0	0	30825	29360	153243	26989	1079701	46566	111483	0	0	8082	544694	0	0
2024-08-14 12:33:47			0	37828	0	0	0	30833	29370	153027	27107	1079827	46556	111486	0	0	8084	543129	0	0
2024-08-14 12:34:47			0	37939	0	0	0	30831	29370	152731	27017	1079782	46567	111485	0	0	8091	538889	0	0
2024-08-14 12:35:47			0	38038	0	0	0	30838	29380	152308	27003	1079801	46568	111488	0	0	8096	535094	0	0
2024-08-14 12:36:47			0	38111	0	0	0	30854	29380	152060	26823	1079791	46568	111494	0	0	8100	532330	0	0
2024-08-14 12:37:47			0	38140	0	0	0	30844	29390	151924	26873	1079864	46558	111490	0	0	8102	531203	0	0
2024-08-14 12:38:47			0	38174	0	0	0	30844	29400	151820	26844	1079909	46559	111490	0	0	8104	529890	0	0
2024-08-14 12:39:47			0	38205	0	0	0	30854	29400	151580	26791	1079972	46583	111494	0	0	8106	528722	0	0
2024-08-14 12:40:47			0	38268	0	0	0	30870	29410	151472	27060	1080035	46583	111500	0	0	8109	526323	0	0
2024-08-14 12:41:47			0	38299	0	0	0	30896	29420	151280	27095	1080143	46584	111510	0	0	8110	525129	0	0
2024-08-14 12:42:47			0	38324	0	0	0	30906	29430	151132	26981	1080162	46573	111514	0	0	8112	524162	0	0
2024-08-14 12:43:47			0	38357	0	0	0	30914	29450	151100	27133	1080252	46586	111517	0	0	8113	522867	0	0
2024-08-14 12:44:47			0	38345	0	0	0	30909	29450	151056	26963	1080252	46586	111515	0	0	8113	523315	0	0
2024-08-14 12:45:47			0	38338	0	0	0	30903	29450	151048	26987	1080225	46575	111513	0	0	8113	523577	0	0
2024-08-14 12:46:47			0	38329	0	0	0	30906	29460	151036	27069	1080189	46577	111514	0	0	8112	523884	0	0
2024-08-14 12:47:47			0	38335	0	0	0	30890	29460	151112	27260	1080234	46576	111508	0	0	8113	523659	0	0
2024-08-14 12:48:47			0	38322	0	0	0	30875	29460	151112	27145	1080162	46566	111502	0	0	8112	524146	0	0
2024-08-14 12:49:47			0	38318	0	0	0	30864	29460	151108	27085	1080099	46542	111498	0	0	8112	524295	0	0
2024-08-14 12:50:47			0	38334	0	0	0	30862	29460	151108	27215	1080189	46566	111497	0	0	8113	523696	0	0
2024-08-14 12:51:47			0	38324	0	0	0	30877	29460	151076	26930	1080351	46566	111503	0	0	8112	524071	0	0
2024-08-14 12:52:47			0	38313	0	0	0	30922	29480	151276	26800	1080378	46600	111520	0	0	8111	524422	0	0
2024-08-14 12:53:47			0	38300	0	0	0	30929	29490	151168	26849	1080424	46591	111523	0	0	8110	524878	0	0
2024-08-14 12:54:47			0	38325	0	0	0	30906	29490	151020	26972	1080424	46569	111514	0	0	8112	523942	0	0
2024-08-14 12:55:47			0	38320	0	0	0	30896	29500	151060	26819	1080334	46569	111510	0	0	8112	524098	0	0
2024-08-14 12:56:47			0	38320	0	0	0	30890	29490	151096	27033	1080325	46557	111508	0	0	8112	524129	0	0
2024-08-14 12:57:47			0	38310	0	0	0	30880	29490	151048	26823	1080370	46557	111504	0	0	8112	524503	0	0
2024-08-14 12:58:47			0	38295	0	0	0	30877	29490	151116	27020	1080370	46580	111503	0	0	8111	525065	0	0
2024-08-14 12:59:47			0	38264	0	0	0	30883	29490	151292	27192	1080379	46569	111505	0	0	8109	526228	0	0
2024-08-14 13:00:47			0	38253	0	0	0	30867	29500	151316	26986	1080307	46580	111499	0	0	8109	526610	0	0
2024-08-14 13:01:47			0	38258	0	0	0	30864	29490	151304	26998	1080406	46557	111498	0	0	8109	526453	0	0
2024-08-14 13:02:47			0	38199	0	0	0	30911	29500	151484	27270	1080559	46592	111516	0	0	8105	528640	0	0
2024-08-14 13:03:47			0	38198	0	0	0	30961	29520	151524	27130	1080613	46604	111535	0	0	8104	528616	0	0
2024-08-14 13:04:47			0	38189	0	0	0	30986	29530	151440	26961	1080695	46596	111545	0	0	8103	528924	0	0
2024-08-14 13:05:47			0	38189	0	0	0	30997	29540	151604	27093	1080731	46596	111549	0	0	8103	528893	0	0
2024-08-14 13:06:47			0	38166	0	0	0	30992	29560	151652	26968	1080794	46598	111547	0	0	8102	529698	0	0
2024-08-14 13:07:47			0	38123	0	0	0	30966	29560	151648	27213	1080821	46576	111537	0	0	8100	531320	0	0
2024-08-14 13:08:47			0	38138	0	0	0	30937	29570	151708	27045	1080641	46576	111526	0	0	8101	530723	0	0
2024-08-14 13:09:47			0	38115	0	0	0	30911	29560	151760	27187	1080569	46553	111516	0	0	8100	531622	0	0
2024-08-14 13:10:47			0	38132	0	0	0	30911	29550	151776	27312	1080614	46575	111516	0	0	8101	531011	0	0
2024-08-14 13:11:47			0	38156	0	0	0	30914	29550	151732	27156	1080632	46574	111517	0	0	8102	530106	0	0
2024-08-14 13:12:47			0	38144	0	0	0	30911	29540	151644	27081	1080596	46574	111516	0	0	8102	530589	0	0
2024-08-14 13:13:47			0	38149	0	0	0	30929	29550	151700	27234	1080614	46563	111523	0	0	8102	530370	0	0
2024-08-14 13:14:47			0	38137	0	0	0	30932	29550	151600	27144	1080668	46575	111524	0	0	8101	530822	0	0
2024-08-14 13:15:47			0	38159	0	0	0	30940	29560	151660	26963	1080677	46564	111527	0	0	8102	529962	0	0
2024-08-14 13:16:47			0	38171	0	0	0	30940	29550	151548	27088	1080641	46575	111527	0	0	8103	529540	0	0
2024-08-14 13:17:47			0	38165	0	0	0	30935	29550	151548	27052	1080686	46574	111525	0	0	8103	529766	0	0
2024-08-14 13:18:47			0	38186	0	0	0	30937	29550	151584	26854	1080668	46575	111526	0	0	8104	528976	0	0
2024-08-14 13:19:47			0	38192	0	0	0	30942	29560	151620	26840	1080686	46576	111528	0	0	8104	528719	0	0
2024-08-14 13:20:47			0	38188	0	0	0	30953	29560	151548	26847	1080713	46576	111532	0	0	8104	528869	0	0
2024-08-14 13:21:47			0	38195	0	0	0	30966	29570	151484	26778	1080722	46598	111537	0	0	8104	528575	0	0
2024-08-14 13:22:47			0	38208	0	0	0	30976	29570	151412	27045	1080749	46598	111541	0	0	8104	528086	0	0
2024-08-14 13:23:47			0	38222	0	0	0	30981	29580	151484	26974	1080902	46578	111543	0	0	8105	527529	0	0
2024-08-14 13:24:47			0	38220	0	0	0	30992	29570	151348	27034	1080839	46587	111547	0	0	8105	527635	0	0
2024-08-14 13:25:47			0	38222	0	0	0	31005	29580	151476	27062	1080902	46578	111552	0	0	8105	527529	0	0
2024-08-14 13:26:47			0	38220	0	0	0	31007	29590	151356	26816	1080956	46589	111553	0	0	8105	527574	0	0
2024-08-14 13:27:47			0	38218	0	0	0	31018	29600	151308	27166	1081002	46581	111557	0	0	8104	527618	0	0
2024-08-14 13:28:47			0	38224	0	0	0	31015	29610	151256	26686	1081047	46591	111556	0	0	8105	527362	0	0
2024-08-14 13:29:47			0	38224	0	0	0	31033	29620	151248	27057	1081056	46604	111563	0	0	8105	527331	0	0
2024-08-14 13:30:47			0	38234	0	0	0	31038	29610	151308	26679	1081128	46581	111565	0	0	8105	526986	0	0
2024-08-14 13:31:47			0	38257	0	0	0	31057	29630	151160	26613	1081110	46593	111572	0	0	8106	526062	0	0
2024-08-14 13:32:47			0	38244	0	0	0	31054	29630	151148	27180	1081191	46593	111571	0	0	8105	526550	0	0
2024-08-14 13:33:47			0	38236	0	0	0	31059	29630	151228	27039	1081164	46593	111573	0	0	8105	526850	0	0
2024-08-14 13:34:47			0	38247	0	0	0	31049	29640	151232	26868	1081200	46583	111569	0	0	8106	526406	0	0
2024-08-14 13:35:47			0	38250	0	0	0	31044	29630	151196	26686	1081164	46583	111567	0	0	8106	526324	0	0
2024-08-14 13:36:47			0	38244	0	0	0	31041	29640	151248	27022	1081182	46584	111566	0	0	8106	526519	0	0
2024-08-14 13:37:47			0	38264	0	0	0	31041	29640	151080	26805	1081173	46572	111566	0	0	8107	525769	0	0
2024-08-14 13:38:47			0	38245	0	0	0	31031	29630	151156	26871	1081029	46583	111562	0	0	8106	526512	0	0
2024-08-14 13:39:47			0	38247	0	0	0	31020	29630	151164	26674	1081056	46571	111558	0	0	8106	526437	0	0
2024-08-14 13:40:47			0	38225	0	0	0	31007	29630	151152	26817	1081029	46571	111553	0	0	8105	527263	0	0
2024-08-14 13:41:47			0	38254	0	0	0	31005	29630	151108	26677	1081020	46583	111552	0	0	8107	526174	0	0
2024-08-14 13:42:47			0	38260	0	0	0	31005	29620	151008	26717	1081011	46571	111552	0	0	8107	525980	0	0
2024-08-14 13:43:47			0	38266	0	0	0	31002	29620	151048	26890	1081029	46582	111551	0	0	8108	525755	0	0
2024-08-14 13:44:47			0	38269	0	0	0	31018	29630	151040	26757	1081020	46593	111557	0	0	8108	525612	0	0
2024-08-14 13:45:47			0	38271	0	0	0	31002	29630	150908	26741	1081137	46583	111551	0	0	8108	525537	0	0
2024-08-14 13:46:47			0	38286	0	0	0	31020	29640	151000	26854	1081146	46583	111558	0	0	8109	524944	0	0
2024-08-14 13:47:47			0	38300	0	0	0	31020	29620	150876	26896	1081065	46593	111558	0	0	8109	524481	0	0
2024-08-14 13:48:47			0	38310	0	0	0	31031	29640	150876	26974	1081074	46584	111562	0	0	8110	524046	0	0
2024-08-14 13:49:47			0	38301	0	0	0	31020	29630	150820	26925	1081047	46583	111558	0	0	8109	524413	0	0
2024-08-14 13:50:47			0	38291	0	0	0	31018	29640	150936	27019	1081128	46573	111557	0	0	8109	524757	0	0
2024-08-14 13:51:47			0	38291	0	0	0	31020	29640	150904	26904	1081074	46584	111558	0	0	8109	524757	0	0
2024-08-14 13:52:47			0	38304	0	0	0	31010	29620	150924	26831	1081056	46582	111554	0	0	8110	524331	0	0
2024-08-14 13:53:47			0	38301	0	0	0	31002	29630	150916	27123	1081056	46560	111551	0	0	8110	524413	0	0
2024-08-14 13:54:47			0	38290	0	0	0	31010	29620	150888	26635	1081083	46559	111554	0	0	8109	524855	0	0
2024-08-14 13:55:47			0	38293	0	0	0	31031	29630	150920	26835	1081101	46583	111562	0	0	8109	524713	0	0
2024-08-14 13:56:47			0	38285	0	0	0	31033	29640	150864	26960	1081101	46584	111563	0	0	8108	524982	0	0
2024-08-14 13:57:47			0	38300	0	0	0	31028	29640	150832	26894	1081146	46583	111561	0	0	8109	524420	0	0
2024-08-14 13:58:47			0	38305	0	0	0	31025	29630	150848	26772	1081083	46571	111560	0	0	8109	524263	0	0
2024-08-14 13:59:47			0	38294	0	0	0	31041	29640	150836	26916	1081182	46595	111566	0	0	8109	524645	0	0
2024-08-14 14:00:47			0	38293	0	0	0	31075	29650	150836	26613	1081282	46595	111579	0	0	8108	524652	0	0
2024-08-14 14:01:47			0	38311	0	0	0	31090	29650	150792	26564	1081363	46595	111585	0	0	8109	523978	0	0
2024-08-14 14:02:47			0	38332	0	0	0	31096	29660	150812	26897	1081381	46609	111587	0	0	8110	523162	0	0
2024-08-14 14:03:47			0	38317	0	0	0	31106	29670	150740	26951	1081453	46587	111591	0	0	8109	523692	0	0
2024-08-14 14:04:47			0	38338	0	0	0	31103	29670	150716	26880	1081444	46598	111590	0	0	8110	522907	0	0
2024-08-14 14:05:47			0	38326	0	0	0	31111	29680	150744	26993	1081435	46598	111593	0	0	8109	523325	0	0
2024-08-14 14:06:47			0	38347	0	0	0	31116	29690	150724	26840	1081453	46612	111595	0	0	8111	522510	0	0
2024-08-14 14:07:47			0	38344	0	0	0	31137	29700	150616	26989	1081526	46589	111603	0	0	8110	522592	0	0
2024-08-14 14:08:47			0	38359	0	0	0	31124	29690	150668	26958	1081516	46600	111598	0	0	8111	522062	0	0
2024-08-14 14:09:47			0	38356	0	0	0	31127	29700	150716	27079	1081562	46601	111599	0	0	8111	522144	0	0
2024-08-14 14:10:47			0	38356	0	0	0	31129	29700	150644	27102	1081580	46612	111600	0	0	8111	522144	0	0
2024-08-14 14:11:47			0	38345	0	0	0	31140	29720	150584	27088	1081697	46580	111604	0	0	8110	522493	0	0
2024-08-14 14:12:47			0	38363	0	0	0	31142	29720	150688	27019	1081643	46591	111605	0	0	8111	521822	0	0
2024-08-14 14:13:47			0	38357	0	0	0	31150	29720	150684	26750	1081643	46602	111608	0	0	8111	522046	0	0
2024-08-14 14:14:47			0	38338	0	0	0	31145	29730	150664	27088	1081697	46593	111606	0	0	8110	522724	0	0
2024-08-14 14:15:47			0	38345	0	0	0	31145	29730	150772	27104	1081688	46616	111606	0	0	8110	522463	0	0
2024-08-14 14:16:47			0	38318	0	0	0	31150	29730	150672	27157	1081724	46604	111608	0	0	8109	523472	0	0
2024-08-14 14:17:47			0	38331	0	0	0	31153	29730	150752	26951	1081742	46593	111609	0	0	8109	522986	0	0
2024-08-14 14:18:47			0	38330	0	0	0	31161	29730	150748	26955	1081751	46604	111612	0	0	8109	523023	0	0
2024-08-14 14:19:47			0	38324	0	0	0	31173	29740	150664	27066	1081850	46594	111617	0	0	8109	523217	0	0
2024-08-14 14:20:47			0	38318	0	0	0	31181	29760	150672	26771	1081905	46619	111620	0	0	8108	523380	0	0
2024-08-14 14:21:47			0	38325	0	0	0	31194	29760	150728	27116	1081995	46607	111625	0	0	8108	523119	0	0
2024-08-14 14:22:47			0	38328	0	0	0	31205	29770	150700	27150	1082067	46609	111629	0	0	8108	522976	0	0
2024-08-14 14:23:47			0	38296	0	0	0	31199	29770	150728	26993	1082013	46609	111627	0	0	8107	524173	0	0
2024-08-14 14:24:47			0	38317	0	0	0	31207	29780	150616	26866	1082058	46621	111630	0	0	8108	523357	0	0
2024-08-14 14:25:47			0	38337	0	0	0	31215	29790	150604	27130	1082041	46622	111633	0	0	8109	522579	0	0
2024-08-14 14:26:47			0	38311	0	0	0	31223	29800	150748	26842	1082113	46600	111636	0	0	8107	523520	0	0
2024-08-14 14:27:47			0	38333	0	0	0	31231	29800	150660	27270	1082194	46633	111639	0	0	8108	522698	0	0
2024-08-14 14:28:47			0	38319	0	0	0	31249	29800	150632	27173	1082203	46624	111646	0	0	8107	523221	0	0
2024-08-14 14:29:47			0	38321	0	0	0	31267	29820	150692	27088	1082338	46602	111653	0	0	8107	523085	0	0
2024-08-14 14:30:47			0	38321	0	0	0	31277	29840	150788	27138	1082374	46616	111657	0	0	8107	523024	0	0
2024-08-14 14:31:47			0	38325	0	0	0	31290	29840	150644	27239	1082429	46638	111662	0	0	8107	522875	0	0
2024-08-14 14:32:47			0	38330	0	0	0	31311	29850	150672	26916	1082555	46628	111670	0	0	8107	522658	0	0
2024-08-14 14:33:47			0	38327	0	0	0	31322	29880	150608	27178	1082690	46631	111674	0	0	8107	522678	0	0
2024-08-14 14:34:47			0	38323	0	0	0	31327	29890	150560	26861	1082709	46621	111676	0	0	8107	522797	0	0
2024-08-14 14:35:47			0	38328	0	0	0	31342	29890	150532	26989	1082790	46610	111682	0	0	8107	522610	0	0
2024-08-14 14:36:47			0	38336	0	0	0	31348	29910	150524	27050	1082817	46644	111684	0	0	8107	522251	0	0
2024-08-14 14:37:47			0	38338	0	0	0	31361	29920	150424	26845	1082844	46635	111689	0	0	8107	522146	0	0
2024-08-14 14:38:47			0	38348	0	0	0	31371	29940	150412	26925	1083007	46637	111693	0	0	8107	521712	0	0
2024-08-14 14:39:47			0	38352	0	0	0	31397	29950	150440	27041	1083061	46649	111703	0	0	8107	521532	0	0
2024-08-14 14:40:47			0	38353	0	0	0	31418	29960	150392	26946	1083151	46650	111711	0	0	8107	521465	0	0
2024-08-14 14:41:47			0	38347	0	0	0	31431	29970	150312	26727	1083260	46640	111716	0	0	8107	521658	0	0
2024-08-14 14:42:47			0	38338	0	0	0	31441	29970	150352	27050	1083287	46640	111720	0	0	8106	521994	0	0
2024-08-14 14:43:47			0	38357	0	0	0	31454	30000	150356	26953	1083368	46632	111725	0	0	8107	521194	0	0
2024-08-14 14:44:47			0	38350	0	0	0	31467	30010	150492	26918	1083440	46632	111730	0	0	8106	521424	0	0
2024-08-14 14:45:47			0	38361	0	0	0	31470	30030	150376	26935	1083495	46634	111731	0	0	8107	520954	0	0
2024-08-14 14:46:47			0	38378	0	0	0	31470	30030	150244	26963	1083495	46634	111731	0	0	8108	520321	0	0
2024-08-14 14:47:47			0	38375	0	0	0	31470	30030	150216	26941	1083477	46625	111731	0	0	8108	520432	0	0
2024-08-14 14:48:47			0	38380	0	0	0	31449	30040	150196	27234	1083432	46635	111723	0	0	8108	520216	0	0
2024-08-14 14:49:47			0	38384	0	0	0	31446	30040	150204	26611	1083405	46635	111722	0	0	8109	520067	0	0
2024-08-14 14:50:47			0	38401	0	0	0	31449	30050	150152	26892	1083477	46626	111723	0	0	8110	519404	0	0
2024-08-14 14:51:47			0	38392	0	0	0	31459	30050	150124	26658	1083487	46637	111727	0	0	8109	519739	0	0
2024-08-14 14:52:47			0	38432	0	0	0	31457	30050	150120	26897	1083487	46626	111726	0	0	8111	518252	0	0
2024-08-14 14:53:47			0	38432	0	0	0	31438	30050	150076	27017	1083477	46626	111719	0	0	8112	518252	0	0
2024-08-14 14:54:47			0	38431	0	0	0	31423	30050	149984	26854	1083423	46615	111713	0	0	8112	518290	0	0
2024-08-14 14:55:47			0	38445	0	0	0	31407	30050	149920	26677	1083379	46604	111707	0	0	8113	517770	0	0
2024-08-14 14:56:47			0	38444	0	0	0	31399	30040	149912	26894	1083252	46614	111704	0	0	8113	517837	0	0
2024-08-14 14:57:47			0	38450	0	0	0	31394	30050	149820	26757	1083379	46615	111702	0	0	8113	517584	0	0
2024-08-14 14:58:47			0	38463	0	0	0	31415	30050	149808	26948	1083423	46637	111710	0	0	8114	517102	0	0
2024-08-14 14:59:47			0	38469	0	0	0	31418	30050	149728	27027	1083433	46649	111711	0	0	8114	516880	0	0
2024-08-14 15:00:47			0	38500	0	0	0	31425	30040	149692	26887	1083486	46635	111714	0	0	8116	515761	0	0
2024-08-14 15:01:47			0	38520	0	0	0	31431	30060	149496	26911	1083613	46650	111716	0	0	8117	514961	0	0
2024-08-14 15:02:47			0	38522	0	0	0	31441	30050	149628	26894	1083541	46626	111720	0	0	8117	514917	0	0
2024-08-14 15:03:47			0	38550	0	0	0	31438	30070	149464	26602	1083568	46639	111719	0	0	8118	513822	0	0
2024-08-14 15:04:47			0	38534	0	0	0	31451	30070	149456	26892	1083514	46628	111724	0	0	8117	514414	0	0
2024-08-14 15:05:47			0	38535	0	0	0	31438	30070	149444	26764	1083514	46628	111719	0	0	8118	514377	0	0
2024-08-14 15:06:47			0	38527	0	0	0	31451	30070	149476	26977	1083541	46628	111724	0	0	8117	514672	0	0
2024-08-14 15:07:47			0	38536	0	0	0	31451	30070	149512	26946	1083541	46628	111724	0	0	8117	514340	0	0
2024-08-14 15:08:47			0	38541	0	0	0	31454	30060	149572	26838	1083505	46605	111725	0	0	8118	514185	0	0
2024-08-14 15:09:47			0	38533	0	0	0	31454	30070	149404	26750	1083523	46639	111725	0	0	8117	514451	0	0
2024-08-14 15:10:47			0	38546	0	0	0	31451	30070	149400	26793	1083487	46639	111724	0	0	8118	513970	0	0
2024-08-14 15:11:47			0	38553	0	0	0	31433	30070	149440	26788	1083433	46617	111717	0	0	8119	513712	0	0
2024-08-14 15:12:47			0	38544	0	0	0	31438	30050	149404	26974	1083406	46615	111719	0	0	8118	514104	0	0
2024-08-14 15:13:47			0	38553	0	0	0	31428	30050	149476	26958	1083423	46615	111715	0	0	8119	513772	0	0
2024-08-14 15:14:47			0	38563	0	0	0	31423	30040	149360	26878	1083360	46603	111713	0	0	8119	513432	0	0
2024-08-14 15:15:47			0	38560	0	0	0	31418	30040	149372	26831	1083306	46614	111711	0	0	8119	513543	0	0
2024-08-14 15:16:47			0	38577	0	0	0	31399	30040	149344	26817	1083333	46625	111704	0	0	8121	512916	0	0
2024-08-14 15:17:47			0	38568	0	0	0	31392	30030	149324	26672	1083171	46601	111701	0	0	8120	513278	0	0
2024-08-14 15:18:47			0	38576	0	0	0	31381	30030	149376	27026	1083198	46601	111697	0	0	8121	512982	0	0
2024-08-14 15:19:47			0	38581	0	0	0	31379	30020	149256	26762	1083153	46623	111696	0	0	8121	512828	0	0
2024-08-14 15:20:47			0	38594	0	0	0	31376	30010	149264	26956	1083143	46622	111695	0	0	8122	512378	0	0
2024-08-14 15:21:47			0	38622	0	0	0	31368	30010	149260	27010	1083134	46599	111692	0	0	8123	511346	0	0
2024-08-14 15:22:47			0	38626	0	0	0	31376	30020	149252	26937	1083180	46633	111695	0	0	8124	511169	0	0
2024-08-14 15:23:47			0	38613	0	0	0	31371	30010	149292	26896	1083215	46622	111693	0	0	8123	511678	0	0
2024-08-14 15:24:47			0	38618	0	0	0	31381	30010	149140	26896	1083242	46632	111697	0	0	8123	511494	0	0
2024-08-14 15:25:47			0	38626	0	0	0	31389	30010	149228	27121	1083251	46632	111700	0	0	8123	511199	0	0
2024-08-14 15:26:47			0	38621	0	0	0	31389	30020	149348	26687	1083234	46623	111700	0	0	8123	511353	0	0
2024-08-14 15:27:47			0	38595	0	0	0	31386	30010	149352	26833	1083224	46622	111699	0	0	8122	512341	0	0
2024-08-14 15:28:47			0	38588	0	0	0	31392	30010	149332	26776	1083224	46632	111701	0	0	8121	512600	0	0
2024-08-14 15:29:47			0	38560	0	0	0	31394	30010	149368	26880	1083242	46622	111702	0	0	8119	513633	0	0
2024-08-14 15:30:47			0	38533	0	0	0	31392	30010	149484	26915	1083332	46622	111701	0	0	8118	514631	0	0
2024-08-14 15:31:47			0	38525	0	0	0	31423	30030	149548	27185	1083414	46634	111713	0	0	8117	514866	0	0
2024-08-14 15:32:47			0	38500	0	0	0	31441	30040	149580	27209	1083459	46658	111720	0	0	8115	515761	0	0
2024-08-14 15:33:47			0	38480	0	0	0	31459	30040	149760	27057	1083522	46636	111727	0	0	8114	516502	0	0
2024-08-14 15:34:47			0	38460	0	0	0	31470	30050	149772	27118	1083504	46649	111731	0	0	8113	517213	0	0
2024-08-14 15:35:47			0	38451	0	0	0	31462	30060	149788	26991	1083577	46637	111728	0	0	8112	517517	0	0
2024-08-14 15:36:47			0	38442	0	0	0	31459	30060	149752	27275	1083523	46626	111727	0	0	8112	517851	0	0
2024-08-14 15:37:47			0	38442	0	0	0	31472	30070	149764	27050	1083595	46639	111732	0	0	8112	517821	0	0
2024-08-14 15:38:47			0	38424	0	0	0	31490	30070	149852	26850	1083676	46628	111739	0	0	8110	518489	0	0
2024-08-14 15:39:47			0	38420	0	0	0	31503	30080	149836	27104	1083748	46662	111744	0	0	8110	518607	0	0
2024-08-14 15:40:47			0	38418	0	0	0	31532	30090	149848	27083	1083830	46641	111755	0	0	8109	518651	0	0
2024-08-14 15:41:47			0	38420	0	0	0	31535	30090	149984	27170	1083992	46664	111756	0	0	8110	518577	0	0
2024-08-14 15:42:47			0	38407	0	0	0	31548	30100	149840	26837	1083956	46653	111761	0	0	8109	519030	0	0
2024-08-14 15:43:47			0	38405	0	0	0	31558	30120	149868	26930	1083929	46655	111765	0	0	8108	519043	0	0
2024-08-14 15:44:47			0	38425	0	0	0	31542	30120	149852	26727	1083929	46644	111759	0	0	8110	518301	0	0
2024-08-14 15:45:47			0	38431	0	0	0	31527	30140	149880	27187	1084011	46646	111753	0	0	8111	518017	0	0
2024-08-14 15:46:47			0	38425	0	0	0	31524	30130	149780	26946	1083866	46645	111752	0	0	8110	518270	0	0
2024-08-14 15:47:47			0	38433	0	0	0	31496	30140	149656	26859	1083831	46613	111741	0	0	8111	517943	0	0
2024-08-14 15:48:47			0	38471	0	0	0	31454	30120	149600	27052	1083713	46611	111725	0	0	8114	516594	0	0
2024-08-14 15:49:47			0	38526	0	0	0	31438	30110	149532	26920	1083587	46587	111719	0	0	8117	514589	0	0
2024-08-14 15:50:47			0	38554	0	0	0	31410	30090	149384	27206	1083523	46608	111708	0	0	8119	513615	0	0
2024-08-14 15:51:47			0	38590	0	0	0	31386	30080	149200	26934	1083397	46606	111699	0	0	8122	512316	0	0
2024-08-14 15:52:47			0	38617	0	0	0	31376	30050	149080	27024	1083288	46604	111695	0	0	8123	511411	0	0
2024-08-14 15:53:47			0	38639	0	0	0	31358	30050	149068	26739	1083298	46604	111688	0	0	8125	510601	0	0
2024-08-14 15:54:47			0	38638	0	0	0	31340	30030	149060	26970	1083207	46602	111681	0	0	8125	510698	0	0
2024-08-14 15:55:47			0	38636	0	0	0	31350	30040	149148	27066	1083324	46613	111685	0	0	8125	510741	0	0
2024-08-14 15:56:47			0	38608	0	0	0	31348	30030	149224	26870	1083288	46625	111684	0	0	8123	511802	0	0
2024-08-14 15:57:47			0	38588	0	0	0	31350	30040	149244	26585	1083378	46625	111685	0	0	8122	512510	0	0
2024-08-14 15:58:47			0	38571	0	0	0	31379	30050	149300	26781	1083396	46637	111696	0	0	8121	513107	0	0
2024-08-14 15:59:47			0	38551	0	0	0	31399	30050	149292	26719	1083514	46626	111704	0	0	8119	513846	0	0
2024-08-14 16:00:47			0	38559	0	0	0	31431	30060	149368	26946	1083577	46626	111716	0	0	8119	513520	0	0
2024-08-14 16:01:47			0	38536	0	0	0	31436	30050	149400	26875	1083622	46637	111718	0	0	8118	514400	0	0
2024-08-14 16:02:47			0	38541	0	0	0	31449	30070	149396	26840	1083676	46639	111723	0	0	8118	514155	0	0
2024-08-14 16:03:47			0	38533	0	0	0	31464	30080	149404	26569	1083748	46628	111729	0	0	8117	514420	0	0
2024-08-14 16:04:47			0	38541	0	0	0	31480	30100	149424	27017	1083839	46652	111735	0	0	8117	514065	0	0
2024-08-14 16:05:47			0	38551	0	0	0	31472	30090	149364	26739	1083776	46641	111732	0	0	8118	513726	0	0
2024-08-14 16:06:47			0	38551	0	0	0	31475	30100	149292	27112	1083785	46619	111733	0	0	8118	513696	0	0
2024-08-14 16:07:47			0	38565	0	0	0	31472	30100	149332	26831	1083812	46608	111732	0	0	8119	513179	0	0
2024-08-14 16:08:47			0	38563	0	0	0	31467	30090	149292	27069	1083830	46630	111730	0	0	8119	513282	0	0
2024-08-14 16:09:47			0	38580	0	0	0	31436	30100	149180	26989	1083650	46619	111718	0	0	8120	512625	0	0
2024-08-14 16:10:47			0	38602	0	0	0	31405	30080	149124	26946	1083424	46606	111706	0	0	8122	511874	0	0
2024-08-14 16:11:47			0	38614	0	0	0	31384	30070	149120	27015	1083433	46594	111698	0	0	8123	511462	0	0
2024-08-14 16:12:47			0	38663	0	0	0	31386	30060	148996	26960	1083496	46615	111699	0	0	8126	509689	0	0
2024-08-14 16:13:47			0	38652	0	0	0	31407	30070	148996	26984	1083487	46617	111707	0	0	8125	510064	0	0
2024-08-14 16:14:47			0	38664	0	0	0	31410	30050	148952	27015	1083514	46637	111708	0	0	8125	509682	0	0
2024-08-14 16:15:47			0	38670	0	0	0	31410	30060	148956	27098	1083505	46650	111708	0	0	8126	509432	0	0
2024-08-14 16:16:47			0	38641	0	0	0	31392	30070	148968	26720	1083496	46628	111701	0	0	8124	510468	0	0
2024-08-14 16:17:47			0	38652	0	0	0	31379	30060	149060	26805	1083424	46616	111696	0	0	8125	510093	0	0
2024-08-14 16:18:47			0	38663	0	0	0	31379	30060	149088	26961	1083469	46615	111696	0	0	8126	509689	0	0
2024-08-14 16:19:47			0	38636	0	0	0	31358	30060	149048	26984	1083361	46615	111688	0	0	8125	510682	0	0
2024-08-14 16:20:47			0	38628	0	0	0	31342	30050	149060	27190	1083315	46592	111682	0	0	8124	511006	0	0
2024-08-14 16:21:47			0	38612	0	0	0	31337	30030	149144	26928	1083225	46601	111680	0	0	8123	511655	0	0
2024-08-14 16:22:47			0	38609	0	0	0	31322	30020	149208	26847	1083081	46612	111674	0	0	8124	511795	0	0
2024-08-14 16:23:47			0	38598	0	0	0	31290	30000	149276	27008	1082882	46599	111662	0	0	8123	512261	0	0
2024-08-14 16:24:47			0	38607	0	0	0	31270	29980	149260	26733	1082872	46585	111654	0	0	8124	511989	0	0
2024-08-14 16:25:47			0	38588	0	0	0	31264	29970	149336	27012	1082800	46573	111652	0	0	8123	512719	0	0
2024-08-14 16:26:47			0	38531	0	0	0	31262	29960	149384	26904	1082728	46594	111651	0	0	8120	514855	0	0
2024-08-14 16:27:47			0	38540	0	0	0	31251	29940	149580	26715	1082692	46592	111647	0	0	8120	514582	0	0
2024-08-14 16:28:47			0	38546	0	0	0	31246	29950	149500	26942	1082701	46593	111645	0	0	8121	514330	0	0
2024-08-14 16:29:47			0	38546	0	0	0	31254	29920	149636	27005	1082682	46613	111648	0	0	8121	514420	0	0
2024-08-14 16:30:47			0	38547	0	0	0	31249	29920	149512	26987	1082673	46613	111646	0	0	8121	514383	0	0
2024-08-14 16:31:47			0	38536	0	0	0	31257	29910	149616	27072	1082745	46612	111649	0	0	8120	514820	0	0
2024-08-14 16:32:47			0	38536	0	0	0	31296	29920	149640	26833	1082953	46624	111664	0	0	8119	514790	0	0
2024-08-14 16:33:47			0	38549	0	0	0	31327	29940	149624	26783	1082989	46648	111676	0	0	8120	514249	0	0
2024-08-14 16:34:47			0	38511	0	0	0	31350	29950	149604	27045	1083106	46637	111685	0	0	8117	515625	0	0
2024-08-14 16:35:47			0	38516	0	0	0	31358	29960	149620	26795	1083151	46627	111688	0	0	8117	515410	0	0
2024-08-14 16:36:47			0	38507	0	0	0	31363	29980	149564	27022	1083161	46629	111690	0	0	8117	515683	0	0
2024-08-14 16:37:47			0	38528	0	0	0	31373	29980	149608	27005	1083269	46629	111694	0	0	8118	514906	0	0
2024-08-14 16:38:47			0	38533	0	0	0	31376	29980	149612	27140	1083215	46619	111695	0	0	8118	514721	0	0
2024-08-14 16:39:47			0	38527	0	0	0	31386	29990	149556	27017	1083233	46620	111699	0	0	8118	514913	0	0
2024-08-14 16:40:47			0	38539	0	0	0	31392	29990	149580	27001	1083269	46664	111701	0	0	8118	514469	0	0
2024-08-14 16:41:47			0	38533	0	0	0	31384	30000	149540	26873	1083278	46643	111698	0	0	8118	514661	0	0
2024-08-14 16:42:47			0	38539	0	0	0	31386	30000	149460	26696	1083206	46632	111699	0	0	8118	514439	0	0
2024-08-14 16:43:47			0	38535	0	0	0	31392	30010	149400	26856	1083215	46632	111701	0	0	8118	514557	0	0
2024-08-14 16:44:47			0	38535	0	0	0	31384	30000	149456	26932	1083233	46632	111698	0	0	8118	514587	0	0
2024-08-14 16:45:47			0	38535	0	0	0	31384	30010	149464	27277	1083269	46610	111698	0	0	8118	514557	0	0
2024-08-14 16:46:47			0	38558	0	0	0	31379	30000	149420	26916	1083233	46632	111696	0	0	8120	513737	0	0
2024-08-14 16:47:47			0	38558	0	0	0	31379	29990	149472	26955	1083242	46642	111696	0	0	8120	513767	0	0
2024-08-14 16:48:47			0	38550	0	0	0	31389	30010	149348	27083	1083224	46632	111700	0	0	8119	514002	0	0
2024-08-14 16:49:47			0	38565	0	0	0	31379	30010	149396	27204	1083251	46632	111696	0	0	8120	513448	0	0
2024-08-14 16:50:47			0	38564	0	0	0	31386	29990	149328	26802	1083296	46620	111699	0	0	8120	513545	0	0
2024-08-14 16:51:47			0	38559	0	0	0	31381	30010	149384	26733	1083188	46610	111697	0	0	8120	513670	0	0
2024-08-14 16:52:47			0	38570	0	0	0	31376	30000	149364	26835	1083233	46610	111695	0	0	8120	513294	0	0
2024-08-14 16:53:47			0	38558	0	0	0	31376	30010	149412	26961	1083242	46610	111695	0	0	8120	513707	0	0
2024-08-14 16:54:47			0	38560	0	0	0	31368	30000	149340	26859	1083197	46621	111692	0	0	8120	513663	0	0
2024-08-14 16:55:47			0	38562	0	0	0	31371	30000	149332	26753	1083251	46631	111693	0	0	8120	513589	0	0
2024-08-14 16:56:47			0	38564	0	0	0	31358	30000	149372	26979	1083287	46622	111688	0	0	8120	513515	0	0
2024-08-14 16:57:47			0	38578	0	0	0	31376	29990	149224	26823	1083188	46608	111695	0	0	8121	513028	0	0
2024-08-14 16:58:47			0	38570	0	0	0	31379	30010	149268	26956	1083269	46632	111696	0	0	8120	513264	0	0
2024-08-14 16:59:47			0	38549	0	0	0	31407	30010	149244	27081	1083296	46622	111707	0	0	8119	514039	0	0
2024-08-14 17:00:47			0	38564	0	0	0	31399	30010	149260	26778	1083242	46644	111704	0	0	8120	513485	0	0
2024-08-14 17:01:47			0	38561	0	0	0	31405	30020	149336	26701	1083261	46633	111706	0	0	8119	513566	0	0
2024-08-14 17:02:47			0	38559	0	0	0	31405	30010	149284	26663	1083332	46632	111706	0	0	8119	513670	0	0
2024-08-14 17:03:47			0	38572	0	0	0	31418	30020	149348	26897	1083396	46633	111711	0	0	8120	513160	0	0
2024-08-14 17:04:47			0	38579	0	0	0	31428	30030	149388	26734	1083441	46634	111715	0	0	8120	512872	0	0
2024-08-14 17:05:47			0	38563	0	0	0	31420	30030	149328	26817	1083387	46634	111712	0	0	8119	513462	0	0
2024-08-14 17:06:47			0	38558	0	0	0	31405	30030	149316	26986	1083450	46625	111706	0	0	8119	513647	0	0
2024-08-14 17:07:47			0	38559	0	0	0	31407	30040	149320	27005	1083432	46635	111707	0	0	8119	513580	0	0
2024-08-14 17:08:47			0	38566	0	0	0	31405	30050	149376	26616	1083450	46637	111706	0	0	8120	513292	0	0
2024-08-14 17:09:47			0	38559	0	0	0	31405	30040	149372	26828	1083432	46635	111706	0	0	8119	513580	0	0
2024-08-14 17:10:47			0	38554	0	0	0	31410	30040	149376	27003	1083432	46625	111708	0	0	8119	513765	0	0
2024-08-14 17:11:47			0	38567	0	0	0	31415	30050	149268	26970	1083558	46637	111710	0	0	8120	513255	0	0
2024-08-14 17:12:47			0	38577	0	0	0	31420	30050	149368	26967	1083477	46637	111712	0	0	8120	512886	0	0
2024-08-14 17:13:47			0	38557	0	0	0	31407	30040	149332	26693	1083522	46636	111707	0	0	8119	513654	0	0
2024-08-14 17:14:47			0	38565	0	0	0	31405	30040	149316	26722	1083468	46614	111706	0	0	8120	513359	0	0
2024-08-14 17:15:47			0	38557	0	0	0	31399	30050	149372	26987	1083460	46615	111704	0	0	8119	513624	0	0
2024-08-14 17:16:47			0	38561	0	0	0	31392	30040	149376	26896	1083459	46625	111701	0	0	8120	513506	0	0
2024-08-14 17:17:47			0	38553	0	0	0	31384	30040	149304	26915	1083432	46625	111698	0	0	8119	513801	0	0
2024-08-14 17:18:47			0	38566	0	0	0	31392	30040	149428	27098	1083324	46613	111701	0	0	8120	513321	0	0
2024-08-14 17:19:47			0	38565	0	0	0	31381	30030	149352	27038	1083369	46625	111697	0	0	8120	513388	0	0
2024-08-14 17:20:47			0	38559	0	0	0	31389	30030	149360	26776	1083396	46625	111700	0	0	8120	513610	0	0
2024-08-14 17:21:47			0	38541	0	0	0	31389	30030	149404	26811	1083396	46625	111700	0	0	8119	514275	0	0
2024-08-14 17:22:47			0	38539	0	0	0	31405	30040	149372	27171	1083459	46613	111706	0	0	8118	514319	0	0
2024-08-14 17:23:47			0	38561	0	0	0	31418	30040	149312	26547	1083540	46658	111711	0	0	8119	513506	0	0
2024-08-14 17:24:47			0	38530	0	0	0	31428	30040	149420	26800	1083522	46636	111715	0	0	8117	514652	0	0
2024-08-14 17:25:47			0	38553	0	0	0	31428	30060	149308	26821	1083523	46637	111715	0	0	8119	513742	0	0
2024-08-14 17:26:47			0	38549	0	0	0	31428	30060	149328	27020	1083613	46638	111715	0	0	8119	513889	0	0
2024-08-14 17:27:47			0	38528	0	0	0	31441	30070	149316	27010	1083649	46639	111720	0	0	8117	514635	0	0
2024-08-14 17:28:47			0	38565	0	0	0	31441	30070	149304	26875	1083658	46639	111720	0	0	8119	513269	0	0
2024-08-14 17:29:47			0	38551	0	0	0	31444	30080	149316	27033	1083748	46662	111721	0	0	8118	513756	0	0
2024-08-14 17:30:47			0	38543	0	0	0	31457	30070	149276	26764	1083757	46651	111726	0	0	8118	514081	0	0
2024-08-14 17:31:47			0	38552	0	0	0	31459	30080	149328	26687	1083758	46652	111727	0	0	8118	513719	0	0
2024-08-14 17:32:47			0	38537	0	0	0	31449	30090	149332	27130	1083740	46619	111723	0	0	8118	514243	0	0
2024-08-14 17:33:47			0	38560	0	0	0	31444	30090	149312	26753	1083740	46619	111721	0	0	8119	513393	0	0
2024-08-14 17:34:47			0	38553	0	0	0	31459	30080	149336	26805	1083748	46639	111727	0	0	8118	513682	0	0
2024-08-14 17:35:47			0	38558	0	0	0	31454	30100	149244	27171	1083740	46631	111725	0	0	8119	513437	0	0
2024-08-14 17:36:47			0	38554	0	0	0	31459	30100	149320	26902	1083785	46652	111727	0	0	8118	513585	0	0
2024-08-14 17:37:47			0	38550	0	0	0	31464	30090	149236	26986	1083749	46630	111729	0	0	8118	513762	0	0
2024-08-14 17:38:47			0	38544	0	0	0	31470	30090	149340	27003	1083713	46630	111731	0	0	8118	513984	0	0
2024-08-14 17:39:47			0	38557	0	0	0	31470	30090	149296	26859	1083767	46641	111731	0	0	8118	513504	0	0
2024-08-14 17:40:47			0	38574	0	0	0	31470	30090	149336	26904	1083767	46641	111731	0	0	8119	512877	0	0
2024-08-14 17:41:47			0	38561	0	0	0	31483	30090	149372	27208	1083803	46630	111736	0	0	8118	513356	0	0
2024-08-14 17:42:47			0	38561	0	0	0	31477	30090	149224	27163	1083884	46641	111734	0	0	8119	513356	0	0
2024-08-14 17:43:47			0	38567	0	0	0	31485	30100	149280	27046	1083875	46642	111737	0	0	8119	513105	0	0
2024-08-14 17:44:47			0	38567	0	0	0	31501	30100	149292	27022	1083902	46631	111743	0	0	8118	513105	0	0
2024-08-14 17:45:47			0	38558	0	0	0	31506	30100	149224	27086	1083956	46631	111745	0	0	8118	513437	0	0
2024-08-14 17:46:47			0	38550	0	0	0	31514	30110	149316	26847	1083992	46654	111748	0	0	8117	513702	0	0
2024-08-14 17:47:47			0	38555	0	0	0	31522	30110	149232	27176	1084046	46643	111751	0	0	8117	513518	0	0
2024-08-14 17:48:47			0	38561	0	0	0	31516	30120	149244	27029	1084038	46655	111749	0	0	8118	513266	0	0
2024-08-14 17:49:47			0	38556	0	0	0	31516	30140	149168	27138	1084092	46658	111749	0	0	8118	513391	0	0
2024-08-14 17:50:47			0	38568	0	0	0	31516	30130	149284	26686	1084110	46634	111749	0	0	8118	512978	0	0
2024-08-14 17:51:47			0	38571	0	0	0	31527	30140	149240	26672	1084065	46646	111753	0	0	8118	512838	0	0
2024-08-14 17:52:47			0	38561	0	0	0	31527	30150	149184	27015	1084110	46668	111753	0	0	8118	513176	0	0
2024-08-14 17:53:47			0	38563	0	0	0	31550	30150	149132	26746	1084146	46647	111762	0	0	8118	513103	0	0
2024-08-14 17:54:47			0	38562	0	0	0	31545	30160	149092	26778	1084210	46648	111760	0	0	8118	513110	0	0
2024-08-14 17:55:47			0	38592	0	0	0	31561	30160	149144	26878	1084237	46660	111766	0	0	8119	512004	0	0
2024-08-14 17:56:47			0	38579	0	0	0	31574	30170	149044	27149	1084345	46649	111771	0	0	8118	512453	0	0
2024-08-14 17:57:47			0	38598	0	0	0	31597	30180	149044	27034	1084381	46661	111780	0	0	8119	511723	0	0
2024-08-14 17:58:47			0	38585	0	0	0	31605	30200	149040	26854	1084499	46663	111783	0	0	8118	512142	0	0
2024-08-14 17:59:47			0	38583	0	0	0	31602	30200	149044	26693	1084508	46653	111782	0	0	8118	512215	0	0
2024-08-14 18:00:47			0	38580	0	0	0	31615	30210	149076	26802	1084517	46664	111787	0	0	8118	512296	0	0
2024-08-14 18:01:47			0	38602	0	0	0	31610	30210	149028	26741	1084445	46642	111785	0	0	8119	511486	0	0
2024-08-14 18:02:47			0	38589	0	0	0	31623	30210	149132	26875	1084499	46653	111790	0	0	8118	511964	0	0
2024-08-14 18:03:47			0	38588	0	0	0	31618	30220	149032	26509	1084544	46655	111788	0	0	8118	511971	0	0
2024-08-14 18:04:47			0	38591	0	0	0	31623	30220	148996	26859	1084562	46665	111790	0	0	8118	511861	0	0
2024-08-14 18:05:47			0	38592	0	0	0	31631	30230	148988	27060	1084634	46666	111793	0	0	8118	511794	0	0
2024-08-14 18:06:47			0	38609	0	0	0	31638	30230	149016	26932	1084589	46666	111796	0	0	8119	511168	0	0
2024-08-14 18:07:47			0	38592	0	0	0	31636	30230	148928	27137	1084580	46655	111795	0	0	8118	511794	0	0
2024-08-14 18:08:47			0	38610	0	0	0	31633	30240	149000	26987	1084635	46657	111794	0	0	8119	511101	0	0
2024-08-14 18:09:47			0	38591	0	0	0	31641	30240	148948	26675	1084626	46645	111797	0	0	8118	511801	0	0
2024-08-14 18:10:47			0	38599	0	0	0	31636	30240	148992	26939	1084598	46656	111795	0	0	8119	511506	0	0
2024-08-14 18:11:47			0	38606	0	0	0	31646	30250	148956	27097	1084644	46658	111799	0	0	8119	511219	0	0
2024-08-14 18:12:47			0	38610	0	0	0	31649	30260	148956	27215	1084716	46668	111800	0	0	8119	511042	0	0
2024-08-14 18:13:47			0	38610	0	0	0	31657	30260	148892	26934	1084770	46658	111803	0	0	8119	511042	0	0
2024-08-14 18:14:47			0	38627	0	0	0	31664	30260	148976	27150	1084770	46658	111806	0	0	8120	510417	0	0
2024-08-14 18:15:47			0	38621	0	0	0	31662	30260	148888	26802	1084752	46669	111805	0	0	8120	510637	0	0
2024-08-14 18:16:47			0	38624	0	0	0	31659	30260	149072	27053	1084780	46648	111804	0	0	8120	510527	0	0
2024-08-14 18:17:47			0	38613	0	0	0	31670	30270	148904	27038	1084771	46660	111808	0	0	8119	510902	0	0
2024-08-14 18:18:47			0	38619	0	0	0	31664	30270	148928	26713	1084816	46660	111806	0	0	8119	510681	0	0
2024-08-14 18:19:47			0	38640	0	0	0	31670	30270	148852	26852	1084744	46670	111808	0	0	8121	509909	0	0
2024-08-14 18:20:47			0	38620	0	0	0	31672	30280	148856	27060	1084807	46660	111809	0	0	8119	510614	0	0
2024-08-14 18:21:47			0	38648	0	0	0	31680	30270	148844	27092	1084762	46670	111812	0	0	8121	509615	0	0
2024-08-14 18:22:47			0	38632	0	0	0	31664	30280	148848	27284	1084780	46649	111806	0	0	8120	510173	0	0
2024-08-14 18:23:47			0	38646	0	0	0	31670	30270	148768	27189	1084735	46660	111808	0	0	8121	509688	0	0
2024-08-14 18:24:47			0	38645	0	0	0	31664	30270	148880	27034	1084798	46670	111806	0	0	8121	509725	0	0
2024-08-14 18:25:47			0	38657	0	0	0	31659	30270	148816	27088	1084744	46649	111804	0	0	8122	509284	0	0
2024-08-14 18:26:47			0	38650	0	0	0	31659	30270	148820	26923	1084798	46649	111804	0	0	8121	509541	0	0
2024-08-14 18:27:47			0	38652	0	0	0	31664	30270	148700	27013	1084735	46660	111806	0	0	8121	509468	0	0
2024-08-14 18:28:47			0	38658	0	0	0	31659	30280	148624	27012	1084780	46649	111804	0	0	8122	509218	0	0
2024-08-14 18:29:47			0	38654	0	0	0	31659	30280	148576	26974	1084780	46660	111804	0	0	8122	509365	0	0
2024-08-14 18:30:47			0	38656	0	0	0	31657	30270	148648	26665	1084744	46649	111803	0	0	8122	509321	0	0
2024-08-14 18:31:47			0	38681	0	0	0	31646	30270	148572	27059	1084789	46649	111799	0	0	8123	508404	0	0
2024-08-14 18:32:47			0	38669	0	0	0	31651	30270	148644	26982	1084735	46649	111801	0	0	8123	508844	0	0
2024-08-14 18:33:47			0	38659	0	0	0	31657	30270	148612	27026	1084771	46660	111803	0	0	8122	509211	0	0
2024-08-14 18:34:47			0	38662	0	0	0	31659	30280	148500	26948	1084699	46649	111804	0	0	8122	509071	0	0
2024-08-14 18:35:47			0	38675	0	0	0	31649	30260	148652	26904	1084725	46648	111800	0	0	8123	508653	0	0
2024-08-14 18:36:47			0	38691	0	0	0	31654	30270	148536	27031	1084762	46660	111802	0	0	8124	508037	0	0
2024-08-14 18:37:47			0	38674	0	0	0	31651	30260	148440	26968	1084698	46648	111801	0	0	8123	508690	0	0
2024-08-14 18:38:47			0	38689	0	0	0	31644	30260	148560	27078	1084671	46669	111798	0	0	8124	508140	0	0
2024-08-14 18:39:47			0	38671	0	0	0	31646	30270	148448	27185	1084762	46649	111799	0	0	8123	508770	0	0
2024-08-14 18:40:47			0	38683	0	0	0	31651	30270	148496	26788	1084708	46649	111801	0	0	8123	508330	0	0
2024-08-14 18:41:47			0	38695	0	0	0	31649	30260	148472	27303	1084698	46659	111800	0	0	8124	507920	0	0
2024-08-14 18:42:47			0	38695	0	0	0	31654	30260	148388	26902	1084698	46648	111802	0	0	8124	507920	0	0
2024-08-14 18:43:47			0	38687	0	0	0	31657	30250	148480	27185	1084680	46668	111803	0	0	8123	508243	0	0
2024-08-14 18:44:47			0	38693	0	0	0	31646	30270	148480	27112	1084735	46670	111799	0	0	8124	507964	0	0
2024-08-14 18:45:47			0	38692	0	0	0	31644	30260	148336	27251	1084716	46647	111798	0	0	8124	508030	0	0
2024-08-14 18:46:47			0	38721	0	0	0	31649	30270	148428	26948	1084680	46660	111800	0	0	8126	506938	0	0
2024-08-14 18:47:47			0	38707	0	0	0	31649	30250	148368	26958	1084653	46647	111800	0	0	8125	507510	0	0
2024-08-14 18:48:47			0	38706	0	0	0	31654	30260	148416	26958	1084743	46668	111802	0	0	8125	507517	0	0
2024-08-14 18:49:47			0	38698	0	0	0	31644	30260	148344	26911	1084698	46648	111798	0	0	8124	507810	0	0
2024-08-14 18:50:47			0	38718	0	0	0	31654	30260	148340	27111	1084689	46658	111802	0	0	8125	507077	0	0
2024-08-14 18:51:47			0	38717	0	0	0	31651	30250	148292	27012	1084626	46658	111801	0	0	8125	507143	0	0
2024-08-14 18:52:47			0	38709	0	0	0	31649	30260	148356	27093	1084662	46668	111800	0	0	8125	507407	0	0
2024-08-14 18:53:47			0	38721	0	0	0	31657	30260	148292	26915	1084662	46635	111803	0	0	8125	506967	0	0
2024-08-14 18:54:47			0	38706	0	0	0	31654	30260	148392	26802	1084671	46669	111802	0	0	8125	507517	0	0
2024-08-14 18:55:47			0	38730	0	0	0	31651	30260	148361	26961	1084662	46668	111801	0	0	8126	506638	0	0
2024-08-14 18:56:47			0	38734	0	0	0	31644	30250	148385	26731	1084653	46647	111798	0	0	8126	506521	0	0
2024-08-14 18:57:47			0	38723	0	0	0	31657	30260	148452	26807	1084671	46669	111803	0	0	8125	506894	0	0
2024-08-14 18:58:47			0	38714	0	0	0	31651	30240	148424	26948	1084635	46667	111801	0	0	8125	507283	0	0
2024-08-14 18:59:47			0	38738	0	0	0	31651	30250	148353	27199	1084644	46658	111801	0	0	8126	506375	0	0
2024-08-14 19:00:47			0	38734	0	0	0	31664	30260	148401	27203	1084689	46668	111806	0	0	8126	506491	0	0
2024-08-14 19:01:47			0	38738	0	0	0	31651	30260	148357	27133	1084662	46668	111801	0	0	8126	506345	0	0
2024-08-14 19:02:47			0	38750	0	0	0	31654	30250	148429	26941	1084707	46668	111802	0	0	8127	505936	0	0
2024-08-14 19:03:47			0	38736	0	0	0	31657	30250	148261	27140	1084653	46668	111803	0	0	8126	506448	0	0
2024-08-14 19:04:47			0	38753	0	0	0	31654	30250	148213	27345	1084644	46680	111802	0	0	8127	505826	0	0
2024-08-14 19:05:47			0	38741	0	0	0	31659	30260	148205	27159	1084689	46668	111804	0	0	8126	506235	0	0
2024-08-14 19:06:47			0	38753	0	0	0	31659	30260	148189	26778	1084689	46658	111804	0	0	8127	505796	0	0
2024-08-14 19:07:47			0	38755	0	0	0	31651	30260	148205	26901	1084716	46647	111801	0	0	8127	505723	0	0
2024-08-14 19:08:47			0	38754	0	0	0	31654	30250	148161	27081	1084707	46658	111802	0	0	8127	505789	0	0
2024-08-14 19:09:47			0	38756	0	0	0	31657	30240	148153	27095	1084662	46657	111803	0	0	8127	505746	0	0
2024-08-14 19:10:47			0	38763	0	0	0	31651	30250	148129	26923	1084653	46658	111801	0	0	8128	505460	0	0
2024-08-14 19:11:47			0	38787	0	0	0	31631	30250	148125	26934	1084599	46658	111793	0	0	8129	504583	0	0
2024-08-14 19:12:47			0	38782	0	0	0	31628	30250	148101	26901	1084617	46668	111792	0	0	8129	504766	0	0
2024-08-14 19:13:47			0	38789	0	0	0	31623	30240	148117	27222	1084571	46645	111790	0	0	8130	504540	0	0
2024-08-14 19:14:47			0	38778	0	0	0	31618	30230	148101	26739	1084580	46644	111788	0	0	8129	504971	0	0
2024-08-14 19:15:47			0	38782	0	0	0	31620	30220	148097	26977	1084562	46654	111789	0	0	8129	504854	0	0
2024-08-14 19:16:47			0	38792	0	0	0	31610	30230	148081	27189	1084481	46644	111785	0	0	8130	504460	0	0
2024-08-14 19:17:47			0	38795	0	0	0	31605	30220	148073	27249	1084454	46643	111783	0	0	8130	504380	0	0
2024-08-14 19:18:47			0	38793	0	0	0	31605	30220	148149	26873	1084427	46665	111783	0	0	8130	504453	0	0
2024-08-14 19:19:47			0	38804	0	0	0	31592	30220	148125	27026	1084454	46676	111778	0	0	8131	504051	0	0
2024-08-14 19:20:47			0	38798	0	0	0	31594	30210	148217	26911	1084418	46664	111779	0	0	8131	504300	0	0
2024-08-14 19:21:47			0	38792	0	0	0	31597	30210	148261	26961	1084409	46664	111780	0	0	8130	504519	0	0
2024-08-14 19:22:47			0	38752	0	0	0	31594	30200	148289	26961	1084427	46653	111779	0	0	8128	506010	0	0
2024-08-14 19:23:47			0	38775	0	0	0	31586	30210	148217	26724	1084436	46653	111776	0	0	8129	505140	0	0
2024-08-14 19:24:47			0	38777	0	0	0	31589	30200	148325	26646	1084363	46663	111777	0	0	8129	505096	0	0
2024-08-14 19:25:47			0	38759	0	0	0	31592	30210	148213	26923	1084355	46653	111778	0	0	8128	505725	0	0
2024-08-14 19:26:47			0	38789	0	0	0	31584	30200	148261	27033	1084400	46664	111775	0	0	8130	504658	0	0
2024-08-14 19:27:47			0	38802	0	0	0	31584	30200	148217	27043	1084336	46663	111775	0	0	8131	504183	0	0
2024-08-14 19:28:47			0	38787	0	0	0	31586	30200	148141	26870	1084400	46664	111776	0	0	8130	504731	0	0
2024-08-14 19:29:47			0	38790	0	0	0	31584	30200	148065	26977	1084373	46664	111775	0	0	8130	504621	0	0
2024-08-14 19:30:47			0	38814	0	0	0	31581	30200	148065	26823	1084363	46663	111774	0	0	8132	503745	0	0
2024-08-14 19:31:47			0	38814	0	0	0	31579	30190	148033	26802	1084318	46662	111773	0	0	8132	503775	0	0
2024-08-14 19:32:47			0	38822	0	0	0	31581	30190	147985	26790	1084381	46662	111774	0	0	8132	503483	0	0
2024-08-14 19:33:47			0	38817	0	0	0	31576	30190	147997	26883	1084345	46662	111772	0	0	8132	503665	0	0
2024-08-14 19:34:47			0	38835	0	0	0	31568	30180	148001	26979	1084282	46651	111769	0	0	8133	503038	0	0
2024-08-14 19:35:47			0	38825	0	0	0	31579	30190	148033	27116	1084291	46673	111773	0	0	8132	503373	0	0
2024-08-14 19:36:47			0	38836	0	0	0	31574	30180	148025	27234	1084309	46662	111771	0	0	8133	503002	0	0
2024-08-14 19:37:47			0	38808	0	0	0	31571	30180	148025	26948	1084228	46662	111770	0	0	8131	504023	0	0
2024-08-14 19:38:47			0	38830	0	0	0	31571	30180	148005	26866	1084282	46662	111770	0	0	8133	503220	0	0
2024-08-14 19:39:47			0	38821	0	0	0	31571	30180	148037	27171	1084282	46673	111770	0	0	8132	503549	0	0
2024-08-14 19:40:47			0	38851	0	0	0	31576	30180	147901	27213	1084336	46651	111772	0	0	8134	502455	0	0
2024-08-14 19:41:47			0	38835	0	0	0	31574	30180	147873	27144	1084354	46661	111771	0	0	8133	503038	0	0
2024-08-14 19:42:47			0	38834	0	0	0	31576	30180	148045	27045	1084300	46672	111772	0	0	8133	503075	0	0
2024-08-14 19:43:47			0	38827	0	0	0	31576	30180	148001	27027	1084273	46661	111772	0	0	8132	503330	0	0
2024-08-14 19:44:47			0	38825	0	0	0	31568	30170	147917	27034	1084291	46671	111769	0	0	8132	503432	0	0
2024-08-14 19:45:47			0	38813	0	0	0	31574	30170	147989	26972	1084291	46660	111771	0	0	8132	503870	0	0
2024-08-14 19:46:47			0	38821	0	0	0	31579	30170	148105	26906	1084291	46671	111773	0	0	8132	503578	0	0
2024-08-14 19:47:47			0	38837	0	0	0	31566	30180	148025	26838	1084273	46672	111768	0	0	8133	502965	0	0
2024-08-14 19:48:47			0	38820	0	0	0	31571	30180	147981	27173	1084273	46672	111770	0	0	8132	503585	0	0
2024-08-14 19:49:47			0	38817	0	0	0	31579	30180	148113	27230	1084336	46651	111773	0	0	8132	503695	0	0
2024-08-14 19:50:47			0	38801	0	0	0	31579	30180	148057	27100	1084282	46684	111773	0	0	8131	504279	0	0
2024-08-14 19:51:47			0	38818	0	0	0	31579	30180	148013	26986	1084273	46650	111773	0	0	8132	503658	0	0
2024-08-14 19:52:47			0	38825	0	0	0	31574	30180	148009	27066	1084246	46650	111771	0	0	8132	503403	0	0
2024-08-14 19:53:47			0	38803	0	0	0	31579	30170	148009	26876	1084282	46660	111773	0	0	8131	504235	0	0
2024-08-14 19:54:47			0	38805	0	0	0	31579	30170	147993	27086	1084264	46682	111773	0	0	8131	504162	0	0
2024-08-14 19:55:47			0	38810	0	0	0	31574	30180	148053	26965	1084246	46672	111771	0	0	8131	503950	0	0
2024-08-14 19:56:47			0	38803	0	0	0	31576	30170	148021	26759	1084237	46649	111772	0	0	8131	504235	0	0
2024-08-14 19:57:47			0	38797	0	0	0	31576	30180	148093	26809	1084273	46661	111772	0	0	8131	504425	0	0
2024-08-14 19:58:47			0	38813	0	0	0	31571	30180	148129	26857	1084273	46661	111770	0	0	8132	503841	0	0
2024-08-14 19:59:47			0	38817	0	0	0	31584	30170	148029	26781	1084291	46660	111775	0	0	8132	503724	0	0
2024-08-14 20:00:47			0	38820	0	0	0	31571	30170	148209	26880	1084264	46660	111770	0	0	8132	503615	0	0
2024-08-14 20:01:47			0	38793	0	0	0	31571	30170	148009	26791	1084237	46671	111770	0	0	8130	504600	0	0
2024-08-14 20:02:47			0	38792	0	0	0	31576	30180	148129	26800	1084300	46661	111772	0	0	8130	504607	0	0
2024-08-14 20:03:47			0	38805	0	0	0	31568	30170	148073	26861	1084237	46671	111769	0	0	8131	504162	0	0
2024-08-14 20:04:47			0	38799	0	0	0	31571	30180	148069	26821	1084255	46673	111770	0	0	8131	504352	0	0
2024-08-14 20:05:47			0	38805	0	0	0	31571	30170	148065	26958	1084282	46660	111770	0	0	8131	504162	0	0
2024-08-14 20:06:47			0	38811	0	0	0	31574	30170	148045	26672	1084291	46671	111771	0	0	8131	503943	0	0
2024-08-14 20:07:47			0	38795	0	0	0	31576	30180	148029	27163	1084327	46672	111772	0	0	8131	504498	0	0
2024-08-14 20:08:47			0	38805	0	0	0	31574	30170	148057	26897	1084255	46660	111771	0	0	8131	504162	0	0
2024-08-14 20:09:47			0	38794	0	0	0	31568	30170	147985	26753	1084264	46682	111769	0	0	8131	504564	0	0
2024-08-14 20:10:47			0	38797	0	0	0	31574	30170	148025	26887	1084309	46660	111771	0	0	8131	504454	0	0
2024-08-14 20:11:47			0	38799	0	0	0	31568	30170	148077	26897	1084318	46671	111769	0	0	8131	504381	0	0
2024-08-14 20:12:47			0	38797	0	0	0	31571	30170	147977	27144	1084210	46671	111770	0	0	8131	504454	0	0
2024-08-14 20:13:47			0	38815	0	0	0	31571	30180	148021	27138	1084327	46672	111770	0	0	8132	503768	0	0
2024-08-14 20:14:47			0	38788	0	0	0	31568	30180	148005	26935	1084336	46662	111769	0	0	8130	504753	0	0
2024-08-14 20:15:47			0	38825	0	0	0	31568	30170	148073	27154	1084264	46649	111769	0	0	8132	503432	0	0
2024-08-14 20:16:47			0	38801	0	0	0	31574	30170	148093	27013	1084318	46671	111771	0	0	8131	504308	0	0
2024-08-14 20:17:47			0	38802	0	0	0	31574	30170	148065	26826	1084264	46660	111771	0	0	8131	504271	0	0
2024-08-14 20:18:47			0	38785	0	0	0	31571	30170	148233	27019	1084318	46660	111770	0	0	8130	504892	0	0
2024-08-14 20:19:47			0	38776	0	0	0	31576	30180	148213	26883	1084246	46672	111772	0	0	8129	505192	0	0
2024-08-14 20:20:47			0	38766	0	0	0	31568	30170	148201	26755	1084282	46670	111769	0	0	8129	505587	0	0
2024-08-14 20:21:47			0	38762	0	0	0	31579	30170	148197	26993	1084255	46660	111773	0	0	8129	505733	0	0
2024-08-14 20:22:47			0	38768	0	0	0	31563	30180	148289	27020	1084273	46672	111767	0	0	8129	505484	0	0
2024-08-14 20:23:47			0	38748	0	0	0	31566	30170	148341	26883	1084264	46649	111768	0	0	8128	506245	0	0
2024-08-14 20:24:47			0	38746	0	0	0	31566	30170	148333	27107	1084255	46670	111768	0	0	8128	506319	0	0
2024-08-14 20:25:47			0	38750	0	0	0	31553	30160	148293	27057	1084300	46670	111763	0	0	8128	506202	0	0
2024-08-14 20:26:47			0	38748	0	0	0	31558	30160	148337	26852	1084192	46660	111765	0	0	8128	506275	0	0
2024-08-14 20:27:47			0	38746	0	0	0	31563	30160	148345	27053	1084264	46670	111767	0	0	8128	506348	0	0
2024-08-14 20:28:47			0	38742	0	0	0	31566	30170	148317	26847	1084174	46670	111768	0	0	8128	506465	0	0
2024-08-14 20:29:47			0	38732	0	0	0	31555	30160	148432	26741	1084219	46660	111764	0	0	8127	506861	0	0
2024-08-14 20:30:47			0	38732	0	0	0	31555	30160	148357	26807	1084183	46660	111764	0	0	8127	506861	0	0
2024-08-14 20:31:47			0	38731	0	0	0	31550	30160	148313	27107	1084183	46670	111762	0	0	8127	506897	0	0
2024-08-14 20:32:47			0	38733	0	0	0	31548	30150	148436	26982	1084110	46668	111761	0	0	8127	506853	0	0
2024-08-14 20:33:47			0	38721	0	0	0	31548	30160	148404	27019	1084237	46660	111761	0	0	8127	507264	0	0
2024-08-14 20:34:47			0	38708	0	0	0	31542	30160	148436	27026	1084183	46670	111759	0	0	8126	507740	0	0
2024-08-14 20:35:47			0	38691	0	0	0	31540	30160	148496	27003	1084183	46670	111758	0	0	8125	508363	0	0
2024-08-14 20:36:47			0	38696	0	0	0	31545	30160	148496	26828	1084192	46670	111760	0	0	8125	508180	0	0
2024-08-14 20:37:47			0	38670	0	0	0	31540	30150	148464	26575	1084174	46680	111758	0	0	8124	509164	0	0
2024-08-14 20:38:47			0	38681	0	0	0	31542	30150	148596	26812	1084174	46669	111759	0	0	8124	508760	0	0
2024-08-14 20:39:47			0	38665	0	0	0	31535	30160	148680	26816	1084183	46660	111756	0	0	8124	509318	0	0
2024-08-14 20:40:47			0	38664	0	0	0	31545	30150	148656	26847	1084174	46669	111760	0	0	8123	509384	0	0
2024-08-14 20:41:47			0	38659	0	0	0	31540	30160	148772	26625	1084156	46681	111758	0	0	8123	509538	0	0
2024-08-14 20:42:47			0	38657	0	0	0	31540	30150	148800	26930	1084137	46668	111758	0	0	8123	509641	0	0
2024-08-14 20:43:47			0	38633	0	0	0	31532	30140	148724	26887	1084128	46668	111755	0	0	8122	510554	0	0
2024-08-14 20:44:47			0	38637	0	0	0	31537	30150	148780	26774	1084164	46658	111757	0	0	8122	510377	0	0
2024-08-14 20:45:47			0	38644	0	0	0	31529	30150	148828	27029	1084137	46658	111754	0	0	8123	510119	0	0
2024-08-14 20:46:47			0	38633	0	0	0	31532	30150	148804	26975	1084083	46668	111755	0	0	8122	510524	0	0
2024-08-14 20:47:47			0	38619	0	0	0	31537	30150	148876	26935	1084083	46668	111757	0	0	8121	511039	0	0
2024-08-14 20:48:47			0	38627	0	0	0	31532	30150	148856	26790	1084110	46679	111755	0	0	8122	510745	0	0
2024-08-14 20:49:47			0	38636	0	0	0	31529	30140	148896	26961	1084101	46668	111754	0	0	8122	510443	0	0
2024-08-14 20:50:47			0	38606	0	0	0	31529	30140	148816	26934	1084119	46679	111754	0	0	8120	511548	0	0
2024-08-14 20:51:47			0	38620	0	0	0	31524	30140	148784	27161	1084092	46658	111752	0	0	8121	511032	0	0
2024-08-14 20:52:47			0	38612	0	0	0	31529	30140	148928	27031	1084119	46668	111754	0	0	8121	511327	0	0
2024-08-14 20:53:47			0	38619	0	0	0	31524	30140	148924	27159	1084092	46668	111752	0	0	8121	511069	0	0
2024-08-14 20:54:47			0	38611	0	0	0	31522	30150	148916	26824	1084065	46669	111751	0	0	8121	511333	0	0
2024-08-14 20:55:47			0	38624	0	0	0	31516	30140	148916	27133	1084092	46658	111749	0	0	8122	510885	0	0
2024-08-14 20:56:47			0	38623	0	0	0	31516	30130	148800	26828	1083993	46655	111749	0	0	8122	510951	0	0
2024-08-14 20:57:47			0	38607	0	0	0	31524	30140	148840	26882	1083930	46668	111752	0	0	8121	511511	0	0
2024-08-14 20:58:47			0	38637	0	0	0	31511	30130	148984	26989	1084002	46656	111747	0	0	8122	510436	0	0
2024-08-14 20:59:47			0	38620	0	0	0	31516	30120	148904	26878	1084010	46655	111749	0	0	8121	511092	0	0
2024-08-14 21:00:47			0	38616	0	0	0	31522	30120	148860	27118	1084065	46666	111751	0	0	8121	511239	0	0
2024-08-14 21:01:47			0	38647	0	0	0	31524	30120	148884	26946	1083956	46666	111752	0	0	8123	510098	0	0
2024-08-14 21:02:47			0	38616	0	0	0	31514	30120	148824	26920	1084010	46666	111748	0	0	8121	511239	0	0
2024-08-14 21:03:47			0	38634	0	0	0	31509	30120	148804	26904	1084010	46677	111746	0	0	8122	510577	0	0
2024-08-14 21:04:47			0	38645	0	0	0	31516	30120	148860	26755	1083929	46677	111749	0	0	8123	510172	0	0
2024-08-14 21:05:47			0	38630	0	0	0	31509	30130	148896	26889	1083993	46666	111746	0	0	8122	510694	0	0
2024-08-14 21:06:47			0	38624	0	0	0	31514	30120	148776	27045	1083929	46666	111748	0	0	8122	510944	0	0
2024-08-14 21:07:47			0	38630	0	0	0	31506	30110	148776	26824	1083974	46666	111745	0	0	8122	510753	0	0
2024-08-14 21:08:47			0	38650	0	0	0	31503	30110	148768	26925	1083920	46666	111744	0	0	8123	510018	0	0
2024-08-14 21:09:47			0	38675	0	0	0	31498	30110	148732	27039	1083920	46666	111742	0	0	8125	509099	0	0
2024-08-14 21:10:47			0	38659	0	0	0	31511	30120	148740	27057	1083929	46677	111747	0	0	8124	509657	0	0
2024-08-14 21:11:47			0	38645	0	0	0	31501	30110	148904	27121	1083893	46677	111743	0	0	8123	510202	0	0
2024-08-14 21:12:47			0	38656	0	0	0	31506	30110	148944	26819	1083965	46676	111745	0	0	8124	509797	0	0
2024-08-14 21:13:47			0	38668	0	0	0	31503	30110	148816	26863	1083911	46666	111744	0	0	8124	509356	0	0
2024-08-14 21:14:47			0	38663	0	0	0	31503	30110	148908	26935	1083974	46666	111744	0	0	8124	509540	0	0
2024-08-14 21:15:47			0	38665	0	0	0	31501	30110	148912	26882	1083893	46666	111743	0	0	8124	509467	0	0
2024-08-14 21:16:47			0	38666	0	0	0	31509	30120	148860	27055	1083956	46677	111746	0	0	8124	509400	0	0
2024-08-14 21:17:47			0	38664	0	0	0	31496	30110	148776	26670	1083857	46676	111741	0	0	8124	509503	0	0
2024-08-14 21:18:47			0	38660	0	0	0	31498	30110	148788	26965	1083965	46666	111742	0	0	8124	509650	0	0
2024-08-14 21:19:47			0	38670	0	0	0	31493	30110	148832	26866	1083911	46666	111740	0	0	8125	509283	0	0
2024-08-14 21:20:47			0	38664	0	0	0	31496	30110	148812	26741	1083884	46666	111741	0	0	8124	509503	0	0
2024-08-14 21:21:47			0	38659	0	0	0	31493	30110	148824	26748	1083911	46676	111740	0	0	8124	509687	0	0
2024-08-14 21:22:47			0	38664	0	0	0	31485	30100	148796	26941	1083821	46665	111737	0	0	8124	509533	0	0
2024-08-14 21:23:47			0	38669	0	0	0	31493	30100	148880	26920	1083812	46686	111740	0	0	8124	509349	0	0
2024-08-14 21:24:47			0	38671	0	0	0	31480	30100	148824	26741	1083821	46653	111735	0	0	8125	509276	0	0
2024-08-14 21:25:47			0	38686	0	0	0	31490	30100	148936	27079	1083947	46664	111739	0	0	8125	508725	0	0
2024-08-14 21:26:47			0	38655	0	0	0	31485	30100	148848	27074	1083785	46686	111737	0	0	8124	509864	0	0
2024-08-14 21:27:47			0	38674	0	0	0	31493	30100	148816	26576	1083812	46674	111740	0	0	8125	509166	0	0
2024-08-14 21:28:47			0	38681	0	0	0	31485	30090	148916	27020	1083830	46664	111737	0	0	8125	508938	0	0
2024-08-14 21:29:47			0	38670	0	0	0	31488	30100	148808	26942	1083812	46674	111738	0	0	8125	509313	0	0
2024-08-14 21:30:47			0	38672	0	0	0	31485	30090	148836	27027	1083830	46664	111737	0	0	8125	509269	0	0
2024-08-14 21:31:47			0	38676	0	0	0	31483	30100	148776	26892	1083839	46686	111736	0	0	8125	509092	0	0
2024-08-14 21:32:47			0	38686	0	0	0	31493	30100	148760	27085	1083893	46674	111740	0	0	8125	508725	0	0
2024-08-14 21:33:47			0	38672	0	0	0	31485	30090	148816	26693	1083803	46664	111737	0	0	8125	509269	0	0
2024-08-14 21:34:47			0	38683	0	0	0	31480	30090	148876	27206	1083794	46664	111735	0	0	8125	508865	0	0
2024-08-14 21:35:47			0	38675	0	0	0	31477	30090	148856	26864	1083875	46664	111734	0	0	8125	509159	0	0
2024-08-14 21:36:47			0	38690	0	0	0	31477	30080	148828	27041	1083731	46663	111734	0	0	8126	508638	0	0
2024-08-14 21:37:47			0	38696	0	0	0	31462	30080	148804	27097	1083704	46673	111728	0	0	8126	508418	0	0
2024-08-14 21:38:47			0	38672	0	0	0	31470	30070	148792	27130	1083739	46651	111731	0	0	8125	509328	0	0
2024-08-14 21:39:47			0	38676	0	0	0	31462	30090	148912	26998	1083713	46652	111728	0	0	8125	509122	0	0
2024-08-14 21:40:47			0	38678	0	0	0	31464	30080	148868	27291	1083812	46663	111729	0	0	8125	509078	0	0
2024-08-14 21:41:47			0	38675	0	0	0	31462	30080	148884	27133	1083694	46662	111728	0	0	8125	509189	0	0
2024-08-14 21:42:47			0	38696	0	0	0	31451	30070	148828	26894	1083658	46662	111724	0	0	8127	508447	0	0
2024-08-14 21:43:47			0	38682	0	0	0	31449	30070	148992	26772	1083703	46662	111723	0	0	8126	508961	0	0
2024-08-14 21:44:47			0	38676	0	0	0	31454	30070	148884	26982	1083649	46662	111725	0	0	8125	509182	0	0
2024-08-14 21:45:47			0	38652	0	0	0	31444	30070	148980	27013	1083676	46662	111721	0	0	8124	510064	0	0
2024-08-14 21:46:47			0	38670	0	0	0	31441	30070	149016	27201	1083676	46662	111720	0	0	8125	509402	0	0
2024-08-14 21:47:47			0	38658	0	0	0	31441	30050	148960	27104	1083640	46670	111720	0	0	8124	509902	0	0
2024-08-14 21:48:47			0	38673	0	0	0	31438	30060	149040	27066	1083604	46670	111719	0	0	8125	509321	0	0
2024-08-14 21:49:47			0	38667	0	0	0	31436	30050	148996	27137	1083622	46670	111718	0	0	8125	509572	0	0
2024-08-14 21:50:47			0	38674	0	0	0	31423	30050	149056	26686	1083595	46693	111713	0	0	8126	509314	0	0
2024-08-14 21:51:47			0	38649	0	0	0	31425	30050	149020	26646	1083531	46670	111714	0	0	8124	510233	0	0
2024-08-14 21:52:47			0	38658	0	0	0	31433	30050	149040	26932	1083504	46670	111717	0	0	8125	509902	0	0
2024-08-14 21:53:47			0	38651	0	0	0	31418	30040	149028	27064	1083513	46646	111711	0	0	8124	510190	0	0
2024-08-14 21:54:47			0	38661	0	0	0	31418	30040	148948	27020	1083486	46680	111711	0	0	8125	509822	0	0
2024-08-14 21:55:47			0	38664	0	0	0	31418	30040	148912	26981	1083459	46658	111711	0	0	8125	509712	0	0
2024-08-14 21:56:47			0	38675	0	0	0	31405	30030	148900	26993	1083450	46668	111706	0	0	8126	509337	0	0
2024-08-14 21:57:47			0	38675	0	0	0	31402	30030	148920	27003	1083450	46658	111705	0	0	8126	509337	0	0
2024-08-14 21:58:47			0	38689	0	0	0	31407	30030	148916	26982	1083477	46658	111707	0	0	8127	508823	0	0
2024-08-14 21:59:47			0	38707	0	0	0	31407	30030	148864	27043	1083441	46679	111707	0	0	8128	508162	0	0
2024-08-14 22:00:47			0	38684	0	0	0	31407	30030	148816	27121	1083504	46668	111707	0	0	8126	509007	0	0
2024-08-14 22:01:47			0	38718	0	0	0	31405	30020	148844	26955	1083459	46667	111706	0	0	8128	507788	0	0
2024-08-14 22:02:47			0	38721	0	0	0	31415	30020	148808	27235	1083396	46666	111710	0	0	8128	507678	0	0
2024-08-14 22:03:47			0	38718	0	0	0	31399	30020	148812	27215	1083405	46667	111704	0	0	8128	507788	0	0
2024-08-14 22:04:47			0	38734	0	0	0	31392	30020	148796	27213	1083432	46667	111701	0	0	8129	507202	0	0
2024-08-14 22:05:47			0	38727	0	0	0	31405	30010	148753	26927	1083386	46666	111706	0	0	8129	507488	0	0
2024-08-14 22:06:47			0	38748	0	0	0	31397	30020	148745	27114	1083405	46667	111703	0	0	8130	506689	0	0
2024-08-14 22:07:47			0	38742	0	0	0	31394	30020	148685	27048	1083396	46678	111702	0	0	8130	506909	0	0
2024-08-14 22:08:47			0	38738	0	0	0	31389	30010	148705	26722	1083386	46666	111700	0	0	8130	507085	0	0
2024-08-14 22:09:47			0	38743	0	0	0	31389	30010	148665	26975	1083296	46666	111700	0	0	8130	506902	0	0
2024-08-14 22:10:47			0	38743	0	0	0	31386	30000	148725	26906	1083341	46677	111699	0	0	8130	506931	0	0
2024-08-14 22:11:47			0	38761	0	0	0	31392	30010	148689	26925	1083350	46655	111701	0	0	8131	506242	0	0
2024-08-14 22:12:47			0	38761	0	0	0	31376	29990	148801	26965	1083287	46664	111695	0	0	8131	506301	0	0
2024-08-14 22:13:47			0	38781	0	0	0	31376	29990	148717	26760	1083296	46664	111695	0	0	8132	505570	0	0
2024-08-14 22:14:47			0	38775	0	0	0	31373	30000	148625	26706	1083224	46665	111694	0	0	8132	505759	0	0
2024-08-14 22:15:47			0	38784	0	0	0	31371	30000	148529	26918	1083251	46665	111693	0	0	8133	505430	0	0
2024-08-14 22:16:47			0	38783	0	0	0	31373	29990	148569	27107	1083260	46664	111694	0	0	8132	505496	0	0
2024-08-14 22:17:47			0	38779	0	0	0	31371	30000	148613	26680	1083224	46654	111693	0	0	8132	505613	0	0
2024-08-14 22:18:47			0	38775	0	0	0	31376	29980	148625	26873	1083224	46653	111695	0	0	8132	505819	0	0
2024-08-14 22:19:47			0	38802	0	0	0	31361	29970	148529	26916	1083260	46651	111689	0	0	8134	504861	0	0
2024-08-14 22:20:47			0	38800	0	0	0	31363	29980	148597	26837	1083251	46664	111690	0	0	8133	504904	0	0
2024-08-14 22:21:47			0	38812	0	0	0	31368	29980	148445	26975	1083215	46652	111692	0	0	8134	504466	0	0
2024-08-14 22:22:47			0	38830	0	0	0	31363	29970	148421	26880	1083206	46673	111690	0	0	8135	503838	0	0
2024-08-14 22:23:47			0	38826	0	0	0	31358	29970	148445	26590	1083178	46640	111688	0	0	8135	503984	0	0
2024-08-14 22:24:47			0	38817	0	0	0	31353	29980	148473	27038	1083188	46663	111686	0	0	8135	504283	0	0
2024-08-14 22:25:47			0	38815	0	0	0	31353	29970	148433	26996	1083070	46662	111686	0	0	8134	504386	0	0
2024-08-14 22:26:47			0	38845	0	0	0	31345	29970	148345	26791	1083142	46651	111683	0	0	8136	503290	0	0
2024-08-14 22:27:47			0	38847	0	0	0	31335	29970	148361	26906	1083151	46662	111679	0	0	8137	503217	0	0
2024-08-14 22:28:47			0	38852	0	0	0	31340	29950	148301	26710	1083115	46649	111681	0	0	8137	503094	0	0
2024-08-14 22:29:47			0	38856	0	0	0	31340	29960	148349	26861	1083097	46661	111681	0	0	8137	502918	0	0
2024-08-14 22:30:47			0	38836	0	0	0	31337	29960	148329	26691	1083079	46672	111680	0	0	8136	503648	0	0
2024-08-14 22:31:47			0	38864	0	0	0	31335	29950	148477	26949	1083034	46660	111679	0	0	8137	502656	0	0
2024-08-14 22:32:47			0	38851	0	0	0	31329	29950	148437	27161	1083034	46660	111677	0	0	8137	503130	0	0
2024-08-14 22:33:47			0	38855	0	0	0	31332	29950	148445	27027	1083025	46660	111678	0	0	8137	502984	0	0
2024-08-14 22:34:47			0	38834	0	0	0	31332	29950	148485	26975	1083052	46671	111678	0	0	8136	503751	0	0
2024-08-14 22:35:47			0	38841	0	0	0	31327	29940	148489	26578	1083043	46659	111676	0	0	8136	503524	0	0
2024-08-14 22:36:47			0	38845	0	0	0	31324	29940	148489	26727	1083070	46648	111675	0	0	8137	503378	0	0
2024-08-14 22:37:47			0	38848	0	0	0	31324	29940	148473	26840	1083043	46670	111675	0	0	8137	503269	0	0
2024-08-14 22:38:47			0	38866	0	0	0	31324	29940	148453	26989	1082980	46659	111675	0	0	8138	502612	0	0
2024-08-14 22:39:47			0	38845	0	0	0	31324	29940	148397	26639	1082989	46659	111675	0	0	8137	503378	0	0
2024-08-14 22:40:47			0	38865	0	0	0	31322	29940	148433	26786	1083007	46648	111674	0	0	8138	502649	0	0
2024-08-14 22:41:47			0	38874	0	0	0	31327	29930	148405	26941	1082998	46636	111676	0	0	8138	502350	0	0
2024-08-14 22:42:47			0	38888	0	0	0	31329	29940	148317	26953	1083034	46670	111677	0	0	8139	501811	0	0
2024-08-14 22:43:47			0	38874	0	0	0	31314	29920	148361	26930	1082953	46657	111671	0	0	8138	502379	0	0
2024-08-14 22:44:47			0	38891	0	0	0	31306	29930	148437	26892	1082935	46657	111668	0	0	8139	501731	0	0
2024-08-14 22:45:47			0	38907	0	0	0	31319	29940	148321	26646	1082953	46670	111673	0	0	8140	501119	0	0
2024-08-14 22:46:47			0	38907	0	0	0	31316	29920	148261	27052	1082980	46668	111672	0	0	8140	501178	0	0
2024-08-14 22:47:47			0	38908	0	0	0	31316	29930	148289	26942	1082962	46668	111672	0	0	8140	501112	0	0
2024-08-14 22:48:47			0	38906	0	0	0	31314	29920	148197	26937	1082980	46657	111671	0	0	8140	501214	0	0
2024-08-14 22:49:47			0	38917	0	0	0	31311	29930	148325	26901	1082962	46657	111670	0	0	8141	500784	0	0
2024-08-14 22:50:47			0	38907	0	0	0	31311	29910	148161	26802	1082907	46667	111670	0	0	8140	501207	0	0
2024-08-14 22:51:47			0	38936	0	0	0	31314	29920	148145	26804	1082926	46668	111671	0	0	8142	500123	0	0
2024-08-14 22:52:47			0	38943	0	0	0	31314	29910	148185	26817	1082880	46656	111671	0	0	8142	499897	0	0
2024-08-14 22:53:47			0	38924	0	0	0	31303	29920	148145	26961	1082898	46657	111667	0	0	8141	500559	0	0
2024-08-14 22:54:47			0	38924	0	0	0	31309	29920	148149	26916	1082871	46679	111669	0	0	8141	500559	0	0
2024-08-14 22:55:47			0	38928	0	0	0	31301	29910	148065	26967	1082880	46645	111666	0	0	8141	500443	0	0
2024-08-14 22:56:47			0	38944	0	0	0	31306	29920	148109	26944	1082835	46668	111668	0	0	8142	499832	0	0
2024-08-14 22:57:47			0	38948	0	0	0	31303	29920	148137	26885	1082889	46668	111667	0	0	8143	499687	0	0
2024-08-14 22:58:47			0	38950	0	0	0	31293	29900	148045	26946	1082808	46666	111663	0	0	8143	499672	0	0
2024-08-14 22:59:47			0	38950	0	0	0	31301	29910	148173	26939	1082907	46645	111666	0	0	8143	499643	0	0
2024-08-14 23:00:47			0	38939	0	0	0	31293	29900	148149	26700	1082835	46655	111663	0	0	8142	500072	0	0
2024-08-14 23:01:47			0	38943	0	0	0	31298	29910	148033	26838	1082844	46655	111665	0	0	8142	499897	0	0
2024-08-14 23:02:47			0	38963	0	0	0	31290	29890	148017	27000	1082790	46666	111662	0	0	8144	499229	0	0
2024-08-14 23:03:47			0	38952	0	0	0	31290	29900	148101	26675	1082727	46655	111662	0	0	8143	499600	0	0
2024-08-14 23:04:47			0	38951	0	0	0	31283	29900	148125	27053	1082772	46654	111659	0	0	8143	499636	0	0
2024-08-14 23:05:47			0	38956	0	0	0	31283	29900	148073	26871	1082826	46654	111659	0	0	8143	499454	0	0
2024-08-14 23:06:47			0	38969	0	0	0	31290	29900	148077	26965	1082781	46655	111662	0	0	8144	498982	0	0
2024-08-14 23:07:47			0	38978	0	0	0	31290	29890	148025	27112	1082736	46654	111662	0	0	8144	498685	0	0
2024-08-14 23:08:47			0	38974	0	0	0	31280	29890	148145	27052	1082726	46653	111658	0	0	8144	498830	0	0
2024-08-14 23:09:47			0	38988	0	0	0	31277	29890	148013	27095	1082753	46665	111657	0	0	8145	498322	0	0
2024-08-14 23:10:47			0	38966	0	0	0	31280	29890	148065	26913	1082763	46654	111658	0	0	8144	499120	0	0
2024-08-14 23:11:47			0	38969	0	0	0	31283	29880	148017	26918	1082735	46652	111659	0	0	8144	499040	0	0
2024-08-14 23:12:47			0	38983	0	0	0	31272	29890	147877	27185	1082753	46665	111655	0	0	8145	498503	0	0
2024-08-14 23:13:47			0	38986	0	0	0	31275	29890	147953	27062	1082763	46654	111656	0	0	8145	498394	0	0
2024-08-14 23:14:47			0	38990	0	0	0	31283	29880	147977	27102	1082717	46642	111659	0	0	8145	498278	0	0
2024-08-14 23:15:47			0	39004	0	0	0	31277	29880	147997	26887	1082708	46664	111657	0	0	8146	497770	0	0
2024-08-14 23:16:47			0	38974	0	0	0	31272	29890	148029	26866	1082753	46653	111655	0	0	8144	498830	0	0
2024-08-14 23:17:47			0	38971	0	0	0	31277	29880	147985	26870	1082717	46653	111657	0	0	8144	498968	0	0
2024-08-14 23:18:47			0	38976	0	0	0	31280	29880	148037	26984	1082744	46665	111658	0	0	8144	498786	0	0
2024-08-14 23:19:47			0	38993	0	0	0	31270	29880	148033	26804	1082771	46665	111654	0	0	8146	498169	0	0
2024-08-14 23:20:47			0	38990	0	0	0	31277	29880	148017	26928	1082681	46664	111657	0	0	8145	498278	0	0
2024-08-14 23:21:47			0	38984	0	0	0	31275	29880	147969	26797	1082708	46664	111656	0	0	8145	498496	0	0
2024-08-14 23:22:47			0	38984	0	0	0	31270	29880	147969	26953	1082690	46665	111654	0	0	8145	498496	0	0
2024-08-14 23:23:47			0	38967	0	0	0	31275	29890	148009	26894	1082699	46665	111656	0	0	8144	499084	0	0
2024-08-14 23:24:47			0	38975	0	0	0	31270	29870	148021	27041	1082690	46663	111654	0	0	8144	498852	0	0
2024-08-14 23:25:47			0	38978	0	0	0	31264	29870	147953	26901	1082672	46652	111652	0	0	8145	498743	0	0
2024-08-14 23:26:47			0	38969	0	0	0	31267	29870	148117	26632	1082672	46674	111653	0	0	8144	499069	0	0
2024-08-14 23:27:47			0	38979	0	0	0	31264	29880	147985	26753	1082663	46653	111652	0	0	8145	498677	0	0
2024-08-14 23:28:47			0	38993	0	0	0	31264	29880	148077	26982	1082708	46664	111652	0	0	8146	498169	0	0
2024-08-14 23:29:47			0	38989	0	0	0	31264	29880	147993	26955	1082627	46674	111652	0	0	8145	498315	0	0
2024-08-14 23:30:47			0	38991	0	0	0	31264	29870	147905	26752	1082699	46664	111652	0	0	8146	498271	0	0
2024-08-14 23:31:47			0	38988	0	0	0	31259	29870	147949	26942	1082663	46651	111650	0	0	8145	498380	0	0
2024-08-14 23:32:47			0	38978	0	0	0	31257	29870	147969	26778	1082582	46651	111649	0	0	8145	498743	0	0
2024-08-14 23:33:47			0	38988	0	0	0	31259	29870	147937	26975	1082663	46673	111650	0	0	8145	498380	0	0
2024-08-14 23:34:47			0	38999	0	0	0	31249	29870	148013	26956	1082528	46663	111646	0	0	8146	497981	0	0
2024-08-14 23:35:47			0	38988	0	0	0	31251	29870	147989	26630	1082672	46664	111647	0	0	8146	498380	0	0
2024-08-14 23:36:47			0	38972	0	0	0	31244	29860	148001	26811	1082564	46672	111644	0	0	8145	498990	0	0
2024-08-14 23:37:47			0	38979	0	0	0	31238	29860	148089	26932	1082564	46650	111642	0	0	8145	498735	0	0
2024-08-14 23:38:47			0	38984	0	0	0	31249	29860	148081	27166	1082591	46662	111646	0	0	8145	498554	0	0
2024-08-14 23:39:47			0	38995	0	0	0	31233	29850	148117	26752	1082573	46649	111640	0	0	8146	498184	0	0
2024-08-14 23:40:47			0	38962	0	0	0	31238	29850	148097	26755	1082528	46650	111642	0	0	8144	499382	0	0
2024-08-14 23:41:47			0	38975	0	0	0	31241	29850	148045	27005	1082465	46638	111643	0	0	8145	498910	0	0
2024-08-14 23:42:47			0	38979	0	0	0	31231	29850	148065	26857	1082501	46662	111639	0	0	8145	498765	0	0
2024-08-14 23:43:47			0	38978	0	0	0	31231	29850	148077	26996	1082492	46649	111639	0	0	8145	498801	0	0
2024-08-14 23:44:47			0	38975	0	0	0	31236	29850	148065	26783	1082474	46650	111641	0	0	8145	498910	0	0
2024-08-14 23:45:47			0	38969	0	0	0	31228	29850	148157	26859	1082492	46649	111638	0	0	8145	499128	0	0
2024-08-14 23:46:47			0	38972	0	0	0	31225	29830	148085	26693	1082446	46660	111637	0	0	8145	499077	0	0
2024-08-14 23:47:47			0	38967	0	0	0	31225	29840	148225	26937	1082456	46649	111637	0	0	8145	499229	0	0
2024-08-14 23:48:47			0	38978	0	0	0	31231	29850	148213	26916	1082465	46671	111639	0	0	8145	498801	0	0
2024-08-14 23:49:47			0	38959	0	0	0	31223	29840	148085	27039	1082429	46671	111636	0	0	8144	499520	0	0
2024-08-14 23:50:47			0	38978	0	0	0	31223	29830	148193	26974	1082446	46660	111636	0	0	8145	498859	0	0
2024-08-14 23:51:47			0	38981	0	0	0	31218	29830	148149	26750	1082392	46648	111634	0	0	8146	498750	0	0
2024-08-14 23:52:47			0	38977	0	0	0	31223	29830	148189	26922	1082437	46659	111636	0	0	8145	498895	0	0
2024-08-14 23:53:47			0	38965	0	0	0	31212	29820	148089	26984	1082392	46658	111632	0	0	8145	499360	0	0
2024-08-14 23:54:47			0	38977	0	0	0	31215	29820	148265	27026	1082374	46647	111633	0	0	8145	498924	0	0
2024-08-14 23:55:47			0	38974	0	0	0	31215	29820	148157	26986	1082374	46669	111633	0	0	8145	499033	0	0
2024-08-14 23:56:47			0	38956	0	0	0	31202	29820	148085	26922	1082338	46635	111628	0	0	8144	499687	0	0
2024-08-14 23:57:47			0	38952	0	0	0	31210	29810	148201	26977	1082383	46658	111631	0	0	8144	499862	0	0
2024-08-14 23:58:47			0	38958	0	0	0	31202	29820	148169	27093	1082365	46668	111628	0	0	8144	499615	0	0
2024-08-14 23:59:47			0	38954	0	0	0	31197	29810	148253	26849	1082302	46646	111626	0	0	8144	499789	0	0
2024-08-15 00:00:47			0	38972	0	0	0	31205	29800	148193	26915	1082284	46645	111629	0	0	8145	499164	0	0
2024-08-15 00:01:47			0	38951	0	0	0	31199	29810	148177	26817	1082347	46657	111627	0	0	8144	499898	0	0
2024-08-15 00:02:47			0	38938	0	0	0	31192	29810	148261	26854	1082275	46658	111624	0	0	8143	500371	0	0
2024-08-15 00:03:47			0	38934	0	0	0	31199	29800	148177	26984	1082257	46645	111627	0	0	8143	500546	0	0
2024-08-15 00:04:47			0	38942	0	0	0	31192	29810	148253	27142	1082239	46657	111624	0	0	8144	500225	0	0
2024-08-15 00:05:47			0	38938	0	0	0	31189	29800	148265	26887	1082230	46667	111623	0	0	8143	500400	0	0
2024-08-15 00:06:47			0	38947	0	0	0	31189	29800	148281	27116	1082284	46657	111623	0	0	8144	500073	0	0
2024-08-15 00:07:47			0	38951	0	0	0	31184	29800	148345	27045	1082248	46644	111621	0	0	8144	499927	0	0
2024-08-15 00:08:47			0	38933	0	0	0	31184	29810	148277	26746	1082221	46668	111621	0	0	8143	500553	0	0
2024-08-15 00:09:47			0	38937	0	0	0	31181	29800	148277	27081	1082248	46666	111620	0	0	8144	500436	0	0
2024-08-15 00:10:47			0	38933	0	0	0	31186	29790	148281	26918	1082185	46644	111622	0	0	8143	500611	0	0
2024-08-15 00:11:47			0	38939	0	0	0	31179	29800	148289	26753	1082248	46656	111619	0	0	8144	500364	0	0
2024-08-15 00:12:47			0	38938	0	0	0	31176	29790	148253	26882	1082176	46643	111618	0	0	8144	500429	0	0
2024-08-15 00:13:47			0	38943	0	0	0	31179	29790	148261	26706	1082122	46655	111619	0	0	8144	500247	0	0
2024-08-15 00:14:47			0	38923	0	0	0	31179	29790	148321	26870	1082149	46655	111619	0	0	8143	500975	0	0
2024-08-15 00:15:47			0	38936	0	0	0	31179	29780	148273	27213	1082193	46654	111619	0	0	8143	500531	0	0
2024-08-15 00:16:47			0	38939	0	0	0	31176	29790	148253	26769	1082185	46666	111618	0	0	8144	500393	0	0
2024-08-15 00:17:47			0	38937	0	0	0	31179	29790	148433	26809	1082095	46643	111619	0	0	8144	500466	0	0
2024-08-15 00:18:47			0	38932	0	0	0	31176	29790	148289	26729	1082176	46655	111618	0	0	8143	500647	0	0
2024-08-15 00:19:47			0	38926	0	0	0	31171	29790	148329	26764	1082176	46666	111616	0	0	8143	500866	0	0
2024-08-15 00:20:47			0	38909	0	0	0	31173	29790	148261	26817	1082149	46655	111617	0	0	8142	501485	0	0
2024-08-15 00:21:47			0	38932	0	0	0	31168	29790	148321	26909	1082122	46655	111615	0	0	8143	500647	0	0
2024-08-15 00:22:47			0	38916	0	0	0	31166	29780	148353	27074	1082139	46654	111614	0	0	8143	501259	0	0
2024-08-15 00:23:47			0	38893	0	0	0	31168	29780	148381	26745	1082139	46654	111615	0	0	8141	502097	0	0
2024-08-15 00:24:47			0	38906	0	0	0	31161	29780	148433	26694	1082139	46654	111612	0	0	8142	501623	0	0
2024-08-15 00:25:47			0	38906	0	0	0	31163	29770	148441	27064	1082085	46641	111613	0	0	8142	501653	0	0
2024-08-15 00:26:47			0	38919	0	0	0	31166	29770	148373	26720	1082067	46654	111614	0	0	8143	501179	0	0
2024-08-15 00:27:47			0	38888	0	0	0	31161	29770	148401	26963	1082067	46642	111612	0	0	8141	502308	0	0
2024-08-15 00:28:47			0	38890	0	0	0	31155	29770	148497	27100	1082166	46653	111610	0	0	8141	502236	0	0
2024-08-15 00:29:47			0	38906	0	0	0	31145	29770	148573	26981	1082058	46653	111606	0	0	8142	501653	0	0
2024-08-15 00:30:47			0	38889	0	0	0	31155	29770	148549	26785	1082058	46653	111610	0	0	8141	502272	0	0
2024-08-15 00:31:47			0	38882	0	0	0	31153	29770	148529	26993	1082004	46653	111609	0	0	8141	502527	0	0
2024-08-15 00:32:47			0	38870	0	0	0	31153	29760	148557	26859	1081995	46652	111609	0	0	8140	502994	0	0
2024-08-15 00:33:47			0	38872	0	0	0	31145	29770	148489	26706	1082004	46653	111606	0	0	8140	502892	0	0
2024-08-15 00:34:47			0	38868	0	0	0	31150	29760	148397	26937	1082040	46640	111608	0	0	8140	503067	0	0
2024-08-15 00:35:47			0	38872	0	0	0	31142	29750	148325	26941	1082004	46652	111605	0	0	8140	502951	0	0
2024-08-15 00:36:47			0	38860	0	0	0	31148	29760	148377	26807	1082013	46652	111607	0	0	8140	503359	0	0
2024-08-15 00:37:47			0	38879	0	0	0	31137	29760	148441	26890	1081986	46652	111603	0	0	8141	502666	0	0
2024-08-15 00:38:47			0	38852	0	0	0	31142	29750	148497	26927	1082004	46652	111605	0	0	8139	503681	0	0
2024-08-15 00:39:47			0	38838	0	0	0	31132	29750	148545	26753	1081968	46628	111601	0	0	8139	504192	0	0
2024-08-15 00:40:47			0	38835	0	0	0	31129	29750	148525	26720	1081977	46652	111600	0	0	8138	504302	0	0
2024-08-15 00:41:47			0	38872	0	0	0	31132	29750	148581	26927	1081950	46652	111601	0	0	8140	502951	0	0
2024-08-15 00:42:47			0	38844	0	0	0	31124	29740	148533	27038	1081877	46650	111598	0	0	8139	504002	0	0
2024-08-15 00:43:47			0	38822	0	0	0	31119	29750	148625	27189	1081859	46662	111596	0	0	8138	504777	0	0
2024-08-15 00:44:47			0	38830	0	0	0	31116	29740	148713	26830	1081904	46650	111595	0	0	8138	504514	0	0
2024-08-15 00:45:47			0	38820	0	0	0	31119	29730	148653	27093	1081832	46637	111596	0	0	8138	504909	0	0
2024-08-15 00:46:47			0	38805	0	0	0	31122	29730	148689	26857	1081913	46649	111597	0	0	8137	505458	0	0
2024-08-15 00:47:47			0	38807	0	0	0	31103	29730	148697	27081	1081859	46637	111590	0	0	8137	505385	0	0
2024-08-15 00:48:47			0	38821	0	0	0	31109	29720	148709	27310	1081841	46637	111592	0	0	8138	504902	0	0
2024-08-15 00:49:47			0	38799	0	0	0	31101	29720	148689	27156	1081787	46648	111589	0	0	8137	505707	0	0
2024-08-15 00:50:47			0	38781	0	0	0	31098	29730	148737	26885	1081796	46649	111588	0	0	8136	506337	0	0
2024-08-15 00:51:47			0	38808	0	0	0	31109	29720	148813	26953	1081805	46647	111592	0	0	8137	505377	0	0
2024-08-15 00:52:47			0	38771	0	0	0	31106	29720	148817	27069	1081778	46658	111591	0	0	8135	506733	0	0
2024-08-15 00:53:47			0	38777	0	0	0	31098	29720	148737	27072	1081724	46647	111588	0	0	8135	506513	0	0
2024-08-15 00:54:47			0	38780	0	0	0	31093	29710	148825	27145	1081742	46647	111586	0	0	8136	506432	0	0
2024-08-15 00:55:47			0	38790	0	0	0	31085	29700	148845	27289	1081697	46657	111583	0	0	8136	506095	0	0
2024-08-15 00:56:47			0	38756	0	0	0	31090	29710	148829	26935	1081733	46647	111585	0	0	8134	507312	0	0
2024-08-15 00:57:47			0	38781	0	0	0	31083	29700	148857	27088	1081670	46646	111582	0	0	8136	506425	0	0
2024-08-15 00:58:47			0	38763	0	0	0	31083	29700	148825	26812	1081643	46634	111582	0	0	8135	507085	0	0
2024-08-15 00:59:47			0	38793	0	0	0	31075	29690	148873	26882	1081652	46656	111579	0	0	8137	506015	0	0
2024-08-15 01:00:47			0	38790	0	0	0	31080	29700	148817	26667	1081661	46645	111581	0	0	8136	506095	0	0
2024-08-15 01:01:47			0	38751	0	0	0	31072	29690	148857	26902	1081679	46633	111578	0	0	8134	507555	0	0
2024-08-15 01:02:47			0	38738	0	0	0	31067	29700	148929	26778	1081580	46645	111576	0	0	8134	508002	0	0
2024-08-15 01:03:47			0	38755	0	0	0	31067	29680	148913	27033	1081552	46632	111576	0	0	8135	507437	0	0
2024-08-15 01:04:47			0	38763	0	0	0	31064	29700	148885	26873	1081607	46633	111575	0	0	8135	507085	0	0
2024-08-15 01:05:47			0	38752	0	0	0	31067	29680	149021	26911	1081579	46655	111576	0	0	8134	507548	0	0
2024-08-15 01:06:47			0	38757	0	0	0	31062	29680	148997	27008	1081606	46655	111574	0	0	8135	507364	0	0
2024-08-15 01:07:47			0	38752	0	0	0	31067	29680	149029	26899	1081516	46631	111576	0	0	8134	507548	0	0
2024-08-15 01:08:47			0	38755	0	0	0	31054	29680	149105	26932	1081606	46644	111571	0	0	8135	507437	0	0
2024-08-15 01:09:47			0	38744	0	0	0	31067	29680	149149	26956	1081552	46655	111576	0	0	8134	507841	0	0
2024-08-15 01:10:47			0	38747	0	0	0	31051	29670	149041	27088	1081561	46643	111570	0	0	8134	507760	0	0
2024-08-15 01:11:47			0	38747	0	0	0	31057	29670	149041	26726	1081534	46654	111572	0	0	8134	507760	0	0
2024-08-15 01:12:47			0	38746	0	0	0	31054	29670	149069	26791	1081498	46643	111571	0	0	8134	507797	0	0
2024-08-15 01:13:47			0	38754	0	0	0	31046	29660	149113	26930	1081489	46642	111568	0	0	8135	507533	0	0
2024-08-15 01:14:47			0	38739	0	0	0	31049	29670	149065	26979	1081498	46643	111569	0	0	8134	508054	0	0
2024-08-15 01:15:47			0	38736	0	0	0	31049	29660	149048	26736	1081480	46652	111569	0	0	8134	508194	0	0
2024-08-15 01:16:47			0	38735	0	0	0	31051	29660	148992	26729	1081435	46665	111570	0	0	8134	508231	0	0
2024-08-15 01:17:47			0	38757	0	0	0	31049	29660	149109	26845	1081462	46653	111569	0	0	8135	507423	0	0
2024-08-15 01:18:47			0	38732	0	0	0	31033	29660	149005	26876	1081399	46652	111563	0	0	8134	508341	0	0
2024-08-15 01:19:47			0	38741	0	0	0	31041	29660	149025	26674	1081507	46629	111566	0	0	8134	508010	0	0
2024-08-15 01:20:47			0	38741	0	0	0	31036	29660	148997	26968	1081426	46641	111564	0	0	8134	508010	0	0
2024-08-15 01:21:47			0	38738	0	0	0	31031	29650	149017	26923	1081417	46629	111562	0	0	8134	508150	0	0
2024-08-15 01:22:47			0	38738	0	0	0	31031	29640	149121	26868	1081398	46640	111562	0	0	8134	508180	0	0
2024-08-15 01:23:47			0	38730	0	0	0	31020	29650	149157	26930	1081381	46651	111558	0	0	8134	508444	0	0
2024-08-15 01:24:47			0	38735	0	0	0	31023	29650	149065	26868	1081408	46651	111559	0	0	8134	508260	0	0
2024-08-15 01:25:47			0	38732	0	0	0	31015	29640	149169	27111	1081371	46640	111556	0	0	8134	508400	0	0
2024-08-15 01:26:47			0	38730	0	0	0	31015	29640	149145	27003	1081371	46640	111556	0	0	8134	508473	0	0
2024-08-15 01:27:47			0	38731	0	0	0	31010	29640	149100	26838	1081389	46628	111554	0	0	8134	508437	0	0
2024-08-15 01:28:47			0	38731	0	0	0	31015	29620	149152	26674	1081362	46638	111556	0	0	8134	508496	0	0
2024-08-15 01:29:47			0	38727	0	0	0	31010	29640	149121	26849	1081281	46662	111554	0	0	8134	508584	0	0
2024-08-15 01:30:47			0	38713	0	0	0	31010	29630	149112	27145	1081317	46638	111554	0	0	8133	509128	0	0
2024-08-15 01:31:47			0	38706	0	0	0	31007	29630	149128	27045	1081263	46661	111553	0	0	8133	509385	0	0
2024-08-15 01:32:47			0	38720	0	0	0	31002	29620	149092	27235	1081245	46637	111551	0	0	8133	508900	0	0
2024-08-15 01:33:47			0	38716	0	0	0	30999	29610	149216	26746	1081209	46636	111550	0	0	8133	509077	0	0
2024-08-15 01:34:47			0	38734	0	0	0	31005	29620	149169	26902	1081299	46637	111552	0	0	8134	508386	0	0
2024-08-15 01:35:47			0	38717	0	0	0	31002	29620	149140	26686	1081227	46649	111551	0	0	8133	509011	0	0
2024-08-15 01:36:47			0	38721	0	0	0	30994	29620	149100	27194	1081272	46648	111548	0	0	8134	508863	0	0
2024-08-15 01:37:47			0	38731	0	0	0	30989	29610	149141	26875	1081290	46636	111546	0	0	8134	508526	0	0
2024-08-15 01:38:47			0	38709	0	0	0	30994	29610	149116	26837	1081209	46647	111548	0	0	8133	509334	0	0
2024-08-15 01:39:47			0	38731	0	0	0	31005	29600	149057	27041	1081272	46636	111552	0	0	8134	508555	0	0
2024-08-15 01:40:47			0	38714	0	0	0	30994	29610	149128	26767	1081227	46647	111548	0	0	8133	509150	0	0
2024-08-15 01:41:47			0	38743	0	0	0	31002	29620	149013	27083	1081335	46638	111551	0	0	8135	508055	0	0
2024-08-15 01:42:47			0	38730	0	0	0	30992	29620	148960	26833	1081218	46637	111547	0	0	8134	508533	0	0
2024-08-15 01:43:47			0	38740	0	0	0	30999	29620	149121	26890	1081254	46638	111550	0	0	8135	508165	0	0
2024-08-15 01:44:47			0	38733	0	0	0	30992	29610	148985	27150	1081236	46636	111547	0	0	8134	508452	0	0
2024-08-15 01:45:47			0	38744	0	0	0	30992	29610	149057	27107	1081173	46636	111547	0	0	8135	508048	0	0
2024-08-15 01:46:47			0	38734	0	0	0	30997	29610	149145	27020	1081200	46647	111549	0	0	8134	508415	0	0
2024-08-15 01:47:47			0	38719	0	0	0	30989	29610	149180	26698	1081146	46636	111546	0	0	8134	508967	0	0
2024-08-15 01:48:47			0	38708	0	0	0	30994	29600	149136	26927	1081155	46635	111548	0	0	8133	509401	0	0
2024-08-15 01:49:47			0	38723	0	0	0	30979	29600	149176	26660	1081155	46646	111542	0	0	8134	508849	0	0
2024-08-15 01:50:47			0	38725	0	0	0	30976	29590	149041	27013	1081082	46633	111541	0	0	8134	508805	0	0
2024-08-15 01:51:47			0	38719	0	0	0	30971	29590	149148	27100	1081082	46644	111539	0	0	8134	509026	0	0
2024-08-15 01:52:47			0	38721	0	0	0	30966	29580	149060	27144	1081073	46633	111537	0	0	8134	508982	0	0
2024-08-15 01:53:47			0	38693	0	0	0	30955	29580	149248	26934	1081010	46633	111533	0	0	8133	510012	0	0
2024-08-15 01:54:47			0	38713	0	0	0	30955	29570	149160	27081	1080992	46621	111533	0	0	8134	509306	0	0
2024-08-15 01:55:47			0	38717	0	0	0	30950	29570	149192	26788	1080938	46631	111531	0	0	8134	509159	0	0
2024-08-15 01:56:47			0	38712	0	0	0	30945	29570	149204	26743	1080992	46631	111529	0	0	8134	509343	0	0
2024-08-15 01:57:47			0	38692	0	0	0	30937	29560	149308	26953	1080956	46621	111526	0	0	8133	510108	0	0
2024-08-15 01:58:47			0	38714	0	0	0	30937	29560	149256	26689	1080929	46621	111526	0	0	8134	509299	0	0
2024-08-15 01:59:47			0	38694	0	0	0	30935	29550	149208	26916	1080911	46630	111525	0	0	8133	510064	0	0
2024-08-15 02:00:47			0	38692	0	0	0	30932	29550	149336	26717	1080875	46618	111524	0	0	8133	510138	0	0
2024-08-15 02:01:47			0	38690	0	0	0	30937	29550	149372	27050	1080830	46641	111526	0	0	8132	510212	0	0
2024-08-15 02:02:47			0	38704	0	0	0	30924	29550	149372	26968	1080902	46640	111521	0	0	8134	509696	0	0
2024-08-15 02:03:47			0	38707	0	0	0	30927	29550	149440	27118	1080830	46641	111522	0	0	8134	509586	0	0
2024-08-15 02:04:47			0	38677	0	0	0	30922	29530	149408	26760	1080857	46629	111520	0	0	8132	510750	0	0
2024-08-15 02:05:47			0	38684	0	0	0	30911	29530	149480	27315	1080821	46639	111516	0	0	8133	510492	0	0
2024-08-15 02:06:47			0	38679	0	0	0	30906	29530	149380	26817	1080821	46617	111514	0	0	8132	510676	0	0
2024-08-15 02:07:47			0	38682	0	0	0	30906	29530	149420	26694	1080848	46639	111514	0	0	8132	510566	0	0
2024-08-15 02:08:47			0	38679	0	0	0	30901	29530	149404	27074	1080821	46628	111512	0	0	8132	510676	0	0
2024-08-15 02:09:47			0	38688	0	0	0	30898	29520	149480	27116	1080703	46638	111511	0	0	8133	510374	0	0
2024-08-15 02:10:47			0	38672	0	0	0	30896	29520	149428	27131	1080748	46626	111510	0	0	8132	510964	0	0
2024-08-15 02:11:47			0	38665	0	0	0	30903	29520	149496	26882	1080721	46626	111513	0	0	8132	511222	0	0
2024-08-15 02:12:47			0	38684	0	0	0	30896	29510	149456	27199	1080658	46626	111510	0	0	8133	510551	0	0
2024-08-15 02:13:47			0	38688	0	0	0	30880	29510	149308	27260	1080649	46626	111504	0	0	8133	510404	0	0
2024-08-15 02:14:47			0	38681	0	0	0	30883	29500	149420	26915	1080631	46625	111505	0	0	8133	510692	0	0
2024-08-15 02:15:47			0	38663	0	0	0	30888	29500	149412	27083	1080631	46635	111507	0	0	8132	511355	0	0
2024-08-15 02:16:47			0	38683	0	0	0	30885	29490	149432	26734	1080676	46635	111506	0	0	8133	510648	0	0
2024-08-15 02:17:47			0	38680	0	0	0	30880	29500	149412	26930	1080577	46625	111504	0	0	8133	510728	0	0
2024-08-15 02:18:47			0	38683	0	0	0	30877	29500	149392	27159	1080631	46614	111503	0	0	8133	510618	0	0
2024-08-15 02:19:47			0	38683	0	0	0	30872	29490	149420	27017	1080568	46625	111501	0	0	8133	510648	0	0
2024-08-15 02:20:47			0	38691	0	0	0	30883	29480	149448	26817	1080568	46645	111505	0	0	8133	510383	0	0
2024-08-15 02:21:47			0	38705	0	0	0	30875	29480	149400	26781	1080513	46623	111502	0	0	8134	509867	0	0
2024-08-15 02:22:47			0	38692	0	0	0	30872	29490	149452	26731	1080532	46635	111501	0	0	8133	510316	0	0
2024-08-15 02:23:47			0	38693	0	0	0	30875	29480	149444	26627	1080577	46646	111502	0	0	8133	510309	0	0
2024-08-15 02:24:47			0	38700	0	0	0	30875	29480	149496	26590	1080621	46633	111502	0	0	8134	510051	0	0
2024-08-15 02:25:47			0	38707	0	0	0	30875	29480	149412	26658	1080568	46633	111502	0	0	8134	509793	0	0
2024-08-15 02:26:47			0	38703	0	0	0	30880	29480	149320	26719	1080631	46634	111504	0	0	8134	509941	0	0
2024-08-15 02:27:47			0	38707	0	0	0	30872	29480	149308	27000	1080568	46623	111501	0	0	8134	509793	0	0
2024-08-15 02:28:47			0	38706	0	0	0	30877	29480	149368	26878	1080550	46634	111503	0	0	8134	509830	0	0
2024-08-15 02:29:47			0	38724	0	0	0	30870	29480	149340	27114	1080513	46633	111500	0	0	8135	509168	0	0
2024-08-15 02:30:47			0	38729	0	0	0	30867	29480	149393	27041	1080513	46623	111499	0	0	8136	508984	0	0
2024-08-15 02:31:47			0	38702	0	0	0	30857	29470	149292	27033	1080558	46633	111495	0	0	8134	510007	0	0
2024-08-15 02:32:47			0	38726	0	0	0	30870	29480	149232	26909	1080568	46633	111500	0	0	8135	509094	0	0
2024-08-15 02:33:47			0	38729	0	0	0	30867	29470	149229	26802	1080495	46645	111499	0	0	8136	509014	0	0
2024-08-15 02:34:47			0	38734	0	0	0	30875	29470	149221	27085	1080549	46633	111502	0	0	8136	508830	0	0
2024-08-15 02:35:47			0	38735	0	0	0	30864	29470	149153	27020	1080522	46645	111498	0	0	8136	508793	0	0
2024-08-15 02:36:47			0	38722	0	0	0	30862	29470	149201	27019	1080504	46623	111497	0	0	8135	509271	0	0
2024-08-15 02:37:47			0	38739	0	0	0	30872	29470	149177	27041	1080495	46633	111501	0	0	8136	508646	0	0
2024-08-15 02:38:47			0	38761	0	0	0	30867	29470	149125	27190	1080495	46633	111499	0	0	8137	507838	0	0
2024-08-15 02:39:47			0	38760	0	0	0	30862	29460	149121	27104	1080477	46631	111497	0	0	8137	507904	0	0
2024-08-15 02:40:47			0	38776	0	0	0	30859	29470	149165	27059	1080504	46645	111496	0	0	8138	507287	0	0
2024-08-15 02:41:47			0	38784	0	0	0	30851	29470	149105	27222	1080495	46612	111493	0	0	8139	506993	0	0
2024-08-15 02:42:47			0	38788	0	0	0	30857	29460	149093	26994	1080450	46621	111495	0	0	8139	506876	0	0
2024-08-15 02:43:47			0	38801	0	0	0	30846	29470	148981	27216	1080495	46623	111491	0	0	8140	506370	0	0
2024-08-15 02:44:47			0	38828	0	0	0	30841	29460	149029	26873	1080396	46609	111489	0	0	8142	505410	0	0
2024-08-15 02:45:47			0	38819	0	0	0	30841	29450	148953	27308	1080360	46620	111489	0	0	8141	505769	0	0
2024-08-15 02:46:47			0	38811	0	0	0	30833	29450	148957	26927	1080351	46620	111486	0	0	8141	506062	0	0
2024-08-15 02:47:47			0	38814	0	0	0	30833	29440	148921	27237	1080306	46629	111486	0	0	8141	505982	0	0
2024-08-15 02:48:47			0	38865	0	0	0	30820	29450	148953	27024	1080351	46620	111481	0	0	8144	504086	0	0
2024-08-15 02:49:47			0	38831	0	0	0	30820	29440	148829	27287	1080315	46608	111481	0	0	8142	505359	0	0
2024-08-15 02:50:47			0	38832	0	0	0	30818	29430	148913	26968	1080323	46640	111480	0	0	8142	505352	0	0
2024-08-15 02:51:47			0	38854	0	0	0	30815	29430	148901	27312	1080314	46618	111479	0	0	8143	504547	0	0
2024-08-15 02:52:47			0	38852	0	0	0	30818	29420	148965	27017	1080332	46618	111480	0	0	8143	504649	0	0
2024-08-15 02:53:47			0	38833	0	0	0	30823	29430	148929	27268	1080270	46628	111482	0	0	8142	505315	0	0
2024-08-15 02:54:47			0	38863	0	0	0	30818	29430	148753	26909	1080270	46628	111480	0	0	8144	504218	0	0
2024-08-15 02:55:47			0	38880	0	0	0	30815	29420	148685	27053	1080224	46618	111479	0	0	8145	503625	0	0
2024-08-15 02:56:47			0	38902	0	0	0	30812	29430	148777	27223	1080233	46628	111478	0	0	8146	502792	0	0
2024-08-15 02:57:47			0	38919	0	0	0	30799	29420	148789	26972	1080242	46627	111473	0	0	8147	502201	0	0
2024-08-15 02:58:47			0	38927	0	0	0	30807	29420	148633	27173	1080188	46627	111476	0	0	8148	501909	0	0
2024-08-15 02:59:47			0	38943	0	0	0	30802	29420	148641	26894	1080242	46627	111474	0	0	8149	501326	0	0
2024-08-15 03:00:47			0	38946	0	0	0	30805	29410	148673	26960	1080179	46616	111475	0	0	8149	501246	0	0
2024-08-15 03:01:47			0	38947	0	0	0	30799	29410	148525	27045	1080116	46626	111473	0	0	8149	501209	0	0
2024-08-15 03:02:47			0	38956	0	0	0	30789	29410	148473	27013	1080089	46626	111469	0	0	8149	500882	0	0
2024-08-15 03:03:47			0	38957	0	0	0	30792	29410	148517	26864	1080224	46626	111470	0	0	8149	500845	0	0
2024-08-15 03:04:47			0	38969	0	0	0	30794	29410	148637	26772	1080170	46638	111471	0	0	8150	500408	0	0
2024-08-15 03:05:47			0	38952	0	0	0	30789	29400	148601	27183	1080161	46626	111469	0	0	8149	501056	0	0
2024-08-15 03:06:47			0	38962	0	0	0	30789	29400	148453	27204	1080161	46616	111469	0	0	8150	500692	0	0
2024-08-15 03:07:47			0	38957	0	0	0	30781	29410	148533	26953	1080125	46616	111466	0	0	8150	500845	0	0
2024-08-15 03:08:47			0	38967	0	0	0	30781	29390	148453	27079	1080116	46625	111466	0	0	8150	500539	0	0
2024-08-15 03:09:47			0	38977	0	0	0	30781	29400	148445	27043	1080125	46615	111466	0	0	8151	500146	0	0
2024-08-15 03:10:47			0	38987	0	0	0	30781	29390	148337	27033	1080080	46636	111466	0	0	8151	499811	0	0
2024-08-15 03:11:47			0	39014	0	0	0	30766	29390	148337	26989	1080053	46625	111460	0	0	8153	498829	0	0
2024-08-15 03:12:47			0	39010	0	0	0	30773	29380	148369	27147	1079990	46624	111463	0	0	8153	499004	0	0
2024-08-15 03:13:47			0	39027	0	0	0	30768	29380	148325	26965	1080016	46613	111461	0	0	8154	498386	0	0
2024-08-15 03:14:47			0	39037	0	0	0	30766	29370	148357	26500	1079971	46612	111460	0	0	8154	498052	0	0
2024-08-15 03:15:47			0	39012	0	0	0	30758	29380	148181	26939	1080034	46613	111457	0	0	8153	498931	0	0
2024-08-15 03:16:47			0	39039	0	0	0	30758	29390	148185	26953	1079945	46614	111457	0	0	8155	497921	0	0
2024-08-15 03:17:47			0	39040	0	0	0	30748	29370	148205	27013	1079935	46612	111453	0	0	8155	497943	0	0
2024-08-15 03:18:47			0	39018	0	0	0	30732	29360	148293	26817	1079899	46611	111447	0	0	8154	498771	0	0
2024-08-15 03:19:47			0	39022	0	0	0	30722	29370	148209	26998	1079773	46612	111443	0	0	8154	498597	0	0
2024-08-15 03:20:47			0	39003	0	0	0	30729	29370	148429	26857	1079908	46600	111446	0	0	8153	499287	0	0
2024-08-15 03:21:47			0	38988	0	0	0	30722	29350	148361	27078	1079800	46610	111443	0	0	8152	499891	0	0
2024-08-15 03:22:47			0	38976	0	0	0	30706	29350	148521	27203	1079791	46598	111437	0	0	8152	500328	0	0
2024-08-15 03:23:47			0	38970	0	0	0	30706	29330	148529	26925	1079791	46608	111437	0	0	8151	500604	0	0
2024-08-15 03:24:47			0	38961	0	0	0	30703	29340	148493	27112	1079719	46609	111436	0	0	8151	500903	0	0
2024-08-15 03:25:47			0	38962	0	0	0	30696	29320	148509	27036	1079692	46596	111433	0	0	8151	500925	0	0
2024-08-15 03:26:47			0	38966	0	0	0	30698	29330	148465	26757	1079647	46607	111434	0	0	8151	500750	0	0
2024-08-15 03:27:47			0	38986	0	0	0	30693	29320	148469	27138	1079656	46606	111432	0	0	8152	500051	0	0
2024-08-15 03:28:47			0	38989	0	0	0	30688	29320	148357	26700	1079656	46606	111430	0	0	8153	499942	0	0
2024-08-15 03:29:47			0	38997	0	0	0	30690	29320	148333	27209	1079602	46606	111431	0	0	8153	499651	0	0
2024-08-15 03:30:47			0	39017	0	0	0	30690	29320	148161	27005	1079584	46607	111431	0	0	8154	498923	0	0
2024-08-15 03:31:47			0	39052	0	0	0	30685	29310	148225	26986	1079593	46617	111429	0	0	8156	497681	0	0
2024-08-15 03:32:47			0	39050	0	0	0	30680	29300	148149	26826	1079619	46604	111427	0	0	8156	497783	0	0
2024-08-15 03:33:47			0	39040	0	0	0	30677	29300	148181	26944	1079592	46615	111426	0	0	8156	498146	0	0
2024-08-15 03:34:47			0	39059	0	0	0	30675	29300	148081	26710	1079511	46626	111425	0	0	8157	497456	0	0
2024-08-15 03:35:47			0	39071	0	0	0	30675	29290	148077	26960	1079574	46614	111425	0	0	8157	497049	0	0
2024-08-15 03:36:47			0	39078	0	0	0	30675	29290	148077	27213	1079547	46614	111425	0	0	8158	496795	0	0
2024-08-15 03:37:47			0	39105	0	0	0	30672	29290	147973	26828	1079547	46614	111424	0	0	8159	495817	0	0
2024-08-15 03:38:47			0	39082	0	0	0	30670	29290	147945	26715	1079574	46614	111423	0	0	8158	496650	0	0
2024-08-15 03:39:47			0	39103	0	0	0	30675	29290	148025	27043	1079520	46625	111425	0	0	8159	495889	0	0
2024-08-15 03:40:47			0	39089	0	0	0	30670	29290	148081	26566	1079493	46625	111423	0	0	8158	496397	0	0
2024-08-15 03:41:47			0	39109	0	0	0	30659	29290	147921	27015	1079466	46625	111419	0	0	8160	495672	0	0
2024-08-15 03:42:47			0	39112	0	0	0	30664	29270	147949	26828	1079439	46602	111421	0	0	8160	495621	0	0
2024-08-15 03:43:47			0	39117	0	0	0	30664	29280	148045	26876	1079448	46613	111421	0	0	8160	495411	0	0
2024-08-15 03:44:47			0	39131	0	0	0	30662	29270	148025	26989	1079484	46601	111420	0	0	8161	494933	0	0
2024-08-15 03:45:47			0	39121	0	0	0	30659	29270	147933	26970	1079511	46601	111419	0	0	8160	495295	0	0
2024-08-15 03:46:47			0	39127	0	0	0	30654	29260	147909	27000	1079448	46611	111417	0	0	8161	495107	0	0
2024-08-15 03:47:47			0	39165	0	0	0	30662	29270	147885	27187	1079403	46601	111420	0	0	8163	493704	0	0
2024-08-15 03:48:47			0	39133	0	0	0	30646	29260	147829	27270	1079394	46600	111414	0	0	8161	494890	0	0
2024-08-15 03:49:47			0	39143	0	0	0	30646	29270	147841	27043	1079403	46612	111414	0	0	8162	494499	0	0
2024-08-15 03:50:47			0	39144	0	0	0	30649	29250	147989	27033	1079412	46600	111415	0	0	8162	494520	0	0
2024-08-15 03:51:47			0	39143	0	0	0	30646	29250	147933	26972	1079403	46610	111414	0	0	8162	494557	0	0
2024-08-15 03:52:47			0	39143	0	0	0	30646	29260	147889	26899	1079394	46623	111414	0	0	8162	494528	0	0
2024-08-15 03:53:47			0	39157	0	0	0	30644	29260	147905	27007	1079394	46611	111413	0	0	8163	494022	0	0
2024-08-15 03:54:47			0	39150	0	0	0	30644	29250	147817	27097	1079358	46600	111413	0	0	8162	494303	0	0
2024-08-15 03:55:47			0	39161	0	0	0	30638	29250	147801	27255	1079385	46623	111411	0	0	8163	493906	0	0
2024-08-15 03:56:47			0	39191	0	0	0	30646	29250	147729	26902	1079376	46610	111414	0	0	8164	492822	0	0
2024-08-15 03:57:47			0	39207	0	0	0	30646	29240	147685	26805	1079285	46610	111414	0	0	8165	492274	0	0
2024-08-15 03:58:47			0	39220	0	0	0	30644	29250	147601	26840	1079268	46610	111413	0	0	8166	491776	0	0
2024-08-15 03:59:47			0	39222	0	0	0	30638	29240	147605	27041	1079285	46610	111411	0	0	8166	491733	0	0
2024-08-15 04:00:47			0	39244	0	0	0	30636	29240	147581	26911	1079330	46609	111410	0	0	8168	490940	0	0
2024-08-15 04:01:47			0	39236	0	0	0	30633	29230	147617	26882	1079321	46621	111409	0	0	8167	491257	0	0
2024-08-15 04:02:47			0	39222	0	0	0	30631	29230	147597	26715	1079294	46609	111408	0	0	8166	491761	0	0
2024-08-15 04:03:47			0	39225	0	0	0	30623	29230	147609	27033	1079312	46597	111405	0	0	8167	491653	0	0
2024-08-15 04:04:47			0	39226	0	0	0	30620	29230	147673	27072	1079321	46609	111404	0	0	8167	491617	0	0
2024-08-15 04:05:47			0	39205	0	0	0	30631	29230	147605	27111	1079267	46621	111408	0	0	8165	492374	0	0
2024-08-15 04:06:47			0	39205	0	0	0	30625	29230	147821	27253	1079339	46608	111406	0	0	8166	492374	0	0
2024-08-15 04:07:47			0	39210	0	0	0	30620	29230	147749	26693	1079240	46621	111404	0	0	8166	492194	0	0
2024-08-15 04:08:47			0	39193	0	0	0	30625	29220	147725	26854	1079276	46608	111406	0	0	8165	492836	0	0
2024-08-15 04:09:47			0	39168	0	0	0	30615	29230	147845	27164	1079204	46597	111402	0	0	8164	493710	0	0
2024-08-15 04:10:47			0	39162	0	0	0	30612	29230	147805	27008	1079213	46598	111401	0	0	8163	493927	0	0
2024-08-15 04:11:47			0	39142	0	0	0	30607	29220	147881	27209	1079141	46620	111399	0	0	8162	494679	0	0
2024-08-15 04:12:47			0	39119	0	0	0	30602	29210	148009	27050	1079177	46607	111397	0	0	8161	495540	0	0
2024-08-15 04:13:47			0	39111	0	0	0	30605	29220	148077	27149	1079132	46585	111398	0	0	8161	495801	0	0
2024-08-15 04:14:47			0	39076	0	0	0	30597	29210	148165	27029	1079168	46618	111395	0	0	8159	497099	0	0
2024-08-15 04:15:47			0	39080	0	0	0	30594	29220	148201	27201	1079132	46607	111394	0	0	8159	496925	0	0
2024-08-15 04:16:47			0	39057	0	0	0	30599	29210	148313	27071	1079123	46619	111396	0	0	8158	497789	0	0
2024-08-15 04:17:47			0	39050	0	0	0	30599	29210	148225	26750	1079150	46607	111396	0	0	8157	498043	0	0
2024-08-15 04:18:47			0	39054	0	0	0	30594	29210	148301	26967	1079123	46596	111394	0	0	8157	497898	0	0
2024-08-15 04:19:47			0	39064	0	0	0	30581	29210	148185	27126	1079069	46596	111389	0	0	8158	497535	0	0
2024-08-15 04:20:47			0	39070	0	0	0	30579	29200	148241	26894	1079042	46617	111388	0	0	8159	497346	0	0
2024-08-15 04:21:47			0	39049	0	0	0	30576	29200	148237	26989	1079042	46594	111387	0	0	8157	498108	0	0
2024-08-15 04:22:47			0	39031	0	0	0	30574	29190	148289	26703	1079060	46594	111386	0	0	8156	498791	0	0
2024-08-15 04:23:47			0	39030	0	0	0	30571	29200	148293	27192	1079069	46617	111385	0	0	8156	498799	0	0
2024-08-15 04:24:47			0	39027	0	0	0	30574	29200	148353	27251	1079096	46594	111386	0	0	8156	498908	0	0
2024-08-15 04:25:47			0	39027	0	0	0	30574	29200	148305	26894	1078988	46617	111386	0	0	8156	498908	0	0
2024-08-15 04:26:47			0	39044	0	0	0	30576	29190	148229	26809	1078997	46616	111387	0	0	8157	498319	0	0
2024-08-15 04:27:47			0	39042	0	0	0	30558	29190	148237	27013	1079024	46616	111380	0	0	8157	498391	0	0
2024-08-15 04:28:47			0	39047	0	0	0	30563	29190	148301	26946	1079033	46605	111382	0	0	8157	498210	0	0
2024-08-15 04:29:47			0	39031	0	0	0	30566	29180	148413	27012	1078988	46592	111383	0	0	8156	498820	0	0
2024-08-15 04:30:47			0	39019	0	0	0	30561	29180	148429	27352	1078988	46592	111381	0	0	8156	499257	0	0
2024-08-15 04:31:47			0	39009	0	0	0	30568	29170	148429	26977	1078943	46603	111384	0	0	8155	499650	0	0
2024-08-15 04:32:47			0	38997	0	0	0	30568	29170	148469	27332	1078943	46603	111384	0	0	8154	500086	0	0
2024-08-15 04:33:47			0	38981	0	0	0	30561	29170	148465	27277	1078961	46614	111381	0	0	8154	500669	0	0
2024-08-15 04:34:47			0	38981	0	0	0	30566	29180	148389	27448	1078979	46603	111383	0	0	8154	500640	0	0
2024-08-15 04:35:47			0	38994	0	0	0	30568	29180	148357	26838	1079006	46603	111384	0	0	8154	500167	0	0
2024-08-15 04:36:47			0	39025	0	0	0	30566	29180	148421	26734	1079006	46592	111383	0	0	8156	499038	0	0
2024-08-15 04:37:47			0	39037	0	0	0	30561	29170	148413	26970	1078970	46592	111381	0	0	8157	498631	0	0
2024-08-15 04:38:47			0	39028	0	0	0	30561	29170	148305	27114	1078961	46602	111381	0	0	8156	498958	0	0
2024-08-15 04:39:47			0	39043	0	0	0	30574	29170	148293	26838	1079015	46625	111386	0	0	8157	498413	0	0
2024-08-15 04:40:47			0	39076	0	0	0	30576	29160	148281	26731	1078844	46601	111387	0	0	8159	497243	0	0
2024-08-15 04:41:47			0	39083	0	0	0	30576	29170	148189	26809	1078907	46614	111387	0	0	8159	496961	0	0
2024-08-15 04:42:47			0	39088	0	0	0	30571	29160	148185	26902	1078898	46613	111385	0	0	8160	496808	0	0
2024-08-15 04:43:47			0	39119	0	0	0	30566	29160	148225	26977	1078871	46601	111383	0	0	8161	495684	0	0
2024-08-15 04:44:47			0	39099	0	0	0	30566	29160	148113	26698	1078862	46590	111383	0	0	8160	496409	0	0
2024-08-15 04:45:47			0	39108	0	0	0	30563	29160	148049	26911	1078925	46590	111382	0	0	8161	496083	0	0
2024-08-15 04:46:47			0	39104	0	0	0	30555	29160	148061	26738	1078916	46601	111379	0	0	8161	496228	0	0
2024-08-15 04:47:47			0	39110	0	0	0	30561	29150	148017	26967	1078906	46600	111381	0	0	8161	496039	0	0
2024-08-15 04:48:47			0	39107	0	0	0	30563	29160	148053	26958	1078925	46601	111382	0	0	8161	496119	0	0
2024-08-15 04:49:47			0	39121	0	0	0	30563	29160	148089	26757	1078889	46601	111382	0	0	8162	495612	0	0
2024-08-15 04:50:47			0	39140	0	0	0	30561	29160	148029	26899	1078916	46613	111381	0	0	8163	494924	0	0
2024-08-15 04:51:47			0	39147	0	0	0	30548	29160	147921	26883	1078862	46601	111376	0	0	8163	494671	0	0
2024-08-15 04:52:47			0	39168	0	0	0	30535	29170	147925	26703	1078907	46625	111371	0	0	8165	493882	0	0
2024-08-15 04:53:47			0	39141	0	0	0	30529	29160	147917	26961	1078754	46601	111369	0	0	8163	494888	0	0
2024-08-15 04:54:47			0	39161	0	0	0	30506	29150	147901	26870	1078735	46589	111360	0	0	8165	494193	0	0
2024-08-15 04:55:47			0	39161	0	0	0	30509	29140	147909	26866	1078726	46588	111361	0	0	8165	494222	0	0
2024-08-15 04:56:47			0	39140	0	0	0	30511	29130	147953	26788	1078762	46587	111362	0	0	8163	495010	0	0
2024-08-15 04:57:47			0	39127	0	0	0	30516	29140	147989	27197	1078780	46588	111364	0	0	8163	495452	0	0
2024-08-15 04:58:47			0	39102	0	0	0	30524	29130	148161	26956	1078789	46598	111367	0	0	8161	496387	0	0
2024-08-15 04:59:47			0	39049	0	0	0	30527	29130	148273	27138	1078708	46587	111368	0	0	8158	498311	0	0
2024-08-15 05:00:47			0	39028	0	0	0	30522	29130	148409	26981	1078645	46598	111366	0	0	8157	499074	0	0
2024-08-15 05:01:47			0	38973	0	0	0	30522	29130	148637	27093	1078645	46598	111366	0	0	8154	501077	0	0
2024-08-15 05:02:47			0	38930	0	0	0	30506	29140	148729	27104	1078690	46587	111360	0	0	8152	502617	0	0
2024-08-15 05:03:47			0	38914	0	0	0	30506	29120	148913	27256	1078636	46586	111360	0	0	8151	503260	0	0
2024-08-15 05:04:47			0	38858	0	0	0	30488	29120	149065	26852	1078492	46585	111353	0	0	8148	505310	0	0
2024-08-15 05:05:47			0	38796	0	0	0	30477	29110	149237	27111	1078474	46585	111349	0	0	8144	507614	0	0
2024-08-15 05:06:47			0	38775	0	0	0	30459	29090	149457	27150	1078312	46573	111342	0	0	8143	508445	0	0
2024-08-15 05:07:47			0	38742	0	0	0	30441	29090	149485	26804	1078366	46573	111335	0	0	8142	509660	0	0
2024-08-15 05:08:47			0	38701	0	0	0	30438	29080	149696	27133	1078267	46583	111334	0	0	8139	511201	0	0
2024-08-15 05:09:47			0	38670	0	0	0	30431	29070	149788	26772	1078221	46591	111331	0	0	8138	512376	0	0
2024-08-15 05:10:47			0	38603	0	0	0	30425	29060	149944	26982	1078257	46581	111329	0	0	8134	514885	0	0
2024-08-15 05:11:47			0	38576	0	0	0	30423	29050	150172	27107	1078212	46589	111328	0	0	8132	515917	0	0
2024-08-15 05:12:47			0	38538	0	0	0	30397	29050	150284	27076	1078104	46568	111318	0	0	8131	517328	0	0
2024-08-15 05:13:47			0	38530	0	0	0	30358	29040	150328	26899	1078005	46556	111303	0	0	8131	517655	0	0
2024-08-15 05:14:47			0	38480	0	0	0	30340	29030	150536	27060	1078005	46566	111296	0	0	8128	519547	0	0
2024-08-15 05:15:47			0	38460	0	0	0	30348	29020	150652	27204	1077987	46576	111299	0	0	8127	520323	0	0
2024-08-15 05:16:47			0	38417	0	0	0	30348	29020	150824	26904	1077960	46565	111299	0	0	8124	521929	0	0
2024-08-15 05:17:47			0	38359	0	0	0	30337	29010	150872	27112	1077915	46574	111295	0	0	8121	524130	0	0
2024-08-15 05:18:47			0	38316	0	0	0	30337	29000	151088	27031	1077896	46551	111295	0	0	8119	525773	0	0
2024-08-15 05:19:47			0	38273	0	0	0	30337	28990	151288	26925	1077806	46562	111295	0	0	8116	527420	0	0
2024-08-15 05:20:47			0	38235	0	0	0	30324	28980	151484	26772	1077698	46572	111290	0	0	8114	528882	0	0
2024-08-15 05:21:47			0	38199	0	0	0	30306	28980	151672	26816	1077725	46561	111283	0	0	8113	530239	0	0
2024-08-15 05:22:47			0	38164	0	0	0	30296	28960	151852	26920	1077671	46581	111279	0	0	8111	531623	0	0
2024-08-15 05:23:47			0	38116	0	0	0	30298	28950	152016	26932	1077635	46559	111280	0	0	8108	533471	0	0
2024-08-15 05:24:47			0	38073	0	0	0	30298	28940	152180	26887	1077527	46578	111280	0	0	8105	535133	0	0
2024-08-15 05:25:47			0	38048	0	0	0	30283	28940	152204	26762	1077635	46567	111274	0	0	8104	536083	0	0
2024-08-15 05:26:47			0	38042	0	0	0	30303	28930	152292	27036	1077626	46578	111282	0	0	8103	536342	0	0
2024-08-15 05:27:47			0	38016	0	0	0	30296	28940	152483	27052	1077635	46589	111279	0	0	8102	537300	0	0
2024-08-15 05:28:47			0	37985	0	0	0	30298	28920	152511	27145	1077662	46566	111280	0	0	8100	538544	0	0
2024-08-15 05:29:47			0	37958	0	0	0	30296	28940	152543	27022	1077608	46578	111279	0	0	8099	539511	0	0
2024-08-15 05:30:47			0	37935	0	0	0	30301	28930	152663	26672	1077734	46567	111281	0	0	8097	540421	0	0
2024-08-15 05:31:47			0	37934	0	0	0	30322	28940	152787	26982	1077725	46590	111289	0	0	8097	540428	0	0
2024-08-15 05:32:47			0	37896	0	0	0	30324	28940	152875	27026	1077698	46590	111290	0	0	8095	541881	0	0
2024-08-15 05:33:47			0	37877	0	0	0	30322	28930	152935	27024	1077680	46589	111289	0	0	8094	542640	0	0
2024-08-15 05:34:47			0	37854	0	0	0	30319	28940	153047	26545	1077644	46568	111288	0	0	8092	543490	0	0
2024-08-15 05:35:47			0	37847	0	0	0	30316	28930	153127	26942	1077707	46578	111287	0	0	8092	543789	0	0
2024-08-15 05:36:47			0	37833	0	0	0	30327	28930	153063	27111	1077734	46589	111291	0	0	8091	544327	0	0
2024-08-15 05:37:47			0	37805	0	0	0	30324	28930	153179	26979	1077707	46578	111290	0	0	8089	545402	0	0
2024-08-15 05:38:47			0	37809	0	0	0	30329	28930	153227	27189	1077734	46578	111292	0	0	8090	545248	0	0
2024-08-15 05:39:47			0	37816	0	0	0	30335	28930	153335	26734	1077680	46589	111294	0	0	8090	544979	0	0
2024-08-15 05:40:47			0	37793	0	0	0	30329	28930	153383	26840	1077680	46589	111292	0	0	8089	545863	0	0
2024-08-15 05:41:47			0	37767	0	0	0	30324	28930	153391	26885	1077626	46578	111290	0	0	8087	546864	0	0
2024-08-15 05:42:47			0	37751	0	0	0	30327	28930	153487	26816	1077707	46578	111291	0	0	8086	547480	0	0
2024-08-15 05:43:47			0	37753	0	0	0	30335	28930	153523	26793	1077698	46589	111294	0	0	8086	547403	0	0
2024-08-15 05:44:47			0	37717	0	0	0	30329	28920	153615	27046	1077635	46588	111292	0	0	8084	548823	0	0
2024-08-15 05:45:47			0	37717	0	0	0	30327	28930	153639	26727	1077653	46589	111291	0	0	8084	548791	0	0
2024-08-15 05:46:47			0	37702	0	0	0	30324	28930	153703	26778	1077617	46578	111290	0	0	8083	549370	0	0
2024-08-15 05:47:47			0	37698	0	0	0	30324	28930	153835	27149	1077671	46567	111290	0	0	8083	549524	0	0
2024-08-15 05:48:47			0	37680	0	0	0	30311	28920	153831	26955	1077608	46577	111285	0	0	8082	550251	0	0
2024-08-15 05:49:47			0	37658	0	0	0	30311	28930	153895	27206	1077617	46578	111285	0	0	8081	551070	0	0
2024-08-15 05:50:47			0	37641	0	0	0	30309	28910	153959	26967	1077554	46576	111284	0	0	8080	551792	0	0
2024-08-15 05:51:47			0	37652	0	0	0	30306	28910	153979	26953	1077563	46576	111283	0	0	8081	551366	0	0
2024-08-15 05:52:47			0	37639	0	0	0	30301	28920	154067	27039	1077572	46565	111281	0	0	8080	551837	0	0
2024-08-15 05:53:47			0	37627	0	0	0	30306	28920	154055	26897	1077626	46576	111283	0	0	8079	552302	0	0
2024-08-15 05:54:47			0	37610	0	0	0	30316	28920	154095	27326	1077599	46576	111287	0	0	8078	552961	0	0
2024-08-15 05:55:47			0	37623	0	0	0	30303	28910	154039	26774	1077563	46576	111282	0	0	8079	552489	0	0
2024-08-15 05:56:47			0	37615	0	0	0	30311	28920	154139	27130	1077527	46577	111285	0	0	8079	552767	0	0
2024-08-15 05:57:47			0	37622	0	0	0	30314	28920	154031	27279	1077599	46587	111286	0	0	8079	552496	0	0
2024-08-15 05:58:47			0	37615	0	0	0	30303	28920	154047	27031	1077545	46576	111282	0	0	8079	552767	0	0
2024-08-15 05:59:47			0	37601	0	0	0	30309	28910	154019	27159	1077563	46587	111284	0	0	8078	553342	0	0
2024-08-15 06:00:47			0	37617	0	0	0	30314	28910	153999	26916	1077536	46565	111286	0	0	8079	552722	0	0
2024-08-15 06:01:47			0	37622	0	0	0	30303	28910	153995	27090	1077608	46576	111282	0	0	8079	552528	0	0
2024-08-15 06:02:47			0	37611	0	0	0	30306	28910	153995	27041	1077617	46587	111283	0	0	8078	552954	0	0
2024-08-15 06:03:47			0	37635	0	0	0	30306	28910	153995	26783	1077563	46576	111283	0	0	8080	552024	0	0
2024-08-15 06:04:47			0	37645	0	0	0	30309	28910	153939	26859	1077581	46576	111284	0	0	8080	551637	0	0
2024-08-15 06:05:47			0	37635	0	0	0	30301	28900	153947	27102	1077545	46564	111281	0	0	8080	552056	0	0
2024-08-15 06:06:47			0	37639	0	0	0	30293	28910	153939	27085	1077554	46576	111278	0	0	8080	551869	0	0
2024-08-15 06:07:47			0	37647	0	0	0	30303	28910	153907	27069	1077527	46576	111282	0	0	8081	551560	0	0
2024-08-15 06:08:47			0	37657	0	0	0	30290	28910	153843	27017	1077527	46587	111277	0	0	8081	551173	0	0
2024-08-15 06:09:47			0	37659	0	0	0	30296	28910	153871	26922	1077527	46576	111279	0	0	8081	551095	0	0
2024-08-15 06:10:47			0	37674	0	0	0	30303	28900	153823	27277	1077536	46596	111282	0	0	8082	550547	0	0
2024-08-15 06:11:47			0	37672	0	0	0	30293	28910	153783	26755	1077527	46576	111278	0	0	8082	550593	0	0
2024-08-15 06:12:47			0	37688	0	0	0	30298	28900	153807	26653	1077599	46586	111280	0	0	8083	550006	0	0
2024-08-15 06:13:47			0	37726	0	0	0	30285	28910	153619	26736	1077527	46554	111275	0	0	8085	548507	0	0
2024-08-15 06:14:47			0	37737	0	0	0	30298	28900	153571	27085	1077536	46563	111280	0	0	8086	548115	0	0
2024-08-15 06:15:47			0	37786	0	0	0	30296	28900	153371	26724	1077545	46564	111279	0	0	8089	546228	0	0
2024-08-15 06:16:47			0	37833	0	0	0	30290	28900	153171	26925	1077509	46585	111277	0	0	8091	544421	0	0
2024-08-15 06:17:47			0	37873	0	0	0	30296	28910	152939	26965	1077554	46576	111279	0	0	8094	542856	0	0
2024-08-15 06:18:47			0	37884	0	0	0	30285	28900	152867	26953	1077536	46596	111275	0	0	8094	542466	0	0
2024-08-15 06:19:47			0	37885	0	0	0	30285	28890	152887	26762	1077436	46574	111275	0	0	8094	542459	0	0
2024-08-15 06:20:47			0	37834	0	0	0	30280	28900	153035	26942	1077482	46585	111273	0	0	8092	544383	0	0
2024-08-15 06:21:47			0	37777	0	0	0	30285	28890	153263	26845	1077445	46574	111275	0	0	8088	546606	0	0
2024-08-15 06:22:47			0	37748	0	0	0	30277	28900	153579	26854	1077545	46575	111272	0	0	8087	547691	0	0
2024-08-15 06:23:47			0	37688	0	0	0	30277	28890	153803	27020	1077472	46574	111272	0	0	8083	550038	0	0
2024-08-15 06:24:47			0	37647	0	0	0	30277	28880	153919	26987	1077508	46562	111272	0	0	8081	551656	0	0
2024-08-15 06:25:47			0	37592	0	0	0	30277	28890	154163	26831	1077436	46585	111272	0	0	8078	553756	0	0
2024-08-15 06:26:47			0	37563	0	0	0	30277	28880	154207	26719	1077454	46584	111272	0	0	8076	554914	0	0
2024-08-15 06:27:47			0	37544	0	0	0	30280	28880	154339	26847	1077400	46584	111273	0	0	8075	555653	0	0
2024-08-15 06:28:47			0	37534	0	0	0	30285	28880	154387	26958	1077373	46584	111275	0	0	8074	556042	0	0
2024-08-15 06:29:47			0	37508	0	0	0	30275	28890	154495	26913	1077463	46585	111271	0	0	8073	557022	0	0
2024-08-15 06:30:47			0	37502	0	0	0	30272	28890	154547	27124	1077355	46574	111270	0	0	8073	557256	0	0
2024-08-15 06:31:47			0	37490	0	0	0	30264	28890	154463	26856	1077463	46574	111267	0	0	8072	557723	0	0
2024-08-15 06:32:47			0	37515	0	0	0	30264	28880	154531	27081	1077454	46573	111267	0	0	8073	556782	0	0
2024-08-15 06:33:47			0	37529	0	0	0	30262	28880	154539	27020	1077337	46561	111266	0	0	8074	556236	0	0
2024-08-15 06:34:47			0	37525	0	0	0	30254	28870	154535	26868	1077355	46583	111263	0	0	8074	556424	0	0
2024-08-15 06:35:47			0	37525	0	0	0	30259	28870	154555	27052	1077355	46561	111265	0	0	8074	556424	0	0
2024-08-15 06:36:47			0	37488	0	0	0	30264	28870	154607	26864	1077346	46571	111267	0	0	8072	557866	0	0
2024-08-15 06:37:47			0	37452	0	0	0	30259	28880	154747	27013	1077256	46583	111265	0	0	8070	559239	0	0
2024-08-15 06:38:47			0	37402	0	0	0	30249	28860	154979	27001	1077175	46571	111261	0	0	8067	561259	0	0
2024-08-15 06:39:47			0	37356	0	0	0	30251	28870	155175	26627	1077346	46571	111262	0	0	8064	563030	0	0
2024-08-15 06:40:47			0	37316	0	0	0	30246	28860	155251	26934	1077256	46571	111260	0	0	8062	564633	0	0
2024-08-15 06:41:47			0	37282	0	0	0	30254	28850	155326	26890	1077265	46569	111263	0	0	8060	566003	0	0
2024-08-15 06:42:47			0	37283	0	0	0	30244	28870	155478	26793	1077292	46583	111259	0	0	8060	565898	0	0
2024-08-15 06:43:47			0	37260	0	0	0	30251	28860	155546	27067	1077301	46592	111262	0	0	8059	566837	0	0
2024-08-15 06:44:47			0	37236	0	0	0	30251	28870	155674	27069	1077292	46571	111262	0	0	8057	567751	0	0
2024-08-15 06:45:47			0	37255	0	0	0	30251	28860	155634	26889	1077247	46570	111262	0	0	8059	567034	0	0
2024-08-15 06:46:47			0	37239	0	0	0	30241	28860	155582	27074	1077220	46559	111258	0	0	8058	567665	0	0
2024-08-15 06:47:47			0	37254	0	0	0	30249	28850	155574	26798	1077211	46569	111261	0	0	8058	567106	0	0
2024-08-15 06:48:47			0	37269	0	0	0	30241	28860	155574	26979	1077229	46571	111258	0	0	8059	566483	0	0
2024-08-15 06:49:47			0	37289	0	0	0	30244	28850	155510	26894	1077256	46569	111259	0	0	8061	565728	0	0
2024-08-15 06:50:47			0	37294	0	0	0	30231	28850	155478	27013	1077184	46569	111254	0	0	8061	565531	0	0
2024-08-15 06:51:47			0	37322	0	0	0	30238	28850	155411	26932	1077229	46569	111257	0	0	8063	564430	0	0
2024-08-15 06:52:47			0	37342	0	0	0	30238	28840	155275	26817	1077193	46569	111257	0	0	8064	563677	0	0
2024-08-15 06:53:47			0	37348	0	0	0	30238	28850	155279	26812	1077229	46581	111257	0	0	8064	563409	0	0
2024-08-15 06:54:47			0	37389	0	0	0	30236	28840	155171	27277	1077166	46569	111256	0	0	8066	561833	0	0
2024-08-15 06:55:47			0	37401	0	0	0	30228	28850	155023	27039	1077229	46569	111253	0	0	8067	561331	0	0
2024-08-15 06:56:47			0	37423	0	0	0	30228	28850	155015	26797	1077121	46569	111253	0	0	8069	560470	0	0
2024-08-15 06:57:47			0	37415	0	0	0	30231	28840	154967	26967	1077220	46581	111254	0	0	8068	560815	0	0
2024-08-15 06:58:47			0	37444	0	0	0	30231	28840	154891	26885	1077166	46581	111254	0	0	8070	559681	0	0
2024-08-15 06:59:47			0	37472	0	0	0	30223	28850	154811	27085	1077148	46591	111251	0	0	8072	558555	0	0
2024-08-15 07:00:47			0	37469	0	0	0	30218	28840	154867	27312	1077139	46581	111249	0	0	8071	558705	0	0
2024-08-15 07:01:47			0	37487	0	0	0	30212	28840	154739	27039	1077103	46557	111247	0	0	8073	558002	0	0
2024-08-15 07:02:47			0	37515	0	0	0	30210	28830	154599	26883	1077058	46579	111246	0	0	8074	556943	0	0
2024-08-15 07:03:47			0	37530	0	0	0	30205	28840	154611	27041	1077103	46568	111244	0	0	8075	556327	0	0
2024-08-15 07:04:47			0	37517	0	0	0	30212	28830	154575	26790	1077004	46567	111247	0	0	8074	556865	0	0
2024-08-15 07:05:47			0	37535	0	0	0	30207	28820	154535	27029	1077066	46578	111245	0	0	8075	556196	0	0
2024-08-15 07:06:47			0	37534	0	0	0	30202	28820	154527	26804	1077049	46579	111243	0	0	8075	556235	0	0
2024-08-15 07:07:47			0	37559	0	0	0	30194	28830	154475	26705	1076977	46567	111240	0	0	8077	555230	0	0
2024-08-15 07:08:47			0	37552	0	0	0	30205	28830	154547	27145	1077058	46556	111244	0	0	8076	555503	0	0
2024-08-15 07:09:47			0	37561	0	0	0	30207	28820	154515	26981	1077049	46567	111245	0	0	8077	555185	0	0
2024-08-15 07:10:47			0	37570	0	0	0	30197	28820	154487	27012	1077039	46578	111241	0	0	8077	554835	0	0
2024-08-15 07:11:47			0	37577	0	0	0	30199	28810	154363	27114	1077084	46577	111242	0	0	8078	554595	0	0
2024-08-15 07:12:47			0	37581	0	0	0	30199	28810	154415	27171	1077030	46577	111242	0	0	8078	554440	0	0
2024-08-15 07:13:47			0	37588	0	0	0	30205	28810	154339	27282	1077030	46577	111244	0	0	8078	554168	0	0
2024-08-15 07:14:47			0	37596	0	0	0	30205	28820	154299	27048	1077093	46566	111244	0	0	8079	553825	0	0
2024-08-15 07:15:47			0	37583	0	0	0	30194	28820	154251	27156	1077013	46566	111240	0	0	8078	554330	0	0
2024-08-15 07:16:47			0	37610	0	0	0	30197	28810	154347	27223	1076994	46565	111241	0	0	8080	553314	0	0
2024-08-15 07:17:47			0	37603	0	0	0	30197	28810	154187	27254	1077057	46565	111241	0	0	8079	553585	0	0
2024-08-15 07:18:47			0	37619	0	0	0	30199	28800	154203	27367	1076985	46564	111242	0	0	8080	552997	0	0
2024-08-15 07:19:47			0	37604	0	0	0	30207	28820	154215	27059	1076986	46566	111245	0	0	8079	553515	0	0
2024-08-15 07:20:47			0	37634	0	0	0	30194	28810	154115	27263	1077021	46554	111240	0	0	8081	552383	0	0
2024-08-15 07:21:47			0	37623	0	0	0	30194	28810	154119	27275	1077003	46565	111240	0	0	8081	552810	0	0
2024-08-15 07:22:47			0	37623	0	0	0	30197	28810	154071	27010	1077057	46577	111241	0	0	8081	552810	0	0
2024-08-15 07:23:47			0	37647	0	0	0	30192	28800	154035	27346	1076985	46576	111239	0	0	8082	551912	0	0
2024-08-15 07:24:47			0	37632	0	0	0	30192	28810	154119	27298	1076994	46577	111239	0	0	8081	552461	0	0
2024-08-15 07:25:47			0	37629	0	0	0	30186	28800	154027	26906	1076931	46564	111237	0	0	8081	552609	0	0
2024-08-15 07:26:47			0	37637	0	0	0	30189	28810	153939	27007	1076994	46587	111238	0	0	8081	552267	0	0
2024-08-15 07:27:47			0	37658	0	0	0	30189	28800	154059	27149	1076985	46576	111238	0	0	8083	551486	0	0
2024-08-15 07:28:47			0	37643	0	0	0	30197	28800	154023	27339	1076958	46576	111241	0	0	8082	552066	0	0
2024-08-15 07:29:47			0	37647	0	0	0	30189	28810	154011	27093	1076994	46577	111238	0	0	8082	551880	0	0
2024-08-15 07:30:47			0	37657	0	0	0	30189	28810	154107	27043	1076967	46577	111238	0	0	8083	551492	0	0
2024-08-15 07:31:47			0	37650	0	0	0	30197	28810	154127	27383	1077021	46554	111241	0	0	8082	551763	0	0
2024-08-15 07:32:47			0	37653	0	0	0	30194	28800	154063	27521	1076985	46576	111240	0	0	8082	551679	0	0
2024-08-15 07:33:47			0	37656	0	0	0	30189	28800	154075	27466	1077012	46564	111238	0	0	8082	551563	0	0
2024-08-15 07:34:47			0	37658	0	0	0	30181	28810	154103	27441	1076967	46565	111235	0	0	8083	551454	0	0
2024-08-15 07:35:47			0	37657	0	0	0	30192	28790	154031	27147	1076967	46575	111239	0	0	8082	551556	0	0
2024-08-15 07:36:47			0	37665	0	0	0	30199	28800	154103	26833	1077012	46576	111242	0	0	8083	551215	0	0
2024-08-15 07:37:47			0	37668	0	0	0	30192	28800	154023	27147	1076976	46576	111239	0	0	8083	551098	0	0
2024-08-15 07:38:47			0	37669	0	0	0	30194	28800	154039	27265	1077003	46564	111240	0	0	8083	551060	0	0
2024-08-15 07:39:47			0	37663	0	0	0	30181	28800	153979	27055	1076985	46553	111235	0	0	8083	551292	0	0
2024-08-15 07:40:47			0	37679	0	0	0	30192	28800	154047	27138	1076976	46553	111239	0	0	8084	550673	0	0
2024-08-15 07:41:47			0	37665	0	0	0	30184	28800	154175	26974	1077003	46576	111236	0	0	8083	551215	0	0
2024-08-15 07:42:47			0	37677	0	0	0	30194	28800	153927	27331	1077012	46576	111240	0	0	8084	550750	0	0
2024-08-15 07:43:47			0	37692	0	0	0	30189	28800	153939	26868	1076931	46576	111238	0	0	8085	550170	0	0
2024-08-15 07:44:47			0	37701	0	0	0	30189	28800	153919	26904	1077030	46576	111238	0	0	8085	549822	0	0
2024-08-15 07:45:47			0	37690	0	0	0	30179	28810	153955	27121	1076994	46565	111234	0	0	8085	550216	0	0
2024-08-15 07:46:47			0	37689	0	0	0	30184	28790	153903	27211	1076904	46563	111236	0	0	8084	550318	0	0
2024-08-15 07:47:47			0	37686	0	0	0	30192	28800	153995	26764	1076931	46576	111239	0	0	8084	550402	0	0
2024-08-15 07:48:47			0	37709	0	0	0	30194	28800	153955	27131	1076949	46576	111240	0	0	8085	549513	0	0
2024-08-15 07:49:47			0	37691	0	0	0	30197	28800	153879	27364	1076958	46576	111241	0	0	8084	550209	0	0
2024-08-15 07:50:47			0	37691	0	0	0	30202	28800	153911	27234	1076985	46564	111243	0	0	8084	550209	0	0
2024-08-15 07:51:47			0	37700	0	0	0	30207	28800	153795	27031	1076976	46576	111245	0	0	8085	549861	0	0
2024-08-15 07:52:47			0	37725	0	0	0	30197	28810	153847	27095	1077048	46577	111241	0	0	8086	548864	0	0
2024-08-15 07:53:47			0	37722	0	0	0	30212	28810	153827	27000	1077057	46565	111247	0	0	8086	548979	0	0
2024-08-15 07:54:47			0	37717	0	0	0	30207	28800	153767	27204	1076985	46564	111245	0	0	8086	549204	0	0
2024-08-15 07:55:47			0	37732	0	0	0	30205	28810	153739	26871	1077003	46565	111244	0	0	8087	548594	0	0
2024-08-15 07:56:47			0	37758	0	0	0	30212	28810	153679	26946	1077021	46587	111247	0	0	8088	547591	0	0
2024-08-15 07:57:47			0	37747	0	0	0	30202	28810	153619	26948	1077030	46587	111243	0	0	8088	548015	0	0
2024-08-15 07:58:47			0	37765	0	0	0	30207	28810	153651	26674	1077021	46577	111245	0	0	8089	547321	0	0
2024-08-15 07:59:47			0	37771	0	0	0	30202	28810	153599	26772	1077003	46577	111243	0	0	8089	547090	0	0
2024-08-15 08:00:47			0	37779	0	0	0	30210	28810	153507	27126	1077084	46577	111246	0	0	8089	546782	0	0
2024-08-15 08:01:47			0	37799	0	0	0	30205	28820	153579	27326	1077039	46566	111244	0	0	8091	545981	0	0
2024-08-15 08:02:47			0	37788	0	0	0	30205	28810	153403	27301	1077057	46577	111244	0	0	8090	546436	0	0
2024-08-15 08:03:47			0	37818	0	0	0	30207	28810	153367	27171	1077048	46577	111245	0	0	8092	545282	0	0
2024-08-15 08:04:47			0	37832	0	0	0	30199	28810	153407	27230	1077021	46554	111242	0	0	8093	544744	0	0
2024-08-15 08:05:47			0	37854	0	0	0	30212	28820	153255	27109	1077066	46578	111247	0	0	8094	543868	0	0
2024-08-15 08:06:47			0	37865	0	0	0	30218	28820	153235	26889	1077049	46579	111249	0	0	8094	543446	0	0
2024-08-15 08:07:47			0	37884	0	0	0	30210	28820	153235	27166	1076995	46579	111246	0	0	8095	542717	0	0
2024-08-15 08:08:47			0	37903	0	0	0	30218	28820	153139	27248	1077120	46578	111249	0	0	8096	541990	0	0
2024-08-15 08:09:47			0	37933	0	0	0	30215	28820	152935	26991	1077075	46579	111248	0	0	8098	540842	0	0
2024-08-15 08:10:47			0	37932	0	0	0	30212	28820	152927	27116	1077066	46578	111247	0	0	8098	540880	0	0
2024-08-15 08:11:47			0	37962	0	0	0	30215	28820	152907	26873	1077156	46567	111248	0	0	8100	539734	0	0
2024-08-15 08:12:47			0	37981	0	0	0	30218	28820	152803	27005	1077093	46578	111249	0	0	8101	539009	0	0
2024-08-15 08:13:47			0	38002	0	0	0	30215	28810	152699	27159	1077084	46587	111248	0	0	8102	538239	0	0
2024-08-15 08:14:47			0	37991	0	0	0	30218	28830	152599	26963	1077138	46579	111249	0	0	8101	538596	0	0
2024-08-15 08:15:47			0	38023	0	0	0	30228	28830	152547	27185	1077112	46589	111253	0	0	8103	537377	0	0
2024-08-15 08:16:47			0	38043	0	0	0	30225	28830	152492	27081	1077138	46567	111252	0	0	8104	536615	0	0
2024-08-15 08:17:47			0	38077	0	0	0	30223	28820	152520	26939	1077183	46567	111251	0	0	8106	535354	0	0
2024-08-15 08:18:47			0	38064	0	0	0	30223	28830	152464	27196	1077112	46579	111251	0	0	8106	535817	0	0
2024-08-15 08:19:47			0	38069	0	0	0	30215	28820	152428	26876	1077102	46567	111248	0	0	8106	535658	0	0
2024-08-15 08:20:47			0	38083	0	0	0	30215	28820	152340	27000	1077093	46578	111248	0	0	8107	535126	0	0
2024-08-15 08:21:47			0	38091	0	0	0	30223	28830	152292	27104	1077148	46579	111251	0	0	8107	534791	0	0
2024-08-15 08:22:47			0	38107	0	0	0	30220	28840	152328	26915	1077130	46568	111250	0	0	8108	534153	0	0
2024-08-15 08:23:47			0	38117	0	0	0	30233	28830	152244	27249	1077138	46567	111255	0	0	8108	533805	0	0
2024-08-15 08:24:47			0	38100	0	0	0	30220	28840	152136	26934	1077184	46580	111250	0	0	8108	534419	0	0
2024-08-15 08:25:47			0	38131	0	0	0	30223	28830	152208	27107	1077148	46567	111251	0	0	8109	533274	0	0
2024-08-15 08:26:47			0	38128	0	0	0	30223	28830	151996	26852	1077112	46579	111251	0	0	8109	533388	0	0
2024-08-15 08:27:47			0	38138	0	0	0	30223	28830	152072	27242	1077112	46556	111251	0	0	8110	533009	0	0
2024-08-15 08:28:47			0	38144	0	0	0	30233	28830	152088	27000	1077165	46567	111255	0	0	8110	532781	0	0
2024-08-15 08:29:47			0	38156	0	0	0	30228	28830	152036	27192	1077175	46567	111253	0	0	8111	532327	0	0
2024-08-15 08:30:47			0	38152	0	0	0	30231	28830	152036	27223	1077175	46579	111254	0	0	8110	532479	0	0
2024-08-15 08:31:47			0	38166	0	0	0	30225	28830	152068	27329	1077148	46567	111252	0	0	8111	531949	0	0
2024-08-15 08:32:47			0	38177	0	0	0	30228	28830	151968	26922	1077219	46567	111253	0	0	8112	531533	0	0
2024-08-15 08:33:47			0	38167	0	0	0	30225	28830	151996	27114	1077148	46589	111252	0	0	8111	531911	0	0
2024-08-15 08:34:47			0	38181	0	0	0	30233	28840	151820	26915	1077184	46568	111255	0	0	8112	531351	0	0
2024-08-15 08:35:47			0	38149	0	0	0	30233	28830	151976	27033	1077138	46567	111255	0	0	8110	532592	0	0
2024-08-15 08:36:47			0	38169	0	0	0	30228	28830	151988	27105	1077165	46567	111253	0	0	8111	531835	0	0
2024-08-15 08:37:47			0	38159	0	0	0	30231	28840	152096	27164	1077157	46580	111254	0	0	8111	532183	0	0
2024-08-15 08:38:47			0	38165	0	0	0	30233	28830	151988	27050	1077228	46579	111255	0	0	8111	531987	0	0
2024-08-15 08:39:47			0	38161	0	0	0	30231	28830	151952	26986	1077121	46589	111254	0	0	8111	532138	0	0
2024-08-15 08:40:47			0	38161	0	0	0	30233	28840	152012	26994	1077238	46580	111255	0	0	8111	532107	0	0
2024-08-15 08:41:47			0	38156	0	0	0	30233	28830	152052	26731	1077228	46579	111255	0	0	8111	532327	0	0
2024-08-15 08:42:47			0	38168	0	0	0	30231	28830	151992	27066	1077175	46589	111254	0	0	8111	531873	0	0
2024-08-15 08:43:47			0	38154	0	0	0	30241	28830	151944	27057	1077201	46567	111258	0	0	8110	532403	0	0
2024-08-15 08:44:47			0	38148	0	0	0	30238	28840	152036	27086	1077220	46581	111257	0	0	8110	532599	0	0
2024-08-15 08:45:47			0	38160	0	0	0	30244	28840	151964	27088	1077264	46590	111259	0	0	8111	532145	0	0
2024-08-15 08:46:47			0	38158	0	0	0	30244	28840	152028	26771	1077211	46580	111259	0	0	8111	532221	0	0
2024-08-15 08:47:47			0	38161	0	0	0	30238	28840	151952	27528	1077264	46580	111257	0	0	8111	532107	0	0
2024-08-15 08:48:47			0	38157	0	0	0	30249	28840	152080	27102	1077211	46580	111261	0	0	8110	532258	0	0
2024-08-15 08:49:47			0	38154	0	0	0	30249	28840	152020	27284	1077211	46580	111261	0	0	8110	532372	0	0
2024-08-15 08:50:47			0	38148	0	0	0	30244	28840	152048	27118	1077238	46580	111259	0	0	8110	532599	0	0
2024-08-15 08:51:47			0	38167	0	0	0	30251	28840	151976	27343	1077301	46569	111262	0	0	8111	531880	0	0
2024-08-15 08:52:47			0	38147	0	0	0	30238	28850	152144	26890	1077283	46581	111257	0	0	8110	532606	0	0
2024-08-15 08:53:47			0	38146	0	0	0	30246	28850	152084	27045	1077336	46569	111260	0	0	8110	532644	0	0
2024-08-15 08:54:47			0	38156	0	0	0	30254	28850	152080	27235	1077310	46569	111263	0	0	8110	532266	0	0
2024-08-15 08:55:47			0	38162	0	0	0	30246	28850	152016	26946	1077310	46581	111260	0	0	8111	532038	0	0
2024-08-15 08:56:47			0	38158	0	0	0	30249	28850	152036	26739	1077336	46581	111261	0	0	8111	532190	0	0
2024-08-15 08:57:47			0	38161	0	0	0	30244	28840	152008	27187	1077211	46568	111259	0	0	8111	532107	0	0
2024-08-15 08:58:47			0	38164	0	0	0	30246	28840	152128	27281	1077301	46581	111260	0	0	8111	531993	0	0
2024-08-15 08:59:47			0	38167	0	0	0	30251	28840	152072	27072	1077247	46581	111262	0	0	8111	531880	0	0
2024-08-15 09:00:47			0	38152	0	0	0	30246	28850	152136	27104	1077265	46569	111260	0	0	8110	532417	0	0
2024-08-15 09:01:47			0	38148	0	0	0	30244	28850	152068	27124	1077310	46569	111259	0	0	8110	532568	0	0
2024-08-15 09:02:47			0	38153	0	0	0	30241	28850	152172	26890	1077256	46581	111258	0	0	8110	532379	0	0
2024-08-15 09:03:47			0	38151	0	0	0	30241	28850	152228	27133	1077319	46569	111258	0	0	8110	532455	0	0
2024-08-15 09:04:47			0	38134	0	0	0	30249	28840	152180	26994	1077220	46581	111261	0	0	8109	533129	0	0
2024-08-15 09:05:47			0	38118	0	0	0	30236	28840	152284	27031	1077247	46581	111256	0	0	8108	533736	0	0
2024-08-15 09:06:47			0	38124	0	0	0	30249	28840	152224	27234	1077301	46581	111261	0	0	8109	533508	0	0
2024-08-15 09:07:47			0	38126	0	0	0	30251	28850	152224	27183	1077283	46569	111262	0	0	8109	533402	0	0
2024-08-15 09:08:47			0	38135	0	0	0	30254	28850	152060	27220	1077265	46581	111263	0	0	8109	533061	0	0
2024-08-15 09:09:47			0	38153	0	0	0	30249	28860	152124	27251	1077355	46582	111261	0	0	8110	532348	0	0
2024-08-15 09:10:47			0	38156	0	0	0	30251	28850	151928	26987	1077390	46591	111262	0	0	8110	532266	0	0
2024-08-15 09:11:47			0	38165	0	0	0	30262	28850	151924	27422	1077400	46591	111266	0	0	8111	531925	0	0
2024-08-15 09:12:47			0	38169	0	0	0	30267	28850	151860	27256	1077373	46581	111268	0	0	8111	531774	0	0
2024-08-15 09:13:47			0	38180	0	0	0	30267	28860	151828	27170	1077328	46582	111268	0	0	8112	531327	0	0
2024-08-15 09:14:47			0	38201	0	0	0	30262	28860	151860	27046	1077328	46582	111266	0	0	8113	530533	0	0
2024-08-15 09:15:47			0	38192	0	0	0	30254	28870	151756	27222	1077346	46571	111263	0	0	8113	530842	0	0
2024-08-15 09:16:47			0	38220	0	0	0	30246	28850	151788	26850	1077292	46581	111260	0	0	8114	529846	0	0
2024-08-15 09:17:47			0	38212	0	0	0	30244	28860	151840	27060	1077328	46592	111259	0	0	8114	530118	0	0
2024-08-15 09:18:47			0	38223	0	0	0	30246	28850	151856	26944	1077310	46569	111260	0	0	8114	529733	0	0
2024-08-15 09:19:47			0	38195	0	0	0	30244	28860	151856	27145	1077301	46570	111259	0	0	8113	530760	0	0
2024-08-15 09:20:47			0	38207	0	0	0	30254	28850	151892	27093	1077426	46558	111263	0	0	8113	530337	0	0
2024-08-15 09:21:47			0	38194	0	0	0	30251	28850	151820	27277	1077390	46591	111262	0	0	8113	530828	0	0
2024-08-15 09:22:47			0	38214	0	0	0	30259	28860	151800	26814	1077382	46582	111265	0	0	8114	530042	0	0
2024-08-15 09:23:47			0	38208	0	0	0	30257	28860	151760	26922	1077418	46583	111264	0	0	8113	530269	0	0
2024-08-15 09:24:47			0	38214	0	0	0	30262	28860	151740	27029	1077391	46583	111266	0	0	8114	530042	0	0
2024-08-15 09:25:47			0	38219	0	0	0	30257	28870	151704	26842	1077400	46583	111264	0	0	8114	529823	0	0
2024-08-15 09:26:47			0	38247	0	0	0	30270	28860	151744	26790	1077337	46571	111269	0	0	8115	528797	0	0
2024-08-15 09:27:47			0	38221	0	0	0	30272	28870	151700	26838	1077454	46583	111270	0	0	8114	529747	0	0
2024-08-15 09:28:47			0	38244	0	0	0	30264	28870	151696	26887	1077436	46572	111267	0	0	8115	528880	0	0
2024-08-15 09:29:47			0	38246	0	0	0	30264	28880	151652	26909	1077445	46583	111267	0	0	8115	528774	0	0
2024-08-15 09:30:47			0	38234	0	0	0	30241	28860	151644	27249	1077337	46560	111258	0	0	8115	529287	0	0
2024-08-15 09:31:47			0	38231	0	0	0	30228	28860	151672	27275	1077337	46560	111253	0	0	8115	529401	0	0
2024-08-15 09:32:47			0	38222	0	0	0	30236	28860	151740	27334	1077382	46582	111256	0	0	8115	529740	0	0
2024-08-15 09:33:47			0	38202	0	0	0	30246	28870	151596	26994	1077373	46593	111260	0	0	8113	530465	0	0
2024-08-15 09:34:47			0	38200	0	0	0	30249	28860	151868	27178	1077409	46559	111261	0	0	8113	530571	0	0
2024-08-15 09:35:47			0	38199	0	0	0	30254	28870	151756	27029	1077346	46593	111263	0	0	8113	530578	0	0
2024-08-15 09:36:47			0	38178	0	0	0	30244	28860	151852	27180	1077328	46570	111259	0	0	8112	531402	0	0
2024-08-15 09:37:47			0	38180	0	0	0	30254	28870	151956	27168	1077427	46583	111263	0	0	8112	531296	0	0
2024-08-15 09:38:47			0	38160	0	0	0	30262	28860	151932	27296	1077337	46583	111266	0	0	8111	532083	0	0
2024-08-15 09:39:47			0	38176	0	0	0	30257	28860	152068	27031	1077391	46593	111264	0	0	8112	531478	0	0
2024-08-15 09:40:47			0	38150	0	0	0	30238	28860	152024	27057	1077301	46559	111257	0	0	8110	532462	0	0
2024-08-15 09:41:47			0	38114	0	0	0	30246	28860	152172	27097	1077382	46570	111260	0	0	8108	533826	0	0
2024-08-15 09:42:47			0	38107	0	0	0	30244	28850	152196	27105	1077292	46569	111259	0	0	8108	534122	0	0
2024-08-15 09:43:47			0	38101	0	0	0	30246	28850	152200	27071	1077310	46558	111260	0	0	8107	534350	0	0
2024-08-15 09:44:47			0	38090	0	0	0	30241	28850	152252	26885	1077292	46591	111258	0	0	8107	534767	0	0
2024-08-15 09:45:47			0	38070	0	0	0	30257	28850	152344	26998	1077319	46569	111264	0	0	8105	535527	0	0
2024-08-15 09:46:47			0	38061	0	0	0	30254	28860	152348	27001	1077418	46583	111263	0	0	8105	535838	0	0
2024-08-15 09:47:47			0	38028	0	0	0	30267	28860	152480	27112	1077382	46570	111268	0	0	8103	537093	0	0
2024-08-15 09:48:47			0	38017	0	0	0	30264	28860	152511	27237	1077409	46582	111267	0	0	8102	537512	0	0
2024-08-15 09:49:47			0	38004	0	0	0	30283	28870	152511	27079	1077508	46583	111274	0	0	8101	537976	0	0
2024-08-15 09:50:47			0	38003	0	0	0	30283	28870	152543	27039	1077490	46594	111274	0	0	8101	538014	0	0
2024-08-15 09:51:47			0	37975	0	0	0	30277	28880	152619	26727	1077499	46583	111272	0	0	8100	539050	0	0
2024-08-15 09:52:47			0	37971	0	0	0	30277	28880	152663	26913	1077508	46573	111272	0	0	8100	539203	0	0
2024-08-15 09:53:47			0	37956	0	0	0	30277	28880	152683	27107	1077472	46572	111272	0	0	8099	539775	0	0
2024-08-15 09:54:47			0	37958	0	0	0	30272	28890	152779	26925	1077463	46596	111270	0	0	8099	539668	0	0
2024-08-15 09:55:47			0	37941	0	0	0	30275	28880	152763	26942	1077499	46572	111271	0	0	8098	540348	0	0
2024-08-15 09:56:47			0	37930	0	0	0	30285	28880	152783	27345	1077526	46583	111275	0	0	8097	540769	0	0
2024-08-15 09:57:47			0	37927	0	0	0	30303	28890	152867	27020	1077571	46585	111282	0	0	8097	540852	0	0
2024-08-15 09:58:47			0	37906	0	0	0	30298	28880	152883	27161	1077616	46595	111280	0	0	8095	541687	0	0
2024-08-15 09:59:47			0	37899	0	0	0	30311	28890	152883	27220	1077625	46574	111285	0	0	8095	541923	0	0
2024-08-15 10:00:47			0	37886	0	0	0	30309	28900	152967	27131	1077644	46596	111284	0	0	8094	542389	0	0
2024-08-15 10:01:47			0	37884	0	0	0	30319	28890	153047	27022	1077634	46596	111288	0	0	8094	542497	0	0
2024-08-15 10:02:47			0	37885	0	0	0	30309	28900	153003	27223	1077644	46585	111284	0	0	8094	542428	0	0
2024-08-15 10:03:47			0	37882	0	0	0	30314	28910	153027	26722	1077716	46587	111286	0	0	8094	542511	0	0
2024-08-15 10:04:47			0	37870	0	0	0	30324	28910	153079	27133	1077752	46587	111290	0	0	8093	542971	0	0
2024-08-15 10:05:47			0	37857	0	0	0	30324	28920	153063	26871	1077734	46576	111290	0	0	8092	543438	0	0
2024-08-15 10:06:47			0	37852	0	0	0	30327	28920	153091	27227	1077707	46587	111291	0	0	8092	543629	0	0
2024-08-15 10:07:47			0	37857	0	0	0	30319	28920	153103	27371	1077761	46587	111288	0	0	8092	543438	0	0
2024-08-15 10:08:47			0	37834	0	0	0	30314	28910	153107	27268	1077698	46587	111286	0	0	8091	544351	0	0
2024-08-15 10:09:47			0	37841	0	0	0	30301	28910	153163	27142	1077725	46576	111281	0	0	8092	544083	0	0
2024-08-15 10:10:47			0	37833	0	0	0	30306	28920	153091	27270	1077734	46598	111283	0	0	8091	544358	0	0
2024-08-15 10:11:47			0	37848	0	0	0	30283	28920	153139	27300	1077689	46588	111274	0	0	8093	543783	0	0
2024-08-15 10:12:47			0	37826	0	0	0	30257	28910	153143	27180	1077554	46576	111264	0	0	8092	544659	0	0
2024-08-15 10:13:47			0	37832	0	0	0	30236	28900	153143	27156	1077491	46564	111256	0	0	8092	544460	0	0
2024-08-15 10:14:47			0	37826	0	0	0	30249	28900	153107	27097	1077599	46575	111261	0	0	8092	544690	0	0
2024-08-15 10:15:47			0	37822	0	0	0	30283	28900	153211	27144	1077653	46586	111274	0	0	8091	544844	0	0
2024-08-15 10:16:47			0	37816	0	0	0	30301	28900	153167	27218	1077706	46586	111281	0	0	8090	545074	0	0
2024-08-15 10:17:47			0	37844	0	0	0	30285	28910	153199	27072	1077725	46587	111275	0	0	8092	543968	0	0
2024-08-15 10:18:47			0	37814	0	0	0	30275	28910	153259	27216	1077671	46576	111271	0	0	8091	545120	0	0
2024-08-15 10:19:47			0	37831	0	0	0	30264	28910	153247	27213	1077635	46587	111267	0	0	8092	544467	0	0
2024-08-15 10:20:47			0	37837	0	0	0	30290	28920	153291	27020	1077788	46598	111277	0	0	8092	544205	0	0
2024-08-15 10:21:47			0	37818	0	0	0	30309	28920	153251	27126	1077770	46588	111284	0	0	8090	544934	0	0
2024-08-15 10:22:47			0	37803	0	0	0	30298	28920	153339	27105	1077770	46588	111280	0	0	8090	545511	0	0
2024-08-15 10:23:47			0	37787	0	0	0	30280	28930	153287	27147	1077725	46578	111273	0	0	8089	546094	0	0
2024-08-15 10:24:47			0	37773	0	0	0	30262	28920	153407	27005	1077653	46554	111266	0	0	8089	546664	0	0
2024-08-15 10:25:47			0	37782	0	0	0	30288	28920	153403	27154	1077734	46576	111276	0	0	8089	546318	0	0
2024-08-15 10:26:47			0	37757	0	0	0	30303	28920	153519	26785	1077797	46577	111282	0	0	8087	547280	0	0
2024-08-15 10:27:47			0	37731	0	0	0	30324	28930	153471	26989	1077860	46589	111290	0	0	8085	548251	0	0
2024-08-15 10:28:47			0	37730	0	0	0	30340	28940	153555	27131	1077860	46579	111296	0	0	8085	548257	0	0
2024-08-15 10:29:47			0	37718	0	0	0	30345	28940	153607	27244	1077851	46600	111298	0	0	8084	548720	0	0
2024-08-15 10:30:47			0	37705	0	0	0	30363	28930	153607	26779	1077896	46600	111305	0	0	8083	549254	0	0
2024-08-15 10:31:47			0	37703	0	0	0	30368	28950	153751	27069	1078004	46602	111307	0	0	8083	549267	0	0
2024-08-15 10:32:47			0	37704	0	0	0	30368	28950	153767	27046	1077977	46580	111307	0	0	8083	549229	0	0
2024-08-15 10:33:47			0	37685	0	0	0	30384	28970	153807	26982	1078004	46592	111313	0	0	8082	549899	0	0
2024-08-15 10:34:47			0	37680	0	0	0	30386	28970	153775	26837	1077977	46581	111314	0	0	8081	550092	0	0
2024-08-15 10:35:47			0	37682	0	0	0	30386	28970	153687	27069	1077977	46581	111314	0	0	8081	550015	0	0
2024-08-15 10:36:47			0	37661	0	0	0	30389	28970	153799	27008	1078013	46593	111315	0	0	8080	550826	0	0
2024-08-15 10:37:47			0	37652	0	0	0	30384	28980	153743	26975	1078058	46605	111313	0	0	8080	551142	0	0
2024-08-15 10:38:47			0	37649	0	0	0	30407	28980	153863	27105	1078076	46594	111322	0	0	8079	551259	0	0
2024-08-15 10:39:47			0	37658	0	0	0	30410	28990	153811	27194	1078121	46605	111323	0	0	8080	550878	0	0
2024-08-15 10:40:47			0	37617	0	0	0	30407	28990	153883	26781	1078202	46605	111322	0	0	8077	552465	0	0
2024-08-15 10:41:47			0	37638	0	0	0	30412	29000	153831	27050	1078112	46584	111324	0	0	8079	551620	0	0
2024-08-15 10:42:47			0	37643	0	0	0	30428	28990	153943	27041	1078211	46595	111330	0	0	8079	551459	0	0
2024-08-15 10:43:47			0	37622	0	0	0	30423	29010	153851	27093	1078184	46607	111328	0	0	8078	552208	0	0
2024-08-15 10:44:47			0	37625	0	0	0	30425	29010	153811	27216	1078238	46584	111329	0	0	8078	552091	0	0
2024-08-15 10:45:47			0	37625	0	0	0	30431	29010	153851	26937	1078292	46596	111331	0	0	8078	552091	0	0
2024-08-15 10:46:47			0	37610	0	0	0	30428	29010	153931	27104	1078211	46584	111330	0	0	8077	552672	0	0
2024-08-15 10:47:47			0	37614	0	0	0	30436	29020	153791	26986	1078256	46598	111333	0	0	8077	552486	0	0
2024-08-15 10:48:47			0	37621	0	0	0	30449	29020	153891	27180	1078292	46599	111338	0	0	8077	552214	0	0
2024-08-15 10:49:47			0	37596	0	0	0	30446	29010	153891	27149	1078301	46585	111337	0	0	8076	553215	0	0
2024-08-15 10:50:47			0	37609	0	0	0	30449	29020	153927	27078	1078346	46587	111338	0	0	8076	552679	0	0
2024-08-15 10:51:47			0	37604	0	0	0	30451	29020	153987	26960	1078346	46599	111339	0	0	8076	552873	0	0
2024-08-15 10:52:47			0	37593	0	0	0	30451	29030	153939	27111	1078365	46587	111339	0	0	8076	553267	0	0
2024-08-15 10:53:47			0	37598	0	0	0	30451	29040	153963	27241	1078374	46588	111339	0	0	8076	553041	0	0
2024-08-15 10:54:47			0	37589	0	0	0	30449	29040	154023	27313	1078374	46600	111338	0	0	8075	553390	0	0
2024-08-15 10:55:47			0	37582	0	0	0	30464	29050	154039	26816	1078455	46601	111344	0	0	8075	553630	0	0
2024-08-15 10:56:47			0	37589	0	0	0	30454	29040	154163	27364	1078374	46600	111340	0	0	8075	553390	0	0
2024-08-15 10:57:47			0	37561	0	0	0	30451	29050	154015	27173	1078392	46579	111339	0	0	8074	554445	0	0
2024-08-15 10:58:47			0	37574	0	0	0	30446	29040	153999	27229	1078329	46589	111337	0	0	8075	553972	0	0
2024-08-15 10:59:47			0	37563	0	0	0	30457	29030	154119	26961	1078311	46599	111341	0	0	8074	554431	0	0
2024-08-15 11:00:47			0	37567	0	0	0	30457	29050	154071	27164	1078428	46589	111341	0	0	8074	554212	0	0
2024-08-15 11:01:47			0	37551	0	0	0	30449	29050	154111	27213	1078401	46589	111338	0	0	8073	554833	0	0
2024-08-15 11:02:47			0	37568	0	0	0	30446	29050	154075	27100	1078374	46589	111337	0	0	8074	554173	0	0
2024-08-15 11:03:47			0	37561	0	0	0	30446	29050	153975	27258	1078365	46601	111337	0	0	8074	554445	0	0
2024-08-15 11:04:47			0	37587	0	0	0	30462	29060	153975	27203	1078437	46613	111343	0	0	8075	553404	0	0
2024-08-15 11:05:47			0	37581	0	0	0	30462	29060	153931	27067	1078446	46614	111343	0	0	8075	553636	0	0
2024-08-15 11:06:47			0	37584	0	0	0	30454	29060	154063	26970	1078500	46591	111340	0	0	8075	553520	0	0
2024-08-15 11:07:47			0	37596	0	0	0	30451	29060	153843	27092	1078473	46603	111339	0	0	8076	553055	0	0
2024-08-15 11:08:47			0	37623	0	0	0	30457	29060	153939	27294	1078473	46591	111341	0	0	8077	552009	0	0
2024-08-15 11:09:47			0	37600	0	0	0	30475	29060	153975	27215	1078545	46613	111348	0	0	8076	552900	0	0
2024-08-15 11:10:47			0	37636	0	0	0	30483	29060	153759	27124	1078662	46614	111351	0	0	8078	551505	0	0
2024-08-15 11:11:47			0	37643	0	0	0	30485	29070	153763	27242	1078590	46603	111352	0	0	8078	551203	0	0
2024-08-15 11:12:47			0	37638	0	0	0	30498	29070	153715	26996	1078545	46603	111357	0	0	8078	551396	0	0
2024-08-15 11:13:47			0	37652	0	0	0	30503	29080	153783	27062	1078662	46604	111359	0	0	8078	550823	0	0
2024-08-15 11:14:47			0	37671	0	0	0	30503	29080	153731	27114	1078608	46604	111359	0	0	8079	550088	0	0
2024-08-15 11:15:47			0	37653	0	0	0	30511	29080	153683	27036	1078671	46605	111362	0	0	8078	550784	0	0
2024-08-15 11:16:47			0	37645	0	0	0	30509	29090	153671	26833	1078716	46594	111361	0	0	8078	551061	0	0
2024-08-15 11:17:47			0	37658	0	0	0	30503	29090	153707	26937	1078734	46594	111359	0	0	8079	550559	0	0
2024-08-15 11:18:47			0	37650	0	0	0	30498	29090	153599	27067	1078707	46594	111357	0	0	8078	550868	0	0
2024-08-15 11:19:47			0	37652	0	0	0	30514	29090	153663	26887	1078734	46606	111363	0	0	8078	550791	0	0
2024-08-15 11:20:47			0	37662	0	0	0	30516	29110	153703	27088	1078717	46608	111364	0	0	8079	550340	0	0
2024-08-15 11:21:47			0	37654	0	0	0	30524	29100	153635	27263	1078725	46606	111367	0	0	8078	550681	0	0
2024-08-15 11:22:47			0	37658	0	0	0	30522	29100	153663	26811	1078779	46594	111366	0	0	8078	550527	0	0
2024-08-15 11:23:47			0	37647	0	0	0	30527	29110	153635	27109	1078798	46608	111368	0	0	8078	550920	0	0
2024-08-15 11:24:47			0	37663	0	0	0	30537	29110	153531	27052	1078807	46608	111372	0	0	8078	550302	0	0
2024-08-15 11:25:47			0	37659	0	0	0	30537	29110	153623	27086	1078888	46630	111372	0	0	8078	550456	0	0
2024-08-15 11:26:47			0	37671	0	0	0	30542	29120	153607	27098	1078870	46585	111374	0	0	8079	549961	0	0
2024-08-15 11:27:47			0	37671	0	0	0	30537	29110	153575	26939	1078861	46619	111372	0	0	8079	549993	0	0
2024-08-15 11:28:47			0	37668	0	0	0	30540	29120	153639	27079	1078798	46609	111373	0	0	8079	550077	0	0
2024-08-15 11:29:47			0	37688	0	0	0	30545	29130	153551	27177	1078942	46598	111375	0	0	8080	549273	0	0
2024-08-15 11:30:47			0	37679	0	0	0	30545	29130	153571	27116	1078942	46598	111375	0	0	8079	549620	0	0
2024-08-15 11:31:47			0	37676	0	0	0	30542	29130	153595	27121	1078924	46598	111374	0	0	8079	549736	0	0
2024-08-15 11:32:47			0	37673	0	0	0	30540	29130	153567	26812	1078888	46610	111373	0	0	8079	549852	0	0
2024-08-15 11:33:47			0	37650	0	0	0	30548	29130	153627	26946	1079005	46598	111376	0	0	8078	550740	0	0
2024-08-15 11:34:47			0	37648	0	0	0	30550	29140	153615	27291	1078933	46610	111377	0	0	8078	550785	0	0
2024-08-15 11:35:47			0	37655	0	0	0	30563	29140	153571	26890	1078969	46599	111382	0	0	8078	550515	0	0
2024-08-15 11:36:47			0	37627	0	0	0	30558	29150	153735	26993	1078951	46600	111380	0	0	8076	551566	0	0
2024-08-15 11:37:47			0	37609	0	0	0	30555	29140	153763	26878	1079023	46611	111379	0	0	8075	552294	0	0
2024-08-15 11:38:47			0	37606	0	0	0	30555	29140	153839	26939	1078987	46632	111379	0	0	8075	552411	0	0
2024-08-15 11:39:47			0	37590	0	0	0	30566	29150	153771	27003	1079059	46612	111383	0	0	8074	552998	0	0
2024-08-15 11:40:47			0	37585	0	0	0	30558	29150	153947	27069	1079014	46623	111380	0	0	8074	553192	0	0
2024-08-15 11:41:47			0	37580	0	0	0	30568	29150	153907	27083	1079068	46623	111384	0	0	8073	553386	0	0
2024-08-15 11:42:47			0	37557	0	0	0	30563	29150	153963	27208	1079095	46600	111382	0	0	8072	554278	0	0
2024-08-15 11:43:47			0	37550	0	0	0	30566	29160	153975	27020	1079077	46601	111383	0	0	8072	554518	0	0
2024-08-15 11:44:47			0	37549	0	0	0	30579	29160	154079	26968	1079086	46590	111388	0	0	8071	554557	0	0
2024-08-15 11:45:47			0	37522	0	0	0	30586	29160	154027	26951	1079033	46601	111391	0	0	8070	555606	0	0
2024-08-15 11:46:47			0	37526	0	0	0	30581	29170	154035	26724	1079096	46614	111389	0	0	8070	555418	0	0
2024-08-15 11:47:47			0	37526	0	0	0	30576	29160	154067	27171	1079104	46601	111387	0	0	8070	555450	0	0
2024-08-15 11:48:47			0	37534	0	0	0	30581	29170	153999	27033	1079123	46614	111389	0	0	8071	555107	0	0
2024-08-15 11:49:47			0	37502	0	0	0	30594	29170	154051	27131	1079150	46614	111394	0	0	8069	556351	0	0
2024-08-15 11:50:47			0	37523	0	0	0	30589	29170	154019	26765	1079150	46636	111392	0	0	8070	555534	0	0
2024-08-15 11:51:47			0	37528	0	0	0	30599	29170	154079	27147	1079150	46602	111396	0	0	8070	555340	0	0
2024-08-15 11:52:47			0	37529	0	0	0	30594	29180	154091	27121	1079168	46603	111394	0	0	8070	555269	0	0
2024-08-15 11:53:47			0	37527	0	0	0	30599	29170	154071	27034	1079186	46625	111396	0	0	8070	555379	0	0
2024-08-15 11:54:47			0	37519	0	0	0	30607	29190	154091	26887	1079213	46616	111399	0	0	8069	555625	0	0
2024-08-15 11:55:47			0	37523	0	0	0	30612	29190	154043	27057	1079240	46626	111401	0	0	8070	555470	0	0
2024-08-15 11:56:47			0	37508	0	0	0	30607	29190	154083	27161	1079267	46616	111399	0	0	8069	556053	0	0
2024-08-15 11:57:47			0	37516	0	0	0	30615	29190	154071	27039	1079249	46617	111402	0	0	8069	555742	0	0
2024-08-15 11:58:47			0	37506	0	0	0	30623	29200	154027	27033	1079312	46639	111405	0	0	8068	556098	0	0
2024-08-15 11:59:47			0	37519	0	0	0	30636	29190	153979	26849	1079357	46627	111410	0	0	8069	555625	0	0
2024-08-15 12:00:47			0	37515	0	0	0	30636	29210	154071	27171	1079438	46618	111410	0	0	8069	555716	0	0
2024-08-15 12:01:47			0	37515	0	0	0	30633	29210	153979	26972	1079393	46619	111409	0	0	8069	555716	0	0
2024-08-15 12:02:47			0	37510	0	0	0	30646	29210	154015	27019	1079438	46628	111414	0	0	8068	555911	0	0
2024-08-15 12:03:47			0	37506	0	0	0	30654	29210	154115	27137	1079393	46641	111417	0	0	8068	556066	0	0
2024-08-15 12:04:47			0	37504	0	0	0	30644	29210	154183	26913	1079474	46629	111413	0	0	8068	556144	0	0
2024-08-15 12:05:47			0	37491	0	0	0	30644	29220	154107	27239	1079465	46608	111413	0	0	8067	556617	0	0
2024-08-15 12:06:47			0	37498	0	0	0	30641	29220	154159	27138	1079519	46620	111412	0	0	8068	556345	0	0
2024-08-15 12:07:47			0	37525	0	0	0	30654	29220	154171	27133	1079492	46630	111417	0	0	8069	555295	0	0
2024-08-15 12:08:47			0	37518	0	0	0	30662	29230	154155	27251	1079501	46630	111420	0	0	8069	555535	0	0
2024-08-15 12:09:47			0	37520	0	0	0	30672	29230	154195	26840	1079609	46620	111424	0	0	8069	555457	0	0
2024-08-15 12:10:47			0	37517	0	0	0	30667	29230	154079	27081	1079555	46630	111422	0	0	8068	555574	0	0
2024-08-15 12:11:47			0	37513	0	0	0	30667	29240	154083	27003	1079600	46621	111422	0	0	8068	555697	0	0
2024-08-15 12:12:47			0	37510	0	0	0	30664	29240	154135	26691	1079546	46631	111421	0	0	8068	555814	0	0
2024-08-15 12:13:47			0	37522	0	0	0	30670	29240	154067	27149	1079573	46609	111423	0	0	8069	555347	0	0
2024-08-15 12:14:47			0	37517	0	0	0	30672	29250	154083	27237	1079564	46632	111424	0	0	8068	555510	0	0
2024-08-15 12:15:47			0	37521	0	0	0	30680	29250	154071	27033	1079601	46623	111427	0	0	8069	555354	0	0
2024-08-15 12:16:47			0	37524	0	0	0	30683	29250	153999	26769	1079618	46610	111428	0	0	8069	555238	0	0
2024-08-15 12:17:47			0	37531	0	0	0	30677	29260	153983	27116	1079691	46623	111426	0	0	8069	554933	0	0
2024-08-15 12:18:47			0	37527	0	0	0	30690	29260	153975	26885	1079637	46611	111431	0	0	8069	555089	0	0
2024-08-15 12:19:47			0	37543	0	0	0	30688	29270	153987	26958	1079709	46625	111430	0	0	8070	554435	0	0
2024-08-15 12:20:47			0	37531	0	0	0	30696	29260	153951	27074	1079664	46623	111433	0	0	8069	554933	0	0
2024-08-15 12:21:47			0	37525	0	0	0	30690	29270	154031	26859	1079682	46613	111431	0	0	8069	555134	0	0
2024-08-15 12:22:47			0	37538	0	0	0	30696	29270	153959	26807	1079763	46625	111433	0	0	8069	554629	0	0
2024-08-15 12:23:47			0	37521	0	0	0	30696	29270	154007	26955	1079736	46625	111433	0	0	8068	555289	0	0
2024-08-15 12:24:47			0	37528	0	0	0	30693	29280	153947	26941	1079718	46625	111432	0	0	8069	554985	0	0
2024-08-15 12:25:47			0	37521	0	0	0	30690	29270	154111	26930	1079709	46613	111431	0	0	8068	555289	0	0
2024-08-15 12:26:47			0	37534	0	0	0	30690	29280	154051	27175	1079772	46625	111431	0	0	8069	554752	0	0
2024-08-15 12:27:47			0	37520	0	0	0	30696	29290	154063	27142	1079763	46625	111433	0	0	8068	555264	0	0
2024-08-15 12:28:47			0	37535	0	0	0	30696	29280	154211	27062	1079826	46647	111433	0	0	8069	554714	0	0
2024-08-15 12:29:47			0	37525	0	0	0	30698	29290	154047	27010	1079790	46625	111434	0	0	8069	555069	0	0
2024-08-15 12:30:47			0	37528	0	0	0	30685	29290	154023	27371	1079844	46614	111429	0	0	8069	554953	0	0
2024-08-15 12:31:47			0	37499	0	0	0	30688	29290	154055	27166	1079790	46614	111430	0	0	8067	556080	0	0
2024-08-15 12:32:47			0	37509	0	0	0	30693	29290	154055	27123	1079736	46625	111432	0	0	8068	555691	0	0
2024-08-15 12:33:47			0	37503	0	0	0	30706	29290	154007	26837	1079736	46636	111437	0	0	8067	555925	0	0
2024-08-15 12:34:47			0	37512	0	0	0	30703	29300	154015	27069	1079808	46626	111436	0	0	8068	555542	0	0
2024-08-15 12:35:47			0	37521	0	0	0	30698	29290	154035	26974	1079799	46615	111434	0	0	8068	555225	0	0
2024-08-15 12:36:47			0	37512	0	0	0	30709	29290	153983	27256	1079826	46626	111438	0	0	8068	555575	0	0
2024-08-15 12:37:47			0	37503	0	0	0	30706	29300	153951	27239	1079808	46626	111437	0	0	8067	555892	0	0
2024-08-15 12:38:47			0	37514	0	0	0	30703	29300	154083	27130	1079862	46615	111436	0	0	8068	555465	0	0
2024-08-15 12:39:47			0	37503	0	0	0	30714	29300	154071	27010	1079835	46626	111440	0	0	8067	555892	0	0
2024-08-15 12:40:47			0	37489	0	0	0	30737	29300	154043	26689	1079898	46638	111449	0	0	8066	556437	0	0
2024-08-15 12:41:47			0	37498	0	0	0	30737	29300	154047	26896	1079871	46627	111449	0	0	8066	556086	0	0
2024-08-15 12:42:47			0	37499	0	0	0	30722	29310	154127	27020	1079917	46628	111443	0	0	8067	556015	0	0
2024-08-15 12:43:47			0	37484	0	0	0	30729	29310	154103	26842	1079934	46627	111446	0	0	8066	556599	0	0
2024-08-15 12:44:47			0	37492	0	0	0	30740	29320	154167	27050	1079980	46628	111450	0	0	8066	556255	0	0
2024-08-15 12:45:47			0	37467	0	0	0	30748	29320	154223	27145	1080034	46628	111453	0	0	8065	557228	0	0
2024-08-15 12:46:47			0	37458	0	0	0	30768	29340	154091	27000	1080097	46631	111461	0	0	8064	557514	0	0
2024-08-15 12:47:47			0	37466	0	0	0	30755	29330	154135	27059	1080034	46653	111456	0	0	8064	557235	0	0
2024-08-15 12:48:47			0	37460	0	0	0	30766	29330	154123	27123	1080115	46630	111460	0	0	8064	557468	0	0
2024-08-15 12:49:47			0	37467	0	0	0	30768	29340	154163	27133	1080043	46631	111461	0	0	8064	557163	0	0
2024-08-15 12:50:47			0	37447	0	0	0	30768	29350	154211	27055	1080115	46631	111461	0	0	8063	557910	0	0
2024-08-15 12:51:47			0	37456	0	0	0	30748	29340	154251	26996	1080079	46631	111453	0	0	8064	557592	0	0
2024-08-15 12:52:47			0	37443	0	0	0	30761	29340	154235	27339	1080106	46631	111458	0	0	8063	558098	0	0
2024-08-15 12:53:47			0	37428	0	0	0	30761	29350	154387	27046	1080088	46642	111458	0	0	8062	558650	0	0
2024-08-15 12:54:47			0	37436	0	0	0	30768	29340	154367	27308	1080151	46631	111461	0	0	8063	558371	0	0
2024-08-15 12:55:47			0	37434	0	0	0	30768	29350	154319	27105	1080115	46631	111461	0	0	8062	558417	0	0
2024-08-15 12:56:47			0	37434	0	0	0	30781	29360	154403	26928	1080160	46633	111466	0	0	8062	558384	0	0
2024-08-15 12:57:47			0	37411	0	0	0	30779	29360	154363	26651	1080241	46633	111465	0	0	8061	559281	0	0
2024-08-15 12:58:47			0	37427	0	0	0	30779	29360	154307	26734	1080196	46633	111465	0	0	8062	558657	0	0
2024-08-15 12:59:47			0	37428	0	0	0	30773	29360	154359	26715	1080187	46622	111463	0	0	8062	558618	0	0
2024-08-15 13:00:47			0	37452	0	0	0	30763	29360	154271	27041	1080133	46633	111459	0	0	8064	557683	0	0
2024-08-15 13:01:47			0	37426	0	0	0	30776	29370	154295	27062	1080232	46634	111464	0	0	8062	558663	0	0
2024-08-15 13:02:47			0	37431	0	0	0	30784	29350	154343	26854	1080232	46621	111467	0	0	8062	558533	0	0
2024-08-15 13:03:47			0	37437	0	0	0	30794	29370	154463	26835	1080214	46645	111471	0	0	8062	558235	0	0
2024-08-15 13:04:47			0	37448	0	0	0	30784	29360	154419	27052	1080223	46633	111467	0	0	8063	557838	0	0
2024-08-15 13:05:47			0	37442	0	0	0	30766	29370	154323	27232	1080205	46634	111460	0	0	8063	558040	0	0
2024-08-15 13:06:47			0	37447	0	0	0	30771	29370	154359	27090	1080187	46634	111462	0	0	8063	557845	0	0
2024-08-15 13:07:47			0	37450	0	0	0	30776	29370	154395	27095	1080295	46634	111464	0	0	8063	557728	0	0
2024-08-15 13:08:47			0	37439	0	0	0	30792	29380	154363	26982	1080250	46624	111470	0	0	8063	558124	0	0
2024-08-15 13:09:47			0	37451	0	0	0	30805	29380	154375	27079	1080304	46613	111475	0	0	8063	557657	0	0
2024-08-15 13:10:47			0	37458	0	0	0	30792	29380	154299	27251	1080340	46635	111470	0	0	8064	557384	0	0
2024-08-15 13:11:47			0	37468	0	0	0	30789	29380	154223	27145	1080304	46635	111469	0	0	8064	556995	0	0
2024-08-15 13:12:47			0	37484	0	0	0	30818	29380	154171	27015	1080340	46635	111480	0	0	8065	556372	0	0
2024-08-15 13:13:47			0	37512	0	0	0	30810	29390	154107	26951	1080377	46647	111477	0	0	8066	555252	0	0
2024-08-15 13:14:47			0	37507	0	0	0	30823	29380	154119	27291	1080340	46646	111482	0	0	8066	555478	0	0
2024-08-15 13:15:47			0	37496	0	0	0	30825	29400	154027	27204	1080422	46648	111483	0	0	8065	555841	0	0
2024-08-15 13:16:47			0	37532	0	0	0	30797	29390	154003	27007	1080413	46636	111472	0	0	8068	554475	0	0
2024-08-15 13:17:47			0	37522	0	0	0	30799	29400	154063	27007	1080395	46637	111473	0	0	8067	554831	0	0
2024-08-15 13:18:47			0	37546	0	0	0	30797	29400	153939	26868	1080341	46637	111472	0	0	8069	553900	0	0
2024-08-15 13:19:47			0	37568	0	0	0	30810	29390	153847	26896	1080386	46625	111477	0	0	8070	553080	0	0
2024-08-15 13:20:47			0	37572	0	0	0	30810	29400	153795	27055	1080449	46637	111477	0	0	8070	552892	0	0
2024-08-15 13:21:47			0	37591	0	0	0	30836	29410	153715	27107	1080467	46649	111487	0	0	8071	552125	0	0
2024-08-15 13:22:47			0	37605	0	0	0	30810	29410	153663	27194	1080476	46638	111477	0	0	8072	551583	0	0
2024-08-15 13:23:47			0	37608	0	0	0	30810	29410	153551	27076	1080476	46649	111477	0	0	8072	551467	0	0
2024-08-15 13:24:47			0	37652	0	0	0	30825	29410	153375	27232	1080521	46638	111483	0	0	8074	549768	0	0
2024-08-15 13:25:47			0	37671	0	0	0	30844	29420	153363	27069	1080629	46640	111490	0	0	8075	549003	0	0
2024-08-15 13:26:47			0	37663	0	0	0	30849	29420	153411	27027	1080620	46650	111492	0	0	8075	549311	0	0
2024-08-15 13:27:47			0	37692	0	0	0	30862	29420	153323	27112	1080683	46640	111497	0	0	8076	548194	0	0
2024-08-15 13:28:47			0	37704	0	0	0	30854	29420	153159	26786	1080602	46640	111494	0	0	8077	547732	0	0
2024-08-15 13:29:47			0	37711	0	0	0	30854	29430	153115	27053	1080611	46640	111494	0	0	8077	547430	0	0
2024-08-15 13:30:47			0	37720	0	0	0	30851	29440	153175	26665	1080612	46653	111493	0	0	8078	547052	0	0
2024-08-15 13:31:47			0	37739	0	0	0	30825	29430	153123	27013	1080621	46628	111483	0	0	8079	546353	0	0
2024-08-15 13:32:47			0	37739	0	0	0	30831	29440	152975	27265	1080657	46641	111485	0	0	8079	546322	0	0
2024-08-15 13:33:47			0	37754	0	0	0	30828	29430	152987	27183	1080594	46651	111484	0	0	8080	545777	0	0
2024-08-15 13:34:47			0	37755	0	0	0	30831	29430	152871	26797	1080594	46640	111485	0	0	8080	545739	0	0
2024-08-15 13:35:47			0	37762	0	0	0	30846	29430	152863	26797	1080675	46640	111491	0	0	8080	545470	0	0
2024-08-15 13:36:47			0	37788	0	0	0	30846	29430	152723	27072	1080675	46640	111491	0	0	8082	544472	0	0
2024-08-15 13:37:47			0	37796	0	0	0	30859	29430	152731	27263	1080702	46651	111496	0	0	8082	544165	0	0
2024-08-15 13:38:47			0	37826	0	0	0	30859	29440	152651	26987	1080720	46665	111496	0	0	8084	542985	0	0
2024-08-15 13:39:47			0	37823	0	0	0	30867	29450	152703	26906	1080765	46653	111499	0	0	8084	543068	0	0
2024-08-15 13:40:47			0	37813	0	0	0	30870	29450	152599	26889	1080729	46642	111500	0	0	8083	543451	0	0
2024-08-15 13:41:47			0	37835	0	0	0	30870	29450	152567	27029	1080765	46642	111500	0	0	8084	542609	0	0
2024-08-15 13:42:47			0	37825	0	0	0	30875	29460	152611	26951	1080747	46643	111502	0	0	8084	542960	0	0
2024-08-15 13:43:47			0	37831	0	0	0	30870	29460	152715	26949	1080783	46644	111500	0	0	8084	542730	0	0
2024-08-15 13:44:47			0	37819	0	0	0	30875	29450	152699	26642	1080819	46642	111502	0	0	8083	543221	0	0
2024-08-15 13:45:47			0	37816	0	0	0	30870	29460	152771	27043	1080837	46655	111500	0	0	8083	543304	0	0
2024-08-15 13:46:47			0	37810	0	0	0	30875	29460	152807	26965	1080756	46655	111502	0	0	8083	543534	0	0
2024-08-15 13:47:47			0	37813	0	0	0	30883	29470	152727	26998	1080738	46633	111505	0	0	8083	543388	0	0
2024-08-15 13:48:47			0	37803	0	0	0	30872	29460	152695	27013	1080783	46644	111501	0	0	8083	543802	0	0
2024-08-15 13:49:47			0	37820	0	0	0	30880	29460	152623	27022	1080837	46644	111504	0	0	8083	543151	0	0
2024-08-15 13:50:47			0	37819	0	0	0	30883	29470	152527	27268	1080828	46656	111505	0	0	8083	543158	0	0
2024-08-15 13:51:47			0	37818	0	0	0	30885	29470	152727	27034	1080846	46656	111506	0	0	8083	543196	0	0
2024-08-15 13:52:47			0	37823	0	0	0	30885	29470	152559	26712	1080873	46623	111506	0	0	8083	543005	0	0
2024-08-15 13:53:47			0	37848	0	0	0	30885	29480	152523	26563	1080874	46646	111506	0	0	8085	542017	0	0
2024-08-15 13:54:47			0	37830	0	0	0	30898	29480	152535	26863	1080891	46656	111511	0	0	8084	542705	0	0
2024-08-15 13:55:47			0	37847	0	0	0	30911	29480	152531	26840	1080955	46657	111516	0	0	8084	542055	0	0
2024-08-15 13:56:47			0	37855	0	0	0	30922	29490	152531	26946	1080964	46658	111520	0	0	8085	541718	0	0
2024-08-15 13:57:47			0	37846	0	0	0	30929	29490	152527	26762	1081027	46635	111523	0	0	8084	542062	0	0
2024-08-15 13:58:47			0	37856	0	0	0	30924	29510	152539	26748	1081027	46660	111521	0	0	8085	541617	0	0
2024-08-15 13:59:47			0	37876	0	0	0	30932	29500	152539	26788	1081063	46658	111524	0	0	8086	540884	0	0
2024-08-15 14:00:47			0	37882	0	0	0	30924	29520	152503	26811	1081018	46649	111521	0	0	8086	540592	0	0
2024-08-15 14:01:47			0	37877	0	0	0	30914	29500	152447	27019	1081018	46659	111517	0	0	8086	540846	0	0
2024-08-15 14:02:47			0	37863	0	0	0	30911	29500	152539	27095	1080991	46659	111516	0	0	8085	541381	0	0
2024-08-15 14:03:47			0	37879	0	0	0	30898	29500	152467	26857	1080955	46635	111511	0	0	8087	540769	0	0
2024-08-15 14:04:47			0	37869	0	0	0	30872	29510	152463	26961	1080973	46637	111501	0	0	8087	541120	0	0
2024-08-15 14:05:47			0	37862	0	0	0	30880	29500	152395	26935	1080955	46625	111504	0	0	8086	541419	0	0
2024-08-15 14:06:47			0	37895	0	0	0	30877	29500	152427	26717	1080982	46635	111503	0	0	8088	540159	0	0
2024-08-15 14:07:47			0	37903	0	0	0	30877	29490	152367	26798	1080910	46635	111503	0	0	8088	539885	0	0
2024-08-15 14:08:47			0	37912	0	0	0	30896	29480	152331	26937	1080901	46657	111510	0	0	8088	539573	0	0
2024-08-15 14:09:47			0	37935	0	0	0	30929	29490	152279	26859	1081027	46647	111523	0	0	8089	538666	0	0
2024-08-15 14:10:47			0	37949	0	0	0	30927	29510	152307	26949	1081054	46660	111522	0	0	8090	538070	0	0
2024-08-15 14:11:47			0	37947	0	0	0	30942	29500	152239	27078	1081063	46658	111528	0	0	8090	538178	0	0
2024-08-15 14:12:47			0	37957	0	0	0	30945	29500	152183	27066	1081045	46648	111529	0	0	8090	537797	0	0
2024-08-15 14:13:47			0	37950	0	0	0	30937	29510	152119	26925	1081117	46660	111526	0	0	8090	538032	0	0
2024-08-15 14:14:47			0	37932	0	0	0	30924	29520	152163	27308	1081072	46660	111521	0	0	8089	538686	0	0
2024-08-15 14:15:47			0	37957	0	0	0	30924	29500	152183	26908	1081045	46648	111521	0	0	8091	537797	0	0
2024-08-15 14:16:47			0	37936	0	0	0	30929	29510	152275	27242	1081063	46649	111523	0	0	8089	538565	0	0
2024-08-15 14:17:47			0	37928	0	0	0	30924	29520	152227	27270	1081109	46661	111521	0	0	8089	538838	0	0
2024-08-15 14:18:47			0	37914	0	0	0	30937	29520	152195	26894	1081163	46661	111526	0	0	8088	539372	0	0
2024-08-15 14:19:47			0	37920	0	0	0	30932	29530	152279	27053	1081091	46651	111524	0	0	8089	539112	0	0
2024-08-15 14:20:47			0	37921	0	0	0	30935	29530	152319	27038	1081145	46662	111525	0	0	8089	539074	0	0
2024-08-15 14:21:47			0	37919	0	0	0	30924	29530	152439	26823	1081145	46639	111521	0	0	8089	539150	0	0
2024-08-15 14:22:47			0	37888	0	0	0	30914	29530	152327	26960	1081091	46651	111517	0	0	8087	540332	0	0
2024-08-15 14:23:47			0	37910	0	0	0	30914	29530	152275	27043	1081118	46639	111517	0	0	8088	539493	0	0
2024-08-15 14:24:47			0	37897	0	0	0	30903	29520	152391	27228	1081018	46626	111513	0	0	8088	540020	0	0
2024-08-15 14:25:47			0	37879	0	0	0	30896	29520	152587	27109	1081045	46649	111510	0	0	8087	540706	0	0
2024-08-15 14:26:47			0	37878	0	0	0	30896	29520	152499	27386	1081045	46637	111510	0	0	8087	540745	0	0
2024-08-15 14:27:47			0	37863	0	0	0	30896	29530	152623	26982	1081064	46639	111510	0	0	8086	541286	0	0
2024-08-15 14:28:47			0	37862	0	0	0	30888	29520	152551	27052	1080974	46616	111507	0	0	8086	541356	0	0
2024-08-15 14:29:47			0	37851	0	0	0	30888	29510	152547	27041	1081036	46649	111507	0	0	8085	541808	0	0
2024-08-15 14:30:47			0	37871	0	0	0	30880	29520	152535	27107	1080964	46649	111504	0	0	8087	541012	0	0
2024-08-15 14:31:47			0	37863	0	0	0	30875	29500	152519	27248	1080910	46636	111502	0	0	8086	541381	0	0
2024-08-15 14:32:47			0	37855	0	0	0	30893	29500	152619	26875	1080991	46648	111509	0	0	8085	541686	0	0
2024-08-15 14:33:47			0	37841	0	0	0	30888	29500	152523	27255	1080955	46635	111507	0	0	8085	542221	0	0
2024-08-15 14:34:47			0	37831	0	0	0	30896	29500	152667	26993	1080982	46647	111510	0	0	8084	542604	0	0
2024-08-15 14:35:47			0	37836	0	0	0	30883	29510	152635	27062	1080946	46660	111505	0	0	8084	542381	0	0
2024-08-15 14:36:47			0	37841	0	0	0	30909	29490	152699	27043	1080910	46647	111515	0	0	8084	542253	0	0
2024-08-15 14:37:47			0	37845	0	0	0	30919	29510	152643	27092	1081054	46660	111519	0	0	8084	542037	0	0
2024-08-15 14:38:47			0	37862	0	0	0	30922	29500	152643	27133	1081126	46648	111520	0	0	8085	541419	0	0
2024-08-15 14:39:47			0	37852	0	0	0	30937	29520	152623	27189	1081180	46649	111526	0	0	8085	541738	0	0
2024-08-15 14:40:47			0	37858	0	0	0	30945	29510	152643	27251	1081144	46660	111529	0	0	8085	541540	0	0
2024-08-15 14:41:47			0	37868	0	0	0	30953	29530	152575	26930	1081172	46662	111532	0	0	8085	541095	0	0
2024-08-15 14:42:47			0	37875	0	0	0	30958	29530	152615	27107	1081181	46663	111534	0	0	8086	540828	0	0
2024-08-15 14:43:47			0	37881	0	0	0	30966	29540	152595	27135	1081244	46652	111537	0	0	8086	540567	0	0
2024-08-15 14:44:47			0	37874	0	0	0	30976	29540	152607	26934	1081244	46674	111541	0	0	8085	540834	0	0
2024-08-15 14:45:47			0	37862	0	0	0	30989	29550	152523	26961	1081307	46674	111546	0	0	8084	541261	0	0
2024-08-15 14:46:47			0	37862	0	0	0	30994	29550	152591	27206	1081343	46664	111548	0	0	8084	541261	0	0
2024-08-15 14:47:47			0	37875	0	0	0	31002	29560	152591	26748	1081406	46676	111551	0	0	8085	540733	0	0
2024-08-15 14:48:47			0	37872	0	0	0	30999	29570	152695	27079	1081460	46688	111550	0	0	8085	540816	0	0
2024-08-15 14:49:47			0	37864	0	0	0	31012	29580	152611	27150	1081415	46656	111555	0	0	8084	541090	0	0
2024-08-15 14:50:47			0	37854	0	0	0	31010	29580	152591	26955	1081496	46666	111554	0	0	8084	541472	0	0
2024-08-15 14:51:47			0	37863	0	0	0	31005	29580	152611	27131	1081451	46678	111552	0	0	8084	541129	0	0
2024-08-15 14:52:47			0	37846	0	0	0	31010	29600	152535	27111	1081515	46659	111554	0	0	8083	541715	0	0
2024-08-15 14:53:47			0	37839	0	0	0	31012	29590	152679	27124	1081470	46667	111555	0	0	8083	542014	0	0
2024-08-15 14:54:47			0	37822	0	0	0	31012	29600	152751	26864	1081488	46669	111555	0	0	8082	542632	0	0
2024-08-15 14:55:47			0	37828	0	0	0	31010	29600	152771	27128	1081542	46659	111554	0	0	8082	542403	0	0
2024-08-15 14:56:47			0	37816	0	0	0	31002	29610	152771	27093	1081587	46669	111551	0	0	8082	542830	0	0
2024-08-15 14:57:47			0	37799	0	0	0	31015	29600	152795	26975	1081596	46669	111556	0	0	8081	543513	0	0
2024-08-15 14:58:47			0	37792	0	0	0	31012	29610	152811	26828	1081605	46647	111555	0	0	8080	543749	0	0
2024-08-15 14:59:47			0	37800	0	0	0	31012	29620	152819	27076	1081542	46648	111555	0	0	8081	543411	0	0
2024-08-15 15:00:47			0	37770	0	0	0	31015	29610	152791	26913	1081605	46659	111556	0	0	8079	544592	0	0
2024-08-15 15:01:47			0	37767	0	0	0	31015	29620	152771	26880	1081569	46660	111556	0	0	8079	544675	0	0
2024-08-15 15:02:47			0	37759	0	0	0	31010	29620	152811	27388	1081623	46660	111554	0	0	8078	544982	0	0
2024-08-15 15:03:47			0	37752	0	0	0	31007	29620	152859	27003	1081569	46660	111553	0	0	8078	545251	0	0
2024-08-15 15:04:47			0	37744	0	0	0	31010	29620	152859	27124	1081596	46648	111554	0	0	8078	545558	0	0
2024-08-15 15:05:47			0	37754	0	0	0	31010	29610	152983	27116	1081560	46659	111554	0	0	8078	545206	0	0
2024-08-15 15:06:47			0	37717	0	0	0	31007	29610	152975	27074	1081533	46659	111553	0	0	8076	546627	0	0
2024-08-15 15:07:47			0	37725	0	0	0	31010	29610	152955	27428	1081560	46647	111554	0	0	8076	546319	0	0
2024-08-15 15:08:47			0	37715	0	0	0	31007	29620	152987	27020	1081569	46660	111553	0	0	8076	546672	0	0
2024-08-15 15:09:47			0	37704	0	0	0	31010	29620	153055	26882	1081623	46670	111554	0	0	8075	547095	0	0
2024-08-15 15:10:47			0	37711	0	0	0	31002	29620	153103	26918	1081605	46671	111551	0	0	8076	546825	0	0
2024-08-15 15:11:47			0	37707	0	0	0	31005	29620	153055	27284	1081605	46649	111552	0	0	8076	546979	0	0
2024-08-15 15:12:47			0	37709	0	0	0	31002	29610	153007	27190	1081605	46647	111551	0	0	8076	546934	0	0
2024-08-15 15:13:47			0	37718	0	0	0	31007	29630	153055	27076	1081587	46671	111553	0	0	8076	546525	0	0
2024-08-15 15:14:47			0	37697	0	0	0	31012	29630	153083	27135	1081668	46649	111555	0	0	8075	547332	0	0
2024-08-15 15:15:47			0	37692	0	0	0	31012	29620	153243	27024	1081578	46671	111555	0	0	8075	547556	0	0
2024-08-15 15:16:47			0	37690	0	0	0	31023	29630	153147	27168	1081614	46671	111559	0	0	8074	547601	0	0
2024-08-15 15:17:47			0	37688	0	0	0	31015	29630	153279	26920	1081650	46649	111556	0	0	8074	547678	0	0
2024-08-15 15:18:47			0	37690	0	0	0	31018	29630	153227	27149	1081641	46649	111557	0	0	8074	547601	0	0
2024-08-15 15:19:47			0	37691	0	0	0	31018	29630	153347	26876	1081704	46661	111557	0	0	8074	547563	0	0
2024-08-15 15:20:47			0	37674	0	0	0	31012	29630	153295	27000	1081695	46661	111555	0	0	8074	548217	0	0
2024-08-15 15:21:47			0	37683	0	0	0	31020	29630	153227	27197	1081641	46661	111558	0	0	8074	547870	0	0
2024-08-15 15:22:47			0	37678	0	0	0	31023	29630	153263	27060	1081623	46649	111559	0	0	8074	548063	0	0
2024-08-15 15:23:47			0	37679	0	0	0	31012	29640	153187	27066	1081659	46662	111555	0	0	8074	547992	0	0
2024-08-15 15:24:47			0	37681	0	0	0	31005	29630	153251	26705	1081614	46649	111552	0	0	8074	547947	0	0
2024-08-15 15:25:47			0	37673	0	0	0	31002	29620	153231	27007	1081578	46649	111551	0	0	8074	548287	0	0
2024-08-15 15:26:47			0	37682	0	0	0	31012	29630	153223	26679	1081677	46661	111555	0	0	8074	547909	0	0
2024-08-15 15:27:47			0	37701	0	0	0	31007	29640	153211	27019	1081632	46650	111553	0	0	8075	547146	0	0
2024-08-15 15:28:47			0	37679	0	0	0	31025	29630	153215	27083	1081614	46661	111560	0	0	8074	548024	0	0
2024-08-15 15:29:47			0	37686	0	0	0	31002	29630	153267	27078	1081614	46671	111551	0	0	8074	547755	0	0
2024-08-15 15:30:47			0	37688	0	0	0	31020	29630	153227	26868	1081587	46661	111558	0	0	8074	547678	0	0
2024-08-15 15:31:47			0	37675	0	0	0	31025	29630	153131	27076	1081668	46671	111560	0	0	8073	548178	0	0
2024-08-15 15:32:47			0	37694	0	0	0	31033	29640	153191	27131	1081713	46672	111563	0	0	8074	547415	0	0
2024-08-15 15:33:47			0	37697	0	0	0	31046	29640	153215	27209	1081749	46663	111568	0	0	8074	547300	0	0
2024-08-15 15:34:47			0	37702	0	0	0	31025	29650	153131	26896	1081714	46663	111560	0	0	8075	547076	0	0
2024-08-15 15:35:47			0	37704	0	0	0	31012	29650	153051	27251	1081732	46663	111555	0	0	8075	546999	0	0
2024-08-15 15:36:47			0	37702	0	0	0	31010	29650	153123	27013	1081813	46663	111554	0	0	8075	547076	0	0
2024-08-15 15:37:47			0	37716	0	0	0	31031	29650	153095	27180	1081786	46651	111562	0	0	8076	546538	0	0
2024-08-15 15:38:47			0	37699	0	0	0	31064	29650	153191	26859	1081876	46663	111575	0	0	8074	547191	0	0
2024-08-15 15:39:47			0	37702	0	0	0	31083	29650	153207	27189	1081849	46663	111582	0	0	8074	547076	0	0
2024-08-15 15:40:47			0	37700	0	0	0	31083	29660	153175	26946	1081885	46674	111582	0	0	8074	547121	0	0
2024-08-15 15:41:47			0	37713	0	0	0	31080	29660	153167	27161	1081894	46675	111581	0	0	8075	546621	0	0
2024-08-15 15:42:47			0	37691	0	0	0	31085	29660	153207	27256	1081858	46664	111583	0	0	8073	547467	0	0
2024-08-15 15:43:47			0	37703	0	0	0	31077	29670	153011	27279	1081912	46666	111580	0	0	8074	546974	0	0
2024-08-15 15:44:47			0	37722	0	0	0	31072	29670	153103	26852	1081939	46666	111578	0	0	8075	546243	0	0
2024-08-15 15:45:47			0	37718	0	0	0	31075	29680	153087	27064	1081975	46666	111579	0	0	8075	546365	0	0
2024-08-15 15:46:47			0	37700	0	0	0	31072	29670	153083	27007	1081939	46666	111578	0	0	8074	547089	0	0
2024-08-15 15:47:47			0	37699	0	0	0	31064	29680	153115	27131	1081921	46666	111575	0	0	8074	547095	0	0
2024-08-15 15:48:47			0	37693	0	0	0	31070	29680	153095	27027	1081958	46677	111577	0	0	8074	547326	0	0
2024-08-15 15:49:47			0	37699	0	0	0	31059	29680	153019	27012	1081921	46676	111573	0	0	8074	547095	0	0
2024-08-15 15:50:47			0	37696	0	0	0	31067	29670	153107	27119	1081912	46676	111576	0	0	8074	547243	0	0
2024-08-15 15:51:47			0	37703	0	0	0	31072	29680	153151	27357	1081958	46677	111578	0	0	8074	546942	0	0
2024-08-15 15:52:47			0	37699	0	0	0	31077	29680	153163	26901	1081975	46676	111580	0	0	8074	547095	0	0
2024-08-15 15:53:47			0	37700	0	0	0	31077	29690	153179	27152	1081967	46667	111580	0	0	8074	547025	0	0
2024-08-15 15:54:47			0	37677	0	0	0	31075	29690	153067	26896	1082021	46667	111579	0	0	8073	547910	0	0
2024-08-15 15:55:47			0	37680	0	0	0	31064	29690	153039	27150	1081994	46645	111575	0	0	8073	547794	0	0
2024-08-15 15:56:47			0	37667	0	0	0	31057	29680	153011	27104	1081903	46666	111572	0	0	8073	548327	0	0
2024-08-15 15:57:47			0	37687	0	0	0	31059	29680	153031	27100	1082029	46676	111573	0	0	8074	547557	0	0
2024-08-15 15:58:47			0	37665	0	0	0	31064	29680	153087	27189	1081948	46666	111575	0	0	8072	548404	0	0
2024-08-15 15:59:47			0	37671	0	0	0	31072	29690	153147	27093	1081994	46667	111578	0	0	8073	548141	0	0
2024-08-15 16:00:47			0	37664	0	0	0	31067	29690	153167	27360	1081922	46667	111576	0	0	8072	548410	0	0
2024-08-15 16:01:47			0	37685	0	0	0	31054	29680	153139	27003	1081903	46677	111571	0	0	8074	547634	0	0
2024-08-15 16:02:47			0	37681	0	0	0	31041	29680	153151	27241	1081948	46654	111566	0	0	8074	547788	0	0
2024-08-15 16:03:47			0	37655	0	0	0	31051	29670	153191	27088	1081885	46666	111570	0	0	8072	548821	0	0
2024-08-15 16:04:47			0	37658	0	0	0	31077	29680	153127	27244	1081975	46666	111580	0	0	8072	548673	0	0
2024-08-15 16:05:47			0	37653	0	0	0	31072	29690	153211	27142	1081940	46656	111578	0	0	8072	548834	0	0
2024-08-15 16:06:47			0	37638	0	0	0	31075	29680	153219	26778	1081894	46666	111579	0	0	8071	549444	0	0
2024-08-15 16:07:47			0	37651	0	0	0	31067	29680	153095	27157	1081985	46666	111576	0	0	8072	548943	0	0
2024-08-15 16:08:47			0	37655	0	0	0	31064	29680	153195	26726	1082002	46676	111575	0	0	8072	548789	0	0
2024-08-15 16:09:47			0	37632	0	0	0	31075	29680	153083	27066	1081958	46666	111579	0	0	8070	549675	0	0
2024-08-15 16:10:47			0	37636	0	0	0	31070	29690	153139	27241	1081940	46678	111577	0	0	8071	549489	0	0
2024-08-15 16:11:47			0	37643	0	0	0	31070	29690	153211	27204	1081994	46678	111577	0	0	8071	549219	0	0
2024-08-15 16:12:47			0	37649	0	0	0	31070	29700	153247	27213	1081985	46667	111577	0	0	8071	548956	0	0
2024-08-15 16:13:47			0	37658	0	0	0	31072	29690	153271	27057	1081967	46667	111578	0	0	8072	548641	0	0
2024-08-15 16:14:47			0	37645	0	0	0	31077	29690	153155	27145	1082084	46667	111580	0	0	8071	549142	0	0
2024-08-15 16:15:47			0	37645	0	0	0	31054	29690	153271	27185	1081994	46667	111571	0	0	8071	549142	0	0
2024-08-15 16:16:47			0	37648	0	0	0	31049	29690	153371	27071	1081967	46656	111569	0	0	8072	549027	0	0
2024-08-15 16:17:47			0	37633	0	0	0	31041	29680	153311	27078	1081876	46655	111566	0	0	8071	549637	0	0
2024-08-15 16:18:47			0	37634	0	0	0	31038	29680	153363	27086	1081903	46655	111565	0	0	8071	549598	0	0
2024-08-15 16:19:47			0	37639	0	0	0	31041	29680	153271	27255	1081867	46654	111566	0	0	8071	549405	0	0
2024-08-15 16:20:47			0	37646	0	0	0	31036	29680	153371	27268	1081840	46654	111564	0	0	8072	549136	0	0
2024-08-15 16:21:47			0	37631	0	0	0	31046	29670	153383	27053	1081795	46666	111568	0	0	8071	549746	0	0
2024-08-15 16:22:47			0	37632	0	0	0	31036	29660	153295	27140	1081840	46653	111564	0	0	8071	549739	0	0
2024-08-15 16:23:47			0	37632	0	0	0	31038	29670	153227	27012	1081822	46666	111565	0	0	8071	549707	0	0
2024-08-15 16:24:47			0	37643	0	0	0	31038	29670	153259	27010	1081822	46654	111565	0	0	8072	549283	0	0
2024-08-15 16:25:47			0	37627	0	0	0	31049	29670	153319	26828	1081876	46654	111569	0	0	8070	549900	0	0
2024-08-15 16:26:47			0	37643	0	0	0	31046	29660	153203	26901	1081921	46665	111568	0	0	8071	549315	0	0
2024-08-15 16:27:47			0	37638	0	0	0	31057	29660	153315	26935	1081894	46665	111572	0	0	8071	549508	0	0
2024-08-15 16:28:47			0	37646	0	0	0	31051	29670	153411	26998	1081876	46666	111570	0	0	8071	549168	0	0
2024-08-15 16:29:47			0	37645	0	0	0	31054	29670	153303	27027	1081876	46676	111571	0	0	8071	549206	0	0
2024-08-15 16:30:47			0	37644	0	0	0	31059	29670	153307	27064	1081930	46666	111573	0	0	8071	549245	0	0
2024-08-15 16:31:47			0	37658	0	0	0	31051	29670	153311	27126	1081903	46643	111570	0	0	8072	548705	0	0
2024-08-15 16:32:47			0	37655	0	0	0	31059	29670	153367	27192	1081912	46666	111573	0	0	8072	548821	0	0
2024-08-15 16:33:47			0	37673	0	0	0	31059	29670	153307	26953	1081903	46666	111573	0	0	8073	548128	0	0
2024-08-15 16:34:47			0	37669	0	0	0	31049	29670	153287	27100	1081885	46666	111569	0	0	8073	548282	0	0
2024-08-15 16:35:47			0	37637	0	0	0	31038	29660	153283	27142	1081867	46665	111565	0	0	8071	549547	0	0
2024-08-15 16:36:47			0	37663	0	0	0	31044	29670	153263	26883	1081876	46666	111567	0	0	8073	548513	0	0
2024-08-15 16:37:47			0	37677	0	0	0	31046	29670	153211	27078	1081912	46666	111568	0	0	8073	547974	0	0
2024-08-15 16:38:47			0	37668	0	0	0	31051	29670	153211	27163	1081912	46654	111570	0	0	8073	548320	0	0
2024-08-15 16:39:47			0	37674	0	0	0	31057	29660	153155	26882	1081921	46675	111572	0	0	8073	548121	0	0
2024-08-15 16:40:47			0	37673	0	0	0	31031	29670	153195	27227	1081912	46676	111562	0	0	8073	548128	0	0
2024-08-15 16:41:47			0	37690	0	0	0	31015	29660	153171	26927	1081867	46675	111556	0	0	8075	547505	0	0
2024-08-15 16:42:47			0	37682	0	0	0	31007	29660	153059	27038	1081813	46653	111553	0	0	8074	547813	0	0
2024-08-15 16:43:47			0	37682	0	0	0	31025	29660	153087	26918	1081786	46665	111560	0	0	8074	547813	0	0
2024-08-15 16:44:47			0	37682	0	0	0	31041	29660	153019	27090	1081858	46664	111566	0	0	8074	547813	0	0
2024-08-15 16:45:47			0	37691	0	0	0	31041	29660	153035	27034	1081921	46675	111566	0	0	8074	547467	0	0
2024-08-15 16:46:47			0	37698	0	0	0	31012	29660	153011	27209	1081858	46674	111555	0	0	8075	547198	0	0
2024-08-15 16:47:47			0	37699	0	0	0	31010	29660	153003	27102	1081831	46664	111554	0	0	8075	547159	0	0
2024-08-15 16:48:47			0	37694	0	0	0	31028	29660	153019	27086	1081840	46665	111561	0	0	8075	547352	0	0
2024-08-15 16:49:47			0	37697	0	0	0	31033	29660	153051	26876	1081885	46674	111563	0	0	8075	547236	0	0
2024-08-15 16:50:47			0	37694	0	0	0	31036	29670	153023	26720	1081876	46676	111564	0	0	8074	547320	0	0
2024-08-15 16:51:47			0	37695	0	0	0	31038	29660	153039	26960	1081858	46664	111565	0	0	8074	547313	0	0
2024-08-15 16:52:47			0	37675	0	0	0	31049	29660	152919	26833	1081858	46664	111569	0	0	8073	548083	0	0
2024-08-15 16:53:47			0	37700	0	0	0	31046	29660	152991	27241	1081867	46675	111568	0	0	8075	547121	0	0
2024-08-15 16:54:47			0	37693	0	0	0	31046	29670	153011	26890	1081876	46654	111568	0	0	8074	547358	0	0
2024-08-15 16:55:47			0	37692	0	0	0	31046	29670	152971	26927	1081903	46666	111568	0	0	8074	547396	0	0
2024-08-15 16:56:47			0	37698	0	0	0	31044	29670	152935	27201	1081876	46654	111567	0	0	8075	547166	0	0
2024-08-15 16:57:47			0	37695	0	0	0	31041	29670	153007	27078	1081876	46666	111566	0	0	8074	547281	0	0
2024-08-15 16:58:47			0	37688	0	0	0	31041	29660	152951	27149	1081804	46664	111566	0	0	8074	547582	0	0
2024-08-15 16:59:47			0	37690	0	0	0	31057	29660	152963	27090	1081921	46665	111572	0	0	8074	547505	0	0
2024-08-15 17:00:47			0	37699	0	0	0	31046	29660	153019	27036	1081840	46665	111568	0	0	8075	547159	0	0
2024-08-15 17:01:47			0	37691	0	0	0	31049	29660	153019	27039	1081858	46664	111569	0	0	8074	547467	0	0
2024-08-15 17:02:47			0	37685	0	0	0	31062	29670	153019	27029	1081876	46676	111574	0	0	8074	547666	0	0
2024-08-15 17:03:47			0	37689	0	0	0	31057	29660	153187	27111	1081867	46665	111572	0	0	8074	547544	0	0
2024-08-15 17:04:47			0	37691	0	0	0	31054	29670	153083	27041	1081903	46688	111571	0	0	8074	547435	0	0
2024-08-15 17:05:47			0	37677	0	0	0	31051	29680	153151	27142	1081975	46666	111570	0	0	8073	547942	0	0
2024-08-15 17:06:47			0	37699	0	0	0	31049	29670	153211	27064	1081939	46676	111569	0	0	8075	547127	0	0
2024-08-15 17:07:47			0	37688	0	0	0	31015	29680	153227	26871	1081921	46666	111556	0	0	8075	547519	0	0
2024-08-15 17:08:47			0	37685	0	0	0	31031	29680	153075	26833	1081894	46654	111562	0	0	8074	547634	0	0
2024-08-15 17:09:47			0	37689	0	0	0	31028	29670	153131	27078	1081858	46654	111561	0	0	8074	547512	0	0
2024-08-15 17:10:47			0	37684	0	0	0	31036	29670	153075	27048	1081876	46676	111564	0	0	8074	547704	0	0
2024-08-15 17:11:47			0	37687	0	0	0	31038	29660	153099	27289	1081894	46665	111565	0	0	8074	547621	0	0
2024-08-15 17:12:47			0	37690	0	0	0	31041	29660	153219	26759	1081867	46653	111566	0	0	8074	547505	0	0
2024-08-15 17:13:47			0	37671	0	0	0	31031	29660	153211	27093	1081867	46675	111562	0	0	8073	548236	0	0
2024-08-15 17:14:47			0	37702	0	0	0	31036	29670	153175	26967	1081858	46666	111564	0	0	8075	547012	0	0
2024-08-15 17:15:47			0	37677	0	0	0	31036	29660	153183	27097	1081894	46675	111564	0	0	8073	548006	0	0
2024-08-15 17:16:47			0	37693	0	0	0	31031	29650	153163	27034	1081876	46673	111562	0	0	8074	547422	0	0
2024-08-15 17:17:47			0	37670	0	0	0	31023	29660	153075	26889	1081750	46652	111559	0	0	8073	548275	0	0
2024-08-15 17:18:47			0	37678	0	0	0	31031	29660	153083	27086	1081858	46664	111562	0	0	8074	547967	0	0
2024-08-15 17:19:47			0	37670	0	0	0	31025	29660	153027	27053	1081858	46664	111560	0	0	8073	548275	0	0
2024-08-15 17:20:47			0	37672	0	0	0	31025	29660	153151	26811	1081804	46664	111560	0	0	8073	548198	0	0
2024-08-15 17:21:47			0	37683	0	0	0	31028	29660	153095	27090	1081804	46664	111561	0	0	8074	547775	0	0
2024-08-15 17:22:47			0	37675	0	0	0	31028	29660	153131	27225	1081804	46664	111561	0	0	8073	548083	0	0
2024-08-15 17:23:47			0	37677	0	0	0	31023	29650	153135	26987	1081813	46663	111559	0	0	8074	548038	0	0
2024-08-15 17:24:47			0	37681	0	0	0	31015	29650	153239	26915	1081813	46651	111556	0	0	8074	547883	0	0
2024-08-15 17:25:47			0	37692	0	0	0	31010	29650	153031	27197	1081795	46640	111554	0	0	8075	547460	0	0
2024-08-15 17:26:47			0	37671	0	0	0	31002	29640	153051	26894	1081722	46651	111551	0	0	8074	548300	0	0
2024-08-15 17:27:47			0	37693	0	0	0	31005	29630	153071	27045	1081704	46638	111552	0	0	8075	547486	0	0
2024-08-15 17:28:47			0	37700	0	0	0	31005	29650	153059	27156	1081732	46651	111552	0	0	8075	547153	0	0
2024-08-15 17:29:47			0	37710	0	0	0	31010	29630	153123	27105	1081623	46638	111554	0	0	8076	546832	0	0
2024-08-15 17:30:47			0	37692	0	0	0	31010	29640	153019	27131	1081668	46673	111554	0	0	8075	547492	0	0
2024-08-15 17:31:47			0	37695	0	0	0	31010	29640	153035	27029	1081713	46650	111554	0	0	8075	547377	0	0
2024-08-15 17:32:47			0	37687	0	0	0	30992	29620	152959	27031	1081767	46671	111547	0	0	8075	547748	0	0
2024-08-15 17:33:47			0	37712	0	0	0	30984	29630	152903	26857	1081731	46671	111544	0	0	8076	546755	0	0
2024-08-15 17:34:47			0	37714	0	0	0	30968	29640	152955	27052	1081686	46662	111538	0	0	8077	546646	0	0
2024-08-15 17:35:47			0	37707	0	0	0	30961	29630	152971	27204	1081668	46649	111535	0	0	8076	546947	0	0
2024-08-15 17:36:47			0	37709	0	0	0	30989	29630	153039	27175	1081668	46671	111546	0	0	8076	546870	0	0
2024-08-15 17:37:47			0	37714	0	0	0	30997	29620	153027	26779	1081632	46649	111549	0	0	8076	546710	0	0
2024-08-15 17:38:47			0	37712	0	0	0	30958	29620	153067	27043	1081686	46661	111534	0	0	8077	546787	0	0
2024-08-15 17:39:47			0	37715	0	0	0	30973	29630	153035	27138	1081695	46661	111540	0	0	8077	546640	0	0
2024-08-15 17:40:47			0	37713	0	0	0	30989	29620	153003	26875	1081605	46671	111546	0	0	8076	546748	0	0
2024-08-15 17:41:47			0	37727	0	0	0	30971	29620	152959	26842	1081632	46671	111539	0	0	8077	546210	0	0
2024-08-15 17:42:47			0	37710	0	0	0	30958	29620	152919	26835	1081623	46660	111534	0	0	8076	546864	0	0
2024-08-15 17:43:47			0	37718	0	0	0	30940	29620	153003	26866	1081542	46648	111527	0	0	8077	546556	0	0
2024-08-15 17:44:47			0	37712	0	0	0	30948	29610	152975	26930	1081560	46669	111530	0	0	8077	546819	0	0
2024-08-15 17:45:47			0	37706	0	0	0	30935	29600	153047	26979	1081479	46658	111525	0	0	8077	547081	0	0
2024-08-15 17:46:47			0	37719	0	0	0	30966	29600	153023	26710	1081569	46636	111537	0	0	8077	546581	0	0
2024-08-15 17:47:47			0	37705	0	0	0	30976	29600	153055	26942	1081542	46659	111541	0	0	8076	547120	0	0
2024-08-15 17:48:47			0	37704	0	0	0	30984	29610	152979	26748	1081605	46659	111544	0	0	8076	547126	0	0
2024-08-15 17:49:47			0	37724	0	0	0	30986	29610	153075	26930	1081605	46669	111545	0	0	8077	546358	0	0
2024-08-15 17:50:47			0	37686	0	0	0	30984	29610	153047	27059	1081551	46659	111544	0	0	8075	547819	0	0
2024-08-15 17:51:47			0	37712	0	0	0	30966	29610	153111	27033	1081578	46659	111537	0	0	8076	546819	0	0
2024-08-15 17:52:47			0	37698	0	0	0	30973	29600	153139	26864	1081569	46659	111540	0	0	8075	547389	0	0
2024-08-15 17:53:47			0	37691	0	0	0	30968	29610	153035	26856	1081587	46659	111538	0	0	8075	547626	0	0
2024-08-15 17:54:47			0	37684	0	0	0	30973	29600	153151	27092	1081569	46669	111540	0	0	8075	547928	0	0
2024-08-15 17:55:47			0	37698	0	0	0	30973	29600	153215	26804	1081560	46658	111540	0	0	8075	547389	0	0
2024-08-15 17:56:47			0	37703	0	0	0	30986	29610	153203	26705	1081560	46659	111545	0	0	8076	547165	0	0
2024-08-15 17:57:47			0	37689	0	0	0	30971	29610	153163	26798	1081578	46669	111539	0	0	8075	547703	0	0
2024-08-15 17:58:47			0	37685	0	0	0	30971	29600	153067	26986	1081542	46647	111539	0	0	8075	547889	0	0
2024-08-15 17:59:47			0	37688	0	0	0	30961	29600	153123	26916	1081488	46647	111535	0	0	8075	547774	0	0
2024-08-15 18:00:47			0	37671	0	0	0	30942	29600	153099	26896	1081479	46646	111528	0	0	8074	548428	0	0
2024-08-15 18:01:47			0	37694	0	0	0	30932	29580	153159	27131	1081451	46656	111524	0	0	8076	547607	0	0
2024-08-15 18:02:47			0	37685	0	0	0	30924	29600	153083	26896	1081425	46658	111521	0	0	8076	547889	0	0
2024-08-15 18:03:47			0	37667	0	0	0	30914	29580	153179	26913	1081361	46656	111517	0	0	8075	548646	0	0
2024-08-15 18:04:47			0	37682	0	0	0	30911	29580	153079	27116	1081388	46656	111516	0	0	8075	548068	0	0
2024-08-15 18:05:47			0	37661	0	0	0	30922	29580	153247	26941	1081415	46666	111520	0	0	8074	548877	0	0
2024-08-15 18:06:47			0	37656	0	0	0	30935	29570	153211	26781	1081352	46655	111525	0	0	8074	549102	0	0
2024-08-15 18:07:47			0	37655	0	0	0	30927	29570	153267	26722	1081370	46654	111522	0	0	8074	549140	0	0
2024-08-15 18:08:47			0	37675	0	0	0	30932	29560	153211	26811	1081388	46654	111524	0	0	8075	548402	0	0
2024-08-15 18:09:47			0	37655	0	0	0	30945	29570	153211	26795	1081343	46665	111529	0	0	8073	549140	0	0
2024-08-15 18:10:47			0	37662	0	0	0	30963	29580	153235	26918	1081388	46666	111536	0	0	8073	548839	0	0
2024-08-15 18:11:47			0	37659	0	0	0	30961	29570	153243	26674	1081424	46654	111535	0	0	8073	548986	0	0
2024-08-15 18:12:47			0	37662	0	0	0	30971	29570	153291	27008	1081460	46655	111539	0	0	8073	548871	0	0
2024-08-15 18:13:47			0	37652	0	0	0	30968	29580	153327	26873	1081442	46656	111538	0	0	8073	549224	0	0
2024-08-15 18:14:47			0	37648	0	0	0	30950	29570	153323	26991	1081406	46655	111531	0	0	8073	549410	0	0
2024-08-15 18:15:47			0	37661	0	0	0	30935	29570	153355	26883	1081433	46643	111525	0	0	8074	548909	0	0
2024-08-15 18:16:47			0	37645	0	0	0	30935	29570	153215	26752	1081379	46655	111525	0	0	8073	549526	0	0
2024-08-15 18:17:47			0	37660	0	0	0	30940	29570	153227	26892	1081352	46666	111527	0	0	8074	548948	0	0
2024-08-15 18:18:47			0	37666	0	0	0	30940	29560	153211	26951	1081406	46654	111527	0	0	8074	548748	0	0
2024-08-15 18:19:47			0	37681	0	0	0	30932	29560	153251	26925	1081361	46642	111524	0	0	8075	548171	0	0
2024-08-15 18:20:47			0	37664	0	0	0	30935	29550	153295	26892	1081370	46664	111525	0	0	8074	548857	0	0
2024-08-15 18:21:47			0	37673	0	0	0	30937	29560	153279	26705	1081406	46631	111526	0	0	8074	548479	0	0
2024-08-15 18:22:47			0	37679	0	0	0	30927	29560	153291	26918	1081352	46642	111522	0	0	8075	548248	0	0
2024-08-15 18:23:47			0	37669	0	0	0	30916	29560	153239	26911	1081307	46665	111518	0	0	8075	548633	0	0
2024-08-15 18:24:47			0	37691	0	0	0	30911	29550	153223	26649	1081289	46641	111516	0	0	8076	547818	0	0
2024-08-15 18:25:47			0	37701	0	0	0	30893	29550	153191	26894	1081289	46653	111509	0	0	8077	547433	0	0
2024-08-15 18:26:47			0	37699	0	0	0	30877	29550	153159	26746	1081226	46652	111503	0	0	8077	547510	0	0
2024-08-15 18:27:47			0	37695	0	0	0	30901	29540	153275	26745	1081244	46652	111512	0	0	8076	547695	0	0
2024-08-15 18:28:47			0	37706	0	0	0	30906	29530	153263	26922	1081208	46652	111514	0	0	8077	547304	0	0
2024-08-15 18:29:47			0	37691	0	0	0	30880	29530	153223	26431	1081118	46662	111504	0	0	8076	547881	0	0
2024-08-15 18:30:47			0	37705	0	0	0	30870	29530	153239	26982	1081199	46651	111500	0	0	8077	547343	0	0
2024-08-15 18:31:47			0	37726	0	0	0	30833	29520	153247	26899	1081072	46626	111486	0	0	8079	546567	0	0
2024-08-15 18:32:47			0	37742	0	0	0	30810	29510	153115	26812	1081027	46637	111477	0	0	8080	545984	0	0
2024-08-15 18:33:47			0	37734	0	0	0	30828	29500	153035	26941	1081009	46625	111484	0	0	8079	546323	0	0
2024-08-15 18:34:47			0	37744	0	0	0	30854	29480	153143	26713	1080955	46646	111494	0	0	8080	546003	0	0
2024-08-15 18:35:47			0	37735	0	0	0	30864	29490	153183	26760	1080946	46635	111498	0	0	8079	546316	0	0
2024-08-15 18:36:47			0	37756	0	0	0	30877	29480	153127	26587	1080955	46646	111503	0	0	8080	545542	0	0
2024-08-15 18:37:47			0	37770	0	0	0	30875	29490	153051	26982	1080991	46647	111502	0	0	8081	544973	0	0
2024-08-15 18:38:47			0	37759	0	0	0	30875	29490	153083	26852	1080991	46658	111502	0	0	8080	545395	0	0
2024-08-15 18:39:47			0	37774	0	0	0	30875	29480	153039	27097	1081009	46657	111502	0	0	8081	544851	0	0
2024-08-15 18:40:47			0	37766	0	0	0	30864	29490	153007	27114	1081018	46658	111498	0	0	8081	545126	0	0
2024-08-15 18:41:47			0	37776	0	0	0	30870	29490	152851	26750	1081045	46658	111500	0	0	8081	544742	0	0
2024-08-15 18:42:47			0	37782	0	0	0	30851	29470	152847	26861	1080936	46645	111493	0	0	8082	544576	0	0
2024-08-15 18:43:47			0	37788	0	0	0	30851	29480	152871	26651	1081000	46656	111493	0	0	8082	544314	0	0
2024-08-15 18:44:47			0	37792	0	0	0	30849	29490	152823	26786	1081018	46647	111492	0	0	8082	544129	0	0
2024-08-15 18:45:47			0	37795	0	0	0	30833	29470	152703	26859	1080927	46645	111486	0	0	8083	544077	0	0
2024-08-15 18:46:47			0	37808	0	0	0	30823	29470	152815	27187	1080792	46645	111482	0	0	8084	543579	0	0
2024-08-15 18:47:47			0	37788	0	0	0	30812	29440	152787	27112	1080774	46630	111478	0	0	8083	544441	0	0
2024-08-15 18:48:47			0	37815	0	0	0	30820	29450	152811	26819	1080792	46642	111481	0	0	8084	543374	0	0
2024-08-15 18:49:47			0	37800	0	0	0	30836	29450	152675	27182	1080792	46653	111487	0	0	8083	543949	0	0
2024-08-15 18:50:47			0	37812	0	0	0	30841	29450	152747	27059	1080783	46630	111489	0	0	8084	543489	0	0
2024-08-15 18:51:47			0	37816	0	0	0	30841	29450	152807	27164	1080792	46653	111489	0	0	8084	543336	0	0
2024-08-15 18:52:47			0	37845	0	0	0	30844	29440	152707	26939	1080801	46665	111490	0	0	8085	542258	0	0
2024-08-15 18:53:47			0	37845	0	0	0	30831	29460	152663	26824	1080810	46644	111485	0	0	8086	542195	0	0
2024-08-15 18:54:47			0	37833	0	0	0	30825	29450	152695	26816	1080738	46630	111483	0	0	8085	542685	0	0
2024-08-15 18:55:47			0	37834	0	0	0	30828	29450	152631	27041	1080729	46653	111484	0	0	8085	542647	0	0
2024-08-15 18:56:47			0	37837	0	0	0	30828	29440	152651	27100	1080774	46630	111484	0	0	8085	542564	0	0
2024-08-15 18:57:47			0	37835	0	0	0	30828	29440	152683	27050	1080774	46653	111484	0	0	8085	542640	0	0
2024-08-15 18:58:47			0	37858	0	0	0	30828	29440	152607	26682	1080792	46641	111484	0	0	8086	541761	0	0
2024-08-15 18:59:47			0	37857	0	0	0	30823	29440	152483	26956	1080828	46642	111482	0	0	8086	541799	0	0
2024-08-15 19:00:47			0	37856	0	0	0	30831	29440	152615	26845	1080774	46653	111485	0	0	8086	541837	0	0
2024-08-15 19:01:47			0	37867	0	0	0	30833	29440	152607	27109	1080738	46629	111486	0	0	8087	541417	0	0
2024-08-15 19:02:47			0	37879	0	0	0	30833	29450	152647	26648	1080729	46642	111486	0	0	8087	540927	0	0
2024-08-15 19:03:47			0	37864	0	0	0	30838	29440	152547	27003	1080738	46652	111488	0	0	8087	541531	0	0
2024-08-15 19:04:47			0	37887	0	0	0	30831	29440	152655	26665	1080792	46664	111485	0	0	8088	540653	0	0
2024-08-15 19:05:47			0	37870	0	0	0	30828	29440	152563	26837	1080792	46652	111484	0	0	8087	541302	0	0
2024-08-15 19:06:47			0	37880	0	0	0	30823	29440	152591	26738	1080684	46641	111482	0	0	8088	540920	0	0
2024-08-15 19:07:47			0	37883	0	0	0	30825	29440	152475	26871	1080765	46641	111483	0	0	8088	540806	0	0
2024-08-15 19:08:47			0	37872	0	0	0	30831	29440	152463	26941	1080738	46664	111485	0	0	8087	541226	0	0
2024-08-15 19:09:47			0	37889	0	0	0	30820	29440	152523	26765	1080684	46641	111481	0	0	8088	540576	0	0
2024-08-15 19:10:47			0	37894	0	0	0	30825	29430	152411	26689	1080702	46651	111483	0	0	8088	540417	0	0
2024-08-15 19:11:47			0	37883	0	0	0	30815	29430	152391	26960	1080702	46640	111479	0	0	8088	540837	0	0
2024-08-15 19:12:47			0	37902	0	0	0	30818	29430	152471	26729	1080746	46640	111480	0	0	8089	540112	0	0
2024-08-15 19:13:47			0	37896	0	0	0	30818	29430	152491	26745	1080638	46640	111480	0	0	8089	540341	0	0
2024-08-15 19:14:47			0	37901	0	0	0	30810	29420	152443	26566	1080674	46639	111477	0	0	8089	540181	0	0
2024-08-15 19:15:47			0	37906	0	0	0	30807	29440	152455	26785	1080657	46641	111476	0	0	8089	539928	0	0
2024-08-15 19:16:47			0	37904	0	0	0	30802	29430	152467	26850	1080692	46640	111474	0	0	8089	540036	0	0
2024-08-15 19:17:47			0	37899	0	0	0	30810	29420	152459	26833	1080647	46639	111477	0	0	8089	540258	0	0
2024-08-15 19:18:47			0	37895	0	0	0	30799	29420	152447	26615	1080602	46651	111473	0	0	8089	540410	0	0
2024-08-15 19:19:47			0	37919	0	0	0	30792	29420	152491	26890	1080566	46639	111470	0	0	8090	539495	0	0
2024-08-15 19:20:47			0	37918	0	0	0	30792	29420	152467	26915	1080566	46650	111470	0	0	8090	539533	0	0
2024-08-15 19:21:47			0	37916	0	0	0	30792	29410	152559	27135	1080638	46649	111470	0	0	8090	539641	0	0
2024-08-15 19:22:47			0	37905	0	0	0	30786	29400	152499	26939	1080485	46649	111468	0	0	8090	540092	0	0
2024-08-15 19:23:47			0	37898	0	0	0	30781	29400	152523	27031	1080485	46649	111466	0	0	8089	540359	0	0
2024-08-15 19:24:47			0	37915	0	0	0	30776	29410	152503	26592	1080521	46649	111464	0	0	8090	539679	0	0
2024-08-15 19:25:47			0	37934	0	0	0	30784	29410	152375	26696	1080548	46649	111467	0	0	8091	538955	0	0
2024-08-15 19:26:47			0	37921	0	0	0	30784	29400	152419	26925	1080530	46637	111467	0	0	8091	539481	0	0
2024-08-15 19:27:47			0	37926	0	0	0	30784	29400	152447	27029	1080530	46648	111467	0	0	8091	539291	0	0
2024-08-15 19:28:47			0	37927	0	0	0	30779	29400	152403	26866	1080530	46648	111465	0	0	8091	539253	0	0
2024-08-15 19:29:47			0	37932	0	0	0	30779	29400	152195	26932	1080584	46648	111465	0	0	8091	539062	0	0
2024-08-15 19:30:47			0	37938	0	0	0	30781	29400	152407	26994	1080503	46637	111466	0	0	8092	538833	0	0
2024-08-15 19:31:47			0	37957	0	0	0	30758	29400	152415	26946	1080476	46648	111457	0	0	8093	538110	0	0
2024-08-15 19:32:47			0	37942	0	0	0	30732	29390	152407	27001	1080377	46636	111447	0	0	8093	538712	0	0
2024-08-15 19:33:47			0	37938	0	0	0	30732	29380	152387	26823	1080439	46635	111447	0	0	8092	538896	0	0
2024-08-15 19:34:47			0	37956	0	0	0	30748	29380	152423	26760	1080385	46635	111453	0	0	8093	538211	0	0
2024-08-15 19:35:47			0	37944	0	0	0	30763	29380	152383	26868	1080394	46635	111459	0	0	8092	538667	0	0
2024-08-15 19:36:47			0	37957	0	0	0	30753	29370	152419	26981	1080367	46645	111455	0	0	8093	538204	0	0
2024-08-15 19:37:47			0	37939	0	0	0	30761	29370	152375	26986	1080349	46645	111458	0	0	8092	538889	0	0
2024-08-15 19:38:47			0	37979	0	0	0	30755	29370	152335	27012	1080349	46657	111456	0	0	8094	537367	0	0
2024-08-15 19:39:47			0	37964	0	0	0	30755	29370	152307	26987	1080349	46657	111456	0	0	8093	537937	0	0
2024-08-15 19:40:47			0	37965	0	0	0	30750	29370	152359	27093	1080322	46645	111454	0	0	8093	537899	0	0
2024-08-15 19:41:47			0	37979	0	0	0	30753	29370	152307	26625	1080340	46645	111455	0	0	8094	537367	0	0
2024-08-15 19:42:47			0	37974	0	0	0	30750	29360	152279	27041	1080385	46633	111454	0	0	8094	537588	0	0
2024-08-15 19:43:47			0	37969	0	0	0	30748	29370	152431	26948	1080340	46634	111453	0	0	8094	537747	0	0
2024-08-15 19:44:47			0	37979	0	0	0	30755	29360	152243	26797	1080349	46644	111456	0	0	8094	537398	0	0
2024-08-15 19:45:47			0	37968	0	0	0	30753	29360	152255	26680	1080322	46644	111455	0	0	8094	537816	0	0
2024-08-15 19:46:47			0	37983	0	0	0	30750	29370	152259	27085	1080340	46657	111454	0	0	8094	537214	0	0
2024-08-15 19:47:47			0	37973	0	0	0	30745	29360	152263	27022	1080322	46644	111452	0	0	8094	537626	0	0
2024-08-15 19:48:47			0	37996	0	0	0	30745	29350	152279	26769	1080340	46666	111452	0	0	8095	536783	0	0
2024-08-15 19:49:47			0	37998	0	0	0	30737	29360	152159	27076	1080268	46656	111449	0	0	8096	536675	0	0
2024-08-15 19:50:47			0	37980	0	0	0	30724	29350	152239	26731	1080277	46631	111444	0	0	8095	537391	0	0
2024-08-15 19:51:47			0	37979	0	0	0	30714	29360	152183	26739	1080214	46644	111440	0	0	8095	537398	0	0
2024-08-15 19:52:47			0	37977	0	0	0	30693	29350	152247	26927	1080259	46632	111432	0	0	8095	537505	0	0
2024-08-15 19:53:47			0	37992	0	0	0	30703	29340	152223	26927	1080214	46631	111436	0	0	8096	536966	0	0
2024-08-15 19:54:47			0	37982	0	0	0	30709	29340	152295	26935	1080178	46642	111438	0	0	8095	537346	0	0
2024-08-15 19:55:47			0	37997	0	0	0	30711	29350	152343	26672	1080169	46631	111439	0	0	8096	536745	0	0
2024-08-15 19:56:47			0	37979	0	0	0	30719	29340	152371	26916	1080160	46631	111442	0	0	8095	537460	0	0
2024-08-15 19:57:47			0	37979	0	0	0	30722	29340	152227	26653	1080187	46631	111443	0	0	8095	537460	0	0
2024-08-15 19:58:47			0	38003	0	0	0	30716	29340	152275	26826	1080133	46642	111441	0	0	8096	536548	0	0
2024-08-15 19:59:47			0	37984	0	0	0	30711	29340	152123	26713	1080232	46642	111439	0	0	8095	537270	0	0
2024-08-15 20:00:47			0	37995	0	0	0	30711	29330	152191	26778	1080169	46630	111439	0	0	8096	536883	0	0
2024-08-15 20:01:47			0	37990	0	0	0	30709	29330	152243	26620	1080187	46629	111438	0	0	8095	537073	0	0
2024-08-15 20:02:47			0	37979	0	0	0	30698	29330	152155	26939	1080115	46619	111434	0	0	8095	537492	0	0
2024-08-15 20:03:47			0	37987	0	0	0	30683	29330	152267	26844	1080133	46652	111428	0	0	8096	537187	0	0
2024-08-15 20:04:47			0	37989	0	0	0	30698	29330	152291	26680	1080133	46640	111434	0	0	8096	537111	0	0
2024-08-15 20:05:47			0	37969	0	0	0	30696	29320	152267	26805	1080070	46629	111433	0	0	8094	537903	0	0
2024-08-15 20:06:47			0	37970	0	0	0	30688	29320	152239	26729	1080034	46639	111430	0	0	8095	537865	0	0
2024-08-15 20:07:47			0	37989	0	0	0	30685	29320	152311	27045	1080061	46628	111429	0	0	8096	537142	0	0
2024-08-15 20:08:47			0	37952	0	0	0	30672	29320	152375	27000	1080088	46639	111424	0	0	8094	538551	0	0
2024-08-15 20:09:47			0	37953	0	0	0	30680	29310	152343	26729	1080079	46628	111427	0	0	8094	538544	0	0
2024-08-15 20:10:47			0	37958	0	0	0	30683	29310	152355	26816	1080096	46638	111428	0	0	8094	538353	0	0
2024-08-15 20:11:47			0	37968	0	0	0	30683	29300	152451	26760	1080033	46650	111428	0	0	8094	538004	0	0
2024-08-15 20:12:47			0	37947	0	0	0	30675	29300	152395	26838	1080024	46615	111425	0	0	8093	538804	0	0
2024-08-15 20:13:47			0	37967	0	0	0	30672	29300	152303	26956	1079952	46627	111424	0	0	8095	538042	0	0
2024-08-15 20:14:47			0	37959	0	0	0	30664	29300	152371	26774	1079970	46649	111421	0	0	8094	538347	0	0
2024-08-15 20:15:47			0	37946	0	0	0	30667	29300	152363	26972	1079943	46637	111422	0	0	8093	538842	0	0
2024-08-15 20:16:47			0	37940	0	0	0	30649	29290	152399	26904	1079907	46637	111415	0	0	8093	539102	0	0
2024-08-15 20:17:47			0	37945	0	0	0	30654	29290	152411	26955	1079898	46636	111417	0	0	8094	538911	0	0
2024-08-15 20:18:47			0	37954	0	0	0	30649	29290	152439	26585	1079907	46649	111415	0	0	8094	538568	0	0
2024-08-15 20:19:47			0	37955	0	0	0	30631	29290	152379	26623	1079826	46637	111408	0	0	8095	538530	0	0
2024-08-15 20:20:47			0	37932	0	0	0	30631	29280	152503	26793	1079880	46625	111408	0	0	8093	539438	0	0
2024-08-15 20:21:47			0	37935	0	0	0	30636	29270	152459	26821	1079808	46634	111410	0	0	8093	539355	0	0
2024-08-15 20:22:47			0	37928	0	0	0	30636	29280	152495	27024	1079853	46647	111410	0	0	8093	539591	0	0
2024-08-15 20:23:47			0	37918	0	0	0	30638	29270	152443	27043	1079835	46634	111411	0	0	8092	540004	0	0
2024-08-15 20:24:47			0	37931	0	0	0	30662	29270	152475	26951	1079835	46634	111420	0	0	8093	539508	0	0
2024-08-15 20:25:47			0	37903	0	0	0	30651	29270	152443	27052	1079835	46657	111416	0	0	8091	540576	0	0
2024-08-15 20:26:47			0	37898	0	0	0	30657	29270	152563	27015	1079871	46635	111418	0	0	8091	540767	0	0
2024-08-15 20:27:47			0	37915	0	0	0	30667	29280	152467	27377	1079916	46625	111422	0	0	8092	540087	0	0
2024-08-15 20:28:47			0	37899	0	0	0	30662	29270	152591	27187	1079862	46646	111420	0	0	8091	540729	0	0
2024-08-15 20:29:47			0	37911	0	0	0	30667	29260	152595	27149	1079826	46645	111422	0	0	8091	540302	0	0
2024-08-15 20:30:47			0	37879	0	0	0	30657	29270	152567	26937	1079889	46634	111418	0	0	8090	541493	0	0
2024-08-15 20:31:47			0	37886	0	0	0	30649	29260	152591	27157	1079745	46633	111415	0	0	8090	541257	0	0
2024-08-15 20:32:47			0	37880	0	0	0	30654	29250	152571	26890	1079789	46633	111417	0	0	8090	541518	0	0
2024-08-15 20:33:47			0	37863	0	0	0	30657	29250	152635	26911	1079789	46633	111418	0	0	8089	542168	0	0
2024-08-15 20:34:47			0	37866	0	0	0	30654	29250	152643	27043	1079789	46645	111417	0	0	8089	542053	0	0
2024-08-15 20:35:47			0	37847	0	0	0	30654	29250	152703	27135	1079735	46623	111417	0	0	8088	542780	0	0
2024-08-15 20:36:47			0	37855	0	0	0	30644	29240	152819	26798	1079717	46644	111413	0	0	8088	542506	0	0
2024-08-15 20:37:47			0	37853	0	0	0	30644	29250	152863	26944	1079789	46645	111413	0	0	8088	542551	0	0
2024-08-15 20:38:47			0	37843	0	0	0	30620	29250	152771	26996	1079708	46645	111404	0	0	8088	542934	0	0
2024-08-15 20:39:47			0	37824	0	0	0	30594	29240	152791	26745	1079627	46609	111394	0	0	8087	543693	0	0
2024-08-15 20:40:47			0	37836	0	0	0	30571	29230	152787	26913	1079564	46621	111385	0	0	8088	543265	0	0
2024-08-15 20:41:47			0	37820	0	0	0	30542	29230	152935	27050	1079528	46597	111374	0	0	8088	543878	0	0
2024-08-15 20:42:47			0	37805	0	0	0	30519	29210	152907	27138	1079339	46619	111365	0	0	8087	544516	0	0
2024-08-15 20:43:47			0	37804	0	0	0	30519	29200	153039	27052	1079420	46605	111365	0	0	8087	544586	0	0
2024-08-15 20:44:47			0	37802	0	0	0	30548	29190	153043	26958	1079357	46605	111376	0	0	8087	544695	0	0
2024-08-15 20:45:47			0	37785	0	0	0	30485	29190	153023	27048	1079222	46605	111352	0	0	8087	545348	0	0
2024-08-15 20:46:47			0	37770	0	0	0	30436	29160	152963	26850	1079033	46590	111333	0	0	8087	546019	0	0
2024-08-15 20:47:47			0	37771	0	0	0	30431	29160	153059	27022	1079050	46590	111331	0	0	8087	545980	0	0
2024-08-15 20:48:47			0	37755	0	0	0	30472	29150	153135	27145	1079005	46612	111347	0	0	8085	546627	0	0
2024-08-15 20:49:47			0	37726	0	0	0	30488	29140	153223	27064	1079095	46621	111353	0	0	8083	547776	0	0
2024-08-15 20:50:47			0	37715	0	0	0	30511	29150	153347	27130	1079140	46623	111362	0	0	8082	548168	0	0
2024-08-15 20:51:47			0	37710	0	0	0	30527	29140	153435	27041	1079185	46644	111368	0	0	8081	548392	0	0
2024-08-15 20:52:47			0	37734	0	0	0	30519	29150	153403	27189	1079221	46634	111365	0	0	8083	547436	0	0
2024-08-15 20:53:47			0	37721	0	0	0	30501	29150	153391	26939	1079140	46634	111358	0	0	8083	547936	0	0
2024-08-15 20:54:47			0	37691	0	0	0	30490	29140	153375	27119	1079122	46632	111354	0	0	8081	549125	0	0
2024-08-15 20:55:47			0	37688	0	0	0	30459	29140	153507	27118	1079041	46621	111342	0	0	8081	549241	0	0
2024-08-15 20:56:47			0	37688	0	0	0	30472	29130	153611	26852	1079032	46610	111347	0	0	8081	549273	0	0
2024-08-15 20:57:47			0	37656	0	0	0	30506	29120	153699	27137	1079068	46631	111360	0	0	8079	550540	0	0
2024-08-15 20:58:47			0	37641	0	0	0	30514	29120	153691	26901	1079095	46631	111363	0	0	8078	551120	0	0
2024-08-15 20:59:47			0	37659	0	0	0	30537	29130	153695	27248	1079185	46621	111372	0	0	8078	550392	0	0
2024-08-15 21:00:47			0	37625	0	0	0	30555	29130	153807	26984	1079194	46632	111379	0	0	8076	551707	0	0
2024-08-15 21:01:47			0	37615	0	0	0	30566	29140	153811	27223	1079212	46633	111383	0	0	8075	552062	0	0
2024-08-15 21:02:47			0	37628	0	0	0	30561	29140	153919	26809	1079230	46621	111381	0	0	8076	551559	0	0
2024-08-15 21:03:47			0	37609	0	0	0	30545	29140	153891	26996	1079257	46643	111375	0	0	8075	552294	0	0
2024-08-15 21:04:47			0	37607	0	0	0	30550	29150	153859	26899	1079194	46634	111377	0	0	8075	552340	0	0
2024-08-15 21:05:47			0	37603	0	0	0	30558	29140	153775	26899	1079212	46633	111380	0	0	8075	552527	0	0
2024-08-15 21:06:47			0	37599	0	0	0	30558	29150	153955	26703	1079230	46634	111380	0	0	8075	552650	0	0
2024-08-15 21:07:47			0	37606	0	0	0	30561	29150	153807	26925	1079257	46623	111381	0	0	8075	552379	0	0
2024-08-15 21:08:47			0	37600	0	0	0	30558	29150	153847	26916	1079302	46634	111380	0	0	8075	552611	0	0
2024-08-15 21:09:47			0	37598	0	0	0	30558	29160	153875	26975	1079293	46635	111380	0	0	8075	552656	0	0
2024-08-15 21:10:47			0	37596	0	0	0	30550	29160	153791	27156	1079347	46646	111377	0	0	8075	552734	0	0
2024-08-15 21:11:47			0	37612	0	0	0	30550	29150	153871	27069	1079284	46634	111377	0	0	8076	552146	0	0
2024-08-15 21:12:47			0	37605	0	0	0	30532	29150	153931	27079	1079230	46645	111370	0	0	8075	552417	0	0
2024-08-15 21:13:47			0	37603	0	0	0	30542	29150	153871	27118	1079221	46612	111374	0	0	8075	552495	0	0
2024-08-15 21:14:47			0	37600	0	0	0	30548	29150	153783	27137	1079284	46634	111376	0	0	8075	552611	0	0
2024-08-15 21:15:47			0	37617	0	0	0	30553	29160	153875	27093	1079275	46624	111378	0	0	8076	551920	0	0
2024-08-15 21:16:47			0	37613	0	0	0	30555	29150	153927	26975	1079284	46623	111379	0	0	8075	552107	0	0
2024-08-15 21:17:47			0	37618	0	0	0	30555	29160	153795	26781	1079275	46624	111379	0	0	8076	551882	0	0
2024-08-15 21:18:47			0	37633	0	0	0	30545	29160	153763	26868	1079212	46635	111375	0	0	8077	551302	0	0
2024-08-15 21:19:47			0	37624	0	0	0	30540	29160	153847	26656	1079266	46635	111373	0	0	8076	551650	0	0
2024-08-15 21:20:47			0	37624	0	0	0	30540	29150	153843	27092	1079257	46634	111373	0	0	8076	551682	0	0
2024-08-15 21:21:47			0	37622	0	0	0	30542	29150	153707	26989	1079257	46634	111374	0	0	8076	551759	0	0
2024-08-15 21:22:47			0	37639	0	0	0	30542	29160	153795	26771	1079248	46635	111374	0	0	8077	551069	0	0
2024-08-15 21:23:47			0	37646	0	0	0	30553	29160	153707	26963	1079293	46624	111378	0	0	8077	550799	0	0
2024-08-15 21:24:47			0	37644	0	0	0	30561	29160	153723	26948	1079329	46613	111381	0	0	8077	550876	0	0
2024-08-15 21:25:47			0	37642	0	0	0	30553	29160	153719	27001	1079302	46635	111378	0	0	8077	550953	0	0
2024-08-15 21:26:47			0	37651	0	0	0	30550	29160	153659	27114	1079356	46635	111377	0	0	8078	550606	0	0
2024-08-15 21:27:47			0	37650	0	0	0	30574	29160	153775	27093	1079329	46635	111386	0	0	8077	550644	0	0
2024-08-15 21:28:47			0	37660	0	0	0	30568	29160	153691	27055	1079356	46624	111384	0	0	8078	550258	0	0
2024-08-15 21:29:47			0	37659	0	0	0	30568	29170	153627	27057	1079321	46625	111384	0	0	8078	550264	0	0
2024-08-15 21:30:47			0	37651	0	0	0	30561	29170	153695	26906	1079284	46614	111381	0	0	8078	550574	0	0
2024-08-15 21:31:47			0	37653	0	0	0	30568	29170	153747	26909	1079284	46625	111384	0	0	8078	550496	0	0
2024-08-15 21:32:47			0	37637	0	0	0	30574	29170	153747	26939	1079311	46625	111386	0	0	8077	551115	0	0
2024-08-15 21:33:47			0	37649	0	0	0	30558	29160	153635	27140	1079248	46613	111380	0	0	8078	550683	0	0
2024-08-15 21:34:47			0	37664	0	0	0	30548	29160	153719	26828	1079248	46624	111376	0	0	8079	550103	0	0
2024-08-15 21:35:47			0	37648	0	0	0	30529	29170	153779	27180	1079230	46625	111369	0	0	8078	550690	0	0
2024-08-15 21:36:47			0	37651	0	0	0	30522	29160	153755	26991	1079221	46613	111366	0	0	8078	550606	0	0
2024-08-15 21:37:47			0	37650	0	0	0	30511	29150	153683	27372	1079176	46623	111362	0	0	8078	550676	0	0
2024-08-15 21:38:47			0	37645	0	0	0	30516	29140	153643	27242	1079176	46610	111364	0	0	8078	550901	0	0
2024-08-15 21:39:47			0	37644	0	0	0	30522	29140	153819	27007	1079149	46621	111366	0	0	8078	550940	0	0
2024-08-15 21:40:47			0	37618	0	0	0	30532	29140	153783	26944	1079212	46633	111370	0	0	8076	551946	0	0
2024-08-15 21:41:47			0	37634	0	0	0	30519	29150	153867	27232	1079194	46634	111365	0	0	8077	551295	0	0
2024-08-15 21:42:47			0	37632	0	0	0	30522	29140	153775	26757	1079122	46621	111366	0	0	8077	551404	0	0
2024-08-15 21:43:47			0	37622	0	0	0	30527	29130	153867	26885	1079086	46632	111368	0	0	8076	551823	0	0
2024-08-15 21:44:47			0	37625	0	0	0	30519	29130	153763	27218	1079059	46621	111365	0	0	8077	551707	0	0
2024-08-15 21:45:47			0	37637	0	0	0	30516	29130	153771	26939	1079086	46621	111364	0	0	8077	551243	0	0
2024-08-15 21:46:47			0	37624	0	0	0	30514	29130	153779	26713	1079077	46632	111363	0	0	8077	551746	0	0
2024-08-15 21:47:47			0	37619	0	0	0	30519	29130	153835	26739	1079194	46632	111365	0	0	8076	551939	0	0
2024-08-15 21:48:47			0	37624	0	0	0	30511	29130	153831	27138	1079077	46621	111362	0	0	8077	551746	0	0
2024-08-15 21:49:47			0	37631	0	0	0	30514	29120	153775	26833	1079095	46631	111363	0	0	8077	551507	0	0
2024-08-15 21:50:47			0	37627	0	0	0	30503	29120	153815	26961	1079068	46620	111359	0	0	8077	551662	0	0
2024-08-15 21:51:47			0	37652	0	0	0	30493	29110	153843	26949	1079050	46630	111355	0	0	8079	550727	0	0
2024-08-15 21:52:47			0	37639	0	0	0	30493	29110	153791	27197	1079076	46619	111355	0	0	8078	551229	0	0
2024-08-15 21:53:47			0	37638	0	0	0	30493	29130	153811	27131	1079023	46632	111355	0	0	8078	551204	0	0
2024-08-15 21:54:47			0	37640	0	0	0	30490	29120	153839	26660	1079014	46620	111354	0	0	8078	551159	0	0
2024-08-15 21:55:47			0	37643	0	0	0	30496	29110	153887	26668	1078986	46596	111356	0	0	8078	551075	0	0
2024-08-15 21:56:47			0	37629	0	0	0	30496	29110	153783	27013	1079023	46619	111356	0	0	8077	551616	0	0
2024-08-15 21:57:47			0	37618	0	0	0	30496	29120	153783	27095	1079032	46619	111356	0	0	8077	552010	0	0
2024-08-15 21:58:47			0	37639	0	0	0	30496	29110	153863	27090	1079023	46630	111356	0	0	8078	551229	0	0
2024-08-15 21:59:47			0	37622	0	0	0	30501	29110	153843	27034	1079023	46630	111358	0	0	8077	551887	0	0
2024-08-15 22:00:47			0	37642	0	0	0	30498	29110	153755	27105	1079067	46630	111357	0	0	8078	551113	0	0
2024-08-15 22:01:47			0	37611	0	0	0	30503	29110	153835	26835	1079040	46641	111359	0	0	8076	552313	0	0
2024-08-15 22:02:47			0	37630	0	0	0	30506	29120	153851	27079	1079059	46630	111360	0	0	8077	551546	0	0
2024-08-15 22:03:47			0	37610	0	0	0	30475	29120	153875	27005	1079041	46620	111348	0	0	8077	552320	0	0
2024-08-15 22:04:47			0	37629	0	0	0	30470	29110	153879	27050	1079023	46630	111346	0	0	8078	551616	0	0
2024-08-15 22:05:47			0	37624	0	0	0	30462	29110	153831	26852	1078996	46630	111343	0	0	8077	551810	0	0
2024-08-15 22:06:47			0	37619	0	0	0	30472	29120	153895	26890	1078978	46608	111347	0	0	8077	551971	0	0
2024-08-15 22:07:47			0	37614	0	0	0	30470	29110	153847	26870	1079023	46619	111346	0	0	8077	552197	0	0
2024-08-15 22:08:47			0	37606	0	0	0	30490	29120	153995	26809	1079068	46597	111354	0	0	8076	552475	0	0
2024-08-15 22:09:47			0	37607	0	0	0	30498	29100	153839	26722	1079058	46618	111357	0	0	8076	552500	0	0
2024-08-15 22:10:47			0	37611	0	0	0	30501	29110	153843	27034	1079076	46641	111358	0	0	8076	552313	0	0
2024-08-15 22:11:47			0	37616	0	0	0	30522	29120	153875	26920	1079068	46620	111366	0	0	8076	552087	0	0
2024-08-15 22:12:47			0	37612	0	0	0	30506	29120	153863	26743	1079086	46641	111360	0	0	8076	552242	0	0
2024-08-15 22:13:47			0	37614	0	0	0	30490	29110	153887	27059	1078996	46608	111354	0	0	8076	552197	0	0
2024-08-15 22:14:47			0	37609	0	0	0	30475	29120	153927	27067	1079059	46619	111348	0	0	8076	552358	0	0
2024-08-15 22:15:47			0	37602	0	0	0	30488	29110	153835	27239	1079050	46619	111353	0	0	8076	552662	0	0
2024-08-15 22:16:47			0	37603	0	0	0	30483	29110	153879	27119	1078969	46630	111351	0	0	8076	552623	0	0
2024-08-15 22:17:47			0	37597	0	0	0	30485	29110	153923	27131	1079067	46630	111352	0	0	8076	552855	0	0
2024-08-15 22:18:47			0	37590	0	0	0	30467	29110	153875	26828	1079050	46608	111345	0	0	8075	553127	0	0
2024-08-15 22:19:47			0	37593	0	0	0	30457	29100	153915	26897	1078941	46617	111341	0	0	8076	553043	0	0
2024-08-15 22:20:47			0	37586	0	0	0	30436	29100	153999	26923	1078923	46618	111333	0	0	8076	553314	0	0
2024-08-15 22:21:47			0	37589	0	0	0	30425	29100	154047	27079	1078833	46606	111329	0	0	8076	553198	0	0
2024-08-15 22:22:47			0	37583	0	0	0	30425	29080	153927	26648	1078779	46605	111329	0	0	8076	553495	0	0
2024-08-15 22:23:47			0	37580	0	0	0	30399	29080	154031	27057	1078698	46605	111319	0	0	8076	553611	0	0
2024-08-15 22:24:47			0	37569	0	0	0	30316	29070	154011	26944	1078599	46591	111287	0	0	8077	554070	0	0
2024-08-15 22:25:47			0	37564	0	0	0	30244	29060	154207	26738	1078437	46590	111259	0	0	8077	554296	0	0
2024-08-15 22:26:47			0	37553	0	0	0	30272	29030	154123	26833	1078356	46566	111270	0	0	8076	554820	0	0
2024-08-15 22:27:47			0	37527	0	0	0	30314	29020	154279	26691	1078400	46599	111286	0	0	8074	555863	0	0
2024-08-15 22:28:47			0	37522	0	0	0	30340	29010	154295	27045	1078427	46607	111296	0	0	8073	556090	0	0
2024-08-15 22:29:47			0	37487	0	0	0	30353	29030	154423	27003	1078437	46610	111301	0	0	8071	557388	0	0
2024-08-15 22:30:47			0	37503	0	0	0	30355	29010	154295	26720	1078409	46597	111302	0	0	8072	556829	0	0
2024-08-15 22:31:47			0	37504	0	0	0	30381	29010	154359	27211	1078436	46597	111312	0	0	8071	556790	0	0
2024-08-15 22:32:47			0	37506	0	0	0	30410	29020	154355	27052	1078535	46632	111323	0	0	8071	556680	0	0
2024-08-15 22:33:47			0	37514	0	0	0	30433	29030	154299	26904	1078680	46632	111332	0	0	8071	556336	0	0
2024-08-15 22:34:47			0	37527	0	0	0	30449	29040	154383	26831	1078752	46633	111338	0	0	8072	555798	0	0
2024-08-15 22:35:47			0	37535	0	0	0	30451	29040	154347	26788	1078815	46634	111339	0	0	8072	555487	0	0
2024-08-15 22:36:47			0	37526	0	0	0	30449	29050	154391	26837	1078743	46624	111338	0	0	8072	555805	0	0
2024-08-15 22:37:47			0	37518	0	0	0	30441	29040	154291	26811	1078761	46624	111335	0	0	8071	556148	0	0
2024-08-15 22:38:47			0	37512	0	0	0	30451	29050	154335	26955	1078797	46612	111339	0	0	8071	556349	0	0
2024-08-15 22:39:47			0	37517	0	0	0	30446	29050	154311	27270	1078779	46624	111337	0	0	8071	556155	0	0
2024-08-15 22:40:47			0	37513	0	0	0	30444	29050	154287	27168	1078806	46612	111336	0	0	8071	556311	0	0
2024-08-15 22:41:47			0	37505	0	0	0	30438	29060	154327	26908	1078824	46625	111334	0	0	8071	556590	0	0
2024-08-15 22:42:47			0	37490	0	0	0	30431	29060	154283	27017	1078707	46613	111331	0	0	8070	557174	0	0
2024-08-15 22:43:47			0	37525	0	0	0	30431	29050	154263	26814	1078698	46612	111331	0	0	8072	555844	0	0
2024-08-15 22:44:47			0	37525	0	0	0	30428	29050	154331	27043	1078752	46612	111330	0	0	8072	555844	0	0
2024-08-15 22:45:47			0	37530	0	0	0	30425	29060	154383	26750	1078743	46603	111329	0	0	8072	555617	0	0
2024-08-15 22:46:47			0	37509	0	0	0	30425	29050	154379	26615	1078698	46612	111329	0	0	8071	556466	0	0
2024-08-15 22:47:47			0	37517	0	0	0	30428	29050	154335	26824	1078752	46612	111330	0	0	8072	556155	0	0
2024-08-15 22:48:47			0	37494	0	0	0	30431	29060	154331	26837	1078707	46613	111331	0	0	8070	557018	0	0
2024-08-15 22:49:47			0	37520	0	0	0	30436	29060	154299	27138	1078770	46614	111333	0	0	8072	556006	0	0
2024-08-15 22:50:47			0	37528	0	0	0	30428	29050	154247	26935	1078698	46612	111330	0	0	8072	555727	0	0
2024-08-15 22:51:47			0	37531	0	0	0	30425	29060	154319	27123	1078680	46613	111329	0	0	8073	555578	0	0
2024-08-15 22:52:47			0	37540	0	0	0	30431	29070	154299	26911	1078752	46614	111331	0	0	8073	555196	0	0
2024-08-15 22:53:47			0	37537	0	0	0	30420	29060	154311	27091	1078770	46614	111327	0	0	8073	555345	0	0
2024-08-15 22:54:47			0	37533	0	0	0	30423	29060	154175	27085	1078680	46602	111328	0	0	8073	555500	0	0
2024-08-15 22:55:47			0	37528	0	0	0	30428	29050	154299	26923	1078662	46601	111330	0	0	8072	555727	0	0
2024-08-15 22:56:47			0	37546	0	0	0	30433	29040	154219	27145	1078653	46612	111332	0	0	8073	555060	0	0
2024-08-15 22:57:47			0	37555	0	0	0	30441	29050	154215	26583	1078635	46612	111335	0	0	8074	554678	0	0
2024-08-15 22:58:47			0	37548	0	0	0	30428	29030	154247	26717	1078635	46599	111330	0	0	8073	555014	0	0
2024-08-15 22:59:47			0	37555	0	0	0	30423	29040	154247	26987	1078563	46623	111328	0	0	8074	554710	0	0
2024-08-15 23:00:47			0	37550	0	0	0	30425	29030	154295	26790	1078554	46599	111329	0	0	8073	554936	0	0
2024-08-15 23:01:47			0	37548	0	0	0	30428	29040	154183	27012	1078644	46611	111330	0	0	8073	554982	0	0
2024-08-15 23:02:47			0	37538	0	0	0	30438	29030	154159	26991	1078599	46622	111334	0	0	8073	555403	0	0
2024-08-15 23:03:47			0	37564	0	0	0	30446	29020	154179	26715	1078589	46610	111337	0	0	8074	554425	0	0
2024-08-15 23:04:47			0	37557	0	0	0	30433	29040	154151	26811	1078644	46611	111332	0	0	8074	554632	0	0
2024-08-15 23:05:47			0	37557	0	0	0	30438	29030	154111	26833	1078599	46599	111334	0	0	8074	554665	0	0
2024-08-15 23:06:47			0	37568	0	0	0	30431	29030	154143	26958	1078527	46632	111331	0	0	8074	554237	0	0
2024-08-15 23:07:47			0	37576	0	0	0	30438	29030	154083	26765	1078572	46610	111334	0	0	8075	553927	0	0
2024-08-15 23:08:47			0	37569	0	0	0	30451	29040	154147	26684	1078671	46623	111339	0	0	8074	554166	0	0
2024-08-15 23:09:47			0	37576	0	0	0	30462	29030	154171	26911	1078707	46622	111343	0	0	8074	553927	0	0
2024-08-15 23:10:47			0	37584	0	0	0	30467	29040	154151	27074	1078680	46624	111345	0	0	8075	553584	0	0
2024-08-15 23:11:47			0	37584	0	0	0	30449	29040	154003	26713	1078653	46601	111338	0	0	8075	553584	0	0
2024-08-15 23:12:47			0	37594	0	0	0	30446	29020	154043	26911	1078616	46610	111337	0	0	8076	553261	0	0
2024-08-15 23:13:47			0	37586	0	0	0	30451	29030	153995	27034	1078608	46622	111339	0	0	8075	553539	0	0
2024-08-15 23:14:47			0	37604	0	0	0	30420	29030	154051	27114	1078527	46599	111327	0	0	8077	552841	0	0
2024-08-15 23:15:47			0	37614	0	0	0	30394	29030	154043	27020	1078437	46610	111317	0	0	8078	552453	0	0
2024-08-15 23:16:47			0	37600	0	0	0	30386	29010	153947	27253	1078355	46597	111314	0	0	8077	553060	0	0
2024-08-15 23:17:47			0	37613	0	0	0	30381	29010	154015	27024	1078346	46607	111312	0	0	8078	552556	0	0
2024-08-15 23:18:47			0	37588	0	0	0	30376	29000	153955	26906	1078382	46607	111310	0	0	8076	553558	0	0
2024-08-15 23:19:47			0	37604	0	0	0	30366	28990	154047	26729	1078292	46595	111306	0	0	8077	552969	0	0
2024-08-15 23:20:47			0	37587	0	0	0	30361	28990	153967	26883	1078319	46618	111304	0	0	8077	553628	0	0
2024-08-15 23:21:47			0	37606	0	0	0	30353	28990	153923	27156	1078283	46605	111301	0	0	8078	552892	0	0
2024-08-15 23:22:47			0	37613	0	0	0	30350	28970	153987	26779	1078256	46604	111300	0	0	8078	552685	0	0
2024-08-15 23:23:47			0	37597	0	0	0	30363	28980	154071	26873	1078319	46617	111305	0	0	8077	553273	0	0
2024-08-15 23:24:47			0	37618	0	0	0	30363	28980	153983	27204	1078238	46605	111305	0	0	8078	552459	0	0
2024-08-15 23:25:47			0	37614	0	0	0	30366	28980	154047	27154	1078265	46605	111306	0	0	8078	552614	0	0
2024-08-15 23:26:47			0	37626	0	0	0	30389	28970	154027	27053	1078247	46637	111315	0	0	8078	552181	0	0
2024-08-15 23:27:47			0	37634	0	0	0	30405	28980	153923	27197	1078274	46605	111321	0	0	8078	551839	0	0
2024-08-15 23:28:47			0	37657	0	0	0	30386	28980	153927	27237	1078319	46627	111314	0	0	8080	550949	0	0
2024-08-15 23:29:47			0	37623	0	0	0	30368	28990	153975	27204	1078337	46617	111307	0	0	8078	552233	0	0
2024-08-15 23:30:47			0	37664	0	0	0	30353	28980	153771	26837	1078220	46617	111301	0	0	8081	550678	0	0
2024-08-15 23:31:47			0	37648	0	0	0	30366	28980	153855	27197	1078373	46617	111306	0	0	8080	551297	0	0
2024-08-15 23:32:47			0	37652	0	0	0	30350	28990	153895	27196	1078256	46627	111300	0	0	8080	551110	0	0
2024-08-15 23:33:47			0	37637	0	0	0	30353	28980	153899	27137	1078238	46617	111301	0	0	8079	551723	0	0
2024-08-15 23:34:47			0	37638	0	0	0	30293	28980	153847	27062	1078247	46617	111278	0	0	8081	551684	0	0
2024-08-15 23:35:47			0	37657	0	0	0	30244	28960	153779	26807	1078103	46592	111259	0	0	8082	551013	0	0
2024-08-15 23:36:47			0	37657	0	0	0	30197	28960	153855	26890	1078022	46603	111241	0	0	8083	551013	0	0
2024-08-15 23:37:47			0	37641	0	0	0	30218	28940	153875	27071	1078022	46601	111249	0	0	8082	551696	0	0
2024-08-15 23:38:47			0	37643	0	0	0	30249	28930	153883	26875	1078031	46612	111261	0	0	8081	551651	0	0
2024-08-15 23:39:47			0	37629	0	0	0	30233	28930	153919	26961	1077914	46578	111255	0	0	8081	552193	0	0
2024-08-15 23:40:47			0	37644	0	0	0	30257	28920	154103	26831	1077923	46598	111264	0	0	8081	551644	0	0
2024-08-15 23:41:47			0	37608	0	0	0	30275	28920	153991	26764	1077905	46599	111271	0	0	8079	553039	0	0
2024-08-15 23:42:47			0	37614	0	0	0	30264	28920	153995	26968	1077842	46598	111267	0	0	8079	552806	0	0
2024-08-15 23:43:47			0	37603	0	0	0	30259	28900	154147	26807	1077832	46596	111265	0	0	8079	553297	0	0
2024-08-15 23:44:47			0	37616	0	0	0	30236	28910	154087	27024	1077877	46610	111256	0	0	8080	552761	0	0
2024-08-15 23:45:47			0	37610	0	0	0	30210	28890	154147	26746	1077823	46619	111246	0	0	8080	553057	0	0
2024-08-15 23:46:47			0	37601	0	0	0	30202	28890	154155	26993	1077796	46596	111243	0	0	8080	553406	0	0
2024-08-15 23:47:47			0	37579	0	0	0	30202	28890	154191	26828	1077796	46596	111243	0	0	8078	554260	0	0
2024-08-15 23:48:47			0	37558	0	0	0	30181	28900	154187	27457	1077805	46608	111235	0	0	8077	555044	0	0
2024-08-15 23:49:47			0	37563	0	0	0	30135	28890	154271	27081	1077607	46585	111217	0	0	8078	554882	0	0
2024-08-15 23:50:47			0	37538	0	0	0	30137	28890	154415	27043	1077679	46585	111218	0	0	8077	555854	0	0
2024-08-15 23:51:47			0	37530	0	0	0	30171	28870	154447	26965	1077696	46593	111231	0	0	8076	556230	0	0
2024-08-15 23:52:47			0	37519	0	0	0	30225	28870	154479	26814	1077706	46606	111252	0	0	8074	556658	0	0
2024-08-15 23:53:47			0	37502	0	0	0	30251	28870	154611	26797	1077777	46605	111262	0	0	8073	557320	0	0
2024-08-15 23:54:47			0	37512	0	0	0	30249	28870	154511	26708	1077760	46617	111261	0	0	8073	556931	0	0
2024-08-15 23:55:47			0	37491	0	0	0	30246	28870	154607	26786	1077750	46593	111260	0	0	8072	557749	0	0
2024-08-15 23:56:47			0	37505	0	0	0	30236	28870	154715	27303	1077642	46605	111256	0	0	8073	557203	0	0
2024-08-15 23:57:47			0	37479	0	0	0	30238	28860	154663	26868	1077687	46583	111257	0	0	8072	558250	0	0
2024-08-15 23:58:47			0	37485	0	0	0	30238	28860	154655	26715	1077660	46583	111257	0	0	8072	558016	0	0
2024-08-15 23:59:47			0	37498	0	0	0	30236	28860	154639	27053	1077624	46592	111256	0	0	8073	557508	0	0
2024-08-16 00:00:47			0	37487	0	0	0	30223	28860	154747	27039	1077705	46592	111251	0	0	8072	557938	0	0
2024-08-16 00:01:47			0	37480	0	0	0	30225	28850	154675	27147	1077606	46603	111252	0	0	8072	558243	0	0
2024-08-16 00:02:47			0	37487	0	0	0	30215	28860	154715	26948	1077651	46592	111248	0	0	8073	557938	0	0
2024-08-16 00:03:47			0	37468	0	0	0	30207	28860	154671	26944	1077624	46582	111245	0	0	8072	558679	0	0
2024-08-16 00:04:47			0	37482	0	0	0	30220	28850	154747	27434	1077660	46603	111250	0	0	8072	558165	0	0
2024-08-16 00:05:47			0	37490	0	0	0	30246	28850	154799	27204	1077633	46614	111260	0	0	8072	557853	0	0
2024-08-16 00:06:47			0	37478	0	0	0	30267	28860	154747	27189	1077705	46604	111268	0	0	8071	558289	0	0
2024-08-16 00:07:47			0	37468	0	0	0	30270	28870	154747	27232	1077777	46616	111269	0	0	8071	558647	0	0
2024-08-16 00:08:47			0	37485	0	0	0	30254	28870	154579	26850	1077831	46605	111263	0	0	8072	557983	0	0
2024-08-16 00:09:47			0	37479	0	0	0	30249	28870	154671	26951	1077841	46628	111261	0	0	8072	558217	0	0
2024-08-16 00:10:47			0	37502	0	0	0	30218	28880	154543	27045	1077823	46606	111249	0	0	8073	557288	0	0
2024-08-16 00:11:47			0	37480	0	0	0	30244	28870	154643	26875	1077841	46606	111259	0	0	8072	558178	0	0
2024-08-16 00:12:47			0	37458	0	0	0	30267	28880	154711	27048	1077832	46607	111268	0	0	8070	559005	0	0
2024-08-16 00:13:47			0	37457	0	0	0	30290	28880	154791	27220	1077859	46584	111277	0	0	8070	559044	0	0
2024-08-16 00:14:47			0	37462	0	0	0	30283	28870	154783	27121	1077787	46606	111274	0	0	8070	558881	0	0
2024-08-16 00:15:47			0	37467	0	0	0	30257	28870	154707	27128	1077706	46594	111264	0	0	8071	558686	0	0
2024-08-16 00:16:47			0	37468	0	0	0	30238	28860	154695	26956	1077660	46583	111257	0	0	8071	558679	0	0
2024-08-16 00:17:47			0	37472	0	0	0	30238	28860	154779	26908	1077660	46605	111257	0	0	8071	558523	0	0
2024-08-16 00:18:47			0	37458	0	0	0	30241	28860	154763	27071	1077687	46605	111258	0	0	8070	559069	0	0
2024-08-16 00:19:47			0	37456	0	0	0	30241	28860	154739	26967	1077732	46604	111258	0	0	8070	559147	0	0
2024-08-16 00:20:47			0	37457	0	0	0	30257	28870	154787	27085	1077760	46617	111264	0	0	8070	559076	0	0
2024-08-16 00:21:47			0	37463	0	0	0	30272	28860	154887	27107	1077795	46616	111270	0	0	8070	558874	0	0
2024-08-16 00:22:47			0	37444	0	0	0	30285	28870	154763	27166	1077804	46616	111275	0	0	8069	559584	0	0
2024-08-16 00:23:47			0	37451	0	0	0	30275	28860	154759	27166	1077741	46605	111271	0	0	8069	559343	0	0
2024-08-16 00:24:47			0	37461	0	0	0	30259	28870	154831	27088	1077777	46605	111265	0	0	8070	558920	0	0
2024-08-16 00:25:47			0	37459	0	0	0	30259	28870	154779	26972	1077733	46594	111265	0	0	8070	558998	0	0
2024-08-16 00:26:47			0	37458	0	0	0	30244	28860	154803	27052	1077768	46616	111259	0	0	8070	559069	0	0
2024-08-16 00:27:47			0	37456	0	0	0	30251	28860	154883	27201	1077651	46615	111262	0	0	8070	559147	0	0
2024-08-16 00:28:47			0	37453	0	0	0	30254	28870	154855	26859	1077642	46583	111263	0	0	8070	559232	0	0
2024-08-16 00:29:47			0	37458	0	0	0	30267	28860	154835	26956	1077705	46592	111268	0	0	8070	559069	0	0
2024-08-16 00:30:47			0	37472	0	0	0	30285	28860	154879	26989	1077741	46593	111275	0	0	8071	558523	0	0
2024-08-16 00:31:47			0	37452	0	0	0	30285	28860	154883	26826	1077705	46604	111275	0	0	8069	559304	0	0
2024-08-16 00:32:47			0	37448	0	0	0	30296	28850	154835	27055	1077723	46614	111279	0	0	8069	559492	0	0
2024-08-16 00:33:47			0	37452	0	0	0	30277	28860	154831	27124	1077732	46604	111272	0	0	8069	559304	0	0
2024-08-16 00:34:47			0	37454	0	0	0	30257	28860	154803	26911	1077678	46604	111264	0	0	8070	559226	0	0
2024-08-16 00:35:47			0	37469	0	0	0	30257	28850	154819	27114	1077723	46591	111264	0	0	8071	558672	0	0
2024-08-16 00:36:47			0	37468	0	0	0	30249	28870	154935	27003	1077723	46593	111261	0	0	8071	558647	0	0
2024-08-16 00:37:47			0	37466	0	0	0	30220	28850	154891	27166	1077696	46603	111250	0	0	8071	558789	0	0
2024-08-16 00:38:47			0	37460	0	0	0	30199	28850	154839	27098	1077534	46591	111242	0	0	8071	559024	0	0
2024-08-16 00:39:47			0	37461	0	0	0	30192	28850	154811	27000	1077579	46591	111239	0	0	8071	558985	0	0
2024-08-16 00:40:47			0	37449	0	0	0	30194	28840	154847	26790	1077597	46614	111240	0	0	8071	559486	0	0
2024-08-16 00:41:47			0	37444	0	0	0	30181	28840	154895	26899	1077489	46603	111235	0	0	8071	559681	0	0
2024-08-16 00:42:47			0	37447	0	0	0	30184	28840	154895	26857	1077570	46591	111236	0	0	8071	559564	0	0
2024-08-16 00:43:47			0	37458	0	0	0	30189	28830	154891	27066	1077525	46589	111238	0	0	8071	559167	0	0
2024-08-16 00:44:47			0	37443	0	0	0	30199	28830	154879	26779	1077516	46589	111242	0	0	8070	559753	0	0
2024-08-16 00:45:47			0	37442	0	0	0	30220	28820	154871	26852	1077471	46600	111250	0	0	8070	559824	0	0
2024-08-16 00:46:47			0	37451	0	0	0	30223	28820	154855	27053	1077507	46589	111251	0	0	8070	559472	0	0
2024-08-16 00:47:47			0	37450	0	0	0	30228	28830	154923	27107	1077543	46612	111253	0	0	8070	559479	0	0
2024-08-16 00:48:47			0	37454	0	0	0	30225	28830	154863	26684	1077597	46612	111252	0	0	8070	559323	0	0
2024-08-16 00:49:47			0	37461	0	0	0	30212	28830	154711	26850	1077543	46612	111247	0	0	8071	559049	0	0
2024-08-16 00:50:47			0	37451	0	0	0	30220	28840	154835	26844	1077615	46602	111250	0	0	8070	559408	0	0
2024-08-16 00:51:47			0	37449	0	0	0	30223	28830	154719	26908	1077606	46589	111251	0	0	8070	559518	0	0
2024-08-16 00:52:47			0	37455	0	0	0	30207	28840	154699	26649	1077534	46602	111245	0	0	8071	559251	0	0
2024-08-16 00:53:47			0	37455	0	0	0	30181	28830	154727	26956	1077471	46589	111235	0	0	8071	559284	0	0
2024-08-16 00:54:47			0	37469	0	0	0	30163	28820	154735	27135	1077426	46601	111228	0	0	8072	558769	0	0
2024-08-16 00:55:47			0	37439	0	0	0	30163	28820	154855	26817	1077417	46600	111228	0	0	8070	559942	0	0
2024-08-16 00:56:47			0	37446	0	0	0	30166	28810	154851	27079	1077408	46599	111229	0	0	8071	559700	0	0
2024-08-16 00:57:47			0	37445	0	0	0	30163	28810	154791	26859	1077426	46599	111228	0	0	8071	559739	0	0
2024-08-16 00:58:47			0	37447	0	0	0	30174	28810	154779	26941	1077399	46610	111232	0	0	8071	559661	0	0
2024-08-16 00:59:47			0	37444	0	0	0	30179	28810	154775	26930	1077372	46599	111234	0	0	8070	559778	0	0
2024-08-16 01:00:47			0	37441	0	0	0	30174	28800	154991	26967	1077390	46576	111232	0	0	8070	559928	0	0
2024-08-16 01:01:47			0	37446	0	0	0	30174	28810	154887	27145	1077345	46587	111232	0	0	8071	559700	0	0
2024-08-16 01:02:47			0	37457	0	0	0	30176	28800	154947	26994	1077336	46586	111233	0	0	8071	559303	0	0
2024-08-16 01:03:47			0	37451	0	0	0	30168	28790	154915	26968	1077282	46585	111230	0	0	8071	559570	0	0
2024-08-16 01:04:47			0	37449	0	0	0	30171	28790	154975	27078	1077291	46597	111231	0	0	8071	559648	0	0
2024-08-16 01:05:47			0	37436	0	0	0	30163	28780	154843	27029	1077246	46596	111228	0	0	8070	560189	0	0
2024-08-16 01:06:47			0	37429	0	0	0	30155	28780	154975	26674	1077165	46584	111225	0	0	8070	560462	0	0
2024-08-16 01:07:47			0	37437	0	0	0	30163	28770	154911	27019	1077137	46583	111228	0	0	8070	560182	0	0
2024-08-16 01:08:47			0	37445	0	0	0	30163	28780	154907	26804	1077102	46584	111228	0	0	8071	559837	0	0
2024-08-16 01:09:47			0	37429	0	0	0	30150	28770	154959	26845	1077137	46583	111223	0	0	8070	560495	0	0
2024-08-16 01:10:47			0	37423	0	0	0	30150	28770	155015	26965	1077164	46583	111223	0	0	8070	560730	0	0
2024-08-16 01:11:47			0	37446	0	0	0	30166	28760	155011	27060	1077236	46594	111229	0	0	8071	559863	0	0
2024-08-16 01:12:47			0	37442	0	0	0	30166	28770	155063	27034	1077218	46605	111229	0	0	8070	559986	0	0
2024-08-16 01:13:47			0	37431	0	0	0	30142	28760	154935	26821	1077236	46605	111220	0	0	8070	560449	0	0
2024-08-16 01:14:47			0	37438	0	0	0	30129	28770	154983	26804	1077200	46595	111215	0	0	8071	560143	0	0
2024-08-16 01:15:47			0	37429	0	0	0	30116	28770	154947	26800	1077218	46594	111210	0	0	8070	560495	0	0
2024-08-16 01:16:47			0	37426	0	0	0	30127	28770	154959	26797	1077173	46595	111214	0	0	8070	560612	0	0
2024-08-16 01:17:47			0	37433	0	0	0	30150	28770	155031	26790	1077173	46606	111223	0	0	8070	560338	0	0
2024-08-16 01:18:47			0	37421	0	0	0	30145	28760	155043	26873	1077182	46583	111221	0	0	8069	560840	0	0
2024-08-16 01:19:47			0	37422	0	0	0	30148	28750	155075	26981	1077056	46582	111222	0	0	8069	560834	0	0
2024-08-16 01:20:47			0	37424	0	0	0	30127	28760	155095	26934	1077011	46583	111214	0	0	8070	560723	0	0
2024-08-16 01:21:47			0	37414	0	0	0	30122	28750	155075	26932	1077020	46592	111212	0	0	8069	561147	0	0
2024-08-16 01:22:47			0	37417	0	0	0	30132	28750	155055	27000	1077020	46592	111216	0	0	8069	561030	0	0
2024-08-16 01:23:47			0	37433	0	0	0	30114	28730	155055	26779	1076912	46591	111209	0	0	8071	560468	0	0
2024-08-16 01:24:47			0	37429	0	0	0	30059	28730	155083	27130	1076795	46568	111188	0	0	8071	560625	0	0
2024-08-16 01:25:47			0	37414	0	0	0	30041	28720	155115	26904	1076831	46567	111181	0	0	8071	561244	0	0
2024-08-16 01:26:47			0	37398	0	0	0	30041	28700	155191	27041	1076669	46577	111181	0	0	8070	561937	0	0
2024-08-16 01:27:47			0	37410	0	0	0	30036	28700	155087	26998	1076687	46587	111179	0	0	8070	561466	0	0
2024-08-16 01:28:47			0	37414	0	0	0	30025	28690	155195	26960	1076678	46587	111175	0	0	8071	561342	0	0
2024-08-16 01:29:47			0	37404	0	0	0	30038	28700	155299	27074	1076795	46609	111180	0	0	8070	561701	0	0
2024-08-16 01:30:47			0	37401	0	0	0	30012	28680	155243	26781	1076768	46597	111170	0	0	8070	561884	0	0
2024-08-16 01:31:47			0	37392	0	0	0	30002	28690	155175	27303	1076642	46564	111166	0	0	8070	562204	0	0
2024-08-16 01:32:47			0	37406	0	0	0	29986	28680	155319	26897	1076660	46586	111160	0	0	8071	561688	0	0
2024-08-16 01:33:47			0	37395	0	0	0	29953	28680	155231	27182	1076570	46574	111147	0	0	8071	562119	0	0
2024-08-16 01:34:47			0	37399	0	0	0	29929	28650	155299	26982	1076399	46572	111138	0	0	8071	562060	0	0
2024-08-16 01:35:47			0	37389	0	0	0	29906	28640	155283	26861	1076381	46560	111129	0	0	8071	562485	0	0
2024-08-16 01:36:47			0	37399	0	0	0	29893	28630	155291	26902	1076273	46536	111124	0	0	8072	562125	0	0
2024-08-16 01:37:47			0	37403	0	0	0	29896	28610	155327	26922	1076129	46556	111125	0	0	8072	562033	0	0
2024-08-16 01:38:47			0	37393	0	0	0	29890	28590	155327	26852	1076101	46555	111123	0	0	8071	562491	0	0
2024-08-16 01:39:47			0	37412	0	0	0	29867	28580	155363	26920	1076056	46553	111114	0	0	8073	561778	0	0
2024-08-16 01:40:47			0	37401	0	0	0	29859	28560	155379	26840	1075930	46561	111111	0	0	8072	562274	0	0
2024-08-16 01:41:47			0	37398	0	0	0	29851	28560	155327	26991	1075930	46539	111108	0	0	8072	562392	0	0
2024-08-16 01:42:47			0	37381	0	0	0	29841	28540	155407	26906	1075840	46548	111104	0	0	8071	563124	0	0
2024-08-16 01:43:47			0	37317	0	0	0	29836	28540	155787	27192	1075795	46549	111102	0	0	8068	565641	0	0
2024-08-16 01:44:47			0	37033	0	0	0	29841	28530	156926	26684	1075777	46559	111104	0	0	8051	576932	0	0
2024-08-16 01:45:47			0	36703	0	0	0	29833	28520	158294	27147	1075777	46569	111101	0	0	8032	590234	0	0
2024-08-16 01:46:47			0	36462	0	0	0	29841	28510	159293	26656	1075822	46580	111104	0	0	8017	600090	0	0
2024-08-16 01:47:47			0	36288	0	0	0	29831	28510	159993	26994	1075705	46546	111100	0	0	8007	607251	0	0
2024-08-16 01:48:47			0	36200	0	0	0	29833	28500	160285	26868	1075750	46556	111101	0	0	8002	610930	0	0
2024-08-16 01:49:47			0	36191	0	0	0	29841	28500	160493	26817	1075714	46555	111104	0	0	8001	611304	0	0
2024-08-16 01:50:47			0	36204	0	0	0	29838	28490	160337	27107	1075732	46566	111103	0	0	8002	610800	0	0
2024-08-16 01:51:47			0	36265	0	0	0	29841	28500	160209	27128	1075714	46567	111104	0	0	8005	608237	0	0
2024-08-16 01:52:47			0	36311	0	0	0	29841	28490	159933	26838	1075678	46566	111104	0	0	8008	606371	0	0
2024-08-16 01:53:47			0	36359	0	0	0	29828	28500	159657	27008	1075687	46555	111099	0	0	8011	604357	0	0
2024-08-16 01:54:47			0	36414	0	0	0	29833	28480	159505	26989	1075633	46566	111101	0	0	8014	602164	0	0
2024-08-16 01:55:47			0	36421	0	0	0	29838	28470	159445	27085	1075641	46552	111103	0	0	8015	601911	0	0
2024-08-16 01:56:47			0	36451	0	0	0	29833	28470	159297	27022	1075588	46564	111101	0	0	8016	600680	0	0
2024-08-16 01:57:47			0	36434	0	0	0	29825	28470	159361	26960	1075615	46564	111098	0	0	8016	601377	0	0
2024-08-16 01:58:47			0	36389	0	0	0	29828	28470	159477	27046	1075641	46564	111099	0	0	8013	603227	0	0
2024-08-16 01:59:47			0	36341	0	0	0	29823	28470	159837	26968	1075588	46552	111097	0	0	8010	605203	0	0
2024-08-16 02:00:47			0	36323	0	0	0	29812	28460	159929	27102	1075543	46575	111093	0	0	8009	605981	0	0
2024-08-16 02:01:47			0	36278	0	0	0	29820	28460	160089	26942	1075480	46563	111096	0	0	8006	607840	0	0
2024-08-16 02:02:47			0	36265	0	0	0	29805	28460	160153	26748	1075534	46563	111090	0	0	8006	608378	0	0
2024-08-16 02:03:47			0	36239	0	0	0	29805	28460	160221	26798	1075516	46564	111090	0	0	8004	609454	0	0
2024-08-16 02:04:47			0	36235	0	0	0	29792	28440	160345	26660	1075426	46550	111085	0	0	8004	609690	0	0
2024-08-16 02:05:47			0	36227	0	0	0	29786	28450	160253	26597	1075435	46550	111083	0	0	8004	609987	0	0
2024-08-16 02:06:47			0	36236	0	0	0	29776	28450	160209	26571	1075435	46550	111079	0	0	8004	609614	0	0
2024-08-16 02:07:47			0	36261	0	0	0	29786	28430	160141	26790	1075407	46560	111083	0	0	8006	608649	0	0
2024-08-16 02:08:47			0	36308	0	0	0	29789	28430	160017	26864	1075381	46560	111084	0	0	8008	606705	0	0
2024-08-16 02:09:47			0	36347	0	0	0	29799	28430	159789	26689	1075407	46560	111088	0	0	8011	605096	0	0
2024-08-16 02:10:47			0	36391	0	0	0	29812	28430	159653	26706	1075434	46548	111093	0	0	8013	603284	0	0
2024-08-16 02:11:47			0	36446	0	0	0	29799	28420	159329	26866	1075362	46559	111088	0	0	8016	601059	0	0
2024-08-16 02:12:47			0	36497	0	0	0	29797	28430	159161	27026	1075354	46560	111087	0	0	8020	598934	0	0
2024-08-16 02:13:47			0	36512	0	0	0	29781	28420	159021	26705	1075309	46547	111081	0	0	8021	598354	0	0
2024-08-16 02:14:47			0	36515	0	0	0	29781	28420	159013	26739	1075300	46547	111081	0	0	8021	598232	0	0
2024-08-16 02:15:47			0	36532	0	0	0	29779	28420	158993	26876	1075246	46559	111080	0	0	8022	597537	0	0
2024-08-16 02:16:47			0	36520	0	0	0	29781	28420	159025	26927	1075246	46547	111081	0	0	8021	598027	0	0
2024-08-16 02:17:47			0	36519	0	0	0	29774	28410	159069	26537	1075228	46545	111078	0	0	8021	598103	0	0
2024-08-16 02:18:47			0	36499	0	0	0	29774	28410	159065	26979	1075201	46545	111078	0	0	8020	598921	0	0
2024-08-16 02:19:47			0	36497	0	0	0	29766	28410	159141	26680	1075210	46546	111075	0	0	8020	599003	0	0
2024-08-16 02:20:47			0	36504	0	0	0	29755	28400	159189	27029	1075137	46545	111071	0	0	8021	598751	0	0
2024-08-16 02:21:47			0	36493	0	0	0	29755	28400	159257	26948	1075128	46557	111071	0	0	8020	599201	0	0
2024-08-16 02:22:47			0	36488	0	0	0	29776	28400	159237	27177	1075209	46545	111079	0	0	8019	599406	0	0
2024-08-16 02:23:47			0	36483	0	0	0	29792	28380	159253	27275	1075236	46543	111085	0	0	8019	599680	0	0
2024-08-16 02:24:47			0	36502	0	0	0	29812	28400	159281	26868	1075272	46579	111093	0	0	8019	598833	0	0
2024-08-16 02:25:47			0	36512	0	0	0	29781	28400	159149	26970	1075245	46579	111081	0	0	8021	598424	0	0
2024-08-16 02:26:47			0	36498	0	0	0	29768	28400	159153	26533	1075236	46568	111076	0	0	8020	598997	0	0
2024-08-16 02:27:47			0	36496	0	0	0	29745	28400	159229	26703	1075128	46557	111067	0	0	8020	599079	0	0
2024-08-16 02:28:47			0	36479	0	0	0	29719	28380	159273	26887	1075083	46521	111057	0	0	8020	599844	0	0
2024-08-16 02:29:47			0	36468	0	0	0	29709	28380	159349	26998	1075020	46533	111053	0	0	8019	600295	0	0
2024-08-16 02:30:47			0	36436	0	0	0	29696	28370	159397	26913	1075029	46554	111048	0	0	8017	601643	0	0
2024-08-16 02:31:47			0	36418	0	0	0	29670	28360	159553	26958	1074957	46552	111038	0	0	8017	602417	0	0
2024-08-16 02:32:47			0	36378	0	0	0	29667	28340	159665	27012	1074876	46529	111037	0	0	8014	604133	0	0
2024-08-16 02:33:47			0	36383	0	0	0	29677	28340	159837	26873	1074903	46551	111041	0	0	8014	603927	0	0
2024-08-16 02:34:47			0	36356	0	0	0	29659	28340	159845	26875	1074741	46540	111034	0	0	8013	605040	0	0
2024-08-16 02:35:47			0	36352	0	0	0	29651	28320	159861	26986	1074786	46527	111031	0	0	8013	605274	0	0
2024-08-16 02:36:47			0	36333	0	0	0	29636	28320	159945	26849	1074705	46538	111025	0	0	8012	606059	0	0
2024-08-16 02:37:47			0	36326	0	0	0	29641	28310	159917	26831	1074678	46559	111027	0	0	8011	606383	0	0
2024-08-16 02:38:47			0	36330	0	0	0	29638	28300	159973	26844	1074669	46536	111026	0	0	8012	606252	0	0
2024-08-16 02:39:47			0	36333	0	0	0	29623	28300	160109	27140	1074642	46536	111020	0	0	8012	606129	0	0
2024-08-16 02:40:47			0	36314	0	0	0	29618	28290	160097	26660	1074570	46524	111018	0	0	8011	606949	0	0
2024-08-16 02:41:47			0	36323	0	0	0	29605	28300	160097	27008	1074525	46535	111013	0	0	8012	606542	0	0
2024-08-16 02:42:47			0	36313	0	0	0	29602	28280	160129	26837	1074552	46545	111012	0	0	8011	607025	0	0
2024-08-16 02:43:47			0	36284	0	0	0	29597	28270	160145	26788	1074525	46532	111010	0	0	8009	608259	0	0
2024-08-16 02:44:47			0	36293	0	0	0	29589	28260	160201	27291	1074461	46532	111007	0	0	8010	607922	0	0
2024-08-16 02:45:47			0	36295	0	0	0	29568	28250	160125	26958	1074443	46541	110999	0	0	8011	607875	0	0
2024-08-16 02:46:47			0	36299	0	0	0	29561	28240	160241	26953	1074345	46530	110996	0	0	8011	607744	0	0
2024-08-16 02:47:47			0	36294	0	0	0	29451	28240	160229	26944	1074264	46519	110954	0	0	8012	607951	0	0
2024-08-16 02:48:47			0	36292	0	0	0	29444	28230	160229	26800	1074192	46517	110951	0	0	8012	608069	0	0
2024-08-16 02:49:47			0	36271	0	0	0	29496	28210	160309	26876	1074227	46515	110971	0	0	8010	609009	0	0
2024-08-16 02:50:47			0	36265	0	0	0	29488	28190	160337	26790	1074057	46512	110968	0	0	8010	609328	0	0
2024-08-16 02:51:47			0	36239	0	0	0	29483	28200	160385	26672	1074075	46525	110966	0	0	8008	610371	0	0
2024-08-16 02:52:47			0	36257	0	0	0	29498	28180	160393	27081	1074119	46535	110972	0	0	8009	609695	0	0
2024-08-16 02:53:47			0	36251	0	0	0	29498	28170	160489	27189	1073967	46510	110972	0	0	8009	609978	0	0
2024-08-16 02:54:47			0	36236	0	0	0	29472	28180	160609	27015	1073931	46523	110962	0	0	8008	610566	0	0
2024-08-16 02:55:47			0	36222	0	0	0	29470	28150	160585	27000	1073858	46509	110961	0	0	8007	611253	0	0
2024-08-16 02:56:47			0	36231	0	0	0	29475	28150	160557	27013	1073903	46519	110963	0	0	8008	610879	0	0
2024-08-16 02:57:47			0	36226	0	0	0	29444	28140	160573	26949	1073813	46519	110951	0	0	8008	611122	0	0
2024-08-16 02:58:47			0	36199	0	0	0	29431	28140	160653	26890	1073750	46518	110946	0	0	8007	612244	0	0
2024-08-16 02:59:47			0	36203	0	0	0	29444	28130	160769	26896	1073741	46518	110951	0	0	8007	612113	0	0
2024-08-16 03:00:47			0	36168	0	0	0	29348	28120	160857	26932	1073670	46506	110914	0	0	8006	613605	0	0
2024-08-16 03:01:47			0	36132	0	0	0	29272	28120	160965	27027	1073553	46494	110885	0	0	8005	615106	0	0
2024-08-16 03:02:47			0	36113	0	0	0	29386	28090	161273	26920	1073588	46502	110929	0	0	8002	616006	0	0
2024-08-16 03:03:47			0	36069	0	0	0	29342	28100	161297	26739	1073633	46515	110912	0	0	8000	617810	0	0
2024-08-16 03:04:47			0	36048	0	0	0	29423	28080	161405	27111	1073606	46513	110943	0	0	7997	618761	0	0
2024-08-16 03:05:47			0	36033	0	0	0	29462	28080	161549	27038	1073633	46536	110958	0	0	7996	619390	0	0
2024-08-16 03:06:47			0	36003	0	0	0	29425	28090	161665	27199	1073624	46514	110944	0	0	7995	620613	0	0
2024-08-16 03:07:47			0	35999	0	0	0	29384	28080	161829	27185	1073543	46512	110928	0	0	7995	620817	0	0
2024-08-16 03:08:47			0	35987	0	0	0	29309	28070	161777	26889	1073283	46511	110899	0	0	7995	621357	0	0
2024-08-16 03:09:47			0	35989	0	0	0	29257	28060	161921	27189	1073238	46500	110879	0	0	7996	621308	0	0
2024-08-16 03:10:47			0	35955	0	0	0	29223	28040	161993	27010	1073094	46475	110866	0	0	7995	622810	0	0
2024-08-16 03:11:47			0	35909	0	0	0	29259	28020	162077	27031	1073013	46473	110880	0	0	7991	624821	0	0
2024-08-16 03:12:47			0	35885	0	0	0	29254	28010	162237	26644	1072959	46495	110878	0	0	7990	625871	0	0
2024-08-16 03:13:47			0	35855	0	0	0	29280	27980	162400	26847	1072968	46481	110888	0	0	7988	627248	0	0
2024-08-16 03:14:47			0	35844	0	0	0	29270	27980	162464	27013	1072914	46481	110884	0	0	7987	627713	0	0
2024-08-16 03:15:47			0	35814	0	0	0	29223	27960	162572	27196	1072770	46490	110866	0	0	7986	629057	0	0
2024-08-16 03:16:47			0	35829	0	0	0	29114	27950	162624	27069	1072635	46466	110824	0	0	7989	628458	0	0
2024-08-16 03:17:47			0	35798	0	0	0	29093	27910	162820	27197	1072437	46473	110816	0	0	7987	629917	0	0
2024-08-16 03:18:47			0	35752	0	0	0	29205	27910	162944	27074	1072545	46473	110859	0	0	7982	631873	0	0
2024-08-16 03:19:47			0	35711	0	0	0	29249	27900	163080	27038	1072608	46495	110876	0	0	7979	633655	0	0
2024-08-16 03:20:47			0	35695	0	0	0	29241	27900	163300	26977	1072608	46506	110873	0	0	7978	634338	0	0
2024-08-16 03:21:47			0	35692	0	0	0	29244	27900	163220	26944	1072652	46505	110874	0	0	7978	634466	0	0
2024-08-16 03:22:47			0	35656	0	0	0	29212	27900	163456	26975	1072545	46505	110862	0	0	7976	636003	0	0
2024-08-16 03:23:47			0	35655	0	0	0	29205	27900	163440	27098	1072491	46494	110859	0	0	7976	636046	0	0
2024-08-16 03:24:47			0	35632	0	0	0	29225	27890	163488	27005	1072563	46493	110867	0	0	7974	637067	0	0
2024-08-16 03:25:47			0	35594	0	0	0	29223	27890	163544	26875	1072473	46504	110866	0	0	7972	638695	0	0
2024-08-16 03:26:47			0	35586	0	0	0	29225	27880	163668	26797	1072464	46493	110867	0	0	7972	639075	0	0
2024-08-16 03:27:47			0	35573	0	0	0	29189	27870	163712	27010	1072392	46480	110853	0	0	7971	639669	0	0
2024-08-16 03:28:47			0	35556	0	0	0	29127	27870	163968	27059	1072410	46480	110829	0	0	7971	640400	0	0
2024-08-16 03:29:47			0	35558	0	0	0	29007	27850	163904	26925	1072194	46456	110783	0	0	7973	640387	0	0
2024-08-16 03:30:47			0	35513	0	0	0	29124	27840	164012	26882	1072203	46466	110828	0	0	7969	642360	0	0
2024-08-16 03:31:47			0	35507	0	0	0	29176	27830	164216	27187	1072230	46498	110848	0	0	7967	642656	0	0
2024-08-16 03:32:47			0	35465	0	0	0	29205	27830	164400	26981	1072320	46499	110859	0	0	7964	644467	0	0
2024-08-16 03:33:47			0	35446	0	0	0	29212	27840	164512	27024	1072302	46521	110862	0	0	7963	645250	0	0
2024-08-16 03:34:47			0	35423	0	0	0	29199	27830	164524	27289	1072320	46499	110857	0	0	7962	646282	0	0
2024-08-16 03:35:47			0	35417	0	0	0	29153	27840	164692	27010	1072257	46500	110839	0	0	7962	646504	0	0
2024-08-16 03:36:47			0	35403	0	0	0	29057	27830	164668	26889	1072041	46486	110802	0	0	7963	647147	0	0
2024-08-16 03:37:47			0	35386	0	0	0	29085	27810	164732	27130	1072086	46473	110813	0	0	7961	647958	0	0
2024-08-16 03:38:47			0	35362	0	0	0	29103	27810	164888	27031	1072059	46451	110820	0	0	7959	648999	0	0
2024-08-16 03:39:47			0	35359	0	0	0	29127	27790	165004	26956	1072032	46472	110829	0	0	7959	649204	0	0
2024-08-16 03:40:47			0	35322	0	0	0	29116	27780	165040	27017	1071915	46482	110825	0	0	7957	650849	0	0
2024-08-16 03:41:47			0	35324	0	0	0	29137	27790	165284	27092	1071978	46483	110833	0	0	7956	650724	0	0
2024-08-16 03:42:47			0	35308	0	0	0	29155	27780	165292	27234	1072023	46494	110840	0	0	7955	651458	0	0
2024-08-16 03:43:47			0	35295	0	0	0	29155	27790	165204	27052	1072032	46505	110840	0	0	7954	651986	0	0
2024-08-16 03:44:47			0	35282	0	0	0	29124	27780	165228	27157	1072023	46494	110828	0	0	7954	652590	0	0
2024-08-16 03:45:47			0	35285	0	0	0	29067	27780	165320	27227	1071906	46470	110806	0	0	7955	652459	0	0
2024-08-16 03:46:47			0	35275	0	0	0	29049	27770	165288	27242	1071861	46459	110799	0	0	7955	652933	0	0
2024-08-16 03:47:47			0	35255	0	0	0	29077	27750	165368	26937	1071753	46468	110810	0	0	7953	653880	0	0
2024-08-16 03:48:47			0	35259	0	0	0	29088	27750	165420	26769	1071646	46491	110814	0	0	7953	653706	0	0
2024-08-16 03:49:47			0	35247	0	0	0	29093	27750	165504	27078	1071771	46491	110816	0	0	7952	654229	0	0
2024-08-16 03:50:47			0	35250	0	0	0	29090	27750	165544	26896	1071771	46479	110815	0	0	7952	654098	0	0
2024-08-16 03:51:47			0	35223	0	0	0	29096	27750	165680	27281	1071825	46501	110817	0	0	7951	655278	0	0
2024-08-16 03:52:47			0	35218	0	0	0	29064	27730	165636	27022	1071690	46489	110805	0	0	7951	655572	0	0
2024-08-16 03:53:47			0	35219	0	0	0	29090	27740	165708	27170	1071780	46466	110815	0	0	7950	655490	0	0
2024-08-16 03:54:47			0	35204	0	0	0	29109	27730	165704	27092	1071798	46500	110822	0	0	7949	656184	0	0
2024-08-16 03:55:47			0	35185	0	0	0	29064	27730	165704	27409	1071708	46477	110805	0	0	7949	657016	0	0
2024-08-16 03:56:47			0	35172	0	0	0	29077	27720	165744	27324	1071592	46476	110810	0	0	7948	657623	0	0
2024-08-16 03:57:47			0	35154	0	0	0	29077	27720	165836	27182	1071592	46476	110810	0	0	7946	658412	0	0
2024-08-16 03:58:47			0	35146	0	0	0	29088	27720	165932	26752	1071672	46476	110814	0	0	7946	658763	0	0
2024-08-16 03:59:47			0	35149	0	0	0	29075	27730	166056	26984	1071681	46489	110809	0	0	7946	658594	0	0
2024-08-16 04:00:47			0	35127	0	0	0	29057	27720	166156	27053	1071636	46475	110802	0	0	7945	659597	0	0
2024-08-16 04:01:47			0	35101	0	0	0	29057	27700	166171	26812	1071555	46463	110802	0	0	7943	660816	0	0
2024-08-16 04:02:47			0	35093	0	0	0	29080	27700	166187	26996	1071520	46473	110811	0	0	7942	661168	0	0
2024-08-16 04:03:47			0	35077	0	0	0	29111	27710	166251	27027	1071672	46486	110823	0	0	7941	661834	0	0
2024-08-16 04:04:47			0	35080	0	0	0	29098	27720	166307	27066	1071690	46508	110818	0	0	7941	661664	0	0
2024-08-16 04:05:47			0	35068	0	0	0	29111	27710	166347	26779	1071681	46498	110823	0	0	7940	662230	0	0
2024-08-16 04:06:47			0	35083	0	0	0	29109	27720	166399	27102	1071717	46487	110822	0	0	7941	661532	0	0
2024-08-16 04:07:47			0	35068	0	0	0	29101	27730	166367	27133	1071717	46477	110819	0	0	7941	662154	0	0
2024-08-16 04:08:47			0	35059	0	0	0	29093	27710	166347	26941	1071708	46475	110816	0	0	7940	662627	0	0
2024-08-16 04:09:47			0	35030	0	0	0	29088	27720	166423	26937	1071726	46488	110814	0	0	7938	663868	0	0
2024-08-16 04:10:47			0	35061	0	0	0	29098	27710	166387	27010	1071681	46487	110818	0	0	7940	662539	0	0
2024-08-16 04:11:47			0	35058	0	0	0	29109	27710	166283	26927	1071708	46487	110822	0	0	7940	662671	0	0
2024-08-16 04:12:47			0	35063	0	0	0	29103	27720	166387	27100	1071663	46487	110820	0	0	7940	662413	0	0
2024-08-16 04:13:47			0	35033	0	0	0	29093	27720	166319	26812	1071690	46487	110816	0	0	7939	663735	0	0
2024-08-16 04:14:47			0	34999	0	0	0	29077	27720	166511	27015	1071583	46475	110810	0	0	7937	665237	0	0
2024-08-16 04:15:47			0	35031	0	0	0	29080	27720	166503	27348	1071672	46488	110811	0	0	7939	663824	0	0
2024-08-16 04:16:47			0	35018	0	0	0	29062	27710	166551	27182	1071600	46487	110804	0	0	7938	664436	0	0
2024-08-16 04:17:47			0	34992	0	0	0	29054	27710	166555	26998	1071573	46453	110801	0	0	7937	665585	0	0
2024-08-16 04:18:47			0	34994	0	0	0	29046	27700	166663	27109	1071582	46474	110798	0	0	7937	665535	0	0
2024-08-16 04:19:47			0	35009	0	0	0	29054	27700	166599	27022	1071475	46463	110801	0	0	7938	664872	0	0
2024-08-16 04:20:47			0	35026	0	0	0	29054	27690	166475	27232	1071457	46472	110801	0	0	7939	664159	0	0
2024-08-16 04:21:47			0	35053	0	0	0	29051	27690	166371	26785	1071448	46461	110800	0	0	7940	662968	0	0
2024-08-16 04:22:47			0	35078	0	0	0	29044	27690	166235	26883	1071457	46472	110797	0	0	7942	661866	0	0
2024-08-16 04:23:47			0	35087	0	0	0	29036	27680	166131	27111	1071385	46484	110794	0	0	7943	661508	0	0
2024-08-16 04:24:47			0	35104	0	0	0	29038	27670	166143	27208	1071412	46470	110795	0	0	7944	660798	0	0
2024-08-16 04:25:47			0	35107	0	0	0	29036	27680	166196	27102	1071412	46461	110794	0	0	7944	660628	0	0
2024-08-16 04:26:47			0	35097	0	0	0	29036	27680	166095	27220	1071358	46484	110794	0	0	7943	661068	0	0
2024-08-16 04:27:47			0	35105	0	0	0	29031	27670	166203	27036	1071358	46449	110792	0	0	7944	660754	0	0
2024-08-16 04:28:47			0	35086	0	0	0	29015	27670	166191	26883	1071367	46470	110786	0	0	7943	661590	0	0
2024-08-16 04:29:47			0	35064	0	0	0	29012	27660	166455	27161	1071313	46481	110785	0	0	7942	662597	0	0
2024-08-16 04:30:47			0	35042	0	0	0	29018	27660	166395	27235	1071376	46459	110787	0	0	7940	663568	0	0
2024-08-16 04:31:47			0	35026	0	0	0	29015	27660	166535	26941	1071295	46482	110786	0	0	7939	664274	0	0
2024-08-16 04:32:47			0	35033	0	0	0	29012	27660	166563	27147	1071313	46458	110785	0	0	7940	663965	0	0
2024-08-16 04:33:47			0	35016	0	0	0	29020	27640	166483	27164	1071303	46467	110788	0	0	7938	664792	0	0
2024-08-16 04:34:47			0	34972	0	0	0	29023	27650	166651	27166	1071268	46480	110789	0	0	7936	666700	0	0
2024-08-16 04:35:47			0	34944	0	0	0	29020	27650	166839	27178	1071295	46468	110788	0	0	7934	667941	0	0
2024-08-16 04:36:47			0	34920	0	0	0	29028	27630	166955	27048	1071240	46478	110791	0	0	7932	669082	0	0
2024-08-16 04:37:47			0	34929	0	0	0	29025	27640	166955	26961	1071259	46467	110790	0	0	7933	668644	0	0
2024-08-16 04:38:47			0	34930	0	0	0	29020	27630	166975	27097	1071267	46489	110788	0	0	7933	668639	0	0
2024-08-16 04:39:47			0	34946	0	0	0	28999	27620	167035	26722	1071222	46455	110780	0	0	7934	667967	0	0
2024-08-16 04:40:47			0	34937	0	0	0	28994	27630	166999	27239	1071213	46478	110778	0	0	7934	668328	0	0
2024-08-16 04:41:47			0	34938	0	0	0	28986	27620	166987	27046	1071141	46465	110775	0	0	7934	668322	0	0
2024-08-16 04:42:47			0	34931	0	0	0	28994	27630	166847	26859	1071231	46456	110778	0	0	7933	668594	0	0
2024-08-16 04:43:47			0	34957	0	0	0	28989	27620	166887	26823	1071168	46477	110776	0	0	7935	667479	0	0
2024-08-16 04:44:47			0	34933	0	0	0	28989	27620	166919	27038	1071115	46465	110776	0	0	7934	668544	0	0
2024-08-16 04:45:47			0	34931	0	0	0	28986	27620	166975	27039	1071106	46465	110775	0	0	7933	668633	0	0
2024-08-16 04:46:47			0	34882	0	0	0	28971	27610	167135	27223	1071070	46476	110769	0	0	7931	670848	0	0
2024-08-16 04:47:47			0	34891	0	0	0	28981	27620	167187	27242	1071079	46465	110773	0	0	7931	670409	0	0
2024-08-16 04:48:47			0	34890	0	0	0	28971	27610	167207	26934	1071114	46475	110769	0	0	7931	670493	0	0
2024-08-16 04:49:47			0	34891	0	0	0	28958	27610	167239	27204	1071087	46475	110764	0	0	7931	670448	0	0
2024-08-16 04:50:47			0	34904	0	0	0	28966	27590	167107	27036	1071007	46462	110767	0	0	7932	669947	0	0
2024-08-16 04:51:47			0	34918	0	0	0	28966	27600	167087	26963	1071043	46475	110767	0	0	7933	669287	0	0
2024-08-16 04:52:47			0	34952	0	0	0	28973	27590	167023	27034	1071034	46462	110770	0	0	7935	667816	0	0
2024-08-16 04:53:47			0	34971	0	0	0	28973	27600	166875	27142	1071043	46486	110770	0	0	7936	666936	0	0
2024-08-16 04:54:47			0	34964	0	0	0	28971	27590	166907	27041	1071051	46473	110769	0	0	7936	667284	0	0
2024-08-16 04:55:47			0	34976	0	0	0	28984	27600	166879	27098	1071069	46486	110774	0	0	7936	666714	0	0
2024-08-16 04:56:47			0	34958	0	0	0	28976	27600	166855	26922	1071078	46475	110771	0	0	7935	667512	0	0
2024-08-16 04:57:47			0	34939	0	0	0	28971	27590	166919	26939	1071034	46474	110769	0	0	7934	668393	0	0
2024-08-16 04:58:47			0	34936	0	0	0	28961	27590	166995	27246	1071034	46462	110765	0	0	7934	668526	0	0
2024-08-16 04:59:47			0	34925	0	0	0	28992	27600	166963	27144	1071150	46486	110777	0	0	7933	668976	0	0
2024-08-16 05:00:47			0	34921	0	0	0	28994	27600	166923	27154	1071069	46486	110778	0	0	7933	669153	0	0
2024-08-16 05:01:47			0	34942	0	0	0	28984	27600	166855	26785	1071105	46475	110774	0	0	7934	668221	0	0
2024-08-16 05:02:47			0	34962	0	0	0	28971	27600	166927	27241	1071105	46475	110769	0	0	7936	667335	0	0
2024-08-16 05:03:47			0	34965	0	0	0	28966	27600	167007	27098	1071069	46475	110767	0	0	7936	667202	0	0
2024-08-16 05:04:47			0	34990	0	0	0	28981	27600	166975	27093	1071025	46498	110773	0	0	7937	666095	0	0
2024-08-16 05:05:47			0	34972	0	0	0	28966	27590	166847	27041	1071034	46462	110767	0	0	7936	666930	0	0
2024-08-16 05:06:47			0	35007	0	0	0	28958	27600	166811	26922	1071016	46475	110764	0	0	7939	665343	0	0
2024-08-16 05:07:47			0	35019	0	0	0	28961	27590	166743	27131	1071034	46462	110765	0	0	7939	664851	0	0
2024-08-16 05:08:47			0	35015	0	0	0	28950	27590	166735	27175	1070917	46461	110761	0	0	7939	665028	0	0
2024-08-16 05:09:47			0	35048	0	0	0	28963	27590	166695	27067	1070971	46473	110766	0	0	7941	663570	0	0
2024-08-16 05:10:47			0	35051	0	0	0	28940	27590	166667	27027	1070944	46461	110757	0	0	7942	663438	0	0
2024-08-16 05:11:47			0	35055	0	0	0	28932	27580	166627	27119	1070935	46461	110754	0	0	7942	663299	0	0
2024-08-16 05:12:47			0	35055	0	0	0	28924	27570	166611	26939	1070890	46472	110751	0	0	7942	663338	0	0
2024-08-16 05:13:47			0	35025	0	0	0	28922	27580	166551	27187	1070818	46460	110750	0	0	7940	664624	0	0
2024-08-16 05:14:47			0	35054	0	0	0	28919	27580	166531	26838	1070845	46460	110749	0	0	7942	663344	0	0
2024-08-16 05:15:47			0	35069	0	0	0	28911	27560	166487	27012	1070872	46459	110746	0	0	7943	662758	0	0
2024-08-16 05:16:47			0	35089	0	0	0	28906	27570	166371	26922	1070800	46459	110744	0	0	7944	661839	0	0
2024-08-16 05:17:47			0	35104	0	0	0	28906	27560	166319	27105	1070791	46449	110744	0	0	7945	661217	0	0
2024-08-16 05:18:47			0	35130	0	0	0	28883	27560	166240	27053	1070728	46458	110735	0	0	7947	660073	0	0
2024-08-16 05:19:47			0	35142	0	0	0	28883	27550	166144	27171	1070737	46458	110735	0	0	7948	659584	0	0
2024-08-16 05:20:47			0	35163	0	0	0	28890	27540	166052	27197	1070692	46435	110738	0	0	7949	658700	0	0
2024-08-16 05:21:47			0	35198	0	0	0	28890	27540	166000	27133	1070647	46458	110738	0	0	7951	657165	0	0
2024-08-16 05:22:47			0	35188	0	0	0	28885	27550	165980	27246	1070683	46447	110736	0	0	7951	657565	0	0
2024-08-16 05:23:47			0	35190	0	0	0	28880	27520	165924	27013	1070638	46455	110734	0	0	7951	657591	0	0
2024-08-16 05:24:47			0	35214	0	0	0	28875	27520	165884	27154	1070611	46444	110732	0	0	7953	656539	0	0
2024-08-16 05:25:47			0	35211	0	0	0	28864	27510	165884	27116	1070629	46455	110728	0	0	7953	656709	0	0
2024-08-16 05:26:47			0	35235	0	0	0	28867	27510	165960	27310	1070593	46465	110729	0	0	7954	655658	0	0
2024-08-16 05:27:47			0	35211	0	0	0	28867	27510	165932	27118	1070566	46454	110729	0	0	7952	656709	0	0
2024-08-16 05:28:47			0	35217	0	0	0	28859	27510	165888	26935	1070539	46465	110726	0	0	7953	656446	0	0
2024-08-16 05:29:47			0	35214	0	0	0	28864	27500	165920	26845	1070414	46442	110728	0	0	7953	656615	0	0
2024-08-16 05:30:47			0	35211	0	0	0	28854	27490	165824	27183	1070539	46464	110724	0	0	7953	656784	0	0
2024-08-16 05:31:47			0	35240	0	0	0	28854	27500	165864	26767	1070494	46453	110724	0	0	7954	655477	0	0
2024-08-16 05:32:47			0	35230	0	0	0	28836	27490	165840	26852	1070512	46453	110717	0	0	7954	655952	0	0
2024-08-16 05:33:47			0	35246	0	0	0	28838	27480	165864	27050	1070413	46474	110718	0	0	7955	655291	0	0
2024-08-16 05:34:47			0	35233	0	0	0	28841	27480	165904	26916	1070413	46452	110719	0	0	7954	655859	0	0
2024-08-16 05:35:47			0	35238	0	0	0	28825	27480	165880	26894	1070378	46428	110713	0	0	7955	655640	0	0
2024-08-16 05:36:47			0	35232	0	0	0	28831	27480	165904	27268	1070324	46451	110715	0	0	7954	655903	0	0
2024-08-16 05:37:47			0	35247	0	0	0	28831	27480	165824	27138	1070360	46452	110715	0	0	7955	655247	0	0
2024-08-16 05:38:47			0	35226	0	0	0	28820	27470	165876	27199	1070261	46462	110711	0	0	7954	656203	0	0
2024-08-16 05:39:47			0	35245	0	0	0	28825	27470	165820	26873	1070360	46450	110713	0	0	7955	655372	0	0
2024-08-16 05:40:47			0	35223	0	0	0	28823	27470	165876	27059	1070333	46439	110712	0	0	7954	656334	0	0
2024-08-16 05:41:47			0	35191	0	0	0	28810	27460	166036	26949	1070297	46449	110707	0	0	7952	657774	0	0
2024-08-16 05:42:47			0	35163	0	0	0	28815	27460	166208	26828	1070315	46460	110709	0	0	7950	659003	0	0
2024-08-16 05:43:47			0	35148	0	0	0	28828	27450	166292	27034	1070225	46460	110714	0	0	7949	659699	0	0
2024-08-16 05:44:47			0	35099	0	0	0	28818	27440	166403	27017	1070315	46436	110710	0	0	7946	661893	0	0
2024-08-16 05:45:47			0	35051	0	0	0	28818	27450	166611	27064	1070225	46449	110710	0	0	7943	663972	0	0
2024-08-16 05:46:47			0	35037	0	0	0	28812	27450	166759	26904	1070270	46459	110708	0	0	7942	664591	0	0
2024-08-16 05:47:47			0	35020	0	0	0	28812	27440	166743	27185	1070207	46458	110708	0	0	7941	665380	0	0
2024-08-16 05:48:47			0	35025	0	0	0	28805	27440	166735	27092	1070261	46447	110705	0	0	7941	665159	0	0
2024-08-16 05:49:47			0	35035	0	0	0	28810	27430	166731	27372	1070162	46447	110707	0	0	7942	664755	0	0
2024-08-16 05:50:47			0	35066	0	0	0	28802	27430	166495	26941	1070135	46458	110704	0	0	7944	663386	0	0
2024-08-16 05:51:47			0	35096	0	0	0	28807	27430	166523	27268	1070216	46458	110706	0	0	7946	662064	0	0
2024-08-16 05:52:47			0	35122	0	0	0	28818	27430	166292	26915	1070207	46468	110710	0	0	7947	660919	0	0
2024-08-16 05:53:47			0	35144	0	0	0	28805	27430	166280	27306	1070207	46446	110705	0	0	7949	659951	0	0
2024-08-16 05:54:47			0	35165	0	0	0	28807	27430	166196	26894	1070189	46458	110706	0	0	7950	659028	0	0
2024-08-16 05:55:47			0	35182	0	0	0	28799	27430	166068	27126	1070126	46458	110703	0	0	7951	658282	0	0
2024-08-16 05:56:47			0	35201	0	0	0	28799	27430	165988	26925	1070153	46446	110703	0	0	7953	657449	0	0
2024-08-16 05:57:47			0	35203	0	0	0	28797	27420	166072	27301	1070144	46457	110702	0	0	7953	657399	0	0
2024-08-16 05:58:47			0	35205	0	0	0	28794	27430	166000	27235	1070207	46446	110701	0	0	7953	657274	0	0
2024-08-16 05:59:47			0	35205	0	0	0	28802	27420	165852	26979	1070171	46457	110704	0	0	7953	657312	0	0
2024-08-16 06:00:47			0	35203	0	0	0	28786	27420	166028	26934	1070144	46457	110698	0	0	7953	657399	0	0
2024-08-16 06:01:47			0	35194	0	0	0	28789	27430	166056	26986	1070207	46458	110699	0	0	7952	657756	0	0
2024-08-16 06:02:47			0	35203	0	0	0	28794	27420	166024	26844	1070081	46457	110701	0	0	7953	657399	0	0
2024-08-16 06:03:47			0	35192	0	0	0	28802	27420	166120	27166	1070081	46445	110704	0	0	7952	657881	0	0
2024-08-16 06:04:47			0	35182	0	0	0	28794	27420	166088	27150	1070117	46467	110701	0	0	7951	658320	0	0
2024-08-16 06:05:47			0	35213	0	0	0	28789	27410	166076	27098	1070117	46456	110699	0	0	7953	656999	0	0
2024-08-16 06:06:47			0	35207	0	0	0	28789	27420	166056	27396	1070081	46467	110699	0	0	7953	657224	0	0
2024-08-16 06:07:47			0	35204	0	0	0	28786	27410	166024	26788	1070117	46444	110698	0	0	7953	657393	0	0
2024-08-16 06:08:47			0	35178	0	0	0	28781	27410	166208	27045	1070072	46444	110696	0	0	7951	658533	0	0
2024-08-16 06:09:47			0	35130	0	0	0	28802	27410	166428	27019	1070099	46456	110704	0	0	7948	660643	0	0
2024-08-16 06:10:47			0	35088	0	0	0	28794	27410	166551	27229	1070099	46456	110701	0	0	7945	662492	0	0
2024-08-16 06:11:47			0	35069	0	0	0	28794	27410	166675	27298	1070153	46466	110701	0	0	7944	663330	0	0
2024-08-16 06:12:47			0	35034	0	0	0	28799	27410	166859	26883	1070063	46444	110703	0	0	7942	664876	0	0
2024-08-16 06:13:47			0	35024	0	0	0	28794	27400	167007	26965	1070027	46432	110701	0	0	7941	665357	0	0
2024-08-16 06:14:47			0	35015	0	0	0	28786	27410	166999	26935	1070063	46456	110698	0	0	7941	665716	0	0
2024-08-16 06:15:47			0	34994	0	0	0	28786	27410	167059	27086	1070072	46456	110698	0	0	7940	666646	0	0
2024-08-16 06:16:47			0	35002	0	0	0	28768	27400	167007	27083	1070027	46443	110691	0	0	7940	666330	0	0
2024-08-16 06:17:47			0	34999	0	0	0	28763	27400	167195	27046	1070000	46455	110689	0	0	7940	666463	0	0
2024-08-16 06:18:47			0	35010	0	0	0	28753	27400	167119	26902	1069937	46442	110685	0	0	7941	665976	0	0
2024-08-16 06:19:47			0	34984	0	0	0	28753	27390	167115	26998	1069928	46442	110685	0	0	7940	667166	0	0
2024-08-16 06:20:47			0	35006	0	0	0	28758	27390	167115	26882	1069901	46442	110687	0	0	7941	666191	0	0
2024-08-16 06:21:47			0	34995	0	0	0	28768	27390	167103	27190	1069919	46442	110691	0	0	7940	666678	0	0
2024-08-16 06:22:47			0	35025	0	0	0	28761	27380	167175	26918	1069937	46441	110688	0	0	7942	665389	0	0
2024-08-16 06:23:47			0	35030	0	0	0	28761	27380	167059	27005	1069901	46440	110688	0	0	7942	665168	0	0
2024-08-16 06:24:47			0	35024	0	0	0	28750	27390	166943	27027	1069946	46464	110684	0	0	7942	665395	0	0
2024-08-16 06:25:47			0	35023	0	0	0	28755	27380	166955	26982	1069901	46440	110686	0	0	7942	665477	0	0
2024-08-16 06:26:47			0	35042	0	0	0	28742	27370	166843	27071	1069919	46452	110681	0	0	7943	664675	0	0
2024-08-16 06:27:47			0	35047	0	0	0	28740	27370	166799	27428	1069919	46440	110680	0	0	7944	664454	0	0
2024-08-16 06:28:47			0	35071	0	0	0	28727	27380	166931	26795	1069794	46440	110675	0	0	7945	663357	0	0
2024-08-16 06:29:47			0	35078	0	0	0	28714	27370	166783	26795	1069856	46440	110670	0	0	7946	663086	0	0
2024-08-16 06:30:47			0	35076	0	0	0	28722	27360	166763	27015	1069838	46427	110673	0	0	7946	663212	0	0
2024-08-16 06:31:47			0	35088	0	0	0	28724	27360	166743	26824	1069793	46439	110674	0	0	7946	662683	0	0
2024-08-16 06:32:47			0	35090	0	0	0	28729	27360	166731	26946	1069811	46450	110676	0	0	7946	662595	0	0
2024-08-16 06:33:47			0	35085	0	0	0	28722	27350	166675	26899	1069802	46438	110673	0	0	7946	662853	0	0
2024-08-16 06:34:47			0	35100	0	0	0	28724	27350	166651	26811	1069722	46438	110674	0	0	7947	662192	0	0
2024-08-16 06:35:47			0	35107	0	0	0	28724	27350	166619	26831	1069766	46450	110674	0	0	7948	661883	0	0
2024-08-16 06:36:47			0	35114	0	0	0	28724	27350	166587	26928	1069722	46450	110674	0	0	7948	661575	0	0
2024-08-16 06:37:47			0	35131	0	0	0	28727	27360	166692	27085	1069784	46460	110675	0	0	7949	660789	0	0
2024-08-16 06:38:47			0	35117	0	0	0	28727	27350	166647	27156	1069766	46450	110675	0	0	7948	661443	0	0
2024-08-16 06:39:47			0	35099	0	0	0	28711	27350	166639	26925	1069713	46438	110669	0	0	7947	662236	0	0
2024-08-16 06:40:47			0	35108	0	0	0	28714	27340	166656	27215	1069704	46437	110670	0	0	7948	661877	0	0
2024-08-16 06:41:47			0	35097	0	0	0	28703	27340	166751	26928	1069677	46426	110666	0	0	7947	662362	0	0
2024-08-16 06:42:47			0	35101	0	0	0	28706	27340	166632	27204	1069722	46436	110667	0	0	7947	662186	0	0
2024-08-16 06:43:47			0	35092	0	0	0	28701	27340	166667	27183	1069650	46449	110665	0	0	7947	662583	0	0
2024-08-16 06:44:47			0	35098	0	0	0	28698	27330	166615	27154	1069659	46424	110664	0	0	7947	662356	0	0
2024-08-16 06:45:47			0	35082	0	0	0	28698	27330	166623	26838	1069686	46435	110664	0	0	7946	663062	0	0
2024-08-16 06:46:47			0	35086	0	0	0	28698	27340	166627	27253	1069722	46448	110664	0	0	7947	662847	0	0
2024-08-16 06:47:47			0	35097	0	0	0	28688	27330	166547	26911	1069650	46435	110660	0	0	7947	662400	0	0
2024-08-16 06:48:47			0	35083	0	0	0	28683	27330	166719	27157	1069596	46435	110658	0	0	7947	663018	0	0
2024-08-16 06:49:47			0	35069	0	0	0	28685	27320	166715	26977	1069578	46434	110659	0	0	7946	663673	0	0
2024-08-16 06:50:47			0	35043	0	0	0	28677	27320	166815	26859	1069605	46446	110656	0	0	7944	664822	0	0
2024-08-16 06:51:47			0	35056	0	0	0	28675	27310	166911	26984	1069641	46445	110655	0	0	7945	664286	0	0
2024-08-16 06:52:47			0	35052	0	0	0	28680	27310	166839	27227	1069542	46422	110657	0	0	7945	664463	0	0
2024-08-16 06:53:47			0	35040	0	0	0	28685	27310	166823	27159	1069506	46433	110659	0	0	7944	664993	0	0
2024-08-16 06:54:47			0	35057	0	0	0	28680	27310	166787	26925	1069560	46433	110657	0	0	7945	664242	0	0
2024-08-16 06:55:47			0	35053	0	0	0	28683	27300	166843	27105	1069524	46445	110658	0	0	7945	664456	0	0
2024-08-16 06:56:47			0	35020	0	0	0	28683	27300	167075	27059	1069524	46445	110658	0	0	7942	665916	0	0
2024-08-16 06:57:47			0	34993	0	0	0	28683	27300	167151	27287	1069488	46432	110658	0	0	7941	667112	0	0
2024-08-16 06:58:47			0	34983	0	0	0	28677	27300	167267	27118	1069524	46456	110656	0	0	7940	667555	0	0
2024-08-16 06:59:47			0	34955	0	0	0	28670	27290	167291	27020	1069506	46431	110653	0	0	7939	668836	0	0
2024-08-16 07:00:47			0	34970	0	0	0	28667	27300	167267	27220	1069470	46445	110652	0	0	7940	668132	0	0
2024-08-16 07:01:47			0	34986	0	0	0	28664	27300	167219	26993	1069515	46432	110651	0	0	7941	667422	0	0
2024-08-16 07:02:47			0	34979	0	0	0	28659	27290	167143	26923	1069533	46410	110649	0	0	7940	667771	0	0
2024-08-16 07:03:47			0	34999	0	0	0	28654	27290	167099	27306	1069452	46431	110647	0	0	7942	666884	0	0
2024-08-16 07:04:47			0	35007	0	0	0	28649	27290	167031	27085	1069470	46420	110645	0	0	7942	666530	0	0
2024-08-16 07:05:47			0	35024	0	0	0	28649	27280	167083	27249	1069398	46430	110645	0	0	7943	665816	0	0
2024-08-16 07:06:47			0	35026	0	0	0	28644	27270	167067	26823	1069461	46440	110643	0	0	7943	665765	0	0
2024-08-16 07:07:47			0	35041	0	0	0	28641	27280	167031	27062	1069371	46442	110642	0	0	7944	665063	0	0
2024-08-16 07:08:47			0	35023	0	0	0	28644	27270	166955	27071	1069335	46418	110643	0	0	7943	665898	0	0
2024-08-16 07:09:47			0	35037	0	0	0	28628	27270	166967	26915	1069389	46429	110637	0	0	7944	665278	0	0
2024-08-16 07:10:47			0	35061	0	0	0	28636	27270	166871	26934	1069353	46417	110640	0	0	7946	664218	0	0
2024-08-16 07:11:47			0	35050	0	0	0	28633	27270	166843	26927	1069335	46429	110639	0	0	7945	664704	0	0
2024-08-16 07:12:47			0	35060	0	0	0	28633	27270	166903	27255	1069353	46440	110639	0	0	7946	664262	0	0
2024-08-16 07:13:47			0	35062	0	0	0	28646	27260	166895	27069	1069308	46440	110644	0	0	7946	664211	0	0
2024-08-16 07:14:47			0	35072	0	0	0	28638	27260	166887	27180	1069344	46428	110641	0	0	7946	663770	0	0
2024-08-16 07:15:47			0	35084	0	0	0	28631	27260	166955	27176	1069281	46428	110638	0	0	7947	663240	0	0
2024-08-16 07:16:47			0	35072	0	0	0	28625	27260	166971	27220	1069308	46428	110636	0	0	7947	663770	0	0
2024-08-16 07:17:47			0	35066	0	0	0	28631	27260	166995	26857	1069263	46428	110638	0	0	7946	664035	0	0
2024-08-16 07:18:47			0	35064	0	0	0	28636	27250	166875	27294	1069299	46460	110640	0	0	7946	664161	0	0
2024-08-16 07:19:47			0	35079	0	0	0	28651	27250	166815	26953	1069326	46439	110646	0	0	7946	663499	0	0
2024-08-16 07:20:47			0	35068	0	0	0	28649	27260	166983	27242	1069308	46417	110645	0	0	7946	663946	0	0
2024-08-16 07:21:47			0	35035	0	0	0	28641	27260	167031	27156	1069254	46440	110642	0	0	7944	665405	0	0
2024-08-16 07:22:47			0	35026	0	0	0	28651	27260	167127	27166	1069389	46428	110646	0	0	7943	665803	0	0
2024-08-16 07:23:47			0	35010	0	0	0	28657	27270	167151	26788	1069353	46451	110648	0	0	7942	666474	0	0
2024-08-16 07:24:47			0	35012	0	0	0	28675	27260	167227	26896	1069362	46440	110655	0	0	7942	666423	0	0
2024-08-16 07:25:47			0	35003	0	0	0	28670	27270	167123	27208	1069434	46417	110653	0	0	7941	666784	0	0
2024-08-16 07:26:47			0	35012	0	0	0	28667	27260	167063	27090	1069398	46440	110652	0	0	7942	666423	0	0
2024-08-16 07:27:47			0	35015	0	0	0	28677	27270	167151	27126	1069443	46441	110656	0	0	7942	666252	0	0
2024-08-16 07:28:47			0	35022	0	0	0	28675	27280	167083	26821	1069425	46430	110655	0	0	7943	665904	0	0
2024-08-16 07:29:47			0	35023	0	0	0	28667	27260	167151	27175	1069398	46440	110652	0	0	7943	665936	0	0
2024-08-16 07:30:47			0	35034	0	0	0	28680	27270	167139	26932	1069461	46461	110657	0	0	7943	665411	0	0
2024-08-16 07:31:47			0	35048	0	0	0	28680	27270	167091	26703	1069470	46429	110657	0	0	7944	664792	0	0
2024-08-16 07:32:47			0	35074	0	0	0	28677	27270	167007	26850	1069470	46452	110656	0	0	7946	663643	0	0
2024-08-16 07:33:47			0	35057	0	0	0	28683	27270	166935	26835	1069434	46440	110658	0	0	7945	664394	0	0
2024-08-16 07:34:47			0	35037	0	0	0	28690	27270	167051	27180	1069470	46452	110661	0	0	7943	665278	0	0
2024-08-16 07:35:47			0	35059	0	0	0	28683	27290	166887	27353	1069470	46420	110658	0	0	7945	664230	0	0
2024-08-16 07:36:47			0	35036	0	0	0	28680	27280	166915	27064	1069461	46454	110657	0	0	7943	665285	0	0
2024-08-16 07:37:47			0	35064	0	0	0	28670	27280	167023	27255	1069434	46443	110653	0	0	7945	664047	0	0
2024-08-16 07:38:47			0	35030	0	0	0	28672	27280	167059	27027	1069380	46443	110654	0	0	7943	665550	0	0
2024-08-16 07:39:47			0	35005	0	0	0	28662	27280	167231	27246	1069479	46442	110650	0	0	7942	666657	0	0
2024-08-16 07:40:47			0	34961	0	0	0	28664	27280	167419	27334	1069425	46442	110651	0	0	7939	668608	0	0
2024-08-16 07:41:47			0	34957	0	0	0	28677	27270	167475	27244	1069470	46452	110656	0	0	7938	668824	0	0
2024-08-16 07:42:47			0	34949	0	0	0	28688	27270	167443	27241	1069416	46441	110660	0	0	7938	669179	0	0
2024-08-16 07:43:47			0	34955	0	0	0	28680	27280	167423	26812	1069515	46443	110657	0	0	7938	668874	0	0
2024-08-16 07:44:47			0	34953	0	0	0	28680	27280	167331	27007	1069506	46442	110657	0	0	7938	668963	0	0
2024-08-16 07:45:47			0	34955	0	0	0	28677	27280	167379	27213	1069434	46443	110656	0	0	7938	668874	0	0
2024-08-16 07:46:47			0	34943	0	0	0	28685	27290	167423	26982	1069524	46464	110659	0	0	7938	669369	0	0
2024-08-16 07:47:47			0	34938	0	0	0	28688	27280	167459	27083	1069461	46443	110660	0	0	7937	669630	0	0
2024-08-16 07:48:47			0	34914	0	0	0	28690	27290	167495	27114	1069497	46431	110661	0	0	7936	670659	0	0
2024-08-16 07:49:47			0	34918	0	0	0	28685	27280	167459	27251	1069515	46443	110659	0	0	7936	670519	0	0
2024-08-16 07:50:47			0	34919	0	0	0	28688	27280	167511	27187	1069541	46443	110660	0	0	7936	670475	0	0
2024-08-16 07:51:47			0	34946	0	0	0	28703	27290	167487	27069	1069470	46443	110666	0	0	7937	669236	0	0
2024-08-16 07:52:47			0	34950	0	0	0	28688	27300	167343	27015	1069632	46422	110660	0	0	7938	669020	0	0
2024-08-16 07:53:47			0	34975	0	0	0	28693	27300	167375	27203	1069542	46444	110662	0	0	7939	667910	0	0
2024-08-16 07:54:47			0	34990	0	0	0	28706	27300	167335	27163	1069605	46456	110667	0	0	7940	667245	0	0
2024-08-16 07:55:47			0	35005	0	0	0	28716	27300	167207	27043	1069605	46445	110671	0	0	7941	666580	0	0
2024-08-16 07:56:47			0	35018	0	0	0	28709	27300	167235	26668	1069524	46445	110668	0	0	7942	666004	0	0
2024-08-16 07:57:47			0	35052	0	0	0	28714	27300	167071	26859	1069569	46455	110670	0	0	7944	664501	0	0
2024-08-16 07:58:47			0	35037	0	0	0	28709	27300	166999	27012	1069605	46445	110668	0	0	7943	665164	0	0
2024-08-16 07:59:47			0	35042	0	0	0	28711	27300	166951	26932	1069524	46445	110669	0	0	7943	664943	0	0
2024-08-16 08:00:47			0	35077	0	0	0	28703	27300	166871	27057	1069605	46433	110666	0	0	7946	663397	0	0
2024-08-16 08:01:47			0	35100	0	0	0	28701	27310	166863	27147	1069533	46433	110665	0	0	7947	662344	0	0
2024-08-16 08:02:47			0	35098	0	0	0	28706	27300	166855	27185	1069578	46445	110667	0	0	7947	662470	0	0
2024-08-16 08:03:47			0	35101	0	0	0	28711	27300	166731	27301	1069632	46445	110669	0	0	7947	662338	0	0
2024-08-16 08:04:47			0	35113	0	0	0	28709	27310	166744	26981	1069641	46456	110668	0	0	7948	661771	0	0
2024-08-16 08:05:47			0	35112	0	0	0	28703	27300	166783	26941	1069685	46433	110666	0	0	7948	661853	0	0
2024-08-16 08:06:47			0	35109	0	0	0	28714	27310	166720	27194	1069694	46445	110670	0	0	7948	661947	0	0
2024-08-16 08:07:47			0	35088	0	0	0	28714	27310	166819	27020	1069677	46433	110670	0	0	7946	662873	0	0
2024-08-16 08:08:47			0	35088	0	0	0	28711	27310	166847	27152	1069587	46445	110669	0	0	7946	662873	0	0
2024-08-16 08:09:47			0	35090	0	0	0	28719	27310	166835	27048	1069650	46456	110672	0	0	7946	662785	0	0
2024-08-16 08:10:47			0	35095	0	0	0	28719	27320	166799	27326	1069695	46435	110672	0	0	7947	662526	0	0
2024-08-16 08:11:47			0	35077	0	0	0	28722	27330	166855	27220	1069677	46435	110673	0	0	7946	663282	0	0
2024-08-16 08:12:47			0	35052	0	0	0	28719	27330	166803	26937	1069730	46435	110672	0	0	7944	664386	0	0
2024-08-16 08:13:47			0	35065	0	0	0	28714	27320	166907	27100	1069686	46434	110670	0	0	7945	663850	0	0
2024-08-16 08:14:47			0	35056	0	0	0	28714	27310	166931	27196	1069703	46445	110670	0	0	7944	664286	0	0
2024-08-16 08:15:47			0	35052	0	0	0	28719	27320	166931	27093	1069712	46446	110672	0	0	7944	664424	0	0
2024-08-16 08:16:47			0	35044	0	0	0	28724	27320	166891	26908	1069659	46446	110674	0	0	7943	664778	0	0
2024-08-16 08:17:47			0	35054	0	0	0	28722	27330	166847	27098	1069704	46447	110673	0	0	7944	664298	0	0
2024-08-16 08:18:47			0	35061	0	0	0	28719	27330	166903	27123	1069713	46435	110672	0	0	7945	663989	0	0
2024-08-16 08:19:47			0	35059	0	0	0	28727	27320	166787	26897	1069712	46446	110675	0	0	7944	664115	0	0
2024-08-16 08:20:47			0	35078	0	0	0	28735	27330	166819	26696	1069757	46435	110678	0	0	7945	663238	0	0
2024-08-16 08:21:47			0	35061	0	0	0	28729	27330	166807	27072	1069730	46458	110676	0	0	7944	663989	0	0
2024-08-16 08:22:47			0	35066	0	0	0	28735	27330	166807	27034	1069757	46447	110678	0	0	7945	663768	0	0
2024-08-16 08:23:47			0	35088	0	0	0	28737	27330	166707	26956	1069793	46447	110679	0	0	7946	662797	0	0
2024-08-16 08:24:47			0	35090	0	0	0	28742	27320	166763	26800	1069721	46447	110681	0	0	7946	662747	0	0
2024-08-16 08:25:47			0	35080	0	0	0	28753	27330	166747	26934	1069793	46458	110685	0	0	7945	663150	0	0
2024-08-16 08:26:47			0	35121	0	0	0	28753	27330	166696	26987	1069847	46435	110685	0	0	7948	661343	0	0
2024-08-16 08:27:47			0	35141	0	0	0	28755	27340	166564	26842	1069838	46449	110686	0	0	7949	660425	0	0
2024-08-16 08:28:47			0	35156	0	0	0	28750	27350	166448	27066	1069820	46438	110684	0	0	7950	659727	0	0
2024-08-16 08:29:47			0	35183	0	0	0	28732	27330	166332	26913	1069820	46447	110677	0	0	7952	658617	0	0
2024-08-16 08:30:47			0	35200	0	0	0	28724	27340	166344	27013	1069784	46437	110674	0	0	7953	657833	0	0
2024-08-16 08:31:47			0	35203	0	0	0	28711	27330	166168	26890	1069793	46435	110669	0	0	7954	657739	0	0
2024-08-16 08:32:47			0	35219	0	0	0	28722	27340	166120	27052	1069722	46436	110673	0	0	7955	657000	0	0
2024-08-16 08:33:47			0	35243	0	0	0	28716	27330	165996	26956	1069757	46435	110671	0	0	7956	655987	0	0
2024-08-16 08:34:47			0	35271	0	0	0	28732	27340	165872	26989	1069775	46436	110677	0	0	7958	654725	0	0
2024-08-16 08:35:47			0	35338	0	0	0	28727	27340	165588	27201	1069775	46448	110675	0	0	7962	651801	0	0
2024-08-16 08:36:47			0	35405	0	0	0	28735	27340	165352	26991	1069784	46426	110678	0	0	7966	648888	0	0
2024-08-16 08:37:47			0	35480	0	0	0	28740	27340	164784	26665	1069838	46459	110680	0	0	7970	645637	0	0
2024-08-16 08:38:47			0	35541	0	0	0	28735	27350	164600	26984	1069829	46438	110678	0	0	7974	642966	0	0
2024-08-16 08:39:47			0	35579	0	0	0	28737	27340	164344	27128	1069757	46437	110679	0	0	7977	641365	0	0
2024-08-16 08:40:47			0	35622	0	0	0	28740	27340	164236	26644	1069802	46436	110680	0	0	7979	639516	0	0
2024-08-16 08:41:47			0	35678	0	0	0	28740	27350	164100	27034	1069847	46438	110680	0	0	7983	637077	0	0
2024-08-16 08:42:47			0	35690	0	0	0	28742	27350	164036	27036	1069766	46460	110681	0	0	7983	636563	0	0
2024-08-16 08:43:47			0	35728	0	0	0	28745	27340	163824	26682	1069811	46449	110682	0	0	7986	634974	0	0
2024-08-16 08:44:47			0	35729	0	0	0	28740	27340	163720	26994	1069811	46437	110680	0	0	7986	634931	0	0
2024-08-16 08:45:47			0	35746	0	0	0	28748	27350	163712	26939	1069847	46438	110683	0	0	7987	634169	0	0
2024-08-16 08:46:47			0	35749	0	0	0	28740	27350	163588	26769	1069874	46438	110680	0	0	7987	634041	0	0
2024-08-16 08:47:47			0	35771	0	0	0	28745	27340	163696	27170	1069838	46437	110682	0	0	7988	633138	0	0
2024-08-16 08:48:47			0	35799	0	0	0	28750	27350	163460	27145	1069874	46438	110684	0	0	7990	631909	0	0
2024-08-16 08:49:47			0	35808	0	0	0	28748	27340	163484	27329	1069811	46449	110683	0	0	7990	631562	0	0
2024-08-16 08:50:47			0	35823	0	0	0	28745	27350	163352	26741	1069856	46450	110682	0	0	7991	630887	0	0
2024-08-16 08:51:47			0	35840	0	0	0	28755	27360	163232	26899	1069865	46450	110686	0	0	7992	630128	0	0
2024-08-16 08:52:47			0	35842	0	0	0	28755	27350	163156	26667	1069856	46450	110686	0	0	7992	630079	0	0
2024-08-16 08:53:47			0	35856	0	0	0	28763	27360	163164	27147	1069919	46450	110689	0	0	7993	629448	0	0
2024-08-16 08:54:47			0	35875	0	0	0	28766	27360	163233	26736	1069901	46451	110690	0	0	7994	628642	0	0
2024-08-16 08:55:47			0	35851	0	0	0	28763	27360	163084	26986	1069919	46460	110689	0	0	7993	629660	0	0
2024-08-16 08:56:47			0	35887	0	0	0	28776	27370	163193	27072	1069910	46452	110694	0	0	7995	628096	0	0
2024-08-16 08:57:47			0	35889	0	0	0	28774	27370	163109	26922	1069937	46452	110693	0	0	7995	628012	0	0
2024-08-16 08:58:47			0	35892	0	0	0	28781	27360	163177	27092	1069982	46451	110696	0	0	7995	627921	0	0
2024-08-16 08:59:47			0	35879	0	0	0	28781	27360	163117	27312	1069982	46439	110696	0	0	7994	628472	0	0
2024-08-16 09:00:47			0	35885	0	0	0	28789	27380	163121	26883	1070009	46462	110699	0	0	7995	628145	0	0
2024-08-16 09:01:47			0	35916	0	0	0	28792	27380	163057	26693	1070063	46452	110700	0	0	7996	626832	0	0
2024-08-16 09:02:47			0	35939	0	0	0	28789	27390	163049	27145	1070108	46454	110699	0	0	7998	625822	0	0
2024-08-16 09:03:47			0	35920	0	0	0	28797	27390	162957	27017	1070108	46454	110702	0	0	7997	626626	0	0
2024-08-16 09:04:47			0	35956	0	0	0	28807	27400	162897	26759	1070126	46454	110706	0	0	7999	625068	0	0
2024-08-16 09:05:47			0	35944	0	0	0	28820	27400	162829	26830	1070188	46455	110711	0	0	7998	625575	0	0
2024-08-16 09:06:47			0	35957	0	0	0	28818	27400	162737	26722	1070215	46455	110710	0	0	7999	625026	0	0
2024-08-16 09:07:47			0	35969	0	0	0	28867	27400	162757	26720	1070242	46476	110729	0	0	7998	624519	0	0
2024-08-16 09:08:47			0	35957	0	0	0	28893	27410	162681	26750	1070341	46466	110739	0	0	7997	624990	0	0
2024-08-16 09:09:47			0	35974	0	0	0	28906	27430	162629	26772	1070476	46468	110744	0	0	7998	624200	0	0
2024-08-16 09:10:47			0	35984	0	0	0	28924	27440	162705	26741	1070503	46480	110751	0	0	7999	623742	0	0
2024-08-16 09:11:47			0	35990	0	0	0	28937	27450	162741	27111	1070602	46471	110756	0	0	7999	623453	0	0
2024-08-16 09:12:47			0	35981	0	0	0	28940	27470	162757	26975	1070665	46496	110757	0	0	7998	623761	0	0
2024-08-16 09:13:47			0	35983	0	0	0	28948	27470	162621	26875	1070665	46484	110760	0	0	7998	623677	0	0
2024-08-16 09:14:47			0	35985	0	0	0	28961	27490	162681	27067	1070799	46474	110765	0	0	7998	623520	0	0
2024-08-16 09:15:47			0	35984	0	0	0	28966	27500	162761	26674	1070772	46487	110767	0	0	7998	623527	0	0
2024-08-16 09:16:47			0	35968	0	0	0	28961	27500	162733	27100	1070790	46486	110765	0	0	7997	624202	0	0
2024-08-16 09:17:47			0	35972	0	0	0	28968	27510	162673	27291	1070835	46476	110768	0	0	7998	623997	0	0
2024-08-16 09:18:47			0	35984	0	0	0	28961	27520	162625	27175	1070773	46488	110765	0	0	7998	623455	0	0
2024-08-16 09:19:47			0	36003	0	0	0	28971	27530	162693	27029	1070862	46478	110769	0	0	7999	622619	0	0
2024-08-16 09:20:47			0	35979	0	0	0	28966	27540	162713	26837	1070908	46468	110767	0	0	7998	623594	0	0
2024-08-16 09:21:47			0	35987	0	0	0	28971	27550	162661	26908	1070899	46491	110769	0	0	7999	623221	0	0
2024-08-16 09:22:47			0	35978	0	0	0	28961	27540	162633	26998	1070854	46479	110765	0	0	7998	623636	0	0
2024-08-16 09:23:47			0	35978	0	0	0	29002	27550	162617	26946	1071006	46480	110781	0	0	7997	623600	0	0
2024-08-16 09:24:47			0	35981	0	0	0	29044	27560	162633	27045	1071132	46481	110797	0	0	7997	623438	0	0
2024-08-16 09:25:47			0	35977	0	0	0	29046	27560	162645	26993	1071141	46482	110798	0	0	7997	623607	0	0
2024-08-16 09:26:47			0	35979	0	0	0	29067	27580	162609	27081	1071231	46495	110806	0	0	7997	623451	0	0
2024-08-16 09:27:47			0	35966	0	0	0	29070	27590	162585	27197	1071330	46485	110807	0	0	7996	623963	0	0
2024-08-16 09:28:47			0	35988	0	0	0	29062	27600	162561	27019	1071312	46486	110804	0	0	7997	623000	0	0
2024-08-16 09:29:47			0	35979	0	0	0	29075	27610	162585	26928	1071330	46486	110809	0	0	7997	623343	0	0
2024-08-16 09:30:47			0	35977	0	0	0	29088	27620	162477	27060	1071402	46477	110814	0	0	7996	623391	0	0
2024-08-16 09:31:47			0	36000	0	0	0	29103	27620	162485	27076	1071545	46477	110820	0	0	7997	622422	0	0
2024-08-16 09:32:47			0	35984	0	0	0	29103	27630	162553	26842	1071509	46478	110820	0	0	7997	623061	0	0
2024-08-16 09:33:47			0	35986	0	0	0	29098	27650	162569	26857	1071564	46480	110818	0	0	7997	622905	0	0
2024-08-16 09:34:47			0	35975	0	0	0	29116	27650	162453	26837	1071600	46491	110825	0	0	7996	623368	0	0
2024-08-16 09:35:47			0	35987	0	0	0	29103	27670	162409	27020	1071663	46482	110820	0	0	7997	622791	0	0
2024-08-16 09:36:47			0	35996	0	0	0	29109	27670	162445	27171	1071717	46482	110822	0	0	7997	622412	0	0
2024-08-16 09:37:47			0	36003	0	0	0	29127	27670	162325	27050	1071717	46482	110829	0	0	7997	622117	0	0
2024-08-16 09:38:47			0	36003	0	0	0	29137	27680	162317	27045	1071762	46484	110833	0	0	7997	622081	0	0
2024-08-16 09:39:47			0	36022	0	0	0	29132	27690	162309	27111	1071807	46495	110831	0	0	7999	621246	0	0
2024-08-16 09:40:47			0	36016	0	0	0	29096	27690	162249	27013	1071726	46472	110817	0	0	7999	621499	0	0
2024-08-16 09:41:47			0	36023	0	0	0	29088	27690	162185	26987	1071645	46461	110814	0	0	7999	621204	0	0
2024-08-16 09:42:47			0	36036	0	0	0	29083	27680	162241	27206	1071654	46484	110812	0	0	8000	620693	0	0
2024-08-16 09:43:47			0	36057	0	0	0	29103	27690	162109	27156	1071699	46461	110820	0	0	8001	619776	0	0
2024-08-16 09:44:47			0	36050	0	0	0	29103	27690	162077	27152	1071699	46484	110820	0	0	8001	620069	0	0
2024-08-16 09:45:47			0	36059	0	0	0	29096	27690	162001	26944	1071726	46472	110817	0	0	8002	619692	0	0
2024-08-16 09:46:47			0	36083	0	0	0	29109	27690	161941	26953	1071726	46472	110822	0	0	8003	618685	0	0
2024-08-16 09:47:47			0	36090	0	0	0	29109	27700	161893	27246	1071708	46485	110822	0	0	8003	618356	0	0
2024-08-16 09:48:47			0	36103	0	0	0	29116	27700	161957	26996	1071771	46486	110825	0	0	8004	617811	0	0
2024-08-16 09:49:47			0	36111	0	0	0	29116	27700	161857	27123	1071825	46486	110825	0	0	8004	617476	0	0
2024-08-16 09:50:47			0	36118	0	0	0	29127	27700	161737	26922	1071798	46486	110829	0	0	8005	617183	0	0
2024-08-16 09:51:47			0	36132	0	0	0	29124	27710	161773	26684	1071753	46474	110828	0	0	8006	616562	0	0
2024-08-16 09:52:47			0	36150	0	0	0	29140	27710	161649	27041	1071807	46486	110834	0	0	8006	615809	0	0
2024-08-16 09:53:47			0	36160	0	0	0	29142	27720	161605	26935	1071932	46487	110835	0	0	8007	615356	0	0
2024-08-16 09:54:47			0	36182	0	0	0	29153	27720	161525	27001	1071959	46487	110839	0	0	8008	614437	0	0
2024-08-16 09:55:47			0	36199	0	0	0	29148	27720	161477	26932	1071807	46488	110837	0	0	8009	613728	0	0
2024-08-16 09:56:47			0	36198	0	0	0	29142	27730	161373	26975	1071852	46489	110835	0	0	8009	613735	0	0
2024-08-16 09:57:47			0	36234	0	0	0	29142	27730	161317	26706	1071933	46477	110835	0	0	8011	612235	0	0
2024-08-16 09:58:47			0	36221	0	0	0	29145	27730	161201	26752	1071960	46510	110836	0	0	8011	612776	0	0
2024-08-16 09:59:47			0	36259	0	0	0	29150	27730	161105	27064	1071924	46489	110838	0	0	8013	611196	0	0
2024-08-16 10:00:47			0	36270	0	0	0	29155	27740	160945	27090	1071978	46490	110840	0	0	8013	610703	0	0
2024-08-16 10:01:47			0	36278	0	0	0	29163	27750	161001	27029	1071987	46501	110843	0	0	8014	610336	0	0
2024-08-16 10:02:47			0	36288	0	0	0	29163	27750	160965	26859	1072014	46491	110843	0	0	8014	609921	0	0
2024-08-16 10:03:47			0	36313	0	0	0	29163	27750	160845	27008	1072014	46479	110843	0	0	8016	608884	0	0
2024-08-16 10:04:47			0	36318	0	0	0	29163	27760	160761	26826	1072032	46479	110843	0	0	8016	608641	0	0
2024-08-16 10:05:47			0	36338	0	0	0	29166	27760	160781	26706	1072058	46491	110844	0	0	8017	607813	0	0
2024-08-16 10:06:47			0	36374	0	0	0	29161	27750	160761	26882	1072049	46491	110842	0	0	8020	606358	0	0
2024-08-16 10:07:47			0	36379	0	0	0	29176	27750	160597	27152	1072076	46479	110848	0	0	8020	606152	0	0
2024-08-16 10:08:47			0	36394	0	0	0	29176	27760	160529	27145	1072085	46501	110848	0	0	8021	605497	0	0
2024-08-16 10:09:47			0	36386	0	0	0	29179	27770	160529	27201	1072157	46493	110849	0	0	8020	605793	0	0
2024-08-16 10:10:47			0	36421	0	0	0	29176	27760	160545	26644	1072148	46492	110848	0	0	8022	604383	0	0
2024-08-16 10:11:47			0	36435	0	0	0	29184	27770	160441	26779	1072157	46493	110851	0	0	8023	603771	0	0
2024-08-16 10:12:47			0	36458	0	0	0	29184	27770	160393	26693	1072193	46503	110851	0	0	8024	602824	0	0
2024-08-16 10:13:47			0	36440	0	0	0	29181	27780	160269	26724	1072175	46481	110850	0	0	8023	603530	0	0
2024-08-16 10:14:47			0	36450	0	0	0	29192	27780	160293	26984	1072256	46481	110854	0	0	8024	603118	0	0
2024-08-16 10:15:47			0	36459	0	0	0	29205	27780	160265	26706	1072202	46493	110859	0	0	8024	602748	0	0
2024-08-16 10:16:47			0	36473	0	0	0	29205	27780	160245	26972	1072283	46470	110859	0	0	8025	602172	0	0
2024-08-16 10:17:47			0	36511	0	0	0	29215	27780	160229	26942	1072265	46494	110863	0	0	8027	600610	0	0
2024-08-16 10:18:47			0	36486	0	0	0	29220	27790	160185	26646	1072328	46483	110865	0	0	8026	601602	0	0
2024-08-16 10:19:47			0	36479	0	0	0	29225	27800	160081	26965	1072319	46506	110867	0	0	8025	601855	0	0
2024-08-16 10:20:47			0	36505	0	0	0	29223	27810	160133	26838	1072382	46506	110866	0	0	8027	600752	0	0
2024-08-16 10:21:47			0	36531	0	0	0	29236	27810	159973	26975	1072463	46506	110871	0	0	8028	599685	0	0
2024-08-16 10:22:47			0	36534	0	0	0	29241	27810	159977	26660	1072445	46497	110873	0	0	8028	599562	0	0
2024-08-16 10:23:47			0	36549	0	0	0	29254	27810	159785	27202	1072472	46474	110878	0	0	8029	598947	0	0
2024-08-16 10:24:47			0	36574	0	0	0	29246	27820	159805	27019	1072463	46498	110875	0	0	8030	597889	0	0
2024-08-16 10:25:47			0	36574	0	0	0	29257	27830	159837	26975	1072472	46498	110879	0	0	8030	597854	0	0
2024-08-16 10:26:47			0	36599	0	0	0	29257	27830	159694	27034	1072481	46499	110879	0	0	8032	596832	0	0
2024-08-16 10:27:47			0	36601	0	0	0	29241	27840	159578	27022	1072463	46500	110873	0	0	8032	596716	0	0
2024-08-16 10:28:47			0	36612	0	0	0	29218	27830	159574	27230	1072445	46498	110864	0	0	8033	596301	0	0
2024-08-16 10:29:47			0	36647	0	0	0	29223	27830	159542	27305	1072481	46476	110866	0	0	8035	594872	0	0
2024-08-16 10:30:47			0	36647	0	0	0	29244	27830	159370	26970	1072499	46498	110874	0	0	8035	594872	0	0
2024-08-16 10:31:47			0	36676	0	0	0	29251	27840	159286	26868	1072463	46500	110877	0	0	8037	593656	0	0
2024-08-16 10:32:47			0	36706	0	0	0	29262	27830	159166	27079	1072481	46487	110881	0	0	8038	592468	0	0
2024-08-16 10:33:47			0	36712	0	0	0	29251	27830	159114	27123	1072454	46487	110877	0	0	8039	592224	0	0
2024-08-16 10:34:47			0	36707	0	0	0	29249	27840	159102	27209	1072490	46477	110876	0	0	8038	592394	0	0
2024-08-16 10:35:47			0	36718	0	0	0	29241	27830	159066	26890	1072508	46487	110873	0	0	8039	591981	0	0
2024-08-16 10:36:47			0	36720	0	0	0	29236	27840	159062	26949	1072499	46488	110871	0	0	8039	591865	0	0
2024-08-16 10:37:47			0	36724	0	0	0	29223	27840	159014	26788	1072463	46488	110866	0	0	8040	591703	0	0
2024-08-16 10:38:47			0	36729	0	0	0	29238	27840	159058	26850	1072463	46500	110872	0	0	8040	591499	0	0
2024-08-16 10:39:47			0	36728	0	0	0	29251	27840	159026	27137	1072553	46500	110877	0	0	8040	591540	0	0
2024-08-16 10:40:47			0	36740	0	0	0	29251	27840	158966	27348	1072526	46500	110877	0	0	8040	591053	0	0
2024-08-16 10:41:47			0	36736	0	0	0	29249	27850	158902	27204	1072562	46500	110876	0	0	8040	591181	0	0
2024-08-16 10:42:47			0	36766	0	0	0	29277	27850	158890	27118	1072625	46511	110887	0	0	8041	589963	0	0
2024-08-16 10:43:47			0	36744	0	0	0	29301	27850	158898	26854	1072625	46500	110896	0	0	8040	590856	0	0
2024-08-16 10:44:47			0	36755	0	0	0	29298	27860	158914	26958	1072697	46513	110895	0	0	8040	590376	0	0
2024-08-16 10:45:47			0	36737	0	0	0	29298	27870	158978	27036	1072769	46513	110895	0	0	8039	591072	0	0
2024-08-16 10:46:47			0	36755	0	0	0	29309	27870	158910	26913	1072715	46502	110899	0	0	8040	590341	0	0
2024-08-16 10:47:47			0	36754	0	0	0	29311	27880	158830	27015	1072805	46514	110900	0	0	8040	590348	0	0
2024-08-16 10:48:47			0	36772	0	0	0	29311	27880	158742	26661	1072751	46503	110900	0	0	8041	589618	0	0
2024-08-16 10:49:47			0	36757	0	0	0	29309	27880	158870	27069	1072787	46493	110899	0	0	8041	590226	0	0
2024-08-16 10:50:47			0	36755	0	0	0	29303	27880	158882	27033	1072787	46504	110897	0	0	8040	590308	0	0
2024-08-16 10:51:47			0	36760	0	0	0	29301	27890	158898	27161	1072796	46515	110896	0	0	8041	590071	0	0
2024-08-16 10:52:47			0	36750	0	0	0	29306	27890	158954	27104	1072805	46515	110898	0	0	8040	590476	0	0
2024-08-16 10:53:47			0	36757	0	0	0	29322	27890	158918	27060	1072805	46504	110904	0	0	8040	590192	0	0
2024-08-16 10:54:47			0	36750	0	0	0	29319	27890	158914	27036	1072886	46504	110903	0	0	8040	590476	0	0
2024-08-16 10:55:47			0	36763	0	0	0	29327	27910	158890	27135	1072886	46506	110906	0	0	8041	589881	0	0
2024-08-16 10:56:47			0	36749	0	0	0	29322	27910	158882	27111	1072913	46506	110904	0	0	8040	590449	0	0
2024-08-16 10:57:47			0	36745	0	0	0	29316	27910	158906	26981	1072913	46495	110902	0	0	8040	590611	0	0
2024-08-16 10:58:47			0	36755	0	0	0	29322	27910	158874	26873	1072895	46506	110904	0	0	8040	590205	0	0
2024-08-16 10:59:47			0	36743	0	0	0	29329	27910	158834	26798	1072859	46517	110907	0	0	8039	590692	0	0
2024-08-16 11:00:47			0	36763	0	0	0	29319	27910	158858	26970	1072967	46506	110903	0	0	8041	589881	0	0
2024-08-16 11:01:47			0	36758	0	0	0	29337	27910	158838	26955	1072913	46506	110910	0	0	8040	590084	0	0
2024-08-16 11:02:47			0	36776	0	0	0	29340	27930	158758	26941	1072976	46509	110911	0	0	8041	589286	0	0
2024-08-16 11:03:47			0	36767	0	0	0	29342	27910	158778	26887	1072976	46517	110912	0	0	8041	589719	0	0
2024-08-16 11:04:47			0	36762	0	0	0	29345	27930	158822	27013	1072976	46520	110913	0	0	8040	589854	0	0
2024-08-16 11:05:47			0	36769	0	0	0	29353	27930	158838	26948	1073030	46520	110916	0	0	8041	589570	0	0
2024-08-16 11:06:47			0	36760	0	0	0	29366	27940	158766	26982	1073048	46509	110921	0	0	8040	589901	0	0
2024-08-16 11:07:47			0	36784	0	0	0	29363	27930	158790	27086	1073057	46509	110920	0	0	8041	588962	0	0
2024-08-16 11:08:47			0	36755	0	0	0	29374	27940	158846	27046	1073111	46521	110924	0	0	8040	590103	0	0
2024-08-16 11:09:47			0	36765	0	0	0	29376	27940	158870	26932	1073084	46499	110925	0	0	8040	589698	0	0
2024-08-16 11:10:47			0	36767	0	0	0	29381	27950	158850	27024	1073183	46522	110927	0	0	8040	589583	0	0
2024-08-16 11:11:47			0	36746	0	0	0	29394	27950	158782	27071	1073228	46522	110932	0	0	8039	590434	0	0
2024-08-16 11:12:47			0	36757	0	0	0	29397	27950	158710	26805	1073174	46511	110933	0	0	8039	589988	0	0
2024-08-16 11:13:47			0	36758	0	0	0	29410	27960	158842	26791	1073309	46523	110938	0	0	8039	589914	0	0
2024-08-16 11:14:47			0	36753	0	0	0	29418	27970	158814	26826	1073291	46513	110941	0	0	8039	590083	0	0
2024-08-16 11:15:47			0	36751	0	0	0	29425	27980	158810	26533	1073336	46524	110944	0	0	8039	590130	0	0
2024-08-16 11:16:47			0	36746	0	0	0	29412	27980	158798	26856	1073399	46514	110939	0	0	8039	590332	0	0
2024-08-16 11:17:47			0	36757	0	0	0	29412	27990	158718	26729	1073408	46526	110939	0	0	8039	589852	0	0
2024-08-16 11:18:47			0	36759	0	0	0	29415	27990	158734	26800	1073434	46503	110940	0	0	8039	589771	0	0
2024-08-16 11:19:47			0	36767	0	0	0	29415	27990	158730	26774	1073381	46526	110940	0	0	8040	589447	0	0
2024-08-16 11:20:47			0	36767	0	0	0	29425	28000	158702	26691	1073354	46516	110944	0	0	8040	589413	0	0
2024-08-16 11:21:47			0	36772	0	0	0	29436	28000	158746	26972	1073488	46504	110948	0	0	8040	589210	0	0
2024-08-16 11:22:47			0	36773	0	0	0	29428	28010	158662	26863	1073471	46505	110945	0	0	8040	589136	0	0
2024-08-16 11:23:47			0	36767	0	0	0	29433	28000	158770	26731	1073462	46527	110947	0	0	8040	589413	0	0
2024-08-16 11:24:47			0	36769	0	0	0	29423	28010	158698	27154	1073498	46505	110943	0	0	8040	589298	0	0
2024-08-16 11:25:47			0	36781	0	0	0	29425	28010	158802	27235	1073524	46495	110944	0	0	8041	588812	0	0
2024-08-16 11:26:47			0	36776	0	0	0	29420	28010	158642	26863	1073471	46505	110942	0	0	8040	589014	0	0
2024-08-16 11:27:47			0	36782	0	0	0	29420	28010	158694	26887	1073480	46506	110942	0	0	8041	588771	0	0
2024-08-16 11:28:47			0	36789	0	0	0	29418	28010	158554	27076	1073471	46517	110941	0	0	8041	588488	0	0
2024-08-16 11:29:47			0	36808	0	0	0	29425	28020	158554	27166	1073435	46506	110944	0	0	8042	587685	0	0
2024-08-16 11:30:47			0	36816	0	0	0	29425	28000	158454	26804	1073435	46504	110944	0	0	8043	587430	0	0
2024-08-16 11:31:47			0	36819	0	0	0	29412	28010	158478	26863	1073399	46518	110939	0	0	8043	587274	0	0
2024-08-16 11:32:47			0	36819	0	0	0	29405	28010	158510	26738	1073453	46506	110936	0	0	8043	587274	0	0
2024-08-16 11:33:47			0	36820	0	0	0	29418	28020	158414	26975	1073489	46518	110941	0	0	8043	587200	0	0
2024-08-16 11:34:47			0	36838	0	0	0	29425	28010	158506	27022	1073480	46506	110944	0	0	8044	586507	0	0
2024-08-16 11:35:47			0	36821	0	0	0	29425	28020	158398	27027	1073408	46518	110944	0	0	8043	587160	0	0
2024-08-16 11:36:47			0	36836	0	0	0	29436	28020	158350	26467	1073489	46518	110948	0	0	8044	586554	0	0
2024-08-16 11:37:47			0	36831	0	0	0	29462	28020	158474	26948	1073552	46518	110958	0	0	8043	586756	0	0
2024-08-16 11:38:47			0	36853	0	0	0	29467	28020	158330	26644	1073578	46518	110960	0	0	8044	585867	0	0
2024-08-16 11:39:47			0	36845	0	0	0	29451	28020	158454	26897	1073596	46506	110954	0	0	8044	586190	0	0
2024-08-16 11:40:47			0	36848	0	0	0	29444	28030	158434	26842	1073614	46530	110951	0	0	8044	586035	0	0
2024-08-16 11:41:47			0	36846	0	0	0	29436	28040	158518	27043	1073579	46508	110948	0	0	8044	586082	0	0
2024-08-16 11:42:47			0	36849	0	0	0	29436	28040	158414	26915	1073633	46531	110948	0	0	8045	585961	0	0
2024-08-16 11:43:47			0	36851	0	0	0	29451	28050	158354	26847	1073624	46509	110954	0	0	8044	585847	0	0
2024-08-16 11:44:47			0	36875	0	0	0	29449	28040	158378	26731	1073606	46498	110953	0	0	8046	584913	0	0
2024-08-16 11:45:47			0	36867	0	0	0	29457	28050	158354	26859	1073624	46509	110956	0	0	8045	585201	0	0
2024-08-16 11:46:47			0	36870	0	0	0	29459	28040	158310	27036	1073642	46508	110957	0	0	8045	585114	0	0
2024-08-16 11:47:47			0	36872	0	0	0	29477	28040	158334	27017	1073696	46508	110964	0	0	8045	585033	0	0
2024-08-16 11:48:47			0	36856	0	0	0	29470	28050	158322	26764	1073741	46522	110961	0	0	8044	585645	0	0
2024-08-16 11:49:47			0	36862	0	0	0	29475	28060	158314	27164	1073750	46533	110963	0	0	8045	585369	0	0
2024-08-16 11:50:47			0	36879	0	0	0	29477	28050	158286	27000	1073660	46522	110964	0	0	8046	584718	0	0
2024-08-16 11:51:47			0	36873	0	0	0	29475	28060	158318	26904	1073759	46523	110963	0	0	8045	584926	0	0
2024-08-16 11:52:47			0	36868	0	0	0	29496	28060	158254	27152	1073777	46510	110971	0	0	8045	585127	0	0
2024-08-16 11:53:47			0	36867	0	0	0	29516	28070	158402	26731	1073777	46491	110979	0	0	8044	585134	0	0
2024-08-16 11:54:47			0	36862	0	0	0	29501	28070	158318	26928	1073858	46535	110973	0	0	8044	585335	0	0
2024-08-16 11:55:47			0	36880	0	0	0	29511	28070	158286	27050	1073858	46501	110977	0	0	8045	584610	0	0
2024-08-16 11:56:47			0	36887	0	0	0	29522	28080	158330	27085	1073930	46525	110981	0	0	8046	584294	0	0
2024-08-16 11:57:47			0	36877	0	0	0	29553	28080	158326	26720	1073956	46536	110993	0	0	8044	584697	0	0
2024-08-16 11:58:47			0	36880	0	0	0	29561	28090	158274	26759	1074001	46526	110996	0	0	8045	584542	0	0
2024-08-16 11:59:47			0	36887	0	0	0	29573	28120	158206	26811	1074091	46539	111001	0	0	8045	584159	0	0
2024-08-16 12:00:47			0	36872	0	0	0	29579	28120	158282	26930	1074118	46539	111003	0	0	8044	584763	0	0
2024-08-16 12:01:47			0	36875	0	0	0	29589	28110	158234	26819	1074163	46539	111007	0	0	8044	584676	0	0
2024-08-16 12:02:47			0	36872	0	0	0	29597	28130	158322	26864	1074146	46552	111010	0	0	8044	584730	0	0
2024-08-16 12:03:47			0	36862	0	0	0	29602	28140	158274	27039	1074208	46541	111012	0	0	8043	585099	0	0
2024-08-16 12:04:47			0	36893	0	0	0	29597	28150	158178	26878	1074236	46532	111010	0	0	8045	583817	0	0
2024-08-16 12:05:47			0	36883	0	0	0	29592	28160	158318	26864	1074299	46542	111008	0	0	8045	584186	0	0
2024-08-16 12:06:47			0	36897	0	0	0	29607	28160	158302	26703	1074281	46543	111014	0	0	8045	583622	0	0
2024-08-16 12:07:47			0	36872	0	0	0	29602	28160	158226	26996	1074362	46533	111012	0	0	8044	584628	0	0
2024-08-16 12:08:47			0	36887	0	0	0	29607	28160	158194	26981	1074389	46533	111014	0	0	8044	584024	0	0
2024-08-16 12:09:47			0	36879	0	0	0	29620	28170	158278	26856	1074380	46522	111019	0	0	8044	584313	0	0
2024-08-16 12:10:47			0	36897	0	0	0	29620	28180	158118	27104	1074398	46545	111019	0	0	8045	583555	0	0
2024-08-16 12:11:47			0	36898	0	0	0	29620	28190	158070	26616	1074515	46545	111019	0	0	8045	583481	0	0
2024-08-16 12:12:47			0	36919	0	0	0	29615	28190	158030	26651	1074470	46536	111017	0	0	8046	582636	0	0
2024-08-16 12:13:47			0	36916	0	0	0	29638	28200	158102	26646	1074479	46525	111026	0	0	8046	582723	0	0
2024-08-16 12:14:47			0	36934	0	0	0	29638	28200	157978	26916	1074488	46537	111026	0	0	8047	582000	0	0
2024-08-16 12:15:47			0	36981	0	0	0	29657	28210	157818	26778	1074524	46538	111033	0	0	8049	580081	0	0
2024-08-16 12:16:47			0	36991	0	0	0	29654	28220	157690	26750	1074623	46539	111032	0	0	8050	579647	0	0
2024-08-16 12:17:47			0	37001	0	0	0	29649	28220	157610	27086	1074632	46539	111030	0	0	8051	579246	0	0
2024-08-16 12:18:47			0	37045	0	0	0	29651	28220	157530	26882	1074605	46527	111031	0	0	8053	577487	0	0
2024-08-16 12:19:47			0	37064	0	0	0	29646	28230	157382	26850	1074614	46517	111029	0	0	8055	576695	0	0
2024-08-16 12:20:47			0	37088	0	0	0	29638	28220	157286	27060	1074524	46516	111026	0	0	8056	575771	0	0
2024-08-16 12:21:47			0	37070	0	0	0	29633	28220	157410	26871	1074605	46516	111024	0	0	8055	576489	0	0
2024-08-16 12:22:47			0	37050	0	0	0	29633	28220	157462	26994	1074497	46527	111024	0	0	8054	577287	0	0
2024-08-16 12:23:47			0	37018	0	0	0	29633	28230	157590	27010	1074596	46528	111024	0	0	8052	578533	0	0
2024-08-16 12:24:47			0	37013	0	0	0	29641	28230	157638	26951	1074614	46517	111027	0	0	8052	578733	0	0
2024-08-16 12:25:47			0	36984	0	0	0	29662	28230	157782	27074	1074641	46550	111035	0	0	8050	579894	0	0
2024-08-16 12:26:47			0	36975	0	0	0	29646	28240	157706	27093	1074722	46519	111029	0	0	8049	580221	0	0
2024-08-16 12:27:47			0	36976	0	0	0	29641	28230	157798	27055	1074596	46517	111027	0	0	8049	580214	0	0
2024-08-16 12:28:47			0	36975	0	0	0	29644	28240	157710	26660	1074659	46529	111028	0	0	8049	580221	0	0
2024-08-16 12:29:47			0	36949	0	0	0	29664	28240	157798	26644	1074695	46552	111036	0	0	8048	581263	0	0
2024-08-16 12:30:47			0	36953	0	0	0	29654	28260	157782	26880	1074722	46531	111032	0	0	8048	581036	0	0
2024-08-16 12:31:47			0	36942	0	0	0	29646	28250	157790	26925	1074758	46530	111029	0	0	8048	581511	0	0
2024-08-16 12:32:47			0	36937	0	0	0	29659	28250	157802	27183	1074677	46541	111034	0	0	8047	581711	0	0
2024-08-16 12:33:47			0	36935	0	0	0	29644	28260	157774	27039	1074722	46542	111028	0	0	8047	581758	0	0
2024-08-16 12:34:47			0	36939	0	0	0	29623	28250	157698	26880	1074659	46519	111020	0	0	8048	581631	0	0
2024-08-16 12:35:47			0	36941	0	0	0	29610	28240	157862	26871	1074614	46541	111015	0	0	8048	581584	0	0
2024-08-16 12:36:47			0	36929	0	0	0	29612	28240	157878	26883	1074614	46519	111016	0	0	8047	582066	0	0
2024-08-16 12:37:47			0	36933	0	0	0	29636	28230	157778	26722	1074650	46517	111025	0	0	8047	581939	0	0
2024-08-16 12:38:47			0	36941	0	0	0	29646	28240	157806	26762	1074668	46541	111029	0	0	8047	581584	0	0
2024-08-16 12:39:47			0	36953	0	0	0	29651	28240	157914	26703	1074668	46541	111031	0	0	8048	581103	0	0
2024-08-16 12:40:47			0	36930	0	0	0	29641	28250	157854	26795	1074677	46530	111027	0	0	8047	581993	0	0
2024-08-16 12:41:47			0	36930	0	0	0	29641	28250	157942	26800	1074704	46541	111027	0	0	8047	581993	0	0
2024-08-16 12:42:47			0	36945	0	0	0	29638	28260	157810	26826	1074695	46531	111026	0	0	8048	581357	0	0
2024-08-16 12:43:47			0	36947	0	0	0	29636	28260	157886	26680	1074722	46531	111025	0	0	8048	581277	0	0
2024-08-16 12:44:47			0	36946	0	0	0	29620	28250	157770	26819	1074758	46530	111019	0	0	8048	581350	0	0
2024-08-16 12:45:47			0	36962	0	0	0	29636	28250	157762	26620	1074731	46530	111025	0	0	8049	580708	0	0
2024-08-16 12:46:47			0	36965	0	0	0	29670	28250	157710	26876	1074767	46541	111038	0	0	8048	580588	0	0
2024-08-16 12:47:47			0	36988	0	0	0	29688	28260	157690	26760	1074857	46531	111045	0	0	8050	579633	0	0
2024-08-16 12:48:47			0	36980	0	0	0	29701	28270	157706	26830	1074875	46543	111050	0	0	8049	579920	0	0
2024-08-16 12:49:47			0	36983	0	0	0	29703	28270	157638	27057	1074929	46543	111051	0	0	8049	579800	0	0
2024-08-16 12:50:47			0	37013	0	0	0	29701	28280	157494	26837	1074929	46545	111050	0	0	8051	578566	0	0
2024-08-16 12:51:47			0	36998	0	0	0	29722	28290	157578	26708	1075082	46535	111058	0	0	8050	579132	0	0
2024-08-16 12:52:47			0	37024	0	0	0	29753	28300	157482	26805	1075073	46558	111070	0	0	8051	578059	0	0
2024-08-16 12:53:47			0	37027	0	0	0	29755	28310	157518	26913	1075091	46559	111071	0	0	8051	577906	0	0
2024-08-16 12:54:47			0	37002	0	0	0	29766	28310	157458	27112	1075226	46559	111075	0	0	8049	578905	0	0
2024-08-16 12:55:47			0	37003	0	0	0	29784	28340	157474	26970	1075244	46550	111082	0	0	8049	578765	0	0
2024-08-16 12:56:47			0	37031	0	0	0	29779	28330	157554	26802	1075289	46550	111080	0	0	8051	577679	0	0
2024-08-16 12:57:47			0	37004	0	0	0	29779	28340	157522	27039	1075280	46551	111080	0	0	8049	578725	0	0
2024-08-16 12:58:47			0	37002	0	0	0	29779	28350	157498	26805	1075316	46541	111080	0	0	8049	578772	0	0
2024-08-16 12:59:47			0	36991	0	0	0	29781	28350	157550	26785	1075316	46541	111081	0	0	8049	579212	0	0
2024-08-16 13:00:47			0	36998	0	0	0	29779	28350	157522	26981	1075316	46552	111080	0	0	8049	578932	0	0
2024-08-16 13:01:47			0	36991	0	0	0	29779	28350	157614	26986	1075325	46552	111080	0	0	8049	579212	0	0
2024-08-16 13:02:47			0	36980	0	0	0	29792	28360	157674	27013	1075344	46553	111085	0	0	8048	579618	0	0
2024-08-16 13:03:47			0	36969	0	0	0	29753	28360	157674	26956	1075281	46530	111070	0	0	8048	580059	0	0
2024-08-16 13:04:47			0	36967	0	0	0	29774	28360	157542	27019	1075344	46541	111078	0	0	8047	580139	0	0
2024-08-16 13:05:47			0	36977	0	0	0	29789	28370	157642	27027	1075389	46555	111084	0	0	8048	579705	0	0
2024-08-16 13:06:47			0	36971	0	0	0	29810	28380	157662	27215	1075451	46566	111092	0	0	8047	579912	0	0
2024-08-16 13:07:47			0	36961	0	0	0	29810	28380	157614	27026	1075434	46555	111092	0	0	8046	580313	0	0
2024-08-16 13:08:47			0	36960	0	0	0	29815	28390	157654	26939	1075470	46556	111094	0	0	8046	580319	0	0
2024-08-16 13:09:47			0	36933	0	0	0	29815	28390	157638	26937	1075524	46544	111094	0	0	8045	581402	0	0
2024-08-16 13:10:47			0	36939	0	0	0	29818	28390	157794	26611	1075470	46544	111095	0	0	8045	581161	0	0
2024-08-16 13:11:47			0	36923	0	0	0	29820	28400	157758	26870	1075613	46545	111096	0	0	8044	581769	0	0
2024-08-16 13:12:47			0	36943	0	0	0	29812	28400	157706	27185	1075515	46545	111093	0	0	8045	580967	0	0
2024-08-16 13:13:47			0	36916	0	0	0	29810	28390	157854	27150	1075497	46544	111092	0	0	8044	582084	0	0
2024-08-16 13:14:47			0	36937	0	0	0	29810	28400	157742	26899	1075542	46545	111092	0	0	8045	581207	0	0
2024-08-16 13:15:47			0	36918	0	0	0	29807	28400	157846	26864	1075461	46557	111091	0	0	8044	581970	0	0
2024-08-16 13:16:47			0	36912	0	0	0	29815	28420	157822	26871	1075677	46547	111094	0	0	8044	582143	0	0
2024-08-16 13:17:47			0	36926	0	0	0	29812	28410	157774	26958	1075641	46546	111093	0	0	8045	581615	0	0
2024-08-16 13:18:47			0	36927	0	0	0	29823	28420	157782	27229	1075542	46570	111097	0	0	8044	581541	0	0
2024-08-16 13:19:47			0	36921	0	0	0	29833	28410	157754	26904	1075614	46558	111101	0	0	8044	581816	0	0
2024-08-16 13:20:47			0	36928	0	0	0	29825	28420	157762	27137	1075650	46547	111098	0	0	8044	581501	0	0
2024-08-16 13:21:47			0	36914	0	0	0	29838	28420	157786	26783	1075632	46547	111103	0	0	8043	582063	0	0
2024-08-16 13:22:47			0	36911	0	0	0	29844	28420	157798	27126	1075686	46537	111105	0	0	8043	582184	0	0
2024-08-16 13:23:47			0	36924	0	0	0	29844	28430	157834	27083	1075668	46559	111105	0	0	8044	581628	0	0
2024-08-16 13:24:47			0	36904	0	0	0	29849	28430	157878	27010	1075677	46548	111107	0	0	8043	582431	0	0
2024-08-16 13:25:47			0	36909	0	0	0	29857	28440	157890	26892	1075740	46561	111110	0	0	8043	582197	0	0
2024-08-16 13:26:47			0	36896	0	0	0	29854	28440	157902	27097	1075776	46540	111109	0	0	8042	582719	0	0
2024-08-16 13:27:47			0	36909	0	0	0	29857	28450	157774	27138	1075812	46562	111110	0	0	8043	582163	0	0
2024-08-16 13:28:47			0	36909	0	0	0	29859	28450	157882	27105	1075812	46550	111111	0	0	8043	582163	0	0
2024-08-16 13:29:47			0	36912	0	0	0	29862	28450	157814	27065	1075812	46562	111112	0	0	8043	582042	0	0
2024-08-16 13:30:47			0	36914	0	0	0	29870	28440	157850	26875	1075803	46562	111115	0	0	8043	581996	0	0
2024-08-16 13:31:47			0	36902	0	0	0	29877	28460	157858	27045	1075857	46563	111118	0	0	8042	582410	0	0
2024-08-16 13:32:47			0	36908	0	0	0	29896	28450	157806	27104	1075875	46550	111125	0	0	8042	582203	0	0
2024-08-16 13:33:47			0	36904	0	0	0	29919	28470	157858	27249	1076010	46575	111134	0	0	8042	582296	0	0
2024-08-16 13:34:47			0	36908	0	0	0	29961	28480	157906	26906	1076082	46587	111150	0	0	8041	582102	0	0
2024-08-16 13:35:47			0	36907	0	0	0	29955	28490	157898	27017	1076181	46588	111148	0	0	8041	582108	0	0
2024-08-16 13:36:47			0	36885	0	0	0	29950	28500	157946	26892	1076172	46567	111146	0	0	8040	582958	0	0
2024-08-16 13:37:47			0	36892	0	0	0	29940	28510	157934	27074	1076163	46557	111142	0	0	8041	582643	0	0
2024-08-16 13:38:47			0	36899	0	0	0	29927	28510	157934	26965	1076190	46557	111137	0	0	8041	582362	0	0
2024-08-16 13:39:47			0	36894	0	0	0	29924	28520	157882	27010	1076154	46557	111136	0	0	8041	582529	0	0
2024-08-16 13:40:47			0	36893	0	0	0	29924	28510	157834	26913	1076163	46546	111136	0	0	8041	582603	0	0
2024-08-16 13:41:47			0	36901	0	0	0	29950	28510	157898	26974	1076172	46546	111146	0	0	8041	582282	0	0
2024-08-16 13:42:47			0	36904	0	0	0	29948	28520	157794	26892	1076244	46558	111145	0	0	8041	582128	0	0
2024-08-16 13:43:47			0	36923	0	0	0	29940	28530	157834	27039	1076263	46571	111142	0	0	8043	581332	0	0
2024-08-16 13:44:47			0	36911	0	0	0	29935	28530	157790	27062	1076236	46559	111140	0	0	8042	581813	0	0
2024-08-16 13:45:47			0	36921	0	0	0	29958	28530	157802	26998	1076227	46559	111149	0	0	8042	581412	0	0
2024-08-16 13:46:47			0	36929	0	0	0	29963	28530	157774	26878	1076290	46571	111151	0	0	8043	581091	0	0
2024-08-16 13:47:47			0	36931	0	0	0	29961	28540	157658	27182	1076308	46572	111150	0	0	8043	580977	0	0
2024-08-16 13:48:47			0	36942	0	0	0	29953	28540	157666	26951	1076388	46560	111147	0	0	8044	580537	0	0
2024-08-16 13:49:47			0	36928	0	0	0	29971	28550	157606	26996	1076317	46561	111154	0	0	8043	581064	0	0
2024-08-16 13:50:47			0	36954	0	0	0	29950	28540	157546	26866	1076335	46549	111146	0	0	8044	580056	0	0
2024-08-16 13:51:47			0	36968	0	0	0	29896	28540	157582	26845	1076254	46549	111125	0	0	8046	579496	0	0
2024-08-16 13:52:47			0	36990	0	0	0	29885	28540	157562	26824	1076218	46537	111121	0	0	8048	578616	0	0
2024-08-16 13:53:47			0	36987	0	0	0	29903	28530	157406	27222	1076146	46548	111128	0	0	8047	578769	0	0
2024-08-16 13:54:47			0	37016	0	0	0	29914	28530	157386	26968	1076236	46548	111132	0	0	8049	577610	0	0
2024-08-16 13:55:47			0	37012	0	0	0	29922	28540	157406	26909	1076254	46560	111135	0	0	8048	577736	0	0
2024-08-16 13:56:47			0	37028	0	0	0	29924	28530	157314	26656	1076263	46571	111136	0	0	8049	577131	0	0
2024-08-16 13:57:47			0	37047	0	0	0	29914	28530	157210	26904	1076263	46559	111132	0	0	8050	576373	0	0
2024-08-16 13:58:47			0	37037	0	0	0	29901	28530	157234	27048	1076146	46548	111127	0	0	8050	576772	0	0
2024-08-16 13:59:47			0	37052	0	0	0	29914	28530	157138	26916	1076227	46548	111132	0	0	8051	576174	0	0
2024-08-16 14:00:47			0	37053	0	0	0	29942	28530	157054	26923	1076253	46559	111143	0	0	8050	576134	0	0
2024-08-16 14:01:47			0	37077	0	0	0	29963	28540	157198	27027	1076361	46583	111151	0	0	8051	575145	0	0
2024-08-16 14:02:47			0	37069	0	0	0	29958	28540	157110	26925	1076388	46572	111149	0	0	8051	575463	0	0
2024-08-16 14:03:47			0	37074	0	0	0	29935	28540	157018	27123	1076361	46560	111140	0	0	8052	575264	0	0
2024-08-16 14:04:47			0	37077	0	0	0	29922	28540	157054	26885	1076299	46548	111135	0	0	8052	575145	0	0
2024-08-16 14:05:47			0	37079	0	0	0	29901	28540	156998	26901	1076254	46549	111127	0	0	8053	575065	0	0
2024-08-16 14:06:47			0	37088	0	0	0	29916	28540	157086	27298	1076254	46549	111133	0	0	8053	574707	0	0
2024-08-16 14:07:47			0	37083	0	0	0	29911	28550	157038	26982	1076263	46561	111131	0	0	8053	574872	0	0
2024-08-16 14:08:47			0	37083	0	0	0	29945	28540	157038	26628	1076254	46560	111144	0	0	8052	574906	0	0
2024-08-16 14:09:47			0	37079	0	0	0	29961	28560	156998	27203	1076389	46573	111150	0	0	8052	574998	0	0
2024-08-16 14:10:47			0	37088	0	0	0	29955	28550	157010	27046	1076380	46573	111148	0	0	8052	574673	0	0
2024-08-16 14:11:47			0	37098	0	0	0	29929	28550	157022	27287	1076407	46561	111138	0	0	8053	574276	0	0
2024-08-16 14:12:47			0	37086	0	0	0	29916	28550	156982	26710	1076236	46539	111133	0	0	8053	574753	0	0
2024-08-16 14:13:47			0	37089	0	0	0	29924	28550	156990	26928	1076326	46550	111136	0	0	8053	574634	0	0
2024-08-16 14:14:47			0	37089	0	0	0	29927	28550	156970	27279	1076380	46561	111137	0	0	8053	574634	0	0
2024-08-16 14:15:47			0	37108	0	0	0	29927	28550	156942	27043	1076344	46550	111137	0	0	8054	573878	0	0
2024-08-16 14:16:47			0	37084	0	0	0	29906	28560	156986	26909	1076362	46573	111129	0	0	8053	574799	0	0
2024-08-16 14:17:47			0	37107	0	0	0	29903	28550	157042	27173	1076272	46561	111128	0	0	8054	573918	0	0
2024-08-16 14:18:47			0	37092	0	0	0	29932	28540	156930	27163	1076281	46538	111139	0	0	8053	574548	0	0
2024-08-16 14:19:47			0	37077	0	0	0	29966	28550	156958	26925	1076380	46561	111152	0	0	8051	575111	0	0
2024-08-16 14:20:47			0	37093	0	0	0	29955	28550	156886	27097	1076371	46573	111148	0	0	8053	574474	0	0
2024-08-16 14:21:47			0	37094	0	0	0	29968	28550	156886	27131	1076380	46550	111153	0	0	8052	574435	0	0
2024-08-16 14:22:47			0	37090	0	0	0	30051	28560	156962	27138	1076604	46583	111185	0	0	8051	574561	0	0
2024-08-16 14:23:47			0	37091	0	0	0	30103	28580	156834	27046	1076703	46586	111205	0	0	8050	574454	0	0
2024-08-16 14:24:47			0	37118	0	0	0	30090	28580	156862	27298	1076757	46598	111200	0	0	8052	573381	0	0
2024-08-16 14:25:47			0	37141	0	0	0	30093	28610	156830	27033	1076803	46579	111201	0	0	8053	572368	0	0
2024-08-16 14:26:47			0	37125	0	0	0	30062	28620	156794	27000	1076821	46590	111189	0	0	8053	572970	0	0
2024-08-16 14:27:47			0	37150	0	0	0	29973	28620	156722	27029	1076686	46568	111155	0	0	8056	571978	0	0
2024-08-16 14:28:47			0	37161	0	0	0	29929	28600	156722	26854	1076578	46543	111138	0	0	8057	571608	0	0
2024-08-16 14:29:47			0	37169	0	0	0	29906	28610	156622	27064	1076506	46544	111129	0	0	8058	571258	0	0
2024-08-16 14:30:47			0	37158	0	0	0	29958	28590	156710	27033	1076551	46542	111149	0	0	8057	571760	0	0
2024-08-16 14:31:47			0	37187	0	0	0	29971	28590	156638	26986	1076551	46554	111154	0	0	8058	570611	0	0
2024-08-16 14:32:47			0	37184	0	0	0	29929	28590	156666	27137	1076506	46543	111138	0	0	8059	570730	0	0
2024-08-16 14:33:47			0	37164	0	0	0	29937	28580	156582	27001	1076488	46553	111141	0	0	8057	571555	0	0
2024-08-16 14:34:47			0	37175	0	0	0	29935	28580	156682	27083	1076425	46553	111140	0	0	8058	571119	0	0
2024-08-16 14:35:47			0	37169	0	0	0	29906	28580	156674	26694	1076371	46553	111129	0	0	8058	571357	0	0
2024-08-16 14:36:47			0	37177	0	0	0	29885	28570	156686	26944	1076335	46552	111121	0	0	8059	571073	0	0
2024-08-16 14:37:47			0	37166	0	0	0	29888	28570	156654	27253	1076299	46530	111122	0	0	8058	571509	0	0
2024-08-16 14:38:47			0	37165	0	0	0	29901	28560	156610	26906	1076308	46550	111127	0	0	8058	571582	0	0
2024-08-16 14:39:47			0	37200	0	0	0	29903	28550	156566	27060	1076326	46550	111128	0	0	8060	570228	0	0
2024-08-16 14:40:47			0	37158	0	0	0	29916	28560	156654	26857	1076335	46550	111133	0	0	8057	571859	0	0
2024-08-16 14:41:47			0	37189	0	0	0	29914	28550	156618	26953	1076299	46550	111132	0	0	8059	570664	0	0
2024-08-16 14:42:47			0	37200	0	0	0	29909	28540	156658	26870	1076281	46538	111130	0	0	8060	570261	0	0
2024-08-16 14:43:47			0	37190	0	0	0	29909	28540	156666	26916	1076272	46537	111130	0	0	8059	570657	0	0
2024-08-16 14:44:47			0	37181	0	0	0	29911	28550	156630	26965	1076290	46539	111131	0	0	8058	570981	0	0
2024-08-16 14:45:47			0	37205	0	0	0	29922	28540	156670	26798	1076281	46560	111135	0	0	8060	570063	0	0
2024-08-16 14:46:47			0	37198	0	0	0	29937	28540	156654	26878	1076281	46560	111141	0	0	8059	570340	0	0
2024-08-16 14:47:47			0	37219	0	0	0	29945	28550	156614	27026	1076317	46561	111144	0	0	8060	569476	0	0
2024-08-16 14:48:47			0	37212	0	0	0	29937	28550	156574	26601	1076263	46550	111141	0	0	8060	569753	0	0
2024-08-16 14:49:47			0	37219	0	0	0	29909	28540	156446	27097	1076281	46560	111130	0	0	8061	569509	0	0
2024-08-16 14:50:47			0	37209	0	0	0	29890	28540	156598	27126	1076299	46537	111123	0	0	8060	569905	0	0
2024-08-16 14:51:47			0	37235	0	0	0	29849	28540	156550	26790	1076218	46548	111107	0	0	8063	568876	0	0
2024-08-16 14:52:47			0	37224	0	0	0	29846	28530	156554	26757	1076155	46537	111106	0	0	8062	569344	0	0
2024-08-16 14:53:47			0	37231	0	0	0	29851	28540	156446	26873	1076191	46537	111108	0	0	8062	569034	0	0
2024-08-16 14:54:47			0	37236	0	0	0	29838	28530	156354	27260	1076092	46537	111103	0	0	8063	568870	0	0
2024-08-16 14:55:47			0	37227	0	0	0	29831	28520	156482	27187	1076055	46547	111100	0	0	8062	569258	0	0
2024-08-16 14:56:47			0	37235	0	0	0	29859	28520	156406	27097	1076109	46536	111111	0	0	8062	568942	0	0
2024-08-16 14:57:47			0	37235	0	0	0	29862	28510	156398	27130	1076145	46546	111112	0	0	8062	568975	0	0
2024-08-16 14:58:47			0	37234	0	0	0	29854	28510	156402	26989	1076118	46535	111109	0	0	8062	569015	0	0
2024-08-16 14:59:47			0	37227	0	0	0	29836	28510	156434	26887	1076064	46535	111102	0	0	8062	569291	0	0
2024-08-16 15:00:47			0	37240	0	0	0	29854	28500	156470	26864	1076100	46534	111109	0	0	8063	568810	0	0
2024-08-16 15:01:47			0	37252	0	0	0	29862	28510	156430	27187	1076118	46535	111112	0	0	8063	568303	0	0
2024-08-16 15:02:47			0	37230	0	0	0	29867	28500	156454	27216	1076037	46544	111114	0	0	8062	569206	0	0
2024-08-16 15:03:47			0	37245	0	0	0	29867	28510	156394	27116	1076082	46557	111114	0	0	8063	568580	0	0
2024-08-16 15:04:47			0	37243	0	0	0	29862	28510	156482	27246	1076118	46569	111112	0	0	8063	568659	0	0
2024-08-16 15:05:47			0	37245	0	0	0	29864	28510	156430	27100	1076091	46546	111113	0	0	8063	568580	0	0
2024-08-16 15:06:47			0	37219	0	0	0	29862	28500	156566	27092	1076064	46555	111112	0	0	8061	569641	0	0
2024-08-16 15:07:47			0	37238	0	0	0	29836	28510	156562	27178	1076082	46535	111102	0	0	8063	568857	0	0
2024-08-16 15:08:47			0	37213	0	0	0	29818	28500	156606	26724	1076073	46556	111095	0	0	8062	569878	0	0
2024-08-16 15:09:47			0	37218	0	0	0	29831	28490	156658	26854	1076028	46532	111100	0	0	8062	569713	0	0
2024-08-16 15:10:47			0	37208	0	0	0	29851	28510	156582	26817	1076055	46569	111108	0	0	8061	570043	0	0
2024-08-16 15:11:47			0	37174	0	0	0	29841	28510	156562	27010	1076082	46557	111104	0	0	8059	571390	0	0
2024-08-16 15:12:47			0	37165	0	0	0	29836	28500	156594	26975	1076037	46533	111102	0	0	8059	571780	0	0
2024-08-16 15:13:47			0	37182	0	0	0	29838	28490	156694	26779	1076055	46543	111103	0	0	8059	571139	0	0
2024-08-16 15:14:47			0	37159	0	0	0	29844	28490	156714	26826	1076001	46543	111105	0	0	8058	572051	0	0
2024-08-16 15:15:47			0	37158	0	0	0	29870	28500	156606	26942	1076073	46545	111115	0	0	8058	572058	0	0
2024-08-16 15:16:47			0	37153	0	0	0	29877	28500	156750	27092	1076118	46567	111118	0	0	8057	572256	0	0
2024-08-16 15:17:47			0	37173	0	0	0	29859	28510	156798	26804	1076109	46557	111111	0	0	8059	571430	0	0
2024-08-16 15:18:47			0	37148	0	0	0	29846	28500	156734	26920	1076064	46544	111106	0	0	8057	572455	0	0
2024-08-16 15:19:47			0	37150	0	0	0	29820	28500	156754	27010	1076037	46533	111096	0	0	8058	572375	0	0
2024-08-16 15:20:47			0	37133	0	0	0	29823	28500	156846	27055	1075983	46533	111097	0	0	8057	573050	0	0
2024-08-16 15:21:47			0	37133	0	0	0	29857	28490	156754	27069	1076055	46554	111110	0	0	8056	573083	0	0
2024-08-16 15:22:47			0	37136	0	0	0	29903	28500	156886	26951	1076145	46555	111128	0	0	8056	572931	0	0
2024-08-16 15:23:47			0	37132	0	0	0	29909	28520	156818	27010	1076208	46580	111130	0	0	8055	573024	0	0
2024-08-16 15:24:47			0	37122	0	0	0	29929	28520	156834	26750	1076325	46581	111138	0	0	8055	573421	0	0
2024-08-16 15:25:47			0	37124	0	0	0	29901	28520	156874	26795	1076325	46581	111127	0	0	8055	573341	0	0
2024-08-16 15:26:47			0	37143	0	0	0	29893	28530	156822	26805	1076307	46571	111124	0	0	8056	572554	0	0
2024-08-16 15:27:47			0	37140	0	0	0	29880	28540	156802	27019	1076308	46549	111119	0	0	8057	572640	0	0
2024-08-16 15:28:47			0	37139	0	0	0	29883	28530	156830	26566	1076290	46537	111120	0	0	8056	572713	0	0
2024-08-16 15:29:47			0	37131	0	0	0	29896	28530	156814	26993	1076316	46559	111125	0	0	8056	573030	0	0
2024-08-16 15:30:47			0	37133	0	0	0	29924	28540	156766	27123	1076325	46571	111136	0	0	8055	572918	0	0
2024-08-16 15:31:47			0	37127	0	0	0	29924	28540	156786	27036	1076361	46560	111136	0	0	8055	573156	0	0
2024-08-16 15:32:47			0	37135	0	0	0	29919	28550	156758	26906	1076424	46561	111134	0	0	8056	572805	0	0
2024-08-16 15:33:47			0	37145	0	0	0	29919	28550	156730	26986	1076398	46561	111134	0	0	8056	572408	0	0
2024-08-16 15:34:47			0	37177	0	0	0	29929	28550	156694	26918	1076434	46561	111138	0	0	8058	571139	0	0
2024-08-16 15:35:47			0	37141	0	0	0	29973	28560	156766	27220	1076506	46562	111155	0	0	8055	572534	0	0
2024-08-16 15:36:47			0	37145	0	0	0	29922	28570	156670	26968	1076470	46563	111135	0	0	8056	572342	0	0
2024-08-16 15:37:47			0	37171	0	0	0	29922	28570	156614	27072	1076461	46552	111135	0	0	8058	571311	0	0
2024-08-16 15:38:47			0	37183	0	0	0	29893	28570	156654	26918	1076353	46541	111124	0	0	8059	570835	0	0
2024-08-16 15:39:47			0	37178	0	0	0	29875	28550	156582	26974	1076326	46539	111117	0	0	8059	571099	0	0
2024-08-16 15:40:47			0	37205	0	0	0	29823	28550	156482	27131	1076272	46528	111097	0	0	8061	570030	0	0
2024-08-16 15:41:47			0	37237	0	0	0	29831	28530	156418	26816	1076182	46526	111100	0	0	8063	568830	0	0
2024-08-16 15:42:47			0	37258	0	0	0	29870	28530	156462	26890	1076182	46526	111115	0	0	8064	568001	0	0
2024-08-16 15:43:47			0	37283	0	0	0	29890	28540	156330	27095	1076245	46537	111123	0	0	8065	566981	0	0
2024-08-16 15:44:47			0	37270	0	0	0	29945	28530	156318	27222	1076290	46537	111144	0	0	8063	567527	0	0
2024-08-16 15:45:47			0	37286	0	0	0	29961	28540	156430	27105	1076361	46549	111150	0	0	8064	566863	0	0
2024-08-16 15:46:47			0	37286	0	0	0	29937	28550	156234	26994	1076371	46561	111141	0	0	8064	566830	0	0
2024-08-16 15:47:47			0	37287	0	0	0	29932	28540	156310	27358	1076388	46549	111139	0	0	8064	566823	0	0
2024-08-16 15:48:47			0	37292	0	0	0	29929	28550	156314	26691	1076371	46550	111138	0	0	8065	566593	0	0
2024-08-16 15:49:47			0	37296	0	0	0	29955	28540	156126	27092	1076361	46549	111148	0	0	8064	566468	0	0
2024-08-16 15:50:47			0	37301	0	0	0	29932	28560	156130	27072	1076452	46562	111139	0	0	8065	566206	0	0
2024-08-16 15:51:47			0	37318	0	0	0	29955	28560	156210	27109	1076443	46550	111148	0	0	8066	565536	0	0
2024-08-16 15:52:47			0	37313	0	0	0	29971	28560	156231	26830	1076470	46561	111154	0	0	8065	565733	0	0
2024-08-16 15:53:47			0	37315	0	0	0	29937	28570	156215	26987	1076488	46575	111141	0	0	8066	565622	0	0
2024-08-16 15:54:47			0	37306	0	0	0	29924	28560	156098	27249	1076425	46540	111136	0	0	8066	566009	0	0
2024-08-16 15:55:47			0	37327	0	0	0	29901	28570	156123	27034	1076407	46541	111127	0	0	8067	565149	0	0
2024-08-16 15:56:47			0	37312	0	0	0	29909	28560	156086	27071	1076317	46540	111130	0	0	8066	565773	0	0
2024-08-16 15:57:47			0	37326	0	0	0	29888	28550	156111	27008	1076353	46539	111122	0	0	8067	565254	0	0
2024-08-16 15:58:47			0	37342	0	0	0	29898	28550	156047	26977	1076380	46550	111126	0	0	8068	564625	0	0
2024-08-16 15:59:47			0	37343	0	0	0	29893	28550	156111	26993	1076344	46528	111124	0	0	8068	564585	0	0
2024-08-16 16:00:47			0	37343	0	0	0	29875	28550	155999	27154	1076344	46539	111117	0	0	8068	564585	0	0
2024-08-16 16:01:47			0	37362	0	0	0	29870	28540	156055	26883	1076281	46527	111115	0	0	8070	563871	0	0
2024-08-16 16:02:47			0	37354	0	0	0	29940	28550	155979	27128	1076398	46550	111142	0	0	8068	564153	0	0
2024-08-16 16:03:47			0	37355	0	0	0	29994	28540	155923	27039	1076496	46583	111163	0	0	8067	564146	0	0
2024-08-16 16:04:47			0	37366	0	0	0	30015	28560	155975	26986	1076559	46574	111171	0	0	8068	563648	0	0
2024-08-16 16:05:47			0	37391	0	0	0	29992	28580	155891	26977	1076587	46564	111162	0	0	8069	562602	0	0
2024-08-16 16:06:47			0	37384	0	0	0	29971	28580	155923	27019	1076533	46553	111154	0	0	8069	562876	0	0
2024-08-16 16:07:47			0	37397	0	0	0	29981	28590	155691	27013	1076551	46554	111158	0	0	8070	562334	0	0
2024-08-16 16:08:47			0	37410	0	0	0	29955	28590	155607	27131	1076551	46565	111148	0	0	8071	561824	0	0
2024-08-16 16:09:47			0	37422	0	0	0	29968	28590	155567	27400	1076578	46554	111153	0	0	8072	561354	0	0
2024-08-16 16:10:47			0	37416	0	0	0	29973	28590	155483	27293	1076578	46554	111155	0	0	8071	561589	0	0
2024-08-16 16:11:47			0	37432	0	0	0	29986	28580	155503	26984	1076596	46576	111160	0	0	8072	560994	0	0
2024-08-16 16:12:47			0	37451	0	0	0	29968	28590	155387	26828	1076641	46578	111153	0	0	8073	560218	0	0
2024-08-16 16:13:47			0	37467	0	0	0	29976	28590	155487	26901	1076614	46566	111156	0	0	8074	559592	0	0
2024-08-16 16:14:47			0	37463	0	0	0	30005	28590	155311	26963	1076614	46566	111167	0	0	8073	559749	0	0
2024-08-16 16:15:47			0	37475	0	0	0	30018	28600	155355	27237	1076767	46555	111172	0	0	8074	559247	0	0
2024-08-16 16:16:47			0	37483	0	0	0	30018	28610	155363	26928	1076812	46568	111172	0	0	8074	558902	0	0
2024-08-16 16:17:47			0	37488	0	0	0	29999	28610	155295	27057	1076785	46580	111165	0	0	8075	558707	0	0
2024-08-16 16:18:47			0	37491	0	0	0	30010	28600	155223	26961	1076794	46555	111169	0	0	8075	558622	0	0
2024-08-16 16:19:47			0	37512	0	0	0	30020	28620	155167	26816	1076794	46545	111173	0	0	8076	557738	0	0
2024-08-16 16:20:47			0	37505	0	0	0	30010	28630	155183	26760	1076866	46569	111169	0	0	8076	557979	0	0
2024-08-16 16:21:47			0	37519	0	0	0	30020	28630	155163	27033	1076785	46569	111173	0	0	8077	557432	0	0
2024-08-16 16:22:47			0	37510	0	0	0	30020	28620	155191	27081	1076830	46557	111173	0	0	8076	557816	0	0
2024-08-16 16:23:47			0	37513	0	0	0	29989	28630	155003	26871	1076848	46547	111161	0	0	8077	557667	0	0
2024-08-16 16:24:47			0	37520	0	0	0	29992	28630	155067	27248	1076794	46559	111162	0	0	8077	557394	0	0
2024-08-16 16:25:47			0	37520	0	0	0	29989	28630	155067	26844	1076848	46559	111161	0	0	8077	557394	0	0
2024-08-16 16:26:47			0	37526	0	0	0	30023	28630	155027	27059	1076875	46559	111174	0	0	8077	557160	0	0
2024-08-16 16:27:47			0	37495	0	0	0	30041	28640	155059	27168	1076947	46571	111181	0	0	8075	558337	0	0
2024-08-16 16:28:47			0	37528	0	0	0	30020	28650	155071	26885	1076956	46583	111173	0	0	8077	557017	0	0
2024-08-16 16:29:47			0	37526	0	0	0	30083	28650	155095	27026	1077046	46572	111197	0	0	8076	557095	0	0
2024-08-16 16:30:47			0	37524	0	0	0	30025	28660	155035	26762	1076956	46562	111175	0	0	8077	557141	0	0
2024-08-16 16:31:47			0	37546	0	0	0	30012	28650	155063	26724	1076875	46548	111170	0	0	8078	556316	0	0
2024-08-16 16:32:47			0	37562	0	0	0	30033	28650	154995	26859	1076983	46548	111178	0	0	8079	555693	0	0
2024-08-16 16:33:47			0	37539	0	0	0	30049	28650	154959	26866	1076938	46572	111184	0	0	8077	556588	0	0
2024-08-16 16:34:47			0	37535	0	0	0	30051	28660	155051	27019	1077037	46573	111185	0	0	8077	556712	0	0
2024-08-16 16:35:47			0	37541	0	0	0	30064	28660	155043	27060	1077037	46562	111190	0	0	8077	556478	0	0
2024-08-16 16:36:47			0	37554	0	0	0	30083	28660	155023	27159	1077064	46584	111197	0	0	8078	555972	0	0
2024-08-16 16:37:47			0	37526	0	0	0	30085	28670	154995	26987	1077154	46573	111198	0	0	8076	557031	0	0
2024-08-16 16:38:47			0	37551	0	0	0	30077	28670	154919	27079	1077127	46584	111195	0	0	8078	556057	0	0
2024-08-16 16:39:47			0	37539	0	0	0	30080	28690	154967	27053	1077127	46552	111196	0	0	8077	556460	0	0
2024-08-16 16:40:47			0	37544	0	0	0	30106	28680	154959	27008	1077145	46564	111206	0	0	8077	556297	0	0
2024-08-16 16:41:47			0	37546	0	0	0	30114	28690	154951	27019	1077217	46565	111209	0	0	8077	556187	0	0
2024-08-16 16:42:47			0	37563	0	0	0	30103	28690	154923	26778	1077190	46587	111205	0	0	8078	555525	0	0
2024-08-16 16:43:47			0	37548	0	0	0	30116	28700	154959	26738	1077200	46565	111210	0	0	8077	556077	0	0
2024-08-16 16:44:47			0	37543	0	0	0	30119	28710	154951	26922	1077218	46566	111211	0	0	8077	556239	0	0
2024-08-16 16:45:47			0	37560	0	0	0	30124	28700	154755	26791	1077209	46577	111213	0	0	8078	555610	0	0
2024-08-16 16:46:47			0	37546	0	0	0	30119	28700	155027	26583	1077263	46566	111211	0	0	8077	556155	0	0
2024-08-16 16:47:47			0	37566	0	0	0	30114	28710	154863	26646	1077272	46577	111209	0	0	8078	555344	0	0
2024-08-16 16:48:47			0	37574	0	0	0	30132	28710	154891	27052	1077361	46567	111216	0	0	8078	555033	0	0
2024-08-16 16:49:47			0	37592	0	0	0	30135	28720	154899	27067	1077344	46578	111217	0	0	8079	554301	0	0
2024-08-16 16:50:47			0	37589	0	0	0	30129	28720	154887	26923	1077380	46568	111215	0	0	8079	554418	0	0
2024-08-16 16:51:47			0	37575	0	0	0	30140	28730	154747	27020	1077344	46591	111219	0	0	8078	554930	0	0
2024-08-16 16:52:47			0	37583	0	0	0	30127	28720	154775	27147	1077407	46579	111214	0	0	8079	554651	0	0
2024-08-16 16:53:47			0	37600	0	0	0	30155	28730	154719	26812	1077371	46580	111225	0	0	8080	553959	0	0
2024-08-16 16:54:47			0	37588	0	0	0	30168	28720	154707	26880	1077460	46590	111230	0	0	8079	554457	0	0
2024-08-16 16:55:47			0	37621	0	0	0	30184	28750	154739	26923	1077506	46592	111236	0	0	8080	553079	0	0
2024-08-16 16:56:47			0	37622	0	0	0	30189	28750	154595	27019	1077596	46582	111238	0	0	8080	553041	0	0
2024-08-16 16:57:47			0	37643	0	0	0	30205	28760	154511	27227	1077605	46594	111244	0	0	8081	552194	0	0
2024-08-16 16:58:47			0	37673	0	0	0	30218	28770	154451	26779	1077677	46594	111249	0	0	8083	551001	0	0
2024-08-16 16:59:47			0	37703	0	0	0	30225	28770	154331	27149	1077686	46583	111252	0	0	8084	549841	0	0
2024-08-16 17:00:47			0	37706	0	0	0	30236	28790	154247	27017	1077740	46597	111256	0	0	8085	549661	0	0
2024-08-16 17:01:47			0	37706	0	0	0	30241	28790	154287	27008	1077803	46597	111258	0	0	8084	549661	0	0
2024-08-16 17:02:47			0	37713	0	0	0	30228	28800	154251	27177	1077705	46586	111253	0	0	8085	549359	0	0
2024-08-16 17:03:47			0	37712	0	0	0	30210	28810	154259	26896	1077857	46587	111246	0	0	8085	549366	0	0
2024-08-16 17:04:47			0	37743	0	0	0	30210	28800	154063	26710	1077705	46576	111246	0	0	8087	548201	0	0
2024-08-16 17:05:47			0	37741	0	0	0	30202	28800	154059	26956	1077731	46586	111243	0	0	8087	548278	0	0
2024-08-16 17:06:47			0	37713	0	0	0	30212	28800	154119	26712	1077794	46586	111247	0	0	8085	549359	0	0
2024-08-16 17:07:47			0	37703	0	0	0	30199	28810	154259	26906	1077804	46577	111242	0	0	8085	549713	0	0
2024-08-16 17:08:47			0	37695	0	0	0	30218	28810	154315	26927	1077813	46577	111249	0	0	8084	550022	0	0
2024-08-16 17:09:47			0	37683	0	0	0	30225	28810	154399	26958	1077750	46587	111252	0	0	8083	550486	0	0
2024-08-16 17:10:47			0	37662	0	0	0	30223	28820	154379	26816	1077876	46578	111251	0	0	8082	551267	0	0
2024-08-16 17:11:47			0	37657	0	0	0	30233	28810	154447	26989	1077831	46599	111255	0	0	8082	551492	0	0
2024-08-16 17:12:47			0	37660	0	0	0	30228	28820	154519	26713	1077876	46588	111253	0	0	8082	551344	0	0
2024-08-16 17:13:47			0	37636	0	0	0	30238	28820	154511	26901	1077903	46588	111257	0	0	8081	552274	0	0
2024-08-16 17:14:47			0	37667	0	0	0	30251	28820	154395	27010	1077885	46601	111262	0	0	8082	551073	0	0
2024-08-16 17:15:47			0	37647	0	0	0	30246	28830	154371	26635	1077948	46601	111260	0	0	8081	551816	0	0
2024-08-16 17:16:47			0	37649	0	0	0	30251	28830	154419	26698	1077930	46601	111262	0	0	8081	551738	0	0
2024-08-16 17:17:47			0	37666	0	0	0	30262	28830	154307	26670	1077957	46579	111266	0	0	8082	551080	0	0
2024-08-16 17:18:47			0	37663	0	0	0	30251	28830	154435	26857	1077975	46589	111262	0	0	8082	551196	0	0
2024-08-16 17:19:47			0	37666	0	0	0	30251	28830	154415	26916	1077957	46579	111262	0	0	8082	551080	0	0
2024-08-16 17:20:47			0	37646	0	0	0	30238	28840	154287	26849	1077939	46602	111257	0	0	8081	551822	0	0
2024-08-16 17:21:47			0	37665	0	0	0	30231	28840	154323	27067	1077966	46580	111254	0	0	8082	551087	0	0
2024-08-16 17:22:47			0	37688	0	0	0	30236	28840	154215	26844	1077939	46580	111256	0	0	8084	550197	0	0
2024-08-16 17:23:47			0	37686	0	0	0	30233	28830	154211	26960	1077930	46589	111255	0	0	8084	550306	0	0
2024-08-16 17:24:47			0	37715	0	0	0	30225	28840	154183	26675	1077966	46580	111252	0	0	8085	549154	0	0
2024-08-16 17:25:47			0	37722	0	0	0	30233	28830	154139	26684	1077903	46579	111255	0	0	8086	548916	0	0
2024-08-16 17:26:47			0	37729	0	0	0	30246	28840	153991	26618	1077975	46581	111260	0	0	8086	548614	0	0
2024-08-16 17:27:47			0	37730	0	0	0	30249	28840	154143	27107	1078002	46591	111261	0	0	8086	548575	0	0
2024-08-16 17:28:47			0	37743	0	0	0	30251	28850	154019	26868	1078020	46603	111262	0	0	8087	548042	0	0
2024-08-16 17:29:47			0	37750	0	0	0	30246	28840	154115	26989	1077948	46591	111260	0	0	8087	547804	0	0
2024-08-16 17:30:47			0	37740	0	0	0	30251	28850	154027	26821	1078038	46591	111262	0	0	8087	548158	0	0
2024-08-16 17:31:47			0	37733	0	0	0	30251	28850	154087	26922	1078011	46591	111262	0	0	8086	548428	0	0
2024-08-16 17:32:47			0	37751	0	0	0	30251	28840	154051	26760	1078002	46591	111262	0	0	8087	547766	0	0
2024-08-16 17:33:47			0	37747	0	0	0	30236	28850	154015	26769	1078038	46581	111256	0	0	8087	547888	0	0
2024-08-16 17:34:47			0	37759	0	0	0	30241	28850	153947	26873	1078038	46581	111258	0	0	8088	547426	0	0
2024-08-16 17:35:47			0	37763	0	0	0	30241	28850	153899	26733	1078038	46591	111258	0	0	8088	547271	0	0
2024-08-16 17:36:47			0	37763	0	0	0	30241	28850	154019	26776	1078038	46591	111258	0	0	8088	547271	0	0
2024-08-16 17:37:47			0	37758	0	0	0	30236	28850	153899	26970	1078038	46581	111256	0	0	8088	547464	0	0
2024-08-16 17:38:47			0	37712	0	0	0	30254	28850	153967	26915	1078038	46591	111263	0	0	8085	549238	0	0
2024-08-16 17:39:47			0	37706	0	0	0	30251	28870	154059	26932	1078101	46583	111262	0	0	8085	549406	0	0
2024-08-16 17:40:47			0	37728	0	0	0	30283	28870	154171	26852	1078137	46594	111274	0	0	8085	548557	0	0
2024-08-16 17:41:47			0	37710	0	0	0	30306	28860	154203	26802	1078308	46593	111283	0	0	8084	549284	0	0
2024-08-16 17:42:47			0	37700	0	0	0	30309	28870	154239	26961	1078299	46606	111284	0	0	8083	549638	0	0
2024-08-16 17:43:47			0	37687	0	0	0	30324	28880	154211	26927	1078317	46595	111290	0	0	8082	550108	0	0
2024-08-16 17:44:47			0	37685	0	0	0	30327	28880	154259	26977	1078263	46607	111291	0	0	8082	550186	0	0
2024-08-16 17:45:47			0	37689	0	0	0	30327	28890	154323	26484	1078326	46596	111291	0	0	8082	549999	0	0
2024-08-16 17:46:47			0	37685	0	0	0	30311	28900	154239	26842	1078345	46608	111285	0	0	8083	550122	0	0
2024-08-16 17:47:47			0	37697	0	0	0	30340	28910	154135	26708	1078453	46598	111296	0	0	8083	549626	0	0
2024-08-16 17:48:47			0	37687	0	0	0	30345	28900	154231	26811	1078516	46586	111298	0	0	8082	550045	0	0
2024-08-16 17:49:47			0	37679	0	0	0	30311	28910	154175	26937	1078480	46621	111285	0	0	8082	550322	0	0
2024-08-16 17:50:47			0	37699	0	0	0	30285	28920	154103	26902	1078471	46599	111275	0	0	8084	549517	0	0
2024-08-16 17:51:47			0	37695	0	0	0	30225	28920	154099	27180	1078462	46587	111252	0	0	8085	549672	0	0
2024-08-16 17:52:47			0	37722	0	0	0	30244	28910	154091	27048	1078282	46576	111259	0	0	8086	548661	0	0
2024-08-16 17:53:47			0	37737	0	0	0	30225	28910	153863	27067	1078372	46598	111252	0	0	8087	548083	0	0
2024-08-16 17:54:47			0	37737	0	0	0	30153	28910	153831	27102	1078228	46587	111224	0	0	8088	548083	0	0
2024-08-16 17:55:47			0	37755	0	0	0	30140	28900	153855	27008	1078102	46563	111219	0	0	8090	547421	0	0
2024-08-16 17:56:47			0	37762	0	0	0	30140	28880	153839	27024	1078075	46562	111219	0	0	8090	547215	0	0
2024-08-16 17:57:47			0	37757	0	0	0	30166	28870	153899	27208	1078056	46572	111229	0	0	8089	547439	0	0
2024-08-16 17:58:47			0	37749	0	0	0	30135	28860	153907	27131	1077867	46548	111217	0	0	8089	547779	0	0
2024-08-16 17:59:47			0	37724	0	0	0	30161	28850	153879	27088	1077939	46536	111227	0	0	8087	548775	0	0
2024-08-16 18:00:47			0	37735	0	0	0	30174	28850	154107	27083	1077849	46558	111232	0	0	8088	548351	0	0
2024-08-16 18:01:47			0	37731	0	0	0	30171	28840	154047	27272	1077867	46581	111231	0	0	8087	548537	0	0
2024-08-16 18:02:47			0	37724	0	0	0	30181	28840	154163	27209	1077858	46568	111235	0	0	8087	548807	0	0
2024-08-16 18:03:47			0	37684	0	0	0	30192	28830	154259	27164	1077876	46567	111239	0	0	8084	550384	0	0
2024-08-16 18:04:47			0	37655	0	0	0	30171	28830	154383	27163	1077822	46579	111231	0	0	8083	551506	0	0
2024-08-16 18:05:47			0	37622	0	0	0	30137	28830	154511	26937	1077849	46556	111218	0	0	8082	552784	0	0
2024-08-16 18:06:47			0	37591	0	0	0	30127	28810	154515	27234	1077759	46577	111214	0	0	8080	554051	0	0
2024-08-16 18:07:47			0	37582	0	0	0	30140	28810	154783	27232	1077696	46565	111219	0	0	8079	554401	0	0
2024-08-16 18:08:47			0	37541	0	0	0	30129	28810	154779	27296	1077696	46577	111215	0	0	8077	555995	0	0
2024-08-16 18:09:47			0	37539	0	0	0	30127	28810	154863	26941	1077696	46587	111214	0	0	8077	556073	0	0
2024-08-16 18:10:47			0	37508	0	0	0	30135	28810	155079	27003	1077750	46577	111217	0	0	8075	557280	0	0
2024-08-16 18:11:47			0	37486	0	0	0	30129	28800	155043	27022	1077651	46576	111215	0	0	8074	558171	0	0
2024-08-16 18:12:47			0	37488	0	0	0	30158	28790	155159	27017	1077659	46575	111226	0	0	8073	558125	0	0
2024-08-16 18:13:47			0	37473	0	0	0	30153	28790	155147	27053	1077713	46575	111224	0	0	8072	558710	0	0
2024-08-16 18:14:47			0	37465	0	0	0	30135	28790	155183	27201	1077686	46575	111217	0	0	8072	559023	0	0
2024-08-16 18:15:47			0	37455	0	0	0	30148	28800	155263	27222	1077687	46598	111222	0	0	8072	559381	0	0
2024-08-16 18:16:47			0	37443	0	0	0	30127	28800	155259	26960	1077731	46564	111214	0	0	8071	559850	0	0
2024-08-16 18:17:47			0	37442	0	0	0	30129	28780	155271	26899	1077641	46574	111215	0	0	8071	559954	0	0
2024-08-16 18:18:47			0	37417	0	0	0	30096	28790	155179	27102	1077659	46585	111202	0	0	8070	560900	0	0
2024-08-16 18:19:47			0	37424	0	0	0	30088	28790	155327	27020	1077605	46575	111199	0	0	8071	560626	0	0
2024-08-16 18:20:47			0	37431	0	0	0	30111	28790	155343	27239	1077642	46575	111208	0	0	8071	560352	0	0
2024-08-16 18:21:47			0	37421	0	0	0	30119	28780	155251	26800	1077569	46574	111211	0	0	8070	560775	0	0
2024-08-16 18:22:47			0	37409	0	0	0	30080	28780	155359	27121	1077435	46574	111196	0	0	8070	561245	0	0
2024-08-16 18:23:47			0	37408	0	0	0	30059	28760	155327	26816	1077389	46549	111188	0	0	8070	561349	0	0
2024-08-16 18:24:47			0	37403	0	0	0	30070	28760	155375	27060	1077362	46549	111192	0	0	8070	561545	0	0
2024-08-16 18:25:47			0	37399	0	0	0	30072	28750	155431	26948	1077344	46547	111193	0	0	8069	561735	0	0
2024-08-16 18:26:47			0	37400	0	0	0	30051	28740	155507	26998	1077335	46558	111185	0	0	8070	561728	0	0
2024-08-16 18:27:47			0	37386	0	0	0	30059	28720	155515	27100	1077272	46556	111188	0	0	8069	562342	0	0
2024-08-16 18:28:47			0	37391	0	0	0	30080	28720	155667	27050	1077218	46568	111196	0	0	8069	562146	0	0
2024-08-16 18:29:47			0	37380	0	0	0	30054	28730	155619	26984	1077281	46556	111186	0	0	8068	562545	0	0
2024-08-16 18:30:47			0	37372	0	0	0	30062	28720	155679	27239	1077236	46555	111189	0	0	8068	562891	0	0
2024-08-16 18:31:47			0	37358	0	0	0	30062	28720	155679	27066	1077209	46555	111189	0	0	8067	563441	0	0
2024-08-16 18:32:47			0	37350	0	0	0	30072	28720	155707	27192	1077317	46578	111193	0	0	8066	563755	0	0
2024-08-16 18:33:47			0	37354	0	0	0	30075	28730	155803	27022	1077335	46568	111194	0	0	8067	563565	0	0
2024-08-16 18:34:47			0	37339	0	0	0	30072	28720	155775	27175	1077317	46578	111193	0	0	8066	564187	0	0
2024-08-16 18:35:47			0	37333	0	0	0	30067	28710	155799	27396	1077308	46578	111191	0	0	8065	564455	0	0
2024-08-16 18:36:47			0	37313	0	0	0	30072	28720	155834	27092	1077317	46567	111193	0	0	8064	565209	0	0
2024-08-16 18:37:47			0	37323	0	0	0	30075	28710	156007	27149	1077361	46578	111194	0	0	8065	564849	0	0
2024-08-16 18:38:47			0	37319	0	0	0	30070	28710	155955	27024	1077308	46567	111192	0	0	8065	565006	0	0
2024-08-16 18:39:47			0	37324	0	0	0	30093	28720	155995	27156	1077317	46567	111201	0	0	8065	564777	0	0
2024-08-16 18:40:47			0	37314	0	0	0	30090	28720	155950	26975	1077371	46589	111200	0	0	8064	565170	0	0
2024-08-16 18:41:47			0	37302	0	0	0	30080	28720	155970	26956	1077380	46556	111196	0	0	8063	565642	0	0
2024-08-16 18:42:47			0	37311	0	0	0	30088	28720	156030	26932	1077407	46590	111199	0	0	8064	565288	0	0
2024-08-16 18:43:47			0	37291	0	0	0	30088	28720	156090	27086	1077380	46579	111199	0	0	8063	566075	0	0
2024-08-16 18:44:47			0	37295	0	0	0	30080	28720	156010	27086	1077263	46555	111196	0	0	8063	565918	0	0
2024-08-16 18:45:47			0	37291	0	0	0	30075	28720	155982	26918	1077299	46568	111194	0	0	8063	566075	0	0
2024-08-16 18:46:47			0	37304	0	0	0	30103	28710	156082	27026	1077388	46567	111205	0	0	8063	565596	0	0
2024-08-16 18:47:47			0	37289	0	0	0	30137	28720	156066	26814	1077487	46579	111218	0	0	8062	566154	0	0
2024-08-16 18:48:47			0	37299	0	0	0	30153	28720	156046	27126	1077487	46568	111224	0	0	8062	565760	0	0
2024-08-16 18:49:47			0	37299	0	0	0	30127	28740	155974	27128	1077416	46592	111214	0	0	8063	565695	0	0
2024-08-16 18:50:47			0	37291	0	0	0	30109	28740	156066	27074	1077461	46580	111207	0	0	8062	566010	0	0
2024-08-16 18:51:47			0	37296	0	0	0	30137	28740	155970	27175	1077488	46569	111218	0	0	8062	565813	0	0
2024-08-16 18:52:47			0	37302	0	0	0	30122	28740	156082	26970	1077524	46581	111212	0	0	8063	565577	0	0
2024-08-16 18:53:47			0	37292	0	0	0	30116	28740	156050	26979	1077461	46580	111210	0	0	8062	565971	0	0
2024-08-16 18:54:47			0	37298	0	0	0	30109	28730	156002	27140	1077443	46568	111207	0	0	8063	565767	0	0
2024-08-16 18:55:47			0	37296	0	0	0	30124	28740	155986	26814	1077461	46591	111213	0	0	8062	565813	0	0
2024-08-16 18:56:47			0	37307	0	0	0	30140	28740	156074	26878	1077524	46558	111219	0	0	8063	565380	0	0
2024-08-16 18:57:47			0	37307	0	0	0	30140	28750	156006	26809	1077587	46581	111219	0	0	8063	565347	0	0
2024-08-16 18:58:47			0	37294	0	0	0	30109	28740	155890	26738	1077497	46570	111207	0	0	8063	565892	0	0
2024-08-16 18:59:47			0	37292	0	0	0	30114	28740	155998	26863	1077470	46558	111209	0	0	8062	565971	0	0
2024-08-16 19:00:47			0	37273	0	0	0	30098	28740	156086	27130	1077416	46570	111203	0	0	8062	566719	0	0
2024-08-16 19:01:47			0	37275	0	0	0	30036	28730	156054	26838	1077362	46579	111179	0	0	8063	566673	0	0
2024-08-16 19:02:47			0	37240	0	0	0	30033	28730	156122	27183	1077290	46557	111178	0	0	8061	568053	0	0
2024-08-16 19:03:47			0	37246	0	0	0	30033	28710	156170	27267	1077272	46543	111178	0	0	8061	567883	0	0
2024-08-16 19:04:47			0	37247	0	0	0	30049	28710	156194	27085	1077245	46554	111184	0	0	8061	567843	0	0
2024-08-16 19:05:47			0	37237	0	0	0	30054	28700	156186	27244	1077155	46554	111186	0	0	8060	568271	0	0
2024-08-16 19:06:47			0	37213	0	0	0	30049	28700	156270	27260	1077146	46565	111184	0	0	8059	569219	0	0
2024-08-16 19:07:47			0	37225	0	0	0	30049	28710	156378	27232	1077200	46578	111184	0	0	8059	568712	0	0
2024-08-16 19:08:47			0	37196	0	0	0	30028	28700	156278	27255	1077155	46566	111176	0	0	8058	569891	0	0
2024-08-16 19:09:47			0	37218	0	0	0	30033	28700	156326	27242	1077209	46566	111178	0	0	8059	569021	0	0
2024-08-16 19:10:47			0	37214	0	0	0	30041	28710	156282	26967	1077272	46577	111181	0	0	8059	569146	0	0
2024-08-16 19:11:47			0	37207	0	0	0	30041	28700	156318	26935	1077182	46566	111181	0	0	8058	569456	0	0
2024-08-16 19:12:47			0	37222	0	0	0	29992	28700	156390	26890	1077173	46553	111162	0	0	8060	568863	0	0
2024-08-16 19:13:47			0	37190	0	0	0	29994	28680	156434	27111	1076975	46551	111163	0	0	8058	570195	0	0
2024-08-16 19:14:47			0	37193	0	0	0	30012	28670	156354	27069	1076992	46550	111170	0	0	8058	570109	0	0
2024-08-16 19:15:47			0	37192	0	0	0	30010	28670	156478	26778	1077073	46550	111169	0	0	8058	570148	0	0
2024-08-16 19:16:47			0	37198	0	0	0	30020	28670	156442	27175	1077046	46562	111173	0	0	8058	569911	0	0
2024-08-16 19:17:47			0	37182	0	0	0	30051	28680	156634	27374	1077136	46563	111185	0	0	8057	570511	0	0
2024-08-16 19:18:47			0	37169	0	0	0	30049	28680	156506	27026	1077064	46552	111184	0	0	8056	571026	0	0
2024-08-16 19:19:47			0	37165	0	0	0	30046	28670	156534	26928	1077127	46562	111183	0	0	8056	571218	0	0
2024-08-16 19:20:47			0	37169	0	0	0	30064	28680	156602	26906	1077190	46563	111190	0	0	8056	571026	0	0
2024-08-16 19:21:47			0	37169	0	0	0	30085	28680	156558	26791	1077091	46564	111198	0	0	8055	571026	0	0
2024-08-16 19:22:47			0	37182	0	0	0	30098	28700	156562	26946	1077307	46565	111203	0	0	8056	570445	0	0
2024-08-16 19:23:47			0	37195	0	0	0	30067	28690	156570	26863	1077163	46587	111191	0	0	8057	569964	0	0
2024-08-16 19:24:47			0	37184	0	0	0	30083	28700	156502	26668	1077200	46565	111197	0	0	8056	570366	0	0
2024-08-16 19:25:47			0	37208	0	0	0	30106	28700	156582	26651	1077280	46576	111206	0	0	8057	569417	0	0
2024-08-16 19:26:47			0	37191	0	0	0	30109	28700	156510	26883	1077280	46587	111207	0	0	8056	570089	0	0
2024-08-16 19:27:47			0	37183	0	0	0	30119	28710	156598	27095	1077406	46566	111211	0	0	8056	570373	0	0
2024-08-16 19:28:47			0	37204	0	0	0	30124	28710	156466	26833	1077352	46577	111213	0	0	8057	569542	0	0
2024-08-16 19:29:47			0	37205	0	0	0	30111	28710	156502	26897	1077361	46578	111208	0	0	8057	569502	0	0
2024-08-16 19:30:47			0	37197	0	0	0	30106	28700	156462	26883	1077263	46566	111206	0	0	8057	569852	0	0
2024-08-16 19:31:47			0	37215	0	0	0	30109	28710	156402	26682	1077325	46566	111207	0	0	8058	569107	0	0
2024-08-16 19:32:47			0	37225	0	0	0	30103	28700	156418	26727	1077263	46566	111205	0	0	8058	568745	0	0
2024-08-16 19:33:47			0	37211	0	0	0	30101	28710	156318	26845	1077352	46577	111204	0	0	8058	569265	0	0
2024-08-16 19:34:47			0	37214	0	0	0	30114	28710	156418	26592	1077308	46567	111209	0	0	8058	569146	0	0
2024-08-16 19:35:47			0	37228	0	0	0	30111	28710	156282	26729	1077335	46589	111208	0	0	8059	568593	0	0
2024-08-16 19:36:47			0	37248	0	0	0	30111	28700	156378	26550	1077343	46566	111208	0	0	8060	567836	0	0
2024-08-16 19:37:47			0	37228	0	0	0	30096	28700	156286	26700	1077343	46566	111202	0	0	8059	568626	0	0
2024-08-16 19:38:47			0	37248	0	0	0	30070	28710	156218	26897	1077227	46567	111192	0	0	8060	567803	0	0
2024-08-16 19:39:47			0	37247	0	0	0	30015	28700	156274	26708	1077155	46566	111171	0	0	8061	567876	0	0
2024-08-16 19:40:47			0	37272	0	0	0	30015	28690	156210	26741	1077083	46542	111171	0	0	8063	566923	0	0
2024-08-16 19:41:47			0	37283	0	0	0	30031	28700	156206	26764	1077146	46553	111177	0	0	8063	566456	0	0
2024-08-16 19:42:47			0	37269	0	0	0	30041	28680	156134	26674	1077118	46564	111181	0	0	8062	567074	0	0
2024-08-16 19:43:47			0	37281	0	0	0	30054	28680	156166	26670	1077082	46574	111186	0	0	8062	566601	0	0
2024-08-16 19:44:47			0	37304	0	0	0	30062	28680	156102	26589	1077145	46564	111189	0	0	8064	565695	0	0
2024-08-16 19:45:47			0	37299	0	0	0	30075	28690	156214	26845	1077217	46565	111194	0	0	8063	565859	0	0
2024-08-16 19:46:47			0	37289	0	0	0	30075	28700	156130	26778	1077200	46576	111194	0	0	8063	566220	0	0
2024-08-16 19:47:47			0	37279	0	0	0	30077	28690	156098	27045	1077154	46575	111195	0	0	8062	566647	0	0
2024-08-16 19:48:47			0	37288	0	0	0	30057	28690	156026	27026	1077127	46564	111187	0	0	8063	566292	0	0
2024-08-16 19:49:47			0	37291	0	0	0	30041	28680	156010	27133	1077082	46563	111181	0	0	8063	566207	0	0
2024-08-16 19:50:47			0	37270	0	0	0	30025	28680	156130	27081	1077064	46575	111175	0	0	8062	567034	0	0
2024-08-16 19:51:47			0	37274	0	0	0	30023	28680	156198	26856	1077118	46575	111174	0	0	8063	566877	0	0
2024-08-16 19:52:47			0	37265	0	0	0	30018	28660	156346	27000	1077064	46550	111172	0	0	8062	567297	0	0
2024-08-16 19:53:47			0	37241	0	0	0	29997	28670	156366	26821	1077046	46562	111164	0	0	8061	568211	0	0
2024-08-16 19:54:47			0	37231	0	0	0	29950	28660	156486	26951	1076956	46573	111146	0	0	8061	568639	0	0
2024-08-16 19:55:47			0	37226	0	0	0	29919	28650	156426	26984	1076795	46548	111134	0	0	8061	568870	0	0
2024-08-16 19:56:47			0	37218	0	0	0	29919	28640	156438	27029	1076776	46547	111134	0	0	8061	569219	0	0
2024-08-16 19:57:47			0	37221	0	0	0	29942	28620	156470	27109	1076668	46545	111143	0	0	8061	569166	0	0
2024-08-16 19:58:47			0	37190	0	0	0	29937	28610	156538	26835	1076704	46545	111141	0	0	8059	570426	0	0
2024-08-16 19:59:47			0	37189	0	0	0	29942	28610	156710	26856	1076677	46545	111143	0	0	8059	570465	0	0
2024-08-16 20:00:47			0	37207	0	0	0	29968	28610	156622	26857	1076668	46544	111153	0	0	8059	569753	0	0
2024-08-16 20:01:47			0	37193	0	0	0	29973	28600	156654	26887	1076785	46578	111155	0	0	8058	570340	0	0
2024-08-16 20:02:47			0	37186	0	0	0	30002	28600	156690	26795	1076758	46555	111166	0	0	8057	570617	0	0
2024-08-16 20:03:47			0	37180	0	0	0	29997	28610	156826	26922	1076803	46579	111164	0	0	8057	570822	0	0
2024-08-16 20:04:47			0	37164	0	0	0	29976	28610	156726	26764	1076785	46568	111156	0	0	8057	571456	0	0
2024-08-16 20:05:47			0	37159	0	0	0	29999	28610	156750	27109	1076776	46556	111165	0	0	8056	571654	0	0
2024-08-16 20:06:47			0	37158	0	0	0	29937	28610	156762	26816	1076695	46556	111141	0	0	8057	571694	0	0
2024-08-16 20:07:47			0	37149	0	0	0	29924	28600	156762	27107	1076605	46543	111136	0	0	8057	572084	0	0
2024-08-16 20:08:47			0	37157	0	0	0	29968	28590	156718	27097	1076668	46566	111153	0	0	8056	571800	0	0
2024-08-16 20:09:47			0	37127	0	0	0	29976	28600	156830	27421	1076704	46555	111156	0	0	8054	572957	0	0
2024-08-16 20:10:47			0	37122	0	0	0	29966	28600	156878	26981	1076677	46555	111152	0	0	8054	573156	0	0
2024-08-16 20:11:47			0	37129	0	0	0	29950	28590	156866	27020	1076749	46566	111146	0	0	8055	572911	0	0
2024-08-16 20:12:47			0	37108	0	0	0	29942	28590	156890	27081	1076659	46565	111143	0	0	8054	573745	0	0
2024-08-16 20:13:47			0	37124	0	0	0	29906	28590	156854	26896	1076560	46555	111129	0	0	8055	573109	0	0
2024-08-16 20:14:47			0	37129	0	0	0	29890	28590	156894	27017	1076524	46554	111123	0	0	8056	572911	0	0
2024-08-16 20:15:47			0	37125	0	0	0	29950	28580	157026	27092	1076560	46553	111146	0	0	8055	573103	0	0
2024-08-16 20:16:47			0	37118	0	0	0	29942	28590	156930	27048	1076551	46565	111143	0	0	8054	573348	0	0
2024-08-16 20:17:47			0	37128	0	0	0	29859	28580	156978	27166	1076533	46564	111111	0	0	8056	572984	0	0
2024-08-16 20:18:47			0	37096	0	0	0	29810	28570	156890	26934	1076407	46530	111092	0	0	8055	574289	0	0
2024-08-16 20:19:47			0	37092	0	0	0	29802	28560	156918	27118	1076344	46529	111089	0	0	8055	574481	0	0
2024-08-16 20:20:47			0	37072	0	0	0	29812	28550	157070	26909	1076263	46539	111093	0	0	8054	575310	0	0
2024-08-16 20:21:47			0	37069	0	0	0	29825	28540	157054	26894	1076245	46548	111098	0	0	8053	575463	0	0
2024-08-16 20:22:47			0	37058	0	0	0	29820	28540	157174	27024	1076191	46537	111096	0	0	8053	575901	0	0
2024-08-16 20:23:47			0	37054	0	0	0	29838	28540	157190	27067	1076245	46537	111103	0	0	8052	576061	0	0
2024-08-16 20:24:47			0	37032	0	0	0	29859	28530	157234	26925	1076253	46548	111111	0	0	8051	576971	0	0
2024-08-16 20:25:47			0	37033	0	0	0	29898	28520	157350	26833	1076262	46557	111126	0	0	8050	576965	0	0
2024-08-16 20:26:47			0	37020	0	0	0	29922	28520	157422	27010	1076352	46558	111135	0	0	8049	577484	0	0
2024-08-16 20:27:47			0	36974	0	0	0	29914	28530	157478	27234	1076334	46571	111132	0	0	8046	579289	0	0
2024-08-16 20:28:47			0	36972	0	0	0	29888	28520	157462	27001	1076352	46547	111122	0	0	8046	579402	0	0
2024-08-16 20:29:47			0	36972	0	0	0	29901	28520	157494	27001	1076379	46547	111127	0	0	8046	579402	0	0
2024-08-16 20:30:47			0	36957	0	0	0	29927	28530	157714	26916	1076361	46548	111137	0	0	8045	579969	0	0
2024-08-16 20:31:47			0	36930	0	0	0	29940	28530	157682	27156	1076397	46559	111142	0	0	8043	581051	0	0
2024-08-16 20:32:47			0	36951	0	0	0	29922	28530	157710	26897	1076424	46559	111135	0	0	8045	580210	0	0
2024-08-16 20:33:47			0	36929	0	0	0	29890	28540	157814	27152	1076388	46560	111123	0	0	8044	581058	0	0
2024-08-16 20:34:47			0	36920	0	0	0	29898	28520	157882	26840	1076298	46547	111126	0	0	8043	581486	0	0
2024-08-16 20:35:47			0	36912	0	0	0	29896	28520	157838	26854	1076298	46547	111125	0	0	8043	581807	0	0
2024-08-16 20:36:47			0	36891	0	0	0	29911	28530	157878	26965	1076397	46571	111131	0	0	8041	582616	0	0
2024-08-16 20:37:47			0	36914	0	0	0	29896	28530	157874	26916	1076343	46571	111125	0	0	8043	581693	0	0
2024-08-16 20:38:47			0	36888	0	0	0	29898	28530	157874	27034	1076334	46548	111126	0	0	8041	582737	0	0
2024-08-16 20:39:47			0	36905	0	0	0	29919	28520	157986	26993	1076406	46558	111134	0	0	8042	582088	0	0
2024-08-16 20:40:47			0	36881	0	0	0	29929	28530	157958	26904	1076361	46559	111138	0	0	8040	583018	0	0
2024-08-16 20:41:47			0	36881	0	0	0	29919	28530	157958	26918	1076388	46548	111134	0	0	8041	583018	0	0
2024-08-16 20:42:47			0	36893	0	0	0	29898	28530	157958	27081	1076361	46548	111126	0	0	8042	582536	0	0
2024-08-16 20:43:47			0	36885	0	0	0	29901	28530	157974	26778	1076424	46571	111127	0	0	8041	582857	0	0
2024-08-16 20:44:47			0	36881	0	0	0	29919	28530	158074	26578	1076388	46548	111134	0	0	8041	583018	0	0
2024-08-16 20:45:47			0	36851	0	0	0	29898	28530	158106	26828	1076334	46571	111126	0	0	8039	584224	0	0
2024-08-16 20:46:47			0	36837	0	0	0	29877	28530	158002	26568	1076370	46548	111118	0	0	8039	584788	0	0
2024-08-16 20:47:47			0	36856	0	0	0	29859	28520	158150	27209	1076271	46547	111111	0	0	8040	584057	0	0
2024-08-16 20:48:47			0	36843	0	0	0	29849	28510	158202	26963	1076199	46535	111107	0	0	8040	584614	0	0
2024-08-16 20:49:47			0	36823	0	0	0	29862	28510	158294	27170	1076190	46546	111112	0	0	8038	585419	0	0
2024-08-16 20:50:47			0	36827	0	0	0	29867	28520	158310	27166	1076235	46546	111114	0	0	8038	585224	0	0
2024-08-16 20:51:47			0	36818	0	0	0	29792	28500	158306	26625	1076091	46544	111085	0	0	8039	585655	0	0
2024-08-16 20:52:47			0	36806	0	0	0	29779	28510	158286	26956	1076109	46535	111080	0	0	8039	586105	0	0
2024-08-16 20:53:47			0	36797	0	0	0	29862	28500	158318	26902	1076145	46544	111112	0	0	8037	586502	0	0
2024-08-16 20:54:47			0	36806	0	0	0	29872	28490	158390	26838	1076163	46543	111116	0	0	8037	586172	0	0
2024-08-16 20:55:47			0	36809	0	0	0	29818	28490	158366	27149	1076109	46543	111095	0	0	8038	586052	0	0
2024-08-16 20:56:47			0	36825	0	0	0	29727	28470	158338	26814	1075830	46519	111060	0	0	8040	585474	0	0
2024-08-16 20:57:47			0	36834	0	0	0	29742	28460	158202	26970	1075884	46507	111066	0	0	8041	585146	0	0
2024-08-16 20:58:47			0	36834	0	0	0	29740	28460	158282	26998	1075803	46529	111065	0	0	8041	585146	0	0
2024-08-16 20:59:47			0	36851	0	0	0	29706	28440	158234	26849	1075641	46517	111052	0	0	8042	584528	0	0
2024-08-16 21:00:47			0	36853	0	0	0	29732	28420	158290	26875	1075659	46525	111062	0	0	8042	584515	0	0
2024-08-16 21:01:47			0	36842	0	0	0	29722	28420	158226	27071	1075740	46537	111058	0	0	8041	584959	0	0
2024-08-16 21:02:47			0	36846	0	0	0	29698	28410	158186	26805	1075614	46546	111049	0	0	8042	584831	0	0
2024-08-16 21:03:47			0	36854	0	0	0	29657	28410	158122	26897	1075533	46513	111033	0	0	8043	584509	0	0
2024-08-16 21:04:47			0	36862	0	0	0	29651	28380	158114	26958	1075353	46510	111031	0	0	8043	584288	0	0
2024-08-16 21:05:47			0	36854	0	0	0	29690	28380	158162	26830	1075478	46521	111046	0	0	8042	584610	0	0
2024-08-16 21:06:47			0	36857	0	0	0	29748	28360	158182	26870	1075451	46531	111068	0	0	8041	584557	0	0
2024-08-16 21:07:47			0	36854	0	0	0	29768	28370	158218	26760	1075577	46543	111076	0	0	8041	584644	0	0
2024-08-16 21:08:47			0	36859	0	0	0	29724	28370	158318	26870	1075523	46555	111059	0	0	8042	584443	0	0
2024-08-16 21:09:47			0	36862	0	0	0	29672	28370	158190	26935	1075389	46521	111039	0	0	8043	584322	0	0
2024-08-16 21:10:47			0	36874	0	0	0	29667	28370	158178	26918	1075380	46509	111037	0	0	8044	583839	0	0
2024-08-16 21:11:47			0	36871	0	0	0	29675	28350	158314	26876	1075325	46530	111040	0	0	8043	584027	0	0
2024-08-16 21:12:47			0	36891	0	0	0	29688	28350	158262	26804	1075433	46518	111045	0	0	8044	583223	0	0
2024-08-16 21:13:47			0	36878	0	0	0	29693	28350	158266	27020	1075505	46541	111047	0	0	8043	583746	0	0
2024-08-16 21:14:47			0	36892	0	0	0	29690	28360	158206	27102	1075478	46541	111046	0	0	8044	583149	0	0
2024-08-16 21:15:47			0	36888	0	0	0	29672	28350	158082	26771	1075316	46518	111039	0	0	8044	583344	0	0
2024-08-16 21:16:47			0	36879	0	0	0	29683	28350	158142	26776	1075370	46530	111043	0	0	8044	583706	0	0
2024-08-16 21:17:47			0	36875	0	0	0	29711	28370	158162	26812	1075460	46532	111054	0	0	8043	583799	0	0
2024-08-16 21:18:47			0	36889	0	0	0	29638	28350	158054	26913	1075299	46530	111026	0	0	8045	583303	0	0
2024-08-16 21:19:47			0	36881	0	0	0	29586	28340	158210	27034	1075119	46517	111006	0	0	8045	583659	0	0
2024-08-16 21:20:47			0	36871	0	0	0	29620	28330	158010	27005	1075155	46516	111019	0	0	8044	584095	0	0
2024-08-16 21:21:47			0	36871	0	0	0	29641	28320	158066	27060	1075136	46527	111027	0	0	8044	584129	0	0
2024-08-16 21:22:47			0	36890	0	0	0	29654	28320	158122	26760	1075271	46549	111032	0	0	8045	583364	0	0
2024-08-16 21:23:47			0	36882	0	0	0	29646	28320	158198	27046	1075208	46537	111029	0	0	8044	583686	0	0
2024-08-16 21:24:47			0	36866	0	0	0	29625	28320	158254	26984	1075190	46527	111021	0	0	8044	584330	0	0
2024-08-16 21:25:47			0	36888	0	0	0	29641	28310	158254	26896	1075172	46526	111027	0	0	8045	583478	0	0
2024-08-16 21:26:47			0	36863	0	0	0	29620	28310	158138	26854	1075091	46503	111019	0	0	8044	584485	0	0
2024-08-16 21:27:47			0	36895	0	0	0	29612	28310	158218	26906	1075136	46514	111016	0	0	8046	583197	0	0
2024-08-16 21:28:47			0	36875	0	0	0	29641	28320	158170	27072	1075208	46526	111027	0	0	8044	583968	0	0
2024-08-16 21:29:47			0	36891	0	0	0	29636	28310	158098	27060	1075190	46548	111025	0	0	8045	583358	0	0
2024-08-16 21:30:47			0	36899	0	0	0	29625	28310	158170	26764	1075199	46559	111021	0	0	8046	583036	0	0
2024-08-16 21:31:47			0	36881	0	0	0	29623	28310	158118	26901	1075136	46526	111020	0	0	8045	583760	0	0
2024-08-16 21:32:47			0	36892	0	0	0	29620	28310	158082	26930	1075118	46537	111019	0	0	8045	583318	0	0
2024-08-16 21:33:47			0	36915	0	0	0	29628	28300	158114	26967	1075073	46513	111022	0	0	8046	582427	0	0
2024-08-16 21:34:47			0	36894	0	0	0	29649	28300	158166	27124	1075145	46524	111030	0	0	8045	583271	0	0
2024-08-16 21:35:47			0	36900	0	0	0	29631	28290	158114	26554	1075055	46513	111023	0	0	8045	583063	0	0
2024-08-16 21:36:47			0	36903	0	0	0	29618	28300	158158	26771	1074993	46513	111018	0	0	8046	582909	0	0
2024-08-16 21:37:47			0	36902	0	0	0	29602	28290	158066	26960	1074992	46511	111012	0	0	8046	582983	0	0
2024-08-16 21:38:47			0	36911	0	0	0	29584	28280	158070	26845	1074956	46511	111005	0	0	8047	582655	0	0
2024-08-16 21:39:47			0	36905	0	0	0	29571	28260	158154	26880	1074839	46509	111000	0	0	8047	582963	0	0
2024-08-16 21:40:47			0	36911	0	0	0	29563	28260	158078	26623	1074785	46499	110997	0	0	8047	582722	0	0
2024-08-16 21:41:47			0	36916	0	0	0	29555	28250	158122	26823	1074794	46507	110994	0	0	8048	582555	0	0
2024-08-16 21:42:47			0	36906	0	0	0	29563	28250	158162	27055	1074812	46519	110997	0	0	8047	582957	0	0
2024-08-16 21:43:47			0	36914	0	0	0	29573	28260	158138	26623	1074947	46532	111001	0	0	8047	582602	0	0
2024-08-16 21:44:47			0	36919	0	0	0	29561	28260	158082	26901	1074920	46543	110996	0	0	8048	582401	0	0
2024-08-16 21:45:47			0	36914	0	0	0	29566	28260	158054	26970	1074920	46509	110998	0	0	8047	582602	0	0
2024-08-16 21:46:47			0	36925	0	0	0	29579	28260	158054	26769	1074866	46521	111003	0	0	8048	582160	0	0
2024-08-16 21:47:47			0	36917	0	0	0	29579	28250	158074	26854	1074821	46507	111003	0	0	8047	582515	0	0
2024-08-16 21:48:47			0	36940	0	0	0	29579	28250	158038	27071	1074902	46519	111003	0	0	8049	581591	0	0
2024-08-16 21:49:47			0	36919	0	0	0	29576	28250	158066	26811	1074839	46519	111002	0	0	8047	582434	0	0
2024-08-16 21:50:47			0	36937	0	0	0	29597	28250	158114	26840	1074919	46530	111010	0	0	8048	581711	0	0
2024-08-16 21:51:47			0	36927	0	0	0	29594	28260	158022	27031	1074937	46520	111009	0	0	8048	582079	0	0
2024-08-16 21:52:47			0	36942	0	0	0	29605	28250	157950	27024	1074821	46519	111013	0	0	8048	581511	0	0
2024-08-16 21:53:47			0	36937	0	0	0	29610	28240	158010	27000	1074856	46519	111015	0	0	8048	581745	0	0
2024-08-16 21:54:47			0	36959	0	0	0	29607	28250	158098	26911	1074794	46519	111014	0	0	8049	580829	0	0
2024-08-16 21:55:47			0	36949	0	0	0	29612	28240	158046	27008	1074776	46519	111016	0	0	8048	581263	0	0
2024-08-16 21:56:47			0	36942	0	0	0	29607	28240	157950	26871	1074856	46519	111014	0	0	8048	581544	0	0
2024-08-16 21:57:47			0	36940	0	0	0	29618	28250	157926	27248	1074919	46530	111018	0	0	8048	581591	0	0
2024-08-16 21:58:47			0	36968	0	0	0	29641	28260	157958	26771	1074991	46520	111027	0	0	8049	580434	0	0
2024-08-16 21:59:47			0	36951	0	0	0	29631	28260	157886	27092	1074947	46521	111023	0	0	8048	581116	0	0
2024-08-16 22:00:47			0	36946	0	0	0	29628	28260	157922	26960	1074839	46521	111022	0	0	8048	581317	0	0
2024-08-16 22:01:47			0	36954	0	0	0	29623	28250	157914	27145	1074919	46519	111020	0	0	8049	581029	0	0
2024-08-16 22:02:47			0	36954	0	0	0	29638	28250	157918	26793	1074848	46519	111026	0	0	8048	581029	0	0
2024-08-16 22:03:47			0	36939	0	0	0	29667	28260	157926	26814	1075018	46531	111037	0	0	8047	581598	0	0
2024-08-16 22:04:47			0	36971	0	0	0	29672	28270	157958	27012	1075037	46532	111039	0	0	8049	580281	0	0
2024-08-16 22:05:47			0	36964	0	0	0	29688	28270	157890	26968	1075064	46543	111045	0	0	8048	580561	0	0
2024-08-16 22:06:47			0	36956	0	0	0	29701	28270	157898	27230	1075127	46521	111050	0	0	8047	580882	0	0
2024-08-16 22:07:47			0	36991	0	0	0	29711	28280	157810	26785	1075190	46533	111054	0	0	8049	579446	0	0
2024-08-16 22:08:47			0	36968	0	0	0	29719	28280	157794	26857	1075145	46556	111057	0	0	8048	580367	0	0
2024-08-16 22:09:47			0	36992	0	0	0	29709	28290	157802	27190	1075163	46546	111053	0	0	8050	579373	0	0
2024-08-16 22:10:47			0	36981	0	0	0	29706	28290	157766	27013	1075235	46511	111052	0	0	8049	579813	0	0
2024-08-16 22:11:47			0	36983	0	0	0	29701	28300	157774	27057	1075199	46524	111050	0	0	8049	579699	0	0
2024-08-16 22:12:47			0	36995	0	0	0	29677	28300	157682	26909	1075091	46524	111041	0	0	8050	579219	0	0
2024-08-16 22:13:47			0	36983	0	0	0	29664	28280	157658	26946	1075091	46534	111036	0	0	8050	579766	0	0
2024-08-16 22:14:47			0	37003	0	0	0	29672	28280	157674	27097	1075145	46534	111039	0	0	8051	578966	0	0
2024-08-16 22:15:47			0	36982	0	0	0	29677	28280	157698	27034	1075064	46523	111041	0	0	8049	579806	0	0
2024-08-16 22:16:47			0	36980	0	0	0	29683	28280	157714	26783	1075091	46523	111043	0	0	8049	579887	0	0
2024-08-16 22:17:47			0	36966	0	0	0	29667	28280	157846	27126	1075091	46523	111037	0	0	8049	580447	0	0
2024-08-16 22:18:47			0	36909	0	0	0	29667	28280	158018	27000	1075091	46511	111037	0	0	8045	582735	0	0
2024-08-16 22:19:47			0	36872	0	0	0	29659	28300	158230	26967	1075091	46535	111034	0	0	8043	584156	0	0
2024-08-16 22:20:47			0	36871	0	0	0	29659	28300	158178	26767	1075064	46524	111034	0	0	8043	584196	0	0
2024-08-16 22:21:47			0	36840	0	0	0	29662	28280	158342	26915	1075055	46533	111035	0	0	8041	585513	0	0
2024-08-16 22:22:47			0	36843	0	0	0	29667	28270	158318	26824	1075046	46509	111037	0	0	8041	585426	0	0
2024-08-16 22:23:47			0	36824	0	0	0	29662	28280	158398	26876	1075055	46522	111035	0	0	8040	586158	0	0
2024-08-16 22:24:47			0	36820	0	0	0	29659	28280	158442	26935	1075055	46533	111034	0	0	8040	586319	0	0
2024-08-16 22:25:47			0	36822	0	0	0	29659	28270	158382	27201	1075100	46532	111034	0	0	8040	586273	0	0
2024-08-16 22:26:47			0	36815	0	0	0	29654	28280	158422	26809	1074974	46522	111032	0	0	8040	586521	0	0
2024-08-16 22:27:47			0	36804	0	0	0	29662	28270	158414	26989	1075046	46521	111035	0	0	8039	586999	0	0
2024-08-16 22:28:47			0	36794	0	0	0	29677	28270	158522	27048	1075073	46521	111041	0	0	8038	587403	0	0
2024-08-16 22:29:47			0	36812	0	0	0	29683	28270	158506	27133	1075064	46532	111043	0	0	8039	586676	0	0
2024-08-16 22:30:47			0	36804	0	0	0	29688	28280	158458	26972	1075136	46533	111045	0	0	8039	586965	0	0
2024-08-16 22:31:47			0	36786	0	0	0	29690	28280	158546	27017	1075118	46523	111046	0	0	8038	587693	0	0
2024-08-16 22:32:47			0	36790	0	0	0	29696	28280	158590	26986	1075118	46534	111048	0	0	8038	587531	0	0
2024-08-16 22:33:47			0	36793	0	0	0	29698	28280	158526	27138	1075109	46533	111049	0	0	8038	587410	0	0
2024-08-16 22:34:47			0	36792	0	0	0	29688	28280	158594	26807	1075118	46534	111045	0	0	8038	587450	0	0
2024-08-16 22:35:47			0	36784	0	0	0	29683	28280	158490	26618	1075172	46534	111043	0	0	8038	587773	0	0
2024-08-16 22:36:47			0	36790	0	0	0	29685	28290	158522	26972	1075181	46534	111044	0	0	8038	587497	0	0
2024-08-16 22:37:47			0	36790	0	0	0	29683	28280	158590	26750	1075145	46545	111043	0	0	8038	587531	0	0
2024-08-16 22:38:47			0	36785	0	0	0	29683	28280	158610	26693	1075145	46523	111043	0	0	8038	587733	0	0
2024-08-16 22:39:47			0	36778	0	0	0	29675	28290	158542	26668	1075190	46535	111040	0	0	8038	587982	0	0
2024-08-16 22:40:47			0	36779	0	0	0	29680	28280	158502	26892	1075118	46534	111042	0	0	8037	587976	0	0
2024-08-16 22:41:47			0	36764	0	0	0	29688	28280	158570	26942	1075163	46510	111045	0	0	8036	588582	0	0
2024-08-16 22:42:47			0	36771	0	0	0	29685	28290	158582	26798	1075136	46524	111044	0	0	8037	588265	0	0
2024-08-16 22:43:47			0	36778	0	0	0	29677	28290	158646	26762	1075136	46535	111041	0	0	8038	587982	0	0
2024-08-16 22:44:47			0	36765	0	0	0	29680	28290	158562	26835	1075100	46534	111042	0	0	8037	588508	0	0
2024-08-16 22:45:47			0	36768	0	0	0	29675	28280	158618	26701	1075199	46534	111040	0	0	8037	588420	0	0
2024-08-16 22:46:47			0	36764	0	0	0	29667	28290	158634	26835	1075154	46523	111037	0	0	8037	588548	0	0
2024-08-16 22:47:47			0	36782	0	0	0	29667	28290	158702	26994	1075082	46546	111037	0	0	8038	587820	0	0
2024-08-16 22:48:47			0	36762	0	0	0	29657	28280	158594	26845	1075055	46544	111033	0	0	8037	588663	0	0
2024-08-16 22:49:47			0	36762	0	0	0	29662	28270	158658	26755	1075046	46532	111035	0	0	8037	588697	0	0
2024-08-16 22:50:47			0	36784	0	0	0	29659	28280	158650	26771	1075082	46533	111034	0	0	8038	587773	0	0
2024-08-16 22:51:47			0	36768	0	0	0	29654	28280	158662	26922	1075001	46522	111032	0	0	8037	588420	0	0
2024-08-16 22:52:47			0	36766	0	0	0	29664	28270	158662	26649	1074983	46521	111036	0	0	8037	588535	0	0
2024-08-16 22:53:47			0	36776	0	0	0	29657	28270	158730	26708	1074983	46543	111033	0	0	8038	588131	0	0
2024-08-16 22:54:47			0	36780	0	0	0	29659	28270	158614	26925	1074992	46521	111034	0	0	8038	587969	0	0
2024-08-16 22:55:47			0	36784	0	0	0	29659	28270	158734	26821	1074983	46532	111034	0	0	8038	587807	0	0
2024-08-16 22:56:47			0	36777	0	0	0	29654	28270	158610	26594	1074938	46532	111032	0	0	8038	588090	0	0
2024-08-16 22:57:47			0	36786	0	0	0	29623	28260	158606	26871	1074947	46532	111020	0	0	8039	587761	0	0
2024-08-16 22:58:47			0	36802	0	0	0	29607	28260	158530	26861	1074884	46520	111014	0	0	8040	587114	0	0
2024-08-16 22:59:47			0	36775	0	0	0	29625	28250	158646	27026	1074902	46530	111021	0	0	8038	588239	0	0
2024-08-16 23:00:47			0	36755	0	0	0	29633	28260	158714	26706	1074884	46520	111024	0	0	8037	589015	0	0
2024-08-16 23:01:47			0	36756	0	0	0	29638	28260	158814	27079	1074893	46521	111026	0	0	8037	588974	0	0
2024-08-16 23:02:47			0	36698	0	0	0	29638	28250	158978	26955	1074866	46541	111026	0	0	8033	591359	0	0
2024-08-16 23:03:47			0	36688	0	0	0	29633	28250	159086	26644	1074866	46519	111024	0	0	8033	591765	0	0
2024-08-16 23:04:47			0	36672	0	0	0	29620	28250	159082	26991	1074785	46507	111019	0	0	8032	592415	0	0
2024-08-16 23:05:47			0	36664	0	0	0	29602	28240	159166	26779	1074874	46506	111012	0	0	8032	592775	0	0
2024-08-16 23:06:47			0	36656	0	0	0	29610	28240	159238	26642	1074749	46497	111015	0	0	8031	593100	0	0
2024-08-16 23:07:47			0	36632	0	0	0	29605	28240	159366	27003	1074856	46507	111013	0	0	8030	594077	0	0
2024-08-16 23:08:47			0	36631	0	0	0	29605	28230	159290	27232	1074758	46528	111013	0	0	8030	594152	0	0
2024-08-16 23:09:47			0	36611	0	0	0	29610	28230	159302	27053	1074785	46528	111015	0	0	8029	594967	0	0
2024-08-16 23:10:47			0	36616	0	0	0	29607	28230	159386	26769	1074785	46528	111014	0	0	8029	594763	0	0
2024-08-16 23:11:47			0	36596	0	0	0	29599	28220	159382	26778	1074766	46539	111011	0	0	8028	595613	0	0
2024-08-16 23:12:47			0	36608	0	0	0	29594	28230	159414	26653	1074785	46505	111009	0	0	8029	595089	0	0
2024-08-16 23:13:47			0	36605	0	0	0	29594	28230	159418	26634	1074722	46528	111009	0	0	8028	595211	0	0
2024-08-16 23:14:47			0	36612	0	0	0	29592	28220	159462	26873	1074766	46527	111008	0	0	8029	594960	0	0
2024-08-16 23:15:47			0	36613	0	0	0	29586	28210	159506	26656	1074721	46526	111006	0	0	8029	594954	0	0
2024-08-16 23:16:47			0	36586	0	0	0	29586	28220	159377	26771	1074713	46527	111006	0	0	8027	596021	0	0
2024-08-16 23:17:47			0	36615	0	0	0	29592	28220	159494	27123	1074686	46527	111008	0	0	8029	594838	0	0
2024-08-16 23:18:47			0	36619	0	0	0	29597	28210	159290	26955	1074695	46515	111010	0	0	8029	594709	0	0
2024-08-16 23:19:47			0	36644	0	0	0	29592	28210	159350	26824	1074739	46515	111008	0	0	8031	593691	0	0
2024-08-16 23:20:47			0	36625	0	0	0	29594	28220	159318	27222	1074650	46527	111009	0	0	8030	594431	0	0
2024-08-16 23:21:47			0	36641	0	0	0	29584	28200	159302	26941	1074694	46514	111005	0	0	8031	593848	0	0
2024-08-16 23:22:47			0	36656	0	0	0	29586	28200	159234	26783	1074614	46525	111006	0	0	8031	593237	0	0
2024-08-16 23:23:47			0	36659	0	0	0	29584	28190	159314	27114	1074649	46512	111005	0	0	8032	593149	0	0
2024-08-16 23:24:47			0	36662	0	0	0	29584	28190	159330	27098	1074631	46536	111005	0	0	8032	593027	0	0
2024-08-16 23:25:47			0	36643	0	0	0	29581	28190	159218	27048	1074622	46523	111004	0	0	8031	593800	0	0
2024-08-16 23:26:47			0	36651	0	0	0	29589	28190	159346	27201	1074658	46513	111007	0	0	8031	593475	0	0
2024-08-16 23:27:47			0	36648	0	0	0	29586	28190	159330	27178	1074605	46524	111006	0	0	8031	593597	0	0
2024-08-16 23:28:47			0	36652	0	0	0	29584	28190	159306	26755	1074712	46536	111005	0	0	8031	593434	0	0
2024-08-16 23:29:47			0	36667	0	0	0	29579	28190	159238	26994	1074658	46524	111003	0	0	8032	592824	0	0
2024-08-16 23:30:47			0	36647	0	0	0	29571	28190	159334	26981	1074605	46524	111000	0	0	8031	593638	0	0
2024-08-16 23:31:47			0	36656	0	0	0	29571	28190	159278	27157	1074578	46513	111000	0	0	8032	593271	0	0
2024-08-16 23:32:47			0	36651	0	0	0	29566	28190	159222	27267	1074578	46513	110998	0	0	8031	593475	0	0
2024-08-16 23:33:47			0	36653	0	0	0	29558	28190	159182	27183	1074542	46512	110995	0	0	8032	593394	0	0
2024-08-16 23:34:47			0	36648	0	0	0	29542	28170	159170	27020	1074514	46534	110989	0	0	8032	593666	0	0
2024-08-16 23:35:47			0	36655	0	0	0	29548	28180	159214	27163	1074443	46512	110991	0	0	8032	593346	0	0
2024-08-16 23:36:47			0	36659	0	0	0	29545	28170	159138	26821	1074452	46521	110990	0	0	8032	593218	0	0
2024-08-16 23:37:47			0	36690	0	0	0	29537	28160	159190	27140	1074443	46521	110987	0	0	8034	591992	0	0
2024-08-16 23:38:47			0	36685	0	0	0	29542	28160	159022	27003	1074407	46520	110989	0	0	8034	592195	0	0
2024-08-16 23:39:47			0	36704	0	0	0	29537	28160	158930	27079	1074487	46520	110987	0	0	8035	591423	0	0
2024-08-16 23:40:47			0	36714	0	0	0	29545	28160	159074	27076	1074416	46543	110990	0	0	8035	591017	0	0
2024-08-16 23:41:47			0	36700	0	0	0	29548	28150	158974	26779	1074451	46520	110991	0	0	8034	591620	0	0
2024-08-16 23:42:47			0	36703	0	0	0	29540	28150	158982	27123	1074370	46520	110988	0	0	8035	591498	0	0
2024-08-16 23:43:47			0	36727	0	0	0	29540	28160	158982	27093	1074496	46510	110988	0	0	8036	590490	0	0
2024-08-16 23:44:47			0	36726	0	0	0	29535	28150	158978	27064	1074469	46531	110986	0	0	8036	590564	0	0
2024-08-16 23:45:47			0	36730	0	0	0	29535	28150	159022	27261	1074397	46532	110986	0	0	8036	590402	0	0
2024-08-16 23:46:47			0	36708	0	0	0	29542	28160	158942	26845	1074433	46509	110989	0	0	8035	591261	0	0
2024-08-16 23:47:47			0	36733	0	0	0	29542	28150	159014	27270	1074415	46531	110989	0	0	8036	590280	0	0
2024-08-16 23:48:47			0	36708	0	0	0	29535	28150	158854	26857	1074370	46520	110986	0	0	8035	591295	0	0
2024-08-16 23:49:47			0	36722	0	0	0	29537	28150	158978	26982	1074361	46519	110987	0	0	8036	590727	0	0
2024-08-16 23:50:47			0	36729	0	0	0	29532	28130	159042	26812	1074334	46518	110985	0	0	8036	590511	0	0
2024-08-16 23:51:47			0	36730	0	0	0	29535	28150	158922	26809	1074361	46531	110986	0	0	8036	590402	0	0
2024-08-16 23:52:47			0	36721	0	0	0	29537	28140	158970	27067	1074379	46508	110987	0	0	8036	590801	0	0
2024-08-16 23:53:47			0	36733	0	0	0	29542	28140	159054	27076	1074406	46519	110989	0	0	8036	590314	0	0
2024-08-16 23:54:47			0	36729	0	0	0	29542	28140	159030	27175	1074370	46530	110989	0	0	8036	590477	0	0
2024-08-16 23:55:47			0	36744	0	0	0	29532	28140	158930	26958	1074406	46531	110985	0	0	8037	589869	0	0
2024-08-16 23:56:47			0	36727	0	0	0	29529	28150	158998	26925	1074334	46519	110984	0	0	8036	590524	0	0
2024-08-16 23:57:47			0	36727	0	0	0	29540	28150	158962	27033	1074388	46519	110988	0	0	8036	590524	0	0
2024-08-16 23:58:47			0	36725	0	0	0	29537	28140	159046	27029	1074406	46531	110987	0	0	8036	590639	0	0
2024-08-16 23:59:47			0	36724	0	0	0	29527	28140	159014	26717	1074316	46530	110983	0	0	8036	590680	0	0
2024-08-17 00:00:47			0	36721	0	0	0	29537	28140	158998	27052	1074433	46531	110987	0	0	8036	590801	0	0
2024-08-17 00:01:47			0	36726	0	0	0	29537	28140	159030	26760	1074379	46531	110987	0	0	8036	590598	0	0
2024-08-17 00:02:47			0	36726	0	0	0	29537	28140	158966	27111	1074406	46519	110987	0	0	8036	590598	0	0
2024-08-17 00:03:47			0	36721	0	0	0	29529	28140	159026	26974	1074262	46518	110984	0	0	8036	590801	0	0
2024-08-17 00:04:47			0	36727	0	0	0	29519	28140	159058	27116	1074289	46530	110980	0	0	8036	590558	0	0
2024-08-17 00:05:47			0	36737	0	0	0	29516	28130	159058	27131	1074325	46540	110979	0	0	8037	590186	0	0
2024-08-17 00:06:47			0	36732	0	0	0	29529	28120	159102	27107	1074262	46517	110984	0	0	8036	590423	0	0
2024-08-17 00:07:47			0	36725	0	0	0	29524	28130	159110	27048	1074280	46507	110982	0	0	8036	590673	0	0
2024-08-17 00:08:47			0	36726	0	0	0	29516	28130	159014	26765	1074271	46517	110979	0	0	8036	590632	0	0
2024-08-17 00:09:47			0	36727	0	0	0	29503	28130	158970	26889	1074253	46497	110974	0	0	8037	590592	0	0
2024-08-17 00:10:47			0	36744	0	0	0	29496	28120	159074	26861	1074226	46505	110971	0	0	8038	589937	0	0
2024-08-17 00:11:47			0	36757	0	0	0	29501	28120	159138	27137	1074226	46528	110973	0	0	8038	589410	0	0
2024-08-17 00:12:47			0	36741	0	0	0	29498	28120	159054	27114	1074199	46516	110972	0	0	8038	590058	0	0
2024-08-17 00:13:47			0	36752	0	0	0	29503	28120	159086	26922	1074262	46517	110974	0	0	8038	589612	0	0
2024-08-17 00:14:47			0	36744	0	0	0	29496	28110	159186	26793	1074190	46516	110971	0	0	8038	589971	0	0
2024-08-17 00:15:47			0	36739	0	0	0	29493	28110	159174	26691	1074163	46516	110970	0	0	8037	590174	0	0
2024-08-17 00:16:47			0	36732	0	0	0	29493	28110	159166	27012	1074181	46515	110970	0	0	8037	590457	0	0
2024-08-17 00:17:47			0	36762	0	0	0	29493	28110	158994	26733	1074181	46515	110970	0	0	8039	589241	0	0
2024-08-17 00:18:47			0	36754	0	0	0	29483	28110	159050	26979	1074190	46528	110966	0	0	8039	589565	0	0
2024-08-17 00:19:47			0	36759	0	0	0	29493	28110	158922	26840	1074136	46505	110970	0	0	8039	589363	0	0
2024-08-17 00:20:47			0	36762	0	0	0	29493	28100	158930	27033	1074145	46504	110970	0	0	8039	589275	0	0
2024-08-17 00:21:47			0	36766	0	0	0	29506	28110	158954	26937	1074154	46527	110975	0	0	8039	589079	0	0
2024-08-17 00:22:47			0	36783	0	0	0	29503	28090	158994	26861	1074163	46503	110974	0	0	8040	588459	0	0
2024-08-17 00:23:47			0	36760	0	0	0	29514	28090	158994	27144	1074163	46514	110978	0	0	8038	589390	0	0
2024-08-17 00:24:47			0	36788	0	0	0	29519	28090	158902	27013	1074163	46514	110980	0	0	8040	588257	0	0
2024-08-17 00:25:47			0	36786	0	0	0	29519	28100	158926	27093	1074172	46538	110980	0	0	8040	588304	0	0
2024-08-17 00:26:47			0	36793	0	0	0	29511	28110	158954	27137	1074235	46527	110977	0	0	8040	587987	0	0
2024-08-17 00:27:47			0	36804	0	0	0	29509	28110	158854	27071	1074217	46516	110976	0	0	8041	587542	0	0
2024-08-17 00:28:47			0	36793	0	0	0	29511	28110	158798	27022	1074217	46516	110977	0	0	8040	587987	0	0
2024-08-17 00:29:47			0	36810	0	0	0	29493	28120	158862	26915	1074253	46516	110970	0	0	8042	587265	0	0
2024-08-17 00:30:47			0	36807	0	0	0	29503	28110	158818	26981	1074208	46527	110974	0	0	8041	587421	0	0
2024-08-17 00:31:47			0	36819	0	0	0	29498	28100	158698	26967	1074145	46504	110972	0	0	8042	586970	0	0
2024-08-17 00:32:47			0	36816	0	0	0	29498	28120	158730	27135	1074145	46505	110972	0	0	8042	587023	0	0
2024-08-17 00:33:47			0	36824	0	0	0	29488	28090	158690	27170	1074163	46514	110968	0	0	8042	586801	0	0
2024-08-17 00:34:47			0	36824	0	0	0	29475	28090	158570	27133	1074109	46514	110963	0	0	8043	586801	0	0
2024-08-17 00:35:47			0	36832	0	0	0	29480	28090	158694	27156	1074163	46503	110965	0	0	8043	586478	0	0
2024-08-17 00:36:47			0	36842	0	0	0	29472	28090	158666	27130	1074055	46514	110962	0	0	8044	586075	0	0
2024-08-17 00:37:47			0	36845	0	0	0	29462	28090	158642	26859	1074127	46502	110958	0	0	8044	585954	0	0
2024-08-17 00:38:47			0	36835	0	0	0	29467	28080	158594	27150	1074064	46513	110960	0	0	8043	586391	0	0
2024-08-17 00:39:47			0	36842	0	0	0	29470	28070	158638	26878	1074037	46523	110961	0	0	8044	586142	0	0
2024-08-17 00:40:47			0	36847	0	0	0	29470	28070	158546	26831	1074046	46512	110961	0	0	8044	585941	0	0
2024-08-17 00:41:47			0	36840	0	0	0	29472	28080	158646	26857	1074028	46524	110962	0	0	8044	586189	0	0
2024-08-17 00:42:47			0	36846	0	0	0	29475	28080	158570	26930	1074082	46524	110963	0	0	8044	585947	0	0
2024-08-17 00:43:47			0	36853	0	0	0	29472	28070	158494	26970	1074073	46524	110962	0	0	8044	585698	0	0
2024-08-17 00:44:47			0	36866	0	0	0	29472	28080	158602	26876	1074091	46536	110962	0	0	8045	585140	0	0
2024-08-17 00:45:47			0	36868	0	0	0	29480	28080	158542	27235	1074064	46525	110965	0	0	8045	585060	0	0
2024-08-17 00:46:47			0	36883	0	0	0	29475	28080	158522	26837	1074109	46524	110963	0	0	8046	584455	0	0
2024-08-17 00:47:47			0	36884	0	0	0	29472	28080	158546	27118	1074037	46536	110962	0	0	8046	584415	0	0
2024-08-17 00:48:47			0	36870	0	0	0	29475	28080	158458	26913	1074091	46525	110963	0	0	8045	584979	0	0
2024-08-17 00:49:47			0	36882	0	0	0	29462	28080	158442	26793	1074055	46535	110958	0	0	8046	584496	0	0
2024-08-17 00:50:47			0	36885	0	0	0	29464	28080	158350	27015	1074055	46512	110959	0	0	8046	584375	0	0
2024-08-17 00:51:47			0	36892	0	0	0	29467	28080	158378	26960	1074028	46512	110960	0	0	8047	584093	0	0
2024-08-17 00:52:47			0	36895	0	0	0	29457	28070	158394	27027	1074019	46524	110956	0	0	8047	584006	0	0
2024-08-17 00:53:47			0	36903	0	0	0	29464	28070	158490	26904	1074010	46523	110959	0	0	8047	583684	0	0
2024-08-17 00:54:47			0	36908	0	0	0	29462	28060	158362	27280	1074028	46523	110958	0	0	8048	583516	0	0
2024-08-17 00:55:47			0	36923	0	0	0	29467	28080	158354	27263	1073974	46524	110960	0	0	8049	582845	0	0
2024-08-17 00:56:47			0	36926	0	0	0	29454	28070	158346	26736	1074010	46511	110955	0	0	8049	582759	0	0
2024-08-17 00:57:47			0	36930	0	0	0	29457	28070	158206	27203	1074073	46512	110956	0	0	8049	582598	0	0
2024-08-17 00:58:47			0	36921	0	0	0	29446	28080	158342	27005	1073947	46512	110952	0	0	8049	582926	0	0
2024-08-17 00:59:47			0	36944	0	0	0	29444	28060	158314	27083	1074001	46511	110951	0	0	8050	582069	0	0
2024-08-17 01:00:47			0	36943	0	0	0	29449	28060	158278	27237	1073920	46523	110953	0	0	8050	582109	0	0
2024-08-17 01:01:47			0	36930	0	0	0	29449	28060	158282	27050	1074001	46511	110953	0	0	8049	582631	0	0
2024-08-17 01:02:47			0	36938	0	0	0	29451	28050	158174	27081	1073956	46510	110954	0	0	8050	582343	0	0
2024-08-17 01:03:47			0	36946	0	0	0	29451	28060	158122	26982	1074028	46523	110954	0	0	8050	581988	0	0
2024-08-17 01:04:47			0	36943	0	0	0	29446	28050	158214	27182	1073929	46522	110952	0	0	8050	582142	0	0
2024-08-17 01:05:47			0	36954	0	0	0	29457	28060	158230	27213	1073992	46510	110956	0	0	8050	581667	0	0
2024-08-17 01:06:47			0	36971	0	0	0	29459	28060	158082	26961	1073992	46522	110957	0	0	8051	580985	0	0
2024-08-17 01:07:47			0	36968	0	0	0	29449	28060	158086	26670	1073974	46511	110953	0	0	8051	581105	0	0
2024-08-17 01:08:47			0	36956	0	0	0	29449	28060	158090	26826	1074001	46511	110953	0	0	8051	581587	0	0
2024-08-17 01:09:47			0	36961	0	0	0	29451	28060	158090	27152	1073947	46511	110954	0	0	8051	581386	0	0
2024-08-17 01:10:47			0	36965	0	0	0	29449	28060	158010	27138	1074028	46523	110953	0	0	8051	581225	0	0
2024-08-17 01:11:47			0	36969	0	0	0	29454	28050	158118	26868	1073983	46522	110955	0	0	8051	581098	0	0
2024-08-17 01:12:47			0	36990	0	0	0	29449	28060	158094	26991	1073974	46523	110953	0	0	8053	580223	0	0
2024-08-17 01:13:47			0	36986	0	0	0	29454	28060	157998	26920	1073974	46523	110955	0	0	8052	580383	0	0
2024-08-17 01:14:47			0	36994	0	0	0	29444	28050	158134	26724	1073983	46510	110951	0	0	8053	580096	0	0
2024-08-17 01:15:47			0	36998	0	0	0	29444	28060	158118	26635	1073938	46533	110951	0	0	8053	579902	0	0
2024-08-17 01:16:47			0	36997	0	0	0	29444	28050	157874	27036	1073956	46533	110951	0	0	8053	579975	0	0
2024-08-17 01:17:47			0	37019	0	0	0	29444	28050	157870	27017	1073920	46509	110951	0	0	8054	579094	0	0
2024-08-17 01:18:47			0	36997	0	0	0	29441	28040	157878	26628	1073911	46520	110950	0	0	8053	580009	0	0
2024-08-17 01:19:47			0	37008	0	0	0	29431	28050	157954	26928	1073875	46500	110946	0	0	8054	579535	0	0
2024-08-17 01:20:47			0	37010	0	0	0	29444	28050	157910	26854	1073893	46521	110951	0	0	8054	579455	0	0
2024-08-17 01:21:47			0	37010	0	0	0	29428	28050	157902	26575	1073893	46509	110945	0	0	8054	579455	0	0
2024-08-17 01:22:47			0	37027	0	0	0	29433	28050	157922	26674	1073893	46509	110947	0	0	8055	578774	0	0
2024-08-17 01:23:47			0	37029	0	0	0	29425	28040	157810	26635	1073848	46508	110944	0	0	8055	578727	0	0
2024-08-17 01:24:47			0	37036	0	0	0	29431	28040	157782	26814	1073830	46508	110946	0	0	8056	578447	0	0
2024-08-17 01:25:47			0	37039	0	0	0	29423	28040	157730	26993	1073884	46498	110943	0	0	8056	578327	0	0
2024-08-17 01:26:47			0	37033	0	0	0	29423	28030	157782	27092	1073866	46531	110943	0	0	8056	578601	0	0
2024-08-17 01:27:47			0	37043	0	0	0	29425	28040	157690	26828	1073875	46531	110944	0	0	8056	578167	0	0
2024-08-17 01:28:47			0	37051	0	0	0	29425	28020	157682	26975	1073821	46518	110944	0	0	8057	577914	0	0
2024-08-17 01:29:47			0	37054	0	0	0	29420	28030	157682	26915	1073839	46508	110942	0	0	8057	577761	0	0
2024-08-17 01:30:47			0	37040	0	0	0	29418	28020	157786	26811	1073767	46506	110941	0	0	8056	578354	0	0
2024-08-17 01:31:47			0	37081	0	0	0	29410	28030	157602	27097	1073830	46507	110938	0	0	8059	576682	0	0
2024-08-17 01:32:47			0	37058	0	0	0	29412	28020	157662	26993	1073794	46518	110939	0	0	8057	577634	0	0
2024-08-17 01:33:47			0	37078	0	0	0	29420	28020	157642	27053	1073794	46518	110942	0	0	8058	576835	0	0
2024-08-17 01:34:47			0	37058	0	0	0	29399	28020	157542	27043	1073794	46518	110934	0	0	8057	577634	0	0
2024-08-17 01:35:47			0	37076	0	0	0	29407	28030	157650	26956	1073749	46519	110937	0	0	8058	576882	0	0
2024-08-17 01:36:47			0	37080	0	0	0	29405	28020	157706	26922	1073794	46496	110936	0	0	8059	576755	0	0
2024-08-17 01:37:47			0	37092	0	0	0	29397	28020	157542	26637	1073758	46518	110933	0	0	8059	576276	0	0
2024-08-17 01:38:47			0	37095	0	0	0	29394	28020	157598	26930	1073704	46506	110932	0	0	8060	576156	0	0
2024-08-17 01:39:47			0	37101	0	0	0	29397	28000	157530	26526	1073731	46516	110933	0	0	8060	575984	0	0
2024-08-17 01:40:47			0	37101	0	0	0	29386	28020	157418	26928	1073758	46506	110929	0	0	8060	575917	0	0
2024-08-17 01:41:47			0	37112	0	0	0	29384	28000	157574	27071	1073677	46527	110928	0	0	8061	575545	0	0
2024-08-17 01:42:47			0	37094	0	0	0	29384	28000	157490	26849	1073731	46494	110928	0	0	8060	576263	0	0
2024-08-17 01:43:47			0	37125	0	0	0	29389	28000	157430	26764	1073704	46494	110930	0	0	8061	575027	0	0
2024-08-17 01:44:47			0	37125	0	0	0	29384	28000	157386	26949	1073722	46504	110928	0	0	8061	575027	0	0
2024-08-17 01:45:47			0	37125	0	0	0	29381	28000	157434	27130	1073704	46504	110927	0	0	8062	575027	0	0
2024-08-17 01:46:47			0	37148	0	0	0	29384	27990	157394	27003	1073650	46515	110928	0	0	8063	574144	0	0
2024-08-17 01:47:47			0	37142	0	0	0	29374	28000	157362	26635	1073650	46504	110924	0	0	8063	574349	0	0
2024-08-17 01:48:47			0	37147	0	0	0	29384	28000	157350	27209	1073641	46504	110928	0	0	8063	574150	0	0
2024-08-17 01:49:47			0	37126	0	0	0	29366	27990	157362	26974	1073596	46503	110921	0	0	8062	575020	0	0
2024-08-17 01:50:47			0	37126	0	0	0	29376	27980	157438	26868	1073605	46513	110925	0	0	8062	575053	0	0
2024-08-17 01:51:47			0	37154	0	0	0	29379	27980	157418	27062	1073605	46513	110926	0	0	8063	573938	0	0
2024-08-17 01:52:47			0	37148	0	0	0	29374	27980	157346	26894	1073614	46502	110924	0	0	8063	574177	0	0
2024-08-17 01:53:47			0	37141	0	0	0	29368	27980	157438	26901	1073641	46502	110922	0	0	8063	574455	0	0
2024-08-17 01:54:47			0	37129	0	0	0	29374	27980	157434	27060	1073641	46502	110924	0	0	8062	574933	0	0
2024-08-17 01:55:47			0	37131	0	0	0	29368	27990	157374	26781	1073623	46515	110922	0	0	8062	574821	0	0
2024-08-17 01:56:47			0	37139	0	0	0	29368	27980	157302	27093	1073632	46501	110922	0	0	8062	574535	0	0
2024-08-17 01:57:47			0	37153	0	0	0	29368	27980	157394	26724	1073641	46502	110922	0	0	8063	573978	0	0
2024-08-17 01:58:47			0	37148	0	0	0	29366	27980	157354	26703	1073551	46501	110921	0	0	8063	574177	0	0
2024-08-17 01:59:47			0	37129	0	0	0	29358	27980	157418	26727	1073587	46502	110918	0	0	8062	574933	0	0
2024-08-17 02:00:47			0	37136	0	0	0	29368	27980	157430	26844	1073524	46501	110922	0	0	8062	574654	0	0
2024-08-17 02:01:47			0	37137	0	0	0	29366	27980	157446	26868	1073479	46514	110921	0	0	8062	574615	0	0
2024-08-17 02:02:47			0	37134	0	0	0	29361	27970	157406	27105	1073479	46513	110919	0	0	8062	574767	0	0
2024-08-17 02:03:47			0	37152	0	0	0	29355	27960	157338	27005	1073551	46490	110917	0	0	8063	574084	0	0
2024-08-17 02:04:47			0	37153	0	0	0	29358	27960	157386	26909	1073488	46500	110918	0	0	8063	574044	0	0
2024-08-17 02:05:47			0	37155	0	0	0	29355	27980	157402	27013	1073524	46513	110917	0	0	8064	573898	0	0
2024-08-17 02:06:47			0	37158	0	0	0	29363	27960	157274	26790	1073497	46512	110920	0	0	8064	573845	0	0
2024-08-17 02:07:47			0	37153	0	0	0	29355	27950	157454	27109	1073452	46511	110917	0	0	8063	574077	0	0
2024-08-17 02:08:47			0	37165	0	0	0	29355	27960	157366	26939	1073497	46500	110917	0	0	8064	573566	0	0
2024-08-17 02:09:47			0	37165	0	0	0	29353	27960	157426	26909	1073515	46511	110916	0	0	8064	573566	0	0
2024-08-17 02:10:47			0	37152	0	0	0	29348	27960	157490	26979	1073488	46511	110914	0	0	8063	574084	0	0
2024-08-17 02:11:47			0	37141	0	0	0	29353	27950	157414	27112	1073533	46511	110916	0	0	8063	574555	0	0
2024-08-17 02:12:47			0	37160	0	0	0	29353	27960	157418	26817	1073416	46512	110916	0	0	8064	573765	0	0
2024-08-17 02:13:47			0	37169	0	0	0	29350	27950	157394	26960	1073479	46500	110915	0	0	8064	573440	0	0
2024-08-17 02:14:47			0	37163	0	0	0	29348	27950	157386	26927	1073470	46500	110914	0	0	8064	573679	0	0
2024-08-17 02:15:47			0	37159	0	0	0	29342	27950	157322	26786	1073470	46511	110912	0	0	8064	573838	0	0
2024-08-17 02:16:47			0	37125	0	0	0	29342	27950	157498	26823	1073443	46489	110912	0	0	8062	575192	0	0
2024-08-17 02:17:47			0	37092	0	0	0	29345	27950	157774	26863	1073452	46500	110913	0	0	8060	576509	0	0
2024-08-17 02:18:47			0	37078	0	0	0	29353	27950	157778	26868	1073470	46511	110916	0	0	8059	577068	0	0
2024-08-17 02:19:47			0	37103	0	0	0	29340	27950	157762	26949	1073425	46511	110911	0	0	8061	576070	0	0
2024-08-17 02:20:47			0	37097	0	0	0	29345	27950	157758	27098	1073443	46522	110913	0	0	8060	576309	0	0
2024-08-17 02:21:47			0	37098	0	0	0	29355	27950	157642	27123	1073470	46511	110917	0	0	8060	576269	0	0
2024-08-17 02:22:47			0	37122	0	0	0	29350	27950	157594	26955	1073470	46511	110915	0	0	8062	575312	0	0
2024-08-17 02:23:47			0	37123	0	0	0	29350	27940	157622	26776	1073461	46499	110915	0	0	8062	575305	0	0
2024-08-17 02:24:47			0	37120	0	0	0	29353	27950	157606	26968	1073452	46500	110916	0	0	8061	575392	0	0
2024-08-17 02:25:47			0	37113	0	0	0	29345	27940	157618	26953	1073434	46510	110913	0	0	8061	575704	0	0
2024-08-17 02:26:47			0	37111	0	0	0	29345	27950	157614	27258	1073389	46511	110913	0	0	8061	575751	0	0
2024-08-17 02:27:47			0	37119	0	0	0	29340	27960	157514	26937	1073488	46500	110911	0	0	8062	575398	0	0
2024-08-17 02:28:47			0	37142	0	0	0	29337	27950	157558	27114	1073416	46522	110910	0	0	8063	574515	0	0
2024-08-17 02:29:47			0	37115	0	0	0	29340	27940	157606	26800	1073398	46509	110911	0	0	8061	575624	0	0
2024-08-17 02:30:47			0	37115	0	0	0	29337	27950	157570	26687	1073443	46522	110910	0	0	8061	575591	0	0
2024-08-17 02:31:47			0	37115	0	0	0	29337	27950	157566	26894	1073389	46500	110910	0	0	8061	575591	0	0
2024-08-17 02:32:47			0	37128	0	0	0	29340	27950	157630	27092	1073389	46500	110911	0	0	8062	575073	0	0
2024-08-17 02:33:47			0	37122	0	0	0	29340	27940	157522	27095	1073398	46498	110911	0	0	8062	575345	0	0
2024-08-17 02:34:47			0	37126	0	0	0	29327	27940	157578	26890	1073353	46499	110906	0	0	8062	575186	0	0
2024-08-17 02:35:47			0	37120	0	0	0	29340	27940	157522	26996	1073398	46498	110911	0	0	8062	575425	0	0
2024-08-17 02:36:47			0	37115	0	0	0	29335	27940	157526	26779	1073452	46498	110909	0	0	8061	575624	0	0
2024-08-17 02:37:47			0	37125	0	0	0	29329	27930	157702	26861	1073407	46509	110907	0	0	8062	575259	0	0
2024-08-17 02:38:47			0	37122	0	0	0	29314	27940	157726	26975	1073398	46509	110901	0	0	8062	575345	0	0
2024-08-17 02:39:47			0	37105	0	0	0	29322	27930	157642	26798	1073380	46498	110904	0	0	8061	576057	0	0
2024-08-17 02:40:47			0	37105	0	0	0	29319	27920	157602	26817	1073344	46497	110903	0	0	8061	576090	0	0
2024-08-17 02:41:47			0	37113	0	0	0	29314	27930	157574	27128	1073272	46509	110901	0	0	8062	575737	0	0
2024-08-17 02:42:47			0	37112	0	0	0	29311	27930	157670	27076	1073272	46498	110900	0	0	8062	575777	0	0
2024-08-17 02:43:47			0	37111	0	0	0	29309	27920	157670	26807	1073290	46497	110899	0	0	8062	575850	0	0
2024-08-17 02:44:47			0	37119	0	0	0	29306	27930	157602	27067	1073326	46498	110898	0	0	8062	575498	0	0
2024-08-17 02:45:47			0	37095	0	0	0	29306	27920	157638	27225	1073308	46507	110898	0	0	8061	576489	0	0
2024-08-17 02:46:47			0	37111	0	0	0	29296	27910	157654	26838	1073272	46495	110894	0	0	8062	575883	0	0
2024-08-17 02:47:47			0	37100	0	0	0	29301	27920	157738	26809	1073254	46474	110896	0	0	8061	576289	0	0
2024-08-17 02:48:47			0	37107	0	0	0	29296	27910	157630	27123	1073245	46495	110894	0	0	8061	576043	0	0
2024-08-17 02:49:47			0	37105	0	0	0	29290	27910	157614	26967	1073218	46506	110892	0	0	8061	576123	0	0
2024-08-17 02:50:47			0	37100	0	0	0	29285	27910	157754	26981	1073191	46506	110890	0	0	8061	576323	0	0
2024-08-17 02:51:47			0	37115	0	0	0	29288	27900	157642	26682	1073200	46506	110891	0	0	8062	575757	0	0
2024-08-17 02:52:47			0	37112	0	0	0	29293	27890	157666	26875	1073263	46515	110893	0	0	8062	575910	0	0
2024-08-17 02:53:47			0	37104	0	0	0	29283	27910	157642	27241	1073218	46495	110889	0	0	8062	576163	0	0
2024-08-17 02:54:47			0	37075	0	0	0	29280	27900	157586	26753	1073119	46517	110888	0	0	8060	577354	0	0
2024-08-17 02:55:47			0	37105	0	0	0	29283	27890	157678	26902	1073155	46482	110889	0	0	8061	576189	0	0
2024-08-17 02:56:47			0	37105	0	0	0	29280	27900	157614	27112	1073191	46505	110888	0	0	8062	576156	0	0
2024-08-17 02:57:47			0	37104	0	0	0	29264	27890	157634	27185	1073128	46493	110882	0	0	8062	576229	0	0
2024-08-17 02:58:47			0	37105	0	0	0	29267	27880	157626	26948	1073110	46493	110883	0	0	8062	576223	0	0
2024-08-17 02:59:47			0	37104	0	0	0	29275	27890	157742	27086	1073092	46504	110886	0	0	8062	576229	0	0
2024-08-17 03:00:47			0	37101	0	0	0	29264	27890	157602	26835	1073065	46504	110882	0	0	8062	576349	0	0
2024-08-17 03:01:47			0	37095	0	0	0	29262	27880	157614	26908	1073029	46515	110881	0	0	8061	576622	0	0
2024-08-17 03:02:47			0	37094	0	0	0	29259	27880	157726	26849	1073029	46504	110880	0	0	8061	576662	0	0
2024-08-17 03:03:47			0	37106	0	0	0	29251	27880	157618	26996	1073047	46492	110877	0	0	8062	576183	0	0
2024-08-17 03:04:47			0	37098	0	0	0	29264	27880	157646	26857	1073056	46504	110882	0	0	8061	576502	0	0
2024-08-17 03:05:47			0	37105	0	0	0	29238	27870	157594	27007	1072984	46480	110872	0	0	8062	576256	0	0
2024-08-17 03:06:47			0	37114	0	0	0	29241	27870	157606	26724	1072957	46491	110873	0	0	8063	575897	0	0
2024-08-17 03:07:47			0	37105	0	0	0	29233	27860	157710	26982	1072993	46491	110870	0	0	8062	576289	0	0
2024-08-17 03:08:47			0	37116	0	0	0	29225	27860	157602	27157	1072885	46491	110867	0	0	8063	575850	0	0
2024-08-17 03:09:47			0	37112	0	0	0	29231	27870	157618	27064	1072921	46491	110869	0	0	8063	575976	0	0
2024-08-17 03:10:47			0	37104	0	0	0	29231	27860	157526	26939	1072912	46491	110869	0	0	8062	576329	0	0
2024-08-17 03:11:47			0	37125	0	0	0	29233	27860	157606	27105	1072903	46501	110870	0	0	8063	575491	0	0
2024-08-17 03:12:47			0	37113	0	0	0	29233	27850	157598	26935	1072885	46510	110870	0	0	8063	576003	0	0
2024-08-17 03:13:47			0	37106	0	0	0	29233	27850	157546	26811	1072804	46500	110870	0	0	8062	576282	0	0
2024-08-17 03:14:47			0	37131	0	0	0	29223	27850	157650	26958	1072858	46500	110866	0	0	8064	575285	0	0
2024-08-17 03:15:47			0	37126	0	0	0	29218	27850	157494	27052	1072912	46500	110864	0	0	8064	575484	0	0
2024-08-17 03:16:47			0	37126	0	0	0	29218	27840	157666	27329	1072822	46500	110864	0	0	8064	575517	0	0
2024-08-17 03:17:47			0	37159	0	0	0	29223	27850	157586	27043	1072858	46500	110866	0	0	8065	574169	0	0
2024-08-17 03:18:47			0	37140	0	0	0	29225	27840	157534	27176	1072849	46488	110867	0	0	8064	574959	0	0
2024-08-17 03:19:47			0	37134	0	0	0	29225	27830	157490	27043	1072777	46487	110867	0	0	8064	575231	0	0
2024-08-17 03:20:47			0	37121	0	0	0	29231	27840	157422	26977	1072849	46500	110869	0	0	8063	575717	0	0
2024-08-17 03:21:47			0	37144	0	0	0	29231	27840	157430	26739	1072786	46510	110869	0	0	8064	574800	0	0
2024-08-17 03:22:47			0	37152	0	0	0	29236	27830	157610	27177	1072885	46499	110871	0	0	8065	574514	0	0
2024-08-17 03:23:47			0	37167	0	0	0	29225	27830	157570	26923	1072876	46486	110867	0	0	8066	573917	0	0
2024-08-17 03:24:47			0	37153	0	0	0	29228	27840	157518	26779	1072786	46500	110868	0	0	8065	574441	0	0
2024-08-17 03:25:47			0	37182	0	0	0	29231	27830	157406	27012	1072831	46499	110869	0	0	8067	573320	0	0
2024-08-17 03:26:47			0	37162	0	0	0	29238	27840	157442	26816	1072822	46500	110872	0	0	8065	574083	0	0
2024-08-17 03:27:47			0	37172	0	0	0	29220	27840	157466	26925	1072786	46500	110865	0	0	8066	573684	0	0
2024-08-17 03:28:47			0	37185	0	0	0	29215	27830	157334	27209	1072777	46499	110863	0	0	8067	573200	0	0
2024-08-17 03:29:47			0	37184	0	0	0	29223	27830	157338	27020	1072795	46486	110866	0	0	8067	573240	0	0
2024-08-17 03:30:47			0	37172	0	0	0	29218	27830	157454	27013	1072795	46486	110864	0	0	8066	573717	0	0
2024-08-17 03:31:47			0	37168	0	0	0	29231	27830	157434	26866	1072750	46509	110869	0	0	8066	573877	0	0
2024-08-17 03:32:47			0	37173	0	0	0	29244	27820	157394	27003	1072696	46508	110874	0	0	8066	573711	0	0
2024-08-17 03:33:47			0	37209	0	0	0	29228	27830	157314	26864	1072768	46498	110868	0	0	8068	572246	0	0
2024-08-17 03:34:47			0	37192	0	0	0	29220	27820	157330	26847	1072813	46498	110865	0	0	8067	572955	0	0
2024-08-17 03:35:47			0	37176	0	0	0	29225	27820	157354	27133	1072732	46486	110867	0	0	8066	573591	0	0
2024-08-17 03:36:47			0	37169	0	0	0	29223	27820	157462	26700	1072750	46486	110866	0	0	8066	573870	0	0
2024-08-17 03:37:47			0	37152	0	0	0	29210	27820	157402	26830	1072723	46508	110861	0	0	8065	574547	0	0
2024-08-17 03:38:47			0	37159	0	0	0	29212	27810	157594	26965	1072768	46497	110862	0	0	8065	574301	0	0
2024-08-17 03:39:47			0	37154	0	0	0	29205	27820	157638	27133	1072705	46498	110859	0	0	8065	574467	0	0
2024-08-17 03:40:47			0	37126	0	0	0	29212	27810	157694	27045	1072714	46497	110862	0	0	8064	575617	0	0
2024-08-17 03:41:47			0	37124	0	0	0	29220	27810	157602	27123	1072714	46507	110865	0	0	8063	575697	0	0
2024-08-17 03:42:47			0	37101	0	0	0	29215	27800	157722	27024	1072669	46506	110863	0	0	8062	576648	0	0
2024-08-17 03:43:47			0	37108	0	0	0	29223	27820	157726	27182	1072777	46498	110866	0	0	8062	576302	0	0
2024-08-17 03:44:47			0	37078	0	0	0	29236	27810	157798	27206	1072714	46497	110871	0	0	8060	577534	0	0
2024-08-17 03:45:47			0	37068	0	0	0	29225	27810	157706	26857	1072687	46485	110867	0	0	8060	577934	0	0
2024-08-17 03:46:47			0	37071	0	0	0	29218	27810	157834	26838	1072678	46473	110864	0	0	8060	577814	0	0
2024-08-17 03:47:47			0	37071	0	0	0	29233	27810	157834	27102	1072625	46496	110870	0	0	8060	577814	0	0
2024-08-17 03:48:47			0	37062	0	0	0	29241	27810	157894	26956	1072661	46497	110873	0	0	8059	578174	0	0
2024-08-17 03:49:47			0	37049	0	0	0	29244	27800	158070	26920	1072723	46496	110874	0	0	8058	578728	0	0
2024-08-17 03:50:47			0	37037	0	0	0	29238	27800	158022	27268	1072696	46506	110872	0	0	8058	579208	0	0
2024-08-17 03:51:47			0	37018	0	0	0	29246	27810	158126	27185	1072732	46506	110875	0	0	8057	579936	0	0
2024-08-17 03:52:47			0	36993	0	0	0	29246	27800	158186	26937	1072696	46496	110875	0	0	8055	580973	0	0
2024-08-17 03:53:47			0	36980	0	0	0	29251	27810	158222	27104	1072714	46497	110877	0	0	8054	581461	0	0
2024-08-17 03:54:47			0	36965	0	0	0	29244	27810	158370	26779	1072795	46507	110874	0	0	8054	582064	0	0
2024-08-17 03:55:47			0	36940	0	0	0	29236	27810	158410	27092	1072705	46496	110871	0	0	8052	583069	0	0
2024-08-17 03:56:47			0	36915	0	0	0	29210	27800	158462	27145	1072616	46496	110861	0	0	8051	584109	0	0
2024-08-17 03:57:47			0	36891	0	0	0	29220	27800	158602	26667	1072669	46496	110865	0	0	8050	585077	0	0
2024-08-17 03:58:47			0	36859	0	0	0	29223	27800	158746	27144	1072669	46506	110866	0	0	8048	586369	0	0
2024-08-17 03:59:47			0	36828	0	0	0	29207	27790	158890	26930	1072607	46496	110860	0	0	8046	587656	0	0
2024-08-17 04:00:47			0	36830	0	0	0	29207	27780	158970	26785	1072589	46482	110860	0	0	8046	587608	0	0
2024-08-17 04:01:47			0	36800	0	0	0	29205	27780	159118	26958	1072589	46471	110859	0	0	8044	588823	0	0
2024-08-17 04:02:47			0	36762	0	0	0	29207	27780	159190	27145	1072589	46482	110860	0	0	8042	590364	0	0
2024-08-17 04:03:47			0	36736	0	0	0	29199	27780	159366	26665	1072535	46482	110857	0	0	8041	591419	0	0
2024-08-17 04:04:47			0	36725	0	0	0	29202	27770	159334	26556	1072489	46493	110858	0	0	8040	591901	0	0
2024-08-17 04:05:47			0	36726	0	0	0	29197	27770	159390	26909	1072516	46481	110856	0	0	8040	591860	0	0
2024-08-17 04:06:47			0	36696	0	0	0	29202	27770	159558	26883	1072489	46493	110858	0	0	8038	593080	0	0
2024-08-17 04:07:47			0	36662	0	0	0	29199	27780	159598	26913	1072552	46514	110857	0	0	8036	594431	0	0
2024-08-17 04:08:47			0	36653	0	0	0	29205	27770	159534	26741	1072534	46503	110859	0	0	8036	594833	0	0
2024-08-17 04:09:47			0	36655	0	0	0	29194	27770	159654	27135	1072489	46493	110855	0	0	8036	594751	0	0
2024-08-17 04:10:47			0	36621	0	0	0	29189	27770	159726	27029	1072543	46493	110853	0	0	8034	596139	0	0
2024-08-17 04:11:47			0	36637	0	0	0	29173	27770	159830	26771	1072507	46493	110847	0	0	8035	595486	0	0
2024-08-17 04:12:47			0	36608	0	0	0	29168	27760	159866	26993	1072489	46479	110845	0	0	8033	596705	0	0
2024-08-17 04:13:47			0	36593	0	0	0	29163	27760	159862	26897	1072355	46479	110843	0	0	8033	597318	0	0
2024-08-17 04:14:47			0	36590	0	0	0	29142	27760	160066	26739	1072435	46491	110835	0	0	8033	597441	0	0
2024-08-17 04:15:47			0	36574	0	0	0	29124	27750	159961	26814	1072363	46501	110828	0	0	8032	598130	0	0
2024-08-17 04:16:47			0	36565	0	0	0	29124	27740	160001	27000	1072274	46490	110828	0	0	8032	598533	0	0
2024-08-17 04:17:47			0	36560	0	0	0	29106	27730	160045	26916	1072283	46500	110821	0	0	8032	598772	0	0
2024-08-17 04:18:47			0	36562	0	0	0	29101	27730	160105	27341	1072220	46489	110819	0	0	8032	598691	0	0
2024-08-17 04:19:47			0	36542	0	0	0	29085	27720	160129	26802	1072229	46475	110813	0	0	8031	599545	0	0
2024-08-17 04:20:47			0	36525	0	0	0	29085	27720	160137	26733	1072175	46475	110813	0	0	8030	600242	0	0
2024-08-17 04:21:47			0	36524	0	0	0	29067	27710	160161	26979	1072193	46475	110806	0	0	8030	600318	0	0
2024-08-17 04:22:47			0	36532	0	0	0	29067	27710	160173	26823	1072139	46487	110806	0	0	8030	599990	0	0
2024-08-17 04:23:47			0	36531	0	0	0	29064	27700	160217	26856	1072094	46463	110805	0	0	8030	600065	0	0
2024-08-17 04:24:47			0	36533	0	0	0	29067	27690	160197	26771	1072049	46484	110806	0	0	8030	600018	0	0
2024-08-17 04:25:47			0	36515	0	0	0	29062	27700	160157	26805	1072121	46486	110804	0	0	8029	600722	0	0
2024-08-17 04:26:47			0	36534	0	0	0	29057	27700	160229	27029	1072040	46486	110802	0	0	8031	599942	0	0
2024-08-17 04:27:47			0	36532	0	0	0	29067	27700	160369	26632	1072067	46486	110806	0	0	8030	600024	0	0
2024-08-17 04:28:47			0	36531	0	0	0	29057	27680	160181	26708	1071977	46484	110802	0	0	8030	600135	0	0
2024-08-17 04:29:47			0	36542	0	0	0	29059	27690	160185	27057	1072049	46484	110803	0	0	8031	599649	0	0
2024-08-17 04:30:47			0	36554	0	0	0	29054	27690	160305	27043	1072067	46495	110801	0	0	8032	599156	0	0
2024-08-17 04:31:47			0	36558	0	0	0	29054	27680	160285	26691	1071968	46471	110801	0	0	8032	599027	0	0
2024-08-17 04:32:47			0	36571	0	0	0	29057	27680	160269	26927	1072004	46484	110802	0	0	8033	598494	0	0
2024-08-17 04:33:47			0	36551	0	0	0	29054	27680	160265	26922	1071968	46494	110801	0	0	8032	599314	0	0
2024-08-17 04:34:47			0	36568	0	0	0	29057	27680	160273	26731	1071977	46472	110802	0	0	8033	598617	0	0
2024-08-17 04:35:47			0	36575	0	0	0	29051	27670	160221	26446	1071986	46493	110800	0	0	8033	598365	0	0
2024-08-17 04:36:47			0	36595	0	0	0	29062	27670	160194	26927	1072013	46493	110804	0	0	8034	597546	0	0
2024-08-17 04:37:47			0	36585	0	0	0	29054	27660	160093	26922	1071968	46470	110801	0	0	8034	597990	0	0
2024-08-17 04:38:47			0	36584	0	0	0	29057	27680	160073	26887	1072049	46483	110802	0	0	8034	597962	0	0
2024-08-17 04:39:47			0	36607	0	0	0	29062	27660	160146	26899	1071968	46482	110804	0	0	8035	597089	0	0
2024-08-17 04:40:47			0	36618	0	0	0	29046	27660	160170	26885	1071968	46470	110798	0	0	8036	596639	0	0
2024-08-17 04:41:47			0	36615	0	0	0	29059	27670	160202	26668	1071950	46493	110803	0	0	8035	596728	0	0
2024-08-17 04:42:47			0	36610	0	0	0	29054	27660	160086	26953	1071914	46482	110801	0	0	8035	596966	0	0
2024-08-17 04:43:47			0	36613	0	0	0	29057	27670	160142	26831	1071950	46482	110802	0	0	8035	596809	0	0
2024-08-17 04:44:47			0	36603	0	0	0	29059	27660	160058	26878	1071959	46481	110803	0	0	8035	597253	0	0
2024-08-17 04:45:47			0	36618	0	0	0	29062	27660	160094	26689	1071941	46482	110804	0	0	8035	596639	0	0
2024-08-17 04:46:47			0	36606	0	0	0	29059	27660	160058	26720	1071941	46470	110803	0	0	8035	597130	0	0
2024-08-17 04:47:47			0	36601	0	0	0	29057	27660	160066	26857	1071995	46493	110802	0	0	8034	597335	0	0
2024-08-17 04:48:47			0	36627	0	0	0	29057	27670	160122	26908	1071950	46470	110802	0	0	8036	596237	0	0
2024-08-17 04:49:47			0	36624	0	0	0	29054	27670	160098	26712	1071950	46493	110801	0	0	8036	596360	0	0
2024-08-17 04:50:47			0	36605	0	0	0	29059	27670	160154	26807	1071896	46482	110803	0	0	8035	597137	0	0
2024-08-17 04:51:47			0	36598	0	0	0	29051	27660	160254	26613	1071986	46481	110800	0	0	8034	597457	0	0
2024-08-17 04:52:47			0	36616	0	0	0	29059	27660	160154	26868	1071887	46482	110803	0	0	8035	596721	0	0
2024-08-17 04:53:47			0	36592	0	0	0	29046	27660	160177	27177	1071932	46481	110798	0	0	8034	597703	0	0
2024-08-17 04:54:47			0	36573	0	0	0	29044	27660	160189	26955	1071932	46502	110797	0	0	8033	598481	0	0
2024-08-17 04:55:47			0	36585	0	0	0	29044	27660	160241	26927	1071914	46482	110797	0	0	8034	597990	0	0
2024-08-17 04:56:47			0	36582	0	0	0	29036	27650	160241	26738	1071923	46491	110794	0	0	8034	598147	0	0
2024-08-17 04:57:47			0	36577	0	0	0	29041	27660	160261	26998	1071941	46470	110796	0	0	8033	598317	0	0
2024-08-17 04:58:47			0	36567	0	0	0	29044	27650	160293	26722	1071869	46501	110797	0	0	8033	598761	0	0
2024-08-17 04:59:47			0	36548	0	0	0	29036	27650	160265	26835	1071887	46480	110794	0	0	8032	599541	0	0
2024-08-17 05:00:47			0	36540	0	0	0	29038	27660	160337	26986	1071932	46481	110795	0	0	8031	599834	0	0
2024-08-17 05:01:47			0	36529	0	0	0	29044	27650	160329	27071	1071941	46480	110797	0	0	8030	600320	0	0
2024-08-17 05:02:47			0	36521	0	0	0	29046	27650	160349	26845	1071788	46480	110798	0	0	8030	600649	0	0
2024-08-17 05:03:47			0	36507	0	0	0	29033	27650	160557	26993	1071896	46468	110793	0	0	8029	601224	0	0
2024-08-17 05:04:47			0	36507	0	0	0	29041	27650	160489	26961	1071869	46480	110796	0	0	8029	601224	0	0
2024-08-17 05:05:47			0	36483	0	0	0	29038	27650	160629	27029	1071887	46480	110795	0	0	8028	602211	0	0
2024-08-17 05:06:47			0	36493	0	0	0	29031	27650	160585	26986	1071833	46480	110792	0	0	8028	601800	0	0
2024-08-17 05:07:47			0	36467	0	0	0	29028	27650	160621	26894	1071887	46480	110791	0	0	8027	602870	0	0
2024-08-17 05:08:47			0	36470	0	0	0	29031	27650	160757	26713	1071806	46480	110792	0	0	8027	602746	0	0
2024-08-17 05:09:47			0	36456	0	0	0	29028	27630	160773	27152	1071779	46478	110791	0	0	8026	603392	0	0
2024-08-17 05:10:47			0	36435	0	0	0	29028	27640	160821	26918	1071851	46479	110791	0	0	8025	604223	0	0
2024-08-17 05:11:47			0	36423	0	0	0	29025	27630	160961	26854	1071752	46478	110790	0	0	8024	604753	0	0
2024-08-17 05:12:47			0	36419	0	0	0	29025	27650	160917	26904	1071833	46480	110790	0	0	8024	604848	0	0
2024-08-17 05:13:47			0	36423	0	0	0	29033	27630	161021	26972	1071796	46489	110793	0	0	8024	604753	0	0
2024-08-17 05:14:47			0	36410	0	0	0	29038	27630	161001	26625	1071805	46478	110795	0	0	8023	605290	0	0
2024-08-17 05:15:47			0	36401	0	0	0	29038	27630	160997	26667	1071859	46478	110795	0	0	8023	605661	0	0
2024-08-17 05:16:47			0	36400	0	0	0	29033	27640	161001	27036	1071851	46479	110793	0	0	8023	605668	0	0
2024-08-17 05:17:47			0	36399	0	0	0	29041	27640	161009	26948	1071788	46479	110796	0	0	8023	605709	0	0
2024-08-17 05:18:47			0	36368	0	0	0	29028	27650	161165	26942	1071833	46480	110791	0	0	8021	606956	0	0
2024-08-17 05:19:47			0	36357	0	0	0	29028	27630	161221	26597	1071805	46466	110791	0	0	8020	607481	0	0
2024-08-17 05:20:47			0	36370	0	0	0	29031	27640	161265	27033	1071770	46479	110792	0	0	8021	606908	0	0
2024-08-17 05:21:47			0	36344	0	0	0	29023	27630	161225	26668	1071796	46489	110789	0	0	8020	608019	0	0
2024-08-17 05:22:47			0	36344	0	0	0	29023	27630	161249	26689	1071823	46456	110789	0	0	8020	608019	0	0
2024-08-17 05:23:47			0	36314	0	0	0	29025	27640	161377	27066	1071761	46467	110790	0	0	8018	609228	0	0
2024-08-17 05:24:47			0	36308	0	0	0	29023	27620	161373	27121	1071761	46477	110789	0	0	8017	609547	0	0
2024-08-17 05:25:47			0	36284	0	0	0	29025	27630	161533	27074	1071832	46478	110790	0	0	8016	610508	0	0
2024-08-17 05:26:47			0	36267	0	0	0	29033	27630	161505	26935	1071796	46478	110793	0	0	8015	611215	0	0
2024-08-17 05:27:47			0	36259	0	0	0	29023	27640	161521	26925	1071824	46479	110789	0	0	8015	611512	0	0
2024-08-17 05:28:47			0	36248	0	0	0	29025	27630	161569	26856	1071832	46478	110790	0	0	8014	612005	0	0
2024-08-17 05:29:47			0	36247	0	0	0	29033	27630	161685	26670	1071770	46478	110793	0	0	8014	612047	0	0
2024-08-17 05:30:47			0	36248	0	0	0	29025	27620	161717	26850	1071814	46477	110790	0	0	8014	612040	0	0
2024-08-17 05:31:47			0	36224	0	0	0	29020	27620	161769	27234	1071814	46477	110788	0	0	8012	613040	0	0
2024-08-17 05:32:47			0	36213	0	0	0	29012	27630	161797	26932	1071796	46466	110785	0	0	8012	613463	0	0
2024-08-17 05:33:47			0	36189	0	0	0	29018	27630	161777	27083	1071770	46478	110787	0	0	8010	614464	0	0
2024-08-17 05:34:47			0	36205	0	0	0	29015	27630	161865	26960	1071770	46478	110786	0	0	8011	613796	0	0
2024-08-17 05:35:47			0	36202	0	0	0	29015	27620	161853	26797	1071805	46477	110786	0	0	8011	613957	0	0
2024-08-17 05:36:47			0	36197	0	0	0	29015	27620	161937	27173	1071761	46499	110786	0	0	8011	614165	0	0
2024-08-17 05:37:47			0	36185	0	0	0	29012	27620	161957	27107	1071805	46477	110785	0	0	8010	614666	0	0
2024-08-17 05:38:47			0	36172	0	0	0	29018	27620	161909	26689	1071734	46465	110787	0	0	8009	615209	0	0
2024-08-17 05:39:47			0	36158	0	0	0	29023	27620	162017	26974	1071761	46488	110789	0	0	8008	615794	0	0
2024-08-17 05:40:47			0	36188	0	0	0	29015	27620	162089	27249	1071814	46455	110786	0	0	8010	614541	0	0
2024-08-17 05:41:47			0	36163	0	0	0	29010	27630	162001	27248	1071770	46489	110784	0	0	8009	615550	0	0
2024-08-17 05:42:47			0	36133	0	0	0	29018	27620	162097	26967	1071787	46488	110787	0	0	8007	616839	0	0
2024-08-17 05:43:47			0	36148	0	0	0	29018	27620	161965	26897	1071787	46488	110787	0	0	8008	616212	0	0
2024-08-17 05:44:47			0	36155	0	0	0	29012	27620	161997	26922	1071814	46477	110785	0	0	8008	615919	0	0
2024-08-17 05:45:47			0	36147	0	0	0	29020	27620	161993	26854	1071805	46477	110788	0	0	8008	616254	0	0
2024-08-17 05:46:47			0	36150	0	0	0	29023	27620	162069	26821	1071787	46477	110789	0	0	8008	616128	0	0
2024-08-17 05:47:47			0	36165	0	0	0	29028	27630	162085	27026	1071770	46478	110791	0	0	8009	615466	0	0
2024-08-17 05:48:47			0	36168	0	0	0	29025	27630	162097	26750	1071770	46478	110790	0	0	8009	615341	0	0
2024-08-17 05:49:47			0	36143	0	0	0	29015	27630	161973	26741	1071823	46478	110786	0	0	8008	616385	0	0
2024-08-17 05:50:47			0	36171	0	0	0	29010	27620	161997	27105	1071787	46477	110784	0	0	8009	615251	0	0
2024-08-17 05:51:47			0	36165	0	0	0	29018	27630	161997	26814	1071796	46466	110787	0	0	8009	615466	0	0
2024-08-17 05:52:47			0	36168	0	0	0	29020	27620	161981	26986	1071814	46488	110788	0	0	8009	615376	0	0
2024-08-17 05:53:47			0	36153	0	0	0	29023	27620	162013	27147	1071778	46477	110789	0	0	8008	616003	0	0
2024-08-17 05:54:47			0	36158	0	0	0	29018	27620	161953	26953	1071814	46477	110787	0	0	8008	615794	0	0
2024-08-17 05:55:47			0	36164	0	0	0	29015	27630	161989	27019	1071770	46478	110786	0	0	8009	615508	0	0
2024-08-17 05:56:47			0	36173	0	0	0	29015	27620	161921	27119	1071814	46488	110786	0	0	8009	615167	0	0
2024-08-17 05:57:47			0	36190	0	0	0	29020	27630	161777	26953	1071823	46478	110788	0	0	8010	614422	0	0
2024-08-17 05:58:47			0	36178	0	0	0	29031	27630	161821	26987	1071805	46478	110792	0	0	8009	614923	0	0
2024-08-17 05:59:47			0	36175	0	0	0	29028	27620	161821	26696	1071814	46465	110791	0	0	8009	615084	0	0
2024-08-17 06:00:47			0	36183	0	0	0	29025	27630	161817	26861	1071823	46466	110790	0	0	8010	614714	0	0
2024-08-17 06:01:47			0	36190	0	0	0	29028	27620	161725	26946	1071805	46488	110791	0	0	8010	614457	0	0
2024-08-17 06:02:47			0	36193	0	0	0	29015	27620	161725	26844	1071751	46465	110786	0	0	8011	614332	0	0
2024-08-17 06:03:47			0	36223	0	0	0	29015	27620	161733	26837	1071734	46465	110786	0	0	8012	613081	0	0
2024-08-17 06:04:47			0	36207	0	0	0	29012	27620	161713	27036	1071805	46465	110785	0	0	8011	613748	0	0
2024-08-17 06:05:47			0	36224	0	0	0	29005	27630	161617	26791	1071770	46478	110782	0	0	8013	613004	0	0
2024-08-17 06:06:47			0	36213	0	0	0	29002	27620	161693	26682	1071761	46465	110781	0	0	8012	613498	0	0
2024-08-17 06:07:47			0	36220	0	0	0	28989	27620	161633	26779	1071671	46455	110776	0	0	8013	613206	0	0
2024-08-17 06:08:47			0	36237	0	0	0	28992	27610	161637	26863	1071635	46476	110777	0	0	8014	612533	0	0
2024-08-17 06:09:47			0	36229	0	0	0	28992	27610	161605	27026	1071653	46475	110777	0	0	8013	612867	0	0
2024-08-17 06:10:47			0	36242	0	0	0	28986	27610	161513	26937	1071653	46475	110775	0	0	8014	612325	0	0
2024-08-17 06:11:47			0	36225	0	0	0	28999	27610	161653	26918	1071743	46464	110780	0	0	8013	613033	0	0
2024-08-17 06:12:47			0	36233	0	0	0	28997	27610	161581	27256	1071707	46463	110779	0	0	8013	612700	0	0
2024-08-17 06:13:47			0	36228	0	0	0	29002	27610	161549	26793	1071733	46475	110781	0	0	8013	612908	0	0
2024-08-17 06:14:47			0	36243	0	0	0	28999	27610	161521	26781	1071743	46476	110780	0	0	8014	612284	0	0
2024-08-17 06:15:47			0	36241	0	0	0	28997	27600	161609	26930	1071644	46486	110779	0	0	8014	612402	0	0
2024-08-17 06:16:47			0	36224	0	0	0	28994	27610	161605	27007	1071743	46476	110778	0	0	8013	613075	0	0
2024-08-17 06:17:47			0	36247	0	0	0	28981	27600	161537	26726	1071608	46475	110773	0	0	8014	612152	0	0
2024-08-17 06:18:47			0	36257	0	0	0	28981	27590	161553	26935	1071599	46462	110773	0	0	8015	611772	0	0
2024-08-17 06:19:47			0	36250	0	0	0	28966	27600	161601	26922	1071608	46463	110767	0	0	8015	612028	0	0
2024-08-17 06:20:47			0	36253	0	0	0	28961	27600	161573	26764	1071581	46475	110765	0	0	8015	611903	0	0
2024-08-17 06:21:47			0	36223	0	0	0	28958	27590	161641	27081	1071572	46452	110764	0	0	8013	613187	0	0
2024-08-17 06:22:47			0	36222	0	0	0	28953	27580	161685	27074	1071500	46484	110762	0	0	8013	613264	0	0
2024-08-17 06:23:47			0	36225	0	0	0	28935	27580	161669	27059	1071500	46451	110755	0	0	8014	613139	0	0
2024-08-17 06:24:47			0	36225	0	0	0	28935	27570	161613	27100	1071455	46450	110755	0	0	8014	613175	0	0
2024-08-17 06:25:47			0	36216	0	0	0	28940	27560	161713	26882	1071410	46471	110757	0	0	8013	613585	0	0
2024-08-17 06:26:47			0	36210	0	0	0	28929	27580	161701	26894	1071410	46460	110753	0	0	8013	613764	0	0
2024-08-17 06:27:47			0	36199	0	0	0	28935	27560	161617	27015	1071464	46471	110755	0	0	8012	614294	0	0
2024-08-17 06:28:47			0	36209	0	0	0	28932	27570	161585	26800	1071401	46450	110754	0	0	8013	613842	0	0
2024-08-17 06:29:47			0	36208	0	0	0	28924	27560	161641	26727	1071401	46458	110751	0	0	8013	613918	0	0
2024-08-17 06:30:47			0	36197	0	0	0	28927	27550	161713	27019	1071365	46458	110752	0	0	8012	614413	0	0
2024-08-17 06:31:47			0	36203	0	0	0	28916	27570	161725	26876	1071392	46459	110748	0	0	8013	614092	0	0
2024-08-17 06:32:47			0	36208	0	0	0	28919	27550	161785	26963	1071338	46458	110749	0	0	8013	613954	0	0
2024-08-17 06:33:47			0	36185	0	0	0	28914	27550	161745	27090	1071329	46458	110747	0	0	8011	614914	0	0
2024-08-17 06:34:47			0	36187	0	0	0	28916	27550	161793	27055	1071365	46458	110748	0	0	8012	614830	0	0
2024-08-17 06:35:47			0	36148	0	0	0	28903	27550	161793	27062	1071329	46458	110743	0	0	8009	616460	0	0
2024-08-17 06:36:47			0	36156	0	0	0	28909	27540	161901	27140	1071284	46457	110745	0	0	8010	616161	0	0
2024-08-17 06:37:47			0	36138	0	0	0	28911	27550	161921	27052	1071275	46458	110746	0	0	8009	616878	0	0
2024-08-17 06:38:47			0	36125	0	0	0	28903	27540	162161	27130	1071204	46457	110743	0	0	8008	617458	0	0
2024-08-17 06:39:47			0	36087	0	0	0	28916	27540	162281	27381	1071240	46469	110748	0	0	8005	619051	0	0
2024-08-17 06:40:47			0	36072	0	0	0	28929	27530	162357	27152	1071248	46446	110753	0	0	8004	619716	0	0
2024-08-17 06:41:47			0	36047	0	0	0	28932	27550	162453	27100	1071356	46480	110754	0	0	8003	620695	0	0
2024-08-17 06:42:47			0	36037	0	0	0	28940	27540	162553	27168	1071347	46458	110757	0	0	8002	621152	0	0
2024-08-17 06:43:47			0	36005	0	0	0	28942	27540	162625	27026	1071338	46479	110758	0	0	8000	622498	0	0
2024-08-17 06:44:47			0	35968	0	0	0	28940	27540	162769	27033	1071374	46469	110757	0	0	7998	624058	0	0
2024-08-17 06:45:47			0	35922	0	0	0	28953	27540	162921	27192	1071365	46479	110762	0	0	7995	626001	0	0
2024-08-17 06:46:47			0	35890	0	0	0	28940	27550	163225	27005	1071383	46469	110757	0	0	7993	627320	0	0
2024-08-17 06:47:47			0	35851	0	0	0	28922	27540	163392	26783	1071374	46469	110750	0	0	7991	629009	0	0
2024-08-17 06:48:47			0	35819	0	0	0	28929	27550	163420	26968	1071356	46469	110753	0	0	7989	630332	0	0
2024-08-17 06:49:47			0	35789	0	0	0	28929	27550	163480	27109	1071302	46469	110753	0	0	7987	631608	0	0
2024-08-17 06:50:47			0	35778	0	0	0	28932	27550	163564	27235	1071365	46481	110754	0	0	7987	632076	0	0
2024-08-17 06:51:47			0	35768	0	0	0	28937	27540	163692	27325	1071374	46458	110756	0	0	7986	632538	0	0
2024-08-17 06:52:47			0	35772	0	0	0	28935	27540	163756	27182	1071320	46469	110755	0	0	7986	632368	0	0
2024-08-17 06:53:47			0	35761	0	0	0	28940	27540	163748	27291	1071365	46468	110757	0	0	7985	632837	0	0
2024-08-17 06:54:47			0	35766	0	0	0	28942	27540	163752	27301	1071284	46479	110758	0	0	7986	632624	0	0
2024-08-17 06:55:47			0	35765	0	0	0	28927	27550	163744	26956	1071302	46458	110752	0	0	7986	632630	0	0
2024-08-17 06:56:47			0	35771	0	0	0	28927	27540	163720	27013	1071240	46469	110752	0	0	7986	632411	0	0
2024-08-17 06:57:47			0	35769	0	0	0	28924	27540	163764	27086	1071240	46458	110751	0	0	7986	632496	0	0
2024-08-17 06:58:47			0	35779	0	0	0	28922	27540	163740	27050	1071338	46479	110750	0	0	7987	632070	0	0
2024-08-17 06:59:47			0	35769	0	0	0	28911	27540	163780	27244	1071257	46446	110746	0	0	7986	632496	0	0
2024-08-17 07:00:47			0	35759	0	0	0	28935	27540	163816	27060	1071365	46457	110755	0	0	7985	632922	0	0
2024-08-17 07:01:47			0	35736	0	0	0	28932	27540	163840	26977	1071338	46457	110754	0	0	7984	633903	0	0
2024-08-17 07:02:47			0	35740	0	0	0	28916	27540	163888	27187	1071311	46468	110748	0	0	7984	633732	0	0
2024-08-17 07:03:47			0	35726	0	0	0	28919	27540	164004	26864	1071213	46469	110749	0	0	7984	634330	0	0
2024-08-17 07:04:47			0	35705	0	0	0	28906	27530	163960	27053	1071239	46456	110744	0	0	7982	635263	0	0
2024-08-17 07:05:47			0	35693	0	0	0	28903	27540	164216	27164	1071177	46468	110743	0	0	7982	635740	0	0
2024-08-17 07:06:47			0	35655	0	0	0	28906	27530	164284	26915	1071212	46467	110744	0	0	7979	637403	0	0
2024-08-17 07:07:47			0	35583	0	0	0	28901	27520	164628	26922	1071176	46466	110742	0	0	7975	640530	0	0
2024-08-17 07:08:47			0	35499	0	0	0	28909	27530	164944	26902	1071158	46467	110745	0	0	7970	644112	0	0
2024-08-17 07:09:47			0	35471	0	0	0	28927	27530	165140	27076	1071212	46456	110752	0	0	7968	645321	0	0
2024-08-17 07:10:47			0	35438	0	0	0	28935	27530	165336	27055	1071266	46456	110755	0	0	7966	646749	0	0
2024-08-17 07:11:47			0	35418	0	0	0	28919	27510	165380	27081	1071194	46466	110749	0	0	7964	647690	0	0
2024-08-17 07:12:47			0	35406	0	0	0	28909	27510	165540	26934	1071185	46454	110745	0	0	7964	648210	0	0
2024-08-17 07:13:47			0	35388	0	0	0	28929	27520	165648	27204	1071230	46455	110753	0	0	7962	648954	0	0
2024-08-17 07:14:47			0	35375	0	0	0	28950	27510	165680	27185	1071248	46477	110761	0	0	7961	649556	0	0
2024-08-17 07:15:47			0	35366	0	0	0	28953	27530	165768	27053	1071293	46456	110762	0	0	7961	649872	0	0
2024-08-17 07:16:47			0	35367	0	0	0	28958	27510	165708	26974	1071275	46466	110764	0	0	7961	649903	0	0
2024-08-17 07:17:47			0	35346	0	0	0	28953	27530	165784	26880	1071266	46456	110762	0	0	7959	650742	0	0
2024-08-17 07:18:47			0	35346	0	0	0	28948	27530	165736	26996	1071275	46457	110760	0	0	7960	650742	0	0
2024-08-17 07:19:47			0	35346	0	0	0	28942	27530	165768	26906	1071293	46467	110758	0	0	7960	650742	0	0
2024-08-17 07:20:47			0	35326	0	0	0	28929	27530	165832	27081	1071275	46457	110753	0	0	7959	651612	0	0
2024-08-17 07:21:47			0	35317	0	0	0	28929	27540	165904	26663	1071284	46479	110753	0	0	7958	651966	0	0
2024-08-17 07:22:47			0	35310	0	0	0	28929	27530	165944	26965	1071248	46457	110753	0	0	7958	652309	0	0
2024-08-17 07:23:47			0	35286	0	0	0	28932	27530	165820	26927	1071275	46468	110754	0	0	7956	653355	0	0
2024-08-17 07:24:47			0	35270	0	0	0	28937	27540	166096	26658	1071284	46479	110756	0	0	7955	654016	0	0
2024-08-17 07:25:47			0	35256	0	0	0	28942	27530	166080	26958	1071329	46457	110758	0	0	7954	654665	0	0
2024-08-17 07:26:47			0	35250	0	0	0	28940	27530	166036	27067	1071329	46468	110757	0	0	7954	654927	0	0
2024-08-17 07:27:47			0	35259	0	0	0	28955	27540	166272	26791	1071365	46479	110763	0	0	7954	654496	0	0
2024-08-17 07:28:47			0	35251	0	0	0	28940	27530	166128	26696	1071329	46457	110757	0	0	7954	654883	0	0
2024-08-17 07:29:47			0	35232	0	0	0	28948	27540	166096	26809	1071401	46469	110760	0	0	7953	655676	0	0
2024-08-17 07:30:47			0	35234	0	0	0	28963	27540	166292	26948	1071347	46480	110766	0	0	7952	655589	0	0
2024-08-17 07:31:47			0	35236	0	0	0	28950	27550	166132	26894	1071464	46458	110761	0	0	7953	655464	0	0
2024-08-17 07:32:47			0	35232	0	0	0	28950	27540	166304	26880	1071428	46469	110761	0	0	7953	655676	0	0
2024-08-17 07:33:47			0	35220	0	0	0	28942	27540	166308	26939	1071374	46480	110758	0	0	7952	656201	0	0
2024-08-17 07:34:47			0	35158	0	0	0	28916	27530	166416	26736	1071356	46468	110748	0	0	7948	658957	0	0
2024-08-17 07:35:47			0	35147	0	0	0	28909	27530	166644	26814	1071302	46457	110745	0	0	7948	659440	0	0
2024-08-17 07:36:47			0	35154	0	0	0	28924	27530	166520	26876	1071248	46457	110751	0	0	7948	659132	0	0
2024-08-17 07:37:47			0	35158	0	0	0	28916	27530	166576	27202	1071239	46456	110748	0	0	7948	658957	0	0
2024-08-17 07:38:47			0	35164	0	0	0	28906	27530	166568	26866	1071167	46479	110744	0	0	7949	658693	0	0
2024-08-17 07:39:47			0	35181	0	0	0	28914	27530	166508	26793	1071221	46457	110747	0	0	7950	657948	0	0
2024-08-17 07:40:47			0	35204	0	0	0	28909	27530	166424	26828	1071212	46467	110745	0	0	7951	656940	0	0
2024-08-17 07:41:47			0	35219	0	0	0	28922	27530	166272	27059	1071329	46457	110750	0	0	7952	656283	0	0
2024-08-17 07:42:47			0	35224	0	0	0	28937	27520	166260	27085	1071203	46477	110756	0	0	7952	656102	0	0
2024-08-17 07:43:47			0	35240	0	0	0	28932	27530	166176	27048	1071293	46467	110754	0	0	7953	655364	0	0
2024-08-17 07:44:47			0	35254	0	0	0	28945	27530	166068	26771	1071248	46457	110759	0	0	7954	654752	0	0
2024-08-17 07:45:47			0	35269	0	0	0	28937	27530	166052	26634	1071320	46467	110756	0	0	7955	654097	0	0
2024-08-17 07:46:47			0	35277	0	0	0	28932	27530	165984	26750	1071221	46468	110754	0	0	7956	653748	0	0
2024-08-17 07:47:47			0	35289	0	0	0	28942	27530	165936	27052	1071212	46456	110758	0	0	7956	653224	0	0
2024-08-17 07:48:47			0	35300	0	0	0	28945	27530	165940	26687	1071293	46467	110759	0	0	7957	652745	0	0
2024-08-17 07:49:47			0	35301	0	0	0	28909	27520	165964	26873	1071257	46444	110745	0	0	7957	652739	0	0
2024-08-17 07:50:47			0	35285	0	0	0	28896	27540	165940	27020	1071230	46468	110740	0	0	7957	653361	0	0
2024-08-17 07:51:47			0	35310	0	0	0	28919	27520	165948	26795	1071257	46466	110749	0	0	7958	652346	0	0
2024-08-17 07:52:47			0	35300	0	0	0	28924	27540	165872	26949	1071311	46468	110751	0	0	7957	652707	0	0
2024-08-17 07:53:47			0	35292	0	0	0	28909	27520	165960	26658	1071203	46477	110745	0	0	7957	653131	0	0
2024-08-17 07:54:47			0	35305	0	0	0	28903	27530	165948	27071	1071212	46478	110743	0	0	7958	652527	0	0
2024-08-17 07:55:47			0	35300	0	0	0	28901	27520	165796	27041	1071203	46477	110742	0	0	7957	652782	0	0
2024-08-17 07:56:47			0	35307	0	0	0	28870	27530	165852	27123	1071158	46445	110730	0	0	7958	652440	0	0
2024-08-17 07:57:47			0	35307	0	0	0	28872	27520	165928	27111	1071176	46455	110731	0	0	7958	652477	0	0
2024-08-17 07:58:47			0	35310	0	0	0	28857	27500	165860	26993	1071149	46454	110725	0	0	7959	652421	0	0
2024-08-17 07:59:47			0	35302	0	0	0	28854	27510	165888	26736	1071104	46454	110724	0	0	7958	652733	0	0
2024-08-17 08:00:47			0	35313	0	0	0	28846	27500	165860	27027	1071059	46442	110721	0	0	7959	652291	0	0
2024-08-17 08:01:47			0	35312	0	0	0	28841	27490	165884	27097	1070997	46442	110719	0	0	7959	652372	0	0
2024-08-17 08:02:47			0	35302	0	0	0	28841	27490	165812	27196	1071024	46453	110719	0	0	7958	652808	0	0
2024-08-17 08:03:47			0	35303	0	0	0	28851	27490	165932	26887	1070997	46464	110723	0	0	7958	652764	0	0
2024-08-17 08:04:47			0	35312	0	0	0	28857	27480	165932	26944	1071005	46452	110725	0	0	7959	652409	0	0
2024-08-17 08:05:47			0	35327	0	0	0	28846	27480	165820	27034	1070970	46451	110721	0	0	7960	651756	0	0
2024-08-17 08:06:47			0	35313	0	0	0	28825	27480	165916	27107	1070970	46451	110713	0	0	7959	652366	0	0
2024-08-17 08:07:47			0	35303	0	0	0	28833	27470	165908	27246	1070898	46450	110716	0	0	7959	652839	0	0
2024-08-17 08:08:47			0	35309	0	0	0	28833	27470	165916	27140	1070925	46461	110716	0	0	7959	652578	0	0
2024-08-17 08:09:47			0	35305	0	0	0	28849	27470	165912	27112	1071005	46472	110722	0	0	7958	652752	0	0
2024-08-17 08:10:47			0	35299	0	0	0	28862	27470	165908	26984	1071041	46462	110727	0	0	7958	653014	0	0
2024-08-17 08:11:47			0	35227	0	0	0	28870	27470	166188	26925	1071005	46450	110730	0	0	7953	656159	0	0
2024-08-17 08:12:47			0	35154	0	0	0	28862	27480	166528	26859	1071050	46451	110727	0	0	7949	659322	0	0
2024-08-17 08:13:47			0	35092	0	0	0	28851	27480	166955	26866	1071005	46485	110723	0	0	7945	662050	0	0
2024-08-17 08:14:47			0	35074	0	0	0	28844	27470	167127	27138	1070961	46451	110720	0	0	7944	662881	0	0
2024-08-17 08:15:47			0	35047	0	0	0	28846	27470	167191	27261	1070952	46439	110721	0	0	7942	664072	0	0
2024-08-17 08:16:47			0	35009	0	0	0	28846	27470	167263	26885	1070961	46451	110721	0	0	7940	665752	0	0
2024-08-17 08:17:47			0	35024	0	0	0	28851	27460	167375	27005	1070934	46460	110723	0	0	7941	665127	0	0
2024-08-17 08:18:47			0	35009	0	0	0	28849	27460	167391	27045	1070907	46449	110722	0	0	7940	665790	0	0
2024-08-17 08:19:47			0	35014	0	0	0	28851	27460	167403	26734	1070969	46449	110723	0	0	7940	665569	0	0
2024-08-17 08:20:47			0	34994	0	0	0	28862	27470	167363	27008	1070987	46473	110727	0	0	7939	666416	0	0
2024-08-17 08:21:47			0	35000	0	0	0	28857	27460	167487	26814	1070996	46460	110725	0	0	7939	666189	0	0
2024-08-17 08:22:47			0	34953	0	0	0	28851	27470	167699	26592	1070952	46450	110723	0	0	7936	668233	0	0
2024-08-17 08:23:47			0	34941	0	0	0	28857	27470	167739	26805	1070925	46450	110725	0	0	7935	668766	0	0
2024-08-17 08:24:47			0	34918	0	0	0	28859	27460	167755	27107	1070969	46449	110726	0	0	7934	669826	0	0
2024-08-17 08:25:47			0	34901	0	0	0	28859	27460	167783	26830	1070960	46460	110726	0	0	7933	670582	0	0
2024-08-17 08:26:47			0	34912	0	0	0	28862	27460	167767	26694	1070996	46471	110727	0	0	7933	670093	0	0
2024-08-17 08:27:47			0	34906	0	0	0	28864	27470	167815	26772	1071005	46461	110728	0	0	7933	670321	0	0
2024-08-17 08:28:47			0	34890	0	0	0	28870	27480	167811	26807	1070996	46462	110730	0	0	7932	670994	0	0
2024-08-17 08:29:47			0	34914	0	0	0	28875	27470	167995	26925	1071059	46461	110732	0	0	7933	669965	0	0
2024-08-17 08:30:47			0	34926	0	0	0	28875	27460	167863	27001	1070996	46449	110732	0	0	7934	669470	0	0
2024-08-17 08:31:47			0	34936	0	0	0	28877	27480	167783	26646	1071050	46473	110733	0	0	7935	668949	0	0
2024-08-17 08:32:47			0	34965	0	0	0	28883	27470	167547	26951	1071095	46462	110735	0	0	7937	667701	0	0
2024-08-17 08:33:47			0	34992	0	0	0	28888	27480	167427	26961	1071050	46451	110737	0	0	7938	666466	0	0
2024-08-17 08:34:47			0	35037	0	0	0	28890	27480	167435	27043	1071086	46474	110738	0	0	7941	664476	0	0
2024-08-17 08:35:47			0	35076	0	0	0	28888	27480	167159	26863	1071059	46452	110737	0	0	7943	662755	0	0
2024-08-17 08:36:47			0	35124	0	0	0	28875	27490	167064	27046	1071068	46452	110732	0	0	7947	660603	0	0
2024-08-17 08:37:47			0	35132	0	0	0	28870	27480	166948	26890	1071059	46463	110730	0	0	7947	660289	0	0
2024-08-17 08:38:47			0	35162	0	0	0	28864	27490	166648	26989	1071095	46452	110728	0	0	7949	658933	0	0
2024-08-17 08:39:47			0	35179	0	0	0	28867	27480	166624	27093	1071086	46441	110729	0	0	7950	658225	0	0
2024-08-17 08:40:47			0	35212	0	0	0	28872	27480	166540	27121	1071032	46452	110731	0	0	7952	656778	0	0
2024-08-17 08:41:47			0	35207	0	0	0	28867	27490	166348	26800	1071095	46463	110729	0	0	7952	656959	0	0
2024-08-17 08:42:47			0	35226	0	0	0	28872	27480	166372	26955	1071023	46462	110731	0	0	7953	656165	0	0
2024-08-17 08:43:47			0	35220	0	0	0	28870	27480	166212	26989	1071059	46463	110730	0	0	7953	656428	0	0
2024-08-17 08:44:47			0	35248	0	0	0	28880	27480	166312	27012	1071086	46463	110734	0	0	7954	655203	0	0
2024-08-17 08:45:47			0	35256	0	0	0	28890	27490	166284	27166	1071095	46441	110738	0	0	7955	654816	0	0
2024-08-17 08:46:47			0	35253	0	0	0	28893	27480	166320	27157	1071167	46474	110739	0	0	7954	654984	0	0
2024-08-17 08:47:47			0	35262	0	0	0	28901	27500	166240	26925	1071140	46464	110742	0	0	7955	654516	0	0
2024-08-17 08:48:47			0	35259	0	0	0	28916	27500	166196	27274	1071194	46475	110748	0	0	7955	654647	0	0
2024-08-17 08:49:47			0	35261	0	0	0	28914	27500	166148	27222	1071167	46475	110747	0	0	7955	654559	0	0
2024-08-17 08:50:47			0	35288	0	0	0	28903	27490	166116	26859	1071212	46453	110743	0	0	7957	653418	0	0
2024-08-17 08:51:47			0	35297	0	0	0	28909	27490	166036	26670	1071158	46475	110745	0	0	7957	653026	0	0
2024-08-17 08:52:47			0	35326	0	0	0	28922	27490	165956	27036	1071293	46464	110750	0	0	7959	651762	0	0
2024-08-17 08:53:47			0	35343	0	0	0	28919	27500	165876	27062	1071284	46476	110749	0	0	7960	650985	0	0
2024-08-17 08:54:47			0	35362	0	0	0	28927	27510	165820	26935	1071320	46465	110752	0	0	7961	650121	0	0
2024-08-17 08:55:47			0	35374	0	0	0	28945	27530	165692	27150	1071374	46467	110759	0	0	7961	649525	0	0
2024-08-17 08:56:47			0	35382	0	0	0	28870	27510	165756	26819	1071194	46466	110730	0	0	7963	649252	0	0
2024-08-17 08:57:47			0	35395	0	0	0	28812	27500	165528	26897	1071086	46442	110708	0	0	7965	648725	0	0
2024-08-17 08:58:47			0	35405	0	0	0	28836	27500	165420	26845	1071042	46443	110717	0	0	7965	648291	0	0
2024-08-17 08:59:47			0	35470	0	0	0	28851	27490	165156	26939	1071077	46442	110723	0	0	7969	645513	0	0
2024-08-17 09:00:47			0	35509	0	0	0	28883	27490	165044	26727	1071131	46453	110735	0	0	7971	643828	0	0
2024-08-17 09:01:47			0	35527	0	0	0	28911	27510	165004	27277	1071185	46443	110746	0	0	7971	642978	0	0
2024-08-17 09:02:47			0	35553	0	0	0	28914	27500	165008	27043	1071194	46464	110747	0	0	7973	641894	0	0
2024-08-17 09:03:47			0	35655	0	0	0	28922	27500	164448	27076	1071230	46465	110750	0	0	7979	637513	0	0
2024-08-17 09:04:47			0	35775	0	0	0	28922	27510	163852	26890	1071212	46476	110750	0	0	7986	632349	0	0
2024-08-17 09:05:47			0	35876	0	0	0	28914	27500	163453	27341	1071230	46454	110747	0	0	7993	628094	0	0
2024-08-17 09:06:47			0	35925	0	0	0	28903	27510	163149	27215	1071212	46465	110743	0	0	7996	625983	0	0
2024-08-17 09:07:47			0	35974	0	0	0	28903	27500	163025	27064	1071176	46443	110743	0	0	7999	623949	0	0
2024-08-17 09:08:47			0	35994	0	0	0	28901	27510	162833	26663	1071185	46465	110742	0	0	8000	623069	0	0
2024-08-17 09:09:47			0	36002	0	0	0	28896	27510	162801	26646	1071212	46465	110740	0	0	8001	622732	0	0
2024-08-17 09:10:47			0	36034	0	0	0	28901	27500	162701	26987	1071203	46465	110742	0	0	8002	621421	0	0
2024-08-17 09:11:47			0	36044	0	0	0	28898	27510	162633	26876	1071212	46454	110741	0	0	8003	620964	0	0
2024-08-17 09:12:47			0	36039	0	0	0	28911	27510	162685	26975	1071221	46455	110746	0	0	8003	621175	0	0
2024-08-17 09:13:47			0	36062	0	0	0	28909	27500	162645	27081	1071176	46454	110745	0	0	8004	620243	0	0
2024-08-17 09:14:47			0	36062	0	0	0	28919	27510	162569	26616	1071347	46454	110749	0	0	8004	620208	0	0
2024-08-17 09:15:47			0	36063	0	0	0	28922	27510	162661	26785	1071266	46476	110750	0	0	8004	620166	0	0
2024-08-17 09:16:47			0	36038	0	0	0	28906	27510	162625	26970	1071185	46465	110744	0	0	8003	621217	0	0
2024-08-17 09:17:47			0	36068	0	0	0	28903	27510	162625	27128	1071302	46466	110743	0	0	8004	619956	0	0
2024-08-17 09:18:47			0	36062	0	0	0	28870	27520	162561	27353	1071230	46455	110730	0	0	8005	620172	0	0
2024-08-17 09:19:47			0	36070	0	0	0	28779	27500	162545	27249	1070988	46432	110695	0	0	8007	619907	0	0
2024-08-17 09:20:47			0	36087	0	0	0	28831	27490	162489	26802	1070961	46452	110715	0	0	8007	619229	0	0
2024-08-17 09:21:47			0	36078	0	0	0	28838	27480	162545	27041	1071023	46451	110718	0	0	8006	619643	0	0
2024-08-17 09:22:47			0	36070	0	0	0	28883	27480	162549	27074	1071113	46463	110735	0	0	8005	619979	0	0
2024-08-17 09:23:47			0	36080	0	0	0	28903	27490	162473	26883	1071158	46453	110743	0	0	8005	619523	0	0
2024-08-17 09:24:47			0	36079	0	0	0	28932	27490	162489	26857	1071293	46464	110754	0	0	8004	619565	0	0
2024-08-17 09:25:47			0	36084	0	0	0	28948	27510	162497	26911	1071239	46465	110760	0	0	8005	619284	0	0
2024-08-17 09:26:47			0	36065	0	0	0	28966	27510	162577	26930	1071356	46477	110767	0	0	8003	620082	0	0
2024-08-17 09:27:47			0	36066	0	0	0	28971	27530	162601	26765	1071490	46468	110769	0	0	8003	619968	0	0
2024-08-17 09:28:47			0	36068	0	0	0	28973	27540	162529	27026	1071482	46469	110770	0	0	8003	619849	0	0
2024-08-17 09:29:47			0	36070	0	0	0	28963	27530	162625	27199	1071463	46479	110766	0	0	8004	619800	0	0
2024-08-17 09:30:47			0	36078	0	0	0	28958	27540	162597	27031	1071455	46469	110764	0	0	8004	619429	0	0
2024-08-17 09:31:47			0	36082	0	0	0	28966	27550	162477	26833	1071491	46469	110767	0	0	8004	619225	0	0
2024-08-17 09:32:47			0	36085	0	0	0	28961	27550	162453	27060	1071491	46469	110765	0	0	8005	619100	0	0
2024-08-17 09:33:47			0	36127	0	0	0	28963	27540	162349	27248	1071455	46469	110766	0	0	8007	617375	0	0
2024-08-17 09:34:47			0	36154	0	0	0	28968	27550	162209	27053	1071527	46458	110768	0	0	8009	616209	0	0
2024-08-17 09:35:47			0	36164	0	0	0	28971	27550	162133	27135	1071527	46470	110769	0	0	8009	615791	0	0
2024-08-17 09:36:47			0	36178	0	0	0	28979	27550	162033	27036	1071527	46470	110772	0	0	8010	615206	0	0
2024-08-17 09:37:47			0	36181	0	0	0	28984	27550	162049	27197	1071554	46492	110774	0	0	8010	615081	0	0
2024-08-17 09:38:47			0	36193	0	0	0	28992	27560	161981	26989	1071590	46470	110777	0	0	8011	614544	0	0
2024-08-17 09:39:47			0	36216	0	0	0	28992	27580	161961	26762	1071652	46483	110777	0	0	8012	613514	0	0
2024-08-17 09:40:47			0	36233	0	0	0	28994	27570	161845	27019	1071581	46482	110778	0	0	8013	612841	0	0
2024-08-17 09:41:47			0	36223	0	0	0	28992	27580	161793	26935	1071599	46483	110777	0	0	8013	613223	0	0
2024-08-17 09:42:47			0	36221	0	0	0	29002	27580	161773	27171	1071652	46483	110781	0	0	8012	613306	0	0
2024-08-17 09:43:47			0	36226	0	0	0	29002	27590	161837	26871	1071778	46473	110781	0	0	8013	613062	0	0
2024-08-17 09:44:47			0	36227	0	0	0	29015	27590	161789	26861	1071751	46484	110786	0	0	8012	613020	0	0
2024-08-17 09:45:47			0	36215	0	0	0	29023	27590	161753	27062	1071814	46485	110789	0	0	8012	613521	0	0
2024-08-17 09:46:47			0	36221	0	0	0	29023	27590	161841	27180	1071841	46485	110789	0	0	8012	613271	0	0
2024-08-17 09:47:47			0	36215	0	0	0	29033	27600	161861	27298	1071823	46486	110793	0	0	8012	613485	0	0
2024-08-17 09:48:47			0	36201	0	0	0	29041	27600	161861	27057	1071913	46475	110796	0	0	8011	614069	0	0
2024-08-17 09:49:47			0	36192	0	0	0	29036	27610	161989	27069	1071850	46487	110794	0	0	8010	614409	0	0
2024-08-17 09:50:47			0	36196	0	0	0	29038	27620	161921	27109	1071859	46488	110795	0	0	8010	614207	0	0
2024-08-17 09:51:47			0	36209	0	0	0	29031	27620	161949	26974	1071940	46477	110792	0	0	8011	613665	0	0
2024-08-17 09:52:47			0	36192	0	0	0	29036	27620	161833	27005	1071859	46477	110794	0	0	8010	614374	0	0
2024-08-17 09:53:47			0	36207	0	0	0	29046	27620	161889	27126	1071922	46477	110798	0	0	8011	613748	0	0
2024-08-17 09:54:47			0	36216	0	0	0	29064	27620	161897	27152	1071976	46488	110805	0	0	8011	613373	0	0
2024-08-17 09:55:47			0	36207	0	0	0	29067	27630	161817	27074	1071967	46478	110806	0	0	8011	613713	0	0
2024-08-17 09:56:47			0	36195	0	0	0	29072	27630	161837	26795	1072021	46478	110808	0	0	8010	614214	0	0
2024-08-17 09:57:47			0	36198	0	0	0	29075	27640	161797	27237	1072003	46490	110809	0	0	8010	614053	0	0
2024-08-17 09:58:47			0	36202	0	0	0	29075	27650	161889	27046	1072057	46491	110809	0	0	8010	613851	0	0
2024-08-17 09:59:47			0	36217	0	0	0	29093	27650	161841	27211	1072129	46480	110816	0	0	8011	613226	0	0
2024-08-17 10:00:47			0	36246	0	0	0	29083	27660	161793	27090	1072093	46492	110812	0	0	8013	611983	0	0
2024-08-17 10:01:47			0	36225	0	0	0	29088	27670	161717	27100	1072112	46493	110814	0	0	8012	612822	0	0
2024-08-17 10:02:47			0	36200	0	0	0	29088	27670	161765	27007	1072174	46470	110814	0	0	8010	613863	0	0
2024-08-17 10:03:47			0	36215	0	0	0	29106	27670	161745	27017	1072174	46482	110821	0	0	8011	613238	0	0
2024-08-17 10:04:47			0	36220	0	0	0	29101	27670	161745	27057	1072219	46482	110819	0	0	8011	613030	0	0
2024-08-17 10:05:47			0	36240	0	0	0	29111	27680	161629	26868	1072219	46505	110823	0	0	8012	612162	0	0
2024-08-17 10:06:47			0	36248	0	0	0	29114	27690	161717	26804	1072264	46484	110824	0	0	8013	611794	0	0
2024-08-17 10:07:47			0	36253	0	0	0	29119	27690	161581	27003	1072237	46484	110826	0	0	8013	611586	0	0
2024-08-17 10:08:47			0	36292	0	0	0	29119	27690	161521	26805	1072291	46484	110826	0	0	8015	609965	0	0
2024-08-17 10:09:47			0	36285	0	0	0	29127	27700	161517	27128	1072336	46486	110829	0	0	8015	610221	0	0
2024-08-17 10:10:47			0	36294	0	0	0	29132	27700	161529	26927	1072363	46497	110831	0	0	8015	609847	0	0
2024-08-17 10:11:47			0	36291	0	0	0	29132	27710	161401	26955	1072408	46487	110831	0	0	8015	609937	0	0
2024-08-17 10:12:47			0	36315	0	0	0	29140	27710	161317	27286	1072381	46487	110834	0	0	8016	608941	0	0
2024-08-17 10:13:47			0	36324	0	0	0	29153	27720	161397	27144	1072525	46498	110839	0	0	8017	608533	0	0
2024-08-17 10:14:47			0	36325	0	0	0	29142	27710	161317	27218	1072435	46498	110835	0	0	8017	608526	0	0
2024-08-17 10:15:47			0	36322	0	0	0	29155	27720	161241	26821	1072561	46499	110840	0	0	8016	608616	0	0
2024-08-17 10:16:47			0	36325	0	0	0	29153	27730	161317	26791	1072579	46489	110839	0	0	8017	608456	0	0
2024-08-17 10:17:47			0	36334	0	0	0	29168	27740	161253	26842	1072561	46489	110845	0	0	8017	608048	0	0
2024-08-17 10:18:47			0	36363	0	0	0	29168	27750	161261	26932	1072606	46501	110845	0	0	8019	606813	0	0
2024-08-17 10:19:47			0	36360	0	0	0	29163	27750	161265	26982	1072615	46491	110843	0	0	8019	606937	0	0
2024-08-17 10:20:47			0	36362	0	0	0	29171	27750	161153	26944	1072633	46491	110846	0	0	8019	606855	0	0
2024-08-17 10:21:47			0	36371	0	0	0	29161	27760	161073	27105	1072714	46492	110842	0	0	8019	606448	0	0
2024-08-17 10:22:47			0	36364	0	0	0	29142	27770	161053	27326	1072561	46503	110835	0	0	8019	606702	0	0
2024-08-17 10:23:47			0	36397	0	0	0	29145	27760	161033	26944	1072606	46492	110836	0	0	8021	605373	0	0
2024-08-17 10:24:47			0	36407	0	0	0	29140	27770	161013	27218	1072669	46470	110834	0	0	8022	604926	0	0
2024-08-17 10:25:47			0	36400	0	0	0	29145	27770	160949	27152	1072615	46493	110836	0	0	8022	605215	0	0
2024-08-17 10:26:47			0	36400	0	0	0	29150	27760	160721	27168	1072570	46491	110838	0	0	8021	605249	0	0
2024-08-17 10:27:47			0	36404	0	0	0	29155	27770	160861	27029	1072615	46493	110840	0	0	8022	605050	0	0
2024-08-17 10:28:47			0	36414	0	0	0	29153	27770	161009	26880	1072696	46481	110839	0	0	8022	604637	0	0
2024-08-17 10:29:47			0	36403	0	0	0	29158	27770	160925	27227	1072669	46481	110841	0	0	8022	605091	0	0
2024-08-17 10:30:47			0	36420	0	0	0	29181	27780	160917	27239	1072741	46481	110850	0	0	8022	604355	0	0
2024-08-17 10:31:47			0	36411	0	0	0	29181	27780	160965	26889	1072714	46481	110850	0	0	8022	604726	0	0
2024-08-17 10:32:47			0	36409	0	0	0	29184	27780	160897	26785	1072687	46493	110851	0	0	8021	604808	0	0
2024-08-17 10:33:47			0	36401	0	0	0	29194	27780	160745	26720	1072804	46482	110855	0	0	8021	605138	0	0
2024-08-17 10:34:47			0	36410	0	0	0	29205	27780	160829	27008	1072804	46515	110859	0	0	8021	604767	0	0
2024-08-17 10:35:47			0	36413	0	0	0	29205	27790	160937	26866	1072813	46495	110859	0	0	8021	604608	0	0
2024-08-17 10:36:47			0	36409	0	0	0	29207	27810	160901	27289	1072930	46497	110860	0	0	8021	604704	0	0
2024-08-17 10:37:47			0	36405	0	0	0	29212	27800	160957	27008	1072858	46506	110862	0	0	8021	604904	0	0
2024-08-17 10:38:47			0	36409	0	0	0	29207	27810	160853	26981	1072957	46507	110860	0	0	8021	604704	0	0
2024-08-17 10:39:47			0	36425	0	0	0	29223	27800	160825	27126	1072993	46506	110866	0	0	8022	604079	0	0
2024-08-17 10:40:47			0	36418	0	0	0	29215	27810	160797	27060	1072957	46497	110863	0	0	8022	604333	0	0
2024-08-17 10:41:47			0	36419	0	0	0	29194	27820	160741	26748	1072912	46486	110855	0	0	8022	604257	0	0
2024-08-17 10:42:47			0	36416	0	0	0	29215	27820	160709	26918	1073002	46508	110863	0	0	8022	604380	0	0
2024-08-17 10:43:47			0	36421	0	0	0	29238	27830	160773	27027	1073038	46498	110872	0	0	8022	604139	0	0
2024-08-17 10:44:47			0	36429	0	0	0	29231	27820	160829	26793	1073029	46508	110869	0	0	8022	603844	0	0
2024-08-17 10:45:47			0	36414	0	0	0	29220	27830	160681	27048	1073011	46486	110865	0	0	8021	604428	0	0
2024-08-17 10:46:47			0	36432	0	0	0	29231	27830	160725	27093	1073127	46487	110869	0	0	8022	603686	0	0
2024-08-17 10:47:47			0	36422	0	0	0	29233	27840	160733	27213	1073056	46500	110870	0	0	8022	604063	0	0
2024-08-17 10:48:47			0	36414	0	0	0	29223	27840	160745	27121	1073136	46510	110866	0	0	8021	604393	0	0
2024-08-17 10:49:47			0	36432	0	0	0	29246	27850	160681	26897	1073083	46500	110875	0	0	8022	603616	0	0
2024-08-17 10:50:47			0	36430	0	0	0	29220	27840	160725	26975	1073056	46488	110865	0	0	8022	603733	0	0
2024-08-17 10:51:47			0	36429	0	0	0	29166	27840	160621	27173	1072957	46477	110844	0	0	8023	603775	0	0
2024-08-17 10:52:47			0	36435	0	0	0	29179	27830	160673	26956	1072912	46476	110849	0	0	8023	603562	0	0
2024-08-17 10:53:47			0	36436	0	0	0	29228	27840	160629	26937	1073002	46477	110868	0	0	8023	603486	0	0
2024-08-17 10:54:47			0	36463	0	0	0	29241	27830	160673	26989	1073074	46487	110873	0	0	8024	602409	0	0
2024-08-17 10:55:47			0	36445	0	0	0	29267	27840	160669	27203	1073145	46488	110883	0	0	8023	603116	0	0
2024-08-17 10:56:47			0	36441	0	0	0	29186	27840	160709	27372	1073038	46477	110852	0	0	8024	603280	0	0
2024-08-17 10:57:47			0	36471	0	0	0	29194	27840	160633	27229	1072948	46477	110855	0	0	8025	602046	0	0
2024-08-17 10:58:47			0	36457	0	0	0	29114	27830	160549	27128	1072885	46476	110824	0	0	8026	602656	0	0
2024-08-17 10:59:47			0	36445	0	0	0	29179	27820	160489	27300	1072921	46475	110849	0	0	8024	603185	0	0
2024-08-17 11:00:47			0	36474	0	0	0	29148	27820	160533	26996	1072831	46464	110837	0	0	8026	601992	0	0
2024-08-17 11:01:47			0	36473	0	0	0	29148	27810	160617	27203	1072759	46461	110837	0	0	8026	602068	0	0
2024-08-17 11:02:47			0	36460	0	0	0	29161	27800	160525	27111	1072804	46473	110842	0	0	8025	602637	0	0
2024-08-17 11:03:47			0	36466	0	0	0	29173	27790	160529	26771	1072741	46473	110847	0	0	8025	602425	0	0
2024-08-17 11:04:47			0	36452	0	0	0	29212	27810	160613	27258	1072813	46484	110862	0	0	8024	602932	0	0
2024-08-17 11:05:47			0	36477	0	0	0	29145	27800	160521	26923	1072804	46496	110836	0	0	8026	601938	0	0
2024-08-17 11:06:47			0	36474	0	0	0	29127	27790	160565	27126	1072714	46473	110829	0	0	8026	602096	0	0
2024-08-17 11:07:47			0	36458	0	0	0	29163	27790	160585	27197	1072813	46460	110843	0	0	8025	602754	0	0
2024-08-17 11:08:47			0	36469	0	0	0	29228	27810	160557	27090	1072894	46506	110868	0	0	8024	602232	0	0
2024-08-17 11:09:47			0	36475	0	0	0	29207	27810	160585	27003	1072876	46497	110860	0	0	8025	601985	0	0
2024-08-17 11:10:47			0	36470	0	0	0	29189	27810	160537	26918	1072867	46496	110853	0	0	8025	602191	0	0
2024-08-17 11:11:47			0	36474	0	0	0	29184	27810	160481	27046	1072822	46497	110851	0	0	8026	602026	0	0
2024-08-17 11:12:47			0	36488	0	0	0	29205	27810	160581	27024	1072867	46484	110859	0	0	8026	601451	0	0
2024-08-17 11:13:47			0	36480	0	0	0	29199	27800	160533	27157	1072885	46506	110857	0	0	8026	601814	0	0
2024-08-17 11:14:47			0	36469	0	0	0	29189	27810	160533	26805	1072930	46474	110853	0	0	8025	602232	0	0
2024-08-17 11:15:47			0	36464	0	0	0	29148	27810	160517	27239	1072876	46474	110837	0	0	8026	602438	0	0
2024-08-17 11:16:47			0	36487	0	0	0	29129	27790	160501	26700	1072714	46496	110830	0	0	8027	601561	0	0
2024-08-17 11:17:47			0	36488	0	0	0	29145	27790	160565	27045	1072741	46473	110836	0	0	8027	601520	0	0
2024-08-17 11:18:47			0	36489	0	0	0	29155	27790	160441	27123	1072795	46473	110840	0	0	8027	601479	0	0
2024-08-17 11:19:47			0	36498	0	0	0	29142	27780	160417	26857	1072696	46482	110835	0	0	8027	601144	0	0
2024-08-17 11:20:47			0	36505	0	0	0	29140	27780	160533	27228	1072687	46470	110834	0	0	8028	600856	0	0
2024-08-17 11:21:47			0	36486	0	0	0	29137	27780	160457	27048	1072660	46470	110833	0	0	8027	601637	0	0
2024-08-17 11:22:47			0	36489	0	0	0	29173	27770	160445	26923	1072651	46481	110847	0	0	8026	601548	0	0
2024-08-17 11:23:47			0	36491	0	0	0	29171	27780	160433	27190	1072768	46481	110846	0	0	8027	601431	0	0
2024-08-17 11:24:47			0	36502	0	0	0	29179	27790	160453	26935	1072732	46495	110849	0	0	8027	600945	0	0
2024-08-17 11:25:47			0	36496	0	0	0	29197	27790	160453	27059	1072822	46506	110856	0	0	8026	601191	0	0
2024-08-17 11:26:47			0	36493	0	0	0	29181	27800	160421	26573	1072885	46506	110850	0	0	8027	601280	0	0
2024-08-17 11:27:47			0	36494	0	0	0	29205	27810	160501	26779	1072921	46517	110859	0	0	8026	601204	0	0
2024-08-17 11:28:47			0	36495	0	0	0	29249	27810	160449	26622	1073118	46507	110876	0	0	8026	601163	0	0
2024-08-17 11:29:47			0	36490	0	0	0	29238	27820	160409	27052	1072993	46508	110872	0	0	8026	601334	0	0
2024-08-17 11:30:47			0	36524	0	0	0	29186	27820	160421	27159	1073002	46498	110852	0	0	8028	599938	0	0
2024-08-17 11:31:47			0	36514	0	0	0	29215	27820	160337	26960	1073002	46486	110863	0	0	8027	600348	0	0
2024-08-17 11:32:47			0	36541	0	0	0	29275	27830	160273	26797	1073074	46499	110886	0	0	8028	599206	0	0
2024-08-17 11:33:47			0	36522	0	0	0	29288	27840	160209	27119	1073145	46500	110891	0	0	8027	599951	0	0
2024-08-17 11:34:47			0	36525	0	0	0	29280	27840	160193	27097	1073172	46500	110888	0	0	8027	599828	0	0
2024-08-17 11:35:47			0	36541	0	0	0	29218	27850	160233	26923	1073164	46500	110864	0	0	8029	599137	0	0
2024-08-17 11:36:47			0	36537	0	0	0	29236	27850	160173	26753	1073047	46500	110871	0	0	8029	599301	0	0
2024-08-17 11:37:47			0	36549	0	0	0	29277	27860	160245	27019	1073182	46491	110887	0	0	8029	598775	0	0
2024-08-17 11:38:47			0	36543	0	0	0	29275	27850	160201	26996	1073235	46500	110886	0	0	8028	599055	0	0
2024-08-17 11:39:47			0	36532	0	0	0	29251	27860	160313	26739	1073209	46480	110877	0	0	8028	599471	0	0
2024-08-17 11:40:47			0	36541	0	0	0	29254	27860	160237	26755	1073226	46490	110878	0	0	8029	599103	0	0
2024-08-17 11:41:47			0	36541	0	0	0	29251	27860	160225	26592	1073226	46501	110877	0	0	8029	599103	0	0
2024-08-17 11:42:47			0	36530	0	0	0	29244	27860	160205	26901	1073209	46502	110874	0	0	8028	599554	0	0
2024-08-17 11:43:47			0	36529	0	0	0	29262	27870	160265	26935	1073244	46502	110881	0	0	8028	599560	0	0
2024-08-17 11:44:47			0	36523	0	0	0	29246	27870	160297	26901	1073280	46491	110875	0	0	8028	599806	0	0
2024-08-17 11:45:47			0	36518	0	0	0	29215	27870	160381	26661	1073191	46513	110863	0	0	8028	600011	0	0
2024-08-17 11:46:47			0	36518	0	0	0	29173	27860	160165	26901	1073101	46480	110847	0	0	8029	600046	0	0
2024-08-17 11:47:47			0	36534	0	0	0	29212	27860	160241	27012	1073182	46480	110862	0	0	8029	599390	0	0
2024-08-17 11:48:47			0	36536	0	0	0	29283	27870	160169	26790	1073271	46491	110889	0	0	8028	599273	0	0
2024-08-17 11:49:47			0	36518	0	0	0	29262	27870	160209	27118	1073253	46513	110881	0	0	8027	600011	0	0
2024-08-17 11:50:47			0	36516	0	0	0	29238	27870	160265	27010	1073280	46491	110872	0	0	8027	600093	0	0
2024-08-17 11:51:47			0	36533	0	0	0	29298	27880	160233	27067	1073325	46504	110895	0	0	8027	599361	0	0
2024-08-17 11:52:47			0	36524	0	0	0	29309	27890	160289	27192	1073370	46515	110899	0	0	8027	599696	0	0
2024-08-17 11:53:47			0	36525	0	0	0	29254	27880	160229	26734	1073352	46504	110878	0	0	8028	599689	0	0
2024-08-17 11:54:47			0	36568	0	0	0	29267	27890	160165	26878	1073334	46493	110883	0	0	8030	597893	0	0
2024-08-17 11:55:47			0	36562	0	0	0	29311	27890	160177	26963	1073397	46504	110900	0	0	8029	598139	0	0
2024-08-17 11:56:47			0	36547	0	0	0	29309	27890	160077	26729	1073478	46493	110899	0	0	8028	598753	0	0
2024-08-17 11:57:47			0	36568	0	0	0	29251	27900	160157	26741	1073388	46495	110877	0	0	8030	597859	0	0
2024-08-17 11:58:47			0	36564	0	0	0	29262	27890	160145	26854	1073370	46493	110881	0	0	8030	598057	0	0
2024-08-17 11:59:47			0	36565	0	0	0	29280	27890	160149	26932	1073343	46504	110888	0	0	8030	598016	0	0
2024-08-17 12:00:47			0	36573	0	0	0	29301	27900	160129	26935	1073460	46483	110896	0	0	8030	597654	0	0
2024-08-17 12:01:47			0	36563	0	0	0	29316	27900	160101	26958	1073496	46506	110902	0	0	8029	598064	0	0
2024-08-17 12:02:47			0	36555	0	0	0	29386	27910	160193	26956	1073559	46506	110929	0	0	8027	598356	0	0
2024-08-17 12:03:47			0	36573	0	0	0	29327	27930	160113	27329	1073595	46520	110906	0	0	8030	597551	0	0
2024-08-17 12:04:47			0	36552	0	0	0	29238	27930	160041	27227	1073407	46475	110872	0	0	8030	598410	0	0
2024-08-17 12:05:47			0	36573	0	0	0	29283	27910	160077	26752	1073407	46473	110889	0	0	8030	597620	0	0
2024-08-17 12:06:47			0	36601	0	0	0	29301	27910	159914	26833	1073461	46495	110896	0	0	8032	596475	0	0
2024-08-17 12:07:47			0	36610	0	0	0	29363	27930	159882	27043	1073595	46509	110920	0	0	8031	596039	0	0
2024-08-17 12:08:47			0	36604	0	0	0	29407	27920	159942	27315	1073658	46518	110937	0	0	8030	596318	0	0
2024-08-17 12:09:47			0	36630	0	0	0	29397	27940	159854	27034	1073757	46510	110933	0	0	8032	595188	0	0
2024-08-17 12:10:47			0	36621	0	0	0	29397	27950	159758	27215	1073856	46533	110933	0	0	8031	595521	0	0
2024-08-17 12:11:47			0	36616	0	0	0	29384	27960	159858	27222	1073838	46522	110928	0	0	8031	595691	0	0
2024-08-17 12:12:47			0	36619	0	0	0	29379	27980	159874	26804	1073820	46524	110926	0	0	8032	595499	0	0
2024-08-17 12:13:47			0	36611	0	0	0	29399	27980	159802	27105	1073901	46501	110934	0	0	8031	595826	0	0
2024-08-17 12:14:47			0	36616	0	0	0	29376	27990	159758	27152	1073928	46493	110925	0	0	8032	595587	0	0
2024-08-17 12:15:47			0	36630	0	0	0	29316	28000	159766	27213	1073964	46516	110902	0	0	8033	594982	0	0
2024-08-17 12:16:47			0	36633	0	0	0	29348	28010	159702	26998	1073955	46505	110914	0	0	8033	594825	0	0
2024-08-17 12:17:47			0	36623	0	0	0	29433	28010	159706	26915	1074090	46517	110947	0	0	8031	595233	0	0
2024-08-17 12:18:47			0	36639	0	0	0	29407	28010	159830	27194	1074090	46517	110937	0	0	8033	594581	0	0
2024-08-17 12:19:47			0	36622	0	0	0	29319	28020	159802	26811	1073973	46506	110903	0	0	8033	595240	0	0
2024-08-17 12:20:47			0	36634	0	0	0	29272	28010	159778	26850	1073902	46472	110885	0	0	8035	594785	0	0
2024-08-17 12:21:47			0	36612	0	0	0	29301	28000	159794	26817	1073830	46483	110896	0	0	8033	595716	0	0
2024-08-17 12:22:47			0	36636	0	0	0	29361	27990	159682	26604	1073874	46493	110919	0	0	8033	594772	0	0
2024-08-17 12:23:47			0	36628	0	0	0	29438	28010	159766	26979	1074036	46517	110949	0	0	8031	595029	0	0
2024-08-17 12:24:47			0	36610	0	0	0	29475	28020	159802	26890	1074162	46529	110963	0	0	8030	595729	0	0
2024-08-17 12:25:47			0	36613	0	0	0	29509	28020	159830	26987	1074198	46529	110976	0	0	8029	595607	0	0
2024-08-17 12:26:47			0	36616	0	0	0	29522	28040	159826	26722	1074315	46531	110981	0	0	8029	595416	0	0
2024-08-17 12:27:47			0	36629	0	0	0	29529	28050	159750	26916	1074351	46532	110984	0	0	8030	594851	0	0
2024-08-17 12:28:47			0	36623	0	0	0	29555	28060	159726	26708	1074432	46534	110994	0	0	8029	595061	0	0
2024-08-17 12:29:47			0	36624	0	0	0	29576	28080	159782	26833	1074495	46525	111002	0	0	8029	594952	0	0
2024-08-17 12:30:47			0	36624	0	0	0	29571	28090	159786	26693	1074531	46546	111000	0	0	8029	594918	0	0
2024-08-17 12:31:47			0	36643	0	0	0	29576	28110	159630	26885	1074612	46538	111002	0	0	8030	594075	0	0
2024-08-17 12:32:47			0	36637	0	0	0	29576	28110	159702	26961	1074612	46527	111002	0	0	8030	594319	0	0
2024-08-17 12:33:47			0	36643	0	0	0	29597	28130	159546	27015	1074819	46530	111010	0	0	8030	594006	0	0
2024-08-17 12:34:47			0	36652	0	0	0	29612	28140	159622	26762	1074801	46541	111016	0	0	8030	593605	0	0
2024-08-17 12:35:47			0	36661	0	0	0	29620	28140	159550	27098	1074891	46564	111019	0	0	8031	593239	0	0
2024-08-17 12:36:47			0	36673	0	0	0	29638	28150	159546	27128	1074882	46532	111026	0	0	8031	592717	0	0
2024-08-17 12:37:47			0	36681	0	0	0	29659	28170	159494	27098	1074999	46544	111034	0	0	8032	592323	0	0
2024-08-17 12:38:47			0	36679	0	0	0	29675	28180	159502	27029	1075035	46545	111040	0	0	8031	592370	0	0
2024-08-17 12:39:47			0	36742	0	0	0	29683	28190	159158	26953	1075080	46545	111043	0	0	8035	589779	0	0
2024-08-17 12:40:47			0	36802	0	0	0	29680	28200	158926	27043	1075152	46559	111042	0	0	8038	587318	0	0
2024-08-17 12:41:47			0	36845	0	0	0	29683	28220	158682	26706	1075215	46539	111043	0	0	8041	585514	0	0
2024-08-17 12:42:47			0	36890	0	0	0	29677	28220	158662	26960	1075135	46527	111041	0	0	8044	583701	0	0
2024-08-17 12:43:47			0	36901	0	0	0	29688	28230	158446	26842	1075207	46540	111045	0	0	8044	583225	0	0
2024-08-17 12:44:47			0	36910	0	0	0	29690	28230	158326	27078	1075243	46550	111046	0	0	8045	582863	0	0
2024-08-17 12:45:47			0	36900	0	0	0	29709	28240	158446	26734	1075341	46541	111053	0	0	8044	583232	0	0
2024-08-17 12:46:47			0	36923	0	0	0	29703	28250	158346	27142	1075351	46530	111051	0	0	8045	582274	0	0
2024-08-17 12:47:47			0	36917	0	0	0	29698	28250	158366	26998	1075306	46541	111049	0	0	8045	582515	0	0
2024-08-17 12:48:47			0	36919	0	0	0	29698	28260	158406	26970	1075369	46531	111049	0	0	8045	582401	0	0
2024-08-17 12:49:47			0	36896	0	0	0	29709	28260	158394	26616	1075396	46542	111053	0	0	8044	583325	0	0
2024-08-17 12:50:47			0	36866	0	0	0	29716	28260	158518	26811	1075458	46532	111056	0	0	8042	584533	0	0
2024-08-17 12:51:47			0	36820	0	0	0	29724	28270	158666	26693	1075396	46532	111059	0	0	8039	586353	0	0
2024-08-17 12:52:47			0	36821	0	0	0	29732	28280	158790	26630	1075513	46555	111062	0	0	8039	586279	0	0
2024-08-17 12:53:47			0	36787	0	0	0	29729	28290	158778	26691	1075513	46546	111061	0	0	8037	587618	0	0
2024-08-17 12:54:47			0	36802	0	0	0	29748	28300	158794	26904	1075522	46557	111068	0	0	8038	586978	0	0
2024-08-17 12:55:47			0	36783	0	0	0	29750	28300	158810	27066	1075603	46557	111069	0	0	8037	587746	0	0
2024-08-17 12:56:47			0	36792	0	0	0	29771	28300	158854	27175	1075612	46558	111077	0	0	8037	587382	0	0
2024-08-17 12:57:47			0	36786	0	0	0	29774	28320	158890	26731	1075756	46549	111078	0	0	8036	587557	0	0
2024-08-17 12:58:47			0	36764	0	0	0	29784	28330	158990	27003	1075765	46539	111082	0	0	8035	588412	0	0
2024-08-17 12:59:47			0	36767	0	0	0	29792	28330	158974	26883	1075801	46550	111085	0	0	8035	588291	0	0
2024-08-17 13:00:47			0	36771	0	0	0	29802	28350	158930	26731	1075855	46552	111089	0	0	8035	588061	0	0
2024-08-17 13:01:47			0	36761	0	0	0	29812	28350	158954	26741	1075918	46563	111093	0	0	8035	588465	0	0
2024-08-17 13:02:47			0	36768	0	0	0	29812	28360	158934	27033	1075847	46541	111093	0	0	8035	588148	0	0
2024-08-17 13:03:47			0	36790	0	0	0	29831	28360	158890	27007	1075910	46553	111100	0	0	8036	587259	0	0
2024-08-17 13:04:47			0	36777	0	0	0	29828	28370	158834	26750	1076008	46555	111099	0	0	8035	587751	0	0
2024-08-17 13:05:47			0	36799	0	0	0	29836	28380	158770	26830	1076080	46555	111102	0	0	8037	586828	0	0
2024-08-17 13:06:47			0	36814	0	0	0	29846	28400	158638	27048	1076081	46557	111106	0	0	8037	586155	0	0
2024-08-17 13:07:47			0	36830	0	0	0	29849	28400	158610	26797	1076152	46535	111107	0	0	8038	585510	0	0
2024-08-17 13:08:47			0	36822	0	0	0	29851	28410	158630	27017	1076198	46557	111108	0	0	8038	585798	0	0
2024-08-17 13:09:47			0	36854	0	0	0	29849	28410	158594	26811	1076180	46558	111107	0	0	8040	584509	0	0
2024-08-17 13:10:47			0	36867	0	0	0	29846	28410	158362	26762	1076153	46558	111106	0	0	8040	583986	0	0
2024-08-17 13:11:47			0	36893	0	0	0	29846	28420	158330	26902	1076189	46547	111106	0	0	8042	582907	0	0
2024-08-17 13:12:47			0	36950	0	0	0	29864	28430	158230	26576	1076216	46548	111113	0	0	8045	580585	0	0
2024-08-17 13:13:47			0	36956	0	0	0	29867	28440	158038	26890	1076306	46561	111114	0	0	8046	580311	0	0
2024-08-17 13:14:47			0	36980	0	0	0	29875	28440	158018	26878	1076306	46572	111117	0	0	8047	579350	0	0
2024-08-17 13:15:47			0	37027	0	0	0	29890	28440	157794	26753	1076288	46573	111123	0	0	8049	577472	0	0
2024-08-17 13:16:47			0	37016	0	0	0	29885	28460	157714	26986	1076369	46563	111121	0	0	8049	577844	0	0
2024-08-17 13:17:47			0	37060	0	0	0	29883	28450	157698	27128	1076360	46550	111120	0	0	8051	576122	0	0
2024-08-17 13:18:47			0	37066	0	0	0	29885	28460	157466	26797	1076351	46552	111121	0	0	8052	575849	0	0
2024-08-17 13:19:47			0	37081	0	0	0	29903	28470	157398	26975	1076414	46552	111128	0	0	8052	575218	0	0
2024-08-17 13:20:47			0	37113	0	0	0	29924	28480	157426	26830	1076540	46576	111136	0	0	8054	573912	0	0
2024-08-17 13:21:47			0	37117	0	0	0	29914	28480	157278	26680	1076549	46577	111132	0	0	8054	573752	0	0
2024-08-17 13:22:47			0	37129	0	0	0	29880	28490	157250	26583	1076594	46566	111119	0	0	8056	573242	0	0
2024-08-17 13:23:47			0	37132	0	0	0	29862	28490	157162	26830	1076459	46554	111112	0	0	8056	573123	0	0
2024-08-17 13:24:47			0	37162	0	0	0	29841	28490	157154	26517	1076459	46543	111104	0	0	8058	571932	0	0
2024-08-17 13:25:47			0	37183	0	0	0	29854	28490	156982	26672	1076423	46543	111109	0	0	8059	571100	0	0
2024-08-17 13:26:47			0	37199	0	0	0	29857	28490	157046	26765	1076486	46554	111110	0	0	8060	570465	0	0
2024-08-17 13:27:47			0	37186	0	0	0	29872	28490	156934	27031	1076450	46554	111116	0	0	8059	570980	0	0
2024-08-17 13:28:47			0	37181	0	0	0	29885	28490	157170	26887	1076540	46566	111121	0	0	8059	571179	0	0
2024-08-17 13:29:47			0	37159	0	0	0	29880	28500	157170	26845	1076612	46556	111119	0	0	8057	572018	0	0
2024-08-17 13:30:47			0	37143	0	0	0	29893	28500	157122	27154	1076585	46556	111124	0	0	8056	572653	0	0
2024-08-17 13:31:47			0	37141	0	0	0	29846	28510	157226	26927	1076567	46557	111106	0	0	8057	572699	0	0
2024-08-17 13:32:47			0	37121	0	0	0	29825	28500	157258	26672	1076468	46555	111098	0	0	8056	573527	0	0
2024-08-17 13:33:47			0	37133	0	0	0	29841	28500	157206	26689	1076468	46533	111104	0	0	8057	573050	0	0
2024-08-17 13:34:47			0	37137	0	0	0	29841	28490	157174	26922	1076405	46543	111104	0	0	8057	572924	0	0
2024-08-17 13:35:47			0	37099	0	0	0	29875	28490	157214	27072	1076504	46566	111117	0	0	8054	574435	0	0
2024-08-17 13:36:47			0	37097	0	0	0	29893	28500	157378	26778	1076549	46555	111124	0	0	8054	574482	0	0
2024-08-17 13:37:47			0	37094	0	0	0	29901	28500	157358	26906	1076585	46556	111127	0	0	8053	574601	0	0
2024-08-17 13:38:47			0	37056	0	0	0	29896	28510	157394	27066	1076675	46569	111125	0	0	8051	576081	0	0
2024-08-17 13:39:47			0	37052	0	0	0	29849	28510	157498	26812	1076630	46557	111107	0	0	8052	576241	0	0
2024-08-17 13:40:47			0	37060	0	0	0	29838	28510	157482	26762	1076550	46546	111103	0	0	8052	575922	0	0
2024-08-17 13:41:47			0	37051	0	0	0	29825	28500	157502	26928	1076468	46555	111098	0	0	8052	576314	0	0
2024-08-17 13:42:47			0	37078	0	0	0	29854	28500	157406	27066	1076504	46556	111109	0	0	8053	575238	0	0
2024-08-17 13:43:47			0	37077	0	0	0	29867	28490	157458	26918	1076513	46543	111114	0	0	8053	575311	0	0
2024-08-17 13:44:47			0	37091	0	0	0	29867	28500	157322	26915	1076549	46544	111114	0	0	8054	574720	0	0
2024-08-17 13:45:47			0	37091	0	0	0	29851	28490	157302	27076	1076450	46554	111108	0	0	8054	574753	0	0
2024-08-17 13:46:47			0	37126	0	0	0	29870	28480	157334	27339	1076405	46531	111115	0	0	8056	573395	0	0
2024-08-17 13:47:47			0	37090	0	0	0	29896	28490	157314	27194	1076477	46554	111125	0	0	8053	574793	0	0
2024-08-17 13:48:47			0	37102	0	0	0	29909	28480	157274	26987	1076495	46554	111130	0	0	8054	574349	0	0
2024-08-17 13:49:47			0	37104	0	0	0	29922	28490	157354	27187	1076567	46577	111135	0	0	8053	574236	0	0
2024-08-17 13:50:47			0	37078	0	0	0	29916	28500	157426	27114	1076657	46567	111133	0	0	8052	575238	0	0
2024-08-17 13:51:47			0	37103	0	0	0	29906	28510	157458	27055	1076648	46569	111129	0	0	8054	574210	0	0
2024-08-17 13:52:47			0	37083	0	0	0	29906	28500	157402	26788	1076585	46579	111129	0	0	8053	575039	0	0
2024-08-17 13:53:47			0	37091	0	0	0	29888	28510	157414	27013	1076594	46546	111122	0	0	8053	574687	0	0
2024-08-17 13:54:47			0	37092	0	0	0	29877	28510	157314	26897	1076594	46546	111118	0	0	8054	574647	0	0
2024-08-17 13:55:47			0	37098	0	0	0	29870	28500	157234	26811	1076531	46556	111115	0	0	8054	574442	0	0
2024-08-17 13:56:47			0	37111	0	0	0	29880	28500	157410	27100	1076522	46567	111119	0	0	8055	573925	0	0
2024-08-17 13:57:47			0	37098	0	0	0	29890	28500	157282	27034	1076531	46568	111123	0	0	8054	574442	0	0
2024-08-17 13:58:47			0	37117	0	0	0	29890	28510	157286	26667	1076657	46557	111123	0	0	8055	573653	0	0
2024-08-17 13:59:47			0	37111	0	0	0	29901	28510	157266	26986	1076621	46569	111127	0	0	8054	573891	0	0
2024-08-17 14:00:47			0	37117	0	0	0	29893	28500	157246	27227	1076558	46556	111124	0	0	8055	573686	0	0
2024-08-17 14:01:47			0	37141	0	0	0	29883	28510	157210	26955	1076603	46557	111120	0	0	8056	572699	0	0
2024-08-17 14:02:47			0	37149	0	0	0	29880	28510	157154	26948	1076603	46557	111119	0	0	8057	572382	0	0
2024-08-17 14:03:47			0	37158	0	0	0	29885	28500	157122	26939	1076612	46545	111121	0	0	8057	572058	0	0
2024-08-17 14:04:47			0	37147	0	0	0	29896	28510	157110	26750	1076567	46557	111125	0	0	8057	572461	0	0
2024-08-17 14:05:47			0	37155	0	0	0	29916	28520	157194	26904	1076639	46569	111133	0	0	8057	572111	0	0
2024-08-17 14:06:47			0	37159	0	0	0	29929	28520	157174	26819	1076855	46569	111138	0	0	8057	571952	0	0
2024-08-17 14:07:47			0	37161	0	0	0	29948	28530	157078	26994	1076856	46582	111145	0	0	8057	571839	0	0
2024-08-17 14:08:47			0	37176	0	0	0	29932	28540	157038	26963	1076928	46583	111139	0	0	8058	571212	0	0
2024-08-17 14:09:47			0	37171	0	0	0	29896	28550	157042	27088	1076856	46583	111125	0	0	8058	571377	0	0
2024-08-17 14:10:47			0	37171	0	0	0	29888	28540	156874	26871	1076811	46537	111122	0	0	8058	571410	0	0
2024-08-17 14:11:47			0	37219	0	0	0	29872	28530	156890	27031	1076739	46537	111116	0	0	8061	569542	0	0
2024-08-17 14:12:47			0	37229	0	0	0	29849	28530	156834	27067	1076658	46548	111107	0	0	8062	569146	0	0
2024-08-17 14:13:47			0	37235	0	0	0	29833	28510	156730	26984	1076576	46546	111101	0	0	8063	568975	0	0
2024-08-17 14:14:47			0	37237	0	0	0	29815	28510	156710	26844	1076460	46535	111094	0	0	8063	568896	0	0
2024-08-17 14:15:47			0	37231	0	0	0	29828	28500	156806	26701	1076397	46534	111099	0	0	8063	569166	0	0
2024-08-17 14:16:47			0	37210	0	0	0	29844	28490	156938	26696	1076486	46543	111105	0	0	8061	570030	0	0
2024-08-17 14:17:47			0	37186	0	0	0	29927	28500	157086	26960	1076603	46578	111137	0	0	8058	570947	0	0
2024-08-17 14:18:47			0	37138	0	0	0	29968	28520	157162	26935	1076702	46581	111153	0	0	8055	572785	0	0
2024-08-17 14:19:47			0	37137	0	0	0	29986	28510	157358	26691	1076954	46569	111160	0	0	8054	572858	0	0
2024-08-17 14:20:47			0	37102	0	0	0	29979	28530	157386	26727	1076883	46571	111157	0	0	8053	574183	0	0
2024-08-17 14:21:47			0	37105	0	0	0	29968	28550	157394	27154	1076910	46573	111153	0	0	8053	573997	0	0
2024-08-17 14:22:47			0	37082	0	0	0	29955	28530	157370	27116	1076883	46559	111148	0	0	8052	574979	0	0
2024-08-17 14:23:47			0	37080	0	0	0	29945	28540	157394	27067	1076874	46560	111144	0	0	8052	575025	0	0
2024-08-17 14:24:47			0	37076	0	0	0	29950	28540	157450	26949	1076901	46560	111146	0	0	8052	575184	0	0
2024-08-17 14:25:47			0	37067	0	0	0	29906	28540	157490	27083	1076874	46549	111129	0	0	8052	575543	0	0
2024-08-17 14:26:47			0	37060	0	0	0	29909	28540	157454	26894	1076784	46559	111130	0	0	8051	575822	0	0
2024-08-17 14:27:47			0	37061	0	0	0	29909	28540	157410	26897	1076847	46560	111130	0	0	8051	575782	0	0
2024-08-17 14:28:47			0	37102	0	0	0	29914	28540	157454	26785	1076766	46549	111132	0	0	8054	574150	0	0
2024-08-17 14:29:47			0	37107	0	0	0	29932	28540	157258	26875	1076847	46572	111139	0	0	8054	573951	0	0
2024-08-17 14:30:47			0	37100	0	0	0	29929	28540	157118	27118	1076901	46583	111138	0	0	8053	574229	0	0
2024-08-17 14:31:47			0	37113	0	0	0	29890	28540	157266	26930	1076820	46560	111123	0	0	8055	573712	0	0
2024-08-17 14:32:47			0	37123	0	0	0	29909	28550	157230	26928	1076748	46573	111130	0	0	8055	573282	0	0
2024-08-17 14:33:47			0	37133	0	0	0	29911	28550	157182	27045	1076910	46573	111131	0	0	8056	572885	0	0
2024-08-17 14:34:47			0	37116	0	0	0	29906	28550	157186	26765	1076883	46573	111129	0	0	8055	573560	0	0
2024-08-17 14:35:47			0	37124	0	0	0	29909	28550	157178	27033	1076910	46561	111130	0	0	8055	573242	0	0
2024-08-17 14:36:47			0	37118	0	0	0	29906	28560	157210	27149	1076901	46561	111129	0	0	8055	573447	0	0
2024-08-17 14:37:47			0	37126	0	0	0	29864	28550	157258	26876	1076856	46550	111113	0	0	8056	573163	0	0
2024-08-17 14:38:47			0	37106	0	0	0	29896	28550	157206	26958	1076883	46539	111125	0	0	8054	573957	0	0
2024-08-17 14:39:47			0	37133	0	0	0	29914	28540	157166	26901	1076847	46560	111132	0	0	8056	572918	0	0
2024-08-17 14:40:47			0	37129	0	0	0	29916	28550	157190	27031	1076919	46561	111133	0	0	8055	573043	0	0
2024-08-17 14:41:47			0	37106	0	0	0	29942	28550	157290	26833	1076973	46561	111143	0	0	8054	573957	0	0
2024-08-17 14:42:47			0	37118	0	0	0	29984	28560	157230	27031	1076982	46573	111159	0	0	8054	573447	0	0
2024-08-17 14:43:47			0	37104	0	0	0	29986	28570	157234	27135	1077090	46585	111160	0	0	8053	573970	0	0
2024-08-17 14:44:47			0	37127	0	0	0	29955	28580	157270	27298	1077108	46586	111148	0	0	8055	573023	0	0
2024-08-17 14:45:47			0	37122	0	0	0	29961	28590	157174	27320	1077090	46577	111150	0	0	8054	573189	0	0
2024-08-17 14:46:47			0	37113	0	0	0	29945	28580	157122	26975	1077081	46564	111144	0	0	8054	573580	0	0
2024-08-17 14:47:47			0	37128	0	0	0	29937	28580	157206	27003	1077027	46576	111141	0	0	8055	572984	0	0
2024-08-17 14:48:47			0	37129	0	0	0	29984	28590	157154	27222	1077090	46577	111159	0	0	8054	572911	0	0
2024-08-17 14:49:47			0	37128	0	0	0	29984	28590	157270	27185	1077180	46578	111159	0	0	8054	572951	0	0
2024-08-17 14:50:47			0	37114	0	0	0	29932	28590	157246	26878	1077117	46565	111139	0	0	8054	573507	0	0
2024-08-17 14:51:47			0	37138	0	0	0	29963	28600	157134	26927	1077108	46566	111151	0	0	8055	572520	0	0
2024-08-17 14:52:47			0	37130	0	0	0	29963	28600	157206	27050	1077162	46555	111151	0	0	8055	572838	0	0
2024-08-17 14:53:47			0	37127	0	0	0	29911	28600	157174	26892	1077117	46555	111131	0	0	8056	572957	0	0
2024-08-17 14:54:47			0	37134	0	0	0	29906	28600	157098	26833	1077090	46555	111129	0	0	8056	572679	0	0
2024-08-17 14:55:47			0	37122	0	0	0	29919	28590	157002	26987	1077036	46542	111134	0	0	8055	573189	0	0
2024-08-17 14:56:47			0	37137	0	0	0	29922	28590	157014	27050	1077063	46554	111135	0	0	8056	572593	0	0
2024-08-17 14:57:47			0	37144	0	0	0	29935	28590	157082	27100	1077009	46554	111140	0	0	8056	572315	0	0
2024-08-17 14:58:47			0	37143	0	0	0	29976	28590	157094	27001	1077117	46577	111156	0	0	8055	572355	0	0
2024-08-17 14:59:47			0	37148	0	0	0	30015	28590	157082	27111	1077234	46578	111171	0	0	8055	572157	0	0
2024-08-17 15:00:47			0	37136	0	0	0	30067	28600	157078	27289	1077306	46611	111191	0	0	8053	572600	0	0
2024-08-17 15:01:47			0	37147	0	0	0	30114	28630	157050	26899	1077522	46592	111209	0	0	8053	572064	0	0
2024-08-17 15:02:47			0	37177	0	0	0	30127	28640	157026	27095	1077585	46604	111214	0	0	8055	570842	0	0
2024-08-17 15:03:47			0	37181	0	0	0	30116	28660	156974	26883	1077648	46594	111210	0	0	8056	570617	0	0
2024-08-17 15:04:47			0	37203	0	0	0	30109	28660	156814	26850	1077631	46595	111207	0	0	8057	569746	0	0
2024-08-17 15:05:47			0	37220	0	0	0	30109	28680	156818	26994	1077712	46586	111207	0	0	8058	569008	0	0
2024-08-17 15:06:47			0	37218	0	0	0	30101	28680	156830	26609	1077739	46575	111204	0	0	8058	569087	0	0
2024-08-17 15:07:47			0	37226	0	0	0	30103	28690	156646	26668	1077703	46576	111205	0	0	8059	568738	0	0
2024-08-17 15:08:47			0	37221	0	0	0	30093	28700	156754	26849	1077685	46576	111201	0	0	8058	568903	0	0
2024-08-17 15:09:47			0	37232	0	0	0	30096	28700	156662	27081	1077667	46566	111202	0	0	8059	568468	0	0
2024-08-17 15:10:47			0	37230	0	0	0	30072	28700	156542	26883	1077712	46565	111193	0	0	8059	568547	0	0
2024-08-17 15:11:47			0	37228	0	0	0	30096	28690	156686	27102	1077613	46575	111202	0	0	8059	568659	0	0
2024-08-17 15:12:47			0	37220	0	0	0	30119	28700	156582	27166	1077739	46576	111211	0	0	8058	568942	0	0
2024-08-17 15:13:47			0	37229	0	0	0	30132	28700	156634	27128	1077748	46577	111216	0	0	8058	568587	0	0
2024-08-17 15:14:47			0	37248	0	0	0	30150	28710	156566	27145	1077757	46577	111223	0	0	8059	567803	0	0
2024-08-17 15:15:47			0	37229	0	0	0	30161	28720	156594	26960	1077892	46601	111227	0	0	8058	568521	0	0
2024-08-17 15:16:47			0	37244	0	0	0	30161	28720	156578	26856	1077883	46578	111227	0	0	8059	567929	0	0
2024-08-17 15:17:47			0	37225	0	0	0	30168	28740	156618	27119	1077892	46591	111230	0	0	8058	568613	0	0
2024-08-17 15:18:47			0	37247	0	0	0	30155	28730	156598	27024	1077937	46591	111225	0	0	8059	567777	0	0
2024-08-17 15:19:47			0	37236	0	0	0	30155	28730	156598	27182	1077937	46580	111225	0	0	8058	568211	0	0
2024-08-17 15:20:47			0	37241	0	0	0	30166	28740	156554	26928	1077982	46581	111229	0	0	8059	567981	0	0
2024-08-17 15:21:47			0	37264	0	0	0	30174	28750	156578	26942	1078000	46604	111232	0	0	8060	567041	0	0
2024-08-17 15:22:47			0	37240	0	0	0	30166	28750	156462	26989	1078000	46571	111229	0	0	8059	567988	0	0
2024-08-17 15:23:47			0	37269	0	0	0	30184	28750	156462	26639	1078135	46559	111236	0	0	8060	566844	0	0
2024-08-17 15:24:47			0	37260	0	0	0	30192	28760	156438	26928	1078126	46583	111239	0	0	8059	567166	0	0
2024-08-17 15:25:47			0	37260	0	0	0	30189	28770	156466	27123	1078108	46583	111238	0	0	8059	567133	0	0
2024-08-17 15:26:47			0	37274	0	0	0	30202	28770	156374	26838	1078162	46594	111243	0	0	8060	566581	0	0
2024-08-17 15:27:47			0	37274	0	0	0	30218	28780	156386	26785	1078235	46596	111249	0	0	8060	566548	0	0
2024-08-17 15:28:47			0	37284	0	0	0	30215	28780	156354	26670	1078217	46574	111248	0	0	8060	566154	0	0
2024-08-17 15:29:47			0	37274	0	0	0	30207	28790	156370	26831	1078226	46585	111245	0	0	8060	566515	0	0
2024-08-17 15:30:47			0	37297	0	0	0	30212	28790	156282	27008	1078235	46575	111247	0	0	8061	565610	0	0
2024-08-17 15:31:47			0	37311	0	0	0	30225	28780	156422	27053	1078244	46584	111252	0	0	8062	565092	0	0
2024-08-17 15:32:47			0	37296	0	0	0	30223	28800	156358	27034	1078271	46586	111251	0	0	8061	565616	0	0
2024-08-17 15:33:47			0	37305	0	0	0	30246	28800	156178	26831	1078361	46598	111260	0	0	8061	565262	0	0
2024-08-17 15:34:47			0	37302	0	0	0	30259	28810	156274	27026	1078370	46610	111265	0	0	8061	565348	0	0
2024-08-17 15:35:47			0	37312	0	0	0	30249	28820	156174	26656	1078415	46588	111261	0	0	8062	564921	0	0
2024-08-17 15:36:47			0	37330	0	0	0	30254	28820	156279	26838	1078424	46589	111263	0	0	8063	564214	0	0
2024-08-17 15:37:47			0	37330	0	0	0	30283	28830	156255	26701	1078568	46601	111274	0	0	8062	564181	0	0
2024-08-17 15:38:47			0	37337	0	0	0	30316	28830	156271	26883	1078568	46612	111287	0	0	8062	563906	0	0
2024-08-17 15:39:47			0	37349	0	0	0	30316	28840	156159	26892	1078595	46625	111287	0	0	8063	563402	0	0
2024-08-17 15:40:47			0	37332	0	0	0	30298	28850	156147	27005	1078640	46603	111280	0	0	8062	564037	0	0
2024-08-17 15:41:47			0	37334	0	0	0	30296	28860	156139	27022	1078676	46604	111279	0	0	8062	563926	0	0
2024-08-17 15:42:47			0	37355	0	0	0	30301	28860	156203	27019	1078676	46604	111281	0	0	8063	563101	0	0
2024-08-17 15:43:47			0	37341	0	0	0	30311	28860	156059	26922	1078658	46605	111285	0	0	8062	563651	0	0
2024-08-17 15:44:47			0	37368	0	0	0	30314	28870	155971	26837	1078748	46616	111286	0	0	8064	562559	0	0
2024-08-17 15:45:47			0	37381	0	0	0	30311	28890	156011	26823	1078785	46608	111285	0	0	8065	561984	0	0
2024-08-17 15:46:47			0	37378	0	0	0	30303	28880	155899	27189	1078803	46607	111282	0	0	8065	562134	0	0
2024-08-17 15:47:47			0	37400	0	0	0	30319	28880	155835	27104	1078749	46607	111288	0	0	8066	561272	0	0
2024-08-17 15:48:47			0	37425	0	0	0	30327	28890	155863	27235	1078785	46596	111291	0	0	8067	560262	0	0
2024-08-17 15:49:47			0	37427	0	0	0	30345	28900	155751	26987	1078938	46608	111298	0	0	8067	560151	0	0
2024-08-17 15:50:47			0	37429	0	0	0	30329	28900	155807	27157	1078884	46608	111292	0	0	8067	560073	0	0
2024-08-17 15:51:47			0	37434	0	0	0	30337	28910	155779	26944	1078929	46621	111295	0	0	8068	559845	0	0
2024-08-17 15:52:47			0	37434	0	0	0	30345	28910	155719	26847	1078956	46621	111298	0	0	8068	559845	0	0
2024-08-17 15:53:47			0	37418	0	0	0	30342	28920	155675	26733	1079002	46610	111297	0	0	8067	560438	0	0
2024-08-17 15:54:47			0	37416	0	0	0	30363	28920	155695	26868	1078948	46598	111305	0	0	8066	560516	0	0
2024-08-17 15:55:47			0	37426	0	0	0	30373	28920	155731	27000	1079029	46610	111309	0	0	8067	560125	0	0
2024-08-17 15:56:47			0	37416	0	0	0	30366	28930	155699	26854	1079047	46612	111306	0	0	8066	560484	0	0
2024-08-17 15:57:47			0	37392	0	0	0	30358	28930	155759	26764	1079020	46612	111303	0	0	8065	561423	0	0
2024-08-17 15:58:47			0	37381	0	0	0	30368	28930	155823	26616	1079110	46612	111307	0	0	8064	561854	0	0
2024-08-17 15:59:47			0	37369	0	0	0	30358	28950	155879	26861	1079110	46625	111303	0	0	8064	562259	0	0
2024-08-17 16:00:47			0	37373	0	0	0	30348	28950	155891	26493	1079083	46602	111299	0	0	8064	562102	0	0
2024-08-17 16:01:47			0	37352	0	0	0	30337	28950	155967	26968	1079065	46603	111295	0	0	8063	562925	0	0
2024-08-17 16:02:47			0	37338	0	0	0	30348	28950	156051	27098	1079164	46602	111299	0	0	8062	563475	0	0
2024-08-17 16:03:47			0	37342	0	0	0	30371	28940	156039	26765	1079128	46613	111308	0	0	8062	563350	0	0
2024-08-17 16:04:47			0	37324	0	0	0	30397	28970	156095	27140	1079200	46626	111318	0	0	8061	563959	0	0
2024-08-17 16:05:47			0	37324	0	0	0	30412	28970	156099	26807	1079245	46615	111324	0	0	8060	563959	0	0
2024-08-17 16:06:47			0	37328	0	0	0	30402	28980	156039	26928	1079299	46627	111320	0	0	8061	563769	0	0
2024-08-17 16:07:47			0	37326	0	0	0	30405	28980	156063	26897	1079326	46605	111321	0	0	8061	563848	0	0
2024-08-17 16:08:47			0	37340	0	0	0	30392	28980	156039	27059	1079353	46605	111316	0	0	8062	563298	0	0
2024-08-17 16:09:47			0	37333	0	0	0	30405	29000	156075	27142	1079281	46641	111321	0	0	8061	563507	0	0
2024-08-17 16:10:47			0	37332	0	0	0	30423	29000	156063	26701	1079380	46629	111328	0	0	8061	563547	0	0
2024-08-17 16:11:47			0	37330	0	0	0	30449	29010	156035	26955	1079425	46607	111338	0	0	8060	563592	0	0
2024-08-17 16:12:47			0	37351	0	0	0	30420	29010	156035	26776	1079461	46620	111327	0	0	8062	562769	0	0
2024-08-17 16:13:47			0	37350	0	0	0	30436	29020	155923	26908	1079551	46609	111333	0	0	8062	562775	0	0
2024-08-17 16:14:47			0	37344	0	0	0	30446	29010	155955	26880	1079596	46608	111337	0	0	8061	563043	0	0
2024-08-17 16:15:47			0	37359	0	0	0	30431	29030	155903	26805	1079606	46622	111331	0	0	8062	562390	0	0
2024-08-17 16:16:47			0	37364	0	0	0	30392	29030	155863	26850	1079543	46622	111316	0	0	8063	562194	0	0
2024-08-17 16:17:47			0	37373	0	0	0	30381	29030	155675	26883	1079552	46622	111312	0	0	8064	561841	0	0
2024-08-17 16:18:47			0	37410	0	0	0	30394	29030	155659	26755	1079552	46599	111317	0	0	8066	560393	0	0
2024-08-17 16:19:47			0	37459	0	0	0	30418	29030	155487	26646	1079552	46622	111326	0	0	8068	558479	0	0
2024-08-17 16:20:47			0	37492	0	0	0	30436	29030	155363	26719	1079570	46599	111333	0	0	8070	557193	0	0
2024-08-17 16:21:47			0	37512	0	0	0	30431	29030	155299	26996	1079498	46610	111331	0	0	8071	556414	0	0
2024-08-17 16:22:47			0	37523	0	0	0	30405	29040	155115	26642	1079507	46623	111321	0	0	8072	555954	0	0
2024-08-17 16:23:47			0	37561	0	0	0	30446	29040	155055	26965	1079543	46612	111337	0	0	8074	554477	0	0
2024-08-17 16:24:47			0	37588	0	0	0	30464	29040	154955	27223	1079651	46624	111344	0	0	8075	553429	0	0
2024-08-17 16:25:47			0	37590	0	0	0	30462	29050	154927	27000	1079615	46634	111343	0	0	8075	553319	0	0
2024-08-17 16:26:47			0	37615	0	0	0	30490	29050	154791	27140	1079777	46624	111354	0	0	8076	552351	0	0
2024-08-17 16:27:47			0	37610	0	0	0	30493	29060	154735	26778	1079768	46636	111355	0	0	8076	552512	0	0
2024-08-17 16:28:47			0	37640	0	0	0	30501	29070	154795	27033	1079840	46625	111358	0	0	8078	551319	0	0
2024-08-17 16:29:47			0	37646	0	0	0	30498	29070	154703	27104	1079760	46614	111357	0	0	8078	551087	0	0
2024-08-17 16:30:47			0	37649	0	0	0	30493	29080	154575	26616	1079832	46616	111355	0	0	8078	550939	0	0
2024-08-17 16:31:47			0	37674	0	0	0	30496	29090	154519	26844	1079841	46617	111356	0	0	8080	549941	0	0
2024-08-17 16:32:47			0	37712	0	0	0	30483	29090	154347	26797	1079850	46606	111351	0	0	8082	548474	0	0
2024-08-17 16:33:47			0	37720	0	0	0	30472	29080	154235	26857	1079823	46626	111347	0	0	8083	548198	0	0
2024-08-17 16:34:47			0	37759	0	0	0	30470	29090	154099	26807	1079841	46617	111346	0	0	8085	546664	0	0
2024-08-17 16:35:47			0	37803	0	0	0	30475	29090	153943	26630	1079868	46606	111348	0	0	8087	544973	0	0
2024-08-17 16:36:47			0	37839	0	0	0	30464	29080	153867	26828	1079832	46616	111344	0	0	8090	543623	0	0
2024-08-17 16:37:47			0	37856	0	0	0	30470	29080	153803	26826	1079742	46615	111346	0	0	8091	542972	0	0
2024-08-17 16:38:47			0	37883	0	0	0	30493	29090	153587	26902	1079841	46617	111355	0	0	8092	541907	0	0
2024-08-17 16:39:47			0	37886	0	0	0	30498	29080	153523	26783	1079886	46627	111357	0	0	8092	541823	0	0
2024-08-17 16:40:47			0	37917	0	0	0	30488	29090	153519	27064	1079841	46617	111353	0	0	8094	540607	0	0
2024-08-17 16:41:47			0	37928	0	0	0	30480	29090	153379	26875	1079868	46628	111350	0	0	8095	540186	0	0
2024-08-17 16:42:47			0	37940	0	0	0	30496	29090	153399	26986	1079877	46617	111356	0	0	8095	539728	0	0
2024-08-17 16:43:47			0	37945	0	0	0	30509	29090	153435	26786	1079841	46628	111361	0	0	8095	539538	0	0
2024-08-17 16:44:47			0	37942	0	0	0	30527	29090	153211	26776	1079958	46628	111368	0	0	8095	539652	0	0
2024-08-17 16:45:47			0	37949	0	0	0	30527	29100	153231	27208	1079994	46639	111368	0	0	8095	539354	0	0
2024-08-17 16:46:47			0	37951	0	0	0	30540	29110	153295	27137	1080012	46630	111373	0	0	8095	539246	0	0
2024-08-17 16:47:47			0	37943	0	0	0	30553	29110	153319	27133	1079994	46619	111378	0	0	8094	539551	0	0
2024-08-17 16:48:47			0	37946	0	0	0	30550	29120	153335	26974	1080030	46630	111377	0	0	8095	539406	0	0
2024-08-17 16:49:47			0	37950	0	0	0	30545	29120	153255	27072	1080066	46642	111375	0	0	8095	539253	0	0
2024-08-17 16:50:47			0	37952	0	0	0	30540	29120	153207	27003	1080093	46631	111373	0	0	8095	539177	0	0
2024-08-17 16:51:47			0	37982	0	0	0	30501	29130	153239	27071	1080048	46621	111358	0	0	8098	538002	0	0
2024-08-17 16:52:47			0	37956	0	0	0	30516	29120	153183	26979	1080012	46620	111364	0	0	8096	539024	0	0
2024-08-17 16:53:47			0	37983	0	0	0	30522	29130	153215	26781	1080021	46643	111366	0	0	8097	537964	0	0
2024-08-17 16:54:47			0	37967	0	0	0	30493	29130	153279	27079	1080075	46621	111355	0	0	8097	538574	0	0
2024-08-17 16:55:47			0	37962	0	0	0	30498	29120	153319	26955	1079931	46620	111357	0	0	8096	538795	0	0
2024-08-17 16:56:47			0	37947	0	0	0	30506	29130	153351	27015	1080030	46621	111360	0	0	8095	539336	0	0
2024-08-17 16:57:47			0	37956	0	0	0	30522	29120	153291	27095	1080003	46630	111366	0	0	8096	539024	0	0
2024-08-17 16:58:47			0	37939	0	0	0	30529	29120	153367	26960	1080084	46619	111369	0	0	8095	539673	0	0
2024-08-17 16:59:47			0	37935	0	0	0	30550	29110	153395	26856	1080048	46630	111377	0	0	8094	539857	0	0
2024-08-17 17:00:47			0	37921	0	0	0	30548	29120	153363	26977	1080066	46631	111376	0	0	8093	540360	0	0
2024-08-17 17:01:47			0	37936	0	0	0	30540	29130	153371	26807	1080138	46632	111373	0	0	8094	539756	0	0
2024-08-17 17:02:47			0	37905	0	0	0	30514	29130	153395	27050	1080102	46621	111363	0	0	8093	540940	0	0
2024-08-17 17:03:47			0	37911	0	0	0	30524	29130	153359	26939	1080048	46610	111367	0	0	8093	540710	0	0
2024-08-17 17:04:47			0	37924	0	0	0	30522	29130	153435	26554	1080075	46632	111366	0	0	8094	540214	0	0
2024-08-17 17:05:47			0	37923	0	0	0	30529	29130	153475	26871	1080084	46610	111369	0	0	8094	540252	0	0
2024-08-17 17:06:47			0	37890	0	0	0	30537	29140	153519	27112	1080129	46622	111372	0	0	8092	541481	0	0
2024-08-17 17:07:47			0	37899	0	0	0	30542	29130	153479	26760	1080084	46610	111374	0	0	8092	541169	0	0
2024-08-17 17:08:47			0	37898	0	0	0	30558	29130	153415	26930	1080138	46621	111380	0	0	8092	541207	0	0
2024-08-17 17:09:47			0	37913	0	0	0	30568	29150	153483	27168	1080193	46634	111384	0	0	8093	540571	0	0
2024-08-17 17:10:47			0	37901	0	0	0	30579	29150	153451	26951	1080193	46623	111388	0	0	8092	541030	0	0
2024-08-17 17:11:47			0	37939	0	0	0	30563	29150	153411	26878	1080193	46634	111382	0	0	8094	539579	0	0
2024-08-17 17:12:47			0	37917	0	0	0	30558	29150	153351	26814	1080202	46623	111380	0	0	8093	540418	0	0
2024-08-17 17:13:47			0	37934	0	0	0	30542	29150	153467	26861	1080175	46634	111374	0	0	8094	539769	0	0
2024-08-17 17:14:47			0	37937	0	0	0	30563	29150	153347	27168	1080247	46623	111382	0	0	8094	539655	0	0
2024-08-17 17:15:47			0	37940	0	0	0	30568	29160	153347	27100	1080238	46635	111384	0	0	8094	539509	0	0
2024-08-17 17:16:47			0	37951	0	0	0	30581	29160	153471	27034	1080328	46624	111389	0	0	8095	539090	0	0
2024-08-17 17:17:47			0	37944	0	0	0	30592	29160	153379	26762	1080265	46635	111393	0	0	8094	539357	0	0
2024-08-17 17:18:47			0	37979	0	0	0	30586	29160	153315	26687	1080274	46635	111391	0	0	8096	538023	0	0
2024-08-17 17:19:47			0	37962	0	0	0	30555	29180	153247	27036	1080337	46637	111379	0	0	8096	538608	0	0
2024-08-17 17:20:47			0	37986	0	0	0	30555	29160	153215	26797	1080274	46635	111379	0	0	8097	537756	0	0
2024-08-17 17:21:47			0	37972	0	0	0	30558	29170	153195	26729	1080202	46636	111380	0	0	8096	538258	0	0
2024-08-17 17:22:47			0	37997	0	0	0	30574	29160	153219	26604	1080328	46624	111386	0	0	8097	537338	0	0
2024-08-17 17:23:47			0	38005	0	0	0	30568	29170	153203	26712	1080319	46625	111384	0	0	8098	537002	0	0
2024-08-17 17:24:47			0	38011	0	0	0	30561	29170	153191	26816	1080319	46637	111381	0	0	8098	536774	0	0
2024-08-17 17:25:47			0	38012	0	0	0	30574	29170	153175	26547	1080283	46625	111386	0	0	8098	536736	0	0
2024-08-17 17:26:47			0	37999	0	0	0	30584	29170	153227	26446	1080346	46648	111390	0	0	8097	537230	0	0
2024-08-17 17:27:47			0	38003	0	0	0	30522	29170	153179	26703	1080238	46637	111366	0	0	8099	537078	0	0
2024-08-17 17:28:47			0	38002	0	0	0	30511	29160	153147	27092	1080193	46613	111362	0	0	8099	537147	0	0
2024-08-17 17:29:47			0	38026	0	0	0	30540	29160	153276	26623	1080220	46624	111373	0	0	8100	536235	0	0
2024-08-17 17:30:47			0	37993	0	0	0	30545	29160	153191	26772	1080184	46624	111375	0	0	8098	537490	0	0
2024-08-17 17:31:47			0	37994	0	0	0	30485	29160	153283	26859	1080184	46624	111352	0	0	8099	537452	0	0
2024-08-17 17:32:47			0	38004	0	0	0	30519	29160	153223	26998	1080184	46624	111365	0	0	8099	537071	0	0
2024-08-17 17:33:47			0	37982	0	0	0	30563	29150	153371	26805	1080283	46623	111382	0	0	8097	537940	0	0
2024-08-17 17:34:47			0	37969	0	0	0	30553	29150	153515	26953	1080256	46634	111378	0	0	8096	538435	0	0
2024-08-17 17:35:47			0	37974	0	0	0	30542	29160	153479	26817	1080238	46624	111374	0	0	8097	538213	0	0
2024-08-17 17:36:47			0	37940	0	0	0	30509	29150	153527	26814	1080175	46623	111361	0	0	8095	539541	0	0
2024-08-17 17:37:47			0	37956	0	0	0	30519	29150	153407	26755	1080148	46623	111365	0	0	8096	538930	0	0
2024-08-17 17:38:47			0	37938	0	0	0	30532	29150	153559	26672	1080202	46623	111370	0	0	8095	539617	0	0
2024-08-17 17:39:47			0	37916	0	0	0	30548	29150	153619	26778	1080193	46623	111376	0	0	8093	540457	0	0
2024-08-17 17:40:47			0	37908	0	0	0	30545	29150	153575	26866	1080229	46634	111375	0	0	8093	540762	0	0
2024-08-17 17:41:47			0	37873	0	0	0	30561	29160	153687	26566	1080274	46635	111381	0	0	8090	542069	0	0
2024-08-17 17:42:47			0	37882	0	0	0	30563	29170	153743	26918	1080256	46636	111382	0	0	8091	541693	0	0
2024-08-17 17:43:47			0	37859	0	0	0	30579	29160	153779	26928	1080265	46635	111388	0	0	8089	542605	0	0
2024-08-17 17:44:47			0	37834	0	0	0	30574	29170	153799	26552	1080418	46625	111386	0	0	8088	543531	0	0
2024-08-17 17:45:47			0	37838	0	0	0	30571	29160	153743	27029	1080319	46635	111385	0	0	8088	543409	0	0
2024-08-17 17:46:47			0	37823	0	0	0	30571	29170	153815	26653	1080400	46648	111385	0	0	8087	543952	0	0
2024-08-17 17:47:47			0	37825	0	0	0	30586	29170	153807	26935	1080373	46637	111391	0	0	8087	543876	0	0
2024-08-17 17:48:47			0	37811	0	0	0	30581	29180	153823	26705	1080382	46637	111389	0	0	8087	544381	0	0
2024-08-17 17:49:47			0	37795	0	0	0	30555	29180	153911	26793	1080418	46625	111379	0	0	8086	544995	0	0
2024-08-17 17:50:47			0	37796	0	0	0	30532	29170	153951	27140	1080292	46625	111370	0	0	8087	544988	0	0
2024-08-17 17:51:47			0	37802	0	0	0	30527	29170	153955	26922	1080319	46615	111368	0	0	8087	544758	0	0
2024-08-17 17:52:47			0	37793	0	0	0	30493	29170	153939	26878	1080256	46602	111355	0	0	8087	545104	0	0
2024-08-17 17:53:47			0	37803	0	0	0	30493	29160	153987	26889	1080139	46613	111355	0	0	8088	544751	0	0
2024-08-17 17:54:47			0	37810	0	0	0	30501	29150	153979	26726	1080121	46600	111358	0	0	8088	544514	0	0
2024-08-17 17:55:47			0	37801	0	0	0	30532	29150	154019	26672	1080193	46623	111370	0	0	8087	544860	0	0
2024-08-17 17:56:47			0	37788	0	0	0	30540	29150	153943	26837	1080229	46634	111373	0	0	8086	545359	0	0
2024-08-17 17:57:47			0	37805	0	0	0	30579	29150	154007	27107	1080220	46634	111388	0	0	8086	544706	0	0
2024-08-17 17:58:47			0	37789	0	0	0	30586	29160	154063	26762	1080292	46646	111391	0	0	8085	545289	0	0
2024-08-17 17:59:47			0	37785	0	0	0	30561	29160	154031	27012	1080346	46646	111381	0	0	8085	545443	0	0
2024-08-17 18:00:47			0	37799	0	0	0	30514	29170	153987	26783	1080346	46660	111363	0	0	8087	544873	0	0
2024-08-17 18:01:47			0	37791	0	0	0	30522	29160	154003	27008	1080184	46613	111366	0	0	8086	545212	0	0
2024-08-17 18:02:47			0	37791	0	0	0	30485	29160	153883	26696	1080139	46613	111352	0	0	8087	545212	0	0
2024-08-17 18:03:47			0	37797	0	0	0	30467	29150	153927	26807	1080085	46612	111345	0	0	8088	545013	0	0
2024-08-17 18:04:47			0	37806	0	0	0	30493	29130	153895	26913	1080111	46610	111355	0	0	8088	544731	0	0
2024-08-17 18:05:47			0	37819	0	0	0	30535	29140	153983	26989	1080210	46622	111371	0	0	8088	544201	0	0
2024-08-17 18:06:47			0	37793	0	0	0	30558	29150	153931	27017	1080193	46623	111380	0	0	8086	545167	0	0
2024-08-17 18:07:47			0	37819	0	0	0	30563	29150	153931	27027	1080283	46634	111382	0	0	8087	544169	0	0
2024-08-17 18:08:47			0	37812	0	0	0	30584	29150	153951	27123	1080283	46645	111390	0	0	8086	544438	0	0
2024-08-17 18:09:47			0	37815	0	0	0	30594	29160	153955	26627	1080382	46646	111394	0	0	8087	544291	0	0
2024-08-17 18:10:47			0	37816	0	0	0	30597	29160	153907	26703	1080382	46658	111395	0	0	8087	544252	0	0
2024-08-17 18:11:47			0	37809	0	0	0	30602	29170	153943	26955	1080391	46647	111397	0	0	8086	544490	0	0
2024-08-17 18:12:47			0	37814	0	0	0	30581	29180	153927	26963	1080463	46637	111389	0	0	8087	544266	0	0
2024-08-17 18:13:47			0	37814	0	0	0	30563	29180	153991	26982	1080418	46615	111382	0	0	8087	544266	0	0
2024-08-17 18:14:47			0	37817	0	0	0	30563	29180	153919	27090	1080391	46637	111382	0	0	8087	544151	0	0
2024-08-17 18:15:47			0	37826	0	0	0	30553	29180	153931	27270	1080418	46637	111378	0	0	8088	543806	0	0
2024-08-17 18:16:47			0	37806	0	0	0	30553	29180	153875	27227	1080355	46615	111378	0	0	8087	544573	0	0
2024-08-17 18:17:47			0	37830	0	0	0	30563	29180	153843	27124	1080382	46625	111382	0	0	8088	543652	0	0
2024-08-17 18:18:47			0	37823	0	0	0	30568	29180	153799	27213	1080391	46625	111384	0	0	8087	543921	0	0
2024-08-17 18:19:47			0	37819	0	0	0	30568	29170	153827	27218	1080373	46637	111384	0	0	8087	544106	0	0
2024-08-17 18:20:47			0	37830	0	0	0	30571	29180	153875	27201	1080382	46637	111385	0	0	8088	543652	0	0
2024-08-17 18:21:47			0	37818	0	0	0	30563	29170	153819	26795	1080391	46636	111382	0	0	8087	544144	0	0
2024-08-17 18:22:47			0	37822	0	0	0	30563	29170	153943	27026	1080391	46636	111382	0	0	8087	543991	0	0
2024-08-17 18:23:47			0	37791	0	0	0	30574	29170	153863	26694	1080283	46625	111386	0	0	8086	545180	0	0
2024-08-17 18:24:47			0	37773	0	0	0	30563	29170	153971	26984	1080364	46625	111382	0	0	8085	545872	0	0
2024-08-17 18:25:47			0	37772	0	0	0	30553	29160	153975	26700	1080301	46624	111378	0	0	8085	545942	0	0
2024-08-17 18:26:47			0	37786	0	0	0	30550	29160	153995	26904	1080355	46635	111377	0	0	8086	545404	0	0
2024-08-17 18:27:47			0	37763	0	0	0	30550	29170	154079	26927	1080319	46625	111377	0	0	8084	546256	0	0
2024-08-17 18:28:47			0	37744	0	0	0	30548	29170	154119	26764	1080292	46637	111376	0	0	8083	546987	0	0
2024-08-17 18:29:47			0	37770	0	0	0	30542	29170	154187	26486	1080229	46625	111374	0	0	8085	545987	0	0
2024-08-17 18:30:47			0	37746	0	0	0	30529	29150	154155	26797	1080193	46623	111369	0	0	8084	546974	0	0
2024-08-17 18:31:47			0	37724	0	0	0	30527	29150	154279	26934	1080175	46645	111368	0	0	8082	547821	0	0
2024-08-17 18:32:47			0	37720	0	0	0	30529	29160	154291	26887	1080238	46624	111369	0	0	8082	547943	0	0
2024-08-17 18:33:47			0	37689	0	0	0	30527	29140	154447	27104	1080183	46644	111368	0	0	8080	549202	0	0
2024-08-17 18:34:47			0	37664	0	0	0	30503	29140	154487	26889	1080120	46632	111359	0	0	8079	550167	0	0
2024-08-17 18:35:47			0	37663	0	0	0	30496	29140	154479	26717	1080066	46632	111356	0	0	8079	550206	0	0
2024-08-17 18:36:47			0	37636	0	0	0	30483	29140	154595	26630	1080093	46621	111351	0	0	8078	551249	0	0
2024-08-17 18:37:47			0	37617	0	0	0	30488	29110	154667	26753	1079994	46641	111353	0	0	8077	552081	0	0
2024-08-17 18:38:47			0	37604	0	0	0	30490	29120	154875	26684	1080003	46619	111354	0	0	8076	552552	0	0
2024-08-17 18:39:47			0	37560	0	0	0	30490	29120	154975	27067	1080012	46609	111354	0	0	8073	554258	0	0
2024-08-17 18:40:47			0	37554	0	0	0	30501	29120	155099	27036	1079976	46630	111358	0	0	8073	554491	0	0
2024-08-17 18:41:47			0	37529	0	0	0	30475	29110	155151	27093	1079994	46619	111348	0	0	8072	555495	0	0
2024-08-17 18:42:47			0	37511	0	0	0	30472	29100	155147	26868	1079922	46640	111347	0	0	8071	556227	0	0
2024-08-17 18:43:47			0	37506	0	0	0	30477	29100	155231	26804	1079949	46618	111349	0	0	8070	556421	0	0
2024-08-17 18:44:47			0	37493	0	0	0	30483	29110	155239	27015	1079958	46619	111351	0	0	8070	556895	0	0
2024-08-17 18:45:47			0	37463	0	0	0	30488	29110	155419	26920	1079958	46619	111353	0	0	8068	558064	0	0
2024-08-17 18:46:47			0	37470	0	0	0	30477	29090	155399	27104	1079904	46617	111349	0	0	8068	557856	0	0
2024-08-17 18:47:47			0	37442	0	0	0	30459	29100	155443	26684	1079895	46618	111342	0	0	8067	558916	0	0
2024-08-17 18:48:47			0	37451	0	0	0	30475	29100	155459	27072	1079886	46639	111348	0	0	8067	558565	0	0
2024-08-17 18:49:47			0	37450	0	0	0	30490	29090	155515	27024	1079931	46639	111354	0	0	8067	558636	0	0
2024-08-17 18:50:47			0	37430	0	0	0	30488	29090	155531	26946	1079877	46639	111353	0	0	8066	559417	0	0
2024-08-17 18:51:47			0	37410	0	0	0	30483	29080	155595	27001	1079832	46627	111351	0	0	8065	560231	0	0
2024-08-17 18:52:47			0	37404	0	0	0	30483	29090	155611	26915	1079868	46639	111351	0	0	8064	560433	0	0
2024-08-17 18:53:47			0	37403	0	0	0	30488	29090	155611	27104	1079877	46639	111353	0	0	8064	560472	0	0
2024-08-17 18:54:47			0	37420	0	0	0	30490	29090	155603	26991	1079877	46628	111354	0	0	8065	559807	0	0
2024-08-17 18:55:47			0	37399	0	0	0	30490	29090	155675	26949	1079850	46639	111354	0	0	8064	560628	0	0
2024-08-17 18:56:47			0	37405	0	0	0	30490	29090	155635	26805	1079877	46651	111354	0	0	8064	560394	0	0
2024-08-17 18:57:47			0	37412	0	0	0	30477	29090	155507	26778	1079877	46628	111349	0	0	8065	560120	0	0
2024-08-17 18:58:47			0	37416	0	0	0	30483	29080	155547	26982	1079805	46627	111351	0	0	8065	559996	0	0
2024-08-17 18:59:47			0	37416	0	0	0	30488	29080	155535	27050	1079769	46615	111353	0	0	8065	559996	0	0
2024-08-17 19:00:47			0	37425	0	0	0	30472	29090	155535	26902	1079868	46628	111347	0	0	8066	559612	0	0
2024-08-17 19:01:47			0	37411	0	0	0	30477	29080	155475	27026	1079859	46627	111349	0	0	8065	560192	0	0
2024-08-17 19:02:47			0	37427	0	0	0	30472	29090	155431	27142	1079841	46628	111347	0	0	8066	559534	0	0
2024-08-17 19:03:47			0	37433	0	0	0	30477	29090	155579	26868	1079895	46617	111349	0	0	8066	559300	0	0
2024-08-17 19:04:47			0	37421	0	0	0	30488	29080	155603	26765	1079859	46638	111353	0	0	8065	559801	0	0
2024-08-17 19:05:47			0	37426	0	0	0	30514	29080	155627	26733	1079876	46637	111363	0	0	8065	559605	0	0
2024-08-17 19:06:47			0	37408	0	0	0	30519	29080	155671	26930	1079886	46638	111365	0	0	8064	560309	0	0
2024-08-17 19:07:47			0	37414	0	0	0	30485	29090	155595	26821	1079958	46639	111352	0	0	8065	560042	0	0
2024-08-17 19:08:47			0	37407	0	0	0	30488	29090	155647	26840	1079949	46639	111353	0	0	8064	560315	0	0
2024-08-17 19:09:47			0	37415	0	0	0	30493	29090	155535	26670	1079877	46651	111355	0	0	8065	560003	0	0
2024-08-17 19:10:47			0	37412	0	0	0	30451	29090	155695	27303	1079922	46617	111339	0	0	8065	560120	0	0
2024-08-17 19:11:47			0	37423	0	0	0	30350	29080	155667	27211	1079751	46616	111300	0	0	8068	559723	0	0
2024-08-17 19:12:47			0	37432	0	0	0	30348	29070	155515	26977	1079652	46591	111299	0	0	8068	559404	0	0
2024-08-17 19:13:47			0	37420	0	0	0	30379	29060	155563	26861	1079597	46602	111311	0	0	8067	559905	0	0
2024-08-17 19:14:47			0	37447	0	0	0	30384	29050	155511	26578	1079579	46589	111313	0	0	8068	558883	0	0
2024-08-17 19:15:47			0	37423	0	0	0	30428	29040	155583	26899	1079678	46612	111330	0	0	8066	559853	0	0
2024-08-17 19:16:47			0	37454	0	0	0	30438	29050	155567	27175	1079660	46624	111334	0	0	8068	558610	0	0
2024-08-17 19:17:47			0	37457	0	0	0	30407	29040	155495	26786	1079705	46645	111322	0	0	8068	558525	0	0
2024-08-17 19:18:47			0	37459	0	0	0	30373	29040	155575	27144	1079588	46611	111309	0	0	8069	558447	0	0
2024-08-17 19:19:47			0	37453	0	0	0	30350	29030	155495	26797	1079498	46622	111300	0	0	8069	558713	0	0
2024-08-17 19:20:47			0	37456	0	0	0	30298	29030	155403	26958	1079381	46587	111280	0	0	8070	558596	0	0
2024-08-17 19:21:47			0	37459	0	0	0	30288	29020	155491	26746	1079318	46610	111276	0	0	8070	558512	0	0
2024-08-17 19:22:47			0	37471	0	0	0	30316	29010	155379	26953	1079327	46608	111287	0	0	8071	558076	0	0
2024-08-17 19:23:47			0	37471	0	0	0	30366	29010	155431	26889	1079408	46620	111306	0	0	8070	558076	0	0
2024-08-17 19:24:47			0	37480	0	0	0	30355	29010	155479	26958	1079398	46629	111302	0	0	8071	557725	0	0
2024-08-17 19:25:47			0	37469	0	0	0	30361	29000	155615	26762	1079353	46629	111304	0	0	8070	558186	0	0
2024-08-17 19:26:47			0	37408	0	0	0	30345	28990	155715	26998	1079290	46606	111298	0	0	8066	560601	0	0
2024-08-17 19:27:47			0	37359	0	0	0	30322	28990	155915	27060	1079308	46617	111289	0	0	8064	562520	0	0
2024-08-17 19:28:47			0	37330	0	0	0	30340	28990	156175	27022	1079317	46618	111296	0	0	8062	563658	0	0
2024-08-17 19:29:47			0	37306	0	0	0	30342	28980	156190	27000	1079290	46617	111297	0	0	8061	564633	0	0
2024-08-17 19:30:47			0	37275	0	0	0	30327	28990	156326	27119	1079254	46605	111291	0	0	8059	565819	0	0
2024-08-17 19:31:47			0	37229	0	0	0	30316	28980	156418	27157	1079272	46617	111287	0	0	8056	567665	0	0
2024-08-17 19:32:47			0	37193	0	0	0	30322	28970	156638	26620	1079164	46625	111289	0	0	8054	569119	0	0
2024-08-17 19:33:47			0	37174	0	0	0	30335	28970	156714	27031	1079254	46616	111294	0	0	8053	569870	0	0
2024-08-17 19:34:47			0	37144	0	0	0	30335	28970	156822	26916	1079281	46616	111294	0	0	8051	571057	0	0
2024-08-17 19:35:47			0	37119	0	0	0	30332	28970	156982	26722	1079272	46625	111293	0	0	8050	572047	0	0
2024-08-17 19:36:47			0	37124	0	0	0	30327	28970	156938	26609	1079218	46625	111291	0	0	8050	571849	0	0
2024-08-17 19:37:47			0	37109	0	0	0	30314	28960	156966	26687	1079209	46625	111286	0	0	8049	572477	0	0
2024-08-17 19:38:47			0	37076	0	0	0	30322	28970	157062	26913	1079191	46615	111289	0	0	8047	573753	0	0
2024-08-17 19:39:47			0	37086	0	0	0	30329	28950	157198	26686	1079227	46615	111292	0	0	8048	573423	0	0
2024-08-17 19:40:47			0	37063	0	0	0	30314	28950	157166	26882	1079200	46615	111286	0	0	8047	574336	0	0
2024-08-17 19:41:47			0	37053	0	0	0	30316	28950	157194	26739	1079137	46614	111287	0	0	8046	574734	0	0
2024-08-17 19:42:47			0	37048	0	0	0	30311	28950	157310	26870	1079200	46625	111285	0	0	8046	574933	0	0
2024-08-17 19:43:47			0	37024	0	0	0	30329	28940	157322	26786	1079092	46623	111292	0	0	8044	575921	0	0
2024-08-17 19:44:47			0	37005	0	0	0	30322	28940	157282	26876	1079119	46612	111289	0	0	8043	576678	0	0
2024-08-17 19:45:47			0	37005	0	0	0	30329	28930	157278	26811	1079110	46612	111292	0	0	8043	576712	0	0
2024-08-17 19:46:47			0	37014	0	0	0	30327	28930	157502	26785	1079083	46612	111291	0	0	8043	576353	0	0
2024-08-17 19:47:47			0	37010	0	0	0	30324	28950	157390	26561	1079083	46602	111290	0	0	8043	576446	0	0
2024-08-17 19:48:47			0	36995	0	0	0	30314	28940	157366	26582	1079146	46623	111286	0	0	8043	577077	0	0
2024-08-17 19:49:47			0	36987	0	0	0	30314	28930	157442	26502	1079029	46634	111286	0	0	8042	577430	0	0
2024-08-17 19:50:47			0	36992	0	0	0	30327	28930	157558	26774	1079047	46612	111291	0	0	8042	577230	0	0
2024-08-17 19:51:47			0	36965	0	0	0	30327	28920	157518	26439	1079136	46621	111291	0	0	8041	578341	0	0
2024-08-17 19:52:47			0	36981	0	0	0	30311	28930	157606	26960	1079020	46623	111285	0	0	8042	577669	0	0
2024-08-17 19:53:47			0	36953	0	0	0	30311	28920	157626	26616	1079055	46610	111285	0	0	8040	578821	0	0
2024-08-17 19:54:47			0	36962	0	0	0	30306	28920	157714	26977	1079055	46610	111283	0	0	8041	578461	0	0
2024-08-17 19:55:47			0	36960	0	0	0	30303	28910	157798	26878	1078966	46621	111282	0	0	8041	578574	0	0
2024-08-17 19:56:47			0	36926	0	0	0	30298	28920	157810	26880	1078957	46611	111280	0	0	8039	579900	0	0
2024-08-17 19:57:47			0	36939	0	0	0	30301	28920	157738	26618	1078975	46598	111281	0	0	8039	579380	0	0
2024-08-17 19:58:47			0	36925	0	0	0	30298	28910	157782	26998	1078956	46610	111280	0	0	8039	579974	0	0
2024-08-17 19:59:47			0	36923	0	0	0	30283	28910	157850	26745	1079019	46610	111274	0	0	8039	580054	0	0
2024-08-17 20:00:47			0	36918	0	0	0	30288	28900	157830	26831	1078893	46609	111276	0	0	8038	580288	0	0
2024-08-17 20:01:47			0	36934	0	0	0	30275	28910	157918	26764	1078929	46621	111271	0	0	8040	579614	0	0
2024-08-17 20:02:47			0	36923	0	0	0	30277	28900	157898	26765	1078911	46596	111272	0	0	8039	580087	0	0
2024-08-17 20:03:47			0	36909	0	0	0	30280	28900	157918	26644	1078911	46629	111273	0	0	8038	580648	0	0
2024-08-17 20:04:47			0	36908	0	0	0	30290	28880	157938	26712	1078911	46618	111277	0	0	8038	580755	0	0
2024-08-17 20:05:47			0	36874	0	0	0	30311	28900	158134	27133	1078920	46620	111285	0	0	8035	582051	0	0
2024-08-17 20:06:47			0	36883	0	0	0	30309	28900	158070	26814	1078884	46619	111284	0	0	8036	581690	0	0
2024-08-17 20:07:47			0	36879	0	0	0	30290	28890	158126	26781	1078956	46608	111277	0	0	8036	581884	0	0
2024-08-17 20:08:47			0	36878	0	0	0	30272	28890	158038	27033	1078920	46629	111270	0	0	8036	581924	0	0
2024-08-17 20:09:47			0	36875	0	0	0	30270	28890	158026	27091	1078785	46619	111269	0	0	8036	582044	0	0
2024-08-17 20:10:47			0	36861	0	0	0	30264	28880	158086	27097	1078821	46606	111267	0	0	8035	582640	0	0
2024-08-17 20:11:47			0	36869	0	0	0	30257	28880	158138	27145	1078776	46607	111264	0	0	8036	582319	0	0
2024-08-17 20:12:47			0	36858	0	0	0	30241	28880	158146	26920	1078767	46594	111258	0	0	8036	582760	0	0
2024-08-17 20:13:47			0	36844	0	0	0	30254	28880	158178	26937	1078767	46606	111263	0	0	8035	583322	0	0
2024-08-17 20:14:47			0	36857	0	0	0	30246	28870	158302	27150	1078721	46616	111260	0	0	8035	582834	0	0
2024-08-17 20:15:47			0	36818	0	0	0	30249	28870	158310	27017	1078731	46606	111261	0	0	8033	584401	0	0
2024-08-17 20:16:47			0	36813	0	0	0	30249	28870	158318	26830	1078704	46617	111261	0	0	8033	584602	0	0
2024-08-17 20:17:47			0	36807	0	0	0	30249	28870	158434	26875	1078694	46616	111261	0	0	8032	584844	0	0
2024-08-17 20:18:47			0	36784	0	0	0	30246	28860	158426	27197	1078685	46627	111260	0	0	8031	585804	0	0
2024-08-17 20:19:47			0	36789	0	0	0	30254	28860	158506	26745	1078703	46615	111263	0	0	8031	585602	0	0
2024-08-17 20:20:47			0	36785	0	0	0	30254	28860	158402	26871	1078703	46626	111263	0	0	8031	585764	0	0
2024-08-17 20:21:47			0	36764	0	0	0	30244	28850	158546	27176	1078640	46614	111259	0	0	8030	586644	0	0
2024-08-17 20:22:47			0	36765	0	0	0	30246	28850	158502	27000	1078631	46625	111260	0	0	8030	586604	0	0
2024-08-17 20:23:47			0	36748	0	0	0	30246	28850	158522	26906	1078613	46614	111260	0	0	8029	587289	0	0
2024-08-17 20:24:47			0	36770	0	0	0	30246	28850	158534	26805	1078667	46614	111260	0	0	8030	586402	0	0
2024-08-17 20:25:47			0	36753	0	0	0	30241	28860	158582	26767	1078685	46616	111258	0	0	8029	587054	0	0
2024-08-17 20:26:47			0	36726	0	0	0	30238	28850	158710	26753	1078631	46603	111257	0	0	8028	588178	0	0
2024-08-17 20:27:47			0	36740	0	0	0	30246	28850	158626	26887	1078577	46603	111260	0	0	8028	587612	0	0
2024-08-17 20:28:47			0	36724	0	0	0	30241	28850	158726	27157	1078658	46603	111258	0	0	8028	588259	0	0
2024-08-17 20:29:47			0	36721	0	0	0	30236	28850	158758	27060	1078604	46614	111256	0	0	8027	588380	0	0
2024-08-17 20:30:47			0	36689	0	0	0	30236	28850	158914	26847	1078658	46614	111256	0	0	8026	589674	0	0
2024-08-17 20:31:47			0	36674	0	0	0	30220	28850	158950	26878	1078577	46603	111250	0	0	8025	590281	0	0
2024-08-17 20:32:47			0	36655	0	0	0	30223	28850	159010	27142	1078577	46603	111251	0	0	8024	591051	0	0
2024-08-17 20:33:47			0	36631	0	0	0	30223	28840	159130	27367	1078505	46602	111251	0	0	8022	592059	0	0
2024-08-17 20:34:47			0	36620	0	0	0	30223	28840	159254	26828	1078613	46613	111251	0	0	8022	592505	0	0
2024-08-17 20:35:47			0	36602	0	0	0	30215	28830	159270	26965	1078550	46612	111248	0	0	8021	593271	0	0
2024-08-17 20:36:47			0	36594	0	0	0	30228	28840	159321	26871	1078568	46591	111253	0	0	8020	593561	0	0
2024-08-17 20:37:47			0	36587	0	0	0	30225	28840	159345	26727	1078559	46613	111252	0	0	8020	593846	0	0
2024-08-17 20:38:47			0	36568	0	0	0	30223	28830	159481	26831	1078469	46601	111251	0	0	8019	594653	0	0
2024-08-17 20:39:47			0	36548	0	0	0	30220	28830	159329	26693	1078514	46612	111250	0	0	8017	595468	0	0
2024-08-17 20:40:47			0	36541	0	0	0	30220	28830	159397	26753	1078496	46601	111250	0	0	8017	595753	0	0
2024-08-17 20:41:47			0	36550	0	0	0	30220	28830	159513	26902	1078523	46612	111250	0	0	8018	595387	0	0
2024-08-17 20:42:47			0	36533	0	0	0	30212	28830	159489	27000	1078514	46623	111247	0	0	8017	596079	0	0
2024-08-17 20:43:47			0	36511	0	0	0	30202	28820	159493	27090	1078451	46623	111243	0	0	8015	597011	0	0
2024-08-17 20:44:47			0	36498	0	0	0	30210	28830	159661	26986	1078523	46623	111246	0	0	8015	597508	0	0
2024-08-17 20:45:47			0	36494	0	0	0	30205	28820	159649	27192	1078532	46601	111244	0	0	8014	597706	0	0
2024-08-17 20:46:47			0	36482	0	0	0	30210	28830	159657	26720	1078541	46601	111246	0	0	8014	598161	0	0
2024-08-17 20:47:47			0	36493	0	0	0	30207	28820	159741	26920	1078478	46612	111245	0	0	8014	597746	0	0
2024-08-17 20:48:47			0	36476	0	0	0	30205	28820	159825	26772	1078505	46612	111244	0	0	8013	598441	0	0
2024-08-17 20:49:47			0	36463	0	0	0	30207	28820	159737	26890	1078469	46611	111245	0	0	8013	598973	0	0
2024-08-17 20:50:47			0	36471	0	0	0	30210	28820	159853	26977	1078469	46600	111246	0	0	8013	598646	0	0
2024-08-17 20:51:47			0	36457	0	0	0	30207	28810	159861	26594	1078478	46610	111245	0	0	8012	599253	0	0
2024-08-17 20:52:47			0	36435	0	0	0	30205	28820	159873	26968	1078442	46600	111244	0	0	8011	600119	0	0
2024-08-17 20:53:47			0	36436	0	0	0	30212	28820	159929	26844	1078424	46601	111247	0	0	8011	600078	0	0
2024-08-17 20:54:47			0	36427	0	0	0	30207	28820	159985	26977	1078496	46611	111245	0	0	8010	600447	0	0
2024-08-17 20:55:47			0	36436	0	0	0	30218	28810	160025	26955	1078433	46622	111249	0	0	8011	600113	0	0
2024-08-17 20:56:47			0	36433	0	0	0	30223	28820	160085	26765	1078496	46622	111251	0	0	8010	600201	0	0
2024-08-17 20:57:47			0	36420	0	0	0	30220	28820	160093	26934	1078469	46622	111250	0	0	8010	600734	0	0
2024-08-17 20:58:47			0	36436	0	0	0	30215	28810	160321	26526	1078433	46610	111248	0	0	8011	600113	0	0
2024-08-17 20:59:47			0	36406	0	0	0	30220	28810	160121	26800	1078514	46622	111250	0	0	8009	601343	0	0
2024-08-17 21:00:47			0	36405	0	0	0	30220	28820	160053	26720	1078523	46611	111250	0	0	8009	601349	0	0
2024-08-17 21:01:47			0	36401	0	0	0	30218	28810	160265	26571	1078487	46622	111249	0	0	8009	601548	0	0
2024-08-17 21:02:47			0	36408	0	0	0	30194	28820	160077	26578	1078478	46601	111240	0	0	8009	601226	0	0
2024-08-17 21:03:47			0	36443	0	0	0	30205	28820	160113	26844	1078415	46611	111244	0	0	8011	599791	0	0
2024-08-17 21:04:47			0	36398	0	0	0	30194	28810	159981	26717	1078397	46610	111240	0	0	8009	601671	0	0
2024-08-17 21:05:47			0	36418	0	0	0	30197	28810	160089	27017	1078424	46610	111241	0	0	8010	600851	0	0
2024-08-17 21:06:47			0	36419	0	0	0	30181	28810	160041	26785	1078397	46632	111235	0	0	8010	600810	0	0
2024-08-17 21:07:47			0	36402	0	0	0	30189	28810	160089	26928	1078397	46610	111238	0	0	8009	601507	0	0
2024-08-17 21:08:47			0	36419	0	0	0	30176	28810	160053	26779	1078424	46599	111233	0	0	8010	600810	0	0
2024-08-17 21:09:47			0	36407	0	0	0	30174	28810	160065	26837	1078370	46610	111232	0	0	8010	601302	0	0
2024-08-17 21:10:47			0	36396	0	0	0	30176	28800	160113	26743	1078325	46598	111233	0	0	8009	601788	0	0
2024-08-17 21:11:47			0	36373	0	0	0	30181	28800	160209	26968	1078334	46609	111235	0	0	8008	602732	0	0
2024-08-17 21:12:47			0	36343	0	0	0	30174	28800	160341	26807	1078298	46621	111232	0	0	8006	603966	0	0
2024-08-17 21:13:47			0	36333	0	0	0	30166	28800	160365	26844	1078352	46609	111229	0	0	8005	604377	0	0
2024-08-17 21:14:47			0	36325	0	0	0	30155	28790	160541	26790	1078334	46597	111225	0	0	8005	604742	0	0
2024-08-17 21:15:47			0	36282	0	0	0	30153	28790	160633	26791	1078262	46597	111224	0	0	8003	606515	0	0
2024-08-17 21:16:47			0	36278	0	0	0	30163	28780	160637	26698	1078235	46607	111228	0	0	8002	606715	0	0
2024-08-17 21:17:47			0	36257	0	0	0	30148	28780	160805	26875	1078235	46596	111222	0	0	8001	607582	0	0
2024-08-17 21:18:47			0	36250	0	0	0	30142	28770	160785	26850	1078189	46616	111220	0	0	8001	607907	0	0
2024-08-17 21:19:47			0	36219	0	0	0	30132	28770	160921	26686	1078135	46594	111216	0	0	7999	609189	0	0
2024-08-17 21:20:47			0	36204	0	0	0	30135	28760	160981	26889	1078171	46594	111217	0	0	7998	609846	0	0
2024-08-17 21:21:47			0	36191	0	0	0	30124	28760	160985	26724	1078099	46605	111213	0	0	7997	610384	0	0
2024-08-17 21:22:47			0	36176	0	0	0	30127	28760	161137	27043	1078171	46605	111214	0	0	7996	611006	0	0
2024-08-17 21:23:47			0	36155	0	0	0	30114	28750	161213	26864	1078027	46593	111209	0	0	7995	611913	0	0
2024-08-17 21:24:47			0	36124	0	0	0	30114	28750	161349	27092	1078099	46614	111209	0	0	7994	613202	0	0
2024-08-17 21:25:47			0	36089	0	0	0	30124	28750	161509	26984	1078045	46603	111213	0	0	7991	614659	0	0
2024-08-17 21:26:47			0	36079	0	0	0	30122	28750	161557	26800	1078081	46593	111212	0	0	7991	615075	0	0
2024-08-17 21:27:47			0	36051	0	0	0	30124	28740	161669	27078	1078036	46592	111213	0	0	7989	616279	0	0
2024-08-17 21:28:47			0	36038	0	0	0	30127	28740	161785	26989	1078027	46614	111214	0	0	7988	616822	0	0
2024-08-17 21:29:47			0	35996	0	0	0	30129	28750	161793	27029	1078099	46614	111215	0	0	7986	618542	0	0
2024-08-17 21:30:47			0	35979	0	0	0	30127	28730	162001	27112	1077991	46602	111214	0	0	7984	619325	0	0
2024-08-17 21:31:47			0	35963	0	0	0	30129	28740	162073	27085	1078036	46614	111215	0	0	7984	619960	0	0
2024-08-17 21:32:47			0	35962	0	0	0	30132	28750	162229	26847	1078099	46625	111216	0	0	7983	619966	0	0
2024-08-17 21:33:47			0	35928	0	0	0	30124	28740	162281	26993	1078117	46614	111213	0	0	7982	621428	0	0
2024-08-17 21:34:47			0	35933	0	0	0	30122	28740	162273	27000	1078036	46603	111212	0	0	7982	621218	0	0
2024-08-17 21:35:47			0	35936	0	0	0	30116	28740	162225	26982	1078000	46614	111210	0	0	7982	621092	0	0
2024-08-17 21:36:47			0	35918	0	0	0	30103	28730	162225	26826	1077955	46613	111205	0	0	7981	621884	0	0
2024-08-17 21:37:47			0	35899	0	0	0	30109	28730	162445	26932	1077964	46614	111207	0	0	7980	622683	0	0
2024-08-17 21:38:47			0	35904	0	0	0	30122	28740	162361	26870	1077928	46614	111212	0	0	7980	622436	0	0
2024-08-17 21:39:47			0	35914	0	0	0	30116	28730	162381	27098	1077982	46624	111210	0	0	7981	622052	0	0
2024-08-17 21:40:47			0	35898	0	0	0	30114	28740	162409	26876	1078000	46591	111209	0	0	7980	622689	0	0
2024-08-17 21:41:47			0	35917	0	0	0	30122	28730	162369	26736	1077982	46613	111212	0	0	7981	621926	0	0
2024-08-17 21:42:47			0	35891	0	0	0	30119	28730	162361	26729	1077982	46601	111211	0	0	7979	623019	0	0
2024-08-17 21:43:47			0	35916	0	0	0	30116	28730	162353	26875	1077955	46590	111210	0	0	7981	621968	0	0
2024-08-17 21:44:47			0	35921	0	0	0	30116	28730	162369	26783	1077928	46624	111210	0	0	7981	621758	0	0
2024-08-17 21:45:47			0	35900	0	0	0	30116	28730	162513	26812	1077982	46613	111210	0	0	7980	622640	0	0
2024-08-17 21:46:47			0	35895	0	0	0	30122	28730	162425	27078	1078036	46613	111212	0	0	7980	622851	0	0
2024-08-17 21:47:47			0	35879	0	0	0	30114	28730	162417	27036	1078036	46590	111209	0	0	7979	623524	0	0
2024-08-17 21:48:47			0	35904	0	0	0	30122	28730	162477	26760	1077964	46614	111212	0	0	7980	622472	0	0
2024-08-17 21:49:47			0	35893	0	0	0	30116	28720	162441	26824	1077973	46613	111210	0	0	7979	622971	0	0
2024-08-17 21:50:47			0	35910	0	0	0	30109	28740	162365	26802	1078054	46602	111207	0	0	7981	622184	0	0
2024-08-17 21:51:47			0	35889	0	0	0	30109	28720	162421	27062	1077973	46613	111207	0	0	7979	623139	0	0
2024-08-17 21:52:47			0	35913	0	0	0	30106	28720	162369	26835	1077946	46613	111206	0	0	7981	622130	0	0
2024-08-17 21:53:47			0	35904	0	0	0	30116	28730	162293	26904	1077982	46613	111210	0	0	7980	622472	0	0
2024-08-17 21:54:47			0	35898	0	0	0	30116	28730	162369	26641	1077955	46613	111210	0	0	7980	622725	0	0
2024-08-17 21:55:47			0	35909	0	0	0	30106	28720	162341	26752	1077937	46612	111206	0	0	7981	622298	0	0
2024-08-17 21:56:47			0	35922	0	0	0	30106	28710	162381	26994	1077874	46612	111206	0	0	7981	621788	0	0
2024-08-17 21:57:47			0	35899	0	0	0	30101	28710	162457	26897	1077982	46623	111204	0	0	7980	622755	0	0
2024-08-17 21:58:47			0	35911	0	0	0	30093	28720	162441	26998	1077856	46589	111201	0	0	7981	622214	0	0
2024-08-17 21:59:47			0	35912	0	0	0	30103	28720	162325	26982	1077883	46623	111205	0	0	7981	622172	0	0
2024-08-17 22:00:47			0	35919	0	0	0	30101	28710	162285	26876	1077901	46612	111204	0	0	7981	621914	0	0
2024-08-17 22:01:47			0	35923	0	0	0	30116	28720	162177	27029	1077964	46612	111210	0	0	7981	621710	0	0
2024-08-17 22:02:47			0	35965	0	0	0	30109	28710	162133	27038	1077901	46612	111207	0	0	7984	619984	0	0
2024-08-17 22:03:47			0	35970	0	0	0	30103	28710	162165	27069	1077820	46612	111205	0	0	7984	619774	0	0
2024-08-17 22:04:47			0	35970	0	0	0	30090	28710	161973	26908	1077847	46612	111200	0	0	7984	619774	0	0
2024-08-17 22:05:47			0	36008	0	0	0	30093	28710	161913	27215	1077865	46588	111201	0	0	7987	618183	0	0
2024-08-17 22:06:47			0	36003	0	0	0	30080	28710	161945	26705	1077793	46600	111196	0	0	7987	618392	0	0
2024-08-17 22:07:47			0	36027	0	0	0	30072	28710	161681	26804	1077838	46599	111193	0	0	7988	617389	0	0
2024-08-17 22:08:47			0	36043	0	0	0	30085	28710	161845	26710	1077838	46611	111198	0	0	7989	616720	0	0
2024-08-17 22:09:47			0	36031	0	0	0	30090	28700	161869	26928	1077829	46611	111200	0	0	7988	617257	0	0
2024-08-17 22:10:47			0	35999	0	0	0	30088	28690	161941	26759	1077892	46609	111199	0	0	7986	618631	0	0
2024-08-17 22:11:47			0	35988	0	0	0	30090	28710	161961	27034	1077874	46612	111200	0	0	7986	619020	0	0
2024-08-17 22:12:47			0	35976	0	0	0	30088	28700	162073	27057	1077856	46622	111199	0	0	7985	619558	0	0
2024-08-17 22:13:47			0	35971	0	0	0	30083	28700	162169	27244	1077820	46598	111197	0	0	7985	619768	0	0
2024-08-17 22:14:47			0	35981	0	0	0	30085	28690	162085	26856	1077838	46609	111198	0	0	7985	619385	0	0
2024-08-17 22:15:47			0	35977	0	0	0	30083	28700	162097	27144	1077793	46621	111197	0	0	7985	619517	0	0
2024-08-17 22:16:47			0	35984	0	0	0	30080	28700	162081	27111	1077856	46599	111196	0	0	7985	619223	0	0
2024-08-17 22:17:47			0	35963	0	0	0	30083	28700	162037	26977	1077820	46621	111197	0	0	7984	620103	0	0
2024-08-17 22:18:47			0	35947	0	0	0	30075	28690	162145	26968	1077811	46587	111194	0	0	7983	620810	0	0
2024-08-17 22:19:47			0	35956	0	0	0	30075	28700	162217	26908	1077802	46588	111194	0	0	7984	620397	0	0
2024-08-17 22:20:47			0	35955	0	0	0	30070	28680	162129	26824	1077766	46597	111192	0	0	7984	620511	0	0
2024-08-17 22:21:47			0	35960	0	0	0	30064	28690	162213	27005	1077748	46597	111190	0	0	7984	620265	0	0
2024-08-17 22:22:47			0	35959	0	0	0	30062	28690	162121	26902	1077721	46597	111189	0	0	7984	620307	0	0
2024-08-17 22:23:47			0	35947	0	0	0	30064	28680	162141	27050	1077676	46596	111190	0	0	7983	620846	0	0
2024-08-17 22:24:47			0	35938	0	0	0	30070	28680	162229	27123	1077685	46620	111192	0	0	7983	621224	0	0
2024-08-17 22:25:47			0	35921	0	0	0	30067	28680	162257	26823	1077712	46608	111191	0	0	7982	621938	0	0
2024-08-17 22:26:47			0	35909	0	0	0	30062	28680	162409	26909	1077757	46607	111189	0	0	7981	622442	0	0
2024-08-17 22:27:47			0	35897	0	0	0	30062	28670	162401	26890	1077667	46606	111189	0	0	7980	622983	0	0
2024-08-17 22:28:47			0	35888	0	0	0	30064	28670	162497	26835	1077694	46584	111190	0	0	7980	623362	0	0
2024-08-17 22:29:47			0	35881	0	0	0	30062	28680	162565	26981	1077712	46608	111189	0	0	7979	623620	0	0
2024-08-17 22:30:47			0	35859	0	0	0	30062	28670	162509	26946	1077720	46618	111189	0	0	7978	624583	0	0
2024-08-17 22:31:47			0	35863	0	0	0	30059	28660	162649	27116	1077711	46606	111188	0	0	7978	624451	0	0
2024-08-17 22:32:47			0	35855	0	0	0	30057	28680	162701	26783	1077649	46619	111187	0	0	7978	624715	0	0
2024-08-17 22:33:47			0	35851	0	0	0	30062	28660	162596	27194	1077631	46606	111189	0	0	7978	624956	0	0
2024-08-17 22:34:47			0	35833	0	0	0	30049	28650	162740	26821	1077666	46606	111184	0	0	7977	625752	0	0
2024-08-17 22:35:47			0	35847	0	0	0	30049	28660	162660	26948	1077658	46606	111184	0	0	7977	625125	0	0
2024-08-17 22:36:47			0	35845	0	0	0	30044	28660	162636	27176	1077622	46617	111182	0	0	7977	625209	0	0
2024-08-17 22:37:47			0	35816	0	0	0	30041	28660	162760	26958	1077604	46606	111181	0	0	7976	626433	0	0
2024-08-17 22:38:47			0	35829	0	0	0	30057	28660	162828	27059	1077675	46594	111187	0	0	7976	625885	0	0
2024-08-17 22:39:47			0	35811	0	0	0	30059	28660	163012	26920	1077648	46617	111188	0	0	7975	626644	0	0
2024-08-17 22:40:47			0	35819	0	0	0	30054	28650	162800	26693	1077666	46606	111186	0	0	7976	626343	0	0
2024-08-17 22:41:47			0	35832	0	0	0	30059	28660	162944	26842	1077702	46606	111188	0	0	7976	625758	0	0
2024-08-17 22:42:47			0	35828	0	0	0	30057	28660	162868	26700	1077631	46606	111187	0	0	7976	625927	0	0
2024-08-17 22:43:47			0	35822	0	0	0	30067	28660	162864	26757	1077702	46606	111191	0	0	7976	626180	0	0
2024-08-17 22:44:47			0	35830	0	0	0	30064	28650	162832	27001	1077639	46606	111190	0	0	7976	625878	0	0
2024-08-17 22:45:47			0	35819	0	0	0	30067	28660	162780	26927	1077595	46617	111191	0	0	7975	626307	0	0
2024-08-17 22:46:47			0	35836	0	0	0	30067	28660	162820	26738	1077604	46606	111191	0	0	7977	625589	0	0
2024-08-17 22:47:47			0	35844	0	0	0	30054	28660	162840	26824	1077631	46606	111186	0	0	7977	625252	0	0
2024-08-17 22:48:47			0	35813	0	0	0	30059	28660	162816	26878	1077702	46594	111188	0	0	7975	626560	0	0
2024-08-17 22:49:47			0	35831	0	0	0	30038	28650	162660	27034	1077693	46606	111180	0	0	7977	625836	0	0
2024-08-17 22:50:47			0	35822	0	0	0	30046	28650	162664	26821	1077585	46617	111183	0	0	7976	626216	0	0
2024-08-17 22:51:47			0	35862	0	0	0	30054	28650	162761	27048	1077666	46606	111186	0	0	7978	624529	0	0
2024-08-17 22:52:47			0	35847	0	0	0	30057	28660	162796	27012	1077711	46606	111187	0	0	7977	625125	0	0
2024-08-17 22:53:47			0	35830	0	0	0	30054	28660	162816	26814	1077622	46606	111186	0	0	7976	625842	0	0
2024-08-17 22:54:47			0	35863	0	0	0	30049	28650	162689	26970	1077603	46605	111184	0	0	7978	624487	0	0
2024-08-17 22:55:47			0	35859	0	0	0	30044	28650	162688	26974	1077612	46617	111182	0	0	7978	624655	0	0
2024-08-17 22:56:47			0	35862	0	0	0	30044	28660	162652	26932	1077702	46617	111182	0	0	7978	624493	0	0
2024-08-17 22:57:47			0	35866	0	0	0	30033	28660	162557	26972	1077648	46617	111178	0	0	7979	624324	0	0
2024-08-17 22:58:47			0	35864	0	0	0	30049	28650	162621	26616	1077639	46617	111184	0	0	7978	624445	0	0
2024-08-17 22:59:47			0	35861	0	0	0	30046	28650	162565	26875	1077639	46617	111183	0	0	7978	624571	0	0
2024-08-17 23:00:47			0	35878	0	0	0	30049	28650	162749	26844	1077612	46606	111184	0	0	7979	623855	0	0
2024-08-17 23:01:47			0	35840	0	0	0	30036	28660	162740	27064	1077648	46617	111179	0	0	7977	625420	0	0
2024-08-17 23:02:47			0	35860	0	0	0	30033	28650	162725	27033	1077576	46616	111178	0	0	7978	624613	0	0
2024-08-17 23:03:47			0	35863	0	0	0	30010	28640	162689	26864	1077585	46604	111169	0	0	7979	624523	0	0
2024-08-17 23:04:47			0	35842	0	0	0	30015	28650	162680	26861	1077576	46605	111171	0	0	7978	625372	0	0
2024-08-17 23:05:47			0	35833	0	0	0	30012	28640	162772	27038	1077504	46604	111170	0	0	7977	625788	0	0
2024-08-17 23:06:47			0	35832	0	0	0	30012	28640	162784	26745	1077531	46592	111170	0	0	7977	625830	0	0
2024-08-17 23:07:47			0	35822	0	0	0	30023	28640	162872	27034	1077531	46615	111174	0	0	7976	626253	0	0
2024-08-17 23:08:47			0	35804	0	0	0	30007	28620	162932	26934	1077495	46613	111168	0	0	7975	627085	0	0
2024-08-17 23:09:47			0	35783	0	0	0	30007	28630	162948	27027	1077468	46615	111168	0	0	7974	627937	0	0
2024-08-17 23:10:47			0	35760	0	0	0	30002	28630	163044	27039	1077468	46582	111166	0	0	7973	628911	0	0
2024-08-17 23:11:47			0	35765	0	0	0	30023	28620	163056	26823	1077504	46601	111174	0	0	7973	628735	0	0
2024-08-17 23:12:47			0	35728	0	0	0	30033	28630	163228	26798	1077522	46615	111178	0	0	7970	630267	0	0
2024-08-17 23:13:47			0	35726	0	0	0	30025	28630	163328	26823	1077495	46592	111175	0	0	7970	630352	0	0
2024-08-17 23:14:47			0	35720	0	0	0	30015	28620	163272	26951	1077495	46601	111171	0	0	7970	630643	0	0
2024-08-17 23:15:47			0	35733	0	0	0	30005	28630	163372	26920	1077495	46604	111167	0	0	7971	630055	0	0
2024-08-17 23:16:47			0	35737	0	0	0	30010	28620	163280	26904	1077504	46613	111169	0	0	7971	629922	0	0
2024-08-17 23:17:47			0	35749	0	0	0	29997	28630	163332	26686	1077459	46603	111164	0	0	7972	629377	0	0
2024-08-17 23:18:47			0	35705	0	0	0	29994	28610	163356	26852	1077486	46590	111163	0	0	7970	631316	0	0
2024-08-17 23:19:47			0	35715	0	0	0	29997	28620	163360	26708	1077477	46590	111164	0	0	7970	630855	0	0
2024-08-17 23:20:47			0	35698	0	0	0	30015	28610	163400	26955	1077459	46601	111171	0	0	7969	631614	0	0
2024-08-17 23:21:47			0	35679	0	0	0	30023	28610	163484	26984	1077504	46589	111174	0	0	7967	632421	0	0
2024-08-17 23:22:47			0	35672	0	0	0	30025	28610	163664	27067	1077540	46601	111175	0	0	7967	632719	0	0
2024-08-17 23:23:47			0	35669	0	0	0	30015	28610	163604	27124	1077486	46601	111171	0	0	7967	632847	0	0
2024-08-17 23:24:47			0	35661	0	0	0	30020	28620	163584	27067	1077477	46601	111173	0	0	7966	633151	0	0
2024-08-17 23:25:47			0	35678	0	0	0	30031	28620	163644	26937	1077522	46601	111177	0	0	7967	632427	0	0
2024-08-17 23:26:47			0	35670	0	0	0	30020	28620	163552	27055	1077549	46601	111173	0	0	7967	632768	0	0
2024-08-17 23:27:47			0	35685	0	0	0	30018	28620	163496	27164	1077441	46601	111172	0	0	7968	632130	0	0
2024-08-17 23:28:47			0	35702	0	0	0	30020	28620	163484	27189	1077468	46601	111173	0	0	7969	631407	0	0
2024-08-17 23:29:47			0	35712	0	0	0	30020	28620	163388	27142	1077468	46601	111173	0	0	7970	630983	0	0
2024-08-17 23:30:47			0	35717	0	0	0	30023	28610	163332	27069	1077459	46613	111174	0	0	7970	630807	0	0
2024-08-17 23:31:47			0	35732	0	0	0	30023	28630	163316	27052	1077495	46604	111174	0	0	7971	630098	0	0
2024-08-17 23:32:47			0	35778	0	0	0	30007	28610	163144	27034	1077486	46601	111168	0	0	7974	628221	0	0
2024-08-17 23:33:47			0	35765	0	0	0	30007	28610	163140	27059	1077423	46600	111168	0	0	7973	628772	0	0
2024-08-17 23:34:47			0	35775	0	0	0	30010	28620	163064	27083	1077477	46613	111169	0	0	7974	628312	0	0
2024-08-17 23:35:47			0	35779	0	0	0	30012	28610	163188	26672	1077378	46601	111170	0	0	7974	628179	0	0
2024-08-17 23:36:47			0	35772	0	0	0	30015	28600	163016	26923	1077441	46611	111171	0	0	7973	628512	0	0
2024-08-17 23:37:47			0	35777	0	0	0	30018	28610	163140	26847	1077513	46590	111172	0	0	7974	628264	0	0
2024-08-17 23:38:47			0	35774	0	0	0	30020	28610	163136	27000	1077513	46601	111173	0	0	7973	628391	0	0
2024-08-17 23:39:47			0	35770	0	0	0	30015	28630	163104	27053	1077495	46604	111171	0	0	7973	628487	0	0
2024-08-17 23:40:47			0	35753	0	0	0	30002	28620	163188	27007	1077414	46601	111166	0	0	7972	629244	0	0
2024-08-17 23:41:47			0	35774	0	0	0	29992	28610	163084	26987	1077432	46590	111162	0	0	7974	628391	0	0
2024-08-17 23:42:47			0	35775	0	0	0	29984	28600	163104	26991	1077360	46599	111159	0	0	7974	628385	0	0
2024-08-17 23:43:47			0	35760	0	0	0	29986	28600	163200	26823	1077360	46599	111160	0	0	7973	629020	0	0
2024-08-17 23:44:47			0	35724	0	0	0	30002	28600	163284	27055	1077306	46599	111166	0	0	7971	630546	0	0
2024-08-17 23:45:47			0	35700	0	0	0	29986	28600	163420	26955	1077306	46588	111160	0	0	7969	631565	0	0
2024-08-17 23:46:47			0	35683	0	0	0	29986	28600	163540	26975	1077306	46599	111160	0	0	7968	632288	0	0
2024-08-17 23:47:47			0	35655	0	0	0	29979	28600	163552	26542	1077324	46599	111157	0	0	7967	633479	0	0
2024-08-17 23:48:47			0	35654	0	0	0	29966	28590	163700	26868	1077369	46588	111152	0	0	7967	633559	0	0
2024-08-17 23:49:47			0	35628	0	0	0	29966	28600	163708	26928	1077297	46588	111152	0	0	7965	634630	0	0
2024-08-17 23:50:47			0	35609	0	0	0	29976	28590	163832	26594	1077288	46588	111156	0	0	7964	635477	0	0
2024-08-17 23:51:47			0	35582	0	0	0	29963	28600	163884	26922	1077297	46599	111151	0	0	7963	636593	0	0
2024-08-17 23:52:47			0	35570	0	0	0	29963	28590	164056	26569	1077252	46587	111151	0	0	7962	637143	0	0
2024-08-17 23:53:47			0	35570	0	0	0	29963	28580	164068	26464	1077216	46598	111151	0	0	7962	637180	0	0
2024-08-17 23:54:47			0	35558	0	0	0	29979	28580	164164	26911	1077243	46598	111157	0	0	7961	637693	0	0
2024-08-17 23:55:47			0	35543	0	0	0	29979	28570	164076	26998	1077243	46597	111157	0	0	7960	638372	0	0
2024-08-17 23:56:47			0	35548	0	0	0	29979	28580	164216	26814	1077261	46598	111157	0	0	7960	638121	0	0
2024-08-17 23:57:47			0	35533	0	0	0	29968	28580	164056	26960	1077261	46609	111153	0	0	7959	638763	0	0
2024-08-17 23:58:47			0	35559	0	0	0	29981	28580	164160	27013	1077243	46609	111158	0	0	7961	637651	0	0
2024-08-17 23:59:47			0	35566	0	0	0	29984	28580	164096	27208	1077297	46598	111159	0	0	7961	637351	0	0
2024-08-18 00:00:47			0	35566	0	0	0	29986	28580	164136	26793	1077270	46598	111160	0	0	7961	637351	0	0
2024-08-18 00:01:47			0	35590	0	0	0	29973	28580	164036	26913	1077261	46598	111155	0	0	7963	636325	0	0
2024-08-18 00:02:47			0	35578	0	0	0	29973	28580	164052	26875	1077270	46609	111155	0	0	7962	636838	0	0
2024-08-18 00:03:47			0	35579	0	0	0	29971	28580	163888	26871	1077270	46586	111154	0	0	7962	636795	0	0
2024-08-18 00:04:47			0	35598	0	0	0	29966	28580	163984	27052	1077288	46586	111152	0	0	7963	635983	0	0
2024-08-18 00:05:47			0	35596	0	0	0	29979	28570	164096	26569	1077225	46597	111157	0	0	7963	636106	0	0
2024-08-18 00:06:47			0	35604	0	0	0	29981	28570	164012	27067	1077171	46608	111158	0	0	7963	635764	0	0
2024-08-18 00:07:47			0	35590	0	0	0	29973	28570	163900	26800	1077252	46597	111155	0	0	7963	636362	0	0
2024-08-18 00:08:47			0	35607	0	0	0	29963	28590	163900	26937	1077225	46610	111151	0	0	7964	635563	0	0
2024-08-18 00:09:47			0	35619	0	0	0	29958	28570	163816	26750	1077198	46608	111149	0	0	7965	635124	0	0
2024-08-18 00:10:47			0	35651	0	0	0	29968	28570	163708	26726	1077243	46608	111153	0	0	7966	633760	0	0
2024-08-18 00:11:47			0	35644	0	0	0	29966	28570	163652	26524	1077278	46608	111152	0	0	7966	634058	0	0
2024-08-18 00:12:47			0	35673	0	0	0	29966	28570	163592	26706	1077278	46585	111152	0	0	7968	632823	0	0
2024-08-18 00:13:47			0	35662	0	0	0	29966	28580	163544	26977	1077234	46609	111152	0	0	7967	633255	0	0
2024-08-18 00:14:47			0	35667	0	0	0	29945	28560	163588	26833	1077180	46584	111144	0	0	7968	633115	0	0
2024-08-18 00:15:47			0	35664	0	0	0	29948	28570	163632	26854	1077135	46608	111145	0	0	7968	633206	0	0
2024-08-18 00:16:47			0	35657	0	0	0	29945	28570	163772	26967	1077135	46597	111144	0	0	7967	633504	0	0
2024-08-18 00:17:47			0	35648	0	0	0	29940	28570	163700	26842	1077144	46608	111142	0	0	7967	633888	0	0
2024-08-18 00:18:47			0	35623	0	0	0	29940	28560	163820	26741	1077126	46574	111142	0	0	7965	634990	0	0
2024-08-18 00:19:47			0	35601	0	0	0	29937	28550	163936	26811	1077054	46595	111141	0	0	7964	635966	0	0
2024-08-18 00:20:47			0	35566	0	0	0	29945	28550	164084	26734	1077071	46606	111144	0	0	7962	637462	0	0
2024-08-18 00:21:47			0	35571	0	0	0	29945	28550	164112	26630	1077161	46606	111144	0	0	7962	637248	0	0
2024-08-18 00:22:47			0	35578	0	0	0	29950	28540	164112	26639	1077116	46593	111146	0	0	7962	636985	0	0
2024-08-18 00:23:47			0	35567	0	0	0	29961	28550	164104	27097	1077161	46606	111150	0	0	7961	637419	0	0
2024-08-18 00:24:47			0	35586	0	0	0	29950	28560	164048	26989	1077170	46595	111146	0	0	7963	636570	0	0
2024-08-18 00:25:47			0	35591	0	0	0	29922	28560	164068	26890	1077099	46584	111135	0	0	7964	636356	0	0
2024-08-18 00:26:47			0	35616	0	0	0	29945	28550	163936	26816	1077071	46583	111144	0	0	7965	635325	0	0
2024-08-18 00:27:47			0	35623	0	0	0	29953	28550	163836	26932	1077134	46583	111147	0	0	7965	635027	0	0
2024-08-18 00:28:47			0	35643	0	0	0	29961	28550	163828	26991	1077108	46617	111150	0	0	7966	634174	0	0
2024-08-18 00:29:47			0	35634	0	0	0	29955	28550	163840	27024	1077188	46606	111148	0	0	7966	634558	0	0
2024-08-18 00:30:47			0	35640	0	0	0	29950	28560	163780	26582	1077170	46606	111146	0	0	7966	634265	0	0
2024-08-18 00:31:47			0	35627	0	0	0	29950	28550	163844	26616	1077125	46595	111146	0	0	7965	634856	0	0
2024-08-18 00:32:47			0	35639	0	0	0	29945	28550	163816	26932	1077108	46595	111144	0	0	7966	634344	0	0
2024-08-18 00:33:47			0	35636	0	0	0	29929	28550	163964	26802	1077081	46595	111138	0	0	7966	634472	0	0
2024-08-18 00:34:47			0	35591	0	0	0	29916	28550	163888	26840	1077054	46595	111133	0	0	7964	636393	0	0
2024-08-18 00:35:47			0	35583	0	0	0	29914	28550	164116	26748	1076964	46583	111132	0	0	7963	636735	0	0
2024-08-18 00:36:47			0	35554	0	0	0	29942	28540	164184	26667	1077035	46593	111143	0	0	7961	638012	0	0
2024-08-18 00:37:47			0	35555	0	0	0	29940	28540	164272	26698	1077107	46615	111142	0	0	7961	637969	0	0
2024-08-18 00:38:47			0	35561	0	0	0	29932	28540	164196	26883	1077053	46592	111139	0	0	7961	637712	0	0
2024-08-18 00:39:47			0	35591	0	0	0	29924	28540	164104	26922	1077035	46593	111136	0	0	7963	636430	0	0
2024-08-18 00:40:47			0	35596	0	0	0	29932	28540	164072	26823	1077053	46604	111139	0	0	7964	636216	0	0
2024-08-18 00:41:47			0	35584	0	0	0	29929	28530	164144	26911	1077098	46604	111138	0	0	7963	636766	0	0
2024-08-18 00:42:47			0	35603	0	0	0	29937	28530	164068	26967	1077044	46604	111141	0	0	7964	635954	0	0
2024-08-18 00:43:47			0	35597	0	0	0	29937	28540	164004	27007	1077000	46604	111141	0	0	7964	636173	0	0
2024-08-18 00:44:47			0	35603	0	0	0	29932	28540	163908	26965	1077053	46604	111139	0	0	7964	635917	0	0
2024-08-18 00:45:47			0	35610	0	0	0	29914	28540	163964	27090	1077089	46605	111132	0	0	7965	635618	0	0
2024-08-18 00:46:47			0	35618	0	0	0	29909	28540	163912	26956	1077089	46593	111130	0	0	7965	635277	0	0
2024-08-18 00:47:47			0	35629	0	0	0	29903	28530	163852	26850	1076963	46592	111128	0	0	7966	634844	0	0
2024-08-18 00:48:47			0	35602	0	0	0	29883	28520	163928	26974	1076918	46591	111120	0	0	7965	636033	0	0
2024-08-18 00:49:47			0	35563	0	0	0	29864	28520	164104	27031	1076864	46581	111113	0	0	7963	637701	0	0
2024-08-18 00:50:47			0	35542	0	0	0	29880	28510	164236	27107	1076900	46590	111119	0	0	7961	638637	0	0
2024-08-18 00:51:47			0	35499	0	0	0	29885	28510	164492	27150	1076927	46602	111121	0	0	7958	640481	0	0
2024-08-18 00:52:47			0	35484	0	0	0	29896	28520	164572	27076	1076909	46580	111125	0	0	7957	641088	0	0
2024-08-18 00:53:47			0	35478	0	0	0	29890	28510	164584	26939	1076864	46602	111123	0	0	7957	641382	0	0
2024-08-18 00:54:47			0	35461	0	0	0	29877	28510	164544	27253	1076891	46590	111118	0	0	7956	642113	0	0
2024-08-18 00:55:47			0	35465	0	0	0	29875	28500	164644	26649	1076828	46590	111117	0	0	7956	641978	0	0
2024-08-18 00:56:47			0	35467	0	0	0	29885	28500	164644	27046	1076846	46578	111121	0	0	7956	641893	0	0
2024-08-18 00:57:47			0	35456	0	0	0	29896	28500	164704	26935	1076846	46600	111125	0	0	7955	642366	0	0
2024-08-18 00:58:47			0	35428	0	0	0	29901	28500	164756	26760	1076900	46600	111127	0	0	7954	643571	0	0
2024-08-18 00:59:47			0	35443	0	0	0	29898	28510	164964	27294	1076918	46590	111126	0	0	7955	642888	0	0
2024-08-18 01:00:47			0	35439	0	0	0	29893	28500	164860	27019	1076855	46579	111124	0	0	7954	643097	0	0
2024-08-18 01:01:47			0	35419	0	0	0	29898	28500	164896	26977	1076846	46600	111126	0	0	7953	643959	0	0
2024-08-18 01:02:47			0	35433	0	0	0	29890	28510	164868	26771	1076837	46590	111123	0	0	7954	643318	0	0
2024-08-18 01:03:47			0	35437	0	0	0	29888	28500	164724	26859	1076855	46601	111122	0	0	7954	643183	0	0
2024-08-18 01:04:47			0	35442	0	0	0	29885	28490	164816	26982	1076810	46599	111121	0	0	7955	643005	0	0
2024-08-18 01:05:47			0	35430	0	0	0	29885	28500	164844	26764	1076882	46590	111121	0	0	7954	643485	0	0
2024-08-18 01:06:47			0	35420	0	0	0	29883	28510	164896	27126	1076837	46602	111120	0	0	7953	643878	0	0
2024-08-18 01:07:47			0	35426	0	0	0	29877	28490	164840	26538	1076810	46588	111118	0	0	7954	643694	0	0
2024-08-18 01:08:47			0	35426	0	0	0	29872	28490	164880	26691	1076756	46577	111116	0	0	7954	643694	0	0
2024-08-18 01:09:47			0	35400	0	0	0	29864	28490	164956	27031	1076720	46577	111113	0	0	7952	644815	0	0
2024-08-18 01:10:47			0	35392	0	0	0	29872	28490	165044	26667	1076756	46599	111116	0	0	7952	645161	0	0
2024-08-18 01:11:47			0	35383	0	0	0	29880	28500	165088	26786	1076819	46589	111119	0	0	7951	645512	0	0
2024-08-18 01:12:47			0	35381	0	0	0	29867	28480	165084	26804	1076792	46599	111114	0	0	7951	645673	0	0
2024-08-18 01:13:47			0	35366	0	0	0	29872	28480	165096	26960	1076756	46576	111116	0	0	7950	646321	0	0
2024-08-18 01:14:47			0	35393	0	0	0	29877	28480	165064	26857	1076765	46599	111118	0	0	7952	645155	0	0
2024-08-18 01:15:47			0	35398	0	0	0	29880	28490	165048	27163	1076828	46599	111119	0	0	7952	644902	0	0
2024-08-18 01:16:47			0	35429	0	0	0	29875	28490	164832	26838	1076756	46599	111117	0	0	7954	643565	0	0
2024-08-18 01:17:47			0	35446	0	0	0	29870	28480	164832	26802	1076702	46598	111115	0	0	7955	642870	0	0
2024-08-18 01:18:47			0	35438	0	0	0	29859	28490	164828	27024	1076675	46599	111111	0	0	7955	643177	0	0
2024-08-18 01:19:47			0	35434	0	0	0	29857	28490	164872	26850	1076666	46577	111110	0	0	7955	643350	0	0
2024-08-18 01:20:47			0	35409	0	0	0	29846	28480	164856	26918	1076729	46576	111106	0	0	7953	644464	0	0
2024-08-18 01:21:47			0	35380	0	0	0	29854	28480	165012	27045	1076702	46587	111109	0	0	7951	645716	0	0
2024-08-18 01:22:47			0	35354	0	0	0	29844	28470	165244	26772	1076603	46585	111105	0	0	7950	646877	0	0
2024-08-18 01:23:47			0	35360	0	0	0	29820	28480	165184	27050	1076648	46587	111096	0	0	7951	646580	0	0
2024-08-18 01:24:47			0	35344	0	0	0	29815	28470	165196	26776	1076522	46585	111094	0	0	7950	647309	0	0
2024-08-18 01:25:47			0	35336	0	0	0	29818	28460	165344	26863	1076540	46597	111095	0	0	7949	647693	0	0
2024-08-18 01:26:47			0	35302	0	0	0	29815	28460	165368	26816	1076477	46584	111094	0	0	7947	649166	0	0
2024-08-18 01:27:47			0	35290	0	0	0	29807	28450	165468	26878	1076522	46573	111091	0	0	7946	649724	0	0
2024-08-18 01:28:47			0	35301	0	0	0	29810	28450	165576	26845	1076513	46573	111092	0	0	7947	649247	0	0
2024-08-18 01:29:47			0	35279	0	0	0	29820	28440	165580	26802	1076477	46573	111096	0	0	7945	650239	0	0
2024-08-18 01:30:47			0	35256	0	0	0	29810	28440	165632	26587	1076504	46583	111092	0	0	7944	651238	0	0
2024-08-18 01:31:47			0	35244	0	0	0	29799	28450	165680	26949	1076459	46595	111088	0	0	7944	651722	0	0
2024-08-18 01:32:47			0	35234	0	0	0	29799	28440	165856	26783	1076477	46595	111088	0	0	7943	652195	0	0
2024-08-18 01:33:47			0	35211	0	0	0	29805	28440	165920	26930	1076441	46583	111090	0	0	7941	653196	0	0
2024-08-18 01:34:47			0	35209	0	0	0	29802	28430	165928	27088	1076324	46583	111089	0	0	7941	653321	0	0
2024-08-18 01:35:47			0	35197	0	0	0	29792	28430	166112	26850	1076351	46593	111085	0	0	7941	653844	0	0
2024-08-18 01:36:47			0	35196	0	0	0	29786	28420	166044	27045	1076297	46592	111083	0	0	7941	653925	0	0
2024-08-18 01:37:47			0	35166	0	0	0	29789	28420	166220	26939	1076333	46582	111084	0	0	7939	655234	0	0
2024-08-18 01:38:47			0	35154	0	0	0	29797	28410	166188	26830	1076315	46581	111087	0	0	7938	655796	0	0
2024-08-18 01:39:47			0	35136	0	0	0	29786	28430	166368	26701	1076369	46582	111083	0	0	7937	656507	0	0
2024-08-18 01:40:47			0	35134	0	0	0	29776	28420	166512	26804	1076333	46582	111079	0	0	7937	656632	0	0
2024-08-18 01:41:47			0	35130	0	0	0	29776	28420	166552	26956	1076297	46582	111079	0	0	7937	656807	0	0
2024-08-18 01:42:47			0	35124	0	0	0	29784	28410	166488	26759	1076288	46581	111082	0	0	7936	657107	0	0
2024-08-18 01:43:47			0	35106	0	0	0	29781	28410	166539	26599	1076279	46568	111081	0	0	7935	657895	0	0
2024-08-18 01:44:47			0	35095	0	0	0	29784	28400	166591	26615	1076242	46590	111082	0	0	7934	658415	0	0
2024-08-18 01:45:47			0	35066	0	0	0	29774	28410	166603	26859	1076333	46590	111078	0	0	7933	659649	0	0
2024-08-18 01:46:47			0	35083	0	0	0	29779	28400	166551	26679	1076269	46590	111080	0	0	7934	658941	0	0
2024-08-18 01:47:47			0	35085	0	0	0	29774	28410	166671	26788	1076288	46581	111078	0	0	7934	658815	0	0
2024-08-18 01:48:47			0	35075	0	0	0	29771	28400	166591	26887	1076233	46590	111077	0	0	7933	659292	0	0
2024-08-18 01:49:47			0	35063	0	0	0	29771	28400	166595	26680	1076179	46590	111077	0	0	7933	659819	0	0
2024-08-18 01:50:47			0	35063	0	0	0	29753	28390	166715	26875	1076197	46600	111070	0	0	7933	659857	0	0
2024-08-18 01:51:47			0	35045	0	0	0	29745	28380	166839	26739	1076242	46577	111067	0	0	7932	660685	0	0
2024-08-18 01:52:47			0	35040	0	0	0	29755	28380	166875	26753	1076161	46577	111071	0	0	7931	660905	0	0
2024-08-18 01:53:47			0	35011	0	0	0	29771	28380	167011	26726	1076179	46588	111077	0	0	7929	662180	0	0
2024-08-18 01:54:47			0	34982	0	0	0	29792	28380	167067	26998	1076296	46599	111085	0	0	7927	663457	0	0
2024-08-18 01:55:47			0	34986	0	0	0	29781	28380	167127	27076	1076242	46588	111081	0	0	7928	663281	0	0
2024-08-18 01:56:47			0	35008	0	0	0	29771	28380	167059	26778	1076296	46599	111077	0	0	7929	662312	0	0
2024-08-18 01:57:47			0	35048	0	0	0	29766	28380	166755	26972	1076179	46599	111075	0	0	7932	660553	0	0
2024-08-18 01:58:47			0	35099	0	0	0	29766	28380	166547	26620	1076215	46577	111075	0	0	7935	658316	0	0
2024-08-18 01:59:47			0	35142	0	0	0	29763	28380	166320	26831	1076206	46588	111074	0	0	7938	656434	0	0
2024-08-18 02:00:47			0	35197	0	0	0	29742	28370	166276	26589	1076215	46576	111066	0	0	7941	654070	0	0
2024-08-18 02:01:47			0	35188	0	0	0	29781	28370	166132	26911	1076143	46577	111081	0	0	7940	654463	0	0
2024-08-18 02:02:47			0	35193	0	0	0	29784	28380	166196	26682	1076233	46599	111082	0	0	7940	654207	0	0
2024-08-18 02:03:47			0	35174	0	0	0	29763	28380	166240	26804	1076233	46588	111074	0	0	7940	655036	0	0
2024-08-18 02:04:47			0	35180	0	0	0	29753	28380	166192	26811	1076179	46588	111070	0	0	7940	654774	0	0
2024-08-18 02:05:47			0	35183	0	0	0	29745	28380	166056	27020	1076161	46599	111067	0	0	7940	654643	0	0
2024-08-18 02:06:47			0	35211	0	0	0	29745	28370	166008	27001	1076143	46577	111067	0	0	7942	653460	0	0
2024-08-18 02:07:47			0	35195	0	0	0	29761	28370	166028	27057	1076107	46587	111073	0	0	7941	654158	0	0
2024-08-18 02:08:47			0	35199	0	0	0	29763	28370	166056	26779	1076170	46588	111074	0	0	7941	653983	0	0
2024-08-18 02:09:47			0	35187	0	0	0	29766	28370	166084	26845	1076116	46588	111075	0	0	7940	654507	0	0
2024-08-18 02:10:47			0	35194	0	0	0	29761	28380	166092	26972	1076179	46588	111073	0	0	7941	654163	0	0
2024-08-18 02:11:47			0	35210	0	0	0	29779	28370	166088	26698	1076188	46587	111080	0	0	7941	653504	0	0
2024-08-18 02:12:47			0	35203	0	0	0	29779	28370	166020	26635	1076197	46599	111080	0	0	7941	653809	0	0
2024-08-18 02:13:47			0	35222	0	0	0	29763	28370	165960	26554	1076215	46576	111074	0	0	7942	652981	0	0
2024-08-18 02:14:47			0	35227	0	0	0	29761	28370	165936	27029	1076161	46587	111073	0	0	7943	652763	0	0
2024-08-18 02:15:47			0	35239	0	0	0	29758	28370	165948	26844	1076134	46576	111072	0	0	7944	652241	0	0
2024-08-18 02:16:47			0	35250	0	0	0	29748	28370	165808	26925	1076161	46576	111068	0	0	7944	651762	0	0
2024-08-18 02:17:47			0	35274	0	0	0	29774	28370	165792	26679	1076215	46598	111078	0	0	7946	650719	0	0
2024-08-18 02:18:47			0	35271	0	0	0	29784	28370	165696	26885	1076161	46587	111082	0	0	7945	650850	0	0
2024-08-18 02:19:47			0	35247	0	0	0	29774	28370	165784	26805	1076143	46588	111078	0	0	7944	651893	0	0
2024-08-18 02:20:47			0	35265	0	0	0	29784	28380	165772	26589	1076215	46588	111082	0	0	7945	651073	0	0
2024-08-18 02:21:47			0	35269	0	0	0	29789	28380	165716	26861	1076314	46577	111084	0	0	7945	650899	0	0
2024-08-18 02:22:47			0	35303	0	0	0	29779	28370	165588	26698	1076224	46588	111080	0	0	7947	649460	0	0
2024-08-18 02:23:47			0	35340	0	0	0	29735	28380	165456	26762	1076188	46599	111063	0	0	7950	647819	0	0
2024-08-18 02:24:47			0	35361	0	0	0	29722	28370	165380	27036	1076089	46566	111058	0	0	7952	646948	0	0
2024-08-18 02:25:47			0	35368	0	0	0	29737	28370	165180	27033	1076107	46576	111064	0	0	7952	646645	0	0
2024-08-18 02:26:47			0	35389	0	0	0	29745	28360	165148	26729	1076098	46575	111067	0	0	7953	645775	0	0
2024-08-18 02:27:47			0	35335	0	0	0	29753	28360	165480	26979	1076116	46575	111070	0	0	7950	648111	0	0
2024-08-18 02:28:47			0	35284	0	0	0	29748	28360	165728	26847	1076098	46586	111068	0	0	7947	650323	0	0
2024-08-18 02:29:47			0	35266	0	0	0	29748	28370	165896	26594	1076134	46587	111068	0	0	7945	651067	0	0
2024-08-18 02:30:47			0	35237	0	0	0	29748	28350	165956	26941	1076053	46585	111068	0	0	7944	652403	0	0
2024-08-18 02:31:47			0	35217	0	0	0	29753	28360	166032	26982	1076098	46586	111070	0	0	7942	653237	0	0
2024-08-18 02:32:47			0	35220	0	0	0	29755	28360	165948	26615	1076116	46575	111071	0	0	7942	653106	0	0
2024-08-18 02:33:47			0	35220	0	0	0	29755	28370	165940	26953	1076089	46599	111071	0	0	7943	653068	0	0
2024-08-18 02:34:47			0	35211	0	0	0	29761	28360	166016	26738	1076170	46585	111073	0	0	7942	653498	0	0
2024-08-18 02:35:47			0	35197	0	0	0	29768	28360	165960	26627	1076143	46585	111076	0	0	7941	654108	0	0
2024-08-18 02:36:47			0	35221	0	0	0	29774	28360	166088	26880	1076179	46575	111078	0	0	7942	653062	0	0
2024-08-18 02:37:47			0	35222	0	0	0	29755	28360	165988	26713	1076152	46586	111071	0	0	7943	653019	0	0
2024-08-18 02:38:47			0	35235	0	0	0	29748	28350	165916	26762	1076107	46585	111068	0	0	7943	652490	0	0
2024-08-18 02:39:47			0	35262	0	0	0	29745	28360	165768	26733	1076125	46575	111067	0	0	7945	651278	0	0
2024-08-18 02:40:47			0	35275	0	0	0	29748	28370	165800	27085	1076134	46587	111068	0	0	7946	650676	0	0
2024-08-18 02:41:47			0	35257	0	0	0	29768	28360	165832	26712	1076125	46575	111076	0	0	7945	651496	0	0
2024-08-18 02:42:47			0	35248	0	0	0	29761	28360	165864	26778	1076143	46596	111073	0	0	7944	651887	0	0
2024-08-18 02:43:47			0	35246	0	0	0	29768	28360	165796	27208	1076116	46575	111076	0	0	7944	651974	0	0
2024-08-18 02:44:47			0	35258	0	0	0	29753	28360	165820	27097	1076152	46586	111070	0	0	7945	651452	0	0
2024-08-18 02:45:47			0	35269	0	0	0	29755	28370	165740	27012	1076116	46588	111071	0	0	7946	650937	0	0
2024-08-18 02:46:47			0	35286	0	0	0	29758	28360	165760	26979	1076125	46597	111072	0	0	7947	650236	0	0
2024-08-18 02:47:47			0	35281	0	0	0	29745	28360	165548	26941	1076116	46585	111067	0	0	7946	650453	0	0
2024-08-18 02:48:47			0	35291	0	0	0	29748	28360	165668	26904	1076062	46585	111068	0	0	7947	650019	0	0
2024-08-18 02:49:47			0	35308	0	0	0	29755	28360	165556	26786	1076098	46586	111071	0	0	7948	649281	0	0
2024-08-18 02:50:47			0	35311	0	0	0	29732	28360	165572	26989	1076143	46596	111062	0	0	7948	649151	0	0
2024-08-18 02:51:47			0	35306	0	0	0	29737	28360	165604	26885	1076116	46575	111064	0	0	7948	649368	0	0
2024-08-18 02:52:47			0	35298	0	0	0	29740	28350	165656	26939	1076053	46575	111065	0	0	7947	649752	0	0
2024-08-18 02:53:47			0	35273	0	0	0	29740	28350	165620	27050	1076080	46575	111065	0	0	7946	650838	0	0
2024-08-18 02:54:47			0	35246	0	0	0	29742	28350	165792	26894	1076071	46585	111066	0	0	7944	652012	0	0
2024-08-18 02:55:47			0	35239	0	0	0	29753	28350	165944	26785	1076080	46596	111070	0	0	7944	652316	0	0
2024-08-18 02:56:47			0	35219	0	0	0	29732	28360	165956	27083	1076143	46575	111062	0	0	7943	653149	0	0
2024-08-18 02:57:47			0	35213	0	0	0	29753	28340	166080	26769	1076008	46574	111070	0	0	7942	653486	0	0
2024-08-18 02:58:47			0	35236	0	0	0	29758	28360	166036	26845	1076089	46585	111072	0	0	7943	652409	0	0
2024-08-18 02:59:47			0	35219	0	0	0	29748	28360	165928	27131	1076071	46575	111068	0	0	7943	653149	0	0
2024-08-18 03:00:47			0	35222	0	0	0	29761	28360	165904	26920	1076179	46609	111073	0	0	7942	653019	0	0
2024-08-18 03:01:47			0	35257	0	0	0	29763	28350	165808	26968	1076161	46585	111074	0	0	7945	651533	0	0
2024-08-18 03:02:47			0	35293	0	0	0	29768	28360	165748	26783	1076179	46586	111076	0	0	7947	649932	0	0
2024-08-18 03:03:47			0	35315	0	0	0	29753	28360	165584	27052	1076125	46586	111070	0	0	7948	648978	0	0
2024-08-18 03:04:47			0	35360	0	0	0	29753	28360	165336	26814	1076197	46596	111070	0	0	7951	647029	0	0
2024-08-18 03:05:47			0	35385	0	0	0	29766	28360	165368	26894	1076098	46575	111075	0	0	7952	645948	0	0
2024-08-18 03:06:47			0	35385	0	0	0	29761	28360	165364	27027	1076143	46585	111073	0	0	7953	645948	0	0
2024-08-18 03:07:47			0	35392	0	0	0	29766	28360	165188	26937	1076143	46585	111075	0	0	7953	645646	0	0
2024-08-18 03:08:47			0	35408	0	0	0	29771	28360	165088	26996	1076152	46597	111077	0	0	7954	644955	0	0
2024-08-18 03:09:47			0	35418	0	0	0	29755	28370	165036	26809	1076161	46587	111071	0	0	7955	644486	0	0
2024-08-18 03:10:47			0	35444	0	0	0	29768	28360	164820	26680	1076125	46586	111076	0	0	7956	643403	0	0
2024-08-18 03:11:47			0	35485	0	0	0	29774	28360	164692	26530	1076152	46586	111078	0	0	7959	641638	0	0
2024-08-18 03:12:47			0	35508	0	0	0	29758	28370	164652	26965	1076134	46576	111072	0	0	7960	640613	0	0
2024-08-18 03:13:47			0	35535	0	0	0	29763	28360	164604	26772	1076116	46585	111074	0	0	7962	639491	0	0
2024-08-18 03:14:47			0	35542	0	0	0	29761	28370	164608	26901	1076188	46587	111073	0	0	7962	639154	0	0
2024-08-18 03:15:47			0	35543	0	0	0	29748	28370	164424	26653	1076134	46587	111068	0	0	7963	639111	0	0
2024-08-18 03:16:47			0	35562	0	0	0	29753	28370	164404	26847	1076107	46587	111070	0	0	7964	638297	0	0
2024-08-18 03:17:47			0	35543	0	0	0	29750	28360	164416	26684	1076152	46586	111069	0	0	7962	639148	0	0
2024-08-18 03:18:47			0	35556	0	0	0	29753	28360	164404	27033	1076125	46575	111070	0	0	7963	638591	0	0
2024-08-18 03:19:47			0	35546	0	0	0	29740	28360	164424	26878	1076089	46585	111065	0	0	7963	639019	0	0
2024-08-18 03:20:47			0	35527	0	0	0	29737	28360	164536	27060	1076089	46585	111064	0	0	7962	639834	0	0
2024-08-18 03:21:47			0	35512	0	0	0	29740	28360	164572	26828	1076089	46575	111065	0	0	7961	640478	0	0
2024-08-18 03:22:47			0	35486	0	0	0	29745	28350	164656	26989	1076134	46585	111067	0	0	7959	641632	0	0
2024-08-18 03:23:47			0	35488	0	0	0	29732	28350	164748	27003	1076017	46575	111062	0	0	7959	641546	0	0
2024-08-18 03:24:47			0	35475	0	0	0	29732	28350	164808	26824	1076071	46575	111062	0	0	7959	642105	0	0
2024-08-18 03:25:47			0	35479	0	0	0	29716	28350	164772	26705	1076080	46585	111056	0	0	7959	641933	0	0
2024-08-18 03:26:47			0	35484	0	0	0	29693	28350	164908	26727	1076017	46575	111047	0	0	7960	641718	0	0
2024-08-18 03:27:47			0	35466	0	0	0	29709	28340	164900	26823	1075927	46574	111053	0	0	7958	642530	0	0
2024-08-18 03:28:47			0	35458	0	0	0	29709	28340	164924	26665	1075972	46583	111053	0	0	7958	642874	0	0
2024-08-18 03:29:47			0	35437	0	0	0	29662	28340	165040	27249	1075954	46574	111035	0	0	7957	643779	0	0
2024-08-18 03:30:47			0	35406	0	0	0	29651	28320	165048	26937	1075837	46571	111031	0	0	7956	645190	0	0
2024-08-18 03:31:47			0	35411	0	0	0	29649	28320	165116	27024	1075855	46559	111030	0	0	7956	644975	0	0
2024-08-18 03:32:47			0	35384	0	0	0	29644	28310	165164	26524	1075783	46559	111028	0	0	7954	646178	0	0
2024-08-18 03:33:47			0	35373	0	0	0	29649	28300	165352	26897	1075774	46569	111030	0	0	7953	646691	0	0
2024-08-18 03:34:47			0	35338	0	0	0	29628	28290	165492	26639	1075675	46568	111022	0	0	7952	648243	0	0
2024-08-18 03:35:47			0	35310	0	0	0	29615	28280	165716	26564	1075684	46568	111017	0	0	7950	649495	0	0
2024-08-18 03:36:47			0	35279	0	0	0	29615	28270	165640	26828	1075639	46566	111017	0	0	7948	650878	0	0
2024-08-18 03:37:47			0	35226	0	0	0	29628	28270	166052	26703	1075585	46566	111022	0	0	7945	653184	0	0
2024-08-18 03:38:47			0	35181	0	0	0	29623	28270	166220	26908	1075576	46566	111020	0	0	7942	655147	0	0
2024-08-18 03:39:47			0	35136	0	0	0	29636	28260	166472	26698	1075530	46565	111025	0	0	7939	657152	0	0
2024-08-18 03:40:47			0	35109	0	0	0	29615	28260	166656	26795	1075566	46577	111017	0	0	7937	658334	0	0
2024-08-18 03:41:47			0	35095	0	0	0	29607	28250	166591	27138	1075485	46563	111014	0	0	7937	658986	0	0
2024-08-18 03:42:47			0	35087	0	0	0	29618	28260	166595	26906	1075503	46565	111018	0	0	7936	659299	0	0
2024-08-18 03:43:47			0	35116	0	0	0	29599	28250	166636	26781	1075539	46563	111011	0	0	7938	658066	0	0
2024-08-18 03:44:47			0	35121	0	0	0	29589	28250	166504	27121	1075566	46575	111007	0	0	7939	657847	0	0
2024-08-18 03:45:47			0	35126	0	0	0	29602	28240	166452	27031	1075422	46575	111012	0	0	7939	657666	0	0
2024-08-18 03:46:47			0	35122	0	0	0	29618	28230	166492	27010	1075431	46573	111018	0	0	7938	657879	0	0
2024-08-18 03:47:47			0	35118	0	0	0	29633	28240	166560	26941	1075557	46575	111024	0	0	7938	658016	0	0
2024-08-18 03:48:47			0	35126	0	0	0	29641	28240	166532	26932	1075548	46584	111027	0	0	7938	657666	0	0
2024-08-18 03:49:47			0	35130	0	0	0	29675	28240	166568	26972	1075629	46574	111040	0	0	7938	657490	0	0
2024-08-18 03:50:47			0	35153	0	0	0	29646	28240	166504	26916	1075584	46575	111029	0	0	7939	656484	0	0
2024-08-18 03:51:47			0	35197	0	0	0	29646	28240	166156	26847	1075557	46608	111029	0	0	7942	654562	0	0
2024-08-18 03:52:47			0	35252	0	0	0	29646	28250	166052	26816	1075593	46585	111029	0	0	7946	652128	0	0
2024-08-18 03:53:47			0	35273	0	0	0	29644	28250	165812	26805	1075602	46585	111028	0	0	7947	651214	0	0
2024-08-18 03:54:47			0	35277	0	0	0	29662	28250	165800	26824	1075566	46575	111035	0	0	7947	651040	0	0
2024-08-18 03:55:47			0	35302	0	0	0	29667	28250	165756	26757	1075683	46575	111037	0	0	7948	649954	0	0
2024-08-18 03:56:47			0	35298	0	0	0	29670	28250	165668	26817	1075575	46585	111038	0	0	7948	650128	0	0
2024-08-18 03:57:47			0	35315	0	0	0	29670	28260	165656	27019	1075692	46586	111038	0	0	7949	649353	0	0
2024-08-18 03:58:47			0	35317	0	0	0	29664	28260	165648	26932	1075701	46577	111036	0	0	7949	649266	0	0
2024-08-18 03:59:47			0	35331	0	0	0	29667	28260	165684	26760	1075665	46586	111037	0	0	7950	648659	0	0
2024-08-18 04:00:47			0	35346	0	0	0	29644	28260	165496	26733	1075692	46586	111028	0	0	7952	648009	0	0
2024-08-18 04:01:47			0	35360	0	0	0	29620	28260	165520	26915	1075584	46576	111019	0	0	7953	647403	0	0
2024-08-18 04:02:47			0	35379	0	0	0	29610	28250	165380	26861	1075575	46563	111015	0	0	7954	646618	0	0
2024-08-18 04:03:47			0	35391	0	0	0	29610	28240	165408	26977	1075503	46552	111015	0	0	7955	646137	0	0
2024-08-18 04:04:47			0	35377	0	0	0	29615	28240	165392	26863	1075503	46563	111017	0	0	7954	646742	0	0
2024-08-18 04:05:47			0	35371	0	0	0	29610	28240	165576	26727	1075467	46574	111015	0	0	7954	647002	0	0
2024-08-18 04:06:47			0	35355	0	0	0	29625	28230	165580	26970	1075539	46573	111021	0	0	7952	647732	0	0
2024-08-18 04:07:47			0	35325	0	0	0	29628	28230	165696	26977	1075458	46573	111022	0	0	7950	649031	0	0
2024-08-18 04:08:47			0	35296	0	0	0	29638	28230	165820	26970	1075485	46561	111026	0	0	7948	650290	0	0
2024-08-18 04:09:47			0	35302	0	0	0	29644	28240	165820	27140	1075494	46562	111028	0	0	7949	649992	0	0
2024-08-18 04:10:47			0	35292	0	0	0	29636	28230	165812	27060	1075512	46583	111025	0	0	7948	650464	0	0
2024-08-18 04:11:47			0	35314	0	0	0	29628	28240	165740	27187	1075494	46574	111022	0	0	7950	649471	0	0
2024-08-18 04:12:47			0	35329	0	0	0	29631	28240	165748	27126	1075503	46563	111023	0	0	7951	648821	0	0
2024-08-18 04:13:47			0	35348	0	0	0	29638	28240	165664	26994	1075530	46563	111026	0	0	7952	647997	0	0
2024-08-18 04:14:47			0	35346	0	0	0	29631	28230	165652	27038	1075485	46573	111023	0	0	7952	648121	0	0
2024-08-18 04:15:47			0	35368	0	0	0	29659	28230	165488	27038	1075512	46583	111034	0	0	7953	647169	0	0
2024-08-18 04:16:47			0	35392	0	0	0	29654	28240	165472	26941	1075521	46574	111032	0	0	7954	646093	0	0
2024-08-18 04:17:47			0	35409	0	0	0	29631	28230	165384	26960	1075566	46583	111023	0	0	7956	645396	0	0
2024-08-18 04:18:47			0	35457	0	0	0	29654	28240	165196	26798	1075584	46585	111032	0	0	7958	643289	0	0
2024-08-18 04:19:47			0	35464	0	0	0	29662	28250	165092	26887	1075620	46585	111035	0	0	7959	642950	0	0
2024-08-18 04:20:47			0	35496	0	0	0	29644	28240	164880	27282	1075638	46585	111028	0	0	7961	641610	0	0
2024-08-18 04:21:47			0	35496	0	0	0	29620	28240	164812	27197	1075530	46575	111019	0	0	7961	641610	0	0
2024-08-18 04:22:47			0	35525	0	0	0	29612	28250	164796	26750	1075512	46563	111016	0	0	7963	640327	0	0
2024-08-18 04:23:47			0	35536	0	0	0	29631	28250	164712	27105	1075566	46575	111023	0	0	7963	639855	0	0
2024-08-18 04:24:47			0	35548	0	0	0	29628	28240	164644	27170	1075611	46575	111022	0	0	7964	639377	0	0
2024-08-18 04:25:47			0	35515	0	0	0	29636	28240	164740	26875	1075521	46574	111025	0	0	7962	640793	0	0
2024-08-18 04:26:47			0	35509	0	0	0	29628	28240	164888	27066	1075530	46585	111022	0	0	7962	641051	0	0
2024-08-18 04:27:47			0	35505	0	0	0	29641	28230	164984	27107	1075512	46573	111027	0	0	7961	641260	0	0
2024-08-18 04:28:47			0	35496	0	0	0	29662	28230	164968	26906	1075539	46573	111035	0	0	7960	641647	0	0
2024-08-18 04:29:47			0	35486	0	0	0	29638	28240	164992	26915	1075638	46585	111026	0	0	7960	642040	0	0
2024-08-18 04:30:47			0	35491	0	0	0	29620	28250	164976	26974	1075566	46575	111019	0	0	7961	641788	0	0
2024-08-18 04:31:47			0	35502	0	0	0	29623	28240	164828	26996	1075503	46575	111020	0	0	7961	641352	0	0
2024-08-18 04:32:47			0	35512	0	0	0	29638	28240	164852	26915	1075557	46585	111026	0	0	7962	640922	0	0
2024-08-18 04:33:47			0	35535	0	0	0	29654	28250	164792	26996	1075566	46575	111032	0	0	7963	639898	0	0
2024-08-18 04:34:47			0	35541	0	0	0	29670	28240	164788	27013	1075611	46585	111038	0	0	7963	639677	0	0
2024-08-18 04:35:47			0	35545	0	0	0	29657	28250	164716	26871	1075629	46585	111033	0	0	7964	639469	0	0
2024-08-18 04:36:47			0	35550	0	0	0	29641	28260	164788	26833	1075584	46586	111027	0	0	7964	639217	0	0
2024-08-18 04:37:47			0	35602	0	0	0	29633	28240	164500	27239	1075584	46575	111024	0	0	7967	637064	0	0
2024-08-18 04:38:47			0	35644	0	0	0	29646	28250	164276	26915	1075566	46575	111029	0	0	7970	635232	0	0
2024-08-18 04:39:47			0	35668	0	0	0	29654	28250	164160	26793	1075602	46563	111032	0	0	7971	634208	0	0
2024-08-18 04:40:47			0	35696	0	0	0	29667	28240	164032	26816	1075584	46585	111037	0	0	7973	633052	0	0
2024-08-18 04:41:47			0	35712	0	0	0	29677	28250	163880	26935	1075620	46585	111041	0	0	7973	632334	0	0
2024-08-18 04:42:47			0	35740	0	0	0	29672	28250	163828	26528	1075647	46585	111039	0	0	7975	631144	0	0
2024-08-18 04:43:47			0	35733	0	0	0	29659	28260	163792	26935	1075584	46598	111034	0	0	7975	631405	0	0
2024-08-18 04:44:47			0	35751	0	0	0	29641	28260	163788	27059	1075692	46576	111027	0	0	7977	630640	0	0
2024-08-18 04:45:47			0	35773	0	0	0	29638	28250	163636	26856	1075593	46575	111026	0	0	7978	629743	0	0
2024-08-18 04:46:47			0	35781	0	0	0	29664	28250	163524	27241	1075656	46563	111036	0	0	7978	629403	0	0
2024-08-18 04:47:47			0	35809	0	0	0	29662	28260	163452	27109	1075665	46576	111035	0	0	7980	628181	0	0
2024-08-18 04:48:47			0	35813	0	0	0	29641	28250	163320	26935	1075674	46563	111027	0	0	7980	628048	0	0
2024-08-18 04:49:47			0	35816	0	0	0	29631	28250	163528	26720	1075566	46575	111023	0	0	7981	627920	0	0
2024-08-18 04:50:47			0	35818	0	0	0	29651	28250	163492	26975	1075575	46585	111031	0	0	7980	627836	0	0
2024-08-18 04:51:47			0	35794	0	0	0	29646	28250	163488	26878	1075602	46575	111029	0	0	7979	628852	0	0
2024-08-18 04:52:47			0	35787	0	0	0	29649	28240	163504	27024	1075638	46585	111030	0	0	7978	629185	0	0
2024-08-18 04:53:47			0	35803	0	0	0	29654	28240	163540	27060	1075602	46574	111032	0	0	7979	628507	0	0
2024-08-18 04:54:47			0	35777	0	0	0	29651	28250	163660	26760	1075647	46575	111031	0	0	7978	629573	0	0
2024-08-18 04:55:47			0	35762	0	0	0	29657	28260	163644	27256	1075665	46586	111033	0	0	7977	630173	0	0
2024-08-18 04:56:47			0	35759	0	0	0	29644	28250	163764	27161	1075656	46575	111028	0	0	7977	630337	0	0
2024-08-18 04:57:47			0	35755	0	0	0	29654	28260	163688	27024	1075665	46576	111032	0	0	7977	630470	0	0
2024-08-18 04:58:47			0	35750	0	0	0	29654	28250	163676	27079	1075602	46575	111032	0	0	7976	630719	0	0
2024-08-18 04:59:47			0	35758	0	0	0	29662	28250	163756	26873	1075629	46575	111035	0	0	7977	630379	0	0
2024-08-18 05:00:47			0	35760	0	0	0	29646	28250	163668	27003	1075656	46563	111029	0	0	7977	630294	0	0
2024-08-18 05:01:47			0	35789	0	0	0	29651	28250	163692	26809	1075602	46575	111031	0	0	7979	629064	0	0
2024-08-18 05:02:47			0	35765	0	0	0	29638	28260	163612	26880	1075611	46576	111026	0	0	7977	630046	0	0
2024-08-18 05:03:47			0	35784	0	0	0	29638	28260	163552	27118	1075638	46576	111026	0	0	7979	629240	0	0
2024-08-18 05:04:47			0	35794	0	0	0	29638	28250	163500	26883	1075548	46575	111026	0	0	7979	628852	0	0
2024-08-18 05:05:47			0	35802	0	0	0	29636	28260	163520	26958	1075566	46566	111025	0	0	7980	628477	0	0
2024-08-18 05:06:47			0	35804	0	0	0	29649	28250	163468	26726	1075683	46552	111030	0	0	7980	628429	0	0
2024-08-18 05:07:47			0	35809	0	0	0	29636	28250	163564	27055	1075575	46585	111025	0	0	7980	628217	0	0
2024-08-18 05:08:47			0	35801	0	0	0	29638	28250	163460	26731	1075629	46585	111026	0	0	7980	628556	0	0
2024-08-18 05:09:47			0	35815	0	0	0	29620	28250	163568	26871	1075575	46563	111019	0	0	7981	627963	0	0
2024-08-18 05:10:47			0	35786	0	0	0	29628	28240	163672	26987	1075584	46575	111022	0	0	7979	629228	0	0
2024-08-18 05:11:47			0	35792	0	0	0	29631	28240	163500	26948	1075530	46585	111023	0	0	7979	628973	0	0
2024-08-18 05:12:47			0	35795	0	0	0	29623	28250	163508	26830	1075566	46597	111020	0	0	7979	628810	0	0
2024-08-18 05:13:47			0	35778	0	0	0	29646	28240	163636	27074	1075557	46575	111029	0	0	7978	629567	0	0
2024-08-18 05:14:47			0	35784	0	0	0	29649	28240	163560	26883	1075584	46563	111030	0	0	7978	629312	0	0
2024-08-18 05:15:47			0	35766	0	0	0	29628	28240	163664	26965	1075530	46575	111022	0	0	7978	630076	0	0
2024-08-18 05:16:47			0	35779	0	0	0	29638	28240	163568	26779	1075575	46574	111026	0	0	7978	629525	0	0
2024-08-18 05:17:47			0	35765	0	0	0	29636	28240	163624	27152	1075602	46584	111025	0	0	7977	630119	0	0
2024-08-18 05:18:47			0	35763	0	0	0	29638	28240	163708	26949	1075611	46575	111026	0	0	7977	630203	0	0
2024-08-18 05:19:47			0	35747	0	0	0	29636	28240	163780	26946	1075575	46584	111025	0	0	7976	630883	0	0
2024-08-18 05:20:47			0	35753	0	0	0	29636	28230	163724	27050	1075539	46573	111025	0	0	7977	630664	0	0
2024-08-18 05:21:47			0	35765	0	0	0	29641	28240	163688	27026	1075548	46574	111027	0	0	7977	630119	0	0
2024-08-18 05:22:47			0	35764	0	0	0	29638	28240	163684	26859	1075557	46563	111026	0	0	7977	630161	0	0
2024-08-18 05:23:47			0	35762	0	0	0	29636	28240	163712	27237	1075584	46585	111025	0	0	7977	630246	0	0
2024-08-18 05:24:47			0	35772	0	0	0	29644	28240	163764	27334	1075611	46575	111028	0	0	7978	629822	0	0
2024-08-18 05:25:47			0	35771	0	0	0	29644	28240	163668	27152	1075530	46585	111028	0	0	7978	629864	0	0
2024-08-18 05:26:47			0	35743	0	0	0	29646	28240	163708	26908	1075575	46584	111029	0	0	7976	631053	0	0
2024-08-18 05:27:47			0	35758	0	0	0	29651	28250	163584	27326	1075593	46585	111031	0	0	7977	630379	0	0
2024-08-18 05:28:47			0	35763	0	0	0	29644	28250	163664	26878	1075647	46575	111028	0	0	7977	630167	0	0
2024-08-18 05:29:47			0	35757	0	0	0	29631	28240	163736	26663	1075611	46575	111023	0	0	7977	630458	0	0
2024-08-18 05:30:47			0	35753	0	0	0	29628	28250	163716	27242	1075593	46575	111022	0	0	7977	630592	0	0
2024-08-18 05:31:47			0	35762	0	0	0	29628	28240	163684	27256	1075521	46562	111022	0	0	7977	630246	0	0
2024-08-18 05:32:47			0	35765	0	0	0	29641	28250	163604	26746	1075620	46575	111027	0	0	7977	630082	0	0
2024-08-18 05:33:47			0	35766	0	0	0	29636	28240	163752	27112	1075575	46562	111025	0	0	7977	630076	0	0
2024-08-18 05:34:47			0	35768	0	0	0	29633	28240	163584	26817	1075575	46584	111024	0	0	7978	629991	0	0
2024-08-18 05:35:47			0	35771	0	0	0	29638	28240	163704	26849	1075629	46574	111026	0	0	7978	629864	0	0
2024-08-18 05:36:47			0	35768	0	0	0	29631	28240	163740	26764	1075584	46552	111023	0	0	7978	629991	0	0
2024-08-18 05:37:47			0	35753	0	0	0	29625	28240	163684	26883	1075611	46585	111021	0	0	7977	630628	0	0
2024-08-18 05:38:47			0	35749	0	0	0	29620	28240	163772	26949	1075503	46575	111019	0	0	7977	630798	0	0
2024-08-18 05:39:47			0	35755	0	0	0	29625	28240	163672	27005	1075548	46574	111021	0	0	7977	630543	0	0
2024-08-18 05:40:47			0	35755	0	0	0	29641	28240	163844	26948	1075548	46562	111027	0	0	7977	630543	0	0
2024-08-18 05:41:47			0	35753	0	0	0	29625	28230	163664	27154	1075512	46583	111021	0	0	7977	630664	0	0
2024-08-18 05:42:47			0	35746	0	0	0	29625	28240	163760	26798	1075548	46574	111021	0	0	7976	630925	0	0
2024-08-18 05:43:47			0	35744	0	0	0	29633	28240	163800	26939	1075584	46563	111024	0	0	7976	631010	0	0
2024-08-18 05:44:47			0	35740	0	0	0	29638	28240	163800	26868	1075602	46574	111026	0	0	7976	631180	0	0
2024-08-18 05:45:47			0	35737	0	0	0	29633	28230	163784	27074	1075539	46583	111024	0	0	7976	631344	0	0
2024-08-18 05:46:47			0	35729	0	0	0	29641	28240	163788	26885	1075530	46575	111027	0	0	7975	631648	0	0
2024-08-18 05:47:47			0	35762	0	0	0	29641	28240	163816	26915	1075611	46585	111027	0	0	7977	630246	0	0
2024-08-18 05:48:47			0	35749	0	0	0	29641	28240	163780	26748	1075638	46585	111027	0	0	7976	630798	0	0
2024-08-18 05:49:47			0	35753	0	0	0	29641	28240	163824	26703	1075584	46575	111027	0	0	7977	630628	0	0
2024-08-18 05:50:47			0	35756	0	0	0	29625	28240	163764	26592	1075557	46575	111021	0	0	7977	630500	0	0
2024-08-18 05:51:47			0	35769	0	0	0	29631	28240	163760	26748	1075611	46563	111023	0	0	7978	629949	0	0
2024-08-18 05:52:47			0	35755	0	0	0	29631	28250	163712	26738	1075620	46585	111023	0	0	7977	630507	0	0
2024-08-18 05:53:47			0	35771	0	0	0	29633	28240	163644	26835	1075530	46575	111024	0	0	7978	629864	0	0
2024-08-18 05:54:47			0	35777	0	0	0	29625	28240	163724	26951	1075575	46574	111021	0	0	7978	629609	0	0
2024-08-18 05:55:47			0	35782	0	0	0	29638	28250	163684	26857	1075620	46575	111026	0	0	7978	629361	0	0
2024-08-18 05:56:47			0	35798	0	0	0	29644	28240	163648	26863	1075584	46575	111028	0	0	7979	628719	0	0
2024-08-18 05:57:47			0	35790	0	0	0	29633	28250	163560	26651	1075620	46563	111024	0	0	7979	629022	0	0
2024-08-18 05:58:47			0	35765	0	0	0	29636	28230	163636	26913	1075647	46573	111025	0	0	7977	630155	0	0
2024-08-18 05:59:47			0	35777	0	0	0	29644	28250	163588	26923	1075647	46585	111028	0	0	7978	629573	0	0
2024-08-18 06:00:47			0	35779	0	0	0	29631	28250	163664	27150	1075593	46575	111023	0	0	7978	629488	0	0
2024-08-18 06:01:47			0	35793	0	0	0	29636	28240	163660	27010	1075557	46575	111025	0	0	7979	628931	0	0
2024-08-18 06:02:47			0	35782	0	0	0	29641	28240	163684	26537	1075584	46575	111027	0	0	7978	629397	0	0
2024-08-18 06:03:47			0	35806	0	0	0	29644	28250	163648	26863	1075620	46575	111028	0	0	7980	628344	0	0
2024-08-18 06:04:47			0	35777	0	0	0	29636	28240	163660	27050	1075584	46585	111025	0	0	7978	629609	0	0
2024-08-18 06:05:47			0	35770	0	0	0	29636	28240	163628	26968	1075557	46575	111025	0	0	7978	629906	0	0
2024-08-18 06:06:47			0	35779	0	0	0	29636	28240	163692	27107	1075584	46575	111025	0	0	7978	629525	0	0
2024-08-18 06:07:47			0	35766	0	0	0	29641	28240	163640	27045	1075611	46563	111027	0	0	7977	630076	0	0
2024-08-18 06:08:47			0	35779	0	0	0	29644	28250	163596	27055	1075593	46585	111028	0	0	7978	629488	0	0
2024-08-18 06:09:47			0	35805	0	0	0	29636	28250	163632	27076	1075620	46585	111025	0	0	7980	628386	0	0
2024-08-18 06:10:47			0	35803	0	0	0	29654	28240	163544	27183	1075638	46575	111032	0	0	7979	628507	0	0
2024-08-18 06:11:47			0	35799	0	0	0	29641	28250	163544	27157	1075683	46585	111027	0	0	7979	628640	0	0
2024-08-18 06:12:47			0	35793	0	0	0	29628	28250	163496	27282	1075602	46552	111022	0	0	7979	628895	0	0
2024-08-18 06:13:47			0	35800	0	0	0	29641	28240	163540	27064	1075611	46575	111027	0	0	7979	628634	0	0
2024-08-18 06:14:47			0	35803	0	0	0	29644	28250	163516	27067	1075539	46585	111028	0	0	7980	628471	0	0
2024-08-18 06:15:47			0	35808	0	0	0	29646	28250	163500	26753	1075593	46585	111029	0	0	7980	628259	0	0
2024-08-18 06:16:47			0	35809	0	0	0	29646	28250	163612	26958	1075647	46585	111029	0	0	7980	628217	0	0
2024-08-18 06:17:47			0	35799	0	0	0	29649	28250	163512	26909	1075566	46563	111030	0	0	7979	628640	0	0
2024-08-18 06:18:47			0	35794	0	0	0	29649	28250	163660	26804	1075593	46585	111030	0	0	7979	628852	0	0
2024-08-18 06:19:47			0	35806	0	0	0	29654	28250	163532	26955	1075620	46563	111032	0	0	7980	628344	0	0
2024-08-18 06:20:47			0	35808	0	0	0	29646	28240	163604	26785	1075611	46575	111029	0	0	7980	628296	0	0
2024-08-18 06:21:47			0	35789	0	0	0	29633	28250	163636	26576	1075647	46585	111024	0	0	7979	629064	0	0
2024-08-18 06:22:47			0	35795	0	0	0	29641	28240	163632	27022	1075584	46563	111027	0	0	7979	628846	0	0
2024-08-18 06:23:47			0	35796	0	0	0	29644	28250	163604	26844	1075575	46585	111028	0	0	7979	628767	0	0
2024-08-18 06:24:47			0	35784	0	0	0	29646	28250	163612	27026	1075620	46585	111029	0	0	7978	629276	0	0
2024-08-18 06:25:47			0	35775	0	0	0	29638	28240	163664	26767	1075638	46575	111026	0	0	7978	629694	0	0
2024-08-18 06:26:47			0	35792	0	0	0	29641	28240	163688	26738	1075638	46585	111027	0	0	7979	628973	0	0
2024-08-18 06:27:47			0	35791	0	0	0	29636	28240	163712	26982	1075629	46574	111025	0	0	7979	629016	0	0
2024-08-18 06:28:47			0	35793	0	0	0	29646	28250	163760	26916	1075593	46585	111029	0	0	7979	628895	0	0
2024-08-18 06:29:47			0	35775	0	0	0	29638	28250	163624	26961	1075674	46563	111026	0	0	7978	629658	0	0
2024-08-18 06:30:47			0	35787	0	0	0	29641	28250	163820	26963	1075566	46575	111027	0	0	7979	629149	0	0
2024-08-18 06:31:47			0	35773	0	0	0	29623	28250	163788	26993	1075593	46575	111020	0	0	7978	629743	0	0
2024-08-18 06:32:47			0	35782	0	0	0	29625	28240	163716	26826	1075584	46575	111021	0	0	7979	629397	0	0
2024-08-18 06:33:47			0	35752	0	0	0	29623	28240	163792	26857	1075575	46574	111020	0	0	7977	630670	0	0
2024-08-18 06:34:47			0	35748	0	0	0	29628	28240	163792	26828	1075638	46575	111022	0	0	7976	630840	0	0
2024-08-18 06:35:47			0	35738	0	0	0	29625	28240	163908	26814	1075575	46562	111021	0	0	7976	631265	0	0
2024-08-18 06:36:47			0	35725	0	0	0	29631	28240	163904	27142	1075557	46563	111023	0	0	7975	631818	0	0
2024-08-18 06:37:47			0	35731	0	0	0	29628	28250	164076	27102	1075647	46575	111022	0	0	7975	631526	0	0
2024-08-18 06:38:47			0	35700	0	0	0	29631	28240	164012	27208	1075611	46563	111023	0	0	7973	632881	0	0
2024-08-18 06:39:47			0	35710	0	0	0	29631	28230	164096	26715	1075593	46561	111023	0	0	7974	632492	0	0
2024-08-18 06:40:47			0	35680	0	0	0	29625	28240	164144	27022	1075530	46563	111021	0	0	7972	633733	0	0
2024-08-18 06:41:47			0	35664	0	0	0	29625	28230	164180	27145	1075566	46561	111021	0	0	7971	634452	0	0
2024-08-18 06:42:47			0	35646	0	0	0	29625	28240	164272	26965	1075503	46585	111021	0	0	7970	635184	0	0
2024-08-18 06:43:47			0	35646	0	0	0	29631	28230	164400	26831	1075539	46595	111023	0	0	7970	635220	0	0
2024-08-18 06:44:47			0	35636	0	0	0	29636	28240	164376	26989	1075602	46574	111025	0	0	7969	635610	0	0
2024-08-18 06:45:47			0	35612	0	0	0	29638	28240	164368	26795	1075611	46575	111026	0	0	7968	636636	0	0
2024-08-18 06:46:47			0	35618	0	0	0	29631	28240	164460	27092	1075629	46574	111023	0	0	7968	636380	0	0
2024-08-18 06:47:47			0	35608	0	0	0	29638	28250	164464	27156	1075539	46585	111026	0	0	7968	636770	0	0
2024-08-18 06:48:47			0	35609	0	0	0	29649	28240	164584	26960	1075575	46584	111030	0	0	7968	636764	0	0
2024-08-18 06:49:47			0	35588	0	0	0	29638	28240	164568	26866	1075602	46574	111026	0	0	7967	637663	0	0
2024-08-18 06:50:47			0	35594	0	0	0	29631	28240	164524	26788	1075584	46585	111023	0	0	7967	637406	0	0
2024-08-18 06:51:47			0	35586	0	0	0	29636	28240	164564	26698	1075584	46585	111025	0	0	7966	637749	0	0
2024-08-18 06:52:47			0	35576	0	0	0	29633	28240	164636	26937	1075602	46584	111024	0	0	7966	638177	0	0
2024-08-18 06:53:47			0	35580	0	0	0	29628	28240	164500	27095	1075611	46585	111022	0	0	7966	638005	0	0
2024-08-18 06:54:47			0	35596	0	0	0	29628	28240	164588	27052	1075557	46563	111022	0	0	7967	637320	0	0
2024-08-18 06:55:47			0	35594	0	0	0	29633	28230	164544	27012	1075566	46573	111024	0	0	7967	637443	0	0
2024-08-18 06:56:47			0	35588	0	0	0	29628	28250	164572	26687	1075620	46585	111022	0	0	7967	637626	0	0
2024-08-18 06:57:47			0	35557	0	0	0	29636	28240	164676	26866	1075548	46574	111025	0	0	7965	638991	0	0
2024-08-18 06:58:47			0	35579	0	0	0	29636	28230	164860	26993	1075593	46595	111025	0	0	7966	638085	0	0
2024-08-18 06:59:47			0	35562	0	0	0	29623	28240	164728	26902	1075548	46574	111020	0	0	7965	638777	0	0
2024-08-18 07:00:47			0	35575	0	0	0	29623	28230	164652	27176	1075557	46573	111020	0	0	7966	638256	0	0
2024-08-18 07:01:47			0	35568	0	0	0	29623	28240	164652	26944	1075656	46562	111020	0	0	7966	638519	0	0
2024-08-18 07:02:47			0	35559	0	0	0	29620	28230	164744	26994	1075539	46573	111019	0	0	7965	638942	0	0
2024-08-18 07:03:47			0	35548	0	0	0	29623	28240	164764	26982	1075503	46563	111020	0	0	7964	639377	0	0
2024-08-18 07:04:47			0	35549	0	0	0	29633	28240	164612	27100	1075575	46584	111024	0	0	7964	639334	0	0
2024-08-18 07:05:47			0	35571	0	0	0	29631	28230	164688	26667	1075566	46583	111023	0	0	7966	638428	0	0
2024-08-18 07:06:47			0	35554	0	0	0	29620	28230	164604	26930	1075557	46573	111019	0	0	7965	639156	0	0
2024-08-18 07:07:47			0	35545	0	0	0	29628	28240	164572	26930	1075548	46574	111022	0	0	7964	639506	0	0
2024-08-18 07:08:47			0	35553	0	0	0	29625	28230	164556	26975	1075566	46583	111021	0	0	7965	639199	0	0
2024-08-18 07:09:47			0	35588	0	0	0	29623	28240	164584	27114	1075548	46574	111020	0	0	7967	637663	0	0
2024-08-18 07:10:47			0	35556	0	0	0	29618	28220	164512	26781	1075566	46583	111018	0	0	7965	639108	0	0
2024-08-18 07:11:47			0	35543	0	0	0	29618	28240	164632	26826	1075602	46574	111018	0	0	7964	639591	0	0
2024-08-18 07:12:47			0	35573	0	0	0	29615	28230	164612	27166	1075503	46573	111017	0	0	7966	638342	0	0
2024-08-18 07:13:47			0	35551	0	0	0	29615	28240	164608	27010	1075602	46574	111017	0	0	7965	639248	0	0
2024-08-18 07:14:47			0	35552	0	0	0	29620	28230	164700	27289	1075566	46583	111019	0	0	7965	639242	0	0
2024-08-18 07:15:47			0	35564	0	0	0	29623	28240	164564	27124	1075548	46584	111020	0	0	7965	638691	0	0
2024-08-18 07:16:47			0	35551	0	0	0	29625	28230	164648	27041	1075485	46583	111021	0	0	7964	639285	0	0
2024-08-18 07:17:47			0	35567	0	0	0	29623	28230	164628	27128	1075530	46595	111020	0	0	7965	638599	0	0
2024-08-18 07:18:47			0	35546	0	0	0	29623	28230	164584	27310	1075512	46561	111020	0	0	7964	639500	0	0
2024-08-18 07:19:47			0	35567	0	0	0	29615	28240	164572	27131	1075548	46574	111017	0	0	7966	638562	0	0
2024-08-18 07:20:47			0	35550	0	0	0	29625	28240	164568	27281	1075548	46574	111021	0	0	7964	639291	0	0
2024-08-18 07:21:47			0	35586	0	0	0	29618	28220	164592	27067	1075575	46572	111018	0	0	7967	637822	0	0
2024-08-18 07:22:47			0	35586	0	0	0	29620	28240	164580	27045	1075602	46574	111019	0	0	7967	637749	0	0
2024-08-18 07:23:47			0	35567	0	0	0	29623	28230	164588	26948	1075593	46573	111020	0	0	7965	638599	0	0
2024-08-18 07:24:47			0	35560	0	0	0	29612	28230	164676	27015	1075530	46561	111016	0	0	7965	638899	0	0
2024-08-18 07:25:47			0	35568	0	0	0	29612	28230	164620	26597	1075530	46573	111016	0	0	7966	638556	0	0
2024-08-18 07:26:47			0	35567	0	0	0	29615	28230	164660	26719	1075485	46583	111017	0	0	7966	638599	0	0
2024-08-18 07:27:47			0	35570	0	0	0	29607	28230	164624	26979	1075449	46561	111014	0	0	7966	638471	0	0
2024-08-18 07:28:47			0	35564	0	0	0	29605	28230	164660	26965	1075557	46573	111013	0	0	7966	638728	0	0
2024-08-18 07:29:47			0	35578	0	0	0	29615	28240	164576	27019	1075521	46584	111017	0	0	7966	638091	0	0
2024-08-18 07:30:47			0	35553	0	0	0	29618	28220	164540	27012	1075548	46572	111018	0	0	7965	639236	0	0
2024-08-18 07:31:47			0	35553	0	0	0	29618	28220	164548	27128	1075467	46583	111018	0	0	7965	639236	0	0
2024-08-18 07:32:47			0	35552	0	0	0	29623	28230	164556	27121	1075476	46573	111020	0	0	7965	639242	0	0
2024-08-18 07:33:47			0	35540	0	0	0	29612	28230	164680	26771	1075449	46573	111016	0	0	7964	639757	0	0
2024-08-18 07:34:47			0	35548	0	0	0	29615	28230	164804	26656	1075539	46595	111017	0	0	7964	639414	0	0
2024-08-18 07:35:47			0	35536	0	0	0	29620	28230	164780	26842	1075476	46573	111019	0	0	7964	639929	0	0
2024-08-18 07:36:47			0	35554	0	0	0	29612	28220	164608	26786	1075494	46572	111016	0	0	7965	639193	0	0
2024-08-18 07:37:47			0	35546	0	0	0	29620	28230	164748	27027	1075503	46583	111019	0	0	7964	639500	0	0
2024-08-18 07:38:47			0	35544	0	0	0	29620	28230	164628	27055	1075503	46573	111019	0	0	7964	639585	0	0
2024-08-18 07:39:47			0	35532	0	0	0	29623	28220	164624	26807	1075539	46572	111020	0	0	7963	640137	0	0
2024-08-18 07:40:47			0	35552	0	0	0	29618	28220	164740	26967	1075440	46594	111018	0	0	7965	639279	0	0
2024-08-18 07:41:47			0	35538	0	0	0	29631	28220	164740	27163	1075485	46583	111023	0	0	7963	639880	0	0
2024-08-18 07:42:47			0	35548	0	0	0	29631	28220	164692	27352	1075521	46572	111023	0	0	7964	639451	0	0
2024-08-18 07:43:47			0	35543	0	0	0	29628	28220	164780	27123	1075521	46572	111022	0	0	7964	639665	0	0
2024-08-18 07:44:47			0	35556	0	0	0	29620	28230	164716	27038	1075584	46573	111019	0	0	7965	639071	0	0
2024-08-18 07:45:47			0	35550	0	0	0	29618	28230	164816	27170	1075512	46573	111018	0	0	7964	639328	0	0
2024-08-18 07:46:47			0	35554	0	0	0	29618	28220	164756	26750	1075548	46583	111018	0	0	7965	639193	0	0
2024-08-18 07:47:47			0	35542	0	0	0	29610	28220	164740	27348	1075494	46572	111015	0	0	7964	639708	0	0
2024-08-18 07:48:47			0	35543	0	0	0	29612	28220	164840	27055	1075494	46583	111016	0	0	7964	639665	0	0
2024-08-18 07:49:47			0	35552	0	0	0	29607	28220	164756	26970	1075494	46583	111014	0	0	7965	639279	0	0
2024-08-18 07:50:47			0	35547	0	0	0	29615	28230	164660	27196	1075530	46573	111017	0	0	7964	639457	0	0
2024-08-18 07:51:47			0	35529	0	0	0	29612	28220	164792	26961	1075494	46572	111016	0	0	7963	640266	0	0
2024-08-18 07:52:47			0	35524	0	0	0	29615	28220	164752	27074	1075548	46572	111017	0	0	7963	640481	0	0
2024-08-18 07:53:47			0	35541	0	0	0	29605	28220	164780	26991	1075521	46572	111013	0	0	7964	639751	0	0
2024-08-18 07:54:47			0	35532	0	0	0	29607	28230	164796	26996	1075584	46561	111014	0	0	7964	640100	0	0
2024-08-18 07:55:47			0	35546	0	0	0	29623	28220	164748	26837	1075521	46560	111020	0	0	7964	639536	0	0
2024-08-18 07:56:47			0	35531	0	0	0	29612	28220	164784	26774	1075467	46583	111016	0	0	7963	640180	0	0
2024-08-18 07:57:47			0	35532	0	0	0	29620	28220	164796	26965	1075458	46594	111019	0	0	7963	640137	0	0
2024-08-18 07:58:47			0	35535	0	0	0	29612	28220	164808	27020	1075467	46572	111016	0	0	7964	640009	0	0
2024-08-18 07:59:47			0	35533	0	0	0	29612	28230	164764	26934	1075503	46573	111016	0	0	7964	640057	0	0
2024-08-18 08:00:47			0	35537	0	0	0	29610	28220	164736	26667	1075512	46572	111015	0	0	7964	639923	0	0
2024-08-18 08:01:47			0	35540	0	0	0	29618	28230	164780	26788	1075503	46573	111018	0	0	7964	639757	0	0
2024-08-18 08:02:47			0	35519	0	0	0	29607	28220	164748	26828	1075521	46572	111014	0	0	7963	640696	0	0
2024-08-18 08:03:47			0	35531	0	0	0	29618	28230	164760	27083	1075476	46573	111018	0	0	7963	640143	0	0
2024-08-18 08:04:47			0	35535	0	0	0	29612	28220	164664	26741	1075512	46572	111016	0	0	7964	640009	0	0
2024-08-18 08:05:47			0	35539	0	0	0	29610	28220	164784	27005	1075467	46572	111015	0	0	7964	639837	0	0
2024-08-18 08:06:47			0	35538	0	0	0	29612	28220	164740	27033	1075494	46583	111016	0	0	7964	639880	0	0
2024-08-18 08:07:47			0	35544	0	0	0	29612	28220	164732	26908	1075521	46572	111016	0	0	7964	639622	0	0
2024-08-18 08:08:47			0	35540	0	0	0	29628	28220	164820	26989	1075521	46572	111022	0	0	7964	639794	0	0
2024-08-18 08:09:47			0	35529	0	0	0	29620	28230	164868	26594	1075539	46573	111019	0	0	7963	640229	0	0
2024-08-18 08:10:47			0	35529	0	0	0	29623	28230	164904	26883	1075485	46583	111020	0	0	7963	640229	0	0
2024-08-18 08:11:47			0	35508	0	0	0	29625	28220	164888	26883	1075548	46583	111021	0	0	7962	641168	0	0
2024-08-18 08:12:47			0	35531	0	0	0	29623	28230	164776	26927	1075566	46583	111020	0	0	7963	640143	0	0
2024-08-18 08:13:47			0	35518	0	0	0	29620	28230	164776	26854	1075539	46573	111019	0	0	7962	640701	0	0
2024-08-18 08:14:47			0	35522	0	0	0	29623	28220	164804	26861	1075548	46583	111020	0	0	7963	640567	0	0
2024-08-18 08:15:47			0	35528	0	0	0	29620	28220	164892	26975	1075548	46572	111019	0	0	7963	640309	0	0
2024-08-18 08:16:47			0	35530	0	0	0	29612	28240	164804	26918	1075575	46584	111016	0	0	7963	640149	0	0
2024-08-18 08:17:47			0	35510	0	0	0	29607	28220	164824	26779	1075539	46572	111014	0	0	7962	641082	0	0
2024-08-18 08:18:47			0	35512	0	0	0	29610	28230	164824	27008	1075530	46583	111015	0	0	7962	640959	0	0
2024-08-18 08:19:47			0	35505	0	0	0	29599	28220	164848	27107	1075467	46572	111011	0	0	7962	641297	0	0
2024-08-18 08:20:47			0	35513	0	0	0	29605	28220	164872	26911	1075548	46572	111013	0	0	7962	640953	0	0
2024-08-18 08:21:47			0	35516	0	0	0	29612	28230	164880	27114	1075530	46573	111016	0	0	7962	640787	0	0
2024-08-18 08:22:47			0	35517	0	0	0	29612	28230	164784	27031	1075512	46595	111016	0	0	7963	640745	0	0
2024-08-18 08:23:47			0	35515	0	0	0	29620	28230	164812	27298	1075530	46583	111019	0	0	7962	640830	0	0
2024-08-18 08:24:47			0	35517	0	0	0	29620	28220	164948	26764	1075575	46572	111019	0	0	7962	640782	0	0
2024-08-18 08:25:47			0	35518	0	0	0	29628	28230	164792	26568	1075557	46573	111022	0	0	7962	640701	0	0
2024-08-18 08:26:47			0	35536	0	0	0	29633	28230	164892	26797	1075530	46583	111024	0	0	7963	639929	0	0
2024-08-18 08:27:47			0	35521	0	0	0	29638	28230	164896	26757	1075566	46595	111026	0	0	7962	640573	0	0
2024-08-18 08:28:47			0	35528	0	0	0	29631	28230	164812	27086	1075620	46573	111023	0	0	7963	640272	0	0
2024-08-18 08:29:47			0	35536	0	0	0	29646	28230	164772	26694	1075566	46595	111029	0	0	7963	639929	0	0
2024-08-18 08:30:47			0	35525	0	0	0	29638	28230	164812	26918	1075593	46573	111026	0	0	7963	640401	0	0
2024-08-18 08:31:47			0	35520	0	0	0	29638	28240	164892	27095	1075548	46584	111026	0	0	7962	640579	0	0
2024-08-18 08:32:47			0	35519	0	0	0	29651	28240	164956	26909	1075692	46575	111031	0	0	7962	640622	0	0
2024-08-18 08:33:47			0	35520	0	0	0	29641	28230	164824	26908	1075593	46583	111027	0	0	7962	640616	0	0
2024-08-18 08:34:47			0	35516	0	0	0	29641	28240	164848	26982	1075611	46575	111027	0	0	7962	640750	0	0
2024-08-18 08:35:47			0	35516	0	0	0	29636	28240	164764	26618	1075602	46584	111025	0	0	7962	640750	0	0
2024-08-18 08:36:47			0	35511	0	0	0	29636	28250	164724	26757	1075701	46597	111025	0	0	7962	640928	0	0
2024-08-18 08:37:47			0	35528	0	0	0	29644	28250	164904	27057	1075674	46575	111028	0	0	7963	640198	0	0
2024-08-18 08:38:47			0	35521	0	0	0	29644	28250	164776	26798	1075674	46575	111028	0	0	7962	640499	0	0
2024-08-18 08:39:47			0	35520	0	0	0	29649	28240	164896	26897	1075638	46575	111030	0	0	7962	640579	0	0
2024-08-18 08:40:47			0	35521	0	0	0	29649	28240	164808	26883	1075683	46584	111030	0	0	7962	640536	0	0
2024-08-18 08:41:47			0	35519	0	0	0	29646	28250	164808	26750	1075656	46575	111029	0	0	7962	640585	0	0
2024-08-18 08:42:47			0	35524	0	0	0	29646	28250	164828	27007	1075656	46585	111029	0	0	7963	640370	0	0
2024-08-18 08:43:47			0	35519	0	0	0	29646	28250	164728	26873	1075683	46585	111029	0	0	7962	640585	0	0
2024-08-18 08:44:47			0	35531	0	0	0	29654	28240	164868	27013	1075665	46585	111032	0	0	7963	640106	0	0
2024-08-18 08:45:47			0	35525	0	0	0	29659	28250	164768	26981	1075710	46575	111034	0	0	7962	640327	0	0
2024-08-18 08:46:47			0	35540	0	0	0	29649	28250	164864	27034	1075683	46575	111030	0	0	7963	639683	0	0
2024-08-18 08:47:47			0	35520	0	0	0	29651	28250	164884	27164	1075647	46575	111031	0	0	7962	640542	0	0
2024-08-18 08:48:47			0	35525	0	0	0	29659	28250	164748	27046	1075710	46585	111034	0	0	7962	640327	0	0
2024-08-18 08:49:47			0	35542	0	0	0	29649	28250	164716	26651	1075737	46575	111030	0	0	7964	639597	0	0
2024-08-18 08:50:47			0	35534	0	0	0	29651	28260	164700	26844	1075692	46576	111031	0	0	7963	639904	0	0
2024-08-18 08:51:47			0	35515	0	0	0	29641	28260	164660	26781	1075665	46586	111027	0	0	7962	640719	0	0
2024-08-18 08:52:47			0	35529	0	0	0	29581	28250	164636	26830	1075566	46552	111004	0	0	7964	640155	0	0
2024-08-18 08:53:47			0	35532	0	0	0	29441	28230	164740	26987	1075431	46561	110950	0	0	7966	640100	0	0
2024-08-18 08:54:47			0	35535	0	0	0	29327	28210	164640	27090	1075009	46504	110906	0	0	7968	640046	0	0
2024-08-18 08:55:47			0	35560	0	0	0	29449	28180	164640	26760	1074982	46523	110953	0	0	7968	639084	0	0
2024-08-18 08:56:47			0	35557	0	0	0	29488	28160	164636	26826	1075026	46532	110968	0	0	7967	639286	0	0
2024-08-18 08:57:47			0	35555	0	0	0	29516	28150	164628	26918	1075125	46553	110979	0	0	7966	639409	0	0
2024-08-18 08:58:47			0	35566	0	0	0	29540	28150	164612	26788	1075089	46564	110988	0	0	7966	638937	0	0
2024-08-18 08:59:47			0	35576	0	0	0	29540	28160	164600	26975	1075134	46576	110988	0	0	7967	638472	0	0
2024-08-18 09:00:47			0	35570	0	0	0	29535	28160	164740	26620	1075188	46576	110986	0	0	7967	638729	0	0
2024-08-18 09:01:47			0	35547	0	0	0	29545	28160	164764	26653	1075242	46565	110990	0	0	7965	639715	0	0
2024-08-18 09:02:47			0	35510	0	0	0	29548	28160	164876	26587	1075188	46565	110991	0	0	7963	641304	0	0
2024-08-18 09:03:47			0	35467	0	0	0	29548	28160	165112	26779	1075197	46577	110991	0	0	7960	643155	0	0
2024-08-18 09:04:47			0	35434	0	0	0	29555	28160	165312	27067	1075242	46576	110994	0	0	7958	644578	0	0
2024-08-18 09:05:47			0	35371	0	0	0	29555	28150	165428	26694	1075232	46576	110994	0	0	7954	647338	0	0
2024-08-18 09:06:47			0	35356	0	0	0	29563	28150	165512	26859	1075205	46576	110997	0	0	7953	647987	0	0
2024-08-18 09:07:47			0	35327	0	0	0	29555	28170	165628	26852	1075233	46566	110994	0	0	7951	649170	0	0
2024-08-18 09:08:47			0	35328	0	0	0	29553	28160	165772	27088	1075269	46576	110993	0	0	7952	649164	0	0
2024-08-18 09:09:47			0	35314	0	0	0	29566	28160	165688	27156	1075251	46554	110998	0	0	7950	649771	0	0
2024-08-18 09:10:47			0	35321	0	0	0	29568	28160	165792	26745	1075242	46576	110999	0	0	7951	649467	0	0
2024-08-18 09:11:47			0	35313	0	0	0	29558	28160	165788	27111	1075188	46587	110995	0	0	7951	649815	0	0
2024-08-18 09:12:47			0	35311	0	0	0	29563	28170	165916	26701	1075233	46566	110997	0	0	7950	649864	0	0
2024-08-18 09:13:47			0	35315	0	0	0	29563	28170	165948	26823	1075260	46566	110997	0	0	7951	649690	0	0
2024-08-18 09:14:47			0	35311	0	0	0	29568	28170	165808	26793	1075206	46566	110999	0	0	7950	649864	0	0
2024-08-18 09:15:47			0	35305	0	0	0	29553	28160	165708	27173	1075251	46566	110993	0	0	7950	650162	0	0
2024-08-18 09:16:47			0	35299	0	0	0	29558	28160	165840	26913	1075224	46566	110995	0	0	7950	650423	0	0
2024-08-18 09:17:47			0	35311	0	0	0	29550	28170	165744	26667	1075179	46577	110992	0	0	7951	649864	0	0
2024-08-18 09:18:47			0	35294	0	0	0	29540	28160	165852	26812	1075188	46553	110988	0	0	7950	650640	0	0
2024-08-18 09:19:47			0	35306	0	0	0	29537	28160	165836	26850	1075134	46576	110987	0	0	7950	650119	0	0
2024-08-18 09:20:47			0	35298	0	0	0	29553	28150	165948	26741	1075169	46575	110993	0	0	7950	650503	0	0
2024-08-18 09:21:47			0	35261	0	0	0	29542	28160	166004	26798	1075197	46566	110989	0	0	7948	652075	0	0
2024-08-18 09:22:47			0	35252	0	0	0	29548	28150	166008	26932	1075205	46576	110991	0	0	7947	652504	0	0
2024-08-18 09:23:47			0	35268	0	0	0	29545	28160	166008	26734	1075224	46577	110990	0	0	7948	651770	0	0
2024-08-18 09:24:47			0	35252	0	0	0	29542	28150	166132	26694	1075098	46565	110989	0	0	7947	652504	0	0
2024-08-18 09:25:47			0	35245	0	0	0	29542	28160	166148	26733	1075161	46565	110989	0	0	7947	652771	0	0
2024-08-18 09:26:47			0	35234	0	0	0	29542	28150	166224	27109	1075205	46565	110989	0	0	7946	653288	0	0
2024-08-18 09:27:47			0	35234	0	0	0	29537	28160	166212	26689	1075188	46565	110987	0	0	7946	653251	0	0
2024-08-18 09:28:47			0	35245	0	0	0	29545	28150	166200	26953	1075142	46586	110990	0	0	7946	652809	0	0
2024-08-18 09:29:47			0	35242	0	0	0	29537	28140	166184	26833	1075160	46564	110987	0	0	7946	652977	0	0
2024-08-18 09:30:47			0	35260	0	0	0	29535	28150	166128	26833	1075169	46575	110986	0	0	7948	652156	0	0
2024-08-18 09:31:47			0	35243	0	0	0	29537	28140	166128	27097	1075160	46564	110987	0	0	7946	652934	0	0
2024-08-18 09:32:47			0	35247	0	0	0	29537	28140	166192	27015	1075106	46552	110987	0	0	7947	652760	0	0
2024-08-18 09:33:47			0	35250	0	0	0	29561	28140	166108	26896	1075106	46575	110996	0	0	7946	652629	0	0
2024-08-18 09:34:47			0	35264	0	0	0	29550	28140	166068	27034	1075106	46575	110992	0	0	7948	652019	0	0
2024-08-18 09:35:47			0	35252	0	0	0	29542	28150	166068	27031	1075196	46564	110989	0	0	7947	652504	0	0
2024-08-18 09:36:47			0	35264	0	0	0	29550	28150	166112	26755	1075178	46576	110992	0	0	7948	651982	0	0
2024-08-18 09:37:47			0	35271	0	0	0	29584	28150	166088	26965	1075178	46576	111005	0	0	7947	651677	0	0
2024-08-18 09:38:47			0	35276	0	0	0	29586	28150	165972	26883	1075232	46576	111006	0	0	7948	651460	0	0
2024-08-18 09:39:47			0	35261	0	0	0	29586	28160	166032	27003	1075305	46566	111006	0	0	7947	652075	0	0
2024-08-18 09:40:47			0	35295	0	0	0	29594	28170	166016	26972	1075260	46588	111009	0	0	7949	650559	0	0
2024-08-18 09:41:47			0	35300	0	0	0	29592	28170	165960	27137	1075314	46588	111008	0	0	7949	650342	0	0
2024-08-18 09:42:47			0	35301	0	0	0	29594	28170	165844	27015	1075314	46577	111009	0	0	7949	650298	0	0
2024-08-18 09:43:47			0	35301	0	0	0	29599	28180	165892	27303	1075413	46590	111011	0	0	7949	650261	0	0
2024-08-18 09:44:47			0	35300	0	0	0	29610	28190	165900	26804	1075431	46601	111015	0	0	7949	650266	0	0
2024-08-18 09:45:47			0	35318	0	0	0	29612	28180	165852	27038	1075359	46579	111016	0	0	7950	649523	0	0
2024-08-18 09:46:47			0	35311	0	0	0	29607	28180	165832	27112	1075395	46579	111014	0	0	7950	649826	0	0
2024-08-18 09:47:47			0	35305	0	0	0	29605	28190	165812	26972	1075467	46580	111013	0	0	7949	650049	0	0
2024-08-18 09:48:47			0	35334	0	0	0	29602	28180	165820	27033	1075476	46579	111012	0	0	7951	648829	0	0
2024-08-18 09:49:47			0	35334	0	0	0	29615	28200	165764	26944	1075458	46570	111017	0	0	7951	648754	0	0
2024-08-18 09:50:47			0	35353	0	0	0	29599	28190	165624	27223	1075440	46580	111011	0	0	7952	647968	0	0
2024-08-18 09:51:47			0	35363	0	0	0	29607	28210	165616	26890	1075467	46582	111014	0	0	7953	647460	0	0
2024-08-18 09:52:47			0	35341	0	0	0	29620	28210	165708	27308	1075467	46582	111019	0	0	7951	648413	0	0
2024-08-18 09:53:47			0	35358	0	0	0	29615	28200	165604	27078	1075476	46570	111017	0	0	7953	647714	0	0
2024-08-18 09:54:47			0	35357	0	0	0	29623	28200	165636	26979	1075458	46581	111020	0	0	7952	647757	0	0
2024-08-18 09:55:47			0	35346	0	0	0	29638	28210	165604	27100	1075530	46582	111026	0	0	7951	648196	0	0
2024-08-18 09:56:47			0	35380	0	0	0	29644	28200	165672	26876	1075512	46581	111028	0	0	7953	646762	0	0
2024-08-18 09:57:47			0	35380	0	0	0	29644	28200	165548	27050	1075530	46581	111028	0	0	7953	646762	0	0
2024-08-18 09:58:47			0	35378	0	0	0	29633	28230	165588	27213	1075584	46583	111024	0	0	7954	646736	0	0
2024-08-18 09:59:47			0	35397	0	0	0	29618	28220	165504	27320	1075593	46572	111018	0	0	7955	645952	0	0
2024-08-18 10:00:47			0	35386	0	0	0	29568	28220	165536	27059	1075521	46572	110999	0	0	7955	646427	0	0
2024-08-18 10:01:47			0	35411	0	0	0	29566	28230	165508	27215	1075422	46583	110998	0	0	7957	645310	0	0
2024-08-18 10:02:47			0	35420	0	0	0	29566	28210	165352	26970	1075386	46571	110998	0	0	7957	644996	0	0
2024-08-18 10:03:47			0	35431	0	0	0	29568	28210	165460	27060	1075368	46538	110999	0	0	7958	644521	0	0
2024-08-18 10:04:47			0	35430	0	0	0	29563	28200	165352	26868	1075422	46570	110997	0	0	7958	644602	0	0
2024-08-18 10:05:47			0	35432	0	0	0	29561	28190	165228	26915	1075323	46568	110996	0	0	7958	644552	0	0
2024-08-18 10:06:47			0	35469	0	0	0	29610	28190	165172	27059	1075413	46569	111015	0	0	7959	642957	0	0
2024-08-18 10:07:47			0	35474	0	0	0	29623	28190	165188	26772	1075458	46601	111020	0	0	7960	642742	0	0
2024-08-18 10:08:47			0	35482	0	0	0	29625	28190	165148	27010	1075494	46591	111021	0	0	7960	642398	0	0
2024-08-18 10:09:47			0	35477	0	0	0	29636	28210	165112	27206	1075530	46593	111025	0	0	7960	642539	0	0
2024-08-18 10:10:47			0	35470	0	0	0	29641	28210	165096	27050	1075557	46604	111027	0	0	7959	642840	0	0
2024-08-18 10:11:47			0	35482	0	0	0	29644	28220	165160	27027	1075602	46583	111028	0	0	7960	642287	0	0
2024-08-18 10:12:47			0	35481	0	0	0	29644	28220	165064	26955	1075602	46583	111028	0	0	7960	642329	0	0
2024-08-18 10:13:47			0	35500	0	0	0	29662	28230	164984	26677	1075692	46583	111035	0	0	7961	641475	0	0
2024-08-18 10:14:47			0	35525	0	0	0	29667	28230	164988	26845	1075638	46573	111037	0	0	7962	640401	0	0
2024-08-18 10:15:47			0	35545	0	0	0	29657	28240	164776	27036	1075692	46585	111033	0	0	7964	639506	0	0
2024-08-18 10:16:47			0	35568	0	0	0	29651	28240	164728	26928	1075692	46585	111031	0	0	7965	638519	0	0
2024-08-18 10:17:47			0	35597	0	0	0	29651	28240	164584	26722	1075710	46596	111031	0	0	7967	637278	0	0
2024-08-18 10:18:47			0	35601	0	0	0	29657	28240	164488	26986	1075800	46597	111033	0	0	7967	637106	0	0
2024-08-18 10:19:47			0	35618	0	0	0	29659	28240	164444	26934	1075746	46575	111034	0	0	7968	636380	0	0
2024-08-18 10:20:47			0	35630	0	0	0	29662	28260	164408	26968	1075800	46586	111035	0	0	7969	635793	0	0
2024-08-18 10:21:47			0	35631	0	0	0	29662	28250	164292	26920	1075764	46585	111035	0	0	7969	635787	0	0
2024-08-18 10:22:47			0	35656	0	0	0	29667	28250	164216	27081	1075728	46585	111037	0	0	7970	634720	0	0
2024-08-18 10:23:47			0	35647	0	0	0	29659	28250	164260	27145	1075791	46585	111034	0	0	7970	635104	0	0
2024-08-18 10:24:47			0	35669	0	0	0	29659	28250	164152	26975	1075764	46597	111034	0	0	7971	634166	0	0
2024-08-18 10:25:47			0	35675	0	0	0	29667	28260	164204	26958	1075746	46586	111037	0	0	7971	633873	0	0
2024-08-18 10:26:47			0	35672	0	0	0	29662	28250	164068	27246	1075737	46585	111035	0	0	7971	634038	0	0
2024-08-18 10:27:47			0	35677	0	0	0	29667	28260	164116	27109	1075746	46586	111037	0	0	7972	633788	0	0
2024-08-18 10:28:47			0	35693	0	0	0	29677	28260	164056	27175	1075773	46586	111041	0	0	7972	633106	0	0
2024-08-18 10:29:47			0	35713	0	0	0	29677	28270	164176	27272	1075791	46577	111041	0	0	7974	632219	0	0
2024-08-18 10:30:47			0	35715	0	0	0	29675	28270	163900	27189	1075818	46599	111040	0	0	7974	632134	0	0
2024-08-18 10:31:47			0	35707	0	0	0	29680	28260	163952	26958	1075863	46587	111042	0	0	7973	632510	0	0
2024-08-18 10:32:47			0	35728	0	0	0	29693	28280	163920	27131	1075900	46589	111047	0	0	7974	631544	0	0
2024-08-18 10:33:47			0	35741	0	0	0	29698	28270	163776	26993	1075899	46587	111049	0	0	7975	631028	0	0
2024-08-18 10:34:47			0	35777	0	0	0	29701	28270	163616	27189	1075908	46587	111050	0	0	7977	629500	0	0
2024-08-18 10:35:47			0	35799	0	0	0	29698	28280	163564	27242	1075900	46589	111049	0	0	7979	628531	0	0
2024-08-18 10:36:47			0	35833	0	0	0	29696	28280	163524	27137	1075891	46578	111048	0	0	7981	627092	0	0
2024-08-18 10:37:47			0	35839	0	0	0	29701	28280	163412	27015	1075927	46589	111050	0	0	7981	626839	0	0
2024-08-18 10:38:47			0	35849	0	0	0	29701	28280	163328	26823	1075927	46589	111050	0	0	7982	626416	0	0
2024-08-18 10:39:47			0	35866	0	0	0	29719	28280	163353	26736	1075944	46578	111057	0	0	7982	625698	0	0
2024-08-18 10:40:47			0	35869	0	0	0	29719	28280	163225	27199	1075980	46601	111057	0	0	7982	625571	0	0
2024-08-18 10:41:47			0	35889	0	0	0	29724	28300	163197	27118	1075981	46602	111059	0	0	7984	624655	0	0
2024-08-18 10:42:47			0	35916	0	0	0	29711	28300	163077	27093	1076044	46591	111054	0	0	7986	623517	0	0
2024-08-18 10:43:47			0	35923	0	0	0	29709	28310	163081	27163	1076026	46582	111053	0	0	7986	623186	0	0
2024-08-18 10:44:47			0	35934	0	0	0	29714	28300	162969	27086	1075990	46581	111055	0	0	7987	622759	0	0
2024-08-18 10:45:47			0	35969	0	0	0	29711	28310	162817	27121	1076080	46592	111054	0	0	7989	621252	0	0
2024-08-18 10:46:47			0	35971	0	0	0	29709	28300	162733	26986	1075963	46603	111053	0	0	7989	621204	0	0
2024-08-18 10:47:47			0	35988	0	0	0	29714	28310	162713	27228	1076053	46592	111055	0	0	7990	620454	0	0
2024-08-18 10:48:47			0	36005	0	0	0	29724	28310	162677	27313	1075999	46582	111059	0	0	7991	619741	0	0
2024-08-18 10:49:47			0	36016	0	0	0	29722	28310	162557	27216	1075999	46592	111058	0	0	7991	619280	0	0
2024-08-18 10:50:47			0	36044	0	0	0	29727	28310	162477	27098	1076062	46582	111060	0	0	7993	618107	0	0
2024-08-18 10:51:47			0	36064	0	0	0	29724	28320	162501	27249	1076044	46592	111059	0	0	7994	617235	0	0
2024-08-18 10:52:47			0	36086	0	0	0	29716	28310	162461	27001	1076035	46592	111056	0	0	7996	616351	0	0
2024-08-18 10:53:47			0	36075	0	0	0	29716	28310	162281	26896	1076053	46592	111056	0	0	7995	616810	0	0
2024-08-18 10:54:47			0	36095	0	0	0	29716	28320	162229	27144	1076044	46592	111056	0	0	7996	615939	0	0
2024-08-18 10:55:47			0	36107	0	0	0	29727	28320	162317	27308	1076026	46583	111060	0	0	7997	615438	0	0
2024-08-18 10:56:47			0	36111	0	0	0	29724	28320	162261	27090	1076134	46605	111059	0	0	7997	615272	0	0
2024-08-18 10:57:47			0	36121	0	0	0	29722	28320	162145	26854	1076080	46571	111058	0	0	7998	614855	0	0
2024-08-18 10:58:47			0	36144	0	0	0	29724	28330	162029	26817	1076116	46583	111059	0	0	7999	613860	0	0
2024-08-18 10:59:47			0	36168	0	0	0	29724	28320	161929	27190	1076151	46582	111059	0	0	8001	612897	0	0
2024-08-18 11:00:47			0	36167	0	0	0	29735	28330	161829	27064	1076143	46583	111063	0	0	8000	612903	0	0
2024-08-18 11:01:47			0	36191	0	0	0	29727	28320	161909	27237	1076134	46593	111060	0	0	8002	611940	0	0
2024-08-18 11:02:47			0	36195	0	0	0	29724	28330	161717	27100	1076116	46594	111059	0	0	8002	611739	0	0
2024-08-18 11:03:47			0	36215	0	0	0	29740	28330	161725	27150	1076170	46594	111065	0	0	8003	610908	0	0
2024-08-18 11:04:47			0	36211	0	0	0	29735	28330	161729	26984	1076143	46594	111063	0	0	8003	611074	0	0
2024-08-18 11:05:47			0	36227	0	0	0	29729	28330	161669	27031	1076098	46594	111061	0	0	8004	610410	0	0
2024-08-18 11:06:47			0	36236	0	0	0	29729	28330	161561	27147	1076179	46594	111061	0	0	8005	610037	0	0
2024-08-18 11:07:47			0	36250	0	0	0	29727	28330	161545	27237	1076170	46583	111060	0	0	8006	609456	0	0
2024-08-18 11:08:47			0	36262	0	0	0	29732	28330	161469	26868	1076089	46583	111062	0	0	8006	608959	0	0
2024-08-18 11:09:47			0	36264	0	0	0	29737	28330	161421	27041	1076125	46594	111064	0	0	8006	608876	0	0
2024-08-18 11:10:47			0	36258	0	0	0	29740	28330	161433	27147	1076206	46594	111065	0	0	8006	609125	0	0
2024-08-18 11:11:47			0	36278	0	0	0	29753	28330	161365	27192	1076197	46583	111070	0	0	8007	608297	0	0
2024-08-18 11:12:47			0	36270	0	0	0	29750	28340	161421	26807	1076215	46594	111069	0	0	8006	608593	0	0
2024-08-18 11:13:47			0	36285	0	0	0	29737	28340	161301	26981	1076161	46594	111064	0	0	8008	607972	0	0
2024-08-18 11:14:47			0	36295	0	0	0	29735	28340	161277	26918	1076197	46595	111063	0	0	8008	607559	0	0
2024-08-18 11:15:47			0	36327	0	0	0	29727	28340	161265	26889	1076215	46583	111060	0	0	8010	606236	0	0
2024-08-18 11:16:47			0	36309	0	0	0	29740	28340	161061	26719	1076134	46583	111065	0	0	8009	606980	0	0
2024-08-18 11:17:47			0	36333	0	0	0	29748	28340	161081	27036	1076224	46595	111068	0	0	8010	605989	0	0
2024-08-18 11:18:47			0	36336	0	0	0	29761	28340	161185	26892	1076251	46584	111073	0	0	8010	605865	0	0
2024-08-18 11:19:47			0	36321	0	0	0	29758	28340	161185	26923	1076251	46595	111072	0	0	8009	606484	0	0
2024-08-18 11:20:47			0	36347	0	0	0	29755	28340	161113	26504	1076278	46595	111071	0	0	8011	605411	0	0
2024-08-18 11:21:47			0	36348	0	0	0	29768	28360	160989	26932	1076305	46585	111076	0	0	8011	605300	0	0
2024-08-18 11:22:47			0	36377	0	0	0	29761	28360	160881	27194	1076332	46585	111073	0	0	8013	604104	0	0
2024-08-18 11:23:47			0	36406	0	0	0	29768	28350	160817	27256	1076260	46585	111076	0	0	8014	602946	0	0
2024-08-18 11:24:47			0	36423	0	0	0	29763	28370	160809	26835	1076323	46576	111074	0	0	8015	602177	0	0
2024-08-18 11:25:47			0	36426	0	0	0	29763	28360	160729	26733	1076332	46608	111074	0	0	8016	602089	0	0
2024-08-18 11:26:47			0	36444	0	0	0	29766	28360	160641	27071	1076305	46596	111075	0	0	8017	601349	0	0
2024-08-18 11:27:47			0	36450	0	0	0	29755	28350	160577	27147	1076269	46585	111071	0	0	8017	601138	0	0
2024-08-18 11:28:47			0	36443	0	0	0	29774	28360	160537	27095	1076332	46608	111078	0	0	8016	601390	0	0
2024-08-18 11:29:47			0	36461	0	0	0	29776	28370	160573	27208	1076350	46587	111079	0	0	8017	600617	0	0
2024-08-18 11:30:47			0	36481	0	0	0	29784	28360	160489	27123	1076341	46597	111082	0	0	8018	599832	0	0
2024-08-18 11:31:47			0	36499	0	0	0	29779	28380	160413	26842	1076368	46599	111080	0	0	8020	599025	0	0
2024-08-18 11:32:47			0	36525	0	0	0	29776	28370	160241	26875	1076386	46599	111079	0	0	8021	597996	0	0
2024-08-18 11:33:47			0	36546	0	0	0	29786	28370	160357	26882	1076377	46598	111083	0	0	8022	597137	0	0
2024-08-18 11:34:47			0	36536	0	0	0	29784	28380	160265	27196	1076449	46599	111082	0	0	8022	597512	0	0
2024-08-18 11:35:47			0	36542	0	0	0	29781	28380	160109	26958	1076458	46599	111081	0	0	8022	597266	0	0
2024-08-18 11:36:47			0	36557	0	0	0	29781	28380	160221	27033	1076368	46599	111081	0	0	8023	596653	0	0
2024-08-18 11:37:47			0	36576	0	0	0	29786	28390	160081	27100	1076440	46600	111083	0	0	8024	595844	0	0
2024-08-18 11:38:47			0	36574	0	0	0	29797	28380	160073	27085	1076350	46599	111087	0	0	8024	595960	0	0
2024-08-18 11:39:47			0	36597	0	0	0	29802	28380	160066	27130	1076539	46611	111089	0	0	8025	595022	0	0
2024-08-18 11:40:47			0	36582	0	0	0	29807	28380	160065	26828	1076566	46599	111091	0	0	8024	595633	0	0
2024-08-18 11:41:47			0	36598	0	0	0	29792	28400	159977	27079	1076503	46613	111085	0	0	8025	594912	0	0
2024-08-18 11:42:47			0	36591	0	0	0	29784	28400	159953	26970	1076476	46590	111082	0	0	8025	595198	0	0
2024-08-18 11:43:47			0	36613	0	0	0	29792	28400	159802	27220	1076449	46590	111085	0	0	8026	594301	0	0
2024-08-18 11:44:47			0	36599	0	0	0	29786	28400	159958	26837	1076530	46590	111083	0	0	8026	594871	0	0
2024-08-18 11:45:47			0	36602	0	0	0	29781	28400	159814	26923	1076503	46590	111081	0	0	8026	594749	0	0
2024-08-18 11:46:47			0	36614	0	0	0	29797	28400	159906	26948	1076476	46590	111087	0	0	8026	594261	0	0
2024-08-18 11:47:47			0	36612	0	0	0	29799	28390	159898	27170	1076494	46600	111088	0	0	8026	594376	0	0
2024-08-18 11:48:47			0	36619	0	0	0	29799	28400	159798	26826	1076512	46601	111088	0	0	8027	594057	0	0
2024-08-18 11:49:47			0	36633	0	0	0	29807	28400	159818	27090	1076593	46601	111091	0	0	8027	593487	0	0
2024-08-18 11:50:47			0	36635	0	0	0	29815	28400	159822	26941	1076530	46601	111094	0	0	8027	593406	0	0
2024-08-18 11:51:47			0	36634	0	0	0	29810	28400	159782	26817	1076557	46624	111092	0	0	8027	593447	0	0
2024-08-18 11:52:47			0	36636	0	0	0	29805	28410	159850	27069	1076548	46601	111090	0	0	8028	593331	0	0
2024-08-18 11:53:47			0	36645	0	0	0	29807	28410	159754	26958	1076575	46601	111091	0	0	8028	592965	0	0
2024-08-18 11:54:47			0	36637	0	0	0	29815	28410	159762	26899	1076602	46590	111094	0	0	8027	593290	0	0
2024-08-18 11:55:47			0	36662	0	0	0	29805	28410	159794	26817	1076656	46601	111090	0	0	8029	592274	0	0
2024-08-18 11:56:47			0	36659	0	0	0	29815	28410	159670	27196	1076656	46590	111094	0	0	8029	592396	0	0
2024-08-18 11:57:47			0	36651	0	0	0	29797	28410	159714	26951	1076503	46602	111087	0	0	8029	592721	0	0
2024-08-18 11:58:47			0	36655	0	0	0	29820	28410	159818	26913	1076611	46602	111096	0	0	8028	592558	0	0
2024-08-18 11:59:47			0	36647	0	0	0	29823	28420	159782	26840	1076737	46592	111097	0	0	8028	592849	0	0
2024-08-18 12:00:47			0	36662	0	0	0	29836	28410	159706	27208	1076683	46601	111102	0	0	8029	592274	0	0
2024-08-18 12:01:47			0	36689	0	0	0	29841	28420	159738	27171	1076683	46603	111104	0	0	8030	591144	0	0
2024-08-18 12:02:47			0	36683	0	0	0	29862	28440	159626	26896	1076764	46605	111112	0	0	8030	591319	0	0
2024-08-18 12:03:47			0	36713	0	0	0	29846	28420	159558	26915	1076764	46615	111106	0	0	8031	590170	0	0
2024-08-18 12:04:47			0	36729	0	0	0	29836	28430	159438	27308	1076719	46603	111102	0	0	8033	589488	0	0
2024-08-18 12:05:47			0	36733	0	0	0	29833	28440	159274	26937	1076710	46605	111101	0	0	8033	589292	0	0
2024-08-18 12:06:47			0	36755	0	0	0	29849	28430	159226	26894	1076728	46616	111107	0	0	8034	588436	0	0
2024-08-18 12:07:47			0	36757	0	0	0	29849	28440	159214	27197	1076746	46606	111107	0	0	8034	588321	0	0
2024-08-18 12:08:47			0	36770	0	0	0	29857	28440	159314	27225	1076845	46605	111110	0	0	8035	587796	0	0
2024-08-18 12:09:47			0	36771	0	0	0	29867	28440	159278	27284	1076800	46595	111114	0	0	8035	587755	0	0
2024-08-18 12:10:47			0	36791	0	0	0	29857	28450	159262	27085	1076845	46606	111110	0	0	8036	586914	0	0
2024-08-18 12:11:47			0	36801	0	0	0	29875	28450	159078	27154	1076845	46618	111117	0	0	8036	586510	0	0
2024-08-18 12:12:47			0	36799	0	0	0	29854	28450	158994	26913	1076899	46606	111109	0	0	8037	586591	0	0
2024-08-18 12:13:47			0	36801	0	0	0	29857	28450	159110	26861	1076872	46606	111110	0	0	8037	586510	0	0
2024-08-18 12:14:47			0	36802	0	0	0	29862	28450	159010	26899	1076899	46606	111112	0	0	8037	586470	0	0
2024-08-18 12:15:47			0	36824	0	0	0	29870	28470	159070	27213	1076872	46597	111115	0	0	8038	585515	0	0
2024-08-18 12:16:47			0	36812	0	0	0	29867	28460	159046	26993	1076890	46608	111114	0	0	8037	586032	0	0
2024-08-18 12:17:47			0	36828	0	0	0	29867	28460	158994	27092	1076863	46597	111114	0	0	8038	585387	0	0
2024-08-18 12:18:47			0	36821	0	0	0	29875	28460	158998	27131	1076881	46607	111117	0	0	8038	585669	0	0
2024-08-18 12:19:47			0	36828	0	0	0	29875	28460	158898	26902	1076863	46620	111117	0	0	8038	585387	0	0
2024-08-18 12:20:47			0	36829	0	0	0	29877	28470	158926	27033	1076935	46620	111118	0	0	8038	585313	0	0
2024-08-18 12:21:47			0	36857	0	0	0	29872	28460	158874	26908	1076962	46596	111116	0	0	8040	584219	0	0
2024-08-18 12:22:47			0	36858	0	0	0	29890	28470	158770	26778	1076935	46620	111123	0	0	8040	584145	0	0
2024-08-18 12:23:47			0	36866	0	0	0	29888	28480	158810	27114	1076944	46609	111122	0	0	8040	583790	0	0
2024-08-18 12:24:47			0	36881	0	0	0	29885	28480	158726	26889	1076944	46609	111121	0	0	8041	583187	0	0
2024-08-18 12:25:47			0	36869	0	0	0	29903	28490	158762	26656	1076990	46610	111128	0	0	8040	583635	0	0
2024-08-18 12:26:47			0	36898	0	0	0	29898	28490	158634	26791	1077016	46610	111126	0	0	8042	582470	0	0
2024-08-18 12:27:47			0	36906	0	0	0	29914	28490	158478	27064	1077016	46610	111132	0	0	8042	582149	0	0
2024-08-18 12:28:47			0	36935	0	0	0	29911	28500	158518	27036	1077115	46623	111131	0	0	8044	580952	0	0
2024-08-18 12:29:47			0	36944	0	0	0	29911	28490	158450	26993	1077133	46610	111131	0	0	8044	580624	0	0
2024-08-18 12:30:47			0	36953	0	0	0	29906	28490	158390	26880	1077106	46622	111129	0	0	8045	580264	0	0
2024-08-18 12:31:47			0	36949	0	0	0	29922	28500	158370	26873	1077142	46600	111135	0	0	8044	580390	0	0
2024-08-18 12:32:47			0	36952	0	0	0	29924	28500	158270	26755	1077151	46612	111136	0	0	8045	580270	0	0
2024-08-18 12:33:47			0	36969	0	0	0	29909	28500	158322	26941	1077124	46624	111130	0	0	8046	579590	0	0
2024-08-18 12:34:47			0	36982	0	0	0	29932	28500	158286	26852	1077178	46612	111139	0	0	8046	579070	0	0
2024-08-18 12:35:47			0	36987	0	0	0	29932	28510	158266	27079	1077187	46625	111139	0	0	8047	578836	0	0
2024-08-18 12:36:47			0	36985	0	0	0	29922	28500	158258	26703	1077178	46634	111135	0	0	8047	578949	0	0
2024-08-18 12:37:47			0	36979	0	0	0	29919	28520	158238	27069	1077206	46613	111134	0	0	8046	579122	0	0
2024-08-18 12:38:47			0	37006	0	0	0	29922	28520	158162	27319	1077188	46603	111135	0	0	8048	578043	0	0
2024-08-18 12:39:47			0	36994	0	0	0	29942	28520	158214	26719	1077233	46625	111143	0	0	8047	578523	0	0
2024-08-18 12:40:47			0	37016	0	0	0	29922	28520	158086	26993	1077295	46614	111135	0	0	8048	577644	0	0
2024-08-18 12:41:47			0	37016	0	0	0	29922	28530	157998	27334	1077224	46615	111135	0	0	8049	577610	0	0
2024-08-18 12:42:47			0	37015	0	0	0	29940	28510	158110	27232	1077250	46613	111142	0	0	8048	577717	0	0
2024-08-18 12:43:47			0	37020	0	0	0	29948	28520	158026	27159	1077322	46614	111145	0	0	8048	577484	0	0
2024-08-18 12:44:47			0	37025	0	0	0	29940	28520	157926	27000	1077295	46614	111142	0	0	8049	577284	0	0
2024-08-18 12:45:47			0	37033	0	0	0	29935	28530	157882	27093	1077341	46626	111140	0	0	8049	576932	0	0
2024-08-18 12:46:47			0	37041	0	0	0	29945	28530	157902	27012	1077332	46615	111144	0	0	8050	576613	0	0
2024-08-18 12:47:47			0	37039	0	0	0	29948	28530	157970	26717	1077260	46626	111145	0	0	8049	576692	0	0
2024-08-18 12:48:47			0	37054	0	0	0	29966	28530	157942	26902	1077314	46615	111152	0	0	8050	576094	0	0
2024-08-18 12:49:47			0	37068	0	0	0	29953	28540	157762	26878	1077386	46638	111147	0	0	8051	575503	0	0
2024-08-18 12:50:47			0	37074	0	0	0	29963	28540	157870	26726	1077332	46627	111151	0	0	8051	575264	0	0
2024-08-18 12:51:47			0	37087	0	0	0	29973	28550	157698	27206	1077431	46639	111155	0	0	8052	574713	0	0
2024-08-18 12:52:47			0	37107	0	0	0	29979	28550	157746	26889	1077377	46628	111157	0	0	8053	573918	0	0
2024-08-18 12:53:47			0	37119	0	0	0	29971	28560	157730	27098	1077467	46628	111154	0	0	8054	573408	0	0
2024-08-18 12:54:47			0	37115	0	0	0	29979	28550	157662	27166	1077404	46617	111157	0	0	8053	573600	0	0
2024-08-18 12:55:47			0	37110	0	0	0	29984	28570	157678	27008	1077494	46630	111159	0	0	8053	573732	0	0
2024-08-18 12:56:47			0	37112	0	0	0	29989	28560	157698	26958	1077467	46617	111161	0	0	8053	573686	0	0
2024-08-18 12:57:47			0	37129	0	0	0	29953	28560	157678	27222	1077530	46629	111147	0	0	8055	573010	0	0
2024-08-18 12:58:47			0	37122	0	0	0	29992	28560	157714	26783	1077503	46607	111162	0	0	8054	573288	0	0
2024-08-18 12:59:47			0	37140	0	0	0	29994	28570	157594	27211	1077467	46630	111163	0	0	8055	572540	0	0
2024-08-18 13:00:47			0	37149	0	0	0	29989	28570	157538	26812	1077521	46630	111161	0	0	8055	572183	0	0
2024-08-18 13:01:47			0	37154	0	0	0	29976	28580	157526	26961	1077557	46631	111156	0	0	8056	571952	0	0
2024-08-18 13:02:47			0	37156	0	0	0	29955	28570	157646	27154	1077494	46619	111148	0	0	8056	571906	0	0
2024-08-18 13:03:47			0	37131	0	0	0	29976	28570	157630	26974	1077467	46608	111156	0	0	8055	572898	0	0
2024-08-18 13:04:47			0	37130	0	0	0	29984	28570	157662	27170	1077521	46630	111159	0	0	8054	572937	0	0
2024-08-18 13:05:47			0	37129	0	0	0	29981	28570	157554	26857	1077521	46608	111158	0	0	8054	572977	0	0
2024-08-18 13:06:47			0	37151	0	0	0	29992	28570	157598	26982	1077539	46630	111162	0	0	8055	572104	0	0
2024-08-18 13:07:47			0	37151	0	0	0	29981	28580	157534	26701	1077530	46609	111158	0	0	8056	572071	0	0
2024-08-18 13:08:47			0	37158	0	0	0	29989	28570	157462	27204	1077548	46619	111161	0	0	8056	571826	0	0
2024-08-18 13:09:47			0	37161	0	0	0	29979	28570	157506	27147	1077467	46619	111157	0	0	8056	571707	0	0
2024-08-18 13:10:47			0	37174	0	0	0	29994	28580	157538	26960	1077593	46620	111163	0	0	8057	571159	0	0
2024-08-18 13:11:47			0	37188	0	0	0	29986	28590	157454	26906	1077548	46621	111160	0	0	8058	570571	0	0
2024-08-18 13:12:47			0	37195	0	0	0	29992	28580	157514	26941	1077566	46609	111162	0	0	8058	570327	0	0
2024-08-18 13:13:47			0	37185	0	0	0	30002	28580	157366	26814	1077557	46631	111166	0	0	8057	570723	0	0
2024-08-18 13:14:47			0	37221	0	0	0	29986	28590	157306	27168	1077575	46621	111160	0	0	8060	569265	0	0
2024-08-18 13:15:47			0	37206	0	0	0	29973	28590	157390	27022	1077584	46633	111155	0	0	8059	569858	0	0
2024-08-18 13:16:47			0	37190	0	0	0	29986	28590	157330	27013	1077584	46633	111160	0	0	8058	570492	0	0
2024-08-18 13:17:47			0	37217	0	0	0	29994	28580	157310	26741	1077566	46620	111163	0	0	8059	569456	0	0
2024-08-18 13:18:47			0	37211	0	0	0	29963	28590	157182	26651	1077575	46621	111151	0	0	8060	569661	0	0
2024-08-18 13:19:47			0	37211	0	0	0	29984	28580	157266	27067	1077557	46620	111159	0	0	8059	569694	0	0
2024-08-18 13:20:47			0	37222	0	0	0	29989	28590	157274	27253	1077575	46610	111161	0	0	8060	569226	0	0
2024-08-18 13:21:47			0	37246	0	0	0	30005	28590	157262	26882	1077584	46622	111167	0	0	8061	568277	0	0
2024-08-18 13:22:47			0	37253	0	0	0	30007	28580	157090	27034	1077665	46631	111168	0	0	8061	568034	0	0
2024-08-18 13:23:47			0	37271	0	0	0	30018	28600	156974	26854	1077647	46644	111172	0	0	8062	567258	0	0
2024-08-18 13:24:47			0	37294	0	0	0	29999	28580	156998	26949	1077674	46620	111165	0	0	8064	566416	0	0
2024-08-18 13:25:47			0	37289	0	0	0	30005	28600	157014	26925	1077701	46622	111167	0	0	8063	566548	0	0
2024-08-18 13:26:47			0	37287	0	0	0	29986	28600	156986	26696	1077728	46622	111160	0	0	8064	566627	0	0
2024-08-18 13:27:47			0	37296	0	0	0	30005	28590	156914	26628	1077665	46633	111167	0	0	8064	566305	0	0
2024-08-18 13:28:47			0	37316	0	0	0	30020	28600	156862	26743	1077674	46611	111173	0	0	8065	565484	0	0
2024-08-18 13:29:47			0	37318	0	0	0	30005	28600	156779	26965	1077674	46633	111167	0	0	8065	565405	0	0
2024-08-18 13:30:47			0	37324	0	0	0	30012	28600	156671	26767	1077755	46622	111170	0	0	8065	565169	0	0
2024-08-18 13:31:47			0	37366	0	0	0	30005	28600	156703	26958	1077737	46599	111167	0	0	8068	563518	0	0
2024-08-18 13:32:47			0	37368	0	0	0	30018	28600	156635	26998	1077710	46611	111172	0	0	8068	563439	0	0
2024-08-18 13:33:47			0	37366	0	0	0	29997	28600	156667	26925	1077710	46622	111164	0	0	8068	563518	0	0
2024-08-18 13:34:47			0	37356	0	0	0	29994	28600	156643	27114	1077656	46622	111163	0	0	8067	563911	0	0
2024-08-18 13:35:47			0	37350	0	0	0	30007	28610	156675	26960	1077665	46634	111168	0	0	8067	564114	0	0
2024-08-18 13:36:47			0	37379	0	0	0	30028	28610	156611	26965	1077665	46612	111176	0	0	8068	562975	0	0
2024-08-18 13:37:47			0	37377	0	0	0	30018	28610	156523	26994	1077719	46623	111172	0	0	8068	563053	0	0
2024-08-18 13:38:47			0	37386	0	0	0	30018	28610	156539	26736	1077782	46624	111172	0	0	8069	562700	0	0
2024-08-18 13:39:47			0	37391	0	0	0	30007	28610	156455	26975	1077692	46612	111168	0	0	8069	562504	0	0
2024-08-18 13:40:47			0	37389	0	0	0	30018	28610	156595	26670	1077746	46623	111172	0	0	8069	562582	0	0
2024-08-18 13:41:47			0	37401	0	0	0	30012	28610	156499	27010	1077692	46623	111170	0	0	8070	562112	0	0
2024-08-18 13:42:47			0	37402	0	0	0	30031	28610	156439	26963	1077755	46624	111177	0	0	8070	562073	0	0
2024-08-18 13:43:47			0	37434	0	0	0	30038	28610	156431	26916	1077728	46635	111180	0	0	8071	560819	0	0
2024-08-18 13:44:47			0	37423	0	0	0	30038	28610	156315	27097	1077755	46624	111180	0	0	8071	561250	0	0
2024-08-18 13:45:47			0	37438	0	0	0	30031	28620	156367	26925	1077791	46624	111177	0	0	8072	560630	0	0
2024-08-18 13:46:47			0	37443	0	0	0	30049	28630	156255	27000	1077810	46625	111184	0	0	8072	560401	0	0
2024-08-18 13:47:47			0	37453	0	0	0	30049	28620	156203	27083	1077872	46635	111184	0	0	8072	560043	0	0
2024-08-18 13:48:47			0	37486	0	0	0	30036	28630	156127	27086	1077890	46625	111179	0	0	8074	558720	0	0
2024-08-18 13:49:47			0	37470	0	0	0	30028	28630	156095	27126	1077792	46625	111176	0	0	8074	559346	0	0
2024-08-18 13:50:47			0	37459	0	0	0	30012	28620	156211	26970	1077800	46624	111170	0	0	8073	559808	0	0
2024-08-18 13:51:47			0	37461	0	0	0	30007	28630	156135	27036	1077810	46603	111168	0	0	8073	559697	0	0
2024-08-18 13:52:47			0	37446	0	0	0	30023	28630	156239	27060	1077765	46615	111174	0	0	8072	560284	0	0
2024-08-18 13:53:47			0	37450	0	0	0	30038	28620	156163	27045	1077791	46635	111180	0	0	8072	560160	0	0
2024-08-18 13:54:47			0	37461	0	0	0	30025	28630	156147	27015	1077863	46625	111175	0	0	8073	559697	0	0
2024-08-18 13:55:47			0	37448	0	0	0	30015	28630	156271	26889	1077765	46625	111171	0	0	8073	560206	0	0
2024-08-18 13:56:47			0	37439	0	0	0	30018	28630	156259	27095	1077765	46615	111172	0	0	8072	560558	0	0
2024-08-18 13:57:47			0	37451	0	0	0	30051	28610	156243	26658	1077917	46624	111185	0	0	8072	560153	0	0
2024-08-18 13:58:47			0	37487	0	0	0	30044	28620	156203	26783	1077908	46624	111182	0	0	8074	558714	0	0
2024-08-18 13:59:47			0	37496	0	0	0	30046	28630	156031	26987	1077872	46615	111183	0	0	8075	558330	0	0
2024-08-18 14:00:47			0	37492	0	0	0	30049	28640	156087	26989	1077909	46637	111184	0	0	8075	558454	0	0
2024-08-18 14:01:47			0	37506	0	0	0	30067	28640	155971	26705	1077971	46649	111191	0	0	8075	557907	0	0
2024-08-18 14:02:47			0	37522	0	0	0	30033	28640	156019	26993	1077971	46626	111178	0	0	8077	557283	0	0
2024-08-18 14:03:47			0	37517	0	0	0	30041	28640	156003	26791	1077918	46638	111181	0	0	8076	557478	0	0
2024-08-18 14:04:47			0	37514	0	0	0	30049	28640	155979	26838	1077945	46626	111184	0	0	8076	557595	0	0
2024-08-18 14:05:47			0	37502	0	0	0	30054	28650	155931	27022	1077954	46626	111186	0	0	8075	558031	0	0
2024-08-18 14:06:47			0	37524	0	0	0	30046	28640	155943	27196	1077909	46615	111183	0	0	8077	557205	0	0
2024-08-18 14:07:47			0	37518	0	0	0	30049	28650	156031	27291	1078008	46638	111184	0	0	8076	557407	0	0
2024-08-18 14:08:47			0	37521	0	0	0	30059	28660	155971	27013	1077972	46617	111188	0	0	8076	557258	0	0
2024-08-18 14:09:47			0	37532	0	0	0	30049	28640	155971	26897	1077971	46626	111184	0	0	8077	556893	0	0
2024-08-18 14:10:47			0	37521	0	0	0	30062	28650	155951	27194	1077990	46617	111189	0	0	8076	557290	0	0
2024-08-18 14:11:47			0	37531	0	0	0	30054	28640	155927	26998	1077998	46616	111186	0	0	8077	556932	0	0
2024-08-18 14:12:47			0	37540	0	0	0	30070	28650	155963	27093	1078008	46616	111192	0	0	8077	556549	0	0
2024-08-18 14:13:47			0	37549	0	0	0	30077	28660	155979	26592	1078026	46617	111195	0	0	8078	556167	0	0
2024-08-18 14:14:47			0	37562	0	0	0	30072	28660	155855	26967	1078080	46627	111193	0	0	8078	555661	0	0
2024-08-18 14:15:47			0	37565	0	0	0	30083	28670	155807	27183	1078125	46628	111197	0	0	8078	555512	0	0
2024-08-18 14:16:47			0	37562	0	0	0	30075	28660	155767	27227	1078089	46651	111194	0	0	8078	555661	0	0
2024-08-18 14:17:47			0	37571	0	0	0	30096	28680	155879	26993	1078107	46629	111202	0	0	8079	555246	0	0
2024-08-18 14:18:47			0	37573	0	0	0	30090	28670	155815	27033	1078179	46640	111200	0	0	8079	555201	0	0
2024-08-18 14:19:47			0	37579	0	0	0	30077	28680	155775	26967	1078134	46619	111195	0	0	8079	554935	0	0
2024-08-18 14:20:47			0	37570	0	0	0	30090	28660	155795	26630	1078143	46628	111200	0	0	8079	555349	0	0
2024-08-18 14:21:47			0	37604	0	0	0	30090	28680	155591	27062	1078143	46630	111200	0	0	8081	553964	0	0
2024-08-18 14:22:47			0	37601	0	0	0	30103	28690	155639	27138	1078260	46630	111205	0	0	8080	554048	0	0
2024-08-18 14:23:47			0	37606	0	0	0	30101	28680	155623	26814	1078170	46630	111204	0	0	8081	553886	0	0
2024-08-18 14:24:47			0	37603	0	0	0	30090	28700	155627	27074	1078278	46643	111200	0	0	8081	553938	0	0
2024-08-18 14:25:47			0	37613	0	0	0	30106	28690	155615	26870	1078188	46631	111206	0	0	8081	553582	0	0
2024-08-18 14:26:47			0	37601	0	0	0	30096	28700	155591	27102	1078170	46643	111202	0	0	8080	554016	0	0
2024-08-18 14:27:47			0	37617	0	0	0	30109	28690	155595	26880	1078188	46609	111207	0	0	8081	553427	0	0
2024-08-18 14:28:47			0	37609	0	0	0	30106	28700	155603	27034	1078233	46644	111206	0	0	8081	553705	0	0
2024-08-18 14:29:47			0	37596	0	0	0	30090	28700	155639	26804	1078251	46631	111200	0	0	8080	554210	0	0
2024-08-18 14:30:47			0	37597	0	0	0	30106	28700	155551	26887	1078206	46632	111206	0	0	8080	554171	0	0
2024-08-18 14:31:47			0	37601	0	0	0	30088	28700	155559	26899	1078278	46643	111199	0	0	8081	554016	0	0
2024-08-18 14:32:47			0	37607	0	0	0	30114	28700	155571	26713	1078251	46631	111209	0	0	8080	553783	0	0
2024-08-18 14:33:47			0	37618	0	0	0	30124	28700	155499	26915	1078287	46632	111213	0	0	8081	553356	0	0
2024-08-18 14:34:47			0	37636	0	0	0	30122	28710	155535	26648	1078215	46632	111212	0	0	8082	552626	0	0
2024-08-18 14:35:47			0	37635	0	0	0	30122	28710	155403	26906	1078323	46632	111212	0	0	8082	552665	0	0
2024-08-18 14:36:47			0	37669	0	0	0	30119	28710	155287	26802	1078323	46644	111211	0	0	8084	551347	0	0
2024-08-18 14:37:47			0	37652	0	0	0	30135	28710	155375	26915	1078377	46632	111217	0	0	8083	552006	0	0
2024-08-18 14:38:47			0	37675	0	0	0	30135	28720	155291	26788	1078296	46646	111217	0	0	8084	551083	0	0
2024-08-18 14:39:47			0	37666	0	0	0	30122	28720	155387	27012	1078368	46645	111212	0	0	8084	551431	0	0
2024-08-18 14:40:47			0	37664	0	0	0	30127	28730	155363	26807	1078359	46646	111214	0	0	8084	551477	0	0
2024-08-18 14:41:47			0	37673	0	0	0	30116	28720	155255	26731	1078341	46633	111210	0	0	8084	551160	0	0
2024-08-18 14:42:47			0	37655	0	0	0	30142	28730	155279	26840	1078315	46658	111220	0	0	8083	551826	0	0
2024-08-18 14:43:47			0	37653	0	0	0	30153	28730	155335	26934	1078386	46657	111224	0	0	8083	551903	0	0
2024-08-18 14:44:47			0	37695	0	0	0	30135	28730	155327	26809	1078386	46634	111217	0	0	8085	550277	0	0
2024-08-18 14:45:47			0	37687	0	0	0	30135	28740	155167	26987	1078458	46625	111217	0	0	8085	550555	0	0
2024-08-18 14:46:47			0	37678	0	0	0	30135	28730	155283	26824	1078440	46634	111217	0	0	8084	550935	0	0
2024-08-18 14:47:47			0	37675	0	0	0	30132	28740	155275	26776	1078432	46614	111216	0	0	8084	551019	0	0
2024-08-18 14:48:47			0	37657	0	0	0	30129	28740	155335	27067	1078405	46635	111215	0	0	8083	551716	0	0
2024-08-18 14:49:47			0	37655	0	0	0	30135	28740	155343	27088	1078387	46648	111217	0	0	8083	551794	0	0
2024-08-18 14:50:47			0	37649	0	0	0	30129	28740	155371	26776	1078432	46635	111215	0	0	8083	552026	0	0
2024-08-18 14:51:47			0	37680	0	0	0	30163	28750	155275	26828	1078477	46636	111228	0	0	8084	550794	0	0
2024-08-18 14:52:47			0	37689	0	0	0	30153	28750	155175	26989	1078504	46636	111224	0	0	8085	550446	0	0
2024-08-18 14:53:47			0	37686	0	0	0	30148	28740	155107	26830	1078495	46636	111222	0	0	8085	550594	0	0
2024-08-18 14:54:47			0	37673	0	0	0	30135	28740	155171	26941	1078495	46636	111217	0	0	8084	551097	0	0
2024-08-18 14:55:47			0	37685	0	0	0	30163	28750	155291	27119	1078540	46649	111228	0	0	8084	550600	0	0
2024-08-18 14:56:47			0	37673	0	0	0	30140	28750	155191	26904	1078513	46637	111219	0	0	8084	551065	0	0
2024-08-18 14:57:47			0	37687	0	0	0	30135	28750	155235	26925	1078567	46637	111217	0	0	8085	550523	0	0
2024-08-18 14:58:47			0	37682	0	0	0	30148	28750	155287	26649	1078486	46626	111222	0	0	8084	550716	0	0
2024-08-18 14:59:47			0	37671	0	0	0	30148	28750	155283	27059	1078584	46625	111222	0	0	8084	551142	0	0
2024-08-18 15:00:47			0	37662	0	0	0	30150	28740	155315	27081	1078458	46658	111223	0	0	8083	551522	0	0
2024-08-18 15:01:47			0	37677	0	0	0	30161	28750	155383	27064	1078477	46636	111227	0	0	8084	550910	0	0
2024-08-18 15:02:47			0	37676	0	0	0	30176	28750	155239	26752	1078540	46637	111233	0	0	8084	550949	0	0
2024-08-18 15:03:47			0	37689	0	0	0	30174	28760	155275	26875	1078603	46638	111232	0	0	8084	550414	0	0
2024-08-18 15:04:47			0	37701	0	0	0	30171	28750	155243	26623	1078567	46649	111231	0	0	8085	549982	0	0
2024-08-18 15:05:47			0	37700	0	0	0	30163	28760	155131	26932	1078630	46638	111228	0	0	8085	549988	0	0
2024-08-18 15:06:47			0	37721	0	0	0	30189	28760	155191	27001	1078666	46638	111238	0	0	8086	549177	0	0
2024-08-18 15:07:47			0	37708	0	0	0	30184	28770	155075	26771	1078630	46639	111236	0	0	8085	549647	0	0
2024-08-18 15:08:47			0	37714	0	0	0	30189	28760	155107	26960	1078639	46638	111238	0	0	8086	549448	0	0
2024-08-18 15:09:47			0	37721	0	0	0	30176	28770	155027	26569	1078648	46627	111233	0	0	8086	549145	0	0
2024-08-18 15:10:47			0	37715	0	0	0	30186	28780	155111	26922	1078639	46640	111237	0	0	8086	549345	0	0
2024-08-18 15:11:47			0	37712	0	0	0	30181	28790	154955	26892	1078657	46653	111235	0	0	8086	549429	0	0
2024-08-18 15:12:47			0	37738	0	0	0	30179	28790	155035	26738	1078747	46630	111234	0	0	8087	548426	0	0
2024-08-18 15:13:47			0	37731	0	0	0	30179	28780	155027	27119	1078693	46640	111234	0	0	8087	548728	0	0
2024-08-18 15:14:47			0	37738	0	0	0	30181	28780	155035	26994	1078702	46640	111235	0	0	8087	548457	0	0
2024-08-18 15:15:47			0	37738	0	0	0	30218	28780	155003	26708	1078720	46640	111249	0	0	8087	548457	0	0
2024-08-18 15:16:47			0	37745	0	0	0	30212	28790	154923	27001	1078711	46653	111247	0	0	8087	548156	0	0
2024-08-18 15:17:47			0	37767	0	0	0	30212	28790	154907	26994	1078747	46653	111247	0	0	8088	547308	0	0
2024-08-18 15:18:47			0	37760	0	0	0	30215	28800	154867	27196	1078846	46642	111248	0	0	8088	547546	0	0
2024-08-18 15:19:47			0	37789	0	0	0	30218	28800	154767	26514	1078846	46642	111249	0	0	8090	546429	0	0
2024-08-18 15:20:47			0	37779	0	0	0	30215	28800	154771	27038	1078891	46654	111248	0	0	8089	546814	0	0
2024-08-18 15:21:47			0	37798	0	0	0	30218	28800	154759	26967	1078810	46654	111249	0	0	8090	546082	0	0
2024-08-18 15:22:47			0	37797	0	0	0	30218	28800	154679	26878	1078873	46642	111249	0	0	8090	546121	0	0
2024-08-18 15:23:47			0	37801	0	0	0	30212	28810	154707	26811	1078855	46643	111247	0	0	8091	545936	0	0
2024-08-18 15:24:47			0	37809	0	0	0	30215	28810	154675	26850	1078864	46643	111248	0	0	8091	545628	0	0
2024-08-18 15:25:47			0	37790	0	0	0	30205	28810	154719	27126	1078855	46643	111244	0	0	8090	546359	0	0
2024-08-18 15:26:47			0	37798	0	0	0	30205	28810	154719	26816	1078864	46655	111244	0	0	8090	546051	0	0
2024-08-18 15:27:47			0	37770	0	0	0	30207	28810	154787	27048	1078828	46643	111245	0	0	8089	547129	0	0
2024-08-18 15:28:47			0	37768	0	0	0	30197	28800	154767	27079	1078873	46631	111241	0	0	8089	547237	0	0
2024-08-18 15:29:47			0	37771	0	0	0	30212	28810	154835	27279	1078837	46643	111247	0	0	8089	547090	0	0
2024-08-18 15:30:47			0	37773	0	0	0	30210	28810	154815	27355	1078918	46643	111246	0	0	8089	547013	0	0
2024-08-18 15:31:47			0	37767	0	0	0	30202	28810	154791	27258	1078811	46643	111243	0	0	8089	547244	0	0
2024-08-18 15:32:47			0	37768	0	0	0	30197	28810	154827	26941	1078775	46643	111241	0	0	8089	547206	0	0
2024-08-18 15:33:47			0	37750	0	0	0	30212	28800	154875	26951	1078792	46631	111247	0	0	8088	547931	0	0
2024-08-18 15:34:47			0	37737	0	0	0	30238	28810	154931	27041	1078837	46643	111257	0	0	8086	548401	0	0
2024-08-18 15:35:47			0	37761	0	0	0	30233	28810	154799	26965	1078891	46643	111255	0	0	8088	547475	0	0
2024-08-18 15:36:47			0	37789	0	0	0	30223	28820	154811	27201	1078963	46657	111251	0	0	8090	546365	0	0
2024-08-18 15:37:47			0	37780	0	0	0	30231	28820	154771	26906	1078963	46657	111254	0	0	8089	546712	0	0
2024-08-18 15:38:47			0	37794	0	0	0	30231	28810	154671	26807	1078918	46655	111254	0	0	8090	546205	0	0
2024-08-18 15:39:47			0	37810	0	0	0	30238	28830	154675	27015	1079000	46645	111257	0	0	8091	545526	0	0
2024-08-18 15:40:47			0	37793	0	0	0	30233	28830	154663	26864	1078973	46667	111255	0	0	8090	546180	0	0
2024-08-18 15:41:47			0	37793	0	0	0	30233	28830	154683	26974	1079036	46634	111255	0	0	8090	546180	0	0
2024-08-18 15:42:47			0	37790	0	0	0	30246	28830	154735	26606	1079036	46634	111260	0	0	8089	546295	0	0
2024-08-18 15:43:47			0	37811	0	0	0	30249	28840	154775	26817	1079099	46658	111261	0	0	8091	545456	0	0
2024-08-18 15:44:47			0	37800	0	0	0	30241	28840	154607	26729	1079018	46646	111258	0	0	8090	545879	0	0
2024-08-18 15:45:47			0	37790	0	0	0	30228	28830	154683	26715	1078982	46657	111253	0	0	8090	546295	0	0
2024-08-18 15:46:47			0	37789	0	0	0	30262	28840	154711	27163	1079045	46646	111266	0	0	8089	546302	0	0
2024-08-18 15:47:47			0	37811	0	0	0	30272	28840	154711	27170	1079081	46636	111270	0	0	8090	545456	0	0
2024-08-18 15:48:47			0	37791	0	0	0	30238	28840	154687	27185	1079027	46647	111257	0	0	8090	546225	0	0
2024-08-18 15:49:47			0	37798	0	0	0	30259	28840	154663	27100	1079099	46658	111265	0	0	8090	545956	0	0
2024-08-18 15:50:47			0	37806	0	0	0	30262	28850	154691	27130	1079117	46647	111266	0	0	8090	545617	0	0
2024-08-18 15:51:47			0	37790	0	0	0	30251	28850	154555	27197	1079117	46659	111262	0	0	8089	546232	0	0
2024-08-18 15:52:47			0	37782	0	0	0	30244	28840	154675	26892	1079081	46659	111259	0	0	8089	546571	0	0
2024-08-18 15:53:47			0	37773	0	0	0	30259	28850	154743	26987	1079063	46636	111265	0	0	8088	546886	0	0
2024-08-18 15:54:47			0	37771	0	0	0	30236	28850	154819	26993	1079090	46647	111256	0	0	8089	546963	0	0
2024-08-18 15:55:47			0	37762	0	0	0	30254	28850	154875	27071	1079099	46647	111263	0	0	8088	547310	0	0
2024-08-18 15:56:47			0	37763	0	0	0	30249	28860	154867	26896	1079027	46660	111261	0	0	8088	547240	0	0
2024-08-18 15:57:47			0	37730	0	0	0	30262	28850	154863	27085	1079090	46659	111266	0	0	8086	548544	0	0
2024-08-18 15:58:47			0	37749	0	0	0	30251	28860	154795	26949	1079135	46637	111262	0	0	8087	547779	0	0
2024-08-18 15:59:47			0	37720	0	0	0	30212	28850	154927	27147	1079072	46647	111247	0	0	8086	548929	0	0
2024-08-18 16:00:47			0	37667	0	0	0	30210	28850	155119	27052	1078955	46636	111246	0	0	8083	550978	0	0
2024-08-18 16:01:47			0	37659	0	0	0	30207	28840	155163	27001	1079027	46636	111245	0	0	8083	551319	0	0
2024-08-18 16:02:47			0	37658	0	0	0	30218	28840	155211	26951	1079000	46659	111249	0	0	8082	551358	0	0
2024-08-18 16:03:47			0	37638	0	0	0	30218	28850	155231	26965	1079063	46647	111249	0	0	8081	552100	0	0
2024-08-18 16:04:47			0	37628	0	0	0	30218	28840	155271	26948	1078991	46635	111249	0	0	8081	552520	0	0
2024-08-18 16:05:47			0	37610	0	0	0	30218	28840	155231	27100	1078964	46624	111249	0	0	8080	553218	0	0
2024-08-18 16:06:47			0	37614	0	0	0	30220	28840	155395	27166	1078964	46635	111250	0	0	8080	553063	0	0
2024-08-18 16:07:47			0	37617	0	0	0	30220	28840	155379	26887	1078991	46635	111250	0	0	8080	552946	0	0
2024-08-18 16:08:47			0	37611	0	0	0	30220	28830	155351	27137	1079009	46645	111250	0	0	8080	553211	0	0
2024-08-18 16:09:47			0	37615	0	0	0	30225	28830	155415	26759	1079063	46645	111252	0	0	8080	553056	0	0
2024-08-18 16:10:47			0	37628	0	0	0	30220	28840	155331	27161	1079045	46635	111250	0	0	8081	552520	0	0
2024-08-18 16:11:47			0	37618	0	0	0	30244	28830	155451	26889	1079036	46657	111259	0	0	8080	552939	0	0
2024-08-18 16:12:47			0	37622	0	0	0	30233	28840	155331	27093	1079099	46646	111255	0	0	8080	552752	0	0
2024-08-18 16:13:47			0	37641	0	0	0	30241	28840	155303	27213	1079027	46647	111258	0	0	8081	552016	0	0
2024-08-18 16:14:47			0	37632	0	0	0	30238	28840	155335	26904	1079081	46647	111257	0	0	8080	552365	0	0
2024-08-18 16:15:47			0	37652	0	0	0	30259	28850	155295	27001	1079036	46659	111265	0	0	8081	551558	0	0
2024-08-18 16:16:47			0	37643	0	0	0	30264	28840	155255	27216	1079108	46659	111267	0	0	8081	551938	0	0
2024-08-18 16:17:47			0	37658	0	0	0	30262	28850	155259	27176	1079144	46647	111266	0	0	8082	551326	0	0
2024-08-18 16:18:47			0	37661	0	0	0	30259	28850	155143	26896	1079171	46647	111265	0	0	8082	551210	0	0
2024-08-18 16:19:47			0	37645	0	0	0	30259	28840	155139	27062	1079099	46658	111265	0	0	8081	551861	0	0
2024-08-18 16:20:47			0	37658	0	0	0	30251	28850	155187	27029	1079144	46636	111262	0	0	8082	551326	0	0
2024-08-18 16:21:47			0	37660	0	0	0	30259	28850	155279	27121	1079126	46659	111265	0	0	8082	551248	0	0
2024-08-18 16:22:47			0	37673	0	0	0	30262	28850	155263	26880	1079090	46647	111266	0	0	8082	550745	0	0
2024-08-18 16:23:47			0	37674	0	0	0	30267	28840	155167	26982	1079162	46659	111268	0	0	8082	550739	0	0
2024-08-18 16:24:47			0	37688	0	0	0	30244	28850	155079	27121	1079171	46625	111259	0	0	8084	550165	0	0
2024-08-18 16:25:47			0	37680	0	0	0	30246	28850	155083	27053	1079126	46659	111260	0	0	8083	550475	0	0
2024-08-18 16:26:47			0	37674	0	0	0	30249	28850	155195	27199	1079090	46659	111261	0	0	8083	550707	0	0
2024-08-18 16:27:47			0	37658	0	0	0	30249	28840	155211	27026	1079081	46647	111261	0	0	8082	551358	0	0
2024-08-18 16:28:47			0	37647	0	0	0	30249	28850	155199	26922	1079090	46647	111261	0	0	8081	551752	0	0
2024-08-18 16:29:47			0	37647	0	0	0	30264	28850	155267	26750	1079180	46659	111267	0	0	8081	551752	0	0
2024-08-18 16:30:47			0	37662	0	0	0	30264	28850	155143	27012	1079153	46659	111267	0	0	8082	551171	0	0
2024-08-18 16:31:47			0	37660	0	0	0	30267	28850	155071	26833	1079117	46647	111268	0	0	8082	551248	0	0
2024-08-18 16:32:47			0	37683	0	0	0	30267	28850	155111	27140	1079180	46636	111268	0	0	8083	550359	0	0
2024-08-18 16:33:47			0	37680	0	0	0	30283	28850	155155	27081	1079180	46659	111274	0	0	8083	550475	0	0
2024-08-18 16:34:47			0	37720	0	0	0	30296	28860	155083	27244	1079171	46661	111279	0	0	8085	548898	0	0
2024-08-18 16:35:47			0	37714	0	0	0	30290	28860	154983	27209	1079252	46649	111277	0	0	8084	549129	0	0
2024-08-18 16:36:47			0	37738	0	0	0	30303	28870	154979	26974	1079270	46662	111282	0	0	8086	548171	0	0
2024-08-18 16:37:47			0	37753	0	0	0	30309	28870	154903	26977	1079297	46662	111284	0	0	8086	547593	0	0
2024-08-18 16:38:47			0	37757	0	0	0	30316	28880	154887	26779	1079279	46662	111287	0	0	8087	547407	0	0
2024-08-18 16:39:47			0	37773	0	0	0	30311	28880	154787	26771	1079369	46673	111285	0	0	8088	546791	0	0
2024-08-18 16:40:47			0	37781	0	0	0	30329	28890	154799	26871	1079415	46674	111292	0	0	8088	546452	0	0
2024-08-18 16:41:47			0	37790	0	0	0	30324	28890	154683	27027	1079378	46652	111290	0	0	8088	546105	0	0
2024-08-18 16:42:47			0	37793	0	0	0	30327	28890	154635	26923	1079388	46652	111291	0	0	8088	545990	0	0
2024-08-18 16:43:47			0	37785	0	0	0	30322	28900	154583	26928	1079406	46653	111289	0	0	8088	546266	0	0
2024-08-18 16:44:47			0	37785	0	0	0	30324	28890	154695	26656	1079378	46664	111290	0	0	8088	546298	0	0
2024-08-18 16:45:47			0	37789	0	0	0	30316	28900	154719	26949	1079478	46652	111287	0	0	8088	546112	0	0
2024-08-18 16:46:47			0	37793	0	0	0	30322	28900	154671	27090	1079406	46675	111289	0	0	8089	545958	0	0
2024-08-18 16:47:47			0	37779	0	0	0	30329	28910	154715	26979	1079442	46654	111292	0	0	8088	546465	0	0
2024-08-18 16:48:47			0	37773	0	0	0	30329	28900	154711	27098	1079433	46653	111292	0	0	8087	546728	0	0
2024-08-18 16:49:47			0	37779	0	0	0	30322	28900	154727	26890	1079433	46642	111289	0	0	8088	546497	0	0
2024-08-18 16:50:47			0	37789	0	0	0	30322	28920	154603	27163	1079487	46654	111289	0	0	8088	546049	0	0
2024-08-18 16:51:47			0	37774	0	0	0	30319	28910	154731	27005	1079478	46643	111288	0	0	8088	546658	0	0
2024-08-18 16:52:47			0	37780	0	0	0	30322	28900	154839	26772	1079460	46642	111289	0	0	8088	546459	0	0
2024-08-18 16:53:47			0	37759	0	0	0	30319	28910	154807	26901	1079388	46666	111288	0	0	8087	547235	0	0
2024-08-18 16:54:47			0	37765	0	0	0	30319	28900	154867	26615	1079478	46652	111288	0	0	8087	547036	0	0
2024-08-18 16:55:47			0	37758	0	0	0	30327	28910	154819	26772	1079415	46654	111291	0	0	8087	547274	0	0
2024-08-18 16:56:47			0	37764	0	0	0	30324	28910	154847	26835	1079532	46643	111290	0	0	8087	547043	0	0
2024-08-18 16:57:47			0	37767	0	0	0	30324	28910	154751	26724	1079523	46666	111290	0	0	8087	546927	0	0
2024-08-18 16:58:47			0	37756	0	0	0	30322	28920	154779	26876	1079514	46654	111289	0	0	8087	547319	0	0
2024-08-18 16:59:47			0	37769	0	0	0	30324	28910	154739	26469	1079505	46643	111290	0	0	8087	546850	0	0
2024-08-18 17:00:47			0	37769	0	0	0	30314	28910	154839	27116	1079451	46654	111286	0	0	8087	546850	0	0
2024-08-18 17:01:47			0	37765	0	0	0	30311	28920	154891	27183	1079460	46666	111285	0	0	8087	546972	0	0
2024-08-18 17:02:47			0	37759	0	0	0	30306	28910	154795	26993	1079451	46643	111283	0	0	8087	547235	0	0
2024-08-18 17:03:47			0	37769	0	0	0	30311	28910	154759	27013	1079442	46643	111285	0	0	8087	546850	0	0
2024-08-18 17:04:47			0	37769	0	0	0	30314	28910	154763	26844	1079505	46666	111286	0	0	8087	546850	0	0
2024-08-18 17:05:47			0	37767	0	0	0	30314	28910	154891	26771	1079361	46654	111286	0	0	8087	546927	0	0
2024-08-18 17:06:47			0	37767	0	0	0	30303	28910	154755	27067	1079532	46654	111282	0	0	8087	546927	0	0
2024-08-18 17:07:47			0	37738	0	0	0	30298	28910	154899	27093	1079451	46654	111280	0	0	8086	548044	0	0
2024-08-18 17:08:47			0	37736	0	0	0	30306	28910	154967	26653	1079388	46643	111283	0	0	8086	548121	0	0
2024-08-18 17:09:47			0	37738	0	0	0	30306	28920	154915	26923	1079460	46654	111283	0	0	8086	548013	0	0
2024-08-18 17:10:47			0	37726	0	0	0	30316	28910	154891	26667	1079451	46654	111287	0	0	8085	548507	0	0
2024-08-18 17:11:47			0	37737	0	0	0	30306	28910	154963	27083	1079451	46666	111283	0	0	8086	548083	0	0
2024-08-18 17:12:47			0	37729	0	0	0	30314	28910	155019	26748	1079415	46654	111286	0	0	8085	548391	0	0
2024-08-18 17:13:47			0	37718	0	0	0	30309	28910	154947	26746	1079370	46666	111284	0	0	8085	548816	0	0
2024-08-18 17:14:47			0	37729	0	0	0	30306	28900	154939	27187	1079379	46642	111283	0	0	8085	548423	0	0
2024-08-18 17:15:47			0	37732	0	0	0	30296	28910	155031	27097	1079469	46654	111279	0	0	8086	548276	0	0
2024-08-18 17:16:47			0	37711	0	0	0	30293	28900	154967	27072	1079433	46665	111278	0	0	8084	549118	0	0
2024-08-18 17:17:47			0	37704	0	0	0	30288	28900	155087	27130	1079406	46642	111276	0	0	8084	549388	0	0
2024-08-18 17:18:47			0	37687	0	0	0	30285	28900	155043	26798	1079379	46642	111275	0	0	8083	550045	0	0
2024-08-18 17:19:47			0	37681	0	0	0	30293	28910	155187	27038	1079361	46654	111278	0	0	8083	550245	0	0
2024-08-18 17:20:47			0	37689	0	0	0	30296	28900	155175	26785	1079325	46665	111279	0	0	8083	549967	0	0
2024-08-18 17:21:47			0	37698	0	0	0	30296	28900	155143	27204	1079397	46652	111279	0	0	8084	549620	0	0
2024-08-18 17:22:47			0	37702	0	0	0	30288	28890	155083	27171	1079361	46664	111276	0	0	8084	549497	0	0
2024-08-18 17:23:47			0	37674	0	0	0	30293	28900	155143	27114	1079379	46653	111278	0	0	8082	550547	0	0
2024-08-18 17:24:47			0	37692	0	0	0	30296	28910	155147	26819	1079361	46654	111279	0	0	8083	549820	0	0
2024-08-18 17:25:47			0	37697	0	0	0	30285	28890	155099	26772	1079307	46652	111275	0	0	8084	549690	0	0
2024-08-18 17:26:47			0	37673	0	0	0	30293	28900	155239	27029	1079343	46652	111278	0	0	8082	550586	0	0
2024-08-18 17:27:47			0	37670	0	0	0	30290	28910	155127	26932	1079361	46666	111277	0	0	8082	550670	0	0
2024-08-18 17:28:47			0	37684	0	0	0	30290	28890	155123	27076	1079334	46652	111277	0	0	8083	550193	0	0
2024-08-18 17:29:47			0	37685	0	0	0	30296	28890	155195	26674	1079324	46664	111279	0	0	8083	550154	0	0
2024-08-18 17:30:47			0	37700	0	0	0	30285	28900	155175	26819	1079370	46641	111275	0	0	8084	549542	0	0
2024-08-18 17:31:47			0	37667	0	0	0	30285	28890	155123	27196	1079351	46652	111275	0	0	8082	550850	0	0
2024-08-18 17:32:47			0	37677	0	0	0	30288	28890	155087	26817	1079307	46652	111276	0	0	8082	550463	0	0
2024-08-18 17:33:47			0	37684	0	0	0	30280	28890	155143	27008	1079334	46652	111273	0	0	8083	550193	0	0
2024-08-18 17:34:47			0	37674	0	0	0	30272	28890	155211	26916	1079334	46641	111270	0	0	8083	550579	0	0
2024-08-18 17:35:47			0	37674	0	0	0	30285	28890	155199	26974	1079298	46652	111275	0	0	8082	550579	0	0
2024-08-18 17:36:47			0	37679	0	0	0	30283	28890	155151	26960	1079271	46652	111274	0	0	8083	550386	0	0
2024-08-18 17:37:47			0	37679	0	0	0	30283	28880	155187	27258	1079261	46651	111274	0	0	8083	550418	0	0
2024-08-18 17:38:47			0	37691	0	0	0	30285	28890	155151	27076	1079324	46664	111275	0	0	8083	549922	0	0
2024-08-18 17:39:47			0	37683	0	0	0	30277	28890	155171	26930	1079298	46664	111272	0	0	8083	550231	0	0
2024-08-18 17:40:47			0	37654	0	0	0	30290	28890	155279	27071	1079298	46652	111277	0	0	8081	551353	0	0
2024-08-18 17:41:47			0	37643	0	0	0	30277	28880	155307	27416	1079261	46651	111272	0	0	8081	551810	0	0
2024-08-18 17:42:47			0	37662	0	0	0	30275	28880	155395	27189	1079288	46640	111271	0	0	8082	551075	0	0
2024-08-18 17:43:47			0	37672	0	0	0	30272	28890	155223	27261	1079298	46641	111270	0	0	8082	550656	0	0
2024-08-18 17:44:47			0	37662	0	0	0	30280	28890	155351	27033	1079351	46652	111273	0	0	8082	551043	0	0
2024-08-18 17:45:47			0	37668	0	0	0	30277	28880	155235	26911	1079279	46662	111272	0	0	8082	550843	0	0
2024-08-18 17:46:47			0	37644	0	0	0	30267	28880	155419	27090	1079225	46650	111268	0	0	8081	551772	0	0
2024-08-18 17:47:47			0	37651	0	0	0	30270	28870	155327	27060	1079243	46662	111269	0	0	8081	551533	0	0
2024-08-18 17:48:47			0	37665	0	0	0	30270	28880	155311	27007	1079279	46662	111269	0	0	8082	550959	0	0
2024-08-18 17:49:47			0	37639	0	0	0	30259	28880	155347	27156	1079279	46662	111265	0	0	8081	551965	0	0
2024-08-18 17:50:47			0	37642	0	0	0	30267	28870	155407	27041	1079243	46650	111268	0	0	8081	551881	0	0
2024-08-18 17:51:47			0	37631	0	0	0	30264	28870	155351	26968	1079216	46650	111267	0	0	8080	552307	0	0
2024-08-18 17:52:47			0	37642	0	0	0	30267	28880	155463	27142	1079252	46650	111268	0	0	8081	551849	0	0
2024-08-18 17:53:47			0	37615	0	0	0	30267	28870	155487	26994	1079288	46661	111268	0	0	8079	552928	0	0
2024-08-18 17:54:47			0	37602	0	0	0	30259	28860	155603	26767	1079198	46661	111265	0	0	8078	553464	0	0
2024-08-18 17:55:47			0	37593	0	0	0	30254	28870	155459	26783	1079207	46638	111263	0	0	8078	553781	0	0
2024-08-18 17:56:47			0	37590	0	0	0	30264	28870	155627	26968	1079216	46662	111267	0	0	8078	553897	0	0
2024-08-18 17:57:47			0	37593	0	0	0	30251	28860	155599	27220	1079216	46637	111262	0	0	8078	553813	0	0
2024-08-18 17:58:47			0	37595	0	0	0	30254	28860	155571	26958	1079279	46649	111263	0	0	8078	553735	0	0
2024-08-18 17:59:47			0	37585	0	0	0	30257	28870	155515	26904	1079180	46649	111264	0	0	8078	554092	0	0
2024-08-18 18:00:47			0	37566	0	0	0	30254	28870	155571	27144	1079207	46661	111263	0	0	8077	554830	0	0
2024-08-18 18:01:47			0	37568	0	0	0	30246	28860	155579	27083	1079162	46648	111260	0	0	8077	554784	0	0
2024-08-18 18:02:47			0	37568	0	0	0	30259	28870	155583	26715	1079207	46649	111265	0	0	8077	554752	0	0
2024-08-18 18:03:47			0	37585	0	0	0	30251	28860	155571	26975	1079135	46648	111262	0	0	8078	554124	0	0
2024-08-18 18:04:47			0	37565	0	0	0	30249	28860	155655	26993	1079117	46649	111261	0	0	8077	554901	0	0
2024-08-18 18:05:47			0	37549	0	0	0	30244	28860	155671	26996	1079189	46648	111259	0	0	8076	555523	0	0
2024-08-18 18:06:47			0	37543	0	0	0	30236	28850	155731	26847	1079153	46647	111256	0	0	8075	555788	0	0
2024-08-18 18:07:47			0	37550	0	0	0	30225	28850	155859	27104	1079090	46659	111252	0	0	8076	555516	0	0
2024-08-18 18:08:47			0	37525	0	0	0	30231	28850	155803	26800	1079072	46636	111254	0	0	8074	556489	0	0
2024-08-18 18:09:47			0	37533	0	0	0	30233	28850	155811	26965	1079099	46669	111255	0	0	8075	556177	0	0
2024-08-18 18:10:47			0	37533	0	0	0	30241	28850	155831	26890	1079117	46659	111258	0	0	8075	556177	0	0
2024-08-18 18:11:47			0	37514	0	0	0	30241	28840	155811	26991	1079045	46646	111258	0	0	8074	556950	0	0
2024-08-18 18:12:47			0	37505	0	0	0	30241	28840	155855	26675	1079108	46647	111258	0	0	8073	557300	0	0
2024-08-18 18:13:47			0	37493	0	0	0	30236	28840	155911	27066	1079099	46646	111256	0	0	8072	557768	0	0
2024-08-18 18:14:47			0	37502	0	0	0	30238	28840	155887	27079	1079126	46658	111257	0	0	8073	557417	0	0
2024-08-18 18:15:47			0	37499	0	0	0	30231	28840	155935	27185	1079045	46658	111254	0	0	8073	557534	0	0
2024-08-18 18:16:47			0	37483	0	0	0	30231	28840	155919	26953	1079045	46658	111254	0	0	8072	558158	0	0
2024-08-18 18:17:47			0	37478	0	0	0	30236	28840	156051	26863	1079072	46668	111256	0	0	8072	558353	0	0
2024-08-18 18:18:47			0	37475	0	0	0	30215	28830	156011	27114	1079036	46657	111248	0	0	8072	558503	0	0
2024-08-18 18:19:47			0	37442	0	0	0	30225	28840	155975	26622	1079018	46646	111252	0	0	8070	559759	0	0
2024-08-18 18:20:47			0	37463	0	0	0	30220	28840	156051	26915	1078964	46646	111250	0	0	8071	558939	0	0
2024-08-18 18:21:47			0	37447	0	0	0	30210	28840	156087	27095	1079027	46647	111246	0	0	8070	559564	0	0
2024-08-18 18:22:47			0	37451	0	0	0	30218	28830	156115	26757	1079036	46645	111249	0	0	8070	559440	0	0
2024-08-18 18:23:47			0	37444	0	0	0	30223	28830	156071	26864	1079036	46657	111251	0	0	8070	559714	0	0
2024-08-18 18:24:47			0	37448	0	0	0	30220	28830	156075	27114	1078982	46657	111250	0	0	8070	559557	0	0
2024-08-18 18:25:47			0	37438	0	0	0	30212	28840	156175	26696	1078964	46646	111247	0	0	8070	559916	0	0
2024-08-18 18:26:47			0	37400	0	0	0	30220	28830	156103	27197	1078946	46645	111250	0	0	8067	561435	0	0
2024-08-18 18:27:47			0	37419	0	0	0	30210	28820	156263	27024	1078963	46645	111246	0	0	8069	560724	0	0
2024-08-18 18:28:47			0	37405	0	0	0	30218	28820	156187	27338	1079017	46657	111249	0	0	8068	561272	0	0
2024-08-18 18:29:47			0	37384	0	0	0	30212	28820	156347	26880	1078954	46644	111247	0	0	8066	562095	0	0
2024-08-18 18:30:47			0	37375	0	0	0	30215	28830	156439	27329	1079000	46667	111248	0	0	8066	562415	0	0
2024-08-18 18:31:47			0	37358	0	0	0	30207	28820	156543	27012	1078954	46666	111245	0	0	8065	563114	0	0
2024-08-18 18:32:47			0	37336	0	0	0	30202	28820	156595	27215	1079017	46657	111243	0	0	8064	563978	0	0
2024-08-18 18:33:47			0	37329	0	0	0	30207	28820	156503	27010	1078927	46656	111245	0	0	8063	564253	0	0
2024-08-18 18:34:47			0	37344	0	0	0	30202	28820	156623	27206	1078927	46656	111243	0	0	8064	563664	0	0
2024-08-18 18:35:47			0	37313	0	0	0	30194	28820	156647	27232	1078900	46666	111240	0	0	8063	564882	0	0
2024-08-18 18:36:47			0	37345	0	0	0	30205	28820	156587	26835	1078910	46657	111244	0	0	8064	563624	0	0
2024-08-18 18:37:47			0	37307	0	0	0	30210	28810	156698	27301	1078963	46643	111246	0	0	8062	565151	0	0
2024-08-18 18:38:47			0	37301	0	0	0	30205	28820	156798	27123	1078954	46644	111244	0	0	8062	565354	0	0
2024-08-18 18:39:47			0	37295	0	0	0	30199	28810	156842	27206	1078972	46655	111242	0	0	8061	565623	0	0
2024-08-18 18:40:47			0	37257	0	0	0	30197	28810	156886	27131	1078891	46655	111241	0	0	8059	567120	0	0
2024-08-18 18:41:47			0	37253	0	0	0	30181	28810	156938	26885	1078882	46643	111235	0	0	8059	567278	0	0
2024-08-18 18:42:47			0	37268	0	0	0	30192	28810	157006	26897	1078855	46643	111239	0	0	8060	566686	0	0
2024-08-18 18:43:47			0	37255	0	0	0	30192	28800	156938	27010	1078837	46642	111239	0	0	8059	567231	0	0
2024-08-18 18:44:47			0	37246	0	0	0	30202	28810	156970	27157	1078855	46643	111243	0	0	8059	567554	0	0
2024-08-18 18:45:47			0	37236	0	0	0	30199	28800	157018	26897	1078846	46654	111242	0	0	8058	567981	0	0
2024-08-18 18:46:47			0	37228	0	0	0	30194	28810	157130	27003	1078855	46655	111240	0	0	8058	568264	0	0
2024-08-18 18:47:47			0	37229	0	0	0	30197	28800	157038	26906	1078927	46654	111241	0	0	8058	568257	0	0
2024-08-18 18:48:47			0	37221	0	0	0	30205	28810	157022	27126	1078909	46666	111244	0	0	8057	568540	0	0
2024-08-18 18:49:47			0	37204	0	0	0	30184	28810	157130	27033	1078909	46666	111236	0	0	8056	569212	0	0
2024-08-18 18:50:47			0	37191	0	0	0	30186	28800	157214	27085	1078819	46654	111237	0	0	8056	569759	0	0
2024-08-18 18:51:47			0	37180	0	0	0	30197	28800	157210	27008	1078819	46654	111241	0	0	8055	570194	0	0
2024-08-18 18:52:47			0	37180	0	0	0	30199	28810	157198	26948	1078909	46655	111242	0	0	8055	570161	0	0
2024-08-18 18:53:47			0	37153	0	0	0	30197	28800	157310	26677	1078846	46665	111241	0	0	8053	571263	0	0
2024-08-18 18:54:47			0	37152	0	0	0	30197	28800	157458	27067	1078918	46642	111241	0	0	8053	571303	0	0
2024-08-18 18:55:47			0	37150	0	0	0	30189	28800	157346	27085	1078873	46642	111238	0	0	8053	571382	0	0
2024-08-18 18:56:47			0	37134	0	0	0	30199	28810	157426	26913	1078882	46655	111242	0	0	8052	571983	0	0
2024-08-18 18:57:47			0	37128	0	0	0	30192	28800	157430	27005	1078837	46654	111239	0	0	8052	572254	0	0
2024-08-18 18:58:47			0	37118	0	0	0	30199	28790	157530	26991	1078792	46653	111242	0	0	8051	572684	0	0
2024-08-18 18:59:47			0	37121	0	0	0	30194	28800	157526	26935	1078918	46642	111240	0	0	8051	572532	0	0
2024-08-18 19:00:47			0	37102	0	0	0	30189	28800	157614	26837	1078810	46631	111238	0	0	8050	573286	0	0
2024-08-18 19:01:47			0	37094	0	0	0	30192	28790	157574	27024	1078855	46653	111239	0	0	8050	573637	0	0
2024-08-18 19:02:47			0	37084	0	0	0	30197	28800	157554	27059	1078864	46654	111241	0	0	8049	574001	0	0
2024-08-18 19:03:47			0	37088	0	0	0	30189	28800	157590	26795	1078945	46665	111238	0	0	8050	573842	0	0
2024-08-18 19:04:47			0	37086	0	0	0	30186	28790	157710	26942	1078873	46630	111237	0	0	8049	573955	0	0
2024-08-18 19:05:47			0	37090	0	0	0	30186	28800	157614	26925	1078810	46654	111237	0	0	8050	573763	0	0
2024-08-18 19:06:47			0	37076	0	0	0	30179	28800	157670	26856	1078864	46642	111234	0	0	8049	574319	0	0
2024-08-18 19:07:47			0	37064	0	0	0	30181	28790	157686	26878	1078765	46630	111235	0	0	8048	574830	0	0
2024-08-18 19:08:47			0	37059	0	0	0	30179	28800	157658	26552	1078810	46642	111234	0	0	8048	574995	0	0
2024-08-18 19:09:47			0	37068	0	0	0	30181	28790	157730	27112	1078765	46641	111235	0	0	8048	574670	0	0
2024-08-18 19:10:47			0	37075	0	0	0	30174	28780	157702	27074	1078783	46640	111232	0	0	8049	574425	0	0
2024-08-18 19:11:47			0	37049	0	0	0	30176	28780	157782	26679	1078801	46652	111233	0	0	8047	575460	0	0
2024-08-18 19:12:47			0	37050	0	0	0	30161	28780	157890	26830	1078747	46663	111227	0	0	8048	575420	0	0
2024-08-18 19:13:47			0	37029	0	0	0	30176	28780	157998	26878	1078720	46663	111233	0	0	8046	576257	0	0
2024-08-18 19:14:47			0	37011	0	0	0	30163	28780	157938	26948	1078747	46652	111228	0	0	8045	576974	0	0
2024-08-18 19:15:47			0	37021	0	0	0	30161	28790	158034	27109	1078738	46653	111227	0	0	8046	576542	0	0
2024-08-18 19:16:47			0	37011	0	0	0	30168	28780	158106	27163	1078720	46652	111230	0	0	8045	576974	0	0
2024-08-18 19:17:47			0	37003	0	0	0	30161	28780	158174	26845	1078810	46640	111227	0	0	8045	577293	0	0
2024-08-18 19:18:47			0	37002	0	0	0	30176	28770	157974	26998	1078756	46661	111233	0	0	8045	577367	0	0
2024-08-18 19:19:47			0	37001	0	0	0	30168	28790	158110	27133	1078792	46653	111230	0	0	8045	577340	0	0
2024-08-18 19:20:47			0	36982	0	0	0	30171	28780	158110	27140	1078774	46652	111231	0	0	8044	578132	0	0
2024-08-18 19:21:47			0	36977	0	0	0	30153	28780	158054	27050	1078729	46652	111224	0	0	8044	578331	0	0
2024-08-18 19:22:47			0	36968	0	0	0	30166	28770	158066	27249	1078630	46639	111229	0	0	8043	578724	0	0
2024-08-18 19:23:47			0	36966	0	0	0	30161	28770	158130	27161	1078684	46651	111227	0	0	8043	578804	0	0
2024-08-18 19:24:47			0	36967	0	0	0	30168	28770	158138	26845	1078765	46639	111230	0	0	8043	578764	0	0
2024-08-18 19:25:47			0	36955	0	0	0	30166	28770	158218	26883	1078729	46638	111229	0	0	8042	579244	0	0
2024-08-18 19:26:47			0	36962	0	0	0	30163	28760	158274	27220	1078666	46672	111228	0	0	8042	578998	0	0
2024-08-18 19:27:47			0	36963	0	0	0	30158	28770	158226	26715	1078684	46651	111226	0	0	8043	578924	0	0
2024-08-18 19:28:47			0	36950	0	0	0	30161	28770	158286	26875	1078684	46651	111227	0	0	8042	579444	0	0
2024-08-18 19:29:47			0	36948	0	0	0	30163	28760	158242	26649	1078693	46650	111228	0	0	8042	579558	0	0
2024-08-18 19:30:47			0	36949	0	0	0	30158	28760	158266	27234	1078693	46638	111226	0	0	8042	579518	0	0
2024-08-18 19:31:47			0	36922	0	0	0	30161	28770	158330	26844	1078702	46650	111227	0	0	8040	580565	0	0
2024-08-18 19:32:47			0	36939	0	0	0	30158	28770	158222	26812	1078648	46638	111226	0	0	8041	579884	0	0
2024-08-18 19:33:47			0	36923	0	0	0	30135	28780	158310	26644	1078747	46640	111217	0	0	8041	580491	0	0
2024-08-18 19:34:47			0	36924	0	0	0	30132	28780	158302	26873	1078666	46640	111216	0	0	8041	580451	0	0
2024-08-18 19:35:47			0	36904	0	0	0	30137	28770	158378	26911	1078675	46650	111218	0	0	8039	581286	0	0
2024-08-18 19:36:47			0	36905	0	0	0	30142	28760	158490	26920	1078603	46627	111220	0	0	8039	581280	0	0
2024-08-18 19:37:47			0	36890	0	0	0	30145	28760	158502	26965	1078603	46638	111221	0	0	8038	581881	0	0
2024-08-18 19:38:47			0	36881	0	0	0	30124	28760	158598	26961	1078684	46638	111213	0	0	8038	582242	0	0
2024-08-18 19:39:47			0	36891	0	0	0	30148	28760	158522	27003	1078603	46650	111222	0	0	8038	581841	0	0
2024-08-18 19:40:47			0	36877	0	0	0	30148	28760	158634	26927	1078630	46661	111222	0	0	8038	582403	0	0
2024-08-18 19:41:47			0	36867	0	0	0	30142	28750	158622	26852	1078584	46648	111220	0	0	8037	582838	0	0
2024-08-18 19:42:47			0	36856	0	0	0	30145	28750	158642	27005	1078621	46649	111221	0	0	8036	583280	0	0
2024-08-18 19:43:47			0	36844	0	0	0	30132	28750	158774	26909	1078584	46648	111216	0	0	8036	583762	0	0
2024-08-18 19:44:47			0	36850	0	0	0	30129	28750	158710	26998	1078567	46649	111215	0	0	8036	583521	0	0
2024-08-18 19:45:47			0	36843	0	0	0	30129	28740	158574	27086	1078548	46636	111215	0	0	8036	583836	0	0
2024-08-18 19:46:47			0	36864	0	0	0	30114	28740	158678	27126	1078521	46636	111209	0	0	8037	582992	0	0
2024-08-18 19:47:47			0	36840	0	0	0	30116	28750	158782	26791	1078558	46636	111210	0	0	8036	583923	0	0
2024-08-18 19:48:47			0	36848	0	0	0	30114	28750	158734	26689	1078504	46636	111209	0	0	8036	583601	0	0
2024-08-18 19:49:47			0	36843	0	0	0	30116	28730	158754	26974	1078449	46647	111210	0	0	8036	583870	0	0
2024-08-18 19:50:47			0	36826	0	0	0	30122	28730	158846	27029	1078503	46635	111212	0	0	8035	584554	0	0
2024-08-18 19:51:47			0	36817	0	0	0	30122	28740	158782	26885	1078539	46635	111212	0	0	8034	584882	0	0
2024-08-18 19:52:47			0	36830	0	0	0	30119	28740	158882	27204	1078458	46647	111211	0	0	8035	584359	0	0
2024-08-18 19:53:47			0	36845	0	0	0	30114	28730	158830	27090	1078449	46647	111209	0	0	8036	583789	0	0
2024-08-18 19:54:47			0	36846	0	0	0	30119	28740	158678	26530	1078485	46647	111211	0	0	8036	583715	0	0
2024-08-18 19:55:47			0	36832	0	0	0	30111	28730	158722	26830	1078503	46647	111208	0	0	8036	584312	0	0
2024-08-18 19:56:47			0	36853	0	0	0	30114	28730	158706	26958	1078440	46646	111209	0	0	8037	583468	0	0
2024-08-18 19:57:47			0	36857	0	0	0	30103	28730	158650	26826	1078476	46658	111205	0	0	8037	583307	0	0
2024-08-18 19:58:47			0	36848	0	0	0	30116	28730	158742	26821	1078467	46657	111210	0	0	8036	583669	0	0
2024-08-18 19:59:47			0	36843	0	0	0	30114	28730	158734	27046	1078449	46647	111209	0	0	8036	583870	0	0
2024-08-18 20:00:47			0	36821	0	0	0	30111	28720	158778	26981	1078422	46633	111208	0	0	8035	584789	0	0
2024-08-18 20:01:47			0	36820	0	0	0	30124	28720	158842	26776	1078458	46646	111213	0	0	8035	584829	0	0
2024-08-18 20:02:47			0	36785	0	0	0	30114	28720	158906	27031	1078458	46646	111209	0	0	8033	586239	0	0
2024-08-18 20:03:47			0	36767	0	0	0	30103	28730	159010	27086	1078440	46634	111205	0	0	8032	586931	0	0
2024-08-18 20:04:47			0	36758	0	0	0	30109	28720	159054	26795	1078449	46645	111207	0	0	8031	587328	0	0
2024-08-18 20:05:47			0	36739	0	0	0	30098	28720	159170	26849	1078431	46646	111203	0	0	8030	588096	0	0
2024-08-18 20:06:47			0	36713	0	0	0	30114	28720	159270	26847	1078431	46646	111209	0	0	8028	589147	0	0
2024-08-18 20:07:47			0	36706	0	0	0	30111	28720	159354	26651	1078449	46667	111208	0	0	8028	589430	0	0
2024-08-18 20:08:47			0	36691	0	0	0	30106	28720	159390	26698	1078458	46668	111206	0	0	8027	590037	0	0
2024-08-18 20:09:47			0	36674	0	0	0	30093	28720	159494	26863	1078458	46646	111201	0	0	8026	590726	0	0
2024-08-18 20:10:47			0	36636	0	0	0	30096	28710	159558	27020	1078386	46633	111202	0	0	8024	592302	0	0
2024-08-18 20:11:47			0	36626	0	0	0	30093	28720	159622	27041	1078404	46634	111201	0	0	8024	592674	0	0
2024-08-18 20:12:47			0	36628	0	0	0	30085	28700	159686	26731	1078341	46644	111198	0	0	8024	592661	0	0
2024-08-18 20:13:47			0	36611	0	0	0	30093	28710	159874	26859	1078305	46645	111201	0	0	8023	593317	0	0
2024-08-18 20:14:47			0	36593	0	0	0	30088	28710	159742	27013	1078377	46644	111199	0	0	8022	594049	0	0
2024-08-18 20:15:47			0	36589	0	0	0	30072	28710	159798	26915	1078323	46632	111193	0	0	8022	594212	0	0
2024-08-18 20:16:47			0	36585	0	0	0	30077	28700	159942	26986	1078314	46632	111195	0	0	8021	594409	0	0
2024-08-18 20:17:47			0	36589	0	0	0	30077	28710	159929	26984	1078323	46644	111195	0	0	8022	594212	0	0
2024-08-18 20:18:47			0	36567	0	0	0	30077	28690	159937	26866	1078296	46643	111195	0	0	8020	595177	0	0
2024-08-18 20:19:47			0	36580	0	0	0	30085	28700	159901	26977	1078305	46654	111198	0	0	8021	594613	0	0
2024-08-18 20:20:47			0	36583	0	0	0	30088	28700	159829	26675	1078251	46631	111199	0	0	8021	594491	0	0
2024-08-18 20:21:47			0	36597	0	0	0	30070	28690	159810	26871	1078233	46642	111192	0	0	8022	593955	0	0
2024-08-18 20:22:47			0	36597	0	0	0	30062	28690	159777	27017	1078260	46630	111189	0	0	8022	593955	0	0
2024-08-18 20:23:47			0	36596	0	0	0	30062	28690	159770	26915	1078287	46653	111189	0	0	8022	593996	0	0
2024-08-18 20:24:47			0	36608	0	0	0	30059	28700	159698	27072	1078251	46654	111188	0	0	8023	593474	0	0
2024-08-18 20:25:47			0	36571	0	0	0	30057	28690	159869	26896	1078233	46642	111187	0	0	8021	595014	0	0
2024-08-18 20:26:47			0	36556	0	0	0	30067	28680	160081	26790	1078278	46642	111191	0	0	8020	595660	0	0
2024-08-18 20:27:47			0	36547	0	0	0	30067	28680	160085	26979	1078251	46642	111191	0	0	8019	596026	0	0
2024-08-18 20:28:47			0	36540	0	0	0	30062	28680	160017	26651	1078251	46642	111189	0	0	8019	596312	0	0
2024-08-18 20:29:47			0	36529	0	0	0	30064	28680	160017	26713	1078242	46641	111190	0	0	8018	596761	0	0
2024-08-18 20:30:47			0	36572	0	0	0	30075	28680	159977	26833	1078161	46641	111194	0	0	8021	595008	0	0
2024-08-18 20:31:47			0	36592	0	0	0	30070	28690	159889	26613	1078233	46665	111192	0	0	8022	594159	0	0
2024-08-18 20:32:47			0	36617	0	0	0	30062	28680	159738	26658	1078188	46641	111189	0	0	8023	593176	0	0
2024-08-18 20:33:47			0	36643	0	0	0	30064	28670	159746	26925	1078179	46651	111190	0	0	8025	592155	0	0
2024-08-18 20:34:47			0	36619	0	0	0	30057	28680	159842	26739	1078242	46652	111187	0	0	8024	593095	0	0
2024-08-18 20:35:47			0	36623	0	0	0	30057	28670	159834	26767	1078206	46628	111187	0	0	8024	592967	0	0
2024-08-18 20:36:47			0	36618	0	0	0	30064	28670	159798	26842	1078233	46640	111190	0	0	8023	593170	0	0
2024-08-18 20:37:47			0	36629	0	0	0	30059	28660	159750	26746	1078197	46640	111188	0	0	8024	592758	0	0
2024-08-18 20:38:47			0	36637	0	0	0	30075	28680	159786	26882	1078269	46641	111194	0	0	8024	592364	0	0
2024-08-18 20:39:47			0	36671	0	0	0	30062	28660	159638	27055	1078197	46640	111189	0	0	8027	591053	0	0
2024-08-18 20:40:47			0	36673	0	0	0	30059	28660	159622	26847	1078251	46640	111188	0	0	8027	590972	0	0
2024-08-18 20:41:47			0	36658	0	0	0	30057	28680	159574	26830	1078188	46664	111187	0	0	8026	591512	0	0
2024-08-18 20:42:47			0	36655	0	0	0	30062	28660	159682	26654	1078224	46640	111189	0	0	8026	591702	0	0
2024-08-18 20:43:47			0	36656	0	0	0	30044	28670	159786	26876	1078179	46651	111182	0	0	8026	591627	0	0
2024-08-18 20:44:47			0	36630	0	0	0	30031	28660	159714	26802	1078170	46628	111177	0	0	8025	592717	0	0
2024-08-18 20:45:47			0	36591	0	0	0	30025	28650	159921	26693	1078125	46627	111175	0	0	8022	594337	0	0
2024-08-18 20:46:47			0	36576	0	0	0	30025	28660	159885	26791	1078080	46627	111175	0	0	8022	594914	0	0
2024-08-18 20:47:47			0	36552	0	0	0	30018	28650	160033	26824	1078044	46639	111172	0	0	8020	595926	0	0
2024-08-18 20:48:47			0	36534	0	0	0	30020	28640	159945	26680	1078025	46626	111173	0	0	8019	596695	0	0
2024-08-18 20:49:47			0	36516	0	0	0	30033	28650	160241	26892	1078062	46638	111178	0	0	8018	597395	0	0
2024-08-18 20:50:47			0	36512	0	0	0	30033	28640	160249	26856	1078097	46637	111178	0	0	8017	597593	0	0
2024-08-18 20:51:47			0	36496	0	0	0	30015	28640	160329	26686	1078016	46637	111171	0	0	8017	598247	0	0
2024-08-18 20:52:47			0	36514	0	0	0	30020	28640	160157	27012	1078052	46626	111173	0	0	8018	597512	0	0
2024-08-18 20:53:47			0	36505	0	0	0	30020	28630	160257	26823	1077980	46637	111173	0	0	8017	597914	0	0
2024-08-18 20:54:47			0	36487	0	0	0	30025	28640	160209	26972	1077962	46648	111175	0	0	8016	598615	0	0
2024-08-18 20:55:47			0	36496	0	0	0	30005	28640	160289	26634	1077989	46625	111167	0	0	8017	598247	0	0
2024-08-18 20:56:47			0	36507	0	0	0	29997	28620	160125	26852	1077899	46624	111164	0	0	8018	597867	0	0
2024-08-18 20:57:47			0	36501	0	0	0	29992	28640	160233	27196	1077909	46637	111162	0	0	8018	598043	0	0
2024-08-18 20:58:47			0	36476	0	0	0	29981	28620	160289	26826	1077845	46624	111158	0	0	8016	599135	0	0
2024-08-18 20:59:47			0	36441	0	0	0	29984	28610	160429	27067	1077890	46635	111159	0	0	8014	600603	0	0
2024-08-18 21:00:47			0	36424	0	0	0	29992	28620	160513	27118	1077872	46646	111162	0	0	8013	601266	0	0
2024-08-18 21:01:47			0	36412	0	0	0	29989	28600	160685	26661	1077845	46633	111161	0	0	8012	601828	0	0
2024-08-18 21:02:47			0	36398	0	0	0	29992	28610	160685	26642	1077881	46623	111162	0	0	8011	602368	0	0
2024-08-18 21:03:47			0	36438	0	0	0	29992	28610	160581	26429	1077908	46645	111162	0	0	8014	600726	0	0
2024-08-18 21:04:47			0	36443	0	0	0	29989	28600	160369	26743	1077872	46611	111161	0	0	8014	600556	0	0
2024-08-18 21:05:47			0	36433	0	0	0	29984	28600	160453	26774	1077872	46622	111159	0	0	8013	600966	0	0
2024-08-18 21:06:47			0	36448	0	0	0	29976	28600	160625	26715	1077836	46633	111156	0	0	8014	600351	0	0
2024-08-18 21:07:47			0	36391	0	0	0	29973	28590	160629	26778	1077773	46644	111155	0	0	8011	602726	0	0
2024-08-18 21:08:47			0	36361	0	0	0	29968	28600	160861	26693	1077755	46633	111153	0	0	8009	603925	0	0
2024-08-18 21:09:47			0	36322	0	0	0	29976	28600	160949	26918	1077845	46644	111156	0	0	8007	605531	0	0
2024-08-18 21:10:47			0	36345	0	0	0	29984	28590	161029	26994	1077746	46644	111159	0	0	8008	604618	0	0
2024-08-18 21:11:47			0	36332	0	0	0	29976	28590	160997	26733	1077746	46633	111156	0	0	8008	605154	0	0
2024-08-18 21:12:47			0	36327	0	0	0	29971	28590	161025	26986	1077710	46632	111154	0	0	8007	605360	0	0
2024-08-18 21:13:47			0	36305	0	0	0	29984	28580	161045	26540	1077701	46642	111159	0	0	8006	606303	0	0
2024-08-18 21:14:47			0	36304	0	0	0	29973	28580	161157	27039	1077728	46620	111155	0	0	8006	606344	0	0
2024-08-18 21:15:47			0	36307	0	0	0	29968	28580	161213	26691	1077692	46642	111153	0	0	8006	606220	0	0
2024-08-18 21:16:47			0	36284	0	0	0	29981	28590	161109	26795	1077818	46643	111158	0	0	8005	607135	0	0
2024-08-18 21:17:47			0	36279	0	0	0	29989	28580	161253	26668	1077719	46631	111161	0	0	8004	607377	0	0
2024-08-18 21:18:47			0	36279	0	0	0	29984	28570	161193	26649	1077737	46653	111159	0	0	8004	607412	0	0
2024-08-18 21:19:47			0	36290	0	0	0	29981	28580	161161	26868	1077746	46642	111158	0	0	8005	606922	0	0
2024-08-18 21:20:47			0	36343	0	0	0	29984	28580	161121	26977	1077701	46642	111159	0	0	8008	604736	0	0
2024-08-18 21:21:47			0	36331	0	0	0	29986	28580	161065	26897	1077728	46642	111160	0	0	8007	605230	0	0
2024-08-18 21:22:47			0	36306	0	0	0	29989	28580	161109	26913	1077800	46642	111161	0	0	8006	606262	0	0
2024-08-18 21:23:47			0	36290	0	0	0	29984	28580	161161	27180	1077854	46642	111159	0	0	8005	606922	0	0
2024-08-18 21:24:47			0	36274	0	0	0	29981	28580	161361	26734	1077719	46631	111158	0	0	8004	607583	0	0
2024-08-18 21:25:47			0	36256	0	0	0	29986	28580	161353	27081	1077782	46631	111160	0	0	8003	608328	0	0
2024-08-18 21:26:47			0	36239	0	0	0	29986	28580	161309	26864	1077782	46642	111160	0	0	8002	609031	0	0
2024-08-18 21:27:47			0	36265	0	0	0	30002	28590	161337	26793	1077818	46643	111166	0	0	8003	607920	0	0
2024-08-18 21:28:47			0	36271	0	0	0	29986	28580	161309	26774	1077827	46620	111160	0	0	8004	607707	0	0
2024-08-18 21:29:47			0	36273	0	0	0	29979	28590	161213	26670	1077773	46644	111157	0	0	8004	607590	0	0
2024-08-18 21:30:47			0	36309	0	0	0	29986	28580	161085	27244	1077836	46620	111160	0	0	8006	606138	0	0
2024-08-18 21:31:47			0	36320	0	0	0	29976	28580	161061	26785	1077719	46642	111156	0	0	8007	605684	0	0
2024-08-18 21:32:47			0	36322	0	0	0	29994	28590	161005	26844	1077737	46643	111163	0	0	8007	605567	0	0
2024-08-18 21:33:47			0	36353	0	0	0	29981	28590	161009	27010	1077818	46632	111158	0	0	8009	604289	0	0
2024-08-18 21:34:47			0	36366	0	0	0	29981	28580	160957	26686	1077800	46631	111158	0	0	8009	603789	0	0
2024-08-18 21:35:47			0	36365	0	0	0	29971	28590	160881	26889	1077800	46644	111154	0	0	8010	603795	0	0
2024-08-18 21:36:47			0	36358	0	0	0	29968	28590	160921	26864	1077818	46632	111153	0	0	8009	604083	0	0
2024-08-18 21:37:47			0	36336	0	0	0	29981	28590	161073	26994	1077710	46632	111158	0	0	8008	604989	0	0
2024-08-18 21:38:47			0	36334	0	0	0	30002	28580	161217	26951	1077836	46631	111166	0	0	8007	605107	0	0
2024-08-18 21:39:47			0	36287	0	0	0	29986	28580	161173	26854	1077755	46642	111160	0	0	8005	607046	0	0
2024-08-18 21:40:47			0	36314	0	0	0	29994	28590	161213	26915	1077764	46643	111163	0	0	8006	605896	0	0
2024-08-18 21:41:47			0	36314	0	0	0	30007	28590	161193	26516	1077818	46632	111168	0	0	8006	605896	0	0
2024-08-18 21:42:47			0	36298	0	0	0	30020	28580	161245	26674	1077809	46654	111173	0	0	8005	606592	0	0
2024-08-18 21:43:47			0	36307	0	0	0	30010	28580	161161	27060	1077836	46654	111169	0	0	8005	606220	0	0
2024-08-18 21:44:47			0	36311	0	0	0	30002	28580	161149	26934	1077863	46631	111166	0	0	8006	606055	0	0
2024-08-18 21:45:47			0	36327	0	0	0	29979	28580	161117	26831	1077836	46631	111157	0	0	8007	605395	0	0
2024-08-18 21:46:47			0	36315	0	0	0	29966	28590	161129	26920	1077827	46633	111152	0	0	8007	605855	0	0
2024-08-18 21:47:47			0	36297	0	0	0	29986	28590	161189	26904	1077764	46621	111160	0	0	8005	606598	0	0
2024-08-18 21:48:47			0	36315	0	0	0	29999	28580	161197	26682	1077809	46642	111165	0	0	8006	605890	0	0
2024-08-18 21:49:47			0	36316	0	0	0	29963	28580	161233	27017	1077773	46642	111151	0	0	8007	605849	0	0
2024-08-18 21:50:47			0	36315	0	0	0	29963	28590	161113	26913	1077800	46633	111151	0	0	8007	605855	0	0
2024-08-18 21:51:47			0	36325	0	0	0	29953	28580	161153	27163	1077782	46620	111147	0	0	8007	605478	0	0
2024-08-18 21:52:47			0	36296	0	0	0	29981	28570	161201	26708	1077791	46630	111158	0	0	8005	606710	0	0
2024-08-18 21:53:47			0	36297	0	0	0	29997	28580	161249	26793	1077809	46631	111164	0	0	8005	606633	0	0
2024-08-18 21:54:47			0	36292	0	0	0	29994	28590	161269	26989	1077791	46655	111163	0	0	8005	606804	0	0
2024-08-18 21:55:47			0	36290	0	0	0	29976	28590	161201	26915	1077899	46632	111156	0	0	8005	606887	0	0
2024-08-18 21:56:47			0	36287	0	0	0	29989	28590	161237	26696	1077791	46643	111161	0	0	8005	607011	0	0
2024-08-18 21:57:47			0	36300	0	0	0	29979	28590	161221	26750	1077845	46655	111157	0	0	8006	606474	0	0
2024-08-18 21:58:47			0	36303	0	0	0	29984	28590	161241	26798	1077845	46643	111159	0	0	8006	606350	0	0
2024-08-18 21:59:47			0	36323	0	0	0	29973	28590	161189	26913	1077764	46632	111155	0	0	8007	605525	0	0
2024-08-18 22:00:47			0	36333	0	0	0	29968	28580	161249	26795	1077746	46631	111153	0	0	8008	605148	0	0
2024-08-18 22:01:47			0	36297	0	0	0	30002	28580	161253	26755	1077827	46631	111166	0	0	8005	606633	0	0
2024-08-18 22:02:47			0	36301	0	0	0	29984	28580	161185	26635	1077782	46642	111159	0	0	8005	606468	0	0
2024-08-18 22:03:47			0	36309	0	0	0	29971	28580	161121	26902	1077746	46620	111154	0	0	8006	606138	0	0
2024-08-18 22:04:47			0	36295	0	0	0	29961	28580	161305	26727	1077809	46642	111150	0	0	8006	606716	0	0
2024-08-18 22:05:47			0	36273	0	0	0	29976	28570	161325	26703	1077764	46630	111156	0	0	8004	607660	0	0
2024-08-18 22:06:47			0	36275	0	0	0	29966	28570	161305	26977	1077656	46641	111152	0	0	8004	607577	0	0
2024-08-18 22:07:47			0	36243	0	0	0	29940	28580	161385	26850	1077701	46631	111142	0	0	8003	608866	0	0
2024-08-18 22:08:47			0	36236	0	0	0	29955	28570	161461	26857	1077674	46630	111148	0	0	8002	609191	0	0
2024-08-18 22:09:47			0	36209	0	0	0	29927	28570	161661	27145	1077647	46630	111137	0	0	8001	610310	0	0
2024-08-18 22:10:47			0	36224	0	0	0	29927	28570	161521	27201	1077656	46630	111137	0	0	8002	609688	0	0
2024-08-18 22:11:47			0	36220	0	0	0	29929	28560	161533	26642	1077557	46618	111138	0	0	8001	609889	0	0
2024-08-18 22:12:47			0	36245	0	0	0	29937	28560	161441	26902	1077575	46617	111141	0	0	8003	608853	0	0
2024-08-18 22:13:47			0	36255	0	0	0	29948	28560	161401	26904	1077638	46629	111145	0	0	8003	608439	0	0
2024-08-18 22:14:47			0	36277	0	0	0	29940	28560	161249	26986	1077602	46628	111142	0	0	8005	607530	0	0
2024-08-18 22:15:47			0	36301	0	0	0	29924	28560	161133	27086	1077575	46628	111136	0	0	8006	606538	0	0
2024-08-18 22:16:47			0	36320	0	0	0	29901	28550	160961	26811	1077566	46628	111127	0	0	8008	605789	0	0
2024-08-18 22:17:47			0	36327	0	0	0	29893	28540	161089	27015	1077521	46638	111124	0	0	8008	605535	0	0
2024-08-18 22:18:47			0	36329	0	0	0	29888	28540	160993	26674	1077431	46637	111122	0	0	8009	605453	0	0
2024-08-18 22:19:47			0	36333	0	0	0	29875	28530	161029	26809	1077386	46626	111117	0	0	8009	605323	0	0
2024-08-18 22:20:47			0	36312	0	0	0	29877	28520	161125	26974	1077403	46636	111118	0	0	8008	606224	0	0
2024-08-18 22:21:47			0	36303	0	0	0	29872	28520	161309	26937	1077367	46613	111116	0	0	8007	606596	0	0
2024-08-18 22:22:47			0	36289	0	0	0	29885	28510	161245	26948	1077331	46613	111121	0	0	8006	607209	0	0
2024-08-18 22:23:47			0	36265	0	0	0	29888	28520	161333	26883	1077376	46636	111122	0	0	8005	608167	0	0
2024-08-18 22:24:47			0	36268	0	0	0	29903	28510	161521	26746	1077385	46625	111128	0	0	8005	608078	0	0
2024-08-18 22:25:47			0	36284	0	0	0	29890	28510	161369	27144	1077430	46647	111123	0	0	8006	607416	0	0
2024-08-18 22:26:47			0	36312	0	0	0	29885	28510	161265	27010	1077322	46625	111121	0	0	8007	606260	0	0
2024-08-18 22:27:47			0	36346	0	0	0	29898	28510	161077	26989	1077376	46625	111126	0	0	8009	604857	0	0
2024-08-18 22:28:47			0	36380	0	0	0	29872	28510	160921	26876	1077358	46625	111116	0	0	8012	603457	0	0
2024-08-18 22:29:47			0	36364	0	0	0	29888	28510	160825	27081	1077331	46613	111122	0	0	8011	604116	0	0
2024-08-18 22:30:47			0	36363	0	0	0	29885	28510	160933	26776	1077331	46613	111121	0	0	8011	604157	0	0
2024-08-18 22:31:47			0	36352	0	0	0	29890	28510	160961	26765	1077349	46635	111123	0	0	8010	604610	0	0
2024-08-18 22:32:47			0	36372	0	0	0	29890	28500	161037	26696	1077340	46634	111123	0	0	8011	603821	0	0
2024-08-18 22:33:47			0	36379	0	0	0	29875	28490	160909	26701	1077295	46632	111117	0	0	8012	603568	0	0
2024-08-18 22:34:47			0	36361	0	0	0	29877	28500	160849	27020	1077304	46623	111118	0	0	8010	604274	0	0
2024-08-18 22:35:47			0	36365	0	0	0	29883	28500	160989	26981	1077286	46634	111120	0	0	8011	604109	0	0
2024-08-18 22:36:47			0	36350	0	0	0	29885	28490	160937	26785	1077241	46622	111121	0	0	8010	604762	0	0
2024-08-18 22:37:47			0	36350	0	0	0	29875	28500	160993	27199	1077304	46623	111117	0	0	8010	604727	0	0
2024-08-18 22:38:47			0	36349	0	0	0	29854	28500	160993	26765	1077223	46633	111109	0	0	8010	604769	0	0
2024-08-18 22:39:47			0	36357	0	0	0	29851	28490	161009	27033	1077151	46610	111108	0	0	8011	604474	0	0
2024-08-18 22:40:47			0	36315	0	0	0	29851	28480	161121	26942	1077223	46622	111108	0	0	8008	606241	0	0
2024-08-18 22:41:47			0	36276	0	0	0	29851	28480	161417	26883	1077160	46621	111108	0	0	8006	607852	0	0
2024-08-18 22:42:47			0	36276	0	0	0	29857	28470	161433	26961	1077178	46608	111110	0	0	8006	607887	0	0
2024-08-18 22:43:47			0	36259	0	0	0	29854	28480	161389	27003	1077214	46621	111109	0	0	8005	608556	0	0
2024-08-18 22:44:47			0	36267	0	0	0	29864	28470	161381	26772	1077205	46620	111113	0	0	8005	608260	0	0
2024-08-18 22:45:47			0	36286	0	0	0	29870	28470	161313	27050	1077151	46630	111115	0	0	8006	607474	0	0
2024-08-18 22:46:47			0	36284	0	0	0	29862	28460	161301	27128	1077187	46620	111112	0	0	8006	607592	0	0
2024-08-18 22:47:47			0	36290	0	0	0	29846	28470	161257	27022	1077142	46620	111106	0	0	8007	607309	0	0
2024-08-18 22:48:47			0	36277	0	0	0	29831	28470	161341	27050	1077115	46620	111100	0	0	8006	607846	0	0
2024-08-18 22:49:47			0	36287	0	0	0	29864	28470	161353	26955	1077088	46630	111113	0	0	8006	607433	0	0
2024-08-18 22:50:47			0	36260	0	0	0	29896	28470	161605	27012	1077196	46642	111125	0	0	8004	608549	0	0
2024-08-18 22:51:47			0	36249	0	0	0	29903	28480	161501	26726	1077214	46643	111128	0	0	8003	608969	0	0
2024-08-18 22:52:47			0	36270	0	0	0	29898	28480	161345	26800	1077241	46631	111126	0	0	8005	608100	0	0
2024-08-18 22:53:47			0	36270	0	0	0	29885	28490	161433	26691	1077286	46632	111121	0	0	8005	608065	0	0
2024-08-18 22:54:47			0	36276	0	0	0	29896	28490	161429	26729	1077259	46632	111125	0	0	8005	607817	0	0
2024-08-18 22:55:47			0	36261	0	0	0	29896	28490	161401	27010	1077340	46644	111125	0	0	8004	608438	0	0
2024-08-18 22:56:47			0	36270	0	0	0	29880	28490	161461	27177	1077313	46644	111119	0	0	8005	608065	0	0
2024-08-18 22:57:47			0	36264	0	0	0	29870	28480	161401	27038	1077214	46631	111115	0	0	8005	608349	0	0
2024-08-18 22:58:47			0	36259	0	0	0	29872	28480	161437	26887	1077241	46621	111116	0	0	8004	608556	0	0
2024-08-18 22:59:47			0	36239	0	0	0	29883	28480	161501	26986	1077250	46622	111120	0	0	8003	609384	0	0
2024-08-18 23:00:47			0	36244	0	0	0	29896	28490	161561	26939	1077259	46632	111125	0	0	8003	609141	0	0
2024-08-18 23:01:47			0	36238	0	0	0	29896	28480	161593	26857	1077268	46631	111125	0	0	8003	609425	0	0
2024-08-18 23:02:47			0	36245	0	0	0	29911	28490	161617	26928	1077286	46632	111131	0	0	8003	609100	0	0
2024-08-18 23:03:47			0	36255	0	0	0	29883	28490	161601	26927	1077313	46644	111120	0	0	8004	608686	0	0
2024-08-18 23:04:47			0	36254	0	0	0	29872	28490	161437	26630	1077313	46632	111116	0	0	8004	608727	0	0
2024-08-18 23:05:47			0	36262	0	0	0	29867	28480	161429	27010	1077196	46632	111114	0	0	8005	608431	0	0
2024-08-18 23:06:47			0	36222	0	0	0	29867	28490	161613	26941	1077214	46632	111114	0	0	8002	610053	0	0
2024-08-18 23:07:47			0	36195	0	0	0	29854	28490	161657	26712	1077205	46622	111109	0	0	8001	611173	0	0
2024-08-18 23:08:47			0	36203	0	0	0	29859	28470	161705	26989	1077259	46608	111111	0	0	8001	610912	0	0
2024-08-18 23:09:47			0	36195	0	0	0	29862	28480	161821	26812	1077268	46621	111112	0	0	8001	611208	0	0
2024-08-18 23:10:47			0	36200	0	0	0	29849	28470	161813	26613	1077151	46620	111107	0	0	8001	611036	0	0
2024-08-18 23:11:47			0	36184	0	0	0	29846	28480	161949	26616	1077187	46631	111106	0	0	8000	611665	0	0
2024-08-18 23:12:47			0	36172	0	0	0	29844	28460	161873	26715	1077187	46630	111105	0	0	8000	612235	0	0
2024-08-18 23:13:47			0	36168	0	0	0	29844	28480	161853	26908	1077106	46621	111105	0	0	7999	612330	0	0
2024-08-18 23:14:47			0	36162	0	0	0	29838	28470	161833	27052	1077115	46608	111103	0	0	7999	612615	0	0
2024-08-18 23:15:47			0	36177	0	0	0	29836	28470	161917	26963	1077142	46642	111102	0	0	8000	611991	0	0
2024-08-18 23:16:47			0	36165	0	0	0	29838	28460	161993	26878	1077070	46629	111103	0	0	7999	612525	0	0
2024-08-18 23:17:47			0	36162	0	0	0	29838	28460	162133	26925	1077097	46629	111103	0	0	7999	612650	0	0
2024-08-18 23:18:47			0	36150	0	0	0	29836	28460	162105	27215	1077106	46620	111102	0	0	7998	613149	0	0
2024-08-18 23:19:47			0	36122	0	0	0	29851	28460	162205	26748	1077124	46629	111108	0	0	7996	614315	0	0
2024-08-18 23:20:47			0	36097	0	0	0	29846	28460	162209	26889	1077097	46629	111106	0	0	7995	615357	0	0
2024-08-18 23:21:47			0	36113	0	0	0	29849	28460	162289	26906	1077151	46629	111107	0	0	7996	614690	0	0
2024-08-18 23:22:47			0	36122	0	0	0	29849	28460	162169	27230	1077160	46620	111107	0	0	7996	614315	0	0
2024-08-18 23:23:47			0	36136	0	0	0	29862	28460	162057	26949	1077160	46630	111112	0	0	7997	613732	0	0
2024-08-18 23:24:47			0	36144	0	0	0	29867	28460	162081	27076	1077187	46630	111114	0	0	7997	613399	0	0
2024-08-18 23:25:47			0	36162	0	0	0	29854	28460	162017	26814	1077160	46642	111109	0	0	7999	612650	0	0
2024-08-18 23:26:47			0	36165	0	0	0	29862	28460	161969	26771	1077187	46642	111112	0	0	7999	612525	0	0
2024-08-18 23:27:47			0	36202	0	0	0	29867	28460	161813	26944	1077187	46642	111114	0	0	8001	610989	0	0
2024-08-18 23:28:47			0	36235	0	0	0	29875	28460	161817	26856	1077178	46629	111117	0	0	8003	609620	0	0
2024-08-18 23:29:47			0	36234	0	0	0	29870	28470	161729	26821	1077196	46630	111115	0	0	8003	609626	0	0
2024-08-18 23:30:47			0	36289	0	0	0	29893	28460	161453	26861	1077178	46629	111124	0	0	8006	607385	0	0
2024-08-18 23:31:47			0	36310	0	0	0	29872	28470	161345	26923	1077169	46642	111116	0	0	8007	606482	0	0
2024-08-18 23:32:47			0	36325	0	0	0	29880	28480	161265	26845	1077268	46631	111119	0	0	8008	605828	0	0
2024-08-18 23:33:47			0	36342	0	0	0	29880	28480	161089	27031	1077214	46643	111119	0	0	8009	605127	0	0
2024-08-18 23:34:47			0	36365	0	0	0	29888	28480	161061	26993	1077250	46632	111122	0	0	8010	604179	0	0
2024-08-18 23:35:47			0	36403	0	0	0	29877	28480	161009	26837	1077223	46655	111118	0	0	8013	602616	0	0
2024-08-18 23:36:47			0	36395	0	0	0	29875	28480	161005	26691	1077277	46632	111117	0	0	8012	602945	0	0
2024-08-18 23:37:47			0	36409	0	0	0	29864	28480	160985	27012	1077250	46622	111113	0	0	8013	602369	0	0
2024-08-18 23:38:47			0	36433	0	0	0	29864	28480	160933	26543	1077214	46631	111113	0	0	8015	601384	0	0
2024-08-18 23:39:47			0	36380	0	0	0	29857	28470	160949	26890	1077196	46630	111110	0	0	8012	603597	0	0
2024-08-18 23:40:47			0	36389	0	0	0	29867	28470	160957	26965	1077178	46630	111114	0	0	8012	603227	0	0
2024-08-18 23:41:47			0	36390	0	0	0	29870	28470	160993	26788	1077205	46630	111115	0	0	8012	603185	0	0
2024-08-18 23:42:47			0	36408	0	0	0	29867	28480	161025	26830	1077196	46632	111114	0	0	8013	602410	0	0
2024-08-18 23:43:47			0	36416	0	0	0	29862	28480	160901	26864	1077214	46643	111112	0	0	8014	602082	0	0
2024-08-18 23:44:47			0	36448	0	0	0	29859	28470	160801	26795	1077151	46620	111111	0	0	8016	600803	0	0
2024-08-18 23:45:47			0	36465	0	0	0	29864	28480	160605	27013	1077223	46622	111113	0	0	8017	600071	0	0
2024-08-18 23:46:47			0	36484	0	0	0	29857	28470	160557	26703	1077169	46620	111110	0	0	8018	599327	0	0
2024-08-18 23:47:47			0	36504	0	0	0	29859	28470	160445	26953	1077169	46642	111111	0	0	8019	598509	0	0
2024-08-18 23:48:47			0	36523	0	0	0	29867	28470	160365	26771	1077223	46620	111114	0	0	8020	597732	0	0
2024-08-18 23:49:47			0	36520	0	0	0	29862	28470	160389	26524	1077178	46630	111112	0	0	8020	597854	0	0
2024-08-18 23:50:47			0	36534	0	0	0	29854	28470	160369	26597	1077142	46620	111109	0	0	8021	597282	0	0
2024-08-18 23:51:47			0	36518	0	0	0	29857	28460	160437	26859	1077187	46642	111110	0	0	8020	597971	0	0
2024-08-18 23:52:47			0	36505	0	0	0	29854	28460	160441	26984	1077106	46630	111109	0	0	8019	598502	0	0
2024-08-18 23:53:47			0	36521	0	0	0	29859	28470	160321	26875	1077169	46630	111111	0	0	8020	597814	0	0
2024-08-18 23:54:47			0	36526	0	0	0	29864	28460	160345	26656	1077133	46642	111113	0	0	8020	597644	0	0
2024-08-18 23:55:47			0	36527	0	0	0	29854	28470	160345	26979	1077205	46620	111109	0	0	8021	597568	0	0
2024-08-18 23:56:47			0	36539	0	0	0	29859	28460	160233	27008	1077133	46620	111111	0	0	8021	597112	0	0
2024-08-18 23:57:47			0	36558	0	0	0	29851	28470	160161	26934	1077205	46620	111108	0	0	8022	596302	0	0
2024-08-18 23:58:47			0	36568	0	0	0	29854	28460	160013	26817	1077160	46620	111109	0	0	8023	595929	0	0
2024-08-18 23:59:47			0	36574	0	0	0	29849	28470	160125	26974	1077178	46620	111107	0	0	8023	595650	0	0
2024-08-19 00:00:47			0	36569	0	0	0	29854	28470	160185	26705	1077142	46642	111109	0	0	8023	595854	0	0
2024-08-19 00:01:47			0	36560	0	0	0	29846	28460	160177	26920	1077133	46630	111106	0	0	8023	596255	0	0
2024-08-19 00:02:47			0	36556	0	0	0	29862	28470	160133	26838	1077142	46620	111112	0	0	8022	596384	0	0
2024-08-19 00:03:47			0	36574	0	0	0	29857	28460	160101	27157	1077106	46608	111110	0	0	8023	595684	0	0
2024-08-19 00:04:47			0	36562	0	0	0	29851	28460	160081	26772	1077106	46620	111108	0	0	8023	596174	0	0
2024-08-19 00:05:47			0	36599	0	0	0	29849	28460	160097	26925	1077160	46642	111107	0	0	8025	594665	0	0
2024-08-19 00:06:47			0	36600	0	0	0	29851	28460	160162	26906	1077133	46630	111108	0	0	8025	594624	0	0
2024-08-19 00:07:47			0	36618	0	0	0	29846	28460	159918	26750	1077106	46620	111106	0	0	8026	593892	0	0
2024-08-19 00:08:47			0	36627	0	0	0	29846	28450	159922	27126	1077088	46628	111106	0	0	8027	593560	0	0
2024-08-19 00:09:47			0	36627	0	0	0	29844	28460	159898	26906	1077133	46630	111105	0	0	8027	593525	0	0
2024-08-19 00:10:47			0	36611	0	0	0	29841	28450	160002	26977	1077034	46628	111104	0	0	8026	594211	0	0
2024-08-19 00:11:47			0	36624	0	0	0	29841	28460	159938	26736	1077124	46641	111104	0	0	8026	593647	0	0
2024-08-19 00:12:47			0	36614	0	0	0	29838	28450	159978	27121	1077061	46640	111103	0	0	8026	594089	0	0
2024-08-19 00:13:47			0	36615	0	0	0	29838	28460	159998	26974	1077070	46629	111103	0	0	8026	594014	0	0
2024-08-19 00:14:47			0	36650	0	0	0	29846	28450	160006	26800	1077088	46618	111106	0	0	8028	592624	0	0
2024-08-19 00:15:47			0	36637	0	0	0	29841	28460	160022	27053	1077124	46641	111104	0	0	8027	593119	0	0
2024-08-19 00:16:47			0	36639	0	0	0	29838	28450	159966	26569	1077115	46618	111103	0	0	8027	593072	0	0
2024-08-19 00:17:47			0	36656	0	0	0	29844	28450	159878	26844	1077106	46618	111105	0	0	8028	592381	0	0
2024-08-19 00:18:47			0	36679	0	0	0	29841	28450	159726	27043	1077106	46628	111104	0	0	8030	591447	0	0
2024-08-19 00:19:47			0	36711	0	0	0	29833	28450	159586	26927	1077061	46628	111101	0	0	8032	590149	0	0
2024-08-19 00:20:47			0	36724	0	0	0	29833	28440	159618	26870	1077097	46640	111101	0	0	8032	589657	0	0
2024-08-19 00:21:47			0	36750	0	0	0	29838	28450	159506	27239	1077079	46628	111103	0	0	8034	588570	0	0
2024-08-19 00:22:47			0	36776	0	0	0	29836	28440	159442	26981	1077124	46628	111102	0	0	8035	587553	0	0
2024-08-19 00:23:47			0	36781	0	0	0	29828	28450	159342	27039	1077133	46628	111099	0	0	8036	587317	0	0
2024-08-19 00:24:47			0	36764	0	0	0	29828	28450	159354	27100	1077079	46628	111099	0	0	8035	588004	0	0
2024-08-19 00:25:47			0	36799	0	0	0	29828	28450	159410	26720	1077079	46640	111099	0	0	8037	586591	0	0
2024-08-19 00:26:47			0	36791	0	0	0	29825	28440	159434	27046	1077007	46639	111098	0	0	8037	586947	0	0
2024-08-19 00:27:47			0	36776	0	0	0	29818	28440	159370	27102	1077016	46618	111095	0	0	8036	587553	0	0
2024-08-19 00:28:47			0	36791	0	0	0	29812	28450	159330	26753	1077052	46628	111093	0	0	8037	586914	0	0
2024-08-19 00:29:47			0	36766	0	0	0	29812	28440	159474	26802	1076989	46628	111093	0	0	8035	587957	0	0
2024-08-19 00:30:47			0	36766	0	0	0	29805	28440	159434	26897	1076953	46617	111090	0	0	8035	587957	0	0
2024-08-19 00:31:47			0	36786	0	0	0	29823	28430	159514	27102	1076971	46616	111097	0	0	8036	587183	0	0
2024-08-19 00:32:47			0	36763	0	0	0	29823	28430	159554	27109	1076962	46625	111097	0	0	8035	588113	0	0
2024-08-19 00:33:47			0	36747	0	0	0	29815	28420	159534	26994	1076926	46625	111094	0	0	8034	588794	0	0
2024-08-19 00:34:47			0	36760	0	0	0	29823	28430	159514	26809	1076962	46615	111097	0	0	8035	588234	0	0
2024-08-19 00:35:47			0	36776	0	0	0	29828	28430	159398	26781	1076962	46625	111099	0	0	8036	587587	0	0
2024-08-19 00:36:47			0	36771	0	0	0	29812	28430	159434	27175	1076944	46637	111093	0	0	8036	587789	0	0
2024-08-19 00:37:47			0	36802	0	0	0	29812	28430	159370	26984	1076971	46616	111093	0	0	8037	586537	0	0
2024-08-19 00:38:47			0	36794	0	0	0	29807	28430	159422	26885	1076944	46637	111091	0	0	8037	586860	0	0
2024-08-19 00:39:47			0	36794	0	0	0	29815	28430	159358	27105	1076908	46625	111094	0	0	8037	586860	0	0
2024-08-19 00:40:47			0	36797	0	0	0	29802	28430	159218	26889	1076962	46625	111089	0	0	8037	586739	0	0
2024-08-19 00:41:47			0	36801	0	0	0	29807	28430	159218	27142	1076989	46625	111091	0	0	8037	586578	0	0
2024-08-19 00:42:47			0	36782	0	0	0	29815	28430	159278	27046	1076944	46637	111094	0	0	8036	587345	0	0
2024-08-19 00:43:47			0	36787	0	0	0	29820	28420	159370	27268	1076944	46625	111096	0	0	8036	587177	0	0
2024-08-19 00:44:47			0	36778	0	0	0	29815	28420	159346	27130	1076953	46625	111094	0	0	8036	587540	0	0
2024-08-19 00:45:47			0	36786	0	0	0	29810	28420	159322	27000	1076917	46637	111092	0	0	8036	587217	0	0
2024-08-19 00:46:47			0	36793	0	0	0	29805	28420	159246	26941	1076926	46625	111090	0	0	8037	586935	0	0
2024-08-19 00:47:47			0	36805	0	0	0	29815	28420	159194	27012	1076899	46615	111094	0	0	8037	586450	0	0
2024-08-19 00:48:47			0	36827	0	0	0	29812	28430	159158	27102	1076908	46637	111093	0	0	8039	585529	0	0
2024-08-19 00:49:47			0	36819	0	0	0	29820	28420	159206	27015	1076953	46648	111096	0	0	8038	585886	0	0
2024-08-19 00:50:47			0	36817	0	0	0	29823	28420	159170	26705	1076980	46637	111097	0	0	8038	585966	0	0
2024-08-19 00:51:47			0	36830	0	0	0	29825	28430	159206	27017	1076935	46625	111098	0	0	8039	585408	0	0
2024-08-19 00:52:47			0	36822	0	0	0	29828	28430	159198	26970	1076944	46649	111099	0	0	8038	585731	0	0
2024-08-19 00:53:47			0	36838	0	0	0	29820	28430	159118	27163	1076935	46637	111096	0	0	8039	585086	0	0
2024-08-19 00:54:47			0	36822	0	0	0	29812	28430	159206	27008	1076935	46615	111093	0	0	8039	585731	0	0
2024-08-19 00:55:47			0	36846	0	0	0	29820	28420	159110	27156	1076953	46637	111096	0	0	8040	584797	0	0
2024-08-19 00:56:47			0	36840	0	0	0	29807	28430	159058	27078	1076962	46625	111091	0	0	8040	585005	0	0
2024-08-19 00:57:47			0	36879	0	0	0	29825	28420	159058	27086	1076971	46625	111098	0	0	8042	583469	0	0
2024-08-19 00:58:47			0	36879	0	0	0	29818	28430	159018	27071	1076971	46604	111095	0	0	8042	583436	0	0
2024-08-19 00:59:47			0	36859	0	0	0	29820	28420	159022	26797	1077007	46637	111096	0	0	8041	584274	0	0
2024-08-19 01:00:47			0	36867	0	0	0	29823	28420	159030	26896	1076944	46615	111097	0	0	8041	583952	0	0
2024-08-19 01:01:47			0	36877	0	0	0	29815	28430	159018	27133	1077016	46615	111094	0	0	8042	583516	0	0
2024-08-19 01:02:47			0	36868	0	0	0	29818	28420	159030	27182	1076953	46625	111095	0	0	8041	583912	0	0
2024-08-19 01:03:47			0	36872	0	0	0	29807	28420	158974	27232	1076944	46625	111091	0	0	8041	583751	0	0
2024-08-19 01:04:47			0	36868	0	0	0	29810	28420	159022	27196	1076953	46637	111092	0	0	8041	583912	0	0
2024-08-19 01:05:47			0	36866	0	0	0	29797	28420	159118	26741	1076926	46625	111087	0	0	8041	583992	0	0
2024-08-19 01:06:47			0	36863	0	0	0	29784	28420	159094	27130	1076917	46625	111082	0	0	8041	584113	0	0
2024-08-19 01:07:47			0	36846	0	0	0	29794	28420	159130	27015	1076944	46637	111086	0	0	8040	584797	0	0
2024-08-19 01:08:47			0	36828	0	0	0	29792	28410	159266	26986	1076908	46636	111085	0	0	8039	585556	0	0
2024-08-19 01:09:47			0	36833	0	0	0	29776	28410	159314	27039	1076854	46625	111079	0	0	8040	585355	0	0
2024-08-19 01:10:47			0	36804	0	0	0	29768	28410	159286	26686	1076791	46635	111076	0	0	8038	586524	0	0
2024-08-19 01:11:47			0	36785	0	0	0	29776	28400	159390	27109	1076808	46613	111079	0	0	8037	587325	0	0
2024-08-19 01:12:47			0	36776	0	0	0	29774	28400	159414	27180	1076772	46613	111078	0	0	8036	587689	0	0
2024-08-19 01:13:47			0	36762	0	0	0	29771	28400	159542	27145	1076754	46613	111077	0	0	8036	588255	0	0
2024-08-19 01:14:47			0	36764	0	0	0	29776	28400	159570	26967	1076772	46624	111079	0	0	8036	588174	0	0
2024-08-19 01:15:47			0	36745	0	0	0	29776	28390	159526	26939	1076763	46623	111079	0	0	8034	588977	0	0
2024-08-19 01:16:47			0	36747	0	0	0	29763	28400	159442	27052	1076745	46635	111074	0	0	8035	588862	0	0
2024-08-19 01:17:47			0	36760	0	0	0	29755	28380	159482	27114	1076727	46633	111071	0	0	8036	588404	0	0
2024-08-19 01:18:47			0	36781	0	0	0	29750	28370	159402	27417	1076682	46622	111069	0	0	8037	587589	0	0
2024-08-19 01:19:47			0	36761	0	0	0	29735	28380	159522	26975	1076718	46633	111063	0	0	8036	588363	0	0
2024-08-19 01:20:47			0	36742	0	0	0	29735	28370	159570	26849	1076655	46622	111063	0	0	8035	589166	0	0
2024-08-19 01:21:47			0	36698	0	0	0	29740	28370	159734	26880	1076700	46610	111065	0	0	8032	590949	0	0
2024-08-19 01:22:47			0	36666	0	0	0	29740	28360	159962	26632	1076691	46609	111065	0	0	8030	592283	0	0
2024-08-19 01:23:47			0	36637	0	0	0	29735	28360	160090	26791	1076610	46609	111063	0	0	8029	593462	0	0
2024-08-19 01:24:47			0	36585	0	0	0	29740	28370	160225	26686	1076646	46632	111065	0	0	8025	595545	0	0
2024-08-19 01:25:47			0	36548	0	0	0	29732	28360	160357	27079	1076601	46619	111062	0	0	8023	597090	0	0
2024-08-19 01:26:47			0	36507	0	0	0	29727	28360	160569	26819	1076556	46630	111060	0	0	8021	598767	0	0
2024-08-19 01:27:47			0	36435	0	0	0	29724	28360	160897	26979	1076574	46608	111059	0	0	8017	601719	0	0
2024-08-19 01:28:47			0	36374	0	0	0	29722	28350	161217	26720	1076484	46619	111058	0	0	8013	604263	0	0
2024-08-19 01:29:47			0	36298	0	0	0	29711	28340	161473	26965	1076547	46607	111054	0	0	8009	607434	0	0
2024-08-19 01:30:47			0	36240	0	0	0	29711	28340	161841	27149	1076520	46629	111054	0	0	8005	609836	0	0
2024-08-19 01:31:47			0	36193	0	0	0	29714	28340	162049	27017	1076484	46617	111055	0	0	8002	611786	0	0
2024-08-19 01:32:47			0	36175	0	0	0	29714	28340	162237	27159	1076403	46617	111055	0	0	8001	612535	0	0
2024-08-19 01:33:47			0	36183	0	0	0	29701	28330	162165	27001	1076466	46617	111050	0	0	8002	612237	0	0
2024-08-19 01:34:47			0	36234	0	0	0	29703	28330	162049	27124	1076367	46617	111051	0	0	8005	610120	0	0
2024-08-19 01:35:47			0	36258	0	0	0	29711	28320	161857	27182	1076484	46627	111054	0	0	8006	609160	0	0
2024-08-19 01:36:47			0	36278	0	0	0	29714	28340	161569	26996	1076457	46617	111055	0	0	8007	608262	0	0
2024-08-19 01:37:47			0	36269	0	0	0	29716	28330	161589	26889	1076466	46617	111056	0	0	8007	608669	0	0
2024-08-19 01:38:47			0	36282	0	0	0	29727	28330	161589	26793	1076466	46628	111060	0	0	8007	608131	0	0
2024-08-19 01:39:47			0	36295	0	0	0	29724	28320	161389	26783	1076511	46627	111059	0	0	8008	607629	0	0
2024-08-19 01:40:47			0	36331	0	0	0	29716	28330	161325	26840	1076439	46606	111056	0	0	8011	606106	0	0
2024-08-19 01:41:47			0	36353	0	0	0	29711	28340	161373	27005	1076484	46628	111054	0	0	8012	605163	0	0
2024-08-19 01:42:47			0	36366	0	0	0	29719	28330	161233	26960	1076475	46606	111057	0	0	8013	604662	0	0
2024-08-19 01:43:47			0	36357	0	0	0	29724	28320	161201	26968	1076457	46616	111059	0	0	8012	605068	0	0
2024-08-19 01:44:47			0	36357	0	0	0	29722	28340	161245	27377	1076511	46639	111058	0	0	8012	604999	0	0
2024-08-19 01:45:47			0	36365	0	0	0	29709	28320	161217	26660	1076376	46627	111053	0	0	8013	604739	0	0
2024-08-19 01:46:47			0	36360	0	0	0	29706	28320	161137	26965	1076376	46616	111052	0	0	8012	604945	0	0
2024-08-19 01:47:47			0	36348	0	0	0	29698	28310	161261	27275	1076412	46626	111049	0	0	8012	605475	0	0
2024-08-19 01:48:47			0	36356	0	0	0	29709	28320	161105	27277	1076349	46627	111053	0	0	8012	605110	0	0
2024-08-19 01:49:47			0	36388	0	0	0	29701	28320	161113	27029	1076367	46626	111050	0	0	8014	603791	0	0
2024-08-19 01:50:47			0	36408	0	0	0	29709	28310	161041	26922	1076376	46615	111053	0	0	8015	603003	0	0
2024-08-19 01:51:47			0	36455	0	0	0	29709	28310	160965	27078	1076430	46626	111053	0	0	8018	601071	0	0
2024-08-19 01:52:47			0	36476	0	0	0	29722	28310	160697	26835	1076430	46626	111058	0	0	8019	600210	0	0
2024-08-19 01:53:47			0	36518	0	0	0	29722	28320	160557	26902	1076484	46627	111058	0	0	8022	598455	0	0
2024-08-19 01:54:47			0	36523	0	0	0	29714	28320	160541	26828	1076448	46626	111055	0	0	8022	598250	0	0
2024-08-19 01:55:47			0	36542	0	0	0	29711	28330	160385	27168	1076466	46628	111054	0	0	8023	597439	0	0
2024-08-19 01:56:47			0	36551	0	0	0	29706	28320	160293	26920	1076457	46627	111052	0	0	8024	597106	0	0
2024-08-19 01:57:47			0	36561	0	0	0	29698	28320	160249	26811	1076421	46637	111049	0	0	8024	596697	0	0
2024-08-19 01:58:47			0	36570	0	0	0	29688	28320	160385	26941	1076421	46615	111045	0	0	8025	596330	0	0
2024-08-19 01:59:47			0	36522	0	0	0	29688	28310	160569	27003	1076331	46626	111045	0	0	8022	598326	0	0
2024-08-19 02:00:47			0	36488	0	0	0	29688	28310	160661	26686	1076349	46604	111045	0	0	8020	599718	0	0
2024-08-19 02:01:47			0	36484	0	0	0	29690	28310	160757	26779	1076295	46604	111046	0	0	8020	599882	0	0
2024-08-19 02:02:47			0	36450	0	0	0	29688	28310	160949	26807	1076331	46615	111045	0	0	8018	601277	0	0
2024-08-19 02:03:47			0	36419	0	0	0	29690	28310	160941	26821	1076403	46615	111046	0	0	8016	602550	0	0
2024-08-19 02:04:47			0	36433	0	0	0	29693	28310	160965	27059	1076322	46604	111047	0	0	8017	601975	0	0
2024-08-19 02:05:47			0	36433	0	0	0	29690	28300	160929	27216	1076313	46603	111046	0	0	8017	602010	0	0
2024-08-19 02:06:47			0	36441	0	0	0	29703	28310	160901	26901	1076349	46626	111051	0	0	8017	601646	0	0
2024-08-19 02:07:47			0	36467	0	0	0	29690	28310	160797	27100	1076295	46637	111046	0	0	8019	600579	0	0
2024-08-19 02:08:47			0	36471	0	0	0	29701	28300	160801	27067	1076340	46625	111050	0	0	8019	600450	0	0
2024-08-19 02:09:47			0	36481	0	0	0	29701	28290	160749	27183	1076322	46613	111050	0	0	8020	600074	0	0
2024-08-19 02:10:47			0	36486	0	0	0	29685	28310	160641	26885	1076403	46615	111044	0	0	8020	599800	0	0
2024-08-19 02:11:47			0	36479	0	0	0	29701	28310	160773	27022	1076349	46626	111050	0	0	8020	600087	0	0
2024-08-19 02:12:47			0	36469	0	0	0	29677	28300	160717	26793	1076313	46625	111041	0	0	8019	600532	0	0
2024-08-19 02:13:47			0	36464	0	0	0	29670	28300	160829	26571	1076277	46602	111038	0	0	8019	600737	0	0
2024-08-19 02:14:47			0	36440	0	0	0	29664	28300	160805	26814	1076250	46602	111036	0	0	8018	601722	0	0
2024-08-19 02:15:47			0	36427	0	0	0	29654	28290	160973	26842	1076214	46602	111032	0	0	8017	602291	0	0
2024-08-19 02:16:47			0	36385	0	0	0	29654	28280	161085	26679	1076115	46612	111032	0	0	8015	604054	0	0
2024-08-19 02:17:47			0	36352	0	0	0	29649	28270	161317	26817	1076124	46610	111030	0	0	8013	605449	0	0
2024-08-19 02:18:47			0	36249	0	0	0	29646	28270	161673	26762	1076142	46622	111029	0	0	8007	609709	0	0
2024-08-19 02:19:47			0	36180	0	0	0	29651	28270	162081	27067	1076142	46599	111031	0	0	8002	612574	0	0
2024-08-19 02:20:47			0	36087	0	0	0	29654	28270	162417	26762	1076061	46599	111032	0	0	7997	616451	0	0
2024-08-19 02:21:47			0	35999	0	0	0	29649	28270	162753	26648	1076151	46622	111030	0	0	7991	620136	0	0
2024-08-19 02:22:47			0	35962	0	0	0	29651	28270	163081	26913	1076115	46610	111031	0	0	7989	621690	0	0
2024-08-19 02:23:47			0	35913	0	0	0	29649	28260	163265	26972	1076123	46609	111030	0	0	7986	623788	0	0
2024-08-19 02:24:47			0	35883	0	0	0	29631	28260	163353	26961	1076105	46622	111023	0	0	7985	625053	0	0
2024-08-19 02:25:47			0	35853	0	0	0	29638	28250	163488	27060	1076033	46620	111026	0	0	7983	626355	0	0
2024-08-19 02:26:47			0	35825	0	0	0	29644	28260	163560	26922	1076015	46621	111028	0	0	7981	627503	0	0
2024-08-19 02:27:47			0	35848	0	0	0	29651	28250	163568	26887	1076114	46608	111031	0	0	7982	626567	0	0
2024-08-19 02:28:47			0	35882	0	0	0	29646	28250	163421	26726	1076114	46608	111029	0	0	7984	625131	0	0
2024-08-19 02:29:47			0	35884	0	0	0	29644	28250	163533	26897	1076051	46597	111028	0	0	7984	625047	0	0
2024-08-19 02:30:47			0	35904	0	0	0	29636	28250	163357	27102	1076087	46620	111025	0	0	7986	624203	0	0
2024-08-19 02:31:47			0	35898	0	0	0	29644	28260	163345	27000	1076096	46621	111028	0	0	7985	624420	0	0
2024-08-19 02:32:47			0	35872	0	0	0	29646	28260	163441	27124	1076096	46609	111029	0	0	7984	625517	0	0
2024-08-19 02:33:47			0	35840	0	0	0	29641	28250	163580	26811	1076060	46608	111027	0	0	7982	626905	0	0
2024-08-19 02:34:47			0	35819	0	0	0	29644	28250	163564	26873	1076051	46597	111028	0	0	7981	627793	0	0
2024-08-19 02:35:47			0	35835	0	0	0	29649	28250	163684	27086	1076051	46620	111030	0	0	7981	627117	0	0
2024-08-19 02:36:47			0	35828	0	0	0	29638	28260	163576	27171	1076069	46621	111026	0	0	7981	627376	0	0
2024-08-19 02:37:47			0	35843	0	0	0	29628	28250	163544	26894	1076078	46597	111022	0	0	7982	626778	0	0
2024-08-19 02:38:47			0	35778	0	0	0	29623	28240	163836	26772	1075988	46608	111020	0	0	7978	629567	0	0
2024-08-19 02:39:47			0	35719	0	0	0	29625	28240	164052	26991	1076015	46608	111021	0	0	7975	632073	0	0
2024-08-19 02:40:47			0	35663	0	0	0	29623	28240	164364	27324	1075979	46596	111020	0	0	7971	634458	0	0
2024-08-19 02:41:47			0	35606	0	0	0	29620	28240	164712	26960	1075925	46607	111019	0	0	7968	636893	0	0
2024-08-19 02:42:47			0	35547	0	0	0	29602	28230	164940	27092	1075907	46595	111012	0	0	7965	639457	0	0
2024-08-19 02:43:47			0	35499	0	0	0	29602	28230	165112	27157	1075943	46606	111012	0	0	7962	641518	0	0
2024-08-19 02:44:47			0	35416	0	0	0	29599	28230	165500	27109	1075889	46606	111011	0	0	7957	645094	0	0
2024-08-19 02:45:47			0	35352	0	0	0	29612	28230	165864	26759	1075961	46606	111016	0	0	7952	647861	0	0
2024-08-19 02:46:47			0	35297	0	0	0	29610	28230	166080	27116	1075907	46606	111015	0	0	7949	650246	0	0
2024-08-19 02:47:47			0	35239	0	0	0	29607	28220	166308	27010	1075952	46605	111014	0	0	7945	652807	0	0
2024-08-19 02:48:47			0	35190	0	0	0	29612	28240	166524	27294	1075907	46608	111016	0	0	7942	654868	0	0
2024-08-19 02:49:47			0	35177	0	0	0	29607	28220	166612	27081	1075925	46605	111014	0	0	7942	655511	0	0
2024-08-19 02:50:47			0	35152	0	0	0	29610	28220	166736	27130	1075925	46616	111015	0	0	7940	656604	0	0
2024-08-19 02:51:47			0	35127	0	0	0	29610	28220	166928	27159	1075871	46616	111015	0	0	7938	657698	0	0
2024-08-19 02:52:47			0	35088	0	0	0	29602	28220	167019	27074	1075871	46616	111012	0	0	7936	659408	0	0
2024-08-19 02:53:47			0	35053	0	0	0	29610	28220	167231	26760	1075916	46605	111015	0	0	7934	660945	0	0
2024-08-19 02:54:47			0	35022	0	0	0	29605	28220	167399	27118	1075844	46616	111013	0	0	7932	662308	0	0
2024-08-19 02:55:47			0	35003	0	0	0	29612	28220	167559	27017	1075835	46616	111016	0	0	7931	663145	0	0
2024-08-19 02:56:47			0	34957	0	0	0	29605	28220	167707	26786	1075862	46605	111013	0	0	7928	665174	0	0
2024-08-19 02:57:47			0	34923	0	0	0	29597	28210	167807	26727	1075826	46604	111010	0	0	7926	666716	0	0
2024-08-19 02:58:47			0	34923	0	0	0	29599	28210	167939	26967	1075826	46604	111011	0	0	7926	666716	0	0
2024-08-19 02:59:47			0	34875	0	0	0	29597	28210	167987	27038	1075826	46626	111010	0	0	7923	668842	0	0
2024-08-19 03:00:47			0	34862	0	0	0	29597	28200	168115	26949	1075799	46603	111010	0	0	7922	669458	0	0
2024-08-19 03:01:47			0	34835	0	0	0	29597	28210	168267	27150	1075871	46604	111010	0	0	7920	670618	0	0
2024-08-19 03:02:47			0	34819	0	0	0	29602	28200	168411	27242	1075835	46603	111012	0	0	7919	671368	0	0
2024-08-19 03:03:47			0	34806	0	0	0	29592	28200	168355	27081	1075808	46603	111008	0	0	7918	671947	0	0
2024-08-19 03:04:47			0	34810	0	0	0	29594	28200	168423	27287	1075826	46614	111009	0	0	7919	671768	0	0
2024-08-19 03:05:47			0	34816	0	0	0	29594	28200	168383	27083	1075826	46614	111009	0	0	7919	671501	0	0
2024-08-19 03:06:47			0	34877	0	0	0	29602	28190	168211	27055	1075763	46602	111012	0	0	7923	668831	0	0
2024-08-19 03:07:47			0	34892	0	0	0	29602	28190	167999	27199	1075790	46614	111012	0	0	7924	668166	0	0
2024-08-19 03:08:47			0	34871	0	0	0	29586	28210	168191	26930	1075844	46604	111006	0	0	7923	669020	0	0
2024-08-19 03:09:47			0	34836	0	0	0	29581	28190	168303	27027	1075736	46614	111004	0	0	7920	670651	0	0
2024-08-19 03:10:47			0	34829	0	0	0	29594	28200	168411	27199	1075808	46603	111009	0	0	7920	670924	0	0
2024-08-19 03:11:47			0	34793	0	0	0	29592	28200	168435	27114	1075781	46614	111008	0	0	7918	672525	0	0
2024-08-19 03:12:47			0	34793	0	0	0	29599	28190	168487	27159	1075781	46613	111011	0	0	7917	672564	0	0
2024-08-19 03:13:47			0	34802	0	0	0	29594	28190	168479	27052	1075781	46601	111009	0	0	7918	672163	0	0
2024-08-19 03:14:47			0	34797	0	0	0	29579	28190	168427	27126	1075790	46614	111003	0	0	7918	672386	0	0
2024-08-19 03:15:47			0	34812	0	0	0	29592	28190	168535	27036	1075763	46602	111008	0	0	7919	671718	0	0
2024-08-19 03:16:47			0	34807	0	0	0	29581	28190	168479	27296	1075754	46590	111004	0	0	7919	671941	0	0
2024-08-19 03:17:47			0	34794	0	0	0	29581	28200	168615	27102	1075772	46603	111004	0	0	7918	672481	0	0
2024-08-19 03:18:47			0	34791	0	0	0	29576	28190	168539	27159	1075835	46613	111002	0	0	7918	672653	0	0
2024-08-19 03:19:47			0	34778	0	0	0	29581	28190	168631	27190	1075754	46601	111004	0	0	7917	673233	0	0
2024-08-19 03:20:47			0	34742	0	0	0	29579	28190	168707	27147	1075736	46591	111003	0	0	7915	674838	0	0
2024-08-19 03:21:47			0	34734	0	0	0	29571	28180	168903	26993	1075637	46624	111000	0	0	7914	675235	0	0
2024-08-19 03:22:47			0	34725	0	0	0	29571	28180	168811	26925	1075718	46590	111000	0	0	7914	675637	0	0
2024-08-19 03:23:47			0	34739	0	0	0	29576	28180	168871	26963	1075745	46601	111002	0	0	7914	675011	0	0
2024-08-19 03:24:47			0	34720	0	0	0	29579	28190	168855	26922	1075754	46613	111003	0	0	7913	675821	0	0
2024-08-19 03:25:47			0	34730	0	0	0	29579	28180	168947	26982	1075709	46601	111003	0	0	7914	675414	0	0
2024-08-19 03:26:47			0	34690	0	0	0	29576	28170	168959	26814	1075700	46600	111002	0	0	7911	677242	0	0
2024-08-19 03:27:47			0	34706	0	0	0	29576	28180	168951	26977	1075664	46613	111002	0	0	7912	676487	0	0
2024-08-19 03:28:47			0	34723	0	0	0	29563	28180	169035	27013	1075709	46601	110997	0	0	7914	675726	0	0
2024-08-19 03:29:47			0	34722	0	0	0	29568	28180	168975	26748	1075745	46613	110999	0	0	7913	675771	0	0
2024-08-19 03:30:47			0	34696	0	0	0	29568	28170	169031	27097	1075646	46589	110999	0	0	7912	676973	0	0
2024-08-19 03:31:47			0	34699	0	0	0	29545	28170	168975	26811	1075673	46623	110990	0	0	7912	676839	0	0
2024-08-19 03:32:47			0	34688	0	0	0	29558	28170	169051	27287	1075664	46599	110995	0	0	7911	677331	0	0
2024-08-19 03:33:47			0	34708	0	0	0	29558	28170	169127	26828	1075700	46600	110995	0	0	7913	676436	0	0
2024-08-19 03:34:47			0	34691	0	0	0	29558	28170	169115	26922	1075619	46600	110995	0	0	7912	677197	0	0
2024-08-19 03:35:47			0	34662	0	0	0	29563	28170	169179	26968	1075664	46599	110997	0	0	7910	678496	0	0
2024-08-19 03:36:47			0	34638	0	0	0	29573	28160	169243	26771	1075709	46611	111001	0	0	7908	679612	0	0
2024-08-19 03:37:47			0	34639	0	0	0	29571	28170	169211	26706	1075691	46599	111000	0	0	7908	679528	0	0
2024-08-19 03:38:47			0	34665	0	0	0	29571	28170	169139	27067	1075664	46599	111000	0	0	7910	678362	0	0
2024-08-19 03:39:47			0	34684	0	0	0	29555	28170	169135	26958	1075691	46622	110994	0	0	7911	677510	0	0
2024-08-19 03:40:47			0	34698	0	0	0	29553	28170	169187	26828	1075637	46599	110993	0	0	7912	676884	0	0
2024-08-19 03:41:47			0	34692	0	0	0	29545	28160	169127	27022	1075628	46611	110990	0	0	7912	677191	0	0
2024-08-19 03:42:47			0	34696	0	0	0	29561	28160	169187	26734	1075682	46599	110996	0	0	7912	677012	0	0
2024-08-19 03:43:47			0	34704	0	0	0	29566	28160	169163	26743	1075628	46588	110998	0	0	7912	676654	0	0
2024-08-19 03:44:47			0	34717	0	0	0	29568	28170	169111	27026	1075700	46600	110999	0	0	7913	676034	0	0
2024-08-19 03:45:47			0	34706	0	0	0	29581	28160	169039	27086	1075673	46609	111004	0	0	7912	676565	0	0
2024-08-19 03:46:47			0	34714	0	0	0	29568	28160	168995	27206	1075673	46621	110999	0	0	7913	676207	0	0
2024-08-19 03:47:47			0	34768	0	0	0	29553	28170	168831	27320	1075664	46599	110993	0	0	7916	673756	0	0
2024-08-19 03:48:47			0	34810	0	0	0	29561	28170	168667	27093	1075619	46589	110996	0	0	7919	671885	0	0
2024-08-19 03:49:47			0	34801	0	0	0	29553	28160	168523	27008	1075655	46611	110993	0	0	7919	672324	0	0
2024-08-19 03:50:47			0	34799	0	0	0	29573	28160	168703	26894	1075682	46599	111001	0	0	7918	672413	0	0
2024-08-19 03:51:47			0	34802	0	0	0	29584	28170	168567	26712	1075610	46611	111005	0	0	7918	672241	0	0
2024-08-19 03:52:47			0	34864	0	0	0	29581	28160	168347	26826	1075655	46622	111004	0	0	7922	669524	0	0
2024-08-19 03:53:47			0	34918	0	0	0	29579	28160	168175	26883	1075709	46599	111003	0	0	7925	667130	0	0
2024-08-19 03:54:47			0	34949	0	0	0	29589	28170	167879	26797	1075727	46623	111007	0	0	7927	665720	0	0
2024-08-19 03:55:47			0	34979	0	0	0	29576	28160	167679	26882	1075682	46611	111002	0	0	7929	664434	0	0
2024-08-19 03:56:47			0	35012	0	0	0	29579	28180	167615	27161	1075718	46613	111003	0	0	7931	662902	0	0
2024-08-19 03:57:47			0	35008	0	0	0	29584	28180	167579	26887	1075772	46601	111005	0	0	7931	663078	0	0
2024-08-19 03:58:47			0	35025	0	0	0	29586	28180	167599	26967	1075736	46613	111006	0	0	7932	662329	0	0
2024-08-19 03:59:47			0	35046	0	0	0	29571	28170	167547	27034	1075664	46599	111000	0	0	7934	661443	0	0
2024-08-19 04:00:47			0	35031	0	0	0	29573	28170	167471	26996	1075727	46612	111001	0	0	7933	662103	0	0
2024-08-19 04:01:47			0	35022	0	0	0	29571	28170	167575	26769	1075700	46612	111000	0	0	7932	662500	0	0
2024-08-19 04:02:47			0	35004	0	0	0	29571	28180	167567	26939	1075709	46613	111000	0	0	7931	663254	0	0
2024-08-19 04:03:47			0	35007	0	0	0	29550	28170	167671	26731	1075637	46599	110992	0	0	7932	663160	0	0
2024-08-19 04:04:47			0	34984	0	0	0	29553	28170	167631	26670	1075619	46612	110993	0	0	7930	664174	0	0
2024-08-19 04:05:47			0	34979	0	0	0	29542	28160	167763	26901	1075628	46588	110989	0	0	7930	664434	0	0
2024-08-19 04:06:47			0	34952	0	0	0	29545	28170	167835	26689	1075664	46599	110990	0	0	7928	665588	0	0
2024-08-19 04:07:47			0	34947	0	0	0	29542	28160	167951	26854	1075565	46598	110989	0	0	7928	665847	0	0
2024-08-19 04:08:47			0	34925	0	0	0	29548	28160	167995	27074	1075547	46611	110991	0	0	7926	666820	0	0
2024-08-19 04:09:47			0	34910	0	0	0	29545	28160	168039	27301	1075538	46598	110990	0	0	7926	667484	0	0
2024-08-19 04:10:47			0	34920	0	0	0	29529	28140	168031	27128	1075565	46597	110984	0	0	7926	667118	0	0
2024-08-19 04:11:47			0	34926	0	0	0	29537	28150	168063	26802	1075574	46597	110987	0	0	7927	666814	0	0
2024-08-19 04:12:47			0	34955	0	0	0	29535	28160	167943	26883	1075565	46587	110986	0	0	7929	665493	0	0
2024-08-19 04:13:47			0	34970	0	0	0	29535	28150	167803	26755	1075520	46597	110986	0	0	7929	664869	0	0
2024-08-19 04:14:47			0	34998	0	0	0	29532	28160	167767	26994	1075592	46587	110985	0	0	7931	663595	0	0
2024-08-19 04:15:47			0	35052	0	0	0	29548	28140	167523	26935	1075538	46597	110991	0	0	7934	661294	0	0
2024-08-19 04:16:47			0	35127	0	0	0	29558	28150	167252	27095	1075627	46608	110995	0	0	7939	657964	0	0
2024-08-19 04:17:47			0	35168	0	0	0	29563	28150	166748	26875	1075574	46597	110997	0	0	7941	656169	0	0
2024-08-19 04:18:47			0	35239	0	0	0	29573	28140	166624	26961	1075645	46620	111001	0	0	7946	653108	0	0
2024-08-19 04:19:47			0	35324	0	0	0	29579	28150	166308	26760	1075636	46609	111003	0	0	7951	649375	0	0
2024-08-19 04:20:47			0	35379	0	0	0	29573	28160	165984	26993	1075673	46621	111001	0	0	7954	646954	0	0
2024-08-19 04:21:47			0	35441	0	0	0	29584	28160	165728	27118	1075682	46622	111005	0	0	7958	644276	0	0
2024-08-19 04:22:47			0	35504	0	0	0	29602	28160	165484	26734	1075727	46598	111012	0	0	7962	641562	0	0
2024-08-19 04:23:47			0	35570	0	0	0	29610	28170	165112	26852	1075727	46633	111015	0	0	7966	638692	0	0
2024-08-19 04:24:47			0	35632	0	0	0	29631	28170	164896	26805	1075781	46612	111023	0	0	7969	636038	0	0
2024-08-19 04:25:47			0	35707	0	0	0	29625	28190	164548	26844	1075835	46613	111021	0	0	7974	632766	0	0
2024-08-19 04:26:47			0	35769	0	0	0	29625	28180	164204	26788	1075799	46613	111021	0	0	7977	630167	0	0
2024-08-19 04:27:47			0	35837	0	0	0	29633	28180	163820	26817	1075826	46624	111024	0	0	7981	627285	0	0
2024-08-19 04:28:47			0	35893	0	0	0	29644	28200	163481	26769	1075970	46614	111028	0	0	7985	624847	0	0
2024-08-19 04:29:47			0	35958	0	0	0	29636	28210	163257	26826	1076006	46637	111025	0	0	7989	622073	0	0
2024-08-19 04:30:47			0	36008	0	0	0	29646	28200	162981	26840	1075934	46614	111029	0	0	7992	620009	0	0
2024-08-19 04:31:47			0	36059	0	0	0	29651	28220	162777	26916	1075970	46616	111031	0	0	7995	617801	0	0
2024-08-19 04:32:47			0	36091	0	0	0	29651	28230	162709	26885	1075988	46628	111031	0	0	7997	616427	0	0
2024-08-19 04:33:47			0	36135	0	0	0	29644	28220	162545	27100	1076033	46616	111028	0	0	7999	614626	0	0
2024-08-19 04:34:47			0	36183	0	0	0	29646	28220	162329	26691	1076033	46605	111029	0	0	8002	612627	0	0
2024-08-19 04:35:47			0	36194	0	0	0	29654	28220	162125	26963	1075952	46616	111032	0	0	8003	612169	0	0
2024-08-19 04:36:47			0	36219	0	0	0	29641	28220	162029	27066	1075979	46627	111027	0	0	8005	611130	0	0
2024-08-19 04:37:47			0	36233	0	0	0	29651	28230	162081	26927	1076051	46618	111031	0	0	8005	610514	0	0
2024-08-19 04:38:47			0	36265	0	0	0	29654	28230	161913	27211	1076015	46618	111032	0	0	8007	609187	0	0
2024-08-19 04:39:47			0	36275	0	0	0	29644	28230	161797	27180	1076051	46618	111028	0	0	8008	608773	0	0
2024-08-19 04:40:47			0	36300	0	0	0	29641	28240	161745	26833	1076033	46607	111027	0	0	8010	607703	0	0
2024-08-19 04:41:47			0	36307	0	0	0	29636	28230	161701	27000	1076078	46628	111025	0	0	8010	607448	0	0
2024-08-19 04:42:47			0	36330	0	0	0	29651	28230	161545	26838	1076078	46595	111031	0	0	8011	606498	0	0
2024-08-19 04:43:47			0	36345	0	0	0	29646	28230	161621	26573	1076042	46595	111029	0	0	8012	605878	0	0
2024-08-19 04:44:47			0	36345	0	0	0	29623	28230	161565	26840	1076078	46606	111020	0	0	8012	605878	0	0
2024-08-19 04:45:47			0	36337	0	0	0	29628	28230	161465	27166	1075970	46618	111022	0	0	8012	606209	0	0
2024-08-19 04:46:47			0	36372	0	0	0	29625	28240	161401	27041	1076006	46607	111021	0	0	8014	604730	0	0
2024-08-19 04:47:47			0	36378	0	0	0	29615	28230	161353	27007	1075988	46606	111017	0	0	8015	604517	0	0
2024-08-19 04:48:47			0	36409	0	0	0	29631	28230	161337	26689	1076015	46606	111023	0	0	8016	603240	0	0
2024-08-19 04:49:47			0	36427	0	0	0	29625	28230	161197	26783	1076024	46618	111021	0	0	8017	602500	0	0
2024-08-19 04:50:47			0	36421	0	0	0	29631	28230	161169	27138	1075961	46606	111023	0	0	8017	602747	0	0
2024-08-19 04:51:47			0	36433	0	0	0	29612	28230	161089	26911	1075934	46606	111016	0	0	8018	602253	0	0
2024-08-19 04:52:47			0	36442	0	0	0	29612	28220	161149	27152	1075970	46616	111016	0	0	8018	601918	0	0
2024-08-19 04:53:47			0	36443	0	0	0	29615	28230	161049	26949	1075961	46628	111017	0	0	8018	601842	0	0
2024-08-19 04:54:47			0	36462	0	0	0	29623	28220	161109	26866	1075925	46605	111020	0	0	8019	601097	0	0
2024-08-19 04:55:47			0	36460	0	0	0	29620	28220	160925	26726	1075925	46616	111019	0	0	8019	601179	0	0
2024-08-19 04:56:47			0	36473	0	0	0	29607	28220	161045	27246	1075943	46616	111014	0	0	8020	600645	0	0
2024-08-19 04:57:47			0	36494	0	0	0	29618	28220	160957	26731	1075916	46605	111018	0	0	8021	599784	0	0
2024-08-19 04:58:47			0	36490	0	0	0	29612	28220	160929	26609	1075952	46605	111016	0	0	8021	599948	0	0
2024-08-19 04:59:47			0	36488	0	0	0	29612	28220	160769	26802	1075943	46605	111016	0	0	8021	600030	0	0
2024-08-19 05:00:47			0	36512	0	0	0	29612	28230	160841	27062	1075961	46628	111016	0	0	8023	599012	0	0
2024-08-19 05:01:47			0	36506	0	0	0	29612	28220	160841	27177	1075916	46627	111016	0	0	8022	599292	0	0
2024-08-19 05:02:47			0	36506	0	0	0	29610	28210	160717	26585	1075979	46604	111015	0	0	8022	599327	0	0
2024-08-19 05:03:47			0	36513	0	0	0	29597	28220	160677	26739	1075970	46616	111010	0	0	8023	599005	0	0
2024-08-19 05:04:47			0	36516	0	0	0	29602	28220	160589	26916	1075979	46616	111012	0	0	8023	598883	0	0
2024-08-19 05:05:47			0	36517	0	0	0	29602	28220	160649	27098	1075943	46616	111012	0	0	8023	598842	0	0
2024-08-19 05:06:47			0	36542	0	0	0	29594	28210	160677	27020	1075907	46604	111009	0	0	8025	597853	0	0
2024-08-19 05:07:47			0	36527	0	0	0	29589	28210	160673	27112	1075880	46604	111007	0	0	8024	598467	0	0
2024-08-19 05:08:47			0	36529	0	0	0	29599	28200	160685	27005	1075835	46614	111011	0	0	8024	598420	0	0
2024-08-19 05:09:47			0	36560	0	0	0	29581	28200	160733	27100	1075799	46603	111004	0	0	8026	597152	0	0
2024-08-19 05:10:47			0	36549	0	0	0	29584	28200	160657	27064	1075889	46592	111005	0	0	8025	597601	0	0
2024-08-19 05:11:47			0	36534	0	0	0	29594	28200	160841	26916	1075862	46614	111009	0	0	8024	598215	0	0
2024-08-19 05:12:47			0	36539	0	0	0	29594	28200	160725	26960	1075799	46603	111009	0	0	8024	598010	0	0
2024-08-19 05:13:47			0	36550	0	0	0	29594	28200	160693	26920	1075826	46614	111009	0	0	8025	597561	0	0
2024-08-19 05:14:47			0	36555	0	0	0	29592	28190	160637	26908	1075844	46602	111008	0	0	8025	597391	0	0
2024-08-19 05:15:47			0	36567	0	0	0	29592	28190	160637	26826	1075844	46602	111008	0	0	8026	596900	0	0
2024-08-19 05:16:47			0	36548	0	0	0	29594	28200	160561	26948	1075772	46625	111009	0	0	8025	597642	0	0
2024-08-19 05:17:47			0	36545	0	0	0	29586	28190	160601	26680	1075835	46624	111006	0	0	8025	597800	0	0
2024-08-19 05:18:47			0	36565	0	0	0	29586	28190	160661	26873	1075889	46590	111006	0	0	8026	596982	0	0
2024-08-19 05:19:47			0	36577	0	0	0	29594	28190	160489	27005	1075844	46602	111009	0	0	8027	596492	0	0
2024-08-19 05:20:47			0	36578	0	0	0	29594	28190	160605	26876	1075790	46614	111009	0	0	8027	596451	0	0
2024-08-19 05:21:47			0	36579	0	0	0	29571	28190	160557	26679	1075781	46613	111000	0	0	8027	596410	0	0
2024-08-19 05:22:47			0	36574	0	0	0	29573	28190	160537	26953	1075781	46613	111001	0	0	8027	596614	0	0
2024-08-19 05:23:47			0	36577	0	0	0	29586	28190	160501	26826	1075808	46613	111006	0	0	8027	596492	0	0
2024-08-19 05:24:47			0	36583	0	0	0	29579	28180	160469	26859	1075736	46590	111003	0	0	8027	596281	0	0
2024-08-19 05:25:47			0	36573	0	0	0	29573	28180	160529	27287	1075745	46613	111001	0	0	8027	596689	0	0
2024-08-19 05:26:47			0	36578	0	0	0	29581	28180	160461	26897	1075844	46601	111004	0	0	8027	596485	0	0
2024-08-19 05:27:47			0	36572	0	0	0	29573	28180	160517	27312	1075745	46613	111001	0	0	8027	596730	0	0
2024-08-19 05:28:47			0	36581	0	0	0	29571	28180	160453	27066	1075736	46613	111000	0	0	8027	596363	0	0
2024-08-19 05:29:47			0	36574	0	0	0	29581	28170	160589	26911	1075754	46612	111004	0	0	8027	596683	0	0
2024-08-19 05:30:47			0	36577	0	0	0	29581	28180	160521	27190	1075736	46613	111004	0	0	8027	596526	0	0
2024-08-19 05:31:47			0	36556	0	0	0	29566	28180	160505	27196	1075691	46613	110998	0	0	8026	597384	0	0
2024-08-19 05:32:47			0	36546	0	0	0	29568	28180	160565	26830	1075718	46601	110999	0	0	8025	597793	0	0
2024-08-19 05:33:47			0	36556	0	0	0	29566	28170	160565	26729	1075673	46623	110998	0	0	8026	597419	0	0
2024-08-19 05:34:47			0	36545	0	0	0	29563	28180	160609	26937	1075682	46601	110997	0	0	8025	597834	0	0
2024-08-19 05:35:47			0	36550	0	0	0	29561	28160	160573	27178	1075655	46611	110996	0	0	8025	597699	0	0
2024-08-19 05:36:47			0	36555	0	0	0	29555	28170	160621	26939	1075664	46622	110994	0	0	8026	597460	0	0
2024-08-19 05:37:47			0	36531	0	0	0	29548	28160	160577	26902	1075655	46599	110991	0	0	8024	598476	0	0
2024-08-19 05:38:47			0	36537	0	0	0	29555	28160	160649	27223	1075682	46599	110994	0	0	8025	598230	0	0
2024-08-19 05:39:47			0	36515	0	0	0	29550	28170	160677	27180	1075637	46611	110992	0	0	8024	599097	0	0
2024-08-19 05:40:47			0	36501	0	0	0	29548	28160	160713	26955	1075700	46598	110991	0	0	8023	599705	0	0
2024-08-19 05:41:47			0	36517	0	0	0	29550	28160	160657	27059	1075628	46611	110992	0	0	8024	599049	0	0
2024-08-19 05:42:47			0	36511	0	0	0	29553	28160	160701	26902	1075682	46611	110993	0	0	8023	599295	0	0
2024-08-19 05:43:47			0	36510	0	0	0	29542	28160	160797	27251	1075619	46621	110989	0	0	8023	599336	0	0
2024-08-19 05:44:47			0	36493	0	0	0	29545	28150	160729	26863	1075636	46621	110990	0	0	8022	600068	0	0
2024-08-19 05:45:47			0	36490	0	0	0	29545	28150	160885	27031	1075583	46598	110990	0	0	8022	600190	0	0
2024-08-19 05:46:47			0	36506	0	0	0	29548	28160	160965	26991	1075619	46598	110991	0	0	8023	599500	0	0
2024-08-19 05:47:47			0	36483	0	0	0	29540	28150	160913	26946	1075556	46609	110988	0	0	8022	600478	0	0
2024-08-19 05:48:47			0	36479	0	0	0	29532	28160	160989	26951	1075592	46609	110985	0	0	8022	600607	0	0
2024-08-19 05:49:47			0	36496	0	0	0	29542	28150	161033	26981	1075627	46620	110989	0	0	8022	599945	0	0
2024-08-19 05:50:47			0	36482	0	0	0	29542	28150	160993	27147	1075600	46608	110989	0	0	8022	600519	0	0
2024-08-19 05:51:47			0	36478	0	0	0	29535	28150	161025	27109	1075583	46598	110986	0	0	8021	600683	0	0
2024-08-19 05:52:47			0	36459	0	0	0	29532	28140	160973	26968	1075538	46586	110985	0	0	8020	601498	0	0
2024-08-19 05:53:47			0	36453	0	0	0	29527	28140	161173	26939	1075591	46608	110983	0	0	8020	601744	0	0
2024-08-19 05:54:47			0	36415	0	0	0	29509	28150	161181	27374	1075520	46608	110976	0	0	8018	603272	0	0
2024-08-19 05:55:47			0	36426	0	0	0	29511	28150	161325	26909	1075520	46597	110977	0	0	8019	602820	0	0
2024-08-19 05:56:47			0	36394	0	0	0	29511	28130	161389	26833	1075430	46595	110977	0	0	8017	604207	0	0
2024-08-19 05:57:47			0	36382	0	0	0	29519	28130	161409	26948	1075466	46607	110980	0	0	8016	604701	0	0
2024-08-19 05:58:47			0	36391	0	0	0	29522	28120	161381	27109	1075448	46595	110981	0	0	8016	604365	0	0
2024-08-19 05:59:47			0	36395	0	0	0	29514	28130	161389	27272	1075457	46606	110978	0	0	8017	604165	0	0
2024-08-19 06:00:47			0	36395	0	0	0	29509	28120	161373	26746	1075448	46595	110976	0	0	8017	604200	0	0
2024-08-19 06:01:47			0	36394	0	0	0	29511	28130	161333	27116	1075457	46606	110977	0	0	8017	604207	0	0
2024-08-19 06:02:47			0	36397	0	0	0	29516	28130	161221	27008	1075510	46595	110979	0	0	8017	604083	0	0
2024-08-19 06:03:47			0	36400	0	0	0	29511	28130	161277	26949	1075483	46618	110977	0	0	8017	603959	0	0
2024-08-19 06:04:47			0	36431	0	0	0	29506	28120	161133	27209	1075438	46594	110975	0	0	8019	602718	0	0
2024-08-19 06:05:47			0	36443	0	0	0	29503	28120	161001	27033	1075474	46606	110974	0	0	8020	602225	0	0
2024-08-19 06:06:47			0	36452	0	0	0	29503	28110	161109	26975	1075402	46594	110974	0	0	8020	601890	0	0
2024-08-19 06:07:47			0	36464	0	0	0	29493	28120	161037	27343	1075385	46606	110970	0	0	8021	601362	0	0
2024-08-19 06:08:47			0	36477	0	0	0	29488	28120	160973	27183	1075438	46606	110968	0	0	8022	600828	0	0
2024-08-19 06:09:47			0	36477	0	0	0	29490	28110	160973	27339	1075340	46593	110969	0	0	8022	600863	0	0
2024-08-19 06:10:47			0	36476	0	0	0	29493	28110	160909	27060	1075349	46594	110970	0	0	8022	600904	0	0
2024-08-19 06:11:47			0	36474	0	0	0	29477	28110	160925	27229	1075393	46593	110964	0	0	8022	600986	0	0
2024-08-19 06:12:47			0	36469	0	0	0	29496	28100	161021	27074	1075357	46605	110971	0	0	8021	601226	0	0
2024-08-19 06:13:47			0	36476	0	0	0	29480	28090	160897	27142	1075295	46592	110965	0	0	8022	600973	0	0
2024-08-19 06:14:47			0	36474	0	0	0	29483	28100	160905	26946	1075331	46583	110966	0	0	8022	601021	0	0
2024-08-19 06:15:47			0	36467	0	0	0	29483	28100	161009	27067	1075304	46605	110966	0	0	8021	601308	0	0
2024-08-19 06:16:47			0	36445	0	0	0	29472	28090	161001	27244	1075312	46602	110962	0	0	8020	602247	0	0
2024-08-19 06:17:47			0	36446	0	0	0	29472	28080	161029	27078	1075276	46614	110962	0	0	8020	602240	0	0
2024-08-19 06:18:47			0	36434	0	0	0	29464	28090	161237	26861	1075366	46581	110959	0	0	8020	602699	0	0
2024-08-19 06:19:47			0	36412	0	0	0	29470	28100	161157	27116	1075277	46593	110961	0	0	8018	603570	0	0
2024-08-19 06:20:47			0	36403	0	0	0	29467	28080	161321	26974	1075276	46591	110960	0	0	8018	604010	0	0
2024-08-19 06:21:47			0	36359	0	0	0	29462	28080	161445	27168	1075294	46601	110958	0	0	8015	605825	0	0
2024-08-19 06:22:47			0	36358	0	0	0	29457	28080	161545	27121	1075214	46613	110956	0	0	8015	605866	0	0
2024-08-19 06:23:47			0	36328	0	0	0	29457	28080	161613	27104	1075214	46580	110956	0	0	8014	607106	0	0
2024-08-19 06:24:47			0	36322	0	0	0	29451	28070	161761	26923	1075195	46589	110954	0	0	8013	607389	0	0
2024-08-19 06:25:47			0	36289	0	0	0	29451	28070	161889	27029	1075169	46589	110954	0	0	8011	608755	0	0
2024-08-19 06:26:47			0	36251	0	0	0	29441	28080	161905	27140	1075214	46613	110950	0	0	8009	610295	0	0
2024-08-19 06:27:47			0	36260	0	0	0	29449	28060	162009	27112	1075124	46588	110953	0	0	8009	609993	0	0
2024-08-19 06:28:47			0	36227	0	0	0	29449	28060	162089	27012	1075133	46579	110953	0	0	8008	611362	0	0
2024-08-19 06:29:47			0	36219	0	0	0	29444	28060	162165	27135	1075186	46589	110951	0	0	8007	611695	0	0
2024-08-19 06:30:47			0	36208	0	0	0	29433	28070	162145	27121	1075142	46589	110947	0	0	8007	612117	0	0
2024-08-19 06:31:47			0	36183	0	0	0	29451	28060	162205	26779	1075186	46589	110954	0	0	8005	613193	0	0
2024-08-19 06:32:47			0	36163	0	0	0	29449	28050	162373	27326	1075115	46588	110953	0	0	8004	614061	0	0
2024-08-19 06:33:47			0	36170	0	0	0	29449	28060	162381	26915	1075150	46599	110953	0	0	8004	613734	0	0
2024-08-19 06:34:47			0	36155	0	0	0	29449	28050	162441	27358	1075132	46610	110953	0	0	8003	614395	0	0
2024-08-19 06:35:47			0	36133	0	0	0	29438	28060	162517	27253	1075150	46599	110949	0	0	8002	615277	0	0
2024-08-19 06:36:47			0	36138	0	0	0	29436	28060	162409	26970	1075106	46612	110948	0	0	8002	615068	0	0
2024-08-19 06:37:47			0	36136	0	0	0	29449	28060	162533	27152	1075124	46611	110953	0	0	8002	615152	0	0
2024-08-19 06:38:47			0	36135	0	0	0	29441	28050	162565	26942	1075078	46598	110950	0	0	8002	615229	0	0
2024-08-19 06:39:47			0	36124	0	0	0	29444	28050	162641	26892	1075105	46598	110951	0	0	8001	615688	0	0
2024-08-19 06:40:47			0	36119	0	0	0	29431	28040	162541	27098	1075087	46598	110946	0	0	8001	615933	0	0
2024-08-19 06:41:47			0	36109	0	0	0	29428	28050	162609	26935	1075088	46578	110945	0	0	8001	616315	0	0
2024-08-19 06:42:47			0	36119	0	0	0	29431	28040	162625	27046	1075033	46598	110946	0	0	8001	615933	0	0
2024-08-19 06:43:47			0	36104	0	0	0	29428	28040	162745	27272	1075016	46586	110945	0	0	8000	616560	0	0
2024-08-19 06:44:47			0	36118	0	0	0	29425	28040	162705	27055	1075007	46598	110944	0	0	8001	615975	0	0
2024-08-19 06:45:47			0	36109	0	0	0	29425	28040	162629	27111	1075043	46609	110944	0	0	8001	616351	0	0
2024-08-19 06:46:47			0	36093	0	0	0	29431	28020	162649	27140	1075006	46584	110946	0	0	8000	617091	0	0
2024-08-19 06:47:47			0	36091	0	0	0	29418	28030	162689	27208	1075015	46597	110941	0	0	8000	617139	0	0
2024-08-19 06:48:47			0	36122	0	0	0	29420	28040	162645	26909	1075007	46586	110942	0	0	8002	615807	0	0
2024-08-19 06:49:47			0	36119	0	0	0	29425	28020	162537	26960	1074979	46595	110944	0	0	8001	616004	0	0
2024-08-19 06:50:47			0	36109	0	0	0	29420	28030	162549	27183	1074961	46585	110942	0	0	8001	616386	0	0
2024-08-19 06:51:47			0	36124	0	0	0	29415	28020	162645	27182	1074979	46584	110940	0	0	8002	615795	0	0
2024-08-19 06:52:47			0	36117	0	0	0	29402	28020	162561	27031	1074925	46595	110935	0	0	8001	616087	0	0
2024-08-19 06:53:47			0	36106	0	0	0	29399	28030	162709	26970	1075015	46597	110934	0	0	8001	616512	0	0
2024-08-19 06:54:47			0	36076	0	0	0	29405	28020	162725	27227	1075006	46584	110936	0	0	7999	617802	0	0
2024-08-19 06:55:47			0	36062	0	0	0	29402	28020	162861	27239	1074952	46595	110935	0	0	7998	618388	0	0
2024-08-19 06:56:47			0	36020	0	0	0	29397	28020	162977	26791	1074943	46595	110933	0	0	7996	620150	0	0
2024-08-19 06:57:47			0	36015	0	0	0	29405	28030	163093	26937	1074998	46598	110936	0	0	7995	620324	0	0
2024-08-19 06:58:47			0	35980	0	0	0	29402	28010	163029	27008	1074880	46607	110935	0	0	7993	621866	0	0
2024-08-19 06:59:47			0	35983	0	0	0	29410	28020	163225	27140	1074952	46584	110938	0	0	7993	621704	0	0
2024-08-19 07:00:47			0	35976	0	0	0	29402	28010	163173	27168	1074934	46595	110935	0	0	7993	622034	0	0
2024-08-19 07:01:47			0	35953	0	0	0	29405	28010	163285	27215	1074880	46595	110936	0	0	7991	623002	0	0
2024-08-19 07:02:47			0	35961	0	0	0	29405	28010	163245	27194	1074961	46595	110936	0	0	7992	622666	0	0
2024-08-19 07:03:47			0	35971	0	0	0	29405	28020	163361	27124	1074952	46607	110936	0	0	7993	622209	0	0
2024-08-19 07:04:47			0	35968	0	0	0	29410	28020	163205	27213	1074943	46607	110938	0	0	7992	622335	0	0
2024-08-19 07:05:47			0	35969	0	0	0	29407	28020	163209	26791	1074943	46595	110937	0	0	7992	622293	0	0
2024-08-19 07:06:47			0	35955	0	0	0	29420	28020	163265	27033	1074889	46595	110942	0	0	7991	622882	0	0
2024-08-19 07:07:47			0	35954	0	0	0	29412	28010	163217	26941	1074934	46595	110939	0	0	7991	622960	0	0
2024-08-19 07:08:47			0	35977	0	0	0	29399	28020	163349	27137	1074916	46607	110934	0	0	7993	621956	0	0
2024-08-19 07:09:47			0	35945	0	0	0	29399	28000	163349	27305	1074889	46593	110934	0	0	7991	623375	0	0
2024-08-19 07:10:47			0	35941	0	0	0	29384	28010	163293	27078	1074925	46594	110928	0	0	7991	623508	0	0
2024-08-19 07:11:47			0	35943	0	0	0	29371	28000	163361	26878	1074862	46593	110923	0	0	7991	623459	0	0
2024-08-19 07:12:47			0	35943	0	0	0	29376	28010	163349	26946	1074826	46584	110925	0	0	7991	623424	0	0
2024-08-19 07:13:47			0	35930	0	0	0	29379	28000	163297	26942	1074862	46593	110926	0	0	7990	624007	0	0
2024-08-19 07:14:47			0	35948	0	0	0	29371	28000	163345	27112	1074862	46583	110923	0	0	7992	623249	0	0
2024-08-19 07:15:47			0	35942	0	0	0	29371	28000	163361	27144	1074799	46583	110923	0	0	7991	623502	0	0
2024-08-19 07:16:47			0	35935	0	0	0	29374	28000	163393	26932	1074862	46593	110924	0	0	7991	623797	0	0
2024-08-19 07:17:47			0	35951	0	0	0	29368	28000	163389	27216	1074826	46605	110922	0	0	7992	623123	0	0
2024-08-19 07:18:47			0	35951	0	0	0	29379	28000	163309	26944	1074772	46583	110926	0	0	7992	623123	0	0
2024-08-19 07:19:47			0	35938	0	0	0	29376	27990	163433	26934	1074754	46592	110925	0	0	7991	623706	0	0
2024-08-19 07:20:47			0	35923	0	0	0	29363	27990	163429	26759	1074763	46592	110920	0	0	7990	624339	0	0
2024-08-19 07:21:47			0	35916	0	0	0	29363	27990	163381	26965	1074754	46582	110920	0	0	7990	624634	0	0
2024-08-19 07:22:47			0	35928	0	0	0	29368	27980	163473	27343	1074745	46591	110922	0	0	7990	624164	0	0
2024-08-19 07:23:47			0	35938	0	0	0	29361	27980	163429	27192	1074763	46580	110919	0	0	7991	623742	0	0
2024-08-19 07:24:47			0	35938	0	0	0	29368	27980	163453	27144	1074799	46591	110922	0	0	7991	623742	0	0
2024-08-19 07:25:47			0	35928	0	0	0	29366	27980	163373	26932	1074709	46580	110921	0	0	7990	624164	0	0
2024-08-19 07:26:47			0	35950	0	0	0	29384	27980	163313	26882	1074772	46581	110928	0	0	7992	623237	0	0
2024-08-19 07:27:47			0	35936	0	0	0	29368	27980	163297	27157	1074772	46581	110922	0	0	7991	623827	0	0
2024-08-19 07:28:47			0	35951	0	0	0	29371	27980	163329	26908	1074736	46590	110923	0	0	7992	623194	0	0
2024-08-19 07:29:47			0	35946	0	0	0	29376	27980	163381	26896	1074709	46580	110925	0	0	7991	623405	0	0
2024-08-19 07:30:47			0	35944	0	0	0	29374	27970	163353	27036	1074745	46569	110924	0	0	7991	623525	0	0
2024-08-19 07:31:47			0	35913	0	0	0	29366	27970	163457	26875	1074718	46590	110921	0	0	7990	624833	0	0
2024-08-19 07:32:47			0	35944	0	0	0	29368	27970	163469	26785	1074745	46580	110922	0	0	7991	623525	0	0
2024-08-19 07:33:47			0	35931	0	0	0	29353	27980	163489	27069	1074628	46590	110916	0	0	7991	624037	0	0
2024-08-19 07:34:47			0	35913	0	0	0	29361	27960	163441	27116	1074736	46579	110919	0	0	7990	624869	0	0
2024-08-19 07:35:47			0	35921	0	0	0	29371	27960	163497	27196	1074682	46579	110923	0	0	7990	624531	0	0
2024-08-19 07:36:47			0	35920	0	0	0	29353	27970	163609	26850	1074664	46569	110916	0	0	7990	624537	0	0
2024-08-19 07:37:47			0	35910	0	0	0	29342	27960	163613	26960	1074655	46590	110912	0	0	7990	624995	0	0
2024-08-19 07:38:47			0	35899	0	0	0	29340	27970	163561	27038	1074664	46590	110911	0	0	7989	625424	0	0
2024-08-19 07:39:47			0	35887	0	0	0	29335	27960	163573	27069	1074628	46579	110909	0	0	7988	625967	0	0
2024-08-19 07:40:47			0	35902	0	0	0	29327	27950	163605	27079	1074664	46567	110906	0	0	7989	625369	0	0
2024-08-19 07:41:47			0	35893	0	0	0	29324	27950	163665	27026	1074610	46588	110905	0	0	7989	625749	0	0
2024-08-19 07:42:47			0	35890	0	0	0	29335	27960	163589	27275	1074592	46578	110909	0	0	7989	625840	0	0
2024-08-19 07:43:47			0	35886	0	0	0	29327	27950	163617	26925	1074601	46588	110906	0	0	7988	626045	0	0
2024-08-19 07:44:47			0	35887	0	0	0	29329	27940	163693	27170	1074592	46577	110907	0	0	7988	626039	0	0
2024-08-19 07:45:47			0	35894	0	0	0	29340	27940	163661	27112	1074538	46587	110911	0	0	7989	625743	0	0
2024-08-19 07:46:47			0	35892	0	0	0	29324	27940	163613	27159	1074538	46587	110905	0	0	7989	625828	0	0
2024-08-19 07:47:47			0	35898	0	0	0	29324	27950	163609	27237	1074601	46578	110905	0	0	7989	625538	0	0
2024-08-19 07:48:47			0	35904	0	0	0	29324	27940	163565	27000	1074529	46586	110905	0	0	7990	625321	0	0
2024-08-19 07:49:47			0	35928	0	0	0	29322	27950	163489	27159	1074574	46588	110904	0	0	7991	624272	0	0
2024-08-19 07:50:47			0	35907	0	0	0	29337	27930	163469	26790	1074574	46576	110910	0	0	7989	625230	0	0
2024-08-19 07:51:47			0	35914	0	0	0	29353	27940	163425	26883	1074646	46587	110916	0	0	7990	624899	0	0
2024-08-19 07:52:47			0	35923	0	0	0	29350	27940	163533	26901	1074538	46587	110915	0	0	7990	624519	0	0
2024-08-19 07:53:47			0	35926	0	0	0	29345	27940	163385	27007	1074619	46577	110913	0	0	7991	624392	0	0
2024-08-19 07:54:47			0	35943	0	0	0	29361	27940	163377	27052	1074646	46587	110919	0	0	7991	623675	0	0
2024-08-19 07:55:47			0	35938	0	0	0	29366	27940	163381	27059	1074592	46587	110921	0	0	7991	623886	0	0
2024-08-19 07:56:47			0	35944	0	0	0	29355	27940	163497	27121	1074565	46587	110917	0	0	7991	623633	0	0
2024-08-19 07:57:47			0	35947	0	0	0	29345	27940	163381	27019	1074619	46577	110913	0	0	7992	623507	0	0
2024-08-19 07:58:47			0	35952	0	0	0	29342	27950	163317	26961	1074610	46578	110912	0	0	7992	623260	0	0
2024-08-19 07:59:47			0	35953	0	0	0	29348	27940	163269	27213	1074619	46577	110914	0	0	7992	623254	0	0
2024-08-19 08:00:47			0	35959	0	0	0	29332	27940	163233	27175	1074592	46587	110908	0	0	7993	623001	0	0
2024-08-19 08:01:47			0	35955	0	0	0	29329	27950	163265	26859	1074547	46588	110907	0	0	7993	623134	0	0
2024-08-19 08:02:47			0	35957	0	0	0	29332	27950	163281	26805	1074601	46588	110908	0	0	7993	623050	0	0
2024-08-19 08:03:47			0	35960	0	0	0	29337	27940	163417	27137	1074610	46586	110910	0	0	7993	622959	0	0
2024-08-19 08:04:47			0	35961	0	0	0	29335	27940	163281	27208	1074529	46598	110909	0	0	7993	622917	0	0
2024-08-19 08:05:47			0	35962	0	0	0	29335	27940	163237	26949	1074529	46586	110909	0	0	7993	622875	0	0
2024-08-19 08:06:47			0	35975	0	0	0	29342	27940	163205	26864	1074565	46587	110912	0	0	7994	622328	0	0
2024-08-19 08:07:47			0	35971	0	0	0	29332	27950	163213	26967	1074574	46588	110908	0	0	7994	622460	0	0
2024-08-19 08:08:47			0	35946	0	0	0	29322	27930	163333	26991	1074547	46576	110904	0	0	7992	623585	0	0
2024-08-19 08:09:47			0	35953	0	0	0	29316	27940	163313	27067	1074529	46598	110902	0	0	7993	623254	0	0
2024-08-19 08:10:47			0	35938	0	0	0	29298	27930	163345	26941	1074466	46576	110895	0	0	7992	623922	0	0
2024-08-19 08:11:47			0	35940	0	0	0	29288	27930	163341	27111	1074466	46565	110891	0	0	7992	623838	0	0
2024-08-19 08:12:47			0	35913	0	0	0	29280	27930	163365	27022	1074403	46565	110888	0	0	7991	624977	0	0
2024-08-19 08:13:47			0	35922	0	0	0	29270	27910	163405	27383	1074403	46583	110884	0	0	7991	624669	0	0
2024-08-19 08:14:47			0	35919	0	0	0	29270	27910	163493	27142	1074394	46562	110884	0	0	7991	624796	0	0
2024-08-19 08:15:47			0	35925	0	0	0	29275	27910	163529	27083	1074349	46583	110886	0	0	7991	624542	0	0
2024-08-19 08:16:47			0	35917	0	0	0	29288	27910	163493	27209	1074340	46573	110891	0	0	7991	624880	0	0
2024-08-19 08:17:47			0	35918	0	0	0	29290	27910	163521	27152	1074340	46583	110892	0	0	7991	624838	0	0
2024-08-19 08:18:47			0	35917	0	0	0	29277	27910	163449	27034	1074340	46583	110887	0	0	7991	624880	0	0
2024-08-19 08:19:47			0	35931	0	0	0	29283	27900	163465	27119	1074295	46572	110889	0	0	7992	624325	0	0
2024-08-19 08:20:47			0	35932	0	0	0	29293	27910	163393	26795	1074313	46583	110893	0	0	7992	624247	0	0
2024-08-19 08:21:47			0	35947	0	0	0	29288	27900	163461	27114	1074295	46583	110891	0	0	7993	623651	0	0
2024-08-19 08:22:47			0	35954	0	0	0	29283	27900	163429	26991	1074349	46561	110889	0	0	7993	623356	0	0
2024-08-19 08:23:47			0	35945	0	0	0	29298	27890	163301	26755	1074277	46582	110895	0	0	7992	623771	0	0
2024-08-19 08:24:47			0	35974	0	0	0	29306	27900	163373	26902	1074376	46583	110898	0	0	7994	622513	0	0
2024-08-19 08:25:47			0	35977	0	0	0	29301	27900	163317	26949	1074385	46583	110896	0	0	7994	622387	0	0
2024-08-19 08:26:47			0	35972	0	0	0	29301	27890	163309	26726	1074313	46593	110896	0	0	7994	622633	0	0
2024-08-19 08:27:47			0	35991	0	0	0	29303	27900	163357	26637	1074376	46583	110897	0	0	7995	621798	0	0
2024-08-19 08:28:47			0	35994	0	0	0	29303	27900	163273	27069	1074412	46573	110897	0	0	7995	621672	0	0
2024-08-19 08:29:47			0	36010	0	0	0	29309	27900	163205	27012	1074376	46583	110899	0	0	7996	620999	0	0
2024-08-19 08:30:47			0	36009	0	0	0	29309	27900	163157	26934	1074385	46583	110899	0	0	7996	621041	0	0
2024-08-19 08:31:47			0	36005	0	0	0	29306	27910	163193	26930	1074367	46583	110898	0	0	7996	621173	0	0
2024-08-19 08:32:47			0	36020	0	0	0	29319	27900	163105	27138	1074439	46573	110903	0	0	7996	620579	0	0
2024-08-19 08:33:47			0	36042	0	0	0	29319	27910	163081	27124	1074421	46573	110903	0	0	7998	619620	0	0
2024-08-19 08:34:47			0	36047	0	0	0	29311	27910	163021	26920	1074322	46583	110900	0	0	7998	619410	0	0
2024-08-19 08:35:47			0	36065	0	0	0	29319	27910	162985	26925	1074430	46583	110903	0	0	7999	618655	0	0
2024-08-19 08:36:47			0	36059	0	0	0	29306	27900	162841	26996	1074331	46573	110898	0	0	7999	618942	0	0
2024-08-19 08:37:47			0	36077	0	0	0	29309	27900	162797	26968	1074385	46583	110899	0	0	8000	618188	0	0
2024-08-19 08:38:47			0	36092	0	0	0	29309	27910	162801	27201	1074448	46583	110899	0	0	8001	617524	0	0
2024-08-19 08:39:47			0	36089	0	0	0	29303	27910	162765	26575	1074322	46583	110897	0	0	8001	617650	0	0
2024-08-19 08:40:47			0	36105	0	0	0	29290	27900	162769	27111	1074385	46573	110892	0	0	8002	617016	0	0
2024-08-19 08:41:47			0	36110	0	0	0	29288	27910	162705	26828	1074313	46573	110891	0	0	8002	616771	0	0
2024-08-19 08:42:47			0	36096	0	0	0	29288	27890	162769	26996	1074286	46571	110891	0	0	8002	617428	0	0
2024-08-19 08:43:47			0	36103	0	0	0	29283	27900	162841	26767	1074322	46583	110889	0	0	8002	617100	0	0
2024-08-19 08:44:47			0	36107	0	0	0	29296	27890	162709	27159	1074313	46582	110894	0	0	8002	616968	0	0
2024-08-19 08:45:47			0	36102	0	0	0	29288	27890	162669	27064	1074259	46560	110891	0	0	8002	617177	0	0
2024-08-19 08:46:47			0	36109	0	0	0	29296	27900	162665	27098	1074322	46583	110894	0	0	8002	616848	0	0
2024-08-19 08:47:47			0	36114	0	0	0	29311	27890	162713	27003	1074394	46582	110900	0	0	8002	616675	0	0
2024-08-19 08:48:47			0	36118	0	0	0	29303	27900	162761	27100	1074403	46583	110897	0	0	8003	616472	0	0
2024-08-19 08:49:47			0	36135	0	0	0	29303	27900	162605	27031	1074331	46595	110897	0	0	8004	615762	0	0
2024-08-19 08:50:47			0	36111	0	0	0	29303	27900	162733	27024	1074385	46573	110897	0	0	8002	616765	0	0
2024-08-19 08:51:47			0	36126	0	0	0	29303	27900	162593	27076	1074403	46583	110897	0	0	8003	616138	0	0
2024-08-19 08:52:47			0	36115	0	0	0	29324	27900	162745	26918	1074385	46595	110905	0	0	8002	616598	0	0
2024-08-19 08:53:47			0	36123	0	0	0	29324	27910	162785	26908	1074421	46573	110905	0	0	8003	616228	0	0
2024-08-19 08:54:47			0	36114	0	0	0	29314	27890	162729	26856	1074448	46582	110901	0	0	8002	616675	0	0
2024-08-19 08:55:47			0	36115	0	0	0	29314	27910	162781	26870	1074538	46595	110901	0	0	8002	616562	0	0
2024-08-19 08:56:47			0	36120	0	0	0	29319	27900	162757	26965	1074412	46583	110903	0	0	8002	616389	0	0
2024-08-19 08:57:47			0	36110	0	0	0	29322	27910	162725	26996	1074403	46573	110904	0	0	8002	616771	0	0
2024-08-19 08:58:47			0	36101	0	0	0	29322	27910	162733	26746	1074448	46583	110904	0	0	8001	617148	0	0
2024-08-19 08:59:47			0	36106	0	0	0	29319	27910	162773	26795	1074475	46583	110903	0	0	8002	616938	0	0
2024-08-19 09:00:47			0	36105	0	0	0	29335	27910	162745	27001	1074475	46583	110909	0	0	8001	616980	0	0
2024-08-19 09:01:47			0	36110	0	0	0	29342	27920	162721	27036	1074439	46584	110912	0	0	8002	616735	0	0
2024-08-19 09:02:47			0	36128	0	0	0	29355	27920	162725	26894	1074556	46597	110917	0	0	8002	615983	0	0
2024-08-19 09:03:47			0	36132	0	0	0	29368	27920	162729	26833	1074610	46575	110922	0	0	8002	615816	0	0
2024-08-19 09:04:47			0	36111	0	0	0	29376	27920	162669	26909	1074583	46585	110925	0	0	8001	616694	0	0
2024-08-19 09:05:47			0	36113	0	0	0	29363	27930	162701	26526	1074628	46598	110920	0	0	8001	616575	0	0
2024-08-19 09:06:47			0	36115	0	0	0	29348	27930	162613	27048	1074628	46598	110914	0	0	8002	616491	0	0
2024-08-19 09:07:47			0	36128	0	0	0	29348	27940	162657	27026	1074673	46587	110914	0	0	8003	615912	0	0
2024-08-19 09:08:47			0	36118	0	0	0	29358	27940	162641	26760	1074583	46598	110918	0	0	8002	616330	0	0
2024-08-19 09:09:47			0	36129	0	0	0	29353	27940	162585	26977	1074583	46586	110916	0	0	8003	615870	0	0
2024-08-19 09:10:47			0	36142	0	0	0	29350	27940	162681	26750	1074646	46599	110915	0	0	8003	615327	0	0
2024-08-19 09:11:47			0	36154	0	0	0	29361	27940	162613	26715	1074610	46576	110919	0	0	8004	614827	0	0
2024-08-19 09:12:47			0	36146	0	0	0	29350	27940	162613	26873	1074637	46586	110915	0	0	8004	615161	0	0
2024-08-19 09:13:47			0	36126	0	0	0	29358	27950	162577	26963	1074655	46567	110918	0	0	8002	615960	0	0
2024-08-19 09:14:47			0	36146	0	0	0	29366	27950	162505	26752	1074628	46578	110921	0	0	8003	615125	0	0
2024-08-19 09:15:47			0	36145	0	0	0	29371	27940	162509	26745	1074619	46599	110923	0	0	8003	615202	0	0
2024-08-19 09:16:47			0	36155	0	0	0	29371	27940	162489	26844	1074646	46587	110923	0	0	8004	614785	0	0
2024-08-19 09:17:47			0	36169	0	0	0	29368	27950	162533	26745	1074691	46578	110922	0	0	8005	614166	0	0
2024-08-19 09:18:47			0	36157	0	0	0	29363	27950	162605	26700	1074655	46578	110920	0	0	8004	614666	0	0
2024-08-19 09:19:47			0	36160	0	0	0	29353	27960	162433	26882	1074646	46588	110916	0	0	8005	614505	0	0
2024-08-19 09:20:47			0	36174	0	0	0	29342	27950	162385	26923	1074655	46600	110912	0	0	8006	613957	0	0
2024-08-19 09:21:47			0	36208	0	0	0	29314	27950	162341	27000	1074601	46588	110901	0	0	8008	612541	0	0
2024-08-19 09:22:47			0	36213	0	0	0	29270	27950	162269	27137	1074601	46578	110884	0	0	8009	612333	0	0
2024-08-19 09:23:47			0	36218	0	0	0	29285	27940	162209	26745	1074565	46587	110890	0	0	8009	612160	0	0
2024-08-19 09:24:47			0	36225	0	0	0	29296	27940	162145	26958	1074538	46587	110894	0	0	8009	611869	0	0
2024-08-19 09:25:47			0	36225	0	0	0	29319	27940	162209	27008	1074592	46577	110903	0	0	8009	611869	0	0
2024-08-19 09:26:47			0	36229	0	0	0	29340	27930	162133	27060	1074574	46576	110911	0	0	8009	611738	0	0
2024-08-19 09:27:47			0	36245	0	0	0	29340	27940	162205	27379	1074592	46577	110911	0	0	8010	611038	0	0
2024-08-19 09:28:47			0	36239	0	0	0	29355	27950	162121	27033	1074655	46578	110917	0	0	8009	611252	0	0
2024-08-19 09:29:47			0	36250	0	0	0	29342	27950	162041	26878	1074655	46600	110912	0	0	8010	610795	0	0
2024-08-19 09:30:47			0	36259	0	0	0	29345	27940	162005	27039	1074583	46586	110913	0	0	8011	610456	0	0
2024-08-19 09:31:47			0	36260	0	0	0	29335	27940	162029	27105	1074592	46587	110909	0	0	8011	610415	0	0
2024-08-19 09:32:47			0	36282	0	0	0	29348	27940	162061	26750	1074556	46586	110914	0	0	8012	609502	0	0
2024-08-19 09:33:47			0	36284	0	0	0	29340	27940	162065	26698	1074592	46587	110911	0	0	8012	609419	0	0
2024-08-19 09:34:47			0	36283	0	0	0	29350	27940	161965	27010	1074610	46576	110915	0	0	8012	609460	0	0
2024-08-19 09:35:47			0	36291	0	0	0	29355	27940	162029	26949	1074592	46599	110917	0	0	8012	609129	0	0
2024-08-19 09:36:47			0	36283	0	0	0	29350	27950	162029	26915	1074628	46588	110915	0	0	8012	609425	0	0
2024-08-19 09:37:47			0	36293	0	0	0	29353	27940	161945	27062	1074610	46598	110916	0	0	8012	609046	0	0
2024-08-19 09:38:47			0	36312	0	0	0	29363	27940	162021	26734	1074664	46586	110920	0	0	8013	608259	0	0
2024-08-19 09:39:47			0	36316	0	0	0	29358	27950	162093	26807	1074628	46578	110918	0	0	8014	608058	0	0
2024-08-19 09:40:47			0	36325	0	0	0	29355	27940	161921	26628	1074673	46587	110917	0	0	8014	607720	0	0
2024-08-19 09:41:47			0	36329	0	0	0	29361	27950	161897	26460	1074655	46588	110919	0	0	8015	607520	0	0
2024-08-19 09:42:47			0	36336	0	0	0	29350	27950	161953	26989	1074637	46588	110915	0	0	8015	607230	0	0
2024-08-19 09:43:47			0	36335	0	0	0	29342	27950	161857	27071	1074628	46578	110912	0	0	8015	607272	0	0
2024-08-19 09:44:47			0	36337	0	0	0	29340	27950	161813	27046	1074655	46588	110911	0	0	8015	607189	0	0
2024-08-19 09:45:47			0	36339	0	0	0	29348	27950	161809	26670	1074628	46588	110914	0	0	8015	607106	0	0
2024-08-19 09:46:47			0	36337	0	0	0	29345	27940	161873	27287	1074646	46599	110913	0	0	8015	607224	0	0
2024-08-19 09:47:47			0	36336	0	0	0	29345	27940	161873	27052	1074610	46576	110913	0	0	8015	607265	0	0
2024-08-19 09:48:47			0	36365	0	0	0	29335	27940	161737	26965	1074664	46576	110909	0	0	8017	606066	0	0
2024-08-19 09:49:47			0	36346	0	0	0	29327	27940	161817	27074	1074592	46577	110906	0	0	8016	606852	0	0
2024-08-19 09:50:47			0	36342	0	0	0	29277	27940	161845	27168	1074592	46587	110887	0	0	8017	607017	0	0
2024-08-19 09:51:47			0	36359	0	0	0	29285	27940	161737	26956	1074592	46577	110890	0	0	8018	606314	0	0
2024-08-19 09:52:47			0	36383	0	0	0	29205	27940	161781	27072	1074529	46565	110859	0	0	8020	605323	0	0
2024-08-19 09:53:47			0	36410	0	0	0	29077	27930	161693	26937	1074439	46576	110810	0	0	8024	604244	0	0
2024-08-19 09:54:47			0	36404	0	0	0	28864	27910	161453	27105	1073945	46529	110728	0	0	8027	604562	0	0
2024-08-19 09:55:47			0	36445	0	0	0	28690	27870	161185	27126	1073514	46480	110661	0	0	8032	603011	0	0
2024-08-19 09:56:47			0	36475	0	0	0	28683	27820	161089	27097	1073217	46442	110658	0	0	8034	601951	0	0
2024-08-19 09:57:47			0	36498	0	0	0	28698	27760	161057	27355	1073010	46469	110664	0	0	8035	601213	0	0
2024-08-19 09:58:47			0	36505	0	0	0	28659	27730	161017	27111	1072839	46456	110649	0	0	8036	601029	0	0
2024-08-19 09:59:47			0	36524	0	0	0	28916	27700	161097	26802	1072973	46506	110748	0	0	8032	600353	0	0
2024-08-19 10:00:47			0	36515	0	0	0	29176	27700	161261	26942	1073359	46552	110848	0	0	8028	600722	0	0
2024-08-19 10:01:47			0	36517	0	0	0	29210	27720	161353	27003	1073611	46610	110861	0	0	8027	600571	0	0
2024-08-19 10:02:47			0	36515	0	0	0	29241	27750	161317	27074	1073746	46590	110873	0	0	8027	600549	0	0
2024-08-19 10:03:47			0	36517	0	0	0	29207	27770	161297	27261	1073880	46582	110860	0	0	8027	600398	0	0
2024-08-19 10:04:47			0	36511	0	0	0	29220	27770	161205	26996	1073916	46592	110865	0	0	8027	600644	0	0
2024-08-19 10:05:47			0	36515	0	0	0	29238	27790	161277	26944	1073890	46572	110872	0	0	8027	600411	0	0
2024-08-19 10:06:47			0	36516	0	0	0	29251	27810	161285	26923	1074052	46584	110877	0	0	8027	600301	0	0
2024-08-19 10:07:47			0	36519	0	0	0	29181	27810	161277	27218	1074025	46562	110850	0	0	8028	600178	0	0
2024-08-19 10:08:47			0	36503	0	0	0	29098	27810	161229	27128	1074034	46574	110818	0	0	8029	600835	0	0
2024-08-19 10:09:47			0	36506	0	0	0	29181	27830	161141	27036	1074016	46587	110850	0	0	8028	600642	0	0
2024-08-19 10:10:47			0	36507	0	0	0	29275	27830	161153	27192	1074088	46575	110886	0	0	8026	600601	0	0
2024-08-19 10:11:47			0	36497	0	0	0	29309	27830	161233	26927	1074142	46586	110899	0	0	8025	601012	0	0
2024-08-19 10:12:47			0	36494	0	0	0	29262	27850	161185	27012	1074232	46577	110881	0	0	8026	601066	0	0
2024-08-19 10:13:47			0	36486	0	0	0	29225	27860	161309	26934	1074223	46601	110867	0	0	8026	601360	0	0
2024-08-19 10:14:47			0	36491	0	0	0	29283	27860	161261	26899	1074259	46580	110889	0	0	8025	601154	0	0
2024-08-19 10:15:47			0	36482	0	0	0	29314	27870	161165	26864	1074214	46580	110901	0	0	8024	601490	0	0
2024-08-19 10:16:47			0	36475	0	0	0	29309	27870	161309	27008	1074331	46591	110899	0	0	8024	601777	0	0
2024-08-19 10:17:47			0	36481	0	0	0	29301	27880	161229	26993	1074420	46581	110896	0	0	8024	601496	0	0
2024-08-19 10:18:47			0	36474	0	0	0	29335	27880	161173	27031	1074393	46581	110909	0	0	8023	601784	0	0
2024-08-19 10:19:47			0	36458	0	0	0	29345	27890	161209	26821	1074439	46604	110913	0	0	8022	602407	0	0
2024-08-19 10:20:47			0	36469	0	0	0	29345	27890	161289	26918	1074448	46571	110913	0	0	8023	601954	0	0
2024-08-19 10:21:47			0	36475	0	0	0	29345	27900	161253	27043	1074519	46595	110913	0	0	8023	601673	0	0
2024-08-19 10:22:47			0	36459	0	0	0	29340	27900	161229	27327	1074493	46573	110911	0	0	8022	602331	0	0
2024-08-19 10:23:47			0	36476	0	0	0	29337	27900	161117	26987	1074519	46583	110910	0	0	8023	601632	0	0
2024-08-19 10:24:47			0	36494	0	0	0	29329	27910	161093	26975	1074502	46583	110907	0	0	8025	600858	0	0
2024-08-19 10:25:47			0	36510	0	0	0	29350	27910	161133	27083	1074592	46573	110915	0	0	8025	600201	0	0
2024-08-19 10:26:47			0	36526	0	0	0	29350	27920	161017	27163	1074547	46584	110915	0	0	8026	599510	0	0
2024-08-19 10:27:47			0	36519	0	0	0	29348	27920	161021	27218	1074556	46585	110914	0	0	8026	599797	0	0
2024-08-19 10:28:47			0	36503	0	0	0	29358	27920	160929	26961	1074610	46585	110918	0	0	8025	600454	0	0
2024-08-19 10:29:47			0	36509	0	0	0	29355	27920	160977	27135	1074610	46575	110917	0	0	8025	600208	0	0
2024-08-19 10:30:47			0	36518	0	0	0	29348	27920	161137	26785	1074547	46574	110914	0	0	8026	599838	0	0
2024-08-19 10:31:47			0	36524	0	0	0	29340	27930	160921	27296	1074538	46586	110911	0	0	8026	599558	0	0
2024-08-19 10:32:47			0	36542	0	0	0	29353	27930	160917	27294	1074601	46586	110916	0	0	8027	598820	0	0
2024-08-19 10:33:47			0	36532	0	0	0	29350	27930	160881	27166	1074601	46576	110915	0	0	8027	599230	0	0
2024-08-19 10:34:47			0	36544	0	0	0	29348	27940	160697	27142	1074664	46586	110914	0	0	8028	598704	0	0
2024-08-19 10:35:47			0	36573	0	0	0	29345	27930	160897	26842	1074574	46576	110913	0	0	8029	597551	0	0
2024-08-19 10:36:47			0	36561	0	0	0	29337	27940	160749	27249	1074637	46586	110910	0	0	8029	598007	0	0
2024-08-19 10:37:47			0	36556	0	0	0	29345	27930	160789	27114	1074619	46576	110913	0	0	8028	598247	0	0
2024-08-19 10:38:47			0	36555	0	0	0	29342	27940	160753	27324	1074583	46586	110912	0	0	8028	598253	0	0
2024-08-19 10:39:47			0	36576	0	0	0	29329	27930	160749	27370	1074655	46576	110907	0	0	8030	597428	0	0
2024-08-19 10:40:47			0	36557	0	0	0	29345	27920	160793	27315	1074583	46585	110913	0	0	8028	598240	0	0
2024-08-19 10:41:47			0	36561	0	0	0	29345	27940	160689	27147	1074610	46576	110913	0	0	8029	598007	0	0
2024-08-19 10:42:47			0	36569	0	0	0	29348	27930	160593	27358	1074655	46586	110914	0	0	8029	597715	0	0
2024-08-19 10:43:47			0	36545	0	0	0	29342	27940	160761	27135	1074610	46576	110912	0	0	8028	598663	0	0
2024-08-19 10:44:47			0	36549	0	0	0	29345	27930	160785	27298	1074574	46586	110913	0	0	8028	598533	0	0
2024-08-19 10:45:47			0	36560	0	0	0	29345	27930	160821	26951	1074655	46576	110913	0	0	8028	598083	0	0
2024-08-19 10:46:47			0	36545	0	0	0	29348	27940	160765	27156	1074646	46577	110914	0	0	8028	598663	0	0
2024-08-19 10:47:47			0	36551	0	0	0	29348	27940	160845	27078	1074673	46587	110914	0	0	8028	598417	0	0
2024-08-19 10:48:47			0	36555	0	0	0	29337	27940	160905	27192	1074583	46576	110910	0	0	8028	598253	0	0
2024-08-19 10:49:47			0	36563	0	0	0	29348	27940	160793	27071	1074619	46577	110914	0	0	8029	597926	0	0
2024-08-19 10:50:47			0	36562	0	0	0	29345	27930	160769	27022	1074628	46586	110913	0	0	8029	598001	0	0
2024-08-19 10:51:47			0	36551	0	0	0	29358	27940	160889	27111	1074583	46598	110918	0	0	8028	598417	0	0
2024-08-19 10:52:47			0	36569	0	0	0	29371	27940	160773	27093	1074610	46598	110923	0	0	8029	597680	0	0
2024-08-19 10:53:47			0	36563	0	0	0	29358	27950	160813	27124	1074655	46588	110918	0	0	8029	597891	0	0
2024-08-19 10:54:47			0	36586	0	0	0	29358	27940	160825	27216	1074700	46587	110918	0	0	8030	596985	0	0
2024-08-19 10:55:47			0	36549	0	0	0	29361	27950	160781	27133	1074718	46588	110919	0	0	8028	598464	0	0
2024-08-19 10:56:47			0	36569	0	0	0	29374	27940	160777	26987	1074727	46577	110924	0	0	8029	597680	0	0
2024-08-19 10:57:47			0	36567	0	0	0	29381	27950	160733	27046	1074763	46600	110927	0	0	8028	597727	0	0
2024-08-19 10:58:47			0	36563	0	0	0	29407	27960	160813	26972	1074844	46579	110937	0	0	8028	597857	0	0
2024-08-19 10:59:47			0	36562	0	0	0	29394	27970	160689	27112	1074826	46613	110932	0	0	8028	597863	0	0
2024-08-19 11:00:47			0	36546	0	0	0	29402	27960	160785	27324	1074844	46590	110935	0	0	8027	598552	0	0
2024-08-19 11:01:47			0	36576	0	0	0	29407	27980	160837	27306	1074898	46602	110937	0	0	8029	597256	0	0
2024-08-19 11:02:47			0	36563	0	0	0	29423	27960	160717	26863	1074871	46601	110943	0	0	8027	597857	0	0
2024-08-19 11:03:47			0	36564	0	0	0	29425	27980	160841	26845	1074961	46603	110944	0	0	8028	597747	0	0
2024-08-19 11:04:47			0	36550	0	0	0	29431	28000	160861	27171	1074988	46605	110946	0	0	8027	598251	0	0
2024-08-19 11:05:47			0	36545	0	0	0	29438	27990	160857	26852	1074979	46592	110949	0	0	8026	598490	0	0
2024-08-19 11:06:47			0	36531	0	0	0	29436	28000	160873	27060	1074988	46593	110948	0	0	8026	599029	0	0
2024-08-19 11:07:47			0	36546	0	0	0	29438	28000	160789	27033	1074970	46593	110949	0	0	8026	598414	0	0
2024-08-19 11:08:47			0	36549	0	0	0	29428	28010	160821	27071	1075060	46594	110945	0	0	8027	598257	0	0
2024-08-19 11:09:47			0	36545	0	0	0	29431	28010	160861	26961	1075033	46594	110946	0	0	8027	598421	0	0
2024-08-19 11:10:47			0	36546	0	0	0	29436	28010	160837	27147	1075069	46584	110948	0	0	8027	598380	0	0
2024-08-19 11:11:47			0	36562	0	0	0	29428	28020	160797	27287	1075078	46584	110945	0	0	8028	597691	0	0
2024-08-19 11:12:47			0	36531	0	0	0	29431	28020	160765	27170	1075024	46595	110946	0	0	8026	598960	0	0
2024-08-19 11:13:47			0	36539	0	0	0	29418	28020	160837	26956	1075078	46595	110941	0	0	8026	598632	0	0
2024-08-19 11:14:47			0	36540	0	0	0	29420	28020	160801	27225	1075006	46584	110942	0	0	8026	598591	0	0
2024-08-19 11:15:47			0	36535	0	0	0	29418	28020	160821	26844	1075051	46595	110941	0	0	8026	598796	0	0
2024-08-19 11:16:47			0	36519	0	0	0	29420	28030	160669	26930	1075069	46585	110942	0	0	8025	599417	0	0
2024-08-19 11:17:47			0	36547	0	0	0	29415	28020	160805	27048	1075087	46574	110940	0	0	8027	598304	0	0
2024-08-19 11:18:47			0	36530	0	0	0	29405	28020	160865	27308	1075033	46595	110936	0	0	8026	599001	0	0
2024-08-19 11:19:47			0	36566	0	0	0	29420	28010	160865	26859	1074961	46584	110942	0	0	8028	597561	0	0
2024-08-19 11:20:47			0	36548	0	0	0	29415	28030	160845	27180	1075123	46585	110940	0	0	8027	598229	0	0
2024-08-19 11:21:47			0	36534	0	0	0	29425	28020	160817	27105	1075024	46607	110944	0	0	8026	598837	0	0
2024-08-19 11:22:47			0	36533	0	0	0	29420	28020	160873	27473	1075087	46595	110942	0	0	8026	598878	0	0
2024-08-19 11:23:47			0	36523	0	0	0	29425	28020	160873	27086	1075078	46595	110944	0	0	8025	599288	0	0
2024-08-19 11:24:47			0	36536	0	0	0	29423	28020	160985	27010	1075078	46584	110943	0	0	8026	598755	0	0
2024-08-19 11:25:47			0	36510	0	0	0	29438	28020	160789	26949	1075114	46584	110949	0	0	8024	599820	0	0
2024-08-19 11:26:47			0	36516	0	0	0	29420	28030	160805	26628	1075042	46597	110942	0	0	8025	599540	0	0
2024-08-19 11:27:47			0	36537	0	0	0	29425	28020	160765	27065	1075087	46595	110944	0	0	8026	598714	0	0
2024-08-19 11:28:47			0	36532	0	0	0	29433	28030	160793	26826	1075150	46585	110947	0	0	8026	598884	0	0
2024-08-19 11:29:47			0	36532	0	0	0	29438	28020	160745	26856	1075114	46584	110949	0	0	8026	598919	0	0
2024-08-19 11:30:47			0	36522	0	0	0	29433	28020	160781	26828	1075060	46584	110947	0	0	8025	599328	0	0
2024-08-19 11:31:47			0	36535	0	0	0	29431	28020	160765	27229	1075060	46584	110946	0	0	8026	598796	0	0
2024-08-19 11:32:47			0	36544	0	0	0	29433	28020	160697	27093	1075033	46584	110947	0	0	8026	598427	0	0
2024-08-19 11:33:47			0	36547	0	0	0	29428	28020	160701	26876	1075051	46595	110945	0	0	8027	598304	0	0
2024-08-19 11:34:47			0	36545	0	0	0	29423	28030	160745	26679	1075096	46585	110943	0	0	8027	598352	0	0
2024-08-19 11:35:47			0	36551	0	0	0	29433	28010	160725	27228	1075042	46574	110947	0	0	8027	598175	0	0
2024-08-19 11:36:47			0	36542	0	0	0	29431	28020	160713	26970	1075114	46595	110946	0	0	8026	598509	0	0
2024-08-19 11:37:47			0	36560	0	0	0	29438	28030	160641	27111	1075123	46585	110949	0	0	8027	597738	0	0
2024-08-19 11:38:47			0	36565	0	0	0	29436	28040	160649	26982	1075195	46598	110948	0	0	8028	597499	0	0
2024-08-19 11:39:47			0	36547	0	0	0	29433	28030	160605	27041	1075132	46598	110947	0	0	8027	598270	0	0
2024-08-19 11:40:47			0	36576	0	0	0	29444	28020	160613	27275	1075060	46595	110951	0	0	8028	597118	0	0
2024-08-19 11:41:47			0	36549	0	0	0	29444	28030	160645	26868	1075132	46598	110951	0	0	8027	598188	0	0
2024-08-19 11:42:47			0	36552	0	0	0	29441	28040	160641	27135	1075195	46598	110950	0	0	8027	598031	0	0
2024-08-19 11:43:47			0	36566	0	0	0	29449	28040	160661	26616	1075168	46598	110953	0	0	8028	597458	0	0
2024-08-19 11:44:47			0	36577	0	0	0	29446	28040	160669	26982	1075204	46586	110952	0	0	8028	597008	0	0
2024-08-19 11:45:47			0	36570	0	0	0	29451	28050	160685	26854	1075186	46598	110954	0	0	8028	597260	0	0
2024-08-19 11:46:47			0	36569	0	0	0	29446	28040	160617	27098	1075204	46586	110952	0	0	8028	597335	0	0
2024-08-19 11:47:47			0	36567	0	0	0	29459	28040	160645	27034	1075231	46586	110957	0	0	8028	597417	0	0
2024-08-19 11:48:47			0	36577	0	0	0	29457	28040	160645	27046	1075204	46598	110956	0	0	8028	597008	0	0
2024-08-19 11:49:47			0	36577	0	0	0	29451	28040	160737	26653	1075231	46598	110954	0	0	8028	597008	0	0
2024-08-19 11:50:47			0	36580	0	0	0	29449	28040	160597	27043	1075204	46586	110953	0	0	8028	596886	0	0
2024-08-19 11:51:47			0	36582	0	0	0	29446	28040	160685	26994	1075222	46598	110952	0	0	8029	596804	0	0
2024-08-19 11:52:47			0	36566	0	0	0	29441	28040	160657	26863	1075141	46598	110950	0	0	8028	597458	0	0
2024-08-19 11:53:47			0	36580	0	0	0	29446	28040	160705	26831	1075258	46586	110952	0	0	8029	596886	0	0
2024-08-19 11:54:47			0	36592	0	0	0	29438	28050	160653	26915	1075213	46587	110949	0	0	8029	596361	0	0
2024-08-19 11:55:47			0	36585	0	0	0	29449	28050	160617	26901	1075240	46587	110953	0	0	8029	596647	0	0
2024-08-19 11:56:47			0	36593	0	0	0	29433	28050	160585	26677	1075213	46598	110947	0	0	8030	596320	0	0
2024-08-19 11:57:47			0	36596	0	0	0	29441	28050	160533	26706	1075240	46598	110950	0	0	8030	596198	0	0
2024-08-19 11:58:47			0	36592	0	0	0	29438	28040	160517	27176	1075204	46609	110949	0	0	8029	596395	0	0
2024-08-19 11:59:47			0	36580	0	0	0	29444	28050	160637	27199	1075186	46587	110951	0	0	8029	596851	0	0
2024-08-19 12:00:47			0	36586	0	0	0	29444	28040	160677	27013	1075204	46598	110951	0	0	8029	596641	0	0
2024-08-19 12:01:47			0	36587	0	0	0	29441	28040	160610	26994	1075222	46598	110950	0	0	8029	596600	0	0
2024-08-19 12:02:47			0	36588	0	0	0	29438	28040	160513	27066	1075204	46586	110949	0	0	8029	596559	0	0
2024-08-19 12:03:47			0	36583	0	0	0	29444	28040	160525	27034	1075141	46598	110951	0	0	8029	596763	0	0
2024-08-19 12:04:47			0	36585	0	0	0	29438	28040	160381	26934	1075204	46586	110949	0	0	8029	596682	0	0
2024-08-19 12:05:47			0	36588	0	0	0	29457	28050	160525	26970	1075222	46599	110956	0	0	8029	596524	0	0
2024-08-19 12:06:47			0	36583	0	0	0	29451	28050	160505	26972	1075222	46588	110954	0	0	8029	596729	0	0
2024-08-19 12:07:47			0	36598	0	0	0	29441	28030	160462	26934	1075159	46586	110950	0	0	8030	596185	0	0
2024-08-19 12:08:47			0	36584	0	0	0	29449	28040	160634	27107	1075177	46598	110953	0	0	8029	596722	0	0
2024-08-19 12:09:47			0	36592	0	0	0	29459	28050	160373	26996	1075159	46598	110957	0	0	8029	596361	0	0
2024-08-19 12:10:47			0	36604	0	0	0	29462	28050	160394	27046	1075222	46578	110958	0	0	8030	595871	0	0
2024-08-19 12:11:47			0	36578	0	0	0	29457	28050	160365	27305	1075267	46598	110956	0	0	8028	596933	0	0
2024-08-19 12:12:47			0	36618	0	0	0	29457	28050	160326	26922	1075222	46588	110956	0	0	8031	595300	0	0
2024-08-19 12:13:47			0	36621	0	0	0	29462	28050	160302	26937	1075240	46587	110958	0	0	8031	595178	0	0
2024-08-19 12:14:47			0	36635	0	0	0	29459	28050	160350	27173	1075276	46588	110957	0	0	8032	594607	0	0
2024-08-19 12:15:47			0	36636	0	0	0	29467	28060	160274	26816	1075285	46599	110960	0	0	8032	594531	0	0
2024-08-19 12:16:47			0	36645	0	0	0	29464	28060	160258	26946	1075231	46588	110959	0	0	8032	594165	0	0
2024-08-19 12:17:47			0	36649	0	0	0	29462	28050	160258	26663	1075249	46588	110958	0	0	8032	594036	0	0
2024-08-19 12:18:47			0	36638	0	0	0	29467	28050	160226	26686	1075222	46599	110960	0	0	8032	594484	0	0
2024-08-19 12:19:47			0	36652	0	0	0	29462	28050	160282	27013	1075249	46611	110958	0	0	8033	593914	0	0
2024-08-19 12:20:47			0	36647	0	0	0	29457	28050	160174	27263	1075276	46599	110956	0	0	8032	594118	0	0
2024-08-19 12:21:47			0	36657	0	0	0	29462	28050	160186	26972	1075222	46578	110958	0	0	8033	593710	0	0
2024-08-19 12:22:47			0	36644	0	0	0	29428	28050	160210	27173	1075267	46587	110945	0	0	8033	594240	0	0
2024-08-19 12:23:47			0	36642	0	0	0	29428	28050	160162	27026	1075195	46599	110945	0	0	8033	594321	0	0
2024-08-19 12:24:47			0	36658	0	0	0	29420	28050	160086	27128	1075222	46588	110942	0	0	8034	593670	0	0
2024-08-19 12:25:47			0	36657	0	0	0	29428	28050	160194	27206	1075195	46599	110945	0	0	8033	593710	0	0
2024-08-19 12:26:47			0	36655	0	0	0	29433	28050	160206	26880	1075159	46587	110947	0	0	8033	593792	0	0
2024-08-19 12:27:47			0	36645	0	0	0	29438	28050	160166	27157	1075213	46577	110949	0	0	8033	594199	0	0
2024-08-19 12:28:47			0	36648	0	0	0	29438	28040	160130	27069	1075204	46586	110949	0	0	8033	594111	0	0
2024-08-19 12:29:47			0	36649	0	0	0	29438	28040	160166	26899	1075204	46598	110949	0	0	8033	594070	0	0
2024-08-19 12:30:47			0	36655	0	0	0	29446	28040	160154	26981	1075204	46598	110952	0	0	8033	593826	0	0
2024-08-19 12:31:47			0	36667	0	0	0	29457	28040	160206	26961	1075204	46609	110956	0	0	8033	593338	0	0
2024-08-19 12:32:47			0	36653	0	0	0	29451	28050	160146	27067	1075276	46599	110954	0	0	8033	593873	0	0
2024-08-19 12:33:47			0	36650	0	0	0	29451	28050	160134	26706	1075276	46611	110954	0	0	8033	593995	0	0
2024-08-19 12:34:47			0	36667	0	0	0	29459	28050	160142	26743	1075303	46588	110957	0	0	8033	593303	0	0
2024-08-19 12:35:47			0	36657	0	0	0	29449	28050	160158	26729	1075222	46611	110953	0	0	8033	593710	0	0
2024-08-19 12:36:47			0	36663	0	0	0	29449	28040	160086	27133	1075204	46586	110953	0	0	8033	593500	0	0
2024-08-19 12:37:47			0	36656	0	0	0	29457	28040	160142	27206	1075258	46586	110956	0	0	8033	593785	0	0
2024-08-19 12:38:47			0	36683	0	0	0	29454	28050	160138	27227	1075222	46599	110955	0	0	8035	592652	0	0
2024-08-19 12:39:47			0	36678	0	0	0	29444	28050	160138	27050	1075132	46587	110951	0	0	8034	592856	0	0
2024-08-19 12:40:47			0	36668	0	0	0	29446	28060	160118	27177	1075321	46600	110952	0	0	8034	593228	0	0
2024-08-19 12:41:47			0	36668	0	0	0	29451	28050	160110	27045	1075276	46578	110954	0	0	8034	593263	0	0
2024-08-19 12:42:47			0	36667	0	0	0	29449	28040	160046	27345	1075231	46576	110953	0	0	8034	593338	0	0
2024-08-19 12:43:47			0	36666	0	0	0	29446	28050	160030	26771	1075276	46588	110952	0	0	8034	593344	0	0
2024-08-19 12:44:47			0	36663	0	0	0	29444	28050	160146	27114	1075213	46598	110951	0	0	8034	593466	0	0
2024-08-19 12:45:47			0	36666	0	0	0	29451	28050	160174	26890	1075240	46598	110954	0	0	8034	593344	0	0
2024-08-19 12:46:47			0	36664	0	0	0	29446	28040	160158	27130	1075258	46586	110952	0	0	8033	593460	0	0
2024-08-19 12:47:47			0	36660	0	0	0	29449	28050	160186	27180	1075213	46598	110953	0	0	8033	593588	0	0
2024-08-19 12:48:47			0	36668	0	0	0	29454	28050	160222	27147	1075249	46588	110955	0	0	8034	593263	0	0
2024-08-19 12:49:47			0	36672	0	0	0	29449	28060	160058	27168	1075231	46599	110953	0	0	8034	593066	0	0
2024-08-19 12:50:47			0	36648	0	0	0	29451	28040	160198	27038	1075204	46586	110954	0	0	8032	594111	0	0
2024-08-19 12:51:47			0	36669	0	0	0	29446	28040	160138	27201	1075177	46609	110952	0	0	8034	593256	0	0
2024-08-19 12:52:47			0	36657	0	0	0	29446	28050	160190	27085	1075276	46588	110952	0	0	8033	593710	0	0
2024-08-19 12:53:47			0	36653	0	0	0	29449	28050	160118	27012	1075240	46587	110953	0	0	8033	593873	0	0
2024-08-19 12:54:47			0	36672	0	0	0	29449	28050	160062	27133	1075303	46599	110953	0	0	8034	593100	0	0
2024-08-19 12:55:47			0	36677	0	0	0	29457	28060	160066	26866	1075258	46599	110956	0	0	8034	592862	0	0
2024-08-19 12:56:47			0	36671	0	0	0	29446	28050	160062	26916	1075222	46599	110952	0	0	8034	593140	0	0
2024-08-19 12:57:47			0	36682	0	0	0	29446	28050	160114	27232	1075249	46588	110952	0	0	8035	592693	0	0
2024-08-19 12:58:47			0	36667	0	0	0	29441	28060	160046	27017	1075204	46611	110950	0	0	8034	593269	0	0
2024-08-19 12:59:47			0	36676	0	0	0	29436	28060	160026	27282	1075231	46599	110948	0	0	8034	592903	0	0
2024-08-19 13:00:47			0	36692	0	0	0	29446	28050	159962	27112	1075213	46587	110952	0	0	8035	592286	0	0
2024-08-19 13:01:47			0	36689	0	0	0	29446	28040	159962	27045	1075231	46586	110952	0	0	8035	592443	0	0
2024-08-19 13:02:47			0	36684	0	0	0	29441	28050	159950	26883	1075159	46587	110950	0	0	8035	592612	0	0
2024-08-19 13:03:47			0	36669	0	0	0	29420	28050	160154	27024	1075240	46598	110942	0	0	8034	593222	0	0
2024-08-19 13:04:47			0	36682	0	0	0	29431	28040	160094	27248	1075177	46598	110946	0	0	8035	592727	0	0
2024-08-19 13:05:47			0	36678	0	0	0	29438	28050	159958	27154	1075213	46587	110949	0	0	8034	592856	0	0
2024-08-19 13:06:47			0	36670	0	0	0	29444	28050	160022	27244	1075213	46610	110951	0	0	8034	593181	0	0
2024-08-19 13:07:47			0	36672	0	0	0	29436	28050	160090	27156	1075186	46598	110948	0	0	8034	593100	0	0
2024-08-19 13:08:47			0	36667	0	0	0	29428	28050	160014	26946	1075186	46587	110945	0	0	8034	593303	0	0
2024-08-19 13:09:47			0	36691	0	0	0	29415	28040	160038	27239	1075177	46598	110940	0	0	8036	592361	0	0
2024-08-19 13:10:47			0	36681	0	0	0	29423	28040	160034	26901	1075123	46598	110943	0	0	8035	592768	0	0
2024-08-19 13:11:47			0	36685	0	0	0	29412	28020	159982	27034	1075114	46595	110939	0	0	8035	592673	0	0
2024-08-19 13:12:47			0	36687	0	0	0	29418	28020	159970	26908	1075141	46595	110941	0	0	8035	592592	0	0
2024-08-19 13:13:47			0	36698	0	0	0	29405	28020	159982	27079	1075114	46584	110936	0	0	8036	592145	0	0
2024-08-19 13:14:47			0	36690	0	0	0	29415	28030	159874	26920	1075069	46585	110940	0	0	8035	592436	0	0
2024-08-19 13:15:47			0	36706	0	0	0	29412	28030	159850	27104	1075096	46608	110939	0	0	8036	591786	0	0
2024-08-19 13:16:47			0	36707	0	0	0	29410	28020	159878	27046	1075051	46574	110938	0	0	8037	591779	0	0
2024-08-19 13:17:47			0	36698	0	0	0	29412	28030	159818	27131	1075096	46597	110939	0	0	8036	592111	0	0
2024-08-19 13:18:47			0	36712	0	0	0	29407	28020	159886	27098	1075087	46595	110937	0	0	8037	591576	0	0
2024-08-19 13:19:47			0	36723	0	0	0	29410	28020	159866	26941	1075114	46595	110938	0	0	8037	591129	0	0
2024-08-19 13:20:47			0	36732	0	0	0	29399	28010	159778	26951	1075096	46595	110934	0	0	8038	590798	0	0
2024-08-19 13:21:47			0	36727	0	0	0	29405	28020	159770	26835	1075060	46584	110936	0	0	8038	590967	0	0
2024-08-19 13:22:47			0	36734	0	0	0	29410	28020	159806	27102	1075060	46595	110938	0	0	8038	590683	0	0
2024-08-19 13:23:47			0	36713	0	0	0	29412	28020	159774	27310	1075141	46584	110939	0	0	8037	591535	0	0
2024-08-19 13:24:47			0	36734	0	0	0	29412	28020	159858	27039	1075141	46584	110939	0	0	8038	590683	0	0
2024-08-19 13:25:47			0	36746	0	0	0	29418	28030	159810	26918	1075123	46597	110941	0	0	8039	590162	0	0
2024-08-19 13:26:47			0	36732	0	0	0	29412	28020	159746	26857	1075051	46595	110939	0	0	8038	590764	0	0
2024-08-19 13:27:47			0	36752	0	0	0	29418	28020	159786	26712	1075114	46595	110941	0	0	8039	589953	0	0
2024-08-19 13:28:47			0	36750	0	0	0	29412	28020	159702	27064	1075087	46607	110939	0	0	8039	590034	0	0
2024-08-19 13:29:47			0	36752	0	0	0	29418	28020	159754	27147	1075060	46595	110941	0	0	8039	589953	0	0
2024-08-19 13:30:47			0	36744	0	0	0	29415	28020	159730	26870	1075087	46574	110940	0	0	8039	590277	0	0
2024-08-19 13:31:47			0	36754	0	0	0	29423	28020	159666	27154	1075105	46595	110943	0	0	8039	589872	0	0
2024-08-19 13:32:47			0	36751	0	0	0	29420	28020	159666	27098	1075141	46595	110942	0	0	8039	589993	0	0
2024-08-19 13:33:47			0	36741	0	0	0	29436	28020	159750	27312	1075060	46607	110948	0	0	8038	590399	0	0
2024-08-19 13:34:47			0	36754	0	0	0	29431	28030	159726	27088	1075150	46597	110946	0	0	8039	589838	0	0
2024-08-19 13:35:47			0	36763	0	0	0	29431	28020	159610	27118	1075159	46595	110946	0	0	8039	589507	0	0
2024-08-19 13:36:47			0	36740	0	0	0	29433	28030	159662	26842	1075123	46585	110947	0	0	8038	590405	0	0
2024-08-19 13:37:47			0	36748	0	0	0	29441	28030	159670	26935	1075150	46597	110950	0	0	8038	590081	0	0
2024-08-19 13:38:47			0	36743	0	0	0	29436	28030	159766	26850	1075186	46598	110948	0	0	8038	590284	0	0
2024-08-19 13:39:47			0	36752	0	0	0	29436	28030	159694	26955	1075132	46598	110948	0	0	8039	589919	0	0
2024-08-19 13:40:47			0	36743	0	0	0	29436	28020	159730	27168	1075168	46595	110948	0	0	8038	590318	0	0
2024-08-19 13:41:47			0	36747	0	0	0	29428	28030	159774	26913	1075177	46597	110945	0	0	8039	590121	0	0
2024-08-19 13:42:47			0	36742	0	0	0	29433	28030	159722	26927	1075186	46609	110947	0	0	8038	590324	0	0
2024-08-19 13:43:47			0	36750	0	0	0	29428	28030	159618	27196	1075123	46608	110945	0	0	8039	590000	0	0
2024-08-19 13:44:47			0	36752	0	0	0	29425	28030	159654	27124	1075159	46586	110944	0	0	8039	589919	0	0
2024-08-19 13:45:47			0	36737	0	0	0	29418	28030	159674	27026	1075123	46585	110941	0	0	8038	590527	0	0
2024-08-19 13:46:47			0	36766	0	0	0	29418	28020	159714	27274	1075114	46584	110941	0	0	8040	589385	0	0
2024-08-19 13:47:47			0	36768	0	0	0	29418	28020	159706	27308	1075168	46595	110941	0	0	8040	589304	0	0
2024-08-19 13:48:47			0	36763	0	0	0	29412	28020	159622	27242	1075087	46595	110939	0	0	8040	589507	0	0
2024-08-19 13:49:47			0	36758	0	0	0	29420	28020	159698	27150	1075087	46574	110942	0	0	8039	589710	0	0
2024-08-19 13:50:47			0	36770	0	0	0	29410	28020	159602	27253	1075087	46607	110938	0	0	8040	589223	0	0
2024-08-19 13:51:47			0	36766	0	0	0	29418	28020	159574	26785	1075105	46607	110941	0	0	8040	589385	0	0
2024-08-19 13:52:47			0	36755	0	0	0	29410	28020	159654	27161	1075087	46595	110938	0	0	8039	589831	0	0
2024-08-19 13:53:47			0	36769	0	0	0	29425	28010	159718	26889	1075069	46595	110944	0	0	8040	589298	0	0
2024-08-19 13:54:47			0	36772	0	0	0	29402	28010	159598	26951	1075123	46595	110935	0	0	8040	589176	0	0
2024-08-19 13:55:47			0	36771	0	0	0	29379	28020	159586	26994	1075051	46584	110926	0	0	8041	589183	0	0
2024-08-19 13:56:47			0	36777	0	0	0	29371	28010	159602	27154	1074988	46595	110923	0	0	8041	588974	0	0
2024-08-19 13:57:47			0	36774	0	0	0	29374	28010	159610	26899	1075033	46583	110924	0	0	8041	589095	0	0
2024-08-19 13:58:47			0	36746	0	0	0	29371	28010	159698	27088	1075006	46594	110923	0	0	8039	590230	0	0
2024-08-19 13:59:47			0	36783	0	0	0	29371	28010	159570	26901	1075060	46573	110923	0	0	8042	588731	0	0
2024-08-19 14:00:47			0	36758	0	0	0	29340	28000	159614	27012	1074943	46572	110911	0	0	8041	589778	0	0
2024-08-19 14:01:47			0	36768	0	0	0	29306	27990	159562	27055	1074808	46571	110898	0	0	8042	589406	0	0
2024-08-19 14:02:47			0	36785	0	0	0	29298	27990	159602	27159	1074754	46571	110895	0	0	8043	588718	0	0
2024-08-19 14:03:47			0	36785	0	0	0	29275	27980	159566	27306	1074709	46569	110886	0	0	8043	588752	0	0
2024-08-19 14:04:47			0	36765	0	0	0	29272	27960	159658	27424	1074673	46555	110885	0	0	8042	589630	0	0
2024-08-19 14:05:47			0	36784	0	0	0	29246	27940	159678	27020	1074565	46543	110875	0	0	8043	588928	0	0
2024-08-19 14:06:47			0	36783	0	0	0	29236	27940	159674	27029	1074511	46554	110871	0	0	8044	588968	0	0
2024-08-19 14:07:47			0	36798	0	0	0	29194	27930	159614	27053	1074359	46565	110855	0	0	8045	588395	0	0
2024-08-19 14:08:47			0	36791	0	0	0	29158	27910	159562	26975	1074322	46562	110841	0	0	8045	588746	0	0
2024-08-19 14:09:47			0	36799	0	0	0	29122	27910	159578	27038	1074233	46562	110827	0	0	8046	588423	0	0
2024-08-19 14:10:47			0	36795	0	0	0	29090	27890	159610	26661	1074097	46548	110815	0	0	8047	588652	0	0
2024-08-19 14:11:47			0	36805	0	0	0	29046	27870	159574	26807	1073945	46513	110798	0	0	8048	588315	0	0
2024-08-19 14:12:47			0	36791	0	0	0	29018	27850	159674	26897	1073801	46521	110787	0	0	8047	588950	0	0
2024-08-19 14:13:47			0	36792	0	0	0	28986	27820	159438	27142	1073648	46520	110775	0	0	8048	589011	0	0
2024-08-19 14:14:47			0	36805	0	0	0	28958	27790	159622	26863	1073522	46506	110764	0	0	8049	588587	0	0
2024-08-19 14:15:47			0	36804	0	0	0	28935	27760	159590	27036	1073360	46513	110755	0	0	8049	588729	0	0
2024-08-19 14:16:47			0	36799	0	0	0	28911	27740	159718	27116	1073270	46500	110746	0	0	8049	588999	0	0
2024-08-19 14:17:47			0	36805	0	0	0	28880	27730	159646	26942	1073162	46522	110734	0	0	8050	588790	0	0
2024-08-19 14:18:47			0	36789	0	0	0	28859	27700	159734	27142	1073036	46519	110726	0	0	8049	589540	0	0
2024-08-19 14:19:47			0	36794	0	0	0	28836	27670	159798	27062	1072838	46493	110717	0	0	8050	589439	0	0
2024-08-19 14:20:47			0	36772	0	0	0	28815	27630	159818	26887	1072748	46489	110709	0	0	8049	590468	0	0
2024-08-19 14:21:47			0	36796	0	0	0	28802	27620	159802	27107	1072649	46499	110704	0	0	8050	589528	0	0
2024-08-19 14:22:47			0	36784	0	0	0	28929	27600	159914	27062	1072657	46498	110753	0	0	8047	590083	0	0
2024-08-19 14:23:47			0	36778	0	0	0	28935	27610	159978	26840	1072729	46531	110755	0	0	8047	590292	0	0
2024-08-19 14:24:47			0	36784	0	0	0	28862	27580	159962	26876	1072603	46517	110727	0	0	8048	590151	0	0
2024-08-19 14:25:47			0	36794	0	0	0	28838	27570	159914	27060	1072469	46527	110718	0	0	8049	589779	0	0
2024-08-19 14:26:47			0	36798	0	0	0	28825	27550	159934	26932	1072379	46513	110713	0	0	8050	589684	0	0
2024-08-19 14:27:47			0	36809	0	0	0	28799	27550	159982	26811	1072298	46525	110703	0	0	8051	589238	0	0
2024-08-19 14:28:47			0	36802	0	0	0	28828	27530	159890	26745	1072325	46524	110714	0	0	8050	589590	0	0
2024-08-19 14:29:47			0	36787	0	0	0	28812	27520	159942	27166	1072280	46522	110708	0	0	8049	590232	0	0
2024-08-19 14:30:47			0	36779	0	0	0	28802	27510	159994	27053	1072262	46532	110704	0	0	8049	590591	0	0
2024-08-19 14:31:47			0	36794	0	0	0	28792	27500	159954	27227	1072145	46532	110700	0	0	8050	590016	0	0
2024-08-19 14:32:47			0	36791	0	0	0	28786	27490	159998	27067	1072181	46520	110698	0	0	8049	590172	0	0
2024-08-19 14:33:47			0	36804	0	0	0	28784	27490	159982	26798	1072181	46508	110697	0	0	8050	589644	0	0
2024-08-19 14:34:47			0	36784	0	0	0	28786	27480	159902	26817	1072154	46529	110698	0	0	8049	590490	0	0
2024-08-19 14:35:47			0	36801	0	0	0	28792	27470	159950	26937	1072091	46529	110700	0	0	8050	589834	0	0
2024-08-19 14:36:47			0	36816	0	0	0	28774	27470	160014	27036	1072064	46529	110693	0	0	8051	589225	0	0
2024-08-19 14:37:47			0	36804	0	0	0	28753	27460	160022	27261	1072064	46516	110685	0	0	8051	589746	0	0
2024-08-19 14:38:47			0	36825	0	0	0	28737	27460	160066	26948	1071992	46516	110679	0	0	8052	588894	0	0
2024-08-19 14:39:47			0	36803	0	0	0	28724	27450	159966	27230	1072001	46516	110674	0	0	8051	589821	0	0
2024-08-19 14:40:47			0	36805	0	0	0	28724	27440	159938	26944	1071893	46514	110674	0	0	8051	589773	0	0
2024-08-19 14:41:47			0	36819	0	0	0	28729	27430	160046	26847	1071803	46514	110676	0	0	8052	589239	0	0
2024-08-19 14:42:47			0	36819	0	0	0	28729	27410	159966	26667	1071740	46500	110676	0	0	8052	589307	0	0
2024-08-19 14:43:47			0	36820	0	0	0	28732	27420	160006	27048	1071803	46500	110677	0	0	8052	589233	0	0
2024-08-19 14:44:47			0	36827	0	0	0	28735	27400	159954	26675	1071767	46520	110678	0	0	8052	589016	0	0
2024-08-19 14:45:47			0	36845	0	0	0	28716	27410	160002	26930	1071785	46511	110671	0	0	8053	588253	0	0
2024-08-19 14:46:47			0	36830	0	0	0	28711	27400	160054	26757	1071695	46521	110669	0	0	8053	588895	0	0
2024-08-19 14:47:47			0	36824	0	0	0	28701	27390	160006	27074	1071650	46509	110665	0	0	8052	589172	0	0
2024-08-19 14:48:47			0	36848	0	0	0	28714	27390	159930	27038	1071677	46498	110670	0	0	8054	588199	0	0
2024-08-19 14:49:47			0	36847	0	0	0	28703	27380	159926	27332	1071605	46508	110666	0	0	8054	588274	0	0
2024-08-19 14:50:47			0	36847	0	0	0	28703	27370	159942	27090	1071614	46518	110666	0	0	8054	588307	0	0
2024-08-19 14:51:47			0	36853	0	0	0	28714	27370	159906	27052	1071641	46518	110670	0	0	8054	588064	0	0
2024-08-19 14:52:47			0	36860	0	0	0	28719	27370	159858	27050	1071668	46541	110672	0	0	8054	587781	0	0
2024-08-19 14:53:47			0	36857	0	0	0	28740	27370	159934	27138	1071668	46518	110680	0	0	8054	587902	0	0
2024-08-19 14:54:47			0	36852	0	0	0	28753	27360	159942	26772	1071668	46527	110685	0	0	8053	588139	0	0
2024-08-19 14:55:47			0	36866	0	0	0	28763	27380	159958	27017	1071731	46541	110689	0	0	8054	587504	0	0
2024-08-19 14:56:47			0	36864	0	0	0	28779	27370	159966	27088	1071722	46551	110695	0	0	8053	587619	0	0
2024-08-19 14:57:47			0	36857	0	0	0	28784	27380	159934	27036	1071713	46530	110697	0	0	8053	587869	0	0
2024-08-19 14:58:47			0	36864	0	0	0	28781	27390	159930	27230	1071803	46542	110696	0	0	8053	587551	0	0
2024-08-19 14:59:47			0	36875	0	0	0	28771	27380	159958	27145	1071767	46541	110692	0	0	8054	587140	0	0
2024-08-19 15:00:47			0	36867	0	0	0	28766	27390	159914	26880	1071812	46542	110690	0	0	8054	587430	0	0
2024-08-19 15:01:47			0	36868	0	0	0	28771	27390	159894	27121	1071785	46542	110692	0	0	8054	587389	0	0
2024-08-19 15:02:47			0	36869	0	0	0	28784	27400	159922	27225	1071857	46532	110697	0	0	8054	587315	0	0
2024-08-19 15:03:47			0	36881	0	0	0	28799	27400	159910	26925	1071848	46509	110703	0	0	8054	586830	0	0
2024-08-19 15:04:47			0	36867	0	0	0	28802	27400	159874	27223	1071901	46542	110704	0	0	8053	587396	0	0
2024-08-19 15:05:47			0	36883	0	0	0	28812	27410	159778	27112	1071919	46533	110708	0	0	8054	586715	0	0
2024-08-19 15:06:47			0	36899	0	0	0	28825	27410	159770	26939	1071946	46544	110713	0	0	8055	586068	0	0
2024-08-19 15:07:47			0	36895	0	0	0	28836	27410	159642	27069	1071983	46544	110717	0	0	8054	586230	0	0
2024-08-19 15:08:47			0	36898	0	0	0	28846	27420	159742	27209	1072018	46545	110721	0	0	8054	586075	0	0
2024-08-19 15:09:47			0	36896	0	0	0	28849	27430	159662	26856	1072046	46547	110722	0	0	8054	586122	0	0
2024-08-19 15:10:47			0	36901	0	0	0	28851	27420	159658	27235	1072028	46545	110723	0	0	8055	585954	0	0
2024-08-19 15:11:47			0	36900	0	0	0	28849	27430	159586	27218	1072063	46546	110722	0	0	8055	585960	0	0
2024-08-19 15:12:47			0	36932	0	0	0	28846	27430	159566	27341	1072099	46558	110721	0	0	8056	584669	0	0
2024-08-19 15:13:47			0	36937	0	0	0	28859	27440	159582	27320	1072081	46547	110726	0	0	8057	584433	0	0
2024-08-19 15:14:47			0	36912	0	0	0	28857	27440	159554	27031	1072037	46547	110725	0	0	8055	585442	0	0
2024-08-19 15:15:47			0	36912	0	0	0	28849	27440	159562	27043	1072090	46525	110722	0	0	8055	585442	0	0
2024-08-19 15:16:47			0	36939	0	0	0	28838	27450	159570	27220	1072046	46526	110718	0	0	8057	584319	0	0
2024-08-19 15:17:47			0	36923	0	0	0	28846	27440	159422	27521	1072028	46547	110721	0	0	8056	584998	0	0
2024-08-19 15:18:47			0	36939	0	0	0	28846	27440	159470	27187	1072108	46547	110721	0	0	8057	584353	0	0
2024-08-19 15:19:47			0	36957	0	0	0	28851	27450	159382	27270	1072162	46538	110723	0	0	8058	583593	0	0
2024-08-19 15:20:47			0	36960	0	0	0	28849	27450	159418	27434	1072162	46549	110722	0	0	8058	583473	0	0
2024-08-19 15:21:47			0	36958	0	0	0	28854	27450	159470	27130	1072126	46537	110724	0	0	8058	583553	0	0
2024-08-19 15:22:47			0	36950	0	0	0	28849	27450	159478	27022	1072135	46527	110722	0	0	8058	583876	0	0
2024-08-19 15:23:47			0	36950	0	0	0	28815	27450	159570	27312	1072126	46526	110709	0	0	8058	583876	0	0
2024-08-19 15:24:47			0	36952	0	0	0	28825	27450	159438	27039	1072046	46526	110713	0	0	8058	583795	0	0
2024-08-19 15:25:47			0	36931	0	0	0	28815	27450	159390	27296	1072100	46526	110709	0	0	8057	584642	0	0
2024-08-19 15:26:47			0	36944	0	0	0	28807	27450	159518	27237	1072028	46527	110706	0	0	8058	584117	0	0
2024-08-19 15:27:47			0	36958	0	0	0	28805	27440	159510	26994	1072028	46525	110705	0	0	8059	583587	0	0
2024-08-19 15:28:47			0	36945	0	0	0	28799	27440	159426	27275	1072010	46536	110703	0	0	8058	584111	0	0
2024-08-19 15:29:47			0	36960	0	0	0	28805	27440	159402	27476	1072028	46514	110705	0	0	8059	583506	0	0
2024-08-19 15:30:47			0	36936	0	0	0	28812	27430	159442	27357	1072036	46535	110708	0	0	8057	584507	0	0
2024-08-19 15:31:47			0	36952	0	0	0	28815	27440	159470	26963	1072028	46536	110709	0	0	8058	583829	0	0
2024-08-19 15:32:47			0	36963	0	0	0	28810	27430	159370	27156	1072036	46535	110707	0	0	8059	583419	0	0
2024-08-19 15:33:47			0	36960	0	0	0	28807	27420	159478	27293	1071974	46534	110706	0	0	8059	583573	0	0
2024-08-19 15:34:47			0	36958	0	0	0	28805	27430	159494	27267	1072019	46536	110705	0	0	8059	583620	0	0
2024-08-19 15:35:47			0	36956	0	0	0	28812	27430	159414	26968	1072019	46525	110708	0	0	8058	583701	0	0
2024-08-19 15:36:47			0	36965	0	0	0	28810	27440	159362	27293	1072028	46547	110707	0	0	8059	583305	0	0
2024-08-19 15:37:47			0	36964	0	0	0	28802	27430	159326	27294	1072019	46536	110704	0	0	8059	583378	0	0
2024-08-19 15:38:47			0	36958	0	0	0	28802	27420	159386	26991	1071920	46545	110704	0	0	8059	583654	0	0
2024-08-19 15:39:47			0	36976	0	0	0	28786	27420	159438	27072	1071947	46534	110698	0	0	8060	582929	0	0
2024-08-19 15:40:47			0	36997	0	0	0	28784	27420	159326	27164	1071911	46523	110697	0	0	8061	582084	0	0
2024-08-19 15:41:47			0	36988	0	0	0	28779	27420	159262	27459	1071839	46523	110695	0	0	8061	582446	0	0
2024-08-19 15:42:47			0	36984	0	0	0	28771	27420	159198	27213	1071857	46500	110692	0	0	8061	582607	0	0
2024-08-19 15:43:47			0	36982	0	0	0	28774	27410	159222	27270	1071839	46522	110693	0	0	8061	582721	0	0
2024-08-19 15:44:47			0	37000	0	0	0	28774	27420	159170	27306	1071857	46523	110693	0	0	8062	581963	0	0
2024-08-19 15:45:47			0	36998	0	0	0	28774	27410	159202	27130	1071812	46522	110693	0	0	8061	582077	0	0
2024-08-19 15:46:47			0	36998	0	0	0	28776	27400	159206	27055	1071821	46520	110694	0	0	8061	582110	0	0
2024-08-19 15:47:47			0	36995	0	0	0	28781	27400	159270	27419	1071848	46520	110696	0	0	8061	582231	0	0
2024-08-19 15:48:47			0	37003	0	0	0	28776	27410	159222	27390	1071794	46533	110694	0	0	8062	581876	0	0
2024-08-19 15:49:47			0	37009	0	0	0	28779	27400	159290	26948	1071874	46509	110695	0	0	8062	581668	0	0
2024-08-19 15:50:47			0	37010	0	0	0	28755	27400	159206	27287	1071767	46531	110686	0	0	8062	581628	0	0
2024-08-19 15:51:47			0	37024	0	0	0	28748	27400	159258	27282	1071749	46521	110683	0	0	8063	581065	0	0
2024-08-19 15:52:47			0	37028	0	0	0	28732	27400	159150	27265	1071749	46521	110677	0	0	8064	580904	0	0
2024-08-19 15:53:47			0	37033	0	0	0	28701	27410	159070	27222	1071731	46522	110665	0	0	8065	580670	0	0
2024-08-19 15:54:47			0	37037	0	0	0	28690	27380	159130	27145	1071659	46508	110661	0	0	8065	580610	0	0
2024-08-19 15:55:47			0	37034	0	0	0	28703	27380	159022	27260	1071623	46496	110666	0	0	8065	580730	0	0
2024-08-19 15:56:47			0	37027	0	0	0	28693	27380	159098	27348	1071659	46497	110662	0	0	8064	581011	0	0
2024-08-19 15:57:47			0	37042	0	0	0	28672	27380	159014	27111	1071650	46518	110654	0	0	8066	580409	0	0
2024-08-19 15:58:47			0	37072	0	0	0	28662	27370	159070	27159	1071578	46518	110650	0	0	8068	579239	0	0
2024-08-19 15:59:47			0	37047	0	0	0	28636	27360	159014	27086	1071542	46506	110640	0	0	8066	580275	0	0
2024-08-19 16:00:47			0	37038	0	0	0	28636	27350	159070	27166	1071417	46505	110640	0	0	8066	580670	0	0
2024-08-19 16:01:47			0	37059	0	0	0	28638	27340	159134	26797	1071425	46493	110641	0	0	8067	579860	0	0
2024-08-19 16:02:47			0	37056	0	0	0	28636	27350	159150	26994	1071354	46494	110640	0	0	8067	579947	0	0
2024-08-19 16:03:47			0	37047	0	0	0	28644	27320	159114	27275	1071300	46490	110643	0	0	8066	580408	0	0
2024-08-19 16:04:47			0	37046	0	0	0	28628	27310	159134	27294	1071318	46489	110637	0	0	8066	580482	0	0
2024-08-19 16:05:47			0	37066	0	0	0	28631	27300	159098	27156	1071300	46500	110638	0	0	8067	579712	0	0
2024-08-19 16:06:47			0	37073	0	0	0	28636	27310	159178	27013	1071228	46500	110640	0	0	8068	579398	0	0
2024-08-19 16:07:47			0	37041	0	0	0	28646	27300	158998	27171	1071219	46511	110644	0	0	8066	580716	0	0
2024-08-19 16:08:47			0	37081	0	0	0	28644	27300	158966	27260	1071237	46510	110643	0	0	8068	579111	0	0
2024-08-19 16:09:47			0	37083	0	0	0	28641	27300	159114	27076	1071300	46511	110642	0	0	8068	579030	0	0
2024-08-19 16:10:47			0	37071	0	0	0	28644	27300	159022	27376	1071264	46500	110643	0	0	8067	579512	0	0
2024-08-19 16:11:47			0	37073	0	0	0	28662	27300	159050	26968	1071291	46510	110650	0	0	8067	579431	0	0
2024-08-19 16:12:47			0	37070	0	0	0	28667	27290	159082	27052	1071308	46509	110652	0	0	8067	579585	0	0
2024-08-19 16:13:47			0	37072	0	0	0	28677	27290	158990	27208	1071273	46532	110656	0	0	8067	579505	0	0
2024-08-19 16:14:47			0	37070	0	0	0	28685	27290	159150	27291	1071308	46509	110659	0	0	8067	579585	0	0
2024-08-19 16:15:47			0	37080	0	0	0	28696	27290	159086	27388	1071282	46499	110663	0	0	8067	579184	0	0
2024-08-19 16:16:47			0	37087	0	0	0	28709	27300	159122	27161	1071326	46522	110668	0	0	8067	578870	0	0
2024-08-19 16:17:47			0	37085	0	0	0	28714	27300	159102	27300	1071407	46534	110670	0	0	8067	578950	0	0
2024-08-19 16:18:47			0	37073	0	0	0	28719	27300	159110	27234	1071344	46533	110672	0	0	8066	579431	0	0
2024-08-19 16:19:47			0	37079	0	0	0	28722	27300	159042	26927	1071407	46522	110673	0	0	8067	579191	0	0
2024-08-19 16:20:47			0	37081	0	0	0	28735	27310	159178	27135	1071479	46522	110678	0	0	8067	579077	0	0
2024-08-19 16:21:47			0	37080	0	0	0	28745	27310	159046	27367	1071452	46522	110682	0	0	8066	579117	0	0
2024-08-19 16:22:47			0	37082	0	0	0	28761	27320	159002	27086	1071596	46523	110688	0	0	8066	579004	0	0
2024-08-19 16:23:47			0	37084	0	0	0	28802	27340	159006	27329	1071641	46548	110704	0	0	8066	578857	0	0
2024-08-19 16:24:47			0	37093	0	0	0	28799	27340	159070	27334	1071748	46538	110703	0	0	8066	578497	0	0
2024-08-19 16:25:47			0	37115	0	0	0	28753	27360	159038	26970	1071722	46539	110685	0	0	8068	577549	0	0
2024-08-19 16:26:47			0	37088	0	0	0	28711	27360	159018	27201	1071641	46516	110669	0	0	8068	578630	0	0
2024-08-19 16:27:47			0	37101	0	0	0	28703	27350	158898	26932	1071569	46505	110666	0	0	8068	578143	0	0
2024-08-19 16:28:47			0	37108	0	0	0	28755	27350	158886	27270	1071659	46527	110686	0	0	8068	577863	0	0
2024-08-19 16:29:47			0	37095	0	0	0	28786	27350	158902	27171	1071713	46527	110698	0	0	8067	578383	0	0
2024-08-19 16:30:47			0	37121	0	0	0	28789	27360	158906	27203	1071695	46527	110699	0	0	8068	577309	0	0
2024-08-19 16:31:47			0	37114	0	0	0	28784	27370	158914	27286	1071740	46529	110697	0	0	8068	577556	0	0
2024-08-19 16:32:47			0	37105	0	0	0	28774	27370	158842	27076	1071829	46507	110693	0	0	8068	577917	0	0
2024-08-19 16:33:47			0	37113	0	0	0	28789	27370	158830	27232	1071776	46529	110699	0	0	8068	577596	0	0
2024-08-19 16:34:47			0	37113	0	0	0	28784	27380	158846	27124	1071847	46519	110697	0	0	8068	577563	0	0
2024-08-19 16:35:47			0	37118	0	0	0	28797	27370	158762	27289	1071829	46529	110702	0	0	8068	577396	0	0
2024-08-19 16:36:47			0	37123	0	0	0	28799	27380	158758	27220	1071811	46529	110703	0	0	8068	577163	0	0
2024-08-19 16:37:47			0	37132	0	0	0	28805	27390	158846	27190	1071830	46531	110705	0	0	8069	576770	0	0
2024-08-19 16:38:47			0	37110	0	0	0	28792	27400	158798	27121	1071901	46531	110700	0	0	8068	577617	0	0
2024-08-19 16:39:47			0	37131	0	0	0	28794	27390	158706	27322	1071838	46520	110701	0	0	8069	576810	0	0
2024-08-19 16:40:47			0	37122	0	0	0	28797	27390	158714	27180	1071865	46520	110702	0	0	8068	577170	0	0
2024-08-19 16:41:47			0	37138	0	0	0	28802	27400	158742	26956	1071910	46510	110704	0	0	8069	576497	0	0
2024-08-19 16:42:47			0	37129	0	0	0	28807	27410	158846	27336	1071983	46522	110706	0	0	8069	576823	0	0
2024-08-19 16:43:47			0	37124	0	0	0	28799	27400	158830	26955	1071901	46520	110703	0	0	8068	577057	0	0
2024-08-19 16:44:47			0	37130	0	0	0	28797	27410	158806	27149	1071892	46522	110702	0	0	8069	576784	0	0
2024-08-19 16:45:47			0	37125	0	0	0	28810	27410	158850	26982	1071946	46533	110707	0	0	8068	576983	0	0
2024-08-19 16:46:47			0	37137	0	0	0	28807	27410	158898	27072	1071866	46522	110706	0	0	8069	576504	0	0
2024-08-19 16:47:47			0	37140	0	0	0	28802	27410	158818	26745	1071929	46533	110704	0	0	8069	576384	0	0
2024-08-19 16:48:47			0	37133	0	0	0	28810	27410	158734	27111	1071892	46511	110707	0	0	8069	576664	0	0
2024-08-19 16:49:47			0	37134	0	0	0	28815	27410	158826	27038	1071919	46533	110709	0	0	8069	576624	0	0
2024-08-19 16:50:47			0	37109	0	0	0	28805	27400	158822	26809	1071910	46510	110705	0	0	8067	577657	0	0
2024-08-19 16:51:47			0	37124	0	0	0	28810	27410	158810	27007	1071929	46522	110707	0	0	8068	577023	0	0
2024-08-19 16:52:47			0	37122	0	0	0	28812	27410	158778	27095	1071946	46522	110708	0	0	8068	577103	0	0
2024-08-19 16:53:47			0	37116	0	0	0	28825	27420	158778	26946	1071911	46545	110713	0	0	8068	577310	0	0
2024-08-19 16:54:47			0	37131	0	0	0	28815	27420	158762	26812	1071992	46523	110709	0	0	8069	576710	0	0
2024-08-19 16:55:47			0	37112	0	0	0	28828	27410	158726	26928	1071875	46533	110714	0	0	8067	577503	0	0
2024-08-19 16:56:47			0	37130	0	0	0	28833	27420	158698	27119	1071938	46534	110716	0	0	8068	576750	0	0
2024-08-19 16:57:47			0	37121	0	0	0	28833	27420	158822	27072	1071974	46534	110716	0	0	8068	577110	0	0
2024-08-19 16:58:47			0	37115	0	0	0	28833	27420	158782	27062	1071992	46534	110716	0	0	8067	577350	0	0
2024-08-19 16:59:47			0	37114	0	0	0	28831	27420	158694	27060	1072054	46534	110715	0	0	8067	577390	0	0
2024-08-19 17:00:47			0	37112	0	0	0	28838	27430	158714	26991	1071983	46524	110718	0	0	8067	577437	0	0
2024-08-19 17:01:47			0	37129	0	0	0	28859	27430	158746	27114	1072010	46535	110726	0	0	8068	576757	0	0
2024-08-19 17:02:47			0	37120	0	0	0	28872	27440	158730	27168	1072135	46536	110731	0	0	8067	577084	0	0
2024-08-19 17:03:47			0	37128	0	0	0	28875	27440	158778	27206	1072144	46547	110732	0	0	8068	576764	0	0
2024-08-19 17:04:47			0	37116	0	0	0	28870	27450	158766	27201	1072180	46537	110730	0	0	8067	577211	0	0
2024-08-19 17:05:47			0	37118	0	0	0	28875	27450	158554	27059	1072216	46538	110732	0	0	8067	577131	0	0
2024-08-19 17:06:47			0	37138	0	0	0	28880	27460	158690	27222	1072171	46549	110734	0	0	8068	576298	0	0
2024-08-19 17:07:47			0	37126	0	0	0	28875	27460	158666	27306	1072180	46538	110732	0	0	8068	576778	0	0
2024-08-19 17:08:47			0	37115	0	0	0	28875	27460	158666	27307	1072234	46538	110732	0	0	8067	577217	0	0
2024-08-19 17:09:47			0	37139	0	0	0	28872	27460	158642	26847	1072207	46527	110731	0	0	8068	576258	0	0
2024-08-19 17:10:47			0	37132	0	0	0	28877	27460	158622	27059	1072198	46527	110733	0	0	8068	576538	0	0
2024-08-19 17:11:47			0	37146	0	0	0	28883	27470	158630	27078	1072243	46528	110735	0	0	8069	575945	0	0
2024-08-19 17:12:47			0	37128	0	0	0	28875	27470	158610	26883	1072252	46551	110732	0	0	8068	576665	0	0
2024-08-19 17:13:47			0	37139	0	0	0	28877	27470	158690	27189	1072279	46551	110733	0	0	8068	576225	0	0
2024-08-19 17:14:47			0	37144	0	0	0	28888	27470	158630	27048	1072279	46551	110737	0	0	8068	576025	0	0
2024-08-19 17:15:47			0	37128	0	0	0	28870	27470	158618	27034	1072279	46529	110730	0	0	8068	576665	0	0
2024-08-19 17:16:47			0	37154	0	0	0	28877	27480	158626	27175	1072288	46529	110733	0	0	8069	575593	0	0
2024-08-19 17:17:47			0	37148	0	0	0	28862	27480	158562	26911	1072288	46551	110727	0	0	8069	575832	0	0
2024-08-19 17:18:47			0	37133	0	0	0	28862	27490	158606	27036	1072333	46519	110727	0	0	8068	576398	0	0
2024-08-19 17:19:47			0	37137	0	0	0	28867	27480	158518	26946	1072297	46519	110729	0	0	8068	576272	0	0
2024-08-19 17:20:47			0	37162	0	0	0	28883	27480	158458	26838	1072234	46529	110735	0	0	8070	575274	0	0
2024-08-19 17:21:47			0	37156	0	0	0	28880	27480	158542	27078	1072297	46541	110734	0	0	8069	575513	0	0
2024-08-19 17:22:47			0	37147	0	0	0	28883	27470	158522	26857	1072252	46529	110735	0	0	8069	575905	0	0
2024-08-19 17:23:47			0	37162	0	0	0	28872	27480	158606	27055	1072270	46552	110731	0	0	8070	575274	0	0
2024-08-19 17:24:47			0	37154	0	0	0	28875	27480	158546	26946	1072324	46530	110732	0	0	8069	575593	0	0
2024-08-19 17:25:47			0	37133	0	0	0	28862	27480	158570	27017	1072270	46530	110727	0	0	8068	576432	0	0
2024-08-19 17:26:47			0	37132	0	0	0	28872	27480	158578	27027	1072288	46529	110731	0	0	8068	576472	0	0
2024-08-19 17:27:47			0	37164	0	0	0	28875	27480	158558	27163	1072261	46529	110732	0	0	8070	575194	0	0
2024-08-19 17:28:47			0	37167	0	0	0	28872	27480	158446	27289	1072234	46540	110731	0	0	8070	575074	0	0
2024-08-19 17:29:47			0	37158	0	0	0	28877	27470	158402	27225	1072387	46529	110733	0	0	8069	575466	0	0
2024-08-19 17:30:47			0	37166	0	0	0	28870	27480	158434	27194	1072270	46541	110730	0	0	8070	575114	0	0
2024-08-19 17:31:47			0	37165	0	0	0	28875	27480	158414	27104	1072288	46540	110732	0	0	8070	575154	0	0
2024-08-19 17:32:47			0	37169	0	0	0	28880	27470	158342	27138	1072306	46518	110734	0	0	8070	575027	0	0
2024-08-19 17:33:47			0	37173	0	0	0	28877	27480	158358	27038	1072261	46540	110733	0	0	8070	574835	0	0
2024-08-19 17:34:47			0	37191	0	0	0	28875	27480	158250	26861	1072261	46540	110732	0	0	8071	574117	0	0
2024-08-19 17:35:47			0	37181	0	0	0	28870	27480	158314	27272	1072243	46519	110730	0	0	8071	574516	0	0
2024-08-19 17:36:47			0	37214	0	0	0	28862	27480	158294	26819	1072297	46541	110727	0	0	8073	573201	0	0
2024-08-19 17:37:47			0	37204	0	0	0	28859	27470	158234	27140	1072225	46529	110726	0	0	8072	573632	0	0
2024-08-19 17:38:47			0	37219	0	0	0	28870	27470	158150	26889	1072270	46517	110730	0	0	8073	573035	0	0
2024-08-19 17:39:47			0	37238	0	0	0	28859	27470	158170	26948	1072270	46550	110726	0	0	8074	572279	0	0
2024-08-19 17:40:47			0	37247	0	0	0	28864	27480	158058	27111	1072270	46552	110728	0	0	8075	571888	0	0
2024-08-19 17:41:47			0	37261	0	0	0	28870	27470	158138	27124	1072252	46540	110730	0	0	8076	571365	0	0
2024-08-19 17:42:47			0	37259	0	0	0	28880	27470	158066	26724	1072270	46528	110734	0	0	8075	571444	0	0
2024-08-19 17:43:47			0	37276	0	0	0	28877	27480	158034	26634	1072297	46530	110733	0	0	8076	570736	0	0
2024-08-19 17:44:47			0	37259	0	0	0	28870	27470	158014	26838	1072252	46540	110730	0	0	8075	571444	0	0
2024-08-19 17:45:47			0	37270	0	0	0	28864	27480	158018	26772	1072288	46529	110728	0	0	8076	570975	0	0
2024-08-19 17:46:47			0	37265	0	0	0	28870	27480	158018	27128	1072270	46541	110730	0	0	8076	571173	0	0
2024-08-19 17:47:47			0	37260	0	0	0	28867	27470	157842	27015	1072225	46529	110729	0	0	8076	571405	0	0
2024-08-19 17:48:47			0	37246	0	0	0	28864	27470	158042	26807	1072297	46528	110728	0	0	8075	571961	0	0
2024-08-19 17:49:47			0	37253	0	0	0	28859	27470	157954	26876	1072306	46529	110726	0	0	8075	571683	0	0
2024-08-19 17:50:47			0	37259	0	0	0	28859	27470	158094	27203	1072225	46529	110726	0	0	8076	571444	0	0
2024-08-19 17:51:47			0	37263	0	0	0	28867	27470	157986	27334	1072279	46518	110729	0	0	8076	571285	0	0
2024-08-19 17:52:47			0	37255	0	0	0	28867	27480	158014	27052	1072315	46540	110729	0	0	8075	571570	0	0
2024-08-19 17:53:47			0	37246	0	0	0	28854	27470	158110	27230	1072243	46539	110724	0	0	8075	571961	0	0
2024-08-19 17:54:47			0	37260	0	0	0	28849	27460	158158	27066	1072234	46527	110722	0	0	8076	571438	0	0
2024-08-19 17:55:47			0	37237	0	0	0	28844	27460	158186	26946	1072127	46527	110720	0	0	8075	572352	0	0
2024-08-19 17:56:47			0	37258	0	0	0	28838	27470	158082	27260	1072216	46528	110718	0	0	8076	571484	0	0
2024-08-19 17:57:47			0	37251	0	0	0	28844	27460	158242	26819	1072180	46527	110720	0	0	8075	571795	0	0
2024-08-19 17:58:47			0	37240	0	0	0	28846	27460	158126	27145	1072180	46538	110721	0	0	8075	572232	0	0
2024-08-19 17:59:47			0	37235	0	0	0	28851	27460	158182	26817	1072207	46538	110723	0	0	8074	572431	0	0
2024-08-19 18:00:47			0	37241	0	0	0	28854	27460	158090	27112	1072252	46527	110724	0	0	8075	572193	0	0
2024-08-19 18:01:47			0	37242	0	0	0	28846	27460	158170	26942	1072153	46538	110721	0	0	8075	572153	0	0
2024-08-19 18:02:47			0	37230	0	0	0	28849	27460	158202	27147	1072234	46549	110722	0	0	8074	572630	0	0
2024-08-19 18:03:47			0	37220	0	0	0	28851	27460	158266	27053	1072198	46538	110723	0	0	8073	573028	0	0
2024-08-19 18:04:47			0	37242	0	0	0	28854	27460	158130	27001	1072118	46527	110724	0	0	8075	572153	0	0
2024-08-19 18:05:47			0	37232	0	0	0	28864	27460	158322	27031	1072288	46538	110728	0	0	8074	572551	0	0
2024-08-19 18:06:47			0	37230	0	0	0	28859	27460	158302	27303	1072261	46527	110726	0	0	8074	572630	0	0
2024-08-19 18:07:47			0	37227	0	0	0	28864	27470	158190	27154	1072216	46539	110728	0	0	8074	572717	0	0
2024-08-19 18:08:47			0	37237	0	0	0	28851	27460	158182	27074	1072261	46527	110723	0	0	8074	572352	0	0
2024-08-19 18:09:47			0	37222	0	0	0	28862	27460	158134	27124	1072207	46538	110727	0	0	8073	572948	0	0
2024-08-19 18:10:47			0	37236	0	0	0	28864	27460	158158	26960	1072198	46527	110728	0	0	8074	572391	0	0
2024-08-19 18:11:47			0	37226	0	0	0	28854	27460	158170	27171	1072225	46538	110724	0	0	8074	572789	0	0
2024-08-19 18:12:47			0	37224	0	0	0	28870	27460	158150	27079	1072234	46538	110730	0	0	8073	572869	0	0
2024-08-19 18:13:47			0	37212	0	0	0	28867	27450	158166	27270	1072243	46549	110729	0	0	8073	573379	0	0
2024-08-19 18:14:47			0	37225	0	0	0	28870	27470	158150	27220	1072270	46528	110730	0	0	8073	572796	0	0
2024-08-19 18:15:47			0	37246	0	0	0	28875	27470	158250	27215	1072252	46529	110732	0	0	8075	571961	0	0
2024-08-19 18:16:47			0	37227	0	0	0	28867	27470	158326	27338	1072306	46540	110729	0	0	8074	572717	0	0
2024-08-19 18:17:47			0	37236	0	0	0	28875	27460	158210	26922	1072207	46527	110732	0	0	8074	572391	0	0
2024-08-19 18:18:47			0	37233	0	0	0	28875	27480	158250	27128	1072342	46529	110732	0	0	8074	572445	0	0
2024-08-19 18:19:47			0	37229	0	0	0	28867	27480	158254	27235	1072315	46540	110729	0	0	8074	572604	0	0
2024-08-19 18:20:47			0	37211	0	0	0	28880	27470	158266	27121	1072279	46540	110734	0	0	8072	573354	0	0
2024-08-19 18:21:47			0	37216	0	0	0	28880	27470	158182	27119	1072306	46551	110734	0	0	8073	573154	0	0
2024-08-19 18:22:47			0	37219	0	0	0	28888	27480	158270	27022	1072396	46529	110737	0	0	8073	573002	0	0
2024-08-19 18:23:47			0	37226	0	0	0	28890	27470	158222	27057	1072351	46539	110738	0	0	8073	572756	0	0
2024-08-19 18:24:47			0	37203	0	0	0	28885	27470	158210	26889	1072306	46540	110736	0	0	8072	573672	0	0
2024-08-19 18:25:47			0	37215	0	0	0	28883	27480	158234	26759	1072324	46519	110735	0	0	8073	573161	0	0
2024-08-19 18:26:47			0	37203	0	0	0	28880	27480	158282	27088	1072324	46530	110734	0	0	8072	573639	0	0
2024-08-19 18:27:47			0	37202	0	0	0	28877	27470	158334	27249	1072297	46539	110733	0	0	8072	573712	0	0
2024-08-19 18:28:47			0	37198	0	0	0	28870	27470	158278	27255	1072252	46551	110730	0	0	8072	573871	0	0
2024-08-19 18:29:47			0	37206	0	0	0	28875	27480	158242	26670	1072369	46529	110732	0	0	8072	573520	0	0
2024-08-19 18:30:47			0	37195	0	0	0	28877	27470	158334	27119	1072360	46540	110733	0	0	8072	573991	0	0
2024-08-19 18:31:47			0	37205	0	0	0	28872	27480	158374	27114	1072288	46529	110731	0	0	8072	573559	0	0
2024-08-19 18:32:47			0	37193	0	0	0	28885	27470	158302	26994	1072333	46518	110736	0	0	8071	574070	0	0
2024-08-19 18:33:47			0	37193	0	0	0	28885	27480	158366	27095	1072405	46541	110736	0	0	8071	574037	0	0
2024-08-19 18:34:47			0	37166	0	0	0	28883	27480	158430	27152	1072324	46541	110735	0	0	8070	575114	0	0
2024-08-19 18:35:47			0	37177	0	0	0	28885	27480	158366	27187	1072378	46552	110736	0	0	8070	574675	0	0
2024-08-19 18:36:47			0	37136	0	0	0	28890	27490	158526	26913	1072342	46541	110738	0	0	8068	576279	0	0
2024-08-19 18:37:47			0	37100	0	0	0	28893	27480	158818	27069	1072459	46552	110739	0	0	8066	577751	0	0
2024-08-19 18:38:47			0	37046	0	0	0	28901	27490	158918	26840	1072450	46541	110742	0	0	8063	579882	0	0
2024-08-19 18:39:47			0	37003	0	0	0	28898	27490	159098	27124	1072495	46530	110741	0	0	8060	581608	0	0
2024-08-19 18:40:47			0	36985	0	0	0	28903	27500	159302	26951	1072432	46541	110743	0	0	8059	582299	0	0
2024-08-19 18:41:47			0	36953	0	0	0	28906	27490	159358	27118	1072468	46541	110744	0	0	8057	583620	0	0
2024-08-19 18:42:47			0	36945	0	0	0	28906	27490	159346	26991	1072468	46552	110744	0	0	8057	583943	0	0
2024-08-19 18:43:47			0	36948	0	0	0	28914	27490	159358	27154	1072504	46541	110747	0	0	8057	583822	0	0
2024-08-19 18:44:47			0	36948	0	0	0	28906	27490	159382	27052	1072441	46541	110744	0	0	8057	583822	0	0
2024-08-19 18:45:47			0	36943	0	0	0	28901	27500	159350	26727	1072495	46542	110742	0	0	8057	583990	0	0
2024-08-19 18:46:47			0	36963	0	0	0	28888	27490	159378	26863	1072450	46553	110737	0	0	8058	583218	0	0
2024-08-19 18:47:47			0	36941	0	0	0	28888	27490	159362	27069	1072450	46531	110737	0	0	8057	584104	0	0
2024-08-19 18:48:47			0	36926	0	0	0	28883	27500	159486	27097	1072405	46531	110735	0	0	8056	584675	0	0
2024-08-19 18:49:47			0	36908	0	0	0	28877	27490	159550	26798	1072414	46530	110733	0	0	8055	585435	0	0
2024-08-19 18:50:47			0	36897	0	0	0	28875	27490	159522	27284	1072396	46541	110732	0	0	8054	585880	0	0
2024-08-19 18:51:47			0	36893	0	0	0	28862	27490	159498	27013	1072333	46519	110727	0	0	8054	586041	0	0
2024-08-19 18:52:47			0	36892	0	0	0	28880	27480	159618	26849	1072405	46530	110734	0	0	8054	586115	0	0
2024-08-19 18:53:47			0	36900	0	0	0	28885	27490	159678	26887	1072333	46541	110736	0	0	8054	585758	0	0
2024-08-19 18:54:47			0	36918	0	0	0	28885	27480	159454	26920	1072459	46530	110736	0	0	8055	585065	0	0
2024-08-19 18:55:47			0	36895	0	0	0	28883	27490	159506	27052	1072360	46530	110735	0	0	8054	585960	0	0
2024-08-19 18:56:47			0	36921	0	0	0	28870	27480	159514	26889	1072405	46541	110730	0	0	8056	584944	0	0
2024-08-19 18:57:47			0	36923	0	0	0	28877	27480	159418	27057	1072405	46541	110733	0	0	8056	584864	0	0
2024-08-19 18:58:47			0	36915	0	0	0	28872	27480	159438	27045	1072342	46518	110731	0	0	8055	585186	0	0
2024-08-19 18:59:47			0	36925	0	0	0	28872	27480	159414	27170	1072378	46530	110731	0	0	8056	584783	0	0
2024-08-19 19:00:47			0	36910	0	0	0	28870	27480	159466	27163	1072396	46518	110730	0	0	8055	585388	0	0
2024-08-19 19:01:47			0	36926	0	0	0	28867	27490	159402	26960	1072333	46541	110729	0	0	8056	584709	0	0
2024-08-19 19:02:47			0	36926	0	0	0	28867	27480	159418	27161	1072324	46541	110729	0	0	8056	584743	0	0
2024-08-19 19:03:47			0	36927	0	0	0	28867	27490	159346	26961	1072414	46530	110729	0	0	8056	584669	0	0
2024-08-19 19:04:47			0	36945	0	0	0	28872	27480	159462	27156	1072342	46540	110731	0	0	8057	583976	0	0
2024-08-19 19:05:47			0	36943	0	0	0	28867	27480	159290	27059	1072396	46529	110729	0	0	8057	584057	0	0
2024-08-19 19:06:47			0	36934	0	0	0	28872	27490	159274	26733	1072414	46541	110731	0	0	8056	584386	0	0
2024-08-19 19:07:47			0	36931	0	0	0	28872	27480	159362	27088	1072324	46541	110731	0	0	8056	584541	0	0
2024-08-19 19:08:47			0	36920	0	0	0	28870	27490	159338	27038	1072423	46531	110730	0	0	8056	584951	0	0
2024-08-19 19:09:47			0	36944	0	0	0	28870	27480	159302	27161	1072432	46541	110730	0	0	8057	584017	0	0
2024-08-19 19:10:47			0	36932	0	0	0	28875	27480	159390	27086	1072351	46530	110732	0	0	8056	584501	0	0
2024-08-19 19:11:47			0	36939	0	0	0	28890	27480	159446	27112	1072396	46540	110738	0	0	8056	584218	0	0
2024-08-19 19:12:47			0	36933	0	0	0	28888	27480	159402	26897	1072432	46530	110737	0	0	8056	584460	0	0
2024-08-19 19:13:47			0	36933	0	0	0	28890	27480	159462	26946	1072405	46530	110738	0	0	8056	584460	0	0
2024-08-19 19:14:47			0	36950	0	0	0	28901	27490	159302	27050	1072387	46530	110742	0	0	8057	583741	0	0
2024-08-19 19:15:47			0	36955	0	0	0	28898	27490	159358	27027	1072477	46541	110741	0	0	8057	583540	0	0
2024-08-19 19:16:47			0	36959	0	0	0	28901	27480	159302	27010	1072432	46530	110742	0	0	8057	583412	0	0
2024-08-19 19:17:47			0	36897	0	0	0	28893	27490	159462	27008	1072414	46530	110739	0	0	8054	585880	0	0
2024-08-19 19:18:47			0	36846	0	0	0	28898	27480	159654	26734	1072486	46530	110741	0	0	8051	587976	0	0
2024-08-19 19:19:47			0	36824	0	0	0	28888	27490	159714	27092	1072414	46541	110737	0	0	8050	588833	0	0
2024-08-19 19:20:47			0	36788	0	0	0	28888	27480	159962	26686	1072405	46530	110737	0	0	8048	590328	0	0
2024-08-19 19:21:47			0	36790	0	0	0	28880	27490	160002	26689	1072423	46531	110734	0	0	8048	590213	0	0
2024-08-19 19:22:47			0	36774	0	0	0	28870	27490	159882	27064	1072387	46519	110730	0	0	8047	590862	0	0
2024-08-19 19:23:47			0	36799	0	0	0	28864	27480	159894	27194	1072405	46519	110728	0	0	8049	589881	0	0
2024-08-19 19:24:47			0	36793	0	0	0	28864	27490	159954	27182	1072333	46530	110728	0	0	8048	590091	0	0
2024-08-19 19:25:47			0	36767	0	0	0	28864	27490	160034	27249	1072333	46541	110728	0	0	8047	591147	0	0
2024-08-19 19:26:47			0	36751	0	0	0	28867	27480	160170	26998	1072324	46530	110729	0	0	8046	591831	0	0
2024-08-19 19:27:47			0	36729	0	0	0	28859	27470	160282	26958	1072252	46529	110726	0	0	8044	592761	0	0
2024-08-19 19:28:47			0	36690	0	0	0	28864	27470	160378	27173	1072306	46529	110728	0	0	8042	594350	0	0
2024-08-19 19:29:47			0	36695	0	0	0	28864	27480	160430	27244	1072288	46540	110728	0	0	8042	594112	0	0
2024-08-19 19:30:47			0	36675	0	0	0	28859	27480	160490	26857	1072261	46540	110726	0	0	8041	594928	0	0
2024-08-19 19:31:47			0	36671	0	0	0	28864	27470	160370	27057	1072297	46528	110728	0	0	8041	595125	0	0
2024-08-19 19:32:47			0	36658	0	0	0	28864	27460	160534	27145	1072342	46538	110728	0	0	8040	595690	0	0
2024-08-19 19:33:47			0	36679	0	0	0	28857	27460	160574	27235	1072288	46527	110725	0	0	8041	594833	0	0
2024-08-19 19:34:47			0	36677	0	0	0	28851	27460	160590	27116	1072252	46527	110723	0	0	8041	594915	0	0
2024-08-19 19:35:47			0	36679	0	0	0	28846	27460	160630	26847	1072171	46527	110721	0	0	8042	594833	0	0
2024-08-19 19:36:47			0	36668	0	0	0	28854	27460	160622	26861	1072261	46549	110724	0	0	8041	595282	0	0
2024-08-19 19:37:47			0	36688	0	0	0	28838	27460	160538	26918	1072252	46527	110718	0	0	8042	594466	0	0
2024-08-19 19:38:47			0	36693	0	0	0	28844	27460	160458	27159	1072252	46538	110720	0	0	8043	594262	0	0
2024-08-19 19:39:47			0	36693	0	0	0	28844	27450	160550	27206	1072135	46516	110720	0	0	8042	594296	0	0
2024-08-19 19:40:47			0	36712	0	0	0	28836	27440	160414	27203	1072198	46536	110717	0	0	8044	593555	0	0
2024-08-19 19:41:47			0	36720	0	0	0	28828	27450	160322	27111	1072189	46527	110714	0	0	8044	593195	0	0
2024-08-19 19:42:47			0	36729	0	0	0	28833	27450	160358	27213	1072234	46526	110716	0	0	8045	592829	0	0
2024-08-19 19:43:47			0	36759	0	0	0	28833	27450	160354	27142	1072153	46537	110716	0	0	8047	591608	0	0
2024-08-19 19:44:47			0	36772	0	0	0	28831	27450	160142	27145	1072126	46537	110715	0	0	8047	591080	0	0
2024-08-19 19:45:47			0	36765	0	0	0	28833	27450	160138	26927	1072189	46538	110716	0	0	8047	591364	0	0
2024-08-19 19:46:47			0	36784	0	0	0	28838	27450	160054	26887	1072126	46537	110718	0	0	8048	590592	0	0
2024-08-19 19:47:47			0	36807	0	0	0	28825	27440	160042	26654	1072108	46514	110713	0	0	8050	589692	0	0
2024-08-19 19:48:47			0	36824	0	0	0	28823	27440	159866	26989	1072135	46536	110712	0	0	8051	589003	0	0
2024-08-19 19:49:47			0	36831	0	0	0	28831	27430	159930	26958	1072171	46535	110715	0	0	8051	588753	0	0
2024-08-19 19:50:47			0	36838	0	0	0	28831	27440	159830	27116	1072117	46525	110715	0	0	8051	588435	0	0
2024-08-19 19:51:47			0	36828	0	0	0	28823	27430	159866	27083	1072072	46525	110712	0	0	8051	588874	0	0
2024-08-19 19:52:47			0	36843	0	0	0	28820	27440	159878	26996	1072108	46536	110711	0	0	8052	588233	0	0
2024-08-19 19:53:47			0	36861	0	0	0	28807	27440	159758	27010	1072108	46547	110706	0	0	8053	587504	0	0
2024-08-19 19:54:47			0	36865	0	0	0	28812	27430	159622	26896	1072063	46513	110708	0	0	8053	587376	0	0
2024-08-19 19:55:47			0	36865	0	0	0	28818	27430	159630	26920	1072063	46524	110710	0	0	8053	587376	0	0
2024-08-19 19:56:47			0	36883	0	0	0	28836	27430	159642	27111	1072099	46536	110717	0	0	8054	586648	0	0
2024-08-19 19:57:47			0	36895	0	0	0	28833	27430	159634	26738	1072126	46536	110716	0	0	8055	586162	0	0
2024-08-19 19:58:47			0	36920	0	0	0	28851	27430	159466	26911	1072126	46547	110723	0	0	8056	585153	0	0
2024-08-19 19:59:47			0	36921	0	0	0	28854	27430	159518	26580	1072126	46536	110724	0	0	8056	585112	0	0
2024-08-19 20:00:47			0	36902	0	0	0	28862	27430	159602	26738	1072225	46546	110727	0	0	8054	585880	0	0
2024-08-19 20:01:47			0	36874	0	0	0	28872	27440	159702	26878	1072198	46547	110731	0	0	8053	586978	0	0
2024-08-19 20:02:47			0	36864	0	0	0	28862	27440	159794	26826	1072225	46536	110727	0	0	8052	587383	0	0
2024-08-19 20:03:47			0	36842	0	0	0	28859	27440	159838	26876	1072225	46536	110726	0	0	8051	588273	0	0
2024-08-19 20:04:47			0	36818	0	0	0	28862	27450	159946	26805	1072180	46537	110727	0	0	8050	589212	0	0
2024-08-19 20:05:47			0	36819	0	0	0	28849	27440	159946	26828	1072198	46536	110722	0	0	8050	589205	0	0
2024-08-19 20:06:47			0	36798	0	0	0	28851	27450	160002	26977	1072378	46527	110723	0	0	8049	590023	0	0
2024-08-19 20:07:47			0	36791	0	0	0	28838	27450	159986	27100	1072234	46537	110718	0	0	8048	590308	0	0
2024-08-19 20:08:47			0	36791	0	0	0	28831	27440	160058	26696	1072198	46525	110715	0	0	8048	590342	0	0
2024-08-19 20:09:47			0	36796	0	0	0	28844	27450	160126	27062	1072180	46526	110720	0	0	8049	590105	0	0
2024-08-19 20:10:47			0	36781	0	0	0	28831	27440	160150	26920	1072198	46525	110715	0	0	8048	590748	0	0
2024-08-19 20:11:47			0	36788	0	0	0	28838	27450	160066	26913	1072153	46526	110718	0	0	8048	590430	0	0
2024-08-19 20:12:47			0	36775	0	0	0	28851	27450	160102	26953	1072180	46526	110723	0	0	8047	590957	0	0
2024-08-19 20:13:47			0	36760	0	0	0	28833	27450	160122	26979	1072180	46537	110716	0	0	8047	591567	0	0
2024-08-19 20:14:47			0	36778	0	0	0	28836	27440	160030	27029	1072198	46547	110717	0	0	8048	590870	0	0
2024-08-19 20:15:47			0	36787	0	0	0	28828	27450	160214	27170	1072189	46527	110714	0	0	8048	590470	0	0
2024-08-19 20:16:47			0	36784	0	0	0	28815	27440	160050	27135	1072198	46536	110709	0	0	8048	590626	0	0
2024-08-19 20:17:47			0	36802	0	0	0	28815	27440	160098	27123	1072117	46525	110709	0	0	8049	589895	0	0
2024-08-19 20:18:47			0	36783	0	0	0	28807	27440	160106	27010	1072108	46514	110706	0	0	8048	590667	0	0
2024-08-19 20:19:47			0	36796	0	0	0	28810	27430	160098	27119	1072072	46514	110707	0	0	8049	590173	0	0
2024-08-19 20:20:47			0	36784	0	0	0	28784	27430	160038	26902	1072010	46535	110697	0	0	8049	590660	0	0
2024-08-19 20:21:47			0	36792	0	0	0	28786	27420	160134	26913	1072028	46523	110698	0	0	8049	590369	0	0
2024-08-19 20:22:47			0	36813	0	0	0	28799	27420	160042	26887	1071992	46512	110703	0	0	8050	589517	0	0
2024-08-19 20:23:47			0	36786	0	0	0	28810	27420	160002	26753	1071992	46523	110707	0	0	8048	590613	0	0
2024-08-19 20:24:47			0	36805	0	0	0	28810	27420	160054	26974	1072001	46523	110707	0	0	8050	589841	0	0
2024-08-19 20:25:47			0	36790	0	0	0	28799	27410	160034	26752	1071956	46522	110703	0	0	8049	590484	0	0
2024-08-19 20:26:47			0	36795	0	0	0	28792	27420	160058	27079	1071974	46534	110700	0	0	8049	590247	0	0
2024-08-19 20:27:47			0	36820	0	0	0	28799	27410	159966	26830	1071983	46533	110703	0	0	8051	589266	0	0
2024-08-19 20:28:47			0	36808	0	0	0	28802	27410	159946	26712	1072009	46533	110704	0	0	8050	589753	0	0
2024-08-19 20:29:47			0	36812	0	0	0	28802	27410	160066	26549	1071892	46522	110704	0	0	8050	589591	0	0
2024-08-19 20:30:47			0	36798	0	0	0	28786	27400	160034	26654	1071937	46532	110698	0	0	8049	590193	0	0
2024-08-19 20:31:47			0	36806	0	0	0	28771	27410	160002	26741	1071946	46533	110692	0	0	8050	589834	0	0
2024-08-19 20:32:47			0	36815	0	0	0	28771	27410	160006	26641	1071919	46533	110692	0	0	8051	589469	0	0
2024-08-19 20:33:47			0	36827	0	0	0	28768	27390	160046	26797	1071865	46531	110691	0	0	8051	589050	0	0
2024-08-19 20:34:47			0	36808	0	0	0	28766	27400	159998	27010	1071901	46509	110690	0	0	8050	589787	0	0
2024-08-19 20:35:47			0	36817	0	0	0	28779	27400	160038	26517	1071955	46520	110695	0	0	8051	589422	0	0
2024-08-19 20:36:47			0	36811	0	0	0	28776	27390	160178	26923	1071830	46520	110694	0	0	8050	589699	0	0
2024-08-19 20:37:47			0	36799	0	0	0	28753	27390	160054	26802	1071803	46520	110685	0	0	8050	590187	0	0
2024-08-19 20:38:47			0	36813	0	0	0	28740	27380	160094	27144	1071811	46518	110680	0	0	8051	589652	0	0
2024-08-19 20:39:47			0	36821	0	0	0	28722	27370	160114	26781	1071749	46507	110673	0	0	8052	589361	0	0
2024-08-19 20:40:47			0	36834	0	0	0	28703	27360	160022	27092	1071677	46495	110666	0	0	8053	588868	0	0
2024-08-19 20:41:47			0	36818	0	0	0	28711	27360	160046	26764	1071668	46505	110669	0	0	8052	589517	0	0
2024-08-19 20:42:47			0	36827	0	0	0	28696	27350	159938	27102	1071524	46494	110663	0	0	8052	589186	0	0
2024-08-19 20:43:47			0	36844	0	0	0	28680	27360	160090	26989	1071587	46516	110657	0	0	8054	588463	0	0
2024-08-19 20:44:47			0	36853	0	0	0	28667	27330	159894	26991	1071488	46502	110652	0	0	8054	588199	0	0
2024-08-19 20:45:47			0	36863	0	0	0	28664	27320	159906	26764	1071461	46501	110651	0	0	8055	587828	0	0
2024-08-19 20:46:47			0	36827	0	0	0	28657	27320	160002	26961	1071461	46512	110648	0	0	8053	589287	0	0
2024-08-19 20:47:47			0	36798	0	0	0	28644	27300	160134	27052	1071353	46500	110643	0	0	8051	590532	0	0
2024-08-19 20:48:47			0	36764	0	0	0	28623	27300	160334	26984	1071326	46500	110635	0	0	8050	591915	0	0
2024-08-19 20:49:47			0	36737	0	0	0	28597	27290	160390	26883	1071228	46509	110625	0	0	8049	593048	0	0
2024-08-19 20:50:47			0	36712	0	0	0	28605	27280	160566	27085	1071200	46498	110628	0	0	8047	594101	0	0
2024-08-19 20:51:47			0	36684	0	0	0	28597	27270	160606	26915	1071218	46485	110625	0	0	8045	595279	0	0
2024-08-19 20:52:47			0	36687	0	0	0	28589	27270	160682	26861	1071129	46484	110622	0	0	8046	595156	0	0
2024-08-19 20:53:47			0	36693	0	0	0	28584	27250	160810	26823	1070994	46516	110620	0	0	8046	594979	0	0
2024-08-19 20:54:47			0	36677	0	0	0	28597	27250	160794	26942	1071012	46504	110625	0	0	8045	595633	0	0
2024-08-19 20:55:47			0	36687	0	0	0	28589	27250	160742	26975	1071012	46504	110622	0	0	8045	595224	0	0
2024-08-19 20:56:47			0	36678	0	0	0	28597	27240	160722	27045	1071030	46515	110625	0	0	8045	595626	0	0
2024-08-19 20:57:47			0	36701	0	0	0	28597	27230	160618	26944	1071039	46503	110625	0	0	8046	594721	0	0
2024-08-19 20:58:47			0	36716	0	0	0	28612	27230	160518	26771	1071039	46493	110631	0	0	8047	594109	0	0
2024-08-19 20:59:47			0	36722	0	0	0	28623	27230	160598	26989	1071092	46514	110635	0	0	8047	593864	0	0
2024-08-19 21:00:47			0	36718	0	0	0	28610	27230	160518	26535	1071092	46514	110630	0	0	8047	594027	0	0
2024-08-19 21:01:47			0	36723	0	0	0	28597	27240	160554	26974	1071048	46515	110625	0	0	8047	593789	0	0
2024-08-19 21:02:47			0	36734	0	0	0	28586	27230	160514	27173	1071003	46502	110621	0	0	8048	593375	0	0
2024-08-19 21:03:47			0	36749	0	0	0	28573	27220	160426	26842	1070940	46502	110616	0	0	8049	592798	0	0
2024-08-19 21:04:47			0	36743	0	0	0	28553	27210	160374	26706	1070841	46491	110608	0	0	8049	593076	0	0
2024-08-19 21:05:47			0	36758	0	0	0	28540	27200	160358	26982	1070796	46489	110603	0	0	8050	592499	0	0
2024-08-19 21:06:47			0	36774	0	0	0	28532	27190	160342	27441	1070680	46500	110600	0	0	8051	591882	0	0
2024-08-19 21:07:47			0	36771	0	0	0	28527	27180	160298	26863	1070742	46488	110598	0	0	8051	592038	0	0
2024-08-19 21:08:47			0	36755	0	0	0	28537	27180	160382	27310	1070706	46498	110602	0	0	8050	592689	0	0
2024-08-19 21:09:47			0	36748	0	0	0	28540	27170	160350	26901	1070697	46508	110603	0	0	8050	593009	0	0
2024-08-19 21:10:47			0	36742	0	0	0	28540	27170	160402	27135	1070670	46508	110603	0	0	8049	593253	0	0
2024-08-19 21:11:47			0	36745	0	0	0	28537	27180	160406	27145	1070653	46508	110602	0	0	8049	593097	0	0
2024-08-19 21:12:47			0	36742	0	0	0	28542	27170	160586	27260	1070715	46498	110604	0	0	8049	593253	0	0
2024-08-19 21:13:47			0	36748	0	0	0	28535	27160	160462	27187	1070643	46506	110601	0	0	8050	593043	0	0
2024-08-19 21:14:47			0	36737	0	0	0	28514	27160	160470	26930	1070572	46497	110593	0	0	8049	593491	0	0
2024-08-19 21:15:47			0	36729	0	0	0	28506	27160	160586	27251	1070562	46496	110590	0	0	8049	593817	0	0
2024-08-19 21:16:47			0	36758	0	0	0	28496	27140	160482	27057	1070526	46494	110586	0	0	8051	592703	0	0
2024-08-19 21:17:47			0	36740	0	0	0	28490	27150	160402	27222	1070491	46485	110584	0	0	8050	593403	0	0
2024-08-19 21:18:47			0	36730	0	0	0	28475	27140	160554	27012	1070482	46472	110578	0	0	8049	593845	0	0
2024-08-19 21:19:47			0	36736	0	0	0	28475	27130	160454	26849	1070374	46493	110578	0	0	8050	593634	0	0
2024-08-19 21:20:47			0	36718	0	0	0	28472	27120	160542	26920	1070365	46482	110577	0	0	8049	594403	0	0
2024-08-19 21:21:47			0	36721	0	0	0	28470	27120	160746	26987	1070410	46492	110576	0	0	8049	594280	0	0
2024-08-19 21:22:47			0	36720	0	0	0	28457	27120	160706	26679	1070356	46514	110571	0	0	8049	594321	0	0
2024-08-19 21:23:47			0	36707	0	0	0	28459	27110	160722	26989	1070347	46491	110572	0	0	8048	594886	0	0
2024-08-19 21:24:47			0	36729	0	0	0	28459	27100	160666	27104	1070356	46480	110572	0	0	8049	594022	0	0
2024-08-19 21:25:47			0	36745	0	0	0	28457	27100	160562	26915	1070302	46491	110571	0	0	8050	593369	0	0
2024-08-19 21:26:47			0	36757	0	0	0	28449	27100	160486	26760	1070293	46490	110568	0	0	8051	592880	0	0
2024-08-19 21:27:47			0	36781	0	0	0	28431	27090	160382	26866	1070257	46489	110561	0	0	8053	591937	0	0
2024-08-19 21:28:47			0	36782	0	0	0	28441	27100	160298	27048	1070239	46479	110565	0	0	8053	591862	0	0
2024-08-19 21:29:47			0	36836	0	0	0	28436	27090	160286	26823	1070167	46489	110563	0	0	8056	589701	0	0
2024-08-19 21:30:47			0	36856	0	0	0	28428	27080	160022	27024	1070176	46488	110560	0	0	8057	588923	0	0
2024-08-19 21:31:47			0	36855	0	0	0	28433	27070	160062	26965	1070140	46498	110562	0	0	8057	588997	0	0
2024-08-19 21:32:47			0	36873	0	0	0	28386	27070	160166	26746	1070033	46498	110544	0	0	8059	588267	0	0
2024-08-19 21:33:47			0	36867	0	0	0	28353	27050	160022	27157	1069943	46462	110531	0	0	8059	588578	0	0
2024-08-19 21:34:47			0	36876	0	0	0	28329	27050	160178	27230	1069907	46462	110522	0	0	8060	588213	0	0
2024-08-19 21:35:47			0	36877	0	0	0	28301	27020	159946	27161	1069799	46471	110511	0	0	8060	588274	0	0
2024-08-19 21:36:47			0	36882	0	0	0	28303	27020	160042	27069	1069745	46459	110512	0	0	8061	588071	0	0
2024-08-19 21:37:47			0	36907	0	0	0	28319	27010	160046	27126	1069700	46469	110518	0	0	8062	587092	0	0
2024-08-19 21:38:47			0	36917	0	0	0	28327	27000	159842	27020	1069664	46480	110521	0	0	8062	586721	0	0
2024-08-19 21:39:47			0	36940	0	0	0	28311	26980	159854	26948	1069619	46455	110515	0	0	8064	585858	0	0
2024-08-19 21:40:47			0	36963	0	0	0	28319	26980	159802	27038	1069619	46477	110518	0	0	8065	584928	0	0
2024-08-19 21:41:47			0	36971	0	0	0	28322	26990	159698	27019	1069664	46467	110519	0	0	8066	584572	0	0
2024-08-19 21:42:47			0	37006	0	0	0	28311	26970	159718	26814	1069637	46466	110515	0	0	8068	583227	0	0
2024-08-19 21:43:47			0	37006	0	0	0	28306	26960	159566	26771	1069619	46465	110513	0	0	8068	583260	0	0
2024-08-19 21:44:47			0	37033	0	0	0	28316	26960	159434	26875	1069511	46476	110517	0	0	8069	582172	0	0
2024-08-19 21:45:47			0	37074	0	0	0	28303	26960	159338	27038	1069538	46465	110512	0	0	8072	580523	0	0
2024-08-19 21:46:47			0	37109	0	0	0	28311	26950	159274	26844	1069493	46475	110515	0	0	8074	579151	0	0
2024-08-19 21:47:47			0	37157	0	0	0	28306	26950	158942	26835	1069547	46475	110513	0	0	8077	577227	0	0
2024-08-19 21:48:47			0	37168	0	0	0	28316	26950	158810	27126	1069457	46463	110517	0	0	8077	576787	0	0
2024-08-19 21:49:47			0	37179	0	0	0	28322	26940	158930	26817	1069556	46474	110519	0	0	8078	576380	0	0
2024-08-19 21:50:47			0	37178	0	0	0	28316	26940	158734	27055	1069556	46474	110517	0	0	8078	576420	0	0
2024-08-19 21:51:47			0	37184	0	0	0	28324	26950	158870	26788	1069484	46485	110520	0	0	8078	576147	0	0
2024-08-19 21:52:47			0	37184	0	0	0	28335	26950	158862	27116	1069538	46485	110524	0	0	8078	576147	0	0
2024-08-19 21:53:47			0	37185	0	0	0	28329	26920	158926	26849	1069475	46483	110522	0	0	8078	576206	0	0
2024-08-19 21:54:47			0	37175	0	0	0	28319	26940	158866	26981	1069475	46474	110518	0	0	8077	576540	0	0
2024-08-19 21:55:47			0	37194	0	0	0	28327	26940	158874	27010	1069529	46485	110521	0	0	8078	575780	0	0
2024-08-19 21:56:47			0	37192	0	0	0	28340	26940	158734	27112	1069610	46485	110526	0	0	8078	575860	0	0
2024-08-19 21:57:47			0	37180	0	0	0	28345	26940	158842	27289	1069556	46474	110528	0	0	8077	576340	0	0
2024-08-19 21:58:47			0	37170	0	0	0	28340	26940	158902	26928	1069583	46485	110526	0	0	8077	576740	0	0
2024-08-19 21:59:47			0	37174	0	0	0	28337	26950	158942	26760	1069511	46485	110525	0	0	8077	576547	0	0
2024-08-19 22:00:47			0	37166	0	0	0	28335	26950	158930	26890	1069538	46485	110524	0	0	8077	576867	0	0
2024-08-19 22:01:47			0	37150	0	0	0	28340	26950	159054	27022	1069592	46485	110526	0	0	8076	577507	0	0
2024-08-19 22:02:47			0	37146	0	0	0	28340	26950	159082	27010	1069592	46485	110526	0	0	8075	577668	0	0
2024-08-19 22:03:47			0	37136	0	0	0	28348	26930	159046	26968	1069547	46484	110529	0	0	8074	578135	0	0
2024-08-19 22:04:47			0	37121	0	0	0	28342	26950	159066	26873	1069538	46474	110527	0	0	8074	578670	0	0
2024-08-19 22:05:47			0	37123	0	0	0	28348	26950	159158	26880	1069619	46485	110529	0	0	8074	578589	0	0
2024-08-19 22:06:47			0	37108	0	0	0	28350	26950	159238	26805	1069538	46485	110530	0	0	8073	579191	0	0
2024-08-19 22:07:47			0	37097	0	0	0	28363	26940	159242	27121	1069556	46485	110535	0	0	8072	579666	0	0
2024-08-19 22:08:47			0	37098	0	0	0	28348	26960	159350	26928	1069664	46475	110529	0	0	8072	579559	0	0
2024-08-19 22:09:47			0	37084	0	0	0	28335	26950	159322	27104	1069565	46485	110524	0	0	8072	580155	0	0
2024-08-19 22:10:47			0	37070	0	0	0	28337	26950	159426	26845	1069547	46486	110525	0	0	8071	580717	0	0
2024-08-19 22:11:47			0	37062	0	0	0	28332	26940	159358	27060	1069583	46485	110523	0	0	8070	581072	0	0
2024-08-19 22:12:47			0	37049	0	0	0	28340	26940	159330	26772	1069556	46485	110526	0	0	8070	581595	0	0
2024-08-19 22:13:47			0	37055	0	0	0	28335	26950	159430	26812	1069547	46486	110524	0	0	8070	581320	0	0
2024-08-19 22:14:47			0	37049	0	0	0	28332	26950	159430	27036	1069592	46485	110523	0	0	8070	581562	0	0
2024-08-19 22:15:47			0	37044	0	0	0	28345	26950	159398	26658	1069619	46485	110528	0	0	8069	581763	0	0
2024-08-19 22:16:47			0	37069	0	0	0	28353	26950	159342	26953	1069601	46498	110531	0	0	8071	580757	0	0
2024-08-19 22:17:47			0	37054	0	0	0	28361	26960	159418	27150	1069610	46475	110534	0	0	8070	581327	0	0
2024-08-19 22:18:47			0	37054	0	0	0	28368	26960	159402	26970	1069664	46486	110537	0	0	8069	581327	0	0
2024-08-19 22:19:47			0	37050	0	0	0	28363	26960	159418	26859	1069673	46476	110535	0	0	8069	581488	0	0
2024-08-19 22:20:47			0	37067	0	0	0	28374	26960	159378	27098	1069673	46487	110539	0	0	8070	580804	0	0
2024-08-19 22:21:47			0	37053	0	0	0	28371	26960	159250	27154	1069646	46487	110538	0	0	8069	581367	0	0
2024-08-19 22:22:47			0	37067	0	0	0	28363	26970	159346	27138	1069735	46499	110535	0	0	8070	580771	0	0
2024-08-19 22:23:47			0	37070	0	0	0	28374	26960	159326	26935	1069646	46487	110539	0	0	8070	580684	0	0
2024-08-19 22:24:47			0	37060	0	0	0	28368	26960	159370	27201	1069700	46476	110537	0	0	8070	581086	0	0
2024-08-19 22:25:47			0	37074	0	0	0	28368	26970	159446	27352	1069691	46488	110537	0	0	8071	580490	0	0
2024-08-19 22:26:47			0	37074	0	0	0	28376	26960	159318	27033	1069673	46476	110540	0	0	8071	580523	0	0
2024-08-19 22:27:47			0	37078	0	0	0	28371	26980	159314	27161	1069780	46477	110538	0	0	8071	580296	0	0
2024-08-19 22:28:47			0	37072	0	0	0	28376	26980	159206	27326	1069700	46488	110540	0	0	8070	580537	0	0
2024-08-19 22:29:47			0	37082	0	0	0	28389	26970	159214	27331	1069735	46476	110545	0	0	8071	580168	0	0
2024-08-19 22:30:47			0	37093	0	0	0	28384	26980	159162	27159	1069780	46477	110543	0	0	8072	579693	0	0
2024-08-19 22:31:47			0	37084	0	0	0	28384	26970	159226	27159	1069744	46488	110543	0	0	8071	580088	0	0
2024-08-19 22:32:47			0	37106	0	0	0	28371	26970	159258	27048	1069709	46487	110538	0	0	8073	579205	0	0
2024-08-19 22:33:47			0	37099	0	0	0	28368	26980	159238	27286	1069726	46477	110537	0	0	8072	579453	0	0
2024-08-19 22:34:47			0	37090	0	0	0	28361	26970	159174	27135	1069718	46477	110534	0	0	8072	579847	0	0
2024-08-19 22:35:47			0	37081	0	0	0	28353	26970	159242	27358	1069691	46488	110531	0	0	8071	580209	0	0
2024-08-19 22:36:47			0	37104	0	0	0	28353	26980	159194	27038	1069673	46477	110531	0	0	8073	579252	0	0
2024-08-19 22:37:47			0	37101	0	0	0	28353	26970	159218	26769	1069682	46487	110531	0	0	8073	579406	0	0
2024-08-19 22:38:47			0	37087	0	0	0	28353	26970	159194	27140	1069709	46476	110531	0	0	8072	579968	0	0
2024-08-19 22:39:47			0	37100	0	0	0	28353	26980	159186	27131	1069726	46477	110531	0	0	8073	579413	0	0
2024-08-19 22:40:47			0	37115	0	0	0	28353	26960	159066	26965	1069673	46454	110531	0	0	8073	578877	0	0
2024-08-19 22:41:47			0	37137	0	0	0	28337	26960	159022	27116	1069673	46476	110525	0	0	8075	577995	0	0
2024-08-19 22:42:47			0	37134	0	0	0	28332	26970	159058	27334	1069601	46476	110523	0	0	8075	578082	0	0
2024-08-19 22:43:47			0	37141	0	0	0	28324	26950	158958	27312	1069628	46486	110520	0	0	8075	577868	0	0
2024-08-19 22:44:47			0	37160	0	0	0	28306	26950	158950	27095	1069547	46486	110513	0	0	8077	577107	0	0
2024-08-19 22:45:47			0	37149	0	0	0	28316	26950	158934	26781	1069574	46475	110517	0	0	8076	577548	0	0
2024-08-19 22:46:47			0	37142	0	0	0	28316	26930	159022	27268	1069493	46462	110517	0	0	8075	577894	0	0
2024-08-19 22:47:47			0	37145	0	0	0	28311	26940	158998	27149	1069502	46474	110515	0	0	8076	577741	0	0
2024-08-19 22:48:47			0	37154	0	0	0	28316	26940	159014	26996	1069529	46463	110517	0	0	8076	577380	0	0
2024-08-19 22:49:47			0	37132	0	0	0	28322	26940	159050	27225	1069529	46474	110519	0	0	8075	578262	0	0
2024-08-19 22:50:47			0	37134	0	0	0	28316	26940	158990	27150	1069556	46474	110517	0	0	8075	578182	0	0
2024-08-19 22:51:47			0	37139	0	0	0	28319	26930	158990	27017	1069574	46473	110518	0	0	8075	578014	0	0
2024-08-19 22:52:47			0	37136	0	0	0	28327	26930	159002	26873	1069466	46473	110521	0	0	8075	578135	0	0
2024-08-19 22:53:47			0	37119	0	0	0	28345	26920	159046	27211	1069529	46483	110528	0	0	8073	578849	0	0
2024-08-19 22:54:47			0	37112	0	0	0	28335	26930	159126	27194	1069511	46483	110524	0	0	8073	579097	0	0
2024-08-19 22:55:47			0	37127	0	0	0	28324	26930	159162	27157	1069574	46473	110520	0	0	8074	578495	0	0
2024-08-19 22:56:47			0	37125	0	0	0	28322	26930	159118	27176	1069574	46484	110519	0	0	8074	578576	0	0
2024-08-19 22:57:47			0	37099	0	0	0	28316	26930	159062	27138	1069520	46473	110517	0	0	8073	579619	0	0
2024-08-19 22:58:47			0	37114	0	0	0	28319	26940	159106	27246	1069448	46485	110518	0	0	8074	578984	0	0
2024-08-19 22:59:47			0	37133	0	0	0	28316	26930	159110	26918	1069457	46461	110517	0	0	8075	578255	0	0
2024-08-19 23:00:47			0	37122	0	0	0	28311	26930	159066	26741	1069457	46472	110515	0	0	8074	578696	0	0
2024-08-19 23:01:47			0	37122	0	0	0	28316	26930	159146	26982	1069520	46473	110517	0	0	8074	578696	0	0
2024-08-19 23:02:47			0	37122	0	0	0	28322	26920	159118	27098	1069475	46472	110519	0	0	8074	578729	0	0
2024-08-19 23:03:47			0	37121	0	0	0	28319	26930	159026	27171	1069484	46483	110518	0	0	8074	578736	0	0
2024-08-19 23:04:47			0	37124	0	0	0	28309	26930	159106	26835	1069511	46461	110514	0	0	8074	578616	0	0
2024-08-19 23:05:47			0	37136	0	0	0	28316	26920	159110	27142	1069475	46483	110517	0	0	8075	578168	0	0
2024-08-19 23:06:47			0	37119	0	0	0	28316	26920	159030	26824	1069502	46483	110517	0	0	8074	578849	0	0
2024-08-19 23:07:47			0	37131	0	0	0	28316	26920	159042	27234	1069502	46483	110517	0	0	8075	578368	0	0
2024-08-19 23:08:47			0	37141	0	0	0	28322	26910	158982	27119	1069511	46471	110519	0	0	8075	578001	0	0
2024-08-19 23:09:47			0	37141	0	0	0	28314	26920	158982	26797	1069529	46472	110516	0	0	8075	577967	0	0
2024-08-19 23:10:47			0	37145	0	0	0	28316	26920	158950	27095	1069439	46460	110517	0	0	8076	577807	0	0
2024-08-19 23:11:47			0	37142	0	0	0	28316	26910	159014	27254	1069430	46482	110517	0	0	8075	577960	0	0
2024-08-19 23:12:47			0	37131	0	0	0	28306	26910	159042	27034	1069484	46471	110513	0	0	8075	578401	0	0
2024-08-19 23:13:47			0	37120	0	0	0	28296	26910	159078	26894	1069448	46470	110509	0	0	8074	578842	0	0
2024-08-19 23:14:47			0	37121	0	0	0	28298	26910	159058	27124	1069457	46460	110510	0	0	8074	578802	0	0
2024-08-19 23:15:47			0	37124	0	0	0	28293	26920	159074	27232	1069412	46460	110508	0	0	8075	578649	0	0
2024-08-19 23:16:47			0	37115	0	0	0	28285	26920	159010	27019	1069439	46482	110505	0	0	8074	579010	0	0
2024-08-19 23:17:47			0	37138	0	0	0	28298	26910	159062	26835	1069421	46459	110510	0	0	8075	578121	0	0
2024-08-19 23:18:47			0	37123	0	0	0	28293	26910	159006	27419	1069367	46470	110508	0	0	8075	578722	0	0
2024-08-19 23:19:47			0	37106	0	0	0	28288	26890	159018	26908	1069331	46468	110506	0	0	8074	579471	0	0
2024-08-19 23:20:47			0	37130	0	0	0	28285	26900	159014	26975	1069385	46470	110505	0	0	8075	578475	0	0
2024-08-19 23:21:47			0	37132	0	0	0	28290	26900	159002	26896	1069385	46470	110507	0	0	8075	578394	0	0
2024-08-19 23:22:47			0	37123	0	0	0	28285	26910	159038	26937	1069367	46481	110505	0	0	8075	578722	0	0
2024-08-19 23:23:47			0	37118	0	0	0	28275	26900	158946	27135	1069269	46469	110501	0	0	8075	578956	0	0
2024-08-19 23:24:47			0	37136	0	0	0	28275	26890	159110	27059	1069251	46446	110501	0	0	8076	578267	0	0
2024-08-19 23:25:47			0	37139	0	0	0	28283	26890	159114	26989	1069304	46458	110504	0	0	8076	578147	0	0
2024-08-19 23:26:47			0	37119	0	0	0	28277	26890	159194	27059	1069331	46491	110502	0	0	8075	578949	0	0
2024-08-19 23:27:47			0	37126	0	0	0	28272	26880	159142	27204	1069295	46457	110500	0	0	8075	578701	0	0
2024-08-19 23:28:47			0	37116	0	0	0	28275	26900	159122	27124	1069295	46469	110501	0	0	8074	579036	0	0
2024-08-19 23:29:47			0	37138	0	0	0	28283	26890	159150	26894	1069286	46492	110504	0	0	8076	578187	0	0
2024-08-19 23:30:47			0	37117	0	0	0	28275	26890	159162	26805	1069304	46458	110501	0	0	8074	579029	0	0
2024-08-19 23:31:47			0	37128	0	0	0	28272	26880	159166	27093	1069241	46445	110500	0	0	8075	578621	0	0
2024-08-19 23:32:47			0	37137	0	0	0	28277	26870	159130	27339	1069277	46467	110502	0	0	8075	578293	0	0
2024-08-19 23:33:47			0	37138	0	0	0	28270	26870	159066	27268	1069224	46467	110499	0	0	8076	578253	0	0
2024-08-19 23:34:47			0	37157	0	0	0	28272	26880	159018	27253	1069286	46467	110500	0	0	8077	577459	0	0
2024-08-19 23:35:47			0	37165	0	0	0	28262	26880	158970	27067	1069233	46457	110496	0	0	8077	577138	0	0
2024-08-19 23:36:47			0	37151	0	0	0	28264	26870	158918	26975	1069224	46467	110497	0	0	8077	577732	0	0
2024-08-19 23:37:47			0	37162	0	0	0	28262	26870	158974	27150	1069224	46478	110496	0	0	8077	577292	0	0
2024-08-19 23:38:47			0	37158	0	0	0	28254	26870	158970	27083	1069170	46467	110493	0	0	8077	577452	0	0
2024-08-19 23:39:47			0	37144	0	0	0	28262	26870	159082	27149	1069215	46444	110496	0	0	8076	578013	0	0
2024-08-19 23:40:47			0	37146	0	0	0	28264	26860	159098	27083	1069232	46455	110497	0	0	8076	577966	0	0
2024-08-19 23:41:47			0	37138	0	0	0	28272	26860	159138	27086	1069232	46465	110500	0	0	8076	578286	0	0
2024-08-19 23:42:47			0	37147	0	0	0	28272	26860	159130	27097	1069206	46465	110500	0	0	8076	577926	0	0
2024-08-19 23:43:47			0	37143	0	0	0	28264	26870	159174	27225	1069197	46467	110497	0	0	8076	578053	0	0
2024-08-19 23:44:47			0	37137	0	0	0	28262	26870	159070	27322	1069241	46456	110496	0	0	8076	578293	0	0
2024-08-19 23:45:47			0	37136	0	0	0	28267	26860	159178	26772	1069179	46465	110498	0	0	8076	578366	0	0
2024-08-19 23:46:47			0	37149	0	0	0	28275	26860	159106	27107	1069196	46465	110501	0	0	8076	577846	0	0
2024-08-19 23:47:47			0	37143	0	0	0	28280	26860	159038	27072	1069259	46465	110503	0	0	8076	578086	0	0
2024-08-19 23:48:47			0	37146	0	0	0	28283	26870	159022	26984	1069241	46477	110504	0	0	8076	577933	0	0
2024-08-19 23:49:47			0	37138	0	0	0	28259	26870	159110	27137	1069268	46477	110495	0	0	8076	578253	0	0
2024-08-19 23:50:47			0	37135	0	0	0	28275	26870	159174	27095	1069224	46478	110501	0	0	8075	578374	0	0
2024-08-19 23:51:47			0	37111	0	0	0	28277	26870	159154	27147	1069224	46467	110502	0	0	8074	579336	0	0
2024-08-19 23:52:47			0	37124	0	0	0	28290	26870	159170	27121	1069295	46466	110507	0	0	8074	578815	0	0
2024-08-19 23:53:47			0	37101	0	0	0	28285	26870	159210	26960	1069295	46466	110505	0	0	8073	579738	0	0
2024-08-19 23:54:47			0	37115	0	0	0	28290	26880	159218	27066	1069286	46478	110507	0	0	8074	579142	0	0
2024-08-19 23:55:47			0	37124	0	0	0	28280	26870	159306	26975	1069304	46478	110503	0	0	8075	578815	0	0
2024-08-19 23:56:47			0	37102	0	0	0	28283	26870	159278	26861	1069250	46478	110504	0	0	8073	579698	0	0
2024-08-19 23:57:47			0	37104	0	0	0	28283	26870	159146	27046	1069250	46478	110504	0	0	8073	579617	0	0
2024-08-19 23:58:47			0	37106	0	0	0	28275	26880	159170	26916	1069233	46478	110501	0	0	8074	579504	0	0
2024-08-19 23:59:47			0	37086	0	0	0	28283	26870	159370	27069	1069197	46467	110504	0	0	8072	580340	0	0
2024-08-20 00:00:47			0	37090	0	0	0	28275	26880	159374	27467	1069286	46467	110501	0	0	8073	580146	0	0
2024-08-20 00:01:47			0	37088	0	0	0	28283	26890	159218	26814	1069277	46468	110504	0	0	8073	580193	0	0
2024-08-20 00:02:47			0	37094	0	0	0	28283	26880	159294	27281	1069233	46478	110504	0	0	8073	579986	0	0
2024-08-20 00:03:47			0	37087	0	0	0	28277	26880	159262	26897	1069313	46478	110502	0	0	8073	580267	0	0
2024-08-20 00:04:47			0	37096	0	0	0	28288	26880	159278	27298	1069233	46478	110506	0	0	8073	579905	0	0
2024-08-20 00:05:47			0	37101	0	0	0	28280	26880	159238	26937	1069259	46467	110503	0	0	8073	579704	0	0
2024-08-20 00:06:47			0	37093	0	0	0	28270	26880	159246	27022	1069241	46478	110499	0	0	8073	580026	0	0
2024-08-20 00:07:47			0	37111	0	0	0	28275	26870	159130	27116	1069197	46457	110501	0	0	8074	579336	0	0
2024-08-20 00:08:47			0	37108	0	0	0	28267	26880	159186	27185	1069215	46478	110498	0	0	8074	579423	0	0
2024-08-20 00:09:47			0	37116	0	0	0	28280	26870	159202	27258	1069304	46457	110503	0	0	8074	579136	0	0
2024-08-20 00:10:47			0	37112	0	0	0	28280	26870	159122	27374	1069224	46457	110503	0	0	8074	579296	0	0
2024-08-20 00:11:47			0	37119	0	0	0	28275	26880	159190	27149	1069259	46445	110501	0	0	8074	578982	0	0
2024-08-20 00:12:47			0	37116	0	0	0	28283	26870	159146	26809	1069322	46444	110504	0	0	8074	579136	0	0
2024-08-20 00:13:47			0	37135	0	0	0	28283	26880	159146	27216	1069367	46467	110504	0	0	8075	578340	0	0
2024-08-20 00:14:47			0	37120	0	0	0	28290	26880	159122	27027	1069322	46467	110507	0	0	8074	578942	0	0
2024-08-20 00:15:47			0	37127	0	0	0	28280	26880	159074	27107	1069295	46467	110503	0	0	8075	578661	0	0
2024-08-20 00:16:47			0	37126	0	0	0	28280	26890	159166	26942	1069331	46479	110503	0	0	8075	578668	0	0
2024-08-20 00:17:47			0	37138	0	0	0	28283	26880	159070	27098	1069322	46467	110504	0	0	8075	578220	0	0
2024-08-20 00:18:47			0	37126	0	0	0	28293	26900	159150	27133	1069322	46469	110508	0	0	8075	578635	0	0
2024-08-20 00:19:47			0	37142	0	0	0	28296	26890	159050	26674	1069340	46480	110509	0	0	8076	578027	0	0
2024-08-20 00:20:47			0	37128	0	0	0	28288	26880	159030	26918	1069340	46467	110506	0	0	8075	578621	0	0
2024-08-20 00:21:47			0	37139	0	0	0	28301	26880	159042	27229	1069313	46478	110511	0	0	8075	578180	0	0
2024-08-20 00:22:47			0	37135	0	0	0	28301	26880	159078	26951	1069349	46478	110511	0	0	8075	578340	0	0
2024-08-20 00:23:47			0	37104	0	0	0	28301	26890	159170	26923	1069394	46469	110511	0	0	8073	579551	0	0
2024-08-20 00:24:47			0	37136	0	0	0	28298	26890	159030	27258	1069331	46468	110510	0	0	8075	578267	0	0
2024-08-20 00:25:47			0	37122	0	0	0	28298	26890	159046	26960	1069448	46458	110510	0	0	8074	578828	0	0
2024-08-20 00:26:47			0	37130	0	0	0	28301	26900	159034	27209	1069376	46469	110511	0	0	8075	578475	0	0
2024-08-20 00:27:47			0	37123	0	0	0	28303	26900	159078	26977	1069349	46480	110512	0	0	8074	578755	0	0
2024-08-20 00:28:47			0	37126	0	0	0	28298	26900	159102	27083	1069403	46492	110510	0	0	8075	578635	0	0
2024-08-20 00:29:47			0	37123	0	0	0	28303	26890	158978	27211	1069394	46480	110512	0	0	8074	578788	0	0
2024-08-20 00:30:47			0	37105	0	0	0	28303	26900	159054	26823	1069403	46469	110512	0	0	8073	579478	0	0
2024-08-20 00:31:47			0	37126	0	0	0	28314	26900	159102	26712	1069412	46470	110516	0	0	8074	578635	0	0
2024-08-20 00:32:47			0	37114	0	0	0	28311	26910	159102	26880	1069448	46481	110515	0	0	8074	579083	0	0
2024-08-20 00:33:47			0	37107	0	0	0	28322	26900	159158	27066	1069412	46470	110519	0	0	8073	579397	0	0
2024-08-20 00:34:47			0	37097	0	0	0	28327	26900	159038	26937	1069457	46469	110521	0	0	8072	579799	0	0
2024-08-20 00:35:47			0	37104	0	0	0	28322	26910	159146	26956	1069475	46481	110519	0	0	8073	579484	0	0
2024-08-20 00:36:47			0	37100	0	0	0	28324	26910	159154	27098	1069484	46460	110520	0	0	8073	579645	0	0
2024-08-20 00:37:47			0	37110	0	0	0	28327	26920	159118	27010	1069529	46495	110521	0	0	8073	579210	0	0
2024-08-20 00:38:47			0	37092	0	0	0	28337	26910	159194	27090	1069511	46482	110525	0	0	8072	579966	0	0
2024-08-20 00:39:47			0	37090	0	0	0	28337	26910	159246	27166	1069484	46471	110525	0	0	8072	580047	0	0
2024-08-20 00:40:47			0	37116	0	0	0	28335	26920	159234	27052	1069547	46471	110524	0	0	8073	578970	0	0
2024-08-20 00:41:47			0	37096	0	0	0	28337	26920	159158	26733	1069520	46494	110525	0	0	8072	579772	0	0
2024-08-20 00:42:47			0	37087	0	0	0	28332	26910	159238	26961	1069618	46471	110523	0	0	8072	580167	0	0
2024-08-20 00:43:47			0	37064	0	0	0	28340	26920	159290	26791	1069520	46494	110526	0	0	8070	581058	0	0
2024-08-20 00:44:47			0	37073	0	0	0	28335	26920	159230	27118	1069583	46472	110524	0	0	8071	580696	0	0
2024-08-20 00:45:47			0	37090	0	0	0	28335	26930	159298	27194	1069619	46483	110524	0	0	8072	579980	0	0
2024-08-20 00:46:47			0	37070	0	0	0	28335	26920	159262	26849	1069583	46483	110524	0	0	8071	580817	0	0
2024-08-20 00:47:47			0	37068	0	0	0	28340	26940	159234	27041	1069529	46485	110526	0	0	8071	580831	0	0
2024-08-20 00:48:47			0	37067	0	0	0	28340	26930	159266	27194	1069601	46496	110526	0	0	8071	580904	0	0
2024-08-20 00:49:47			0	37059	0	0	0	28319	26930	159274	27462	1069574	46473	110518	0	0	8070	581226	0	0
2024-08-20 00:50:47			0	37071	0	0	0	28319	26920	159302	27135	1069502	46472	110518	0	0	8071	580777	0	0
2024-08-20 00:51:47			0	37055	0	0	0	28314	26930	159314	27034	1069511	46472	110516	0	0	8070	581387	0	0
2024-08-20 00:52:47			0	37058	0	0	0	28311	26920	159290	26953	1069466	46460	110515	0	0	8070	581300	0	0
2024-08-20 00:53:47			0	37058	0	0	0	28309	26920	159222	26998	1069475	46461	110514	0	0	8071	581300	0	0
2024-08-20 00:54:47			0	37058	0	0	0	28311	26920	159438	27079	1069547	46471	110515	0	0	8070	581300	0	0
2024-08-20 00:55:47			0	37038	0	0	0	28303	26910	159402	26833	1069484	46460	110512	0	0	8069	582138	0	0
2024-08-20 00:56:47			0	37049	0	0	0	28311	26920	159346	26849	1069493	46471	110515	0	0	8070	581662	0	0
2024-08-20 00:57:47			0	37044	0	0	0	28303	26910	159366	26979	1069475	46481	110512	0	0	8070	581896	0	0
2024-08-20 00:58:47			0	37061	0	0	0	28309	26920	159418	26944	1069466	46471	110514	0	0	8071	581179	0	0
2024-08-20 00:59:47			0	37042	0	0	0	28306	26910	159346	27020	1069457	46482	110513	0	0	8070	581977	0	0
2024-08-20 01:00:47			0	37036	0	0	0	28303	26910	159458	26746	1069421	46470	110512	0	0	8069	582218	0	0
2024-08-20 01:01:47			0	37049	0	0	0	28293	26910	159354	27010	1069367	46470	110508	0	0	8070	581695	0	0
2024-08-20 01:02:47			0	37036	0	0	0	28301	26910	159402	26961	1069511	46449	110511	0	0	8069	582218	0	0
2024-08-20 01:03:47			0	37035	0	0	0	28309	26910	159270	26861	1069421	46459	110514	0	0	8069	582259	0	0
2024-08-20 01:04:47			0	37037	0	0	0	28316	26900	159414	27204	1069466	46481	110517	0	0	8069	582212	0	0
2024-08-20 01:05:47			0	37037	0	0	0	28309	26910	159446	27020	1069502	46481	110514	0	0	8069	582178	0	0
2024-08-20 01:06:47			0	37035	0	0	0	28309	26920	159354	26863	1069466	46494	110514	0	0	8069	582225	0	0
2024-08-20 01:07:47			0	37032	0	0	0	28306	26910	159266	26783	1069430	46471	110513	0	0	8069	582379	0	0
2024-08-20 01:08:47			0	37034	0	0	0	28311	26910	159326	26665	1069430	46494	110515	0	0	8069	582299	0	0
2024-08-20 01:09:47			0	37028	0	0	0	28303	26920	159422	26868	1069466	46471	110512	0	0	8069	582507	0	0
2024-08-20 01:10:47			0	37022	0	0	0	28306	26910	159454	27095	1069403	46471	110513	0	0	8068	582782	0	0
2024-08-20 01:11:47			0	37045	0	0	0	28309	26900	159466	27241	1069385	46481	110514	0	0	8070	581890	0	0
2024-08-20 01:12:47			0	37032	0	0	0	28303	26910	159446	27095	1069475	46470	110512	0	0	8069	582379	0	0
2024-08-20 01:13:47			0	37031	0	0	0	28298	26900	159410	26901	1069412	46493	110510	0	0	8069	582453	0	0
2024-08-20 01:14:47			0	37056	0	0	0	28301	26900	159422	27033	1069358	46470	110511	0	0	8070	581447	0	0
2024-08-20 01:15:47			0	37037	0	0	0	28293	26900	159474	26902	1069385	46470	110508	0	0	8069	582212	0	0
2024-08-20 01:16:47			0	37020	0	0	0	28283	26910	159434	27216	1069421	46459	110504	0	0	8069	582863	0	0
2024-08-20 01:17:47			0	37024	0	0	0	28275	26900	159430	27137	1069376	46458	110501	0	0	8069	582735	0	0
2024-08-20 01:18:47			0	37030	0	0	0	28280	26890	159410	26769	1069394	46458	110503	0	0	8069	582527	0	0
2024-08-20 01:19:47			0	37025	0	0	0	28272	26900	159478	27072	1069349	46469	110500	0	0	8069	582695	0	0
2024-08-20 01:20:47			0	37044	0	0	0	28272	26900	159470	26963	1069349	46469	110500	0	0	8070	581930	0	0
2024-08-20 01:21:47			0	37014	0	0	0	28275	26890	159410	26902	1069304	46458	110501	0	0	8068	583172	0	0
2024-08-20 01:22:47			0	37050	0	0	0	28277	26880	159366	26942	1069322	46467	110502	0	0	8070	581755	0	0
2024-08-20 01:23:47			0	37028	0	0	0	28270	26890	159434	27059	1069313	46458	110499	0	0	8069	582607	0	0
2024-08-20 01:24:47			0	37022	0	0	0	28277	26880	159442	26998	1069322	46478	110502	0	0	8069	582883	0	0
2024-08-20 01:25:47			0	37032	0	0	0	28277	26890	159306	27157	1069224	46479	110502	0	0	8069	582446	0	0
2024-08-20 01:26:47			0	37052	0	0	0	28270	26880	159362	26904	1069268	46467	110499	0	0	8071	581674	0	0
2024-08-20 01:27:47			0	37031	0	0	0	28275	26880	159486	27112	1069268	46467	110501	0	0	8069	582520	0	0
2024-08-20 01:28:47			0	37032	0	0	0	28275	26870	159370	26901	1069304	46457	110501	0	0	8069	582513	0	0
2024-08-20 01:29:47			0	37033	0	0	0	28277	26880	159398	27092	1069286	46467	110502	0	0	8069	582439	0	0
2024-08-20 01:30:47			0	37049	0	0	0	28285	26880	159282	27142	1069349	46467	110505	0	0	8070	581795	0	0
2024-08-20 01:31:47			0	37026	0	0	0	28280	26880	159426	26857	1069322	46490	110503	0	0	8069	582721	0	0
2024-08-20 01:32:47			0	37043	0	0	0	28272	26880	159330	27022	1069349	46467	110500	0	0	8070	582037	0	0
2024-08-20 01:33:47			0	37037	0	0	0	28283	26870	159442	26793	1069268	46466	110504	0	0	8069	582312	0	0
2024-08-20 01:34:47			0	37030	0	0	0	28272	26880	159458	26660	1069259	46457	110500	0	0	8069	582560	0	0
2024-08-20 01:35:47			0	37023	0	0	0	28277	26880	159354	26944	1069322	46467	110502	0	0	8069	582842	0	0
2024-08-20 01:36:47			0	37043	0	0	0	28275	26870	159394	27031	1069241	46466	110501	0	0	8070	582070	0	0
2024-08-20 01:37:47			0	37018	0	0	0	28272	26870	159346	27093	1069268	46456	110500	0	0	8069	583077	0	0
2024-08-20 01:38:47			0	37031	0	0	0	28267	26880	159382	26935	1069259	46467	110498	0	0	8069	582520	0	0
2024-08-20 01:39:47			0	37013	0	0	0	28277	26870	159374	27019	1069268	46477	110502	0	0	8068	583279	0	0
2024-08-20 01:40:47			0	37028	0	0	0	28262	26870	159366	27088	1069295	46456	110496	0	0	8069	582674	0	0
2024-08-20 01:41:47			0	37033	0	0	0	28267	26870	159402	27112	1069304	46467	110498	0	0	8070	582473	0	0
2024-08-20 01:42:47			0	37031	0	0	0	28264	26870	159442	27138	1069295	46477	110497	0	0	8069	582553	0	0
2024-08-20 01:43:47			0	37023	0	0	0	28264	26870	159390	27150	1069250	46467	110497	0	0	8069	582876	0	0
2024-08-20 01:44:47			0	37020	0	0	0	28272	26870	159398	26928	1069250	46478	110500	0	0	8069	582997	0	0
2024-08-20 01:45:47			0	37030	0	0	0	28267	26860	159506	26934	1069259	46476	110498	0	0	8069	582627	0	0
2024-08-20 01:46:47			0	37019	0	0	0	28259	26860	159442	26986	1069206	46455	110495	0	0	8069	583070	0	0
2024-08-20 01:47:47			0	37018	0	0	0	28264	26860	159562	26948	1069259	46455	110497	0	0	8069	583111	0	0
2024-08-20 01:48:47			0	37021	0	0	0	28259	26870	159538	27123	1069268	46477	110495	0	0	8069	582956	0	0
2024-08-20 01:49:47			0	37008	0	0	0	28259	26870	159506	27192	1069250	46467	110495	0	0	8068	583480	0	0
2024-08-20 01:50:47			0	37006	0	0	0	28262	26880	159482	27286	1069233	46467	110496	0	0	8068	583528	0	0
2024-08-20 01:51:47			0	37013	0	0	0	28262	26860	159538	27222	1069179	46476	110496	0	0	8068	583312	0	0
2024-08-20 01:52:47			0	37016	0	0	0	28267	26870	159446	26866	1069215	46477	110498	0	0	8069	583158	0	0
2024-08-20 01:53:47			0	36994	0	0	0	28262	26860	159554	27178	1069206	46455	110496	0	0	8067	584079	0	0
2024-08-20 01:54:47			0	36996	0	0	0	28267	26870	159554	27310	1069304	46467	110498	0	0	8067	583965	0	0
2024-08-20 01:55:47			0	37017	0	0	0	28254	26850	159542	27104	1069188	46476	110493	0	0	8069	583184	0	0
2024-08-20 01:56:47			0	37025	0	0	0	28257	26860	159510	26882	1069259	46476	110494	0	0	8069	582828	0	0
2024-08-20 01:57:47			0	37027	0	0	0	28238	26840	159482	26674	1069196	46452	110487	0	0	8070	582815	0	0
2024-08-20 01:58:47			0	37006	0	0	0	28254	26850	159474	27121	1069188	46465	110493	0	0	8068	583628	0	0
2024-08-20 01:59:47			0	37021	0	0	0	28246	26850	159582	27007	1069152	46454	110490	0	0	8069	583023	0	0
2024-08-20 02:00:47			0	37028	0	0	0	28241	26850	159566	26974	1069152	46464	110488	0	0	8070	582741	0	0
2024-08-20 02:01:47			0	37027	0	0	0	28236	26850	159562	26870	1069152	46454	110486	0	0	8070	582781	0	0
2024-08-20 02:02:47			0	37034	0	0	0	28231	26840	159434	27197	1069089	46463	110484	0	0	8070	582533	0	0
2024-08-20 02:03:47			0	37030	0	0	0	28233	26850	159622	27098	1069134	46465	110485	0	0	8070	582660	0	0
2024-08-20 02:04:47			0	37034	0	0	0	28223	26840	159398	27222	1069116	46463	110481	0	0	8070	582533	0	0
2024-08-20 02:05:47			0	37021	0	0	0	28218	26840	159474	27166	1069116	46463	110479	0	0	8069	583057	0	0
2024-08-20 02:06:47			0	37019	0	0	0	28225	26840	159578	27182	1069116	46463	110482	0	0	8069	583137	0	0
2024-08-20 02:07:47			0	37014	0	0	0	28223	26830	159570	27071	1069125	46452	110481	0	0	8069	583372	0	0
2024-08-20 02:08:47			0	37012	0	0	0	28215	26830	159442	26967	1069071	46462	110478	0	0	8069	583453	0	0
2024-08-20 02:09:47			0	37036	0	0	0	28225	26830	159470	26991	1069035	46462	110482	0	0	8070	582485	0	0
2024-08-20 02:10:47			0	37000	0	0	0	28225	26830	159574	27071	1069071	46462	110482	0	0	8068	583937	0	0
2024-08-20 02:11:47			0	37032	0	0	0	28228	26830	159502	26871	1069071	46452	110483	0	0	8070	582646	0	0
2024-08-20 02:12:47			0	37010	0	0	0	28225	26830	159602	26991	1068981	46452	110482	0	0	8069	583534	0	0
2024-08-20 02:13:47			0	37016	0	0	0	28220	26830	159642	26719	1069062	46473	110480	0	0	8069	583292	0	0
2024-08-20 02:14:47			0	37033	0	0	0	28215	26820	159614	26738	1068999	46461	110478	0	0	8070	582640	0	0
2024-08-20 02:15:47			0	37028	0	0	0	28220	26830	159570	27043	1069071	46462	110480	0	0	8070	582808	0	0
2024-08-20 02:16:47			0	37013	0	0	0	28218	26830	159514	27064	1069062	46473	110479	0	0	8069	583413	0	0
2024-08-20 02:17:47			0	37036	0	0	0	28223	26830	159486	26800	1069098	46462	110481	0	0	8070	582485	0	0
2024-08-20 02:18:47			0	37027	0	0	0	28218	26820	159534	26705	1069053	46461	110479	0	0	8070	582881	0	0
2024-08-20 02:19:47			0	37041	0	0	0	28215	26820	159562	27048	1069053	46451	110478	0	0	8071	582317	0	0
2024-08-20 02:20:47			0	37041	0	0	0	28210	26820	159638	26790	1068990	46450	110476	0	0	8071	582317	0	0
2024-08-20 02:21:47			0	37048	0	0	0	28210	26820	159586	26989	1068963	46471	110476	0	0	8071	582035	0	0
2024-08-20 02:22:47			0	37042	0	0	0	28202	26810	159598	26828	1068954	46450	110473	0	0	8071	582310	0	0
2024-08-20 02:23:47			0	37033	0	0	0	28199	26810	159554	26852	1068927	46471	110472	0	0	8070	582673	0	0
2024-08-20 02:24:47			0	37052	0	0	0	28202	26820	159506	26665	1068990	46450	110473	0	0	8071	581874	0	0
2024-08-20 02:25:47			0	37041	0	0	0	28197	26810	159502	27078	1068954	46460	110471	0	0	8071	582351	0	0
2024-08-20 02:26:47			0	37061	0	0	0	28192	26810	159506	26955	1068900	46450	110469	0	0	8072	581545	0	0
2024-08-20 02:27:47			0	37052	0	0	0	28184	26810	159430	27072	1068900	46471	110466	0	0	8072	581908	0	0
2024-08-20 02:28:47			0	37041	0	0	0	28181	26810	159546	27357	1068865	46460	110465	0	0	8071	582351	0	0
2024-08-20 02:29:47			0	37037	0	0	0	28171	26800	159450	27215	1068882	46449	110461	0	0	8071	582545	0	0
2024-08-20 02:30:47			0	37042	0	0	0	28179	26800	159586	27033	1068936	46449	110464	0	0	8071	582344	0	0
2024-08-20 02:31:47			0	37023	0	0	0	28189	26800	159574	26788	1068873	46448	110468	0	0	8070	583110	0	0
2024-08-20 02:32:47			0	37032	0	0	0	28181	26790	159590	27112	1068811	46448	110465	0	0	8071	582780	0	0
2024-08-20 02:33:47			0	37010	0	0	0	28179	26790	159574	27055	1068775	46448	110464	0	0	8069	583667	0	0
2024-08-20 02:34:47			0	37029	0	0	0	28186	26800	159674	27171	1068820	46458	110467	0	0	8070	582868	0	0
2024-08-20 02:35:47			0	37004	0	0	0	28181	26790	159706	27102	1068838	46469	110465	0	0	8069	583909	0	0
2024-08-20 02:36:47			0	37006	0	0	0	28179	26790	159650	27242	1068801	46458	110464	0	0	8069	583829	0	0
2024-08-20 02:37:47			0	37012	0	0	0	28181	26790	159590	27274	1068891	46458	110465	0	0	8069	583586	0	0
2024-08-20 02:38:47			0	37014	0	0	0	28184	26790	159602	27078	1068775	46448	110466	0	0	8069	583506	0	0
2024-08-20 02:39:47			0	37016	0	0	0	28181	26800	159550	26960	1068873	46458	110465	0	0	8070	583392	0	0
2024-08-20 02:40:47			0	37010	0	0	0	28179	26790	159654	27159	1068828	46481	110464	0	0	8069	583667	0	0
2024-08-20 02:41:47			0	37020	0	0	0	28184	26780	159622	27048	1068819	46435	110466	0	0	8070	583297	0	0
2024-08-20 02:42:47			0	37019	0	0	0	28181	26780	159506	27185	1068792	46447	110465	0	0	8070	583338	0	0
2024-08-20 02:43:47			0	37027	0	0	0	28181	26780	159574	27045	1068819	46458	110465	0	0	8070	583015	0	0
2024-08-20 02:44:47			0	37020	0	0	0	28186	26790	159634	26928	1068865	46458	110467	0	0	8070	583264	0	0
2024-08-20 02:45:47			0	37016	0	0	0	28181	26780	159534	26920	1068846	46468	110465	0	0	8070	583459	0	0
2024-08-20 02:46:47			0	37027	0	0	0	28192	26790	159742	26783	1068838	46458	110469	0	0	8070	582982	0	0
2024-08-20 02:47:47			0	37058	0	0	0	28199	26800	159610	27157	1068900	46448	110472	0	0	8072	581700	0	0
2024-08-20 02:48:47			0	37038	0	0	0	28192	26790	159534	26906	1068865	46458	110469	0	0	8071	582538	0	0
2024-08-20 02:49:47			0	37052	0	0	0	28192	26780	159654	26965	1068819	46458	110469	0	0	8071	582008	0	0
2024-08-20 02:50:47			0	37043	0	0	0	28192	26790	159642	26965	1068838	46458	110469	0	0	8071	582337	0	0
2024-08-20 02:51:47			0	37040	0	0	0	28189	26790	159702	26838	1068855	46469	110468	0	0	8071	582458	0	0
2024-08-20 02:52:47			0	37029	0	0	0	28189	26790	159534	26788	1068828	46458	110468	0	0	8070	582901	0	0
2024-08-20 02:53:47			0	37029	0	0	0	28189	26780	159634	27010	1068819	46468	110468	0	0	8070	582934	0	0
2024-08-20 02:54:47			0	37008	0	0	0	28207	26790	159574	27060	1068855	46469	110475	0	0	8069	583748	0	0
2024-08-20 02:55:47			0	37018	0	0	0	28197	26790	159654	27166	1068909	46448	110471	0	0	8069	583344	0	0
2024-08-20 02:56:47			0	37023	0	0	0	28205	26800	159754	26928	1068873	46458	110474	0	0	8070	583110	0	0
2024-08-20 02:57:47			0	36999	0	0	0	28202	26790	159658	27154	1068865	46458	110473	0	0	8068	584111	0	0
2024-08-20 02:58:47			0	37001	0	0	0	28189	26800	159706	26920	1068873	46458	110468	0	0	8069	583997	0	0
2024-08-20 02:59:47			0	36994	0	0	0	28194	26800	159726	26963	1068900	46458	110470	0	0	8068	584280	0	0
2024-08-20 03:00:47			0	36998	0	0	0	28197	26790	159702	27282	1068811	46458	110471	0	0	8068	584151	0	0
2024-08-20 03:01:47			0	37019	0	0	0	28186	26790	159758	27015	1068855	46448	110467	0	0	8070	583304	0	0
2024-08-20 03:02:47			0	36994	0	0	0	28194	26800	159766	27001	1068873	46469	110470	0	0	8068	584280	0	0
2024-08-20 03:03:47			0	36996	0	0	0	28194	26800	159750	27104	1068882	46449	110470	0	0	8068	584199	0	0
2024-08-20 03:04:47			0	36991	0	0	0	28194	26780	159754	27116	1068846	46458	110470	0	0	8068	584468	0	0
2024-08-20 03:05:47			0	36976	0	0	0	28199	26790	159698	27001	1068891	46448	110472	0	0	8067	585040	0	0
2024-08-20 03:06:47			0	36991	0	0	0	28199	26790	159790	26844	1068918	46458	110472	0	0	8068	584434	0	0
2024-08-20 03:07:47			0	36995	0	0	0	28197	26790	159790	27060	1068909	46469	110471	0	0	8068	584273	0	0
2024-08-20 03:08:47			0	36988	0	0	0	28194	26790	159802	27152	1068828	46458	110470	0	0	8068	584555	0	0
2024-08-20 03:09:47			0	36990	0	0	0	28194	26790	159814	27152	1068891	46469	110470	0	0	8068	584474	0	0
2024-08-20 03:10:47			0	36978	0	0	0	28202	26800	159886	27334	1068873	46469	110473	0	0	8067	584926	0	0
2024-08-20 03:11:47			0	36989	0	0	0	28189	26790	159802	27116	1068891	46448	110468	0	0	8068	584515	0	0
2024-08-20 03:12:47			0	36980	0	0	0	28199	26800	159846	27303	1068847	46458	110472	0	0	8067	584845	0	0
2024-08-20 03:13:47			0	36982	0	0	0	28194	26790	159786	26941	1068865	46458	110470	0	0	8067	584798	0	0
2024-08-20 03:14:47			0	36975	0	0	0	28207	26800	159778	27149	1068900	46458	110475	0	0	8067	585047	0	0
2024-08-20 03:15:47			0	36982	0	0	0	28202	26790	159798	27093	1068865	46458	110473	0	0	8067	584798	0	0
2024-08-20 03:16:47			0	36981	0	0	0	28202	26800	159894	27116	1068909	46470	110473	0	0	8067	584805	0	0
2024-08-20 03:17:47			0	36979	0	0	0	28197	26800	159778	27095	1068909	46459	110471	0	0	8067	584885	0	0
2024-08-20 03:18:47			0	36966	0	0	0	28194	26790	159682	27144	1068891	46469	110470	0	0	8066	585444	0	0
2024-08-20 03:19:47			0	36978	0	0	0	28192	26790	159790	26946	1068891	46458	110469	0	0	8067	584959	0	0
2024-08-20 03:20:47			0	36959	0	0	0	28186	26800	159762	26982	1068900	46458	110467	0	0	8066	585694	0	0
2024-08-20 03:21:47			0	36971	0	0	0	28199	26790	159858	27109	1068865	46448	110472	0	0	8067	585242	0	0
2024-08-20 03:22:47			0	36965	0	0	0	28194	26800	159738	26977	1068900	46458	110470	0	0	8066	585451	0	0
2024-08-20 03:23:47			0	36971	0	0	0	28186	26790	159846	27149	1068891	46458	110467	0	0	8067	585242	0	0
2024-08-20 03:24:47			0	36965	0	0	0	28202	26790	159802	27130	1068945	46448	110473	0	0	8066	585485	0	0
2024-08-20 03:25:47			0	36959	0	0	0	28186	26780	159826	27052	1068873	46447	110467	0	0	8066	585761	0	0
2024-08-20 03:26:47			0	36943	0	0	0	28186	26790	159866	26804	1068891	46448	110467	0	0	8065	586375	0	0
2024-08-20 03:27:47			0	36961	0	0	0	28194	26790	159954	26998	1068945	46458	110470	0	0	8066	585646	0	0
2024-08-20 03:28:47			0	36949	0	0	0	28192	26790	159858	26785	1068945	46458	110469	0	0	8065	586132	0	0
2024-08-20 03:29:47			0	36953	0	0	0	28184	26780	159838	27168	1068873	46458	110466	0	0	8066	586004	0	0
2024-08-20 03:30:47			0	36947	0	0	0	28192	26800	159850	27168	1068873	46458	110469	0	0	8065	586179	0	0
2024-08-20 03:31:47			0	36957	0	0	0	28192	26800	159934	27150	1068873	46458	110469	0	0	8066	585775	0	0
2024-08-20 03:32:47			0	36928	0	0	0	28194	26790	159830	26977	1068891	46458	110470	0	0	8064	586982	0	0
2024-08-20 03:33:47			0	36946	0	0	0	28194	26800	159926	27097	1068856	46459	110470	0	0	8065	586220	0	0
2024-08-20 03:34:47			0	36930	0	0	0	28194	26790	159938	27163	1068838	46448	110470	0	0	8064	586901	0	0
2024-08-20 03:35:47			0	36929	0	0	0	28202	26800	160018	26887	1068927	46448	110473	0	0	8064	586908	0	0
2024-08-20 03:36:47			0	36925	0	0	0	28192	26790	160034	27026	1068828	46458	110469	0	0	8064	587103	0	0
2024-08-20 03:37:47			0	36912	0	0	0	28184	26800	160066	27098	1068766	46469	110466	0	0	8063	587596	0	0
2024-08-20 03:38:47			0	36924	0	0	0	28173	26800	160034	27008	1068900	46448	110462	0	0	8064	587110	0	0
2024-08-20 03:39:47			0	36916	0	0	0	28176	26800	160098	27272	1068820	46458	110463	0	0	8064	587434	0	0
2024-08-20 03:40:47			0	36906	0	0	0	28179	26790	160082	27104	1068801	46448	110464	0	0	8063	587873	0	0
2024-08-20 03:41:47			0	36902	0	0	0	28181	26790	160166	27017	1068784	46458	110465	0	0	8063	588035	0	0
2024-08-20 03:42:47			0	36893	0	0	0	28176	26780	160126	27213	1068873	46468	110463	0	0	8062	588434	0	0
2024-08-20 03:43:47			0	36896	0	0	0	28181	26780	160198	27133	1068900	46458	110465	0	0	8062	588312	0	0
2024-08-20 03:44:47			0	36896	0	0	0	28179	26790	160250	27353	1068882	46458	110464	0	0	8063	588279	0	0
2024-08-20 03:45:47			0	36894	0	0	0	28179	26780	160202	27104	1068783	46446	110464	0	0	8062	588393	0	0
2024-08-20 03:46:47			0	36900	0	0	0	28168	26780	160162	27090	1068792	46447	110460	0	0	8063	588150	0	0
2024-08-20 03:47:47			0	36887	0	0	0	28176	26780	160294	27270	1068837	46467	110463	0	0	8062	588678	0	0
2024-08-20 03:48:47			0	36874	0	0	0	28181	26780	160246	27026	1068810	46457	110465	0	0	8061	589205	0	0
2024-08-20 03:49:47			0	36862	0	0	0	28168	26780	160230	26948	1068810	46467	110460	0	0	8061	589693	0	0
2024-08-20 03:50:47			0	36881	0	0	0	28171	26780	160238	27013	1068766	46447	110461	0	0	8062	588921	0	0
2024-08-20 03:51:47			0	36858	0	0	0	28171	26780	160274	26857	1068810	46457	110461	0	0	8060	589855	0	0
2024-08-20 03:52:47			0	36836	0	0	0	28163	26770	160266	26856	1068828	46446	110458	0	0	8059	590783	0	0
2024-08-20 03:53:47			0	36856	0	0	0	28166	26770	160354	26965	1068801	46457	110459	0	0	8060	589970	0	0
2024-08-20 03:54:47			0	36852	0	0	0	28171	26770	160290	26842	1068828	46457	110461	0	0	8060	590133	0	0
2024-08-20 03:55:47			0	36857	0	0	0	28166	26780	160270	26972	1068757	46457	110459	0	0	8060	589896	0	0
2024-08-20 03:56:47			0	36843	0	0	0	28166	26770	160290	27124	1068828	46457	110459	0	0	8060	590499	0	0
2024-08-20 03:57:47			0	36833	0	0	0	28166	26770	160306	27133	1068801	46457	110459	0	0	8059	590905	0	0
2024-08-20 03:58:47			0	36825	0	0	0	28171	26780	160426	26816	1068846	46447	110461	0	0	8058	591197	0	0
2024-08-20 03:59:47			0	36843	0	0	0	28173	26770	160434	27092	1068774	46457	110462	0	0	8059	590499	0	0
2024-08-20 04:00:47			0	36835	0	0	0	28166	26770	160378	26819	1068801	46457	110459	0	0	8059	590824	0	0
2024-08-20 04:01:47			0	36829	0	0	0	28161	26770	160510	26981	1068774	46467	110457	0	0	8059	591068	0	0
2024-08-20 04:02:47			0	36838	0	0	0	28173	26770	160558	26887	1068855	46446	110462	0	0	8059	590702	0	0
2024-08-20 04:03:47			0	36811	0	0	0	28163	26770	160542	27213	1068748	46457	110458	0	0	8058	591801	0	0
2024-08-20 04:04:47			0	36818	0	0	0	28168	26770	160466	26906	1068801	46446	110460	0	0	8058	591516	0	0
2024-08-20 04:05:47			0	36818	0	0	0	28166	26770	160454	27144	1068765	46434	110459	0	0	8058	591516	0	0
2024-08-20 04:06:47			0	36810	0	0	0	28158	26770	160566	27107	1068801	46446	110456	0	0	8058	591841	0	0
2024-08-20 04:07:47			0	36808	0	0	0	28163	26770	160454	26981	1068765	46446	110458	0	0	8058	591923	0	0
2024-08-20 04:08:47			0	36800	0	0	0	28161	26770	160598	26960	1068765	46479	110457	0	0	8057	592249	0	0
2024-08-20 04:09:47			0	36821	0	0	0	28173	26760	160494	26916	1068747	46444	110462	0	0	8058	591428	0	0
2024-08-20 04:10:47			0	36815	0	0	0	28163	26780	160546	27223	1068730	46457	110458	0	0	8058	591604	0	0
2024-08-20 04:11:47			0	36810	0	0	0	28166	26770	160522	27142	1068739	46457	110459	0	0	8058	591841	0	0
2024-08-20 04:12:47			0	36809	0	0	0	28168	26770	160490	27390	1068748	46457	110460	0	0	8057	591882	0	0
2024-08-20 04:13:47			0	36813	0	0	0	28166	26770	160538	27260	1068819	46457	110459	0	0	8058	591719	0	0
2024-08-20 04:14:47			0	36793	0	0	0	28166	26770	160518	27180	1068765	46446	110459	0	0	8057	592534	0	0
2024-08-20 04:15:47			0	36808	0	0	0	28168	26760	160502	27175	1068756	46478	110460	0	0	8057	591957	0	0
2024-08-20 04:16:47			0	36799	0	0	0	28171	26770	160586	27305	1068739	46446	110461	0	0	8057	592290	0	0
2024-08-20 04:17:47			0	36809	0	0	0	28163	26760	160546	27026	1068810	46456	110458	0	0	8058	591916	0	0
2024-08-20 04:18:47			0	36824	0	0	0	28166	26770	160510	27241	1068748	46467	110459	0	0	8058	591272	0	0
2024-08-20 04:19:47			0	36801	0	0	0	28168	26770	160606	27213	1068739	46457	110460	0	0	8057	592208	0	0
2024-08-20 04:20:47			0	36816	0	0	0	28161	26770	160678	27107	1068792	46467	110457	0	0	8058	591597	0	0
2024-08-20 04:21:47			0	36839	0	0	0	28166	26770	160542	26918	1068748	46446	110459	0	0	8059	590661	0	0
2024-08-20 04:22:47			0	36821	0	0	0	28163	26770	160466	26913	1068765	46446	110458	0	0	8058	591394	0	0
2024-08-20 04:23:47			0	36819	0	0	0	28166	26770	160470	27107	1068765	46446	110459	0	0	8058	591475	0	0
2024-08-20 04:24:47			0	36824	0	0	0	28155	26760	160486	26856	1068721	46444	110455	0	0	8059	591305	0	0
2024-08-20 04:25:47			0	36823	0	0	0	28163	26770	160510	26819	1068712	46467	110458	0	0	8058	591312	0	0
2024-08-20 04:26:47			0	36828	0	0	0	28158	26760	160510	26944	1068783	46456	110456	0	0	8059	591143	0	0
2024-08-20 04:27:47			0	36804	0	0	0	28163	26760	160514	27208	1068730	46444	110458	0	0	8057	592120	0	0
2024-08-20 04:28:47			0	36811	0	0	0	28161	26760	160538	27213	1068756	46456	110457	0	0	8058	591835	0	0
2024-08-20 04:29:47			0	36807	0	0	0	28166	26760	160458	27029	1068721	46455	110459	0	0	8057	591998	0	0
2024-08-20 04:30:47			0	36825	0	0	0	28168	26770	160574	27043	1068828	46446	110460	0	0	8058	591231	0	0
2024-08-20 04:31:47			0	36826	0	0	0	28163	26770	160514	27072	1068774	46457	110458	0	0	8059	591190	0	0
2024-08-20 04:32:47			0	36824	0	0	0	28158	26760	160538	27020	1068721	46455	110456	0	0	8058	591305	0	0
2024-08-20 04:33:47			0	36826	0	0	0	28163	26760	160590	26795	1068730	46444	110458	0	0	8059	591224	0	0
2024-08-20 04:34:47			0	36807	0	0	0	28163	26760	160590	26998	1068747	46444	110458	0	0	8057	591998	0	0
2024-08-20 04:35:47			0	36809	0	0	0	28163	26760	160502	27081	1068747	46465	110458	0	0	8058	591916	0	0
2024-08-20 04:36:47			0	36815	0	0	0	28166	26770	160474	27079	1068748	46446	110459	0	0	8058	591638	0	0
2024-08-20 04:37:47			0	36838	0	0	0	28171	26770	160470	27152	1068819	46457	110461	0	0	8059	590702	0	0
2024-08-20 04:38:47			0	36825	0	0	0	28173	26770	160522	27112	1068739	46457	110462	0	0	8058	591231	0	0
2024-08-20 04:39:47			0	36820	0	0	0	28166	26750	160602	26918	1068765	46443	110459	0	0	8058	591502	0	0
2024-08-20 04:40:47			0	36808	0	0	0	28150	26760	160610	27121	1068837	46456	110453	0	0	8058	591957	0	0
2024-08-20 04:41:47			0	36814	0	0	0	28163	26760	160522	26984	1068730	46444	110458	0	0	8058	591713	0	0
2024-08-20 04:42:47			0	36824	0	0	0	28158	26760	160494	26996	1068703	46444	110456	0	0	8058	591305	0	0
2024-08-20 04:43:47			0	36813	0	0	0	28163	26770	160554	27131	1068801	46446	110458	0	0	8058	591719	0	0
2024-08-20 04:44:47			0	36820	0	0	0	28173	26760	160454	26731	1068756	46466	110462	0	0	8058	591468	0	0
2024-08-20 04:45:47			0	36807	0	0	0	28166	26760	160570	27112	1068774	46465	110459	0	0	8057	591998	0	0
2024-08-20 04:46:47			0	36807	0	0	0	28173	26760	160554	27287	1068747	46455	110462	0	0	8057	591998	0	0
2024-08-20 04:47:47			0	36818	0	0	0	28184	26770	160558	27064	1068801	46457	110466	0	0	8058	591516	0	0
2024-08-20 04:48:47			0	36817	0	0	0	28184	26770	160546	27076	1068792	46446	110466	0	0	8058	591557	0	0
2024-08-20 04:49:47			0	36809	0	0	0	28179	26770	160502	26793	1068819	46446	110464	0	0	8057	591882	0	0
2024-08-20 04:50:47			0	36800	0	0	0	28171	26770	160442	26984	1068801	46457	110461	0	0	8057	592249	0	0
2024-08-20 04:51:47			0	36827	0	0	0	28179	26760	160478	26788	1068747	46465	110464	0	0	8058	591183	0	0
2024-08-20 04:52:47			0	36805	0	0	0	28184	26770	160498	27010	1068855	46457	110466	0	0	8057	592045	0	0
2024-08-20 04:53:47			0	36817	0	0	0	28171	26770	160494	27145	1068846	46446	110461	0	0	8058	591557	0	0
2024-08-20 04:54:47			0	36793	0	0	0	28179	26770	160534	26883	1068801	46457	110464	0	0	8056	592534	0	0
2024-08-20 04:55:47			0	36792	0	0	0	28189	26780	160602	26948	1068810	46457	110468	0	0	8056	592541	0	0
2024-08-20 04:56:47			0	36803	0	0	0	28181	26780	160526	27092	1068810	46457	110465	0	0	8057	592093	0	0
2024-08-20 04:57:47			0	36802	0	0	0	28189	26780	160490	27161	1068864	46467	110468	0	0	8057	592134	0	0
2024-08-20 04:58:47			0	36811	0	0	0	28197	26780	160490	26899	1068918	46457	110471	0	0	8057	591767	0	0
2024-08-20 04:59:47			0	36803	0	0	0	28189	26780	160414	27131	1068900	46447	110468	0	0	8057	592093	0	0
2024-08-20 05:00:47			0	36820	0	0	0	28192	26790	160454	27131	1068909	46448	110469	0	0	8058	591367	0	0
2024-08-20 05:01:47			0	36824	0	0	0	28192	26780	160414	27185	1068837	46457	110469	0	0	8058	591238	0	0
2024-08-20 05:02:47			0	36824	0	0	0	28186	26780	160350	26840	1068864	46446	110467	0	0	8058	591238	0	0
2024-08-20 05:03:47			0	36813	0	0	0	28186	26780	160418	26935	1068873	46447	110467	0	0	8057	591686	0	0
2024-08-20 05:04:47			0	36810	0	0	0	28179	26780	160494	26779	1068846	46458	110464	0	0	8057	591808	0	0
2024-08-20 05:05:47			0	36808	0	0	0	28173	26780	160378	27029	1068864	46457	110462	0	0	8057	591889	0	0
2024-08-20 05:06:47			0	36793	0	0	0	28166	26780	160554	27256	1068864	46446	110459	0	0	8057	592500	0	0
2024-08-20 05:07:47			0	36790	0	0	0	28166	26780	160546	27097	1068837	46457	110459	0	0	8056	592622	0	0
2024-08-20 05:08:47			0	36797	0	0	0	28163	26780	160526	26981	1068819	46447	110458	0	0	8057	592337	0	0
2024-08-20 05:09:47			0	36798	0	0	0	28166	26780	160602	26897	1068837	46457	110459	0	0	8057	592297	0	0
2024-08-20 05:10:47			0	36764	0	0	0	28166	26770	160658	26994	1068801	46434	110459	0	0	8055	593717	0	0
2024-08-20 05:11:47			0	36803	0	0	0	28166	26770	160566	27218	1068855	46457	110459	0	0	8057	592127	0	0
2024-08-20 05:12:47			0	36779	0	0	0	28158	26780	160594	27022	1068837	46446	110456	0	0	8056	593071	0	0
2024-08-20 05:13:47			0	36774	0	0	0	28158	26770	160630	26930	1068748	46446	110456	0	0	8056	593309	0	0
2024-08-20 05:14:47			0	36792	0	0	0	28150	26770	160638	27208	1068774	46457	110453	0	0	8057	592575	0	0
2024-08-20 05:15:47			0	36781	0	0	0	28148	26770	160658	27223	1068739	46446	110452	0	0	8056	593024	0	0
2024-08-20 05:16:47			0	36767	0	0	0	28153	26760	160634	26868	1068756	46444	110454	0	0	8055	593629	0	0
2024-08-20 05:17:47			0	36777	0	0	0	28140	26770	160658	27067	1068801	46446	110449	0	0	8056	593187	0	0
2024-08-20 05:18:47			0	36770	0	0	0	28145	26760	160538	27164	1068667	46455	110451	0	0	8056	593506	0	0
2024-08-20 05:19:47			0	36764	0	0	0	28140	26760	160566	27079	1068756	46444	110449	0	0	8055	593751	0	0
2024-08-20 05:20:47			0	36766	0	0	0	28142	26760	160578	27220	1068694	46444	110450	0	0	8055	593670	0	0
2024-08-20 05:21:47			0	36779	0	0	0	28142	26760	160494	27119	1068703	46444	110450	0	0	8056	593139	0	0
2024-08-20 05:22:47			0	36762	0	0	0	28140	26740	160554	26689	1068640	46454	110449	0	0	8055	593901	0	0
2024-08-20 05:23:47			0	36799	0	0	0	28142	26750	160606	26923	1068738	46454	110450	0	0	8057	592358	0	0
2024-08-20 05:24:47			0	36784	0	0	0	28140	26750	160566	27001	1068792	46443	110449	0	0	8056	592969	0	0
2024-08-20 05:25:47			0	36783	0	0	0	28137	26750	160554	26885	1068649	46454	110448	0	0	8056	593010	0	0
2024-08-20 05:26:47			0	36783	0	0	0	28135	26760	160562	26977	1068667	46444	110447	0	0	8056	592976	0	0
2024-08-20 05:27:47			0	36785	0	0	0	28135	26750	160534	26649	1068676	46431	110447	0	0	8057	592928	0	0
2024-08-20 05:28:47			0	36763	0	0	0	28137	26740	160614	27164	1068640	46431	110448	0	0	8055	593860	0	0
2024-08-20 05:29:47			0	36784	0	0	0	28129	26750	160590	27020	1068631	46443	110445	0	0	8057	592969	0	0
2024-08-20 05:30:47			0	36768	0	0	0	28124	26740	160666	27128	1068640	46454	110443	0	0	8056	593656	0	0
2024-08-20 05:31:47			0	36762	0	0	0	28122	26740	160718	26852	1068586	46443	110442	0	0	8055	593901	0	0
2024-08-20 05:32:47			0	36738	0	0	0	28129	26730	160706	26764	1068541	46441	110445	0	0	8054	594915	0	0
2024-08-20 05:33:47			0	36733	0	0	0	28124	26740	160894	27066	1068613	46454	110443	0	0	8054	595085	0	0
2024-08-20 05:34:47			0	36719	0	0	0	28124	26740	160858	27121	1068586	46454	110443	0	0	8053	595658	0	0
2024-08-20 05:35:47			0	36719	0	0	0	28132	26730	160838	26885	1068568	46452	110446	0	0	8053	595692	0	0
2024-08-20 05:36:47			0	36719	0	0	0	28135	26740	160786	26963	1068685	46453	110447	0	0	8053	595658	0	0
2024-08-20 05:37:47			0	36710	0	0	0	28140	26740	160770	27043	1068631	46463	110449	0	0	8052	596026	0	0
2024-08-20 05:38:47			0	36733	0	0	0	28148	26740	160758	27166	1068658	46453	110452	0	0	8053	595085	0	0
2024-08-20 05:39:47			0	36744	0	0	0	28150	26740	160626	26793	1068640	46454	110453	0	0	8054	594636	0	0
2024-08-20 05:40:47			0	36746	0	0	0	28155	26740	160830	27102	1068694	46464	110455	0	0	8054	594554	0	0
2024-08-20 05:41:47			0	36757	0	0	0	28171	26750	160662	27019	1068792	46464	110461	0	0	8054	594071	0	0
2024-08-20 05:42:47			0	36742	0	0	0	28168	26740	160714	26871	1068694	46454	110460	0	0	8053	594717	0	0
2024-08-20 05:43:47			0	36750	0	0	0	28171	26760	160726	26963	1068801	46465	110461	0	0	8054	594323	0	0
2024-08-20 05:44:47			0	36746	0	0	0	28171	26760	160778	26876	1068783	46466	110461	0	0	8054	594486	0	0
2024-08-20 05:45:47			0	36738	0	0	0	28176	26760	160734	27185	1068747	46444	110463	0	0	8053	594813	0	0
2024-08-20 05:46:47			0	36745	0	0	0	28171	26760	160782	27008	1068783	46456	110461	0	0	8054	594527	0	0
2024-08-20 05:47:47			0	36740	0	0	0	28171	26770	160698	27176	1068739	46457	110461	0	0	8053	594697	0	0
2024-08-20 05:48:47			0	36733	0	0	0	28179	26770	160710	27246	1068765	46446	110464	0	0	8053	594983	0	0
2024-08-20 05:49:47			0	36718	0	0	0	28171	26760	160790	26955	1068756	46456	110461	0	0	8052	595631	0	0
2024-08-20 05:50:47			0	36710	0	0	0	28181	26760	160858	26972	1068837	46456	110465	0	0	8051	595958	0	0
2024-08-20 05:51:47			0	36711	0	0	0	28189	26760	160922	27111	1068837	46456	110468	0	0	8051	595917	0	0
2024-08-20 05:52:47			0	36706	0	0	0	28181	26770	160914	27248	1068819	46467	110465	0	0	8051	596087	0	0
2024-08-20 05:53:47			0	36709	0	0	0	28179	26770	160970	27008	1068765	46457	110464	0	0	8051	595965	0	0
2024-08-20 05:54:47			0	36703	0	0	0	28179	26770	160918	26956	1068792	46467	110464	0	0	8051	596210	0	0
2024-08-20 05:55:47			0	36706	0	0	0	28173	26760	160802	27010	1068783	46466	110462	0	0	8051	596122	0	0
2024-08-20 05:56:47			0	36685	0	0	0	28168	26770	160930	26942	1068792	46446	110460	0	0	8050	596947	0	0
2024-08-20 05:57:47			0	36686	0	0	0	28166	26770	160906	27208	1068774	46457	110459	0	0	8050	596906	0	0
2024-08-20 05:58:47			0	36678	0	0	0	28166	26760	160910	27256	1068747	46444	110459	0	0	8050	597268	0	0
2024-08-20 05:59:47			0	36674	0	0	0	28161	26760	161002	26864	1068730	46444	110457	0	0	8050	597432	0	0
2024-08-20 06:00:47			0	36683	0	0	0	28168	26770	160950	27017	1068801	46446	110460	0	0	8050	597029	0	0
2024-08-20 06:01:47			0	36655	0	0	0	28171	26770	160978	27213	1068801	46457	110461	0	0	8048	598177	0	0
2024-08-20 06:02:47			0	36669	0	0	0	28166	26770	161038	27121	1068819	46467	110459	0	0	8049	597603	0	0
2024-08-20 06:03:47			0	36671	0	0	0	28163	26770	161094	26941	1068819	46457	110458	0	0	8049	597521	0	0
2024-08-20 06:04:47			0	36658	0	0	0	28173	26760	161098	26968	1068783	46444	110462	0	0	8048	598088	0	0
2024-08-20 06:05:47			0	36663	0	0	0	28171	26770	161034	26790	1068801	46467	110461	0	0	8049	597849	0	0
2024-08-20 06:06:47			0	36637	0	0	0	28179	26770	161042	26741	1068801	46446	110464	0	0	8047	598916	0	0
2024-08-20 06:07:47			0	36669	0	0	0	28168	26760	161158	26863	1068783	46466	110460	0	0	8049	597637	0	0
2024-08-20 06:08:47			0	36650	0	0	0	28171	26770	161174	26772	1068792	46446	110461	0	0	8048	598382	0	0
2024-08-20 06:09:47			0	36667	0	0	0	28171	26770	161046	26731	1068792	46434	110461	0	0	8049	597685	0	0
2024-08-20 06:10:47			0	36679	0	0	0	28166	26770	160994	27156	1068819	46434	110459	0	0	8050	597193	0	0
2024-08-20 06:11:47			0	36672	0	0	0	28176	26770	160990	27183	1068792	46434	110463	0	0	8049	597480	0	0
2024-08-20 06:12:47			0	36670	0	0	0	28168	26760	160982	27027	1068801	46455	110460	0	0	8049	597596	0	0
2024-08-20 06:13:47			0	36667	0	0	0	28173	26770	161002	27294	1068819	46446	110462	0	0	8049	597685	0	0
2024-08-20 06:14:47			0	36673	0	0	0	28171	26760	160986	27088	1068810	46456	110461	0	0	8049	597473	0	0
2024-08-20 06:15:47			0	36649	0	0	0	28168	26770	161090	27152	1068739	46457	110460	0	0	8048	598423	0	0
2024-08-20 06:16:47			0	36645	0	0	0	28168	26760	161094	27109	1068721	46444	110460	0	0	8048	598622	0	0
2024-08-20 06:17:47			0	36682	0	0	0	28166	26770	161002	27140	1068819	46434	110459	0	0	8050	597070	0	0
2024-08-20 06:18:47			0	36663	0	0	0	28173	26760	161070	27232	1068730	46456	110462	0	0	8049	597883	0	0
2024-08-20 06:19:47			0	36664	0	0	0	28166	26770	161038	27320	1068819	46446	110459	0	0	8049	597808	0	0
2024-08-20 06:20:47			0	36660	0	0	0	28163	26760	161042	27012	1068756	46444	110458	0	0	8049	598006	0	0
2024-08-20 06:21:47			0	36658	0	0	0	28163	26760	161106	27031	1068837	46456	110458	0	0	8049	598088	0	0
2024-08-20 06:22:47			0	36624	0	0	0	28171	26770	161122	26960	1068792	46457	110461	0	0	8046	599450	0	0
2024-08-20 06:23:47			0	36649	0	0	0	28168	26770	161094	27176	1068819	46457	110460	0	0	8048	598423	0	0
2024-08-20 06:24:47			0	36651	0	0	0	28171	26770	161122	26674	1068855	46446	110461	0	0	8048	598341	0	0
2024-08-20 06:25:47			0	36644	0	0	0	28171	26770	161046	27038	1068774	46446	110461	0	0	8048	598628	0	0
2024-08-20 06:26:47			0	36643	0	0	0	28176	26770	161110	27232	1068855	46467	110463	0	0	8047	598670	0	0
2024-08-20 06:27:47			0	36639	0	0	0	28179	26780	161086	26901	1068864	46467	110464	0	0	8047	598800	0	0
2024-08-20 06:28:47			0	36651	0	0	0	28179	26770	161070	26736	1068882	46457	110464	0	0	8048	598341	0	0
2024-08-20 06:29:47			0	36660	0	0	0	28176	26780	161138	26871	1068873	46468	110463	0	0	8049	597938	0	0
2024-08-20 06:30:47			0	36647	0	0	0	28181	26770	161166	27036	1068828	46457	110465	0	0	8048	598505	0	0
2024-08-20 06:31:47			0	36652	0	0	0	28181	26780	161142	26736	1068927	46468	110465	0	0	8048	598266	0	0
2024-08-20 06:32:47			0	36654	0	0	0	28189	26780	161158	27086	1068927	46468	110468	0	0	8048	598184	0	0
2024-08-20 06:33:47			0	36646	0	0	0	28194	26790	161138	26968	1068882	46448	110470	0	0	8047	598478	0	0
2024-08-20 06:34:47			0	36658	0	0	0	28189	26780	161066	26918	1068900	46458	110468	0	0	8048	598020	0	0
2024-08-20 06:35:47			0	36666	0	0	0	28197	26780	161010	26849	1068927	46458	110471	0	0	8049	597692	0	0
2024-08-20 06:36:47			0	36680	0	0	0	28186	26780	160998	27185	1068945	46457	110467	0	0	8050	597118	0	0
2024-08-20 06:37:47			0	36671	0	0	0	28205	26790	161006	27142	1068945	46448	110474	0	0	8049	597452	0	0
2024-08-20 06:38:47			0	36673	0	0	0	28199	26780	161050	26804	1068954	46480	110472	0	0	8049	597405	0	0
2024-08-20 06:39:47			0	36697	0	0	0	28202	26790	160986	26696	1068945	46458	110473	0	0	8050	596388	0	0
2024-08-20 06:40:47			0	36690	0	0	0	28205	26790	160898	26824	1068972	46469	110474	0	0	8050	596674	0	0
2024-08-20 06:41:47			0	36692	0	0	0	28207	26790	160898	27114	1068945	46458	110475	0	0	8050	596592	0	0
2024-08-20 06:42:47			0	36665	0	0	0	28192	26790	160914	26899	1068990	46458	110469	0	0	8049	597698	0	0
2024-08-20 06:43:47			0	36675	0	0	0	28199	26790	160886	27168	1068891	46448	110472	0	0	8049	597289	0	0
2024-08-20 06:44:47			0	36659	0	0	0	28192	26790	160970	27097	1068945	46458	110469	0	0	8048	597945	0	0
2024-08-20 06:45:47			0	36674	0	0	0	28194	26790	161006	27116	1068990	46458	110470	0	0	8049	597330	0	0
2024-08-20 06:46:47			0	36668	0	0	0	28205	26800	160894	27241	1068981	46458	110474	0	0	8049	597541	0	0
2024-08-20 06:47:47			0	36651	0	0	0	28194	26790	161022	27450	1068918	46458	110470	0	0	8048	598273	0	0
2024-08-20 06:48:47			0	36653	0	0	0	28202	26800	161090	27258	1068963	46459	110473	0	0	8048	598156	0	0
2024-08-20 06:49:47			0	36659	0	0	0	28199	26790	161070	27053	1068999	46458	110472	0	0	8048	597945	0	0
2024-08-20 06:50:47			0	36649	0	0	0	28207	26800	161062	26967	1068936	46449	110475	0	0	8047	598320	0	0
2024-08-20 06:51:47			0	36651	0	0	0	28212	26790	161062	27326	1068990	46436	110477	0	0	8047	598273	0	0
2024-08-20 06:52:47			0	36644	0	0	0	28215	26800	160998	27003	1069008	46469	110478	0	0	8047	598526	0	0
2024-08-20 06:53:47			0	36642	0	0	0	28205	26800	161002	26790	1069035	46448	110474	0	0	8047	598608	0	0
2024-08-20 06:54:47			0	36659	0	0	0	28210	26800	161014	27031	1069017	46449	110476	0	0	8048	597910	0	0
2024-08-20 06:55:47			0	36661	0	0	0	28202	26810	160990	27092	1068999	46460	110473	0	0	8048	597794	0	0
2024-08-20 06:56:47			0	36703	0	0	0	28202	26800	160914	27161	1068954	46458	110473	0	0	8051	596108	0	0
2024-08-20 06:57:47			0	36667	0	0	0	28210	26800	160850	27048	1069044	46459	110476	0	0	8048	597582	0	0
2024-08-20 06:58:47			0	36682	0	0	0	28202	26800	160978	26812	1069062	46458	110473	0	0	8050	596968	0	0
2024-08-20 06:59:47			0	36667	0	0	0	28202	26810	161042	27001	1069026	46450	110473	0	0	8049	597548	0	0
2024-08-20 07:00:47			0	36667	0	0	0	28210	26800	160990	27131	1069017	46449	110476	0	0	8048	597582	0	0
2024-08-20 07:01:47			0	36667	0	0	0	28202	26820	160970	26778	1069044	46450	110473	0	0	8049	597514	0	0
2024-08-20 07:02:47			0	36664	0	0	0	28202	26810	161026	26873	1069026	46450	110473	0	0	8049	597671	0	0
2024-08-20 07:03:47			0	36671	0	0	0	28202	26800	160838	26889	1068981	46448	110473	0	0	8049	597418	0	0
2024-08-20 07:04:47			0	36657	0	0	0	28210	26810	160994	26873	1069053	46450	110476	0	0	8048	597958	0	0
2024-08-20 07:05:47			0	36679	0	0	0	28207	26800	160906	27000	1069008	46448	110475	0	0	8049	597090	0	0
2024-08-20 07:06:47			0	36658	0	0	0	28207	26800	160922	26937	1069044	46437	110475	0	0	8048	597951	0	0
2024-08-20 07:07:47			0	36659	0	0	0	28207	26810	160902	27010	1069053	46460	110475	0	0	8048	597876	0	0
2024-08-20 07:08:47			0	36678	0	0	0	28205	26810	160918	27270	1069062	46450	110474	0	0	8049	597097	0	0
2024-08-20 07:09:47			0	36678	0	0	0	28202	26810	160918	27312	1069026	46460	110473	0	0	8049	597097	0	0
2024-08-20 07:10:47			0	36679	0	0	0	28205	26790	160810	26986	1068999	46448	110474	0	0	8049	597125	0	0
2024-08-20 07:11:47			0	36675	0	0	0	28207	26810	160870	27163	1069053	46450	110475	0	0	8049	597220	0	0
2024-08-20 07:12:47			0	36668	0	0	0	28189	26800	160878	27109	1068981	46458	110468	0	0	8049	597541	0	0
2024-08-20 07:13:47			0	36682	0	0	0	28207	26800	160926	26849	1069017	46470	110475	0	0	8049	596968	0	0
2024-08-20 07:14:47			0	36660	0	0	0	28194	26790	160914	26986	1068945	46436	110470	0	0	8048	597904	0	0
2024-08-20 07:15:47			0	36650	0	0	0	28194	26800	161014	27086	1069008	46448	110470	0	0	8048	598279	0	0
2024-08-20 07:16:47			0	36658	0	0	0	28202	26790	161022	27374	1068945	46448	110473	0	0	8048	597985	0	0
2024-08-20 07:17:47			0	36660	0	0	0	28192	26800	161126	27131	1069035	46458	110469	0	0	8048	597869	0	0
2024-08-20 07:18:47			0	36659	0	0	0	28202	26800	161026	27294	1068963	46459	110473	0	0	8048	597910	0	0
2024-08-20 07:19:47			0	36646	0	0	0	28194	26800	161046	27196	1068963	46449	110470	0	0	8048	598444	0	0
2024-08-20 07:20:47			0	36649	0	0	0	28199	26800	161026	27267	1069071	46459	110472	0	0	8048	598320	0	0
2024-08-20 07:21:47			0	36661	0	0	0	28192	26800	160946	26994	1069044	46459	110469	0	0	8048	597828	0	0
2024-08-20 07:22:47			0	36655	0	0	0	28202	26800	160962	27012	1069044	46449	110473	0	0	8048	598074	0	0
2024-08-20 07:23:47			0	36652	0	0	0	28197	26810	160890	27339	1069080	46460	110471	0	0	8048	598163	0	0
2024-08-20 07:24:47			0	36667	0	0	0	28199	26800	161070	27343	1069017	46449	110472	0	0	8049	597582	0	0
2024-08-20 07:25:47			0	36654	0	0	0	28197	26800	160930	27123	1069008	46458	110471	0	0	8048	598115	0	0
2024-08-20 07:26:47			0	36628	0	0	0	28197	26800	161130	27133	1068990	46459	110471	0	0	8046	599183	0	0
2024-08-20 07:27:47			0	36666	0	0	0	28194	26800	161014	26930	1068990	46459	110470	0	0	8049	597623	0	0
2024-08-20 07:28:47			0	36651	0	0	0	28192	26790	160958	27293	1068999	46448	110469	0	0	8048	598273	0	0
2024-08-20 07:29:47			0	36687	0	0	0	28194	26790	160954	27294	1068999	46448	110470	0	0	8050	596797	0	0
2024-08-20 07:30:47			0	36667	0	0	0	28189	26810	160906	27135	1068945	46438	110468	0	0	8049	597548	0	0
2024-08-20 07:31:47			0	36667	0	0	0	28197	26800	160922	27346	1068954	46448	110471	0	0	8049	597582	0	0
2024-08-20 07:32:47			0	36682	0	0	0	28189	26800	160762	27144	1068927	46458	110468	0	0	8050	596968	0	0
2024-08-20 07:33:47			0	36696	0	0	0	28194	26800	160842	27253	1068954	46448	110470	0	0	8050	596394	0	0
2024-08-20 07:34:47			0	36678	0	0	0	28194	26790	160910	26920	1068972	46469	110470	0	0	8049	597166	0	0
2024-08-20 07:35:47			0	36678	0	0	0	28197	26800	160938	27121	1069008	46448	110471	0	0	8049	597131	0	0
2024-08-20 07:36:47			0	36682	0	0	0	28189	26800	160818	27055	1068990	46449	110468	0	0	8050	596968	0	0
2024-08-20 07:37:47			0	36672	0	0	0	28199	26800	160926	27079	1069017	46449	110472	0	0	8049	597377	0	0
2024-08-20 07:38:47			0	36666	0	0	0	28202	26800	160958	27319	1069044	46449	110473	0	0	8049	597623	0	0
2024-08-20 07:39:47			0	36672	0	0	0	28197	26790	160826	27185	1069016	46458	110471	0	0	8049	597412	0	0
2024-08-20 07:40:47			0	36659	0	0	0	28202	26800	161006	27081	1068981	46469	110473	0	0	8048	597910	0	0
2024-08-20 07:41:47			0	36675	0	0	0	28212	26790	160962	26996	1068999	46458	110477	0	0	8049	597289	0	0
2024-08-20 07:42:47			0	36682	0	0	0	28199	26800	161010	27140	1069017	46449	110472	0	0	8050	596968	0	0
2024-08-20 07:43:47			0	36652	0	0	0	28192	26800	161074	27124	1069017	46470	110469	0	0	8048	598197	0	0
2024-08-20 07:44:47			0	36676	0	0	0	28199	26800	160986	27213	1068981	46448	110472	0	0	8049	597213	0	0
2024-08-20 07:45:47			0	36657	0	0	0	28197	26790	160990	27189	1068999	46458	110471	0	0	8048	598026	0	0
2024-08-20 07:46:47			0	36659	0	0	0	28197	26800	161066	27256	1069008	46448	110471	0	0	8048	597910	0	0
2024-08-20 07:47:47			0	36669	0	0	0	28189	26800	160978	26996	1069035	46448	110468	0	0	8049	597500	0	0
2024-08-20 07:48:47			0	36667	0	0	0	28199	26790	161062	26682	1068999	46458	110472	0	0	8049	597617	0	0
2024-08-20 07:49:47			0	36674	0	0	0	28189	26800	160906	27168	1069035	46448	110468	0	0	8049	597295	0	0
2024-08-20 07:50:47			0	36686	0	0	0	28192	26800	160914	27144	1068927	46458	110469	0	0	8050	596804	0	0
2024-08-20 07:51:47			0	36676	0	0	0	28176	26790	161018	27322	1068963	46458	110463	0	0	8050	597248	0	0
2024-08-20 07:52:47			0	36680	0	0	0	28189	26800	160974	26951	1068990	46449	110468	0	0	8050	597050	0	0
2024-08-20 07:53:47			0	36674	0	0	0	28181	26790	160926	26878	1068972	46458	110465	0	0	8049	597330	0	0
2024-08-20 07:54:47			0	36688	0	0	0	28179	26790	160886	26963	1068936	46448	110464	0	0	8050	596756	0	0
2024-08-20 07:55:47			0	36684	0	0	0	28168	26780	160870	27303	1068927	46447	110460	0	0	8050	596954	0	0
2024-08-20 07:56:47			0	36690	0	0	0	28179	26790	160902	26765	1068972	46458	110464	0	0	8050	596674	0	0
2024-08-20 07:57:47			0	36695	0	0	0	28186	26780	160882	27081	1068981	46447	110467	0	0	8050	596504	0	0
2024-08-20 07:58:47			0	36712	0	0	0	28192	26790	160862	26948	1068972	46458	110469	0	0	8051	595774	0	0
2024-08-20 07:59:47			0	36698	0	0	0	28184	26790	160854	26996	1068990	46458	110466	0	0	8051	596347	0	0
2024-08-20 08:00:47			0	36708	0	0	0	28192	26780	160758	27092	1068981	46458	110469	0	0	8051	595971	0	0
2024-08-20 08:01:47			0	36719	0	0	0	28192	26790	160694	27005	1068945	46458	110469	0	0	8052	595487	0	0
2024-08-20 08:02:47			0	36709	0	0	0	28192	26790	160806	27065	1068882	46458	110469	0	0	8051	595896	0	0
2024-08-20 08:03:47			0	36720	0	0	0	28197	26790	160798	27235	1068963	46458	110471	0	0	8052	595446	0	0
2024-08-20 08:04:47			0	36722	0	0	0	28181	26790	160782	27300	1068999	46458	110465	0	0	8052	595365	0	0
2024-08-20 08:05:47			0	36738	0	0	0	28194	26790	160710	27350	1068936	46448	110470	0	0	8053	594711	0	0
2024-08-20 08:06:47			0	36724	0	0	0	28194	26790	160718	27298	1068990	46448	110470	0	0	8052	595283	0	0
2024-08-20 08:07:47			0	36713	0	0	0	28181	26800	160658	27251	1069035	46448	110465	0	0	8052	595699	0	0
2024-08-20 08:08:47			0	36733	0	0	0	28186	26790	160694	27149	1069016	46448	110467	0	0	8053	594915	0	0
2024-08-20 08:09:47			0	36723	0	0	0	28186	26780	160622	27227	1068927	46435	110467	0	0	8052	595358	0	0
2024-08-20 08:10:47			0	36725	0	0	0	28181	26790	160626	27204	1068999	46469	110465	0	0	8052	595242	0	0
2024-08-20 08:11:47			0	36728	0	0	0	28186	26790	160658	27201	1068972	46458	110467	0	0	8052	595119	0	0
2024-08-20 08:12:47			0	36734	0	0	0	28181	26790	160630	27088	1068999	46448	110465	0	0	8053	594874	0	0
2024-08-20 08:13:47			0	36729	0	0	0	28192	26790	160758	26876	1068990	46448	110469	0	0	8052	595079	0	0
2024-08-20 08:14:47			0	36736	0	0	0	28192	26790	160670	27300	1068963	46458	110469	0	0	8053	594792	0	0
2024-08-20 08:15:47			0	36738	0	0	0	28192	26800	160702	27197	1069008	46448	110469	0	0	8053	594677	0	0
2024-08-20 08:16:47			0	36752	0	0	0	28197	26800	160706	27112	1069017	46437	110471	0	0	8054	594105	0	0
2024-08-20 08:17:47			0	36739	0	0	0	28194	26790	160662	27001	1068972	46458	110470	0	0	8053	594670	0	0
2024-08-20 08:18:47			0	36733	0	0	0	28181	26780	160674	27352	1068945	46457	110465	0	0	8053	594949	0	0
2024-08-20 08:19:47			0	36723	0	0	0	28194	26790	160694	27287	1068999	46448	110470	0	0	8052	595324	0	0
2024-08-20 08:20:47			0	36733	0	0	0	28194	26790	160750	27263	1068990	46458	110470	0	0	8053	594915	0	0
2024-08-20 08:21:47			0	36736	0	0	0	28192	26790	160746	27601	1068972	46458	110469	0	0	8053	594792	0	0
2024-08-20 08:22:47			0	36739	0	0	0	28181	26790	160726	27251	1068990	46448	110465	0	0	8053	594670	0	0
2024-08-20 08:23:47			0	36722	0	0	0	28184	26790	160762	26752	1068999	46448	110466	0	0	8052	595365	0	0
2024-08-20 08:24:47			0	36738	0	0	0	28184	26790	160794	27098	1068945	46448	110466	0	0	8053	594711	0	0
2024-08-20 08:25:47			0	36752	0	0	0	28184	26800	160734	26939	1068954	46436	110466	0	0	8054	594105	0	0
2024-08-20 08:26:47			0	36754	0	0	0	28189	26790	160574	27265	1068990	46458	110468	0	0	8054	594057	0	0
2024-08-20 08:27:47			0	36763	0	0	0	28192	26780	160610	26928	1068954	46458	110469	0	0	8054	593724	0	0
2024-08-20 08:28:47			0	36765	0	0	0	28192	26790	160562	27017	1068999	46469	110469	0	0	8055	593608	0	0
2024-08-20 08:29:47			0	36769	0	0	0	28184	26790	160418	27152	1068963	46448	110466	0	0	8055	593445	0	0
2024-08-20 08:30:47			0	36801	0	0	0	28192	26800	160534	27161	1068954	46458	110469	0	0	8057	592107	0	0
2024-08-20 08:31:47			0	36766	0	0	0	28192	26790	160454	27274	1069026	46458	110469	0	0	8055	593567	0	0
2024-08-20 08:32:47			0	36777	0	0	0	28197	26790	160554	27064	1069016	46448	110471	0	0	8055	593119	0	0
2024-08-20 08:33:47			0	36779	0	0	0	28186	26800	160426	27317	1069008	46448	110467	0	0	8056	593003	0	0
2024-08-20 08:34:47			0	36780	0	0	0	28194	26790	160486	27176	1069026	46436	110470	0	0	8055	592996	0	0
2024-08-20 08:35:47			0	36782	0	0	0	28186	26790	160398	27105	1068936	46458	110467	0	0	8056	592915	0	0
2024-08-20 08:36:47			0	36788	0	0	0	28189	26790	160446	27182	1068990	46436	110468	0	0	8056	592670	0	0
2024-08-20 08:37:47			0	36795	0	0	0	28192	26790	160474	27206	1068972	46481	110469	0	0	8056	592385	0	0
2024-08-20 08:38:47			0	36784	0	0	0	28202	26790	160546	26935	1068972	46448	110473	0	0	8056	592833	0	0
2024-08-20 08:39:47			0	36772	0	0	0	28194	26800	160586	27286	1069008	46448	110470	0	0	8055	593289	0	0
2024-08-20 08:40:47			0	36772	0	0	0	28189	26790	160606	27118	1068999	46458	110468	0	0	8055	593323	0	0
2024-08-20 08:41:47			0	36778	0	0	0	28194	26790	160622	27152	1068999	46448	110470	0	0	8055	593078	0	0
2024-08-20 08:42:47			0	36779	0	0	0	28202	26800	160506	27310	1069008	46448	110473	0	0	8055	593003	0	0
2024-08-20 08:43:47			0	36772	0	0	0	28205	26790	160654	27360	1068945	46458	110474	0	0	8055	593323	0	0
2024-08-20 08:44:47			0	36759	0	0	0	28205	26800	160682	27107	1069035	46448	110474	0	0	8054	593819	0	0
2024-08-20 08:45:47			0	36776	0	0	0	28199	26790	160618	27066	1069026	46458	110472	0	0	8055	593159	0	0
2024-08-20 08:46:47			0	36778	0	0	0	28202	26790	160638	26979	1068999	46436	110473	0	0	8055	593078	0	0
2024-08-20 08:47:47			0	36802	0	0	0	28194	26790	160518	27123	1068990	46458	110470	0	0	8057	592100	0	0
2024-08-20 08:48:47			0	36790	0	0	0	28205	26790	160530	27202	1068999	46469	110474	0	0	8056	592589	0	0
2024-08-20 08:49:47			0	36802	0	0	0	28205	26800	160542	26902	1069071	46459	110474	0	0	8057	592066	0	0
2024-08-20 08:50:47			0	36803	0	0	0	28202	26790	160446	27079	1068972	46458	110473	0	0	8057	592059	0	0
2024-08-20 08:51:47			0	36797	0	0	0	28210	26800	160506	27041	1069035	46448	110476	0	0	8056	592269	0	0
2024-08-20 08:52:47			0	36785	0	0	0	28199	26800	160582	27145	1069044	46449	110472	0	0	8056	592758	0	0
2024-08-20 08:53:47			0	36783	0	0	0	28192	26810	160614	27310	1069080	46438	110469	0	0	8056	592806	0	0
2024-08-20 08:54:47			0	36772	0	0	0	28197	26800	160574	26944	1069017	46449	110471	0	0	8055	593289	0	0
2024-08-20 08:55:47			0	36767	0	0	0	28202	26800	160518	26946	1069044	46449	110473	0	0	8055	593493	0	0
2024-08-20 08:56:47			0	36773	0	0	0	28192	26800	160538	26956	1068981	46448	110469	0	0	8055	593248	0	0
2024-08-20 08:57:47			0	36770	0	0	0	28197	26800	160562	27121	1069044	46449	110471	0	0	8055	593370	0	0
2024-08-20 08:58:47			0	36774	0	0	0	28189	26790	160510	26984	1068972	46448	110468	0	0	8055	593241	0	0
2024-08-20 08:59:47			0	36789	0	0	0	28189	26790	160562	26890	1068999	46458	110468	0	0	8056	592629	0	0
2024-08-20 09:00:47			0	36796	0	0	0	28192	26790	160614	26949	1068999	46448	110469	0	0	8056	592344	0	0
2024-08-20 09:01:47			0	36767	0	0	0	28192	26790	160490	27211	1068999	46448	110469	0	0	8055	593527	0	0
2024-08-20 09:02:47			0	36790	0	0	0	28189	26800	160510	26734	1069008	46448	110468	0	0	8056	592555	0	0
2024-08-20 09:03:47			0	36794	0	0	0	28189	26790	160470	27138	1068999	46458	110468	0	0	8056	592426	0	0
2024-08-20 09:04:47			0	36812	0	0	0	28194	26800	160454	27216	1069008	46458	110470	0	0	8057	591658	0	0
2024-08-20 09:05:47			0	36827	0	0	0	28202	26800	160374	27098	1069035	46458	110473	0	0	8058	591048	0	0
2024-08-20 09:06:47			0	36816	0	0	0	28194	26790	160338	26811	1069053	46448	110470	0	0	8058	591529	0	0
2024-08-20 09:07:47			0	36817	0	0	0	28194	26790	160254	27059	1068999	46448	110470	0	0	8058	591489	0	0
2024-08-20 09:08:47			0	36844	0	0	0	28194	26800	160270	26661	1069035	46448	110470	0	0	8059	590357	0	0
2024-08-20 09:09:47			0	36832	0	0	0	28202	26800	160302	26871	1068954	46448	110473	0	0	8058	590845	0	0
2024-08-20 09:10:47			0	36832	0	0	0	28189	26790	160342	26556	1068972	46458	110468	0	0	8059	590878	0	0
2024-08-20 09:11:47			0	36860	0	0	0	28189	26800	160058	26956	1068981	46448	110468	0	0	8060	589706	0	0
2024-08-20 09:12:47			0	36859	0	0	0	28207	26790	160078	26837	1069016	46448	110475	0	0	8060	589781	0	0
2024-08-20 09:13:47			0	36853	0	0	0	28205	26800	160158	26665	1069035	46436	110474	0	0	8060	589991	0	0
2024-08-20 09:14:47			0	36865	0	0	0	28207	26790	160162	26705	1069053	46458	110475	0	0	8060	589537	0	0
2024-08-20 09:15:47			0	36844	0	0	0	28210	26800	160110	26928	1068981	46469	110476	0	0	8059	590357	0	0
2024-08-20 09:16:47			0	36863	0	0	0	28212	26800	160154	26937	1069017	46449	110477	0	0	8060	589584	0	0
2024-08-20 09:17:47			0	36864	0	0	0	28207	26800	160170	27336	1069098	46449	110475	0	0	8060	589544	0	0
2024-08-20 09:18:47			0	36842	0	0	0	28207	26800	160146	27000	1069115	46458	110475	0	0	8059	590438	0	0
2024-08-20 09:19:47			0	36833	0	0	0	28205	26800	160142	27000	1069124	46459	110474	0	0	8058	590804	0	0
2024-08-20 09:20:47			0	36855	0	0	0	28202	26810	160186	27251	1069080	46460	110473	0	0	8060	589876	0	0
2024-08-20 09:21:47			0	36830	0	0	0	28207	26810	160214	26989	1069080	46460	110475	0	0	8058	590892	0	0
2024-08-20 09:22:47			0	36839	0	0	0	28202	26800	160282	27039	1069071	46437	110473	0	0	8059	590560	0	0
2024-08-20 09:23:47			0	36826	0	0	0	28202	26800	160258	26994	1069124	46426	110473	0	0	8058	591089	0	0
2024-08-20 09:24:47			0	36817	0	0	0	28202	26810	160206	26981	1069026	46450	110473	0	0	8058	591421	0	0
2024-08-20 09:25:47			0	36813	0	0	0	28210	26800	160426	26705	1069098	46449	110476	0	0	8057	591618	0	0
2024-08-20 09:26:47			0	36815	0	0	0	28202	26810	160338	27007	1069080	46471	110473	0	0	8057	591503	0	0
2024-08-20 09:27:47			0	36811	0	0	0	28205	26800	160250	27208	1069098	46459	110474	0	0	8057	591699	0	0
2024-08-20 09:28:47			0	36829	0	0	0	28202	26810	160218	26958	1069053	46450	110473	0	0	8058	590933	0	0
2024-08-20 09:29:47			0	36827	0	0	0	28215	26800	160314	26902	1069098	46459	110478	0	0	8058	591048	0	0
2024-08-20 09:30:47			0	36814	0	0	0	28212	26810	160166	26930	1069107	46450	110477	0	0	8057	591543	0	0
2024-08-20 09:31:47			0	36819	0	0	0	28218	26810	160134	27119	1069169	46460	110479	0	0	8057	591340	0	0
2024-08-20 09:32:47			0	36847	0	0	0	28231	26810	160186	27052	1069062	46460	110484	0	0	8059	590201	0	0
2024-08-20 09:33:47			0	36850	0	0	0	28223	26810	160126	26880	1069142	46450	110481	0	0	8059	590079	0	0
2024-08-20 09:34:47			0	36856	0	0	0	28223	26810	160082	27163	1069107	46438	110481	0	0	8060	589835	0	0
2024-08-20 09:35:47			0	36832	0	0	0	28231	26830	160214	27225	1069169	46462	110484	0	0	8058	590743	0	0
2024-08-20 09:36:47			0	36841	0	0	0	28233	26830	160198	26897	1069143	46462	110485	0	0	8059	590377	0	0
2024-08-20 09:37:47			0	36836	0	0	0	28236	26820	160250	26908	1069151	46460	110486	0	0	8058	590614	0	0
2024-08-20 09:38:47			0	36859	0	0	0	28236	26830	160242	26882	1069196	46452	110486	0	0	8060	589646	0	0
2024-08-20 09:39:47			0	36821	0	0	0	28236	26830	160150	27095	1069169	46462	110486	0	0	8057	591191	0	0
2024-08-20 09:40:47			0	36851	0	0	0	28244	26830	160294	26828	1069205	46462	110489	0	0	8059	589971	0	0
2024-08-20 09:41:47			0	36844	0	0	0	28233	26830	160186	26890	1069232	46452	110485	0	0	8059	590255	0	0
2024-08-20 09:42:47			0	36826	0	0	0	28238	26830	160210	26700	1069196	46462	110487	0	0	8058	590987	0	0
2024-08-20 09:43:47			0	36820	0	0	0	28236	26830	160298	27069	1069223	46462	110486	0	0	8057	591231	0	0
2024-08-20 09:44:47			0	36817	0	0	0	28218	26820	160250	26942	1069268	46451	110479	0	0	8057	591387	0	0
2024-08-20 09:45:47			0	36819	0	0	0	28236	26820	160194	27071	1069187	46461	110486	0	0	8057	591306	0	0
2024-08-20 09:46:47			0	36833	0	0	0	28241	26830	160294	26824	1069223	46462	110488	0	0	8058	590702	0	0
2024-08-20 09:47:47			0	36833	0	0	0	28246	26840	160254	26890	1069223	46463	110490	0	0	8058	590668	0	0
2024-08-20 09:48:47			0	36827	0	0	0	28244	26840	160238	26852	1069295	46452	110489	0	0	8058	590913	0	0
2024-08-20 09:49:47			0	36844	0	0	0	28249	26830	160214	27369	1069232	46462	110491	0	0	8058	590255	0	0
2024-08-20 09:50:47			0	36843	0	0	0	28246	26830	160198	27050	1069259	46462	110490	0	0	8058	590296	0	0
2024-08-20 09:51:47			0	36844	0	0	0	28238	26830	160218	26956	1069286	46440	110487	0	0	8059	590255	0	0
2024-08-20 09:52:47			0	36836	0	0	0	28249	26850	160202	27057	1069259	46454	110491	0	0	8058	590513	0	0
2024-08-20 09:53:47			0	36832	0	0	0	28241	26840	160206	26904	1069277	46441	110488	0	0	8058	590709	0	0
2024-08-20 09:54:47			0	36829	0	0	0	28238	26840	160106	27208	1069304	46463	110487	0	0	8058	590831	0	0
2024-08-20 09:55:47			0	36826	0	0	0	28246	26840	160098	26876	1069250	46452	110490	0	0	8058	590953	0	0
2024-08-20 09:56:47			0	36827	0	0	0	28244	26850	160154	27112	1069286	46464	110489	0	0	8058	590879	0	0
2024-08-20 09:57:47			0	36859	0	0	0	28246	26840	160202	26838	1069295	46441	110490	0	0	8059	589612	0	0
2024-08-20 09:58:47			0	36834	0	0	0	28241	26840	160062	26693	1069277	46463	110488	0	0	8058	590628	0	0
2024-08-20 09:59:47			0	36858	0	0	0	28241	26840	160242	27026	1069268	46452	110488	0	0	8059	589652	0	0
2024-08-20 10:00:47			0	36848	0	0	0	28246	26850	160106	27241	1069313	46464	110490	0	0	8059	590025	0	0
2024-08-20 10:01:47			0	36826	0	0	0	28244	26840	160162	27078	1069277	46452	110489	0	0	8058	590953	0	0
2024-08-20 10:02:47			0	36829	0	0	0	28238	26840	160102	26949	1069223	46463	110487	0	0	8058	590831	0	0
2024-08-20 10:03:47			0	36823	0	0	0	28231	26840	160218	27220	1069196	46452	110484	0	0	8058	591075	0	0
2024-08-20 10:04:47			0	36837	0	0	0	28220	26840	160186	27154	1069268	46441	110480	0	0	8059	590506	0	0
2024-08-20 10:05:47			0	36845	0	0	0	28220	26830	160182	26984	1069125	46452	110480	0	0	8059	590214	0	0
2024-08-20 10:06:47			0	36837	0	0	0	28210	26830	160154	26968	1069178	46440	110476	0	0	8059	590540	0	0
2024-08-20 10:07:47			0	36830	0	0	0	28202	26820	160222	27116	1069134	46428	110473	0	0	8058	590858	0	0
2024-08-20 10:08:47			0	36829	0	0	0	28197	26830	160074	27067	1069169	46462	110471	0	0	8058	590865	0	0
2024-08-20 10:09:47			0	36830	0	0	0	28192	26820	160206	27310	1069107	46451	110469	0	0	8059	590858	0	0
2024-08-20 10:10:47			0	36851	0	0	0	28194	26820	160042	26986	1069071	46438	110470	0	0	8060	590004	0	0
2024-08-20 10:11:47			0	36883	0	0	0	28192	26820	159754	26712	1069107	46451	110469	0	0	8062	588705	0	0
2024-08-20 10:12:47			0	36964	0	0	0	28197	26820	159586	27104	1069098	46450	110471	0	0	8066	585424	0	0
2024-08-20 10:13:47			0	37054	0	0	0	28194	26820	159178	27163	1069098	46450	110470	0	0	8072	581794	0	0
2024-08-20 10:14:47			0	37160	0	0	0	28194	26810	158798	27069	1069080	46438	110470	0	0	8078	577570	0	0
2024-08-20 10:15:47			0	37279	0	0	0	28199	26810	158370	26840	1069089	46450	110472	0	0	8085	572816	0	0
2024-08-20 10:16:47			0	37382	0	0	0	28202	26810	157967	27190	1069089	46438	110473	0	0	8091	568722	0	0
2024-08-20 10:17:47			0	37438	0	0	0	28215	26810	157627	26908	1069062	46450	110478	0	0	8094	566504	0	0
2024-08-20 10:18:47			0	37518	0	0	0	28215	26810	157363	27105	1069160	46483	110478	0	0	8098	563345	0	0
2024-08-20 10:19:47			0	37588	0	0	0	28223	26820	157075	26703	1069187	46451	110481	0	0	8102	560559	0	0
2024-08-20 10:20:47			0	37626	0	0	0	28228	26820	156951	27180	1069134	46461	110483	0	0	8105	559067	0	0
2024-08-20 10:21:47			0	37673	0	0	0	28241	26820	156763	26892	1069151	46438	110488	0	0	8107	557226	0	0
2024-08-20 10:22:47			0	37690	0	0	0	28236	26830	156663	27201	1069259	46462	110486	0	0	8108	556529	0	0
2024-08-20 10:23:47			0	37700	0	0	0	28241	26830	156751	27211	1069223	46452	110488	0	0	8109	556138	0	0
2024-08-20 10:24:47			0	37727	0	0	0	28246	26830	156567	27303	1069250	46440	110490	0	0	8110	555084	0	0
2024-08-20 10:25:47			0	37740	0	0	0	28251	26830	156495	27504	1069223	46452	110492	0	0	8111	554576	0	0
2024-08-20 10:26:47			0	37727	0	0	0	28259	26830	156515	27086	1069286	46452	110495	0	0	8110	555084	0	0
2024-08-20 10:27:47			0	37715	0	0	0	28257	26840	156531	26942	1069331	46441	110494	0	0	8109	555520	0	0
2024-08-20 10:28:47			0	37682	0	0	0	28267	26840	156619	26901	1069358	46452	110498	0	0	8107	556810	0	0
2024-08-20 10:29:47			0	37633	0	0	0	28264	26850	156711	26934	1069313	46464	110497	0	0	8105	558697	0	0
2024-08-20 10:30:47			0	37619	0	0	0	28270	26840	156855	26805	1069331	46452	110499	0	0	8104	559278	0	0
2024-08-20 10:31:47			0	37607	0	0	0	28275	26850	157011	26679	1069340	46442	110501	0	0	8103	559716	0	0
2024-08-20 10:32:47			0	37570	0	0	0	28270	26850	157083	26901	1069349	46455	110499	0	0	8101	561170	0	0
2024-08-20 10:33:47			0	37567	0	0	0	28267	26860	157083	26776	1069412	46455	110498	0	0	8101	561255	0	0
2024-08-20 10:34:47			0	37553	0	0	0	28280	26850	157235	27105	1069376	46443	110503	0	0	8100	561838	0	0
2024-08-20 10:35:47			0	37537	0	0	0	28285	26860	157195	27017	1069385	46455	110505	0	0	8099	562436	0	0
2024-08-20 10:36:47			0	37534	0	0	0	28283	26870	157287	27232	1069376	46456	110504	0	0	8099	562521	0	0
2024-08-20 10:37:47			0	37513	0	0	0	28285	26860	157295	26847	1069358	46465	110505	0	0	8097	563381	0	0
2024-08-20 10:38:47			0	37487	0	0	0	28288	26860	157307	26883	1069438	46455	110506	0	0	8096	564406	0	0
2024-08-20 10:39:47			0	37452	0	0	0	28301	26860	157547	26805	1069465	46465	110511	0	0	8093	565788	0	0
2024-08-20 10:40:47			0	37459	0	0	0	28298	26870	157507	27045	1069465	46457	110510	0	0	8094	565479	0	0
2024-08-20 10:41:47			0	37444	0	0	0	28303	26870	157663	26953	1069492	46467	110512	0	0	8093	566072	0	0
2024-08-20 10:42:47			0	37419	0	0	0	28311	26890	157687	27081	1069600	46468	110515	0	0	8091	566996	0	0
2024-08-20 10:43:47			0	37403	0	0	0	28319	26880	157679	27036	1069564	46467	110518	0	0	8090	567662	0	0
2024-08-20 10:44:47			0	37386	0	0	0	28332	26900	157719	26764	1069618	46458	110523	0	0	8089	568270	0	0
2024-08-20 10:45:47			0	37376	0	0	0	28327	26900	157799	27012	1069645	46458	110521	0	0	8089	568666	0	0
2024-08-20 10:46:47			0	37384	0	0	0	28329	26900	157851	26944	1069618	46469	110522	0	0	8089	568349	0	0
2024-08-20 10:47:47			0	37385	0	0	0	28329	26910	157887	27170	1069663	46459	110522	0	0	8089	568277	0	0
2024-08-20 10:48:47			0	37381	0	0	0	28327	26910	157767	26878	1069609	46459	110521	0	0	8089	568435	0	0
2024-08-20 10:49:47			0	37409	0	0	0	28319	26910	157823	26987	1069663	46459	110518	0	0	8091	567326	0	0
2024-08-20 10:50:47			0	37375	0	0	0	28329	26910	157727	26790	1069699	46460	110522	0	0	8089	568673	0	0
2024-08-20 10:51:47			0	37396	0	0	0	28329	26920	157747	27013	1069708	46471	110522	0	0	8090	567809	0	0
2024-08-20 10:52:47			0	37391	0	0	0	28327	26910	157831	26739	1069699	46460	110521	0	0	8090	568039	0	0
2024-08-20 10:53:47			0	37378	0	0	0	28324	26920	157807	26745	1069708	46460	110520	0	0	8089	568522	0	0
2024-08-20 10:54:47			0	37372	0	0	0	28322	26920	157763	26870	1069681	46460	110519	0	0	8089	568760	0	0
2024-08-20 10:55:47			0	37382	0	0	0	28324	26920	157831	26828	1069681	46460	110520	0	0	8089	568363	0	0
2024-08-20 10:56:47			0	37386	0	0	0	28345	26920	157867	27076	1069717	46461	110528	0	0	8089	568205	0	0
2024-08-20 10:57:47			0	37368	0	0	0	28340	26930	157903	26627	1069726	46461	110526	0	0	8088	568886	0	0
2024-08-20 10:58:47			0	37361	0	0	0	28335	26920	157859	26972	1069789	46449	110524	0	0	8088	569196	0	0
2024-08-20 10:59:47			0	37347	0	0	0	28335	26930	157931	26824	1069780	46461	110524	0	0	8087	569719	0	0
2024-08-20 11:00:47			0	37326	0	0	0	28337	26930	157995	27022	1069753	46472	110525	0	0	8086	570553	0	0
2024-08-20 11:01:47			0	37298	0	0	0	28335	26940	158138	26986	1069798	46463	110524	0	0	8084	571633	0	0
2024-08-20 11:02:47			0	37295	0	0	0	28340	26930	158122	26934	1069699	46461	110526	0	0	8084	571785	0	0
2024-08-20 11:03:47			0	37285	0	0	0	28350	26930	158186	26873	1069780	46472	110530	0	0	8083	572183	0	0
2024-08-20 11:04:47			0	37270	0	0	0	28335	26930	158210	26838	1069753	46472	110524	0	0	8083	572780	0	0
2024-08-20 11:05:47			0	37270	0	0	0	28345	26930	158302	26942	1069753	46472	110528	0	0	8082	572780	0	0
2024-08-20 11:06:47			0	37249	0	0	0	28350	26940	158274	26979	1069852	46485	110530	0	0	8081	573585	0	0
2024-08-20 11:07:47			0	37240	0	0	0	28363	26950	158418	27090	1069861	46463	110535	0	0	8080	573910	0	0
2024-08-20 11:08:47			0	37238	0	0	0	28355	26950	158410	26876	1069834	46474	110532	0	0	8080	573990	0	0
2024-08-20 11:09:47			0	37228	0	0	0	28361	26950	158358	27175	1069861	46463	110534	0	0	8080	574389	0	0
2024-08-20 11:10:47			0	37236	0	0	0	28371	26950	158402	26791	1069897	46486	110538	0	0	8080	574070	0	0
2024-08-20 11:11:47			0	37225	0	0	0	28374	26950	158426	26870	1069870	46475	110539	0	0	8079	574509	0	0
2024-08-20 11:12:47			0	37206	0	0	0	28376	26960	158506	27045	1069932	46464	110540	0	0	8078	575235	0	0
2024-08-20 11:13:47			0	37222	0	0	0	28371	26960	158594	27012	1069888	46465	110538	0	0	8079	574596	0	0
2024-08-20 11:14:47			0	37207	0	0	0	28379	26960	158546	26901	1069915	46465	110541	0	0	8078	575195	0	0
2024-08-20 11:15:47			0	37200	0	0	0	28374	26960	158462	26894	1069941	46476	110539	0	0	8078	575474	0	0
2024-08-20 11:16:47			0	37216	0	0	0	28379	26970	158534	26870	1069950	46487	110541	0	0	8079	574802	0	0
2024-08-20 11:17:47			0	37218	0	0	0	28389	26960	158506	26998	1069906	46475	110545	0	0	8079	574755	0	0
2024-08-20 11:18:47			0	37199	0	0	0	28374	26970	158542	26649	1069977	46487	110539	0	0	8078	575481	0	0
2024-08-20 11:19:47			0	37215	0	0	0	28386	26960	158454	26993	1069995	46465	110544	0	0	8079	574875	0	0
2024-08-20 11:20:47			0	37226	0	0	0	28397	26980	158486	26972	1070031	46478	110548	0	0	8079	574370	0	0
2024-08-20 11:21:47			0	37229	0	0	0	28399	26970	158598	27209	1070004	46465	110549	0	0	8079	574283	0	0
2024-08-20 11:22:47			0	37222	0	0	0	28402	26990	158298	26970	1069996	46479	110550	0	0	8079	574497	0	0
2024-08-20 11:23:47			0	37249	0	0	0	28412	26990	158422	26875	1070076	46490	110554	0	0	8080	573420	0	0
2024-08-20 11:24:47			0	37249	0	0	0	28407	26990	158318	26738	1070067	46489	110552	0	0	8080	573420	0	0
2024-08-20 11:25:47			0	37251	0	0	0	28423	27000	158322	27112	1070112	46479	110558	0	0	8080	573308	0	0
2024-08-20 11:26:47			0	37288	0	0	0	28418	27000	158198	26677	1070121	46469	110556	0	0	8083	571834	0	0
2024-08-20 11:27:47			0	37294	0	0	0	28420	27000	158090	27086	1070166	46490	110557	0	0	8083	571596	0	0
2024-08-20 11:28:47			0	37299	0	0	0	28431	27010	158122	26816	1070184	46480	110561	0	0	8083	571364	0	0
2024-08-20 11:29:47			0	37329	0	0	0	28428	27010	157975	26680	1070157	46491	110560	0	0	8085	570172	0	0
2024-08-20 11:30:47			0	37322	0	0	0	28428	27010	158031	26778	1070184	46469	110560	0	0	8084	570450	0	0
2024-08-20 11:31:47			0	37308	0	0	0	28438	27020	157946	26769	1070211	46482	110564	0	0	8083	570974	0	0
2024-08-20 11:32:47			0	37322	0	0	0	28438	27020	158151	26887	1070238	46471	110564	0	0	8084	570417	0	0
2024-08-20 11:33:47			0	37335	0	0	0	28446	27020	158079	26857	1070211	46504	110567	0	0	8085	569901	0	0
2024-08-20 11:34:47			0	37335	0	0	0	28454	27030	158083	26882	1070274	46471	110570	0	0	8085	569868	0	0
2024-08-20 11:35:47			0	37311	0	0	0	28446	27030	158094	26840	1070274	46471	110567	0	0	8084	570821	0	0
2024-08-20 11:36:47			0	37297	0	0	0	28438	27030	158226	26674	1070310	46472	110564	0	0	8083	571378	0	0
2024-08-20 11:37:47			0	37302	0	0	0	28446	27040	158150	26802	1070292	46473	110567	0	0	8083	571147	0	0
2024-08-20 11:38:47			0	37288	0	0	0	28454	27040	158226	26757	1070355	46473	110570	0	0	8082	571703	0	0
2024-08-20 11:39:47			0	37271	0	0	0	28462	27040	158254	27045	1070319	46473	110573	0	0	8081	572380	0	0
2024-08-20 11:40:47			0	37270	0	0	0	28462	27040	158222	27116	1070436	46495	110573	0	0	8081	572419	0	0
2024-08-20 11:41:47			0	37272	0	0	0	28457	27050	158266	26991	1070346	46496	110571	0	0	8081	572307	0	0
2024-08-20 11:42:47			0	37274	0	0	0	28459	27050	158162	27135	1070364	46485	110572	0	0	8081	572227	0	0
2024-08-20 11:43:47			0	37254	0	0	0	28454	27060	158246	26885	1070382	46475	110570	0	0	8080	572991	0	0
2024-08-20 11:44:47			0	37268	0	0	0	28457	27060	158214	26979	1070382	46475	110571	0	0	8081	572433	0	0
2024-08-20 11:45:47			0	37243	0	0	0	28457	27050	158234	26909	1070364	46485	110571	0	0	8079	573462	0	0
2024-08-20 11:46:47			0	37255	0	0	0	28462	27050	158394	27015	1070427	46485	110573	0	0	8080	572984	0	0
2024-08-20 11:47:47			0	37271	0	0	0	28457	27050	158262	27012	1070373	46474	110571	0	0	8081	572347	0	0
2024-08-20 11:48:47			0	37283	0	0	0	28462	27060	158262	27126	1070382	46475	110573	0	0	8082	571836	0	0
2024-08-20 11:49:47			0	37266	0	0	0	28467	27060	158202	26986	1070409	46475	110575	0	0	8081	572513	0	0
2024-08-20 11:50:47			0	37263	0	0	0	28470	27050	158190	26944	1070427	46462	110576	0	0	8080	572665	0	0
2024-08-20 11:51:47			0	37288	0	0	0	28475	27060	158178	27034	1070418	46475	110578	0	0	8082	571638	0	0
2024-08-20 11:52:47			0	37283	0	0	0	28475	27070	158158	27358	1070427	46476	110578	0	0	8082	571804	0	0
2024-08-20 11:53:47			0	37294	0	0	0	28483	27060	158126	27154	1070418	46475	110581	0	0	8082	571399	0	0
2024-08-20 11:54:47			0	37303	0	0	0	28477	27070	158170	27298	1070454	46476	110579	0	0	8083	571008	0	0
2024-08-20 11:55:47			0	37326	0	0	0	28480	27070	158035	27041	1070490	46487	110580	0	0	8084	570095	0	0
2024-08-20 11:56:47			0	37296	0	0	0	28475	27070	158094	27225	1070436	46487	110578	0	0	8082	571287	0	0
2024-08-20 11:57:47			0	37311	0	0	0	28493	27070	157990	27225	1070535	46487	110585	0	0	8083	570690	0	0
2024-08-20 11:58:47			0	37319	0	0	0	28483	27070	157955	27131	1070436	46498	110581	0	0	8084	570373	0	0
2024-08-20 11:59:47			0	37322	0	0	0	28485	27070	158067	27135	1070490	46476	110582	0	0	8084	570254	0	0
2024-08-20 12:00:47			0	37317	0	0	0	28493	27080	157971	26875	1070562	46500	110585	0	0	8083	570419	0	0
2024-08-20 12:01:47			0	37330	0	0	0	28485	27080	158003	27050	1070499	46477	110582	0	0	8084	569903	0	0
2024-08-20 12:02:47			0	37330	0	0	0	28485	27080	157907	27282	1070580	46477	110582	0	0	8084	569903	0	0
2024-08-20 12:03:47			0	37349	0	0	0	28496	27080	157791	27138	1070508	46478	110586	0	0	8085	569150	0	0
2024-08-20 12:04:47			0	37347	0	0	0	28490	27090	157947	27194	1070544	46478	110584	0	0	8085	569196	0	0
2024-08-20 12:05:47			0	37361	0	0	0	28483	27080	157787	27013	1070589	46478	110581	0	0	8086	568674	0	0
2024-08-20 12:06:47			0	37370	0	0	0	28483	27090	157739	26972	1070463	46466	110581	0	0	8087	568285	0	0
2024-08-20 12:07:47			0	37374	0	0	0	28490	27080	157783	27258	1070526	46477	110584	0	0	8087	568159	0	0
2024-08-20 12:08:47			0	37391	0	0	0	28490	27080	157767	27083	1070535	46466	110584	0	0	8088	567486	0	0
2024-08-20 12:09:47			0	37401	0	0	0	28488	27080	157651	27206	1070526	46477	110583	0	0	8088	567090	0	0
2024-08-20 12:10:47			0	37411	0	0	0	28490	27080	157691	27086	1070589	46489	110584	0	0	8089	566695	0	0
2024-08-20 12:11:47			0	37407	0	0	0	28488	27090	157567	26928	1070526	46466	110583	0	0	8089	566820	0	0
2024-08-20 12:12:47			0	37427	0	0	0	28488	27090	157575	27039	1070571	46466	110583	0	0	8090	566030	0	0
2024-08-20 12:13:47			0	37411	0	0	0	28485	27080	157683	26984	1070580	46488	110582	0	0	8089	566695	0	0
2024-08-20 12:14:47			0	37408	0	0	0	28480	27090	157587	26904	1070598	46478	110580	0	0	8089	566781	0	0
2024-08-20 12:15:47			0	37402	0	0	0	28488	27080	157583	27135	1070589	46478	110583	0	0	8088	567050	0	0
2024-08-20 12:16:47			0	37399	0	0	0	28488	27090	157639	26863	1070571	46478	110583	0	0	8088	567137	0	0
2024-08-20 12:17:47			0	37410	0	0	0	28485	27100	157663	26873	1070589	46490	110582	0	0	8089	566669	0	0
2024-08-20 12:18:47			0	37409	0	0	0	28480	27090	157551	27052	1070571	46478	110580	0	0	8089	566741	0	0
2024-08-20 12:19:47			0	37413	0	0	0	28485	27080	157579	26944	1070481	46478	110582	0	0	8089	566616	0	0
2024-08-20 12:20:47			0	37420	0	0	0	28485	27080	157507	26790	1070481	46466	110582	0	0	8089	566339	0	0
2024-08-20 12:21:47			0	37429	0	0	0	28488	27090	157511	27038	1070625	46456	110583	0	0	8090	565951	0	0
2024-08-20 12:22:47			0	37451	0	0	0	28485	27090	157371	27031	1070544	46478	110582	0	0	8091	565082	0	0
2024-08-20 12:23:47			0	37444	0	0	0	28488	27090	157435	26965	1070580	46489	110583	0	0	8091	565358	0	0
2024-08-20 12:24:47			0	37445	0	0	0	28483	27090	157419	26837	1070634	46478	110581	0	0	8091	565319	0	0
2024-08-20 12:25:47			0	37454	0	0	0	28488	27090	157387	26753	1070607	46489	110583	0	0	8091	564964	0	0
2024-08-20 12:26:47			0	37453	0	0	0	28493	27090	157431	26798	1070607	46489	110585	0	0	8091	565003	0	0
2024-08-20 12:27:47			0	37453	0	0	0	28493	27090	157411	26755	1070580	46478	110585	0	0	8091	565003	0	0
2024-08-20 12:28:47			0	37454	0	0	0	28485	27090	157527	27008	1070571	46489	110582	0	0	8092	564964	0	0
2024-08-20 12:29:47			0	37451	0	0	0	28496	27090	157467	27052	1070571	46489	110586	0	0	8091	565082	0	0
2024-08-20 12:30:47			0	37439	0	0	0	28496	27090	157351	26923	1070580	46489	110586	0	0	8090	565556	0	0
2024-08-20 12:31:47			0	37449	0	0	0	28496	27090	157423	27149	1070660	46489	110586	0	0	8091	565161	0	0
2024-08-20 12:32:47			0	37439	0	0	0	28493	27090	157347	26920	1070580	46478	110585	0	0	8091	565556	0	0
2024-08-20 12:33:47			0	37456	0	0	0	28490	27090	157335	26708	1070598	46489	110584	0	0	8092	564885	0	0
2024-08-20 12:34:47			0	37471	0	0	0	28477	27100	157311	26948	1070616	46467	110579	0	0	8093	564261	0	0
2024-08-20 12:35:47			0	37472	0	0	0	28485	27090	157291	26701	1070598	46466	110582	0	0	8093	564253	0	0
2024-08-20 12:36:47			0	37437	0	0	0	28477	27080	157391	27128	1070481	46478	110579	0	0	8091	565667	0	0
2024-08-20 12:37:47			0	37459	0	0	0	28480	27090	157367	26644	1070580	46478	110580	0	0	8092	564766	0	0
2024-08-20 12:38:47			0	37469	0	0	0	28477	27070	157407	26987	1070517	46476	110579	0	0	8092	564436	0	0
2024-08-20 12:39:47			0	37465	0	0	0	28483	27090	157339	27128	1070544	46478	110581	0	0	8092	564529	0	0
2024-08-20 12:40:47			0	37469	0	0	0	28488	27090	157319	27033	1070571	46466	110583	0	0	8092	564372	0	0
2024-08-20 12:41:47			0	37472	0	0	0	28488	27090	157287	26812	1070553	46478	110583	0	0	8093	564253	0	0
2024-08-20 12:42:47			0	37467	0	0	0	28480	27090	157363	26996	1070571	46478	110580	0	0	8092	564451	0	0
2024-08-20 12:43:47			0	37463	0	0	0	28483	27090	157287	26672	1070607	46489	110581	0	0	8092	564608	0	0
2024-08-20 12:44:47			0	37458	0	0	0	28485	27090	157331	27003	1070571	46478	110582	0	0	8092	564806	0	0
2024-08-20 12:45:47			0	37478	0	0	0	28490	27090	157335	26724	1070598	46478	110584	0	0	8093	564017	0	0
2024-08-20 12:46:47			0	37471	0	0	0	28488	27090	157307	27112	1070571	46466	110583	0	0	8092	564293	0	0
2024-08-20 12:47:47			0	37498	0	0	0	28485	27090	157203	27227	1070571	46478	110582	0	0	8094	563229	0	0
2024-08-20 12:48:47			0	37493	0	0	0	28477	27080	157303	27199	1070642	46466	110579	0	0	8094	563458	0	0
2024-08-20 12:49:47			0	37496	0	0	0	28477	27080	157099	27248	1070562	46466	110579	0	0	8094	563340	0	0
2024-08-20 12:50:47			0	37492	0	0	0	28493	27090	157139	26982	1070598	46478	110585	0	0	8094	563465	0	0
2024-08-20 12:51:47			0	37519	0	0	0	28485	27090	157163	26859	1070598	46478	110582	0	0	8095	562402	0	0
2024-08-20 12:52:47			0	37514	0	0	0	28493	27080	157095	27076	1070606	46477	110585	0	0	8095	562631	0	0
2024-08-20 12:53:47			0	37511	0	0	0	28493	27090	157007	27254	1070571	46489	110585	0	0	8095	562717	0	0
2024-08-20 12:54:47			0	37512	0	0	0	28480	27090	157167	27031	1070634	46478	110580	0	0	8095	562678	0	0
2024-08-20 12:55:47			0	37518	0	0	0	28483	27080	157075	27138	1070562	46466	110581	0	0	8095	562474	0	0
2024-08-20 12:56:47			0	37527	0	0	0	28472	27080	157079	27013	1070580	46488	110577	0	0	8096	562120	0	0
2024-08-20 12:57:47			0	37533	0	0	0	28477	27090	157075	26960	1070544	46466	110579	0	0	8096	561851	0	0
2024-08-20 12:58:47			0	37516	0	0	0	28480	27090	157055	26870	1070598	46466	110580	0	0	8095	562520	0	0
2024-08-20 12:59:47			0	37521	0	0	0	28488	27080	157151	26916	1070589	46466	110583	0	0	8095	562356	0	0
2024-08-20 13:00:47			0	37519	0	0	0	28496	27080	157099	26979	1070615	46489	110586	0	0	8095	562434	0	0
2024-08-20 13:01:47			0	37516	0	0	0	28498	27090	157143	26620	1070634	46466	110587	0	0	8095	562520	0	0
2024-08-20 13:02:47			0	37535	0	0	0	28511	27090	157067	27088	1070714	46478	110592	0	0	8096	561773	0	0
2024-08-20 13:03:47			0	37537	0	0	0	28501	27090	157199	26975	1070687	46478	110588	0	0	8096	561694	0	0
2024-08-20 13:04:47			0	37533	0	0	0	28503	27090	157087	26816	1070678	46478	110589	0	0	8096	561851	0	0
2024-08-20 13:05:47			0	37546	0	0	0	28501	27100	157075	26890	1070669	46490	110588	0	0	8097	561308	0	0
2024-08-20 13:06:47			0	37534	0	0	0	28498	27100	157131	27111	1070643	46479	110587	0	0	8096	561780	0	0
2024-08-20 13:07:47			0	37522	0	0	0	28506	27100	157143	26871	1070678	46468	110590	0	0	8095	562252	0	0
2024-08-20 13:08:47			0	37520	0	0	0	28503	27100	157227	26906	1070678	46480	110589	0	0	8095	562331	0	0
2024-08-20 13:09:47			0	37511	0	0	0	28514	27100	157095	27067	1070616	46490	110593	0	0	8094	562685	0	0
2024-08-20 13:10:47			0	37515	0	0	0	28511	27110	157179	27164	1070696	46480	110592	0	0	8095	562495	0	0
2024-08-20 13:11:47			0	37514	0	0	0	28519	27110	157143	26852	1070687	46491	110595	0	0	8095	562534	0	0
2024-08-20 13:12:47			0	37509	0	0	0	28506	27110	157147	27166	1070741	46491	110590	0	0	8094	562731	0	0
2024-08-20 13:13:47			0	37525	0	0	0	28514	27100	157107	27227	1070732	46491	110593	0	0	8095	562134	0	0
2024-08-20 13:14:47			0	37514	0	0	0	28503	27100	157119	27272	1070759	46491	110589	0	0	8095	562567	0	0
2024-08-20 13:15:47			0	37512	0	0	0	28503	27110	157187	27258	1070741	46491	110589	0	0	8095	562613	0	0
2024-08-20 13:16:47			0	37512	0	0	0	28514	27110	157127	27128	1070750	46480	110593	0	0	8095	562613	0	0
2024-08-20 13:17:47			0	37507	0	0	0	28509	27120	157203	27019	1070732	46458	110591	0	0	8094	562778	0	0
2024-08-20 13:18:47			0	37527	0	0	0	28511	27110	157083	27157	1070714	46480	110592	0	0	8095	562023	0	0
2024-08-20 13:19:47			0	37507	0	0	0	28511	27130	157215	26958	1070723	46493	110592	0	0	8094	562745	0	0
2024-08-20 13:20:47			0	37497	0	0	0	28509	27110	157203	27135	1070714	46491	110591	0	0	8094	563204	0	0
2024-08-20 13:21:47			0	37478	0	0	0	28511	27110	157183	27249	1070723	46468	110592	0	0	8093	563952	0	0
2024-08-20 13:22:47			0	37515	0	0	0	28501	27110	157283	27105	1070714	46491	110588	0	0	8095	562495	0	0
2024-08-20 13:23:47			0	37497	0	0	0	28511	27110	157259	26817	1070741	46491	110592	0	0	8094	563204	0	0
2024-08-20 13:24:47			0	37508	0	0	0	28522	27110	157247	26772	1070714	46480	110596	0	0	8094	562771	0	0
2024-08-20 13:25:47			0	37500	0	0	0	28511	27110	157327	26935	1070750	46491	110592	0	0	8094	563085	0	0
2024-08-20 13:26:47			0	37496	0	0	0	28514	27110	157267	26951	1070831	46468	110593	0	0	8094	563243	0	0
2024-08-20 13:27:47			0	37499	0	0	0	28514	27120	157359	27123	1070768	46493	110593	0	0	8094	563093	0	0
2024-08-20 13:28:47			0	37490	0	0	0	28514	27120	157279	26670	1070786	46492	110593	0	0	8093	563447	0	0
2024-08-20 13:29:47			0	37502	0	0	0	28514	27120	157215	27263	1070759	46492	110593	0	0	8094	562974	0	0
2024-08-20 13:30:47			0	37497	0	0	0	28524	27120	157187	26774	1070759	46502	110597	0	0	8094	563171	0	0
2024-08-20 13:31:47			0	37495	0	0	0	28516	27120	157235	26863	1070759	46469	110594	0	0	8094	563250	0	0
2024-08-20 13:32:47			0	37492	0	0	0	28522	27110	157243	27182	1070696	46480	110596	0	0	8093	563400	0	0
2024-08-20 13:33:47			0	37505	0	0	0	28519	27120	157211	26892	1070795	46470	110595	0	0	8094	562856	0	0
2024-08-20 13:34:47			0	37495	0	0	0	28522	27120	157287	26925	1070759	46492	110596	0	0	8093	563250	0	0
2024-08-20 13:35:47			0	37501	0	0	0	28522	27120	157343	27137	1070840	46492	110596	0	0	8094	563014	0	0
2024-08-20 13:36:47			0	37484	0	0	0	28522	27120	157259	26878	1070768	46482	110596	0	0	8093	563683	0	0
2024-08-20 13:37:47			0	37495	0	0	0	28527	27120	157227	27046	1070768	46482	110598	0	0	8093	563250	0	0
2024-08-20 13:38:47			0	37503	0	0	0	28529	27120	157199	26630	1070876	46482	110599	0	0	8094	562935	0	0
2024-08-20 13:39:47			0	37504	0	0	0	28537	27130	157211	27050	1070831	46482	110602	0	0	8094	562863	0	0
2024-08-20 13:40:47			0	37488	0	0	0	28540	27120	157311	26856	1070903	46482	110603	0	0	8093	563526	0	0
2024-08-20 13:41:47			0	37486	0	0	0	28542	27140	157415	27067	1070930	46483	110604	0	0	8093	563540	0	0
2024-08-20 13:42:47			0	37510	0	0	0	28542	27130	157299	27041	1070921	46483	110604	0	0	8094	562627	0	0
2024-08-20 13:43:47			0	37525	0	0	0	28532	27130	157231	26760	1070921	46494	110600	0	0	8095	562037	0	0
2024-08-20 13:44:47			0	37512	0	0	0	28548	27140	157203	26811	1070984	46483	110606	0	0	8094	562516	0	0
2024-08-20 13:45:47			0	37504	0	0	0	28550	27130	157187	27123	1070912	46482	110607	0	0	8094	562863	0	0
2024-08-20 13:46:47			0	37519	0	0	0	28548	27130	157275	26868	1070894	46494	110606	0	0	8094	562273	0	0
2024-08-20 13:47:47			0	37506	0	0	0	28540	27130	157219	26694	1070921	46471	110603	0	0	8094	562785	0	0
2024-08-20 13:48:47			0	37504	0	0	0	28542	27140	157227	27039	1070957	46494	110604	0	0	8094	562831	0	0
2024-08-20 13:49:47			0	37503	0	0	0	28555	27140	157167	26987	1070912	46484	110609	0	0	8093	562871	0	0
2024-08-20 13:50:47			0	37507	0	0	0	28553	27150	157195	27196	1070975	46485	110608	0	0	8094	562681	0	0
2024-08-20 13:51:47			0	37523	0	0	0	28555	27150	157143	27069	1070984	46485	110609	0	0	8095	562051	0	0
2024-08-20 13:52:47			0	37509	0	0	0	28561	27160	157247	27244	1071020	46496	110611	0	0	8094	562570	0	0
2024-08-20 13:53:47			0	37526	0	0	0	28566	27150	157167	27131	1071082	46485	110613	0	0	8095	561933	0	0
2024-08-20 13:54:47			0	37529	0	0	0	28576	27160	157063	26852	1071073	46473	110617	0	0	8095	561783	0	0
2024-08-20 13:55:47			0	37546	0	0	0	28579	27150	157099	27019	1071011	46496	110618	0	0	8096	561147	0	0
2024-08-20 13:56:47			0	37532	0	0	0	28576	27150	157139	26868	1071064	46485	110617	0	0	8095	561697	0	0
2024-08-20 13:57:47			0	37543	0	0	0	28581	27160	157011	26696	1071083	46486	110619	0	0	8095	561233	0	0
2024-08-20 13:58:47			0	37557	0	0	0	28581	27170	156999	26757	1071065	46487	110619	0	0	8096	560651	0	0
2024-08-20 13:59:47			0	37557	0	0	0	28573	27170	157103	27043	1071146	46487	110616	0	0	8096	560651	0	0
2024-08-20 14:00:47			0	37563	0	0	0	28561	27170	156971	26759	1071119	46508	110611	0	0	8097	560415	0	0
2024-08-20 14:01:47			0	37561	0	0	0	28566	27180	156895	27275	1071137	46487	110613	0	0	8097	560462	0	0
2024-08-20 14:02:47			0	37530	0	0	0	28566	27170	157043	26847	1071092	46498	110613	0	0	8095	561712	0	0
2024-08-20 14:03:47			0	37545	0	0	0	28571	27180	156919	27078	1071083	46475	110615	0	0	8096	561090	0	0
2024-08-20 14:04:47			0	37549	0	0	0	28571	27180	156959	26908	1071110	46475	110615	0	0	8096	560933	0	0
2024-08-20 14:05:47			0	37546	0	0	0	28579	27170	156899	26882	1071155	46487	110618	0	0	8096	561083	0	0
2024-08-20 14:06:47			0	37554	0	0	0	28584	27180	156891	27164	1071137	46498	110620	0	0	8096	560736	0	0
2024-08-20 14:07:47			0	37580	0	0	0	28592	27170	156839	26866	1071128	46487	110623	0	0	8097	559748	0	0
2024-08-20 14:08:47			0	37560	0	0	0	28589	27180	156891	27317	1071164	46487	110622	0	0	8096	560501	0	0
2024-08-20 14:09:47			0	37590	0	0	0	28579	27180	156819	26857	1071173	46476	110618	0	0	8098	559324	0	0
2024-08-20 14:10:47			0	37574	0	0	0	28576	27180	156823	26868	1071173	46476	110617	0	0	8097	559951	0	0
2024-08-20 14:11:47			0	37587	0	0	0	28592	27190	156863	27085	1071155	46489	110623	0	0	8098	559410	0	0
2024-08-20 14:12:47			0	37592	0	0	0	28610	27190	156819	26854	1071235	46489	110630	0	0	8098	559214	0	0
2024-08-20 14:13:47			0	37600	0	0	0	28623	27190	156903	27033	1071208	46489	110635	0	0	8098	558900	0	0
2024-08-20 14:14:47			0	37588	0	0	0	28618	27190	156795	26875	1071208	46500	110633	0	0	8098	559370	0	0
2024-08-20 14:15:47			0	37601	0	0	0	28623	27210	156715	27118	1071352	46501	110635	0	0	8098	558797	0	0
2024-08-20 14:16:47			0	37583	0	0	0	28628	27210	156811	27137	1071406	46479	110637	0	0	8097	559502	0	0
2024-08-20 14:17:47			0	37580	0	0	0	28636	27210	156739	27010	1071307	46502	110640	0	0	8097	559620	0	0
2024-08-20 14:18:47			0	37587	0	0	0	28633	27200	156743	26998	1071370	46500	110639	0	0	8097	559377	0	0
2024-08-20 14:19:47			0	37589	0	0	0	28623	27220	156879	26736	1071370	46492	110635	0	0	8098	559235	0	0
2024-08-20 14:20:47			0	37591	0	0	0	28649	27220	156703	27142	1071343	46492	110645	0	0	8097	559157	0	0
2024-08-20 14:21:47			0	37612	0	0	0	28641	27230	156731	26817	1071379	46492	110642	0	0	8099	558302	0	0
2024-08-20 14:22:47			0	37596	0	0	0	28667	27230	156675	26960	1071406	46492	110652	0	0	8097	558929	0	0
2024-08-20 14:23:47			0	37621	0	0	0	28670	27220	156719	27124	1071478	46502	110653	0	0	8099	557982	0	0
2024-08-20 14:24:47			0	37636	0	0	0	28675	27240	156639	27012	1071568	46504	110655	0	0	8100	557331	0	0
2024-08-20 14:25:47			0	37652	0	0	0	28675	27240	156551	26828	1071487	46504	110655	0	0	8101	556705	0	0
2024-08-20 14:26:47			0	37650	0	0	0	28670	27240	156415	27112	1071487	46504	110653	0	0	8100	556784	0	0
2024-08-20 14:27:47			0	37638	0	0	0	28667	27250	156411	26883	1071469	46494	110652	0	0	8100	557221	0	0
2024-08-20 14:28:47			0	37650	0	0	0	28662	27260	156395	27229	1071595	46496	110650	0	0	8101	556720	0	0
2024-08-20 14:29:47			0	37660	0	0	0	28675	27240	156431	27142	1071541	46482	110655	0	0	8101	556393	0	0
2024-08-20 14:30:47			0	37650	0	0	0	28659	27250	156387	27118	1071523	46482	110649	0	0	8101	556752	0	0
2024-08-20 14:31:47			0	37642	0	0	0	28672	27250	156483	27367	1071586	46495	110654	0	0	8100	557064	0	0
2024-08-20 14:32:47			0	37651	0	0	0	28664	27270	156395	27027	1071613	46496	110651	0	0	8101	556649	0	0
2024-08-20 14:33:47			0	37645	0	0	0	28664	27270	156435	27121	1071613	46496	110651	0	0	8100	556883	0	0
2024-08-20 14:34:47			0	37658	0	0	0	28662	27270	156375	27064	1071586	46484	110650	0	0	8101	556375	0	0
2024-08-20 14:35:47			0	37680	0	0	0	28664	27260	156343	26960	1071568	46506	110651	0	0	8102	555548	0	0
2024-08-20 14:36:47			0	37692	0	0	0	28664	27260	156307	27258	1071568	46506	110651	0	0	8103	555080	0	0
2024-08-20 14:37:47			0	37711	0	0	0	28662	27260	156299	27142	1071658	46506	110650	0	0	8104	554339	0	0
2024-08-20 14:38:47			0	37690	0	0	0	28667	27260	156139	26875	1071577	46506	110652	0	0	8103	555158	0	0
2024-08-20 14:39:47			0	37727	0	0	0	28672	27270	156183	27007	1071640	46484	110654	0	0	8105	553684	0	0
2024-08-20 14:40:47			0	37731	0	0	0	28672	27260	156191	27267	1071577	46496	110654	0	0	8105	553560	0	0
2024-08-20 14:41:47			0	37726	0	0	0	28672	27260	156159	27171	1071658	46506	110654	0	0	8105	553755	0	0
2024-08-20 14:42:47			0	37748	0	0	0	28657	27270	156115	27036	1071595	46497	110648	0	0	8107	552867	0	0
2024-08-20 14:43:47			0	37731	0	0	0	28654	27260	156063	27253	1071550	46496	110647	0	0	8106	553560	0	0
2024-08-20 14:44:47			0	37749	0	0	0	28657	27270	156159	27208	1071568	46507	110648	0	0	8107	552828	0	0
2024-08-20 14:45:47			0	37745	0	0	0	28675	27260	155971	27197	1071622	46484	110655	0	0	8106	553016	0	0
2024-08-20 14:46:47			0	37747	0	0	0	28651	27260	156151	27001	1071631	46496	110646	0	0	8107	552938	0	0
2024-08-20 14:47:47			0	37757	0	0	0	28657	27270	155979	27244	1071622	46497	110648	0	0	8107	552517	0	0
2024-08-20 14:48:47			0	37761	0	0	0	28657	27270	156115	26928	1071649	46485	110648	0	0	8107	552361	0	0
2024-08-20 14:49:47			0	37771	0	0	0	28646	27270	155983	26986	1071532	46496	110644	0	0	8108	551973	0	0
2024-08-20 14:50:47			0	37771	0	0	0	28646	27260	155999	27275	1071604	46484	110644	0	0	8108	552004	0	0
2024-08-20 14:51:47			0	37772	0	0	0	28646	27270	155927	27178	1071622	46485	110644	0	0	8108	551934	0	0
2024-08-20 14:52:47			0	37776	0	0	0	28657	27250	155979	26987	1071586	46472	110648	0	0	8108	551842	0	0
2024-08-20 14:53:47			0	37795	0	0	0	28654	27250	155939	27256	1071505	46505	110647	0	0	8109	551104	0	0
2024-08-20 14:54:47			0	37797	0	0	0	28659	27270	155907	27197	1071586	46484	110649	0	0	8109	550963	0	0
2024-08-20 14:55:47			0	37807	0	0	0	28657	27260	155899	26804	1071622	46496	110648	0	0	8110	550607	0	0
2024-08-20 14:56:47			0	37813	0	0	0	28657	27260	155835	26974	1071568	46496	110648	0	0	8110	550374	0	0
2024-08-20 14:57:47			0	37809	0	0	0	28659	27260	155819	27092	1071595	46484	110649	0	0	8110	550529	0	0
2024-08-20 14:58:47			0	37823	0	0	0	28662	27270	155819	27211	1071586	46496	110650	0	0	8111	549954	0	0
2024-08-20 14:59:47			0	37821	0	0	0	28659	27260	155791	27317	1071631	46506	110649	0	0	8111	550064	0	0
2024-08-20 15:00:47			0	37816	0	0	0	28664	27270	155919	27171	1071568	46497	110651	0	0	8110	550226	0	0
2024-08-20 15:01:47			0	37834	0	0	0	28654	27280	155827	27116	1071631	46498	110647	0	0	8112	549497	0	0
2024-08-20 15:02:47			0	37823	0	0	0	28659	27270	155799	27209	1071559	46506	110649	0	0	8111	549954	0	0
2024-08-20 15:03:47			0	37844	0	0	0	28654	27260	155711	26925	1071550	46496	110647	0	0	8112	549172	0	0
2024-08-20 15:04:47			0	37829	0	0	0	28654	27260	155839	27171	1071577	46484	110647	0	0	8111	549753	0	0
2024-08-20 15:05:47			0	37829	0	0	0	28654	27250	155807	26948	1071604	46494	110647	0	0	8111	549785	0	0
2024-08-20 15:06:47			0	37841	0	0	0	28654	27260	155871	27131	1071577	46484	110647	0	0	8112	549288	0	0
2024-08-20 15:07:47			0	37846	0	0	0	28649	27270	155731	27213	1071586	46496	110645	0	0	8112	549063	0	0
2024-08-20 15:08:47			0	37857	0	0	0	28649	27260	155771	27086	1071631	46506	110645	0	0	8113	548669	0	0
2024-08-20 15:09:47			0	37826	0	0	0	28636	27270	155739	26981	1071586	46496	110640	0	0	8111	549838	0	0
2024-08-20 15:10:47			0	37843	0	0	0	28633	27250	155635	27173	1071586	46505	110639	0	0	8112	549242	0	0
2024-08-20 15:11:47			0	37839	0	0	0	28636	27260	155595	27005	1071577	46496	110640	0	0	8112	549366	0	0
2024-08-20 15:12:47			0	37847	0	0	0	28651	27260	155619	27260	1071496	46496	110646	0	0	8112	549056	0	0
2024-08-20 15:13:47			0	37846	0	0	0	28638	27260	155619	27024	1071595	46506	110641	0	0	8112	549095	0	0
2024-08-20 15:14:47			0	37860	0	0	0	28641	27260	155667	27196	1071514	46496	110642	0	0	8113	548553	0	0
2024-08-20 15:15:47			0	37862	0	0	0	28641	27260	155603	27062	1071541	46484	110642	0	0	8113	548475	0	0
2024-08-20 15:16:47			0	37842	0	0	0	28646	27250	155631	27100	1071550	46494	110644	0	0	8112	549281	0	0
2024-08-20 15:17:47			0	37856	0	0	0	28644	27250	155607	26826	1071478	46483	110643	0	0	8113	548739	0	0
2024-08-20 15:18:47			0	37847	0	0	0	28638	27250	155691	26909	1071505	46505	110641	0	0	8112	549088	0	0
2024-08-20 15:19:47			0	37836	0	0	0	28646	27250	155671	27237	1071442	46482	110644	0	0	8112	549514	0	0
2024-08-20 15:20:47			0	37851	0	0	0	28636	27250	155723	27083	1071496	46504	110640	0	0	8113	548933	0	0
2024-08-20 15:21:47			0	37845	0	0	0	28641	27250	155723	27071	1071478	46483	110642	0	0	8112	549165	0	0
2024-08-20 15:22:47			0	37854	0	0	0	28641	27240	155719	26960	1071487	46482	110642	0	0	8113	548848	0	0
2024-08-20 15:23:47			0	37866	0	0	0	28628	27250	155635	26892	1071505	46495	110637	0	0	8114	548352	0	0
2024-08-20 15:24:47			0	37857	0	0	0	28625	27240	155727	26724	1071406	46504	110636	0	0	8113	548732	0	0
2024-08-20 15:25:47			0	37841	0	0	0	28631	27250	155671	26883	1071496	46471	110638	0	0	8112	549320	0	0
2024-08-20 15:26:47			0	37848	0	0	0	28620	27240	155727	26870	1071460	46494	110634	0	0	8113	549080	0	0
2024-08-20 15:27:47			0	37848	0	0	0	28615	27240	155659	27124	1071487	46494	110632	0	0	8113	549080	0	0
2024-08-20 15:28:47			0	37854	0	0	0	28615	27240	155743	26955	1071397	46494	110632	0	0	8113	548848	0	0
2024-08-20 15:29:47			0	37844	0	0	0	28628	27230	155727	26987	1071442	46493	110637	0	0	8112	549267	0	0
2024-08-20 15:30:47			0	37844	0	0	0	28607	27230	155695	27022	1071487	46492	110629	0	0	8113	549267	0	0
2024-08-20 15:31:47			0	37829	0	0	0	28602	27230	155719	27052	1071415	46493	110627	0	0	8112	549848	0	0
2024-08-20 15:32:47			0	37835	0	0	0	28602	27230	155699	27045	1071388	46470	110627	0	0	8112	549616	0	0
2024-08-20 15:33:47			0	37822	0	0	0	28599	27220	155779	27220	1071397	46480	110626	0	0	8112	550151	0	0
2024-08-20 15:34:47			0	37822	0	0	0	28594	27230	155843	27196	1071379	46480	110624	0	0	8112	550120	0	0
2024-08-20 15:35:47			0	37803	0	0	0	28602	27230	155923	27078	1071352	46492	110627	0	0	8110	550857	0	0
2024-08-20 15:36:47			0	37815	0	0	0	28602	27220	155831	27045	1071370	46492	110627	0	0	8111	550423	0	0
2024-08-20 15:37:47			0	37795	0	0	0	28594	27220	155891	27237	1071370	46492	110624	0	0	8110	551199	0	0
2024-08-20 15:38:47			0	37807	0	0	0	28599	27220	155859	27203	1071343	46480	110626	0	0	8111	550733	0	0
2024-08-20 15:39:47			0	37791	0	0	0	28605	27210	155899	27258	1071415	46480	110628	0	0	8110	551386	0	0
2024-08-20 15:40:47			0	37789	0	0	0	28602	27210	155995	27267	1071334	46492	110627	0	0	8110	551464	0	0
2024-08-20 15:41:47			0	37799	0	0	0	28605	27210	155995	27111	1071325	46479	110628	0	0	8110	551075	0	0
2024-08-20 15:42:47			0	37823	0	0	0	28610	27210	155903	27119	1071298	46501	110630	0	0	8111	550144	0	0
2024-08-20 15:43:47			0	37795	0	0	0	28612	27220	155871	26922	1071316	46492	110631	0	0	8110	551199	0	0
2024-08-20 15:44:47			0	37790	0	0	0	28607	27220	155903	26932	1071370	46492	110629	0	0	8110	551393	0	0
2024-08-20 15:45:47			0	37797	0	0	0	28602	27210	155891	26798	1071352	46479	110627	0	0	8110	551153	0	0
2024-08-20 15:46:47			0	37799	0	0	0	28605	27210	155891	27149	1071334	46492	110628	0	0	8110	551075	0	0
2024-08-20 15:47:47			0	37799	0	0	0	28610	27210	155899	27144	1071379	46501	110630	0	0	8110	551075	0	0
2024-08-20 15:48:47			0	37788	0	0	0	28612	27220	155827	27029	1071370	46492	110631	0	0	8109	551471	0	0
2024-08-20 15:49:47			0	37824	0	0	0	28602	27210	155727	27107	1071379	46479	110627	0	0	8112	550105	0	0
2024-08-20 15:50:47			0	37838	0	0	0	28605	27210	155687	27218	1071271	46491	110628	0	0	8112	549562	0	0
2024-08-20 15:51:47			0	37835	0	0	0	28597	27210	155671	27296	1071334	46469	110625	0	0	8112	549679	0	0
2024-08-20 15:52:47			0	37832	0	0	0	28599	27210	155739	27301	1071325	46491	110626	0	0	8112	549795	0	0
2024-08-20 15:53:47			0	37822	0	0	0	28605	27210	155791	26927	1071325	46501	110628	0	0	8111	550183	0	0
2024-08-20 15:54:47			0	37819	0	0	0	28607	27210	155831	27208	1071379	46491	110629	0	0	8111	550299	0	0
2024-08-20 15:55:47			0	37796	0	0	0	28605	27210	155783	27027	1071361	46492	110628	0	0	8110	551192	0	0
2024-08-20 15:56:47			0	37822	0	0	0	28612	27210	155931	27086	1071361	46492	110631	0	0	8111	550183	0	0
2024-08-20 15:57:47			0	37803	0	0	0	28599	27210	155883	27272	1071388	46492	110626	0	0	8110	550920	0	0
2024-08-20 15:58:47			0	37807	0	0	0	28602	27210	155927	27145	1071280	46480	110627	0	0	8111	550765	0	0
2024-08-20 15:59:47			0	37801	0	0	0	28602	27210	155867	27142	1071280	46502	110627	0	0	8110	550998	0	0
2024-08-20 16:00:47			0	37770	0	0	0	28599	27210	155931	27057	1071361	46492	110626	0	0	8109	552202	0	0
2024-08-20 16:01:47			0	37771	0	0	0	28602	27200	155959	26885	1071316	46490	110627	0	0	8108	552195	0	0
2024-08-20 16:02:47			0	37779	0	0	0	28605	27210	155855	26955	1071271	46501	110628	0	0	8109	551852	0	0
2024-08-20 16:03:47			0	37780	0	0	0	28610	27210	155919	26908	1071298	46479	110630	0	0	8109	551813	0	0
2024-08-20 16:04:47			0	37776	0	0	0	28602	27200	155951	27287	1071307	46489	110627	0	0	8109	552000	0	0
2024-08-20 16:05:47			0	37775	0	0	0	28599	27210	155991	27339	1071361	46480	110626	0	0	8109	552007	0	0
2024-08-20 16:06:47			0	37782	0	0	0	28607	27210	155851	27013	1071245	46491	110629	0	0	8109	551735	0	0
2024-08-20 16:07:47			0	37771	0	0	0	28607	27210	155883	26791	1071325	46491	110629	0	0	8108	552163	0	0
2024-08-20 16:08:47			0	37792	0	0	0	28602	27210	155851	26861	1071271	46501	110627	0	0	8110	551347	0	0
2024-08-20 16:09:47			0	37796	0	0	0	28605	27210	155855	27097	1071361	46480	110628	0	0	8110	551192	0	0
2024-08-20 16:10:47			0	37814	0	0	0	28610	27200	155935	27209	1071343	46490	110630	0	0	8111	550525	0	0
2024-08-20 16:11:47			0	37807	0	0	0	28610	27210	155815	27013	1071361	46492	110630	0	0	8110	550765	0	0
2024-08-20 16:12:47			0	37801	0	0	0	28592	27200	155847	27105	1071343	46500	110623	0	0	8110	551029	0	0
2024-08-20 16:13:47			0	37812	0	0	0	28594	27210	155831	27303	1071352	46501	110624	0	0	8111	550571	0	0
2024-08-20 16:14:47			0	37800	0	0	0	28599	27210	155815	27170	1071352	46501	110626	0	0	8110	551036	0	0
2024-08-20 16:15:47			0	37813	0	0	0	28599	27200	155791	27192	1071316	46490	110626	0	0	8111	550563	0	0
2024-08-20 16:16:47			0	37796	0	0	0	28592	27210	155819	27232	1071307	46492	110623	0	0	8110	551192	0	0
2024-08-20 16:17:47			0	37784	0	0	0	28594	27200	155919	27144	1071289	46478	110624	0	0	8109	551689	0	0
2024-08-20 16:18:47			0	37811	0	0	0	28589	27200	155855	27121	1071307	46489	110622	0	0	8111	550641	0	0
2024-08-20 16:19:47			0	37802	0	0	0	28589	27210	155895	27173	1071271	46501	110622	0	0	8111	550959	0	0
2024-08-20 16:20:47			0	37778	0	0	0	28597	27210	155991	26861	1071298	46491	110625	0	0	8109	551891	0	0
2024-08-20 16:21:47			0	37793	0	0	0	28592	27200	155919	27138	1071316	46511	110623	0	0	8110	551340	0	0
2024-08-20 16:22:47			0	37794	0	0	0	28602	27200	155959	27218	1071316	46478	110627	0	0	8110	551301	0	0
2024-08-20 16:23:47			0	37777	0	0	0	28584	27200	156031	27092	1071236	46490	110620	0	0	8109	551961	0	0
2024-08-20 16:24:47			0	37785	0	0	0	28592	27210	155951	26996	1071325	46512	110623	0	0	8110	551619	0	0
2024-08-20 16:25:47			0	37788	0	0	0	28599	27200	156023	27081	1071343	46490	110626	0	0	8110	551534	0	0
2024-08-20 16:26:47			0	37798	0	0	0	28610	27200	155971	26726	1071316	46490	110630	0	0	8110	551146	0	0
2024-08-20 16:27:47			0	37778	0	0	0	28602	27200	155943	27019	1071289	46490	110627	0	0	8109	551923	0	0
2024-08-20 16:28:47			0	37778	0	0	0	28602	27200	155919	27013	1071262	46478	110627	0	0	8109	551923	0	0
2024-08-20 16:29:47			0	37804	0	0	0	28612	27200	155943	27246	1071316	46490	110631	0	0	8110	550913	0	0
2024-08-20 16:30:47			0	37805	0	0	0	28599	27210	155823	27272	1071307	46480	110626	0	0	8111	550842	0	0
2024-08-20 16:31:47			0	37799	0	0	0	28589	27210	155811	26880	1071298	46479	110622	0	0	8110	551075	0	0
2024-08-20 16:32:47			0	37787	0	0	0	28594	27200	155907	26951	1071361	46477	110624	0	0	8110	551573	0	0
2024-08-20 16:33:47			0	37795	0	0	0	28592	27200	155915	27098	1071334	46489	110623	0	0	8110	551262	0	0
2024-08-20 16:34:47			0	37783	0	0	0	28589	27200	155935	27279	1071316	46490	110622	0	0	8109	551728	0	0
2024-08-20 16:35:47			0	37781	0	0	0	28602	27200	156003	27072	1071316	46500	110627	0	0	8109	551806	0	0
2024-08-20 16:36:47			0	37784	0	0	0	28607	27210	155915	27052	1071298	46491	110629	0	0	8109	551658	0	0
2024-08-20 16:37:47			0	37780	0	0	0	28618	27210	155979	26863	1071352	46491	110633	0	0	8109	551813	0	0
2024-08-20 16:38:47			0	37767	0	0	0	28605	27200	156027	26899	1071316	46490	110628	0	0	8108	552350	0	0
2024-08-20 16:39:47			0	37751	0	0	0	28607	27220	156051	26786	1071343	46492	110629	0	0	8107	552909	0	0
2024-08-20 16:40:47			0	37742	0	0	0	28610	27210	156163	26868	1071406	46479	110630	0	0	8107	553291	0	0
2024-08-20 16:41:47			0	37744	0	0	0	28610	27210	156055	27161	1071388	46492	110630	0	0	8107	553213	0	0
2024-08-20 16:42:47			0	37765	0	0	0	28612	27210	156011	27140	1071352	46501	110631	0	0	8108	552396	0	0
2024-08-20 16:43:47			0	37745	0	0	0	28610	27210	156079	27078	1071280	46492	110630	0	0	8107	553174	0	0
2024-08-20 16:44:47			0	37743	0	0	0	28594	27210	156099	26996	1071415	46492	110624	0	0	8107	553252	0	0
2024-08-20 16:45:47			0	37738	0	0	0	28605	27210	156111	26922	1071388	46480	110628	0	0	8107	553447	0	0
2024-08-20 16:46:47			0	37731	0	0	0	28599	27210	156031	27022	1071307	46480	110626	0	0	8106	553719	0	0
2024-08-20 16:47:47			0	37735	0	0	0	28599	27210	156115	27315	1071415	46480	110626	0	0	8106	553564	0	0
2024-08-20 16:48:47			0	37714	0	0	0	28605	27210	156259	26942	1071334	46480	110628	0	0	8105	554382	0	0
2024-08-20 16:49:47			0	37719	0	0	0	28602	27200	156227	27019	1071316	46511	110627	0	0	8105	554219	0	0
2024-08-20 16:50:47			0	37702	0	0	0	28594	27200	156199	27039	1071307	46477	110624	0	0	8105	554881	0	0
2024-08-20 16:51:47			0	37695	0	0	0	28594	27210	156175	27331	1071415	46492	110624	0	0	8104	555122	0	0
2024-08-20 16:52:47			0	37696	0	0	0	28602	27210	156215	26656	1071388	46480	110627	0	0	8104	555083	0	0
2024-08-20 16:53:47			0	37702	0	0	0	28607	27200	156155	27156	1071361	46510	110629	0	0	8104	554881	0	0
2024-08-20 16:54:47			0	37707	0	0	0	28605	27210	156199	26894	1071361	46502	110628	0	0	8105	554654	0	0
2024-08-20 16:55:47			0	37718	0	0	0	28610	27210	156163	27048	1071460	46501	110630	0	0	8105	554226	0	0
2024-08-20 16:56:47			0	37714	0	0	0	28610	27210	156175	26814	1071415	46502	110630	0	0	8105	554382	0	0
2024-08-20 16:57:47			0	37720	0	0	0	28625	27230	156171	26906	1071433	46480	110636	0	0	8105	554084	0	0
2024-08-20 16:58:47			0	37742	0	0	0	28615	27230	156151	26993	1071406	46492	110632	0	0	8107	553228	0	0
2024-08-20 16:59:47			0	37738	0	0	0	28631	27230	156043	27111	1071379	46480	110638	0	0	8106	553383	0	0
2024-08-20 17:00:47			0	37744	0	0	0	28625	27230	156079	27241	1071442	46514	110636	0	0	8107	553150	0	0
2024-08-20 17:01:47			0	37741	0	0	0	28631	27220	156075	26951	1071478	46502	110638	0	0	8106	553298	0	0
2024-08-20 17:02:47			0	37727	0	0	0	28625	27240	155983	27022	1071559	46482	110636	0	0	8106	553780	0	0
2024-08-20 17:03:47			0	37748	0	0	0	28631	27240	156019	26953	1071460	46504	110638	0	0	8107	552962	0	0
2024-08-20 17:04:47			0	37743	0	0	0	28633	27240	155999	26968	1071505	46494	110639	0	0	8107	553157	0	0
2024-08-20 17:05:47			0	37745	0	0	0	28628	27230	156059	27119	1071550	46493	110637	0	0	8107	553111	0	0
2024-08-20 17:06:47			0	37738	0	0	0	28631	27250	156015	26955	1071496	46494	110638	0	0	8106	553320	0	0
2024-08-20 17:07:47			0	37724	0	0	0	28631	27240	156083	26925	1071505	46482	110638	0	0	8105	553897	0	0
2024-08-20 17:08:47			0	37725	0	0	0	28638	27240	156075	26915	1071505	46482	110641	0	0	8105	553858	0	0
2024-08-20 17:09:47			0	37715	0	0	0	28628	27240	156107	27164	1071514	46482	110637	0	0	8105	554247	0	0
2024-08-20 17:10:47			0	37710	0	0	0	28612	27240	156119	27102	1071541	46504	110631	0	0	8105	554442	0	0
2024-08-20 17:11:47			0	37722	0	0	0	28623	27240	156027	27078	1071514	46494	110635	0	0	8105	553974	0	0
2024-08-20 17:12:47			0	37721	0	0	0	28623	27240	155975	27320	1071559	46482	110635	0	0	8105	554013	0	0
2024-08-20 17:13:47			0	37736	0	0	0	28638	27240	156107	26902	1071451	46494	110641	0	0	8106	553429	0	0
2024-08-20 17:14:47			0	37740	0	0	0	28641	27240	155955	27010	1071568	46494	110642	0	0	8106	553274	0	0
2024-08-20 17:15:47			0	37741	0	0	0	28631	27240	155943	26882	1071541	46494	110638	0	0	8106	553235	0	0
2024-08-20 17:16:47			0	37759	0	0	0	28644	27250	155971	26870	1071532	46483	110643	0	0	8107	552503	0	0
2024-08-20 17:17:47			0	37754	0	0	0	28641	27250	155995	26948	1071577	46494	110642	0	0	8107	552697	0	0
2024-08-20 17:18:47			0	37757	0	0	0	28633	27250	155991	27234	1071550	46494	110639	0	0	8107	552580	0	0
2024-08-20 17:19:47			0	37760	0	0	0	28651	27250	155927	26986	1071550	46482	110646	0	0	8107	552464	0	0
2024-08-20 17:20:47			0	37768	0	0	0	28654	27250	155943	26911	1071586	46495	110647	0	0	8108	552153	0	0
2024-08-20 17:21:47			0	37771	0	0	0	28670	27240	155859	26727	1071568	46494	110653	0	0	8108	552068	0	0
2024-08-20 17:22:47			0	37770	0	0	0	28659	27250	155835	26859	1071640	46495	110649	0	0	8108	552075	0	0
2024-08-20 17:23:47			0	37794	0	0	0	28646	27260	155707	27185	1071675	46496	110644	0	0	8109	551111	0	0
2024-08-20 17:24:47			0	37801	0	0	0	28641	27250	155771	26837	1071613	46505	110642	0	0	8110	550871	0	0
2024-08-20 17:25:47			0	37807	0	0	0	28646	27250	155823	27203	1071559	46495	110644	0	0	8110	550638	0	0
2024-08-20 17:26:47			0	37791	0	0	0	28646	27250	155847	26783	1071586	46505	110644	0	0	8109	551259	0	0
2024-08-20 17:27:47			0	37797	0	0	0	28641	27250	155827	27029	1071586	46483	110642	0	0	8110	551026	0	0
2024-08-20 17:28:47			0	37794	0	0	0	28646	27250	155895	26797	1071613	46495	110644	0	0	8109	551143	0	0
2024-08-20 17:29:47			0	37783	0	0	0	28636	27250	155871	27296	1071613	46495	110640	0	0	8109	551570	0	0
2024-08-20 17:30:47			0	37774	0	0	0	28649	27250	155959	27313	1071586	46483	110645	0	0	8108	551920	0	0
2024-08-20 17:31:47			0	37784	0	0	0	28646	27250	155823	27372	1071604	46494	110644	0	0	8109	551531	0	0
2024-08-20 17:32:47			0	37777	0	0	0	28651	27260	155931	27178	1071595	46484	110646	0	0	8108	551771	0	0
2024-08-20 17:33:47			0	37768	0	0	0	28646	27260	155911	27237	1071568	46496	110644	0	0	8108	552121	0	0
2024-08-20 17:34:47			0	37776	0	0	0	28644	27250	155879	26986	1071693	46483	110643	0	0	8108	551842	0	0
2024-08-20 17:35:47			0	37778	0	0	0	28651	27270	155955	27045	1071667	46484	110646	0	0	8108	551701	0	0
2024-08-20 17:36:47			0	37796	0	0	0	28662	27270	155863	27152	1071693	46496	110650	0	0	8109	551002	0	0
2024-08-20 17:37:47			0	37801	0	0	0	28649	27260	155879	27242	1071648	46473	110645	0	0	8110	550839	0	0
2024-08-20 17:38:47			0	37793	0	0	0	28654	27270	155839	27076	1071640	46473	110647	0	0	8109	551118	0	0
2024-08-20 17:39:47			0	37784	0	0	0	28651	27260	155807	27015	1071658	46484	110646	0	0	8109	551499	0	0
2024-08-20 17:40:47			0	37779	0	0	0	28662	27260	155799	27187	1071658	46506	110650	0	0	8108	551694	0	0
2024-08-20 17:41:47			0	37779	0	0	0	28657	27260	155823	27147	1071675	46506	110648	0	0	8108	551694	0	0
2024-08-20 17:42:47			0	37788	0	0	0	28659	27260	155939	27055	1071658	46496	110649	0	0	8109	551344	0	0
2024-08-20 17:43:47			0	37770	0	0	0	28633	27260	155831	26783	1071604	46496	110639	0	0	8108	552043	0	0
2024-08-20 17:44:47			0	37770	0	0	0	28641	27260	155939	26816	1071595	46496	110642	0	0	8108	552043	0	0
2024-08-20 17:45:47			0	37769	0	0	0	28649	27270	155899	27277	1071667	46484	110645	0	0	8108	552050	0	0
2024-08-20 17:46:47			0	37779	0	0	0	28638	27260	155863	27163	1071658	46484	110641	0	0	8109	551694	0	0
2024-08-20 17:47:47			0	37766	0	0	0	28636	27260	155919	27081	1071658	46496	110640	0	0	8108	552199	0	0
2024-08-20 17:48:47			0	37768	0	0	0	28636	27270	155847	27088	1071559	46484	110640	0	0	8108	552089	0	0
2024-08-20 17:49:47			0	37782	0	0	0	28633	27270	155931	27003	1071532	46484	110639	0	0	8109	551545	0	0
2024-08-20 17:50:47			0	37780	0	0	0	28623	27270	155831	27149	1071613	46496	110635	0	0	8109	551623	0	0
2024-08-20 17:51:47			0	37768	0	0	0	28638	27260	155923	27078	1071514	46473	110641	0	0	8108	552121	0	0
2024-08-20 17:52:47			0	37767	0	0	0	28664	27260	155891	27189	1071622	46484	110651	0	0	8107	552160	0	0
2024-08-20 17:53:47			0	37773	0	0	0	28667	27260	156019	26982	1071595	46496	110652	0	0	8108	551927	0	0
2024-08-20 17:54:47			0	37790	0	0	0	28677	27260	155887	26668	1071675	46496	110656	0	0	8109	551266	0	0
2024-08-20 17:55:47			0	37794	0	0	0	28688	27260	155915	27301	1071684	46484	110660	0	0	8109	551111	0	0
2024-08-20 17:56:47			0	37771	0	0	0	28683	27280	155875	26955	1071738	46508	110658	0	0	8107	551941	0	0
2024-08-20 17:57:47			0	37775	0	0	0	28675	27270	155923	26925	1071729	46507	110655	0	0	8108	551817	0	0
2024-08-20 17:58:47			0	37757	0	0	0	28651	27270	155927	26783	1071729	46497	110646	0	0	8107	552517	0	0
2024-08-20 17:59:47			0	37770	0	0	0	28662	27270	156019	26708	1071729	46497	110650	0	0	8108	552012	0	0
2024-08-20 18:00:47			0	37756	0	0	0	28657	27270	156003	26953	1071702	46497	110648	0	0	8107	552556	0	0
2024-08-20 18:01:47			0	37738	0	0	0	28662	27270	155979	26651	1071702	46485	110650	0	0	8106	553256	0	0
2024-08-20 18:02:47			0	37746	0	0	0	28651	27270	155979	26960	1071676	46485	110646	0	0	8107	552945	0	0
2024-08-20 18:03:47			0	37765	0	0	0	28651	27270	156059	26885	1071649	46507	110646	0	0	8108	552206	0	0
2024-08-20 18:04:47			0	37749	0	0	0	28664	27270	156043	26835	1071702	46485	110651	0	0	8106	552828	0	0
2024-08-20 18:05:47			0	37765	0	0	0	28662	27270	155871	26873	1071729	46497	110650	0	0	8107	552206	0	0
2024-08-20 18:06:47			0	37765	0	0	0	28654	27270	155955	26852	1071693	46484	110647	0	0	8108	552206	0	0
2024-08-20 18:07:47			0	37771	0	0	0	28659	27260	155959	27060	1071658	46484	110649	0	0	8108	552004	0	0
2024-08-20 18:08:47			0	37770	0	0	0	28654	27260	155899	27090	1071658	46484	110647	0	0	8108	552043	0	0
2024-08-20 18:09:47			0	37774	0	0	0	28654	27270	155899	26722	1071667	46484	110647	0	0	8108	551856	0	0
2024-08-20 18:10:47			0	37769	0	0	0	28657	27270	155967	26668	1071676	46497	110648	0	0	8108	552050	0	0
2024-08-20 18:11:47			0	37777	0	0	0	28651	27260	155975	27052	1071711	46484	110646	0	0	8108	551771	0	0
2024-08-20 18:12:47			0	37786	0	0	0	28654	27270	155975	27057	1071667	46484	110647	0	0	8109	551390	0	0
2024-08-20 18:13:47			0	37773	0	0	0	28657	27270	155835	26937	1071693	46496	110648	0	0	8108	551895	0	0
2024-08-20 18:14:47			0	37795	0	0	0	28654	27270	155839	27192	1071702	46497	110647	0	0	8109	551041	0	0
2024-08-20 18:15:47			0	37773	0	0	0	28659	27270	155899	26948	1071729	46485	110649	0	0	8108	551895	0	0
2024-08-20 18:16:47			0	37798	0	0	0	28644	27260	155995	27031	1071577	46473	110643	0	0	8110	550956	0	0
2024-08-20 18:17:47			0	37785	0	0	0	28641	27270	155899	27066	1071640	46484	110642	0	0	8109	551429	0	0
2024-08-20 18:18:47			0	37774	0	0	0	28651	27260	155947	26892	1071658	46496	110646	0	0	8108	551888	0	0
2024-08-20 18:19:47			0	37777	0	0	0	28646	27260	155935	26795	1071702	46484	110644	0	0	8108	551771	0	0
2024-08-20 18:20:47			0	37770	0	0	0	28651	27270	155991	27130	1071693	46496	110646	0	0	8108	552012	0	0
2024-08-20 18:21:47			0	37779	0	0	0	28651	27270	155983	26870	1071702	46485	110646	0	0	8108	551662	0	0
2024-08-20 18:22:47			0	37770	0	0	0	28646	27270	155959	26743	1071702	46497	110644	0	0	8108	552012	0	0
2024-08-20 18:23:47			0	37775	0	0	0	28670	27260	155971	26977	1071648	46473	110653	0	0	8108	551849	0	0
2024-08-20 18:24:47			0	37773	0	0	0	28670	27260	155963	26948	1071711	46484	110653	0	0	8108	551927	0	0
2024-08-20 18:25:47			0	37788	0	0	0	28683	27270	155883	27263	1071693	46517	110658	0	0	8108	551312	0	0
2024-08-20 18:26:47			0	37781	0	0	0	28683	27280	155963	26979	1071685	46498	110658	0	0	8108	551553	0	0
2024-08-20 18:27:47			0	37784	0	0	0	28680	27260	155907	27053	1071684	46496	110657	0	0	8108	551499	0	0
2024-08-20 18:28:47			0	37790	0	0	0	28680	27280	155919	26932	1071738	46498	110657	0	0	8109	551203	0	0
2024-08-20 18:29:47			0	37775	0	0	0	28675	27270	155899	26977	1071622	46485	110655	0	0	8108	551817	0	0
2024-08-20 18:30:47			0	37805	0	0	0	28675	27270	155787	27069	1071667	46496	110655	0	0	8110	550653	0	0
2024-08-20 18:31:47			0	37810	0	0	0	28680	27260	155859	26885	1071711	46496	110657	0	0	8110	550490	0	0
2024-08-20 18:32:47			0	37812	0	0	0	28672	27260	155715	26746	1071711	46484	110654	0	0	8110	550413	0	0
2024-08-20 18:33:47			0	37833	0	0	0	28672	27260	155599	27105	1071711	46496	110654	0	0	8111	549598	0	0
2024-08-20 18:34:47			0	37839	0	0	0	28683	27270	155619	27104	1071747	46484	110658	0	0	8111	549334	0	0
2024-08-20 18:35:47			0	37858	0	0	0	28672	27260	155607	26986	1071658	46496	110654	0	0	8113	548630	0	0
2024-08-20 18:36:47			0	37870	0	0	0	28672	27260	155603	26948	1071711	46484	110654	0	0	8113	548166	0	0
2024-08-20 18:37:47			0	37852	0	0	0	28659	27270	155511	27007	1071693	46484	110649	0	0	8113	548831	0	0
2024-08-20 18:38:47			0	37853	0	0	0	28670	27280	155603	27092	1071711	46486	110653	0	0	8112	548761	0	0
2024-08-20 18:39:47			0	37858	0	0	0	28670	27270	155483	26824	1071747	46496	110653	0	0	8113	548598	0	0
2024-08-20 18:40:47			0	37850	0	0	0	28662	27270	155535	27220	1071720	46496	110650	0	0	8112	548908	0	0
2024-08-20 18:41:47			0	37854	0	0	0	28670	27270	155547	26889	1071729	46485	110653	0	0	8112	548753	0	0
2024-08-20 18:42:47			0	37865	0	0	0	28657	27270	155663	26771	1071676	46474	110648	0	0	8113	548328	0	0
2024-08-20 18:43:47			0	37865	0	0	0	28651	27260	155579	26819	1071631	46496	110646	0	0	8113	548359	0	0
2024-08-20 18:44:47			0	37869	0	0	0	28649	27270	155467	26987	1071693	46473	110645	0	0	8114	548173	0	0
2024-08-20 18:45:47			0	37875	0	0	0	28654	27260	155455	26913	1071684	46506	110647	0	0	8114	547972	0	0
2024-08-20 18:46:47			0	37855	0	0	0	28649	27250	155467	27131	1071640	46495	110645	0	0	8113	548778	0	0
2024-08-20 18:47:47			0	37875	0	0	0	28644	27260	155475	27050	1071658	46484	110643	0	0	8114	547972	0	0
2024-08-20 18:48:47			0	37856	0	0	0	28641	27260	155591	26975	1071604	46461	110642	0	0	8113	548708	0	0
2024-08-20 18:49:47			0	37835	0	0	0	28644	27260	155571	27081	1071631	46473	110643	0	0	8112	549521	0	0
2024-08-20 18:50:47			0	37845	0	0	0	28631	27260	155683	26778	1071595	46473	110638	0	0	8113	549133	0	0
2024-08-20 18:51:47			0	37843	0	0	0	28625	27260	155707	26778	1071568	46484	110636	0	0	8113	549211	0	0
2024-08-20 18:52:47			0	37848	0	0	0	28631	27250	155635	26974	1071586	46483	110638	0	0	8113	549049	0	0
2024-08-20 18:53:47			0	37830	0	0	0	28641	27250	155603	26850	1071604	46504	110642	0	0	8111	549746	0	0
2024-08-20 18:54:47			0	37815	0	0	0	28633	27250	155635	26805	1071586	46495	110639	0	0	8111	550328	0	0
2024-08-20 18:55:47			0	37782	0	0	0	28633	27250	155923	26948	1071604	46494	110639	0	0	8109	551609	0	0
2024-08-20 18:56:47			0	37771	0	0	0	28638	27240	155891	27152	1071541	46494	110641	0	0	8108	552068	0	0
2024-08-20 18:57:47			0	37761	0	0	0	28631	27250	156023	27192	1071559	46495	110638	0	0	8108	552425	0	0
2024-08-20 18:58:47			0	37721	0	0	0	28628	27240	156059	27118	1071559	46494	110637	0	0	8105	554013	0	0
2024-08-20 18:59:47			0	37707	0	0	0	28628	27240	156087	26987	1071568	46494	110637	0	0	8105	554559	0	0
2024-08-20 19:00:47			0	37692	0	0	0	28631	27250	156155	26894	1071630	46494	110638	0	0	8104	555112	0	0
2024-08-20 19:01:47			0	37672	0	0	0	28625	27240	156319	27012	1071586	46494	110636	0	0	8103	555924	0	0
2024-08-20 19:02:47			0	37664	0	0	0	28615	27230	156363	27052	1071469	46481	110632	0	0	8102	556269	0	0
2024-08-20 19:03:47			0	37678	0	0	0	28618	27240	156395	26913	1071514	46494	110633	0	0	8103	555690	0	0
2024-08-20 19:04:47			0	37647	0	0	0	28620	27230	156335	26812	1071496	46493	110634	0	0	8101	556933	0	0
2024-08-20 19:05:47			0	37654	0	0	0	28623	27240	156467	26849	1071451	46494	110635	0	0	8102	556627	0	0
2024-08-20 19:06:47			0	37640	0	0	0	28599	27240	156431	26793	1071451	46504	110626	0	0	8101	557174	0	0
2024-08-20 19:07:47			0	37649	0	0	0	28610	27240	156327	27024	1071505	46482	110630	0	0	8101	556823	0	0
2024-08-20 19:08:47			0	37629	0	0	0	28607	27220	156427	26752	1071478	46492	110629	0	0	8100	557669	0	0
2024-08-20 19:09:47			0	37650	0	0	0	28605	27220	156475	27223	1071478	46502	110628	0	0	8102	556847	0	0
2024-08-20 19:10:47			0	37632	0	0	0	28607	27230	156491	27095	1071469	46481	110629	0	0	8100	557519	0	0
2024-08-20 19:11:47			0	37636	0	0	0	28612	27230	156475	26753	1071406	46480	110631	0	0	8101	557363	0	0
2024-08-20 19:12:47			0	37640	0	0	0	28610	27210	156467	27048	1071415	46480	110630	0	0	8101	557270	0	0
2024-08-20 19:13:47			0	37624	0	0	0	28612	27210	156479	26890	1071469	46492	110631	0	0	8100	557896	0	0
2024-08-20 19:14:47			0	37645	0	0	0	28610	27220	156527	26745	1071397	46480	110630	0	0	8101	557043	0	0
2024-08-20 19:15:47			0	37650	0	0	0	28605	27210	156475	26963	1071433	46491	110628	0	0	8101	556879	0	0
2024-08-20 19:16:47			0	37632	0	0	0	28605	27210	156455	27029	1071406	46479	110628	0	0	8100	557583	0	0
2024-08-20 19:17:47			0	37642	0	0	0	28612	27210	156439	26724	1071361	46492	110631	0	0	8101	557192	0	0
2024-08-20 19:18:47			0	37651	0	0	0	28615	27210	156523	27078	1071379	46479	110632	0	0	8101	556840	0	0
2024-08-20 19:19:47			0	37655	0	0	0	28618	27210	156403	27306	1071442	46480	110633	0	0	8102	556684	0	0
2024-08-20 19:20:47			0	37654	0	0	0	28612	27220	156351	27157	1071478	46513	110631	0	0	8102	556691	0	0
2024-08-20 19:21:47			0	37687	0	0	0	28615	27210	156375	26864	1071442	46480	110632	0	0	8103	555434	0	0
2024-08-20 19:22:47			0	37667	0	0	0	28599	27210	156431	26804	1071406	46491	110626	0	0	8103	556215	0	0
2024-08-20 19:23:47			0	37659	0	0	0	28607	27210	156287	26599	1071388	46502	110629	0	0	8102	556528	0	0
2024-08-20 19:24:47			0	37653	0	0	0	28599	27200	156283	27218	1071451	46478	110626	0	0	8102	556794	0	0
2024-08-20 19:25:47			0	37677	0	0	0	28602	27220	156255	27102	1071397	46492	110627	0	0	8103	555793	0	0
2024-08-20 19:26:47			0	37686	0	0	0	28607	27210	156315	26821	1071442	46492	110629	0	0	8104	555473	0	0
2024-08-20 19:27:47			0	37692	0	0	0	28605	27210	156347	26767	1071442	46480	110628	0	0	8104	555239	0	0
2024-08-20 19:28:47			0	37697	0	0	0	28602	27210	156279	26972	1071334	46492	110627	0	0	8104	555044	0	0
2024-08-20 19:29:47			0	37687	0	0	0	28597	27210	156259	26906	1071352	46479	110625	0	0	8104	555434	0	0
2024-08-20 19:30:47			0	37695	0	0	0	28594	27210	156255	26961	1071406	46479	110624	0	0	8104	555122	0	0
2024-08-20 19:31:47			0	37694	0	0	0	28592	27200	156307	26993	1071343	46456	110623	0	0	8104	555193	0	0
2024-08-20 19:32:47			0	37702	0	0	0	28592	27210	156247	26887	1071352	46491	110623	0	0	8105	554849	0	0
2024-08-20 19:33:47			0	37700	0	0	0	28599	27200	156311	26902	1071388	46477	110626	0	0	8104	554959	0	0
2024-08-20 19:34:47			0	37695	0	0	0	28589	27200	156251	27008	1071397	46500	110622	0	0	8104	555154	0	0
2024-08-20 19:35:47			0	37696	0	0	0	28597	27200	156191	26861	1071361	46500	110625	0	0	8104	555115	0	0
2024-08-20 19:36:47			0	37708	0	0	0	28586	27200	156163	27161	1071343	46490	110621	0	0	8105	554647	0	0
2024-08-20 19:37:47			0	37706	0	0	0	28589	27200	156163	26876	1071307	46500	110622	0	0	8105	554725	0	0
2024-08-20 19:38:47			0	37718	0	0	0	28594	27200	156235	27029	1071343	46490	110624	0	0	8106	554258	0	0
2024-08-20 19:39:47			0	37716	0	0	0	28594	27180	156207	26819	1071334	46488	110624	0	0	8105	554399	0	0
2024-08-20 19:40:47			0	37712	0	0	0	28592	27200	156279	26906	1071388	46500	110623	0	0	8105	554491	0	0
2024-08-20 19:41:47			0	37698	0	0	0	28558	27190	156227	27029	1071325	46477	110610	0	0	8105	555069	0	0
2024-08-20 19:42:47			0	37705	0	0	0	28516	27180	156139	26765	1071190	46464	110594	0	0	8106	554828	0	0
2024-08-20 19:43:47			0	37721	0	0	0	28490	27170	156187	27079	1071128	46464	110584	0	0	8107	554236	0	0
2024-08-20 19:44:47			0	37721	0	0	0	28490	27170	156167	26930	1071038	46464	110584	0	0	8107	554236	0	0
2024-08-20 19:45:47			0	37643	0	0	0	28503	27170	156483	27060	1070984	46464	110589	0	0	8103	557281	0	0
2024-08-20 19:46:47			0	37585	0	0	0	28501	27140	156787	26897	1071019	46472	110588	0	0	8099	559649	0	0
2024-08-20 19:47:47			0	37548	0	0	0	28522	27150	156843	26864	1071002	46473	110596	0	0	8097	561069	0	0
2024-08-20 19:48:47			0	37522	0	0	0	28514	27150	157071	27034	1071002	46462	110593	0	0	8095	562091	0	0
2024-08-20 19:49:47			0	37501	0	0	0	28519	27130	157195	26689	1070948	46483	110595	0	0	8094	562982	0	0
2024-08-20 19:50:47			0	37510	0	0	0	28519	27140	157099	26753	1070984	46494	110595	0	0	8094	562595	0	0
2024-08-20 19:51:47			0	37537	0	0	0	28516	27150	156911	26769	1070975	46485	110594	0	0	8096	561501	0	0
2024-08-20 19:52:47			0	37629	0	0	0	28522	27130	156619	26863	1070966	46482	110596	0	0	8101	557957	0	0
2024-08-20 19:53:47			0	37668	0	0	0	28514	27130	156463	27161	1070939	46482	110593	0	0	8104	556432	0	0
2024-08-20 19:54:47			0	37775	0	0	0	28540	27120	156011	26958	1070983	46493	110603	0	0	8109	552293	0	0
2024-08-20 19:55:47			0	37784	0	0	0	28542	27120	155911	27074	1071037	46470	110604	0	0	8110	551943	0	0
2024-08-20 19:56:47			0	37728	0	0	0	28548	27130	156219	27147	1070939	46493	110606	0	0	8107	554090	0	0
2024-08-20 19:57:47			0	37655	0	0	0	28558	27130	156603	26974	1070992	46482	110610	0	0	8102	556940	0	0
2024-08-20 19:58:47			0	37597	0	0	0	28566	27130	156759	26946	1071028	46483	110613	0	0	8099	559210	0	0
2024-08-20 19:59:47			0	37530	0	0	0	28571	27140	156975	26804	1071073	46495	110615	0	0	8095	561808	0	0
2024-08-20 20:00:47			0	37496	0	0	0	28579	27140	157203	27154	1071064	46483	110618	0	0	8093	563146	0	0
2024-08-20 20:01:47			0	37479	0	0	0	28586	27140	157179	27019	1071127	46495	110621	0	0	8092	563816	0	0
2024-08-20 20:02:47			0	37462	0	0	0	28581	27140	157359	27239	1071100	46495	110619	0	0	8091	564486	0	0
2024-08-20 20:03:47			0	37457	0	0	0	28581	27140	157275	26816	1071100	46495	110619	0	0	8090	564683	0	0
2024-08-20 20:04:47			0	37444	0	0	0	28586	27150	157339	26989	1071109	46496	110621	0	0	8090	565164	0	0
2024-08-20 20:05:47			0	37454	0	0	0	28581	27150	157287	26953	1071109	46485	110619	0	0	8090	564769	0	0
2024-08-20 20:06:47			0	37453	0	0	0	28571	27160	157355	27215	1071110	46497	110615	0	0	8090	564776	0	0
2024-08-20 20:07:47			0	37471	0	0	0	28579	27150	157331	26849	1071118	46496	110618	0	0	8091	564099	0	0
2024-08-20 20:08:47			0	37484	0	0	0	28576	27160	157243	27078	1071127	46485	110617	0	0	8092	563554	0	0
2024-08-20 20:09:47			0	37474	0	0	0	28579	27150	157267	26953	1071163	46473	110618	0	0	8091	563980	0	0
2024-08-20 20:10:47			0	37481	0	0	0	28586	27160	157267	26774	1071154	46496	110621	0	0	8092	563672	0	0
2024-08-20 20:11:47			0	37487	0	0	0	28579	27160	157187	26663	1071163	46486	110618	0	0	8092	563436	0	0
2024-08-20 20:12:47			0	37491	0	0	0	28581	27160	157183	27041	1071181	46506	110619	0	0	8092	563278	0	0
2024-08-20 20:13:47			0	37492	0	0	0	28571	27150	157219	26937	1071118	46485	110615	0	0	8093	563271	0	0
2024-08-20 20:14:47			0	37497	0	0	0	28571	27160	157099	27008	1071190	46497	110615	0	0	8093	563042	0	0
2024-08-20 20:15:47			0	37524	0	0	0	28584	27150	157023	27242	1071244	46496	110620	0	0	8094	562012	0	0
2024-08-20 20:16:47			0	37512	0	0	0	28579	27170	156939	26889	1071172	46487	110618	0	0	8094	562419	0	0
2024-08-20 20:17:47			0	37542	0	0	0	28571	27150	157035	26693	1071172	46496	110615	0	0	8095	561304	0	0
2024-08-20 20:18:47			0	37539	0	0	0	28576	27160	156999	27171	1071163	46486	110617	0	0	8095	561390	0	0
2024-08-20 20:19:47			0	37540	0	0	0	28573	27170	156939	26859	1071262	46475	110616	0	0	8095	561318	0	0
2024-08-20 20:20:47			0	37545	0	0	0	28563	27160	156919	26696	1071163	46474	110612	0	0	8096	561154	0	0
2024-08-20 20:21:47			0	37550	0	0	0	28579	27160	156915	26778	1071137	46474	110618	0	0	8096	560958	0	0
2024-08-20 20:22:47			0	37545	0	0	0	28576	27160	156911	27081	1071154	46485	110617	0	0	8096	561154	0	0
2024-08-20 20:23:47			0	37537	0	0	0	28581	27150	156931	27069	1071172	46485	110619	0	0	8095	561501	0	0
2024-08-20 20:24:47			0	37554	0	0	0	28581	27170	156915	26996	1071262	46487	110619	0	0	8096	560769	0	0
2024-08-20 20:25:47			0	37568	0	0	0	28573	27170	157007	27076	1071172	46498	110616	0	0	8097	560219	0	0
2024-08-20 20:26:47			0	37558	0	0	0	28571	27170	156955	26941	1071280	46498	110615	0	0	8097	560612	0	0
2024-08-20 20:27:47			0	37550	0	0	0	28573	27170	157015	27124	1071226	46487	110616	0	0	8096	560926	0	0
2024-08-20 20:28:47			0	37556	0	0	0	28568	27170	156923	27128	1071208	46498	110614	0	0	8096	560690	0	0
2024-08-20 20:29:47			0	37550	0	0	0	28553	27160	157027	27045	1071163	46474	110608	0	0	8096	560958	0	0
2024-08-20 20:30:47			0	37548	0	0	0	28545	27170	156967	26960	1071199	46475	110605	0	0	8096	561004	0	0
2024-08-20 20:31:47			0	37542	0	0	0	28550	27160	156951	27111	1071163	46474	110607	0	0	8096	561272	0	0
2024-08-20 20:32:47			0	37555	0	0	0	28553	27170	156975	26791	1071172	46498	110608	0	0	8097	560729	0	0
2024-08-20 20:33:47			0	37553	0	0	0	28571	27170	156947	26838	1071172	46498	110615	0	0	8096	560808	0	0
2024-08-20 20:34:47			0	37540	0	0	0	28563	27170	157007	26998	1071172	46487	110612	0	0	8096	561318	0	0
2024-08-20 20:35:47			0	37534	0	0	0	28548	27150	156971	27010	1071118	46485	110606	0	0	8095	561619	0	0
2024-08-20 20:36:47			0	37555	0	0	0	28542	27160	157007	26805	1071110	46497	110604	0	0	8097	560762	0	0
2024-08-20 20:37:47			0	37531	0	0	0	28545	27160	156891	27289	1071181	46485	110605	0	0	8095	561705	0	0
2024-08-20 20:38:47			0	37551	0	0	0	28550	27160	156767	26993	1071154	46485	110607	0	0	8096	560919	0	0
2024-08-20 20:39:47			0	37538	0	0	0	28545	27150	156939	26817	1071145	46485	110605	0	0	8096	561462	0	0
2024-08-20 20:40:47			0	37553	0	0	0	28558	27150	156951	27154	1071118	46485	110610	0	0	8096	560872	0	0
2024-08-20 20:41:47			0	37555	0	0	0	28558	27160	156879	26885	1071073	46506	110610	0	0	8097	560762	0	0
2024-08-20 20:42:47			0	37553	0	0	0	28542	27150	156935	27022	1071109	46485	110604	0	0	8097	560872	0	0
2024-08-20 20:43:47			0	37543	0	0	0	28540	27160	156931	27005	1071127	46485	110603	0	0	8096	561233	0	0
2024-08-20 20:44:47			0	37565	0	0	0	28540	27160	156887	26961	1071100	46473	110603	0	0	8097	560369	0	0
2024-08-20 20:45:47			0	37533	0	0	0	28550	27160	156863	26772	1071181	46473	110607	0	0	8095	561626	0	0
2024-08-20 20:46:47			0	37558	0	0	0	28553	27150	156867	26847	1071091	46485	110608	0	0	8097	560676	0	0
2024-08-20 20:47:47			0	37553	0	0	0	28550	27160	156955	27274	1071100	46485	110607	0	0	8097	560840	0	0
2024-08-20 20:48:47			0	37550	0	0	0	28550	27150	156855	26809	1071172	46496	110607	0	0	8096	560990	0	0
2024-08-20 20:49:47			0	37537	0	0	0	28553	27150	156907	26963	1071109	46485	110608	0	0	8095	561501	0	0
2024-08-20 20:50:47			0	37542	0	0	0	28545	27150	156931	27124	1071118	46485	110605	0	0	8096	561304	0	0
2024-08-20 20:51:47			0	37535	0	0	0	28540	27140	156963	26833	1071154	46484	110603	0	0	8096	561612	0	0
2024-08-20 20:52:47			0	37562	0	0	0	28542	27150	156875	26804	1071118	46485	110604	0	0	8097	560519	0	0
2024-08-20 20:53:47			0	37554	0	0	0	28545	27150	156907	26713	1071064	46485	110605	0	0	8097	560833	0	0
2024-08-20 20:54:47			0	37541	0	0	0	28548	27150	156959	26961	1071145	46496	110606	0	0	8096	561344	0	0
2024-08-20 20:55:47			0	37549	0	0	0	28548	27160	156955	26746	1071127	46473	110606	0	0	8096	560997	0	0
2024-08-20 20:56:47			0	37544	0	0	0	28545	27150	157027	27204	1071172	46473	110605	0	0	8096	561226	0	0
2024-08-20 20:57:47			0	37527	0	0	0	28535	27150	157003	27012	1071082	46496	110601	0	0	8095	561894	0	0
2024-08-20 20:58:47			0	37528	0	0	0	28537	27150	157095	27190	1071091	46496	110602	0	0	8095	561855	0	0
2024-08-20 20:59:47			0	37537	0	0	0	28524	27140	157039	27279	1071118	46483	110597	0	0	8096	561533	0	0
2024-08-20 21:00:47			0	37528	0	0	0	28524	27140	156907	26870	1071127	46484	110597	0	0	8095	561887	0	0
2024-08-20 21:01:47			0	37543	0	0	0	28524	27140	156995	26616	1071046	46472	110597	0	0	8096	561297	0	0
2024-08-20 21:02:47			0	37537	0	0	0	28516	27130	156915	26817	1071028	46483	110594	0	0	8096	561565	0	0
2024-08-20 21:03:47			0	37511	0	0	0	28522	27130	157063	26812	1071055	46471	110596	0	0	8094	562588	0	0
2024-08-20 21:04:47			0	37516	0	0	0	28527	27140	157031	27213	1071064	46471	110598	0	0	8095	562359	0	0
2024-08-20 21:05:47			0	37520	0	0	0	28532	27140	157143	27027	1071010	46471	110600	0	0	8095	562202	0	0
2024-08-20 21:06:47			0	37522	0	0	0	28519	27140	157111	27131	1071064	46483	110595	0	0	8095	562123	0	0
2024-08-20 21:07:47			0	37520	0	0	0	28527	27130	157115	26918	1071028	46471	110598	0	0	8095	562234	0	0
2024-08-20 21:08:47			0	37515	0	0	0	28514	27130	157019	26883	1071046	46470	110593	0	0	8095	562431	0	0
2024-08-20 21:09:47			0	37528	0	0	0	28522	27120	157059	26817	1070956	46493	110596	0	0	8095	561951	0	0
2024-08-20 21:10:47			0	37519	0	0	0	28529	27130	157039	26850	1071028	46483	110599	0	0	8095	562273	0	0
2024-08-20 21:11:47			0	37512	0	0	0	28522	27130	157047	27066	1071073	46482	110596	0	0	8094	562548	0	0
2024-08-20 21:12:47			0	37524	0	0	0	28529	27130	157023	26951	1070966	46503	110599	0	0	8095	562076	0	0
2024-08-20 21:13:47			0	37508	0	0	0	28524	27130	157063	27428	1071001	46483	110597	0	0	8094	562706	0	0
2024-08-20 21:14:47			0	37507	0	0	0	28524	27120	157163	26823	1070956	46493	110597	0	0	8094	562778	0	0
2024-08-20 21:15:47			0	37507	0	0	0	28524	27130	157195	27060	1070966	46470	110597	0	0	8094	562745	0	0
2024-08-20 21:16:47			0	37524	0	0	0	28516	27130	157063	27223	1071019	46493	110594	0	0	8095	562076	0	0
2024-08-20 21:17:47			0	37503	0	0	0	28516	27120	157159	26819	1070948	46481	110594	0	0	8094	562935	0	0
2024-08-20 21:18:47			0	37514	0	0	0	28516	27120	157047	27062	1071010	46470	110594	0	0	8095	562502	0	0
2024-08-20 21:19:47			0	37516	0	0	0	28514	27110	157147	26942	1070938	46491	110593	0	0	8095	562456	0	0
2024-08-20 21:20:47			0	37508	0	0	0	28519	27120	157099	27090	1070921	46492	110595	0	0	8094	562738	0	0
2024-08-20 21:21:47			0	37508	0	0	0	28503	27120	157043	27190	1070956	46503	110589	0	0	8095	562738	0	0
2024-08-20 21:22:47			0	37522	0	0	0	28519	27110	157127	26680	1070938	46468	110595	0	0	8095	562220	0	0
2024-08-20 21:23:47			0	37516	0	0	0	28519	27110	157095	27255	1070912	46468	110595	0	0	8095	562456	0	0
2024-08-20 21:24:47			0	37528	0	0	0	28516	27130	157111	27301	1070912	46482	110594	0	0	8096	561919	0	0
2024-08-20 21:25:47			0	37513	0	0	0	28516	27120	157019	27211	1070948	46481	110594	0	0	8095	562541	0	0
2024-08-20 21:26:47			0	37535	0	0	0	28522	27120	157039	27216	1070983	46482	110596	0	0	8096	561676	0	0
2024-08-20 21:27:47			0	37532	0	0	0	28524	27110	156995	27157	1070938	46480	110597	0	0	8096	561826	0	0
2024-08-20 21:28:47			0	37554	0	0	0	28519	27130	157043	27152	1071019	46470	110595	0	0	8097	560897	0	0
2024-08-20 21:29:47			0	37529	0	0	0	28514	27120	157059	27005	1070983	46482	110593	0	0	8096	561912	0	0
2024-08-20 21:30:47			0	37524	0	0	0	28519	27120	157059	26998	1071010	46482	110595	0	0	8095	562109	0	0
2024-08-20 21:31:47			0	37523	0	0	0	28522	27120	157035	26821	1070948	46481	110596	0	0	8095	562148	0	0
2024-08-20 21:32:47			0	37528	0	0	0	28519	27120	157071	27424	1070956	46493	110595	0	0	8095	561951	0	0
2024-08-20 21:33:47			0	37530	0	0	0	28516	27120	157031	27296	1071028	46492	110594	0	0	8096	561873	0	0
2024-08-20 21:34:47			0	37518	0	0	0	28522	27120	157135	27121	1070948	46492	110596	0	0	8095	562345	0	0
2024-08-20 21:35:47			0	37523	0	0	0	28519	27130	157159	27242	1070966	46482	110595	0	0	8095	562116	0	0
2024-08-20 21:36:47			0	37531	0	0	0	28503	27120	157079	27131	1071010	46470	110589	0	0	8096	561834	0	0
2024-08-20 21:37:47			0	37533	0	0	0	28514	27120	157015	27104	1070930	46482	110593	0	0	8096	561755	0	0
2024-08-20 21:38:47			0	37523	0	0	0	28516	27110	157067	27225	1070965	46480	110594	0	0	8095	562180	0	0
2024-08-20 21:39:47			0	37524	0	0	0	28516	27120	157155	27121	1070903	46482	110594	0	0	8095	562109	0	0
2024-08-20 21:40:47			0	37519	0	0	0	28506	27120	157047	27033	1070948	46492	110590	0	0	8095	562305	0	0
2024-08-20 21:41:47			0	37524	0	0	0	28503	27120	157131	27178	1070974	46481	110589	0	0	8095	562109	0	0
2024-08-20 21:42:47			0	37528	0	0	0	28503	27120	157131	27027	1070921	46481	110589	0	0	8096	561951	0	0
2024-08-20 21:43:47			0	37519	0	0	0	28509	27120	157115	27086	1070948	46481	110591	0	0	8095	562305	0	0
2024-08-20 21:44:47			0	37516	0	0	0	28501	27120	157115	27085	1070867	46481	110588	0	0	8095	562423	0	0
2024-08-20 21:45:47			0	37515	0	0	0	28501	27110	157035	26972	1070903	46480	110588	0	0	8095	562495	0	0
2024-08-20 21:46:47			0	37529	0	0	0	28509	27110	157191	27171	1070912	46480	110591	0	0	8096	561944	0	0
2024-08-20 21:47:47			0	37528	0	0	0	28501	27110	157163	27102	1070956	46468	110588	0	0	8096	561984	0	0
2024-08-20 21:48:47			0	37527	0	0	0	28506	27110	157107	27008	1070956	46480	110590	0	0	8096	562023	0	0
2024-08-20 21:49:47			0	37531	0	0	0	28501	27110	157183	26592	1070956	46468	110588	0	0	8096	561866	0	0
2024-08-20 21:50:47			0	37537	0	0	0	28496	27100	157243	26785	1070947	46480	110586	0	0	8096	561662	0	0
2024-08-20 21:51:47			0	37529	0	0	0	28493	27110	157215	26757	1070849	46468	110585	0	0	8096	561944	0	0
2024-08-20 21:52:47			0	37528	0	0	0	28498	27110	157111	27034	1070885	46480	110587	0	0	8096	561984	0	0
2024-08-20 21:53:47			0	37527	0	0	0	28498	27100	157171	26765	1070920	46480	110587	0	0	8096	562055	0	0
2024-08-20 21:54:47			0	37519	0	0	0	28488	27100	157063	27109	1070813	46468	110583	0	0	8095	562370	0	0
2024-08-20 21:55:47			0	37516	0	0	0	28496	27100	157103	27081	1070813	46480	110586	0	0	8095	562488	0	0
2024-08-20 21:56:47			0	37527	0	0	0	28485	27100	157143	27293	1070894	46480	110582	0	0	8096	562055	0	0
2024-08-20 21:57:47			0	37500	0	0	0	28490	27100	157171	27189	1070858	46479	110584	0	0	8094	563118	0	0
2024-08-20 21:58:47			0	37513	0	0	0	28485	27100	157147	27079	1070831	46467	110582	0	0	8095	562606	0	0
2024-08-20 21:59:47			0	37517	0	0	0	28480	27100	157115	26764	1070750	46467	110580	0	0	8095	562449	0	0
2024-08-20 22:00:47			0	37521	0	0	0	28467	27090	157199	27223	1070786	46478	110575	0	0	8096	562323	0	0
2024-08-20 22:01:47			0	37508	0	0	0	28467	27090	157143	27026	1070795	46478	110575	0	0	8095	562835	0	0
2024-08-20 22:02:47			0	37519	0	0	0	28467	27090	157155	27064	1070786	46478	110575	0	0	8096	562402	0	0
2024-08-20 22:03:47			0	37492	0	0	0	28470	27090	157259	27244	1070813	46478	110576	0	0	8094	563465	0	0
2024-08-20 22:04:47			0	37489	0	0	0	28475	27090	157283	27015	1070678	46478	110578	0	0	8094	563583	0	0
2024-08-20 22:05:47			0	37508	0	0	0	28477	27090	157243	27111	1070714	46466	110579	0	0	8095	562835	0	0
2024-08-20 22:06:47			0	37485	0	0	0	28467	27080	157243	27114	1070723	46466	110575	0	0	8094	563773	0	0
2024-08-20 22:07:47			0	37498	0	0	0	28467	27080	157251	26955	1070804	46489	110575	0	0	8094	563261	0	0
2024-08-20 22:08:47			0	37472	0	0	0	28462	27080	157275	26991	1070795	46465	110573	0	0	8093	564286	0	0
2024-08-20 22:09:47			0	37500	0	0	0	28451	27080	157259	26807	1070669	46478	110569	0	0	8095	563182	0	0
2024-08-20 22:10:47			0	37487	0	0	0	28444	27070	157235	27126	1070651	46464	110566	0	0	8094	563727	0	0
2024-08-20 22:11:47			0	37497	0	0	0	28441	27080	157207	26974	1070669	46466	110565	0	0	8095	563301	0	0
2024-08-20 22:12:47			0	37491	0	0	0	28441	27070	157299	27083	1070624	46476	110565	0	0	8094	563569	0	0
2024-08-20 22:13:47			0	37477	0	0	0	28457	27060	157267	27218	1070660	46463	110571	0	0	8093	564153	0	0
2024-08-20 22:14:47			0	37482	0	0	0	28454	27070	157311	27090	1070642	46487	110570	0	0	8094	563924	0	0
2024-08-20 22:15:47			0	37481	0	0	0	28459	27070	157323	27024	1070705	46487	110572	0	0	8093	563963	0	0
2024-08-20 22:16:47			0	37482	0	0	0	28467	27060	157231	26876	1070660	46486	110575	0	0	8093	563956	0	0
2024-08-20 22:17:47			0	37482	0	0	0	28475	27070	157299	27183	1070678	46464	110578	0	0	8093	563924	0	0
2024-08-20 22:18:47			0	37490	0	0	0	28470	27070	157311	27026	1070678	46464	110576	0	0	8094	563609	0	0
2024-08-20 22:19:47			0	37486	0	0	0	28475	27060	157267	27135	1070660	46463	110578	0	0	8093	563799	0	0
2024-08-20 22:20:47			0	37476	0	0	0	28470	27070	157295	27280	1070669	46487	110576	0	0	8093	564160	0	0
2024-08-20 22:21:47			0	37453	0	0	0	28457	27060	157283	27074	1070651	46475	110571	0	0	8092	565100	0	0
2024-08-20 22:22:47			0	37491	0	0	0	28454	27070	157379	26812	1070678	46464	110570	0	0	8094	563569	0	0
2024-08-20 22:23:47			0	37483	0	0	0	28444	27060	157295	27010	1070660	46463	110566	0	0	8094	563917	0	0
2024-08-20 22:24:47			0	37482	0	0	0	28436	27070	157315	26833	1070615	46464	110563	0	0	8094	563924	0	0
2024-08-20 22:25:47			0	37484	0	0	0	28428	27050	157291	27076	1070588	46474	110560	0	0	8094	563910	0	0
2024-08-20 22:26:47			0	37479	0	0	0	28418	27060	157315	27043	1070553	46441	110556	0	0	8094	564075	0	0
2024-08-20 22:27:47			0	37475	0	0	0	28410	27050	157395	27036	1070454	46462	110553	0	0	8094	564265	0	0
2024-08-20 22:28:47			0	37473	0	0	0	28405	27040	157379	27109	1070463	46473	110551	0	0	8094	564376	0	0
2024-08-20 22:29:47			0	37462	0	0	0	28402	27040	157311	26889	1070517	46461	110550	0	0	8093	564810	0	0
2024-08-20 22:30:47			0	37482	0	0	0	28399	27040	157411	26849	1070382	46461	110549	0	0	8094	564021	0	0
2024-08-20 22:31:47			0	37469	0	0	0	28392	27030	157351	27034	1070355	46459	110546	0	0	8094	564566	0	0
2024-08-20 22:32:47			0	37471	0	0	0	28392	27040	157355	27062	1070373	46484	110546	0	0	8094	564455	0	0
2024-08-20 22:33:47			0	37479	0	0	0	28384	27020	157335	27003	1070337	46471	110543	0	0	8094	564204	0	0
2024-08-20 22:34:47			0	37477	0	0	0	28386	27020	157375	26956	1070337	46471	110544	0	0	8094	564283	0	0
2024-08-20 22:35:47			0	37491	0	0	0	28386	27020	157419	26967	1070373	46471	110544	0	0	8095	563731	0	0
2024-08-20 22:36:47			0	37482	0	0	0	28384	27020	157391	27138	1070337	46459	110543	0	0	8095	564086	0	0
2024-08-20 22:37:47			0	37479	0	0	0	28386	27010	157403	27206	1070355	46470	110544	0	0	8094	564236	0	0
2024-08-20 22:38:47			0	37478	0	0	0	28384	27020	157339	27244	1070283	46471	110543	0	0	8094	564243	0	0
2024-08-20 22:39:47			0	37488	0	0	0	28384	27010	157463	27081	1070318	46469	110543	0	0	8095	563882	0	0
2024-08-20 22:40:47			0	37488	0	0	0	28389	27010	157407	26984	1070345	46480	110545	0	0	8095	563882	0	0
2024-08-20 22:41:47			0	37486	0	0	0	28384	27010	157507	26937	1070301	46481	110543	0	0	8095	563960	0	0
2024-08-20 22:42:47			0	37472	0	0	0	28386	27010	157499	27171	1070372	46469	110544	0	0	8094	564512	0	0
2024-08-20 22:43:47			0	37463	0	0	0	28386	27010	157503	26961	1070372	46458	110544	0	0	8093	564868	0	0
2024-08-20 22:44:47			0	37449	0	0	0	28384	27010	157567	27097	1070345	46458	110543	0	0	8093	565420	0	0
2024-08-20 22:45:47			0	37439	0	0	0	28381	27000	157587	27095	1070273	46490	110542	0	0	8092	565848	0	0
2024-08-20 22:46:47			0	37423	0	0	0	28376	27000	157671	27173	1070246	46468	110540	0	0	8091	566480	0	0
2024-08-20 22:47:47			0	37423	0	0	0	28374	27000	157723	27244	1070220	46457	110539	0	0	8091	566480	0	0
2024-08-20 22:48:47			0	37388	0	0	0	28381	27000	157743	27007	1070220	46457	110542	0	0	8089	567865	0	0
2024-08-20 22:49:47			0	37374	0	0	0	28366	27000	157719	27187	1070229	46491	110536	0	0	8088	568420	0	0
2024-08-20 22:50:47			0	37365	0	0	0	28374	26980	157899	27455	1070193	46456	110539	0	0	8088	568841	0	0
2024-08-20 22:51:47			0	37354	0	0	0	28366	27000	157999	27144	1070282	46469	110536	0	0	8087	569212	0	0
2024-08-20 22:52:47			0	37337	0	0	0	28366	26980	157967	27119	1070139	46467	110536	0	0	8086	569952	0	0
2024-08-20 22:53:47			0	37337	0	0	0	28371	26980	158115	27180	1070193	46456	110538	0	0	8086	569952	0	0
2024-08-20 22:54:47			0	37308	0	0	0	28361	26980	158102	27208	1070184	46466	110534	0	0	8085	571105	0	0
2024-08-20 22:55:47			0	37280	0	0	0	28368	26980	158202	27116	1070246	46456	110537	0	0	8083	572218	0	0
2024-08-20 22:56:47			0	37281	0	0	0	28355	26980	158246	27284	1070166	46467	110532	0	0	8083	572179	0	0
2024-08-20 22:57:47			0	37276	0	0	0	28358	26970	158226	27222	1070175	46444	110533	0	0	8083	572410	0	0
2024-08-20 22:58:47			0	37265	0	0	0	28358	26980	158278	27281	1070184	46466	110533	0	0	8082	572816	0	0
2024-08-20 22:59:47			0	37251	0	0	0	28366	26970	158410	27024	1070121	46466	110536	0	0	8081	573406	0	0
2024-08-20 23:00:47			0	37250	0	0	0	28363	26970	158374	27147	1070121	46466	110535	0	0	8081	573446	0	0
2024-08-20 23:01:47			0	37256	0	0	0	28363	26970	158350	27220	1070166	46476	110535	0	0	8081	573207	0	0
2024-08-20 23:02:47			0	37253	0	0	0	28371	26960	158502	27284	1070130	46465	110538	0	0	8081	573359	0	0
2024-08-20 23:03:47			0	37247	0	0	0	28358	26970	158450	27284	1070121	46488	110533	0	0	8081	573566	0	0
2024-08-20 23:04:47			0	37243	0	0	0	28363	26970	158374	27256	1070148	46477	110535	0	0	8081	573725	0	0
2024-08-20 23:05:47			0	37244	0	0	0	28358	26980	158402	27365	1070184	46466	110533	0	0	8081	573652	0	0
2024-08-20 23:06:47			0	37248	0	0	0	28355	26970	158318	27211	1070148	46455	110532	0	0	8081	573526	0	0
2024-08-20 23:07:47			0	37244	0	0	0	28358	26980	158318	27315	1070130	46466	110533	0	0	8081	573652	0	0
2024-08-20 23:08:47			0	37238	0	0	0	28361	26970	158362	26731	1070148	46466	110534	0	0	8080	573925	0	0
2024-08-20 23:09:47			0	37246	0	0	0	28366	26970	158462	27078	1070139	46476	110536	0	0	8081	573606	0	0
2024-08-20 23:10:47			0	37233	0	0	0	28361	26960	158502	27170	1070130	46465	110534	0	0	8080	574157	0	0
2024-08-20 23:11:47			0	37245	0	0	0	28361	26960	158422	27396	1070157	46454	110534	0	0	8081	573678	0	0
2024-08-20 23:12:47			0	37227	0	0	0	28355	26960	158422	27244	1070157	46476	110532	0	0	8080	574396	0	0
2024-08-20 23:13:47			0	37235	0	0	0	28358	26970	158522	27213	1070112	46476	110533	0	0	8080	574044	0	0
2024-08-20 23:14:47			0	37208	0	0	0	28368	26970	158454	26923	1070166	46476	110537	0	0	8079	575122	0	0
2024-08-20 23:15:47			0	37222	0	0	0	28366	26980	158610	26911	1070184	46466	110536	0	0	8079	574530	0	0
2024-08-20 23:16:47			0	37214	0	0	0	28366	26970	158598	27119	1070121	46466	110536	0	0	8079	574882	0	0
2024-08-20 23:17:47			0	37188	0	0	0	28366	26970	158518	27098	1070166	46465	110536	0	0	8077	575921	0	0
2024-08-20 23:18:47			0	37195	0	0	0	28363	26960	158582	27277	1070183	46476	110535	0	0	8078	575674	0	0
2024-08-20 23:19:47			0	37204	0	0	0	28363	26970	158506	27013	1070192	46476	110535	0	0	8078	575282	0	0
2024-08-20 23:20:47			0	37181	0	0	0	28363	26970	158614	26835	1070139	46476	110535	0	0	8077	576201	0	0
2024-08-20 23:21:47			0	37176	0	0	0	28366	26970	158634	27114	1070166	46465	110536	0	0	8077	576401	0	0
2024-08-20 23:22:47			0	37181	0	0	0	28361	26970	158538	27230	1070192	46476	110534	0	0	8077	576201	0	0
2024-08-20 23:23:47			0	37177	0	0	0	28355	26970	158594	26887	1070139	46454	110532	0	0	8077	576361	0	0
2024-08-20 23:24:47			0	37173	0	0	0	28363	26970	158646	27256	1070139	46465	110535	0	0	8077	576521	0	0
2024-08-20 23:25:47			0	37162	0	0	0	28355	26950	158686	27008	1070139	46464	110532	0	0	8076	577027	0	0
2024-08-20 23:26:47			0	37161	0	0	0	28358	26960	158766	27241	1070148	46464	110533	0	0	8076	577034	0	0
2024-08-20 23:27:47			0	37143	0	0	0	28355	26970	158702	27495	1070139	46465	110532	0	0	8075	577721	0	0
2024-08-20 23:28:47			0	37130	0	0	0	28358	26960	158770	27157	1070103	46476	110533	0	0	8074	578276	0	0
2024-08-20 23:29:47			0	37135	0	0	0	28350	26970	158802	27090	1070112	46476	110530	0	0	8075	578042	0	0
2024-08-20 23:30:47			0	37125	0	0	0	28353	26960	158746	27081	1070040	46464	110531	0	0	8074	578476	0	0
2024-08-20 23:31:47			0	37132	0	0	0	28358	26970	158722	27098	1070139	46465	110533	0	0	8074	578162	0	0
2024-08-20 23:32:47			0	37121	0	0	0	28353	26950	158790	27126	1070085	46464	110531	0	0	8074	578670	0	0
2024-08-20 23:33:47			0	37123	0	0	0	28345	26960	158822	27197	1070130	46476	110528	0	0	8074	578556	0	0
2024-08-20 23:34:47			0	37126	0	0	0	28353	26960	158866	27050	1070130	46476	110531	0	0	8074	578436	0	0
2024-08-20 23:35:47			0	37097	0	0	0	28348	26950	158870	26604	1070022	46452	110529	0	0	8072	579633	0	0
2024-08-20 23:36:47			0	37099	0	0	0	28353	26970	158886	26913	1070085	46465	110531	0	0	8072	579486	0	0
2024-08-20 23:37:47			0	37114	0	0	0	28348	26950	158914	26960	1070085	46453	110529	0	0	8073	578950	0	0
2024-08-20 23:38:47			0	37114	0	0	0	28355	26950	158834	26993	1070049	46485	110532	0	0	8073	578950	0	0
2024-08-20 23:39:47			0	37110	0	0	0	28345	26950	158930	27313	1070139	46486	110528	0	0	8073	579111	0	0
2024-08-20 23:40:47			0	37126	0	0	0	28350	26960	158902	26993	1070121	46453	110530	0	0	8074	578436	0	0
2024-08-20 23:41:47			0	37109	0	0	0	28350	26950	158862	26696	1070076	46463	110530	0	0	8073	579151	0	0
2024-08-20 23:42:47			0	37111	0	0	0	28350	26950	158930	26908	1070085	46464	110530	0	0	8073	579071	0	0
2024-08-20 23:43:47			0	37105	0	0	0	28348	26950	158934	27362	1070112	46475	110529	0	0	8073	579312	0	0
2024-08-20 23:44:47			0	37091	0	0	0	28348	26950	158950	26934	1070103	46474	110529	0	0	8072	579873	0	0
2024-08-20 23:45:47			0	37103	0	0	0	28345	26960	158874	27079	1070121	46475	110528	0	0	8073	579358	0	0
2024-08-20 23:46:47			0	37098	0	0	0	28348	26960	158974	27215	1070121	46464	110529	0	0	8072	579559	0	0
2024-08-20 23:47:47			0	37100	0	0	0	28348	26950	158966	26994	1070058	46475	110529	0	0	8072	579512	0	0
2024-08-20 23:48:47			0	37107	0	0	0	28345	26950	158902	26925	1070076	46463	110528	0	0	8073	579231	0	0
2024-08-20 23:49:47			0	37096	0	0	0	28342	26950	158922	27043	1070058	46475	110527	0	0	8072	579673	0	0
2024-08-20 23:50:47			0	37097	0	0	0	28342	26950	158966	27208	1070076	46463	110527	0	0	8072	579633	0	0
2024-08-20 23:51:47			0	37106	0	0	0	28342	26950	158994	26948	1070112	46453	110527	0	0	8073	579271	0	0
2024-08-20 23:52:47			0	37094	0	0	0	28335	26940	158994	27170	1070094	46463	110524	0	0	8072	579786	0	0
2024-08-20 23:53:47			0	37084	0	0	0	28340	26950	158962	27222	1070103	46452	110526	0	0	8072	580155	0	0
2024-08-20 23:54:47			0	37084	0	0	0	28340	26950	158986	27069	1070049	46463	110526	0	0	8072	580155	0	0
2024-08-20 23:55:47			0	37098	0	0	0	28337	26930	158978	27187	1070058	46462	110525	0	0	8072	579659	0	0
2024-08-20 23:56:47			0	37079	0	0	0	28337	26940	158970	26981	1069986	46463	110525	0	0	8071	580389	0	0
2024-08-20 23:57:47			0	37081	0	0	0	28332	26950	159030	27334	1070049	46452	110523	0	0	8072	580275	0	0
2024-08-20 23:58:47			0	37077	0	0	0	28332	26950	159042	27365	1070031	46453	110523	0	0	8071	580436	0	0
2024-08-20 23:59:47			0	37081	0	0	0	28327	26940	159034	27313	1070013	46474	110521	0	0	8072	580308	0	0
2024-08-21 00:00:47			0	37079	0	0	0	28329	26940	159070	27145	1070040	46452	110522	0	0	8072	580389	0	0
2024-08-21 00:01:47			0	37079	0	0	0	28319	26930	159106	27033	1069968	46450	110518	0	0	8072	580422	0	0
2024-08-21 00:02:47			0	37076	0	0	0	28324	26930	159142	27163	1070004	46462	110520	0	0	8071	580543	0	0
2024-08-21 00:03:47			0	37083	0	0	0	28324	26930	159070	26991	1069968	46461	110520	0	0	8072	580261	0	0
2024-08-21 00:04:47			0	37096	0	0	0	28319	26930	158974	27118	1070004	46462	110518	0	0	8073	579739	0	0
2024-08-21 00:05:47			0	37067	0	0	0	28322	26930	159094	27071	1069950	46462	110519	0	0	8071	580904	0	0
2024-08-21 00:06:47			0	37088	0	0	0	28322	26930	159062	27043	1069941	46450	110519	0	0	8072	580060	0	0
2024-08-21 00:07:47			0	37092	0	0	0	28314	26920	159102	26968	1070013	46461	110516	0	0	8072	579933	0	0
2024-08-21 00:08:47			0	37072	0	0	0	28319	26920	159090	27124	1069923	46471	110518	0	0	8071	580737	0	0
2024-08-21 00:09:47			0	37083	0	0	0	28311	26910	159070	27145	1069968	46460	110515	0	0	8072	580328	0	0
2024-08-21 00:10:47			0	37090	0	0	0	28314	26920	159022	27161	1069905	46461	110516	0	0	8072	580013	0	0
2024-08-21 00:11:47			0	37091	0	0	0	28311	26910	159066	27256	1069914	46460	110515	0	0	8072	580006	0	0
2024-08-21 00:12:47			0	37101	0	0	0	28303	26920	158902	27201	1069959	46450	110512	0	0	8073	579572	0	0
2024-08-21 00:13:47			0	37097	0	0	0	28306	26920	159010	27161	1069905	46461	110513	0	0	8073	579732	0	0
2024-08-21 00:14:47			0	37091	0	0	0	28309	26920	159086	27234	1069950	46460	110514	0	0	8072	579973	0	0
2024-08-21 00:15:47			0	37090	0	0	0	28314	26910	158994	27142	1069914	46460	110516	0	0	8072	580047	0	0
2024-08-21 00:16:47			0	37078	0	0	0	28316	26920	159078	27024	1069923	46460	110517	0	0	8072	580496	0	0
2024-08-21 00:17:47			0	37082	0	0	0	28322	26910	159086	27161	1069941	46449	110519	0	0	8072	580368	0	0
2024-08-21 00:18:47			0	37071	0	0	0	28306	26920	159090	27059	1069869	46460	110513	0	0	8071	580777	0	0
2024-08-21 00:19:47			0	37083	0	0	0	28319	26920	159038	27164	1069905	46472	110518	0	0	8072	580295	0	0
2024-08-21 00:20:47			0	37072	0	0	0	28309	26920	159078	27192	1069932	46450	110514	0	0	8071	580737	0	0
2024-08-21 00:21:47			0	37079	0	0	0	28316	26910	159102	27201	1069932	46459	110517	0	0	8072	580489	0	0
2024-08-21 00:22:47			0	37092	0	0	0	28306	26910	159042	27267	1069914	46471	110513	0	0	8073	579966	0	0
2024-08-21 00:23:47			0	37079	0	0	0	28306	26910	159050	26932	1069941	46449	110513	0	0	8072	580489	0	0
2024-08-21 00:24:47			0	37091	0	0	0	28311	26910	159034	27400	1069887	46471	110515	0	0	8072	580006	0	0
2024-08-21 00:25:47			0	37091	0	0	0	28306	26910	158998	27220	1069851	46459	110513	0	0	8072	580006	0	0
2024-08-21 00:26:47			0	37075	0	0	0	28298	26910	159130	27237	1069878	46448	110510	0	0	8072	580649	0	0
2024-08-21 00:27:47			0	37078	0	0	0	28298	26910	159030	27185	1069878	46459	110510	0	0	8072	580529	0	0
2024-08-21 00:28:47			0	37079	0	0	0	28303	26900	159074	27317	1069869	46470	110512	0	0	8072	580522	0	0
2024-08-21 00:29:47			0	37086	0	0	0	28316	26910	158994	27159	1069905	46459	110517	0	0	8072	580207	0	0
2024-08-21 00:30:47			0	37090	0	0	0	28324	26910	158974	27175	1069914	46482	110520	0	0	8072	580047	0	0
2024-08-21 00:31:47			0	37101	0	0	0	28322	26910	159090	27104	1069905	46470	110519	0	0	8073	579605	0	0
2024-08-21 00:32:47			0	37100	0	0	0	28327	26910	159062	27216	1069959	46481	110521	0	0	8073	579645	0	0
2024-08-21 00:33:47			0	37118	0	0	0	28319	26920	158802	26948	1069932	46461	110518	0	0	8074	578889	0	0
2024-08-21 00:34:47			0	37107	0	0	0	28314	26910	158798	27332	1069887	46460	110516	0	0	8073	579364	0	0
2024-08-21 00:35:47			0	37112	0	0	0	28314	26910	158962	27067	1069932	46470	110516	0	0	8074	579163	0	0
2024-08-21 00:36:47			0	37091	0	0	0	28314	26910	158898	27296	1069941	46460	110516	0	0	8072	580006	0	0
2024-08-21 00:37:47			0	37118	0	0	0	28303	26920	158926	27352	1069950	46471	110512	0	0	8074	578889	0	0
2024-08-21 00:38:47			0	37100	0	0	0	28306	26910	158946	27303	1069887	46471	110513	0	0	8073	579645	0	0
2024-08-21 00:39:47			0	37111	0	0	0	28306	26920	158930	27152	1069923	46460	110513	0	0	8074	579170	0	0
2024-08-21 00:40:47			0	37117	0	0	0	28301	26910	158902	26819	1069905	46470	110511	0	0	8074	578963	0	0
2024-08-21 00:41:47			0	37104	0	0	0	28314	26910	158970	27253	1069941	46471	110516	0	0	8073	579484	0	0
2024-08-21 00:42:47			0	37118	0	0	0	28303	26910	158982	27438	1069834	46471	110512	0	0	8074	578923	0	0
2024-08-21 00:43:47			0	37093	0	0	0	28311	26910	158942	27098	1069968	46460	110515	0	0	8072	579926	0	0
2024-08-21 00:44:47			0	37118	0	0	0	28303	26900	158934	27601	1069923	46459	110512	0	0	8074	578956	0	0
2024-08-21 00:45:47			0	37120	0	0	0	28293	26920	158882	26987	1069950	46471	110508	0	0	8074	578809	0	0
2024-08-21 00:46:47			0	37098	0	0	0	28316	26900	158942	27325	1069869	46459	110517	0	0	8073	579759	0	0
2024-08-21 00:47:47			0	37116	0	0	0	28306	26900	158910	27085	1069869	46448	110513	0	0	8074	579036	0	0
2024-08-21 00:48:47			0	37101	0	0	0	28293	26910	159022	27232	1069851	46459	110508	0	0	8073	579605	0	0
2024-08-21 00:49:47			0	37107	0	0	0	28296	26900	158934	27055	1069842	46459	110509	0	0	8074	579397	0	0
2024-08-21 00:50:47			0	37107	0	0	0	28298	26910	159046	27109	1069824	46481	110510	0	0	8074	579364	0	0
2024-08-21 00:51:47			0	37116	0	0	0	28298	26900	159070	27156	1069815	46459	110510	0	0	8074	579036	0	0
2024-08-21 00:52:47			0	37105	0	0	0	28293	26910	159018	26890	1069878	46459	110508	0	0	8074	579444	0	0
2024-08-21 00:53:47			0	37104	0	0	0	28306	26890	159050	27182	1069878	46436	110513	0	0	8073	579551	0	0
2024-08-21 00:54:47			0	37091	0	0	0	28303	26900	158978	27149	1069896	46470	110512	0	0	8072	580040	0	0
2024-08-21 00:55:47			0	37086	0	0	0	28301	26900	159086	27076	1069896	46459	110511	0	0	8072	580241	0	0
2024-08-21 00:56:47			0	37089	0	0	0	28296	26900	159018	27246	1069914	46458	110509	0	0	8072	580120	0	0
2024-08-21 00:57:47			0	37085	0	0	0	28301	26900	159038	26979	1069833	46458	110511	0	0	8072	580281	0	0
2024-08-21 00:58:47			0	37087	0	0	0	28309	26910	159018	26776	1069878	46448	110514	0	0	8072	580167	0	0
2024-08-21 00:59:47			0	37083	0	0	0	28293	26890	158898	27010	1069851	46447	110508	0	0	8072	580394	0	0
2024-08-21 01:00:47			0	37092	0	0	0	28303	26900	159086	27159	1069869	46459	110512	0	0	8073	580000	0	0
2024-08-21 01:01:47			0	37081	0	0	0	28301	26890	159058	27116	1069851	46469	110511	0	0	8072	580475	0	0
2024-08-21 01:02:47			0	37082	0	0	0	28303	26900	159042	26849	1069896	46470	110512	0	0	8072	580401	0	0
2024-08-21 01:03:47			0	37084	0	0	0	28298	26900	159074	27095	1069788	46459	110510	0	0	8072	580321	0	0
2024-08-21 01:04:47			0	37072	0	0	0	28298	26910	159110	26850	1069851	46459	110510	0	0	8071	580770	0	0
2024-08-21 01:05:47			0	37068	0	0	0	28303	26910	159090	27024	1069905	46459	110512	0	0	8071	580931	0	0
2024-08-21 01:06:47			0	37054	0	0	0	28301	26900	159126	27067	1069842	46470	110511	0	0	8070	581527	0	0
2024-08-21 01:07:47			0	37040	0	0	0	28298	26890	159210	27026	1069878	46458	110510	0	0	8070	582124	0	0
2024-08-21 01:08:47			0	37060	0	0	0	28298	26900	159186	27090	1069806	46458	110510	0	0	8071	581286	0	0
2024-08-21 01:09:47			0	37041	0	0	0	28296	26900	159206	27149	1069914	46469	110509	0	0	8070	582050	0	0
2024-08-21 01:10:47			0	37067	0	0	0	28296	26890	159266	26769	1069869	46458	110509	0	0	8071	581037	0	0
2024-08-21 01:11:47			0	37034	0	0	0	28296	26900	159250	27118	1069887	46447	110509	0	0	8069	582332	0	0
2024-08-21 01:12:47			0	37026	0	0	0	28290	26900	159366	27031	1069914	46458	110507	0	0	8069	582655	0	0
2024-08-21 01:13:47			0	37028	0	0	0	28290	26890	159266	27024	1069824	46469	110507	0	0	8069	582607	0	0
2024-08-21 01:14:47			0	37029	0	0	0	28298	26900	159310	26946	1069914	46458	110510	0	0	8069	582534	0	0
2024-08-21 01:15:47			0	37022	0	0	0	28296	26890	159294	27114	1069824	46458	110509	0	0	8068	582849	0	0
2024-08-21 01:16:47			0	37033	0	0	0	28296	26900	159270	27230	1069806	46469	110509	0	0	8069	582373	0	0
2024-08-21 01:17:47			0	37039	0	0	0	28288	26900	159278	26996	1069869	46459	110506	0	0	8070	582131	0	0
2024-08-21 01:18:47			0	37036	0	0	0	28290	26890	159306	27203	1069824	46447	110507	0	0	8069	582285	0	0
2024-08-21 01:19:47			0	37033	0	0	0	28301	26900	159338	27163	1069833	46469	110511	0	0	8069	582373	0	0
2024-08-21 01:20:47			0	37027	0	0	0	28306	26900	159182	27053	1069833	46458	110513	0	0	8069	582614	0	0
2024-08-21 01:21:47			0	37044	0	0	0	28298	26900	159206	27268	1069860	46458	110510	0	0	8070	581930	0	0
2024-08-21 01:22:47			0	37040	0	0	0	28303	26890	159182	27039	1069905	46447	110512	0	0	8069	582124	0	0
2024-08-21 01:23:47			0	37043	0	0	0	28314	26890	159202	26800	1069851	46458	110516	0	0	8069	582003	0	0
2024-08-21 01:24:47			0	37038	0	0	0	28309	26900	159226	27156	1069869	46470	110514	0	0	8069	582171	0	0
2024-08-21 01:25:47			0	37046	0	0	0	28301	26900	159194	26840	1069869	46470	110511	0	0	8070	581849	0	0
2024-08-21 01:26:47			0	37038	0	0	0	28290	26900	159314	26897	1069860	46458	110507	0	0	8070	582171	0	0
2024-08-21 01:27:47			0	37053	0	0	0	28288	26900	159266	27305	1069887	46469	110506	0	0	8070	581567	0	0
2024-08-21 01:28:47			0	37032	0	0	0	28285	26890	159294	26765	1069869	46446	110505	0	0	8069	582446	0	0
2024-08-21 01:29:47			0	37038	0	0	0	28283	26880	159218	26833	1069779	46457	110504	0	0	8070	582238	0	0
2024-08-21 01:30:47			0	37028	0	0	0	28290	26890	159230	27156	1069797	46447	110507	0	0	8069	582607	0	0
2024-08-21 01:31:47			0	37016	0	0	0	28280	26890	159322	26824	1069824	46458	110503	0	0	8068	583091	0	0
2024-08-21 01:32:47			0	37019	0	0	0	28275	26880	159234	26731	1069743	46457	110501	0	0	8069	583003	0	0
2024-08-21 01:33:47			0	37017	0	0	0	28275	26890	159290	27031	1069788	46446	110501	0	0	8069	583051	0	0
2024-08-21 01:34:47			0	37002	0	0	0	28283	26880	159338	27043	1069752	46457	110504	0	0	8067	583689	0	0
2024-08-21 01:35:47			0	37000	0	0	0	28285	26880	159322	26927	1069779	46457	110505	0	0	8067	583770	0	0
2024-08-21 01:36:47			0	37015	0	0	0	28277	26880	159302	26932	1069725	46445	110502	0	0	8068	583165	0	0
2024-08-21 01:37:47			0	37010	0	0	0	28272	26880	159270	27038	1069690	46457	110500	0	0	8068	583366	0	0
2024-08-21 01:38:47			0	37005	0	0	0	28285	26870	159450	26675	1069761	46445	110505	0	0	8068	583601	0	0
2024-08-21 01:39:47			0	37006	0	0	0	28285	26880	159378	26994	1069743	46457	110505	0	0	8068	583528	0	0
2024-08-21 01:40:47			0	36994	0	0	0	28277	26880	159378	26901	1069743	46457	110502	0	0	8067	584012	0	0
2024-08-21 01:41:47			0	37005	0	0	0	28280	26870	159418	27057	1069788	46457	110503	0	0	8068	583601	0	0
2024-08-21 01:42:47			0	37002	0	0	0	28280	26880	159366	26930	1069752	46457	110503	0	0	8068	583689	0	0
2024-08-21 01:43:47			0	37003	0	0	0	28275	26870	159486	27234	1069681	46457	110501	0	0	8068	583682	0	0
2024-08-21 01:44:47			0	36980	0	0	0	28270	26870	159418	27152	1069761	46457	110499	0	0	8066	584610	0	0
2024-08-21 01:45:47			0	36988	0	0	0	28283	26880	159390	27086	1069770	46434	110504	0	0	8067	584254	0	0
2024-08-21 01:46:47			0	37005	0	0	0	28280	26880	159498	26798	1069752	46457	110503	0	0	8068	583568	0	0
2024-08-21 01:47:47			0	36996	0	0	0	28275	26870	159482	27053	1069761	46467	110501	0	0	8067	583965	0	0
2024-08-21 01:48:47			0	36989	0	0	0	28270	26880	159478	26876	1069806	46467	110499	0	0	8067	584214	0	0
2024-08-21 01:49:47			0	36988	0	0	0	28272	26870	159422	27161	1069734	46445	110500	0	0	8067	584288	0	0
2024-08-21 01:50:47			0	36980	0	0	0	28264	26880	159406	27057	1069716	46457	110497	0	0	8066	584577	0	0
2024-08-21 01:51:47			0	36990	0	0	0	28272	26880	159470	27177	1069716	46445	110500	0	0	8067	584173	0	0
2024-08-21 01:52:47			0	36982	0	0	0	28270	26870	159414	26790	1069779	46456	110499	0	0	8066	584530	0	0
2024-08-21 01:53:47			0	36974	0	0	0	28264	26880	159486	27119	1069690	46467	110497	0	0	8066	584819	0	0
2024-08-21 01:54:47			0	36979	0	0	0	28259	26870	159530	27107	1069707	46457	110495	0	0	8066	584651	0	0
2024-08-21 01:55:47			0	36980	0	0	0	28262	26870	159502	27251	1069725	46456	110496	0	0	8066	584610	0	0
2024-08-21 01:56:47			0	36973	0	0	0	28254	26870	159518	27239	1069698	46444	110493	0	0	8066	584893	0	0
2024-08-21 01:57:47			0	36981	0	0	0	28259	26870	159550	26986	1069734	46478	110495	0	0	8067	584570	0	0
2024-08-21 01:58:47			0	36976	0	0	0	28264	26870	159510	27159	1069725	46444	110497	0	0	8066	584772	0	0
2024-08-21 01:59:47			0	36991	0	0	0	28254	26860	159562	26769	1069680	46443	110493	0	0	8067	584200	0	0
2024-08-21 02:00:47			0	36970	0	0	0	28254	26870	159450	27022	1069752	46444	110493	0	0	8066	585014	0	0
2024-08-21 02:01:47			0	36957	0	0	0	28262	26860	159494	27152	1069689	46455	110496	0	0	8065	585573	0	0
2024-08-21 02:02:47			0	36956	0	0	0	28262	26860	159514	27133	1069663	46432	110496	0	0	8065	585614	0	0
2024-08-21 02:03:47			0	36967	0	0	0	28254	26870	159494	27039	1069618	46466	110493	0	0	8066	585136	0	0
2024-08-21 02:04:47			0	36981	0	0	0	28254	26860	159414	27020	1069689	46443	110493	0	0	8067	584604	0	0
2024-08-21 02:05:47			0	36956	0	0	0	28254	26860	159434	26823	1069680	46443	110493	0	0	8065	585614	0	0
2024-08-21 02:06:47			0	36976	0	0	0	28257	26860	159406	27305	1069734	46443	110494	0	0	8066	584805	0	0
2024-08-21 02:07:47			0	36963	0	0	0	28251	26860	159558	26955	1069627	46443	110492	0	0	8066	585331	0	0
2024-08-21 02:08:47			0	36953	0	0	0	28251	26850	159498	26908	1069618	46455	110492	0	0	8065	585769	0	0
2024-08-21 02:09:47			0	36954	0	0	0	28254	26850	159714	27175	1069609	46442	110493	0	0	8065	585728	0	0
2024-08-21 02:10:47			0	36946	0	0	0	28241	26850	159546	26911	1069636	46454	110488	0	0	8065	586052	0	0
2024-08-21 02:11:47			0	36952	0	0	0	28233	26840	159626	27109	1069626	46463	110485	0	0	8065	585843	0	0
2024-08-21 02:12:47			0	36944	0	0	0	28246	26840	159698	27182	1069600	46452	110490	0	0	8064	586166	0	0
2024-08-21 02:13:47			0	36943	0	0	0	28244	26850	159662	27229	1069582	46454	110489	0	0	8065	586173	0	0
2024-08-21 02:14:47			0	36936	0	0	0	28259	26840	159682	27005	1069644	46452	110495	0	0	8064	586490	0	0
2024-08-21 02:15:47			0	36947	0	0	0	28254	26840	159698	26850	1069573	46463	110493	0	0	8065	586045	0	0
2024-08-21 02:16:47			0	36939	0	0	0	28270	26850	159718	27192	1069636	46464	110499	0	0	8064	586335	0	0
2024-08-21 02:17:47			0	36939	0	0	0	28249	26840	159586	26890	1069626	46452	110491	0	0	8064	586368	0	0
2024-08-21 02:18:47			0	36970	0	0	0	28244	26840	159590	26771	1069618	46452	110489	0	0	8066	585115	0	0
2024-08-21 02:19:47			0	36965	0	0	0	28231	26850	159674	27097	1069582	46454	110484	0	0	8066	585283	0	0
2024-08-21 02:20:47			0	36984	0	0	0	28225	26850	159466	27114	1069555	46442	110482	0	0	8067	584516	0	0
2024-08-21 02:21:47			0	36990	0	0	0	28225	26850	159514	26961	1069528	46442	110482	0	0	8068	584274	0	0
2024-08-21 02:22:47			0	36979	0	0	0	28223	26840	159518	27166	1069591	46452	110481	0	0	8067	584751	0	0
2024-08-21 02:23:47			0	36969	0	0	0	28228	26830	159558	27067	1069528	46452	110483	0	0	8066	585189	0	0
2024-08-21 02:24:47			0	36978	0	0	0	28225	26830	159678	27086	1069582	46452	110482	0	0	8067	584825	0	0
2024-08-21 02:25:47			0	36963	0	0	0	28215	26830	159586	27367	1069465	46462	110478	0	0	8066	585431	0	0
2024-08-21 02:26:47			0	36952	0	0	0	28220	26820	159594	27232	1069537	46439	110480	0	0	8065	585910	0	0
2024-08-21 02:27:47			0	36957	0	0	0	28218	26820	159666	26994	1069447	46438	110479	0	0	8066	585707	0	0
2024-08-21 02:28:47			0	36935	0	0	0	28215	26820	159666	27059	1069510	46439	110478	0	0	8064	586598	0	0
2024-08-21 02:29:47			0	36935	0	0	0	28210	26830	159670	27057	1069438	46452	110476	0	0	8065	586564	0	0
2024-08-21 02:30:47			0	36916	0	0	0	28215	26820	159686	26847	1069474	46450	110478	0	0	8063	587367	0	0
2024-08-21 02:31:47			0	36928	0	0	0	28210	26830	159738	27052	1069528	46452	110476	0	0	8064	586847	0	0
2024-08-21 02:32:47			0	36923	0	0	0	28210	26820	159722	26873	1069429	46451	110476	0	0	8064	587083	0	0
2024-08-21 02:33:47			0	36915	0	0	0	28220	26810	159826	26854	1069492	46450	110480	0	0	8063	587441	0	0
2024-08-21 02:34:47			0	36912	0	0	0	28218	26820	159818	26838	1069474	46450	110479	0	0	8063	587529	0	0
2024-08-21 02:35:47			0	36916	0	0	0	28218	26830	159838	26760	1069465	46452	110479	0	0	8063	587333	0	0
2024-08-21 02:36:47			0	36909	0	0	0	28215	26810	159898	27036	1069492	46450	110478	0	0	8063	587684	0	0
2024-08-21 02:37:47			0	36899	0	0	0	28210	26820	159986	27272	1069393	46438	110476	0	0	8062	588056	0	0
2024-08-21 02:38:47			0	36893	0	0	0	28210	26810	159966	26932	1069438	46460	110476	0	0	8062	588333	0	0
2024-08-21 02:39:47			0	36901	0	0	0	28207	26810	159866	27142	1069465	46450	110475	0	0	8062	588009	0	0
2024-08-21 02:40:47			0	36884	0	0	0	28205	26810	159994	27192	1069465	46438	110474	0	0	8061	588698	0	0
2024-08-21 02:41:47			0	36879	0	0	0	28202	26820	159850	27048	1069447	46450	110473	0	0	8061	588867	0	0
2024-08-21 02:42:47			0	36883	0	0	0	28202	26810	160022	27405	1069438	46438	110473	0	0	8061	588739	0	0
2024-08-21 02:43:47			0	36867	0	0	0	28205	26810	159926	27112	1069348	46438	110474	0	0	8060	589388	0	0
2024-08-21 02:44:47			0	36887	0	0	0	28199	26800	160070	27046	1069420	46449	110472	0	0	8062	588610	0	0
2024-08-21 02:45:47			0	36890	0	0	0	28192	26810	159930	27081	1069402	46450	110469	0	0	8062	588455	0	0
2024-08-21 02:46:47			0	36877	0	0	0	28199	26800	159922	27289	1069339	46449	110472	0	0	8061	589016	0	0
2024-08-21 02:47:47			0	36883	0	0	0	28186	26800	160002	27001	1069384	46436	110467	0	0	8062	588773	0	0
2024-08-21 02:48:47			0	36884	0	0	0	28186	26800	160042	27137	1069366	46449	110467	0	0	8062	588732	0	0
2024-08-21 02:49:47			0	36895	0	0	0	28189	26800	160042	27116	1069366	46470	110468	0	0	8062	588286	0	0
2024-08-21 02:50:47			0	36886	0	0	0	28197	26810	159910	27092	1069375	46438	110471	0	0	8062	588617	0	0
2024-08-21 02:51:47			0	36883	0	0	0	28197	26800	159874	27270	1069447	46437	110471	0	0	8062	588773	0	0
2024-08-21 02:52:47			0	36889	0	0	0	28199	26790	159914	27180	1069375	46458	110472	0	0	8062	588563	0	0
2024-08-21 02:53:47			0	36899	0	0	0	28189	26800	159886	27183	1069393	46437	110468	0	0	8063	588123	0	0
2024-08-21 02:54:47			0	36878	0	0	0	28202	26800	159974	27157	1069330	46448	110473	0	0	8061	588975	0	0
2024-08-21 02:55:47			0	36904	0	0	0	28207	26800	159894	27203	1069304	46448	110475	0	0	8063	587921	0	0
2024-08-21 02:56:47			0	36896	0	0	0	28199	26800	159966	27313	1069339	46449	110472	0	0	8062	588245	0	0
2024-08-21 02:57:47			0	36894	0	0	0	28192	26790	160018	27126	1069321	46448	110469	0	0	8062	588360	0	0
2024-08-21 02:58:47			0	36904	0	0	0	28184	26800	159970	27114	1069330	46458	110466	0	0	8063	587921	0	0
2024-08-21 02:59:47			0	36875	0	0	0	28194	26800	159898	27095	1069357	46458	110470	0	0	8061	589097	0	0
2024-08-21 03:00:47			0	36872	0	0	0	28197	26800	159966	26991	1069420	46437	110471	0	0	8061	589219	0	0
2024-08-21 03:01:47			0	36890	0	0	0	28212	26790	159878	27391	1069366	46458	110477	0	0	8062	588522	0	0
2024-08-21 03:02:47			0	36908	0	0	0	28205	26800	159966	26932	1069411	46448	110474	0	0	8063	587759	0	0
2024-08-21 03:03:47			0	36917	0	0	0	28207	26790	159930	27182	1069375	46458	110475	0	0	8063	587427	0	0
2024-08-21 03:04:47			0	36919	0	0	0	28212	26800	159826	26911	1069384	46448	110477	0	0	8063	587313	0	0
2024-08-21 03:05:47			0	36909	0	0	0	28212	26800	159906	27046	1069447	46449	110477	0	0	8063	587718	0	0
2024-08-21 03:06:47			0	36907	0	0	0	28202	26810	159810	27121	1069402	46450	110473	0	0	8063	587765	0	0
2024-08-21 03:07:47			0	36897	0	0	0	28202	26800	159898	27550	1069357	46436	110473	0	0	8062	588205	0	0
2024-08-21 03:08:47			0	36904	0	0	0	28202	26800	159902	27320	1069384	46436	110473	0	0	8063	587921	0	0
2024-08-21 03:09:47			0	36881	0	0	0	28202	26800	159906	27130	1069330	46448	110473	0	0	8061	588854	0	0
2024-08-21 03:10:47			0	36895	0	0	0	28205	26800	159858	27086	1069384	46448	110474	0	0	8062	588286	0	0
2024-08-21 03:11:47			0	36876	0	0	0	28197	26800	159954	26996	1069313	46459	110471	0	0	8061	589057	0	0
2024-08-21 03:12:47			0	36870	0	0	0	28192	26790	159918	27206	1069348	46458	110469	0	0	8061	589334	0	0
2024-08-21 03:13:47			0	36866	0	0	0	28184	26790	160046	27230	1069348	46436	110466	0	0	8061	589496	0	0
2024-08-21 03:14:47			0	36833	0	0	0	28181	26800	160062	26845	1069277	46448	110465	0	0	8059	590804	0	0
2024-08-21 03:15:47			0	36849	0	0	0	28184	26790	160074	26961	1069312	46436	110466	0	0	8060	590187	0	0
2024-08-21 03:16:47			0	36830	0	0	0	28184	26800	160086	27189	1069250	46448	110466	0	0	8059	590926	0	0
2024-08-21 03:17:47			0	36847	0	0	0	28192	26790	160086	27022	1069321	46458	110469	0	0	8059	590268	0	0
2024-08-21 03:18:47			0	36818	0	0	0	28181	26780	160142	27336	1069276	46447	110465	0	0	8058	591482	0	0
2024-08-21 03:19:47			0	36832	0	0	0	28179	26790	160166	27175	1069295	46458	110464	0	0	8059	590878	0	0
2024-08-21 03:20:47			0	36817	0	0	0	28184	26790	160230	26878	1069268	46448	110466	0	0	8058	591489	0	0
2024-08-21 03:21:47			0	36789	0	0	0	28179	26770	160170	27196	1069285	46446	110464	0	0	8056	592697	0	0
2024-08-21 03:22:47			0	36784	0	0	0	28179	26780	160398	27218	1069267	46446	110464	0	0	8056	592867	0	0
2024-08-21 03:23:47			0	36789	0	0	0	28179	26780	160414	26923	1069294	46446	110464	0	0	8056	592663	0	0
2024-08-21 03:24:47			0	36771	0	0	0	28179	26790	160378	27235	1069348	46448	110464	0	0	8055	593363	0	0
2024-08-21 03:25:47			0	36764	0	0	0	28173	26780	160442	27315	1069294	46446	110462	0	0	8055	593683	0	0
2024-08-21 03:26:47			0	36775	0	0	0	28184	26780	160438	27118	1069303	46447	110466	0	0	8055	593234	0	0
2024-08-21 03:27:47			0	36778	0	0	0	28181	26780	160402	27312	1069249	46458	110465	0	0	8055	593112	0	0
2024-08-21 03:28:47			0	36777	0	0	0	28176	26790	160374	27204	1069339	46448	110463	0	0	8056	593119	0	0
2024-08-21 03:29:47			0	36759	0	0	0	28176	26790	160422	27071	1069258	46448	110463	0	0	8054	593853	0	0
2024-08-21 03:30:47			0	36766	0	0	0	28173	26790	160370	27057	1069312	46436	110462	0	0	8055	593567	0	0
2024-08-21 03:31:47			0	36778	0	0	0	28179	26780	160342	27126	1069240	46457	110464	0	0	8056	593112	0	0
2024-08-21 03:32:47			0	36779	0	0	0	28168	26780	160442	27017	1069249	46447	110460	0	0	8056	593071	0	0
2024-08-21 03:33:47			0	36778	0	0	0	28161	26770	160470	27116	1069204	46457	110457	0	0	8056	593146	0	0
2024-08-21 03:34:47			0	36752	0	0	0	28158	26780	160522	26989	1069213	46446	110456	0	0	8054	594173	0	0
2024-08-21 03:35:47			0	36752	0	0	0	28163	26770	160474	26996	1069231	46446	110458	0	0	8054	594207	0	0
2024-08-21 03:36:47			0	36750	0	0	0	28168	26780	160534	27197	1069213	46446	110460	0	0	8054	594255	0	0
2024-08-21 03:37:47			0	36739	0	0	0	28161	26770	160518	27081	1069258	46446	110457	0	0	8053	594738	0	0
2024-08-21 03:38:47			0	36750	0	0	0	28166	26770	160526	26944	1069178	46457	110459	0	0	8054	594289	0	0
2024-08-21 03:39:47			0	36744	0	0	0	28158	26770	160530	27086	1069249	46446	110456	0	0	8054	594534	0	0
2024-08-21 03:40:47			0	36730	0	0	0	28163	26770	160578	27343	1069204	46457	110458	0	0	8053	595106	0	0
2024-08-21 03:41:47			0	36721	0	0	0	28148	26760	160486	27112	1069160	46456	110452	0	0	8053	595508	0	0
2024-08-21 03:42:47			0	36741	0	0	0	28158	26770	160626	27308	1069222	46457	110456	0	0	8054	594656	0	0
2024-08-21 03:43:47			0	36731	0	0	0	28155	26770	160666	27031	1069142	46457	110455	0	0	8053	595065	0	0
2024-08-21 03:44:47			0	36716	0	0	0	28161	26750	160626	27272	1069088	46454	110457	0	0	8052	595747	0	0
2024-08-21 03:45:47			0	36725	0	0	0	28158	26760	160682	27170	1069151	46444	110456	0	0	8053	595344	0	0
2024-08-21 03:46:47			0	36736	0	0	0	28150	26760	160634	27176	1069177	46444	110453	0	0	8053	594895	0	0
2024-08-21 03:47:47			0	36742	0	0	0	28148	26760	160578	27407	1069160	46444	110452	0	0	8054	594649	0	0
2024-08-21 03:48:47			0	36736	0	0	0	28137	26760	160634	27300	1069133	46433	110448	0	0	8054	594895	0	0
2024-08-21 03:49:47			0	36755	0	0	0	28132	26760	160590	27429	1069043	46421	110446	0	0	8055	594118	0	0
2024-08-21 03:50:47			0	36729	0	0	0	28135	26750	160566	27206	1069088	46431	110447	0	0	8053	595215	0	0
2024-08-21 03:51:47			0	36746	0	0	0	28127	26750	160638	27176	1069115	46443	110444	0	0	8054	594520	0	0
2024-08-21 03:52:47			0	36721	0	0	0	28122	26760	160662	27329	1069124	46444	110442	0	0	8053	595508	0	0
2024-08-21 03:53:47			0	36709	0	0	0	28127	26740	160662	27126	1069070	46443	110444	0	0	8052	596067	0	0
2024-08-21 03:54:47			0	36709	0	0	0	28129	26750	160670	27076	1069079	46420	110445	0	0	8052	596033	0	0
2024-08-21 03:55:47			0	36697	0	0	0	28135	26740	160838	27157	1069043	46454	110447	0	0	8051	596558	0	0
2024-08-21 03:56:47			0	36673	0	0	0	28114	26740	160854	27159	1069070	46443	110439	0	0	8050	597542	0	0
2024-08-21 03:57:47			0	36670	0	0	0	28127	26740	160846	27260	1069034	46453	110444	0	0	8050	597665	0	0
2024-08-21 03:58:47			0	36674	0	0	0	28124	26740	161014	26987	1069043	46443	110443	0	0	8050	597501	0	0
2024-08-21 03:59:47			0	36643	0	0	0	28119	26730	161070	26961	1069052	46429	110441	0	0	8048	598807	0	0
2024-08-21 04:00:47			0	36639	0	0	0	28106	26730	161110	26656	1069025	46441	110436	0	0	8048	598971	0	0
2024-08-21 04:01:47			0	36633	0	0	0	28114	26740	161182	27118	1069061	46442	110439	0	0	8048	599183	0	0
2024-08-21 04:02:47			0	36625	0	0	0	28106	26730	161222	26814	1068989	46429	110436	0	0	8047	599546	0	0
2024-08-21 04:03:47			0	36591	0	0	0	28101	26730	161262	26982	1069016	46441	110434	0	0	8045	600944	0	0
2024-08-21 04:04:47			0	36587	0	0	0	28114	26720	161261	26771	1068980	46441	110439	0	0	8045	601143	0	0
2024-08-21 04:05:47			0	36583	0	0	0	28106	26720	161365	27000	1068980	46429	110436	0	0	8045	601308	0	0
2024-08-21 04:06:47			0	36590	0	0	0	28114	26720	161429	27095	1068980	46441	110439	0	0	8045	601020	0	0
2024-08-21 04:07:47			0	36574	0	0	0	28114	26730	161509	26987	1068971	46452	110439	0	0	8044	601644	0	0
2024-08-21 04:08:47			0	36551	0	0	0	28116	26720	161565	27043	1068953	46452	110440	0	0	8043	602626	0	0
2024-08-21 04:09:47			0	36544	0	0	0	28106	26720	161541	27072	1069007	46441	110436	0	0	8043	602915	0	0
2024-08-21 04:10:47			0	36515	0	0	0	28119	26720	161625	26951	1068980	46452	110441	0	0	8041	604112	0	0
2024-08-21 04:11:47			0	36499	0	0	0	28109	26710	161801	26781	1068908	46439	110437	0	0	8040	604808	0	0
2024-08-21 04:12:47			0	36458	0	0	0	28116	26720	161821	26748	1068926	46441	110440	0	0	8037	606470	0	0
2024-08-21 04:13:47			0	36446	0	0	0	28109	26720	162081	27066	1068971	46440	110437	0	0	8037	606967	0	0
2024-08-21 04:14:47			0	36420	0	0	0	28111	26710	162165	27261	1068908	46450	110438	0	0	8035	608080	0	0
2024-08-21 04:15:47			0	36392	0	0	0	28101	26710	162217	26828	1068908	46439	110434	0	0	8033	609243	0	0
2024-08-21 04:16:47			0	36381	0	0	0	28116	26710	162293	27100	1068908	46439	110440	0	0	8033	609700	0	0
2024-08-21 04:17:47			0	36368	0	0	0	28116	26710	162369	27123	1068953	46427	110440	0	0	8032	610240	0	0
2024-08-21 04:18:47			0	36329	0	0	0	28122	26710	162429	26930	1068908	46427	110442	0	0	8029	611864	0	0
2024-08-21 04:19:47			0	36327	0	0	0	28106	26710	162485	27220	1068908	46439	110436	0	0	8030	611947	0	0
2024-08-21 04:20:47			0	36313	0	0	0	28111	26720	162625	27005	1068944	46461	110438	0	0	8029	612496	0	0
2024-08-21 04:21:47			0	36293	0	0	0	28119	26710	162525	27060	1068989	46439	110441	0	0	8027	613365	0	0
2024-08-21 04:22:47			0	36269	0	0	0	28111	26720	162665	27123	1068971	46440	110438	0	0	8026	614333	0	0
2024-08-21 04:23:47			0	36248	0	0	0	28101	26710	162713	26981	1068953	46439	110434	0	0	8025	615246	0	0
2024-08-21 04:24:47			0	36237	0	0	0	28114	26720	162869	26993	1068944	46451	110439	0	0	8024	615671	0	0
2024-08-21 04:25:47			0	36216	0	0	0	28098	26700	162973	27154	1068962	46437	110433	0	0	8023	616621	0	0
2024-08-21 04:26:47			0	36179	0	0	0	28101	26710	163121	27036	1068953	46427	110434	0	0	8021	618137	0	0
2024-08-21 04:27:47			0	36143	0	0	0	28103	26710	163373	26918	1068908	46439	110435	0	0	8018	619649	0	0
2024-08-21 04:28:47			0	36117	0	0	0	28106	26710	163405	27098	1068881	46439	110436	0	0	8017	620743	0	0
2024-08-21 04:29:47			0	36086	0	0	0	28103	26700	163517	26949	1068917	46439	110435	0	0	8015	622085	0	0
2024-08-21 04:30:47			0	36075	0	0	0	28101	26710	163625	27074	1068935	46450	110434	0	0	8014	622513	0	0
2024-08-21 04:31:47			0	36063	0	0	0	28106	26700	163637	27303	1068908	46437	110436	0	0	8014	623055	0	0
2024-08-21 04:32:47			0	36045	0	0	0	28098	26700	163749	27124	1068935	46437	110433	0	0	8013	623815	0	0
2024-08-21 04:33:47			0	36035	0	0	0	28090	26700	163813	26831	1068890	46427	110430	0	0	8012	624238	0	0
2024-08-21 04:34:47			0	36021	0	0	0	28101	26700	163909	27036	1068854	46449	110434	0	0	8011	624830	0	0
2024-08-21 04:35:47			0	36004	0	0	0	28109	26710	164049	27079	1068899	46439	110437	0	0	8010	625513	0	0
2024-08-21 04:36:47			0	35983	0	0	0	28088	26700	164093	27124	1068881	46437	110429	0	0	8009	626438	0	0
2024-08-21 04:37:47			0	35975	0	0	0	28088	26700	164061	27251	1068837	46450	110429	0	0	8008	626777	0	0
2024-08-21 04:38:47			0	35991	0	0	0	28090	26700	164169	26800	1068935	46437	110430	0	0	8009	626099	0	0
2024-08-21 04:39:47			0	35967	0	0	0	28103	26700	164149	27074	1068935	46426	110435	0	0	8008	627116	0	0
2024-08-21 04:40:47			0	35953	0	0	0	28111	26690	164205	26956	1068899	46436	110438	0	0	8007	627746	0	0
2024-08-21 04:41:47			0	35949	0	0	0	28106	26700	164325	27199	1068863	46439	110436	0	0	8007	627880	0	0
2024-08-21 04:42:47			0	35971	0	0	0	28109	26700	164177	27043	1068881	46437	110437	0	0	8008	626947	0	0
2024-08-21 04:43:47			0	35964	0	0	0	28119	26710	164125	27225	1068899	46450	110441	0	0	8007	627208	0	0
2024-08-21 04:44:47			0	35972	0	0	0	28132	26710	164197	27248	1068899	46450	110446	0	0	8008	626868	0	0
2024-08-21 04:45:47			0	35958	0	0	0	28116	26710	164277	27020	1069016	46450	110440	0	0	8007	627462	0	0
2024-08-21 04:46:47			0	35959	0	0	0	28116	26710	164193	26863	1068953	46439	110440	0	0	8007	627420	0	0
2024-08-21 04:47:47			0	35956	0	0	0	28119	26710	164337	27135	1069016	46450	110441	0	0	8007	627547	0	0
2024-08-21 04:48:47			0	35943	0	0	0	28111	26710	164229	27060	1068962	46439	110438	0	0	8006	628099	0	0
2024-08-21 04:49:47			0	35939	0	0	0	28111	26710	164261	27256	1068908	46450	110438	0	0	8006	628269	0	0
2024-08-21 04:50:47			0	35919	0	0	0	28116	26710	164469	27088	1068908	46439	110440	0	0	8005	629118	0	0
2024-08-21 04:51:47			0	35888	0	0	0	28119	26710	164501	27121	1068980	46450	110441	0	0	8003	630436	0	0
2024-08-21 04:52:47			0	35870	0	0	0	28109	26710	164633	26941	1068935	46427	110437	0	0	8002	631203	0	0
2024-08-21 04:53:47			0	35859	0	0	0	28103	26700	164589	26951	1068971	46427	110435	0	0	8001	631708	0	0
2024-08-21 04:54:47			0	35836	0	0	0	28106	26710	164608	27222	1068953	46439	110436	0	0	8000	632652	0	0
2024-08-21 04:55:47			0	35854	0	0	0	28111	26710	164780	27000	1069034	46439	110438	0	0	8001	631885	0	0
2024-08-21 04:56:47			0	35847	0	0	0	28114	26710	164800	27265	1068980	46427	110439	0	0	8000	632183	0	0
2024-08-21 04:57:47			0	35813	0	0	0	28116	26710	164860	26864	1068953	46439	110440	0	0	7998	633634	0	0
2024-08-21 04:58:47			0	35825	0	0	0	28116	26710	164872	27135	1068989	46450	110440	0	0	7999	633122	0	0
2024-08-21 04:59:47			0	35799	0	0	0	28122	26720	164800	27043	1068998	46451	110442	0	0	7997	634196	0	0
2024-08-21 05:00:47			0	35808	0	0	0	28122	26710	164844	27164	1068962	46427	110442	0	0	7998	633848	0	0
2024-08-21 05:01:47			0	35762	0	0	0	28111	26710	164948	26993	1068935	46460	110438	0	0	7995	635816	0	0
2024-08-21 05:02:47			0	35784	0	0	0	28122	26720	164944	26942	1068971	46440	110442	0	0	7996	634838	0	0
2024-08-21 05:03:47			0	35784	0	0	0	28124	26710	164992	26882	1069016	46427	110443	0	0	7996	634874	0	0
2024-08-21 05:04:47			0	35773	0	0	0	28119	26700	165032	27036	1068971	46450	110441	0	0	7996	635381	0	0
2024-08-21 05:05:47			0	35745	0	0	0	28124	26720	165004	27039	1069007	46452	110443	0	0	7994	636507	0	0
2024-08-21 05:06:47			0	35746	0	0	0	28132	26720	165144	27057	1068980	46441	110446	0	0	7994	636465	0	0
2024-08-21 05:07:47			0	35729	0	0	0	28142	26720	165136	26994	1069034	46441	110450	0	0	7993	637193	0	0
2024-08-21 05:08:47			0	35712	0	0	0	28122	26720	165260	26909	1069025	46428	110442	0	0	7992	637923	0	0
2024-08-21 05:09:47			0	35693	0	0	0	28127	26730	165336	27248	1069043	46452	110444	0	0	7991	638702	0	0
2024-08-21 05:10:47			0	35680	0	0	0	28135	26730	165512	26765	1069043	46452	110447	0	0	7990	639261	0	0
2024-08-21 05:11:47			0	35685	0	0	0	28129	26730	165408	27159	1069016	46441	110445	0	0	7990	639046	0	0
2024-08-21 05:12:47			0	35668	0	0	0	28135	26740	165412	27466	1069034	46430	110447	0	0	7989	639740	0	0
2024-08-21 05:13:47			0	35657	0	0	0	28122	26720	165532	27118	1068944	46428	110442	0	0	7989	640287	0	0
2024-08-21 05:14:47			0	35650	0	0	0	28116	26730	165536	26838	1069043	46441	110440	0	0	7988	640551	0	0
2024-08-21 05:15:47			0	35645	0	0	0	28124	26720	165624	27256	1068980	46429	110443	0	0	7988	640803	0	0
2024-08-21 05:16:47			0	35664	0	0	0	28116	26720	165576	26996	1068926	46441	110440	0	0	7989	639985	0	0
2024-08-21 05:17:47			0	35663	0	0	0	28119	26720	165488	26955	1068971	46440	110441	0	0	7989	640029	0	0
2024-08-21 05:18:47			0	35659	0	0	0	28111	26720	165556	26866	1068998	46440	110438	0	0	7989	640201	0	0
2024-08-21 05:19:47			0	35654	0	0	0	28114	26720	165596	27045	1069007	46429	110439	0	0	7989	640416	0	0
2024-08-21 05:20:47			0	35661	0	0	0	28106	26720	165596	26717	1068980	46429	110436	0	0	7989	640115	0	0
2024-08-21 05:21:47			0	35670	0	0	0	28106	26710	165556	26805	1068962	46427	110436	0	0	7990	639764	0	0
2024-08-21 05:22:47			0	35673	0	0	0	28103	26730	165592	27223	1068989	46441	110435	0	0	7990	639562	0	0
2024-08-21 05:23:47			0	35668	0	0	0	28114	26720	165572	27178	1068944	46440	110439	0	0	7989	639813	0	0
2024-08-21 05:24:47			0	35682	0	0	0	28109	26710	165488	27098	1068962	46427	110437	0	0	7990	639248	0	0
2024-08-21 05:25:47			0	35674	0	0	0	28098	26720	165532	27119	1068944	46440	110433	0	0	7990	639555	0	0
2024-08-21 05:26:47			0	35656	0	0	0	28116	26710	165528	27149	1068962	46439	110440	0	0	7989	640367	0	0
2024-08-21 05:27:47			0	35644	0	0	0	28111	26720	165632	27301	1068971	46440	110438	0	0	7988	640846	0	0
2024-08-21 05:28:47			0	35655	0	0	0	28119	26720	165500	27260	1068971	46440	110441	0	0	7989	640373	0	0
2024-08-21 05:29:47			0	35663	0	0	0	28116	26710	165544	26953	1068935	46439	110440	0	0	7989	640065	0	0
2024-08-21 05:30:47			0	35666	0	0	0	28119	26720	165440	27098	1068980	46441	110441	0	0	7989	639899	0	0
2024-08-21 05:31:47			0	35647	0	0	0	28103	26720	165436	27074	1068944	46451	110435	0	0	7988	640717	0	0
2024-08-21 05:32:47			0	35659	0	0	0	28090	26710	165460	27156	1068962	46450	110430	0	0	7989	640237	0	0
2024-08-21 05:33:47			0	35672	0	0	0	28098	26720	165384	26991	1068944	46417	110433	0	0	7990	639641	0	0
2024-08-21 05:34:47			0	35675	0	0	0	28093	26710	165360	27225	1068926	46439	110431	0	0	7990	639549	0	0
2024-08-21 05:35:47			0	35688	0	0	0	28101	26710	165368	26946	1068980	46439	110434	0	0	7991	638990	0	0
2024-08-21 05:36:47			0	35704	0	0	0	28109	26710	165208	27034	1068935	46450	110437	0	0	7992	638303	0	0
2024-08-21 05:37:47			0	35735	0	0	0	28106	26710	165140	26772	1068926	46439	110436	0	0	7994	636973	0	0
2024-08-21 05:38:47			0	35742	0	0	0	28119	26710	165064	26925	1068989	46439	110441	0	0	7994	636672	0	0
2024-08-21 05:39:47			0	35761	0	0	0	28111	26710	165124	26909	1068989	46439	110438	0	0	7995	635858	0	0
2024-08-21 05:40:47			0	35752	0	0	0	28122	26700	165040	27003	1068971	46439	110442	0	0	7994	636280	0	0
2024-08-21 05:41:47			0	35760	0	0	0	28119	26710	165000	26823	1069007	46439	110441	0	0	7995	635901	0	0
2024-08-21 05:42:47			0	35753	0	0	0	28116	26710	165036	26981	1068962	46427	110440	0	0	7995	636201	0	0
2024-08-21 05:43:47			0	35743	0	0	0	28103	26710	165044	27317	1069007	46416	110435	0	0	7994	636630	0	0
2024-08-21 05:44:47			0	35738	0	0	0	28116	26710	165012	26998	1068899	46439	110440	0	0	7994	636844	0	0
2024-08-21 05:45:47			0	35747	0	0	0	28103	26710	165116	27261	1068962	46439	110435	0	0	7994	636458	0	0
2024-08-21 05:46:47			0	35712	0	0	0	28106	26720	165308	27220	1068971	46440	110436	0	0	7992	637923	0	0
2024-08-21 05:47:47			0	35710	0	0	0	28103	26710	165216	27312	1068899	46450	110435	0	0	7992	638045	0	0
2024-08-21 05:48:47			0	35701	0	0	0	28096	26710	165296	27072	1068908	46450	110432	0	0	7992	638432	0	0
2024-08-21 05:49:47			0	35677	0	0	0	28093	26710	165344	27284	1068899	46439	110431	0	0	7990	639463	0	0
2024-08-21 05:50:47			0	35661	0	0	0	28098	26710	165560	27334	1068935	46427	110433	0	0	7989	640151	0	0
2024-08-21 05:51:47			0	35651	0	0	0	28090	26710	165492	27069	1068980	46439	110430	0	0	7989	640582	0	0
2024-08-21 05:52:47			0	35648	0	0	0	28098	26700	165596	27248	1068917	46427	110433	0	0	7988	640748	0	0
2024-08-21 05:53:47			0	35626	0	0	0	28101	26710	165628	26908	1068899	46439	110434	0	0	7987	641659	0	0
2024-08-21 05:54:47			0	35616	0	0	0	28093	26710	165736	27081	1068908	46439	110431	0	0	7986	642090	0	0
2024-08-21 05:55:47			0	35606	0	0	0	28096	26700	165728	27050	1068890	46427	110432	0	0	7986	642558	0	0
2024-08-21 05:56:47			0	35623	0	0	0	28088	26700	165788	27249	1068837	46450	110429	0	0	7987	641825	0	0
2024-08-21 05:57:47			0	35607	0	0	0	28077	26700	165848	27121	1068917	46427	110425	0	0	7986	642515	0	0
2024-08-21 05:58:47			0	35586	0	0	0	28083	26700	165840	26982	1068837	46439	110427	0	0	7985	643421	0	0
2024-08-21 05:59:47			0	35592	0	0	0	28072	26700	165888	27204	1068863	46439	110423	0	0	7985	643162	0	0
2024-08-21 06:00:47			0	35556	0	0	0	28072	26700	166072	27050	1068854	46426	110423	0	0	7983	644718	0	0
2024-08-21 06:01:47			0	35553	0	0	0	28059	26690	166012	27131	1068819	46436	110418	0	0	7983	644885	0	0
2024-08-21 06:02:47			0	35521	0	0	0	28062	26710	166016	27000	1068819	46427	110419	0	0	7981	646196	0	0
2024-08-21 06:03:47			0	35518	0	0	0	28062	26690	166148	27036	1068810	46424	110419	0	0	7981	646400	0	0
2024-08-21 06:04:47			0	35514	0	0	0	28054	26690	166148	27079	1068729	46436	110416	0	0	7981	646574	0	0
2024-08-21 06:05:47			0	35486	0	0	0	28057	26680	166224	26783	1068774	46424	110417	0	0	7979	647825	0	0
2024-08-21 06:06:47			0	35498	0	0	0	28057	26670	166276	26932	1068720	46422	110417	0	0	7980	647342	0	0
2024-08-21 06:07:47			0	35485	0	0	0	28046	26670	166220	27149	1068747	46434	110413	0	0	7979	647906	0	0
2024-08-21 06:08:47			0	35481	0	0	0	28036	26670	166240	27235	1068756	46435	110409	0	0	7979	648080	0	0
2024-08-21 06:09:47			0	35486	0	0	0	28044	26670	166316	27371	1068729	46423	110412	0	0	7979	647862	0	0
2024-08-21 06:10:47			0	35461	0	0	0	28049	26660	166268	26958	1068657	46434	110414	0	0	7977	648986	0	0
2024-08-21 06:11:47			0	35458	0	0	0	28031	26660	166444	26953	1068621	46422	110407	0	0	7978	649116	0	0
2024-08-21 06:12:47			0	35463	0	0	0	28028	26660	166512	26961	1068603	46422	110406	0	0	7978	648899	0	0
2024-08-21 06:13:47			0	35444	0	0	0	28044	26650	166440	26972	1068639	46421	110412	0	0	7976	649762	0	0
2024-08-21 06:14:47			0	35436	0	0	0	28044	26650	166568	27045	1068639	46433	110412	0	0	7976	650110	0	0
2024-08-21 06:15:47			0	35406	0	0	0	28054	26640	166704	27164	1068621	46432	110416	0	0	7974	651454	0	0
2024-08-21 06:16:47			0	35399	0	0	0	28038	26640	166744	26889	1068683	46432	110410	0	0	7974	651759	0	0
2024-08-21 06:17:47			0	35399	0	0	0	28031	26640	166776	26890	1068621	46432	110407	0	0	7974	651759	0	0
2024-08-21 06:18:47			0	35403	0	0	0	28020	26660	166708	26986	1068648	46434	110403	0	0	7974	651510	0	0
2024-08-21 06:19:47			0	35410	0	0	0	27992	26640	166696	26928	1068486	46443	110392	0	0	7975	651280	0	0
2024-08-21 06:20:47			0	35415	0	0	0	27974	26630	166676	26856	1068468	46430	110385	0	0	7976	651099	0	0
2024-08-21 06:21:47			0	35389	0	0	0	27945	26620	166704	27123	1068433	46418	110374	0	0	7975	652270	0	0
2024-08-21 06:22:47			0	35360	0	0	0	27955	26610	166948	26982	1068307	46417	110378	0	0	7972	653574	0	0
2024-08-21 06:23:47			0	35284	0	0	0	27948	26610	167280	27275	1068325	46407	110375	0	0	7968	656901	0	0
2024-08-21 06:24:47			0	35169	0	0	0	27958	26610	167760	27308	1068325	46384	110379	0	0	7960	661959	0	0
2024-08-21 06:25:47			0	35082	0	0	0	27940	26590	168251	27286	1068190	46416	110372	0	0	7955	665881	0	0
2024-08-21 06:26:47			0	35009	0	0	0	27942	26590	168623	27102	1068208	46416	110373	0	0	7951	669121	0	0
2024-08-21 06:27:47			0	34935	0	0	0	27948	26580	168843	26743	1068199	46404	110375	0	0	7946	672456	0	0
2024-08-21 06:28:47			0	34867	0	0	0	27948	26580	169199	27159	1068163	46425	110375	0	0	7941	675496	0	0
2024-08-21 06:29:47			0	34824	0	0	0	27945	26570	169515	27041	1068181	46414	110374	0	0	7939	677463	0	0
2024-08-21 06:30:47			0	34765	0	0	0	27953	26570	169771	27066	1068181	46414	110377	0	0	7935	680115	0	0
2024-08-21 06:31:47			0	34732	0	0	0	27955	26570	169955	26972	1068235	46436	110378	0	0	7933	681602	0	0
2024-08-21 06:32:47			0	34702	0	0	0	27958	26570	170055	27140	1068199	46425	110379	0	0	7931	682956	0	0
2024-08-21 06:33:47			0	34670	0	0	0	27953	26570	170223	26719	1068226	46414	110377	0	0	7929	684402	0	0
2024-08-21 06:34:47			0	34688	0	0	0	27974	26560	170323	27168	1068244	46424	110385	0	0	7929	683628	0	0
2024-08-21 06:35:47			0	34688	0	0	0	27961	26570	170195	27171	1068262	46436	110380	0	0	7930	683588	0	0
2024-08-21 06:36:47			0	34682	0	0	0	27950	26580	170219	26948	1068217	46414	110376	0	0	7930	683821	0	0
2024-08-21 06:37:47			0	34698	0	0	0	27953	26560	170199	27171	1068190	46424	110377	0	0	7930	683176	0	0
2024-08-21 06:38:47			0	34685	0	0	0	27948	26570	170263	26791	1068199	46414	110375	0	0	7930	683724	0	0
2024-08-21 06:39:47			0	34669	0	0	0	27950	26560	170347	27015	1068154	46422	110376	0	0	7929	684487	0	0
2024-08-21 06:40:47			0	34644	0	0	0	27958	26570	170435	26738	1068199	46425	110379	0	0	7927	685579	0	0
2024-08-21 06:41:47			0	34628	0	0	0	27963	26560	170523	27126	1068163	46413	110381	0	0	7926	686343	0	0
2024-08-21 06:42:47			0	34615	0	0	0	27966	26570	170579	27048	1068226	46425	110382	0	0	7925	686894	0	0
2024-08-21 06:43:47			0	34646	0	0	0	27922	26560	170415	27131	1068181	46422	110365	0	0	7928	685528	0	0
2024-08-21 06:44:47			0	34658	0	0	0	27916	26560	170247	27324	1068128	46412	110363	0	0	7928	684984	0	0
2024-08-21 06:45:47			0	34662	0	0	0	27903	26550	170331	26955	1068083	46411	110358	0	0	7929	684843	0	0
2024-08-21 06:46:47			0	34627	0	0	0	27909	26550	170427	27118	1068002	46421	110360	0	0	7927	686428	0	0
2024-08-21 06:47:47			0	34596	0	0	0	27929	26540	170715	27038	1068074	46411	110368	0	0	7924	687874	0	0
2024-08-21 06:48:47			0	34567	0	0	0	27963	26550	170835	26981	1068136	46411	110381	0	0	7922	689152	0	0
2024-08-21 06:49:47			0	34574	0	0	0	27955	26540	170699	27232	1068145	46421	110378	0	0	7922	688874	0	0
2024-08-21 06:50:47			0	34598	0	0	0	27955	26540	170771	27300	1068181	46433	110378	0	0	7924	687783	0	0
2024-08-21 06:51:47			0	34638	0	0	0	27955	26550	170639	26994	1068172	46434	110378	0	0	7926	685930	0	0
2024-08-21 06:52:47			0	34654	0	0	0	27940	26560	170543	26974	1068128	46422	110372	0	0	7928	685166	0	0
2024-08-21 06:53:47			0	34668	0	0	0	27919	26540	170355	27229	1068074	46411	110364	0	0	7929	684610	0	0
2024-08-21 06:54:47			0	34679	0	0	0	27919	26540	170383	26974	1068047	46421	110364	0	0	7930	684113	0	0
2024-08-21 06:55:47			0	34678	0	0	0	27922	26540	170415	27095	1068091	46421	110365	0	0	7930	684158	0	0
2024-08-21 06:56:47			0	34669	0	0	0	27932	26550	170487	27001	1068056	46400	110369	0	0	7929	684526	0	0
2024-08-21 06:57:47			0	34649	0	0	0	27929	26540	170563	26844	1068091	46421	110368	0	0	7928	685470	0	0
2024-08-21 06:58:47			0	34653	0	0	0	27950	26530	170527	26752	1068055	46442	110376	0	0	7927	685328	0	0
2024-08-21 06:59:47			0	34626	0	0	0	27940	26550	170575	26866	1068172	46412	110372	0	0	7926	686473	0	0
2024-08-21 07:00:47			0	34655	0	0	0	27963	26550	170483	26795	1068163	46433	110381	0	0	7927	685160	0	0
2024-08-21 07:01:47			0	34674	0	0	0	27966	26550	170407	27140	1068145	46434	110382	0	0	7929	684300	0	0
2024-08-21 07:02:47			0	34715	0	0	0	27955	26550	170275	27059	1068190	46421	110378	0	0	7931	682447	0	0
2024-08-21 07:03:47			0	34736	0	0	0	27955	26560	169975	26868	1068181	46422	110378	0	0	7933	681461	0	0
2024-08-21 07:04:47			0	34782	0	0	0	27971	26560	169875	26892	1068181	46434	110384	0	0	7935	679389	0	0
2024-08-21 07:05:47			0	34794	0	0	0	27945	26550	169747	27149	1068199	46422	110374	0	0	7937	678889	0	0
2024-08-21 07:06:47			0	34820	0	0	0	27929	26550	169671	26974	1068119	46422	110368	0	0	7939	677720	0	0
2024-08-21 07:07:47			0	34854	0	0	0	27958	26550	169547	27189	1068136	46421	110379	0	0	7940	676195	0	0
2024-08-21 07:08:47			0	34848	0	0	0	27955	26550	169527	27081	1068163	46433	110378	0	0	7940	676464	0	0
2024-08-21 07:09:47			0	34856	0	0	0	27966	26550	169427	27196	1068145	46422	110382	0	0	7940	676105	0	0
2024-08-21 07:10:47			0	34844	0	0	0	27966	26550	169411	27118	1068199	46422	110382	0	0	7939	676643	0	0
2024-08-21 07:11:47			0	34871	0	0	0	27955	26560	169407	27159	1068235	46434	110378	0	0	7941	675395	0	0
2024-08-21 07:12:47			0	34868	0	0	0	27953	26560	169307	27405	1068154	46434	110377	0	0	7941	675529	0	0
2024-08-21 07:13:47			0	34892	0	0	0	27945	26550	169351	27067	1068145	46412	110374	0	0	7943	674493	0	0
2024-08-21 07:14:47			0	34912	0	0	0	27955	26550	169203	27287	1068199	46422	110378	0	0	7944	673599	0	0
2024-08-21 07:15:47			0	34924	0	0	0	27958	26550	169159	27197	1068172	46422	110379	0	0	7945	673063	0	0
2024-08-21 07:16:47			0	34936	0	0	0	27948	26550	168907	26887	1068199	46434	110375	0	0	7946	672527	0	0
2024-08-21 07:17:47			0	34944	0	0	0	27979	26560	169011	26942	1068208	46422	110387	0	0	7946	672132	0	0
2024-08-21 07:18:47			0	34956	0	0	0	27963	26560	168987	26729	1068208	46434	110381	0	0	7947	671596	0	0
2024-08-21 07:19:47			0	34972	0	0	0	27981	26560	168871	27213	1068217	46435	110388	0	0	7947	670883	0	0
2024-08-21 07:20:47			0	34995	0	0	0	27989	26560	168783	27241	1068271	46424	110391	0	0	7949	669859	0	0
2024-08-21 07:21:47			0	35017	0	0	0	27979	26560	168751	26890	1068262	46422	110387	0	0	7950	668880	0	0
2024-08-21 07:22:47			0	35030	0	0	0	27981	26560	168495	27183	1068217	46424	110388	0	0	7951	668303	0	0
2024-08-21 07:23:47			0	35054	0	0	0	27981	26570	168623	27192	1068316	46436	110388	0	0	7953	667199	0	0
2024-08-21 07:24:47			0	35069	0	0	0	27971	26570	168503	26909	1068307	46436	110384	0	0	7954	666533	0	0
2024-08-21 07:25:47			0	35082	0	0	0	27976	26570	168371	27137	1068280	46414	110386	0	0	7954	665957	0	0
2024-08-21 07:26:47			0	35099	0	0	0	27979	26570	168324	27131	1068262	46425	110387	0	0	7956	665204	0	0
2024-08-21 07:27:47			0	35117	0	0	0	27984	26570	168176	27116	1068289	46425	110389	0	0	7957	664408	0	0
2024-08-21 07:28:47			0	35114	0	0	0	27976	26570	168116	26790	1068280	46425	110386	0	0	7957	664540	0	0
2024-08-21 07:29:47			0	35133	0	0	0	27961	26570	167984	27163	1068316	46436	110380	0	0	7958	663700	0	0
2024-08-21 07:30:47			0	35154	0	0	0	27942	26580	168052	27173	1068217	46414	110373	0	0	7960	662735	0	0
2024-08-21 07:31:47			0	35154	0	0	0	27919	26570	168080	27034	1068226	46425	110364	0	0	7960	662773	0	0
2024-08-21 07:32:47			0	35159	0	0	0	27916	26550	167988	26908	1068092	46401	110363	0	0	7960	662628	0	0
2024-08-21 07:33:47			0	35154	0	0	0	27911	26560	167960	27222	1068181	46401	110361	0	0	7960	662810	0	0
2024-08-21 07:34:47			0	35157	0	0	0	27914	26540	168016	27145	1068074	46411	110362	0	0	7960	662754	0	0
2024-08-21 07:35:47			0	35134	0	0	0	27940	26550	168040	27095	1068110	46400	110372	0	0	7958	663732	0	0
2024-08-21 07:36:47			0	35141	0	0	0	27948	26540	167972	27102	1068118	46410	110375	0	0	7959	663461	0	0
2024-08-21 07:37:47			0	35119	0	0	0	27945	26550	168056	26769	1068190	46421	110374	0	0	7957	664395	0	0
2024-08-21 07:38:47			0	35111	0	0	0	27945	26550	168043	26896	1068190	46421	110374	0	0	7957	664749	0	0
2024-08-21 07:39:47			0	35124	0	0	0	27942	26550	168020	27050	1068136	46433	110373	0	0	7958	664174	0	0
2024-08-21 07:40:47			0	35113	0	0	0	27940	26540	168028	27130	1068154	46421	110372	0	0	7957	664699	0	0
2024-08-21 07:41:47			0	35127	0	0	0	27948	26550	168092	27157	1068145	46412	110375	0	0	7958	664041	0	0
2024-08-21 07:42:47			0	35120	0	0	0	27961	26550	168176	27152	1068172	46434	110380	0	0	7957	664351	0	0
2024-08-21 07:43:47			0	35106	0	0	0	27968	26550	168192	27227	1068199	46422	110383	0	0	7956	664970	0	0
2024-08-21 07:44:47			0	35112	0	0	0	27974	26560	168168	27029	1068262	46434	110385	0	0	7956	664667	0	0
2024-08-21 07:45:47			0	35101	0	0	0	27929	26550	168143	27126	1068226	46434	110368	0	0	7956	665192	0	0
2024-08-21 07:46:47			0	35111	0	0	0	27950	26550	167895	27100	1068136	46411	110376	0	0	7957	664749	0	0
2024-08-21 07:47:47			0	35145	0	0	0	27953	26550	168084	27215	1068172	46422	110377	0	0	7959	663246	0	0
2024-08-21 07:48:47			0	35159	0	0	0	27963	26550	168016	27326	1068172	46422	110381	0	0	7959	662628	0	0
2024-08-21 07:49:47			0	35158	0	0	0	27989	26570	167884	27121	1068253	46436	110391	0	0	7959	662596	0	0
2024-08-21 07:50:47			0	35194	0	0	0	27984	26560	167812	27130	1068289	46434	110389	0	0	7961	661046	0	0
2024-08-21 07:51:47			0	35191	0	0	0	27986	26560	167820	27130	1068271	46424	110390	0	0	7961	661178	0	0
2024-08-21 07:52:47			0	35201	0	0	0	27976	26570	167732	27059	1068289	46436	110386	0	0	7962	660700	0	0
2024-08-21 07:53:47			0	35244	0	0	0	27986	26570	167572	27119	1068334	46436	110390	0	0	7964	658808	0	0
2024-08-21 07:54:47			0	35259	0	0	0	27984	26580	167572	27277	1068298	46436	110389	0	0	7966	658111	0	0
2024-08-21 07:55:47			0	35324	0	0	0	27974	26570	167192	27019	1068343	46436	110385	0	0	7970	655298	0	0
2024-08-21 07:56:47			0	35377	0	0	0	27971	26570	167012	27194	1068307	46425	110384	0	0	7973	652981	0	0
2024-08-21 07:57:47			0	35402	0	0	0	27968	26580	166836	27088	1068325	46436	110383	0	0	7975	651852	0	0
2024-08-21 07:58:47			0	35434	0	0	0	27974	26570	166724	27107	1068307	46436	110385	0	0	7977	650495	0	0
2024-08-21 07:59:47			0	35456	0	0	0	27979	26570	166560	26982	1068289	46425	110387	0	0	7978	649537	0	0
2024-08-21 08:00:47			0	35476	0	0	0	27989	26570	166520	27123	1068307	46436	110391	0	0	7979	648668	0	0
2024-08-21 08:01:47			0	35497	0	0	0	27992	26580	166488	27183	1068298	46425	110392	0	0	7980	647719	0	0
2024-08-21 08:02:47			0	35520	0	0	0	27989	26590	166316	26968	1068316	46438	110391	0	0	7982	646684	0	0
2024-08-21 08:03:47			0	35501	0	0	0	27984	26590	166336	27189	1068396	46416	110389	0	0	7981	647508	0	0
2024-08-21 08:04:47			0	35522	0	0	0	27999	26580	166220	27105	1068352	46436	110395	0	0	7982	646634	0	0
2024-08-21 08:05:47			0	35523	0	0	0	27994	26590	166304	27118	1068343	46427	110393	0	0	7982	646554	0	0
2024-08-21 08:06:47			0	35538	0	0	0	27986	26580	166236	26986	1068387	46426	110390	0	0	7983	645941	0	0
2024-08-21 08:07:47			0	35542	0	0	0	27981	26580	166204	27116	1068352	46414	110388	0	0	7983	645767	0	0
2024-08-21 08:08:47			0	35561	0	0	0	27994	26590	166088	26946	1068316	46427	110393	0	0	7984	644908	0	0
2024-08-21 08:09:47			0	35555	0	0	0	27992	26590	166104	27182	1068423	46416	110392	0	0	7984	645167	0	0
2024-08-21 08:10:47			0	35562	0	0	0	27992	26580	166036	27204	1068334	46437	110392	0	0	7984	644901	0	0
2024-08-21 08:11:47			0	35580	0	0	0	27984	26580	166112	27048	1068307	46426	110389	0	0	7985	644123	0	0
2024-08-21 08:12:47			0	35571	0	0	0	27986	26580	165980	27052	1068325	46436	110390	0	0	7985	644512	0	0
2024-08-21 08:13:47			0	35571	0	0	0	27976	26590	165968	26928	1068396	46427	110386	0	0	7985	644475	0	0
2024-08-21 08:14:47			0	35584	0	0	0	27968	26590	165932	27180	1068343	46438	110383	0	0	7986	643913	0	0
2024-08-21 08:15:47			0	35580	0	0	0	27989	26590	165912	26953	1068379	46427	110391	0	0	7985	644086	0	0
2024-08-21 08:16:47			0	35606	0	0	0	27997	26570	165860	27244	1068369	46425	110394	0	0	7987	643036	0	0
2024-08-21 08:17:47			0	35597	0	0	0	28007	26580	165836	26918	1068387	46426	110398	0	0	7986	643388	0	0
2024-08-21 08:18:47			0	35590	0	0	0	27999	26590	165872	27038	1068405	46438	110395	0	0	7986	643654	0	0
2024-08-21 08:19:47			0	35606	0	0	0	27994	26590	165944	26719	1068352	46438	110393	0	0	7987	642963	0	0
2024-08-21 08:20:47			0	35596	0	0	0	27961	26590	165740	26953	1068396	46416	110380	0	0	7987	643394	0	0
2024-08-21 08:21:47			0	35615	0	0	0	27955	26590	165764	27071	1068289	46416	110378	0	0	7988	642574	0	0
2024-08-21 08:22:47			0	35631	0	0	0	27945	26580	165624	27121	1068307	46415	110374	0	0	7989	641921	0	0
2024-08-21 08:23:47			0	35655	0	0	0	27942	26580	165640	26785	1068298	46425	110373	0	0	7991	640886	0	0
2024-08-21 08:24:47			0	35661	0	0	0	27948	26570	165556	27358	1068262	46425	110375	0	0	7991	640664	0	0
2024-08-21 08:25:47			0	35660	0	0	0	27974	26570	165620	26953	1068280	46425	110385	0	0	7991	640707	0	0
2024-08-21 08:26:47			0	35657	0	0	0	27979	26570	165680	26816	1068307	46414	110387	0	0	7990	640837	0	0
2024-08-21 08:27:47			0	35667	0	0	0	27979	26580	165688	26909	1068271	46425	110387	0	0	7991	640369	0	0
2024-08-21 08:28:47			0	35652	0	0	0	27984	26590	165620	27124	1068316	46427	110389	0	0	7990	640979	0	0
2024-08-21 08:29:47			0	35662	0	0	0	27986	26580	165584	27145	1068325	46436	110390	0	0	7990	640585	0	0
2024-08-21 08:30:47			0	35668	0	0	0	27974	26570	165496	27055	1068316	46425	110385	0	0	7991	640363	0	0
2024-08-21 08:31:47			0	35667	0	0	0	27986	26580	165436	27282	1068405	46425	110390	0	0	7991	640369	0	0
2024-08-21 08:32:47			0	35678	0	0	0	27994	26580	165544	26892	1068414	46426	110393	0	0	7991	639896	0	0
2024-08-21 08:33:47			0	35688	0	0	0	27986	26580	165636	27353	1068352	46436	110390	0	0	7992	639466	0	0
2024-08-21 08:34:47			0	35680	0	0	0	27989	26580	165548	27104	1068307	46448	110391	0	0	7992	639810	0	0
2024-08-21 08:35:47			0	35667	0	0	0	27997	26590	165496	26902	1068379	46438	110394	0	0	7991	640333	0	0
2024-08-21 08:36:47			0	35669	0	0	0	28005	26590	165588	26857	1068423	46438	110397	0	0	7991	640247	0	0
2024-08-21 08:37:47			0	35675	0	0	0	28007	26600	165568	26989	1068414	46438	110398	0	0	7991	639952	0	0
2024-08-21 08:38:47			0	35662	0	0	0	28020	26590	165636	27232	1068423	46449	110403	0	0	7990	640548	0	0
2024-08-21 08:39:47			0	35680	0	0	0	28015	26600	165640	27279	1068388	46427	110401	0	0	7991	639737	0	0
2024-08-21 08:40:47			0	35694	0	0	0	28018	26590	165436	27307	1068423	46438	110402	0	0	7992	639171	0	0
2024-08-21 08:41:47			0	35691	0	0	0	28025	26600	165452	27194	1068441	46438	110405	0	0	7992	639263	0	0
2024-08-21 08:42:47			0	35707	0	0	0	28028	26600	165456	27081	1068468	46449	110406	0	0	7993	638576	0	0
2024-08-21 08:43:47			0	35711	0	0	0	28025	26610	165404	26922	1068540	46428	110405	0	0	7993	638368	0	0
2024-08-21 08:44:47			0	35736	0	0	0	28025	26600	165296	26996	1068477	46428	110405	0	0	7994	637331	0	0
2024-08-21 08:45:47			0	35747	0	0	0	28031	26600	165328	27176	1068558	46439	110407	0	0	7995	636859	0	0
2024-08-21 08:46:47			0	35753	0	0	0	28036	26610	165292	26956	1068594	46428	110409	0	0	7995	636565	0	0
2024-08-21 08:47:47			0	35785	0	0	0	28036	26600	165096	27211	1068504	46428	110409	0	0	7997	635231	0	0
2024-08-21 08:48:47			0	35791	0	0	0	28033	26610	165196	27178	1068522	46428	110408	0	0	7998	634938	0	0
2024-08-21 08:49:47			0	35823	0	0	0	28028	26610	165060	27156	1068513	46428	110406	0	0	8000	633570	0	0
2024-08-21 08:50:47			0	35836	0	0	0	28018	26620	164820	27097	1068531	46440	110402	0	0	8001	632978	0	0
2024-08-21 08:51:47			0	35851	0	0	0	28028	26620	164752	27246	1068585	46417	110406	0	0	8002	632338	0	0
2024-08-21 08:52:47			0	35860	0	0	0	28033	26610	164705	27260	1068576	46417	110408	0	0	8002	631991	0	0
2024-08-21 08:53:47			0	35890	0	0	0	28049	26620	164649	27390	1068612	46417	110414	0	0	8004	630676	0	0
2024-08-21 08:54:47			0	35899	0	0	0	28028	26620	164553	26897	1068621	46418	110406	0	0	8004	630293	0	0
2024-08-21 08:55:47			0	35907	0	0	0	28038	26620	164553	27348	1068585	46428	110410	0	0	8005	629953	0	0
2024-08-21 08:56:47			0	35925	0	0	0	28072	26630	164417	27263	1068630	46442	110423	0	0	8005	629151	0	0
2024-08-21 08:57:47			0	35912	0	0	0	28070	26630	164497	27123	1068710	46442	110422	0	0	8005	629704	0	0
2024-08-21 08:58:47			0	35951	0	0	0	28116	26650	164341	27327	1068854	46444	110440	0	0	8006	627975	0	0
2024-08-21 08:59:47			0	36009	0	0	0	28109	26650	164097	26906	1068800	46433	110437	0	0	8010	625516	0	0
2024-08-21 09:00:47			0	36095	0	0	0	28093	26660	163653	27326	1068863	46422	110431	0	0	8015	621848	0	0
2024-08-21 09:01:47			0	36202	0	0	0	28083	26670	163373	27190	1068800	46445	110427	0	0	8022	617314	0	0
2024-08-21 09:02:47			0	36248	0	0	0	28106	26670	162933	27031	1068863	46457	110436	0	0	8025	615387	0	0
2024-08-21 09:03:47			0	36282	0	0	0	28106	26670	162821	27088	1068908	46434	110436	0	0	8027	613965	0	0
2024-08-21 09:04:47			0	36330	0	0	0	28129	26680	162705	27182	1068989	46447	110445	0	0	8029	611927	0	0
2024-08-21 09:05:47			0	36356	0	0	0	28166	26690	162577	27145	1069087	46436	110459	0	0	8030	610809	0	0
2024-08-21 09:06:47			0	36426	0	0	0	28179	26700	162209	27187	1069078	46460	110464	0	0	8034	607866	0	0
2024-08-21 09:07:47			0	36514	0	0	0	28181	26710	161793	27159	1069177	46450	110465	0	0	8039	604188	0	0
2024-08-21 09:08:47			0	36645	0	0	0	28192	26720	161214	26942	1069240	46461	110469	0	0	8047	598759	0	0
2024-08-21 09:09:47			0	36770	0	0	0	28202	26730	160822	26960	1069204	46452	110473	0	0	8054	593608	0	0
2024-08-21 09:10:47			0	36846	0	0	0	28210	26730	160422	26897	1069240	46452	110476	0	0	8059	590512	0	0
2024-08-21 09:11:47			0	36924	0	0	0	28202	26740	160090	26870	1069339	46454	110473	0	0	8064	587312	0	0
2024-08-21 09:12:47			0	36982	0	0	0	28212	26760	159914	27317	1069312	46455	110477	0	0	8067	584898	0	0
2024-08-21 09:13:47			0	37008	0	0	0	28220	26760	159670	26993	1069401	46466	110480	0	0	8068	583848	0	0
2024-08-21 09:14:47			0	37040	0	0	0	28210	26760	159538	26961	1069366	46455	110476	0	0	8070	582558	0	0
2024-08-21 09:15:47			0	37046	0	0	0	28218	26770	159562	27029	1069393	46446	110479	0	0	8071	582283	0	0
2024-08-21 09:16:47			0	37079	0	0	0	28207	26780	159446	27208	1069402	46457	110475	0	0	8073	580921	0	0
2024-08-21 09:17:47			0	37101	0	0	0	28207	26780	159202	27121	1069428	46446	110475	0	0	8074	580037	0	0
2024-08-21 09:18:47			0	37104	0	0	0	28225	26780	159314	26840	1069464	46458	110482	0	0	8074	579916	0	0
2024-08-21 09:19:47			0	37129	0	0	0	28220	26780	159202	26948	1069482	46457	110480	0	0	8076	578912	0	0
2024-08-21 09:20:47			0	37108	0	0	0	28207	26790	159234	27020	1069402	46436	110475	0	0	8075	579722	0	0
2024-08-21 09:21:47			0	37118	0	0	0	28189	26790	159234	27260	1069473	46458	110468	0	0	8075	579321	0	0
2024-08-21 09:22:47			0	37115	0	0	0	28192	26790	159226	26941	1069446	46448	110469	0	0	8075	579441	0	0
2024-08-21 09:23:47			0	37126	0	0	0	28199	26790	159198	27145	1069420	46436	110472	0	0	8076	579000	0	0
2024-08-21 09:24:47			0	37106	0	0	0	28218	26800	159210	27405	1069465	46458	110479	0	0	8074	579770	0	0
2024-08-21 09:25:47			0	37112	0	0	0	28223	26790	159210	27055	1069483	46458	110481	0	0	8075	579562	0	0
2024-08-21 09:26:47			0	37128	0	0	0	28228	26790	159226	27121	1069473	46458	110483	0	0	8075	578920	0	0
2024-08-21 09:27:47			0	37119	0	0	0	28225	26800	159238	27189	1069545	46436	110482	0	0	8075	579248	0	0
2024-08-21 09:28:47			0	37123	0	0	0	28233	26800	159194	27071	1069572	46458	110485	0	0	8075	579087	0	0
2024-08-21 09:29:47			0	37105	0	0	0	28225	26810	159154	27341	1069563	46460	110482	0	0	8074	579777	0	0
2024-08-21 09:30:47			0	37105	0	0	0	28236	26810	159158	26989	1069599	46460	110486	0	0	8074	579777	0	0
2024-08-21 09:31:47			0	37105	0	0	0	28233	26810	159178	27027	1069572	46450	110485	0	0	8074	579777	0	0
2024-08-21 09:32:47			0	37107	0	0	0	28236	26820	159150	26955	1069608	46450	110486	0	0	8074	579663	0	0
2024-08-21 09:33:47			0	37134	0	0	0	28238	26810	159110	26722	1069599	46460	110487	0	0	8076	578612	0	0
2024-08-21 09:34:47			0	37122	0	0	0	28251	26820	159134	27204	1069555	46460	110492	0	0	8075	579061	0	0
2024-08-21 09:35:47			0	37122	0	0	0	28251	26820	159094	27268	1069617	46461	110492	0	0	8075	579061	0	0
2024-08-21 09:36:47			0	37138	0	0	0	28257	26820	159070	26922	1069671	46451	110494	0	0	8076	578419	0	0
2024-08-21 09:37:47			0	37119	0	0	0	28254	26840	159118	26961	1069644	46463	110493	0	0	8075	579115	0	0
2024-08-21 09:38:47			0	37121	0	0	0	28259	26830	159174	26986	1069680	46452	110495	0	0	8075	579068	0	0
2024-08-21 09:39:47			0	37129	0	0	0	28246	26830	159118	27090	1069716	46473	110490	0	0	8075	578747	0	0
2024-08-21 09:40:47			0	37123	0	0	0	28249	26840	159050	27085	1069725	46463	110491	0	0	8075	578954	0	0
2024-08-21 09:41:47			0	37138	0	0	0	28257	26840	159158	27197	1069725	46452	110494	0	0	8076	578353	0	0
2024-08-21 09:42:47			0	37136	0	0	0	28264	26840	158982	26826	1069734	46452	110497	0	0	8075	578433	0	0
2024-08-21 09:43:47			0	37141	0	0	0	28262	26840	158906	26712	1069752	46452	110496	0	0	8076	578232	0	0
2024-08-21 09:44:47			0	37154	0	0	0	28275	26840	158882	26991	1069707	46441	110501	0	0	8076	577711	0	0
2024-08-21 09:45:47			0	37168	0	0	0	28264	26840	158886	26852	1069788	46452	110497	0	0	8077	577151	0	0
2024-08-21 09:46:47			0	37161	0	0	0	28280	26840	158890	26866	1069734	46463	110503	0	0	8077	577431	0	0
2024-08-21 09:47:47			0	37161	0	0	0	28275	26850	158978	26972	1069770	46464	110501	0	0	8077	577398	0	0
2024-08-21 09:48:47			0	37147	0	0	0	28285	26850	158946	27216	1069806	46465	110505	0	0	8076	577959	0	0
2024-08-21 09:49:47			0	37152	0	0	0	28298	26860	158826	26727	1069842	46455	110510	0	0	8076	577725	0	0
2024-08-21 09:50:47			0	37155	0	0	0	28290	26860	158890	27118	1069869	46476	110507	0	0	8076	577605	0	0
2024-08-21 09:51:47			0	37202	0	0	0	28301	26860	158770	27104	1069878	46465	110511	0	0	8079	575724	0	0
2024-08-21 09:52:47			0	37198	0	0	0	28293	26870	158602	27216	1069922	46457	110508	0	0	8079	575851	0	0
2024-08-21 09:53:47			0	37218	0	0	0	28288	26860	158510	26635	1069904	46465	110506	0	0	8080	575085	0	0
2024-08-21 09:54:47			0	37214	0	0	0	28298	26870	158606	27149	1069922	46467	110510	0	0	8080	575212	0	0
2024-08-21 09:55:47			0	37226	0	0	0	28290	26880	158550	27036	1069878	46445	110507	0	0	8081	574700	0	0
2024-08-21 09:56:47			0	37232	0	0	0	28283	26880	158494	27183	1069940	46467	110504	0	0	8081	574460	0	0
2024-08-21 09:57:47			0	37257	0	0	0	28306	26880	158454	27145	1069967	46467	110513	0	0	8082	573463	0	0
2024-08-21 09:58:47			0	37258	0	0	0	28311	26880	158450	27112	1069967	46467	110515	0	0	8082	573423	0	0
2024-08-21 09:59:47			0	37258	0	0	0	28322	26870	158506	27157	1070003	46445	110519	0	0	8082	573456	0	0
2024-08-21 10:00:47			0	37255	0	0	0	28324	26890	158478	27140	1070039	46480	110520	0	0	8082	573510	0	0
2024-08-21 10:01:47			0	37258	0	0	0	28319	26900	158390	27372	1070021	46458	110518	0	0	8082	573357	0	0
2024-08-21 10:02:47			0	37251	0	0	0	28319	26900	158482	26873	1070048	46469	110518	0	0	8082	573636	0	0
2024-08-21 10:03:47			0	37259	0	0	0	28319	26880	158454	27124	1070021	46467	110518	0	0	8082	573383	0	0
2024-08-21 10:04:47			0	37273	0	0	0	28327	26910	158426	26790	1070039	46470	110521	0	0	8083	572727	0	0
2024-08-21 10:05:47			0	37285	0	0	0	28329	26910	158282	27145	1070022	46471	110522	0	0	8083	572249	0	0
2024-08-21 10:06:47			0	37280	0	0	0	28327	26900	158314	26899	1070030	46470	110521	0	0	8083	572481	0	0
2024-08-21 10:07:47			0	37291	0	0	0	28324	26910	158438	27060	1070093	46448	110520	0	0	8084	572010	0	0
2024-08-21 10:08:47			0	37281	0	0	0	28329	26910	158378	27078	1070102	46449	110522	0	0	8083	572408	0	0
2024-08-21 10:09:47			0	37280	0	0	0	28314	26920	158218	26961	1070165	46460	110516	0	0	8083	572415	0	0
2024-08-21 10:10:47			0	37291	0	0	0	28329	26910	158338	27093	1070102	46460	110522	0	0	8084	572010	0	0
2024-08-21 10:11:47			0	37288	0	0	0	28319	26920	158286	26693	1070138	46449	110518	0	0	8084	572097	0	0
2024-08-21 10:12:47			0	37305	0	0	0	28327	26920	158186	26842	1070094	46461	110521	0	0	8085	571420	0	0
2024-08-21 10:13:47			0	37298	0	0	0	28327	26910	158210	26857	1070102	46449	110521	0	0	8084	571731	0	0
2024-08-21 10:14:47			0	37300	0	0	0	28329	26920	158166	26928	1070120	46450	110522	0	0	8084	571619	0	0
2024-08-21 10:15:47			0	37293	0	0	0	28335	26920	158214	26982	1070094	46450	110524	0	0	8084	571898	0	0
2024-08-21 10:16:47			0	37316	0	0	0	28332	26920	158151	27052	1070138	46460	110523	0	0	8085	570983	0	0
2024-08-21 10:17:47			0	37315	0	0	0	28337	26920	158147	26838	1070147	46472	110525	0	0	8085	571023	0	0
2024-08-21 10:18:47			0	37300	0	0	0	28340	26920	158210	26981	1070147	46461	110526	0	0	8084	571619	0	0
2024-08-21 10:19:47			0	37318	0	0	0	28342	26920	158299	26838	1070138	46449	110527	0	0	8085	570903	0	0
2024-08-21 10:20:47			0	37316	0	0	0	28342	26930	158191	27048	1070156	46472	110527	0	0	8085	570950	0	0
2024-08-21 10:21:47			0	37314	0	0	0	28350	26920	158235	27027	1070147	46461	110530	0	0	8085	571062	0	0
2024-08-21 10:22:47			0	37301	0	0	0	28355	26930	158134	26923	1070219	46462	110532	0	0	8084	571547	0	0
2024-08-21 10:23:47			0	37308	0	0	0	28355	26920	158178	27246	1070201	46450	110532	0	0	8084	571301	0	0
2024-08-21 10:24:47			0	37333	0	0	0	28350	26930	158043	27045	1070246	46462	110530	0	0	8086	570275	0	0
2024-08-21 10:25:47			0	37322	0	0	0	28345	26940	158159	26833	1070228	46474	110528	0	0	8085	570679	0	0
2024-08-21 10:26:47			0	37323	0	0	0	28335	26940	158042	27041	1070282	46463	110524	0	0	8086	570639	0	0
2024-08-21 10:27:47			0	37336	0	0	0	28332	26930	158091	27067	1070237	46472	110523	0	0	8086	570156	0	0
2024-08-21 10:28:47			0	37323	0	0	0	28348	26930	158083	27003	1070156	46461	110529	0	0	8085	570672	0	0
2024-08-21 10:29:47			0	37345	0	0	0	28345	26940	158075	27015	1070201	46452	110528	0	0	8087	569766	0	0
2024-08-21 10:30:47			0	37339	0	0	0	28345	26940	158135	27144	1070201	46452	110528	0	0	8086	570004	0	0
2024-08-21 10:31:47			0	37321	0	0	0	28348	26950	158182	26757	1070183	46463	110529	0	0	8085	570686	0	0
2024-08-21 10:32:47			0	37319	0	0	0	28348	26940	158139	27052	1070255	46463	110529	0	0	8085	570798	0	0
2024-08-21 10:33:47			0	37327	0	0	0	28358	26940	158119	27008	1070309	46463	110533	0	0	8086	570480	0	0
2024-08-21 10:34:47			0	37324	0	0	0	28355	26940	158107	26942	1070282	46463	110532	0	0	8085	570599	0	0
2024-08-21 10:35:47			0	37320	0	0	0	28361	26950	158159	27003	1070327	46464	110534	0	0	8085	570726	0	0
2024-08-21 10:36:47			0	37340	0	0	0	28374	26950	158031	26738	1070237	46474	110539	0	0	8086	569931	0	0
2024-08-21 10:37:47			0	37334	0	0	0	28371	26950	158083	26769	1070327	46475	110538	0	0	8086	570170	0	0
2024-08-21 10:38:47			0	37324	0	0	0	28418	26960	158003	27208	1070336	46475	110556	0	0	8084	570534	0	0
2024-08-21 10:39:47			0	37342	0	0	0	28420	26970	158043	26804	1070488	46476	110557	0	0	8086	569787	0	0
2024-08-21 10:40:47			0	37364	0	0	0	28425	26980	158055	27076	1070515	46467	110559	0	0	8087	568881	0	0
2024-08-21 10:41:47			0	37364	0	0	0	28423	26980	157979	27064	1070587	46477	110558	0	0	8087	568881	0	0
2024-08-21 10:42:47			0	37360	0	0	0	28446	27000	158099	26965	1070650	46479	110567	0	0	8086	568975	0	0
2024-08-21 10:43:47			0	37387	0	0	0	28446	27010	158059	27026	1070668	46491	110567	0	0	8088	567872	0	0
2024-08-21 10:44:47			0	37389	0	0	0	28441	27010	158059	27074	1070641	46480	110565	0	0	8088	567793	0	0
2024-08-21 10:45:47			0	37375	0	0	0	28420	27010	157983	27005	1070597	46492	110557	0	0	8088	568347	0	0
2024-08-21 10:46:47			0	37383	0	0	0	28410	27020	157919	27220	1070606	46471	110553	0	0	8088	567998	0	0
2024-08-21 10:47:47			0	37388	0	0	0	28433	27020	157815	26932	1070686	46471	110562	0	0	8088	567800	0	0
2024-08-21 10:48:47			0	37387	0	0	0	28451	27020	157867	26939	1070659	46482	110569	0	0	8088	567839	0	0
2024-08-21 10:49:47			0	37413	0	0	0	28449	27020	157803	26944	1070821	46471	110568	0	0	8089	566811	0	0
2024-08-21 10:50:47			0	37426	0	0	0	28457	27020	157695	27166	1070767	46471	110571	0	0	8090	566297	0	0
2024-08-21 10:51:47			0	37439	0	0	0	28449	27030	157619	26648	1070794	46483	110568	0	0	8091	565750	0	0
2024-08-21 10:52:47			0	37459	0	0	0	28472	27040	157599	27052	1070839	46484	110577	0	0	8092	564928	0	0
2024-08-21 10:53:47			0	37469	0	0	0	28470	27040	157627	26731	1070830	46473	110576	0	0	8092	564534	0	0
2024-08-21 10:54:47			0	37475	0	0	0	28472	27040	157615	27007	1070803	46495	110577	0	0	8093	564297	0	0
2024-08-21 10:55:47			0	37451	0	0	0	28462	27040	157551	26616	1070803	46461	110573	0	0	8092	565244	0	0
2024-08-21 10:56:47			0	37493	0	0	0	28464	27040	157523	26897	1070839	46484	110574	0	0	8094	563587	0	0
2024-08-21 10:57:47			0	37473	0	0	0	28464	27050	157543	26772	1070857	46462	110574	0	0	8093	564343	0	0
2024-08-21 10:58:47			0	37463	0	0	0	28441	27060	157543	26762	1070821	46475	110565	0	0	8093	564706	0	0
2024-08-21 10:59:47			0	37464	0	0	0	28457	27050	157531	26651	1070929	46452	110571	0	0	8092	564698	0	0
2024-08-21 11:00:47			0	37459	0	0	0	28472	27060	157447	27024	1070893	46475	110577	0	0	8092	564863	0	0
2024-08-21 11:01:47			0	37463	0	0	0	28496	27060	157535	26772	1070920	46486	110586	0	0	8092	564706	0	0
2024-08-21 11:02:47			0	37460	0	0	0	28493	27050	157491	26779	1070938	46474	110585	0	0	8092	564856	0	0
2024-08-21 11:03:47			0	37455	0	0	0	28493	27060	157575	26663	1070974	46486	110585	0	0	8091	565021	0	0
2024-08-21 11:04:47			0	37465	0	0	0	28490	27070	157495	26798	1070992	46487	110584	0	0	8092	564594	0	0
2024-08-21 11:05:47			0	37483	0	0	0	28503	27080	157447	26844	1071064	46499	110589	0	0	8093	563852	0	0
2024-08-21 11:06:47			0	37463	0	0	0	28496	27080	157463	26875	1071073	46489	110586	0	0	8092	564641	0	0
2024-08-21 11:07:47			0	37462	0	0	0	28509	27080	157591	27199	1071037	46488	110591	0	0	8092	564680	0	0
2024-08-21 11:08:47			0	37481	0	0	0	28527	27090	157495	27175	1071171	46489	110598	0	0	8092	563899	0	0
2024-08-21 11:09:47			0	37459	0	0	0	28529	27100	157563	27289	1071100	46479	110599	0	0	8091	564734	0	0
2024-08-21 11:10:47			0	37463	0	0	0	28545	27090	157487	27196	1071171	46500	110605	0	0	8091	564608	0	0
2024-08-21 11:11:47			0	37483	0	0	0	28548	27100	157435	26941	1071189	46491	110606	0	0	8092	563787	0	0
2024-08-21 11:12:47			0	37477	0	0	0	28558	27110	157415	27246	1071198	46491	110610	0	0	8092	563992	0	0
2024-08-21 11:13:47			0	37483	0	0	0	28566	27120	157383	26713	1071297	46492	110613	0	0	8092	563723	0	0
2024-08-21 11:14:47			0	37478	0	0	0	28579	27130	157407	27027	1071315	46493	110618	0	0	8092	563887	0	0
2024-08-21 11:15:47			0	37501	0	0	0	28563	27140	157451	26972	1071306	46494	110612	0	0	8093	562949	0	0
2024-08-21 11:16:47			0	37475	0	0	0	28558	27140	157339	27144	1071333	46483	110610	0	0	8092	563973	0	0
2024-08-21 11:17:47			0	37492	0	0	0	28561	27130	157331	27033	1071378	46494	110611	0	0	8093	563336	0	0
2024-08-21 11:18:47			0	37492	0	0	0	28561	27140	157343	27041	1071396	46517	110611	0	0	8093	563304	0	0
2024-08-21 11:19:47			0	37499	0	0	0	28550	27150	157283	26963	1071324	46473	110607	0	0	8093	562996	0	0
2024-08-21 11:20:47			0	37517	0	0	0	28550	27150	157243	26632	1071360	46485	110607	0	0	8094	562287	0	0
2024-08-21 11:21:47			0	37516	0	0	0	28535	27140	157187	26965	1071333	46483	110601	0	0	8095	562359	0	0
2024-08-21 11:22:47			0	37543	0	0	0	28540	27150	157183	26800	1071360	46496	110603	0	0	8096	561265	0	0
2024-08-21 11:23:47			0	37517	0	0	0	28542	27150	157203	26989	1071405	46496	110604	0	0	8095	562287	0	0
2024-08-21 11:24:47			0	37559	0	0	0	28529	27140	157111	26982	1071262	46484	110599	0	0	8097	560669	0	0
2024-08-21 11:25:47			0	37547	0	0	0	28540	27150	157215	27168	1071333	46485	110603	0	0	8096	561108	0	0
2024-08-21 11:26:47			0	37543	0	0	0	28550	27160	157059	27062	1071342	46496	110607	0	0	8096	561233	0	0
2024-08-21 11:27:47			0	37549	0	0	0	28553	27160	157163	27090	1071369	46485	110608	0	0	8096	560997	0	0
2024-08-21 11:28:47			0	37548	0	0	0	28576	27160	157055	26889	1071423	46485	110617	0	0	8096	561036	0	0
2024-08-21 11:29:47			0	37541	0	0	0	28594	27160	157079	27211	1071352	46486	110624	0	0	8095	561311	0	0
2024-08-21 11:30:47			0	37543	0	0	0	28579	27170	157087	27078	1071495	46487	110618	0	0	8095	561201	0	0
2024-08-21 11:31:47			0	37548	0	0	0	28571	27170	157127	27019	1071495	46487	110615	0	0	8096	561004	0	0
2024-08-21 11:32:47			0	37544	0	0	0	28571	27170	157023	26987	1071468	46475	110615	0	0	8096	561161	0	0
2024-08-21 11:33:47			0	37545	0	0	0	28553	27170	157087	26752	1071477	46487	110608	0	0	8096	561122	0	0
2024-08-21 11:34:47			0	37555	0	0	0	28529	27170	156951	26932	1071424	46487	110599	0	0	8097	560729	0	0
2024-08-21 11:35:47			0	37543	0	0	0	28514	27170	156955	26819	1071388	46498	110593	0	0	8097	561201	0	0
2024-08-21 11:36:47			0	37566	0	0	0	28522	27170	157047	26948	1071334	46475	110596	0	0	8098	560297	0	0
2024-08-21 11:37:47			0	37573	0	0	0	28532	27160	156927	26882	1071342	46485	110600	0	0	8098	560055	0	0
2024-08-21 11:38:47			0	37573	0	0	0	28566	27160	156947	27092	1071379	46486	110613	0	0	8097	560055	0	0
2024-08-21 11:39:47			0	37561	0	0	0	28602	27160	156843	26878	1071504	46485	110627	0	0	8096	560526	0	0
2024-08-21 11:40:47			0	37573	0	0	0	28594	27170	156987	26896	1071576	46520	110624	0	0	8097	560023	0	0
2024-08-21 11:41:47			0	37565	0	0	0	28625	27180	156939	27086	1071630	46499	110636	0	0	8096	560305	0	0
2024-08-21 11:42:47			0	37573	0	0	0	28597	27180	156991	26965	1071684	46499	110625	0	0	8097	559991	0	0
2024-08-21 11:43:47			0	37572	0	0	0	28586	27200	156883	27144	1071657	46500	110621	0	0	8097	559966	0	0
2024-08-21 11:44:47			0	37589	0	0	0	28563	27200	156863	26686	1071639	46500	110612	0	0	8099	559299	0	0
2024-08-21 11:45:47			0	37604	0	0	0	28592	27200	156831	27142	1071666	46500	110623	0	0	8099	558711	0	0
2024-08-21 11:46:47			0	37606	0	0	0	28631	27200	156871	27287	1071720	46490	110638	0	0	8098	558633	0	0
2024-08-21 11:47:47			0	37593	0	0	0	28620	27210	156795	26963	1071783	46501	110634	0	0	8098	559110	0	0
2024-08-21 11:48:47			0	37616	0	0	0	28631	27220	156755	26876	1071747	46502	110638	0	0	8099	558177	0	0
2024-08-21 11:49:47			0	37607	0	0	0	28638	27230	156795	26842	1071810	46492	110641	0	0	8098	558498	0	0
2024-08-21 11:50:47			0	37611	0	0	0	28638	27220	156663	27417	1071774	46480	110641	0	0	8099	558373	0	0
2024-08-21 11:51:47			0	37623	0	0	0	28638	27230	156719	26979	1071819	46493	110641	0	0	8099	557871	0	0
2024-08-21 11:52:47			0	37633	0	0	0	28623	27230	156675	26961	1071845	46503	110635	0	0	8100	557480	0	0
2024-08-21 11:53:47			0	37629	0	0	0	28599	27230	156551	27166	1071756	46492	110626	0	0	8100	557637	0	0
2024-08-21 11:54:47			0	37635	0	0	0	28589	27240	156427	26916	1071774	46482	110622	0	0	8101	557370	0	0
2024-08-21 11:55:47			0	37643	0	0	0	28597	27230	156459	27343	1071729	46492	110625	0	0	8101	557089	0	0
2024-08-21 11:56:47			0	37644	0	0	0	28592	27220	156487	27026	1071693	46492	110623	0	0	8101	557082	0	0
2024-08-21 11:57:47			0	37657	0	0	0	28607	27210	156483	26824	1071738	46480	110629	0	0	8102	556606	0	0
2024-08-21 11:58:47			0	37651	0	0	0	28638	27230	156375	27196	1071845	46493	110641	0	0	8101	556776	0	0
2024-08-21 11:59:47			0	37654	0	0	0	28683	27240	156419	27265	1071828	46482	110658	0	0	8101	556627	0	0
2024-08-21 12:00:47			0	37651	0	0	0	28646	27240	156515	26996	1071828	46515	110644	0	0	8101	556744	0	0
2024-08-21 12:01:47			0	37645	0	0	0	28612	27240	156391	27196	1071810	46482	110631	0	0	8101	556979	0	0
2024-08-21 12:02:47			0	37666	0	0	0	28597	27240	156407	27424	1071837	46471	110625	0	0	8103	556159	0	0
2024-08-21 12:03:47			0	37672	0	0	0	28638	27240	156383	27098	1071810	46482	110641	0	0	8102	555924	0	0
2024-08-21 12:04:47			0	37680	0	0	0	28649	27240	156343	27109	1071810	46494	110645	0	0	8103	555612	0	0
2024-08-21 12:05:47			0	37673	0	0	0	28641	27240	156315	26842	1071810	46494	110642	0	0	8102	555885	0	0
2024-08-21 12:06:47			0	37676	0	0	0	28654	27240	156475	26769	1071855	46494	110647	0	0	8102	555768	0	0
2024-08-21 12:07:47			0	37674	0	0	0	28680	27250	156495	27020	1071962	46495	110657	0	0	8102	555814	0	0
2024-08-21 12:08:47			0	37692	0	0	0	28677	27250	156379	26935	1071989	46495	110656	0	0	8103	555112	0	0
2024-08-21 12:09:47			0	37694	0	0	0	28670	27270	156355	26981	1072043	46496	110653	0	0	8103	554970	0	0
2024-08-21 12:10:47			0	37700	0	0	0	28683	27260	156395	27201	1071927	46496	110658	0	0	8103	554768	0	0
2024-08-21 12:11:47			0	37680	0	0	0	28670	27270	156359	26875	1072043	46496	110653	0	0	8102	555516	0	0
2024-08-21 12:12:47			0	37700	0	0	0	28670	27260	156475	27384	1072034	46484	110653	0	0	8103	554768	0	0
2024-08-21 12:13:47			0	37710	0	0	0	28672	27270	156339	27008	1072070	46496	110654	0	0	8104	554346	0	0
2024-08-21 12:14:47			0	37733	0	0	0	28698	27270	156379	26774	1072070	46506	110664	0	0	8105	553451	0	0
2024-08-21 12:15:47			0	37720	0	0	0	28685	27270	156335	26861	1072106	46497	110659	0	0	8104	553957	0	0
2024-08-21 12:16:47			0	37699	0	0	0	28706	27280	156427	26696	1072088	46498	110667	0	0	8103	554743	0	0
2024-08-21 12:17:47			0	37702	0	0	0	28729	27270	156479	27229	1072097	46506	110676	0	0	8103	554658	0	0
2024-08-21 12:18:47			0	37680	0	0	0	28722	27290	156467	26951	1072160	46509	110673	0	0	8102	555452	0	0
2024-08-21 12:19:47			0	37664	0	0	0	28727	27280	156575	26826	1072205	46509	110675	0	0	8101	556109	0	0
2024-08-21 12:20:47			0	37644	0	0	0	28722	27300	156579	27140	1072241	46511	110673	0	0	8100	556826	0	0
2024-08-21 12:21:47			0	37635	0	0	0	28724	27300	156699	26790	1072259	46500	110674	0	0	8099	557178	0	0
2024-08-21 12:22:47			0	37624	0	0	0	28724	27300	156683	27026	1072259	46510	110674	0	0	8098	557608	0	0
2024-08-21 12:23:47			0	37610	0	0	0	28703	27300	156759	26750	1072214	46511	110666	0	0	8098	558156	0	0
2024-08-21 12:24:47			0	37608	0	0	0	28706	27310	156807	26658	1072205	46500	110667	0	0	8098	558202	0	0
2024-08-21 12:25:47			0	37602	0	0	0	28729	27310	156647	26776	1072250	46489	110676	0	0	8097	558437	0	0
2024-08-21 12:26:47			0	37597	0	0	0	28732	27300	156663	26949	1072241	46500	110677	0	0	8097	558665	0	0
2024-08-21 12:27:47			0	37592	0	0	0	28737	27310	156667	27265	1072259	46500	110679	0	0	8096	558828	0	0
2024-08-21 12:28:47			0	37594	0	0	0	28753	27310	156707	27150	1072277	46489	110685	0	0	8096	558750	0	0
2024-08-21 12:29:47			0	37579	0	0	0	28771	27330	156687	27090	1072394	46502	110692	0	0	8095	559274	0	0
2024-08-21 12:30:47			0	37574	0	0	0	28771	27320	156719	27147	1072349	46512	110692	0	0	8095	559501	0	0
2024-08-21 12:31:47			0	37587	0	0	0	28753	27330	156711	26885	1072421	46524	110685	0	0	8096	558960	0	0
2024-08-21 12:32:47			0	37592	0	0	0	28748	27330	156747	26824	1072475	46513	110683	0	0	8096	558764	0	0
2024-08-21 12:33:47			0	37599	0	0	0	28735	27340	156787	26894	1072439	46503	110678	0	0	8097	558458	0	0
2024-08-21 12:34:47			0	37574	0	0	0	28729	27340	156759	26956	1072385	46492	110676	0	0	8096	559437	0	0
2024-08-21 12:35:47			0	37569	0	0	0	28776	27340	156767	27057	1072439	46514	110694	0	0	8094	559633	0	0
2024-08-21 12:36:47			0	37578	0	0	0	28784	27340	156811	27083	1072475	46515	110697	0	0	8095	559280	0	0
2024-08-21 12:37:47			0	37582	0	0	0	28784	27350	156687	26698	1072538	46516	110697	0	0	8095	559092	0	0
2024-08-21 12:38:47			0	37580	0	0	0	28779	27360	156771	26974	1072475	46505	110695	0	0	8095	559138	0	0
2024-08-21 12:39:47			0	37602	0	0	0	28781	27360	156659	27043	1072529	46494	110696	0	0	8096	558276	0	0
2024-08-21 12:40:47			0	37602	0	0	0	28805	27360	156715	26831	1072583	46494	110705	0	0	8096	558276	0	0
2024-08-21 12:41:47			0	37601	0	0	0	28810	27370	156687	26745	1072547	46518	110707	0	0	8096	558283	0	0
2024-08-21 12:42:47			0	37625	0	0	0	28810	27370	156555	27057	1072637	46518	110707	0	0	8097	557345	0	0
2024-08-21 12:43:47			0	37664	0	0	0	28802	27380	156395	26958	1072699	46507	110704	0	0	8100	555789	0	0
2024-08-21 12:44:47			0	37673	0	0	0	28794	27370	156343	26986	1072637	46507	110701	0	0	8100	555470	0	0
2024-08-21 12:45:47			0	37693	0	0	0	28805	27380	156207	26774	1072646	46507	110705	0	0	8101	554658	0	0
2024-08-21 12:46:47			0	37707	0	0	0	28786	27390	156203	26889	1072700	46509	110698	0	0	8103	554081	0	0
2024-08-21 12:47:47			0	37694	0	0	0	28805	27380	156151	26963	1072646	46507	110705	0	0	8101	554619	0	0
2024-08-21 12:48:47			0	37712	0	0	0	28792	27390	156131	26694	1072637	46509	110700	0	0	8103	553886	0	0
2024-08-21 12:49:47			0	37716	0	0	0	28797	27390	156083	26837	1072717	46520	110702	0	0	8103	553731	0	0
2024-08-21 12:50:47			0	37719	0	0	0	28818	27390	156083	26864	1072700	46520	110710	0	0	8103	553614	0	0
2024-08-21 12:51:47			0	37704	0	0	0	28831	27400	156123	27192	1072735	46520	110715	0	0	8102	554166	0	0
2024-08-21 12:52:47			0	37715	0	0	0	28838	27400	156139	26899	1072852	46521	110718	0	0	8102	553738	0	0
2024-08-21 12:53:47			0	37711	0	0	0	28870	27410	156195	27105	1072834	46522	110730	0	0	8101	553862	0	0
2024-08-21 12:54:47			0	37733	0	0	0	28888	27420	156095	27007	1072906	46534	110737	0	0	8102	552974	0	0
2024-08-21 12:55:47			0	37742	0	0	0	28906	27430	156067	26989	1073032	46546	110744	0	0	8103	552592	0	0
2024-08-21 12:56:47			0	37781	0	0	0	28919	27430	155847	27062	1073014	46536	110749	0	0	8105	551077	0	0
2024-08-21 12:57:47			0	37810	0	0	0	28903	27440	155739	27154	1073032	46536	110743	0	0	8107	549921	0	0
2024-08-21 12:58:47			0	37821	0	0	0	28901	27450	155591	27152	1073068	46515	110742	0	0	8107	549463	0	0
2024-08-21 12:59:47			0	37853	0	0	0	28906	27460	155567	27190	1073122	46538	110744	0	0	8109	548193	0	0
2024-08-21 13:00:47			0	37881	0	0	0	28851	27460	155459	27286	1073095	46527	110723	0	0	8112	547111	0	0
2024-08-21 13:01:47			0	37902	0	0	0	28870	27460	155435	27118	1073032	46527	110730	0	0	8113	546300	0	0
2024-08-21 13:02:47			0	37907	0	0	0	28883	27460	155351	26830	1073041	46516	110735	0	0	8113	546107	0	0
2024-08-21 13:03:47			0	37884	0	0	0	28916	27470	155311	26989	1073185	46528	110748	0	0	8111	546964	0	0
2024-08-21 13:04:47			0	37903	0	0	0	28942	27470	155359	26868	1073158	46528	110758	0	0	8112	546230	0	0
2024-08-21 13:05:47			0	37913	0	0	0	28953	27490	155259	26793	1073275	46530	110762	0	0	8112	545782	0	0
2024-08-21 13:06:47			0	37944	0	0	0	28937	27490	155259	26880	1073275	46530	110756	0	0	8114	544587	0	0
2024-08-21 13:07:47			0	37966	0	0	0	28929	27490	155059	27383	1073284	46520	110753	0	0	8116	543740	0	0
2024-08-21 13:08:47			0	37970	0	0	0	28914	27490	155115	26828	1073230	46520	110747	0	0	8116	543586	0	0
2024-08-21 13:09:47			0	37988	0	0	0	28927	27500	154943	27003	1073320	46520	110752	0	0	8117	542863	0	0
2024-08-21 13:10:47			0	37992	0	0	0	28911	27500	154927	27038	1073266	46520	110746	0	0	8117	542709	0	0
2024-08-21 13:11:47			0	38005	0	0	0	28916	27500	154923	27298	1073275	46509	110748	0	0	8118	542210	0	0
2024-08-21 13:12:47			0	37999	0	0	0	28911	27510	154923	27239	1073284	46509	110746	0	0	8118	542409	0	0
2024-08-21 13:13:47			0	38010	0	0	0	28877	27500	154919	27036	1073194	46509	110733	0	0	8119	542018	0	0
2024-08-21 13:14:47			0	38020	0	0	0	28885	27500	154871	27119	1073141	46509	110736	0	0	8119	541634	0	0
2024-08-21 13:15:47			0	38018	0	0	0	28901	27500	154763	26981	1073212	46520	110742	0	0	8119	541711	0	0
2024-08-21 13:16:47			0	38029	0	0	0	28903	27500	154800	26805	1073158	46531	110743	0	0	8120	541289	0	0
2024-08-21 13:17:47			0	38001	0	0	0	28898	27500	154919	26778	1073239	46520	110741	0	0	8118	542364	0	0
2024-08-21 13:18:47			0	38004	0	0	0	28903	27500	154967	27062	1073293	46520	110743	0	0	8118	542248	0	0
2024-08-21 13:19:47			0	37991	0	0	0	28898	27490	154995	27104	1073257	46541	110741	0	0	8118	542779	0	0
2024-08-21 13:20:47			0	37976	0	0	0	28911	27500	155039	26996	1073266	46531	110746	0	0	8116	543324	0	0
2024-08-21 13:21:47			0	37959	0	0	0	28909	27500	155095	27253	1073221	46521	110745	0	0	8116	543978	0	0
2024-08-21 13:22:47			0	37950	0	0	0	28906	27500	155091	26852	1073302	46521	110744	0	0	8115	544325	0	0
2024-08-21 13:23:47			0	37946	0	0	0	28929	27500	155063	27118	1073356	46509	110753	0	0	8114	544479	0	0
2024-08-21 13:24:47			0	37946	0	0	0	28940	27510	155211	26694	1073338	46521	110757	0	0	8114	544447	0	0
2024-08-21 13:25:47			0	37949	0	0	0	28950	27520	155099	27026	1073356	46522	110761	0	0	8114	544301	0	0
2024-08-21 13:26:47			0	37947	0	0	0	28963	27510	155091	27220	1073419	46542	110766	0	0	8114	544409	0	0
2024-08-21 13:27:47			0	37961	0	0	0	28955	27520	154967	26824	1073410	46522	110763	0	0	8115	543839	0	0
2024-08-21 13:28:47			0	37984	0	0	0	28955	27530	154883	26981	1073401	46535	110763	0	0	8116	542923	0	0
2024-08-21 13:29:47			0	38001	0	0	0	28922	27540	154839	26890	1073437	46535	110750	0	0	8118	542239	0	0
2024-08-21 13:30:47			0	38021	0	0	0	28916	27530	154835	26930	1073401	46524	110748	0	0	8119	541502	0	0
2024-08-21 13:31:47			0	38039	0	0	0	28924	27530	154780	27166	1073374	46512	110751	0	0	8120	540812	0	0
2024-08-21 13:32:47			0	38039	0	0	0	28945	27530	154704	27019	1073311	46523	110759	0	0	8120	540812	0	0
2024-08-21 13:33:47			0	38028	0	0	0	28973	27530	154631	26981	1073500	46544	110770	0	0	8119	541234	0	0
2024-08-21 13:34:47			0	38049	0	0	0	28963	27530	154612	26923	1073482	46535	110766	0	0	8120	540429	0	0
2024-08-21 13:35:47			0	38059	0	0	0	28953	27530	154552	26738	1073509	46535	110762	0	0	8121	540046	0	0
2024-08-21 13:36:47			0	38057	0	0	0	28916	27540	154592	27201	1073446	46536	110748	0	0	8121	540091	0	0
2024-08-21 13:37:47			0	38104	0	0	0	28948	27540	154488	27211	1073410	46512	110760	0	0	8123	538293	0	0
2024-08-21 13:38:47			0	38091	0	0	0	28981	27530	154512	26837	1073428	46524	110773	0	0	8122	538821	0	0
2024-08-21 13:39:47			0	38094	0	0	0	29007	27540	154476	26870	1073608	46546	110783	0	0	8122	538675	0	0
2024-08-21 13:40:47			0	38094	0	0	0	29002	27550	154476	26965	1073653	46537	110781	0	0	8122	538644	0	0
2024-08-21 13:41:47			0	38110	0	0	0	28986	27550	154404	26798	1073626	46547	110775	0	0	8123	538032	0	0
2024-08-21 13:42:47			0	38133	0	0	0	28986	27560	154364	26830	1073617	46527	110775	0	0	8125	537123	0	0
2024-08-21 13:43:47			0	38117	0	0	0	29012	27560	154320	26776	1073671	46527	110785	0	0	8123	537734	0	0
2024-08-21 13:44:47			0	38146	0	0	0	29018	27580	154324	27112	1073806	46539	110787	0	0	8125	536565	0	0
2024-08-21 13:45:47			0	38150	0	0	0	29012	27570	154208	26923	1073689	46539	110785	0	0	8125	536443	0	0
2024-08-21 13:46:47			0	38149	0	0	0	28994	27580	154156	26811	1073653	46529	110778	0	0	8125	536451	0	0
2024-08-21 13:47:47			0	38154	0	0	0	28961	27580	154200	26844	1073698	46516	110765	0	0	8126	536260	0	0
2024-08-21 13:48:47			0	38153	0	0	0	28955	27580	154104	27173	1073653	46517	110763	0	0	8126	536298	0	0
2024-08-21 13:49:47			0	38130	0	0	0	28961	27580	154248	27149	1073590	46516	110765	0	0	8125	537176	0	0
2024-08-21 13:50:47			0	38129	0	0	0	28966	27580	154280	27097	1073617	46516	110767	0	0	8125	537214	0	0
2024-08-21 13:51:47			0	38106	0	0	0	28979	27580	154340	27379	1073617	46539	110772	0	0	8123	538092	0	0
2024-08-21 13:52:47			0	38099	0	0	0	28989	27560	154396	26928	1073617	46527	110776	0	0	8123	538422	0	0
2024-08-21 13:53:47			0	38102	0	0	0	29005	27570	154444	27242	1073707	46538	110782	0	0	8122	538276	0	0
2024-08-21 13:54:47			0	38102	0	0	0	29028	27570	154412	27225	1073743	46528	110791	0	0	8122	538276	0	0
2024-08-21 13:55:47			0	38089	0	0	0	29023	27590	154392	27130	1073797	46529	110789	0	0	8122	538711	0	0
2024-08-21 13:56:47			0	38117	0	0	0	29018	27600	154428	26920	1073815	46531	110787	0	0	8123	537610	0	0
2024-08-21 13:57:47			0	38116	0	0	0	29028	27590	154352	26627	1073797	46540	110791	0	0	8123	537679	0	0
2024-08-21 13:58:47			0	38143	0	0	0	29020	27600	154364	26859	1073824	46541	110788	0	0	8125	536618	0	0
2024-08-21 13:59:47			0	38151	0	0	0	29031	27600	154248	27121	1073815	46531	110792	0	0	8125	536313	0	0
2024-08-21 14:00:47			0	38140	0	0	0	29028	27600	154252	27209	1073788	46531	110791	0	0	8124	536732	0	0
2024-08-21 14:01:47			0	38164	0	0	0	29031	27600	154188	26863	1073878	46541	110792	0	0	8126	535817	0	0
2024-08-21 14:02:47			0	38155	0	0	0	29002	27610	154112	26837	1073860	46541	110781	0	0	8126	536129	0	0
2024-08-21 14:03:47			0	38162	0	0	0	29005	27610	154140	27024	1073806	46519	110782	0	0	8126	535863	0	0
2024-08-21 14:04:47			0	38160	0	0	0	29002	27610	154192	26970	1073815	46532	110781	0	0	8126	535939	0	0
2024-08-21 14:05:47			0	38162	0	0	0	28997	27610	154156	27152	1073752	46531	110779	0	0	8126	535863	0	0
2024-08-21 14:06:47			0	38153	0	0	0	28994	27610	154188	27282	1073833	46531	110778	0	0	8126	536206	0	0
2024-08-21 14:07:47			0	38151	0	0	0	28999	27610	154164	27215	1073761	46542	110780	0	0	8126	536282	0	0
2024-08-21 14:08:47			0	38137	0	0	0	28999	27610	154312	27208	1073806	46531	110780	0	0	8125	536816	0	0
2024-08-21 14:09:47			0	38129	0	0	0	28997	27600	154360	27218	1073842	46552	110779	0	0	8124	537152	0	0
2024-08-21 14:10:47			0	38132	0	0	0	28992	27610	154300	27341	1073779	46531	110777	0	0	8125	537007	0	0
2024-08-21 14:11:47			0	38095	0	0	0	29002	27610	154360	26880	1073779	46531	110781	0	0	8122	538420	0	0
2024-08-21 14:12:47			0	38090	0	0	0	29041	27610	154420	27197	1073914	46531	110796	0	0	8121	538611	0	0
2024-08-21 14:13:47			0	38083	0	0	0	29062	27620	154480	26927	1073851	46543	110804	0	0	8121	538848	0	0
2024-08-21 14:14:47			0	38105	0	0	0	29067	27610	154396	27038	1074003	46553	110806	0	0	8122	538038	0	0
2024-08-21 14:15:47			0	38100	0	0	0	29064	27620	154352	27060	1073932	46554	110805	0	0	8122	538198	0	0
2024-08-21 14:16:47			0	38124	0	0	0	29044	27620	154288	27201	1073968	46543	110797	0	0	8123	537281	0	0
2024-08-21 14:17:47			0	38137	0	0	0	29049	27620	154232	27157	1073968	46543	110799	0	0	8124	536785	0	0
2024-08-21 14:18:47			0	38160	0	0	0	29046	27620	154188	27199	1073995	46543	110798	0	0	8125	535908	0	0
2024-08-21 14:19:47			0	38152	0	0	0	29041	27630	154156	26857	1073977	46534	110796	0	0	8125	536182	0	0
2024-08-21 14:20:47			0	38141	0	0	0	29049	27650	154160	27232	1073959	46546	110799	0	0	8124	536540	0	0
2024-08-21 14:21:47			0	38148	0	0	0	29033	27650	154220	27059	1073986	46546	110793	0	0	8125	536273	0	0
2024-08-21 14:22:47			0	38150	0	0	0	28989	27630	154180	27144	1073977	46534	110776	0	0	8126	536258	0	0
2024-08-21 14:23:47			0	38142	0	0	0	29046	27630	154172	26772	1073932	46534	110798	0	0	8124	536563	0	0
2024-08-21 14:24:47			0	38115	0	0	0	29085	27630	154312	27038	1074066	46522	110813	0	0	8122	537594	0	0
2024-08-21 14:25:47			0	38099	0	0	0	29101	27650	154364	27135	1074121	46569	110819	0	0	8121	538143	0	0
2024-08-21 14:26:47			0	38112	0	0	0	29101	27650	154276	26982	1074121	46557	110819	0	0	8122	537646	0	0
2024-08-21 14:27:47			0	38107	0	0	0	29109	27660	154256	27175	1074220	46570	110822	0	0	8121	537806	0	0
2024-08-21 14:28:47			0	38150	0	0	0	29083	27670	154120	27130	1074238	46538	110812	0	0	8124	536135	0	0
2024-08-21 14:29:47			0	38180	0	0	0	29096	27660	154040	27279	1074175	46548	110817	0	0	8126	535023	0	0
2024-08-21 14:30:47			0	38194	0	0	0	29072	27670	154096	26930	1074193	46548	110808	0	0	8127	534459	0	0
2024-08-21 14:31:47			0	38194	0	0	0	29046	27660	153920	27045	1074095	46538	110798	0	0	8127	534490	0	0
2024-08-21 14:32:47			0	38185	0	0	0	29033	27670	153940	27272	1074086	46538	110793	0	0	8127	534802	0	0
2024-08-21 14:33:47			0	38167	0	0	0	29070	27660	153972	27066	1074121	46526	110807	0	0	8126	535518	0	0
2024-08-21 14:34:47			0	38164	0	0	0	29111	27680	154064	26975	1074202	46527	110823	0	0	8125	535570	0	0
2024-08-21 14:35:47			0	38171	0	0	0	29127	27670	154100	26753	1074247	46548	110829	0	0	8125	535335	0	0
2024-08-21 14:36:47			0	38168	0	0	0	29148	27680	153972	26880	1074256	46539	110837	0	0	8124	535418	0	0
2024-08-21 14:37:47			0	38194	0	0	0	29163	27690	153896	26939	1074364	46561	110843	0	0	8126	534398	0	0
2024-08-21 14:38:47			0	38241	0	0	0	29153	27690	153804	26984	1074418	46573	110839	0	0	8129	532612	0	0
2024-08-21 14:39:47			0	38262	0	0	0	29142	27690	153780	26802	1074418	46550	110835	0	0	8130	531815	0	0
2024-08-21 14:40:47			0	38293	0	0	0	29148	27690	153700	27053	1074445	46550	110837	0	0	8132	530640	0	0
2024-08-21 14:41:47			0	38291	0	0	0	29109	27710	153500	26658	1074364	46575	110822	0	0	8132	530655	0	0
2024-08-21 14:42:47			0	38290	0	0	0	29114	27720	153488	27079	1074445	46543	110824	0	0	8132	530662	0	0
2024-08-21 14:43:47			0	38276	0	0	0	29150	27710	153572	27093	1074481	46542	110838	0	0	8131	531223	0	0
2024-08-21 14:44:47			0	38287	0	0	0	29148	27710	153524	27225	1074508	46553	110837	0	0	8131	530806	0	0
2024-08-21 14:45:47			0	38306	0	0	0	29119	27720	153444	26958	1074490	46553	110826	0	0	8133	530056	0	0
2024-08-21 14:46:47			0	38294	0	0	0	29119	27710	153528	26828	1074481	46553	110826	0	0	8132	530541	0	0
2024-08-21 14:47:47			0	38296	0	0	0	29127	27730	153512	27242	1074517	46544	110829	0	0	8132	530404	0	0
2024-08-21 14:48:47			0	38282	0	0	0	29158	27730	153540	27253	1074562	46544	110841	0	0	8131	530934	0	0
2024-08-21 14:49:47			0	38277	0	0	0	29179	27730	153516	26783	1074598	46533	110849	0	0	8130	531124	0	0
2024-08-21 14:50:47			0	38276	0	0	0	29155	27730	153520	27178	1074535	46566	110840	0	0	8131	531162	0	0
2024-08-21 14:51:47			0	38316	0	0	0	29145	27730	153496	26991	1074517	46555	110836	0	0	8133	529647	0	0
2024-08-21 14:52:47			0	38316	0	0	0	29132	27740	153472	26885	1074508	46556	110831	0	0	8133	529617	0	0
2024-08-21 14:53:47			0	38321	0	0	0	29155	27740	153388	26767	1074589	46545	110840	0	0	8133	529428	0	0
2024-08-21 14:54:47			0	38300	0	0	0	29202	27740	153432	27114	1074634	46566	110858	0	0	8131	530222	0	0
2024-08-21 14:55:47			0	38332	0	0	0	29218	27760	153440	26977	1074697	46557	110864	0	0	8133	528951	0	0
2024-08-21 14:56:47			0	38341	0	0	0	29179	27760	153156	27059	1074787	46569	110849	0	0	8134	528611	0	0
2024-08-21 14:57:47			0	38362	0	0	0	29135	27760	153108	27003	1074643	46546	110832	0	0	8136	527818	0	0
2024-08-21 14:58:47			0	38388	0	0	0	29137	27750	153072	26729	1074580	46535	110833	0	0	8137	526867	0	0
2024-08-21 14:59:47			0	38390	0	0	0	29140	27740	153108	26814	1074562	46545	110834	0	0	8138	526822	0	0
2024-08-21 15:00:47			0	38351	0	0	0	29155	27750	153248	26902	1074526	46557	110840	0	0	8135	528263	0	0
2024-08-21 15:01:47			0	38360	0	0	0	29166	27750	153264	26748	1074679	46557	110844	0	0	8135	527924	0	0
2024-08-21 15:02:47			0	38340	0	0	0	29184	27740	153384	26769	1074616	46545	110851	0	0	8134	528709	0	0
2024-08-21 15:03:47			0	38328	0	0	0	29179	27760	153396	26904	1074706	46558	110849	0	0	8133	529102	0	0
2024-08-21 15:04:47			0	38333	0	0	0	29212	27760	153420	26632	1074733	46569	110862	0	0	8133	528913	0	0
2024-08-21 15:05:47			0	38332	0	0	0	29207	27770	153412	26788	1074769	46570	110860	0	0	8133	528920	0	0
2024-08-21 15:06:47			0	38318	0	0	0	29184	27770	153356	26734	1074796	46570	110851	0	0	8133	529450	0	0
2024-08-21 15:07:47			0	38339	0	0	0	29132	27780	153408	27107	1074760	46559	110831	0	0	8135	528625	0	0
2024-08-21 15:08:47			0	38331	0	0	0	29163	27760	153324	26871	1074679	46547	110843	0	0	8134	528989	0	0
2024-08-21 15:09:47			0	38338	0	0	0	29142	27770	153268	27074	1074697	46526	110835	0	0	8135	528694	0	0
2024-08-21 15:10:47			0	38373	0	0	0	29142	27780	153372	27024	1074706	46559	110835	0	0	8137	527342	0	0
2024-08-21 15:11:47			0	38345	0	0	0	29132	27770	153352	27121	1074688	46537	110831	0	0	8135	528429	0	0
2024-08-21 15:12:47			0	38334	0	0	0	29148	27760	153444	27076	1074616	46546	110837	0	0	8134	528875	0	0
2024-08-21 15:13:47			0	38319	0	0	0	29153	27760	153504	27066	1074625	46547	110839	0	0	8133	529442	0	0
2024-08-21 15:14:47			0	38297	0	0	0	29150	27760	153604	27055	1074643	46535	110838	0	0	8132	530275	0	0
2024-08-21 15:15:47			0	38303	0	0	0	29166	27770	153516	26890	1074634	46548	110844	0	0	8132	530017	0	0
2024-08-21 15:16:47			0	38302	0	0	0	29173	27760	153580	27098	1074643	46535	110847	0	0	8132	530086	0	0
2024-08-21 15:17:47			0	38303	0	0	0	29207	27770	153476	27029	1074688	46548	110860	0	0	8132	530017	0	0
2024-08-21 15:18:47			0	38316	0	0	0	29212	27770	153452	26804	1074805	46559	110862	0	0	8132	529525	0	0
2024-08-21 15:19:47			0	38343	0	0	0	29194	27780	153340	26587	1074787	46570	110855	0	0	8134	528474	0	0
2024-08-21 15:20:47			0	38369	0	0	0	29207	27780	153264	26720	1074814	46570	110860	0	0	8135	527493	0	0
2024-08-21 15:21:47			0	38376	0	0	0	29210	27770	153184	26930	1074805	46559	110861	0	0	8136	527259	0	0
2024-08-21 15:22:47			0	38380	0	0	0	29225	27780	153080	27131	1074823	46549	110867	0	0	8136	527078	0	0
2024-08-21 15:23:47			0	38402	0	0	0	29231	27790	153152	26811	1074868	46551	110869	0	0	8137	526218	0	0
2024-08-21 15:24:47			0	38415	0	0	0	29231	27790	153124	27072	1074868	46573	110869	0	0	8138	525729	0	0
2024-08-21 15:25:47			0	38414	0	0	0	29244	27810	153048	26722	1074940	46551	110874	0	0	8137	525706	0	0
2024-08-21 15:26:47			0	38422	0	0	0	29246	27810	153124	27003	1074976	46574	110875	0	0	8138	525405	0	0
2024-08-21 15:27:47			0	38423	0	0	0	29233	27810	153032	27118	1075030	46563	110870	0	0	8138	525367	0	0
2024-08-21 15:28:47			0	38451	0	0	0	29246	27830	152964	26838	1075084	46575	110875	0	0	8140	524254	0	0
2024-08-21 15:29:47			0	38456	0	0	0	29264	27820	152996	26981	1075021	46553	110882	0	0	8140	524096	0	0
2024-08-21 15:30:47			0	38461	0	0	0	29270	27820	152920	26915	1075039	46575	110884	0	0	8140	523908	0	0
2024-08-21 15:31:47			0	38460	0	0	0	29264	27820	152828	26883	1075075	46564	110882	0	0	8140	523946	0	0
2024-08-21 15:32:47			0	38461	0	0	0	29259	27830	152784	26939	1075147	46554	110880	0	0	8140	523878	0	0
2024-08-21 15:33:47			0	38482	0	0	0	29233	27840	152728	26759	1075111	46555	110870	0	0	8142	523060	0	0
2024-08-21 15:34:47			0	38463	0	0	0	29257	27830	152840	26686	1075066	46565	110879	0	0	8140	523803	0	0
2024-08-21 15:35:47			0	38460	0	0	0	29259	27840	152844	26946	1075102	46577	110880	0	0	8140	523886	0	0
2024-08-21 15:36:47			0	38459	0	0	0	29272	27850	152892	26946	1075174	46555	110885	0	0	8140	523893	0	0
2024-08-21 15:37:47			0	38437	0	0	0	29254	27840	152908	27173	1075165	46577	110878	0	0	8139	524750	0	0
2024-08-21 15:38:47			0	38457	0	0	0	29251	27850	152892	26901	1075129	46544	110877	0	0	8140	523968	0	0
2024-08-21 15:39:47			0	38444	0	0	0	29254	27850	152968	26930	1075174	46566	110878	0	0	8139	524457	0	0
2024-08-21 15:40:47			0	38404	0	0	0	29223	27840	153008	26821	1075084	46555	110866	0	0	8137	525992	0	0
2024-08-21 15:41:47			0	38368	0	0	0	29241	27850	153164	26977	1075093	46555	110873	0	0	8135	527318	0	0
2024-08-21 15:42:47			0	38341	0	0	0	29249	27840	153400	27027	1074994	46543	110876	0	0	8133	528367	0	0
2024-08-21 15:43:47			0	38346	0	0	0	29241	27840	153396	26847	1075048	46555	110873	0	0	8134	528178	0	0
2024-08-21 15:44:47			0	38323	0	0	0	29251	27840	153452	26831	1075111	46555	110877	0	0	8132	529047	0	0
2024-08-21 15:45:47			0	38291	0	0	0	29251	27830	153452	26968	1075066	46554	110877	0	0	8130	530288	0	0
2024-08-21 15:46:47			0	38260	0	0	0	29244	27850	153660	26915	1075120	46566	110874	0	0	8129	531401	0	0
2024-08-21 15:47:47			0	38234	0	0	0	29277	27840	153692	26922	1075165	46555	110887	0	0	8127	532417	0	0
2024-08-21 15:48:47			0	38229	0	0	0	29270	27850	153760	26979	1075156	46556	110884	0	0	8127	532576	0	0
2024-08-21 15:49:47			0	38203	0	0	0	29283	27860	153848	27209	1075192	46568	110889	0	0	8125	533533	0	0
2024-08-21 15:50:47			0	38190	0	0	0	29280	27860	153872	26871	1075192	46579	110888	0	0	8124	534027	0	0
2024-08-21 15:51:47			0	38182	0	0	0	29277	27860	153988	26641	1075192	46579	110887	0	0	8124	534331	0	0
2024-08-21 15:52:47			0	38190	0	0	0	29280	27870	153996	26658	1075210	46569	110888	0	0	8124	533996	0	0
2024-08-21 15:53:47			0	38154	0	0	0	29288	27860	154024	27024	1075201	46580	110891	0	0	8122	535396	0	0
2024-08-21 15:54:47			0	38158	0	0	0	29298	27870	153948	27020	1075291	46558	110895	0	0	8122	535213	0	0
2024-08-21 15:55:47			0	38182	0	0	0	29296	27860	154020	26864	1075255	46569	110894	0	0	8123	534331	0	0
2024-08-21 15:56:47			0	38161	0	0	0	29298	27860	153984	26942	1075255	46569	110895	0	0	8122	535130	0	0
2024-08-21 15:57:47			0	38154	0	0	0	29311	27880	153996	27287	1075282	46581	110900	0	0	8122	535334	0	0
2024-08-21 15:58:47			0	38162	0	0	0	29322	27890	153956	27138	1075354	46571	110904	0	0	8122	534999	0	0
2024-08-21 15:59:47			0	38169	0	0	0	29322	27870	153932	27069	1075381	46602	110904	0	0	8122	534794	0	0
2024-08-21 16:00:47			0	38216	0	0	0	29316	27890	153680	27355	1075381	46571	110902	0	0	8125	532947	0	0
2024-08-21 16:01:47			0	38264	0	0	0	29324	27890	153524	26698	1075381	46593	110905	0	0	8128	531127	0	0
2024-08-21 16:02:47			0	38302	0	0	0	29322	27890	153456	26811	1075408	46571	110904	0	0	8130	529689	0	0
2024-08-21 16:03:47			0	38309	0	0	0	29322	27890	153304	26743	1075444	46571	110904	0	0	8130	529424	0	0
2024-08-21 16:04:47			0	38350	0	0	0	29329	27890	153260	26871	1075417	46571	110907	0	0	8133	527875	0	0
2024-08-21 16:05:47			0	38355	0	0	0	29322	27890	153168	27078	1075444	46571	110904	0	0	8133	527687	0	0
2024-08-21 16:06:47			0	38345	0	0	0	29335	27890	153244	26590	1075417	46571	110909	0	0	8132	528064	0	0
2024-08-21 16:07:47			0	38384	0	0	0	29329	27890	153144	26968	1075390	46571	110907	0	0	8135	526593	0	0
2024-08-21 16:08:47			0	38373	0	0	0	29322	27900	153052	26892	1075408	46562	110904	0	0	8134	526977	0	0
2024-08-21 16:09:47			0	38368	0	0	0	29327	27910	153160	27312	1075445	46573	110906	0	0	8134	527136	0	0
2024-08-21 16:10:47			0	38379	0	0	0	29332	27900	153100	27128	1075453	46561	110908	0	0	8134	526751	0	0
2024-08-21 16:11:47			0	38393	0	0	0	29329	27910	152996	26993	1075480	46573	110907	0	0	8135	526194	0	0
2024-08-21 16:12:47			0	38410	0	0	0	29335	27910	152936	26793	1075534	46573	110909	0	0	8136	525554	0	0
2024-08-21 16:13:47			0	38418	0	0	0	29332	27920	152948	27177	1075490	46563	110908	0	0	8137	525222	0	0
2024-08-21 16:14:47			0	38421	0	0	0	29332	27920	152960	27012	1075516	46574	110908	0	0	8137	525109	0	0
2024-08-21 16:15:47			0	38426	0	0	0	29322	27920	152840	26998	1075552	46575	110904	0	0	8137	524922	0	0
2024-08-21 16:16:47			0	38444	0	0	0	29329	27910	152824	27015	1075498	46573	110907	0	0	8138	524275	0	0
2024-08-21 16:17:47			0	38469	0	0	0	29322	27910	152668	27066	1075507	46583	110904	0	0	8140	523336	0	0
2024-08-21 16:18:47			0	38467	0	0	0	29327	27910	152704	26630	1075454	46573	110906	0	0	8140	523411	0	0
2024-08-21 16:19:47			0	38465	0	0	0	29327	27920	152672	27019	1075463	46574	110906	0	0	8139	523456	0	0
2024-08-21 16:20:47			0	38479	0	0	0	29322	27920	152704	27088	1075445	46564	110904	0	0	8140	522931	0	0
2024-08-21 16:21:47			0	38469	0	0	0	29316	27910	152672	27081	1075471	46583	110902	0	0	8140	523336	0	0
2024-08-21 16:22:47			0	38467	0	0	0	29324	27920	152624	26961	1075525	46575	110905	0	0	8140	523381	0	0
2024-08-21 16:23:47			0	38487	0	0	0	29327	27910	152736	26831	1075507	46573	110906	0	0	8141	522661	0	0
2024-08-21 16:24:47			0	38484	0	0	0	29332	27920	152724	26811	1075525	46564	110908	0	0	8140	522743	0	0
2024-08-21 16:25:47			0	38490	0	0	0	29332	27910	152680	27067	1075525	46583	110908	0	0	8141	522548	0	0
2024-08-21 16:26:47			0	38512	0	0	0	29337	27920	152632	27164	1075516	46563	110910	0	0	8142	521694	0	0
2024-08-21 16:27:47			0	38534	0	0	0	29324	27920	152528	27072	1075499	46564	110905	0	0	8143	520870	0	0
2024-08-21 16:28:47			0	38548	0	0	0	29337	27920	152388	27171	1075525	46585	110910	0	0	8144	520346	0	0
2024-08-21 16:29:47			0	38539	0	0	0	29342	27910	152372	27114	1075561	46573	110912	0	0	8143	520713	0	0
2024-08-21 16:30:47			0	38566	0	0	0	29340	27930	152400	27227	1075571	46576	110911	0	0	8145	519643	0	0
2024-08-21 16:31:47			0	38569	0	0	0	29337	27930	152288	26804	1075561	46576	110910	0	0	8145	519531	0	0
2024-08-21 16:32:47			0	38573	0	0	0	29329	27930	152420	27097	1075588	46576	110907	0	0	8146	519382	0	0
2024-08-21 16:33:47			0	38564	0	0	0	29337	27920	152340	27313	1075525	46575	110910	0	0	8145	519748	0	0
2024-08-21 16:34:47			0	38585	0	0	0	29337	27920	152340	27144	1075579	46564	110910	0	0	8146	518964	0	0
2024-08-21 16:35:47			0	38548	0	0	0	29324	27930	152292	27360	1075544	46553	110905	0	0	8144	520316	0	0
2024-08-21 16:36:47			0	38570	0	0	0	29335	27920	152320	26977	1075579	46552	110909	0	0	8145	519524	0	0
2024-08-21 16:37:47			0	38556	0	0	0	29340	27920	152300	26994	1075525	46575	110911	0	0	8144	520047	0	0
2024-08-21 16:38:47			0	38562	0	0	0	29342	27930	152320	27098	1075597	46586	110912	0	0	8145	519793	0	0
2024-08-21 16:39:47			0	38577	0	0	0	29335	27930	152272	27300	1075535	46576	110909	0	0	8146	519232	0	0
2024-08-21 16:40:47			0	38577	0	0	0	29319	27930	152380	26873	1075561	46576	110903	0	0	8146	519232	0	0
2024-08-21 16:41:47			0	38555	0	0	0	29316	27930	152332	26844	1075481	46576	110902	0	0	8145	520055	0	0
2024-08-21 16:42:47			0	38558	0	0	0	29309	27920	152392	26982	1075570	46563	110899	0	0	8145	519972	0	0
2024-08-21 16:43:47			0	38550	0	0	0	29319	27930	152444	27109	1075508	46576	110903	0	0	8145	520242	0	0
2024-08-21 16:44:47			0	38523	0	0	0	29322	27920	152564	26963	1075499	46564	110904	0	0	8143	521282	0	0
2024-08-21 16:45:47			0	38527	0	0	0	29319	27920	152560	26984	1075525	46564	110903	0	0	8143	521132	0	0
2024-08-21 16:46:47			0	38525	0	0	0	29327	27920	152412	26833	1075499	46575	110906	0	0	8143	521207	0	0
2024-08-21 16:47:47			0	38509	0	0	0	29345	27930	152492	26972	1075517	46565	110913	0	0	8142	521776	0	0
2024-08-21 16:48:47			0	38507	0	0	0	29342	27920	152624	27170	1075552	46575	110912	0	0	8142	521881	0	0
2024-08-21 16:49:47			0	38522	0	0	0	29340	27920	152512	26941	1075552	46575	110911	0	0	8142	521319	0	0
2024-08-21 16:50:47			0	38547	0	0	0	29335	27920	152380	27114	1075552	46575	110909	0	0	8144	520384	0	0
2024-08-21 16:51:47			0	38524	0	0	0	29335	27920	152332	26847	1075525	46585	110909	0	0	8143	521245	0	0
2024-08-21 16:52:47			0	38541	0	0	0	29337	27930	152280	27088	1075597	46565	110910	0	0	8144	520578	0	0
2024-08-21 16:53:47			0	38570	0	0	0	29324	27930	152352	26890	1075642	46565	110905	0	0	8146	519494	0	0
2024-08-21 16:54:47			0	38556	0	0	0	29324	27930	152348	27069	1075597	46586	110905	0	0	8145	520017	0	0
2024-08-21 16:55:47			0	38552	0	0	0	29324	27920	152476	27173	1075552	46564	110905	0	0	8144	520197	0	0
2024-08-21 16:56:47			0	38523	0	0	0	29316	27920	152456	27022	1075552	46564	110902	0	0	8143	521282	0	0
2024-08-21 16:57:47			0	38518	0	0	0	29319	27940	152564	26890	1075553	46576	110903	0	0	8143	521409	0	0
2024-08-21 16:58:47			0	38501	0	0	0	29316	27920	152588	27057	1075552	46564	110902	0	0	8142	522106	0	0
2024-08-21 16:59:47			0	38475	0	0	0	29319	27920	152672	27123	1075499	46564	110903	0	0	8140	523081	0	0
2024-08-21 17:00:47			0	38459	0	0	0	29322	27920	152732	26948	1075436	46563	110904	0	0	8139	523681	0	0
2024-08-21 17:01:47			0	38434	0	0	0	29309	27910	152820	26791	1075454	46583	110899	0	0	8138	524651	0	0
2024-08-21 17:02:47			0	38431	0	0	0	29314	27920	152880	26686	1075490	46584	110901	0	0	8138	524734	0	0
2024-08-21 17:03:47			0	38429	0	0	0	29314	27910	152984	27189	1075507	46562	110901	0	0	8138	524839	0	0
2024-08-21 17:04:47			0	38410	0	0	0	29303	27910	153016	26968	1075534	46550	110897	0	0	8137	525554	0	0
2024-08-21 17:05:47			0	38417	0	0	0	29314	27920	152972	26899	1075543	46563	110901	0	0	8137	525260	0	0
2024-08-21 17:06:47			0	38404	0	0	0	29309	27910	152956	26798	1075480	46573	110899	0	0	8136	525779	0	0
2024-08-21 17:07:47			0	38406	0	0	0	29309	27910	152912	26901	1075391	46550	110899	0	0	8136	525704	0	0
2024-08-21 17:08:47			0	38395	0	0	0	29303	27920	153056	26800	1075436	46584	110897	0	0	8136	526088	0	0
2024-08-21 17:09:47			0	38398	0	0	0	29309	27910	153096	27005	1075471	46573	110899	0	0	8136	526005	0	0
2024-08-21 17:10:47			0	38376	0	0	0	29314	27910	153028	26850	1075498	46550	110901	0	0	8135	526834	0	0
2024-08-21 17:11:47			0	38370	0	0	0	29309	27910	153132	26693	1075507	46573	110899	0	0	8134	527060	0	0
2024-08-21 17:12:47			0	38384	0	0	0	29322	27910	153244	26788	1075454	46550	110904	0	0	8135	526533	0	0
2024-08-21 17:13:47			0	38382	0	0	0	29316	27900	153232	26854	1075462	46595	110902	0	0	8135	526638	0	0
2024-08-21 17:14:47			0	38365	0	0	0	29327	27910	153200	26911	1075480	46573	110906	0	0	8134	527249	0	0
2024-08-21 17:15:47			0	38379	0	0	0	29322	27920	153220	26937	1075490	46584	110904	0	0	8135	526691	0	0
2024-08-21 17:16:47			0	38381	0	0	0	29316	27910	153248	26755	1075498	46573	110902	0	0	8135	526646	0	0
2024-08-21 17:17:47			0	38373	0	0	0	29322	27910	153200	26975	1075534	46562	110904	0	0	8134	526947	0	0
2024-08-21 17:18:47			0	38348	0	0	0	29319	27920	153272	27105	1075436	46551	110903	0	0	8133	527859	0	0
2024-08-21 17:19:47			0	38364	0	0	0	29322	27910	153264	26901	1075391	46562	110904	0	0	8134	527287	0	0
2024-08-21 17:20:47			0	38374	0	0	0	29322	27910	153160	26746	1075498	46573	110904	0	0	8134	526909	0	0
2024-08-21 17:21:47			0	38350	0	0	0	29319	27910	153316	27170	1075445	46583	110903	0	0	8133	527814	0	0
2024-08-21 17:22:47			0	38348	0	0	0	29322	27910	153260	27244	1075534	46583	110904	0	0	8133	527890	0	0
2024-08-21 17:23:47			0	38355	0	0	0	29332	27910	153280	27393	1075454	46573	110908	0	0	8133	527626	0	0
2024-08-21 17:24:47			0	38366	0	0	0	29327	27910	153160	27393	1075534	46573	110906	0	0	8134	527211	0	0
2024-08-21 17:25:47			0	38364	0	0	0	29345	27910	153208	27085	1075507	46562	110913	0	0	8133	527287	0	0
2024-08-21 17:26:47			0	38387	0	0	0	29337	27920	153280	27144	1075570	46584	110910	0	0	8135	526389	0	0
2024-08-21 17:27:47			0	38387	0	0	0	29332	27910	153056	27111	1075561	46583	110908	0	0	8135	526420	0	0
2024-08-21 17:28:47			0	38411	0	0	0	29335	27920	152980	27095	1075543	46574	110909	0	0	8136	525486	0	0
2024-08-21 17:29:47			0	38424	0	0	0	29342	27920	153060	27173	1075606	46575	110912	0	0	8137	524997	0	0
2024-08-21 17:30:47			0	38447	0	0	0	29327	27920	152936	26894	1075543	46574	110906	0	0	8138	524132	0	0
2024-08-21 17:31:47			0	38461	0	0	0	29324	27920	152956	26791	1075579	46597	110905	0	0	8139	523606	0	0
2024-08-21 17:32:47			0	38442	0	0	0	29327	27920	152888	26833	1075543	46574	110906	0	0	8138	524320	0	0
2024-08-21 17:33:47			0	38440	0	0	0	29324	27910	152880	26705	1075534	46562	110905	0	0	8138	524426	0	0
2024-08-21 17:34:47			0	38425	0	0	0	29327	27930	152936	26937	1075571	46598	110906	0	0	8137	524929	0	0
2024-08-21 17:35:47			0	38429	0	0	0	29329	27930	153064	27017	1075561	46586	110907	0	0	8137	524778	0	0
2024-08-21 17:36:47			0	38386	0	0	0	29316	27920	153120	26878	1075543	46563	110902	0	0	8135	526427	0	0
2024-08-21 17:37:47			0	38366	0	0	0	29309	27930	153144	26812	1075508	46576	110899	0	0	8134	527150	0	0
2024-08-21 17:38:47			0	38363	0	0	0	29311	27930	153144	26575	1075561	46576	110900	0	0	8134	527263	0	0
2024-08-21 17:39:47			0	38339	0	0	0	29314	27920	153336	26665	1075543	46574	110901	0	0	8132	528199	0	0
2024-08-21 17:40:47			0	38328	0	0	0	29316	27910	153328	26811	1075534	46562	110902	0	0	8132	528645	0	0
2024-08-21 17:41:47			0	38296	0	0	0	29316	27920	153436	26920	1075543	46584	110902	0	0	8130	529824	0	0
2024-08-21 17:42:47			0	38301	0	0	0	29322	27910	153444	27291	1075534	46562	110904	0	0	8130	529665	0	0
2024-08-21 17:43:47			0	38310	0	0	0	29316	27920	153404	27194	1075570	46563	110902	0	0	8131	529294	0	0
2024-08-21 17:44:47			0	38307	0	0	0	29322	27920	153340	27098	1075552	46564	110904	0	0	8130	529408	0	0
2024-08-21 17:45:47			0	38319	0	0	0	29324	27920	153344	27013	1075516	46563	110905	0	0	8131	528954	0	0
2024-08-21 17:46:47			0	38314	0	0	0	29316	27920	153412	27022	1075525	46564	110902	0	0	8131	529143	0	0
2024-08-21 17:47:47			0	38305	0	0	0	29319	27920	153360	26785	1075463	46574	110903	0	0	8130	529483	0	0
2024-08-21 17:48:47			0	38302	0	0	0	29311	27920	153364	27118	1075525	46575	110900	0	0	8130	529597	0	0
2024-08-21 17:49:47			0	38302	0	0	0	29314	27910	153388	26651	1075498	46595	110901	0	0	8130	529628	0	0
2024-08-21 17:50:47			0	38306	0	0	0	29311	27910	153392	26674	1075454	46573	110900	0	0	8131	529476	0	0
2024-08-21 17:51:47			0	38309	0	0	0	29306	27910	153496	26748	1075498	46573	110898	0	0	8131	529363	0	0
2024-08-21 17:52:47			0	38296	0	0	0	29311	27910	153548	27092	1075480	46573	110900	0	0	8130	529854	0	0
2024-08-21 17:53:47			0	38273	0	0	0	29309	27900	153540	27088	1075462	46562	110899	0	0	8129	530755	0	0
2024-08-21 17:54:47			0	38268	0	0	0	29303	27910	153552	26861	1075418	46573	110897	0	0	8129	530914	0	0
2024-08-21 17:55:47			0	38275	0	0	0	29309	27900	153600	27024	1075462	46562	110899	0	0	8129	530679	0	0
2024-08-21 17:56:47			0	38253	0	0	0	29306	27900	153696	27085	1075489	46573	110898	0	0	8128	531513	0	0
2024-08-21 17:57:47			0	38276	0	0	0	29298	27910	153572	26974	1075507	46573	110895	0	0	8129	530611	0	0
2024-08-21 17:58:47			0	38252	0	0	0	29290	27910	153624	26972	1075391	46573	110892	0	0	8128	531520	0	0
2024-08-21 17:59:47			0	38268	0	0	0	29293	27890	153604	26842	1075336	46560	110893	0	0	8129	530975	0	0
2024-08-21 18:00:47			0	38261	0	0	0	29296	27900	153636	27237	1075399	46583	110894	0	0	8128	531210	0	0
2024-08-21 18:01:47			0	38253	0	0	0	29296	27900	153648	27128	1075354	46573	110894	0	0	8128	531513	0	0
2024-08-21 18:02:47			0	38267	0	0	0	29285	27900	153560	26802	1075381	46562	110890	0	0	8129	530982	0	0
2024-08-21 18:03:47			0	38243	0	0	0	29283	27890	153620	26897	1075363	46560	110889	0	0	8127	531922	0	0
2024-08-21 18:04:47			0	38265	0	0	0	29275	27890	153684	27123	1075363	46571	110886	0	0	8129	531089	0	0
2024-08-21 18:05:47			0	38243	0	0	0	29270	27890	153620	27213	1075309	46582	110884	0	0	8128	531922	0	0
2024-08-21 18:06:47			0	38246	0	0	0	29264	27880	153684	26847	1075264	46582	110882	0	0	8128	531839	0	0
2024-08-21 18:07:47			0	38246	0	0	0	29277	27880	153740	26981	1075318	46571	110887	0	0	8128	531839	0	0
2024-08-21 18:08:47			0	38235	0	0	0	29275	27880	153724	26804	1075345	46571	110886	0	0	8127	532257	0	0
2024-08-21 18:09:47			0	38210	0	0	0	29272	27880	153728	27098	1075282	46559	110885	0	0	8126	533205	0	0
2024-08-21 18:10:47			0	38198	0	0	0	29270	27880	153684	27189	1075291	46560	110884	0	0	8125	533661	0	0
2024-08-21 18:11:47			0	38189	0	0	0	29267	27890	153792	26809	1075273	46571	110883	0	0	8125	533972	0	0
2024-08-21 18:12:47			0	38205	0	0	0	29267	27880	153736	27118	1075309	46559	110883	0	0	8125	533395	0	0
2024-08-21 18:13:47			0	38212	0	0	0	29254	27870	153776	26856	1075273	46569	110878	0	0	8126	533160	0	0
2024-08-21 18:14:47			0	38205	0	0	0	29262	27890	153788	27135	1075273	46571	110881	0	0	8126	533364	0	0
2024-08-21 18:15:47			0	38207	0	0	0	29262	27870	153776	26932	1075273	46569	110881	0	0	8126	533350	0	0
2024-08-21 18:16:47			0	38200	0	0	0	29262	27870	153780	27131	1075219	46569	110881	0	0	8125	533616	0	0
2024-08-21 18:17:47			0	38191	0	0	0	29251	27870	153820	27182	1075264	46558	110877	0	0	8125	533958	0	0
2024-08-21 18:18:47			0	38212	0	0	0	29246	27870	153752	27092	1075237	46580	110875	0	0	8126	533160	0	0
2024-08-21 18:19:47			0	38220	0	0	0	29254	27860	153792	27038	1075201	46569	110878	0	0	8126	532887	0	0
2024-08-21 18:20:47			0	38195	0	0	0	29254	27860	153800	27107	1075201	46569	110878	0	0	8125	533837	0	0
2024-08-21 18:21:47			0	38209	0	0	0	29254	27870	153848	27001	1075210	46580	110878	0	0	8126	533274	0	0
2024-08-21 18:22:47			0	38205	0	0	0	29246	27850	153840	26868	1075183	46578	110875	0	0	8126	533487	0	0
2024-08-21 18:23:47			0	38194	0	0	0	29241	27850	153828	26630	1075156	46556	110873	0	0	8125	533905	0	0
2024-08-21 18:24:47			0	38191	0	0	0	29246	27860	153884	27130	1075201	46580	110875	0	0	8125	533988	0	0
2024-08-21 18:25:47			0	38174	0	0	0	29246	27860	153792	27105	1075219	46579	110875	0	0	8124	534635	0	0
2024-08-21 18:26:47			0	38191	0	0	0	29254	27850	153928	27033	1075129	46567	110878	0	0	8125	534019	0	0
2024-08-21 18:27:47			0	38203	0	0	0	29246	27850	153856	27057	1075156	46567	110875	0	0	8125	533563	0	0
2024-08-21 18:28:47			0	38209	0	0	0	29246	27850	153852	26965	1075183	46567	110875	0	0	8126	533335	0	0
2024-08-21 18:29:47			0	38200	0	0	0	29257	27850	153876	27206	1075210	46567	110879	0	0	8125	533677	0	0
2024-08-21 18:30:47			0	38200	0	0	0	29249	27860	153816	27241	1075165	46568	110876	0	0	8125	533647	0	0
2024-08-21 18:31:47			0	38209	0	0	0	29249	27850	153832	26994	1075210	46567	110876	0	0	8126	533335	0	0
2024-08-21 18:32:47			0	38215	0	0	0	29251	27860	153824	27027	1075201	46580	110877	0	0	8126	533077	0	0
2024-08-21 18:33:47			0	38206	0	0	0	29246	27850	153816	26739	1075147	46577	110875	0	0	8126	533449	0	0
2024-08-21 18:34:47			0	38199	0	0	0	29244	27850	153868	26892	1075174	46577	110874	0	0	8125	533715	0	0
2024-08-21 18:35:47			0	38195	0	0	0	29238	27840	153864	26811	1075111	46555	110872	0	0	8125	533898	0	0
2024-08-21 18:36:47			0	38179	0	0	0	29244	27850	153944	26783	1075183	46578	110874	0	0	8124	534476	0	0
2024-08-21 18:37:47			0	38158	0	0	0	29238	27840	154020	26840	1075111	46566	110872	0	0	8123	535305	0	0
2024-08-21 18:38:47			0	38150	0	0	0	29246	27840	154112	26982	1075138	46588	110875	0	0	8122	535610	0	0
2024-08-21 18:39:47			0	38145	0	0	0	29246	27840	154092	26968	1075111	46577	110875	0	0	8122	535800	0	0
2024-08-21 18:40:47			0	38150	0	0	0	29241	27840	154108	26974	1075165	46566	110873	0	0	8122	535610	0	0
2024-08-21 18:41:47			0	38171	0	0	0	29241	27840	154072	26670	1075165	46566	110873	0	0	8124	534811	0	0
2024-08-21 18:42:47			0	38152	0	0	0	29220	27830	154044	27055	1075174	46565	110865	0	0	8123	535565	0	0
2024-08-21 18:43:47			0	38163	0	0	0	29244	27850	154036	26850	1075102	46578	110874	0	0	8123	535084	0	0
2024-08-21 18:44:47			0	38152	0	0	0	29251	27840	154116	27064	1075192	46555	110877	0	0	8122	535534	0	0
2024-08-21 18:45:47			0	38140	0	0	0	29251	27840	154100	27088	1075183	46577	110877	0	0	8122	535991	0	0
2024-08-21 18:46:47			0	38139	0	0	0	29249	27850	154052	27154	1075210	46567	110876	0	0	8122	535998	0	0
2024-08-21 18:47:47			0	38163	0	0	0	29262	27850	154172	26958	1075174	46566	110881	0	0	8123	535084	0	0
2024-08-21 18:48:47			0	38157	0	0	0	29249	27850	154200	27150	1075156	46567	110876	0	0	8123	535313	0	0
2024-08-21 18:49:47			0	38129	0	0	0	29254	27850	154164	27079	1075129	46567	110878	0	0	8121	536379	0	0
2024-08-21 18:50:47			0	38141	0	0	0	29249	27840	154208	26927	1075183	46577	110876	0	0	8122	535953	0	0
2024-08-21 18:51:47			0	38139	0	0	0	29262	27840	154184	27171	1075165	46566	110881	0	0	8122	536029	0	0
2024-08-21 18:52:47			0	38133	0	0	0	29262	27850	154176	27027	1075156	46556	110881	0	0	8121	536227	0	0
2024-08-21 18:53:47			0	38145	0	0	0	29262	27850	154244	26902	1075201	46588	110881	0	0	8122	535769	0	0
2024-08-21 18:54:47			0	38163	0	0	0	29262	27840	154192	27336	1075192	46577	110881	0	0	8123	535115	0	0
2024-08-21 18:55:47			0	38145	0	0	0	29259	27850	154132	27211	1075183	46567	110880	0	0	8122	535769	0	0
2024-08-21 18:56:47			0	38141	0	0	0	29272	27850	154152	27249	1075210	46589	110885	0	0	8121	535922	0	0
2024-08-21 18:57:47			0	38158	0	0	0	29275	27850	154184	27081	1075174	46566	110886	0	0	8122	535275	0	0
2024-08-21 18:58:47			0	38144	0	0	0	29277	27860	154176	27187	1075192	46590	110887	0	0	8122	535777	0	0
2024-08-21 18:59:47			0	38135	0	0	0	29264	27860	154168	27192	1075282	46580	110882	0	0	8121	536120	0	0
2024-08-21 19:00:47			0	38131	0	0	0	29270	27860	154064	27085	1075255	46580	110884	0	0	8121	536272	0	0
2024-08-21 19:01:47			0	38136	0	0	0	29262	27850	154120	26805	1075210	46578	110881	0	0	8121	536112	0	0
2024-08-21 19:02:47			0	38137	0	0	0	29254	27860	154104	27144	1075192	46568	110878	0	0	8122	536043	0	0
2024-08-21 19:03:47			0	38131	0	0	0	29257	27850	154196	26842	1075129	46567	110879	0	0	8121	536303	0	0
2024-08-21 19:04:47			0	38117	0	0	0	29257	27850	154200	27130	1075201	46566	110879	0	0	8120	536837	0	0
2024-08-21 19:05:47			0	38112	0	0	0	29251	27860	154308	26850	1075165	46579	110877	0	0	8120	536996	0	0
2024-08-21 19:06:47			0	38085	0	0	0	29254	27860	154180	26769	1075192	46568	110878	0	0	8119	538027	0	0
2024-08-21 19:07:47			0	38095	0	0	0	29238	27860	154240	26970	1075192	46579	110872	0	0	8119	537645	0	0
2024-08-21 19:08:47			0	38110	0	0	0	29225	27850	154192	26972	1075156	46556	110867	0	0	8121	537104	0	0
2024-08-21 19:09:47			0	38108	0	0	0	29225	27850	154168	27020	1075102	46567	110867	0	0	8120	537180	0	0
2024-08-21 19:10:47			0	38104	0	0	0	29236	27850	154260	26963	1075147	46577	110871	0	0	8120	537333	0	0
2024-08-21 19:11:47			0	38081	0	0	0	29218	27840	154344	27159	1075102	46566	110864	0	0	8119	538242	0	0
2024-08-21 19:12:47			0	38054	0	0	0	29220	27840	154500	27102	1075102	46566	110865	0	0	8117	539274	0	0
2024-08-21 19:13:47			0	38041	0	0	0	29207	27840	154560	26975	1075102	46555	110860	0	0	8117	539771	0	0
2024-08-21 19:14:47			0	38010	0	0	0	29205	27830	154655	27263	1075012	46565	110859	0	0	8115	540989	0	0
2024-08-21 19:15:47			0	38011	0	0	0	29210	27830	154687	27261	1075003	46564	110861	0	0	8115	540951	0	0
2024-08-21 19:16:47			0	37970	0	0	0	29210	27820	154787	27076	1074994	46564	110861	0	0	8113	542555	0	0
2024-08-21 19:17:47			0	37951	0	0	0	29171	27830	154819	27112	1074976	46564	110846	0	0	8112	543253	0	0
2024-08-21 19:18:47			0	37948	0	0	0	29179	27820	154847	26883	1074931	46553	110849	0	0	8112	543400	0	0
2024-08-21 19:19:47			0	37900	0	0	0	29148	27810	154983	27109	1074868	46552	110837	0	0	8110	545278	0	0
2024-08-21 19:20:47			0	37863	0	0	0	29171	27800	155127	26982	1074823	46562	110846	0	0	8107	546736	0	0
2024-08-21 19:21:47			0	37875	0	0	0	29171	27800	155271	27003	1074850	46551	110846	0	0	8108	546273	0	0
2024-08-21 19:22:47			0	37829	0	0	0	29158	27790	155419	27005	1074859	46572	110841	0	0	8105	548080	0	0
2024-08-21 19:23:47			0	37839	0	0	0	29148	27780	155335	26717	1074760	46559	110837	0	0	8106	547725	0	0
2024-08-21 19:24:47			0	37816	0	0	0	29127	27780	155447	27140	1074760	46548	110829	0	0	8105	548614	0	0
2024-08-21 19:25:47			0	37821	0	0	0	29093	27770	155475	26720	1074697	46548	110816	0	0	8106	548452	0	0
2024-08-21 19:26:47			0	37815	0	0	0	29090	27760	155391	26863	1074679	46547	110815	0	0	8105	548716	0	0
2024-08-21 19:27:47			0	37786	0	0	0	29033	27760	155511	26861	1074616	46524	110793	0	0	8105	549838	0	0
2024-08-21 19:28:47			0	37774	0	0	0	29028	27750	155739	27072	1074463	46535	110791	0	0	8104	550335	0	0
2024-08-21 19:29:47			0	37751	0	0	0	29033	27720	155831	27050	1074364	46532	110793	0	0	8102	551322	0	0
2024-08-21 19:30:47			0	37724	0	0	0	29070	27720	155843	27034	1074463	46564	110807	0	0	8100	552370	0	0
2024-08-21 19:31:47			0	37747	0	0	0	29088	27720	155847	26925	1074409	46542	110814	0	0	8101	551477	0	0
2024-08-21 19:32:47			0	37760	0	0	0	29119	27720	155839	26982	1074499	46554	110826	0	0	8102	550973	0	0
2024-08-21 19:33:47			0	37757	0	0	0	29119	27720	155775	27201	1074517	46564	110826	0	0	8101	551089	0	0
2024-08-21 19:34:47			0	37773	0	0	0	29106	27710	155723	26994	1074535	46564	110821	0	0	8102	550500	0	0
2024-08-21 19:35:47			0	37755	0	0	0	29124	27720	155855	26739	1074463	46553	110828	0	0	8101	551166	0	0
2024-08-21 19:36:47			0	37748	0	0	0	29109	27720	155843	26963	1074517	46553	110822	0	0	8101	551438	0	0
2024-08-21 19:37:47			0	37739	0	0	0	29101	27720	155835	27064	1074517	46564	110819	0	0	8101	551787	0	0
2024-08-21 19:38:47			0	37733	0	0	0	29093	27720	155999	26719	1074463	46553	110816	0	0	8100	552020	0	0
2024-08-21 19:39:47			0	37729	0	0	0	29090	27710	156011	27031	1074400	46553	110815	0	0	8100	552207	0	0
2024-08-21 19:40:47			0	37709	0	0	0	29062	27710	156039	26967	1074445	46552	110804	0	0	8099	552984	0	0
2024-08-21 19:41:47			0	37728	0	0	0	29046	27700	155955	26774	1074328	46541	110798	0	0	8101	552278	0	0
2024-08-21 19:42:47			0	37722	0	0	0	29057	27690	156063	26967	1074274	46550	110802	0	0	8100	552543	0	0
2024-08-21 19:43:47			0	37709	0	0	0	29064	27680	155979	27192	1074319	46561	110805	0	0	8099	553080	0	0
2024-08-21 19:44:47			0	37696	0	0	0	29070	27690	156079	27031	1074328	46561	110807	0	0	8099	553554	0	0
2024-08-21 19:45:47			0	37691	0	0	0	29062	27680	156095	27090	1074319	46550	110804	0	0	8098	553780	0	0
2024-08-21 19:46:47			0	37670	0	0	0	29002	27680	156091	27083	1074310	46560	110781	0	0	8098	554597	0	0
2024-08-21 19:47:47			0	37669	0	0	0	28999	27670	156091	27000	1074238	46559	110780	0	0	8098	554668	0	0
2024-08-21 19:48:47			0	37667	0	0	0	29033	27670	156171	27204	1074139	46548	110793	0	0	8097	554746	0	0
2024-08-21 19:49:47			0	37674	0	0	0	29033	27670	156175	26968	1074184	46548	110793	0	0	8098	554474	0	0
2024-08-21 19:50:47			0	37649	0	0	0	29025	27670	156219	26779	1074238	46538	110790	0	0	8096	555448	0	0
2024-08-21 19:51:47			0	37617	0	0	0	29028	27660	156383	27119	1074202	46548	110791	0	0	8095	556728	0	0
2024-08-21 19:52:47			0	37595	0	0	0	29041	27650	156515	26667	1074130	46546	110796	0	0	8093	557619	0	0
2024-08-21 19:53:47			0	37543	0	0	0	29044	27650	156635	26599	1074130	46546	110797	0	0	8090	559654	0	0
2024-08-21 19:54:47			0	37558	0	0	0	29036	27670	156615	27102	1074184	46571	110794	0	0	8091	559003	0	0
2024-08-21 19:55:47			0	37541	0	0	0	29031	27650	156723	27229	1074130	46557	110792	0	0	8090	559733	0	0
2024-08-21 19:56:47			0	37560	0	0	0	29036	27660	156647	26764	1074112	46558	110794	0	0	8091	558956	0	0
2024-08-21 19:57:47			0	37516	0	0	0	28997	27650	156631	27209	1074130	46546	110779	0	0	8089	560713	0	0
2024-08-21 19:58:47			0	37549	0	0	0	28986	27650	156635	26838	1074076	46536	110775	0	0	8091	559419	0	0
2024-08-21 19:59:47			0	37546	0	0	0	28999	27630	156643	27159	1074040	46544	110780	0	0	8091	559601	0	0
2024-08-21 20:00:47			0	37529	0	0	0	29010	27640	156719	27128	1074058	46545	110784	0	0	8090	560235	0	0
2024-08-21 20:01:47			0	37516	0	0	0	28999	27630	156723	27046	1074031	46544	110780	0	0	8089	560777	0	0
2024-08-21 20:02:47			0	37494	0	0	0	28966	27630	156855	27062	1074013	46544	110767	0	0	8088	561641	0	0
2024-08-21 20:03:47			0	37494	0	0	0	28955	27630	156843	26996	1073905	46534	110763	0	0	8088	561641	0	0
2024-08-21 20:04:47			0	37510	0	0	0	28919	27610	156939	26821	1073887	46519	110749	0	0	8090	561077	0	0
2024-08-21 20:05:47			0	37479	0	0	0	28922	27610	156967	26764	1073725	46531	110750	0	0	8088	562295	0	0
2024-08-21 20:06:47			0	37458	0	0	0	28906	27600	156903	27072	1073689	46508	110744	0	0	8087	563153	0	0
2024-08-21 20:07:47			0	37451	0	0	0	28919	27580	156979	26842	1073707	46529	110749	0	0	8086	563493	0	0
2024-08-21 20:08:47			0	37426	0	0	0	28922	27580	157143	26845	1073644	46528	110750	0	0	8085	564478	0	0
2024-08-21 20:09:47			0	37421	0	0	0	28942	27570	157183	26850	1073662	46528	110758	0	0	8084	564707	0	0
2024-08-21 20:10:47			0	37420	0	0	0	28935	27570	157307	26812	1073716	46539	110755	0	0	8084	564747	0	0
2024-08-21 20:11:47			0	37401	0	0	0	28922	27570	157319	26566	1073626	46548	110750	0	0	8083	565496	0	0
2024-08-21 20:12:47			0	37386	0	0	0	28927	27570	157363	26996	1073635	46539	110752	0	0	8082	566088	0	0
2024-08-21 20:13:47			0	37389	0	0	0	28927	27560	157379	26772	1073608	46526	110752	0	0	8082	566002	0	0
2024-08-21 20:14:47			0	37377	0	0	0	28916	27560	157567	27039	1073554	46537	110748	0	0	8082	566476	0	0
2024-08-21 20:15:47			0	37371	0	0	0	28914	27550	157523	27147	1073563	46546	110747	0	0	8082	566745	0	0
2024-08-21 20:16:47			0	37350	0	0	0	28919	27560	157535	27161	1073581	46537	110749	0	0	8080	567543	0	0
2024-08-21 20:17:47			0	37342	0	0	0	28927	27540	157563	27088	1073581	46525	110752	0	0	8080	567924	0	0
2024-08-21 20:18:47			0	37347	0	0	0	28924	27550	157727	26762	1073617	46536	110751	0	0	8080	567694	0	0
2024-08-21 20:19:47			0	37315	0	0	0	28919	27550	157747	26955	1073572	46547	110749	0	0	8078	568961	0	0
2024-08-21 20:20:47			0	37306	0	0	0	28929	27560	157622	27081	1073608	46547	110753	0	0	8078	569284	0	0
2024-08-21 20:21:47			0	37297	0	0	0	28929	27540	157650	27005	1073608	46546	110753	0	0	8077	569706	0	0
2024-08-21 20:22:47			0	37304	0	0	0	28914	27550	157666	26750	1073563	46536	110747	0	0	8078	569396	0	0
2024-08-21 20:23:47			0	37322	0	0	0	28932	27550	157691	27130	1073536	46546	110754	0	0	8078	568683	0	0
2024-08-21 20:24:47			0	37301	0	0	0	28914	27550	157694	27078	1073563	46525	110747	0	0	8078	569515	0	0
2024-08-21 20:25:47			0	37288	0	0	0	28914	27540	157830	26975	1073527	46546	110747	0	0	8077	570063	0	0
2024-08-21 20:26:47			0	37297	0	0	0	28911	27540	157722	27081	1073518	46535	110746	0	0	8077	569706	0	0
2024-08-21 20:27:47			0	37294	0	0	0	28906	27530	157778	26592	1073482	46535	110744	0	0	8077	569858	0	0
2024-08-21 20:28:47			0	37271	0	0	0	28916	27530	157870	27067	1073509	46545	110748	0	0	8076	570771	0	0
2024-08-21 20:29:47			0	37276	0	0	0	28911	27530	157902	26653	1073563	46557	110746	0	0	8076	570572	0	0
2024-08-21 20:30:47			0	37281	0	0	0	28914	27530	157826	27000	1073509	46535	110747	0	0	8076	570374	0	0
2024-08-21 20:31:47			0	37264	0	0	0	28922	27530	157806	26864	1073473	46556	110750	0	0	8075	571049	0	0
2024-08-21 20:32:47			0	37277	0	0	0	28932	27540	157866	26998	1073491	46545	110754	0	0	8076	570500	0	0
2024-08-21 20:33:47			0	37274	0	0	0	28927	27530	157846	26868	1073536	46545	110752	0	0	8076	570652	0	0
2024-08-21 20:34:47			0	37274	0	0	0	28916	27530	157810	26911	1073509	46545	110748	0	0	8076	570652	0	0
2024-08-21 20:35:47			0	37278	0	0	0	28924	27530	157758	27275	1073536	46545	110751	0	0	8076	570493	0	0
2024-08-21 20:36:47			0	37286	0	0	0	28945	27530	157818	26798	1073536	46557	110759	0	0	8076	570175	0	0
2024-08-21 20:37:47			0	37300	0	0	0	28945	27540	157786	26981	1073599	46535	110759	0	0	8077	569588	0	0
2024-08-21 20:38:47			0	37295	0	0	0	28927	27530	157714	26934	1073563	46545	110752	0	0	8077	569819	0	0
2024-08-21 20:39:47			0	37288	0	0	0	28927	27540	157778	26908	1073545	46535	110752	0	0	8077	570063	0	0
2024-08-21 20:40:47			0	37286	0	0	0	28919	27530	157782	27279	1073589	46535	110749	0	0	8076	570175	0	0
2024-08-21 20:41:47			0	37262	0	0	0	28922	27530	157770	27163	1073455	46535	110750	0	0	8075	571128	0	0
2024-08-21 20:42:47			0	37277	0	0	0	28919	27540	157814	27079	1073545	46545	110749	0	0	8076	570500	0	0
2024-08-21 20:43:47			0	37269	0	0	0	28919	27530	157862	26755	1073428	46535	110749	0	0	8075	570850	0	0
2024-08-21 20:44:47			0	37279	0	0	0	28916	27520	157790	27230	1073491	46543	110748	0	0	8076	570486	0	0
2024-08-21 20:45:47			0	37278	0	0	0	28901	27530	157842	26866	1073482	46535	110742	0	0	8076	570493	0	0
2024-08-21 20:46:47			0	37270	0	0	0	28906	27520	157890	26956	1073464	46533	110744	0	0	8076	570843	0	0
2024-08-21 20:47:47			0	37265	0	0	0	28911	27510	157990	27213	1073455	46510	110746	0	0	8075	571075	0	0
2024-08-21 20:48:47			0	37244	0	0	0	28914	27530	157886	26840	1073473	46523	110747	0	0	8074	571843	0	0
2024-08-21 20:49:47			0	37247	0	0	0	28896	27530	157930	26967	1073473	46534	110740	0	0	8075	571724	0	0
2024-08-21 20:50:47			0	37260	0	0	0	28896	27510	157926	27022	1073392	46521	110740	0	0	8075	571273	0	0
2024-08-21 20:51:47			0	37261	0	0	0	28888	27510	157882	27066	1073392	46532	110737	0	0	8075	571233	0	0
2024-08-21 20:52:47			0	37259	0	0	0	28885	27510	157826	27201	1073392	46532	110736	0	0	8075	571313	0	0
2024-08-21 20:53:47			0	37258	0	0	0	28888	27510	157890	27019	1073392	46542	110737	0	0	8075	571353	0	0
2024-08-21 20:54:47			0	37290	0	0	0	28896	27510	157794	27116	1073392	46532	110740	0	0	8077	570082	0	0
2024-08-21 20:55:47			0	37291	0	0	0	28906	27500	157850	26915	1073329	46542	110744	0	0	8077	570076	0	0
2024-08-21 20:56:47			0	37291	0	0	0	28911	27500	157726	26719	1073383	46542	110746	0	0	8077	570076	0	0
2024-08-21 20:57:47			0	37303	0	0	0	28901	27500	157722	26894	1073374	46531	110742	0	0	8078	569600	0	0
2024-08-21 20:58:47			0	37305	0	0	0	28903	27510	157650	27260	1073401	46543	110743	0	0	8078	569488	0	0
2024-08-21 20:59:47			0	37279	0	0	0	28898	27500	157742	27027	1073356	46532	110741	0	0	8076	570552	0	0
2024-08-21 21:00:47			0	37278	0	0	0	28901	27500	157802	26951	1073356	46542	110742	0	0	8076	570591	0	0
2024-08-21 21:01:47			0	37283	0	0	0	28883	27500	157942	26873	1073437	46532	110735	0	0	8077	570393	0	0
2024-08-21 21:02:47			0	37261	0	0	0	28888	27510	157822	26833	1073374	46533	110737	0	0	8075	571233	0	0
2024-08-21 21:03:47			0	37246	0	0	0	28888	27500	157910	27253	1073383	46542	110737	0	0	8075	571862	0	0
2024-08-21 21:04:47			0	37262	0	0	0	28885	27500	157938	27185	1073302	46532	110736	0	0	8076	571227	0	0
2024-08-21 21:05:47			0	37245	0	0	0	28888	27500	158062	27033	1073347	46531	110737	0	0	8074	571902	0	0
2024-08-21 21:06:47			0	37242	0	0	0	28872	27500	158002	27180	1073347	46531	110731	0	0	8075	572021	0	0
2024-08-21 21:07:47			0	37242	0	0	0	28877	27490	157962	27254	1073275	46519	110733	0	0	8074	572054	0	0
2024-08-21 21:08:47			0	37244	0	0	0	28867	27490	157958	26840	1073311	46520	110729	0	0	8075	571975	0	0
2024-08-21 21:09:47			0	37228	0	0	0	28870	27490	158102	27010	1073284	46541	110730	0	0	8074	572611	0	0
2024-08-21 21:10:47			0	37230	0	0	0	28872	27480	158130	27223	1073293	46530	110731	0	0	8074	572564	0	0
2024-08-21 21:11:47			0	37235	0	0	0	28872	27490	158098	26953	1073284	46531	110731	0	0	8074	572332	0	0
2024-08-21 21:12:47			0	37220	0	0	0	28867	27490	158138	27034	1073338	46541	110729	0	0	8073	572929	0	0
2024-08-21 21:13:47			0	37244	0	0	0	28838	27480	158082	26757	1073266	46530	110718	0	0	8075	572008	0	0
2024-08-21 21:14:47			0	37217	0	0	0	28846	27480	158106	27043	1073266	46519	110721	0	0	8073	573082	0	0
2024-08-21 21:15:47			0	37226	0	0	0	28836	27470	158138	27322	1073239	46539	110717	0	0	8074	572756	0	0
2024-08-21 21:16:47			0	37222	0	0	0	28812	27470	158158	27013	1073113	46529	110708	0	0	8074	572916	0	0
2024-08-21 21:17:47			0	37235	0	0	0	28815	27470	158210	27308	1073104	46528	110709	0	0	8075	572398	0	0
2024-08-21 21:18:47			0	37215	0	0	0	28807	27460	158154	27003	1073086	46527	110706	0	0	8074	573227	0	0
2024-08-21 21:19:47			0	37213	0	0	0	28779	27460	158194	26759	1073059	46516	110695	0	0	8074	573307	0	0
2024-08-21 21:20:47			0	37199	0	0	0	28755	27440	158246	27196	1072943	46502	110686	0	0	8074	573930	0	0
2024-08-21 21:21:47			0	37208	0	0	0	28766	27430	158306	27348	1072960	46514	110690	0	0	8074	573605	0	0
2024-08-21 21:22:47			0	37196	0	0	0	28786	27440	158334	27222	1072978	46525	110698	0	0	8073	574050	0	0
2024-08-21 21:23:47			0	37166	0	0	0	28815	27430	158338	26897	1072934	46536	110709	0	0	8071	575279	0	0
2024-08-21 21:24:47			0	37170	0	0	0	28802	27430	158402	27147	1073059	46535	110704	0	0	8071	575120	0	0
2024-08-21 21:25:47			0	37174	0	0	0	28784	27430	158534	26897	1072987	46525	110697	0	0	8072	574960	0	0
2024-08-21 21:26:47			0	37160	0	0	0	28761	27430	158474	27242	1072871	46524	110688	0	0	8071	575519	0	0
2024-08-21 21:27:47			0	37167	0	0	0	28763	27420	158498	27126	1072889	46523	110689	0	0	8072	575272	0	0
2024-08-21 21:28:47			0	37146	0	0	0	28755	27420	158514	26890	1072853	46500	110686	0	0	8071	576111	0	0
2024-08-21 21:29:47			0	37143	0	0	0	28753	27420	158566	27055	1072889	46534	110685	0	0	8070	576231	0	0
2024-08-21 21:30:47			0	37098	0	0	0	28755	27420	158630	27128	1072906	46534	110686	0	0	8068	578031	0	0
2024-08-21 21:31:47			0	37075	0	0	0	28742	27410	158774	27156	1072861	46522	110681	0	0	8067	578985	0	0
2024-08-21 21:32:47			0	37069	0	0	0	28740	27400	158782	27057	1072825	46521	110680	0	0	8066	579259	0	0
2024-08-21 21:33:47			0	37058	0	0	0	28727	27390	158846	26830	1072780	46520	110675	0	0	8066	579734	0	0
2024-08-21 21:34:47			0	37033	0	0	0	28722	27400	158986	26604	1072771	46510	110673	0	0	8064	580704	0	0
2024-08-21 21:35:47			0	37007	0	0	0	28714	27390	159034	27038	1072753	46509	110670	0	0	8063	581782	0	0
2024-08-21 21:36:47			0	37028	0	0	0	28706	27380	159174	27150	1072699	46507	110667	0	0	8064	580971	0	0
2024-08-21 21:37:47			0	37004	0	0	0	28711	27380	159234	26821	1072619	46496	110669	0	0	8063	581936	0	0
2024-08-21 21:38:47			0	36989	0	0	0	28722	27370	159306	26736	1072663	46541	110673	0	0	8062	582573	0	0
2024-08-21 21:39:47			0	36974	0	0	0	28742	27370	159242	26920	1072717	46529	110681	0	0	8060	583177	0	0
2024-08-21 21:40:47			0	36965	0	0	0	28774	27380	159394	27024	1072726	46541	110693	0	0	8059	583506	0	0
2024-08-21 21:41:47			0	36960	0	0	0	28786	27370	159334	26677	1072744	46529	110698	0	0	8059	583741	0	0
2024-08-21 21:42:47			0	36958	0	0	0	28792	27390	159306	27046	1072798	46531	110700	0	0	8059	583754	0	0
2024-08-21 21:43:47			0	36951	0	0	0	28799	27380	159306	26963	1072834	46541	110703	0	0	8058	584070	0	0
2024-08-21 21:44:47			0	36939	0	0	0	28799	27390	159270	27183	1072834	46520	110703	0	0	8057	584521	0	0
2024-08-21 21:45:47			0	36931	0	0	0	28789	27400	159478	26922	1072870	46531	110699	0	0	8057	584810	0	0
2024-08-21 21:46:47			0	36870	0	0	0	28797	27380	159662	27055	1072762	46530	110702	0	0	8053	587342	0	0
2024-08-21 21:47:47			0	36833	0	0	0	28789	27400	159878	26889	1072870	46531	110699	0	0	8051	588773	0	0
2024-08-21 21:48:47			0	36779	0	0	0	28779	27380	160018	27008	1072762	46530	110695	0	0	8048	591033	0	0
2024-08-21 21:49:47			0	36712	0	0	0	28781	27400	160302	26731	1072843	46520	110696	0	0	8044	593692	0	0
2024-08-21 21:50:47			0	36658	0	0	0	28794	27400	160554	26807	1072816	46520	110701	0	0	8041	595896	0	0
2024-08-21 21:51:47			0	36613	0	0	0	28786	27390	160834	27112	1072798	46531	110698	0	0	8038	597772	0	0
2024-08-21 21:52:47			0	36575	0	0	0	28784	27390	160977	27043	1072771	46531	110697	0	0	8036	599329	0	0
2024-08-21 21:53:47			0	36542	0	0	0	28776	27390	161173	27102	1072861	46531	110694	0	0	8034	600684	0	0
2024-08-21 21:54:47			0	36515	0	0	0	28781	27390	161233	26809	1072834	46531	110696	0	0	8033	601795	0	0
2024-08-21 21:55:47			0	36485	0	0	0	28776	27380	161329	26625	1072816	46530	110694	0	0	8031	603065	0	0
2024-08-21 21:56:47			0	36473	0	0	0	28774	27390	161477	27138	1072780	46531	110693	0	0	8030	603524	0	0
2024-08-21 21:57:47			0	36462	0	0	0	28776	27380	161465	26861	1072789	46508	110694	0	0	8030	604013	0	0
2024-08-21 21:58:47			0	36435	0	0	0	28768	27390	161645	26970	1072807	46520	110691	0	0	8028	605093	0	0
2024-08-21 21:59:47			0	36420	0	0	0	28774	27390	161693	26831	1072807	46531	110693	0	0	8027	605712	0	0
2024-08-21 22:00:47			0	36443	0	0	0	28774	27370	161533	26731	1072798	46529	110693	0	0	8028	604832	0	0
2024-08-21 22:01:47			0	36431	0	0	0	28766	27380	161581	26963	1072780	46529	110690	0	0	8028	605293	0	0
2024-08-21 22:02:47			0	36431	0	0	0	28774	27380	161629	26866	1072753	46507	110693	0	0	8028	605293	0	0
2024-08-21 22:03:47			0	36417	0	0	0	28776	27390	161605	27043	1072771	46520	110694	0	0	8027	605836	0	0
2024-08-21 22:04:47			0	36434	0	0	0	28776	27370	161613	27079	1072771	46541	110694	0	0	8028	605204	0	0
2024-08-21 22:05:47			0	36450	0	0	0	28768	27380	161529	27261	1072762	46530	110691	0	0	8029	604508	0	0
2024-08-21 22:06:47			0	36453	0	0	0	28755	27370	161393	27102	1072798	46518	110686	0	0	8029	604419	0	0
2024-08-21 22:07:47			0	36452	0	0	0	28745	27380	161373	26993	1072726	46518	110682	0	0	8029	604426	0	0
2024-08-21 22:08:47			0	36466	0	0	0	28740	27370	161305	27034	1072717	46529	110680	0	0	8030	603883	0	0
2024-08-21 22:09:47			0	36484	0	0	0	28735	27370	161313	27131	1072663	46541	110678	0	0	8032	603140	0	0
2024-08-21 22:10:47			0	36487	0	0	0	28737	27360	161169	26833	1072663	46527	110679	0	0	8032	603051	0	0
2024-08-21 22:11:47			0	36495	0	0	0	28742	27370	161353	26738	1072681	46518	110681	0	0	8032	602687	0	0
2024-08-21 22:12:47			0	36493	0	0	0	28737	27360	161249	26819	1072672	46517	110679	0	0	8032	602804	0	0
2024-08-21 22:13:47			0	36495	0	0	0	28740	27360	161333	26675	1072636	46539	110680	0	0	8032	602722	0	0
2024-08-21 22:14:47			0	36505	0	0	0	28740	27350	161297	26880	1072627	46539	110680	0	0	8033	602345	0	0
2024-08-21 22:15:47			0	36476	0	0	0	28735	27350	161401	26974	1072600	46527	110678	0	0	8031	603540	0	0
2024-08-21 22:16:47			0	36476	0	0	0	28737	27350	161441	26934	1072618	46516	110679	0	0	8031	603540	0	0
2024-08-21 22:17:47			0	36470	0	0	0	28735	27350	161425	26720	1072627	46539	110678	0	0	8031	603787	0	0
2024-08-21 22:18:47			0	36462	0	0	0	28740	27350	161413	26833	1072591	46527	110680	0	0	8030	604117	0	0
2024-08-21 22:19:47			0	36473	0	0	0	28740	27350	161433	27012	1072627	46527	110680	0	0	8031	603663	0	0
2024-08-21 22:20:47			0	36466	0	0	0	28732	27350	161389	27031	1072564	46539	110677	0	0	8030	603952	0	0
2024-08-21 22:21:47			0	36473	0	0	0	28735	27350	161489	26951	1072645	46516	110678	0	0	8031	603663	0	0
2024-08-21 22:22:47			0	36497	0	0	0	28729	27350	161349	27038	1072600	46516	110676	0	0	8032	602674	0	0
2024-08-21 22:23:47			0	36491	0	0	0	28719	27350	161365	27149	1072564	46527	110672	0	0	8032	602921	0	0
2024-08-21 22:24:47			0	36514	0	0	0	28724	27350	161273	26759	1072600	46516	110674	0	0	8033	601974	0	0
2024-08-21 22:25:47			0	36511	0	0	0	28722	27340	161149	27248	1072555	46526	110673	0	0	8033	602132	0	0
2024-08-21 22:26:47			0	36498	0	0	0	28714	27340	161277	27170	1072609	46526	110670	0	0	8033	602667	0	0
2024-08-21 22:27:47			0	36500	0	0	0	28709	27350	161217	26849	1072564	46539	110668	0	0	8033	602551	0	0
2024-08-21 22:28:47			0	36509	0	0	0	28703	27340	161153	27149	1072493	46525	110666	0	0	8033	602215	0	0
2024-08-21 22:29:47			0	36497	0	0	0	28703	27340	161189	26941	1072520	46525	110666	0	0	8033	602709	0	0
2024-08-21 22:30:47			0	36498	0	0	0	28714	27330	161337	27052	1072475	46513	110670	0	0	8033	602702	0	0
2024-08-21 22:31:47			0	36481	0	0	0	28688	27330	161309	26894	1072421	46513	110660	0	0	8032	603403	0	0
2024-08-21 22:32:47			0	36505	0	0	0	28693	27330	161297	26793	1072457	46536	110662	0	0	8033	602414	0	0
2024-08-21 22:33:47			0	36505	0	0	0	28688	27330	161365	27001	1072448	46536	110660	0	0	8033	602414	0	0
2024-08-21 22:34:47			0	36502	0	0	0	28688	27310	161257	27185	1072394	46511	110660	0	0	8033	602607	0	0
2024-08-21 22:35:47			0	36514	0	0	0	28685	27310	161333	26835	1072358	46522	110659	0	0	8034	602112	0	0
2024-08-21 22:36:47			0	36519	0	0	0	28690	27320	161249	27249	1072457	46512	110661	0	0	8034	601872	0	0
2024-08-21 22:37:47			0	36525	0	0	0	28693	27310	161201	26738	1072394	46511	110662	0	0	8034	601660	0	0
2024-08-21 22:38:47			0	36527	0	0	0	28685	27310	161093	27062	1072331	46522	110659	0	0	8035	601577	0	0
2024-08-21 22:39:47			0	36532	0	0	0	28677	27310	161153	27027	1072385	46522	110656	0	0	8035	601372	0	0
2024-08-21 22:40:47			0	36533	0	0	0	28672	27300	161121	27121	1072340	46510	110654	0	0	8035	601365	0	0
2024-08-21 22:41:47			0	36534	0	0	0	28683	27300	161073	26805	1072322	46511	110658	0	0	8035	601324	0	0
2024-08-21 22:42:47			0	36541	0	0	0	28651	27300	161189	27223	1072340	46521	110646	0	0	8036	601036	0	0
2024-08-21 22:43:47			0	36567	0	0	0	28670	27290	161113	26967	1072277	46509	110653	0	0	8037	600002	0	0
2024-08-21 22:44:47			0	36562	0	0	0	28654	27290	161057	27015	1072268	46520	110647	0	0	8037	600208	0	0
2024-08-21 22:45:47			0	36549	0	0	0	28657	27290	160989	26708	1072268	46520	110648	0	0	8036	600742	0	0
2024-08-21 22:46:47			0	36543	0	0	0	28649	27290	161081	26847	1072304	46499	110645	0	0	8036	600988	0	0
2024-08-21 22:47:47			0	36565	0	0	0	28664	27280	160997	27017	1072285	46509	110651	0	0	8037	600119	0	0
2024-08-21 22:48:47			0	36568	0	0	0	28670	27280	161021	27041	1072285	46520	110653	0	0	8037	599996	0	0
2024-08-21 22:49:47			0	36549	0	0	0	28662	27290	160993	27069	1072268	46520	110650	0	0	8036	600742	0	0
2024-08-21 22:50:47			0	36576	0	0	0	28649	27280	161073	27239	1072276	46519	110645	0	0	8038	599667	0	0
2024-08-21 22:51:47			0	36556	0	0	0	28662	27270	161081	27039	1072205	46506	110650	0	0	8037	600523	0	0
2024-08-21 22:52:47			0	36579	0	0	0	28657	27270	160953	27235	1072214	46507	110648	0	0	8038	599579	0	0
2024-08-21 22:53:47			0	36591	0	0	0	28646	27270	160886	27020	1072205	46529	110644	0	0	8039	599086	0	0
2024-08-21 22:54:47			0	36596	0	0	0	28644	27270	160910	27026	1072160	46518	110643	0	0	8039	598881	0	0
2024-08-21 22:55:47			0	36605	0	0	0	28641	27270	160882	26752	1072205	46506	110642	0	0	8040	598512	0	0
2024-08-21 22:56:47			0	36602	0	0	0	28641	27270	160858	26720	1072151	46517	110642	0	0	8040	598635	0	0
2024-08-21 22:57:47			0	36636	0	0	0	28631	27270	160826	26724	1072187	46507	110638	0	0	8042	597242	0	0
2024-08-21 22:58:47			0	36633	0	0	0	28633	27260	160910	26840	1072169	46529	110639	0	0	8042	597399	0	0
2024-08-21 22:59:47			0	36641	0	0	0	28618	27260	160770	26599	1072115	46517	110633	0	0	8042	597071	0	0
2024-08-21 23:00:47			0	36656	0	0	0	28615	27250	160686	26876	1072097	46505	110632	0	0	8043	596492	0	0
2024-08-21 23:01:47			0	36669	0	0	0	28576	27260	160554	26814	1072133	46496	110617	0	0	8045	595926	0	0
2024-08-21 23:02:47			0	36680	0	0	0	28558	27240	160534	27090	1072025	46515	110610	0	0	8046	595545	0	0
2024-08-21 23:03:47			0	36707	0	0	0	28548	27240	160486	26611	1071998	46504	110606	0	0	8047	594442	0	0
2024-08-21 23:04:47			0	36720	0	0	0	28501	27230	160478	26679	1071926	46481	110588	0	0	8049	593946	0	0
2024-08-21 23:05:47			0	36719	0	0	0	28488	27240	160426	26783	1071855	46504	110583	0	0	8049	593952	0	0
2024-08-21 23:06:47			0	36706	0	0	0	28433	27210	160394	26897	1071657	46502	110562	0	0	8049	594585	0	0
2024-08-21 23:07:47			0	36698	0	0	0	28418	27190	160406	26856	1071504	46489	110556	0	0	8049	594980	0	0
2024-08-21 23:08:47			0	36731	0	0	0	28410	27170	160334	27012	1071450	46487	110553	0	0	8051	593702	0	0
2024-08-21 23:09:47			0	36705	0	0	0	28410	27160	160510	26764	1071369	46462	110553	0	0	8049	594797	0	0
2024-08-21 23:10:47			0	36707	0	0	0	28389	27140	160606	26842	1071288	46484	110545	0	0	8050	594783	0	0
2024-08-21 23:11:47			0	36712	0	0	0	28368	27130	160514	27190	1071181	46459	110537	0	0	8050	594613	0	0
2024-08-21 23:12:47			0	36704	0	0	0	28353	27110	160526	26687	1071064	46458	110531	0	0	8050	595008	0	0
2024-08-21 23:13:47			0	36709	0	0	0	28337	27090	160582	26795	1071010	46456	110525	0	0	8050	594872	0	0
2024-08-21 23:14:47			0	36701	0	0	0	28335	27080	160698	26961	1070929	46455	110524	0	0	8050	595233	0	0
2024-08-21 23:15:47			0	36702	0	0	0	28329	27060	160634	26727	1070902	46463	110522	0	0	8050	595261	0	0
2024-08-21 23:16:47			0	36698	0	0	0	28324	27050	160670	26710	1070857	46462	110520	0	0	8050	595458	0	0
2024-08-21 23:17:47			0	36679	0	0	0	28316	27040	160690	27102	1070857	46473	110517	0	0	8049	596270	0	0
2024-08-21 23:18:47			0	36686	0	0	0	28316	27030	160746	27166	1070785	46471	110517	0	0	8049	596017	0	0
2024-08-21 23:19:47			0	36683	0	0	0	28316	27010	160766	26812	1070731	46481	110517	0	0	8049	596209	0	0
2024-08-21 23:20:47			0	36667	0	0	0	28309	27010	160754	26970	1070668	46480	110514	0	0	8048	596863	0	0
2024-08-21 23:21:47			0	36688	0	0	0	28306	27010	160758	26849	1070641	46480	110513	0	0	8049	596004	0	0
2024-08-21 23:22:47			0	36685	0	0	0	28301	27000	160730	26965	1070686	46491	110511	0	0	8049	596161	0	0
2024-08-21 23:23:47			0	36704	0	0	0	28311	27000	160902	27064	1070623	46490	110515	0	0	8050	595384	0	0
2024-08-21 23:24:47			0	36690	0	0	0	28290	26980	160762	26608	1070623	46478	110507	0	0	8049	596025	0	0
2024-08-21 23:25:47			0	36675	0	0	0	28296	26970	160826	27001	1070632	46488	110509	0	0	8048	596673	0	0
2024-08-21 23:26:47			0	36698	0	0	0	28296	26970	160842	26986	1070470	46500	110509	0	0	8050	595732	0	0
2024-08-21 23:27:47			0	36683	0	0	0	28306	26960	160826	27033	1070506	46476	110513	0	0	8049	596380	0	0
2024-08-21 23:28:47			0	36676	0	0	0	28303	26960	160822	27123	1070443	46475	110512	0	0	8048	596666	0	0
2024-08-21 23:29:47			0	36686	0	0	0	28306	26960	160846	26812	1070443	46486	110513	0	0	8049	596257	0	0
2024-08-21 23:30:47			0	36690	0	0	0	28301	26960	160914	26896	1070551	46486	110511	0	0	8049	596093	0	0
2024-08-21 23:31:47			0	36670	0	0	0	28288	26960	160874	27026	1070416	46486	110506	0	0	8048	596912	0	0
2024-08-21 23:32:47			0	36665	0	0	0	28298	26940	160910	26948	1070389	46485	110510	0	0	8048	597185	0	0
2024-08-21 23:33:47			0	36675	0	0	0	28293	26940	160838	27046	1070389	46474	110508	0	0	8048	596775	0	0
2024-08-21 23:34:47			0	36691	0	0	0	28296	26930	160926	26955	1070380	46484	110509	0	0	8049	596155	0	0
2024-08-21 23:35:47			0	36670	0	0	0	28311	26920	160858	27142	1070362	46483	110515	0	0	8048	597049	0	0
2024-08-21 23:36:47			0	36682	0	0	0	28309	26930	160894	26960	1070398	46483	110514	0	0	8048	596523	0	0
2024-08-21 23:37:47			0	36700	0	0	0	28293	26930	160890	27279	1070380	46484	110508	0	0	8050	595787	0	0
2024-08-21 23:38:47			0	36678	0	0	0	28301	26920	160854	27170	1070443	46483	110511	0	0	8048	596721	0	0
2024-08-21 23:39:47			0	36673	0	0	0	28288	26930	160782	27208	1070371	46472	110506	0	0	8048	596891	0	0
2024-08-21 23:40:47			0	36678	0	0	0	28264	26930	160834	27270	1070398	46483	110497	0	0	8049	596687	0	0
2024-08-21 23:41:47			0	36702	0	0	0	28257	26920	160946	27010	1070300	46460	110494	0	0	8050	595739	0	0
2024-08-21 23:42:47			0	36678	0	0	0	28251	26910	160946	27367	1070281	46481	110492	0	0	8049	596755	0	0
2024-08-21 23:43:47			0	36703	0	0	0	28259	26910	160894	26824	1070254	46481	110495	0	0	8050	595732	0	0
2024-08-21 23:44:47			0	36688	0	0	0	28262	26910	160950	26908	1070362	46470	110496	0	0	8049	596346	0	0
2024-08-21 23:45:47			0	36690	0	0	0	28270	26900	160878	27031	1070272	46493	110499	0	0	8049	596298	0	0
2024-08-21 23:46:47			0	36691	0	0	0	28293	26900	160850	27034	1070299	46493	110508	0	0	8049	596257	0	0
2024-08-21 23:47:47			0	36690	0	0	0	28306	26910	160846	27053	1070318	46482	110513	0	0	8049	596264	0	0
2024-08-21 23:48:47			0	36704	0	0	0	28290	26910	160854	26772	1070371	46482	110507	0	0	8050	595691	0	0
2024-08-21 23:49:47			0	36707	0	0	0	28270	26910	160798	27124	1070318	46482	110499	0	0	8050	595569	0	0
2024-08-21 23:50:47			0	36713	0	0	0	28259	26910	160858	27152	1070291	46471	110495	0	0	8051	595323	0	0
2024-08-21 23:51:47			0	36719	0	0	0	28254	26900	160710	27218	1070272	46470	110493	0	0	8051	595112	0	0
2024-08-21 23:52:47			0	36729	0	0	0	28257	26900	160686	26897	1070218	46481	110494	0	0	8052	594704	0	0
2024-08-21 23:53:47			0	36747	0	0	0	28264	26900	160710	26805	1070245	46470	110497	0	0	8053	593968	0	0
2024-08-21 23:54:47			0	36734	0	0	0	28262	26900	160674	26946	1070326	46503	110496	0	0	8052	594499	0	0
2024-08-21 23:55:47			0	36748	0	0	0	28259	26900	160726	26831	1070290	46469	110495	0	0	8053	593928	0	0
2024-08-21 23:56:47			0	36748	0	0	0	28257	26900	160670	27237	1070272	46470	110494	0	0	8053	593928	0	0
2024-08-21 23:57:47			0	36754	0	0	0	28251	26900	160642	26868	1070209	46469	110492	0	0	8053	593683	0	0
2024-08-21 23:58:47			0	36742	0	0	0	28246	26900	160526	26842	1070236	46480	110490	0	0	8053	594173	0	0
2024-08-21 23:59:47			0	36754	0	0	0	28228	26890	160630	27071	1070200	46480	110483	0	0	8054	593717	0	0
2024-08-22 00:00:47			0	36758	0	0	0	28220	26880	160594	26838	1070075	46467	110480	0	0	8054	593588	0	0
2024-08-22 00:01:47			0	36755	0	0	0	28202	26880	160570	26755	1070120	46457	110473	0	0	8054	593710	0	0
2024-08-22 00:02:47			0	36764	0	0	0	28181	26870	160590	26915	1070021	46456	110465	0	0	8055	593377	0	0
2024-08-22 00:03:47			0	36768	0	0	0	28168	26860	160642	26745	1070012	46455	110460	0	0	8056	593248	0	0
2024-08-22 00:04:47			0	36772	0	0	0	28158	26860	160526	26837	1069949	46443	110456	0	0	8056	593085	0	0
2024-08-22 00:05:47			0	36793	0	0	0	28137	26850	160554	27286	1069940	46455	110448	0	0	8057	592263	0	0
2024-08-22 00:06:47			0	36768	0	0	0	28132	26850	160522	27121	1069860	46465	110446	0	0	8056	593282	0	0
2024-08-22 00:07:47			0	36770	0	0	0	28124	26830	160490	26759	1069815	46440	110443	0	0	8056	593268	0	0
2024-08-22 00:08:47			0	36768	0	0	0	28122	26820	160566	27104	1069752	46439	110442	0	0	8056	593384	0	0
2024-08-22 00:09:47			0	36781	0	0	0	28109	26820	160534	26972	1069644	46451	110437	0	0	8057	592854	0	0
2024-08-22 00:10:47			0	36781	0	0	0	28085	26800	160486	26942	1069653	46448	110428	0	0	8057	592922	0	0
2024-08-22 00:11:47			0	36789	0	0	0	28083	26800	160486	27017	1069572	46458	110427	0	0	8058	592595	0	0
2024-08-22 00:12:47			0	36781	0	0	0	28075	26780	160518	27145	1069455	46434	110424	0	0	8057	592990	0	0
2024-08-22 00:13:47			0	36784	0	0	0	28072	26770	160466	27163	1069437	46446	110423	0	0	8058	592901	0	0
2024-08-22 00:14:47			0	36787	0	0	0	28057	26760	160550	27050	1069392	46444	110417	0	0	8058	592813	0	0
2024-08-22 00:15:47			0	36792	0	0	0	28054	26750	160618	27033	1069330	46431	110416	0	0	8058	592643	0	0
2024-08-22 00:16:47			0	36787	0	0	0	28049	26740	160578	26955	1069285	46443	110414	0	0	8058	592881	0	0
2024-08-22 00:17:47			0	36799	0	0	0	28046	26730	160658	26972	1069186	46441	110413	0	0	8059	592425	0	0
2024-08-22 00:18:47			0	36776	0	0	0	28038	26720	160670	26677	1069159	46451	110410	0	0	8057	593397	0	0
2024-08-22 00:19:47			0	36775	0	0	0	28033	26710	160730	26922	1069177	46427	110408	0	0	8057	593472	0	0
2024-08-22 00:20:47			0	36769	0	0	0	28028	26710	160674	26965	1069150	46439	110406	0	0	8057	593717	0	0
2024-08-22 00:21:47			0	36793	0	0	0	28031	26690	160706	27036	1069141	46425	110407	0	0	8058	592806	0	0
2024-08-22 00:22:47			0	36780	0	0	0	28028	26700	160662	27086	1069132	46427	110406	0	0	8058	593302	0	0
2024-08-22 00:23:47			0	36776	0	0	0	28036	26690	160842	27185	1069141	46425	110409	0	0	8057	593499	0	0
2024-08-22 00:24:47			0	36780	0	0	0	28023	26680	160730	26866	1069033	46447	110404	0	0	8058	593370	0	0
2024-08-22 00:25:47			0	36794	0	0	0	28020	26690	160698	27005	1069105	46447	110403	0	0	8059	592765	0	0
2024-08-22 00:26:47			0	36787	0	0	0	28028	26670	160730	27116	1068962	46456	110406	0	0	8058	593118	0	0
2024-08-22 00:27:47			0	36779	0	0	0	28023	26660	160754	26724	1068979	46445	110404	0	0	8058	593479	0	0
2024-08-22 00:28:47			0	36785	0	0	0	28025	26650	160774	27034	1068961	46466	110405	0	0	8058	593268	0	0
2024-08-22 00:29:47			0	36780	0	0	0	28025	26660	160746	27003	1068979	46445	110405	0	0	8058	593438	0	0
2024-08-22 00:30:47			0	36771	0	0	0	28020	26640	160798	26831	1068952	46443	110403	0	0	8057	593873	0	0
2024-08-22 00:31:47			0	36790	0	0	0	28023	26650	160838	27177	1068961	46444	110404	0	0	8058	593064	0	0
2024-08-22 00:32:47			0	36765	0	0	0	28028	26650	160786	26963	1068934	46444	110406	0	0	8057	594084	0	0
2024-08-22 00:33:47			0	36784	0	0	0	28015	26640	160782	27230	1068925	46443	110401	0	0	8058	593343	0	0
2024-08-22 00:34:47			0	36776	0	0	0	28023	26640	160798	26741	1068898	46443	110404	0	0	8057	593669	0	0
2024-08-22 00:35:47			0	36778	0	0	0	28020	26640	160770	26979	1068889	46432	110403	0	0	8058	593587	0	0
2024-08-22 00:36:47			0	36772	0	0	0	28023	26630	160850	26949	1068925	46475	110404	0	0	8057	593866	0	0
2024-08-22 00:37:47			0	36747	0	0	0	28020	26630	160846	26993	1068907	46443	110403	0	0	8056	594888	0	0
2024-08-22 00:38:47			0	36762	0	0	0	28020	26630	160918	27066	1068898	46442	110403	0	0	8057	594275	0	0
2024-08-22 00:39:47			0	36768	0	0	0	28020	26630	160834	27332	1068854	46454	110403	0	0	8057	594030	0	0
2024-08-22 00:40:47			0	36761	0	0	0	28018	26630	160938	27145	1068925	46453	110402	0	0	8056	594316	0	0
2024-08-22 00:41:47			0	36749	0	0	0	28023	26630	160882	27237	1068934	46443	110404	0	0	8056	594806	0	0
2024-08-22 00:42:47			0	36745	0	0	0	28023	26630	160910	27185	1068907	46465	110404	0	0	8055	594970	0	0
2024-08-22 00:43:47			0	36758	0	0	0	28031	26640	160894	26882	1069024	46465	110407	0	0	8056	594404	0	0
2024-08-22 00:44:47			0	36756	0	0	0	28051	26630	160926	26844	1068961	46465	110415	0	0	8056	594520	0	0
2024-08-22 00:45:47			0	36758	0	0	0	28059	26650	160978	26949	1069015	46466	110418	0	0	8056	594370	0	0
2024-08-22 00:46:47			0	36760	0	0	0	28062	26640	160862	26693	1069033	46465	110419	0	0	8056	594323	0	0
2024-08-22 00:47:47			0	36750	0	0	0	28067	26650	161002	26826	1069042	46466	110421	0	0	8055	594697	0	0
2024-08-22 00:48:47			0	36750	0	0	0	28054	26660	160926	27036	1069078	46445	110416	0	0	8055	594663	0	0
2024-08-22 00:49:47			0	36741	0	0	0	28062	26660	160922	26991	1069078	46456	110419	0	0	8055	595031	0	0
2024-08-22 00:50:47			0	36743	0	0	0	28054	26660	161026	27187	1069033	46456	110416	0	0	8055	594949	0	0
2024-08-22 00:51:47			0	36755	0	0	0	28054	26660	160954	26741	1069033	46467	110416	0	0	8056	594459	0	0
2024-08-22 00:52:47			0	36742	0	0	0	28054	26660	160982	27147	1069024	46456	110416	0	0	8055	594990	0	0
2024-08-22 00:53:47			0	36739	0	0	0	28051	26660	161014	27059	1069078	46456	110415	0	0	8055	595113	0	0
2024-08-22 00:54:47			0	36728	0	0	0	28049	26660	161074	26908	1069033	46456	110414	0	0	8054	595562	0	0
2024-08-22 00:55:47			0	36722	0	0	0	28049	26660	161070	26918	1069078	46456	110414	0	0	8054	595808	0	0
2024-08-22 00:56:47			0	36721	0	0	0	28064	26660	161138	26885	1069033	46467	110420	0	0	8053	595849	0	0
2024-08-22 00:57:47			0	36726	0	0	0	28085	26660	161110	27208	1069078	46456	110428	0	0	8053	595644	0	0
2024-08-22 00:58:47			0	36726	0	0	0	28096	26660	161114	27085	1069078	46467	110432	0	0	8053	595644	0	0
2024-08-22 00:59:47			0	36729	0	0	0	28098	26660	161094	26793	1069140	46467	110433	0	0	8053	595522	0	0
2024-08-22 01:00:47			0	36647	0	0	0	28088	26680	161306	27000	1069168	46469	110429	0	0	8049	598814	0	0
2024-08-22 01:01:47			0	36575	0	0	0	28080	26670	161689	26729	1069177	46456	110426	0	0	8045	601810	0	0
2024-08-22 01:02:47			0	36505	0	0	0	28101	26680	162033	27273	1069204	46458	110434	0	0	8040	604664	0	0
2024-08-22 01:03:47			0	36477	0	0	0	28122	26690	162225	27149	1069222	46470	110442	0	0	8038	605787	0	0
2024-08-22 01:04:47			0	36439	0	0	0	28127	26690	162261	26802	1069240	46469	110444	0	0	8036	607361	0	0
2024-08-22 01:05:47			0	36400	0	0	0	28132	26700	162417	27022	1069258	46471	110446	0	0	8033	608945	0	0
2024-08-22 01:06:47			0	36381	0	0	0	28122	26700	162541	26941	1069267	46472	110442	0	0	8032	609734	0	0
2024-08-22 01:07:47			0	36375	0	0	0	28127	26700	162465	26812	1069293	46472	110444	0	0	8032	609984	0	0
2024-08-22 01:08:47			0	36345	0	0	0	28116	26710	162733	26727	1069311	46460	110440	0	0	8030	611197	0	0
2024-08-22 01:09:47			0	36317	0	0	0	28127	26700	162961	26986	1069365	46459	110444	0	0	8028	612399	0	0
2024-08-22 01:10:47			0	36247	0	0	0	28135	26710	163021	26981	1069392	46483	110447	0	0	8024	615288	0	0
2024-08-22 01:11:47			0	36260	0	0	0	28135	26720	163181	27017	1069347	46461	110447	0	0	8025	614709	0	0
2024-08-22 01:12:47			0	36221	0	0	0	28132	26710	163225	26757	1069329	46472	110446	0	0	8023	616376	0	0
2024-08-22 01:13:47			0	36244	0	0	0	28142	26720	163245	26937	1069410	46452	110450	0	0	8024	615378	0	0
2024-08-22 01:14:47			0	36248	0	0	0	28148	26720	163333	26946	1069437	46462	110452	0	0	8024	615211	0	0
2024-08-22 01:15:47			0	36231	0	0	0	28140	26730	163085	26972	1069392	46462	110449	0	0	8023	615887	0	0
2024-08-22 01:16:47			0	36228	0	0	0	28140	26720	163129	26817	1069437	46462	110449	0	0	8023	616048	0	0
2024-08-22 01:17:47			0	36231	0	0	0	28135	26720	163117	27057	1069356	46452	110447	0	0	8023	615922	0	0
2024-08-22 01:18:47			0	36235	0	0	0	28137	26740	163065	27027	1069383	46442	110448	0	0	8024	615684	0	0
2024-08-22 01:19:47			0	36234	0	0	0	28140	26730	163113	26835	1069401	46462	110449	0	0	8023	615761	0	0
2024-08-22 01:20:47			0	36224	0	0	0	28132	26740	163145	27114	1069437	46475	110446	0	0	8023	616145	0	0
2024-08-22 01:21:47			0	36250	0	0	0	28132	26740	163097	27010	1069491	46463	110446	0	0	8025	615057	0	0
2024-08-22 01:22:47			0	36232	0	0	0	28129	26730	163141	26911	1069419	46452	110445	0	0	8023	615845	0	0
2024-08-22 01:23:47			0	36246	0	0	0	28127	26730	163073	26750	1069482	46474	110444	0	0	8024	615259	0	0
2024-08-22 01:24:47			0	36256	0	0	0	28122	26730	163037	26663	1069401	46474	110442	0	0	8025	614841	0	0
2024-08-22 01:25:47			0	36235	0	0	0	28119	26730	163117	26765	1069428	46452	110441	0	0	8024	615719	0	0
2024-08-22 01:26:47			0	36248	0	0	0	28111	26740	163097	27083	1069446	46454	110438	0	0	8025	615140	0	0
2024-08-22 01:27:47			0	36246	0	0	0	28096	26740	163145	27050	1069410	46430	110432	0	0	8025	615224	0	0
2024-08-22 01:28:47			0	36245	0	0	0	28085	26730	162993	26779	1069338	46452	110428	0	0	8025	615301	0	0
2024-08-22 01:29:47			0	36249	0	0	0	28083	26720	163017	27033	1069320	46451	110427	0	0	8025	615169	0	0
2024-08-22 01:30:47			0	36294	0	0	0	28080	26730	163025	26745	1069312	46441	110426	0	0	8028	613253	0	0
2024-08-22 01:31:47			0	36292	0	0	0	28080	26720	162897	27215	1069276	46441	110426	0	0	8028	613372	0	0
2024-08-22 01:32:47			0	36292	0	0	0	28072	26720	162833	26845	1069267	46440	110423	0	0	8028	613372	0	0
2024-08-22 01:33:47			0	36299	0	0	0	28070	26720	162829	27137	1069222	46441	110422	0	0	8028	613080	0	0
2024-08-22 01:34:47			0	36310	0	0	0	28067	26700	162773	26788	1069240	46472	110421	0	0	8029	612691	0	0
2024-08-22 01:35:47			0	36316	0	0	0	28072	26700	162681	27027	1069258	46449	110423	0	0	8029	612441	0	0
2024-08-22 01:36:47			0	36297	0	0	0	28070	26700	162717	27043	1069177	46471	110422	0	0	8028	613233	0	0
2024-08-22 01:37:47			0	36318	0	0	0	28090	26690	162721	27046	1069222	46448	110430	0	0	8029	612393	0	0
2024-08-22 01:38:47			0	36310	0	0	0	28088	26700	162653	26894	1069204	46459	110429	0	0	8029	612691	0	0
2024-08-22 01:39:47			0	36305	0	0	0	28090	26700	162673	26948	1069240	46460	110430	0	0	8028	612900	0	0
2024-08-22 01:40:47			0	36323	0	0	0	28083	26690	162693	26743	1069222	46458	110427	0	0	8030	612184	0	0
2024-08-22 01:41:47			0	36335	0	0	0	28077	26690	162661	27043	1069195	46458	110425	0	0	8030	611684	0	0
2024-08-22 01:42:47			0	36341	0	0	0	28072	26690	162725	26913	1069195	46436	110423	0	0	8031	611434	0	0
2024-08-22 01:43:47			0	36340	0	0	0	28070	26690	162765	26989	1069141	46448	110422	0	0	8031	611476	0	0
2024-08-22 01:44:47			0	36358	0	0	0	28070	26690	162605	26821	1069141	46458	110422	0	0	8032	610726	0	0
2024-08-22 01:45:47			0	36354	0	0	0	28064	26680	162649	26715	1069177	46458	110420	0	0	8032	610928	0	0
2024-08-22 01:46:47			0	36370	0	0	0	28057	26690	162613	27005	1069105	46458	110417	0	0	8033	610227	0	0
2024-08-22 01:47:47			0	36372	0	0	0	28062	26690	162581	26953	1069159	46458	110419	0	0	8033	610144	0	0
2024-08-22 01:48:47			0	36381	0	0	0	28059	26680	162613	27194	1069123	46458	110418	0	0	8033	609804	0	0
2024-08-22 01:49:47			0	36374	0	0	0	28059	26680	162533	27085	1069069	46447	110418	0	0	8033	610095	0	0
2024-08-22 01:50:47			0	36374	0	0	0	28057	26680	162597	27034	1069060	46447	110417	0	0	8033	610095	0	0
2024-08-22 01:51:47			0	36376	0	0	0	28054	26670	162573	26948	1069105	46468	110416	0	0	8033	610047	0	0
2024-08-22 01:52:47			0	36379	0	0	0	28051	26690	162513	26705	1069105	46458	110415	0	0	8033	609852	0	0
2024-08-22 01:53:47			0	36380	0	0	0	28057	26670	162497	27043	1069051	46457	110417	0	0	8033	609881	0	0
2024-08-22 01:54:47			0	36395	0	0	0	28054	26660	162541	27060	1069060	46434	110416	0	0	8034	609292	0	0
2024-08-22 01:55:47			0	36376	0	0	0	28049	26660	162505	27036	1069114	46456	110414	0	0	8033	610082	0	0
2024-08-22 01:56:47			0	36396	0	0	0	28049	26660	162353	26798	1069033	46456	110414	0	0	8034	609251	0	0
2024-08-22 01:57:47			0	36396	0	0	0	28046	26660	162405	26817	1069024	46467	110413	0	0	8034	609251	0	0
2024-08-22 01:58:47			0	36413	0	0	0	28057	26660	162429	26876	1069060	46467	110417	0	0	8035	608545	0	0
2024-08-22 01:59:47			0	36408	0	0	0	28059	26660	162485	27055	1069051	46456	110418	0	0	8035	608752	0	0
2024-08-22 02:00:47			0	36424	0	0	0	28059	26660	162297	27197	1069087	46445	110418	0	0	8036	608088	0	0
2024-08-22 02:01:47			0	36434	0	0	0	28054	26670	162405	26856	1069042	46456	110416	0	0	8037	607638	0	0
2024-08-22 02:02:47			0	36435	0	0	0	28044	26650	162353	26975	1068988	46455	110412	0	0	8037	607666	0	0
2024-08-22 02:03:47			0	36452	0	0	0	28028	26640	162241	26876	1068925	46465	110406	0	0	8038	606996	0	0
2024-08-22 02:04:47			0	36444	0	0	0	27997	26640	162277	26987	1068916	46432	110394	0	0	8038	607328	0	0
2024-08-22 02:05:47			0	36432	0	0	0	27976	26630	162333	27112	1068827	46432	110386	0	0	8038	607860	0	0
2024-08-22 02:06:47			0	36436	0	0	0	27971	26620	162273	27327	1068746	46417	110384	0	0	8038	607729	0	0
2024-08-22 02:07:47			0	36443	0	0	0	27961	26610	162273	26838	1068710	46428	110380	0	0	8038	607474	0	0
2024-08-22 02:08:47			0	36447	0	0	0	27948	26610	162245	27261	1068594	46440	110375	0	0	8039	607308	0	0
2024-08-22 02:09:47			0	36453	0	0	0	27942	26600	162313	26955	1068665	46416	110373	0	0	8039	607094	0	0
2024-08-22 02:10:47			0	36453	0	0	0	27929	26590	162305	27175	1068558	46438	110368	0	0	8039	607128	0	0
2024-08-22 02:11:47			0	36453	0	0	0	27914	26580	162361	26889	1068522	46437	110362	0	0	8040	607163	0	0
2024-08-22 02:12:47			0	36468	0	0	0	27906	26570	162257	26882	1068441	46436	110359	0	0	8041	606576	0	0
2024-08-22 02:13:47			0	36436	0	0	0	27914	26570	162213	26838	1068477	46447	110362	0	0	8039	607903	0	0
2024-08-22 02:14:47			0	36416	0	0	0	27916	26550	162533	27046	1068414	46434	110363	0	0	8037	608803	0	0
2024-08-22 02:15:47			0	36406	0	0	0	27919	26560	162661	27083	1068459	46446	110364	0	0	8037	609184	0	0
2024-08-22 02:16:47			0	36371	0	0	0	27919	26550	162713	26863	1068441	46434	110364	0	0	8035	610674	0	0
2024-08-22 02:17:47			0	36360	0	0	0	27927	26540	162657	26689	1068423	46433	110367	0	0	8034	611167	0	0
2024-08-22 02:18:47			0	36381	0	0	0	27914	26540	162645	27076	1068396	46444	110362	0	0	8035	610293	0	0
2024-08-22 02:19:47			0	36364	0	0	0	27922	26530	162701	26644	1068378	46431	110365	0	0	8034	611036	0	0
2024-08-22 02:20:47			0	36369	0	0	0	27922	26540	162793	26786	1068387	46443	110365	0	0	8034	610792	0	0
2024-08-22 02:21:47			0	36374	0	0	0	27914	26540	162721	26713	1068342	46444	110362	0	0	8035	610584	0	0
2024-08-22 02:22:47			0	36378	0	0	0	27909	26540	162689	27001	1068333	46443	110360	0	0	8035	610418	0	0
2024-08-22 02:23:47			0	36341	0	0	0	27919	26540	162765	26830	1068333	46432	110364	0	0	8033	611959	0	0
2024-08-22 02:24:47			0	36374	0	0	0	27916	26530	162605	27135	1068342	46442	110363	0	0	8035	610619	0	0
2024-08-22 02:25:47			0	36385	0	0	0	27906	26540	162553	26828	1068360	46432	110359	0	0	8036	610127	0	0
2024-08-22 02:26:47			0	36408	0	0	0	27898	26530	162569	26998	1068315	46442	110356	0	0	8037	609205	0	0
2024-08-22 02:27:47			0	36401	0	0	0	27906	26530	162517	26944	1068315	46431	110359	0	0	8036	609496	0	0
2024-08-22 02:28:47			0	36434	0	0	0	27893	26520	162489	27031	1068252	46431	110354	0	0	8039	608160	0	0
2024-08-22 02:29:47			0	36428	0	0	0	27896	26510	162493	26916	1068234	46440	110355	0	0	8038	608444	0	0
2024-08-22 02:30:47			0	36434	0	0	0	27898	26520	162393	27095	1068306	46431	110356	0	0	8038	608160	0	0
2024-08-22 02:31:47			0	36460	0	0	0	27901	26510	162365	27133	1068288	46440	110357	0	0	8040	607116	0	0
2024-08-22 02:32:47			0	36482	0	0	0	27890	26500	162265	26927	1068243	46452	110353	0	0	8041	606239	0	0
2024-08-22 02:33:47			0	36492	0	0	0	27890	26510	162209	26850	1068225	46429	110353	0	0	8042	605790	0	0
2024-08-22 02:34:47			0	36489	0	0	0	27883	26510	162181	26880	1068279	46440	110350	0	0	8042	605915	0	0
2024-08-22 02:35:47			0	36517	0	0	0	27877	26500	162117	27052	1068297	46429	110348	0	0	8044	604791	0	0
2024-08-22 02:36:47			0	36525	0	0	0	27888	26500	162085	26875	1068234	46439	110352	0	0	8044	604460	0	0
2024-08-22 02:37:47			0	36537	0	0	0	27877	26500	161981	27123	1068154	46439	110348	0	0	8045	603964	0	0
2024-08-22 02:38:47			0	36538	0	0	0	27880	26490	161985	26909	1068171	46438	110349	0	0	8045	603957	0	0
2024-08-22 02:39:47			0	36553	0	0	0	27880	26500	161877	26904	1068234	46439	110349	0	0	8046	603303	0	0
2024-08-22 02:40:47			0	36547	0	0	0	27872	26490	161945	27062	1068091	46438	110346	0	0	8046	603585	0	0
2024-08-22 02:41:47			0	36565	0	0	0	27875	26490	161905	27218	1068162	46438	110347	0	0	8047	602842	0	0
2024-08-22 02:42:47			0	36573	0	0	0	27875	26500	161909	27064	1068180	46451	110347	0	0	8047	602478	0	0
2024-08-22 02:43:47			0	36600	0	0	0	27875	26490	161810	26996	1068198	46438	110347	0	0	8049	601399	0	0
2024-08-22 02:44:47			0	36610	0	0	0	27877	26490	161834	26960	1068109	46427	110348	0	0	8049	600987	0	0
2024-08-22 02:45:47			0	36613	0	0	0	27875	26490	161790	26911	1068136	46450	110347	0	0	8049	600864	0	0
2024-08-22 02:46:47			0	36612	0	0	0	27877	26490	161698	27157	1068136	46427	110348	0	0	8049	600905	0	0
2024-08-22 02:47:47			0	36649	0	0	0	27877	26480	161570	27388	1068127	46437	110348	0	0	8051	599417	0	0
2024-08-22 02:48:47			0	36675	0	0	0	27870	26490	161530	26828	1068136	46438	110345	0	0	8053	598315	0	0
2024-08-22 02:49:47			0	36688	0	0	0	27875	26480	161398	27196	1068153	46426	110347	0	0	8054	597816	0	0
2024-08-22 02:50:47			0	36702	0	0	0	27877	26490	161266	27260	1068136	46450	110348	0	0	8055	597207	0	0
2024-08-22 02:51:47			0	36694	0	0	0	27877	26490	161374	26783	1068109	46438	110348	0	0	8054	597535	0	0
2024-08-22 02:52:47			0	36728	0	0	0	27883	26480	161214	27012	1068118	46449	110350	0	0	8056	596176	0	0
2024-08-22 02:53:47			0	36732	0	0	0	27880	26480	161230	27279	1068144	46426	110349	0	0	8056	596012	0	0
2024-08-22 02:54:47			0	36731	0	0	0	27872	26480	161134	27093	1068100	46437	110346	0	0	8056	596053	0	0
2024-08-22 02:55:47			0	36742	0	0	0	27870	26480	161178	27022	1068091	46449	110345	0	0	8057	595603	0	0
2024-08-22 02:56:47			0	36755	0	0	0	27877	26490	161174	27013	1068136	46438	110348	0	0	8058	595037	0	0
2024-08-22 02:57:47			0	36778	0	0	0	27880	26480	160946	27241	1068064	46449	110349	0	0	8059	594131	0	0
2024-08-22 02:58:47			0	36776	0	0	0	27880	26480	161118	26817	1068171	46437	110349	0	0	8059	594213	0	0
2024-08-22 02:59:47			0	36737	0	0	0	27867	26490	161098	26876	1068162	46438	110344	0	0	8057	595774	0	0
2024-08-22 03:00:47			0	36750	0	0	0	27877	26480	161054	27242	1068127	46437	110348	0	0	8058	595276	0	0
2024-08-22 03:01:47			0	36763	0	0	0	27872	26480	160962	27020	1068127	46449	110346	0	0	8058	594744	0	0
2024-08-22 03:02:47			0	36758	0	0	0	27867	26470	160954	27100	1068082	46425	110344	0	0	8058	594983	0	0
2024-08-22 03:03:47			0	36740	0	0	0	27862	26470	161118	27059	1068055	46448	110342	0	0	8057	595719	0	0
2024-08-22 03:04:47			0	36760	0	0	0	27867	26470	161054	27005	1068109	46436	110344	0	0	8058	594901	0	0
2024-08-22 03:05:47			0	36761	0	0	0	27875	26470	160998	26937	1068100	46436	110347	0	0	8058	594860	0	0
2024-08-22 03:06:47			0	36771	0	0	0	27859	26480	160994	26965	1068171	46437	110341	0	0	8059	594417	0	0
2024-08-22 03:07:47			0	36781	0	0	0	27877	26480	160974	27033	1068091	46437	110348	0	0	8059	594009	0	0
2024-08-22 03:08:47			0	36774	0	0	0	27872	26480	160962	27043	1068118	46437	110346	0	0	8059	594295	0	0
2024-08-22 03:09:47			0	36795	0	0	0	27872	26480	160950	27161	1068118	46437	110346	0	0	8060	593437	0	0
2024-08-22 03:10:47			0	36799	0	0	0	27864	26470	160950	26842	1068028	46436	110343	0	0	8061	593307	0	0
2024-08-22 03:11:47			0	36797	0	0	0	27877	26470	161058	27177	1068073	46448	110348	0	0	8060	593389	0	0
2024-08-22 03:12:47			0	36779	0	0	0	27867	26470	161078	26689	1068082	46448	110344	0	0	8059	594124	0	0
2024-08-22 03:13:47			0	36770	0	0	0	27872	26470	161062	26963	1068028	46458	110346	0	0	8059	594492	0	0
2024-08-22 03:14:47			0	36788	0	0	0	27875	26480	161062	26920	1068100	46437	110347	0	0	8060	593723	0	0
2024-08-22 03:15:47			0	36792	0	0	0	27864	26470	161106	26765	1068082	46436	110343	0	0	8060	593593	0	0
2024-08-22 03:16:47			0	36766	0	0	0	27864	26470	161134	27140	1068082	46448	110343	0	0	8059	594655	0	0
2024-08-22 03:17:47			0	36778	0	0	0	27867	26470	161086	26769	1068055	46436	110344	0	0	8059	594165	0	0
2024-08-22 03:18:47			0	36767	0	0	0	27872	26470	161074	27066	1068073	46448	110346	0	0	8059	594615	0	0
2024-08-22 03:19:47			0	36765	0	0	0	27872	26470	161150	27010	1068055	46436	110346	0	0	8058	594696	0	0
2024-08-22 03:20:47			0	36779	0	0	0	27875	26470	161150	26994	1068100	46448	110347	0	0	8059	594124	0	0
2024-08-22 03:21:47			0	36776	0	0	0	27872	26470	161086	27215	1068046	46448	110346	0	0	8059	594247	0	0
2024-08-22 03:22:47			0	36781	0	0	0	27867	26460	161094	27107	1068091	46447	110344	0	0	8059	594076	0	0
2024-08-22 03:23:47			0	36782	0	0	0	27867	26460	161118	26935	1068064	46458	110344	0	0	8059	594035	0	0
2024-08-22 03:24:47			0	36779	0	0	0	27857	26470	161174	27081	1068126	46436	110340	0	0	8060	594124	0	0
2024-08-22 03:25:47			0	36781	0	0	0	27859	26470	161062	26958	1068028	46425	110341	0	0	8060	594043	0	0
2024-08-22 03:26:47			0	36780	0	0	0	27857	26470	161010	27131	1068073	46425	110340	0	0	8060	594083	0	0
2024-08-22 03:27:47			0	36802	0	0	0	27859	26480	161030	26984	1068037	46437	110341	0	0	8061	593151	0	0
2024-08-22 03:28:47			0	36795	0	0	0	27857	26470	160946	26738	1068055	46425	110340	0	0	8060	593471	0	0
2024-08-22 03:29:47			0	36791	0	0	0	27870	26460	160898	26960	1068028	46435	110345	0	0	8060	593668	0	0
2024-08-22 03:30:47			0	36791	0	0	0	27870	26470	160902	26885	1068055	46425	110345	0	0	8060	593634	0	0
2024-08-22 03:31:47			0	36800	0	0	0	27864	26470	160918	27066	1068028	46436	110343	0	0	8061	593267	0	0
2024-08-22 03:32:47			0	36797	0	0	0	27867	26470	161014	27036	1068135	46436	110344	0	0	8060	593389	0	0
2024-08-22 03:33:47			0	36782	0	0	0	27870	26470	160970	27062	1068073	46436	110345	0	0	8059	594002	0	0
2024-08-22 03:34:47			0	36783	0	0	0	27872	26470	161018	27225	1068082	46436	110346	0	0	8059	593961	0	0
2024-08-22 03:35:47			0	36766	0	0	0	27870	26470	160982	26845	1068055	46425	110345	0	0	8059	594655	0	0
2024-08-22 03:36:47			0	36768	0	0	0	27867	26470	160974	27166	1068109	46436	110344	0	0	8059	594574	0	0
2024-08-22 03:37:47			0	36790	0	0	0	27870	26460	161066	27145	1068028	46424	110345	0	0	8060	593709	0	0
2024-08-22 03:38:47			0	36772	0	0	0	27857	26460	161006	27064	1067983	46447	110340	0	0	8059	594444	0	0
2024-08-22 03:39:47			0	36778	0	0	0	27859	26470	161126	27060	1068055	46448	110341	0	0	8059	594165	0	0
2024-08-22 03:40:47			0	36777	0	0	0	27859	26460	161146	26837	1067983	46435	110341	0	0	8059	594240	0	0
2024-08-22 03:41:47			0	36772	0	0	0	27851	26460	161002	26958	1068010	46447	110338	0	0	8059	594444	0	0
2024-08-22 03:42:47			0	36763	0	0	0	27854	26460	161006	27059	1067974	46424	110339	0	0	8059	594812	0	0
2024-08-22 03:43:47			0	36759	0	0	0	27849	26460	161082	26812	1068010	46424	110337	0	0	8058	594976	0	0
2024-08-22 03:44:47			0	36750	0	0	0	27851	26460	161106	27156	1067974	46435	110338	0	0	8058	595344	0	0
2024-08-22 03:45:47			0	36733	0	0	0	27846	26450	161146	26913	1067992	46423	110336	0	0	8057	596074	0	0
2024-08-22 03:46:47			0	36742	0	0	0	27838	26460	161250	26764	1068028	46424	110333	0	0	8058	595671	0	0
2024-08-22 03:47:47			0	36717	0	0	0	27841	26450	161414	26769	1067956	46434	110334	0	0	8056	596729	0	0
2024-08-22 03:48:47			0	36711	0	0	0	27844	26460	161246	27003	1068001	46414	110335	0	0	8056	596941	0	0
2024-08-22 03:49:47			0	36707	0	0	0	27836	26450	161302	26752	1067992	46434	110332	0	0	8055	597139	0	0
2024-08-22 03:50:47			0	36695	0	0	0	27831	26450	161330	26840	1067992	46434	110330	0	0	8055	597631	0	0
2024-08-22 03:51:47			0	36682	0	0	0	27836	26460	161330	26953	1067920	46424	110332	0	0	8054	598130	0	0
2024-08-22 03:52:47			0	36690	0	0	0	27841	26450	161374	26738	1067956	46423	110334	0	0	8054	597836	0	0
2024-08-22 03:53:47			0	36685	0	0	0	27825	26440	161290	26654	1067947	46433	110328	0	0	8054	598075	0	0
2024-08-22 03:54:47			0	36686	0	0	0	27823	26430	161394	27294	1067875	46432	110327	0	0	8054	598069	0	0
2024-08-22 03:55:47			0	36686	0	0	0	27825	26440	161370	27017	1067938	46422	110328	0	0	8054	598035	0	0
2024-08-22 03:56:47			0	36690	0	0	0	27820	26440	161434	26850	1067974	46412	110326	0	0	8055	597871	0	0
2024-08-22 03:57:47			0	36690	0	0	0	27828	26430	161278	27277	1067866	46431	110329	0	0	8055	597905	0	0
2024-08-22 03:58:47			0	36683	0	0	0	27812	26430	161442	27085	1067929	46444	110323	0	0	8054	598192	0	0
2024-08-22 03:59:47			0	36677	0	0	0	27815	26440	161378	27005	1067884	46433	110324	0	0	8054	598404	0	0
2024-08-22 04:00:47			0	36683	0	0	0	27815	26440	161398	26984	1067831	46422	110324	0	0	8054	598158	0	0
2024-08-22 04:01:47			0	36684	0	0	0	27818	26440	161406	26804	1067911	46422	110325	0	0	8054	598117	0	0
2024-08-22 04:02:47			0	36672	0	0	0	27805	26420	161466	26786	1067884	46420	110320	0	0	8054	598678	0	0
2024-08-22 04:03:47			0	36681	0	0	0	27797	26420	161410	26842	1067857	46443	110317	0	0	8054	598308	0	0
2024-08-22 04:04:47			0	36683	0	0	0	27799	26420	161342	26871	1067768	46430	110318	0	0	8055	598226	0	0
2024-08-22 04:05:47			0	36673	0	0	0	27799	26420	161342	27234	1067768	46430	110318	0	0	8054	598637	0	0
2024-08-22 04:06:47			0	36681	0	0	0	27786	26420	161430	26713	1067821	46430	110313	0	0	8055	598308	0	0
2024-08-22 04:07:47			0	36691	0	0	0	27797	26410	161434	26948	1067696	46418	110317	0	0	8055	597932	0	0
2024-08-22 04:08:47			0	36708	0	0	0	27784	26400	161426	26627	1067732	46417	110312	0	0	8056	597269	0	0
2024-08-22 04:09:47			0	36702	0	0	0	27799	26410	161358	26623	1067776	46429	110318	0	0	8056	597481	0	0
2024-08-22 04:10:47			0	36701	0	0	0	27805	26410	161406	27029	1067812	46453	110320	0	0	8055	597522	0	0
2024-08-22 04:11:47			0	36687	0	0	0	27797	26400	161338	26667	1067687	46429	110317	0	0	8055	598130	0	0
2024-08-22 04:12:47			0	36691	0	0	0	27797	26400	161326	27192	1067794	46429	110317	0	0	8055	597966	0	0
2024-08-22 04:13:47			0	36691	0	0	0	27799	26410	161338	26646	1067776	46429	110318	0	0	8055	597932	0	0
2024-08-22 04:14:47			0	36703	0	0	0	27789	26410	161218	27026	1067750	46429	110314	0	0	8056	597440	0	0
2024-08-22 04:15:47			0	36708	0	0	0	27797	26400	161306	27131	1067741	46429	110317	0	0	8056	597269	0	0
2024-08-22 04:16:47			0	36713	0	0	0	27781	26400	161306	27237	1067714	46429	110311	0	0	8057	597064	0	0
2024-08-22 04:17:47			0	36706	0	0	0	27789	26400	161282	27173	1067660	46441	110314	0	0	8056	597351	0	0
2024-08-22 04:18:47			0	36719	0	0	0	27776	26400	161334	26831	1067660	46418	110309	0	0	8057	596818	0	0
2024-08-22 04:19:47			0	36698	0	0	0	27776	26390	161214	26996	1067633	46427	110309	0	0	8056	597713	0	0
2024-08-22 04:20:47			0	36708	0	0	0	27771	26390	161314	27007	1067669	46417	110307	0	0	8056	597303	0	0
2024-08-22 04:21:47			0	36715	0	0	0	27771	26390	161378	27033	1067669	46417	110307	0	0	8057	597016	0	0
2024-08-22 04:22:47			0	36694	0	0	0	27766	26380	161262	27092	1067597	46416	110305	0	0	8056	597911	0	0
2024-08-22 04:23:47			0	36679	0	0	0	27771	26380	161354	27229	1067651	46427	110307	0	0	8055	598527	0	0
2024-08-22 04:24:47			0	36689	0	0	0	27773	26390	161326	26967	1067642	46428	110308	0	0	8055	598082	0	0
2024-08-22 04:25:47			0	36689	0	0	0	27766	26390	161286	27059	1067642	46440	110305	0	0	8055	598082	0	0
2024-08-22 04:26:47			0	36682	0	0	0	27776	26380	161426	27026	1067651	46439	110309	0	0	8055	598404	0	0
2024-08-22 04:27:47			0	36707	0	0	0	27784	26380	161318	27093	1067624	46416	110312	0	0	8056	597378	0	0
2024-08-22 04:28:47			0	36692	0	0	0	27763	26380	161410	27013	1067651	46416	110304	0	0	8055	597993	0	0
2024-08-22 04:29:47			0	36684	0	0	0	27763	26370	161482	26996	1067579	46425	110304	0	0	8055	598356	0	0
2024-08-22 04:30:47			0	36697	0	0	0	27768	26390	161362	27303	1067633	46416	110306	0	0	8056	597754	0	0
2024-08-22 04:31:47			0	36688	0	0	0	27761	26380	161346	27209	1067561	46416	110303	0	0	8055	598158	0	0
2024-08-22 04:32:47			0	36693	0	0	0	27768	26370	161386	27199	1067606	46425	110306	0	0	8055	597986	0	0
2024-08-22 04:33:47			0	36674	0	0	0	27766	26380	161370	27223	1067615	46426	110305	0	0	8054	598732	0	0
2024-08-22 04:34:47			0	36697	0	0	0	27755	26370	161414	26911	1067516	46425	110301	0	0	8056	597822	0	0
2024-08-22 04:35:47			0	36674	0	0	0	27766	26370	161390	26800	1067543	46415	110305	0	0	8054	598767	0	0
2024-08-22 04:36:47			0	36681	0	0	0	27755	26380	161414	26875	1067642	46426	110301	0	0	8055	598445	0	0
2024-08-22 04:37:47			0	36666	0	0	0	27761	26370	161518	27135	1067490	46425	110303	0	0	8054	599095	0	0
2024-08-22 04:38:47			0	36669	0	0	0	27755	26370	161494	26719	1067552	46425	110301	0	0	8054	598972	0	0
2024-08-22 04:39:47			0	36666	0	0	0	27761	26370	161510	27046	1067543	46425	110303	0	0	8054	599095	0	0
2024-08-22 04:40:47			0	36666	0	0	0	27753	26370	161470	27081	1067543	46415	110300	0	0	8054	599095	0	0
2024-08-22 04:41:47			0	36671	0	0	0	27750	26370	161462	27053	1067570	46404	110299	0	0	8054	598890	0	0
2024-08-22 04:42:47			0	36661	0	0	0	27766	26370	161434	27066	1067552	46425	110305	0	0	8054	599301	0	0
2024-08-22 04:43:47			0	36668	0	0	0	27763	26370	161538	27163	1067606	46437	110304	0	0	8054	599013	0	0
2024-08-22 04:44:47			0	36637	0	0	0	27755	26350	161666	27010	1067525	46414	110301	0	0	8052	600357	0	0
2024-08-22 04:45:47			0	36641	0	0	0	27763	26360	161558	27114	1067534	46425	110304	0	0	8052	600158	0	0
2024-08-22 04:46:47			0	36649	0	0	0	27753	26350	161638	26727	1067516	46423	110300	0	0	8053	599863	0	0
2024-08-22 04:47:47			0	36636	0	0	0	27768	26360	161626	26748	1067508	46425	110306	0	0	8052	600363	0	0
2024-08-22 04:48:47			0	36626	0	0	0	27771	26360	161594	26599	1067534	46437	110307	0	0	8051	600775	0	0
2024-08-22 04:49:47			0	36621	0	0	0	27771	26350	161790	27036	1067579	46414	110307	0	0	8051	601015	0	0
2024-08-22 04:50:47			0	36613	0	0	0	27786	26360	161758	26856	1067534	46437	110313	0	0	8050	601311	0	0
2024-08-22 04:51:47			0	36620	0	0	0	27781	26370	161782	26625	1067624	46425	110311	0	0	8051	600988	0	0
2024-08-22 04:52:47			0	36621	0	0	0	27773	26360	161754	27064	1067561	46415	110308	0	0	8051	600981	0	0
2024-08-22 04:53:47			0	36622	0	0	0	27758	26360	161794	27050	1067615	46425	110302	0	0	8051	600940	0	0
2024-08-22 04:54:47			0	36635	0	0	0	27758	26370	161738	27124	1067570	46425	110302	0	0	8052	600370	0	0
2024-08-22 04:55:47			0	36613	0	0	0	27761	26370	161822	26706	1067570	46425	110303	0	0	8051	601276	0	0
2024-08-22 04:56:47			0	36598	0	0	0	27763	26360	161830	27055	1067561	46415	110304	0	0	8050	601929	0	0
2024-08-22 04:57:47			0	36610	0	0	0	27768	26350	161786	27036	1067552	46424	110306	0	0	8050	601468	0	0
2024-08-22 04:58:47			0	36606	0	0	0	27771	26370	161846	27131	1067597	46425	110307	0	0	8050	601565	0	0
2024-08-22 04:59:47			0	36607	0	0	0	27773	26370	161870	26930	1067606	46425	110308	0	0	8050	601523	0	0
2024-08-22 05:00:47			0	36597	0	0	0	27763	26350	161765	26838	1067579	46436	110304	0	0	8050	602004	0	0
2024-08-22 05:01:47			0	36608	0	0	0	27758	26370	161782	26611	1067606	46437	110302	0	0	8051	601482	0	0
2024-08-22 05:02:47			0	36604	0	0	0	27763	26360	161730	26427	1067534	46425	110304	0	0	8050	601681	0	0
2024-08-22 05:03:47			0	36601	0	0	0	27766	26360	161746	26582	1067534	46437	110305	0	0	8050	601805	0	0
2024-08-22 05:04:47			0	36611	0	0	0	27761	26370	161686	26415	1067570	46425	110303	0	0	8051	601359	0	0
2024-08-22 05:05:47			0	36599	0	0	0	27758	26360	161758	26941	1067642	46415	110302	0	0	8050	601888	0	0
2024-08-22 05:06:47			0	36594	0	0	0	27753	26360	161774	26578	1067534	46425	110300	0	0	8050	602094	0	0
2024-08-22 05:07:47			0	36598	0	0	0	27748	26370	161794	27033	1067624	46437	110298	0	0	8050	601894	0	0
2024-08-22 05:08:47			0	36602	0	0	0	27761	26370	161874	27072	1067490	46437	110303	0	0	8050	601729	0	0
2024-08-22 05:09:47			0	36601	0	0	0	27758	26360	161742	26687	1067588	46425	110302	0	0	8050	601805	0	0
2024-08-22 05:10:47			0	36581	0	0	0	27766	26360	161917	26700	1067588	46425	110305	0	0	8049	602630	0	0
2024-08-22 05:11:47			0	36591	0	0	0	27773	26370	161902	26689	1067543	46437	110308	0	0	8049	602183	0	0
2024-08-22 05:12:47			0	36586	0	0	0	27768	26370	161849	26845	1067570	46437	110306	0	0	8049	602389	0	0
2024-08-22 05:13:47			0	36573	0	0	0	27776	26360	161929	26994	1067588	46404	110309	0	0	8048	602960	0	0
2024-08-22 05:14:47			0	36578	0	0	0	27758	26370	161945	26873	1067516	46425	110302	0	0	8049	602719	0	0
2024-08-22 05:15:47			0	36581	0	0	0	27755	26370	161945	26760	1067543	46425	110301	0	0	8049	602595	0	0
2024-08-22 05:16:47			0	36574	0	0	0	27753	26360	161909	26951	1067561	46415	110300	0	0	8049	602919	0	0
2024-08-22 05:17:47			0	36554	0	0	0	27748	26370	162005	27046	1067570	46425	110298	0	0	8047	603710	0	0
2024-08-22 05:18:47			0	36551	0	0	0	27745	26360	162021	26776	1067534	46415	110297	0	0	8047	603869	0	0
2024-08-22 05:19:47			0	36547	0	0	0	27735	26360	162077	26830	1067508	46437	110293	0	0	8047	604034	0	0
2024-08-22 05:20:47			0	36548	0	0	0	27748	26340	162057	26965	1067534	46413	110298	0	0	8047	604062	0	0
2024-08-22 05:21:47			0	36544	0	0	0	27742	26360	162053	26963	1067481	46425	110296	0	0	8047	604158	0	0
2024-08-22 05:22:47			0	36538	0	0	0	27758	26340	162129	27119	1067453	46423	110302	0	0	8046	604475	0	0
2024-08-22 05:23:47			0	36508	0	0	0	27761	26350	162117	26587	1067498	46436	110303	0	0	8044	605682	0	0
2024-08-22 05:24:47			0	36514	0	0	0	27750	26350	162093	26734	1067525	46424	110299	0	0	8045	605433	0	0
2024-08-22 05:25:47			0	36510	0	0	0	27758	26360	162153	26870	1067534	46425	110302	0	0	8045	605564	0	0
2024-08-22 05:26:47			0	36510	0	0	0	27753	26370	162277	26823	1067463	46425	110300	0	0	8045	605530	0	0
2024-08-22 05:27:47			0	36488	0	0	0	27763	26350	162317	26762	1067525	46424	110304	0	0	8043	606510	0	0
2024-08-22 05:28:47			0	36483	0	0	0	27761	26350	162289	26680	1067516	46446	110303	0	0	8043	606718	0	0
2024-08-22 05:29:47			0	36495	0	0	0	27750	26350	162317	26923	1067498	46414	110299	0	0	8044	606220	0	0
2024-08-22 05:30:47			0	36482	0	0	0	27740	26340	162225	26934	1067453	46423	110295	0	0	8043	606794	0	0
2024-08-22 05:31:47			0	36480	0	0	0	27742	26340	162373	26942	1067525	46422	110296	0	0	8043	606877	0	0
2024-08-22 05:32:47			0	36460	0	0	0	27740	26360	162305	27237	1067561	46415	110295	0	0	8042	607637	0	0
2024-08-22 05:33:47			0	36466	0	0	0	27735	26340	162541	26909	1067453	46423	110293	0	0	8042	607457	0	0
2024-08-22 05:34:47			0	36448	0	0	0	27732	26350	162329	26996	1067462	46423	110292	0	0	8041	608170	0	0
2024-08-22 05:35:47			0	36451	0	0	0	27727	26340	162413	26949	1067480	46413	110290	0	0	8042	608080	0	0
2024-08-22 05:36:47			0	36451	0	0	0	27729	26350	162381	26889	1067409	46435	110291	0	0	8042	608045	0	0
2024-08-22 05:37:47			0	36449	0	0	0	27724	26340	162485	26923	1067391	46412	110289	0	0	8041	608163	0	0
2024-08-22 05:38:47			0	36432	0	0	0	27724	26340	162505	27033	1067417	46412	110289	0	0	8040	608869	0	0
2024-08-22 05:39:47			0	36429	0	0	0	27727	26340	162501	26608	1067400	46423	110290	0	0	8040	608994	0	0
2024-08-22 05:40:47			0	36443	0	0	0	27722	26340	162537	26793	1067391	46422	110288	0	0	8041	608412	0	0
2024-08-22 05:41:47			0	36434	0	0	0	27732	26330	162581	26819	1067435	46400	110292	0	0	8040	608821	0	0
2024-08-22 05:42:47			0	36426	0	0	0	27737	26330	162609	26873	1067373	46421	110294	0	0	8040	609153	0	0
2024-08-22 05:43:47			0	36438	0	0	0	27732	26330	162557	26892	1067426	46421	110292	0	0	8041	608655	0	0
2024-08-22 05:44:47			0	36415	0	0	0	27729	26330	162493	26736	1067400	46411	110291	0	0	8039	609611	0	0
2024-08-22 05:45:47			0	36429	0	0	0	27719	26330	162461	26861	1067373	46421	110287	0	0	8040	609029	0	0
2024-08-22 05:46:47			0	36432	0	0	0	27714	26330	162485	27010	1067373	46421	110285	0	0	8041	608904	0	0
2024-08-22 05:47:47			0	36455	0	0	0	27709	26320	162513	27154	1067364	46433	110283	0	0	8042	607983	0	0
2024-08-22 05:48:47			0	36451	0	0	0	27703	26320	162469	26887	1067328	46420	110281	0	0	8042	608149	0	0
2024-08-22 05:49:47			0	36463	0	0	0	27698	26320	162501	26970	1067328	46410	110279	0	0	8043	607651	0	0
2024-08-22 05:50:47			0	36446	0	0	0	27690	26310	162549	26958	1067256	46419	110276	0	0	8042	608392	0	0
2024-08-22 05:51:47			0	36442	0	0	0	27696	26310	162621	27013	1067292	46432	110278	0	0	8041	608558	0	0
2024-08-22 05:52:47			0	36443	0	0	0	27690	26310	162597	26981	1067256	46431	110276	0	0	8042	608516	0	0
2024-08-22 05:53:47			0	36432	0	0	0	27690	26310	162561	26785	1067292	46432	110276	0	0	8041	608974	0	0
2024-08-22 05:54:47			0	36450	0	0	0	27690	26300	162453	26982	1067274	46418	110276	0	0	8042	608260	0	0
2024-08-22 05:55:47			0	36439	0	0	0	27690	26300	162649	26769	1067247	46418	110276	0	0	8041	608717	0	0
2024-08-22 05:56:47			0	36429	0	0	0	27680	26300	162525	26934	1067238	46397	110272	0	0	8041	609133	0	0
2024-08-22 05:57:47			0	36429	0	0	0	27680	26300	162565	26587	1067167	46408	110272	0	0	8041	609133	0	0
2024-08-22 05:58:47			0	36426	0	0	0	27667	26290	162649	26826	1067202	46408	110267	0	0	8041	609293	0	0
2024-08-22 05:59:47			0	36426	0	0	0	27659	26290	162605	26719	1067175	46408	110264	0	0	8041	609293	0	0
2024-08-22 06:00:47			0	36423	0	0	0	27662	26290	162669	27197	1067193	46417	110265	0	0	8041	609417	0	0
2024-08-22 06:01:47			0	36425	0	0	0	27667	26280	162609	26656	1067157	46416	110267	0	0	8041	609369	0	0
2024-08-22 06:02:47			0	36407	0	0	0	27675	26290	162693	26949	1067202	46441	110270	0	0	8040	610083	0	0
2024-08-22 06:03:47			0	36412	0	0	0	27680	26290	162609	27045	1067139	46407	110272	0	0	8040	609875	0	0
2024-08-22 06:04:47			0	36427	0	0	0	27680	26280	162597	26743	1067175	46439	110272	0	0	8041	609286	0	0
2024-08-22 06:05:47			0	36422	0	0	0	27672	26290	162625	26974	1067193	46417	110269	0	0	8040	609459	0	0
2024-08-22 06:06:47			0	36411	0	0	0	27680	26280	162589	26824	1067184	46416	110272	0	0	8040	609951	0	0
2024-08-22 06:07:47			0	36414	0	0	0	27675	26290	162613	26996	1067166	46417	110270	0	0	8040	609792	0	0
2024-08-22 06:08:47			0	36422	0	0	0	27680	26290	162565	26918	1067139	46417	110272	0	0	8040	609459	0	0
2024-08-22 06:09:47			0	36418	0	0	0	27683	26290	162585	26965	1067166	46417	110273	0	0	8040	609625	0	0
2024-08-22 06:10:47			0	36422	0	0	0	27680	26290	162509	26859	1067166	46428	110272	0	0	8040	609459	0	0
2024-08-22 06:11:47			0	36428	0	0	0	27670	26280	162665	26783	1067148	46439	110268	0	0	8041	609244	0	0
2024-08-22 06:12:47			0	36420	0	0	0	27659	26280	162561	27055	1067094	46428	110264	0	0	8041	609577	0	0
2024-08-22 06:13:47			0	36407	0	0	0	27657	26290	162593	26811	1067112	46417	110263	0	0	8040	610083	0	0
2024-08-22 06:14:47			0	36426	0	0	0	27646	26280	162601	27050	1067094	46416	110259	0	0	8041	609327	0	0
2024-08-22 06:15:47			0	36426	0	0	0	27646	26270	162577	27046	1067085	46406	110259	0	0	8041	609362	0	0
2024-08-22 06:16:47			0	36413	0	0	0	27646	26260	162649	27215	1067121	46415	110259	0	0	8040	609938	0	0
2024-08-22 06:17:47			0	36422	0	0	0	27644	26260	162501	26842	1067067	46392	110258	0	0	8041	609563	0	0
2024-08-22 06:18:47			0	36434	0	0	0	27638	26270	162549	26979	1067085	46416	110256	0	0	8042	609030	0	0
2024-08-22 06:19:47			0	36425	0	0	0	27646	26260	162629	27116	1067094	46426	110259	0	0	8041	609439	0	0
2024-08-22 06:20:47			0	36420	0	0	0	27638	26260	162621	27038	1067041	46415	110256	0	0	8041	609647	0	0
2024-08-22 06:21:47			0	36423	0	0	0	27649	26270	162609	27003	1067076	46427	110260	0	0	8041	609487	0	0
2024-08-22 06:22:47			0	36415	0	0	0	27651	26260	162649	27166	1067041	46426	110261	0	0	8040	609855	0	0
2024-08-22 06:23:47			0	36421	0	0	0	27649	26260	162609	26941	1067058	46426	110260	0	0	8041	609605	0	0
2024-08-22 06:24:47			0	36407	0	0	0	27638	26260	162669	27131	1067032	46415	110256	0	0	8040	610188	0	0
2024-08-22 06:25:47			0	36408	0	0	0	27644	26250	162681	26849	1067076	46403	110258	0	0	8040	610181	0	0
2024-08-22 06:26:47			0	36421	0	0	0	27628	26250	162693	27124	1066987	46403	110252	0	0	8041	609640	0	0
2024-08-22 06:27:47			0	36406	0	0	0	27618	26250	162641	26623	1066960	46391	110248	0	0	8040	610264	0	0
2024-08-22 06:28:47			0	36384	0	0	0	27618	26250	162789	27263	1066960	46403	110248	0	0	8039	611180	0	0
2024-08-22 06:29:47			0	36389	0	0	0	27623	26250	162741	26993	1066987	46403	110250	0	0	8039	610972	0	0
2024-08-22 06:30:47			0	36379	0	0	0	27631	26240	162825	26622	1066942	46412	110253	0	0	8038	611424	0	0
2024-08-22 06:31:47			0	36396	0	0	0	27628	26250	162709	27015	1066933	46391	110252	0	0	8039	610680	0	0
2024-08-22 06:32:47			0	36366	0	0	0	27631	26240	162749	26953	1066969	46412	110253	0	0	8038	611966	0	0
2024-08-22 06:33:47			0	36380	0	0	0	27631	26240	162837	26968	1066942	46412	110253	0	0	8038	611382	0	0
2024-08-22 06:34:47			0	36379	0	0	0	27641	26230	162721	27149	1066933	46401	110257	0	0	8038	611458	0	0
2024-08-22 06:35:47			0	36387	0	0	0	27641	26240	162801	27209	1066924	46390	110257	0	0	8039	611090	0	0
2024-08-22 06:36:47			0	36392	0	0	0	27633	26240	162777	26967	1066888	46423	110254	0	0	8039	610882	0	0
2024-08-22 06:37:47			0	36396	0	0	0	27636	26240	162785	27039	1066969	46401	110255	0	0	8039	610715	0	0
2024-08-22 06:38:47			0	36406	0	0	0	27638	26240	162761	26989	1066888	46412	110256	0	0	8040	610299	0	0
2024-08-22 06:39:47			0	36409	0	0	0	27636	26240	162729	27241	1066915	46423	110255	0	0	8040	610174	0	0
2024-08-22 06:40:47			0	36405	0	0	0	27633	26240	162685	27364	1066951	46413	110254	0	0	8040	610341	0	0
2024-08-22 06:41:47			0	36403	0	0	0	27631	26240	162701	27364	1066897	46424	110253	0	0	8040	610424	0	0
2024-08-22 06:42:47			0	36395	0	0	0	27636	26230	162705	27138	1066870	46401	110255	0	0	8039	610792	0	0
2024-08-22 06:43:47			0	36411	0	0	0	27633	26230	162657	27244	1066906	46412	110254	0	0	8040	610126	0	0
2024-08-22 06:44:47			0	36395	0	0	0	27633	26240	162797	27384	1066897	46402	110254	0	0	8039	610757	0	0
2024-08-22 06:45:47			0	36393	0	0	0	27636	26230	162713	27166	1066933	46412	110255	0	0	8039	610875	0	0
2024-08-22 06:46:47			0	36402	0	0	0	27638	26230	162709	27159	1067005	46412	110256	0	0	8040	610500	0	0
2024-08-22 06:47:47			0	36414	0	0	0	27641	26230	162761	27034	1066933	46412	110257	0	0	8040	610001	0	0
2024-08-22 06:48:47			0	36414	0	0	0	27628	26230	162789	27138	1066987	46412	110252	0	0	8040	610001	0	0
2024-08-22 06:49:47			0	36404	0	0	0	27633	26240	162825	27147	1066915	46423	110254	0	0	8040	610382	0	0
2024-08-22 06:50:47			0	36398	0	0	0	27636	26240	162865	27204	1066942	46423	110255	0	0	8039	610632	0	0
2024-08-22 06:51:47			0	36399	0	0	0	27633	26240	162853	27036	1066969	46412	110254	0	0	8039	610590	0	0
2024-08-22 06:52:47			0	36389	0	0	0	27644	26240	162881	27048	1066969	46401	110258	0	0	8039	611007	0	0
2024-08-22 06:53:47			0	36386	0	0	0	27649	26240	162945	27277	1066870	46424	110260	0	0	8038	611132	0	0
2024-08-22 06:54:47			0	36377	0	0	0	27641	26230	162797	26812	1066897	46401	110257	0	0	8038	611542	0	0
2024-08-22 06:55:47			0	36378	0	0	0	27641	26240	162869	27305	1066915	46412	110257	0	0	8038	611465	0	0
2024-08-22 06:56:47			0	36382	0	0	0	27638	26240	162937	27171	1066996	46423	110256	0	0	8038	611299	0	0
2024-08-22 06:57:47			0	36373	0	0	0	27636	26230	162881	26998	1067013	46412	110255	0	0	8038	611709	0	0
2024-08-22 06:58:47			0	36371	0	0	0	27641	26230	162977	27147	1066960	46423	110257	0	0	8038	611792	0	0
2024-08-22 06:59:47			0	36365	0	0	0	27641	26240	162897	26868	1066951	46424	110257	0	0	8037	612007	0	0
2024-08-22 07:00:47			0	36356	0	0	0	27649	26240	162953	27161	1066969	46412	110260	0	0	8037	612383	0	0
2024-08-22 07:01:47			0	36372	0	0	0	27644	26240	162937	27027	1066996	46423	110258	0	0	8038	611715	0	0
2024-08-22 07:02:47			0	36350	0	0	0	27654	26240	162981	26739	1067031	46424	110262	0	0	8036	612633	0	0
2024-08-22 07:03:47			0	36353	0	0	0	27654	26240	163013	26847	1067005	46424	110262	0	0	8036	612508	0	0
2024-08-22 07:04:47			0	36337	0	0	0	27659	26250	163045	27223	1066987	46414	110264	0	0	8035	613141	0	0
2024-08-22 07:05:47			0	36338	0	0	0	27667	26250	163097	27088	1067049	46414	110267	0	0	8035	613099	0	0
2024-08-22 07:06:47			0	36333	0	0	0	27667	26250	163129	27209	1066960	46425	110267	0	0	8035	613308	0	0
2024-08-22 07:07:47			0	36308	0	0	0	27664	26260	163185	26838	1067085	46415	110266	0	0	8034	614318	0	0
2024-08-22 07:08:47			0	36317	0	0	0	27670	26250	163113	27039	1067067	46414	110268	0	0	8034	613977	0	0
2024-08-22 07:09:47			0	36317	0	0	0	27662	26250	163137	27253	1067040	46414	110265	0	0	8034	613977	0	0
2024-08-22 07:10:47			0	36324	0	0	0	27664	26250	163249	27265	1067067	46414	110266	0	0	8035	613684	0	0
2024-08-22 07:11:47			0	36309	0	0	0	27667	26260	163257	27372	1067058	46437	110267	0	0	8034	614276	0	0
2024-08-22 07:12:47			0	36297	0	0	0	27672	26260	163281	27215	1067139	46404	110269	0	0	8033	614778	0	0
2024-08-22 07:13:47			0	36299	0	0	0	27662	26260	163469	27171	1067032	46415	110265	0	0	8033	614695	0	0
2024-08-22 07:14:47			0	36292	0	0	0	27680	26260	163253	26968	1067094	46426	110272	0	0	8032	614988	0	0
2024-08-22 07:15:47			0	36277	0	0	0	27667	26270	163389	27046	1067103	46416	110267	0	0	8032	615580	0	0
2024-08-22 07:16:47			0	36278	0	0	0	27664	26260	163421	27182	1067121	46415	110266	0	0	8032	615574	0	0
2024-08-22 07:17:47			0	36293	0	0	0	27672	26280	163329	26968	1067094	46416	110269	0	0	8033	614876	0	0
2024-08-22 07:18:47			0	36280	0	0	0	27667	26270	163253	27005	1067157	46427	110267	0	0	8032	615455	0	0
2024-08-22 07:19:47			0	36296	0	0	0	27670	26260	163257	27213	1067014	46426	110268	0	0	8033	614820	0	0
2024-08-22 07:20:47			0	36289	0	0	0	27672	26270	163305	26934	1067032	46416	110269	0	0	8032	615078	0	0
2024-08-22 07:21:47			0	36286	0	0	0	27675	26260	163225	27072	1067094	46404	110270	0	0	8032	615239	0	0
2024-08-22 07:22:47			0	36287	0	0	0	27667	26270	163225	27052	1067139	46428	110267	0	0	8032	615162	0	0
2024-08-22 07:23:47			0	36293	0	0	0	27672	26260	163169	26993	1067094	46437	110269	0	0	8033	614946	0	0
2024-08-22 07:24:47			0	36302	0	0	0	27677	26270	163221	26672	1067130	46405	110271	0	0	8033	614534	0	0
2024-08-22 07:25:47			0	36317	0	0	0	27680	26270	163073	27183	1067085	46416	110272	0	0	8034	613907	0	0
2024-08-22 07:26:47			0	36338	0	0	0	27670	26280	162977	27072	1067148	46416	110268	0	0	8035	612994	0	0
2024-08-22 07:27:47			0	36338	0	0	0	27672	26270	162929	27258	1067103	46405	110269	0	0	8035	613029	0	0
2024-08-22 07:28:47			0	36345	0	0	0	27662	26280	163029	27183	1067121	46406	110265	0	0	8036	612702	0	0
2024-08-22 07:29:47			0	36351	0	0	0	27670	26270	162861	27275	1067112	46416	110268	0	0	8036	612487	0	0
2024-08-22 07:30:47			0	36369	0	0	0	27675	26280	162853	27213	1067211	46406	110270	0	0	8037	611701	0	0
2024-08-22 07:31:47			0	36357	0	0	0	27667	26270	162769	27256	1067139	46406	110267	0	0	8037	612236	0	0
2024-08-22 07:32:47			0	36375	0	0	0	27667	26270	162777	27154	1067112	46416	110267	0	0	8038	611486	0	0
2024-08-22 07:33:47			0	36375	0	0	0	27670	26270	162797	26764	1067103	46416	110268	0	0	8038	611486	0	0
2024-08-22 07:34:47			0	36395	0	0	0	27672	26270	162725	26930	1067157	46405	110269	0	0	8039	610652	0	0
2024-08-22 07:35:47			0	36408	0	0	0	27675	26260	162797	27055	1067094	46426	110270	0	0	8039	610146	0	0
2024-08-22 07:36:47			0	36420	0	0	0	27675	26260	162545	27235	1067121	46415	110270	0	0	8040	609647	0	0
2024-08-22 07:37:47			0	36422	0	0	0	27670	26280	162533	27043	1067175	46428	110268	0	0	8040	609494	0	0
2024-08-22 07:38:47			0	36417	0	0	0	27680	26280	162645	27045	1067148	46416	110272	0	0	8040	609702	0	0
2024-08-22 07:39:47			0	36436	0	0	0	27672	26280	162601	26984	1067175	46416	110269	0	0	8041	608912	0	0
2024-08-22 07:40:47			0	36433	0	0	0	27680	26270	162565	27192	1067139	46416	110272	0	0	8041	609071	0	0
2024-08-22 07:41:47			0	36456	0	0	0	27672	26270	162433	27034	1067139	46416	110269	0	0	8042	608115	0	0
2024-08-22 07:42:47			0	36466	0	0	0	27675	26280	162481	26928	1067148	46428	110270	0	0	8043	607666	0	0
2024-08-22 07:43:47			0	36481	0	0	0	27683	26270	162353	27137	1067085	46416	110273	0	0	8044	607078	0	0
2024-08-22 07:44:47			0	36474	0	0	0	27672	26270	162309	26864	1067157	46416	110269	0	0	8043	607368	0	0
2024-08-22 07:45:47			0	36485	0	0	0	27677	26270	162393	26982	1067193	46416	110271	0	0	8044	606912	0	0
2024-08-22 07:46:47			0	36478	0	0	0	27675	26280	162389	26812	1067148	46416	110270	0	0	8044	607168	0	0
2024-08-22 07:47:47			0	36488	0	0	0	27677	26280	162349	27268	1067229	46406	110271	0	0	8044	606753	0	0
2024-08-22 07:48:47			0	36485	0	0	0	27677	26270	162229	27282	1067166	46416	110271	0	0	8044	606912	0	0
2024-08-22 07:49:47			0	36478	0	0	0	27685	26280	162305	27331	1067148	46416	110274	0	0	8044	607168	0	0
2024-08-22 07:50:47			0	36469	0	0	0	27688	26280	162337	27175	1067202	46416	110275	0	0	8043	607541	0	0
2024-08-22 07:51:47			0	36472	0	0	0	27696	26280	162405	27166	1067202	46416	110278	0	0	8043	607417	0	0
2024-08-22 07:52:47			0	36462	0	0	0	27688	26270	162453	27296	1067247	46406	110275	0	0	8042	607866	0	0
2024-08-22 07:53:47			0	36452	0	0	0	27688	26280	162485	27239	1067202	46416	110275	0	0	8042	608247	0	0
2024-08-22 07:54:47			0	36464	0	0	0	27683	26290	162497	27329	1067220	46428	110273	0	0	8043	607714	0	0
2024-08-22 07:55:47			0	36438	0	0	0	27693	26280	162501	27133	1067148	46416	110277	0	0	8041	608828	0	0
2024-08-22 07:56:47			0	36452	0	0	0	27688	26280	162597	27043	1067211	46406	110275	0	0	8042	608247	0	0
2024-08-22 07:57:47			0	36452	0	0	0	27685	26280	162593	26911	1067157	46406	110274	0	0	8042	608247	0	0
2024-08-22 07:58:47			0	36445	0	0	0	27690	26280	162625	26981	1067291	46428	110276	0	0	8041	608538	0	0
2024-08-22 07:59:47			0	36419	0	0	0	27701	26280	162513	26958	1067157	46416	110280	0	0	8040	609619	0	0
2024-08-22 08:00:47			0	36428	0	0	0	27698	26290	162529	27033	1067166	46428	110279	0	0	8040	609209	0	0
2024-08-22 08:01:47			0	36442	0	0	0	27701	26280	162641	27055	1067211	46439	110280	0	0	8041	608662	0	0
2024-08-22 08:02:47			0	36429	0	0	0	27693	26290	162565	27079	1067247	46428	110277	0	0	8041	609168	0	0
2024-08-22 08:03:47			0	36423	0	0	0	27701	26280	162541	27109	1067265	46406	110280	0	0	8040	609452	0	0
2024-08-22 08:04:47			0	36422	0	0	0	27698	26290	162581	27147	1067247	46417	110279	0	0	8040	609459	0	0
2024-08-22 08:05:47			0	36442	0	0	0	27696	26300	162509	27253	1067319	46430	110278	0	0	8041	608593	0	0
2024-08-22 08:06:47			0	36433	0	0	0	27693	26310	162565	26953	1067337	46431	110277	0	0	8041	608932	0	0
2024-08-22 08:07:47			0	36429	0	0	0	27706	26290	162625	27379	1067310	46418	110282	0	0	8040	609168	0	0
2024-08-22 08:08:47			0	36431	0	0	0	27706	26290	162621	26922	1067247	46417	110282	0	0	8040	609085	0	0
2024-08-22 08:09:47			0	36420	0	0	0	27709	26300	162549	27367	1067319	46430	110283	0	0	8040	609507	0	0
2024-08-22 08:10:47			0	36430	0	0	0	27716	26300	162477	27150	1067319	46430	110286	0	0	8040	609091	0	0
2024-08-22 08:11:47			0	36432	0	0	0	27714	26300	162629	27074	1067328	46397	110285	0	0	8040	609008	0	0
2024-08-22 08:12:47			0	36414	0	0	0	27714	26300	162537	27005	1067319	46408	110285	0	0	8039	609757	0	0
2024-08-22 08:13:47			0	36428	0	0	0	27706	26310	162545	27050	1067337	46431	110282	0	0	8040	609140	0	0
2024-08-22 08:14:47			0	36408	0	0	0	27696	26300	162685	27019	1067301	46418	110278	0	0	8039	610006	0	0
2024-08-22 08:15:47			0	36423	0	0	0	27701	26300	162565	27400	1067292	46430	110280	0	0	8040	609383	0	0
2024-08-22 08:16:47			0	36418	0	0	0	27698	26300	162573	26875	1067372	46408	110279	0	0	8040	609591	0	0
2024-08-22 08:17:47			0	36423	0	0	0	27711	26300	162549	27343	1067355	46418	110284	0	0	8040	609383	0	0
2024-08-22 08:18:47			0	36424	0	0	0	27711	26300	162597	27066	1067319	46408	110284	0	0	8040	609341	0	0
2024-08-22 08:19:47			0	36415	0	0	0	27714	26310	162621	26748	1067346	46432	110285	0	0	8039	609680	0	0
2024-08-22 08:20:47			0	36410	0	0	0	27711	26310	162489	27493	1067337	46409	110284	0	0	8039	609888	0	0
2024-08-22 08:21:47			0	36423	0	0	0	27698	26310	162589	27121	1067283	46419	110279	0	0	8040	609348	0	0
2024-08-22 08:22:47			0	36439	0	0	0	27701	26300	162545	26916	1067238	46408	110280	0	0	8041	608717	0	0
2024-08-22 08:23:47			0	36423	0	0	0	27703	26300	162537	26902	1067301	46408	110281	0	0	8040	609383	0	0
2024-08-22 08:24:47			0	36438	0	0	0	27701	26300	162461	27355	1067292	46408	110280	0	0	8041	608759	0	0
2024-08-22 08:25:47			0	36439	0	0	0	27701	26300	162577	27235	1067274	46408	110280	0	0	8041	608717	0	0
2024-08-22 08:26:47			0	36430	0	0	0	27709	26300	162465	27161	1067238	46418	110283	0	0	8040	609091	0	0
2024-08-22 08:27:47			0	36452	0	0	0	27711	26310	162585	26889	1067337	46409	110284	0	0	8042	608143	0	0
2024-08-22 08:28:47			0	36443	0	0	0	27722	26300	162441	27067	1067328	46430	110288	0	0	8041	608551	0	0
2024-08-22 08:29:47			0	36447	0	0	0	27722	26310	162381	27176	1067337	46419	110288	0	0	8041	608350	0	0
2024-08-22 08:30:47			0	36476	0	0	0	27719	26300	162381	26920	1067355	46408	110287	0	0	8043	607181	0	0
2024-08-22 08:31:47			0	36466	0	0	0	27716	26300	162357	27048	1067328	46408	110286	0	0	8042	607596	0	0
2024-08-22 08:32:47			0	36469	0	0	0	27716	26310	162269	27038	1067373	46410	110286	0	0	8043	607437	0	0
2024-08-22 08:33:47			0	36450	0	0	0	27714	26310	162325	26788	1067399	46420	110285	0	0	8042	608226	0	0
2024-08-22 08:34:47			0	36465	0	0	0	27716	26320	162333	27284	1067382	46432	110286	0	0	8042	607568	0	0
2024-08-22 08:35:47			0	36457	0	0	0	27719	26320	162317	27339	1067408	46432	110287	0	0	8042	607900	0	0
2024-08-22 08:36:47			0	36479	0	0	0	27716	26310	162281	27178	1067399	46410	110286	0	0	8043	607022	0	0
2024-08-22 08:37:47			0	36459	0	0	0	27722	26310	162365	27187	1067373	46432	110288	0	0	8042	607852	0	0
2024-08-22 08:38:47			0	36466	0	0	0	27724	26300	162349	27020	1067328	46408	110289	0	0	8042	607596	0	0
2024-08-22 08:39:47			0	36457	0	0	0	27724	26310	162381	27218	1067453	46420	110289	0	0	8042	607935	0	0
2024-08-22 08:40:47			0	36468	0	0	0	27722	26310	162325	26920	1067373	46398	110288	0	0	8042	607479	0	0
2024-08-22 08:41:47			0	36463	0	0	0	27727	26320	162213	27154	1067355	46420	110290	0	0	8042	607651	0	0
2024-08-22 08:42:47			0	36475	0	0	0	27722	26320	162305	26821	1067462	46410	110288	0	0	8043	607153	0	0
2024-08-22 08:43:47			0	36483	0	0	0	27724	26310	162249	26958	1067390	46419	110289	0	0	8043	606856	0	0
2024-08-22 08:44:47			0	36476	0	0	0	27724	26320	162237	27024	1067417	46411	110289	0	0	8043	607112	0	0
2024-08-22 08:45:47			0	36469	0	0	0	27724	26300	162233	26849	1067355	46418	110289	0	0	8042	607472	0	0
2024-08-22 08:46:47			0	36487	0	0	0	27732	26310	162289	27027	1067373	46432	110292	0	0	8043	606690	0	0
2024-08-22 08:47:47			0	36476	0	0	0	27727	26330	162221	27026	1067426	46421	110290	0	0	8043	607077	0	0
2024-08-22 08:48:47			0	36485	0	0	0	27724	26320	162301	27069	1067408	46420	110289	0	0	8044	606739	0	0
2024-08-22 08:49:47			0	36486	0	0	0	27732	26320	162245	26989	1067328	46420	110292	0	0	8043	606697	0	0
2024-08-22 08:50:47			0	36490	0	0	0	27727	26320	162205	27053	1067444	46433	110290	0	0	8044	606531	0	0
2024-08-22 08:51:47			0	36489	0	0	0	27727	26330	162169	26821	1067480	46411	110290	0	0	8044	606538	0	0
2024-08-22 08:52:47			0	36496	0	0	0	27732	26320	162257	26876	1067462	46420	110292	0	0	8044	606283	0	0
2024-08-22 08:53:47			0	36476	0	0	0	27727	26320	162197	26868	1067462	46420	110290	0	0	8043	607112	0	0
2024-08-22 08:54:47			0	36483	0	0	0	27719	26320	162245	26733	1067364	46399	110287	0	0	8043	606822	0	0
2024-08-22 08:55:47			0	36493	0	0	0	27685	26310	162169	26866	1067346	46410	110274	0	0	8045	606442	0	0
2024-08-22 08:56:47			0	36498	0	0	0	27675	26310	162081	27241	1067265	46410	110270	0	0	8045	606234	0	0
2024-08-22 08:57:47			0	36509	0	0	0	27664	26310	162049	26909	1067238	46398	110266	0	0	8046	605779	0	0
2024-08-22 08:58:47			0	36510	0	0	0	27664	26300	162017	26875	1067193	46397	110266	0	0	8046	605772	0	0
2024-08-22 08:59:47			0	36509	0	0	0	27672	26290	162221	26715	1067175	46408	110269	0	0	8046	605848	0	0
2024-08-22 09:00:47			0	36505	0	0	0	27690	26290	162109	26863	1067256	46408	110276	0	0	8045	606014	0	0
2024-08-22 09:01:47			0	36521	0	0	0	27688	26290	162169	26979	1067300	46396	110275	0	0	8046	605351	0	0
2024-08-22 09:02:47			0	36524	0	0	0	27690	26290	162017	27222	1067247	46417	110276	0	0	8046	605227	0	0
2024-08-22 09:03:47			0	36528	0	0	0	27696	26290	162073	26842	1067247	46417	110278	0	0	8046	605062	0	0
2024-08-22 09:04:47			0	36536	0	0	0	27696	26290	162105	27001	1067247	46407	110278	0	0	8047	604731	0	0
2024-08-22 09:05:47			0	36533	0	0	0	27688	26280	162069	27126	1067175	46428	110275	0	0	8047	604889	0	0
2024-08-22 09:06:47			0	36534	0	0	0	27683	26290	162077	27059	1067220	46407	110273	0	0	8047	604813	0	0
2024-08-22 09:07:47			0	36528	0	0	0	27654	26280	162041	27161	1067184	46406	110262	0	0	8047	605096	0	0
2024-08-22 09:08:47			0	36538	0	0	0	27659	26280	162005	27308	1067211	46406	110264	0	0	8048	604682	0	0
2024-08-22 09:09:47			0	36534	0	0	0	27659	26270	162025	27057	1067166	46416	110264	0	0	8047	604882	0	0
2024-08-22 09:10:47			0	36549	0	0	0	27657	26270	162097	27157	1067166	46406	110263	0	0	8048	604262	0	0
2024-08-22 09:11:47			0	36559	0	0	0	27651	26270	162013	26739	1067130	46416	110261	0	0	8049	603849	0	0
2024-08-22 09:12:47			0	36541	0	0	0	27657	26260	162037	27168	1067094	46404	110263	0	0	8048	604627	0	0
2024-08-22 09:13:47			0	36529	0	0	0	27667	26270	161925	27331	1067157	46416	110267	0	0	8047	605089	0	0
2024-08-22 09:14:47			0	36560	0	0	0	27664	26260	161969	27083	1067148	46415	110266	0	0	8049	603842	0	0
2024-08-22 09:15:47			0	36569	0	0	0	27667	26260	161989	27168	1067085	46404	110267	0	0	8049	603470	0	0
2024-08-22 09:16:47			0	36553	0	0	0	27667	26270	161897	27197	1067157	46416	110267	0	0	8048	604097	0	0
2024-08-22 09:17:47			0	36559	0	0	0	27654	26270	161921	27178	1067103	46416	110262	0	0	8049	603849	0	0
2024-08-22 09:18:47			0	36563	0	0	0	27649	26260	161905	26968	1067032	46415	110260	0	0	8049	603718	0	0
2024-08-22 09:19:47			0	36580	0	0	0	27644	26260	161925	26771	1067032	46404	110258	0	0	8050	603015	0	0
2024-08-22 09:20:47			0	36573	0	0	0	27638	26250	161853	26778	1067023	46391	110256	0	0	8050	603339	0	0
2024-08-22 09:21:47			0	36587	0	0	0	27631	26250	161877	27085	1067049	46403	110253	0	0	8051	602761	0	0
2024-08-22 09:22:47			0	36592	0	0	0	27633	26250	161837	27209	1066960	46391	110254	0	0	8051	602555	0	0
2024-08-22 09:23:47			0	36562	0	0	0	27623	26250	161857	27376	1067014	46391	110250	0	0	8049	603793	0	0
2024-08-22 09:24:47			0	36576	0	0	0	27620	26240	161937	27237	1067031	46402	110249	0	0	8050	603250	0	0
2024-08-22 09:25:47			0	36577	0	0	0	27631	26250	161985	27022	1066987	46414	110253	0	0	8050	603174	0	0
2024-08-22 09:26:47			0	36585	0	0	0	27631	26230	161973	26896	1066933	46423	110253	0	0	8051	602912	0	0
2024-08-22 09:27:47			0	36564	0	0	0	27641	26240	161897	27048	1066951	46402	110257	0	0	8049	603745	0	0
2024-08-22 09:28:47			0	36552	0	0	0	27646	26240	161937	27183	1067005	46424	110259	0	0	8048	604241	0	0
2024-08-22 09:29:47			0	36564	0	0	0	27641	26240	162001	26613	1067031	46413	110257	0	0	8049	603745	0	0
2024-08-22 09:30:47			0	36567	0	0	0	27644	26240	161937	27003	1067022	46412	110258	0	0	8049	603621	0	0
2024-08-22 09:31:47			0	36586	0	0	0	27654	26240	161917	26991	1067022	46401	110262	0	0	8050	602837	0	0
2024-08-22 09:32:47			0	36574	0	0	0	27654	26250	161857	26937	1066987	46425	110262	0	0	8050	603298	0	0
2024-08-22 09:33:47			0	36591	0	0	0	27649	26240	161945	26968	1067031	46424	110260	0	0	8051	602630	0	0
2024-08-22 09:34:47			0	36605	0	0	0	27657	26250	161854	26835	1067076	46414	110263	0	0	8051	602018	0	0
2024-08-22 09:35:47			0	36602	0	0	0	27664	26250	161894	26930	1067040	46414	110266	0	0	8051	602142	0	0
2024-08-22 09:36:47			0	36592	0	0	0	27672	26250	161793	26934	1066987	46414	110269	0	0	8050	602555	0	0
2024-08-22 09:37:47			0	36607	0	0	0	27664	26260	161874	26892	1067112	46415	110266	0	0	8052	601902	0	0
2024-08-22 09:38:47			0	36608	0	0	0	27664	26240	161834	26899	1067112	46413	110266	0	0	8051	601929	0	0
2024-08-22 09:39:47			0	36614	0	0	0	27672	26250	161802	26996	1067157	46414	110269	0	0	8052	601647	0	0
2024-08-22 09:40:47			0	36606	0	0	0	27683	26260	161858	27105	1067139	46415	110273	0	0	8051	601943	0	0
2024-08-22 09:41:47			0	36612	0	0	0	27664	26250	161742	26882	1067157	46414	110266	0	0	8052	601730	0	0
2024-08-22 09:42:47			0	36623	0	0	0	27675	26260	161694	26814	1067148	46415	110270	0	0	8052	601242	0	0
2024-08-22 09:43:47			0	36641	0	0	0	27677	26260	161578	26769	1067121	46415	110271	0	0	8053	600501	0	0
2024-08-22 09:44:47			0	36652	0	0	0	27680	26270	161650	26739	1067157	46405	110272	0	0	8054	600014	0	0
2024-08-22 09:45:47			0	36652	0	0	0	27685	26260	161630	26946	1067139	46404	110274	0	0	8054	600048	0	0
2024-08-22 09:46:47			0	36672	0	0	0	27680	26260	161542	27041	1067202	46415	110272	0	0	8055	599225	0	0
2024-08-22 09:47:47			0	36671	0	0	0	27680	26270	161582	26902	1067166	46428	110272	0	0	8055	599232	0	0
2024-08-22 09:48:47			0	36684	0	0	0	27680	26270	161518	26878	1067166	46416	110272	0	0	8056	598698	0	0
2024-08-22 09:49:47			0	36678	0	0	0	27685	26270	161586	27100	1067157	46416	110274	0	0	8055	598944	0	0
2024-08-22 09:50:47			0	36702	0	0	0	27685	26280	161582	26821	1067175	46428	110274	0	0	8057	597925	0	0
2024-08-22 09:51:47			0	36684	0	0	0	27685	26280	161418	27071	1067175	46416	110274	0	0	8056	598664	0	0
2024-08-22 09:52:47			0	36703	0	0	0	27685	26270	161542	26856	1067166	46416	110274	0	0	8057	597918	0	0
2024-08-22 09:53:47			0	36707	0	0	0	27685	26280	161386	26840	1067256	46416	110274	0	0	8057	597719	0	0
2024-08-22 09:54:47			0	36716	0	0	0	27685	26280	161422	26998	1067238	46406	110274	0	0	8058	597350	0	0
2024-08-22 09:55:47			0	36710	0	0	0	27698	26280	161358	27204	1067256	46416	110279	0	0	8057	597596	0	0
2024-08-22 09:56:47			0	36717	0	0	0	27690	26270	161370	26935	1067220	46428	110276	0	0	8058	597343	0	0
2024-08-22 09:57:47			0	36722	0	0	0	27698	26280	161310	26930	1067202	46416	110279	0	0	8058	597104	0	0
2024-08-22 09:58:47			0	36730	0	0	0	27701	26290	161410	26840	1067220	46417	110280	0	0	8058	596742	0	0
2024-08-22 09:59:47			0	36741	0	0	0	27706	26290	161318	27157	1067274	46407	110282	0	0	8059	596291	0	0
2024-08-22 10:00:47			0	36745	0	0	0	27703	26280	161234	26826	1067256	46416	110281	0	0	8059	596161	0	0
2024-08-22 10:01:47			0	36743	0	0	0	27701	26280	161178	26944	1067318	46416	110280	0	0	8059	596243	0	0
2024-08-22 10:02:47			0	36762	0	0	0	27716	26280	161222	27071	1067291	46416	110286	0	0	8060	595465	0	0
2024-08-22 10:03:47			0	36764	0	0	0	27714	26290	161154	27060	1067327	46417	110285	0	0	8060	595349	0	0
2024-08-22 10:04:47			0	36768	0	0	0	27716	26290	161118	27206	1067327	46417	110286	0	0	8060	595186	0	0
2024-08-22 10:05:47			0	36770	0	0	0	27722	26290	161066	27109	1067310	46418	110288	0	0	8060	595104	0	0
2024-08-22 10:06:47			0	36767	0	0	0	27716	26300	161034	27126	1067328	46430	110286	0	0	8060	595193	0	0
2024-08-22 10:07:47			0	36790	0	0	0	27716	26290	161010	27123	1067363	46418	110286	0	0	8062	594286	0	0
2024-08-22 10:08:47			0	36794	0	0	0	27714	26310	160990	27211	1067399	46420	110285	0	0	8062	594055	0	0
2024-08-22 10:09:47			0	36806	0	0	0	27724	26310	160974	26956	1067390	46431	110289	0	0	8063	593564	0	0
2024-08-22 10:10:47			0	36826	0	0	0	27732	26310	160910	26934	1067417	46409	110292	0	0	8064	592748	0	0
2024-08-22 10:11:47			0	36826	0	0	0	27724	26300	160790	26942	1067355	46418	110289	0	0	8064	592782	0	0
2024-08-22 10:12:47			0	36843	0	0	0	27732	26310	160782	26660	1067453	46432	110292	0	0	8065	592054	0	0
2024-08-22 10:13:47			0	36859	0	0	0	27735	26320	160790	26944	1067444	46421	110293	0	0	8066	591369	0	0
2024-08-22 10:14:47			0	36850	0	0	0	27735	26330	160770	26795	1067400	46421	110293	0	0	8065	591702	0	0
2024-08-22 10:15:47			0	36863	0	0	0	27735	26310	160714	26471	1067346	46410	110293	0	0	8066	591239	0	0
2024-08-22 10:16:47			0	36885	0	0	0	27732	26320	160678	26861	1067462	46420	110292	0	0	8067	590310	0	0
2024-08-22 10:17:47			0	36891	0	0	0	27732	26320	160550	27104	1067489	46420	110292	0	0	8068	590066	0	0
2024-08-22 10:18:47			0	36905	0	0	0	27732	26310	160566	26904	1067426	46420	110292	0	0	8068	589530	0	0
2024-08-22 10:19:47			0	36907	0	0	0	27745	26320	160530	26844	1067444	46411	110297	0	0	8068	589415	0	0
2024-08-22 10:20:47			0	36890	0	0	0	27758	26330	160470	26765	1067534	46421	110302	0	0	8067	590073	0	0
2024-08-22 10:21:47			0	36906	0	0	0	27750	26330	160538	27079	1067543	46422	110299	0	0	8068	589422	0	0
2024-08-22 10:22:47			0	36915	0	0	0	27748	26330	160482	26842	1067507	46433	110298	0	0	8069	589056	0	0
2024-08-22 10:23:47			0	36925	0	0	0	27753	26340	160386	26986	1067525	46422	110300	0	0	8069	588617	0	0
2024-08-22 10:24:47			0	36923	0	0	0	27753	26340	160370	27119	1067561	46435	110300	0	0	8069	588698	0	0
2024-08-22 10:25:47			0	36939	0	0	0	27766	26340	160406	27279	1067588	46413	110305	0	0	8070	588048	0	0
2024-08-22 10:26:47			0	36941	0	0	0	27766	26340	160278	27144	1067588	46435	110305	0	0	8070	587967	0	0
2024-08-22 10:27:47			0	36938	0	0	0	27781	26360	160262	26953	1067615	46425	110311	0	0	8070	588022	0	0
2024-08-22 10:28:47			0	36971	0	0	0	27776	26350	160286	27246	1067632	46424	110309	0	0	8072	586717	0	0
2024-08-22 10:29:47			0	36953	0	0	0	27784	26360	160290	27341	1067642	46425	110312	0	0	8071	587413	0	0
2024-08-22 10:30:47			0	36970	0	0	0	27773	26370	160270	27230	1067651	46437	110308	0	0	8072	586691	0	0
2024-08-22 10:31:47			0	36966	0	0	0	27789	26370	160258	26967	1067758	46415	110314	0	0	8071	586853	0	0
2024-08-22 10:32:47			0	36958	0	0	0	27792	26370	160226	26889	1067713	46437	110315	0	0	8071	587177	0	0
2024-08-22 10:33:47			0	36980	0	0	0	27794	26370	160234	26934	1067660	46437	110316	0	0	8072	586286	0	0
2024-08-22 10:34:47			0	36982	0	0	0	27792	26370	160190	27251	1067713	46425	110315	0	0	8072	586205	0	0
2024-08-22 10:35:47			0	36964	0	0	0	27781	26380	160358	27218	1067723	46426	110311	0	0	8071	586900	0	0
2024-08-22 10:36:47			0	36955	0	0	0	27789	26380	160242	27317	1067696	46438	110314	0	0	8071	587265	0	0
2024-08-22 10:37:47			0	36957	0	0	0	27792	26380	160306	27280	1067723	46426	110315	0	0	8071	587184	0	0
2024-08-22 10:38:47			0	36928	0	0	0	27797	26390	160406	27140	1067740	46427	110317	0	0	8069	588327	0	0
2024-08-22 10:39:47			0	36939	0	0	0	27799	26380	160354	26923	1067731	46427	110318	0	0	8070	587914	0	0
2024-08-22 10:40:47			0	36917	0	0	0	27807	26400	160330	27046	1067812	46428	110321	0	0	8068	588740	0	0
2024-08-22 10:41:47			0	36913	0	0	0	27807	26390	160434	27062	1067794	46439	110321	0	0	8068	588936	0	0
2024-08-22 10:42:47			0	36891	0	0	0	27815	26390	160426	26897	1067821	46416	110324	0	0	8066	589830	0	0
2024-08-22 10:43:47			0	36893	0	0	0	27815	26390	160478	26987	1067884	46428	110324	0	0	8067	589749	0	0
2024-08-22 10:44:47			0	36896	0	0	0	27812	26400	160486	27085	1067839	46428	110323	0	0	8067	589593	0	0
2024-08-22 10:45:47			0	36882	0	0	0	27815	26410	160594	26807	1067884	46429	110324	0	0	8066	590128	0	0
2024-08-22 10:46:47			0	36895	0	0	0	27810	26400	160566	26982	1067767	46429	110322	0	0	8067	589634	0	0
2024-08-22 10:47:47			0	36861	0	0	0	27815	26410	160554	26937	1067857	46418	110324	0	0	8065	590983	0	0
2024-08-22 10:48:47			0	36866	0	0	0	27812	26400	160726	27001	1067875	46429	110323	0	0	8065	590813	0	0
2024-08-22 10:49:47			0	36858	0	0	0	27825	26400	160638	26800	1067848	46418	110328	0	0	8064	591139	0	0
2024-08-22 10:50:47			0	36853	0	0	0	27823	26400	160634	26778	1067821	46429	110327	0	0	8064	591343	0	0
2024-08-22 10:51:47			0	36868	0	0	0	27823	26410	160618	27079	1067893	46419	110327	0	0	8065	590698	0	0
2024-08-22 10:52:47			0	36856	0	0	0	27831	26410	160638	26987	1067947	46442	110330	0	0	8064	591187	0	0
2024-08-22 10:53:47			0	36865	0	0	0	27836	26420	160682	27005	1067956	46430	110332	0	0	8065	590786	0	0
2024-08-22 10:54:47			0	36861	0	0	0	27841	26420	160654	26750	1067911	46431	110334	0	0	8064	590949	0	0
2024-08-22 10:55:47			0	36845	0	0	0	27844	26410	160590	26960	1067947	46430	110335	0	0	8063	591635	0	0
2024-08-22 10:56:47			0	36849	0	0	0	27841	26430	160634	26864	1068028	46431	110334	0	0	8064	591404	0	0
2024-08-22 10:57:47			0	36840	0	0	0	27846	26430	160610	27161	1068001	46431	110336	0	0	8063	591771	0	0
2024-08-22 10:58:47			0	36851	0	0	0	27844	26440	160598	27338	1068019	46433	110335	0	0	8064	591289	0	0
2024-08-22 10:59:47			0	36846	0	0	0	27859	26440	160598	27473	1068099	46433	110341	0	0	8063	591493	0	0
2024-08-22 11:00:47			0	36850	0	0	0	27857	26430	160578	26759	1068063	46432	110340	0	0	8064	591364	0	0
2024-08-22 11:01:47			0	36848	0	0	0	27857	26440	160618	27367	1068028	46445	110340	0	0	8063	591411	0	0
2024-08-22 11:02:47			0	36860	0	0	0	27854	26430	160558	26944	1068063	46444	110339	0	0	8064	590956	0	0
2024-08-22 11:03:47			0	36842	0	0	0	27862	26440	160662	26930	1068046	46422	110342	0	0	8063	591656	0	0
2024-08-22 11:04:47			0	36849	0	0	0	27870	26440	160622	27357	1068055	46422	110345	0	0	8063	591370	0	0
2024-08-22 11:05:47			0	36850	0	0	0	27880	26450	160714	27109	1068064	46413	110349	0	0	8063	591296	0	0
2024-08-22 11:06:47			0	36848	0	0	0	27877	26460	160650	26882	1068189	46435	110348	0	0	8063	591343	0	0
2024-08-22 11:07:47			0	36853	0	0	0	27877	26450	160566	27241	1068180	46434	110348	0	0	8063	591174	0	0
2024-08-22 11:08:47			0	36856	0	0	0	27880	26460	160634	27315	1068144	46424	110349	0	0	8064	591018	0	0
2024-08-22 11:09:47			0	36863	0	0	0	27901	26460	160566	27079	1068162	46435	110357	0	0	8064	590733	0	0
2024-08-22 11:10:47			0	36848	0	0	0	27898	26470	160682	27000	1068234	46458	110356	0	0	8063	591310	0	0
2024-08-22 11:11:47			0	36852	0	0	0	27903	26470	160638	27029	1068189	46448	110358	0	0	8063	591147	0	0
2024-08-22 11:12:47			0	36870	0	0	0	27898	26470	160658	27083	1068243	46436	110356	0	0	8064	590414	0	0
2024-08-22 11:13:47			0	36850	0	0	0	27906	26480	160618	27173	1068207	46437	110359	0	0	8063	591194	0	0
2024-08-22 11:14:47			0	36842	0	0	0	27898	26480	160606	27287	1068261	46437	110356	0	0	8063	591520	0	0
2024-08-22 11:15:47			0	36848	0	0	0	27896	26480	160614	27326	1068252	46437	110355	0	0	8063	591276	0	0
2024-08-22 11:16:47			0	36853	0	0	0	27903	26480	160498	27272	1068234	46437	110358	0	0	8063	591072	0	0
2024-08-22 11:17:47			0	36865	0	0	0	27890	26470	160530	27260	1068243	46425	110353	0	0	8064	590618	0	0
2024-08-22 11:18:47			0	36870	0	0	0	27898	26480	160498	26849	1068288	46437	110356	0	0	8064	590380	0	0
2024-08-22 11:19:47			0	36885	0	0	0	27903	26490	160522	27391	1068270	46450	110358	0	0	8065	589737	0	0
2024-08-22 11:20:47			0	36872	0	0	0	27901	26490	160434	27045	1068324	46438	110357	0	0	8064	590265	0	0
2024-08-22 11:21:47			0	36886	0	0	0	27903	26490	160514	27059	1068297	46438	110358	0	0	8065	589696	0	0
2024-08-22 11:22:47			0	36879	0	0	0	27896	26480	160510	27185	1068315	46426	110355	0	0	8065	590014	0	0
2024-08-22 11:23:47			0	36884	0	0	0	27909	26500	160558	26916	1068342	46439	110360	0	0	8065	589744	0	0
2024-08-22 11:24:47			0	36884	0	0	0	27916	26500	160514	27126	1068378	46429	110363	0	0	8065	589744	0	0
2024-08-22 11:25:47			0	36882	0	0	0	27927	26490	160470	27013	1068386	46438	110367	0	0	8065	589859	0	0
2024-08-22 11:26:47			0	36866	0	0	0	27948	26500	160534	26955	1068476	46439	110375	0	0	8063	590476	0	0
2024-08-22 11:27:47			0	36875	0	0	0	27950	26510	160546	27377	1068467	46440	110376	0	0	8064	590076	0	0
2024-08-22 11:28:47			0	36897	0	0	0	27955	26520	160506	27085	1068548	46454	110378	0	0	8065	589148	0	0
2024-08-22 11:29:47			0	36878	0	0	0	27968	26510	160562	27360	1068557	46452	110383	0	0	8064	589954	0	0
2024-08-22 11:30:47			0	36895	0	0	0	27976	26530	160482	27227	1068557	46454	110386	0	0	8065	589195	0	0
2024-08-22 11:31:47			0	36899	0	0	0	27968	26530	160422	26979	1068611	46454	110383	0	0	8065	589033	0	0
2024-08-22 11:32:47			0	36887	0	0	0	27961	26540	160462	27043	1068638	46444	110380	0	0	8064	589487	0	0
2024-08-22 11:33:47			0	36890	0	0	0	27945	26540	160438	26944	1068602	46443	110374	0	0	8065	589365	0	0
2024-08-22 11:34:47			0	36895	0	0	0	27932	26530	160478	27199	1068557	46442	110369	0	0	8065	589195	0	0
2024-08-22 11:35:47			0	36892	0	0	0	27906	26530	160362	27194	1068539	46431	110359	0	0	8066	589317	0	0
2024-08-22 11:36:47			0	36892	0	0	0	27924	26530	160410	27124	1068539	46431	110366	0	0	8065	589317	0	0
2024-08-22 11:37:47			0	36882	0	0	0	27919	26520	160438	27140	1068467	46420	110364	0	0	8065	589757	0	0
2024-08-22 11:38:47			0	36903	0	0	0	27927	26520	160422	27180	1068458	46419	110367	0	0	8066	588904	0	0
2024-08-22 11:39:47			0	36904	0	0	0	27919	26520	160414	27225	1068440	46442	110364	0	0	8066	588864	0	0
2024-08-22 11:40:47			0	36905	0	0	0	27935	26530	160298	27116	1068476	46442	110370	0	0	8066	588789	0	0
2024-08-22 11:41:47			0	36902	0	0	0	27940	26530	160414	27059	1068557	46431	110372	0	0	8066	588911	0	0
2024-08-22 11:42:47			0	36913	0	0	0	27935	26530	160278	27182	1068530	46420	110370	0	0	8066	588465	0	0
2024-08-22 11:43:47			0	36913	0	0	0	27924	26530	160274	27013	1068530	46442	110366	0	0	8067	588465	0	0
2024-08-22 11:44:47			0	36916	0	0	0	27940	26530	160294	27312	1068458	46442	110372	0	0	8067	588343	0	0
2024-08-22 11:45:47			0	36932	0	0	0	27932	26540	160222	27074	1068548	46432	110369	0	0	8068	587660	0	0
2024-08-22 11:46:47			0	36926	0	0	0	27927	26540	160290	27161	1068548	46443	110367	0	0	8067	587904	0	0
2024-08-22 11:47:47			0	36928	0	0	0	27914	26540	160258	27353	1068521	46443	110362	0	0	8068	587822	0	0
2024-08-22 11:48:47			0	36927	0	0	0	27903	26530	160206	27203	1068449	46431	110358	0	0	8068	587897	0	0
2024-08-22 11:49:47			0	36918	0	0	0	27903	26530	160326	27412	1068503	46431	110358	0	0	8067	588262	0	0
2024-08-22 11:50:47			0	36926	0	0	0	27909	26530	160202	27069	1068476	46431	110360	0	0	8068	587937	0	0
2024-08-22 11:51:47			0	36905	0	0	0	27898	26530	160338	27447	1068530	46431	110356	0	0	8067	588789	0	0
2024-08-22 11:52:47			0	36918	0	0	0	27906	26530	160354	27377	1068503	46431	110359	0	0	8067	588262	0	0
2024-08-22 11:53:47			0	36910	0	0	0	27906	26520	160302	27183	1068440	46442	110359	0	0	8067	588620	0	0
2024-08-22 11:54:47			0	36902	0	0	0	27909	26530	160254	27293	1068449	46454	110360	0	0	8066	588911	0	0
2024-08-22 11:55:47			0	36905	0	0	0	27922	26530	160286	27350	1068503	46431	110365	0	0	8066	588789	0	0
2024-08-22 11:56:47			0	36913	0	0	0	27924	26530	160350	27263	1068503	46420	110366	0	0	8067	588465	0	0
2024-08-22 11:57:47			0	36903	0	0	0	27927	26530	160326	27317	1068512	46454	110367	0	0	8066	588871	0	0
2024-08-22 11:58:47			0	36936	0	0	0	27940	26530	160262	27303	1068566	46454	110372	0	0	8068	587532	0	0
2024-08-22 11:59:47			0	36930	0	0	0	27958	26540	160238	27464	1068602	46455	110379	0	0	8067	587741	0	0
2024-08-22 12:00:47			0	36928	0	0	0	27971	26530	160278	27244	1068620	46454	110384	0	0	8067	587856	0	0
2024-08-22 12:01:47			0	36942	0	0	0	28005	26550	160274	27175	1068728	46466	110397	0	0	8067	587221	0	0
2024-08-22 12:02:47			0	36948	0	0	0	27984	26560	160230	26906	1068754	46458	110389	0	0	8068	586944	0	0
2024-08-22 12:03:47			0	36942	0	0	0	27989	26560	160182	27230	1068808	46468	110391	0	0	8067	587188	0	0
2024-08-22 12:04:47			0	36942	0	0	0	28015	26570	160122	27069	1068817	46447	110401	0	0	8067	587154	0	0
2024-08-22 12:05:47			0	36954	0	0	0	28018	26570	160130	27312	1068817	46447	110402	0	0	8068	586668	0	0
2024-08-22 12:06:47			0	36946	0	0	0	28023	26590	160058	26842	1068880	46471	110404	0	0	8067	586925	0	0
2024-08-22 12:07:47			0	36946	0	0	0	28012	26590	159986	26724	1068880	46449	110400	0	0	8067	586925	0	0
2024-08-22 12:08:47			0	36955	0	0	0	28010	26580	160066	26941	1068871	46459	110399	0	0	8068	586594	0	0
2024-08-22 12:09:47			0	36947	0	0	0	27994	26580	160090	26965	1068844	46459	110393	0	0	8068	586918	0	0
2024-08-22 12:10:47			0	36958	0	0	0	28002	26590	160074	26871	1068853	46438	110396	0	0	8068	586439	0	0
2024-08-22 12:11:47			0	36961	0	0	0	28007	26580	159962	27118	1068844	46448	110398	0	0	8068	586351	0	0
2024-08-22 12:12:47			0	36947	0	0	0	28028	26580	160030	26981	1068925	46459	110406	0	0	8067	586918	0	0
2024-08-22 12:13:47			0	36953	0	0	0	28059	26600	160070	26845	1069006	46438	110418	0	0	8067	586608	0	0
2024-08-22 12:14:47			0	36957	0	0	0	28077	26590	160094	27248	1068997	46449	110425	0	0	8067	586479	0	0
2024-08-22 12:15:47			0	36962	0	0	0	28098	26610	159950	27072	1069104	46462	110433	0	0	8067	586210	0	0
2024-08-22 12:16:47			0	36988	0	0	0	28103	26610	159986	26916	1069140	46473	110435	0	0	8068	585158	0	0
2024-08-22 12:17:47			0	36981	0	0	0	28109	26630	159902	27275	1069248	46475	110437	0	0	8068	585374	0	0
2024-08-22 12:18:47			0	36979	0	0	0	28109	26640	159934	26779	1069221	46476	110437	0	0	8068	585421	0	0
2024-08-22 12:19:47			0	36994	0	0	0	28103	26640	159970	27201	1069221	46454	110435	0	0	8069	584815	0	0
2024-08-22 12:20:47			0	36978	0	0	0	28109	26640	159954	27144	1069275	46454	110437	0	0	8068	585462	0	0
2024-08-22 12:21:47			0	36989	0	0	0	28129	26660	160014	27150	1069329	46467	110445	0	0	8068	584950	0	0
2024-08-22 12:22:47			0	37003	0	0	0	28132	26670	159934	27114	1069392	46467	110446	0	0	8069	584351	0	0
2024-08-22 12:23:47			0	37026	0	0	0	28119	26680	159758	26923	1069356	46469	110441	0	0	8071	583389	0	0
2024-08-22 12:24:47			0	37032	0	0	0	28111	26690	159694	26967	1069347	46458	110438	0	0	8071	583114	0	0
2024-08-22 12:25:47			0	37057	0	0	0	28122	26680	159506	27013	1069419	46447	110442	0	0	8072	582140	0	0
2024-08-22 12:26:47			0	37080	0	0	0	28132	26690	159510	27306	1069455	46458	110446	0	0	8074	581180	0	0
2024-08-22 12:27:47			0	37086	0	0	0	28119	26690	159402	27390	1069517	46448	110441	0	0	8074	580939	0	0
2024-08-22 12:28:47			0	37104	0	0	0	28114	26690	159334	27190	1069464	46436	110439	0	0	8075	580215	0	0
2024-08-22 12:29:47			0	37116	0	0	0	28122	26690	159194	26979	1069437	46470	110442	0	0	8076	579733	0	0
2024-08-22 12:30:47			0	37129	0	0	0	28129	26700	159282	27242	1069428	46472	110445	0	0	8077	579178	0	0
2024-08-22 12:31:47			0	37136	0	0	0	28137	26700	159330	26932	1069419	46459	110448	0	0	8077	578897	0	0
2024-08-22 12:32:47			0	37142	0	0	0	28124	26710	159154	27261	1069464	46450	110443	0	0	8078	578623	0	0
2024-08-22 12:33:47			0	37145	0	0	0	28127	26700	159150	27138	1069499	46449	110444	0	0	8078	578536	0	0
2024-08-22 12:34:47			0	37161	0	0	0	28119	26710	159186	27164	1069464	46450	110441	0	0	8079	577861	0	0
2024-08-22 12:35:47			0	37144	0	0	0	28119	26710	159138	27003	1069491	46472	110441	0	0	8078	578543	0	0
2024-08-22 12:36:47			0	37129	0	0	0	28129	26710	159138	27194	1069500	46460	110445	0	0	8077	579145	0	0
2024-08-22 12:37:47			0	37137	0	0	0	28122	26720	158982	27109	1069455	46473	110442	0	0	8077	578790	0	0
2024-08-22 12:38:47			0	37145	0	0	0	28127	26720	158986	27244	1069544	46441	110444	0	0	8078	578469	0	0
2024-08-22 12:39:47			0	37159	0	0	0	28119	26720	159042	27050	1069562	46461	110441	0	0	8079	577908	0	0
2024-08-22 12:40:47			0	37163	0	0	0	28109	26720	159062	27133	1069455	46461	110437	0	0	8079	577748	0	0
2024-08-22 12:41:47			0	37182	0	0	0	28111	26720	159014	27242	1069455	46461	110438	0	0	8080	576987	0	0
2024-08-22 12:42:47			0	37171	0	0	0	28116	26710	159062	27071	1069526	46472	110440	0	0	8079	577460	0	0
2024-08-22 12:43:47			0	37183	0	0	0	28124	26720	159054	27135	1069518	46452	110443	0	0	8080	576947	0	0
2024-08-22 12:44:47			0	37178	0	0	0	28122	26720	158894	27072	1069509	46473	110442	0	0	8080	577147	0	0
2024-08-22 12:45:47			0	37190	0	0	0	28127	26720	158930	26916	1069571	46474	110444	0	0	8080	576666	0	0
2024-08-22 12:46:47			0	37193	0	0	0	28140	26720	158890	26942	1069598	46462	110449	0	0	8080	576546	0	0
2024-08-22 12:47:47			0	37198	0	0	0	28142	26720	158910	27180	1069598	46441	110450	0	0	8081	576346	0	0
2024-08-22 12:48:47			0	37201	0	0	0	28140	26720	158958	27175	1069544	46462	110449	0	0	8081	576226	0	0
2024-08-22 12:49:47			0	37183	0	0	0	28163	26730	158910	27199	1069536	46485	110458	0	0	8079	576914	0	0
2024-08-22 12:50:47			0	37199	0	0	0	28192	26730	158926	27131	1069643	46474	110469	0	0	8080	576273	0	0
2024-08-22 12:51:47			0	37203	0	0	0	28186	26740	158914	27171	1069715	46454	110467	0	0	8080	576080	0	0
2024-08-22 12:52:47			0	37225	0	0	0	28199	26750	158998	27178	1069760	46476	110472	0	0	8081	575168	0	0
2024-08-22 12:53:47			0	37219	0	0	0	28210	26750	158882	27144	1069733	46487	110476	0	0	8081	575407	0	0
2024-08-22 12:54:47			0	37192	0	0	0	28197	26760	158794	27279	1069832	46478	110471	0	0	8080	576454	0	0
2024-08-22 12:55:47			0	37217	0	0	0	28197	26770	158790	27196	1069814	46467	110471	0	0	8081	575422	0	0
2024-08-22 12:56:47			0	37209	0	0	0	28205	26770	158790	27015	1069787	46467	110474	0	0	8080	575741	0	0
2024-08-22 12:57:47			0	37206	0	0	0	28197	26770	158902	27086	1069850	46479	110471	0	0	8080	575861	0	0
2024-08-22 12:58:47			0	37211	0	0	0	28207	26780	158762	27173	1069868	46468	110475	0	0	8081	575628	0	0
2024-08-22 12:59:47			0	37207	0	0	0	28199	26780	158738	27171	1069885	46467	110472	0	0	8080	575788	0	0
2024-08-22 13:00:47			0	37214	0	0	0	28202	26780	158866	27062	1069894	46468	110473	0	0	8081	575509	0	0
2024-08-22 13:01:47			0	37211	0	0	0	28202	26780	158754	26922	1069868	46468	110473	0	0	8081	575628	0	0
2024-08-22 13:02:47			0	37229	0	0	0	28215	26790	158750	26944	1069886	46448	110478	0	0	8082	574876	0	0
2024-08-22 13:03:47			0	37238	0	0	0	28231	26790	158726	27216	1069940	46458	110484	0	0	8082	574517	0	0
2024-08-22 13:04:47			0	37245	0	0	0	28249	26800	158634	26840	1069985	46482	110491	0	0	8082	574205	0	0
2024-08-22 13:05:47			0	37246	0	0	0	28259	26800	158746	26941	1069985	46493	110495	0	0	8082	574165	0	0
2024-08-22 13:06:47			0	37265	0	0	0	28249	26810	158630	27485	1070110	46471	110491	0	0	8083	573374	0	0
2024-08-22 13:07:47			0	37256	0	0	0	28233	26820	158618	27301	1070092	46483	110485	0	0	8083	573700	0	0
2024-08-22 13:08:47			0	37262	0	0	0	28231	26810	158610	27199	1070083	46460	110484	0	0	8083	573493	0	0
2024-08-22 13:09:47			0	37272	0	0	0	28228	26820	158470	27315	1070128	46461	110483	0	0	8084	573062	0	0
2024-08-22 13:10:47			0	37302	0	0	0	28249	26810	158458	27130	1070083	46471	110491	0	0	8085	571900	0	0
2024-08-22 13:11:47			0	37309	0	0	0	28254	26820	158310	27334	1070128	46472	110493	0	0	8086	571589	0	0
2024-08-22 13:12:47			0	37329	0	0	0	28262	26830	158283	26849	1070191	46485	110496	0	0	8087	570761	0	0
2024-08-22 13:13:47			0	37330	0	0	0	28275	26820	158247	27154	1070209	46472	110501	0	0	8087	570753	0	0
2024-08-22 13:14:47			0	37340	0	0	0	28283	26830	158219	27033	1070200	46496	110504	0	0	8087	570324	0	0
2024-08-22 13:15:47			0	37341	0	0	0	28298	26850	158163	27367	1070308	46475	110510	0	0	8087	570218	0	0
2024-08-22 13:16:47			0	37343	0	0	0	28272	26850	158203	27116	1070281	46475	110500	0	0	8088	570139	0	0
2024-08-22 13:17:47			0	37362	0	0	0	28241	26840	158147	27097	1070299	46463	110488	0	0	8089	569417	0	0
2024-08-22 13:18:47			0	37347	0	0	0	28251	26850	158175	27145	1070236	46465	110492	0	0	8088	569980	0	0
2024-08-22 13:19:47			0	37362	0	0	0	28249	26840	158075	27138	1070191	46452	110491	0	0	8089	569417	0	0
2024-08-22 13:20:47			0	37391	0	0	0	28262	26840	157955	27123	1070191	46474	110496	0	0	8090	568267	0	0
2024-08-22 13:21:47			0	37395	0	0	0	28264	26840	158071	27126	1070209	46463	110497	0	0	8091	568109	0	0
2024-08-22 13:22:47			0	37358	0	0	0	28267	26850	157971	27017	1070281	46475	110498	0	0	8088	569543	0	0
2024-08-22 13:23:47			0	37403	0	0	0	28257	26850	157987	27272	1070227	46475	110494	0	0	8091	567759	0	0
2024-08-22 13:24:47			0	37405	0	0	0	28267	26840	157975	27003	1070272	46463	110498	0	0	8091	567713	0	0
2024-08-22 13:25:47			0	37386	0	0	0	28270	26840	158015	27081	1070299	46474	110499	0	0	8090	568465	0	0
2024-08-22 13:26:47			0	37383	0	0	0	28293	26850	158083	27003	1070290	46488	110508	0	0	8089	568552	0	0
2024-08-22 13:27:47			0	37377	0	0	0	28314	26860	158079	27072	1070415	46488	110516	0	0	8089	568757	0	0
2024-08-22 13:28:47			0	37392	0	0	0	28319	26860	158055	27104	1070415	46499	110518	0	0	8090	568163	0	0
2024-08-22 13:29:47			0	37391	0	0	0	28329	26880	158015	27085	1070469	46490	110522	0	0	8089	568137	0	0
2024-08-22 13:30:47			0	37402	0	0	0	28337	26890	158055	27364	1070541	46479	110525	0	0	8090	567669	0	0
2024-08-22 13:31:47			0	37398	0	0	0	28332	26900	157987	27307	1070586	46492	110523	0	0	8090	567795	0	0
2024-08-22 13:32:47			0	37393	0	0	0	28340	26900	157979	27246	1070568	46481	110526	0	0	8090	567993	0	0
2024-08-22 13:33:47			0	37404	0	0	0	28337	26900	157843	27352	1070622	46481	110525	0	0	8090	567557	0	0
2024-08-22 13:34:47			0	37418	0	0	0	28329	26910	157955	27100	1070613	46482	110522	0	0	8091	566970	0	0
2024-08-22 13:35:47			0	37396	0	0	0	28337	26910	157951	27166	1070559	46494	110525	0	0	8090	567841	0	0
2024-08-22 13:36:47			0	37418	0	0	0	28335	26910	157871	27144	1070613	46482	110524	0	0	8091	566970	0	0
2024-08-22 13:37:47			0	37430	0	0	0	28332	26910	157791	27095	1070721	46494	110523	0	0	8092	566496	0	0
2024-08-22 13:38:47			0	37415	0	0	0	28324	26910	157947	27187	1070613	46482	110520	0	0	8091	567089	0	0
2024-08-22 13:39:47			0	37438	0	0	0	28290	26910	157731	27178	1070577	46481	110507	0	0	8093	566179	0	0
2024-08-22 13:40:47			0	37454	0	0	0	28280	26910	157783	27164	1070523	46470	110503	0	0	8094	565547	0	0
2024-08-22 13:41:47			0	37436	0	0	0	28275	26910	157699	27334	1070550	46459	110501	0	0	8093	566258	0	0
2024-08-22 13:42:47			0	37437	0	0	0	28280	26900	157731	27003	1070451	46458	110503	0	0	8093	566251	0	0
2024-08-22 13:43:47			0	37454	0	0	0	28275	26900	157671	27481	1070460	46481	110501	0	0	8094	565580	0	0
2024-08-22 13:44:47			0	37443	0	0	0	28288	26910	157707	27173	1070496	46448	110506	0	0	8093	565982	0	0
2024-08-22 13:45:47			0	37448	0	0	0	28283	26900	157595	27244	1070532	46458	110504	0	0	8094	565816	0	0
2024-08-22 13:46:47			0	37468	0	0	0	28277	26910	157695	27017	1070443	46448	110502	0	0	8095	564994	0	0
2024-08-22 13:47:47			0	37457	0	0	0	28283	26890	157699	27331	1070487	46468	110504	0	0	8094	565493	0	0
2024-08-22 13:48:47			0	37475	0	0	0	28303	26900	157751	27048	1070505	46492	110512	0	0	8095	564750	0	0
2024-08-22 13:49:47			0	37469	0	0	0	28319	26890	157651	27046	1070523	46492	110518	0	0	8094	565019	0	0
2024-08-22 13:50:47			0	37471	0	0	0	28329	26910	157683	27235	1070631	46493	110522	0	0	8094	564876	0	0
2024-08-22 13:51:47			0	37474	0	0	0	28322	26890	157595	26849	1070541	46491	110519	0	0	8095	564822	0	0
2024-08-22 13:52:47			0	37470	0	0	0	28311	26910	157563	27223	1070586	46471	110515	0	0	8095	564915	0	0
2024-08-22 13:53:47			0	37468	0	0	0	28319	26900	157531	27286	1070595	46493	110518	0	0	8094	565027	0	0
2024-08-22 13:54:47			0	37482	0	0	0	28332	26920	157523	27180	1070622	46482	110523	0	0	8095	564409	0	0
2024-08-22 13:55:47			0	37479	0	0	0	28324	26910	157583	27319	1070640	46494	110520	0	0	8095	564560	0	0
2024-08-22 13:56:47			0	37488	0	0	0	28314	26930	157571	26939	1070667	46495	110516	0	0	8096	564140	0	0
2024-08-22 13:57:47			0	37493	0	0	0	28311	26920	157575	27045	1070595	46471	110515	0	0	8096	563975	0	0
2024-08-22 13:58:47			0	37489	0	0	0	28314	26920	157523	27440	1070622	46482	110516	0	0	8096	564133	0	0
2024-08-22 13:59:47			0	37487	0	0	0	28306	26910	157519	27088	1070577	46470	110513	0	0	8096	564244	0	0
2024-08-22 14:00:47			0	37520	0	0	0	28311	26920	157351	26783	1070595	46471	110515	0	0	8098	562911	0	0
2024-08-22 14:01:47			0	37531	0	0	0	28303	26920	157399	27173	1070524	46472	110512	0	0	8098	562478	0	0
2024-08-22 14:02:47			0	37537	0	0	0	28306	26910	157359	27274	1070613	46471	110513	0	0	8099	562274	0	0
2024-08-22 14:03:47			0	37531	0	0	0	28311	26910	157403	26920	1070577	46470	110515	0	0	8098	562511	0	0
2024-08-22 14:04:47			0	37538	0	0	0	28311	26910	157387	27213	1070586	46482	110515	0	0	8099	562235	0	0
2024-08-22 14:05:47			0	37541	0	0	0	28348	26910	157363	27100	1070533	46482	110529	0	0	8098	562117	0	0
2024-08-22 14:06:47			0	37532	0	0	0	28363	26920	157315	27180	1070757	46494	110535	0	0	8097	562439	0	0
2024-08-22 14:07:47			0	37553	0	0	0	28376	26930	157351	26960	1070721	46495	110540	0	0	8098	561581	0	0
2024-08-22 14:08:47			0	37544	0	0	0	28376	26930	157307	27293	1070748	46495	110540	0	0	8098	561935	0	0
2024-08-22 14:09:47			0	37555	0	0	0	28368	26930	157383	27152	1070784	46484	110537	0	0	8099	561502	0	0
2024-08-22 14:10:47			0	37553	0	0	0	28361	26950	157283	27239	1070811	46508	110534	0	0	8099	561516	0	0
2024-08-22 14:11:47			0	37563	0	0	0	28363	26950	157279	27137	1070730	46486	110535	0	0	8099	561123	0	0
2024-08-22 14:12:47			0	37556	0	0	0	28379	26950	157327	27512	1070838	46486	110541	0	0	8099	561398	0	0
2024-08-22 14:13:47			0	37561	0	0	0	28392	26950	157163	27230	1070838	46498	110546	0	0	8099	561202	0	0
2024-08-22 14:14:47			0	37568	0	0	0	28386	26960	157251	27098	1070874	46486	110544	0	0	8099	560894	0	0
2024-08-22 14:15:47			0	37581	0	0	0	28381	26960	157215	27118	1070883	46487	110542	0	0	8100	560384	0	0
2024-08-22 14:16:47			0	37569	0	0	0	28374	26960	157291	27069	1070909	46487	110539	0	0	8099	560855	0	0
2024-08-22 14:17:47			0	37575	0	0	0	28361	26970	157211	27142	1070838	46499	110534	0	0	8100	560587	0	0
2024-08-22 14:18:47			0	37569	0	0	0	28361	26970	157123	27150	1070927	46477	110534	0	0	8100	560823	0	0
2024-08-22 14:19:47			0	37587	0	0	0	28345	26980	157115	27275	1070829	46477	110528	0	0	8101	560084	0	0
2024-08-22 14:20:47			0	37590	0	0	0	28342	26960	157047	27222	1070775	46487	110527	0	0	8101	560031	0	0
2024-08-22 14:21:47			0	37601	0	0	0	28342	26960	157151	27222	1070802	46499	110527	0	0	8102	559599	0	0
2024-08-22 14:22:47			0	37592	0	0	0	28332	26960	157103	27275	1070721	46476	110523	0	0	8102	559952	0	0
2024-08-22 14:23:47			0	37592	0	0	0	28342	26960	157091	27124	1070766	46475	110527	0	0	8101	559952	0	0
2024-08-22 14:24:47			0	37597	0	0	0	28340	26960	157059	27286	1070748	46465	110526	0	0	8102	559756	0	0
2024-08-22 14:25:47			0	37584	0	0	0	28345	26960	157087	27365	1070775	46476	110528	0	0	8101	560266	0	0
2024-08-22 14:26:47			0	37582	0	0	0	28376	26950	157175	27305	1070784	46486	110540	0	0	8100	560377	0	0
2024-08-22 14:27:47			0	37596	0	0	0	28389	26960	157147	27211	1070883	46487	110545	0	0	8101	559795	0	0
2024-08-22 14:28:47			0	37579	0	0	0	28366	26970	157103	27348	1070865	46487	110536	0	0	8100	560430	0	0
2024-08-22 14:29:47			0	37592	0	0	0	28355	26970	157179	27123	1070892	46476	110532	0	0	8101	559920	0	0
2024-08-22 14:30:47			0	37589	0	0	0	28342	26970	157151	27111	1070901	46500	110527	0	0	8101	560038	0	0
2024-08-22 14:31:47			0	37575	0	0	0	28348	26970	157227	27289	1070874	46477	110529	0	0	8100	560587	0	0
2024-08-22 14:32:47			0	37602	0	0	0	28322	26970	157135	27770	1070784	46476	110519	0	0	8102	559528	0	0
2024-08-22 14:33:47			0	37584	0	0	0	28311	26960	157151	27228	1070775	46476	110515	0	0	8101	560266	0	0
2024-08-22 14:34:47			0	37587	0	0	0	28335	26950	157155	27005	1070784	46475	110524	0	0	8101	560180	0	0
2024-08-22 14:35:47			0	37567	0	0	0	28342	26960	157187	27232	1070820	46475	110527	0	0	8100	560934	0	0
2024-08-22 14:36:47			0	37572	0	0	0	28342	26960	157135	27253	1070874	46486	110527	0	0	8100	560737	0	0
2024-08-22 14:37:47			0	37581	0	0	0	28335	26970	157267	27164	1070865	46499	110524	0	0	8101	560352	0	0
2024-08-22 14:38:47			0	37591	0	0	0	28335	26960	157259	27154	1070829	46499	110524	0	0	8101	559991	0	0
2024-08-22 14:39:47			0	37569	0	0	0	28342	26970	157311	27048	1070865	46476	110527	0	0	8100	560823	0	0
2024-08-22 14:40:47			0	37577	0	0	0	28329	26960	157199	27138	1070829	46499	110522	0	0	8101	560541	0	0
2024-08-22 14:41:47			0	37552	0	0	0	28319	26960	157223	27239	1070829	46499	110518	0	0	8099	561523	0	0
2024-08-22 14:42:47			0	37550	0	0	0	28332	26960	157247	26949	1070766	46453	110523	0	0	8099	561602	0	0
2024-08-22 14:43:47			0	37557	0	0	0	28407	26960	157287	27282	1070883	46499	110552	0	0	8098	561327	0	0
2024-08-22 14:44:47			0	37567	0	0	0	28444	26980	157339	26788	1071044	46488	110566	0	0	8098	560869	0	0
2024-08-22 14:45:47			0	37536	0	0	0	28459	26980	157391	26925	1071107	46511	110572	0	0	8096	562088	0	0
2024-08-22 14:46:47			0	37540	0	0	0	28475	26990	157327	26930	1071179	46501	110578	0	0	8096	561899	0	0
2024-08-22 14:47:47			0	37548	0	0	0	28496	27010	157331	27170	1071313	46513	110586	0	0	8096	561520	0	0
2024-08-22 14:48:47			0	37558	0	0	0	28457	27020	157339	26871	1071287	46515	110571	0	0	8098	561094	0	0
2024-08-22 14:49:47			0	37556	0	0	0	28418	27020	157355	26680	1071314	46504	110556	0	0	8098	561173	0	0
2024-08-22 14:50:47			0	37544	0	0	0	28444	27030	157251	27187	1071278	46483	110566	0	0	8097	561612	0	0
2024-08-22 14:51:47			0	37558	0	0	0	28446	27040	157271	27107	1071287	46495	110567	0	0	8098	561030	0	0
2024-08-22 14:52:47			0	37549	0	0	0	28438	27040	157255	27223	1071341	46506	110564	0	0	8098	561384	0	0
2024-08-22 14:53:47			0	37578	0	0	0	28428	27050	157199	27229	1071341	46496	110560	0	0	8100	560212	0	0
2024-08-22 14:54:47			0	37596	0	0	0	28405	27050	157159	27274	1071314	46485	110551	0	0	8101	559506	0	0
2024-08-22 14:55:47			0	37597	0	0	0	28407	27050	157019	27209	1071341	46474	110552	0	0	8101	559467	0	0
2024-08-22 14:56:47			0	37616	0	0	0	28444	27050	156943	27128	1071261	46485	110566	0	0	8101	558722	0	0
2024-08-22 14:57:47			0	37643	0	0	0	28446	27050	156919	27157	1071314	46496	110567	0	0	8103	557665	0	0
2024-08-22 14:58:47			0	37624	0	0	0	28449	27050	156863	26981	1071341	46507	110568	0	0	8102	558409	0	0
2024-08-22 14:59:47			0	37638	0	0	0	28444	27060	156891	26953	1071359	46497	110566	0	0	8103	557829	0	0
2024-08-22 15:00:47			0	37657	0	0	0	28472	27060	156807	27034	1071386	46497	110577	0	0	8103	557085	0	0
2024-08-22 15:01:47			0	37668	0	0	0	28459	27070	156791	27109	1071422	46509	110572	0	0	8104	556623	0	0
2024-08-22 15:02:47			0	37680	0	0	0	28436	27060	156731	26689	1071386	46508	110563	0	0	8105	556186	0	0
2024-08-22 15:03:47			0	37696	0	0	0	28402	27080	156663	27170	1071413	46488	110550	0	0	8107	555498	0	0
2024-08-22 15:04:47			0	37702	0	0	0	28402	27070	156679	27145	1071341	46487	110550	0	0	8107	555295	0	0
2024-08-22 15:05:47			0	37701	0	0	0	28410	27060	156631	27286	1071323	46486	110553	0	0	8107	555366	0	0
2024-08-22 15:06:47			0	37712	0	0	0	28407	27060	156547	27123	1071359	46475	110552	0	0	8108	554937	0	0
2024-08-22 15:07:47			0	37697	0	0	0	28397	27060	156591	26996	1071359	46486	110548	0	0	8107	555522	0	0
2024-08-22 15:08:47			0	37701	0	0	0	28405	27060	156551	27320	1071225	46475	110551	0	0	8107	555366	0	0
2024-08-22 15:09:47			0	37677	0	0	0	28425	27060	156615	27104	1071296	46486	110559	0	0	8105	556304	0	0
2024-08-22 15:10:47			0	37667	0	0	0	28444	27060	156723	27059	1071296	46486	110566	0	0	8104	556694	0	0
2024-08-22 15:11:47			0	37656	0	0	0	28464	27050	156899	27204	1071314	46485	110574	0	0	8103	557156	0	0
2024-08-22 15:12:47			0	37657	0	0	0	28451	27070	156775	27046	1071422	46498	110569	0	0	8104	557053	0	0
2024-08-22 15:13:47			0	37654	0	0	0	28438	27060	156871	26866	1071467	46497	110564	0	0	8104	557203	0	0
2024-08-22 15:14:47			0	37661	0	0	0	28431	27070	156891	27234	1071377	46487	110561	0	0	8104	556897	0	0
2024-08-22 15:15:47			0	37664	0	0	0	28436	27060	156811	27154	1071332	46486	110563	0	0	8104	556812	0	0
2024-08-22 15:16:47			0	37654	0	0	0	28446	27070	156819	27064	1071341	46487	110567	0	0	8104	557171	0	0
2024-08-22 15:17:47			0	37644	0	0	0	28475	27060	156803	27177	1071386	46508	110578	0	0	8103	557594	0	0
2024-08-22 15:18:47			0	37659	0	0	0	28475	27080	156775	27206	1071440	46488	110578	0	0	8104	556943	0	0
2024-08-22 15:19:47			0	37642	0	0	0	28470	27080	156795	26856	1071494	46510	110576	0	0	8103	557608	0	0
2024-08-22 15:20:47			0	37645	0	0	0	28467	27080	156731	26708	1071503	46500	110575	0	0	8103	557491	0	0
2024-08-22 15:21:47			0	37665	0	0	0	28496	27080	156867	26871	1071503	46500	110586	0	0	8104	556709	0	0
2024-08-22 15:22:47			0	37660	0	0	0	28503	27090	156707	27182	1071646	46500	110589	0	0	8103	556872	0	0
2024-08-22 15:23:47			0	37641	0	0	0	28522	27100	156811	26861	1071638	46523	110596	0	0	8102	557583	0	0
2024-08-22 15:24:47			0	37655	0	0	0	28503	27110	156767	27251	1071736	46513	110589	0	0	8103	557004	0	0
2024-08-22 15:25:47			0	37668	0	0	0	28498	27120	156751	27130	1071674	46502	110587	0	0	8104	556464	0	0
2024-08-22 15:26:47			0	37662	0	0	0	28493	27110	156651	27277	1071638	46480	110585	0	0	8104	556730	0	0
2024-08-22 15:27:47			0	37671	0	0	0	28501	27110	156659	27355	1071557	46480	110588	0	0	8104	556378	0	0
2024-08-22 15:28:47			0	37649	0	0	0	28501	27110	156711	27209	1071602	46501	110588	0	0	8103	557238	0	0
2024-08-22 15:29:47			0	37664	0	0	0	28516	27110	156663	27270	1071709	46491	110594	0	0	8103	556652	0	0
2024-08-22 15:30:47			0	37687	0	0	0	28524	27110	156639	27270	1071602	46491	110597	0	0	8105	555753	0	0
2024-08-22 15:31:47			0	37686	0	0	0	28535	27120	156711	27332	1071701	46492	110601	0	0	8104	555761	0	0
2024-08-22 15:32:47			0	37690	0	0	0	28542	27110	156587	27300	1071692	46491	110604	0	0	8104	555636	0	0
2024-08-22 15:33:47			0	37685	0	0	0	28555	27140	156599	27145	1071817	46504	110609	0	0	8104	555736	0	0
2024-08-22 15:34:47			0	37695	0	0	0	28540	27130	156595	27072	1071835	46516	110603	0	0	8105	555377	0	0
2024-08-22 15:35:47			0	37719	0	0	0	28527	27130	156531	27223	1071889	46504	110598	0	0	8106	554441	0	0
2024-08-22 15:36:47			0	37722	0	0	0	28516	27140	156427	27317	1071799	46495	110594	0	0	8107	554293	0	0
2024-08-22 15:37:47			0	37719	0	0	0	28532	27140	156471	27163	1071844	46483	110600	0	0	8106	554409	0	0
2024-08-22 15:38:47			0	37725	0	0	0	28514	27140	156407	26897	1071826	46484	110593	0	0	8107	554176	0	0
2024-08-22 15:39:47			0	37737	0	0	0	28514	27150	156383	26889	1071835	46496	110593	0	0	8108	553676	0	0
2024-08-22 15:40:47			0	37740	0	0	0	28516	27140	156451	26899	1071692	46495	110594	0	0	8108	553591	0	0
2024-08-22 15:41:47			0	37731	0	0	0	28542	27150	156427	27223	1071755	46506	110604	0	0	8107	553910	0	0
2024-08-22 15:42:47			0	37738	0	0	0	28561	27140	156391	26961	1071844	46504	110611	0	0	8107	553669	0	0
2024-08-22 15:43:47			0	37746	0	0	0	28561	27140	156451	27383	1071871	46516	110611	0	0	8107	553358	0	0
2024-08-22 15:44:47			0	37738	0	0	0	28566	27150	156359	27388	1071898	46496	110613	0	0	8107	553637	0	0
2024-08-22 15:45:47			0	37736	0	0	0	28573	27160	156355	27170	1071970	46507	110616	0	0	8107	553683	0	0
2024-08-22 15:46:47			0	37748	0	0	0	28589	27160	156407	27071	1071988	46518	110622	0	0	8107	553216	0	0
2024-08-22 15:47:47			0	37740	0	0	0	28584	27160	156259	27034	1071961	46506	110620	0	0	8107	553528	0	0
2024-08-22 15:48:47			0	37763	0	0	0	28542	27170	156299	27228	1072033	46508	110604	0	0	8109	552601	0	0
2024-08-22 15:49:47			0	37757	0	0	0	28532	27180	156287	27008	1071971	46498	110600	0	0	8109	552803	0	0
2024-08-22 15:50:47			0	37755	0	0	0	28540	27170	156303	27029	1071935	46498	110603	0	0	8108	552912	0	0
2024-08-22 15:51:47			0	37771	0	0	0	28555	27170	156359	27189	1072015	46508	110609	0	0	8109	552290	0	0
2024-08-22 15:52:47			0	37761	0	0	0	28573	27170	156235	27307	1071961	46487	110616	0	0	8108	552679	0	0
2024-08-22 15:53:47			0	37784	0	0	0	28576	27170	156103	27119	1072069	46498	110617	0	0	8110	551784	0	0
2024-08-22 15:54:47			0	37778	0	0	0	28579	27170	156259	27020	1072042	46508	110618	0	0	8109	552018	0	0
2024-08-22 15:55:47			0	37796	0	0	0	28571	27180	156139	27039	1071980	46499	110615	0	0	8110	551287	0	0
2024-08-22 15:56:47			0	37789	0	0	0	28592	27190	156139	27036	1072042	46510	110623	0	0	8110	551527	0	0
2024-08-22 15:57:47			0	37797	0	0	0	28581	27190	156051	27081	1072123	46500	110619	0	0	8110	551216	0	0
2024-08-22 15:58:47			0	37785	0	0	0	28584	27190	156059	27268	1072078	46500	110620	0	0	8110	551682	0	0
2024-08-22 15:59:47			0	37804	0	0	0	28607	27190	156035	27471	1072069	46510	110629	0	0	8110	550944	0	0
2024-08-22 16:00:47			0	37795	0	0	0	28586	27190	156067	27209	1072078	46510	110621	0	0	8110	551294	0	0
2024-08-22 16:01:47			0	37806	0	0	0	28568	27190	156075	27059	1072105	46510	110614	0	0	8111	550867	0	0
2024-08-22 16:02:47			0	37815	0	0	0	28584	27190	155987	27222	1072051	46510	110620	0	0	8111	550518	0	0
2024-08-22 16:03:47			0	37813	0	0	0	28605	27200	155919	27072	1072141	46500	110628	0	0	8111	550563	0	0
2024-08-22 16:04:47			0	37821	0	0	0	28597	27190	155959	27059	1072159	46510	110625	0	0	8111	550285	0	0
2024-08-22 16:05:47			0	37807	0	0	0	28594	27190	155951	27163	1072132	46510	110624	0	0	8111	550828	0	0
2024-08-22 16:06:47			0	37834	0	0	0	28618	27210	155947	26804	1072186	46512	110633	0	0	8112	549717	0	0
2024-08-22 16:07:47			0	37823	0	0	0	28633	27210	156031	26835	1072249	46525	110639	0	0	8111	550144	0	0
2024-08-22 16:08:47			0	37828	0	0	0	28638	27220	155863	26906	1072204	46513	110641	0	0	8111	549919	0	0
2024-08-22 16:09:47			0	37836	0	0	0	28664	27220	155919	27088	1072285	46513	110651	0	0	8111	549608	0	0
2024-08-22 16:10:47			0	37840	0	0	0	28641	27230	155875	27414	1072321	46513	110642	0	0	8112	549422	0	0
2024-08-22 16:11:47			0	37870	0	0	0	28651	27230	155863	27282	1072303	46514	110646	0	0	8114	548260	0	0
2024-08-22 16:12:47			0	37863	0	0	0	28628	27240	155767	27067	1072473	46515	110637	0	0	8114	548500	0	0
2024-08-22 16:13:47			0	37874	0	0	0	28620	27240	155623	27026	1072375	46515	110634	0	0	8114	548074	0	0
2024-08-22 16:14:47			0	37894	0	0	0	28607	27230	155559	27137	1072303	46503	110629	0	0	8116	547332	0	0
2024-08-22 16:15:47			0	37915	0	0	0	28599	27240	155551	27071	1072312	46504	110626	0	0	8117	546489	0	0
2024-08-22 16:16:47			0	37923	0	0	0	28644	27240	155563	27216	1072321	46515	110643	0	0	8117	546180	0	0
2024-08-22 16:17:47			0	37919	0	0	0	28625	27230	155615	27043	1072330	46514	110636	0	0	8117	546366	0	0
2024-08-22 16:18:47			0	37929	0	0	0	28607	27240	155491	27254	1072321	46515	110629	0	0	8118	545949	0	0
2024-08-22 16:19:47			0	37941	0	0	0	28594	27250	155475	26852	1072384	46494	110624	0	0	8119	545454	0	0
2024-08-22 16:20:47			0	37956	0	0	0	28618	27240	155435	27079	1072321	46515	110633	0	0	8119	544907	0	0
2024-08-22 16:21:47			0	37950	0	0	0	28610	27230	155367	27144	1072330	46493	110630	0	0	8119	545170	0	0
2024-08-22 16:22:47			0	37970	0	0	0	28605	27240	155511	27024	1072321	46504	110628	0	0	8120	544368	0	0
2024-08-22 16:23:47			0	37943	0	0	0	28618	27240	155575	27239	1072366	46494	110633	0	0	8118	545409	0	0
2024-08-22 16:24:47			0	37944	0	0	0	28607	27240	155359	27239	1072375	46504	110629	0	0	8119	545370	0	0
2024-08-22 16:25:47			0	37944	0	0	0	28610	27250	155511	27100	1072384	46494	110630	0	0	8119	545339	0	0
2024-08-22 16:26:47			0	37938	0	0	0	28618	27250	155479	27248	1072357	46504	110633	0	0	8118	545570	0	0
2024-08-22 16:27:47			0	37951	0	0	0	28618	27250	155523	27213	1072411	46515	110633	0	0	8119	545069	0	0
2024-08-22 16:28:47			0	37944	0	0	0	28631	27240	155499	27267	1072375	46504	110638	0	0	8118	545370	0	0
2024-08-22 16:29:47			0	37937	0	0	0	28646	27250	155487	27450	1072393	46505	110644	0	0	8118	545609	0	0
2024-08-22 16:30:47			0	37934	0	0	0	28651	27260	155463	27331	1072429	46506	110646	0	0	8117	545693	0	0
2024-08-22 16:31:47			0	37947	0	0	0	28646	27270	155483	27280	1072500	46506	110644	0	0	8118	545161	0	0
2024-08-22 16:32:47			0	37938	0	0	0	28625	27270	155499	27131	1072500	46506	110636	0	0	8118	545507	0	0
2024-08-22 16:33:47			0	37944	0	0	0	28612	27270	155467	27303	1072527	46506	110631	0	0	8119	545276	0	0
2024-08-22 16:34:47			0	37946	0	0	0	28605	27270	155431	27261	1072447	46506	110628	0	0	8119	545199	0	0
2024-08-22 16:35:47			0	37954	0	0	0	28623	27260	155311	27059	1072456	46506	110635	0	0	8119	544922	0	0
2024-08-22 16:36:47			0	37959	0	0	0	28638	27260	155403	26913	1072429	46506	110641	0	0	8119	544729	0	0
2024-08-22 16:37:47			0	37945	0	0	0	28636	27270	155335	27041	1072527	46506	110640	0	0	8118	545238	0	0
2024-08-22 16:38:47			0	37971	0	0	0	28620	27260	155451	27112	1072465	46506	110634	0	0	8120	544267	0	0
2024-08-22 16:39:47			0	37952	0	0	0	28623	27270	155463	27275	1072447	46496	110635	0	0	8119	544968	0	0
2024-08-22 16:40:47			0	37948	0	0	0	28664	27270	155439	27189	1072393	46506	110651	0	0	8118	545122	0	0
2024-08-22 16:41:47			0	37965	0	0	0	28636	27270	155411	27232	1072483	46497	110640	0	0	8119	544467	0	0
2024-08-22 16:42:47			0	37952	0	0	0	28612	27270	155415	27208	1072483	46507	110631	0	0	8119	544968	0	0
2024-08-22 16:43:47			0	37972	0	0	0	28625	27260	155391	27261	1072384	46506	110636	0	0	8120	544228	0	0
2024-08-22 16:44:47			0	37968	0	0	0	28651	27260	155427	26899	1072411	46517	110646	0	0	8119	544382	0	0
2024-08-22 16:45:47			0	37950	0	0	0	28659	27260	155467	27298	1072411	46517	110649	0	0	8118	545076	0	0
2024-08-22 16:46:47			0	37961	0	0	0	28659	27270	155447	27402	1072429	46507	110649	0	0	8119	544621	0	0
2024-08-22 16:47:47			0	37949	0	0	0	28638	27260	155447	27211	1072465	46517	110641	0	0	8118	545115	0	0
2024-08-22 16:48:47			0	37965	0	0	0	28641	27270	155463	27157	1072456	46518	110642	0	0	8119	544467	0	0
2024-08-22 16:49:47			0	37960	0	0	0	28649	27270	155423	27130	1072393	46496	110645	0	0	8119	544659	0	0
2024-08-22 16:50:47			0	37952	0	0	0	28670	27250	155455	27345	1072437	46515	110653	0	0	8118	545030	0	0
2024-08-22 16:51:47			0	37978	0	0	0	28670	27260	155395	27079	1072491	46517	110653	0	0	8120	543997	0	0
2024-08-22 16:52:47			0	37988	0	0	0	28654	27270	155279	27261	1072554	46506	110647	0	0	8120	543581	0	0
2024-08-22 16:53:47			0	37996	0	0	0	28649	27270	155323	27369	1072456	46518	110645	0	0	8121	543273	0	0
2024-08-22 16:54:47			0	37996	0	0	0	28649	27280	155211	27419	1072492	46508	110645	0	0	8121	543242	0	0
2024-08-22 16:55:47			0	38013	0	0	0	28628	27260	155187	27293	1072411	46506	110637	0	0	8122	542651	0	0
2024-08-22 16:56:47			0	38007	0	0	0	28623	27270	155191	27279	1072420	46496	110635	0	0	8122	542850	0	0
2024-08-22 16:57:47			0	38038	0	0	0	28641	27250	155204	27048	1072393	46495	110642	0	0	8123	541721	0	0
2024-08-22 16:58:47			0	38009	0	0	0	28646	27250	155155	27286	1072393	46516	110644	0	0	8122	542836	0	0
2024-08-22 16:59:47			0	38027	0	0	0	28649	27250	155283	27012	1072420	46505	110645	0	0	8123	542144	0	0
2024-08-22 17:00:47			0	38020	0	0	0	28654	27260	155216	27303	1072411	46496	110647	0	0	8122	542382	0	0
2024-08-22 17:01:47			0	38022	0	0	0	28651	27250	155167	27128	1072393	46505	110646	0	0	8122	542336	0	0
2024-08-22 17:02:47			0	38030	0	0	0	28641	27260	155124	27329	1072429	46517	110642	0	0	8123	541998	0	0
2024-08-22 17:03:47			0	38040	0	0	0	28618	27250	155124	26819	1072366	46483	110633	0	0	8124	541645	0	0
2024-08-22 17:04:47			0	38021	0	0	0	28636	27260	155131	27322	1072402	46506	110640	0	0	8123	542343	0	0
2024-08-22 17:05:47			0	38039	0	0	0	28615	27250	155172	27414	1072339	46505	110632	0	0	8124	541683	0	0
2024-08-22 17:06:47			0	38021	0	0	0	28636	27250	155179	27329	1072393	46505	110640	0	0	8123	542375	0	0
2024-08-22 17:07:47			0	38008	0	0	0	28638	27250	155103	27274	1072357	46504	110641	0	0	8122	542874	0	0
2024-08-22 17:08:47			0	38020	0	0	0	28638	27250	155143	27216	1072420	46505	110641	0	0	8122	542413	0	0
2024-08-22 17:09:47			0	38011	0	0	0	28633	27250	155231	27203	1072437	46482	110639	0	0	8122	542759	0	0
2024-08-22 17:10:47			0	38030	0	0	0	28641	27260	155140	27256	1072375	46496	110642	0	0	8123	541998	0	0
2024-08-22 17:11:47			0	38025	0	0	0	28631	27250	155199	27185	1072366	46505	110638	0	0	8123	542221	0	0
2024-08-22 17:12:47			0	38027	0	0	0	28646	27250	155203	26998	1072384	46515	110644	0	0	8123	542144	0	0
2024-08-22 17:13:47			0	38024	0	0	0	28659	27250	155203	27098	1072384	46515	110649	0	0	8122	542259	0	0
2024-08-22 17:14:47			0	37987	0	0	0	28657	27250	155263	27301	1072357	46504	110648	0	0	8120	543682	0	0
2024-08-22 17:15:47			0	38014	0	0	0	28651	27250	155143	27060	1072437	46527	110646	0	0	8122	542644	0	0
2024-08-22 17:16:47			0	37997	0	0	0	28651	27260	155155	27078	1072465	46506	110646	0	0	8121	543266	0	0
2024-08-22 17:17:47			0	38019	0	0	0	28667	27260	155259	27154	1072429	46506	110652	0	0	8122	542420	0	0
2024-08-22 17:18:47			0	38023	0	0	0	28633	27260	155167	27234	1072456	46506	110639	0	0	8123	542267	0	0
2024-08-22 17:19:47			0	38009	0	0	0	28664	27260	155139	27053	1072465	46506	110651	0	0	8121	542805	0	0
2024-08-22 17:20:47			0	38027	0	0	0	28644	27260	155251	26989	1072482	46517	110643	0	0	8123	542113	0	0
2024-08-22 17:21:47			0	38009	0	0	0	28623	27250	155155	27415	1072446	46495	110635	0	0	8122	542836	0	0
2024-08-22 17:22:47			0	38017	0	0	0	28638	27260	155119	27204	1072438	46506	110641	0	0	8122	542497	0	0
2024-08-22 17:23:47			0	38038	0	0	0	28631	27260	155120	26961	1072482	46506	110638	0	0	8124	541690	0	0
2024-08-22 17:24:47			0	38022	0	0	0	28625	27260	155131	26868	1072456	46506	110636	0	0	8123	542305	0	0
2024-08-22 17:25:47			0	38013	0	0	0	28636	27260	155199	27152	1072402	46517	110640	0	0	8122	542651	0	0
2024-08-22 17:26:47			0	37991	0	0	0	28644	27260	155207	27147	1072411	46506	110643	0	0	8121	543497	0	0
2024-08-22 17:27:47			0	38002	0	0	0	28638	27260	155183	27116	1072402	46506	110641	0	0	8121	543074	0	0
2024-08-22 17:28:47			0	38005	0	0	0	28623	27260	155167	27043	1072348	46517	110635	0	0	8122	542958	0	0
2024-08-22 17:29:47			0	38004	0	0	0	28602	27250	155147	27048	1072339	46495	110627	0	0	8122	543028	0	0
2024-08-22 17:30:47			0	38001	0	0	0	28623	27250	155215	26930	1072330	46494	110635	0	0	8122	543143	0	0
2024-08-22 17:31:47			0	37967	0	0	0	28636	27250	155199	27088	1072357	46515	110640	0	0	8119	544452	0	0
2024-08-22 17:32:47			0	38002	0	0	0	28610	27250	155211	26745	1072330	46504	110630	0	0	8122	543105	0	0
2024-08-22 17:33:47			0	37986	0	0	0	28625	27250	155239	27003	1072357	46504	110636	0	0	8121	543721	0	0
2024-08-22 17:34:47			0	37978	0	0	0	28625	27250	155267	27086	1072420	46516	110636	0	0	8120	544029	0	0
2024-08-22 17:35:47			0	37990	0	0	0	28654	27240	155195	27031	1072375	46504	110647	0	0	8120	543598	0	0
2024-08-22 17:36:47			0	37969	0	0	0	28623	27250	155339	27008	1072366	46495	110635	0	0	8120	544375	0	0
2024-08-22 17:37:47			0	37978	0	0	0	28636	27260	155215	27088	1072375	46506	110640	0	0	8120	543997	0	0
2024-08-22 17:38:47			0	37988	0	0	0	28612	27250	155259	27062	1072339	46516	110631	0	0	8121	543644	0	0
2024-08-22 17:39:47			0	37983	0	0	0	28599	27250	155295	27041	1072339	46495	110626	0	0	8121	543836	0	0
2024-08-22 17:40:47			0	37981	0	0	0	28599	27250	155327	27050	1072303	46504	110626	0	0	8121	543913	0	0
2024-08-22 17:41:47			0	37992	0	0	0	28610	27250	155351	27239	1072330	46504	110630	0	0	8121	543490	0	0
2024-08-22 17:42:47			0	37978	0	0	0	28631	27230	155431	27317	1072303	46503	110638	0	0	8120	544091	0	0
2024-08-22 17:43:47			0	37960	0	0	0	28625	27240	155439	27161	1072285	46494	110636	0	0	8119	544753	0	0
2024-08-22 17:44:47			0	37966	0	0	0	28615	27240	155459	27109	1072339	46515	110632	0	0	8120	544522	0	0
2024-08-22 17:45:47			0	37962	0	0	0	28625	27230	155475	27187	1072303	46503	110636	0	0	8119	544707	0	0
2024-08-22 17:46:47			0	37954	0	0	0	28628	27230	155419	27230	1072249	46503	110637	0	0	8119	545016	0	0
2024-08-22 17:47:47			0	37941	0	0	0	28638	27240	155543	27303	1072348	46504	110641	0	0	8118	545486	0	0
2024-08-22 17:48:47			0	37961	0	0	0	28646	27240	155439	26951	1072375	46515	110644	0	0	8119	544715	0	0
2024-08-22 17:49:47			0	37953	0	0	0	28638	27240	155483	27339	1072402	46515	110641	0	0	8119	545023	0	0
2024-08-22 17:50:47			0	37980	0	0	0	28628	27240	155355	27260	1072446	46515	110637	0	0	8120	543983	0	0
2024-08-22 17:51:47			0	37978	0	0	0	28641	27240	155427	27036	1072339	46515	110642	0	0	8120	544060	0	0
2024-08-22 17:52:47			0	37954	0	0	0	28638	27250	155479	27086	1072384	46527	110641	0	0	8119	544953	0	0
2024-08-22 17:53:47			0	37972	0	0	0	28646	27240	155495	26937	1072375	46494	110644	0	0	8120	544291	0	0
2024-08-22 17:54:47			0	37958	0	0	0	28651	27250	155423	27216	1072384	46515	110646	0	0	8119	544799	0	0
2024-08-22 17:55:47			0	37980	0	0	0	28646	27240	155347	27112	1072402	46515	110644	0	0	8120	543983	0	0
2024-08-22 17:56:47			0	37979	0	0	0	28641	27240	155355	27137	1072375	46504	110642	0	0	8120	544021	0	0
2024-08-22 17:57:47			0	37969	0	0	0	28623	27240	155355	27197	1072294	46504	110635	0	0	8120	544406	0	0
2024-08-22 17:58:47			0	37984	0	0	0	28625	27240	155283	27216	1072312	46494	110636	0	0	8121	543829	0	0
2024-08-22 17:59:47			0	37958	0	0	0	28623	27230	155303	27024	1072330	46503	110635	0	0	8119	544862	0	0
2024-08-22 18:00:47			0	37990	0	0	0	28628	27240	155479	26786	1072339	46504	110637	0	0	8121	543598	0	0
2024-08-22 18:01:47			0	37985	0	0	0	28625	27240	155379	26883	1072339	46504	110636	0	0	8121	543790	0	0
2024-08-22 18:02:47			0	37973	0	0	0	28625	27240	155367	27137	1072348	46515	110636	0	0	8120	544252	0	0
2024-08-22 18:03:47			0	37988	0	0	0	28633	27240	155279	27015	1072258	46494	110639	0	0	8121	543675	0	0
2024-08-22 18:04:47			0	37979	0	0	0	28631	27240	155351	27097	1072402	46515	110638	0	0	8120	544021	0	0
2024-08-22 18:05:47			0	37969	0	0	0	28636	27230	155359	27092	1072384	46503	110640	0	0	8119	544438	0	0
2024-08-22 18:06:47			0	37984	0	0	0	28641	27240	155411	27194	1072375	46515	110642	0	0	8120	543829	0	0
2024-08-22 18:07:47			0	37987	0	0	0	28633	27240	155295	27052	1072348	46494	110639	0	0	8121	543713	0	0
2024-08-22 18:08:47			0	37983	0	0	0	28638	27250	155227	27227	1072384	46515	110641	0	0	8120	543836	0	0
2024-08-22 18:09:47			0	37983	0	0	0	28641	27240	155251	27211	1072393	46515	110642	0	0	8120	543867	0	0
2024-08-22 18:10:47			0	37982	0	0	0	28623	27250	155239	27343	1072411	46515	110635	0	0	8121	543875	0	0
2024-08-22 18:11:47			0	37992	0	0	0	28607	27240	155291	26805	1072321	46504	110629	0	0	8121	543521	0	0
2024-08-22 18:12:47			0	37993	0	0	0	28615	27240	155299	26922	1072348	46494	110632	0	0	8121	543482	0	0
2024-08-22 18:13:47			0	37994	0	0	0	28636	27240	155303	27275	1072402	46504	110640	0	0	8121	543444	0	0
2024-08-22 18:14:47			0	37981	0	0	0	28646	27250	155431	27170	1072339	46505	110644	0	0	8120	543913	0	0
2024-08-22 18:15:47			0	37950	0	0	0	28651	27240	155479	26925	1072402	46515	110646	0	0	8118	545139	0	0
2024-08-22 18:16:47			0	37962	0	0	0	28667	27250	155443	27518	1072357	46515	110652	0	0	8119	544645	0	0
2024-08-22 18:17:47			0	37977	0	0	0	28646	27250	155419	27220	1072420	46516	110644	0	0	8120	544067	0	0
2024-08-22 18:18:47			0	37971	0	0	0	28618	27250	155451	27128	1072446	46495	110633	0	0	8120	544298	0	0
2024-08-22 18:19:47			0	37982	0	0	0	28605	27250	155299	27334	1072330	46504	110628	0	0	8121	543875	0	0
2024-08-22 18:20:47			0	37972	0	0	0	28631	27240	155279	27159	1072321	46494	110638	0	0	8120	544291	0	0
2024-08-22 18:21:47			0	37994	0	0	0	28636	27250	155431	27274	1072393	46516	110640	0	0	8121	543413	0	0
2024-08-22 18:22:47			0	37989	0	0	0	28638	27250	155339	27156	1072437	46504	110641	0	0	8121	543605	0	0
2024-08-22 18:23:47			0	37989	0	0	0	28631	27250	155359	26918	1072366	46516	110638	0	0	8121	543605	0	0
2024-08-22 18:24:47			0	37973	0	0	0	28636	27250	155315	27033	1072393	46516	110640	0	0	8120	544221	0	0
2024-08-22 18:25:47			0	37994	0	0	0	28633	27240	155459	27235	1072294	46504	110639	0	0	8121	543444	0	0
2024-08-22 18:26:47			0	37978	0	0	0	28628	27240	155391	26830	1072366	46504	110637	0	0	8120	544060	0	0
2024-08-22 18:27:47			0	37993	0	0	0	28618	27250	155367	26844	1072393	46505	110633	0	0	8121	543451	0	0
2024-08-22 18:28:47			0	37999	0	0	0	28633	27240	155351	26928	1072366	46515	110639	0	0	8121	543251	0	0
2024-08-22 18:29:47			0	37988	0	0	0	28641	27240	155339	27098	1072348	46515	110642	0	0	8121	543675	0	0
2024-08-22 18:30:47			0	37979	0	0	0	28646	27240	155391	27019	1072312	46515	110644	0	0	8120	544021	0	0
2024-08-22 18:31:47			0	37969	0	0	0	28644	27240	155379	27246	1072339	46504	110643	0	0	8119	544406	0	0
2024-08-22 18:32:47			0	37960	0	0	0	28641	27240	155367	26953	1072419	46515	110642	0	0	8119	544753	0	0
2024-08-22 18:33:47			0	37979	0	0	0	28654	27240	155455	27189	1072366	46504	110647	0	0	8120	544021	0	0
2024-08-22 18:34:47			0	37994	0	0	0	28641	27240	155407	27019	1072366	46515	110642	0	0	8121	543444	0	0
2024-08-22 18:35:47			0	37974	0	0	0	28636	27240	155335	27066	1072366	46527	110640	0	0	8120	544214	0	0
2024-08-22 18:36:47			0	37969	0	0	0	28638	27240	155375	26963	1072375	46515	110641	0	0	8119	544406	0	0
2024-08-22 18:37:47			0	37975	0	0	0	28636	27240	155307	27270	1072375	46504	110640	0	0	8120	544175	0	0
2024-08-22 18:38:47			0	37987	0	0	0	28641	27250	155291	27189	1072384	46527	110642	0	0	8121	543682	0	0
2024-08-22 18:39:47			0	37995	0	0	0	28633	27240	155323	27166	1072321	46504	110639	0	0	8121	543405	0	0
2024-08-22 18:40:47			0	37984	0	0	0	28625	27240	155383	27007	1072375	46527	110636	0	0	8121	543829	0	0
2024-08-22 18:41:47			0	37976	0	0	0	28623	27230	155351	27053	1072330	46493	110635	0	0	8120	544168	0	0
2024-08-22 18:42:47			0	37985	0	0	0	28631	27240	155335	26842	1072348	46504	110638	0	0	8121	543790	0	0
2024-08-22 18:43:47			0	37984	0	0	0	28628	27230	155447	27204	1072357	46503	110637	0	0	8120	543860	0	0
2024-08-22 18:44:47			0	37965	0	0	0	28631	27230	155475	27157	1072357	46526	110638	0	0	8119	544592	0	0
2024-08-22 18:45:47			0	37967	0	0	0	28625	27240	155451	27209	1072366	46504	110636	0	0	8120	544484	0	0
2024-08-22 18:46:47			0	37953	0	0	0	28620	27240	155435	27298	1072321	46527	110634	0	0	8119	545023	0	0
2024-08-22 18:47:47			0	37974	0	0	0	28633	27230	155487	27187	1072330	46503	110639	0	0	8120	544245	0	0
2024-08-22 18:48:47			0	37963	0	0	0	28633	27230	155443	27409	1072330	46503	110639	0	0	8119	544669	0	0
2024-08-22 18:49:47			0	37973	0	0	0	28594	27240	155367	26844	1072285	46494	110624	0	0	8120	544252	0	0
2024-08-22 18:50:47			0	37967	0	0	0	28589	27230	155375	27076	1072213	46492	110622	0	0	8120	544515	0	0
2024-08-22 18:51:47			0	37982	0	0	0	28602	27220	155407	27027	1072258	46502	110627	0	0	8121	543968	0	0
2024-08-22 18:52:47			0	37970	0	0	0	28615	27220	155307	27216	1072231	46502	110632	0	0	8120	544430	0	0
2024-08-22 18:53:47			0	37970	0	0	0	28599	27220	155267	26994	1072258	46513	110626	0	0	8120	544430	0	0
2024-08-22 18:54:47			0	37978	0	0	0	28605	27220	155455	27168	1072204	46513	110628	0	0	8120	544122	0	0
2024-08-22 18:55:47			0	37959	0	0	0	28599	27210	155419	27074	1072222	46502	110626	0	0	8119	544886	0	0
2024-08-22 18:56:47			0	37940	0	0	0	28607	27210	155515	27223	1072195	46502	110629	0	0	8118	545618	0	0
2024-08-22 18:57:47			0	37929	0	0	0	28607	27210	155567	27119	1072222	46513	110629	0	0	8118	546043	0	0
2024-08-22 18:58:47			0	37927	0	0	0	28610	27210	155547	27012	1072213	46512	110630	0	0	8117	546120	0	0
2024-08-22 18:59:47			0	37922	0	0	0	28607	27210	155455	27142	1072195	46502	110629	0	0	8117	546313	0	0
2024-08-22 19:00:47			0	37919	0	0	0	28607	27210	155567	26835	1072195	46513	110629	0	0	8117	546429	0	0
2024-08-22 19:01:47			0	37912	0	0	0	28610	27210	155615	26923	1072213	46501	110630	0	0	8117	546699	0	0
2024-08-22 19:02:47			0	37931	0	0	0	28620	27210	155579	27123	1072213	46501	110634	0	0	8117	545966	0	0
2024-08-22 19:03:47			0	37902	0	0	0	28597	27200	155691	26968	1072204	46511	110625	0	0	8116	547117	0	0
2024-08-22 19:04:47			0	37914	0	0	0	28599	27210	155475	26769	1072213	46501	110626	0	0	8117	546622	0	0
2024-08-22 19:05:47			0	37901	0	0	0	28599	27200	155635	27473	1072150	46500	110626	0	0	8116	547156	0	0
2024-08-22 19:06:47			0	37918	0	0	0	28592	27200	155571	27291	1072204	46500	110623	0	0	8117	546499	0	0
2024-08-22 19:07:47			0	37930	0	0	0	28597	27210	155635	26826	1072186	46512	110625	0	0	8118	546004	0	0
2024-08-22 19:08:47			0	37901	0	0	0	28605	27210	155667	27100	1072159	46512	110628	0	0	8116	547124	0	0
2024-08-22 19:09:47			0	37915	0	0	0	28610	27210	155843	27104	1072186	46524	110630	0	0	8117	546583	0	0
2024-08-22 19:10:47			0	37909	0	0	0	28607	27210	155779	27187	1072240	46512	110629	0	0	8116	546815	0	0
2024-08-22 19:11:47			0	37895	0	0	0	28602	27200	155823	26991	1072204	46500	110627	0	0	8116	547388	0	0
2024-08-22 19:12:47			0	37902	0	0	0	28602	27190	155667	27045	1072159	46500	110627	0	0	8116	547148	0	0
2024-08-22 19:13:47			0	37885	0	0	0	28594	27200	155819	27201	1072177	46523	110624	0	0	8115	547774	0	0
2024-08-22 19:14:47			0	37902	0	0	0	28599	27200	155715	27000	1072087	46500	110626	0	0	8116	547117	0	0
2024-08-22 19:15:47			0	37891	0	0	0	28605	27200	155739	26996	1072195	46510	110628	0	0	8115	547542	0	0
2024-08-22 19:16:47			0	37865	0	0	0	28597	27190	155807	26934	1072078	46500	110625	0	0	8114	548580	0	0
2024-08-22 19:17:47			0	37846	0	0	0	28594	27200	155951	26786	1072141	46510	110624	0	0	8113	549284	0	0
2024-08-22 19:18:47			0	37842	0	0	0	28589	27200	155931	26908	1072168	46500	110622	0	0	8113	549439	0	0
2024-08-22 19:19:47			0	37824	0	0	0	28581	27200	155963	27095	1072150	46500	110619	0	0	8112	550137	0	0
2024-08-22 19:20:47			0	37821	0	0	0	28584	27200	156123	27208	1072168	46500	110620	0	0	8112	550253	0	0
2024-08-22 19:21:47			0	37813	0	0	0	28581	27190	156039	27100	1072069	46489	110619	0	0	8111	550595	0	0
2024-08-22 19:22:47			0	37821	0	0	0	28584	27190	156091	26927	1072123	46500	110620	0	0	8112	550285	0	0
2024-08-22 19:23:47			0	37821	0	0	0	28579	27200	156179	27093	1072114	46500	110618	0	0	8112	550253	0	0
2024-08-22 19:24:47			0	37794	0	0	0	28571	27190	156071	26974	1072123	46510	110615	0	0	8110	551333	0	0
2024-08-22 19:25:47			0	37813	0	0	0	28576	27180	156187	27031	1072033	46499	110617	0	0	8111	550627	0	0
2024-08-22 19:26:47			0	37810	0	0	0	28568	27180	156027	27107	1072051	46498	110614	0	0	8111	550743	0	0
2024-08-22 19:27:47			0	37806	0	0	0	28540	27180	156183	26748	1072024	46498	110603	0	0	8111	550898	0	0
2024-08-22 19:28:47			0	37785	0	0	0	28553	27180	156259	27078	1072078	46498	110608	0	0	8110	551714	0	0
2024-08-22 19:29:47			0	37775	0	0	0	28550	27170	156291	26951	1071979	46498	110607	0	0	8109	552134	0	0
2024-08-22 19:30:47			0	37762	0	0	0	28566	27170	156279	27260	1071961	46508	110613	0	0	8108	552640	0	0
2024-08-22 19:31:47			0	37766	0	0	0	28561	27170	156299	26793	1072015	46487	110611	0	0	8109	552484	0	0
2024-08-22 19:32:47			0	37737	0	0	0	28561	27170	156347	27228	1072015	46498	110611	0	0	8107	553613	0	0
2024-08-22 19:33:47			0	37751	0	0	0	28571	27170	156327	27055	1071979	46508	110615	0	0	8108	553068	0	0
2024-08-22 19:34:47			0	37760	0	0	0	28548	27170	156291	27074	1071979	46498	110606	0	0	8109	552718	0	0
2024-08-22 19:35:47			0	37728	0	0	0	28555	27160	156323	27334	1071934	46518	110609	0	0	8107	553995	0	0
2024-08-22 19:36:47			0	37744	0	0	0	28548	27160	156331	26915	1071917	46507	110606	0	0	8108	553372	0	0
2024-08-22 19:37:47			0	37736	0	0	0	28540	27160	156439	27017	1071988	46485	110603	0	0	8107	553683	0	0
2024-08-22 19:38:47			0	37717	0	0	0	28537	27160	156343	27033	1071961	46506	110602	0	0	8106	554424	0	0
2024-08-22 19:39:47			0	37719	0	0	0	28540	27160	156491	27232	1071934	46506	110603	0	0	8106	554346	0	0
2024-08-22 19:40:47			0	37695	0	0	0	28540	27160	156499	26915	1071907	46506	110603	0	0	8105	555282	0	0
2024-08-22 19:41:47			0	37699	0	0	0	28545	27150	156727	26698	1071925	46496	110605	0	0	8105	555158	0	0
2024-08-22 19:42:47			0	37696	0	0	0	28529	27150	156559	26771	1071871	46506	110599	0	0	8105	555275	0	0
2024-08-22 19:43:47			0	37660	0	0	0	28516	27150	156651	27064	1071862	46485	110594	0	0	8103	556680	0	0
2024-08-22 19:44:47			0	37682	0	0	0	28514	27140	156663	26904	1071790	46494	110593	0	0	8105	555853	0	0
2024-08-22 19:45:47			0	37661	0	0	0	28514	27140	156731	26816	1071853	46517	110593	0	0	8103	556673	0	0
2024-08-22 19:46:47			0	37631	0	0	0	28514	27140	156799	27102	1071790	46494	110593	0	0	8102	557847	0	0
2024-08-22 19:47:47			0	37631	0	0	0	28519	27130	156831	27029	1071781	46494	110595	0	0	8101	557879	0	0
2024-08-22 19:48:47			0	37594	0	0	0	28529	27130	156815	27097	1071889	46494	110599	0	0	8099	559328	0	0
2024-08-22 19:49:47			0	37603	0	0	0	28527	27130	156975	27055	1071808	46516	110598	0	0	8100	558975	0	0
2024-08-22 19:50:47			0	37593	0	0	0	28532	27130	157023	26779	1071826	46515	110600	0	0	8099	559367	0	0
2024-08-22 19:51:47			0	37614	0	0	0	28519	27130	157103	26913	1071808	46516	110595	0	0	8100	558544	0	0
2024-08-22 19:52:47			0	37583	0	0	0	28522	27130	156999	27178	1071808	46494	110596	0	0	8099	559759	0	0
2024-08-22 19:53:47			0	37581	0	0	0	28514	27130	157015	26850	1071799	46493	110593	0	0	8099	559838	0	0
2024-08-22 19:54:47			0	37572	0	0	0	28516	27120	157003	27095	1071754	46502	110594	0	0	8098	560223	0	0
2024-08-22 19:55:47			0	37585	0	0	0	28519	27130	156931	26965	1071772	46515	110595	0	0	8099	559681	0	0
2024-08-22 19:56:47			0	37585	0	0	0	28519	27120	157099	26896	1071808	46502	110595	0	0	8099	559713	0	0
2024-08-22 19:57:47			0	37573	0	0	0	28524	27120	157063	27008	1071781	46514	110597	0	0	8098	560184	0	0
2024-08-22 19:58:47			0	37565	0	0	0	28527	27120	157063	26982	1071808	46492	110598	0	0	8097	560498	0	0
2024-08-22 19:59:47			0	37554	0	0	0	28511	27120	157271	27059	1071790	46503	110592	0	0	8097	560930	0	0
2024-08-22 20:00:47			0	37557	0	0	0	28493	27110	157127	26819	1071772	46501	110585	0	0	8097	560844	0	0
2024-08-22 20:01:47			0	37555	0	0	0	28506	27120	157107	27114	1071727	46502	110590	0	0	8097	560890	0	0
2024-08-22 20:02:47			0	37576	0	0	0	28506	27110	157199	27124	1071665	46501	110590	0	0	8098	560098	0	0
2024-08-22 20:03:47			0	37544	0	0	0	28498	27120	157223	27296	1071647	46502	110587	0	0	8097	561323	0	0
2024-08-22 20:04:47			0	37521	0	0	0	28498	27110	157271	27159	1071629	46513	110587	0	0	8095	562259	0	0
2024-08-22 20:05:47			0	37521	0	0	0	28498	27110	157239	27024	1071638	46513	110587	0	0	8095	562259	0	0
2024-08-22 20:06:47			0	37528	0	0	0	28503	27110	157303	27124	1071745	46501	110589	0	0	8096	561984	0	0
2024-08-22 20:07:47			0	37490	0	0	0	28509	27110	157227	27131	1071665	46501	110591	0	0	8093	563479	0	0
2024-08-22 20:08:47			0	37488	0	0	0	28509	27110	157419	26949	1071665	46491	110591	0	0	8093	563558	0	0
2024-08-22 20:09:47			0	37478	0	0	0	28516	27120	157391	27211	1071701	46502	110594	0	0	8093	563920	0	0
2024-08-22 20:10:47			0	37482	0	0	0	28514	27100	157547	27031	1071673	46513	110593	0	0	8093	563827	0	0
2024-08-22 20:11:47			0	37486	0	0	0	28488	27110	157531	27447	1071665	46491	110583	0	0	8093	563637	0	0
2024-08-22 20:12:47			0	37479	0	0	0	28475	27110	157507	27163	1071656	46501	110578	0	0	8093	563913	0	0
2024-08-22 20:13:47			0	37460	0	0	0	28397	27100	157503	26906	1071449	46490	110548	0	0	8093	564694	0	0
2024-08-22 20:14:47			0	37451	0	0	0	28389	27090	157623	27024	1071378	46478	110545	0	0	8093	565082	0	0
2024-08-22 20:15:47			0	37427	0	0	0	28355	27060	157743	26944	1071225	46463	110532	0	0	8092	566127	0	0
2024-08-22 20:16:47			0	37410	0	0	0	28384	27060	157723	26589	1071225	46475	110543	0	0	8091	566799	0	0
2024-08-22 20:17:47			0	37411	0	0	0	28392	27040	157807	26956	1071189	46484	110546	0	0	8090	566825	0	0
2024-08-22 20:18:47			0	37389	0	0	0	28399	27040	157975	26901	1071153	46484	110549	0	0	8089	567695	0	0
2024-08-22 20:19:47			0	37386	0	0	0	28410	27030	157955	27038	1071170	46483	110553	0	0	8089	567846	0	0
2024-08-22 20:20:47			0	37346	0	0	0	28410	27030	158023	27008	1071170	46483	110553	0	0	8086	569432	0	0
2024-08-22 20:21:47			0	37354	0	0	0	28412	27010	158019	26715	1071161	46503	110554	0	0	8087	569180	0	0
2024-08-22 20:22:47			0	37341	0	0	0	28412	27020	158019	27069	1071152	46493	110554	0	0	8086	569663	0	0
2024-08-22 20:23:47			0	37359	0	0	0	28415	27020	158047	27274	1071179	46482	110555	0	0	8087	568949	0	0
2024-08-22 20:24:47			0	37373	0	0	0	28425	27030	157943	27185	1071215	46493	110559	0	0	8088	568361	0	0
2024-08-22 20:25:47			0	37368	0	0	0	28441	27020	158091	27166	1071233	46504	110565	0	0	8087	568592	0	0
2024-08-22 20:26:47			0	37353	0	0	0	28449	27020	158167	26977	1071341	46504	110568	0	0	8086	569187	0	0
2024-08-22 20:27:47			0	37374	0	0	0	28446	27040	158051	26873	1071314	46506	110567	0	0	8087	568289	0	0
2024-08-22 20:28:47			0	37360	0	0	0	28457	27040	158059	27050	1071368	46506	110571	0	0	8086	568844	0	0
2024-08-22 20:29:47			0	37350	0	0	0	28464	27040	158063	26920	1071314	46506	110574	0	0	8086	569241	0	0
2024-08-22 20:30:47			0	37382	0	0	0	28457	27030	158019	26823	1071332	46505	110571	0	0	8088	568005	0	0
2024-08-22 20:31:47			0	37367	0	0	0	28454	27040	158055	26835	1071341	46506	110570	0	0	8087	568567	0	0
2024-08-22 20:32:47			0	37391	0	0	0	28454	27040	157919	27187	1071404	46495	110570	0	0	8088	567616	0	0
2024-08-22 20:33:47			0	37397	0	0	0	28457	27040	157923	27053	1071296	46517	110571	0	0	8088	567378	0	0
2024-08-22 20:34:47			0	37403	0	0	0	28470	27040	157899	26941	1071323	46495	110576	0	0	8089	567141	0	0
2024-08-22 20:35:47			0	37418	0	0	0	28470	27050	157815	26674	1071305	46496	110576	0	0	8089	566515	0	0
2024-08-22 20:36:47			0	37420	0	0	0	28477	27050	157843	27092	1071386	46518	110579	0	0	8089	566436	0	0
2024-08-22 20:37:47			0	37419	0	0	0	28488	27050	157767	26864	1071422	46507	110583	0	0	8089	566476	0	0
2024-08-22 20:38:47			0	37434	0	0	0	28485	27060	157639	27031	1071440	46508	110582	0	0	8090	565851	0	0
2024-08-22 20:39:47			0	37428	0	0	0	28470	27060	157695	27086	1071512	46508	110576	0	0	8090	566088	0	0
2024-08-22 20:40:47			0	37455	0	0	0	28454	27050	157583	26981	1071449	46507	110570	0	0	8092	565054	0	0
2024-08-22 20:41:47			0	37454	0	0	0	28457	27050	157607	26968	1071422	46496	110571	0	0	8092	565093	0	0
2024-08-22 20:42:47			0	37476	0	0	0	28449	27050	157543	27126	1071395	46507	110568	0	0	8093	564225	0	0
2024-08-22 20:43:47			0	37480	0	0	0	28444	27050	157535	27171	1071395	46485	110566	0	0	8094	564068	0	0
2024-08-22 20:44:47			0	37450	0	0	0	28446	27050	157575	27029	1071341	46507	110567	0	0	8092	565251	0	0
2024-08-22 20:45:47			0	37460	0	0	0	28446	27050	157547	27192	1071368	46485	110567	0	0	8092	564856	0	0
2024-08-22 20:46:47			0	37456	0	0	0	28449	27050	157587	27007	1071341	46496	110568	0	0	8092	565014	0	0
2024-08-22 20:47:47			0	37447	0	0	0	28467	27050	157611	26902	1071359	46496	110575	0	0	8091	565370	0	0
2024-08-22 20:48:47			0	37445	0	0	0	28462	27050	157623	26861	1071386	46496	110573	0	0	8091	565448	0	0
2024-08-22 20:49:47			0	37451	0	0	0	28457	27050	157727	27281	1071413	46507	110571	0	0	8092	565212	0	0
2024-08-22 20:50:47			0	37457	0	0	0	28467	27040	157599	27083	1071350	46517	110575	0	0	8092	565007	0	0
2024-08-22 20:51:47			0	37465	0	0	0	28475	27050	157667	26967	1071368	46507	110578	0	0	8092	564659	0	0
2024-08-22 20:52:47			0	37467	0	0	0	28475	27060	157719	27109	1071404	46508	110578	0	0	8092	564548	0	0
2024-08-22 20:53:47			0	37444	0	0	0	28475	27050	157711	27135	1071413	46518	110578	0	0	8091	565488	0	0
2024-08-22 20:54:47			0	37436	0	0	0	28483	27060	157663	27391	1071458	46508	110581	0	0	8090	565771	0	0
2024-08-22 20:55:47			0	37419	0	0	0	28483	27060	157803	27267	1071413	46519	110581	0	0	8089	566443	0	0
2024-08-22 20:56:47			0	37408	0	0	0	28490	27050	157839	26755	1071449	46507	110584	0	0	8089	566911	0	0
2024-08-22 20:57:47			0	37393	0	0	0	28475	27070	157859	27196	1071476	46520	110578	0	0	8088	567439	0	0
2024-08-22 20:58:47			0	37399	0	0	0	28483	27070	157955	27175	1071458	46520	110581	0	0	8088	567202	0	0
2024-08-22 20:59:47			0	37375	0	0	0	28477	27060	157871	27100	1071413	46508	110579	0	0	8087	568184	0	0
2024-08-22 21:00:47			0	37355	0	0	0	28467	27070	158051	26871	1071449	46498	110575	0	0	8086	568944	0	0
2024-08-22 21:01:47			0	37372	0	0	0	28462	27070	157983	26963	1071377	46487	110573	0	0	8087	568271	0	0
2024-08-22 21:02:47			0	37351	0	0	0	28462	27060	158027	26967	1071413	46497	110573	0	0	8086	569136	0	0
2024-08-22 21:03:47			0	37358	0	0	0	28467	27060	158123	26682	1071404	46497	110575	0	0	8086	568858	0	0
2024-08-22 21:04:47			0	37350	0	0	0	28467	27050	158179	27038	1071422	46496	110575	0	0	8086	569208	0	0
2024-08-22 21:05:47			0	37323	0	0	0	28462	27050	158127	26753	1071395	46496	110573	0	0	8084	570279	0	0
2024-08-22 21:06:47			0	37342	0	0	0	28467	27060	158171	26854	1071377	46497	110575	0	0	8085	569493	0	0
2024-08-22 21:07:47			0	37345	0	0	0	28470	27060	158135	26779	1071413	46497	110576	0	0	8085	569374	0	0
2024-08-22 21:08:47			0	37359	0	0	0	28459	27060	158195	26987	1071404	46519	110572	0	0	8086	568818	0	0
2024-08-22 21:09:47			0	37326	0	0	0	28462	27060	158227	26955	1071386	46508	110573	0	0	8084	570128	0	0
2024-08-22 21:10:47			0	37346	0	0	0	28464	27050	158187	26804	1071413	46507	110574	0	0	8085	569367	0	0
2024-08-22 21:11:47			0	37346	0	0	0	28459	27060	158199	27024	1071386	46486	110572	0	0	8086	569334	0	0
2024-08-22 21:12:47			0	37352	0	0	0	28464	27060	158111	27211	1071386	46497	110574	0	0	8086	569096	0	0
2024-08-22 21:13:47			0	37355	0	0	0	28464	27060	158143	26906	1071413	46497	110574	0	0	8086	568977	0	0
2024-08-22 21:14:47			0	37350	0	0	0	28451	27060	158111	26908	1071431	46497	110569	0	0	8086	569175	0	0
2024-08-22 21:15:47			0	37347	0	0	0	28454	27060	158123	26928	1071413	46486	110570	0	0	8086	569294	0	0
2024-08-22 21:16:47			0	37334	0	0	0	28459	27050	158151	27034	1071449	46496	110572	0	0	8085	569843	0	0
2024-08-22 21:17:47			0	37346	0	0	0	28459	27060	158175	27102	1071413	46486	110572	0	0	8086	569334	0	0
2024-08-22 21:18:47			0	37342	0	0	0	28449	27060	158035	27019	1071404	46508	110568	0	0	8085	569493	0	0
2024-08-22 21:19:47			0	37336	0	0	0	28457	27050	158163	26996	1071395	46496	110571	0	0	8085	569763	0	0
2024-08-22 21:20:47			0	37341	0	0	0	28459	27050	158119	26975	1071332	46496	110572	0	0	8085	569565	0	0
2024-08-22 21:21:47			0	37348	0	0	0	28446	27060	158143	26871	1071413	46508	110567	0	0	8086	569255	0	0
2024-08-22 21:22:47			0	37342	0	0	0	28441	27050	158103	27071	1071368	46496	110565	0	0	8086	569525	0	0
2024-08-22 21:23:47			0	37342	0	0	0	28444	27050	158067	27170	1071359	46496	110566	0	0	8085	569525	0	0
2024-08-22 21:24:47			0	37344	0	0	0	28446	27060	158171	26873	1071440	46497	110567	0	0	8086	569413	0	0
2024-08-22 21:25:47			0	37352	0	0	0	28441	27040	158075	26981	1071323	46495	110565	0	0	8086	569161	0	0
2024-08-22 21:26:47			0	37333	0	0	0	28438	27060	158003	26989	1071350	46508	110564	0	0	8085	569850	0	0
2024-08-22 21:27:47			0	37357	0	0	0	28433	27050	158003	27059	1071305	46496	110562	0	0	8087	568930	0	0
2024-08-22 21:28:47			0	37365	0	0	0	28425	27040	157979	27159	1071323	46495	110559	0	0	8087	568646	0	0
2024-08-22 21:29:47			0	37341	0	0	0	28431	27050	157983	27027	1071332	46496	110561	0	0	8086	569565	0	0
2024-08-22 21:30:47			0	37359	0	0	0	28433	27040	158063	27287	1071341	46484	110562	0	0	8087	568884	0	0
2024-08-22 21:31:47			0	37365	0	0	0	28433	27030	158003	26873	1071197	46516	110562	0	0	8087	568678	0	0
2024-08-22 21:32:47			0	37348	0	0	0	28418	27050	157907	27086	1071252	46496	110556	0	0	8086	569287	0	0
2024-08-22 21:33:47			0	37359	0	0	0	28423	27040	157987	26996	1071260	46506	110558	0	0	8087	568884	0	0
2024-08-22 21:34:47			0	37360	0	0	0	28431	27030	158051	26793	1071224	46483	110561	0	0	8087	568877	0	0
2024-08-22 21:35:47			0	37344	0	0	0	28425	27050	158127	27078	1071359	46507	110559	0	0	8086	569446	0	0
2024-08-22 21:36:47			0	37336	0	0	0	28425	27040	158095	26913	1071260	46495	110559	0	0	8085	569796	0	0
2024-08-22 21:37:47			0	37347	0	0	0	28428	27030	158107	27105	1071305	46483	110560	0	0	8086	569392	0	0
2024-08-22 21:38:47			0	37332	0	0	0	28425	27040	158183	26979	1071287	46484	110559	0	0	8085	569955	0	0
2024-08-22 21:39:47			0	37316	0	0	0	28423	27030	158207	26885	1071269	46493	110558	0	0	8084	570623	0	0
2024-08-22 21:40:47			0	37326	0	0	0	28423	27030	158107	26975	1071251	46516	110558	0	0	8085	570226	0	0
2024-08-22 21:41:47			0	37323	0	0	0	28412	27030	158175	27001	1071251	46483	110554	0	0	8085	570345	0	0
2024-08-22 21:42:47			0	37316	0	0	0	28431	27040	158171	26937	1071260	46495	110561	0	0	8084	570590	0	0
2024-08-22 21:43:47			0	37328	0	0	0	28420	27030	158167	26726	1071251	46494	110557	0	0	8085	570146	0	0
2024-08-22 21:44:47			0	37332	0	0	0	28415	27030	158083	27072	1071269	46504	110555	0	0	8085	569987	0	0
2024-08-22 21:45:47			0	37317	0	0	0	28402	27020	158202	27150	1071233	46482	110550	0	0	8085	570616	0	0
2024-08-22 21:46:47			0	37325	0	0	0	28405	27030	158155	27156	1071242	46493	110551	0	0	8085	570265	0	0
2024-08-22 21:47:47			0	37329	0	0	0	28407	27030	158155	27093	1071215	46482	110552	0	0	8085	570107	0	0
2024-08-22 21:48:47			0	37306	0	0	0	28405	27020	158222	27187	1071197	46504	110551	0	0	8084	571053	0	0
2024-08-22 21:49:47			0	37347	0	0	0	28399	27020	158035	26734	1071197	46515	110549	0	0	8086	569425	0	0
2024-08-22 21:50:47			0	37322	0	0	0	28399	27010	158071	27298	1071125	46469	110549	0	0	8085	570450	0	0
2024-08-22 21:51:47			0	37337	0	0	0	28394	27010	158039	26845	1071161	46503	110547	0	0	8086	569854	0	0
2024-08-22 21:52:47			0	37337	0	0	0	28399	27010	158103	27192	1071107	46492	110549	0	0	8086	569854	0	0
2024-08-22 21:53:47			0	37340	0	0	0	28386	27000	158031	26899	1071143	46502	110544	0	0	8086	569768	0	0
2024-08-22 21:54:47			0	37343	0	0	0	28402	27010	158075	27182	1071098	46491	110550	0	0	8086	569616	0	0
2024-08-22 21:55:47			0	37338	0	0	0	28384	27010	158119	26661	1071152	46502	110543	0	0	8086	569815	0	0
2024-08-22 21:56:47			0	37346	0	0	0	28384	27000	158019	27111	1071143	46502	110543	0	0	8087	569530	0	0
2024-08-22 21:57:47			0	37339	0	0	0	28394	27010	158203	27005	1071152	46491	110547	0	0	8086	569775	0	0
2024-08-22 21:58:47			0	37327	0	0	0	28386	27000	158235	27166	1071143	46491	110544	0	0	8085	570284	0	0
2024-08-22 21:59:47			0	37342	0	0	0	28384	27000	158243	27140	1071116	46480	110543	0	0	8086	569689	0	0
2024-08-22 22:00:47			0	37338	0	0	0	28384	27000	158227	27341	1071143	46491	110543	0	0	8086	569847	0	0
2024-08-22 22:01:47			0	37347	0	0	0	28389	27000	158275	26932	1071161	46490	110545	0	0	8086	569490	0	0
2024-08-22 22:02:47			0	37344	0	0	0	28384	27000	158139	27003	1071116	46513	110543	0	0	8086	569609	0	0
2024-08-22 22:03:47			0	37359	0	0	0	28389	27000	158183	27039	1071134	46479	110545	0	0	8087	569014	0	0
2024-08-22 22:04:47			0	37345	0	0	0	28386	27000	158171	27208	1071080	46490	110544	0	0	8086	569570	0	0
2024-08-22 22:05:47			0	37339	0	0	0	28386	27000	158147	27156	1071134	46501	110544	0	0	8086	569808	0	0
2024-08-22 22:06:47			0	37362	0	0	0	28384	27000	158071	26887	1071026	46490	110543	0	0	8087	568895	0	0
2024-08-22 22:07:47			0	37361	0	0	0	28384	26990	158107	27078	1071089	46489	110543	0	0	8087	568968	0	0
2024-08-22 22:08:47			0	37365	0	0	0	28394	26990	158091	27060	1071089	46489	110547	0	0	8087	568809	0	0
2024-08-22 22:09:47			0	37368	0	0	0	28381	27000	158119	27116	1071107	46490	110542	0	0	8088	568657	0	0
2024-08-22 22:10:47			0	37382	0	0	0	28381	26990	158107	27102	1071017	46501	110542	0	0	8089	568135	0	0
2024-08-22 22:11:47			0	37360	0	0	0	28379	26990	157923	26998	1071116	46500	110541	0	0	8087	569007	0	0
2024-08-22 22:12:47			0	37371	0	0	0	28371	26990	157879	26706	1071062	46500	110538	0	0	8088	568571	0	0
2024-08-22 22:13:47			0	37374	0	0	0	28379	26980	157927	26748	1071017	46500	110541	0	0	8088	568485	0	0
2024-08-22 22:14:47			0	37375	0	0	0	28368	26990	157935	26956	1071017	46490	110537	0	0	8088	568413	0	0
2024-08-22 22:15:47			0	37366	0	0	0	28384	26980	157891	26916	1071071	46500	110543	0	0	8088	568802	0	0
2024-08-22 22:16:47			0	37359	0	0	0	28379	26990	157979	27010	1071071	46501	110541	0	0	8087	569047	0	0
2024-08-22 22:17:47			0	37376	0	0	0	28376	26990	158075	26726	1071089	46489	110540	0	0	8088	568373	0	0
2024-08-22 22:18:47			0	37362	0	0	0	28389	26980	157971	26828	1070999	46489	110545	0	0	8087	568961	0	0
2024-08-22 22:19:47			0	37360	0	0	0	28366	26980	157999	27026	1070990	46488	110536	0	0	8088	569040	0	0
2024-08-22 22:20:47			0	37367	0	0	0	28371	26980	158015	26998	1071026	46511	110538	0	0	8088	568762	0	0
2024-08-22 22:21:47			0	37370	0	0	0	28381	26980	158003	26970	1071044	46510	110542	0	0	8088	568643	0	0
2024-08-22 22:22:47			0	37372	0	0	0	28366	26980	157979	26946	1070999	46500	110536	0	0	8088	568564	0	0
2024-08-22 22:23:47			0	37355	0	0	0	28363	26980	158031	26873	1070963	46510	110535	0	0	8087	569238	0	0
2024-08-22 22:24:47			0	37353	0	0	0	28358	26980	158007	27007	1070999	46489	110533	0	0	8087	569317	0	0
2024-08-22 22:25:47			0	37368	0	0	0	28374	26980	157943	26896	1070945	46500	110539	0	0	8088	568723	0	0
2024-08-22 22:26:47			0	37354	0	0	0	28368	26970	157991	27088	1071008	46488	110537	0	0	8087	569310	0	0
2024-08-22 22:27:47			0	37379	0	0	0	28358	26970	157971	26975	1070981	46500	110533	0	0	8089	568319	0	0
2024-08-22 22:28:47			0	37372	0	0	0	28366	26970	158063	26805	1070945	46476	110536	0	0	8088	568597	0	0
2024-08-22 22:29:47			0	37384	0	0	0	28355	26970	157923	26935	1070981	46488	110532	0	0	8089	568121	0	0
2024-08-22 22:30:47			0	37414	0	0	0	28366	26970	157915	26833	1070999	46487	110536	0	0	8091	566933	0	0
2024-08-22 22:31:47			0	37405	0	0	0	28366	26970	157859	26849	1070954	46500	110536	0	0	8090	567290	0	0
2024-08-22 22:32:47			0	37403	0	0	0	28358	26970	157851	26894	1071026	46476	110533	0	0	8090	567369	0	0
2024-08-22 22:33:47			0	37405	0	0	0	28350	26960	157867	27057	1070954	46498	110530	0	0	8090	567322	0	0
2024-08-22 22:34:47			0	37376	0	0	0	28358	26970	157891	26661	1070901	46500	110533	0	0	8089	568438	0	0
2024-08-22 22:35:47			0	37399	0	0	0	28355	26970	157891	26753	1070999	46499	110532	0	0	8090	567527	0	0
2024-08-22 22:36:47			0	37383	0	0	0	28361	26970	157991	27157	1070918	46499	110534	0	0	8089	568161	0	0
2024-08-22 22:37:47			0	37389	0	0	0	28363	26970	157903	26840	1070954	46488	110535	0	0	8089	567923	0	0
2024-08-22 22:38:47			0	37383	0	0	0	28350	26960	157895	26764	1070963	46487	110530	0	0	8089	568193	0	0
2024-08-22 22:39:47			0	37372	0	0	0	28350	26970	157979	26750	1070918	46499	110530	0	0	8088	568597	0	0
2024-08-22 22:40:47			0	37396	0	0	0	28353	26960	157911	26663	1071008	46498	110531	0	0	8090	567678	0	0
2024-08-22 22:41:47			0	37412	0	0	0	28350	26960	157787	27123	1070874	46486	110530	0	0	8091	567045	0	0
2024-08-22 22:42:47			0	37391	0	0	0	28355	26960	157823	26831	1070936	46499	110532	0	0	8089	567876	0	0
2024-08-22 22:43:47			0	37413	0	0	0	28358	26960	157699	26781	1070954	46498	110533	0	0	8091	567006	0	0
2024-08-22 22:44:47			0	37404	0	0	0	28348	26960	157779	26706	1070927	46498	110529	0	0	8090	567362	0	0
2024-08-22 22:45:47			0	37400	0	0	0	28366	26960	157783	26814	1070900	46498	110536	0	0	8090	567520	0	0
2024-08-22 22:46:47			0	37406	0	0	0	28363	26960	157903	26850	1070927	46508	110535	0	0	8090	567283	0	0
2024-08-22 22:47:47			0	37378	0	0	0	28358	26970	157919	26968	1070972	46499	110533	0	0	8089	568359	0	0
2024-08-22 22:48:47			0	37395	0	0	0	28348	26960	157947	26897	1070981	46498	110529	0	0	8090	567718	0	0
2024-08-22 22:49:47			0	37376	0	0	0	28353	26960	158011	26701	1070874	46498	110531	0	0	8089	568471	0	0
2024-08-22 22:50:47			0	37373	0	0	0	28355	26960	157987	26970	1070874	46508	110532	0	0	8088	568590	0	0
2024-08-22 22:51:47			0	37378	0	0	0	28353	26960	157947	27142	1070927	46486	110531	0	0	8089	568392	0	0
2024-08-22 22:52:47			0	37373	0	0	0	28348	26960	158031	27138	1070927	46475	110529	0	0	8089	568590	0	0
2024-08-22 22:53:47			0	37392	0	0	0	28348	26950	157999	27137	1070865	46486	110529	0	0	8090	567870	0	0
2024-08-22 22:54:47			0	37371	0	0	0	28342	26950	157935	26986	1070891	46486	110527	0	0	8088	568702	0	0
2024-08-22 22:55:47			0	37370	0	0	0	28342	26960	157971	26856	1070900	46508	110527	0	0	8088	568709	0	0
2024-08-22 22:56:47			0	37359	0	0	0	28345	26950	157859	26935	1070865	46498	110528	0	0	8088	569177	0	0
2024-08-22 22:57:47			0	37387	0	0	0	28335	26950	157959	26852	1070865	46498	110524	0	0	8089	568067	0	0
2024-08-22 22:58:47			0	37397	0	0	0	28335	26950	157919	26989	1070829	46485	110524	0	0	8090	567671	0	0
2024-08-22 22:59:47			0	37391	0	0	0	28332	26950	157947	27109	1070838	46475	110523	0	0	8090	567909	0	0
2024-08-22 23:00:47			0	37371	0	0	0	28335	26930	157935	26927	1070784	46484	110524	0	0	8088	568767	0	0
2024-08-22 23:01:47			0	37389	0	0	0	28335	26930	158023	26878	1070811	46496	110524	0	0	8090	568053	0	0
2024-08-22 23:02:47			0	37406	0	0	0	28327	26930	157895	27244	1070811	46506	110521	0	0	8091	567380	0	0
2024-08-22 23:03:47			0	37371	0	0	0	28329	26940	157979	26883	1070820	46485	110522	0	0	8089	568734	0	0
2024-08-22 23:04:47			0	37386	0	0	0	28327	26950	157883	26800	1070891	46486	110521	0	0	8090	568107	0	0
2024-08-22 23:05:47			0	37388	0	0	0	28324	26930	157951	27308	1070802	46516	110520	0	0	8090	568093	0	0
2024-08-22 23:06:47			0	37374	0	0	0	28324	26940	158007	26887	1070820	46497	110520	0	0	8089	568615	0	0
2024-08-22 23:07:47			0	37372	0	0	0	28322	26940	157943	26790	1070766	46485	110519	0	0	8089	568694	0	0
2024-08-22 23:08:47			0	37367	0	0	0	28314	26930	158059	26967	1070802	46483	110516	0	0	8089	568925	0	0
2024-08-22 23:09:47			0	37375	0	0	0	28316	26930	158003	27083	1070757	46484	110517	0	0	8089	568608	0	0
2024-08-22 23:10:47			0	37358	0	0	0	28319	26940	158083	27036	1070820	46497	110518	0	0	8088	569250	0	0
2024-08-22 23:11:47			0	37368	0	0	0	28324	26920	158087	26958	1070766	46495	110520	0	0	8088	568918	0	0
2024-08-22 23:12:47			0	37372	0	0	0	28324	26920	158099	26779	1070739	46483	110520	0	0	8089	568760	0	0
2024-08-22 23:13:47			0	37397	0	0	0	28322	26930	158047	27232	1070748	46505	110519	0	0	8090	567736	0	0
2024-08-22 23:14:47			0	37395	0	0	0	28316	26910	157963	27090	1070775	46504	110517	0	0	8090	567881	0	0
2024-08-22 23:15:47			0	37410	0	0	0	28329	26920	157931	27104	1070757	46494	110522	0	0	8091	567254	0	0
2024-08-22 23:16:47			0	37411	0	0	0	28311	26920	157931	27116	1070703	46482	110515	0	0	8091	567215	0	0
2024-08-22 23:17:47			0	37395	0	0	0	28316	26920	157923	27265	1070703	46482	110517	0	0	8090	567848	0	0
2024-08-22 23:18:47			0	37425	0	0	0	28306	26910	157859	27046	1070721	46482	110513	0	0	8092	566693	0	0
2024-08-22 23:19:47			0	37416	0	0	0	28306	26900	157875	27274	1070702	46481	110513	0	0	8091	567082	0	0
2024-08-22 23:20:47			0	37415	0	0	0	28296	26910	157811	27059	1070694	46482	110509	0	0	8092	567089	0	0
2024-08-22 23:21:47			0	37410	0	0	0	28298	26910	157779	27261	1070721	46504	110510	0	0	8091	567287	0	0
2024-08-22 23:22:47			0	37399	0	0	0	28298	26910	157887	27168	1070667	46482	110510	0	0	8091	567722	0	0
2024-08-22 23:23:47			0	37425	0	0	0	28296	26910	157743	27005	1070658	46493	110509	0	0	8092	566693	0	0
2024-08-22 23:24:47			0	37426	0	0	0	28293	26900	157791	26972	1070676	46493	110508	0	0	8092	566686	0	0
2024-08-22 23:25:47			0	37407	0	0	0	28288	26910	157947	26993	1070685	46503	110506	0	0	8091	567406	0	0
2024-08-22 23:26:47			0	37385	0	0	0	28290	26900	157907	27100	1070666	46492	110507	0	0	8090	568310	0	0
2024-08-22 23:27:47			0	37405	0	0	0	28288	26900	157787	27294	1070649	46493	110506	0	0	8091	567517	0	0
2024-08-22 23:28:47			0	37427	0	0	0	28288	26910	157831	26904	1070604	46493	110506	0	0	8092	566614	0	0
2024-08-22 23:29:47			0	37399	0	0	0	28285	26890	157899	27300	1070595	46479	110505	0	0	8091	567788	0	0
2024-08-22 23:30:47			0	37385	0	0	0	28283	26890	157967	27078	1070622	46479	110504	0	0	8090	568342	0	0
2024-08-22 23:31:47			0	37379	0	0	0	28285	26880	157991	27258	1070630	46467	110505	0	0	8090	568612	0	0
2024-08-22 23:32:47			0	37356	0	0	0	28288	26900	158003	27057	1070640	46480	110506	0	0	8088	569460	0	0
2024-08-22 23:33:47			0	37381	0	0	0	28283	26900	158079	27131	1070649	46481	110504	0	0	8090	568468	0	0
2024-08-22 23:34:47			0	37374	0	0	0	28277	26900	158131	27055	1070559	46480	110502	0	0	8089	568746	0	0
2024-08-22 23:35:47			0	37375	0	0	0	28275	26890	158075	26986	1070604	46492	110501	0	0	8090	568739	0	0
2024-08-22 23:36:47			0	37354	0	0	0	28272	26880	158015	27331	1070532	46500	110500	0	0	8088	569604	0	0
2024-08-22 23:37:47			0	37360	0	0	0	28267	26880	158079	27332	1070550	46490	110498	0	0	8089	569366	0	0
2024-08-22 23:38:47			0	37347	0	0	0	28267	26890	158111	26965	1070568	46491	110498	0	0	8088	569850	0	0
2024-08-22 23:39:47			0	37358	0	0	0	28272	26890	158007	27310	1070568	46479	110500	0	0	8089	569413	0	0
2024-08-22 23:40:47			0	37367	0	0	0	28262	26870	158091	27098	1070514	46478	110496	0	0	8089	569121	0	0
2024-08-22 23:41:47			0	37379	0	0	0	28280	26880	157955	27095	1070550	46478	110503	0	0	8090	568612	0	0
2024-08-22 23:42:47			0	37366	0	0	0	28277	26890	158043	26939	1070577	46492	110502	0	0	8089	569095	0	0
2024-08-22 23:43:47			0	37368	0	0	0	28272	26870	158203	27074	1070568	46490	110500	0	0	8089	569081	0	0
2024-08-22 23:44:47			0	37392	0	0	0	28277	26870	158199	27334	1070568	46490	110502	0	0	8090	568130	0	0
2024-08-22 23:45:47			0	37366	0	0	0	28275	26870	158083	27326	1070568	46478	110501	0	0	8089	569161	0	0
2024-08-22 23:46:47			0	37370	0	0	0	28272	26860	158067	26844	1070523	46488	110500	0	0	8089	569035	0	0
2024-08-22 23:47:47			0	37361	0	0	0	28275	26880	158215	27274	1070613	46500	110501	0	0	8089	569326	0	0
2024-08-22 23:48:47			0	37354	0	0	0	28275	26870	158259	26965	1070541	46478	110501	0	0	8088	569637	0	0
2024-08-22 23:49:47			0	37356	0	0	0	28280	26870	158139	26951	1070532	46489	110503	0	0	8088	569558	0	0
2024-08-22 23:50:47			0	37353	0	0	0	28275	26870	158147	27138	1070514	46490	110501	0	0	8088	569677	0	0
2024-08-22 23:51:47			0	37352	0	0	0	28272	26860	158131	27118	1070550	46488	110500	0	0	8088	569749	0	0
2024-08-22 23:52:47			0	37361	0	0	0	28259	26880	158043	27010	1070550	46478	110495	0	0	8089	569326	0	0
2024-08-22 23:53:47			0	37374	0	0	0	28264	26870	158083	27277	1070541	46478	110497	0	0	8090	568843	0	0
2024-08-22 23:54:47			0	37386	0	0	0	28267	26860	158023	27060	1070496	46488	110498	0	0	8090	568400	0	0
2024-08-22 23:55:47			0	37411	0	0	0	28267	26860	157951	26970	1070496	46488	110498	0	0	8092	567410	0	0
2024-08-22 23:56:47			0	37435	0	0	0	28270	26870	157839	27147	1070487	46500	110499	0	0	8093	566428	0	0
2024-08-22 23:57:47			0	37434	0	0	0	28272	26870	157787	27131	1070487	46478	110500	0	0	8093	566467	0	0
2024-08-22 23:58:47			0	37442	0	0	0	28267	26870	157735	27215	1070541	46500	110498	0	0	8093	566151	0	0
2024-08-22 23:59:47			0	37440	0	0	0	28272	26870	157791	27102	1070541	46490	110500	0	0	8093	566230	0	0
2024-08-23 00:00:47			0	37420	0	0	0	28277	26860	157871	27069	1070469	46476	110502	0	0	8092	567054	0	0
2024-08-23 00:01:47			0	37430	0	0	0	28272	26860	157891	27119	1070523	46488	110500	0	0	8093	566658	0	0
2024-08-23 00:02:47			0	37448	0	0	0	28277	26860	157787	27074	1070514	46488	110502	0	0	8094	565946	0	0
2024-08-23 00:03:47			0	37440	0	0	0	28264	26870	157795	26909	1070478	46477	110497	0	0	8093	566230	0	0
2024-08-23 00:04:47			0	37436	0	0	0	28275	26860	157711	26807	1070523	46476	110501	0	0	8093	566421	0	0
2024-08-23 00:05:47			0	37437	0	0	0	28277	26870	157719	26991	1070514	46467	110502	0	0	8093	566349	0	0
2024-08-23 00:06:47			0	37434	0	0	0	28267	26870	157895	26942	1070487	46500	110498	0	0	8093	566467	0	0
2024-08-23 00:07:47			0	37426	0	0	0	28272	26860	157731	27216	1070469	46476	110500	0	0	8092	566816	0	0
2024-08-23 00:08:47			0	37433	0	0	0	28270	26860	157751	27376	1070442	46488	110499	0	0	8093	566539	0	0
2024-08-23 00:09:47			0	37424	0	0	0	28259	26870	157871	27178	1070460	46490	110495	0	0	8093	566863	0	0
2024-08-23 00:10:47			0	37412	0	0	0	28264	26850	157899	27029	1070424	46476	110497	0	0	8092	567403	0	0
2024-08-23 00:11:47			0	37403	0	0	0	28270	26870	158015	26850	1070505	46489	110499	0	0	8091	567694	0	0
2024-08-23 00:12:47			0	37406	0	0	0	28272	26870	157939	27161	1070532	46489	110500	0	0	8091	567575	0	0
2024-08-23 00:13:47			0	37418	0	0	0	28267	26870	157863	27038	1070505	46466	110498	0	0	8092	567100	0	0
2024-08-23 00:14:47			0	37421	0	0	0	28267	26860	157815	27163	1070496	46499	110498	0	0	8092	567014	0	0
2024-08-23 00:15:47			0	37425	0	0	0	28272	26860	157843	27140	1070523	46488	110500	0	0	8092	566856	0	0
2024-08-23 00:16:47			0	37417	0	0	0	28272	26870	157835	26850	1070505	46489	110500	0	0	8092	567140	0	0
2024-08-23 00:17:47			0	37410	0	0	0	28275	26870	157855	26993	1070541	46500	110501	0	0	8091	567417	0	0
2024-08-23 00:18:47			0	37415	0	0	0	28283	26860	157839	27152	1070523	46476	110504	0	0	8092	567251	0	0
2024-08-23 00:19:47			0	37397	0	0	0	28280	26860	157803	26826	1070496	46499	110503	0	0	8091	567964	0	0
2024-08-23 00:20:47			0	37412	0	0	0	28267	26860	157779	27007	1070442	46488	110498	0	0	8092	567370	0	0
2024-08-23 00:21:47			0	37426	0	0	0	28275	26880	157879	27029	1070496	46490	110501	0	0	8092	566751	0	0
2024-08-23 00:22:47			0	37444	0	0	0	28272	26870	157695	26885	1070505	46500	110500	0	0	8094	566072	0	0
2024-08-23 00:23:47			0	37444	0	0	0	28264	26860	157739	26842	1070496	46465	110497	0	0	8094	566104	0	0
2024-08-23 00:24:47			0	37469	0	0	0	28264	26860	157755	26838	1070523	46465	110497	0	0	8095	565117	0	0
2024-08-23 00:25:47			0	37464	0	0	0	28257	26870	157687	27126	1070505	46489	110494	0	0	8095	565282	0	0
2024-08-23 00:26:47			0	37471	0	0	0	28259	26860	157647	26996	1070460	46476	110495	0	0	8095	565038	0	0
2024-08-23 00:27:47			0	37471	0	0	0	28259	26860	157611	26883	1070442	46488	110495	0	0	8095	565038	0	0
2024-08-23 00:28:47			0	37460	0	0	0	28257	26870	157695	27199	1070505	46489	110494	0	0	8095	565440	0	0
2024-08-23 00:29:47			0	37471	0	0	0	28251	26860	157659	26974	1070406	46465	110492	0	0	8095	565038	0	0
2024-08-23 00:30:47			0	37481	0	0	0	28254	26860	157615	26833	1070406	46465	110493	0	0	8096	564643	0	0
2024-08-23 00:31:47			0	37498	0	0	0	28257	26860	157559	27282	1070442	46476	110494	0	0	8097	563972	0	0
2024-08-23 00:32:47			0	37490	0	0	0	28259	26860	157587	26925	1070442	46488	110495	0	0	8096	564288	0	0
2024-08-23 00:33:47			0	37484	0	0	0	28257	26850	157555	27213	1070469	46475	110494	0	0	8096	564557	0	0
2024-08-23 00:34:47			0	37497	0	0	0	28246	26850	157635	26689	1070388	46498	110490	0	0	8097	564044	0	0
2024-08-23 00:35:47			0	37489	0	0	0	28254	26850	157603	27071	1070424	46476	110493	0	0	8096	564360	0	0
2024-08-23 00:36:47			0	37478	0	0	0	28249	26850	157675	26873	1070451	46476	110491	0	0	8096	564794	0	0
2024-08-23 00:37:47			0	37470	0	0	0	28249	26850	157731	27218	1070505	46488	110491	0	0	8095	565109	0	0
2024-08-23 00:38:47			0	37476	0	0	0	28251	26850	157543	26769	1070388	46475	110492	0	0	8096	564872	0	0
2024-08-23 00:39:47			0	37483	0	0	0	28244	26850	157631	26793	1070397	46476	110489	0	0	8096	564596	0	0
2024-08-23 00:40:47			0	37470	0	0	0	28236	26850	157663	26743	1070388	46475	110486	0	0	8096	565109	0	0
2024-08-23 00:41:47			0	37471	0	0	0	28241	26850	157639	26677	1070451	46488	110488	0	0	8096	565070	0	0
2024-08-23 00:42:47			0	37478	0	0	0	28244	26860	157699	27220	1070406	46488	110489	0	0	8096	564761	0	0
2024-08-23 00:43:47			0	37452	0	0	0	28246	26840	157639	27216	1070370	46497	110490	0	0	8094	565853	0	0
2024-08-23 00:44:47			0	37435	0	0	0	28236	26840	157819	26922	1070433	46474	110486	0	0	8093	566525	0	0
2024-08-23 00:45:47			0	37429	0	0	0	28236	26840	157831	27289	1070397	46486	110486	0	0	8093	566762	0	0
2024-08-23 00:46:47			0	37425	0	0	0	28238	26840	157863	27078	1070352	46486	110487	0	0	8093	566921	0	0
2024-08-23 00:47:47			0	37434	0	0	0	28244	26850	157903	27012	1070308	46498	110489	0	0	8093	566532	0	0
2024-08-23 00:48:47			0	37430	0	0	0	28236	26850	157819	26984	1070424	46476	110486	0	0	8093	566690	0	0
2024-08-23 00:49:47			0	37447	0	0	0	28241	26840	157815	26949	1070460	46474	110488	0	0	8094	566051	0	0
2024-08-23 00:50:47			0	37438	0	0	0	28236	26830	157903	26944	1070388	46485	110486	0	0	8094	566439	0	0
2024-08-23 00:51:47			0	37438	0	0	0	28236	26830	157799	27147	1070361	46485	110486	0	0	8094	566439	0	0
2024-08-23 00:52:47			0	37419	0	0	0	28233	26840	157911	27192	1070352	46474	110485	0	0	8093	567158	0	0
2024-08-23 00:53:47			0	37409	0	0	0	28225	26830	157891	27227	1070334	46473	110482	0	0	8092	567587	0	0
2024-08-23 00:54:47			0	37419	0	0	0	28231	26830	157983	26994	1070281	46473	110484	0	0	8093	567191	0	0
2024-08-23 00:55:47			0	37408	0	0	0	28233	26840	157931	27085	1070325	46474	110485	0	0	8092	567594	0	0
2024-08-23 00:56:47			0	37436	0	0	0	28225	26840	157827	27329	1070316	46497	110482	0	0	8094	566486	0	0
2024-08-23 00:57:47			0	37438	0	0	0	28228	26820	157903	26875	1070253	46460	110483	0	0	8094	566471	0	0
2024-08-23 00:58:47			0	37429	0	0	0	28225	26830	157855	27391	1070218	46485	110482	0	0	8093	566795	0	0
2024-08-23 00:59:47			0	37451	0	0	0	28225	26820	157719	26937	1070316	46472	110482	0	0	8094	565957	0	0
2024-08-23 01:00:47			0	37450	0	0	0	28220	26820	157655	26741	1070236	46472	110480	0	0	8094	565997	0	0
2024-08-23 01:01:47			0	37466	0	0	0	28228	26830	157683	27168	1070271	46496	110483	0	0	8095	565332	0	0
2024-08-23 01:02:47			0	37445	0	0	0	28228	26820	157711	26928	1070236	46484	110483	0	0	8094	566195	0	0
2024-08-23 01:03:47			0	37473	0	0	0	28225	26820	157787	27289	1070146	46471	110482	0	0	8096	565088	0	0
2024-08-23 01:04:47			0	37448	0	0	0	28215	26810	157731	26831	1070245	46483	110478	0	0	8094	566108	0	0
2024-08-23 01:05:47			0	37435	0	0	0	28218	26820	157607	27118	1070209	46484	110479	0	0	8094	566590	0	0
2024-08-23 01:06:47			0	37442	0	0	0	28223	26820	157731	27015	1070263	46484	110481	0	0	8094	566313	0	0
2024-08-23 01:07:47			0	37447	0	0	0	28223	26820	157643	27215	1070236	46484	110481	0	0	8094	566116	0	0
2024-08-23 01:08:47			0	37467	0	0	0	28220	26820	157611	27027	1070209	46495	110480	0	0	8095	565325	0	0
2024-08-23 01:09:47			0	37466	0	0	0	28220	26810	157703	27076	1070245	46471	110480	0	0	8095	565397	0	0
2024-08-23 01:10:47			0	37456	0	0	0	28210	26830	157567	26887	1070218	46496	110476	0	0	8095	565727	0	0
2024-08-23 01:11:47			0	37449	0	0	0	28207	26820	157679	26752	1070227	46494	110475	0	0	8095	566036	0	0
2024-08-23 01:12:47			0	37467	0	0	0	28215	26820	157699	27066	1070236	46472	110478	0	0	8096	565325	0	0
2024-08-23 01:13:47			0	37465	0	0	0	28205	26820	157519	27223	1070209	46484	110474	0	0	8096	565404	0	0
2024-08-23 01:14:47			0	37471	0	0	0	28212	26820	157611	27038	1070227	46483	110477	0	0	8096	565167	0	0
2024-08-23 01:15:47			0	37477	0	0	0	28199	26810	157543	27279	1070191	46471	110472	0	0	8096	564963	0	0
2024-08-23 01:16:47			0	37466	0	0	0	28205	26820	157627	27185	1070253	46483	110474	0	0	8096	565365	0	0
2024-08-23 01:17:47			0	37449	0	0	0	28210	26810	157715	27138	1070209	46483	110476	0	0	8095	566069	0	0
2024-08-23 01:18:47			0	37442	0	0	0	28199	26800	157763	27095	1070146	46470	110472	0	0	8094	566378	0	0
2024-08-23 01:19:47			0	37449	0	0	0	28202	26810	157751	27055	1070164	46471	110473	0	0	8095	566069	0	0
2024-08-23 01:20:47			0	37445	0	0	0	28194	26810	157779	26944	1070182	46471	110470	0	0	8095	566227	0	0
2024-08-23 01:21:47			0	37437	0	0	0	28194	26800	157811	26679	1070146	46482	110470	0	0	8094	566576	0	0
2024-08-23 01:22:47			0	37444	0	0	0	28202	26800	157855	26901	1070119	46482	110473	0	0	8094	566299	0	0
2024-08-23 01:23:47			0	37411	0	0	0	28194	26810	157855	27071	1070128	46483	110470	0	0	8093	567573	0	0
2024-08-23 01:24:47			0	37425	0	0	0	28184	26810	157803	26882	1070128	46471	110466	0	0	8094	567018	0	0
2024-08-23 01:25:47			0	37435	0	0	0	28192	26800	157827	27003	1070119	46470	110469	0	0	8094	566655	0	0
2024-08-23 01:26:47			0	37418	0	0	0	28197	26800	157847	26790	1070191	46481	110471	0	0	8093	567328	0	0
2024-08-23 01:27:47			0	37413	0	0	0	28194	26800	157823	27062	1070119	46470	110470	0	0	8093	567526	0	0
2024-08-23 01:28:47			0	37415	0	0	0	28194	26800	157935	26739	1070065	46470	110470	0	0	8093	567447	0	0
2024-08-23 01:29:47			0	37424	0	0	0	28199	26790	157787	26996	1070101	46502	110472	0	0	8093	567123	0	0
2024-08-23 01:30:47			0	37436	0	0	0	28186	26790	157919	27027	1070128	46469	110467	0	0	8094	566648	0	0
2024-08-23 01:31:47			0	37403	0	0	0	28184	26790	157947	26719	1070074	46469	110466	0	0	8092	567954	0	0
2024-08-23 01:32:47			0	37403	0	0	0	28186	26790	157919	27208	1070092	46458	110467	0	0	8092	567954	0	0
2024-08-23 01:33:47			0	37423	0	0	0	28179	26790	157899	27066	1070020	46481	110464	0	0	8093	567162	0	0
2024-08-23 01:34:47			0	37418	0	0	0	28181	26790	157975	26837	1070011	46481	110465	0	0	8093	567360	0	0
2024-08-23 01:35:47			0	37425	0	0	0	28173	26780	158083	26745	1070002	46480	110462	0	0	8094	567116	0	0
2024-08-23 01:36:47			0	37396	0	0	0	28171	26780	157947	26873	1070056	46480	110461	0	0	8092	568264	0	0
2024-08-23 01:37:47			0	37414	0	0	0	28173	26780	157991	26814	1069975	46458	110462	0	0	8093	567551	0	0
2024-08-23 01:38:47			0	37416	0	0	0	28163	26770	157999	27008	1070038	46467	110458	0	0	8093	567504	0	0
2024-08-23 01:39:47			0	37424	0	0	0	28168	26780	157903	26759	1070029	46468	110460	0	0	8094	567155	0	0
2024-08-23 01:40:47			0	37415	0	0	0	28166	26780	157879	26946	1070047	46457	110459	0	0	8093	567512	0	0
2024-08-23 01:41:47			0	37409	0	0	0	28166	26770	157847	27026	1070011	46479	110459	0	0	8093	567782	0	0
2024-08-23 01:42:47			0	37432	0	0	0	28166	26780	157963	26927	1070047	46467	110459	0	0	8094	566839	0	0
2024-08-23 01:43:47			0	37447	0	0	0	28176	26780	157871	27066	1070029	46458	110463	0	0	8095	566245	0	0
2024-08-23 01:44:47			0	37447	0	0	0	28158	26780	157807	27190	1070020	46479	110456	0	0	8095	566245	0	0
2024-08-23 01:45:47			0	37437	0	0	0	28161	26780	157819	26949	1070020	46479	110457	0	0	8095	566641	0	0
2024-08-23 01:46:47			0	37438	0	0	0	28161	26770	157847	26786	1069930	46490	110457	0	0	8095	566634	0	0
2024-08-23 01:47:47			0	37429	0	0	0	28155	26770	157891	27159	1069930	46467	110455	0	0	8094	566990	0	0
2024-08-23 01:48:47			0	37420	0	0	0	28153	26770	157899	27118	1069948	46490	110454	0	0	8094	567346	0	0
2024-08-23 01:49:47			0	37384	0	0	0	28158	26770	158007	27001	1069894	46467	110456	0	0	8091	568773	0	0
2024-08-23 01:50:47			0	37414	0	0	0	28153	26760	157931	26958	1069930	46465	110454	0	0	8093	567616	0	0
2024-08-23 01:51:47			0	37387	0	0	0	28158	26760	158059	27062	1069903	46477	110456	0	0	8092	568686	0	0
2024-08-23 01:52:47			0	37398	0	0	0	28148	26760	157995	27019	1069832	46478	110452	0	0	8092	568250	0	0
2024-08-23 01:53:47			0	37388	0	0	0	28150	26760	158051	27157	1069849	46477	110453	0	0	8092	568647	0	0
2024-08-23 01:54:47			0	37407	0	0	0	28150	26760	157947	27085	1069912	46478	110453	0	0	8093	567893	0	0
2024-08-23 01:55:47			0	37393	0	0	0	28153	26750	158031	26979	1069840	46464	110454	0	0	8092	568481	0	0
2024-08-23 01:56:47			0	37403	0	0	0	28150	26760	157923	26996	1069876	46488	110453	0	0	8093	568052	0	0
2024-08-23 01:57:47			0	37402	0	0	0	28142	26750	158027	27215	1069840	46464	110450	0	0	8093	568124	0	0
2024-08-23 01:58:47			0	37393	0	0	0	28145	26750	157979	26932	1069840	46464	110451	0	0	8092	568481	0	0
2024-08-23 01:59:47			0	37391	0	0	0	28148	26750	158051	27062	1069894	46476	110452	0	0	8092	568560	0	0
2024-08-23 02:00:47			0	37369	0	0	0	28140	26750	158135	27029	1069840	46487	110449	0	0	8091	569433	0	0
2024-08-23 02:01:47			0	37374	0	0	0	28150	26750	158075	26838	1069894	46464	110453	0	0	8091	569235	0	0
2024-08-23 02:02:47			0	37369	0	0	0	28155	26750	158103	26963	1069840	46476	110455	0	0	8091	569433	0	0
2024-08-23 02:03:47			0	37384	0	0	0	28142	26760	158191	26899	1069849	46477	110450	0	0	8092	568805	0	0
2024-08-23 02:04:47			0	37387	0	0	0	28148	26760	158119	26989	1069912	46466	110452	0	0	8092	568686	0	0
2024-08-23 02:05:47			0	37388	0	0	0	28142	26740	158103	26880	1069876	46487	110450	0	0	8092	568712	0	0
2024-08-23 02:06:47			0	37408	0	0	0	28148	26750	158023	27242	1069831	46464	110452	0	0	8093	567886	0	0
2024-08-23 02:07:47			0	37409	0	0	0	28137	26750	158095	26885	1069778	46487	110448	0	0	8093	567847	0	0
2024-08-23 02:08:47			0	37386	0	0	0	28135	26740	158039	26946	1069760	46475	110447	0	0	8092	568791	0	0
2024-08-23 02:09:47			0	37390	0	0	0	28137	26740	158115	26942	1069822	46476	110448	0	0	8092	568633	0	0
2024-08-23 02:10:47			0	37379	0	0	0	28142	26740	158095	26982	1069876	46476	110450	0	0	8091	569069	0	0
2024-08-23 02:11:47			0	37380	0	0	0	28132	26750	158091	26882	1069858	46476	110446	0	0	8092	568997	0	0
2024-08-23 02:12:47			0	37383	0	0	0	28129	26750	158103	27185	1069831	46454	110445	0	0	8092	568878	0	0
2024-08-23 02:13:47			0	37370	0	0	0	28135	26740	158275	27026	1069813	46475	110447	0	0	8091	569426	0	0
2024-08-23 02:14:47			0	37366	0	0	0	28135	26740	158103	27149	1069795	46476	110447	0	0	8091	569585	0	0
2024-08-23 02:15:47			0	37363	0	0	0	28135	26750	158171	27324	1069805	46476	110447	0	0	8091	569671	0	0
2024-08-23 02:16:47			0	37383	0	0	0	28132	26730	158123	27114	1069831	46485	110446	0	0	8092	568943	0	0
2024-08-23 02:17:47			0	37385	0	0	0	28132	26740	158079	26975	1069822	46464	110446	0	0	8092	568831	0	0
2024-08-23 02:18:47			0	37367	0	0	0	28127	26740	158155	27242	1069786	46463	110444	0	0	8091	569545	0	0
2024-08-23 02:19:47			0	37382	0	0	0	28129	26730	158115	27159	1069777	46474	110445	0	0	8092	568982	0	0
2024-08-23 02:20:47			0	37403	0	0	0	28129	26730	158159	27008	1069768	46462	110445	0	0	8093	568150	0	0
2024-08-23 02:21:47			0	37386	0	0	0	28129	26720	158031	27235	1069733	46474	110445	0	0	8092	568856	0	0
2024-08-23 02:22:47			0	37373	0	0	0	28122	26730	158115	27317	1069777	46462	110442	0	0	8091	569339	0	0
2024-08-23 02:23:47			0	37375	0	0	0	28132	26740	158127	26949	1069786	46486	110446	0	0	8091	569227	0	0
2024-08-23 02:24:47			0	37383	0	0	0	28127	26730	158171	27301	1069751	46462	110444	0	0	8092	568943	0	0
2024-08-23 02:25:47			0	37390	0	0	0	28116	26730	158163	27196	1069751	46474	110440	0	0	8092	568665	0	0
2024-08-23 02:26:47			0	37387	0	0	0	28124	26720	158103	27081	1069697	46461	110443	0	0	8092	568817	0	0
2024-08-23 02:27:47			0	37368	0	0	0	28119	26730	158107	27201	1069822	46474	110441	0	0	8091	569538	0	0
2024-08-23 02:28:47			0	37383	0	0	0	28122	26720	158067	27064	1069760	46462	110442	0	0	8092	568975	0	0
2024-08-23 02:29:47			0	37392	0	0	0	28116	26730	158131	26890	1069822	46474	110440	0	0	8092	568586	0	0
2024-08-23 02:30:47			0	37383	0	0	0	28119	26730	158031	27263	1069768	46485	110441	0	0	8092	568943	0	0
2024-08-23 02:31:47			0	37405	0	0	0	28101	26720	157999	27253	1069706	46452	110434	0	0	8093	568103	0	0
2024-08-23 02:32:47			0	37408	0	0	0	28111	26720	157927	26842	1069679	46462	110438	0	0	8093	567984	0	0
2024-08-23 02:33:47			0	37419	0	0	0	28106	26720	157947	26908	1069697	46461	110436	0	0	8094	567548	0	0
2024-08-23 02:34:47			0	37436	0	0	0	28109	26710	157979	27072	1069679	46460	110437	0	0	8095	566908	0	0
2024-08-23 02:35:47			0	37401	0	0	0	28103	26710	157963	27112	1069715	46472	110435	0	0	8093	568294	0	0
2024-08-23 02:36:47			0	37406	0	0	0	28103	26710	157999	27109	1069688	46460	110435	0	0	8093	568096	0	0
2024-08-23 02:37:47			0	37401	0	0	0	28106	26710	158007	27147	1069625	46483	110436	0	0	8093	568294	0	0
2024-08-23 02:38:47			0	37400	0	0	0	28103	26710	158059	27175	1069688	46472	110435	0	0	8093	568334	0	0
2024-08-23 02:39:47			0	37398	0	0	0	28096	26700	158095	26847	1069697	46460	110432	0	0	8093	568445	0	0
2024-08-23 02:40:47			0	37398	0	0	0	28096	26710	158027	26831	1069679	46472	110432	0	0	8093	568413	0	0
2024-08-23 02:41:47			0	37413	0	0	0	28088	26700	158095	27140	1069670	46460	110429	0	0	8094	567851	0	0
2024-08-23 02:42:47			0	37393	0	0	0	28085	26700	158087	27203	1069589	46472	110428	0	0	8093	568644	0	0
2024-08-23 02:43:47			0	37397	0	0	0	28088	26700	157975	27066	1069580	46471	110429	0	0	8093	568485	0	0
2024-08-23 02:44:47			0	37377	0	0	0	28090	26700	158143	27282	1069616	46472	110430	0	0	8092	569279	0	0
2024-08-23 02:45:47			0	37373	0	0	0	28093	26700	158075	27057	1069634	46471	110431	0	0	8092	569437	0	0
2024-08-23 02:46:47			0	37397	0	0	0	28093	26700	158111	27097	1069589	46483	110431	0	0	8093	568485	0	0
2024-08-23 02:47:47			0	37412	0	0	0	28103	26700	158039	27313	1069607	46471	110435	0	0	8094	567891	0	0
2024-08-23 02:48:47			0	37430	0	0	0	28096	26700	157979	27235	1069634	46471	110432	0	0	8095	567177	0	0
2024-08-23 02:49:47			0	37429	0	0	0	28096	26690	157871	26953	1069679	46470	110432	0	0	8095	567250	0	0
2024-08-23 02:50:47			0	37431	0	0	0	28098	26690	157983	26814	1069652	46481	110433	0	0	8095	567170	0	0
2024-08-23 02:51:47			0	37408	0	0	0	28098	26690	158079	27067	1069571	46470	110433	0	0	8093	568081	0	0
2024-08-23 02:52:47			0	37393	0	0	0	28088	26700	158095	27020	1069634	46482	110429	0	0	8093	568644	0	0
2024-08-23 02:53:47			0	37414	0	0	0	28083	26690	158063	27171	1069625	46470	110427	0	0	8094	567844	0	0
2024-08-23 02:54:47			0	37414	0	0	0	28085	26690	158183	27209	1069517	46458	110428	0	0	8094	567844	0	0
2024-08-23 02:55:47			0	37387	0	0	0	28083	26690	158047	27105	1069598	46481	110427	0	0	8093	568914	0	0
2024-08-23 02:56:47			0	37393	0	0	0	28077	26690	158131	27237	1069571	46470	110425	0	0	8093	568676	0	0
2024-08-23 02:57:47			0	37392	0	0	0	28072	26680	158115	26960	1069526	46469	110423	0	0	8093	568749	0	0
2024-08-23 02:58:47			0	37385	0	0	0	28075	26680	158243	27274	1069553	46469	110424	0	0	8092	569026	0	0
2024-08-23 02:59:47			0	37383	0	0	0	28080	26680	158155	27083	1069526	46469	110426	0	0	8092	569106	0	0
2024-08-23 03:00:47			0	37380	0	0	0	28072	26680	158171	27203	1069526	46458	110423	0	0	8092	569225	0	0
2024-08-23 03:01:47			0	37379	0	0	0	28083	26680	158175	27355	1069553	46469	110427	0	0	8092	569264	0	0
2024-08-23 03:02:47			0	37384	0	0	0	28072	26690	158207	27118	1069481	46469	110423	0	0	8093	569033	0	0
2024-08-23 03:03:47			0	37382	0	0	0	28072	26690	158187	26965	1069589	46469	110423	0	0	8092	569113	0	0
2024-08-23 03:04:47			0	37384	0	0	0	28085	26680	158151	26870	1069517	46458	110428	0	0	8092	569066	0	0
2024-08-23 03:05:47			0	37404	0	0	0	28080	26680	158203	27133	1069544	46469	110426	0	0	8094	568273	0	0
2024-08-23 03:06:47			0	37399	0	0	0	28080	26680	158079	27078	1069544	46480	110426	0	0	8093	568471	0	0
2024-08-23 03:07:47			0	37387	0	0	0	28072	26680	158055	27062	1069446	46469	110423	0	0	8093	568947	0	0
2024-08-23 03:08:47			0	37402	0	0	0	28072	26680	158195	26830	1069490	46469	110423	0	0	8094	568352	0	0
2024-08-23 03:09:47			0	37406	0	0	0	28077	26680	158071	26850	1069446	46469	110425	0	0	8094	568193	0	0
2024-08-23 03:10:47			0	37407	0	0	0	28059	26690	158171	26783	1069508	46469	110418	0	0	8094	568121	0	0
2024-08-23 03:11:47			0	37415	0	0	0	28054	26670	158027	27111	1069419	46456	110416	0	0	8095	567869	0	0
2024-08-23 03:12:47			0	37417	0	0	0	28054	26680	158079	27090	1069463	46458	110416	0	0	8095	567757	0	0
2024-08-23 03:13:47			0	37401	0	0	0	28051	26660	158091	27038	1069436	46467	110415	0	0	8094	568457	0	0
2024-08-23 03:14:47			0	37398	0	0	0	28051	26660	158095	26847	1069436	46456	110415	0	0	8094	568576	0	0
2024-08-23 03:15:47			0	37388	0	0	0	28059	26670	158163	27215	1069392	46456	110418	0	0	8093	568940	0	0
2024-08-23 03:16:47			0	37383	0	0	0	28051	26660	158071	27098	1069400	46456	110415	0	0	8093	569171	0	0
2024-08-23 03:17:47			0	37383	0	0	0	28046	26660	158075	27026	1069427	46456	110413	0	0	8093	569171	0	0
2024-08-23 03:18:47			0	37396	0	0	0	28046	26650	158115	27144	1069418	46466	110413	0	0	8093	568687	0	0
2024-08-23 03:19:47			0	37406	0	0	0	28044	26670	158147	27196	1069445	46456	110412	0	0	8094	568226	0	0
2024-08-23 03:20:47			0	37423	0	0	0	28049	26650	158063	27372	1069418	46466	110414	0	0	8095	567617	0	0
2024-08-23 03:21:47			0	37411	0	0	0	28041	26650	158123	27229	1069418	46477	110411	0	0	8094	568093	0	0
2024-08-23 03:22:47			0	37391	0	0	0	28046	26650	158219	27062	1069391	46466	110413	0	0	8093	568886	0	0
2024-08-23 03:23:47			0	37383	0	0	0	28044	26660	158175	27256	1069373	46467	110412	0	0	8093	569171	0	0
2024-08-23 03:24:47			0	37405	0	0	0	28041	26640	158211	27131	1069382	46465	110411	0	0	8094	568363	0	0
2024-08-23 03:25:47			0	37400	0	0	0	28031	26650	158183	27015	1069364	46466	110407	0	0	8094	568529	0	0
2024-08-23 03:26:47			0	37382	0	0	0	28036	26640	158135	26965	1069382	46454	110409	0	0	8093	569276	0	0
2024-08-23 03:27:47			0	37383	0	0	0	28041	26640	158131	27157	1069293	46465	110411	0	0	8093	569236	0	0
2024-08-23 03:28:47			0	37385	0	0	0	28044	26640	158175	27161	1069346	46499	110412	0	0	8093	569157	0	0
2024-08-23 03:29:47			0	37354	0	0	0	28036	26640	158303	27074	1069328	46465	110409	0	0	8091	570388	0	0
2024-08-23 03:30:47			0	37362	0	0	0	28033	26630	158319	27001	1069310	46465	110408	0	0	8092	570102	0	0
2024-08-23 03:31:47			0	37340	0	0	0	28025	26640	158291	26890	1069266	46465	110405	0	0	8091	570944	0	0
2024-08-23 03:32:47			0	37363	0	0	0	28020	26630	158259	27281	1069301	46453	110403	0	0	8092	570063	0	0
2024-08-23 03:33:47			0	37388	0	0	0	28028	26630	158175	26956	1069337	46454	110406	0	0	8093	569070	0	0
2024-08-23 03:34:47			0	37370	0	0	0	28031	26630	158195	27225	1069284	46454	110407	0	0	8092	569785	0	0
2024-08-23 03:35:47			0	37368	0	0	0	28028	26620	158111	26838	1069212	46452	110406	0	0	8092	569897	0	0
2024-08-23 03:36:47			0	37375	0	0	0	28023	26630	158151	26918	1069284	46454	110404	0	0	8093	569586	0	0
2024-08-23 03:37:47			0	37378	0	0	0	28025	26630	158103	27064	1069221	46464	110405	0	0	8093	569467	0	0
2024-08-23 03:38:47			0	37371	0	0	0	28015	26630	158263	27171	1069257	46465	110401	0	0	8092	569745	0	0
2024-08-23 03:39:47			0	37351	0	0	0	28015	26630	158255	26882	1069248	46442	110401	0	0	8091	570540	0	0
2024-08-23 03:40:47			0	37354	0	0	0	28010	26620	158179	27119	1069203	46462	110399	0	0	8092	570453	0	0
2024-08-23 03:41:47			0	37369	0	0	0	28010	26610	158311	26864	1069221	46462	110399	0	0	8092	569890	0	0
2024-08-23 03:42:47			0	37369	0	0	0	28012	26620	158303	26693	1069239	46452	110400	0	0	8092	569857	0	0
2024-08-23 03:43:47			0	37354	0	0	0	28007	26610	158391	26849	1069167	46462	110398	0	0	8092	570486	0	0
2024-08-23 03:44:47			0	37339	0	0	0	28010	26610	158259	27149	1069221	46473	110399	0	0	8091	571082	0	0
2024-08-23 03:45:47			0	37334	0	0	0	28007	26610	158407	27079	1069248	46451	110398	0	0	8090	571281	0	0
2024-08-23 03:46:47			0	37343	0	0	0	28005	26610	158395	26920	1069221	46462	110397	0	0	8091	570923	0	0
2024-08-23 03:47:47			0	37341	0	0	0	28007	26610	158383	26944	1069274	46473	110398	0	0	8091	571003	0	0
2024-08-23 03:48:47			0	37344	0	0	0	28002	26610	158355	26798	1069140	46462	110396	0	0	8091	570883	0	0
2024-08-23 03:49:47			0	37344	0	0	0	28005	26610	158275	27034	1069221	46462	110397	0	0	8091	570883	0	0
2024-08-23 03:50:47			0	37331	0	0	0	27994	26600	158307	26706	1069149	46450	110393	0	0	8090	571433	0	0
2024-08-23 03:51:47			0	37342	0	0	0	27994	26600	158323	27152	1069149	46461	110393	0	0	8091	570996	0	0
2024-08-23 03:52:47			0	37334	0	0	0	27999	26610	158439	26927	1069185	46462	110395	0	0	8090	571281	0	0
2024-08-23 03:53:47			0	37338	0	0	0	27997	26610	158387	27145	1069185	46451	110394	0	0	8091	571122	0	0
2024-08-23 03:54:47			0	37321	0	0	0	27994	26600	158355	26871	1069095	46461	110393	0	0	8090	571831	0	0
2024-08-23 03:55:47			0	37301	0	0	0	27997	26600	158498	26713	1069068	46450	110394	0	0	8089	572628	0	0
2024-08-23 03:56:47			0	37281	0	0	0	27992	26590	158550	27144	1069104	46471	110392	0	0	8087	573458	0	0
2024-08-23 03:57:47			0	37280	0	0	0	28002	26600	158538	27059	1069149	46461	110396	0	0	8087	573465	0	0
2024-08-23 03:58:47			0	37285	0	0	0	28005	26600	158510	27123	1069149	46472	110397	0	0	8087	573266	0	0
2024-08-23 03:59:47			0	37293	0	0	0	27994	26600	158458	26837	1069140	46449	110393	0	0	8088	572947	0	0
2024-08-23 04:00:47			0	37274	0	0	0	27992	26590	158490	27062	1069104	46460	110392	0	0	8087	573737	0	0
2024-08-23 04:01:47			0	37277	0	0	0	27992	26590	158558	26942	1069104	46460	110392	0	0	8087	573618	0	0
2024-08-23 04:02:47			0	37301	0	0	0	27986	26600	158506	26906	1069086	46460	110390	0	0	8089	572628	0	0
2024-08-23 04:03:47			0	37294	0	0	0	27981	26590	158510	26814	1069077	46471	110388	0	0	8088	572940	0	0
2024-08-23 04:04:47			0	37277	0	0	0	27992	26600	158546	26951	1069113	46449	110392	0	0	8087	573585	0	0
2024-08-23 04:05:47			0	37290	0	0	0	27981	26580	158598	27123	1069005	46459	110388	0	0	8088	573132	0	0
2024-08-23 04:06:47			0	37286	0	0	0	27984	26590	158642	27241	1069095	46471	110389	0	0	8088	573259	0	0
2024-08-23 04:07:47			0	37315	0	0	0	27981	26590	158499	26805	1069104	46460	110388	0	0	8090	572103	0	0
2024-08-23 04:08:47			0	37322	0	0	0	27981	26590	158402	27055	1069122	46438	110388	0	0	8090	571824	0	0
2024-08-23 04:09:47			0	37338	0	0	0	27981	26590	158427	26682	1069050	46460	110388	0	0	8091	571187	0	0
2024-08-23 04:10:47			0	37327	0	0	0	27976	26580	158391	26675	1069059	46470	110386	0	0	8090	571658	0	0
2024-08-23 04:11:47			0	37348	0	0	0	27986	26580	158407	26639	1068979	46448	110390	0	0	8091	570822	0	0
2024-08-23 04:12:47			0	37332	0	0	0	27984	26590	158371	26949	1069041	46460	110389	0	0	8091	571426	0	0
2024-08-23 04:13:47			0	37336	0	0	0	27979	26580	158403	27083	1069005	46470	110387	0	0	8091	571300	0	0
2024-08-23 04:14:47			0	37344	0	0	0	27979	26580	158319	26830	1069059	46448	110387	0	0	8091	570981	0	0
2024-08-23 04:15:47			0	37355	0	0	0	27979	26580	158303	27098	1068970	46458	110387	0	0	8092	570544	0	0
2024-08-23 04:16:47			0	37340	0	0	0	27968	26580	158347	26870	1069050	46447	110383	0	0	8091	571140	0	0
2024-08-23 04:17:47			0	37351	0	0	0	27966	26570	158259	27088	1068961	46469	110382	0	0	8092	570735	0	0
2024-08-23 04:18:47			0	37360	0	0	0	27968	26580	158295	26828	1068970	46458	110383	0	0	8092	570345	0	0
2024-08-23 04:19:47			0	37376	0	0	0	27974	26580	158191	26845	1068943	46458	110385	0	0	8093	569709	0	0
2024-08-23 04:20:47			0	37397	0	0	0	27971	26580	158103	26769	1068943	46469	110384	0	0	8094	568876	0	0
2024-08-23 04:21:47			0	37395	0	0	0	27966	26570	158135	26859	1068978	46458	110382	0	0	8094	568988	0	0
2024-08-23 04:22:47			0	37382	0	0	0	27963	26570	158191	26753	1069032	46458	110381	0	0	8094	569504	0	0
2024-08-23 04:23:47			0	37389	0	0	0	27966	26580	158147	26925	1068979	46448	110382	0	0	8094	569193	0	0
2024-08-23 04:24:47			0	37392	0	0	0	27974	26570	158163	26543	1068978	46458	110385	0	0	8094	569107	0	0
2024-08-23 04:25:47			0	37384	0	0	0	27976	26570	158199	27029	1068898	46458	110386	0	0	8094	569424	0	0
2024-08-23 04:26:47			0	37385	0	0	0	27968	26570	158123	26935	1068987	46469	110383	0	0	8094	569385	0	0
2024-08-23 04:27:47			0	37397	0	0	0	27968	26570	158143	26970	1069032	46447	110383	0	0	8094	568908	0	0
2024-08-23 04:28:47			0	37439	0	0	0	27961	26560	158091	26932	1068943	46446	110380	0	0	8097	567276	0	0
2024-08-23 04:29:47			0	37419	0	0	0	27963	26560	157927	26894	1068916	46458	110381	0	0	8096	568068	0	0
2024-08-23 04:30:47			0	37427	0	0	0	27961	26560	158099	26911	1068960	46457	110380	0	0	8096	567751	0	0
2024-08-23 04:31:47			0	37423	0	0	0	27958	26560	158091	27007	1068916	46446	110379	0	0	8096	567910	0	0
2024-08-23 04:32:47			0	37394	0	0	0	27955	26560	158111	27020	1068907	46457	110378	0	0	8094	569060	0	0
2024-08-23 04:33:47			0	37421	0	0	0	27958	26560	158171	27085	1068907	46445	110379	0	0	8096	567989	0	0
2024-08-23 04:34:47			0	37398	0	0	0	27950	26560	158295	27213	1068880	46467	110376	0	0	8095	568901	0	0
2024-08-23 04:35:47			0	37389	0	0	0	27955	26550	158131	27048	1068942	46456	110378	0	0	8094	569291	0	0
2024-08-23 04:36:47			0	37403	0	0	0	27953	26550	158055	27275	1068942	46444	110377	0	0	8095	568735	0	0
2024-08-23 04:37:47			0	37410	0	0	0	27948	26560	158087	26739	1068934	46457	110375	0	0	8096	568425	0	0
2024-08-23 04:38:47			0	37390	0	0	0	27958	26550	158255	27066	1068898	46457	110379	0	0	8094	569251	0	0
2024-08-23 04:39:47			0	37394	0	0	0	27950	26550	158199	27429	1068862	46466	110376	0	0	8095	569092	0	0
2024-08-23 04:40:47			0	37397	0	0	0	27950	26550	158167	26984	1068871	46445	110376	0	0	8095	568973	0	0
2024-08-23 04:41:47			0	37406	0	0	0	27953	26550	158155	26739	1068871	46445	110377	0	0	8095	568616	0	0
2024-08-23 04:42:47			0	37406	0	0	0	27942	26550	158135	26974	1068925	46457	110373	0	0	8095	568616	0	0
2024-08-23 04:43:47			0	37388	0	0	0	27950	26540	158251	26979	1068853	46456	110376	0	0	8094	569363	0	0
2024-08-23 04:44:47			0	37387	0	0	0	27945	26550	158239	27059	1068925	46457	110374	0	0	8094	569370	0	0
2024-08-23 04:45:47			0	37354	0	0	0	27948	26550	158215	26831	1068871	46457	110375	0	0	8092	570681	0	0
2024-08-23 04:46:47			0	37347	0	0	0	27948	26540	158283	27116	1068880	46444	110375	0	0	8092	570993	0	0
2024-08-23 04:47:47			0	37355	0	0	0	27945	26540	158467	27161	1068853	46456	110374	0	0	8092	570674	0	0
2024-08-23 04:48:47			0	37332	0	0	0	27945	26550	158475	27062	1068835	46433	110374	0	0	8091	571557	0	0
2024-08-23 04:49:47			0	37326	0	0	0	27950	26550	158407	27013	1068808	46456	110376	0	0	8091	571796	0	0
2024-08-23 04:50:47			0	37318	0	0	0	27948	26550	158563	27256	1068862	46456	110375	0	0	8090	572114	0	0
2024-08-23 04:51:47			0	37298	0	0	0	27945	26540	158530	26989	1068817	46455	110374	0	0	8089	572944	0	0
2024-08-23 04:52:47			0	37305	0	0	0	27942	26540	158598	27072	1068853	46466	110373	0	0	8089	572665	0	0
2024-08-23 04:53:47			0	37293	0	0	0	27948	26550	158646	26968	1068862	46444	110375	0	0	8089	573111	0	0
2024-08-23 04:54:47			0	37260	0	0	0	27932	26550	158662	27078	1068835	46433	110369	0	0	8087	574428	0	0
2024-08-23 04:55:47			0	37283	0	0	0	27942	26540	158662	27144	1068880	46444	110373	0	0	8088	573542	0	0
2024-08-23 04:56:47			0	37265	0	0	0	27948	26540	158686	26863	1068826	46456	110375	0	0	8087	574261	0	0
2024-08-23 04:57:47			0	37291	0	0	0	27942	26540	158626	26901	1068853	46444	110373	0	0	8089	573223	0	0
2024-08-23 04:58:47			0	37287	0	0	0	27948	26540	158546	27133	1068870	46443	110375	0	0	8088	573383	0	0
2024-08-23 04:59:47			0	37285	0	0	0	27940	26550	158630	27241	1068835	46456	110372	0	0	8088	573430	0	0
2024-08-23 05:00:47			0	37278	0	0	0	27940	26540	158614	27031	1068897	46465	110372	0	0	8088	573742	0	0
2024-08-23 05:01:47			0	37290	0	0	0	27942	26550	158606	26890	1068862	46456	110373	0	0	8089	573230	0	0
2024-08-23 05:02:47			0	37287	0	0	0	27935	26540	158502	27144	1068763	46465	110370	0	0	8088	573383	0	0
2024-08-23 05:03:47			0	37277	0	0	0	27940	26540	158574	26757	1068853	46456	110372	0	0	8088	573782	0	0
2024-08-23 05:04:47			0	37264	0	0	0	27932	26530	158698	27090	1068781	46454	110369	0	0	8087	574334	0	0
2024-08-23 05:05:47			0	37272	0	0	0	27932	26540	158714	27024	1068907	46466	110369	0	0	8088	573981	0	0
2024-08-23 05:06:47			0	37280	0	0	0	27942	26550	158626	26845	1068862	46466	110373	0	0	8088	573629	0	0
2024-08-23 05:07:47			0	37295	0	0	0	27945	26550	158582	26961	1068916	46477	110374	0	0	8089	573031	0	0
2024-08-23 05:08:47			0	37296	0	0	0	27950	26540	158534	26911	1068870	46455	110376	0	0	8089	573024	0	0
2024-08-23 05:09:47			0	37293	0	0	0	27955	26550	158674	26873	1068862	46444	110378	0	0	8089	573111	0	0
2024-08-23 05:10:47			0	37261	0	0	0	27955	26550	158670	26738	1068862	46444	110378	0	0	8087	574388	0	0
2024-08-23 05:11:47			0	37270	0	0	0	27963	26540	158658	27114	1068853	46466	110381	0	0	8087	574061	0	0
2024-08-23 05:12:47			0	37268	0	0	0	27963	26550	158530	26835	1068862	46466	110381	0	0	8087	574108	0	0
2024-08-23 05:13:47			0	37304	0	0	0	27958	26540	158542	26975	1068870	46465	110379	0	0	8089	572705	0	0
2024-08-23 05:14:47			0	37307	0	0	0	27958	26540	158454	27086	1068880	46477	110379	0	0	8089	572585	0	0
2024-08-23 05:15:47			0	37307	0	0	0	27966	26550	158510	26913	1068916	46456	110382	0	0	8089	572553	0	0
2024-08-23 05:16:47			0	37294	0	0	0	27955	26560	158582	27046	1068880	46467	110378	0	0	8089	573038	0	0
2024-08-23 05:17:47			0	37268	0	0	0	27961	26550	158606	27079	1068898	46467	110380	0	0	8087	574108	0	0
2024-08-23 05:18:47			0	37268	0	0	0	27958	26550	158694	27067	1068898	46478	110379	0	0	8087	574108	0	0
2024-08-23 05:19:47			0	37259	0	0	0	27961	26560	158758	27095	1068943	46458	110380	0	0	8086	574435	0	0
2024-08-23 05:20:47			0	37226	0	0	0	27958	26560	158910	27066	1068934	46467	110379	0	0	8085	575754	0	0
2024-08-23 05:21:47			0	37198	0	0	0	27963	26550	158986	27111	1068951	46457	110381	0	0	8083	576907	0	0
2024-08-23 05:22:47			0	37128	0	0	0	27955	26550	159202	27105	1068942	46456	110378	0	0	8079	579715	0	0
2024-08-23 05:23:47			0	37084	0	0	0	27963	26550	159234	27093	1068925	46467	110381	0	0	8076	581485	0	0
2024-08-23 05:24:47			0	37064	0	0	0	27976	26560	159366	26984	1068934	46467	110386	0	0	8075	582258	0	0
2024-08-23 05:25:47			0	37066	0	0	0	27976	26550	159670	26882	1068951	46467	110386	0	0	8075	582210	0	0
2024-08-23 05:26:47			0	37003	0	0	0	27974	26560	159694	27001	1068934	46445	110385	0	0	8071	584719	0	0
2024-08-23 05:27:47			0	36976	0	0	0	27968	26560	159962	26986	1068934	46457	110383	0	0	8070	585811	0	0
2024-08-23 05:28:47			0	36976	0	0	0	27971	26560	159958	26991	1068943	46468	110384	0	0	8070	585811	0	0
2024-08-23 05:29:47			0	36950	0	0	0	27958	26550	159970	27109	1068951	46457	110379	0	0	8068	586897	0	0
2024-08-23 05:30:47			0	36942	0	0	0	27963	26560	159986	27157	1068960	46457	110381	0	0	8068	587188	0	0
2024-08-23 05:31:47			0	36959	0	0	0	27966	26560	159898	27216	1068934	46467	110382	0	0	8069	586499	0	0
2024-08-23 05:32:47			0	36963	0	0	0	27974	26560	159854	26778	1068960	46445	110385	0	0	8069	586337	0	0
2024-08-23 05:33:47			0	36966	0	0	0	27986	26550	159906	26752	1069005	46467	110390	0	0	8069	586249	0	0
2024-08-23 05:34:47			0	36937	0	0	0	27989	26560	160038	27053	1068996	46446	110391	0	0	8067	587390	0	0
2024-08-23 05:35:47			0	36892	0	0	0	27992	26570	160170	27076	1068925	46469	110392	0	0	8064	589183	0	0
2024-08-23 05:36:47			0	36900	0	0	0	27989	26570	160198	26961	1069005	46458	110391	0	0	8065	588858	0	0
2024-08-23 05:37:47			0	36909	0	0	0	27989	26570	160122	27033	1069032	46458	110391	0	0	8065	588492	0	0
2024-08-23 05:38:47			0	36913	0	0	0	27986	26570	160130	26817	1069005	46469	110390	0	0	8066	588330	0	0
2024-08-23 05:39:47			0	36920	0	0	0	27992	26570	160062	26896	1069014	46458	110392	0	0	8066	588046	0	0
2024-08-23 05:40:47			0	36927	0	0	0	27976	26570	160062	26998	1069032	46469	110386	0	0	8067	587762	0	0
2024-08-23 05:41:47			0	36948	0	0	0	27976	26570	160062	27097	1069068	46458	110386	0	0	8068	586911	0	0
2024-08-23 05:42:47			0	36950	0	0	0	27974	26570	159978	26863	1068987	46447	110385	0	0	8068	586830	0	0
2024-08-23 05:43:47			0	36940	0	0	0	27979	26570	159986	26923	1069041	46458	110387	0	0	8067	587235	0	0
2024-08-23 05:44:47			0	36950	0	0	0	27974	26570	159986	27027	1069014	46447	110385	0	0	8068	586830	0	0
2024-08-23 05:45:47			0	36923	0	0	0	27968	26570	160146	26975	1068925	46458	110383	0	0	8067	587924	0	0
2024-08-23 05:46:47			0	36912	0	0	0	27963	26570	160098	26811	1068952	46458	110381	0	0	8066	588371	0	0
2024-08-23 05:47:47			0	36906	0	0	0	27958	26570	160242	26682	1068987	46458	110379	0	0	8066	588614	0	0
2024-08-23 05:48:47			0	36903	0	0	0	27961	26570	160174	27038	1068978	46447	110380	0	0	8066	588736	0	0
2024-08-23 05:49:47			0	36899	0	0	0	27961	26570	160174	26817	1069032	46458	110380	0	0	8065	588898	0	0
2024-08-23 05:50:47			0	36881	0	0	0	27955	26560	160190	26909	1068969	46468	110378	0	0	8064	589663	0	0
2024-08-23 05:51:47			0	36860	0	0	0	27958	26560	160230	27211	1068969	46458	110379	0	0	8063	590517	0	0
2024-08-23 05:52:47			0	36846	0	0	0	27958	26560	160346	27235	1068969	46458	110379	0	0	8062	591087	0	0
2024-08-23 05:53:47			0	36845	0	0	0	27966	26560	160322	26798	1068943	46446	110382	0	0	8062	591127	0	0
2024-08-23 05:54:47			0	36831	0	0	0	27966	26560	160490	26667	1068943	46458	110382	0	0	8061	591698	0	0
2024-08-23 05:55:47			0	36823	0	0	0	27968	26560	160518	26828	1069041	46457	110383	0	0	8061	592023	0	0
2024-08-23 05:56:47			0	36811	0	0	0	27963	26560	160562	27287	1068907	46457	110381	0	0	8060	592513	0	0
2024-08-23 05:57:47			0	36800	0	0	0	27961	26560	160538	26661	1068934	46445	110380	0	0	8059	592961	0	0
2024-08-23 05:58:47			0	36810	0	0	0	27968	26560	160594	26946	1068969	46458	110383	0	0	8060	592553	0	0
2024-08-23 05:59:47			0	36820	0	0	0	27961	26560	160546	26927	1069014	46445	110380	0	0	8061	592146	0	0
2024-08-23 06:00:47			0	36839	0	0	0	27955	26560	160470	26608	1068960	46445	110378	0	0	8062	591372	0	0
2024-08-23 06:01:47			0	36846	0	0	0	27961	26560	160462	26994	1068934	46478	110380	0	0	8062	591087	0	0
2024-08-23 06:02:47			0	36827	0	0	0	27961	26560	160482	27076	1069023	46446	110380	0	0	8061	591861	0	0
2024-08-23 06:03:47			0	36829	0	0	0	27958	26570	160454	27055	1068925	46458	110379	0	0	8061	591745	0	0
2024-08-23 06:04:47			0	36836	0	0	0	27953	26560	160474	27168	1068934	46467	110377	0	0	8062	591494	0	0
2024-08-23 06:05:47			0	36827	0	0	0	27953	26550	160338	27244	1068871	46457	110377	0	0	8061	591894	0	0
2024-08-23 06:06:47			0	36852	0	0	0	27948	26550	160246	27038	1068951	46457	110375	0	0	8063	590876	0	0
2024-08-23 06:07:47			0	36849	0	0	0	27955	26540	160382	26857	1068933	46444	110378	0	0	8062	591032	0	0
2024-08-23 06:08:47			0	36852	0	0	0	27950	26550	160378	27126	1068916	46456	110376	0	0	8063	590876	0	0
2024-08-23 06:09:47			0	36858	0	0	0	27950	26550	160418	27026	1068898	46457	110376	0	0	8063	590632	0	0
2024-08-23 06:10:47			0	36831	0	0	0	27953	26550	160522	27215	1068889	46456	110377	0	0	8061	591731	0	0
2024-08-23 06:11:47			0	36828	0	0	0	27955	26550	160526	27185	1068889	46466	110378	0	0	8061	591854	0	0
2024-08-23 06:12:47			0	36824	0	0	0	27940	26550	160390	27000	1068898	46457	110372	0	0	8061	592017	0	0
2024-08-23 06:13:47			0	36845	0	0	0	27940	26550	160474	26752	1068889	46456	110372	0	0	8062	591161	0	0
2024-08-23 06:14:47			0	36828	0	0	0	27950	26550	160550	27393	1068898	46467	110376	0	0	8061	591854	0	0
2024-08-23 06:15:47			0	36820	0	0	0	27955	26550	160526	26918	1068942	46466	110378	0	0	8061	592180	0	0
2024-08-23 06:16:47			0	36803	0	0	0	27953	26550	160622	27331	1068898	46467	110377	0	0	8060	592873	0	0
2024-08-23 06:17:47			0	36799	0	0	0	27958	26560	160482	27145	1068934	46457	110379	0	0	8059	593002	0	0
2024-08-23 06:18:47			0	36804	0	0	0	27953	26550	160606	27178	1068898	46457	110377	0	0	8060	592832	0	0
2024-08-23 06:19:47			0	36797	0	0	0	27955	26550	160594	26942	1068889	46444	110378	0	0	8059	593118	0	0
2024-08-23 06:20:47			0	36770	0	0	0	27950	26560	160570	26987	1068907	46467	110376	0	0	8058	594186	0	0
2024-08-23 06:21:47			0	36788	0	0	0	27953	26550	160650	26960	1068942	46466	110377	0	0	8059	593485	0	0
2024-08-23 06:22:47			0	36786	0	0	0	27955	26550	160654	27024	1068951	46467	110378	0	0	8059	593567	0	0
2024-08-23 06:23:47			0	36787	0	0	0	27950	26550	160646	26856	1068942	46466	110376	0	0	8059	593526	0	0
2024-08-23 06:24:47			0	36793	0	0	0	27955	26540	160694	26863	1068853	46456	110378	0	0	8059	593315	0	0
2024-08-23 06:25:47			0	36789	0	0	0	27950	26550	160562	26878	1068889	46456	110376	0	0	8059	593444	0	0
2024-08-23 06:26:47			0	36779	0	0	0	27950	26550	160614	26977	1068871	46445	110376	0	0	8058	593852	0	0
2024-08-23 06:27:47			0	36778	0	0	0	27948	26540	160710	27046	1068870	46465	110375	0	0	8058	593927	0	0
2024-08-23 06:28:47			0	36759	0	0	0	27948	26540	160746	26859	1068853	46466	110375	0	0	8057	594704	0	0
2024-08-23 06:29:47			0	36756	0	0	0	27945	26540	160858	26956	1068907	46456	110374	0	0	8057	594826	0	0
2024-08-23 06:30:47			0	36754	0	0	0	27950	26550	160826	27008	1068889	46444	110376	0	0	8057	594874	0	0
2024-08-23 06:31:47			0	36729	0	0	0	27950	26540	160890	26942	1068880	46456	110376	0	0	8055	595931	0	0
2024-08-23 06:32:47			0	36707	0	0	0	27945	26550	160970	27081	1068916	46456	110374	0	0	8054	596798	0	0
2024-08-23 06:33:47			0	36705	0	0	0	27950	26550	161006	27020	1068916	46456	110376	0	0	8054	596880	0	0
2024-08-23 06:34:47			0	36683	0	0	0	27955	26550	161070	26894	1068916	46466	110378	0	0	8053	597782	0	0
2024-08-23 06:35:47			0	36695	0	0	0	27953	26550	161142	26698	1068978	46457	110377	0	0	8053	597289	0	0
2024-08-23 06:36:47			0	36675	0	0	0	27961	26560	161226	27090	1068960	46434	110380	0	0	8052	598076	0	0
2024-08-23 06:37:47			0	36676	0	0	0	27958	26550	161142	27055	1068925	46467	110379	0	0	8052	598069	0	0
2024-08-23 06:38:47			0	36671	0	0	0	27971	26560	161106	26682	1068960	46457	110384	0	0	8052	598240	0	0
2024-08-23 06:39:47			0	36717	0	0	0	27961	26570	161102	27024	1068925	46469	110380	0	0	8055	596320	0	0
2024-08-23 06:40:47			0	36709	0	0	0	27958	26560	160990	27026	1068907	46445	110379	0	0	8054	596681	0	0
2024-08-23 06:41:47			0	36753	0	0	0	27961	26550	160970	26840	1068978	46445	110380	0	0	8057	594915	0	0
2024-08-23 06:42:47			0	36757	0	0	0	27966	26550	160850	26909	1068942	46456	110382	0	0	8057	594751	0	0
2024-08-23 06:43:47			0	36761	0	0	0	27961	26550	160874	26863	1068978	46467	110380	0	0	8057	594588	0	0
2024-08-23 06:44:47			0	36777	0	0	0	27961	26560	160810	27182	1068987	46467	110380	0	0	8058	593900	0	0
2024-08-23 06:45:47			0	36782	0	0	0	27966	26560	160674	27024	1068960	46478	110382	0	0	8058	593696	0	0
2024-08-23 06:46:47			0	36831	0	0	0	27958	26540	160498	26897	1068907	46444	110379	0	0	8061	591765	0	0
2024-08-23 06:47:47			0	36831	0	0	0	27948	26560	160494	26727	1068987	46457	110375	0	0	8061	591698	0	0
2024-08-23 06:48:47			0	36867	0	0	0	27948	26550	160526	26871	1068862	46466	110375	0	0	8064	590266	0	0
2024-08-23 06:49:47			0	36870	0	0	0	27945	26550	160358	27138	1068898	46457	110374	0	0	8064	590144	0	0
2024-08-23 06:50:47			0	36882	0	0	0	27953	26550	160318	27105	1068889	46456	110377	0	0	8064	589656	0	0
2024-08-23 06:51:47			0	36894	0	0	0	27948	26550	160182	26982	1068898	46457	110375	0	0	8065	589169	0	0
2024-08-23 06:52:47			0	36925	0	0	0	27955	26560	160078	27052	1068907	46445	110378	0	0	8067	587877	0	0
2024-08-23 06:53:47			0	36931	0	0	0	27953	26550	160134	26972	1068898	46478	110377	0	0	8067	587667	0	0
2024-08-23 06:54:47			0	36915	0	0	0	27953	26550	160190	27024	1068889	46456	110377	0	0	8066	588316	0	0
2024-08-23 06:55:47			0	36900	0	0	0	27953	26550	160350	27064	1068889	46456	110377	0	0	8065	588925	0	0
2024-08-23 06:56:47			0	36875	0	0	0	27948	26540	160258	26866	1068880	46489	110375	0	0	8064	589975	0	0
2024-08-23 06:57:47			0	36885	0	0	0	27948	26550	160274	27081	1069023	46456	110375	0	0	8065	589534	0	0
2024-08-23 06:58:47			0	36867	0	0	0	27953	26550	160358	26757	1068889	46456	110377	0	0	8063	590266	0	0
2024-08-23 06:59:47			0	36879	0	0	0	27955	26550	160426	27519	1068916	46466	110378	0	0	8064	589778	0	0
2024-08-23 07:00:47			0	36862	0	0	0	27950	26550	160406	27062	1069005	46457	110376	0	0	8063	590470	0	0
2024-08-23 07:01:47			0	36848	0	0	0	27953	26540	160454	26965	1068960	46456	110377	0	0	8062	591073	0	0
2024-08-23 07:02:47			0	36846	0	0	0	27945	26550	160446	27230	1068889	46444	110374	0	0	8062	591121	0	0
2024-08-23 07:03:47			0	36838	0	0	0	27953	26550	160522	27060	1068978	46457	110377	0	0	8062	591446	0	0
2024-08-23 07:04:47			0	36823	0	0	0	27950	26550	160490	27119	1068942	46477	110376	0	0	8061	592057	0	0
2024-08-23 07:05:47			0	36793	0	0	0	27950	26550	160670	27104	1068889	46456	110376	0	0	8059	593281	0	0
2024-08-23 07:06:47			0	36798	0	0	0	27955	26540	160730	27105	1068933	46456	110378	0	0	8059	593111	0	0
2024-08-23 07:07:47			0	36792	0	0	0	27955	26550	160658	27100	1068942	46444	110378	0	0	8059	593322	0	0
2024-08-23 07:08:47			0	36805	0	0	0	27953	26550	160690	27007	1068942	46456	110377	0	0	8060	592791	0	0
2024-08-23 07:09:47			0	36792	0	0	0	27955	26550	160722	27227	1068889	46466	110378	0	0	8059	593322	0	0
2024-08-23 07:10:47			0	36784	0	0	0	27953	26550	160730	27000	1068951	46467	110377	0	0	8059	593648	0	0
2024-08-23 07:11:47			0	36782	0	0	0	27955	26550	160774	27034	1068978	46457	110378	0	0	8058	593730	0	0
2024-08-23 07:12:47			0	36774	0	0	0	27958	26550	160702	26913	1068951	46457	110379	0	0	8058	594057	0	0
2024-08-23 07:13:47			0	36772	0	0	0	27963	26550	160742	27147	1068996	46456	110381	0	0	8058	594138	0	0
2024-08-23 07:14:47			0	36762	0	0	0	27958	26560	160694	26857	1068996	46458	110379	0	0	8057	594513	0	0
2024-08-23 07:15:47			0	36767	0	0	0	27966	26560	160842	27090	1068987	46457	110382	0	0	8057	594309	0	0
2024-08-23 07:16:47			0	36755	0	0	0	27968	26560	160730	27064	1068960	46467	110383	0	0	8057	594799	0	0
2024-08-23 07:17:47			0	36785	0	0	0	27963	26560	160674	27189	1068960	46457	110381	0	0	8059	593573	0	0
2024-08-23 07:18:47			0	36765	0	0	0	27955	26550	160726	26785	1068978	46467	110378	0	0	8057	594424	0	0
2024-08-23 07:19:47			0	36765	0	0	0	27958	26550	160714	26975	1068951	46467	110379	0	0	8057	594424	0	0
2024-08-23 07:20:47			0	36762	0	0	0	27958	26560	160802	27163	1068934	46467	110379	0	0	8057	594513	0	0
2024-08-23 07:21:47			0	36770	0	0	0	27953	26550	160726	26863	1068925	46445	110377	0	0	8058	594220	0	0
2024-08-23 07:22:47			0	36753	0	0	0	27955	26550	160790	26979	1068969	46456	110378	0	0	8057	594915	0	0
2024-08-23 07:23:47			0	36753	0	0	0	27955	26560	160774	27216	1068960	46457	110378	0	0	8057	594881	0	0
2024-08-23 07:24:47			0	36770	0	0	0	27948	26560	160754	27140	1068969	46468	110375	0	0	8058	594186	0	0
2024-08-23 07:25:47			0	36758	0	0	0	27958	26550	160750	27166	1068951	46445	110379	0	0	8057	594710	0	0
2024-08-23 07:26:47			0	36778	0	0	0	27953	26550	160770	26946	1068951	46457	110377	0	0	8058	593893	0	0
2024-08-23 07:27:47			0	36782	0	0	0	27945	26550	160710	27190	1068916	46444	110374	0	0	8059	593730	0	0
2024-08-23 07:28:47			0	36805	0	0	0	27961	26550	160702	26948	1068898	46445	110380	0	0	8060	592791	0	0
2024-08-23 07:29:47			0	36808	0	0	0	27953	26550	160646	27187	1068916	46456	110377	0	0	8060	592669	0	0
2024-08-23 07:30:47			0	36824	0	0	0	27961	26550	160534	27036	1068925	46467	110380	0	0	8061	592017	0	0
2024-08-23 07:31:47			0	36831	0	0	0	27950	26550	160558	27189	1068925	46445	110376	0	0	8061	591731	0	0
2024-08-23 07:32:47			0	36852	0	0	0	27948	26550	160466	26870	1068871	46457	110375	0	0	8063	590876	0	0
2024-08-23 07:33:47			0	36814	0	0	0	27948	26550	160466	27248	1068862	46456	110375	0	0	8060	592424	0	0
2024-08-23 07:34:47			0	36829	0	0	0	27948	26560	160418	26930	1068907	46457	110375	0	0	8061	591779	0	0
2024-08-23 07:35:47			0	36810	0	0	0	27950	26550	160526	26896	1068951	46434	110376	0	0	8060	592587	0	0
2024-08-23 07:36:47			0	36802	0	0	0	27948	26550	160562	27027	1068871	46457	110375	0	0	8060	592914	0	0
2024-08-23 07:37:47			0	36775	0	0	0	27940	26550	160634	26955	1068969	46456	110372	0	0	8058	594016	0	0
2024-08-23 07:38:47			0	36761	0	0	0	27950	26560	160650	27227	1068960	46478	110376	0	0	8057	594554	0	0
2024-08-23 07:39:47			0	36742	0	0	0	27953	26550	160858	26890	1068969	46477	110377	0	0	8056	595365	0	0
2024-08-23 07:40:47			0	36736	0	0	0	27961	26550	160906	27170	1069005	46445	110380	0	0	8056	595610	0	0
2024-08-23 07:41:47			0	36729	0	0	0	27961	26550	161022	27147	1069005	46457	110380	0	0	8055	595897	0	0
2024-08-23 07:42:47			0	36711	0	0	0	27963	26550	160962	27116	1068969	46456	110381	0	0	8054	596634	0	0
2024-08-23 07:43:47			0	36698	0	0	0	27971	26540	161010	27045	1068960	46477	110384	0	0	8053	597200	0	0
2024-08-23 07:44:47			0	36700	0	0	0	27976	26550	161110	27334	1069032	46478	110386	0	0	8053	597084	0	0
2024-08-23 07:45:47			0	36686	0	0	0	27979	26560	161070	26892	1069023	46468	110387	0	0	8052	597624	0	0
2024-08-23 07:46:47			0	36683	0	0	0	27976	26560	161162	27020	1069023	46468	110386	0	0	8052	597747	0	0
2024-08-23 07:47:47			0	36669	0	0	0	27976	26560	161214	27204	1069050	46468	110386	0	0	8051	598322	0	0
2024-08-23 07:48:47			0	36659	0	0	0	27968	26560	161130	26911	1068960	46467	110383	0	0	8051	598732	0	0
2024-08-23 07:49:47			0	36662	0	0	0	27974	26570	161142	27098	1069032	46469	110385	0	0	8051	598575	0	0
2024-08-23 07:50:47			0	36662	0	0	0	27968	26570	161234	26876	1068978	46458	110383	0	0	8051	598575	0	0
2024-08-23 07:51:47			0	36650	0	0	0	27966	26570	161166	27263	1069032	46458	110382	0	0	8050	599068	0	0
2024-08-23 07:52:47			0	36668	0	0	0	27966	26570	161162	27017	1069032	46447	110382	0	0	8052	598329	0	0
2024-08-23 07:53:47			0	36673	0	0	0	27976	26560	161058	27308	1068969	46479	110386	0	0	8052	598158	0	0
2024-08-23 07:54:47			0	36686	0	0	0	27976	26560	161098	27111	1069050	46458	110386	0	0	8052	597624	0	0
2024-08-23 07:55:47			0	36652	0	0	0	27974	26570	161210	26953	1069113	46458	110385	0	0	8050	598986	0	0
2024-08-23 07:56:47			0	36652	0	0	0	27976	26570	161222	27241	1069032	46447	110386	0	0	8050	598986	0	0
2024-08-23 07:57:47			0	36639	0	0	0	27986	26570	161202	27074	1069113	46469	110390	0	0	8049	599520	0	0
2024-08-23 07:58:47			0	36661	0	0	0	27986	26570	161178	26844	1069095	46469	110390	0	0	8051	598616	0	0
2024-08-23 07:59:47			0	36647	0	0	0	27989	26580	161198	27175	1069104	46480	110391	0	0	8050	599157	0	0
2024-08-23 08:00:47			0	36646	0	0	0	27989	26580	161202	26892	1069077	46447	110391	0	0	8050	599198	0	0
2024-08-23 08:01:47			0	36666	0	0	0	27999	26580	161186	26965	1069113	46459	110395	0	0	8051	598376	0	0
2024-08-23 08:02:47			0	36640	0	0	0	27992	26580	161250	27261	1069086	46470	110392	0	0	8050	599444	0	0
2024-08-23 08:03:47			0	36649	0	0	0	27992	26580	161174	27317	1069167	46459	110392	0	0	8050	599075	0	0
2024-08-23 08:04:47			0	36642	0	0	0	27994	26580	161214	27286	1069167	46459	110393	0	0	8050	599362	0	0
2024-08-23 08:05:47			0	36664	0	0	0	27994	26580	161138	27263	1069194	46448	110393	0	0	8051	598459	0	0
2024-08-23 08:06:47			0	36659	0	0	0	27999	26580	161134	27119	1069077	46469	110395	0	0	8051	598664	0	0
2024-08-23 08:07:47			0	36656	0	0	0	28007	26580	161198	27332	1069167	46459	110398	0	0	8050	598787	0	0
2024-08-23 08:08:47			0	36675	0	0	0	27999	26590	161166	27300	1069229	46471	110395	0	0	8052	597973	0	0
2024-08-23 08:09:47			0	36652	0	0	0	28007	26590	161138	27135	1069149	46471	110398	0	0	8050	598917	0	0
2024-08-23 08:10:47			0	36672	0	0	0	28010	26590	161110	27284	1069176	46449	110399	0	0	8051	598096	0	0
2024-08-23 08:11:47			0	36669	0	0	0	28007	26600	161094	27081	1069256	46472	110398	0	0	8051	598185	0	0
2024-08-23 08:12:47			0	36708	0	0	0	28010	26590	161146	27097	1069238	46471	110399	0	0	8053	596620	0	0
2024-08-23 08:13:47			0	36705	0	0	0	28012	26590	161114	27022	1069158	46449	110400	0	0	8053	596743	0	0
2024-08-23 08:14:47			0	36696	0	0	0	28015	26590	161010	27072	1069265	46460	110401	0	0	8052	597112	0	0
2024-08-23 08:15:47			0	36723	0	0	0	28015	26600	160882	27083	1069247	46460	110401	0	0	8054	595972	0	0
2024-08-23 08:16:47			0	36739	0	0	0	28012	26600	160890	27310	1069221	46471	110400	0	0	8055	595317	0	0
2024-08-23 08:17:47			0	36751	0	0	0	28018	26600	160898	27199	1069221	46460	110402	0	0	8056	594826	0	0
2024-08-23 08:18:47			0	36723	0	0	0	28015	26600	160846	27128	1069221	46471	110401	0	0	8054	595972	0	0
2024-08-23 08:19:47			0	36731	0	0	0	28023	26610	160846	27203	1069212	46462	110404	0	0	8055	595610	0	0
2024-08-23 08:20:47			0	36705	0	0	0	28023	26610	160814	27237	1069265	46473	110404	0	0	8053	596675	0	0
2024-08-23 08:21:47			0	36711	0	0	0	28033	26610	160862	27118	1069239	46462	110408	0	0	8053	596429	0	0
2024-08-23 08:22:47			0	36712	0	0	0	28031	26610	160978	27206	1069274	46473	110407	0	0	8053	596388	0	0
2024-08-23 08:23:47			0	36716	0	0	0	28023	26610	160926	27074	1069274	46462	110404	0	0	8054	596224	0	0
2024-08-23 08:24:47			0	36694	0	0	0	28033	26610	160958	27076	1069328	46451	110408	0	0	8052	597125	0	0
2024-08-23 08:25:47			0	36698	0	0	0	28038	26620	160982	26932	1069283	46473	110410	0	0	8052	596927	0	0
2024-08-23 08:26:47			0	36706	0	0	0	28033	26620	160998	27116	1069373	46463	110408	0	0	8053	596599	0	0
2024-08-23 08:27:47			0	36711	0	0	0	28033	26620	160998	26941	1069292	46474	110408	0	0	8053	596395	0	0
2024-08-23 08:28:47			0	36692	0	0	0	28031	26620	160954	27260	1069319	46463	110407	0	0	8052	597173	0	0
2024-08-23 08:29:47			0	36699	0	0	0	28036	26620	160966	27147	1069310	46473	110409	0	0	8052	596886	0	0
2024-08-23 08:30:47			0	36687	0	0	0	28033	26620	161006	27034	1069346	46474	110408	0	0	8052	597378	0	0
2024-08-23 08:31:47			0	36683	0	0	0	28031	26610	161034	27020	1069319	46473	110407	0	0	8052	597576	0	0
2024-08-23 08:32:47			0	36701	0	0	0	28033	26630	160958	27239	1069310	46465	110408	0	0	8053	596770	0	0
2024-08-23 08:33:47			0	36709	0	0	0	28031	26630	160990	26771	1069382	46475	110407	0	0	8053	596443	0	0
2024-08-23 08:34:47			0	36678	0	0	0	28038	26620	160982	27085	1069373	46463	110410	0	0	8051	597747	0	0
2024-08-23 08:35:47			0	36707	0	0	0	28033	26620	160886	26956	1069364	46484	110408	0	0	8053	596559	0	0
2024-08-23 08:36:47			0	36682	0	0	0	28038	26620	160998	27008	1069283	46473	110410	0	0	8051	597583	0	0
2024-08-23 08:37:47			0	36708	0	0	0	28041	26620	160978	27090	1069418	46473	110411	0	0	8053	596518	0	0
2024-08-23 08:38:47			0	36695	0	0	0	28046	26630	161030	26981	1069463	46475	110413	0	0	8052	597016	0	0
2024-08-23 08:39:47			0	36704	0	0	0	28054	26620	160922	27081	1069427	46474	110416	0	0	8052	596682	0	0
2024-08-23 08:40:47			0	36712	0	0	0	28062	26630	160886	27312	1069463	46475	110419	0	0	8053	596320	0	0
2024-08-23 08:41:47			0	36704	0	0	0	28057	26630	161026	26882	1069463	46464	110417	0	0	8052	596647	0	0
2024-08-23 08:42:47			0	36716	0	0	0	28059	26640	160942	27105	1069490	46476	110418	0	0	8053	596122	0	0
2024-08-23 08:43:47			0	36711	0	0	0	28054	26640	160878	26847	1069481	46465	110416	0	0	8053	596327	0	0
2024-08-23 08:44:47			0	36723	0	0	0	28062	26640	160886	26856	1069490	46465	110419	0	0	8054	595835	0	0
2024-08-23 08:45:47			0	36722	0	0	0	28072	26640	160882	27045	1069436	46454	110423	0	0	8053	595876	0	0
2024-08-23 08:46:47			0	36725	0	0	0	28064	26640	160806	27003	1069490	46465	110420	0	0	8054	595753	0	0
2024-08-23 08:47:47			0	36729	0	0	0	28075	26640	160762	27237	1069490	46465	110424	0	0	8054	595590	0	0
2024-08-23 08:48:47			0	36725	0	0	0	28070	26650	160726	26927	1069472	46477	110422	0	0	8054	595719	0	0
2024-08-23 08:49:47			0	36740	0	0	0	28062	26650	160826	27291	1069526	46455	110419	0	0	8055	595106	0	0
2024-08-23 08:50:47			0	36736	0	0	0	28064	26660	160890	26908	1069490	46478	110420	0	0	8054	595235	0	0
2024-08-23 08:51:47			0	36741	0	0	0	28067	26660	160850	26935	1069490	46467	110421	0	0	8055	595031	0	0
2024-08-23 08:52:47			0	36750	0	0	0	28059	26660	160854	27034	1069508	46456	110418	0	0	8055	594663	0	0
2024-08-23 08:53:47			0	36753	0	0	0	28070	26650	160810	27097	1069499	46466	110422	0	0	8055	594575	0	0
2024-08-23 08:54:47			0	36742	0	0	0	28062	26660	160846	27022	1069561	46478	110419	0	0	8055	594990	0	0
2024-08-23 08:55:47			0	36759	0	0	0	28062	26660	160806	27083	1069561	46478	110419	0	0	8056	594295	0	0
2024-08-23 08:56:47			0	36757	0	0	0	28075	26670	160710	27281	1069526	46478	110424	0	0	8055	594343	0	0
2024-08-23 08:57:47			0	36753	0	0	0	28080	26670	160786	26955	1069616	46468	110426	0	0	8055	594506	0	0
2024-08-23 08:58:47			0	36753	0	0	0	28070	26660	160630	27277	1069570	46456	110422	0	0	8055	594541	0	0
2024-08-23 08:59:47			0	36766	0	0	0	28064	26670	160658	27164	1069589	46468	110420	0	0	8056	593976	0	0
2024-08-23 09:00:47			0	36782	0	0	0	28072	26680	160710	27076	1069598	46480	110423	0	0	8057	593288	0	0
2024-08-23 09:01:47			0	36770	0	0	0	28072	26670	160650	26873	1069535	46468	110423	0	0	8056	593812	0	0
2024-08-23 09:02:47			0	36789	0	0	0	28072	26670	160686	27069	1069580	46467	110423	0	0	8057	593037	0	0
2024-08-23 09:03:47			0	36787	0	0	0	28080	26670	160538	27242	1069526	46467	110426	0	0	8057	593118	0	0
2024-08-23 09:04:47			0	36796	0	0	0	28080	26660	160502	26987	1069463	46467	110426	0	0	8058	592785	0	0
2024-08-23 09:05:47			0	36819	0	0	0	28080	26670	160482	26767	1069535	46479	110426	0	0	8059	591814	0	0
2024-08-23 09:06:47			0	36825	0	0	0	28085	26660	160534	26927	1069544	46478	110428	0	0	8059	591603	0	0
2024-08-23 09:07:47			0	36823	0	0	0	28077	26660	160414	27154	1069597	46467	110425	0	0	8059	591685	0	0
2024-08-23 09:08:47			0	36818	0	0	0	28090	26670	160494	27105	1069562	46468	110430	0	0	8059	591855	0	0
2024-08-23 09:09:47			0	36804	0	0	0	28096	26680	160502	26753	1069607	46469	110432	0	0	8058	592391	0	0
2024-08-23 09:10:47			0	36829	0	0	0	28093	26690	160490	27232	1069616	46458	110431	0	0	8060	591339	0	0
2024-08-23 09:11:47			0	36833	0	0	0	28088	26680	160382	26944	1069625	46469	110429	0	0	8060	591210	0	0
2024-08-23 09:12:47			0	36832	0	0	0	28088	26680	160490	27225	1069661	46469	110429	0	0	8060	591251	0	0
2024-08-23 09:13:47			0	36846	0	0	0	28098	26680	160382	27274	1069661	46469	110433	0	0	8060	590681	0	0
2024-08-23 09:14:47			0	36847	0	0	0	28093	26690	160358	27059	1069643	46469	110431	0	0	8061	590606	0	0
2024-08-23 09:15:47			0	36847	0	0	0	28098	26680	160362	26979	1069661	46469	110433	0	0	8060	590640	0	0
2024-08-23 09:16:47			0	36861	0	0	0	28103	26690	160310	27000	1069679	46470	110435	0	0	8061	590037	0	0
2024-08-23 09:17:47			0	36883	0	0	0	28098	26690	160110	27128	1069670	46480	110433	0	0	8063	589143	0	0
2024-08-23 09:18:47			0	36901	0	0	0	28103	26680	160218	27166	1069652	46458	110435	0	0	8064	588446	0	0
2024-08-23 09:19:47			0	36906	0	0	0	28098	26690	160186	27242	1069652	46481	110433	0	0	8064	588210	0	0
2024-08-23 09:20:47			0	36896	0	0	0	28096	26680	160150	27088	1069661	46491	110432	0	0	8063	588649	0	0
2024-08-23 09:21:47			0	36913	0	0	0	28088	26690	160086	26977	1069670	46480	110429	0	0	8065	587926	0	0
2024-08-23 09:22:47			0	36929	0	0	0	28093	26700	160074	27092	1069661	46471	110431	0	0	8066	587244	0	0
2024-08-23 09:23:47			0	36930	0	0	0	28096	26690	160042	27220	1069625	46481	110432	0	0	8065	587237	0	0
2024-08-23 09:24:47			0	36957	0	0	0	28088	26690	159998	27206	1069679	46470	110429	0	0	8067	586144	0	0
2024-08-23 09:25:47			0	36959	0	0	0	28101	26680	160030	26779	1069714	46491	110434	0	0	8067	586096	0	0
2024-08-23 09:26:47			0	36956	0	0	0	28096	26690	159974	27185	1069732	46458	110432	0	0	8067	586184	0	0
2024-08-23 09:27:47			0	36971	0	0	0	28096	26690	159910	26930	1069679	46458	110432	0	0	8068	585577	0	0
2024-08-23 09:28:47			0	36997	0	0	0	28106	26690	159822	27376	1069732	46458	110436	0	0	8069	584526	0	0
2024-08-23 09:29:47			0	36997	0	0	0	28109	26700	159706	26935	1069822	46482	110437	0	0	8069	584493	0	0
2024-08-23 09:30:47			0	36987	0	0	0	28119	26700	159838	27104	1069714	46471	110441	0	0	8068	584897	0	0
2024-08-23 09:31:47			0	36987	0	0	0	28111	26700	159754	27364	1069741	46482	110438	0	0	8069	584897	0	0
2024-08-23 09:32:47			0	36977	0	0	0	28119	26690	159734	27227	1069679	46470	110441	0	0	8068	585335	0	0
2024-08-23 09:33:47			0	36970	0	0	0	28127	26700	159866	27098	1069777	46460	110444	0	0	8067	585584	0	0
2024-08-23 09:34:47			0	36983	0	0	0	28119	26710	159738	27005	1069759	46460	110441	0	0	8068	585025	0	0
2024-08-23 09:35:47			0	36986	0	0	0	28124	26700	159802	27053	1069723	46483	110443	0	0	8068	584937	0	0
2024-08-23 09:36:47			0	36978	0	0	0	28124	26710	159690	26956	1069741	46483	110443	0	0	8068	585227	0	0
2024-08-23 09:37:47			0	36984	0	0	0	28127	26710	159634	26793	1069849	46483	110444	0	0	8068	584985	0	0
2024-08-23 09:38:47			0	36996	0	0	0	28116	26710	159738	27357	1069768	46460	110440	0	0	8069	584500	0	0
2024-08-23 09:39:47			0	36978	0	0	0	28116	26710	159886	27286	1069813	46483	110440	0	0	8068	585227	0	0
2024-08-23 09:40:47			0	36972	0	0	0	28122	26720	159782	27315	1069840	46474	110442	0	0	8068	585436	0	0
2024-08-23 09:41:47			0	36973	0	0	0	28132	26710	159790	27189	1069795	46472	110446	0	0	8067	585429	0	0
2024-08-23 09:42:47			0	36976	0	0	0	28129	26710	159806	26953	1069822	46483	110445	0	0	8068	585308	0	0
2024-08-23 09:43:47			0	36973	0	0	0	28129	26720	159874	27222	1069831	46484	110445	0	0	8068	585396	0	0
2024-08-23 09:44:47			0	36983	0	0	0	28129	26710	159822	27190	1069822	46472	110445	0	0	8068	585025	0	0
2024-08-23 09:45:47			0	36982	0	0	0	28129	26730	159746	27253	1069822	46474	110445	0	0	8068	584999	0	0
2024-08-23 09:46:47			0	36972	0	0	0	28127	26720	159810	27177	1069786	46462	110444	0	0	8068	585436	0	0
2024-08-23 09:47:47			0	36998	0	0	0	28140	26720	159706	27124	1069858	46473	110449	0	0	8069	584386	0	0
2024-08-23 09:48:47			0	37008	0	0	0	28127	26720	159686	27128	1069858	46461	110444	0	0	8070	583982	0	0
2024-08-23 09:49:47			0	37014	0	0	0	28132	26730	159666	27020	1069876	46496	110446	0	0	8070	583706	0	0
2024-08-23 09:50:47			0	37019	0	0	0	28142	26720	159602	27045	1069921	46485	110450	0	0	8070	583538	0	0
2024-08-23 09:51:47			0	37032	0	0	0	28140	26730	159438	26953	1069939	46485	110449	0	0	8071	582980	0	0
2024-08-23 09:52:47			0	37047	0	0	0	28137	26740	159486	27376	1069894	46475	110448	0	0	8072	582342	0	0
2024-08-23 09:53:47			0	37059	0	0	0	28140	26740	159370	27376	1069975	46486	110449	0	0	8073	581859	0	0
2024-08-23 09:54:47			0	37069	0	0	0	28140	26740	159366	27168	1069957	46487	110449	0	0	8073	581457	0	0
2024-08-23 09:55:47			0	37102	0	0	0	28145	26740	159266	27097	1069948	46497	110451	0	0	8075	580129	0	0
2024-08-23 09:56:47			0	37112	0	0	0	28153	26740	159178	27305	1069921	46486	110454	0	0	8075	579728	0	0
2024-08-23 09:57:47			0	37116	0	0	0	28166	26730	159138	27043	1069966	46485	110459	0	0	8075	579600	0	0
2024-08-23 09:58:47			0	37113	0	0	0	28158	26740	159162	27263	1069984	46487	110456	0	0	8075	579688	0	0
2024-08-23 09:59:47			0	37128	0	0	0	28163	26750	159074	27175	1070020	46487	110458	0	0	8076	579052	0	0
2024-08-23 10:00:47			0	37138	0	0	0	28171	26740	159158	26856	1069984	46487	110461	0	0	8077	578684	0	0
2024-08-23 10:01:47			0	37149	0	0	0	28171	26740	159106	27069	1070011	46487	110461	0	0	8077	578243	0	0
2024-08-23 10:02:47			0	37147	0	0	0	28166	26750	159098	26861	1070020	46498	110459	0	0	8077	578290	0	0
2024-08-23 10:03:47			0	37127	0	0	0	28171	26740	159046	26771	1070037	46487	110461	0	0	8076	579126	0	0
2024-08-23 10:04:47			0	37140	0	0	0	28176	26750	159066	26927	1070046	46476	110463	0	0	8077	578571	0	0
2024-08-23 10:05:47			0	37149	0	0	0	28173	26750	159022	27118	1070082	46487	110462	0	0	8077	578210	0	0
2024-08-23 10:06:47			0	37164	0	0	0	28176	26760	158954	27105	1070127	46489	110463	0	0	8078	577575	0	0
2024-08-23 10:07:47			0	37192	0	0	0	28186	26770	158958	26968	1070082	46490	110467	0	0	8080	576421	0	0
2024-08-23 10:08:47			0	37182	0	0	0	28186	26760	158970	26998	1070100	46489	110467	0	0	8079	576855	0	0
2024-08-23 10:09:47			0	37150	0	0	0	28176	26760	158994	27351	1070064	46488	110463	0	0	8077	578136	0	0
2024-08-23 10:10:47			0	37142	0	0	0	28189	26770	159126	26986	1070109	46479	110468	0	0	8077	578424	0	0
2024-08-23 10:11:47			0	37134	0	0	0	28192	26770	159174	26946	1070118	46490	110469	0	0	8076	578745	0	0
2024-08-23 10:12:47			0	37134	0	0	0	28192	26770	159110	27369	1070109	46479	110469	0	0	8076	578745	0	0
2024-08-23 10:13:47			0	37131	0	0	0	28192	26780	159114	26951	1070262	46490	110469	0	0	8076	578832	0	0
2024-08-23 10:14:47			0	37148	0	0	0	28205	26780	159082	27161	1070235	46490	110474	0	0	8077	578151	0	0
2024-08-23 10:15:47			0	37123	0	0	0	28205	26780	159126	27092	1070235	46490	110474	0	0	8075	579153	0	0
2024-08-23 10:16:47			0	37135	0	0	0	28210	26780	159014	27268	1070244	46491	110476	0	0	8076	578672	0	0
2024-08-23 10:17:47			0	37130	0	0	0	28202	26780	159146	27473	1070298	46491	110473	0	0	8076	578872	0	0
2024-08-23 10:18:47			0	37132	0	0	0	28207	26780	159130	27116	1070271	46501	110475	0	0	8076	578792	0	0
2024-08-23 10:19:47			0	37119	0	0	0	28212	26780	159186	27161	1070262	46490	110477	0	0	8075	579314	0	0
2024-08-23 10:20:47			0	37104	0	0	0	28218	26800	159198	27194	1070325	46502	110479	0	0	8074	579850	0	0
2024-08-23 10:21:47			0	37106	0	0	0	28210	26790	159234	27104	1070289	46502	110476	0	0	8074	579803	0	0
2024-08-23 10:22:47			0	37091	0	0	0	28225	26800	159162	27281	1070325	46481	110482	0	0	8073	580372	0	0
2024-08-23 10:23:47			0	37093	0	0	0	28228	26800	159258	27109	1070298	46481	110483	0	0	8073	580292	0	0
2024-08-23 10:24:47			0	37084	0	0	0	28228	26800	159322	27429	1070361	46493	110483	0	0	8073	580654	0	0
2024-08-23 10:25:47			0	37077	0	0	0	28233	26800	159286	27639	1070361	46493	110485	0	0	8072	580935	0	0
2024-08-23 10:26:47			0	37098	0	0	0	28231	26810	159346	27441	1070379	46494	110484	0	0	8074	580058	0	0
2024-08-23 10:27:47			0	37089	0	0	0	28233	26810	159250	27213	1070433	46494	110485	0	0	8073	580419	0	0
2024-08-23 10:28:47			0	37080	0	0	0	28246	26810	159310	27291	1070433	46494	110490	0	0	8072	580781	0	0
2024-08-23 10:29:47			0	37099	0	0	0	28238	26820	159326	27211	1070388	46494	110487	0	0	8074	579984	0	0
2024-08-23 10:30:47			0	37112	0	0	0	28238	26810	159166	27353	1070406	46494	110487	0	0	8074	579495	0	0
2024-08-23 10:31:47			0	37096	0	0	0	28238	26820	159182	27199	1070469	46494	110487	0	0	8073	580105	0	0
2024-08-23 10:32:47			0	37120	0	0	0	28241	26820	159118	27215	1070397	46505	110488	0	0	8075	579141	0	0
2024-08-23 10:33:47			0	37128	0	0	0	28246	26820	159102	27178	1070424	46484	110490	0	0	8075	578820	0	0
2024-08-23 10:34:47			0	37118	0	0	0	28241	26820	159118	27118	1070478	46484	110488	0	0	8075	579221	0	0
2024-08-23 10:35:47			0	37125	0	0	0	28262	26830	159022	26830	1070513	46485	110496	0	0	8075	578907	0	0
2024-08-23 10:36:47			0	37115	0	0	0	28249	26820	159030	27013	1070504	46484	110491	0	0	8074	579342	0	0
2024-08-23 10:37:47			0	37125	0	0	0	28259	26840	159062	27216	1070531	46507	110495	0	0	8075	578874	0	0
2024-08-23 10:38:47			0	37116	0	0	0	28246	26830	159042	27010	1070460	46496	110490	0	0	8075	579268	0	0
2024-08-23 10:39:47			0	37127	0	0	0	28246	26830	159006	27229	1070522	46485	110490	0	0	8075	578827	0	0
2024-08-23 10:40:47			0	37115	0	0	0	28246	26840	159062	27133	1070585	46486	110490	0	0	8075	579275	0	0
2024-08-23 10:41:47			0	37116	0	0	0	28257	26830	159042	27026	1070496	46496	110494	0	0	8074	579268	0	0
2024-08-23 10:42:47			0	37120	0	0	0	28270	26840	158950	27244	1070505	46497	110499	0	0	8074	579075	0	0
2024-08-23 10:43:47			0	37123	0	0	0	28275	26840	158934	27272	1070567	46497	110501	0	0	8075	578954	0	0
2024-08-23 10:44:47			0	37147	0	0	0	28293	26850	158934	27289	1070657	46520	110508	0	0	8076	577959	0	0
2024-08-23 10:45:47			0	37158	0	0	0	28303	26840	158770	27466	1070621	46486	110512	0	0	8076	577551	0	0
2024-08-23 10:46:47			0	37208	0	0	0	28309	26840	158598	26930	1070648	46497	110514	0	0	8079	575551	0	0
2024-08-23 10:47:47			0	37223	0	0	0	28324	26860	158698	27293	1070711	46499	110520	0	0	8080	574885	0	0
2024-08-23 10:48:47			0	37215	0	0	0	28306	26870	158590	27281	1070747	46500	110513	0	0	8080	575172	0	0
2024-08-23 10:49:47			0	37234	0	0	0	28314	26870	158678	27369	1070774	46510	110516	0	0	8081	574413	0	0
2024-08-23 10:50:47			0	37243	0	0	0	28319	26870	158338	27322	1070810	46490	110518	0	0	8081	574054	0	0
2024-08-23 10:51:47			0	37290	0	0	0	28327	26880	158354	27317	1070819	46500	110521	0	0	8084	572148	0	0
2024-08-23 10:52:47			0	37311	0	0	0	28345	26880	158255	27197	1070855	46500	110528	0	0	8085	571313	0	0
2024-08-23 10:53:47			0	37320	0	0	0	28348	26900	158243	27031	1070908	46502	110529	0	0	8085	570889	0	0
2024-08-23 10:54:47			0	37318	0	0	0	28345	26900	158215	27234	1070891	46526	110528	0	0	8085	570969	0	0
2024-08-23 10:55:47			0	37348	0	0	0	28340	26910	158071	27248	1070953	46503	110526	0	0	8087	569744	0	0
2024-08-23 10:56:47			0	37351	0	0	0	28342	26910	158095	27079	1070882	46504	110527	0	0	8087	569625	0	0
2024-08-23 10:57:47			0	37360	0	0	0	28340	26910	157967	27223	1070990	46494	110526	0	0	8088	569268	0	0
2024-08-23 10:58:47			0	37375	0	0	0	28350	26910	157935	26994	1071016	46494	110530	0	0	8088	568673	0	0
2024-08-23 10:59:47			0	37394	0	0	0	28350	26920	157875	27144	1071008	46505	110530	0	0	8090	567888	0	0
2024-08-23 11:00:47			0	37381	0	0	0	28366	26930	157855	27057	1071017	46505	110536	0	0	8089	568370	0	0
2024-08-23 11:01:47			0	37409	0	0	0	28371	26930	157735	27085	1071017	46539	110538	0	0	8090	567261	0	0
2024-08-23 11:02:47			0	37410	0	0	0	28371	26930	157659	27086	1071044	46505	110538	0	0	8090	567222	0	0
2024-08-23 11:03:47			0	37426	0	0	0	28379	26940	157787	26653	1071088	46497	110541	0	0	8091	566556	0	0
2024-08-23 11:04:47			0	37446	0	0	0	28374	26950	157659	26894	1071097	46507	110539	0	0	8092	565733	0	0
2024-08-23 11:05:47			0	37447	0	0	0	28381	26950	157691	26923	1071133	46519	110542	0	0	8092	565694	0	0
2024-08-23 11:06:47			0	37463	0	0	0	28386	26960	157671	27078	1071169	46498	110544	0	0	8093	565030	0	0
2024-08-23 11:07:47			0	37461	0	0	0	28381	26950	157583	27199	1071133	46508	110542	0	0	8093	565141	0	0
2024-08-23 11:08:47			0	37459	0	0	0	28386	26970	157559	26753	1071160	46520	110544	0	0	8093	565155	0	0
2024-08-23 11:09:47			0	37458	0	0	0	28389	26960	157579	27164	1071223	46508	110545	0	0	8093	565227	0	0
2024-08-23 11:10:47			0	37452	0	0	0	28381	26970	157563	27097	1071160	46509	110542	0	0	8093	565432	0	0
2024-08-23 11:11:47			0	37438	0	0	0	28389	26970	157587	27083	1071169	46521	110545	0	0	8092	565985	0	0
2024-08-23 11:12:47			0	37460	0	0	0	28397	26970	157635	27027	1071196	46510	110548	0	0	8093	565116	0	0
2024-08-23 11:13:47			0	37453	0	0	0	28402	26980	157683	27038	1071232	46521	110550	0	0	8092	565360	0	0
2024-08-23 11:14:47			0	37455	0	0	0	28402	26980	157551	27001	1071259	46500	110550	0	0	8092	565280	0	0
2024-08-23 11:15:47			0	37448	0	0	0	28402	27000	157539	27078	1071322	46501	110550	0	0	8092	565492	0	0
2024-08-23 11:16:47			0	37452	0	0	0	28412	26990	157579	27007	1071304	46534	110554	0	0	8092	565367	0	0
2024-08-23 11:17:47			0	37444	0	0	0	28415	26980	157611	27064	1071322	46511	110555	0	0	8092	565715	0	0
2024-08-23 11:18:47			0	37463	0	0	0	28428	26990	157599	27043	1071367	46512	110560	0	0	8093	564932	0	0
2024-08-23 11:19:47			0	37452	0	0	0	28436	27000	157559	27100	1071385	46513	110563	0	0	8092	565334	0	0
2024-08-23 11:20:47			0	37449	0	0	0	28438	27000	157487	26871	1071385	46524	110564	0	0	8092	565453	0	0
2024-08-23 11:21:47			0	37451	0	0	0	28441	27000	157595	27157	1071430	46490	110565	0	0	8092	565374	0	0
2024-08-23 11:22:47			0	37441	0	0	0	28451	27010	157607	27194	1071448	46513	110569	0	0	8091	565736	0	0
2024-08-23 11:23:47			0	37439	0	0	0	28451	27000	157567	27203	1071439	46536	110569	0	0	8091	565848	0	0
2024-08-23 11:24:47			0	37468	0	0	0	28457	27020	157535	26880	1071520	46515	110571	0	0	8092	564638	0	0
2024-08-23 11:25:47			0	37457	0	0	0	28454	27020	157451	26977	1071574	46504	110570	0	0	8092	565072	0	0
2024-08-23 11:26:47			0	37452	0	0	0	28459	27030	157535	27142	1071547	46516	110572	0	0	8092	565237	0	0
2024-08-23 11:27:47			0	37458	0	0	0	28459	27030	157471	26986	1071520	46505	110572	0	0	8092	565000	0	0
2024-08-23 11:28:47			0	37461	0	0	0	28457	27020	157535	26932	1071583	46515	110571	0	0	8092	564914	0	0
2024-08-23 11:29:47			0	37465	0	0	0	28449	27030	157387	26826	1071466	46516	110568	0	0	8092	564724	0	0
2024-08-23 11:30:47			0	37470	0	0	0	28462	27030	157363	27098	1071592	46493	110573	0	0	8093	564527	0	0
2024-08-23 11:31:47			0	37476	0	0	0	28459	27040	157407	27045	1071592	46517	110572	0	0	8093	564257	0	0
2024-08-23 11:32:47			0	37505	0	0	0	28470	27030	157435	26930	1071628	46505	110576	0	0	8094	563147	0	0
2024-08-23 11:33:47			0	37491	0	0	0	28467	27050	157371	27161	1071709	46518	110575	0	0	8094	563634	0	0
2024-08-23 11:34:47			0	37496	0	0	0	28477	27050	157287	27013	1071709	46518	110579	0	0	8094	563437	0	0
2024-08-23 11:35:47			0	37515	0	0	0	28472	27050	157343	27156	1071628	46518	110577	0	0	8095	562689	0	0
2024-08-23 11:36:47			0	37512	0	0	0	28467	27050	157279	27107	1071664	46507	110575	0	0	8095	562807	0	0
2024-08-23 11:37:47			0	37508	0	0	0	28480	27050	157307	27105	1071664	46518	110580	0	0	8095	562964	0	0
2024-08-23 11:38:47			0	37505	0	0	0	28470	27060	157423	26771	1071700	46541	110576	0	0	8095	563050	0	0
2024-08-23 11:39:47			0	37498	0	0	0	28483	27060	157203	27097	1071673	46508	110581	0	0	8094	563326	0	0
2024-08-23 11:40:47			0	37507	0	0	0	28488	27050	157235	27145	1071691	46507	110583	0	0	8094	563004	0	0
2024-08-23 11:41:47			0	37517	0	0	0	28490	27060	157347	27154	1071709	46530	110584	0	0	8095	562578	0	0
2024-08-23 11:42:47			0	37507	0	0	0	28498	27070	157211	27171	1071781	46509	110587	0	0	8094	562939	0	0
2024-08-23 11:43:47			0	37519	0	0	0	28498	27070	157119	27156	1071772	46520	110587	0	0	8095	562467	0	0
2024-08-23 11:44:47			0	37537	0	0	0	28503	27070	157143	27085	1071808	46520	110589	0	0	8096	561759	0	0
2024-08-23 11:45:47			0	37540	0	0	0	28503	27080	157099	27192	1071853	46522	110589	0	0	8096	561609	0	0
2024-08-23 11:46:47			0	37538	0	0	0	28516	27080	157095	27327	1071790	46521	110594	0	0	8096	561687	0	0
2024-08-23 11:47:47			0	37572	0	0	0	28511	27080	157187	27251	1071853	46522	110592	0	0	8098	560352	0	0
2024-08-23 11:48:47			0	37545	0	0	0	28511	27090	157151	27284	1071763	46511	110592	0	0	8096	561380	0	0
2024-08-23 11:49:47			0	37542	0	0	0	28514	27090	157095	26956	1071888	46522	110593	0	0	8096	561498	0	0
2024-08-23 11:50:47			0	37567	0	0	0	28524	27100	157259	27315	1071942	46535	110597	0	0	8097	560483	0	0
2024-08-23 11:51:47			0	37558	0	0	0	28524	27100	157103	27171	1071933	46545	110597	0	0	8097	560837	0	0
2024-08-23 11:52:47			0	37553	0	0	0	28529	27100	157147	26984	1071942	46524	110599	0	0	8097	561033	0	0
2024-08-23 11:53:47			0	37563	0	0	0	28540	27100	157067	26949	1072023	46524	110603	0	0	8097	560641	0	0
2024-08-23 11:54:47			0	37554	0	0	0	28545	27100	156979	27005	1071969	46524	110605	0	0	8096	560994	0	0
2024-08-23 11:55:47			0	37558	0	0	0	28553	27110	157031	26927	1071925	46513	110608	0	0	8097	560805	0	0
2024-08-23 11:56:47			0	37569	0	0	0	28568	27120	157091	27095	1072086	46515	110614	0	0	8097	560341	0	0
2024-08-23 11:57:47			0	37547	0	0	0	28563	27130	157079	27119	1072095	46548	110612	0	0	8096	561172	0	0
2024-08-23 11:58:47			0	37557	0	0	0	28571	27130	157051	27215	1072122	46515	110615	0	0	8096	560780	0	0
2024-08-23 11:59:47			0	37573	0	0	0	28581	27130	157003	27315	1072212	46527	110619	0	0	8097	560151	0	0
2024-08-23 12:00:47			0	37568	0	0	0	28592	27140	157003	26764	1072167	46527	110623	0	0	8097	560316	0	0
2024-08-23 12:01:47			0	37581	0	0	0	28599	27150	156999	27331	1072239	46551	110626	0	0	8097	559773	0	0
2024-08-23 12:02:47			0	37575	0	0	0	28620	27150	156943	26712	1072275	46551	110634	0	0	8097	560009	0	0
2024-08-23 12:03:47			0	37575	0	0	0	28607	27160	157031	27261	1072284	46529	110629	0	0	8097	559977	0	0
2024-08-23 12:04:47			0	37583	0	0	0	28610	27170	156887	27081	1072329	46553	110630	0	0	8097	559631	0	0
2024-08-23 12:05:47			0	37584	0	0	0	28592	27170	156835	27377	1072356	46553	110623	0	0	8098	559591	0	0
2024-08-23 12:06:47			0	37598	0	0	0	28573	27170	156843	27216	1072329	46553	110616	0	0	8099	559043	0	0
2024-08-23 12:07:47			0	37598	0	0	0	28561	27170	156775	27005	1072338	46531	110611	0	0	8099	559043	0	0
2024-08-23 12:08:47			0	37623	0	0	0	28566	27170	156823	26984	1072230	46520	110613	0	0	8100	558064	0	0
2024-08-23 12:09:47			0	37610	0	0	0	28563	27170	156779	26942	1072311	46508	110612	0	0	8100	558573	0	0
2024-08-23 12:10:47			0	37620	0	0	0	28563	27170	156759	26944	1072257	46508	110612	0	0	8100	558181	0	0
2024-08-23 12:11:47			0	37617	0	0	0	28548	27170	156803	26857	1072284	46531	110606	0	0	8100	558298	0	0
2024-08-23 12:12:47			0	37614	0	0	0	28561	27170	156747	26939	1072248	46531	110611	0	0	8100	558416	0	0
2024-08-23 12:13:47			0	37625	0	0	0	28550	27170	156635	27053	1072248	46520	110607	0	0	8101	557985	0	0
2024-08-23 12:14:47			0	37635	0	0	0	28542	27170	156759	26923	1072195	46508	110604	0	0	8101	557594	0	0
2024-08-23 12:15:47			0	37643	0	0	0	28529	27160	156707	27029	1072176	46506	110599	0	0	8102	557313	0	0
2024-08-23 12:16:47			0	37617	0	0	0	28542	27170	156683	27275	1072248	46520	110604	0	0	8100	558298	0	0
2024-08-23 12:17:47			0	37624	0	0	0	28542	27160	156643	27135	1072257	46529	110604	0	0	8101	558056	0	0
2024-08-23 12:18:47			0	37639	0	0	0	28535	27160	156687	27090	1072230	46518	110601	0	0	8102	557470	0	0
2024-08-23 12:19:47			0	37634	0	0	0	28535	27160	156683	27246	1072212	46507	110601	0	0	8101	557665	0	0
2024-08-23 12:20:47			0	37645	0	0	0	28548	27170	156679	26889	1072257	46498	110606	0	0	8102	557203	0	0
2024-08-23 12:21:47			0	37618	0	0	0	28555	27160	156715	26727	1072122	46518	110609	0	0	8100	558291	0	0
2024-08-23 12:22:47			0	37609	0	0	0	28571	27160	156763	26948	1072212	46497	110615	0	0	8099	558644	0	0
2024-08-23 12:23:47			0	37621	0	0	0	28571	27150	156767	27199	1072194	46506	110615	0	0	8100	558206	0	0
2024-08-23 12:24:47			0	37631	0	0	0	28573	27170	156711	26892	1072221	46531	110616	0	0	8101	557750	0	0
2024-08-23 12:25:47			0	37619	0	0	0	28576	27160	156751	27126	1072320	46519	110617	0	0	8100	558252	0	0
2024-08-23 12:26:47			0	37621	0	0	0	28568	27170	156775	27131	1072329	46520	110614	0	0	8100	558142	0	0
2024-08-23 12:27:47			0	37641	0	0	0	28568	27170	156755	27048	1072248	46531	110614	0	0	8101	557359	0	0
2024-08-23 12:28:47			0	37628	0	0	0	28555	27170	156695	26897	1072248	46508	110609	0	0	8101	557868	0	0
2024-08-23 12:29:47			0	37625	0	0	0	28558	27170	156759	27126	1072275	46508	110610	0	0	8101	557985	0	0
2024-08-23 12:30:47			0	37617	0	0	0	28566	27170	156631	26944	1072284	46520	110613	0	0	8100	558298	0	0
2024-08-23 12:31:47			0	37618	0	0	0	28563	27160	156599	27235	1072266	46541	110612	0	0	8100	558291	0	0
2024-08-23 12:32:47			0	37633	0	0	0	28561	27170	156735	27270	1072275	46531	110611	0	0	8101	557672	0	0
2024-08-23 12:33:47			0	37638	0	0	0	28540	27160	156663	27048	1072239	46530	110603	0	0	8102	557509	0	0
2024-08-23 12:34:47			0	37639	0	0	0	28537	27180	156591	27225	1072293	46520	110602	0	0	8102	557406	0	0
2024-08-23 12:35:47			0	37650	0	0	0	28529	27160	156655	27116	1072257	46529	110599	0	0	8103	557039	0	0
2024-08-23 12:36:47			0	37643	0	0	0	28535	27160	156679	27284	1072230	46529	110601	0	0	8102	557313	0	0
2024-08-23 12:37:47			0	37634	0	0	0	28553	27160	156691	26916	1072257	46518	110608	0	0	8101	557665	0	0
2024-08-23 12:38:47			0	37629	0	0	0	28550	27160	156635	27234	1072230	46529	110607	0	0	8101	557861	0	0
2024-08-23 12:39:47			0	37634	0	0	0	28550	27180	156607	27168	1072266	46520	110607	0	0	8101	557601	0	0
2024-08-23 12:40:47			0	37619	0	0	0	28563	27170	156663	27239	1072204	46520	110612	0	0	8100	558220	0	0
2024-08-23 12:41:47			0	37627	0	0	0	28555	27170	156723	27076	1072311	46508	110609	0	0	8101	557907	0	0
2024-08-23 12:42:47			0	37648	0	0	0	28553	27180	156715	27000	1072275	46532	110608	0	0	8102	557054	0	0
2024-08-23 12:43:47			0	37625	0	0	0	28561	27170	156635	27116	1072284	46520	110611	0	0	8101	557985	0	0
2024-08-23 12:44:47			0	37622	0	0	0	28558	27170	156803	27171	1072230	46531	110610	0	0	8100	558103	0	0
2024-08-23 12:45:47			0	37629	0	0	0	28553	27160	156715	26797	1072266	46519	110608	0	0	8101	557861	0	0
2024-08-23 12:46:47			0	37618	0	0	0	28550	27160	156755	26817	1072212	46519	110607	0	0	8100	558291	0	0
2024-08-23 12:47:47			0	37614	0	0	0	28555	27170	156731	26828	1072311	46508	110609	0	0	8100	558416	0	0
2024-08-23 12:48:47			0	37617	0	0	0	28558	27170	156759	27067	1072275	46520	110610	0	0	8100	558298	0	0
2024-08-23 12:49:47			0	37643	0	0	0	28555	27170	156819	26786	1072311	46520	110609	0	0	8102	557281	0	0
2024-08-23 12:50:47			0	37631	0	0	0	28555	27170	156615	26854	1072284	46531	110609	0	0	8101	557750	0	0
2024-08-23 12:51:47			0	37620	0	0	0	28550	27170	156747	27060	1072248	46531	110607	0	0	8100	558181	0	0
2024-08-23 12:52:47			0	37638	0	0	0	28545	27170	156675	27118	1072311	46520	110605	0	0	8102	557477	0	0
2024-08-23 12:53:47			0	37628	0	0	0	28542	27160	156651	26849	1072185	46519	110604	0	0	8101	557900	0	0
2024-08-23 12:54:47			0	37664	0	0	0	28545	27160	156667	26965	1072266	46507	110605	0	0	8103	556492	0	0
2024-08-23 12:55:47			0	37652	0	0	0	28548	27160	156755	26930	1072293	46519	110606	0	0	8102	556961	0	0
2024-08-23 12:56:47			0	37657	0	0	0	28563	27170	156711	26859	1072275	46520	110612	0	0	8102	556734	0	0
2024-08-23 12:57:47			0	37656	0	0	0	28571	27170	156671	26920	1072257	46531	110615	0	0	8102	556773	0	0
2024-08-23 12:58:47			0	37648	0	0	0	28568	27170	156583	27085	1072248	46531	110614	0	0	8102	557086	0	0
2024-08-23 12:59:47			0	37654	0	0	0	28568	27170	156631	26698	1072284	46520	110614	0	0	8102	556851	0	0
2024-08-23 13:00:47			0	37653	0	0	0	28576	27180	156587	27331	1072293	46508	110617	0	0	8102	556858	0	0
2024-08-23 13:01:47			0	37647	0	0	0	28579	27180	156615	27074	1072293	46531	110618	0	0	8102	557093	0	0
2024-08-23 13:02:47			0	37672	0	0	0	28576	27190	156475	27088	1072392	46533	110617	0	0	8103	556084	0	0
2024-08-23 13:03:47			0	37687	0	0	0	28579	27180	156535	27190	1072401	46520	110618	0	0	8104	555530	0	0
2024-08-23 13:04:47			0	37665	0	0	0	28586	27180	156523	27469	1072410	46532	110621	0	0	8103	556389	0	0
2024-08-23 13:05:47			0	37689	0	0	0	28597	27190	156519	27060	1072401	46522	110625	0	0	8104	555420	0	0
2024-08-23 13:06:47			0	37691	0	0	0	28610	27190	156459	26802	1072365	46522	110630	0	0	8104	555342	0	0
2024-08-23 13:07:47			0	37692	0	0	0	28597	27190	156419	26765	1072392	46544	110625	0	0	8104	555303	0	0
2024-08-23 13:08:47			0	37699	0	0	0	28607	27200	156431	26809	1072464	46533	110629	0	0	8104	554998	0	0
2024-08-23 13:09:47			0	37693	0	0	0	28620	27200	156411	26814	1072491	46533	110634	0	0	8104	555232	0	0
2024-08-23 13:10:47			0	37705	0	0	0	28620	27200	156483	26916	1072464	46533	110634	0	0	8104	554764	0	0
2024-08-23 13:11:47			0	37710	0	0	0	28599	27190	156423	26675	1072455	46522	110626	0	0	8105	554601	0	0
2024-08-23 13:12:47			0	37729	0	0	0	28581	27210	156323	26928	1072491	46513	110619	0	0	8106	553797	0	0
2024-08-23 13:13:47			0	37718	0	0	0	28579	27200	156367	26876	1072410	46522	110618	0	0	8106	554258	0	0
2024-08-23 13:14:47			0	37715	0	0	0	28584	27190	156419	26608	1072401	46510	110620	0	0	8105	554406	0	0
2024-08-23 13:15:47			0	37716	0	0	0	28589	27200	156459	26849	1072383	46533	110622	0	0	8106	554335	0	0
2024-08-23 13:16:47			0	37698	0	0	0	28581	27190	156423	26791	1072401	46533	110619	0	0	8105	555069	0	0
2024-08-23 13:17:47			0	37710	0	0	0	28581	27210	156459	27282	1072401	46524	110619	0	0	8105	554538	0	0
2024-08-23 13:18:47			0	37732	0	0	0	28586	27200	156355	26991	1072419	46523	110621	0	0	8106	553712	0	0
2024-08-23 13:19:47			0	37728	0	0	0	28584	27190	156271	26776	1072428	46533	110620	0	0	8106	553900	0	0
2024-08-23 13:20:47			0	37723	0	0	0	28579	27190	156379	26739	1072374	46533	110618	0	0	8106	554095	0	0
2024-08-23 13:21:47			0	37730	0	0	0	28589	27200	156367	26736	1072464	46533	110622	0	0	8106	553790	0	0
2024-08-23 13:22:47			0	37719	0	0	0	28602	27200	156415	26762	1072491	46544	110627	0	0	8105	554219	0	0
2024-08-23 13:23:47			0	37723	0	0	0	28615	27200	156387	27086	1072437	46544	110632	0	0	8105	554063	0	0
2024-08-23 13:24:47			0	37725	0	0	0	28620	27200	156339	26831	1072437	46544	110634	0	0	8106	553985	0	0
2024-08-23 13:25:47			0	37729	0	0	0	28610	27200	156267	27286	1072527	46523	110630	0	0	8106	553829	0	0
2024-08-23 13:26:47			0	37731	0	0	0	28586	27210	156155	27076	1072482	46524	110621	0	0	8106	553719	0	0
2024-08-23 13:27:47			0	37749	0	0	0	28579	27200	156191	27313	1072392	46523	110618	0	0	8108	553050	0	0
2024-08-23 13:28:47			0	37728	0	0	0	28566	27210	156251	27322	1072428	46524	110613	0	0	8107	553836	0	0
2024-08-23 13:29:47			0	37740	0	0	0	28563	27200	156215	26889	1072446	46500	110612	0	0	8107	553401	0	0
2024-08-23 13:30:47			0	37738	0	0	0	28563	27210	156343	26899	1072347	46524	110612	0	0	8107	553447	0	0
2024-08-23 13:31:47			0	37733	0	0	0	28586	27200	156339	27228	1072410	46522	110621	0	0	8107	553673	0	0
2024-08-23 13:32:47			0	37738	0	0	0	28584	27200	156287	27201	1072473	46534	110620	0	0	8107	553479	0	0
2024-08-23 13:33:47			0	37726	0	0	0	28589	27190	156275	26786	1072374	46533	110622	0	0	8106	553978	0	0
2024-08-23 13:34:47			0	37729	0	0	0	28579	27200	156287	26963	1072464	46533	110618	0	0	8106	553829	0	0
2024-08-23 13:35:47			0	37725	0	0	0	28573	27200	156307	27019	1072410	46522	110616	0	0	8106	553985	0	0
2024-08-23 13:36:47			0	37721	0	0	0	28592	27190	156247	26949	1072401	46533	110623	0	0	8106	554172	0	0
2024-08-23 13:37:47			0	37730	0	0	0	28599	27200	156343	26750	1072419	46523	110626	0	0	8106	553790	0	0
2024-08-23 13:38:47			0	37725	0	0	0	28612	27210	156279	26913	1072482	46535	110631	0	0	8106	553953	0	0
2024-08-23 13:39:47			0	37736	0	0	0	28625	27200	156315	26984	1072446	46534	110636	0	0	8106	553556	0	0
2024-08-23 13:40:47			0	37726	0	0	0	28607	27200	156319	27157	1072491	46544	110629	0	0	8106	553946	0	0
2024-08-23 13:41:47			0	37736	0	0	0	28612	27210	156323	27067	1072563	46535	110631	0	0	8106	553525	0	0
2024-08-23 13:42:47			0	37735	0	0	0	28620	27200	156359	27150	1072580	46544	110634	0	0	8106	553595	0	0
2024-08-23 13:43:47			0	37751	0	0	0	28597	27220	156227	26802	1072554	46536	110625	0	0	8107	552909	0	0
2024-08-23 13:44:47			0	37756	0	0	0	28641	27220	156227	26875	1072608	46546	110642	0	0	8107	552715	0	0
2024-08-23 13:45:47			0	37745	0	0	0	28664	27230	156155	26939	1072643	46546	110651	0	0	8106	553111	0	0
2024-08-23 13:46:47			0	37759	0	0	0	28662	27230	156223	27168	1072653	46526	110650	0	0	8107	552566	0	0
2024-08-23 13:47:47			0	37743	0	0	0	28651	27240	156207	26989	1072671	46548	110646	0	0	8106	553157	0	0
2024-08-23 13:48:47			0	37754	0	0	0	28644	27240	156203	27171	1072724	46560	110643	0	0	8107	552729	0	0
2024-08-23 13:49:47			0	37733	0	0	0	28646	27240	156115	26951	1072671	46548	110644	0	0	8106	553546	0	0
2024-08-23 13:50:47			0	37738	0	0	0	28667	27250	156187	26844	1072733	46538	110652	0	0	8106	553320	0	0
2024-08-23 13:51:47			0	37760	0	0	0	28659	27260	156091	26932	1072751	46540	110649	0	0	8107	552432	0	0
2024-08-23 13:52:47			0	37781	0	0	0	28680	27260	156151	26870	1072805	46540	110657	0	0	8108	551616	0	0
2024-08-23 13:53:47			0	37771	0	0	0	28709	27260	156043	27104	1072868	46540	110668	0	0	8107	552004	0	0
2024-08-23 13:54:47			0	37781	0	0	0	28714	27270	156059	26620	1072940	46585	110670	0	0	8107	551584	0	0
2024-08-23 13:55:47			0	37784	0	0	0	28696	27290	155951	26982	1072940	46553	110663	0	0	8108	551404	0	0
2024-08-23 13:56:47			0	37785	0	0	0	28701	27290	156007	26653	1072896	46542	110665	0	0	8108	551366	0	0
2024-08-23 13:57:47			0	37792	0	0	0	28714	27290	155839	27131	1072967	46565	110670	0	0	8108	551094	0	0
2024-08-23 13:58:47			0	37798	0	0	0	28729	27300	155895	26842	1072985	46543	110676	0	0	8108	550829	0	0
2024-08-23 13:59:47			0	37801	0	0	0	28745	27310	155883	27013	1073111	46567	110682	0	0	8108	550681	0	0
2024-08-23 14:00:47			0	37803	0	0	0	28742	27310	155807	27189	1073066	46544	110681	0	0	8108	550604	0	0
2024-08-23 14:01:47			0	37800	0	0	0	28729	27330	155743	27293	1073147	46546	110676	0	0	8109	550657	0	0
2024-08-23 14:02:47			0	37797	0	0	0	28740	27310	155815	26949	1073120	46544	110680	0	0	8108	550836	0	0
2024-08-23 14:03:47			0	37814	0	0	0	28750	27330	155863	27038	1073129	46536	110684	0	0	8109	550114	0	0
2024-08-23 14:04:47			0	37805	0	0	0	28750	27330	155883	26717	1073156	46536	110684	0	0	8109	550463	0	0
2024-08-23 14:05:47			0	37815	0	0	0	28740	27330	155827	26795	1073174	46546	110680	0	0	8109	550075	0	0
2024-08-23 14:06:47			0	37801	0	0	0	28732	27330	155915	27175	1073156	46536	110677	0	0	8109	550618	0	0
2024-08-23 14:07:47			0	37811	0	0	0	28729	27330	155679	26935	1073076	46524	110676	0	0	8109	550230	0	0
2024-08-23 14:08:47			0	37805	0	0	0	28742	27330	155803	27105	1073183	46536	110681	0	0	8109	550463	0	0
2024-08-23 14:09:47			0	37804	0	0	0	28771	27340	155839	26923	1073174	46548	110692	0	0	8108	550470	0	0
2024-08-23 14:10:47			0	37811	0	0	0	28740	27340	155751	27007	1073192	46547	110680	0	0	8109	550198	0	0
2024-08-23 14:11:47			0	37833	0	0	0	28698	27340	155655	26828	1073138	46537	110664	0	0	8111	549346	0	0
2024-08-23 14:12:47			0	37826	0	0	0	28724	27340	155675	26885	1073165	46547	110674	0	0	8110	549617	0	0
2024-08-23 14:13:47			0	37804	0	0	0	28742	27340	155763	27022	1073228	46548	110681	0	0	8109	550470	0	0
2024-08-23 14:14:47			0	37812	0	0	0	28714	27350	155711	26719	1073210	46549	110670	0	0	8110	550128	0	0
2024-08-23 14:15:47			0	37841	0	0	0	28703	27350	155659	26967	1073156	46539	110666	0	0	8112	549004	0	0
2024-08-23 14:16:47			0	37815	0	0	0	28753	27340	155675	26729	1073255	46548	110685	0	0	8109	550043	0	0
2024-08-23 14:17:47			0	37803	0	0	0	28724	27350	155707	26996	1073246	46539	110674	0	0	8109	550477	0	0
2024-08-23 14:18:47			0	37800	0	0	0	28696	27350	155715	27156	1073300	46539	110663	0	0	8109	550593	0	0
2024-08-23 14:19:47			0	37823	0	0	0	28722	27370	155643	27055	1073246	46529	110673	0	0	8110	549638	0	0
2024-08-23 14:20:47			0	37813	0	0	0	28727	27360	155783	27144	1073291	46550	110675	0	0	8110	550058	0	0
2024-08-23 14:21:47			0	37816	0	0	0	28732	27360	155703	27227	1073237	46540	110677	0	0	8110	549941	0	0
2024-08-23 14:22:47			0	37824	0	0	0	28701	27350	155695	27053	1073273	46527	110665	0	0	8111	549663	0	0
2024-08-23 14:23:47			0	37825	0	0	0	28701	27350	155659	26817	1073156	46527	110665	0	0	8111	549624	0	0
2024-08-23 14:24:47			0	37831	0	0	0	28724	27350	155663	27312	1073130	46539	110674	0	0	8111	549392	0	0
2024-08-23 14:25:47			0	37824	0	0	0	28724	27360	155659	27024	1073228	46549	110674	0	0	8110	549631	0	0
2024-08-23 14:26:47			0	37836	0	0	0	28727	27350	155675	26890	1073237	46539	110675	0	0	8111	549198	0	0
2024-08-23 14:27:47			0	37834	0	0	0	28732	27350	155655	26896	1073300	46539	110677	0	0	8111	549276	0	0
2024-08-23 14:28:47			0	37825	0	0	0	28750	27360	155647	27255	1073318	46540	110684	0	0	8110	549593	0	0
2024-08-23 14:29:47			0	37823	0	0	0	28750	27360	155719	27039	1073345	46550	110684	0	0	8110	549670	0	0
2024-08-23 14:30:47			0	37838	0	0	0	28799	27380	155687	27119	1073399	46529	110703	0	0	8110	549026	0	0
2024-08-23 14:31:47			0	37835	0	0	0	28820	27380	155611	27131	1073533	46551	110711	0	0	8109	549142	0	0
2024-08-23 14:32:47			0	37841	0	0	0	28799	27390	155603	27086	1073534	46565	110703	0	0	8110	548878	0	0
2024-08-23 14:33:47			0	37863	0	0	0	28807	27390	155663	26679	1073561	46542	110706	0	0	8111	548027	0	0
2024-08-23 14:34:47			0	37857	0	0	0	28818	27400	155555	26807	1073552	46554	110710	0	0	8111	548228	0	0
2024-08-23 14:35:47			0	37843	0	0	0	28828	27410	155507	26762	1073561	46555	110714	0	0	8110	548738	0	0
2024-08-23 14:36:47			0	37834	0	0	0	28864	27430	155659	27098	1073732	46546	110728	0	0	8109	549023	0	0
2024-08-23 14:37:47			0	37866	0	0	0	28890	27420	155623	26738	1073723	46579	110738	0	0	8110	547816	0	0
2024-08-23 14:38:47			0	37858	0	0	0	28909	27430	155591	26615	1073875	46570	110745	0	0	8109	548094	0	0
2024-08-23 14:39:47			0	37854	0	0	0	28984	27460	155611	26889	1073974	46583	110774	0	0	8108	548155	0	0
2024-08-23 14:40:47			0	37863	0	0	0	29064	27470	155575	26844	1074181	46606	110805	0	0	8107	547775	0	0
2024-08-23 14:41:47			0	37866	0	0	0	29033	27500	155571	27119	1074262	46609	110793	0	0	8108	547565	0	0
2024-08-23 14:42:47			0	37890	0	0	0	28958	27510	155459	27159	1074262	46588	110764	0	0	8111	546606	0	0
2024-08-23 14:43:47			0	37905	0	0	0	28909	27510	155291	26609	1074199	46565	110745	0	0	8112	546027	0	0
2024-08-23 14:44:47			0	37917	0	0	0	28901	27530	155295	26922	1074146	46556	110742	0	0	8113	545502	0	0
2024-08-23 14:45:47			0	37928	0	0	0	28909	27510	155211	27007	1074101	46543	110745	0	0	8114	545141	0	0
2024-08-23 14:46:47			0	37940	0	0	0	28986	27510	155231	27071	1074199	46565	110775	0	0	8113	544678	0	0
2024-08-23 14:47:47			0	37936	0	0	0	28971	27530	155159	26892	1074208	46580	110769	0	0	8113	544770	0	0
2024-08-23 14:48:47			0	37946	0	0	0	28986	27540	155151	26944	1074245	46590	110775	0	0	8114	544353	0	0
2024-08-23 14:49:47			0	37957	0	0	0	29010	27540	155027	26741	1074361	46569	110784	0	0	8114	543930	0	0
2024-08-23 14:50:47			0	37947	0	0	0	29070	27560	155079	27152	1074523	46592	110807	0	0	8112	544252	0	0
2024-08-23 14:51:47			0	37951	0	0	0	29036	27570	155183	26918	1074577	46594	110794	0	0	8113	544067	0	0
2024-08-23 14:52:47			0	37934	0	0	0	29020	27590	155063	26759	1074658	46584	110788	0	0	8113	544659	0	0
2024-08-23 14:53:47			0	37971	0	0	0	29005	27580	155147	26733	1074541	46595	110782	0	0	8115	543267	0	0
2024-08-23 14:54:47			0	37951	0	0	0	29023	27590	154987	26563	1074586	46563	110789	0	0	8114	544004	0	0
2024-08-23 14:55:47			0	37959	0	0	0	29018	27590	154939	27015	1074533	46563	110787	0	0	8114	543697	0	0
2024-08-23 14:56:47			0	37960	0	0	0	29015	27600	154899	27053	1074622	46575	110786	0	0	8114	543627	0	0
2024-08-23 14:57:47			0	37970	0	0	0	28999	27590	154895	27105	1074479	46563	110780	0	0	8115	543274	0	0
2024-08-23 14:58:47			0	37989	0	0	0	29007	27590	154831	27029	1074586	46551	110783	0	0	8116	542544	0	0
2024-08-23 14:59:47			0	38001	0	0	0	29033	27600	154787	27287	1074631	46575	110793	0	0	8116	542052	0	0
2024-08-23 15:00:47			0	37985	0	0	0	29051	27610	154775	27161	1074694	46564	110800	0	0	8115	542635	0	0
2024-08-23 15:01:47			0	38007	0	0	0	29062	27620	154699	26887	1074766	46588	110804	0	0	8116	541759	0	0
2024-08-23 15:02:47			0	38022	0	0	0	29057	27620	154776	26797	1074721	46577	110802	0	0	8117	541184	0	0
2024-08-23 15:03:47			0	38010	0	0	0	29085	27630	154811	27092	1074766	46578	110813	0	0	8116	541613	0	0
2024-08-23 15:04:47			0	38005	0	0	0	29090	27630	154767	26953	1074820	46600	110815	0	0	8116	541805	0	0
2024-08-23 15:05:47			0	37989	0	0	0	29127	27640	154783	26831	1074893	46601	110829	0	0	8114	542388	0	0
2024-08-23 15:06:47			0	38008	0	0	0	29135	27660	154683	26989	1074974	46603	110832	0	0	8115	541596	0	0
2024-08-23 15:07:47			0	38027	0	0	0	29129	27670	154791	26894	1075046	46604	110830	0	0	8117	540836	0	0
2024-08-23 15:08:47			0	38023	0	0	0	29142	27680	154791	27116	1075091	46572	110835	0	0	8116	540958	0	0
2024-08-23 15:09:47			0	38017	0	0	0	29142	27690	154679	27071	1075118	46606	110835	0	0	8116	541157	0	0
2024-08-23 15:10:47			0	38021	0	0	0	29163	27700	154692	26967	1075127	46607	110843	0	0	8116	540973	0	0
2024-08-23 15:11:47			0	38006	0	0	0	29163	27700	154759	27261	1075217	46608	110843	0	0	8115	541548	0	0
2024-08-23 15:12:47			0	38024	0	0	0	29153	27710	154651	26960	1075235	46598	110839	0	0	8116	540827	0	0
2024-08-23 15:13:47			0	38045	0	0	0	29176	27720	154608	27192	1075271	46609	110848	0	0	8117	539991	0	0
2024-08-23 15:14:47			0	38047	0	0	0	29186	27720	154532	27104	1075307	46610	110852	0	0	8117	539914	0	0
2024-08-23 15:15:47			0	38052	0	0	0	29212	27740	154536	26913	1075451	46612	110862	0	0	8117	539661	0	0
2024-08-23 15:16:47			0	38039	0	0	0	29228	27770	154564	26923	1075577	46615	110868	0	0	8116	540065	0	0
2024-08-23 15:17:47			0	38063	0	0	0	29267	27770	154592	27097	1075613	46615	110883	0	0	8117	539147	0	0
2024-08-23 15:18:47			0	38074	0	0	0	29280	27780	154484	26974	1075712	46616	110888	0	0	8117	538695	0	0
2024-08-23 15:19:47			0	38071	0	0	0	29254	27790	154544	27128	1075721	46617	110878	0	0	8117	538779	0	0
2024-08-23 15:20:47			0	38075	0	0	0	29241	27790	154392	27104	1075703	46618	110873	0	0	8118	538626	0	0
2024-08-23 15:21:47			0	38076	0	0	0	29246	27800	154372	26870	1075766	46584	110875	0	0	8118	538557	0	0
2024-08-23 15:22:47			0	38100	0	0	0	29244	27820	154404	27241	1075793	46586	110874	0	0	8119	537578	0	0
2024-08-23 15:23:47			0	38105	0	0	0	29223	27810	154320	27131	1075784	46585	110866	0	0	8120	537418	0	0
2024-08-23 15:24:47			0	38131	0	0	0	29218	27820	154236	27003	1075775	46586	110864	0	0	8122	536396	0	0
2024-08-23 15:25:47			0	38153	0	0	0	29225	27820	154076	27111	1075739	46586	110867	0	0	8123	535557	0	0
2024-08-23 15:26:47			0	38176	0	0	0	29223	27820	154024	27194	1075748	46586	110866	0	0	8124	534682	0	0
2024-08-23 15:27:47			0	38173	0	0	0	29228	27820	153892	26932	1075775	46597	110868	0	0	8124	534796	0	0
2024-08-23 15:28:47			0	38198	0	0	0	29233	27830	153920	27105	1075784	46597	110870	0	0	8125	533815	0	0
2024-08-23 15:29:47			0	38210	0	0	0	29231	27820	153836	27171	1075775	46597	110869	0	0	8126	533390	0	0
2024-08-23 15:30:47			0	38226	0	0	0	29225	27820	153776	26932	1075775	46597	110867	0	0	8127	532782	0	0
2024-08-23 15:31:47			0	38191	0	0	0	29212	27820	153736	27183	1075721	46597	110862	0	0	8125	534112	0	0
2024-08-23 15:32:47			0	38208	0	0	0	29244	27830	153684	27008	1075784	46597	110874	0	0	8126	533435	0	0
2024-08-23 15:33:47			0	38219	0	0	0	29246	27840	153800	27220	1075802	46588	110875	0	0	8126	532986	0	0
2024-08-23 15:34:47			0	38210	0	0	0	29246	27830	153704	27282	1075757	46586	110875	0	0	8126	533359	0	0
2024-08-23 15:35:47			0	38211	0	0	0	29267	27840	153816	27170	1075802	46611	110883	0	0	8126	533290	0	0
2024-08-23 15:36:47			0	38209	0	0	0	29264	27840	153872	26693	1075838	46611	110882	0	0	8125	533366	0	0
2024-08-23 15:37:47			0	38200	0	0	0	29270	27840	153784	27046	1075865	46599	110884	0	0	8125	533708	0	0
2024-08-23 15:38:47			0	38215	0	0	0	29277	27850	153780	26814	1075928	46622	110887	0	0	8126	533108	0	0
2024-08-23 15:39:47			0	38210	0	0	0	29283	27850	153736	27093	1075964	46600	110889	0	0	8125	533298	0	0
2024-08-23 15:40:47			0	38198	0	0	0	29296	27860	153804	27078	1075973	46613	110894	0	0	8124	533722	0	0
2024-08-23 15:41:47			0	38211	0	0	0	29293	27860	153728	27114	1075982	46591	110893	0	0	8125	533229	0	0
2024-08-23 15:42:47			0	38202	0	0	0	29293	27870	153768	26965	1076018	46602	110893	0	0	8125	533540	0	0
2024-08-23 15:43:47			0	38204	0	0	0	29306	27880	153756	26710	1076063	46615	110898	0	0	8125	533433	0	0
2024-08-23 15:44:47			0	38190	0	0	0	29309	27870	153640	27206	1076027	46602	110899	0	0	8124	533996	0	0
2024-08-23 15:45:47			0	38194	0	0	0	29301	27880	153652	26864	1076090	46603	110896	0	0	8124	533813	0	0
2024-08-23 15:46:47			0	38219	0	0	0	29296	27890	153612	26899	1076081	46604	110894	0	0	8126	532833	0	0
2024-08-23 15:47:47			0	38204	0	0	0	29301	27890	153644	27017	1076108	46582	110896	0	0	8125	533402	0	0
2024-08-23 15:48:47			0	38189	0	0	0	29306	27890	153700	26883	1076135	46604	110898	0	0	8124	533972	0	0
2024-08-23 15:49:47			0	38206	0	0	0	29311	27880	153604	27128	1076126	46604	110900	0	0	8125	533357	0	0
2024-08-23 15:50:47			0	38211	0	0	0	29319	27890	153712	27112	1076171	46626	110903	0	0	8125	533137	0	0
2024-08-23 15:51:47			0	38200	0	0	0	29332	27900	153592	27020	1076153	46617	110908	0	0	8124	533524	0	0
2024-08-23 15:52:47			0	38201	0	0	0	29335	27900	153688	27152	1076189	46606	110909	0	0	8124	533486	0	0
2024-08-23 15:53:47			0	38226	0	0	0	29314	27910	153592	26748	1076225	46606	110901	0	0	8126	532506	0	0
2024-08-23 15:54:47			0	38213	0	0	0	29335	27920	153680	27043	1076244	46607	110909	0	0	8125	532968	0	0
2024-08-23 15:55:47			0	38203	0	0	0	29327	27910	153668	26762	1076235	46618	110906	0	0	8124	533379	0	0
2024-08-23 15:56:47			0	38223	0	0	0	29324	27900	153644	26764	1076270	46628	110905	0	0	8126	532650	0	0
2024-08-23 15:57:47			0	38211	0	0	0	29335	27910	153704	26602	1076235	46606	110909	0	0	8125	533075	0	0
2024-08-23 15:58:47			0	38212	0	0	0	29324	27930	153660	26902	1076262	46609	110905	0	0	8125	532976	0	0
2024-08-23 15:59:47			0	38212	0	0	0	29327	27920	153616	26894	1076271	46607	110906	0	0	8125	533006	0	0
2024-08-23 16:00:47			0	38207	0	0	0	29335	27920	153708	26824	1076306	46608	110909	0	0	8125	533196	0	0
2024-08-23 16:01:47			0	38215	0	0	0	29340	27920	153732	27249	1076306	46608	110911	0	0	8125	532893	0	0
2024-08-23 16:02:47			0	38227	0	0	0	29332	27920	153580	27059	1076333	46630	110908	0	0	8126	532437	0	0
2024-08-23 16:03:47			0	38237	0	0	0	29337	27930	153660	27000	1076343	46609	110910	0	0	8126	532027	0	0
2024-08-23 16:04:47			0	38233	0	0	0	29340	27940	153604	26984	1076343	46632	110911	0	0	8126	532148	0	0
2024-08-23 16:05:47			0	38234	0	0	0	29332	27940	153532	27187	1076388	46609	110908	0	0	8126	532110	0	0
2024-08-23 16:06:47			0	38219	0	0	0	29337	27920	153508	27123	1076306	46608	110910	0	0	8125	532741	0	0
2024-08-23 16:07:47			0	38229	0	0	0	29345	27930	153624	27185	1076378	46621	110913	0	0	8126	532331	0	0
2024-08-23 16:08:47			0	38238	0	0	0	29340	27940	153536	27289	1076423	46599	110911	0	0	8126	531959	0	0
2024-08-23 16:09:47			0	38221	0	0	0	29324	27940	153576	26916	1076334	46609	110905	0	0	8126	532603	0	0
2024-08-23 16:10:47			0	38220	0	0	0	29337	27930	153468	27005	1076343	46609	110910	0	0	8125	532672	0	0
2024-08-23 16:11:47			0	38237	0	0	0	29358	27940	153500	27163	1076397	46610	110918	0	0	8126	531997	0	0
2024-08-23 16:12:47			0	38230	0	0	0	29363	27950	153612	27201	1076460	46611	110920	0	0	8126	532231	0	0
2024-08-23 16:13:47			0	38237	0	0	0	29301	27950	153496	27196	1076361	46611	110896	0	0	8127	531966	0	0
2024-08-23 16:14:47			0	38246	0	0	0	29280	27950	153484	26923	1076361	46611	110888	0	0	8128	531625	0	0
2024-08-23 16:15:47			0	38259	0	0	0	29290	27940	153512	26658	1076316	46599	110892	0	0	8128	531163	0	0
2024-08-23 16:16:47			0	38251	0	0	0	29327	27940	153512	26800	1076361	46609	110906	0	0	8127	531466	0	0
2024-08-23 16:17:47			0	38251	0	0	0	29350	27940	153532	26793	1076423	46599	110915	0	0	8127	531466	0	0
2024-08-23 16:18:47			0	38245	0	0	0	29376	27950	153612	27154	1076406	46623	110925	0	0	8126	531663	0	0
2024-08-23 16:19:47			0	38250	0	0	0	29392	27950	153552	27135	1076469	46611	110931	0	0	8126	531473	0	0
2024-08-23 16:20:47			0	38222	0	0	0	29386	27960	153508	27246	1076541	46612	110929	0	0	8125	532504	0	0
2024-08-23 16:21:47			0	38252	0	0	0	29371	27970	153460	26927	1076550	46602	110923	0	0	8127	531336	0	0
2024-08-23 16:22:47			0	38261	0	0	0	29363	27970	153492	26861	1076496	46613	110920	0	0	8127	530995	0	0
2024-08-23 16:23:47			0	38245	0	0	0	29361	27970	153408	26909	1076496	46613	110919	0	0	8127	531601	0	0
2024-08-23 16:24:47			0	38242	0	0	0	29358	27970	153376	26942	1076523	46613	110918	0	0	8126	531715	0	0
2024-08-23 16:25:47			0	38247	0	0	0	29355	27970	153524	26922	1076523	46602	110917	0	0	8127	531526	0	0
2024-08-23 16:26:47			0	38267	0	0	0	29361	27970	153328	27138	1076523	46602	110919	0	0	8128	530768	0	0
2024-08-23 16:27:47			0	38277	0	0	0	29361	27980	153324	27039	1076514	46613	110919	0	0	8128	530359	0	0
2024-08-23 16:28:47			0	38290	0	0	0	29366	27980	153396	27123	1076541	46613	110921	0	0	8129	529867	0	0
2024-08-23 16:29:47			0	38269	0	0	0	29353	27980	153352	26967	1076577	46614	110916	0	0	8128	530662	0	0
2024-08-23 16:30:47			0	38310	0	0	0	29322	27980	153252	27178	1076496	46591	110904	0	0	8131	529111	0	0
2024-08-23 16:31:47			0	38291	0	0	0	29329	27980	153276	26909	1076487	46590	110907	0	0	8130	529829	0	0
2024-08-23 16:32:47			0	38287	0	0	0	29340	27960	153364	27178	1076460	46590	110911	0	0	8129	530042	0	0
2024-08-23 16:33:47			0	38295	0	0	0	29353	27960	153248	26722	1076460	46601	110916	0	0	8129	529739	0	0
2024-08-23 16:34:47			0	38303	0	0	0	29353	27960	153332	26944	1076406	46601	110916	0	0	8130	529437	0	0
2024-08-23 16:35:47			0	38295	0	0	0	29350	27960	153284	26772	1076514	46612	110915	0	0	8130	529739	0	0
2024-08-23 16:36:47			0	38306	0	0	0	29348	27960	153304	27092	1076460	46624	110914	0	0	8130	529324	0	0
2024-08-23 16:37:47			0	38311	0	0	0	29361	27970	153232	26873	1076469	46613	110919	0	0	8130	529104	0	0
2024-08-23 16:38:47			0	38306	0	0	0	29353	27970	153252	26634	1076523	46625	110916	0	0	8130	529293	0	0
2024-08-23 16:39:47			0	38308	0	0	0	29363	27960	153156	26654	1076487	46612	110920	0	0	8130	529248	0	0
2024-08-23 16:40:47			0	38305	0	0	0	29394	27980	153196	26611	1076568	46613	110932	0	0	8129	529300	0	0
2024-08-23 16:41:47			0	38275	0	0	0	29402	27960	153304	26649	1076594	46634	110935	0	0	8127	530496	0	0
2024-08-23 16:42:47			0	38305	0	0	0	29394	27980	153372	26788	1076631	46603	110932	0	0	8129	529300	0	0
2024-08-23 16:43:47			0	38285	0	0	0	29386	27990	153280	27111	1076613	46615	110929	0	0	8128	530026	0	0
2024-08-23 16:44:47			0	38286	0	0	0	29381	27980	153232	26682	1076568	46602	110927	0	0	8129	530019	0	0
2024-08-23 16:45:47			0	38307	0	0	0	29384	27980	153236	26981	1076541	46635	110928	0	0	8130	529225	0	0
2024-08-23 16:46:47			0	38317	0	0	0	29392	27980	153188	26689	1076550	46614	110931	0	0	8130	528847	0	0
2024-08-23 16:47:47			0	38339	0	0	0	29371	27980	153160	26531	1076568	46613	110923	0	0	8132	528016	0	0
2024-08-23 16:48:47			0	38361	0	0	0	29389	27980	152980	27081	1076595	46625	110930	0	0	8133	527187	0	0
2024-08-23 16:49:47			0	38354	0	0	0	29379	27980	153004	26977	1076604	46603	110926	0	0	8133	527451	0	0
2024-08-23 16:50:47			0	38361	0	0	0	29350	27980	152960	27412	1076577	46614	110915	0	0	8133	527187	0	0
2024-08-23 16:51:47			0	38384	0	0	0	29340	27980	152916	26739	1076550	46603	110911	0	0	8135	526320	0	0
2024-08-23 16:52:47			0	38371	0	0	0	29368	27960	152920	26949	1076541	46612	110922	0	0	8134	526871	0	0
2024-08-23 16:53:47			0	38371	0	0	0	29410	27980	152828	26807	1076684	46614	110938	0	0	8133	526810	0	0
2024-08-23 16:54:47			0	38376	0	0	0	29420	28000	153004	27192	1076685	46627	110942	0	0	8133	526561	0	0
2024-08-23 16:55:47			0	38367	0	0	0	29410	28000	152884	26918	1076739	46649	110938	0	0	8133	526900	0	0
2024-08-23 16:56:47			0	38367	0	0	0	29431	28010	153012	27015	1076846	46640	110946	0	0	8133	526869	0	0
2024-08-23 16:57:47			0	38369	0	0	0	29410	28000	152900	26783	1076828	46638	110938	0	0	8133	526824	0	0
2024-08-23 16:58:47			0	38384	0	0	0	29428	28010	152928	27034	1076820	46640	110945	0	0	8134	526229	0	0
2024-08-23 16:59:47			0	38395	0	0	0	29483	28020	152832	26821	1076963	46640	110966	0	0	8133	525785	0	0
2024-08-23 17:00:47			0	38399	0	0	0	29472	28020	152836	26615	1076999	46640	110962	0	0	8134	525634	0	0
2024-08-23 17:01:47			0	38402	0	0	0	29438	28040	152812	26540	1077090	46631	110949	0	0	8135	525461	0	0
2024-08-23 17:02:47			0	38416	0	0	0	29376	28040	152740	26939	1076892	46653	110925	0	0	8136	524934	0	0
2024-08-23 17:03:47			0	38437	0	0	0	29363	28050	152692	27222	1076910	46598	110920	0	0	8138	524115	0	0
2024-08-23 17:04:47			0	38466	0	0	0	29335	28030	152480	27041	1076739	46597	110909	0	0	8140	523087	0	0
2024-08-23 17:05:47			0	38516	0	0	0	29319	28020	152324	26963	1076622	46584	110903	0	0	8143	521243	0	0
2024-08-23 17:06:47			0	38518	0	0	0	29345	28000	152312	27017	1076613	46583	110913	0	0	8143	521229	0	0
2024-08-23 17:07:47			0	38515	0	0	0	29412	28000	152404	27339	1076667	46605	110939	0	0	8141	521341	0	0
2024-08-23 17:08:47			0	38514	0	0	0	29462	28010	152360	27059	1076811	46617	110958	0	0	8140	521348	0	0
2024-08-23 17:09:47			0	38506	0	0	0	29441	28010	152380	27201	1076873	46652	110950	0	0	8140	521648	0	0
2024-08-23 17:10:47			0	38488	0	0	0	29371	28020	152512	26894	1076829	46618	110923	0	0	8140	522292	0	0
2024-08-23 17:11:47			0	38492	0	0	0	29324	28010	152420	26762	1076712	46607	110905	0	0	8141	522172	0	0
2024-08-23 17:12:47			0	38525	0	0	0	29314	28010	152384	26679	1076649	46594	110901	0	0	8144	520937	0	0
2024-08-23 17:13:47			0	38502	0	0	0	29311	28000	152392	27007	1076523	46605	110900	0	0	8142	521828	0	0
2024-08-23 17:14:47			0	38491	0	0	0	29366	27990	152436	27360	1076559	46592	110921	0	0	8141	522270	0	0
2024-08-23 17:15:47			0	38500	0	0	0	29397	27990	152432	27255	1076595	46626	110933	0	0	8141	521933	0	0
2024-08-23 17:16:47			0	38497	0	0	0	29425	27990	152464	27062	1076756	46604	110944	0	0	8140	522045	0	0
2024-08-23 17:17:47			0	38487	0	0	0	29431	28000	152540	27119	1076828	46616	110946	0	0	8139	522390	0	0
2024-08-23 17:18:47			0	38492	0	0	0	29366	28010	152556	27083	1076703	46628	110921	0	0	8141	522172	0	0
2024-08-23 17:19:47			0	38477	0	0	0	29345	28000	152552	27178	1076667	46605	110913	0	0	8140	522765	0	0
2024-08-23 17:20:47			0	38495	0	0	0	29381	28000	152528	26713	1076685	46605	110927	0	0	8141	522090	0	0
2024-08-23 17:21:47			0	38472	0	0	0	29348	28000	152592	27270	1076631	46616	110914	0	0	8140	522952	0	0
2024-08-23 17:22:47			0	38479	0	0	0	29345	28000	152616	27053	1076640	46605	110913	0	0	8140	522690	0	0
2024-08-23 17:23:47			0	38462	0	0	0	29353	28000	152668	27074	1076640	46616	110916	0	0	8139	523327	0	0
2024-08-23 17:24:47			0	38445	0	0	0	29366	28000	152608	27208	1076577	46616	110921	0	0	8138	523966	0	0
2024-08-23 17:25:47			0	38442	0	0	0	29386	27990	152684	27033	1076747	46615	110929	0	0	8137	524108	0	0
2024-08-23 17:26:47			0	38413	0	0	0	29394	28000	152772	27012	1076765	46616	110932	0	0	8136	525168	0	0
2024-08-23 17:27:47			0	38430	0	0	0	29394	28010	152868	27062	1076784	46628	110932	0	0	8137	524499	0	0
2024-08-23 17:28:47			0	38416	0	0	0	29381	28010	152828	27022	1076703	46617	110927	0	0	8136	525025	0	0
2024-08-23 17:29:47			0	38414	0	0	0	29381	28000	152900	27112	1076748	46593	110927	0	0	8136	525130	0	0
2024-08-23 17:30:47			0	38395	0	0	0	29397	28010	152932	27029	1076676	46606	110933	0	0	8135	525815	0	0
2024-08-23 17:31:47			0	38405	0	0	0	29405	28010	152868	26729	1076784	46617	110936	0	0	8135	525439	0	0
2024-08-23 17:32:47			0	38411	0	0	0	29423	28010	152880	26791	1076811	46617	110943	0	0	8135	525213	0	0
2024-08-23 17:33:47			0	38401	0	0	0	29412	28020	152988	27046	1076829	46618	110939	0	0	8135	525559	0	0
2024-08-23 17:34:47			0	38418	0	0	0	29412	28000	152896	27041	1076828	46616	110939	0	0	8136	524980	0	0
2024-08-23 17:35:47			0	38392	0	0	0	29402	28020	152908	27364	1076838	46607	110935	0	0	8134	525898	0	0
2024-08-23 17:36:47			0	38390	0	0	0	29381	28010	152836	27156	1076793	46618	110927	0	0	8135	526003	0	0
2024-08-23 17:37:47			0	38405	0	0	0	29376	28000	152800	27034	1076748	46616	110925	0	0	8136	525469	0	0
2024-08-23 17:38:47			0	38414	0	0	0	29374	28020	152848	27208	1076829	46618	110924	0	0	8136	525070	0	0
2024-08-23 17:39:47			0	38414	0	0	0	29381	28010	152832	27088	1076730	46617	110927	0	0	8136	525100	0	0
2024-08-23 17:40:47			0	38414	0	0	0	29384	28010	152740	27230	1076703	46628	110928	0	0	8136	525100	0	0
2024-08-23 17:41:47			0	38397	0	0	0	29392	28010	152792	26776	1076811	46628	110931	0	0	8135	525740	0	0
2024-08-23 17:42:47			0	38420	0	0	0	29376	28010	152900	27026	1076846	46629	110925	0	0	8136	524875	0	0
2024-08-23 17:43:47			0	38400	0	0	0	29379	28010	152796	26981	1076820	46618	110926	0	0	8135	525627	0	0
2024-08-23 17:44:47			0	38408	0	0	0	29389	28010	152780	26934	1076793	46607	110930	0	0	8136	525326	0	0
2024-08-23 17:45:47			0	38392	0	0	0	29366	28010	152896	27074	1076730	46606	110921	0	0	8135	525928	0	0
2024-08-23 17:46:47			0	38402	0	0	0	29392	28010	152820	26800	1076757	46617	110931	0	0	8135	525552	0	0
2024-08-23 17:47:47			0	38384	0	0	0	29394	28010	152812	26842	1076811	46606	110932	0	0	8134	526229	0	0
2024-08-23 17:48:47			0	38400	0	0	0	29332	28010	152832	26906	1076730	46606	110908	0	0	8136	525627	0	0
2024-08-23 17:49:47			0	38379	0	0	0	29327	28000	152948	27121	1076586	46583	110906	0	0	8135	526448	0	0
2024-08-23 17:50:47			0	38400	0	0	0	29327	27970	152876	26986	1076523	46590	110906	0	0	8136	525748	0	0
2024-08-23 17:51:47			0	38396	0	0	0	29353	27980	152788	26993	1076622	46590	110916	0	0	8135	525868	0	0
2024-08-23 17:52:47			0	38384	0	0	0	29366	27970	152916	26739	1076550	46602	110921	0	0	8134	526351	0	0
2024-08-23 17:53:47			0	38372	0	0	0	29392	27980	152976	26868	1076550	46614	110931	0	0	8133	526772	0	0
2024-08-23 17:54:47			0	38379	0	0	0	29386	27990	153108	26783	1076613	46592	110929	0	0	8134	526478	0	0
2024-08-23 17:55:47			0	38370	0	0	0	29363	27990	153088	26946	1076649	46615	110920	0	0	8134	526817	0	0
2024-08-23 17:56:47			0	38368	0	0	0	29345	27970	152992	26804	1076550	46602	110913	0	0	8134	526953	0	0
2024-08-23 17:57:47			0	38377	0	0	0	29384	27980	153024	26986	1076622	46613	110928	0	0	8134	526584	0	0
2024-08-23 17:58:47			0	38380	0	0	0	29412	27990	152952	27007	1076667	46615	110939	0	0	8133	526440	0	0
2024-08-23 17:59:47			0	38378	0	0	0	29399	27990	152864	27119	1076694	46604	110934	0	0	8134	526516	0	0
2024-08-23 18:00:47			0	38374	0	0	0	29340	27990	152904	27026	1076720	46604	110911	0	0	8134	526666	0	0
2024-08-23 18:01:47			0	38396	0	0	0	29355	27990	152928	27229	1076730	46615	110917	0	0	8135	525838	0	0
2024-08-23 18:02:47			0	38387	0	0	0	29340	27990	153008	27123	1076649	46604	110911	0	0	8135	526177	0	0
2024-08-23 18:03:47			0	38394	0	0	0	29345	27970	152860	26916	1076630	46590	110913	0	0	8135	525974	0	0
2024-08-23 18:04:47			0	38406	0	0	0	29345	27990	152984	27220	1076649	46615	110913	0	0	8136	525462	0	0
2024-08-23 18:05:47			0	38396	0	0	0	29324	27980	152956	26816	1076550	46591	110905	0	0	8136	525868	0	0
2024-08-23 18:06:47			0	38378	0	0	0	29327	27980	152920	27194	1076487	46613	110906	0	0	8135	526546	0	0
2024-08-23 18:07:47			0	38387	0	0	0	29345	27960	153008	26840	1076487	46601	110913	0	0	8135	526268	0	0
2024-08-23 18:08:47			0	38364	0	0	0	29342	27970	153052	26772	1076505	46590	110912	0	0	8134	527104	0	0
2024-08-23 18:09:47			0	38357	0	0	0	29374	27970	153124	27104	1076523	46602	110924	0	0	8133	527368	0	0
2024-08-23 18:10:47			0	38365	0	0	0	29368	27970	153128	26694	1076586	46602	110922	0	0	8133	527066	0	0
2024-08-23 18:11:47			0	38352	0	0	0	29358	27960	153148	27239	1076541	46612	110918	0	0	8133	527587	0	0
2024-08-23 18:12:47			0	38343	0	0	0	29368	27970	153128	26816	1076576	46613	110922	0	0	8132	527896	0	0
2024-08-23 18:13:47			0	38360	0	0	0	29371	27960	153168	27267	1076541	46624	110923	0	0	8133	527285	0	0
2024-08-23 18:14:47			0	38353	0	0	0	29379	27960	153116	27119	1076594	46624	110926	0	0	8132	527549	0	0
2024-08-23 18:15:47			0	38353	0	0	0	29368	27970	153152	27083	1076586	46613	110922	0	0	8133	527519	0	0
2024-08-23 18:16:47			0	38354	0	0	0	29363	27980	153108	27107	1076595	46613	110920	0	0	8133	527451	0	0
2024-08-23 18:17:47			0	38379	0	0	0	29355	27970	153156	26644	1076603	46613	110917	0	0	8134	526539	0	0
2024-08-23 18:18:47			0	38365	0	0	0	29337	27980	153088	26715	1076568	46613	110910	0	0	8134	527036	0	0
2024-08-23 18:19:47			0	38369	0	0	0	29309	27970	153052	26726	1076469	46602	110899	0	0	8135	526916	0	0
2024-08-23 18:20:47			0	38367	0	0	0	29311	27960	153016	26731	1076379	46590	110900	0	0	8134	527021	0	0
2024-08-23 18:21:47			0	38363	0	0	0	29322	27960	153044	26783	1076424	46611	110904	0	0	8134	527172	0	0
2024-08-23 18:22:47			0	38364	0	0	0	29345	27950	153048	27008	1076486	46588	110913	0	0	8134	527165	0	0
2024-08-23 18:23:47			0	38365	0	0	0	29366	27950	153100	26883	1076442	46600	110921	0	0	8133	527127	0	0
2024-08-23 18:24:47			0	38371	0	0	0	29350	27950	153084	26927	1076388	46611	110915	0	0	8134	526901	0	0
2024-08-23 18:25:47			0	38360	0	0	0	29361	27950	153128	26859	1076460	46611	110919	0	0	8133	527316	0	0
2024-08-23 18:26:47			0	38345	0	0	0	29358	27950	153132	26913	1076522	46611	110918	0	0	8132	527881	0	0
2024-08-23 18:27:47			0	38344	0	0	0	29350	27960	153132	26909	1076478	46623	110915	0	0	8132	527889	0	0
2024-08-23 18:28:47			0	38338	0	0	0	29368	27950	153156	26774	1076460	46611	110922	0	0	8132	528146	0	0
2024-08-23 18:29:47			0	38348	0	0	0	29361	27950	153224	26698	1076460	46611	110919	0	0	8132	527768	0	0
2024-08-23 18:30:47			0	38350	0	0	0	29350	27950	153096	26899	1076415	46623	110915	0	0	8133	527693	0	0
2024-08-23 18:31:47			0	38347	0	0	0	29350	27960	153196	26658	1076460	46624	110915	0	0	8132	527775	0	0
2024-08-23 18:32:47			0	38343	0	0	0	29324	27950	153080	26949	1076460	46611	110905	0	0	8133	527957	0	0
2024-08-23 18:33:47			0	38336	0	0	0	29288	27950	153196	27111	1076433	46600	110891	0	0	8133	528221	0	0
2024-08-23 18:34:47			0	38365	0	0	0	29301	27950	153064	26868	1076352	46600	110896	0	0	8134	527127	0	0
2024-08-23 18:35:47			0	38341	0	0	0	29309	27940	153096	26857	1076334	46609	110899	0	0	8133	528063	0	0
2024-08-23 18:36:47			0	38350	0	0	0	29324	27940	153136	26686	1076388	46609	110905	0	0	8133	527723	0	0
2024-08-23 18:37:47			0	38320	0	0	0	29335	27940	153312	26750	1076361	46609	110909	0	0	8131	528856	0	0
2024-08-23 18:38:47			0	38309	0	0	0	29314	27940	153332	26779	1076361	46598	110901	0	0	8131	529271	0	0
2024-08-23 18:39:47			0	38284	0	0	0	29296	27940	153380	27112	1076334	46609	110894	0	0	8130	530217	0	0
2024-08-23 18:40:47			0	38288	0	0	0	29293	27930	153372	26809	1076289	46609	110893	0	0	8130	530096	0	0
2024-08-23 18:41:47			0	38287	0	0	0	29293	27930	153388	26908	1076316	46609	110893	0	0	8130	530134	0	0
2024-08-23 18:42:47			0	38292	0	0	0	29290	27920	153428	26934	1076280	46597	110892	0	0	8130	529975	0	0
2024-08-23 18:43:47			0	38300	0	0	0	29290	27920	153392	27118	1076163	46596	110892	0	0	8131	529673	0	0
2024-08-23 18:44:47			0	38294	0	0	0	29303	27910	153476	26934	1076199	46628	110897	0	0	8130	529930	0	0
2024-08-23 18:45:47			0	38279	0	0	0	29306	27910	153544	26956	1076261	46606	110898	0	0	8129	530498	0	0
2024-08-23 18:46:47			0	38251	0	0	0	29311	27920	153548	26675	1076217	46607	110900	0	0	8127	531527	0	0
2024-08-23 18:47:47			0	38252	0	0	0	29303	27910	153592	27074	1076261	46628	110897	0	0	8128	531520	0	0
2024-08-23 18:48:47			0	38255	0	0	0	29296	27910	153600	26894	1076199	46606	110894	0	0	8128	531406	0	0
2024-08-23 18:49:47			0	38234	0	0	0	29288	27910	153564	26654	1076252	46595	110891	0	0	8127	532202	0	0
2024-08-23 18:50:47			0	38250	0	0	0	29241	27900	153588	26927	1076126	46605	110873	0	0	8129	531626	0	0
2024-08-23 18:51:47			0	38239	0	0	0	29228	27900	153584	26882	1076072	46594	110868	0	0	8128	532043	0	0
2024-08-23 18:52:47			0	38240	0	0	0	29225	27890	153748	26996	1076000	46593	110867	0	0	8128	532036	0	0
2024-08-23 18:53:47			0	38236	0	0	0	29233	27890	153740	27225	1076027	46593	110870	0	0	8128	532188	0	0
2024-08-23 18:54:47			0	38229	0	0	0	29231	27880	153676	27287	1075982	46592	110869	0	0	8127	532484	0	0
2024-08-23 18:55:47			0	38194	0	0	0	29233	27870	153744	26856	1075973	46580	110870	0	0	8125	533844	0	0
2024-08-23 18:56:47			0	38203	0	0	0	29259	27870	153836	26975	1075991	46602	110880	0	0	8125	533502	0	0
2024-08-23 18:57:47			0	38201	0	0	0	29259	27870	153872	26844	1076054	46580	110880	0	0	8125	533578	0	0
2024-08-23 18:58:47			0	38185	0	0	0	29264	27860	153960	26868	1075946	46601	110882	0	0	8124	534217	0	0
2024-08-23 18:59:47			0	38171	0	0	0	29270	27870	153968	26840	1076108	46614	110884	0	0	8123	534718	0	0
2024-08-23 19:00:47			0	38166	0	0	0	29270	27870	154036	26998	1076054	46614	110884	0	0	8123	534908	0	0
2024-08-23 19:01:47			0	38167	0	0	0	29283	27870	153996	26733	1076099	46625	110889	0	0	8123	534870	0	0
2024-08-23 19:02:47			0	38168	0	0	0	29288	27870	153884	27033	1076045	46614	110891	0	0	8123	534832	0	0
2024-08-23 19:03:47			0	38189	0	0	0	29275	27870	153868	26625	1076081	46625	110886	0	0	8124	534034	0	0
2024-08-23 19:04:47			0	38182	0	0	0	29277	27870	153876	27034	1076054	46614	110887	0	0	8124	534300	0	0
2024-08-23 19:05:47			0	38196	0	0	0	29285	27870	153848	26878	1076045	46614	110890	0	0	8125	533768	0	0
2024-08-23 19:06:47			0	38208	0	0	0	29267	27870	153904	27093	1076027	46614	110883	0	0	8126	533312	0	0
2024-08-23 19:07:47			0	38214	0	0	0	29231	27870	153856	26981	1075964	46602	110869	0	0	8126	533084	0	0
2024-08-23 19:08:47			0	38186	0	0	0	29238	27870	153828	27043	1075964	46591	110872	0	0	8125	534148	0	0
2024-08-23 19:09:47			0	38193	0	0	0	29246	27870	153740	27060	1076027	46602	110875	0	0	8125	533882	0	0
2024-08-23 19:10:47			0	38181	0	0	0	29262	27850	153676	27046	1075937	46589	110881	0	0	8124	534400	0	0
2024-08-23 19:11:47			0	38187	0	0	0	29244	27860	153836	27050	1075946	46601	110874	0	0	8125	534141	0	0
2024-08-23 19:12:47			0	38174	0	0	0	29262	27860	153872	26875	1075892	46601	110881	0	0	8124	534635	0	0
2024-08-23 19:13:47			0	38173	0	0	0	29251	27860	153936	26708	1075955	46625	110877	0	0	8124	534673	0	0
2024-08-23 19:14:47			0	38168	0	0	0	29254	27840	153968	27156	1075919	46622	110878	0	0	8123	534925	0	0
2024-08-23 19:15:47			0	38161	0	0	0	29238	27850	154032	26979	1075937	46600	110872	0	0	8123	535160	0	0
2024-08-23 19:16:47			0	38170	0	0	0	29225	27850	154024	26885	1075937	46612	110867	0	0	8124	534818	0	0
2024-08-23 19:17:47			0	38179	0	0	0	29228	27850	154076	26831	1075937	46623	110868	0	0	8124	534476	0	0
2024-08-23 19:18:47			0	38162	0	0	0	29233	27850	154000	26915	1075883	46600	110870	0	0	8123	535122	0	0
2024-08-23 19:19:47			0	38183	0	0	0	29233	27850	154012	26805	1075883	46612	110870	0	0	8125	534324	0	0
2024-08-23 19:20:47			0	38159	0	0	0	29236	27850	154056	26644	1075874	46599	110871	0	0	8123	535237	0	0
2024-08-23 19:21:47			0	38133	0	0	0	29238	27850	154028	26720	1075901	46599	110872	0	0	8122	536227	0	0
2024-08-23 19:22:47			0	38101	0	0	0	29238	27840	154100	27100	1075865	46622	110872	0	0	8120	537478	0	0
2024-08-23 19:23:47			0	38122	0	0	0	29251	27840	154184	26972	1075910	46622	110877	0	0	8121	536677	0	0
2024-08-23 19:24:47			0	38097	0	0	0	29244	27850	154328	26882	1075901	46599	110874	0	0	8119	537600	0	0
2024-08-23 19:25:47			0	38101	0	0	0	29251	27850	154376	26726	1075937	46623	110877	0	0	8120	537447	0	0
2024-08-23 19:26:47			0	38091	0	0	0	29246	27850	154324	26833	1075928	46622	110875	0	0	8119	537829	0	0
2024-08-23 19:27:47			0	38091	0	0	0	29244	27840	154216	26821	1075919	46622	110874	0	0	8119	537860	0	0
2024-08-23 19:28:47			0	38102	0	0	0	29254	27830	154200	26941	1075928	46610	110878	0	0	8119	537471	0	0
2024-08-23 19:29:47			0	38094	0	0	0	29249	27840	154252	26835	1075919	46611	110876	0	0	8119	537745	0	0
2024-08-23 19:30:47			0	38106	0	0	0	29241	27840	154288	27097	1075991	46622	110873	0	0	8120	537287	0	0
2024-08-23 19:31:47			0	38099	0	0	0	29241	27840	154228	26870	1075973	46622	110873	0	0	8120	537554	0	0
2024-08-23 19:32:47			0	38106	0	0	0	29236	27840	154112	26710	1075865	46622	110871	0	0	8120	537287	0	0
2024-08-23 19:33:47			0	38112	0	0	0	29225	27840	154016	26715	1075865	46599	110867	0	0	8121	537058	0	0
2024-08-23 19:34:47			0	38114	0	0	0	29231	27840	154164	26868	1075829	46599	110869	0	0	8121	536982	0	0
2024-08-23 19:35:47			0	38113	0	0	0	29228	27830	154072	27029	1075847	46610	110868	0	0	8121	537051	0	0
2024-08-23 19:36:47			0	38109	0	0	0	29220	27840	154088	26885	1075883	46611	110865	0	0	8120	537173	0	0
2024-08-23 19:37:47			0	38105	0	0	0	29228	27840	154052	27092	1075883	46611	110868	0	0	8120	537325	0	0
2024-08-23 19:38:47			0	38126	0	0	0	29225	27830	154080	27059	1075847	46621	110867	0	0	8121	536555	0	0
2024-08-23 19:39:47			0	38120	0	0	0	29225	27820	154080	26838	1075829	46597	110867	0	0	8121	536815	0	0
2024-08-23 19:40:47			0	38114	0	0	0	29205	27830	154152	27206	1075757	46620	110859	0	0	8121	537013	0	0
2024-08-23 19:41:47			0	38104	0	0	0	29202	27830	154200	26974	1075757	46597	110858	0	0	8120	537395	0	0
2024-08-23 19:42:47			0	38112	0	0	0	29202	27820	154152	27206	1075748	46597	110858	0	0	8121	537120	0	0
2024-08-23 19:43:47			0	38113	0	0	0	29212	27820	154276	27192	1075748	46609	110862	0	0	8121	537082	0	0
2024-08-23 19:44:47			0	38114	0	0	0	29212	27820	154152	26760	1075739	46597	110862	0	0	8121	537044	0	0
2024-08-23 19:45:47			0	38100	0	0	0	29205	27810	154256	26972	1075703	46596	110859	0	0	8120	537609	0	0
2024-08-23 19:46:47			0	38080	0	0	0	29212	27810	154332	27208	1075811	46596	110862	0	0	8119	538373	0	0
2024-08-23 19:47:47			0	38054	0	0	0	29215	27820	154492	27152	1075766	46630	110863	0	0	8117	539336	0	0
2024-08-23 19:48:47			0	38042	0	0	0	29212	27810	154416	27092	1075730	46596	110862	0	0	8117	539826	0	0
2024-08-23 19:49:47			0	38046	0	0	0	29186	27810	154428	26928	1075721	46628	110852	0	0	8117	539673	0	0
2024-08-23 19:50:47			0	38059	0	0	0	29202	27820	154420	26847	1075712	46609	110858	0	0	8118	539145	0	0
2024-08-23 19:51:47			0	38058	0	0	0	29207	27810	154428	26868	1075757	46619	110860	0	0	8118	539214	0	0
2024-08-23 19:52:47			0	38050	0	0	0	29199	27810	154560	27041	1075667	46618	110857	0	0	8117	539520	0	0
2024-08-23 19:53:47			0	38055	0	0	0	29205	27800	154436	27100	1075739	46607	110859	0	0	8117	539360	0	0
2024-08-23 19:54:47			0	38049	0	0	0	29202	27810	154504	26955	1075721	46618	110858	0	0	8117	539558	0	0
2024-08-23 19:55:47			0	38023	0	0	0	29202	27810	154563	27124	1075721	46618	110858	0	0	8116	540554	0	0
2024-08-23 19:56:47			0	38032	0	0	0	29202	27790	154448	26788	1075676	46607	110858	0	0	8116	540271	0	0
2024-08-23 19:57:47			0	38032	0	0	0	29197	27800	154616	27293	1075739	46628	110856	0	0	8116	540240	0	0
2024-08-23 19:58:47			0	38022	0	0	0	29192	27790	154608	27178	1075649	46595	110854	0	0	8116	540654	0	0
2024-08-23 19:59:47			0	38027	0	0	0	29199	27810	154716	27209	1075748	46618	110857	0	0	8116	540400	0	0
2024-08-23 20:00:47			0	37996	0	0	0	29197	27790	154699	27055	1075622	46618	110856	0	0	8114	541651	0	0
2024-08-23 20:01:47			0	37990	0	0	0	29199	27780	154671	26861	1075631	46593	110857	0	0	8114	541912	0	0
2024-08-23 20:02:47			0	37966	0	0	0	29197	27800	154735	26927	1075658	46595	110856	0	0	8112	542771	0	0
2024-08-23 20:03:47			0	37962	0	0	0	29173	27810	154663	27111	1075640	46618	110847	0	0	8113	542893	0	0
2024-08-23 20:04:47			0	37940	0	0	0	29158	27790	154775	27154	1075649	46595	110841	0	0	8112	543801	0	0
2024-08-23 20:05:47			0	37940	0	0	0	29088	27780	154899	26675	1075406	46604	110814	0	0	8113	543833	0	0
2024-08-23 20:06:47			0	37933	0	0	0	29064	27770	154935	26880	1075370	46582	110805	0	0	8113	544133	0	0
2024-08-23 20:07:47			0	37857	0	0	0	29070	27760	155139	26680	1075235	46580	110807	0	0	8108	547093	0	0
2024-08-23 20:08:47			0	37810	0	0	0	29085	27740	155387	27071	1075226	46578	110813	0	0	8105	548972	0	0
2024-08-23 20:09:47			0	37788	0	0	0	29098	27730	155567	26902	1075190	46566	110818	0	0	8104	549856	0	0
2024-08-23 20:10:47			0	37767	0	0	0	29049	27710	155611	26981	1075073	46576	110799	0	0	8103	550733	0	0
2024-08-23 20:11:47			0	37745	0	0	0	29072	27720	155787	26953	1075136	46586	110808	0	0	8101	551554	0	0
2024-08-23 20:12:47			0	37724	0	0	0	29080	27710	155783	26769	1075091	46597	110811	0	0	8100	552401	0	0
2024-08-23 20:13:47			0	37703	0	0	0	29057	27710	155859	26654	1075091	46575	110802	0	0	8099	553218	0	0
2024-08-23 20:14:47			0	37728	0	0	0	29083	27700	155923	26672	1075028	46585	110812	0	0	8100	552278	0	0
2024-08-23 20:15:47			0	37684	0	0	0	29088	27700	155859	26809	1075136	46608	110814	0	0	8098	553989	0	0
2024-08-23 20:16:47			0	37686	0	0	0	29093	27690	155923	26556	1075082	46583	110816	0	0	8098	553943	0	0
2024-08-23 20:17:47			0	37706	0	0	0	29098	27700	155891	26840	1075127	46607	110818	0	0	8099	553133	0	0
2024-08-23 20:18:47			0	37722	0	0	0	29109	27700	155947	26771	1075127	46607	110822	0	0	8099	552511	0	0
2024-08-23 20:19:47			0	37702	0	0	0	29096	27700	155915	26845	1075154	46584	110817	0	0	8098	553288	0	0
2024-08-23 20:20:47			0	37713	0	0	0	29114	27700	155827	26892	1075136	46619	110824	0	0	8099	552861	0	0
2024-08-23 20:21:47			0	37712	0	0	0	29122	27700	155767	26949	1075208	46596	110827	0	0	8099	552899	0	0
2024-08-23 20:22:47			0	37706	0	0	0	29114	27700	155819	27020	1075181	46618	110824	0	0	8098	553133	0	0
2024-08-23 20:23:47			0	37706	0	0	0	29114	27700	155855	26793	1075163	46619	110824	0	0	8098	553133	0	0
2024-08-23 20:24:47			0	37706	0	0	0	29106	27700	155891	26828	1075190	46608	110821	0	0	8099	553133	0	0
2024-08-23 20:25:47			0	37702	0	0	0	29103	27700	155891	27083	1075163	46608	110820	0	0	8098	553288	0	0
2024-08-23 20:26:47			0	37707	0	0	0	29106	27710	155779	26769	1075145	46585	110821	0	0	8099	553062	0	0
2024-08-23 20:27:47			0	37712	0	0	0	29096	27700	155851	26653	1075181	46596	110817	0	0	8099	552899	0	0
2024-08-23 20:28:47			0	37717	0	0	0	29018	27710	155779	26797	1075118	46575	110787	0	0	8101	552673	0	0
2024-08-23 20:29:47			0	37714	0	0	0	29025	27690	155847	26746	1074974	46583	110790	0	0	8100	552854	0	0
2024-08-23 20:30:47			0	37696	0	0	0	29062	27670	155855	26986	1074947	46571	110804	0	0	8099	553617	0	0
2024-08-23 20:31:47			0	37661	0	0	0	29080	27680	156127	27092	1075037	46572	110811	0	0	8096	554948	0	0
2024-08-23 20:32:47			0	37625	0	0	0	29072	27670	156143	26835	1075028	46604	110808	0	0	8094	556384	0	0
2024-08-23 20:33:47			0	37624	0	0	0	29072	27680	156183	26941	1074965	46617	110808	0	0	8094	556391	0	0
2024-08-23 20:34:47			0	37614	0	0	0	29070	27680	156211	27112	1074938	46606	110807	0	0	8094	556781	0	0
2024-08-23 20:35:47			0	37620	0	0	0	29059	27670	156111	26981	1074992	46615	110803	0	0	8094	556579	0	0
2024-08-23 20:36:47			0	37660	0	0	0	29072	27670	156027	27098	1074947	46604	110808	0	0	8096	555019	0	0
2024-08-23 20:37:47			0	37693	0	0	0	29059	27680	155907	26968	1074983	46605	110803	0	0	8098	553702	0	0
2024-08-23 20:38:47			0	37684	0	0	0	29057	27670	155831	27123	1074992	46604	110802	0	0	8098	554084	0	0
2024-08-23 20:39:47			0	37694	0	0	0	29062	27670	155815	26986	1074992	46604	110804	0	0	8098	553695	0	0
2024-08-23 20:40:47			0	37692	0	0	0	29064	27670	155943	26916	1074947	46582	110805	0	0	8098	553773	0	0
2024-08-23 20:41:47			0	37708	0	0	0	29059	27670	155915	26937	1074911	46604	110803	0	0	8099	553151	0	0
2024-08-23 20:42:47			0	37692	0	0	0	29057	27660	155923	26920	1074929	46604	110802	0	0	8098	553805	0	0
2024-08-23 20:43:47			0	37676	0	0	0	29059	27660	155891	26994	1074893	46614	110803	0	0	8097	554428	0	0
2024-08-23 20:44:47			0	37688	0	0	0	29057	27670	155919	27045	1074920	46593	110802	0	0	8098	553929	0	0
2024-08-23 20:45:47			0	37716	0	0	0	29067	27660	155907	27072	1074956	46593	110806	0	0	8100	552871	0	0
2024-08-23 20:46:47			0	37691	0	0	0	29083	27660	155787	26958	1074956	46615	110812	0	0	8098	553844	0	0
2024-08-23 20:47:47			0	37702	0	0	0	29059	27660	155919	27196	1074983	46615	110803	0	0	8099	553416	0	0
2024-08-23 20:48:47			0	37711	0	0	0	29054	27650	155843	27298	1074938	46591	110801	0	0	8099	553098	0	0
2024-08-23 20:49:47			0	37697	0	0	0	29038	27660	155819	26778	1074947	46603	110795	0	0	8099	553610	0	0
2024-08-23 20:50:47			0	37698	0	0	0	29044	27650	155803	27225	1074857	46602	110797	0	0	8099	553603	0	0
2024-08-23 20:51:47			0	37697	0	0	0	29041	27650	155831	26734	1074928	46580	110796	0	0	8099	553642	0	0
2024-08-23 20:52:47			0	37685	0	0	0	29038	27650	155875	27185	1074857	46591	110795	0	0	8098	554109	0	0
2024-08-23 20:53:47			0	37675	0	0	0	29033	27650	155979	27112	1074821	46591	110793	0	0	8098	554498	0	0
2024-08-23 20:54:47			0	37642	0	0	0	29038	27650	156115	27128	1074830	46613	110795	0	0	8096	555785	0	0
2024-08-23 20:55:47			0	37617	0	0	0	29031	27630	156203	27031	1074847	46600	110792	0	0	8094	556824	0	0
2024-08-23 20:56:47			0	37628	0	0	0	29025	27640	156227	27038	1074785	46590	110790	0	0	8095	556363	0	0
2024-08-23 20:57:47			0	37601	0	0	0	29023	27640	156299	26979	1074839	46590	110789	0	0	8094	557417	0	0
2024-08-23 20:58:47			0	37602	0	0	0	29012	27640	156279	26868	1074812	46601	110785	0	0	8094	557378	0	0
2024-08-23 20:59:47			0	37591	0	0	0	29015	27630	156347	27222	1074784	46600	110786	0	0	8093	557840	0	0
2024-08-23 21:00:47			0	37570	0	0	0	29020	27630	156427	26856	1074730	46600	110788	0	0	8092	558661	0	0
2024-08-23 21:01:47			0	37542	0	0	0	29023	27620	156599	27064	1074712	46599	110789	0	0	8090	559790	0	0
2024-08-23 21:02:47			0	37527	0	0	0	29020	27620	156591	26863	1074766	46599	110788	0	0	8089	560378	0	0
2024-08-23 21:03:47			0	37532	0	0	0	29025	27620	156735	26887	1074748	46577	110790	0	0	8089	560182	0	0
2024-08-23 21:04:47			0	37516	0	0	0	29033	27620	156683	26953	1074766	46599	110793	0	0	8088	560810	0	0
2024-08-23 21:05:47			0	37501	0	0	0	29025	27630	156763	27182	1074757	46589	110790	0	0	8088	561366	0	0
2024-08-23 21:06:47			0	37500	0	0	0	29025	27630	156723	26750	1074740	46611	110790	0	0	8088	561405	0	0
2024-08-23 21:07:47			0	37502	0	0	0	29018	27630	156823	26987	1074766	46611	110787	0	0	8088	561327	0	0
2024-08-23 21:08:47			0	37496	0	0	0	29025	27620	156879	26961	1074712	46599	110790	0	0	8087	561595	0	0
2024-08-23 21:09:47			0	37503	0	0	0	29010	27630	156847	26807	1074730	46589	110784	0	0	8088	561287	0	0
2024-08-23 21:10:47			0	37487	0	0	0	29015	27620	156831	27180	1074695	46599	110786	0	0	8087	561948	0	0
2024-08-23 21:11:47			0	37496	0	0	0	29018	27620	156711	26967	1074721	46599	110787	0	0	8087	561595	0	0
2024-08-23 21:12:47			0	37509	0	0	0	29025	27610	156755	27020	1074730	46609	110790	0	0	8088	561117	0	0
2024-08-23 21:13:47			0	37504	0	0	0	29033	27630	156687	27104	1074730	46600	110793	0	0	8088	561248	0	0
2024-08-23 21:14:47			0	37503	0	0	0	29028	27620	156759	26968	1074766	46599	110791	0	0	8088	561320	0	0
2024-08-23 21:15:47			0	37505	0	0	0	29031	27620	156807	26994	1074766	46610	110792	0	0	8088	561241	0	0
2024-08-23 21:16:47			0	37518	0	0	0	29028	27620	156771	26861	1074712	46577	110791	0	0	8089	560731	0	0
2024-08-23 21:17:47			0	37514	0	0	0	29020	27620	156619	26845	1074712	46610	110788	0	0	8088	560888	0	0
2024-08-23 21:18:47			0	37532	0	0	0	29007	27610	156679	27157	1074703	46598	110783	0	0	8090	560214	0	0
2024-08-23 21:19:47			0	37524	0	0	0	29015	27620	156687	27003	1074739	46588	110786	0	0	8089	560496	0	0
2024-08-23 21:20:47			0	37519	0	0	0	29015	27620	156715	27190	1074748	46610	110786	0	0	8089	560692	0	0
2024-08-23 21:21:47			0	37523	0	0	0	29012	27620	156699	26982	1074712	46599	110785	0	0	8089	560535	0	0
2024-08-23 21:22:47			0	37530	0	0	0	29002	27610	156719	27069	1074676	46598	110781	0	0	8090	560293	0	0
2024-08-23 21:23:47			0	37515	0	0	0	29015	27610	156755	27105	1074667	46597	110786	0	0	8089	560881	0	0
2024-08-23 21:24:47			0	37537	0	0	0	29015	27610	156695	27301	1074730	46587	110786	0	0	8090	560018	0	0
2024-08-23 21:25:47			0	37531	0	0	0	29005	27610	156679	27204	1074667	46597	110782	0	0	8090	560254	0	0
2024-08-23 21:26:47			0	37523	0	0	0	28997	27610	156631	27005	1074694	46608	110779	0	0	8089	560567	0	0
2024-08-23 21:27:47			0	37532	0	0	0	28994	27600	156631	26713	1074649	46608	110778	0	0	8090	560247	0	0
2024-08-23 21:28:47			0	37511	0	0	0	28986	27600	156643	26623	1074595	46608	110775	0	0	8089	561070	0	0
2024-08-23 21:29:47			0	37527	0	0	0	28979	27600	156659	26668	1074595	46597	110772	0	0	8090	560443	0	0
2024-08-23 21:30:47			0	37535	0	0	0	28984	27600	156663	26791	1074595	46564	110774	0	0	8090	560129	0	0
2024-08-23 21:31:47			0	37518	0	0	0	28981	27590	156647	26783	1074560	46574	110773	0	0	8089	560828	0	0
2024-08-23 21:32:47			0	37541	0	0	0	28981	27580	156667	26871	1074541	46606	110773	0	0	8091	559958	0	0
2024-08-23 21:33:47			0	37536	0	0	0	28981	27590	156691	26882	1074524	46595	110773	0	0	8090	560122	0	0
2024-08-23 21:34:47			0	37545	0	0	0	28973	27580	156655	26989	1074586	46594	110770	0	0	8091	559801	0	0
2024-08-23 21:35:47			0	37545	0	0	0	28984	27590	156623	26939	1074497	46595	110774	0	0	8091	559769	0	0
2024-08-23 21:36:47			0	37555	0	0	0	28984	27590	156611	27142	1074604	46606	110774	0	0	8091	559377	0	0
2024-08-23 21:37:47			0	37554	0	0	0	28981	27590	156683	27078	1074613	46607	110773	0	0	8091	559417	0	0
2024-08-23 21:38:47			0	37561	0	0	0	28984	27580	156507	27228	1074568	46606	110774	0	0	8092	559175	0	0
2024-08-23 21:39:47			0	37553	0	0	0	28979	27580	156575	27149	1074515	46595	110772	0	0	8091	559488	0	0
2024-08-23 21:40:47			0	37552	0	0	0	28973	27570	156483	26757	1074496	46594	110770	0	0	8091	559559	0	0
2024-08-23 21:41:47			0	37539	0	0	0	28966	27580	156579	26989	1074532	46583	110767	0	0	8091	560037	0	0
2024-08-23 21:42:47			0	37565	0	0	0	28968	27580	156507	27166	1074559	46594	110768	0	0	8092	559018	0	0
2024-08-23 21:43:47			0	37549	0	0	0	28976	27580	156591	27147	1074479	46594	110771	0	0	8091	559645	0	0
2024-08-23 21:44:47			0	37547	0	0	0	28966	27580	156587	27235	1074532	46594	110767	0	0	8091	559723	0	0
2024-08-23 21:45:47			0	37555	0	0	0	28973	27570	156643	26925	1074523	46594	110770	0	0	8091	559442	0	0
2024-08-23 21:46:47			0	37561	0	0	0	28981	27560	156667	26955	1074478	46604	110773	0	0	8092	559239	0	0
2024-08-23 21:47:47			0	37560	0	0	0	28971	27570	156499	27300	1074460	46604	110769	0	0	8092	559246	0	0
2024-08-23 21:48:47			0	37565	0	0	0	28968	27560	156703	27083	1074505	46604	110768	0	0	8092	559082	0	0
2024-08-23 21:49:47			0	37572	0	0	0	28976	27580	156567	27156	1074532	46572	110771	0	0	8092	558744	0	0
2024-08-23 21:50:47			0	37561	0	0	0	28976	27570	156559	27000	1074523	46605	110771	0	0	8092	559207	0	0
2024-08-23 21:51:47			0	37575	0	0	0	28968	27580	156531	26939	1074541	46606	110768	0	0	8093	558627	0	0
2024-08-23 21:52:47			0	37579	0	0	0	28971	27560	156531	27178	1074478	46604	110769	0	0	8093	558534	0	0
2024-08-23 21:53:47			0	37571	0	0	0	28971	27570	156511	27190	1074514	46604	110769	0	0	8092	558815	0	0
2024-08-23 21:54:47			0	37586	0	0	0	28973	27570	156487	26984	1074541	46593	110770	0	0	8093	558228	0	0
2024-08-23 21:55:47			0	37593	0	0	0	28976	27580	156463	27020	1074505	46594	110771	0	0	8094	557922	0	0
2024-08-23 21:56:47			0	37581	0	0	0	28984	27570	156455	27045	1074470	46594	110774	0	0	8093	558424	0	0
2024-08-23 21:57:47			0	37586	0	0	0	28976	27570	156611	27343	1074595	46593	110771	0	0	8093	558228	0	0
2024-08-23 21:58:47			0	37601	0	0	0	28976	27570	156551	27038	1074496	46605	110771	0	0	8094	557642	0	0
2024-08-23 21:59:47			0	37592	0	0	0	28971	27570	156519	27102	1074460	46593	110769	0	0	8094	557994	0	0
2024-08-23 22:00:47			0	37602	0	0	0	28976	27560	156559	27048	1074505	46571	110771	0	0	8094	557635	0	0
2024-08-23 22:01:47			0	37600	0	0	0	28971	27570	156383	27107	1074514	46593	110769	0	0	8094	557681	0	0
2024-08-23 22:02:47			0	37604	0	0	0	28968	27570	156479	27464	1074443	46605	110768	0	0	8094	557524	0	0
2024-08-23 22:03:47			0	37599	0	0	0	28968	27570	156427	27111	1074470	46594	110768	0	0	8094	557720	0	0
2024-08-23 22:04:47			0	37611	0	0	0	28963	27570	156391	27013	1074460	46593	110766	0	0	8095	557251	0	0
2024-08-23 22:05:47			0	37602	0	0	0	28971	27560	156415	27177	1074478	46604	110769	0	0	8094	557635	0	0
2024-08-23 22:06:47			0	37602	0	0	0	28971	27570	156323	27332	1074496	46617	110769	0	0	8094	557603	0	0
2024-08-23 22:07:47			0	37612	0	0	0	28976	27570	156319	27048	1074523	46605	110771	0	0	8095	557212	0	0
2024-08-23 22:08:47			0	37605	0	0	0	28963	27570	156351	27358	1074460	46604	110766	0	0	8094	557485	0	0
2024-08-23 22:09:47			0	37595	0	0	0	28979	27560	156379	26942	1074451	46604	110772	0	0	8094	557908	0	0
2024-08-23 22:10:47			0	37618	0	0	0	28979	27570	156343	27249	1074541	46593	110772	0	0	8095	556977	0	0
2024-08-23 22:11:47			0	37616	0	0	0	28968	27560	156367	27123	1074505	46604	110768	0	0	8095	557088	0	0
2024-08-23 22:12:47			0	37627	0	0	0	28973	27560	156403	27145	1074451	46604	110770	0	0	8096	556658	0	0
2024-08-23 22:13:47			0	37612	0	0	0	28971	27560	156315	27275	1074496	46603	110769	0	0	8095	557244	0	0
2024-08-23 22:14:47			0	37629	0	0	0	28963	27570	156371	27057	1074434	46604	110766	0	0	8096	556548	0	0
2024-08-23 22:15:47			0	37615	0	0	0	28963	27550	156403	26870	1074433	46592	110766	0	0	8095	557159	0	0
2024-08-23 22:16:47			0	37615	0	0	0	28961	27560	156391	27260	1074451	46593	110765	0	0	8095	557127	0	0
2024-08-23 22:17:47			0	37614	0	0	0	28958	27570	156367	27267	1074514	46593	110764	0	0	8095	557134	0	0
2024-08-23 22:18:47			0	37616	0	0	0	28950	27560	156323	27251	1074425	46593	110761	0	0	8095	557088	0	0
2024-08-23 22:19:47			0	37592	0	0	0	28945	27560	156399	27149	1074478	46593	110759	0	0	8094	558026	0	0
2024-08-23 22:20:47			0	37611	0	0	0	28950	27550	156379	27204	1074433	46603	110761	0	0	8095	557315	0	0
2024-08-23 22:21:47			0	37625	0	0	0	28932	27560	156399	27343	1074416	46592	110754	0	0	8096	556736	0	0
2024-08-23 22:22:47			0	37610	0	0	0	28940	27550	156347	27206	1074380	46603	110757	0	0	8095	557354	0	0
2024-08-23 22:23:47			0	37601	0	0	0	28942	27550	156459	27201	1074397	46614	110758	0	0	8095	557706	0	0
2024-08-23 22:24:47			0	37591	0	0	0	28932	27540	156443	26790	1074335	46591	110754	0	0	8094	558129	0	0
2024-08-23 22:25:47			0	37600	0	0	0	28940	27550	156495	26840	1074353	46592	110757	0	0	8094	557745	0	0
2024-08-23 22:26:47			0	37598	0	0	0	28942	27540	156407	26896	1074335	46581	110758	0	0	8094	557855	0	0
2024-08-23 22:27:47			0	37606	0	0	0	28940	27540	156291	27183	1074299	46590	110757	0	0	8095	557543	0	0
2024-08-23 22:28:47			0	37598	0	0	0	28919	27540	156359	27072	1074335	46602	110749	0	0	8095	557855	0	0
2024-08-23 22:29:47			0	37611	0	0	0	28911	27540	156375	27220	1074281	46591	110746	0	0	8096	557347	0	0
2024-08-23 22:30:47			0	37604	0	0	0	28922	27540	156491	27029	1074272	46613	110750	0	0	8095	557621	0	0
2024-08-23 22:31:47			0	37607	0	0	0	28922	27530	156427	27346	1074307	46589	110750	0	0	8095	557536	0	0
2024-08-23 22:32:47			0	37613	0	0	0	28916	27530	156431	27213	1074307	46612	110748	0	0	8096	557301	0	0
2024-08-23 22:33:47			0	37614	0	0	0	28922	27530	156427	27192	1074289	46590	110750	0	0	8096	557262	0	0
2024-08-23 22:34:47			0	37592	0	0	0	28914	27530	156499	27123	1074280	46589	110747	0	0	8094	558122	0	0
2024-08-23 22:35:47			0	37604	0	0	0	28914	27530	156575	27281	1074289	46590	110747	0	0	8095	557653	0	0
2024-08-23 22:36:47			0	37583	0	0	0	28906	27530	156527	27241	1074199	46600	110744	0	0	8094	558474	0	0
2024-08-23 22:37:47			0	37592	0	0	0	28903	27530	156607	27048	1074235	46590	110743	0	0	8095	558122	0	0
2024-08-23 22:38:47			0	37579	0	0	0	28906	27530	156519	27126	1074199	46589	110744	0	0	8094	558631	0	0
2024-08-23 22:39:47			0	37573	0	0	0	28906	27510	156511	27078	1074226	46587	110744	0	0	8093	558930	0	0
2024-08-23 22:40:47			0	37557	0	0	0	28906	27530	156627	27173	1074173	46589	110744	0	0	8092	559492	0	0
2024-08-23 22:41:47			0	37560	0	0	0	28916	27510	156611	26901	1074235	46578	110748	0	0	8092	559439	0	0
2024-08-23 22:42:47			0	37568	0	0	0	28909	27510	156723	27029	1074226	46598	110745	0	0	8093	559126	0	0
2024-08-23 22:43:47			0	37548	0	0	0	28909	27520	156567	27274	1074190	46599	110745	0	0	8092	559877	0	0
2024-08-23 22:44:47			0	37560	0	0	0	28914	27510	156675	27041	1074181	46599	110747	0	0	8092	559439	0	0
2024-08-23 22:45:47			0	37556	0	0	0	28916	27510	156639	26975	1074226	46610	110748	0	0	8092	559596	0	0
2024-08-23 22:46:47			0	37542	0	0	0	28903	27510	156739	27071	1074172	46587	110743	0	0	8092	560145	0	0
2024-08-23 22:47:47			0	37561	0	0	0	28893	27510	156799	26935	1074199	46587	110739	0	0	8093	559400	0	0
2024-08-23 22:48:47			0	37547	0	0	0	28898	27500	156695	27379	1074163	46610	110741	0	0	8092	559981	0	0
2024-08-23 22:49:47			0	37539	0	0	0	28896	27500	156727	27150	1074163	46598	110740	0	0	8091	560294	0	0
2024-08-23 22:50:47			0	37549	0	0	0	28898	27510	156747	27067	1074092	46598	110741	0	0	8092	559870	0	0
2024-08-23 22:51:47			0	37546	0	0	0	28890	27500	156755	27352	1074181	46586	110738	0	0	8092	560020	0	0
2024-08-23 22:52:47			0	37535	0	0	0	28898	27500	156799	27341	1074127	46586	110741	0	0	8091	560451	0	0
2024-08-23 22:53:47			0	37527	0	0	0	28903	27500	156871	27298	1074127	46609	110743	0	0	8091	560765	0	0
2024-08-23 22:54:47			0	37522	0	0	0	28896	27500	156899	27331	1074163	46598	110740	0	0	8090	560961	0	0
2024-08-23 22:55:47			0	37528	0	0	0	28903	27500	156975	27711	1074154	46586	110743	0	0	8091	560726	0	0
2024-08-23 22:56:47			0	37504	0	0	0	28890	27500	156775	27410	1074181	46586	110738	0	0	8090	561668	0	0
2024-08-23 22:57:47			0	37496	0	0	0	28903	27490	156823	27119	1074136	46596	110743	0	0	8089	562015	0	0
2024-08-23 22:58:47			0	37501	0	0	0	28898	27500	156843	27057	1074163	46598	110741	0	0	8089	561786	0	0
2024-08-23 22:59:47			0	37504	0	0	0	28890	27500	156915	27381	1074083	46587	110738	0	0	8090	561668	0	0
2024-08-23 23:00:47			0	37485	0	0	0	28898	27490	156979	27422	1074172	46597	110741	0	0	8088	562447	0	0
2024-08-23 23:01:47			0	37487	0	0	0	28896	27500	157023	27300	1074190	46587	110740	0	0	8088	562336	0	0
2024-08-23 23:02:47			0	37477	0	0	0	28903	27500	157055	26942	1074100	46597	110743	0	0	8088	562729	0	0
2024-08-23 23:03:47			0	37491	0	0	0	28898	27500	157015	27138	1074127	46597	110741	0	0	8089	562179	0	0
2024-08-23 23:04:47			0	37461	0	0	0	28893	27500	157003	27067	1074136	46610	110739	0	0	8087	563359	0	0
2024-08-23 23:05:47			0	37495	0	0	0	28893	27490	157023	27041	1074109	46585	110739	0	0	8089	562054	0	0
2024-08-23 23:06:47			0	37486	0	0	0	28888	27480	157143	27093	1074020	46596	110737	0	0	8088	562440	0	0
2024-08-23 23:07:47			0	37450	0	0	0	28896	27500	157131	27097	1074074	46586	110740	0	0	8086	563792	0	0
2024-08-23 23:08:47			0	37468	0	0	0	28883	27490	157067	27253	1074109	46608	110735	0	0	8088	563116	0	0
2024-08-23 23:09:47			0	37472	0	0	0	28898	27490	157031	27235	1074082	46585	110741	0	0	8087	562958	0	0
2024-08-23 23:10:47			0	37452	0	0	0	28885	27490	157075	27183	1074145	46609	110736	0	0	8087	563746	0	0
2024-08-23 23:11:47			0	37446	0	0	0	28880	27490	157219	27265	1074029	46585	110734	0	0	8086	563982	0	0
2024-08-23 23:12:47			0	37452	0	0	0	28883	27490	157271	27277	1074109	46596	110735	0	0	8087	563746	0	0
2024-08-23 23:13:47			0	37439	0	0	0	28877	27490	157151	26986	1074065	46586	110733	0	0	8086	564258	0	0
2024-08-23 23:14:47			0	37442	0	0	0	28877	27490	157183	27199	1074136	46575	110733	0	0	8086	564139	0	0
2024-08-23 23:15:47			0	37417	0	0	0	28877	27480	157211	27201	1074046	46596	110733	0	0	8085	565157	0	0
2024-08-23 23:16:47			0	37424	0	0	0	28872	27490	157251	27104	1074002	46596	110731	0	0	8085	564849	0	0
2024-08-23 23:17:47			0	37398	0	0	0	28872	27480	157319	27326	1074037	46607	110731	0	0	8084	565907	0	0
2024-08-23 23:18:47			0	37415	0	0	0	28872	27480	157231	27173	1074046	46596	110731	0	0	8085	565236	0	0
2024-08-23 23:19:47			0	37395	0	0	0	28872	27490	157299	27164	1074002	46596	110731	0	0	8083	565993	0	0
2024-08-23 23:20:47			0	37390	0	0	0	28872	27470	157319	27057	1073975	46584	110731	0	0	8083	566255	0	0
2024-08-23 23:21:47			0	37374	0	0	0	28867	27470	157367	27066	1074028	46595	110729	0	0	8082	566887	0	0
2024-08-23 23:22:47			0	37377	0	0	0	28872	27470	157439	27203	1074028	46595	110731	0	0	8082	566769	0	0
2024-08-23 23:23:47			0	37368	0	0	0	28872	27470	157423	27010	1074028	46595	110731	0	0	8082	567125	0	0
2024-08-23 23:24:47			0	37367	0	0	0	28872	27470	157523	27121	1074001	46584	110731	0	0	8082	567164	0	0
2024-08-23 23:25:47			0	37356	0	0	0	28867	27460	157515	26923	1073930	46605	110729	0	0	8081	567632	0	0
2024-08-23 23:26:47			0	37344	0	0	0	28864	27470	157451	27149	1074001	46584	110728	0	0	8081	568074	0	0
2024-08-23 23:27:47			0	37347	0	0	0	28864	27470	157595	27154	1074001	46595	110728	0	0	8081	567955	0	0
2024-08-23 23:28:47			0	37333	0	0	0	28870	27460	157615	27376	1073956	46593	110730	0	0	8080	568542	0	0
2024-08-23 23:29:47			0	37349	0	0	0	28857	27470	157635	27159	1073965	46583	110725	0	0	8081	567876	0	0
2024-08-23 23:30:47			0	37321	0	0	0	28859	27470	157659	26908	1073939	46583	110726	0	0	8079	568985	0	0
2024-08-23 23:31:47			0	37320	0	0	0	28859	27470	157731	27183	1073992	46594	110726	0	0	8079	569024	0	0
2024-08-23 23:32:47			0	37317	0	0	0	28857	27460	157771	27147	1073947	46605	110725	0	0	8079	569176	0	0
2024-08-23 23:33:47			0	37303	0	0	0	28857	27460	157710	27287	1073956	46593	110725	0	0	8078	569731	0	0
2024-08-23 23:34:47			0	37314	0	0	0	28851	27460	157679	27258	1073920	46605	110723	0	0	8079	569295	0	0
2024-08-23 23:35:47			0	37308	0	0	0	28854	27460	157726	27081	1073947	46605	110724	0	0	8079	569533	0	0
2024-08-23 23:36:47			0	37309	0	0	0	28849	27460	157734	27211	1073903	46605	110722	0	0	8079	569493	0	0
2024-08-23 23:37:47			0	37306	0	0	0	28846	27460	157718	27138	1073930	46583	110721	0	0	8079	569612	0	0
2024-08-23 23:38:47			0	37309	0	0	0	28849	27460	157666	27045	1073947	46593	110722	0	0	8079	569493	0	0
2024-08-23 23:39:47			0	37302	0	0	0	28838	27460	157694	26781	1073920	46605	110718	0	0	8078	569771	0	0
2024-08-23 23:40:47			0	37324	0	0	0	28846	27450	157667	27249	1073911	46593	110721	0	0	8080	568931	0	0
2024-08-23 23:41:47			0	37334	0	0	0	28841	27460	157603	27112	1073956	46605	110719	0	0	8080	568502	0	0
2024-08-23 23:42:47			0	37313	0	0	0	28841	27450	157646	26955	1073831	46616	110719	0	0	8079	569367	0	0
2024-08-23 23:43:47			0	37321	0	0	0	28838	27440	157651	26684	1073867	46581	110718	0	0	8079	569083	0	0
2024-08-23 23:44:47			0	37323	0	0	0	28833	27450	157563	27355	1073849	46592	110716	0	0	8080	568971	0	0
2024-08-23 23:45:47			0	37331	0	0	0	28820	27440	157603	26944	1073813	46591	110711	0	0	8080	568687	0	0
2024-08-23 23:46:47			0	37322	0	0	0	28820	27450	157619	26804	1073822	46582	110711	0	0	8080	569010	0	0
2024-08-23 23:47:47			0	37329	0	0	0	28807	27430	157603	27222	1073822	46570	110706	0	0	8080	568799	0	0
2024-08-23 23:48:47			0	37321	0	0	0	28802	27430	157659	27149	1073795	46591	110704	0	0	8080	569115	0	0
2024-08-23 23:49:47			0	37318	0	0	0	28805	27420	157647	27161	1073723	46579	110705	0	0	8080	569267	0	0
2024-08-23 23:50:47			0	37302	0	0	0	28802	27430	157666	27197	1073768	46591	110704	0	0	8079	569869	0	0
2024-08-23 23:51:47			0	37318	0	0	0	28805	27420	157735	27100	1073750	46579	110705	0	0	8080	569267	0	0
2024-08-23 23:52:47			0	37284	0	0	0	28812	27420	157734	26953	1073750	46579	110708	0	0	8078	570616	0	0
2024-08-23 23:53:47			0	37226	0	0	0	28812	27420	157966	27095	1073696	46568	110708	0	0	8074	572921	0	0
2024-08-23 23:54:47			0	37173	0	0	0	28812	27420	158350	26781	1073696	46589	110708	0	0	8071	575033	0	0
2024-08-23 23:55:47			0	37105	0	0	0	28810	27420	158446	27229	1073714	46601	110707	0	0	8067	577750	0	0
2024-08-23 23:56:47			0	37087	0	0	0	28807	27410	158598	27079	1073651	46588	110706	0	0	8066	578504	0	0
2024-08-23 23:57:47			0	37064	0	0	0	28812	27420	158650	27098	1073750	46579	110708	0	0	8065	579393	0	0
2024-08-23 23:58:47			0	37035	0	0	0	28812	27420	158814	27119	1073741	46589	110708	0	0	8063	580557	0	0
2024-08-23 23:59:47			0	37040	0	0	0	28812	27430	158906	26844	1073786	46580	110708	0	0	8063	580322	0	0
2024-08-24 00:00:47			0	37061	0	0	0	28807	27410	158718	26998	1073651	46578	110706	0	0	8065	579546	0	0
2024-08-24 00:01:47			0	37023	0	0	0	28807	27420	158738	26916	1073714	46601	110706	0	0	8062	581039	0	0
2024-08-24 00:02:47			0	37047	0	0	0	28810	27420	158766	26968	1073660	46579	110707	0	0	8064	580075	0	0
2024-08-24 00:03:47			0	37070	0	0	0	28810	27420	158714	27012	1073750	46589	110707	0	0	8065	579152	0	0
2024-08-24 00:04:47			0	37060	0	0	0	28812	27420	158762	26800	1073750	46589	110708	0	0	8065	579553	0	0
2024-08-24 00:05:47			0	37039	0	0	0	28812	27410	158766	26786	1073678	46578	110708	0	0	8063	580429	0	0
2024-08-24 00:06:47			0	37010	0	0	0	28820	27420	158878	26934	1073741	46589	110711	0	0	8061	581561	0	0
2024-08-24 00:07:47			0	37000	0	0	0	28810	27420	158886	27144	1073741	46601	110707	0	0	8061	581963	0	0
2024-08-24 00:08:47			0	37001	0	0	0	28815	27410	158902	27194	1073678	46600	110709	0	0	8061	581956	0	0
2024-08-24 00:09:47			0	37007	0	0	0	28807	27410	158882	27170	1073722	46600	110706	0	0	8061	581715	0	0
2024-08-24 00:10:47			0	37021	0	0	0	28807	27400	158910	27033	1073659	46577	110706	0	0	8062	581186	0	0
2024-08-24 00:11:47			0	37005	0	0	0	28815	27410	158954	26944	1073651	46588	110709	0	0	8061	581795	0	0
2024-08-24 00:12:47			0	37007	0	0	0	28805	27420	158958	27192	1073687	46579	110705	0	0	8062	581682	0	0
2024-08-24 00:13:47			0	36993	0	0	0	28810	27420	158854	27256	1073714	46601	110707	0	0	8061	582245	0	0
2024-08-24 00:14:47			0	36975	0	0	0	28812	27410	158950	27107	1073758	46588	110708	0	0	8059	583003	0	0
2024-08-24 00:15:47			0	36981	0	0	0	28812	27400	158974	27097	1073659	46577	110708	0	0	8060	582795	0	0
2024-08-24 00:16:47			0	36981	0	0	0	28810	27420	158958	27235	1073723	46589	110707	0	0	8060	582728	0	0
2024-08-24 00:17:47			0	36971	0	0	0	28799	27410	158990	27114	1073597	46600	110703	0	0	8059	583164	0	0
2024-08-24 00:18:47			0	36968	0	0	0	28802	27410	159142	27313	1073695	46600	110704	0	0	8059	583285	0	0
2024-08-24 00:19:47			0	36965	0	0	0	28810	27410	159106	27074	1073695	46588	110707	0	0	8059	583405	0	0
2024-08-24 00:20:47			0	36956	0	0	0	28812	27410	159190	26948	1073722	46588	110708	0	0	8058	583768	0	0
2024-08-24 00:21:47			0	36931	0	0	0	28805	27410	159290	27201	1073641	46600	110705	0	0	8057	584776	0	0
2024-08-24 00:22:47			0	36933	0	0	0	28807	27420	159186	26941	1073714	46589	110706	0	0	8057	584662	0	0
2024-08-24 00:23:47			0	36956	0	0	0	28802	27400	159318	27020	1073686	46577	110704	0	0	8058	583801	0	0
2024-08-24 00:24:47			0	36942	0	0	0	28807	27410	159206	27180	1073651	46611	110706	0	0	8058	584332	0	0
2024-08-24 00:25:47			0	36948	0	0	0	28807	27420	159166	27111	1073714	46589	110706	0	0	8058	584057	0	0
2024-08-24 00:26:47			0	36948	0	0	0	28799	27410	159242	26961	1073722	46588	110703	0	0	8058	584090	0	0
2024-08-24 00:27:47			0	36965	0	0	0	28810	27420	159158	27019	1073660	46579	110707	0	0	8059	583372	0	0
2024-08-24 00:28:47			0	36961	0	0	0	28812	27410	159194	27022	1073678	46600	110708	0	0	8059	583567	0	0
2024-08-24 00:29:47			0	36961	0	0	0	28799	27400	159114	27097	1073686	46587	110703	0	0	8059	583600	0	0
2024-08-24 00:30:47			0	36985	0	0	0	28812	27410	158998	26923	1073668	46588	110708	0	0	8060	582600	0	0
2024-08-24 00:31:47			0	36977	0	0	0	28807	27410	159098	27208	1073668	46600	110706	0	0	8060	582922	0	0
2024-08-24 00:32:47			0	36985	0	0	0	28794	27400	159146	27133	1073632	46577	110701	0	0	8060	582633	0	0
2024-08-24 00:33:47			0	36982	0	0	0	28794	27410	159006	26975	1073615	46578	110701	0	0	8060	582721	0	0
2024-08-24 00:34:47			0	36979	0	0	0	28794	27400	158934	26767	1073623	46576	110701	0	0	8060	582875	0	0
2024-08-24 00:35:47			0	36979	0	0	0	28797	27410	159006	26935	1073641	46578	110702	0	0	8060	582842	0	0
2024-08-24 00:36:47			0	36991	0	0	0	28797	27410	159050	26927	1073615	46588	110702	0	0	8061	582358	0	0
2024-08-24 00:37:47			0	36990	0	0	0	28802	27410	159090	26913	1073588	46588	110704	0	0	8061	582399	0	0
2024-08-24 00:38:47			0	36995	0	0	0	28794	27390	159150	27059	1073587	46576	110701	0	0	8061	582265	0	0
2024-08-24 00:39:47			0	36980	0	0	0	28805	27400	159090	27038	1073623	46586	110705	0	0	8060	582835	0	0
2024-08-24 00:40:47			0	36995	0	0	0	28792	27400	159134	27074	1073650	46598	110700	0	0	8061	582231	0	0
2024-08-24 00:41:47			0	36981	0	0	0	28786	27400	159042	27019	1073570	46598	110698	0	0	8060	582795	0	0
2024-08-24 00:42:47			0	36993	0	0	0	28779	27400	159070	27013	1073579	46599	110695	0	0	8061	582312	0	0
2024-08-24 00:43:47			0	36999	0	0	0	28786	27390	159094	27095	1073561	46586	110698	0	0	8061	582104	0	0
2024-08-24 00:44:47			0	36999	0	0	0	28792	27400	159066	26939	1073543	46598	110700	0	0	8061	582070	0	0
2024-08-24 00:45:47			0	36990	0	0	0	28781	27390	159058	27201	1073578	46586	110696	0	0	8061	582466	0	0
2024-08-24 00:46:47			0	37010	0	0	0	28786	27390	158994	27046	1073587	46598	110698	0	0	8062	581661	0	0
2024-08-24 00:47:47			0	37008	0	0	0	28776	27390	158926	26856	1073641	46586	110694	0	0	8062	581742	0	0
2024-08-24 00:48:47			0	37019	0	0	0	28779	27390	158978	27085	1073641	46598	110695	0	0	8063	581299	0	0
2024-08-24 00:49:47			0	37035	0	0	0	28784	27390	158878	27218	1073525	46586	110697	0	0	8063	580657	0	0
2024-08-24 00:50:47			0	37027	0	0	0	28786	27380	158870	26764	1073596	46575	110698	0	0	8063	581011	0	0
2024-08-24 00:51:47			0	37008	0	0	0	28776	27380	158890	26743	1073569	46585	110694	0	0	8062	581775	0	0
2024-08-24 00:52:47			0	37028	0	0	0	28792	27380	158850	27100	1073596	46597	110700	0	0	8063	580971	0	0
2024-08-24 00:53:47			0	37042	0	0	0	28779	27390	158930	27000	1073578	46586	110695	0	0	8064	580376	0	0
2024-08-24 00:54:47			0	37041	0	0	0	28774	27380	158822	26819	1073596	46597	110693	0	0	8064	580449	0	0
2024-08-24 00:55:47			0	37065	0	0	0	28768	27390	158902	26977	1073578	46586	110691	0	0	8065	579453	0	0
2024-08-24 00:56:47			0	37049	0	0	0	28768	27380	158830	27142	1073569	46597	110691	0	0	8064	580128	0	0
2024-08-24 00:57:47			0	37039	0	0	0	28766	27380	158754	27036	1073542	46608	110690	0	0	8064	580529	0	0
2024-08-24 00:58:47			0	37076	0	0	0	28761	27380	158690	26752	1073569	46585	110688	0	0	8066	579045	0	0
2024-08-24 00:59:47			0	37070	0	0	0	28761	27380	158674	27227	1073480	46596	110688	0	0	8066	579286	0	0
2024-08-24 01:00:47			0	37097	0	0	0	28755	27370	158674	27109	1073551	46584	110686	0	0	8067	578237	0	0
2024-08-24 01:01:47			0	37108	0	0	0	28755	27370	158698	26911	1073488	46574	110686	0	0	8068	577796	0	0
2024-08-24 01:02:47			0	37109	0	0	0	28761	27370	158638	26790	1073471	46584	110688	0	0	8068	577756	0	0
2024-08-24 01:03:47			0	37112	0	0	0	28758	27370	158586	27216	1073435	46584	110687	0	0	8068	577636	0	0
2024-08-24 01:04:47			0	37122	0	0	0	28755	27360	158566	26833	1073417	46594	110686	0	0	8069	577269	0	0
2024-08-24 01:05:47			0	37122	0	0	0	28753	27360	158438	27173	1073453	46583	110685	0	0	8069	577269	0	0
2024-08-24 01:06:47			0	37116	0	0	0	28745	27360	158574	26958	1073470	46583	110682	0	0	8069	577509	0	0
2024-08-24 01:07:47			0	37120	0	0	0	28742	27360	158430	26700	1073426	46595	110681	0	0	8069	577349	0	0
2024-08-24 01:08:47			0	37140	0	0	0	28745	27350	158414	26776	1073381	46583	110682	0	0	8070	576583	0	0
2024-08-24 01:09:47			0	37150	0	0	0	28729	27350	158338	26767	1073408	46583	110676	0	0	8071	576183	0	0
2024-08-24 01:10:47			0	37143	0	0	0	28732	27350	158382	26923	1073318	46583	110677	0	0	8070	576463	0	0
2024-08-24 01:11:47			0	37158	0	0	0	28727	27350	158186	27001	1073327	46583	110675	0	0	8071	575863	0	0
2024-08-24 01:12:47			0	37180	0	0	0	28727	27350	158246	26963	1073372	46594	110675	0	0	8073	574985	0	0
2024-08-24 01:13:47			0	37184	0	0	0	28724	27350	158218	27079	1073318	46583	110674	0	0	8073	574826	0	0
2024-08-24 01:14:47			0	37202	0	0	0	28727	27340	158210	27145	1073255	46593	110675	0	0	8074	574141	0	0
2024-08-24 01:15:47			0	37201	0	0	0	28727	27340	158146	27095	1073309	46593	110675	0	0	8074	574181	0	0
2024-08-24 01:16:47			0	37216	0	0	0	28727	27340	158158	26698	1073282	46604	110675	0	0	8075	573583	0	0
2024-08-24 01:17:47			0	37232	0	0	0	28719	27340	158062	26783	1073300	46581	110672	0	0	8076	572946	0	0
2024-08-24 01:18:47			0	37223	0	0	0	28722	27340	158142	27260	1073300	46592	110673	0	0	8075	573304	0	0
2024-08-24 01:19:47			0	37240	0	0	0	28714	27340	158034	26937	1073246	46570	110670	0	0	8076	572627	0	0
2024-08-24 01:20:47			0	37253	0	0	0	28711	27330	157962	26720	1073210	46580	110669	0	0	8077	572143	0	0
2024-08-24 01:21:47			0	37238	0	0	0	28714	27340	157994	26776	1073246	46581	110670	0	0	8076	572707	0	0
2024-08-24 01:22:47			0	37258	0	0	0	28716	27330	157946	26530	1073255	46580	110671	0	0	8077	571944	0	0
2024-08-24 01:23:47			0	37278	0	0	0	28711	27340	157842	26795	1073246	46581	110669	0	0	8079	571116	0	0
2024-08-24 01:24:47			0	37292	0	0	0	28711	27320	157858	26876	1073353	46580	110669	0	0	8079	570626	0	0
2024-08-24 01:25:47			0	37261	0	0	0	28711	27330	157946	26951	1073228	46580	110669	0	0	8078	571825	0	0
2024-08-24 01:26:47			0	37296	0	0	0	28703	27310	157854	26979	1073120	46589	110666	0	0	8080	570500	0	0
2024-08-24 01:27:47			0	37291	0	0	0	28711	27320	157758	26965	1073210	46579	110669	0	0	8079	570666	0	0
2024-08-24 01:28:47			0	37312	0	0	0	28714	27330	157735	27060	1073228	46580	110670	0	0	8081	569800	0	0
2024-08-24 01:29:47			0	37326	0	0	0	28711	27310	157755	26811	1073201	46567	110669	0	0	8081	569310	0	0
2024-08-24 01:30:47			0	37327	0	0	0	28709	27310	157771	27048	1073219	46567	110668	0	0	8081	569270	0	0
2024-08-24 01:31:47			0	37306	0	0	0	28711	27310	157682	26769	1073201	46578	110669	0	0	8080	570103	0	0
2024-08-24 01:32:47			0	37351	0	0	0	28709	27310	157775	27001	1073201	46600	110668	0	0	8083	568319	0	0
2024-08-24 01:33:47			0	37343	0	0	0	28711	27310	157623	26781	1073174	46589	110669	0	0	8082	568636	0	0
2024-08-24 01:34:47			0	37356	0	0	0	28703	27310	157567	26748	1073201	46578	110666	0	0	8083	568121	0	0
2024-08-24 01:35:47			0	37360	0	0	0	28709	27310	157563	26845	1073174	46567	110668	0	0	8083	567963	0	0
2024-08-24 01:36:47			0	37358	0	0	0	28701	27310	157535	26651	1073165	46578	110665	0	0	8083	568042	0	0
2024-08-24 01:37:47			0	37374	0	0	0	28703	27310	157523	26800	1073219	46589	110666	0	0	8084	567409	0	0
2024-08-24 01:38:47			0	37355	0	0	0	28703	27310	157503	26946	1073147	46567	110666	0	0	8083	568161	0	0
2024-08-24 01:39:47			0	37381	0	0	0	28698	27300	157523	27022	1073120	46588	110664	0	0	8085	567165	0	0
2024-08-24 01:40:47			0	37369	0	0	0	28698	27300	157531	27124	1073156	46567	110664	0	0	8084	567640	0	0
2024-08-24 01:41:47			0	37391	0	0	0	28696	27300	157479	26821	1073156	46578	110663	0	0	8085	566769	0	0
2024-08-24 01:42:47			0	37385	0	0	0	28693	27310	157471	26998	1073138	46578	110662	0	0	8085	566974	0	0
2024-08-24 01:43:47			0	37385	0	0	0	28698	27300	157579	26840	1073129	46578	110664	0	0	8085	567007	0	0
2024-08-24 01:44:47			0	37385	0	0	0	28701	27300	157435	26863	1073102	46600	110665	0	0	8085	567007	0	0
2024-08-24 01:45:47			0	37411	0	0	0	28701	27300	157515	26592	1073129	46589	110665	0	0	8086	565979	0	0
2024-08-24 01:46:47			0	37378	0	0	0	28703	27290	157479	26967	1073138	46576	110666	0	0	8084	567316	0	0
2024-08-24 01:47:47			0	37392	0	0	0	28696	27300	157459	26795	1073093	46577	110663	0	0	8085	566730	0	0
2024-08-24 01:48:47			0	37388	0	0	0	28693	27290	157511	26713	1073030	46587	110662	0	0	8085	566921	0	0
2024-08-24 01:49:47			0	37388	0	0	0	28688	27300	157435	26809	1073093	46577	110660	0	0	8085	566888	0	0
2024-08-24 01:50:47			0	37402	0	0	0	28696	27300	157391	27022	1073120	46577	110663	0	0	8086	566335	0	0
2024-08-24 01:51:47			0	37388	0	0	0	28688	27300	157503	26726	1073075	46578	110660	0	0	8085	566888	0	0
2024-08-24 01:52:47			0	37393	0	0	0	28693	27300	157519	26890	1073129	46589	110662	0	0	8085	566690	0	0
2024-08-24 01:53:47			0	37410	0	0	0	28690	27300	157427	27239	1073147	46577	110661	0	0	8086	566019	0	0
2024-08-24 01:54:47			0	37414	0	0	0	28696	27280	157471	27078	1073039	46587	110663	0	0	8087	565926	0	0
2024-08-24 01:55:47			0	37412	0	0	0	28693	27290	157383	26965	1073111	46587	110662	0	0	8087	565972	0	0
2024-08-24 01:56:47			0	37431	0	0	0	28690	27290	157359	27119	1073111	46576	110661	0	0	8088	565222	0	0
2024-08-24 01:57:47			0	37429	0	0	0	28698	27290	157359	27234	1073057	46576	110664	0	0	8087	565301	0	0
2024-08-24 01:58:47			0	37423	0	0	0	28698	27290	157371	27112	1073075	46587	110664	0	0	8087	565538	0	0
2024-08-24 01:59:47			0	37439	0	0	0	28693	27300	157271	26979	1073093	46588	110662	0	0	8088	564874	0	0
2024-08-24 02:00:47			0	37424	0	0	0	28690	27290	157359	26909	1073138	46576	110661	0	0	8087	565498	0	0
2024-08-24 02:01:47			0	37436	0	0	0	28696	27300	157291	26791	1073120	46588	110663	0	0	8088	564992	0	0
2024-08-24 02:02:47			0	37444	0	0	0	28696	27290	157243	26986	1073075	46587	110663	0	0	8088	564709	0	0
2024-08-24 02:03:47			0	37448	0	0	0	28688	27290	157123	26778	1073138	46576	110660	0	0	8089	564552	0	0
2024-08-24 02:04:47			0	37446	0	0	0	28688	27290	157131	26875	1073075	46587	110660	0	0	8089	564631	0	0
2024-08-24 02:05:47			0	37443	0	0	0	28683	27290	157231	26752	1073111	46587	110658	0	0	8088	564749	0	0
2024-08-24 02:06:47			0	37452	0	0	0	28688	27290	157235	27013	1073048	46576	110660	0	0	8089	564394	0	0
2024-08-24 02:07:47			0	37452	0	0	0	28685	27290	157179	27118	1073057	46587	110659	0	0	8089	564394	0	0
2024-08-24 02:08:47			0	37468	0	0	0	28688	27290	157251	26920	1073075	46576	110660	0	0	8090	563764	0	0
2024-08-24 02:09:47			0	37462	0	0	0	28688	27290	157247	27213	1073111	46576	110660	0	0	8090	564000	0	0
2024-08-24 02:10:47			0	37458	0	0	0	28685	27290	157231	27105	1073048	46576	110659	0	0	8089	564157	0	0
2024-08-24 02:11:47			0	37455	0	0	0	28685	27290	157211	26996	1073057	46576	110659	0	0	8089	564276	0	0
2024-08-24 02:12:47			0	37463	0	0	0	28685	27290	157223	26970	1073084	46587	110659	0	0	8090	563960	0	0
2024-08-24 02:13:47			0	37453	0	0	0	28672	27290	157211	27079	1072994	46587	110654	0	0	8089	564355	0	0
2024-08-24 02:14:47			0	37464	0	0	0	28677	27290	157247	26868	1073021	46587	110656	0	0	8090	563921	0	0
2024-08-24 02:15:47			0	37464	0	0	0	28670	27280	157259	27225	1073057	46575	110653	0	0	8090	563953	0	0
2024-08-24 02:16:47			0	37466	0	0	0	28680	27280	157131	26821	1073030	46575	110657	0	0	8090	563875	0	0
2024-08-24 02:17:47			0	37485	0	0	0	28680	27280	157247	26668	1073066	46587	110657	0	0	8091	563126	0	0
2024-08-24 02:18:47			0	37475	0	0	0	28677	27270	157151	26675	1073074	46552	110656	0	0	8090	563553	0	0
2024-08-24 02:19:47			0	37457	0	0	0	28672	27280	157175	26748	1073039	46598	110654	0	0	8089	564229	0	0
2024-08-24 02:20:47			0	37460	0	0	0	28677	27270	157255	26981	1072967	46585	110656	0	0	8089	564144	0	0
2024-08-24 02:21:47			0	37483	0	0	0	28672	27280	157339	26785	1073030	46564	110654	0	0	8091	563205	0	0
2024-08-24 02:22:47			0	37455	0	0	0	28675	27270	157163	26859	1072994	46585	110655	0	0	8089	564340	0	0
2024-08-24 02:23:47			0	37466	0	0	0	28670	27280	157295	26880	1073083	46564	110653	0	0	8090	563875	0	0
2024-08-24 02:24:47			0	37464	0	0	0	28672	27280	157235	26979	1073003	46575	110654	0	0	8090	563953	0	0
2024-08-24 02:25:47			0	37470	0	0	0	28670	27270	157087	26939	1072940	46574	110653	0	0	8090	563749	0	0
2024-08-24 02:26:47			0	37472	0	0	0	28675	27270	157135	26856	1072994	46574	110655	0	0	8090	563671	0	0
2024-08-24 02:27:47			0	37460	0	0	0	28667	27270	157179	26750	1073074	46574	110652	0	0	8090	564144	0	0
2024-08-24 02:28:47			0	37478	0	0	0	28667	27280	157131	26790	1073030	46586	110652	0	0	8091	563402	0	0
2024-08-24 02:29:47			0	37487	0	0	0	28670	27270	157075	26902	1072994	46585	110653	0	0	8091	563080	0	0
2024-08-24 02:30:47			0	37501	0	0	0	28683	27270	157119	26994	1072958	46584	110658	0	0	8092	562529	0	0
2024-08-24 02:31:47			0	37477	0	0	0	28667	27270	157095	27142	1073021	46563	110652	0	0	8091	563474	0	0
2024-08-24 02:32:47			0	37484	0	0	0	28667	27260	157223	27027	1072949	46573	110652	0	0	8091	563230	0	0
2024-08-24 02:33:47			0	37474	0	0	0	28662	27270	157143	27102	1073048	46574	110650	0	0	8091	563592	0	0
2024-08-24 02:34:47			0	37459	0	0	0	28667	27270	157247	26708	1073021	46585	110652	0	0	8090	564183	0	0
2024-08-24 02:35:47			0	37462	0	0	0	28664	27270	157267	26906	1072967	46585	110651	0	0	8090	564065	0	0
2024-08-24 02:36:47			0	37459	0	0	0	28662	27270	157259	26831	1072958	46595	110650	0	0	8090	564183	0	0
2024-08-24 02:37:47			0	37453	0	0	0	28659	27260	157243	26949	1072922	46584	110649	0	0	8089	564452	0	0
2024-08-24 02:38:47			0	37433	0	0	0	28659	27270	157303	26734	1072958	46584	110649	0	0	8088	565208	0	0
2024-08-24 02:39:47			0	37418	0	0	0	28659	27270	157491	27072	1072904	46573	110649	0	0	8087	565800	0	0
2024-08-24 02:40:47			0	37426	0	0	0	28649	27260	157547	26864	1072922	46573	110645	0	0	8088	565517	0	0
2024-08-24 02:41:47			0	37392	0	0	0	28646	27260	157451	27020	1072895	46573	110644	0	0	8086	566860	0	0
2024-08-24 02:42:47			0	37405	0	0	0	28649	27250	157567	26679	1072877	46572	110645	0	0	8087	566379	0	0
2024-08-24 02:43:47			0	37407	0	0	0	28649	27260	157591	26760	1072913	46573	110645	0	0	8087	566267	0	0
2024-08-24 02:44:47			0	37376	0	0	0	28641	27250	157515	26701	1072877	46561	110642	0	0	8085	567526	0	0
2024-08-24 02:45:47			0	37379	0	0	0	28644	27250	157675	26934	1072850	46561	110643	0	0	8085	567407	0	0
2024-08-24 02:46:47			0	37380	0	0	0	28636	27250	157547	27086	1072877	46572	110640	0	0	8085	567367	0	0
2024-08-24 02:47:47			0	37382	0	0	0	28651	27260	157683	27168	1072886	46584	110646	0	0	8085	567256	0	0
2024-08-24 02:48:47			0	37371	0	0	0	28638	27250	157663	26760	1072877	46583	110641	0	0	8085	567723	0	0
2024-08-24 02:49:47			0	37367	0	0	0	28644	27260	157707	26965	1072859	46584	110643	0	0	8085	567849	0	0
2024-08-24 02:50:47			0	37369	0	0	0	28641	27240	157711	27033	1072805	46571	110642	0	0	8085	567835	0	0
2024-08-24 02:51:47			0	37370	0	0	0	28641	27240	157703	26906	1072832	46571	110642	0	0	8085	567796	0	0
2024-08-24 02:52:47			0	37369	0	0	0	28633	27240	157727	26842	1072859	46560	110639	0	0	8085	567835	0	0
2024-08-24 02:53:47			0	37389	0	0	0	28638	27240	157671	26814	1072859	46571	110641	0	0	8086	567044	0	0
2024-08-24 02:54:47			0	37382	0	0	0	28641	27240	157723	27062	1072832	46583	110642	0	0	8085	567321	0	0
2024-08-24 02:55:47			0	37383	0	0	0	28638	27240	157611	27213	1072886	46571	110641	0	0	8086	567281	0	0
2024-08-24 02:56:47			0	37375	0	0	0	28646	27240	157695	27218	1072778	46571	110644	0	0	8085	567598	0	0
2024-08-24 02:57:47			0	37388	0	0	0	28644	27240	157587	26998	1072805	46583	110643	0	0	8086	567083	0	0
2024-08-24 02:58:47			0	37358	0	0	0	28633	27230	157707	27090	1072868	46582	110639	0	0	8084	568303	0	0
2024-08-24 02:59:47			0	37388	0	0	0	28636	27240	157683	27053	1072832	46593	110640	0	0	8086	567083	0	0
2024-08-24 03:00:47			0	37376	0	0	0	28631	27240	157739	26930	1072805	46583	110638	0	0	8085	567558	0	0
2024-08-24 03:01:47			0	37392	0	0	0	28631	27250	157687	27209	1072868	46571	110638	0	0	8086	566893	0	0
2024-08-24 03:02:47			0	37387	0	0	0	28631	27240	157735	27059	1072805	46571	110638	0	0	8086	567123	0	0
2024-08-24 03:03:47			0	37372	0	0	0	28623	27240	157699	26965	1072859	46583	110635	0	0	8085	567716	0	0
2024-08-24 03:04:47			0	37364	0	0	0	28618	27230	157647	27329	1072787	46592	110633	0	0	8085	568066	0	0
2024-08-24 03:05:47			0	37365	0	0	0	28628	27240	157631	26908	1072796	46593	110637	0	0	8085	567993	0	0
2024-08-24 03:06:47			0	37376	0	0	0	28625	27230	157751	26831	1072787	46582	110636	0	0	8085	567591	0	0
2024-08-24 03:07:47			0	37370	0	0	0	28620	27230	157711	27164	1072760	46570	110634	0	0	8085	567828	0	0
2024-08-24 03:08:47			0	37358	0	0	0	28612	27230	157723	26857	1072778	46581	110631	0	0	8084	568303	0	0
2024-08-24 03:09:47			0	37366	0	0	0	28628	27230	157739	26982	1072697	46581	110637	0	0	8085	567987	0	0
2024-08-24 03:10:47			0	37366	0	0	0	28623	27230	157675	26927	1072787	46570	110635	0	0	8085	567987	0	0
2024-08-24 03:11:47			0	37353	0	0	0	28625	27230	157643	27076	1072724	46569	110636	0	0	8084	568501	0	0
2024-08-24 03:12:47			0	37344	0	0	0	28620	27230	157735	26935	1072787	46582	110634	0	0	8083	568858	0	0
2024-08-24 03:13:47			0	37362	0	0	0	28623	27220	157747	26894	1072769	46569	110635	0	0	8084	568177	0	0
2024-08-24 03:14:47			0	37366	0	0	0	28618	27240	157703	26961	1072742	46571	110633	0	0	8085	567954	0	0
2024-08-24 03:15:47			0	37370	0	0	0	28625	27230	157707	26682	1072778	46581	110636	0	0	8085	567828	0	0
2024-08-24 03:16:47			0	37378	0	0	0	28618	27230	157567	26892	1072733	46582	110633	0	0	8086	567512	0	0
2024-08-24 03:17:47			0	37380	0	0	0	28615	27220	157635	26942	1072715	46581	110632	0	0	8086	567465	0	0
2024-08-24 03:18:47			0	37379	0	0	0	28607	27230	157663	26939	1072751	46581	110629	0	0	8086	567472	0	0
2024-08-24 03:19:47			0	37388	0	0	0	28612	27220	157691	27003	1072688	46569	110631	0	0	8086	567149	0	0
2024-08-24 03:20:47			0	37376	0	0	0	28599	27230	157595	27131	1072697	46581	110626	0	0	8086	567591	0	0
2024-08-24 03:21:47			0	37395	0	0	0	28592	27210	157667	27279	1072616	46568	110623	0	0	8087	566904	0	0
2024-08-24 03:22:47			0	37400	0	0	0	28599	27210	157631	26814	1072643	46557	110626	0	0	8087	566707	0	0
2024-08-24 03:23:47			0	37391	0	0	0	28586	27210	157527	26955	1072670	46557	110621	0	0	8087	567062	0	0
2024-08-24 03:24:47			0	37368	0	0	0	28584	27200	157663	27159	1072554	46556	110620	0	0	8085	568005	0	0
2024-08-24 03:25:47			0	37383	0	0	0	28584	27200	157571	26845	1072652	46566	110620	0	0	8086	567411	0	0
2024-08-24 03:26:47			0	37364	0	0	0	28589	27190	157683	27270	1072562	46578	110622	0	0	8085	568196	0	0
2024-08-24 03:27:47			0	37387	0	0	0	28579	27210	157691	27031	1072616	46568	110618	0	0	8087	567221	0	0
2024-08-24 03:28:47			0	37374	0	0	0	28584	27200	157743	26961	1072688	46579	110620	0	0	8086	567768	0	0
2024-08-24 03:29:47			0	37369	0	0	0	28584	27190	157779	27118	1072616	46566	110620	0	0	8085	567998	0	0
2024-08-24 03:30:47			0	37359	0	0	0	28584	27200	157711	27142	1072598	46566	110620	0	0	8085	568361	0	0
2024-08-24 03:31:47			0	37372	0	0	0	28589	27200	157735	26935	1072571	46578	110622	0	0	8086	567847	0	0
2024-08-24 03:32:47			0	37387	0	0	0	28584	27190	157755	26939	1072616	46566	110620	0	0	8086	567286	0	0
2024-08-24 03:33:47			0	37362	0	0	0	28581	27190	157803	27027	1072536	46566	110619	0	0	8085	568275	0	0
2024-08-24 03:34:47			0	37369	0	0	0	28592	27200	157755	26705	1072625	46588	110623	0	0	8085	567966	0	0
2024-08-24 03:35:47			0	37372	0	0	0	28594	27190	157667	26882	1072616	46578	110624	0	0	8085	567879	0	0
2024-08-24 03:36:47			0	37362	0	0	0	28586	27190	157775	27033	1072562	46578	110621	0	0	8085	568275	0	0
2024-08-24 03:37:47			0	37368	0	0	0	28584	27190	157703	26894	1072580	46566	110620	0	0	8085	568038	0	0
2024-08-24 03:38:47			0	37388	0	0	0	28579	27190	157711	26982	1072607	46578	110618	0	0	8087	567246	0	0
2024-08-24 03:39:47			0	37385	0	0	0	28573	27180	157727	27098	1072508	46553	110616	0	0	8086	567398	0	0
2024-08-24 03:40:47			0	37403	0	0	0	28573	27200	157547	27043	1072571	46578	110616	0	0	8088	566621	0	0
2024-08-24 03:41:47			0	37390	0	0	0	28573	27180	157587	26899	1072482	46564	110616	0	0	8087	567200	0	0
2024-08-24 03:42:47			0	37384	0	0	0	28561	27180	157643	27064	1072464	46565	110611	0	0	8087	567437	0	0
2024-08-24 03:43:47			0	37407	0	0	0	28568	27170	157623	27019	1072490	46564	110614	0	0	8088	566560	0	0
2024-08-24 03:44:47			0	37401	0	0	0	28571	27180	157595	27229	1072544	46577	110615	0	0	8087	566765	0	0
2024-08-24 03:45:47			0	37408	0	0	0	28576	27180	157619	26778	1072508	46586	110617	0	0	8088	566488	0	0
2024-08-24 03:46:47			0	37423	0	0	0	28573	27180	157615	26795	1072491	46587	110616	0	0	8089	565895	0	0
2024-08-24 03:47:47			0	37414	0	0	0	28576	27190	157539	27112	1072500	46578	110617	0	0	8088	566218	0	0
2024-08-24 03:48:47			0	37407	0	0	0	28584	27180	157559	26783	1072508	46586	110620	0	0	8088	566527	0	0
2024-08-24 03:49:47			0	37403	0	0	0	28589	27180	157607	26850	1072571	46577	110622	0	0	8087	566686	0	0
2024-08-24 03:50:47			0	37413	0	0	0	28589	27180	157567	26850	1072517	46587	110622	0	0	8088	566290	0	0
2024-08-24 03:51:47			0	37433	0	0	0	28586	27180	157619	26899	1072571	46577	110621	0	0	8089	565500	0	0
2024-08-24 03:52:47			0	37417	0	0	0	28586	27180	157515	26942	1072508	46586	110621	0	0	8088	566132	0	0
2024-08-24 03:53:47			0	37432	0	0	0	28579	27180	157619	27142	1072544	46587	110618	0	0	8089	565540	0	0
2024-08-24 03:54:47			0	37421	0	0	0	28579	27180	157439	27142	1072571	46577	110618	0	0	8088	565974	0	0
2024-08-24 03:55:47			0	37427	0	0	0	28581	27180	157523	26817	1072544	46565	110619	0	0	8089	565737	0	0
2024-08-24 03:56:47			0	37406	0	0	0	28581	27180	157459	27057	1072517	46577	110619	0	0	8088	566567	0	0
2024-08-24 03:57:47			0	37406	0	0	0	28576	27190	157479	26949	1072553	46588	110617	0	0	8088	566535	0	0
2024-08-24 03:58:47			0	37417	0	0	0	28581	27180	157499	26956	1072598	46554	110619	0	0	8088	566132	0	0
2024-08-24 03:59:47			0	37419	0	0	0	28586	27180	157535	27046	1072589	46576	110621	0	0	8088	566053	0	0
2024-08-24 04:00:47			0	37429	0	0	0	28586	27180	157627	26923	1072517	46587	110621	0	0	8089	565658	0	0
2024-08-24 04:01:47			0	37428	0	0	0	28581	27180	157555	26956	1072517	46577	110619	0	0	8089	565698	0	0
2024-08-24 04:02:47			0	37425	0	0	0	28586	27180	157439	26852	1072535	46576	110621	0	0	8089	565816	0	0
2024-08-24 04:03:47			0	37414	0	0	0	28584	27190	157559	27220	1072553	46588	110620	0	0	8088	566218	0	0
2024-08-24 04:04:47			0	37435	0	0	0	28592	27180	157595	26686	1072517	46577	110623	0	0	8089	565421	0	0
2024-08-24 04:05:47			0	37433	0	0	0	28584	27190	157435	27197	1072553	46566	110620	0	0	8089	565468	0	0
2024-08-24 04:06:47			0	37434	0	0	0	28579	27190	157419	27116	1072509	46578	110618	0	0	8089	565428	0	0
2024-08-24 04:07:47			0	37427	0	0	0	28586	27190	157459	27015	1072553	46555	110621	0	0	8089	565705	0	0
2024-08-24 04:08:47			0	37472	0	0	0	28579	27180	157447	26856	1072562	46576	110618	0	0	8091	563962	0	0
2024-08-24 04:09:47			0	37444	0	0	0	28581	27190	157475	26759	1072500	46566	110619	0	0	8090	565034	0	0
2024-08-24 04:10:47			0	37437	0	0	0	28586	27180	157403	27109	1072517	46577	110621	0	0	8089	565342	0	0
2024-08-24 04:11:47			0	37457	0	0	0	28579	27180	157391	26922	1072535	46576	110618	0	0	8091	564553	0	0
2024-08-24 04:12:47			0	37442	0	0	0	28584	27190	157475	26939	1072553	46578	110620	0	0	8090	565113	0	0
2024-08-24 04:13:47			0	37439	0	0	0	28584	27170	157455	27152	1072607	46564	110620	0	0	8089	565296	0	0
2024-08-24 04:14:47			0	37451	0	0	0	28576	27190	157415	26680	1072526	46588	110617	0	0	8090	564758	0	0
2024-08-24 04:15:47			0	37461	0	0	0	28581	27180	157391	26866	1072482	46586	110619	0	0	8091	564396	0	0
2024-08-24 04:16:47			0	37468	0	0	0	28579	27180	157375	26805	1072589	46564	110618	0	0	8091	564120	0	0
2024-08-24 04:17:47			0	37470	0	0	0	28576	27170	157335	26755	1072499	46586	110617	0	0	8091	564073	0	0
2024-08-24 04:18:47			0	37476	0	0	0	28573	27180	157347	26748	1072508	46564	110616	0	0	8092	563804	0	0
2024-08-24 04:19:47			0	37475	0	0	0	28584	27170	157227	27100	1072544	46576	110620	0	0	8091	563876	0	0
2024-08-24 04:20:47			0	37485	0	0	0	28579	27180	157347	27085	1072544	46587	110618	0	0	8092	563450	0	0
2024-08-24 04:21:47			0	37486	0	0	0	28566	27170	157359	26826	1072526	46576	110613	0	0	8092	563443	0	0
2024-08-24 04:22:47			0	37495	0	0	0	28563	27170	157207	26960	1072473	46564	110612	0	0	8093	563089	0	0
2024-08-24 04:23:47			0	37471	0	0	0	28581	27170	157183	26779	1072499	46586	110619	0	0	8091	564034	0	0
2024-08-24 04:24:47			0	37474	0	0	0	28581	27170	157247	27050	1072526	46586	110619	0	0	8091	563916	0	0
2024-08-24 04:25:47			0	37474	0	0	0	28568	27180	157259	26611	1072508	46586	110614	0	0	8092	563883	0	0
2024-08-24 04:26:47			0	37483	0	0	0	28571	27180	157283	26840	1072544	46565	110615	0	0	8092	563529	0	0
2024-08-24 04:27:47			0	37457	0	0	0	28573	27170	157331	27090	1072490	46586	110616	0	0	8091	564586	0	0
2024-08-24 04:28:47			0	37472	0	0	0	28568	27180	157231	26913	1072508	46586	110614	0	0	8092	563962	0	0
2024-08-24 04:29:47			0	37474	0	0	0	28568	27170	157243	27234	1072490	46576	110614	0	0	8092	563916	0	0
2024-08-24 04:30:47			0	37485	0	0	0	28571	27180	157259	26889	1072491	46587	110615	0	0	8092	563450	0	0
2024-08-24 04:31:47			0	37481	0	0	0	28561	27180	157375	26878	1072517	46577	110611	0	0	8092	563607	0	0
2024-08-24 04:32:47			0	37461	0	0	0	28561	27170	157283	27138	1072419	46576	110611	0	0	8091	564428	0	0
2024-08-24 04:33:47			0	37480	0	0	0	28563	27160	157367	26885	1072508	46563	110612	0	0	8092	563712	0	0
2024-08-24 04:34:47			0	37454	0	0	0	28561	27170	157443	27178	1072490	46564	110611	0	0	8091	564704	0	0
2024-08-24 04:35:47			0	37455	0	0	0	28563	27170	157379	27235	1072463	46564	110612	0	0	8091	564665	0	0
2024-08-24 04:36:47			0	37454	0	0	0	28558	27160	157407	26850	1072454	46563	110610	0	0	8091	564737	0	0
2024-08-24 04:37:47			0	37422	0	0	0	28553	27170	157383	27102	1072463	46564	110608	0	0	8089	565967	0	0
2024-08-24 04:38:47			0	37454	0	0	0	28558	27160	157475	27109	1072418	46562	110610	0	0	8091	564737	0	0
2024-08-24 04:39:47			0	37449	0	0	0	28550	27160	157391	26845	1072445	46574	110607	0	0	8090	564934	0	0
2024-08-24 04:40:47			0	37448	0	0	0	28553	27160	157395	27265	1072428	46563	110608	0	0	8090	564973	0	0
2024-08-24 04:41:47			0	37422	0	0	0	28548	27150	157423	27260	1072382	46551	110606	0	0	8089	566032	0	0
2024-08-24 04:42:47			0	37446	0	0	0	28548	27170	157411	26833	1072437	46576	110606	0	0	8090	565020	0	0
2024-08-24 04:43:47			0	37422	0	0	0	28545	27160	157459	27043	1072391	46584	110605	0	0	8089	566000	0	0
2024-08-24 04:44:47			0	37410	0	0	0	28553	27160	157415	26753	1072445	46574	110608	0	0	8088	566474	0	0
2024-08-24 04:45:47			0	37416	0	0	0	28545	27150	157367	27046	1072355	46574	110605	0	0	8089	566269	0	0
2024-08-24 04:46:47			0	37423	0	0	0	28540	27160	157475	26838	1072418	46574	110603	0	0	8089	565960	0	0
2024-08-24 04:47:47			0	37419	0	0	0	28535	27150	157483	27225	1072400	46584	110601	0	0	8089	566151	0	0
2024-08-24 04:48:47			0	37437	0	0	0	28537	27140	157363	27216	1072364	46550	110602	0	0	8090	565472	0	0
2024-08-24 04:49:47			0	37419	0	0	0	28542	27150	157411	27020	1072293	46574	110604	0	0	8089	566151	0	0
2024-08-24 04:50:47			0	37424	0	0	0	28532	27150	157403	27093	1072346	46540	110600	0	0	8089	565953	0	0
2024-08-24 04:51:47			0	37435	0	0	0	28535	27140	157363	27192	1072301	46560	110601	0	0	8090	565551	0	0
2024-08-24 04:52:47			0	37451	0	0	0	28527	27140	157311	27123	1072310	46583	110598	0	0	8091	564920	0	0
2024-08-24 04:53:47			0	37440	0	0	0	28527	27140	157391	27213	1072310	46561	110598	0	0	8090	565354	0	0
2024-08-24 04:54:47			0	37442	0	0	0	28524	27150	157343	27022	1072346	46574	110597	0	0	8090	565242	0	0
2024-08-24 04:55:47			0	37440	0	0	0	28522	27130	157303	27024	1072337	46559	110596	0	0	8090	565386	0	0
2024-08-24 04:56:47			0	37435	0	0	0	28524	27140	157307	27092	1072355	46583	110597	0	0	8090	565551	0	0
2024-08-24 04:57:47			0	37455	0	0	0	28522	27140	157415	27130	1072301	46560	110596	0	0	8091	564762	0	0
2024-08-24 04:58:47			0	37432	0	0	0	28524	27130	157311	26977	1072292	46560	110597	0	0	8090	565702	0	0
2024-08-24 04:59:47			0	37461	0	0	0	28516	27130	157275	27177	1072239	46583	110594	0	0	8092	564558	0	0
2024-08-24 05:00:47			0	37437	0	0	0	28516	27130	157319	27223	1072266	46560	110594	0	0	8090	565505	0	0
2024-08-24 05:01:47			0	37434	0	0	0	28516	27130	157283	26889	1072256	46559	110594	0	0	8090	565623	0	0
2024-08-24 05:02:47			0	37434	0	0	0	28516	27120	157275	26785	1072247	46571	110594	0	0	8090	565656	0	0
2024-08-24 05:03:47			0	37446	0	0	0	28509	27130	157407	27083	1072230	46571	110591	0	0	8091	565150	0	0
2024-08-24 05:04:47			0	37439	0	0	0	28506	27130	157375	26984	1072256	46571	110590	0	0	8090	565426	0	0
2024-08-24 05:05:47			0	37452	0	0	0	28519	27120	157363	27183	1072274	46571	110595	0	0	8091	564945	0	0
2024-08-24 05:06:47			0	37452	0	0	0	28516	27120	157291	26800	1072212	46570	110594	0	0	8091	564945	0	0
2024-08-24 05:07:47			0	37448	0	0	0	28514	27120	157263	27116	1072301	46582	110593	0	0	8091	565103	0	0
2024-08-24 05:08:47			0	37443	0	0	0	28522	27120	157279	27062	1072265	46581	110596	0	0	8090	565300	0	0
2024-08-24 05:09:47			0	37463	0	0	0	28514	27120	157187	26998	1072221	46571	110593	0	0	8092	564511	0	0
2024-08-24 05:10:47			0	37446	0	0	0	28514	27120	157247	27175	1072194	46571	110593	0	0	8091	565182	0	0
2024-08-24 05:11:47			0	37457	0	0	0	28511	27120	157219	26960	1072274	46571	110592	0	0	8091	564748	0	0
2024-08-24 05:12:47			0	37459	0	0	0	28511	27120	157263	27204	1072265	46570	110592	0	0	8092	564669	0	0
2024-08-24 05:13:47			0	37454	0	0	0	28514	27120	157375	27339	1072212	46581	110593	0	0	8091	564866	0	0
2024-08-24 05:14:47			0	37452	0	0	0	28509	27110	157295	27150	1072256	46569	110591	0	0	8091	564978	0	0
2024-08-24 05:15:47			0	37438	0	0	0	28522	27120	157291	27055	1072247	46571	110596	0	0	8090	565498	0	0
2024-08-24 05:16:47			0	37452	0	0	0	28519	27130	157351	27119	1072256	46559	110595	0	0	8091	564913	0	0
2024-08-24 05:17:47			0	37458	0	0	0	28516	27120	157387	27211	1072274	46582	110594	0	0	8091	564708	0	0
2024-08-24 05:18:47			0	37453	0	0	0	28509	27110	157367	27164	1072176	46569	110591	0	0	8091	564938	0	0
2024-08-24 05:19:47			0	37457	0	0	0	28522	27120	157331	26994	1072319	46570	110596	0	0	8091	564748	0	0
2024-08-24 05:20:47			0	37475	0	0	0	28516	27120	157251	27114	1072212	46581	110594	0	0	8092	564038	0	0
2024-08-24 05:21:47			0	37456	0	0	0	28514	27120	157327	26939	1072238	46570	110593	0	0	8091	564787	0	0
2024-08-24 05:22:47			0	37453	0	0	0	28509	27120	157283	27086	1072247	46582	110591	0	0	8091	564906	0	0
2024-08-24 05:23:47			0	37447	0	0	0	28509	27120	157371	27062	1072238	46581	110591	0	0	8091	565142	0	0
2024-08-24 05:24:47			0	37467	0	0	0	28509	27110	157451	27033	1072229	46580	110591	0	0	8092	564386	0	0
2024-08-24 05:25:47			0	37450	0	0	0	28509	27110	157295	27183	1072176	46580	110591	0	0	8091	565056	0	0
2024-08-24 05:26:47			0	37464	0	0	0	28503	27110	157315	27298	1072194	46569	110589	0	0	8092	564504	0	0
2024-08-24 05:27:47			0	37464	0	0	0	28511	27110	157343	26974	1072176	46569	110592	0	0	8092	564504	0	0
2024-08-24 05:28:47			0	37452	0	0	0	28514	27110	157267	27020	1072220	46557	110593	0	0	8091	564978	0	0
2024-08-24 05:29:47			0	37466	0	0	0	28509	27110	157283	27182	1072167	46557	110591	0	0	8092	564425	0	0
2024-08-24 05:30:47			0	37451	0	0	0	28516	27110	157263	27204	1072220	46580	110594	0	0	8091	565017	0	0
2024-08-24 05:31:47			0	37446	0	0	0	28519	27110	157175	27038	1072203	46569	110595	0	0	8091	565214	0	0
2024-08-24 05:32:47			0	37444	0	0	0	28516	27110	157363	27010	1072203	46569	110594	0	0	8091	565293	0	0
2024-08-24 05:33:47			0	37469	0	0	0	28519	27110	157371	27055	1072256	46580	110595	0	0	8092	564307	0	0
2024-08-24 05:34:47			0	37454	0	0	0	28522	27110	157347	27230	1072229	46569	110596	0	0	8091	564899	0	0
2024-08-24 05:35:47			0	37459	0	0	0	28509	27120	157275	27015	1072238	46547	110591	0	0	8092	564669	0	0
2024-08-24 05:36:47			0	37445	0	0	0	28511	27120	157387	27090	1072212	46570	110592	0	0	8091	565221	0	0
2024-08-24 05:37:47			0	37461	0	0	0	28501	27120	157247	27015	1072238	46581	110588	0	0	8092	564590	0	0
2024-08-24 05:38:47			0	37451	0	0	0	28509	27100	157383	27159	1072158	46569	110591	0	0	8091	565049	0	0
2024-08-24 05:39:47			0	37472	0	0	0	28509	27110	157347	26991	1072229	46590	110591	0	0	8092	564189	0	0
2024-08-24 05:40:47			0	37470	0	0	0	28511	27110	157403	27208	1072256	46580	110592	0	0	8092	564267	0	0
2024-08-24 05:41:47			0	37467	0	0	0	28514	27110	157279	27024	1072229	46569	110593	0	0	8092	564386	0	0
2024-08-24 05:42:47			0	37461	0	0	0	28498	27110	157315	26974	1072203	46569	110587	0	0	8092	564622	0	0
2024-08-24 05:43:47			0	37464	0	0	0	28503	27110	157323	26989	1072194	46546	110589	0	0	8092	564504	0	0
2024-08-24 05:44:47			0	37471	0	0	0	28501	27110	157311	26948	1072194	46569	110588	0	0	8092	564228	0	0
2024-08-24 05:45:47			0	37458	0	0	0	28506	27110	157283	27027	1072220	46557	110590	0	0	8092	564741	0	0
2024-08-24 05:46:47			0	37455	0	0	0	28496	27100	157335	26906	1072202	46568	110586	0	0	8091	564891	0	0
2024-08-24 05:47:47			0	37455	0	0	0	28506	27100	157455	27105	1072202	46568	110590	0	0	8091	564891	0	0
2024-08-24 05:48:47			0	37451	0	0	0	28501	27100	157279	27019	1072185	46580	110588	0	0	8091	565049	0	0
2024-08-24 05:49:47			0	37482	0	0	0	28501	27100	157199	27227	1072185	46557	110588	0	0	8093	563827	0	0
2024-08-24 05:50:47			0	37478	0	0	0	28498	27110	157191	27201	1072247	46557	110587	0	0	8093	563952	0	0
2024-08-24 05:51:47			0	37462	0	0	0	28501	27110	157235	26944	1072229	46569	110588	0	0	8092	564583	0	0
2024-08-24 05:52:47			0	37466	0	0	0	28493	27100	157227	26795	1072158	46580	110585	0	0	8092	564458	0	0
2024-08-24 05:53:47			0	37481	0	0	0	28493	27100	157263	27092	1072185	46580	110585	0	0	8093	563866	0	0
2024-08-24 05:54:47			0	37453	0	0	0	28488	27100	157247	26824	1072238	46569	110583	0	0	8091	564971	0	0
2024-08-24 05:55:47			0	37466	0	0	0	28490	27100	157203	27275	1072131	46580	110584	0	0	8092	564458	0	0
2024-08-24 05:56:47			0	37465	0	0	0	28490	27100	157247	27206	1072229	46568	110584	0	0	8092	564497	0	0
2024-08-24 05:57:47			0	37442	0	0	0	28488	27100	157311	26904	1072149	46568	110583	0	0	8091	565405	0	0
2024-08-24 05:58:47			0	37472	0	0	0	28483	27100	157235	27057	1072068	46568	110581	0	0	8093	564221	0	0
2024-08-24 05:59:47			0	37471	0	0	0	28477	27090	157295	27152	1072131	46578	110579	0	0	8093	564293	0	0
2024-08-24 06:00:47			0	37462	0	0	0	28477	27090	157259	26922	1072131	46578	110579	0	0	8092	564648	0	0
2024-08-24 06:01:47			0	37475	0	0	0	28477	27100	157291	27237	1072149	46568	110579	0	0	8093	564103	0	0
2024-08-24 06:02:47			0	37458	0	0	0	28485	27090	157319	26887	1072104	46555	110582	0	0	8092	564806	0	0
2024-08-24 06:03:47			0	37454	0	0	0	28483	27100	157331	26802	1072122	46568	110581	0	0	8092	564931	0	0
2024-08-24 06:04:47			0	37460	0	0	0	28480	27080	157291	27225	1072095	46567	110580	0	0	8092	564759	0	0
2024-08-24 06:05:47			0	37473	0	0	0	28480	27090	157279	26876	1072077	46567	110580	0	0	8093	564214	0	0
2024-08-24 06:06:47			0	37474	0	0	0	28480	27090	157235	26949	1072104	46555	110580	0	0	8093	564175	0	0
2024-08-24 06:07:47			0	37470	0	0	0	28480	27080	157251	26920	1072086	46577	110580	0	0	8092	564365	0	0
2024-08-24 06:08:47			0	37475	0	0	0	28477	27090	157183	26908	1072104	46567	110579	0	0	8093	564135	0	0
2024-08-24 06:09:47			0	37503	0	0	0	28475	27090	157191	27017	1072050	46567	110578	0	0	8095	563032	0	0
2024-08-24 06:10:47			0	37484	0	0	0	28477	27080	157147	26989	1072041	46588	110579	0	0	8093	563813	0	0
2024-08-24 06:11:47			0	37500	0	0	0	28467	27080	157207	27079	1072086	46566	110575	0	0	8094	563182	0	0
2024-08-24 06:12:47			0	37511	0	0	0	28459	27080	157099	27029	1072059	46566	110572	0	0	8095	562749	0	0
2024-08-24 06:13:47			0	37511	0	0	0	28470	27080	157195	26738	1072059	46566	110576	0	0	8095	562749	0	0
2024-08-24 06:14:47			0	37498	0	0	0	28467	27080	157111	26805	1072032	46566	110575	0	0	8094	563261	0	0
2024-08-24 06:15:47			0	37516	0	0	0	28459	27070	157071	26746	1072041	46576	110572	0	0	8095	562585	0	0
2024-08-24 06:16:47			0	37513	0	0	0	28467	27080	157131	26849	1072032	46566	110575	0	0	8095	562671	0	0
2024-08-24 06:17:47			0	37507	0	0	0	28470	27070	157151	27085	1072023	46553	110576	0	0	8095	562939	0	0
2024-08-24 06:18:47			0	37490	0	0	0	28459	27080	157059	26882	1072005	46566	110572	0	0	8094	563576	0	0
2024-08-24 06:19:47			0	37486	0	0	0	28462	27060	157255	27130	1071951	46575	110573	0	0	8094	563799	0	0
2024-08-24 06:20:47			0	37480	0	0	0	28454	27070	157083	27098	1072023	46565	110570	0	0	8093	564003	0	0
2024-08-24 06:21:47			0	37512	0	0	0	28454	27060	157155	27145	1071978	46564	110570	0	0	8095	562775	0	0
2024-08-24 06:22:47			0	37513	0	0	0	28454	27060	157203	27078	1072005	46575	110570	0	0	8095	562735	0	0
2024-08-24 06:23:47			0	37499	0	0	0	28449	27070	157195	26981	1071942	46565	110568	0	0	8095	563254	0	0
2024-08-24 06:24:47			0	37501	0	0	0	28459	27060	157171	27005	1071951	46552	110572	0	0	8095	563208	0	0
2024-08-24 06:25:47			0	37505	0	0	0	28451	27070	157127	27364	1071987	46565	110569	0	0	8095	563018	0	0
2024-08-24 06:26:47			0	37502	0	0	0	28454	27060	157163	27121	1071951	46564	110570	0	0	8095	563168	0	0
2024-08-24 06:27:47			0	37495	0	0	0	28444	27060	157047	27104	1072005	46564	110566	0	0	8094	563444	0	0
2024-08-24 06:28:47			0	37500	0	0	0	28451	27060	157135	27020	1071996	46564	110569	0	0	8095	563247	0	0
2024-08-24 06:29:47			0	37501	0	0	0	28451	27060	157203	26824	1071897	46564	110569	0	0	8095	563208	0	0
2024-08-24 06:30:47			0	37482	0	0	0	28446	27060	157135	26641	1071942	46575	110567	0	0	8094	563956	0	0
2024-08-24 06:31:47			0	37496	0	0	0	28449	27050	157091	26760	1071960	46563	110568	0	0	8094	563437	0	0
2024-08-24 06:32:47			0	37495	0	0	0	28436	27060	157219	26925	1071861	46575	110563	0	0	8095	563444	0	0
2024-08-24 06:33:47			0	37485	0	0	0	28438	27060	157227	26790	1071915	46575	110564	0	0	8094	563838	0	0
2024-08-24 06:34:47			0	37477	0	0	0	28444	27060	157235	26811	1071915	46564	110566	0	0	8093	564153	0	0
2024-08-24 06:35:47			0	37502	0	0	0	28446	27050	157235	26701	1071897	46563	110567	0	0	8095	563201	0	0
2024-08-24 06:36:47			0	37492	0	0	0	28444	27060	157143	27026	1071915	46552	110566	0	0	8094	563562	0	0
2024-08-24 06:37:47			0	37484	0	0	0	28438	27050	157247	26928	1071879	46551	110564	0	0	8094	563910	0	0
2024-08-24 06:38:47			0	37491	0	0	0	28438	27050	157179	27187	1071870	46563	110564	0	0	8094	563634	0	0
2024-08-24 06:39:47			0	37489	0	0	0	28428	27050	157131	27173	1071897	46551	110560	0	0	8094	563713	0	0
2024-08-24 06:40:47			0	37506	0	0	0	28433	27050	157187	27031	1071816	46563	110562	0	0	8095	563043	0	0
2024-08-24 06:41:47			0	37518	0	0	0	28420	27050	157195	26696	1071843	46563	110557	0	0	8096	562571	0	0
2024-08-24 06:42:47			0	37492	0	0	0	28420	27040	157131	26994	1071834	46562	110557	0	0	8095	563627	0	0
2024-08-24 06:43:47			0	37504	0	0	0	28418	27050	157227	26909	1071789	46551	110556	0	0	8095	563122	0	0
2024-08-24 06:44:47			0	37492	0	0	0	28423	27030	157171	26816	1071861	46560	110558	0	0	8095	563659	0	0
2024-08-24 06:45:47			0	37476	0	0	0	28420	27030	157235	26727	1071816	46561	110557	0	0	8094	564290	0	0
2024-08-24 06:46:47			0	37496	0	0	0	28412	27040	157247	26835	1071852	46573	110554	0	0	8095	563469	0	0
2024-08-24 06:47:47			0	37480	0	0	0	28420	27030	157127	26719	1071789	46561	110557	0	0	8094	564132	0	0
2024-08-24 06:48:47			0	37473	0	0	0	28425	27030	157315	26967	1071789	46561	110559	0	0	8093	564408	0	0
2024-08-24 06:49:47			0	37464	0	0	0	28415	27030	157431	26989	1071780	46548	110555	0	0	8093	564763	0	0
2024-08-24 06:50:47			0	37447	0	0	0	28420	27030	157407	26701	1071834	46560	110557	0	0	8092	565434	0	0
2024-08-24 06:51:47			0	37446	0	0	0	28415	27040	157391	26885	1071852	46562	110555	0	0	8092	565441	0	0
2024-08-24 06:52:47			0	37440	0	0	0	28418	27030	157355	26760	1071789	46561	110556	0	0	8092	565711	0	0
2024-08-24 06:53:47			0	37437	0	0	0	28410	27030	157395	26885	1071753	46560	110553	0	0	8092	565829	0	0
2024-08-24 06:54:47			0	37431	0	0	0	28423	27030	157331	26928	1071807	46571	110558	0	0	8091	566066	0	0
2024-08-24 06:55:47			0	37446	0	0	0	28420	27020	157287	26628	1071825	46571	110557	0	0	8092	565506	0	0
2024-08-24 06:56:47			0	37446	0	0	0	28425	27030	157399	26920	1071816	46561	110559	0	0	8092	565474	0	0
2024-08-24 06:57:47			0	37452	0	0	0	28407	27030	157263	27287	1071834	46571	110552	0	0	8092	565237	0	0
2024-08-24 06:58:47			0	37440	0	0	0	28407	27030	157411	27100	1071726	46560	110552	0	0	8092	565711	0	0
2024-08-24 06:59:47			0	37434	0	0	0	28405	27030	157375	27076	1071762	46549	110551	0	0	8091	565948	0	0
2024-08-24 07:00:47			0	37429	0	0	0	28399	27020	157395	27150	1071744	46560	110549	0	0	8091	566178	0	0
2024-08-24 07:01:47			0	37433	0	0	0	28399	27010	157343	27203	1071753	46559	110549	0	0	8091	566052	0	0
2024-08-24 07:02:47			0	37430	0	0	0	28402	27010	157423	27112	1071699	46559	110550	0	0	8091	566171	0	0
2024-08-24 07:03:47			0	37416	0	0	0	28402	27010	157375	26856	1071699	46559	110550	0	0	8090	566724	0	0
2024-08-24 07:04:47			0	37407	0	0	0	28389	27020	157571	27119	1071708	46548	110545	0	0	8090	567048	0	0
2024-08-24 07:05:47			0	37411	0	0	0	28394	27020	157467	27163	1071708	46571	110547	0	0	8090	566890	0	0
2024-08-24 07:06:47			0	37382	0	0	0	28384	27010	157579	27150	1071663	46558	110543	0	0	8089	568070	0	0
2024-08-24 07:07:47			0	37387	0	0	0	28386	27010	157647	27053	1071699	46559	110544	0	0	8089	567872	0	0
2024-08-24 07:08:47			0	37415	0	0	0	28397	27010	157559	27230	1071699	46547	110548	0	0	8090	566764	0	0
2024-08-24 07:09:47			0	37393	0	0	0	28399	27020	157503	27128	1071735	46548	110549	0	0	8089	567602	0	0
2024-08-24 07:10:47			0	37425	0	0	0	28399	27010	157547	26993	1071690	46546	110549	0	0	8091	566369	0	0
2024-08-24 07:11:47			0	37404	0	0	0	28407	27010	157475	27163	1071663	46569	110552	0	0	8090	567199	0	0
2024-08-24 07:12:47			0	37421	0	0	0	28412	27000	157507	27326	1071708	46569	110554	0	0	8090	566559	0	0
2024-08-24 07:13:47			0	37410	0	0	0	28410	27010	157395	27168	1071717	46569	110553	0	0	8090	566962	0	0
2024-08-24 07:14:47			0	37423	0	0	0	28407	27010	157395	27280	1071690	46569	110552	0	0	8091	566448	0	0
2024-08-24 07:15:47			0	37422	0	0	0	28410	27010	157479	26977	1071770	46558	110553	0	0	8091	566487	0	0
2024-08-24 07:16:47			0	37422	0	0	0	28415	27010	157455	27088	1071699	46559	110555	0	0	8090	566487	0	0
2024-08-24 07:17:47			0	37449	0	0	0	28415	27000	157483	27062	1071734	46558	110555	0	0	8092	565453	0	0
2024-08-24 07:18:47			0	37423	0	0	0	28410	27010	157411	27274	1071726	46581	110553	0	0	8091	566448	0	0
2024-08-24 07:19:47			0	37419	0	0	0	28410	27020	157499	27175	1071735	46548	110553	0	0	8090	566573	0	0
2024-08-24 07:20:47			0	37416	0	0	0	28410	27010	157639	27209	1071780	46559	110553	0	0	8090	566724	0	0
2024-08-24 07:21:47			0	37415	0	0	0	28399	27020	157559	27005	1071735	46548	110549	0	0	8090	566731	0	0
2024-08-24 07:22:47			0	37393	0	0	0	28407	27020	157727	27246	1071735	46560	110552	0	0	8089	567602	0	0
2024-08-24 07:23:47			0	37381	0	0	0	28407	27020	157759	27007	1071735	46560	110552	0	0	8088	568077	0	0
2024-08-24 07:24:47			0	37397	0	0	0	28405	27010	157667	26967	1071753	46570	110551	0	0	8089	567476	0	0
2024-08-24 07:25:47			0	37355	0	0	0	28405	27010	157679	27124	1071699	46547	110551	0	0	8087	569140	0	0
2024-08-24 07:26:47			0	37364	0	0	0	28405	27010	157707	26788	1071699	46570	110551	0	0	8087	568783	0	0
2024-08-24 07:27:47			0	37350	0	0	0	28410	27010	157787	26791	1071770	46580	110553	0	0	8086	569339	0	0
2024-08-24 07:28:47			0	37350	0	0	0	28412	27010	157835	27232	1071743	46546	110554	0	0	8086	569339	0	0
2024-08-24 07:29:47			0	37338	0	0	0	28402	27010	157835	27253	1071690	46580	110550	0	0	8086	569815	0	0
2024-08-24 07:30:47			0	37352	0	0	0	28412	27010	157671	27067	1071743	46546	110554	0	0	8086	569259	0	0
2024-08-24 07:31:47			0	37358	0	0	0	28407	27010	157671	27170	1071753	46547	110552	0	0	8087	569021	0	0
2024-08-24 07:32:47			0	37341	0	0	0	28412	27010	157759	27057	1071753	46559	110554	0	0	8086	569696	0	0
2024-08-24 07:33:47			0	37331	0	0	0	28407	27010	157791	27441	1071807	46559	110552	0	0	8085	570093	0	0
2024-08-24 07:34:47			0	37338	0	0	0	28407	27010	157827	27310	1071699	46570	110552	0	0	8086	569815	0	0
2024-08-24 07:35:47			0	37345	0	0	0	28405	27010	157803	27010	1071726	46559	110551	0	0	8086	569537	0	0
2024-08-24 07:36:47			0	37359	0	0	0	28415	27020	157747	27074	1071708	46560	110555	0	0	8087	568949	0	0
2024-08-24 07:37:47			0	37356	0	0	0	28407	27010	157735	27315	1071726	46570	110552	0	0	8087	569101	0	0
2024-08-24 07:38:47			0	37349	0	0	0	28405	27010	157811	27059	1071726	46559	110551	0	0	8086	569378	0	0
2024-08-24 07:39:47			0	37371	0	0	0	28402	27010	157767	27215	1071690	46546	110550	0	0	8088	568506	0	0
2024-08-24 07:40:47			0	37356	0	0	0	28399	27010	157839	27057	1071663	46546	110549	0	0	8087	569101	0	0
2024-08-24 07:41:47			0	37354	0	0	0	28412	27010	157703	27022	1071726	46559	110554	0	0	8087	569180	0	0
2024-08-24 07:42:47			0	37361	0	0	0	28410	27010	157719	26798	1071770	46580	110553	0	0	8087	568902	0	0
2024-08-24 07:43:47			0	37354	0	0	0	28418	27010	157839	27170	1071690	46569	110556	0	0	8086	569180	0	0
2024-08-24 07:44:47			0	37367	0	0	0	28412	27010	157835	27100	1071726	46570	110554	0	0	8087	568664	0	0
2024-08-24 07:45:47			0	37356	0	0	0	28412	27010	157739	27057	1071699	46559	110554	0	0	8087	569101	0	0
2024-08-24 07:46:47			0	37353	0	0	0	28405	27000	157767	27251	1071761	46558	110551	0	0	8087	569252	0	0
2024-08-24 07:47:47			0	37337	0	0	0	28420	27010	157831	27137	1071717	46569	110557	0	0	8085	569854	0	0
2024-08-24 07:48:47			0	37339	0	0	0	28412	27010	157887	27222	1071753	46559	110554	0	0	8086	569775	0	0
2024-08-24 07:49:47			0	37324	0	0	0	28418	27010	157923	27135	1071780	46559	110556	0	0	8085	570370	0	0
2024-08-24 07:50:47			0	37304	0	0	0	28420	27010	157930	26902	1071753	46559	110557	0	0	8083	571165	0	0
2024-08-24 07:51:47			0	37284	0	0	0	28415	27020	158146	26795	1071798	46560	110555	0	0	8082	571928	0	0
2024-08-24 07:52:47			0	37254	0	0	0	28415	27010	158142	27192	1071780	46547	110555	0	0	8081	573155	0	0
2024-08-24 07:53:47			0	37266	0	0	0	28412	27010	158070	27147	1071770	46546	110554	0	0	8081	572677	0	0
2024-08-24 07:54:47			0	37280	0	0	0	28420	27030	158114	26852	1071780	46582	110557	0	0	8082	572054	0	0
2024-08-24 07:55:47			0	37248	0	0	0	28420	27020	158222	26861	1071735	46571	110557	0	0	8080	573361	0	0
2024-08-24 07:56:47			0	37217	0	0	0	28428	27020	158282	27133	1071771	46571	110560	0	0	8078	574598	0	0
2024-08-24 07:57:47			0	37223	0	0	0	28418	27020	158338	27003	1071771	46571	110556	0	0	8079	574358	0	0
2024-08-24 07:58:47			0	37205	0	0	0	28418	27020	158474	27033	1071771	46560	110556	0	0	8078	575077	0	0
2024-08-24 07:59:47			0	37176	0	0	0	28423	27030	158490	27248	1071780	46560	110558	0	0	8076	576202	0	0
2024-08-24 08:00:47			0	37188	0	0	0	28420	27020	158594	27055	1071798	46560	110557	0	0	8077	575756	0	0
2024-08-24 08:01:47			0	37165	0	0	0	28420	27030	158622	27355	1071780	46571	110557	0	0	8075	576642	0	0
2024-08-24 08:02:47			0	37156	0	0	0	28425	27020	158706	27168	1071852	46548	110559	0	0	8075	577036	0	0
2024-08-24 08:03:47			0	37142	0	0	0	28436	27020	158598	26984	1071852	46582	110563	0	0	8074	577596	0	0
2024-08-24 08:04:47			0	37129	0	0	0	28431	27020	158778	27095	1071789	46582	110561	0	0	8073	578117	0	0
2024-08-24 08:05:47			0	37126	0	0	0	28433	27030	158638	26993	1071896	46561	110562	0	0	8073	578204	0	0
2024-08-24 08:06:47			0	37153	0	0	0	28436	27040	158694	27013	1071905	46562	110563	0	0	8075	577089	0	0
2024-08-24 08:07:47			0	37153	0	0	0	28438	27030	158622	27190	1071816	46572	110564	0	0	8074	577122	0	0
2024-08-24 08:08:47			0	37165	0	0	0	28446	27040	158646	27152	1071852	46573	110567	0	0	8075	576609	0	0
2024-08-24 08:09:47			0	37194	0	0	0	28449	27040	158562	26994	1071861	46573	110568	0	0	8077	575450	0	0
2024-08-24 08:10:47			0	37178	0	0	0	28444	27040	158438	26951	1071969	46562	110566	0	0	8076	576089	0	0
2024-08-24 08:11:47			0	37193	0	0	0	28446	27050	158458	27267	1071951	46574	110567	0	0	8077	575457	0	0
2024-08-24 08:12:47			0	37202	0	0	0	28449	27040	158414	27279	1071905	46573	110568	0	0	8077	575130	0	0
2024-08-24 08:13:47			0	37203	0	0	0	28459	27040	158390	27196	1071879	46573	110572	0	0	8077	575091	0	0
2024-08-24 08:14:47			0	37217	0	0	0	28446	27040	158218	27159	1071879	46562	110567	0	0	8078	574532	0	0
2024-08-24 08:15:47			0	37243	0	0	0	28457	27050	158162	26710	1071897	46574	110571	0	0	8079	573462	0	0
2024-08-24 08:16:47			0	37249	0	0	0	28451	27040	158214	27246	1071969	46573	110569	0	0	8080	573256	0	0
2024-08-24 08:17:47			0	37253	0	0	0	28454	27050	158202	27034	1071951	46574	110570	0	0	8080	573063	0	0
2024-08-24 08:18:47			0	37287	0	0	0	28449	27050	158182	27123	1071951	46563	110568	0	0	8082	571710	0	0
2024-08-24 08:19:47			0	37287	0	0	0	28457	27050	158058	27189	1072040	46574	110571	0	0	8082	571710	0	0
2024-08-24 08:20:47			0	37284	0	0	0	28454	27050	158050	26970	1071978	46574	110570	0	0	8082	571829	0	0
2024-08-24 08:21:47			0	37285	0	0	0	28449	27060	158022	27022	1071915	46564	110568	0	0	8082	571757	0	0
2024-08-24 08:22:47			0	37275	0	0	0	28451	27050	158122	27133	1071987	46574	110569	0	0	8081	572187	0	0
2024-08-24 08:23:47			0	37250	0	0	0	28446	27060	158146	26939	1071942	46564	110567	0	0	8080	573150	0	0
2024-08-24 08:24:47			0	37232	0	0	0	28451	27050	158182	27320	1071960	46574	110569	0	0	8079	573900	0	0
2024-08-24 08:25:47			0	37203	0	0	0	28457	27060	158262	27216	1071951	46575	110571	0	0	8077	575025	0	0
2024-08-24 08:26:47			0	37208	0	0	0	28464	27050	158326	27083	1071960	46574	110574	0	0	8077	574858	0	0
2024-08-24 08:27:47			0	37203	0	0	0	28472	27070	158398	27045	1072023	46553	110577	0	0	8077	574992	0	0
2024-08-24 08:28:47			0	37203	0	0	0	28467	27070	158282	26963	1071996	46586	110575	0	0	8077	574992	0	0
2024-08-24 08:29:47			0	37213	0	0	0	28470	27060	158218	26880	1072005	46575	110576	0	0	8078	574625	0	0
2024-08-24 08:30:47			0	37221	0	0	0	28470	27070	158294	27118	1072014	46576	110576	0	0	8078	574273	0	0
2024-08-24 08:31:47			0	37212	0	0	0	28464	27070	158362	27130	1072094	46553	110574	0	0	8078	574632	0	0
2024-08-24 08:32:47			0	37221	0	0	0	28483	27080	158098	26951	1072112	46566	110581	0	0	8078	574240	0	0
2024-08-24 08:33:47			0	37216	0	0	0	28480	27080	158174	27293	1072112	46577	110580	0	0	8078	574440	0	0
2024-08-24 08:34:47			0	37210	0	0	0	28488	27070	158170	27088	1072068	46576	110583	0	0	8077	574712	0	0
2024-08-24 08:35:47			0	37205	0	0	0	28480	27070	158246	26942	1072103	46576	110580	0	0	8077	574912	0	0
2024-08-24 08:36:47			0	37200	0	0	0	28480	27070	158182	26977	1072077	46576	110580	0	0	8077	575111	0	0
2024-08-24 08:37:47			0	37210	0	0	0	28485	27070	158186	27086	1072130	46576	110582	0	0	8077	574712	0	0
2024-08-24 08:38:47			0	37212	0	0	0	28488	27090	158338	27000	1072131	46567	110583	0	0	8077	574566	0	0
2024-08-24 08:39:47			0	37215	0	0	0	28485	27080	158210	27322	1072095	46567	110582	0	0	8078	574480	0	0
2024-08-24 08:40:47			0	37202	0	0	0	28493	27080	158402	27270	1072095	46578	110585	0	0	8077	574998	0	0
2024-08-24 08:41:47			0	37202	0	0	0	28493	27090	158254	27305	1072184	46578	110585	0	0	8077	574966	0	0
2024-08-24 08:42:47			0	37191	0	0	0	28490	27080	158298	27234	1072175	46578	110584	0	0	8076	575438	0	0
2024-08-24 08:43:47			0	37172	0	0	0	28493	27090	158390	26994	1072193	46567	110585	0	0	8075	576164	0	0
2024-08-24 08:44:47			0	37173	0	0	0	28501	27080	158554	27001	1072121	46567	110588	0	0	8075	576157	0	0
2024-08-24 08:45:47			0	37165	0	0	0	28496	27090	158662	27372	1072113	46567	110586	0	0	8074	576444	0	0
2024-08-24 08:46:47			0	37145	0	0	0	28488	27090	158490	27029	1072140	46578	110583	0	0	8073	577244	0	0
2024-08-24 08:47:47			0	37157	0	0	0	28490	27100	158498	27098	1072122	46579	110584	0	0	8074	576731	0	0
2024-08-24 08:48:47			0	37166	0	0	0	28498	27090	158526	26856	1072220	46588	110587	0	0	8074	576404	0	0
2024-08-24 08:49:47			0	37150	0	0	0	28496	27090	158518	27020	1072193	46578	110586	0	0	8074	577044	0	0
2024-08-24 08:50:47			0	37127	0	0	0	28496	27090	158682	27322	1072157	46578	110586	0	0	8072	577965	0	0
2024-08-24 08:51:47			0	37077	0	0	0	28498	27090	158838	27281	1072157	46555	110587	0	0	8069	579970	0	0
2024-08-24 08:52:47			0	37070	0	0	0	28503	27100	158850	27081	1072256	46579	110589	0	0	8069	580218	0	0
2024-08-24 08:53:47			0	37049	0	0	0	28501	27100	158894	27012	1072211	46569	110588	0	0	8068	581062	0	0
2024-08-24 08:54:47			0	37056	0	0	0	28501	27100	158950	27119	1072202	46579	110588	0	0	8068	580780	0	0
2024-08-24 08:55:47			0	37040	0	0	0	28503	27100	159014	26948	1072185	46569	110589	0	0	8067	581423	0	0
2024-08-24 08:56:47			0	37035	0	0	0	28511	27100	159038	26894	1072256	46579	110592	0	0	8067	581625	0	0
2024-08-24 08:57:47			0	37015	0	0	0	28506	27110	159142	27326	1072220	46569	110590	0	0	8066	582396	0	0
2024-08-24 08:58:47			0	37028	0	0	0	28509	27110	159186	26923	1072247	46580	110591	0	0	8066	581873	0	0
2024-08-24 08:59:47			0	37027	0	0	0	28511	27110	159090	26528	1072247	46569	110592	0	0	8066	581913	0	0
2024-08-24 09:00:47			0	37008	0	0	0	28506	27110	159098	26805	1072256	46569	110590	0	0	8065	582678	0	0
2024-08-24 09:01:47			0	37013	0	0	0	28509	27110	159078	26783	1072283	46580	110591	0	0	8065	582477	0	0
2024-08-24 09:02:47			0	37026	0	0	0	28509	27110	159058	27296	1072310	46580	110591	0	0	8066	581953	0	0
2024-08-24 09:03:47			0	37035	0	0	0	28511	27110	158938	27267	1072274	46590	110592	0	0	8067	581591	0	0
2024-08-24 09:04:47			0	37030	0	0	0	28516	27110	159018	27227	1072310	46546	110594	0	0	8066	581792	0	0
2024-08-24 09:05:47			0	37038	0	0	0	28519	27120	158910	27036	1072265	46570	110595	0	0	8067	581437	0	0
2024-08-24 09:06:47			0	37050	0	0	0	28519	27110	158854	26955	1072274	46580	110595	0	0	8067	580988	0	0
2024-08-24 09:07:47			0	37051	0	0	0	28514	27120	158842	27100	1072319	46570	110593	0	0	8068	580915	0	0
2024-08-24 09:08:47			0	37065	0	0	0	28516	27120	158866	26955	1072265	46570	110594	0	0	8068	580352	0	0
2024-08-24 09:09:47			0	37072	0	0	0	28509	27110	158886	27033	1072337	46569	110591	0	0	8069	580104	0	0
2024-08-24 09:10:47			0	37057	0	0	0	28514	27110	158822	27260	1072256	46580	110593	0	0	8068	580707	0	0
2024-08-24 09:11:47			0	37074	0	0	0	28511	27120	158934	27105	1072292	46570	110592	0	0	8069	579991	0	0
2024-08-24 09:12:47			0	37056	0	0	0	28509	27110	159022	26927	1072283	46569	110591	0	0	8068	580747	0	0
2024-08-24 09:13:47			0	37034	0	0	0	28516	27120	159050	27083	1072346	46591	110594	0	0	8067	581598	0	0
2024-08-24 09:14:47			0	37052	0	0	0	28509	27120	159026	27147	1072319	46570	110591	0	0	8068	580874	0	0
2024-08-24 09:15:47			0	37031	0	0	0	28514	27110	159074	27022	1072337	46580	110593	0	0	8066	581752	0	0
2024-08-24 09:16:47			0	37018	0	0	0	28516	27120	159050	27126	1072292	46581	110594	0	0	8066	582242	0	0
2024-08-24 09:17:47			0	37020	0	0	0	28516	27120	159078	26923	1072355	46571	110594	0	0	8066	582161	0	0
2024-08-24 09:18:47			0	37033	0	0	0	28524	27120	158958	27071	1072346	46570	110597	0	0	8066	581638	0	0
2024-08-24 09:19:47			0	37028	0	0	0	28529	27120	159062	27175	1072346	46581	110599	0	0	8066	581839	0	0
2024-08-24 09:20:47			0	37043	0	0	0	28527	27120	158970	27003	1072328	46571	110598	0	0	8067	581236	0	0
2024-08-24 09:21:47			0	37027	0	0	0	28519	27130	158990	27138	1072310	46559	110595	0	0	8066	581846	0	0
2024-08-24 09:22:47			0	37036	0	0	0	28516	27120	159038	27064	1072274	46571	110594	0	0	8067	581518	0	0
2024-08-24 09:23:47			0	37057	0	0	0	28527	27120	158958	27171	1072328	46559	110598	0	0	8068	580673	0	0
2024-08-24 09:24:47			0	37047	0	0	0	28535	27110	158930	26897	1072337	46580	110601	0	0	8067	581109	0	0
2024-08-24 09:25:47			0	37061	0	0	0	28529	27120	158982	26746	1072355	46571	110599	0	0	8068	580513	0	0
2024-08-24 09:26:47			0	37094	0	0	0	28532	27130	158930	26930	1072364	46571	110600	0	0	8070	579155	0	0
2024-08-24 09:27:47			0	37066	0	0	0	28529	27120	158902	27121	1072346	46591	110599	0	0	8068	580312	0	0
2024-08-24 09:28:47			0	37084	0	0	0	28527	27130	158882	27190	1072364	46571	110598	0	0	8069	579556	0	0
2024-08-24 09:29:47			0	37075	0	0	0	28540	27120	158826	27248	1072355	46571	110603	0	0	8069	579950	0	0
2024-08-24 09:30:47			0	37103	0	0	0	28540	27130	158782	26972	1072391	46571	110603	0	0	8070	578794	0	0
2024-08-24 09:31:47			0	37106	0	0	0	28535	27130	158810	27059	1072445	46571	110601	0	0	8071	578674	0	0
2024-08-24 09:32:47			0	37107	0	0	0	28529	27130	158834	27076	1072400	46583	110599	0	0	8071	578634	0	0
2024-08-24 09:33:47			0	37108	0	0	0	28548	27130	158862	27114	1072364	46571	110606	0	0	8070	578593	0	0
2024-08-24 09:34:47			0	37093	0	0	0	28550	27140	158778	27020	1072472	46573	110607	0	0	8070	579162	0	0
2024-08-24 09:35:47			0	37101	0	0	0	28542	27130	158626	27072	1072481	46583	110604	0	0	8070	578874	0	0
2024-08-24 09:36:47			0	37102	0	0	0	28545	27140	158758	26795	1072409	46583	110605	0	0	8070	578801	0	0
2024-08-24 09:37:47			0	37105	0	0	0	28553	27140	158714	26767	1072391	46583	110608	0	0	8070	578680	0	0
2024-08-24 09:38:47			0	37093	0	0	0	28545	27140	158822	26863	1072472	46583	110605	0	0	8070	579162	0	0
2024-08-24 09:39:47			0	37106	0	0	0	28550	27140	158762	26935	1072409	46572	110607	0	0	8070	578640	0	0
2024-08-24 09:40:47			0	37098	0	0	0	28548	27140	158750	26901	1072463	46593	110606	0	0	8070	578961	0	0
2024-08-24 09:41:47			0	37090	0	0	0	28548	27140	158770	27137	1072409	46572	110606	0	0	8069	579282	0	0
2024-08-24 09:42:47			0	37079	0	0	0	28548	27140	158746	27067	1072472	46583	110606	0	0	8069	579723	0	0
2024-08-24 09:43:47			0	37078	0	0	0	28542	27150	158770	27008	1072481	46584	110604	0	0	8069	579730	0	0
2024-08-24 09:44:47			0	37083	0	0	0	28561	27150	158902	27026	1072481	46574	110611	0	0	8069	579529	0	0
2024-08-24 09:45:47			0	37087	0	0	0	28555	27140	158806	27045	1072472	46573	110609	0	0	8069	579402	0	0
2024-08-24 09:46:47			0	37102	0	0	0	28558	27140	158854	27083	1072526	46583	110610	0	0	8070	578801	0	0
2024-08-24 09:47:47			0	37089	0	0	0	28548	27150	158722	27020	1072481	46562	110606	0	0	8069	579289	0	0
2024-08-24 09:48:47			0	37102	0	0	0	28553	27150	158786	26987	1072481	46574	110608	0	0	8070	578767	0	0
2024-08-24 09:49:47			0	37122	0	0	0	28555	27150	158570	26942	1072535	46595	110609	0	0	8071	577966	0	0
2024-08-24 09:50:47			0	37107	0	0	0	28553	27150	158598	26937	1072481	46595	110608	0	0	8070	578567	0	0
2024-08-24 09:51:47			0	37128	0	0	0	28558	27140	158618	26660	1072499	46583	110610	0	0	8071	577759	0	0
2024-08-24 09:52:47			0	37143	0	0	0	28542	27150	158638	27053	1072463	46584	110604	0	0	8073	577125	0	0
2024-08-24 09:53:47			0	37152	0	0	0	28545	27150	158478	27232	1072481	46584	110605	0	0	8073	576765	0	0
2024-08-24 09:54:47			0	37135	0	0	0	28555	27150	158582	27064	1072454	46584	110609	0	0	8072	577446	0	0
2024-08-24 09:55:47			0	37144	0	0	0	28555	27140	158514	26979	1072526	46583	110609	0	0	8072	577118	0	0
2024-08-24 09:56:47			0	37169	0	0	0	28558	27140	158486	27209	1072526	46583	110610	0	0	8074	576119	0	0
2024-08-24 09:57:47			0	37172	0	0	0	28555	27160	158334	27017	1072499	46574	110609	0	0	8074	575932	0	0
2024-08-24 09:58:47			0	37164	0	0	0	28563	27150	158402	27216	1072571	46595	110612	0	0	8074	576285	0	0
2024-08-24 09:59:47			0	37169	0	0	0	28561	27150	158438	26977	1072517	46595	110611	0	0	8074	576085	0	0
2024-08-24 10:00:47			0	37159	0	0	0	28563	27150	158538	27232	1072517	46595	110612	0	0	8073	576485	0	0
2024-08-24 10:01:47			0	37151	0	0	0	28568	27150	158454	27192	1072571	46584	110614	0	0	8073	576805	0	0
2024-08-24 10:02:47			0	37154	0	0	0	28568	27150	158562	27013	1072544	46574	110614	0	0	8073	576685	0	0
2024-08-24 10:03:47			0	37148	0	0	0	28571	27160	158562	27336	1072553	46574	110615	0	0	8073	576892	0	0
2024-08-24 10:04:47			0	37139	0	0	0	28550	27160	158686	27182	1072526	46574	110607	0	0	8072	577252	0	0
2024-08-24 10:05:47			0	37136	0	0	0	28561	27160	158586	27121	1072553	46595	110611	0	0	8072	577372	0	0
2024-08-24 10:06:47			0	37144	0	0	0	28566	27160	158546	27369	1072606	46584	110613	0	0	8072	577052	0	0
2024-08-24 10:07:47			0	37140	0	0	0	28579	27160	158558	27138	1072580	46574	110618	0	0	8072	577212	0	0
2024-08-24 10:08:47			0	37120	0	0	0	28571	27170	158558	27254	1072544	46586	110615	0	0	8071	577980	0	0
2024-08-24 10:09:47			0	37145	0	0	0	28571	27160	158530	27045	1072589	46585	110615	0	0	8072	577012	0	0
2024-08-24 10:10:47			0	37156	0	0	0	28571	27160	158442	26863	1072562	46585	110615	0	0	8073	576572	0	0
2024-08-24 10:11:47			0	37153	0	0	0	28573	27170	158542	27225	1072661	46586	110616	0	0	8073	576659	0	0
2024-08-24 10:12:47			0	37149	0	0	0	28584	27180	158498	27255	1072670	46586	110620	0	0	8072	576786	0	0
2024-08-24 10:13:47			0	37169	0	0	0	28586	27170	158446	27152	1072661	46576	110621	0	0	8074	576019	0	0
2024-08-24 10:14:47			0	37134	0	0	0	28592	27170	158454	26958	1072607	46576	110623	0	0	8071	577419	0	0
2024-08-24 10:15:47			0	37157	0	0	0	28589	27180	158362	27100	1072670	46586	110622	0	0	8073	576466	0	0
2024-08-24 10:16:47			0	37139	0	0	0	28592	27180	158522	27053	1072652	46598	110623	0	0	8072	577186	0	0
2024-08-24 10:17:47			0	37148	0	0	0	28597	27190	158362	26875	1072688	46578	110625	0	0	8072	576793	0	0
2024-08-24 10:18:47			0	37147	0	0	0	28599	27180	158418	27248	1072652	46577	110626	0	0	8072	576866	0	0
2024-08-24 10:19:47			0	37148	0	0	0	28610	27180	158462	27150	1072697	46586	110630	0	0	8072	576826	0	0
2024-08-24 10:20:47			0	37149	0	0	0	28607	27180	158398	27161	1072679	46587	110629	0	0	8072	576786	0	0
2024-08-24 10:21:47			0	37138	0	0	0	28615	27190	158490	27093	1072742	46588	110632	0	0	8071	577193	0	0
2024-08-24 10:22:47			0	37144	0	0	0	28618	27190	158414	27083	1072715	46599	110633	0	0	8072	576953	0	0
2024-08-24 10:23:47			0	37157	0	0	0	28620	27190	158338	26878	1072831	46588	110634	0	0	8072	576433	0	0
2024-08-24 10:24:47			0	37169	0	0	0	28620	27190	158386	26842	1072751	46578	110634	0	0	8073	575953	0	0
2024-08-24 10:25:47			0	37172	0	0	0	28612	27200	158386	27147	1072787	46611	110631	0	0	8073	575800	0	0
2024-08-24 10:26:47			0	37189	0	0	0	28623	27200	158354	27256	1072814	46578	110635	0	0	8074	575121	0	0
2024-08-24 10:27:47			0	37166	0	0	0	28625	27200	158446	27152	1072814	46588	110636	0	0	8073	576040	0	0
2024-08-24 10:28:47			0	37167	0	0	0	28628	27200	158378	27353	1072849	46589	110637	0	0	8073	576000	0	0
2024-08-24 10:29:47			0	37159	0	0	0	28631	27210	158350	27319	1072841	46581	110638	0	0	8072	576287	0	0
2024-08-24 10:30:47			0	37174	0	0	0	28631	27210	158214	27360	1072805	46590	110638	0	0	8073	575687	0	0
2024-08-24 10:31:47			0	37181	0	0	0	28631	27230	158334	27038	1072886	46602	110638	0	0	8074	575342	0	0
2024-08-24 10:32:47			0	37182	0	0	0	28628	27230	158326	27208	1072841	46582	110637	0	0	8074	575302	0	0
2024-08-24 10:33:47			0	37187	0	0	0	28636	27210	158410	27343	1072894	46591	110640	0	0	8074	575168	0	0
2024-08-24 10:34:47			0	37174	0	0	0	28662	27220	158346	27147	1072903	46602	110650	0	0	8073	575654	0	0
2024-08-24 10:35:47			0	37178	0	0	0	28675	27240	158322	27234	1072984	46593	110655	0	0	8073	575428	0	0
2024-08-24 10:36:47			0	37184	0	0	0	28680	27240	158246	26892	1073047	46593	110657	0	0	8073	575189	0	0
2024-08-24 10:37:47			0	37192	0	0	0	28670	27240	158310	27182	1073020	46616	110653	0	0	8074	574869	0	0
2024-08-24 10:38:47			0	37183	0	0	0	28670	27250	158286	26946	1073029	46604	110653	0	0	8073	575196	0	0
2024-08-24 10:39:47			0	37189	0	0	0	28662	27250	158250	27019	1073038	46583	110650	0	0	8074	574956	0	0
2024-08-24 10:40:47			0	37209	0	0	0	28667	27250	158222	27027	1072985	46605	110652	0	0	8075	574159	0	0
2024-08-24 10:41:47			0	37214	0	0	0	28667	27250	158234	27272	1073038	46594	110652	0	0	8075	573959	0	0
2024-08-24 10:42:47			0	37221	0	0	0	28662	27260	158178	27033	1073101	46595	110650	0	0	8076	573647	0	0
2024-08-24 10:43:47			0	37216	0	0	0	28670	27250	158122	26783	1072958	46594	110653	0	0	8075	573880	0	0
2024-08-24 10:44:47			0	37208	0	0	0	28688	27250	158118	26974	1073092	46605	110660	0	0	8074	574198	0	0
2024-08-24 10:45:47			0	37220	0	0	0	28693	27260	158158	27029	1073101	46595	110662	0	0	8075	573687	0	0
2024-08-24 10:46:47			0	37223	0	0	0	28698	27270	158134	27131	1073128	46596	110664	0	0	8075	573535	0	0
2024-08-24 10:47:47			0	37222	0	0	0	28714	27270	158150	26925	1073182	46596	110670	0	0	8075	573574	0	0
2024-08-24 10:48:47			0	37228	0	0	0	28711	27280	158082	26996	1073191	46620	110669	0	0	8075	573302	0	0
2024-08-24 10:49:47			0	37218	0	0	0	28719	27280	158026	26870	1073254	46609	110672	0	0	8075	573701	0	0
2024-08-24 10:50:47			0	37236	0	0	0	28724	27270	158062	26960	1073209	46619	110674	0	0	8076	573017	0	0
2024-08-24 10:51:47			0	37231	0	0	0	28722	27280	158082	27261	1073254	46598	110673	0	0	8075	573183	0	0
2024-08-24 10:52:47			0	37225	0	0	0	28729	27290	158014	26883	1073245	46609	110676	0	0	8075	573389	0	0
2024-08-24 10:53:47			0	37226	0	0	0	28727	27300	157970	26955	1073317	46600	110675	0	0	8075	573316	0	0
2024-08-24 10:54:47			0	37236	0	0	0	28737	27290	158014	26963	1073299	46621	110679	0	0	8075	572951	0	0
2024-08-24 10:55:47			0	37240	0	0	0	28732	27300	158006	27310	1073344	46623	110677	0	0	8076	572759	0	0
2024-08-24 10:56:47			0	37226	0	0	0	28729	27310	158006	27052	1073380	46600	110676	0	0	8075	573283	0	0
2024-08-24 10:57:47			0	37241	0	0	0	28737	27310	158078	27105	1073416	46589	110679	0	0	8076	572686	0	0
2024-08-24 10:58:47			0	37246	0	0	0	28727	27310	157998	27253	1073407	46589	110675	0	0	8076	572487	0	0
2024-08-24 10:59:47			0	37221	0	0	0	28748	27330	158006	27090	1073416	46591	110683	0	0	8075	573417	0	0
2024-08-24 11:00:47			0	37237	0	0	0	28753	27320	158066	27213	1073344	46601	110685	0	0	8075	572812	0	0
2024-08-24 11:01:47			0	37221	0	0	0	28758	27320	158002	27024	1073488	46613	110687	0	0	8074	573450	0	0
2024-08-24 11:02:47			0	37228	0	0	0	28766	27340	157922	26915	1073497	46593	110690	0	0	8075	573105	0	0
2024-08-24 11:03:47			0	37214	0	0	0	28755	27320	157918	27170	1073461	46613	110686	0	0	8074	573728	0	0
2024-08-24 11:04:47			0	37234	0	0	0	28750	27340	157986	27142	1073578	46604	110684	0	0	8075	572866	0	0
2024-08-24 11:05:47			0	37245	0	0	0	28758	27340	157882	27055	1073470	46604	110687	0	0	8076	572428	0	0
2024-08-24 11:06:47			0	37234	0	0	0	28748	27340	158018	27090	1073488	46592	110683	0	0	8075	572866	0	0
2024-08-24 11:07:47			0	37231	0	0	0	28748	27350	157890	27090	1073506	46594	110683	0	0	8075	572953	0	0
2024-08-24 11:08:47			0	37243	0	0	0	28761	27340	157942	27038	1073497	46593	110688	0	0	8076	572508	0	0
2024-08-24 11:09:47			0	37249	0	0	0	28771	27350	157930	26797	1073560	46583	110692	0	0	8076	572236	0	0
2024-08-24 11:10:47			0	37231	0	0	0	28776	27340	157906	27074	1073551	46604	110694	0	0	8075	572986	0	0
2024-08-24 11:11:47			0	37253	0	0	0	28799	27360	157886	27097	1073614	46628	110703	0	0	8076	572044	0	0
2024-08-24 11:12:47			0	37256	0	0	0	28794	27350	157886	27109	1073677	46605	110701	0	0	8076	571958	0	0
2024-08-24 11:13:47			0	37241	0	0	0	28784	27360	157906	26883	1073641	46617	110697	0	0	8075	572522	0	0
2024-08-24 11:14:47			0	37240	0	0	0	28794	27370	157850	27182	1073740	46629	110701	0	0	8075	572528	0	0
2024-08-24 11:15:47			0	37263	0	0	0	28805	27370	157790	26956	1073740	46607	110705	0	0	8076	571614	0	0
2024-08-24 11:16:47			0	37264	0	0	0	28805	27380	157814	26876	1073704	46597	110705	0	0	8076	571541	0	0
2024-08-24 11:17:47			0	37267	0	0	0	28794	27380	157838	27142	1073704	46597	110701	0	0	8077	571422	0	0
2024-08-24 11:18:47			0	37252	0	0	0	28802	27380	157826	26935	1073776	46618	110704	0	0	8076	572018	0	0
2024-08-24 11:19:47			0	37271	0	0	0	28786	27390	157746	26896	1073713	46598	110698	0	0	8077	571230	0	0
2024-08-24 11:20:47			0	37280	0	0	0	28766	27390	157750	27183	1073713	46598	110690	0	0	8078	570873	0	0
2024-08-24 11:21:47			0	37284	0	0	0	28776	27390	157730	27315	1073686	46609	110694	0	0	8078	570714	0	0
2024-08-24 11:22:47			0	37278	0	0	0	28786	27390	157734	26854	1073776	46598	110698	0	0	8078	570952	0	0
2024-08-24 11:23:47			0	37291	0	0	0	28799	27400	157722	27095	1073785	46620	110703	0	0	8078	570403	0	0
2024-08-24 11:24:47			0	37285	0	0	0	28810	27400	157782	26805	1073812	46598	110707	0	0	8078	570642	0	0
2024-08-24 11:25:47			0	37266	0	0	0	28805	27400	157750	27060	1073794	46621	110705	0	0	8077	571396	0	0
2024-08-24 11:26:47			0	37279	0	0	0	28815	27400	157762	26930	1073866	46620	110709	0	0	8077	570880	0	0
2024-08-24 11:27:47			0	37262	0	0	0	28812	27410	157806	26975	1073884	46611	110708	0	0	8076	571522	0	0
2024-08-24 11:28:47			0	37271	0	0	0	28815	27400	157638	27353	1073848	46610	110709	0	0	8077	571198	0	0
2024-08-24 11:29:47			0	37279	0	0	0	28823	27410	157734	27312	1073893	46611	110712	0	0	8077	570847	0	0
2024-08-24 11:30:47			0	37276	0	0	0	28807	27400	157750	27053	1073901	46610	110706	0	0	8077	570999	0	0
2024-08-24 11:31:47			0	37304	0	0	0	28807	27410	157654	27144	1073857	46611	110706	0	0	8079	569855	0	0
2024-08-24 11:32:47			0	37280	0	0	0	28807	27410	157742	27201	1073866	46611	110706	0	0	8077	570807	0	0
2024-08-24 11:33:47			0	37260	0	0	0	28828	27410	157698	27298	1073893	46588	110714	0	0	8076	571602	0	0
2024-08-24 11:34:47			0	37273	0	0	0	28854	27420	157694	27154	1073956	46623	110724	0	0	8076	571053	0	0
2024-08-24 11:35:47			0	37278	0	0	0	28857	27420	157686	26706	1073965	46623	110725	0	0	8077	570854	0	0
2024-08-24 11:36:47			0	37284	0	0	0	28844	27420	157678	26941	1073965	46612	110720	0	0	8077	570616	0	0
2024-08-24 11:37:47			0	37302	0	0	0	28854	27430	157694	27052	1073974	46590	110724	0	0	8078	569869	0	0
2024-08-24 11:38:47			0	37285	0	0	0	28849	27430	157662	27154	1073974	46624	110722	0	0	8077	570543	0	0
2024-08-24 11:39:47			0	37296	0	0	0	28857	27440	157730	26802	1073992	46603	110725	0	0	8078	570074	0	0
2024-08-24 11:40:47			0	37290	0	0	0	28864	27430	157626	27211	1074037	46625	110728	0	0	8077	570345	0	0
2024-08-24 11:41:47			0	37300	0	0	0	28867	27440	157586	27469	1073965	46603	110729	0	0	8078	569915	0	0
2024-08-24 11:42:47			0	37294	0	0	0	28864	27450	157618	27251	1074118	46625	110728	0	0	8077	570121	0	0
2024-08-24 11:43:47			0	37301	0	0	0	28877	27440	157618	27130	1074109	46614	110733	0	0	8078	569876	0	0
2024-08-24 11:44:47			0	37294	0	0	0	28851	27450	157634	27364	1074091	46615	110723	0	0	8078	570121	0	0
2024-08-24 11:45:47			0	37304	0	0	0	28828	27460	157526	27312	1074109	46616	110714	0	0	8079	569691	0	0
2024-08-24 11:46:47			0	37301	0	0	0	28823	27450	157638	27286	1074073	46605	110712	0	0	8079	569843	0	0
2024-08-24 11:47:47			0	37307	0	0	0	28831	27440	157586	27294	1074001	46614	110715	0	0	8079	569638	0	0
2024-08-24 11:48:47			0	37313	0	0	0	28841	27450	157550	27291	1074064	46625	110719	0	0	8079	569367	0	0
2024-08-24 11:49:47			0	37285	0	0	0	28841	27450	157682	27168	1074100	46616	110719	0	0	8077	570478	0	0
2024-08-24 11:50:47			0	37287	0	0	0	28838	27450	157570	27074	1074091	46604	110718	0	0	8078	570398	0	0
2024-08-24 11:51:47			0	37302	0	0	0	28838	27450	157638	27062	1074037	46604	110718	0	0	8078	569803	0	0
2024-08-24 11:52:47			0	37293	0	0	0	28823	27450	157642	27031	1074037	46604	110712	0	0	8078	570160	0	0
2024-08-24 11:53:47			0	37304	0	0	0	28825	27450	157542	26920	1074010	46604	110713	0	0	8079	569724	0	0
2024-08-24 11:54:47			0	37286	0	0	0	28846	27450	157646	27215	1074037	46625	110721	0	0	8077	570438	0	0
2024-08-24 11:55:47			0	37292	0	0	0	28854	27450	157642	27242	1074037	46615	110724	0	0	8078	570200	0	0
2024-08-24 11:56:47			0	37305	0	0	0	28859	27440	157634	27293	1074082	46614	110726	0	0	8078	569717	0	0
2024-08-24 11:57:47			0	37296	0	0	0	28851	27440	157638	27057	1074109	46636	110723	0	0	8078	570074	0	0
2024-08-24 11:58:47			0	37304	0	0	0	28862	27450	157558	27111	1074127	46605	110727	0	0	8078	569724	0	0
2024-08-24 11:59:47			0	37300	0	0	0	28859	27450	157630	27067	1074073	46616	110726	0	0	8078	569883	0	0
2024-08-24 12:00:47			0	37273	0	0	0	28844	27450	157622	26994	1074127	46605	110720	0	0	8077	570954	0	0
2024-08-24 12:01:47			0	37303	0	0	0	28862	27460	157678	26840	1074082	46605	110727	0	0	8078	569731	0	0
2024-08-24 12:02:47			0	37298	0	0	0	28857	27460	157574	27377	1074172	46605	110725	0	0	8078	569929	0	0
2024-08-24 12:03:47			0	37305	0	0	0	28857	27450	157530	27343	1074100	46616	110725	0	0	8078	569684	0	0
2024-08-24 12:04:47			0	37292	0	0	0	28867	27460	157614	27218	1074082	46616	110729	0	0	8077	570167	0	0
2024-08-24 12:05:47			0	37298	0	0	0	28885	27470	157570	27286	1074181	46617	110736	0	0	8077	569896	0	0
2024-08-24 12:06:47			0	37293	0	0	0	28888	27460	157606	27020	1074199	46626	110737	0	0	8077	570127	0	0
2024-08-24 12:07:47			0	37300	0	0	0	28890	27470	157570	27298	1074271	46618	110738	0	0	8077	569817	0	0
2024-08-24 12:08:47			0	37297	0	0	0	28872	27470	157690	27286	1074190	46607	110731	0	0	8078	569936	0	0
2024-08-24 12:09:47			0	37306	0	0	0	28849	27470	157558	27017	1074244	46618	110722	0	0	8079	569579	0	0
2024-08-24 12:10:47			0	37300	0	0	0	28844	27470	157574	27182	1074181	46606	110720	0	0	8078	569817	0	0
2024-08-24 12:11:47			0	37290	0	0	0	28883	27470	157658	27216	1074190	46618	110735	0	0	8077	570214	0	0
2024-08-24 12:12:47			0	37294	0	0	0	28901	27480	157714	27244	1074262	46619	110742	0	0	8077	570022	0	0
2024-08-24 12:13:47			0	37290	0	0	0	28942	27470	157586	27222	1074217	46618	110758	0	0	8076	570214	0	0
2024-08-24 12:14:47			0	37306	0	0	0	28937	27490	157550	27001	1074405	46641	110756	0	0	8077	569514	0	0
2024-08-24 12:15:47			0	37299	0	0	0	28955	27500	157578	27170	1074370	46630	110763	0	0	8076	569758	0	0
2024-08-24 12:16:47			0	37307	0	0	0	28932	27500	157510	27183	1074486	46631	110754	0	0	8077	569441	0	0
2024-08-24 12:17:47			0	37313	0	0	0	28914	27510	157602	26752	1074495	46621	110747	0	0	8078	569171	0	0
2024-08-24 12:18:47			0	37326	0	0	0	28885	27510	157503	27066	1074397	46611	110736	0	0	8079	568656	0	0
2024-08-24 12:19:47			0	37330	0	0	0	28877	27520	157407	26922	1074379	46622	110733	0	0	8080	568465	0	0
2024-08-24 12:20:47			0	37301	0	0	0	28880	27500	157418	26967	1074379	46621	110734	0	0	8078	569679	0	0
2024-08-24 12:21:47			0	37318	0	0	0	28909	27510	157574	26887	1074316	46632	110745	0	0	8078	568973	0	0
2024-08-24 12:22:47			0	37304	0	0	0	28901	27510	157470	26684	1074424	46611	110742	0	0	8078	569527	0	0
2024-08-24 12:23:47			0	37301	0	0	0	28914	27510	157414	26904	1074424	46632	110747	0	0	8077	569646	0	0
2024-08-24 12:24:47			0	37309	0	0	0	28927	27510	157506	26981	1074441	46631	110752	0	0	8078	569329	0	0
2024-08-24 12:25:47			0	37317	0	0	0	28929	27510	157518	27265	1074468	46631	110753	0	0	8078	569012	0	0
2024-08-24 12:26:47			0	37311	0	0	0	28932	27510	157438	27152	1074450	46632	110754	0	0	8078	569250	0	0
2024-08-24 12:27:47			0	37325	0	0	0	28935	27530	157435	26981	1074549	46600	110755	0	0	8078	568630	0	0
2024-08-24 12:28:47			0	37336	0	0	0	28945	27530	157411	27005	1074576	46633	110759	0	0	8079	568194	0	0
2024-08-24 12:29:47			0	37336	0	0	0	28945	27530	157307	26979	1074522	46633	110759	0	0	8079	568194	0	0
2024-08-24 12:30:47			0	37333	0	0	0	28950	27540	157335	27157	1074577	46625	110761	0	0	8079	568280	0	0
2024-08-24 12:31:47			0	37308	0	0	0	28961	27540	157342	27118	1074550	46636	110765	0	0	8077	569271	0	0
2024-08-24 12:32:47			0	37329	0	0	0	28955	27530	157479	26809	1074612	46635	110763	0	0	8078	568472	0	0
2024-08-24 12:33:47			0	37325	0	0	0	28950	27540	157391	26909	1074631	46636	110761	0	0	8078	568597	0	0
2024-08-24 12:34:47			0	37327	0	0	0	28976	27560	157455	26906	1074658	46637	110771	0	0	8078	568453	0	0
2024-08-24 12:35:47			0	37284	0	0	0	28989	27550	157370	26783	1074676	46615	110776	0	0	8075	570189	0	0
2024-08-24 12:36:47			0	37321	0	0	0	29015	27560	157439	26868	1074694	46616	110786	0	0	8077	568690	0	0
2024-08-24 12:37:47			0	37328	0	0	0	29059	27570	157415	26967	1074837	46649	110803	0	0	8077	568380	0	0
2024-08-24 12:38:47			0	37321	0	0	0	29051	27580	157399	27093	1074891	46651	110800	0	0	8077	568625	0	0
2024-08-24 12:39:47			0	37326	0	0	0	28968	27580	157379	27175	1074838	46628	110768	0	0	8078	568427	0	0
2024-08-24 12:40:47			0	37339	0	0	0	28937	27580	157319	26804	1074730	46618	110756	0	0	8080	567912	0	0
2024-08-24 12:41:47			0	37347	0	0	0	28953	27580	157207	26864	1074694	46605	110762	0	0	8080	567596	0	0
2024-08-24 12:42:47			0	37360	0	0	0	28992	27570	157291	26682	1074757	46626	110777	0	0	8080	567115	0	0
2024-08-24 12:43:47			0	37338	0	0	0	29025	27580	157291	27026	1074802	46627	110790	0	0	8078	567952	0	0
2024-08-24 12:44:47			0	37354	0	0	0	28981	27590	157339	26852	1074856	46641	110773	0	0	8080	567286	0	0
2024-08-24 12:45:47			0	37351	0	0	0	28955	27590	157307	27097	1074802	46641	110763	0	0	8080	567405	0	0
2024-08-24 12:46:47			0	37355	0	0	0	28958	27590	157251	27052	1074856	46619	110764	0	0	8080	567247	0	0
2024-08-24 12:47:47			0	37362	0	0	0	28984	27590	157279	26967	1074883	46619	110774	0	0	8080	566970	0	0
2024-08-24 12:48:47			0	37358	0	0	0	29010	27600	157179	27064	1074874	46630	110784	0	0	8079	567096	0	0
2024-08-24 12:49:47			0	37357	0	0	0	29059	27590	157215	27265	1074963	46629	110803	0	0	8079	567168	0	0
2024-08-24 12:50:47			0	37352	0	0	0	29142	27610	157307	27036	1075080	46654	110835	0	0	8077	567300	0	0
2024-08-24 12:51:47			0	37382	0	0	0	29215	27620	157219	27280	1075314	46677	110863	0	0	8077	566083	0	0
2024-08-24 12:52:47			0	37467	0	0	0	29231	27650	156803	26783	1075422	46680	110869	0	0	8082	562637	0	0
2024-08-24 12:53:47			0	37495	0	0	0	29223	27680	156699	27272	1075602	46671	110866	0	0	8084	561440	0	0
2024-08-24 12:54:47			0	37538	0	0	0	29223	27690	156495	26951	1075629	46662	110866	0	0	8087	559721	0	0
2024-08-24 12:55:47			0	37553	0	0	0	29223	27700	156447	27244	1075638	46663	110866	0	0	8088	559102	0	0
2024-08-24 12:56:47			0	37559	0	0	0	29220	27720	156299	27287	1075684	46666	110865	0	0	8088	558802	0	0
2024-08-24 12:57:47			0	37569	0	0	0	29205	27730	156299	27237	1075729	46666	110859	0	0	8089	558379	0	0
2024-08-24 12:58:47			0	37576	0	0	0	29215	27740	156303	27201	1075801	46657	110863	0	0	8089	558073	0	0
2024-08-24 12:59:47			0	37583	0	0	0	29225	27750	156315	27175	1075792	46658	110867	0	0	8090	557767	0	0
2024-08-24 13:00:47			0	37605	0	0	0	29236	27760	156275	27308	1075855	46668	110871	0	0	8091	556876	0	0
2024-08-24 13:01:47			0	37598	0	0	0	29251	27760	156147	26918	1075909	46658	110877	0	0	8090	557149	0	0
2024-08-24 13:02:47			0	37626	0	0	0	29246	27770	156111	26852	1075936	46670	110875	0	0	8092	556024	0	0
2024-08-24 13:03:47			0	37637	0	0	0	29244	27780	155983	27272	1075945	46660	110874	0	0	8093	555563	0	0
2024-08-24 13:04:47			0	37619	0	0	0	29241	27780	155879	27007	1075972	46660	110873	0	0	8092	556265	0	0
2024-08-24 13:05:47			0	37630	0	0	0	29238	27790	155955	27261	1075999	46651	110872	0	0	8092	555804	0	0
2024-08-24 13:06:47			0	37654	0	0	0	29238	27790	155867	27258	1076026	46663	110872	0	0	8094	554869	0	0
2024-08-24 13:07:47			0	37659	0	0	0	29244	27810	155835	27215	1076071	46651	110874	0	0	8094	554610	0	0
2024-08-24 13:08:47			0	37658	0	0	0	29241	27810	155871	27209	1076071	46651	110873	0	0	8094	554649	0	0
2024-08-24 13:09:47			0	37659	0	0	0	29246	27810	155915	27152	1076080	46664	110875	0	0	8094	554610	0	0
2024-08-24 13:10:47			0	37657	0	0	0	29254	27810	155879	27334	1076026	46652	110878	0	0	8094	554688	0	0
2024-08-24 13:11:47			0	37676	0	0	0	29254	27830	155863	27053	1076116	46654	110878	0	0	8095	553885	0	0
2024-08-24 13:12:47			0	37673	0	0	0	29249	27820	155903	27183	1076116	46665	110876	0	0	8095	554034	0	0
2024-08-24 13:13:47			0	37677	0	0	0	29259	27820	155863	27263	1076098	46665	110880	0	0	8095	553878	0	0
2024-08-24 13:14:47			0	37646	0	0	0	29241	27840	155875	27289	1076125	46677	110873	0	0	8093	555021	0	0
2024-08-24 13:15:47			0	37672	0	0	0	29251	27820	155815	27156	1076125	46665	110877	0	0	8095	554072	0	0
2024-08-24 13:16:47			0	37684	0	0	0	29238	27830	155767	27218	1076089	46654	110872	0	0	8096	553574	0	0
2024-08-24 13:17:47			0	37676	0	0	0	29231	27830	155871	27241	1076080	46665	110869	0	0	8095	553885	0	0
2024-08-24 13:18:47			0	37685	0	0	0	29257	27840	155755	27204	1076152	46655	110879	0	0	8095	553503	0	0
2024-08-24 13:19:47			0	37673	0	0	0	29264	27830	155715	27142	1076197	46654	110882	0	0	8095	554002	0	0
2024-08-24 13:20:47			0	37693	0	0	0	29283	27840	155763	27287	1076188	46666	110889	0	0	8095	553192	0	0
2024-08-24 13:21:47			0	37691	0	0	0	29280	27840	155807	27066	1076242	46655	110888	0	0	8095	553270	0	0
2024-08-24 13:22:47			0	37681	0	0	0	29270	27850	155719	26854	1076224	46666	110884	0	0	8095	553627	0	0
2024-08-24 13:23:47			0	37711	0	0	0	29272	27860	155723	27216	1076269	46668	110885	0	0	8097	552429	0	0
2024-08-24 13:24:47			0	37699	0	0	0	29293	27860	155695	27206	1076269	46657	110893	0	0	8096	552895	0	0
2024-08-24 13:25:47			0	37702	0	0	0	29288	27860	155603	27166	1076296	46668	110891	0	0	8096	552779	0	0
2024-08-24 13:26:47			0	37722	0	0	0	29298	27860	155699	27281	1076350	46668	110895	0	0	8097	552002	0	0
2024-08-24 13:27:47			0	37726	0	0	0	29306	27860	155643	27268	1076359	46669	110898	0	0	8097	551847	0	0
2024-08-24 13:28:47			0	37737	0	0	0	29311	27870	155571	27095	1076404	46669	110900	0	0	8098	551388	0	0
2024-08-24 13:29:47			0	37745	0	0	0	29311	27880	155487	26850	1076440	46670	110900	0	0	8098	551046	0	0
2024-08-24 13:30:47			0	37742	0	0	0	29311	27880	155535	27078	1076359	46670	110900	0	0	8098	551162	0	0
2024-08-24 13:31:47			0	37757	0	0	0	29337	27890	155479	27201	1076458	46671	110910	0	0	8098	550549	0	0
2024-08-24 13:32:47			0	37755	0	0	0	29348	27880	155471	27384	1076557	46671	110914	0	0	8098	550658	0	0
2024-08-24 13:33:47			0	37765	0	0	0	29366	27890	155471	27237	1076602	46671	110921	0	0	8098	550239	0	0
2024-08-24 13:34:47			0	37762	0	0	0	29363	27900	155411	27008	1076647	46673	110920	0	0	8098	550324	0	0
2024-08-24 13:35:47			0	37777	0	0	0	29368	27900	155379	27377	1076665	46683	110922	0	0	8099	549743	0	0
2024-08-24 13:36:47			0	37783	0	0	0	29348	27920	155375	27119	1076675	46663	110914	0	0	8100	549447	0	0
2024-08-24 13:37:47			0	37768	0	0	0	29366	27910	155331	27422	1076612	46662	110921	0	0	8099	550060	0	0
2024-08-24 13:38:47			0	37797	0	0	0	29381	27920	155343	26934	1076701	46674	110927	0	0	8100	548906	0	0
2024-08-24 13:39:47			0	37797	0	0	0	29366	27920	155299	27112	1076657	46664	110921	0	0	8100	548906	0	0
2024-08-24 13:40:47			0	37794	0	0	0	29386	27920	155263	27187	1076737	46675	110929	0	0	8100	549022	0	0
2024-08-24 13:41:47			0	37816	0	0	0	29410	27930	155163	27201	1076773	46687	110938	0	0	8101	548140	0	0
2024-08-24 13:42:47			0	37829	0	0	0	29379	27940	155047	27142	1076801	46677	110926	0	0	8102	547606	0	0
2024-08-24 13:43:47			0	37811	0	0	0	29386	27940	155067	27216	1076801	46666	110929	0	0	8101	548301	0	0
2024-08-24 13:44:47			0	37831	0	0	0	29405	27950	155143	27326	1076863	46678	110936	0	0	8102	547497	0	0
2024-08-24 13:45:47			0	37841	0	0	0	29397	27950	154999	27041	1076819	46678	110933	0	0	8103	547111	0	0
2024-08-24 13:46:47			0	37837	0	0	0	29402	27960	155147	27535	1076918	46667	110935	0	0	8102	547234	0	0
2024-08-24 13:47:47			0	37841	0	0	0	29397	27960	155019	27043	1076909	46666	110933	0	0	8103	547080	0	0
2024-08-24 13:48:47			0	37855	0	0	0	29410	27960	154887	27357	1076918	46667	110938	0	0	8103	546540	0	0
2024-08-24 13:49:47			0	37870	0	0	0	29402	27960	154883	26998	1076962	46666	110935	0	0	8104	545962	0	0
2024-08-24 13:50:47			0	37864	0	0	0	29412	27970	154987	26854	1076900	46658	110939	0	0	8104	546162	0	0
2024-08-24 13:51:47			0	37879	0	0	0	29397	27980	154843	27118	1076900	46681	110933	0	0	8105	545552	0	0
2024-08-24 13:52:47			0	37882	0	0	0	29399	27970	154835	27149	1076954	46680	110934	0	0	8105	545468	0	0
2024-08-24 13:53:47			0	37902	0	0	0	29412	27980	154759	27211	1076981	46669	110939	0	0	8106	544667	0	0
2024-08-24 13:54:47			0	37890	0	0	0	29428	27970	154763	26949	1076954	46691	110945	0	0	8105	545160	0	0
2024-08-24 13:55:47			0	37897	0	0	0	29433	27980	154803	27237	1077035	46669	110947	0	0	8105	544859	0	0
2024-08-24 13:56:47			0	37910	0	0	0	29436	27990	154799	26935	1077107	46682	110948	0	0	8106	544328	0	0
2024-08-24 13:57:47			0	37917	0	0	0	29446	27990	154735	26963	1077071	46693	110952	0	0	8106	544058	0	0
2024-08-24 13:58:47			0	37919	0	0	0	29444	28000	154651	27601	1077179	46694	110951	0	0	8107	543950	0	0
2024-08-24 13:59:47			0	37932	0	0	0	29446	28010	154707	26987	1077170	46685	110952	0	0	8107	543419	0	0
2024-08-24 14:00:47			0	37928	0	0	0	29441	28030	154751	27371	1077197	46697	110950	0	0	8107	543510	0	0
2024-08-24 14:01:47			0	37923	0	0	0	29441	28020	154683	27590	1077215	46685	110950	0	0	8107	543734	0	0
2024-08-24 14:02:47			0	37928	0	0	0	29472	28020	154715	27203	1077242	46685	110962	0	0	8107	543542	0	0
2024-08-24 14:03:47			0	37919	0	0	0	29467	28030	154719	26993	1077305	46686	110960	0	0	8106	543856	0	0
2024-08-24 14:04:47			0	37926	0	0	0	29470	28040	154711	27022	1077323	46687	110961	0	0	8107	543556	0	0
2024-08-24 14:05:47			0	37924	0	0	0	29451	28040	154571	27036	1077278	46687	110954	0	0	8107	543633	0	0
2024-08-24 14:06:47			0	37927	0	0	0	29493	28060	154655	26795	1077359	46700	110970	0	0	8106	543455	0	0
2024-08-24 14:07:47			0	37948	0	0	0	29581	28060	154683	27130	1077521	46710	111004	0	0	8106	542648	0	0
2024-08-24 14:08:47			0	37941	0	0	0	29519	28070	154675	27022	1077566	46701	110980	0	0	8107	542886	0	0
2024-08-24 14:09:47			0	37950	0	0	0	29496	28080	154707	27275	1077557	46691	110971	0	0	8108	542509	0	0
2024-08-24 14:10:47			0	37944	0	0	0	29519	28080	154631	27192	1077566	46692	110980	0	0	8107	542739	0	0
2024-08-24 14:11:47			0	37950	0	0	0	29519	28090	154607	26726	1077602	46703	110980	0	0	8107	542478	0	0
2024-08-24 14:12:47			0	37952	0	0	0	29477	28090	154579	27206	1077521	46692	110964	0	0	8108	542401	0	0
2024-08-24 14:13:47			0	37968	0	0	0	29483	28100	154499	27319	1077513	46682	110966	0	0	8109	541756	0	0
2024-08-24 14:14:47			0	37992	0	0	0	29516	28090	154487	26993	1077531	46670	110979	0	0	8110	540868	0	0
2024-08-24 14:15:47			0	37976	0	0	0	29503	28090	154423	26864	1077638	46704	110974	0	0	8109	541481	0	0
2024-08-24 14:16:47			0	38001	0	0	0	29527	28080	154419	27201	1077647	46669	110983	0	0	8110	540554	0	0
2024-08-24 14:17:47			0	37986	0	0	0	29527	28100	154455	26845	1077701	46694	110983	0	0	8109	541066	0	0
2024-08-24 14:18:47			0	37972	0	0	0	29529	28110	154395	27147	1077746	46683	110984	0	0	8109	541571	0	0
2024-08-24 14:19:47			0	37987	0	0	0	29529	28120	154419	27041	1077728	46695	110984	0	0	8110	540966	0	0
2024-08-24 14:20:47			0	37988	0	0	0	29540	28130	154379	27015	1077729	46697	110988	0	0	8109	540896	0	0
2024-08-24 14:21:47			0	37980	0	0	0	29535	28130	154351	26993	1077729	46697	110986	0	0	8109	541202	0	0
2024-08-24 14:22:47			0	37965	0	0	0	29519	28120	154355	26963	1077684	46684	110980	0	0	8108	541808	0	0
2024-08-24 14:23:47			0	37993	0	0	0	29516	28130	154379	27286	1077693	46684	110979	0	0	8110	540705	0	0
2024-08-24 14:24:47			0	38010	0	0	0	29509	28120	154379	27131	1077630	46673	110976	0	0	8111	540085	0	0
2024-08-24 14:25:47			0	38004	0	0	0	29490	28120	154295	27131	1077657	46662	110969	0	0	8111	540315	0	0
2024-08-24 14:26:47			0	38015	0	0	0	29493	28120	154343	27086	1077648	46672	110970	0	0	8112	539894	0	0
2024-08-24 14:27:47			0	37994	0	0	0	29501	28120	154271	26863	1077621	46683	110973	0	0	8110	540697	0	0
2024-08-24 14:28:47			0	38015	0	0	0	29503	28120	154255	27383	1077648	46683	110974	0	0	8112	539894	0	0
2024-08-24 14:29:47			0	38006	0	0	0	29506	28120	154303	27053	1077648	46661	110975	0	0	8111	540238	0	0
2024-08-24 14:30:47			0	38013	0	0	0	29488	28110	154291	27150	1077692	46683	110968	0	0	8112	540002	0	0
2024-08-24 14:31:47			0	38008	0	0	0	29493	28110	154215	27045	1077612	46672	110970	0	0	8111	540193	0	0
2024-08-24 14:32:47			0	38002	0	0	0	29490	28110	154251	27048	1077558	46672	110969	0	0	8111	540422	0	0
2024-08-24 14:33:47			0	38019	0	0	0	29511	28110	154332	27095	1077656	46682	110977	0	0	8112	539772	0	0
2024-08-24 14:34:47			0	38018	0	0	0	29532	28120	154311	27400	1077701	46683	110985	0	0	8111	539779	0	0
2024-08-24 14:35:47			0	37998	0	0	0	29542	28120	154407	27239	1077791	46707	110989	0	0	8110	540544	0	0
2024-08-24 14:36:47			0	38007	0	0	0	29511	28130	154319	27086	1077783	46708	110977	0	0	8111	540169	0	0
2024-08-24 14:37:47			0	38020	0	0	0	29511	28130	154347	27187	1077702	46697	110977	0	0	8112	539671	0	0
2024-08-24 14:38:47			0	38014	0	0	0	29509	28130	154167	27005	1077756	46685	110976	0	0	8111	539901	0	0
2024-08-24 14:39:47			0	38023	0	0	0	29511	28130	154179	27192	1077720	46673	110977	0	0	8112	539557	0	0
2024-08-24 14:40:47			0	38015	0	0	0	29532	28140	154251	26897	1077845	46708	110985	0	0	8111	539832	0	0
2024-08-24 14:41:47			0	38026	0	0	0	29561	28140	154216	27348	1077908	46708	110996	0	0	8111	539411	0	0
2024-08-24 14:42:47			0	38028	0	0	0	29657	28150	154164	27074	1077980	46732	111033	0	0	8110	539303	0	0
2024-08-24 14:43:47			0	38020	0	0	0	29706	28170	154127	27033	1078224	46721	111052	0	0	8109	539547	0	0
2024-08-24 14:44:47			0	38024	0	0	0	29693	28190	154131	27052	1078215	46736	111047	0	0	8109	539332	0	0
2024-08-24 14:45:47			0	38053	0	0	0	29696	28210	154048	27182	1078377	46727	111048	0	0	8111	538162	0	0
2024-08-24 14:46:47			0	38093	0	0	0	29701	28210	153908	27293	1078359	46693	111050	0	0	8113	536637	0	0
2024-08-24 14:47:47			0	38104	0	0	0	29696	28230	153788	27173	1078413	46707	111048	0	0	8114	536156	0	0
2024-08-24 14:48:47			0	38127	0	0	0	29727	28240	153744	27067	1078512	46718	111060	0	0	8115	535250	0	0
2024-08-24 14:49:47			0	38128	0	0	0	29664	28240	153768	27173	1078467	46731	111036	0	0	8116	535212	0	0
2024-08-24 14:50:47			0	38120	0	0	0	29701	28250	153656	27284	1078566	46719	111050	0	0	8115	535485	0	0
2024-08-24 14:51:47			0	38152	0	0	0	29737	28260	153672	27352	1078692	46721	111064	0	0	8116	534238	0	0
2024-08-24 14:52:47			0	38142	0	0	0	29701	28280	153600	27263	1078693	46722	111050	0	0	8116	534556	0	0
2024-08-24 14:53:47			0	38143	0	0	0	29667	28290	153560	27163	1078666	46724	111037	0	0	8117	534487	0	0
2024-08-24 14:54:47			0	38125	0	0	0	29688	28300	153580	26960	1078756	46713	111045	0	0	8116	535140	0	0
2024-08-24 14:55:47			0	38139	0	0	0	29703	28300	153636	27144	1078765	46714	111051	0	0	8116	534608	0	0
2024-08-24 14:56:47			0	38152	0	0	0	29719	28310	153620	26993	1078801	46726	111057	0	0	8117	534083	0	0
2024-08-24 14:57:47			0	38145	0	0	0	29761	28320	153656	27123	1078856	46727	111073	0	0	8116	534318	0	0
2024-08-24 14:58:47			0	38130	0	0	0	29792	28330	153624	27241	1078865	46717	111085	0	0	8114	534857	0	0
2024-08-24 14:59:47			0	38140	0	0	0	29792	28330	153640	27216	1078955	46728	111085	0	0	8115	534477	0	0
2024-08-24 15:00:47			0	38138	0	0	0	29792	28350	153716	27182	1079009	46719	111085	0	0	8115	534492	0	0
2024-08-24 15:01:47			0	38136	0	0	0	29802	28350	153552	27038	1079018	46719	111089	0	0	8115	534568	0	0
2024-08-24 15:02:47			0	38131	0	0	0	29799	28360	153584	27116	1079108	46730	111088	0	0	8114	534727	0	0
2024-08-24 15:03:47			0	38132	0	0	0	29807	28370	153572	26984	1079126	46721	111091	0	0	8114	534658	0	0
2024-08-24 15:04:47			0	38130	0	0	0	29807	28370	153660	26880	1079162	46722	111091	0	0	8114	534734	0	0
2024-08-24 15:05:47			0	38152	0	0	0	29812	28390	153612	27187	1079216	46723	111093	0	0	8115	533836	0	0
2024-08-24 15:06:47			0	38146	0	0	0	29768	28380	153508	27039	1079126	46722	111076	0	0	8116	534095	0	0
2024-08-24 15:07:47			0	38162	0	0	0	29774	28380	153456	27111	1079090	46700	111078	0	0	8117	533488	0	0
2024-08-24 15:08:47			0	38162	0	0	0	29815	28400	153484	27123	1079180	46712	111094	0	0	8116	533426	0	0
2024-08-24 15:09:47			0	38165	0	0	0	29825	28400	153448	26916	1079252	46712	111098	0	0	8116	533312	0	0
2024-08-24 15:10:47			0	38194	0	0	0	29823	28400	153364	27241	1079234	46724	111097	0	0	8118	532213	0	0
2024-08-24 15:11:47			0	38203	0	0	0	29779	28400	153296	26838	1079207	46712	111080	0	0	8119	531872	0	0
2024-08-24 15:12:47			0	38235	0	0	0	29745	28410	153232	26975	1079190	46691	111067	0	0	8121	530631	0	0
2024-08-24 15:13:47			0	38239	0	0	0	29750	28400	153156	27124	1079153	46702	111069	0	0	8122	530510	0	0
2024-08-24 15:14:47			0	38247	0	0	0	29753	28400	153100	27149	1079144	46712	111070	0	0	8122	530207	0	0
2024-08-24 15:15:47			0	38231	0	0	0	29758	28400	153124	27104	1079171	46712	111072	0	0	8121	530812	0	0
2024-08-24 15:16:47			0	38235	0	0	0	29794	28390	153088	26923	1079189	46701	111086	0	0	8121	530692	0	0
2024-08-24 15:17:47			0	38256	0	0	0	29833	28410	153060	26960	1079190	46712	111101	0	0	8121	529837	0	0
2024-08-24 15:18:47			0	38260	0	0	0	29797	28410	153084	26953	1079244	46735	111087	0	0	8122	529686	0	0
2024-08-24 15:19:47			0	38245	0	0	0	29761	28400	153092	27274	1079288	46712	111073	0	0	8122	530283	0	0
2024-08-24 15:20:47			0	38258	0	0	0	29745	28410	153068	27332	1079109	46712	111067	0	0	8123	529761	0	0
2024-08-24 15:21:47			0	38260	0	0	0	29766	28400	153036	26726	1079072	46691	111075	0	0	8123	529716	0	0
2024-08-24 15:22:47			0	38269	0	0	0	29784	28380	153076	26802	1079063	46700	111082	0	0	8123	529438	0	0
2024-08-24 15:23:47			0	38237	0	0	0	29802	28400	153008	27194	1079171	46712	111089	0	0	8121	530586	0	0
2024-08-24 15:24:47			0	38242	0	0	0	29810	28410	153116	26856	1079190	46702	111092	0	0	8121	530366	0	0
2024-08-24 15:25:47			0	38240	0	0	0	29797	28410	153044	27121	1079217	46724	111087	0	0	8121	530441	0	0
2024-08-24 15:26:47			0	38243	0	0	0	29776	28410	153148	26892	1079190	46712	111079	0	0	8121	530328	0	0
2024-08-24 15:27:47			0	38262	0	0	0	29742	28410	153112	27189	1079190	46702	111066	0	0	8123	529610	0	0
2024-08-24 15:28:47			0	38250	0	0	0	29799	28410	153044	26965	1079199	46713	111088	0	0	8121	530063	0	0
2024-08-24 15:29:47			0	38262	0	0	0	29823	28400	152916	26968	1079180	46712	111097	0	0	8122	529641	0	0
2024-08-24 15:30:47			0	38273	0	0	0	29836	28420	152940	27310	1079208	46726	111102	0	0	8122	529164	0	0
2024-08-24 15:31:47			0	38280	0	0	0	29849	28430	152892	27260	1079388	46714	111107	0	0	8122	528869	0	0
2024-08-24 15:32:47			0	38276	0	0	0	29823	28430	152928	27001	1079361	46726	111097	0	0	8123	529020	0	0
2024-08-24 15:33:47			0	38288	0	0	0	29851	28430	152996	27421	1079370	46727	111108	0	0	8123	528568	0	0
2024-08-24 15:34:47			0	38275	0	0	0	29864	28440	152908	27140	1079487	46739	111113	0	0	8122	529027	0	0
2024-08-24 15:35:47			0	38290	0	0	0	29862	28450	152808	26981	1079541	46729	111112	0	0	8123	528431	0	0
2024-08-24 15:36:47			0	38283	0	0	0	29872	28450	152832	27119	1079487	46729	111116	0	0	8122	528695	0	0
2024-08-24 15:37:47			0	38300	0	0	0	29857	28460	152844	26982	1079577	46718	111110	0	0	8124	528024	0	0
2024-08-24 15:38:47			0	38288	0	0	0	29857	28460	152828	27175	1079532	46719	111110	0	0	8123	528476	0	0
2024-08-24 15:39:47			0	38306	0	0	0	29789	28450	152848	27003	1079487	46696	111084	0	0	8125	527828	0	0
2024-08-24 15:40:47			0	38310	0	0	0	29815	28460	152820	27232	1079496	46718	111094	0	0	8125	527647	0	0
2024-08-24 15:41:47			0	38309	0	0	0	29851	28460	152760	27090	1079550	46708	111108	0	0	8124	527684	0	0
2024-08-24 15:42:47			0	38297	0	0	0	29862	28450	152780	26724	1079487	46707	111112	0	0	8123	528167	0	0
2024-08-24 15:43:47			0	38312	0	0	0	29807	28460	152860	26937	1079505	46731	111091	0	0	8125	527571	0	0
2024-08-24 15:44:47			0	38311	0	0	0	29854	28470	152812	26765	1079568	46719	111109	0	0	8124	527578	0	0
2024-08-24 15:45:47			0	38317	0	0	0	29940	28470	152720	27092	1079658	46731	111142	0	0	8123	527352	0	0
2024-08-24 15:46:47			0	38308	0	0	0	29937	28490	152720	27092	1079766	46744	111141	0	0	8123	527630	0	0
2024-08-24 15:47:47			0	38314	0	0	0	29914	28490	152712	27369	1079766	46755	111132	0	0	8124	527404	0	0
2024-08-24 15:48:47			0	38334	0	0	0	29903	28490	152712	27178	1079775	46721	111128	0	0	8125	526651	0	0
2024-08-24 15:49:47			0	38345	0	0	0	29932	28510	152660	26939	1079775	46736	111139	0	0	8125	526177	0	0
2024-08-24 15:50:47			0	38365	0	0	0	29966	28520	152652	27177	1079821	46747	111152	0	0	8126	525394	0	0
2024-08-24 15:51:47			0	38360	0	0	0	29973	28510	152508	26948	1079883	46736	111155	0	0	8125	525613	0	0
2024-08-24 15:52:47			0	38385	0	0	0	29989	28520	152524	26994	1079964	46737	111161	0	0	8126	524643	0	0
2024-08-24 15:53:47			0	38374	0	0	0	29994	28530	152444	26826	1080082	46738	111163	0	0	8126	525026	0	0
2024-08-24 15:54:47			0	38385	0	0	0	30005	28540	152556	27202	1080082	46750	111167	0	0	8126	524583	0	0
2024-08-24 15:55:47			0	38378	0	0	0	30051	28550	152552	26998	1080208	46740	111185	0	0	8125	524815	0	0
2024-08-24 15:56:47			0	38390	0	0	0	30059	28560	152684	27187	1080226	46741	111188	0	0	8126	524334	0	0
2024-08-24 15:57:47			0	38406	0	0	0	30064	28570	152560	26941	1080244	46752	111190	0	0	8127	523704	0	0
2024-08-24 15:58:47			0	38417	0	0	0	30072	28590	152452	27251	1080460	46744	111193	0	0	8127	523231	0	0
2024-08-24 15:59:47			0	38444	0	0	0	30093	28590	152248	27116	1080415	46767	111201	0	0	8128	522220	0	0
2024-08-24 16:00:47			0	38444	0	0	0	30093	28610	152296	27062	1080506	46747	111201	0	0	8128	522159	0	0
2024-08-24 16:01:47			0	38456	0	0	0	30096	28620	152284	27053	1080515	46780	111202	0	0	8129	521680	0	0
2024-08-24 16:02:47			0	38474	0	0	0	30098	28620	152216	27013	1080542	46747	111203	0	0	8130	521007	0	0
2024-08-24 16:03:47			0	38476	0	0	0	30075	28630	152128	27268	1080641	46758	111194	0	0	8131	520902	0	0
2024-08-24 16:04:47			0	38484	0	0	0	30080	28640	152100	27230	1080605	46759	111196	0	0	8131	520573	0	0
2024-08-24 16:05:47			0	38464	0	0	0	30070	28640	152104	27152	1080587	46760	111192	0	0	8130	521321	0	0
2024-08-24 16:06:47			0	38477	0	0	0	30067	28650	152104	27157	1080596	46750	111191	0	0	8131	520805	0	0
2024-08-24 16:07:47			0	38477	0	0	0	30064	28650	152140	27249	1080596	46750	111190	0	0	8131	520805	0	0
2024-08-24 16:08:47			0	38479	0	0	0	30049	28660	152212	27248	1080615	46739	111184	0	0	8131	520700	0	0
2024-08-24 16:09:47			0	38456	0	0	0	30051	28660	152188	27119	1080534	46739	111185	0	0	8130	521559	0	0
2024-08-24 16:10:47			0	38442	0	0	0	30054	28650	152220	27178	1080570	46738	111186	0	0	8129	522113	0	0
2024-08-24 16:11:47			0	38423	0	0	0	30031	28650	152212	27010	1080543	46738	111177	0	0	8128	522825	0	0
2024-08-24 16:12:47			0	38436	0	0	0	30031	28650	152364	27150	1080543	46727	111177	0	0	8129	522338	0	0
2024-08-24 16:13:47			0	38423	0	0	0	29999	28640	152220	27093	1080362	46749	111165	0	0	8129	522855	0	0
2024-08-24 16:14:47			0	38395	0	0	0	29999	28640	152308	26951	1080416	46726	111165	0	0	8127	523904	0	0
2024-08-24 16:15:47			0	38422	0	0	0	30012	28630	152452	27182	1080407	46737	111170	0	0	8129	522923	0	0
2024-08-24 16:16:47			0	38372	0	0	0	29997	28630	152516	26923	1080380	46737	111164	0	0	8126	524797	0	0
2024-08-24 16:17:47			0	38360	0	0	0	30007	28630	152540	27027	1080434	46737	111168	0	0	8125	525248	0	0
2024-08-24 16:18:47			0	38358	0	0	0	29997	28610	152528	27000	1080317	46747	111164	0	0	8125	525384	0	0
2024-08-24 16:19:47			0	38374	0	0	0	30033	28610	152556	27043	1080425	46735	111178	0	0	8125	524783	0	0
2024-08-24 16:20:47			0	38353	0	0	0	30044	28620	152464	27081	1080380	46747	111182	0	0	8124	525541	0	0
2024-08-24 16:21:47			0	38358	0	0	0	30049	28630	152420	27045	1080506	46737	111184	0	0	8124	525323	0	0
2024-08-24 16:22:47			0	38342	0	0	0	30051	28620	152576	27071	1080443	46735	111185	0	0	8123	525955	0	0
2024-08-24 16:23:47			0	38346	0	0	0	30051	28630	152472	27194	1080542	46759	111185	0	0	8124	525774	0	0
2024-08-24 16:24:47			0	38341	0	0	0	30051	28630	152424	27341	1080542	46737	111185	0	0	8123	525962	0	0
2024-08-24 16:25:47			0	38343	0	0	0	30038	28640	152424	27332	1080524	46749	111180	0	0	8124	525856	0	0
2024-08-24 16:26:47			0	38348	0	0	0	30028	28640	152460	27374	1080560	46750	111176	0	0	8124	525668	0	0
2024-08-24 16:27:47			0	38367	0	0	0	30023	28640	152424	27300	1080524	46737	111174	0	0	8125	524955	0	0
2024-08-24 16:28:47			0	38347	0	0	0	30018	28630	152392	27093	1080407	46737	111172	0	0	8124	525736	0	0
2024-08-24 16:29:47			0	38383	0	0	0	30007	28630	152368	27064	1080452	46737	111168	0	0	8127	524385	0	0
2024-08-24 16:30:47			0	38376	0	0	0	30031	28640	152364	27048	1080497	46737	111177	0	0	8126	524617	0	0
2024-08-24 16:31:47			0	38388	0	0	0	30044	28630	152308	27177	1080569	46737	111182	0	0	8126	524197	0	0
2024-08-24 16:32:47			0	38401	0	0	0	30025	28630	152328	26771	1080488	46759	111175	0	0	8127	523709	0	0
2024-08-24 16:33:47			0	38385	0	0	0	30041	28640	152440	27072	1080551	46749	111181	0	0	8126	524279	0	0
2024-08-24 16:34:47			0	38401	0	0	0	30051	28640	152384	26856	1080524	46759	111185	0	0	8127	523679	0	0
2024-08-24 16:35:47			0	38399	0	0	0	30018	28640	152328	26892	1080560	46750	111172	0	0	8127	523754	0	0
2024-08-24 16:36:47			0	38405	0	0	0	30051	28650	152288	27015	1080623	46750	111185	0	0	8127	523499	0	0
2024-08-24 16:37:47			0	38400	0	0	0	30007	28650	152336	27157	1080570	46750	111168	0	0	8128	523686	0	0
2024-08-24 16:38:47			0	38400	0	0	0	30005	28650	152252	27150	1080489	46750	111167	0	0	8128	523686	0	0
2024-08-24 16:39:47			0	38400	0	0	0	29999	28640	152256	27055	1080497	46726	111165	0	0	8128	523717	0	0
2024-08-24 16:40:47			0	38409	0	0	0	30062	28640	152332	27237	1080524	46737	111189	0	0	8127	523379	0	0
2024-08-24 16:41:47			0	38397	0	0	0	30038	28630	152292	27147	1080515	46749	111180	0	0	8127	523859	0	0
2024-08-24 16:42:47			0	38381	0	0	0	30020	28640	152236	27060	1080551	46759	111173	0	0	8126	524429	0	0
2024-08-24 16:43:47			0	38380	0	0	0	30028	28640	152348	26776	1080551	46749	111176	0	0	8126	524467	0	0
2024-08-24 16:44:47			0	38391	0	0	0	30054	28640	152264	27182	1080533	46738	111186	0	0	8126	524054	0	0
2024-08-24 16:45:47			0	38383	0	0	0	30111	28640	152276	26842	1080578	46759	111208	0	0	8125	524354	0	0
2024-08-24 16:46:47			0	38393	0	0	0	30132	28650	152348	27081	1080713	46761	111216	0	0	8125	523949	0	0
2024-08-24 16:47:47			0	38401	0	0	0	30096	28660	152332	27156	1080840	46762	111202	0	0	8126	523618	0	0
2024-08-24 16:48:47			0	38382	0	0	0	30057	28670	152336	26993	1080768	46751	111187	0	0	8126	524301	0	0
2024-08-24 16:49:47			0	38396	0	0	0	30031	28680	152252	27124	1080759	46753	111177	0	0	8127	523745	0	0
2024-08-24 16:50:47			0	38443	0	0	0	30036	28670	152172	27055	1080741	46751	111179	0	0	8130	522015	0	0
2024-08-24 16:51:47			0	38440	0	0	0	30044	28660	152124	27001	1080678	46740	111182	0	0	8129	522158	0	0
2024-08-24 16:52:47			0	38410	0	0	0	30044	28660	152192	27095	1080651	46751	111182	0	0	8128	523281	0	0
2024-08-24 16:53:47			0	38420	0	0	0	30049	28660	152164	27027	1080588	46739	111184	0	0	8128	522907	0	0
2024-08-24 16:54:47			0	38407	0	0	0	30062	28660	152144	26719	1080669	46728	111189	0	0	8127	523394	0	0
2024-08-24 16:55:47			0	38406	0	0	0	30075	28660	152328	26890	1080678	46740	111194	0	0	8127	523431	0	0
2024-08-24 16:56:47			0	38383	0	0	0	30077	28660	152332	27116	1080705	46762	111195	0	0	8125	524293	0	0
2024-08-24 16:57:47			0	38415	0	0	0	30075	28670	152124	26785	1080714	46751	111194	0	0	8127	523064	0	0
2024-08-24 16:58:47			0	38406	0	0	0	30041	28660	152264	26691	1080678	46740	111181	0	0	8127	523431	0	0
2024-08-24 16:59:47			0	38413	0	0	0	30036	28670	152000	27007	1080687	46751	111179	0	0	8128	523139	0	0
2024-08-24 17:00:47			0	38433	0	0	0	30036	28670	152072	26654	1080633	46729	111179	0	0	8129	522390	0	0
2024-08-24 17:01:47			0	38410	0	0	0	30038	28660	152168	26911	1080588	46728	111180	0	0	8128	523281	0	0
2024-08-24 17:02:47			0	38434	0	0	0	30033	28660	152072	26713	1080615	46750	111178	0	0	8129	522382	0	0
2024-08-24 17:03:47			0	38437	0	0	0	30025	28650	152152	27092	1080606	46739	111175	0	0	8129	522300	0	0
2024-08-24 17:04:47			0	38427	0	0	0	30085	28660	152108	27079	1080651	46751	111198	0	0	8128	522645	0	0
2024-08-24 17:05:47			0	38417	0	0	0	30103	28660	152048	27019	1080705	46762	111205	0	0	8127	523019	0	0
2024-08-24 17:06:47			0	38427	0	0	0	30070	28680	152132	26892	1080777	46763	111192	0	0	8128	522584	0	0
2024-08-24 17:07:47			0	38418	0	0	0	30049	28660	152084	26706	1080678	46762	111184	0	0	8128	522982	0	0
2024-08-24 17:08:47			0	38424	0	0	0	30038	28670	152028	27031	1080714	46751	111180	0	0	8129	522727	0	0
2024-08-24 17:09:47			0	38412	0	0	0	30046	28680	152016	27007	1080669	46741	111183	0	0	8128	523146	0	0
2024-08-24 17:10:47			0	38421	0	0	0	30031	28660	152104	26823	1080651	46740	111177	0	0	8128	522869	0	0
2024-08-24 17:11:47			0	38440	0	0	0	30067	28660	152024	27033	1080705	46751	111191	0	0	8129	522158	0	0
2024-08-24 17:12:47			0	38440	0	0	0	30049	28670	152072	26795	1080660	46751	111184	0	0	8129	522128	0	0
2024-08-24 17:13:47			0	38446	0	0	0	30059	28660	152096	26908	1080705	46751	111188	0	0	8129	521934	0	0
2024-08-24 17:14:47			0	38427	0	0	0	30067	28660	152084	26684	1080651	46751	111191	0	0	8128	522645	0	0
2024-08-24 17:15:47			0	38425	0	0	0	30103	28670	152144	26738	1080741	46762	111205	0	0	8127	522689	0	0
2024-08-24 17:16:47			0	38427	0	0	0	30109	28670	152284	26901	1080741	46751	111207	0	0	8127	522614	0	0
2024-08-24 17:17:47			0	38416	0	0	0	30059	28680	152240	26856	1080759	46764	111188	0	0	8128	522996	0	0
2024-08-24 17:18:47			0	38422	0	0	0	30033	28680	152260	27050	1080723	46752	111178	0	0	8129	522771	0	0
2024-08-24 17:19:47			0	38431	0	0	0	30098	28680	152152	26857	1080804	46730	111203	0	0	8128	522434	0	0
2024-08-24 17:20:47			0	38433	0	0	0	30145	28680	152092	27156	1080858	46763	111221	0	0	8127	522359	0	0
2024-08-24 17:21:47			0	38452	0	0	0	30205	28690	152240	26715	1080993	46799	111244	0	0	8127	521618	0	0
2024-08-24 17:22:47			0	38447	0	0	0	30155	28720	152236	26946	1081074	46802	111225	0	0	8128	521715	0	0
2024-08-24 17:23:47			0	38454	0	0	0	30085	28720	152176	26873	1081047	46780	111198	0	0	8130	521453	0	0
2024-08-24 17:24:47			0	38453	0	0	0	30064	28730	151964	26949	1081002	46768	111190	0	0	8130	521460	0	0
2024-08-24 17:25:47			0	38466	0	0	0	30070	28720	151976	26939	1080885	46746	111192	0	0	8131	521005	0	0
2024-08-24 17:26:47			0	38491	0	0	0	30080	28710	151916	26835	1080912	46755	111196	0	0	8132	520101	0	0
2024-08-24 17:27:47			0	38524	0	0	0	30101	28720	151764	27090	1080957	46745	111204	0	0	8133	518840	0	0
2024-08-24 17:28:47			0	38509	0	0	0	30116	28720	151696	27100	1080903	46767	111210	0	0	8132	519400	0	0
2024-08-24 17:29:47			0	38497	0	0	0	30174	28730	151808	27052	1081029	46768	111232	0	0	8131	519817	0	0
2024-08-24 17:30:47			0	38487	0	0	0	30171	28730	151808	27220	1081056	46768	111231	0	0	8130	520190	0	0
2024-08-24 17:31:47			0	38513	0	0	0	30135	28730	151728	26887	1081119	46769	111217	0	0	8132	519220	0	0
2024-08-24 17:32:47			0	38546	0	0	0	30122	28730	151624	27126	1081065	46758	111212	0	0	8134	517991	0	0
2024-08-24 17:33:47			0	38566	0	0	0	30106	28730	151552	27027	1081011	46758	111206	0	0	8136	517246	0	0
2024-08-24 17:34:47			0	38578	0	0	0	30127	28730	151416	27027	1081065	46758	111214	0	0	8136	516800	0	0
2024-08-24 17:35:47			0	38590	0	0	0	30148	28740	151532	26826	1081075	46747	111222	0	0	8136	516324	0	0
2024-08-24 17:36:47			0	38534	0	0	0	30161	28750	151632	26781	1081120	46770	111227	0	0	8133	518378	0	0
2024-08-24 17:37:47			0	38564	0	0	0	30166	28750	151676	27034	1081147	46759	111229	0	0	8135	517261	0	0
2024-08-24 17:38:47			0	38540	0	0	0	30137	28750	151616	27118	1081156	46771	111218	0	0	8134	518154	0	0
2024-08-24 17:39:47			0	38529	0	0	0	30161	28760	151604	27052	1081228	46761	111227	0	0	8133	518534	0	0
2024-08-24 17:40:47			0	38541	0	0	0	30181	28760	151660	27046	1081255	46772	111235	0	0	8133	518087	0	0
2024-08-24 17:41:47			0	38558	0	0	0	30181	28770	151708	27071	1081210	46750	111235	0	0	8134	517424	0	0
2024-08-24 17:42:47			0	38519	0	0	0	30176	28770	151696	27332	1081237	46761	111233	0	0	8132	518876	0	0
2024-08-24 17:43:47			0	38539	0	0	0	30158	28760	151576	26875	1081300	46761	111226	0	0	8133	518161	0	0
2024-08-24 17:44:47			0	38558	0	0	0	30148	28760	151552	26833	1081201	46761	111222	0	0	8135	517454	0	0
2024-08-24 17:45:47			0	38565	0	0	0	30158	28760	151560	26876	1081174	46772	111226	0	0	8135	517194	0	0
2024-08-24 17:46:47			0	38578	0	0	0	30166	28750	151460	27062	1081210	46760	111229	0	0	8136	516740	0	0
2024-08-24 17:47:47			0	38563	0	0	0	30161	28770	151464	26975	1081264	46784	111227	0	0	8135	517238	0	0
2024-08-24 17:48:47			0	38558	0	0	0	30150	28760	151508	27020	1081174	46761	111223	0	0	8135	517454	0	0
2024-08-24 17:49:47			0	38566	0	0	0	30150	28770	151428	27130	1081237	46761	111223	0	0	8135	517127	0	0
2024-08-24 17:50:47			0	38563	0	0	0	30153	28760	151416	26781	1081201	46761	111224	0	0	8135	517268	0	0
2024-08-24 17:51:47			0	38565	0	0	0	30142	28760	151492	26790	1081138	46750	111220	0	0	8135	517194	0	0
2024-08-24 17:52:47			0	38563	0	0	0	30150	28760	151552	26729	1081165	46750	111223	0	0	8135	517268	0	0
2024-08-24 17:53:47			0	38556	0	0	0	30163	28760	151444	26951	1081192	46772	111228	0	0	8134	517529	0	0
2024-08-24 17:54:47			0	38537	0	0	0	30150	28760	151544	26961	1081120	46761	111223	0	0	8133	518236	0	0
2024-08-24 17:55:47			0	38566	0	0	0	30148	28760	151576	27157	1081192	46750	111222	0	0	8135	517157	0	0
2024-08-24 17:56:47			0	38566	0	0	0	30148	28760	151480	27135	1081165	46750	111222	0	0	8135	517157	0	0
2024-08-24 17:57:47			0	38550	0	0	0	30145	28770	151512	27275	1081156	46761	111221	0	0	8134	517722	0	0
2024-08-24 17:58:47			0	38559	0	0	0	30150	28760	151476	26989	1081165	46750	111223	0	0	8135	517417	0	0
2024-08-24 17:59:47			0	38547	0	0	0	30135	28750	151576	26788	1081129	46750	111217	0	0	8134	517894	0	0
2024-08-24 18:00:47			0	38554	0	0	0	30140	28760	151480	27074	1081165	46761	111219	0	0	8135	517603	0	0
2024-08-24 18:01:47			0	38536	0	0	0	30137	28760	151596	27064	1081174	46761	111218	0	0	8134	518273	0	0
2024-08-24 18:02:47			0	38542	0	0	0	30142	28750	151560	27145	1081102	46771	111220	0	0	8134	518080	0	0
2024-08-24 18:03:47			0	38552	0	0	0	30140	28750	151692	27033	1081129	46760	111219	0	0	8134	517708	0	0
2024-08-24 18:04:47			0	38515	0	0	0	30137	28760	151768	26946	1081084	46772	111218	0	0	8132	519055	0	0
2024-08-24 18:05:47			0	38521	0	0	0	30127	28750	151756	26811	1081075	46750	111214	0	0	8133	518862	0	0
2024-08-24 18:06:47			0	38500	0	0	0	30124	28740	151744	27124	1081084	46759	111213	0	0	8132	519675	0	0
2024-08-24 18:07:47			0	38519	0	0	0	30129	28740	151732	26871	1081057	46759	111215	0	0	8133	518966	0	0
2024-08-24 18:08:47			0	38489	0	0	0	30135	28740	151936	27199	1081111	46770	111217	0	0	8131	520085	0	0
2024-08-24 18:09:47			0	38494	0	0	0	30132	28740	151828	26651	1081048	46758	111216	0	0	8131	519899	0	0
2024-08-24 18:10:47			0	38499	0	0	0	30135	28740	151876	27156	1081101	46758	111217	0	0	8131	519712	0	0
2024-08-24 18:11:47			0	38472	0	0	0	30137	28740	151872	27019	1081111	46770	111218	0	0	8130	520720	0	0
2024-08-24 18:12:47			0	38456	0	0	0	30142	28740	151772	26717	1081057	46770	111220	0	0	8129	521318	0	0
2024-08-24 18:13:47			0	38457	0	0	0	30155	28730	151992	26840	1081146	46758	111225	0	0	8129	521311	0	0
2024-08-24 18:14:47			0	38472	0	0	0	30148	28760	151856	27126	1081174	46761	111222	0	0	8130	520660	0	0
2024-08-24 18:15:47			0	38459	0	0	0	30145	28750	152016	26970	1081183	46793	111221	0	0	8129	521176	0	0
2024-08-24 18:16:47			0	38468	0	0	0	30142	28750	151912	26963	1081183	46783	111220	0	0	8130	520839	0	0
2024-08-24 18:17:47			0	38468	0	0	0	30166	28760	151920	26998	1081246	46772	111229	0	0	8129	520809	0	0
2024-08-24 18:18:47			0	38475	0	0	0	30184	28750	151792	26883	1081201	46782	111236	0	0	8129	520578	0	0
2024-08-24 18:19:47			0	38470	0	0	0	30166	28760	151796	26769	1081246	46784	111229	0	0	8129	520734	0	0
2024-08-24 18:20:47			0	38493	0	0	0	30174	28770	151828	26889	1081237	46772	111232	0	0	8131	519846	0	0
2024-08-24 18:21:47			0	38485	0	0	0	30168	28770	151764	26890	1081273	46773	111230	0	0	8130	520144	0	0
2024-08-24 18:22:47			0	38506	0	0	0	30168	28770	151684	27176	1081273	46773	111230	0	0	8131	519361	0	0
2024-08-24 18:23:47			0	38515	0	0	0	30184	28770	151680	27065	1081300	46773	111236	0	0	8132	519025	0	0
2024-08-24 18:24:47			0	38521	0	0	0	30171	28780	151620	27173	1081282	46774	111231	0	0	8132	518772	0	0
2024-08-24 18:25:47			0	38533	0	0	0	30176	28780	151644	27126	1081309	46786	111233	0	0	8133	518325	0	0
2024-08-24 18:26:47			0	38546	0	0	0	30166	28790	151500	27209	1081354	46752	111229	0	0	8134	517811	0	0
2024-08-24 18:27:47			0	38528	0	0	0	30176	28770	151636	27149	1081273	46785	111233	0	0	8133	518541	0	0
2024-08-24 18:28:47			0	38555	0	0	0	30176	28780	151588	27033	1081309	46774	111233	0	0	8134	517506	0	0
2024-08-24 18:29:47			0	38541	0	0	0	30181	28790	151560	27038	1081301	46764	111235	0	0	8133	517997	0	0
2024-08-24 18:30:47			0	38544	0	0	0	30179	28780	151600	26927	1081399	46774	111234	0	0	8133	517915	0	0
2024-08-24 18:31:47			0	38542	0	0	0	30171	28770	151524	27182	1081273	46773	111231	0	0	8133	518020	0	0
2024-08-24 18:32:47			0	38552	0	0	0	30176	28780	151584	27145	1081255	46774	111233	0	0	8134	517618	0	0
2024-08-24 18:33:47			0	38539	0	0	0	30161	28780	151528	26726	1081309	46752	111227	0	0	8134	518101	0	0
2024-08-24 18:34:47			0	38551	0	0	0	30150	28780	151532	26885	1081201	46774	111223	0	0	8134	517655	0	0
2024-08-24 18:35:47			0	38552	0	0	0	30150	28770	151576	26958	1081165	46762	111223	0	0	8134	517648	0	0
2024-08-24 18:36:47			0	38545	0	0	0	30155	28780	151540	26793	1081228	46774	111225	0	0	8134	517878	0	0
2024-08-24 18:37:47			0	38548	0	0	0	30150	28770	151580	26975	1081210	46772	111223	0	0	8134	517796	0	0
2024-08-24 18:38:47			0	38554	0	0	0	30145	28760	151640	27059	1081219	46761	111221	0	0	8135	517603	0	0
2024-08-24 18:39:47			0	38550	0	0	0	30150	28760	151660	27022	1081192	46761	111223	0	0	8134	517752	0	0
2024-08-24 18:40:47			0	38534	0	0	0	30142	28760	151740	26871	1081201	46772	111220	0	0	8133	518348	0	0
2024-08-24 18:41:47			0	38525	0	0	0	30140	28760	151856	26868	1081219	46772	111219	0	0	8133	518683	0	0
2024-08-24 18:42:47			0	38527	0	0	0	30129	28750	151720	26909	1081174	46759	111215	0	0	8133	518638	0	0
2024-08-24 18:43:47			0	38530	0	0	0	30153	28750	151724	26750	1081129	46783	111224	0	0	8133	518527	0	0
2024-08-24 18:44:47			0	38520	0	0	0	30148	28760	151640	27095	1081165	46750	111222	0	0	8133	518869	0	0
2024-08-24 18:45:47			0	38526	0	0	0	30153	28750	151684	26902	1081156	46760	111224	0	0	8133	518676	0	0
2024-08-24 18:46:47			0	38536	0	0	0	30163	28750	151664	26970	1081147	46782	111228	0	0	8133	518303	0	0
2024-08-24 18:47:47			0	38539	0	0	0	30166	28760	151712	27057	1081138	46761	111229	0	0	8133	518161	0	0
2024-08-24 18:48:47			0	38535	0	0	0	30166	28760	151656	26998	1081111	46772	111229	0	0	8133	518310	0	0
2024-08-24 18:49:47			0	38540	0	0	0	30148	28750	151672	26753	1081075	46771	111222	0	0	8134	518154	0	0
2024-08-24 18:50:47			0	38527	0	0	0	30145	28750	151772	26745	1081120	46770	111221	0	0	8133	518638	0	0
2024-08-24 18:51:47			0	38537	0	0	0	30116	28750	151796	26965	1081093	46770	111210	0	0	8134	518266	0	0
2024-08-24 18:52:47			0	38543	0	0	0	30119	28750	151784	26823	1081039	46770	111211	0	0	8134	518042	0	0
2024-08-24 18:53:47			0	38540	0	0	0	30116	28740	151664	27107	1081057	46759	111210	0	0	8134	518184	0	0
2024-08-24 18:54:47			0	38532	0	0	0	30109	28740	151764	27166	1081057	46759	111207	0	0	8134	518482	0	0
2024-08-24 18:55:47			0	38503	0	0	0	30114	28740	151776	27111	1080940	46769	111209	0	0	8132	519563	0	0
2024-08-24 18:56:47			0	38483	0	0	0	30114	28740	151820	27053	1081075	46769	111209	0	0	8131	520309	0	0
2024-08-24 18:57:47			0	38485	0	0	0	30132	28730	151852	26944	1081011	46769	111216	0	0	8131	520265	0	0
2024-08-24 18:58:47			0	38470	0	0	0	30124	28730	152012	27005	1080975	46757	111213	0	0	8130	520825	0	0
2024-08-24 18:59:47			0	38481	0	0	0	30114	28730	151996	26795	1081029	46768	111209	0	0	8131	520414	0	0
2024-08-24 19:00:47			0	38451	0	0	0	30122	28720	152100	26772	1080966	46780	111212	0	0	8129	521565	0	0
2024-08-24 19:01:47			0	38447	0	0	0	30132	28730	152016	27074	1080975	46757	111216	0	0	8129	521685	0	0
2024-08-24 19:02:47			0	38453	0	0	0	30116	28720	152112	26958	1080993	46768	111210	0	0	8129	521490	0	0
2024-08-24 19:03:47			0	38434	0	0	0	30111	28730	152088	26928	1080975	46768	111208	0	0	8128	522171	0	0
2024-08-24 19:04:47			0	38446	0	0	0	30127	28720	152000	26899	1080957	46756	111214	0	0	8129	521752	0	0
2024-08-24 19:05:47			0	38439	0	0	0	30135	28720	152044	26623	1081047	46768	111217	0	0	8128	522014	0	0
2024-08-24 19:06:47			0	38453	0	0	0	30142	28720	152100	27060	1081065	46779	111220	0	0	8129	521490	0	0
2024-08-24 19:07:47			0	38440	0	0	0	30142	28720	152020	26899	1081047	46780	111220	0	0	8128	521977	0	0
2024-08-24 19:08:47			0	38436	0	0	0	30127	28730	152052	26694	1081029	46780	111214	0	0	8128	522096	0	0
2024-08-24 19:09:47			0	38432	0	0	0	30140	28730	152108	26656	1081038	46791	111219	0	0	8128	522246	0	0
2024-08-24 19:10:47			0	38448	0	0	0	30111	28730	152116	27026	1081002	46757	111208	0	0	8129	521647	0	0
2024-08-24 19:11:47			0	38441	0	0	0	30109	28730	152092	27135	1081002	46757	111207	0	0	8129	521909	0	0
2024-08-24 19:12:47			0	38452	0	0	0	30111	28720	152068	27048	1080993	46746	111208	0	0	8129	521528	0	0
2024-08-24 19:13:47			0	38459	0	0	0	30114	28730	152136	27124	1080948	46780	111209	0	0	8130	521236	0	0
2024-08-24 19:14:47			0	38464	0	0	0	30135	28720	152044	27001	1080993	46780	111217	0	0	8129	521079	0	0
2024-08-24 19:15:47			0	38458	0	0	0	30129	28720	152024	27050	1080993	46780	111215	0	0	8129	521304	0	0
2024-08-24 19:16:47			0	38471	0	0	0	30129	28730	152032	27053	1081002	46780	111215	0	0	8130	520788	0	0
2024-08-24 19:17:47			0	38474	0	0	0	30119	28730	151844	26941	1080985	46791	111211	0	0	8130	520676	0	0
2024-08-24 19:18:47			0	38479	0	0	0	30106	28730	151908	26958	1080948	46768	111206	0	0	8131	520489	0	0
2024-08-24 19:19:47			0	38474	0	0	0	30101	28730	151872	26861	1080948	46757	111204	0	0	8131	520676	0	0
2024-08-24 19:20:47			0	38482	0	0	0	30096	28720	151852	27007	1080930	46767	111202	0	0	8131	520407	0	0
2024-08-24 19:21:47			0	38482	0	0	0	30075	28710	151856	26779	1080939	46745	111194	0	0	8131	520437	0	0
2024-08-24 19:22:47			0	38447	0	0	0	30067	28700	151912	27098	1080849	46766	111191	0	0	8129	521775	0	0
2024-08-24 19:23:47			0	38441	0	0	0	30070	28700	151996	27095	1080840	46765	111192	0	0	8129	521999	0	0
2024-08-24 19:24:47			0	38441	0	0	0	30075	28690	151916	26871	1080777	46765	111194	0	0	8129	522030	0	0
2024-08-24 19:25:47			0	38415	0	0	0	30072	28700	152040	27053	1080822	46755	111193	0	0	8128	522973	0	0
2024-08-24 19:26:47			0	38399	0	0	0	30077	28700	152136	27003	1080840	46765	111195	0	0	8127	523572	0	0
2024-08-24 19:27:47			0	38391	0	0	0	30077	28680	152160	26955	1080786	46764	111195	0	0	8126	523933	0	0
2024-08-24 19:28:47			0	38381	0	0	0	30083	28700	152180	26953	1080786	46777	111197	0	0	8125	524247	0	0
2024-08-24 19:29:47			0	38370	0	0	0	30077	28700	152204	26807	1080759	46788	111195	0	0	8125	524660	0	0
2024-08-24 19:30:47			0	38379	0	0	0	30075	28680	152236	27048	1080723	46775	111194	0	0	8125	524383	0	0
2024-08-24 19:31:47			0	38383	0	0	0	30075	28690	152276	27007	1080768	46764	111194	0	0	8126	524202	0	0
2024-08-24 19:32:47			0	38360	0	0	0	30064	28680	152236	26984	1080759	46764	111190	0	0	8124	525096	0	0
2024-08-24 19:33:47			0	38388	0	0	0	30072	28680	152312	27005	1080705	46764	111193	0	0	8126	524045	0	0
2024-08-24 19:34:47			0	38368	0	0	0	30085	28670	152280	26951	1080714	46762	111198	0	0	8125	524826	0	0
2024-08-24 19:35:47			0	38375	0	0	0	30072	28680	152216	26767	1080777	46775	111193	0	0	8125	524533	0	0
2024-08-24 19:36:47			0	38376	0	0	0	30080	28670	152220	26911	1080768	46785	111196	0	0	8125	524526	0	0
2024-08-24 19:37:47			0	38369	0	0	0	30012	28670	152172	26856	1080687	46774	111170	0	0	8126	524788	0	0
2024-08-24 19:38:47			0	38365	0	0	0	30007	28660	152244	26890	1080624	46774	111168	0	0	8126	524969	0	0
2024-08-24 19:39:47			0	38356	0	0	0	30015	28650	152332	26835	1080596	46750	111171	0	0	8125	525337	0	0
2024-08-24 19:40:47			0	38330	0	0	0	30012	28650	152392	26987	1080552	46750	111170	0	0	8124	526314	0	0
2024-08-24 19:41:47			0	38307	0	0	0	30033	28640	152512	26831	1080506	46772	111178	0	0	8122	527210	0	0
2024-08-24 19:42:47			0	38295	0	0	0	30031	28640	152556	26885	1080497	46759	111177	0	0	8121	527662	0	0
2024-08-24 19:43:47			0	38297	0	0	0	30018	28630	152548	26970	1080515	46759	111172	0	0	8121	527617	0	0
2024-08-24 19:44:47			0	38290	0	0	0	30015	28630	152568	26824	1080425	46770	111171	0	0	8121	527881	0	0
2024-08-24 19:45:47			0	38276	0	0	0	30020	28630	152604	26816	1080515	46759	111173	0	0	8120	528409	0	0
2024-08-24 19:46:47			0	38287	0	0	0	30023	28630	152756	26760	1080542	46759	111174	0	0	8121	527994	0	0
2024-08-24 19:47:47			0	38281	0	0	0	30002	28630	152704	26920	1080452	46781	111166	0	0	8121	528220	0	0
2024-08-24 19:48:47			0	38278	0	0	0	29984	28610	152608	27050	1080344	46757	111159	0	0	8121	528394	0	0
2024-08-24 19:49:47			0	38269	0	0	0	29981	28620	152652	27111	1080326	46757	111158	0	0	8120	528703	0	0
2024-08-24 19:50:47			0	38258	0	0	0	29953	28610	152640	26700	1080281	46746	111147	0	0	8120	529149	0	0
2024-08-24 19:51:47			0	38255	0	0	0	29953	28600	152716	26854	1080209	46755	111147	0	0	8120	529292	0	0
2024-08-24 19:52:47			0	38239	0	0	0	29940	28600	152868	26831	1080209	46733	111142	0	0	8119	529896	0	0
2024-08-24 19:53:47			0	38216	0	0	0	29945	28580	152904	26934	1080209	46743	111144	0	0	8118	530827	0	0
2024-08-24 19:54:47			0	38197	0	0	0	29935	28570	152940	26944	1080136	46742	111140	0	0	8117	531576	0	0
2024-08-24 19:55:47			0	38178	0	0	0	29914	28570	153044	27017	1080109	46742	111132	0	0	8116	532296	0	0
2024-08-24 19:56:47			0	38165	0	0	0	29932	28570	153124	27010	1080073	46752	111139	0	0	8115	532788	0	0
2024-08-24 19:57:47			0	38150	0	0	0	29929	28570	153232	27313	1080100	46764	111138	0	0	8114	533357	0	0
2024-08-24 19:58:47			0	38113	0	0	0	29945	28560	153228	26736	1080109	46750	111144	0	0	8112	534792	0	0
2024-08-24 19:59:47			0	38129	0	0	0	29948	28560	153352	27046	1080064	46763	111145	0	0	8113	534184	0	0
2024-08-24 20:00:47			0	38124	0	0	0	29929	28550	153256	27137	1080064	46773	111138	0	0	8113	534405	0	0
2024-08-24 20:01:47			0	38112	0	0	0	29937	28540	153300	27090	1080028	46772	111141	0	0	8112	534892	0	0
2024-08-24 20:02:47			0	38108	0	0	0	29929	28550	153296	26733	1080046	46750	111138	0	0	8112	535013	0	0
2024-08-24 20:03:47			0	38123	0	0	0	29932	28550	153436	26876	1080019	46750	111139	0	0	8113	534443	0	0
2024-08-24 20:04:47			0	38105	0	0	0	29922	28540	153400	26748	1079947	46761	111135	0	0	8112	535158	0	0
2024-08-24 20:05:47			0	38114	0	0	0	29916	28540	153368	27144	1080028	46750	111133	0	0	8112	534816	0	0
2024-08-24 20:06:47			0	38095	0	0	0	29929	28550	153408	27062	1080010	46750	111138	0	0	8111	535507	0	0
2024-08-24 20:07:47			0	38103	0	0	0	29922	28540	153436	26948	1079992	46760	111135	0	0	8112	535234	0	0
2024-08-24 20:08:47			0	38086	0	0	0	29924	28540	153472	27111	1079965	46760	111136	0	0	8111	535880	0	0
2024-08-24 20:09:47			0	38088	0	0	0	29927	28530	153440	27057	1079929	46760	111137	0	0	8111	535835	0	0
2024-08-24 20:10:47			0	38067	0	0	0	29922	28530	153496	27064	1079875	46749	111135	0	0	8109	536634	0	0
2024-08-24 20:11:47			0	38085	0	0	0	29903	28530	153552	26844	1079893	46749	111128	0	0	8111	535949	0	0
2024-08-24 20:12:47			0	38073	0	0	0	29851	28530	153600	27177	1079812	46738	111108	0	0	8111	536406	0	0
2024-08-24 20:13:47			0	38084	0	0	0	29831	28510	153600	26922	1079695	46724	111100	0	0	8112	536049	0	0
2024-08-24 20:14:47			0	38064	0	0	0	29812	28500	153696	27241	1079596	46722	111093	0	0	8111	536842	0	0
2024-08-24 20:15:47			0	38041	0	0	0	29807	28480	153732	26833	1079568	46721	111091	0	0	8110	537780	0	0
2024-08-24 20:16:47			0	38027	0	0	0	29794	28470	153843	26948	1079496	46708	111086	0	0	8109	538345	0	0
2024-08-24 20:17:47			0	38018	0	0	0	29794	28470	153871	26922	1079379	46719	111086	0	0	8108	538689	0	0
2024-08-24 20:18:47			0	37990	0	0	0	29776	28460	154027	27144	1079388	46718	111079	0	0	8107	539789	0	0
2024-08-24 20:19:47			0	37980	0	0	0	29737	28440	154083	27154	1079307	46740	111064	0	0	8107	540234	0	0
2024-08-24 20:20:47			0	37974	0	0	0	29740	28430	154063	27137	1079262	46727	111065	0	0	8107	540495	0	0
2024-08-24 20:21:47			0	37957	0	0	0	29740	28420	154163	26948	1079181	46714	111065	0	0	8106	541176	0	0
2024-08-24 20:22:47			0	37947	0	0	0	29745	28410	154099	27222	1079136	46735	111067	0	0	8105	541591	0	0
2024-08-24 20:23:47			0	37939	0	0	0	29753	28400	154227	27142	1079207	46735	111070	0	0	8104	541929	0	0
2024-08-24 20:24:47			0	37963	0	0	0	29753	28400	154207	27220	1079117	46735	111070	0	0	8106	541009	0	0
2024-08-24 20:25:47			0	37941	0	0	0	29766	28390	154163	27059	1079162	46723	111075	0	0	8104	541883	0	0
2024-08-24 20:26:47			0	37946	0	0	0	29771	28400	154299	27241	1079198	46747	111077	0	0	8104	541660	0	0
2024-08-24 20:27:47			0	37963	0	0	0	29776	28380	154319	27168	1079063	46745	111079	0	0	8105	541072	0	0
2024-08-24 20:28:47			0	37941	0	0	0	29750	28390	154223	27145	1079108	46746	111069	0	0	8104	541883	0	0
2024-08-24 20:29:47			0	37943	0	0	0	29753	28370	154171	27218	1079027	46733	111070	0	0	8104	541869	0	0
2024-08-24 20:30:47			0	37947	0	0	0	29802	28360	154175	27234	1078982	46743	111089	0	0	8104	541747	0	0
2024-08-24 20:31:47			0	37949	0	0	0	29818	28370	154199	27244	1079153	46765	111095	0	0	8104	541639	0	0
2024-08-24 20:32:47			0	37956	0	0	0	29820	28370	154215	26769	1079189	46745	111096	0	0	8104	541371	0	0
2024-08-24 20:33:47			0	37937	0	0	0	29810	28380	154231	26899	1079144	46766	111092	0	0	8103	542068	0	0
2024-08-24 20:34:47			0	37952	0	0	0	29815	28370	154303	27199	1079162	46766	111094	0	0	8104	541524	0	0
2024-08-24 20:35:47			0	37942	0	0	0	29807	28380	154327	26774	1079225	46766	111091	0	0	8103	541876	0	0
2024-08-24 20:36:47			0	37958	0	0	0	29810	28380	154239	26885	1079207	46745	111092	0	0	8104	541263	0	0
2024-08-24 20:37:47			0	37943	0	0	0	29807	28390	154231	26902	1079243	46767	111091	0	0	8104	541807	0	0
2024-08-24 20:38:47			0	37961	0	0	0	29820	28400	154235	26847	1079225	46768	111096	0	0	8104	541086	0	0
2024-08-24 20:39:47			0	37956	0	0	0	29823	28410	154263	27156	1079351	46768	111097	0	0	8104	541246	0	0
2024-08-24 20:40:47			0	37933	0	0	0	29825	28400	154335	26774	1079261	46757	111098	0	0	8103	542158	0	0
2024-08-24 20:41:47			0	37950	0	0	0	29818	28410	154307	27027	1079298	46757	111095	0	0	8104	541476	0	0
2024-08-24 20:42:47			0	37967	0	0	0	29794	28400	154207	26974	1079288	46747	111086	0	0	8105	540856	0	0
2024-08-24 20:43:47			0	37960	0	0	0	29797	28410	154215	27206	1079324	46747	111087	0	0	8105	541093	0	0
2024-08-24 20:44:47			0	37967	0	0	0	29789	28400	154207	27043	1079306	46747	111084	0	0	8105	540856	0	0
2024-08-24 20:45:47			0	37969	0	0	0	29789	28400	154183	27118	1079225	46757	111084	0	0	8105	540780	0	0
2024-08-24 20:46:47			0	37978	0	0	0	29789	28390	154223	26968	1079189	46734	111084	0	0	8106	540467	0	0
2024-08-24 20:47:47			0	37973	0	0	0	29784	28400	154211	27343	1079207	46747	111082	0	0	8106	540627	0	0
2024-08-24 20:48:47			0	37972	0	0	0	29789	28380	154163	27121	1079180	46745	111084	0	0	8105	540727	0	0
2024-08-24 20:49:47			0	37976	0	0	0	29792	28380	154127	26927	1079261	46755	111085	0	0	8106	540574	0	0
2024-08-24 20:50:47			0	37949	0	0	0	29789	28400	154139	26850	1079144	46747	111084	0	0	8104	541545	0	0
2024-08-24 20:51:47			0	37942	0	0	0	29794	28390	154187	27039	1079189	46756	111086	0	0	8104	541845	0	0
2024-08-24 20:52:47			0	37966	0	0	0	29794	28390	154207	27067	1079243	46767	111086	0	0	8105	540926	0	0
2024-08-24 20:53:47			0	37947	0	0	0	29792	28390	154219	27066	1079243	46756	111085	0	0	8104	541653	0	0
2024-08-24 20:54:47			0	37964	0	0	0	29799	28400	154207	26984	1079252	46757	111088	0	0	8105	540971	0	0
2024-08-24 20:55:47			0	37944	0	0	0	29794	28400	154179	26916	1079180	46747	111086	0	0	8104	541737	0	0
2024-08-24 20:56:47			0	37948	0	0	0	29789	28380	154195	27154	1079180	46766	111084	0	0	8104	541646	0	0
2024-08-24 20:57:47			0	37955	0	0	0	29781	28380	154147	27149	1079234	46745	111081	0	0	8105	541378	0	0
2024-08-24 20:58:47			0	37947	0	0	0	29789	28400	154179	26856	1079225	46735	111084	0	0	8104	541622	0	0
2024-08-24 20:59:47			0	37924	0	0	0	29789	28400	154399	27048	1079171	46747	111084	0	0	8103	542503	0	0
2024-08-24 21:00:47			0	37912	0	0	0	29774	28400	154331	26838	1079198	46747	111078	0	0	8102	542964	0	0
2024-08-24 21:01:47			0	37910	0	0	0	29771	28400	154275	27222	1079198	46757	111077	0	0	8102	543040	0	0
2024-08-24 21:02:47			0	37899	0	0	0	29768	28380	154367	27159	1079207	46755	111076	0	0	8102	543525	0	0
2024-08-24 21:03:47			0	37909	0	0	0	29771	28380	154327	26767	1079180	46745	111077	0	0	8102	543142	0	0
2024-08-24 21:04:47			0	37901	0	0	0	29771	28380	154387	26982	1079180	46733	111077	0	0	8102	543449	0	0
2024-08-24 21:05:47			0	37893	0	0	0	29766	28370	154455	26998	1079081	46745	111075	0	0	8101	543787	0	0
2024-08-24 21:06:47			0	37888	0	0	0	29763	28370	154359	26805	1079162	46745	111074	0	0	8101	543979	0	0
2024-08-24 21:07:47			0	37886	0	0	0	29750	28380	154439	26970	1079144	46755	111069	0	0	8101	544025	0	0
2024-08-24 21:08:47			0	37884	0	0	0	29763	28370	154359	27059	1079108	46733	111074	0	0	8101	544133	0	0
2024-08-24 21:09:47			0	37879	0	0	0	29761	28370	154503	27029	1079108	46745	111073	0	0	8101	544325	0	0
2024-08-24 21:10:47			0	37877	0	0	0	29763	28370	154443	27092	1079054	46745	111074	0	0	8100	544402	0	0
2024-08-24 21:11:47			0	37862	0	0	0	29758	28370	154407	27060	1079135	46733	111072	0	0	8100	544978	0	0
2024-08-24 21:12:47			0	37857	0	0	0	29761	28370	154451	27177	1079081	46745	111073	0	0	8099	545171	0	0
2024-08-24 21:13:47			0	37860	0	0	0	29774	28370	154515	26835	1079162	46745	111078	0	0	8099	545055	0	0
2024-08-24 21:14:47			0	37844	0	0	0	29768	28350	154639	26972	1079126	46752	111076	0	0	8098	545734	0	0
2024-08-24 21:15:47			0	37859	0	0	0	29771	28370	154539	26927	1079099	46744	111077	0	0	8099	545094	0	0
2024-08-24 21:16:47			0	37858	0	0	0	29755	28370	154555	27161	1079126	46754	111071	0	0	8099	545132	0	0
2024-08-24 21:17:47			0	37854	0	0	0	29761	28360	154523	26857	1079063	46753	111073	0	0	8099	545318	0	0
2024-08-24 21:18:47			0	37851	0	0	0	29774	28360	154619	26998	1079054	46752	111078	0	0	8099	545433	0	0
2024-08-24 21:19:47			0	37847	0	0	0	29763	28360	154579	26901	1079063	46753	111074	0	0	8099	545587	0	0
2024-08-24 21:20:47			0	37846	0	0	0	29763	28360	154567	27017	1079063	46743	111074	0	0	8099	545626	0	0
2024-08-24 21:21:47			0	37829	0	0	0	29771	28360	154639	26956	1079081	46730	111077	0	0	8097	546280	0	0
2024-08-24 21:22:47			0	37848	0	0	0	29771	28380	154635	26726	1079090	46766	111077	0	0	8099	545486	0	0
2024-08-24 21:23:47			0	37837	0	0	0	29763	28360	154639	26807	1079036	46753	111074	0	0	8098	545972	0	0
2024-08-24 21:24:47			0	37816	0	0	0	29750	28360	154743	26800	1079036	46753	111069	0	0	8097	546781	0	0
2024-08-24 21:25:47			0	37827	0	0	0	29750	28360	154735	26894	1079063	46731	111069	0	0	8098	546357	0	0
2024-08-24 21:26:47			0	37817	0	0	0	29753	28360	154835	26868	1079054	46742	111070	0	0	8097	546742	0	0
2024-08-24 21:27:47			0	37803	0	0	0	29771	28360	154751	27062	1079117	46743	111077	0	0	8096	547282	0	0
2024-08-24 21:28:47			0	37817	0	0	0	29779	28360	154715	26788	1079063	46753	111080	0	0	8097	546742	0	0
2024-08-24 21:29:47			0	37811	0	0	0	29774	28360	154771	27142	1079171	46753	111078	0	0	8096	546974	0	0
2024-08-24 21:30:47			0	37779	0	0	0	29789	28370	154875	26781	1079180	46765	111084	0	0	8094	548176	0	0
2024-08-24 21:31:47			0	37801	0	0	0	29789	28370	154783	26892	1079126	46754	111084	0	0	8096	547328	0	0
2024-08-24 21:32:47			0	37790	0	0	0	29797	28370	154779	26982	1079189	46766	111087	0	0	8095	547752	0	0
2024-08-24 21:33:47			0	37800	0	0	0	29794	28370	154751	26824	1079126	46765	111086	0	0	8095	547366	0	0
2024-08-24 21:34:47			0	37800	0	0	0	29789	28370	154827	26804	1079234	46744	111084	0	0	8096	547366	0	0
2024-08-24 21:35:47			0	37799	0	0	0	29781	28370	154787	26977	1079180	46732	111081	0	0	8096	547405	0	0
2024-08-24 21:36:47			0	37814	0	0	0	29774	28370	154711	26689	1079135	46745	111078	0	0	8097	546826	0	0
2024-08-24 21:37:47			0	37802	0	0	0	29776	28370	154815	26901	1079108	46755	111079	0	0	8096	547289	0	0
2024-08-24 21:38:47			0	37811	0	0	0	29776	28360	154775	26706	1079171	46743	111079	0	0	8096	546974	0	0
2024-08-24 21:39:47			0	37815	0	0	0	29776	28370	154739	26863	1079072	46744	111079	0	0	8097	546788	0	0
2024-08-24 21:40:47			0	37798	0	0	0	29766	28360	154763	27086	1079144	46743	111075	0	0	8096	547475	0	0
2024-08-24 21:41:47			0	37794	0	0	0	29776	28370	154783	26670	1079180	46744	111079	0	0	8095	547598	0	0
2024-08-24 21:42:47			0	37797	0	0	0	29781	28360	154819	26870	1079171	46753	111081	0	0	8095	547513	0	0
2024-08-24 21:43:47			0	37790	0	0	0	29776	28380	154803	27329	1079198	46766	111079	0	0	8095	547720	0	0
2024-08-24 21:44:47			0	37799	0	0	0	29784	28370	154807	26876	1079108	46766	111082	0	0	8096	547405	0	0
2024-08-24 21:45:47			0	37793	0	0	0	29784	28370	154719	27235	1079135	46755	111082	0	0	8095	547636	0	0
2024-08-24 21:46:47			0	37804	0	0	0	29786	28370	154679	27142	1079153	46744	111083	0	0	8096	547212	0	0
2024-08-24 21:47:47			0	37818	0	0	0	29784	28370	154739	26930	1079216	46745	111082	0	0	8097	546672	0	0
2024-08-24 21:48:47			0	37816	0	0	0	29781	28380	154731	26870	1079198	46755	111081	0	0	8097	546718	0	0
2024-08-24 21:49:47			0	37801	0	0	0	29786	28370	154747	27090	1079162	46755	111083	0	0	8096	547328	0	0
2024-08-24 21:50:47			0	37812	0	0	0	29781	28380	154731	26791	1079180	46778	111081	0	0	8096	546872	0	0
2024-08-24 21:51:47			0	37829	0	0	0	29789	28380	154683	26649	1079171	46745	111084	0	0	8097	546217	0	0
2024-08-24 21:52:47			0	37811	0	0	0	29774	28380	154679	26972	1079198	46766	111078	0	0	8096	546910	0	0
2024-08-24 21:53:47			0	37823	0	0	0	29776	28370	154687	26928	1079135	46755	111079	0	0	8097	546480	0	0
2024-08-24 21:54:47			0	37850	0	0	0	29776	28390	154635	27121	1079216	46767	111079	0	0	8099	545377	0	0
2024-08-24 21:55:47			0	37831	0	0	0	29776	28380	154627	27057	1079234	46755	111079	0	0	8098	546140	0	0
2024-08-24 21:56:47			0	37824	0	0	0	29774	28360	154803	26772	1079063	46753	111078	0	0	8097	546473	0	0
2024-08-24 21:57:47			0	37832	0	0	0	29774	28380	154563	26864	1079252	46755	111078	0	0	8098	546101	0	0
2024-08-24 21:58:47			0	37809	0	0	0	29768	28370	154671	26769	1079153	46754	111076	0	0	8096	547019	0	0
2024-08-24 21:59:47			0	37803	0	0	0	29768	28380	154679	27088	1079171	46766	111076	0	0	8096	547219	0	0
2024-08-24 22:00:47			0	37804	0	0	0	29768	28370	154731	27064	1079126	46744	111076	0	0	8096	547212	0	0
2024-08-24 22:01:47			0	37809	0	0	0	29776	28380	154815	26882	1079144	46755	111079	0	0	8096	546988	0	0
2024-08-24 22:02:47			0	37801	0	0	0	29789	28370	154675	27055	1079135	46755	111084	0	0	8096	547328	0	0
2024-08-24 22:03:47			0	37794	0	0	0	29792	28380	154763	26530	1079234	46745	111085	0	0	8095	547566	0	0
2024-08-24 22:04:47			0	37811	0	0	0	29794	28380	154827	26870	1079252	46745	111086	0	0	8096	546910	0	0
2024-08-24 22:05:47			0	37817	0	0	0	29794	28370	154879	26771	1079234	46744	111086	0	0	8096	546711	0	0
2024-08-24 22:06:47			0	37788	0	0	0	29802	28380	154819	26670	1079207	46755	111089	0	0	8095	547797	0	0
2024-08-24 22:07:47			0	37787	0	0	0	29799	28380	154683	27189	1079225	46745	111088	0	0	8095	547836	0	0
2024-08-24 22:08:47			0	37802	0	0	0	29792	28380	154827	27114	1079225	46755	111085	0	0	8096	547257	0	0
2024-08-24 22:09:47			0	37798	0	0	0	29799	28380	154747	26996	1079180	46766	111088	0	0	8095	547412	0	0
2024-08-24 22:10:47			0	37790	0	0	0	29797	28370	154675	26960	1079189	46755	111087	0	0	8095	547752	0	0
2024-08-24 22:11:47			0	37811	0	0	0	29786	28380	154755	26994	1079252	46755	111083	0	0	8096	546910	0	0
2024-08-24 22:12:47			0	37805	0	0	0	29776	28380	154859	26849	1079144	46745	111079	0	0	8096	547142	0	0
2024-08-24 22:13:47			0	37800	0	0	0	29771	28390	154715	26854	1079189	46746	111077	0	0	8096	547303	0	0
2024-08-24 22:14:47			0	37793	0	0	0	29766	28380	154831	27118	1079144	46745	111075	0	0	8096	547605	0	0
2024-08-24 22:15:47			0	37800	0	0	0	29771	28370	154755	27060	1079135	46733	111077	0	0	8096	547366	0	0
2024-08-24 22:16:47			0	37789	0	0	0	29745	28370	154787	27222	1079126	46744	111067	0	0	8096	547790	0	0
2024-08-24 22:17:47			0	37778	0	0	0	29753	28370	154899	26925	1079099	46754	111070	0	0	8095	548215	0	0
2024-08-24 22:18:47			0	37791	0	0	0	29755	28350	154883	26845	1079018	46752	111071	0	0	8096	547777	0	0
2024-08-24 22:19:47			0	37781	0	0	0	29742	28360	154875	26772	1079063	46743	111066	0	0	8095	548131	0	0
2024-08-24 22:20:47			0	37801	0	0	0	29742	28350	154855	27010	1079045	46752	111066	0	0	8096	547391	0	0
2024-08-24 22:21:47			0	37798	0	0	0	29729	28350	154863	26913	1079045	46742	111061	0	0	8096	547506	0	0
2024-08-24 22:22:47			0	37795	0	0	0	29727	28360	154827	26894	1078982	46753	111060	0	0	8096	547591	0	0
2024-08-24 22:23:47			0	37806	0	0	0	29727	28350	154779	27119	1078991	46742	111060	0	0	8097	547198	0	0
2024-08-24 22:24:47			0	37808	0	0	0	29716	28350	154787	27034	1078982	46752	111056	0	0	8097	547121	0	0
2024-08-24 22:25:47			0	37813	0	0	0	29729	28350	154731	26785	1078964	46752	111061	0	0	8097	546928	0	0
2024-08-24 22:26:47			0	37824	0	0	0	29711	28340	154727	26736	1078910	46728	111054	0	0	8098	546536	0	0
2024-08-24 22:27:47			0	37830	0	0	0	29714	28340	154799	27008	1078865	46751	111055	0	0	8098	546305	0	0
2024-08-24 22:28:47			0	37847	0	0	0	29716	28340	154591	27015	1078937	46728	111056	0	0	8099	545650	0	0
2024-08-24 22:29:47			0	37847	0	0	0	29711	28330	154659	27121	1078928	46750	111054	0	0	8099	545682	0	0
2024-08-24 22:30:47			0	37839	0	0	0	29706	28340	154675	27121	1078910	46740	111052	0	0	8099	545958	0	0
2024-08-24 22:31:47			0	37845	0	0	0	29722	28320	154627	27277	1078883	46727	111058	0	0	8099	545790	0	0
2024-08-24 22:32:47			0	37847	0	0	0	29714	28320	154559	26833	1078883	46750	111055	0	0	8099	545713	0	0
2024-08-24 22:33:47			0	37862	0	0	0	29711	28330	154647	26981	1078928	46750	111054	0	0	8100	545105	0	0
2024-08-24 22:34:47			0	37847	0	0	0	29709	28320	154679	27114	1078873	46738	111053	0	0	8099	545713	0	0
2024-08-24 22:35:47			0	37841	0	0	0	29714	28320	154651	27034	1078873	46738	111055	0	0	8099	545944	0	0
2024-08-24 22:36:47			0	37835	0	0	0	29714	28320	154747	26798	1078873	46738	111055	0	0	8099	546175	0	0
2024-08-24 22:37:47			0	37823	0	0	0	29727	28330	154803	27216	1078919	46761	111060	0	0	8098	546606	0	0
2024-08-24 22:38:47			0	37826	0	0	0	29722	28320	154787	26852	1078873	46749	111058	0	0	8098	546522	0	0
2024-08-24 22:39:47			0	37821	0	0	0	29711	28320	154815	27164	1078829	46739	111054	0	0	8098	546715	0	0
2024-08-24 22:40:47			0	37818	0	0	0	29711	28310	154923	27052	1078837	46759	111054	0	0	8098	546862	0	0
2024-08-24 22:41:47			0	37827	0	0	0	29714	28320	154891	26870	1078846	46749	111055	0	0	8098	546483	0	0
2024-08-24 22:42:47			0	37808	0	0	0	29703	28310	154867	26786	1078784	46749	111051	0	0	8097	547247	0	0
2024-08-24 22:43:47			0	37801	0	0	0	29703	28310	154815	26821	1078828	46749	111051	0	0	8097	547517	0	0
2024-08-24 22:44:47			0	37822	0	0	0	29703	28310	154919	27055	1078837	46749	111051	0	0	8098	546708	0	0
2024-08-24 22:45:47			0	37813	0	0	0	29714	28310	154839	27017	1078864	46749	111055	0	0	8097	547055	0	0
2024-08-24 22:46:47			0	37809	0	0	0	29703	28310	154923	27119	1078864	46738	111051	0	0	8097	547209	0	0
2024-08-24 22:47:47			0	37804	0	0	0	29711	28320	154883	26866	1078820	46749	111054	0	0	8097	547370	0	0
2024-08-24 22:48:47			0	37814	0	0	0	29709	28310	154811	26649	1078810	46749	111053	0	0	8097	547016	0	0
2024-08-24 22:49:47			0	37826	0	0	0	29706	28300	154871	26859	1078819	46737	111052	0	0	8098	546585	0	0
2024-08-24 22:50:47			0	37808	0	0	0	29709	28300	154815	27005	1078783	46747	111053	0	0	8097	547279	0	0
2024-08-24 22:51:47			0	37811	0	0	0	29698	28310	154879	26844	1078801	46749	111049	0	0	8097	547132	0	0
2024-08-24 22:52:47			0	37815	0	0	0	29701	28300	154831	26665	1078792	46725	111050	0	0	8098	547009	0	0
2024-08-24 22:53:47			0	37804	0	0	0	29698	28300	154835	26889	1078792	46770	111049	0	0	8097	547433	0	0
2024-08-24 22:54:47			0	37819	0	0	0	29693	28300	154803	26916	1078765	46758	111047	0	0	8098	546855	0	0
2024-08-24 22:55:47			0	37807	0	0	0	29690	28300	154875	26642	1078711	46748	111046	0	0	8097	547318	0	0
2024-08-24 22:56:47			0	37811	0	0	0	29698	28310	154975	27147	1078774	46749	111049	0	0	8097	547132	0	0
2024-08-24 22:57:47			0	37819	0	0	0	29703	28310	154851	26819	1078757	46738	111051	0	0	8098	546823	0	0
2024-08-24 22:58:47			0	37810	0	0	0	29709	28310	154907	26713	1078774	46759	111053	0	0	8097	547170	0	0
2024-08-24 22:59:47			0	37800	0	0	0	29709	28310	154883	27185	1078801	46759	111053	0	0	8097	547556	0	0
2024-08-24 23:00:47			0	37833	0	0	0	29693	28300	154875	26595	1078711	46758	111047	0	0	8099	546315	0	0
2024-08-24 23:01:47			0	37820	0	0	0	29690	28290	154779	26984	1078711	46756	111046	0	0	8098	546848	0	0
2024-08-24 23:02:47			0	37827	0	0	0	29698	28300	154815	26830	1078819	46748	111049	0	0	8098	546547	0	0
2024-08-24 23:03:47			0	37830	0	0	0	29690	28280	154843	26941	1078702	46756	111046	0	0	8099	546494	0	0
2024-08-24 23:04:47			0	37831	0	0	0	29690	28290	154831	26915	1078774	46747	111046	0	0	8099	546424	0	0
2024-08-24 23:05:47			0	37811	0	0	0	29688	28290	154879	26700	1078747	46757	111045	0	0	8098	547195	0	0
2024-08-24 23:06:47			0	37813	0	0	0	29685	28280	154851	26805	1078729	46723	111044	0	0	8098	547149	0	0
2024-08-24 23:07:47			0	37806	0	0	0	29683	28290	154807	27064	1078765	46746	111043	0	0	8097	547388	0	0
2024-08-24 23:08:47			0	37808	0	0	0	29683	28290	154847	26951	1078747	46736	111043	0	0	8097	547311	0	0
2024-08-24 23:09:47			0	37817	0	0	0	29677	28280	154795	26852	1078720	46755	111041	0	0	8098	546995	0	0
2024-08-24 23:10:47			0	37817	0	0	0	29672	28280	154831	27171	1078666	46755	111039	0	0	8098	546995	0	0
2024-08-24 23:11:47			0	37791	0	0	0	29670	28290	154867	27170	1078684	46746	111038	0	0	8097	547967	0	0
2024-08-24 23:12:47			0	37800	0	0	0	29672	28280	154923	27512	1078639	46745	111039	0	0	8097	547651	0	0
2024-08-24 23:13:47			0	37807	0	0	0	29677	28270	154867	27220	1078630	46754	111041	0	0	8097	547412	0	0
2024-08-24 23:14:47			0	37794	0	0	0	29675	28280	154839	27196	1078666	46755	111040	0	0	8097	547882	0	0
2024-08-24 23:15:47			0	37827	0	0	0	29670	28270	154823	27060	1078657	46721	111038	0	0	8099	546641	0	0
2024-08-24 23:16:47			0	37809	0	0	0	29670	28270	154827	26550	1078711	46754	111038	0	0	8098	547335	0	0
2024-08-24 23:17:47			0	37836	0	0	0	29672	28270	154839	27038	1078657	46754	111039	0	0	8099	546295	0	0
2024-08-24 23:18:47			0	37816	0	0	0	29664	28280	154719	26909	1078639	46734	111036	0	0	8098	547034	0	0
2024-08-24 23:19:47			0	37832	0	0	0	29657	28270	154843	27237	1078621	46733	111033	0	0	8099	546449	0	0
2024-08-24 23:20:47			0	37837	0	0	0	29659	28270	154779	26972	1078621	46744	111034	0	0	8099	546256	0	0
2024-08-24 23:21:47			0	37860	0	0	0	29659	28260	154739	26902	1078548	46765	111034	0	0	8101	545402	0	0
2024-08-24 23:22:47			0	37853	0	0	0	29657	28270	154807	26948	1078603	46744	111033	0	0	8100	545640	0	0
2024-08-24 23:23:47			0	37844	0	0	0	29654	28270	154787	27152	1078594	46754	111032	0	0	8100	545986	0	0
2024-08-24 23:24:47			0	37824	0	0	0	29654	28260	154803	27071	1078584	46754	111032	0	0	8099	546788	0	0
2024-08-24 23:25:47			0	37824	0	0	0	29657	28260	154855	26916	1078530	46754	111033	0	0	8099	546788	0	0
2024-08-24 23:26:47			0	37838	0	0	0	29675	28260	154783	27001	1078602	46765	111040	0	0	8099	546249	0	0
2024-08-24 23:27:47			0	37820	0	0	0	29672	28270	154795	26722	1078594	46744	111039	0	0	8098	546911	0	0
2024-08-24 23:28:47			0	37841	0	0	0	29670	28260	154799	26928	1078584	46754	111038	0	0	8099	546133	0	0
2024-08-24 23:29:47			0	37861	0	0	0	29672	28250	154787	27183	1078593	46742	111039	0	0	8100	545395	0	0
2024-08-24 23:30:47			0	37876	0	0	0	29664	28260	154667	27020	1078557	46754	111036	0	0	8102	544786	0	0
2024-08-24 23:31:47			0	37854	0	0	0	29659	28260	154615	26911	1078557	46744	111034	0	0	8100	545633	0	0
2024-08-24 23:32:47			0	37854	0	0	0	29662	28260	154755	27377	1078584	46754	111035	0	0	8100	545633	0	0
2024-08-24 23:33:47			0	37859	0	0	0	29664	28260	154667	27052	1078521	46743	111036	0	0	8101	545440	0	0
2024-08-24 23:34:47			0	37829	0	0	0	29646	28270	154739	26656	1078540	46744	111029	0	0	8099	546564	0	0
2024-08-24 23:35:47			0	37839	0	0	0	29649	28260	154691	26937	1078584	46766	111030	0	0	8100	546210	0	0
2024-08-24 23:36:47			0	37845	0	0	0	29646	28250	154747	26663	1078512	46731	111029	0	0	8100	546011	0	0
2024-08-24 23:37:47			0	37835	0	0	0	29638	28240	154727	27003	1078440	46731	111026	0	0	8100	546428	0	0
2024-08-24 23:38:47			0	37830	0	0	0	29628	28240	154719	26972	1078413	46752	111022	0	0	8099	546620	0	0
2024-08-24 23:39:47			0	37818	0	0	0	29618	28240	154743	26833	1078458	46741	111018	0	0	8099	547083	0	0
2024-08-24 23:40:47			0	37802	0	0	0	29623	28250	154887	27246	1078395	46752	111020	0	0	8098	547669	0	0
2024-08-24 23:41:47			0	37811	0	0	0	29628	28230	154935	26630	1078386	46729	111022	0	0	8098	547385	0	0
2024-08-24 23:42:47			0	37806	0	0	0	29631	28230	154959	26776	1078332	46740	111023	0	0	8098	547578	0	0
2024-08-24 23:43:47			0	37802	0	0	0	29620	28220	154943	26814	1078377	46750	111019	0	0	8098	547764	0	0
2024-08-24 23:44:47			0	37821	0	0	0	29631	28240	154963	26625	1078431	46741	111023	0	0	8099	546967	0	0
2024-08-24 23:45:47			0	37829	0	0	0	29620	28230	154979	26844	1078395	46750	111019	0	0	8099	546691	0	0
2024-08-24 23:46:47			0	37802	0	0	0	29628	28240	154947	26705	1078377	46741	111022	0	0	8098	547700	0	0
2024-08-24 23:47:47			0	37803	0	0	0	29625	28220	154979	26791	1078377	46750	111021	0	0	8098	547725	0	0
2024-08-24 23:48:47			0	37794	0	0	0	29633	28230	154975	27064	1078413	46750	111024	0	0	8097	548041	0	0
2024-08-24 23:49:47			0	37804	0	0	0	29633	28240	155079	26982	1078458	46729	111024	0	0	8098	547623	0	0
2024-08-24 23:50:47			0	37787	0	0	0	29623	28230	155115	26911	1078476	46729	111020	0	0	8097	548311	0	0
2024-08-24 23:51:47			0	37795	0	0	0	29620	28230	154975	26804	1078422	46762	111019	0	0	8097	548002	0	0
2024-08-24 23:52:47			0	37802	0	0	0	29615	28230	155075	26765	1078359	46750	111017	0	0	8098	547732	0	0
2024-08-24 23:53:47			0	37794	0	0	0	29612	28230	155023	26922	1078359	46740	111016	0	0	8098	548041	0	0
2024-08-24 23:54:47			0	37794	0	0	0	29610	28230	155055	26911	1078359	46750	111015	0	0	8098	548041	0	0
2024-08-24 23:55:47			0	37777	0	0	0	29607	28220	155007	26703	1078350	46739	111014	0	0	8097	548729	0	0
2024-08-24 23:56:47			0	37779	0	0	0	29610	28220	155035	26890	1078341	46739	111015	0	0	8097	548652	0	0
2024-08-24 23:57:47			0	37764	0	0	0	29612	28220	155087	26928	1078368	46750	111016	0	0	8096	549231	0	0
2024-08-24 23:58:47			0	37783	0	0	0	29612	28220	155063	26748	1078377	46750	111016	0	0	8097	548497	0	0
2024-08-24 23:59:47			0	37783	0	0	0	29610	28220	155131	27086	1078341	46739	111015	0	0	8097	548497	0	0
2024-08-25 00:00:47			0	37771	0	0	0	29607	28200	155063	26698	1078368	46737	111014	0	0	8096	549024	0	0
2024-08-25 00:01:47			0	37756	0	0	0	29597	28210	155099	26996	1078269	46749	111010	0	0	8096	549572	0	0
2024-08-25 00:02:47			0	37767	0	0	0	29589	28200	155159	27083	1078179	46748	111007	0	0	8096	549179	0	0
2024-08-25 00:03:47			0	37748	0	0	0	29599	28200	155243	26708	1078278	46748	111011	0	0	8095	549914	0	0
2024-08-25 00:04:47			0	37752	0	0	0	29584	28200	155247	26762	1078251	46737	111005	0	0	8095	549759	0	0
2024-08-25 00:05:47			0	37745	0	0	0	29586	28190	155191	26679	1078233	46735	111006	0	0	8095	550062	0	0
2024-08-25 00:06:47			0	37734	0	0	0	29586	28200	155255	27013	1078233	46737	111006	0	0	8094	550455	0	0
2024-08-25 00:07:47			0	37711	0	0	0	29573	28190	155287	26713	1078188	46736	111001	0	0	8093	551378	0	0
2024-08-25 00:08:47			0	37729	0	0	0	29579	28200	155283	26951	1078197	46726	111003	0	0	8094	550649	0	0
2024-08-25 00:09:47			0	37716	0	0	0	29573	28190	155367	26814	1078242	46747	111001	0	0	8094	551185	0	0
2024-08-25 00:10:47			0	37711	0	0	0	29584	28190	155363	27097	1078206	46735	111005	0	0	8093	551378	0	0
2024-08-25 00:11:47			0	37718	0	0	0	29579	28190	155371	27144	1078188	46736	111003	0	0	8094	551107	0	0
2024-08-25 00:12:47			0	37712	0	0	0	29586	28190	155299	26996	1078152	46735	111006	0	0	8093	551339	0	0
2024-08-25 00:13:47			0	37700	0	0	0	29586	28180	155235	26733	1078170	46746	111006	0	0	8092	551837	0	0
2024-08-25 00:14:47			0	37729	0	0	0	29586	28180	155359	26870	1078170	46723	111006	0	0	8094	550713	0	0
2024-08-25 00:15:47			0	37737	0	0	0	29584	28180	155327	27036	1078134	46746	111005	0	0	8094	550403	0	0
2024-08-25 00:16:47			0	37712	0	0	0	29581	28180	155315	27098	1078161	46735	111004	0	0	8093	551371	0	0
2024-08-25 00:17:47			0	37711	0	0	0	29573	28180	155275	26812	1078170	46735	111001	0	0	8093	551410	0	0
2024-08-25 00:18:47			0	37698	0	0	0	29573	28180	155335	26778	1078116	46735	111001	0	0	8092	551914	0	0
2024-08-25 00:19:47			0	37708	0	0	0	29576	28170	155375	26840	1078125	46745	111002	0	0	8093	551558	0	0
2024-08-25 00:20:47			0	37715	0	0	0	29573	28180	155267	27055	1078134	46746	111001	0	0	8093	551255	0	0
2024-08-25 00:21:47			0	37714	0	0	0	29571	28170	155323	27026	1078143	46744	111000	0	0	8093	551326	0	0
2024-08-25 00:22:47			0	37709	0	0	0	29555	28170	155347	26934	1078152	46734	110994	0	0	8093	551520	0	0
2024-08-25 00:23:47			0	37708	0	0	0	29571	28170	155411	26677	1078089	46744	111000	0	0	8093	551558	0	0
2024-08-25 00:24:47			0	37696	0	0	0	29568	28170	155375	26757	1078125	46767	110999	0	0	8092	552024	0	0
2024-08-25 00:25:47			0	37702	0	0	0	29568	28170	155327	26746	1078197	46755	110999	0	0	8093	551791	0	0
2024-08-25 00:26:47			0	37680	0	0	0	29566	28170	155431	27038	1078098	46745	110998	0	0	8091	552644	0	0
2024-08-25 00:27:47			0	37681	0	0	0	29571	28170	155443	26913	1078062	46744	111000	0	0	8091	552606	0	0
2024-08-25 00:28:47			0	37674	0	0	0	29561	28170	155411	26720	1078062	46733	110996	0	0	8091	552877	0	0
2024-08-25 00:29:47			0	37683	0	0	0	29561	28170	155411	26491	1078062	46744	110996	0	0	8092	552528	0	0
2024-08-25 00:30:47			0	37662	0	0	0	29561	28170	155435	26623	1078071	46745	110996	0	0	8090	553344	0	0
2024-08-25 00:31:47			0	37657	0	0	0	29561	28160	155495	27022	1078080	46744	110996	0	0	8090	553570	0	0
2024-08-25 00:32:47			0	37669	0	0	0	29563	28160	155463	27105	1077990	46732	110997	0	0	8091	553104	0	0
2024-08-25 00:33:47			0	37644	0	0	0	29558	28160	155555	27074	1078080	46744	110995	0	0	8089	554075	0	0
2024-08-25 00:34:47			0	37648	0	0	0	29558	28160	155523	26986	1078053	46755	110995	0	0	8090	553920	0	0
2024-08-25 00:35:47			0	37638	0	0	0	29561	28160	155607	27249	1077963	46732	110996	0	0	8089	554308	0	0
2024-08-25 00:36:47			0	37615	0	0	0	29558	28150	155635	26837	1078034	46743	110995	0	0	8088	555235	0	0
2024-08-25 00:37:47			0	37654	0	0	0	29553	28160	155635	26911	1078044	46754	110993	0	0	8090	553686	0	0
2024-08-25 00:38:47			0	37644	0	0	0	29553	28160	155583	26767	1078017	46732	110993	0	0	8090	554075	0	0
2024-08-25 00:39:47			0	37612	0	0	0	29545	28150	155583	26687	1078061	46743	110990	0	0	8088	555352	0	0
2024-08-25 00:40:47			0	37634	0	0	0	29553	28150	155555	26916	1078007	46732	110993	0	0	8089	554496	0	0
2024-08-25 00:41:47			0	37648	0	0	0	29537	28150	155583	27104	1077980	46754	110987	0	0	8090	553952	0	0
2024-08-25 00:42:47			0	37639	0	0	0	29540	28150	155539	26719	1077918	46742	110988	0	0	8089	554302	0	0
2024-08-25 00:43:47			0	37655	0	0	0	29529	28150	155551	27081	1078034	46732	110984	0	0	8091	553679	0	0
2024-08-25 00:44:47			0	37641	0	0	0	29529	28140	155559	27010	1077962	46731	110984	0	0	8090	554256	0	0
2024-08-25 00:45:47			0	37633	0	0	0	29532	28150	155611	26975	1077900	46732	110985	0	0	8089	554535	0	0
2024-08-25 00:46:47			0	37635	0	0	0	29532	28140	155491	26942	1077899	46730	110985	0	0	8089	554489	0	0
2024-08-25 00:47:47			0	37636	0	0	0	29532	28140	155575	26979	1077935	46731	110985	0	0	8089	554450	0	0
2024-08-25 00:48:47			0	37655	0	0	0	29537	28140	155563	26852	1077935	46731	110987	0	0	8090	553711	0	0
2024-08-25 00:49:47			0	37660	0	0	0	29535	28140	155551	26807	1077980	46730	110986	0	0	8091	553517	0	0
2024-08-25 00:50:47			0	37664	0	0	0	29527	28130	155507	26996	1077917	46730	110983	0	0	8091	553394	0	0
2024-08-25 00:51:47			0	37670	0	0	0	29529	28140	155523	26859	1077962	46753	110984	0	0	8091	553129	0	0
2024-08-25 00:52:47			0	37666	0	0	0	29529	28140	155583	27220	1077908	46742	110984	0	0	8091	553284	0	0
2024-08-25 00:53:47			0	37664	0	0	0	29527	28130	155603	26868	1077944	46741	110983	0	0	8091	553394	0	0
2024-08-25 00:54:47			0	37660	0	0	0	29527	28130	155479	26998	1077935	46740	110983	0	0	8091	553549	0	0
2024-08-25 00:55:47			0	37663	0	0	0	29529	28130	155555	26908	1077890	46752	110984	0	0	8091	553433	0	0
2024-08-25 00:56:47			0	37647	0	0	0	29532	28130	155687	27001	1077881	46740	110985	0	0	8090	554054	0	0
2024-08-25 00:57:47			0	37653	0	0	0	29524	28130	155683	26776	1077944	46741	110982	0	0	8090	553821	0	0
2024-08-25 00:58:47			0	37641	0	0	0	29522	28130	155639	27104	1077854	46751	110981	0	0	8090	554288	0	0
2024-08-25 00:59:47			0	37654	0	0	0	29529	28130	155727	27164	1077908	46751	110984	0	0	8090	553782	0	0
2024-08-25 01:00:47			0	37645	0	0	0	29522	28120	155659	27036	1077845	46751	110981	0	0	8090	554164	0	0
2024-08-25 01:01:47			0	37624	0	0	0	29527	28120	155755	26819	1077863	46728	110983	0	0	8089	554981	0	0
2024-08-25 01:02:47			0	37639	0	0	0	29519	28120	155731	26956	1077836	46750	110980	0	0	8090	554398	0	0
2024-08-25 01:03:47			0	37639	0	0	0	29514	28130	155823	26788	1077881	46751	110978	0	0	8090	554365	0	0
2024-08-25 01:04:47			0	37622	0	0	0	29516	28120	155667	27022	1077890	46728	110979	0	0	8089	555059	0	0
2024-08-25 01:05:47			0	37631	0	0	0	29516	28120	155803	26700	1077836	46739	110979	0	0	8089	554709	0	0
2024-08-25 01:06:47			0	37637	0	0	0	29514	28110	155771	26819	1077800	46750	110978	0	0	8090	554507	0	0
2024-08-25 01:07:47			0	37623	0	0	0	29509	28130	155675	26984	1077881	46740	110976	0	0	8089	554988	0	0
2024-08-25 01:08:47			0	37641	0	0	0	29514	28130	155683	26974	1077881	46740	110978	0	0	8090	554288	0	0
2024-08-25 01:09:47			0	37624	0	0	0	29514	28110	155711	26778	1077827	46739	110978	0	0	8089	555013	0	0
2024-08-25 01:10:47			0	37654	0	0	0	29514	28120	155595	26909	1077809	46750	110978	0	0	8091	553814	0	0
2024-08-25 01:11:47			0	37643	0	0	0	29511	28110	155691	26654	1077791	46738	110977	0	0	8090	554274	0	0
2024-08-25 01:12:47			0	37635	0	0	0	29503	28110	155719	26918	1077827	46739	110974	0	0	8090	554585	0	0
2024-08-25 01:13:47			0	37631	0	0	0	29514	28110	155695	26752	1077818	46738	110978	0	0	8089	554741	0	0
2024-08-25 01:14:47			0	37612	0	0	0	29506	28110	155735	26604	1077737	46738	110975	0	0	8088	555481	0	0
2024-08-25 01:15:47			0	37609	0	0	0	29514	28100	155727	26661	1077809	46750	110978	0	0	8088	555629	0	0
2024-08-25 01:16:47			0	37614	0	0	0	29503	28120	155699	26908	1077809	46728	110974	0	0	8088	555371	0	0
2024-08-25 01:17:47			0	37617	0	0	0	29509	28110	155679	26760	1077827	46739	110976	0	0	8088	555286	0	0
2024-08-25 01:18:47			0	37617	0	0	0	29506	28100	155743	27013	1077782	46738	110975	0	0	8088	555318	0	0
2024-08-25 01:19:47			0	37616	0	0	0	29511	28100	155691	27293	1077782	46738	110977	0	0	8088	555357	0	0
2024-08-25 01:20:47			0	37641	0	0	0	29511	28100	155703	27008	1077782	46738	110977	0	0	8090	554384	0	0
2024-08-25 01:21:47			0	37645	0	0	0	29511	28110	155739	27107	1077854	46750	110977	0	0	8090	554196	0	0
2024-08-25 01:22:47			0	37654	0	0	0	29498	28110	155595	27052	1077737	46727	110972	0	0	8091	553846	0	0
2024-08-25 01:23:47			0	37638	0	0	0	29501	28110	155679	26738	1077791	46750	110973	0	0	8090	554468	0	0
2024-08-25 01:24:47			0	37632	0	0	0	29501	28110	155695	27100	1077719	46750	110973	0	0	8089	554702	0	0
2024-08-25 01:25:47			0	37667	0	0	0	29506	28110	155591	26785	1077827	46728	110975	0	0	8091	553341	0	0
2024-08-25 01:26:47			0	37664	0	0	0	29501	28100	155591	26852	1077728	46750	110973	0	0	8091	553489	0	0
2024-08-25 01:27:47			0	37649	0	0	0	29506	28110	155555	26961	1077764	46738	110975	0	0	8090	554041	0	0
2024-08-25 01:28:47			0	37667	0	0	0	29498	28100	155679	26975	1077728	46727	110972	0	0	8092	553373	0	0
2024-08-25 01:29:47			0	37629	0	0	0	29496	28110	155639	26984	1077773	46750	110971	0	0	8089	554819	0	0
2024-08-25 01:30:47			0	37662	0	0	0	29501	28090	155555	26928	1077746	46737	110973	0	0	8091	553599	0	0
2024-08-25 01:31:47			0	37634	0	0	0	29493	28100	155603	27069	1077755	46727	110970	0	0	8090	554656	0	0
2024-08-25 01:32:47			0	37629	0	0	0	29509	28100	155687	27083	1077782	46750	110976	0	0	8089	554851	0	0
2024-08-25 01:33:47			0	37609	0	0	0	29488	28100	155711	27168	1077647	46738	110968	0	0	8088	555629	0	0
2024-08-25 01:34:47			0	37638	0	0	0	29496	28090	155723	27133	1077692	46749	110971	0	0	8090	554532	0	0
2024-08-25 01:35:47			0	37634	0	0	0	29483	28100	155619	27173	1077728	46750	110966	0	0	8090	554656	0	0
2024-08-25 01:36:47			0	37631	0	0	0	29493	28090	155767	26805	1077719	46726	110970	0	0	8089	554805	0	0
2024-08-25 01:37:47			0	37642	0	0	0	29490	28100	155667	26972	1077755	46727	110969	0	0	8090	554345	0	0
2024-08-25 01:38:47			0	37633	0	0	0	29496	28090	155587	26911	1077683	46748	110971	0	0	8090	554727	0	0
2024-08-25 01:39:47			0	37645	0	0	0	29490	28080	155583	26831	1077674	46736	110969	0	0	8090	554292	0	0
2024-08-25 01:40:47			0	37631	0	0	0	29496	28090	155575	27033	1077692	46726	110971	0	0	8089	554805	0	0
2024-08-25 01:41:47			0	37649	0	0	0	29477	28090	155559	26871	1077665	46726	110964	0	0	8091	554105	0	0
2024-08-25 01:42:47			0	37651	0	0	0	29480	28090	155527	26951	1077710	46748	110965	0	0	8091	554027	0	0
2024-08-25 01:43:47			0	37663	0	0	0	29472	28070	155491	27118	1077656	46735	110962	0	0	8092	553624	0	0
2024-08-25 01:44:47			0	37654	0	0	0	29470	28070	155527	26894	1077656	46735	110961	0	0	8091	553974	0	0
2024-08-25 01:45:47			0	37630	0	0	0	29472	28080	155555	27043	1077638	46724	110962	0	0	8090	554876	0	0
2024-08-25 01:46:47			0	37622	0	0	0	29464	28080	155659	27097	1077638	46735	110959	0	0	8089	555187	0	0
2024-08-25 01:47:47			0	37626	0	0	0	29457	28080	155647	26719	1077611	46747	110956	0	0	8090	555031	0	0
2024-08-25 01:48:47			0	37635	0	0	0	29454	28070	155575	26974	1077566	46734	110955	0	0	8090	554713	0	0
2024-08-25 01:49:47			0	37602	0	0	0	29446	28070	155591	27161	1077620	46746	110952	0	0	8088	555998	0	0
2024-08-25 01:50:47			0	37627	0	0	0	29441	28060	155659	26559	1077494	46722	110950	0	0	8090	555057	0	0
2024-08-25 01:51:47			0	37620	0	0	0	29433	28060	155631	26949	1077494	46733	110947	0	0	8090	555329	0	0
2024-08-25 01:52:47			0	37598	0	0	0	29433	28050	155747	26748	1077458	46733	110947	0	0	8088	556219	0	0
2024-08-25 01:53:47			0	37602	0	0	0	29433	28050	155699	26949	1077485	46722	110947	0	0	8089	556063	0	0
2024-08-25 01:54:47			0	37609	0	0	0	29423	28050	155739	26939	1077476	46744	110943	0	0	8089	555790	0	0
2024-08-25 01:55:47			0	37617	0	0	0	29428	28050	155735	27248	1077449	46732	110945	0	0	8090	555478	0	0
2024-08-25 01:56:47			0	37632	0	0	0	29433	28040	155831	26823	1077467	46743	110947	0	0	8090	554926	0	0
2024-08-25 01:57:47			0	37606	0	0	0	29431	28040	155759	26955	1077413	46731	110946	0	0	8089	555939	0	0
2024-08-25 01:58:47			0	37626	0	0	0	29418	28030	155699	27142	1077395	46731	110941	0	0	8090	555192	0	0
2024-08-25 01:59:47			0	37614	0	0	0	29420	28030	155819	26774	1077314	46743	110942	0	0	8089	555659	0	0
2024-08-25 02:00:47			0	37618	0	0	0	29420	28030	155707	26981	1077385	46730	110942	0	0	8090	555503	0	0
2024-08-25 02:01:47			0	37619	0	0	0	29412	28030	155727	26864	1077368	46731	110939	0	0	8090	555464	0	0
2024-08-25 02:02:47			0	37612	0	0	0	29397	28030	155703	27029	1077305	46730	110933	0	0	8090	555737	0	0
2024-08-25 02:03:47			0	37613	0	0	0	29392	28020	155695	27168	1077269	46718	110931	0	0	8090	555730	0	0
2024-08-25 02:04:47			0	37621	0	0	0	29397	28020	155719	26837	1077323	46729	110933	0	0	8090	555418	0	0
2024-08-25 02:05:47			0	37620	0	0	0	29402	28020	155591	27008	1077340	46751	110935	0	0	8090	555457	0	0
2024-08-25 02:06:47			0	37630	0	0	0	29394	28010	155647	27131	1077304	46718	110932	0	0	8091	555100	0	0
2024-08-25 02:07:47			0	37628	0	0	0	29394	28000	155647	26798	1077179	46739	110932	0	0	8091	555210	0	0
2024-08-25 02:08:47			0	37644	0	0	0	29386	28010	155643	26731	1077215	46728	110929	0	0	8092	554555	0	0
2024-08-25 02:09:47			0	37652	0	0	0	29397	28000	155619	26764	1077232	46716	110933	0	0	8092	554275	0	0
2024-08-25 02:10:47			0	37654	0	0	0	29384	28000	155611	26951	1077206	46739	110928	0	0	8092	554198	0	0
2024-08-25 02:11:47			0	37664	0	0	0	29392	28000	155707	27039	1077250	46716	110931	0	0	8093	553809	0	0
2024-08-25 02:12:47			0	37661	0	0	0	29392	28000	155563	26719	1077206	46727	110931	0	0	8092	553926	0	0
2024-08-25 02:13:47			0	37657	0	0	0	29386	28000	155595	26717	1077170	46727	110929	0	0	8092	554081	0	0
2024-08-25 02:14:47			0	37658	0	0	0	29389	28000	155547	26925	1077223	46727	110930	0	0	8092	554042	0	0
2024-08-25 02:15:47			0	37669	0	0	0	29386	27990	155587	27062	1077187	46726	110929	0	0	8093	553646	0	0
2024-08-25 02:16:47			0	37665	0	0	0	29389	27990	155535	27060	1077160	46715	110930	0	0	8093	553802	0	0
2024-08-25 02:17:47			0	37654	0	0	0	29384	27990	155623	26875	1077134	46738	110928	0	0	8092	554230	0	0
2024-08-25 02:18:47			0	37647	0	0	0	29389	28000	155475	27230	1077170	46739	110930	0	0	8092	554470	0	0
2024-08-25 02:19:47			0	37681	0	0	0	29394	28000	155547	26771	1077170	46716	110932	0	0	8094	553148	0	0
2024-08-25 02:20:47			0	37664	0	0	0	29389	27980	155531	27022	1077142	46737	110930	0	0	8093	553873	0	0
2024-08-25 02:21:47			0	37669	0	0	0	29386	27980	155463	27085	1077115	46737	110929	0	0	8093	553678	0	0
2024-08-25 02:22:47			0	37696	0	0	0	29384	27990	155447	26802	1077178	46726	110928	0	0	8095	552597	0	0
2024-08-25 02:23:47			0	37701	0	0	0	29374	27980	155471	27050	1077142	46737	110924	0	0	8095	552435	0	0
2024-08-25 02:24:47			0	37727	0	0	0	29384	27980	155459	27003	1077169	46725	110928	0	0	8096	551426	0	0
2024-08-25 02:25:47			0	37711	0	0	0	29374	27980	155311	27060	1077169	46737	110924	0	0	8096	552047	0	0
2024-08-25 02:26:47			0	37740	0	0	0	29376	27980	155247	27015	1077115	46725	110925	0	0	8097	550922	0	0
2024-08-25 02:27:47			0	37733	0	0	0	29366	27980	155347	26961	1077133	46724	110921	0	0	8097	551194	0	0
2024-08-25 02:28:47			0	37738	0	0	0	29376	27980	155375	26764	1077133	46724	110925	0	0	8097	551000	0	0
2024-08-25 02:29:47			0	37733	0	0	0	29376	27980	155251	26934	1077079	46724	110925	0	0	8097	551194	0	0
2024-08-25 02:30:47			0	37744	0	0	0	29379	27980	155307	26739	1077079	46724	110926	0	0	8097	550767	0	0
2024-08-25 02:31:47			0	37729	0	0	0	29376	27980	155235	27116	1077169	46725	110925	0	0	8097	551349	0	0
2024-08-25 02:32:47			0	37746	0	0	0	29379	27970	155207	27083	1077043	46724	110926	0	0	8097	550722	0	0
2024-08-25 02:33:47			0	37741	0	0	0	29366	27970	155267	27013	1077034	46713	110921	0	0	8097	550915	0	0
2024-08-25 02:34:47			0	37734	0	0	0	29363	27970	155291	27105	1077097	46724	110920	0	0	8097	551187	0	0
2024-08-25 02:35:47			0	37756	0	0	0	29361	27960	155279	27111	1076998	46723	110919	0	0	8098	550366	0	0
2024-08-25 02:36:47			0	37737	0	0	0	29366	27960	155187	27227	1077025	46723	110921	0	0	8097	551102	0	0
2024-08-25 02:37:47			0	37750	0	0	0	29363	27960	155143	27064	1077052	46723	110920	0	0	8098	550598	0	0
2024-08-25 02:38:47			0	37744	0	0	0	29355	27960	155259	27050	1077025	46723	110917	0	0	8098	550831	0	0
2024-08-25 02:39:47			0	37732	0	0	0	29358	27960	155279	26811	1077079	46723	110918	0	0	8097	551296	0	0
2024-08-25 02:40:47			0	37753	0	0	0	29358	27960	155127	26757	1076989	46722	110918	0	0	8098	550482	0	0
2024-08-25 02:41:47			0	37761	0	0	0	29361	27960	155231	26909	1076989	46722	110919	0	0	8099	550172	0	0
2024-08-25 02:42:47			0	37767	0	0	0	29348	27950	155127	27027	1077007	46722	110914	0	0	8099	549972	0	0
2024-08-25 02:43:47			0	37778	0	0	0	29348	27950	155083	27102	1076944	46734	110914	0	0	8100	549546	0	0
2024-08-25 02:44:47			0	37771	0	0	0	29353	27950	155111	27208	1076980	46711	110916	0	0	8099	549817	0	0
2024-08-25 02:45:47			0	37798	0	0	0	29350	27950	155163	27187	1076980	46734	110915	0	0	8101	548772	0	0
2024-08-25 02:46:47			0	37800	0	0	0	29350	27940	155103	27144	1076962	46733	110915	0	0	8101	548727	0	0
2024-08-25 02:47:47			0	37790	0	0	0	29348	27950	155051	27223	1076998	46734	110914	0	0	8100	549082	0	0
2024-08-25 02:48:47			0	37799	0	0	0	29345	27950	155023	27291	1077025	46722	110913	0	0	8101	548734	0	0
2024-08-25 02:49:47			0	37808	0	0	0	29350	27940	155083	27137	1076935	46721	110915	0	0	8101	548417	0	0
2024-08-25 02:50:47			0	37805	0	0	0	29342	27950	155027	26904	1076926	46722	110912	0	0	8101	548502	0	0
2024-08-25 02:51:47			0	37807	0	0	0	29345	27950	155003	26618	1076944	46722	110913	0	0	8101	548425	0	0
2024-08-25 02:52:47			0	37808	0	0	0	29342	27930	155031	26968	1076917	46709	110912	0	0	8102	548449	0	0
2024-08-25 02:53:47			0	37798	0	0	0	29345	27940	155031	27012	1076908	46733	110913	0	0	8101	548804	0	0
2024-08-25 02:54:47			0	37811	0	0	0	29340	27940	154967	26816	1076953	46732	110911	0	0	8102	548301	0	0
2024-08-25 02:55:47			0	37807	0	0	0	29332	27940	155079	27137	1076926	46720	110908	0	0	8102	548456	0	0
2024-08-25 02:56:47			0	37818	0	0	0	29335	27940	154991	26920	1076899	46709	110909	0	0	8102	548031	0	0
2024-08-25 02:57:47			0	37836	0	0	0	29335	27930	154967	26738	1076917	46709	110909	0	0	8103	547368	0	0
2024-08-25 02:58:47			0	37822	0	0	0	29329	27930	154919	26911	1076863	46732	110907	0	0	8103	547908	0	0
2024-08-25 02:59:47			0	37828	0	0	0	29322	27930	154983	26788	1076917	46732	110904	0	0	8103	547677	0	0
2024-08-25 03:00:47			0	37849	0	0	0	29332	27930	154871	27015	1076890	46732	110908	0	0	8104	546866	0	0
2024-08-25 03:01:47			0	37846	0	0	0	29329	27930	154903	26955	1076827	46720	110907	0	0	8104	546982	0	0
2024-08-25 03:02:47			0	37850	0	0	0	29319	27920	154879	26920	1076872	46719	110903	0	0	8104	546859	0	0
2024-08-25 03:03:47			0	37848	0	0	0	29324	27930	154855	26762	1076827	46720	110905	0	0	8104	546905	0	0
2024-08-25 03:04:47			0	37857	0	0	0	29322	27930	154771	26689	1076854	46720	110904	0	0	8105	546557	0	0
2024-08-25 03:05:47			0	37853	0	0	0	29322	27920	154907	27041	1076818	46731	110904	0	0	8104	546743	0	0
2024-08-25 03:06:47			0	37857	0	0	0	29314	27920	154775	26826	1076872	46719	110901	0	0	8105	546589	0	0
2024-08-25 03:07:47			0	37877	0	0	0	29316	27920	154787	27067	1076845	46731	110902	0	0	8106	545818	0	0
2024-08-25 03:08:47			0	37850	0	0	0	29327	27920	154807	27013	1076791	46708	110906	0	0	8104	546859	0	0
2024-08-25 03:09:47			0	37867	0	0	0	29316	27910	154799	27022	1076791	46717	110902	0	0	8105	546235	0	0
2024-08-25 03:10:47			0	37848	0	0	0	29309	27910	154851	26909	1076818	46729	110899	0	0	8104	546968	0	0
2024-08-25 03:11:47			0	37867	0	0	0	29309	27920	154835	26882	1076791	46708	110899	0	0	8105	546203	0	0
2024-08-25 03:12:47			0	37861	0	0	0	29314	27900	154875	26942	1076755	46717	110901	0	0	8105	546498	0	0
2024-08-25 03:13:47			0	37844	0	0	0	29309	27900	154879	26689	1076755	46740	110899	0	0	8104	547153	0	0
2024-08-25 03:14:47			0	37858	0	0	0	29309	27910	154807	26759	1076737	46717	110899	0	0	8105	546582	0	0
2024-08-25 03:15:47			0	37879	0	0	0	29316	27910	154883	26726	1076746	46717	110902	0	0	8106	545772	0	0
2024-08-25 03:16:47			0	37872	0	0	0	29311	27910	154767	27092	1076791	46717	110900	0	0	8106	546042	0	0
2024-08-25 03:17:47			0	37879	0	0	0	29306	27910	154759	26899	1076710	46717	110898	0	0	8106	545772	0	0
2024-08-25 03:18:47			0	37894	0	0	0	29306	27900	154759	26764	1076692	46716	110898	0	0	8107	545226	0	0
2024-08-25 03:19:47			0	37898	0	0	0	29301	27900	154739	26913	1076755	46717	110896	0	0	8107	545072	0	0
2024-08-25 03:20:47			0	37885	0	0	0	29301	27900	154631	26849	1076728	46729	110896	0	0	8107	545573	0	0
2024-08-25 03:21:47			0	37909	0	0	0	29303	27900	154679	26844	1076692	46728	110897	0	0	8108	544649	0	0
2024-08-25 03:22:47			0	37905	0	0	0	29290	27900	154599	26937	1076782	46729	110892	0	0	8108	544803	0	0
2024-08-25 03:23:47			0	37900	0	0	0	29293	27900	154659	26904	1076773	46728	110893	0	0	8108	544995	0	0
2024-08-25 03:24:47			0	37920	0	0	0	29296	27890	154591	26927	1076710	46715	110894	0	0	8109	544257	0	0
2024-08-25 03:25:47			0	37917	0	0	0	29301	27890	154559	26856	1076710	46727	110896	0	0	8108	544372	0	0
2024-08-25 03:26:47			0	37909	0	0	0	29298	27890	154647	26845	1076737	46727	110895	0	0	8108	544680	0	0
2024-08-25 03:27:47			0	37920	0	0	0	29296	27890	154635	27045	1076683	46715	110894	0	0	8109	544257	0	0
2024-08-25 03:28:47			0	37943	0	0	0	29293	27890	154559	26894	1076710	46738	110893	0	0	8110	543373	0	0
2024-08-25 03:29:47			0	37919	0	0	0	29298	27890	154607	27296	1076656	46715	110895	0	0	8108	544295	0	0
2024-08-25 03:30:47			0	37926	0	0	0	29290	27900	154547	26915	1076620	46717	110892	0	0	8109	543995	0	0
2024-08-25 03:31:47			0	37922	0	0	0	29290	27890	154591	26871	1076683	46727	110892	0	0	8109	544180	0	0
2024-08-25 03:32:47			0	37919	0	0	0	29290	27890	154587	26788	1076656	46715	110892	0	0	8109	544295	0	0
2024-08-25 03:33:47			0	37915	0	0	0	29285	27900	154491	27157	1076692	46716	110890	0	0	8109	544418	0	0
2024-08-25 03:34:47			0	37927	0	0	0	29288	27890	154479	27171	1076674	46738	110891	0	0	8109	543988	0	0
2024-08-25 03:35:47			0	37938	0	0	0	29285	27890	154579	26958	1076647	46715	110890	0	0	8110	543565	0	0
2024-08-25 03:36:47			0	37919	0	0	0	29280	27880	154499	26889	1076665	46715	110888	0	0	8109	544327	0	0
2024-08-25 03:37:47			0	37939	0	0	0	29280	27890	154443	26981	1076620	46727	110888	0	0	8110	543526	0	0
2024-08-25 03:38:47			0	37936	0	0	0	29285	27890	154475	26981	1076647	46705	110890	0	0	8110	543642	0	0
2024-08-25 03:39:47			0	37948	0	0	0	29280	27880	154375	26972	1076611	46727	110888	0	0	8110	543212	0	0
2024-08-25 03:40:47			0	37951	0	0	0	29288	27880	154383	27135	1076584	46727	110891	0	0	8110	543097	0	0
2024-08-25 03:41:47			0	37956	0	0	0	29270	27890	154375	26948	1076647	46727	110884	0	0	8111	542873	0	0
2024-08-25 03:42:47			0	37963	0	0	0	29283	27890	154319	27019	1076620	46715	110889	0	0	8111	542604	0	0
2024-08-25 03:43:47			0	37957	0	0	0	29280	27880	154407	27112	1076611	46727	110888	0	0	8111	542866	0	0
2024-08-25 03:44:47			0	37969	0	0	0	29275	27870	154315	27161	1076584	46725	110886	0	0	8112	542437	0	0
2024-08-25 03:45:47			0	37965	0	0	0	29270	27870	154363	27168	1076620	46725	110884	0	0	8112	542590	0	0
2024-08-25 03:46:47			0	37971	0	0	0	29277	27870	154431	27079	1076503	46713	110887	0	0	8112	542360	0	0
2024-08-25 03:47:47			0	37967	0	0	0	29275	27880	154363	27100	1076548	46726	110886	0	0	8112	542482	0	0
2024-08-25 03:48:47			0	37978	0	0	0	29270	27870	154383	27280	1076530	46703	110884	0	0	8112	542091	0	0
2024-08-25 03:49:47			0	37988	0	0	0	29267	27870	154403	27086	1076593	46736	110883	0	0	8113	541708	0	0
2024-08-25 03:50:47			0	37986	0	0	0	29270	27880	154455	26935	1076602	46726	110884	0	0	8113	541753	0	0
2024-08-25 03:51:47			0	37975	0	0	0	29267	27870	154435	27156	1076620	46713	110883	0	0	8112	542207	0	0
2024-08-25 03:52:47			0	37958	0	0	0	29272	27870	154415	27069	1076584	46725	110885	0	0	8111	542859	0	0
2024-08-25 03:53:47			0	37973	0	0	0	29272	27880	154403	26741	1076575	46726	110885	0	0	8112	542252	0	0
2024-08-25 03:54:47			0	37967	0	0	0	29275	27870	154451	26932	1076530	46713	110886	0	0	8112	542514	0	0
2024-08-25 03:55:47			0	37980	0	0	0	29270	27870	154443	26873	1076593	46713	110884	0	0	8112	542015	0	0
2024-08-25 03:56:47			0	37969	0	0	0	29267	27870	154507	27007	1076620	46725	110883	0	0	8112	542437	0	0
2024-08-25 03:57:47			0	37984	0	0	0	29267	27880	154463	27019	1076575	46726	110883	0	0	8113	541830	0	0
2024-08-25 03:58:47			0	37969	0	0	0	29272	27860	154479	27046	1076494	46713	110885	0	0	8112	542468	0	0
2024-08-25 03:59:47			0	37981	0	0	0	29264	27870	154415	26845	1076539	46725	110882	0	0	8113	541976	0	0
2024-08-25 04:00:47			0	37981	0	0	0	29262	27860	154259	27078	1076521	46736	110881	0	0	8113	542008	0	0
2024-08-25 04:01:47			0	37985	0	0	0	29262	27860	154475	26970	1076467	46736	110881	0	0	8113	541854	0	0
2024-08-25 04:02:47			0	37993	0	0	0	29262	27860	154379	27157	1076494	46736	110881	0	0	8113	541547	0	0
2024-08-25 04:03:47			0	38008	0	0	0	29259	27870	154407	26967	1076620	46725	110880	0	0	8114	540941	0	0
2024-08-25 04:04:47			0	38002	0	0	0	29259	27860	154347	27012	1076521	46713	110880	0	0	8114	541202	0	0
2024-08-25 04:05:47			0	38003	0	0	0	29264	27860	154359	26779	1076494	46725	110882	0	0	8114	541164	0	0
2024-08-25 04:06:47			0	37996	0	0	0	29257	27860	154411	27045	1076521	46725	110879	0	0	8113	541432	0	0
2024-08-25 04:07:47			0	38017	0	0	0	29254	27860	154279	27326	1076431	46712	110878	0	0	8115	540628	0	0
2024-08-25 04:08:47			0	38001	0	0	0	29244	27860	154347	26844	1076485	46724	110874	0	0	8114	541241	0	0
2024-08-25 04:09:47			0	38004	0	0	0	29254	27860	154319	27066	1076512	46724	110878	0	0	8114	541126	0	0
2024-08-25 04:10:47			0	38019	0	0	0	29251	27860	154323	27057	1076431	46712	110877	0	0	8115	540551	0	0
2024-08-25 04:11:47			0	37996	0	0	0	29238	27860	154467	26904	1076431	46724	110872	0	0	8114	541432	0	0
2024-08-25 04:12:47			0	37992	0	0	0	29246	27840	154347	26805	1076395	46733	110875	0	0	8113	541648	0	0
2024-08-25 04:13:47			0	38003	0	0	0	29244	27850	154299	26963	1076440	46722	110874	0	0	8114	541195	0	0
2024-08-25 04:14:47			0	38006	0	0	0	29236	27860	154371	27118	1076404	46712	110871	0	0	8114	541049	0	0
2024-08-25 04:15:47			0	38009	0	0	0	29241	27850	154335	27043	1076449	46734	110873	0	0	8114	540965	0	0
2024-08-25 04:16:47			0	38000	0	0	0	29244	27840	154295	26979	1076350	46722	110874	0	0	8114	541341	0	0
2024-08-25 04:17:47			0	38007	0	0	0	29244	27850	154303	26934	1076449	46723	110874	0	0	8114	541042	0	0
2024-08-25 04:18:47			0	38002	0	0	0	29241	27840	154391	26991	1076350	46722	110873	0	0	8114	541265	0	0
2024-08-25 04:19:47			0	37997	0	0	0	29236	27840	154351	26641	1076377	46733	110871	0	0	8114	541456	0	0
2024-08-25 04:20:47			0	37989	0	0	0	29238	27850	154303	27024	1076413	46722	110872	0	0	8113	541732	0	0
2024-08-25 04:21:47			0	37986	0	0	0	29236	27850	154331	27157	1076359	46722	110871	0	0	8113	541847	0	0
2024-08-25 04:22:47			0	37988	0	0	0	29238	27840	154331	27067	1076341	46733	110872	0	0	8113	541802	0	0
2024-08-25 04:23:47			0	37998	0	0	0	29238	27840	154267	27000	1076314	46733	110872	0	0	8114	541418	0	0
2024-08-25 04:24:47			0	38003	0	0	0	29238	27850	154419	26984	1076332	46722	110872	0	0	8114	541195	0	0
2024-08-25 04:25:47			0	37982	0	0	0	29236	27840	154303	27086	1076341	46722	110871	0	0	8113	542032	0	0
2024-08-25 04:26:47			0	38002	0	0	0	29231	27830	154363	27180	1076323	46720	110869	0	0	8114	541296	0	0
2024-08-25 04:27:47			0	38003	0	0	0	29231	27840	154335	26928	1076314	46733	110869	0	0	8114	541226	0	0
2024-08-25 04:28:47			0	38006	0	0	0	29233	27840	154319	27111	1076368	46722	110870	0	0	8114	541111	0	0
2024-08-25 04:29:47			0	38023	0	0	0	29223	27830	154356	26941	1076305	46709	110866	0	0	8115	540491	0	0
2024-08-25 04:30:47			0	38016	0	0	0	29223	27830	154315	27019	1076332	46732	110866	0	0	8115	540759	0	0
2024-08-25 04:31:47			0	38003	0	0	0	29220	27830	154319	27024	1076305	46709	110865	0	0	8114	541258	0	0
2024-08-25 04:32:47			0	38002	0	0	0	29212	27830	154403	26909	1076269	46720	110862	0	0	8114	541296	0	0
2024-08-25 04:33:47			0	38018	0	0	0	29212	27820	154360	26979	1076287	46731	110862	0	0	8115	540714	0	0
2024-08-25 04:34:47			0	38016	0	0	0	29210	27820	154211	27036	1076287	46720	110861	0	0	8115	540790	0	0
2024-08-25 04:35:47			0	38013	0	0	0	29210	27820	154283	27069	1076251	46720	110861	0	0	8115	540905	0	0
2024-08-25 04:36:47			0	38010	0	0	0	29210	27810	154403	27112	1076260	46729	110861	0	0	8115	541052	0	0
2024-08-25 04:37:47			0	37991	0	0	0	29205	27820	154335	26812	1076206	46720	110859	0	0	8114	541749	0	0
2024-08-25 04:38:47			0	38001	0	0	0	29205	27810	154367	26849	1076242	46719	110859	0	0	8114	541397	0	0
2024-08-25 04:39:47			0	37992	0	0	0	29202	27820	154399	26864	1076251	46720	110858	0	0	8114	541710	0	0
2024-08-25 04:40:47			0	38001	0	0	0	29205	27810	154443	26958	1076242	46719	110859	0	0	8114	541397	0	0
2024-08-25 04:41:47			0	37999	0	0	0	29207	27810	154371	26724	1076233	46707	110860	0	0	8114	541473	0	0
2024-08-25 04:42:47			0	37990	0	0	0	29205	27810	154475	26712	1076215	46730	110859	0	0	8114	541818	0	0
2024-08-25 04:43:47			0	38016	0	0	0	29212	27820	154343	26927	1076251	46731	110862	0	0	8115	540790	0	0
2024-08-25 04:44:47			0	37991	0	0	0	29210	27810	154427	26646	1076233	46718	110861	0	0	8114	541780	0	0
2024-08-25 04:45:47			0	37993	0	0	0	29215	27810	154455	26739	1076233	46718	110863	0	0	8114	541703	0	0
2024-08-25 04:46:47			0	37973	0	0	0	29210	27800	154411	26902	1076224	46707	110861	0	0	8113	542502	0	0
2024-08-25 04:47:47			0	37978	0	0	0	29210	27800	154447	26811	1076197	46718	110861	0	0	8113	542310	0	0
2024-08-25 04:48:47			0	37969	0	0	0	29210	27810	154459	26760	1076161	46708	110861	0	0	8112	542624	0	0
2024-08-25 04:49:47			0	37984	0	0	0	29197	27800	154407	26845	1076197	46729	110856	0	0	8114	542080	0	0
2024-08-25 04:50:47			0	37970	0	0	0	29199	27800	154535	26975	1076197	46729	110857	0	0	8113	542617	0	0
2024-08-25 04:51:47			0	37968	0	0	0	29189	27800	154451	27107	1076197	46718	110853	0	0	8113	542694	0	0
2024-08-25 04:52:47			0	37975	0	0	0	29202	27810	154427	27001	1076179	46729	110858	0	0	8113	542394	0	0
2024-08-25 04:53:47			0	37963	0	0	0	29194	27810	154499	27086	1076152	46729	110855	0	0	8112	542855	0	0
2024-08-25 04:54:47			0	37954	0	0	0	29186	27800	154419	26953	1076170	46718	110852	0	0	8112	543232	0	0
2024-08-25 04:55:47			0	37975	0	0	0	29197	27790	154431	27204	1076098	46717	110856	0	0	8113	542457	0	0
2024-08-25 04:56:47			0	37936	0	0	0	29194	27800	154463	26748	1076143	46718	110855	0	0	8111	543924	0	0
2024-08-25 04:57:47			0	37965	0	0	0	29194	27790	154455	27017	1076152	46717	110855	0	0	8112	542841	0	0
2024-08-25 04:58:47			0	37944	0	0	0	29192	27800	154479	26797	1076089	46718	110854	0	0	8111	543616	0	0
2024-08-25 04:59:47			0	37951	0	0	0	29184	27780	154495	27282	1076143	46727	110851	0	0	8112	543410	0	0
2024-08-25 05:00:47			0	37951	0	0	0	29181	27790	154559	27045	1076125	46728	110850	0	0	8112	543378	0	0
2024-08-25 05:01:47			0	37943	0	0	0	29181	27790	154499	26812	1076044	46717	110850	0	0	8111	543686	0	0
2024-08-25 05:02:47			0	37929	0	0	0	29176	27790	154591	27027	1076098	46739	110848	0	0	8111	544224	0	0
2024-08-25 05:03:47			0	37951	0	0	0	29184	27780	154583	27326	1076079	46726	110851	0	0	8112	543410	0	0
2024-08-25 05:04:47			0	37920	0	0	0	29176	27780	154571	26948	1076062	46716	110848	0	0	8110	544602	0	0
2024-08-25 05:05:47			0	37931	0	0	0	29176	27790	154599	27157	1076044	46717	110848	0	0	8111	544147	0	0
2024-08-25 05:06:47			0	37933	0	0	0	29171	27780	154599	27133	1076062	46716	110846	0	0	8111	544102	0	0
2024-08-25 05:07:47			0	37906	0	0	0	29171	27780	154683	27331	1076079	46704	110846	0	0	8109	545141	0	0
2024-08-25 05:08:47			0	37911	0	0	0	29173	27770	154643	27121	1075990	46714	110847	0	0	8110	544980	0	0
2024-08-25 05:09:47			0	37910	0	0	0	29163	27770	154671	26941	1076061	46714	110843	0	0	8110	545018	0	0
2024-08-25 05:10:47			0	37910	0	0	0	29161	27780	154727	27351	1075999	46714	110842	0	0	8110	544987	0	0
2024-08-25 05:11:47			0	37896	0	0	0	29171	27770	154755	27118	1076070	46737	110846	0	0	8109	545558	0	0
2024-08-25 05:12:47			0	37883	0	0	0	29163	27770	154767	26935	1076061	46726	110843	0	0	8108	546059	0	0
2024-08-25 05:13:47			0	37876	0	0	0	29171	27760	154743	27218	1076025	46714	110846	0	0	8108	546360	0	0
2024-08-25 05:14:47			0	37893	0	0	0	29163	27770	154671	27029	1076007	46737	110843	0	0	8109	545673	0	0
2024-08-25 05:15:47			0	37879	0	0	0	29166	27770	154819	27168	1075963	46714	110844	0	0	8108	546213	0	0
2024-08-25 05:16:47			0	37885	0	0	0	29163	27770	154811	26802	1076034	46704	110843	0	0	8108	545982	0	0
2024-08-25 05:17:47			0	37863	0	0	0	29161	27760	154831	26765	1075971	46725	110842	0	0	8107	546862	0	0
2024-08-25 05:18:47			0	37878	0	0	0	29161	27760	154771	26986	1076025	46714	110842	0	0	8108	546283	0	0
2024-08-25 05:19:47			0	37875	0	0	0	29163	27760	154867	27064	1076016	46724	110843	0	0	8108	546399	0	0
2024-08-25 05:20:47			0	37885	0	0	0	29161	27760	154915	27000	1075989	46713	110842	0	0	8108	546013	0	0
2024-08-25 05:21:47			0	37863	0	0	0	29161	27760	154867	27249	1076025	46714	110842	0	0	8107	546862	0	0
2024-08-25 05:22:47			0	37863	0	0	0	29161	27750	154839	26764	1075980	46724	110842	0	0	8107	546893	0	0
2024-08-25 05:23:47			0	37855	0	0	0	29158	27760	154887	27133	1075989	46713	110841	0	0	8107	547170	0	0
2024-08-25 05:24:47			0	37865	0	0	0	29158	27760	154895	26981	1076043	46713	110841	0	0	8107	546784	0	0
2024-08-25 05:25:47			0	37857	0	0	0	29150	27760	154883	26831	1075998	46725	110838	0	0	8107	547093	0	0
2024-08-25 05:26:47			0	37848	0	0	0	29158	27760	154899	27015	1075918	46714	110841	0	0	8106	547441	0	0
2024-08-25 05:27:47			0	37843	0	0	0	29150	27750	154943	27079	1075953	46724	110838	0	0	8106	547665	0	0
2024-08-25 05:28:47			0	37841	0	0	0	29158	27750	154943	27192	1075980	46724	110841	0	0	8106	547742	0	0
2024-08-25 05:29:47			0	37839	0	0	0	29153	27750	154999	27215	1075917	46713	110839	0	0	8106	547820	0	0
2024-08-25 05:30:47			0	37824	0	0	0	29155	27760	155167	26861	1075962	46713	110840	0	0	8105	548368	0	0
2024-08-25 05:31:47			0	37821	0	0	0	29155	27750	155119	26979	1075926	46724	110840	0	0	8105	548515	0	0
2024-08-25 05:32:47			0	37804	0	0	0	29150	27750	155143	27088	1075980	46713	110838	0	0	8104	549173	0	0
2024-08-25 05:33:47			0	37799	0	0	0	29142	27750	155143	27235	1075944	46713	110835	0	0	8104	549367	0	0
2024-08-25 05:34:47			0	37802	0	0	0	29142	27740	155247	27027	1075881	46723	110835	0	0	8104	549282	0	0
2024-08-25 05:35:47			0	37800	0	0	0	29140	27740	155215	27010	1075926	46711	110834	0	0	8104	549359	0	0
2024-08-25 05:36:47			0	37775	0	0	0	29140	27750	155243	26918	1075890	46713	110834	0	0	8102	550296	0	0
2024-08-25 05:37:47			0	37788	0	0	0	29140	27750	155163	27019	1075864	46702	110834	0	0	8103	549792	0	0
2024-08-25 05:38:47			0	37792	0	0	0	29132	27740	155247	27189	1075926	46722	110831	0	0	8103	549669	0	0
2024-08-25 05:39:47			0	37801	0	0	0	29142	27740	155303	27319	1075872	46700	110835	0	0	8104	549321	0	0
2024-08-25 05:40:47			0	37783	0	0	0	29137	27740	155291	27182	1075899	46711	110833	0	0	8103	550018	0	0
2024-08-25 05:41:47			0	37777	0	0	0	29137	27740	155319	27327	1075828	46723	110833	0	0	8102	550250	0	0
2024-08-25 05:42:47			0	37783	0	0	0	29142	27730	155255	27088	1075863	46711	110835	0	0	8103	550049	0	0
2024-08-25 05:43:47			0	37775	0	0	0	29135	27740	155251	27069	1075818	46722	110832	0	0	8102	550328	0	0
2024-08-25 05:44:47			0	37750	0	0	0	29132	27740	155399	27216	1075765	46700	110831	0	0	8101	551297	0	0
2024-08-25 05:45:47			0	37772	0	0	0	29135	27750	155347	26970	1075890	46691	110832	0	0	8102	550412	0	0
2024-08-25 05:46:47			0	37753	0	0	0	29132	27730	155375	26994	1075890	46700	110831	0	0	8101	551212	0	0
2024-08-25 05:47:47			0	37763	0	0	0	29127	27730	155331	27000	1075863	46711	110829	0	0	8102	550824	0	0
2024-08-25 05:48:47			0	37756	0	0	0	29124	27740	155431	27270	1075818	46722	110828	0	0	8101	551064	0	0
2024-08-25 05:49:47			0	37749	0	0	0	29127	27730	155387	27043	1075773	46711	110829	0	0	8101	551367	0	0
2024-08-25 05:50:47			0	37753	0	0	0	29119	27740	155471	27164	1075792	46700	110826	0	0	8101	551181	0	0
2024-08-25 05:51:47			0	37731	0	0	0	29119	27730	155451	27225	1075747	46711	110826	0	0	8100	552066	0	0
2024-08-25 05:52:47			0	37732	0	0	0	29119	27730	155503	27222	1075747	46722	110826	0	0	8100	552027	0	0
2024-08-25 05:53:47			0	37733	0	0	0	29111	27720	155531	27265	1075764	46709	110823	0	0	8100	552020	0	0
2024-08-25 05:54:47			0	37731	0	0	0	29114	27720	155483	27164	1075738	46709	110824	0	0	8100	552098	0	0
2024-08-25 05:55:47			0	37727	0	0	0	29111	27720	155515	27244	1075711	46721	110823	0	0	8100	552253	0	0
2024-08-25 05:56:47			0	37734	0	0	0	29111	27720	155571	27114	1075755	46720	110823	0	0	8100	551981	0	0
2024-08-25 05:57:47			0	37719	0	0	0	29101	27710	155683	27057	1075773	46708	110819	0	0	8099	552596	0	0
2024-08-25 05:58:47			0	37700	0	0	0	29103	27700	155543	27381	1075728	46697	110820	0	0	8098	553366	0	0
2024-08-25 05:59:47			0	37711	0	0	0	29088	27710	155503	27239	1075719	46698	110814	0	0	8099	552907	0	0
2024-08-25 06:00:47			0	37717	0	0	0	29096	27700	155583	27133	1075674	46708	110817	0	0	8099	552705	0	0
2024-08-25 06:01:47			0	37738	0	0	0	29098	27710	155559	27010	1075666	46720	110818	0	0	8101	551858	0	0
2024-08-25 06:02:47			0	37726	0	0	0	29096	27710	155543	27196	1075666	46708	110817	0	0	8100	552324	0	0
2024-08-25 06:03:47			0	37726	0	0	0	29096	27710	155439	27253	1075693	46698	110817	0	0	8100	552324	0	0
2024-08-25 06:04:47			0	37727	0	0	0	29088	27700	155511	27015	1075621	46708	110814	0	0	8100	552317	0	0
2024-08-25 06:05:47			0	37745	0	0	0	29088	27700	155523	27239	1075621	46708	110814	0	0	8101	551618	0	0
2024-08-25 06:06:47			0	37729	0	0	0	29088	27700	155547	27124	1075594	46719	110814	0	0	8100	552239	0	0
2024-08-25 06:07:47			0	37732	0	0	0	29085	27700	155519	26804	1075611	46696	110813	0	0	8100	552123	0	0
2024-08-25 06:08:47			0	37713	0	0	0	29083	27700	155551	27007	1075558	46707	110812	0	0	8099	552861	0	0
2024-08-25 06:09:47			0	37710	0	0	0	29083	27690	155491	27216	1075629	46707	110812	0	0	8099	553009	0	0
2024-08-25 06:10:47			0	37719	0	0	0	29077	27700	155539	26750	1075611	46707	110810	0	0	8100	552627	0	0
2024-08-25 06:11:47			0	37734	0	0	0	29072	27680	155551	27185	1075531	46695	110808	0	0	8101	552108	0	0
2024-08-25 06:12:47			0	37717	0	0	0	29080	27670	155559	27046	1075539	46704	110811	0	0	8099	552801	0	0
2024-08-25 06:13:47			0	37720	0	0	0	29077	27680	155623	27149	1075557	46717	110810	0	0	8100	552652	0	0
2024-08-25 06:14:47			0	37711	0	0	0	29064	27680	155535	27163	1075450	46707	110805	0	0	8099	553002	0	0
2024-08-25 06:15:47			0	37722	0	0	0	29064	27670	155623	27235	1075486	46704	110805	0	0	8100	552606	0	0
2024-08-25 06:16:47			0	37726	0	0	0	29062	27670	155675	27085	1075486	46715	110804	0	0	8100	552451	0	0
2024-08-25 06:17:47			0	37719	0	0	0	29064	27670	155635	27012	1075512	46704	110805	0	0	8100	552723	0	0
2024-08-25 06:18:47			0	37704	0	0	0	29059	27670	155547	26975	1075539	46715	110803	0	0	8099	553306	0	0
2024-08-25 06:19:47			0	37707	0	0	0	29059	27670	155595	27260	1075530	46704	110803	0	0	8099	553189	0	0
2024-08-25 06:20:47			0	37721	0	0	0	29049	27670	155655	27109	1075486	46704	110799	0	0	8100	552645	0	0
2024-08-25 06:21:47			0	37709	0	0	0	29046	27660	155687	27098	1075441	46704	110798	0	0	8100	553144	0	0
2024-08-25 06:22:47			0	37699	0	0	0	29046	27670	155607	27230	1075450	46715	110798	0	0	8099	553501	0	0
2024-08-25 06:23:47			0	37693	0	0	0	29044	27660	155747	26935	1075467	46704	110797	0	0	8099	553766	0	0
2024-08-25 06:24:47			0	37695	0	0	0	29036	27650	155703	26771	1075422	46702	110794	0	0	8099	553720	0	0
2024-08-25 06:25:47			0	37680	0	0	0	29046	27660	155703	27013	1075431	46703	110798	0	0	8098	554272	0	0
2024-08-25 06:26:47			0	37690	0	0	0	29049	27660	155659	27026	1075431	46714	110799	0	0	8098	553883	0	0
2024-08-25 06:27:47			0	37678	0	0	0	29036	27660	155679	27281	1075405	46725	110794	0	0	8098	554350	0	0
2024-08-25 06:28:47			0	37672	0	0	0	29036	27660	155743	27189	1075378	46703	110794	0	0	8098	554583	0	0
2024-08-25 06:29:47			0	37671	0	0	0	29036	27650	155711	27083	1075368	46713	110794	0	0	8097	554654	0	0
2024-08-25 06:30:47			0	37678	0	0	0	29038	27650	155687	27242	1075440	46702	110795	0	0	8098	554382	0	0
2024-08-25 06:31:47			0	37656	0	0	0	29033	27650	155835	26975	1075359	46713	110793	0	0	8097	555239	0	0
2024-08-25 06:32:47			0	37667	0	0	0	29033	27660	155843	27218	1075405	46703	110793	0	0	8097	554778	0	0
2024-08-25 06:33:47			0	37669	0	0	0	29031	27630	155787	27027	1075359	46700	110792	0	0	8097	554796	0	0
2024-08-25 06:34:47			0	37646	0	0	0	29028	27650	155847	27057	1075386	46702	110791	0	0	8096	555628	0	0
2024-08-25 06:35:47			0	37652	0	0	0	29028	27640	155799	27199	1075323	46712	110791	0	0	8096	555426	0	0
2024-08-25 06:36:47			0	37666	0	0	0	29023	27640	155875	27138	1075323	46701	110789	0	0	8097	554881	0	0
2024-08-25 06:37:47			0	37656	0	0	0	29020	27630	155835	26755	1075305	46689	110788	0	0	8097	555303	0	0
2024-08-25 06:38:47			0	37664	0	0	0	29023	27640	155791	26868	1075350	46712	110789	0	0	8097	554959	0	0
2024-08-25 06:39:47			0	37655	0	0	0	29015	27630	155783	27072	1075296	46711	110786	0	0	8097	555342	0	0
2024-08-25 06:40:47			0	37686	0	0	0	29010	27630	155751	26802	1075296	46689	110784	0	0	8099	554134	0	0
2024-08-25 06:41:47			0	37663	0	0	0	29015	27620	155731	26854	1075278	46710	110786	0	0	8097	555062	0	0
2024-08-25 06:42:47			0	37649	0	0	0	29018	27630	155719	27249	1075323	46711	110787	0	0	8096	555576	0	0
2024-08-25 06:43:47			0	37669	0	0	0	29018	27630	155759	27232	1075296	46689	110787	0	0	8098	554796	0	0
2024-08-25 06:44:47			0	37657	0	0	0	29007	27620	155671	26918	1075278	46699	110783	0	0	8097	555295	0	0
2024-08-25 06:45:47			0	37670	0	0	0	29012	27620	155767	27196	1075287	46688	110785	0	0	8098	554789	0	0
2024-08-25 06:46:47			0	37687	0	0	0	29020	27620	155687	26944	1075287	46699	110788	0	0	8099	554127	0	0
2024-08-25 06:47:47			0	37663	0	0	0	29015	27620	155715	26975	1075287	46699	110786	0	0	8097	555062	0	0
2024-08-25 06:48:47			0	37668	0	0	0	29023	27620	155727	27294	1075251	46710	110789	0	0	8097	554867	0	0
2024-08-25 06:49:47			0	37671	0	0	0	29018	27620	155775	27157	1075197	46721	110787	0	0	8098	554750	0	0
2024-08-25 06:50:47			0	37678	0	0	0	29007	27610	155791	27227	1075233	46708	110783	0	0	8098	554509	0	0
2024-08-25 06:51:47			0	37686	0	0	0	29010	27620	155835	27140	1075278	46710	110784	0	0	8099	554166	0	0
2024-08-25 06:52:47			0	37663	0	0	0	29012	27610	155743	26979	1075179	46708	110785	0	0	8097	555094	0	0
2024-08-25 06:53:47			0	37653	0	0	0	29010	27610	155803	27055	1075179	46697	110784	0	0	8097	555483	0	0
2024-08-25 06:54:47			0	37656	0	0	0	29012	27610	155687	26956	1075215	46709	110785	0	0	8097	555367	0	0
2024-08-25 06:55:47			0	37658	0	0	0	28994	27620	155787	27135	1075305	46710	110778	0	0	8097	555257	0	0
2024-08-25 06:56:47			0	37651	0	0	0	28999	27610	155847	27296	1075206	46697	110780	0	0	8097	555561	0	0
2024-08-25 06:57:47			0	37660	0	0	0	28997	27610	155799	27008	1075152	46697	110779	0	0	8097	555211	0	0
2024-08-25 06:58:47			0	37649	0	0	0	28994	27600	155895	27234	1075188	46719	110778	0	0	8097	555671	0	0
2024-08-25 06:59:47			0	37653	0	0	0	29002	27600	155931	27348	1075197	46708	110781	0	0	8097	555515	0	0
2024-08-25 07:00:47			0	37652	0	0	0	28992	27600	155983	27315	1075143	46708	110777	0	0	8097	555554	0	0
2024-08-25 07:01:47			0	37649	0	0	0	28994	27600	155903	26871	1075161	46719	110778	0	0	8097	555671	0	0
2024-08-25 07:02:47			0	37625	0	0	0	28992	27600	155827	27107	1075080	46686	110777	0	0	8095	556608	0	0
2024-08-25 07:03:47			0	37627	0	0	0	28984	27610	155963	27343	1075179	46708	110774	0	0	8096	556498	0	0
2024-08-25 07:04:47			0	37639	0	0	0	28992	27600	155803	27157	1075134	46686	110777	0	0	8096	556062	0	0
2024-08-25 07:05:47			0	37639	0	0	0	28997	27580	155883	27034	1075026	46717	110779	0	0	8096	556126	0	0
2024-08-25 07:06:47			0	37640	0	0	0	28994	27590	155879	26948	1075116	46707	110778	0	0	8096	556055	0	0
2024-08-25 07:07:47			0	37632	0	0	0	28992	27600	155835	27123	1075188	46697	110777	0	0	8096	556335	0	0
2024-08-25 07:08:47			0	37629	0	0	0	28981	27590	155959	26908	1075116	46695	110773	0	0	8096	556484	0	0
2024-08-25 07:09:47			0	37656	0	0	0	28981	27590	155935	27152	1075152	46696	110773	0	0	8097	555430	0	0
2024-08-25 07:10:47			0	37619	0	0	0	28976	27590	155975	27206	1075035	46707	110771	0	0	8095	556874	0	0
2024-08-25 07:11:47			0	37619	0	0	0	28981	27590	156007	27296	1075035	46707	110773	0	0	8095	556874	0	0
2024-08-25 07:12:47			0	37619	0	0	0	28979	27590	155943	27396	1075008	46707	110772	0	0	8095	556874	0	0
2024-08-25 07:13:47			0	37603	0	0	0	28973	27580	156023	27118	1075044	46694	110770	0	0	8094	557531	0	0
2024-08-25 07:14:47			0	37613	0	0	0	28973	27580	155955	27185	1074963	46716	110770	0	0	8095	557141	0	0
2024-08-25 07:15:47			0	37619	0	0	0	28981	27570	156091	27107	1074981	46716	110773	0	0	8095	556938	0	0
2024-08-25 07:16:47			0	37603	0	0	0	28971	27570	156123	27138	1075008	46694	110769	0	0	8094	557563	0	0
2024-08-25 07:17:47			0	37616	0	0	0	28971	27580	156059	27227	1074990	46683	110769	0	0	8095	557023	0	0
2024-08-25 07:18:47			0	37618	0	0	0	28971	27580	156055	27038	1075017	46694	110769	0	0	8095	556945	0	0
2024-08-25 07:19:47			0	37607	0	0	0	28968	27570	156035	27358	1074954	46716	110768	0	0	8095	557407	0	0
2024-08-25 07:20:47			0	37615	0	0	0	28950	27580	155995	27336	1074963	46694	110761	0	0	8095	557063	0	0
2024-08-25 07:21:47			0	37612	0	0	0	28950	27560	156031	27156	1074936	46682	110761	0	0	8095	557244	0	0
2024-08-25 07:22:47			0	37611	0	0	0	28948	27570	156051	27270	1074945	46705	110760	0	0	8095	557251	0	0
2024-08-25 07:23:47			0	37618	0	0	0	28948	27560	156059	26979	1074819	46714	110760	0	0	8095	557009	0	0
2024-08-25 07:24:47			0	37592	0	0	0	28950	27560	156103	26896	1074873	46692	110761	0	0	8094	558026	0	0
2024-08-25 07:25:47			0	37590	0	0	0	28945	27560	156175	27183	1074900	46714	110759	0	0	8094	558104	0	0
2024-08-25 07:26:47			0	37592	0	0	0	28953	27560	156087	27180	1074927	46704	110762	0	0	8094	558026	0	0
2024-08-25 07:27:47			0	37586	0	0	0	28945	27570	156143	27156	1074945	46705	110759	0	0	8094	558228	0	0
2024-08-25 07:28:47			0	37590	0	0	0	28945	27560	156095	27078	1074936	46682	110759	0	0	8094	558104	0	0
2024-08-25 07:29:47			0	37591	0	0	0	28950	27550	156079	27013	1074918	46692	110761	0	0	8094	558097	0	0
2024-08-25 07:30:47			0	37584	0	0	0	28953	27550	156139	26781	1074918	46714	110762	0	0	8093	558371	0	0
2024-08-25 07:31:47			0	37592	0	0	0	28961	27550	156103	26961	1074918	46704	110765	0	0	8094	558058	0	0
2024-08-25 07:32:47			0	37588	0	0	0	28945	27550	156119	27166	1074891	46692	110759	0	0	8094	558214	0	0
2024-08-25 07:33:47			0	37600	0	0	0	28948	27550	156011	27126	1074864	46704	110760	0	0	8094	557745	0	0
2024-08-25 07:34:47			0	37611	0	0	0	28950	27550	156171	27303	1074909	46691	110761	0	0	8095	557315	0	0
2024-08-25 07:35:47			0	37605	0	0	0	28942	27550	156031	27339	1074882	46691	110758	0	0	8095	557550	0	0
2024-08-25 07:36:47			0	37588	0	0	0	28942	27550	156051	27355	1074837	46704	110758	0	0	8094	558214	0	0
2024-08-25 07:37:47			0	37587	0	0	0	28945	27550	156163	27306	1074810	46704	110759	0	0	8094	558253	0	0
2024-08-25 07:38:47			0	37581	0	0	0	28937	27550	156079	27339	1074882	46691	110756	0	0	8093	558488	0	0
2024-08-25 07:39:47			0	37593	0	0	0	28932	27550	156127	27060	1074855	46703	110754	0	0	8094	558019	0	0
2024-08-25 07:40:47			0	37572	0	0	0	28927	27540	156163	26949	1074792	46713	110752	0	0	8093	558873	0	0
2024-08-25 07:41:47			0	37581	0	0	0	28919	27540	156103	27097	1074810	46702	110749	0	0	8094	558520	0	0
2024-08-25 07:42:47			0	37575	0	0	0	28916	27540	156107	26854	1074810	46702	110748	0	0	8093	558755	0	0
2024-08-25 07:43:47			0	37579	0	0	0	28919	27530	156091	27124	1074720	46690	110749	0	0	8094	558631	0	0
2024-08-25 07:44:47			0	37576	0	0	0	28922	27540	156111	27241	1074756	46679	110750	0	0	8093	558716	0	0
2024-08-25 07:45:47			0	37575	0	0	0	28914	27530	156235	27020	1074801	46702	110747	0	0	8093	558787	0	0
2024-08-25 07:46:47			0	37552	0	0	0	28922	27530	156215	27102	1074747	46690	110750	0	0	8092	559688	0	0
2024-08-25 07:47:47			0	37575	0	0	0	28916	27530	156275	27067	1074765	46689	110748	0	0	8093	558787	0	0
2024-08-25 07:48:47			0	37573	0	0	0	28914	27530	156263	27246	1074738	46711	110747	0	0	8093	558866	0	0
2024-08-25 07:49:47			0	37570	0	0	0	28911	27530	156211	27069	1074711	46701	110746	0	0	8093	558983	0	0
2024-08-25 07:50:47			0	37580	0	0	0	28909	27520	156159	27157	1074756	46677	110745	0	0	8094	558624	0	0
2024-08-25 07:51:47			0	37575	0	0	0	28914	27520	156239	27052	1074729	46700	110747	0	0	8093	558819	0	0
2024-08-25 07:52:47			0	37601	0	0	0	28911	27530	156171	27241	1074711	46711	110746	0	0	8095	557770	0	0
2024-08-25 07:53:47			0	37613	0	0	0	28927	27520	156115	27197	1074756	46688	110752	0	0	8095	557333	0	0
2024-08-25 07:54:47			0	37608	0	0	0	28935	27530	156115	26961	1074720	46702	110755	0	0	8095	557496	0	0
2024-08-25 07:55:47			0	37595	0	0	0	28929	27530	156191	26752	1074774	46702	110753	0	0	8094	558005	0	0
2024-08-25 07:56:47			0	37580	0	0	0	28929	27530	156215	27052	1074792	46701	110753	0	0	8093	558592	0	0
2024-08-25 07:57:47			0	37586	0	0	0	28922	27530	156099	27071	1074792	46689	110750	0	0	8094	558357	0	0
2024-08-25 07:58:47			0	37600	0	0	0	28937	27530	156111	27194	1074711	46701	110756	0	0	8094	557809	0	0
2024-08-25 07:59:47			0	37560	0	0	0	28935	27530	156247	27229	1074774	46702	110755	0	0	8092	559375	0	0
2024-08-25 08:00:47			0	37577	0	0	0	28929	27530	156191	27060	1074792	46711	110753	0	0	8093	558709	0	0
2024-08-25 08:01:47			0	37584	0	0	0	28924	27530	156119	27078	1074774	46690	110751	0	0	8094	558435	0	0
2024-08-25 08:02:47			0	37579	0	0	0	28937	27520	156315	27093	1074756	46688	110756	0	0	8093	558663	0	0
2024-08-25 08:03:47			0	37581	0	0	0	28927	27530	156171	27142	1074765	46701	110752	0	0	8094	558552	0	0
2024-08-25 08:04:47			0	37583	0	0	0	28932	27540	156147	27248	1074837	46712	110754	0	0	8094	558442	0	0
2024-08-25 08:05:47			0	37582	0	0	0	28937	27530	156267	27272	1074818	46689	110756	0	0	8093	558513	0	0
2024-08-25 08:06:47			0	37582	0	0	0	28937	27530	156123	27251	1074935	46702	110756	0	0	8093	558513	0	0
2024-08-25 08:07:47			0	37606	0	0	0	28948	27540	156183	27095	1074837	46690	110760	0	0	8095	557543	0	0
2024-08-25 08:08:47			0	37600	0	0	0	28948	27530	156139	27329	1074854	46702	110760	0	0	8094	557809	0	0
2024-08-25 08:09:47			0	37577	0	0	0	28963	27540	156095	27331	1074873	46713	110766	0	0	8093	558677	0	0
2024-08-25 08:10:47			0	37568	0	0	0	28961	27540	156099	27104	1074873	46713	110765	0	0	8092	559029	0	0
2024-08-25 08:11:47			0	37558	0	0	0	28963	27540	156163	27092	1074927	46713	110766	0	0	8092	559421	0	0
2024-08-25 08:12:47			0	37569	0	0	0	28966	27550	156135	27062	1074891	46704	110767	0	0	8092	558958	0	0
2024-08-25 08:13:47			0	37574	0	0	0	28971	27540	156147	27274	1074927	46725	110769	0	0	8092	558794	0	0
2024-08-25 08:14:47			0	37566	0	0	0	28968	27550	156091	27069	1074909	46691	110768	0	0	8092	559075	0	0
2024-08-25 08:15:47			0	37568	0	0	0	28955	27550	156155	27053	1074909	46691	110763	0	0	8092	558997	0	0
2024-08-25 08:16:47			0	37572	0	0	0	28963	27550	156211	27272	1074909	46703	110766	0	0	8092	558840	0	0
2024-08-25 08:17:47			0	37566	0	0	0	28961	27550	156251	26842	1074828	46703	110765	0	0	8092	559075	0	0
2024-08-25 08:18:47			0	37558	0	0	0	28968	27550	156179	26885	1074999	46714	110768	0	0	8092	559389	0	0
2024-08-25 08:19:47			0	37586	0	0	0	28973	27560	156183	27031	1074954	46714	110770	0	0	8093	558260	0	0
2024-08-25 08:20:47			0	37560	0	0	0	28973	27550	156179	27048	1074999	46704	110770	0	0	8092	559310	0	0
2024-08-25 08:21:47			0	37560	0	0	0	28981	27560	156255	27336	1074981	46692	110773	0	0	8092	559278	0	0
2024-08-25 08:22:47			0	37561	0	0	0	28979	27560	156123	27303	1075017	46705	110772	0	0	8092	559239	0	0
2024-08-25 08:23:47			0	37571	0	0	0	28984	27550	156179	27277	1074999	46714	110774	0	0	8092	558880	0	0
2024-08-25 08:24:47			0	37555	0	0	0	28992	27560	156171	26946	1075071	46705	110777	0	0	8091	559474	0	0
2024-08-25 08:25:47			0	37549	0	0	0	28989	27560	156239	27265	1075017	46715	110776	0	0	8091	559709	0	0
2024-08-25 08:26:47			0	37553	0	0	0	28992	27570	156287	27315	1075089	46716	110777	0	0	8091	559520	0	0
2024-08-25 08:27:47			0	37537	0	0	0	28989	27580	156347	27152	1075098	46706	110776	0	0	8090	560115	0	0
2024-08-25 08:28:47			0	37502	0	0	0	28997	27570	156363	27085	1075035	46716	110779	0	0	8088	561521	0	0
2024-08-25 08:29:47			0	37508	0	0	0	28989	27570	156375	26942	1075116	46716	110776	0	0	8088	561285	0	0
2024-08-25 08:30:47			0	37516	0	0	0	29002	27570	156431	27433	1075169	46706	110781	0	0	8089	560971	0	0
2024-08-25 08:31:47			0	37478	0	0	0	28999	27570	156459	26875	1075142	46716	110780	0	0	8086	562463	0	0
2024-08-25 08:32:47			0	37462	0	0	0	28992	27590	156575	26771	1075116	46729	110777	0	0	8086	563028	0	0
2024-08-25 08:33:47			0	37451	0	0	0	28994	27580	156547	26876	1075187	46717	110778	0	0	8085	563493	0	0
2024-08-25 08:34:47			0	37447	0	0	0	28999	27580	156687	27251	1075125	46716	110780	0	0	8085	563651	0	0
2024-08-25 08:35:47			0	37440	0	0	0	28999	27590	156627	27090	1075116	46707	110780	0	0	8084	563894	0	0
2024-08-25 08:36:47			0	37435	0	0	0	28997	27580	156731	27175	1075134	46707	110779	0	0	8084	564123	0	0
2024-08-25 08:37:47			0	37426	0	0	0	28999	27580	156711	27031	1075134	46707	110780	0	0	8084	564478	0	0
2024-08-25 08:38:47			0	37400	0	0	0	28999	27580	156783	27248	1075134	46717	110780	0	0	8082	565503	0	0
2024-08-25 08:39:47			0	37399	0	0	0	29005	27590	156815	27060	1075196	46707	110782	0	0	8082	565510	0	0
2024-08-25 08:40:47			0	37386	0	0	0	28994	27580	156855	26772	1075187	46695	110778	0	0	8081	566055	0	0
2024-08-25 08:41:47			0	37357	0	0	0	28997	27590	157027	27039	1075196	46695	110779	0	0	8080	567168	0	0
2024-08-25 08:42:47			0	37362	0	0	0	28994	27590	157115	26946	1075098	46708	110778	0	0	8080	566970	0	0
2024-08-25 08:43:47			0	37332	0	0	0	28994	27590	157135	26901	1075125	46696	110778	0	0	8078	568157	0	0
2024-08-25 08:44:47			0	37333	0	0	0	29002	27590	157075	27140	1075152	46708	110781	0	0	8078	568117	0	0
2024-08-25 08:45:47			0	37301	0	0	0	28997	27590	157210	26804	1075116	46695	110779	0	0	8076	569384	0	0
2024-08-25 08:46:47			0	37269	0	0	0	29010	27580	157370	26559	1075134	46707	110784	0	0	8074	570686	0	0
2024-08-25 08:47:47			0	37244	0	0	0	28999	27590	157466	27013	1075196	46717	110780	0	0	8073	571646	0	0
2024-08-25 08:48:47			0	37228	0	0	0	28999	27590	157714	26774	1075232	46718	110780	0	0	8072	572282	0	0
2024-08-25 08:49:47			0	37189	0	0	0	29010	27590	157674	27048	1075179	46718	110784	0	0	8070	573834	0	0
2024-08-25 08:50:47			0	37191	0	0	0	29010	27600	157742	27111	1075215	46731	110784	0	0	8070	573721	0	0
2024-08-25 08:51:47			0	37172	0	0	0	29012	27600	157766	27232	1075241	46719	110785	0	0	8069	574478	0	0
2024-08-25 08:52:47			0	37161	0	0	0	29007	27600	157686	27287	1075188	46708	110783	0	0	8068	574916	0	0
2024-08-25 08:53:47			0	37172	0	0	0	29015	27600	157758	26731	1075224	46719	110786	0	0	8069	574478	0	0
2024-08-25 08:54:47			0	37162	0	0	0	29041	27610	157870	27076	1075269	46709	110796	0	0	8068	574844	0	0
2024-08-25 08:55:47			0	37164	0	0	0	29028	27610	157890	27069	1075286	46731	110791	0	0	8068	574764	0	0
2024-08-25 08:56:47			0	37147	0	0	0	29036	27610	158018	27232	1075233	46708	110794	0	0	8067	575442	0	0
2024-08-25 08:57:47			0	37144	0	0	0	29028	27620	157882	26830	1075278	46733	110791	0	0	8067	575528	0	0
2024-08-25 08:58:47			0	37146	0	0	0	29038	27610	157862	27320	1075313	46708	110795	0	0	8067	575482	0	0
2024-08-25 08:59:47			0	37136	0	0	0	29046	27620	157874	27105	1075331	46710	110798	0	0	8066	575848	0	0
2024-08-25 09:00:47			0	37138	0	0	0	29049	27620	157926	27163	1075358	46710	110799	0	0	8066	575768	0	0
2024-08-25 09:01:47			0	37100	0	0	0	29057	27620	158002	27112	1075341	46710	110802	0	0	8064	577286	0	0
2024-08-25 09:02:47			0	37092	0	0	0	29054	27620	158078	27152	1075385	46721	110801	0	0	8063	577606	0	0
2024-08-25 09:03:47			0	37067	0	0	0	29054	27640	158078	27147	1075350	46701	110801	0	0	8062	578540	0	0
2024-08-25 09:04:47			0	37074	0	0	0	29064	27630	158142	26828	1075430	46722	110805	0	0	8062	578293	0	0
2024-08-25 09:05:47			0	37049	0	0	0	29067	27640	158130	26811	1075458	46735	110806	0	0	8061	579261	0	0
2024-08-25 09:06:47			0	37061	0	0	0	29059	27640	158222	26852	1075458	46735	110803	0	0	8061	578780	0	0
2024-08-25 09:07:47			0	37059	0	0	0	29059	27640	158298	26968	1075448	46701	110803	0	0	8061	578860	0	0
2024-08-25 09:08:47			0	37027	0	0	0	29059	27650	158234	27208	1075494	46724	110803	0	0	8060	580110	0	0
2024-08-25 09:09:47			0	37025	0	0	0	29057	27650	158370	27187	1075521	46713	110802	0	0	8059	580190	0	0
2024-08-25 09:10:47			0	37031	0	0	0	29067	27660	158366	26953	1075512	46714	110806	0	0	8060	579916	0	0
2024-08-25 09:11:47			0	37021	0	0	0	29062	27660	158338	27085	1075485	46703	110804	0	0	8059	580317	0	0
2024-08-25 09:12:47			0	37027	0	0	0	29057	27650	158462	27133	1075476	46713	110802	0	0	8060	580110	0	0
2024-08-25 09:13:47			0	36990	0	0	0	29051	27660	158402	26759	1075485	46714	110800	0	0	8058	581562	0	0
2024-08-25 09:14:47			0	37002	0	0	0	29067	27650	158414	27015	1075503	46702	110806	0	0	8058	581113	0	0
2024-08-25 09:15:47			0	36982	0	0	0	29067	27650	158418	27065	1075449	46724	110806	0	0	8057	581917	0	0
2024-08-25 09:16:47			0	36998	0	0	0	29072	27650	158518	27296	1075557	46713	110808	0	0	8058	581274	0	0
2024-08-25 09:17:47			0	36996	0	0	0	29072	27660	158354	27213	1075539	46714	110808	0	0	8058	581321	0	0
2024-08-25 09:18:47			0	37009	0	0	0	29075	27650	158414	27057	1075503	46713	110809	0	0	8058	580832	0	0
2024-08-25 09:19:47			0	37017	0	0	0	29072	27650	158406	27137	1075530	46713	110808	0	0	8059	580511	0	0
2024-08-25 09:20:47			0	37017	0	0	0	29080	27660	158350	27102	1075494	46715	110811	0	0	8059	580478	0	0
2024-08-25 09:21:47			0	36997	0	0	0	29083	27660	158278	27267	1075539	46714	110812	0	0	8057	581280	0	0
2024-08-25 09:22:47			0	37005	0	0	0	29085	27660	158254	27017	1075575	46715	110813	0	0	8058	580959	0	0
2024-08-25 09:23:47			0	37015	0	0	0	29077	27670	158306	27000	1075539	46726	110810	0	0	8059	580524	0	0
2024-08-25 09:24:47			0	37009	0	0	0	29075	27670	158370	27203	1075566	46715	110809	0	0	8058	580765	0	0
2024-08-25 09:25:47			0	37024	0	0	0	29072	27670	158250	27107	1075620	46704	110808	0	0	8059	580163	0	0
2024-08-25 09:26:47			0	37022	0	0	0	29083	27670	158358	27164	1075611	46704	110812	0	0	8059	580244	0	0
2024-08-25 09:27:47			0	37011	0	0	0	29083	27670	158186	27102	1075557	46726	110812	0	0	8058	580685	0	0
2024-08-25 09:28:47			0	37006	0	0	0	29096	27670	158282	27102	1075611	46704	110817	0	0	8058	580886	0	0
2024-08-25 09:29:47			0	36993	0	0	0	29090	27670	158314	27100	1075539	46715	110815	0	0	8057	581408	0	0
2024-08-25 09:30:47			0	37006	0	0	0	29085	27670	158374	27128	1075584	46715	110813	0	0	8058	580886	0	0
2024-08-25 09:31:47			0	37016	0	0	0	29085	27670	158398	26951	1075620	46715	110813	0	0	8059	580484	0	0
2024-08-25 09:32:47			0	36999	0	0	0	29101	27680	158342	27173	1075602	46716	110819	0	0	8057	581133	0	0
2024-08-25 09:33:47			0	37001	0	0	0	29090	27680	158250	27111	1075656	46706	110815	0	0	8058	581053	0	0
2024-08-25 09:34:47			0	36997	0	0	0	29090	27680	158262	27338	1075602	46716	110815	0	0	8057	581214	0	0
2024-08-25 09:35:47			0	36983	0	0	0	29096	27680	158338	26852	1075629	46706	110817	0	0	8056	581776	0	0
2024-08-25 09:36:47			0	37004	0	0	0	29098	27670	158290	27215	1075593	46726	110818	0	0	8058	580966	0	0
2024-08-25 09:37:47			0	37001	0	0	0	29101	27680	158398	26779	1075602	46716	110819	0	0	8057	581053	0	0
2024-08-25 09:38:47			0	37017	0	0	0	29106	27680	158230	26769	1075692	46717	110821	0	0	8058	580411	0	0
2024-08-25 09:39:47			0	37017	0	0	0	29116	27690	158250	27022	1075647	46717	110825	0	0	8058	580377	0	0
2024-08-25 09:40:47			0	37035	0	0	0	29111	27690	158246	26824	1075656	46728	110823	0	0	8059	579655	0	0
2024-08-25 09:41:47			0	37044	0	0	0	29116	27700	158302	26885	1075701	46719	110825	0	0	8060	579261	0	0
2024-08-25 09:42:47			0	37039	0	0	0	29122	27700	158222	26911	1075782	46730	110827	0	0	8059	579462	0	0
2024-08-25 09:43:47			0	37032	0	0	0	29119	27700	158218	26831	1075746	46729	110826	0	0	8059	579742	0	0
2024-08-25 09:44:47			0	37044	0	0	0	29137	27700	158146	26878	1075746	46718	110833	0	0	8059	579261	0	0
2024-08-25 09:45:47			0	37067	0	0	0	29142	27700	158246	27168	1075809	46730	110835	0	0	8061	578340	0	0
2024-08-25 09:46:47			0	37042	0	0	0	29148	27710	158090	26982	1075800	46731	110837	0	0	8059	579308	0	0
2024-08-25 09:47:47			0	37054	0	0	0	29142	27720	158010	27239	1075863	46731	110835	0	0	8060	578794	0	0
2024-08-25 09:48:47			0	37068	0	0	0	29145	27710	158118	27222	1075854	46708	110836	0	0	8061	578267	0	0
2024-08-25 09:49:47			0	37063	0	0	0	29137	27720	158046	26908	1075809	46731	110833	0	0	8061	578434	0	0
2024-08-25 09:50:47			0	37073	0	0	0	29148	27720	158042	27050	1075890	46731	110837	0	0	8061	578033	0	0
2024-08-25 09:51:47			0	37063	0	0	0	29150	27720	158018	27123	1075863	46731	110838	0	0	8060	578434	0	0
2024-08-25 09:52:47			0	37088	0	0	0	29148	27720	158030	27123	1075917	46720	110837	0	0	8062	577433	0	0
2024-08-25 09:53:47			0	37082	0	0	0	29155	27730	157998	27095	1075908	46733	110840	0	0	8062	577640	0	0
2024-08-25 09:54:47			0	37100	0	0	0	29161	27730	157950	27149	1075908	46733	110842	0	0	8062	576921	0	0
2024-08-25 09:55:47			0	37105	0	0	0	29166	27740	157826	26861	1075953	46722	110844	0	0	8063	576688	0	0
2024-08-25 09:56:47			0	37108	0	0	0	29163	27730	157890	26918	1075944	46733	110843	0	0	8063	576601	0	0
2024-08-25 09:57:47			0	37106	0	0	0	29166	27750	157878	26812	1075971	46724	110844	0	0	8063	576614	0	0
2024-08-25 09:58:47			0	37124	0	0	0	29163	27750	157766	27176	1075980	46735	110843	0	0	8064	575896	0	0
2024-08-25 09:59:47			0	37131	0	0	0	29166	27740	157794	26828	1076016	46723	110844	0	0	8064	575649	0	0
2024-08-25 10:00:47			0	37145	0	0	0	29166	27750	157798	26863	1076061	46747	110844	0	0	8065	575058	0	0
2024-08-25 10:01:47			0	37134	0	0	0	29179	27750	157778	27154	1076034	46713	110849	0	0	8064	575497	0	0
2024-08-25 10:02:47			0	37159	0	0	0	29186	27760	157698	27173	1076016	46724	110852	0	0	8066	574467	0	0
2024-08-25 10:03:47			0	37154	0	0	0	29179	27750	157758	27130	1076088	46735	110849	0	0	8065	574699	0	0
2024-08-25 10:04:47			0	37156	0	0	0	29186	27760	157690	27020	1076070	46713	110852	0	0	8065	574586	0	0
2024-08-25 10:05:47			0	37147	0	0	0	29184	27760	157730	27105	1076097	46724	110851	0	0	8065	574945	0	0
2024-08-25 10:06:47			0	37165	0	0	0	29184	27770	157762	27027	1076169	46737	110851	0	0	8066	574195	0	0
2024-08-25 10:07:47			0	37166	0	0	0	29184	27750	157602	27222	1076142	46724	110851	0	0	8066	574221	0	0
2024-08-25 10:08:47			0	37175	0	0	0	29194	27770	157670	27137	1076124	46737	110855	0	0	8066	573796	0	0
2024-08-25 10:09:47			0	37165	0	0	0	29205	27770	157622	27199	1076124	46726	110859	0	0	8066	574195	0	0
2024-08-25 10:10:47			0	37170	0	0	0	29207	27770	157594	26812	1076151	46726	110860	0	0	8066	573996	0	0
2024-08-25 10:11:47			0	37172	0	0	0	29207	27770	157654	27046	1076223	46726	110860	0	0	8066	573916	0	0
2024-08-25 10:12:47			0	37196	0	0	0	29212	27790	157578	26736	1076179	46750	110862	0	0	8068	572895	0	0
2024-08-25 10:13:47			0	37180	0	0	0	29210	27790	157502	27010	1076232	46728	110861	0	0	8067	573531	0	0
2024-08-25 10:14:47			0	37220	0	0	0	29215	27800	157538	27008	1076277	46740	110863	0	0	8069	571908	0	0
2024-08-25 10:15:47			0	37225	0	0	0	29236	27800	157546	27152	1076304	46718	110871	0	0	8069	571709	0	0
2024-08-25 10:16:47			0	37226	0	0	0	29202	27810	157482	27013	1076340	46729	110858	0	0	8070	571636	0	0
2024-08-25 10:17:47			0	37211	0	0	0	29212	27800	157494	27029	1076304	46729	110862	0	0	8068	572265	0	0
2024-08-25 10:18:47			0	37231	0	0	0	29218	27800	157350	26956	1076277	46740	110864	0	0	8069	571471	0	0
2024-08-25 10:19:47			0	37209	0	0	0	29223	27810	157482	27041	1076287	46718	110866	0	0	8068	572312	0	0
2024-08-25 10:20:47			0	37231	0	0	0	29205	27810	157402	27159	1076287	46729	110859	0	0	8070	571438	0	0
2024-08-25 10:21:47			0	37228	0	0	0	29186	27810	157442	27150	1076296	46730	110852	0	0	8070	571557	0	0
2024-08-25 10:22:47			0	37227	0	0	0	29184	27810	157446	26982	1076287	46718	110851	0	0	8070	571597	0	0
2024-08-25 10:23:47			0	37232	0	0	0	29176	27810	157438	26771	1076287	46740	110848	0	0	8070	571398	0	0
2024-08-25 10:24:47			0	37225	0	0	0	29173	27800	157486	26953	1076251	46729	110847	0	0	8070	571709	0	0
2024-08-25 10:25:47			0	37223	0	0	0	29153	27790	157462	27220	1076215	46707	110839	0	0	8070	571822	0	0
2024-08-25 10:26:47			0	37210	0	0	0	29114	27800	157486	26859	1076197	46729	110824	0	0	8070	572305	0	0
2024-08-25 10:27:47			0	37207	0	0	0	29129	27780	157494	26981	1076143	46716	110830	0	0	8070	572490	0	0
2024-08-25 10:28:47			0	37203	0	0	0	29179	27780	157446	27215	1076170	46705	110849	0	0	8068	572649	0	0
2024-08-25 10:29:47			0	37185	0	0	0	29129	27780	157542	27346	1076196	46727	110830	0	0	8068	573365	0	0
2024-08-25 10:30:47			0	37186	0	0	0	29124	27780	157554	27079	1076116	46727	110828	0	0	8068	573325	0	0
2024-08-25 10:31:47			0	37184	0	0	0	29116	27780	157586	27251	1076052	46714	110825	0	0	8068	573405	0	0
2024-08-25 10:32:47			0	37176	0	0	0	29088	27780	157574	27241	1076079	46726	110814	0	0	8068	573724	0	0
2024-08-25 10:33:47			0	37169	0	0	0	29148	27780	157626	27007	1076187	46726	110837	0	0	8067	574002	0	0
2024-08-25 10:34:47			0	37162	0	0	0	29194	27770	157622	26993	1076151	46726	110855	0	0	8066	574314	0	0
2024-08-25 10:35:47			0	37150	0	0	0	29166	27770	157606	27067	1076178	46749	110844	0	0	8065	574792	0	0
2024-08-25 10:36:47			0	37157	0	0	0	29142	27780	157818	27246	1076196	46750	110835	0	0	8066	574480	0	0
2024-08-25 10:37:47			0	37136	0	0	0	29176	27790	157706	27267	1076215	46718	110848	0	0	8065	575284	0	0
2024-08-25 10:38:47			0	37145	0	0	0	29176	27780	157674	27218	1076223	46716	110848	0	0	8065	574958	0	0
2024-08-25 10:39:47			0	37140	0	0	0	29150	27790	157742	27176	1076206	46728	110838	0	0	8065	575125	0	0
2024-08-25 10:40:47			0	37138	0	0	0	29150	27780	157826	27112	1076170	46727	110838	0	0	8065	575238	0	0
2024-08-25 10:41:47			0	37123	0	0	0	29171	27780	157826	27085	1076160	46726	110846	0	0	8064	575836	0	0
2024-08-25 10:42:47			0	37111	0	0	0	29179	27780	157834	27114	1076133	46737	110849	0	0	8063	576315	0	0
2024-08-25 10:43:47			0	37095	0	0	0	29140	27780	157834	27059	1076116	46716	110834	0	0	8063	576954	0	0
2024-08-25 10:44:47			0	37095	0	0	0	29145	27770	157874	27294	1076097	46704	110836	0	0	8063	576987	0	0
2024-08-25 10:45:47			0	37086	0	0	0	29166	27770	157890	26998	1076142	46714	110844	0	0	8062	577347	0	0
2024-08-25 10:46:47			0	37090	0	0	0	29153	27770	157950	27357	1076169	46726	110839	0	0	8062	577187	0	0
2024-08-25 10:47:47			0	37067	0	0	0	29132	27770	157998	27319	1076178	46737	110831	0	0	8061	578107	0	0
2024-08-25 10:48:47			0	37084	0	0	0	29137	27770	157954	27050	1076070	46726	110833	0	0	8062	577427	0	0
2024-08-25 10:49:47			0	37073	0	0	0	29168	27770	157934	27298	1076115	46726	110845	0	0	8061	577867	0	0
2024-08-25 10:50:47			0	37073	0	0	0	29155	27760	158018	27150	1076106	46736	110840	0	0	8061	577900	0	0
2024-08-25 10:51:47			0	37082	0	0	0	29132	27770	158030	27031	1076097	46726	110831	0	0	8062	577507	0	0
2024-08-25 10:52:47			0	37055	0	0	0	29171	27770	157982	27033	1076070	46726	110846	0	0	8060	578587	0	0
2024-08-25 10:53:47			0	37071	0	0	0	29179	27770	158058	27277	1076142	46726	110849	0	0	8061	577947	0	0
2024-08-25 10:54:47			0	37064	0	0	0	29179	27780	158082	27092	1076170	46738	110849	0	0	8060	578194	0	0
2024-08-25 10:55:47			0	37048	0	0	0	29181	27780	158090	27249	1076187	46714	110850	0	0	8059	578834	0	0
2024-08-25 10:56:47			0	37060	0	0	0	29186	27770	158150	27260	1076124	46737	110852	0	0	8060	578387	0	0
2024-08-25 10:57:47			0	37053	0	0	0	29176	27780	158118	27360	1076241	46726	110848	0	0	8060	578634	0	0
2024-08-25 10:58:47			0	37054	0	0	0	29148	27770	158070	27140	1076205	46704	110837	0	0	8060	578627	0	0
2024-08-25 10:59:47			0	37064	0	0	0	29171	27780	158130	26845	1076106	46714	110846	0	0	8060	578194	0	0
2024-08-25 11:00:47			0	37067	0	0	0	29290	27780	158126	27225	1076304	46738	110892	0	0	8059	578074	0	0
2024-08-25 11:01:47			0	37061	0	0	0	29384	27810	158218	27027	1076529	46774	110928	0	0	8057	578214	0	0
2024-08-25 11:02:47			0	37060	0	0	0	29329	27820	158090	27133	1076664	46787	110907	0	0	8058	578221	0	0
2024-08-25 11:03:47			0	37076	0	0	0	29267	27840	158078	27317	1076646	46766	110883	0	0	8060	577514	0	0
2024-08-25 11:04:47			0	37069	0	0	0	29309	27870	158106	26986	1076718	46747	110899	0	0	8059	577694	0	0
2024-08-25 11:05:47			0	37056	0	0	0	29290	27870	158010	27348	1076745	46758	110892	0	0	8058	578214	0	0
2024-08-25 11:06:47			0	37023	0	0	0	29348	27880	158166	26996	1076817	46748	110914	0	0	8056	579502	0	0
2024-08-25 11:07:47			0	37060	0	0	0	29358	27880	158098	27377	1076925	46759	110918	0	0	8058	578021	0	0
2024-08-25 11:08:47			0	37036	0	0	0	29345	27900	158102	27208	1076988	46761	110913	0	0	8056	578914	0	0
2024-08-25 11:09:47			0	37044	0	0	0	29335	27900	158078	27194	1076970	46762	110909	0	0	8057	578594	0	0
2024-08-25 11:10:47			0	37042	0	0	0	29324	27910	158030	27105	1076908	46740	110905	0	0	8057	578641	0	0
2024-08-25 11:11:47			0	37054	0	0	0	29340	27910	157942	27197	1076926	46750	110911	0	0	8058	578161	0	0
2024-08-25 11:12:47			0	37044	0	0	0	29358	27920	157910	27194	1077025	46751	110918	0	0	8057	578528	0	0
2024-08-25 11:13:47			0	37056	0	0	0	29340	27920	157998	26989	1076980	46752	110911	0	0	8058	578047	0	0
2024-08-25 11:14:47			0	37053	0	0	0	29345	27920	157918	27069	1076944	46741	110913	0	0	8058	578167	0	0
2024-08-25 11:15:47			0	37049	0	0	0	29348	27930	157946	27428	1076989	46753	110914	0	0	8057	578294	0	0
2024-08-25 11:16:47			0	37032	0	0	0	29358	27930	157906	26975	1077016	46743	110918	0	0	8056	578974	0	0
2024-08-25 11:17:47			0	37053	0	0	0	29368	27920	157926	27222	1077034	46742	110922	0	0	8057	578167	0	0
2024-08-25 11:18:47			0	37057	0	0	0	29389	27930	157918	27267	1077043	46743	110930	0	0	8057	577974	0	0
2024-08-25 11:19:47			0	37077	0	0	0	29431	27930	158010	27109	1077133	46765	110946	0	0	8058	577175	0	0
2024-08-25 11:20:47			0	37059	0	0	0	29457	27940	157990	27034	1077258	46777	110956	0	0	8056	577861	0	0
2024-08-25 11:21:47			0	37059	0	0	0	29451	27960	157870	27150	1077349	46768	110954	0	0	8056	577794	0	0
2024-08-25 11:22:47			0	37079	0	0	0	29436	27980	157786	27187	1077412	46770	110948	0	0	8058	576928	0	0
2024-08-25 11:23:47			0	37076	0	0	0	29423	27980	157758	27267	1077412	46758	110943	0	0	8058	577048	0	0
2024-08-25 11:24:47			0	37070	0	0	0	29415	28000	157774	27275	1077439	46760	110940	0	0	8058	577221	0	0
2024-08-25 11:25:47			0	37060	0	0	0	29420	27990	157778	27053	1077403	46749	110942	0	0	8057	577654	0	0
2024-08-25 11:26:47			0	37041	0	0	0	29438	28000	157842	27015	1077475	46760	110949	0	0	8056	578381	0	0
2024-08-25 11:27:47			0	37045	0	0	0	29451	28010	157834	26904	1077457	46740	110954	0	0	8056	578187	0	0
2024-08-25 11:28:47			0	37029	0	0	0	29449	28010	157950	27057	1077484	46773	110953	0	0	8055	578828	0	0
2024-08-25 11:29:47			0	37029	0	0	0	29483	28010	157954	27235	1077520	46762	110966	0	0	8054	578828	0	0
2024-08-25 11:30:47			0	37028	0	0	0	29488	28020	158046	27156	1077619	46774	110968	0	0	8054	578834	0	0
2024-08-25 11:31:47			0	37039	0	0	0	29516	28020	158006	27052	1077673	46762	110979	0	0	8054	578394	0	0
2024-08-25 11:32:47			0	37051	0	0	0	29535	28030	157998	27026	1077763	46763	110986	0	0	8055	577881	0	0
2024-08-25 11:33:47			0	37081	0	0	0	29537	28050	157926	26859	1077754	46766	110987	0	0	8057	576615	0	0
2024-08-25 11:34:47			0	37091	0	0	0	29532	28060	157750	27079	1077844	46766	110985	0	0	8057	576183	0	0
2024-08-25 11:35:47			0	37105	0	0	0	29537	28070	157702	27197	1077808	46768	110987	0	0	8058	575592	0	0
2024-08-25 11:36:47			0	37094	0	0	0	29548	28070	157570	26849	1077845	46757	110991	0	0	8057	576030	0	0
2024-08-25 11:37:47			0	37099	0	0	0	29563	28080	157610	26840	1077943	46769	110997	0	0	8057	575797	0	0
2024-08-25 11:38:47			0	37101	0	0	0	29573	28090	157634	27203	1077979	46769	111001	0	0	8057	575684	0	0
2024-08-25 11:39:47			0	37107	0	0	0	29566	28100	157646	27267	1077998	46771	110998	0	0	8058	575412	0	0
2024-08-25 11:40:47			0	37098	0	0	0	29573	28120	157642	27249	1078079	46784	111001	0	0	8057	575704	0	0
2024-08-25 11:41:47			0	37094	0	0	0	29571	28120	157690	26986	1078088	46774	111000	0	0	8057	575864	0	0
2024-08-25 11:42:47			0	37068	0	0	0	29579	28130	157646	26804	1078097	46774	111003	0	0	8055	576868	0	0
2024-08-25 11:43:47			0	37074	0	0	0	29576	28130	157714	26887	1078151	46762	111002	0	0	8056	576629	0	0
2024-08-25 11:44:47			0	37070	0	0	0	29589	28130	157726	26795	1078133	46786	111007	0	0	8055	576788	0	0
2024-08-25 11:45:47			0	37076	0	0	0	29618	28150	157646	26849	1078187	46787	111018	0	0	8055	576482	0	0
2024-08-25 11:46:47			0	37086	0	0	0	29633	28150	157690	27064	1078295	46787	111024	0	0	8056	576083	0	0
2024-08-25 11:47:47			0	37084	0	0	0	29659	28150	157678	27350	1078358	46788	111034	0	0	8055	576163	0	0
2024-08-25 11:48:47			0	37085	0	0	0	29527	28170	157506	27145	1078367	46790	110983	0	0	8058	576057	0	0
2024-08-25 11:49:47			0	37137	0	0	0	29576	28180	157426	27274	1078349	46768	111002	0	0	8060	573952	0	0
2024-08-25 11:50:47			0	37169	0	0	0	29527	28170	157242	27017	1078224	46755	110983	0	0	8062	572713	0	0
2024-08-25 11:51:47			0	37158	0	0	0	29633	28170	157350	27267	1078331	46755	111024	0	0	8060	573150	0	0
2024-08-25 11:52:47			0	37172	0	0	0	29631	28180	157198	27076	1078332	46768	111023	0	0	8061	572560	0	0
2024-08-25 11:53:47			0	37187	0	0	0	29628	28190	157110	27189	1078448	46780	111022	0	0	8062	571932	0	0
2024-08-25 11:54:47			0	37151	0	0	0	29612	28190	157174	27124	1078421	46768	111016	0	0	8060	573362	0	0
2024-08-25 11:55:47			0	37201	0	0	0	29610	28200	157234	27156	1078440	46770	111015	0	0	8063	571343	0	0
2024-08-25 11:56:47			0	37167	0	0	0	29620	28190	157078	27159	1078475	46768	111019	0	0	8061	572726	0	0
2024-08-25 11:57:47			0	37181	0	0	0	29610	28190	157122	27085	1078484	46781	111015	0	0	8062	572170	0	0
2024-08-25 11:58:47			0	37203	0	0	0	29581	28200	157098	27019	1078467	46759	111004	0	0	8064	571264	0	0
2024-08-25 11:59:47			0	37208	0	0	0	29586	28190	156994	26937	1078377	46781	111006	0	0	8064	571098	0	0
2024-08-25 12:00:47			0	37229	0	0	0	29566	28200	156978	26972	1078386	46770	110998	0	0	8065	570233	0	0
2024-08-25 12:01:47			0	37222	0	0	0	29584	28190	157014	27452	1078350	46769	111005	0	0	8065	570543	0	0
2024-08-25 12:02:47			0	37210	0	0	0	29605	28190	157018	27026	1078341	46768	111013	0	0	8064	571019	0	0
2024-08-25 12:03:47			0	37219	0	0	0	29631	28190	157074	26850	1078404	46769	111023	0	0	8064	570662	0	0
2024-08-25 12:04:47			0	37217	0	0	0	29589	28190	156986	26797	1078457	46791	111007	0	0	8064	570742	0	0
2024-08-25 12:05:47			0	37202	0	0	0	29586	28200	156918	26876	1078503	46770	111006	0	0	8063	571303	0	0
2024-08-25 12:06:47			0	37219	0	0	0	29612	28200	156950	27012	1078386	46770	111016	0	0	8064	570629	0	0
2024-08-25 12:07:47			0	37245	0	0	0	29646	28190	156914	26989	1078421	46757	111029	0	0	8065	569632	0	0
2024-08-25 12:08:47			0	37238	0	0	0	29659	28200	156870	26802	1078520	46782	111034	0	0	8064	569877	0	0
2024-08-25 12:09:47			0	37244	0	0	0	29657	28200	156954	27166	1078556	46782	111033	0	0	8065	569639	0	0
2024-08-25 12:10:47			0	37256	0	0	0	29657	28210	156874	26866	1078575	46783	111033	0	0	8065	569131	0	0
2024-08-25 12:11:47			0	37260	0	0	0	29659	28220	156818	27183	1078611	46784	111034	0	0	8066	568940	0	0
2024-08-25 12:12:47			0	37270	0	0	0	29659	28220	156842	26986	1078638	46772	111034	0	0	8066	568545	0	0
2024-08-25 12:13:47			0	37269	0	0	0	29646	28230	156838	26977	1078629	46773	111029	0	0	8067	568551	0	0
2024-08-25 12:14:47			0	37265	0	0	0	29677	28230	156890	27053	1078611	46762	111041	0	0	8066	568710	0	0
2024-08-25 12:15:47			0	37257	0	0	0	29688	28230	156798	27412	1078773	46785	111045	0	0	8065	569026	0	0
2024-08-25 12:16:47			0	37269	0	0	0	29693	28250	156730	27147	1078719	46787	111047	0	0	8066	568486	0	0
2024-08-25 12:17:47			0	37264	0	0	0	29680	28240	156722	27020	1078764	46787	111042	0	0	8066	568716	0	0
2024-08-25 12:18:47			0	37271	0	0	0	29696	28260	156730	26710	1078827	46799	111048	0	0	8066	568374	0	0
2024-08-25 12:19:47			0	37271	0	0	0	29711	28270	156630	26892	1078863	46777	111054	0	0	8066	568341	0	0
2024-08-25 12:20:47			0	37286	0	0	0	29716	28270	156682	27133	1078863	46789	111056	0	0	8067	567748	0	0
2024-08-25 12:21:47			0	37280	0	0	0	29740	28270	156702	26925	1078917	46789	111065	0	0	8066	567985	0	0
2024-08-25 12:22:47			0	37301	0	0	0	29748	28280	156770	27329	1078963	46790	111068	0	0	8067	567123	0	0
2024-08-25 12:23:47			0	37308	0	0	0	29763	28300	156682	27111	1079053	46791	111074	0	0	8067	566782	0	0
2024-08-25 12:24:47			0	37312	0	0	0	29779	28300	156670	27114	1079170	46803	111080	0	0	8067	566624	0	0
2024-08-25 12:25:47			0	37294	0	0	0	29784	28310	156542	27190	1079233	46815	111082	0	0	8066	567301	0	0
2024-08-25 12:26:47			0	37318	0	0	0	29784	28330	156574	27251	1079251	46806	111082	0	0	8068	566289	0	0
2024-08-25 12:27:47			0	37310	0	0	0	29786	28350	156566	27090	1079278	46808	111083	0	0	8067	566539	0	0
2024-08-25 12:28:47			0	37328	0	0	0	29784	28350	156571	26890	1079386	46808	111082	0	0	8068	565829	0	0
2024-08-25 12:29:47			0	37332	0	0	0	29805	28360	156511	27246	1079332	46809	111090	0	0	8068	565639	0	0
2024-08-25 12:30:47			0	37336	0	0	0	29805	28360	156455	27199	1079377	46797	111090	0	0	8068	565482	0	0
2024-08-25 12:31:47			0	37334	0	0	0	29818	28370	156435	26811	1079476	46799	111095	0	0	8068	565528	0	0
2024-08-25 12:32:47			0	37344	0	0	0	29823	28370	156439	27180	1079476	46799	111097	0	0	8069	565134	0	0
2024-08-25 12:33:47			0	37350	0	0	0	29828	28380	156431	26837	1079503	46811	111099	0	0	8069	564865	0	0
2024-08-25 12:34:47			0	37354	0	0	0	29903	28390	156455	27076	1079593	46823	111128	0	0	8068	564675	0	0
2024-08-25 12:35:47			0	37363	0	0	0	29825	28400	156343	27178	1079602	46813	111098	0	0	8070	564288	0	0
2024-08-25 12:36:47			0	37406	0	0	0	29766	28410	156167	27131	1079540	46802	111075	0	0	8073	562566	0	0
2024-08-25 12:37:47			0	37456	0	0	0	29786	28410	155939	27303	1079513	46791	111083	0	0	8076	560606	0	0
2024-08-25 12:38:47			0	37469	0	0	0	29818	28410	155867	26811	1079495	46803	111095	0	0	8076	560097	0	0
2024-08-25 12:39:47			0	37475	0	0	0	29823	28410	155831	27208	1079540	46780	111097	0	0	8076	559862	0	0
2024-08-25 12:40:47			0	37487	0	0	0	29849	28400	155811	27066	1079585	46802	111107	0	0	8077	559425	0	0
2024-08-25 12:41:47			0	37478	0	0	0	29862	28410	155771	27197	1079630	46791	111112	0	0	8076	559745	0	0
2024-08-25 12:42:47			0	37472	0	0	0	29864	28420	155867	27258	1079693	46815	111113	0	0	8076	559947	0	0
2024-08-25 12:43:47			0	37457	0	0	0	29854	28440	155859	27303	1079684	46807	111109	0	0	8075	560470	0	0
2024-08-25 12:44:47			0	37451	0	0	0	29841	28430	155847	27095	1079666	46805	111104	0	0	8075	560737	0	0
2024-08-25 12:45:47			0	37459	0	0	0	29859	28440	155771	27109	1079675	46794	111111	0	0	8075	560391	0	0
2024-08-25 12:46:47			0	37453	0	0	0	29854	28440	155839	27039	1079684	46818	111109	0	0	8075	560626	0	0
2024-08-25 12:47:47			0	37454	0	0	0	29864	28440	155759	27072	1079765	46818	111113	0	0	8075	560587	0	0
2024-08-25 12:48:47			0	37474	0	0	0	29846	28450	155819	27012	1079828	46795	111106	0	0	8076	559772	0	0
2024-08-25 12:49:47			0	37482	0	0	0	29838	28460	155727	26927	1079766	46819	111103	0	0	8077	559427	0	0
2024-08-25 12:50:47			0	37485	0	0	0	29807	28440	155779	27199	1079675	46794	111091	0	0	8077	559374	0	0
2024-08-25 12:51:47			0	37480	0	0	0	29823	28430	155735	27086	1079693	46793	111097	0	0	8077	559602	0	0
2024-08-25 12:52:47			0	37476	0	0	0	29833	28450	155727	27215	1079730	46807	111101	0	0	8076	559694	0	0
2024-08-25 12:53:47			0	37481	0	0	0	29841	28440	155779	27116	1079658	46807	111104	0	0	8077	559530	0	0
2024-08-25 12:54:47			0	37485	0	0	0	29851	28440	155683	27007	1079702	46794	111108	0	0	8077	559374	0	0
2024-08-25 12:55:47			0	37463	0	0	0	29851	28450	155699	27180	1079694	46807	111108	0	0	8075	560202	0	0
2024-08-25 12:56:47			0	37485	0	0	0	29854	28440	155763	27081	1079684	46818	111109	0	0	8077	559374	0	0
2024-08-25 12:57:47			0	37498	0	0	0	29867	28450	155675	27274	1079721	46807	111114	0	0	8077	558834	0	0
2024-08-25 12:58:47			0	37499	0	0	0	29898	28460	155747	27180	1079846	46819	111126	0	0	8077	558762	0	0
2024-08-25 12:59:47			0	37483	0	0	0	29883	28450	155699	27242	1079810	46807	111120	0	0	8076	559420	0	0
2024-08-25 13:00:47			0	37489	0	0	0	29893	28470	155667	27157	1079892	46809	111124	0	0	8076	559121	0	0
2024-08-25 13:01:47			0	37483	0	0	0	29901	28470	155591	27481	1079928	46809	111127	0	0	8076	559355	0	0
2024-08-25 13:02:47			0	37482	0	0	0	29911	28470	155767	27126	1079999	46820	111131	0	0	8076	559394	0	0
2024-08-25 13:03:47			0	37499	0	0	0	29919	28480	155691	27218	1079946	46822	111134	0	0	8076	558698	0	0
2024-08-25 13:04:47			0	37498	0	0	0	29914	28480	155787	27306	1080027	46811	111132	0	0	8076	558737	0	0
2024-08-25 13:05:47			0	37495	0	0	0	29916	28480	155859	27066	1080027	46811	111133	0	0	8076	558854	0	0
2024-08-25 13:06:47			0	37479	0	0	0	29914	28490	155735	27280	1080009	46811	111132	0	0	8075	559447	0	0
2024-08-25 13:07:47			0	37500	0	0	0	29896	28480	155807	27270	1080027	46822	111125	0	0	8077	558658	0	0
2024-08-25 13:08:47			0	37495	0	0	0	29906	28490	155723	27284	1080018	46799	111129	0	0	8077	558822	0	0
2024-08-25 13:09:47			0	37484	0	0	0	29922	28500	155859	27071	1080027	46812	111135	0	0	8076	559219	0	0
2024-08-25 13:10:47			0	37494	0	0	0	29937	28500	155807	27317	1080108	46812	111141	0	0	8076	558828	0	0
2024-08-25 13:11:47			0	37497	0	0	0	29932	28500	155783	27284	1080090	46813	111139	0	0	8076	558711	0	0
2024-08-25 13:12:47			0	37488	0	0	0	29942	28510	155867	27017	1080153	46825	111143	0	0	8076	559030	0	0
2024-08-25 13:13:47			0	37507	0	0	0	29955	28510	155783	27199	1080207	46825	111148	0	0	8076	558288	0	0
2024-08-25 13:14:47			0	37493	0	0	0	29950	28520	155739	26762	1080252	46814	111146	0	0	8076	558803	0	0
2024-08-25 13:15:47			0	37510	0	0	0	29945	28520	155723	27150	1080198	46814	111144	0	0	8077	558139	0	0
2024-08-25 13:16:47			0	37517	0	0	0	29937	28520	155703	27166	1080252	46825	111141	0	0	8077	557866	0	0
2024-08-25 13:17:47			0	37512	0	0	0	29937	28530	155619	27029	1080306	46816	111141	0	0	8077	558028	0	0
2024-08-25 13:18:47			0	37490	0	0	0	29927	28520	155671	27043	1080261	46826	111137	0	0	8076	558920	0	0
2024-08-25 13:19:47			0	37519	0	0	0	29919	28520	155599	26816	1080234	46803	111134	0	0	8078	557787	0	0
2024-08-25 13:20:47			0	37519	0	0	0	29919	28520	155623	27161	1080234	46815	111134	0	0	8078	557787	0	0
2024-08-25 13:21:47			0	37531	0	0	0	29924	28530	155555	26965	1080297	46804	111136	0	0	8078	557287	0	0
2024-08-25 13:22:47			0	37539	0	0	0	29914	28530	155603	26965	1080199	46816	111132	0	0	8079	556975	0	0
2024-08-25 13:23:47			0	37571	0	0	0	29924	28520	155595	26946	1080207	46803	111136	0	0	8081	555761	0	0
2024-08-25 13:24:47			0	37575	0	0	0	29922	28530	155391	27029	1080216	46804	111135	0	0	8081	555573	0	0
2024-08-25 13:25:47			0	37586	0	0	0	29929	28540	155351	27086	1080208	46804	111138	0	0	8082	555113	0	0
2024-08-25 13:26:47			0	37593	0	0	0	29932	28520	155239	26944	1080261	46826	111139	0	0	8082	554905	0	0
2024-08-25 13:27:47			0	37604	0	0	0	29937	28520	155307	27242	1080261	46803	111141	0	0	8082	554477	0	0
2024-08-25 13:28:47			0	37609	0	0	0	29953	28530	155179	26987	1080270	46816	111147	0	0	8082	554250	0	0
2024-08-25 13:29:47			0	37621	0	0	0	29953	28530	155195	27244	1080306	46816	111147	0	0	8083	553784	0	0
2024-08-25 13:30:47			0	37608	0	0	0	29963	28530	155219	26994	1080360	46827	111151	0	0	8082	554289	0	0
2024-08-25 13:31:47			0	37625	0	0	0	29961	28550	155183	27059	1080388	46829	111150	0	0	8083	553565	0	0
2024-08-25 13:32:47			0	37618	0	0	0	29968	28550	155095	27168	1080388	46818	111153	0	0	8083	553837	0	0
2024-08-25 13:33:47			0	37622	0	0	0	30010	28560	155063	27159	1080460	46806	111169	0	0	8082	553649	0	0
2024-08-25 13:34:47			0	37634	0	0	0	29994	28560	154971	27057	1080577	46841	111163	0	0	8083	553184	0	0
2024-08-25 13:35:47			0	37641	0	0	0	29994	28560	155039	27100	1080514	46829	111163	0	0	8084	552912	0	0
2024-08-25 13:36:47			0	37648	0	0	0	30005	28570	155043	27074	1080586	46820	111167	0	0	8084	552608	0	0
2024-08-25 13:37:47			0	37655	0	0	0	30007	28580	154915	27157	1080550	46832	111168	0	0	8084	552305	0	0
2024-08-25 13:38:47			0	37665	0	0	0	30023	28570	154911	27005	1080541	46820	111174	0	0	8085	551949	0	0
2024-08-25 13:39:47			0	37672	0	0	0	30025	28590	154875	27104	1080622	46833	111175	0	0	8085	551614	0	0
2024-08-25 13:40:47			0	37682	0	0	0	29999	28580	154895	27104	1080640	46821	111165	0	0	8086	551259	0	0
2024-08-25 13:41:47			0	37676	0	0	0	29984	28580	154783	27218	1080640	46821	111159	0	0	8086	551491	0	0
2024-08-25 13:42:47			0	37680	0	0	0	29973	28580	154875	27178	1080613	46809	111155	0	0	8086	551336	0	0
2024-08-25 13:43:47			0	37668	0	0	0	29994	28590	154811	27438	1080595	46810	111163	0	0	8085	551769	0	0
2024-08-25 13:44:47			0	37684	0	0	0	29992	28590	154795	27417	1080568	46799	111162	0	0	8086	551150	0	0
2024-08-25 13:45:47			0	37693	0	0	0	29979	28590	154807	27171	1080595	46822	111157	0	0	8087	550801	0	0
2024-08-25 13:46:47			0	37699	0	0	0	29976	28590	154843	27088	1080523	46811	111156	0	0	8088	550569	0	0
2024-08-25 13:47:47			0	37695	0	0	0	29955	28580	154871	27218	1080478	46821	111148	0	0	8088	550755	0	0
2024-08-25 13:48:47			0	37700	0	0	0	29994	28580	154711	27067	1080577	46809	111163	0	0	8087	550562	0	0
2024-08-25 13:49:47			0	37699	0	0	0	29955	28580	154735	27211	1080577	46809	111148	0	0	8088	550601	0	0
2024-08-25 13:50:47			0	37732	0	0	0	29961	28580	154647	26837	1080532	46821	111150	0	0	8090	549325	0	0
2024-08-25 13:51:47			0	37725	0	0	0	29973	28590	154679	27159	1080568	46810	111155	0	0	8089	549564	0	0
2024-08-25 13:52:47			0	37719	0	0	0	29966	28580	154687	27270	1080559	46821	111152	0	0	8089	549827	0	0
2024-08-25 13:53:47			0	37722	0	0	0	29963	28580	154539	26866	1080496	46809	111151	0	0	8089	549711	0	0
2024-08-25 13:54:47			0	37737	0	0	0	29971	28570	154651	27041	1080514	46808	111154	0	0	8090	549163	0	0
2024-08-25 13:55:47			0	37761	0	0	0	29979	28580	154523	27027	1080577	46821	111157	0	0	8091	548205	0	0
2024-08-25 13:56:47			0	37758	0	0	0	29979	28580	154499	27222	1080469	46832	111157	0	0	8091	548321	0	0
2024-08-25 13:57:47			0	37751	0	0	0	29966	28570	154591	27029	1080505	46820	111152	0	0	8091	548623	0	0
2024-08-25 13:58:47			0	37776	0	0	0	29986	28580	154499	27131	1080577	46809	111160	0	0	8092	547627	0	0
2024-08-25 13:59:47			0	37768	0	0	0	30007	28580	154435	26934	1080577	46832	111168	0	0	8091	547935	0	0
2024-08-25 14:00:47			0	37776	0	0	0	29999	28580	154367	27293	1080604	46843	111165	0	0	8092	547627	0	0
2024-08-25 14:01:47			0	37810	0	0	0	29994	28590	154267	26987	1080631	46833	111163	0	0	8094	546285	0	0
2024-08-25 14:02:47			0	37810	0	0	0	30020	28600	154259	27137	1080613	46823	111173	0	0	8093	546253	0	0
2024-08-25 14:03:47			0	37813	0	0	0	30038	28600	154231	27216	1080667	46833	111180	0	0	8093	546138	0	0
2024-08-25 14:04:47			0	37848	0	0	0	30025	28600	154167	26984	1080775	46833	111175	0	0	8095	544792	0	0
2024-08-25 14:05:47			0	37827	0	0	0	30007	28610	154247	27135	1080766	46846	111168	0	0	8095	545568	0	0
2024-08-25 14:06:47			0	37855	0	0	0	30002	28620	154143	26880	1080811	46835	111166	0	0	8096	544460	0	0
2024-08-25 14:07:47			0	37847	0	0	0	30007	28610	154079	26987	1080721	46825	111168	0	0	8096	544799	0	0
2024-08-25 14:08:47			0	37865	0	0	0	30018	28610	154099	26864	1080802	46825	111172	0	0	8097	544107	0	0
2024-08-25 14:09:47			0	37876	0	0	0	30018	28610	153995	26994	1080829	46825	111172	0	0	8097	543685	0	0
2024-08-25 14:10:47			0	37869	0	0	0	30010	28630	154055	26965	1080803	46814	111169	0	0	8097	543891	0	0
2024-08-25 14:11:47			0	37871	0	0	0	30012	28630	153991	26904	1080883	46826	111170	0	0	8097	543814	0	0
2024-08-25 14:12:47			0	37875	0	0	0	30015	28640	153955	27085	1080875	46837	111171	0	0	8097	543629	0	0
2024-08-25 14:13:47			0	37880	0	0	0	30012	28630	154067	27107	1080812	46815	111170	0	0	8098	543468	0	0
2024-08-25 14:14:47			0	37891	0	0	0	30005	28640	154023	26911	1080794	46827	111167	0	0	8098	543015	0	0
2024-08-25 14:15:47			0	37885	0	0	0	30012	28620	154007	27182	1080740	46825	111170	0	0	8098	543308	0	0
2024-08-25 14:16:47			0	37878	0	0	0	30012	28640	153999	27126	1080767	46837	111170	0	0	8098	543514	0	0
2024-08-25 14:17:47			0	37868	0	0	0	30023	28630	154035	27124	1080839	46827	111174	0	0	8097	543929	0	0
2024-08-25 14:18:47			0	37866	0	0	0	30088	28630	154027	26970	1080946	46837	111199	0	0	8096	544006	0	0
2024-08-25 14:19:47			0	37878	0	0	0	30116	28650	154051	27010	1081145	46873	111210	0	0	8096	543482	0	0
2024-08-25 14:20:47			0	37869	0	0	0	30080	28680	154095	26998	1081244	46854	111196	0	0	8096	543733	0	0
2024-08-25 14:21:47			0	37885	0	0	0	30059	28680	153895	26981	1081163	46854	111188	0	0	8097	543120	0	0
2024-08-25 14:22:47			0	37877	0	0	0	30049	28690	153895	27093	1081074	46843	111184	0	0	8097	543395	0	0
2024-08-25 14:23:47			0	37888	0	0	0	30070	28700	153783	27312	1081191	46843	111192	0	0	8097	542942	0	0
2024-08-25 14:24:47			0	37915	0	0	0	30075	28700	153899	26961	1081218	46821	111194	0	0	8099	541907	0	0
2024-08-25 14:25:47			0	37910	0	0	0	30054	28700	153915	27374	1081227	46833	111186	0	0	8099	542099	0	0
2024-08-25 14:26:47			0	37905	0	0	0	30046	28710	153791	27119	1081164	46823	111183	0	0	8099	542259	0	0
2024-08-25 14:27:47			0	37915	0	0	0	30046	28700	153763	27282	1081164	46799	111183	0	0	8099	541907	0	0
2024-08-25 14:28:47			0	37898	0	0	0	30057	28710	153767	27038	1081209	46833	111187	0	0	8098	542527	0	0
2024-08-25 14:29:47			0	37908	0	0	0	30041	28710	153727	27059	1081191	46823	111181	0	0	8099	542144	0	0
2024-08-25 14:30:47			0	37911	0	0	0	30041	28700	153759	26731	1081119	46811	111181	0	0	8099	542060	0	0
2024-08-25 14:31:47			0	37927	0	0	0	30036	28700	153783	27177	1081092	46811	111179	0	0	8100	541448	0	0
2024-08-25 14:32:47			0	37924	0	0	0	30046	28700	153691	27060	1081083	46821	111183	0	0	8100	541562	0	0
2024-08-25 14:33:47			0	37928	0	0	0	30046	28700	153735	27069	1081245	46833	111183	0	0	8100	541409	0	0
2024-08-25 14:34:47			0	37917	0	0	0	30057	28700	153775	27055	1081173	46833	111187	0	0	8099	541830	0	0
2024-08-25 14:35:47			0	37934	0	0	0	30072	28700	153779	27258	1081227	46811	111193	0	0	8100	541180	0	0
2024-08-25 14:36:47			0	37934	0	0	0	30096	28700	153663	26956	1081191	46833	111202	0	0	8100	541180	0	0
2024-08-25 14:37:47			0	37918	0	0	0	30109	28700	153551	26894	1081245	46821	111207	0	0	8098	541792	0	0
2024-08-25 14:38:47			0	37944	0	0	0	30119	28710	153715	27294	1081263	46844	111211	0	0	8100	540766	0	0
2024-08-25 14:39:47			0	37942	0	0	0	30129	28720	153611	27126	1081308	46845	111215	0	0	8100	540811	0	0
2024-08-25 14:40:47			0	37945	0	0	0	30116	28720	153639	27168	1081398	46835	111210	0	0	8100	540696	0	0
2024-08-25 14:41:47			0	37939	0	0	0	30142	28730	153591	27331	1081353	46835	111220	0	0	8099	540895	0	0
2024-08-25 14:42:47			0	37962	0	0	0	30189	28740	153707	27150	1081506	46836	111238	0	0	8100	539984	0	0
2024-08-25 14:43:47			0	37958	0	0	0	30189	28750	153671	26984	1081605	46848	111238	0	0	8100	540106	0	0
2024-08-25 14:44:47			0	37971	0	0	0	30231	28760	153643	27026	1081686	46862	111254	0	0	8100	539578	0	0
2024-08-25 14:45:47			0	37990	0	0	0	30194	28780	153447	27275	1081768	46864	111240	0	0	8102	538790	0	0
2024-08-25 14:46:47			0	38010	0	0	0	30186	28790	153359	27041	1081732	46842	111237	0	0	8103	537997	0	0
2024-08-25 14:47:47			0	38010	0	0	0	30184	28780	153339	26944	1081714	46830	111236	0	0	8103	538028	0	0
2024-08-25 14:48:47			0	38021	0	0	0	30181	28790	153188	27225	1081732	46831	111235	0	0	8104	537577	0	0
2024-08-25 14:49:47			0	38036	0	0	0	30186	28790	153212	27059	1081732	46831	111237	0	0	8104	537006	0	0
2024-08-25 14:50:47			0	38032	0	0	0	30192	28790	153196	27105	1081705	46853	111239	0	0	8104	537158	0	0
2024-08-25 14:51:47			0	38080	0	0	0	30184	28800	153240	27178	1081723	46832	111236	0	0	8107	535302	0	0
2024-08-25 14:52:47			0	38047	0	0	0	30192	28780	153100	26916	1081669	46852	111239	0	0	8105	536619	0	0
2024-08-25 14:53:47			0	38071	0	0	0	30186	28790	153028	27019	1081741	46831	111237	0	0	8106	535675	0	0
2024-08-25 14:54:47			0	38056	0	0	0	30174	28790	153160	26989	1081678	46831	111232	0	0	8106	536245	0	0
2024-08-25 14:55:47			0	38069	0	0	0	30163	28790	152912	27118	1081660	46820	111228	0	0	8107	535751	0	0
2024-08-25 14:56:47			0	38069	0	0	0	30194	28790	153024	27041	1081714	46820	111240	0	0	8106	535751	0	0
2024-08-25 14:57:47			0	38062	0	0	0	30197	28780	153116	26939	1081696	46830	111241	0	0	8106	536048	0	0
2024-08-25 14:58:47			0	38077	0	0	0	30194	28800	153024	27072	1081777	46843	111240	0	0	8107	535416	0	0
2024-08-25 14:59:47			0	38065	0	0	0	30181	28790	153108	26752	1081768	46842	111235	0	0	8106	535903	0	0
2024-08-25 15:00:47			0	38068	0	0	0	30155	28810	153140	27307	1081805	46833	111225	0	0	8107	535727	0	0
2024-08-25 15:01:47			0	38075	0	0	0	30145	28810	153148	27140	1081715	46822	111221	0	0	8107	535461	0	0
2024-08-25 15:02:47			0	38069	0	0	0	30145	28800	153092	26845	1081561	46832	111221	0	0	8107	535720	0	0
2024-08-25 15:03:47			0	38062	0	0	0	30171	28800	153004	26908	1081642	46821	111231	0	0	8106	535986	0	0
2024-08-25 15:04:47			0	38067	0	0	0	30246	28810	153072	27029	1081822	46844	111260	0	0	8105	535765	0	0
2024-08-25 15:05:47			0	38061	0	0	0	30241	28800	153116	26821	1081840	46843	111258	0	0	8105	536024	0	0
2024-08-25 15:06:47			0	38046	0	0	0	30267	28820	153132	26922	1081948	46868	111268	0	0	8104	536532	0	0
2024-08-25 15:07:47			0	38062	0	0	0	30293	28820	153216	26845	1082011	46869	111278	0	0	8104	535924	0	0
2024-08-25 15:08:47			0	38052	0	0	0	30296	28840	153104	27022	1082039	46858	111279	0	0	8104	536242	0	0
2024-08-25 15:09:47			0	38050	0	0	0	30264	28840	153128	27026	1082048	46859	111267	0	0	8104	536318	0	0
2024-08-25 15:10:47			0	38075	0	0	0	30290	28850	153056	26849	1082093	46871	111277	0	0	8105	535337	0	0
2024-08-25 15:11:47			0	38084	0	0	0	30306	28850	153036	27053	1082120	46848	111283	0	0	8105	534995	0	0
2024-08-25 15:12:47			0	38085	0	0	0	30327	28860	153044	26896	1082210	46849	111291	0	0	8105	534926	0	0
2024-08-25 15:13:47			0	38069	0	0	0	30316	28870	153052	26620	1082211	46862	111287	0	0	8104	535503	0	0
2024-08-25 15:14:47			0	38075	0	0	0	30322	28870	152988	26972	1082265	46862	111289	0	0	8105	535275	0	0
2024-08-25 15:15:47			0	38072	0	0	0	30358	28880	153020	26913	1082355	46851	111303	0	0	8104	535358	0	0
2024-08-25 15:16:47			0	38073	0	0	0	30366	28890	152996	26835	1082346	46853	111306	0	0	8104	535289	0	0
2024-08-25 15:17:47			0	38068	0	0	0	30376	28900	153000	26844	1082445	46864	111310	0	0	8103	535447	0	0
2024-08-25 15:18:47			0	38097	0	0	0	30366	28920	152944	26923	1082455	46855	111306	0	0	8105	534285	0	0
2024-08-25 15:19:47			0	38104	0	0	0	30371	28920	152840	26901	1082482	46855	111308	0	0	8106	534019	0	0
2024-08-25 15:20:47			0	38113	0	0	0	30399	28920	152752	26861	1082545	46867	111319	0	0	8106	533678	0	0
2024-08-25 15:21:47			0	38135	0	0	0	30373	28930	152728	26889	1082581	46868	111309	0	0	8108	532813	0	0
2024-08-25 15:22:47			0	38145	0	0	0	30366	28950	152736	26972	1082617	46859	111306	0	0	8108	532373	0	0
2024-08-25 15:23:47			0	38155	0	0	0	30397	28950	152624	26805	1082572	46860	111318	0	0	8108	531995	0	0
2024-08-25 15:24:47			0	38171	0	0	0	30389	28950	152496	26682	1082617	46859	111315	0	0	8109	531390	0	0
2024-08-25 15:25:47			0	38185	0	0	0	30358	28960	152488	26720	1082635	46837	111303	0	0	8111	530830	0	0
2024-08-25 15:26:47			0	38182	0	0	0	30363	28960	152472	26715	1082527	46860	111305	0	0	8111	530943	0	0
2024-08-25 15:27:47			0	38215	0	0	0	30355	28950	152452	26949	1082572	46849	111302	0	0	8113	529728	0	0
2024-08-25 15:28:47			0	38201	0	0	0	30342	28970	152424	26932	1082563	46849	111297	0	0	8112	530195	0	0
2024-08-25 15:29:47			0	38182	0	0	0	30340	28960	152388	27234	1082500	46849	111296	0	0	8111	530943	0	0
2024-08-25 15:30:47			0	38191	0	0	0	30345	28950	152428	27265	1082545	46849	111298	0	0	8111	530634	0	0
2024-08-25 15:31:47			0	38194	0	0	0	30355	28960	152468	26887	1082581	46849	111302	0	0	8111	530490	0	0
2024-08-25 15:32:47			0	38190	0	0	0	30329	28960	152332	27053	1082635	46860	111292	0	0	8112	530641	0	0
2024-08-25 15:33:47			0	38188	0	0	0	30342	28960	152476	26944	1082527	46849	111297	0	0	8111	530716	0	0
2024-08-25 15:34:47			0	38201	0	0	0	30340	28950	152424	26892	1082626	46837	111296	0	0	8112	530256	0	0
2024-08-25 15:35:47			0	38195	0	0	0	30361	28970	152448	26941	1082627	46850	111304	0	0	8111	530421	0	0
2024-08-25 15:36:47			0	38151	0	0	0	30381	28960	152548	26743	1082635	46871	111312	0	0	8108	532115	0	0
2024-08-25 15:37:47			0	38177	0	0	0	30386	28970	152512	26752	1082681	46861	111314	0	0	8110	531101	0	0
2024-08-25 15:38:47			0	38181	0	0	0	30392	28980	152512	27033	1082717	46862	111316	0	0	8110	530919	0	0
2024-08-25 15:39:47			0	38193	0	0	0	30412	28980	152468	26922	1082771	46862	111324	0	0	8110	530466	0	0
2024-08-25 15:40:47			0	38181	0	0	0	30376	28980	152424	26941	1082753	46873	111310	0	0	8110	530919	0	0
2024-08-25 15:41:47			0	38173	0	0	0	30412	28990	152412	27168	1082771	46874	111324	0	0	8109	531191	0	0
2024-08-25 15:42:47			0	38207	0	0	0	30425	29000	152448	26842	1082807	46864	111329	0	0	8111	529876	0	0
2024-08-25 15:43:47			0	38193	0	0	0	30441	29010	152348	27052	1082933	46875	111335	0	0	8110	530374	0	0
2024-08-25 15:44:47			0	38202	0	0	0	30399	29020	152416	26916	1082924	46876	111319	0	0	8111	530003	0	0
2024-08-25 15:45:47			0	38199	0	0	0	30407	29010	152340	26847	1082906	46875	111322	0	0	8111	530147	0	0
2024-08-25 15:46:47			0	38227	0	0	0	30446	29020	152264	26804	1082897	46876	111337	0	0	8112	529060	0	0
2024-08-25 15:47:47			0	38223	0	0	0	30509	29020	152288	26913	1083032	46876	111361	0	0	8111	529211	0	0
2024-08-25 15:48:47			0	38230	0	0	0	30488	29030	152232	27024	1083114	46877	111353	0	0	8111	528917	0	0
2024-08-25 15:49:47			0	38264	0	0	0	30516	29050	152144	26802	1083141	46879	111364	0	0	8113	527575	0	0
2024-08-25 15:50:47			0	38261	0	0	0	30532	29060	152148	27083	1083249	46881	111370	0	0	8113	527657	0	0
2024-08-25 15:51:47			0	38276	0	0	0	30511	29060	152104	27111	1083276	46893	111362	0	0	8114	527093	0	0
2024-08-25 15:52:47			0	38307	0	0	0	30503	29070	151984	26960	1083312	46881	111359	0	0	8116	525898	0	0
2024-08-25 15:53:47			0	38343	0	0	0	30503	29080	151816	27114	1083367	46873	111359	0	0	8118	524517	0	0
2024-08-25 15:54:47			0	38340	0	0	0	30493	29080	151756	27003	1083313	46873	111355	0	0	8118	524629	0	0
2024-08-25 15:55:47			0	38357	0	0	0	30462	29090	151804	26996	1083304	46874	111343	0	0	8119	523962	0	0
2024-08-25 15:56:47			0	38355	0	0	0	30446	29080	151704	26785	1083259	46850	111337	0	0	8120	524067	0	0
2024-08-25 15:57:47			0	38364	0	0	0	30459	29080	151776	26939	1083205	46850	111342	0	0	8120	523730	0	0
2024-08-25 15:58:47			0	38342	0	0	0	30470	29080	151724	27041	1083142	46861	111346	0	0	8118	524554	0	0
2024-08-25 15:59:47			0	38352	0	0	0	30477	29090	151748	27223	1083268	46851	111349	0	0	8119	524149	0	0
2024-08-25 16:00:47			0	38325	0	0	0	30475	29080	151764	27039	1083367	46873	111348	0	0	8117	525192	0	0
2024-08-25 16:01:47			0	38325	0	0	0	30446	29100	151740	27138	1083313	46874	111337	0	0	8118	525131	0	0
2024-08-25 16:02:47			0	38322	0	0	0	30488	29090	151876	27100	1083349	46874	111353	0	0	8117	525274	0	0
2024-08-25 16:03:47			0	38329	0	0	0	30506	29100	151872	27046	1083367	46874	111360	0	0	8117	524981	0	0
2024-08-25 16:04:47			0	38309	0	0	0	30514	29100	151932	27435	1083367	46863	111363	0	0	8116	525731	0	0
2024-08-25 16:05:47			0	38303	0	0	0	30519	29110	151920	27313	1083439	46875	111365	0	0	8116	525926	0	0
2024-08-25 16:06:47			0	38305	0	0	0	30511	29100	152012	27007	1083430	46897	111362	0	0	8116	525881	0	0
2024-08-25 16:07:47			0	38311	0	0	0	30529	29120	151988	27093	1083484	46865	111369	0	0	8116	525595	0	0
2024-08-25 16:08:47			0	38306	0	0	0	30563	29120	151912	27133	1083538	46886	111382	0	0	8115	525783	0	0
2024-08-25 16:09:47			0	38319	0	0	0	30618	29130	151892	27183	1083664	46888	111403	0	0	8115	525264	0	0
2024-08-25 16:10:47			0	38358	0	0	0	30641	29140	151684	27189	1083737	46911	111412	0	0	8117	523772	0	0
2024-08-25 16:11:47			0	38447	0	0	0	30631	29150	151404	27187	1083845	46891	111408	0	0	8122	520415	0	0
2024-08-25 16:12:47			0	38477	0	0	0	30628	29170	151304	27144	1083954	46915	111407	0	0	8124	519237	0	0
2024-08-25 16:13:47			0	38494	0	0	0	30607	29180	151216	27069	1083891	46882	111399	0	0	8125	518574	0	0
2024-08-25 16:14:47			0	38524	0	0	0	30594	29180	151088	27291	1083954	46893	111394	0	0	8127	517458	0	0
2024-08-25 16:15:47			0	38519	0	0	0	30589	29190	150976	27041	1083882	46883	111392	0	0	8127	517614	0	0
2024-08-25 16:16:47			0	38551	0	0	0	30599	29180	150948	27003	1083891	46872	111396	0	0	8129	516455	0	0
2024-08-25 16:17:47			0	38527	0	0	0	30612	29200	150888	26764	1083990	46874	111401	0	0	8127	517286	0	0
2024-08-25 16:18:47			0	38525	0	0	0	30612	29190	150996	27088	1083918	46895	111401	0	0	8127	517391	0	0
2024-08-25 16:19:47			0	38531	0	0	0	30618	29200	150936	26734	1083981	46884	111403	0	0	8127	517138	0	0
2024-08-25 16:20:47			0	38525	0	0	0	30625	29190	150992	26706	1083972	46874	111406	0	0	8127	517391	0	0
2024-08-25 16:21:47			0	38532	0	0	0	30628	29210	151004	27067	1083945	46885	111407	0	0	8127	517070	0	0
2024-08-25 16:22:47			0	38498	0	0	0	30664	29200	151020	27055	1084017	46895	111421	0	0	8125	518365	0	0
2024-08-25 16:23:47			0	38510	0	0	0	30649	29210	151044	27055	1084080	46885	111415	0	0	8126	517888	0	0
2024-08-25 16:24:47			0	38536	0	0	0	30641	29220	151028	26857	1084072	46898	111412	0	0	8127	516892	0	0
2024-08-25 16:25:47			0	38556	0	0	0	30631	29220	150824	26925	1084081	46887	111408	0	0	8129	516149	0	0
2024-08-25 16:26:47			0	38568	0	0	0	30592	29210	150868	26835	1084035	46875	111393	0	0	8130	515734	0	0
2024-08-25 16:27:47			0	38570	0	0	0	30540	29220	150868	26986	1083910	46853	111373	0	0	8131	515630	0	0
2024-08-25 16:28:47			0	38567	0	0	0	30542	29200	150760	27260	1083828	46874	111374	0	0	8131	515801	0	0
2024-08-25 16:29:47			0	38575	0	0	0	30599	29200	150832	26977	1083792	46862	111396	0	0	8130	515504	0	0
2024-08-25 16:30:47			0	38541	0	0	0	30607	29190	150816	27130	1083864	46884	111399	0	0	8128	516796	0	0
2024-08-25 16:31:47			0	38558	0	0	0	30625	29190	150848	26849	1083918	46895	111406	0	0	8129	516165	0	0
2024-08-25 16:32:47			0	38547	0	0	0	30623	29200	150908	26837	1083954	46884	111405	0	0	8128	516543	0	0
2024-08-25 16:33:47			0	38517	0	0	0	30599	29190	150868	26949	1083918	46884	111396	0	0	8127	517688	0	0
2024-08-25 16:34:47			0	38528	0	0	0	30623	29200	150896	26816	1084008	46874	111405	0	0	8127	517249	0	0
2024-08-25 16:35:47			0	38524	0	0	0	30605	29210	150916	26743	1083891	46897	111398	0	0	8127	517368	0	0
2024-08-25 16:36:47			0	38518	0	0	0	30602	29200	150844	26899	1083963	46895	111397	0	0	8127	517621	0	0
2024-08-25 16:37:47			0	38532	0	0	0	30623	29200	150904	27043	1083963	46874	111405	0	0	8127	517100	0	0
2024-08-25 16:38:47			0	38532	0	0	0	30612	29210	150864	26757	1084080	46897	111401	0	0	8127	517070	0	0
2024-08-25 16:39:47			0	38515	0	0	0	30628	29210	150936	27175	1084062	46875	111407	0	0	8126	517702	0	0
2024-08-25 16:40:47			0	38512	0	0	0	30646	29210	150956	26911	1084026	46885	111414	0	0	8126	517814	0	0
2024-08-25 16:41:47			0	38521	0	0	0	30638	29220	151088	27076	1084072	46898	111411	0	0	8126	517449	0	0
2024-08-25 16:42:47			0	38514	0	0	0	30641	29220	150960	27102	1084099	46898	111412	0	0	8126	517709	0	0
2024-08-25 16:43:47			0	38510	0	0	0	30636	29210	150980	27196	1084089	46886	111410	0	0	8126	517888	0	0
2024-08-25 16:44:47			0	38516	0	0	0	30641	29230	150940	26609	1084126	46888	111412	0	0	8126	517605	0	0
2024-08-25 16:45:47			0	38529	0	0	0	30636	29230	151036	26989	1084144	46887	111410	0	0	8127	517122	0	0
2024-08-25 16:46:47			0	38512	0	0	0	30628	29230	150956	26946	1084144	46899	111407	0	0	8126	517754	0	0
2024-08-25 16:47:47			0	38522	0	0	0	30651	29230	151160	26741	1084090	46887	111416	0	0	8126	517382	0	0
2024-08-25 16:48:47			0	38508	0	0	0	30657	29230	151124	26996	1084171	46887	111418	0	0	8125	517902	0	0
2024-08-25 16:49:47			0	38509	0	0	0	30646	29240	151236	27010	1084216	46888	111414	0	0	8126	517835	0	0
2024-08-25 16:50:47			0	38521	0	0	0	30646	29250	151200	26840	1084126	46889	111414	0	0	8126	517359	0	0
2024-08-25 16:51:47			0	38505	0	0	0	30641	29240	151132	27029	1084144	46878	111412	0	0	8126	517984	0	0
2024-08-25 16:52:47			0	38507	0	0	0	30641	29250	151160	27050	1084180	46900	111412	0	0	8126	517879	0	0
2024-08-25 16:53:47			0	38489	0	0	0	30638	29240	151136	27140	1084135	46899	111411	0	0	8125	518579	0	0
2024-08-25 16:54:47			0	38467	0	0	0	30659	29240	151144	26991	1084162	46899	111419	0	0	8123	519398	0	0
2024-08-25 16:55:47			0	38471	0	0	0	30662	29230	151320	26897	1084180	46888	111420	0	0	8123	519279	0	0
2024-08-25 16:56:47			0	38470	0	0	0	30662	29250	151224	27293	1084216	46890	111420	0	0	8123	519256	0	0
2024-08-25 16:57:47			0	38499	0	0	0	30662	29250	151100	27071	1084234	46878	111420	0	0	8125	518177	0	0
2024-08-25 16:58:47			0	38525	0	0	0	30657	29250	151020	27130	1084234	46889	111418	0	0	8126	517210	0	0
2024-08-25 16:59:47			0	38489	0	0	0	30667	29240	151172	26845	1084279	46900	111422	0	0	8124	518579	0	0
2024-08-25 17:00:47			0	38512	0	0	0	30672	29270	151020	27211	1084235	46891	111424	0	0	8126	517633	0	0
2024-08-25 17:01:47			0	38501	0	0	0	30677	29250	151112	27457	1084378	46902	111426	0	0	8125	518103	0	0
2024-08-25 17:02:47			0	38509	0	0	0	30680	29260	151136	26944	1084279	46890	111427	0	0	8125	517775	0	0
2024-08-25 17:03:47			0	38523	0	0	0	30680	29250	151088	26955	1084324	46902	111427	0	0	8126	517285	0	0
2024-08-25 17:04:47			0	38524	0	0	0	30683	29270	150944	26791	1084379	46904	111428	0	0	8126	517188	0	0
2024-08-25 17:05:47			0	38540	0	0	0	30683	29280	150852	27088	1084388	46915	111428	0	0	8127	516563	0	0
2024-08-25 17:06:47			0	38541	0	0	0	30696	29280	150948	26804	1084415	46904	111433	0	0	8127	516526	0	0
2024-08-25 17:07:47			0	38544	0	0	0	30680	29290	150884	26987	1084415	46906	111427	0	0	8127	516385	0	0
2024-08-25 17:08:47			0	38539	0	0	0	30688	29290	150736	27202	1084406	46905	111430	0	0	8127	516570	0	0
2024-08-25 17:09:47			0	38553	0	0	0	30685	29270	150748	27078	1084352	46904	111429	0	0	8128	516111	0	0
2024-08-25 17:10:47			0	38552	0	0	0	30683	29290	150860	27048	1084379	46893	111428	0	0	8128	516088	0	0
2024-08-25 17:11:47			0	38529	0	0	0	30693	29270	150856	26847	1084433	46892	111432	0	0	8126	517002	0	0
2024-08-25 17:12:47			0	38521	0	0	0	30693	29290	150900	27007	1084460	46893	111432	0	0	8126	517239	0	0
2024-08-25 17:13:47			0	38517	0	0	0	30701	29280	150944	26745	1084424	46893	111435	0	0	8125	517417	0	0
2024-08-25 17:14:47			0	38541	0	0	0	30698	29290	150864	26930	1084496	46906	111434	0	0	8127	516496	0	0
2024-08-25 17:15:47			0	38557	0	0	0	30693	29280	150928	26857	1084415	46904	111432	0	0	8128	515932	0	0
2024-08-25 17:16:47			0	38549	0	0	0	30680	29290	150864	26944	1084406	46882	111427	0	0	8128	516199	0	0
2024-08-25 17:17:47			0	38573	0	0	0	30675	29300	150728	26824	1084424	46894	111425	0	0	8129	515279	0	0
2024-08-25 17:18:47			0	38570	0	0	0	30690	29300	150732	26840	1084424	46894	111431	0	0	8129	515390	0	0
2024-08-25 17:19:47			0	38570	0	0	0	30675	29290	150760	26972	1084379	46882	111425	0	0	8129	515420	0	0
2024-08-25 17:20:47			0	38562	0	0	0	30672	29290	150824	27066	1084352	46893	111424	0	0	8129	515717	0	0
2024-08-25 17:21:47			0	38530	0	0	0	30654	29300	150972	26535	1084397	46883	111417	0	0	8127	516874	0	0
2024-08-25 17:22:47			0	38483	0	0	0	30654	29290	151044	27031	1084361	46894	111417	0	0	8124	518652	0	0
2024-08-25 17:23:47			0	38464	0	0	0	30638	29290	151084	26974	1084325	46871	111411	0	0	8124	519359	0	0
2024-08-25 17:24:47			0	38424	0	0	0	30644	29270	151332	26805	1084235	46880	111413	0	0	8121	520910	0	0
2024-08-25 17:25:47			0	38408	0	0	0	30641	29270	151336	26781	1084235	46903	111412	0	0	8120	521508	0	0
2024-08-25 17:26:47			0	38395	0	0	0	30638	29260	151376	26998	1084252	46890	111411	0	0	8119	522024	0	0
2024-08-25 17:27:47			0	38399	0	0	0	30636	29270	151388	27178	1084261	46891	111410	0	0	8120	521844	0	0
2024-08-25 17:28:47			0	38397	0	0	0	30625	29250	151480	26654	1084216	46890	111406	0	0	8120	521979	0	0
2024-08-25 17:29:47			0	38388	0	0	0	30641	29260	151416	26904	1084252	46890	111412	0	0	8119	522285	0	0
2024-08-25 17:30:47			0	38392	0	0	0	30644	29250	151436	26736	1084234	46889	111413	0	0	8119	522166	0	0
2024-08-25 17:31:47			0	38377	0	0	0	30654	29250	151440	27144	1084216	46902	111417	0	0	8118	522727	0	0
2024-08-25 17:32:47			0	38371	0	0	0	30654	29250	151524	26595	1084216	46902	111417	0	0	8118	522951	0	0
2024-08-25 17:33:47			0	38376	0	0	0	30657	29250	151540	26438	1084216	46902	111418	0	0	8118	522764	0	0
2024-08-25 17:34:47			0	38359	0	0	0	30654	29250	151584	26897	1084324	46913	111417	0	0	8117	523400	0	0
2024-08-25 17:35:47			0	38353	0	0	0	30662	29250	151540	26750	1084216	46890	111420	0	0	8117	523625	0	0
2024-08-25 17:36:47			0	38353	0	0	0	30662	29270	151496	26767	1084288	46880	111420	0	0	8117	523564	0	0
2024-08-25 17:37:47			0	38346	0	0	0	30659	29250	151652	27064	1084243	46890	111419	0	0	8116	523887	0	0
2024-08-25 17:38:47			0	38379	0	0	0	30667	29260	151524	27062	1084252	46890	111422	0	0	8118	522622	0	0
2024-08-25 17:39:47			0	38384	0	0	0	30680	29260	151552	26694	1084333	46902	111427	0	0	8118	522435	0	0
2024-08-25 17:40:47			0	38393	0	0	0	30688	29270	151520	26769	1084315	46903	111430	0	0	8119	522068	0	0
2024-08-25 17:41:47			0	38385	0	0	0	30644	29250	151500	27062	1084216	46902	111413	0	0	8119	522428	0	0
2024-08-25 17:42:47			0	38379	0	0	0	30657	29270	151432	26915	1084288	46880	111418	0	0	8118	522591	0	0
2024-08-25 17:43:47			0	38401	0	0	0	30680	29260	151456	27249	1084279	46902	111427	0	0	8119	521799	0	0
2024-08-25 17:44:47			0	38410	0	0	0	30701	29250	151488	27093	1084351	46902	111435	0	0	8119	521494	0	0
2024-08-25 17:45:47			0	38394	0	0	0	30664	29270	151488	26800	1084352	46915	111421	0	0	8119	522031	0	0
2024-08-25 17:46:47			0	38400	0	0	0	30612	29260	151464	27036	1084279	46890	111401	0	0	8120	521837	0	0
2024-08-25 17:47:47			0	38433	0	0	0	30581	29250	151428	27123	1084189	46890	111389	0	0	8123	520635	0	0
2024-08-25 17:48:47			0	38395	0	0	0	30571	29240	151412	27161	1084144	46889	111385	0	0	8120	522084	0	0
2024-08-25 17:49:47			0	38350	0	0	0	30581	29240	151496	26689	1084081	46866	111389	0	0	8118	523767	0	0
2024-08-25 17:50:47			0	38340	0	0	0	30545	29230	151716	26968	1084009	46887	111375	0	0	8118	524172	0	0
2024-08-25 17:51:47			0	38317	0	0	0	30550	29220	151652	26831	1083946	46887	111377	0	0	8116	525065	0	0
2024-08-25 17:52:47			0	38294	0	0	0	30550	29210	151796	27026	1083918	46885	111377	0	0	8115	525958	0	0
2024-08-25 17:53:47			0	38256	0	0	0	30558	29200	151876	26949	1083900	46884	111380	0	0	8113	527417	0	0
2024-08-25 17:54:47			0	38262	0	0	0	30532	29200	151880	26880	1083909	46895	111370	0	0	8113	527191	0	0
2024-08-25 17:55:47			0	38255	0	0	0	30537	29190	151964	26939	1083864	46862	111372	0	0	8113	527485	0	0
2024-08-25 17:56:47			0	38249	0	0	0	30522	29180	152000	26705	1083738	46872	111366	0	0	8113	527741	0	0
2024-08-25 17:57:47			0	38244	0	0	0	30516	29180	152080	27083	1083702	46872	111364	0	0	8113	527929	0	0
2024-08-25 17:58:47			0	38241	0	0	0	30537	29170	152148	26601	1083693	46882	111372	0	0	8112	528073	0	0
2024-08-25 17:59:47			0	38216	0	0	0	30535	29160	152168	26809	1083719	46880	111371	0	0	8110	529045	0	0
2024-08-25 18:00:47			0	38218	0	0	0	30542	29170	152164	26955	1083657	46881	111374	0	0	8111	528939	0	0
2024-08-25 18:01:47			0	38205	0	0	0	30550	29160	152152	27007	1083665	46880	111377	0	0	8110	529460	0	0
2024-08-25 18:02:47			0	38208	0	0	0	30576	29160	152244	26854	1083756	46891	111387	0	0	8109	529347	0	0
2024-08-25 18:03:47			0	38220	0	0	0	30618	29160	152164	26896	1083881	46903	111403	0	0	8109	528894	0	0
2024-08-25 18:04:47			0	38220	0	0	0	30612	29170	152100	27133	1083882	46916	111401	0	0	8109	528864	0	0
2024-08-25 18:05:47			0	38219	0	0	0	30594	29180	152172	27008	1083891	46893	111394	0	0	8110	528871	0	0
2024-08-25 18:06:47			0	38232	0	0	0	30631	29190	152128	26953	1083963	46906	111408	0	0	8110	528350	0	0
2024-08-25 18:07:47			0	38251	0	0	0	30623	29190	152012	26923	1083882	46894	111405	0	0	8111	527635	0	0
2024-08-25 18:08:47			0	38284	0	0	0	30628	29190	151944	27211	1083999	46907	111407	0	0	8113	526395	0	0
2024-08-25 18:09:47			0	38312	0	0	0	30641	29200	151832	27274	1084035	46907	111412	0	0	8114	525313	0	0
2024-08-25 18:10:47			0	38335	0	0	0	30636	29200	151760	27098	1084062	46907	111410	0	0	8116	524451	0	0
2024-08-25 18:11:47			0	38342	0	0	0	30628	29200	151632	26968	1083990	46907	111407	0	0	8116	524189	0	0
2024-08-25 18:12:47			0	38347	0	0	0	30625	29200	151556	26870	1084017	46907	111406	0	0	8117	524001	0	0
2024-08-25 18:13:47			0	38380	0	0	0	30618	29190	151428	26920	1083972	46907	111403	0	0	8119	522797	0	0
2024-08-25 18:14:47			0	38409	0	0	0	30612	29200	151372	27166	1084017	46895	111401	0	0	8120	521682	0	0
2024-08-25 18:15:47			0	38402	0	0	0	30592	29200	151336	27038	1083990	46907	111393	0	0	8120	521944	0	0
2024-08-25 18:16:47			0	38407	0	0	0	30574	29200	151376	26906	1084017	46884	111386	0	0	8121	521757	0	0
2024-08-25 18:17:47			0	38377	0	0	0	30628	29190	151524	26908	1083945	46907	111407	0	0	8118	522909	0	0
2024-08-25 18:18:47			0	38366	0	0	0	30612	29200	151536	26823	1084017	46895	111401	0	0	8118	523290	0	0
2024-08-25 18:19:47			0	38392	0	0	0	30605	29200	151500	26609	1083963	46907	111398	0	0	8120	522318	0	0
2024-08-25 18:20:47			0	38374	0	0	0	30592	29200	151448	26996	1083936	46907	111393	0	0	8119	522991	0	0
2024-08-25 18:21:47			0	38389	0	0	0	30579	29200	151488	27182	1083882	46907	111388	0	0	8120	522430	0	0
2024-08-25 18:22:47			0	38361	0	0	0	30581	29200	151444	26549	1083900	46895	111389	0	0	8118	523477	0	0
2024-08-25 18:23:47			0	38370	0	0	0	30566	29190	151492	27067	1083882	46894	111383	0	0	8119	523171	0	0
2024-08-25 18:24:47			0	38386	0	0	0	30576	29180	151592	26946	1083846	46893	111387	0	0	8120	522603	0	0
2024-08-25 18:25:47			0	38349	0	0	0	30558	29190	151560	26651	1083855	46883	111380	0	0	8118	523957	0	0
2024-08-25 18:26:47			0	38350	0	0	0	30584	29180	151536	27277	1083792	46905	111390	0	0	8117	523950	0	0
2024-08-25 18:27:47			0	38364	0	0	0	30576	29180	151484	26934	1083864	46905	111387	0	0	8118	523426	0	0
2024-08-25 18:28:47			0	38390	0	0	0	30586	29170	151376	27173	1083855	46882	111391	0	0	8120	522483	0	0
2024-08-25 18:29:47			0	38407	0	0	0	30592	29170	151468	26979	1083828	46905	111393	0	0	8120	521848	0	0
2024-08-25 18:30:47			0	38422	0	0	0	30589	29190	151368	27095	1083891	46907	111392	0	0	8121	521227	0	0
2024-08-25 18:31:47			0	38412	0	0	0	30511	29170	151368	27154	1083693	46893	111362	0	0	8122	521661	0	0
2024-08-25 18:32:47			0	38429	0	0	0	30537	29180	151248	26984	1083702	46893	111372	0	0	8123	520996	0	0
2024-08-25 18:33:47			0	38436	0	0	0	30542	29160	151392	26873	1083665	46914	111374	0	0	8123	520796	0	0
2024-08-25 18:34:47			0	38442	0	0	0	30553	29160	151356	26932	1083773	46891	111378	0	0	8123	520572	0	0
2024-08-25 18:35:47			0	38430	0	0	0	30563	29150	151336	26774	1083764	46902	111382	0	0	8122	521050	0	0
2024-08-25 18:36:47			0	38442	0	0	0	30563	29160	151260	27034	1083756	46903	111382	0	0	8123	520572	0	0
2024-08-25 18:37:47			0	38440	0	0	0	30563	29160	151312	27118	1083827	46891	111382	0	0	8123	520646	0	0
2024-08-25 18:38:47			0	38446	0	0	0	30571	29160	151296	27183	1083692	46903	111385	0	0	8123	520422	0	0
2024-08-25 18:39:47			0	38449	0	0	0	30579	29160	151264	26946	1083783	46903	111388	0	0	8123	520310	0	0
2024-08-25 18:40:47			0	38434	0	0	0	30566	29170	151276	27097	1083765	46892	111383	0	0	8122	520840	0	0
2024-08-25 18:41:47			0	38453	0	0	0	30542	29160	151320	27072	1083729	46903	111374	0	0	8124	520161	0	0
2024-08-25 18:42:47			0	38446	0	0	0	30472	29150	151252	27045	1083683	46879	111347	0	0	8125	520453	0	0
2024-08-25 18:43:47			0	38452	0	0	0	30485	29140	151336	27081	1083548	46877	111352	0	0	8125	520259	0	0
2024-08-25 18:44:47			0	38419	0	0	0	30511	29130	151304	26961	1083512	46888	111362	0	0	8122	521521	0	0
2024-08-25 18:45:47			0	38405	0	0	0	30467	29120	151396	26769	1083412	46887	111345	0	0	8122	522074	0	0
2024-08-25 18:46:47			0	38412	0	0	0	30457	29110	151428	27067	1083367	46875	111341	0	0	8123	521843	0	0
2024-08-25 18:47:47			0	38397	0	0	0	30470	29110	151484	27039	1083304	46875	111346	0	0	8122	522404	0	0
2024-08-25 18:48:47			0	38378	0	0	0	30480	29100	151492	27119	1083367	46884	111350	0	0	8120	523145	0	0
2024-08-25 18:49:47			0	38345	0	0	0	30490	29100	151640	27126	1083376	46885	111354	0	0	8118	524381	0	0
2024-08-25 18:50:47			0	38360	0	0	0	30485	29100	151668	26965	1083421	46896	111352	0	0	8119	523819	0	0
2024-08-25 18:51:47			0	38354	0	0	0	30503	29100	151624	26734	1083349	46875	111359	0	0	8119	524044	0	0
2024-08-25 18:52:47			0	38361	0	0	0	30493	29100	151744	27157	1083367	46884	111355	0	0	8119	523781	0	0
2024-08-25 18:53:47			0	38351	0	0	0	30470	29100	151716	26955	1083403	46897	111346	0	0	8119	524156	0	0
2024-08-25 18:54:47			0	38341	0	0	0	30483	29090	151788	26892	1083331	46896	111351	0	0	8118	524561	0	0
2024-08-25 18:55:47			0	38330	0	0	0	30503	29090	151776	26993	1083403	46884	111359	0	0	8117	524973	0	0
2024-08-25 18:56:47			0	38321	0	0	0	30514	29090	151900	26814	1083349	46896	111363	0	0	8117	525311	0	0
2024-08-25 18:57:47			0	38327	0	0	0	30511	29090	151788	26892	1083403	46907	111362	0	0	8117	525086	0	0
2024-08-25 18:58:47			0	38320	0	0	0	30529	29090	151924	26986	1083439	46918	111369	0	0	8116	525349	0	0
2024-08-25 18:59:47			0	38320	0	0	0	30511	29090	151996	26863	1083403	46907	111362	0	0	8117	525349	0	0
2024-08-25 19:00:47			0	38337	0	0	0	30514	29090	151948	27067	1083412	46896	111363	0	0	8117	524711	0	0
2024-08-25 19:01:47			0	38337	0	0	0	30516	29090	151924	27105	1083547	46896	111364	0	0	8117	524711	0	0
2024-08-25 19:02:47			0	38320	0	0	0	30514	29100	151860	27017	1083502	46907	111363	0	0	8117	525318	0	0
2024-08-25 19:03:47			0	38294	0	0	0	30516	29110	151944	26984	1083520	46886	111364	0	0	8115	526264	0	0
2024-08-25 19:04:47			0	38294	0	0	0	30496	29100	151960	26776	1083367	46907	111356	0	0	8115	526294	0	0
2024-08-25 19:05:47			0	38286	0	0	0	30475	29100	152020	27163	1083376	46897	111348	0	0	8115	526595	0	0
2024-08-25 19:06:47			0	38272	0	0	0	30459	29090	152084	27244	1083331	46884	111342	0	0	8115	527152	0	0
2024-08-25 19:07:47			0	38246	0	0	0	30464	29080	152168	27088	1083313	46873	111344	0	0	8113	528161	0	0
2024-08-25 19:08:47			0	38243	0	0	0	30449	29080	152172	27093	1083313	46883	111338	0	0	8113	528274	0	0
2024-08-25 19:09:47			0	38220	0	0	0	30467	29080	152220	27185	1083250	46882	111345	0	0	8112	529140	0	0
2024-08-25 19:10:47			0	38218	0	0	0	30459	29080	152232	26927	1083223	46894	111342	0	0	8112	529216	0	0
2024-08-25 19:11:47			0	38226	0	0	0	30459	29080	152256	27254	1083205	46895	111342	0	0	8112	528914	0	0
2024-08-25 19:12:47			0	38203	0	0	0	30454	29070	152372	26811	1083204	46893	111340	0	0	8111	529812	0	0
2024-08-25 19:13:47			0	38204	0	0	0	30405	29060	152408	27137	1083132	46892	111321	0	0	8112	529805	0	0
2024-08-25 19:14:47			0	38190	0	0	0	30389	29060	152444	27215	1083132	46880	111315	0	0	8111	530333	0	0
2024-08-25 19:15:47			0	38150	0	0	0	30384	29050	152648	26691	1083015	46869	111313	0	0	8109	531875	0	0
2024-08-25 19:16:47			0	38119	0	0	0	30389	29030	152748	27253	1082916	46867	111315	0	0	8107	533110	0	0
2024-08-25 19:17:47			0	38086	0	0	0	30381	29030	152868	27019	1082943	46877	111312	0	0	8105	534361	0	0
2024-08-25 19:18:47			0	38084	0	0	0	30392	29020	152848	26771	1082906	46877	111316	0	0	8105	534468	0	0
2024-08-25 19:19:47			0	38062	0	0	0	30384	29020	152980	27045	1082906	46877	111313	0	0	8104	535303	0	0
2024-08-25 19:20:47			0	38033	0	0	0	30405	29020	152976	26981	1082879	46889	111321	0	0	8102	536405	0	0
2024-08-25 19:21:47			0	38038	0	0	0	30392	29020	152996	26981	1082897	46888	111316	0	0	8102	536215	0	0
2024-08-25 19:22:47			0	38040	0	0	0	30381	29010	153024	27060	1082888	46875	111312	0	0	8102	536170	0	0
2024-08-25 19:23:47			0	38033	0	0	0	30399	29010	153112	26793	1082888	46898	111319	0	0	8102	536436	0	0
2024-08-25 19:24:47			0	38019	0	0	0	30407	29010	153103	27010	1082933	46897	111322	0	0	8101	536968	0	0
2024-08-25 19:25:47			0	38022	0	0	0	30386	29010	153179	27066	1082852	46886	111314	0	0	8101	536854	0	0
2024-08-25 19:26:47			0	38015	0	0	0	30410	29000	153239	26981	1082861	46864	111323	0	0	8100	537152	0	0
2024-08-25 19:27:47			0	37989	0	0	0	30386	29000	153187	27007	1082870	46886	111314	0	0	8099	538142	0	0
2024-08-25 19:28:47			0	38011	0	0	0	30376	29000	153187	26916	1082843	46886	111310	0	0	8101	537304	0	0
2024-08-25 19:29:47			0	37999	0	0	0	30376	28980	153103	26890	1082807	46907	111310	0	0	8100	537823	0	0
2024-08-25 19:30:47			0	37989	0	0	0	30348	28980	153315	26885	1082780	46895	111299	0	0	8100	538204	0	0
2024-08-25 19:31:47			0	37959	0	0	0	30368	28990	153327	27005	1082762	46884	111307	0	0	8098	539317	0	0
2024-08-25 19:32:47			0	37932	0	0	0	30379	28980	153407	26674	1082753	46884	111311	0	0	8096	540379	0	0
2024-08-25 19:33:47			0	37945	0	0	0	30389	28980	153387	27034	1082699	46884	111315	0	0	8097	539882	0	0
2024-08-25 19:34:47			0	37942	0	0	0	30379	28980	153391	27118	1082798	46907	111311	0	0	8097	539997	0	0
2024-08-25 19:35:47			0	37942	0	0	0	30405	28990	153511	26618	1082816	46895	111321	0	0	8096	539965	0	0
2024-08-25 19:36:47			0	37951	0	0	0	30399	28970	153447	27055	1082761	46894	111319	0	0	8097	539684	0	0
2024-08-25 19:37:47			0	37943	0	0	0	30386	28980	153475	26812	1082753	46895	111314	0	0	8097	539959	0	0
2024-08-25 19:38:47			0	37953	0	0	0	30402	28980	153387	26783	1082807	46884	111320	0	0	8097	539577	0	0
2024-08-25 19:39:47			0	37981	0	0	0	30384	28980	153371	26901	1082771	46895	111313	0	0	8099	538509	0	0
2024-08-25 19:40:47			0	37956	0	0	0	30392	28980	153363	27135	1082753	46895	111316	0	0	8097	539462	0	0
2024-08-25 19:41:47			0	37977	0	0	0	30399	28980	153367	26922	1082780	46895	111319	0	0	8098	538661	0	0
2024-08-25 19:42:47			0	37962	0	0	0	30397	28980	153319	27339	1082807	46884	111318	0	0	8097	539233	0	0
2024-08-25 19:43:47			0	37970	0	0	0	30381	28990	153451	27275	1082789	46907	111312	0	0	8098	538897	0	0
2024-08-25 19:44:47			0	37955	0	0	0	30368	28990	153387	27177	1082825	46908	111307	0	0	8098	539469	0	0
2024-08-25 19:45:47			0	37979	0	0	0	30366	28990	153455	27083	1082789	46895	111306	0	0	8099	538554	0	0
2024-08-25 19:46:47			0	37950	0	0	0	30361	28980	153503	27005	1082699	46884	111304	0	0	8097	539691	0	0
2024-08-25 19:47:47			0	37906	0	0	0	30348	28970	153595	27050	1082735	46894	111299	0	0	8095	541404	0	0
2024-08-25 19:48:47			0	37897	0	0	0	30340	28970	153627	27022	1082627	46906	111296	0	0	8095	541748	0	0
2024-08-25 19:49:47			0	37895	0	0	0	30324	28960	153703	27031	1082608	46860	111290	0	0	8095	541856	0	0
2024-08-25 19:50:47			0	37879	0	0	0	30270	28960	153675	27163	1082581	46882	111269	0	0	8095	542469	0	0
2024-08-25 19:51:47			0	37875	0	0	0	30251	28950	153679	26994	1082491	46860	111262	0	0	8095	542653	0	0
2024-08-25 19:52:47			0	37896	0	0	0	30231	28930	153567	26913	1082311	46868	111254	0	0	8096	541912	0	0
2024-08-25 19:53:47			0	37982	0	0	0	30228	28910	153255	26816	1082302	46844	111253	0	0	8101	538689	0	0
2024-08-25 19:54:47			0	38029	0	0	0	30236	28910	153180	26805	1082248	46855	111256	0	0	8104	536899	0	0
2024-08-25 19:55:47			0	38070	0	0	0	30231	28900	152956	27057	1082283	46875	111254	0	0	8106	535372	0	0
2024-08-25 19:56:47			0	38047	0	0	0	30223	28890	152920	27294	1082184	46864	111251	0	0	8105	536277	0	0
2024-08-25 19:57:47			0	38076	0	0	0	30220	28870	152968	27069	1082184	46851	111250	0	0	8106	535237	0	0
2024-08-25 19:58:47			0	38078	0	0	0	30202	28870	152912	27116	1082103	46874	111243	0	0	8107	535161	0	0
2024-08-25 19:59:47			0	38093	0	0	0	30210	28860	152908	27170	1082057	46861	111246	0	0	8108	534622	0	0
2024-08-25 20:00:47			0	38085	0	0	0	30202	28860	152932	26942	1082048	46860	111243	0	0	8107	534926	0	0
2024-08-25 20:01:47			0	38071	0	0	0	30192	28840	152952	26925	1081994	46859	111239	0	0	8107	535520	0	0
2024-08-25 20:02:47			0	38069	0	0	0	30168	28850	153000	27194	1081922	46871	111230	0	0	8107	535565	0	0
2024-08-25 20:03:47			0	38042	0	0	0	30168	28830	153064	26932	1081895	46869	111230	0	0	8105	536653	0	0
2024-08-25 20:04:47			0	38047	0	0	0	30168	28830	153224	27038	1081940	46857	111230	0	0	8105	536463	0	0
2024-08-25 20:05:47			0	38044	0	0	0	30168	28820	153128	26991	1081877	46846	111230	0	0	8105	536608	0	0
2024-08-25 20:06:47			0	38038	0	0	0	30184	28820	153196	27033	1081868	46878	111236	0	0	8105	536837	0	0
2024-08-25 20:07:47			0	38025	0	0	0	30171	28810	153227	26993	1081822	46877	111231	0	0	8104	537363	0	0
2024-08-25 20:08:47			0	38023	0	0	0	30168	28800	153283	26955	1081804	46876	111230	0	0	8104	537470	0	0
2024-08-25 20:09:47			0	38024	0	0	0	30171	28810	153283	27088	1081858	46877	111231	0	0	8104	537401	0	0
2024-08-25 20:10:47			0	37996	0	0	0	30155	28790	153471	27161	1081822	46865	111225	0	0	8103	538530	0	0
2024-08-25 20:11:47			0	37990	0	0	0	30145	28790	153511	26951	1081768	46865	111221	0	0	8102	538759	0	0
2024-08-25 20:12:47			0	37988	0	0	0	30142	28790	153443	27235	1081660	46865	111220	0	0	8102	538835	0	0
2024-08-25 20:13:47			0	37970	0	0	0	30153	28790	153483	26769	1081741	46875	111224	0	0	8101	539522	0	0
2024-08-25 20:14:47			0	37993	0	0	0	30153	28790	153499	26915	1081678	46865	111224	0	0	8102	538645	0	0
2024-08-25 20:15:47			0	37986	0	0	0	30145	28770	153439	26781	1081722	46873	111221	0	0	8102	538974	0	0
2024-08-25 20:16:47			0	37975	0	0	0	30135	28770	153455	27109	1081651	46874	111217	0	0	8102	539394	0	0
2024-08-25 20:17:47			0	37975	0	0	0	30142	28770	153555	26880	1081651	46863	111220	0	0	8102	539394	0	0
2024-08-25 20:18:47			0	37980	0	0	0	30132	28770	153519	27053	1081668	46850	111216	0	0	8102	539203	0	0
2024-08-25 20:19:47			0	37973	0	0	0	30135	28760	153507	26628	1081605	46883	111217	0	0	8101	539501	0	0
2024-08-25 20:20:47			0	37985	0	0	0	30132	28770	153575	26972	1081615	46883	111216	0	0	8102	539012	0	0
2024-08-25 20:21:47			0	37978	0	0	0	30135	28750	153519	26712	1081587	46872	111217	0	0	8102	539342	0	0
2024-08-25 20:22:47			0	37990	0	0	0	30124	28760	153539	27150	1081596	46862	111213	0	0	8103	538853	0	0
2024-08-25 20:23:47			0	38003	0	0	0	30124	28750	153563	26913	1081524	46871	111213	0	0	8103	538388	0	0
2024-08-25 20:24:47			0	38006	0	0	0	30122	28750	153431	27194	1081632	46871	111212	0	0	8104	538274	0	0
2024-08-25 20:25:47			0	38008	0	0	0	30135	28750	153507	26767	1081551	46871	111217	0	0	8103	538197	0	0
2024-08-25 20:26:47			0	38019	0	0	0	30119	28750	153479	26743	1081470	46871	111211	0	0	8104	537778	0	0
2024-08-25 20:27:47			0	38013	0	0	0	30124	28740	153463	26625	1081461	46860	111213	0	0	8104	538038	0	0
2024-08-25 20:28:47			0	37996	0	0	0	30114	28740	153539	26840	1081461	46871	111209	0	0	8103	538686	0	0
2024-08-25 20:29:47			0	37994	0	0	0	30122	28740	153479	27046	1081461	46871	111212	0	0	8103	538763	0	0
2024-08-25 20:30:47			0	37983	0	0	0	30127	28730	153471	26902	1081443	46870	111214	0	0	8102	539213	0	0
2024-08-25 20:31:47			0	37996	0	0	0	30129	28740	153559	27218	1081452	46870	111215	0	0	8103	538686	0	0
2024-08-25 20:32:47			0	37979	0	0	0	30109	28740	153559	27081	1081506	46880	111207	0	0	8102	539335	0	0
2024-08-25 20:33:47			0	37987	0	0	0	30116	28730	153523	27145	1081470	46870	111210	0	0	8102	539061	0	0
2024-08-25 20:34:47			0	37978	0	0	0	30124	28730	153551	27211	1081407	46891	111213	0	0	8102	539404	0	0
2024-08-25 20:35:47			0	37961	0	0	0	30119	28730	153707	27105	1081497	46880	111211	0	0	8101	540054	0	0
2024-08-25 20:36:47			0	37959	0	0	0	30119	28730	153667	27261	1081389	46880	111211	0	0	8101	540130	0	0
2024-08-25 20:37:47			0	37952	0	0	0	30124	28730	153723	26984	1081380	46879	111213	0	0	8100	540398	0	0
2024-08-25 20:38:47			0	37933	0	0	0	30124	28730	153711	26797	1081461	46879	111213	0	0	8099	541124	0	0
2024-08-25 20:39:47			0	37930	0	0	0	30124	28730	153675	26946	1081488	46879	111213	0	0	8099	541239	0	0
2024-08-25 20:40:47			0	37940	0	0	0	30124	28730	153891	26922	1081524	46870	111213	0	0	8100	540856	0	0
2024-08-25 20:41:47			0	37938	0	0	0	30129	28730	153767	26800	1081461	46879	111215	0	0	8099	540933	0	0
2024-08-25 20:42:47			0	37928	0	0	0	30129	28730	153735	27131	1081497	46870	111215	0	0	8099	541315	0	0
2024-08-25 20:43:47			0	37925	0	0	0	30137	28730	153847	26753	1081434	46869	111218	0	0	8099	541430	0	0
2024-08-25 20:44:47			0	37912	0	0	0	30140	28730	153735	26986	1081497	46870	111219	0	0	8098	541928	0	0
2024-08-25 20:45:47			0	37931	0	0	0	30140	28730	153843	26972	1081443	46892	111219	0	0	8099	541201	0	0
2024-08-25 20:46:47			0	37908	0	0	0	30137	28740	153803	26883	1081479	46880	111218	0	0	8098	542050	0	0
2024-08-25 20:47:47			0	37909	0	0	0	30158	28740	153903	26644	1081506	46880	111226	0	0	8097	542011	0	0
2024-08-25 20:48:47			0	37898	0	0	0	30135	28730	153931	26830	1081443	46880	111217	0	0	8097	542464	0	0
2024-08-25 20:49:47			0	37923	0	0	0	30145	28730	153875	26731	1081497	46892	111221	0	0	8098	541507	0	0
2024-08-25 20:50:47			0	37920	0	0	0	30135	28740	153911	27038	1081587	46870	111217	0	0	8098	541590	0	0
2024-08-25 20:51:47			0	37902	0	0	0	30135	28740	153899	26993	1081452	46870	111217	0	0	8097	542279	0	0
2024-08-25 20:52:47			0	37911	0	0	0	30153	28740	153839	26972	1081533	46880	111224	0	0	8098	541935	0	0
2024-08-25 20:53:47			0	37907	0	0	0	30135	28730	153847	26904	1081497	46880	111217	0	0	8098	542119	0	0
2024-08-25 20:54:47			0	37908	0	0	0	30129	28750	153847	26897	1081524	46871	111215	0	0	8098	542018	0	0
2024-08-25 20:55:47			0	37909	0	0	0	30148	28740	153891	27048	1081596	46882	111222	0	0	8097	542011	0	0
2024-08-25 20:56:47			0	37912	0	0	0	30148	28740	153939	26590	1081569	46882	111222	0	0	8098	541896	0	0
2024-08-25 20:57:47			0	37918	0	0	0	30150	28740	153963	27128	1081506	46880	111223	0	0	8098	541667	0	0
2024-08-25 20:58:47			0	37881	0	0	0	30145	28740	154039	26939	1081533	46892	111221	0	0	8096	543084	0	0
2024-08-25 20:59:47			0	37885	0	0	0	30129	28740	153955	27126	1081614	46859	111215	0	0	8096	542931	0	0
2024-08-25 21:00:47			0	37894	0	0	0	30132	28740	154023	26734	1081560	46880	111216	0	0	8097	542586	0	0
2024-08-25 21:01:47			0	37885	0	0	0	30129	28740	153959	26646	1081488	46871	111215	0	0	8096	542931	0	0
2024-08-25 21:02:47			0	37853	0	0	0	30122	28740	153987	26609	1081533	46870	111212	0	0	8095	544158	0	0
2024-08-25 21:03:47			0	37875	0	0	0	30114	28740	153935	26788	1081425	46880	111209	0	0	8096	543314	0	0
2024-08-25 21:04:47			0	37870	0	0	0	30122	28740	153971	26852	1081479	46870	111212	0	0	8096	543506	0	0
2024-08-25 21:05:47			0	37868	0	0	0	30127	28730	154011	26786	1081515	46869	111214	0	0	8095	543614	0	0
2024-08-25 21:06:47			0	37872	0	0	0	30119	28740	154035	27124	1081533	46859	111211	0	0	8096	543429	0	0
2024-08-25 21:07:47			0	37867	0	0	0	30127	28730	154099	26627	1081497	46880	111214	0	0	8095	543653	0	0
2024-08-25 21:08:47			0	37848	0	0	0	30124	28730	154039	26720	1081470	46870	111213	0	0	8094	544382	0	0
2024-08-25 21:09:47			0	37849	0	0	0	30127	28730	154099	27107	1081434	46869	111214	0	0	8094	544343	0	0
2024-08-25 21:10:47			0	37848	0	0	0	30129	28730	154079	26998	1081497	46870	111215	0	0	8094	544382	0	0
2024-08-25 21:11:47			0	37838	0	0	0	30127	28730	154099	26786	1081524	46892	111214	0	0	8094	544766	0	0
2024-08-25 21:12:47			0	37838	0	0	0	30142	28740	154191	26870	1081533	46880	111220	0	0	8094	544734	0	0
2024-08-25 21:13:47			0	37824	0	0	0	30127	28730	154139	27000	1081515	46869	111214	0	0	8093	545304	0	0
2024-08-25 21:14:47			0	37820	0	0	0	30142	28740	154147	26793	1081452	46880	111220	0	0	8092	545426	0	0
2024-08-25 21:15:47			0	37815	0	0	0	30122	28730	154223	26800	1081434	46858	111212	0	0	8092	545650	0	0
2024-08-25 21:16:47			0	37813	0	0	0	30127	28730	154335	26811	1081497	46880	111214	0	0	8092	545727	0	0
2024-08-25 21:17:47			0	37795	0	0	0	30124	28730	154347	26767	1081407	46869	111213	0	0	8091	546420	0	0
2024-08-25 21:18:47			0	37786	0	0	0	30119	28720	154319	26991	1081371	46858	111211	0	0	8091	546798	0	0
2024-08-25 21:19:47			0	37794	0	0	0	30129	28730	154347	26805	1081416	46859	111215	0	0	8091	546458	0	0
2024-08-25 21:20:47			0	37785	0	0	0	30122	28720	154383	27020	1081398	46879	111212	0	0	8091	546836	0	0
2024-08-25 21:21:47			0	37781	0	0	0	30129	28720	154479	26752	1081398	46869	111215	0	0	8090	546990	0	0
2024-08-25 21:22:47			0	37780	0	0	0	30129	28720	154411	27008	1081416	46868	111215	0	0	8090	547029	0	0
2024-08-25 21:23:47			0	37775	0	0	0	30122	28720	154483	27076	1081398	46879	111212	0	0	8090	547221	0	0
2024-08-25 21:24:47			0	37779	0	0	0	30111	28720	154399	26727	1081425	46869	111208	0	0	8091	547067	0	0
2024-08-25 21:25:47			0	37767	0	0	0	30122	28720	154427	26927	1081416	46878	111212	0	0	8090	547530	0	0
2024-08-25 21:26:47			0	37770	0	0	0	30122	28720	154435	27015	1081398	46879	111212	0	0	8090	547414	0	0
2024-08-25 21:27:47			0	37757	0	0	0	30127	28720	154439	27460	1081506	46869	111214	0	0	8089	547915	0	0
2024-08-25 21:28:47			0	37780	0	0	0	30116	28720	154451	27074	1081416	46878	111210	0	0	8091	547029	0	0
2024-08-25 21:29:47			0	37778	0	0	0	30106	28720	154435	27100	1081362	46878	111206	0	0	8091	547106	0	0
2024-08-25 21:30:47			0	37766	0	0	0	30106	28720	154387	27076	1081335	46878	111206	0	0	8090	547568	0	0
2024-08-25 21:31:47			0	37767	0	0	0	30106	28720	154483	26935	1081371	46869	111206	0	0	8090	547530	0	0
2024-08-25 21:32:47			0	37766	0	0	0	30103	28710	154447	27095	1081353	46878	111205	0	0	8090	547600	0	0
2024-08-25 21:33:47			0	37769	0	0	0	30103	28720	154371	26840	1081371	46879	111205	0	0	8090	547453	0	0
2024-08-25 21:34:47			0	37770	0	0	0	30103	28710	154543	26986	1081407	46878	111205	0	0	8090	547446	0	0
2024-08-25 21:35:47			0	37779	0	0	0	30098	28720	154531	26755	1081335	46868	111203	0	0	8091	547067	0	0
2024-08-25 21:36:47			0	37789	0	0	0	30090	28710	154495	26965	1081272	46868	111200	0	0	8091	546714	0	0
2024-08-25 21:37:47			0	37786	0	0	0	30085	28700	154443	27083	1081308	46856	111198	0	0	8091	546861	0	0
2024-08-25 21:38:47			0	37791	0	0	0	30085	28710	154415	26724	1081245	46890	111198	0	0	8092	546637	0	0
2024-08-25 21:39:47			0	37775	0	0	0	30067	28700	154535	26764	1081308	46889	111191	0	0	8091	547285	0	0
2024-08-25 21:40:47			0	37782	0	0	0	30075	28700	154535	27034	1081245	46866	111194	0	0	8091	547015	0	0
2024-08-25 21:41:47			0	37767	0	0	0	30075	28700	154539	27093	1081218	46876	111194	0	0	8090	547593	0	0
2024-08-25 21:42:47			0	37767	0	0	0	30072	28690	154595	26949	1081307	46875	111193	0	0	8090	547625	0	0
2024-08-25 21:43:47			0	37769	0	0	0	30072	28690	154607	26831	1081172	46854	111193	0	0	8090	547548	0	0
2024-08-25 21:44:47			0	37740	0	0	0	30070	28690	154675	27150	1081253	46887	111192	0	0	8089	548666	0	0
2024-08-25 21:45:47			0	37719	0	0	0	30062	28680	154739	27227	1081163	46865	111189	0	0	8088	549509	0	0
2024-08-25 21:46:47			0	37712	0	0	0	30057	28690	154751	27020	1081208	46866	111187	0	0	8087	549748	0	0
2024-08-25 21:47:47			0	37694	0	0	0	30046	28680	154863	26826	1081127	46864	111183	0	0	8087	550475	0	0
2024-08-25 21:48:47			0	37671	0	0	0	30041	28670	154891	27249	1081091	46863	111181	0	0	8085	551397	0	0
2024-08-25 21:49:47			0	37660	0	0	0	30051	28670	155003	26946	1081118	46863	111185	0	0	8084	551823	0	0
2024-08-25 21:50:47			0	37658	0	0	0	30057	28660	154899	27145	1081082	46863	111187	0	0	8084	551933	0	0
2024-08-25 21:51:47			0	37656	0	0	0	30059	28660	154951	27052	1081109	46863	111188	0	0	8084	552011	0	0
2024-08-25 21:52:47			0	37684	0	0	0	30051	28670	154867	27015	1081145	46874	111185	0	0	8086	550894	0	0
2024-08-25 21:53:47			0	37681	0	0	0	30054	28660	154875	27315	1081136	46885	111186	0	0	8086	551042	0	0
2024-08-25 21:54:47			0	37689	0	0	0	30054	28660	154831	26890	1081100	46862	111186	0	0	8086	550733	0	0
2024-08-25 21:55:47			0	37692	0	0	0	30059	28660	155011	26864	1081055	46863	111188	0	0	8086	550617	0	0
2024-08-25 21:56:47			0	37692	0	0	0	30049	28660	154879	26859	1081082	46885	111184	0	0	8086	550617	0	0
2024-08-25 21:57:47			0	37696	0	0	0	30049	28650	154919	27072	1081037	46873	111184	0	0	8086	550494	0	0
2024-08-25 21:58:47			0	37676	0	0	0	30041	28660	154883	27024	1081073	46851	111181	0	0	8085	551236	0	0
2024-08-25 21:59:47			0	37696	0	0	0	30044	28650	154911	26937	1081064	46862	111182	0	0	8087	550494	0	0
2024-08-25 22:00:47			0	37680	0	0	0	30044	28650	154935	27072	1081055	46861	111182	0	0	8086	551113	0	0
2024-08-25 22:01:47			0	37670	0	0	0	30033	28650	154915	27083	1081037	46873	111178	0	0	8085	551500	0	0
2024-08-25 22:02:47			0	37678	0	0	0	30031	28650	154911	26717	1081082	46872	111177	0	0	8086	551190	0	0
2024-08-25 22:03:47			0	37674	0	0	0	30033	28650	154963	26729	1081010	46873	111178	0	0	8085	551345	0	0
2024-08-25 22:04:47			0	37666	0	0	0	30033	28630	154867	26922	1081000	46860	111178	0	0	8085	551719	0	0
2024-08-25 22:05:47			0	37666	0	0	0	30038	28640	154899	27100	1081009	46849	111180	0	0	8085	551687	0	0
2024-08-25 22:06:47			0	37690	0	0	0	30025	28640	154835	26930	1080992	46872	111175	0	0	8086	550758	0	0
2024-08-25 22:07:47			0	37686	0	0	0	30018	28630	154883	27126	1080946	46882	111172	0	0	8086	550944	0	0
2024-08-25 22:08:47			0	37679	0	0	0	30033	28630	154811	26991	1080973	46871	111178	0	0	8086	551215	0	0
2024-08-25 22:09:47			0	37683	0	0	0	30025	28630	154811	26804	1080920	46860	111175	0	0	8086	551061	0	0
2024-08-25 22:10:47			0	37688	0	0	0	30028	28640	154935	27204	1080956	46860	111176	0	0	8086	550835	0	0
2024-08-25 22:11:47			0	37687	0	0	0	30020	28640	154999	27039	1080956	46871	111173	0	0	8086	550874	0	0
2024-08-25 22:12:47			0	37683	0	0	0	30018	28620	155003	27319	1080865	46858	111172	0	0	8086	551092	0	0
2024-08-25 22:13:47			0	37676	0	0	0	30005	28630	154955	26949	1080893	46882	111167	0	0	8086	551332	0	0
2024-08-25 22:14:47			0	37677	0	0	0	30023	28630	154943	26805	1080910	46859	111174	0	0	8086	551293	0	0
2024-08-25 22:15:47			0	37679	0	0	0	30028	28630	154951	27144	1080973	46871	111176	0	0	8086	551215	0	0
2024-08-25 22:16:47			0	37666	0	0	0	30023	28620	154951	26951	1080874	46869	111174	0	0	8085	551751	0	0
2024-08-25 22:17:47			0	37659	0	0	0	30015	28620	155039	26715	1080919	46869	111171	0	0	8085	552022	0	0
2024-08-25 22:18:47			0	37649	0	0	0	30007	28610	155099	26989	1080883	46869	111168	0	0	8084	552442	0	0
2024-08-25 22:19:47			0	37652	0	0	0	30015	28610	155139	26613	1080856	46858	111171	0	0	8084	552325	0	0
2024-08-25 22:20:47			0	37664	0	0	0	30002	28610	155047	27038	1080856	46869	111166	0	0	8085	551860	0	0
2024-08-25 22:21:47			0	37632	0	0	0	29994	28610	155115	26904	1080802	46869	111163	0	0	8084	553101	0	0
2024-08-25 22:22:47			0	37651	0	0	0	29992	28620	155219	27064	1080811	46869	111162	0	0	8085	552332	0	0
2024-08-25 22:23:47			0	37637	0	0	0	29997	28600	155183	26861	1080784	46867	111164	0	0	8084	552939	0	0
2024-08-25 22:24:47			0	37617	0	0	0	29981	28600	155343	27034	1080757	46856	111158	0	0	8083	553715	0	0
2024-08-25 22:25:47			0	37606	0	0	0	29968	28600	155339	27008	1080730	46867	111153	0	0	8082	554143	0	0
2024-08-25 22:26:47			0	37621	0	0	0	29971	28590	155287	26984	1080703	46855	111154	0	0	8083	553592	0	0
2024-08-25 22:27:47			0	37569	0	0	0	29966	28590	155471	26922	1080658	46856	111152	0	0	8080	555613	0	0
2024-08-25 22:28:47			0	37596	0	0	0	29966	28570	155411	27104	1080703	46853	111152	0	0	8082	554627	0	0
2024-08-25 22:29:47			0	37572	0	0	0	29935	28580	155387	27017	1080667	46854	111140	0	0	8081	555529	0	0
2024-08-25 22:30:47			0	37558	0	0	0	29945	28570	155511	27003	1080568	46853	111144	0	0	8080	556106	0	0
2024-08-25 22:31:47			0	37559	0	0	0	29940	28580	155623	27175	1080604	46854	111142	0	0	8080	556035	0	0
2024-08-25 22:32:47			0	37553	0	0	0	29927	28560	155515	26994	1080523	46852	111137	0	0	8080	556333	0	0
2024-08-25 22:33:47			0	37548	0	0	0	29935	28560	155567	27107	1080550	46875	111140	0	0	8079	556528	0	0
2024-08-25 22:34:47			0	37544	0	0	0	29924	28560	155555	26712	1080514	46862	111136	0	0	8079	556684	0	0
2024-08-25 22:35:47			0	37541	0	0	0	29927	28560	155639	27095	1080496	46852	111137	0	0	8079	556800	0	0
2024-08-25 22:36:47			0	37546	0	0	0	29919	28550	155603	27050	1080469	46862	111134	0	0	8080	556638	0	0
2024-08-25 22:37:47			0	37542	0	0	0	29922	28540	155627	27109	1080486	46850	111135	0	0	8079	556826	0	0
2024-08-25 22:38:47			0	37538	0	0	0	29916	28540	155599	27147	1080459	46861	111133	0	0	8079	556982	0	0
2024-08-25 22:39:47			0	37545	0	0	0	29929	28550	155647	27007	1080469	46862	111138	0	0	8079	556677	0	0
2024-08-25 22:40:47			0	37541	0	0	0	29927	28540	155607	26961	1080504	46860	111137	0	0	8079	556865	0	0
2024-08-25 22:41:47			0	37538	0	0	0	29924	28540	155679	27003	1080379	46850	111136	0	0	8079	556982	0	0
2024-08-25 22:42:47			0	37539	0	0	0	29924	28540	155663	26625	1080459	46861	111136	0	0	8079	556943	0	0
2024-08-25 22:43:47			0	37542	0	0	0	29919	28530	155571	27034	1080495	46849	111134	0	0	8079	556858	0	0
2024-08-25 22:44:47			0	37539	0	0	0	29924	28530	155623	26745	1080432	46860	111136	0	0	8079	556975	0	0
2024-08-25 22:45:47			0	37535	0	0	0	29922	28530	155611	27355	1080414	46860	111135	0	0	8079	557131	0	0
2024-08-25 22:46:47			0	37523	0	0	0	29929	28530	155623	27088	1080432	46872	111138	0	0	8078	557599	0	0
2024-08-25 22:47:47			0	37530	0	0	0	29927	28530	155671	26899	1080414	46872	111137	0	0	8078	557326	0	0
2024-08-25 22:48:47			0	37544	0	0	0	29919	28540	155651	27284	1080423	46872	111134	0	0	8079	556748	0	0
2024-08-25 22:49:47			0	37540	0	0	0	29914	28530	155531	26899	1080351	46849	111132	0	0	8079	556936	0	0
2024-08-25 22:50:47			0	37535	0	0	0	29911	28530	155567	26637	1080387	46872	111131	0	0	8079	557131	0	0
2024-08-25 22:51:47			0	37540	0	0	0	29909	28520	155487	26826	1080315	46859	111130	0	0	8079	556968	0	0
2024-08-25 22:52:47			0	37536	0	0	0	29901	28520	155571	26897	1080423	46848	111127	0	0	8079	557124	0	0
2024-08-25 22:53:47			0	37527	0	0	0	29903	28520	155555	26986	1080387	46858	111128	0	0	8079	557475	0	0
2024-08-25 22:54:47			0	37518	0	0	0	29896	28520	155747	27112	1080315	46859	111125	0	0	8078	557826	0	0
2024-08-25 22:55:47			0	37499	0	0	0	29888	28510	155771	26928	1080324	46858	111122	0	0	8077	558601	0	0
2024-08-25 22:56:47			0	37500	0	0	0	29888	28510	155815	26677	1080261	46870	111122	0	0	8077	558562	0	0
2024-08-25 22:57:47			0	37505	0	0	0	29883	28510	155727	26651	1080243	46858	111120	0	0	8078	558366	0	0
2024-08-25 22:58:47			0	37499	0	0	0	29885	28510	155771	27124	1080288	46858	111121	0	0	8077	558601	0	0
2024-08-25 22:59:47			0	37482	0	0	0	29877	28500	155847	26700	1080252	46869	111118	0	0	8076	559297	0	0
2024-08-25 23:00:47			0	37476	0	0	0	29872	28500	155831	26765	1080279	46857	111116	0	0	8076	559532	0	0
2024-08-25 23:01:47			0	37471	0	0	0	29867	28500	155839	26906	1080135	46868	111114	0	0	8076	559727	0	0
2024-08-25 23:02:47			0	37461	0	0	0	29867	28490	155879	26804	1080234	46855	111114	0	0	8075	560151	0	0
2024-08-25 23:03:47			0	37458	0	0	0	29859	28490	155867	26738	1080126	46855	111111	0	0	8075	560268	0	0
2024-08-25 23:04:47			0	37461	0	0	0	29867	28480	155987	26916	1080108	46855	111114	0	0	8075	560184	0	0
2024-08-25 23:05:47			0	37468	0	0	0	29864	28490	155927	26800	1080153	46855	111113	0	0	8076	559877	0	0
2024-08-25 23:06:47			0	37461	0	0	0	29864	28490	155951	26687	1080117	46855	111113	0	0	8075	560151	0	0
2024-08-25 23:07:47			0	37433	0	0	0	29862	28490	155847	26724	1080117	46867	111112	0	0	8074	561248	0	0
2024-08-25 23:08:47			0	37460	0	0	0	29854	28480	155887	26873	1080071	46854	111109	0	0	8075	560223	0	0
2024-08-25 23:09:47			0	37444	0	0	0	29857	28480	155911	26654	1080098	46854	111110	0	0	8074	560849	0	0
2024-08-25 23:10:47			0	37445	0	0	0	29859	28480	156083	26982	1080054	46855	111111	0	0	8074	560810	0	0
2024-08-25 23:11:47			0	37449	0	0	0	29877	28480	155891	26833	1080108	46855	111118	0	0	8074	560653	0	0
2024-08-25 23:12:47			0	37440	0	0	0	29880	28470	156015	26680	1080116	46842	111119	0	0	8074	561038	0	0
2024-08-25 23:13:47			0	37447	0	0	0	29883	28480	155935	27128	1080179	46876	111120	0	0	8074	560732	0	0
2024-08-25 23:14:47			0	37464	0	0	0	29875	28480	155983	27029	1080098	46854	111117	0	0	8075	560066	0	0
2024-08-25 23:15:47			0	37445	0	0	0	29864	28480	155987	27033	1080179	46866	111113	0	0	8074	560810	0	0
2024-08-25 23:16:47			0	37440	0	0	0	29872	28480	155971	26932	1080081	46855	111116	0	0	8074	561006	0	0
2024-08-25 23:17:47			0	37428	0	0	0	29888	28470	156047	26816	1080197	46853	111122	0	0	8073	561508	0	0
2024-08-25 23:18:47			0	37429	0	0	0	29896	28480	155987	26774	1080233	46876	111125	0	0	8073	561437	0	0
2024-08-25 23:19:47			0	37411	0	0	0	29896	28480	156019	26788	1080206	46876	111125	0	0	8072	562142	0	0
2024-08-25 23:20:47			0	37432	0	0	0	29885	28480	156095	26887	1080215	46867	111121	0	0	8073	561319	0	0
2024-08-25 23:21:47			0	37413	0	0	0	29872	28490	156115	27133	1080287	46867	111116	0	0	8072	562032	0	0
2024-08-25 23:22:47			0	37395	0	0	0	29885	28480	156227	27022	1080188	46855	111121	0	0	8071	562770	0	0
2024-08-25 23:23:47			0	37396	0	0	0	29888	28480	156415	27180	1080215	46867	111122	0	0	8071	562731	0	0
2024-08-25 23:24:47			0	37380	0	0	0	29893	28500	156303	26996	1080189	46856	111124	0	0	8070	563294	0	0
2024-08-25 23:25:47			0	37373	0	0	0	29898	28490	156399	27036	1080234	46855	111126	0	0	8070	563602	0	0
2024-08-25 23:26:47			0	37348	0	0	0	29901	28480	156395	26752	1080242	46855	111127	0	0	8068	564617	0	0
2024-08-25 23:27:47			0	37375	0	0	0	29901	28490	156271	26785	1080251	46877	111127	0	0	8070	563523	0	0
2024-08-25 23:28:47			0	37338	0	0	0	29901	28490	156467	27036	1080260	46844	111127	0	0	8067	564978	0	0
2024-08-25 23:29:47			0	37334	0	0	0	29896	28490	156415	26925	1080207	46855	111125	0	0	8067	565135	0	0
2024-08-25 23:30:47			0	37355	0	0	0	29888	28500	156547	26918	1080243	46868	111122	0	0	8069	564277	0	0
2024-08-25 23:31:47			0	37346	0	0	0	29890	28500	156647	26587	1080216	46845	111123	0	0	8068	564630	0	0
2024-08-25 23:32:47			0	37313	0	0	0	29872	28490	156615	26849	1080207	46855	111116	0	0	8067	565962	0	0
2024-08-25 23:33:47			0	37305	0	0	0	29875	28490	156562	26896	1080207	46867	111117	0	0	8066	566278	0	0
2024-08-25 23:34:47			0	37304	0	0	0	29875	28490	156626	26774	1080117	46844	111117	0	0	8066	566317	0	0
2024-08-25 23:35:47			0	37296	0	0	0	29864	28490	156614	26788	1080197	46844	111113	0	0	8066	566632	0	0
2024-08-25 23:36:47			0	37279	0	0	0	29875	28490	156638	26922	1080117	46855	111117	0	0	8064	567303	0	0
2024-08-25 23:37:47			0	37272	0	0	0	29870	28480	156630	26698	1080188	46867	111115	0	0	8064	567612	0	0
2024-08-25 23:38:47			0	37286	0	0	0	29872	28490	156818	27036	1080197	46855	111116	0	0	8065	567027	0	0
2024-08-25 23:39:47			0	37269	0	0	0	29885	28480	156682	27190	1080188	46867	111121	0	0	8064	567730	0	0
2024-08-25 23:40:47			0	37266	0	0	0	29875	28480	156658	26804	1080161	46867	111117	0	0	8064	567849	0	0
2024-08-25 23:41:47			0	37268	0	0	0	29867	28490	156710	27020	1080144	46855	111114	0	0	8064	567737	0	0
2024-08-25 23:42:47			0	37277	0	0	0	29883	28480	156826	26958	1080188	46877	111120	0	0	8064	567415	0	0
2024-08-25 23:43:47			0	37283	0	0	0	29875	28490	156702	27112	1080197	46877	111117	0	0	8065	567145	0	0
2024-08-25 23:44:47			0	37283	0	0	0	29883	28480	156662	26646	1080108	46855	111120	0	0	8065	567178	0	0
2024-08-25 23:45:47			0	37289	0	0	0	29877	28480	156602	27313	1080242	46867	111118	0	0	8065	566941	0	0
2024-08-25 23:46:47			0	37280	0	0	0	29877	28480	156654	26821	1080045	46866	111118	0	0	8064	567296	0	0
2024-08-25 23:47:47			0	37282	0	0	0	29896	28480	156666	26828	1080125	46843	111125	0	0	8064	567217	0	0
2024-08-25 23:48:47			0	37268	0	0	0	29880	28480	156698	27012	1080215	46867	111119	0	0	8064	567770	0	0
2024-08-25 23:49:47			0	37263	0	0	0	29880	28480	156698	26807	1080134	46855	111119	0	0	8063	567967	0	0
2024-08-25 23:50:47			0	37262	0	0	0	29877	28480	156722	26998	1080215	46867	111118	0	0	8063	568007	0	0
2024-08-25 23:51:47			0	37286	0	0	0	29880	28480	156682	26857	1080125	46843	111119	0	0	8065	567060	0	0
2024-08-25 23:52:47			0	37291	0	0	0	29880	28480	156738	26901	1080045	46866	111119	0	0	8065	566862	0	0
2024-08-25 23:53:47			0	37300	0	0	0	29872	28470	156642	27027	1080089	46853	111116	0	0	8066	566540	0	0
2024-08-25 23:54:47			0	37280	0	0	0	29870	28470	156730	26847	1080170	46842	111115	0	0	8065	567329	0	0
2024-08-25 23:55:47			0	37313	0	0	0	29854	28480	156699	26937	1080045	46854	111109	0	0	8067	565995	0	0
2024-08-25 23:56:47			0	37289	0	0	0	29862	28470	156738	26963	1080053	46853	111112	0	0	8065	566974	0	0
2024-08-25 23:57:47			0	37299	0	0	0	29851	28480	156622	27029	1080071	46854	111108	0	0	8066	566547	0	0
2024-08-25 23:58:47			0	37289	0	0	0	29851	28480	156626	26955	1080071	46854	111108	0	0	8065	566941	0	0
2024-08-25 23:59:47			0	37307	0	0	0	29857	28470	156570	26863	1080035	46865	111110	0	0	8066	566264	0	0
2024-08-26 00:00:47			0	37317	0	0	0	29828	28470	156570	26922	1079999	46842	111099	0	0	8067	565870	0	0
2024-08-26 00:01:47			0	37331	0	0	0	29831	28460	156571	26495	1079981	46841	111100	0	0	8068	565352	0	0
2024-08-26 00:02:47			0	37339	0	0	0	29838	28460	156583	26785	1079963	46853	111103	0	0	8068	565037	0	0
2024-08-26 00:03:47			0	37334	0	0	0	29844	28460	156383	26896	1080008	46864	111105	0	0	8068	565233	0	0
2024-08-26 00:04:47			0	37357	0	0	0	29838	28450	156483	27043	1079972	46851	111103	0	0	8069	564361	0	0
2024-08-26 00:05:47			0	37357	0	0	0	29831	28450	156395	26920	1079972	46851	111100	0	0	8070	564361	0	0
2024-08-26 00:06:47			0	37373	0	0	0	29849	28460	156463	26708	1079981	46875	111107	0	0	8070	563699	0	0
2024-08-26 00:07:47			0	37369	0	0	0	29859	28440	156459	27048	1079954	46840	111111	0	0	8070	563922	0	0
2024-08-26 00:08:47			0	37371	0	0	0	29838	28450	156407	26786	1079936	46851	111103	0	0	8070	563811	0	0
2024-08-26 00:09:47			0	37395	0	0	0	29836	28440	156267	26941	1079873	46863	111102	0	0	8072	562900	0	0
2024-08-26 00:10:47			0	37402	0	0	0	29846	28440	156231	26882	1079900	46863	111106	0	0	8072	562626	0	0
2024-08-26 00:11:47			0	37398	0	0	0	29825	28440	156283	26738	1079819	46851	111098	0	0	8072	562783	0	0
2024-08-26 00:12:47			0	37412	0	0	0	29818	28430	156275	26826	1079882	46849	111095	0	0	8073	562266	0	0
2024-08-26 00:13:47			0	37407	0	0	0	29841	28430	156255	26989	1079774	46849	111104	0	0	8072	562462	0	0
2024-08-26 00:14:47			0	37414	0	0	0	29838	28440	156171	27008	1079810	46850	111103	0	0	8073	562155	0	0
2024-08-26 00:15:47			0	37416	0	0	0	29812	28430	156255	26838	1079882	46849	111093	0	0	8073	562109	0	0
2024-08-26 00:16:47			0	37404	0	0	0	29805	28430	156283	26800	1079801	46849	111090	0	0	8073	562580	0	0
2024-08-26 00:17:47			0	37416	0	0	0	29786	28430	156219	27064	1079738	46860	111083	0	0	8074	562109	0	0
2024-08-26 00:18:47			0	37419	0	0	0	29794	28420	156191	27078	1079747	46860	111086	0	0	8074	562024	0	0
2024-08-26 00:19:47			0	37412	0	0	0	29802	28410	156271	26817	1079765	46847	111089	0	0	8073	562331	0	0
2024-08-26 00:20:47			0	37416	0	0	0	29786	28410	156279	26960	1079675	46846	111083	0	0	8074	562174	0	0
2024-08-26 00:21:47			0	37413	0	0	0	29789	28400	156275	26979	1079638	46846	111084	0	0	8073	562324	0	0
2024-08-26 00:22:47			0	37409	0	0	0	29779	28400	156279	26904	1079665	46858	111080	0	0	8073	562481	0	0
2024-08-26 00:23:47			0	37422	0	0	0	29761	28400	156315	26691	1079575	46846	111073	0	0	8074	561971	0	0
2024-08-26 00:24:47			0	37422	0	0	0	29763	28400	156263	26986	1079602	46846	111074	0	0	8074	561971	0	0
2024-08-26 00:25:47			0	37419	0	0	0	29761	28400	156263	26899	1079602	46846	111073	0	0	8074	562089	0	0
2024-08-26 00:26:47			0	37412	0	0	0	29774	28380	156367	26790	1079557	46856	111078	0	0	8073	562428	0	0
2024-08-26 00:27:47			0	37424	0	0	0	29771	28390	156311	27168	1079540	46834	111077	0	0	8074	561925	0	0
2024-08-26 00:28:47			0	37421	0	0	0	29776	28380	156351	26844	1079575	46833	111079	0	0	8074	562075	0	0
2024-08-26 00:29:47			0	37402	0	0	0	29779	28370	156443	26715	1079566	46844	111080	0	0	8073	562853	0	0
2024-08-26 00:30:47			0	37394	0	0	0	29779	28380	156363	26946	1079548	46856	111080	0	0	8072	563135	0	0
2024-08-26 00:31:47			0	37387	0	0	0	29763	28360	156375	26941	1079494	46854	111074	0	0	8072	563475	0	0
2024-08-26 00:32:47			0	37405	0	0	0	29763	28380	156439	26757	1079548	46856	111074	0	0	8073	562703	0	0
2024-08-26 00:33:47			0	37402	0	0	0	29766	28370	156367	26641	1079431	46867	111075	0	0	8073	562853	0	0
2024-08-26 00:34:47			0	37397	0	0	0	29761	28360	156335	26987	1079494	46854	111073	0	0	8073	563082	0	0
2024-08-26 00:35:47			0	37393	0	0	0	29758	28350	156471	26717	1079476	46841	111072	0	0	8072	563272	0	0
2024-08-26 00:36:47			0	37384	0	0	0	29763	28360	156439	26850	1079512	46853	111074	0	0	8072	563593	0	0
2024-08-26 00:37:47			0	37396	0	0	0	29774	28360	156323	26772	1079575	46854	111078	0	0	8072	563122	0	0
2024-08-26 00:38:47			0	37384	0	0	0	29763	28360	156295	26882	1079485	46864	111074	0	0	8072	563593	0	0
2024-08-26 00:39:47			0	37369	0	0	0	29768	28360	156367	26696	1079494	46854	111076	0	0	8071	564183	0	0
2024-08-26 00:40:47			0	37389	0	0	0	29771	28360	156431	27038	1079521	46865	111077	0	0	8072	563397	0	0
2024-08-26 00:41:47			0	37360	0	0	0	29763	28360	156287	26811	1079485	46841	111074	0	0	8070	564537	0	0
2024-08-26 00:42:47			0	37381	0	0	0	29766	28360	156331	26922	1079494	46875	111075	0	0	8072	563711	0	0
2024-08-26 00:43:47			0	37350	0	0	0	29763	28370	156511	26897	1079557	46866	111074	0	0	8070	564898	0	0
2024-08-26 00:44:47			0	37361	0	0	0	29766	28360	156539	27007	1079566	46853	111075	0	0	8070	564497	0	0
2024-08-26 00:45:47			0	37328	0	0	0	29771	28360	156443	27005	1079494	46865	111077	0	0	8068	565797	0	0
2024-08-26 00:46:47			0	37345	0	0	0	29766	28360	156491	26767	1079467	46854	111075	0	0	8070	565127	0	0
2024-08-26 00:47:47			0	37352	0	0	0	29774	28360	156419	27062	1079512	46853	111078	0	0	8070	564852	0	0
2024-08-26 00:48:47			0	37336	0	0	0	29763	28350	156495	26710	1079440	46841	111074	0	0	8069	565514	0	0
2024-08-26 00:49:47			0	37330	0	0	0	29763	28360	156551	26767	1079467	46854	111074	0	0	8069	565718	0	0
2024-08-26 00:50:47			0	37339	0	0	0	29771	28360	156567	26656	1079431	46853	111077	0	0	8069	565363	0	0
2024-08-26 00:51:47			0	37338	0	0	0	29766	28350	156555	26771	1079449	46841	111075	0	0	8069	565435	0	0
2024-08-26 00:52:47			0	37339	0	0	0	29766	28350	156619	27066	1079494	46864	111075	0	0	8069	565396	0	0
2024-08-26 00:53:47			0	37360	0	0	0	29750	28350	156583	27121	1079386	46853	111069	0	0	8071	564569	0	0
2024-08-26 00:54:47			0	37332	0	0	0	29745	28350	156583	27052	1079359	46841	111067	0	0	8069	565672	0	0
2024-08-26 00:55:47			0	37341	0	0	0	29732	28340	156611	26882	1079377	46852	111062	0	0	8070	565350	0	0
2024-08-26 00:56:47			0	37329	0	0	0	29735	28340	156607	26791	1079323	46852	111063	0	0	8069	565823	0	0
2024-08-26 00:57:47			0	37317	0	0	0	29737	28330	156514	26733	1079296	46851	111064	0	0	8068	566328	0	0
2024-08-26 00:58:47			0	37340	0	0	0	29735	28320	156563	26611	1079368	46861	111063	0	0	8070	565455	0	0
2024-08-26 00:59:47			0	37328	0	0	0	29709	28330	156535	26930	1079305	46862	111053	0	0	8069	565895	0	0
2024-08-26 01:00:47			0	37347	0	0	0	29701	28330	156575	26998	1079332	46851	111050	0	0	8071	565146	0	0
2024-08-26 01:01:47			0	37337	0	0	0	29716	28320	156547	26656	1079341	46861	111056	0	0	8070	565573	0	0
2024-08-26 01:02:47			0	37344	0	0	0	29727	28330	156531	26863	1079323	46851	111060	0	0	8070	565264	0	0
2024-08-26 01:03:47			0	37321	0	0	0	29745	28330	156611	26786	1079332	46851	111067	0	0	8068	566171	0	0
2024-08-26 01:04:47			0	37337	0	0	0	29753	28330	156471	26682	1079323	46873	111070	0	0	8069	565540	0	0
2024-08-26 01:05:47			0	37340	0	0	0	29748	28330	156415	26939	1079323	46851	111068	0	0	8069	565422	0	0
2024-08-26 01:06:47			0	37368	0	0	0	29742	28330	156439	26887	1079305	46851	111066	0	0	8071	564320	0	0
2024-08-26 01:07:47			0	37342	0	0	0	29737	28330	156427	27013	1079350	46862	111064	0	0	8070	565343	0	0
2024-08-26 01:08:47			0	37353	0	0	0	29740	28320	156495	26746	1079278	46849	111065	0	0	8070	564943	0	0
2024-08-26 01:09:47			0	37366	0	0	0	29727	28320	156455	26677	1079233	46838	111060	0	0	8071	564431	0	0
2024-08-26 01:10:47			0	37363	0	0	0	29722	28310	156391	27053	1079242	46837	111058	0	0	8071	564582	0	0
2024-08-26 01:11:47			0	37374	0	0	0	29719	28320	156427	26993	1079260	46850	111057	0	0	8072	564117	0	0
2024-08-26 01:12:47			0	37372	0	0	0	29709	28310	156315	26939	1079206	46849	111053	0	0	8072	564228	0	0
2024-08-26 01:13:47			0	37376	0	0	0	29675	28310	156367	26902	1079125	46860	111040	0	0	8073	564071	0	0
2024-08-26 01:14:47			0	37400	0	0	0	29675	28300	156247	26956	1079197	46848	111040	0	0	8074	563160	0	0
2024-08-26 01:15:47			0	37407	0	0	0	29677	28300	156199	26887	1079170	46836	111041	0	0	8074	562885	0	0
2024-08-26 01:16:47			0	37414	0	0	0	29672	28280	156251	27001	1079053	46824	111039	0	0	8075	562675	0	0
2024-08-26 01:17:47			0	37407	0	0	0	29659	28280	156143	26909	1079053	46846	111034	0	0	8075	562950	0	0
2024-08-26 01:18:47			0	37409	0	0	0	29628	28280	156159	26814	1079070	46833	111022	0	0	8075	562871	0	0
2024-08-26 01:19:47			0	37416	0	0	0	29623	28270	156119	27083	1079061	46855	111020	0	0	8076	562629	0	0
2024-08-26 01:20:47			0	37454	0	0	0	29599	28280	156043	26880	1079080	46846	111011	0	0	8078	561106	0	0
2024-08-26 01:21:47			0	37464	0	0	0	29561	28280	155979	26930	1079070	46845	110996	0	0	8080	560714	0	0
2024-08-26 01:22:47			0	37468	0	0	0	29522	28260	155999	27112	1078962	46844	110981	0	0	8080	560622	0	0
2024-08-26 01:23:47			0	37467	0	0	0	29480	28270	155991	27102	1078926	46844	110965	0	0	8081	560629	0	0
2024-08-26 01:24:47			0	37488	0	0	0	29483	28250	155963	26817	1078863	46820	110966	0	0	8082	559871	0	0
2024-08-26 01:25:47			0	37474	0	0	0	29501	28250	156031	26583	1078782	46842	110973	0	0	8081	560419	0	0
2024-08-26 01:26:47			0	37476	0	0	0	29485	28250	155919	26701	1078836	46842	110967	0	0	8081	560341	0	0
2024-08-26 01:27:47			0	37462	0	0	0	29470	28230	156039	26996	1078719	46851	110961	0	0	8081	560954	0	0
2024-08-26 01:28:47			0	37464	0	0	0	29441	28230	155931	26772	1078629	46829	110950	0	0	8081	560876	0	0
2024-08-26 01:29:47			0	37484	0	0	0	29431	28220	155915	26904	1078485	46817	110946	0	0	8083	560125	0	0
2024-08-26 01:30:47			0	37468	0	0	0	29451	28210	155867	27216	1078575	46816	110954	0	0	8081	560784	0	0
2024-08-26 01:31:47			0	37453	0	0	0	29485	28190	156095	26887	1078511	46814	110967	0	0	8080	561437	0	0
2024-08-26 01:32:47			0	37446	0	0	0	29506	28190	156135	26948	1078448	46824	110975	0	0	8079	561711	0	0
2024-08-26 01:33:47			0	37430	0	0	0	29532	28180	156223	26788	1078484	46813	110985	0	0	8078	562372	0	0
2024-08-26 01:34:47			0	37398	0	0	0	29529	28180	156327	27138	1078430	46824	110984	0	0	8076	563629	0	0
2024-08-26 01:35:47			0	37420	0	0	0	29537	28170	156263	26967	1078448	46823	110987	0	0	8077	562797	0	0
2024-08-26 01:36:47			0	37413	0	0	0	29537	28170	156355	27076	1078385	46833	110987	0	0	8076	563072	0	0
2024-08-26 01:37:47			0	37406	0	0	0	29545	28170	156387	26994	1078412	46833	110990	0	0	8076	563347	0	0
2024-08-26 01:38:47			0	37372	0	0	0	29555	28150	156483	26896	1078358	46832	110994	0	0	8074	564749	0	0
2024-08-26 01:39:47			0	37371	0	0	0	29558	28160	156631	26743	1078430	46844	110995	0	0	8074	564756	0	0
2024-08-26 01:40:47			0	37388	0	0	0	29555	28160	156527	26845	1078502	46832	110994	0	0	8075	564087	0	0
2024-08-26 01:41:47			0	37372	0	0	0	29540	28150	156635	27123	1078385	46832	110988	0	0	8074	564749	0	0
2024-08-26 01:42:47			0	37367	0	0	0	29535	28160	156595	26915	1078421	46821	110986	0	0	8074	564914	0	0
2024-08-26 01:43:47			0	37354	0	0	0	29532	28160	156551	27034	1078430	46822	110985	0	0	8073	565426	0	0
2024-08-26 01:44:47			0	37353	0	0	0	29540	28160	156603	27036	1078421	46843	110988	0	0	8073	565465	0	0
2024-08-26 01:45:47			0	37346	0	0	0	29561	28150	156699	26630	1078412	46821	110996	0	0	8072	565774	0	0
2024-08-26 01:46:47			0	37329	0	0	0	29561	28150	156779	26831	1078465	46843	110996	0	0	8071	566444	0	0
2024-08-26 01:47:47			0	37330	0	0	0	29555	28160	156807	26604	1078529	46843	110994	0	0	8071	566372	0	0
2024-08-26 01:48:47			0	37312	0	0	0	29573	28160	156834	26776	1078556	46854	111001	0	0	8070	567082	0	0
2024-08-26 01:49:47			0	37296	0	0	0	29597	28160	156862	26686	1078511	46855	111010	0	0	8069	567714	0	0
2024-08-26 01:50:47			0	37283	0	0	0	29576	28170	156890	26680	1078493	46844	111002	0	0	8068	568195	0	0
2024-08-26 01:51:47			0	37272	0	0	0	29555	28160	156894	26727	1078502	46821	110994	0	0	8068	568663	0	0
2024-08-26 01:52:47			0	37265	0	0	0	29540	28160	156950	26667	1078475	46821	110988	0	0	8068	568940	0	0
2024-08-26 01:53:47			0	37260	0	0	0	29535	28160	156922	27121	1078421	46821	110986	0	0	8068	569137	0	0
2024-08-26 01:54:47			0	37244	0	0	0	29527	28150	157034	26989	1078438	46821	110983	0	0	8067	569804	0	0
2024-08-26 01:55:47			0	37243	0	0	0	29535	28150	156998	26859	1078349	46831	110986	0	0	8067	569843	0	0
2024-08-26 01:56:47			0	37190	0	0	0	29553	28140	157298	26984	1078357	46830	110993	0	0	8063	571978	0	0
2024-08-26 01:57:47			0	37159	0	0	0	29553	28150	157446	26894	1078349	46842	110993	0	0	8061	573176	0	0
2024-08-26 01:58:47			0	37110	0	0	0	29540	28140	157662	26908	1078330	46841	110988	0	0	8059	575160	0	0
2024-08-26 01:59:47			0	37093	0	0	0	29524	28130	157722	26991	1078312	46830	110982	0	0	8058	575871	0	0
2024-08-26 02:00:47			0	37060	0	0	0	29519	28140	157926	27052	1078250	46808	110980	0	0	8056	577154	0	0
2024-08-26 02:01:47			0	37045	0	0	0	29516	28130	157878	26928	1078258	46818	110979	0	0	8055	577787	0	0
2024-08-26 02:02:47			0	37036	0	0	0	29509	28120	157906	26660	1078222	46830	110976	0	0	8055	578180	0	0
2024-08-26 02:03:47			0	37002	0	0	0	29501	28120	158002	26566	1078159	46817	110973	0	0	8053	579541	0	0
2024-08-26 02:04:47			0	36970	0	0	0	29498	28120	158186	26703	1078267	46817	110972	0	0	8051	580824	0	0
2024-08-26 02:05:47			0	36970	0	0	0	29511	28110	158274	26902	1078114	46816	110977	0	0	8051	580857	0	0
2024-08-26 02:06:47			0	36951	0	0	0	29506	28110	158314	26639	1078177	46817	110975	0	0	8050	581620	0	0
2024-08-26 02:07:47			0	36963	0	0	0	29490	28110	158270	26651	1078114	46805	110969	0	0	8051	581138	0	0
2024-08-26 02:08:47			0	36956	0	0	0	29488	28090	158258	27119	1078069	46815	110968	0	0	8050	581486	0	0
2024-08-26 02:09:47			0	36954	0	0	0	29496	28090	158246	27017	1078042	46815	110971	0	0	8050	581566	0	0
2024-08-26 02:10:47			0	36965	0	0	0	29501	28080	158314	26807	1078051	46803	110973	0	0	8050	581158	0	0
2024-08-26 02:11:47			0	36937	0	0	0	29511	28080	158246	27027	1078078	46814	110977	0	0	8049	582283	0	0
2024-08-26 02:12:47			0	36971	0	0	0	29527	28070	158250	26927	1078060	46813	110983	0	0	8050	580951	0	0
2024-08-26 02:13:47			0	36959	0	0	0	29537	28080	158302	26965	1078024	46836	110987	0	0	8050	581399	0	0
2024-08-26 02:14:47			0	36969	0	0	0	29509	28070	158266	26720	1078033	46824	110976	0	0	8051	581031	0	0
2024-08-26 02:15:47			0	36977	0	0	0	29498	28080	158178	26861	1078078	46825	110972	0	0	8051	580677	0	0
2024-08-26 02:16:47			0	36963	0	0	0	29506	28070	158190	27050	1078060	46835	110975	0	0	8050	581272	0	0
2024-08-26 02:17:47			0	36965	0	0	0	29472	28080	158230	26781	1077997	46825	110962	0	0	8051	581158	0	0
2024-08-26 02:18:47			0	36990	0	0	0	29475	28080	158102	26785	1078015	46824	110963	0	0	8052	580156	0	0
2024-08-26 02:19:47			0	37017	0	0	0	29472	28070	158038	27057	1077970	46834	110962	0	0	8054	579107	0	0
2024-08-26 02:20:47			0	37009	0	0	0	29464	28070	158070	26696	1077916	46812	110959	0	0	8054	579428	0	0
2024-08-26 02:21:47			0	37004	0	0	0	29441	28070	158034	26859	1077943	46823	110950	0	0	8054	579628	0	0
2024-08-26 02:22:47			0	36991	0	0	0	29431	28060	158094	27055	1077898	46822	110946	0	0	8053	580182	0	0
2024-08-26 02:23:47			0	37002	0	0	0	29428	28050	158094	26979	1077862	46811	110945	0	0	8054	579775	0	0
2024-08-26 02:24:47			0	36994	0	0	0	29444	28060	158078	26981	1077952	46822	110951	0	0	8053	580062	0	0
2024-08-26 02:25:47			0	36998	0	0	0	29451	28050	158082	26994	1077862	46844	110954	0	0	8053	579935	0	0
2024-08-26 02:26:47			0	37002	0	0	0	29451	28040	158154	27157	1077871	46820	110954	0	0	8053	579809	0	0
2024-08-26 02:27:47			0	36993	0	0	0	29436	28040	158206	26863	1077844	46832	110948	0	0	8053	580169	0	0
2024-08-26 02:28:47			0	36991	0	0	0	29428	28040	158114	26909	1077835	46832	110945	0	0	8053	580249	0	0
2024-08-26 02:29:47			0	36988	0	0	0	29420	28040	158150	26894	1077844	46832	110942	0	0	8053	580370	0	0
2024-08-26 02:30:47			0	36983	0	0	0	29412	28040	158250	26665	1077817	46809	110939	0	0	8053	580570	0	0
2024-08-26 02:31:47			0	36981	0	0	0	29405	28030	158194	26899	1077763	46819	110936	0	0	8053	580684	0	0
2024-08-26 02:32:47			0	36997	0	0	0	29407	28020	158282	27098	1077664	46807	110937	0	0	8054	580076	0	0
2024-08-26 02:33:47			0	37009	0	0	0	29402	28030	158194	26753	1077709	46819	110935	0	0	8055	579562	0	0
2024-08-26 02:34:47			0	36988	0	0	0	29397	28020	158386	27109	1077700	46818	110933	0	0	8053	580437	0	0
2024-08-26 02:35:47			0	36996	0	0	0	29394	28020	158290	26960	1077637	46818	110932	0	0	8054	580116	0	0
2024-08-26 02:36:47			0	36990	0	0	0	29392	28020	158178	27039	1077610	46830	110931	0	0	8054	580357	0	0
2024-08-26 02:37:47			0	36988	0	0	0	29386	28000	158266	27185	1077636	46838	110929	0	0	8053	580504	0	0
2024-08-26 02:38:47			0	36977	0	0	0	29376	28010	158294	27045	1077619	46817	110925	0	0	8053	580911	0	0
2024-08-26 02:39:47			0	36970	0	0	0	29381	28000	158418	27043	1077610	46816	110927	0	0	8052	581226	0	0
2024-08-26 02:40:47			0	36927	0	0	0	29371	28000	158430	27043	1077574	46805	110923	0	0	8050	582954	0	0
2024-08-26 02:41:47			0	36924	0	0	0	29368	28010	158494	26883	1077592	46817	110922	0	0	8050	583041	0	0
2024-08-26 02:42:47			0	36924	0	0	0	29366	27990	158482	26719	1077591	46827	110921	0	0	8050	583108	0	0
2024-08-26 02:43:47			0	36903	0	0	0	29366	28000	158514	26904	1077547	46816	110921	0	0	8049	583919	0	0
2024-08-26 02:44:47			0	36915	0	0	0	29358	27990	158546	27218	1077529	46815	110918	0	0	8050	583470	0	0
2024-08-26 02:45:47			0	36898	0	0	0	29353	27990	158598	27220	1077511	46827	110916	0	0	8049	584155	0	0
2024-08-26 02:46:47			0	36867	0	0	0	29358	27980	158710	26783	1077457	46825	110918	0	0	8047	585438	0	0
2024-08-26 02:47:47			0	36867	0	0	0	29355	27980	158798	27020	1077519	46826	110917	0	0	8047	585438	0	0
2024-08-26 02:48:47			0	36853	0	0	0	29358	27990	158702	27038	1077475	46827	110918	0	0	8046	585969	0	0
2024-08-26 02:49:47			0	36866	0	0	0	29350	27960	158778	27248	1077402	46801	110915	0	0	8047	585546	0	0
2024-08-26 02:50:47			0	36870	0	0	0	29350	27960	158782	27154	1077393	46811	110915	0	0	8047	585384	0	0
2024-08-26 02:51:47			0	36851	0	0	0	29348	27960	158846	27163	1077483	46812	110914	0	0	8046	586151	0	0
2024-08-26 02:52:47			0	36856	0	0	0	29350	27960	158838	27149	1077456	46812	110915	0	0	8046	585949	0	0
2024-08-26 02:53:47			0	36833	0	0	0	29353	27970	158890	26928	1077438	46813	110916	0	0	8045	586844	0	0
2024-08-26 02:54:47			0	36840	0	0	0	29345	27950	158914	26961	1077411	46823	110913	0	0	8045	586629	0	0
2024-08-26 02:55:47			0	36830	0	0	0	29342	27960	158886	27067	1077366	46823	110912	0	0	8045	586999	0	0
2024-08-26 02:56:47			0	36850	0	0	0	29337	27950	158930	27090	1077411	46823	110910	0	0	8046	586225	0	0
2024-08-26 02:57:47			0	36867	0	0	0	29345	27960	158854	26875	1077366	46811	110913	0	0	8047	585505	0	0
2024-08-26 02:58:47			0	36845	0	0	0	29345	27960	158866	27140	1077340	46845	110913	0	0	8045	586393	0	0
2024-08-26 02:59:47			0	36834	0	0	0	29337	27950	158758	26901	1077357	46811	110910	0	0	8045	586871	0	0
2024-08-26 03:00:47			0	36850	0	0	0	29332	27940	158814	26809	1077312	46822	110908	0	0	8046	586259	0	0
2024-08-26 03:01:47			0	36870	0	0	0	29324	27950	158746	26708	1077321	46800	110905	0	0	8047	585418	0	0
2024-08-26 03:02:47			0	36887	0	0	0	29329	27940	158662	27197	1077339	46810	110907	0	0	8048	584766	0	0
2024-08-26 03:03:47			0	36891	0	0	0	29327	27940	158690	26993	1077276	46821	110906	0	0	8048	584605	0	0
2024-08-26 03:04:47			0	36887	0	0	0	29335	27930	158682	26654	1077321	46821	110909	0	0	8048	584800	0	0
2024-08-26 03:05:47			0	36905	0	0	0	29332	27940	158602	27183	1077330	46809	110908	0	0	8049	584041	0	0
2024-08-26 03:06:47			0	36905	0	0	0	29324	27930	158558	27050	1077267	46809	110905	0	0	8049	584075	0	0
2024-08-26 03:07:47			0	36910	0	0	0	29327	27930	158558	26956	1077285	46809	110906	0	0	8049	583873	0	0
2024-08-26 03:08:47			0	36919	0	0	0	29324	27940	158506	26651	1077222	46809	110905	0	0	8050	583477	0	0
2024-08-26 03:09:47			0	36928	0	0	0	29316	27930	158522	26961	1077285	46821	110902	0	0	8051	583149	0	0
2024-08-26 03:10:47			0	36920	0	0	0	29314	27930	158614	27090	1077267	46809	110901	0	0	8050	583471	0	0
2024-08-26 03:11:47			0	36927	0	0	0	29316	27920	158466	26892	1077276	46831	110902	0	0	8051	583223	0	0
2024-08-26 03:12:47			0	36924	0	0	0	29322	27930	158414	26696	1077258	46821	110904	0	0	8050	583310	0	0
2024-08-26 03:13:47			0	36926	0	0	0	29316	27930	158406	26772	1077177	46821	110902	0	0	8051	583229	0	0
2024-08-26 03:14:47			0	36963	0	0	0	29314	27930	158366	26705	1077231	46821	110901	0	0	8053	581742	0	0
2024-08-26 03:15:47			0	36953	0	0	0	29309	27920	158446	26729	1077222	46797	110899	0	0	8052	582177	0	0
2024-08-26 03:16:47			0	36946	0	0	0	29306	27920	158346	26646	1077195	46820	110898	0	0	8052	582458	0	0
2024-08-26 03:17:47			0	36972	0	0	0	29303	27920	158342	26871	1077222	46808	110897	0	0	8053	581414	0	0
2024-08-26 03:18:47			0	36970	0	0	0	29306	27900	158338	26693	1077132	46806	110898	0	0	8053	581561	0	0
2024-08-26 03:19:47			0	36983	0	0	0	29303	27920	158242	26889	1077195	46831	110897	0	0	8054	580972	0	0
2024-08-26 03:20:47			0	37010	0	0	0	29306	27920	158258	26762	1077213	46807	110898	0	0	8056	579889	0	0
2024-08-26 03:21:47			0	37001	0	0	0	29293	27910	158230	26729	1077168	46795	110893	0	0	8055	580284	0	0
2024-08-26 03:22:47			0	37015	0	0	0	29293	27910	158170	27034	1077123	46818	110893	0	0	8056	579722	0	0
2024-08-26 03:23:47			0	37004	0	0	0	29290	27900	158238	26637	1077051	46806	110892	0	0	8055	580197	0	0
2024-08-26 03:24:47			0	36996	0	0	0	29290	27900	158198	26981	1077186	46806	110892	0	0	8055	580518	0	0
2024-08-26 03:25:47			0	37009	0	0	0	29283	27900	158138	26850	1077105	46806	110889	0	0	8056	579996	0	0
2024-08-26 03:26:47			0	36985	0	0	0	29283	27890	158242	26850	1077060	46804	110889	0	0	8054	580992	0	0
2024-08-26 03:27:47			0	37006	0	0	0	29280	27890	158218	27085	1077060	46804	110888	0	0	8056	580150	0	0
2024-08-26 03:28:47			0	36996	0	0	0	29285	27890	158150	26984	1077033	46793	110890	0	0	8055	580551	0	0
2024-08-26 03:29:47			0	36997	0	0	0	29280	27890	158254	27124	1076979	46793	110888	0	0	8055	580511	0	0
2024-08-26 03:30:47			0	36997	0	0	0	29275	27890	158162	27157	1077060	46793	110886	0	0	8055	580511	0	0
2024-08-26 03:31:47			0	37001	0	0	0	29275	27890	158270	27111	1076997	46804	110886	0	0	8056	580350	0	0
2024-08-26 03:32:47			0	36992	0	0	0	29262	27880	158190	26840	1076961	46816	110881	0	0	8055	580745	0	0
2024-08-26 03:33:47			0	37021	0	0	0	29264	27880	158190	27145	1076961	46816	110882	0	0	8057	579582	0	0
2024-08-26 03:34:47			0	37006	0	0	0	29262	27870	158242	26955	1076970	46791	110881	0	0	8056	580217	0	0
2024-08-26 03:35:47			0	36995	0	0	0	29257	27880	158198	26880	1076952	46815	110879	0	0	8055	580625	0	0
2024-08-26 03:36:47			0	37006	0	0	0	29259	27870	158218	27041	1076943	46802	110880	0	0	8056	580217	0	0
2024-08-26 03:37:47			0	37001	0	0	0	29254	27880	158086	26949	1076952	46803	110878	0	0	8056	580384	0	0
2024-08-26 03:38:47			0	37024	0	0	0	29254	27860	158170	26573	1076925	46802	110878	0	0	8057	579529	0	0
2024-08-26 03:39:47			0	37023	0	0	0	29254	27860	158106	27123	1076871	46791	110878	0	0	8057	579569	0	0
2024-08-26 03:40:47			0	37029	0	0	0	29259	27860	158062	26759	1076898	46802	110880	0	0	8057	579328	0	0
2024-08-26 03:41:47			0	37036	0	0	0	29262	27870	158158	27013	1076907	46802	110881	0	0	8058	579015	0	0
2024-08-26 03:42:47			0	37040	0	0	0	29249	27860	158038	26812	1076925	46802	110876	0	0	8058	578888	0	0
2024-08-26 03:43:47			0	37060	0	0	0	29233	27870	157982	27057	1076853	46802	110870	0	0	8060	578054	0	0
2024-08-26 03:44:47			0	37072	0	0	0	29233	27860	157974	26979	1076844	46802	110870	0	0	8060	577607	0	0
2024-08-26 03:45:47			0	37083	0	0	0	29238	27860	157894	27100	1076835	46801	110872	0	0	8061	577168	0	0
2024-08-26 03:46:47			0	37084	0	0	0	29241	27860	157906	26958	1076862	46813	110873	0	0	8061	577128	0	0
2024-08-26 03:47:47			0	37104	0	0	0	29236	27860	157826	26861	1076862	46813	110871	0	0	8062	576329	0	0
2024-08-26 03:48:47			0	37092	0	0	0	29244	27850	157842	27005	1076799	46800	110874	0	0	8061	576841	0	0
2024-08-26 03:49:47			0	37102	0	0	0	29241	27850	157806	27216	1076817	46811	110873	0	0	8062	576442	0	0
2024-08-26 03:50:47			0	37101	0	0	0	29236	27850	157862	27062	1076871	46799	110871	0	0	8062	576482	0	0
2024-08-26 03:51:47			0	37112	0	0	0	29236	27850	157898	27086	1076844	46811	110871	0	0	8062	576043	0	0
2024-08-26 03:52:47			0	37090	0	0	0	29241	27840	157746	27083	1076781	46811	110873	0	0	8061	576955	0	0
2024-08-26 03:53:47			0	37107	0	0	0	29244	27840	157826	27003	1076781	46799	110874	0	0	8062	576276	0	0
2024-08-26 03:54:47			0	37091	0	0	0	29249	27850	157858	26909	1076817	46822	110876	0	0	8061	576881	0	0
2024-08-26 03:55:47			0	37119	0	0	0	29251	27850	157898	27081	1076853	46800	110877	0	0	8063	575763	0	0
2024-08-26 03:56:47			0	37114	0	0	0	29244	27850	157934	27064	1076790	46799	110874	0	0	8062	575963	0	0
2024-08-26 03:57:47			0	37124	0	0	0	29244	27850	157854	26949	1076790	46799	110874	0	0	8063	575564	0	0
2024-08-26 03:58:47			0	37117	0	0	0	29231	27840	157838	26752	1076835	46811	110869	0	0	8063	575876	0	0
2024-08-26 03:59:47			0	37122	0	0	0	29236	27840	157770	26710	1076772	46799	110871	0	0	8063	575677	0	0
2024-08-26 04:00:47			0	37139	0	0	0	29218	27840	157778	27007	1076781	46799	110864	0	0	8064	574999	0	0
2024-08-26 04:01:47			0	37137	0	0	0	29228	27830	157874	27050	1076736	46798	110868	0	0	8064	575112	0	0
2024-08-26 04:02:47			0	37140	0	0	0	29231	27840	157702	27093	1076754	46799	110869	0	0	8064	574959	0	0
2024-08-26 04:03:47			0	37145	0	0	0	29233	27830	157750	27039	1076736	46821	110870	0	0	8064	574793	0	0
2024-08-26 04:04:47			0	37136	0	0	0	29233	27830	157794	27218	1076763	46788	110870	0	0	8064	575152	0	0
2024-08-26 04:05:47			0	37133	0	0	0	29241	27830	157842	26772	1076709	46810	110873	0	0	8064	575271	0	0
2024-08-26 04:06:47			0	37123	0	0	0	29225	27830	157734	26961	1076709	46810	110867	0	0	8063	575670	0	0
2024-08-26 04:07:47			0	37148	0	0	0	29223	27830	157842	26993	1076736	46810	110866	0	0	8065	574673	0	0
2024-08-26 04:08:47			0	37101	0	0	0	29218	27830	157810	27137	1076763	46798	110864	0	0	8062	576548	0	0
2024-08-26 04:09:47			0	37117	0	0	0	29205	27820	157862	27022	1076691	46797	110859	0	0	8063	575943	0	0
2024-08-26 04:10:47			0	37123	0	0	0	29212	27830	157862	27022	1076673	46787	110862	0	0	8063	575670	0	0
2024-08-26 04:11:47			0	37094	0	0	0	29197	27820	157902	27325	1076682	46797	110856	0	0	8062	576861	0	0
2024-08-26 04:12:47			0	37125	0	0	0	29197	27820	157878	27114	1076637	46820	110856	0	0	8064	575624	0	0
2024-08-26 04:13:47			0	37116	0	0	0	29197	27820	157954	27020	1076637	46820	110856	0	0	8063	575983	0	0
2024-08-26 04:14:47			0	37103	0	0	0	29202	27820	157802	27218	1076574	46797	110858	0	0	8062	576502	0	0
2024-08-26 04:15:47			0	37119	0	0	0	29207	27820	157926	27197	1076664	46797	110860	0	0	8063	575863	0	0
2024-08-26 04:16:47			0	37137	0	0	0	29199	27800	157850	27159	1076601	46795	110857	0	0	8064	575211	0	0
2024-08-26 04:17:47			0	37112	0	0	0	29186	27810	157942	26956	1076583	46795	110852	0	0	8063	576176	0	0
2024-08-26 04:18:47			0	37108	0	0	0	29197	27800	158062	27282	1076601	46795	110856	0	0	8063	576368	0	0
2024-08-26 04:19:47			0	37097	0	0	0	29202	27810	157962	27152	1076592	46808	110858	0	0	8062	576775	0	0
2024-08-26 04:20:47			0	37111	0	0	0	29210	27810	157990	27255	1076610	46807	110861	0	0	8063	576215	0	0
2024-08-26 04:21:47			0	37104	0	0	0	29199	27800	157966	27228	1076601	46795	110857	0	0	8062	576528	0	0
2024-08-26 04:22:47			0	37096	0	0	0	29205	27790	157942	27112	1076484	46818	110859	0	0	8062	576881	0	0
2024-08-26 04:23:47			0	37105	0	0	0	29215	27800	157886	27220	1076601	46807	110863	0	0	8062	576488	0	0
2024-08-26 04:24:47			0	37105	0	0	0	29199	27790	158002	27152	1076618	46807	110857	0	0	8062	576521	0	0
2024-08-26 04:25:47			0	37103	0	0	0	29189	27800	157858	27090	1076547	46795	110853	0	0	8063	576568	0	0
2024-08-26 04:26:47			0	37125	0	0	0	29176	27790	157962	26925	1076484	46807	110848	0	0	8064	575723	0	0
2024-08-26 04:27:47			0	37105	0	0	0	29181	27800	157914	26946	1076520	46795	110850	0	0	8063	576488	0	0
2024-08-26 04:28:47			0	37092	0	0	0	29173	27790	158042	26918	1076502	46806	110847	0	0	8062	577041	0	0
2024-08-26 04:29:47			0	37103	0	0	0	29168	27790	158014	27105	1076475	46794	110845	0	0	8063	576601	0	0
2024-08-26 04:30:47			0	37098	0	0	0	29173	27780	157966	27069	1076520	46793	110847	0	0	8062	576834	0	0
2024-08-26 04:31:47			0	37083	0	0	0	29166	27780	158034	27457	1076429	46815	110844	0	0	8062	577434	0	0
2024-08-26 04:32:47			0	37083	0	0	0	29168	27770	158082	26937	1076447	46792	110845	0	0	8062	577467	0	0
2024-08-26 04:33:47			0	37075	0	0	0	29158	27770	158042	27046	1076447	46792	110841	0	0	8061	577787	0	0
2024-08-26 04:34:47			0	37065	0	0	0	29161	27780	158066	27149	1076429	46792	110842	0	0	8061	578154	0	0
2024-08-26 04:35:47			0	37072	0	0	0	29150	27770	158054	26804	1076420	46792	110838	0	0	8061	577907	0	0
2024-08-26 04:36:47			0	37077	0	0	0	29150	27770	158110	26828	1076384	46804	110838	0	0	8061	577707	0	0
2024-08-26 04:37:47			0	37082	0	0	0	29148	27770	157958	27173	1076340	46782	110837	0	0	8062	577507	0	0
2024-08-26 04:38:47			0	37084	0	0	0	29145	27770	158046	26675	1076357	46782	110836	0	0	8062	577427	0	0
2024-08-26 04:39:47			0	37079	0	0	0	29145	27760	158034	26752	1076429	46791	110836	0	0	8062	577660	0	0
2024-08-26 04:40:47			0	37080	0	0	0	29142	27760	158006	27046	1076402	46814	110835	0	0	8062	577620	0	0
2024-08-26 04:41:47			0	37090	0	0	0	29150	27770	157990	26946	1076357	46792	110838	0	0	8062	577187	0	0
2024-08-26 04:42:47			0	37099	0	0	0	29135	27750	157914	26968	1076330	46791	110832	0	0	8063	576894	0	0
2024-08-26 04:43:47			0	37099	0	0	0	29142	27750	158022	27024	1076223	46791	110835	0	0	8063	576894	0	0
2024-08-26 04:44:47			0	37110	0	0	0	29145	27750	158026	27090	1076357	46802	110836	0	0	8063	576455	0	0
2024-08-26 04:45:47			0	37106	0	0	0	29153	27760	158046	27142	1076393	46791	110839	0	0	8063	576581	0	0
2024-08-26 04:46:47			0	37099	0	0	0	29153	27750	157962	26993	1076357	46802	110839	0	0	8063	576894	0	0
2024-08-26 04:47:47			0	37111	0	0	0	29153	27760	157842	27019	1076312	46813	110839	0	0	8063	576381	0	0
2024-08-26 04:48:47			0	37090	0	0	0	29150	27750	157914	26963	1076348	46802	110838	0	0	8062	577254	0	0
2024-08-26 04:49:47			0	37080	0	0	0	29145	27760	157950	27123	1076366	46802	110836	0	0	8062	577620	0	0
2024-08-26 04:50:47			0	37107	0	0	0	29150	27750	157942	27235	1076348	46802	110838	0	0	8063	576575	0	0
2024-08-26 04:51:47			0	37100	0	0	0	29155	27750	158006	26904	1076348	46791	110840	0	0	8063	576854	0	0
2024-08-26 04:52:47			0	37101	0	0	0	29155	27750	158042	27161	1076348	46802	110840	0	0	8063	576814	0	0
2024-08-26 04:53:47			0	37114	0	0	0	29148	27750	157942	26972	1076375	46802	110837	0	0	8064	576295	0	0
2024-08-26 04:54:47			0	37101	0	0	0	29161	27760	157970	27076	1076259	46813	110842	0	0	8063	576781	0	0
2024-08-26 04:55:47			0	37113	0	0	0	29142	27750	157970	27149	1076276	46802	110835	0	0	8064	576335	0	0
2024-08-26 04:56:47			0	37115	0	0	0	29145	27750	157910	27310	1076348	46802	110836	0	0	8064	576255	0	0
2024-08-26 04:57:47			0	37128	0	0	0	29137	27760	157750	27275	1076339	46802	110833	0	0	8065	575703	0	0
2024-08-26 04:58:47			0	37129	0	0	0	29129	27750	157970	26826	1076303	46791	110830	0	0	8065	575696	0	0
2024-08-26 04:59:47			0	37107	0	0	0	29129	27750	157994	27119	1076294	46791	110830	0	0	8064	576575	0	0
2024-08-26 05:00:47			0	37126	0	0	0	29137	27750	157918	27107	1076303	46791	110833	0	0	8064	575816	0	0
2024-08-26 05:01:47			0	37121	0	0	0	29135	27740	157894	26986	1076330	46800	110832	0	0	8064	576049	0	0
2024-08-26 05:02:47			0	37120	0	0	0	29142	27740	157958	26906	1076303	46811	110835	0	0	8064	576089	0	0
2024-08-26 05:03:47			0	37120	0	0	0	29135	27740	157950	27185	1076276	46789	110832	0	0	8064	576089	0	0
2024-08-26 05:04:47			0	37128	0	0	0	29127	27750	157986	26963	1076294	46791	110829	0	0	8065	575736	0	0
2024-08-26 05:05:47			0	37105	0	0	0	29132	27740	157862	26918	1076285	46812	110831	0	0	8063	576688	0	0
2024-08-26 05:06:47			0	37109	0	0	0	29132	27740	158002	27034	1076222	46789	110831	0	0	8064	576528	0	0
2024-08-26 05:07:47			0	37105	0	0	0	29127	27750	157958	27137	1076240	46802	110829	0	0	8063	576654	0	0
2024-08-26 05:08:47			0	37108	0	0	0	29122	27740	157982	26828	1076195	46811	110827	0	0	8064	576568	0	0
2024-08-26 05:09:47			0	37113	0	0	0	29116	27720	157994	27164	1076195	46799	110825	0	0	8064	576434	0	0
2024-08-26 05:10:47			0	37109	0	0	0	29122	27720	157902	27010	1076168	46799	110827	0	0	8064	576594	0	0
2024-08-26 05:11:47			0	37124	0	0	0	29116	27720	157846	27163	1076168	46799	110825	0	0	8065	575995	0	0
2024-08-26 05:12:47			0	37103	0	0	0	29114	27720	157958	27119	1076168	46799	110824	0	0	8063	576834	0	0
2024-08-26 05:13:47			0	37107	0	0	0	29116	27730	157994	26998	1076213	46800	110825	0	0	8064	576641	0	0
2024-08-26 05:14:47			0	37109	0	0	0	29116	27710	157998	27128	1076123	46798	110825	0	0	8064	576627	0	0
2024-08-26 05:15:47			0	37117	0	0	0	29119	27720	157954	26981	1076141	46788	110826	0	0	8064	576275	0	0
2024-08-26 05:16:47			0	37113	0	0	0	29111	27720	158034	26771	1076168	46799	110823	0	0	8064	576434	0	0
2024-08-26 05:17:47			0	37118	0	0	0	29103	27720	157958	26883	1076159	46798	110820	0	0	8064	576235	0	0
2024-08-26 05:18:47			0	37129	0	0	0	29106	27720	158034	26896	1076159	46798	110821	0	0	8065	575796	0	0
2024-08-26 05:19:47			0	37122	0	0	0	29101	27720	158018	27012	1076105	46798	110819	0	0	8065	576075	0	0
2024-08-26 05:20:47			0	37131	0	0	0	29109	27710	158074	27043	1076150	46798	110822	0	0	8065	575749	0	0
2024-08-26 05:21:47			0	37116	0	0	0	29098	27700	158042	26864	1076105	46786	110818	0	0	8064	576381	0	0
2024-08-26 05:22:47			0	37117	0	0	0	29098	27710	158102	26918	1076141	46786	110818	0	0	8064	576308	0	0
2024-08-26 05:23:47			0	37114	0	0	0	29101	27710	157962	26991	1076141	46808	110819	0	0	8064	576428	0	0
2024-08-26 05:24:47			0	37106	0	0	0	29098	27710	157986	26922	1076087	46797	110818	0	0	8064	576747	0	0
2024-08-26 05:25:47			0	37104	0	0	0	29098	27710	158078	26974	1076087	46808	110818	0	0	8064	576827	0	0
2024-08-26 05:26:47			0	37104	0	0	0	29101	27700	158006	26972	1076069	46785	110819	0	0	8064	576860	0	0
2024-08-26 05:27:47			0	37102	0	0	0	29088	27710	158078	26790	1076006	46808	110814	0	0	8064	576907	0	0
2024-08-26 05:28:47			0	37116	0	0	0	29085	27700	157998	27088	1076015	46774	110813	0	0	8065	576381	0	0
2024-08-26 05:29:47			0	37109	0	0	0	29085	27700	158042	27019	1076051	46775	110813	0	0	8064	576661	0	0
2024-08-26 05:30:47			0	37093	0	0	0	29067	27700	158062	27230	1076042	46785	110806	0	0	8064	577300	0	0
2024-08-26 05:31:47			0	37113	0	0	0	29077	27700	158066	27331	1076042	46785	110810	0	0	8065	576501	0	0
2024-08-26 05:32:47			0	37113	0	0	0	29064	27690	158066	26817	1076006	46784	110805	0	0	8065	576534	0	0
2024-08-26 05:33:47			0	37112	0	0	0	29067	27690	157998	26890	1075979	46795	110806	0	0	8065	576574	0	0
2024-08-26 05:34:47			0	37117	0	0	0	29075	27680	157934	27178	1075961	46784	110809	0	0	8065	576407	0	0
2024-08-26 05:35:47			0	37117	0	0	0	29067	27680	158022	26767	1075934	46784	110806	0	0	8065	576407	0	0
2024-08-26 05:36:47			0	37128	0	0	0	29062	27680	158086	27039	1075934	46784	110804	0	0	8066	575968	0	0
2024-08-26 05:37:47			0	37134	0	0	0	29062	27680	158026	26981	1075925	46783	110804	0	0	8066	575729	0	0
2024-08-26 05:38:47			0	37134	0	0	0	29057	27690	157982	26960	1075970	46761	110802	0	0	8066	575695	0	0
2024-08-26 05:39:47			0	37127	0	0	0	29062	27680	157958	27036	1075934	46806	110804	0	0	8065	576008	0	0
2024-08-26 05:40:47			0	37120	0	0	0	29064	27670	158074	27045	1075907	46804	110805	0	0	8065	576321	0	0
2024-08-26 05:41:47			0	37118	0	0	0	29075	27680	157922	26745	1075952	46794	110809	0	0	8065	576367	0	0
2024-08-26 05:42:47			0	37102	0	0	0	29070	27680	158026	27133	1075898	46783	110807	0	0	8064	577007	0	0
2024-08-26 05:43:47			0	37104	0	0	0	29075	27680	158042	26961	1075898	46783	110809	0	0	8064	576927	0	0
2024-08-26 05:44:47			0	37098	0	0	0	29067	27680	157986	26771	1075898	46805	110806	0	0	8064	577167	0	0
2024-08-26 05:45:47			0	37100	0	0	0	29072	27680	158114	26779	1075898	46783	110808	0	0	8064	577087	0	0
2024-08-26 05:46:47			0	37102	0	0	0	29062	27680	158018	26984	1075952	46794	110804	0	0	8064	577007	0	0
2024-08-26 05:47:47			0	37101	0	0	0	29067	27680	158026	26915	1075907	46795	110806	0	0	8064	577047	0	0
2024-08-26 05:48:47			0	37118	0	0	0	29062	27680	157994	26955	1075845	46794	110804	0	0	8065	576367	0	0
2024-08-26 05:49:47			0	37104	0	0	0	29062	27670	158026	27010	1075853	46793	110804	0	0	8064	576960	0	0
2024-08-26 05:50:47			0	37115	0	0	0	29064	27670	157982	26667	1075862	46782	110805	0	0	8065	576520	0	0
2024-08-26 05:51:47			0	37108	0	0	0	29062	27670	157962	27046	1075826	46782	110804	0	0	8064	576800	0	0
2024-08-26 05:52:47			0	37110	0	0	0	29059	27670	158054	27003	1075889	46815	110803	0	0	8064	576720	0	0
2024-08-26 05:53:47			0	37118	0	0	0	29070	27660	158074	27116	1075898	46782	110807	0	0	8065	576434	0	0
2024-08-26 05:54:47			0	37121	0	0	0	29054	27670	158078	26812	1075800	46815	110801	0	0	8065	576281	0	0
2024-08-26 05:55:47			0	37121	0	0	0	29059	27670	158026	27007	1075835	46782	110803	0	0	8065	576281	0	0
2024-08-26 05:56:47			0	37113	0	0	0	29064	27670	158082	27244	1075800	46793	110805	0	0	8065	576600	0	0
2024-08-26 05:57:47			0	37113	0	0	0	29067	27670	158026	27220	1075880	46793	110806	0	0	8065	576600	0	0
2024-08-26 05:58:47			0	37103	0	0	0	29064	27670	158010	27159	1075862	46793	110805	0	0	8064	577000	0	0
2024-08-26 05:59:47			0	37107	0	0	0	29064	27670	157974	26982	1075862	46782	110805	0	0	8064	576840	0	0
2024-08-26 06:00:47			0	37126	0	0	0	29067	27670	157982	26755	1075880	46782	110806	0	0	8065	576081	0	0
2024-08-26 06:01:47			0	37127	0	0	0	29064	27660	157962	26802	1075844	46804	110805	0	0	8065	576074	0	0
2024-08-26 06:02:47			0	37127	0	0	0	29059	27670	157990	26890	1075934	46793	110803	0	0	8065	576041	0	0
2024-08-26 06:03:47			0	37108	0	0	0	29049	27660	158086	26800	1075862	46781	110799	0	0	8064	576833	0	0
2024-08-26 06:04:47			0	37142	0	0	0	29059	27660	158026	26961	1075835	46792	110803	0	0	8066	575476	0	0
2024-08-26 06:05:47			0	37128	0	0	0	29062	27660	158018	26854	1075817	46793	110804	0	0	8065	576035	0	0
2024-08-26 06:06:47			0	37126	0	0	0	29057	27670	158042	26844	1075907	46782	110802	0	0	8065	576081	0	0
2024-08-26 06:07:47			0	37110	0	0	0	29051	27670	158030	26897	1075907	46782	110800	0	0	8065	576720	0	0
2024-08-26 06:08:47			0	37123	0	0	0	29062	27670	158094	27156	1075880	46793	110804	0	0	8065	576201	0	0
2024-08-26 06:09:47			0	37115	0	0	0	29062	27660	158070	26894	1075790	46793	110804	0	0	8065	576554	0	0
2024-08-26 06:10:47			0	37125	0	0	0	29054	27670	158070	27081	1075800	46793	110801	0	0	8065	576121	0	0
2024-08-26 06:11:47			0	37124	0	0	0	29051	27660	158042	26887	1075844	46782	110800	0	0	8065	576194	0	0
2024-08-26 06:12:47			0	37123	0	0	0	29054	27660	158030	26875	1075844	46782	110801	0	0	8065	576234	0	0
2024-08-26 06:13:47			0	37105	0	0	0	29046	27660	158066	26844	1075835	46792	110798	0	0	8064	576953	0	0
2024-08-26 06:14:47			0	37108	0	0	0	29044	27650	158038	27069	1075799	46791	110797	0	0	8065	576866	0	0
2024-08-26 06:15:47			0	37117	0	0	0	29046	27660	158034	26726	1075808	46781	110798	0	0	8065	576474	0	0
2024-08-26 06:16:47			0	37112	0	0	0	29044	27660	157954	26948	1075808	46792	110797	0	0	8065	576674	0	0
2024-08-26 06:17:47			0	37111	0	0	0	29041	27660	158098	26523	1075808	46781	110796	0	0	8065	576713	0	0
2024-08-26 06:18:47			0	37116	0	0	0	29038	27660	158014	27150	1075862	46792	110795	0	0	8065	576514	0	0
2024-08-26 06:19:47			0	37113	0	0	0	29041	27660	158046	26757	1075781	46803	110796	0	0	8065	576634	0	0
2024-08-26 06:20:47			0	37108	0	0	0	29033	27660	158014	26790	1075755	46792	110793	0	0	8065	576833	0	0
2024-08-26 06:21:47			0	37110	0	0	0	29038	27640	158058	27156	1075808	46768	110795	0	0	8065	576820	0	0
2024-08-26 06:22:47			0	37122	0	0	0	29025	27650	157950	26863	1075826	46780	110790	0	0	8066	576307	0	0
2024-08-26 06:23:47			0	37111	0	0	0	29031	27650	158010	26547	1075763	46791	110792	0	0	8065	576747	0	0
2024-08-26 06:24:47			0	37124	0	0	0	29033	27650	157934	26635	1075763	46791	110793	0	0	8066	576227	0	0
2024-08-26 06:25:47			0	37107	0	0	0	29025	27630	157998	26762	1075762	46790	110790	0	0	8065	576973	0	0
2024-08-26 06:26:47			0	37092	0	0	0	29033	27630	157954	26589	1075700	46790	110793	0	0	8064	577573	0	0
2024-08-26 06:27:47			0	37113	0	0	0	29028	27630	157870	26866	1075753	46767	110791	0	0	8065	576733	0	0
2024-08-26 06:28:47			0	37108	0	0	0	29023	27650	158062	27157	1075718	46791	110789	0	0	8065	576866	0	0
2024-08-26 06:29:47			0	37111	0	0	0	29025	27630	158022	26967	1075735	46778	110790	0	0	8065	576813	0	0
2024-08-26 06:30:47			0	37101	0	0	0	29031	27650	157990	26864	1075736	46791	110792	0	0	8064	577146	0	0
2024-08-26 06:31:47			0	37105	0	0	0	29036	27640	158018	27156	1075718	46791	110794	0	0	8064	577020	0	0
2024-08-26 06:32:47			0	37096	0	0	0	29046	27630	158018	27074	1075762	46790	110798	0	0	8064	577413	0	0
2024-08-26 06:33:47			0	37111	0	0	0	29041	27630	158058	27039	1075735	46790	110796	0	0	8065	576813	0	0
2024-08-26 06:34:47			0	37095	0	0	0	29041	27630	158022	26996	1075762	46800	110796	0	0	8064	577453	0	0
2024-08-26 06:35:47			0	37110	0	0	0	29049	27640	158054	26972	1075718	46791	110799	0	0	8065	576820	0	0
2024-08-26 06:36:47			0	37116	0	0	0	29041	27630	158066	27064	1075735	46790	110796	0	0	8065	576613	0	0
2024-08-26 06:37:47			0	37110	0	0	0	29031	27650	158062	27038	1075763	46791	110792	0	0	8065	576787	0	0
2024-08-26 06:38:47			0	37113	0	0	0	29020	27640	158054	27213	1075691	46791	110788	0	0	8065	576700	0	0
2024-08-26 06:39:47			0	37109	0	0	0	29033	27640	158006	27001	1075718	46791	110793	0	0	8065	576860	0	0
2024-08-26 06:40:47			0	37109	0	0	0	29028	27630	157958	27048	1075673	46790	110791	0	0	8065	576893	0	0
2024-08-26 06:41:47			0	37107	0	0	0	29025	27630	158114	27196	1075700	46790	110790	0	0	8065	576973	0	0
2024-08-26 06:42:47			0	37104	0	0	0	29028	27630	158002	26955	1075709	46790	110791	0	0	8064	577093	0	0
2024-08-26 06:43:47			0	37096	0	0	0	29033	27620	158010	27197	1075690	46777	110793	0	0	8064	577446	0	0
2024-08-26 06:44:47			0	37090	0	0	0	29028	27630	158042	27175	1075726	46800	110791	0	0	8064	577653	0	0
2024-08-26 06:45:47			0	37095	0	0	0	29031	27630	158070	27114	1075735	46790	110792	0	0	8064	577453	0	0
2024-08-26 06:46:47			0	37087	0	0	0	29038	27630	158114	27081	1075709	46790	110795	0	0	8063	577773	0	0
2024-08-26 06:47:47			0	37089	0	0	0	29038	27640	158058	27159	1075691	46791	110795	0	0	8063	577659	0	0
2024-08-26 06:48:47			0	37104	0	0	0	29031	27650	158174	26925	1075736	46802	110792	0	0	8065	577026	0	0
2024-08-26 06:49:47			0	37093	0	0	0	29025	27640	158006	27374	1075754	46791	110790	0	0	8064	577499	0	0
2024-08-26 06:50:47			0	37099	0	0	0	29023	27630	158118	27434	1075726	46790	110789	0	0	8064	577293	0	0
2024-08-26 06:51:47			0	37074	0	0	0	29018	27630	158174	27005	1075673	46800	110787	0	0	8063	578293	0	0
2024-08-26 06:52:47			0	37095	0	0	0	29020	27620	158074	27027	1075744	46777	110788	0	0	8064	577486	0	0
2024-08-26 06:53:47			0	37093	0	0	0	29012	27620	157994	27161	1075690	46789	110785	0	0	8064	577566	0	0
2024-08-26 06:54:47			0	37098	0	0	0	29023	27620	158058	27092	1075717	46777	110789	0	0	8064	577366	0	0
2024-08-26 06:55:47			0	37097	0	0	0	29018	27630	158050	27012	1075735	46790	110787	0	0	8064	577373	0	0
2024-08-26 06:56:47			0	37087	0	0	0	29028	27620	158158	26890	1075717	46789	110791	0	0	8063	577806	0	0
2024-08-26 06:57:47			0	37080	0	0	0	29031	27630	158094	26953	1075673	46811	110792	0	0	8063	578053	0	0
2024-08-26 06:58:47			0	37076	0	0	0	29044	27630	158078	26942	1075753	46800	110797	0	0	8063	578213	0	0
2024-08-26 06:59:47			0	37085	0	0	0	29051	27630	158174	26979	1075735	46800	110800	0	0	8063	577853	0	0
2024-08-26 07:00:47			0	37084	0	0	0	29064	27640	158090	26816	1075825	46801	110805	0	0	8063	577860	0	0
2024-08-26 07:01:47			0	37083	0	0	0	29054	27650	158022	27187	1075817	46791	110801	0	0	8063	577866	0	0
2024-08-26 07:02:47			0	37087	0	0	0	29046	27650	158146	27072	1075763	46802	110798	0	0	8063	577706	0	0
2024-08-26 07:03:47			0	37078	0	0	0	29046	27650	158070	27287	1075844	46791	110798	0	0	8063	578066	0	0
2024-08-26 07:04:47			0	37079	0	0	0	29036	27650	158082	27294	1075817	46791	110794	0	0	8063	578026	0	0
2024-08-26 07:05:47			0	37062	0	0	0	29059	27640	158146	27020	1075798	46779	110803	0	0	8062	578740	0	0
2024-08-26 07:06:47			0	37063	0	0	0	29062	27650	158214	27157	1075826	46802	110804	0	0	8062	578667	0	0
2024-08-26 07:07:47			0	37059	0	0	0	29070	27650	158182	27362	1075826	46802	110807	0	0	8061	578827	0	0
2024-08-26 07:08:47			0	37054	0	0	0	29064	27660	158206	26944	1075817	46804	110805	0	0	8061	578994	0	0
2024-08-26 07:09:47			0	37051	0	0	0	29059	27660	158322	26757	1075835	46803	110803	0	0	8061	579114	0	0
2024-08-26 07:10:47			0	37055	0	0	0	29046	27660	158298	26863	1075844	46782	110798	0	0	8061	578954	0	0
2024-08-26 07:11:47			0	37053	0	0	0	29041	27660	158246	26897	1075808	46770	110796	0	0	8061	579034	0	0
2024-08-26 07:12:47			0	37056	0	0	0	29062	27650	158282	27036	1075817	46780	110804	0	0	8061	578947	0	0
2024-08-26 07:13:47			0	37049	0	0	0	29049	27660	158262	27159	1075889	46792	110799	0	0	8061	579194	0	0
2024-08-26 07:14:47			0	37049	0	0	0	29046	27660	158382	26932	1075808	46770	110798	0	0	8061	579194	0	0
2024-08-26 07:15:47			0	37034	0	0	0	29041	27650	158342	27046	1075799	46780	110796	0	0	8060	579829	0	0
2024-08-26 07:16:47			0	37042	0	0	0	29044	27650	158338	27190	1075826	46791	110797	0	0	8061	579508	0	0
2024-08-26 07:17:47			0	37019	0	0	0	29054	27650	158294	27053	1075826	46791	110801	0	0	8059	580431	0	0
2024-08-26 07:18:47			0	37019	0	0	0	29051	27660	158310	27137	1075790	46804	110800	0	0	8059	580397	0	0
2024-08-26 07:19:47			0	37012	0	0	0	29057	27660	158246	27086	1075835	46803	110802	0	0	8059	580678	0	0
2024-08-26 07:20:47			0	37014	0	0	0	29059	27660	158302	27112	1075862	46781	110803	0	0	8059	580598	0	0
2024-08-26 07:21:47			0	37012	0	0	0	29057	27650	158306	26944	1075772	46791	110802	0	0	8059	580712	0	0
2024-08-26 07:22:47			0	37006	0	0	0	29057	27660	158274	26698	1075862	46792	110802	0	0	8058	580919	0	0
2024-08-26 07:23:47			0	37024	0	0	0	29054	27650	158418	27019	1075880	46780	110801	0	0	8059	580230	0	0
2024-08-26 07:24:47			0	37034	0	0	0	29057	27660	158398	27135	1075835	46792	110802	0	0	8060	579796	0	0
2024-08-26 07:25:47			0	37005	0	0	0	29054	27650	158426	27038	1075790	46791	110801	0	0	8058	580993	0	0
2024-08-26 07:26:47			0	37002	0	0	0	29044	27650	158354	26948	1075817	46791	110797	0	0	8058	581113	0	0
2024-08-26 07:27:47			0	36981	0	0	0	29044	27650	158398	27213	1075790	46802	110797	0	0	8057	581957	0	0
2024-08-26 07:28:47			0	37005	0	0	0	29041	27660	158550	26823	1075844	46793	110796	0	0	8059	580959	0	0
2024-08-26 07:29:47			0	36967	0	0	0	29041	27650	158478	26863	1075763	46780	110796	0	0	8056	582520	0	0
2024-08-26 07:30:47			0	36966	0	0	0	29038	27650	158582	26765	1075718	46791	110795	0	0	8056	582560	0	0
2024-08-26 07:31:47			0	36957	0	0	0	29036	27650	158570	27024	1075763	46791	110794	0	0	8056	582922	0	0
2024-08-26 07:32:47			0	36938	0	0	0	29041	27650	158622	27170	1075772	46802	110796	0	0	8055	583687	0	0
2024-08-26 07:33:47			0	36935	0	0	0	29046	27650	158594	27248	1075763	46791	110798	0	0	8054	583808	0	0
2024-08-26 07:34:47			0	36931	0	0	0	29044	27630	158650	27015	1075816	46790	110797	0	0	8054	584037	0	0
2024-08-26 07:35:47			0	36936	0	0	0	29044	27630	158706	27130	1075762	46790	110797	0	0	8054	583835	0	0
2024-08-26 07:36:47			0	36930	0	0	0	29028	27650	158766	26961	1075790	46791	110791	0	0	8054	584010	0	0
2024-08-26 07:37:47			0	36912	0	0	0	29028	27640	158698	26850	1075771	46779	110791	0	0	8053	584769	0	0
2024-08-26 07:38:47			0	36930	0	0	0	29036	27650	158678	26890	1075790	46791	110794	0	0	8054	584010	0	0
2024-08-26 07:39:47			0	36917	0	0	0	29025	27650	158714	27107	1075772	46780	110790	0	0	8054	584534	0	0
2024-08-26 07:40:47			0	36922	0	0	0	29033	27630	158710	27230	1075726	46778	110793	0	0	8054	584399	0	0
2024-08-26 07:41:47			0	36927	0	0	0	29018	27640	158682	27088	1075718	46791	110787	0	0	8054	584164	0	0
2024-08-26 07:42:47			0	36923	0	0	0	29020	27640	158638	27170	1075700	46779	110788	0	0	8054	584325	0	0
2024-08-26 07:43:47			0	36934	0	0	0	29020	27630	158586	26824	1075682	46790	110788	0	0	8055	583916	0	0
2024-08-26 07:44:47			0	36919	0	0	0	29023	27640	158678	26892	1075718	46768	110789	0	0	8054	584487	0	0
2024-08-26 07:45:47			0	36949	0	0	0	29018	27630	158678	27076	1075682	46790	110787	0	0	8056	583311	0	0
2024-08-26 07:46:47			0	36943	0	0	0	29012	27630	158674	27069	1075735	46778	110785	0	0	8055	583553	0	0
2024-08-26 07:47:47			0	36941	0	0	0	29010	27630	158618	27116	1075682	46790	110784	0	0	8055	583634	0	0
2024-08-26 07:48:47			0	36932	0	0	0	28999	27630	158662	27199	1075673	46778	110780	0	0	8055	583996	0	0
2024-08-26 07:49:47			0	36951	0	0	0	28994	27620	158598	26946	1075637	46766	110778	0	0	8056	583265	0	0
2024-08-26 07:50:47			0	36936	0	0	0	28986	27620	158714	27055	1075637	46777	110775	0	0	8055	583869	0	0
2024-08-26 07:51:47			0	36942	0	0	0	28984	27620	158602	26760	1075574	46777	110774	0	0	8056	583627	0	0
2024-08-26 07:52:47			0	36947	0	0	0	28979	27610	158578	27060	1075538	46776	110772	0	0	8056	583459	0	0
2024-08-26 07:53:47			0	36952	0	0	0	28976	27600	158570	26850	1075484	46775	110771	0	0	8056	583291	0	0
2024-08-26 07:54:47			0	36951	0	0	0	28992	27610	158642	27062	1075583	46787	110777	0	0	8056	583298	0	0
2024-08-26 07:55:47			0	36955	0	0	0	28981	27590	158634	26885	1075502	46774	110773	0	0	8056	583204	0	0
2024-08-26 07:56:47			0	36936	0	0	0	28984	27600	158638	27079	1075484	46775	110774	0	0	8055	583936	0	0
2024-08-26 07:57:47			0	36947	0	0	0	28981	27600	158602	27227	1075520	46775	110773	0	0	8056	583493	0	0
2024-08-26 07:58:47			0	36963	0	0	0	28971	27600	158622	26987	1075484	46787	110769	0	0	8057	582849	0	0
2024-08-26 07:59:47			0	36944	0	0	0	28981	27590	158670	27111	1075546	46784	110773	0	0	8056	583647	0	0
2024-08-26 08:00:47			0	36974	0	0	0	28976	27590	158690	26885	1075475	46786	110771	0	0	8058	582440	0	0
2024-08-26 08:01:47			0	36946	0	0	0	28971	27590	158694	26986	1075529	46796	110769	0	0	8056	583567	0	0
2024-08-26 08:02:47			0	36971	0	0	0	28986	27590	158638	27119	1075519	46773	110775	0	0	8057	582560	0	0
2024-08-26 08:03:47			0	36947	0	0	0	28976	27590	158542	26967	1075519	46784	110771	0	0	8056	583526	0	0
2024-08-26 08:04:47			0	36960	0	0	0	28986	27580	158606	27095	1075457	46795	110775	0	0	8056	583036	0	0
2024-08-26 08:05:47			0	36965	0	0	0	28968	27590	158606	26849	1075529	46786	110768	0	0	8057	582802	0	0
2024-08-26 08:06:47			0	36957	0	0	0	28986	27600	158586	27156	1075538	46775	110775	0	0	8056	583090	0	0
2024-08-26 08:07:47			0	36964	0	0	0	28992	27590	158654	26852	1075475	46786	110777	0	0	8057	582842	0	0
2024-08-26 08:08:47			0	36967	0	0	0	28984	27590	158586	27192	1075466	46795	110774	0	0	8057	582721	0	0
2024-08-26 08:09:47			0	36958	0	0	0	28984	27590	158598	27187	1075493	46795	110774	0	0	8056	583083	0	0
2024-08-26 08:10:47			0	36954	0	0	0	28979	27590	158514	27303	1075439	46773	110772	0	0	8056	583245	0	0
2024-08-26 08:11:47			0	36973	0	0	0	28989	27590	158518	27071	1075502	46786	110776	0	0	8057	582480	0	0
2024-08-26 08:12:47			0	36984	0	0	0	28989	27580	158546	27157	1075484	46773	110776	0	0	8058	582071	0	0
2024-08-26 08:13:47			0	36961	0	0	0	28971	27580	158626	27128	1075484	46784	110769	0	0	8057	582996	0	0
2024-08-26 08:14:47			0	36985	0	0	0	28968	27590	158586	27275	1075466	46784	110768	0	0	8058	581997	0	0
2024-08-26 08:15:47			0	36972	0	0	0	28963	27580	158642	27105	1075510	46784	110766	0	0	8058	582553	0	0
2024-08-26 08:16:47			0	36978	0	0	0	28973	27590	158562	27095	1075439	46784	110770	0	0	8058	582279	0	0
2024-08-26 08:17:47			0	36965	0	0	0	28971	27580	158638	27045	1075457	46784	110769	0	0	8057	582835	0	0
2024-08-26 08:18:47			0	36968	0	0	0	28971	27580	158630	27189	1075448	46794	110769	0	0	8057	582715	0	0
2024-08-26 08:19:47			0	36968	0	0	0	28979	27580	158514	27377	1075448	46772	110772	0	0	8057	582715	0	0
2024-08-26 08:20:47			0	36966	0	0	0	28981	27580	158654	27305	1075430	46773	110773	0	0	8057	582795	0	0
2024-08-26 08:21:47			0	36963	0	0	0	28968	27570	158606	27053	1075438	46784	110768	0	0	8057	582949	0	0
2024-08-26 08:22:47			0	36965	0	0	0	28971	27570	158586	27227	1075438	46761	110769	0	0	8057	582869	0	0
2024-08-26 08:23:47			0	36958	0	0	0	28973	27570	158710	27326	1075412	46772	110770	0	0	8057	583150	0	0
2024-08-26 08:24:47			0	36965	0	0	0	28963	27570	158574	27126	1075412	46784	110766	0	0	8057	582869	0	0
2024-08-26 08:25:47			0	36964	0	0	0	28973	27580	158666	27168	1075421	46794	110770	0	0	8057	582875	0	0
2024-08-26 08:26:47			0	36948	0	0	0	28968	27570	158610	26974	1075429	46783	110768	0	0	8056	583553	0	0
2024-08-26 08:27:47			0	36946	0	0	0	28976	27570	158634	27326	1075403	46783	110771	0	0	8056	583634	0	0
2024-08-26 08:28:47			0	36939	0	0	0	28986	27590	158594	27182	1075519	46784	110775	0	0	8055	583849	0	0
2024-08-26 08:29:47			0	36927	0	0	0	28999	27580	158722	27353	1075474	46784	110780	0	0	8054	584366	0	0
2024-08-26 08:30:47			0	36931	0	0	0	28994	27580	158746	27178	1075474	46794	110778	0	0	8055	584205	0	0
2024-08-26 08:31:47			0	36936	0	0	0	28994	27580	158694	27228	1075448	46772	110778	0	0	8055	584003	0	0
2024-08-26 08:32:47			0	36938	0	0	0	28997	27580	158618	27239	1075501	46794	110779	0	0	8055	583923	0	0
2024-08-26 08:33:47			0	36948	0	0	0	28984	27580	158570	27189	1075501	46794	110774	0	0	8056	583520	0	0
2024-08-26 08:34:47			0	36952	0	0	0	28979	27580	158698	27386	1075484	46784	110772	0	0	8056	583359	0	0
2024-08-26 08:35:47			0	36925	0	0	0	28986	27590	158566	27526	1075466	46795	110775	0	0	8054	584413	0	0
2024-08-26 08:36:47			0	36938	0	0	0	28973	27590	158698	27367	1075493	46784	110770	0	0	8055	583889	0	0
2024-08-26 08:37:47			0	36914	0	0	0	28973	27580	158666	27017	1075457	46773	110770	0	0	8054	584890	0	0
2024-08-26 08:38:47			0	36927	0	0	0	28966	27580	158678	27232	1075421	46784	110767	0	0	8055	584366	0	0
2024-08-26 08:39:47			0	36936	0	0	0	28973	27580	158690	27031	1075510	46773	110770	0	0	8055	584003	0	0
2024-08-26 08:40:47			0	36914	0	0	0	28979	27580	158650	27488	1075448	46784	110772	0	0	8054	584890	0	0
2024-08-26 08:41:47			0	36924	0	0	0	28961	27580	158598	27248	1075430	46773	110765	0	0	8055	584487	0	0
2024-08-26 08:42:47			0	36921	0	0	0	28981	27570	158694	26991	1075412	46794	110773	0	0	8054	584641	0	0
2024-08-26 08:43:47			0	36935	0	0	0	28966	27580	158742	27332	1075448	46794	110767	0	0	8055	584043	0	0
2024-08-26 08:44:47			0	36907	0	0	0	28979	27580	158694	27102	1075484	46784	110772	0	0	8053	585173	0	0
2024-08-26 08:45:47			0	36919	0	0	0	28973	27570	158670	27183	1075376	46793	110770	0	0	8054	584722	0	0
2024-08-26 08:46:47			0	36899	0	0	0	28979	27590	158722	27034	1075529	46774	110772	0	0	8053	585462	0	0
2024-08-26 08:47:47			0	36902	0	0	0	28979	27580	158830	27319	1075421	46784	110772	0	0	8053	585374	0	0
2024-08-26 08:48:47			0	36907	0	0	0	28989	27580	158786	27279	1075457	46784	110776	0	0	8053	585173	0	0
2024-08-26 08:49:47			0	36906	0	0	0	28992	27590	158774	27230	1075493	46784	110777	0	0	8053	585179	0	0
2024-08-26 08:50:47			0	36913	0	0	0	28994	27570	158810	27403	1075465	46794	110778	0	0	8054	584964	0	0
2024-08-26 08:51:47			0	36881	0	0	0	28999	27580	158890	27242	1075510	46795	110780	0	0	8052	586223	0	0
2024-08-26 08:52:47			0	36887	0	0	0	28992	27580	158778	27041	1075484	46784	110777	0	0	8052	585980	0	0
2024-08-26 08:53:47			0	36892	0	0	0	28986	27580	158770	27211	1075501	46794	110775	0	0	8052	585778	0	0
2024-08-26 08:54:47			0	36907	0	0	0	28986	27590	158854	27334	1075493	46784	110775	0	0	8053	585139	0	0
2024-08-26 08:55:47			0	36896	0	0	0	28981	27590	158870	27457	1075466	46773	110773	0	0	8053	585583	0	0
2024-08-26 08:56:47			0	36900	0	0	0	28976	27590	158926	27197	1075466	46773	110771	0	0	8053	585421	0	0
2024-08-26 08:57:47			0	36884	0	0	0	28976	27590	158886	26993	1075546	46784	110771	0	0	8052	586068	0	0
2024-08-26 08:58:47			0	36886	0	0	0	28976	27580	158926	27360	1075501	46784	110771	0	0	8052	586020	0	0
2024-08-26 08:59:47			0	36865	0	0	0	28984	27580	158918	27235	1075510	46784	110774	0	0	8051	586869	0	0
2024-08-26 09:00:47			0	36881	0	0	0	28979	27580	158926	27230	1075501	46784	110772	0	0	8052	586223	0	0
2024-08-26 09:01:47			0	36883	0	0	0	28989	27580	158834	27071	1075510	46795	110776	0	0	8052	586142	0	0
2024-08-26 09:02:47			0	36878	0	0	0	28984	27580	158854	27067	1075501	46784	110774	0	0	8052	586344	0	0
2024-08-26 09:03:47			0	36930	0	0	0	28979	27570	158802	27308	1075412	46784	110772	0	0	8055	584279	0	0
2024-08-26 09:04:47			0	36904	0	0	0	28979	27590	158754	27116	1075493	46784	110772	0	0	8053	585260	0	0
2024-08-26 09:05:47			0	36899	0	0	0	28973	27580	158858	27201	1075430	46784	110770	0	0	8053	585496	0	0
2024-08-26 09:06:47			0	36899	0	0	0	28981	27590	158818	27367	1075519	46773	110773	0	0	8053	585462	0	0
2024-08-26 09:07:47			0	36908	0	0	0	28979	27590	158826	27104	1075439	46784	110772	0	0	8054	585099	0	0
2024-08-26 09:08:47			0	36919	0	0	0	28976	27580	158842	26866	1075484	46784	110771	0	0	8054	584689	0	0
2024-08-26 09:09:47			0	36899	0	0	0	28979	27580	158738	27220	1075403	46773	110772	0	0	8053	585496	0	0
2024-08-26 09:10:47			0	36897	0	0	0	28984	27580	158850	27183	1075484	46795	110774	0	0	8053	585576	0	0
2024-08-26 09:11:47			0	36910	0	0	0	28981	27580	158686	27350	1075555	46784	110773	0	0	8054	585052	0	0
2024-08-26 09:12:47			0	36898	0	0	0	28984	27590	158694	27303	1075519	46773	110774	0	0	8053	585502	0	0
2024-08-26 09:13:47			0	36913	0	0	0	28981	27590	158774	27388	1075493	46784	110773	0	0	8054	584897	0	0
2024-08-26 09:14:47			0	36911	0	0	0	28986	27580	158718	27350	1075501	46784	110775	0	0	8054	585011	0	0
2024-08-26 09:15:47			0	36913	0	0	0	28989	27590	158654	27166	1075546	46773	110776	0	0	8054	584897	0	0
2024-08-26 09:16:47			0	36903	0	0	0	28981	27580	158734	27015	1075537	46784	110773	0	0	8053	585334	0	0
2024-08-26 09:17:47			0	36930	0	0	0	28989	27580	158702	27137	1075484	46784	110776	0	0	8055	584245	0	0
2024-08-26 09:18:47			0	36935	0	0	0	28986	27580	158610	27391	1075484	46795	110775	0	0	8055	584043	0	0
2024-08-26 09:19:47			0	36954	0	0	0	28989	27590	158742	27092	1075519	46784	110776	0	0	8056	583245	0	0
2024-08-26 09:20:47			0	36935	0	0	0	28984	27590	158734	27194	1075519	46773	110774	0	0	8055	584010	0	0
2024-08-26 09:21:47			0	36940	0	0	0	28984	27580	158674	27079	1075510	46762	110774	0	0	8055	583842	0	0
2024-08-26 09:22:47			0	36933	0	0	0	28994	27590	158690	26710	1075502	46807	110778	0	0	8055	584090	0	0
2024-08-26 09:23:47			0	36940	0	0	0	28997	27600	158634	27225	1075538	46775	110779	0	0	8055	583775	0	0
2024-08-26 09:24:47			0	36943	0	0	0	28989	27590	158662	27156	1075493	46773	110776	0	0	8055	583688	0	0
2024-08-26 09:25:47			0	36947	0	0	0	28992	27590	158598	27390	1075546	46784	110777	0	0	8056	583526	0	0
2024-08-26 09:26:47			0	36937	0	0	0	28992	27590	158686	27159	1075493	46784	110777	0	0	8055	583929	0	0
2024-08-26 09:27:47			0	36917	0	0	0	28997	27590	158662	27239	1075519	46784	110779	0	0	8054	584736	0	0
2024-08-26 09:28:47			0	36957	0	0	0	28999	27590	158678	27327	1075502	46786	110780	0	0	8056	583124	0	0
2024-08-26 09:29:47			0	36954	0	0	0	28999	27590	158642	26965	1075519	46773	110780	0	0	8056	583245	0	0
2024-08-26 09:30:47			0	36974	0	0	0	29005	27590	158566	27229	1075519	46795	110782	0	0	8057	582440	0	0
2024-08-26 09:31:47			0	36966	0	0	0	29002	27580	158610	27287	1075564	46795	110781	0	0	8057	582795	0	0
2024-08-26 09:32:47			0	36977	0	0	0	29005	27590	158646	27244	1075555	46796	110782	0	0	8057	582319	0	0
2024-08-26 09:33:47			0	36976	0	0	0	29012	27600	158458	27386	1075591	46797	110785	0	0	8057	582326	0	0
2024-08-26 09:34:47			0	36982	0	0	0	29015	27590	158462	27268	1075609	46786	110786	0	0	8057	582118	0	0
2024-08-26 09:35:47			0	36991	0	0	0	29020	27600	158470	27161	1075600	46797	110788	0	0	8058	581722	0	0
2024-08-26 09:36:47			0	36995	0	0	0	29023	27600	158494	27336	1075645	46775	110789	0	0	8058	581562	0	0
2024-08-26 09:37:47			0	36994	0	0	0	29010	27600	158410	27235	1075699	46797	110784	0	0	8058	581602	0	0
2024-08-26 09:38:47			0	37010	0	0	0	29018	27600	158442	27085	1075645	46787	110787	0	0	8059	580959	0	0
2024-08-26 09:39:47			0	37020	0	0	0	29018	27610	158330	27287	1075690	46797	110787	0	0	8060	580524	0	0
2024-08-26 09:40:47			0	37018	0	0	0	29020	27610	158334	26821	1075699	46798	110788	0	0	8059	580604	0	0
2024-08-26 09:41:47			0	37049	0	0	0	29020	27610	158234	27137	1075636	46797	110788	0	0	8061	579361	0	0
2024-08-26 09:42:47			0	37044	0	0	0	29018	27610	158130	27261	1075690	46808	110787	0	0	8061	579562	0	0
2024-08-26 09:43:47			0	37029	0	0	0	29020	27610	158226	27066	1075672	46788	110788	0	0	8060	580163	0	0
2024-08-26 09:44:47			0	37048	0	0	0	29023	27610	158118	27479	1075717	46775	110789	0	0	8061	579401	0	0
2024-08-26 09:45:47			0	37083	0	0	0	29023	27610	158030	27296	1075672	46776	110789	0	0	8063	577999	0	0
2024-08-26 09:46:47			0	37092	0	0	0	29023	27610	158106	27126	1075672	46798	110789	0	0	8064	577639	0	0
2024-08-26 09:47:47			0	37093	0	0	0	29033	27620	157962	27024	1075664	46799	110793	0	0	8064	577566	0	0
2024-08-26 09:48:47			0	37097	0	0	0	29020	27620	158058	27305	1075681	46799	110788	0	0	8064	577406	0	0
2024-08-26 09:49:47			0	37118	0	0	0	29020	27610	157942	27060	1075699	46788	110788	0	0	8065	576600	0	0
2024-08-26 09:50:47			0	37100	0	0	0	29031	27630	157946	26961	1075726	46790	110792	0	0	8064	577253	0	0
2024-08-26 09:51:47			0	37125	0	0	0	29023	27620	157886	27059	1075655	46789	110789	0	0	8066	576287	0	0
2024-08-26 09:52:47			0	37109	0	0	0	29023	27620	157902	27057	1075789	46777	110789	0	0	8065	576926	0	0
2024-08-26 09:53:47			0	37130	0	0	0	29018	27610	157866	26857	1075672	46776	110787	0	0	8066	576120	0	0
2024-08-26 09:54:47			0	37135	0	0	0	29020	27610	157938	26876	1075672	46798	110788	0	0	8066	575921	0	0
2024-08-26 09:55:47			0	37137	0	0	0	29010	27620	157846	26812	1075681	46777	110784	0	0	8067	575808	0	0
2024-08-26 09:56:47			0	37139	0	0	0	29023	27610	157826	26889	1075645	46798	110789	0	0	8067	575761	0	0
2024-08-26 09:57:47			0	37159	0	0	0	29007	27620	157722	26996	1075655	46789	110783	0	0	8068	574930	0	0
2024-08-26 09:58:47			0	37141	0	0	0	29007	27600	157826	26778	1075672	46775	110783	0	0	8067	575714	0	0
2024-08-26 09:59:47			0	37169	0	0	0	29012	27610	157774	27043	1075699	46788	110785	0	0	8068	574564	0	0
2024-08-26 10:00:47			0	37178	0	0	0	29018	27620	157674	26920	1075664	46777	110787	0	0	8069	574173	0	0
2024-08-26 10:01:47			0	37183	0	0	0	29023	27610	157722	26939	1075699	46788	110789	0	0	8069	574007	0	0
2024-08-26 10:02:47			0	37196	0	0	0	29025	27620	157618	26961	1075744	46799	110790	0	0	8070	573456	0	0
2024-08-26 10:03:47			0	37180	0	0	0	29020	27620	157650	26939	1075708	46789	110788	0	0	8069	574093	0	0
2024-08-26 10:04:47			0	37188	0	0	0	29028	27620	157534	27319	1075735	46799	110791	0	0	8069	573774	0	0
2024-08-26 10:05:47			0	37217	0	0	0	29028	27620	157518	27111	1075717	46789	110791	0	0	8071	572620	0	0
2024-08-26 10:06:47			0	37199	0	0	0	29023	27620	157490	27097	1075744	46799	110789	0	0	8070	573336	0	0
2024-08-26 10:07:47			0	37227	0	0	0	29033	27620	157566	26925	1075708	46789	110793	0	0	8072	572223	0	0
2024-08-26 10:08:47			0	37228	0	0	0	29031	27620	157518	27159	1075690	46789	110792	0	0	8072	572183	0	0
2024-08-26 10:09:47			0	37240	0	0	0	29041	27610	157510	27228	1075726	46798	110796	0	0	8072	571739	0	0
2024-08-26 10:10:47			0	37234	0	0	0	29049	27630	157422	27348	1075753	46778	110799	0	0	8072	571911	0	0
2024-08-26 10:11:47			0	37236	0	0	0	29038	27630	157498	27001	1075780	46790	110795	0	0	8072	571832	0	0
2024-08-26 10:12:47			0	37244	0	0	0	29049	27630	157350	27027	1075762	46800	110799	0	0	8072	571514	0	0
2024-08-26 10:13:47			0	37239	0	0	0	29044	27630	157518	27081	1075807	46790	110797	0	0	8072	571713	0	0
2024-08-26 10:14:47			0	37243	0	0	0	29051	27630	157362	27164	1075816	46800	110800	0	0	8072	571554	0	0
2024-08-26 10:15:47			0	37239	0	0	0	29049	27630	157442	27072	1075816	46811	110799	0	0	8072	571713	0	0
2024-08-26 10:16:47			0	37224	0	0	0	29049	27650	157398	27261	1075871	46802	110799	0	0	8071	572243	0	0
2024-08-26 10:17:47			0	37238	0	0	0	29075	27640	157422	27130	1075862	46801	110809	0	0	8072	571720	0	0
2024-08-26 10:18:47			0	37227	0	0	0	29075	27650	157394	27128	1075871	46813	110809	0	0	8071	572124	0	0
2024-08-26 10:19:47			0	37234	0	0	0	29083	27660	157434	27274	1075979	46793	110812	0	0	8071	571813	0	0
2024-08-26 10:20:47			0	37221	0	0	0	29093	27660	157482	27109	1075979	46804	110816	0	0	8070	572329	0	0
2024-08-26 10:21:47			0	37224	0	0	0	29093	27660	157454	27126	1075979	46815	110816	0	0	8071	572210	0	0
2024-08-26 10:22:47			0	37238	0	0	0	29090	27670	157354	27105	1075988	46804	110815	0	0	8071	571621	0	0
2024-08-26 10:23:47			0	37235	0	0	0	29093	27670	157470	27105	1076015	46804	110816	0	0	8071	571740	0	0
2024-08-26 10:24:47			0	37231	0	0	0	29093	27660	157438	27045	1076033	46815	110816	0	0	8071	571932	0	0
2024-08-26 10:25:47			0	37230	0	0	0	29093	27670	157434	27372	1076051	46804	110816	0	0	8071	571939	0	0
2024-08-26 10:26:47			0	37248	0	0	0	29103	27680	157482	27175	1076069	46806	110820	0	0	8072	571191	0	0
2024-08-26 10:27:47			0	37228	0	0	0	29096	27680	157382	27022	1076114	46805	110817	0	0	8071	571985	0	0
2024-08-26 10:28:47			0	37229	0	0	0	29101	27680	157422	27258	1076123	46795	110819	0	0	8071	571945	0	0
2024-08-26 10:29:47			0	37250	0	0	0	29109	27690	157374	27287	1076168	46806	110822	0	0	8072	571079	0	0
2024-08-26 10:30:47			0	37242	0	0	0	29109	27680	157330	27152	1076150	46795	110822	0	0	8071	571429	0	0
2024-08-26 10:31:47			0	37230	0	0	0	29103	27690	157454	27223	1076141	46806	110820	0	0	8071	571873	0	0
2024-08-26 10:32:47			0	37226	0	0	0	29114	27690	157306	27107	1076213	46784	110824	0	0	8070	572032	0	0
2024-08-26 10:33:47			0	37226	0	0	0	29109	27700	157462	26927	1076123	46807	110822	0	0	8071	571999	0	0
2024-08-26 10:34:47			0	37256	0	0	0	29111	27690	157374	27381	1076141	46806	110823	0	0	8072	570840	0	0
2024-08-26 10:35:47			0	37261	0	0	0	29119	27700	157350	27010	1076177	46796	110826	0	0	8072	570609	0	0
2024-08-26 10:36:47			0	37238	0	0	0	29116	27700	157342	27223	1076150	46818	110825	0	0	8071	571522	0	0
2024-08-26 10:37:47			0	37254	0	0	0	29124	27720	157298	26956	1076159	46798	110828	0	0	8072	570821	0	0
2024-08-26 10:38:47			0	37237	0	0	0	29124	27710	157306	27315	1076204	46787	110828	0	0	8071	571529	0	0
2024-08-26 10:39:47			0	37261	0	0	0	29124	27710	157370	27130	1076276	46797	110828	0	0	8072	570576	0	0
2024-08-26 10:40:47			0	37259	0	0	0	29145	27710	157254	27008	1076285	46798	110836	0	0	8072	570656	0	0
2024-08-26 10:41:47			0	37290	0	0	0	29145	27710	157298	27180	1076258	46787	110836	0	0	8074	569427	0	0
2024-08-26 10:42:47			0	37270	0	0	0	29142	27720	157214	27209	1076375	46809	110835	0	0	8073	570186	0	0
2024-08-26 10:43:47			0	37296	0	0	0	29140	27730	157190	27364	1076366	46789	110834	0	0	8074	569123	0	0
2024-08-26 10:44:47			0	37301	0	0	0	29145	27730	157226	27230	1076366	46811	110836	0	0	8074	568925	0	0
2024-08-26 10:45:47			0	37304	0	0	0	29145	27730	157210	27093	1076339	46811	110836	0	0	8075	568807	0	0
2024-08-26 10:46:47			0	37290	0	0	0	29137	27720	157162	27145	1076384	46810	110833	0	0	8074	569394	0	0
2024-08-26 10:47:47			0	37298	0	0	0	29142	27730	157090	27255	1076348	46789	110835	0	0	8074	569044	0	0
2024-08-26 10:48:47			0	37303	0	0	0	29148	27730	157098	27194	1076348	46800	110837	0	0	8075	568846	0	0
2024-08-26 10:49:47			0	37310	0	0	0	29145	27730	157158	27123	1076375	46800	110836	0	0	8075	568569	0	0
2024-08-26 10:50:47			0	37303	0	0	0	29150	27740	157134	26991	1076411	46800	110838	0	0	8075	568813	0	0
2024-08-26 10:51:47			0	37292	0	0	0	29153	27730	157162	27026	1076375	46800	110839	0	0	8074	569282	0	0
2024-08-26 10:52:47			0	37296	0	0	0	29145	27750	157098	27175	1076402	46813	110836	0	0	8074	569058	0	0
2024-08-26 10:53:47			0	37295	0	0	0	29145	27740	157102	27046	1076393	46790	110836	0	0	8074	569130	0	0
2024-08-26 10:54:47			0	37293	0	0	0	29148	27740	157102	27196	1076384	46800	110837	0	0	8074	569209	0	0
2024-08-26 10:55:47			0	37312	0	0	0	29150	27750	157042	26939	1076402	46802	110838	0	0	8075	568424	0	0
2024-08-26 10:56:47			0	37299	0	0	0	29163	27760	157070	27176	1076474	46802	110843	0	0	8074	568906	0	0
2024-08-26 10:57:47			0	37288	0	0	0	29168	27760	157150	27225	1076447	46802	110845	0	0	8073	569342	0	0
2024-08-26 10:58:47			0	37286	0	0	0	29171	27760	157222	27182	1076474	46791	110846	0	0	8073	569421	0	0
2024-08-26 10:59:47			0	37296	0	0	0	29173	27750	157122	26974	1076483	46802	110847	0	0	8074	569058	0	0
2024-08-26 11:00:47			0	37284	0	0	0	29179	27760	157154	26863	1076447	46813	110849	0	0	8073	569500	0	0
2024-08-26 11:01:47			0	37268	0	0	0	29181	27770	157138	26930	1076492	46815	110850	0	0	8072	570101	0	0
2024-08-26 11:02:47			0	37274	0	0	0	29179	27760	157246	27107	1076474	46813	110849	0	0	8072	569897	0	0
2024-08-26 11:03:47			0	37238	0	0	0	29186	27760	157358	27194	1076510	46803	110852	0	0	8070	571325	0	0
2024-08-26 11:04:47			0	37246	0	0	0	29186	27760	157414	27263	1076528	46813	110852	0	0	8071	571007	0	0
2024-08-26 11:05:47			0	37217	0	0	0	29179	27760	157398	27326	1076537	46803	110849	0	0	8069	572159	0	0
2024-08-26 11:06:47			0	37221	0	0	0	29189	27760	157522	27201	1076537	46803	110853	0	0	8069	572000	0	0
2024-08-26 11:07:47			0	37211	0	0	0	29179	27770	157346	27287	1076519	46804	110849	0	0	8069	572364	0	0
2024-08-26 11:08:47			0	37218	0	0	0	29184	27770	157426	27026	1076600	46815	110851	0	0	8069	572086	0	0
2024-08-26 11:09:47			0	37240	0	0	0	29184	27770	157390	27156	1076582	46804	110851	0	0	8070	571212	0	0
2024-08-26 11:10:47			0	37216	0	0	0	29192	27770	157370	27128	1076582	46804	110854	0	0	8069	572166	0	0
2024-08-26 11:11:47			0	37235	0	0	0	29184	27770	157430	27020	1076546	46804	110851	0	0	8070	571411	0	0
2024-08-26 11:12:47			0	37208	0	0	0	29194	27780	157382	27270	1076654	46816	110855	0	0	8068	572451	0	0
2024-08-26 11:13:47			0	37215	0	0	0	29199	27780	157442	27178	1076618	46815	110857	0	0	8069	572172	0	0
2024-08-26 11:14:47			0	37226	0	0	0	29202	27790	157338	27258	1076636	46794	110858	0	0	8069	571702	0	0
2024-08-26 11:15:47			0	37232	0	0	0	29192	27790	157270	27235	1076672	46807	110854	0	0	8070	571464	0	0
2024-08-26 11:16:47			0	37240	0	0	0	29215	27790	157210	27338	1076690	46817	110863	0	0	8070	571146	0	0
2024-08-26 11:17:47			0	37238	0	0	0	29207	27790	157218	27176	1076663	46806	110860	0	0	8070	571226	0	0
2024-08-26 11:18:47			0	37250	0	0	0	29223	27790	157190	27204	1076699	46807	110866	0	0	8070	570750	0	0
2024-08-26 11:19:47			0	37268	0	0	0	29220	27790	157258	26819	1076690	46806	110865	0	0	8072	570036	0	0
2024-08-26 11:20:47			0	37265	0	0	0	29218	27800	157142	27346	1076762	46807	110864	0	0	8071	570122	0	0
2024-08-26 11:21:47			0	37271	0	0	0	29228	27790	157174	26873	1076780	46818	110868	0	0	8072	569917	0	0
2024-08-26 11:22:47			0	37280	0	0	0	29228	27810	157194	27137	1076753	46808	110868	0	0	8072	569495	0	0
2024-08-26 11:23:47			0	37286	0	0	0	29236	27810	157110	26739	1076807	46819	110871	0	0	8072	569257	0	0
2024-08-26 11:24:47			0	37282	0	0	0	29225	27810	156998	27305	1076807	46819	110867	0	0	8072	569415	0	0
2024-08-26 11:25:47			0	37285	0	0	0	29228	27820	157078	26965	1076745	46809	110868	0	0	8073	569264	0	0
2024-08-26 11:26:47			0	37303	0	0	0	29231	27820	156954	27104	1076852	46797	110869	0	0	8074	568551	0	0
2024-08-26 11:27:47			0	37289	0	0	0	29251	27830	157026	26750	1076834	46820	110877	0	0	8072	569073	0	0
2024-08-26 11:28:47			0	37292	0	0	0	29264	27820	156966	27171	1076852	46809	110882	0	0	8072	568987	0	0
2024-08-26 11:29:47			0	37288	0	0	0	29262	27830	156990	26993	1076951	46821	110881	0	0	8072	569112	0	0
2024-08-26 11:30:47			0	37315	0	0	0	29262	27840	156999	27072	1076915	46833	110881	0	0	8074	568011	0	0
2024-08-26 11:31:47			0	37330	0	0	0	29280	27840	156871	27414	1077023	46811	110888	0	0	8074	567418	0	0
2024-08-26 11:32:47			0	37347	0	0	0	29280	27850	156947	27119	1077014	46812	110888	0	0	8075	566714	0	0
2024-08-26 11:33:47			0	37344	0	0	0	29283	27850	156815	27360	1077014	46823	110889	0	0	8075	566833	0	0
2024-08-26 11:34:47			0	37366	0	0	0	29288	27850	156675	26953	1076951	46822	110891	0	0	8076	565964	0	0
2024-08-26 11:35:47			0	37398	0	0	0	29288	27860	156595	27227	1077050	46813	110891	0	0	8078	564670	0	0
2024-08-26 11:36:47			0	37376	0	0	0	29303	27870	156595	27128	1077068	46814	110897	0	0	8077	565505	0	0
2024-08-26 11:37:47			0	37414	0	0	0	29293	27860	156623	26935	1077077	46813	110893	0	0	8079	564040	0	0
2024-08-26 11:38:47			0	37402	0	0	0	29288	27870	156595	27189	1077122	46825	110891	0	0	8079	564480	0	0
2024-08-26 11:39:47			0	37445	0	0	0	29303	27870	156527	27147	1077185	46814	110897	0	0	8081	562789	0	0
2024-08-26 11:40:47			0	37441	0	0	0	29306	27870	156363	27109	1077185	46814	110898	0	0	8081	562946	0	0
2024-08-26 11:41:47			0	37466	0	0	0	29319	27880	156439	26817	1077167	46803	110903	0	0	8082	561931	0	0
2024-08-26 11:42:47			0	37459	0	0	0	29309	27880	156263	26982	1077167	46815	110899	0	0	8082	562206	0	0
2024-08-26 11:43:47			0	37462	0	0	0	29327	27880	156231	27149	1077257	46816	110906	0	0	8081	562088	0	0
2024-08-26 11:44:47			0	37468	0	0	0	29332	27890	156243	27126	1077248	46827	110908	0	0	8082	561820	0	0
2024-08-26 11:45:47			0	37473	0	0	0	29332	27890	156191	26859	1077221	46827	110908	0	0	8082	561624	0	0
2024-08-26 11:46:47			0	37495	0	0	0	29337	27900	156067	27199	1077293	46818	110910	0	0	8083	560729	0	0
2024-08-26 11:47:47			0	37508	0	0	0	29342	27900	156043	27168	1077311	46828	110912	0	0	8084	560219	0	0
2024-08-26 11:48:47			0	37538	0	0	0	29332	27900	155955	26942	1077347	46840	110908	0	0	8086	559045	0	0
2024-08-26 11:49:47			0	37549	0	0	0	29345	27920	155935	27107	1077402	46830	110913	0	0	8086	558550	0	0
2024-08-26 11:50:47			0	37560	0	0	0	29345	27910	155911	26850	1077339	46818	110913	0	0	8087	558152	0	0
2024-08-26 11:51:47			0	37566	0	0	0	29348	27920	155863	27421	1077375	46819	110914	0	0	8087	557885	0	0
2024-08-26 11:52:47			0	37585	0	0	0	29350	27910	155763	26842	1077384	46806	110915	0	0	8088	557175	0	0
2024-08-26 11:53:47			0	37592	0	0	0	29358	27920	155895	26830	1077357	46831	110918	0	0	8089	556870	0	0
2024-08-26 11:54:47			0	37576	0	0	0	29363	27930	155795	27232	1077420	46821	110920	0	0	8088	557462	0	0
2024-08-26 11:55:47			0	37588	0	0	0	29358	27940	155759	26889	1077438	46821	110918	0	0	8089	556962	0	0
2024-08-26 11:56:47			0	37585	0	0	0	29353	27930	155763	26987	1077474	46821	110916	0	0	8088	557111	0	0
2024-08-26 11:57:47			0	37580	0	0	0	29363	27940	155783	27171	1077546	46821	110920	0	0	8088	557274	0	0
2024-08-26 11:58:47			0	37618	0	0	0	29368	27930	155755	27060	1077510	46832	110922	0	0	8090	555824	0	0
2024-08-26 11:59:47			0	37617	0	0	0	29376	27940	155759	26979	1077465	46821	110925	0	0	8090	555831	0	0
2024-08-26 12:00:47			0	37616	0	0	0	29386	27940	155595	26778	1077555	46833	110929	0	0	8090	555870	0	0
2024-08-26 12:01:47			0	37621	0	0	0	29389	27940	155667	27085	1077582	46833	110930	0	0	8090	555675	0	0
2024-08-26 12:02:47			0	37626	0	0	0	29399	27950	155519	27166	1077591	46833	110934	0	0	8090	555448	0	0
2024-08-26 12:03:47			0	37663	0	0	0	29392	27960	155447	27182	1077636	46845	110931	0	0	8092	553976	0	0
2024-08-26 12:04:47			0	37661	0	0	0	29405	27960	155431	27020	1077609	46823	110936	0	0	8092	554053	0	0
2024-08-26 12:05:47			0	37689	0	0	0	29405	27970	155459	27013	1077654	46825	110936	0	0	8094	552933	0	0
2024-08-26 12:06:47			0	37705	0	0	0	29407	27950	155283	26979	1077681	46833	110937	0	0	8095	552375	0	0
2024-08-26 12:07:47			0	37692	0	0	0	29412	27980	155211	26958	1077699	46825	110939	0	0	8094	552784	0	0
2024-08-26 12:08:47			0	37719	0	0	0	29412	27970	155215	27208	1077762	46813	110939	0	0	8095	551768	0	0
2024-08-26 12:09:47			0	37719	0	0	0	29412	27970	155323	27046	1077735	46835	110939	0	0	8095	551768	0	0
2024-08-26 12:10:47			0	37740	0	0	0	29418	27980	155119	26842	1077753	46825	110941	0	0	8097	550922	0	0
2024-08-26 12:11:47			0	37768	0	0	0	29418	27980	155119	27223	1077789	46836	110941	0	0	8098	549838	0	0
2024-08-26 12:12:47			0	37764	0	0	0	29431	27990	155027	27338	1077771	46837	110946	0	0	8098	549961	0	0
2024-08-26 12:13:47			0	37771	0	0	0	29433	27990	154979	27204	1077807	46815	110947	0	0	8098	549690	0	0
2024-08-26 12:14:47			0	37786	0	0	0	29428	28000	155011	26948	1077762	46838	110945	0	0	8099	549078	0	0
2024-08-26 12:15:47			0	37788	0	0	0	29418	28000	154971	27218	1077816	46838	110941	0	0	8099	549001	0	0
2024-08-26 12:16:47			0	37787	0	0	0	29410	28000	154947	27154	1077825	46816	110938	0	0	8099	549039	0	0
2024-08-26 12:17:47			0	37786	0	0	0	29410	28000	154939	27142	1077762	46828	110938	0	0	8099	549078	0	0
2024-08-26 12:18:47			0	37785	0	0	0	29415	28000	154947	27138	1077789	46828	110940	0	0	8099	549117	0	0
2024-08-26 12:19:47			0	37769	0	0	0	29407	27990	154951	27319	1077861	46827	110937	0	0	8098	549767	0	0
2024-08-26 12:20:47			0	37775	0	0	0	29412	27990	155043	26975	1077780	46837	110939	0	0	8099	549535	0	0
2024-08-26 12:21:47			0	37771	0	0	0	29405	28000	155103	26904	1077762	46838	110936	0	0	8099	549658	0	0
2024-08-26 12:22:47			0	37769	0	0	0	29415	28000	154903	27052	1077879	46828	110940	0	0	8098	549736	0	0
2024-08-26 12:23:47			0	37777	0	0	0	29412	28000	155015	27085	1077789	46838	110939	0	0	8099	549426	0	0
2024-08-26 12:24:47			0	37762	0	0	0	29405	28000	155051	27144	1077762	46838	110936	0	0	8098	550007	0	0
2024-08-26 12:25:47			0	37772	0	0	0	29410	28000	155055	27327	1077798	46838	110938	0	0	8099	549620	0	0
2024-08-26 12:26:47			0	37763	0	0	0	29405	27990	154999	27118	1077726	46837	110936	0	0	8098	550000	0	0
2024-08-26 12:27:47			0	37773	0	0	0	29399	27990	155063	27175	1077807	46815	110934	0	0	8099	549613	0	0
2024-08-26 12:28:47			0	37766	0	0	0	29397	27990	154987	26904	1077780	46827	110933	0	0	8098	549884	0	0
2024-08-26 12:29:47			0	37774	0	0	0	29405	27990	155059	27043	1077753	46815	110936	0	0	8099	549574	0	0
2024-08-26 12:30:47			0	37770	0	0	0	29418	28000	155015	27275	1077789	46838	110941	0	0	8098	549697	0	0
2024-08-26 12:31:47			0	37775	0	0	0	29420	28000	154999	26772	1077771	46828	110942	0	0	8099	549503	0	0
2024-08-26 12:32:47			0	37774	0	0	0	29425	28000	155071	27194	1077771	46828	110944	0	0	8098	549542	0	0
2024-08-26 12:33:47			0	37771	0	0	0	29425	28000	155059	26993	1077825	46838	110944	0	0	8098	549658	0	0
2024-08-26 12:34:47			0	37761	0	0	0	29433	28000	155143	27190	1077798	46828	110947	0	0	8098	550045	0	0
2024-08-26 12:35:47			0	37754	0	0	0	29425	28010	155031	26866	1077861	46829	110944	0	0	8097	550285	0	0
2024-08-26 12:36:47			0	37752	0	0	0	29423	28010	154963	27208	1077897	46840	110943	0	0	8097	550362	0	0
2024-08-26 12:37:47			0	37753	0	0	0	29410	28020	154927	27246	1077906	46830	110938	0	0	8098	550292	0	0
2024-08-26 12:38:47			0	37763	0	0	0	29423	28010	154955	26871	1077888	46829	110943	0	0	8098	549936	0	0
2024-08-26 12:39:47			0	37743	0	0	0	29410	28020	155095	26916	1077861	46830	110938	0	0	8097	550679	0	0
2024-08-26 12:40:47			0	37753	0	0	0	29415	28020	155143	27182	1077879	46840	110940	0	0	8098	550292	0	0
2024-08-26 12:41:47			0	37756	0	0	0	29441	28020	155107	27227	1077969	46840	110950	0	0	8097	550175	0	0
2024-08-26 12:42:47			0	37767	0	0	0	29462	28020	155111	26937	1077960	46840	110958	0	0	8098	549750	0	0
2024-08-26 12:43:47			0	37753	0	0	0	29475	28030	155131	26918	1078086	46831	110963	0	0	8097	550260	0	0
2024-08-26 12:44:47			0	37731	0	0	0	29470	28030	155227	27130	1078014	46854	110961	0	0	8095	551112	0	0
2024-08-26 12:45:47			0	37751	0	0	0	29467	28030	155103	27124	1078068	46832	110960	0	0	8097	550337	0	0
2024-08-26 12:46:47			0	37752	0	0	0	29470	28040	155051	26838	1078086	46842	110961	0	0	8097	550267	0	0
2024-08-26 12:47:47			0	37757	0	0	0	29477	28040	154947	26953	1078060	46842	110964	0	0	8097	550073	0	0
2024-08-26 12:48:47			0	37783	0	0	0	29457	28050	154979	27052	1078185	46844	110956	0	0	8099	549036	0	0
2024-08-26 12:49:47			0	37783	0	0	0	29451	28060	154935	27067	1078114	46856	110954	0	0	8099	549004	0	0
2024-08-26 12:50:47			0	37803	0	0	0	29449	28050	154923	26849	1078105	46844	110953	0	0	8100	548263	0	0
2024-08-26 12:51:47			0	37803	0	0	0	29459	28050	154887	27071	1078078	46833	110957	0	0	8100	548263	0	0
2024-08-26 12:52:47			0	37803	0	0	0	29459	28060	154899	26977	1078114	46833	110957	0	0	8100	548231	0	0
2024-08-26 12:53:47			0	37814	0	0	0	29462	28060	154775	27203	1078123	46845	110958	0	0	8100	547806	0	0
2024-08-26 12:54:47			0	37794	0	0	0	29472	28060	154799	27204	1078141	46844	110962	0	0	8099	548579	0	0
2024-08-26 12:55:47			0	37822	0	0	0	29475	28070	154835	27133	1078213	46834	110963	0	0	8101	547466	0	0
2024-08-26 12:56:47			0	37792	0	0	0	29483	28070	154959	26901	1078159	46834	110966	0	0	8099	548624	0	0
2024-08-26 12:57:47			0	37766	0	0	0	29496	28070	154995	26998	1078240	46845	110971	0	0	8097	549630	0	0
2024-08-26 12:58:47			0	37780	0	0	0	29483	28080	155059	27178	1078258	46846	110966	0	0	8098	549057	0	0
2024-08-26 12:59:47			0	37773	0	0	0	29485	28070	155007	27614	1078302	46846	110967	0	0	8098	549359	0	0
2024-08-26 13:00:47			0	37765	0	0	0	29498	28070	155147	27118	1078276	46846	110972	0	0	8097	549668	0	0
2024-08-26 13:01:47			0	37729	0	0	0	29511	28090	155143	27116	1078357	46836	110977	0	0	8095	550999	0	0
2024-08-26 13:02:47			0	37721	0	0	0	29480	28090	155135	27159	1078330	46847	110965	0	0	8095	551309	0	0
2024-08-26 13:03:47			0	37717	0	0	0	29464	28090	155123	27256	1078303	46847	110959	0	0	8095	551464	0	0
2024-08-26 13:04:47			0	37740	0	0	0	29472	28090	155143	27105	1078222	46825	110962	0	0	8096	550573	0	0
2024-08-26 13:05:47			0	37755	0	0	0	29483	28090	155087	27041	1078195	46847	110966	0	0	8097	549992	0	0
2024-08-26 13:06:47			0	37776	0	0	0	29462	28090	154987	27218	1078249	46825	110958	0	0	8098	549180	0	0
2024-08-26 13:07:47			0	37757	0	0	0	29472	28080	154963	27248	1078213	46825	110962	0	0	8097	549946	0	0
2024-08-26 13:08:47			0	37770	0	0	0	29488	28080	154971	27256	1078231	46835	110968	0	0	8098	549443	0	0
2024-08-26 13:09:47			0	37750	0	0	0	29490	28080	154995	27131	1078258	46835	110969	0	0	8096	550217	0	0
2024-08-26 13:10:47			0	37749	0	0	0	29493	28090	154915	27305	1078276	46847	110970	0	0	8096	550224	0	0
2024-08-26 13:11:47			0	37769	0	0	0	29490	28080	155011	27443	1078321	46825	110969	0	0	8097	549482	0	0
2024-08-26 13:12:47			0	37738	0	0	0	29532	28080	154855	27118	1078348	46847	110985	0	0	8095	550682	0	0
2024-08-26 13:13:47			0	37760	0	0	0	29524	28110	154967	27104	1078357	46838	110982	0	0	8097	549735	0	0
2024-08-26 13:14:47			0	37740	0	0	0	29524	28100	155039	27164	1078348	46849	110982	0	0	8095	550541	0	0
2024-08-26 13:15:47			0	37753	0	0	0	29503	28110	154899	27086	1078384	46849	110974	0	0	8096	550006	0	0
2024-08-26 13:16:47			0	37768	0	0	0	29501	28110	154963	27150	1078384	46849	110973	0	0	8097	549425	0	0
2024-08-26 13:17:47			0	37765	0	0	0	29503	28110	154931	27055	1078420	46839	110974	0	0	8097	549542	0	0
2024-08-26 13:18:47			0	37772	0	0	0	29506	28110	154963	27426	1078438	46849	110975	0	0	8098	549271	0	0
2024-08-26 13:19:47			0	37788	0	0	0	29514	28110	154843	27196	1078384	46838	110978	0	0	8098	548652	0	0
2024-08-26 13:20:47			0	37798	0	0	0	29506	28090	154835	27071	1078393	46837	110975	0	0	8099	548329	0	0
2024-08-26 13:21:47			0	37824	0	0	0	29496	28110	154803	27462	1078420	46839	110971	0	0	8101	547262	0	0
2024-08-26 13:22:47			0	37808	0	0	0	29511	28110	154763	27383	1078330	46838	110977	0	0	8099	547880	0	0
2024-08-26 13:23:47			0	37807	0	0	0	29527	28110	154759	27196	1078420	46839	110983	0	0	8099	547918	0	0
2024-08-26 13:24:47			0	37811	0	0	0	29522	28120	154711	27135	1078402	46850	110981	0	0	8100	547732	0	0
2024-08-26 13:25:47			0	37825	0	0	0	29516	28120	154775	27026	1078510	46850	110979	0	0	8100	547192	0	0
2024-08-26 13:26:47			0	37809	0	0	0	29516	28120	154815	27267	1078411	46851	110979	0	0	8100	547810	0	0
2024-08-26 13:27:47			0	37801	0	0	0	29498	28120	154755	27079	1078411	46830	110972	0	0	8099	548119	0	0
2024-08-26 13:28:47			0	37814	0	0	0	29488	28120	154871	26994	1078375	46850	110968	0	0	8100	547617	0	0
2024-08-26 13:29:47			0	37799	0	0	0	29514	28120	154851	27289	1078438	46830	110978	0	0	8099	548196	0	0
2024-08-26 13:30:47			0	37790	0	0	0	29501	28120	154875	27175	1078429	46839	110973	0	0	8099	548543	0	0
2024-08-26 13:31:47			0	37799	0	0	0	29485	28120	154747	27234	1078429	46850	110967	0	0	8099	548196	0	0
2024-08-26 13:32:47			0	37783	0	0	0	29488	28110	154823	27206	1078420	46850	110968	0	0	8098	548846	0	0
2024-08-26 13:33:47			0	37797	0	0	0	29516	28120	154855	26970	1078456	46839	110979	0	0	8099	548273	0	0
2024-08-26 13:34:47			0	37785	0	0	0	29527	28120	154791	27034	1078456	46850	110983	0	0	8098	548737	0	0
2024-08-26 13:35:47			0	37784	0	0	0	29519	28120	154843	27039	1078492	46851	110980	0	0	8098	548775	0	0
2024-08-26 13:36:47			0	37784	0	0	0	29529	28120	154927	27098	1078492	46851	110984	0	0	8098	548775	0	0
2024-08-26 13:37:47			0	37800	0	0	0	29516	28130	154791	27369	1078537	46864	110979	0	0	8099	548125	0	0
2024-08-26 13:38:47			0	37775	0	0	0	29529	28130	154947	27182	1078564	46841	110984	0	0	8097	549091	0	0
2024-08-26 13:39:47			0	37797	0	0	0	29514	28130	154851	27131	1078537	46852	110978	0	0	8099	548241	0	0
2024-08-26 13:40:47			0	37767	0	0	0	29532	28140	154859	27076	1078519	46841	110985	0	0	8097	549369	0	0
2024-08-26 13:41:47			0	37782	0	0	0	29524	28140	154815	27116	1078546	46852	110982	0	0	8098	548789	0	0
2024-08-26 13:42:47			0	37769	0	0	0	29519	28140	154919	26937	1078582	46853	110980	0	0	8097	549292	0	0
2024-08-26 13:43:47			0	37767	0	0	0	29529	28140	154859	27230	1078555	46853	110984	0	0	8097	549369	0	0
2024-08-26 13:44:47			0	37787	0	0	0	29527	28150	154879	27060	1078537	46842	110983	0	0	8098	548564	0	0
2024-08-26 13:45:47			0	37761	0	0	0	29542	28150	155003	27000	1078600	46843	110989	0	0	8096	549569	0	0
2024-08-26 13:46:47			0	37760	0	0	0	29555	28150	154987	27376	1078681	46854	110994	0	0	8096	549608	0	0
2024-08-26 13:47:47			0	37756	0	0	0	29576	28150	154883	27450	1078708	46854	111002	0	0	8096	549763	0	0
2024-08-26 13:48:47			0	37771	0	0	0	29558	28160	154979	27381	1078663	46843	110995	0	0	8097	549151	0	0
2024-08-26 13:49:47			0	37747	0	0	0	29579	28160	154927	27109	1078726	46844	111003	0	0	8095	550079	0	0
2024-08-26 13:50:47			0	37767	0	0	0	29599	28180	154895	27164	1078754	46846	111011	0	0	8096	549242	0	0
2024-08-26 13:51:47			0	37750	0	0	0	29579	28170	154975	26904	1078825	46856	111003	0	0	8095	549932	0	0
2024-08-26 13:52:47			0	37780	0	0	0	29581	28180	154879	26942	1078834	46857	111004	0	0	8097	548740	0	0
2024-08-26 13:53:47			0	37779	0	0	0	29594	28180	154867	27015	1078790	46846	111009	0	0	8097	548778	0	0
2024-08-26 13:54:47			0	37796	0	0	0	29605	28190	154779	26939	1078853	46857	111013	0	0	8098	548090	0	0
2024-08-26 13:55:47			0	37823	0	0	0	29599	28190	154699	27279	1078889	46870	111011	0	0	8099	547048	0	0
2024-08-26 13:56:47			0	37833	0	0	0	29607	28190	154567	26967	1078835	46858	111014	0	0	8100	546663	0	0
2024-08-26 13:57:47			0	37852	0	0	0	29623	28200	154463	27147	1078907	46848	111020	0	0	8101	545899	0	0
2024-08-26 13:58:47			0	37859	0	0	0	29605	28210	154379	27208	1078952	46860	111013	0	0	8101	545598	0	0
2024-08-26 13:59:47			0	37858	0	0	0	29597	28220	154355	27107	1078907	46850	111010	0	0	8101	545605	0	0
2024-08-26 14:00:47			0	37868	0	0	0	29610	28200	154387	26911	1078934	46859	111015	0	0	8102	545283	0	0
2024-08-26 14:01:47			0	37882	0	0	0	29625	28200	154367	27203	1078988	46837	111021	0	0	8102	544744	0	0
2024-08-26 14:02:47			0	37882	0	0	0	29612	28220	154451	27147	1078934	46861	111016	0	0	8103	544682	0	0
2024-08-26 14:03:47			0	37896	0	0	0	29628	28220	154371	26942	1079051	46850	111022	0	0	8103	544143	0	0
2024-08-26 14:04:47			0	37898	0	0	0	29646	28220	154307	26963	1079015	46861	111029	0	0	8103	544067	0	0
2024-08-26 14:05:47			0	37883	0	0	0	29644	28220	154223	26849	1079015	46861	111028	0	0	8102	544643	0	0
2024-08-26 14:06:47			0	37912	0	0	0	29644	28220	154239	27282	1079078	46861	111028	0	0	8104	543529	0	0
2024-08-26 14:07:47			0	37922	0	0	0	29646	28230	154203	27078	1079087	46851	111029	0	0	8104	543113	0	0
2024-08-26 14:08:47			0	37920	0	0	0	29644	28230	154243	27319	1079069	46851	111028	0	0	8104	543190	0	0
2024-08-26 14:09:47			0	37933	0	0	0	29646	28230	154235	27078	1079123	46874	111029	0	0	8105	542691	0	0
2024-08-26 14:10:47			0	37951	0	0	0	29651	28240	154055	27348	1079087	46864	111031	0	0	8106	541970	0	0
2024-08-26 14:11:47			0	37971	0	0	0	29690	28250	153939	27190	1079177	46875	111046	0	0	8107	541172	0	0
2024-08-26 14:12:47			0	37990	0	0	0	29693	28250	153871	27332	1079213	46875	111047	0	0	8108	540445	0	0
2024-08-26 14:13:47			0	38005	0	0	0	29633	28260	153755	27119	1079276	46876	111024	0	0	8109	539840	0	0
2024-08-26 14:14:47			0	38046	0	0	0	29586	28260	153584	27076	1079141	46854	111006	0	0	8113	538274	0	0
2024-08-26 14:15:47			0	38118	0	0	0	29573	28260	153416	27452	1079033	46832	111001	0	0	8117	535530	0	0
2024-08-26 14:16:47			0	38150	0	0	0	29555	28240	153192	27410	1079006	46842	110994	0	0	8119	534375	0	0
2024-08-26 14:17:47			0	38173	0	0	0	29586	28230	153132	27222	1079033	46840	111006	0	0	8120	533533	0	0
2024-08-26 14:18:47			0	38163	0	0	0	29610	28240	153316	27301	1079051	46841	111015	0	0	8119	533882	0	0
2024-08-26 14:19:47			0	38140	0	0	0	29605	28240	153332	27171	1079114	46853	111013	0	0	8118	534755	0	0
2024-08-26 14:20:47			0	38135	0	0	0	29628	28230	153384	27154	1079123	46862	111022	0	0	8117	534976	0	0
2024-08-26 14:21:47			0	38124	0	0	0	29615	28240	153404	26861	1079060	46853	111017	0	0	8117	535364	0	0
2024-08-26 14:22:47			0	38133	0	0	0	29649	28240	153392	26920	1079141	46853	111030	0	0	8116	535022	0	0
2024-08-26 14:23:47			0	38113	0	0	0	29612	28240	153360	27069	1079051	46841	111016	0	0	8116	535782	0	0
2024-08-26 14:24:47			0	38111	0	0	0	29597	28240	153452	27003	1079078	46841	111010	0	0	8116	535858	0	0
2024-08-26 14:25:47			0	38082	0	0	0	29615	28240	153536	27000	1079060	46842	111017	0	0	8114	536963	0	0
2024-08-26 14:26:47			0	38079	0	0	0	29586	28240	153616	27244	1079078	46841	111006	0	0	8114	537077	0	0
2024-08-26 14:27:47			0	38039	0	0	0	29586	28240	153684	27079	1079024	46841	111006	0	0	8112	538603	0	0
2024-08-26 14:28:47			0	38037	0	0	0	29573	28220	153536	26925	1078916	46839	111001	0	0	8112	538742	0	0
2024-08-26 14:29:47			0	38052	0	0	0	29579	28230	153692	27128	1078925	46840	111003	0	0	8113	538138	0	0
2024-08-26 14:30:47			0	38038	0	0	0	29581	28230	153648	26844	1078952	46840	111004	0	0	8112	538672	0	0
2024-08-26 14:31:47			0	38021	0	0	0	29592	28220	153731	26696	1078961	46828	111008	0	0	8111	539353	0	0
2024-08-26 14:32:47			0	38023	0	0	0	29594	28220	153783	27090	1078916	46828	111009	0	0	8111	539277	0	0
2024-08-26 14:33:47			0	37996	0	0	0	29597	28230	153847	27144	1078925	46840	111010	0	0	8109	540278	0	0
2024-08-26 14:34:47			0	37974	0	0	0	29607	28230	153847	26930	1079060	46840	111014	0	0	8108	541120	0	0
2024-08-26 14:35:47			0	37965	0	0	0	29618	28230	153939	27126	1078979	46851	111018	0	0	8107	541464	0	0
2024-08-26 14:36:47			0	37971	0	0	0	29638	28230	153851	26904	1079033	46862	111026	0	0	8107	541235	0	0
2024-08-26 14:37:47			0	37969	0	0	0	29638	28230	153931	27060	1079069	46862	111026	0	0	8107	541311	0	0
2024-08-26 14:38:47			0	37972	0	0	0	29651	28240	153939	27135	1079105	46852	111031	0	0	8107	541165	0	0
2024-08-26 14:39:47			0	37993	0	0	0	29677	28240	153975	27154	1079105	46875	111041	0	0	8108	540361	0	0
2024-08-26 14:40:47			0	37995	0	0	0	29685	28250	153871	27216	1079240	46864	111044	0	0	8108	540253	0	0
2024-08-26 14:41:47			0	38027	0	0	0	29667	28250	153792	26982	1079321	46864	111037	0	0	8110	539030	0	0
2024-08-26 14:42:47			0	38047	0	0	0	29651	28270	153700	27229	1079304	46877	111031	0	0	8112	538204	0	0
2024-08-26 14:43:47			0	38075	0	0	0	29667	28270	153592	27383	1079304	46855	111037	0	0	8113	537137	0	0
2024-08-26 14:44:47			0	38072	0	0	0	29688	28270	153552	27417	1079330	46866	111045	0	0	8112	537251	0	0
2024-08-26 14:45:47			0	38078	0	0	0	29698	28280	153504	27154	1079349	46868	111049	0	0	8113	536991	0	0
2024-08-26 14:46:47			0	38047	0	0	0	29709	28280	153568	27308	1079403	46868	111053	0	0	8111	538173	0	0
2024-08-26 14:47:47			0	38071	0	0	0	29690	28290	153560	27282	1079385	46857	111046	0	0	8112	537227	0	0
2024-08-26 14:48:47			0	38087	0	0	0	29696	28280	153476	27279	1079403	46868	111048	0	0	8113	536648	0	0
2024-08-26 14:49:47			0	38112	0	0	0	29680	28300	153504	27189	1079430	46847	111042	0	0	8115	535635	0	0
2024-08-26 14:50:47			0	38138	0	0	0	29680	28300	153324	26991	1079376	46869	111042	0	0	8117	534646	0	0
2024-08-26 14:51:47			0	38159	0	0	0	29675	28310	153216	27124	1079448	46860	111040	0	0	8118	533818	0	0
2024-08-26 14:52:47			0	38140	0	0	0	29670	28320	153316	27149	1079466	46871	111038	0	0	8117	534508	0	0
2024-08-26 14:53:47			0	38134	0	0	0	29675	28300	153272	27206	1079439	46859	111040	0	0	8116	534798	0	0
2024-08-26 14:54:47			0	38112	0	0	0	29680	28310	153272	27156	1079394	46860	111042	0	0	8115	535604	0	0
2024-08-26 14:55:47			0	38113	0	0	0	29677	28300	153388	26823	1079403	46847	111041	0	0	8115	535597	0	0
2024-08-26 14:56:47			0	38110	0	0	0	29662	28310	153420	27102	1079340	46837	111035	0	0	8115	535680	0	0
2024-08-26 14:57:47			0	38100	0	0	0	29646	28310	153476	27026	1079313	46849	111029	0	0	8115	536060	0	0
2024-08-26 14:58:47			0	38082	0	0	0	29657	28280	153448	27206	1079322	46846	111033	0	0	8114	536839	0	0
2024-08-26 14:59:47			0	38089	0	0	0	29664	28300	153520	27168	1079376	46847	111036	0	0	8114	536510	0	0
2024-08-26 15:00:47			0	38068	0	0	0	29672	28300	153564	27253	1079412	46859	111039	0	0	8113	537310	0	0
2024-08-26 15:01:47			0	38051	0	0	0	29680	28300	153596	27003	1079358	46848	111042	0	0	8112	537959	0	0
2024-08-26 15:02:47			0	38041	0	0	0	29703	28300	153700	27209	1079439	46859	111051	0	0	8111	538340	0	0
2024-08-26 15:03:47			0	38052	0	0	0	29701	28310	153672	27232	1079457	46860	111050	0	0	8111	537889	0	0
2024-08-26 15:04:47			0	38028	0	0	0	29680	28310	153651	26928	1079457	46860	111042	0	0	8110	538805	0	0
2024-08-26 15:05:47			0	38041	0	0	0	29680	28310	153640	27124	1079457	46860	111042	0	0	8111	538309	0	0
2024-08-26 15:06:47			0	38052	0	0	0	29688	28310	153580	26786	1079457	46860	111045	0	0	8111	537889	0	0
2024-08-26 15:07:47			0	38065	0	0	0	29709	28320	153564	27296	1079466	46871	111053	0	0	8112	537363	0	0
2024-08-26 15:08:47			0	38052	0	0	0	29698	28320	153628	27255	1079520	46849	111049	0	0	8111	537858	0	0
2024-08-26 15:09:47			0	38065	0	0	0	29709	28310	153536	27093	1079484	46837	111053	0	0	8112	537394	0	0
2024-08-26 15:10:47			0	38073	0	0	0	29719	28320	153576	27267	1079547	46860	111057	0	0	8112	537058	0	0
2024-08-26 15:11:47			0	38082	0	0	0	29706	28340	153488	26981	1079584	46873	111052	0	0	8113	536653	0	0
2024-08-26 15:12:47			0	38091	0	0	0	29696	28330	153452	27263	1079628	46862	111048	0	0	8114	536341	0	0
2024-08-26 15:13:47			0	38104	0	0	0	29685	28330	153428	27069	1079601	46851	111044	0	0	8115	535846	0	0
2024-08-26 15:14:47			0	38106	0	0	0	29716	28340	153484	26887	1079503	46873	111056	0	0	8114	535739	0	0
2024-08-26 15:15:47			0	38121	0	0	0	29729	28330	153344	27173	1079538	46873	111061	0	0	8115	535200	0	0
2024-08-26 15:16:47			0	38130	0	0	0	29735	28330	153384	27072	1079574	46862	111063	0	0	8115	534857	0	0
2024-08-26 15:17:47			0	38114	0	0	0	29727	28320	153468	27199	1079556	46861	111060	0	0	8114	535497	0	0
2024-08-26 15:18:47			0	38139	0	0	0	29729	28340	153320	27090	1079637	46873	111061	0	0	8116	534484	0	0
2024-08-26 15:19:47			0	38118	0	0	0	29735	28340	153320	27052	1079637	46862	111063	0	0	8115	535283	0	0
2024-08-26 15:20:47			0	38132	0	0	0	29735	28330	153252	26967	1079682	46862	111063	0	0	8115	534781	0	0
2024-08-26 15:21:47			0	38149	0	0	0	29742	28350	153204	27005	1079709	46864	111066	0	0	8116	534074	0	0
2024-08-26 15:22:47			0	38163	0	0	0	29745	28340	153172	26908	1079673	46874	111067	0	0	8117	533573	0	0
2024-08-26 15:23:47			0	38170	0	0	0	29732	28350	153176	27109	1079709	46864	111062	0	0	8118	533277	0	0
2024-08-26 15:24:47			0	38165	0	0	0	29716	28360	153188	26783	1079755	46886	111056	0	0	8118	533436	0	0
2024-08-26 15:25:47			0	38156	0	0	0	29732	28350	153184	26934	1079683	46853	111062	0	0	8117	533808	0	0
2024-08-26 15:26:47			0	38171	0	0	0	29719	28360	153108	27164	1079674	46853	111057	0	0	8118	533208	0	0
2024-08-26 15:27:47			0	38186	0	0	0	29706	28360	153112	27062	1079647	46864	111052	0	0	8119	532639	0	0
2024-08-26 15:28:47			0	38190	0	0	0	29703	28350	153036	27126	1079629	46841	111051	0	0	8119	532518	0	0
2024-08-26 15:29:47			0	38203	0	0	0	29709	28350	153076	27329	1079656	46853	111053	0	0	8120	532026	0	0
2024-08-26 15:30:47			0	38201	0	0	0	29719	28350	152944	27171	1079683	46853	111057	0	0	8120	532102	0	0
2024-08-26 15:31:47			0	38194	0	0	0	29719	28350	153020	27334	1079656	46853	111057	0	0	8119	532367	0	0
2024-08-26 15:32:47			0	38190	0	0	0	29719	28360	153016	26996	1079701	46853	111057	0	0	8119	532488	0	0
2024-08-26 15:33:47			0	38187	0	0	0	29709	28350	152948	27459	1079584	46853	111053	0	0	8119	532632	0	0
2024-08-26 15:34:47			0	38183	0	0	0	29703	28350	152984	27362	1079638	46853	111051	0	0	8119	532784	0	0
2024-08-26 15:35:47			0	38175	0	0	0	29737	28350	152988	27057	1079656	46853	111064	0	0	8118	533087	0	0
2024-08-26 15:36:47			0	38192	0	0	0	29724	28350	153048	27333	1079638	46853	111059	0	0	8119	532443	0	0
2024-08-26 15:37:47			0	38182	0	0	0	29716	28340	153064	27189	1079727	46852	111056	0	0	8119	532853	0	0
2024-08-26 15:38:47			0	38174	0	0	0	29703	28350	153044	27334	1079638	46841	111051	0	0	8118	533125	0	0
2024-08-26 15:39:47			0	38158	0	0	0	29711	28350	152972	27324	1079629	46864	111054	0	0	8117	533732	0	0
2024-08-26 15:40:47			0	38168	0	0	0	29735	28350	153088	27081	1079602	46841	111063	0	0	8118	533353	0	0
2024-08-26 15:41:47			0	38165	0	0	0	29761	28350	153004	27203	1079719	46864	111073	0	0	8117	533466	0	0
2024-08-26 15:42:47			0	38177	0	0	0	29735	28340	153024	27182	1079781	46874	111063	0	0	8118	533042	0	0
2024-08-26 15:43:47			0	38176	0	0	0	29742	28360	152984	27211	1079755	46875	111066	0	0	8118	533018	0	0
2024-08-26 15:44:47			0	38202	0	0	0	29742	28360	153040	27168	1079710	46875	111066	0	0	8119	532033	0	0
2024-08-26 15:45:47			0	38190	0	0	0	29750	28360	153032	27163	1079782	46853	111069	0	0	8119	532488	0	0
2024-08-26 15:46:47			0	38193	0	0	0	29740	28360	152996	27263	1079755	46864	111065	0	0	8119	532374	0	0
2024-08-26 15:47:47			0	38198	0	0	0	29740	28360	152952	27248	1079755	46864	111065	0	0	8119	532184	0	0
2024-08-26 15:48:47			0	38200	0	0	0	29784	28370	152844	26896	1079782	46867	111082	0	0	8119	532078	0	0
2024-08-26 15:49:47			0	38237	0	0	0	29815	28370	152828	27220	1079890	46889	111094	0	0	8120	530678	0	0
2024-08-26 15:50:47			0	38222	0	0	0	29818	28390	152860	27338	1079971	46868	111095	0	0	8119	531184	0	0
2024-08-26 15:51:47			0	38232	0	0	0	29774	28390	152872	27026	1080025	46868	111078	0	0	8121	530805	0	0
2024-08-26 15:52:47			0	38229	0	0	0	29797	28400	152852	27081	1079989	46891	111087	0	0	8120	530888	0	0
2024-08-26 15:53:47			0	38258	0	0	0	29820	28400	152580	26911	1080034	46858	111096	0	0	8121	529792	0	0
2024-08-26 15:54:47			0	38299	0	0	0	29846	28400	152652	27138	1080115	46879	111106	0	0	8123	528244	0	0
2024-08-26 15:55:47			0	38300	0	0	0	29794	28400	152556	27230	1080124	46879	111086	0	0	8124	528207	0	0
2024-08-26 15:56:47			0	38334	0	0	0	29797	28430	152404	27310	1080089	46871	111087	0	0	8126	526834	0	0
2024-08-26 15:57:47			0	38337	0	0	0	29805	28410	152352	27180	1080133	46869	111090	0	0	8126	526782	0	0
2024-08-26 15:58:47			0	38347	0	0	0	29807	28420	152360	27163	1080124	46882	111091	0	0	8127	526375	0	0
2024-08-26 15:59:47			0	38352	0	0	0	29799	28410	152260	27102	1080061	46870	111088	0	0	8127	526218	0	0
2024-08-26 16:00:47			0	38386	0	0	0	29799	28410	152256	27010	1080088	46870	111088	0	0	8129	524940	0	0
2024-08-26 16:01:47			0	38381	0	0	0	29779	28420	152160	27164	1080026	46871	111080	0	0	8129	525097	0	0
2024-08-26 16:02:47			0	38410	0	0	0	29758	28420	152104	26772	1080026	46848	111072	0	0	8131	524008	0	0
2024-08-26 16:03:47			0	38409	0	0	0	29729	28420	152008	27059	1079990	46848	111061	0	0	8132	524046	0	0
2024-08-26 16:04:47			0	38407	0	0	0	29732	28410	151940	26894	1079927	46870	111062	0	0	8132	524151	0	0
2024-08-26 16:05:47			0	38403	0	0	0	29748	28400	152080	26739	1079926	46846	111068	0	0	8131	524332	0	0
2024-08-26 16:06:47			0	38411	0	0	0	29742	28400	152068	26989	1079845	46869	111066	0	0	8132	524031	0	0
2024-08-26 16:07:47			0	38406	0	0	0	29748	28390	151996	26814	1079917	46845	111068	0	0	8131	524249	0	0
2024-08-26 16:08:47			0	38389	0	0	0	29761	28390	152092	27078	1079917	46868	111073	0	0	8130	524888	0	0
2024-08-26 16:09:47			0	38380	0	0	0	29768	28390	152092	26769	1079890	46857	111076	0	0	8129	525226	0	0
2024-08-26 16:10:47			0	38381	0	0	0	29758	28400	152224	26970	1079953	46869	111072	0	0	8130	525158	0	0
2024-08-26 16:11:47			0	38374	0	0	0	29748	28390	152356	26807	1079944	46868	111068	0	0	8129	525451	0	0
2024-08-26 16:12:47			0	38351	0	0	0	29758	28400	152344	26760	1079926	46869	111072	0	0	8128	526286	0	0
2024-08-26 16:13:47			0	38349	0	0	0	29755	28400	152348	27093	1079935	46858	111071	0	0	8128	526361	0	0
2024-08-26 16:14:47			0	38335	0	0	0	29761	28390	152460	26750	1079890	46857	111073	0	0	8127	526919	0	0
2024-08-26 16:15:47			0	38331	0	0	0	29742	28380	152456	27050	1079881	46856	111066	0	0	8127	527099	0	0
2024-08-26 16:16:47			0	38319	0	0	0	29758	28390	152460	26712	1079917	46857	111072	0	0	8126	527521	0	0
2024-08-26 16:17:47			0	38321	0	0	0	29786	28380	152512	27027	1079854	46877	111083	0	0	8126	527476	0	0
2024-08-26 16:18:47			0	38318	0	0	0	29755	28400	152508	26823	1079899	46869	111071	0	0	8126	527528	0	0
2024-08-26 16:19:47			0	38326	0	0	0	29714	28400	152508	26835	1079953	46869	111055	0	0	8127	527227	0	0
2024-08-26 16:20:47			0	38339	0	0	0	29727	28380	152484	27088	1079818	46856	111060	0	0	8128	526798	0	0
2024-08-26 16:21:47			0	38331	0	0	0	29719	28380	152560	26769	1079800	46867	111057	0	0	8127	527099	0	0
2024-08-26 16:22:47			0	38340	0	0	0	29703	28390	152460	26984	1079863	46857	111051	0	0	8128	526730	0	0
2024-08-26 16:23:47			0	38336	0	0	0	29740	28360	152520	27031	1079791	46854	111065	0	0	8127	526972	0	0
2024-08-26 16:24:47			0	38335	0	0	0	29774	28370	152548	26963	1079773	46876	111078	0	0	8127	526979	0	0
2024-08-26 16:25:47			0	38327	0	0	0	29745	28370	152528	26918	1079863	46867	111067	0	0	8127	527281	0	0
2024-08-26 16:26:47			0	38329	0	0	0	29698	28390	152464	27043	1079863	46868	111049	0	0	8128	527144	0	0
2024-08-26 16:27:47			0	38342	0	0	0	29675	28380	152384	26871	1079845	46856	111040	0	0	8129	526685	0	0
2024-08-26 16:28:47			0	38337	0	0	0	29670	28360	152384	26717	1079656	46842	111038	0	0	8128	526934	0	0
2024-08-26 16:29:47			0	38348	0	0	0	29672	28360	152400	27189	1079593	46831	111039	0	0	8129	526520	0	0
2024-08-26 16:30:47			0	38338	0	0	0	29675	28350	152472	27088	1079575	46853	111040	0	0	8128	526927	0	0
2024-08-26 16:31:47			0	38335	0	0	0	29690	28350	152464	27149	1079575	46841	111046	0	0	8128	527040	0	0
2024-08-26 16:32:47			0	38325	0	0	0	29667	28340	152492	27092	1079539	46840	111037	0	0	8128	527447	0	0
2024-08-26 16:33:47			0	38304	0	0	0	29753	28350	152552	27175	1079602	46841	111070	0	0	8125	528208	0	0
2024-08-26 16:34:47			0	38310	0	0	0	29799	28340	152584	26946	1079754	46863	111088	0	0	8125	528013	0	0
2024-08-26 16:35:47			0	38302	0	0	0	29818	28350	152680	27060	1079880	46897	111095	0	0	8124	528284	0	0
2024-08-26 16:36:47			0	38311	0	0	0	29794	28360	152684	26597	1079835	46886	111086	0	0	8125	527914	0	0
2024-08-26 16:37:47			0	38353	0	0	0	29786	28370	152380	27066	1079961	46899	111083	0	0	8127	526302	0	0
2024-08-26 16:38:47			0	38412	0	0	0	29763	28370	152264	27046	1079890	46877	111074	0	0	8131	524085	0	0
2024-08-26 16:39:47			0	38447	0	0	0	29776	28370	152132	26951	1079800	46866	111079	0	0	8133	522772	0	0
2024-08-26 16:40:47			0	38460	0	0	0	29779	28370	151980	26979	1079800	46876	111080	0	0	8134	522285	0	0
2024-08-26 16:41:47			0	38490	0	0	0	29779	28370	151952	27138	1079863	46877	111080	0	0	8135	521163	0	0
2024-08-26 16:42:47			0	38483	0	0	0	29784	28370	151980	26974	1079863	46867	111082	0	0	8135	521424	0	0
2024-08-26 16:43:47			0	38474	0	0	0	29789	28370	152048	26844	1079917	46877	111084	0	0	8134	521761	0	0
2024-08-26 16:44:47			0	38478	0	0	0	29802	28380	151996	26819	1079845	46856	111089	0	0	8134	521581	0	0
2024-08-26 16:45:47			0	38497	0	0	0	29797	28380	151952	27203	1080016	46877	111087	0	0	8135	520871	0	0
2024-08-26 16:46:47			0	38470	0	0	0	29818	28390	151900	26939	1079917	46878	111095	0	0	8134	521851	0	0
2024-08-26 16:47:47			0	38470	0	0	0	29815	28400	151996	27012	1080061	46879	111094	0	0	8134	521820	0	0
2024-08-26 16:48:47			0	38460	0	0	0	29815	28400	152024	27017	1080043	46869	111094	0	0	8133	522195	0	0
2024-08-26 16:49:47			0	38454	0	0	0	29805	28400	151960	26769	1080070	46891	111090	0	0	8133	522420	0	0
2024-08-26 16:50:47			0	38443	0	0	0	29737	28400	152056	26776	1080061	46869	111064	0	0	8133	522832	0	0
2024-08-26 16:51:47			0	38462	0	0	0	29755	28400	152004	26977	1079989	46858	111071	0	0	8134	522120	0	0
2024-08-26 16:52:47			0	38468	0	0	0	29748	28400	151860	27071	1079953	46858	111068	0	0	8135	521895	0	0
2024-08-26 16:53:47			0	38481	0	0	0	29706	28400	151896	26871	1079935	46869	111052	0	0	8136	521409	0	0
2024-08-26 16:54:47			0	38491	0	0	0	29675	28390	151848	26845	1079863	46857	111040	0	0	8137	521065	0	0
2024-08-26 16:55:47			0	38493	0	0	0	29724	28380	151776	27088	1079737	46856	111059	0	0	8136	521020	0	0
2024-08-26 16:56:47			0	38483	0	0	0	29758	28370	151828	26960	1079863	46856	111072	0	0	8135	521424	0	0
2024-08-26 16:57:47			0	38491	0	0	0	29784	28380	151876	26986	1079908	46856	111082	0	0	8135	521095	0	0
2024-08-26 16:58:47			0	38456	0	0	0	29737	28390	151944	26866	1079890	46857	111064	0	0	8134	522375	0	0
2024-08-26 16:59:47			0	38441	0	0	0	29755	28380	152156	26693	1079899	46867	111071	0	0	8133	522967	0	0
2024-08-26 17:00:47			0	38398	0	0	0	29771	28390	152196	27135	1079944	46868	111077	0	0	8130	524550	0	0
2024-08-26 17:01:47			0	38377	0	0	0	29763	28380	152164	26703	1079881	46856	111074	0	0	8129	525369	0	0
2024-08-26 17:02:47			0	38369	0	0	0	29735	28380	152320	27015	1079818	46856	111063	0	0	8129	525670	0	0
2024-08-26 17:03:47			0	38349	0	0	0	29722	28380	152356	26934	1079827	46856	111058	0	0	8128	526422	0	0
2024-08-26 17:04:47			0	38313	0	0	0	29711	28370	152540	26909	1079746	46855	111054	0	0	8126	527808	0	0
2024-08-26 17:05:47			0	38298	0	0	0	29737	28370	152520	26927	1079782	46867	111064	0	0	8125	528374	0	0
2024-08-26 17:06:47			0	38275	0	0	0	29724	28360	152744	27100	1079782	46853	111059	0	0	8124	529272	0	0
2024-08-26 17:07:47			0	38249	0	0	0	29724	28350	152724	27036	1079665	46853	111059	0	0	8122	530285	0	0
2024-08-26 17:08:47			0	38240	0	0	0	29742	28360	152744	27159	1079818	46865	111066	0	0	8122	530595	0	0
2024-08-26 17:09:47			0	38210	0	0	0	29766	28370	152860	26748	1079800	46866	111075	0	0	8120	531699	0	0
2024-08-26 17:10:47			0	38232	0	0	0	29753	28350	152952	27079	1079799	46864	111070	0	0	8121	530928	0	0
2024-08-26 17:11:47			0	38213	0	0	0	29753	28360	152924	27076	1079764	46875	111070	0	0	8120	531616	0	0
2024-08-26 17:12:47			0	38226	0	0	0	29763	28360	152832	27246	1079871	46865	111074	0	0	8120	531124	0	0
2024-08-26 17:13:47			0	38217	0	0	0	29750	28370	152868	27220	1079836	46867	111069	0	0	8120	531434	0	0
2024-08-26 17:14:47			0	38219	0	0	0	29727	28360	152888	26946	1079818	46865	111060	0	0	8121	531389	0	0
2024-08-26 17:15:47			0	38199	0	0	0	29737	28360	152960	27130	1079755	46853	111064	0	0	8119	532147	0	0
2024-08-26 17:16:47			0	38199	0	0	0	29742	28360	153012	26698	1079764	46854	111066	0	0	8119	532147	0	0
2024-08-26 17:17:47			0	38206	0	0	0	29735	28360	152972	27019	1079755	46864	111063	0	0	8120	531881	0	0
2024-08-26 17:18:47			0	38192	0	0	0	29675	28360	153008	26821	1079674	46841	111040	0	0	8120	532412	0	0
2024-08-26 17:19:47			0	38192	0	0	0	29633	28350	153004	26939	1079584	46831	111024	0	0	8121	532443	0	0
2024-08-26 17:20:47			0	38166	0	0	0	29646	28350	152928	27126	1079521	46841	111029	0	0	8119	533429	0	0
2024-08-26 17:21:47			0	38169	0	0	0	29696	28330	153192	26996	1079521	46829	111048	0	0	8118	533376	0	0
2024-08-26 17:22:47			0	38171	0	0	0	29722	28330	153268	27038	1079565	46862	111058	0	0	8118	533300	0	0
2024-08-26 17:23:47			0	38150	0	0	0	29711	28330	153288	26838	1079655	46873	111054	0	0	8117	534098	0	0
2024-08-26 17:24:47			0	38142	0	0	0	29696	28330	153264	27086	1079574	46862	111048	0	0	8117	534402	0	0
2024-08-26 17:25:47			0	38123	0	0	0	29745	28340	153264	27164	1079637	46862	111067	0	0	8115	535093	0	0
2024-08-26 17:26:47			0	38125	0	0	0	29763	28340	153260	27024	1079718	46884	111074	0	0	8115	535017	0	0
2024-08-26 17:27:47			0	38133	0	0	0	29771	28350	153256	26986	1079826	46875	111077	0	0	8115	534682	0	0
2024-08-26 17:28:47			0	38123	0	0	0	29735	28360	153288	27194	1079782	46886	111063	0	0	8115	535031	0	0
2024-08-26 17:29:47			0	38143	0	0	0	29742	28360	153292	26812	1079782	46875	111066	0	0	8116	534271	0	0
2024-08-26 17:30:47			0	38156	0	0	0	29709	28360	153104	26977	1079728	46864	111053	0	0	8117	533777	0	0
2024-08-26 17:31:47			0	38182	0	0	0	29719	28350	152920	27145	1079709	46864	111057	0	0	8119	532822	0	0
2024-08-26 17:32:47			0	38198	0	0	0	29737	28350	153012	26906	1079745	46864	111064	0	0	8119	532215	0	0
2024-08-26 17:33:47			0	38196	0	0	0	29750	28350	153020	26994	1079683	46864	111069	0	0	8119	532291	0	0
2024-08-26 17:34:47			0	38199	0	0	0	29716	28350	153028	27218	1079683	46875	111056	0	0	8120	532177	0	0
2024-08-26 17:35:47			0	38198	0	0	0	29727	28340	152980	26937	1079646	46874	111060	0	0	8119	532246	0	0
2024-08-26 17:36:47			0	38181	0	0	0	29748	28340	152900	26850	1079646	46874	111068	0	0	8118	532890	0	0
2024-08-26 17:37:47			0	38214	0	0	0	29761	28360	153012	27140	1079808	46875	111073	0	0	8120	531579	0	0
2024-08-26 17:38:47			0	38183	0	0	0	29774	28350	152984	26958	1079853	46864	111078	0	0	8118	532784	0	0
2024-08-26 17:39:47			0	38203	0	0	0	29758	28360	152980	26949	1079835	46864	111072	0	0	8119	531995	0	0
2024-08-26 17:40:47			0	38230	0	0	0	29755	28360	152796	26842	1079818	46865	111071	0	0	8121	530973	0	0
2024-08-26 17:41:47			0	38252	0	0	0	29745	28360	152704	26981	1079835	46875	111067	0	0	8122	530141	0	0
2024-08-26 17:42:47			0	38277	0	0	0	29742	28360	152656	27074	1079755	46864	111066	0	0	8124	529197	0	0
2024-08-26 17:43:47			0	38275	0	0	0	29742	28360	152648	27078	1079764	46887	111066	0	0	8124	529272	0	0
2024-08-26 17:44:47			0	38242	0	0	0	29732	28360	152708	26812	1079791	46865	111062	0	0	8122	530519	0	0
2024-08-26 17:45:47			0	38225	0	0	0	29716	28360	152800	27121	1079683	46865	111056	0	0	8121	531162	0	0
2024-08-26 17:46:47			0	38213	0	0	0	29716	28360	152880	27005	1079683	46854	111056	0	0	8120	531616	0	0
2024-08-26 17:47:47			0	38174	0	0	0	29696	28350	152992	26703	1079683	46853	111048	0	0	8119	533125	0	0
2024-08-26 17:48:47			0	38149	0	0	0	29703	28340	153112	26987	1079557	46851	111051	0	0	8117	534105	0	0
2024-08-26 17:49:47			0	38135	0	0	0	29714	28340	153308	26849	1079610	46862	111055	0	0	8116	534637	0	0
2024-08-26 17:50:47			0	38141	0	0	0	29737	28330	153328	27183	1079655	46862	111064	0	0	8116	534439	0	0
2024-08-26 17:51:47			0	38101	0	0	0	29737	28340	153312	27095	1079781	46874	111064	0	0	8114	535929	0	0
2024-08-26 17:52:47			0	38083	0	0	0	29722	28340	153384	27088	1079673	46863	111058	0	0	8113	536615	0	0
2024-08-26 17:53:47			0	38120	0	0	0	29727	28340	153404	26953	1079664	46873	111060	0	0	8115	535207	0	0
2024-08-26 17:54:47			0	38097	0	0	0	29716	28320	153436	27282	1079610	46850	111056	0	0	8114	536144	0	0
2024-08-26 17:55:47			0	38114	0	0	0	29719	28340	153304	26871	1079584	46862	111057	0	0	8115	535435	0	0
2024-08-26 17:56:47			0	38128	0	0	0	29714	28320	153388	27234	1079637	46872	111055	0	0	8115	534964	0	0
2024-08-26 17:57:47			0	38126	0	0	0	29703	28330	153356	26991	1079655	46839	111051	0	0	8116	535009	0	0
2024-08-26 17:58:47			0	38094	0	0	0	29698	28340	153364	27093	1079646	46863	111049	0	0	8114	536196	0	0
2024-08-26 17:59:47			0	38096	0	0	0	29703	28330	153400	26835	1079521	46862	111051	0	0	8114	536151	0	0
2024-08-26 18:00:47			0	38062	0	0	0	29714	28330	153544	26993	1079592	46862	111055	0	0	8112	537446	0	0
2024-08-26 18:01:47			0	38033	0	0	0	29722	28320	153624	27066	1079556	46850	111058	0	0	8110	538583	0	0
2024-08-26 18:02:47			0	38035	0	0	0	29722	28330	153604	27204	1079565	46873	111058	0	0	8110	538476	0	0
2024-08-26 18:03:47			0	38053	0	0	0	29719	28330	153644	26864	1079628	46873	111057	0	0	8111	537789	0	0
2024-08-26 18:04:47			0	38044	0	0	0	29716	28320	153576	27192	1079583	46861	111056	0	0	8111	538163	0	0
2024-08-26 18:05:47			0	38053	0	0	0	29722	28320	153608	27123	1079574	46849	111058	0	0	8111	537820	0	0
2024-08-26 18:06:47			0	38037	0	0	0	29716	28320	153632	27020	1079556	46861	111056	0	0	8110	538431	0	0
2024-08-26 18:07:47			0	38032	0	0	0	29711	28320	153616	27289	1079520	46860	111054	0	0	8110	538621	0	0
2024-08-26 18:08:47			0	38051	0	0	0	29709	28330	153716	27062	1079521	46884	111053	0	0	8111	537865	0	0
2024-08-26 18:09:47			0	38057	0	0	0	29735	28320	153608	27150	1079637	46872	111063	0	0	8111	537668	0	0
2024-08-26 18:10:47			0	38055	0	0	0	29732	28330	153604	27348	1079628	46862	111062	0	0	8111	537713	0	0
2024-08-26 18:11:47			0	38064	0	0	0	29748	28330	153520	26986	1079700	46873	111068	0	0	8111	537370	0	0
2024-08-26 18:12:47			0	38102	0	0	0	29742	28320	153468	26859	1079718	46850	111066	0	0	8113	535953	0	0
2024-08-26 18:13:47			0	38097	0	0	0	29748	28340	153332	27038	1079700	46874	111068	0	0	8113	536082	0	0
2024-08-26 18:14:47			0	38106	0	0	0	29740	28330	153340	26965	1079682	46873	111065	0	0	8114	535770	0	0
2024-08-26 18:15:47			0	38108	0	0	0	29727	28330	153344	27019	1079682	46873	111060	0	0	8114	535694	0	0
2024-08-26 18:16:47			0	38120	0	0	0	29729	28340	153380	26890	1079620	46874	111061	0	0	8115	535207	0	0
2024-08-26 18:17:47			0	38118	0	0	0	29719	28330	153284	27104	1079592	46873	111057	0	0	8115	535314	0	0
2024-08-26 18:18:47			0	38104	0	0	0	29722	28330	153320	27013	1079574	46873	111058	0	0	8114	535846	0	0
2024-08-26 18:19:47			0	38122	0	0	0	29724	28340	153376	26675	1079637	46873	111059	0	0	8115	535131	0	0
2024-08-26 18:20:47			0	38131	0	0	0	29729	28330	153328	27173	1079565	46873	111061	0	0	8115	534819	0	0
2024-08-26 18:21:47			0	38118	0	0	0	29714	28340	153388	27126	1079620	46874	111055	0	0	8115	535283	0	0
2024-08-26 18:22:47			0	38119	0	0	0	29716	28330	153392	27013	1079601	46862	111056	0	0	8115	535276	0	0
2024-08-26 18:23:47			0	38108	0	0	0	29714	28330	153328	27093	1079547	46862	111055	0	0	8114	535694	0	0
2024-08-26 18:24:47			0	38124	0	0	0	29729	28330	153360	27043	1079646	46873	111061	0	0	8115	535085	0	0
2024-08-26 18:25:47			0	38100	0	0	0	29732	28320	153444	26847	1079574	46871	111062	0	0	8114	536029	0	0
2024-08-26 18:26:47			0	38100	0	0	0	29727	28340	153440	27123	1079637	46873	111060	0	0	8114	535967	0	0
2024-08-26 18:27:47			0	38072	0	0	0	29735	28320	153492	27225	1079574	46860	111063	0	0	8112	537096	0	0
2024-08-26 18:28:47			0	38092	0	0	0	29724	28330	153452	26849	1079700	46873	111059	0	0	8113	536303	0	0
2024-08-26 18:29:47			0	38077	0	0	0	29722	28330	153516	27104	1079574	46884	111058	0	0	8112	536874	0	0
2024-08-26 18:30:47			0	38073	0	0	0	29735	28330	153548	27241	1079655	46873	111063	0	0	8112	537027	0	0
2024-08-26 18:31:47			0	38076	0	0	0	29742	28340	153492	26689	1079664	46873	111066	0	0	8112	536881	0	0
2024-08-26 18:32:47			0	38078	0	0	0	29719	28320	153544	26916	1079583	46872	111057	0	0	8112	536867	0	0
2024-08-26 18:33:47			0	38077	0	0	0	29719	28330	153520	26856	1079709	46851	111057	0	0	8112	536874	0	0
2024-08-26 18:34:47			0	38080	0	0	0	29724	28330	153524	27078	1079673	46862	111059	0	0	8113	536760	0	0
2024-08-26 18:35:47			0	38086	0	0	0	29740	28330	153516	26845	1079700	46884	111065	0	0	8113	536531	0	0
2024-08-26 18:36:47			0	38080	0	0	0	29742	28340	153480	27053	1079637	46873	111066	0	0	8112	536729	0	0
2024-08-26 18:37:47			0	38073	0	0	0	29742	28340	153508	26981	1079610	46873	111066	0	0	8112	536996	0	0
2024-08-26 18:38:47			0	38075	0	0	0	29735	28340	153496	26852	1079691	46873	111063	0	0	8112	536919	0	0
2024-08-26 18:39:47			0	38069	0	0	0	29716	28330	153516	26538	1079709	46862	111056	0	0	8112	537179	0	0
2024-08-26 18:40:47			0	38076	0	0	0	29737	28340	153504	26648	1079646	46852	111064	0	0	8112	536881	0	0
2024-08-26 18:41:47			0	38072	0	0	0	29740	28340	153492	27001	1079700	46874	111065	0	0	8112	537034	0	0
2024-08-26 18:42:47			0	38085	0	0	0	29732	28340	153552	26823	1079727	46885	111062	0	0	8113	536538	0	0
2024-08-26 18:43:47			0	38060	0	0	0	29722	28340	153552	27046	1079781	46874	111058	0	0	8112	537491	0	0
2024-08-26 18:44:47			0	38062	0	0	0	29729	28330	153492	27130	1079700	46873	111061	0	0	8111	537446	0	0
2024-08-26 18:45:47			0	38066	0	0	0	29709	28340	153504	26587	1079664	46884	111053	0	0	8112	537262	0	0
2024-08-26 18:46:47			0	38059	0	0	0	29706	28330	153568	26795	1079565	46873	111052	0	0	8112	537560	0	0
2024-08-26 18:47:47			0	38046	0	0	0	29722	28330	153600	26909	1079565	46884	111058	0	0	8111	538056	0	0
2024-08-26 18:48:47			0	38049	0	0	0	29727	28330	153540	26774	1079628	46862	111060	0	0	8111	537942	0	0
2024-08-26 18:49:47			0	38048	0	0	0	29724	28330	153588	26837	1079592	46884	111059	0	0	8111	537980	0	0
2024-08-26 18:50:47			0	38038	0	0	0	29706	28340	153636	26981	1079610	46873	111052	0	0	8111	538330	0	0
2024-08-26 18:51:47			0	38039	0	0	0	29690	28330	153564	26863	1079601	46862	111046	0	0	8111	538323	0	0
2024-08-26 18:52:47			0	38053	0	0	0	29683	28320	153552	26760	1079520	46849	111043	0	0	8112	537820	0	0
2024-08-26 18:53:47			0	38033	0	0	0	29683	28320	153628	26844	1079475	46850	111043	0	0	8111	538583	0	0
2024-08-26 18:54:47			0	38039	0	0	0	29672	28320	153624	27034	1079448	46850	111039	0	0	8111	538354	0	0
2024-08-26 18:55:47			0	38035	0	0	0	29683	28310	153668	26963	1079457	46871	111043	0	0	8111	538538	0	0
2024-08-26 18:56:47			0	38039	0	0	0	29677	28300	153776	27060	1079493	46859	111041	0	0	8111	538416	0	0
2024-08-26 18:57:47			0	38009	0	0	0	29711	28310	153723	27079	1079484	46860	111054	0	0	8109	539531	0	0
2024-08-26 18:58:47			0	38025	0	0	0	29701	28310	153703	26753	1079529	46871	111050	0	0	8110	538920	0	0
2024-08-26 18:59:47			0	38025	0	0	0	29701	28310	153688	27256	1079529	46860	111050	0	0	8110	538920	0	0
2024-08-26 19:00:47			0	38028	0	0	0	29701	28310	153692	27157	1079529	46871	111050	0	0	8110	538805	0	0
2024-08-26 19:01:47			0	38030	0	0	0	29716	28310	153724	26875	1079502	46871	111056	0	0	8110	538729	0	0
2024-08-26 19:02:47			0	38038	0	0	0	29722	28310	153732	26949	1079529	46871	111058	0	0	8110	538424	0	0
2024-08-26 19:03:47			0	38035	0	0	0	29714	28310	153732	27031	1079538	46871	111055	0	0	8110	538538	0	0
2024-08-26 19:04:47			0	38042	0	0	0	29706	28310	153700	26887	1079538	46871	111052	0	0	8111	538271	0	0
2024-08-26 19:05:47			0	38017	0	0	0	29683	28310	153775	27130	1079529	46871	111043	0	0	8110	539225	0	0
2024-08-26 19:06:47			0	38022	0	0	0	29672	28310	153743	26615	1079538	46860	111039	0	0	8110	539034	0	0
2024-08-26 19:07:47			0	38013	0	0	0	29683	28310	153699	26731	1079511	46871	111043	0	0	8109	539378	0	0
2024-08-26 19:08:47			0	38004	0	0	0	29677	28310	153811	26885	1079475	46871	111041	0	0	8109	539722	0	0
2024-08-26 19:09:47			0	38018	0	0	0	29693	28300	153795	26762	1079484	46869	111047	0	0	8109	539218	0	0
2024-08-26 19:10:47			0	37995	0	0	0	29709	28310	153791	27062	1079502	46882	111053	0	0	8108	540066	0	0
2024-08-26 19:11:47			0	37998	0	0	0	29716	28300	153799	26965	1079457	46880	111056	0	0	8108	539983	0	0
2024-08-26 19:12:47			0	37986	0	0	0	29719	28300	153975	26890	1079493	46892	111057	0	0	8107	540442	0	0
2024-08-26 19:13:47			0	37985	0	0	0	29727	28310	153947	26814	1079610	46871	111060	0	0	8107	540449	0	0
2024-08-26 19:14:47			0	37987	0	0	0	29729	28310	153983	26901	1079565	46871	111061	0	0	8107	540372	0	0
2024-08-26 19:15:47			0	37992	0	0	0	29729	28320	153903	26896	1079574	46882	111061	0	0	8107	540150	0	0
2024-08-26 19:16:47			0	37990	0	0	0	29724	28310	153771	26755	1079565	46871	111059	0	0	8107	540257	0	0
2024-08-26 19:17:47			0	37998	0	0	0	29701	28320	153811	26979	1079574	46871	111050	0	0	8108	539920	0	0
2024-08-26 19:18:47			0	38008	0	0	0	29706	28320	153835	26774	1079628	46871	111052	0	0	8109	539538	0	0
2024-08-26 19:19:47			0	38004	0	0	0	29711	28310	153771	27001	1079538	46871	111054	0	0	8108	539722	0	0
2024-08-26 19:20:47			0	38021	0	0	0	29711	28320	153688	26791	1079493	46860	111054	0	0	8109	539041	0	0
2024-08-26 19:21:47			0	38007	0	0	0	29716	28320	153787	26689	1079610	46883	111056	0	0	8108	539576	0	0
2024-08-26 19:22:47			0	38030	0	0	0	29709	28320	153780	26963	1079628	46871	111053	0	0	8110	538698	0	0
2024-08-26 19:23:47			0	37996	0	0	0	29706	28320	153779	26620	1079493	46871	111052	0	0	8108	539997	0	0
2024-08-26 19:24:47			0	38019	0	0	0	29696	28320	153767	26554	1079691	46861	111048	0	0	8109	539118	0	0
2024-08-26 19:25:47			0	38016	0	0	0	29701	28320	153751	26901	1079583	46861	111050	0	0	8109	539232	0	0
2024-08-26 19:26:47			0	38009	0	0	0	29698	28320	153747	26648	1079547	46882	111049	0	0	8109	539500	0	0
2024-08-26 19:27:47			0	38001	0	0	0	29709	28310	153747	26675	1079511	46882	111053	0	0	8108	539837	0	0
2024-08-26 19:28:47			0	38015	0	0	0	29714	28320	153855	26760	1079547	46871	111055	0	0	8109	539271	0	0
2024-08-26 19:29:47			0	38005	0	0	0	29709	28320	153707	26753	1079556	46883	111053	0	0	8108	539653	0	0
2024-08-26 19:30:47			0	38017	0	0	0	29706	28310	153795	26883	1079556	46849	111052	0	0	8109	539225	0	0
2024-08-26 19:31:47			0	38003	0	0	0	29709	28310	153803	26838	1079475	46860	111053	0	0	8108	539760	0	0
2024-08-26 19:32:47			0	37993	0	0	0	29706	28310	153967	26944	1079538	46849	111052	0	0	8108	540143	0	0
2024-08-26 19:33:47			0	37993	0	0	0	29709	28310	153835	26781	1079565	46882	111053	0	0	8108	540143	0	0
2024-08-26 19:34:47			0	37984	0	0	0	29714	28310	153915	26656	1079511	46871	111055	0	0	8107	540487	0	0
2024-08-26 19:35:47			0	37981	0	0	0	29714	28320	153971	26783	1079556	46872	111055	0	0	8107	540571	0	0
2024-08-26 19:36:47			0	37988	0	0	0	29714	28310	153987	26710	1079529	46871	111055	0	0	8107	540334	0	0
2024-08-26 19:37:47			0	37971	0	0	0	29716	28310	153975	26963	1079646	46871	111056	0	0	8106	540984	0	0
2024-08-26 19:38:47			0	37973	0	0	0	29722	28310	153895	27159	1079592	46882	111058	0	0	8106	540908	0	0
2024-08-26 19:39:47			0	37958	0	0	0	29722	28320	154087	26986	1079583	46883	111058	0	0	8106	541451	0	0
2024-08-26 19:40:47			0	37968	0	0	0	29719	28310	153987	26795	1079565	46860	111057	0	0	8106	541099	0	0
2024-08-26 19:41:47			0	37954	0	0	0	29737	28310	154019	26899	1079619	46882	111064	0	0	8105	541636	0	0
2024-08-26 19:42:47			0	37948	0	0	0	29735	28320	154015	26760	1079691	46883	111063	0	0	8105	541834	0	0
2024-08-26 19:43:47			0	37940	0	0	0	29729	28330	154119	26923	1079646	46884	111061	0	0	8104	542110	0	0
2024-08-26 19:44:47			0	37938	0	0	0	29727	28320	154163	26759	1079664	46872	111060	0	0	8104	542217	0	0
2024-08-26 19:45:47			0	37935	0	0	0	29727	28330	154155	27029	1079673	46884	111060	0	0	8104	542301	0	0
2024-08-26 19:46:47			0	37921	0	0	0	29719	28320	154227	27041	1079655	46871	111057	0	0	8103	542869	0	0
2024-08-26 19:47:47			0	37911	0	0	0	29724	28330	154179	26986	1079673	46873	111059	0	0	8103	543222	0	0
2024-08-26 19:48:47			0	37901	0	0	0	29724	28330	154267	26942	1079619	46873	111059	0	0	8102	543606	0	0
2024-08-26 19:49:47			0	37901	0	0	0	29711	28330	154151	26644	1079673	46873	111054	0	0	8103	543606	0	0
2024-08-26 19:50:47			0	37908	0	0	0	29706	28330	154327	27085	1079565	46862	111052	0	0	8103	543337	0	0
2024-08-26 19:51:47			0	37888	0	0	0	29714	28320	154203	27168	1079547	46871	111055	0	0	8102	544136	0	0
2024-08-26 19:52:47			0	37903	0	0	0	29719	28320	154231	27220	1079556	46872	111057	0	0	8102	543560	0	0
2024-08-26 19:53:47			0	37898	0	0	0	29709	28320	154219	26984	1079556	46861	111053	0	0	8102	543752	0	0
2024-08-26 19:54:47			0	37903	0	0	0	29690	28320	154171	27159	1079520	46871	111046	0	0	8103	543560	0	0
2024-08-26 19:55:47			0	37914	0	0	0	29693	28310	154163	26989	1079511	46871	111047	0	0	8103	543169	0	0
2024-08-26 19:56:47			0	37906	0	0	0	29696	28310	154207	26963	1079502	46860	111048	0	0	8103	543477	0	0
2024-08-26 19:57:47			0	37918	0	0	0	29690	28310	154187	26981	1079511	46860	111046	0	0	8104	543016	0	0
2024-08-26 19:58:47			0	37899	0	0	0	29693	28310	154191	26654	1079448	46871	111047	0	0	8103	543745	0	0
2024-08-26 19:59:47			0	37910	0	0	0	29693	28310	154195	26828	1079502	46871	111047	0	0	8103	543323	0	0
2024-08-26 20:00:47			0	37882	0	0	0	29693	28300	154215	26908	1079466	46881	111047	0	0	8102	544430	0	0
2024-08-26 20:01:47			0	37883	0	0	0	29703	28310	154279	27057	1079484	46882	111051	0	0	8102	544360	0	0
2024-08-26 20:02:47			0	37859	0	0	0	29693	28310	154259	26942	1079475	46882	111047	0	0	8100	545283	0	0
2024-08-26 20:03:47			0	37886	0	0	0	29685	28300	154255	26994	1079430	46869	111044	0	0	8102	544276	0	0
2024-08-26 20:04:47			0	37863	0	0	0	29685	28300	154335	26743	1079466	46870	111044	0	0	8101	545161	0	0
2024-08-26 20:05:47			0	37847	0	0	0	29683	28280	154331	27008	1079430	46857	111043	0	0	8100	545839	0	0
2024-08-26 20:06:47			0	37824	0	0	0	29680	28300	154415	26930	1079457	46858	111042	0	0	8098	546662	0	0
2024-08-26 20:07:47			0	37821	0	0	0	29677	28280	154547	27046	1079394	46867	111041	0	0	8098	546841	0	0
2024-08-26 20:08:47			0	37807	0	0	0	29688	28300	154551	26920	1079430	46858	111045	0	0	8097	547318	0	0
2024-08-26 20:09:47			0	37806	0	0	0	29677	28300	154567	26771	1079430	46869	111041	0	0	8097	547356	0	0
2024-08-26 20:10:47			0	37783	0	0	0	29677	28300	154591	26989	1079457	46880	111041	0	0	8096	548244	0	0
2024-08-26 20:11:47			0	37768	0	0	0	29690	28300	154691	26934	1079457	46869	111046	0	0	8095	548823	0	0
2024-08-26 20:12:47			0	37774	0	0	0	29680	28300	154711	26998	1079457	46858	111042	0	0	8096	548591	0	0
2024-08-26 20:13:47			0	37768	0	0	0	29675	28280	154767	26837	1079403	46857	111040	0	0	8095	548886	0	0
2024-08-26 20:14:47			0	37759	0	0	0	29675	28290	154779	26531	1079421	46869	111040	0	0	8095	549203	0	0
2024-08-26 20:15:47			0	37759	0	0	0	29675	28280	154727	26842	1079430	46879	111040	0	0	8095	549234	0	0
2024-08-26 20:16:47			0	37743	0	0	0	29675	28290	154767	27071	1079421	46858	111040	0	0	8094	549821	0	0
2024-08-26 20:17:47			0	37751	0	0	0	29664	28280	154795	27119	1079394	46845	111036	0	0	8094	549544	0	0
2024-08-26 20:18:47			0	37748	0	0	0	29657	28280	154747	27114	1079376	46868	111033	0	0	8094	549660	0	0
2024-08-26 20:19:47			0	37746	0	0	0	29644	28280	154803	26627	1079367	46867	111028	0	0	8094	549737	0	0
2024-08-26 20:20:47			0	37777	0	0	0	29649	28280	154735	26859	1079259	46867	111030	0	0	8096	548539	0	0
2024-08-26 20:21:47			0	37766	0	0	0	29644	28270	154875	26719	1079321	46844	111028	0	0	8096	548996	0	0
2024-08-26 20:22:47			0	37799	0	0	0	29641	28270	154731	26814	1079304	46855	111027	0	0	8098	547721	0	0
2024-08-26 20:23:47			0	37799	0	0	0	29654	28250	154759	26944	1079294	46864	111032	0	0	8097	547784	0	0
2024-08-26 20:24:47			0	37815	0	0	0	29657	28250	154595	26932	1079240	46875	111033	0	0	8098	547167	0	0
2024-08-26 20:25:47			0	37812	0	0	0	29646	28260	154579	27074	1079222	46865	111029	0	0	8098	547251	0	0
2024-08-26 20:26:47			0	37838	0	0	0	29657	28260	154487	27033	1079258	46877	111033	0	0	8099	546249	0	0
2024-08-26 20:27:47			0	37840	0	0	0	29651	28260	154535	26984	1079276	46887	111031	0	0	8100	546172	0	0
2024-08-26 20:28:47			0	37846	0	0	0	29646	28250	154511	26628	1079240	46875	111029	0	0	8100	545972	0	0
2024-08-26 20:29:47			0	37842	0	0	0	29651	28260	154467	27053	1079231	46866	111031	0	0	8100	546095	0	0
2024-08-26 20:30:47			0	37849	0	0	0	29651	28250	154471	26904	1079213	46864	111031	0	0	8100	545857	0	0
2024-08-26 20:31:47			0	37842	0	0	0	29646	28250	154475	27090	1079285	46864	111029	0	0	8100	546127	0	0
2024-08-26 20:32:47			0	37846	0	0	0	29644	28240	154507	26958	1079276	46864	111028	0	0	8100	546004	0	0
2024-08-26 20:33:47			0	37844	0	0	0	29638	28260	154515	26686	1079276	46865	111026	0	0	8100	546018	0	0
2024-08-26 20:34:47			0	37823	0	0	0	29641	28250	154527	26996	1079204	46875	111027	0	0	8099	546859	0	0
2024-08-26 20:35:47			0	37841	0	0	0	29644	28240	154475	27083	1079168	46875	111028	0	0	8100	546197	0	0
2024-08-26 20:36:47			0	37844	0	0	0	29649	28250	154587	27052	1079240	46875	111030	0	0	8100	546049	0	0
2024-08-26 20:37:47			0	37830	0	0	0	29636	28240	154567	26757	1079222	46875	111025	0	0	8099	546620	0	0
2024-08-26 20:38:47			0	37831	0	0	0	29636	28240	154635	27062	1079222	46864	111025	0	0	8099	546582	0	0
2024-08-26 20:39:47			0	37844	0	0	0	29641	28250	154575	27008	1079150	46864	111027	0	0	8100	546049	0	0
2024-08-26 20:40:47			0	37830	0	0	0	29641	28230	154511	27005	1079150	46862	111027	0	0	8099	546652	0	0
2024-08-26 20:41:47			0	37822	0	0	0	29633	28240	154435	26852	1079195	46875	111024	0	0	8099	546929	0	0
2024-08-26 20:42:47			0	37819	0	0	0	29628	28240	154695	27180	1079213	46875	111022	0	0	8099	547044	0	0
2024-08-26 20:43:47			0	37827	0	0	0	29633	28240	154743	26894	1079132	46863	111024	0	0	8099	546736	0	0
2024-08-26 20:44:47			0	37799	0	0	0	29628	28240	154679	26875	1079141	46886	111022	0	0	8098	547816	0	0
2024-08-26 20:45:47			0	37764	0	0	0	29625	28230	154763	26972	1079195	46862	111021	0	0	8096	549200	0	0
2024-08-26 20:46:47			0	37793	0	0	0	29628	28230	154771	27053	1079150	46874	111022	0	0	8097	548079	0	0
2024-08-26 20:47:47			0	37792	0	0	0	29620	28230	154887	26923	1079123	46862	111019	0	0	8097	548118	0	0
2024-08-26 20:48:47			0	37769	0	0	0	29618	28240	154839	26961	1079159	46863	111018	0	0	8096	548975	0	0
2024-08-26 20:49:47			0	37770	0	0	0	29625	28230	154831	27150	1079069	46862	111021	0	0	8096	548968	0	0
2024-08-26 20:50:47			0	37758	0	0	0	29615	28230	154875	27161	1079087	46862	111017	0	0	8095	549432	0	0
2024-08-26 20:51:47			0	37763	0	0	0	29612	28230	154799	27263	1079114	46862	111016	0	0	8096	549238	0	0
2024-08-26 20:52:47			0	37772	0	0	0	29610	28220	154899	26791	1079096	46861	111015	0	0	8096	548922	0	0
2024-08-26 20:53:47			0	37755	0	0	0	29615	28220	154895	27026	1079105	46861	111017	0	0	8095	549579	0	0
2024-08-26 20:54:47			0	37756	0	0	0	29612	28220	154883	26998	1079096	46861	111016	0	0	8095	549541	0	0
2024-08-26 20:55:47			0	37754	0	0	0	29610	28210	154839	26942	1079113	46872	111015	0	0	8095	549650	0	0
2024-08-26 20:56:47			0	37755	0	0	0	29602	28220	154883	27218	1079042	46873	111012	0	0	8095	549579	0	0
2024-08-26 20:57:47			0	37742	0	0	0	29599	28220	154931	27088	1079096	46861	111011	0	0	8095	550082	0	0
2024-08-26 20:58:47			0	37746	0	0	0	29597	28210	155007	26975	1078997	46872	111010	0	0	8095	549959	0	0
2024-08-26 20:59:47			0	37744	0	0	0	29599	28220	155091	27144	1079042	46861	111011	0	0	8095	550005	0	0
2024-08-26 21:00:47			0	37751	0	0	0	29605	28200	154999	27024	1078961	46859	111013	0	0	8095	549798	0	0
2024-08-26 21:01:47			0	37753	0	0	0	29605	28210	155039	27043	1079060	46872	111013	0	0	8095	549688	0	0
2024-08-26 21:02:47			0	37732	0	0	0	29605	28210	154987	27227	1079024	46872	111013	0	0	8094	550501	0	0
2024-08-26 21:03:47			0	37717	0	0	0	29602	28210	155083	26989	1078970	46860	111012	0	0	8093	551082	0	0
2024-08-26 21:04:47			0	37721	0	0	0	29612	28200	154999	26759	1078978	46871	111016	0	0	8093	550959	0	0
2024-08-26 21:05:47			0	37725	0	0	0	29605	28200	155083	27182	1078988	46871	111013	0	0	8094	550804	0	0
2024-08-26 21:06:47			0	37731	0	0	0	29607	28210	155079	26967	1079060	46860	111014	0	0	8094	550540	0	0
2024-08-26 21:07:47			0	37699	0	0	0	29607	28190	155151	26961	1078996	46858	111014	0	0	8092	551844	0	0
2024-08-26 21:08:47			0	37717	0	0	0	29610	28200	155223	27197	1078978	46871	111015	0	0	8093	551114	0	0
2024-08-26 21:09:47			0	37689	0	0	0	29610	28210	155139	27015	1079060	46860	111015	0	0	8091	552168	0	0
2024-08-26 21:10:47			0	37682	0	0	0	29602	28220	155207	26876	1079042	46873	111012	0	0	8091	552407	0	0
2024-08-26 21:11:47			0	37687	0	0	0	29599	28200	155259	26946	1079005	46859	111011	0	0	8091	552277	0	0
2024-08-26 21:12:47			0	37694	0	0	0	29615	28200	155275	26998	1078952	46871	111017	0	0	8092	552006	0	0
2024-08-26 21:13:47			0	37669	0	0	0	29602	28200	155279	27204	1079059	46871	111012	0	0	8090	552976	0	0
2024-08-26 21:14:47			0	37664	0	0	0	29599	28190	155339	27213	1078916	46880	111011	0	0	8090	553202	0	0
2024-08-26 21:15:47			0	37681	0	0	0	29597	28210	155287	26852	1079051	46872	111010	0	0	8091	552478	0	0
2024-08-26 21:16:47			0	37667	0	0	0	29589	28210	155335	26922	1079024	46872	111007	0	0	8091	553022	0	0
2024-08-26 21:17:47			0	37637	0	0	0	29602	28190	155287	27140	1078933	46869	111012	0	0	8088	554251	0	0
2024-08-26 21:18:47			0	37661	0	0	0	29594	28200	155395	27123	1078952	46871	111009	0	0	8090	553287	0	0
2024-08-26 21:19:47			0	37630	0	0	0	29594	28200	155403	27192	1079032	46848	111009	0	0	8088	554491	0	0
2024-08-26 21:20:47			0	37658	0	0	0	29599	28190	155359	26896	1078960	46857	111011	0	0	8090	553435	0	0
2024-08-26 21:21:47			0	37647	0	0	0	29594	28190	155375	27076	1078969	46858	111009	0	0	8089	553862	0	0
2024-08-26 21:22:47			0	37636	0	0	0	29592	28200	155379	26894	1078925	46881	111008	0	0	8089	554258	0	0
2024-08-26 21:23:47			0	37636	0	0	0	29592	28180	155359	26979	1078870	46857	111008	0	0	8089	554322	0	0
2024-08-26 21:24:47			0	37623	0	0	0	29597	28190	155351	27142	1078906	46869	111010	0	0	8088	554796	0	0
2024-08-26 21:25:47			0	37609	0	0	0	29586	28190	155435	27203	1078987	46857	111006	0	0	8087	555341	0	0
2024-08-26 21:26:47			0	37626	0	0	0	29589	28190	155463	27254	1078960	46869	111007	0	0	8088	554679	0	0
2024-08-26 21:27:47			0	37605	0	0	0	29592	28190	155467	27086	1078960	46869	111008	0	0	8087	555497	0	0
2024-08-26 21:28:47			0	37625	0	0	0	29586	28190	155439	27078	1078942	46858	111006	0	0	8088	554718	0	0
2024-08-26 21:29:47			0	37634	0	0	0	29589	28190	155435	26830	1079023	46870	111007	0	0	8088	554368	0	0
2024-08-26 21:30:47			0	37636	0	0	0	29592	28180	155559	27277	1078951	46869	111008	0	0	8089	554322	0	0
2024-08-26 21:31:47			0	37631	0	0	0	29579	28180	155359	26785	1078951	46869	111003	0	0	8088	554517	0	0
2024-08-26 21:32:47			0	37646	0	0	0	29584	28180	155423	27156	1078915	46869	111005	0	0	8089	553933	0	0
2024-08-26 21:33:47			0	37633	0	0	0	29584	28180	155471	27088	1078915	46869	111005	0	0	8088	554439	0	0
2024-08-26 21:34:47			0	37619	0	0	0	29597	28190	155491	27180	1078942	46858	111010	0	0	8087	554952	0	0
2024-08-26 21:35:47			0	37600	0	0	0	29586	28190	155499	27015	1078906	46857	111006	0	0	8087	555691	0	0
2024-08-26 21:36:47			0	37603	0	0	0	29584	28180	155523	27033	1078951	46869	111005	0	0	8087	555607	0	0
2024-08-26 21:37:47			0	37589	0	0	0	29579	28190	155435	26920	1078880	46857	111003	0	0	8086	556120	0	0
2024-08-26 21:38:47			0	37566	0	0	0	29589	28180	155563	27003	1078924	46869	111007	0	0	8085	557049	0	0
2024-08-26 21:39:47			0	37582	0	0	0	29584	28180	155619	26974	1078915	46857	111005	0	0	8086	556425	0	0
2024-08-26 21:40:47			0	37552	0	0	0	29576	28190	155699	26871	1078880	46857	111002	0	0	8084	557563	0	0
2024-08-26 21:41:47			0	37550	0	0	0	29568	28180	155799	26974	1078915	46869	110999	0	0	8084	557673	0	0
2024-08-26 21:42:47			0	37561	0	0	0	29571	28180	155755	26830	1078897	46869	111000	0	0	8085	557244	0	0
2024-08-26 21:43:47			0	37546	0	0	0	29568	28180	155851	26795	1078897	46857	110999	0	0	8084	557830	0	0
2024-08-26 21:44:47			0	37537	0	0	0	29566	28170	155883	26857	1078843	46867	110998	0	0	8083	558213	0	0
2024-08-26 21:45:47			0	37519	0	0	0	29566	28190	155867	27170	1078853	46869	110998	0	0	8082	558852	0	0
2024-08-26 21:46:47			0	37512	0	0	0	29568	28170	155935	27062	1078879	46856	110999	0	0	8082	559191	0	0
2024-08-26 21:47:47			0	37528	0	0	0	29555	28170	155847	26955	1078825	46856	110994	0	0	8083	558565	0	0
2024-08-26 21:48:47			0	37526	0	0	0	29550	28170	155915	27270	1078798	46834	110992	0	0	8083	558643	0	0
2024-08-26 21:49:47			0	37512	0	0	0	29558	28170	155823	27031	1078816	46855	110995	0	0	8082	559191	0	0
2024-08-26 21:50:47			0	37519	0	0	0	29540	28160	155911	26934	1078780	46889	110988	0	0	8083	558949	0	0
2024-08-26 21:51:47			0	37515	0	0	0	29548	28170	155879	26981	1078762	46855	110991	0	0	8082	559073	0	0
2024-08-26 21:52:47			0	37501	0	0	0	29550	28150	155883	26906	1078753	46853	110992	0	0	8081	559686	0	0
2024-08-26 21:53:47			0	37532	0	0	0	29548	28160	155899	26783	1078780	46855	110991	0	0	8083	558441	0	0
2024-08-26 21:54:47			0	37488	0	0	0	29545	28160	156011	27182	1078753	46877	110990	0	0	8081	560162	0	0
2024-08-26 21:55:47			0	37514	0	0	0	29550	28150	156047	27098	1078762	46876	110992	0	0	8082	559177	0	0
2024-08-26 21:56:47			0	37488	0	0	0	29545	28160	155967	27095	1078744	46854	110990	0	0	8081	560162	0	0
2024-08-26 21:57:47			0	37501	0	0	0	29542	28150	155995	27209	1078762	46866	110989	0	0	8081	559686	0	0
2024-08-26 21:58:47			0	37493	0	0	0	29545	28150	156003	26923	1078753	46865	110990	0	0	8081	559999	0	0
2024-08-26 21:59:47			0	37477	0	0	0	29535	28150	156003	27062	1078699	46853	110986	0	0	8080	560626	0	0
2024-08-26 22:00:47			0	37505	0	0	0	29542	28150	155995	26809	1078780	46853	110989	0	0	8082	559529	0	0
2024-08-26 22:01:47			0	37484	0	0	0	29537	28150	156107	26925	1078708	46876	110987	0	0	8080	560351	0	0
2024-08-26 22:02:47			0	37498	0	0	0	29550	28150	156003	26909	1078708	46866	110992	0	0	8081	559803	0	0
2024-08-26 22:03:47			0	37494	0	0	0	29542	28140	156007	26937	1078582	46865	110989	0	0	8081	559992	0	0
2024-08-26 22:04:47			0	37478	0	0	0	29535	28140	156119	27026	1078690	46875	110986	0	0	8080	560619	0	0
2024-08-26 22:05:47			0	37482	0	0	0	29535	28140	156111	26769	1078690	46865	110986	0	0	8080	560462	0	0
2024-08-26 22:06:47			0	37469	0	0	0	29542	28150	156063	26967	1078672	46865	110989	0	0	8080	560939	0	0
2024-08-26 22:07:47			0	37479	0	0	0	29524	28150	156051	26972	1078699	46853	110982	0	0	8080	560547	0	0
2024-08-26 22:08:47			0	37485	0	0	0	29537	28140	156163	27164	1078627	46864	110987	0	0	8081	560344	0	0
2024-08-26 22:09:47			0	37483	0	0	0	29529	28130	156047	27020	1078645	46864	110984	0	0	8080	560455	0	0
2024-08-26 22:10:47			0	37484	0	0	0	29535	28140	156147	26679	1078708	46864	110986	0	0	8080	560384	0	0
2024-08-26 22:11:47			0	37463	0	0	0	29532	28130	156007	26764	1078699	46864	110985	0	0	8079	561239	0	0
2024-08-26 22:12:47			0	37480	0	0	0	29532	28140	156011	26830	1078681	46852	110985	0	0	8080	560540	0	0
2024-08-26 22:13:47			0	37485	0	0	0	29540	28130	156035	26712	1078726	46852	110988	0	0	8080	560377	0	0
2024-08-26 22:14:47			0	37488	0	0	0	29532	28140	156027	26974	1078654	46864	110985	0	0	8081	560227	0	0
2024-08-26 22:15:47			0	37489	0	0	0	29535	28130	156011	26889	1078699	46875	110986	0	0	8081	560220	0	0
2024-08-26 22:16:47			0	37486	0	0	0	29537	28130	156011	27034	1078690	46863	110987	0	0	8081	560338	0	0
2024-08-26 22:17:47			0	37497	0	0	0	29542	28130	155951	26902	1078645	46875	110989	0	0	8081	559907	0	0
2024-08-26 22:18:47			0	37488	0	0	0	29529	28140	156035	27109	1078600	46875	110984	0	0	8081	560227	0	0
2024-08-26 22:19:47			0	37486	0	0	0	29527	28130	155999	27083	1078618	46864	110983	0	0	8081	560338	0	0
2024-08-26 22:20:47			0	37488	0	0	0	29527	28130	155935	26835	1078645	46852	110983	0	0	8081	560259	0	0
2024-08-26 22:21:47			0	37494	0	0	0	29519	28130	155991	26894	1078591	46852	110980	0	0	8081	560024	0	0
2024-08-26 22:22:47			0	37481	0	0	0	29516	28140	156051	26585	1078654	46875	110979	0	0	8081	560501	0	0
2024-08-26 22:23:47			0	37501	0	0	0	29516	28120	156095	26840	1078546	46863	110979	0	0	8082	559783	0	0
2024-08-26 22:24:47			0	37471	0	0	0	29506	28120	156059	26989	1078564	46862	110975	0	0	8080	560958	0	0
2024-08-26 22:25:47			0	37451	0	0	0	29516	28120	156079	26974	1078653	46863	110979	0	0	8079	561742	0	0
2024-08-26 22:26:47			0	37456	0	0	0	29514	28120	156127	27010	1078537	46862	110978	0	0	8079	561546	0	0
2024-08-26 22:27:47			0	37451	0	0	0	29506	28120	155999	26967	1078573	46863	110975	0	0	8079	561742	0	0
2024-08-26 22:28:47			0	37450	0	0	0	29516	28120	156159	27334	1078618	46850	110979	0	0	8079	561781	0	0
2024-08-26 22:29:47			0	37458	0	0	0	29509	28120	156171	27086	1078600	46863	110976	0	0	8079	561468	0	0
2024-08-26 22:30:47			0	37461	0	0	0	29503	28120	156267	27144	1078564	46862	110974	0	0	8080	561350	0	0
2024-08-26 22:31:47			0	37433	0	0	0	29506	28120	156219	27150	1078573	46874	110975	0	0	8078	562449	0	0
2024-08-26 22:32:47			0	37433	0	0	0	29509	28110	156143	27145	1078555	46839	110976	0	0	8078	562481	0	0
2024-08-26 22:33:47			0	37428	0	0	0	29493	28100	156183	26873	1078509	46849	110970	0	0	8078	562710	0	0
2024-08-26 22:34:47			0	37456	0	0	0	29496	28110	156259	26871	1078545	46861	110971	0	0	8079	561578	0	0
2024-08-26 22:35:47			0	37432	0	0	0	29490	28090	156283	26642	1078500	46860	110969	0	0	8078	562585	0	0
2024-08-26 22:36:47			0	37398	0	0	0	29493	28100	156287	26892	1078536	46861	110970	0	0	8076	563889	0	0
2024-08-26 22:37:47			0	37413	0	0	0	29498	28110	156299	26928	1078492	46861	110972	0	0	8077	563267	0	0
2024-08-26 22:38:47			0	37404	0	0	0	29493	28110	156295	26609	1078519	46849	110970	0	0	8076	563621	0	0
2024-08-26 22:39:47			0	37399	0	0	0	29498	28110	156407	26755	1078465	46861	110972	0	0	8076	563817	0	0
2024-08-26 22:40:47			0	37407	0	0	0	29493	28100	156311	26738	1078483	46872	110970	0	0	8077	563535	0	0
2024-08-26 22:41:47			0	37390	0	0	0	29496	28090	156359	26876	1078464	46859	110971	0	0	8075	564237	0	0
2024-08-26 22:42:47			0	37402	0	0	0	29501	28110	156475	27026	1078519	46861	110973	0	0	8076	563699	0	0
2024-08-26 22:43:47			0	37382	0	0	0	29488	28090	156471	26896	1078527	46871	110968	0	0	8075	564551	0	0
2024-08-26 22:44:47			0	37398	0	0	0	29490	28090	156383	27102	1078464	46859	110969	0	0	8076	563922	0	0
2024-08-26 22:45:47			0	37383	0	0	0	29480	28100	156431	27052	1078536	46861	110965	0	0	8075	564479	0	0
2024-08-26 22:46:47			0	37369	0	0	0	29483	28090	156511	26937	1078464	46859	110966	0	0	8074	565063	0	0
2024-08-26 22:47:47			0	37349	0	0	0	29475	28090	156647	27255	1078518	46836	110963	0	0	8073	565851	0	0
2024-08-26 22:48:47			0	37340	0	0	0	29483	28090	156623	27166	1078357	46859	110966	0	0	8073	566206	0	0
2024-08-26 22:49:47			0	37349	0	0	0	29480	28090	156587	27069	1078410	46859	110965	0	0	8073	565851	0	0
2024-08-26 22:50:47			0	37331	0	0	0	29480	28080	156679	27166	1078392	46858	110965	0	0	8072	566594	0	0
2024-08-26 22:51:47			0	37312	0	0	0	29480	28090	156742	27201	1078437	46847	110965	0	0	8071	567311	0	0
2024-08-26 22:52:47			0	37297	0	0	0	29477	28090	156862	27008	1078357	46859	110964	0	0	8070	567904	0	0
2024-08-26 22:53:47			0	37299	0	0	0	29485	28090	156878	26977	1078464	46859	110967	0	0	8070	567825	0	0
2024-08-26 22:54:47			0	37257	0	0	0	29475	28090	156982	26866	1078464	46847	110963	0	0	8068	569486	0	0
2024-08-26 22:55:47			0	37262	0	0	0	29477	28080	157086	26932	1078392	46858	110964	0	0	8068	569321	0	0
2024-08-26 22:56:47			0	37240	0	0	0	29477	28080	157062	26863	1078401	46859	110964	0	0	8067	570192	0	0
2024-08-26 22:57:47			0	37236	0	0	0	29467	28080	157182	27203	1078392	46858	110960	0	0	8067	570351	0	0
2024-08-26 22:58:47			0	37202	0	0	0	29470	28080	157234	27440	1078392	46858	110961	0	0	8065	571699	0	0
2024-08-26 22:59:47			0	37180	0	0	0	29464	28070	157362	27020	1078329	46869	110959	0	0	8064	572606	0	0
2024-08-26 23:00:47			0	37183	0	0	0	29459	28070	157366	27227	1078356	46846	110957	0	0	8064	572487	0	0
2024-08-26 23:01:47			0	37171	0	0	0	29457	28070	157422	27066	1078329	46846	110956	0	0	8063	572964	0	0
2024-08-26 23:02:47			0	37155	0	0	0	29454	28060	157354	27059	1078284	46857	110955	0	0	8062	573633	0	0
2024-08-26 23:03:47			0	37136	0	0	0	29459	28070	157546	27013	1078266	46857	110957	0	0	8061	574356	0	0
2024-08-26 23:04:47			0	37146	0	0	0	29451	28070	157474	27206	1078302	46869	110954	0	0	8062	573958	0	0
2024-08-26 23:05:47			0	37138	0	0	0	29454	28060	157614	27194	1078230	46857	110955	0	0	8061	574310	0	0
2024-08-26 23:06:47			0	37118	0	0	0	29444	28060	157674	27118	1078257	46845	110951	0	0	8060	575106	0	0
2024-08-26 23:07:47			0	37118	0	0	0	29444	28060	157502	26779	1078257	46845	110951	0	0	8060	575106	0	0
2024-08-26 23:08:47			0	37125	0	0	0	29446	28050	157638	27043	1078266	46877	110952	0	0	8061	574861	0	0
2024-08-26 23:09:47			0	37132	0	0	0	29438	28050	157750	26958	1078239	46844	110949	0	0	8061	574582	0	0
2024-08-26 23:10:47			0	37102	0	0	0	29436	28050	157698	27104	1078203	46866	110948	0	0	8059	575777	0	0
2024-08-26 23:11:47			0	37097	0	0	0	29438	28040	157638	27213	1078221	46875	110949	0	0	8059	576010	0	0
2024-08-26 23:12:47			0	37106	0	0	0	29431	28050	157782	27123	1078284	46855	110946	0	0	8060	575618	0	0
2024-08-26 23:13:47			0	37114	0	0	0	29436	28050	157762	26989	1078185	46856	110948	0	0	8060	575299	0	0
2024-08-26 23:14:47			0	37102	0	0	0	29444	28040	157702	26956	1078212	46854	110951	0	0	8059	575811	0	0
2024-08-26 23:15:47			0	37110	0	0	0	29436	28030	157654	27137	1078140	46841	110948	0	0	8060	575525	0	0
2024-08-26 23:16:47			0	37107	0	0	0	29446	28040	157682	27085	1078185	46854	110952	0	0	8060	575611	0	0
2024-08-26 23:17:47			0	37110	0	0	0	29438	28040	157718	26755	1078140	46854	110949	0	0	8060	575492	0	0
2024-08-26 23:18:47			0	37112	0	0	0	29431	28030	157630	26772	1078203	46854	110946	0	0	8060	575445	0	0
2024-08-26 23:19:47			0	37099	0	0	0	29438	28040	157722	27137	1078131	46854	110949	0	0	8059	575930	0	0
2024-08-26 23:20:47			0	37099	0	0	0	29438	28040	157746	27317	1078167	46865	110949	0	0	8059	575930	0	0
2024-08-26 23:21:47			0	37070	0	0	0	29431	28040	157846	26993	1078158	46865	110946	0	0	8058	577088	0	0
2024-08-26 23:22:47			0	37066	0	0	0	29428	28040	157850	27154	1078131	46865	110945	0	0	8057	577248	0	0
2024-08-26 23:23:47			0	37066	0	0	0	29436	28020	157902	27034	1078158	46840	110948	0	0	8057	577314	0	0
2024-08-26 23:24:47			0	37057	0	0	0	29431	28040	157790	27216	1078212	46865	110946	0	0	8057	577608	0	0
2024-08-26 23:25:47			0	37046	0	0	0	29436	28020	157922	27001	1078185	46852	110948	0	0	8056	578114	0	0
2024-08-26 23:26:47			0	37042	0	0	0	29431	28030	157942	27261	1078149	46854	110946	0	0	8056	578241	0	0
2024-08-26 23:27:47			0	37026	0	0	0	29438	28020	157954	27034	1078131	46852	110949	0	0	8055	578914	0	0
2024-08-26 23:28:47			0	37018	0	0	0	29441	28040	158046	26816	1078194	46842	110950	0	0	8054	579168	0	0
2024-08-26 23:29:47			0	37011	0	0	0	29436	28040	158078	26675	1078248	46854	110948	0	0	8054	579448	0	0
2024-08-26 23:30:47			0	37007	0	0	0	29420	28030	158078	27019	1078113	46853	110942	0	0	8054	579642	0	0
2024-08-26 23:31:47			0	37016	0	0	0	29420	28030	158070	26814	1078194	46864	110942	0	0	8055	579281	0	0
2024-08-26 23:32:47			0	37030	0	0	0	29418	28030	157958	26816	1078167	46841	110941	0	0	8055	578721	0	0
2024-08-26 23:33:47			0	37023	0	0	0	29425	28020	158082	26975	1078095	46863	110944	0	0	8055	579034	0	0
2024-08-26 23:34:47			0	37009	0	0	0	29436	28030	158126	26778	1078140	46853	110948	0	0	8054	579562	0	0
2024-08-26 23:35:47			0	37024	0	0	0	29433	28030	158050	27293	1078149	46854	110947	0	0	8055	578961	0	0
2024-08-26 23:36:47			0	37022	0	0	0	29433	28020	158006	27180	1078158	46852	110947	0	0	8055	579074	0	0
2024-08-26 23:37:47			0	37035	0	0	0	29418	28020	157994	26890	1078095	46852	110941	0	0	8056	578554	0	0
2024-08-26 23:38:47			0	37020	0	0	0	29423	28020	157970	26961	1078158	46852	110943	0	0	8055	579154	0	0
2024-08-26 23:39:47			0	37037	0	0	0	29423	28030	157970	27126	1078086	46864	110943	0	0	8056	578441	0	0
2024-08-26 23:40:47			0	37028	0	0	0	29407	28020	157958	27090	1078122	46863	110937	0	0	8055	578834	0	0
2024-08-26 23:41:47			0	37008	0	0	0	29402	28020	157974	27007	1078095	46852	110935	0	0	8054	579635	0	0
2024-08-26 23:42:47			0	36993	0	0	0	29402	28020	158086	26807	1078041	46840	110935	0	0	8054	580236	0	0
2024-08-26 23:43:47			0	36998	0	0	0	29399	28020	158102	26946	1078068	46840	110934	0	0	8054	580036	0	0
2024-08-26 23:44:47			0	36996	0	0	0	29392	28010	158046	27116	1077996	46829	110931	0	0	8054	580150	0	0
2024-08-26 23:45:47			0	36996	0	0	0	29384	28010	158066	27079	1077969	46851	110928	0	0	8054	580150	0	0
2024-08-26 23:46:47			0	37008	0	0	0	29376	28010	158106	27171	1077942	46829	110925	0	0	8055	579669	0	0
2024-08-26 23:47:47			0	36998	0	0	0	29371	28000	157962	27102	1077951	46850	110923	0	0	8054	580103	0	0
2024-08-26 23:48:47			0	37028	0	0	0	29376	28000	158026	27086	1077951	46861	110925	0	0	8056	578901	0	0
2024-08-26 23:49:47			0	37046	0	0	0	29384	27990	157906	27137	1077942	46860	110928	0	0	8057	578214	0	0
2024-08-26 23:50:47			0	37096	0	0	0	29384	27990	157742	27081	1077969	46849	110928	0	0	8060	576216	0	0
2024-08-26 23:51:47			0	37165	0	0	0	29386	27990	157498	26916	1077915	46849	110929	0	0	8064	573467	0	0
2024-08-26 23:52:47			0	37227	0	0	0	29381	27980	157130	27059	1077870	46836	110927	0	0	8067	571037	0	0
2024-08-26 23:53:47			0	37296	0	0	0	29374	27980	156854	26845	1077870	46848	110924	0	0	8072	568304	0	0
2024-08-26 23:54:47			0	37314	0	0	0	29384	27980	156846	27232	1077843	46859	110928	0	0	8072	567592	0	0
2024-08-26 23:55:47			0	37347	0	0	0	29381	27980	156707	27072	1077897	46848	110927	0	0	8074	566290	0	0
2024-08-26 23:56:47			0	37359	0	0	0	29366	27990	156739	27182	1077888	46860	110921	0	0	8075	565783	0	0
2024-08-26 23:57:47			0	37376	0	0	0	29366	27990	156743	27097	1077888	46860	110921	0	0	8076	565114	0	0
2024-08-26 23:58:47			0	37360	0	0	0	29363	27980	156675	26767	1077897	46859	110920	0	0	8075	565777	0	0
2024-08-26 23:59:47			0	37374	0	0	0	29366	27970	156711	26868	1077816	46847	110921	0	0	8076	565258	0	0
2024-08-27 00:00:47			0	37375	0	0	0	29353	27970	156695	26842	1077789	46858	110916	0	0	8076	565218	0	0
2024-08-27 00:01:47			0	37391	0	0	0	29353	27960	156655	27093	1077833	46834	110916	0	0	8077	564620	0	0
2024-08-27 00:02:47			0	37347	0	0	0	29345	27960	156763	26866	1077806	46846	110913	0	0	8075	566355	0	0
2024-08-27 00:03:47			0	37349	0	0	0	29350	27960	156667	26996	1077833	46846	110915	0	0	8075	566276	0	0
2024-08-27 00:04:47			0	37357	0	0	0	29350	27960	156731	26861	1077753	46868	110915	0	0	8075	565960	0	0
2024-08-27 00:05:47			0	37355	0	0	0	29350	27950	156771	27079	1077788	46833	110915	0	0	8075	566072	0	0
2024-08-27 00:06:47			0	37357	0	0	0	29335	27950	156711	27024	1077708	46833	110909	0	0	8076	565993	0	0
2024-08-27 00:07:47			0	37361	0	0	0	29340	27950	156711	27039	1077725	46833	110911	0	0	8076	565835	0	0
2024-08-27 00:08:47			0	37367	0	0	0	29340	27950	156723	26837	1077725	46845	110911	0	0	8076	565599	0	0
2024-08-27 00:09:47			0	37355	0	0	0	29337	27940	156691	27201	1077716	46833	110910	0	0	8075	566105	0	0
2024-08-27 00:10:47			0	37349	0	0	0	29342	27950	156751	27071	1077761	46856	110912	0	0	8075	566309	0	0
2024-08-27 00:11:47			0	37358	0	0	0	29329	27940	156715	27218	1077716	46844	110907	0	0	8076	565986	0	0
2024-08-27 00:12:47			0	37342	0	0	0	29342	27930	156735	27124	1077725	46854	110912	0	0	8074	566650	0	0
2024-08-27 00:13:47			0	37337	0	0	0	29335	27940	156751	26897	1077743	46855	110909	0	0	8074	566815	0	0
2024-08-27 00:14:47			0	37348	0	0	0	29327	27940	156803	26974	1077707	46854	110906	0	0	8075	566381	0	0
2024-08-27 00:15:47			0	37329	0	0	0	29332	27940	156783	26871	1077680	46843	110908	0	0	8074	567131	0	0
2024-08-27 00:16:47			0	37351	0	0	0	29332	27940	156747	27076	1077680	46843	110908	0	0	8075	566262	0	0
2024-08-27 00:17:47			0	37348	0	0	0	29316	27930	156683	26939	1077590	46843	110902	0	0	8075	566413	0	0
2024-08-27 00:18:47			0	37343	0	0	0	29324	27930	156795	26928	1077617	46865	110905	0	0	8075	566611	0	0
2024-08-27 00:19:47			0	37337	0	0	0	29322	27930	156779	27085	1077608	46843	110904	0	0	8075	566847	0	0
2024-08-27 00:20:47			0	37325	0	0	0	29332	27920	156815	26719	1077599	46853	110908	0	0	8074	567354	0	0
2024-08-27 00:21:47			0	37329	0	0	0	29322	27920	156791	26733	1077599	46853	110904	0	0	8074	567196	0	0
2024-08-27 00:22:47			0	37344	0	0	0	29319	27930	156791	27038	1077581	46832	110903	0	0	8075	566571	0	0
2024-08-27 00:23:47			0	37347	0	0	0	29322	27920	156819	27050	1077599	46842	110904	0	0	8075	566486	0	0
2024-08-27 00:24:47			0	37353	0	0	0	29322	27920	156775	27421	1077599	46842	110904	0	0	8075	566249	0	0
2024-08-27 00:25:47			0	37347	0	0	0	29319	27920	156691	27126	1077572	46853	110903	0	0	8075	566486	0	0
2024-08-27 00:26:47			0	37352	0	0	0	29303	27920	156643	27183	1077563	46830	110897	0	0	8076	566288	0	0
2024-08-27 00:27:47			0	37353	0	0	0	29306	27910	156759	26974	1077527	46840	110898	0	0	8076	566281	0	0
2024-08-27 00:28:47			0	37350	0	0	0	29301	27910	156795	27062	1077554	46840	110896	0	0	8076	566400	0	0
2024-08-27 00:29:47			0	37356	0	0	0	29303	27910	156683	27059	1077527	46840	110897	0	0	8076	566163	0	0
2024-08-27 00:30:47			0	37349	0	0	0	29306	27910	156655	27168	1077491	46829	110898	0	0	8075	566439	0	0
2024-08-27 00:31:47			0	37349	0	0	0	29306	27910	156763	26887	1077464	46840	110898	0	0	8075	566439	0	0
2024-08-27 00:32:47			0	37348	0	0	0	29306	27900	156695	26955	1077455	46840	110898	0	0	8075	566511	0	0
2024-08-27 00:33:47			0	37352	0	0	0	29298	27910	156659	27218	1077437	46840	110895	0	0	8076	566321	0	0
2024-08-27 00:34:47			0	37367	0	0	0	29306	27900	156687	26939	1077500	46838	110898	0	0	8076	565762	0	0
2024-08-27 00:35:47			0	37367	0	0	0	29293	27910	156671	27157	1077473	46840	110893	0	0	8077	565729	0	0
2024-08-27 00:36:47			0	37367	0	0	0	29296	27900	156615	26998	1077446	46850	110894	0	0	8077	565762	0	0
2024-08-27 00:37:47			0	37376	0	0	0	29280	27900	156583	27008	1077509	46840	110888	0	0	8077	565407	0	0
2024-08-27 00:38:47			0	37364	0	0	0	29285	27910	156627	27201	1077518	46851	110890	0	0	8077	565847	0	0
2024-08-27 00:39:47			0	37362	0	0	0	29285	27900	156631	26866	1077419	46828	110890	0	0	8076	565959	0	0
2024-08-27 00:40:47			0	37350	0	0	0	29275	27890	156727	27112	1077410	46837	110886	0	0	8076	566465	0	0
2024-08-27 00:41:47			0	37335	0	0	0	29275	27890	156779	27105	1077437	46849	110886	0	0	8075	567057	0	0
2024-08-27 00:42:47			0	37347	0	0	0	29277	27890	156755	27062	1077410	46837	110887	0	0	8076	566583	0	0
2024-08-27 00:43:47			0	37360	0	0	0	29288	27890	156711	27242	1077383	46837	110891	0	0	8076	566070	0	0
2024-08-27 00:44:47			0	37333	0	0	0	29275	27890	156899	27085	1077320	46849	110886	0	0	8075	567136	0	0
2024-08-27 00:45:47			0	37336	0	0	0	29275	27890	156847	27048	1077383	46849	110886	0	0	8075	567018	0	0
2024-08-27 00:46:47			0	37339	0	0	0	29272	27890	156787	27189	1077374	46849	110885	0	0	8075	566899	0	0
2024-08-27 00:47:47			0	37338	0	0	0	29272	27880	156791	27154	1077302	46837	110885	0	0	8075	566971	0	0
2024-08-27 00:48:47			0	37337	0	0	0	29270	27890	156783	26864	1077374	46849	110884	0	0	8075	566978	0	0
2024-08-27 00:49:47			0	37329	0	0	0	29262	27880	156711	27390	1077365	46849	110881	0	0	8075	567327	0	0
2024-08-27 00:50:47			0	37346	0	0	0	29262	27880	156771	27180	1077338	46837	110881	0	0	8076	566655	0	0
2024-08-27 00:51:47			0	37333	0	0	0	29267	27870	156747	27454	1077293	46847	110883	0	0	8075	567202	0	0
2024-08-27 00:52:47			0	37330	0	0	0	29254	27870	156859	26970	1077320	46847	110878	0	0	8075	567320	0	0
2024-08-27 00:53:47			0	37316	0	0	0	29262	27870	156811	27327	1077257	46836	110881	0	0	8074	567873	0	0
2024-08-27 00:54:47			0	37322	0	0	0	29264	27870	156975	27365	1077293	46825	110882	0	0	8074	567636	0	0
2024-08-27 00:55:47			0	37310	0	0	0	29267	27870	156930	26932	1077257	46847	110883	0	0	8074	568111	0	0
2024-08-27 00:56:47			0	37282	0	0	0	29267	27880	156942	27045	1077221	46837	110883	0	0	8072	569186	0	0
2024-08-27 00:57:47			0	37293	0	0	0	29264	27860	156974	27244	1077248	46836	110882	0	0	8073	568816	0	0
2024-08-27 00:58:47			0	37310	0	0	0	29254	27860	156870	27095	1077275	46836	110878	0	0	8074	568143	0	0
2024-08-27 00:59:47			0	37316	0	0	0	29254	27870	156871	27076	1077230	46825	110878	0	0	8074	567873	0	0
2024-08-27 01:00:47			0	37297	0	0	0	29249	27860	156874	26823	1077221	46847	110876	0	0	8073	568658	0	0
2024-08-27 01:01:47			0	37289	0	0	0	29233	27850	156962	27081	1077248	46822	110870	0	0	8073	569007	0	0
2024-08-27 01:02:47			0	37279	0	0	0	29231	27850	156982	26953	1077194	46822	110869	0	0	8072	569403	0	0
2024-08-27 01:03:47			0	37291	0	0	0	29225	27860	156950	27072	1077185	46835	110867	0	0	8073	568895	0	0
2024-08-27 01:04:47			0	37283	0	0	0	29231	27840	157018	26939	1077185	46833	110869	0	0	8073	569277	0	0
2024-08-27 01:05:47			0	37284	0	0	0	29231	27850	157078	26942	1077167	46833	110869	0	0	8073	569205	0	0
2024-08-27 01:06:47			0	37259	0	0	0	29233	27840	157122	27109	1077158	46811	110870	0	0	8071	570229	0	0
2024-08-27 01:07:47			0	37290	0	0	0	29233	27840	157214	26871	1077158	46855	110870	0	0	8073	569000	0	0
2024-08-27 01:08:47			0	37283	0	0	0	29233	27840	157082	27147	1077095	46844	110870	0	0	8072	569277	0	0
2024-08-27 01:09:47			0	37299	0	0	0	29231	27840	156978	26864	1077131	46855	110869	0	0	8073	568644	0	0
2024-08-27 01:10:47			0	37285	0	0	0	29231	27840	157042	27239	1077068	46833	110869	0	0	8073	569198	0	0
2024-08-27 01:11:47			0	37265	0	0	0	29205	27830	157010	27043	1077140	46843	110859	0	0	8072	570024	0	0
2024-08-27 01:12:47			0	37258	0	0	0	29207	27830	157182	26870	1077050	46842	110860	0	0	8071	570301	0	0
2024-08-27 01:13:47			0	37282	0	0	0	29205	27840	157102	26791	1077104	46844	110859	0	0	8073	569317	0	0
2024-08-27 01:14:47			0	37260	0	0	0	29205	27840	157054	27433	1077041	46844	110859	0	0	8072	570189	0	0
2024-08-27 01:15:47			0	37280	0	0	0	29218	27820	157114	27206	1077041	46809	110864	0	0	8072	569462	0	0
2024-08-27 01:16:47			0	37271	0	0	0	29210	27830	157130	27007	1076996	46831	110861	0	0	8072	569786	0	0
2024-08-27 01:17:47			0	37260	0	0	0	29207	27820	157102	27270	1077041	46842	110860	0	0	8071	570255	0	0
2024-08-27 01:18:47			0	37268	0	0	0	29194	27810	157118	27144	1077050	46830	110855	0	0	8072	569970	0	0
2024-08-27 01:19:47			0	37272	0	0	0	29189	27820	157018	27098	1077059	46831	110853	0	0	8072	569779	0	0
2024-08-27 01:20:47			0	37279	0	0	0	29189	27810	157094	27000	1076996	46830	110853	0	0	8073	569534	0	0
2024-08-27 01:21:47			0	37263	0	0	0	29184	27810	157162	27020	1076942	46819	110851	0	0	8072	570168	0	0
2024-08-27 01:22:47			0	37251	0	0	0	29179	27810	157126	27098	1076915	46819	110849	0	0	8071	570644	0	0
2024-08-27 01:23:47			0	37262	0	0	0	29163	27810	157118	27248	1076969	46819	110843	0	0	8072	570208	0	0
2024-08-27 01:24:47			0	37243	0	0	0	29168	27800	157154	27000	1076870	46830	110845	0	0	8071	570995	0	0
2024-08-27 01:25:47			0	37257	0	0	0	29171	27800	157234	27452	1076897	46830	110846	0	0	8072	570439	0	0
2024-08-27 01:26:47			0	37246	0	0	0	29173	27780	157250	26925	1076843	46816	110847	0	0	8071	570941	0	0
2024-08-27 01:27:47			0	37229	0	0	0	29166	27780	157250	27085	1076816	46816	110844	0	0	8070	571616	0	0
2024-08-27 01:28:47			0	37234	0	0	0	29163	27790	157242	27305	1076825	46839	110843	0	0	8071	571385	0	0
2024-08-27 01:29:47			0	37240	0	0	0	29163	27790	157250	26994	1076798	46817	110843	0	0	8071	571146	0	0
2024-08-27 01:30:47			0	37252	0	0	0	29155	27780	157174	27124	1076779	46837	110840	0	0	8072	570703	0	0
2024-08-27 01:31:47			0	37264	0	0	0	29163	27780	157234	27183	1076779	46837	110843	0	0	8072	570227	0	0
2024-08-27 01:32:47			0	37268	0	0	0	29163	27770	157222	27519	1076842	46826	110843	0	0	8072	570101	0	0
2024-08-27 01:33:47			0	37277	0	0	0	29163	27770	157222	27024	1076797	46837	110843	0	0	8073	569745	0	0
2024-08-27 01:34:47			0	37252	0	0	0	29161	27770	157166	27157	1076815	46826	110842	0	0	8072	570736	0	0
2024-08-27 01:35:47			0	37247	0	0	0	29158	27770	157206	27074	1076707	46837	110841	0	0	8071	570935	0	0
2024-08-27 01:36:47			0	37263	0	0	0	29142	27770	157202	27329	1076717	46837	110835	0	0	8073	570300	0	0
2024-08-27 01:37:47			0	37251	0	0	0	29145	27760	157206	27135	1076716	46813	110836	0	0	8072	570809	0	0
2024-08-27 01:38:47			0	37262	0	0	0	29155	27760	157202	27258	1076689	46824	110840	0	0	8072	570372	0	0
2024-08-27 01:39:47			0	37251	0	0	0	29153	27770	157262	26967	1076654	46837	110839	0	0	8072	570776	0	0
2024-08-27 01:40:47			0	37240	0	0	0	29132	27760	157266	27227	1076779	46836	110831	0	0	8071	571245	0	0
2024-08-27 01:41:47			0	37238	0	0	0	29129	27750	157282	27066	1076626	46824	110830	0	0	8071	571358	0	0
2024-08-27 01:42:47			0	37237	0	0	0	29129	27750	157314	27234	1076653	46824	110830	0	0	8071	571397	0	0
2024-08-27 01:43:47			0	37223	0	0	0	29137	27740	157354	27015	1076635	46823	110833	0	0	8070	571986	0	0
2024-08-27 01:44:47			0	37220	0	0	0	29132	27740	157478	26823	1076599	46833	110831	0	0	8070	572105	0	0
2024-08-27 01:45:47			0	37216	0	0	0	29124	27730	157370	26739	1076617	46811	110828	0	0	8070	572297	0	0
2024-08-27 01:46:47			0	37219	0	0	0	29129	27730	157362	27133	1076536	46822	110830	0	0	8070	572178	0	0
2024-08-27 01:47:47			0	37219	0	0	0	29114	27730	157438	27088	1076644	46811	110824	0	0	8070	572178	0	0
2024-08-27 01:48:47			0	37217	0	0	0	29109	27730	157398	27196	1076581	46833	110822	0	0	8070	572258	0	0
2024-08-27 01:49:47			0	37226	0	0	0	29106	27730	157350	26776	1076608	46811	110821	0	0	8071	571900	0	0
2024-08-27 01:50:47			0	37212	0	0	0	29114	27730	157434	27116	1076527	46833	110824	0	0	8070	572456	0	0
2024-08-27 01:51:47			0	37211	0	0	0	29109	27730	157386	27116	1076527	46822	110822	0	0	8070	572496	0	0
2024-08-27 01:52:47			0	37202	0	0	0	29103	27730	157442	26963	1076483	46822	110820	0	0	8069	572854	0	0
2024-08-27 01:53:47			0	37227	0	0	0	29090	27720	157386	27235	1076411	46833	110815	0	0	8071	571893	0	0
2024-08-27 01:54:47			0	37223	0	0	0	29085	27710	157542	27043	1076419	46820	110813	0	0	8071	572085	0	0
2024-08-27 01:55:47			0	37208	0	0	0	29067	27710	157574	27079	1076356	46808	110806	0	0	8070	572681	0	0
2024-08-27 01:56:47			0	37188	0	0	0	29075	27710	157534	27102	1076383	46819	110809	0	0	8069	573477	0	0
2024-08-27 01:57:47			0	37167	0	0	0	29072	27700	157686	26705	1076365	46807	110808	0	0	8068	574346	0	0
2024-08-27 01:58:47			0	37120	0	0	0	29064	27690	157930	26767	1076356	46829	110805	0	0	8065	576254	0	0
2024-08-27 01:59:47			0	37083	0	0	0	29057	27700	158038	27059	1076285	46807	110802	0	0	8063	577700	0	0
2024-08-27 02:00:47			0	37068	0	0	0	29054	27680	158166	26894	1076284	46829	110801	0	0	8062	578367	0	0
2024-08-27 02:01:47			0	37040	0	0	0	29046	27680	158294	27074	1076302	46828	110798	0	0	8061	579488	0	0
2024-08-27 02:02:47			0	37015	0	0	0	29051	27680	158314	27177	1076284	46829	110800	0	0	8059	580491	0	0
2024-08-27 02:03:47			0	37028	0	0	0	29046	27680	158286	27118	1076248	46816	110798	0	0	8060	579969	0	0
2024-08-27 02:04:47			0	37014	0	0	0	29038	27670	158290	27145	1076203	46804	110795	0	0	8059	580565	0	0
2024-08-27 02:05:47			0	37004	0	0	0	29041	27660	158306	27220	1076221	46827	110796	0	0	8059	580999	0	0
2024-08-27 02:06:47			0	37015	0	0	0	29044	27660	158422	27255	1076221	46804	110797	0	0	8059	580558	0	0
2024-08-27 02:07:47			0	36995	0	0	0	29036	27660	158374	27322	1076140	46827	110794	0	0	8058	581361	0	0
2024-08-27 02:08:47			0	36967	0	0	0	29033	27660	158502	27235	1076158	46826	110793	0	0	8056	582487	0	0
2024-08-27 02:09:47			0	36996	0	0	0	29038	27660	158482	27197	1076185	46826	110795	0	0	8058	581321	0	0
2024-08-27 02:10:47			0	36969	0	0	0	29038	27650	158530	27020	1076086	46813	110795	0	0	8056	582439	0	0
2024-08-27 02:11:47			0	36970	0	0	0	29028	27660	158574	27100	1076078	46826	110791	0	0	8057	582366	0	0
2024-08-27 02:12:47			0	36964	0	0	0	29025	27650	158438	27105	1076059	46835	110790	0	0	8056	582641	0	0
2024-08-27 02:13:47			0	36956	0	0	0	29031	27650	158446	27218	1076032	46813	110792	0	0	8056	582962	0	0
2024-08-27 02:14:47			0	36948	0	0	0	29018	27640	158470	26958	1076104	46812	110787	0	0	8056	583318	0	0
2024-08-27 02:15:47			0	36962	0	0	0	29015	27630	158390	27362	1076076	46811	110786	0	0	8056	582788	0	0
2024-08-27 02:16:47			0	36959	0	0	0	29018	27630	158566	27034	1075996	46823	110787	0	0	8056	582909	0	0
2024-08-27 02:17:47			0	36965	0	0	0	29020	27630	158566	27098	1076023	46811	110788	0	0	8056	582668	0	0
2024-08-27 02:18:47			0	36962	0	0	0	29018	27630	158554	26925	1076032	46833	110787	0	0	8056	582788	0	0
2024-08-27 02:19:47			0	36986	0	0	0	29015	27620	158482	27052	1076014	46810	110786	0	0	8058	581857	0	0
2024-08-27 02:20:47			0	36976	0	0	0	29015	27630	158394	26894	1076103	46823	110786	0	0	8057	582225	0	0
2024-08-27 02:21:47			0	36995	0	0	0	29015	27620	158470	26927	1076014	46822	110786	0	0	8058	581495	0	0
2024-08-27 02:22:47			0	36976	0	0	0	29010	27620	158530	26981	1075951	46822	110784	0	0	8057	582258	0	0
2024-08-27 02:23:47			0	37002	0	0	0	29010	27620	158530	27050	1076004	46810	110784	0	0	8059	581214	0	0
2024-08-27 02:24:47			0	36987	0	0	0	29012	27620	158398	26882	1076004	46810	110785	0	0	8058	581816	0	0
2024-08-27 02:25:47			0	36996	0	0	0	29005	27620	158446	26942	1075987	46822	110782	0	0	8058	581455	0	0
2024-08-27 02:26:47			0	36998	0	0	0	28999	27620	158530	26986	1075978	46822	110780	0	0	8059	581374	0	0
2024-08-27 02:27:47			0	36977	0	0	0	29005	27630	158402	27149	1075942	46811	110782	0	0	8057	582185	0	0
2024-08-27 02:28:47			0	36982	0	0	0	28999	27610	158394	27189	1075933	46820	110780	0	0	8058	582051	0	0
2024-08-27 02:29:47			0	36991	0	0	0	28997	27600	158402	27218	1075897	46831	110779	0	0	8058	581722	0	0
2024-08-27 02:30:47			0	36993	0	0	0	28997	27610	158358	27460	1075959	46820	110779	0	0	8058	581609	0	0
2024-08-27 02:31:47			0	37007	0	0	0	28997	27610	158402	27230	1075942	46798	110779	0	0	8059	581046	0	0
2024-08-27 02:32:47			0	36993	0	0	0	28997	27600	158410	27098	1075816	46820	110779	0	0	8058	581642	0	0
2024-08-27 02:33:47			0	37000	0	0	0	28997	27610	158442	27211	1075888	46809	110779	0	0	8059	581327	0	0
2024-08-27 02:34:47			0	36999	0	0	0	28989	27600	158418	26989	1075923	46808	110776	0	0	8059	581401	0	0
2024-08-27 02:35:47			0	37024	0	0	0	28989	27610	158374	27012	1075959	46820	110776	0	0	8060	580364	0	0
2024-08-27 02:36:47			0	37005	0	0	0	28994	27600	158382	26748	1075807	46820	110778	0	0	8059	581160	0	0
2024-08-27 02:37:47			0	37010	0	0	0	28986	27610	158382	27171	1075879	46808	110775	0	0	8060	580926	0	0
2024-08-27 02:38:47			0	37021	0	0	0	28989	27600	158222	26795	1075888	46808	110776	0	0	8060	580518	0	0
2024-08-27 02:39:47			0	37030	0	0	0	28976	27590	158286	26752	1075852	46819	110771	0	0	8061	580190	0	0
2024-08-27 02:40:47			0	37028	0	0	0	28973	27600	158226	26720	1075861	46808	110770	0	0	8061	580237	0	0
2024-08-27 02:41:47			0	37024	0	0	0	28968	27590	158290	26805	1075789	46818	110768	0	0	8061	580431	0	0
2024-08-27 02:42:47			0	37037	0	0	0	28973	27590	158262	27135	1075798	46807	110770	0	0	8061	579909	0	0
2024-08-27 02:43:47			0	37028	0	0	0	28973	27590	158210	26729	1075789	46818	110770	0	0	8061	580270	0	0
2024-08-27 02:44:47			0	37050	0	0	0	28976	27590	158270	26648	1075789	46806	110771	0	0	8062	579388	0	0
2024-08-27 02:45:47			0	37046	0	0	0	28981	27580	158226	26948	1075753	46806	110773	0	0	8062	579581	0	0
2024-08-27 02:46:47			0	37056	0	0	0	28971	27580	158302	27000	1075797	46817	110769	0	0	8062	579180	0	0
2024-08-27 02:47:47			0	37042	0	0	0	28958	27590	158242	27114	1075816	46806	110764	0	0	8062	579708	0	0
2024-08-27 02:48:47			0	37067	0	0	0	28961	27580	158218	27074	1075771	46805	110765	0	0	8063	578740	0	0
2024-08-27 02:49:47			0	37053	0	0	0	28968	27570	158158	27287	1075842	46805	110768	0	0	8062	579334	0	0
2024-08-27 02:50:47			0	37070	0	0	0	28968	27570	158170	27215	1075762	46817	110768	0	0	8063	578653	0	0
2024-08-27 02:51:47			0	37072	0	0	0	28958	27560	158146	27161	1075690	46793	110764	0	0	8063	578606	0	0
2024-08-27 02:52:47			0	37058	0	0	0	28961	27570	158198	26712	1075726	46804	110765	0	0	8063	579134	0	0
2024-08-27 02:53:47			0	37070	0	0	0	28958	27580	158202	27291	1075744	46805	110764	0	0	8063	578620	0	0
2024-08-27 02:54:47			0	37078	0	0	0	28942	27570	158142	27142	1075708	46805	110758	0	0	8064	578333	0	0
2024-08-27 02:55:47			0	37084	0	0	0	28945	27560	158138	27282	1075663	46804	110759	0	0	8064	578126	0	0
2024-08-27 02:56:47			0	37070	0	0	0	28945	27570	158190	27130	1075699	46804	110759	0	0	8064	578653	0	0
2024-08-27 02:57:47			0	37073	0	0	0	28942	27560	158110	27102	1075636	46816	110758	0	0	8064	578566	0	0
2024-08-27 02:58:47			0	37076	0	0	0	28950	27560	158210	26967	1075636	46816	110761	0	0	8064	578446	0	0
2024-08-27 02:59:47			0	37079	0	0	0	28948	27560	158062	27284	1075654	46803	110760	0	0	8064	578326	0	0
2024-08-27 03:00:47			0	37085	0	0	0	28948	27560	158194	26979	1075654	46826	110760	0	0	8064	578086	0	0
2024-08-27 03:01:47			0	37074	0	0	0	28950	27550	158146	26981	1075645	46815	110761	0	0	8064	578559	0	0
2024-08-27 03:02:47			0	37066	0	0	0	28945	27560	158146	26878	1075663	46804	110759	0	0	8063	578846	0	0
2024-08-27 03:03:47			0	37073	0	0	0	28948	27550	158190	26838	1075636	46802	110760	0	0	8064	578599	0	0
2024-08-27 03:04:47			0	37078	0	0	0	28932	27560	158258	27000	1075627	46826	110754	0	0	8064	578366	0	0
2024-08-27 03:05:47			0	37094	0	0	0	28929	27540	158146	26909	1075600	46791	110753	0	0	8065	577792	0	0
2024-08-27 03:06:47			0	37073	0	0	0	28929	27550	158286	26805	1075609	46791	110753	0	0	8064	578599	0	0
2024-08-27 03:07:47			0	37063	0	0	0	28929	27550	158178	26828	1075609	46802	110753	0	0	8063	579000	0	0
2024-08-27 03:08:47			0	37063	0	0	0	28927	27550	158190	27029	1075609	46814	110752	0	0	8063	579000	0	0
2024-08-27 03:09:47			0	37073	0	0	0	28927	27550	158130	26994	1075582	46802	110752	0	0	8064	578599	0	0
2024-08-27 03:10:47			0	37070	0	0	0	28927	27540	158154	26922	1075573	46814	110752	0	0	8064	578753	0	0
2024-08-27 03:11:47			0	37070	0	0	0	28929	27540	158126	26984	1075564	46801	110753	0	0	8064	578753	0	0
2024-08-27 03:12:47			0	37064	0	0	0	28937	27540	158278	26791	1075573	46814	110756	0	0	8063	578993	0	0
2024-08-27 03:13:47			0	37056	0	0	0	28932	27540	158190	27012	1075546	46814	110754	0	0	8063	579314	0	0
2024-08-27 03:14:47			0	37065	0	0	0	28932	27540	158238	26913	1075564	46813	110754	0	0	8063	578953	0	0
2024-08-27 03:15:47			0	37042	0	0	0	28924	27540	158318	27093	1075591	46824	110751	0	0	8062	579875	0	0
2024-08-27 03:16:47			0	37059	0	0	0	28927	27540	158266	27331	1075510	46813	110752	0	0	8063	579194	0	0
2024-08-27 03:17:47			0	37037	0	0	0	28924	27540	158242	26928	1075456	46824	110751	0	0	8062	580076	0	0
2024-08-27 03:18:47			0	37051	0	0	0	28924	27540	158286	26968	1075591	46813	110751	0	0	8063	579514	0	0
2024-08-27 03:19:47			0	37065	0	0	0	28932	27540	158282	27386	1075537	46801	110754	0	0	8063	578953	0	0
2024-08-27 03:20:47			0	37060	0	0	0	28919	27530	158270	27109	1075581	46813	110749	0	0	8063	579187	0	0
2024-08-27 03:21:47			0	37033	0	0	0	28932	27530	158242	27140	1075554	46813	110754	0	0	8061	580270	0	0
2024-08-27 03:22:47			0	37061	0	0	0	28937	27540	158178	26974	1075573	46814	110756	0	0	8063	579113	0	0
2024-08-27 03:23:47			0	37053	0	0	0	28929	27540	158234	27095	1075537	46813	110753	0	0	8063	579434	0	0
2024-08-27 03:24:47			0	37050	0	0	0	28932	27540	158154	26863	1075591	46801	110754	0	0	8062	579554	0	0
2024-08-27 03:25:47			0	37055	0	0	0	28932	27530	158234	27189	1075545	46800	110754	0	0	8063	579387	0	0
2024-08-27 03:26:47			0	37071	0	0	0	28924	27530	158234	26902	1075527	46813	110751	0	0	8064	578746	0	0
2024-08-27 03:27:47			0	37055	0	0	0	28919	27530	158198	26963	1075500	46824	110749	0	0	8063	579387	0	0
2024-08-27 03:28:47			0	37021	0	0	0	28916	27530	158322	26705	1075554	46824	110748	0	0	8061	580751	0	0
2024-08-27 03:29:47			0	37034	0	0	0	28919	27530	158342	27280	1075527	46813	110749	0	0	8062	580229	0	0
2024-08-27 03:30:47			0	36981	0	0	0	28901	27530	158486	26981	1075500	46801	110742	0	0	8059	582359	0	0
2024-08-27 03:31:47			0	36970	0	0	0	28901	27530	158518	26993	1075464	46812	110742	0	0	8058	582802	0	0
2024-08-27 03:32:47			0	36958	0	0	0	28903	27530	158610	26779	1075464	46812	110743	0	0	8058	583285	0	0
2024-08-27 03:33:47			0	36960	0	0	0	28890	27500	158690	26767	1075428	46798	110738	0	0	8058	583305	0	0
2024-08-27 03:34:47			0	36938	0	0	0	28893	27520	158742	26760	1075428	46799	110739	0	0	8056	584124	0	0
2024-08-27 03:35:47			0	36927	0	0	0	28888	27510	158762	27034	1075446	46799	110737	0	0	8056	584601	0	0
2024-08-27 03:36:47			0	36936	0	0	0	28890	27520	158766	26797	1075482	46799	110738	0	0	8056	584205	0	0
2024-08-27 03:37:47			0	36931	0	0	0	28880	27500	158666	26694	1075401	46798	110734	0	0	8056	584474	0	0
2024-08-27 03:38:47			0	36961	0	0	0	28885	27500	158658	26987	1075365	46809	110736	0	0	8058	583265	0	0
2024-08-27 03:39:47			0	36962	0	0	0	28864	27490	158626	26920	1075383	46797	110728	0	0	8058	583258	0	0
2024-08-27 03:40:47			0	36977	0	0	0	28870	27500	158654	27144	1075312	46797	110730	0	0	8059	582620	0	0
2024-08-27 03:41:47			0	36983	0	0	0	28870	27500	158570	27013	1075312	46809	110730	0	0	8059	582379	0	0
2024-08-27 03:42:47			0	36998	0	0	0	28875	27490	158550	27175	1075266	46808	110732	0	0	8060	581809	0	0
2024-08-27 03:43:47			0	36980	0	0	0	28877	27490	158530	27296	1075293	46808	110733	0	0	8059	582533	0	0
2024-08-27 03:44:47			0	36991	0	0	0	28877	27480	158606	26797	1075284	46819	110733	0	0	8060	582124	0	0
2024-08-27 03:45:47			0	37008	0	0	0	28872	27480	158522	27031	1075284	46808	110731	0	0	8061	581441	0	0
2024-08-27 03:46:47			0	37010	0	0	0	28872	27490	158478	27208	1075266	46796	110731	0	0	8061	581327	0	0
2024-08-27 03:47:47			0	36980	0	0	0	28870	27490	158594	27263	1075302	46809	110730	0	0	8059	582533	0	0
2024-08-27 03:48:47			0	36982	0	0	0	28875	27490	158590	26923	1075374	46808	110732	0	0	8059	582453	0	0
2024-08-27 03:49:47			0	37002	0	0	0	28877	27480	158546	27008	1075222	46818	110733	0	0	8060	581682	0	0
2024-08-27 03:50:47			0	37002	0	0	0	28877	27480	158630	27060	1075257	46819	110733	0	0	8060	581682	0	0
2024-08-27 03:51:47			0	36990	0	0	0	28880	27480	158578	27098	1075275	46807	110734	0	0	8060	582164	0	0
2024-08-27 03:52:47			0	37001	0	0	0	28880	27490	158478	27012	1075293	46808	110734	0	0	8060	581689	0	0
2024-08-27 03:53:47			0	37004	0	0	0	28875	27480	158442	27213	1075365	46808	110732	0	0	8060	581601	0	0
2024-08-27 03:54:47			0	37011	0	0	0	28870	27470	158434	27107	1075212	46807	110730	0	0	8061	581354	0	0
2024-08-27 03:55:47			0	37020	0	0	0	28859	27480	158462	27045	1075284	46808	110726	0	0	8062	580959	0	0
2024-08-27 03:56:47			0	37026	0	0	0	28864	27480	158466	27116	1075302	46773	110728	0	0	8062	580718	0	0
2024-08-27 03:57:47			0	37019	0	0	0	28867	27470	158494	26979	1075266	46818	110729	0	0	8061	581032	0	0
2024-08-27 03:58:47			0	37026	0	0	0	28862	27480	158526	27312	1075231	46796	110727	0	0	8062	580718	0	0
2024-08-27 03:59:47			0	37026	0	0	0	28854	27470	158518	27256	1075212	46818	110724	0	0	8062	580751	0	0
2024-08-27 04:00:47			0	37018	0	0	0	28857	27460	158370	27189	1075194	46805	110725	0	0	8061	581106	0	0
2024-08-27 04:01:47			0	37025	0	0	0	28859	27470	158418	27090	1075239	46795	110726	0	0	8062	580791	0	0
2024-08-27 04:02:47			0	37014	0	0	0	28872	27470	158586	26918	1075257	46806	110731	0	0	8061	581233	0	0
2024-08-27 04:03:47			0	37012	0	0	0	28875	27460	158570	27104	1075194	46793	110732	0	0	8061	581347	0	0
2024-08-27 04:04:47			0	36986	0	0	0	28854	27470	158498	27222	1075257	46806	110724	0	0	8060	582359	0	0
2024-08-27 04:05:47			0	37003	0	0	0	28857	27470	158550	27166	1075203	46828	110725	0	0	8061	581675	0	0
2024-08-27 04:06:47			0	37013	0	0	0	28857	27470	158566	26961	1075266	46807	110725	0	0	8061	581273	0	0
2024-08-27 04:07:47			0	36989	0	0	0	28844	27470	158530	27038	1075186	46807	110720	0	0	8060	582238	0	0
2024-08-27 04:08:47			0	37009	0	0	0	28838	27470	158570	27076	1075203	46817	110718	0	0	8061	581434	0	0
2024-08-27 04:09:47			0	36999	0	0	0	28844	27460	158566	27131	1075167	46793	110720	0	0	8061	581869	0	0
2024-08-27 04:10:47			0	37006	0	0	0	28828	27460	158574	27145	1075131	46805	110714	0	0	8061	581588	0	0
2024-08-27 04:11:47			0	37002	0	0	0	28825	27460	158498	27069	1075131	46805	110713	0	0	8061	581749	0	0
2024-08-27 04:12:47			0	37005	0	0	0	28828	27450	158558	26996	1075069	46793	110714	0	0	8061	581662	0	0
2024-08-27 04:13:47			0	37001	0	0	0	28833	27450	158530	27206	1075113	46804	110716	0	0	8061	581822	0	0
2024-08-27 04:14:47			0	36983	0	0	0	28825	27460	158586	26922	1075105	46805	110713	0	0	8060	582513	0	0
2024-08-27 04:15:47			0	36996	0	0	0	28831	27450	158586	26967	1075149	46816	110715	0	0	8061	582024	0	0
2024-08-27 04:16:47			0	36998	0	0	0	28825	27440	158590	27085	1075131	46803	110713	0	0	8061	581977	0	0
2024-08-27 04:17:47			0	36990	0	0	0	28828	27440	158582	26974	1075068	46791	110714	0	0	8060	582298	0	0
2024-08-27 04:18:47			0	36992	0	0	0	28828	27440	158622	26710	1075024	46803	110714	0	0	8060	582218	0	0
2024-08-27 04:19:47			0	36985	0	0	0	28823	27440	158706	27076	1075104	46803	110712	0	0	8060	582499	0	0
2024-08-27 04:20:47			0	36991	0	0	0	28815	27440	158662	27116	1075068	46791	110709	0	0	8061	582258	0	0
2024-08-27 04:21:47			0	36971	0	0	0	28831	27440	158710	27126	1074988	46814	110715	0	0	8059	583063	0	0
2024-08-27 04:22:47			0	36966	0	0	0	28807	27430	158598	26918	1075023	46802	110706	0	0	8059	583298	0	0
2024-08-27 04:23:47			0	36974	0	0	0	28807	27430	158682	26726	1075006	46791	110706	0	0	8060	582976	0	0
2024-08-27 04:24:47			0	36959	0	0	0	28799	27430	158678	26996	1074925	46791	110703	0	0	8059	583580	0	0
2024-08-27 04:25:47			0	36974	0	0	0	28794	27420	158738	27156	1074898	46801	110701	0	0	8060	583009	0	0
2024-08-27 04:26:47			0	36950	0	0	0	28786	27430	158710	27031	1074970	46780	110698	0	0	8059	583943	0	0
2024-08-27 04:27:47			0	36962	0	0	0	28797	27420	158782	26680	1074987	46790	110702	0	0	8059	583493	0	0
2024-08-27 04:28:47			0	36953	0	0	0	28805	27420	158754	27059	1074898	46801	110705	0	0	8058	583855	0	0
2024-08-27 04:29:47			0	36960	0	0	0	28805	27420	158766	26850	1074987	46790	110705	0	0	8059	583573	0	0
2024-08-27 04:30:47			0	36953	0	0	0	28815	27420	158802	27159	1074925	46801	110709	0	0	8058	583855	0	0
2024-08-27 04:31:47			0	36946	0	0	0	28807	27420	158914	27007	1074978	46812	110706	0	0	8058	584138	0	0
2024-08-27 04:32:47			0	36918	0	0	0	28805	27420	158862	26816	1074952	46812	110705	0	0	8056	585267	0	0
2024-08-27 04:33:47			0	36928	0	0	0	28812	27420	158902	26967	1074925	46790	110708	0	0	8057	584864	0	0
2024-08-27 04:34:47			0	36915	0	0	0	28815	27410	159002	27062	1074996	46811	110709	0	0	8056	585422	0	0
2024-08-27 04:35:47			0	36913	0	0	0	28810	27410	159030	26967	1074933	46800	110707	0	0	8056	585503	0	0
2024-08-27 04:36:47			0	36872	0	0	0	28812	27410	159062	26887	1074969	46800	110708	0	0	8053	587160	0	0
2024-08-27 04:37:47			0	36882	0	0	0	28844	27410	159182	27152	1074916	46800	110720	0	0	8053	586755	0	0
2024-08-27 04:38:47			0	36894	0	0	0	28872	27420	159082	26741	1075032	46801	110731	0	0	8054	586237	0	0
2024-08-27 04:39:47			0	36894	0	0	0	28911	27410	159122	27223	1074969	46800	110746	0	0	8053	586270	0	0
2024-08-27 04:40:47			0	36894	0	0	0	28935	27410	159130	26913	1075023	46822	110755	0	0	8053	586270	0	0
2024-08-27 04:41:47			0	36891	0	0	0	28924	27420	159078	27008	1075113	46823	110751	0	0	8053	586358	0	0
2024-08-27 04:42:47			0	36900	0	0	0	28893	27430	159066	27088	1075032	46803	110739	0	0	8054	585960	0	0
2024-08-27 04:43:47			0	36883	0	0	0	28864	27430	159046	26817	1074997	46824	110728	0	0	8053	586648	0	0
2024-08-27 04:44:47			0	36875	0	0	0	28823	27430	159010	26922	1075023	46802	110712	0	0	8054	586971	0	0
2024-08-27 04:45:47			0	36857	0	0	0	28854	27420	159114	27007	1074978	46790	110724	0	0	8052	587733	0	0
2024-08-27 04:46:47			0	36864	0	0	0	28870	27420	159182	27008	1075032	46812	110730	0	0	8052	587450	0	0
2024-08-27 04:47:47			0	36849	0	0	0	28890	27430	159222	27201	1075086	46814	110738	0	0	8051	588024	0	0
2024-08-27 04:48:47			0	36861	0	0	0	28924	27430	159278	27114	1075167	46825	110751	0	0	8051	587538	0	0
2024-08-27 04:49:47			0	36834	0	0	0	28932	27440	159382	26800	1075230	46847	110754	0	0	8049	588597	0	0
2024-08-27 04:50:47			0	36819	0	0	0	28942	27450	159446	27020	1075311	46816	110758	0	0	8048	589172	0	0
2024-08-27 04:51:47			0	36812	0	0	0	28950	27460	159402	27203	1075410	46827	110761	0	0	8048	589421	0	0
2024-08-27 04:52:47			0	36783	0	0	0	28966	27470	159382	27168	1075374	46840	110767	0	0	8046	590565	0	0
2024-08-27 04:53:47			0	36808	0	0	0	28963	27480	159458	26941	1075437	46829	110766	0	0	8047	589516	0	0
2024-08-27 04:54:47			0	36777	0	0	0	28961	27480	159574	27036	1075446	46830	110765	0	0	8046	590774	0	0
2024-08-27 04:55:47			0	36759	0	0	0	28955	27470	159546	27149	1075374	46807	110763	0	0	8045	591540	0	0
2024-08-27 04:56:47			0	36736	0	0	0	28950	27490	159682	26764	1075455	46808	110761	0	0	8043	592407	0	0
2024-08-27 04:57:47			0	36724	0	0	0	28950	27480	159610	27038	1075491	46818	110761	0	0	8043	592930	0	0
2024-08-27 04:58:47			0	36724	0	0	0	28958	27490	159650	26823	1075464	46831	110764	0	0	8043	592896	0	0
2024-08-27 04:59:47			0	36714	0	0	0	28963	27500	159654	26677	1075509	46821	110766	0	0	8042	593269	0	0
2024-08-27 05:00:47			0	36704	0	0	0	28955	27500	159766	26870	1075446	46842	110763	0	0	8042	593677	0	0
2024-08-27 05:01:47			0	36709	0	0	0	28948	27500	159874	27015	1075428	46832	110760	0	0	8042	593473	0	0
2024-08-27 05:02:47			0	36677	0	0	0	28948	27490	159858	26854	1075410	46820	110760	0	0	8040	594812	0	0
2024-08-27 05:03:47			0	36650	0	0	0	28948	27490	159910	26857	1075491	46809	110760	0	0	8038	595915	0	0
2024-08-27 05:04:47			0	36654	0	0	0	28932	27500	159974	27144	1075419	46820	110754	0	0	8039	595717	0	0
2024-08-27 05:05:47			0	36654	0	0	0	28914	27490	160022	27078	1075437	46820	110747	0	0	8039	595751	0	0
2024-08-27 05:06:47			0	36635	0	0	0	28906	27490	160082	27003	1075293	46808	110744	0	0	8038	596528	0	0
2024-08-27 05:07:47			0	36656	0	0	0	28906	27490	160030	27157	1075240	46796	110744	0	0	8039	595670	0	0
2024-08-27 05:08:47			0	36642	0	0	0	28859	27470	160086	27116	1075239	46818	110726	0	0	8039	596310	0	0
2024-08-27 05:09:47			0	36622	0	0	0	28877	27460	160086	26991	1075158	46805	110733	0	0	8038	597163	0	0
2024-08-27 05:10:47			0	36629	0	0	0	28901	27460	160146	27097	1075185	46793	110742	0	0	8038	596876	0	0
2024-08-27 05:11:47			0	36638	0	0	0	28898	27460	160098	26802	1075141	46805	110741	0	0	8038	596508	0	0
2024-08-27 05:12:47			0	36647	0	0	0	28906	27450	160118	27081	1075149	46816	110744	0	0	8039	596174	0	0
2024-08-27 05:13:47			0	36655	0	0	0	28911	27450	160046	27046	1075176	46816	110746	0	0	8039	595847	0	0
2024-08-27 05:14:47			0	36648	0	0	0	28877	27440	160082	26932	1075131	46814	110733	0	0	8039	596168	0	0
2024-08-27 05:15:47			0	36672	0	0	0	28841	27440	159998	26826	1075051	46803	110719	0	0	8041	595187	0	0
2024-08-27 05:16:47			0	36678	0	0	0	28786	27440	159974	27053	1075024	46814	110698	0	0	8043	594942	0	0
2024-08-27 05:17:47			0	36671	0	0	0	28774	27430	159906	27078	1074970	46791	110693	0	0	8042	595262	0	0
2024-08-27 05:18:47			0	36693	0	0	0	28748	27410	159850	26726	1074889	46811	110683	0	0	8044	594433	0	0
2024-08-27 05:19:47			0	36695	0	0	0	28748	27410	159882	26911	1074889	46778	110683	0	0	8044	594351	0	0
2024-08-27 05:20:47			0	36700	0	0	0	28750	27400	159894	26793	1074816	46788	110684	0	0	8044	594181	0	0
2024-08-27 05:21:47			0	36695	0	0	0	28740	27400	159826	26928	1074736	46788	110680	0	0	8044	594385	0	0
2024-08-27 05:22:47			0	36707	0	0	0	28729	27390	159802	27164	1074709	46787	110676	0	0	8045	593930	0	0
2024-08-27 05:23:47			0	36704	0	0	0	28727	27390	159806	27159	1074709	46798	110675	0	0	8045	594052	0	0
2024-08-27 05:24:47			0	36716	0	0	0	28724	27380	159794	27003	1074717	46796	110674	0	0	8046	593597	0	0
2024-08-27 05:25:47			0	36703	0	0	0	28729	27380	159862	27086	1074583	46796	110676	0	0	8045	594127	0	0
2024-08-27 05:26:47			0	36702	0	0	0	28727	27370	159866	27033	1074538	46807	110675	0	0	8045	594202	0	0
2024-08-27 05:27:47			0	36707	0	0	0	28735	27370	159974	27161	1074592	46796	110678	0	0	8045	593998	0	0
2024-08-27 05:28:47			0	36686	0	0	0	28737	27360	160038	27390	1074601	46793	110679	0	0	8043	594889	0	0
2024-08-27 05:29:47			0	36667	0	0	0	28724	27350	160046	27218	1074538	46793	110674	0	0	8042	595700	0	0
2024-08-27 05:30:47			0	36662	0	0	0	28716	27350	160022	27280	1074591	46793	110671	0	0	8042	595904	0	0
2024-08-27 05:31:47			0	36681	0	0	0	28722	27350	160042	26889	1074556	46793	110673	0	0	8043	595128	0	0
2024-08-27 05:32:47			0	36688	0	0	0	28716	27350	160102	26972	1074529	46793	110671	0	0	8044	594842	0	0
2024-08-27 05:33:47			0	36670	0	0	0	28709	27350	159998	27118	1074475	46793	110668	0	0	8043	595577	0	0
2024-08-27 05:34:47			0	36669	0	0	0	28714	27340	160062	26831	1074493	46792	110670	0	0	8043	595652	0	0
2024-08-27 05:35:47			0	36666	0	0	0	28711	27330	159986	27050	1074421	46802	110669	0	0	8043	595809	0	0
2024-08-27 05:36:47			0	36671	0	0	0	28714	27330	160046	27022	1074439	46791	110670	0	0	8043	595604	0	0
2024-08-27 05:37:47			0	36674	0	0	0	28709	27320	160066	27223	1074421	46791	110668	0	0	8043	595516	0	0
2024-08-27 05:38:47			0	36672	0	0	0	28696	27330	160006	26922	1074439	46802	110663	0	0	8043	595564	0	0
2024-08-27 05:39:47			0	36690	0	0	0	28698	27310	159970	26679	1074411	46778	110664	0	0	8044	594897	0	0
2024-08-27 05:40:47			0	36704	0	0	0	28693	27310	159962	26779	1074358	46789	110662	0	0	8045	594326	0	0
2024-08-27 05:41:47			0	36688	0	0	0	28698	27310	160038	26811	1074295	46789	110664	0	0	8044	594979	0	0
2024-08-27 05:42:47			0	36694	0	0	0	28685	27320	159978	26854	1074394	46791	110659	0	0	8045	594699	0	0
2024-08-27 05:43:47			0	36713	0	0	0	28688	27300	159854	26911	1074393	46800	110660	0	0	8046	593992	0	0
2024-08-27 05:44:47			0	36691	0	0	0	28680	27310	159938	26840	1074376	46789	110657	0	0	8044	594856	0	0
2024-08-27 05:45:47			0	36722	0	0	0	28690	27300	159986	26932	1074331	46799	110661	0	0	8046	593625	0	0
2024-08-27 05:46:47			0	36717	0	0	0	28680	27300	159946	26894	1074304	46799	110657	0	0	8046	593829	0	0
2024-08-27 05:47:47			0	36729	0	0	0	28680	27300	159942	26908	1074304	46777	110657	0	0	8047	593340	0	0
2024-08-27 05:48:47			0	36716	0	0	0	28675	27300	159962	26880	1074304	46799	110655	0	0	8046	593870	0	0
2024-08-27 05:49:47			0	36687	0	0	0	28667	27300	159918	26689	1074340	46789	110652	0	0	8044	595054	0	0
2024-08-27 05:50:47			0	36693	0	0	0	28680	27300	160062	26840	1074250	46799	110657	0	0	8045	594808	0	0
2024-08-27 05:51:47			0	36695	0	0	0	28675	27290	160062	27041	1074205	46776	110655	0	0	8045	594761	0	0
2024-08-27 05:52:47			0	36673	0	0	0	28680	27290	160166	27104	1074295	46798	110657	0	0	8043	595660	0	0
2024-08-27 05:53:47			0	36687	0	0	0	28680	27290	160198	26812	1074295	46809	110657	0	0	8044	595088	0	0
2024-08-27 05:54:47			0	36684	0	0	0	28688	27290	160118	26977	1074313	46798	110660	0	0	8044	595210	0	0
2024-08-27 05:55:47			0	36692	0	0	0	28690	27280	160086	26757	1074267	46797	110661	0	0	8044	594918	0	0
2024-08-27 05:56:47			0	36693	0	0	0	28677	27290	160002	26955	1074322	46787	110656	0	0	8045	594843	0	0
2024-08-27 05:57:47			0	36687	0	0	0	28677	27290	160086	26871	1074322	46787	110656	0	0	8044	595088	0	0
2024-08-27 05:58:47			0	36662	0	0	0	28680	27290	160166	27140	1074295	46798	110657	0	0	8043	596109	0	0
2024-08-27 05:59:47			0	36646	0	0	0	28685	27290	160298	26828	1074259	46798	110659	0	0	8042	596764	0	0
2024-08-27 06:00:47			0	36641	0	0	0	28677	27280	160302	26890	1074222	46776	110656	0	0	8041	597003	0	0
2024-08-27 06:01:47			0	36649	0	0	0	28667	27280	160266	26918	1074249	46798	110652	0	0	8042	596675	0	0
2024-08-27 06:02:47			0	36647	0	0	0	28664	27280	160226	26844	1074276	46787	110651	0	0	8042	596757	0	0
2024-08-27 06:03:47			0	36659	0	0	0	28672	27270	160134	26882	1074177	46785	110654	0	0	8043	596300	0	0
2024-08-27 06:04:47			0	36658	0	0	0	28670	27290	160282	26746	1074259	46798	110653	0	0	8043	596273	0	0
2024-08-27 06:05:47			0	36673	0	0	0	28672	27270	160190	26871	1074258	46785	110654	0	0	8043	595728	0	0
2024-08-27 06:06:47			0	36660	0	0	0	28664	27270	160202	27102	1074151	46796	110651	0	0	8043	596260	0	0
2024-08-27 06:07:47			0	36673	0	0	0	28675	27270	160138	26804	1074204	46785	110655	0	0	8043	595728	0	0
2024-08-27 06:08:47			0	36681	0	0	0	28672	27270	160190	26906	1074204	46796	110654	0	0	8044	595401	0	0
2024-08-27 06:09:47			0	36673	0	0	0	28667	27270	160142	26781	1074222	46784	110652	0	0	8043	595728	0	0
2024-08-27 06:10:47			0	36680	0	0	0	28664	27270	160154	27097	1074231	46785	110651	0	0	8044	595442	0	0
2024-08-27 06:11:47			0	36668	0	0	0	28659	27260	160170	26989	1074240	46795	110649	0	0	8043	595967	0	0
2024-08-27 06:12:47			0	36681	0	0	0	28646	27270	160058	27104	1074204	46796	110644	0	0	8044	595401	0	0
2024-08-27 06:13:47			0	36663	0	0	0	28657	27270	160050	27090	1074204	46796	110648	0	0	8043	596137	0	0
2024-08-27 06:14:47			0	36693	0	0	0	28659	27270	160130	27371	1074141	46795	110649	0	0	8045	594911	0	0
2024-08-27 06:15:47			0	36685	0	0	0	28646	27270	160010	27178	1074168	46795	110644	0	0	8044	595238	0	0
2024-08-27 06:16:47			0	36687	0	0	0	28649	27270	160090	27015	1074195	46784	110645	0	0	8045	595156	0	0
2024-08-27 06:17:47			0	36687	0	0	0	28651	27260	159946	26968	1074132	46784	110646	0	0	8044	595190	0	0
2024-08-27 06:18:47			0	36690	0	0	0	28646	27260	160202	27012	1074132	46784	110644	0	0	8045	595068	0	0
2024-08-27 06:19:47			0	36691	0	0	0	28644	27270	160142	27026	1074141	46784	110643	0	0	8045	594993	0	0
2024-08-27 06:20:47			0	36702	0	0	0	28649	27260	160070	27206	1074159	46784	110645	0	0	8045	594578	0	0
2024-08-27 06:21:47			0	36699	0	0	0	28644	27260	160050	26824	1074204	46795	110643	0	0	8045	594700	0	0
2024-08-27 06:22:47			0	36703	0	0	0	28651	27260	160022	27242	1074132	46784	110646	0	0	8045	594537	0	0
2024-08-27 06:23:47			0	36703	0	0	0	28646	27260	160038	27152	1074123	46784	110644	0	0	8046	594537	0	0
2024-08-27 06:24:47			0	36712	0	0	0	28646	27250	159990	27178	1074159	46782	110644	0	0	8046	594204	0	0
2024-08-27 06:25:47			0	36705	0	0	0	28644	27250	160094	26934	1074114	46794	110643	0	0	8046	594489	0	0
2024-08-27 06:26:47			0	36714	0	0	0	28649	27250	160038	26986	1074114	46783	110645	0	0	8046	594122	0	0
2024-08-27 06:27:47			0	36725	0	0	0	28646	27260	160006	26935	1074132	46795	110644	0	0	8047	593640	0	0
2024-08-27 06:28:47			0	36733	0	0	0	28633	27250	160006	27126	1074078	46782	110639	0	0	8047	593347	0	0
2024-08-27 06:29:47			0	36730	0	0	0	28638	27250	159878	26986	1074141	46783	110641	0	0	8047	593470	0	0
2024-08-27 06:30:47			0	36745	0	0	0	28638	27260	159890	26797	1074150	46784	110641	0	0	8048	592824	0	0
2024-08-27 06:31:47			0	36745	0	0	0	28649	27260	159902	26909	1074123	46773	110645	0	0	8048	592824	0	0
2024-08-27 06:32:47			0	36750	0	0	0	28651	27250	159830	26963	1074141	46794	110646	0	0	8048	592655	0	0
2024-08-27 06:33:47			0	36749	0	0	0	28659	27260	159822	26896	1074177	46784	110649	0	0	8048	592661	0	0
2024-08-27 06:34:47			0	36761	0	0	0	28649	27260	159890	26953	1074177	46784	110645	0	0	8049	592173	0	0
2024-08-27 06:35:47			0	36780	0	0	0	28646	27260	159766	27138	1074159	46784	110644	0	0	8050	591400	0	0
2024-08-27 06:36:47			0	36782	0	0	0	28657	27250	159822	26880	1074061	46783	110648	0	0	8050	591352	0	0
2024-08-27 06:37:47			0	36780	0	0	0	28649	27250	159722	27050	1074087	46794	110645	0	0	8050	591434	0	0
2024-08-27 06:38:47			0	36788	0	0	0	28633	27250	159686	27060	1074078	46771	110639	0	0	8051	591109	0	0
2024-08-27 06:39:47			0	36786	0	0	0	28638	27250	159646	26826	1074061	46783	110641	0	0	8051	591190	0	0
2024-08-27 06:40:47			0	36786	0	0	0	28641	27250	159682	26764	1074087	46783	110642	0	0	8050	591190	0	0
2024-08-27 06:41:47			0	36784	0	0	0	28646	27250	159662	27001	1074114	46794	110644	0	0	8050	591271	0	0
2024-08-27 06:42:47			0	36825	0	0	0	28638	27240	159622	26913	1074096	46793	110641	0	0	8053	589639	0	0
2024-08-27 06:43:47			0	36802	0	0	0	28636	27250	159630	27353	1074105	46771	110640	0	0	8051	590540	0	0
2024-08-27 06:44:47			0	36807	0	0	0	28631	27250	159618	27017	1074078	46782	110638	0	0	8052	590336	0	0
2024-08-27 06:45:47			0	36780	0	0	0	28631	27250	159642	27223	1074078	46782	110638	0	0	8050	591434	0	0
2024-08-27 06:46:47			0	36778	0	0	0	28631	27250	159702	27152	1074061	46783	110638	0	0	8050	591515	0	0
2024-08-27 06:47:47			0	36784	0	0	0	28628	27240	159714	27013	1074096	46782	110637	0	0	8051	591305	0	0
2024-08-27 06:48:47			0	36790	0	0	0	28631	27250	159682	27218	1074052	46793	110638	0	0	8051	591027	0	0
2024-08-27 06:49:47			0	36796	0	0	0	28620	27240	159650	27052	1074069	46782	110634	0	0	8051	590817	0	0
2024-08-27 06:50:47			0	36815	0	0	0	28623	27240	159634	27211	1073989	46782	110635	0	0	8052	590045	0	0
2024-08-27 06:51:47			0	36786	0	0	0	28623	27240	159530	26975	1074043	46782	110635	0	0	8051	591224	0	0
2024-08-27 06:52:47			0	36799	0	0	0	28620	27230	159370	26783	1074051	46770	110634	0	0	8051	590729	0	0
2024-08-27 06:53:47			0	36809	0	0	0	28657	27230	159554	27154	1073998	46781	110648	0	0	8051	590323	0	0
2024-08-27 06:54:47			0	36826	0	0	0	28670	27230	159506	26738	1074051	46781	110653	0	0	8052	589633	0	0
2024-08-27 06:55:47			0	36837	0	0	0	28688	27240	159486	27092	1074096	46782	110660	0	0	8053	589152	0	0
2024-08-27 06:56:47			0	36841	0	0	0	28737	27240	159434	26922	1074096	46771	110679	0	0	8052	588990	0	0
2024-08-27 06:57:47			0	36854	0	0	0	28763	27250	159458	27149	1074168	46805	110689	0	0	8052	588429	0	0
2024-08-27 06:58:47			0	36879	0	0	0	28776	27250	159338	26894	1074222	46817	110694	0	0	8054	587417	0	0
2024-08-27 06:59:47			0	36886	0	0	0	28766	27250	159278	26967	1074222	46817	110690	0	0	8054	587133	0	0
2024-08-27 07:00:47			0	36871	0	0	0	28748	27260	159234	26915	1074186	46806	110683	0	0	8054	587707	0	0
2024-08-27 07:01:47			0	36896	0	0	0	28740	27260	159194	26755	1074258	46806	110680	0	0	8055	586695	0	0
2024-08-27 07:02:47			0	36905	0	0	0	28696	27270	159138	26946	1074249	46795	110663	0	0	8057	586297	0	0
2024-08-27 07:03:47			0	36881	0	0	0	28696	27270	159074	26970	1074303	46806	110663	0	0	8055	587268	0	0
2024-08-27 07:04:47			0	36883	0	0	0	28703	27260	159174	27067	1074186	46784	110666	0	0	8055	587221	0	0
2024-08-27 07:05:47			0	36882	0	0	0	28722	27270	159222	26908	1074249	46795	110673	0	0	8055	587228	0	0
2024-08-27 07:06:47			0	36888	0	0	0	28690	27270	159162	26604	1074222	46795	110661	0	0	8056	586985	0	0
2024-08-27 07:07:47			0	36872	0	0	0	28709	27260	159306	26700	1074159	46795	110668	0	0	8054	587666	0	0
2024-08-27 07:08:47			0	36855	0	0	0	28714	27270	159454	27017	1074195	46795	110670	0	0	8053	588321	0	0
2024-08-27 07:09:47			0	36856	0	0	0	28703	27270	159410	27078	1074276	46784	110666	0	0	8054	588281	0	0
2024-08-27 07:10:47			0	36841	0	0	0	28711	27270	159274	26833	1074285	46796	110669	0	0	8053	588889	0	0
2024-08-27 07:11:47			0	36847	0	0	0	28740	27270	159358	26974	1074303	46806	110680	0	0	8052	588645	0	0
2024-08-27 07:12:47			0	36827	0	0	0	28748	27270	159334	26989	1074366	46785	110683	0	0	8051	589457	0	0
2024-08-27 07:13:47			0	36848	0	0	0	28745	27280	159458	26911	1074384	46809	110682	0	0	8053	588571	0	0
2024-08-27 07:14:47			0	36823	0	0	0	28727	27280	159438	27105	1074384	46809	110675	0	0	8051	589585	0	0
2024-08-27 07:15:47			0	36808	0	0	0	28722	27290	159490	27163	1074348	46787	110673	0	0	8051	590160	0	0
2024-08-27 07:16:47			0	36823	0	0	0	28727	27300	159490	27046	1074393	46811	110675	0	0	8051	589517	0	0
2024-08-27 07:17:47			0	36809	0	0	0	28701	27290	159502	26922	1074348	46798	110665	0	0	8051	590120	0	0
2024-08-27 07:18:47			0	36801	0	0	0	28709	27290	159554	27005	1074313	46798	110668	0	0	8050	590445	0	0
2024-08-27 07:19:47			0	36779	0	0	0	28701	27290	159538	26934	1074366	46787	110665	0	0	8049	591339	0	0
2024-08-27 07:20:47			0	36788	0	0	0	28680	27290	159642	26759	1074295	46798	110657	0	0	8050	590973	0	0
2024-08-27 07:21:47			0	36780	0	0	0	28657	27280	159566	26802	1074249	46787	110648	0	0	8050	591332	0	0
2024-08-27 07:22:47			0	36793	0	0	0	28644	27280	159638	27159	1074222	46765	110643	0	0	8051	590803	0	0
2024-08-27 07:23:47			0	36765	0	0	0	28623	27270	159534	26762	1074231	46763	110635	0	0	8050	591976	0	0
2024-08-27 07:24:47			0	36772	0	0	0	28631	27270	159638	27017	1074195	46784	110638	0	0	8050	591691	0	0
2024-08-27 07:25:47			0	36760	0	0	0	28646	27270	159694	26727	1074141	46784	110644	0	0	8049	592180	0	0
2024-08-27 07:26:47			0	36770	0	0	0	28623	27260	159870	27284	1074096	46784	110635	0	0	8050	591807	0	0
2024-08-27 07:27:47			0	36769	0	0	0	28651	27260	159650	27012	1074123	46773	110646	0	0	8049	591847	0	0
2024-08-27 07:28:47			0	36757	0	0	0	28631	27260	159854	26866	1074123	46784	110638	0	0	8049	592336	0	0
2024-08-27 07:29:47			0	36750	0	0	0	28662	27250	159870	26935	1074114	46783	110650	0	0	8048	592655	0	0
2024-08-27 07:30:47			0	36764	0	0	0	28709	27250	159842	26989	1074141	46794	110668	0	0	8048	592085	0	0
2024-08-27 07:31:47			0	36759	0	0	0	28727	27260	159718	26902	1074150	46806	110675	0	0	8047	592254	0	0
2024-08-27 07:32:47			0	36768	0	0	0	28740	27250	159758	27036	1074276	46805	110680	0	0	8048	591922	0	0
2024-08-27 07:33:47			0	36758	0	0	0	28774	27270	159782	26752	1074384	46818	110693	0	0	8047	592261	0	0
2024-08-27 07:34:47			0	36745	0	0	0	28768	27270	159790	26991	1074366	46819	110691	0	0	8046	592790	0	0
2024-08-27 07:35:47			0	36756	0	0	0	28810	27280	159758	27107	1074518	46832	110707	0	0	8046	592308	0	0
2024-08-27 07:36:47			0	36747	0	0	0	28823	27300	159806	26870	1074609	46823	110712	0	0	8045	592607	0	0
2024-08-27 07:37:47			0	36749	0	0	0	28859	27310	159742	26849	1074707	46844	110726	0	0	8045	592491	0	0
2024-08-27 07:38:47			0	36740	0	0	0	28875	27340	159894	27067	1074833	46859	110732	0	0	8044	592756	0	0
2024-08-27 07:39:47			0	36755	0	0	0	28885	27360	159810	26902	1074923	46849	110736	0	0	8045	592077	0	0
2024-08-27 07:40:47			0	36750	0	0	0	28896	27360	159786	26963	1074986	46839	110740	0	0	8045	592280	0	0
2024-08-27 07:41:47			0	36737	0	0	0	28877	27380	159714	27135	1075022	46831	110733	0	0	8044	592742	0	0
2024-08-27 07:42:47			0	36741	0	0	0	28857	27390	159722	26963	1075031	46832	110725	0	0	8045	592545	0	0
2024-08-27 07:43:47			0	36732	0	0	0	28849	27400	159662	27268	1074996	46832	110722	0	0	8044	592877	0	0
2024-08-27 07:44:47			0	36731	0	0	0	28875	27400	159766	27019	1075023	46832	110732	0	0	8044	592918	0	0
2024-08-27 07:45:47			0	36754	0	0	0	28883	27410	159706	27097	1075095	46833	110735	0	0	8045	591947	0	0
2024-08-27 07:46:47			0	36724	0	0	0	28870	27400	159642	26785	1075166	46833	110730	0	0	8044	593203	0	0
2024-08-27 07:47:47			0	36733	0	0	0	28857	27420	159710	26870	1075140	46823	110725	0	0	8044	592768	0	0
2024-08-27 07:48:47			0	36732	0	0	0	28844	27420	159730	26979	1075059	46812	110720	0	0	8045	592809	0	0
2024-08-27 07:49:47			0	36724	0	0	0	28818	27410	159838	26700	1075023	46800	110710	0	0	8045	593169	0	0
2024-08-27 07:50:47			0	36731	0	0	0	28823	27410	159762	26916	1075077	46800	110712	0	0	8045	592884	0	0
2024-08-27 07:51:47			0	36738	0	0	0	28849	27400	159746	26727	1075032	46810	110722	0	0	8045	592633	0	0
2024-08-27 07:52:47			0	36707	0	0	0	28851	27410	159742	26786	1075095	46811	110723	0	0	8043	593862	0	0
2024-08-27 07:53:47			0	36718	0	0	0	28875	27420	159750	26845	1075113	46801	110732	0	0	8043	593379	0	0
2024-08-27 07:54:47			0	36712	0	0	0	28877	27420	159862	26635	1075122	46812	110733	0	0	8043	593624	0	0
2024-08-27 07:55:47			0	36708	0	0	0	28890	27420	159794	26733	1075149	46823	110738	0	0	8042	593787	0	0
2024-08-27 07:56:47			0	36725	0	0	0	28885	27430	159742	27043	1075194	46814	110736	0	0	8044	593060	0	0
2024-08-27 07:57:47			0	36709	0	0	0	28893	27440	159746	26911	1075266	46814	110739	0	0	8043	593678	0	0
2024-08-27 07:58:47			0	36695	0	0	0	28888	27440	159670	27197	1075203	46814	110737	0	0	8042	594249	0	0
2024-08-27 07:59:47			0	36704	0	0	0	28883	27460	159710	27034	1075239	46827	110735	0	0	8043	593813	0	0
2024-08-27 08:00:47			0	36687	0	0	0	28875	27450	159854	27069	1075203	46805	110732	0	0	8042	594541	0	0
2024-08-27 08:01:47			0	36709	0	0	0	28862	27440	159782	26984	1075203	46803	110727	0	0	8043	593678	0	0
2024-08-27 08:02:47			0	36691	0	0	0	28862	27440	159882	26817	1075212	46814	110727	0	0	8042	594412	0	0
2024-08-27 08:03:47			0	36681	0	0	0	28864	27450	159846	27026	1075194	46815	110728	0	0	8041	594786	0	0
2024-08-27 08:04:47			0	36690	0	0	0	28857	27440	159898	27102	1075158	46803	110725	0	0	8042	594453	0	0
2024-08-27 08:05:47			0	36699	0	0	0	28857	27440	159786	26769	1075185	46814	110725	0	0	8043	594085	0	0
2024-08-27 08:06:47			0	36684	0	0	0	28846	27440	159858	26996	1075149	46803	110721	0	0	8042	594697	0	0
2024-08-27 08:07:47			0	36671	0	0	0	28833	27450	159894	27072	1075140	46804	110716	0	0	8041	595194	0	0
2024-08-27 08:08:47			0	36685	0	0	0	28838	27440	159854	26908	1075131	46803	110718	0	0	8042	594657	0	0
2024-08-27 08:09:47			0	36666	0	0	0	28841	27420	159874	26771	1075068	46801	110719	0	0	8041	595501	0	0
2024-08-27 08:10:47			0	36673	0	0	0	28823	27430	159862	27033	1075077	46802	110712	0	0	8042	595181	0	0
2024-08-27 08:11:47			0	36674	0	0	0	28818	27430	159890	26833	1075023	46802	110710	0	0	8042	595140	0	0
2024-08-27 08:12:47			0	36653	0	0	0	28823	27420	159838	26849	1075005	46801	110712	0	0	8040	596032	0	0
2024-08-27 08:13:47			0	36648	0	0	0	28818	27420	159862	26776	1074978	46790	110710	0	0	8040	596236	0	0
2024-08-27 08:14:47			0	36650	0	0	0	28818	27410	159966	26632	1074996	46811	110710	0	0	8040	596189	0	0
2024-08-27 08:15:47			0	36659	0	0	0	28831	27410	160022	26977	1074987	46811	110715	0	0	8040	595821	0	0
2024-08-27 08:16:47			0	36669	0	0	0	28818	27400	159998	26672	1074924	46788	110710	0	0	8041	595447	0	0
2024-08-27 08:17:47			0	36674	0	0	0	28836	27400	159986	26989	1074942	46832	110717	0	0	8041	595242	0	0
2024-08-27 08:18:47			0	36645	0	0	0	28851	27400	160046	27267	1075023	46832	110723	0	0	8039	596428	0	0
2024-08-27 08:19:47			0	36663	0	0	0	28867	27410	160070	27083	1075050	46822	110729	0	0	8040	595658	0	0
2024-08-27 08:20:47			0	36665	0	0	0	28872	27410	160106	26953	1075041	46800	110731	0	0	8040	595576	0	0
2024-08-27 08:21:47			0	36653	0	0	0	28862	27410	159946	26970	1075050	46822	110727	0	0	8040	596066	0	0
2024-08-27 08:22:47			0	36649	0	0	0	28849	27420	159958	26974	1075122	46823	110722	0	0	8040	596195	0	0
2024-08-27 08:23:47			0	36658	0	0	0	28846	27420	159986	27071	1075149	46834	110721	0	0	8040	595827	0	0
2024-08-27 08:24:47			0	36648	0	0	0	28831	27430	160030	26821	1075131	46813	110715	0	0	8040	596202	0	0
2024-08-27 08:25:47			0	36654	0	0	0	28833	27420	160018	26485	1075095	46812	110716	0	0	8040	595991	0	0
2024-08-27 08:26:47			0	36656	0	0	0	28815	27430	160046	26760	1074997	46813	110709	0	0	8041	595875	0	0
2024-08-27 08:27:47			0	36661	0	0	0	28786	27420	159970	27008	1075014	46823	110698	0	0	8041	595705	0	0
2024-08-27 08:28:47			0	36657	0	0	0	28758	27410	159946	26977	1074933	46811	110687	0	0	8042	595903	0	0
2024-08-27 08:29:47			0	36650	0	0	0	28742	27420	159942	26928	1074898	46801	110681	0	0	8042	596154	0	0
2024-08-27 08:30:47			0	36662	0	0	0	28740	27390	159986	26897	1074825	46787	110680	0	0	8042	595767	0	0
2024-08-27 08:31:47			0	36676	0	0	0	28737	27390	159906	27066	1074735	46764	110679	0	0	8043	595195	0	0
2024-08-27 08:32:47			0	36669	0	0	0	28727	27370	159922	27065	1074789	46796	110675	0	0	8043	595549	0	0
2024-08-27 08:33:47			0	36646	0	0	0	28724	27370	159906	27022	1074753	46796	110674	0	0	8041	596489	0	0
2024-08-27 08:34:47			0	36671	0	0	0	28735	27370	159930	27157	1074726	46807	110678	0	0	8043	595468	0	0
2024-08-27 08:35:47			0	36668	0	0	0	28745	27360	159894	27440	1074627	46805	110682	0	0	8042	595624	0	0
2024-08-27 08:36:47			0	36693	0	0	0	28745	27370	159766	27211	1074699	46796	110682	0	0	8044	594569	0	0
2024-08-27 08:37:47			0	36691	0	0	0	28755	27360	159910	27128	1074744	46806	110686	0	0	8043	594685	0	0
2024-08-27 08:38:47			0	36684	0	0	0	28742	27360	159886	27176	1074735	46805	110681	0	0	8043	594971	0	0
2024-08-27 08:39:47			0	36691	0	0	0	28745	27360	159946	26800	1074708	46805	110682	0	0	8044	594685	0	0
2024-08-27 08:40:47			0	36683	0	0	0	28748	27360	159930	26700	1074717	46806	110683	0	0	8043	595012	0	0
2024-08-27 08:41:47			0	36680	0	0	0	28745	27360	159822	26868	1074708	46793	110682	0	0	8043	595134	0	0
2024-08-27 08:42:47			0	36691	0	0	0	28745	27350	159834	26961	1074717	46793	110682	0	0	8044	594719	0	0
2024-08-27 08:43:47			0	36681	0	0	0	28750	27360	159858	27069	1074708	46793	110684	0	0	8043	595093	0	0
2024-08-27 08:44:47			0	36686	0	0	0	28758	27350	159906	26953	1074636	46816	110687	0	0	8043	594923	0	0
2024-08-27 08:45:47			0	36703	0	0	0	28761	27360	159890	27043	1074735	46793	110688	0	0	8044	594196	0	0
2024-08-27 08:46:47			0	36699	0	0	0	28761	27340	159834	27128	1074708	46804	110688	0	0	8044	594427	0	0
2024-08-27 08:47:47			0	36711	0	0	0	28763	27340	159830	26972	1074627	46792	110689	0	0	8044	593938	0	0
2024-08-27 08:48:47			0	36723	0	0	0	28753	27350	159814	26816	1074744	46793	110685	0	0	8045	593414	0	0
2024-08-27 08:49:47			0	36698	0	0	0	28750	27340	159754	26726	1074627	46792	110684	0	0	8044	594468	0	0
2024-08-27 08:50:47			0	36705	0	0	0	28735	27350	159790	26857	1074690	46793	110678	0	0	8045	594148	0	0
2024-08-27 08:51:47			0	36702	0	0	0	28735	27350	159802	27088	1074636	46783	110678	0	0	8044	594271	0	0
2024-08-27 08:52:47			0	36704	0	0	0	28719	27350	159794	26868	1074582	46805	110672	0	0	8045	594189	0	0
2024-08-27 08:53:47			0	36707	0	0	0	28711	27340	159822	26800	1074600	46804	110669	0	0	8045	594101	0	0
2024-08-27 08:54:47			0	36715	0	0	0	28709	27340	159778	26814	1074484	46803	110668	0	0	8046	593774	0	0
2024-08-27 08:55:47			0	36714	0	0	0	28696	27330	159746	26741	1074528	46791	110663	0	0	8046	593849	0	0
2024-08-27 08:56:47			0	36718	0	0	0	28693	27330	159786	26661	1074439	46802	110662	0	0	8046	593686	0	0
2024-08-27 08:57:47			0	36724	0	0	0	28693	27330	159786	26786	1074466	46802	110662	0	0	8046	593442	0	0
2024-08-27 08:58:47			0	36709	0	0	0	28696	27310	159670	26861	1074438	46789	110663	0	0	8045	594121	0	0
2024-08-27 08:59:47			0	36741	0	0	0	28696	27310	159658	26734	1074492	46778	110663	0	0	8047	592817	0	0
2024-08-27 09:00:47			0	36738	0	0	0	28696	27310	159666	27013	1074483	46800	110663	0	0	8047	592939	0	0
2024-08-27 09:01:47			0	36742	0	0	0	28685	27300	159542	26939	1074393	46800	110659	0	0	8047	592810	0	0
2024-08-27 09:02:47			0	36743	0	0	0	28680	27310	159626	26672	1074429	46789	110657	0	0	8048	592736	0	0
2024-08-27 09:03:47			0	36745	0	0	0	28677	27310	159586	26930	1074376	46789	110656	0	0	8048	592654	0	0
2024-08-27 09:04:47			0	36752	0	0	0	28683	27300	159630	26887	1074331	46788	110658	0	0	8048	592403	0	0
2024-08-27 09:05:47			0	36775	0	0	0	28683	27290	159606	26752	1074313	46776	110658	0	0	8049	591501	0	0
2024-08-27 09:06:47			0	36771	0	0	0	28690	27290	159570	27085	1074339	46787	110661	0	0	8049	591664	0	0
2024-08-27 09:07:47			0	36804	0	0	0	28683	27290	159610	27055	1074348	46798	110658	0	0	8051	590323	0	0
2024-08-27 09:08:47			0	36795	0	0	0	28683	27290	159550	26592	1074366	46798	110658	0	0	8050	590688	0	0
2024-08-27 09:09:47			0	36810	0	0	0	28677	27290	159350	26776	1074375	46798	110656	0	0	8051	590079	0	0
2024-08-27 09:10:47			0	36828	0	0	0	28680	27290	159342	26915	1074393	46798	110657	0	0	8052	589348	0	0
2024-08-27 09:11:47			0	36817	0	0	0	28675	27300	159370	26727	1074384	46788	110655	0	0	8052	589761	0	0
2024-08-27 09:12:47			0	36826	0	0	0	28690	27290	159362	26755	1074366	46787	110661	0	0	8052	589430	0	0
2024-08-27 09:13:47			0	36810	0	0	0	28683	27290	159410	26826	1074339	46776	110658	0	0	8051	590079	0	0
2024-08-27 09:14:47			0	36831	0	0	0	28675	27290	159470	27128	1074447	46787	110655	0	0	8053	589227	0	0
2024-08-27 09:15:47			0	36810	0	0	0	28672	27280	159310	27097	1074330	46798	110654	0	0	8051	590113	0	0
2024-08-27 09:16:47			0	36844	0	0	0	28662	27280	159414	26970	1074384	46787	110650	0	0	8054	588733	0	0
2024-08-27 09:17:47			0	36824	0	0	0	28672	27280	159422	26663	1074321	46786	110654	0	0	8052	589545	0	0
2024-08-27 09:18:47			0	36852	0	0	0	28683	27280	159370	26904	1074330	46787	110658	0	0	8054	588409	0	0
2024-08-27 09:19:47			0	36845	0	0	0	28677	27270	159386	26859	1074285	46785	110656	0	0	8053	588726	0	0
2024-08-27 09:20:47			0	36856	0	0	0	28670	27270	159370	26871	1074285	46785	110653	0	0	8054	588281	0	0
2024-08-27 09:21:47			0	36847	0	0	0	28675	27270	159290	26776	1074312	46796	110655	0	0	8054	588645	0	0
2024-08-27 09:22:47			0	36859	0	0	0	28677	27280	159178	26762	1074267	46786	110656	0	0	8054	588125	0	0
2024-08-27 09:23:47			0	36879	0	0	0	28685	27280	159294	26937	1074348	46808	110659	0	0	8055	587315	0	0
2024-08-27 09:24:47			0	36892	0	0	0	28690	27270	159150	26913	1074303	46795	110661	0	0	8056	586823	0	0
2024-08-27 09:25:47			0	36892	0	0	0	28693	27270	159106	27085	1074357	46806	110662	0	0	8056	586823	0	0
2024-08-27 09:26:47			0	36904	0	0	0	28701	27270	159058	27208	1074366	46796	110665	0	0	8057	586338	0	0
2024-08-27 09:27:47			0	36895	0	0	0	28696	27280	158986	27478	1074411	46798	110663	0	0	8056	586668	0	0
2024-08-27 09:28:47			0	36914	0	0	0	28711	27280	159082	27175	1074411	46798	110669	0	0	8057	585900	0	0
2024-08-27 09:29:47			0	36929	0	0	0	28706	27290	159030	27027	1074402	46821	110667	0	0	8058	585260	0	0
2024-08-27 09:30:47			0	36914	0	0	0	28716	27290	158982	27123	1074420	46809	110671	0	0	8057	585866	0	0
2024-08-27 09:31:47			0	36925	0	0	0	28719	27300	159010	27100	1074411	46810	110672	0	0	8058	585388	0	0
2024-08-27 09:32:47			0	36922	0	0	0	28711	27290	159054	27230	1074483	46787	110669	0	0	8057	585543	0	0
2024-08-27 09:33:47			0	36910	0	0	0	28722	27300	158990	27085	1074501	46800	110673	0	0	8057	585994	0	0
2024-08-27 09:34:47			0	36931	0	0	0	28703	27300	158934	26811	1074474	46823	110666	0	0	8058	585146	0	0
2024-08-27 09:35:47			0	36916	0	0	0	28698	27300	158974	27157	1074438	46799	110664	0	0	8057	585752	0	0
2024-08-27 09:36:47			0	36929	0	0	0	28698	27290	158930	27237	1074447	46776	110664	0	0	8058	585260	0	0
2024-08-27 09:37:47			0	36927	0	0	0	28698	27300	158966	26970	1074411	46788	110664	0	0	8058	585308	0	0
2024-08-27 09:38:47			0	36922	0	0	0	28688	27300	158914	27197	1074474	46778	110660	0	0	8058	585509	0	0
2024-08-27 09:39:47			0	36911	0	0	0	28677	27290	158942	27242	1074402	46787	110656	0	0	8057	585987	0	0
2024-08-27 09:40:47			0	36913	0	0	0	28685	27290	159082	27069	1074339	46809	110659	0	0	8057	585907	0	0
2024-08-27 09:41:47			0	36912	0	0	0	28683	27290	159082	27277	1074402	46787	110658	0	0	8057	585947	0	0
2024-08-27 09:42:47			0	36925	0	0	0	28675	27290	159034	27289	1074375	46798	110655	0	0	8058	585422	0	0
2024-08-27 09:43:47			0	36923	0	0	0	28680	27290	159118	26809	1074420	46798	110657	0	0	8058	585503	0	0
2024-08-27 09:44:47			0	36917	0	0	0	28677	27280	159118	27088	1074357	46787	110656	0	0	8058	585779	0	0
2024-08-27 09:45:47			0	36912	0	0	0	28690	27280	159022	27182	1074384	46798	110661	0	0	8057	585981	0	0
2024-08-27 09:46:47			0	36904	0	0	0	28690	27290	158954	27062	1074402	46787	110661	0	0	8057	586270	0	0
2024-08-27 09:47:47			0	36904	0	0	0	28698	27290	159006	27043	1074393	46787	110664	0	0	8057	586270	0	0
2024-08-27 09:48:47			0	36908	0	0	0	28690	27280	159078	27019	1074411	46787	110661	0	0	8057	586142	0	0
2024-08-27 09:49:47			0	36916	0	0	0	28685	27300	159054	27156	1074438	46777	110659	0	0	8058	585752	0	0
2024-08-27 09:50:47			0	36926	0	0	0	28693	27290	159010	27105	1074429	46787	110662	0	0	8058	585382	0	0
2024-08-27 09:51:47			0	36929	0	0	0	28701	27290	158990	27078	1074393	46798	110665	0	0	8058	585260	0	0
2024-08-27 09:52:47			0	36908	0	0	0	28698	27290	159070	27050	1074420	46776	110664	0	0	8057	586109	0	0
2024-08-27 09:53:47			0	36923	0	0	0	28696	27290	158982	27303	1074402	46809	110663	0	0	8058	585503	0	0
2024-08-27 09:54:47			0	36915	0	0	0	28706	27290	158994	27057	1074447	46787	110667	0	0	8057	585826	0	0
2024-08-27 09:55:47			0	36924	0	0	0	28703	27290	158970	27092	1074429	46798	110666	0	0	8058	585462	0	0
2024-08-27 09:56:47			0	36921	0	0	0	28711	27300	158958	27071	1074546	46799	110669	0	0	8057	585550	0	0
2024-08-27 09:57:47			0	36922	0	0	0	28711	27290	158970	26816	1074429	46798	110669	0	0	8057	585543	0	0
2024-08-27 09:58:47			0	36930	0	0	0	28706	27300	158902	26790	1074492	46822	110667	0	0	8058	585186	0	0
2024-08-27 09:59:47			0	36944	0	0	0	28706	27300	158838	26753	1074438	46799	110667	0	0	8059	584621	0	0
2024-08-27 10:00:47			0	36951	0	0	0	28711	27300	158846	26951	1074465	46788	110669	0	0	8059	584339	0	0
2024-08-27 10:01:47			0	36933	0	0	0	28709	27310	158826	26776	1074483	46800	110668	0	0	8058	585032	0	0
2024-08-27 10:02:47			0	36963	0	0	0	28706	27300	158862	27022	1074528	46800	110667	0	0	8060	583855	0	0
2024-08-27 10:03:47			0	36950	0	0	0	28714	27300	158890	27313	1074528	46800	110670	0	0	8059	584379	0	0
2024-08-27 10:04:47			0	36957	0	0	0	28714	27300	158810	27083	1074447	46800	110670	0	0	8060	584097	0	0
2024-08-27 10:05:47			0	36952	0	0	0	28722	27300	158922	27109	1074528	46789	110673	0	0	8059	584298	0	0
2024-08-27 10:06:47			0	36971	0	0	0	28724	27300	158914	27173	1074528	46800	110674	0	0	8060	583532	0	0
2024-08-27 10:07:47			0	36953	0	0	0	28735	27310	158806	27352	1074546	46789	110678	0	0	8059	584225	0	0
2024-08-27 10:08:47			0	36968	0	0	0	28735	27310	158726	27048	1074546	46800	110678	0	0	8060	583620	0	0
2024-08-27 10:09:47			0	36981	0	0	0	28742	27320	158798	27008	1074582	46801	110681	0	0	8061	583063	0	0
2024-08-27 10:10:47			0	36955	0	0	0	28740	27320	158822	27121	1074564	46813	110680	0	0	8059	584110	0	0
2024-08-27 10:11:47			0	36969	0	0	0	28735	27340	158778	27088	1074699	46791	110678	0	0	8060	583479	0	0
2024-08-27 10:12:47			0	36964	0	0	0	28737	27320	158850	27150	1074564	46802	110679	0	0	8060	583747	0	0
2024-08-27 10:13:47			0	36963	0	0	0	28724	27330	158778	26665	1074573	46802	110674	0	0	8060	583754	0	0
2024-08-27 10:14:47			0	36951	0	0	0	28724	27330	158778	27019	1074627	46802	110674	0	0	8059	584238	0	0
2024-08-27 10:15:47			0	36966	0	0	0	28722	27330	158806	26968	1074582	46791	110673	0	0	8060	583633	0	0
2024-08-27 10:16:47			0	36974	0	0	0	28735	27320	158830	27268	1074528	46801	110678	0	0	8060	583344	0	0
2024-08-27 10:17:47			0	36974	0	0	0	28724	27330	158874	27135	1074555	46791	110674	0	0	8061	583311	0	0
2024-08-27 10:18:47			0	36989	0	0	0	28722	27330	158734	27166	1074600	46802	110673	0	0	8061	582707	0	0
2024-08-27 10:19:47			0	36991	0	0	0	28732	27330	158822	27227	1074582	46802	110677	0	0	8061	582626	0	0
2024-08-27 10:20:47			0	36982	0	0	0	28732	27330	158782	27033	1074690	46813	110677	0	0	8061	582989	0	0
2024-08-27 10:21:47			0	36976	0	0	0	28729	27330	158750	26795	1074609	46802	110676	0	0	8061	583230	0	0
2024-08-27 10:22:47			0	36990	0	0	0	28737	27340	158790	27020	1074726	46803	110679	0	0	8061	582633	0	0
2024-08-27 10:23:47			0	37000	0	0	0	28745	27340	158738	27208	1074699	46791	110682	0	0	8062	582231	0	0
2024-08-27 10:24:47			0	36986	0	0	0	28742	27330	158778	27244	1074708	46802	110681	0	0	8061	582828	0	0
2024-08-27 10:25:47			0	36989	0	0	0	28750	27330	158606	26882	1074582	46802	110684	0	0	8061	582707	0	0
2024-08-27 10:26:47			0	37002	0	0	0	28748	27320	158682	27234	1074672	46802	110683	0	0	8062	582217	0	0
2024-08-27 10:27:47			0	36994	0	0	0	28750	27350	158630	27196	1074690	46805	110684	0	0	8061	582439	0	0
2024-08-27 10:28:47			0	36992	0	0	0	28755	27340	158662	26960	1074699	46791	110686	0	0	8061	582553	0	0
2024-08-27 10:29:47			0	36993	0	0	0	28753	27350	158554	27294	1074753	46805	110685	0	0	8061	582479	0	0
2024-08-27 10:30:47			0	36999	0	0	0	28742	27350	158654	27024	1074636	46793	110681	0	0	8062	582237	0	0
2024-08-27 10:31:47			0	36994	0	0	0	28742	27350	158662	26883	1074753	46805	110681	0	0	8062	582439	0	0
2024-08-27 10:32:47			0	36986	0	0	0	28735	27340	158678	27327	1074708	46804	110678	0	0	8061	582794	0	0
2024-08-27 10:33:47			0	37005	0	0	0	28732	27340	158610	27253	1074627	46792	110677	0	0	8062	582029	0	0
2024-08-27 10:34:47			0	36996	0	0	0	28737	27340	158598	26909	1074591	46791	110679	0	0	8062	582392	0	0
2024-08-27 10:35:47			0	36988	0	0	0	28740	27340	158614	27357	1074681	46782	110680	0	0	8061	582714	0	0
2024-08-27 10:36:47			0	37002	0	0	0	28740	27340	158630	26984	1074627	46804	110680	0	0	8062	582150	0	0
2024-08-27 10:37:47			0	36984	0	0	0	28750	27350	158542	27222	1074690	46793	110684	0	0	8061	582841	0	0
2024-08-27 10:38:47			0	37006	0	0	0	28750	27350	158526	27281	1074744	46805	110684	0	0	8062	581956	0	0
2024-08-27 10:39:47			0	37000	0	0	0	28748	27340	158582	26993	1074735	46804	110683	0	0	8062	582231	0	0
2024-08-27 10:40:47			0	37012	0	0	0	28745	27350	158550	27367	1074744	46793	110682	0	0	8063	581714	0	0
2024-08-27 10:41:47			0	37009	0	0	0	28745	27350	158598	27218	1074699	46793	110682	0	0	8062	581835	0	0
2024-08-27 10:42:47			0	37001	0	0	0	28750	27350	158438	27485	1074717	46783	110684	0	0	8062	582157	0	0
2024-08-27 10:43:47			0	37003	0	0	0	28755	27340	158526	26977	1074627	46804	110686	0	0	8062	582110	0	0
2024-08-27 10:44:47			0	37003	0	0	0	28763	27350	158450	26968	1074726	46793	110689	0	0	8062	582077	0	0
2024-08-27 10:45:47			0	37016	0	0	0	28758	27350	158506	27261	1074798	46793	110687	0	0	8063	581554	0	0
2024-08-27 10:46:47			0	37033	0	0	0	28761	27350	158422	27170	1074771	46783	110688	0	0	8063	580870	0	0
2024-08-27 10:47:47			0	37041	0	0	0	28761	27350	158486	27130	1074798	46793	110688	0	0	8064	580549	0	0
2024-08-27 10:48:47			0	37041	0	0	0	28758	27350	158442	27017	1074699	46805	110687	0	0	8064	580549	0	0
2024-08-27 10:49:47			0	37015	0	0	0	28750	27340	158546	27237	1074699	46803	110684	0	0	8063	581627	0	0
2024-08-27 10:50:47			0	37019	0	0	0	28755	27360	158534	27201	1074798	46795	110686	0	0	8063	581400	0	0
2024-08-27 10:51:47			0	37020	0	0	0	28763	27350	158386	27007	1074771	46793	110689	0	0	8063	581393	0	0
2024-08-27 10:52:47			0	37011	0	0	0	28763	27350	158534	27190	1074780	46793	110689	0	0	8062	581755	0	0
2024-08-27 10:53:47			0	37014	0	0	0	28771	27360	158398	27282	1074789	46805	110692	0	0	8062	581601	0	0
2024-08-27 10:54:47			0	37026	0	0	0	28763	27360	158446	27161	1074852	46817	110689	0	0	8063	581118	0	0
2024-08-27 10:55:47			0	37012	0	0	0	28776	27360	158446	27100	1074789	46805	110694	0	0	8062	581681	0	0
2024-08-27 10:56:47			0	37009	0	0	0	28774	27350	158514	27280	1074834	46793	110693	0	0	8062	581835	0	0
2024-08-27 10:57:47			0	37022	0	0	0	28768	27360	158410	27159	1074789	46793	110691	0	0	8063	581279	0	0
2024-08-27 10:58:47			0	37029	0	0	0	28771	27370	158530	27007	1074861	46796	110692	0	0	8063	580964	0	0
2024-08-27 10:59:47			0	37031	0	0	0	28776	27370	158422	27514	1074834	46807	110694	0	0	8063	580884	0	0
2024-08-27 11:00:47			0	37041	0	0	0	28779	27370	158370	26941	1074897	46796	110695	0	0	8064	580482	0	0
2024-08-27 11:01:47			0	37048	0	0	0	28768	27360	158418	26982	1074798	46806	110691	0	0	8064	580235	0	0
2024-08-27 11:02:47			0	37040	0	0	0	28771	27370	158414	26849	1074780	46785	110692	0	0	8064	580523	0	0
2024-08-27 11:03:47			0	37035	0	0	0	28774	27370	158318	27189	1074870	46796	110693	0	0	8063	580723	0	0
2024-08-27 11:04:47			0	37031	0	0	0	28781	27370	158326	27164	1074834	46796	110696	0	0	8063	580884	0	0
2024-08-27 11:05:47			0	37030	0	0	0	28781	27370	158262	27256	1074915	46796	110696	0	0	8063	580924	0	0
2024-08-27 11:06:47			0	37049	0	0	0	28781	27360	158390	27211	1074879	46784	110696	0	0	8064	580195	0	0
2024-08-27 11:07:47			0	37042	0	0	0	28784	27370	158346	27078	1074924	46796	110697	0	0	8064	580442	0	0
2024-08-27 11:08:47			0	37043	0	0	0	28779	27380	158282	26951	1074960	46796	110695	0	0	8064	580369	0	0
2024-08-27 11:09:47			0	37061	0	0	0	28786	27380	158358	27156	1074933	46796	110698	0	0	8065	579646	0	0
2024-08-27 11:10:47			0	37049	0	0	0	28786	27380	158330	26878	1074960	46807	110698	0	0	8064	580128	0	0
2024-08-27 11:11:47			0	37060	0	0	0	28792	27370	158354	27159	1074951	46796	110700	0	0	8065	579720	0	0
2024-08-27 11:12:47			0	37060	0	0	0	28799	27370	158346	26753	1074951	46796	110703	0	0	8065	579720	0	0
2024-08-27 11:13:47			0	37048	0	0	0	28797	27390	158234	27003	1074987	46809	110702	0	0	8064	580135	0	0
2024-08-27 11:14:47			0	37080	0	0	0	28802	27380	158346	26812	1074969	46808	110704	0	0	8066	578885	0	0
2024-08-27 11:15:47			0	37081	0	0	0	28805	27390	158174	27052	1075014	46798	110705	0	0	8066	578811	0	0
2024-08-27 11:16:47			0	37077	0	0	0	28807	27390	158222	27053	1075014	46809	110706	0	0	8065	578972	0	0
2024-08-27 11:17:47			0	37064	0	0	0	28802	27390	158274	27027	1075041	46798	110704	0	0	8065	579493	0	0
2024-08-27 11:18:47			0	37086	0	0	0	28789	27390	158270	26715	1074987	46798	110699	0	0	8066	578611	0	0
2024-08-27 11:19:47			0	37105	0	0	0	28802	27400	158278	27199	1075032	46810	110704	0	0	8067	577817	0	0
2024-08-27 11:20:47			0	37102	0	0	0	28805	27390	158150	26896	1075041	46809	110705	0	0	8067	577970	0	0
2024-08-27 11:21:47			0	37108	0	0	0	28805	27400	158142	26974	1075032	46798	110705	0	0	8067	577697	0	0
2024-08-27 11:22:47			0	37108	0	0	0	28815	27400	158134	27268	1075050	46787	110709	0	0	8067	577697	0	0
2024-08-27 11:23:47			0	37091	0	0	0	28820	27400	158074	26894	1075059	46810	110711	0	0	8066	578377	0	0
2024-08-27 11:24:47			0	37110	0	0	0	28820	27410	158170	27109	1075095	46811	110711	0	0	8067	577583	0	0
2024-08-27 11:25:47			0	37117	0	0	0	28820	27410	158106	26925	1075104	46800	110711	0	0	8068	577303	0	0
2024-08-27 11:26:47			0	37103	0	0	0	28828	27410	158146	27173	1075104	46800	110714	0	0	8067	577864	0	0
2024-08-27 11:27:47			0	37112	0	0	0	28833	27410	158090	26968	1075095	46778	110716	0	0	8067	577503	0	0
2024-08-27 11:28:47			0	37134	0	0	0	28844	27420	158154	26868	1075149	46801	110720	0	0	8068	576591	0	0
2024-08-27 11:29:47			0	37119	0	0	0	28854	27410	157950	26790	1075131	46800	110724	0	0	8067	577223	0	0
2024-08-27 11:30:47			0	37135	0	0	0	28854	27420	157962	27118	1075203	46812	110724	0	0	8068	576551	0	0
2024-08-27 11:31:47			0	37125	0	0	0	28841	27430	157950	27039	1075221	46814	110719	0	0	8068	576917	0	0
2024-08-27 11:32:47			0	37135	0	0	0	28849	27420	157882	27241	1075230	46812	110722	0	0	8068	576551	0	0
2024-08-27 11:33:47			0	37142	0	0	0	28851	27420	157938	26930	1075176	46812	110723	0	0	8069	576271	0	0
2024-08-27 11:34:47			0	37149	0	0	0	28867	27430	157974	26720	1075248	46803	110729	0	0	8069	575958	0	0
2024-08-27 11:35:47			0	37148	0	0	0	28875	27430	157890	26970	1075275	46814	110732	0	0	8069	575998	0	0
2024-08-27 11:36:47			0	37166	0	0	0	28875	27440	157946	27255	1075320	46803	110732	0	0	8070	575246	0	0
2024-08-27 11:37:47			0	37160	0	0	0	28877	27450	157894	27171	1075311	46816	110733	0	0	8069	575453	0	0
2024-08-27 11:38:47			0	37152	0	0	0	28885	27450	157910	27402	1075356	46804	110736	0	0	8069	575772	0	0
2024-08-27 11:39:47			0	37184	0	0	0	28877	27460	157890	27150	1075401	46805	110733	0	0	8071	574462	0	0
2024-08-27 11:40:47			0	37174	0	0	0	28880	27460	157878	27105	1075401	46816	110734	0	0	8070	574861	0	0
2024-08-27 11:41:47			0	37175	0	0	0	28883	27450	157750	27079	1075392	46816	110735	0	0	8070	574854	0	0
2024-08-27 11:42:47			0	37190	0	0	0	28877	27460	157878	27020	1075383	46805	110733	0	0	8071	574223	0	0
2024-08-27 11:43:47			0	37179	0	0	0	28883	27470	157786	26996	1075446	46817	110735	0	0	8071	574629	0	0
2024-08-27 11:44:47			0	37185	0	0	0	28890	27470	157726	26835	1075446	46806	110738	0	0	8071	574389	0	0
2024-08-27 11:45:47			0	37182	0	0	0	28888	27480	157742	27279	1075383	46807	110737	0	0	8071	574476	0	0
2024-08-27 11:46:47			0	37211	0	0	0	28883	27460	157778	26920	1075410	46816	110735	0	0	8072	573386	0	0
2024-08-27 11:47:47			0	37219	0	0	0	28890	27470	157594	27164	1075428	46785	110738	0	0	8073	573035	0	0
2024-08-27 11:48:47			0	37209	0	0	0	28922	27470	157710	26987	1075526	46828	110750	0	0	8072	573433	0	0
2024-08-27 11:49:47			0	37212	0	0	0	28940	27480	157702	27092	1075518	46807	110757	0	0	8072	573281	0	0
2024-08-27 11:50:47			0	37221	0	0	0	28929	27480	157626	27492	1075580	46830	110753	0	0	8072	572922	0	0
2024-08-27 11:51:47			0	37216	0	0	0	28932	27490	157634	26788	1075616	46819	110754	0	0	8072	573089	0	0
2024-08-27 11:52:47			0	37227	0	0	0	28942	27500	157662	26875	1075635	46842	110758	0	0	8072	572618	0	0
2024-08-27 11:53:47			0	37228	0	0	0	28953	27510	157594	27012	1075679	46832	110762	0	0	8072	572545	0	0
2024-08-27 11:54:47			0	37242	0	0	0	28940	27500	157586	27258	1075661	46820	110757	0	0	8073	572021	0	0
2024-08-27 11:55:47			0	37248	0	0	0	28953	27510	157554	27296	1075662	46822	110762	0	0	8074	571750	0	0
2024-08-27 11:56:47			0	37252	0	0	0	28953	27530	157506	27183	1075734	46800	110762	0	0	8074	571525	0	0
2024-08-27 11:57:47			0	37243	0	0	0	28971	27530	157578	27163	1075814	46823	110769	0	0	8073	571883	0	0
2024-08-27 11:58:47			0	37245	0	0	0	28979	27520	157498	27173	1075751	46833	110772	0	0	8073	571836	0	0
2024-08-27 11:59:47			0	37243	0	0	0	28976	27530	157446	27086	1075823	46834	110771	0	0	8073	571883	0	0
2024-08-27 12:00:47			0	37258	0	0	0	28971	27530	157554	27220	1075796	46824	110769	0	0	8074	571287	0	0
2024-08-27 12:01:47			0	37271	0	0	0	28981	27550	157338	27092	1075797	46825	110773	0	0	8075	570705	0	0
2024-08-27 12:02:47			0	37259	0	0	0	28963	27540	157354	27391	1075815	46814	110766	0	0	8074	571214	0	0
2024-08-27 12:03:47			0	37269	0	0	0	28979	27550	157302	26989	1075878	46825	110772	0	0	8075	570784	0	0
2024-08-27 12:04:47			0	37258	0	0	0	28981	27550	157274	26807	1075878	46825	110773	0	0	8074	571221	0	0
2024-08-27 12:05:47			0	37279	0	0	0	28976	27560	157306	27317	1075896	46815	110771	0	0	8075	570355	0	0
2024-08-27 12:06:47			0	37284	0	0	0	28992	27560	157290	27277	1075896	46826	110777	0	0	8075	570156	0	0
2024-08-27 12:07:47			0	37298	0	0	0	28992	27550	157234	27535	1075959	46814	110777	0	0	8076	569634	0	0
2024-08-27 12:08:47			0	37313	0	0	0	28979	27550	157070	27124	1075914	46826	110772	0	0	8077	569040	0	0
2024-08-27 12:09:47			0	37333	0	0	0	29007	27560	157051	26967	1075923	46836	110783	0	0	8078	568215	0	0
2024-08-27 12:10:47			0	37333	0	0	0	29015	27570	156999	27135	1076058	46828	110786	0	0	8078	568182	0	0
2024-08-27 12:11:47			0	37351	0	0	0	29023	27570	156891	27403	1076049	46827	110789	0	0	8079	567470	0	0
2024-08-27 12:12:47			0	37363	0	0	0	29033	27570	156831	27034	1076058	46828	110793	0	0	8079	566996	0	0
2024-08-27 12:13:47			0	37367	0	0	0	29036	27590	156927	27206	1076112	46829	110794	0	0	8080	566773	0	0
2024-08-27 12:14:47			0	37356	0	0	0	29038	27590	156847	27168	1076139	46829	110795	0	0	8079	567207	0	0
2024-08-27 12:15:47			0	37359	0	0	0	29044	27590	156871	27081	1076139	46829	110797	0	0	8079	567089	0	0
2024-08-27 12:16:47			0	37374	0	0	0	29044	27590	156787	26996	1076148	46830	110797	0	0	8080	566496	0	0
2024-08-27 12:17:47			0	37384	0	0	0	29038	27600	156775	27239	1076246	46820	110795	0	0	8081	566069	0	0
2024-08-27 12:18:47			0	37386	0	0	0	29031	27610	156775	27060	1076175	46831	110792	0	0	8081	565957	0	0
2024-08-27 12:19:47			0	37398	0	0	0	29025	27600	156703	27168	1076139	46808	110790	0	0	8082	565517	0	0
2024-08-27 12:20:47			0	37410	0	0	0	29025	27610	156595	26797	1076202	46808	110790	0	0	8082	565011	0	0
2024-08-27 12:21:47			0	37422	0	0	0	29031	27610	156735	27121	1076175	46820	110792	0	0	8083	564538	0	0
2024-08-27 12:22:47			0	37403	0	0	0	29033	27620	156671	27274	1076220	46822	110793	0	0	8082	565254	0	0
2024-08-27 12:23:47			0	37431	0	0	0	29023	27610	156635	27346	1076184	46821	110789	0	0	8084	564183	0	0
2024-08-27 12:24:47			0	37443	0	0	0	29033	27610	156503	27161	1076238	46821	110793	0	0	8084	563711	0	0
2024-08-27 12:25:47			0	37432	0	0	0	29025	27610	156599	27322	1076265	46842	110790	0	0	8084	564144	0	0
2024-08-27 12:26:47			0	37420	0	0	0	29036	27620	156447	27275	1076193	46833	110794	0	0	8083	564584	0	0
2024-08-27 12:27:47			0	37451	0	0	0	29059	27620	156523	27336	1076274	46855	110803	0	0	8084	563363	0	0
2024-08-27 12:28:47			0	37429	0	0	0	29046	27620	156539	27272	1076274	46833	110798	0	0	8083	564229	0	0
2024-08-27 12:29:47			0	37442	0	0	0	29051	27630	156531	27026	1076346	46845	110800	0	0	8084	563685	0	0
2024-08-27 12:30:47			0	37454	0	0	0	29070	27620	156575	27400	1076363	46822	110807	0	0	8084	563245	0	0
2024-08-27 12:31:47			0	37435	0	0	0	29059	27650	156495	27152	1076355	46835	110803	0	0	8083	563896	0	0
2024-08-27 12:32:47			0	37434	0	0	0	29077	27650	156559	27235	1076409	46835	110810	0	0	8083	563935	0	0
2024-08-27 12:33:47			0	37430	0	0	0	29090	27640	156511	27097	1076400	46834	110815	0	0	8082	564125	0	0
2024-08-27 12:34:47			0	37438	0	0	0	29093	27650	156587	27319	1076490	46846	110816	0	0	8083	563778	0	0
2024-08-27 12:35:47			0	37448	0	0	0	29072	27660	156479	27201	1076437	46837	110808	0	0	8084	563352	0	0
2024-08-27 12:36:47			0	37449	0	0	0	29057	27670	156483	26996	1076499	46827	110802	0	0	8084	563280	0	0
2024-08-27 12:37:47			0	37454	0	0	0	29067	27660	156431	26850	1076481	46826	110806	0	0	8084	563116	0	0
2024-08-27 12:38:47			0	37447	0	0	0	29085	27670	156407	26928	1076446	46827	110813	0	0	8084	563359	0	0
2024-08-27 12:39:47			0	37473	0	0	0	29103	27670	156359	27242	1076535	46837	110820	0	0	8085	562336	0	0
2024-08-27 12:40:47			0	37463	0	0	0	29088	27660	156383	26942	1076571	46827	110814	0	0	8085	562762	0	0
2024-08-27 12:41:47			0	37463	0	0	0	29093	27670	156427	26779	1076473	46837	110816	0	0	8085	562729	0	0
2024-08-27 12:42:47			0	37475	0	0	0	29083	27670	156387	27010	1076562	46837	110812	0	0	8085	562258	0	0
2024-08-27 12:43:47			0	37490	0	0	0	29067	27670	156331	27050	1076616	46827	110806	0	0	8087	561668	0	0
2024-08-27 12:44:47			0	37472	0	0	0	29070	27680	156223	26944	1076464	46816	110807	0	0	8085	562343	0	0
2024-08-27 12:45:47			0	37506	0	0	0	29051	27680	156251	26875	1076554	46839	110800	0	0	8088	561008	0	0
2024-08-27 12:46:47			0	37488	0	0	0	29062	27680	156223	26863	1076545	46838	110804	0	0	8087	561715	0	0
2024-08-27 12:47:47			0	37485	0	0	0	29070	27670	156231	26970	1076562	46827	110807	0	0	8086	561865	0	0
2024-08-27 12:48:47			0	37497	0	0	0	29070	27670	156375	27112	1076589	46837	110807	0	0	8087	561394	0	0
2024-08-27 12:49:47			0	37506	0	0	0	29080	27680	156323	27005	1076580	46829	110811	0	0	8087	561008	0	0
2024-08-27 12:50:47			0	37500	0	0	0	29080	27680	156307	27012	1076634	46829	110811	0	0	8087	561244	0	0
2024-08-27 12:51:47			0	37504	0	0	0	29085	27690	156391	27149	1076599	46829	110813	0	0	8087	561054	0	0
2024-08-27 12:52:47			0	37514	0	0	0	29093	27690	156275	27306	1076572	46829	110816	0	0	8088	560662	0	0
2024-08-27 12:53:47			0	37512	0	0	0	29137	27700	156199	27230	1076661	46830	110833	0	0	8087	560708	0	0
2024-08-27 12:54:47			0	37507	0	0	0	29171	27700	156175	27102	1076778	46841	110846	0	0	8086	560904	0	0
2024-08-27 12:55:47			0	37490	0	0	0	29197	27700	156251	27109	1076832	46864	110856	0	0	8084	561571	0	0
2024-08-27 12:56:47			0	37518	0	0	0	29205	27720	156263	27369	1076922	46855	110859	0	0	8086	560408	0	0
2024-08-27 12:57:47			0	37492	0	0	0	29199	27720	156159	27071	1076949	46855	110857	0	0	8085	561428	0	0
2024-08-27 12:58:47			0	37522	0	0	0	29197	27730	156027	26868	1076994	46844	110856	0	0	8086	560219	0	0
2024-08-27 12:59:47			0	37533	0	0	0	29212	27740	156083	27232	1077057	46844	110862	0	0	8087	559756	0	0
2024-08-27 13:00:47			0	37542	0	0	0	29205	27750	156043	27277	1077048	46835	110859	0	0	8088	559371	0	0
2024-08-27 13:01:47			0	37538	0	0	0	29199	27760	155967	27059	1077147	46846	110857	0	0	8088	559496	0	0
2024-08-27 13:02:47			0	37564	0	0	0	29186	27760	155899	27403	1077075	46847	110852	0	0	8089	558478	0	0
2024-08-27 13:03:47			0	37561	0	0	0	29210	27770	155939	27007	1077058	46860	110861	0	0	8089	558563	0	0
2024-08-27 13:04:47			0	37589	0	0	0	29192	27770	155859	27116	1077093	46837	110854	0	0	8091	557469	0	0
2024-08-27 13:05:47			0	37587	0	0	0	29163	27770	155831	26854	1077120	46837	110843	0	0	8091	557547	0	0
2024-08-27 13:06:47			0	37615	0	0	0	29166	27770	155763	26835	1077031	46826	110844	0	0	8093	556454	0	0
2024-08-27 13:07:47			0	37594	0	0	0	29192	27780	155799	27196	1077103	46837	110854	0	0	8091	557241	0	0
2024-08-27 13:08:47			0	37592	0	0	0	29210	27780	155791	27027	1077130	46837	110861	0	0	8091	557319	0	0
2024-08-27 13:09:47			0	37612	0	0	0	29210	27780	155635	27166	1077193	46849	110861	0	0	8092	556539	0	0
2024-08-27 13:10:47			0	37596	0	0	0	29181	27780	155683	27144	1077210	46848	110850	0	0	8091	557163	0	0
2024-08-27 13:11:47			0	37618	0	0	0	29171	27780	155587	26783	1077130	46860	110846	0	0	8093	556304	0	0
2024-08-27 13:12:47			0	37624	0	0	0	29186	27780	155643	27138	1077139	46827	110852	0	0	8093	556070	0	0
2024-08-27 13:13:47			0	37632	0	0	0	29202	27790	155567	27213	1077148	46850	110858	0	0	8093	555726	0	0
2024-08-27 13:14:47			0	37619	0	0	0	29220	27790	155523	26909	1077157	46851	110865	0	0	8092	556233	0	0
2024-08-27 13:15:47			0	37627	0	0	0	29238	27790	155543	26937	1077310	46839	110872	0	0	8092	555921	0	0
2024-08-27 13:16:47			0	37639	0	0	0	29241	27800	155535	27248	1077301	46863	110873	0	0	8093	555422	0	0
2024-08-27 13:17:47			0	37623	0	0	0	29264	27800	155603	27100	1077301	46851	110882	0	0	8092	556045	0	0
2024-08-27 13:18:47			0	37623	0	0	0	29249	27820	155631	27052	1077382	46853	110876	0	0	8092	555981	0	0
2024-08-27 13:19:47			0	37630	0	0	0	29225	27830	155515	26807	1077319	46865	110867	0	0	8093	555676	0	0
2024-08-27 13:20:47			0	37639	0	0	0	29197	27830	155507	27364	1077319	46831	110856	0	0	8094	555326	0	0
2024-08-27 13:21:47			0	37641	0	0	0	29186	27830	155483	27093	1077355	46843	110852	0	0	8094	555248	0	0
2024-08-27 13:22:47			0	37662	0	0	0	29176	27820	155483	26830	1077247	46842	110848	0	0	8095	554462	0	0
2024-08-27 13:23:47			0	37668	0	0	0	29176	27820	155395	27046	1077247	46831	110848	0	0	8096	554228	0	0
2024-08-27 13:24:47			0	37689	0	0	0	29220	27820	155435	27189	1077220	46831	110865	0	0	8096	553411	0	0
2024-08-27 13:25:47			0	37671	0	0	0	29197	27820	155463	26920	1077310	46842	110856	0	0	8096	554111	0	0
2024-08-27 13:26:47			0	37666	0	0	0	29192	27820	155375	27183	1077256	46831	110854	0	0	8095	554306	0	0
2024-08-27 13:27:47			0	37677	0	0	0	29192	27810	155351	27242	1077211	46841	110854	0	0	8096	553910	0	0
2024-08-27 13:28:47			0	37678	0	0	0	29186	27810	155323	27227	1077346	46841	110852	0	0	8096	553871	0	0
2024-08-27 13:29:47			0	37671	0	0	0	29189	27820	155363	27199	1077274	46853	110853	0	0	8096	554111	0	0
2024-08-27 13:30:47			0	37669	0	0	0	29181	27810	155319	27412	1077283	46840	110850	0	0	8096	554221	0	0
2024-08-27 13:31:47			0	37667	0	0	0	29202	27810	155339	27334	1077292	46830	110858	0	0	8095	554299	0	0
2024-08-27 13:32:47			0	37692	0	0	0	29215	27810	155375	27291	1077292	46852	110863	0	0	8096	553326	0	0
2024-08-27 13:33:47			0	37689	0	0	0	29202	27820	155271	27140	1077337	46842	110858	0	0	8096	553411	0	0
2024-08-27 13:34:47			0	37697	0	0	0	29202	27820	155275	27123	1077310	46842	110858	0	0	8097	553100	0	0
2024-08-27 13:35:47			0	37704	0	0	0	29194	27820	155275	27137	1077274	46831	110855	0	0	8097	552828	0	0
2024-08-27 13:36:47			0	37710	0	0	0	29205	27820	155167	26908	1077229	46831	110859	0	0	8098	552595	0	0
2024-08-27 13:37:47			0	37714	0	0	0	29192	27830	155263	27076	1077265	46831	110854	0	0	8098	552408	0	0
2024-08-27 13:38:47			0	37692	0	0	0	29197	27830	155175	26975	1077301	46843	110856	0	0	8097	553263	0	0
2024-08-27 13:39:47			0	37726	0	0	0	29202	27820	155195	27003	1077256	46820	110858	0	0	8099	551974	0	0
2024-08-27 13:40:47			0	37736	0	0	0	29220	27820	155187	27253	1077310	46831	110865	0	0	8099	551586	0	0
2024-08-27 13:41:47			0	37705	0	0	0	29259	27820	155199	27360	1077355	46842	110880	0	0	8096	552789	0	0
2024-08-27 13:42:47			0	37729	0	0	0	29254	27830	155199	27121	1077436	46854	110878	0	0	8098	551826	0	0
2024-08-27 13:43:47			0	37724	0	0	0	29254	27830	155119	27164	1077454	46842	110878	0	0	8098	552020	0	0
2024-08-27 13:44:47			0	37738	0	0	0	29249	27840	155199	27315	1077472	46867	110876	0	0	8099	551445	0	0
2024-08-27 13:45:47			0	37754	0	0	0	29249	27840	155099	27062	1077454	46844	110876	0	0	8100	550824	0	0
2024-08-27 13:46:47			0	37764	0	0	0	29233	27850	155135	27183	1077553	46856	110870	0	0	8100	550405	0	0
2024-08-27 13:47:47			0	37748	0	0	0	29228	27850	155031	27279	1077553	46845	110868	0	0	8100	551025	0	0
2024-08-27 13:48:47			0	37773	0	0	0	29246	27850	155067	26840	1077526	46856	110875	0	0	8101	550056	0	0
2024-08-27 13:49:47			0	37789	0	0	0	29225	27850	155107	26916	1077499	46845	110867	0	0	8102	549437	0	0
2024-08-27 13:50:47			0	37760	0	0	0	29215	27860	155007	27128	1077508	46846	110863	0	0	8101	550528	0	0
2024-08-27 13:51:47			0	37786	0	0	0	29225	27850	155071	27208	1077418	46856	110867	0	0	8102	549553	0	0
2024-08-27 13:52:47			0	37773	0	0	0	29249	27860	154887	27078	1077508	46824	110876	0	0	8101	550025	0	0
2024-08-27 13:53:47			0	37783	0	0	0	29259	27840	155019	27480	1077445	46855	110880	0	0	8101	549701	0	0
2024-08-27 13:54:47			0	37762	0	0	0	29303	27860	155107	27183	1077544	46847	110897	0	0	8099	550451	0	0
2024-08-27 13:55:47			0	37783	0	0	0	29293	27860	154999	27263	1077616	46846	110893	0	0	8101	549638	0	0
2024-08-27 13:56:47			0	37780	0	0	0	29288	27870	155031	27305	1077580	46836	110891	0	0	8101	549722	0	0
2024-08-27 13:57:47			0	37787	0	0	0	29267	27870	154943	27138	1077616	46847	110883	0	0	8101	549451	0	0
2024-08-27 13:58:47			0	37784	0	0	0	29267	27860	155011	27046	1077571	46858	110883	0	0	8101	549599	0	0
2024-08-27 13:59:47			0	37782	0	0	0	29306	27870	154991	26795	1077607	46858	110898	0	0	8100	549645	0	0
2024-08-27 14:00:47			0	37788	0	0	0	29337	27880	155003	26989	1077679	46859	110910	0	0	8100	549381	0	0
2024-08-27 14:01:47			0	37794	0	0	0	29335	27880	154975	27119	1077796	46872	110909	0	0	8101	549149	0	0
2024-08-27 14:02:47			0	37790	0	0	0	29298	27890	154907	27346	1077733	46872	110895	0	0	8101	549272	0	0
2024-08-27 14:03:47			0	37796	0	0	0	29293	27900	154951	27067	1077742	46850	110893	0	0	8102	549008	0	0
2024-08-27 14:04:47			0	37796	0	0	0	29288	27890	154739	27178	1077706	46827	110891	0	0	8102	549039	0	0
2024-08-27 14:05:47			0	37807	0	0	0	29296	27890	154771	27175	1077733	46860	110894	0	0	8102	548614	0	0
2024-08-27 14:06:47			0	37806	0	0	0	29306	27890	154875	27229	1077787	46837	110898	0	0	8102	548653	0	0
2024-08-27 14:07:47			0	37813	0	0	0	29290	27890	154791	26811	1077733	46837	110892	0	0	8102	548382	0	0
2024-08-27 14:08:47			0	37826	0	0	0	29288	27890	154827	27183	1077733	46837	110891	0	0	8103	547880	0	0
2024-08-27 14:09:47			0	37836	0	0	0	29298	27890	154703	27507	1077706	46837	110895	0	0	8104	547494	0	0
2024-08-27 14:10:47			0	37832	0	0	0	29290	27890	154679	27041	1077706	46849	110892	0	0	8104	547648	0	0
2024-08-27 14:11:47			0	37841	0	0	0	29298	27890	154779	27031	1077706	46849	110895	0	0	8104	547301	0	0
2024-08-27 14:12:47			0	37844	0	0	0	29293	27890	154619	27147	1077760	46837	110893	0	0	8104	547185	0	0
2024-08-27 14:13:47			0	37830	0	0	0	29303	27900	154583	27140	1077742	46861	110897	0	0	8103	547694	0	0
2024-08-27 14:14:47			0	37874	0	0	0	29322	27900	154587	27327	1077742	46850	110904	0	0	8106	545996	0	0
2024-08-27 14:15:47			0	37854	0	0	0	29332	27910	154595	26928	1077788	46851	110908	0	0	8104	546736	0	0
2024-08-27 14:16:47			0	37864	0	0	0	29329	27900	154563	27105	1077778	46862	110907	0	0	8105	546382	0	0
2024-08-27 14:17:47			0	37883	0	0	0	29345	27900	154631	26854	1077805	46840	110913	0	0	8106	545650	0	0
2024-08-27 14:18:47			0	37878	0	0	0	29350	27910	154583	27031	1077868	46862	110915	0	0	8105	545811	0	0
2024-08-27 14:19:47			0	37871	0	0	0	29353	27920	154563	26913	1077886	46875	110916	0	0	8105	546049	0	0
2024-08-27 14:20:47			0	37889	0	0	0	29358	27920	154411	27107	1077940	46863	110918	0	0	8106	545356	0	0
2024-08-27 14:21:47			0	37882	0	0	0	29368	27930	154423	27187	1077994	46865	110922	0	0	8105	545594	0	0
2024-08-27 14:22:47			0	37909	0	0	0	29386	27930	154507	27147	1077985	46854	110929	0	0	8107	544554	0	0
2024-08-27 14:23:47			0	37904	0	0	0	29399	27940	154447	27253	1078030	46854	110934	0	0	8106	544716	0	0
2024-08-27 14:24:47			0	37914	0	0	0	29397	27940	154391	27135	1078093	46877	110933	0	0	8107	544331	0	0
2024-08-27 14:25:47			0	37899	0	0	0	29392	27950	154383	27182	1078129	46856	110931	0	0	8106	544876	0	0
2024-08-27 14:26:47			0	37901	0	0	0	29415	27960	154435	26994	1078174	46856	110940	0	0	8106	544768	0	0
2024-08-27 14:27:47			0	37909	0	0	0	29433	27960	154363	27374	1078184	46879	110947	0	0	8106	544460	0	0
2024-08-27 14:28:47			0	37914	0	0	0	29449	27990	154263	27189	1078310	46893	110953	0	0	8106	544174	0	0
2024-08-27 14:29:47			0	37925	0	0	0	29423	27990	154307	26920	1078337	46871	110943	0	0	8107	543751	0	0
2024-08-27 14:30:47			0	37926	0	0	0	29433	27990	154323	26986	1078346	46860	110947	0	0	8107	543713	0	0
2024-08-27 14:31:47			0	37923	0	0	0	29441	27990	154303	26984	1078400	46860	110950	0	0	8107	543828	0	0
2024-08-27 14:32:47			0	37946	0	0	0	29431	28000	154291	27343	1078337	46883	110946	0	0	8108	542913	0	0
2024-08-27 14:33:47			0	37938	0	0	0	29431	28000	154235	27235	1078355	46861	110946	0	0	8108	543220	0	0
2024-08-27 14:34:47			0	37950	0	0	0	29431	28000	154143	26849	1078364	46861	110946	0	0	8109	542759	0	0
2024-08-27 14:35:47			0	37965	0	0	0	29418	28000	154083	27152	1078337	46850	110941	0	0	8110	542184	0	0
2024-08-27 14:36:47			0	37983	0	0	0	29420	28000	153987	27057	1078382	46872	110942	0	0	8111	541493	0	0
2024-08-27 14:37:47			0	37984	0	0	0	29418	28010	153987	26845	1078373	46862	110941	0	0	8111	541424	0	0
2024-08-27 14:38:47			0	37992	0	0	0	29428	28010	154043	27076	1078382	46852	110945	0	0	8111	541117	0	0
2024-08-27 14:39:47			0	37996	0	0	0	29451	28010	154019	27112	1078409	46863	110954	0	0	8111	540964	0	0
2024-08-27 14:40:47			0	38007	0	0	0	29449	28010	153943	26984	1078436	46852	110953	0	0	8112	540543	0	0
2024-08-27 14:41:47			0	38013	0	0	0	29467	28020	153927	27150	1078445	46874	110960	0	0	8112	540282	0	0
2024-08-27 14:42:47			0	38015	0	0	0	29475	28020	154003	27305	1078508	46874	110963	0	0	8112	540206	0	0
2024-08-27 14:43:47			0	38024	0	0	0	29477	28030	153959	26981	1078526	46887	110964	0	0	8112	539830	0	0
2024-08-27 14:44:47			0	38036	0	0	0	29490	28030	153804	27261	1078544	46875	110969	0	0	8113	539371	0	0
2024-08-27 14:45:47			0	38019	0	0	0	29501	28040	153831	26828	1078616	46875	110973	0	0	8111	539990	0	0
2024-08-27 14:46:47			0	38046	0	0	0	29498	28050	153792	26998	1078643	46889	110972	0	0	8113	538927	0	0
2024-08-27 14:47:47			0	38046	0	0	0	29514	28050	153676	27235	1078697	46867	110978	0	0	8113	538927	0	0
2024-08-27 14:48:47			0	38042	0	0	0	29501	28070	153752	26830	1078778	46890	110973	0	0	8113	539017	0	0
2024-08-27 14:49:47			0	38077	0	0	0	29498	28080	153632	26840	1078752	46880	110972	0	0	8115	537650	0	0
2024-08-27 14:50:47			0	38077	0	0	0	29488	28070	153620	27036	1078707	46869	110968	0	0	8115	537681	0	0
2024-08-27 14:51:47			0	38090	0	0	0	29457	28070	153580	26873	1078760	46869	110956	0	0	8116	537185	0	0
2024-08-27 14:52:47			0	38096	0	0	0	29446	28080	153564	26996	1078689	46869	110952	0	0	8117	536925	0	0
2024-08-27 14:53:47			0	38102	0	0	0	29418	28070	153424	27261	1078707	46869	110941	0	0	8118	536727	0	0
2024-08-27 14:54:47			0	38129	0	0	0	29384	28070	153372	26876	1078509	46857	110928	0	0	8120	535699	0	0
2024-08-27 14:55:47			0	38117	0	0	0	29374	28060	153272	27261	1078473	46857	110924	0	0	8119	536187	0	0
2024-08-27 14:56:47			0	38165	0	0	0	29358	28040	153292	26856	1078464	46854	110918	0	0	8122	534422	0	0
2024-08-27 14:57:47			0	38156	0	0	0	29335	28030	153320	27012	1078355	46819	110909	0	0	8122	534795	0	0
2024-08-27 14:58:47			0	38164	0	0	0	29337	28020	153236	27045	1078202	46818	110910	0	0	8123	534522	0	0
2024-08-27 14:59:47			0	38148	0	0	0	29332	28020	153344	27012	1078229	46840	110908	0	0	8122	535131	0	0
2024-08-27 15:00:47			0	38155	0	0	0	29337	28000	153296	26722	1078148	46838	110910	0	0	8122	534926	0	0
2024-08-27 15:01:47			0	38138	0	0	0	29350	27990	153372	27291	1078202	46849	110915	0	0	8121	535604	0	0
2024-08-27 15:02:47			0	38132	0	0	0	29358	27990	153400	27149	1078157	46837	110918	0	0	8120	535832	0	0
2024-08-27 15:03:47			0	38130	0	0	0	29381	27990	153408	26795	1078202	46860	110927	0	0	8120	535908	0	0
2024-08-27 15:04:47			0	38131	0	0	0	29415	28000	153396	27102	1078301	46872	110940	0	0	8119	535839	0	0
2024-08-27 15:05:47			0	38128	0	0	0	29428	27990	153424	26916	1078319	46871	110945	0	0	8119	535984	0	0
2024-08-27 15:06:47			0	38118	0	0	0	29428	28000	153444	27192	1078337	46872	110945	0	0	8118	536334	0	0
2024-08-27 15:07:47			0	38126	0	0	0	29431	28010	153384	26961	1078436	46863	110946	0	0	8119	535999	0	0
2024-08-27 15:08:47			0	38114	0	0	0	29425	28010	153392	27177	1078355	46863	110944	0	0	8118	536456	0	0
2024-08-27 15:09:47			0	38110	0	0	0	29412	28010	153500	27185	1078355	46874	110939	0	0	8118	536608	0	0
2024-08-27 15:10:47			0	38131	0	0	0	29386	28010	153460	26984	1078346	46873	110929	0	0	8120	535808	0	0
2024-08-27 15:11:47			0	38116	0	0	0	29366	28010	153516	27353	1078265	46873	110921	0	0	8119	536380	0	0
2024-08-27 15:12:47			0	38128	0	0	0	29368	28010	153436	26923	1078292	46851	110922	0	0	8120	535923	0	0
2024-08-27 15:13:47			0	38114	0	0	0	29355	27990	153532	27123	1078211	46837	110917	0	0	8119	536518	0	0
2024-08-27 15:14:47			0	38105	0	0	0	29342	27990	153504	26833	1078130	46849	110912	0	0	8119	536861	0	0
2024-08-27 15:15:47			0	38098	0	0	0	29350	27990	153528	26670	1078148	46849	110915	0	0	8118	537128	0	0
2024-08-27 15:16:47			0	38130	0	0	0	29389	27990	153540	26668	1078202	46860	110930	0	0	8120	535908	0	0
2024-08-27 15:17:47			0	38097	0	0	0	29418	27980	153648	26899	1078265	46858	110941	0	0	8117	537197	0	0
2024-08-27 15:18:47			0	38084	0	0	0	29449	27990	153576	26956	1078400	46882	110953	0	0	8116	537662	0	0
2024-08-27 15:19:47			0	38092	0	0	0	29431	28000	153620	26845	1078462	46872	110946	0	0	8117	537326	0	0
2024-08-27 15:20:47			0	38081	0	0	0	29402	28010	153488	26741	1078373	46873	110935	0	0	8117	537714	0	0
2024-08-27 15:21:47			0	38111	0	0	0	29392	28020	153528	27142	1078418	46863	110931	0	0	8119	536539	0	0
2024-08-27 15:22:47			0	38121	0	0	0	29405	28010	153452	26953	1078355	46863	110936	0	0	8119	536189	0	0
2024-08-27 15:23:47			0	38129	0	0	0	29407	28010	153460	26838	1078436	46863	110937	0	0	8119	535884	0	0
2024-08-27 15:24:47			0	38125	0	0	0	29418	28010	153512	26960	1078355	46863	110941	0	0	8119	536037	0	0
2024-08-27 15:25:47			0	38127	0	0	0	29407	28010	153424	27050	1078454	46873	110937	0	0	8119	535961	0	0
2024-08-27 15:26:47			0	38123	0	0	0	29397	28000	153512	26977	1078337	46861	110933	0	0	8119	536144	0	0
2024-08-27 15:27:47			0	38113	0	0	0	29397	28010	153512	26975	1078292	46862	110933	0	0	8119	536494	0	0
2024-08-27 15:28:47			0	38106	0	0	0	29410	28010	153472	26720	1078409	46863	110938	0	0	8118	536761	0	0
2024-08-27 15:29:47			0	38104	0	0	0	29410	28000	153556	27178	1078409	46838	110938	0	0	8118	536868	0	0
2024-08-27 15:30:47			0	38093	0	0	0	29412	28010	153544	26668	1078382	46863	110939	0	0	8117	537257	0	0
2024-08-27 15:31:47			0	38099	0	0	0	29392	28010	153560	26951	1078382	46852	110931	0	0	8118	537028	0	0
2024-08-27 15:32:47			0	38099	0	0	0	29397	28010	153612	26994	1078373	46862	110933	0	0	8118	537028	0	0
2024-08-27 15:33:47			0	38111	0	0	0	29379	28010	153624	27216	1078319	46851	110926	0	0	8119	536570	0	0
2024-08-27 15:34:47			0	38113	0	0	0	29374	28010	153560	26928	1078355	46852	110924	0	0	8119	536494	0	0
2024-08-27 15:35:47			0	38109	0	0	0	29376	28000	153560	26726	1078256	46861	110925	0	0	8119	536677	0	0
2024-08-27 15:36:47			0	38088	0	0	0	29376	27990	153656	27253	1078319	46849	110925	0	0	8117	537509	0	0
2024-08-27 15:37:47			0	38092	0	0	0	29376	28000	153612	26859	1078256	46828	110925	0	0	8118	537326	0	0
2024-08-27 15:38:47			0	38098	0	0	0	29363	28000	153436	27027	1078247	46850	110920	0	0	8118	537097	0	0
2024-08-27 15:39:47			0	38092	0	0	0	29368	28000	153464	27189	1078301	46861	110922	0	0	8118	537326	0	0
2024-08-27 15:40:47			0	38105	0	0	0	29358	27990	153396	27272	1078256	46849	110918	0	0	8119	536861	0	0
2024-08-27 15:41:47			0	38104	0	0	0	29345	27980	153396	27140	1078157	46847	110913	0	0	8119	536930	0	0
2024-08-27 15:42:47			0	38103	0	0	0	29345	27990	153444	27104	1078184	46849	110913	0	0	8119	536937	0	0
2024-08-27 15:43:47			0	38107	0	0	0	29353	27990	153496	27100	1078184	46837	110916	0	0	8119	536785	0	0
2024-08-27 15:44:47			0	38088	0	0	0	29342	27980	153500	26922	1078112	46848	110912	0	0	8118	537540	0	0
2024-08-27 15:45:47			0	38077	0	0	0	29366	27960	153448	27131	1078157	46846	110921	0	0	8117	538022	0	0
2024-08-27 15:46:47			0	38073	0	0	0	29384	27980	153520	27331	1078157	46847	110928	0	0	8116	538113	0	0
2024-08-27 15:47:47			0	38086	0	0	0	29361	27980	153568	27249	1078139	46859	110919	0	0	8117	537617	0	0
2024-08-27 15:48:47			0	38078	0	0	0	29355	27980	153596	26890	1078157	46858	110917	0	0	8117	537922	0	0
2024-08-27 15:49:47			0	38083	0	0	0	29345	27980	153508	27163	1078130	46858	110913	0	0	8118	537731	0	0
2024-08-27 15:50:47			0	38080	0	0	0	29329	27980	153612	27171	1078076	46847	110907	0	0	8118	537845	0	0
2024-08-27 15:51:47			0	38084	0	0	0	29322	27970	153592	26986	1078058	46847	110904	0	0	8118	537724	0	0
2024-08-27 15:52:47			0	38073	0	0	0	29314	27960	153616	26963	1078040	46845	110901	0	0	8117	538175	0	0
2024-08-27 15:53:47			0	38083	0	0	0	29327	27960	153624	27178	1078013	46856	110906	0	0	8118	537793	0	0
2024-08-27 15:54:47			0	38058	0	0	0	29340	27950	153668	26968	1078085	46856	110911	0	0	8116	538779	0	0
2024-08-27 15:55:47			0	38023	0	0	0	29322	27950	153627	27156	1078085	46845	110904	0	0	8114	540117	0	0
2024-08-27 15:56:47			0	38043	0	0	0	29309	27950	153744	26963	1078031	46845	110899	0	0	8116	539352	0	0
2024-08-27 15:57:47			0	38024	0	0	0	29316	27960	153823	26944	1078067	46856	110902	0	0	8115	540048	0	0
2024-08-27 15:58:47			0	38032	0	0	0	29314	27950	153832	26824	1077977	46856	110901	0	0	8115	539773	0	0
2024-08-27 15:59:47			0	38011	0	0	0	29314	27950	153931	27067	1077968	46856	110901	0	0	8114	540577	0	0
2024-08-27 16:00:47			0	38010	0	0	0	29348	27950	153935	27204	1078004	46856	110914	0	0	8113	540615	0	0
2024-08-27 16:01:47			0	38016	0	0	0	29355	27950	153907	27121	1078058	46878	110917	0	0	8113	540385	0	0
2024-08-27 16:02:47			0	38005	0	0	0	29366	27950	153859	26977	1078102	46878	110921	0	0	8113	540807	0	0
2024-08-27 16:03:47			0	37995	0	0	0	29366	27950	153943	27159	1078112	46856	110921	0	0	8112	541190	0	0
2024-08-27 16:04:47			0	37996	0	0	0	29348	27960	153955	27154	1078157	46879	110914	0	0	8112	541120	0	0
2024-08-27 16:05:47			0	37979	0	0	0	29342	27970	153955	27166	1078166	46858	110912	0	0	8112	541741	0	0
2024-08-27 16:06:47			0	37963	0	0	0	29329	27960	153955	27130	1078184	46857	110907	0	0	8111	542386	0	0
2024-08-27 16:07:47			0	37982	0	0	0	29332	27960	153931	27005	1078130	46846	110908	0	0	8112	541657	0	0
2024-08-27 16:08:47			0	37980	0	0	0	29353	27960	153987	27045	1078094	46856	110916	0	0	8111	541734	0	0
2024-08-27 16:09:47			0	37976	0	0	0	29381	27970	153987	27013	1078193	46847	110927	0	0	8111	541856	0	0
2024-08-27 16:10:47			0	37973	0	0	0	29410	27960	153967	27062	1078264	46857	110938	0	0	8110	542002	0	0
2024-08-27 16:11:47			0	37976	0	0	0	29381	27990	154015	27182	1078310	46871	110927	0	0	8111	541793	0	0
2024-08-27 16:12:47			0	37986	0	0	0	29405	27990	153955	27126	1078337	46871	110936	0	0	8111	541410	0	0
2024-08-27 16:13:47			0	37971	0	0	0	29428	27980	153979	27331	1078301	46859	110945	0	0	8110	542016	0	0
2024-08-27 16:14:47			0	37973	0	0	0	29425	28000	154007	26856	1078391	46861	110944	0	0	8110	541877	0	0
2024-08-27 16:15:47			0	37970	0	0	0	29405	28000	153947	26757	1078445	46872	110936	0	0	8110	541992	0	0
2024-08-27 16:16:47			0	37983	0	0	0	29410	28000	153939	27046	1078418	46872	110938	0	0	8111	541493	0	0
2024-08-27 16:17:47			0	37977	0	0	0	29397	28010	153963	26958	1078490	46863	110933	0	0	8111	541692	0	0
2024-08-27 16:18:47			0	37987	0	0	0	29379	28020	153803	26812	1078445	46863	110926	0	0	8112	541278	0	0
2024-08-27 16:19:47			0	37979	0	0	0	29366	28000	153847	26960	1078337	46850	110921	0	0	8111	541647	0	0
2024-08-27 16:20:47			0	38013	0	0	0	29363	28000	153771	26991	1078310	46838	110920	0	0	8113	540344	0	0
2024-08-27 16:21:47			0	38015	0	0	0	29363	28010	153791	27081	1078382	46863	110920	0	0	8113	540237	0	0
2024-08-27 16:22:47			0	38017	0	0	0	29381	28010	153823	26899	1078382	46863	110927	0	0	8113	540160	0	0
2024-08-27 16:23:47			0	37994	0	0	0	29381	28010	153683	27036	1078355	46852	110927	0	0	8112	541041	0	0
2024-08-27 16:24:47			0	38033	0	0	0	29399	28010	153828	26797	1078346	46862	110934	0	0	8114	539548	0	0
2024-08-27 16:25:47			0	38026	0	0	0	29407	28010	153823	26974	1078409	46863	110937	0	0	8113	539816	0	0
2024-08-27 16:26:47			0	38001	0	0	0	29438	28020	153815	26814	1078454	46863	110949	0	0	8111	540741	0	0
2024-08-27 16:27:47			0	38012	0	0	0	29438	28020	153803	27116	1078391	46863	110949	0	0	8112	540320	0	0
2024-08-27 16:28:47			0	38004	0	0	0	29454	28030	153843	26667	1078544	46886	110955	0	0	8111	540595	0	0
2024-08-27 16:29:47			0	38017	0	0	0	29444	28030	153735	26937	1078571	46875	110951	0	0	8112	540098	0	0
2024-08-27 16:30:47			0	38003	0	0	0	29446	28030	153755	27298	1078571	46886	110952	0	0	8111	540634	0	0
2024-08-27 16:31:47			0	38008	0	0	0	29423	28040	153727	26911	1078598	46875	110943	0	0	8112	540411	0	0
2024-08-27 16:32:47			0	38037	0	0	0	29399	28040	153656	27123	1078491	46854	110934	0	0	8114	539302	0	0
2024-08-27 16:33:47			0	38028	0	0	0	29438	28040	153667	27062	1078544	46865	110949	0	0	8113	539646	0	0
2024-08-27 16:34:47			0	38027	0	0	0	29399	28040	153788	26852	1078598	46865	110934	0	0	8114	539684	0	0
2024-08-27 16:35:47			0	38039	0	0	0	29436	28050	153720	26965	1078607	46876	110948	0	0	8114	539194	0	0
2024-08-27 16:36:47			0	38032	0	0	0	29454	28050	153744	26687	1078580	46876	110955	0	0	8113	539462	0	0
2024-08-27 16:37:47			0	38034	0	0	0	29441	28050	153712	26760	1078697	46877	110950	0	0	8113	539385	0	0
2024-08-27 16:38:47			0	38036	0	0	0	29449	28050	153688	27055	1078563	46844	110953	0	0	8113	539309	0	0
2024-08-27 16:39:47			0	38037	0	0	0	29483	28050	153716	26814	1078590	46856	110966	0	0	8113	539271	0	0
2024-08-27 16:40:47			0	38035	0	0	0	29425	28050	153664	27086	1078643	46856	110944	0	0	8114	539347	0	0
2024-08-27 16:41:47			0	38021	0	0	0	29462	28050	153823	26956	1078643	46856	110958	0	0	8112	539883	0	0
2024-08-27 16:42:47			0	38047	0	0	0	29438	28060	153588	26816	1078599	46856	110949	0	0	8114	538857	0	0
2024-08-27 16:43:47			0	38059	0	0	0	29399	28060	153604	26755	1078662	46878	110934	0	0	8116	538399	0	0
2024-08-27 16:44:47			0	38053	0	0	0	29441	28060	153652	26941	1078599	46867	110950	0	0	8115	538628	0	0
2024-08-27 16:45:47			0	38036	0	0	0	29454	28060	153632	27098	1078652	46877	110955	0	0	8113	539278	0	0
2024-08-27 16:46:47			0	38056	0	0	0	29423	28070	153556	27272	1078707	46858	110943	0	0	8115	538483	0	0
2024-08-27 16:47:47			0	38052	0	0	0	29397	28060	153620	26889	1078581	46868	110933	0	0	8115	538666	0	0
2024-08-27 16:48:47			0	38074	0	0	0	29423	28060	153500	27012	1078608	46834	110943	0	0	8116	537826	0	0
2024-08-27 16:49:47			0	38080	0	0	0	29464	28070	153524	27319	1078671	46868	110959	0	0	8116	537566	0	0
2024-08-27 16:50:47			0	38094	0	0	0	29433	28060	153536	27168	1078742	46868	110947	0	0	8117	537063	0	0
2024-08-27 16:51:47			0	38093	0	0	0	29418	28060	153496	26951	1078679	46867	110941	0	0	8117	537102	0	0
2024-08-27 16:52:47			0	38086	0	0	0	29420	28070	153452	26854	1078653	46879	110942	0	0	8117	537338	0	0
2024-08-27 16:53:47			0	38103	0	0	0	29394	28060	153448	27057	1078635	46857	110932	0	0	8118	536720	0	0
2024-08-27 16:54:47			0	38095	0	0	0	29407	28060	153544	27000	1078635	46857	110937	0	0	8118	537025	0	0
2024-08-27 16:55:47			0	38102	0	0	0	29407	28060	153552	26987	1078599	46844	110937	0	0	8118	536758	0	0
2024-08-27 16:56:47			0	38094	0	0	0	29423	28060	153392	27249	1078545	46844	110943	0	0	8117	537063	0	0
2024-08-27 16:57:47			0	38095	0	0	0	29425	28050	153388	26939	1078607	46855	110944	0	0	8117	537056	0	0
2024-08-27 16:58:47			0	38081	0	0	0	29423	28060	153476	27197	1078635	46868	110943	0	0	8116	537559	0	0
2024-08-27 16:59:47			0	38102	0	0	0	29438	28060	153460	27265	1078662	46868	110949	0	0	8117	536758	0	0
2024-08-27 17:00:47			0	38094	0	0	0	29418	28050	153356	27173	1078590	46844	110941	0	0	8117	537094	0	0
2024-08-27 17:01:47			0	38098	0	0	0	29410	28050	153380	27237	1078500	46833	110938	0	0	8118	536942	0	0
2024-08-27 17:02:47			0	38108	0	0	0	29410	28060	153376	27255	1078572	46844	110938	0	0	8118	536530	0	0
2024-08-27 17:03:47			0	38084	0	0	0	29392	28050	153380	27374	1078527	46843	110931	0	0	8117	537476	0	0
2024-08-27 17:04:47			0	38114	0	0	0	29412	28050	153480	27069	1078553	46833	110939	0	0	8119	536332	0	0
2024-08-27 17:05:47			0	38120	0	0	0	29402	28030	153460	27138	1078553	46854	110935	0	0	8119	536166	0	0
2024-08-27 17:06:47			0	38086	0	0	0	29431	28040	153488	27287	1078625	46842	110946	0	0	8117	537431	0	0
2024-08-27 17:07:47			0	38111	0	0	0	29431	28040	153476	27208	1078625	46865	110946	0	0	8118	536477	0	0
2024-08-27 17:08:47			0	38081	0	0	0	29457	28050	153408	27168	1078607	46866	110956	0	0	8116	537590	0	0
2024-08-27 17:09:47			0	38077	0	0	0	29514	28050	153476	26902	1078715	46866	110978	0	0	8115	537743	0	0
2024-08-27 17:10:47			0	38088	0	0	0	29509	28060	153460	27190	1078796	46878	110976	0	0	8115	537292	0	0
2024-08-27 17:11:47			0	38077	0	0	0	29498	28070	153552	26745	1078778	46890	110972	0	0	8115	537681	0	0
2024-08-27 17:12:47			0	38094	0	0	0	29467	28080	153488	27024	1078796	46869	110960	0	0	8117	537001	0	0
2024-08-27 17:13:47			0	38090	0	0	0	29462	28080	153440	27287	1078832	46880	110958	0	0	8116	537154	0	0
2024-08-27 17:14:47			0	38101	0	0	0	29459	28070	153420	27178	1078787	46869	110957	0	0	8117	536766	0	0
2024-08-27 17:15:47			0	38114	0	0	0	29516	28080	153352	26816	1078796	46879	110979	0	0	8117	536239	0	0
2024-08-27 17:16:47			0	38112	0	0	0	29524	28090	153336	27119	1078842	46880	110982	0	0	8117	536285	0	0
2024-08-27 17:17:47			0	38106	0	0	0	29511	28110	153240	26977	1078950	46872	110977	0	0	8117	536451	0	0
2024-08-27 17:18:47			0	38110	0	0	0	29535	28100	153352	27157	1078914	46872	110986	0	0	8116	536330	0	0
2024-08-27 17:19:47			0	38116	0	0	0	29540	28100	153300	26981	1078994	46883	110988	0	0	8117	536101	0	0
2024-08-27 17:20:47			0	38117	0	0	0	29509	28120	153292	27481	1078968	46883	110976	0	0	8117	536001	0	0
2024-08-27 17:21:47			0	38141	0	0	0	29477	28120	153264	27187	1078923	46851	110964	0	0	8119	535088	0	0
2024-08-27 17:22:47			0	38133	0	0	0	29483	28110	153244	27275	1078905	46862	110966	0	0	8119	535423	0	0
2024-08-27 17:23:47			0	38155	0	0	0	29498	28110	153248	27157	1078878	46850	110972	0	0	8120	534587	0	0
2024-08-27 17:24:47			0	38159	0	0	0	29477	28120	153196	26750	1078869	46863	110964	0	0	8120	534404	0	0
2024-08-27 17:25:47			0	38158	0	0	0	29451	28110	153108	26857	1078869	46861	110954	0	0	8121	534472	0	0
2024-08-27 17:26:47			0	38191	0	0	0	29441	28100	153020	26974	1078779	46849	110950	0	0	8123	533250	0	0
2024-08-27 17:27:47			0	38207	0	0	0	29470	28090	152912	27043	1078878	46848	110961	0	0	8123	532674	0	0
2024-08-27 17:28:47			0	38229	0	0	0	29506	28100	152904	26894	1078914	46861	110975	0	0	8124	531809	0	0
2024-08-27 17:29:47			0	38224	0	0	0	29542	28090	152876	26809	1078868	46870	110989	0	0	8123	532029	0	0
2024-08-27 17:30:47			0	38220	0	0	0	29524	28100	152960	27105	1078914	46872	110982	0	0	8123	532150	0	0
2024-08-27 17:31:47			0	38221	0	0	0	29485	28090	152908	26828	1078878	46882	110967	0	0	8124	532143	0	0
2024-08-27 17:32:47			0	38233	0	0	0	29464	28100	152852	27053	1078860	46872	110959	0	0	8125	531657	0	0
2024-08-27 17:33:47			0	38226	0	0	0	29477	28090	152896	27270	1078878	46860	110964	0	0	8124	531953	0	0
2024-08-27 17:34:47			0	38252	0	0	0	29480	28090	152828	26922	1078878	46860	110965	0	0	8125	530968	0	0
2024-08-27 17:35:47			0	38254	0	0	0	29509	28100	152848	26486	1078860	46861	110976	0	0	8125	530862	0	0
2024-08-27 17:36:47			0	38236	0	0	0	29511	28110	152776	26991	1078842	46872	110977	0	0	8124	531513	0	0
2024-08-27 17:37:47			0	38254	0	0	0	29532	28100	152864	26930	1078941	46861	110985	0	0	8125	530862	0	0
2024-08-27 17:38:47			0	38252	0	0	0	29548	28110	152808	27229	1078959	46883	110991	0	0	8124	530907	0	0
2024-08-27 17:39:47			0	38250	0	0	0	29548	28110	152988	27052	1078950	46872	110991	0	0	8124	530983	0	0
2024-08-27 17:40:47			0	38256	0	0	0	29537	28110	152804	26932	1078959	46873	110987	0	0	8125	530756	0	0
2024-08-27 17:41:47			0	38255	0	0	0	29519	28120	152660	27178	1079031	46874	110980	0	0	8125	530763	0	0
2024-08-27 17:42:47			0	38283	0	0	0	29516	28130	152620	26670	1079076	46875	110979	0	0	8127	529673	0	0
2024-08-27 17:43:47			0	38301	0	0	0	29519	28130	152580	27135	1079013	46884	110980	0	0	8128	528993	0	0
2024-08-27 17:44:47			0	38297	0	0	0	29516	28120	152628	26953	1078977	46884	110979	0	0	8128	529175	0	0
2024-08-27 17:45:47			0	38322	0	0	0	29527	28120	152536	27140	1079049	46883	110983	0	0	8129	528231	0	0
2024-08-27 17:46:47			0	38301	0	0	0	29535	28130	152664	27261	1079049	46875	110986	0	0	8128	528993	0	0
2024-08-27 17:47:47			0	38312	0	0	0	29535	28120	152596	26590	1078977	46874	110986	0	0	8128	528609	0	0
2024-08-27 17:48:47			0	38308	0	0	0	29540	28120	152540	26922	1079075	46862	110988	0	0	8128	528760	0	0
2024-08-27 17:49:47			0	38303	0	0	0	29529	28120	152592	26616	1079075	46873	110984	0	0	8128	528948	0	0
2024-08-27 17:50:47			0	38304	0	0	0	29506	28130	152592	27076	1079067	46884	110975	0	0	8128	528880	0	0
2024-08-27 17:51:47			0	38318	0	0	0	29509	28120	152472	26739	1078968	46862	110976	0	0	8129	528382	0	0
2024-08-27 17:52:47			0	38319	0	0	0	29498	28120	152544	27046	1078995	46873	110972	0	0	8129	528344	0	0
2024-08-27 17:53:47			0	38352	0	0	0	29501	28120	152432	26823	1079004	46863	110973	0	0	8131	527100	0	0
2024-08-27 17:54:47			0	38351	0	0	0	29498	28110	152396	27209	1078878	46850	110972	0	0	8131	527168	0	0
2024-08-27 17:55:47			0	38339	0	0	0	29490	28110	152344	26840	1078878	46873	110969	0	0	8130	527620	0	0
2024-08-27 17:56:47			0	38384	0	0	0	29490	28110	152460	26975	1078878	46873	110969	0	0	8133	525926	0	0
2024-08-27 17:57:47			0	38366	0	0	0	29496	28110	152368	27131	1078869	46872	110971	0	0	8132	526603	0	0
2024-08-27 17:58:47			0	38368	0	0	0	29501	28100	152392	26847	1078860	46872	110973	0	0	8132	526558	0	0
2024-08-27 17:59:47			0	38362	0	0	0	29503	28100	152460	26720	1078887	46872	110974	0	0	8131	526784	0	0
2024-08-27 18:00:47			0	38375	0	0	0	29514	28110	152504	26939	1078932	46873	110978	0	0	8132	526264	0	0
2024-08-27 18:01:47			0	38360	0	0	0	29511	28090	152436	26807	1078878	46871	110977	0	0	8131	526890	0	0
2024-08-27 18:02:47			0	38366	0	0	0	29501	28110	152504	26755	1078896	46872	110973	0	0	8132	526603	0	0
2024-08-27 18:03:47			0	38358	0	0	0	29498	28120	152336	26965	1078887	46873	110972	0	0	8131	526874	0	0
2024-08-27 18:04:47			0	38355	0	0	0	29485	28100	152376	26970	1078833	46861	110967	0	0	8131	527048	0	0
2024-08-27 18:05:47			0	38363	0	0	0	29496	28100	152352	26986	1078860	46894	110971	0	0	8132	526746	0	0
2024-08-27 18:06:47			0	38358	0	0	0	29493	28090	152368	26942	1078878	46871	110970	0	0	8131	526965	0	0
2024-08-27 18:07:47			0	38364	0	0	0	29483	28090	152356	26739	1078797	46882	110966	0	0	8132	526739	0	0
2024-08-27 18:08:47			0	38379	0	0	0	29490	28090	152376	26757	1078797	46871	110969	0	0	8133	526174	0	0
2024-08-27 18:09:47			0	38361	0	0	0	29485	28090	152352	26757	1078851	46871	110967	0	0	8132	526852	0	0
2024-08-27 18:10:47			0	38361	0	0	0	29496	28090	152420	26979	1078878	46871	110971	0	0	8131	526852	0	0
2024-08-27 18:11:47			0	38360	0	0	0	29483	28080	152416	26661	1078832	46859	110966	0	0	8132	526920	0	0
2024-08-27 18:12:47			0	38338	0	0	0	29477	28090	152404	26928	1078824	46871	110964	0	0	8130	527719	0	0
2024-08-27 18:13:47			0	38355	0	0	0	29501	28080	152448	27085	1078832	46859	110973	0	0	8131	527109	0	0
2024-08-27 18:14:47			0	38333	0	0	0	29488	28080	152500	26759	1078806	46880	110968	0	0	8130	527938	0	0
2024-08-27 18:15:47			0	38332	0	0	0	29483	28090	152520	26899	1078797	46882	110966	0	0	8130	527945	0	0
2024-08-27 18:16:47			0	38336	0	0	0	29480	28090	152452	26941	1078868	46859	110965	0	0	8130	527795	0	0
2024-08-27 18:17:47			0	38342	0	0	0	29493	28080	152412	26854	1078796	46879	110970	0	0	8130	527599	0	0
2024-08-27 18:18:47			0	38350	0	0	0	29477	28070	152488	26887	1078841	46869	110964	0	0	8131	527328	0	0
2024-08-27 18:19:47			0	38334	0	0	0	29480	28090	152528	27171	1078770	46871	110965	0	0	8130	527870	0	0
2024-08-27 18:20:47			0	38348	0	0	0	29490	28080	152464	26946	1078806	46870	110969	0	0	8131	527373	0	0
2024-08-27 18:21:47			0	38331	0	0	0	29485	28080	152568	26785	1078832	46880	110967	0	0	8130	528014	0	0
2024-08-27 18:22:47			0	38326	0	0	0	29483	28080	152496	26981	1078823	46879	110966	0	0	8130	528202	0	0
2024-08-27 18:23:47			0	38349	0	0	0	29470	28080	152500	27038	1078779	46870	110961	0	0	8131	527335	0	0
2024-08-27 18:24:47			0	38344	0	0	0	29483	28080	152464	27124	1078832	46870	110966	0	0	8131	527523	0	0
2024-08-27 18:25:47			0	38353	0	0	0	29462	28080	152540	26970	1078752	46859	110958	0	0	8131	527184	0	0
2024-08-27 18:26:47			0	38341	0	0	0	29464	28070	152644	26842	1078787	46869	110959	0	0	8131	527667	0	0
2024-08-27 18:27:47			0	38352	0	0	0	29459	28070	152568	27211	1078707	46879	110957	0	0	8131	527252	0	0
2024-08-27 18:28:47			0	38349	0	0	0	29459	28080	152512	27486	1078796	46869	110957	0	0	8131	527335	0	0
2024-08-27 18:29:47			0	38348	0	0	0	29462	28080	152492	26646	1078796	46869	110958	0	0	8131	527373	0	0
2024-08-27 18:30:47			0	38340	0	0	0	29459	28070	152600	26847	1078734	46858	110957	0	0	8131	527705	0	0
2024-08-27 18:31:47			0	38319	0	0	0	29462	28070	152672	26864	1078707	46869	110958	0	0	8130	528497	0	0
2024-08-27 18:32:47			0	38322	0	0	0	29475	28060	152564	26915	1078715	46878	110963	0	0	8129	528414	0	0
2024-08-27 18:33:47			0	38328	0	0	0	29459	28070	152660	27022	1078751	46868	110957	0	0	8130	528157	0	0
2024-08-27 18:34:47			0	38308	0	0	0	29464	28070	152536	26859	1078778	46868	110959	0	0	8129	528912	0	0
2024-08-27 18:35:47			0	38299	0	0	0	29470	28070	152692	27027	1078724	46878	110961	0	0	8128	529252	0	0
2024-08-27 18:36:47			0	38320	0	0	0	29459	28070	152616	26991	1078698	46878	110957	0	0	8130	528459	0	0
2024-08-27 18:37:47			0	38290	0	0	0	29467	28060	152688	26996	1078688	46878	110960	0	0	8128	529623	0	0
2024-08-27 18:38:47			0	38283	0	0	0	29475	28070	152796	26894	1078778	46868	110963	0	0	8127	529857	0	0
2024-08-27 18:39:47			0	38271	0	0	0	29462	28070	152812	27024	1078680	46879	110958	0	0	8127	530311	0	0
2024-08-27 18:40:47			0	38276	0	0	0	29462	28080	152840	27083	1078796	46869	110958	0	0	8127	530091	0	0
2024-08-27 18:41:47			0	38263	0	0	0	29464	28060	152732	27041	1078742	46878	110959	0	0	8126	530644	0	0
2024-08-27 18:42:47			0	38272	0	0	0	29464	28060	152804	26981	1078688	46878	110959	0	0	8127	530303	0	0
2024-08-27 18:43:47			0	38269	0	0	0	29472	28070	152828	27130	1078778	46878	110962	0	0	8126	530386	0	0
2024-08-27 18:44:47			0	38267	0	0	0	29477	28060	152756	27041	1078635	46868	110964	0	0	8126	530493	0	0
2024-08-27 18:45:47			0	38264	0	0	0	29467	28070	152840	26986	1078760	46869	110960	0	0	8126	530575	0	0
2024-08-27 18:46:47			0	38272	0	0	0	29464	28060	152916	27012	1078769	46868	110959	0	0	8127	530303	0	0
2024-08-27 18:47:47			0	38276	0	0	0	29459	28060	152824	27012	1078688	46868	110957	0	0	8127	530152	0	0
2024-08-27 18:48:47			0	38263	0	0	0	29459	28060	152748	27156	1078635	46878	110957	0	0	8126	530644	0	0
2024-08-27 18:49:47			0	38269	0	0	0	29451	28060	152900	27126	1078760	46856	110954	0	0	8127	530417	0	0
2024-08-27 18:50:47			0	38254	0	0	0	29457	28070	152840	27135	1078698	46890	110956	0	0	8126	530954	0	0
2024-08-27 18:51:47			0	38259	0	0	0	29451	28060	152948	26902	1078599	46877	110954	0	0	8126	530795	0	0
2024-08-27 18:52:47			0	38254	0	0	0	29464	28060	152816	27088	1078626	46877	110959	0	0	8126	530985	0	0
2024-08-27 18:53:47			0	38242	0	0	0	29457	28060	152876	26998	1078662	46857	110956	0	0	8125	531439	0	0
2024-08-27 18:54:47			0	38239	0	0	0	29459	28060	152924	26849	1078679	46867	110957	0	0	8125	531553	0	0
2024-08-27 18:55:47			0	38237	0	0	0	29462	28050	153132	26904	1078634	46876	110958	0	0	8125	531659	0	0
2024-08-27 18:56:47			0	38235	0	0	0	29457	28050	152984	27048	1078697	46877	110956	0	0	8125	531735	0	0
2024-08-27 18:57:47			0	38230	0	0	0	29454	28060	153012	26993	1078679	46856	110955	0	0	8124	531894	0	0
2024-08-27 18:58:47			0	38203	0	0	0	29449	28060	152992	26672	1078715	46868	110953	0	0	8123	532918	0	0
2024-08-27 18:59:47			0	38201	0	0	0	29446	28060	153100	26942	1078662	46868	110952	0	0	8123	532993	0	0
2024-08-27 19:00:47			0	38210	0	0	0	29451	28060	153104	27027	1078706	46877	110954	0	0	8123	532652	0	0
2024-08-27 19:01:47			0	38195	0	0	0	29449	28060	153092	26920	1078679	46856	110953	0	0	8123	533221	0	0
2024-08-27 19:02:47			0	38210	0	0	0	29449	28050	153160	27242	1078616	46867	110953	0	0	8123	532683	0	0
2024-08-27 19:03:47			0	38193	0	0	0	29436	28040	153164	27149	1078625	46875	110948	0	0	8123	533359	0	0
2024-08-27 19:04:47			0	38191	0	0	0	29444	28040	153104	27053	1078598	46854	110951	0	0	8122	533434	0	0
2024-08-27 19:05:47			0	38171	0	0	0	29438	28030	153148	26993	1078580	46865	110949	0	0	8121	534225	0	0
2024-08-27 19:06:47			0	38169	0	0	0	29431	28040	153216	27064	1078598	46854	110946	0	0	8121	534270	0	0
2024-08-27 19:07:47			0	38152	0	0	0	29433	28050	153232	27177	1078643	46867	110947	0	0	8120	534886	0	0
2024-08-27 19:08:47			0	38152	0	0	0	29433	28040	153236	26909	1078562	46875	110947	0	0	8120	534917	0	0
2024-08-27 19:09:47			0	38148	0	0	0	29436	28050	153364	26819	1078580	46866	110948	0	0	8120	535038	0	0
2024-08-27 19:10:47			0	38143	0	0	0	29425	28040	153364	27039	1078589	46865	110944	0	0	8120	535259	0	0
2024-08-27 19:11:47			0	38139	0	0	0	29420	28030	153288	27249	1078553	46865	110942	0	0	8120	535442	0	0
2024-08-27 19:12:47			0	38149	0	0	0	29438	28030	153332	27218	1078544	46886	110949	0	0	8120	535062	0	0
2024-08-27 19:13:47			0	38135	0	0	0	29420	28030	153388	27194	1078526	46865	110942	0	0	8119	535594	0	0
2024-08-27 19:14:47			0	38141	0	0	0	29425	28030	153464	26984	1078553	46865	110944	0	0	8120	535366	0	0
2024-08-27 19:15:47			0	38140	0	0	0	29428	28040	153524	27118	1078535	46865	110945	0	0	8120	535373	0	0
2024-08-27 19:16:47			0	38125	0	0	0	29418	28030	153504	27052	1078517	46875	110941	0	0	8119	535975	0	0
2024-08-27 19:17:47			0	38130	0	0	0	29420	28040	153368	27022	1078508	46875	110942	0	0	8119	535754	0	0
2024-08-27 19:18:47			0	38135	0	0	0	29420	28020	153464	27074	1078589	46874	110942	0	0	8119	535625	0	0
2024-08-27 19:19:47			0	38127	0	0	0	29423	28020	153460	27055	1078535	46852	110943	0	0	8119	535930	0	0
2024-08-27 19:20:47			0	38119	0	0	0	29418	28030	153548	27124	1078526	46875	110941	0	0	8119	536204	0	0
2024-08-27 19:21:47			0	38098	0	0	0	29415	28020	153512	26930	1078508	46852	110940	0	0	8117	537035	0	0
2024-08-27 19:22:47			0	38101	0	0	0	29410	28020	153544	26800	1078481	46885	110938	0	0	8118	536920	0	0
2024-08-27 19:23:47			0	38113	0	0	0	29410	28020	153568	27050	1078472	46863	110938	0	0	8118	536463	0	0
2024-08-27 19:24:47			0	38111	0	0	0	29410	28020	153460	27227	1078454	46874	110938	0	0	8118	536539	0	0
2024-08-27 19:25:47			0	38102	0	0	0	29412	28020	153464	26923	1078445	46863	110939	0	0	8118	536882	0	0
2024-08-27 19:26:47			0	38087	0	0	0	29412	28020	153496	26769	1078481	46874	110939	0	0	8117	537454	0	0
2024-08-27 19:27:47			0	38091	0	0	0	29420	28020	153500	26873	1078472	46874	110942	0	0	8117	537302	0	0
2024-08-27 19:28:47			0	38102	0	0	0	29405	28020	153476	27072	1078508	46885	110936	0	0	8118	536882	0	0
2024-08-27 19:29:47			0	38089	0	0	0	29418	28010	153496	26814	1078436	46885	110941	0	0	8117	537409	0	0
2024-08-27 19:30:47			0	38095	0	0	0	29415	28020	153500	26762	1078526	46874	110940	0	0	8117	537149	0	0
2024-08-27 19:31:47			0	38096	0	0	0	29410	28010	153588	26949	1078436	46863	110938	0	0	8117	537142	0	0
2024-08-27 19:32:47			0	38084	0	0	0	29407	28020	153568	27092	1078481	46885	110937	0	0	8117	537569	0	0
2024-08-27 19:33:47			0	38073	0	0	0	29412	28010	153544	26975	1078436	46874	110939	0	0	8116	538020	0	0
2024-08-27 19:34:47			0	38082	0	0	0	29415	28010	153644	26984	1078481	46873	110940	0	0	8116	537676	0	0
2024-08-27 19:35:47			0	38098	0	0	0	29418	28010	153720	27053	1078490	46896	110941	0	0	8117	537066	0	0
2024-08-27 19:36:47			0	38080	0	0	0	29418	28010	153784	26970	1078490	46874	110941	0	0	8116	537752	0	0
2024-08-27 19:37:47			0	38065	0	0	0	29412	28010	153732	27062	1078454	46862	110939	0	0	8116	538325	0	0
2024-08-27 19:38:47			0	38072	0	0	0	29418	28020	153696	27007	1078391	46863	110941	0	0	8116	538027	0	0
2024-08-27 19:39:47			0	38059	0	0	0	29412	28010	153760	27166	1078427	46862	110939	0	0	8115	538554	0	0
2024-08-27 19:40:47			0	38058	0	0	0	29412	28000	153784	27064	1078445	46883	110939	0	0	8115	538624	0	0
2024-08-27 19:41:47			0	38045	0	0	0	29412	28010	153844	27015	1078481	46873	110939	0	0	8114	539089	0	0
2024-08-27 19:42:47			0	38036	0	0	0	29405	28010	153900	26915	1078454	46851	110936	0	0	8114	539433	0	0
2024-08-27 19:43:47			0	38040	0	0	0	29397	28010	153948	26786	1078436	46874	110933	0	0	8114	539280	0	0
2024-08-27 19:44:47			0	38029	0	0	0	29399	28010	154011	26819	1078481	46873	110934	0	0	8114	539701	0	0
2024-08-27 19:45:47			0	38033	0	0	0	29402	28000	153920	26935	1078418	46883	110935	0	0	8114	539579	0	0
2024-08-27 19:46:47			0	38020	0	0	0	29407	28010	154103	26821	1078481	46862	110937	0	0	8113	540045	0	0
2024-08-27 19:47:47			0	38023	0	0	0	29399	28000	154139	26719	1078436	46883	110934	0	0	8113	539962	0	0
2024-08-27 19:48:47			0	38017	0	0	0	29410	28000	154019	26871	1078472	46861	110938	0	0	8113	540191	0	0
2024-08-27 19:49:47			0	38009	0	0	0	29407	28000	154043	27306	1078418	46883	110937	0	0	8112	540498	0	0
2024-08-27 19:50:47			0	38003	0	0	0	29402	28000	154191	27213	1078409	46861	110935	0	0	8112	540727	0	0
2024-08-27 19:51:47			0	38002	0	0	0	29402	28000	154031	27053	1078472	46861	110935	0	0	8112	540766	0	0
2024-08-27 19:52:47			0	38005	0	0	0	29397	28000	154067	26753	1078445	46861	110933	0	0	8112	540651	0	0
2024-08-27 19:53:47			0	37977	0	0	0	29405	28010	154047	26786	1078454	46873	110936	0	0	8111	541692	0	0
2024-08-27 19:54:47			0	37998	0	0	0	29402	27990	154111	26906	1078426	46882	110935	0	0	8112	540950	0	0
2024-08-27 19:55:47			0	37993	0	0	0	29402	28000	154143	26977	1078382	46883	110935	0	0	8111	541110	0	0
2024-08-27 19:56:47			0	37991	0	0	0	29397	27990	154159	26883	1078400	46871	110933	0	0	8111	541218	0	0
2024-08-27 19:57:47			0	37983	0	0	0	29399	27990	154023	27194	1078364	46871	110934	0	0	8111	541525	0	0
2024-08-27 19:58:47			0	37977	0	0	0	29399	28000	154107	27177	1078436	46872	110934	0	0	8111	541723	0	0
2024-08-27 19:59:47			0	37989	0	0	0	29397	27990	154107	26996	1078400	46871	110933	0	0	8111	541295	0	0
2024-08-27 20:00:47			0	37985	0	0	0	29392	27990	154135	27053	1078400	46871	110931	0	0	8111	541448	0	0
2024-08-27 20:01:47			0	37974	0	0	0	29392	27990	154187	26906	1078400	46860	110931	0	0	8111	541870	0	0
2024-08-27 20:02:47			0	37987	0	0	0	29394	27990	154143	26892	1078373	46860	110932	0	0	8111	541371	0	0
2024-08-27 20:03:47			0	37992	0	0	0	29394	27990	154215	26861	1078373	46882	110932	0	0	8112	541180	0	0
2024-08-27 20:04:47			0	37975	0	0	0	29394	28000	154319	26934	1078436	46883	110932	0	0	8111	541800	0	0
2024-08-27 20:05:47			0	37970	0	0	0	29392	27990	154399	27114	1078364	46882	110931	0	0	8110	542023	0	0
2024-08-27 20:06:47			0	37953	0	0	0	29397	27980	154307	27149	1078381	46859	110933	0	0	8109	542707	0	0
2024-08-27 20:07:47			0	37965	0	0	0	29381	27980	154319	27036	1078301	46859	110927	0	0	8110	542246	0	0
2024-08-27 20:08:47			0	37958	0	0	0	29394	27990	154275	27000	1078390	46871	110932	0	0	8110	542484	0	0
2024-08-27 20:09:47			0	37973	0	0	0	29392	27980	154315	26807	1078354	46870	110931	0	0	8110	541939	0	0
2024-08-27 20:10:47			0	37951	0	0	0	29394	27980	154327	26991	1078354	46859	110932	0	0	8109	542784	0	0
2024-08-27 20:11:47			0	37946	0	0	0	29386	27980	154347	27001	1078381	46870	110929	0	0	8109	542976	0	0
2024-08-27 20:12:47			0	37955	0	0	0	29376	27980	154247	26845	1078328	46859	110925	0	0	8110	542630	0	0
2024-08-27 20:13:47			0	37941	0	0	0	29392	27990	154339	27045	1078390	46871	110931	0	0	8109	543136	0	0
2024-08-27 20:14:47			0	37928	0	0	0	29386	27990	154427	26987	1078364	46871	110929	0	0	8108	543636	0	0
2024-08-27 20:15:47			0	37914	0	0	0	29392	27980	154407	26920	1078408	46870	110931	0	0	8107	544205	0	0
2024-08-27 20:16:47			0	37929	0	0	0	29384	27990	154483	27024	1078373	46871	110928	0	0	8108	543597	0	0
2024-08-27 20:17:47			0	37911	0	0	0	29384	27980	154451	26864	1078292	46869	110928	0	0	8107	544321	0	0
2024-08-27 20:18:47			0	37895	0	0	0	29386	27990	154511	26939	1078364	46882	110929	0	0	8106	544905	0	0
2024-08-27 20:19:47			0	37916	0	0	0	29381	27980	154495	26955	1078328	46859	110927	0	0	8107	544128	0	0
2024-08-27 20:20:47			0	37903	0	0	0	29376	27980	154587	26847	1078292	46880	110925	0	0	8107	544628	0	0
2024-08-27 20:21:47			0	37901	0	0	0	29379	27980	154523	26935	1078301	46859	110926	0	0	8106	544705	0	0
2024-08-27 20:22:47			0	37900	0	0	0	29379	27980	154531	27034	1078247	46881	110926	0	0	8106	544744	0	0
2024-08-27 20:23:47			0	37871	0	0	0	29371	27980	154491	27189	1078292	46869	110923	0	0	8105	545860	0	0
2024-08-27 20:24:47			0	37879	0	0	0	29368	27980	154579	27048	1078274	46870	110922	0	0	8105	545552	0	0
2024-08-27 20:25:47			0	37861	0	0	0	29371	27970	154559	26805	1078300	46869	110923	0	0	8104	546277	0	0
2024-08-27 20:26:47			0	37848	0	0	0	29371	27970	154615	26892	1078300	46869	110923	0	0	8104	546778	0	0
2024-08-27 20:27:47			0	37860	0	0	0	29368	27980	154659	27000	1078265	46869	110922	0	0	8104	546284	0	0
2024-08-27 20:28:47			0	37851	0	0	0	29366	27980	154747	26918	1078318	46869	110921	0	0	8104	546631	0	0
2024-08-27 20:29:47			0	37820	0	0	0	29366	27970	154795	26847	1078256	46869	110921	0	0	8102	547859	0	0
2024-08-27 20:30:47			0	37801	0	0	0	29371	27970	154747	27053	1078327	46880	110923	0	0	8101	548593	0	0
2024-08-27 20:31:47			0	37811	0	0	0	29366	27970	154715	26854	1078246	46869	110921	0	0	8101	548207	0	0
2024-08-27 20:32:47			0	37804	0	0	0	29368	27960	154755	27235	1078264	46868	110922	0	0	8101	548509	0	0
2024-08-27 20:33:47			0	37781	0	0	0	29371	27970	154903	27150	1078220	46880	110923	0	0	8100	549367	0	0
2024-08-27 20:34:47			0	37789	0	0	0	29361	27960	154935	27104	1078237	46868	110919	0	0	8100	549089	0	0
2024-08-27 20:35:47			0	37789	0	0	0	29358	27960	154939	26922	1078228	46856	110918	0	0	8100	549089	0	0
2024-08-27 20:36:47			0	37762	0	0	0	29353	27960	154895	26998	1078237	46868	110916	0	0	8099	550134	0	0
2024-08-27 20:37:47			0	37752	0	0	0	29345	27970	154991	27152	1078193	46869	110913	0	0	8098	550489	0	0
2024-08-27 20:38:47			0	37752	0	0	0	29345	27960	154903	27027	1078148	46867	110913	0	0	8098	550521	0	0
2024-08-27 20:39:47			0	37757	0	0	0	29358	27960	154943	26935	1078201	46878	110918	0	0	8098	550327	0	0
2024-08-27 20:40:47			0	37768	0	0	0	29358	27950	155075	26887	1078219	46867	110918	0	0	8099	549933	0	0
2024-08-27 20:41:47			0	37755	0	0	0	29342	27950	155067	26915	1078138	46845	110912	0	0	8099	550436	0	0
2024-08-27 20:42:47			0	37738	0	0	0	29350	27950	155167	27085	1078165	46867	110915	0	0	8097	551095	0	0
2024-08-27 20:43:47			0	37730	0	0	0	29350	27950	155159	27187	1078210	46856	110915	0	0	8097	551405	0	0
2024-08-27 20:44:47			0	37729	0	0	0	29348	27950	155123	26894	1078219	46867	110914	0	0	8097	551444	0	0
2024-08-27 20:45:47			0	37722	0	0	0	29342	27940	154987	27034	1078147	46866	110912	0	0	8097	551747	0	0
2024-08-27 20:46:47			0	37726	0	0	0	29340	27940	155075	26965	1078201	46855	110911	0	0	8097	551592	0	0
2024-08-27 20:47:47			0	37731	0	0	0	29345	27940	155063	27159	1078138	46854	110913	0	0	8097	551398	0	0
2024-08-27 20:48:47			0	37712	0	0	0	29337	27950	155111	26854	1078112	46878	110910	0	0	8096	552103	0	0
2024-08-27 20:49:47			0	37701	0	0	0	29340	27940	155199	26899	1078174	46866	110911	0	0	8095	552563	0	0
2024-08-27 20:50:47			0	37710	0	0	0	29335	27940	155227	26812	1078147	46877	110909	0	0	8096	552213	0	0
2024-08-27 20:51:47			0	37672	0	0	0	29340	27940	155255	27365	1078093	46877	110911	0	0	8094	553689	0	0
2024-08-27 20:52:47			0	37649	0	0	0	29329	27950	155395	27048	1078102	46867	110907	0	0	8093	554552	0	0
2024-08-27 20:53:47			0	37625	0	0	0	29327	27940	155519	26965	1078066	46866	110906	0	0	8091	555519	0	0
2024-08-27 20:54:47			0	37579	0	0	0	29332	27930	155555	27329	1078075	46854	110908	0	0	8088	557345	0	0
2024-08-27 20:55:47			0	37556	0	0	0	29332	27940	155711	26968	1078084	46843	110908	0	0	8087	558212	0	0
2024-08-27 20:56:47			0	37543	0	0	0	29332	27930	155923	27145	1078066	46876	110908	0	0	8086	558752	0	0
2024-08-27 20:57:47			0	37527	0	0	0	29324	27940	155947	26826	1078057	46865	110905	0	0	8086	559346	0	0
2024-08-27 20:58:47			0	37503	0	0	0	29319	27930	156035	27182	1078102	46865	110903	0	0	8084	560318	0	0
2024-08-27 20:59:47			0	37485	0	0	0	29329	27920	156003	27126	1078057	46853	110907	0	0	8083	561056	0	0
2024-08-27 21:00:47			0	37460	0	0	0	29327	27930	156059	27138	1078066	46865	110906	0	0	8082	562005	0	0
2024-08-27 21:01:47			0	37471	0	0	0	29319	27930	156163	26958	1078039	46865	110903	0	0	8082	561573	0	0
2024-08-27 21:02:47			0	37467	0	0	0	29324	27920	156147	26776	1077949	46875	110905	0	0	8082	561762	0	0
2024-08-27 21:03:47			0	37457	0	0	0	29324	27920	156267	26901	1077976	46853	110905	0	0	8081	562155	0	0
2024-08-27 21:04:47			0	37428	0	0	0	29314	27920	156155	26875	1078057	46864	110901	0	0	8080	563295	0	0
2024-08-27 21:05:47			0	37441	0	0	0	29319	27910	156239	27000	1077958	46874	110903	0	0	8081	562816	0	0
2024-08-27 21:06:47			0	37462	0	0	0	29319	27920	156287	27071	1078003	46853	110903	0	0	8082	561959	0	0
2024-08-27 21:07:47			0	37451	0	0	0	29316	27920	156199	27130	1077994	46863	110902	0	0	8081	562391	0	0
2024-08-27 21:08:47			0	37493	0	0	0	29324	27920	156115	26930	1077967	46863	110905	0	0	8084	560742	0	0
2024-08-27 21:09:47			0	37469	0	0	0	29322	27910	156215	26996	1078039	46874	110904	0	0	8082	561716	0	0
2024-08-27 21:10:47			0	37455	0	0	0	29311	27920	156151	27111	1077940	46875	110900	0	0	8082	562233	0	0
2024-08-27 21:11:47			0	37465	0	0	0	29319	27910	156207	27017	1077985	46874	110903	0	0	8082	561873	0	0
2024-08-27 21:12:47			0	37457	0	0	0	29311	27920	156127	26930	1077994	46863	110900	0	0	8082	562155	0	0
2024-08-27 21:13:47			0	37477	0	0	0	29316	27910	156171	27255	1077985	46862	110902	0	0	8083	561402	0	0
2024-08-27 21:14:47			0	37454	0	0	0	29314	27920	156175	26935	1077994	46863	110901	0	0	8081	562273	0	0
2024-08-27 21:15:47			0	37457	0	0	0	29309	27910	156271	27008	1078012	46862	110899	0	0	8082	562187	0	0
2024-08-27 21:16:47			0	37447	0	0	0	29303	27920	156143	27076	1077967	46863	110897	0	0	8081	562548	0	0
2024-08-27 21:17:47			0	37421	0	0	0	29309	27920	156319	26847	1077967	46875	110899	0	0	8080	563570	0	0
2024-08-27 21:18:47			0	37428	0	0	0	29301	27900	156267	26984	1077913	46874	110896	0	0	8080	563359	0	0
2024-08-27 21:19:47			0	37395	0	0	0	29311	27910	156391	26863	1077931	46862	110900	0	0	8078	564626	0	0
2024-08-27 21:20:47			0	37400	0	0	0	29303	27910	156391	27001	1077895	46851	110897	0	0	8078	564429	0	0
2024-08-27 21:21:47			0	37379	0	0	0	29303	27910	156511	26847	1077931	46862	110897	0	0	8077	565256	0	0
2024-08-27 21:22:47			0	37360	0	0	0	29301	27900	156575	26830	1077940	46851	110896	0	0	8076	566038	0	0
2024-08-27 21:23:47			0	37333	0	0	0	29296	27900	156659	26987	1077967	46862	110894	0	0	8075	567104	0	0
2024-08-27 21:24:47			0	37309	0	0	0	29296	27910	156850	26899	1077922	46862	110894	0	0	8073	568019	0	0
2024-08-27 21:25:47			0	37292	0	0	0	29288	27900	156854	26873	1077967	46851	110891	0	0	8072	568724	0	0
2024-08-27 21:26:47			0	37276	0	0	0	29285	27890	156942	26934	1077895	46882	110890	0	0	8071	569391	0	0
2024-08-27 21:27:47			0	37277	0	0	0	29288	27900	156958	27067	1077859	46884	110891	0	0	8071	569318	0	0
2024-08-27 21:28:47			0	37261	0	0	0	29285	27890	156966	26816	1077922	46860	110890	0	0	8071	569985	0	0
2024-08-27 21:29:47			0	37263	0	0	0	29288	27890	157078	26897	1077859	46860	110891	0	0	8071	569906	0	0
2024-08-27 21:30:47			0	37258	0	0	0	29290	27890	157046	26937	1077868	46860	110892	0	0	8070	570104	0	0
2024-08-27 21:31:47			0	37242	0	0	0	29280	27900	157034	26821	1077796	46873	110888	0	0	8070	570705	0	0
2024-08-27 21:32:47			0	37260	0	0	0	29290	27880	157086	27034	1077867	46859	110892	0	0	8070	570057	0	0
2024-08-27 21:33:47			0	37237	0	0	0	29293	27890	157158	26925	1077886	46872	110893	0	0	8069	570936	0	0
2024-08-27 21:34:47			0	37237	0	0	0	29277	27890	157186	26942	1077859	46849	110887	0	0	8069	570936	0	0
2024-08-27 21:35:47			0	37195	0	0	0	29267	27890	157238	26908	1077868	46872	110883	0	0	8067	572604	0	0
2024-08-27 21:36:47			0	37193	0	0	0	29275	27890	157310	27033	1077832	46860	110886	0	0	8067	572684	0	0
2024-08-27 21:37:47			0	37192	0	0	0	29267	27880	157326	26592	1077823	46860	110883	0	0	8067	572757	0	0
2024-08-27 21:38:47			0	37160	0	0	0	29270	27890	157386	27031	1077778	46860	110884	0	0	8065	573997	0	0
2024-08-27 21:39:47			0	37158	0	0	0	29272	27890	157498	26873	1077832	46860	110885	0	0	8065	574076	0	0
2024-08-27 21:40:47			0	37131	0	0	0	29283	27880	157614	26731	1077796	46860	110889	0	0	8063	575185	0	0
2024-08-27 21:41:47			0	37114	0	0	0	29277	27880	157578	27024	1077796	46872	110887	0	0	8062	575863	0	0
2024-08-27 21:42:47			0	37107	0	0	0	29272	27880	157682	26762	1077769	46849	110885	0	0	8062	576143	0	0
2024-08-27 21:43:47			0	37108	0	0	0	29272	27880	157782	26896	1077787	46859	110885	0	0	8062	576103	0	0
2024-08-27 21:44:47			0	37083	0	0	0	29277	27880	157814	26960	1077733	46859	110887	0	0	8060	577101	0	0
2024-08-27 21:45:47			0	37078	0	0	0	29270	27880	157822	26935	1077769	46872	110884	0	0	8060	577301	0	0
2024-08-27 21:46:47			0	37073	0	0	0	29262	27880	157890	26759	1077787	46871	110881	0	0	8060	577501	0	0
2024-08-27 21:47:47			0	37054	0	0	0	29264	27880	157906	26913	1077760	46871	110882	0	0	8059	578261	0	0
2024-08-27 21:48:47			0	37048	0	0	0	29272	27870	157986	26890	1077751	46870	110885	0	0	8058	578534	0	0
2024-08-27 21:49:47			0	37038	0	0	0	29262	27870	158030	26904	1077742	46870	110881	0	0	8058	578935	0	0
2024-08-27 21:50:47			0	37041	0	0	0	29270	27870	158014	26665	1077742	46858	110884	0	0	8058	578814	0	0
2024-08-27 21:51:47			0	37024	0	0	0	29262	27880	158126	26863	1077733	46859	110881	0	0	8057	579462	0	0
2024-08-27 21:52:47			0	37015	0	0	0	29259	27870	158078	26871	1077697	46858	110880	0	0	8056	579856	0	0
2024-08-27 21:53:47			0	36994	0	0	0	29259	27870	158170	27126	1077715	46858	110880	0	0	8055	580698	0	0
2024-08-27 21:54:47			0	36997	0	0	0	29259	27870	158238	27012	1077715	46870	110880	0	0	8055	580578	0	0
2024-08-27 21:55:47			0	36982	0	0	0	29259	27860	158234	27074	1077706	46858	110880	0	0	8055	581213	0	0
2024-08-27 21:56:47			0	36981	0	0	0	29259	27860	158218	26838	1077652	46870	110880	0	0	8054	581254	0	0
2024-08-27 21:57:47			0	36967	0	0	0	29270	27870	158266	26986	1077688	46858	110884	0	0	8053	581782	0	0
2024-08-27 21:58:47			0	36957	0	0	0	29259	27850	158418	27119	1077661	46856	110880	0	0	8053	582251	0	0
2024-08-27 21:59:47			0	36944	0	0	0	29257	27870	158386	27078	1077742	46858	110879	0	0	8052	582707	0	0
2024-08-27 22:00:47			0	36957	0	0	0	29251	27860	158294	27102	1077679	46858	110877	0	0	8053	582218	0	0
2024-08-27 22:01:47			0	36946	0	0	0	29246	27860	158350	26935	1077616	46869	110875	0	0	8053	582660	0	0
2024-08-27 22:02:47			0	36961	0	0	0	29244	27850	158358	26960	1077607	46868	110874	0	0	8053	582091	0	0
2024-08-27 22:03:47			0	36936	0	0	0	29246	27860	158346	26975	1077616	46857	110875	0	0	8052	583062	0	0
2024-08-27 22:04:47			0	36931	0	0	0	29233	27860	158590	27204	1077706	46870	110870	0	0	8052	583263	0	0
2024-08-27 22:05:47			0	36917	0	0	0	29244	27850	158514	26911	1077598	46855	110874	0	0	8051	583861	0	0
2024-08-27 22:06:47			0	36914	0	0	0	29246	27850	158506	27234	1077634	46878	110875	0	0	8051	583981	0	0
2024-08-27 22:07:47			0	36909	0	0	0	29238	27850	158602	27034	1077607	46845	110872	0	0	8051	584183	0	0
2024-08-27 22:08:47			0	36877	0	0	0	29244	27850	158590	26968	1077678	46855	110874	0	0	8049	585473	0	0
2024-08-27 22:09:47			0	36864	0	0	0	29244	27860	158678	27177	1077643	46857	110874	0	0	8048	585964	0	0
2024-08-27 22:10:47			0	36852	0	0	0	29220	27840	158814	26967	1077616	46855	110865	0	0	8047	586516	0	0
2024-08-27 22:11:47			0	36837	0	0	0	29228	27840	158950	27036	1077553	46855	110868	0	0	8046	587122	0	0
2024-08-27 22:12:47			0	36794	0	0	0	29233	27840	158990	26705	1077616	46855	110870	0	0	8044	588863	0	0
2024-08-27 22:13:47			0	36763	0	0	0	29228	27840	159138	27312	1077535	46867	110868	0	0	8042	590119	0	0
2024-08-27 22:14:47			0	36748	0	0	0	29225	27840	159234	27001	1077616	46855	110867	0	0	8041	590728	0	0
2024-08-27 22:15:47			0	36733	0	0	0	29228	27830	159186	26960	1077544	46854	110868	0	0	8040	591371	0	0
2024-08-27 22:16:47			0	36738	0	0	0	29231	27850	159298	26739	1077571	46855	110869	0	0	8041	591100	0	0
2024-08-27 22:17:47			0	36727	0	0	0	29233	27840	159278	27310	1077508	46867	110870	0	0	8040	591581	0	0
2024-08-27 22:18:47			0	36717	0	0	0	29225	27830	159246	27026	1077597	46866	110867	0	0	8039	592021	0	0
2024-08-27 22:19:47			0	36730	0	0	0	29228	27840	159338	26802	1077553	46867	110868	0	0	8040	591459	0	0
2024-08-27 22:20:47			0	36741	0	0	0	29223	27830	159390	27000	1077544	46843	110866	0	0	8041	591046	0	0
2024-08-27 22:21:47			0	36730	0	0	0	29223	27830	159286	26864	1077570	46854	110866	0	0	8040	591493	0	0
2024-08-27 22:22:47			0	36756	0	0	0	29218	27830	159190	27277	1077490	46854	110864	0	0	8042	590437	0	0
2024-08-27 22:23:47			0	36783	0	0	0	29218	27840	159062	26863	1077589	46855	110864	0	0	8043	589308	0	0
2024-08-27 22:24:47			0	36803	0	0	0	29207	27830	158994	26876	1077535	46865	110860	0	0	8045	588532	0	0
2024-08-27 22:25:47			0	36824	0	0	0	29212	27830	158994	26894	1077544	46887	110862	0	0	8046	587682	0	0
2024-08-27 22:26:47			0	36813	0	0	0	29215	27830	158894	26908	1077535	46865	110863	0	0	8045	588127	0	0
2024-08-27 22:27:47			0	36819	0	0	0	29210	27820	158958	27157	1077498	46865	110861	0	0	8046	587918	0	0
2024-08-27 22:28:47			0	36819	0	0	0	29210	27830	158926	27027	1077481	46853	110861	0	0	8046	587884	0	0
2024-08-27 22:29:47			0	36818	0	0	0	29202	27820	158974	27020	1077463	46865	110858	0	0	8046	587958	0	0
2024-08-27 22:30:47			0	36835	0	0	0	29212	27820	158950	26781	1077409	46865	110862	0	0	8046	587271	0	0
2024-08-27 22:31:47			0	36818	0	0	0	29212	27820	158890	27090	1077445	46875	110862	0	0	8045	587958	0	0
2024-08-27 22:32:47			0	36818	0	0	0	29207	27830	158946	27182	1077454	46842	110860	0	0	8046	587925	0	0
2024-08-27 22:33:47			0	36806	0	0	0	29205	27820	159030	27109	1077436	46853	110859	0	0	8045	588444	0	0
2024-08-27 22:34:47			0	36796	0	0	0	29197	27810	159118	27034	1077507	46852	110856	0	0	8044	588883	0	0
2024-08-27 22:35:47			0	36783	0	0	0	29197	27820	159174	27112	1077463	46875	110856	0	0	8044	589376	0	0
2024-08-27 22:36:47			0	36786	0	0	0	29197	27820	159078	27114	1077409	46865	110856	0	0	8044	589254	0	0
2024-08-27 22:37:47			0	36785	0	0	0	29202	27810	159174	27057	1077453	46852	110858	0	0	8044	589329	0	0
2024-08-27 22:38:47			0	36781	0	0	0	29202	27820	159118	27267	1077463	46865	110858	0	0	8043	589457	0	0
2024-08-27 22:39:47			0	36749	0	0	0	29189	27800	159086	26849	1077435	46851	110853	0	0	8042	590823	0	0
2024-08-27 22:40:47			0	36790	0	0	0	29192	27810	159166	27013	1077364	46863	110854	0	0	8044	589126	0	0
2024-08-27 22:41:47			0	36750	0	0	0	29192	27810	159278	26785	1077391	46840	110854	0	0	8042	590749	0	0
2024-08-27 22:42:47			0	36746	0	0	0	29189	27810	159274	26863	1077417	46851	110853	0	0	8042	590911	0	0
2024-08-27 22:43:47			0	36718	0	0	0	29192	27790	159398	27046	1077372	46851	110854	0	0	8040	592117	0	0
2024-08-27 22:44:47			0	36705	0	0	0	29181	27790	159466	27034	1077372	46863	110850	0	0	8039	592646	0	0
2024-08-27 22:45:47			0	36662	0	0	0	29184	27790	159470	26861	1077372	46863	110851	0	0	8037	594397	0	0
2024-08-27 22:46:47			0	36688	0	0	0	29189	27780	159558	26771	1077354	46861	110853	0	0	8038	593372	0	0
2024-08-27 22:47:47			0	36662	0	0	0	29189	27790	159650	26824	1077363	46850	110853	0	0	8036	594397	0	0
2024-08-27 22:48:47			0	36664	0	0	0	29171	27800	159666	26899	1077355	46863	110846	0	0	8037	594281	0	0
2024-08-27 22:49:47			0	36676	0	0	0	29173	27790	159622	27086	1077310	46850	110847	0	0	8038	593827	0	0
2024-08-27 22:50:47			0	36665	0	0	0	29176	27790	159714	26987	1077310	46839	110848	0	0	8037	594275	0	0
2024-08-27 22:51:47			0	36671	0	0	0	29179	27790	159722	27189	1077283	46862	110849	0	0	8037	594030	0	0
2024-08-27 22:52:47			0	36672	0	0	0	29192	27790	159646	26934	1077336	46862	110854	0	0	8037	593990	0	0
2024-08-27 22:53:47			0	36663	0	0	0	29184	27780	159710	27005	1077327	46861	110851	0	0	8037	594391	0	0
2024-08-27 22:54:47			0	36670	0	0	0	29181	27790	159734	26802	1077310	46862	110850	0	0	8037	594071	0	0
2024-08-27 22:55:47			0	36672	0	0	0	29184	27790	159750	26835	1077319	46874	110851	0	0	8037	593990	0	0
2024-08-27 22:56:47			0	36673	0	0	0	29186	27780	159698	26760	1077327	46861	110852	0	0	8037	593983	0	0
2024-08-27 22:57:47			0	36674	0	0	0	29189	27780	159690	26892	1077345	46848	110853	0	0	8037	593942	0	0
2024-08-27 22:58:47			0	36651	0	0	0	29179	27780	159718	26772	1077318	46848	110849	0	0	8036	594880	0	0
2024-08-27 22:59:47			0	36657	0	0	0	29184	27770	159790	26854	1077309	46860	110851	0	0	8036	594669	0	0
2024-08-27 23:00:47			0	36660	0	0	0	29179	27780	159730	27031	1077291	46860	110849	0	0	8036	594513	0	0
2024-08-27 23:01:47			0	36649	0	0	0	29184	27780	159806	26922	1077300	46849	110851	0	0	8036	594962	0	0
2024-08-27 23:02:47			0	36652	0	0	0	29189	27770	159726	27274	1077282	46848	110853	0	0	8036	594873	0	0
2024-08-27 23:03:47			0	36672	0	0	0	29179	27780	159674	26864	1077345	46871	110849	0	0	8037	594024	0	0
2024-08-27 23:04:47			0	36659	0	0	0	29179	27770	159662	26982	1077336	46871	110849	0	0	8036	594588	0	0
2024-08-27 23:05:47			0	36651	0	0	0	29173	27770	159734	27284	1077300	46848	110847	0	0	8036	594914	0	0
2024-08-27 23:06:47			0	36663	0	0	0	29176	27790	159690	27234	1077310	46850	110848	0	0	8037	594356	0	0
2024-08-27 23:07:47			0	36663	0	0	0	29166	27780	159754	27187	1077318	46848	110844	0	0	8037	594391	0	0
2024-08-27 23:08:47			0	36642	0	0	0	29179	27780	159838	26960	1077291	46860	110849	0	0	8035	595247	0	0
2024-08-27 23:09:47			0	36638	0	0	0	29171	27770	159754	27187	1077255	46848	110846	0	0	8035	595445	0	0
2024-08-27 23:10:47			0	36654	0	0	0	29179	27770	159806	26913	1077255	46860	110849	0	0	8036	594792	0	0
2024-08-27 23:11:47			0	36623	0	0	0	29171	27770	159854	27213	1077300	46848	110846	0	0	8034	596057	0	0
2024-08-27 23:12:47			0	36617	0	0	0	29168	27770	159870	26868	1077228	46860	110845	0	0	8034	596302	0	0
2024-08-27 23:13:47			0	36612	0	0	0	29168	27780	159846	26896	1077237	46860	110845	0	0	8034	596472	0	0
2024-08-27 23:14:47			0	36621	0	0	0	29158	27780	159894	27095	1077291	46860	110841	0	0	8035	596105	0	0
2024-08-27 23:15:47			0	36602	0	0	0	29173	27770	160014	26878	1077282	46848	110847	0	0	8033	596915	0	0
2024-08-27 23:16:47			0	36572	0	0	0	29168	27770	160069	26897	1077219	46848	110845	0	0	8031	598143	0	0
2024-08-27 23:17:47			0	36561	0	0	0	29153	27770	160129	26738	1077219	46871	110839	0	0	8031	598594	0	0
2024-08-27 23:18:47			0	36556	0	0	0	29161	27770	160117	27053	1077201	46848	110842	0	0	8031	598798	0	0
2024-08-27 23:19:47			0	36534	0	0	0	29155	27760	160189	27043	1077183	46859	110840	0	0	8029	599735	0	0
2024-08-27 23:20:47			0	36535	0	0	0	29155	27760	160181	27144	1077237	46859	110840	0	0	8029	599694	0	0
2024-08-27 23:21:47			0	36542	0	0	0	29155	27760	160185	27083	1077174	46846	110840	0	0	8030	599407	0	0
2024-08-27 23:22:47			0	36536	0	0	0	29155	27760	160233	27057	1077174	46858	110840	0	0	8029	599653	0	0
2024-08-27 23:23:47			0	36545	0	0	0	29158	27770	160241	26986	1077219	46860	110841	0	0	8030	599249	0	0
2024-08-27 23:24:47			0	36543	0	0	0	29161	27760	160257	27137	1077228	46858	110842	0	0	8030	599366	0	0
2024-08-27 23:25:47			0	36553	0	0	0	29158	27760	160165	27114	1077210	46847	110841	0	0	8030	598956	0	0
2024-08-27 23:26:47			0	36543	0	0	0	29155	27750	160221	27343	1077192	46846	110840	0	0	8030	599400	0	0
2024-08-27 23:27:47			0	36535	0	0	0	29148	27760	160305	27074	1077228	46846	110837	0	0	8029	599694	0	0
2024-08-27 23:28:47			0	36548	0	0	0	29158	27760	160225	27227	1077210	46870	110841	0	0	8030	599161	0	0
2024-08-27 23:29:47			0	36541	0	0	0	29153	27760	160317	26944	1077174	46858	110839	0	0	8030	599448	0	0
2024-08-27 23:30:47			0	36519	0	0	0	29150	27770	160285	27093	1077165	46860	110838	0	0	8029	600316	0	0
2024-08-27 23:31:47			0	36532	0	0	0	29142	27750	160153	27322	1077165	46846	110835	0	0	8029	599852	0	0
2024-08-27 23:32:47			0	36518	0	0	0	29145	27760	160321	27227	1077120	46869	110836	0	0	8029	600392	0	0
2024-08-27 23:33:47			0	36524	0	0	0	29142	27740	160329	27301	1077138	46844	110835	0	0	8029	600214	0	0
2024-08-27 23:34:47			0	36505	0	0	0	29142	27760	160353	27109	1077147	46858	110835	0	0	8028	600925	0	0
2024-08-27 23:35:47			0	36513	0	0	0	29145	27760	160469	27050	1077102	46847	110836	0	0	8028	600597	0	0
2024-08-27 23:36:47			0	36508	0	0	0	29135	27750	160441	26871	1077165	46835	110832	0	0	8028	600837	0	0
2024-08-27 23:37:47			0	36503	0	0	0	29137	27750	160421	26963	1077129	46846	110833	0	0	8028	601042	0	0
2024-08-27 23:38:47			0	36497	0	0	0	29135	27740	160505	27177	1077066	46857	110832	0	0	8027	601323	0	0
2024-08-27 23:39:47			0	36500	0	0	0	29135	27740	160497	27138	1077057	46844	110832	0	0	8028	601200	0	0
2024-08-27 23:40:47			0	36484	0	0	0	29127	27750	160457	26899	1077075	46846	110829	0	0	8027	601823	0	0
2024-08-27 23:41:47			0	36481	0	0	0	29129	27740	160469	26861	1077084	46856	110830	0	0	8027	601981	0	0
2024-08-27 23:42:47			0	36469	0	0	0	29129	27740	160589	27258	1077057	46844	110830	0	0	8026	602475	0	0
2024-08-27 23:43:47			0	36484	0	0	0	29124	27730	160525	26824	1077021	46856	110828	0	0	8027	601892	0	0
2024-08-27 23:44:47			0	36477	0	0	0	29129	27740	160593	27098	1077111	46856	110830	0	0	8026	602146	0	0
2024-08-27 23:45:47			0	36476	0	0	0	29116	27720	160497	26814	1077003	46855	110825	0	0	8026	602256	0	0
2024-08-27 23:46:47			0	36475	0	0	0	29111	27730	160513	26902	1077021	46856	110823	0	0	8026	602263	0	0
2024-08-27 23:47:47			0	36469	0	0	0	29116	27730	160473	26996	1077012	46844	110825	0	0	8026	602510	0	0
2024-08-27 23:48:47			0	36460	0	0	0	29116	27720	160565	26857	1076967	46854	110825	0	0	8025	602915	0	0
2024-08-27 23:49:47			0	36475	0	0	0	29111	27730	160665	27105	1076967	46833	110823	0	0	8026	602263	0	0
2024-08-27 23:50:47			0	36470	0	0	0	29111	27720	160649	26920	1077057	46855	110823	0	0	8026	602503	0	0
2024-08-27 23:51:47			0	36473	0	0	0	29114	27730	160645	26873	1077039	46867	110824	0	0	8026	602345	0	0
2024-08-27 23:52:47			0	36467	0	0	0	29114	27710	160685	27060	1076958	46865	110824	0	0	8026	602661	0	0
2024-08-27 23:53:47			0	36466	0	0	0	29111	27720	160701	26979	1077003	46843	110823	0	0	8026	602668	0	0
2024-08-27 23:54:47			0	36458	0	0	0	29116	27710	160709	27092	1076958	46842	110825	0	0	8025	603032	0	0
2024-08-27 23:55:47			0	36459	0	0	0	29127	27720	160721	27041	1077003	46866	110829	0	0	8025	602956	0	0
2024-08-27 23:56:47			0	36454	0	0	0	29114	27720	160657	26984	1076994	46854	110824	0	0	8025	603162	0	0
2024-08-27 23:57:47			0	36458	0	0	0	29119	27720	160761	27062	1077057	46855	110826	0	0	8025	602997	0	0
2024-08-27 23:58:47			0	36477	0	0	0	29122	27720	160689	27078	1077030	46843	110827	0	0	8026	602215	0	0
2024-08-27 23:59:47			0	36479	0	0	0	29119	27720	160597	26934	1077003	46866	110826	0	0	8026	602133	0	0
2024-08-28 00:00:47			0	36470	0	0	0	29119	27710	160525	26901	1076904	46854	110826	0	0	8026	602538	0	0
2024-08-28 00:01:47			0	36511	0	0	0	29116	27710	160509	27157	1076931	46865	110825	0	0	8028	600852	0	0
2024-08-28 00:02:47			0	36512	0	0	0	29103	27710	160381	26937	1076958	46842	110820	0	0	8029	600811	0	0
2024-08-28 00:03:47			0	36532	0	0	0	29114	27720	160277	27145	1076994	46854	110824	0	0	8030	599955	0	0
2024-08-28 00:04:47			0	36550	0	0	0	29111	27720	160257	26850	1076940	46842	110823	0	0	8031	599217	0	0
2024-08-28 00:05:47			0	36575	0	0	0	29106	27710	160129	27095	1076922	46853	110821	0	0	8032	598227	0	0
2024-08-28 00:06:47			0	36567	0	0	0	29103	27720	160225	27218	1076976	46855	110820	0	0	8032	598520	0	0
2024-08-28 00:07:47			0	36586	0	0	0	29109	27710	160049	27079	1076931	46854	110822	0	0	8033	597777	0	0
2024-08-28 00:08:47			0	36594	0	0	0	29109	27710	159966	27095	1076931	46865	110822	0	0	8033	597449	0	0
2024-08-28 00:09:47			0	36596	0	0	0	29109	27720	160082	26618	1076994	46854	110822	0	0	8034	597333	0	0
2024-08-28 00:10:47			0	36588	0	0	0	29116	27710	160061	26786	1076877	46854	110825	0	0	8033	597695	0	0
2024-08-28 00:11:47			0	36575	0	0	0	29111	27710	160073	27102	1076931	46854	110823	0	0	8032	598227	0	0
2024-08-28 00:12:47			0	36577	0	0	0	29103	27700	160105	26845	1076967	46841	110820	0	0	8032	598179	0	0
2024-08-28 00:13:47			0	36576	0	0	0	29103	27700	160089	27135	1076994	46853	110820	0	0	8032	598220	0	0
2024-08-28 00:14:47			0	36585	0	0	0	29096	27710	160117	26863	1076949	46853	110817	0	0	8033	597818	0	0
2024-08-28 00:15:47			0	36578	0	0	0	29101	27710	160217	26902	1076976	46841	110819	0	0	8033	598104	0	0
2024-08-28 00:16:47			0	36577	0	0	0	29111	27710	160165	26769	1076904	46842	110823	0	0	8032	598145	0	0
2024-08-28 00:17:47			0	36578	0	0	0	29106	27710	160141	27251	1076976	46841	110821	0	0	8033	598104	0	0
2024-08-28 00:18:47			0	36573	0	0	0	29114	27710	160193	27154	1076922	46853	110824	0	0	8032	598309	0	0
2024-08-28 00:19:47			0	36585	0	0	0	29101	27710	160101	26772	1076895	46864	110819	0	0	8033	597818	0	0
2024-08-28 00:20:47			0	36585	0	0	0	29106	27710	160169	27074	1076922	46853	110821	0	0	8033	597818	0	0
2024-08-28 00:21:47			0	36594	0	0	0	29106	27700	160253	27121	1076967	46841	110821	0	0	8033	597483	0	0
2024-08-28 00:22:47			0	36580	0	0	0	29106	27710	160225	26752	1076895	46853	110821	0	0	8033	598022	0	0
2024-08-28 00:23:47			0	36568	0	0	0	29109	27710	160109	27012	1076985	46854	110822	0	0	8032	598514	0	0
2024-08-28 00:24:47			0	36565	0	0	0	29103	27700	160129	27015	1076913	46853	110820	0	0	8032	598671	0	0
2024-08-28 00:25:47			0	36571	0	0	0	29096	27700	160205	26942	1076877	46852	110817	0	0	8032	598425	0	0
2024-08-28 00:26:47			0	36558	0	0	0	29103	27700	160157	27062	1076940	46864	110820	0	0	8031	598958	0	0
2024-08-28 00:27:47			0	36561	0	0	0	29101	27700	160213	26739	1076877	46852	110819	0	0	8032	598835	0	0
2024-08-28 00:28:47			0	36564	0	0	0	29090	27700	160253	26972	1076913	46853	110815	0	0	8032	598712	0	0
2024-08-28 00:29:47			0	36561	0	0	0	29098	27700	160137	27069	1076832	46841	110818	0	0	8032	598835	0	0
2024-08-28 00:30:47			0	36561	0	0	0	29098	27700	160209	26946	1076931	46840	110818	0	0	8032	598835	0	0
2024-08-28 00:31:47			0	36547	0	0	0	29098	27700	160201	26956	1076850	46840	110818	0	0	8031	599409	0	0
2024-08-28 00:32:47			0	36557	0	0	0	29093	27710	160301	27196	1076841	46864	110816	0	0	8031	598964	0	0
2024-08-28 00:33:47			0	36547	0	0	0	29096	27710	160233	27244	1076931	46854	110817	0	0	8031	599374	0	0
2024-08-28 00:34:47			0	36542	0	0	0	29098	27700	160145	27204	1076823	46852	110818	0	0	8030	599614	0	0
2024-08-28 00:35:47			0	36532	0	0	0	29096	27710	160233	27092	1076895	46853	110817	0	0	8030	599990	0	0
2024-08-28 00:36:47			0	36539	0	0	0	29090	27700	160245	27249	1076850	46840	110815	0	0	8030	599737	0	0
2024-08-28 00:37:47			0	36541	0	0	0	29083	27690	160245	27124	1076805	46851	110812	0	0	8031	599690	0	0
2024-08-28 00:38:47			0	36531	0	0	0	29088	27700	160393	27235	1076850	46863	110814	0	0	8030	600065	0	0
2024-08-28 00:39:47			0	36526	0	0	0	29080	27690	160445	27480	1076868	46862	110811	0	0	8030	600305	0	0
2024-08-28 00:40:47			0	36524	0	0	0	29093	27690	160329	27291	1076832	46862	110816	0	0	8029	600387	0	0
2024-08-28 00:41:47			0	36526	0	0	0	29080	27690	160385	27300	1076841	46839	110811	0	0	8030	600305	0	0
2024-08-28 00:42:47			0	36531	0	0	0	29080	27690	160517	27286	1076832	46817	110811	0	0	8030	600100	0	0
2024-08-28 00:43:47			0	36501	0	0	0	29075	27690	160489	27067	1076832	46862	110809	0	0	8028	601332	0	0
2024-08-28 00:44:47			0	36495	0	0	0	29077	27680	160517	27284	1076733	46850	110810	0	0	8028	601614	0	0
2024-08-28 00:45:47			0	36516	0	0	0	29072	27680	160577	27095	1076796	46851	110808	0	0	8029	600750	0	0
2024-08-28 00:46:47			0	36486	0	0	0	29072	27690	160653	27145	1076832	46839	110808	0	0	8028	601949	0	0
2024-08-28 00:47:47			0	36487	0	0	0	29067	27680	160573	27241	1076760	46850	110806	0	0	8028	601942	0	0
2024-08-28 00:48:47			0	36483	0	0	0	29075	27690	160569	27005	1076832	46851	110809	0	0	8027	602072	0	0
2024-08-28 00:49:47			0	36473	0	0	0	29075	27680	160673	27180	1076742	46829	110809	0	0	8027	602518	0	0
2024-08-28 00:50:47			0	36481	0	0	0	29067	27680	160661	27026	1076796	46851	110806	0	0	8027	602189	0	0
2024-08-28 00:51:47			0	36469	0	0	0	29062	27680	160641	27112	1076769	46839	110804	0	0	8027	602683	0	0
2024-08-28 00:52:47			0	36467	0	0	0	29054	27680	160689	27222	1076706	46861	110801	0	0	8027	602766	0	0
2024-08-28 00:53:47			0	36460	0	0	0	29051	27660	160697	27196	1076652	46837	110800	0	0	8026	603123	0	0
2024-08-28 00:54:47			0	36468	0	0	0	29051	27670	160745	27281	1076724	46837	110800	0	0	8027	602759	0	0
2024-08-28 00:55:47			0	36471	0	0	0	29054	27680	160757	26958	1076652	46838	110801	0	0	8027	602601	0	0
2024-08-28 00:56:47			0	36435	0	0	0	29057	27670	160777	27118	1076751	46849	110802	0	0	8025	604119	0	0
2024-08-28 00:57:47			0	36451	0	0	0	29057	27660	160801	27104	1076652	46837	110802	0	0	8026	603494	0	0
2024-08-28 00:58:47			0	36451	0	0	0	29064	27660	160813	27050	1076652	46849	110805	0	0	8025	603494	0	0
2024-08-28 00:59:47			0	36447	0	0	0	29059	27670	160905	27157	1076688	46849	110803	0	0	8025	603624	0	0
2024-08-28 01:00:47			0	36439	0	0	0	29051	27660	160861	27053	1076679	46849	110800	0	0	8025	603989	0	0
2024-08-28 01:01:47			0	36444	0	0	0	29054	27660	160961	27092	1076724	46847	110801	0	0	8025	603782	0	0
2024-08-28 01:02:47			0	36439	0	0	0	29054	27660	160789	27246	1076733	46860	110801	0	0	8025	603989	0	0
2024-08-28 01:03:47			0	36431	0	0	0	29049	27660	160769	26979	1076706	46837	110799	0	0	8024	604319	0	0
2024-08-28 01:04:47			0	36431	0	0	0	29054	27660	160797	27156	1076751	46847	110801	0	0	8024	604319	0	0
2024-08-28 01:05:47			0	36449	0	0	0	29049	27660	160801	27128	1076724	46847	110799	0	0	8026	603576	0	0
2024-08-28 01:06:47			0	36450	0	0	0	29046	27660	160789	27013	1076652	46849	110798	0	0	8026	603535	0	0
2024-08-28 01:07:47			0	36443	0	0	0	29046	27670	160801	27358	1076634	46837	110798	0	0	8025	603789	0	0
2024-08-28 01:08:47			0	36427	0	0	0	29038	27650	160777	26975	1076598	46858	110795	0	0	8024	604518	0	0
2024-08-28 01:09:47			0	36440	0	0	0	29044	27650	160797	27145	1076633	46835	110797	0	0	8025	603982	0	0
2024-08-28 01:10:47			0	36437	0	0	0	29028	27640	160753	27168	1076588	46845	110791	0	0	8025	604141	0	0
2024-08-28 01:11:47			0	36428	0	0	0	29046	27660	160913	27079	1076589	46836	110798	0	0	8024	604442	0	0
2024-08-28 01:12:47			0	36419	0	0	0	29044	27650	160805	27013	1076633	46835	110797	0	0	8024	604848	0	0
2024-08-28 01:13:47			0	36430	0	0	0	29049	27650	160853	27144	1076624	46858	110799	0	0	8024	604395	0	0
2024-08-28 01:14:47			0	36415	0	0	0	29051	27630	160929	27251	1076651	46845	110800	0	0	8023	605083	0	0
2024-08-28 01:15:47			0	36425	0	0	0	29051	27650	160869	26857	1076624	46869	110800	0	0	8024	604601	0	0
2024-08-28 01:16:47			0	36428	0	0	0	29044	27650	160921	27197	1076624	46858	110797	0	0	8024	604477	0	0
2024-08-28 01:17:47			0	36422	0	0	0	29046	27650	160849	27201	1076624	46846	110798	0	0	8024	604725	0	0
2024-08-28 01:18:47			0	36428	0	0	0	29041	27650	160833	27161	1076660	46858	110796	0	0	8024	604477	0	0
2024-08-28 01:19:47			0	36414	0	0	0	29038	27650	160897	27294	1076624	46858	110795	0	0	8024	605055	0	0
2024-08-28 01:20:47			0	36441	0	0	0	29028	27640	160877	27326	1076525	46834	110791	0	0	8025	603976	0	0
2024-08-28 01:21:47			0	36393	0	0	0	29033	27630	161065	27078	1076570	46845	110793	0	0	8022	605992	0	0
2024-08-28 01:22:47			0	36367	0	0	0	29023	27630	161145	27232	1076543	46845	110789	0	0	8021	607067	0	0
2024-08-28 01:23:47			0	36378	0	0	0	29033	27630	161189	27067	1076570	46845	110793	0	0	8021	606612	0	0
2024-08-28 01:24:47			0	36336	0	0	0	29028	27630	161257	27085	1076570	46823	110791	0	0	8019	608351	0	0
2024-08-28 01:25:47			0	36362	0	0	0	29023	27630	161137	26880	1076597	46845	110789	0	0	8021	607274	0	0
2024-08-28 01:26:47			0	36357	0	0	0	29028	27630	161145	26927	1076561	46845	110791	0	0	8020	607481	0	0
2024-08-28 01:27:47			0	36392	0	0	0	29025	27630	161089	27154	1076570	46845	110790	0	0	8022	606033	0	0
2024-08-28 01:28:47			0	36381	0	0	0	29033	27630	161001	27185	1076507	46845	110793	0	0	8022	606488	0	0
2024-08-28 01:29:47			0	36389	0	0	0	29028	27620	161033	27159	1076552	46844	110791	0	0	8022	606192	0	0
2024-08-28 01:30:47			0	36401	0	0	0	29031	27630	161061	27293	1076597	46856	110792	0	0	8023	605661	0	0
2024-08-28 01:31:47			0	36400	0	0	0	29020	27640	160997	27128	1076525	46834	110788	0	0	8023	605668	0	0
2024-08-28 01:32:47			0	36412	0	0	0	29031	27620	160901	27121	1076579	46844	110792	0	0	8023	605242	0	0
2024-08-28 01:33:47			0	36404	0	0	0	29023	27630	160957	26852	1076543	46845	110789	0	0	8023	605538	0	0
2024-08-28 01:34:47			0	36410	0	0	0	29023	27620	160937	26774	1076498	46833	110789	0	0	8023	605324	0	0
2024-08-28 01:35:47			0	36425	0	0	0	29018	27630	160921	27069	1076516	46845	110787	0	0	8024	604671	0	0
2024-08-28 01:36:47			0	36412	0	0	0	29012	27630	160977	26972	1076507	46833	110785	0	0	8024	605207	0	0
2024-08-28 01:37:47			0	36407	0	0	0	29028	27630	160997	26975	1076507	46856	110791	0	0	8023	605414	0	0
2024-08-28 01:38:47			0	36417	0	0	0	29015	27620	160881	27093	1076498	46833	110786	0	0	8024	605036	0	0
2024-08-28 01:39:47			0	36431	0	0	0	29018	27620	160929	27170	1076516	46844	110787	0	0	8025	604458	0	0
2024-08-28 01:40:47			0	36436	0	0	0	29015	27620	160857	27100	1076471	46844	110786	0	0	8025	604251	0	0
2024-08-28 01:41:47			0	36433	0	0	0	29036	27620	160813	27131	1076498	46844	110794	0	0	8025	604375	0	0
2024-08-28 01:42:47			0	36431	0	0	0	29036	27630	160889	26939	1076507	46856	110794	0	0	8025	604423	0	0
2024-08-28 01:43:47			0	36453	0	0	0	29031	27630	160885	27287	1076480	46856	110792	0	0	8026	603516	0	0
2024-08-28 01:44:47			0	36443	0	0	0	29025	27620	160825	27230	1076489	46866	110790	0	0	8025	603963	0	0
2024-08-28 01:45:47			0	36455	0	0	0	29020	27630	160877	27222	1076597	46856	110788	0	0	8026	603433	0	0
2024-08-28 01:46:47			0	36456	0	0	0	29015	27630	160833	26885	1076507	46833	110786	0	0	8026	603392	0	0
2024-08-28 01:47:47			0	36443	0	0	0	29010	27630	160709	27180	1076489	46856	110784	0	0	8026	603928	0	0
2024-08-28 01:48:47			0	36467	0	0	0	29010	27620	160705	27189	1076444	46855	110784	0	0	8027	602974	0	0
2024-08-28 01:49:47			0	36468	0	0	0	29005	27620	160649	26824	1076498	46855	110782	0	0	8027	602933	0	0
2024-08-28 01:50:47			0	36485	0	0	0	29012	27630	160717	27206	1076480	46845	110785	0	0	8028	602198	0	0
2024-08-28 01:51:47			0	36486	0	0	0	29025	27620	160713	27225	1076498	46833	110790	0	0	8028	602192	0	0
2024-08-28 01:52:47			0	36466	0	0	0	29025	27620	160637	27067	1076471	46844	110790	0	0	8027	603015	0	0
2024-08-28 01:53:47			0	36477	0	0	0	29028	27620	160701	27211	1076462	46855	110791	0	0	8027	602562	0	0
2024-08-28 01:54:47			0	36475	0	0	0	29020	27630	160605	27095	1076507	46856	110788	0	0	8027	602610	0	0
2024-08-28 01:55:47			0	36493	0	0	0	29015	27620	160641	27234	1076552	46833	110786	0	0	8029	601904	0	0
2024-08-28 01:56:47			0	36478	0	0	0	29012	27620	160653	26861	1076489	46833	110785	0	0	8028	602521	0	0
2024-08-28 01:57:47			0	36491	0	0	0	29012	27620	160641	27204	1076471	46844	110785	0	0	8028	601986	0	0
2024-08-28 01:58:47			0	36502	0	0	0	29020	27620	160629	27415	1076444	46844	110788	0	0	8029	601533	0	0
2024-08-28 01:59:47			0	36510	0	0	0	29012	27620	160457	27279	1076462	46855	110785	0	0	8030	601205	0	0
2024-08-28 02:00:47			0	36506	0	0	0	29015	27610	160617	27085	1076480	46832	110786	0	0	8029	601404	0	0
2024-08-28 02:01:47			0	36522	0	0	0	29015	27620	160521	26925	1076498	46855	110786	0	0	8030	600711	0	0
2024-08-28 02:02:47			0	36518	0	0	0	29012	27620	160605	27126	1076516	46844	110785	0	0	8030	600876	0	0
2024-08-28 02:03:47			0	36502	0	0	0	29018	27610	160569	27062	1076534	46842	110787	0	0	8029	601568	0	0
2024-08-28 02:04:47			0	36497	0	0	0	29020	27610	160649	27093	1076453	46842	110788	0	0	8029	601774	0	0
2024-08-28 02:05:47			0	36501	0	0	0	29015	27610	160565	26916	1076444	46841	110786	0	0	8029	601609	0	0
2024-08-28 02:06:47			0	36526	0	0	0	29020	27610	160617	27100	1076507	46832	110788	0	0	8030	600582	0	0
2024-08-28 02:07:47			0	36522	0	0	0	29010	27610	160661	26658	1076453	46832	110784	0	0	8030	600746	0	0
2024-08-28 02:08:47			0	36538	0	0	0	29007	27610	160449	26755	1076426	46842	110783	0	0	8031	600089	0	0
2024-08-28 02:09:47			0	36552	0	0	0	29005	27620	160509	26951	1076408	46833	110782	0	0	8032	599480	0	0
2024-08-28 02:10:47			0	36543	0	0	0	29005	27600	160345	27144	1076408	46853	110782	0	0	8032	599918	0	0
2024-08-28 02:11:47			0	36572	0	0	0	28994	27610	160381	27241	1076399	46832	110778	0	0	8034	598694	0	0
2024-08-28 02:12:47			0	36577	0	0	0	29005	27610	160361	27190	1076417	46831	110782	0	0	8034	598489	0	0
2024-08-28 02:13:47			0	36572	0	0	0	28999	27600	160369	27168	1076453	46831	110780	0	0	8033	598729	0	0
2024-08-28 02:14:47			0	36603	0	0	0	29005	27600	160310	27114	1076372	46841	110782	0	0	8035	597459	0	0
2024-08-28 02:15:47			0	36592	0	0	0	29012	27600	160330	27114	1076408	46841	110785	0	0	8034	597909	0	0
2024-08-28 02:16:47			0	36586	0	0	0	29005	27600	160313	26651	1076399	46841	110782	0	0	8034	598155	0	0
2024-08-28 02:17:47			0	36606	0	0	0	29002	27610	160250	27227	1076444	46841	110781	0	0	8035	597302	0	0
2024-08-28 02:18:47			0	36612	0	0	0	29007	27600	160234	27265	1076354	46841	110783	0	0	8036	597091	0	0
2024-08-28 02:19:47			0	36614	0	0	0	29005	27610	160226	27086	1076444	46841	110782	0	0	8036	596975	0	0
2024-08-28 02:20:47			0	36631	0	0	0	28997	27610	160086	26987	1076390	46841	110779	0	0	8037	596280	0	0
2024-08-28 02:21:47			0	36633	0	0	0	29002	27600	160202	26601	1076372	46853	110781	0	0	8037	596232	0	0
2024-08-28 02:22:47			0	36627	0	0	0	29005	27600	160134	27261	1076426	46841	110782	0	0	8037	596477	0	0
2024-08-28 02:23:47			0	36637	0	0	0	29007	27600	160106	27300	1076354	46841	110783	0	0	8037	596069	0	0
2024-08-28 02:24:47			0	36631	0	0	0	28992	27610	159998	27239	1076417	46841	110777	0	0	8037	596280	0	0
2024-08-28 02:25:47			0	36636	0	0	0	29005	27600	160002	27156	1076399	46841	110782	0	0	8037	596109	0	0
2024-08-28 02:26:47			0	36661	0	0	0	28989	27600	159946	27159	1076399	46864	110776	0	0	8039	595089	0	0
2024-08-28 02:27:47			0	36648	0	0	0	28986	27590	159810	26847	1076390	46819	110775	0	0	8038	595654	0	0
2024-08-28 02:28:47			0	36671	0	0	0	28984	27590	159874	27130	1076363	46852	110774	0	0	8040	594715	0	0
2024-08-28 02:29:47			0	36665	0	0	0	28992	27590	159782	27202	1076327	46839	110777	0	0	8039	594960	0	0
2024-08-28 02:30:47			0	36685	0	0	0	28979	27590	159810	27152	1076309	46852	110772	0	0	8040	594144	0	0
2024-08-28 02:31:47			0	36677	0	0	0	28976	27590	159858	27260	1076327	46839	110771	0	0	8040	594470	0	0
2024-08-28 02:32:47			0	36687	0	0	0	28976	27590	159698	27320	1076354	46839	110771	0	0	8041	594062	0	0
2024-08-28 02:33:47			0	36700	0	0	0	28986	27590	159754	27260	1076300	46839	110775	0	0	8041	593532	0	0
2024-08-28 02:34:47			0	36692	0	0	0	28997	27590	159874	27355	1076327	46839	110779	0	0	8041	593858	0	0
2024-08-28 02:35:47			0	36706	0	0	0	28984	27590	159726	27135	1076309	46830	110774	0	0	8042	593288	0	0
2024-08-28 02:36:47			0	36689	0	0	0	28992	27590	159706	27133	1076354	46839	110777	0	0	8040	593981	0	0
2024-08-28 02:37:47			0	36710	0	0	0	28986	27590	159742	27178	1076255	46840	110775	0	0	8042	593125	0	0
2024-08-28 02:38:47			0	36701	0	0	0	28984	27590	159630	27142	1076327	46839	110774	0	0	8041	593492	0	0
2024-08-28 02:39:47			0	36718	0	0	0	28976	27580	159614	27171	1076318	46839	110771	0	0	8042	592833	0	0
2024-08-28 02:40:47			0	36721	0	0	0	28979	27590	159686	27078	1076273	46851	110772	0	0	8043	592677	0	0
2024-08-28 02:41:47			0	36726	0	0	0	28968	27580	159682	27109	1076318	46839	110768	0	0	8043	592508	0	0
2024-08-28 02:42:47			0	36715	0	0	0	28973	27580	159638	27116	1076291	46839	110770	0	0	8042	592956	0	0
2024-08-28 02:43:47			0	36726	0	0	0	28966	27580	159678	26939	1076264	46829	110767	0	0	8043	592508	0	0
2024-08-28 02:44:47			0	36722	0	0	0	28968	27580	159722	27202	1076255	46850	110768	0	0	8043	592671	0	0
2024-08-28 02:45:47			0	36713	0	0	0	28976	27580	159674	27060	1076255	46850	110771	0	0	8042	593037	0	0
2024-08-28 02:46:47			0	36706	0	0	0	28971	27570	159590	27105	1076219	46850	110769	0	0	8042	593356	0	0
2024-08-28 02:47:47			0	36718	0	0	0	28966	27570	159714	27074	1076237	46837	110767	0	0	8042	592868	0	0
2024-08-28 02:48:47			0	36733	0	0	0	28968	27580	159722	27222	1076282	46838	110768	0	0	8043	592223	0	0
2024-08-28 02:49:47			0	36719	0	0	0	28963	27580	159730	27171	1076255	46828	110766	0	0	8043	592793	0	0
2024-08-28 02:50:47			0	36712	0	0	0	28961	27580	159618	27194	1076255	46828	110765	0	0	8042	593078	0	0
2024-08-28 02:51:47			0	36715	0	0	0	28961	27570	159750	26946	1076264	46837	110765	0	0	8042	592990	0	0
2024-08-28 02:52:47			0	36702	0	0	0	28948	27570	159790	26944	1076192	46850	110760	0	0	8042	593519	0	0
2024-08-28 02:53:47			0	36714	0	0	0	28945	27560	159722	26994	1076165	46836	110759	0	0	8043	593064	0	0
2024-08-28 02:54:47			0	36695	0	0	0	28950	27560	159866	26804	1076228	46837	110761	0	0	8041	593839	0	0
2024-08-28 02:55:47			0	36701	0	0	0	28945	27560	159746	26889	1076111	46836	110759	0	0	8042	593594	0	0
2024-08-28 02:56:47			0	36684	0	0	0	28953	27550	159798	27076	1076075	46826	110762	0	0	8041	594321	0	0
2024-08-28 02:57:47			0	36691	0	0	0	28948	27560	159842	26989	1076174	46837	110760	0	0	8041	594002	0	0
2024-08-28 02:58:47			0	36697	0	0	0	28948	27560	159830	26949	1076201	46837	110760	0	0	8042	593757	0	0
2024-08-28 02:59:47			0	36686	0	0	0	28948	27550	159734	26892	1076210	46848	110760	0	0	8041	594240	0	0
2024-08-28 03:00:47			0	36703	0	0	0	28953	27550	159730	27254	1076093	46825	110762	0	0	8042	593547	0	0
2024-08-28 03:01:47			0	36683	0	0	0	28942	27550	159822	26901	1076120	46858	110758	0	0	8041	594362	0	0
2024-08-28 03:02:47			0	36684	0	0	0	28950	27550	159710	26951	1076156	46859	110761	0	0	8041	594321	0	0
2024-08-28 03:03:47			0	36688	0	0	0	28945	27550	159890	26703	1076120	46825	110759	0	0	8041	594158	0	0
2024-08-28 03:04:47			0	36670	0	0	0	28950	27550	159914	27171	1076183	46836	110761	0	0	8040	594892	0	0
2024-08-28 03:05:47			0	36656	0	0	0	28942	27550	159958	27203	1076147	46825	110758	0	0	8039	595464	0	0
2024-08-28 03:06:47			0	36640	0	0	0	28940	27550	159986	27074	1076102	46848	110757	0	0	8038	596118	0	0
2024-08-28 03:07:47			0	36669	0	0	0	28942	27550	159890	27422	1076093	46835	110758	0	0	8040	594933	0	0
2024-08-28 03:08:47			0	36693	0	0	0	28940	27550	159878	27339	1076120	46825	110757	0	0	8041	593954	0	0
2024-08-28 03:09:47			0	36709	0	0	0	28950	27550	159758	26715	1076093	46835	110761	0	0	8042	593302	0	0
2024-08-28 03:10:47			0	36752	0	0	0	28950	27550	159514	27104	1076120	46847	110761	0	0	8045	591552	0	0
2024-08-28 03:11:47			0	36805	0	0	0	28932	27550	159290	27208	1076066	46825	110754	0	0	8048	589400	0	0
2024-08-28 03:12:47			0	36870	0	0	0	28945	27550	158922	27041	1076093	46825	110759	0	0	8052	586768	0	0
2024-08-28 03:13:47			0	36894	0	0	0	28937	27540	158834	27066	1076138	46835	110756	0	0	8053	585832	0	0
2024-08-28 03:14:47			0	36947	0	0	0	28942	27540	158766	26894	1076129	46834	110758	0	0	8056	583694	0	0
2024-08-28 03:15:47			0	36948	0	0	0	28942	27540	158662	27083	1076111	46835	110758	0	0	8056	583654	0	0
2024-08-28 03:16:47			0	36984	0	0	0	28932	27540	158530	27294	1076138	46835	110754	0	0	8059	582205	0	0
2024-08-28 03:17:47			0	37014	0	0	0	28932	27550	158606	27119	1076066	46847	110754	0	0	8060	580966	0	0
2024-08-28 03:18:47			0	37034	0	0	0	28940	27540	158394	26880	1076075	46834	110757	0	0	8061	580196	0	0
2024-08-28 03:19:47			0	37047	0	0	0	28924	27540	158410	27296	1076048	46846	110751	0	0	8062	579675	0	0
2024-08-28 03:20:47			0	37073	0	0	0	28929	27540	158238	27291	1076102	46846	110753	0	0	8064	578633	0	0
2024-08-28 03:21:47			0	37078	0	0	0	28924	27540	158214	27346	1076021	46834	110751	0	0	8064	578432	0	0
2024-08-28 03:22:47			0	37090	0	0	0	28932	27540	158094	27220	1076057	46835	110754	0	0	8065	577952	0	0
2024-08-28 03:23:47			0	37106	0	0	0	28929	27540	158206	27086	1076084	46835	110753	0	0	8066	577312	0	0
2024-08-28 03:24:47			0	37094	0	0	0	28922	27530	158226	27157	1076066	46834	110750	0	0	8065	577825	0	0
2024-08-28 03:25:47			0	37089	0	0	0	28927	27530	158090	27078	1076066	46834	110752	0	0	8065	578025	0	0
2024-08-28 03:26:47			0	37095	0	0	0	28927	27530	158110	27275	1076066	46834	110752	0	0	8065	577785	0	0
2024-08-28 03:27:47			0	37101	0	0	0	28924	27530	158054	27187	1076030	46833	110751	0	0	8066	577545	0	0
2024-08-28 03:28:47			0	37099	0	0	0	28922	27540	157978	27187	1076102	46834	110750	0	0	8066	577592	0	0
2024-08-28 03:29:47			0	37097	0	0	0	28932	27530	158070	27119	1076030	46833	110754	0	0	8065	577705	0	0
2024-08-28 03:30:47			0	37109	0	0	0	28924	27530	158014	27339	1076012	46834	110751	0	0	8066	577225	0	0
2024-08-28 03:31:47			0	37126	0	0	0	28932	27530	158010	26993	1076039	46834	110754	0	0	8067	576545	0	0
2024-08-28 03:32:47			0	37125	0	0	0	28929	27540	157950	27215	1076075	46824	110753	0	0	8067	576552	0	0
2024-08-28 03:33:47			0	37126	0	0	0	28924	27530	157934	26861	1076030	46845	110751	0	0	8067	576545	0	0
2024-08-28 03:34:47			0	37136	0	0	0	28919	27530	157930	27234	1076039	46834	110749	0	0	8068	576146	0	0
2024-08-28 03:35:47			0	37172	0	0	0	28927	27530	157894	27299	1076003	46833	110752	0	0	8070	574709	0	0
2024-08-28 03:36:47			0	37161	0	0	0	28914	27520	157774	27147	1076021	46833	110747	0	0	8069	575181	0	0
2024-08-28 03:37:47			0	37156	0	0	0	28914	27530	157874	27166	1075976	46833	110747	0	0	8069	575348	0	0
2024-08-28 03:38:47			0	37161	0	0	0	28911	27510	157830	27107	1076065	46844	110746	0	0	8069	575214	0	0
2024-08-28 03:39:47			0	37171	0	0	0	28916	27520	157738	27123	1075994	46844	110748	0	0	8070	574782	0	0
2024-08-28 03:40:47			0	37180	0	0	0	28919	27530	157662	27164	1076003	46833	110749	0	0	8070	574390	0	0
2024-08-28 03:41:47			0	37173	0	0	0	28924	27520	157790	27234	1076048	46833	110751	0	0	8070	574703	0	0
2024-08-28 03:42:47			0	37197	0	0	0	28909	27520	157718	26987	1075994	46822	110745	0	0	8071	573746	0	0
2024-08-28 03:43:47			0	37190	0	0	0	28916	27520	157738	27190	1076021	46844	110748	0	0	8071	574025	0	0
2024-08-28 03:44:47			0	37195	0	0	0	28903	27520	157690	27516	1075967	46844	110743	0	0	8071	573826	0	0
2024-08-28 03:45:47			0	37198	0	0	0	28903	27530	157662	27268	1076003	46833	110743	0	0	8072	573673	0	0
2024-08-28 03:46:47			0	37188	0	0	0	28909	27500	157730	27119	1075966	46832	110745	0	0	8071	574171	0	0
2024-08-28 03:47:47			0	37209	0	0	0	28906	27510	157706	27100	1075931	46822	110744	0	0	8072	573301	0	0
2024-08-28 03:48:47			0	37193	0	0	0	28906	27500	157770	26934	1075913	46832	110744	0	0	8071	573971	0	0
2024-08-28 03:49:47			0	37185	0	0	0	28909	27510	157774	27060	1076038	46833	110745	0	0	8071	574257	0	0
2024-08-28 03:50:47			0	37184	0	0	0	28893	27500	157758	27013	1075859	46832	110739	0	0	8071	574330	0	0
2024-08-28 03:51:47			0	37179	0	0	0	28883	27510	157778	26984	1075949	46832	110735	0	0	8071	574496	0	0
2024-08-28 03:52:47			0	37182	0	0	0	28901	27510	157694	27190	1075922	46832	110742	0	0	8071	574377	0	0
2024-08-28 03:53:47			0	37193	0	0	0	28901	27500	157674	27326	1075904	46831	110742	0	0	8071	573971	0	0
2024-08-28 03:54:47			0	37188	0	0	0	28906	27500	157774	27209	1075931	46831	110744	0	0	8071	574171	0	0
2024-08-28 03:55:47			0	37190	0	0	0	28903	27500	157870	27211	1075913	46843	110743	0	0	8071	574091	0	0
2024-08-28 03:56:47			0	37182	0	0	0	28898	27500	157786	27199	1075859	46843	110741	0	0	8071	574410	0	0
2024-08-28 03:57:47			0	37192	0	0	0	28885	27500	157850	26972	1075940	46832	110736	0	0	8071	574011	0	0
2024-08-28 03:58:47			0	37173	0	0	0	28893	27510	157766	26908	1075895	46821	110739	0	0	8070	574736	0	0
2024-08-28 03:59:47			0	37180	0	0	0	28893	27490	157830	26870	1075868	46842	110739	0	0	8071	574523	0	0
2024-08-28 04:00:47			0	37165	0	0	0	28890	27500	157890	26866	1075931	46842	110738	0	0	8070	575088	0	0
2024-08-28 04:01:47			0	37168	0	0	0	28896	27500	157886	26779	1075859	46832	110740	0	0	8070	574968	0	0
2024-08-28 04:02:47			0	37171	0	0	0	28885	27490	157794	26826	1075886	46841	110736	0	0	8070	574881	0	0
2024-08-28 04:03:47			0	37177	0	0	0	28893	27490	157898	26996	1075787	46831	110739	0	0	8070	574642	0	0
2024-08-28 04:04:47			0	37170	0	0	0	28890	27490	157786	27104	1075886	46841	110738	0	0	8070	574921	0	0
2024-08-28 04:05:47			0	37158	0	0	0	28885	27500	157898	27081	1075877	46831	110736	0	0	8069	575367	0	0
2024-08-28 04:06:47			0	37165	0	0	0	28890	27500	157930	26998	1075850	46831	110738	0	0	8070	575088	0	0
2024-08-28 04:07:47			0	37161	0	0	0	28888	27500	157890	27281	1075904	46831	110737	0	0	8070	575247	0	0
2024-08-28 04:08:47			0	37157	0	0	0	28888	27490	157974	27234	1075868	46809	110737	0	0	8069	575440	0	0
2024-08-28 04:09:47			0	37153	0	0	0	28893	27500	157890	27180	1075904	46820	110739	0	0	8069	575567	0	0
2024-08-28 04:10:47			0	37159	0	0	0	28883	27500	157914	26902	1075850	46831	110735	0	0	8070	575327	0	0
2024-08-28 04:11:47			0	37150	0	0	0	28888	27490	157914	27220	1075814	46831	110737	0	0	8069	575719	0	0
2024-08-28 04:12:47			0	37140	0	0	0	28890	27490	157846	26991	1075895	46831	110738	0	0	8068	576119	0	0
2024-08-28 04:13:47			0	37165	0	0	0	28883	27480	157866	27135	1075876	46841	110735	0	0	8070	575154	0	0
2024-08-28 04:14:47			0	37148	0	0	0	28893	27480	157842	26845	1075840	46818	110739	0	0	8069	575832	0	0
2024-08-28 04:15:47			0	37157	0	0	0	28880	27480	157970	26989	1075769	46841	110734	0	0	8069	575473	0	0
2024-08-28 04:16:47			0	37155	0	0	0	28885	27490	157854	27083	1075778	46852	110736	0	0	8069	575520	0	0
2024-08-28 04:17:47			0	37159	0	0	0	28888	27490	157914	27124	1075832	46830	110737	0	0	8069	575360	0	0
2024-08-28 04:18:47			0	37151	0	0	0	28890	27480	157958	27466	1075769	46830	110738	0	0	8069	575713	0	0
2024-08-28 04:19:47			0	37150	0	0	0	28883	27490	157922	27152	1075859	46841	110735	0	0	8069	575719	0	0
2024-08-28 04:20:47			0	37135	0	0	0	28885	27500	157898	27161	1075850	46842	110736	0	0	8068	576285	0	0
2024-08-28 04:21:47			0	37163	0	0	0	28883	27490	157930	27275	1075859	46830	110735	0	0	8070	575201	0	0
2024-08-28 04:22:47			0	37168	0	0	0	28877	27480	157898	27244	1075850	46841	110733	0	0	8070	575034	0	0
2024-08-28 04:23:47			0	37155	0	0	0	28883	27490	157874	27310	1075921	46842	110735	0	0	8069	575520	0	0
2024-08-28 04:24:47			0	37149	0	0	0	28893	27490	157898	27213	1075859	46841	110739	0	0	8069	575759	0	0
2024-08-28 04:25:47			0	37140	0	0	0	28883	27480	157906	27164	1075840	46829	110735	0	0	8068	576152	0	0
2024-08-28 04:26:47			0	37148	0	0	0	28880	27490	157894	27045	1075859	46830	110734	0	0	8069	575799	0	0
2024-08-28 04:27:47			0	37144	0	0	0	28875	27480	157990	27000	1075769	46841	110732	0	0	8069	575992	0	0
2024-08-28 04:28:47			0	37129	0	0	0	28880	27490	158086	26722	1075751	46830	110734	0	0	8068	576558	0	0
2024-08-28 04:29:47			0	37131	0	0	0	28877	27480	158070	27066	1075760	46829	110733	0	0	8068	576511	0	0
2024-08-28 04:30:47			0	37135	0	0	0	28864	27480	158046	26968	1075715	46830	110728	0	0	8068	576352	0	0
2024-08-28 04:31:47			0	37111	0	0	0	28877	27480	158162	26812	1075760	46829	110733	0	0	8067	577311	0	0
2024-08-28 04:32:47			0	37114	0	0	0	28875	27470	158170	27090	1075751	46840	110732	0	0	8067	577224	0	0
2024-08-28 04:33:47			0	37109	0	0	0	28880	27480	158222	26764	1075814	46829	110734	0	0	8067	577391	0	0
2024-08-28 04:34:47			0	37091	0	0	0	28872	27480	158150	26837	1075733	46840	110731	0	0	8066	578111	0	0
2024-08-28 04:35:47			0	37107	0	0	0	28883	27480	158166	27177	1075840	46840	110735	0	0	8066	577471	0	0
2024-08-28 04:36:47			0	37080	0	0	0	28864	27480	158166	27045	1075769	46841	110728	0	0	8065	578552	0	0
2024-08-28 04:37:47			0	37077	0	0	0	28872	27490	158274	27156	1075886	46830	110731	0	0	8065	578639	0	0
2024-08-28 04:38:47			0	37065	0	0	0	28883	27470	158218	26660	1075805	46840	110735	0	0	8064	579186	0	0
2024-08-28 04:39:47			0	37077	0	0	0	28877	27470	158250	26800	1075724	46840	110733	0	0	8065	578705	0	0
2024-08-28 04:40:47			0	37057	0	0	0	28870	27480	158222	27008	1075840	46818	110730	0	0	8064	579474	0	0
2024-08-28 04:41:47			0	37068	0	0	0	28867	27490	158358	27092	1075859	46830	110729	0	0	8064	578999	0	0
2024-08-28 04:42:47			0	37066	0	0	0	28870	27470	158314	27022	1075751	46851	110730	0	0	8064	579146	0	0
2024-08-28 04:43:47			0	37057	0	0	0	28875	27470	158326	26899	1075724	46840	110732	0	0	8064	579507	0	0
2024-08-28 04:44:47			0	37061	0	0	0	28867	27470	158366	27163	1075849	46839	110729	0	0	8064	579347	0	0
2024-08-28 04:45:47			0	37038	0	0	0	28875	27480	158414	26946	1075814	46829	110732	0	0	8062	580236	0	0
2024-08-28 04:46:47			0	37054	0	0	0	28870	27470	158366	27062	1075751	46851	110730	0	0	8063	579627	0	0
2024-08-28 04:47:47			0	37064	0	0	0	28864	27480	158318	26837	1075823	46830	110728	0	0	8064	579193	0	0
2024-08-28 04:48:47			0	37044	0	0	0	28867	27470	158386	26915	1075715	46850	110729	0	0	8063	580029	0	0
2024-08-28 04:49:47			0	37069	0	0	0	28857	27470	158374	27010	1075715	46839	110725	0	0	8065	579026	0	0
2024-08-28 04:50:47			0	37060	0	0	0	28854	27470	158394	27298	1075805	46829	110724	0	0	8064	579387	0	0
2024-08-28 04:51:47			0	37065	0	0	0	28857	27470	158386	27095	1075715	46839	110725	0	0	8064	579186	0	0
2024-08-28 04:52:47			0	37061	0	0	0	28857	27460	158282	26512	1075760	46827	110725	0	0	8064	579380	0	0
2024-08-28 04:53:47			0	37060	0	0	0	28864	27460	158426	27118	1075625	46827	110728	0	0	8064	579420	0	0
2024-08-28 04:54:47			0	37053	0	0	0	28857	27460	158226	26920	1075706	46849	110725	0	0	8064	579701	0	0
2024-08-28 04:55:47			0	37064	0	0	0	28857	27460	158326	26720	1075670	46827	110725	0	0	8064	579260	0	0
2024-08-28 04:56:47			0	37052	0	0	0	28854	27460	158194	26674	1075679	46827	110724	0	0	8064	579741	0	0
2024-08-28 04:57:47			0	37051	0	0	0	28854	27470	158266	26993	1075661	46828	110724	0	0	8064	579748	0	0
2024-08-28 04:58:47			0	37062	0	0	0	28849	27460	158322	27071	1075733	46827	110722	0	0	8064	579340	0	0
2024-08-28 04:59:47			0	37069	0	0	0	28857	27460	158314	27183	1075679	46827	110725	0	0	8064	579059	0	0
2024-08-28 05:00:47			0	37041	0	0	0	28849	27460	158326	26887	1075616	46827	110722	0	0	8063	580182	0	0
2024-08-28 05:01:47			0	37046	0	0	0	28854	27450	158350	27280	1075607	46838	110724	0	0	8063	580015	0	0
2024-08-28 05:02:47			0	37048	0	0	0	28849	27450	158370	27033	1075580	46827	110722	0	0	8063	579935	0	0
2024-08-28 05:03:47			0	37042	0	0	0	28846	27450	158358	27208	1075598	46837	110721	0	0	8063	580175	0	0
2024-08-28 05:04:47			0	37052	0	0	0	28844	27440	158330	27039	1075643	46825	110720	0	0	8064	579808	0	0
2024-08-28 05:05:47			0	37047	0	0	0	28841	27460	158434	27008	1075670	46827	110719	0	0	8063	579941	0	0
2024-08-28 05:06:47			0	37034	0	0	0	28836	27450	158330	26795	1075634	46838	110717	0	0	8063	580497	0	0
2024-08-28 05:07:47			0	37050	0	0	0	28854	27450	158418	27272	1075580	46827	110724	0	0	8063	579854	0	0
2024-08-28 05:08:47			0	37037	0	0	0	28851	27450	158406	27031	1075634	46838	110723	0	0	8063	580376	0	0
2024-08-28 05:09:47			0	37033	0	0	0	28846	27450	158310	27147	1075652	46837	110721	0	0	8063	580537	0	0
2024-08-28 05:10:47			0	37037	0	0	0	28844	27440	158342	26902	1075634	46836	110720	0	0	8063	580410	0	0
2024-08-28 05:11:47			0	37048	0	0	0	28844	27450	158258	27001	1075679	46815	110720	0	0	8063	579935	0	0
2024-08-28 05:12:47			0	37064	0	0	0	28846	27440	158346	27038	1075589	46814	110721	0	0	8064	579326	0	0
2024-08-28 05:13:47			0	37049	0	0	0	28844	27450	158386	27019	1075634	46827	110720	0	0	8063	579895	0	0
2024-08-28 05:14:47			0	37054	0	0	0	28844	27450	158422	26960	1075625	46837	110720	0	0	8064	579694	0	0
2024-08-28 05:15:47			0	37047	0	0	0	28838	27440	158402	27045	1075616	46836	110718	0	0	8063	580008	0	0
2024-08-28 05:16:47			0	37053	0	0	0	28846	27440	158358	27003	1075562	46825	110721	0	0	8064	579767	0	0
2024-08-28 05:17:47			0	37040	0	0	0	28833	27430	158446	26842	1075615	46835	110716	0	0	8063	580322	0	0
2024-08-28 05:18:47			0	37046	0	0	0	28831	27440	158298	27317	1075553	46825	110715	0	0	8063	580048	0	0
2024-08-28 05:19:47			0	37043	0	0	0	28823	27440	158454	26856	1075535	46847	110712	0	0	8063	580169	0	0
2024-08-28 05:20:47			0	37041	0	0	0	28812	27440	158502	27017	1075562	46825	110708	0	0	8064	580249	0	0
2024-08-28 05:21:47			0	37059	0	0	0	28810	27430	158522	27076	1075517	46814	110707	0	0	8065	579560	0	0
2024-08-28 05:22:47			0	37048	0	0	0	28807	27430	158462	27114	1075517	46803	110706	0	0	8064	580001	0	0
2024-08-28 05:23:47			0	37050	0	0	0	28810	27430	158438	27001	1075535	46824	110707	0	0	8064	579921	0	0
2024-08-28 05:24:47			0	37047	0	0	0	28802	27430	158402	27116	1075454	46835	110704	0	0	8064	580041	0	0
2024-08-28 05:25:47			0	37064	0	0	0	28818	27420	158418	26871	1075499	46823	110710	0	0	8065	579393	0	0
2024-08-28 05:26:47			0	37054	0	0	0	28820	27420	158486	26807	1075445	46845	110711	0	0	8064	579794	0	0
2024-08-28 05:27:47			0	37063	0	0	0	28820	27430	158438	27230	1075508	46835	110711	0	0	8065	579400	0	0
2024-08-28 05:28:47			0	37063	0	0	0	28823	27420	158434	27111	1075553	46812	110712	0	0	8065	579433	0	0
2024-08-28 05:29:47			0	37044	0	0	0	28818	27420	158382	26739	1075526	46834	110710	0	0	8063	580195	0	0
2024-08-28 05:30:47			0	37050	0	0	0	28815	27420	158386	26838	1075499	46834	110709	0	0	8064	579954	0	0
2024-08-28 05:31:47			0	37041	0	0	0	28810	27430	158418	26866	1075508	46824	110707	0	0	8063	580282	0	0
2024-08-28 05:32:47			0	37035	0	0	0	28810	27420	158454	26729	1075499	46834	110707	0	0	8063	580557	0	0
2024-08-28 05:33:47			0	37051	0	0	0	28805	27410	158422	26838	1075454	46822	110705	0	0	8064	579948	0	0
2024-08-28 05:34:47			0	37056	0	0	0	28807	27420	158382	26920	1075526	46834	110706	0	0	8064	579714	0	0
2024-08-28 05:35:47			0	37056	0	0	0	28805	27420	158442	26788	1075472	46823	110705	0	0	8064	579714	0	0
2024-08-28 05:36:47			0	37053	0	0	0	28799	27420	158486	26994	1075463	46812	110703	0	0	8064	579834	0	0
2024-08-28 05:37:47			0	37051	0	0	0	28812	27420	158386	26977	1075472	46834	110708	0	0	8064	579914	0	0
2024-08-28 05:38:47			0	37046	0	0	0	28802	27420	158530	26849	1075472	46823	110704	0	0	8064	580115	0	0
2024-08-28 05:39:47			0	37043	0	0	0	28794	27400	158430	26961	1075408	46833	110701	0	0	8064	580302	0	0
2024-08-28 05:40:47			0	37045	0	0	0	28797	27420	158482	26793	1075463	46823	110702	0	0	8064	580155	0	0
2024-08-28 05:41:47			0	37040	0	0	0	28784	27410	158466	27060	1075427	46833	110697	0	0	8064	580389	0	0
2024-08-28 05:42:47			0	37043	0	0	0	28774	27410	158466	26776	1075373	46811	110693	0	0	8064	580269	0	0
2024-08-28 05:43:47			0	37062	0	0	0	28776	27400	158526	26837	1075355	46833	110694	0	0	8065	579540	0	0
2024-08-28 05:44:47			0	37034	0	0	0	28786	27400	158550	26696	1075381	46821	110698	0	0	8063	580663	0	0
2024-08-28 05:45:47			0	37039	0	0	0	28799	27400	158562	26743	1075328	46821	110703	0	0	8063	580463	0	0
2024-08-28 05:46:47			0	37038	0	0	0	28807	27400	158550	26627	1075381	46833	110706	0	0	8063	580503	0	0
2024-08-28 05:47:47			0	37035	0	0	0	28802	27400	158554	26717	1075381	46833	110704	0	0	8063	580623	0	0
2024-08-28 05:48:47			0	37026	0	0	0	28794	27410	158594	27071	1075417	46822	110701	0	0	8063	580951	0	0
2024-08-28 05:49:47			0	37019	0	0	0	28812	27410	158506	27050	1075417	46833	110708	0	0	8062	581233	0	0
2024-08-28 05:50:47			0	37032	0	0	0	28812	27410	158478	27170	1075427	46833	110708	0	0	8063	580710	0	0
2024-08-28 05:51:47			0	37025	0	0	0	28807	27410	158526	26889	1075471	46833	110706	0	0	8063	580992	0	0
2024-08-28 05:52:47			0	37032	0	0	0	28797	27400	158642	26727	1075408	46833	110702	0	0	8063	580744	0	0
2024-08-28 05:53:47			0	37028	0	0	0	28807	27410	158686	26866	1075373	46833	110706	0	0	8063	580871	0	0
2024-08-28 05:54:47			0	37009	0	0	0	28810	27400	158602	26720	1075381	46833	110707	0	0	8061	581668	0	0
2024-08-28 05:55:47			0	37030	0	0	0	28799	27400	158438	27196	1075381	46833	110703	0	0	8063	580824	0	0
2024-08-28 05:56:47			0	37034	0	0	0	28802	27400	158562	26871	1075328	46821	110704	0	0	8063	580663	0	0
2024-08-28 05:57:47			0	37028	0	0	0	28799	27400	158598	26934	1075372	46820	110703	0	0	8063	580904	0	0
2024-08-28 05:58:47			0	37038	0	0	0	28794	27400	158534	26963	1075435	46821	110701	0	0	8063	580503	0	0
2024-08-28 05:59:47			0	37023	0	0	0	28799	27400	158526	27114	1075408	46833	110703	0	0	8062	581105	0	0
2024-08-28 06:00:47			0	37037	0	0	0	28799	27400	158490	26783	1075408	46833	110703	0	0	8063	580543	0	0
2024-08-28 06:01:47			0	37049	0	0	0	28797	27400	158570	27022	1075372	46842	110702	0	0	8064	580061	0	0
2024-08-28 06:02:47			0	37032	0	0	0	28789	27390	158522	26776	1075417	46820	110699	0	0	8063	580777	0	0
2024-08-28 06:03:47			0	37028	0	0	0	28792	27400	158502	26625	1075399	46832	110700	0	0	8063	580904	0	0
2024-08-28 06:04:47			0	37026	0	0	0	28784	27410	158598	26897	1075417	46822	110697	0	0	8063	580951	0	0
2024-08-28 06:05:47			0	37028	0	0	0	28789	27400	158586	26840	1075319	46832	110699	0	0	8063	580904	0	0
2024-08-28 06:06:47			0	37048	0	0	0	28789	27390	158594	26927	1075417	46832	110699	0	0	8064	580135	0	0
2024-08-28 06:07:47			0	37031	0	0	0	28781	27400	158514	26814	1075435	46810	110696	0	0	8063	580784	0	0
2024-08-28 06:08:47			0	37029	0	0	0	28774	27400	158466	27150	1075381	46821	110693	0	0	8063	580864	0	0
2024-08-28 06:09:47			0	37016	0	0	0	28784	27390	158578	27185	1075390	46832	110697	0	0	8062	581420	0	0
2024-08-28 06:10:47			0	37018	0	0	0	28774	27390	158618	26856	1075301	46832	110693	0	0	8063	581340	0	0
2024-08-28 06:11:47			0	37026	0	0	0	28771	27390	158558	27083	1075327	46832	110692	0	0	8063	581018	0	0
2024-08-28 06:12:47			0	37021	0	0	0	28766	27390	158498	27182	1075310	46832	110690	0	0	8063	581219	0	0
2024-08-28 06:13:47			0	37022	0	0	0	28758	27390	158606	26828	1075336	46832	110687	0	0	8063	581179	0	0
2024-08-28 06:14:47			0	37046	0	0	0	28774	27390	158430	26779	1075327	46820	110693	0	0	8064	580215	0	0
2024-08-28 06:15:47			0	37038	0	0	0	28763	27380	158570	26896	1075318	46831	110689	0	0	8064	580570	0	0
2024-08-28 06:16:47			0	37027	0	0	0	28766	27390	158670	27123	1075274	46809	110690	0	0	8063	580978	0	0
2024-08-28 06:17:47			0	37032	0	0	0	28766	27380	158746	27064	1075202	46818	110690	0	0	8063	580810	0	0
2024-08-28 06:18:47			0	37034	0	0	0	28755	27370	158622	27159	1075273	46818	110686	0	0	8064	580764	0	0
2024-08-28 06:19:47			0	37042	0	0	0	28753	27370	158674	26986	1075237	46818	110685	0	0	8064	580442	0	0
2024-08-28 06:20:47			0	37022	0	0	0	28755	27370	158682	26746	1075237	46818	110686	0	0	8063	581246	0	0
2024-08-28 06:21:47			0	37038	0	0	0	28750	27370	158778	27067	1075273	46807	110684	0	0	8064	580603	0	0
2024-08-28 06:22:47			0	37035	0	0	0	28755	27370	158730	27131	1075247	46830	110686	0	0	8064	580723	0	0
2024-08-28 06:23:47			0	37026	0	0	0	28745	27370	158670	26811	1075264	46818	110682	0	0	8063	581085	0	0
2024-08-28 06:24:47			0	37030	0	0	0	28755	27370	158702	26705	1075237	46818	110686	0	0	8063	580924	0	0
2024-08-28 06:25:47			0	37038	0	0	0	28766	27360	158698	27164	1075121	46817	110690	0	0	8064	580636	0	0
2024-08-28 06:26:47			0	37025	0	0	0	28748	27360	158654	26823	1075201	46829	110683	0	0	8063	581158	0	0
2024-08-28 06:27:47			0	37025	0	0	0	28745	27360	158666	27535	1075228	46829	110682	0	0	8063	581158	0	0
2024-08-28 06:28:47			0	37034	0	0	0	28755	27350	158718	27092	1075156	46828	110686	0	0	8064	580830	0	0
2024-08-28 06:29:47			0	37040	0	0	0	28758	27360	158634	26831	1075175	46817	110687	0	0	8064	580556	0	0
2024-08-28 06:30:47			0	37020	0	0	0	28763	27360	158714	26961	1075166	46838	110689	0	0	8063	581359	0	0
2024-08-28 06:31:47			0	37020	0	0	0	28753	27340	158814	26932	1075165	46827	110685	0	0	8063	581426	0	0
2024-08-28 06:32:47			0	37026	0	0	0	28761	27350	158854	26909	1075156	46828	110688	0	0	8063	581152	0	0
2024-08-28 06:33:47			0	37029	0	0	0	28761	27350	158738	26819	1075183	46828	110688	0	0	8063	581031	0	0
2024-08-28 06:34:47			0	37028	0	0	0	28748	27360	158714	27019	1075166	46828	110683	0	0	8063	581038	0	0
2024-08-28 06:35:47			0	37029	0	0	0	28748	27360	158690	27211	1075246	46816	110683	0	0	8064	580998	0	0
2024-08-28 06:36:47			0	37034	0	0	0	28755	27360	158754	27093	1075112	46816	110686	0	0	8064	580797	0	0
2024-08-28 06:37:47			0	37035	0	0	0	28755	27350	158766	27008	1075210	46828	110686	0	0	8064	580790	0	0
2024-08-28 06:38:47			0	37024	0	0	0	28745	27360	158734	26844	1075219	46828	110682	0	0	8063	581199	0	0
2024-08-28 06:39:47			0	37047	0	0	0	28740	27350	158706	27133	1075094	46816	110680	0	0	8065	580308	0	0
2024-08-28 06:40:47			0	37025	0	0	0	28753	27360	158834	26878	1075175	46829	110685	0	0	8063	581158	0	0
2024-08-28 06:41:47			0	37014	0	0	0	28763	27350	158790	27038	1075174	46828	110689	0	0	8062	581634	0	0
2024-08-28 06:42:47			0	37024	0	0	0	28755	27360	158778	27024	1075139	46828	110686	0	0	8063	581199	0	0
2024-08-28 06:43:47			0	37015	0	0	0	28753	27360	158746	26774	1075201	46817	110685	0	0	8063	581560	0	0
2024-08-28 06:44:47			0	37002	0	0	0	28758	27360	158774	27046	1075166	46828	110687	0	0	8062	582083	0	0
2024-08-28 06:45:47			0	37023	0	0	0	28758	27360	158790	26951	1075228	46829	110687	0	0	8063	581239	0	0
2024-08-28 06:46:47			0	36995	0	0	0	28758	27350	158814	26746	1075201	46828	110687	0	0	8061	582398	0	0
2024-08-28 06:47:47			0	37005	0	0	0	28745	27350	158826	26984	1075174	46828	110682	0	0	8062	581996	0	0
2024-08-28 06:48:47			0	37003	0	0	0	28758	27360	158894	27253	1075246	46828	110687	0	0	8062	582043	0	0
2024-08-28 06:49:47			0	36978	0	0	0	28766	27350	158894	27180	1075130	46816	110690	0	0	8060	583083	0	0
2024-08-28 06:50:47			0	36991	0	0	0	28745	27360	158922	27022	1075192	46828	110682	0	0	8061	582526	0	0
2024-08-28 06:51:47			0	36976	0	0	0	28745	27360	159022	26760	1075175	46817	110682	0	0	8060	583130	0	0
2024-08-28 06:52:47			0	36979	0	0	0	28758	27370	159014	26850	1075184	46818	110687	0	0	8060	582976	0	0
2024-08-28 06:53:47			0	36978	0	0	0	28761	27360	158974	27107	1075255	46817	110688	0	0	8060	583049	0	0
2024-08-28 06:54:47			0	36962	0	0	0	28753	27360	159106	27203	1075192	46816	110685	0	0	8059	583694	0	0
2024-08-28 06:55:47			0	36953	0	0	0	28748	27350	159042	27135	1075210	46828	110683	0	0	8059	584090	0	0
2024-08-28 06:56:47			0	36955	0	0	0	28745	27360	159026	26689	1075228	46817	110682	0	0	8059	583976	0	0
2024-08-28 06:57:47			0	36958	0	0	0	28748	27350	159074	26998	1075237	46828	110683	0	0	8059	583889	0	0
2024-08-28 06:58:47			0	36947	0	0	0	28761	27350	159142	27052	1075210	46828	110688	0	0	8058	584332	0	0
2024-08-28 06:59:47			0	36965	0	0	0	28761	27350	159022	27008	1075183	46816	110688	0	0	8059	583607	0	0
2024-08-28 07:00:47			0	36951	0	0	0	28755	27350	158974	27206	1075210	46793	110686	0	0	8059	584171	0	0
2024-08-28 07:01:47			0	36942	0	0	0	28761	27350	159130	26958	1075183	46828	110688	0	0	8058	584534	0	0
2024-08-28 07:02:47			0	36927	0	0	0	28750	27350	159202	27038	1075183	46828	110684	0	0	8057	585139	0	0
2024-08-28 07:03:47			0	36915	0	0	0	28761	27360	159250	26665	1075112	46828	110688	0	0	8057	585590	0	0
2024-08-28 07:04:47			0	36904	0	0	0	28753	27360	159338	27157	1075246	46816	110685	0	0	8056	586035	0	0
2024-08-28 07:05:47			0	36895	0	0	0	28753	27360	159346	26972	1075166	46838	110685	0	0	8056	586398	0	0
2024-08-28 07:06:47			0	36870	0	0	0	28750	27370	159406	26955	1075184	46830	110684	0	0	8054	587376	0	0
2024-08-28 07:07:47			0	36856	0	0	0	28766	27360	159486	27048	1075201	46829	110690	0	0	8053	587977	0	0
2024-08-28 07:08:47			0	36853	0	0	0	28774	27360	159470	26795	1075219	46828	110693	0	0	8053	588098	0	0
2024-08-28 07:09:47			0	36841	0	0	0	28774	27350	159594	27090	1075210	46816	110693	0	0	8052	588618	0	0
2024-08-28 07:10:47			0	36828	0	0	0	28763	27360	159598	27076	1075228	46839	110689	0	0	8051	589111	0	0
2024-08-28 07:11:47			0	36822	0	0	0	28768	27360	159534	26928	1075175	46817	110691	0	0	8051	589355	0	0
2024-08-28 07:12:47			0	36818	0	0	0	28779	27360	159658	26982	1075282	46839	110695	0	0	8051	589517	0	0
2024-08-28 07:13:47			0	36844	0	0	0	28774	27370	159602	26864	1075273	46830	110693	0	0	8052	588429	0	0
2024-08-28 07:14:47			0	36811	0	0	0	28774	27370	159554	26835	1075273	46830	110693	0	0	8050	589767	0	0
2024-08-28 07:15:47			0	36796	0	0	0	28763	27370	159706	26989	1075237	46830	110689	0	0	8050	590376	0	0
2024-08-28 07:16:47			0	36814	0	0	0	28768	27370	159510	26778	1075237	46818	110691	0	0	8051	589645	0	0
2024-08-28 07:17:47			0	36817	0	0	0	28771	27370	159494	27026	1075291	46830	110692	0	0	8051	589524	0	0
2024-08-28 07:18:47			0	36789	0	0	0	28768	27370	159582	27112	1075327	46818	110691	0	0	8049	590660	0	0
2024-08-28 07:19:47			0	36778	0	0	0	28776	27370	159698	26970	1075291	46818	110694	0	0	8048	591108	0	0
2024-08-28 07:20:47			0	36784	0	0	0	28776	27380	159738	27017	1075291	46841	110694	0	0	8049	590830	0	0
2024-08-28 07:21:47			0	36784	0	0	0	28784	27380	159774	27258	1075336	46818	110697	0	0	8049	590830	0	0
2024-08-28 07:22:47			0	36771	0	0	0	28794	27370	159778	27339	1075291	46818	110701	0	0	8048	591392	0	0
2024-08-28 07:23:47			0	36767	0	0	0	28797	27370	159678	27343	1075372	46830	110702	0	0	8047	591555	0	0
2024-08-28 07:24:47			0	36765	0	0	0	28794	27390	159686	27170	1075381	46832	110701	0	0	8047	591568	0	0
2024-08-28 07:25:47			0	36765	0	0	0	28792	27380	159790	27137	1075372	46831	110700	0	0	8047	591602	0	0
2024-08-28 07:26:47			0	36777	0	0	0	28781	27390	159854	27189	1075327	46832	110696	0	0	8048	591080	0	0
2024-08-28 07:27:47			0	36762	0	0	0	28781	27380	159730	27460	1075336	46807	110696	0	0	8047	591724	0	0
2024-08-28 07:28:47			0	36782	0	0	0	28776	27380	159786	26942	1075345	46808	110694	0	0	8049	590911	0	0
2024-08-28 07:29:47			0	36768	0	0	0	28774	27380	159726	26923	1075336	46830	110693	0	0	8048	591480	0	0
2024-08-28 07:30:47			0	36768	0	0	0	28774	27380	159670	27123	1075372	46819	110693	0	0	8048	591480	0	0
2024-08-28 07:31:47			0	36783	0	0	0	28781	27380	159802	27251	1075309	46818	110696	0	0	8049	590870	0	0
2024-08-28 07:32:47			0	36780	0	0	0	28792	27380	159766	27121	1075309	46818	110700	0	0	8048	590992	0	0
2024-08-28 07:33:47			0	36783	0	0	0	28771	27380	159730	26993	1075390	46807	110692	0	0	8049	590870	0	0
2024-08-28 07:34:47			0	36802	0	0	0	28781	27380	159706	27098	1075282	46830	110696	0	0	8050	590099	0	0
2024-08-28 07:35:47			0	36771	0	0	0	28776	27370	159650	27374	1075327	46830	110694	0	0	8048	591392	0	0
2024-08-28 07:36:47			0	36792	0	0	0	28771	27380	159702	27090	1075336	46830	110692	0	0	8049	590505	0	0
2024-08-28 07:37:47			0	36786	0	0	0	28779	27390	159646	26797	1075354	46820	110695	0	0	8049	590714	0	0
2024-08-28 07:38:47			0	36788	0	0	0	28784	27380	159662	27003	1075363	46830	110697	0	0	8049	590667	0	0
2024-08-28 07:39:47			0	36792	0	0	0	28786	27390	159578	27131	1075327	46832	110698	0	0	8049	590471	0	0
2024-08-28 07:40:47			0	36809	0	0	0	28779	27380	159550	27196	1075390	46830	110695	0	0	8050	589815	0	0
2024-08-28 07:41:47			0	36801	0	0	0	28781	27390	159586	27239	1075408	46820	110696	0	0	8050	590105	0	0
2024-08-28 07:42:47			0	36820	0	0	0	28786	27380	159622	27287	1075345	46819	110698	0	0	8051	589368	0	0
2024-08-28 07:43:47			0	36811	0	0	0	28789	27390	159578	27267	1075381	46832	110699	0	0	8050	589699	0	0
2024-08-28 07:44:47			0	36805	0	0	0	28784	27390	159502	27208	1075435	46820	110697	0	0	8050	589943	0	0
2024-08-28 07:45:47			0	36812	0	0	0	28799	27380	159558	27216	1075372	46831	110703	0	0	8050	589693	0	0
2024-08-28 07:46:47			0	36812	0	0	0	28799	27380	159550	27343	1075399	46831	110703	0	0	8050	589693	0	0
2024-08-28 07:47:47			0	36823	0	0	0	28789	27390	159506	27312	1075408	46820	110699	0	0	8051	589212	0	0
2024-08-28 07:48:47			0	36815	0	0	0	28797	27380	159502	27343	1075372	46831	110702	0	0	8050	589571	0	0
2024-08-28 07:49:47			0	36839	0	0	0	28802	27390	159522	27310	1075381	46820	110704	0	0	8052	588564	0	0
2024-08-28 07:50:47			0	36830	0	0	0	28797	27390	159430	27062	1075381	46832	110702	0	0	8051	588929	0	0
2024-08-28 07:51:47			0	36818	0	0	0	28802	27400	159486	27170	1075408	46821	110704	0	0	8050	589381	0	0
2024-08-28 07:52:47			0	36823	0	0	0	28797	27400	159550	26830	1075399	46832	110702	0	0	8051	589179	0	0
2024-08-28 07:53:47			0	36817	0	0	0	28792	27390	159438	27126	1075390	46820	110700	0	0	8050	589456	0	0
2024-08-28 07:54:47			0	36833	0	0	0	28797	27400	159398	27027	1075372	46832	110702	0	0	8051	588773	0	0
2024-08-28 07:55:47			0	36838	0	0	0	28794	27400	159506	26927	1075462	46833	110701	0	0	8052	588571	0	0
2024-08-28 07:56:47			0	36846	0	0	0	28802	27400	159498	26823	1075453	46820	110704	0	0	8052	588246	0	0
2024-08-28 07:57:47			0	36834	0	0	0	28799	27410	159370	27203	1075471	46833	110703	0	0	8051	588699	0	0
2024-08-28 07:58:47			0	36845	0	0	0	28797	27400	159422	27232	1075489	46833	110702	0	0	8052	588287	0	0
2024-08-28 07:59:47			0	36841	0	0	0	28802	27400	159322	27157	1075435	46833	110704	0	0	8052	588449	0	0
2024-08-28 08:00:47			0	36854	0	0	0	28797	27400	159318	27196	1075462	46833	110702	0	0	8053	587922	0	0
2024-08-28 08:01:47			0	36859	0	0	0	28810	27390	159318	27182	1075462	46809	110707	0	0	8053	587754	0	0
2024-08-28 08:02:47			0	36851	0	0	0	28805	27400	159294	27124	1075435	46821	110705	0	0	8052	588044	0	0
2024-08-28 08:03:47			0	36859	0	0	0	28805	27400	159402	27166	1075381	46810	110705	0	0	8053	587720	0	0
2024-08-28 08:04:47			0	36856	0	0	0	28799	27410	159310	27334	1075471	46822	110703	0	0	8053	587808	0	0
2024-08-28 08:05:47			0	36849	0	0	0	28794	27410	159418	26899	1075444	46822	110701	0	0	8052	588091	0	0
2024-08-28 08:06:47			0	36854	0	0	0	28786	27410	159322	27029	1075454	46822	110698	0	0	8053	587889	0	0
2024-08-28 08:07:47			0	36872	0	0	0	28799	27410	159318	27249	1075498	46822	110703	0	0	8054	587160	0	0
2024-08-28 08:08:47			0	36864	0	0	0	28802	27410	159310	27154	1075471	46822	110704	0	0	8053	587484	0	0
2024-08-28 08:09:47			0	36856	0	0	0	28805	27400	159278	27338	1075516	46833	110705	0	0	8053	587841	0	0
2024-08-28 08:10:47			0	36871	0	0	0	28807	27410	159302	26991	1075481	46822	110706	0	0	8053	587200	0	0
2024-08-28 08:11:47			0	36878	0	0	0	28805	27400	159306	27256	1075543	46821	110705	0	0	8054	586951	0	0
2024-08-28 08:12:47			0	36876	0	0	0	28805	27400	159338	27124	1075462	46821	110705	0	0	8054	587032	0	0
2024-08-28 08:13:47			0	36876	0	0	0	28812	27400	159254	27286	1075570	46821	110708	0	0	8054	587032	0	0
2024-08-28 08:14:47			0	36882	0	0	0	28815	27400	159338	27112	1075543	46833	110709	0	0	8054	586789	0	0
2024-08-28 08:15:47			0	36885	0	0	0	28805	27420	159302	27229	1075544	46823	110705	0	0	8054	586601	0	0
2024-08-28 08:16:47			0	36901	0	0	0	28807	27420	159162	26889	1075517	46823	110706	0	0	8055	585954	0	0
2024-08-28 08:17:47			0	36894	0	0	0	28812	27420	159154	26960	1075526	46834	110708	0	0	8055	586237	0	0
2024-08-28 08:18:47			0	36912	0	0	0	28812	27420	159178	26733	1075570	46845	110708	0	0	8056	585509	0	0
2024-08-28 08:19:47			0	36919	0	0	0	28810	27410	159066	26906	1075481	46833	110707	0	0	8056	585260	0	0
2024-08-28 08:20:47			0	36908	0	0	0	28820	27410	159206	27255	1075427	46833	110711	0	0	8055	585705	0	0
2024-08-28 08:21:47			0	36930	0	0	0	28810	27420	159170	26868	1075517	46823	110707	0	0	8057	584783	0	0
2024-08-28 08:22:47			0	36921	0	0	0	28833	27420	159042	27071	1075544	46834	110716	0	0	8056	585146	0	0
2024-08-28 08:23:47			0	36923	0	0	0	28831	27420	159046	27287	1075544	46834	110715	0	0	8056	585065	0	0
2024-08-28 08:24:47			0	36924	0	0	0	28831	27420	159070	26698	1075553	46823	110715	0	0	8056	585025	0	0
2024-08-28 08:25:47			0	36924	0	0	0	28831	27420	159042	27244	1075544	46834	110715	0	0	8056	585025	0	0
2024-08-28 08:26:47			0	36935	0	0	0	28828	27420	159022	27168	1075580	46834	110714	0	0	8057	584581	0	0
2024-08-28 08:27:47			0	36934	0	0	0	28836	27430	158938	27131	1075615	46835	110717	0	0	8057	584588	0	0
2024-08-28 08:28:47			0	36935	0	0	0	28833	27420	158990	27000	1075580	46823	110716	0	0	8057	584581	0	0
2024-08-28 08:29:47			0	36943	0	0	0	28836	27430	159018	27111	1075696	46824	110717	0	0	8057	584225	0	0
2024-08-28 08:30:47			0	36935	0	0	0	28838	27430	158986	26880	1075598	46836	110718	0	0	8057	584548	0	0
2024-08-28 08:31:47			0	36952	0	0	0	28831	27430	158810	27123	1075669	46835	110715	0	0	8058	583862	0	0
2024-08-28 08:32:47			0	36947	0	0	0	28828	27430	158906	27069	1075651	46836	110714	0	0	8058	584064	0	0
2024-08-28 08:33:47			0	36969	0	0	0	28831	27430	158938	27270	1075562	46835	110715	0	0	8059	583177	0	0
2024-08-28 08:34:47			0	36963	0	0	0	28828	27430	158774	27131	1075598	46825	110714	0	0	8059	583419	0	0
2024-08-28 08:35:47			0	36974	0	0	0	28833	27440	158854	27078	1075670	46836	110716	0	0	8059	582942	0	0
2024-08-28 08:36:47			0	36975	0	0	0	28831	27440	158774	27183	1075634	46825	110715	0	0	8059	582902	0	0
2024-08-28 08:37:47			0	36967	0	0	0	28833	27440	158830	27319	1075580	46836	110716	0	0	8059	583224	0	0
2024-08-28 08:38:47			0	36977	0	0	0	28833	27430	158810	27147	1075678	46836	110716	0	0	8059	582855	0	0
2024-08-28 08:39:47			0	36991	0	0	0	28831	27440	158846	27003	1075687	46825	110715	0	0	8060	582258	0	0
2024-08-28 08:40:47			0	36985	0	0	0	28844	27430	158814	27150	1075615	46835	110720	0	0	8060	582533	0	0
2024-08-28 08:41:47			0	36987	0	0	0	28838	27440	158746	27043	1075607	46836	110718	0	0	8060	582419	0	0
2024-08-28 08:42:47			0	36994	0	0	0	28846	27430	158818	27071	1075589	46835	110721	0	0	8060	582171	0	0
2024-08-28 08:43:47			0	36994	0	0	0	28836	27440	158802	27190	1075634	46836	110717	0	0	8060	582138	0	0
2024-08-28 08:44:47			0	36992	0	0	0	28844	27440	158774	27086	1075714	46825	110720	0	0	8060	582218	0	0
2024-08-28 08:45:47			0	36994	0	0	0	28844	27430	158682	27154	1075678	46814	110720	0	0	8060	582171	0	0
2024-08-28 08:46:47			0	37005	0	0	0	28844	27440	158662	27074	1075777	46825	110720	0	0	8061	581695	0	0
2024-08-28 08:47:47			0	37013	0	0	0	28841	27440	158710	27176	1075670	46825	110719	0	0	8061	581374	0	0
2024-08-28 08:48:47			0	36995	0	0	0	28849	27430	158798	26809	1075651	46836	110722	0	0	8060	582131	0	0
2024-08-28 08:49:47			0	36999	0	0	0	28851	27430	158642	26844	1075678	46836	110723	0	0	8060	581970	0	0
2024-08-28 08:50:47			0	36995	0	0	0	28854	27450	158750	27222	1075795	46827	110724	0	0	8060	582064	0	0
2024-08-28 08:51:47			0	37007	0	0	0	28857	27450	158654	26892	1075786	46837	110725	0	0	8061	581581	0	0
2024-08-28 08:52:47			0	37050	0	0	0	28859	27460	158458	27128	1075804	46849	110726	0	0	8063	579821	0	0
2024-08-28 08:53:47			0	37105	0	0	0	28867	27450	158258	27287	1075732	46826	110729	0	0	8066	577651	0	0
2024-08-28 08:54:47			0	37147	0	0	0	28859	27450	158066	26821	1075786	46837	110726	0	0	8069	575972	0	0
2024-08-28 08:55:47			0	37184	0	0	0	28872	27450	157910	27062	1075768	46827	110731	0	0	8071	574495	0	0
2024-08-28 08:56:47			0	37230	0	0	0	28870	27460	157714	27159	1075831	46827	110730	0	0	8074	572630	0	0
2024-08-28 08:57:47			0	37278	0	0	0	28872	27460	157510	27098	1075840	46849	110731	0	0	8076	570723	0	0
2024-08-28 08:58:47			0	37308	0	0	0	28870	27460	157482	26890	1075813	46827	110730	0	0	8078	569533	0	0
2024-08-28 08:59:47			0	37363	0	0	0	28877	27460	157175	27114	1075840	46827	110733	0	0	8081	567355	0	0
2024-08-28 09:00:47			0	37388	0	0	0	28877	27470	157055	26733	1075849	46839	110733	0	0	8083	566334	0	0
2024-08-28 09:01:47			0	37432	0	0	0	28875	27470	156867	26904	1075858	46829	110732	0	0	8085	564598	0	0
2024-08-28 09:02:47			0	37474	0	0	0	28880	27470	156843	26987	1075876	46839	110734	0	0	8088	562945	0	0
2024-08-28 09:03:47			0	37486	0	0	0	28883	27470	156595	27109	1075912	46829	110735	0	0	8088	562472	0	0
2024-08-28 09:04:47			0	37500	0	0	0	28883	27470	156551	27007	1075831	46851	110735	0	0	8089	561922	0	0
2024-08-28 09:05:47			0	37533	0	0	0	28872	27470	156383	26984	1075912	46840	110731	0	0	8091	560626	0	0
2024-08-28 09:06:47			0	37561	0	0	0	28898	27470	156343	26956	1075885	46840	110741	0	0	8093	559529	0	0
2024-08-28 09:07:47			0	37600	0	0	0	28888	27480	156171	27202	1075876	46830	110737	0	0	8095	557970	0	0
2024-08-28 09:08:47			0	37623	0	0	0	28896	27470	156087	27135	1075930	46850	110740	0	0	8096	557102	0	0
2024-08-28 09:09:47			0	37677	0	0	0	28898	27470	156055	27074	1075885	46840	110741	0	0	8099	554995	0	0
2024-08-28 09:10:47			0	37697	0	0	0	28901	27480	155815	27088	1075930	46841	110742	0	0	8100	554184	0	0
2024-08-28 09:11:47			0	37714	0	0	0	28896	27490	155715	27237	1075966	46841	110740	0	0	8102	553490	0	0
2024-08-28 09:12:47			0	37736	0	0	0	28901	27480	155575	27154	1075930	46841	110742	0	0	8103	552666	0	0
2024-08-28 09:13:47			0	37749	0	0	0	28901	27490	155531	27102	1075939	46841	110742	0	0	8103	552129	0	0
2024-08-28 09:14:47			0	37768	0	0	0	28906	27480	155563	27291	1075930	46841	110744	0	0	8104	551423	0	0
2024-08-28 09:15:47			0	37783	0	0	0	28898	27480	155479	26935	1075930	46841	110741	0	0	8105	550841	0	0
2024-08-28 09:16:47			0	37790	0	0	0	28903	27490	155439	27008	1075975	46831	110743	0	0	8106	550538	0	0
2024-08-28 09:17:47			0	37808	0	0	0	28903	27490	155443	26911	1075975	46831	110743	0	0	8107	549840	0	0
2024-08-28 09:18:47			0	37800	0	0	0	28903	27500	155387	26708	1075984	46831	110743	0	0	8106	550119	0	0
2024-08-28 09:19:47			0	37826	0	0	0	28903	27490	155403	27208	1075948	46831	110743	0	0	8108	549143	0	0
2024-08-28 09:20:47			0	37818	0	0	0	28903	27500	155311	27057	1076038	46831	110743	0	0	8108	549421	0	0
2024-08-28 09:21:47			0	37815	0	0	0	28898	27490	155283	26991	1076002	46842	110741	0	0	8107	549569	0	0
2024-08-28 09:22:47			0	37814	0	0	0	28898	27490	155275	26857	1076002	46842	110741	0	0	8107	549608	0	0
2024-08-28 09:23:47			0	37811	0	0	0	28906	27490	155311	26890	1075939	46841	110744	0	0	8107	549724	0	0
2024-08-28 09:24:47			0	37824	0	0	0	28906	27500	155271	26883	1076011	46831	110744	0	0	8108	549189	0	0
2024-08-28 09:25:47			0	37813	0	0	0	28903	27500	155243	26878	1076011	46831	110743	0	0	8107	549615	0	0
2024-08-28 09:26:47			0	37813	0	0	0	28901	27490	155231	27010	1075975	46853	110742	0	0	8107	549647	0	0
2024-08-28 09:27:47			0	37819	0	0	0	28909	27510	155267	27041	1076110	46843	110745	0	0	8108	549351	0	0
2024-08-28 09:28:47			0	37822	0	0	0	28901	27500	155155	26798	1076038	46842	110742	0	0	8108	549267	0	0
2024-08-28 09:29:47			0	37812	0	0	0	28922	27500	155295	27027	1076038	46831	110750	0	0	8107	549654	0	0
2024-08-28 09:30:47			0	37806	0	0	0	28914	27500	155251	26991	1076011	46809	110747	0	0	8107	549886	0	0
2024-08-28 09:31:47			0	37798	0	0	0	28901	27500	155283	26961	1076047	46843	110742	0	0	8106	550196	0	0
2024-08-28 09:32:47			0	37796	0	0	0	28914	27500	155251	26675	1076065	46831	110747	0	0	8106	550274	0	0
2024-08-28 09:33:47			0	37821	0	0	0	28906	27510	155347	26760	1076056	46832	110744	0	0	8108	549274	0	0
2024-08-28 09:34:47			0	37786	0	0	0	28911	27510	155391	26989	1076110	46843	110746	0	0	8106	550630	0	0
2024-08-28 09:35:47			0	37799	0	0	0	28914	27510	155299	26769	1076002	46832	110747	0	0	8106	550126	0	0
2024-08-28 09:36:47			0	37813	0	0	0	28914	27500	155299	26729	1076101	46821	110747	0	0	8107	549615	0	0
2024-08-28 09:37:47			0	37806	0	0	0	28911	27510	155323	26644	1076056	46843	110746	0	0	8107	549855	0	0
2024-08-28 09:38:47			0	37813	0	0	0	28922	27500	155267	27001	1076155	46843	110750	0	0	8107	549615	0	0
2024-08-28 09:39:47			0	37803	0	0	0	28924	27510	155351	26857	1076038	46844	110751	0	0	8106	549971	0	0
2024-08-28 09:40:47			0	37814	0	0	0	28916	27510	155307	26961	1076083	46832	110748	0	0	8107	549545	0	0
2024-08-28 09:41:47			0	37809	0	0	0	28919	27510	155287	27036	1076119	46844	110749	0	0	8107	549739	0	0
2024-08-28 09:42:47			0	37805	0	0	0	28927	27510	155267	26835	1076110	46843	110752	0	0	8106	549893	0	0
2024-08-28 09:43:47			0	37816	0	0	0	28924	27510	155255	27022	1076119	46844	110751	0	0	8107	549467	0	0
2024-08-28 09:44:47			0	37802	0	0	0	28927	27510	155387	26644	1076146	46833	110752	0	0	8106	550010	0	0
2024-08-28 09:45:47			0	37790	0	0	0	28924	27510	155319	26953	1076065	46844	110751	0	0	8106	550475	0	0
2024-08-28 09:46:47			0	37805	0	0	0	28929	27510	155327	26833	1076119	46844	110753	0	0	8106	549893	0	0
2024-08-28 09:47:47			0	37804	0	0	0	28922	27520	155351	26965	1076155	46833	110750	0	0	8106	549900	0	0
2024-08-28 09:48:47			0	37818	0	0	0	28924	27530	155207	26720	1076137	46845	110751	0	0	8107	549327	0	0
2024-08-28 09:49:47			0	37821	0	0	0	28927	27520	155203	26838	1076182	46844	110752	0	0	8107	549242	0	0
2024-08-28 09:50:47			0	37796	0	0	0	28932	27530	155327	26563	1076218	46845	110754	0	0	8106	550179	0	0
2024-08-28 09:51:47			0	37805	0	0	0	28932	27530	155299	26807	1076191	46845	110754	0	0	8106	549830	0	0
2024-08-28 09:52:47			0	37821	0	0	0	28932	27540	155235	26739	1076156	46846	110754	0	0	8107	549179	0	0
2024-08-28 09:53:47			0	37816	0	0	0	28929	27520	155359	26634	1076209	46844	110753	0	0	8107	549436	0	0
2024-08-28 09:54:47			0	37813	0	0	0	28932	27530	155247	26939	1076191	46833	110754	0	0	8107	549520	0	0
2024-08-28 09:55:47			0	37827	0	0	0	28935	27530	155259	26748	1076227	46846	110755	0	0	8108	548978	0	0
2024-08-28 09:56:47			0	37817	0	0	0	28937	27530	155271	26977	1076200	46834	110756	0	0	8107	549365	0	0
2024-08-28 09:57:47			0	37822	0	0	0	28945	27530	155271	27138	1076191	46833	110759	0	0	8107	549172	0	0
2024-08-28 09:58:47			0	37830	0	0	0	28945	27540	155155	26774	1076290	46857	110759	0	0	8108	548830	0	0
2024-08-28 09:59:47			0	37831	0	0	0	28950	27530	155227	26807	1076272	46833	110761	0	0	8108	548823	0	0
2024-08-28 10:00:47			0	37835	0	0	0	28948	27540	155155	26831	1076263	46846	110760	0	0	8108	548637	0	0
2024-08-28 10:01:47			0	37831	0	0	0	28953	27550	155163	27116	1076228	46858	110762	0	0	8108	548760	0	0
2024-08-28 10:02:47			0	37840	0	0	0	28948	27550	155259	26979	1076237	46836	110760	0	0	8108	548412	0	0
2024-08-28 10:03:47			0	37827	0	0	0	28955	27550	155179	26819	1076282	46847	110763	0	0	8107	548915	0	0
2024-08-28 10:04:47			0	37840	0	0	0	28950	27540	155027	26892	1076263	46834	110761	0	0	8108	548444	0	0
2024-08-28 10:05:47			0	37832	0	0	0	28963	27550	155195	27100	1076308	46847	110766	0	0	8108	548722	0	0
2024-08-28 10:06:47			0	37838	0	0	0	28958	27550	155143	27057	1076291	46826	110764	0	0	8108	548489	0	0
2024-08-28 10:07:47			0	37832	0	0	0	28968	27550	155119	27055	1076255	46847	110768	0	0	8107	548722	0	0
2024-08-28 10:08:47			0	37843	0	0	0	28961	27550	155243	26809	1076282	46847	110765	0	0	8108	548296	0	0
2024-08-28 10:09:47			0	37840	0	0	0	28958	27550	155167	27135	1076308	46847	110764	0	0	8108	548412	0	0
2024-08-28 10:10:47			0	37830	0	0	0	28963	27560	155247	26901	1076407	46836	110766	0	0	8107	548767	0	0
2024-08-28 10:11:47			0	37831	0	0	0	28955	27550	155131	27319	1076317	46848	110763	0	0	8108	548760	0	0
2024-08-28 10:12:47			0	37840	0	0	0	28971	27550	155195	27026	1076282	46847	110769	0	0	8108	548412	0	0
2024-08-28 10:13:47			0	37843	0	0	0	28961	27550	155071	26958	1076317	46836	110765	0	0	8108	548296	0	0
2024-08-28 10:14:47			0	37851	0	0	0	28958	27550	155127	26975	1076317	46848	110764	0	0	8109	547987	0	0
2024-08-28 10:15:47			0	37846	0	0	0	28971	27550	155135	26949	1076362	46870	110769	0	0	8108	548180	0	0
2024-08-28 10:16:47			0	37849	0	0	0	28968	27560	155159	27039	1076363	46849	110768	0	0	8108	548033	0	0
2024-08-28 10:17:47			0	37851	0	0	0	28981	27560	155155	26859	1076407	46859	110773	0	0	8108	547955	0	0
2024-08-28 10:18:47			0	37856	0	0	0	28981	27570	155131	27045	1076425	46849	110773	0	0	8109	547731	0	0
2024-08-28 10:19:47			0	37849	0	0	0	28979	27560	155147	26935	1076416	46849	110772	0	0	8108	548033	0	0
2024-08-28 10:20:47			0	37840	0	0	0	28984	27570	155175	26847	1076345	46860	110774	0	0	8108	548349	0	0
2024-08-28 10:21:47			0	37860	0	0	0	28984	27560	155095	27189	1076416	46849	110774	0	0	8109	547607	0	0
2024-08-28 10:22:47			0	37832	0	0	0	28999	27570	155239	27140	1076381	46861	110780	0	0	8107	548658	0	0
2024-08-28 10:23:47			0	37844	0	0	0	28989	27580	155267	26790	1076497	46850	110776	0	0	8108	548163	0	0
2024-08-28 10:24:47			0	37844	0	0	0	28989	27580	155203	26870	1076497	46850	110776	0	0	8108	548163	0	0
2024-08-28 10:25:47			0	37817	0	0	0	28992	27580	155207	26955	1076443	46838	110777	0	0	8106	549207	0	0
2024-08-28 10:26:47			0	37841	0	0	0	28994	27570	155231	26857	1076488	46838	110778	0	0	8108	548310	0	0
2024-08-28 10:27:47			0	37831	0	0	0	29002	27570	155087	27079	1076434	46850	110781	0	0	8107	548697	0	0
2024-08-28 10:28:47			0	37832	0	0	0	28997	27580	155067	27092	1076479	46839	110779	0	0	8107	548627	0	0
2024-08-28 10:29:47			0	37839	0	0	0	28997	27590	155071	26875	1076489	46839	110779	0	0	8108	548325	0	0
2024-08-28 10:30:47			0	37846	0	0	0	29002	27590	155135	26811	1076542	46839	110781	0	0	8108	548054	0	0
2024-08-28 10:31:47			0	37819	0	0	0	29005	27590	155135	27116	1076551	46852	110782	0	0	8106	549098	0	0
2024-08-28 10:32:47			0	37845	0	0	0	29010	27600	155107	27001	1076587	46853	110784	0	0	8108	548061	0	0
2024-08-28 10:33:47			0	37835	0	0	0	29015	27590	155095	26927	1076551	46852	110786	0	0	8107	548479	0	0
2024-08-28 10:34:47			0	37840	0	0	0	29012	27600	155055	26970	1076534	46853	110785	0	0	8107	548254	0	0
2024-08-28 10:35:47			0	37850	0	0	0	29023	27590	155123	27128	1076605	46852	110789	0	0	8108	547899	0	0
2024-08-28 10:36:47			0	37851	0	0	0	29025	27590	155103	27033	1076551	46840	110790	0	0	8108	547861	0	0
2024-08-28 10:37:47			0	37832	0	0	0	29036	27600	154999	26762	1076641	46875	110794	0	0	8107	548564	0	0
2024-08-28 10:38:47			0	37849	0	0	0	29023	27600	155063	27041	1076650	46864	110789	0	0	8108	547906	0	0
2024-08-28 10:39:47			0	37843	0	0	0	29041	27610	155031	26885	1076686	46853	110796	0	0	8107	548107	0	0
2024-08-28 10:40:47			0	37845	0	0	0	29041	27610	155095	27052	1076713	46853	110796	0	0	8107	548030	0	0
2024-08-28 10:41:47			0	37838	0	0	0	29049	27620	155075	27154	1076731	46866	110799	0	0	8107	548269	0	0
2024-08-28 10:42:47			0	37857	0	0	0	29046	27610	155067	26972	1076722	46854	110798	0	0	8108	547566	0	0
2024-08-28 10:43:47			0	37864	0	0	0	29041	27620	155051	27187	1076740	46855	110796	0	0	8108	547264	0	0
2024-08-28 10:44:47			0	37850	0	0	0	29041	27610	155027	26745	1076686	46864	110796	0	0	8108	547836	0	0
2024-08-28 10:45:47			0	37871	0	0	0	29046	27630	155091	26883	1076722	46845	110798	0	0	8109	546962	0	0
2024-08-28 10:46:47			0	37853	0	0	0	29054	27630	154955	26911	1076705	46856	110801	0	0	8108	547657	0	0
2024-08-28 10:47:47			0	37858	0	0	0	29049	27630	155043	27001	1076785	46856	110799	0	0	8108	547464	0	0
2024-08-28 10:48:47			0	37873	0	0	0	29051	27640	154979	27135	1076804	46857	110800	0	0	8109	546853	0	0
2024-08-28 10:49:47			0	37875	0	0	0	29057	27630	154895	26878	1076803	46867	110802	0	0	8109	546808	0	0
2024-08-28 10:50:47			0	37885	0	0	0	29059	27640	154903	26967	1076821	46834	110803	0	0	8109	546390	0	0
2024-08-28 10:51:47			0	37884	0	0	0	29057	27630	154987	27053	1076785	46856	110802	0	0	8109	546460	0	0
2024-08-28 10:52:47			0	37876	0	0	0	29054	27650	154867	27069	1076840	46858	110801	0	0	8109	546706	0	0
2024-08-28 10:53:47			0	37893	0	0	0	29057	27650	154919	27128	1076876	46858	110802	0	0	8110	546050	0	0
2024-08-28 10:54:47			0	37904	0	0	0	29049	27650	154851	27003	1076849	46858	110799	0	0	8111	545626	0	0
2024-08-28 10:55:47			0	37899	0	0	0	29059	27650	154851	27041	1076903	46846	110803	0	0	8110	545819	0	0
2024-08-28 10:56:47			0	37906	0	0	0	29057	27650	154839	26932	1076876	46858	110802	0	0	8111	545549	0	0
2024-08-28 10:57:47			0	37888	0	0	0	29057	27660	154755	27041	1076885	46859	110802	0	0	8110	546212	0	0
2024-08-28 10:58:47			0	37894	0	0	0	29057	27660	154815	27123	1076912	46847	110802	0	0	8110	545980	0	0
2024-08-28 10:59:47			0	37902	0	0	0	29054	27660	154883	27053	1076912	46859	110801	0	0	8111	545672	0	0
2024-08-28 11:00:47			0	37915	0	0	0	29051	27650	154735	27027	1076876	46846	110800	0	0	8111	545202	0	0
2024-08-28 11:01:47			0	37909	0	0	0	29051	27650	154763	27306	1076876	46858	110800	0	0	8111	545434	0	0
2024-08-28 11:02:47			0	37910	0	0	0	29064	27650	154779	26955	1076849	46858	110805	0	0	8111	545395	0	0
2024-08-28 11:03:47			0	37916	0	0	0	29059	27650	154783	27251	1076930	46858	110803	0	0	8111	545164	0	0
2024-08-28 11:04:47			0	37895	0	0	0	29057	27650	154719	27015	1076894	46846	110802	0	0	8110	545973	0	0
2024-08-28 11:05:47			0	37924	0	0	0	29046	27660	154659	27209	1076921	46860	110798	0	0	8112	544824	0	0
2024-08-28 11:06:47			0	37911	0	0	0	29046	27660	154771	27098	1076885	46859	110798	0	0	8111	545325	0	0
2024-08-28 11:07:47			0	37924	0	0	0	29051	27670	154651	27088	1076849	46849	110800	0	0	8112	544793	0	0
2024-08-28 11:08:47			0	37928	0	0	0	29062	27660	154707	27199	1076912	46859	110804	0	0	8112	544670	0	0
2024-08-28 11:09:47			0	37942	0	0	0	29062	27670	154667	27289	1076966	46849	110804	0	0	8113	544100	0	0
2024-08-28 11:10:47			0	37924	0	0	0	29059	27680	154651	27549	1077002	46861	110803	0	0	8112	544762	0	0
2024-08-28 11:11:47			0	37917	0	0	0	29049	27670	154591	27173	1076993	46860	110799	0	0	8112	545063	0	0
2024-08-28 11:12:47			0	37937	0	0	0	29049	27660	154639	27352	1076921	46837	110799	0	0	8113	544324	0	0
2024-08-28 11:13:47			0	37944	0	0	0	29067	27670	154595	27222	1076939	46860	110806	0	0	8113	544023	0	0
2024-08-28 11:14:47			0	37938	0	0	0	29072	27670	154483	27175	1076966	46860	110808	0	0	8112	544254	0	0
2024-08-28 11:15:47			0	37934	0	0	0	29085	27680	154587	27041	1076948	46861	110813	0	0	8112	544377	0	0
2024-08-28 11:16:47			0	37948	0	0	0	29093	27670	154535	27105	1076957	46849	110816	0	0	8113	543869	0	0
2024-08-28 11:17:47			0	37945	0	0	0	29119	27680	154547	26842	1077119	46862	110826	0	0	8112	543954	0	0
2024-08-28 11:18:47			0	37933	0	0	0	29135	27680	154643	26934	1077146	46884	110832	0	0	8111	544415	0	0
2024-08-28 11:19:47			0	37936	0	0	0	29132	27690	154567	27209	1077209	46873	110831	0	0	8111	544268	0	0
2024-08-28 11:20:47			0	37948	0	0	0	29109	27700	154683	27202	1077155	46886	110822	0	0	8112	543775	0	0
2024-08-28 11:21:47			0	37943	0	0	0	29109	27700	154547	26899	1077209	46875	110822	0	0	8112	543968	0	0
2024-08-28 11:22:47			0	37942	0	0	0	29116	27710	154615	27412	1077191	46864	110825	0	0	8112	543975	0	0
2024-08-28 11:23:47			0	37942	0	0	0	29111	27710	154619	26984	1077191	46853	110823	0	0	8112	543975	0	0
2024-08-28 11:24:47			0	37944	0	0	0	29111	27710	154595	26928	1077173	46854	110823	0	0	8112	543898	0	0
2024-08-28 11:25:47			0	37942	0	0	0	29103	27710	154551	27119	1077191	46864	110820	0	0	8112	543975	0	0
2024-08-28 11:26:47			0	37948	0	0	0	29098	27720	154571	26757	1077182	46854	110818	0	0	8113	543713	0	0
2024-08-28 11:27:47			0	37948	0	0	0	29114	27720	154559	26819	1077209	46865	110824	0	0	8112	543713	0	0
2024-08-28 11:28:47			0	37942	0	0	0	29119	27720	154499	26899	1077218	46855	110826	0	0	8112	543944	0	0
2024-08-28 11:29:47			0	37973	0	0	0	29116	27720	154591	26842	1077236	46865	110825	0	0	8114	542752	0	0
2024-08-28 11:30:47			0	37968	0	0	0	29111	27720	154619	27104	1077218	46855	110823	0	0	8114	542944	0	0
2024-08-28 11:31:47			0	37984	0	0	0	29106	27720	154515	27168	1077272	46866	110821	0	0	8115	542330	0	0
2024-08-28 11:32:47			0	37973	0	0	0	29122	27720	154423	26899	1077290	46865	110827	0	0	8114	542752	0	0
2024-08-28 11:33:47			0	37970	0	0	0	29140	27730	154503	26798	1077344	46867	110834	0	0	8113	542836	0	0
2024-08-28 11:34:47			0	37979	0	0	0	29153	27740	154419	26989	1077326	46877	110839	0	0	8114	542459	0	0
2024-08-28 11:35:47			0	37976	0	0	0	29163	27740	154479	26904	1077389	46878	110843	0	0	8113	542574	0	0
2024-08-28 11:36:47			0	37984	0	0	0	29161	27740	154511	27029	1077362	46868	110842	0	0	8114	542267	0	0
2024-08-28 11:37:47			0	37971	0	0	0	29161	27740	154451	27185	1077416	46868	110842	0	0	8113	542766	0	0
2024-08-28 11:38:47			0	37982	0	0	0	29155	27750	154395	26922	1077479	46869	110840	0	0	8114	542313	0	0
2024-08-28 11:39:47			0	37977	0	0	0	29163	27750	154363	27010	1077425	46869	110843	0	0	8113	542505	0	0
2024-08-28 11:40:47			0	37985	0	0	0	29168	27750	154407	27204	1077425	46869	110845	0	0	8114	542198	0	0
2024-08-28 11:41:47			0	37979	0	0	0	29176	27750	154415	27258	1077434	46858	110848	0	0	8113	542428	0	0
2024-08-28 11:42:47			0	37975	0	0	0	29179	27760	154419	27177	1077497	46858	110849	0	0	8113	542550	0	0
2024-08-28 11:43:47			0	37985	0	0	0	29166	27760	154319	27287	1077533	46859	110844	0	0	8114	542166	0	0
2024-08-28 11:44:47			0	37969	0	0	0	29150	27760	154367	27296	1077506	46870	110838	0	0	8113	542781	0	0
2024-08-28 11:45:47			0	37984	0	0	0	29153	27770	154351	27253	1077515	46871	110839	0	0	8114	542173	0	0
2024-08-28 11:46:47			0	37997	0	0	0	29161	27760	154403	27140	1077479	46870	110842	0	0	8115	541706	0	0
2024-08-28 11:47:47			0	37998	0	0	0	29161	27780	154263	27090	1077533	46871	110842	0	0	8115	541605	0	0
2024-08-28 11:48:47			0	38025	0	0	0	29145	27760	154207	26948	1077533	46859	110836	0	0	8117	540633	0	0
2024-08-28 11:49:47			0	38011	0	0	0	29171	27770	154163	26734	1077461	46871	110846	0	0	8115	541138	0	0
2024-08-28 11:50:47			0	38010	0	0	0	29163	27770	154183	26623	1077497	46871	110843	0	0	8115	541176	0	0
2024-08-28 11:51:47			0	38013	0	0	0	29150	27770	154155	26890	1077488	46871	110838	0	0	8116	541061	0	0
2024-08-28 11:52:47			0	38027	0	0	0	29150	27770	154136	26748	1077497	46871	110838	0	0	8117	540525	0	0
2024-08-28 11:53:47			0	38034	0	0	0	29192	27760	154080	26942	1077578	46869	110854	0	0	8116	540288	0	0
2024-08-28 11:54:47			0	38034	0	0	0	29210	27770	154136	27007	1077569	46871	110861	0	0	8116	540257	0	0
2024-08-28 11:55:47			0	38039	0	0	0	29218	27780	154140	27001	1077641	46871	110864	0	0	8116	540034	0	0
2024-08-28 11:56:47			0	38029	0	0	0	29210	27780	154091	27019	1077677	46882	110861	0	0	8116	540417	0	0
2024-08-28 11:57:47			0	38026	0	0	0	29215	27790	154108	27085	1077686	46862	110863	0	0	8116	540501	0	0
2024-08-28 11:58:47			0	38034	0	0	0	29218	27790	154072	27194	1077740	46873	110864	0	0	8116	540194	0	0
2024-08-28 11:59:47			0	38047	0	0	0	29199	27810	154116	26994	1077768	46863	110857	0	0	8117	539635	0	0
2024-08-28 12:00:47			0	38032	0	0	0	29168	27810	154099	26835	1077660	46874	110845	0	0	8117	540209	0	0
2024-08-28 12:01:47			0	38061	0	0	0	29179	27800	153936	26987	1077678	46874	110849	0	0	8118	539130	0	0
2024-08-28 12:02:47			0	38059	0	0	0	29173	27790	153920	26720	1077669	46863	110847	0	0	8118	539238	0	0
2024-08-28 12:03:47			0	38071	0	0	0	29161	27810	153936	27170	1077714	46874	110842	0	0	8119	538717	0	0
2024-08-28 12:04:47			0	38069	0	0	0	29163	27810	153880	26956	1077660	46863	110843	0	0	8119	538793	0	0
2024-08-28 12:05:47			0	38089	0	0	0	29135	27800	153832	26880	1077624	46874	110832	0	0	8121	538060	0	0
2024-08-28 12:06:47			0	38109	0	0	0	29148	27790	153712	27000	1077552	46862	110837	0	0	8121	537328	0	0
2024-08-28 12:07:47			0	38110	0	0	0	29140	27790	153716	27057	1077633	46873	110834	0	0	8122	537289	0	0
2024-08-28 12:08:47			0	38101	0	0	0	29184	27790	153732	27066	1077579	46862	110851	0	0	8120	537633	0	0
2024-08-28 12:09:47			0	38110	0	0	0	29194	27810	153696	26842	1077768	46874	110855	0	0	8121	537227	0	0
2024-08-28 12:10:47			0	38105	0	0	0	29181	27810	153744	27092	1077714	46874	110850	0	0	8121	537418	0	0
2024-08-28 12:11:47			0	38106	0	0	0	29166	27810	153808	27291	1077750	46864	110844	0	0	8121	537380	0	0
2024-08-28 12:12:47			0	38123	0	0	0	29171	27800	153792	26955	1077678	46851	110846	0	0	8122	536762	0	0
2024-08-28 12:13:47			0	38087	0	0	0	29186	27820	153808	27163	1077732	46865	110852	0	0	8120	538074	0	0
2024-08-28 12:14:47			0	38091	0	0	0	29184	27810	153876	26889	1077660	46863	110851	0	0	8120	537953	0	0
2024-08-28 12:15:47			0	38089	0	0	0	29189	27810	153816	27274	1077633	46874	110853	0	0	8120	538029	0	0
2024-08-28 12:16:47			0	38106	0	0	0	29192	27820	153772	27064	1077678	46853	110854	0	0	8121	537349	0	0
2024-08-28 12:17:47			0	38090	0	0	0	29199	27810	153756	27097	1077696	46864	110857	0	0	8120	537991	0	0
2024-08-28 12:18:47			0	38083	0	0	0	29205	27810	153868	27111	1077777	46875	110859	0	0	8119	538258	0	0
2024-08-28 12:19:47			0	38099	0	0	0	29192	27810	153800	26693	1077768	46863	110854	0	0	8120	537647	0	0
2024-08-28 12:20:47			0	38096	0	0	0	29189	27810	153832	26845	1077723	46875	110853	0	0	8120	537762	0	0
2024-08-28 12:21:47			0	38095	0	0	0	29192	27820	153832	27057	1077714	46875	110854	0	0	8120	537769	0	0
2024-08-28 12:22:47			0	38110	0	0	0	29184	27810	153792	26814	1077687	46851	110851	0	0	8121	537227	0	0
2024-08-28 12:23:47			0	38097	0	0	0	29171	27810	153732	26805	1077750	46864	110846	0	0	8120	537724	0	0
2024-08-28 12:24:47			0	38112	0	0	0	29171	27800	153788	26828	1077597	46851	110846	0	0	8121	537182	0	0
2024-08-28 12:25:47			0	38108	0	0	0	29179	27800	153736	26791	1077570	46851	110849	0	0	8121	537335	0	0
2024-08-28 12:26:47			0	38111	0	0	0	29205	27800	153732	26708	1077705	46863	110859	0	0	8121	537220	0	0
2024-08-28 12:27:47			0	38116	0	0	0	29205	27810	153744	26850	1077660	46874	110859	0	0	8121	536999	0	0
2024-08-28 12:28:47			0	38129	0	0	0	29210	27810	153780	27220	1077696	46875	110861	0	0	8122	536503	0	0
2024-08-28 12:29:47			0	38105	0	0	0	29207	27820	153776	26764	1077759	46875	110860	0	0	8120	537387	0	0
2024-08-28 12:30:47			0	38128	0	0	0	29194	27820	153784	26778	1077822	46875	110855	0	0	8122	536510	0	0
2024-08-28 12:31:47			0	38106	0	0	0	29212	27820	153804	26982	1077822	46875	110862	0	0	8120	537349	0	0
2024-08-28 12:32:47			0	38103	0	0	0	29210	27820	153724	26722	1077759	46865	110861	0	0	8120	537464	0	0
2024-08-28 12:33:47			0	38109	0	0	0	29202	27820	153800	26876	1077741	46875	110858	0	0	8121	537235	0	0
2024-08-28 12:34:47			0	38132	0	0	0	29207	27820	153824	26866	1077678	46842	110860	0	0	8122	536358	0	0
2024-08-28 12:35:47			0	38120	0	0	0	29210	27810	153796	27168	1077750	46852	110861	0	0	8121	536846	0	0
2024-08-28 12:36:47			0	38118	0	0	0	29202	27820	153708	27055	1077759	46865	110858	0	0	8121	536891	0	0
2024-08-28 12:37:47			0	38120	0	0	0	29210	27830	153720	26996	1077777	46875	110861	0	0	8121	536784	0	0
2024-08-28 12:38:47			0	38113	0	0	0	29202	27820	153776	26873	1077795	46865	110858	0	0	8121	537082	0	0
2024-08-28 12:39:47			0	38118	0	0	0	29238	27820	153740	26939	1077786	46875	110872	0	0	8121	536891	0	0
2024-08-28 12:40:47			0	38111	0	0	0	29249	27820	153840	26850	1077866	46875	110876	0	0	8120	537158	0	0
2024-08-28 12:41:47			0	38113	0	0	0	29262	27830	153796	27171	1077938	46886	110881	0	0	8120	537051	0	0
2024-08-28 12:42:47			0	38128	0	0	0	29283	27840	153812	26800	1078010	46877	110889	0	0	8121	536448	0	0
2024-08-28 12:43:47			0	38129	0	0	0	29277	27840	153796	26899	1078020	46900	110887	0	0	8121	536410	0	0
2024-08-28 12:44:47			0	38126	0	0	0	29257	27860	153740	26734	1078047	46879	110879	0	0	8121	536463	0	0
2024-08-28 12:45:47			0	38142	0	0	0	29233	27860	153792	26941	1078029	46880	110870	0	0	8122	535853	0	0
2024-08-28 12:46:47			0	38117	0	0	0	29238	27870	153772	27034	1078020	46870	110872	0	0	8121	536775	0	0
2024-08-28 12:47:47			0	38115	0	0	0	29238	27860	153772	26750	1078002	46870	110872	0	0	8121	536882	0	0
2024-08-28 12:48:47			0	38117	0	0	0	29236	27860	153760	26850	1078002	46847	110871	0	0	8121	536806	0	0
2024-08-28 12:49:47			0	38132	0	0	0	29257	27860	153752	26970	1077993	46879	110879	0	0	8121	536234	0	0
2024-08-28 12:50:47			0	38126	0	0	0	29285	27850	153712	26916	1078029	46877	110890	0	0	8120	536494	0	0
2024-08-28 12:51:47			0	38130	0	0	0	29327	27870	153720	27079	1078155	46880	110906	0	0	8120	536279	0	0
2024-08-28 12:52:47			0	38127	0	0	0	29342	27880	153716	27036	1078191	46881	110912	0	0	8120	536363	0	0
2024-08-28 12:53:47			0	38122	0	0	0	29337	27880	153704	27166	1078254	46893	110910	0	0	8119	536553	0	0
2024-08-28 12:54:47			0	38113	0	0	0	29332	27890	153772	26826	1078218	46872	110908	0	0	8119	536866	0	0
2024-08-28 12:55:47			0	38123	0	0	0	29358	27900	153708	27069	1078344	46907	110918	0	0	8119	536453	0	0
2024-08-28 12:56:47			0	38134	0	0	0	29350	27910	153740	27293	1078416	46896	110915	0	0	8120	536003	0	0
2024-08-28 12:57:47			0	38133	0	0	0	29324	27910	153692	27358	1078389	46884	110905	0	0	8120	536041	0	0
2024-08-28 12:58:47			0	38117	0	0	0	29381	27920	153668	26804	1078434	46886	110927	0	0	8119	536620	0	0
2024-08-28 12:59:47			0	38137	0	0	0	29366	27940	153628	26776	1078515	46899	110921	0	0	8120	535796	0	0
2024-08-28 13:00:47			0	38147	0	0	0	29348	27930	153664	26802	1078506	46887	110914	0	0	8121	535446	0	0
2024-08-28 13:01:47			0	38161	0	0	0	29371	27950	153636	26972	1078533	46889	110923	0	0	8121	534852	0	0
2024-08-28 13:02:47			0	38149	0	0	0	29361	27940	153576	27197	1078578	46877	110919	0	0	8121	535339	0	0
2024-08-28 13:03:47			0	38168	0	0	0	29340	27950	153484	27109	1078533	46889	110911	0	0	8122	534586	0	0
2024-08-28 13:04:47			0	38164	0	0	0	29345	27950	153452	27131	1078569	46878	110913	0	0	8122	534738	0	0
2024-08-28 13:05:47			0	38168	0	0	0	29319	27950	153412	26996	1078462	46867	110903	0	0	8123	534586	0	0
2024-08-28 13:06:47			0	38186	0	0	0	29314	27950	153348	27248	1078489	46878	110901	0	0	8124	533901	0	0
2024-08-28 13:07:47			0	38207	0	0	0	29285	27950	153372	26816	1078426	46856	110890	0	0	8126	533104	0	0
2024-08-28 13:08:47			0	38216	0	0	0	29275	27940	153280	26916	1078336	46866	110886	0	0	8126	532793	0	0
2024-08-28 13:09:47			0	38217	0	0	0	29296	27940	153132	27213	1078336	46844	110894	0	0	8126	532755	0	0
2024-08-28 13:10:47			0	38259	0	0	0	29303	27930	153176	26859	1078336	46865	110897	0	0	8128	531194	0	0
2024-08-28 13:11:47			0	38250	0	0	0	29311	27920	153156	27230	1078344	46852	110900	0	0	8127	531565	0	0
2024-08-28 13:12:47			0	38273	0	0	0	29329	27930	153128	27232	1078345	46865	110907	0	0	8128	530663	0	0
2024-08-28 13:13:47			0	38264	0	0	0	29324	27920	153072	27013	1078353	46886	110905	0	0	8128	531035	0	0
2024-08-28 13:14:47			0	38271	0	0	0	29337	27940	153172	26875	1078542	46887	110910	0	0	8128	530709	0	0
2024-08-28 13:15:47			0	38270	0	0	0	29374	27940	153036	27064	1078542	46887	110924	0	0	8128	530746	0	0
2024-08-28 13:16:47			0	38262	0	0	0	29381	27950	153240	27156	1078596	46901	110927	0	0	8127	531019	0	0
2024-08-28 13:17:47			0	38246	0	0	0	29399	27980	153168	26691	1078642	46914	110934	0	0	8126	531533	0	0
2024-08-28 13:18:47			0	38265	0	0	0	29389	27980	153104	27020	1078749	46903	110930	0	0	8127	530813	0	0
2024-08-28 13:19:47			0	38248	0	0	0	29335	27990	153208	26887	1078687	46882	110909	0	0	8127	531426	0	0
2024-08-28 13:20:47			0	38238	0	0	0	29311	27980	153144	27518	1078561	46869	110900	0	0	8127	531836	0	0
2024-08-28 13:21:47			0	38260	0	0	0	29298	27970	153244	26885	1078489	46858	110895	0	0	8128	531033	0	0
2024-08-28 13:22:47			0	38242	0	0	0	29306	27950	153120	27020	1078435	46856	110898	0	0	8127	531776	0	0
2024-08-28 13:23:47			0	38254	0	0	0	29309	27940	153016	26963	1078470	46866	110899	0	0	8128	531352	0	0
2024-08-28 13:24:47			0	38266	0	0	0	29309	27940	153016	27088	1078417	46866	110899	0	0	8128	530898	0	0
2024-08-28 13:25:47			0	38251	0	0	0	29301	27950	153084	26979	1078399	46856	110896	0	0	8128	531435	0	0
2024-08-28 13:26:47			0	38248	0	0	0	29316	27940	153104	26946	1078470	46877	110902	0	0	8127	531580	0	0
2024-08-28 13:27:47			0	38262	0	0	0	29335	27950	153024	27066	1078480	46889	110909	0	0	8128	531019	0	0
2024-08-28 13:28:47			0	38253	0	0	0	29348	27940	153172	27341	1078551	46866	110914	0	0	8127	531390	0	0
2024-08-28 13:29:47			0	38243	0	0	0	29381	27950	153200	27178	1078623	46889	110927	0	0	8126	531738	0	0
2024-08-28 13:30:47			0	38228	0	0	0	29368	27960	153204	26956	1078695	46890	110922	0	0	8125	532276	0	0
2024-08-28 13:31:47			0	38232	0	0	0	29368	27960	153212	27306	1078695	46890	110922	0	0	8126	532125	0	0
2024-08-28 13:32:47			0	38224	0	0	0	29353	27980	153192	26753	1078749	46891	110916	0	0	8125	532367	0	0
2024-08-28 13:33:47			0	38251	0	0	0	29355	27980	153192	26736	1078615	46880	110917	0	0	8127	531343	0	0
2024-08-28 13:34:47			0	38235	0	0	0	29350	27980	153196	26885	1078597	46870	110915	0	0	8126	531950	0	0
2024-08-28 13:35:47			0	38224	0	0	0	29337	27970	153124	27076	1078624	46880	110910	0	0	8126	532398	0	0
2024-08-28 13:36:47			0	38242	0	0	0	29342	27980	153156	26932	1078588	46880	110912	0	0	8127	531684	0	0
2024-08-28 13:37:47			0	38212	0	0	0	29348	27970	153248	26923	1078543	46880	110914	0	0	8125	532853	0	0
2024-08-28 13:38:47			0	38206	0	0	0	29361	27970	153256	27098	1078543	46880	110919	0	0	8124	533080	0	0
2024-08-28 13:39:47			0	38218	0	0	0	29410	27970	153260	27081	1078624	46891	110938	0	0	8124	532625	0	0
2024-08-28 13:40:47			0	38212	0	0	0	29428	27990	153344	27039	1078768	46905	110945	0	0	8124	532791	0	0
2024-08-28 13:41:47			0	38210	0	0	0	29425	27990	153284	27027	1078875	46893	110944	0	0	8124	532867	0	0
2024-08-28 13:42:47			0	38196	0	0	0	29418	28000	153376	27076	1078822	46894	110941	0	0	8123	533368	0	0
2024-08-28 13:43:47			0	38195	0	0	0	29399	28000	153300	27140	1078876	46872	110934	0	0	8123	533406	0	0
2024-08-28 13:44:47			0	38217	0	0	0	29399	28010	153272	27305	1078813	46874	110934	0	0	8124	532540	0	0
2024-08-28 13:45:47			0	38216	0	0	0	29397	28000	153272	27034	1078795	46883	110933	0	0	8124	532609	0	0
2024-08-28 13:46:47			0	38235	0	0	0	29402	28010	153184	27197	1078777	46895	110935	0	0	8125	531858	0	0
2024-08-28 13:47:47			0	38201	0	0	0	29394	28010	153216	27001	1078831	46873	110932	0	0	8124	533147	0	0
2024-08-28 13:48:47			0	38197	0	0	0	29405	28000	153204	27225	1078822	46883	110936	0	0	8123	533330	0	0
2024-08-28 13:49:47			0	38199	0	0	0	29425	28020	153288	27164	1078876	46885	110944	0	0	8123	533192	0	0
2024-08-28 13:50:47			0	38212	0	0	0	29438	28020	153184	26902	1078939	46896	110949	0	0	8124	532699	0	0
2024-08-28 13:51:47			0	38224	0	0	0	29457	28040	153228	27007	1079020	46898	110956	0	0	8124	532183	0	0
2024-08-28 13:52:47			0	38223	0	0	0	29457	28040	153272	27066	1079137	46910	110956	0	0	8124	532220	0	0
2024-08-28 13:53:47			0	38195	0	0	0	29441	28060	153180	27031	1079164	46889	110950	0	0	8123	533221	0	0
2024-08-28 13:54:47			0	38204	0	0	0	29420	28060	153144	27156	1079093	46890	110942	0	0	8124	532880	0	0
2024-08-28 13:55:47			0	38202	0	0	0	29418	28060	153184	27118	1078985	46878	110941	0	0	8123	532956	0	0
2024-08-28 13:56:47			0	38214	0	0	0	29428	28040	153172	26955	1079002	46854	110945	0	0	8124	532562	0	0
2024-08-28 13:57:47			0	38212	0	0	0	29457	28040	153224	27112	1079029	46887	110956	0	0	8123	532638	0	0
2024-08-28 13:58:47			0	38208	0	0	0	29501	28060	153156	26951	1079164	46900	110973	0	0	8122	532728	0	0
2024-08-28 13:59:47			0	38226	0	0	0	29457	28070	153164	26935	1079156	46901	110956	0	0	8124	532015	0	0
2024-08-28 14:00:47			0	38217	0	0	0	29511	28070	153248	27140	1079245	46902	110977	0	0	8123	532356	0	0
2024-08-28 14:01:47			0	38221	0	0	0	29519	28080	153240	27140	1079344	46915	110980	0	0	8123	532173	0	0
2024-08-28 14:02:47			0	38209	0	0	0	29561	28080	153188	26960	1079254	46914	110996	0	0	8122	532629	0	0
2024-08-28 14:03:47			0	38213	0	0	0	29501	28110	153148	26705	1079435	46905	110973	0	0	8123	532384	0	0
2024-08-28 14:04:47			0	38206	0	0	0	29498	28120	153216	26599	1079381	46907	110972	0	0	8123	532619	0	0
2024-08-28 14:05:47			0	38229	0	0	0	29514	28120	152968	27048	1079453	46906	110978	0	0	8124	531747	0	0
2024-08-28 14:06:47			0	38279	0	0	0	29480	28120	152780	26970	1079462	46907	110965	0	0	8127	529855	0	0
2024-08-28 14:07:47			0	38307	0	0	0	29459	28120	152708	27133	1079462	46884	110957	0	0	8129	528797	0	0
2024-08-28 14:08:47			0	38332	0	0	0	29467	28120	152680	26942	1079372	46895	110960	0	0	8130	527854	0	0
2024-08-28 14:09:47			0	38337	0	0	0	29506	28120	152564	27281	1079408	46896	110975	0	0	8130	527665	0	0
2024-08-28 14:10:47			0	38358	0	0	0	29490	28120	152612	27178	1079435	46896	110969	0	0	8131	526874	0	0
2024-08-28 14:11:47			0	38353	0	0	0	29470	28130	152612	27156	1079498	46896	110961	0	0	8132	527032	0	0
2024-08-28 14:12:47			0	38352	0	0	0	29446	28130	152476	26776	1079417	46884	110952	0	0	8132	527070	0	0
2024-08-28 14:13:47			0	38347	0	0	0	29436	28130	152492	26625	1079426	46885	110948	0	0	8132	527258	0	0
2024-08-28 14:14:47			0	38356	0	0	0	29470	28120	152480	26856	1079327	46884	110961	0	0	8132	526949	0	0
2024-08-28 14:15:47			0	38345	0	0	0	29529	28120	152520	27300	1079408	46896	110984	0	0	8130	527364	0	0
2024-08-28 14:16:47			0	38351	0	0	0	29459	28130	152544	27026	1079453	46885	110957	0	0	8132	527107	0	0
2024-08-28 14:17:47			0	38351	0	0	0	29449	28130	152588	26904	1079399	46885	110953	0	0	8132	527107	0	0
2024-08-28 14:18:47			0	38337	0	0	0	29472	28110	152496	26904	1079309	46895	110962	0	0	8131	527696	0	0
2024-08-28 14:19:47			0	38355	0	0	0	29462	28120	152496	27163	1079408	46884	110958	0	0	8132	526987	0	0
2024-08-28 14:20:47			0	38340	0	0	0	29459	28120	152540	26904	1079408	46884	110957	0	0	8131	527552	0	0
2024-08-28 14:21:47			0	38339	0	0	0	29514	28120	152484	27036	1079489	46874	110978	0	0	8130	527590	0	0
2024-08-28 14:22:47			0	38337	0	0	0	29485	28130	152560	26816	1079417	46896	110967	0	0	8130	527635	0	0
2024-08-28 14:23:47			0	38324	0	0	0	29483	28120	152552	26942	1079354	46884	110966	0	0	8130	528156	0	0
2024-08-28 14:24:47			0	38323	0	0	0	29516	28120	152604	26942	1079354	46896	110979	0	0	8129	528193	0	0
2024-08-28 14:25:47			0	38336	0	0	0	29524	28120	152472	26828	1079408	46874	110982	0	0	8130	527703	0	0
2024-08-28 14:26:47			0	38315	0	0	0	29511	28130	152572	26852	1079453	46897	110977	0	0	8129	528465	0	0
2024-08-28 14:27:47			0	38334	0	0	0	29516	28130	152724	26963	1079498	46896	110979	0	0	8130	527748	0	0
2024-08-28 14:28:47			0	38334	0	0	0	29571	28130	152504	26670	1079561	46885	111000	0	0	8129	527748	0	0
2024-08-28 14:29:47			0	38326	0	0	0	29519	28140	152572	26752	1079543	46897	110980	0	0	8129	528019	0	0
2024-08-28 14:30:47			0	38347	0	0	0	29509	28140	152484	27039	1079633	46898	110976	0	0	8131	527228	0	0
2024-08-28 14:31:47			0	38340	0	0	0	29506	28150	152500	26873	1079534	46886	110975	0	0	8130	527461	0	0
2024-08-28 14:32:47			0	38347	0	0	0	29516	28140	152460	26991	1079516	46897	110979	0	0	8131	527228	0	0
2024-08-28 14:33:47			0	38356	0	0	0	29545	28150	152528	27001	1079669	46898	110990	0	0	8131	526858	0	0
2024-08-28 14:34:47			0	38369	0	0	0	29558	28150	152476	27137	1079615	46909	110995	0	0	8131	526369	0	0
2024-08-28 14:35:47			0	38365	0	0	0	29535	28150	152476	26932	1079534	46909	110986	0	0	8131	526519	0	0
2024-08-28 14:36:47			0	38349	0	0	0	29553	28150	152536	27112	1079588	46886	110993	0	0	8130	527122	0	0
2024-08-28 14:37:47			0	38361	0	0	0	29527	28160	152540	27126	1079633	46921	110983	0	0	8131	526639	0	0
2024-08-28 14:38:47			0	38359	0	0	0	29522	28170	152560	26899	1079732	46900	110981	0	0	8131	526684	0	0
2024-08-28 14:39:47			0	38341	0	0	0	29503	28160	152468	27007	1079633	46888	110974	0	0	8130	527393	0	0
2024-08-28 14:40:47			0	38342	0	0	0	29516	28150	152432	27013	1079624	46888	110979	0	0	8130	527386	0	0
2024-08-28 14:41:47			0	38360	0	0	0	29529	28160	152472	27353	1079660	46888	110984	0	0	8131	526677	0	0
2024-08-28 14:42:47			0	38362	0	0	0	29555	28150	152524	27384	1079669	46898	110994	0	0	8131	526632	0	0
2024-08-28 14:43:47			0	38373	0	0	0	29563	28160	152492	27445	1079723	46911	110997	0	0	8131	526188	0	0
2024-08-28 14:44:47			0	38360	0	0	0	29545	28160	152484	27225	1079723	46911	110990	0	0	8131	526677	0	0
2024-08-28 14:45:47			0	38362	0	0	0	29527	28170	152484	26875	1079759	46900	110983	0	0	8131	526571	0	0
2024-08-28 14:46:47			0	38363	0	0	0	29501	28160	152388	27225	1079669	46900	110973	0	0	8132	526564	0	0
2024-08-28 14:47:47			0	38362	0	0	0	29524	28160	152384	26972	1079606	46888	110982	0	0	8131	526602	0	0
2024-08-28 14:48:47			0	38367	0	0	0	29516	28160	152316	26941	1079633	46899	110979	0	0	8132	526413	0	0
2024-08-28 14:49:47			0	38382	0	0	0	29553	28160	152296	26720	1079633	46910	110993	0	0	8132	525849	0	0
2024-08-28 14:50:47			0	38376	0	0	0	29563	28170	152380	26817	1079732	46911	110997	0	0	8132	526044	0	0
2024-08-28 14:51:47			0	38377	0	0	0	29555	28170	152376	26771	1079741	46901	110994	0	0	8132	526007	0	0
2024-08-28 14:52:47			0	38376	0	0	0	29561	28180	152348	26748	1079831	46913	110996	0	0	8132	526014	0	0
2024-08-28 14:53:47			0	38368	0	0	0	29555	28170	152400	26994	1079705	46911	110994	0	0	8131	526345	0	0
2024-08-28 14:54:47			0	38374	0	0	0	29511	28170	152356	26755	1079625	46889	110977	0	0	8132	526120	0	0
2024-08-28 14:55:47			0	38391	0	0	0	29527	28160	152368	27100	1079669	46877	110983	0	0	8133	525510	0	0
2024-08-28 14:56:47			0	38391	0	0	0	29555	28160	152412	27201	1079669	46900	110994	0	0	8132	525510	0	0
2024-08-28 14:57:47			0	38375	0	0	0	29553	28160	152352	26870	1079723	46911	110993	0	0	8132	526112	0	0
2024-08-28 14:58:47			0	38379	0	0	0	29529	28160	152320	27033	1079643	46889	110984	0	0	8132	525962	0	0
2024-08-28 14:59:47			0	38384	0	0	0	29581	28160	152400	26923	1079777	46900	111004	0	0	8132	525774	0	0
2024-08-28 15:00:47			0	38384	0	0	0	29597	28170	152340	27100	1079732	46911	111010	0	0	8131	525743	0	0
2024-08-28 15:01:47			0	38380	0	0	0	29561	28180	152216	27251	1079778	46913	110996	0	0	8132	525863	0	0
2024-08-28 15:02:47			0	38383	0	0	0	29561	28180	152252	27282	1079787	46902	110996	0	0	8132	525751	0	0
2024-08-28 15:03:47			0	38392	0	0	0	29561	28170	152260	26824	1079795	46912	110996	0	0	8132	525443	0	0
2024-08-28 15:04:47			0	38426	0	0	0	29540	28180	152280	26958	1079840	46935	110988	0	0	8135	524135	0	0
2024-08-28 15:05:47			0	38420	0	0	0	29535	28180	152200	27138	1079778	46902	110986	0	0	8135	524360	0	0
2024-08-28 15:06:47			0	38413	0	0	0	29545	28190	152136	27046	1079796	46891	110990	0	0	8134	524593	0	0
2024-08-28 15:07:47			0	38429	0	0	0	29542	28190	152128	26977	1079850	46902	110989	0	0	8135	523992	0	0
2024-08-28 15:08:47			0	38423	0	0	0	29571	28170	152128	26946	1079741	46890	111000	0	0	8134	524278	0	0
2024-08-28 15:09:47			0	38420	0	0	0	29594	28180	152176	27173	1079804	46902	111009	0	0	8134	524360	0	0
2024-08-28 15:10:47			0	38428	0	0	0	29584	28180	152284	27055	1079787	46902	111005	0	0	8134	524060	0	0
2024-08-28 15:11:47			0	38415	0	0	0	29576	28190	152316	26994	1079796	46924	111002	0	0	8134	524517	0	0
2024-08-28 15:12:47			0	38409	0	0	0	29605	28190	152260	26842	1079886	46903	111013	0	0	8133	524743	0	0
2024-08-28 15:13:47			0	38426	0	0	0	29615	28200	152188	26580	1079922	46904	111017	0	0	8134	524074	0	0
2024-08-28 15:14:47			0	38394	0	0	0	29620	28200	152280	26831	1079904	46915	111019	0	0	8132	525276	0	0
2024-08-28 15:15:47			0	38412	0	0	0	29633	28210	152240	27145	1079967	46916	111024	0	0	8133	524570	0	0
2024-08-28 15:16:47			0	38386	0	0	0	29633	28230	152224	27012	1080084	46929	111024	0	0	8131	525486	0	0
2024-08-28 15:17:47			0	38402	0	0	0	29573	28230	152192	27015	1080093	46917	111001	0	0	8133	524885	0	0
2024-08-28 15:18:47			0	38396	0	0	0	29602	28230	152212	27199	1080030	46896	111012	0	0	8132	525110	0	0
2024-08-28 15:19:47			0	38408	0	0	0	29628	28230	152184	26897	1080057	46907	111022	0	0	8133	524659	0	0
2024-08-28 15:20:47			0	38424	0	0	0	29615	28220	152224	27102	1080048	46906	111017	0	0	8134	524089	0	0
2024-08-28 15:21:47			0	38421	0	0	0	29610	28230	152200	27192	1079976	46917	111015	0	0	8134	524171	0	0
2024-08-28 15:22:47			0	38415	0	0	0	29628	28230	152168	27131	1080057	46907	111022	0	0	8133	524396	0	0
2024-08-28 15:23:47			0	38412	0	0	0	29602	28230	152084	27112	1080066	46917	111012	0	0	8133	524509	0	0
2024-08-28 15:24:47			0	38451	0	0	0	29599	28230	152108	27274	1080030	46896	111011	0	0	8135	523045	0	0
2024-08-28 15:25:47			0	38432	0	0	0	29605	28230	151900	27095	1079976	46884	111013	0	0	8134	523758	0	0
2024-08-28 15:26:47			0	38450	0	0	0	29628	28230	152008	26809	1080003	46896	111022	0	0	8135	523083	0	0
2024-08-28 15:27:47			0	38457	0	0	0	29649	28230	151964	27265	1080057	46917	111030	0	0	8135	522821	0	0
2024-08-28 15:28:47			0	38464	0	0	0	29690	28240	152016	27398	1080156	46908	111046	0	0	8135	522528	0	0
2024-08-28 15:29:47			0	38459	0	0	0	29690	28250	151980	27234	1080255	46919	111046	0	0	8134	522685	0	0
2024-08-28 15:30:47			0	38463	0	0	0	29646	28260	151980	27048	1080336	46933	111029	0	0	8136	522505	0	0
2024-08-28 15:31:47			0	38461	0	0	0	29664	28260	152004	26986	1080255	46921	111036	0	0	8135	522580	0	0
2024-08-28 15:32:47			0	38490	0	0	0	29662	28260	151928	27020	1080336	46921	111035	0	0	8137	521494	0	0
2024-08-28 15:33:47			0	38479	0	0	0	29670	28270	151852	27166	1080328	46911	111038	0	0	8136	521876	0	0
2024-08-28 15:34:47			0	38484	0	0	0	29670	28270	151932	26731	1080355	46921	111038	0	0	8136	521688	0	0
2024-08-28 15:35:47			0	38489	0	0	0	29651	28280	151832	27227	1080337	46912	111031	0	0	8137	521471	0	0
2024-08-28 15:36:47			0	38512	0	0	0	29672	28280	151728	27157	1080310	46901	111039	0	0	8138	520611	0	0
2024-08-28 15:37:47			0	38517	0	0	0	29683	28280	151620	27263	1080292	46913	111043	0	0	8138	520424	0	0
2024-08-28 15:38:47			0	38510	0	0	0	29644	28280	151732	27171	1080292	46923	111028	0	0	8138	520686	0	0
2024-08-28 15:39:47			0	38517	0	0	0	29638	28280	151700	26778	1080373	46913	111026	0	0	8139	520424	0	0
2024-08-28 15:40:47			0	38555	0	0	0	29649	28280	151636	27005	1080310	46901	111030	0	0	8141	519005	0	0
2024-08-28 15:41:47			0	38562	0	0	0	29698	28280	151656	26703	1080373	46902	111049	0	0	8140	518744	0	0
2024-08-28 15:42:47			0	38569	0	0	0	29706	28300	151556	27069	1080463	46925	111052	0	0	8141	518423	0	0
2024-08-28 15:43:47			0	38564	0	0	0	29649	28280	151588	27031	1080319	46913	111030	0	0	8141	518669	0	0
2024-08-28 15:44:47			0	38566	0	0	0	29667	28280	151528	26953	1080364	46912	111037	0	0	8141	518595	0	0
2024-08-28 15:45:47			0	38580	0	0	0	29688	28290	151496	27104	1080355	46913	111045	0	0	8142	518043	0	0
2024-08-28 15:46:47			0	38575	0	0	0	29719	28280	151500	27263	1080373	46923	111057	0	0	8141	518259	0	0
2024-08-28 15:47:47			0	38570	0	0	0	29711	28300	151560	27107	1080427	46914	111054	0	0	8141	518386	0	0
2024-08-28 15:48:47			0	38583	0	0	0	29703	28300	151568	26975	1080436	46937	111051	0	0	8142	517901	0	0
2024-08-28 15:49:47			0	38558	0	0	0	29685	28310	151508	27081	1080481	46916	111044	0	0	8140	518803	0	0
2024-08-28 15:50:47			0	38572	0	0	0	29662	28310	151564	27072	1080445	46916	111035	0	0	8142	518281	0	0
2024-08-28 15:51:47			0	38591	0	0	0	29688	28310	151572	27244	1080418	46905	111045	0	0	8142	517573	0	0
2024-08-28 15:52:47			0	38595	0	0	0	29703	28310	151508	26981	1080445	46905	111051	0	0	8142	517424	0	0
2024-08-28 15:53:47			0	38609	0	0	0	29722	28310	151448	26915	1080472	46905	111058	0	0	8143	516903	0	0
2024-08-28 15:54:47			0	38603	0	0	0	29709	28320	151404	27322	1080517	46916	111053	0	0	8143	517096	0	0
2024-08-28 15:55:47			0	38623	0	0	0	29688	28300	151300	26882	1080517	46904	111045	0	0	8144	516412	0	0
2024-08-28 15:56:47			0	38610	0	0	0	29696	28320	151424	27144	1080473	46927	111048	0	0	8143	516836	0	0
2024-08-28 15:57:47			0	38632	0	0	0	29688	28310	151300	26861	1080428	46916	111045	0	0	8145	516047	0	0
2024-08-28 15:58:47			0	38631	0	0	0	29693	28310	151292	27275	1080454	46893	111047	0	0	8145	516085	0	0
2024-08-28 15:59:47			0	38644	0	0	0	29696	28310	151164	27187	1080472	46916	111048	0	0	8145	515601	0	0
2024-08-28 16:00:47			0	38655	0	0	0	29698	28310	151196	26861	1080526	46905	111049	0	0	8146	515193	0	0
2024-08-28 16:01:47			0	38645	0	0	0	29693	28310	151144	26909	1080472	46926	111047	0	0	8145	515564	0	0
2024-08-28 16:02:47			0	38666	0	0	0	29683	28310	151164	26949	1080472	46916	111043	0	0	8147	514784	0	0
2024-08-28 16:03:47			0	38664	0	0	0	29670	28310	151048	27107	1080365	46916	111038	0	0	8147	514858	0	0
2024-08-28 16:04:47			0	38691	0	0	0	29654	28310	151048	27180	1080338	46905	111032	0	0	8149	513857	0	0
2024-08-28 16:05:47			0	38699	0	0	0	29638	28300	150984	27157	1080373	46914	111026	0	0	8149	513590	0	0
2024-08-28 16:06:47			0	38702	0	0	0	29649	28280	151004	26930	1080292	46913	111030	0	0	8149	513538	0	0
2024-08-28 16:07:47			0	38686	0	0	0	29628	28280	150932	27303	1080256	46901	111022	0	0	8149	514131	0	0
2024-08-28 16:08:47			0	38716	0	0	0	29631	28280	150996	26899	1080202	46901	111023	0	0	8150	513019	0	0
2024-08-28 16:09:47			0	38709	0	0	0	29633	28280	150924	26752	1080310	46912	111024	0	0	8150	513278	0	0
2024-08-28 16:10:47			0	38707	0	0	0	29638	28270	151004	26830	1080193	46911	111026	0	0	8150	513382	0	0
2024-08-28 16:11:47			0	38714	0	0	0	29667	28270	150936	26986	1080292	46921	111037	0	0	8150	513123	0	0
2024-08-28 16:12:47			0	38698	0	0	0	29654	28270	150912	27203	1080274	46911	111032	0	0	8149	513716	0	0
2024-08-28 16:13:47			0	38701	0	0	0	29667	28270	151068	27220	1080318	46921	111037	0	0	8149	513605	0	0
2024-08-28 16:14:47			0	38688	0	0	0	29670	28270	151148	27041	1080301	46921	111038	0	0	8148	514087	0	0
2024-08-28 16:15:47			0	38688	0	0	0	29667	28270	151112	27034	1080265	46921	111037	0	0	8148	514087	0	0
2024-08-28 16:16:47			0	38667	0	0	0	29646	28270	151124	27182	1080247	46921	111029	0	0	8147	514866	0	0
2024-08-28 16:17:47			0	38667	0	0	0	29659	28270	151208	27076	1080318	46911	111034	0	0	8147	514866	0	0
2024-08-28 16:18:47			0	38665	0	0	0	29677	28280	151128	27244	1080337	46912	111041	0	0	8147	514911	0	0
2024-08-28 16:19:47			0	38659	0	0	0	29714	28270	151164	27183	1080355	46921	111055	0	0	8146	515163	0	0
2024-08-28 16:20:47			0	38634	0	0	0	29729	28280	151308	26941	1080454	46946	111061	0	0	8144	516063	0	0
2024-08-28 16:21:47			0	38665	0	0	0	29719	28300	151164	27064	1080544	46948	111057	0	0	8146	514851	0	0
2024-08-28 16:22:47			0	38648	0	0	0	29732	28300	151276	26871	1080544	46937	111062	0	0	8145	515483	0	0
2024-08-28 16:23:47			0	38625	0	0	0	29758	28320	151196	26821	1080571	46916	111072	0	0	8143	516278	0	0
2024-08-28 16:24:47			0	38635	0	0	0	29745	28310	151348	26942	1080589	46938	111067	0	0	8144	515936	0	0
2024-08-28 16:25:47			0	38643	0	0	0	29768	28310	151304	27168	1080589	46926	111076	0	0	8144	515639	0	0
2024-08-28 16:26:47			0	38632	0	0	0	29774	28320	151360	26830	1080688	46927	111078	0	0	8143	516018	0	0
2024-08-28 16:27:47			0	38633	0	0	0	29781	28330	151260	27123	1080653	46929	111081	0	0	8143	515951	0	0
2024-08-28 16:28:47			0	38633	0	0	0	29761	28330	151336	27118	1080679	46951	111073	0	0	8144	515951	0	0
2024-08-28 16:29:47			0	38653	0	0	0	29761	28350	151192	26979	1080761	46930	111073	0	0	8145	515148	0	0
2024-08-28 16:30:47			0	38659	0	0	0	29737	28340	151216	26977	1080725	46918	111064	0	0	8146	514955	0	0
2024-08-28 16:31:47			0	38664	0	0	0	29742	28350	151200	26916	1080770	46919	111066	0	0	8146	514739	0	0
2024-08-28 16:32:47			0	38680	0	0	0	29766	28350	151120	27022	1080680	46930	111075	0	0	8146	514146	0	0
2024-08-28 16:33:47			0	38669	0	0	0	29768	28340	150984	26837	1080725	46930	111076	0	0	8146	514584	0	0
2024-08-28 16:34:47			0	38683	0	0	0	29774	28340	151040	26975	1080752	46930	111078	0	0	8146	514064	0	0
2024-08-28 16:35:47			0	38700	0	0	0	29779	28350	151024	26850	1080761	46930	111080	0	0	8147	513404	0	0
2024-08-28 16:36:47			0	38688	0	0	0	29781	28360	151040	27152	1080833	46919	111081	0	0	8147	513819	0	0
2024-08-28 16:37:47			0	38707	0	0	0	29784	28360	151068	27150	1080788	46943	111082	0	0	8148	513115	0	0
2024-08-28 16:38:47			0	38713	0	0	0	29784	28370	150844	27234	1080878	46944	111082	0	0	8148	512863	0	0
2024-08-28 16:39:47			0	38706	0	0	0	29781	28360	150872	26970	1080815	46943	111081	0	0	8148	513152	0	0
2024-08-28 16:40:47			0	38707	0	0	0	29784	28370	151016	27242	1080887	46922	111082	0	0	8148	513086	0	0
2024-08-28 16:41:47			0	38727	0	0	0	29784	28370	150845	27024	1080887	46912	111082	0	0	8149	512345	0	0
2024-08-28 16:42:47			0	38721	0	0	0	29797	28390	150932	27118	1080914	46913	111087	0	0	8148	512508	0	0
2024-08-28 16:43:47			0	38717	0	0	0	29784	28380	150888	27064	1080959	46922	111082	0	0	8148	512686	0	0
2024-08-28 16:44:47			0	38720	0	0	0	29786	28380	150916	27017	1080977	46934	111083	0	0	8148	512574	0	0
2024-08-28 16:45:47			0	38726	0	0	0	29802	28380	150925	27220	1080959	46934	111089	0	0	8148	512352	0	0
2024-08-28 16:46:47			0	38715	0	0	0	29794	28380	150904	26996	1080986	46922	111086	0	0	8148	512760	0	0
2024-08-28 16:47:47			0	38731	0	0	0	29781	28390	150809	26890	1080914	46935	111081	0	0	8149	512138	0	0
2024-08-28 16:48:47			0	38730	0	0	0	29784	28390	150833	27022	1080914	46923	111082	0	0	8149	512175	0	0
2024-08-28 16:49:47			0	38736	0	0	0	29794	28390	150925	27170	1080914	46923	111086	0	0	8149	511953	0	0
2024-08-28 16:50:47			0	38736	0	0	0	29799	28390	150897	27036	1080995	46946	111088	0	0	8149	511953	0	0
2024-08-28 16:51:47			0	38743	0	0	0	29799	28390	150769	26844	1080995	46935	111088	0	0	8149	511694	0	0
2024-08-28 16:52:47			0	38733	0	0	0	29810	28380	150805	27062	1080923	46922	111092	0	0	8149	512093	0	0
2024-08-28 16:53:47			0	38722	0	0	0	29825	28400	150805	26960	1081031	46936	111098	0	0	8148	512441	0	0
2024-08-28 16:54:47			0	38724	0	0	0	29823	28400	150817	26733	1081040	46958	111097	0	0	8148	512367	0	0
2024-08-28 16:55:47			0	38722	0	0	0	29805	28400	150864	27022	1081031	46936	111090	0	0	8148	512441	0	0
2024-08-28 16:56:47			0	38718	0	0	0	29841	28410	150900	26948	1081023	46936	111104	0	0	8147	512560	0	0
2024-08-28 16:57:47			0	38740	0	0	0	29838	28410	150905	26845	1081086	46958	111103	0	0	8149	511746	0	0
2024-08-28 16:58:47			0	38741	0	0	0	29828	28410	150813	27282	1081113	46937	111099	0	0	8149	511709	0	0
2024-08-28 16:59:47			0	38720	0	0	0	29828	28420	150888	27216	1081158	46937	111099	0	0	8148	512456	0	0
2024-08-28 17:00:47			0	38721	0	0	0	29807	28420	150824	26883	1081176	46937	111091	0	0	8148	512419	0	0
2024-08-28 17:01:47			0	38730	0	0	0	29799	28410	150829	27079	1081059	46925	111088	0	0	8149	512115	0	0
2024-08-28 17:02:47			0	38745	0	0	0	29823	28410	150873	26672	1081059	46937	111097	0	0	8149	511561	0	0
2024-08-28 17:03:47			0	38750	0	0	0	29833	28420	150833	26889	1081050	46916	111101	0	0	8149	511346	0	0
2024-08-28 17:04:47			0	38724	0	0	0	29828	28420	150820	26896	1081149	46937	111099	0	0	8148	512308	0	0
2024-08-28 17:05:47			0	38759	0	0	0	29823	28420	150701	27034	1081131	46937	111097	0	0	8150	511014	0	0
2024-08-28 17:06:47			0	38767	0	0	0	29797	28420	150673	27095	1081158	46926	111087	0	0	8151	510718	0	0
2024-08-28 17:07:47			0	38767	0	0	0	29799	28420	150485	26991	1081131	46916	111088	0	0	8151	510718	0	0
2024-08-28 17:08:47			0	38768	0	0	0	29784	28420	150553	26951	1081068	46926	111082	0	0	8151	510681	0	0
2024-08-28 17:09:47			0	38766	0	0	0	29771	28410	150697	26779	1081005	46937	111077	0	0	8151	510785	0	0
2024-08-28 17:10:47			0	38771	0	0	0	29776	28410	150609	26982	1080942	46936	111079	0	0	8152	510600	0	0
2024-08-28 17:11:47			0	38766	0	0	0	29761	28400	150557	27111	1080977	46914	111073	0	0	8151	510814	0	0
2024-08-28 17:12:47			0	38759	0	0	0	29768	28400	150569	27222	1080923	46914	111076	0	0	8151	511073	0	0
2024-08-28 17:13:47			0	38766	0	0	0	29763	28410	150645	27022	1080942	46936	111074	0	0	8151	510785	0	0
2024-08-28 17:14:47			0	38761	0	0	0	29768	28390	150641	26908	1080968	46923	111076	0	0	8151	511028	0	0
2024-08-28 17:15:47			0	38749	0	0	0	29768	28400	150653	26977	1080923	46924	111076	0	0	8150	511442	0	0
2024-08-28 17:16:47			0	38753	0	0	0	29774	28390	150593	26902	1080941	46923	111078	0	0	8150	511324	0	0
2024-08-28 17:17:47			0	38757	0	0	0	29794	28400	150733	27093	1081004	46936	111086	0	0	8150	511147	0	0
2024-08-28 17:18:47			0	38749	0	0	0	29792	28400	150773	27215	1080950	46947	111085	0	0	8150	511442	0	0
2024-08-28 17:19:47			0	38744	0	0	0	29799	28390	150785	26859	1080968	46923	111088	0	0	8150	511657	0	0
2024-08-28 17:20:47			0	38739	0	0	0	29779	28400	150741	26797	1080977	46936	111080	0	0	8150	511812	0	0
2024-08-28 17:21:47			0	38725	0	0	0	29758	28380	150736	26908	1080959	46922	111072	0	0	8149	512389	0	0
2024-08-28 17:22:47			0	38724	0	0	0	29763	28390	150913	27265	1080941	46935	111074	0	0	8149	512397	0	0
2024-08-28 17:23:47			0	38719	0	0	0	29742	28380	150788	26951	1080932	46922	111066	0	0	8149	512611	0	0
2024-08-28 17:24:47			0	38714	0	0	0	29714	28380	150740	27105	1080932	46934	111055	0	0	8149	512797	0	0
2024-08-28 17:25:47			0	38730	0	0	0	29740	28380	150740	26961	1080815	46922	111065	0	0	8150	512204	0	0
2024-08-28 17:26:47			0	38715	0	0	0	29768	28380	150764	27182	1080851	46934	111076	0	0	8148	512760	0	0
2024-08-28 17:27:47			0	38697	0	0	0	29779	28370	150828	27093	1080905	46921	111080	0	0	8147	513456	0	0
2024-08-28 17:28:47			0	38712	0	0	0	29774	28370	150856	27194	1080833	46934	111078	0	0	8148	512900	0	0
2024-08-28 17:29:47			0	38681	0	0	0	29766	28370	150856	26920	1080887	46934	111075	0	0	8146	514049	0	0
2024-08-28 17:30:47			0	38711	0	0	0	29761	28380	150900	27104	1080869	46945	111073	0	0	8148	512908	0	0
2024-08-28 17:31:47			0	38707	0	0	0	29755	28370	150860	27164	1080914	46922	111071	0	0	8148	513086	0	0
2024-08-28 17:32:47			0	38696	0	0	0	29753	28380	150856	26854	1080896	46934	111070	0	0	8148	513464	0	0
2024-08-28 17:33:47			0	38692	0	0	0	29761	28370	150872	26856	1080914	46934	111073	0	0	8147	513641	0	0
2024-08-28 17:34:47			0	38685	0	0	0	29761	28370	150892	26760	1080914	46934	111073	0	0	8147	513901	0	0
2024-08-28 17:35:47			0	38666	0	0	0	29755	28370	150948	26785	1080770	46921	111071	0	0	8146	514606	0	0
2024-08-28 17:36:47			0	38693	0	0	0	29753	28360	150980	27064	1080815	46931	111070	0	0	8147	513634	0	0
2024-08-28 17:37:47			0	38671	0	0	0	29740	28360	151048	27017	1080842	46931	111065	0	0	8146	514450	0	0
2024-08-28 17:38:47			0	38643	0	0	0	29750	28370	151128	27097	1080824	46932	111069	0	0	8145	515460	0	0
2024-08-28 17:39:47			0	38632	0	0	0	29745	28360	151120	27090	1080725	46909	111067	0	0	8144	515898	0	0
2024-08-28 17:40:47			0	38636	0	0	0	29748	28350	151220	27095	1080743	46942	111068	0	0	8144	515779	0	0
2024-08-28 17:41:47			0	38631	0	0	0	29750	28350	151172	27071	1080761	46930	111069	0	0	8144	515965	0	0
2024-08-28 17:42:47			0	38617	0	0	0	29737	28350	151240	27218	1080734	46942	111064	0	0	8143	516486	0	0
2024-08-28 17:43:47			0	38615	0	0	0	29737	28350	151236	26814	1080743	46942	111064	0	0	8143	516560	0	0
2024-08-28 17:44:47			0	38601	0	0	0	29735	28340	151292	27140	1080698	46930	111063	0	0	8142	517111	0	0
2024-08-28 17:45:47			0	38597	0	0	0	29735	28350	151276	27124	1080815	46930	111063	0	0	8142	517230	0	0
2024-08-28 17:46:47			0	38607	0	0	0	29753	28350	151320	27050	1080761	46942	111070	0	0	8142	516858	0	0
2024-08-28 17:47:47			0	38585	0	0	0	29750	28350	151368	27052	1080770	46953	111069	0	0	8141	517677	0	0
2024-08-28 17:48:47			0	38581	0	0	0	29758	28350	151376	26883	1080761	46919	111072	0	0	8141	517826	0	0
2024-08-28 17:49:47			0	38580	0	0	0	29750	28350	151396	27260	1080716	46953	111069	0	0	8141	517863	0	0
2024-08-28 17:50:47			0	38584	0	0	0	29758	28360	151404	27187	1080806	46942	111072	0	0	8141	517684	0	0
2024-08-28 17:51:47			0	38573	0	0	0	29755	28360	151548	27112	1080833	46930	111071	0	0	8140	518094	0	0
2024-08-28 17:52:47			0	38558	0	0	0	29763	28360	151464	27258	1080833	46953	111074	0	0	8139	518653	0	0
2024-08-28 17:53:47			0	38566	0	0	0	29758	28360	151400	27076	1080833	46930	111072	0	0	8140	518355	0	0
2024-08-28 17:54:47			0	38567	0	0	0	29758	28360	151384	27043	1080815	46931	111072	0	0	8140	518318	0	0
2024-08-28 17:55:47			0	38565	0	0	0	29750	28350	151424	27140	1080824	46942	111069	0	0	8140	518422	0	0
2024-08-28 17:56:47			0	38570	0	0	0	29761	28360	151440	26920	1080815	46943	111073	0	0	8140	518206	0	0
2024-08-28 17:57:47			0	38557	0	0	0	29766	28360	151556	26991	1080887	46930	111075	0	0	8139	518691	0	0
2024-08-28 17:58:47			0	38567	0	0	0	29758	28360	151440	26977	1080806	46942	111072	0	0	8140	518318	0	0
2024-08-28 17:59:47			0	38566	0	0	0	29768	28370	151412	26731	1080824	46932	111076	0	0	8140	518325	0	0
2024-08-28 18:00:47			0	38578	0	0	0	29771	28360	151508	27246	1080779	46930	111077	0	0	8140	517908	0	0
2024-08-28 18:01:47			0	38554	0	0	0	29774	28360	151436	27267	1080869	46943	111078	0	0	8139	518802	0	0
2024-08-28 18:02:47			0	38573	0	0	0	29779	28370	151412	27140	1080851	46932	111080	0	0	8140	518064	0	0
2024-08-28 18:03:47			0	38567	0	0	0	29761	28370	151452	26830	1080905	46944	111073	0	0	8140	518288	0	0
2024-08-28 18:04:47			0	38566	0	0	0	29750	28380	151412	27055	1080815	46945	111069	0	0	8140	518295	0	0
2024-08-28 18:05:47			0	38576	0	0	0	29740	28370	151380	27412	1080824	46944	111065	0	0	8141	517952	0	0
2024-08-28 18:06:47			0	38563	0	0	0	29737	28360	151404	26804	1080788	46931	111064	0	0	8140	518467	0	0
2024-08-28 18:07:47			0	38586	0	0	0	29742	28360	151432	27092	1080752	46930	111066	0	0	8141	517610	0	0
2024-08-28 18:08:47			0	38586	0	0	0	29737	28360	151440	26899	1080779	46909	111064	0	0	8141	517610	0	0
2024-08-28 18:09:47			0	38601	0	0	0	29748	28360	151328	27140	1080806	46930	111068	0	0	8142	517051	0	0
2024-08-28 18:10:47			0	38574	0	0	0	29750	28350	151336	26849	1080680	46930	111069	0	0	8140	518087	0	0
2024-08-28 18:11:47			0	38585	0	0	0	29745	28360	151488	27471	1080752	46930	111067	0	0	8141	517647	0	0
2024-08-28 18:12:47			0	38592	0	0	0	29732	28360	151336	27008	1080806	46930	111062	0	0	8142	517386	0	0
2024-08-28 18:13:47			0	38590	0	0	0	29737	28350	151436	26824	1080716	46942	111064	0	0	8142	517491	0	0
2024-08-28 18:14:47			0	38595	0	0	0	29732	28350	151408	26759	1080662	46930	111062	0	0	8142	517305	0	0
2024-08-28 18:15:47			0	38572	0	0	0	29740	28340	151336	26935	1080698	46930	111065	0	0	8141	518191	0	0
2024-08-28 18:16:47			0	38577	0	0	0	29727	28350	151440	26941	1080770	46930	111060	0	0	8141	517975	0	0
2024-08-28 18:17:47			0	38577	0	0	0	29722	28350	151436	26734	1080653	46930	111058	0	0	8141	517975	0	0
2024-08-28 18:18:47			0	38577	0	0	0	29722	28340	151468	26835	1080662	46940	111058	0	0	8141	518005	0	0
2024-08-28 18:19:47			0	38544	0	0	0	29737	28340	151500	27180	1080698	46941	111064	0	0	8139	519236	0	0
2024-08-28 18:20:47			0	38547	0	0	0	29729	28340	151592	26942	1080689	46929	111061	0	0	8139	519124	0	0
2024-08-28 18:21:47			0	38526	0	0	0	29716	28350	151528	26842	1080707	46942	111056	0	0	8138	519877	0	0
2024-08-28 18:22:47			0	38528	0	0	0	29716	28340	151564	26975	1080635	46929	111056	0	0	8138	519833	0	0
2024-08-28 18:23:47			0	38534	0	0	0	29711	28350	151588	26738	1080599	46953	111054	0	0	8139	519579	0	0
2024-08-28 18:24:47			0	38538	0	0	0	29716	28340	151588	26875	1080644	46930	111056	0	0	8139	519460	0	0
2024-08-28 18:25:47			0	38536	0	0	0	29719	28340	151708	27147	1080662	46917	111057	0	0	8139	519534	0	0
2024-08-28 18:26:47			0	38494	0	0	0	29722	28330	151628	26791	1080626	46917	111058	0	0	8136	521134	0	0
2024-08-28 18:27:47			0	38507	0	0	0	29722	28340	151656	26776	1080689	46929	111058	0	0	8137	520617	0	0
2024-08-28 18:28:47			0	38495	0	0	0	29719	28330	151656	27036	1080536	46907	111057	0	0	8136	521096	0	0
2024-08-28 18:29:47			0	38484	0	0	0	29714	28330	151736	26948	1080616	46940	111055	0	0	8136	521508	0	0
2024-08-28 18:30:47			0	38485	0	0	0	29719	28320	151768	26713	1080634	46939	111057	0	0	8136	521500	0	0
2024-08-28 18:31:47			0	38491	0	0	0	29719	28330	151716	27085	1080590	46929	111057	0	0	8136	521246	0	0
2024-08-28 18:32:47			0	38471	0	0	0	29716	28330	151816	27017	1080653	46940	111056	0	0	8135	521994	0	0
2024-08-28 18:33:47			0	38478	0	0	0	29716	28330	151816	26674	1080590	46940	111056	0	0	8135	521732	0	0
2024-08-28 18:34:47			0	38470	0	0	0	29709	28330	151784	26986	1080643	46929	111053	0	0	8135	522032	0	0
2024-08-28 18:35:47			0	38457	0	0	0	29711	28320	151856	27015	1080571	46926	111054	0	0	8134	522549	0	0
2024-08-28 18:36:47			0	38460	0	0	0	29706	28320	151892	26788	1080634	46939	111052	0	0	8135	522436	0	0
2024-08-28 18:37:47			0	38457	0	0	0	29701	28320	151912	27079	1080527	46927	111050	0	0	8135	522549	0	0
2024-08-28 18:38:47			0	38450	0	0	0	29709	28320	151976	26916	1080598	46938	111053	0	0	8134	522811	0	0
2024-08-28 18:39:47			0	38435	0	0	0	29711	28320	151908	26972	1080544	46926	111054	0	0	8133	523373	0	0
2024-08-28 18:40:47			0	38450	0	0	0	29716	28320	151968	26823	1080607	46927	111056	0	0	8134	522811	0	0
2024-08-28 18:41:47			0	38452	0	0	0	29722	28320	151980	27020	1080544	46938	111058	0	0	8134	522736	0	0
2024-08-28 18:42:47			0	38446	0	0	0	29714	28320	151892	26804	1080598	46938	111055	0	0	8134	522961	0	0
2024-08-28 18:43:47			0	38448	0	0	0	29719	28320	151948	27092	1080598	46938	111057	0	0	8134	522886	0	0
2024-08-28 18:44:47			0	38444	0	0	0	29714	28320	151988	27196	1080607	46950	111055	0	0	8134	523036	0	0
2024-08-28 18:45:47			0	38445	0	0	0	29711	28320	151816	26934	1080607	46950	111054	0	0	8134	522998	0	0
2024-08-28 18:46:47			0	38443	0	0	0	29719	28320	151980	27019	1080544	46949	111057	0	0	8133	523073	0	0
2024-08-28 18:47:47			0	38463	0	0	0	29716	28320	152008	27147	1080517	46926	111056	0	0	8135	522324	0	0
2024-08-28 18:48:47			0	38457	0	0	0	29698	28320	151992	26785	1080580	46927	111049	0	0	8135	522549	0	0
2024-08-28 18:49:47			0	38447	0	0	0	29701	28320	152040	26847	1080517	46926	111050	0	0	8134	522924	0	0
2024-08-28 18:50:47			0	38417	0	0	0	29701	28320	151972	26878	1080544	46938	111050	0	0	8132	524049	0	0
2024-08-28 18:51:47			0	38451	0	0	0	29703	28310	152032	26698	1080562	46938	111051	0	0	8134	522804	0	0
2024-08-28 18:52:47			0	38436	0	0	0	29706	28310	152084	27003	1080580	46926	111052	0	0	8133	523366	0	0
2024-08-28 18:53:47			0	38458	0	0	0	29703	28310	152044	26790	1080499	46938	111051	0	0	8134	522541	0	0
2024-08-28 18:54:47			0	38445	0	0	0	29703	28300	152112	26641	1080463	46937	111051	0	0	8134	523059	0	0
2024-08-28 18:55:47			0	38461	0	0	0	29706	28310	152000	27007	1080535	46938	111052	0	0	8135	522429	0	0
2024-08-28 18:56:47			0	38446	0	0	0	29703	28310	152016	26970	1080535	46949	111051	0	0	8134	522991	0	0
2024-08-28 18:57:47			0	38442	0	0	0	29698	28300	152056	26941	1080517	46948	111049	0	0	8134	523171	0	0
2024-08-28 18:58:47			0	38444	0	0	0	29706	28300	151972	27074	1080562	46936	111052	0	0	8134	523096	0	0
2024-08-28 18:59:47			0	38446	0	0	0	29693	28300	151944	27213	1080535	46936	111047	0	0	8134	523021	0	0
2024-08-28 19:00:47			0	38446	0	0	0	29693	28300	152088	27310	1080517	46925	111047	0	0	8134	523021	0	0
2024-08-28 19:01:47			0	38444	0	0	0	29703	28300	152236	27081	1080508	46947	111051	0	0	8134	523096	0	0
2024-08-28 19:02:47			0	38439	0	0	0	29698	28300	152112	27371	1080535	46936	111049	0	0	8133	523284	0	0
2024-08-28 19:03:47			0	38435	0	0	0	29714	28310	152132	27156	1080553	46949	111055	0	0	8133	523404	0	0
2024-08-28 19:04:47			0	38425	0	0	0	29701	28290	152076	27095	1080436	46935	111050	0	0	8133	523839	0	0
2024-08-28 19:05:47			0	38423	0	0	0	29693	28300	152144	27050	1080517	46937	111047	0	0	8133	523884	0	0
2024-08-28 19:06:47			0	38431	0	0	0	29690	28300	152104	27249	1080490	46937	111046	0	0	8133	523584	0	0
2024-08-28 19:07:47			0	38436	0	0	0	29683	28300	152100	27345	1080517	46937	111043	0	0	8134	523396	0	0
2024-08-28 19:08:47			0	38431	0	0	0	29675	28310	152124	27041	1080499	46938	111040	0	0	8133	523554	0	0
2024-08-28 19:09:47			0	38420	0	0	0	29677	28300	152116	27256	1080481	46914	111041	0	0	8133	523997	0	0
2024-08-28 19:10:47			0	38422	0	0	0	29672	28300	152096	27045	1080427	46936	111039	0	0	8133	523922	0	0
2024-08-28 19:11:47			0	38437	0	0	0	29677	28300	152140	27180	1080490	46925	111041	0	0	8134	523359	0	0
2024-08-28 19:12:47			0	38425	0	0	0	29685	28280	152124	27289	1080535	46923	111044	0	0	8133	523870	0	0
2024-08-28 19:13:47			0	38421	0	0	0	29696	28280	152068	27057	1080454	46935	111048	0	0	8132	524020	0	0
2024-08-28 19:14:47			0	38425	0	0	0	29672	28290	152208	26828	1080436	46913	111039	0	0	8133	523839	0	0
2024-08-28 19:15:47			0	38417	0	0	0	29662	28290	152000	27124	1080418	46936	111035	0	0	8133	524140	0	0
2024-08-28 19:16:47			0	38409	0	0	0	29670	28280	152228	27203	1080391	46922	111038	0	0	8132	524470	0	0
2024-08-28 19:17:47			0	38395	0	0	0	29662	28280	152136	27012	1080391	46934	111035	0	0	8131	524996	0	0
2024-08-28 19:18:47			0	38403	0	0	0	29672	28280	152180	27190	1080400	46935	111039	0	0	8132	524695	0	0
2024-08-28 19:19:47			0	38399	0	0	0	29677	28270	152164	26981	1080408	46944	111041	0	0	8131	524876	0	0
2024-08-28 19:20:47			0	38382	0	0	0	29659	28270	152264	27140	1080381	46921	111034	0	0	8131	525515	0	0
2024-08-28 19:21:47			0	38376	0	0	0	29672	28280	152220	26833	1080337	46934	111039	0	0	8130	525710	0	0
2024-08-28 19:22:47			0	38371	0	0	0	29659	28280	152404	27124	1080337	46934	111034	0	0	8130	525898	0	0
2024-08-28 19:23:47			0	38312	0	0	0	29662	28270	152376	27092	1080381	46933	111035	0	0	8127	528151	0	0
2024-08-28 19:24:47			0	38322	0	0	0	29664	28270	152480	27206	1080328	46933	111036	0	0	8127	527774	0	0
2024-08-28 19:25:47			0	38314	0	0	0	29651	28270	152568	26793	1080345	46933	111031	0	0	8127	528076	0	0
2024-08-28 19:26:47			0	38308	0	0	0	29662	28260	152552	27001	1080309	46921	111035	0	0	8126	528332	0	0
2024-08-28 19:27:47			0	38309	0	0	0	29654	28270	152632	27286	1080345	46933	111032	0	0	8127	528264	0	0
2024-08-28 19:28:47			0	38308	0	0	0	29667	28260	152624	27142	1080390	46933	111037	0	0	8126	528332	0	0
2024-08-28 19:29:47			0	38299	0	0	0	29672	28260	152584	27033	1080327	46932	111039	0	0	8126	528672	0	0
2024-08-28 19:30:47			0	38285	0	0	0	29667	28270	152604	26913	1080355	46921	111037	0	0	8125	529170	0	0
2024-08-28 19:31:47			0	38285	0	0	0	29664	28260	152532	27213	1080363	46933	111036	0	0	8125	529200	0	0
2024-08-28 19:32:47			0	38293	0	0	0	29667	28270	152580	26866	1080318	46944	111037	0	0	8125	528868	0	0
2024-08-28 19:33:47			0	38276	0	0	0	29667	28260	152680	27055	1080327	46943	111037	0	0	8124	529540	0	0
2024-08-28 19:34:47			0	38269	0	0	0	29667	28270	152652	27097	1080372	46921	111037	0	0	8124	529774	0	0
2024-08-28 19:35:47			0	38275	0	0	0	29664	28260	152752	26817	1080354	46932	111036	0	0	8124	529578	0	0
2024-08-28 19:36:47			0	38255	0	0	0	29662	28260	152820	27150	1080309	46933	111035	0	0	8123	530334	0	0
2024-08-28 19:37:47			0	38288	0	0	0	29662	28260	152684	26909	1080327	46932	111035	0	0	8125	529087	0	0
2024-08-28 19:38:47			0	38279	0	0	0	29659	28260	152708	27031	1080327	46932	111034	0	0	8125	529427	0	0
2024-08-28 19:39:47			0	38281	0	0	0	29651	28250	152664	26948	1080336	46931	111031	0	0	8125	529382	0	0
2024-08-28 19:40:47			0	38275	0	0	0	29659	28270	152788	27043	1080328	46933	111034	0	0	8125	529547	0	0
2024-08-28 19:41:47			0	38270	0	0	0	29659	28260	152792	26868	1080300	46920	111034	0	0	8124	529767	0	0
2024-08-28 19:42:47			0	38264	0	0	0	29662	28260	152760	27209	1080300	46920	111035	0	0	8124	529994	0	0
2024-08-28 19:43:47			0	38277	0	0	0	29654	28260	152772	27331	1080327	46943	111032	0	0	8125	529503	0	0
2024-08-28 19:44:47			0	38272	0	0	0	29662	28260	152712	27102	1080363	46933	111035	0	0	8124	529691	0	0
2024-08-28 19:45:47			0	38259	0	0	0	29664	28270	152720	27093	1080345	46933	111036	0	0	8124	530152	0	0
2024-08-28 19:46:47			0	38250	0	0	0	29670	28260	152848	27447	1080354	46943	111038	0	0	8123	530523	0	0
2024-08-28 19:47:47			0	38269	0	0	0	29670	28260	152728	27187	1080300	46943	111038	0	0	8124	529805	0	0
2024-08-28 19:48:47			0	38254	0	0	0	29677	28260	152816	27190	1080381	46920	111041	0	0	8123	530372	0	0
2024-08-28 19:49:47			0	38247	0	0	0	29670	28260	152800	26880	1080327	46932	111038	0	0	8123	530637	0	0
2024-08-28 19:50:47			0	38242	0	0	0	29659	28260	152808	27074	1080336	46944	111034	0	0	8123	530826	0	0
2024-08-28 19:51:47			0	38243	0	0	0	29664	28260	152788	27138	1080309	46933	111036	0	0	8123	530788	0	0
2024-08-28 19:52:47			0	38251	0	0	0	29664	28260	152816	26849	1080300	46932	111036	0	0	8123	530485	0	0
2024-08-28 19:53:47			0	38240	0	0	0	29657	28260	152832	27050	1080336	46933	111033	0	0	8123	530901	0	0
2024-08-28 19:54:47			0	38251	0	0	0	29667	28260	152856	27381	1080336	46933	111037	0	0	8123	530485	0	0
2024-08-28 19:55:47			0	38255	0	0	0	29667	28270	152936	26946	1080301	46933	111037	0	0	8123	530303	0	0
2024-08-28 19:56:47			0	38244	0	0	0	29659	28270	153020	27514	1080345	46933	111034	0	0	8123	530719	0	0
2024-08-28 19:57:47			0	38261	0	0	0	29654	28260	152896	27074	1080336	46944	111032	0	0	8124	530107	0	0
2024-08-28 19:58:47			0	38238	0	0	0	29662	28260	152856	27039	1080363	46921	111035	0	0	8122	530977	0	0
2024-08-28 19:59:47			0	38233	0	0	0	29654	28260	152892	26998	1080309	46933	111032	0	0	8122	531166	0	0
2024-08-28 20:00:47			0	38213	0	0	0	29664	28260	152852	27190	1080390	46933	111036	0	0	8121	531924	0	0
2024-08-28 20:01:47			0	38224	0	0	0	29662	28260	152888	27147	1080327	46955	111035	0	0	8122	531507	0	0
2024-08-28 20:02:47			0	38230	0	0	0	29664	28260	152924	26984	1080354	46932	111036	0	0	8122	531280	0	0
2024-08-28 20:03:47			0	38224	0	0	0	29667	28260	152956	26852	1080390	46944	111037	0	0	8121	531507	0	0
2024-08-28 20:04:47			0	38239	0	0	0	29654	28260	152916	26994	1080309	46921	111032	0	0	8123	530939	0	0
2024-08-28 20:05:47			0	38233	0	0	0	29654	28260	152864	26824	1080354	46932	111032	0	0	8122	531166	0	0
2024-08-28 20:06:47			0	38231	0	0	0	29651	28260	152960	27093	1080327	46943	111031	0	0	8122	531242	0	0
2024-08-28 20:07:47			0	38234	0	0	0	29662	28260	152892	26935	1080300	46943	111035	0	0	8122	531128	0	0
2024-08-28 20:08:47			0	38240	0	0	0	29657	28250	152840	26705	1080291	46931	111033	0	0	8123	530932	0	0
2024-08-28 20:09:47			0	38235	0	0	0	29659	28260	152880	26961	1080273	46932	111034	0	0	8122	531091	0	0
2024-08-28 20:10:47			0	38215	0	0	0	29657	28250	152880	27024	1080264	46942	111033	0	0	8121	531879	0	0
2024-08-28 20:11:47			0	38225	0	0	0	29649	28260	152896	27142	1080300	46943	111030	0	0	8122	531469	0	0
2024-08-28 20:12:47			0	38222	0	0	0	29651	28260	152872	26946	1080255	46944	111031	0	0	8122	531583	0	0
2024-08-28 20:13:47			0	38217	0	0	0	29651	28260	152760	27137	1080255	46933	111031	0	0	8121	531772	0	0
2024-08-28 20:14:47			0	38213	0	0	0	29662	28250	152904	27192	1080309	46942	111035	0	0	8121	531954	0	0
2024-08-28 20:15:47			0	38220	0	0	0	29662	28250	152928	27171	1080228	46942	111035	0	0	8121	531689	0	0
2024-08-28 20:16:47			0	38230	0	0	0	29654	28250	152852	27033	1080291	46931	111032	0	0	8122	531311	0	0
2024-08-28 20:17:47			0	38201	0	0	0	29659	28260	152920	27239	1080300	46932	111034	0	0	8120	532378	0	0
2024-08-28 20:18:47			0	38237	0	0	0	29664	28260	152852	27060	1080282	46944	111036	0	0	8122	531015	0	0
2024-08-28 20:19:47			0	38220	0	0	0	29659	28250	152984	26930	1080255	46954	111034	0	0	8121	531689	0	0
2024-08-28 20:20:47			0	38223	0	0	0	29659	28260	152972	27206	1080354	46943	111034	0	0	8122	531545	0	0
2024-08-28 20:21:47			0	38213	0	0	0	29646	28250	152960	27173	1080264	46942	111029	0	0	8121	531954	0	0
2024-08-28 20:22:47			0	38220	0	0	0	29644	28240	152968	26982	1080273	46942	111028	0	0	8122	531720	0	0
2024-08-28 20:23:47			0	38217	0	0	0	29644	28250	153008	26934	1080237	46931	111028	0	0	8121	531803	0	0
2024-08-28 20:24:47			0	38206	0	0	0	29644	28250	152980	26927	1080228	46919	111028	0	0	8121	532220	0	0
2024-08-28 20:25:47			0	38207	0	0	0	29646	28250	152956	26972	1080264	46931	111029	0	0	8121	532182	0	0
2024-08-28 20:26:47			0	38187	0	0	0	29646	28250	153016	27232	1080264	46942	111029	0	0	8120	532940	0	0
2024-08-28 20:27:47			0	38177	0	0	0	29646	28250	153124	27256	1080282	46942	111029	0	0	8119	533319	0	0
2024-08-28 20:28:47			0	38168	0	0	0	29646	28240	153068	26986	1080246	46931	111029	0	0	8119	533692	0	0
2024-08-28 20:29:47			0	38172	0	0	0	29638	28250	153196	27345	1080282	46931	111026	0	0	8119	533509	0	0
2024-08-28 20:30:47			0	38176	0	0	0	29646	28250	153132	27069	1080264	46954	111029	0	0	8119	533357	0	0
2024-08-28 20:31:47			0	38168	0	0	0	29641	28250	153196	26970	1080291	46931	111027	0	0	8119	533661	0	0
2024-08-28 20:32:47			0	38172	0	0	0	29646	28240	153148	26654	1080246	46942	111029	0	0	8119	533540	0	0
2024-08-28 20:33:47			0	38154	0	0	0	29649	28240	153244	27187	1080210	46941	111030	0	0	8118	534223	0	0
2024-08-28 20:34:47			0	38169	0	0	0	29638	28240	153280	27112	1080237	46930	111026	0	0	8119	533654	0	0
2024-08-28 20:35:47			0	38149	0	0	0	29636	28240	153244	27090	1080246	46931	111025	0	0	8118	534413	0	0
2024-08-28 20:36:47			0	38148	0	0	0	29638	28250	153200	26883	1080228	46942	111026	0	0	8118	534421	0	0
2024-08-28 20:37:47			0	38148	0	0	0	29641	28230	153288	27298	1080255	46940	111027	0	0	8117	534482	0	0
2024-08-28 20:38:47			0	38151	0	0	0	29641	28250	153168	26892	1080237	46919	111027	0	0	8118	534307	0	0
2024-08-28 20:39:47			0	38124	0	0	0	29644	28240	153380	27194	1080237	46930	111028	0	0	8116	535364	0	0
2024-08-28 20:40:47			0	38128	0	0	0	29633	28240	153340	26993	1080210	46941	111024	0	0	8116	535212	0	0
2024-08-28 20:41:47			0	38132	0	0	0	29638	28250	153360	26830	1080309	46942	111026	0	0	8117	535029	0	0
2024-08-28 20:42:47			0	38135	0	0	0	29644	28230	153460	27027	1080228	46917	111028	0	0	8117	534976	0	0
2024-08-28 20:43:47			0	38126	0	0	0	29631	28240	153364	26722	1080219	46931	111023	0	0	8116	535288	0	0
2024-08-28 20:44:47			0	38136	0	0	0	29644	28230	153368	27095	1080219	46929	111028	0	0	8117	534938	0	0
2024-08-28 20:45:47			0	38130	0	0	0	29641	28230	153300	26961	1080201	46940	111027	0	0	8116	535166	0	0
2024-08-28 20:46:47			0	38112	0	0	0	29638	28230	153356	26760	1080219	46940	111026	0	0	8115	535851	0	0
2024-08-28 20:47:47			0	38113	0	0	0	29641	28240	153348	27145	1080237	46941	111027	0	0	8115	535782	0	0
2024-08-28 20:48:47			0	38124	0	0	0	29633	28230	153372	27163	1080255	46917	111024	0	0	8116	535395	0	0
2024-08-28 20:49:47			0	38130	0	0	0	29633	28240	153368	27088	1080183	46941	111024	0	0	8117	535136	0	0
2024-08-28 20:50:47			0	38105	0	0	0	29633	28230	153340	26781	1080201	46940	111024	0	0	8115	536118	0	0
2024-08-28 20:51:47			0	38115	0	0	0	29636	28240	153496	26863	1080237	46930	111025	0	0	8116	535706	0	0
2024-08-28 20:52:47			0	38098	0	0	0	29636	28240	153400	26972	1080210	46930	111025	0	0	8115	536353	0	0
2024-08-28 20:53:47			0	38122	0	0	0	29631	28240	153292	27273	1080183	46930	111023	0	0	8116	535440	0	0
2024-08-28 20:54:47			0	38109	0	0	0	29631	28230	153400	26955	1080201	46929	111023	0	0	8115	535965	0	0
2024-08-28 20:55:47			0	38115	0	0	0	29633	28230	153412	26930	1080255	46940	111024	0	0	8116	535737	0	0
2024-08-28 20:56:47			0	38094	0	0	0	29625	28230	153488	27209	1080192	46940	111021	0	0	8115	536537	0	0
2024-08-28 20:57:47			0	38101	0	0	0	29628	28230	153360	27064	1080228	46929	111022	0	0	8115	536270	0	0
2024-08-28 20:58:47			0	38092	0	0	0	29620	28240	153456	27095	1080165	46931	111019	0	0	8115	536582	0	0
2024-08-28 20:59:47			0	38090	0	0	0	29612	28230	153504	27131	1080174	46929	111016	0	0	8115	536689	0	0
2024-08-28 21:00:47			0	38075	0	0	0	29615	28220	153512	27242	1080147	46928	111017	0	0	8114	537292	0	0
2024-08-28 21:01:47			0	38078	0	0	0	29615	28230	153612	26781	1080057	46929	111017	0	0	8114	537146	0	0
2024-08-28 21:02:47			0	38084	0	0	0	29615	28230	153444	26866	1080111	46929	111017	0	0	8114	536918	0	0
2024-08-28 21:03:47			0	38065	0	0	0	29605	28230	153604	27062	1080165	46917	111013	0	0	8113	537642	0	0
2024-08-28 21:04:47			0	38073	0	0	0	29605	28220	153540	27100	1080120	46916	111013	0	0	8114	537368	0	0
2024-08-28 21:05:47			0	38070	0	0	0	29612	28210	153608	27026	1080084	46927	111016	0	0	8113	537513	0	0
2024-08-28 21:06:47			0	38062	0	0	0	29607	28220	153680	27171	1080120	46951	111014	0	0	8113	537787	0	0
2024-08-28 21:07:47			0	38057	0	0	0	29605	28220	153668	27336	1080120	46939	111013	0	0	8113	537978	0	0
2024-08-28 21:08:47			0	38050	0	0	0	29610	28210	153684	27112	1080101	46927	111015	0	0	8112	538277	0	0
2024-08-28 21:09:47			0	38048	0	0	0	29602	28220	153672	27326	1080147	46916	111012	0	0	8112	538322	0	0
2024-08-28 21:10:47			0	38023	0	0	0	29612	28200	153811	27130	1080092	46926	111016	0	0	8111	539339	0	0
2024-08-28 21:11:47			0	38027	0	0	0	29610	28210	153812	27196	1080048	46927	111015	0	0	8111	539155	0	0
2024-08-28 21:12:47			0	38008	0	0	0	29610	28210	153711	27135	1080084	46916	111015	0	0	8110	539881	0	0
2024-08-28 21:13:47			0	38003	0	0	0	29612	28210	153819	27164	1080084	46938	111016	0	0	8109	540072	0	0
2024-08-28 21:14:47			0	37990	0	0	0	29612	28200	153847	27043	1080119	46926	111016	0	0	8109	540601	0	0
2024-08-28 21:15:47			0	37987	0	0	0	29607	28200	153719	26814	1080038	46937	111014	0	0	8109	540716	0	0
2024-08-28 21:16:47			0	38001	0	0	0	29615	28210	153791	27031	1080084	46938	111017	0	0	8109	540149	0	0
2024-08-28 21:17:47			0	37995	0	0	0	29602	28220	153855	26953	1080066	46939	111012	0	0	8109	540347	0	0
2024-08-28 21:18:47			0	38001	0	0	0	29605	28210	153871	27220	1080084	46938	111013	0	0	8109	540149	0	0
2024-08-28 21:19:47			0	38013	0	0	0	29610	28200	153903	27298	1080056	46937	111015	0	0	8110	539721	0	0
2024-08-28 21:20:47			0	38012	0	0	0	29607	28200	153815	26715	1080038	46926	111014	0	0	8110	539759	0	0
2024-08-28 21:21:47			0	38003	0	0	0	29599	28210	153791	27166	1080084	46916	111011	0	0	8110	540072	0	0
2024-08-28 21:22:47			0	38019	0	0	0	29605	28210	153860	26885	1080101	46927	111013	0	0	8111	539460	0	0
2024-08-28 21:23:47			0	38018	0	0	0	29597	28210	153803	26965	1080048	46927	111010	0	0	8111	539499	0	0
2024-08-28 21:24:47			0	38009	0	0	0	29594	28210	153803	26951	1080021	46938	111009	0	0	8110	539843	0	0
2024-08-28 21:25:47			0	38013	0	0	0	29605	28190	153863	26935	1080020	46936	111013	0	0	8110	539752	0	0
2024-08-28 21:26:47			0	38012	0	0	0	29597	28220	153891	26996	1080066	46939	111010	0	0	8110	539697	0	0
2024-08-28 21:27:47			0	38020	0	0	0	29597	28200	153867	26764	1079975	46915	111010	0	0	8111	539453	0	0
2024-08-28 21:28:47			0	38007	0	0	0	29594	28200	153843	27105	1080056	46937	111009	0	0	8110	539951	0	0
2024-08-28 21:29:47			0	38001	0	0	0	29592	28200	153763	27093	1080065	46926	111008	0	0	8110	540180	0	0
2024-08-28 21:30:47			0	37987	0	0	0	29589	28200	153835	27003	1080056	46937	111007	0	0	8109	540716	0	0
2024-08-28 21:31:47			0	38009	0	0	0	29586	28190	153815	27170	1079966	46948	111006	0	0	8110	539905	0	0
2024-08-28 21:32:47			0	38006	0	0	0	29592	28200	153767	27260	1080029	46926	111008	0	0	8110	539989	0	0
2024-08-28 21:33:47			0	38019	0	0	0	29589	28190	153799	27045	1079939	46936	111007	0	0	8111	539523	0	0
2024-08-28 21:34:47			0	38017	0	0	0	29586	28180	153903	26937	1079975	46924	111006	0	0	8111	539630	0	0
2024-08-28 21:35:47			0	38018	0	0	0	29589	28190	153879	27026	1080038	46935	111007	0	0	8111	539561	0	0
2024-08-28 21:36:47			0	38010	0	0	0	29586	28190	153771	26979	1079993	46936	111006	0	0	8110	539867	0	0
2024-08-28 21:37:47			0	38023	0	0	0	29581	28180	153795	26942	1080029	46924	111004	0	0	8111	539401	0	0
2024-08-28 21:38:47			0	38003	0	0	0	29581	28180	153799	26790	1079975	46924	111004	0	0	8110	540166	0	0
2024-08-28 21:39:47			0	38024	0	0	0	29594	28180	153819	27062	1080002	46924	111009	0	0	8111	539363	0	0
2024-08-28 21:40:47			0	38016	0	0	0	29592	28180	153799	26901	1079921	46935	111008	0	0	8110	539669	0	0
2024-08-28 21:41:47			0	38018	0	0	0	29589	28180	153851	26807	1079966	46935	111007	0	0	8111	539592	0	0
2024-08-28 21:42:47			0	38005	0	0	0	29584	28180	153843	27039	1080002	46924	111005	0	0	8110	540089	0	0
2024-08-28 21:43:47			0	38021	0	0	0	29586	28180	153828	26932	1079921	46947	111006	0	0	8111	539478	0	0
2024-08-28 21:44:47			0	38008	0	0	0	29584	28180	153815	27067	1079921	46935	111005	0	0	8110	539975	0	0
2024-08-28 21:45:47			0	38009	0	0	0	29579	28180	153787	27196	1079912	46947	111003	0	0	8110	539936	0	0
2024-08-28 21:46:47			0	38016	0	0	0	29579	28180	153915	26894	1079975	46924	111003	0	0	8111	539669	0	0
2024-08-28 21:47:47			0	38014	0	0	0	29576	28180	153859	27022	1079975	46924	111002	0	0	8111	539745	0	0
2024-08-28 21:48:47			0	38015	0	0	0	29571	28180	153803	27008	1079912	46935	111000	0	0	8111	539707	0	0
2024-08-28 21:49:47			0	38004	0	0	0	29576	28180	153875	27074	1079921	46924	111002	0	0	8110	540127	0	0
2024-08-28 21:50:47			0	38003	0	0	0	29571	28180	153759	27088	1079948	46935	111000	0	0	8110	540166	0	0
2024-08-28 21:51:47			0	38015	0	0	0	29579	28160	153871	26675	1079939	46922	111003	0	0	8110	539769	0	0
2024-08-28 21:52:47			0	38019	0	0	0	29581	28180	153743	26949	1079894	46935	111004	0	0	8111	539554	0	0
2024-08-28 21:53:47			0	38009	0	0	0	29573	28180	153811	27145	1079885	46924	111001	0	0	8110	539936	0	0
2024-08-28 21:54:47			0	38017	0	0	0	29576	28170	153879	27329	1079894	46945	111002	0	0	8111	539662	0	0
2024-08-28 21:55:47			0	38028	0	0	0	29576	28170	153724	26842	1079894	46933	111002	0	0	8111	539241	0	0
2024-08-28 21:56:47			0	38024	0	0	0	29579	28170	153751	26736	1079903	46934	111003	0	0	8111	539394	0	0
2024-08-28 21:57:47			0	38026	0	0	0	29573	28170	153768	26759	1079921	46933	111001	0	0	8111	539317	0	0
2024-08-28 21:58:47			0	38016	0	0	0	29563	28170	153799	26599	1079903	46945	110997	0	0	8111	539700	0	0
2024-08-28 21:59:47			0	38015	0	0	0	29571	28170	153799	26861	1079840	46933	111000	0	0	8111	539738	0	0
2024-08-28 22:00:47			0	38009	0	0	0	29568	28180	153859	26759	1079912	46935	110999	0	0	8110	539936	0	0
2024-08-28 22:01:47			0	38012	0	0	0	29561	28180	153843	27183	1079912	46935	110996	0	0	8111	539822	0	0
2024-08-28 22:02:47			0	37997	0	0	0	29561	28170	153779	26946	1079894	46933	110996	0	0	8110	540427	0	0
2024-08-28 22:03:47			0	38013	0	0	0	29558	28170	153819	26830	1079840	46922	110995	0	0	8111	539815	0	0
2024-08-28 22:04:47			0	38021	0	0	0	29558	28170	153847	27041	1079921	46933	110995	0	0	8111	539509	0	0
2024-08-28 22:05:47			0	38008	0	0	0	29566	28160	153859	26885	1079822	46921	110998	0	0	8110	540037	0	0
2024-08-28 22:06:47			0	37993	0	0	0	29561	28160	153823	26935	1079876	46921	110996	0	0	8110	540611	0	0
2024-08-28 22:07:47			0	38021	0	0	0	29566	28170	153955	27085	1079867	46945	110998	0	0	8111	539509	0	0
2024-08-28 22:08:47			0	37987	0	0	0	29561	28170	153827	26783	1079894	46922	110996	0	0	8109	540809	0	0
2024-08-28 22:09:47			0	37985	0	0	0	29558	28160	153879	26956	1079885	46911	110995	0	0	8109	540917	0	0
2024-08-28 22:10:47			0	37992	0	0	0	29553	28160	153915	26870	1079831	46933	110993	0	0	8110	540649	0	0
2024-08-28 22:11:47			0	37984	0	0	0	29555	28150	153907	26845	1079840	46932	110994	0	0	8109	540987	0	0
2024-08-28 22:12:47			0	37987	0	0	0	29561	28160	153919	27034	1079831	46922	110996	0	0	8109	540841	0	0
2024-08-28 22:13:47			0	37974	0	0	0	29555	28160	153955	26953	1079804	46933	110994	0	0	8109	541338	0	0
2024-08-28 22:14:47			0	37980	0	0	0	29561	28150	153991	27339	1079813	46932	110996	0	0	8109	541140	0	0
2024-08-28 22:15:47			0	37969	0	0	0	29561	28150	154015	27013	1079840	46921	110996	0	0	8108	541561	0	0
2024-08-28 22:16:47			0	37975	0	0	0	29550	28150	154015	26812	1079893	46932	110992	0	0	8109	541332	0	0
2024-08-28 22:17:47			0	37977	0	0	0	29555	28160	153935	26847	1079831	46933	110994	0	0	8109	541224	0	0
2024-08-28 22:18:47			0	37960	0	0	0	29550	28170	153975	27093	1079867	46933	110992	0	0	8108	541844	0	0
2024-08-28 22:19:47			0	37958	0	0	0	29553	28150	154035	26972	1079777	46931	110993	0	0	8108	541983	0	0
2024-08-28 22:20:47			0	37949	0	0	0	29563	28160	154103	26913	1079804	46945	110997	0	0	8107	542297	0	0
2024-08-28 22:21:47			0	37957	0	0	0	29555	28150	154027	26873	1079884	46931	110994	0	0	8108	542021	0	0
2024-08-28 22:22:47			0	37949	0	0	0	29563	28150	154019	27189	1079866	46932	110997	0	0	8107	542328	0	0
2024-08-28 22:23:47			0	37949	0	0	0	29555	28150	153983	26849	1079866	46944	110994	0	0	8107	542328	0	0
2024-08-28 22:24:47			0	37942	0	0	0	29553	28140	154039	26722	1079794	46931	110993	0	0	8107	542628	0	0
2024-08-28 22:25:47			0	37959	0	0	0	29548	28160	154119	26866	1079795	46932	110991	0	0	8108	541913	0	0
2024-08-28 22:26:47			0	37961	0	0	0	29548	28150	154199	26797	1079813	46921	110991	0	0	8108	541868	0	0
2024-08-28 22:27:47			0	37942	0	0	0	29535	28140	154147	26618	1079758	46930	110986	0	0	8107	542628	0	0
2024-08-28 22:28:47			0	37943	0	0	0	29542	28150	154243	26986	1079750	46943	110989	0	0	8107	542558	0	0
2024-08-28 22:29:47			0	37938	0	0	0	29542	28150	154211	26890	1079759	46932	110989	0	0	8107	542750	0	0
2024-08-28 22:30:47			0	37935	0	0	0	29550	28150	154255	26963	1079777	46931	110992	0	0	8106	542865	0	0
2024-08-28 22:31:47			0	37912	0	0	0	29542	28140	154203	26986	1079758	46942	110989	0	0	8105	543780	0	0
2024-08-28 22:32:47			0	37935	0	0	0	29550	28160	154331	26894	1079849	46944	110992	0	0	8106	542834	0	0
2024-08-28 22:33:47			0	37924	0	0	0	29558	28140	154307	27034	1079731	46942	110995	0	0	8106	543319	0	0
2024-08-28 22:34:47			0	37902	0	0	0	29540	28140	154323	26878	1079731	46942	110988	0	0	8105	544164	0	0
2024-08-28 22:35:47			0	37907	0	0	0	29545	28150	154323	26859	1079804	46920	110990	0	0	8105	543940	0	0
2024-08-28 22:36:47			0	37919	0	0	0	29540	28140	154307	27211	1079758	46930	110988	0	0	8106	543511	0	0
2024-08-28 22:37:47			0	37903	0	0	0	29540	28140	154275	26960	1079731	46908	110988	0	0	8105	544126	0	0
2024-08-28 22:38:47			0	37891	0	0	0	29537	28140	154267	26757	1079731	46930	110987	0	0	8104	544587	0	0
2024-08-28 22:39:47			0	37901	0	0	0	29537	28130	154255	26854	1079749	46919	110987	0	0	8105	544234	0	0
2024-08-28 22:40:47			0	37881	0	0	0	29548	28140	154319	26991	1079714	46943	110991	0	0	8103	544972	0	0
2024-08-28 22:41:47			0	37885	0	0	0	29542	28140	154483	26885	1079758	46930	110989	0	0	8104	544818	0	0
2024-08-28 22:42:47			0	37883	0	0	0	29537	28140	154359	27154	1079731	46942	110987	0	0	8104	544895	0	0
2024-08-28 22:43:47			0	37855	0	0	0	29537	28130	154447	26871	1079767	46929	110987	0	0	8102	546004	0	0
2024-08-28 22:44:47			0	37865	0	0	0	29535	28140	154483	27098	1079758	46919	110986	0	0	8103	545587	0	0
2024-08-28 22:45:47			0	37849	0	0	0	29529	28140	154551	26786	1079768	46920	110984	0	0	8102	546204	0	0
2024-08-28 22:46:47			0	37841	0	0	0	29535	28150	154543	27104	1079750	46931	110986	0	0	8101	546481	0	0
2024-08-28 22:47:47			0	37849	0	0	0	29535	28140	154611	26956	1079714	46931	110986	0	0	8102	546204	0	0
2024-08-28 22:48:47			0	37842	0	0	0	29527	28140	154551	26687	1079785	46919	110983	0	0	8101	546474	0	0
2024-08-28 22:49:47			0	37843	0	0	0	29519	28130	154607	27001	1079695	46930	110980	0	0	8101	546467	0	0
2024-08-28 22:50:47			0	37829	0	0	0	29527	28140	154599	26878	1079705	46919	110983	0	0	8101	546975	0	0
2024-08-28 22:51:47			0	37834	0	0	0	29529	28140	154655	26790	1079785	46930	110984	0	0	8101	546782	0	0
2024-08-28 22:52:47			0	37824	0	0	0	29535	28140	154695	26733	1079758	46930	110986	0	0	8100	547168	0	0
2024-08-28 22:53:47			0	37821	0	0	0	29535	28130	154655	26765	1079749	46919	110986	0	0	8100	547315	0	0
2024-08-28 22:54:47			0	37819	0	0	0	29535	28130	154683	26778	1079749	46942	110986	0	0	8100	547392	0	0
2024-08-28 22:55:47			0	37817	0	0	0	29532	28130	154679	26817	1079669	46930	110985	0	0	8100	547469	0	0
2024-08-28 22:56:47			0	37812	0	0	0	29527	28130	154811	26668	1079722	46919	110983	0	0	8100	547662	0	0
2024-08-28 22:57:47			0	37815	0	0	0	29542	28130	154779	26946	1079713	46929	110989	0	0	8099	547546	0	0
2024-08-28 22:58:47			0	37790	0	0	0	29532	28140	154691	26942	1079741	46920	110985	0	0	8098	548480	0	0
2024-08-28 22:59:47			0	37812	0	0	0	29527	28130	154703	26942	1079686	46940	110983	0	0	8100	547662	0	0
2024-08-28 23:00:47			0	37805	0	0	0	29527	28130	154743	27017	1079659	46940	110983	0	0	8099	547932	0	0
2024-08-28 23:01:47			0	37785	0	0	0	29524	28130	154731	26896	1079659	46929	110982	0	0	8098	548705	0	0
2024-08-28 23:02:47			0	37755	0	0	0	29527	28120	154795	27183	1079722	46939	110983	0	0	8096	549897	0	0
2024-08-28 23:03:47			0	37783	0	0	0	29524	28120	154919	26982	1079614	46928	110982	0	0	8098	548814	0	0
2024-08-28 23:04:47			0	37762	0	0	0	29529	28120	154835	27093	1079650	46929	110984	0	0	8097	549626	0	0
2024-08-28 23:05:47			0	37765	0	0	0	29527	28130	154947	26738	1079722	46953	110983	0	0	8097	549478	0	0
2024-08-28 23:06:47			0	37746	0	0	0	29519	28120	154891	26963	1079587	46928	110980	0	0	8096	550245	0	0
2024-08-28 23:07:47			0	37742	0	0	0	29516	28120	154923	27079	1079668	46928	110979	0	0	8096	550400	0	0
2024-08-28 23:08:47			0	37761	0	0	0	29516	28120	154907	27140	1079650	46952	110979	0	0	8097	549664	0	0
2024-08-28 23:09:47			0	37738	0	0	0	29519	28120	154919	26715	1079677	46929	110980	0	0	8095	550555	0	0
2024-08-28 23:10:47			0	37721	0	0	0	29522	28110	154987	27196	1079686	46928	110981	0	0	8094	551245	0	0
2024-08-28 23:11:47			0	37728	0	0	0	29519	28120	154963	26630	1079641	46939	110980	0	0	8095	550942	0	0
2024-08-28 23:12:47			0	37727	0	0	0	29522	28120	155123	26996	1079650	46940	110981	0	0	8095	550981	0	0
2024-08-28 23:13:47			0	37703	0	0	0	29511	28120	155039	26930	1079668	46928	110977	0	0	8093	551911	0	0
2024-08-28 23:14:47			0	37708	0	0	0	29519	28120	155127	26883	1079641	46928	110980	0	0	8094	551717	0	0
2024-08-28 23:15:47			0	37706	0	0	0	29524	28120	155127	27045	1079623	46918	110982	0	0	8093	551795	0	0
2024-08-28 23:16:47			0	37678	0	0	0	29519	28110	155171	26838	1079686	46928	110980	0	0	8092	552914	0	0
2024-08-28 23:17:47			0	37700	0	0	0	29524	28120	155259	27140	1079587	46928	110982	0	0	8093	552028	0	0
2024-08-28 23:18:47			0	37665	0	0	0	29514	28110	155231	26925	1079632	46928	110978	0	0	8091	553419	0	0
2024-08-28 23:19:47			0	37658	0	0	0	29503	28110	155227	27255	1079605	46928	110974	0	0	8091	553691	0	0
2024-08-28 23:20:47			0	37649	0	0	0	29509	28120	155231	27211	1079641	46939	110976	0	0	8090	554009	0	0
2024-08-28 23:21:47			0	37655	0	0	0	29511	28110	155227	27166	1079542	46938	110977	0	0	8091	553807	0	0
2024-08-28 23:22:47			0	37661	0	0	0	29514	28110	155355	27248	1079578	46917	110978	0	0	8091	553574	0	0
2024-08-28 23:23:47			0	37663	0	0	0	29519	28110	155375	27133	1079569	46938	110980	0	0	8091	553496	0	0
2024-08-28 23:24:47			0	37650	0	0	0	29506	28120	155347	27001	1079614	46939	110975	0	0	8090	553970	0	0
2024-08-28 23:25:47			0	37629	0	0	0	29511	28110	155311	27107	1079605	46928	110977	0	0	8089	554819	0	0
2024-08-28 23:26:47			0	37630	0	0	0	29509	28110	155363	27050	1079551	46939	110976	0	0	8089	554780	0	0
2024-08-28 23:27:47			0	37658	0	0	0	29511	28110	155327	26823	1079632	46939	110977	0	0	8091	553691	0	0
2024-08-28 23:28:47			0	37641	0	0	0	29516	28110	155327	26812	1079569	46927	110979	0	0	8090	554352	0	0
2024-08-28 23:29:47			0	37655	0	0	0	29509	28110	155339	27033	1079515	46927	110976	0	0	8091	553807	0	0
2024-08-28 23:30:47			0	37681	0	0	0	29509	28110	155283	27140	1079596	46916	110976	0	0	8092	552797	0	0
2024-08-28 23:31:47			0	37651	0	0	0	29503	28110	155271	27220	1079542	46927	110974	0	0	8091	553963	0	0
2024-08-28 23:32:47			0	37671	0	0	0	29503	28120	155131	27355	1079587	46928	110974	0	0	8092	553153	0	0
2024-08-28 23:33:47			0	37680	0	0	0	29506	28110	155303	27253	1079542	46927	110975	0	0	8092	552836	0	0
2024-08-28 23:34:47			0	37670	0	0	0	29503	28110	155211	27019	1079569	46938	110974	0	0	8092	553224	0	0
2024-08-28 23:35:47			0	37677	0	0	0	29503	28100	155291	26998	1079614	46916	110974	0	0	8092	552984	0	0
2024-08-28 23:36:47			0	37661	0	0	0	29501	28100	155203	26887	1079506	46927	110973	0	0	8091	553606	0	0
2024-08-28 23:37:47			0	37663	0	0	0	29501	28110	155215	27033	1079596	46938	110973	0	0	8091	553496	0	0
2024-08-28 23:38:47			0	37669	0	0	0	29503	28090	155303	26937	1079578	46916	110974	0	0	8092	553327	0	0
2024-08-28 23:39:47			0	37662	0	0	0	29501	28110	155263	27097	1079596	46927	110973	0	0	8091	553535	0	0
2024-08-28 23:40:47			0	37643	0	0	0	29509	28090	155291	26852	1079524	46937	110976	0	0	8090	554338	0	0
2024-08-28 23:41:47			0	37657	0	0	0	29506	28100	155387	26830	1079533	46927	110975	0	0	8091	553761	0	0
2024-08-28 23:42:47			0	37626	0	0	0	29498	28110	155495	27154	1079551	46928	110972	0	0	8089	554935	0	0
2024-08-28 23:43:47			0	37611	0	0	0	29493	28090	155387	27145	1079524	46926	110970	0	0	8088	555584	0	0
2024-08-28 23:44:47			0	37615	0	0	0	29496	28100	155487	27244	1079479	46927	110971	0	0	8089	555396	0	0
2024-08-28 23:45:47			0	37603	0	0	0	29485	28100	155543	27131	1079506	46916	110967	0	0	8088	555863	0	0
2024-08-28 23:46:47			0	37581	0	0	0	29493	28090	155535	27067	1079488	46936	110970	0	0	8087	556753	0	0
2024-08-28 23:47:47			0	37560	0	0	0	29485	28090	155567	26991	1079497	46926	110967	0	0	8086	557573	0	0
2024-08-28 23:48:47			0	37569	0	0	0	29483	28090	155735	27121	1079497	46926	110966	0	0	8086	557221	0	0
2024-08-28 23:49:47			0	37538	0	0	0	29490	28090	155695	26785	1079551	46926	110969	0	0	8084	558432	0	0
2024-08-28 23:50:47			0	37533	0	0	0	29483	28090	155931	26734	1079434	46925	110966	0	0	8084	558628	0	0
2024-08-28 23:51:47			0	37509	0	0	0	29470	28090	155931	26811	1079488	46925	110961	0	0	8083	559566	0	0
2024-08-28 23:52:47			0	37502	0	0	0	29472	28080	155951	27216	1079398	46925	110962	0	0	8082	559873	0	0
2024-08-28 23:53:47			0	37481	0	0	0	29472	28070	155931	27248	1079488	46935	110962	0	0	8081	560728	0	0
2024-08-28 23:54:47			0	37465	0	0	0	29475	28080	156059	27159	1079389	46924	110963	0	0	8080	561323	0	0
2024-08-28 23:55:47			0	37450	0	0	0	29477	28080	156075	27267	1079416	46924	110964	0	0	8079	561911	0	0
2024-08-28 23:56:47			0	37428	0	0	0	29464	28080	156299	26923	1079362	46935	110959	0	0	8078	562775	0	0
2024-08-28 23:57:47			0	37424	0	0	0	29470	28070	156327	27144	1079380	46935	110961	0	0	8078	562965	0	0
2024-08-28 23:58:47			0	37403	0	0	0	29472	28070	156339	26852	1079344	46923	110962	0	0	8077	563790	0	0
2024-08-28 23:59:47			0	37384	0	0	0	29477	28080	156371	27029	1079362	46935	110964	0	0	8075	564505	0	0
2024-08-29 00:00:47			0	37382	0	0	0	29470	28080	156367	27156	1079371	46936	110961	0	0	8075	564584	0	0
2024-08-29 00:01:47			0	37354	0	0	0	29464	28070	156475	27272	1079425	46934	110959	0	0	8074	565720	0	0
2024-08-29 00:02:47			0	37343	0	0	0	29475	28070	156523	26788	1079380	46935	110963	0	0	8073	566153	0	0
2024-08-29 00:03:47			0	37339	0	0	0	29464	28060	156579	27182	1079362	46934	110959	0	0	8073	566344	0	0
2024-08-29 00:04:47			0	37331	0	0	0	29459	28070	156679	26967	1079371	46923	110957	0	0	8073	566627	0	0
2024-08-29 00:05:47			0	37327	0	0	0	29459	28060	156667	26956	1079335	46923	110957	0	0	8072	566817	0	0
2024-08-29 00:06:47			0	37307	0	0	0	29451	28070	156754	26941	1079353	46914	110954	0	0	8071	567574	0	0
2024-08-29 00:07:47			0	37300	0	0	0	29454	28060	156746	26923	1079335	46934	110955	0	0	8071	567884	0	0
2024-08-29 00:08:47			0	37301	0	0	0	29444	28070	156874	27170	1079263	46913	110951	0	0	8071	567811	0	0
2024-08-29 00:09:47			0	37295	0	0	0	29438	28060	156722	27263	1079272	46912	110949	0	0	8071	568081	0	0
2024-08-29 00:10:47			0	37274	0	0	0	29423	28050	156878	27066	1079254	46911	110943	0	0	8070	568945	0	0
2024-08-29 00:11:47			0	37267	0	0	0	29433	28050	156906	27190	1079227	46921	110947	0	0	8069	569222	0	0
2024-08-29 00:12:47			0	37261	0	0	0	29431	28050	156970	27294	1079227	46921	110946	0	0	8069	569459	0	0
2024-08-29 00:13:47			0	37260	0	0	0	29418	28040	157050	26993	1079218	46920	110941	0	0	8069	569532	0	0
2024-08-29 00:14:47			0	37256	0	0	0	29407	28050	157034	27079	1079119	46921	110937	0	0	8069	569657	0	0
2024-08-29 00:15:47			0	37262	0	0	0	29402	28030	156950	27069	1079146	46931	110935	0	0	8069	569485	0	0
2024-08-29 00:16:47			0	37264	0	0	0	29415	28020	156998	27364	1079100	46908	110940	0	0	8069	569439	0	0
2024-08-29 00:17:47			0	37254	0	0	0	29412	28030	157034	27230	1079119	46920	110939	0	0	8069	569802	0	0
2024-08-29 00:18:47			0	37261	0	0	0	29418	28020	156978	27386	1079100	46918	110941	0	0	8069	569558	0	0
2024-08-29 00:19:47			0	37289	0	0	0	29418	28030	156834	27270	1079083	46930	110941	0	0	8071	568417	0	0
2024-08-29 00:20:47			0	37338	0	0	0	29410	28030	156687	27196	1079056	46930	110938	0	0	8074	566481	0	0
2024-08-29 00:21:47			0	37371	0	0	0	29415	28020	156583	27000	1079047	46918	110940	0	0	8075	565213	0	0
2024-08-29 00:22:47			0	37345	0	0	0	29410	28030	156499	27216	1079110	46919	110938	0	0	8074	566205	0	0
2024-08-29 00:23:47			0	37333	0	0	0	29410	28020	156607	27320	1079127	46941	110938	0	0	8073	566711	0	0
2024-08-29 00:24:47			0	37324	0	0	0	29405	28020	156687	27274	1079127	46908	110936	0	0	8073	567066	0	0
2024-08-29 00:25:47			0	37317	0	0	0	29410	28020	156875	27443	1079118	46929	110938	0	0	8072	567343	0	0
2024-08-29 00:26:47			0	37288	0	0	0	29405	28030	156754	27013	1079083	46919	110936	0	0	8071	568456	0	0
2024-08-29 00:27:47			0	37263	0	0	0	29402	28020	157050	27128	1079038	46929	110935	0	0	8069	569479	0	0
2024-08-29 00:28:47			0	37236	0	0	0	29399	28020	157062	27322	1079118	46896	110934	0	0	8068	570548	0	0
2024-08-29 00:29:47			0	37236	0	0	0	29399	28010	157018	26927	1079028	46918	110934	0	0	8068	570581	0	0
2024-08-29 00:30:47			0	37215	0	0	0	29386	28010	157142	27206	1078965	46907	110929	0	0	8067	571414	0	0
2024-08-29 00:31:47			0	37204	0	0	0	29392	28010	157194	26892	1079028	46918	110931	0	0	8066	571851	0	0
2024-08-29 00:32:47			0	37205	0	0	0	29397	28000	157266	26909	1078983	46927	110933	0	0	8066	571844	0	0
2024-08-29 00:33:47			0	37185	0	0	0	29399	28010	157286	27178	1078965	46917	110934	0	0	8065	572606	0	0
2024-08-29 00:34:47			0	37187	0	0	0	29397	28000	157298	27178	1079010	46906	110933	0	0	8065	572559	0	0
2024-08-29 00:35:47			0	37182	0	0	0	29405	27990	157238	27239	1078992	46926	110936	0	0	8064	572791	0	0
2024-08-29 00:36:47			0	37187	0	0	0	29407	28000	157326	27052	1079010	46916	110937	0	0	8065	572559	0	0
2024-08-29 00:37:47			0	37179	0	0	0	29399	28000	157358	27078	1078929	46927	110934	0	0	8064	572877	0	0
2024-08-29 00:38:47			0	37166	0	0	0	29405	28010	157426	27128	1079001	46941	110936	0	0	8064	573361	0	0
2024-08-29 00:39:47			0	37174	0	0	0	29412	27990	157434	27248	1078992	46938	110939	0	0	8064	573109	0	0
2024-08-29 00:40:47			0	37166	0	0	0	29410	28000	157346	27149	1079064	46927	110938	0	0	8063	573394	0	0
2024-08-29 00:41:47			0	37171	0	0	0	29412	27990	157386	27090	1079127	46949	110939	0	0	8064	573228	0	0
2024-08-29 00:42:47			0	37166	0	0	0	29410	28000	157434	27244	1078929	46927	110938	0	0	8063	573394	0	0
2024-08-29 00:43:47			0	37138	0	0	0	29399	28000	157406	26882	1079010	46927	110934	0	0	8062	574509	0	0
2024-08-29 00:44:47			0	37141	0	0	0	29412	28000	157406	27079	1079010	46927	110939	0	0	8062	574389	0	0
2024-08-29 00:45:47			0	37169	0	0	0	29415	28000	157386	27067	1078983	46927	110940	0	0	8064	573275	0	0
2024-08-29 00:46:47			0	37169	0	0	0	29420	28000	157402	26764	1078956	46927	110942	0	0	8063	573275	0	0
2024-08-29 00:47:47			0	37169	0	0	0	29410	28000	157358	27019	1078974	46916	110938	0	0	8064	573275	0	0
2024-08-29 00:48:47			0	37175	0	0	0	29410	28000	157382	27118	1079010	46927	110938	0	0	8064	573036	0	0
2024-08-29 00:49:47			0	37165	0	0	0	29399	28010	157358	26817	1078965	46917	110934	0	0	8064	573401	0	0
2024-08-29 00:50:47			0	37155	0	0	0	29410	28000	157378	26925	1078974	46927	110938	0	0	8063	573832	0	0
2024-08-29 00:51:47			0	37181	0	0	0	29402	28000	157414	26904	1079001	46927	110935	0	0	8064	572798	0	0
2024-08-29 00:52:47			0	37201	0	0	0	29397	28000	157382	26965	1078983	46927	110933	0	0	8066	572003	0	0
2024-08-29 00:53:47			0	37198	0	0	0	29399	28000	157326	27287	1078920	46916	110934	0	0	8065	572122	0	0
2024-08-29 00:54:47			0	37211	0	0	0	29399	27990	157294	26932	1078992	46926	110934	0	0	8066	571639	0	0
2024-08-29 00:55:47			0	37218	0	0	0	29399	27990	157306	26908	1079037	46926	110934	0	0	8067	571361	0	0
2024-08-29 00:56:47			0	37215	0	0	0	29386	27990	157158	27168	1078992	46926	110929	0	0	8067	571480	0	0
2024-08-29 00:57:47			0	37232	0	0	0	29397	28000	157218	26908	1078893	46916	110933	0	0	8067	570773	0	0
2024-08-29 00:58:47			0	37227	0	0	0	29392	28000	157162	26944	1078947	46939	110931	0	0	8067	570971	0	0
2024-08-29 00:59:47			0	37226	0	0	0	29402	28000	157074	27052	1079028	46927	110935	0	0	8067	571011	0	0
2024-08-29 01:00:47			0	37241	0	0	0	29397	28000	157158	27015	1078893	46939	110933	0	0	8068	570416	0	0
2024-08-29 01:01:47			0	37271	0	0	0	29394	27990	157062	26913	1078956	46926	110932	0	0	8070	569260	0	0
2024-08-29 01:02:47			0	37291	0	0	0	29392	27990	156978	27043	1078938	46916	110931	0	0	8071	568469	0	0
2024-08-29 01:03:47			0	37266	0	0	0	29384	27990	156926	26868	1078929	46916	110928	0	0	8070	569458	0	0
2024-08-29 01:04:47			0	37290	0	0	0	29384	27990	156970	27118	1078938	46916	110928	0	0	8071	568508	0	0
2024-08-29 01:05:47			0	37283	0	0	0	29389	27990	156910	27076	1078884	46916	110930	0	0	8071	568785	0	0
2024-08-29 01:06:47			0	37314	0	0	0	29384	27990	156855	26863	1078965	46926	110928	0	0	8072	567560	0	0
2024-08-29 01:07:47			0	37294	0	0	0	29389	27980	156678	27216	1078857	46903	110930	0	0	8071	568383	0	0
2024-08-29 01:08:47			0	37300	0	0	0	29384	27980	156854	27265	1078893	46915	110928	0	0	8072	568146	0	0
2024-08-29 01:09:47			0	37320	0	0	0	29386	27980	156738	27039	1078866	46915	110929	0	0	8073	567355	0	0
2024-08-29 01:10:47			0	37321	0	0	0	29384	27990	156763	26814	1078992	46926	110928	0	0	8073	567283	0	0
2024-08-29 01:11:47			0	37298	0	0	0	29386	27980	156794	27263	1078974	46925	110929	0	0	8071	568225	0	0
2024-08-29 01:12:47			0	37328	0	0	0	29386	27980	156731	26920	1078920	46915	110929	0	0	8073	567039	0	0
2024-08-29 01:13:47			0	37341	0	0	0	29389	27970	156683	27083	1078893	46924	110930	0	0	8074	566559	0	0
2024-08-29 01:14:47			0	37355	0	0	0	29389	27980	156587	27066	1078920	46925	110930	0	0	8075	565974	0	0
2024-08-29 01:15:47			0	37384	0	0	0	29394	27980	156431	27234	1078884	46914	110932	0	0	8076	564831	0	0
2024-08-29 01:16:47			0	37390	0	0	0	29394	27990	156391	27464	1078902	46916	110932	0	0	8077	564562	0	0
2024-08-29 01:17:47			0	37408	0	0	0	29386	27970	156335	27166	1078893	46924	110929	0	0	8078	563919	0	0
2024-08-29 01:18:47			0	37424	0	0	0	29402	27980	156287	26897	1078920	46915	110935	0	0	8078	563257	0	0
2024-08-29 01:19:47			0	37427	0	0	0	29394	27990	156239	27228	1078956	46916	110932	0	0	8079	563107	0	0
2024-08-29 01:20:47			0	37441	0	0	0	29392	27980	156171	27237	1078920	46915	110931	0	0	8080	562589	0	0
2024-08-29 01:21:47			0	37469	0	0	0	29389	27980	156215	27192	1078938	46936	110930	0	0	8081	561490	0	0
2024-08-29 01:22:47			0	37459	0	0	0	29389	27980	156179	26807	1078938	46924	110930	0	0	8081	561882	0	0
2024-08-29 01:23:47			0	37479	0	0	0	29381	27980	156123	26710	1078920	46925	110927	0	0	8082	561097	0	0
2024-08-29 01:24:47			0	37476	0	0	0	29389	27990	156023	27019	1078956	46916	110930	0	0	8082	561183	0	0
2024-08-29 01:25:47			0	37477	0	0	0	29392	27980	155995	26819	1078938	46914	110931	0	0	8082	561176	0	0
2024-08-29 01:26:47			0	37480	0	0	0	29374	27980	156007	26956	1078920	46925	110924	0	0	8082	561058	0	0
2024-08-29 01:27:47			0	37484	0	0	0	29384	27980	156087	27140	1078911	46903	110928	0	0	8082	560901	0	0
2024-08-29 01:28:47			0	37497	0	0	0	29384	27980	156091	27013	1078920	46915	110928	0	0	8083	560392	0	0
2024-08-29 01:29:47			0	37486	0	0	0	29374	27980	156035	26726	1078911	46924	110924	0	0	8083	560823	0	0
2024-08-29 01:30:47			0	37505	0	0	0	29374	27980	156111	27026	1078857	46924	110924	0	0	8084	560078	0	0
2024-08-29 01:31:47			0	37497	0	0	0	29381	27970	156043	26847	1078893	46914	110927	0	0	8083	560424	0	0
2024-08-29 01:32:47			0	37497	0	0	0	29392	27970	156047	26791	1078893	46914	110931	0	0	8083	560424	0	0
2024-08-29 01:33:47			0	37496	0	0	0	29381	27980	155967	27287	1078911	46924	110927	0	0	8083	560431	0	0
2024-08-29 01:34:47			0	37488	0	0	0	29379	27980	156067	27209	1078947	46925	110926	0	0	8083	560745	0	0
2024-08-29 01:35:47			0	37469	0	0	0	29379	27980	156083	27038	1078857	46903	110926	0	0	8081	561490	0	0
2024-08-29 01:36:47			0	37499	0	0	0	29379	27960	155995	27208	1078911	46923	110926	0	0	8083	560378	0	0
2024-08-29 01:37:47			0	37488	0	0	0	29374	27970	156003	27109	1078893	46914	110924	0	0	8083	560777	0	0
2024-08-29 01:38:47			0	37485	0	0	0	29379	27970	156127	27166	1078893	46914	110926	0	0	8082	560894	0	0
2024-08-29 01:39:47			0	37488	0	0	0	29376	27960	156119	27159	1078884	46923	110925	0	0	8083	560809	0	0
2024-08-29 01:40:47			0	37493	0	0	0	29379	27980	156083	27107	1078884	46924	110926	0	0	8083	560549	0	0
2024-08-29 01:41:47			0	37497	0	0	0	29381	27970	156083	26854	1078920	46903	110927	0	0	8083	560424	0	0
2024-08-29 01:42:47			0	37488	0	0	0	29381	27980	156199	27242	1078920	46915	110927	0	0	8083	560745	0	0
2024-08-29 01:43:47			0	37484	0	0	0	29384	27980	156055	26781	1078911	46914	110928	0	0	8082	560901	0	0
2024-08-29 01:44:47			0	37476	0	0	0	29386	27970	156195	26748	1078893	46924	110929	0	0	8082	561247	0	0
2024-08-29 01:45:47			0	37473	0	0	0	29389	27980	156135	26876	1078866	46915	110930	0	0	8082	561333	0	0
2024-08-29 01:46:47			0	37490	0	0	0	29381	27970	156047	26996	1078956	46924	110927	0	0	8083	560698	0	0
2024-08-29 01:47:47			0	37498	0	0	0	29389	27980	156163	27010	1078911	46936	110930	0	0	8083	560352	0	0
2024-08-29 01:48:47			0	37478	0	0	0	29376	27970	156071	26833	1078893	46924	110925	0	0	8082	561169	0	0
2024-08-29 01:49:47			0	37471	0	0	0	29371	27980	156207	27045	1078857	46914	110923	0	0	8082	561411	0	0
2024-08-29 01:50:47			0	37472	0	0	0	29374	27980	156303	27003	1078965	46924	110924	0	0	8082	561372	0	0
2024-08-29 01:51:47			0	37476	0	0	0	29376	27960	156231	27059	1078830	46913	110925	0	0	8082	561280	0	0
2024-08-29 01:52:47			0	37477	0	0	0	29374	27960	156267	27345	1078830	46913	110924	0	0	8082	561240	0	0
2024-08-29 01:53:47			0	37479	0	0	0	29374	27980	156239	27059	1078884	46936	110924	0	0	8082	561097	0	0
2024-08-29 01:54:47			0	37466	0	0	0	29371	27960	156191	26916	1078857	46935	110923	0	0	8081	561672	0	0
2024-08-29 01:55:47			0	37460	0	0	0	29376	27960	156223	27034	1078848	46922	110925	0	0	8081	561908	0	0
2024-08-29 01:56:47			0	37460	0	0	0	29368	27970	156179	27149	1078920	46924	110922	0	0	8081	561875	0	0
2024-08-29 01:57:47			0	37467	0	0	0	29371	27960	156183	27066	1078857	46923	110923	0	0	8081	561633	0	0
2024-08-29 01:58:47			0	37461	0	0	0	29366	27960	156251	27060	1078857	46913	110921	0	0	8081	561868	0	0
2024-08-29 01:59:47			0	37458	0	0	0	29361	27960	156255	26916	1078857	46913	110919	0	0	8081	561986	0	0
2024-08-29 02:00:47			0	37450	0	0	0	29368	27970	156267	27059	1078839	46914	110922	0	0	8081	562268	0	0
2024-08-29 02:01:47			0	37441	0	0	0	29361	27960	156307	27102	1078821	46922	110919	0	0	8080	562654	0	0
2024-08-29 02:02:47			0	37453	0	0	0	29363	27960	156211	27369	1078776	46923	110920	0	0	8081	562182	0	0
2024-08-29 02:03:47			0	37474	0	0	0	29363	27960	156327	27060	1078821	46912	110920	0	0	8082	561358	0	0
2024-08-29 02:04:47			0	37448	0	0	0	29371	27960	156243	27020	1078884	46935	110923	0	0	8080	562379	0	0
2024-08-29 02:05:47			0	37438	0	0	0	29366	27960	156219	27246	1078848	46934	110921	0	0	8080	562772	0	0
2024-08-29 02:06:47			0	37440	0	0	0	29376	27960	156371	26987	1078821	46912	110925	0	0	8080	562693	0	0
2024-08-29 02:07:47			0	37433	0	0	0	29368	27960	156295	26845	1078821	46912	110922	0	0	8079	562968	0	0
2024-08-29 02:08:47			0	37430	0	0	0	29358	27950	156335	26923	1078839	46922	110918	0	0	8079	563118	0	0
2024-08-29 02:09:47			0	37421	0	0	0	29363	27950	156367	26998	1078812	46922	110920	0	0	8079	563472	0	0
2024-08-29 02:10:47			0	37426	0	0	0	29358	27960	156271	27208	1078794	46922	110918	0	0	8079	563243	0	0
2024-08-29 02:11:47			0	37428	0	0	0	29353	27960	156299	26908	1078794	46901	110916	0	0	8079	563165	0	0
2024-08-29 02:12:47			0	37419	0	0	0	29353	27960	156351	27034	1078767	46912	110916	0	0	8079	563519	0	0
2024-08-29 02:13:47			0	37436	0	0	0	29358	27950	156403	26960	1078812	46922	110918	0	0	8080	562883	0	0
2024-08-29 02:14:47			0	37434	0	0	0	29361	27960	156475	27138	1078821	46922	110919	0	0	8080	562929	0	0
2024-08-29 02:15:47			0	37431	0	0	0	29361	27950	156463	26630	1078812	46934	110919	0	0	8079	563079	0	0
2024-08-29 02:16:47			0	37390	0	0	0	29358	27950	156399	27150	1078812	46912	110918	0	0	8077	564692	0	0
2024-08-29 02:17:47			0	37428	0	0	0	29363	27960	156423	27237	1078767	46912	110920	0	0	8079	563165	0	0
2024-08-29 02:18:47			0	37418	0	0	0	29348	27960	156455	27078	1078740	46912	110914	0	0	8079	563558	0	0
2024-08-29 02:19:47			0	37412	0	0	0	29353	27940	156403	27005	1078704	46932	110916	0	0	8078	563859	0	0
2024-08-29 02:20:47			0	37399	0	0	0	29348	27940	156399	27098	1078713	46911	110914	0	0	8078	564371	0	0
2024-08-29 02:21:47			0	37390	0	0	0	29355	27940	156371	27053	1078767	46933	110917	0	0	8077	564725	0	0
2024-08-29 02:22:47			0	37403	0	0	0	29355	27940	156423	27144	1078794	46921	110917	0	0	8078	564213	0	0
2024-08-29 02:23:47			0	37397	0	0	0	29366	27940	156479	27220	1078767	46921	110921	0	0	8077	564449	0	0
2024-08-29 02:24:47			0	37417	0	0	0	29358	27930	156539	27244	1078722	46920	110918	0	0	8079	563695	0	0
2024-08-29 02:25:47			0	37396	0	0	0	29350	27940	156443	27137	1078767	46921	110915	0	0	8078	564489	0	0
2024-08-29 02:26:47			0	37410	0	0	0	29353	27940	156451	27194	1078731	46920	110916	0	0	8078	563938	0	0
2024-08-29 02:27:47			0	37396	0	0	0	29350	27940	156455	27157	1078740	46911	110915	0	0	8078	564489	0	0
2024-08-29 02:28:47			0	37390	0	0	0	29345	27950	156423	27112	1078695	46922	110913	0	0	8077	564692	0	0
2024-08-29 02:29:47			0	37393	0	0	0	29353	27950	156443	27071	1078785	46912	110916	0	0	8077	564574	0	0
2024-08-29 02:30:47			0	37402	0	0	0	29340	27940	156507	27064	1078713	46921	110911	0	0	8078	564252	0	0
2024-08-29 02:31:47			0	37403	0	0	0	29340	27940	156507	27062	1078767	46933	110911	0	0	8078	564213	0	0
2024-08-29 02:32:47			0	37388	0	0	0	29342	27940	156463	26991	1078704	46920	110912	0	0	8077	564804	0	0
2024-08-29 02:33:47			0	37383	0	0	0	29340	27930	156571	27052	1078668	46910	110911	0	0	8077	565033	0	0
2024-08-29 02:34:47			0	37390	0	0	0	29348	27940	156623	26984	1078731	46910	110914	0	0	8077	564725	0	0
2024-08-29 02:35:47			0	37371	0	0	0	29329	27940	156571	26993	1078677	46932	110907	0	0	8076	565474	0	0
2024-08-29 02:36:47			0	37394	0	0	0	29335	27930	156503	27071	1078668	46910	110909	0	0	8078	564600	0	0
2024-08-29 02:37:47			0	37378	0	0	0	29327	27920	156543	27039	1078650	46931	110906	0	0	8077	565263	0	0
2024-08-29 02:38:47			0	37376	0	0	0	29340	27930	156491	27168	1078668	46920	110911	0	0	8077	565309	0	0
2024-08-29 02:39:47			0	37382	0	0	0	29319	27930	156571	27020	1078668	46920	110903	0	0	8077	565073	0	0
2024-08-29 02:40:47			0	37370	0	0	0	29319	27930	156507	26904	1078668	46920	110903	0	0	8077	565546	0	0
2024-08-29 02:41:47			0	37385	0	0	0	29324	27920	156687	26986	1078623	46919	110905	0	0	8077	564987	0	0
2024-08-29 02:42:47			0	37365	0	0	0	29322	27920	156567	26753	1078614	46908	110904	0	0	8076	565775	0	0
2024-08-29 02:43:47			0	37383	0	0	0	29319	27930	156595	27072	1078686	46920	110903	0	0	8077	565033	0	0
2024-08-29 02:44:47			0	37371	0	0	0	29335	27930	156627	27067	1078686	46920	110909	0	0	8076	565506	0	0
2024-08-29 02:45:47			0	37382	0	0	0	29329	27930	156643	26868	1078632	46920	110907	0	0	8077	565073	0	0
2024-08-29 02:46:47			0	37392	0	0	0	29329	27930	156599	26802	1078659	46920	110907	0	0	8078	564679	0	0
2024-08-29 02:47:47			0	37404	0	0	0	29327	27920	156647	26693	1078677	46919	110906	0	0	8078	564239	0	0
2024-08-29 02:48:47			0	37382	0	0	0	29324	27930	156655	26942	1078632	46932	110905	0	0	8077	565073	0	0
2024-08-29 02:49:47			0	37394	0	0	0	29324	27930	156451	27086	1078551	46932	110905	0	0	8078	564600	0	0
2024-08-29 02:50:47			0	37377	0	0	0	29329	27920	156567	27161	1078623	46919	110907	0	0	8077	565302	0	0
2024-08-29 02:51:47			0	37389	0	0	0	29335	27920	156495	26998	1078623	46919	110909	0	0	8077	564829	0	0
2024-08-29 02:52:47			0	37391	0	0	0	29327	27930	156503	27145	1078578	46910	110906	0	0	8078	564718	0	0
2024-08-29 02:53:47			0	37387	0	0	0	29316	27930	156619	26904	1078632	46920	110902	0	0	8078	564876	0	0
2024-08-29 02:54:47			0	37381	0	0	0	29324	27910	156599	27052	1078578	46917	110905	0	0	8077	565177	0	0
2024-08-29 02:55:47			0	37395	0	0	0	29319	27920	156555	26937	1078596	46919	110903	0	0	8078	564593	0	0
2024-08-29 02:56:47			0	37390	0	0	0	29319	27930	156495	27277	1078605	46920	110903	0	0	8078	564758	0	0
2024-08-29 02:57:47			0	37393	0	0	0	29309	27920	156427	26824	1078641	46908	110899	0	0	8078	564672	0	0
2024-08-29 02:58:47			0	37390	0	0	0	29311	27920	156487	27130	1078569	46919	110900	0	0	8078	564790	0	0
2024-08-29 02:59:47			0	37401	0	0	0	29316	27920	156531	26909	1078587	46908	110902	0	0	8078	564357	0	0
2024-08-29 03:00:47			0	37394	0	0	0	29319	27920	156431	26935	1078587	46908	110903	0	0	8078	564632	0	0
2024-08-29 03:01:47			0	37396	0	0	0	29314	27910	156631	26606	1078569	46907	110901	0	0	8078	564586	0	0
2024-08-29 03:02:47			0	37398	0	0	0	29311	27900	156511	26864	1078532	46917	110900	0	0	8078	564540	0	0
2024-08-29 03:03:47			0	37399	0	0	0	29303	27910	156655	27135	1078569	46929	110897	0	0	8078	564468	0	0
2024-08-29 03:04:47			0	37400	0	0	0	29314	27910	156483	26847	1078569	46917	110901	0	0	8078	564429	0	0
2024-08-29 03:05:47			0	37419	0	0	0	29306	27910	156507	26958	1078569	46929	110898	0	0	8079	563681	0	0
2024-08-29 03:06:47			0	37379	0	0	0	29319	27910	156503	26963	1078542	46917	110903	0	0	8077	565256	0	0
2024-08-29 03:07:47			0	37414	0	0	0	29306	27910	156471	27036	1078569	46917	110898	0	0	8079	563878	0	0
2024-08-29 03:08:47			0	37400	0	0	0	29319	27910	156607	27046	1078605	46929	110903	0	0	8078	564429	0	0
2024-08-29 03:09:47			0	37407	0	0	0	29314	27900	156543	26800	1078559	46917	110901	0	0	8079	564186	0	0
2024-08-29 03:10:47			0	37392	0	0	0	29309	27910	156567	26989	1078569	46929	110899	0	0	8078	564744	0	0
2024-08-29 03:11:47			0	37393	0	0	0	29301	27900	156587	27022	1078532	46917	110896	0	0	8078	564737	0	0
2024-08-29 03:12:47			0	37407	0	0	0	29303	27910	156551	27109	1078542	46917	110897	0	0	8079	564153	0	0
2024-08-29 03:13:47			0	37417	0	0	0	29301	27910	156611	26873	1078515	46917	110896	0	0	8079	563760	0	0
2024-08-29 03:14:47			0	37410	0	0	0	29309	27900	156491	27059	1078532	46917	110899	0	0	8079	564068	0	0
2024-08-29 03:15:47			0	37407	0	0	0	29303	27900	156475	27190	1078550	46916	110897	0	0	8079	564186	0	0
2024-08-29 03:16:47			0	37417	0	0	0	29303	27900	156539	27003	1078586	46917	110897	0	0	8079	563792	0	0
2024-08-29 03:17:47			0	37409	0	0	0	29293	27890	156543	27329	1078514	46916	110893	0	0	8079	564140	0	0
2024-08-29 03:18:47			0	37425	0	0	0	29298	27890	156539	26930	1078460	46916	110895	0	0	8080	563510	0	0
2024-08-29 03:19:47			0	37437	0	0	0	29301	27890	156459	26977	1078514	46916	110896	0	0	8081	563038	0	0
2024-08-29 03:20:47			0	37436	0	0	0	29301	27890	156491	27012	1078460	46905	110896	0	0	8080	563077	0	0
2024-08-29 03:21:47			0	37429	0	0	0	29288	27890	156411	26814	1078487	46905	110891	0	0	8080	563353	0	0
2024-08-29 03:22:47			0	37457	0	0	0	29293	27890	156295	27112	1078514	46927	110893	0	0	8082	562252	0	0
2024-08-29 03:23:47			0	37429	0	0	0	29288	27890	156319	27003	1078505	46916	110891	0	0	8080	563353	0	0
2024-08-29 03:24:47			0	37450	0	0	0	29298	27890	156447	27163	1078514	46927	110895	0	0	8081	562527	0	0
2024-08-29 03:25:47			0	37434	0	0	0	29285	27890	156379	26975	1078487	46927	110890	0	0	8081	563156	0	0
2024-08-29 03:26:47			0	37458	0	0	0	29285	27890	156387	27187	1078460	46938	110890	0	0	8082	562213	0	0
2024-08-29 03:27:47			0	37453	0	0	0	29288	27890	156355	26946	1078460	46916	110891	0	0	8082	562409	0	0
2024-08-29 03:28:47			0	37456	0	0	0	29270	27890	156387	26753	1078487	46916	110884	0	0	8082	562291	0	0
2024-08-29 03:29:47			0	37453	0	0	0	29280	27890	156371	27222	1078424	46905	110888	0	0	8082	562409	0	0
2024-08-29 03:30:47			0	37427	0	0	0	29283	27870	156419	27036	1078397	46903	110889	0	0	8080	563496	0	0
2024-08-29 03:31:47			0	37462	0	0	0	29288	27880	156303	26928	1078496	46905	110891	0	0	8082	562088	0	0
2024-08-29 03:32:47			0	37441	0	0	0	29293	27890	156295	26918	1078460	46916	110893	0	0	8081	562881	0	0
2024-08-29 03:33:47			0	37451	0	0	0	29288	27880	156439	26828	1078469	46905	110891	0	0	8082	562520	0	0
2024-08-29 03:34:47			0	37427	0	0	0	29288	27880	156431	26961	1078469	46916	110891	0	0	8080	563464	0	0
2024-08-29 03:35:47			0	37439	0	0	0	29288	27880	156519	27130	1078469	46905	110891	0	0	8081	562992	0	0
2024-08-29 03:36:47			0	37438	0	0	0	29293	27880	156323	27031	1078469	46916	110893	0	0	8081	563031	0	0
2024-08-29 03:37:47			0	37436	0	0	0	29290	27890	156343	26901	1078505	46916	110892	0	0	8081	563077	0	0
2024-08-29 03:38:47			0	37455	0	0	0	29285	27890	156271	27109	1078424	46916	110890	0	0	8082	562331	0	0
2024-08-29 03:39:47			0	37462	0	0	0	29290	27880	156323	26911	1078406	46904	110892	0	0	8082	562088	0	0
2024-08-29 03:40:47			0	37484	0	0	0	29290	27890	156143	27144	1078424	46927	110892	0	0	8083	561192	0	0
2024-08-29 03:41:47			0	37473	0	0	0	29277	27880	156139	27320	1078487	46915	110887	0	0	8083	561656	0	0
2024-08-29 03:42:47			0	37489	0	0	0	29270	27880	156087	27088	1078406	46915	110884	0	0	8084	561029	0	0
2024-08-29 03:43:47			0	37481	0	0	0	29267	27880	156115	27072	1078442	46916	110883	0	0	8084	561342	0	0
2024-08-29 03:44:47			0	37479	0	0	0	29280	27880	156271	27100	1078442	46916	110888	0	0	8083	561421	0	0
2024-08-29 03:45:47			0	37472	0	0	0	29280	27880	156175	26967	1078442	46916	110888	0	0	8083	561696	0	0
2024-08-29 03:46:47			0	37476	0	0	0	29270	27880	156235	26963	1078406	46926	110884	0	0	8083	561539	0	0
2024-08-29 03:47:47			0	37477	0	0	0	29264	27880	156227	27168	1078379	46926	110882	0	0	8083	561499	0	0
2024-08-29 03:48:47			0	37469	0	0	0	29267	27880	156151	27230	1078325	46915	110883	0	0	8083	561813	0	0
2024-08-29 03:49:47			0	37438	0	0	0	29277	27880	156259	27239	1078379	46904	110887	0	0	8081	563031	0	0
2024-08-29 03:50:47			0	37454	0	0	0	29272	27870	156323	27211	1078388	46925	110885	0	0	8082	562435	0	0
2024-08-29 03:51:47			0	37462	0	0	0	29262	27880	156231	27274	1078433	46926	110881	0	0	8083	562088	0	0
2024-08-29 03:52:47			0	37445	0	0	0	29267	27870	156295	26830	1078415	46914	110883	0	0	8081	562789	0	0
2024-08-29 03:53:47			0	37437	0	0	0	29275	27870	156323	27112	1078370	46914	110886	0	0	8081	563103	0	0
2024-08-29 03:54:47			0	37438	0	0	0	29272	27880	156331	27180	1078406	46904	110885	0	0	8081	563031	0	0
2024-08-29 03:55:47			0	37428	0	0	0	29270	27880	156459	27300	1078433	46915	110884	0	0	8080	563424	0	0
2024-08-29 03:56:47			0	37441	0	0	0	29270	27880	156367	27124	1078379	46937	110884	0	0	8081	562913	0	0
2024-08-29 03:57:47			0	37429	0	0	0	29270	27870	156343	26960	1078415	46903	110884	0	0	8080	563418	0	0
2024-08-29 03:58:47			0	37436	0	0	0	29267	27880	156455	27144	1078406	46904	110883	0	0	8081	563110	0	0
2024-08-29 03:59:47			0	37437	0	0	0	29262	27870	156351	27105	1078397	46903	110881	0	0	8081	563103	0	0
2024-08-29 04:00:47			0	37428	0	0	0	29272	27870	156371	27185	1078415	46925	110885	0	0	8080	563457	0	0
2024-08-29 04:01:47			0	37422	0	0	0	29264	27880	156363	27234	1078379	46915	110882	0	0	8080	563660	0	0
2024-08-29 04:02:47			0	37416	0	0	0	29264	27860	156431	26970	1078370	46913	110882	0	0	8080	563962	0	0
2024-08-29 04:03:47			0	37437	0	0	0	29264	27880	156431	27201	1078352	46915	110882	0	0	8081	563071	0	0
2024-08-29 04:04:47			0	37405	0	0	0	29264	27860	156411	26932	1078325	46925	110882	0	0	8079	564395	0	0
2024-08-29 04:05:47			0	37420	0	0	0	29259	27860	156375	27223	1078352	46914	110880	0	0	8080	563804	0	0
2024-08-29 04:06:47			0	37420	0	0	0	29259	27860	156419	26828	1078352	46903	110880	0	0	8080	563804	0	0
2024-08-29 04:07:47			0	37426	0	0	0	29262	27860	156371	26889	1078325	46903	110881	0	0	8080	563568	0	0
2024-08-29 04:08:47			0	37408	0	0	0	29259	27860	156455	27027	1078343	46913	110880	0	0	8079	564276	0	0
2024-08-29 04:09:47			0	37419	0	0	0	29262	27870	156483	26838	1078361	46925	110881	0	0	8080	563811	0	0
2024-08-29 04:10:47			0	37431	0	0	0	29262	27870	156355	27024	1078361	46914	110881	0	0	8081	563339	0	0
2024-08-29 04:11:47			0	37417	0	0	0	29254	27860	156359	27124	1078271	46925	110878	0	0	8080	563922	0	0
2024-08-29 04:12:47			0	37415	0	0	0	29272	27870	156359	27138	1078388	46914	110885	0	0	8080	563968	0	0
2024-08-29 04:13:47			0	37418	0	0	0	29267	27860	156407	26847	1078298	46914	110883	0	0	8080	563883	0	0
2024-08-29 04:14:47			0	37399	0	0	0	29259	27860	156423	26922	1078316	46913	110880	0	0	8079	564631	0	0
2024-08-29 04:15:47			0	37422	0	0	0	29259	27860	156519	26786	1078316	46924	110880	0	0	8080	563725	0	0
2024-08-29 04:16:47			0	37401	0	0	0	29259	27860	156431	27370	1078325	46903	110880	0	0	8079	564552	0	0
2024-08-29 04:17:47			0	37419	0	0	0	29259	27860	156423	26883	1078379	46914	110880	0	0	8080	563844	0	0
2024-08-29 04:18:47			0	37414	0	0	0	29264	27860	156383	27034	1078289	46924	110882	0	0	8080	564040	0	0
2024-08-29 04:19:47			0	37407	0	0	0	29262	27850	156455	27357	1078280	46945	110881	0	0	8079	564348	0	0
2024-08-29 04:20:47			0	37401	0	0	0	29267	27870	156519	27064	1078361	46925	110883	0	0	8079	564520	0	0
2024-08-29 04:21:47			0	37405	0	0	0	29275	27850	156507	26899	1078307	46901	110886	0	0	8079	564427	0	0
2024-08-29 04:22:47			0	37394	0	0	0	29270	27850	156535	26977	1078352	46911	110884	0	0	8078	564860	0	0
2024-08-29 04:23:47			0	37386	0	0	0	29272	27860	156499	26993	1078343	46924	110885	0	0	8078	565143	0	0
2024-08-29 04:24:47			0	37378	0	0	0	29262	27860	156491	27287	1078370	46913	110881	0	0	8078	565459	0	0
2024-08-29 04:25:47			0	37375	0	0	0	29270	27860	156619	26885	1078370	46924	110884	0	0	8077	565577	0	0
2024-08-29 04:26:47			0	37354	0	0	0	29272	27870	156699	27079	1078415	46936	110885	0	0	8076	566372	0	0
2024-08-29 04:27:47			0	37376	0	0	0	29267	27860	156603	27166	1078370	46902	110883	0	0	8077	565537	0	0
2024-08-29 04:28:47			0	37362	0	0	0	29264	27860	156603	27206	1078379	46914	110882	0	0	8077	566089	0	0
2024-08-29 04:29:47			0	37363	0	0	0	29262	27860	156563	27067	1078370	46913	110881	0	0	8077	566050	0	0
2024-08-29 04:30:47			0	37369	0	0	0	29262	27860	156547	27007	1078352	46925	110881	0	0	8077	565813	0	0
2024-08-29 04:31:47			0	37378	0	0	0	29254	27850	156571	27057	1078334	46934	110878	0	0	8078	565491	0	0
2024-08-29 04:32:47			0	37374	0	0	0	29257	27870	156499	26961	1078334	46903	110879	0	0	8078	565584	0	0
2024-08-29 04:33:47			0	37372	0	0	0	29244	27860	156643	26830	1078343	46913	110874	0	0	8078	565695	0	0
2024-08-29 04:34:47			0	37379	0	0	0	29251	27860	156531	27059	1078289	46924	110877	0	0	8078	565419	0	0
2024-08-29 04:35:47			0	37387	0	0	0	29251	27850	156523	26778	1078325	46911	110877	0	0	8078	565136	0	0
2024-08-29 04:36:47			0	37387	0	0	0	29244	27850	156579	26861	1078253	46901	110874	0	0	8078	565136	0	0
2024-08-29 04:37:47			0	37374	0	0	0	29249	27840	156647	26989	1078208	46911	110876	0	0	8078	565681	0	0
2024-08-29 04:38:47			0	37383	0	0	0	29244	27850	156703	27003	1078325	46900	110874	0	0	8078	565294	0	0
2024-08-29 04:39:47			0	37378	0	0	0	29254	27850	156579	26982	1078307	46923	110878	0	0	8078	565491	0	0
2024-08-29 04:40:47			0	37399	0	0	0	29249	27840	156651	26963	1078235	46911	110876	0	0	8079	564696	0	0
2024-08-29 04:41:47			0	37395	0	0	0	29251	27850	156599	26942	1078334	46912	110877	0	0	8079	564821	0	0
2024-08-29 04:42:47			0	37395	0	0	0	29254	27850	156635	26691	1078271	46911	110878	0	0	8079	564821	0	0
2024-08-29 04:43:47			0	37392	0	0	0	29257	27850	156659	26892	1078325	46900	110879	0	0	8078	564939	0	0
2024-08-29 04:44:47			0	37402	0	0	0	29257	27850	156559	26750	1078298	46911	110879	0	0	8079	564545	0	0
2024-08-29 04:45:47			0	37383	0	0	0	29251	27840	156595	26852	1078289	46911	110877	0	0	8078	565326	0	0
2024-08-29 04:46:47			0	37400	0	0	0	29246	27840	156551	26689	1078262	46911	110875	0	0	8079	564656	0	0
2024-08-29 04:47:47			0	37386	0	0	0	29246	27840	156615	27048	1078289	46900	110875	0	0	8078	565208	0	0
2024-08-29 04:48:47			0	37400	0	0	0	29238	27840	156575	26897	1078253	46900	110872	0	0	8079	564656	0	0
2024-08-29 04:49:47			0	37408	0	0	0	29241	27840	156587	26767	1078235	46911	110873	0	0	8080	564341	0	0
2024-08-29 04:50:47			0	37400	0	0	0	29231	27840	156587	26805	1078208	46922	110869	0	0	8079	564656	0	0
2024-08-29 04:51:47			0	37390	0	0	0	29233	27850	156611	27064	1078217	46911	110870	0	0	8079	565018	0	0
2024-08-29 04:52:47			0	37396	0	0	0	29236	27840	156487	26970	1078199	46911	110871	0	0	8079	564814	0	0
2024-08-29 04:53:47			0	37388	0	0	0	29228	27830	156647	26873	1078163	46932	110868	0	0	8079	565162	0	0
2024-08-29 04:54:47			0	37392	0	0	0	29231	27840	156591	27022	1078253	46900	110869	0	0	8079	564972	0	0
2024-08-29 04:55:47			0	37385	0	0	0	29225	27830	156687	27133	1078217	46910	110867	0	0	8079	565280	0	0
2024-08-29 04:56:47			0	37391	0	0	0	29228	27830	156599	26868	1078181	46909	110868	0	0	8079	565044	0	0
2024-08-29 04:57:47			0	37382	0	0	0	29231	27840	156531	26955	1078154	46911	110869	0	0	8078	565366	0	0
2024-08-29 04:58:47			0	37413	0	0	0	29220	27830	156511	26712	1078154	46898	110865	0	0	8080	564177	0	0
2024-08-29 04:59:47			0	37392	0	0	0	29215	27840	156515	26904	1078208	46911	110863	0	0	8079	564972	0	0
2024-08-29 05:00:47			0	37403	0	0	0	29212	27830	156491	26896	1078127	46909	110862	0	0	8080	564571	0	0
2024-08-29 05:01:47			0	37389	0	0	0	29199	27820	156451	26887	1078118	46909	110857	0	0	8079	565155	0	0
2024-08-29 05:02:47			0	37389	0	0	0	29207	27820	156451	26850	1078082	46909	110860	0	0	8079	565155	0	0
2024-08-29 05:03:47			0	37402	0	0	0	29192	27820	156599	27242	1078091	46898	110854	0	0	8080	564643	0	0
2024-08-29 05:04:47			0	37397	0	0	0	29207	27810	156483	27168	1078127	46919	110860	0	0	8079	564872	0	0
2024-08-29 05:05:47			0	37408	0	0	0	29199	27810	156459	27027	1078046	46897	110857	0	0	8080	564439	0	0
2024-08-29 05:06:47			0	37393	0	0	0	29210	27820	156503	27013	1078082	46909	110861	0	0	8079	564997	0	0
2024-08-29 05:07:47			0	37390	0	0	0	29212	27820	156611	26955	1078064	46920	110862	0	0	8079	565116	0	0
2024-08-29 05:08:47			0	37383	0	0	0	29218	27800	156571	26870	1078109	46918	110864	0	0	8078	565457	0	0
2024-08-29 05:09:47			0	37389	0	0	0	29218	27810	156487	26996	1078127	46919	110864	0	0	8079	565188	0	0
2024-08-29 05:10:47			0	37392	0	0	0	29207	27820	156511	26937	1078082	46909	110860	0	0	8079	565037	0	0
2024-08-29 05:11:47			0	37378	0	0	0	29212	27810	156647	26960	1078064	46907	110862	0	0	8078	565621	0	0
2024-08-29 05:12:47			0	37384	0	0	0	29212	27810	156591	26684	1078064	46918	110862	0	0	8079	565385	0	0
2024-08-29 05:13:47			0	37378	0	0	0	29205	27810	156491	26641	1078073	46908	110859	0	0	8078	565621	0	0
2024-08-29 05:14:47			0	37385	0	0	0	29202	27810	156603	26802	1078064	46918	110858	0	0	8079	565345	0	0
2024-08-29 05:15:47			0	37401	0	0	0	29205	27810	156539	26772	1078091	46907	110859	0	0	8080	564715	0	0
2024-08-29 05:16:47			0	37401	0	0	0	29197	27790	156539	26866	1078037	46906	110856	0	0	8080	564780	0	0
2024-08-29 05:17:47			0	37413	0	0	0	29199	27800	156507	26708	1078055	46918	110857	0	0	8080	564275	0	0
2024-08-29 05:18:47			0	37402	0	0	0	29202	27790	156575	27022	1077983	46917	110858	0	0	8080	564740	0	0
2024-08-29 05:19:47			0	37402	0	0	0	29194	27800	156627	27005	1078055	46907	110855	0	0	8080	564708	0	0
2024-08-29 05:20:47			0	37384	0	0	0	29194	27800	156587	27189	1078001	46907	110855	0	0	8079	565417	0	0
2024-08-29 05:21:47			0	37388	0	0	0	29197	27790	156491	26651	1078046	46907	110856	0	0	8079	565292	0	0
2024-08-29 05:22:47			0	37377	0	0	0	29199	27790	156619	26930	1078010	46917	110857	0	0	8078	565726	0	0
2024-08-29 05:23:47			0	37385	0	0	0	29192	27800	156555	27145	1078028	46907	110854	0	0	8079	565378	0	0
2024-08-29 05:24:47			0	37388	0	0	0	29197	27790	156627	26802	1078073	46929	110856	0	0	8079	565292	0	0
2024-08-29 05:25:47			0	37387	0	0	0	29189	27790	156639	27045	1078019	46918	110853	0	0	8079	565332	0	0
2024-08-29 05:26:47			0	37375	0	0	0	29186	27790	156547	26686	1077983	46906	110852	0	0	8078	565805	0	0
2024-08-29 05:27:47			0	37389	0	0	0	29176	27800	156591	27052	1078028	46918	110848	0	0	8079	565220	0	0
2024-08-29 05:28:47			0	37390	0	0	0	29171	27780	156543	27090	1077974	46905	110846	0	0	8079	565246	0	0
2024-08-29 05:29:47			0	37401	0	0	0	29184	27790	156587	26875	1078010	46917	110851	0	0	8080	564780	0	0
2024-08-29 05:30:47			0	37362	0	0	0	29173	27780	156663	26935	1077974	46916	110847	0	0	8078	566350	0	0
2024-08-29 05:31:47			0	37381	0	0	0	29171	27790	156675	27124	1077929	46906	110846	0	0	8079	565568	0	0
2024-08-29 05:32:47			0	37361	0	0	0	29166	27780	156575	27190	1077920	46905	110844	0	0	8078	566390	0	0
2024-08-29 05:33:47			0	37383	0	0	0	29171	27780	156627	27024	1077910	46893	110846	0	0	8079	565522	0	0
2024-08-29 05:34:47			0	37373	0	0	0	29176	27780	156563	27019	1077893	46905	110848	0	0	8078	565916	0	0
2024-08-29 05:35:47			0	37377	0	0	0	29176	27780	156663	26871	1077910	46916	110848	0	0	8079	565759	0	0
2024-08-29 05:36:47			0	37371	0	0	0	29171	27790	156603	26743	1077929	46906	110846	0	0	8078	565963	0	0
2024-08-29 05:37:47			0	37377	0	0	0	29168	27770	156667	26955	1077901	46893	110845	0	0	8079	565791	0	0
2024-08-29 05:38:47			0	37356	0	0	0	29155	27770	156623	26764	1077901	46916	110840	0	0	8078	566620	0	0
2024-08-29 05:39:47			0	37372	0	0	0	29161	27780	156643	26568	1077883	46916	110842	0	0	8079	565956	0	0
2024-08-29 05:40:47			0	37379	0	0	0	29166	27780	156651	27097	1077937	46904	110844	0	0	8079	565680	0	0
2024-08-29 05:41:47			0	37370	0	0	0	29168	27770	156723	27019	1077892	46904	110845	0	0	8078	566067	0	0
2024-08-29 05:42:47			0	37378	0	0	0	29168	27770	156691	26920	1077892	46904	110845	0	0	8079	565752	0	0
2024-08-29 05:43:47			0	37346	0	0	0	29163	27770	156743	26982	1077838	46904	110843	0	0	8077	567015	0	0
2024-08-29 05:44:47			0	37366	0	0	0	29153	27770	156735	26713	1077794	46916	110839	0	0	8078	566225	0	0
2024-08-29 05:45:47			0	37384	0	0	0	29155	27770	156727	27062	1077811	46916	110840	0	0	8079	565515	0	0
2024-08-29 05:46:47			0	37367	0	0	0	29150	27760	156655	26656	1077829	46903	110838	0	0	8078	566218	0	0
2024-08-29 05:47:47			0	37370	0	0	0	29158	27760	156735	27088	1077856	46903	110841	0	0	8078	566100	0	0
2024-08-29 05:48:47			0	37361	0	0	0	29148	27760	156707	27202	1077829	46903	110837	0	0	8078	566455	0	0
2024-08-29 05:49:47			0	37377	0	0	0	29155	27760	156739	26890	1077766	46902	110840	0	0	8079	565824	0	0
2024-08-29 05:50:47			0	37387	0	0	0	29153	27750	156719	26986	1077703	46891	110839	0	0	8079	565462	0	0
2024-08-29 05:51:47			0	37381	0	0	0	29150	27760	156675	27033	1077829	46903	110838	0	0	8079	565666	0	0
2024-08-29 05:52:47			0	37365	0	0	0	29150	27750	156735	26628	1077802	46902	110838	0	0	8078	566330	0	0
2024-08-29 05:53:47			0	37372	0	0	0	29148	27750	156763	26819	1077829	46914	110837	0	0	8079	566054	0	0
2024-08-29 05:54:47			0	37366	0	0	0	29142	27760	156719	26849	1077793	46924	110835	0	0	8078	566258	0	0
2024-08-29 05:55:47			0	37371	0	0	0	29135	27750	156823	27085	1077775	46902	110832	0	0	8079	566093	0	0
2024-08-29 05:56:47			0	37374	0	0	0	29135	27750	156747	26790	1077784	46891	110832	0	0	8079	565975	0	0
2024-08-29 05:57:47			0	37366	0	0	0	29142	27750	156711	26866	1077730	46902	110835	0	0	8078	566290	0	0
2024-08-29 05:58:47			0	37401	0	0	0	29129	27740	156779	26953	1077712	46913	110830	0	0	8081	564943	0	0
2024-08-29 05:59:47			0	37387	0	0	0	29137	27740	156683	26930	1077739	46913	110833	0	0	8080	565494	0	0
2024-08-29 06:00:47			0	37381	0	0	0	29129	27740	156715	26961	1077712	46901	110830	0	0	8079	565731	0	0
2024-08-29 06:01:47			0	37380	0	0	0	29124	27730	156699	27019	1077712	46889	110828	0	0	8079	565803	0	0
2024-08-29 06:02:47			0	37368	0	0	0	29124	27730	156659	27208	1077721	46900	110828	0	0	8079	566277	0	0
2024-08-29 06:03:47			0	37388	0	0	0	29122	27730	156711	27135	1077640	46900	110827	0	0	8080	565488	0	0
2024-08-29 06:04:47			0	37393	0	0	0	29127	27730	156691	27008	1077667	46912	110829	0	0	8080	565290	0	0
2024-08-29 06:05:47			0	37377	0	0	0	29124	27740	156727	27017	1077730	46889	110828	0	0	8079	565889	0	0
2024-08-29 06:06:47			0	37388	0	0	0	29132	27730	156659	27062	1077694	46900	110831	0	0	8080	565488	0	0
2024-08-29 06:07:47			0	37389	0	0	0	29135	27730	156691	27124	1077658	46912	110832	0	0	8080	565448	0	0
2024-08-29 06:08:47			0	37384	0	0	0	29127	27730	156643	27050	1077712	46900	110829	0	0	8080	565645	0	0
2024-08-29 06:09:47			0	37376	0	0	0	29129	27730	156695	26746	1077712	46889	110830	0	0	8079	565961	0	0
2024-08-29 06:10:47			0	37382	0	0	0	29132	27730	156615	26890	1077631	46912	110831	0	0	8079	565724	0	0
2024-08-29 06:11:47			0	37388	0	0	0	29127	27730	156647	27218	1077685	46900	110829	0	0	8080	565488	0	0
2024-08-29 06:12:47			0	37384	0	0	0	29127	27730	156667	27114	1077658	46912	110829	0	0	8080	565645	0	0
2024-08-29 06:13:47			0	37390	0	0	0	29122	27730	156559	26923	1077658	46900	110827	0	0	8080	565409	0	0
2024-08-29 06:14:47			0	37398	0	0	0	29124	27730	156667	26837	1077658	46912	110828	0	0	8080	565093	0	0
2024-08-29 06:15:47			0	37398	0	0	0	29111	27720	156559	27003	1077676	46899	110823	0	0	8081	565126	0	0
2024-08-29 06:16:47			0	37390	0	0	0	29114	27720	156627	27067	1077649	46899	110824	0	0	8080	565441	0	0
2024-08-29 06:17:47			0	37389	0	0	0	29106	27720	156631	27128	1077703	46899	110821	0	0	8080	565481	0	0
2024-08-29 06:18:47			0	37399	0	0	0	29111	27720	156595	26986	1077640	46898	110823	0	0	8081	565087	0	0
2024-08-29 06:19:47			0	37403	0	0	0	29114	27710	156651	27114	1077631	46920	110824	0	0	8081	564961	0	0
2024-08-29 06:20:47			0	37404	0	0	0	29119	27720	156603	27272	1077649	46899	110826	0	0	8081	564889	0	0
2024-08-29 06:21:47			0	37412	0	0	0	29109	27720	156623	26712	1077613	46898	110822	0	0	8082	564574	0	0
2024-08-29 06:22:47			0	37421	0	0	0	29124	27730	156575	27105	1077658	46912	110828	0	0	8082	564187	0	0
2024-08-29 06:23:47			0	37418	0	0	0	29116	27710	156599	26788	1077631	46898	110825	0	0	8082	564370	0	0
2024-08-29 06:24:47			0	37426	0	0	0	29122	27720	156639	27187	1077595	46899	110827	0	0	8082	564023	0	0
2024-08-29 06:25:47			0	37429	0	0	0	29109	27710	156543	27135	1077604	46898	110822	0	0	8082	563937	0	0
2024-08-29 06:26:47			0	37423	0	0	0	29122	27710	156447	27036	1077550	46909	110827	0	0	8082	564173	0	0
2024-08-29 06:27:47			0	37441	0	0	0	29109	27720	156555	26986	1077613	46909	110822	0	0	8083	563432	0	0
2024-08-29 06:28:47			0	37431	0	0	0	29103	27710	156487	26878	1077631	46920	110820	0	0	8083	563858	0	0
2024-08-29 06:29:47			0	37442	0	0	0	29106	27710	156495	27281	1077595	46897	110821	0	0	8083	563426	0	0
2024-08-29 06:30:47			0	37447	0	0	0	29116	27710	156435	26965	1077595	46908	110825	0	0	8083	563229	0	0
2024-08-29 06:31:47			0	37449	0	0	0	29103	27710	156467	27055	1077595	46897	110820	0	0	8084	563150	0	0
2024-08-29 06:32:47			0	37447	0	0	0	29101	27710	156423	27007	1077514	46908	110819	0	0	8084	563229	0	0
2024-08-29 06:33:47			0	37448	0	0	0	29106	27710	156475	26835	1077514	46897	110821	0	0	8084	563189	0	0
2024-08-29 06:34:47			0	37458	0	0	0	29098	27700	156599	27090	1077496	46907	110818	0	0	8084	562829	0	0
2024-08-29 06:35:47			0	37448	0	0	0	29101	27700	156559	26963	1077577	46896	110819	0	0	8084	563222	0	0
2024-08-29 06:36:47			0	37457	0	0	0	29098	27700	156583	26889	1077577	46907	110818	0	0	8084	562868	0	0
2024-08-29 06:37:47			0	37455	0	0	0	29093	27700	156647	27128	1077550	46896	110816	0	0	8084	562947	0	0
2024-08-29 06:38:47			0	37458	0	0	0	29096	27700	156591	26838	1077550	46907	110817	0	0	8084	562829	0	0
2024-08-29 06:39:47			0	37462	0	0	0	29098	27700	156451	26904	1077532	46908	110818	0	0	8085	562671	0	0
2024-08-29 06:40:47			0	37463	0	0	0	29098	27700	156623	27220	1077469	46896	110818	0	0	8085	562632	0	0
2024-08-29 06:41:47			0	37471	0	0	0	29098	27690	156611	26899	1077568	46907	110818	0	0	8085	562350	0	0
2024-08-29 06:42:47			0	37435	0	0	0	29093	27700	156491	26819	1077550	46907	110816	0	0	8083	563733	0	0
2024-08-29 06:43:47			0	37474	0	0	0	29088	27700	156507	27093	1077550	46907	110814	0	0	8085	562200	0	0
2024-08-29 06:44:47			0	37475	0	0	0	29093	27700	156583	27031	1077505	46908	110816	0	0	8085	562161	0	0
2024-08-29 06:45:47			0	37480	0	0	0	29090	27690	156539	26762	1077532	46895	110815	0	0	8086	561997	0	0
2024-08-29 06:46:47			0	37485	0	0	0	29090	27690	156479	26844	1077541	46907	110815	0	0	8086	561800	0	0
2024-08-29 06:47:47			0	37449	0	0	0	29088	27690	156515	26963	1077505	46907	110814	0	0	8084	563215	0	0
2024-08-29 06:48:47			0	37471	0	0	0	29080	27690	156511	26883	1077460	46895	110811	0	0	8085	562350	0	0
2024-08-29 06:49:47			0	37488	0	0	0	29077	27700	156551	27275	1077532	46908	110810	0	0	8086	561650	0	0
2024-08-29 06:50:47			0	37474	0	0	0	29085	27690	156539	26922	1077487	46907	110813	0	0	8085	562232	0	0
2024-08-29 06:51:47			0	37493	0	0	0	29077	27690	156491	26842	1077451	46895	110810	0	0	8087	561486	0	0
2024-08-29 06:52:47			0	37490	0	0	0	29080	27690	156491	27251	1077406	46907	110811	0	0	8086	561604	0	0
2024-08-29 06:53:47			0	37481	0	0	0	29070	27690	156395	26986	1077451	46907	110807	0	0	8086	561957	0	0
2024-08-29 06:54:47			0	37470	0	0	0	29075	27680	156491	27147	1077433	46894	110809	0	0	8085	562422	0	0
2024-08-29 06:55:47			0	37483	0	0	0	29072	27680	156527	27365	1077406	46894	110808	0	0	8086	561911	0	0
2024-08-29 06:56:47			0	37470	0	0	0	29067	27680	156383	27121	1077442	46907	110806	0	0	8085	562422	0	0
2024-08-29 06:57:47			0	37488	0	0	0	29070	27670	156495	27164	1077388	46893	110807	0	0	8086	561747	0	0
2024-08-29 06:58:47			0	37498	0	0	0	29072	27670	156387	26897	1077424	46904	110808	0	0	8087	561354	0	0
2024-08-29 06:59:47			0	37478	0	0	0	29072	27670	156391	26974	1077397	46893	110808	0	0	8086	562140	0	0
2024-08-29 07:00:47			0	37481	0	0	0	29077	27670	156439	27149	1077424	46916	110810	0	0	8086	562022	0	0
2024-08-29 07:01:47			0	37471	0	0	0	29064	27670	156527	27045	1077415	46904	110805	0	0	8085	562415	0	0
2024-08-29 07:02:47			0	37465	0	0	0	29070	27670	156447	26830	1077316	46904	110807	0	0	8085	562651	0	0
2024-08-29 07:03:47			0	37462	0	0	0	29075	27680	156515	27154	1077379	46894	110809	0	0	8085	562736	0	0
2024-08-29 07:04:47			0	37463	0	0	0	29077	27680	156575	26713	1077460	46906	110810	0	0	8085	562697	0	0
2024-08-29 07:05:47			0	37468	0	0	0	29067	27670	156555	26828	1077370	46904	110806	0	0	8085	562533	0	0
2024-08-29 07:06:47			0	37454	0	0	0	29067	27670	156595	26868	1077361	46916	110806	0	0	8084	563083	0	0
2024-08-29 07:07:47			0	37456	0	0	0	29072	27680	156619	27020	1077361	46895	110808	0	0	8085	562972	0	0
2024-08-29 07:08:47			0	37437	0	0	0	29075	27680	156591	27059	1077379	46894	110809	0	0	8083	563720	0	0
2024-08-29 07:09:47			0	37453	0	0	0	29072	27670	156571	26965	1077442	46904	110808	0	0	8084	563123	0	0
2024-08-29 07:10:47			0	37482	0	0	0	29072	27670	156567	27098	1077361	46893	110808	0	0	8086	561983	0	0
2024-08-29 07:11:47			0	37465	0	0	0	29075	27670	156599	26932	1077424	46882	110809	0	0	8085	562651	0	0
2024-08-29 07:12:47			0	37459	0	0	0	29067	27670	156535	26816	1077424	46893	110806	0	0	8085	562887	0	0
2024-08-29 07:13:47			0	37457	0	0	0	29075	27670	156551	26972	1077361	46904	110809	0	0	8084	562965	0	0
2024-08-29 07:14:47			0	37464	0	0	0	29067	27670	156571	27100	1077397	46904	110806	0	0	8085	562690	0	0
2024-08-29 07:15:47			0	37465	0	0	0	29070	27670	156419	26915	1077343	46904	110807	0	0	8085	562651	0	0
2024-08-29 07:16:47			0	37448	0	0	0	29062	27670	156459	27039	1077397	46904	110804	0	0	8084	563319	0	0
2024-08-29 07:17:47			0	37444	0	0	0	29062	27670	156559	27223	1077388	46916	110804	0	0	8084	563477	0	0
2024-08-29 07:18:47			0	37452	0	0	0	29064	27670	156475	27119	1077388	46893	110805	0	0	8084	563162	0	0
2024-08-29 07:19:47			0	37460	0	0	0	29064	27670	156503	27171	1077424	46893	110805	0	0	8085	562847	0	0
2024-08-29 07:20:47			0	37439	0	0	0	29064	27670	156555	26838	1077316	46904	110805	0	0	8084	563673	0	0
2024-08-29 07:21:47			0	37441	0	0	0	29064	27670	156447	27260	1077361	46893	110805	0	0	8084	563595	0	0
2024-08-29 07:22:47			0	37441	0	0	0	29064	27660	156515	26844	1077325	46893	110805	0	0	8084	563627	0	0
2024-08-29 07:23:47			0	37450	0	0	0	29067	27660	156555	26993	1077325	46904	110806	0	0	8084	563273	0	0
2024-08-29 07:24:47			0	37448	0	0	0	29062	27670	156547	27029	1077343	46893	110804	0	0	8084	563319	0	0
2024-08-29 07:25:47			0	37447	0	0	0	29054	27670	156515	27013	1077334	46893	110801	0	0	8084	563359	0	0
2024-08-29 07:26:47			0	37450	0	0	0	29067	27670	156495	26955	1077361	46904	110806	0	0	8084	563241	0	0
2024-08-29 07:27:47			0	37437	0	0	0	29059	27660	156607	27296	1077379	46893	110803	0	0	8084	563785	0	0
2024-08-29 07:28:47			0	37451	0	0	0	29057	27670	156607	26939	1077334	46871	110802	0	0	8084	563201	0	0
2024-08-29 07:29:47			0	37424	0	0	0	29062	27670	156599	26790	1077334	46904	110804	0	0	8083	564264	0	0
2024-08-29 07:30:47			0	37427	0	0	0	29064	27660	156703	26894	1077406	46904	110805	0	0	8083	564178	0	0
2024-08-29 07:31:47			0	37411	0	0	0	29072	27660	156627	26897	1077379	46893	110808	0	0	8082	564809	0	0
2024-08-29 07:32:47			0	37410	0	0	0	29077	27660	156683	26783	1077352	46926	110810	0	0	8082	564848	0	0
2024-08-29 07:33:47			0	37416	0	0	0	29080	27670	156671	26977	1077442	46916	110811	0	0	8082	564579	0	0
2024-08-29 07:34:47			0	37388	0	0	0	29080	27670	156771	26880	1077397	46916	110811	0	0	8080	565683	0	0
2024-08-29 07:35:47			0	37381	0	0	0	29080	27670	156779	27039	1077361	46904	110811	0	0	8080	565959	0	0
2024-08-29 07:36:47			0	37395	0	0	0	29075	27680	156787	27005	1077406	46894	110809	0	0	8081	565374	0	0
2024-08-29 07:37:47			0	37373	0	0	0	29072	27670	156851	26733	1077442	46893	110808	0	0	8080	566275	0	0
2024-08-29 07:38:47			0	37362	0	0	0	29072	27670	156847	27109	1077343	46904	110808	0	0	8079	566709	0	0
2024-08-29 07:39:47			0	37366	0	0	0	29072	27660	156883	27163	1077379	46926	110808	0	0	8079	566584	0	0
2024-08-29 07:40:47			0	37378	0	0	0	29072	27670	156871	27105	1077334	46904	110808	0	0	8080	566078	0	0
2024-08-29 07:41:47			0	37367	0	0	0	29064	27670	156899	27182	1077334	46904	110805	0	0	8079	566512	0	0
2024-08-29 07:42:47			0	37355	0	0	0	29059	27660	156803	27076	1077289	46903	110803	0	0	8079	567019	0	0
2024-08-29 07:43:47			0	37377	0	0	0	29064	27670	156815	27203	1077361	46904	110805	0	0	8080	566117	0	0
2024-08-29 07:44:47			0	37352	0	0	0	29067	27670	156875	27036	1077343	46926	110806	0	0	8078	567104	0	0
2024-08-29 07:45:47			0	37353	0	0	0	29070	27670	156895	26819	1077361	46904	110807	0	0	8078	567065	0	0
2024-08-29 07:46:47			0	37357	0	0	0	29075	27660	156959	27248	1077379	46904	110809	0	0	8079	566940	0	0
2024-08-29 07:47:47			0	37344	0	0	0	29077	27670	156971	27069	1077334	46904	110810	0	0	8078	567421	0	0
2024-08-29 07:48:47			0	37347	0	0	0	29077	27670	156999	27246	1077442	46916	110810	0	0	8078	567302	0	0
2024-08-29 07:49:47			0	37331	0	0	0	29080	27670	157091	27192	1077388	46904	110811	0	0	8077	567935	0	0
2024-08-29 07:50:47			0	37313	0	0	0	29077	27670	156994	27019	1077415	46916	110810	0	0	8076	568647	0	0
2024-08-29 07:51:47			0	37327	0	0	0	29088	27680	157091	26844	1077433	46883	110814	0	0	8077	568060	0	0
2024-08-29 07:52:47			0	37307	0	0	0	29088	27680	157082	26913	1077460	46906	110814	0	0	8076	568852	0	0
2024-08-29 07:53:47			0	37307	0	0	0	29085	27680	157098	27093	1077487	46916	110813	0	0	8076	568852	0	0
2024-08-29 07:54:47			0	37302	0	0	0	29096	27680	157038	27298	1077460	46916	110817	0	0	8075	569050	0	0
2024-08-29 07:55:47			0	37306	0	0	0	29090	27680	157222	27329	1077469	46907	110815	0	0	8075	568891	0	0
2024-08-29 07:56:47			0	37302	0	0	0	29093	27670	157126	26942	1077424	46882	110816	0	0	8075	569082	0	0
2024-08-29 07:57:47			0	37299	0	0	0	29088	27680	157122	26920	1077460	46906	110814	0	0	8075	569168	0	0
2024-08-29 07:58:47			0	37298	0	0	0	29090	27680	157170	26889	1077514	46916	110815	0	0	8075	569208	0	0
2024-08-29 07:59:47			0	37286	0	0	0	29088	27670	157126	27024	1077451	46893	110814	0	0	8074	569716	0	0
2024-08-29 08:00:47			0	37292	0	0	0	29085	27690	157182	27107	1077433	46917	110813	0	0	8075	569413	0	0
2024-08-29 08:01:47			0	37284	0	0	0	29090	27690	157090	26937	1077451	46907	110815	0	0	8074	569730	0	0
2024-08-29 08:02:47			0	37289	0	0	0	29083	27680	157250	26965	1077460	46894	110812	0	0	8075	569565	0	0
2024-08-29 08:03:47			0	37281	0	0	0	29098	27680	157118	27166	1077379	46906	110818	0	0	8074	569882	0	0
2024-08-29 08:04:47			0	37285	0	0	0	29098	27680	157182	27189	1077496	46895	110818	0	0	8074	569723	0	0
2024-08-29 08:05:47			0	37280	0	0	0	29093	27680	157238	27013	1077460	46916	110816	0	0	8074	569921	0	0
2024-08-29 08:06:47			0	37295	0	0	0	29088	27690	157042	27447	1077532	46907	110814	0	0	8075	569294	0	0
2024-08-29 08:07:47			0	37294	0	0	0	29096	27690	157182	27166	1077532	46907	110817	0	0	8075	569334	0	0
2024-08-29 08:08:47			0	37285	0	0	0	29098	27690	157162	27133	1077532	46895	110818	0	0	8074	569690	0	0
2024-08-29 08:09:47			0	37282	0	0	0	29088	27690	157182	27012	1077478	46917	110814	0	0	8074	569809	0	0
2024-08-29 08:10:47			0	37274	0	0	0	29096	27690	157154	27163	1077460	46895	110817	0	0	8074	570126	0	0
2024-08-29 08:11:47			0	37290	0	0	0	29085	27680	157198	27263	1077469	46895	110813	0	0	8075	569525	0	0
2024-08-29 08:12:47			0	37278	0	0	0	29085	27680	157162	27131	1077415	46917	110813	0	0	8074	570001	0	0
2024-08-29 08:13:47			0	37294	0	0	0	29083	27680	157162	26887	1077514	46906	110812	0	0	8075	569367	0	0
2024-08-29 08:14:47			0	37282	0	0	0	29085	27690	157090	27244	1077541	46907	110813	0	0	8074	569809	0	0
2024-08-29 08:15:47			0	37293	0	0	0	29083	27680	157118	27192	1077469	46907	110812	0	0	8075	569406	0	0
2024-08-29 08:16:47			0	37276	0	0	0	29088	27670	157046	27138	1077451	46893	110814	0	0	8074	570113	0	0
2024-08-29 08:17:47			0	37291	0	0	0	29083	27680	157118	27029	1077460	46906	110812	0	0	8075	569485	0	0
2024-08-29 08:18:47			0	37293	0	0	0	29083	27680	157110	27185	1077442	46895	110812	0	0	8075	569406	0	0
2024-08-29 08:19:47			0	37289	0	0	0	29077	27690	157166	27234	1077505	46907	110810	0	0	8075	569532	0	0
2024-08-29 08:20:47			0	37292	0	0	0	29077	27680	157174	27222	1077487	46906	110810	0	0	8075	569446	0	0
2024-08-29 08:21:47			0	37295	0	0	0	29083	27680	157206	27201	1077469	46895	110812	0	0	8075	569327	0	0
2024-08-29 08:22:47			0	37278	0	0	0	29075	27680	157206	27102	1077523	46907	110809	0	0	8074	570001	0	0
2024-08-29 08:23:47			0	37279	0	0	0	29083	27680	157190	27317	1077496	46895	110812	0	0	8074	569961	0	0
2024-08-29 08:24:47			0	37288	0	0	0	29075	27690	157222	27015	1077532	46907	110809	0	0	8075	569571	0	0
2024-08-29 08:25:47			0	37291	0	0	0	29075	27680	157162	27026	1077496	46907	110809	0	0	8075	569485	0	0
2024-08-29 08:26:47			0	37290	0	0	0	29077	27670	157214	27196	1077451	46904	110810	0	0	8075	569558	0	0
2024-08-29 08:27:47			0	37284	0	0	0	29077	27680	157182	27348	1077433	46894	110810	0	0	8074	569763	0	0
2024-08-29 08:28:47			0	37274	0	0	0	29077	27680	157306	26981	1077433	46883	110810	0	0	8074	570159	0	0
2024-08-29 08:29:47			0	37243	0	0	0	29075	27680	157342	27206	1077514	46894	110809	0	0	8072	571389	0	0
2024-08-29 08:30:47			0	37274	0	0	0	29075	27680	157370	26986	1077415	46907	110809	0	0	8074	570159	0	0
2024-08-29 08:31:47			0	37271	0	0	0	29072	27680	157262	27232	1077460	46916	110808	0	0	8074	570278	0	0
2024-08-29 08:32:47			0	37259	0	0	0	29072	27670	157374	27338	1077451	46916	110808	0	0	8073	570787	0	0
2024-08-29 08:33:47			0	37281	0	0	0	29075	27670	157270	27441	1077424	46904	110809	0	0	8074	569915	0	0
2024-08-29 08:34:47			0	37285	0	0	0	29085	27680	157254	27100	1077487	46927	110813	0	0	8074	569723	0	0
2024-08-29 08:35:47			0	37278	0	0	0	29090	27680	157234	27135	1077469	46917	110815	0	0	8074	570001	0	0
2024-08-29 08:36:47			0	37267	0	0	0	29098	27690	157182	27388	1077451	46907	110818	0	0	8073	570404	0	0
2024-08-29 08:37:47			0	37280	0	0	0	29098	27680	157206	27109	1077550	46907	110818	0	0	8074	569921	0	0
2024-08-29 08:38:47			0	37283	0	0	0	29101	27680	157222	27293	1077523	46917	110819	0	0	8074	569802	0	0
2024-08-29 08:39:47			0	37278	0	0	0	29106	27680	157090	27208	1077460	46894	110821	0	0	8074	570001	0	0
2024-08-29 08:40:47			0	37289	0	0	0	29106	27690	157058	27426	1077559	46907	110821	0	0	8074	569532	0	0
2024-08-29 08:41:47			0	37296	0	0	0	29093	27700	157218	27031	1077577	46929	110816	0	0	8075	569222	0	0
2024-08-29 08:42:47			0	37298	0	0	0	29103	27700	157054	26767	1077550	46907	110820	0	0	8075	569142	0	0
2024-08-29 08:43:47			0	37313	0	0	0	29109	27700	157171	27239	1077577	46907	110822	0	0	8076	568549	0	0
2024-08-29 08:44:47			0	37288	0	0	0	29103	27700	157190	27201	1077577	46896	110820	0	0	8074	569539	0	0
2024-08-29 08:45:47			0	37300	0	0	0	29103	27690	157134	26852	1077622	46907	110820	0	0	8075	569096	0	0
2024-08-29 08:46:47			0	37316	0	0	0	29109	27690	157215	27112	1077568	46907	110822	0	0	8076	568463	0	0
2024-08-29 08:47:47			0	37324	0	0	0	29114	27700	156999	27341	1077577	46907	110824	0	0	8076	568113	0	0
2024-08-29 08:48:47			0	37338	0	0	0	29119	27700	156955	27627	1077631	46918	110826	0	0	8077	567560	0	0
2024-08-29 08:49:47			0	37356	0	0	0	29119	27700	156903	27383	1077631	46907	110826	0	0	8078	566848	0	0
2024-08-29 08:50:47			0	37370	0	0	0	29122	27710	156911	27284	1077622	46919	110827	0	0	8079	566263	0	0
2024-08-29 08:51:47			0	37397	0	0	0	29119	27700	156827	26937	1077640	46908	110826	0	0	8080	565230	0	0
2024-08-29 08:52:47			0	37412	0	0	0	29127	27700	156675	27121	1077667	46908	110829	0	0	8081	564639	0	0
2024-08-29 08:53:47			0	37397	0	0	0	29127	27720	156719	27322	1077694	46920	110829	0	0	8080	565165	0	0
2024-08-29 08:54:47			0	37398	0	0	0	29129	27710	156719	27403	1077649	46908	110830	0	0	8080	565159	0	0
2024-08-29 08:55:47			0	37422	0	0	0	29129	27710	156639	27138	1077685	46909	110830	0	0	8082	564213	0	0
2024-08-29 08:56:47			0	37431	0	0	0	29119	27710	156563	27201	1077685	46909	110826	0	0	8082	563858	0	0
2024-08-29 08:57:47			0	37435	0	0	0	29129	27710	156523	27017	1077712	46920	110830	0	0	8082	563701	0	0
2024-08-29 08:58:47			0	37452	0	0	0	29132	27720	156531	27310	1077694	46920	110831	0	0	8083	563000	0	0
2024-08-29 08:59:47			0	37454	0	0	0	29129	27730	156379	27057	1077712	46922	110830	0	0	8084	562889	0	0
2024-08-29 09:00:47			0	37455	0	0	0	29135	27720	156443	27123	1077703	46921	110832	0	0	8084	562882	0	0
2024-08-29 09:01:47			0	37458	0	0	0	29127	27720	156423	27287	1077757	46899	110829	0	0	8084	562764	0	0
2024-08-29 09:02:47			0	37459	0	0	0	29129	27720	156443	26965	1077757	46899	110830	0	0	8084	562725	0	0
2024-08-29 09:03:47			0	37472	0	0	0	29132	27720	156343	27216	1077730	46911	110831	0	0	8085	562214	0	0
2024-08-29 09:04:47			0	37470	0	0	0	29132	27710	156311	26875	1077631	46898	110831	0	0	8084	562325	0	0
2024-08-29 09:05:47			0	37491	0	0	0	29142	27730	156347	27152	1077685	46922	110835	0	0	8086	561435	0	0
2024-08-29 09:06:47			0	37495	0	0	0	29135	27720	156263	27107	1077775	46920	110832	0	0	8086	561311	0	0
2024-08-29 09:07:47			0	37498	0	0	0	29132	27720	156175	27150	1077730	46921	110831	0	0	8086	561193	0	0
2024-08-29 09:08:47			0	37536	0	0	0	29145	27730	156147	26899	1077685	46912	110836	0	0	8088	559671	0	0
2024-08-29 09:09:47			0	37516	0	0	0	29137	27730	156155	27150	1077721	46912	110833	0	0	8087	560455	0	0
2024-08-29 09:10:47			0	37539	0	0	0	29140	27730	156039	26885	1077739	46912	110834	0	0	8088	559553	0	0
2024-08-29 09:11:47			0	37555	0	0	0	29145	27730	155999	27045	1077802	46889	110836	0	0	8089	558927	0	0
2024-08-29 09:12:47			0	37547	0	0	0	29142	27720	155999	26956	1077694	46898	110835	0	0	8089	559272	0	0
2024-08-29 09:13:47			0	37554	0	0	0	29150	27730	155983	27086	1077775	46912	110838	0	0	8089	558966	0	0
2024-08-29 09:14:47			0	37563	0	0	0	29142	27740	155943	26967	1077838	46912	110835	0	0	8090	558582	0	0
2024-08-29 09:15:47			0	37567	0	0	0	29153	27740	155823	27149	1077757	46912	110839	0	0	8090	558425	0	0
2024-08-29 09:16:47			0	37566	0	0	0	29155	27740	156015	27232	1077784	46922	110840	0	0	8090	558464	0	0
2024-08-29 09:17:47			0	37545	0	0	0	29150	27740	155955	26908	1077766	46913	110838	0	0	8089	559286	0	0
2024-08-29 09:18:47			0	37556	0	0	0	29153	27740	155967	27422	1077793	46923	110839	0	0	8089	558855	0	0
2024-08-29 09:19:47			0	37558	0	0	0	29153	27750	156003	27147	1077802	46914	110839	0	0	8089	558745	0	0
2024-08-29 09:20:47			0	37560	0	0	0	29163	27740	155975	27142	1077811	46912	110843	0	0	8089	558699	0	0
2024-08-29 09:21:47			0	37548	0	0	0	29163	27740	156023	27218	1077838	46912	110843	0	0	8089	559169	0	0
2024-08-29 09:22:47			0	37538	0	0	0	29163	27750	155919	27163	1077856	46914	110843	0	0	8088	559528	0	0
2024-08-29 09:23:47			0	37578	0	0	0	29153	27750	155983	27034	1077856	46902	110839	0	0	8091	557963	0	0
2024-08-29 09:24:47			0	37567	0	0	0	29153	27750	156035	26979	1077883	46902	110839	0	0	8090	558393	0	0
2024-08-29 09:25:47			0	37570	0	0	0	29158	27750	155959	26807	1077865	46914	110841	0	0	8090	558276	0	0
2024-08-29 09:26:47			0	37570	0	0	0	29161	27750	155891	27121	1077964	46924	110842	0	0	8090	558276	0	0
2024-08-29 09:27:47			0	37591	0	0	0	29163	27750	155907	27048	1077883	46914	110843	0	0	8091	557455	0	0
2024-08-29 09:28:47			0	37580	0	0	0	29168	27750	155903	27345	1077838	46902	110845	0	0	8090	557885	0	0
2024-08-29 09:29:47			0	37579	0	0	0	29168	27750	155911	27071	1077883	46914	110845	0	0	8090	557924	0	0
2024-08-29 09:30:47			0	37593	0	0	0	29171	27750	155907	27086	1077910	46914	110846	0	0	8091	557377	0	0
2024-08-29 09:31:47			0	37595	0	0	0	29166	27750	155903	27124	1077865	46914	110844	0	0	8091	557298	0	0
2024-08-29 09:32:47			0	37594	0	0	0	29166	27750	155851	27282	1077865	46914	110844	0	0	8091	557337	0	0
2024-08-29 09:33:47			0	37616	0	0	0	29176	27760	155795	26961	1077928	46924	110848	0	0	8092	556446	0	0
2024-08-29 09:34:47			0	37575	0	0	0	29176	27760	155815	26779	1077928	46935	110848	0	0	8090	558048	0	0
2024-08-29 09:35:47			0	37595	0	0	0	29184	27750	155719	27228	1077910	46914	110851	0	0	8091	557298	0	0
2024-08-29 09:36:47			0	37601	0	0	0	29179	27770	155831	27029	1077973	46937	110849	0	0	8092	557000	0	0
2024-08-29 09:37:47			0	37600	0	0	0	29179	27750	155807	26885	1077964	46924	110849	0	0	8091	557103	0	0
2024-08-29 09:38:47			0	37622	0	0	0	29192	27760	155799	26922	1077937	46925	110854	0	0	8092	556212	0	0
2024-08-29 09:39:47			0	37617	0	0	0	29199	27770	155735	27267	1077973	46926	110857	0	0	8092	556375	0	0
2024-08-29 09:40:47			0	37609	0	0	0	29194	27770	155707	27105	1078000	46926	110855	0	0	8092	556688	0	0
2024-08-29 09:41:47			0	37609	0	0	0	29192	27770	155715	27192	1078036	46904	110854	0	0	8092	556688	0	0
2024-08-29 09:42:47			0	37630	0	0	0	29186	27770	155691	27107	1077946	46937	110852	0	0	8093	555868	0	0
2024-08-29 09:43:47			0	37636	0	0	0	29192	27780	155759	26987	1078072	46904	110854	0	0	8093	555602	0	0
2024-08-29 09:44:47			0	37627	0	0	0	29186	27770	155707	27031	1078009	46904	110852	0	0	8093	555985	0	0
2024-08-29 09:45:47			0	37625	0	0	0	29194	27770	155663	27352	1078009	46916	110855	0	0	8093	556063	0	0
2024-08-29 09:46:47			0	37643	0	0	0	29202	27780	155663	27121	1078018	46926	110858	0	0	8094	555330	0	0
2024-08-29 09:47:47			0	37636	0	0	0	29205	27770	155571	27102	1078036	46916	110859	0	0	8093	555634	0	0
2024-08-29 09:48:47			0	37633	0	0	0	29207	27780	155651	27109	1078054	46916	110860	0	0	8093	555719	0	0
2024-08-29 09:49:47			0	37643	0	0	0	29205	27770	155639	27253	1078036	46937	110859	0	0	8094	555362	0	0
2024-08-29 09:50:47			0	37639	0	0	0	29212	27790	155503	27329	1078090	46928	110862	0	0	8093	555454	0	0
2024-08-29 09:51:47			0	37656	0	0	0	29207	27780	155571	27322	1078108	46905	110860	0	0	8094	554823	0	0
2024-08-29 09:52:47			0	37651	0	0	0	29212	27790	155695	27230	1078144	46939	110862	0	0	8094	554986	0	0
2024-08-29 09:53:47			0	37650	0	0	0	29223	27790	155575	27315	1078099	46940	110866	0	0	8094	555025	0	0
2024-08-29 09:54:47			0	37650	0	0	0	29218	27800	155551	26883	1078109	46940	110864	0	0	8094	554993	0	0
2024-08-29 09:55:47			0	37637	0	0	0	29220	27810	155587	27196	1078171	46929	110865	0	0	8093	555467	0	0
2024-08-29 09:56:47			0	37653	0	0	0	29231	27800	155547	27118	1078162	46907	110869	0	0	8094	554876	0	0
2024-08-29 09:57:47			0	37642	0	0	0	29228	27810	155567	27131	1078118	46940	110868	0	0	8093	555273	0	0
2024-08-29 09:58:47			0	37652	0	0	0	29238	27810	155503	27130	1078234	46941	110872	0	0	8094	554883	0	0
2024-08-29 09:59:47			0	37658	0	0	0	29225	27810	155543	27052	1078171	46918	110867	0	0	8094	554649	0	0
2024-08-29 10:00:47			0	37650	0	0	0	29223	27810	155595	26998	1078198	46907	110866	0	0	8094	554961	0	0
2024-08-29 10:01:47			0	37647	0	0	0	29231	27810	155595	27246	1078181	46919	110869	0	0	8094	555078	0	0
2024-08-29 10:02:47			0	37662	0	0	0	29223	27820	155663	26949	1078226	46920	110866	0	0	8095	554462	0	0
2024-08-29 10:03:47			0	37640	0	0	0	29228	27820	155575	26984	1078216	46920	110868	0	0	8093	555319	0	0
2024-08-29 10:04:47			0	37644	0	0	0	29231	27810	155635	27020	1078234	46908	110869	0	0	8093	555195	0	0
2024-08-29 10:05:47			0	37658	0	0	0	29231	27820	155675	26774	1078253	46931	110869	0	0	8094	554617	0	0
2024-08-29 10:06:47			0	37656	0	0	0	29236	27820	155531	26759	1078226	46931	110871	0	0	8094	554695	0	0
2024-08-29 10:07:47			0	37652	0	0	0	29241	27820	155599	26793	1078253	46931	110873	0	0	8094	554851	0	0
2024-08-29 10:08:47			0	37633	0	0	0	29238	27830	155691	27012	1078325	46921	110872	0	0	8093	555559	0	0
2024-08-29 10:09:47			0	37653	0	0	0	29244	27830	155643	26958	1078298	46943	110874	0	0	8094	554780	0	0
2024-08-29 10:10:47			0	37630	0	0	0	29244	27830	155619	27060	1078288	46920	110874	0	0	8092	555676	0	0
2024-08-29 10:11:47			0	37629	0	0	0	29254	27830	155547	27015	1078315	46909	110878	0	0	8092	555715	0	0
2024-08-29 10:12:47			0	37636	0	0	0	29259	27830	155575	26984	1078342	46931	110880	0	0	8092	555442	0	0
2024-08-29 10:13:47			0	37645	0	0	0	29257	27830	155523	27123	1078315	46920	110879	0	0	8093	555092	0	0
2024-08-29 10:14:47			0	37642	0	0	0	29259	27850	155603	27239	1078325	46922	110880	0	0	8093	555145	0	0
2024-08-29 10:15:47			0	37661	0	0	0	29254	27840	155483	27319	1078370	46911	110878	0	0	8094	554437	0	0
2024-08-29 10:16:47			0	37641	0	0	0	29259	27850	155611	27079	1078379	46922	110880	0	0	8093	555184	0	0
2024-08-29 10:17:47			0	37645	0	0	0	29264	27840	155519	27300	1078396	46933	110882	0	0	8093	555060	0	0
2024-08-29 10:18:47			0	37644	0	0	0	29259	27850	155491	27022	1078406	46922	110880	0	0	8093	555067	0	0
2024-08-29 10:19:47			0	37670	0	0	0	29257	27850	155499	27024	1078433	46922	110879	0	0	8095	554055	0	0
2024-08-29 10:20:47			0	37650	0	0	0	29267	27850	155431	27144	1078352	46922	110883	0	0	8093	554833	0	0
2024-08-29 10:21:47			0	37666	0	0	0	29275	27840	155519	27053	1078396	46933	110886	0	0	8094	554242	0	0
2024-08-29 10:22:47			0	37653	0	0	0	29267	27850	155439	27166	1078433	46944	110883	0	0	8093	554716	0	0
2024-08-29 10:23:47			0	37660	0	0	0	29272	27850	155471	27142	1078388	46934	110885	0	0	8094	554444	0	0
2024-08-29 10:24:47			0	37669	0	0	0	29272	27850	155543	26785	1078442	46945	110885	0	0	8094	554093	0	0
2024-08-29 10:25:47			0	37678	0	0	0	29272	27850	155447	27135	1078468	46934	110885	0	0	8095	553743	0	0
2024-08-29 10:26:47			0	37657	0	0	0	29272	27850	155475	26922	1078433	46933	110885	0	0	8094	554560	0	0
2024-08-29 10:27:47			0	37671	0	0	0	29285	27860	155531	26935	1078433	46914	110890	0	0	8094	553984	0	0
2024-08-29 10:28:47			0	37677	0	0	0	29288	27860	155431	27320	1078460	46914	110891	0	0	8095	553750	0	0
2024-08-29 10:29:47			0	37660	0	0	0	29275	27860	155475	26845	1078460	46947	110886	0	0	8094	554412	0	0
2024-08-29 10:30:47			0	37658	0	0	0	29280	27860	155451	27209	1078460	46936	110888	0	0	8094	554490	0	0
2024-08-29 10:31:47			0	37670	0	0	0	29285	27860	155431	27121	1078487	46925	110890	0	0	8094	554023	0	0
2024-08-29 10:32:47			0	37678	0	0	0	29293	27860	155399	27107	1078514	46947	110893	0	0	8094	553711	0	0
2024-08-29 10:33:47			0	37670	0	0	0	29288	27870	155443	27072	1078523	46914	110891	0	0	8094	553991	0	0
2024-08-29 10:34:47			0	37696	0	0	0	29290	27870	155379	27175	1078559	46947	110892	0	0	8096	552980	0	0
2024-08-29 10:35:47			0	37685	0	0	0	29293	27870	155467	27067	1078478	46925	110893	0	0	8095	553407	0	0
2024-08-29 10:36:47			0	37680	0	0	0	29296	27880	155451	27177	1078622	46926	110894	0	0	8095	553570	0	0
2024-08-29 10:37:47			0	37685	0	0	0	29301	27890	155407	27074	1078586	46927	110896	0	0	8095	553343	0	0
2024-08-29 10:38:47			0	37673	0	0	0	29298	27880	155415	27072	1078568	46926	110895	0	0	8094	553842	0	0
2024-08-29 10:39:47			0	37667	0	0	0	29298	27880	155371	26811	1078487	46937	110895	0	0	8094	554075	0	0
2024-08-29 10:40:47			0	37680	0	0	0	29309	27880	155375	27086	1078631	46916	110899	0	0	8094	553570	0	0
2024-08-29 10:41:47			0	37677	0	0	0	29301	27880	155347	27126	1078604	46938	110896	0	0	8094	553687	0	0
2024-08-29 10:42:47			0	37684	0	0	0	29311	27890	155355	26920	1078613	46949	110900	0	0	8095	553382	0	0
2024-08-29 10:43:47			0	37677	0	0	0	29316	27890	155387	27052	1078622	46927	110902	0	0	8094	553655	0	0
2024-08-29 10:44:47			0	37686	0	0	0	29319	27890	155415	27064	1078649	46927	110903	0	0	8095	553305	0	0
2024-08-29 10:45:47			0	37685	0	0	0	29314	27890	155471	27154	1078667	46927	110901	0	0	8095	553343	0	0
2024-08-29 10:46:47			0	37688	0	0	0	29309	27890	155439	27235	1078703	46938	110899	0	0	8095	553227	0	0
2024-08-29 10:47:47			0	37685	0	0	0	29324	27900	155347	27457	1078775	46952	110905	0	0	8095	553312	0	0
2024-08-29 10:48:47			0	37682	0	0	0	29327	27900	155399	27336	1078712	46939	110906	0	0	8094	553428	0	0
2024-08-29 10:49:47			0	37689	0	0	0	29329	27900	155331	27452	1078739	46928	110907	0	0	8095	553156	0	0
2024-08-29 10:50:47			0	37682	0	0	0	29332	27910	155343	27007	1078739	46929	110908	0	0	8094	553396	0	0
2024-08-29 10:51:47			0	37690	0	0	0	29335	27900	155435	27105	1078712	46939	110909	0	0	8095	553117	0	0
2024-08-29 10:52:47			0	37682	0	0	0	29342	27910	155299	27403	1078739	46952	110912	0	0	8094	553396	0	0
2024-08-29 10:53:47			0	37681	0	0	0	29342	27920	155367	27046	1078811	46919	110912	0	0	8094	553403	0	0
2024-08-29 10:54:47			0	37690	0	0	0	29350	27930	155435	27242	1078766	46954	110915	0	0	8095	553022	0	0
2024-08-29 10:55:47			0	37680	0	0	0	29337	27910	155347	27223	1078820	46917	110910	0	0	8094	553474	0	0
2024-08-29 10:56:47			0	37683	0	0	0	29329	27920	155307	27163	1078784	46931	110907	0	0	8094	553326	0	0
2024-08-29 10:57:47			0	37686	0	0	0	29342	27920	155279	27098	1078865	46931	110912	0	0	8094	553209	0	0
2024-08-29 10:58:47			0	37687	0	0	0	29340	27920	155371	27052	1078838	46953	110911	0	0	8095	553170	0	0
2024-08-29 10:59:47			0	37689	0	0	0	29337	27930	155295	27261	1078820	46932	110910	0	0	8095	553061	0	0
2024-08-29 11:00:47			0	37690	0	0	0	29345	27920	155279	27107	1078811	46931	110913	0	0	8095	553054	0	0
2024-08-29 11:01:47			0	37689	0	0	0	29345	27930	155355	27039	1078820	46932	110913	0	0	8095	553061	0	0
2024-08-29 11:02:47			0	37698	0	0	0	29342	27930	155299	27287	1078856	46943	110912	0	0	8095	552711	0	0
2024-08-29 11:03:47			0	37703	0	0	0	29345	27940	155263	27142	1078865	46943	110913	0	0	8095	552485	0	0
2024-08-29 11:04:47			0	37695	0	0	0	29340	27920	155287	27187	1078838	46964	110911	0	0	8095	552859	0	0
2024-08-29 11:05:47			0	37706	0	0	0	29340	27940	155323	27189	1078848	46944	110911	0	0	8096	552368	0	0
2024-08-29 11:06:47			0	37691	0	0	0	29345	27940	155243	27000	1078821	46955	110913	0	0	8095	552951	0	0
2024-08-29 11:07:47			0	37703	0	0	0	29335	27920	155199	27159	1078784	46931	110909	0	0	8096	552549	0	0
2024-08-29 11:08:47			0	37710	0	0	0	29335	27920	155203	27154	1078811	46931	110909	0	0	8096	552277	0	0
2024-08-29 11:09:47			0	37720	0	0	0	29348	27940	155235	27039	1078892	46932	110914	0	0	8096	551825	0	0
2024-08-29 11:10:47			0	37724	0	0	0	29340	27930	155271	27090	1078910	46943	110911	0	0	8097	551702	0	0
2024-08-29 11:11:47			0	37709	0	0	0	29342	27930	155231	27410	1078928	46932	110912	0	0	8096	552284	0	0
2024-08-29 11:12:47			0	37706	0	0	0	29353	27940	155223	27176	1078955	46921	110916	0	0	8095	552368	0	0
2024-08-29 11:13:47			0	37714	0	0	0	29371	27940	155179	27017	1078928	46933	110923	0	0	8096	552058	0	0
2024-08-29 11:14:47			0	37714	0	0	0	29363	27940	155207	26793	1078946	46954	110920	0	0	8096	552058	0	0
2024-08-29 11:15:47			0	37704	0	0	0	29363	27950	155167	27104	1079018	46957	110920	0	0	8095	552414	0	0
2024-08-29 11:16:47			0	37701	0	0	0	29358	27960	155179	27128	1078956	46934	110918	0	0	8095	552499	0	0
2024-08-29 11:17:47			0	37718	0	0	0	29353	27950	155143	27265	1078920	46934	110916	0	0	8096	551871	0	0
2024-08-29 11:18:47			0	37706	0	0	0	29348	27950	155139	27229	1078937	46922	110914	0	0	8096	552336	0	0
2024-08-29 11:19:47			0	37718	0	0	0	29353	27950	155207	27341	1079018	46934	110916	0	0	8096	551871	0	0
2024-08-29 11:20:47			0	37715	0	0	0	29368	27940	155135	27301	1078982	46944	110922	0	0	8096	552019	0	0
2024-08-29 11:21:47			0	37702	0	0	0	29374	27950	155139	27377	1078964	46957	110924	0	0	8095	552492	0	0
2024-08-29 11:22:47			0	37701	0	0	0	29384	27950	155139	27248	1079027	46957	110928	0	0	8095	552531	0	0
2024-08-29 11:23:47			0	37722	0	0	0	29381	27950	155103	27192	1079018	46934	110927	0	0	8096	551716	0	0
2024-08-29 11:24:47			0	37715	0	0	0	29402	27950	155207	27147	1079027	46945	110935	0	0	8095	551987	0	0
2024-08-29 11:25:47			0	37725	0	0	0	29407	27960	155143	27189	1079234	46958	110937	0	0	8096	551567	0	0
2024-08-29 11:26:47			0	37705	0	0	0	29410	27960	155195	26974	1079153	46958	110938	0	0	8095	552343	0	0
2024-08-29 11:27:47			0	37703	0	0	0	29418	27980	155195	27293	1079216	46937	110941	0	0	8094	552357	0	0
2024-08-29 11:28:47			0	37709	0	0	0	29420	27990	155167	27144	1079199	46938	110942	0	0	8095	552093	0	0
2024-08-29 11:29:47			0	37704	0	0	0	29423	27980	155179	27170	1079190	46959	110943	0	0	8094	552319	0	0
2024-08-29 11:30:47			0	37697	0	0	0	29428	28000	155135	27246	1079324	46950	110945	0	0	8094	552527	0	0
2024-08-29 11:31:47			0	37701	0	0	0	29444	27990	155171	27144	1079315	46960	110951	0	0	8094	552403	0	0
2024-08-29 11:32:47			0	37715	0	0	0	29454	28010	155099	27114	1079343	46962	110955	0	0	8095	551796	0	0
2024-08-29 11:33:47			0	37694	0	0	0	29464	28000	155139	26878	1079405	46972	110959	0	0	8093	552643	0	0
2024-08-29 11:34:47			0	37704	0	0	0	29467	28000	155091	27137	1079414	46950	110960	0	0	8094	552255	0	0
2024-08-29 11:35:47			0	37727	0	0	0	29493	28020	155119	27307	1079468	46974	110970	0	0	8095	551299	0	0
2024-08-29 11:36:47			0	37720	0	0	0	29490	28020	155139	26769	1079531	46952	110969	0	0	8094	551570	0	0
2024-08-29 11:37:47			0	37711	0	0	0	29498	28030	155115	26925	1079514	46964	110972	0	0	8094	551888	0	0
2024-08-29 11:38:47			0	37713	0	0	0	29501	28040	155111	26937	1079595	46965	110973	0	0	8094	551778	0	0
2024-08-29 11:39:47			0	37726	0	0	0	29503	28050	155139	26955	1079631	46977	110974	0	0	8095	551242	0	0
2024-08-29 11:40:47			0	37716	0	0	0	29501	28050	155179	27078	1079640	46967	110973	0	0	8094	551630	0	0
2024-08-29 11:41:47			0	37739	0	0	0	29488	28060	155091	27008	1079676	46967	110968	0	0	8096	550707	0	0
2024-08-29 11:42:47			0	37731	0	0	0	29506	28060	155175	26897	1079631	46957	110975	0	0	8095	551017	0	0
2024-08-29 11:43:47			0	37737	0	0	0	29509	28060	155007	27059	1079712	46968	110976	0	0	8095	550784	0	0
2024-08-29 11:44:47			0	37743	0	0	0	29488	28070	155015	27142	1079748	46968	110968	0	0	8096	550520	0	0
2024-08-29 11:45:47			0	37737	0	0	0	29457	28080	154991	27142	1079739	46969	110956	0	0	8096	550721	0	0
2024-08-29 11:46:47			0	37755	0	0	0	29451	28080	154927	27260	1079686	46947	110954	0	0	8097	550024	0	0
2024-08-29 11:47:47			0	37769	0	0	0	29444	28080	154803	27175	1079695	46970	110951	0	0	8098	549482	0	0
2024-08-29 11:48:47			0	37798	0	0	0	29418	28070	154759	27216	1079569	46947	110941	0	0	8100	548393	0	0
2024-08-29 11:49:47			0	37813	0	0	0	29418	28070	154683	27147	1079640	46934	110941	0	0	8101	547813	0	0
2024-08-29 11:50:47			0	37837	0	0	0	29428	28070	154607	27026	1079587	46946	110945	0	0	8102	546887	0	0
2024-08-29 11:51:47			0	37841	0	0	0	29441	28050	154619	26916	1079613	46956	110950	0	0	8102	546796	0	0
2024-08-29 11:52:47			0	37840	0	0	0	29449	28060	154539	26915	1079577	46946	110953	0	0	8102	546803	0	0
2024-08-29 11:53:47			0	37839	0	0	0	29464	28070	154575	27019	1079640	46946	110959	0	0	8102	546810	0	0
2024-08-29 11:54:47			0	37825	0	0	0	29477	28070	154603	27286	1079667	46946	110964	0	0	8101	547350	0	0
2024-08-29 11:55:47			0	37824	0	0	0	29480	28080	154591	27215	1079659	46969	110965	0	0	8101	547357	0	0
2024-08-29 11:56:47			0	37818	0	0	0	29483	28080	154603	27034	1079712	46958	110966	0	0	8100	547589	0	0
2024-08-29 11:57:47			0	37834	0	0	0	29490	28080	154547	27027	1079775	46958	110969	0	0	8101	546971	0	0
2024-08-29 11:58:47			0	37819	0	0	0	29503	28080	154539	26866	1079802	46958	110974	0	0	8100	547550	0	0
2024-08-29 11:59:47			0	37820	0	0	0	29498	28080	154583	27154	1079793	46969	110972	0	0	8100	547511	0	0
2024-08-29 12:00:47			0	37830	0	0	0	29496	28090	154555	27123	1079767	46971	110971	0	0	8101	547094	0	0
2024-08-29 12:01:47			0	37824	0	0	0	29503	28090	154563	26693	1079785	46936	110974	0	0	8100	547325	0	0
2024-08-29 12:02:47			0	37819	0	0	0	29498	28090	154571	26930	1079758	46936	110972	0	0	8100	547518	0	0
2024-08-29 12:03:47			0	37823	0	0	0	29493	28090	154591	27027	1079785	46970	110970	0	0	8101	547364	0	0
2024-08-29 12:04:47			0	37804	0	0	0	29488	28090	154619	26930	1079767	46949	110968	0	0	8100	548097	0	0
2024-08-29 12:05:47			0	37824	0	0	0	29522	28100	154539	27005	1079776	46950	110981	0	0	8100	547294	0	0
2024-08-29 12:06:47			0	37834	0	0	0	29535	28090	154659	27118	1079821	46949	110986	0	0	8100	546940	0	0
2024-08-29 12:07:47			0	37817	0	0	0	29532	28120	154619	27017	1079911	46961	110985	0	0	8100	547501	0	0
2024-08-29 12:08:47			0	37814	0	0	0	29532	28120	154703	27293	1079911	46939	110985	0	0	8100	547617	0	0
2024-08-29 12:09:47			0	37828	0	0	0	29529	28120	154583	27081	1079947	46940	110984	0	0	8100	547077	0	0
2024-08-29 12:10:47			0	37812	0	0	0	29522	28120	154579	27124	1079938	46973	110981	0	0	8100	547694	0	0
2024-08-29 12:11:47			0	37815	0	0	0	29542	28130	154635	27230	1079983	46974	110989	0	0	8099	547546	0	0
2024-08-29 12:12:47			0	37815	0	0	0	29563	28130	154683	27282	1080073	46963	110997	0	0	8099	547546	0	0
2024-08-29 12:13:47			0	37813	0	0	0	29571	28130	154679	26788	1080037	46974	111000	0	0	8099	547624	0	0
2024-08-29 12:14:47			0	37815	0	0	0	29571	28130	154723	26972	1080073	46942	111000	0	0	8099	547546	0	0
2024-08-29 12:15:47			0	37809	0	0	0	29561	28140	154631	27220	1080082	46975	110996	0	0	8099	547746	0	0
2024-08-29 12:16:47			0	37811	0	0	0	29553	28140	154619	26915	1080145	46976	110993	0	0	8099	547669	0	0
2024-08-29 12:17:47			0	37828	0	0	0	29542	28150	154623	26627	1080127	46943	110989	0	0	8100	546982	0	0
2024-08-29 12:18:47			0	37829	0	0	0	29545	28140	154499	27100	1080091	46954	110990	0	0	8100	546975	0	0
2024-08-29 12:19:47			0	37820	0	0	0	29542	28150	154575	26956	1079992	46954	110989	0	0	8100	547290	0	0
2024-08-29 12:20:47			0	37826	0	0	0	29555	28160	154487	27286	1080145	46944	110994	0	0	8100	547027	0	0
2024-08-29 12:21:47			0	37836	0	0	0	29563	28160	154615	26883	1080128	46945	110997	0	0	8100	546642	0	0
2024-08-29 12:22:47			0	37841	0	0	0	29568	28160	154471	26842	1080118	46955	110999	0	0	8101	546449	0	0
2024-08-29 12:23:47			0	37814	0	0	0	29568	28150	154571	27007	1080109	46955	110999	0	0	8099	547522	0	0
2024-08-29 12:24:47			0	37821	0	0	0	29579	28160	154503	26852	1080145	46955	111003	0	0	8099	547220	0	0
2024-08-29 12:25:47			0	37806	0	0	0	29576	28160	154627	27079	1080172	46965	111002	0	0	8099	547799	0	0
2024-08-29 12:26:47			0	37807	0	0	0	29573	28160	154643	26925	1080154	46956	111001	0	0	8099	547760	0	0
2024-08-29 12:27:47			0	37809	0	0	0	29576	28180	154651	27142	1080182	46958	111002	0	0	8099	547620	0	0
2024-08-29 12:28:47			0	37794	0	0	0	29576	28170	154607	26967	1080173	46967	111002	0	0	8098	548231	0	0
2024-08-29 12:29:47			0	37819	0	0	0	29566	28170	154655	27118	1080200	46967	110998	0	0	8099	547266	0	0
2024-08-29 12:30:47			0	37812	0	0	0	29558	28170	154555	26890	1080173	46945	110995	0	0	8099	547536	0	0
2024-08-29 12:31:47			0	37828	0	0	0	29553	28170	154647	26654	1080137	46956	110993	0	0	8100	546919	0	0
2024-08-29 12:32:47			0	37829	0	0	0	29558	28170	154471	26911	1080173	46957	110995	0	0	8100	546880	0	0
2024-08-29 12:33:47			0	37845	0	0	0	29555	28160	154519	26944	1080118	46944	110994	0	0	8101	546295	0	0
2024-08-29 12:34:47			0	37851	0	0	0	29558	28170	154475	26928	1080110	46966	110995	0	0	8101	546032	0	0
2024-08-29 12:35:47			0	37845	0	0	0	29558	28160	154467	26897	1080154	46956	110995	0	0	8101	546295	0	0
2024-08-29 12:36:47			0	37855	0	0	0	29568	28160	154359	27403	1080181	46956	110999	0	0	8101	545910	0	0
2024-08-29 12:37:47			0	37891	0	0	0	29586	28160	154307	26887	1080235	46978	111006	0	0	8103	544524	0	0
2024-08-29 12:38:47			0	37872	0	0	0	29592	28170	154443	26965	1080244	46966	111008	0	0	8102	545224	0	0
2024-08-29 12:39:47			0	37848	0	0	0	29573	28170	154459	27232	1080173	46967	111001	0	0	8101	546148	0	0
2024-08-29 12:40:47			0	37861	0	0	0	29568	28170	154407	26984	1080253	46957	110999	0	0	8102	545647	0	0
2024-08-29 12:41:47			0	37860	0	0	0	29563	28180	154355	26979	1080209	46947	110997	0	0	8102	545654	0	0
2024-08-29 12:42:47			0	37868	0	0	0	29571	28170	154431	27046	1080190	46945	111000	0	0	8102	545378	0	0
2024-08-29 12:43:47			0	37880	0	0	0	29566	28170	154267	26956	1080253	46957	110998	0	0	8103	544916	0	0
2024-08-29 12:44:47			0	37877	0	0	0	29571	28170	154383	27034	1080164	46956	111000	0	0	8103	545031	0	0
2024-08-29 12:45:47			0	37860	0	0	0	29563	28170	154371	27104	1080164	46945	110997	0	0	8102	545686	0	0
2024-08-29 12:46:47			0	37854	0	0	0	29563	28160	154367	27170	1080154	46966	110997	0	0	8102	545948	0	0
2024-08-29 12:47:47			0	37874	0	0	0	29568	28170	154327	27194	1080164	46956	110999	0	0	8103	545147	0	0
2024-08-29 12:48:47			0	37873	0	0	0	29571	28180	154247	27013	1080209	46958	111000	0	0	8103	545154	0	0
2024-08-29 12:49:47			0	37895	0	0	0	29576	28180	154315	27206	1080191	46980	111002	0	0	8104	544308	0	0
2024-08-29 12:50:47			0	37876	0	0	0	29581	28170	154323	27046	1080217	46956	111004	0	0	8103	545070	0	0
2024-08-29 12:51:47			0	37870	0	0	0	29584	28180	154323	26885	1080272	46968	111005	0	0	8102	545269	0	0
2024-08-29 12:52:47			0	37863	0	0	0	29589	28170	154311	27164	1080280	46957	111007	0	0	8102	545570	0	0
2024-08-29 12:53:47			0	37881	0	0	0	29589	28170	154331	27045	1080226	46979	111007	0	0	8103	544877	0	0
2024-08-29 12:54:47			0	37879	0	0	0	29607	28180	154387	27078	1080343	46980	111014	0	0	8102	544923	0	0
2024-08-29 12:55:47			0	37864	0	0	0	29599	28190	154403	27020	1080308	46968	111011	0	0	8102	545469	0	0
2024-08-29 12:56:47			0	37866	0	0	0	29612	28190	154419	26896	1080308	46947	111016	0	0	8102	545391	0	0
2024-08-29 12:57:47			0	37872	0	0	0	29618	28200	154379	26960	1080326	46982	111018	0	0	8102	545129	0	0
2024-08-29 12:58:47			0	37873	0	0	0	29586	28200	154319	27128	1080416	46993	111006	0	0	8102	545091	0	0
2024-08-29 12:59:47			0	37859	0	0	0	29579	28210	154307	27248	1080398	46983	111003	0	0	8102	545598	0	0
2024-08-29 13:00:47			0	37873	0	0	0	29612	28200	154315	27225	1080389	46959	111016	0	0	8102	545091	0	0
2024-08-29 13:01:47			0	37882	0	0	0	29636	28210	154447	27166	1080398	46938	111025	0	0	8102	544713	0	0
2024-08-29 13:02:47			0	37870	0	0	0	29677	28200	154255	27074	1080443	46970	111041	0	0	8101	545206	0	0
2024-08-29 13:03:47			0	37880	0	0	0	29716	28230	154407	27036	1080677	46996	111056	0	0	8101	544727	0	0
2024-08-29 13:04:47			0	37863	0	0	0	29641	28240	154275	26871	1080668	46997	111027	0	0	8101	545350	0	0
2024-08-29 13:05:47			0	37881	0	0	0	29610	28230	154083	26833	1080497	46973	111015	0	0	8103	544689	0	0
2024-08-29 13:06:47			0	37882	0	0	0	29649	28230	154279	27164	1080542	46952	111030	0	0	8102	544650	0	0
2024-08-29 13:07:47			0	37883	0	0	0	29657	28240	154167	27104	1080560	46997	111033	0	0	8102	544580	0	0
2024-08-29 13:08:47			0	37899	0	0	0	29662	28250	154151	27104	1080632	46964	111035	0	0	8103	543934	0	0
2024-08-29 13:09:47			0	37898	0	0	0	29683	28230	154247	27367	1080605	46985	111043	0	0	8102	544035	0	0
2024-08-29 13:10:47			0	37889	0	0	0	29597	28240	154291	27187	1080560	46986	111010	0	0	8103	544350	0	0
2024-08-29 13:11:47			0	37895	0	0	0	29633	28250	154163	27173	1080560	46964	111024	0	0	8103	544088	0	0
2024-08-29 13:12:47			0	37910	0	0	0	29641	28240	154099	27229	1080623	46964	111027	0	0	8104	543543	0	0
2024-08-29 13:13:47			0	37903	0	0	0	29659	28240	154083	27175	1080677	46954	111034	0	0	8103	543812	0	0
2024-08-29 13:14:47			0	37917	0	0	0	29675	28250	154039	27128	1080632	46964	111040	0	0	8104	543243	0	0
2024-08-29 13:15:47			0	37911	0	0	0	29677	28250	153983	27499	1080695	46975	111041	0	0	8103	543473	0	0
2024-08-29 13:16:47			0	37915	0	0	0	29662	28260	154063	27320	1080677	46955	111035	0	0	8104	543288	0	0
2024-08-29 13:17:47			0	37904	0	0	0	29654	28250	154115	27355	1080695	46964	111032	0	0	8103	543742	0	0
2024-08-29 13:18:47			0	37896	0	0	0	29659	28260	154115	27111	1080677	46955	111034	0	0	8103	544018	0	0
2024-08-29 13:19:47			0	37920	0	0	0	29672	28260	154119	27293	1080758	46988	111039	0	0	8104	543096	0	0
2024-08-29 13:20:47			0	37909	0	0	0	29670	28260	154091	27350	1080704	46976	111038	0	0	8103	543518	0	0
2024-08-29 13:21:47			0	37904	0	0	0	29649	28250	154067	27620	1080722	46954	111030	0	0	8103	543742	0	0
2024-08-29 13:22:47			0	37898	0	0	0	29631	28260	154123	27000	1080659	46977	111023	0	0	8103	543941	0	0
2024-08-29 13:23:47			0	37911	0	0	0	29644	28260	154163	27315	1080677	46965	111028	0	0	8104	543442	0	0
2024-08-29 13:24:47			0	37944	0	0	0	29677	28260	154051	27090	1080677	46965	111041	0	0	8105	542175	0	0
2024-08-29 13:25:47			0	37918	0	0	0	29688	28260	154111	27358	1080713	46966	111045	0	0	8104	543173	0	0
2024-08-29 13:26:47			0	37928	0	0	0	29701	28270	154055	27365	1080777	46977	111050	0	0	8104	542758	0	0
2024-08-29 13:27:47			0	37918	0	0	0	29706	28270	154147	27367	1080831	46989	111052	0	0	8103	543141	0	0
2024-08-29 13:28:47			0	37907	0	0	0	29701	28270	154119	27447	1080858	46989	111050	0	0	8103	543564	0	0
2024-08-29 13:29:47			0	37908	0	0	0	29709	28280	154159	27112	1080858	46991	111053	0	0	8103	543494	0	0
2024-08-29 13:30:47			0	37900	0	0	0	29709	28280	154091	27459	1080903	46978	111053	0	0	8102	543801	0	0
2024-08-29 13:31:47			0	37898	0	0	0	29722	28280	154159	27417	1080939	47001	111058	0	0	8102	543878	0	0
2024-08-29 13:32:47			0	37889	0	0	0	29714	28300	154207	27048	1080993	46992	111055	0	0	8102	544161	0	0
2024-08-29 13:33:47			0	37898	0	0	0	29724	28300	154167	27310	1080975	46981	111059	0	0	8102	543815	0	0
2024-08-29 13:34:47			0	37893	0	0	0	29735	28310	154159	27187	1081038	46983	111063	0	0	8102	543976	0	0
2024-08-29 13:35:47			0	37889	0	0	0	29755	28310	154175	27267	1081074	47004	111071	0	0	8101	544129	0	0
2024-08-29 13:36:47			0	37905	0	0	0	29748	28310	154139	27303	1081074	46994	111068	0	0	8102	543515	0	0
2024-08-29 13:37:47			0	37895	0	0	0	29748	28330	154087	27102	1081102	46973	111068	0	0	8102	543836	0	0
2024-08-29 13:38:47			0	37889	0	0	0	29748	28330	154179	27258	1081075	46973	111068	0	0	8101	544067	0	0
2024-08-29 13:39:47			0	37896	0	0	0	29748	28330	154167	27163	1081129	46984	111068	0	0	8102	543798	0	0
2024-08-29 13:40:47			0	37909	0	0	0	29766	28330	154083	27034	1081138	46984	111075	0	0	8102	543299	0	0
2024-08-29 13:41:47			0	37895	0	0	0	29771	28340	154003	27211	1081174	46996	111077	0	0	8101	543805	0	0
2024-08-29 13:42:47			0	37906	0	0	0	29792	28350	154107	27235	1081273	46998	111085	0	0	8102	543351	0	0
2024-08-29 13:43:47			0	37907	0	0	0	29792	28350	154151	27039	1081255	46998	111085	0	0	8102	543312	0	0
2024-08-29 13:44:47			0	37922	0	0	0	29799	28360	154139	27041	1081354	47009	111088	0	0	8102	542706	0	0
2024-08-29 13:45:47			0	37897	0	0	0	29823	28360	154103	27154	1081408	46999	111097	0	0	8101	543665	0	0
2024-08-29 13:46:47			0	37896	0	0	0	29849	28370	154067	27253	1081426	47000	111107	0	0	8100	543672	0	0
2024-08-29 13:47:47			0	37893	0	0	0	29779	28390	154067	27024	1081453	47012	111080	0	0	8101	543724	0	0
2024-08-29 13:48:47			0	37925	0	0	0	29719	28380	153983	26791	1081246	46978	111057	0	0	8104	542528	0	0
2024-08-29 13:49:47			0	37944	0	0	0	29698	28370	153911	26920	1081183	46967	111049	0	0	8105	541831	0	0
2024-08-29 13:50:47			0	37968	0	0	0	29698	28380	153743	27076	1081192	46967	111049	0	0	8107	540881	0	0
2024-08-29 13:51:47			0	37974	0	0	0	29701	28360	153619	26897	1081210	46975	111050	0	0	8107	540713	0	0
2024-08-29 13:52:47			0	38000	0	0	0	29719	28360	153667	27222	1081246	46976	111057	0	0	8108	539719	0	0
2024-08-29 13:53:47			0	37993	0	0	0	29724	28370	153735	27092	1081264	46978	111059	0	0	8108	539955	0	0
2024-08-29 13:54:47			0	37982	0	0	0	29729	28370	153735	27163	1081309	47000	111061	0	0	8107	540376	0	0
2024-08-29 13:55:47			0	37987	0	0	0	29724	28370	153787	27107	1081264	46967	111059	0	0	8107	540185	0	0
2024-08-29 13:56:47			0	37973	0	0	0	29729	28360	153815	26826	1081246	46976	111061	0	0	8106	540752	0	0
2024-08-29 13:57:47			0	37985	0	0	0	29750	28360	153859	27133	1081291	46964	111069	0	0	8107	540293	0	0
2024-08-29 13:58:47			0	37980	0	0	0	29753	28360	153759	27083	1081291	46964	111070	0	0	8106	540484	0	0
2024-08-29 13:59:47			0	37970	0	0	0	29755	28370	153763	26948	1081282	47000	111071	0	0	8106	540835	0	0
2024-08-29 14:00:47			0	37963	0	0	0	29810	28380	153795	27043	1081336	46967	111092	0	0	8105	541072	0	0
2024-08-29 14:01:47			0	37948	0	0	0	29823	28390	153791	26922	1081426	46968	111097	0	0	8104	541615	0	0
2024-08-29 14:02:47			0	37918	0	0	0	29820	28390	153971	27088	1081480	46968	111096	0	0	8102	542765	0	0
2024-08-29 14:03:47			0	37939	0	0	0	29825	28400	153907	27443	1081516	47002	111098	0	0	8103	541929	0	0
2024-08-29 14:04:47			0	37934	0	0	0	29792	28410	153903	26859	1081427	46980	111085	0	0	8103	542089	0	0
2024-08-29 14:05:47			0	37952	0	0	0	29781	28410	153807	27182	1081481	46969	111081	0	0	8105	541399	0	0
2024-08-29 14:06:47			0	37951	0	0	0	29792	28410	153835	26854	1081517	46970	111085	0	0	8104	541437	0	0
2024-08-29 14:07:47			0	37958	0	0	0	29799	28410	153807	26975	1081490	46981	111088	0	0	8105	541169	0	0
2024-08-29 14:08:47			0	37956	0	0	0	29789	28410	153675	27230	1081490	46970	111084	0	0	8105	541246	0	0
2024-08-29 14:09:47			0	37958	0	0	0	29789	28410	153795	27241	1081544	46981	111084	0	0	8105	541169	0	0
2024-08-29 14:10:47			0	37962	0	0	0	29781	28410	153763	27270	1081544	46970	111081	0	0	8105	541016	0	0
2024-08-29 14:11:47			0	37966	0	0	0	29797	28410	153687	27000	1081490	46981	111087	0	0	8105	540863	0	0
2024-08-29 14:12:47			0	37961	0	0	0	29820	28420	153743	27199	1081589	46994	111096	0	0	8105	541023	0	0
2024-08-29 14:13:47			0	37945	0	0	0	29833	28420	153667	27390	1081616	46994	111101	0	0	8103	541636	0	0
2024-08-29 14:14:47			0	37960	0	0	0	29831	28420	153727	27246	1081580	46982	111100	0	0	8104	541062	0	0
2024-08-29 14:15:47			0	37954	0	0	0	29844	28430	153791	27483	1081634	46995	111105	0	0	8104	541260	0	0
2024-08-29 14:16:47			0	37955	0	0	0	29844	28430	153667	27227	1081706	46982	111105	0	0	8104	541222	0	0
2024-08-29 14:17:47			0	37941	0	0	0	29859	28430	153727	27296	1081715	46983	111111	0	0	8103	541758	0	0
2024-08-29 14:18:47			0	37957	0	0	0	29864	28440	153747	26998	1081652	47007	111113	0	0	8104	541114	0	0
2024-08-29 14:19:47			0	37961	0	0	0	29880	28440	153727	26894	1081760	46997	111119	0	0	8104	540961	0	0
2024-08-29 14:20:47			0	37958	0	0	0	29867	28450	153695	27064	1081805	46997	111114	0	0	8104	541044	0	0
2024-08-29 14:21:47			0	37968	0	0	0	29877	28460	153727	26975	1081824	46999	111118	0	0	8104	540630	0	0
2024-08-29 14:22:47			0	37973	0	0	0	29883	28460	153655	27234	1081814	47008	111120	0	0	8104	540439	0	0
2024-08-29 14:23:47			0	37984	0	0	0	29864	28470	153699	27104	1081815	47009	111113	0	0	8105	539987	0	0
2024-08-29 14:24:47			0	37980	0	0	0	29893	28480	153695	27173	1081914	46989	111124	0	0	8105	540109	0	0
2024-08-29 14:25:47			0	37979	0	0	0	29927	28490	153615	26894	1081923	47000	111137	0	0	8104	540116	0	0
2024-08-29 14:26:47			0	37970	0	0	0	29924	28490	153591	27020	1082004	47011	111136	0	0	8104	540460	0	0
2024-08-29 14:27:47			0	37974	0	0	0	29929	28500	153551	27031	1082049	47012	111138	0	0	8104	540276	0	0
2024-08-29 14:28:47			0	37988	0	0	0	29940	28500	153563	27048	1082139	47013	111142	0	0	8104	539741	0	0
2024-08-29 14:29:47			0	37982	0	0	0	29940	28510	153527	27085	1082175	47014	111142	0	0	8104	539939	0	0
2024-08-29 14:30:47			0	37979	0	0	0	29927	28520	153527	26932	1082220	47014	111137	0	0	8104	540022	0	0
2024-08-29 14:31:47			0	37978	0	0	0	29950	28540	153491	27187	1082230	47028	111146	0	0	8104	539998	0	0
2024-08-29 14:32:47			0	37975	0	0	0	29963	28550	153495	27074	1082302	47018	111151	0	0	8104	540081	0	0
2024-08-29 14:33:47			0	38001	0	0	0	29973	28540	153483	27090	1082284	47005	111155	0	0	8105	539119	0	0
2024-08-29 14:34:47			0	37973	0	0	0	29953	28550	153471	27152	1082365	46996	111147	0	0	8104	540158	0	0
2024-08-29 14:35:47			0	37981	0	0	0	29968	28550	153423	27175	1082311	46996	111153	0	0	8104	539852	0	0
2024-08-29 14:36:47			0	38005	0	0	0	29950	28560	153511	27126	1082347	47007	111146	0	0	8106	538904	0	0
2024-08-29 14:37:47			0	37974	0	0	0	29994	28560	153415	27130	1082410	47008	111163	0	0	8103	540088	0	0
2024-08-29 14:38:47			0	37993	0	0	0	29984	28570	153411	27053	1082446	46998	111159	0	0	8104	539331	0	0
2024-08-29 14:39:47			0	37994	0	0	0	29945	28560	153339	26918	1082329	46986	111144	0	0	8105	539324	0	0
2024-08-29 14:40:47			0	37990	0	0	0	29937	28560	153519	26739	1082275	46986	111141	0	0	8105	539477	0	0
2024-08-29 14:41:47			0	38002	0	0	0	29950	28560	153283	27135	1082239	46996	111146	0	0	8105	539019	0	0
2024-08-29 14:42:47			0	38025	0	0	0	29961	28550	153244	26864	1082284	46996	111150	0	0	8106	538172	0	0
2024-08-29 14:43:47			0	38052	0	0	0	29953	28560	153188	27239	1082383	46997	111147	0	0	8108	537112	0	0
2024-08-29 14:44:47			0	38065	0	0	0	29958	28560	153176	26850	1082356	46997	111149	0	0	8109	536617	0	0
2024-08-29 14:45:47			0	38050	0	0	0	29976	28560	153128	26781	1082356	46997	111156	0	0	8108	537189	0	0
2024-08-29 14:46:47			0	38071	0	0	0	30015	28570	153164	26979	1082392	47020	111171	0	0	8108	536358	0	0
2024-08-29 14:47:47			0	38055	0	0	0	30005	28570	153216	26889	1082455	47020	111167	0	0	8107	536967	0	0
2024-08-29 14:48:47			0	38035	0	0	0	30005	28580	153268	27071	1082464	46999	111167	0	0	8106	537698	0	0
2024-08-29 14:49:47			0	38031	0	0	0	30038	28580	153211	26951	1082608	47021	111180	0	0	8106	537850	0	0
2024-08-29 14:50:47			0	38028	0	0	0	30041	28590	153139	26710	1082626	47035	111181	0	0	8105	537933	0	0
2024-08-29 14:51:47			0	38031	0	0	0	30015	28600	153343	26932	1082618	47035	111171	0	0	8106	537788	0	0
2024-08-29 14:52:47			0	38034	0	0	0	30007	28600	153328	27310	1082591	47000	111168	0	0	8106	537674	0	0
2024-08-29 14:53:47			0	38043	0	0	0	30015	28610	153216	26720	1082654	46991	111171	0	0	8107	537300	0	0
2024-08-29 14:54:47			0	38037	0	0	0	30012	28610	153188	27071	1082654	47001	111170	0	0	8107	537528	0	0
2024-08-29 14:55:47			0	38074	0	0	0	30020	28610	153068	26913	1082690	47014	111173	0	0	8109	536119	0	0
2024-08-29 14:56:47			0	38053	0	0	0	30028	28610	153216	27161	1082717	47025	111176	0	0	8107	536919	0	0
2024-08-29 14:57:47			0	38061	0	0	0	30031	28620	153084	27079	1082681	47002	111177	0	0	8108	536583	0	0
2024-08-29 14:58:47			0	38051	0	0	0	30044	28630	153148	27033	1082717	47003	111182	0	0	8107	536933	0	0
2024-08-29 14:59:47			0	38071	0	0	0	30018	28640	153036	27000	1082798	47005	111172	0	0	8109	536141	0	0
2024-08-29 15:00:47			0	38076	0	0	0	30018	28630	153016	26906	1082753	46994	111172	0	0	8109	535981	0	0
2024-08-29 15:01:47			0	38096	0	0	0	29976	28630	152956	26802	1082672	46994	111156	0	0	8111	535221	0	0
2024-08-29 15:02:47			0	38118	0	0	0	29986	28630	152804	27005	1082699	46994	111160	0	0	8112	534385	0	0
2024-08-29 15:03:47			0	38171	0	0	0	30018	28640	152672	27348	1082735	46994	111172	0	0	8114	532345	0	0
2024-08-29 15:04:47			0	38166	0	0	0	30038	28610	152676	26987	1082636	46992	111180	0	0	8113	532627	0	0
2024-08-29 15:05:47			0	38169	0	0	0	30033	28630	152564	26873	1082726	47004	111178	0	0	8114	532452	0	0
2024-08-29 15:06:47			0	38155	0	0	0	30028	28630	152700	27147	1082780	47004	111176	0	0	8113	532982	0	0
2024-08-29 15:07:47			0	38137	0	0	0	30031	28640	152764	26871	1082762	47004	111177	0	0	8112	533634	0	0
2024-08-29 15:08:47			0	38122	0	0	0	30018	28630	152788	26906	1082672	47004	111172	0	0	8111	534234	0	0
2024-08-29 15:09:47			0	38136	0	0	0	30018	28640	152688	27157	1082735	46994	111172	0	0	8112	533672	0	0
2024-08-29 15:10:47			0	38130	0	0	0	30046	28640	152796	27255	1082798	46984	111183	0	0	8111	533899	0	0
2024-08-29 15:11:47			0	38148	0	0	0	30059	28640	152792	27027	1082825	47040	111188	0	0	8112	533217	0	0
2024-08-29 15:12:47			0	38133	0	0	0	30010	28650	152828	27253	1082835	47017	111169	0	0	8112	533754	0	0
2024-08-29 15:13:47			0	38137	0	0	0	30007	28650	152772	27116	1082808	47028	111168	0	0	8113	533603	0	0
2024-08-29 15:14:47			0	38142	0	0	0	30041	28640	152780	26991	1082852	47005	111181	0	0	8112	533444	0	0
2024-08-29 15:15:47			0	38138	0	0	0	30062	28640	152708	27324	1082798	47017	111189	0	0	8112	533596	0	0
2024-08-29 15:16:47			0	38140	0	0	0	30028	28650	152740	26965	1082808	47017	111176	0	0	8112	533489	0	0
2024-08-29 15:17:47			0	38151	0	0	0	29966	28650	152744	26949	1082754	47005	111152	0	0	8114	533072	0	0
2024-08-29 15:18:47			0	38159	0	0	0	29968	28650	152544	27173	1082754	46984	111153	0	0	8114	532769	0	0
2024-08-29 15:19:47			0	38177	0	0	0	30028	28630	152568	27022	1082645	46994	111176	0	0	8114	532149	0	0
2024-08-29 15:20:47			0	38171	0	0	0	30051	28640	152576	27074	1082735	47016	111185	0	0	8114	532345	0	0
2024-08-29 15:21:47			0	38198	0	0	0	30041	28640	152532	27296	1082816	47004	111181	0	0	8115	531323	0	0
2024-08-29 15:22:47			0	38181	0	0	0	30033	28630	152628	27024	1082726	47004	111178	0	0	8115	531997	0	0
2024-08-29 15:23:47			0	38165	0	0	0	30025	28640	152556	27357	1082744	46995	111175	0	0	8114	532572	0	0
2024-08-29 15:24:47			0	38156	0	0	0	30046	28630	152640	26925	1082726	46994	111183	0	0	8113	532944	0	0
2024-08-29 15:25:47			0	38155	0	0	0	30064	28630	152596	26778	1082807	47016	111190	0	0	8113	532982	0	0
2024-08-29 15:26:47			0	38168	0	0	0	30075	28660	152652	27258	1082907	47029	111194	0	0	8113	532397	0	0
2024-08-29 15:27:47			0	38158	0	0	0	30057	28660	152644	26705	1082907	47029	111187	0	0	8113	532776	0	0
2024-08-29 15:28:47			0	38150	0	0	0	30077	28660	152720	27163	1082934	47029	111195	0	0	8112	533079	0	0
2024-08-29 15:29:47			0	38155	0	0	0	30090	28660	152632	27185	1083024	47030	111200	0	0	8112	532890	0	0
2024-08-29 15:30:47			0	38169	0	0	0	30101	28680	152652	27046	1083051	47032	111204	0	0	8113	532298	0	0
2024-08-29 15:31:47			0	38147	0	0	0	30103	28680	152620	27343	1083078	47032	111205	0	0	8112	533131	0	0
2024-08-29 15:32:47			0	38132	0	0	0	30106	28700	152696	26819	1083105	47010	111206	0	0	8111	533638	0	0
2024-08-29 15:33:47			0	38141	0	0	0	30106	28690	152660	27230	1083069	47010	111206	0	0	8111	533328	0	0
2024-08-29 15:34:47			0	38124	0	0	0	30111	28700	152660	27284	1083195	47045	111208	0	0	8110	533941	0	0
2024-08-29 15:35:47			0	38140	0	0	0	30116	28700	152788	27218	1083213	47022	111210	0	0	8111	533335	0	0
2024-08-29 15:36:47			0	38140	0	0	0	30114	28710	152580	27291	1083160	47012	111209	0	0	8111	533304	0	0
2024-08-29 15:37:47			0	38124	0	0	0	30174	28710	152652	27031	1083178	47023	111232	0	0	8109	533910	0	0
2024-08-29 15:38:47			0	38154	0	0	0	30192	28720	152620	27055	1083277	47035	111239	0	0	8111	532742	0	0
2024-08-29 15:39:47			0	38141	0	0	0	30189	28730	152700	27102	1083322	47036	111238	0	0	8110	533204	0	0
2024-08-29 15:40:47			0	38093	0	0	0	30150	28740	152752	27358	1083448	47037	111223	0	0	8108	534994	0	0
2024-08-29 15:41:47			0	38117	0	0	0	30124	28750	152696	26883	1083412	47038	111213	0	0	8110	534052	0	0
2024-08-29 15:42:47			0	38140	0	0	0	30075	28750	152712	27319	1083331	47004	111194	0	0	8112	533180	0	0
2024-08-29 15:43:47			0	38181	0	0	0	30098	28740	152552	27031	1083232	47003	111203	0	0	8114	531659	0	0
2024-08-29 15:44:47			0	38181	0	0	0	30142	28740	152444	27012	1083259	47014	111220	0	0	8113	531659	0	0
2024-08-29 15:45:47			0	38216	0	0	0	30166	28750	152408	27202	1083358	47004	111229	0	0	8115	530305	0	0
2024-08-29 15:46:47			0	38218	0	0	0	30189	28740	152300	27019	1083394	47014	111238	0	0	8115	530260	0	0
2024-08-29 15:47:47			0	38214	0	0	0	30189	28750	152316	27514	1083466	47027	111238	0	0	8114	530380	0	0
2024-08-29 15:48:47			0	38223	0	0	0	30171	28760	152388	27208	1083457	47040	111231	0	0	8115	530010	0	0
2024-08-29 15:49:47			0	38213	0	0	0	30132	28770	152404	27098	1083476	47051	111216	0	0	8115	530356	0	0
2024-08-29 15:50:47			0	38222	0	0	0	30111	28750	152364	27364	1083394	47005	111208	0	0	8116	530078	0	0
2024-08-29 15:51:47			0	38226	0	0	0	30127	28750	152232	27038	1083313	47005	111214	0	0	8116	529927	0	0
2024-08-29 15:52:47			0	38236	0	0	0	30163	28750	152180	27286	1083313	47016	111228	0	0	8116	529550	0	0
2024-08-29 15:53:47			0	38249	0	0	0	30184	28740	152264	26890	1083430	47027	111236	0	0	8116	529090	0	0
2024-08-29 15:54:47			0	38263	0	0	0	30192	28760	152216	27185	1083520	47040	111239	0	0	8117	528501	0	0
2024-08-29 15:55:47			0	38253	0	0	0	30176	28780	152184	27088	1083548	47041	111233	0	0	8117	528816	0	0
2024-08-29 15:56:47			0	38246	0	0	0	30176	28770	152256	26946	1083539	47007	111233	0	0	8116	529111	0	0
2024-08-29 15:57:47			0	38247	0	0	0	30205	28780	152288	27371	1083584	47041	111244	0	0	8116	529043	0	0
2024-08-29 15:58:47			0	38218	0	0	0	30189	28790	152200	27338	1083566	47032	111238	0	0	8115	530106	0	0
2024-08-29 15:59:47			0	38231	0	0	0	30186	28780	152200	26998	1083584	47020	111237	0	0	8115	529646	0	0
2024-08-29 16:00:47			0	38249	0	0	0	30202	28790	152200	27159	1083575	47021	111243	0	0	8116	528937	0	0
2024-08-29 16:01:47			0	38224	0	0	0	30220	28790	152224	27159	1083683	47042	111250	0	0	8115	529880	0	0
2024-08-29 16:02:47			0	38244	0	0	0	30231	28800	152108	27100	1083719	47033	111254	0	0	8116	529094	0	0
2024-08-29 16:03:47			0	38236	0	0	0	30207	28810	152188	27039	1083711	47056	111245	0	0	8116	529366	0	0
2024-08-29 16:04:47			0	38235	0	0	0	30192	28810	152220	26956	1083684	47034	111239	0	0	8116	529403	0	0
2024-08-29 16:05:47			0	38238	0	0	0	30220	28810	152240	27114	1083720	47034	111250	0	0	8115	529290	0	0
2024-08-29 16:06:47			0	38237	0	0	0	30210	28810	152280	26960	1083720	47034	111246	0	0	8116	529328	0	0
2024-08-29 16:07:47			0	38235	0	0	0	30210	28820	152188	27229	1083711	47013	111246	0	0	8116	529373	0	0
2024-08-29 16:08:47			0	38265	0	0	0	30233	28820	152176	26852	1083675	47024	111255	0	0	8117	528242	0	0
2024-08-29 16:09:47			0	38258	0	0	0	30254	28810	152104	26937	1083720	47044	111263	0	0	8116	528536	0	0
2024-08-29 16:10:47			0	38270	0	0	0	30246	28820	152084	26941	1083792	47058	111260	0	0	8117	528053	0	0
2024-08-29 16:11:47			0	38271	0	0	0	30264	28830	152220	27045	1083810	47046	111267	0	0	8117	527985	0	0
2024-08-29 16:12:47			0	38277	0	0	0	30249	28830	152132	27064	1083837	47025	111261	0	0	8117	527759	0	0
2024-08-29 16:13:47			0	38268	0	0	0	30246	28830	151976	27204	1083864	47046	111260	0	0	8117	528098	0	0
2024-08-29 16:14:47			0	38277	0	0	0	30246	28840	152032	27313	1083855	47038	111260	0	0	8117	527728	0	0
2024-08-29 16:15:47			0	38279	0	0	0	30246	28840	151992	27267	1083846	47037	111260	0	0	8118	527653	0	0
2024-08-29 16:16:47			0	38290	0	0	0	30238	28840	152020	27060	1083819	47037	111257	0	0	8118	527239	0	0
2024-08-29 16:17:47			0	38309	0	0	0	30231	28840	152024	27046	1083882	47015	111254	0	0	8119	526525	0	0
2024-08-29 16:18:47			0	38302	0	0	0	30225	28840	151828	27086	1083846	47026	111252	0	0	8119	526788	0	0
2024-08-29 16:19:47			0	38321	0	0	0	30228	28840	151776	27095	1083855	47027	111253	0	0	8120	526074	0	0
2024-08-29 16:20:47			0	38335	0	0	0	30244	28840	151728	26922	1083909	47027	111259	0	0	8121	525548	0	0
2024-08-29 16:21:47			0	38369	0	0	0	30251	28840	151628	27251	1083882	47027	111262	0	0	8123	524272	0	0
2024-08-29 16:22:47			0	38379	0	0	0	30262	28840	151740	26946	1083909	47038	111266	0	0	8123	523897	0	0
2024-08-29 16:23:47			0	38366	0	0	0	30231	28850	151680	26828	1083864	47048	111254	0	0	8123	524354	0	0
2024-08-29 16:24:47			0	38369	0	0	0	30199	28850	151632	27092	1083864	47027	111242	0	0	8123	524241	0	0
2024-08-29 16:25:47			0	38338	0	0	0	30231	28840	151604	27509	1083828	47015	111254	0	0	8121	525435	0	0
2024-08-29 16:26:47			0	38371	0	0	0	30249	28830	151700	27038	1083810	47013	111261	0	0	8123	524227	0	0
2024-08-29 16:27:47			0	38370	0	0	0	30264	28840	151620	27071	1083873	47026	111267	0	0	8122	524234	0	0
2024-08-29 16:28:47			0	38381	0	0	0	30270	28840	151644	26901	1083846	47037	111269	0	0	8123	523822	0	0
2024-08-29 16:29:47			0	38370	0	0	0	30270	28840	151700	27053	1083900	47047	111269	0	0	8122	524234	0	0
2024-08-29 16:30:47			0	38399	0	0	0	30272	28850	151560	27092	1083945	47027	111270	0	0	8124	523117	0	0
2024-08-29 16:31:47			0	38411	0	0	0	30259	28850	151592	26812	1084008	47038	111265	0	0	8125	522668	0	0
2024-08-29 16:32:47			0	38414	0	0	0	30254	28850	151524	26805	1083918	47048	111263	0	0	8125	522556	0	0
2024-08-29 16:33:47			0	38424	0	0	0	30272	28850	151456	26755	1083918	47027	111270	0	0	8125	522182	0	0
2024-08-29 16:34:47			0	38446	0	0	0	30280	28850	151336	27156	1083972	47027	111273	0	0	8127	521359	0	0
2024-08-29 16:35:47			0	38460	0	0	0	30306	28850	151256	27098	1084035	47038	111283	0	0	8127	520836	0	0
2024-08-29 16:36:47			0	38459	0	0	0	30301	28870	151396	26928	1084036	47050	111281	0	0	8127	520813	0	0
2024-08-29 16:37:47			0	38487	0	0	0	30311	28870	151244	27060	1084090	47050	111285	0	0	8128	519768	0	0
2024-08-29 16:38:47			0	38491	0	0	0	30332	28870	151316	26972	1084072	47051	111293	0	0	8128	519619	0	0
2024-08-29 16:39:47			0	38494	0	0	0	30340	28870	151224	26901	1084180	47051	111296	0	0	8128	519507	0	0
2024-08-29 16:40:47			0	38494	0	0	0	30319	28900	151328	26823	1084199	47065	111288	0	0	8129	519417	0	0
2024-08-29 16:41:47			0	38501	0	0	0	30296	28890	151204	26965	1084153	47053	111279	0	0	8130	519186	0	0
2024-08-29 16:42:47			0	38520	0	0	0	30283	28890	151188	27154	1084180	47053	111274	0	0	8131	518478	0	0
2024-08-29 16:43:47			0	38518	0	0	0	30272	28890	151072	27362	1084072	47042	111270	0	0	8131	518553	0	0
2024-08-29 16:44:47			0	38545	0	0	0	30283	28880	150860	27242	1084081	47018	111274	0	0	8132	517578	0	0
2024-08-29 16:45:47			0	38560	0	0	0	30277	28880	150848	27216	1084063	47019	111272	0	0	8133	517020	0	0
2024-08-29 16:46:47			0	38576	0	0	0	30283	28880	150792	27149	1084036	47031	111274	0	0	8134	516426	0	0
2024-08-29 16:47:47			0	38603	0	0	0	30293	28880	150748	27053	1084135	47041	111278	0	0	8135	515423	0	0
2024-08-29 16:48:47			0	38597	0	0	0	30314	28890	150812	26942	1084153	47032	111286	0	0	8135	515616	0	0
2024-08-29 16:49:47			0	38596	0	0	0	30316	28880	150780	27216	1084144	47064	111287	0	0	8135	515683	0	0
2024-08-29 16:50:47			0	38609	0	0	0	30327	28900	150804	27059	1084172	47053	111291	0	0	8135	515141	0	0
2024-08-29 16:51:47			0	38594	0	0	0	30322	28900	150860	27175	1084253	47053	111289	0	0	8134	515697	0	0
2024-08-29 16:52:47			0	38599	0	0	0	30345	28900	150804	26717	1084307	47053	111298	0	0	8134	515512	0	0
2024-08-29 16:53:47			0	38599	0	0	0	30340	28910	150756	26916	1084307	47067	111296	0	0	8134	515482	0	0
2024-08-29 16:54:47			0	38586	0	0	0	30324	28920	150796	26925	1084316	47055	111290	0	0	8134	515934	0	0
2024-08-29 16:55:47			0	38600	0	0	0	30337	28910	150772	27206	1084307	47044	111295	0	0	8135	515445	0	0
2024-08-29 16:56:47			0	38593	0	0	0	30337	28920	150664	27237	1084352	47056	111295	0	0	8134	515675	0	0
2024-08-29 16:57:47			0	38594	0	0	0	30342	28920	150840	27013	1084325	47056	111297	0	0	8134	515637	0	0
2024-08-29 16:58:47			0	38604	0	0	0	30358	28920	150712	27081	1084379	47068	111303	0	0	8135	515266	0	0
2024-08-29 16:59:47			0	38605	0	0	0	30353	28920	150704	27092	1084325	47056	111301	0	0	8135	515229	0	0
2024-08-29 17:00:47			0	38611	0	0	0	30358	28930	150844	26854	1084398	47057	111303	0	0	8135	514977	0	0
2024-08-29 17:01:47			0	38604	0	0	0	30355	28930	150660	27138	1084479	47046	111302	0	0	8135	515237	0	0
2024-08-29 17:02:47			0	38608	0	0	0	30363	28930	150776	26788	1084398	47046	111305	0	0	8135	515088	0	0
2024-08-29 17:03:47			0	38604	0	0	0	30371	28930	150740	26842	1084505	47069	111308	0	0	8134	515237	0	0
2024-08-29 17:04:47			0	38611	0	0	0	30376	28960	150692	26786	1084578	47072	111310	0	0	8135	514887	0	0
2024-08-29 17:05:47			0	38600	0	0	0	30368	28950	150728	26932	1084506	47048	111307	0	0	8134	515325	0	0
2024-08-29 17:06:47			0	38614	0	0	0	30368	28950	150708	26946	1084506	47060	111307	0	0	8135	514806	0	0
2024-08-29 17:07:47			0	38601	0	0	0	30376	28950	150644	27192	1084488	47083	111310	0	0	8134	515288	0	0
2024-08-29 17:08:47			0	38627	0	0	0	30379	28950	150632	27020	1084542	47061	111311	0	0	8136	514324	0	0
2024-08-29 17:09:47			0	38639	0	0	0	30386	28970	150572	26960	1084614	47061	111314	0	0	8136	513820	0	0
2024-08-29 17:10:47			0	38635	0	0	0	30389	28960	150604	26878	1084632	47049	111315	0	0	8136	513998	0	0
2024-08-29 17:11:47			0	38630	0	0	0	30363	28970	150600	27079	1084587	47061	111305	0	0	8136	514153	0	0
2024-08-29 17:12:47			0	38630	0	0	0	30353	28970	150564	26885	1084596	47028	111301	0	0	8136	514153	0	0
2024-08-29 17:13:47			0	38643	0	0	0	30389	28970	150528	27053	1084542	47061	111315	0	0	8136	513672	0	0
2024-08-29 17:14:47			0	38642	0	0	0	30371	28980	150452	26786	1084605	47062	111308	0	0	8137	513679	0	0
2024-08-29 17:15:47			0	38661	0	0	0	30366	28980	150528	26892	1084551	47062	111306	0	0	8138	512976	0	0
2024-08-29 17:16:47			0	38648	0	0	0	30358	28980	150520	27036	1084551	47041	111303	0	0	8137	513457	0	0
2024-08-29 17:17:47			0	38657	0	0	0	30363	28980	150492	26965	1084551	47062	111305	0	0	8138	513124	0	0
2024-08-29 17:18:47			0	38673	0	0	0	30363	28970	150520	26684	1084515	47040	111305	0	0	8139	512562	0	0
2024-08-29 17:19:47			0	38656	0	0	0	30373	28980	150448	26632	1084480	47041	111309	0	0	8138	513161	0	0
2024-08-29 17:20:47			0	38693	0	0	0	30373	28960	150520	27097	1084524	47072	111309	0	0	8140	511853	0	0
2024-08-29 17:21:47			0	38666	0	0	0	30363	28970	150308	27020	1084587	47039	111305	0	0	8138	512821	0	0
2024-08-29 17:22:47			0	38678	0	0	0	30371	28970	150340	26767	1084614	47061	111308	0	0	8139	512377	0	0
2024-08-29 17:23:47			0	38670	0	0	0	30381	28980	150332	27100	1084605	47074	111312	0	0	8138	512643	0	0
2024-08-29 17:24:47			0	38697	0	0	0	30379	28970	150348	26838	1084596	47050	111311	0	0	8140	511675	0	0
2024-08-29 17:25:47			0	38690	0	0	0	30379	28970	150292	27066	1084650	47061	111311	0	0	8139	511934	0	0
2024-08-29 17:26:47			0	38695	0	0	0	30379	28970	150256	27071	1084623	47040	111311	0	0	8140	511749	0	0
2024-08-29 17:27:47			0	38694	0	0	0	30376	28980	150272	27253	1084632	47051	111310	0	0	8140	511756	0	0
2024-08-29 17:28:47			0	38694	0	0	0	30371	28980	150344	27270	1084659	47062	111308	0	0	8140	511756	0	0
2024-08-29 17:29:47			0	38703	0	0	0	30366	28970	150296	26844	1084587	47061	111306	0	0	8140	511454	0	0
2024-08-29 17:30:47			0	38694	0	0	0	30366	28980	150240	27109	1084578	47041	111306	0	0	8140	511756	0	0
2024-08-29 17:31:47			0	38694	0	0	0	30358	28980	150216	26641	1084587	47062	111303	0	0	8140	511756	0	0
2024-08-29 17:32:47			0	38699	0	0	0	30358	28980	150276	27013	1084551	47074	111303	0	0	8140	511572	0	0
2024-08-29 17:33:47			0	38735	0	0	0	30353	28970	150233	26720	1084569	47061	111301	0	0	8142	510273	0	0
2024-08-29 17:34:47			0	38746	0	0	0	30366	28970	150125	27059	1084533	47049	111306	0	0	8143	509868	0	0
2024-08-29 17:35:47			0	38723	0	0	0	30376	28970	150064	26854	1084596	47040	111310	0	0	8141	510716	0	0
2024-08-29 17:36:47			0	38749	0	0	0	30376	28970	150113	26831	1084587	47039	111310	0	0	8143	509757	0	0
2024-08-29 17:37:47			0	38761	0	0	0	30373	28970	150117	26942	1084641	47072	111309	0	0	8143	509315	0	0
2024-08-29 17:38:47			0	38741	0	0	0	30371	28970	150053	26793	1084542	47040	111308	0	0	8142	510052	0	0
2024-08-29 17:39:47			0	38745	0	0	0	30361	28970	150045	27249	1084623	47050	111304	0	0	8143	509904	0	0
2024-08-29 17:40:47			0	38763	0	0	0	30368	28980	150025	27171	1084578	47062	111307	0	0	8144	509212	0	0
2024-08-29 17:41:47			0	38756	0	0	0	30355	28980	150025	26906	1084632	47062	111302	0	0	8144	509469	0	0
2024-08-29 17:42:47			0	38761	0	0	0	30355	28980	149949	27008	1084659	47029	111302	0	0	8144	509285	0	0
2024-08-29 17:43:47			0	38784	0	0	0	30358	28980	149985	27154	1084614	47062	111303	0	0	8145	508439	0	0
2024-08-29 17:44:47			0	38785	0	0	0	30363	28970	149837	27258	1084623	47040	111305	0	0	8145	508431	0	0
2024-08-29 17:45:47			0	38779	0	0	0	30379	28970	149881	26734	1084623	47061	111311	0	0	8144	508652	0	0
2024-08-29 17:46:47			0	38803	0	0	0	30371	28970	149853	27176	1084569	47040	111308	0	0	8146	507769	0	0
2024-08-29 17:47:47			0	38796	0	0	0	30366	28970	149817	26960	1084569	47073	111306	0	0	8146	508027	0	0
2024-08-29 17:48:47			0	38806	0	0	0	30379	28980	149841	27003	1084659	47041	111311	0	0	8146	507630	0	0
2024-08-29 17:49:47			0	38787	0	0	0	30355	28980	149925	26904	1084587	47051	111302	0	0	8145	508328	0	0
2024-08-29 17:50:47			0	38786	0	0	0	30342	28980	149961	26972	1084605	47074	111297	0	0	8145	508365	0	0
2024-08-29 17:51:47			0	38796	0	0	0	30329	28970	149813	27256	1084479	47061	111292	0	0	8146	508027	0	0
2024-08-29 17:52:47			0	38809	0	0	0	30293	28970	149793	27206	1084434	47050	111278	0	0	8148	507549	0	0
2024-08-29 17:53:47			0	38824	0	0	0	30306	28970	149697	26996	1084398	47049	111283	0	0	8148	506998	0	0
2024-08-29 17:54:47			0	38824	0	0	0	30316	28950	149733	27067	1084407	47049	111287	0	0	8148	507056	0	0
2024-08-29 17:55:47			0	38846	0	0	0	30332	28950	149709	26661	1084425	47060	111293	0	0	8149	506249	0	0
2024-08-29 17:56:47			0	38827	0	0	0	30332	28950	149733	27197	1084425	47060	111293	0	0	8148	506946	0	0
2024-08-29 17:57:47			0	38831	0	0	0	30319	28950	149749	27060	1084380	47061	111288	0	0	8148	506799	0	0
2024-08-29 17:58:47			0	38814	0	0	0	30314	28930	149789	26951	1084451	47069	111286	0	0	8147	507483	0	0
2024-08-29 17:59:47			0	38838	0	0	0	30337	28940	149833	27124	1084407	47057	111295	0	0	8148	506572	0	0
2024-08-29 18:00:47			0	38807	0	0	0	30322	28950	149949	27279	1084425	47071	111289	0	0	8147	507681	0	0
2024-08-29 18:01:47			0	38819	0	0	0	30342	28940	149889	27086	1084416	47059	111297	0	0	8147	507270	0	0
2024-08-29 18:02:47			0	38818	0	0	0	30348	28950	149781	26816	1084344	47060	111299	0	0	8147	507277	0	0
2024-08-29 18:03:47			0	38828	0	0	0	30363	28940	149877	26961	1084470	47070	111305	0	0	8147	506939	0	0
2024-08-29 18:04:47			0	38822	0	0	0	30368	28950	149929	27152	1084560	47060	111307	0	0	8147	507130	0	0
2024-08-29 18:05:47			0	38798	0	0	0	30361	28950	149853	26783	1084479	47082	111304	0	0	8146	508012	0	0
2024-08-29 18:06:47			0	38799	0	0	0	30373	28950	149881	27112	1084542	47061	111309	0	0	8146	507975	0	0
2024-08-29 18:07:47			0	38789	0	0	0	30371	28960	149925	26920	1084632	47061	111308	0	0	8145	508314	0	0
2024-08-29 18:08:47			0	38779	0	0	0	30389	28970	149921	27007	1084560	47061	111315	0	0	8144	508652	0	0
2024-08-29 18:09:47			0	38785	0	0	0	30368	28960	149957	26838	1084605	47072	111307	0	0	8145	508461	0	0
2024-08-29 18:10:47			0	38775	0	0	0	30379	28960	149961	26809	1084551	47072	111311	0	0	8144	508829	0	0
2024-08-29 18:11:47			0	38774	0	0	0	30350	28970	150073	26870	1084560	47083	111300	0	0	8145	508836	0	0
2024-08-29 18:12:47			0	38735	0	0	0	30337	28970	149985	26849	1084506	47049	111295	0	0	8143	510273	0	0
2024-08-29 18:13:47			0	38733	0	0	0	30361	28980	150193	27107	1084524	47041	111304	0	0	8142	510317	0	0
2024-08-29 18:14:47			0	38717	0	0	0	30340	28970	150180	27007	1084560	47049	111296	0	0	8141	510937	0	0
2024-08-29 18:15:47			0	38705	0	0	0	30314	28960	150248	26944	1084389	47061	111286	0	0	8141	511409	0	0
2024-08-29 18:16:47			0	38682	0	0	0	30298	28950	150264	26916	1084398	47026	111280	0	0	8140	512289	0	0
2024-08-29 18:17:47			0	38653	0	0	0	30309	28950	150428	26909	1084371	47048	111284	0	0	8138	513361	0	0
2024-08-29 18:18:47			0	38663	0	0	0	30311	28930	150484	26651	1084371	47036	111285	0	0	8139	513051	0	0
2024-08-29 18:19:47			0	38622	0	0	0	30329	28940	150364	26837	1084488	47069	111292	0	0	8136	514539	0	0
2024-08-29 18:20:47			0	38650	0	0	0	30311	28930	150536	26925	1084451	47046	111285	0	0	8138	513532	0	0
2024-08-29 18:21:47			0	38620	0	0	0	30283	28930	150536	26979	1084371	47046	111274	0	0	8137	514643	0	0
2024-08-29 18:22:47			0	38614	0	0	0	30254	28930	150456	26634	1084254	47057	111263	0	0	8137	514866	0	0
2024-08-29 18:23:47			0	38607	0	0	0	30296	28920	150492	26987	1084298	47045	111279	0	0	8136	515155	0	0
2024-08-29 18:24:47			0	38604	0	0	0	30311	28910	150684	26941	1084280	47055	111285	0	0	8135	515296	0	0
2024-08-29 18:25:47			0	38600	0	0	0	30306	28920	150580	26996	1084379	47045	111283	0	0	8135	515415	0	0
2024-08-29 18:26:47			0	38604	0	0	0	30293	28920	150612	27086	1084262	47044	111278	0	0	8136	515266	0	0
2024-08-29 18:27:47			0	38593	0	0	0	30262	28910	150636	26713	1084253	47044	111266	0	0	8135	515705	0	0
2024-08-29 18:28:47			0	38587	0	0	0	30275	28920	150676	26987	1084208	47055	111271	0	0	8135	515897	0	0
2024-08-29 18:29:47			0	38588	0	0	0	30288	28910	150692	26824	1084253	47067	111276	0	0	8135	515890	0	0
2024-08-29 18:30:47			0	38578	0	0	0	30259	28910	150752	26684	1084217	47034	111265	0	0	8135	516261	0	0
2024-08-29 18:31:47			0	38559	0	0	0	30254	28900	150720	27015	1084154	47021	111263	0	0	8134	516997	0	0
2024-08-29 18:32:47			0	38581	0	0	0	30267	28900	150832	26887	1084145	47032	111268	0	0	8135	516180	0	0
2024-08-29 18:33:47			0	38571	0	0	0	30270	28900	150928	26904	1084100	47043	111269	0	0	8134	516551	0	0
2024-08-29 18:34:47			0	38568	0	0	0	30285	28890	150812	27069	1084153	47042	111275	0	0	8134	516693	0	0
2024-08-29 18:35:47			0	38550	0	0	0	30288	28890	150632	27403	1084162	47065	111276	0	0	8132	517362	0	0
2024-08-29 18:36:47			0	38540	0	0	0	30298	28880	150792	26821	1084162	47063	111280	0	0	8132	517764	0	0
2024-08-29 18:37:47			0	38542	0	0	0	30303	28890	150840	27140	1084261	47053	111282	0	0	8132	517659	0	0
2024-08-29 18:38:47			0	38538	0	0	0	30296	28900	150744	26922	1084172	47053	111279	0	0	8132	517778	0	0
2024-08-29 18:39:47			0	38544	0	0	0	30301	28900	150856	26708	1084181	47054	111281	0	0	8132	517555	0	0
2024-08-29 18:40:47			0	38547	0	0	0	30293	28890	150872	27121	1084162	47053	111278	0	0	8132	517473	0	0
2024-08-29 18:41:47			0	38546	0	0	0	30280	28890	150856	27126	1084180	47053	111273	0	0	8132	517511	0	0
2024-08-29 18:42:47			0	38543	0	0	0	30275	28890	150972	27249	1084099	47053	111271	0	0	8132	517622	0	0
2024-08-29 18:43:47			0	38542	0	0	0	30262	28890	150844	27020	1084126	47065	111266	0	0	8132	517659	0	0
2024-08-29 18:44:47			0	38536	0	0	0	30262	28870	150892	27137	1084099	47051	111266	0	0	8132	517943	0	0
2024-08-29 18:45:47			0	38538	0	0	0	30264	28870	150808	27000	1084099	47051	111267	0	0	8132	517868	0	0
2024-08-29 18:46:47			0	38536	0	0	0	30272	28880	150876	27053	1084081	47051	111270	0	0	8132	517913	0	0
2024-08-29 18:47:47			0	38525	0	0	0	30270	28880	150944	27008	1084063	47064	111269	0	0	8131	518322	0	0
2024-08-29 18:48:47			0	38531	0	0	0	30272	28870	150888	27001	1084099	47051	111270	0	0	8132	518129	0	0
2024-08-29 18:49:47			0	38564	0	0	0	30283	28880	150964	26982	1084108	47063	111274	0	0	8133	516871	0	0
2024-08-29 18:50:47			0	38530	0	0	0	30257	28870	150972	27008	1084099	47041	111264	0	0	8132	518166	0	0
2024-08-29 18:51:47			0	38515	0	0	0	30267	28870	150932	27325	1084126	47051	111268	0	0	8131	518725	0	0
2024-08-29 18:52:47			0	38529	0	0	0	30275	28870	150912	27173	1084090	47050	111271	0	0	8131	518203	0	0
2024-08-29 18:53:47			0	38519	0	0	0	30270	28860	151016	26873	1084081	47050	111269	0	0	8131	518606	0	0
2024-08-29 18:54:47			0	38535	0	0	0	30277	28870	151076	26800	1084072	47074	111272	0	0	8132	517980	0	0
2024-08-29 18:55:47			0	38525	0	0	0	30275	28870	151048	26925	1084126	47051	111271	0	0	8131	518352	0	0
2024-08-29 18:56:47			0	38514	0	0	0	30275	28870	150996	26729	1084009	47050	111271	0	0	8131	518762	0	0
2024-08-29 18:57:47			0	38505	0	0	0	30275	28880	151056	26634	1084054	47051	111271	0	0	8130	519067	0	0
2024-08-29 18:58:47			0	38507	0	0	0	30280	28860	151124	26809	1084027	47073	111273	0	0	8130	519053	0	0
2024-08-29 18:59:47			0	38522	0	0	0	30283	28870	151140	26899	1084036	47040	111274	0	0	8131	518464	0	0
2024-08-29 19:00:47			0	38497	0	0	0	30272	28870	151080	26911	1084090	47050	111270	0	0	8130	519395	0	0
2024-08-29 19:01:47			0	38496	0	0	0	30275	28870	151128	26906	1084090	47040	111271	0	0	8130	519433	0	0
2024-08-29 19:02:47			0	38503	0	0	0	30270	28870	151016	26717	1084045	47051	111269	0	0	8130	519172	0	0
2024-08-29 19:03:47			0	38490	0	0	0	30262	28870	151156	26975	1084036	47073	111266	0	0	8129	519656	0	0
2024-08-29 19:04:47			0	38503	0	0	0	30267	28870	151076	27015	1084018	47030	111268	0	0	8130	519172	0	0
2024-08-29 19:05:47			0	38508	0	0	0	30262	28860	151068	27126	1083990	47061	111266	0	0	8130	519016	0	0
2024-08-29 19:06:47			0	38504	0	0	0	30257	28860	151136	27227	1084027	47050	111264	0	0	8130	519165	0	0
2024-08-29 19:07:47			0	38503	0	0	0	30254	28860	151108	26722	1084027	47050	111263	0	0	8130	519202	0	0
2024-08-29 19:08:47			0	38494	0	0	0	30257	28850	151180	27239	1083954	47048	111264	0	0	8130	519567	0	0
2024-08-29 19:09:47			0	38494	0	0	0	30246	28860	151144	26928	1084017	47049	111260	0	0	8130	519537	0	0
2024-08-29 19:10:47			0	38479	0	0	0	30246	28860	151108	26863	1083990	47049	111260	0	0	8129	520097	0	0
2024-08-29 19:11:47			0	38489	0	0	0	30238	28850	151148	26994	1083981	47038	111257	0	0	8130	519754	0	0
2024-08-29 19:12:47			0	38491	0	0	0	30241	28860	151112	26934	1083963	47049	111258	0	0	8130	519649	0	0
2024-08-29 19:13:47			0	38485	0	0	0	30244	28860	151224	26882	1084000	47040	111259	0	0	8129	519873	0	0
2024-08-29 19:14:47			0	38476	0	0	0	30246	28850	151188	26823	1083972	47060	111260	0	0	8129	520239	0	0
2024-08-29 19:15:47			0	38473	0	0	0	30251	28850	151272	26802	1083981	47060	111262	0	0	8129	520351	0	0
2024-08-29 19:16:47			0	38468	0	0	0	30246	28850	151304	26956	1083945	47060	111260	0	0	8128	520538	0	0
2024-08-29 19:17:47			0	38458	0	0	0	30254	28850	151244	26696	1083999	47048	111263	0	0	8128	520911	0	0
2024-08-29 19:18:47			0	38470	0	0	0	30259	28850	151132	26842	1083999	47060	111265	0	0	8128	520463	0	0
2024-08-29 19:19:47			0	38450	0	0	0	30251	28850	151272	27027	1083999	47060	111262	0	0	8127	521210	0	0
2024-08-29 19:20:47			0	38454	0	0	0	30257	28850	151248	27112	1083945	47060	111264	0	0	8127	521060	0	0
2024-08-29 19:21:47			0	38449	0	0	0	30257	28850	151244	27001	1083927	47048	111264	0	0	8127	521247	0	0
2024-08-29 19:22:47			0	38470	0	0	0	30251	28850	151244	27256	1084008	47060	111262	0	0	8128	520463	0	0
2024-08-29 19:23:47			0	38454	0	0	0	30238	28850	151368	26814	1083900	47071	111257	0	0	8128	521060	0	0
2024-08-29 19:24:47			0	38469	0	0	0	30212	28850	151356	27291	1083927	47060	111247	0	0	8129	520500	0	0
2024-08-29 19:25:47			0	38469	0	0	0	30148	28840	151268	27166	1083873	47047	111222	0	0	8130	520530	0	0
2024-08-29 19:26:47			0	38466	0	0	0	30153	28840	151292	27187	1083711	47026	111224	0	0	8130	520642	0	0
2024-08-29 19:27:47			0	38464	0	0	0	30192	28830	151292	26946	1083774	47046	111239	0	0	8129	520747	0	0
2024-08-29 19:28:47			0	38464	0	0	0	30194	28820	151332	26963	1083729	47035	111240	0	0	8129	520777	0	0
2024-08-29 19:29:47			0	38459	0	0	0	30197	28810	151284	27133	1083720	47056	111241	0	0	8128	520994	0	0
2024-08-29 19:30:47			0	38455	0	0	0	30176	28820	151364	26986	1083729	47035	111233	0	0	8129	521114	0	0
2024-08-29 19:31:47			0	38439	0	0	0	30137	28810	151400	27090	1083720	47044	111218	0	0	8128	521742	0	0
2024-08-29 19:32:47			0	38453	0	0	0	30096	28800	151360	27225	1083594	47033	111202	0	0	8130	521249	0	0
2024-08-29 19:33:47			0	38428	0	0	0	30111	28800	151320	27119	1083558	47043	111208	0	0	8128	522183	0	0
2024-08-29 19:34:47			0	38448	0	0	0	30109	28790	151336	27050	1083566	47032	111207	0	0	8129	521466	0	0
2024-08-29 19:35:47			0	38431	0	0	0	30114	28780	151408	27069	1083476	47041	111209	0	0	8128	522132	0	0
2024-08-29 19:36:47			0	38438	0	0	0	30158	28780	151408	27232	1083530	47041	111226	0	0	8128	521870	0	0
2024-08-29 19:37:47			0	38430	0	0	0	30155	28770	151532	27176	1083512	47041	111225	0	0	8127	522199	0	0
2024-08-29 19:38:47			0	38424	0	0	0	30150	28770	151520	26870	1083503	47040	111223	0	0	8127	522424	0	0
2024-08-29 19:39:47			0	38438	0	0	0	30093	28770	151508	26916	1083404	47030	111201	0	0	8129	521900	0	0
2024-08-29 19:40:47			0	38429	0	0	0	30088	28760	151552	27086	1083376	47029	111199	0	0	8128	522267	0	0
2024-08-29 19:41:47			0	38422	0	0	0	30096	28760	151536	27078	1083376	47051	111202	0	0	8128	522529	0	0
2024-08-29 19:42:47			0	38421	0	0	0	30124	28750	151572	27114	1083313	47028	111213	0	0	8127	522597	0	0
2024-08-29 19:43:47			0	38419	0	0	0	30109	28740	151596	27048	1083349	47027	111207	0	0	8127	522702	0	0
2024-08-29 19:44:47			0	38410	0	0	0	30103	28740	151656	27192	1083313	47037	111205	0	0	8127	523039	0	0
2024-08-29 19:45:47			0	38414	0	0	0	30080	28740	151708	26909	1083394	47048	111196	0	0	8128	522889	0	0
2024-08-29 19:46:47			0	38409	0	0	0	30020	28740	151652	26866	1083286	47026	111173	0	0	8128	523076	0	0
2024-08-29 19:47:47			0	38372	0	0	0	29986	28730	151632	27223	1083106	47013	111160	0	0	8127	524493	0	0
2024-08-29 19:48:47			0	38358	0	0	0	30005	28710	151792	27209	1083052	47012	111167	0	0	8125	525080	0	0
2024-08-29 19:49:47			0	38323	0	0	0	30012	28710	151988	26975	1083016	47011	111170	0	0	8123	526395	0	0
2024-08-29 19:50:47			0	38305	0	0	0	29997	28690	152016	27039	1082961	47010	111164	0	0	8123	527133	0	0
2024-08-29 19:51:47			0	38297	0	0	0	30012	28690	152024	27206	1083006	47032	111170	0	0	8122	527434	0	0
2024-08-29 19:52:47			0	38273	0	0	0	30049	28670	152104	26873	1082952	47030	111184	0	0	8120	528399	0	0
2024-08-29 19:53:47			0	38259	0	0	0	30070	28680	152172	27234	1082988	47031	111192	0	0	8119	528897	0	0
2024-08-29 19:54:47			0	38259	0	0	0	30062	28680	152268	27074	1082988	47042	111189	0	0	8119	528897	0	0
2024-08-29 19:55:47			0	38245	0	0	0	30044	28680	152240	27093	1083069	47042	111182	0	0	8118	529425	0	0
2024-08-29 19:56:47			0	38256	0	0	0	30080	28690	152228	27095	1083033	47032	111196	0	0	8118	528979	0	0
2024-08-29 19:57:47			0	38239	0	0	0	30106	28680	152224	26861	1083069	47053	111206	0	0	8117	529651	0	0
2024-08-29 19:58:47			0	38248	0	0	0	30116	28690	152368	26948	1083114	47043	111210	0	0	8117	529281	0	0
2024-08-29 19:59:47			0	38240	0	0	0	30096	28680	152236	26873	1083213	47065	111202	0	0	8117	529613	0	0
2024-08-29 20:00:47			0	38244	0	0	0	30101	28700	152364	26838	1083159	47044	111204	0	0	8117	529401	0	0
2024-08-29 20:01:47			0	38239	0	0	0	30116	28700	152360	27237	1083159	47044	111210	0	0	8117	529590	0	0
2024-08-29 20:02:47			0	38229	0	0	0	30096	28700	152396	27074	1083186	47055	111202	0	0	8117	529967	0	0
2024-08-29 20:03:47			0	38225	0	0	0	30098	28690	152480	27062	1083150	47055	111203	0	0	8116	530149	0	0
2024-08-29 20:04:47			0	38206	0	0	0	30103	28690	152444	26859	1083204	47044	111205	0	0	8115	530867	0	0
2024-08-29 20:05:47			0	38191	0	0	0	30096	28700	152440	26823	1083186	47044	111202	0	0	8114	531403	0	0
2024-08-29 20:06:47			0	38192	0	0	0	30101	28700	152464	26833	1083240	47055	111204	0	0	8114	531365	0	0
2024-08-29 20:07:47			0	38192	0	0	0	30101	28690	152496	27029	1083177	47044	111204	0	0	8114	531396	0	0
2024-08-29 20:08:47			0	38185	0	0	0	30111	28700	152488	26930	1083195	47045	111208	0	0	8114	531630	0	0
2024-08-29 20:09:47			0	38202	0	0	0	30093	28710	152472	27114	1083205	47045	111201	0	0	8115	530957	0	0
2024-08-29 20:10:47			0	38192	0	0	0	30085	28700	152400	26739	1083141	47056	111198	0	0	8115	531365	0	0
2024-08-29 20:11:47			0	38203	0	0	0	30080	28700	152448	26930	1083186	47044	111196	0	0	8115	530950	0	0
2024-08-29 20:12:47			0	38191	0	0	0	30080	28700	152452	27017	1083115	47045	111196	0	0	8115	531403	0	0
2024-08-29 20:13:47			0	38173	0	0	0	30088	28700	152520	27013	1083115	47045	111199	0	0	8113	532084	0	0
2024-08-29 20:14:47			0	38164	0	0	0	30083	28690	152528	27263	1083069	47055	111197	0	0	8113	532456	0	0
2024-08-29 20:15:47			0	38175	0	0	0	30088	28700	152540	27118	1083168	47045	111199	0	0	8114	532009	0	0
2024-08-29 20:16:47			0	38191	0	0	0	30090	28690	152440	27123	1083123	47044	111200	0	0	8114	531434	0	0
2024-08-29 20:17:47			0	38172	0	0	0	30072	28690	152448	27038	1083177	47044	111193	0	0	8114	532153	0	0
2024-08-29 20:18:47			0	38160	0	0	0	30077	28680	152520	26916	1083051	47043	111195	0	0	8113	532638	0	0
2024-08-29 20:19:47			0	38177	0	0	0	30059	28690	152456	26831	1083069	47044	111188	0	0	8114	531964	0	0
2024-08-29 20:20:47			0	38181	0	0	0	30028	28690	152448	26831	1083087	47054	111176	0	0	8115	531813	0	0
2024-08-29 20:21:47			0	38191	0	0	0	30041	28680	152556	26708	1083015	47031	111181	0	0	8115	531465	0	0
2024-08-29 20:22:47			0	38164	0	0	0	30041	28680	152560	27067	1082970	47032	111181	0	0	8114	532487	0	0
2024-08-29 20:23:47			0	38173	0	0	0	30010	28670	152624	26802	1082979	47041	111169	0	0	8115	532177	0	0
2024-08-29 20:24:47			0	38197	0	0	0	29973	28670	152500	27067	1082898	47041	111155	0	0	8117	531269	0	0
2024-08-29 20:25:47			0	38210	0	0	0	29961	28660	152424	27126	1082907	47041	111150	0	0	8118	530808	0	0
2024-08-29 20:26:47			0	38206	0	0	0	29953	28660	152416	26752	1082826	47041	111147	0	0	8117	530959	0	0
2024-08-29 20:27:47			0	38178	0	0	0	29966	28640	152468	27280	1082798	47040	111152	0	0	8116	532080	0	0
2024-08-29 20:28:47			0	38192	0	0	0	29953	28640	152548	27157	1082708	47027	111147	0	0	8117	531550	0	0
2024-08-29 20:29:47			0	38174	0	0	0	29948	28620	152560	26899	1082726	47037	111145	0	0	8116	532293	0	0
2024-08-29 20:30:47			0	38182	0	0	0	29963	28630	152600	26861	1082753	47027	111151	0	0	8116	531959	0	0
2024-08-29 20:31:47			0	38161	0	0	0	29971	28630	152672	26996	1082726	47039	111154	0	0	8114	532755	0	0
2024-08-29 20:32:47			0	38151	0	0	0	29950	28630	152744	27076	1082753	47027	111146	0	0	8114	533134	0	0
2024-08-29 20:33:47			0	38149	0	0	0	29981	28610	152728	27097	1082717	47037	111158	0	0	8113	533271	0	0
2024-08-29 20:34:47			0	38134	0	0	0	29989	28620	152660	27326	1082708	47058	111161	0	0	8113	533809	0	0
2024-08-29 20:35:47			0	38161	0	0	0	29999	28610	152684	26842	1082717	47037	111165	0	0	8114	532816	0	0
2024-08-29 20:36:47			0	38131	0	0	0	30020	28610	152744	27249	1082771	47025	111173	0	0	8112	533954	0	0
2024-08-29 20:37:47			0	38132	0	0	0	30010	28610	152760	27118	1082771	47037	111169	0	0	8112	533916	0	0
2024-08-29 20:38:47			0	38128	0	0	0	29911	28620	152792	26748	1082780	47037	111131	0	0	8114	534037	0	0
2024-08-29 20:39:47			0	38137	0	0	0	29870	28620	152716	27201	1082681	47025	111115	0	0	8115	533695	0	0
2024-08-29 20:40:47			0	38129	0	0	0	29864	28610	152616	27213	1082573	47024	111113	0	0	8114	534030	0	0
2024-08-29 20:41:47			0	38143	0	0	0	29841	28600	152796	27216	1082501	46990	111104	0	0	8115	533530	0	0
2024-08-29 20:42:47			0	38106	0	0	0	29810	28580	152764	26849	1082357	46999	111092	0	0	8114	534996	0	0
2024-08-29 20:43:47			0	38132	0	0	0	29805	28570	152708	26826	1082293	46998	111090	0	0	8115	534040	0	0
2024-08-29 20:44:47			0	38130	0	0	0	29810	28560	152832	27256	1082212	47007	111092	0	0	8115	534146	0	0
2024-08-29 20:45:47			0	38134	0	0	0	29810	28540	152824	26719	1082131	46995	111092	0	0	8115	534057	0	0
2024-08-29 20:46:47			0	38087	0	0	0	29802	28540	152852	27105	1082158	46995	111089	0	0	8113	535842	0	0
2024-08-29 20:47:47			0	38098	0	0	0	29802	28530	152900	27043	1082077	47016	111089	0	0	8113	535455	0	0
2024-08-29 20:48:47			0	38107	0	0	0	29794	28520	153000	27067	1082067	47004	111086	0	0	8114	535144	0	0
2024-08-29 20:49:47			0	38089	0	0	0	29792	28510	153004	26755	1081959	46992	111085	0	0	8113	535859	0	0
2024-08-29 20:50:47			0	38086	0	0	0	29776	28490	152984	27064	1081878	46978	111079	0	0	8113	536035	0	0
2024-08-29 20:51:47			0	38084	0	0	0	29779	28480	152900	26668	1081806	46989	111080	0	0	8113	536142	0	0
2024-08-29 20:52:47			0	38095	0	0	0	29781	28470	153016	27022	1081815	46976	111081	0	0	8113	535755	0	0
2024-08-29 20:53:47			0	38086	0	0	0	29784	28460	153036	26850	1081770	46987	111082	0	0	8113	536128	0	0
2024-08-29 20:54:47			0	38084	0	0	0	29776	28460	153080	27164	1081760	47008	111079	0	0	8113	536204	0	0
2024-08-29 20:55:47			0	38082	0	0	0	29776	28470	153012	26902	1081806	47020	111079	0	0	8112	536249	0	0
2024-08-29 20:56:47			0	38076	0	0	0	29766	28450	153080	27251	1081724	47007	111075	0	0	8112	536540	0	0
2024-08-29 20:57:47			0	38067	0	0	0	29755	28450	153132	26909	1081661	47007	111071	0	0	8112	536883	0	0
2024-08-29 20:58:47			0	38073	0	0	0	29763	28440	153112	27147	1081679	47018	111074	0	0	8112	536685	0	0
2024-08-29 20:59:47			0	38048	0	0	0	29774	28440	153236	27114	1081760	46997	111078	0	0	8110	537638	0	0
2024-08-29 21:00:47			0	38034	0	0	0	29786	28440	153324	27268	1081643	46996	111083	0	0	8109	538172	0	0
2024-08-29 21:01:47			0	38029	0	0	0	29820	28440	153347	27001	1081805	47017	111096	0	0	8109	538362	0	0
2024-08-29 21:02:47			0	38042	0	0	0	29846	28430	153388	27249	1081787	47027	111106	0	0	8109	537898	0	0
2024-08-29 21:03:47			0	38027	0	0	0	29836	28450	153363	27270	1081832	47030	111102	0	0	8108	538407	0	0
2024-08-29 21:04:47			0	38042	0	0	0	29823	28460	153372	27001	1081922	47041	111097	0	0	8109	537804	0	0
2024-08-29 21:05:47			0	38039	0	0	0	29815	28460	153364	27196	1081904	47042	111094	0	0	8109	537919	0	0
2024-08-29 21:06:47			0	38040	0	0	0	29797	28460	153260	27281	1081841	47019	111087	0	0	8110	537881	0	0
2024-08-29 21:07:47			0	38032	0	0	0	29812	28450	153316	27022	1081859	47041	111093	0	0	8109	538217	0	0
2024-08-29 21:08:47			0	38015	0	0	0	29836	28460	153347	27343	1081868	47008	111102	0	0	8108	538834	0	0
2024-08-29 21:09:47			0	38018	0	0	0	29825	28460	153351	26991	1081868	47031	111098	0	0	8108	538720	0	0
2024-08-29 21:10:47			0	38034	0	0	0	29794	28470	153316	27109	1081923	47009	111086	0	0	8109	538078	0	0
2024-08-29 21:11:47			0	38011	0	0	0	29768	28450	153439	26981	1081751	47007	111076	0	0	8108	539018	0	0
2024-08-29 21:12:47			0	38008	0	0	0	29755	28450	153427	27192	1081688	47018	111071	0	0	8108	539133	0	0
2024-08-29 21:13:47			0	38004	0	0	0	29771	28450	153395	27131	1081634	47007	111077	0	0	8108	539285	0	0
2024-08-29 21:14:47			0	38018	0	0	0	29763	28420	153419	26706	1081616	46982	111074	0	0	8109	538844	0	0
2024-08-29 21:15:47			0	37976	0	0	0	29758	28420	153491	27083	1081562	47004	111072	0	0	8106	540449	0	0
2024-08-29 21:16:47			0	37990	0	0	0	29761	28420	153455	26904	1081562	47015	111073	0	0	8107	539914	0	0
2024-08-29 21:17:47			0	37990	0	0	0	29763	28420	153519	26795	1081580	47015	111074	0	0	8107	539914	0	0
2024-08-29 21:18:47			0	37975	0	0	0	29774	28410	153527	27154	1081544	47014	111078	0	0	8106	540519	0	0
2024-08-29 21:19:47			0	37985	0	0	0	29763	28410	153567	27119	1081571	47003	111074	0	0	8107	540136	0	0
2024-08-29 21:20:47			0	38004	0	0	0	29771	28410	153615	26994	1081562	47002	111077	0	0	8108	539410	0	0
2024-08-29 21:21:47			0	37977	0	0	0	29784	28410	153635	27118	1081562	47013	111082	0	0	8106	540442	0	0
2024-08-29 21:22:47			0	37977	0	0	0	29794	28410	153651	27137	1081562	47036	111086	0	0	8106	540442	0	0
2024-08-29 21:23:47			0	37981	0	0	0	29789	28400	153639	27034	1081633	47036	111084	0	0	8106	540321	0	0
2024-08-29 21:24:47			0	37968	0	0	0	29763	28400	153623	26762	1081552	47002	111074	0	0	8106	540818	0	0
2024-08-29 21:25:47			0	37987	0	0	0	29761	28400	153623	27017	1081516	47002	111073	0	0	8107	540091	0	0
2024-08-29 21:26:47			0	37970	0	0	0	29766	28400	153615	27150	1081543	47013	111075	0	0	8106	540741	0	0
2024-08-29 21:27:47			0	37949	0	0	0	29776	28380	153631	27005	1081498	47034	111079	0	0	8104	541608	0	0
2024-08-29 21:28:47			0	37972	0	0	0	29792	28390	153715	27031	1081534	47001	111085	0	0	8105	540696	0	0
2024-08-29 21:29:47			0	37972	0	0	0	29789	28390	153615	26970	1081588	47024	111084	0	0	8106	540696	0	0
2024-08-29 21:30:47			0	37987	0	0	0	29797	28400	153607	27138	1081552	47013	111087	0	0	8106	540091	0	0
2024-08-29 21:31:47			0	37970	0	0	0	29786	28400	153791	27012	1081570	47036	111083	0	0	8106	540741	0	0
2024-08-29 21:32:47			0	37974	0	0	0	29792	28400	153675	26922	1081498	47013	111085	0	0	8106	540588	0	0
2024-08-29 21:33:47			0	37964	0	0	0	29786	28400	153735	27088	1081525	47013	111083	0	0	8105	540971	0	0
2024-08-29 21:34:47			0	37970	0	0	0	29789	28400	153615	26753	1081489	47002	111084	0	0	8105	540741	0	0
2024-08-29 21:35:47			0	37963	0	0	0	29781	28390	153647	27045	1081534	47001	111081	0	0	8105	541041	0	0
2024-08-29 21:36:47			0	37971	0	0	0	29781	28380	153663	26922	1081498	47000	111081	0	0	8106	540766	0	0
2024-08-29 21:37:47			0	37978	0	0	0	29779	28380	153739	26920	1081498	47011	111080	0	0	8106	540498	0	0
2024-08-29 21:38:47			0	37967	0	0	0	29766	28380	153651	26965	1081498	47023	111075	0	0	8106	540919	0	0
2024-08-29 21:39:47			0	37957	0	0	0	29750	28380	153671	27178	1081462	47011	111069	0	0	8105	541302	0	0
2024-08-29 21:40:47			0	37964	0	0	0	29761	28380	153811	26972	1081444	47011	111073	0	0	8106	541034	0	0
2024-08-29 21:41:47			0	37945	0	0	0	29755	28370	153867	27138	1081426	47023	111071	0	0	8104	541793	0	0
2024-08-29 21:42:47			0	37937	0	0	0	29763	28380	153759	26989	1081498	47011	111074	0	0	8104	542068	0	0
2024-08-29 21:43:47			0	37917	0	0	0	29758	28380	153863	26937	1081498	47000	111072	0	0	8103	542835	0	0
2024-08-29 21:44:47			0	37914	0	0	0	29755	28380	153931	27013	1081435	47023	111071	0	0	8103	542950	0	0
2024-08-29 21:45:47			0	37904	0	0	0	29758	28370	153991	27013	1081480	47011	111072	0	0	8102	543365	0	0
2024-08-29 21:46:47			0	37906	0	0	0	29755	28370	153995	27119	1081417	47022	111071	0	0	8102	543288	0	0
2024-08-29 21:47:47			0	37901	0	0	0	29750	28360	154023	26942	1081372	47008	111069	0	0	8102	543511	0	0
2024-08-29 21:48:47			0	37896	0	0	0	29740	28360	154059	26941	1081381	46999	111065	0	0	8102	543703	0	0
2024-08-29 21:49:47			0	37871	0	0	0	29745	28370	154051	26941	1081417	47010	111067	0	0	8100	544633	0	0
2024-08-29 21:50:47			0	37856	0	0	0	29729	28360	154199	26812	1081381	46999	111061	0	0	8100	545241	0	0
2024-08-29 21:51:47			0	37863	0	0	0	29724	28360	154155	27124	1081291	47008	111059	0	0	8100	544972	0	0
2024-08-29 21:52:47			0	37853	0	0	0	29729	28360	154271	27092	1081327	47009	111061	0	0	8100	545356	0	0
2024-08-29 21:53:47			0	37841	0	0	0	29735	28350	154215	27126	1081309	46998	111063	0	0	8099	545850	0	0
2024-08-29 21:54:47			0	37809	0	0	0	29737	28350	154287	26901	1081309	47008	111064	0	0	8097	547082	0	0
2024-08-29 21:55:47			0	37824	0	0	0	29742	28350	154467	26968	1081309	47008	111066	0	0	8098	546504	0	0
2024-08-29 21:56:47			0	37812	0	0	0	29737	28350	154511	26972	1081327	47008	111064	0	0	8097	546967	0	0
2024-08-29 21:57:47			0	37779	0	0	0	29729	28330	154535	27024	1081326	47018	111061	0	0	8095	548303	0	0
2024-08-29 21:58:47			0	37787	0	0	0	29740	28350	154555	26710	1081255	46998	111065	0	0	8096	547931	0	0
2024-08-29 21:59:47			0	37782	0	0	0	29732	28340	154415	26654	1081282	47018	111062	0	0	8095	548156	0	0
2024-08-29 22:00:47			0	37789	0	0	0	29727	28350	154499	26989	1081246	47008	111060	0	0	8096	547854	0	0
2024-08-29 22:01:47			0	37809	0	0	0	29729	28340	154515	27097	1081228	46996	111061	0	0	8097	547114	0	0
2024-08-29 22:02:47			0	37789	0	0	0	29724	28350	154443	27093	1081336	47020	111059	0	0	8096	547854	0	0
2024-08-29 22:03:47			0	37825	0	0	0	29727	28350	154483	27090	1081246	47031	111060	0	0	8098	546466	0	0
2024-08-29 22:04:47			0	37812	0	0	0	29722	28330	154423	27203	1081219	47006	111058	0	0	8097	547030	0	0
2024-08-29 22:05:47			0	37822	0	0	0	29729	28340	154339	26991	1081228	47029	111061	0	0	8098	546613	0	0
2024-08-29 22:06:47			0	37811	0	0	0	29719	28340	154407	26812	1081228	47018	111057	0	0	8097	547037	0	0
2024-08-29 22:07:47			0	37826	0	0	0	29706	28340	154343	27019	1081255	47006	111052	0	0	8098	546459	0	0
2024-08-29 22:08:47			0	37828	0	0	0	29709	28330	154419	26701	1081272	47018	111053	0	0	8098	546413	0	0
2024-08-29 22:09:47			0	37845	0	0	0	29716	28330	154227	26689	1081209	47006	111056	0	0	8099	545759	0	0
2024-08-29 22:10:47			0	37825	0	0	0	29709	28320	154275	26765	1081254	47005	111053	0	0	8098	546560	0	0
2024-08-29 22:11:47			0	37836	0	0	0	29706	28320	154319	26890	1081200	47017	111052	0	0	8099	546137	0	0
2024-08-29 22:12:47			0	37848	0	0	0	29709	28330	154303	26902	1081129	46996	111053	0	0	8099	545643	0	0
2024-08-29 22:13:47			0	37847	0	0	0	29709	28330	154299	27171	1081183	46996	111053	0	0	8099	545682	0	0
2024-08-29 22:14:47			0	37859	0	0	0	29706	28320	154267	26951	1081173	47005	111052	0	0	8100	545251	0	0
2024-08-29 22:15:47			0	37860	0	0	0	29701	28320	154315	27130	1081191	47016	111050	0	0	8100	545213	0	0
2024-08-29 22:16:47			0	37832	0	0	0	29696	28310	154247	26916	1081119	47016	111048	0	0	8099	546322	0	0
2024-08-29 22:17:47			0	37832	0	0	0	29690	28310	154291	27045	1081101	47016	111046	0	0	8099	546322	0	0
2024-08-29 22:18:47			0	37861	0	0	0	29683	28310	154227	27041	1081074	47004	111043	0	0	8101	545206	0	0
2024-08-29 22:19:47			0	37863	0	0	0	29683	28310	154239	27112	1081092	47004	111043	0	0	8101	545129	0	0
2024-08-29 22:20:47			0	37852	0	0	0	29688	28280	154207	27220	1081020	47001	111045	0	0	8100	545647	0	0
2024-08-29 22:21:47			0	37854	0	0	0	29685	28300	154215	27048	1081083	46993	111044	0	0	8100	545507	0	0
2024-08-29 22:22:47			0	37865	0	0	0	29688	28300	154211	27052	1081047	47014	111045	0	0	8101	545084	0	0
2024-08-29 22:23:47			0	37868	0	0	0	29680	28300	154143	27234	1081047	47014	111042	0	0	8101	544968	0	0
2024-08-29 22:24:47			0	37875	0	0	0	29688	28290	154223	27046	1081092	47014	111045	0	0	8101	544731	0	0
2024-08-29 22:25:47			0	37889	0	0	0	29690	28290	154183	26762	1080984	46992	111046	0	0	8102	544192	0	0
2024-08-29 22:26:47			0	37859	0	0	0	29688	28290	154071	26922	1081065	47014	111045	0	0	8100	545346	0	0
2024-08-29 22:27:47			0	37877	0	0	0	29696	28300	154135	26863	1081101	47002	111048	0	0	8101	544622	0	0
2024-08-29 22:28:47			0	37862	0	0	0	29698	28280	154039	26892	1081020	47001	111049	0	0	8100	545262	0	0
2024-08-29 22:29:47			0	37854	0	0	0	29688	28300	154103	26899	1081101	47025	111045	0	0	8100	545507	0	0
2024-08-29 22:30:47			0	37871	0	0	0	29693	28300	154175	26979	1081101	47002	111047	0	0	8101	544853	0	0
2024-08-29 22:31:47			0	37867	0	0	0	29690	28290	154107	27085	1081038	47014	111046	0	0	8101	545038	0	0
2024-08-29 22:32:47			0	37885	0	0	0	29690	28300	154099	26981	1081101	47014	111046	0	0	8102	544315	0	0
2024-08-29 22:33:47			0	37868	0	0	0	29693	28280	154187	27183	1081047	47013	111047	0	0	8101	545031	0	0
2024-08-29 22:34:47			0	37878	0	0	0	29685	28310	154139	26682	1081065	47004	111044	0	0	8102	544552	0	0
2024-08-29 22:35:47			0	37878	0	0	0	29680	28300	154139	27279	1081101	47002	111042	0	0	8102	544584	0	0
2024-08-29 22:36:47			0	37867	0	0	0	29685	28290	154095	27168	1081065	47002	111044	0	0	8101	545038	0	0
2024-08-29 22:37:47			0	37877	0	0	0	29680	28300	154111	27275	1081056	47026	111042	0	0	8102	544622	0	0
2024-08-29 22:38:47			0	37883	0	0	0	29675	28290	154091	26974	1081029	47013	111040	0	0	8102	544423	0	0
2024-08-29 22:39:47			0	37881	0	0	0	29670	28280	154119	27159	1080930	47012	111038	0	0	8102	544531	0	0
2024-08-29 22:40:47			0	37889	0	0	0	29664	28280	154023	26904	1080966	47001	111036	0	0	8102	544224	0	0
2024-08-29 22:41:47			0	37871	0	0	0	29667	28270	154043	27130	1080965	47011	111037	0	0	8101	544947	0	0
2024-08-29 22:42:47			0	37870	0	0	0	29664	28270	154171	27253	1080920	47000	111036	0	0	8101	544986	0	0
2024-08-29 22:43:47			0	37865	0	0	0	29670	28280	154159	27081	1080957	47012	111038	0	0	8101	545147	0	0
2024-08-29 22:44:47			0	37870	0	0	0	29664	28270	154103	27173	1080947	47000	111036	0	0	8101	544986	0	0
2024-08-29 22:45:47			0	37854	0	0	0	29667	28280	154211	27173	1080930	46990	111037	0	0	8100	545570	0	0
2024-08-29 22:46:47			0	37832	0	0	0	29667	28270	154263	27261	1080947	47011	111037	0	0	8099	546449	0	0
2024-08-29 22:47:47			0	37851	0	0	0	29667	28260	154155	26892	1080929	47011	111037	0	0	8100	545748	0	0
2024-08-29 22:48:47			0	37840	0	0	0	29670	28270	154291	27199	1080974	47000	111038	0	0	8099	546140	0	0
2024-08-29 22:49:47			0	37851	0	0	0	29664	28270	154391	27345	1080992	47022	111036	0	0	8100	545717	0	0
2024-08-29 22:50:47			0	37849	0	0	0	29662	28270	154255	27182	1080965	47011	111035	0	0	8100	545794	0	0
2024-08-29 22:51:47			0	37820	0	0	0	29649	28270	154295	26922	1080920	47011	111030	0	0	8099	546911	0	0
2024-08-29 22:52:47			0	37815	0	0	0	29649	28260	154323	27128	1080875	47000	111030	0	0	8098	547136	0	0
2024-08-29 22:53:47			0	37840	0	0	0	29633	28270	154279	26901	1080911	47000	111024	0	0	8100	546140	0	0
2024-08-29 22:54:47			0	37819	0	0	0	29636	28260	154307	27039	1080794	47011	111025	0	0	8099	546981	0	0
2024-08-29 22:55:47			0	37815	0	0	0	29636	28260	154423	27286	1080875	47011	111025	0	0	8098	547136	0	0
2024-08-29 22:56:47			0	37806	0	0	0	29636	28260	154419	27445	1080785	46999	111025	0	0	8098	547483	0	0
2024-08-29 22:57:47			0	37795	0	0	0	29631	28250	154415	27324	1080803	47020	111023	0	0	8097	547939	0	0
2024-08-29 22:58:47			0	37801	0	0	0	29636	28250	154527	27093	1080767	46998	111025	0	0	8098	547707	0	0
2024-08-29 22:59:47			0	37794	0	0	0	29631	28240	154459	27190	1080812	46998	111023	0	0	8097	548009	0	0
2024-08-29 23:00:47			0	37798	0	0	0	29631	28240	154467	27060	1080749	46997	111023	0	0	8097	547855	0	0
2024-08-29 23:01:47			0	37782	0	0	0	29633	28240	154399	26909	1080758	47009	111024	0	0	8097	548472	0	0
2024-08-29 23:02:47			0	37805	0	0	0	29623	28240	154419	27201	1080731	46998	111020	0	0	8098	547585	0	0
2024-08-29 23:03:47			0	37799	0	0	0	29620	28250	154479	27027	1080740	47020	111019	0	0	8098	547784	0	0
2024-08-29 23:04:47			0	37778	0	0	0	29623	28240	154543	26873	1080722	47008	111020	0	0	8096	548627	0	0
2024-08-29 23:05:47			0	37786	0	0	0	29628	28230	154487	27123	1080713	47007	111022	0	0	8097	548350	0	0
2024-08-29 23:06:47			0	37791	0	0	0	29631	28240	154443	26837	1080803	46997	111023	0	0	8097	548125	0	0
2024-08-29 23:07:47			0	37783	0	0	0	29618	28240	154451	27039	1080749	46997	111018	0	0	8097	548434	0	0
2024-08-29 23:08:47			0	37783	0	0	0	29628	28230	154451	26965	1080713	47007	111022	0	0	8097	548465	0	0
2024-08-29 23:09:47			0	37798	0	0	0	29620	28230	154471	27185	1080704	46996	111019	0	0	8098	547886	0	0
2024-08-29 23:10:47			0	37800	0	0	0	29605	28230	154411	27059	1080677	46996	111013	0	0	8098	547809	0	0
2024-08-29 23:11:47			0	37812	0	0	0	29615	28230	154295	27118	1080704	46996	111017	0	0	8099	547346	0	0
2024-08-29 23:12:47			0	37822	0	0	0	29618	28230	154491	26942	1080623	47007	111018	0	0	8099	546960	0	0
2024-08-29 23:13:47			0	37819	0	0	0	29615	28220	154319	27171	1080641	47006	111017	0	0	8099	547108	0	0
2024-08-29 23:14:47			0	37811	0	0	0	29607	28230	154363	26856	1080731	47018	111014	0	0	8099	547385	0	0
2024-08-29 23:15:47			0	37806	0	0	0	29599	28220	154279	26928	1080641	47006	111011	0	0	8098	547609	0	0
2024-08-29 23:16:47			0	37838	0	0	0	29605	28220	154255	26781	1080578	47006	111013	0	0	8100	546375	0	0
2024-08-29 23:17:47			0	37817	0	0	0	29605	28210	154275	27045	1080623	47016	111013	0	0	8099	547216	0	0
2024-08-29 23:18:47			0	37834	0	0	0	29594	28220	154239	27182	1080668	47006	111009	0	0	8100	546529	0	0
2024-08-29 23:19:47			0	37830	0	0	0	29605	28210	154247	27069	1080506	46994	111013	0	0	8100	546715	0	0
2024-08-29 23:20:47			0	37841	0	0	0	29592	28210	154263	26953	1080560	46994	111008	0	0	8100	546291	0	0
2024-08-29 23:21:47			0	37846	0	0	0	29589	28220	154359	27140	1080659	46995	111007	0	0	8101	546067	0	0
2024-08-29 23:22:47			0	37839	0	0	0	29589	28200	154343	27060	1080497	47004	111007	0	0	8100	546400	0	0
2024-08-29 23:23:47			0	37842	0	0	0	29586	28200	154407	27163	1080604	47004	111006	0	0	8101	546284	0	0
2024-08-29 23:24:47			0	37805	0	0	0	29579	28190	154435	26946	1080586	47003	111003	0	0	8099	547743	0	0
2024-08-29 23:25:47			0	37803	0	0	0	29584	28210	154391	26831	1080613	47005	111005	0	0	8098	547757	0	0
2024-08-29 23:26:47			0	37807	0	0	0	29586	28200	154415	27208	1080541	47004	111006	0	0	8099	547634	0	0
2024-08-29 23:27:47			0	37779	0	0	0	29586	28190	154559	26958	1080478	47003	111006	0	0	8097	548747	0	0
2024-08-29 23:28:47			0	37750	0	0	0	29579	28190	154571	26948	1080451	47003	111003	0	0	8095	549868	0	0
2024-08-29 23:29:47			0	37761	0	0	0	29584	28190	154675	26769	1080469	47002	111005	0	0	8096	549442	0	0
2024-08-29 23:30:47			0	37750	0	0	0	29579	28190	154699	27043	1080532	47003	111003	0	0	8095	549868	0	0
2024-08-29 23:31:47			0	37736	0	0	0	29576	28190	154707	27076	1080523	47002	111002	0	0	8095	550410	0	0
2024-08-29 23:32:47			0	37718	0	0	0	29571	28190	154755	27039	1080550	47013	111000	0	0	8094	551107	0	0
2024-08-29 23:33:47			0	37713	0	0	0	29581	28190	154867	26944	1080478	47014	111004	0	0	8093	551301	0	0
2024-08-29 23:34:47			0	37690	0	0	0	29573	28190	154823	26791	1080550	46991	111001	0	0	8092	552193	0	0
2024-08-29 23:35:47			0	37702	0	0	0	29579	28180	154739	26930	1080460	47013	111003	0	0	8093	551759	0	0
2024-08-29 23:36:47			0	37685	0	0	0	29568	28180	154787	26922	1080460	47002	110999	0	0	8092	552418	0	0
2024-08-29 23:37:47			0	37697	0	0	0	29579	28180	154839	27038	1080541	47002	111003	0	0	8092	551953	0	0
2024-08-29 23:38:47			0	37682	0	0	0	29579	28190	154863	26909	1080442	46991	111003	0	0	8091	552503	0	0
2024-08-29 23:39:47			0	37705	0	0	0	29566	28180	154891	26974	1080433	47013	110998	0	0	8093	551643	0	0
2024-08-29 23:40:47			0	37687	0	0	0	29568	28180	154907	27171	1080424	47013	110999	0	0	8092	552341	0	0
2024-08-29 23:41:47			0	37671	0	0	0	29568	28180	154863	26996	1080397	47002	110999	0	0	8091	552962	0	0
2024-08-29 23:42:47			0	37689	0	0	0	29555	28170	154971	26618	1080406	47000	110994	0	0	8092	552295	0	0
2024-08-29 23:43:47			0	37687	0	0	0	29548	28170	154947	26724	1080352	46989	110991	0	0	8092	552373	0	0
2024-08-29 23:44:47			0	37680	0	0	0	29561	28170	154895	26809	1080415	46979	110996	0	0	8092	552644	0	0
2024-08-29 23:45:47			0	37652	0	0	0	29561	28160	154867	26804	1080316	47000	110996	0	0	8090	553764	0	0
2024-08-29 23:46:47			0	37678	0	0	0	29550	28160	154915	26928	1080334	47000	110992	0	0	8092	552754	0	0
2024-08-29 23:47:47			0	37687	0	0	0	29563	28160	155027	26646	1080316	47011	110997	0	0	8092	552405	0	0
2024-08-29 23:48:47			0	37694	0	0	0	29558	28160	154995	26844	1080343	47034	110995	0	0	8092	552133	0	0
2024-08-29 23:49:47			0	37683	0	0	0	29553	28160	155015	26828	1080361	47010	110993	0	0	8092	552560	0	0
2024-08-29 23:50:47			0	37669	0	0	0	29548	28160	154983	27033	1080343	47011	110991	0	0	8091	553104	0	0
2024-08-29 23:51:47			0	37671	0	0	0	29542	28160	155019	26830	1080307	47010	110989	0	0	8091	553026	0	0
2024-08-29 23:52:47			0	37688	0	0	0	29558	28150	155067	26996	1080298	47010	110995	0	0	8092	552398	0	0
2024-08-29 23:53:47			0	37697	0	0	0	29550	28160	155075	27053	1080280	47021	110992	0	0	8093	552017	0	0
2024-08-29 23:54:47			0	37671	0	0	0	29540	28160	154959	27048	1080334	47000	110988	0	0	8091	553026	0	0
2024-08-29 23:55:47			0	37666	0	0	0	29548	28150	155019	26906	1080378	47000	110991	0	0	8091	553252	0	0
2024-08-29 23:56:47			0	37682	0	0	0	29540	28150	155039	27045	1080298	46988	110988	0	0	8092	552631	0	0
2024-08-29 23:57:47			0	37666	0	0	0	29542	28150	154991	27163	1080298	47000	110989	0	0	8091	553252	0	0
2024-08-29 23:58:47			0	37696	0	0	0	29537	28140	155059	27305	1080226	47009	110987	0	0	8093	552119	0	0
2024-08-29 23:59:47			0	37677	0	0	0	29529	28150	155003	27287	1080262	46999	110984	0	0	8092	552825	0	0
2024-08-30 00:00:47			0	37698	0	0	0	29532	28150	155051	26863	1080315	47009	110985	0	0	8093	552010	0	0
2024-08-30 00:01:47			0	37666	0	0	0	29529	28140	155039	26861	1080199	46999	110984	0	0	8091	553284	0	0
2024-08-30 00:02:47			0	37690	0	0	0	29527	28130	155039	27130	1080207	46998	110983	0	0	8093	552384	0	0
2024-08-30 00:03:47			0	37686	0	0	0	29529	28140	154931	26994	1080279	47009	110984	0	0	8092	552507	0	0
2024-08-30 00:04:47			0	37674	0	0	0	29524	28140	155059	26856	1080216	46998	110982	0	0	8092	552973	0	0
2024-08-30 00:05:47			0	37683	0	0	0	29524	28130	155059	26934	1080198	47007	110982	0	0	8092	552656	0	0
2024-08-30 00:06:47			0	37678	0	0	0	29522	28130	155075	27088	1080180	46998	110981	0	0	8092	552850	0	0
2024-08-30 00:07:47			0	37689	0	0	0	29524	28130	155135	27230	1080180	46998	110982	0	0	8092	552423	0	0
2024-08-30 00:08:47			0	37667	0	0	0	29522	28140	155083	27189	1080243	47008	110981	0	0	8091	553245	0	0
2024-08-30 00:09:47			0	37680	0	0	0	29529	28130	155031	26831	1080171	47007	110984	0	0	8092	552772	0	0
2024-08-30 00:10:47			0	37677	0	0	0	29522	28130	154971	26878	1080198	46996	110981	0	0	8092	552889	0	0
2024-08-30 00:11:47			0	37690	0	0	0	29522	28130	155051	26634	1080198	47007	110981	0	0	8093	552384	0	0
2024-08-30 00:12:47			0	37683	0	0	0	29524	28120	155079	26840	1080135	46996	110982	0	0	8092	552688	0	0
2024-08-30 00:13:47			0	37686	0	0	0	29519	28120	155091	26866	1080153	46995	110980	0	0	8092	552571	0	0
2024-08-30 00:14:47			0	37672	0	0	0	29522	28120	155015	27116	1080162	47007	110981	0	0	8091	553115	0	0
2024-08-30 00:15:47			0	37666	0	0	0	29519	28120	155087	27079	1080135	47007	110980	0	0	8091	553348	0	0
2024-08-30 00:16:47			0	37676	0	0	0	29514	28130	155027	26974	1080198	46996	110978	0	0	8092	552928	0	0
2024-08-30 00:17:47			0	37670	0	0	0	29511	28110	155031	27086	1080144	47017	110977	0	0	8092	553224	0	0
2024-08-30 00:18:47			0	37672	0	0	0	29511	28130	155051	27019	1080171	46985	110977	0	0	8092	553083	0	0
2024-08-30 00:19:47			0	37657	0	0	0	29514	28120	155051	26956	1080153	46984	110978	0	0	8091	553697	0	0
2024-08-30 00:20:47			0	37670	0	0	0	29509	28110	155127	27248	1080144	47006	110976	0	0	8092	553224	0	0
2024-08-30 00:21:47			0	37668	0	0	0	29506	28120	155071	26923	1080081	47007	110975	0	0	8092	553270	0	0
2024-08-30 00:22:47			0	37671	0	0	0	29514	28120	155039	27017	1080099	47006	110978	0	0	8092	553153	0	0
2024-08-30 00:23:47			0	37660	0	0	0	29514	28120	155127	26955	1080099	46995	110978	0	0	8091	553581	0	0
2024-08-30 00:24:47			0	37651	0	0	0	29519	28110	155059	27074	1080144	46995	110980	0	0	8090	553963	0	0
2024-08-30 00:25:47			0	37668	0	0	0	29509	28110	155011	26925	1080090	47006	110976	0	0	8091	553302	0	0
2024-08-30 00:26:47			0	37684	0	0	0	29506	28110	155067	27001	1080135	46994	110975	0	0	8092	552681	0	0
2024-08-30 00:27:47			0	37686	0	0	0	29496	28110	155079	26793	1080117	47017	110971	0	0	8093	552603	0	0
2024-08-30 00:28:47			0	37683	0	0	0	29503	28110	155143	27083	1080117	46995	110974	0	0	8092	552719	0	0
2024-08-30 00:29:47			0	37657	0	0	0	29503	28120	155191	26746	1080099	47017	110974	0	0	8091	553697	0	0
2024-08-30 00:30:47			0	37670	0	0	0	29511	28110	155155	27052	1080063	47006	110977	0	0	8092	553224	0	0
2024-08-30 00:31:47			0	37639	0	0	0	29506	28110	155171	27118	1080090	47006	110975	0	0	8090	554430	0	0
2024-08-30 00:32:47			0	37649	0	0	0	29506	28110	155227	27059	1080081	46972	110975	0	0	8090	554041	0	0
2024-08-30 00:33:47			0	37632	0	0	0	29516	28110	155271	26793	1080081	46994	110979	0	0	8089	554702	0	0
2024-08-30 00:34:47			0	37625	0	0	0	29514	28100	155419	27069	1080099	46994	110978	0	0	8089	555006	0	0
2024-08-30 00:35:47			0	37608	0	0	0	29509	28090	155479	27322	1080090	47004	110976	0	0	8088	555700	0	0
2024-08-30 00:36:47			0	37599	0	0	0	29498	28110	155283	26844	1080117	46995	110972	0	0	8088	555987	0	0
2024-08-30 00:37:47			0	37611	0	0	0	29503	28110	155327	27199	1080063	47006	110974	0	0	8088	555519	0	0
2024-08-30 00:38:47			0	37624	0	0	0	29498	28110	155323	27225	1080081	46994	110972	0	0	8089	555013	0	0
2024-08-30 00:39:47			0	37599	0	0	0	29503	28090	155367	26852	1080063	47004	110974	0	0	8087	556051	0	0
2024-08-30 00:40:47			0	37604	0	0	0	29493	28100	155295	27067	1080045	46994	110970	0	0	8088	555824	0	0
2024-08-30 00:41:47			0	37606	0	0	0	29490	28110	155315	26987	1080027	47005	110969	0	0	8088	555714	0	0
2024-08-30 00:42:47			0	37607	0	0	0	29488	28110	155347	26866	1080090	47017	110968	0	0	8088	555675	0	0
2024-08-30 00:43:47			0	37606	0	0	0	29488	28110	155375	26996	1080090	46984	110968	0	0	8088	555714	0	0
2024-08-30 00:44:47			0	37596	0	0	0	29488	28110	155271	26849	1080000	46983	110968	0	0	8088	556104	0	0
2024-08-30 00:45:47			0	37599	0	0	0	29488	28100	155399	27001	1080018	47016	110968	0	0	8088	556019	0	0
2024-08-30 00:46:47			0	37606	0	0	0	29488	28090	155375	27090	1080027	47014	110968	0	0	8088	555778	0	0
2024-08-30 00:47:47			0	37599	0	0	0	29485	28090	155415	26963	1080009	47004	110967	0	0	8088	556051	0	0
2024-08-30 00:48:47			0	37599	0	0	0	29493	28090	155455	26906	1080036	47004	110970	0	0	8088	556051	0	0
2024-08-30 00:49:47			0	37590	0	0	0	29493	28090	155499	27078	1080000	47003	110970	0	0	8087	556402	0	0
2024-08-30 00:50:47			0	37582	0	0	0	29490	28090	155403	27111	1080063	46982	110969	0	0	8087	556714	0	0
2024-08-30 00:51:47			0	37566	0	0	0	29480	28100	155475	26974	1080045	47005	110965	0	0	8086	557306	0	0
2024-08-30 00:52:47			0	37570	0	0	0	29475	28080	155483	26953	1079982	47002	110963	0	0	8086	557214	0	0
2024-08-30 00:53:47			0	37569	0	0	0	29488	28080	155527	27196	1079964	46992	110968	0	0	8086	557254	0	0
2024-08-30 00:54:47			0	37576	0	0	0	29483	28090	155399	26889	1080000	47003	110966	0	0	8086	556948	0	0
2024-08-30 00:55:47			0	37575	0	0	0	29472	28090	155455	27124	1079946	47003	110962	0	0	8087	556987	0	0
2024-08-30 00:56:47			0	37570	0	0	0	29480	28090	155455	26734	1079973	46992	110965	0	0	8086	557182	0	0
2024-08-30 00:57:47			0	37581	0	0	0	29475	28080	155479	27178	1080045	47003	110963	0	0	8087	556785	0	0
2024-08-30 00:58:47			0	37569	0	0	0	29483	28090	155543	27242	1080027	47014	110966	0	0	8086	557221	0	0
2024-08-30 00:59:47			0	37583	0	0	0	29464	28080	155455	27034	1079928	47002	110959	0	0	8087	556707	0	0
2024-08-30 01:00:47			0	37554	0	0	0	29464	28080	155647	26833	1079982	46991	110959	0	0	8085	557839	0	0
2024-08-30 01:01:47			0	37575	0	0	0	29459	28070	155619	26901	1079865	47002	110957	0	0	8087	557051	0	0
2024-08-30 01:02:47			0	37570	0	0	0	29459	28070	155575	27088	1079892	46980	110957	0	0	8086	557247	0	0
2024-08-30 01:03:47			0	37549	0	0	0	29454	28070	155543	27293	1079892	46980	110955	0	0	8085	558067	0	0
2024-08-30 01:04:47			0	37558	0	0	0	29444	28070	155591	27026	1079838	46991	110951	0	0	8086	557715	0	0
2024-08-30 01:05:47			0	37551	0	0	0	29451	28070	155599	27034	1079811	47002	110954	0	0	8085	557989	0	0
2024-08-30 01:06:47			0	37545	0	0	0	29454	28060	155675	27107	1079820	47001	110955	0	0	8085	558255	0	0
2024-08-30 01:07:47			0	37552	0	0	0	29446	28060	155547	26864	1079838	46989	110952	0	0	8086	557982	0	0
2024-08-30 01:08:47			0	37557	0	0	0	29454	28060	155627	26965	1079865	46989	110955	0	0	8086	557787	0	0
2024-08-30 01:09:47			0	37540	0	0	0	29454	28050	155539	27098	1079829	46989	110955	0	0	8085	558483	0	0
2024-08-30 01:10:47			0	37548	0	0	0	29459	28060	155707	27194	1079838	47000	110957	0	0	8085	558138	0	0
2024-08-30 01:11:47			0	37540	0	0	0	29451	28060	155703	27400	1079811	47000	110954	0	0	8085	558451	0	0
2024-08-30 01:12:47			0	37546	0	0	0	29457	28060	155651	27386	1079811	47000	110956	0	0	8085	558216	0	0
2024-08-30 01:13:47			0	37549	0	0	0	29454	28050	155791	27144	1079829	47011	110955	0	0	8085	558131	0	0
2024-08-30 01:14:47			0	37552	0	0	0	29459	28060	155683	26982	1079847	47001	110957	0	0	8085	557982	0	0
2024-08-30 01:15:47			0	37540	0	0	0	29451	28050	155723	27123	1079802	47000	110954	0	0	8085	558483	0	0
2024-08-30 01:16:47			0	37534	0	0	0	29451	28040	155703	27319	1079784	46999	110954	0	0	8084	558750	0	0
2024-08-30 01:17:47			0	37535	0	0	0	29446	28060	155675	27138	1079793	46990	110952	0	0	8085	558646	0	0
2024-08-30 01:18:47			0	37545	0	0	0	29446	28050	155747	26790	1079829	46989	110952	0	0	8085	558288	0	0
2024-08-30 01:19:47			0	37540	0	0	0	29438	28050	155683	27126	1079802	47011	110949	0	0	8085	558483	0	0
2024-08-30 01:20:47			0	37522	0	0	0	29433	28050	155751	27376	1079739	46988	110947	0	0	8084	559187	0	0
2024-08-30 01:21:47			0	37547	0	0	0	29428	28050	155703	27445	1079775	46989	110945	0	0	8086	558209	0	0
2024-08-30 01:22:47			0	37521	0	0	0	29431	28040	155739	27256	1079757	46999	110946	0	0	8084	559258	0	0
2024-08-30 01:23:47			0	37525	0	0	0	29431	28030	155731	26982	1079702	46986	110946	0	0	8084	559134	0	0
2024-08-30 01:24:47			0	37536	0	0	0	29420	28040	155547	27085	1079784	46987	110942	0	0	8085	558672	0	0
2024-08-30 01:25:47			0	37548	0	0	0	29423	28020	155623	26906	1079693	46985	110943	0	0	8086	558267	0	0
2024-08-30 01:26:47			0	37532	0	0	0	29420	28040	155627	26955	1079667	46999	110942	0	0	8085	558828	0	0
2024-08-30 01:27:47			0	37525	0	0	0	29420	28030	155663	27173	1079658	46999	110942	0	0	8084	559134	0	0
2024-08-30 01:28:47			0	37530	0	0	0	29428	28030	155615	27180	1079685	46987	110945	0	0	8084	558938	0	0
2024-08-30 01:29:47			0	37555	0	0	0	29428	28030	155659	26840	1079712	47009	110945	0	0	8086	557961	0	0
2024-08-30 01:30:47			0	37539	0	0	0	29433	28030	155547	26760	1079729	46998	110947	0	0	8085	558586	0	0
2024-08-30 01:31:47			0	37538	0	0	0	29433	28030	155635	26894	1079712	46999	110947	0	0	8085	558626	0	0
2024-08-30 01:32:47			0	37536	0	0	0	29436	28040	155567	26861	1079748	46999	110948	0	0	8085	558672	0	0
2024-08-30 01:33:47			0	37537	0	0	0	29425	28030	155523	27079	1079729	46998	110944	0	0	8085	558665	0	0
2024-08-30 01:34:47			0	37558	0	0	0	29425	28030	155539	27119	1079712	46987	110944	0	0	8086	557844	0	0
2024-08-30 01:35:47			0	37532	0	0	0	29431	28020	155591	26852	1079693	46985	110946	0	0	8084	558892	0	0
2024-08-30 01:36:47			0	37548	0	0	0	29428	28040	155535	27098	1079721	46987	110945	0	0	8086	558202	0	0
2024-08-30 01:37:47			0	37542	0	0	0	29428	28030	155587	27161	1079648	46998	110945	0	0	8085	558469	0	0
2024-08-30 01:38:47			0	37550	0	0	0	29420	28040	155567	26889	1079694	46999	110942	0	0	8086	558124	0	0
2024-08-30 01:39:47			0	37545	0	0	0	29431	28020	155635	27045	1079693	46997	110946	0	0	8085	558384	0	0
2024-08-30 01:40:47			0	37545	0	0	0	29428	28020	155527	27109	1079693	47007	110945	0	0	8085	558384	0	0
2024-08-30 01:41:47			0	37544	0	0	0	29420	28020	155583	27209	1079738	46997	110942	0	0	8085	558423	0	0
2024-08-30 01:42:47			0	37546	0	0	0	29412	28020	155595	27034	1079666	46997	110939	0	0	8086	558345	0	0
2024-08-30 01:43:47			0	37557	0	0	0	29415	28020	155639	27241	1079684	46997	110940	0	0	8086	557915	0	0
2024-08-30 01:44:47			0	37543	0	0	0	29407	28020	155647	27088	1079657	47019	110937	0	0	8086	558462	0	0
2024-08-30 01:45:47			0	37547	0	0	0	29410	28020	155683	27246	1079639	46997	110938	0	0	8086	558306	0	0
2024-08-30 01:46:47			0	37548	0	0	0	29402	28010	155623	27150	1079648	46985	110935	0	0	8086	558299	0	0
2024-08-30 01:47:47			0	37527	0	0	0	29410	28020	155679	26857	1079630	46997	110938	0	0	8085	559088	0	0
2024-08-30 01:48:47			0	37542	0	0	0	29402	28010	155651	27060	1079621	46997	110935	0	0	8085	558534	0	0
2024-08-30 01:49:47			0	37531	0	0	0	29392	28010	155755	27149	1079585	47006	110931	0	0	8085	558964	0	0
2024-08-30 01:50:47			0	37548	0	0	0	29399	28000	155675	26897	1079576	46995	110934	0	0	8086	558331	0	0
2024-08-30 01:51:47			0	37541	0	0	0	29399	28000	155575	27147	1079549	46995	110934	0	0	8085	558605	0	0
2024-08-30 01:52:47			0	37519	0	0	0	29392	28010	155607	27022	1079585	46996	110931	0	0	8084	559433	0	0
2024-08-30 01:53:47			0	37519	0	0	0	29397	28000	155687	27107	1079549	46995	110933	0	0	8084	559466	0	0
2024-08-30 01:54:47			0	37528	0	0	0	29392	28000	155635	26998	1079540	46995	110931	0	0	8085	559113	0	0
2024-08-30 01:55:47			0	37534	0	0	0	29392	28000	155675	27279	1079513	46983	110931	0	0	8085	558879	0	0
2024-08-30 01:56:47			0	37528	0	0	0	29381	27990	155631	27107	1079495	47004	110927	0	0	8085	559146	0	0
2024-08-30 01:57:47			0	37529	0	0	0	29392	27980	155695	27298	1079486	46981	110931	0	0	8085	559139	0	0
2024-08-30 01:58:47			0	37542	0	0	0	29384	27990	155711	27272	1079522	47015	110928	0	0	8086	558598	0	0
2024-08-30 01:59:47			0	37528	0	0	0	29379	27990	155683	26845	1079531	47004	110926	0	0	8085	559146	0	0
2024-08-30 02:00:47			0	37530	0	0	0	29376	27970	155703	26675	1079441	46980	110925	0	0	8085	559132	0	0
2024-08-30 02:01:47			0	37526	0	0	0	29381	27990	155611	26823	1079477	46994	110927	0	0	8085	559224	0	0
2024-08-30 02:02:47			0	37534	0	0	0	29379	27990	155711	27017	1079522	46982	110926	0	0	8085	558911	0	0
2024-08-30 02:03:47			0	37529	0	0	0	29379	27990	155651	27131	1079522	46982	110926	0	0	8085	559107	0	0
2024-08-30 02:04:47			0	37525	0	0	0	29379	27990	155711	26993	1079387	46982	110926	0	0	8085	559263	0	0
2024-08-30 02:05:47			0	37520	0	0	0	29374	27990	155811	26870	1079477	47004	110924	0	0	8085	559459	0	0
2024-08-30 02:06:47			0	37521	0	0	0	29381	27990	155799	26880	1079522	46994	110927	0	0	8085	559420	0	0
2024-08-30 02:07:47			0	37527	0	0	0	29389	27980	155755	26599	1079486	46981	110930	0	0	8085	559217	0	0
2024-08-30 02:08:47			0	37520	0	0	0	29376	27980	155787	27001	1079477	47002	110925	0	0	8085	559491	0	0
2024-08-30 02:09:47			0	37536	0	0	0	29381	27970	155743	26889	1079432	47002	110927	0	0	8085	558897	0	0
2024-08-30 02:10:47			0	37539	0	0	0	29381	27980	155711	27017	1079477	47002	110927	0	0	8086	558748	0	0
2024-08-30 02:11:47			0	37507	0	0	0	29374	27980	155767	26896	1079450	47002	110924	0	0	8084	560000	0	0
2024-08-30 02:12:47			0	37528	0	0	0	29381	27970	155779	26908	1079432	46980	110927	0	0	8085	559210	0	0
2024-08-30 02:13:47			0	37527	0	0	0	29379	27980	155683	26679	1079459	46981	110926	0	0	8085	559217	0	0
2024-08-30 02:14:47			0	37524	0	0	0	29368	27980	155739	26611	1079423	46992	110922	0	0	8085	559334	0	0
2024-08-30 02:15:47			0	37513	0	0	0	29376	27960	155723	26968	1079369	46991	110925	0	0	8084	559830	0	0
2024-08-30 02:16:47			0	37520	0	0	0	29371	27970	155791	26955	1079414	46992	110923	0	0	8085	559523	0	0
2024-08-30 02:17:47			0	37518	0	0	0	29355	27980	155735	26908	1079369	46992	110917	0	0	8085	559569	0	0
2024-08-30 02:18:47			0	37512	0	0	0	29361	27960	155771	26767	1079396	46991	110919	0	0	8084	559869	0	0
2024-08-30 02:19:47			0	37499	0	0	0	29366	27960	155811	26804	1079369	46968	110921	0	0	8083	560378	0	0
2024-08-30 02:20:47			0	37493	0	0	0	29363	27980	155811	26830	1079432	47003	110920	0	0	8083	560549	0	0
2024-08-30 02:21:47			0	37507	0	0	0	29361	27960	155883	26899	1079369	46979	110919	0	0	8084	560065	0	0
2024-08-30 02:22:47			0	37504	0	0	0	29366	27970	155719	26634	1079351	46992	110921	0	0	8084	560150	0	0
2024-08-30 02:23:47			0	37506	0	0	0	29363	27960	155811	26632	1079369	47001	110920	0	0	8084	560104	0	0
2024-08-30 02:24:47			0	37488	0	0	0	29366	27960	155767	26606	1079369	46979	110921	0	0	8083	560809	0	0
2024-08-30 02:25:47			0	37484	0	0	0	29353	27960	155811	26748	1079333	46990	110916	0	0	8083	560966	0	0
2024-08-30 02:26:47			0	37503	0	0	0	29353	27960	155791	26575	1079342	46979	110916	0	0	8084	560221	0	0
2024-08-30 02:27:47			0	37480	0	0	0	29353	27960	155755	26805	1079360	46978	110916	0	0	8082	561123	0	0
2024-08-30 02:28:47			0	37496	0	0	0	29345	27960	155911	26840	1079360	46978	110913	0	0	8084	560496	0	0
2024-08-30 02:29:47			0	37480	0	0	0	29348	27950	155823	26844	1079324	46990	110914	0	0	8083	561155	0	0
2024-08-30 02:30:47			0	37487	0	0	0	29348	27950	155955	26668	1079315	47000	110914	0	0	8083	560881	0	0
2024-08-30 02:31:47			0	37460	0	0	0	29342	27950	155887	26781	1079270	46990	110912	0	0	8081	561940	0	0
2024-08-30 02:32:47			0	37470	0	0	0	29350	27950	155795	27088	1079261	46990	110915	0	0	8082	561547	0	0
2024-08-30 02:33:47			0	37486	0	0	0	29345	27940	155911	26613	1079305	46989	110913	0	0	8083	560952	0	0
2024-08-30 02:34:47			0	37456	0	0	0	29337	27940	155899	26878	1079279	46977	110910	0	0	8081	562129	0	0
2024-08-30 02:35:47			0	37479	0	0	0	29340	27940	155951	27010	1079269	46999	110911	0	0	8083	561227	0	0
2024-08-30 02:36:47			0	37451	0	0	0	29329	27930	155887	26576	1079260	46976	110907	0	0	8081	562358	0	0
2024-08-30 02:37:47			0	37480	0	0	0	29329	27940	156019	27069	1079252	46977	110907	0	0	8083	561188	0	0
2024-08-30 02:38:47			0	37454	0	0	0	29319	27940	156051	26575	1079216	46988	110903	0	0	8081	562208	0	0
2024-08-30 02:39:47			0	37478	0	0	0	29316	27940	155999	27029	1079162	46999	110902	0	0	8083	561266	0	0
2024-08-30 02:40:47			0	37453	0	0	0	29319	27940	155935	26809	1079243	46988	110903	0	0	8081	562247	0	0
2024-08-30 02:41:47			0	37448	0	0	0	29332	27920	156071	26932	1079098	46986	110908	0	0	8081	562508	0	0
2024-08-30 02:42:47			0	37444	0	0	0	29316	27920	156023	26679	1079134	46987	110902	0	0	8081	562666	0	0
2024-08-30 02:43:47			0	37434	0	0	0	29314	27920	156091	26706	1079108	46975	110901	0	0	8080	563059	0	0
2024-08-30 02:44:47			0	37446	0	0	0	29319	27930	156087	26826	1079117	46988	110903	0	0	8081	562555	0	0
2024-08-30 02:45:47			0	37423	0	0	0	29327	27920	156135	26658	1079161	46975	110906	0	0	8079	563491	0	0
2024-08-30 02:46:47			0	37422	0	0	0	29314	27920	156151	26908	1079108	46998	110901	0	0	8080	563530	0	0
2024-08-30 02:47:47			0	37433	0	0	0	29316	27920	156095	26663	1079179	46974	110902	0	0	8080	563098	0	0
2024-08-30 02:48:47			0	37412	0	0	0	29309	27910	156167	26786	1079116	46996	110899	0	0	8079	563956	0	0
2024-08-30 02:49:47			0	37421	0	0	0	29309	27920	156167	26748	1079045	46974	110899	0	0	8080	563570	0	0
2024-08-30 02:50:47			0	37429	0	0	0	29306	27910	156199	26866	1079062	46973	110898	0	0	8080	563288	0	0
2024-08-30 02:51:47			0	37405	0	0	0	29306	27920	156295	26719	1079072	46974	110898	0	0	8079	564199	0	0
2024-08-30 02:52:47			0	37432	0	0	0	29306	27910	156227	26759	1079000	46973	110898	0	0	8080	563170	0	0
2024-08-30 02:53:47			0	37407	0	0	0	29298	27910	156287	26686	1079080	46985	110895	0	0	8079	564153	0	0
2024-08-30 02:54:47			0	37407	0	0	0	29298	27900	156239	26623	1078990	46985	110895	0	0	8079	564186	0	0
2024-08-30 02:55:47			0	37402	0	0	0	29298	27900	156259	26863	1079071	46985	110895	0	0	8079	564383	0	0
2024-08-30 02:56:47			0	37398	0	0	0	29301	27890	156327	26746	1079026	46983	110896	0	0	8078	564573	0	0
2024-08-30 02:57:47			0	37390	0	0	0	29290	27900	156283	26845	1079098	46996	110892	0	0	8078	564855	0	0
2024-08-30 02:58:47			0	37383	0	0	0	29301	27900	156407	26991	1079008	46995	110896	0	0	8077	565131	0	0
2024-08-30 02:59:47			0	37412	0	0	0	29285	27900	156419	26703	1078990	46985	110890	0	0	8079	563989	0	0
2024-08-30 03:00:47			0	37391	0	0	0	29293	27900	156195	26930	1079008	46995	110893	0	0	8078	564816	0	0
2024-08-30 03:01:47			0	37394	0	0	0	29285	27890	156355	26613	1079026	46983	110890	0	0	8078	564730	0	0
2024-08-30 03:02:47			0	37385	0	0	0	29293	27890	156363	27222	1079026	46983	110893	0	0	8078	565085	0	0
2024-08-30 03:03:47			0	37385	0	0	0	29296	27890	156363	27095	1078972	46983	110894	0	0	8078	565085	0	0
2024-08-30 03:04:47			0	37371	0	0	0	29280	27890	156435	27007	1078918	46994	110888	0	0	8077	565637	0	0
2024-08-30 03:05:47			0	37384	0	0	0	29288	27880	156383	27069	1078954	46983	110891	0	0	8078	565157	0	0
2024-08-30 03:06:47			0	37387	0	0	0	29275	27890	156355	26710	1078990	46983	110886	0	0	8078	565006	0	0
2024-08-30 03:07:47			0	37362	0	0	0	29270	27880	156427	26880	1078981	46960	110884	0	0	8077	566024	0	0
2024-08-30 03:08:47			0	37362	0	0	0	29277	27870	156423	26845	1078882	46981	110887	0	0	8076	566057	0	0
2024-08-30 03:09:47			0	37367	0	0	0	29272	27870	156467	26902	1078882	46969	110885	0	0	8077	565860	0	0
2024-08-30 03:10:47			0	37377	0	0	0	29275	27880	156563	26866	1078954	46983	110886	0	0	8077	565433	0	0
2024-08-30 03:11:47			0	37363	0	0	0	29267	27870	156415	27020	1078855	46992	110883	0	0	8077	566017	0	0
2024-08-30 03:12:47			0	37354	0	0	0	29270	27870	156423	26989	1078909	46981	110884	0	0	8076	566372	0	0
2024-08-30 03:13:47			0	37358	0	0	0	29270	27880	156459	26925	1078810	46982	110884	0	0	8076	566182	0	0
2024-08-30 03:14:47			0	37359	0	0	0	29257	27870	156523	26764	1078846	46969	110879	0	0	8077	566175	0	0
2024-08-30 03:15:47			0	37364	0	0	0	29267	27870	156663	27017	1078873	46981	110883	0	0	8077	565978	0	0
2024-08-30 03:16:47			0	37352	0	0	0	29259	27860	156607	27000	1078783	46981	110880	0	0	8076	566484	0	0
2024-08-30 03:17:47			0	37350	0	0	0	29259	27870	156487	26970	1078846	46992	110880	0	0	8076	566530	0	0
2024-08-30 03:18:47			0	37350	0	0	0	29249	27870	156515	26717	1078747	46992	110876	0	0	8076	566530	0	0
2024-08-30 03:19:47			0	37342	0	0	0	29251	27860	156543	26828	1078747	46980	110877	0	0	8076	566879	0	0
2024-08-30 03:20:47			0	37343	0	0	0	29246	27870	156615	26722	1078792	46981	110875	0	0	8076	566807	0	0
2024-08-30 03:21:47			0	37352	0	0	0	29254	27860	156583	27116	1078747	46980	110878	0	0	8076	566484	0	0
2024-08-30 03:22:47			0	37341	0	0	0	29251	27870	156623	27022	1078792	46981	110877	0	0	8076	566886	0	0
2024-08-30 03:23:47			0	37341	0	0	0	29246	27860	156647	27072	1078747	46968	110875	0	0	8076	566918	0	0
2024-08-30 03:24:47			0	37320	0	0	0	29251	27860	156579	27109	1078837	46981	110877	0	0	8074	567748	0	0
2024-08-30 03:25:47			0	37319	0	0	0	29238	27860	156583	27020	1078693	46980	110872	0	0	8075	567788	0	0
2024-08-30 03:26:47			0	37319	0	0	0	29241	27840	156626	27079	1078684	46989	110873	0	0	8074	567853	0	0
2024-08-30 03:27:47			0	37304	0	0	0	29249	27860	156750	27152	1078720	46968	110876	0	0	8074	568381	0	0
2024-08-30 03:28:47			0	37314	0	0	0	29241	27860	156679	27255	1078693	46980	110873	0	0	8074	567985	0	0
2024-08-30 03:29:47			0	37305	0	0	0	29238	27840	156686	26887	1078693	46989	110872	0	0	8074	568407	0	0
2024-08-30 03:30:47			0	37307	0	0	0	29238	27840	156810	26733	1078693	46978	110872	0	0	8074	568328	0	0
2024-08-30 03:31:47			0	37303	0	0	0	29249	27850	156726	27267	1078702	46978	110876	0	0	8073	568453	0	0
2024-08-30 03:32:47			0	37302	0	0	0	29244	27850	156750	26778	1078738	47000	110874	0	0	8073	568493	0	0
2024-08-30 03:33:47			0	37307	0	0	0	29231	27840	156694	26930	1078666	46966	110869	0	0	8074	568328	0	0
2024-08-30 03:34:47			0	37305	0	0	0	29241	27850	156738	26878	1078648	46978	110873	0	0	8074	568374	0	0
2024-08-30 03:35:47			0	37309	0	0	0	29241	27840	156826	27066	1078693	46966	110873	0	0	8074	568249	0	0
2024-08-30 03:36:47			0	37303	0	0	0	29238	27840	156758	26939	1078666	46989	110872	0	0	8074	568486	0	0
2024-08-30 03:37:47			0	37308	0	0	0	29244	27830	156826	27196	1078675	46999	110874	0	0	8074	568321	0	0
2024-08-30 03:38:47			0	37306	0	0	0	29231	27840	156758	26663	1078603	46989	110869	0	0	8074	568367	0	0
2024-08-30 03:39:47			0	37289	0	0	0	29225	27840	156778	26776	1078657	46978	110867	0	0	8073	569040	0	0
2024-08-30 03:40:47			0	37303	0	0	0	29215	27830	156862	27163	1078585	46976	110863	0	0	8074	568518	0	0
2024-08-30 03:41:47			0	37286	0	0	0	29218	27820	156838	27000	1078549	46987	110864	0	0	8073	569224	0	0
2024-08-30 03:42:47			0	37280	0	0	0	29207	27820	156886	26890	1078567	46987	110860	0	0	8073	569462	0	0
2024-08-30 03:43:47			0	37269	0	0	0	29194	27820	156926	26967	1078576	46964	110855	0	0	8072	569898	0	0
2024-08-30 03:44:47			0	37259	0	0	0	29192	27820	157046	27088	1078513	46976	110854	0	0	8072	570294	0	0
2024-08-30 03:45:47			0	37264	0	0	0	29181	27810	157022	26927	1078477	46963	110850	0	0	8072	570129	0	0
2024-08-30 03:46:47			0	37260	0	0	0	29186	27810	156958	27019	1078468	46962	110852	0	0	8072	570287	0	0
2024-08-30 03:47:47			0	37245	0	0	0	29184	27810	156994	27020	1078441	46962	110851	0	0	8071	570882	0	0
2024-08-30 03:48:47			0	37233	0	0	0	29194	27800	157022	26977	1078432	46974	110855	0	0	8070	571391	0	0
2024-08-30 03:49:47			0	37242	0	0	0	29189	27810	157146	26955	1078414	46985	110853	0	0	8071	571001	0	0
2024-08-30 03:50:47			0	37223	0	0	0	29189	27790	157134	27066	1078414	46973	110853	0	0	8069	571822	0	0
2024-08-30 03:51:47			0	37210	0	0	0	29176	27790	157170	27022	1078423	46996	110848	0	0	8069	572338	0	0
2024-08-30 03:52:47			0	37244	0	0	0	29171	27780	157170	27126	1078378	46972	110846	0	0	8071	571021	0	0
2024-08-30 03:53:47			0	37219	0	0	0	29163	27780	157274	27190	1078324	46972	110843	0	0	8070	572013	0	0
2024-08-30 03:54:47			0	37212	0	0	0	29161	27780	157278	27154	1078368	46949	110842	0	0	8069	572292	0	0
2024-08-30 03:55:47			0	37209	0	0	0	29153	27770	157230	26682	1078332	46959	110839	0	0	8069	572444	0	0
2024-08-30 03:56:47			0	37192	0	0	0	29132	27780	157370	26602	1078233	46982	110831	0	0	8069	573087	0	0
2024-08-30 03:57:47			0	37190	0	0	0	29137	27770	157310	26958	1078251	46970	110833	0	0	8068	573199	0	0
2024-08-30 03:58:47			0	37189	0	0	0	29135	27760	157366	27251	1078251	46980	110832	0	0	8068	573272	0	0
2024-08-30 03:59:47			0	37168	0	0	0	29129	27760	157430	27026	1078197	46968	110830	0	0	8067	574108	0	0
2024-08-30 04:00:47			0	37191	0	0	0	29124	27760	157442	26670	1078251	46968	110828	0	0	8069	573193	0	0
2024-08-30 04:01:47			0	37158	0	0	0	29127	27750	157494	27175	1078242	46968	110829	0	0	8067	574540	0	0
2024-08-30 04:02:47			0	37132	0	0	0	29116	27750	157478	27189	1078215	46968	110825	0	0	8065	575576	0	0
2024-08-30 04:03:47			0	37158	0	0	0	29122	27750	157606	27057	1078206	46980	110827	0	0	8067	574540	0	0
2024-08-30 04:04:47			0	37138	0	0	0	29124	27750	157586	27066	1078206	46968	110828	0	0	8065	575337	0	0
2024-08-30 04:05:47			0	37146	0	0	0	29124	27750	157606	27187	1078179	46968	110828	0	0	8066	575018	0	0
2024-08-30 04:06:47			0	37151	0	0	0	29116	27740	157578	27043	1078197	46968	110825	0	0	8066	574852	0	0
2024-08-30 04:07:47			0	37149	0	0	0	29124	27740	157686	27000	1078116	46979	110828	0	0	8066	574932	0	0
2024-08-30 04:08:47			0	37130	0	0	0	29122	27740	157674	27152	1078134	46967	110827	0	0	8065	575689	0	0
2024-08-30 04:09:47			0	37116	0	0	0	29129	27730	157738	27121	1078206	46978	110830	0	0	8064	576281	0	0
2024-08-30 04:10:47			0	37133	0	0	0	29135	27740	157650	26970	1078170	46979	110832	0	0	8065	575570	0	0
2024-08-30 04:11:47			0	37127	0	0	0	29135	27750	157678	27008	1078233	46980	110832	0	0	8065	575776	0	0
2024-08-30 04:12:47			0	37133	0	0	0	29129	27730	157642	27118	1078179	46978	110830	0	0	8065	575603	0	0
2024-08-30 04:13:47			0	37128	0	0	0	29137	27730	157682	27275	1078125	46978	110833	0	0	8065	575802	0	0
2024-08-30 04:14:47			0	37113	0	0	0	29142	27740	157742	27215	1078188	46978	110835	0	0	8064	576368	0	0
2024-08-30 04:15:47			0	37120	0	0	0	29135	27740	157774	27090	1078242	46967	110832	0	0	8064	576089	0	0
2024-08-30 04:16:47			0	37125	0	0	0	29137	27740	157790	26979	1078161	46967	110833	0	0	8064	575889	0	0
2024-08-30 04:17:47			0	37128	0	0	0	29150	27740	157790	27176	1078215	46978	110838	0	0	8064	575769	0	0
2024-08-30 04:18:47			0	37107	0	0	0	29148	27740	157710	26876	1078188	46967	110837	0	0	8063	576608	0	0
2024-08-30 04:19:47			0	37130	0	0	0	29158	27750	157754	26824	1078260	46991	110841	0	0	8064	575656	0	0
2024-08-30 04:20:47			0	37114	0	0	0	29166	27740	157762	27261	1078242	46967	110844	0	0	8063	576328	0	0
2024-08-30 04:21:47			0	37108	0	0	0	29166	27740	157686	27203	1078251	46990	110844	0	0	8063	576568	0	0
2024-08-30 04:22:47			0	37124	0	0	0	29155	27740	157738	26805	1078224	46979	110840	0	0	8064	575929	0	0
2024-08-30 04:23:47			0	37099	0	0	0	29150	27750	157722	26955	1078206	46980	110838	0	0	8063	576894	0	0
2024-08-30 04:24:47			0	37106	0	0	0	29148	27730	157834	27128	1078206	46978	110837	0	0	8063	576681	0	0
2024-08-30 04:25:47			0	37085	0	0	0	29153	27750	157782	27024	1078242	46980	110839	0	0	8062	577454	0	0
2024-08-30 04:26:47			0	37086	0	0	0	29166	27750	157830	26937	1078287	46980	110844	0	0	8062	577414	0	0
2024-08-30 04:27:47			0	37087	0	0	0	29176	27750	157922	27196	1078242	46991	110848	0	0	8062	577374	0	0
2024-08-30 04:28:47			0	37045	0	0	0	29176	27760	157930	27211	1078260	46981	110848	0	0	8059	579021	0	0
2024-08-30 04:29:47			0	37042	0	0	0	29184	27750	157974	27173	1078341	46991	110851	0	0	8059	579175	0	0
2024-08-30 04:30:47			0	37040	0	0	0	29186	27760	158034	27137	1078305	46968	110852	0	0	8059	579221	0	0
2024-08-30 04:31:47			0	37034	0	0	0	29192	27760	158022	27263	1078305	46968	110854	0	0	8058	579462	0	0
2024-08-30 04:32:47			0	37040	0	0	0	29192	27760	158074	27261	1078359	46980	110854	0	0	8059	579221	0	0
2024-08-30 04:33:47			0	37027	0	0	0	29197	27760	158062	27248	1078305	46980	110856	0	0	8058	579742	0	0
2024-08-30 04:34:47			0	37022	0	0	0	29197	27760	158122	26996	1078359	46980	110856	0	0	8057	579943	0	0
2024-08-30 04:35:47			0	36998	0	0	0	29197	27770	158078	27007	1078296	46993	110856	0	0	8056	580872	0	0
2024-08-30 04:36:47			0	37012	0	0	0	29197	27760	158218	27081	1078305	46968	110856	0	0	8057	580344	0	0
2024-08-30 04:37:47			0	36982	0	0	0	29199	27770	158298	27194	1078350	46993	110857	0	0	8055	581515	0	0
2024-08-30 04:38:47			0	36969	0	0	0	29212	27760	158338	27237	1078386	46958	110862	0	0	8054	582071	0	0
2024-08-30 04:39:47			0	36956	0	0	0	29207	27760	158274	27145	1078368	46992	110860	0	0	8053	582593	0	0
2024-08-30 04:40:47			0	36949	0	0	0	29212	27760	158374	26731	1078449	46981	110862	0	0	8053	582875	0	0
2024-08-30 04:41:47			0	36936	0	0	0	29205	27770	158498	27036	1078431	46982	110859	0	0	8052	583365	0	0
2024-08-30 04:42:47			0	36913	0	0	0	29207	27770	158618	26935	1078440	46982	110860	0	0	8051	584291	0	0
2024-08-30 04:43:47			0	36912	0	0	0	29205	27780	158662	27232	1078503	46982	110859	0	0	8051	584298	0	0
2024-08-30 04:44:47			0	36894	0	0	0	29205	27770	158730	27190	1078467	46993	110859	0	0	8050	585057	0	0
2024-08-30 04:45:47			0	36888	0	0	0	29207	27780	158774	26883	1078449	46993	110860	0	0	8049	585265	0	0
2024-08-30 04:46:47			0	36851	0	0	0	29207	27770	158886	27072	1078467	46982	110860	0	0	8047	586793	0	0
2024-08-30 04:47:47			0	36842	0	0	0	29207	27780	158870	27029	1078458	46960	110860	0	0	8047	587123	0	0
2024-08-30 04:48:47			0	36821	0	0	0	29197	27780	158826	27015	1078449	46982	110856	0	0	8046	587973	0	0
2024-08-30 04:49:47			0	36812	0	0	0	29212	27780	158850	27199	1078404	46983	110862	0	0	8045	588337	0	0
2024-08-30 04:50:47			0	36787	0	0	0	29220	27790	159014	26807	1078467	46973	110865	0	0	8043	589316	0	0
2024-08-30 04:51:47			0	36780	0	0	0	29212	27780	158982	27218	1078404	46972	110862	0	0	8043	589634	0	0
2024-08-30 04:52:47			0	36754	0	0	0	29215	27780	159122	26776	1078404	46994	110863	0	0	8041	590688	0	0
2024-08-30 04:53:47			0	36757	0	0	0	29199	27780	159206	26661	1078378	46983	110857	0	0	8042	590567	0	0
2024-08-30 04:54:47			0	36725	0	0	0	29181	27770	159322	26986	1078305	46970	110850	0	0	8040	591901	0	0
2024-08-30 04:55:47			0	36737	0	0	0	29181	27760	159270	26866	1078287	46969	110850	0	0	8041	591447	0	0
2024-08-30 04:56:47			0	36703	0	0	0	29168	27760	159362	26790	1078233	46969	110845	0	0	8039	592830	0	0
2024-08-30 04:57:47			0	36679	0	0	0	29163	27750	159462	26939	1078233	46958	110843	0	0	8038	593841	0	0
2024-08-30 04:58:47			0	36660	0	0	0	29137	27750	159482	26668	1078188	46958	110833	0	0	8037	594616	0	0
2024-08-30 04:59:47			0	36623	0	0	0	29132	27740	159630	27095	1078107	46967	110831	0	0	8035	596160	0	0
2024-08-30 05:00:47			0	36622	0	0	0	29101	27750	159762	26987	1078080	46958	110819	0	0	8035	596167	0	0
2024-08-30 05:01:47			0	36605	0	0	0	29093	27730	159774	27045	1078035	46956	110816	0	0	8034	596930	0	0
2024-08-30 05:02:47			0	36596	0	0	0	29116	27730	159822	27064	1078044	46967	110825	0	0	8034	597298	0	0
2024-08-30 05:03:47			0	36570	0	0	0	29129	27720	159921	26981	1078044	46964	110830	0	0	8032	598397	0	0
2024-08-30 05:04:47			0	36569	0	0	0	29129	27720	159993	27005	1078098	46964	110830	0	0	8032	598438	0	0
2024-08-30 05:05:47			0	36534	0	0	0	29140	27720	160045	26835	1078044	46976	110834	0	0	8029	599873	0	0
2024-08-30 05:06:47			0	36533	0	0	0	29142	27720	160101	27227	1078107	46977	110835	0	0	8029	599914	0	0
2024-08-30 05:07:47			0	36545	0	0	0	29148	27720	160153	27336	1078107	46977	110837	0	0	8030	599422	0	0
2024-08-30 05:08:47			0	36534	0	0	0	29150	27720	160097	26757	1078134	46977	110838	0	0	8029	599873	0	0
2024-08-30 05:09:47			0	36524	0	0	0	29155	27730	160189	27102	1078152	46967	110840	0	0	8029	600249	0	0
2024-08-30 05:10:47			0	36500	0	0	0	29161	27720	160273	27355	1078161	46988	110842	0	0	8027	601269	0	0
2024-08-30 05:11:47			0	36497	0	0	0	29166	27740	160245	27038	1078215	46989	110844	0	0	8027	601323	0	0
2024-08-30 05:12:47			0	36494	0	0	0	29179	27730	160257	26878	1078197	46989	110849	0	0	8026	601481	0	0
2024-08-30 05:13:47			0	36493	0	0	0	29186	27750	160377	26909	1078260	46991	110852	0	0	8026	601453	0	0
2024-08-30 05:14:47			0	36476	0	0	0	29179	27750	160393	27019	1078233	46980	110849	0	0	8025	602152	0	0
2024-08-30 05:15:47			0	36482	0	0	0	29181	27740	160377	26987	1078224	46979	110850	0	0	8026	601940	0	0
2024-08-30 05:16:47			0	36473	0	0	0	29181	27740	160481	26961	1078269	46978	110850	0	0	8025	602310	0	0
2024-08-30 05:17:47			0	36458	0	0	0	29194	27740	160385	27126	1078278	46979	110855	0	0	8024	602928	0	0
2024-08-30 05:18:47			0	36454	0	0	0	29192	27750	160433	27007	1078206	46991	110854	0	0	8024	603058	0	0
2024-08-30 05:19:47			0	36442	0	0	0	29192	27740	160381	26998	1078296	47000	110854	0	0	8023	603587	0	0
2024-08-30 05:20:47			0	36444	0	0	0	29184	27750	160473	27024	1078314	46980	110851	0	0	8023	603470	0	0
2024-08-30 05:21:47			0	36423	0	0	0	29176	27750	160505	26850	1078242	46991	110848	0	0	8022	604335	0	0
2024-08-30 05:22:47			0	36408	0	0	0	29173	27750	160593	26833	1078269	46991	110847	0	0	8021	604954	0	0
2024-08-30 05:23:47			0	36399	0	0	0	29161	27740	160653	27208	1078224	46979	110842	0	0	8021	605361	0	0
2024-08-30 05:24:47			0	36393	0	0	0	29166	27740	160637	27429	1078278	46990	110844	0	0	8021	605608	0	0
2024-08-30 05:25:47			0	36406	0	0	0	29153	27740	160613	27083	1078224	46968	110839	0	0	8022	605072	0	0
2024-08-30 05:26:47			0	36416	0	0	0	29137	27750	160753	27019	1078206	46980	110833	0	0	8023	604624	0	0
2024-08-30 05:27:47			0	36388	0	0	0	29127	27740	160733	27234	1078170	46957	110829	0	0	8021	605815	0	0
2024-08-30 05:28:47			0	36388	0	0	0	29093	27740	160717	27062	1078053	46967	110816	0	0	8022	605815	0	0
2024-08-30 05:29:47			0	36378	0	0	0	29075	27730	160729	27265	1078035	46967	110809	0	0	8021	606263	0	0
2024-08-30 05:30:47			0	36374	0	0	0	29064	27720	160837	26899	1077972	46965	110805	0	0	8021	606463	0	0
2024-08-30 05:31:47			0	36367	0	0	0	29062	27700	160797	27118	1077855	46963	110804	0	0	8021	606822	0	0
2024-08-30 05:32:47			0	36374	0	0	0	29072	27700	160829	26909	1077936	46953	110808	0	0	8021	606533	0	0
2024-08-30 05:33:47			0	36379	0	0	0	29083	27690	160849	27215	1077891	46973	110812	0	0	8021	606361	0	0
2024-08-30 05:34:47			0	36361	0	0	0	29090	27700	160837	27123	1077981	46974	110815	0	0	8020	607071	0	0
2024-08-30 05:35:47			0	36375	0	0	0	29093	27700	160829	26996	1077954	46974	110816	0	0	8021	606492	0	0
2024-08-30 05:36:47			0	36370	0	0	0	29090	27700	160717	26911	1077954	46962	110815	0	0	8020	606698	0	0
2024-08-30 05:37:47			0	36387	0	0	0	29088	27690	160733	26816	1077936	46973	110814	0	0	8021	606031	0	0
2024-08-30 05:38:47			0	36376	0	0	0	29083	27690	160797	27027	1077972	46984	110812	0	0	8021	606485	0	0
2024-08-30 05:39:47			0	36365	0	0	0	29090	27690	160749	27135	1077945	46984	110815	0	0	8020	606940	0	0
2024-08-30 05:40:47			0	36367	0	0	0	29075	27690	160701	26880	1077936	46973	110809	0	0	8020	606857	0	0
2024-08-30 05:41:47			0	36371	0	0	0	29072	27690	160745	27261	1077918	46973	110808	0	0	8021	606692	0	0
2024-08-30 05:42:47			0	36371	0	0	0	29067	27690	160693	27308	1077891	46961	110806	0	0	8021	606692	0	0
2024-08-30 05:43:47			0	36381	0	0	0	29059	27690	160665	27332	1077891	46961	110803	0	0	8021	606279	0	0
2024-08-30 05:44:47			0	36365	0	0	0	29070	27690	160749	27185	1077882	46984	110807	0	0	8020	606940	0	0
2024-08-30 05:45:47			0	36363	0	0	0	29064	27680	160737	27213	1077846	46973	110805	0	0	8020	607058	0	0
2024-08-30 05:46:47			0	36359	0	0	0	29062	27680	160753	27013	1077864	46960	110804	0	0	8020	607223	0	0
2024-08-30 05:47:47			0	36376	0	0	0	29054	27680	160721	27055	1077900	46961	110801	0	0	8021	606520	0	0
2024-08-30 05:48:47			0	36379	0	0	0	29059	27680	160741	26909	1077864	46972	110803	0	0	8021	606396	0	0
2024-08-30 05:49:47			0	36352	0	0	0	29051	27670	160797	26896	1077774	46959	110800	0	0	8020	607548	0	0
2024-08-30 05:50:47			0	36357	0	0	0	29049	27670	160753	27107	1077765	46971	110799	0	0	8020	607341	0	0
2024-08-30 05:51:47			0	36352	0	0	0	29036	27670	160757	27126	1077738	46971	110794	0	0	8020	607548	0	0
2024-08-30 05:52:47			0	36384	0	0	0	29038	27650	160873	27178	1077737	46992	110795	0	0	8022	606294	0	0
2024-08-30 05:53:47			0	36371	0	0	0	29036	27660	160801	27034	1077774	46958	110794	0	0	8021	606797	0	0
2024-08-30 05:54:47			0	36353	0	0	0	29033	27660	160773	26908	1077756	46982	110793	0	0	8020	607542	0	0
2024-08-30 05:55:47			0	36359	0	0	0	29038	27660	160733	27112	1077720	46958	110795	0	0	8020	607293	0	0
2024-08-30 05:56:47			0	36380	0	0	0	29033	27660	160749	27187	1077693	46970	110793	0	0	8022	606425	0	0
2024-08-30 05:57:47			0	36379	0	0	0	29028	27650	160761	27145	1077656	46958	110791	0	0	8022	606501	0	0
2024-08-30 05:58:47			0	36360	0	0	0	29025	27650	160737	26788	1077674	46969	110790	0	0	8021	607287	0	0
2024-08-30 05:59:47			0	36395	0	0	0	29031	27630	160753	27201	1077620	46967	110792	0	0	8022	605909	0	0
2024-08-30 06:00:47			0	36385	0	0	0	29020	27630	160737	27111	1077701	46956	110788	0	0	8022	606323	0	0
2024-08-30 06:01:47			0	36390	0	0	0	29020	27630	160709	27293	1077620	46945	110788	0	0	8022	606116	0	0
2024-08-30 06:02:47			0	36388	0	0	0	29028	27640	160809	27187	1077692	46968	110791	0	0	8022	606164	0	0
2024-08-30 06:03:47			0	36387	0	0	0	29036	27650	160785	27237	1077674	46958	110794	0	0	8022	606170	0	0
2024-08-30 06:04:47			0	36381	0	0	0	29041	27640	160721	27050	1077665	46968	110796	0	0	8022	606453	0	0
2024-08-30 06:05:47			0	36384	0	0	0	29041	27640	160693	27017	1077719	46968	110796	0	0	8022	606329	0	0
2024-08-30 06:06:47			0	36395	0	0	0	29038	27640	160769	27121	1077629	46968	110795	0	0	8022	605874	0	0
2024-08-30 06:07:47			0	36416	0	0	0	29038	27640	160705	27007	1077710	46968	110795	0	0	8024	605007	0	0
2024-08-30 06:08:47			0	36398	0	0	0	29041	27630	160761	27036	1077647	46967	110796	0	0	8022	605785	0	0
2024-08-30 06:09:47			0	36400	0	0	0	29038	27640	160729	27213	1077602	46968	110795	0	0	8023	605668	0	0
2024-08-30 06:10:47			0	36421	0	0	0	29038	27640	160645	26800	1077629	46946	110795	0	0	8024	604801	0	0
2024-08-30 06:11:47			0	36420	0	0	0	29033	27630	160537	26970	1077665	46956	110793	0	0	8024	604877	0	0
2024-08-30 06:12:47			0	36419	0	0	0	29033	27630	160625	27038	1077638	46967	110793	0	0	8024	604918	0	0
2024-08-30 06:13:47			0	36403	0	0	0	29028	27630	160625	27052	1077692	46956	110791	0	0	8023	605579	0	0
2024-08-30 06:14:47			0	36431	0	0	0	29025	27630	160589	27201	1077566	46967	110790	0	0	8025	604423	0	0
2024-08-30 06:15:47			0	36424	0	0	0	29028	27620	160489	27138	1077602	46944	110791	0	0	8024	604746	0	0
2024-08-30 06:16:47			0	36440	0	0	0	29018	27620	160629	27237	1077620	46966	110787	0	0	8025	604086	0	0
2024-08-30 06:17:47			0	36430	0	0	0	29025	27620	160577	26949	1077629	46955	110790	0	0	8025	604499	0	0
2024-08-30 06:18:47			0	36432	0	0	0	29028	27630	160549	27135	1077584	46978	110791	0	0	8025	604382	0	0
2024-08-30 06:19:47			0	36420	0	0	0	29020	27620	160677	27145	1077575	46977	110788	0	0	8024	604912	0	0
2024-08-30 06:20:47			0	36448	0	0	0	29007	27620	160589	27159	1077566	46966	110783	0	0	8026	603757	0	0
2024-08-30 06:21:47			0	36445	0	0	0	29018	27620	160485	27203	1077548	46955	110787	0	0	8026	603880	0	0
2024-08-30 06:22:47			0	36444	0	0	0	29010	27620	160525	27076	1077539	46966	110784	0	0	8026	603921	0	0
2024-08-30 06:23:47			0	36441	0	0	0	29010	27610	160525	27046	1077557	46965	110784	0	0	8025	604080	0	0
2024-08-30 06:24:47			0	36433	0	0	0	29002	27620	160561	26949	1077512	46966	110781	0	0	8025	604375	0	0
2024-08-30 06:25:47			0	36455	0	0	0	28997	27610	160473	27230	1077521	46975	110779	0	0	8027	603503	0	0
2024-08-30 06:26:47			0	36453	0	0	0	28999	27610	160525	27109	1077521	46953	110780	0	0	8026	603585	0	0
2024-08-30 06:27:47			0	36460	0	0	0	29005	27610	160469	26885	1077494	46964	110782	0	0	8027	603297	0	0
2024-08-30 06:28:47			0	36471	0	0	0	29002	27600	160433	27031	1077485	46953	110781	0	0	8027	602878	0	0
2024-08-30 06:29:47			0	36461	0	0	0	28997	27610	160429	27013	1077494	46975	110779	0	0	8027	603256	0	0
2024-08-30 06:30:47			0	36465	0	0	0	28992	27610	160409	26909	1077521	46942	110777	0	0	8027	603091	0	0
2024-08-30 06:31:47			0	36471	0	0	0	28997	27600	160441	27060	1077485	46975	110779	0	0	8027	602878	0	0
2024-08-30 06:32:47			0	36466	0	0	0	28997	27600	160429	26788	1077476	46964	110779	0	0	8027	603084	0	0
2024-08-30 06:33:47			0	36478	0	0	0	28994	27600	160369	26975	1077476	46975	110778	0	0	8028	602590	0	0
2024-08-30 06:34:47			0	36476	0	0	0	28989	27590	160269	26800	1077467	46952	110776	0	0	8028	602707	0	0
2024-08-30 06:35:47			0	36479	0	0	0	28981	27600	160449	26998	1077458	46964	110773	0	0	8028	602549	0	0
2024-08-30 06:36:47			0	36494	0	0	0	28984	27600	160329	27039	1077395	46964	110774	0	0	8029	601932	0	0
2024-08-30 06:37:47			0	36492	0	0	0	28971	27590	160273	27147	1077431	46962	110769	0	0	8029	602049	0	0
2024-08-30 06:38:47			0	36496	0	0	0	28976	27590	160357	27114	1077431	46951	110771	0	0	8029	601884	0	0
2024-08-30 06:39:47			0	36487	0	0	0	28976	27580	160369	26961	1077395	46973	110771	0	0	8029	602289	0	0
2024-08-30 06:40:47			0	36479	0	0	0	28973	27580	160269	27046	1077368	46940	110770	0	0	8028	602618	0	0
2024-08-30 06:41:47			0	36493	0	0	0	28973	27580	160233	26771	1077395	46962	110770	0	0	8029	602042	0	0
2024-08-30 06:42:47			0	36518	0	0	0	28971	27580	160077	26922	1077386	46972	110769	0	0	8031	601014	0	0
2024-08-30 06:43:47			0	36507	0	0	0	28961	27590	160289	27034	1077404	46951	110765	0	0	8030	601432	0	0
2024-08-30 06:44:47			0	36499	0	0	0	28979	27570	160289	27327	1077350	46950	110772	0	0	8029	601830	0	0
2024-08-30 06:45:47			0	36515	0	0	0	28971	27580	160241	26873	1077386	46961	110769	0	0	8030	601137	0	0
2024-08-30 06:46:47			0	36528	0	0	0	28971	27580	160245	27246	1077386	46961	110769	0	0	8031	600603	0	0
2024-08-30 06:47:47			0	36528	0	0	0	28976	27580	160217	27319	1077368	46973	110771	0	0	8031	600603	0	0
2024-08-30 06:48:47			0	36543	0	0	0	28979	27580	160273	26941	1077368	46951	110772	0	0	8032	599987	0	0
2024-08-30 06:49:47			0	36546	0	0	0	28979	27580	160309	27334	1077359	46972	110772	0	0	8032	599864	0	0
2024-08-30 06:50:47			0	36551	0	0	0	28984	27580	160173	27126	1077413	46961	110774	0	0	8032	599659	0	0
2024-08-30 06:51:47			0	36529	0	0	0	28984	27580	160153	26955	1077439	46961	110774	0	0	8031	600562	0	0
2024-08-30 06:52:47			0	36534	0	0	0	28981	27580	160125	27019	1077368	46973	110773	0	0	8031	600357	0	0
2024-08-30 06:53:47			0	36529	0	0	0	28984	27580	160197	26835	1077332	46972	110774	0	0	8031	600562	0	0
2024-08-30 06:54:47			0	36546	0	0	0	28981	27590	160109	27079	1077458	46973	110773	0	0	8032	599830	0	0
2024-08-30 06:55:47			0	36537	0	0	0	28979	27580	160077	26715	1077359	46950	110772	0	0	8032	600234	0	0
2024-08-30 06:56:47			0	36558	0	0	0	28981	27580	160105	27248	1077395	46951	110773	0	0	8033	599372	0	0
2024-08-30 06:57:47			0	36548	0	0	0	28979	27590	160093	27197	1077431	46962	110772	0	0	8032	599748	0	0
2024-08-30 06:58:47			0	36558	0	0	0	28981	27580	160017	26956	1077413	46972	110773	0	0	8033	599372	0	0
2024-08-30 06:59:47			0	36551	0	0	0	28989	27580	159965	27256	1077422	46951	110776	0	0	8032	599659	0	0
2024-08-30 07:00:47			0	36559	0	0	0	28981	27580	160013	27072	1077386	46950	110773	0	0	8033	599331	0	0
2024-08-30 07:01:47			0	36560	0	0	0	28981	27580	160005	26941	1077386	46939	110773	0	0	8033	599290	0	0
2024-08-30 07:02:47			0	36564	0	0	0	28984	27580	160001	27215	1077386	46950	110774	0	0	8033	599126	0	0
2024-08-30 07:03:47			0	36574	0	0	0	28981	27590	160029	27013	1077404	46940	110773	0	0	8034	598681	0	0
2024-08-30 07:04:47			0	36568	0	0	0	28976	27590	160009	26887	1077386	46974	110771	0	0	8034	598927	0	0
2024-08-30 07:05:47			0	36568	0	0	0	28963	27580	160061	26833	1077386	46950	110766	0	0	8034	598962	0	0
2024-08-30 07:06:47			0	36553	0	0	0	28968	27580	160029	27135	1077386	46961	110768	0	0	8033	599577	0	0
2024-08-30 07:07:47			0	36568	0	0	0	28973	27580	160025	27024	1077359	46961	110770	0	0	8034	598962	0	0
2024-08-30 07:08:47			0	36574	0	0	0	28971	27580	160053	26644	1077341	46962	110769	0	0	8034	598716	0	0
2024-08-30 07:09:47			0	36565	0	0	0	28971	27570	159985	27118	1077314	46971	110769	0	0	8033	599119	0	0
2024-08-30 07:10:47			0	36580	0	0	0	28966	27580	160013	27064	1077359	46961	110767	0	0	8034	598470	0	0
2024-08-30 07:11:47			0	36581	0	0	0	28958	27570	160037	26986	1077341	46960	110764	0	0	8035	598463	0	0
2024-08-30 07:12:47			0	36567	0	0	0	28955	27570	160017	27150	1077314	46938	110763	0	0	8034	599037	0	0
2024-08-30 07:13:47			0	36586	0	0	0	28961	27570	160013	26840	1077296	46950	110765	0	0	8035	598258	0	0
2024-08-30 07:14:47			0	36581	0	0	0	28953	27570	159997	27034	1077287	46949	110762	0	0	8035	598463	0	0
2024-08-30 07:15:47			0	36584	0	0	0	28958	27570	160005	27020	1077296	46961	110764	0	0	8035	598340	0	0
2024-08-30 07:16:47			0	36589	0	0	0	28948	27560	160089	27239	1077269	46948	110760	0	0	8035	598170	0	0
2024-08-30 07:17:47			0	36566	0	0	0	28945	27570	159989	27048	1077260	46938	110759	0	0	8034	599078	0	0
2024-08-30 07:18:47			0	36560	0	0	0	28945	27560	160009	27083	1077269	46948	110759	0	0	8033	599359	0	0
2024-08-30 07:19:47			0	36573	0	0	0	28945	27560	159969	27095	1077296	46948	110759	0	0	8034	598826	0	0
2024-08-30 07:20:47			0	36582	0	0	0	28942	27560	159989	26767	1077215	46948	110758	0	0	8035	598457	0	0
2024-08-30 07:21:47			0	36592	0	0	0	28940	27550	160001	26968	1077197	46958	110757	0	0	8035	598082	0	0
2024-08-30 07:22:47			0	36569	0	0	0	28935	27560	159953	26882	1077215	46959	110755	0	0	8034	598990	0	0
2024-08-30 07:23:47			0	36576	0	0	0	28942	27550	159929	27301	1077260	46926	110758	0	0	8034	598737	0	0
2024-08-30 07:24:47			0	36594	0	0	0	28945	27560	159889	26948	1077242	46959	110759	0	0	8035	597965	0	0
2024-08-30 07:25:47			0	36592	0	0	0	28935	27550	159961	27291	1077197	46947	110755	0	0	8035	598082	0	0
2024-08-30 07:26:47			0	36587	0	0	0	28927	27550	159897	27272	1077224	46958	110752	0	0	8035	598286	0	0
2024-08-30 07:27:47			0	36605	0	0	0	28932	27550	159962	27000	1077197	46958	110754	0	0	8036	597549	0	0
2024-08-30 07:28:47			0	36578	0	0	0	28937	27550	159937	26967	1077152	46948	110756	0	0	8035	598655	0	0
2024-08-30 07:29:47			0	36602	0	0	0	28945	27550	159958	26750	1077224	46958	110759	0	0	8036	597672	0	0
2024-08-30 07:30:47			0	36572	0	0	0	28937	27550	160001	26826	1077143	46958	110756	0	0	8034	598901	0	0
2024-08-30 07:31:47			0	36593	0	0	0	28935	27540	159953	27131	1077161	46958	110755	0	0	8035	598075	0	0
2024-08-30 07:32:47			0	36583	0	0	0	28945	27540	159933	27190	1077215	46958	110759	0	0	8035	598485	0	0
2024-08-30 07:33:47			0	36590	0	0	0	28945	27540	159970	27149	1077188	46969	110759	0	0	8035	598198	0	0
2024-08-30 07:34:47			0	36577	0	0	0	28942	27550	159865	27156	1077250	46958	110758	0	0	8034	598696	0	0
2024-08-30 07:35:47			0	36598	0	0	0	28942	27550	159886	27052	1077233	46970	110758	0	0	8036	597836	0	0
2024-08-30 07:36:47			0	36604	0	0	0	28953	27550	159914	27010	1077197	46958	110762	0	0	8036	597590	0	0
2024-08-30 07:37:47			0	36601	0	0	0	28966	27550	159910	27067	1077224	46958	110767	0	0	8035	597713	0	0
2024-08-30 07:38:47			0	36587	0	0	0	28958	27540	159917	27114	1077205	46968	110764	0	0	8035	598321	0	0
2024-08-30 07:39:47			0	36597	0	0	0	28953	27550	159970	26849	1077206	46959	110762	0	0	8035	597877	0	0
2024-08-30 07:40:47			0	36591	0	0	0	28937	27550	159914	27109	1077197	46947	110756	0	0	8035	598123	0	0
2024-08-30 07:41:47			0	36594	0	0	0	28940	27550	159933	27154	1077197	46947	110757	0	0	8035	598000	0	0
2024-08-30 07:42:47			0	36597	0	0	0	28950	27550	159845	27085	1077250	46969	110761	0	0	8035	597877	0	0
2024-08-30 07:43:47			0	36598	0	0	0	28945	27550	159902	26878	1077224	46958	110759	0	0	8036	597836	0	0
2024-08-30 07:44:47			0	36602	0	0	0	28945	27540	159842	26984	1077268	46947	110759	0	0	8036	597706	0	0
2024-08-30 07:45:47			0	36594	0	0	0	28948	27550	159877	26764	1077233	46959	110760	0	0	8035	598000	0	0
2024-08-30 07:46:47			0	36614	0	0	0	28948	27560	159782	26821	1077215	46981	110760	0	0	8037	597147	0	0
2024-08-30 07:47:47			0	36607	0	0	0	28942	27540	159850	27286	1077205	46958	110758	0	0	8036	597502	0	0
2024-08-30 07:48:47			0	36602	0	0	0	28950	27560	159894	27008	1077188	46948	110761	0	0	8036	597638	0	0
2024-08-30 07:49:47			0	36612	0	0	0	28945	27550	159890	27029	1077170	46936	110759	0	0	8036	597263	0	0
2024-08-30 07:50:47			0	36596	0	0	0	28942	27540	159962	27229	1077205	46946	110758	0	0	8036	597952	0	0
2024-08-30 07:51:47			0	36615	0	0	0	28945	27550	159954	27187	1077224	46947	110759	0	0	8037	597140	0	0
2024-08-30 07:52:47			0	36598	0	0	0	28945	27550	159946	27145	1077179	46959	110759	0	0	8036	597836	0	0
2024-08-30 07:53:47			0	36596	0	0	0	28945	27550	159894	27128	1077197	46947	110759	0	0	8036	597918	0	0
2024-08-30 07:54:47			0	36590	0	0	0	28942	27540	159889	27267	1077205	46958	110758	0	0	8035	598198	0	0
2024-08-30 07:55:47			0	36601	0	0	0	28940	27550	159921	27064	1077224	46958	110757	0	0	8036	597713	0	0
2024-08-30 07:56:47			0	36587	0	0	0	28935	27550	159882	27163	1077170	46958	110755	0	0	8035	598286	0	0
2024-08-30 07:57:47			0	36594	0	0	0	28924	27550	159905	27081	1077170	46947	110751	0	0	8036	598000	0	0
2024-08-30 07:58:47			0	36592	0	0	0	28927	27540	159966	27041	1077107	46936	110752	0	0	8036	598116	0	0
2024-08-30 07:59:47			0	36592	0	0	0	28937	27550	159833	26993	1077170	46947	110756	0	0	8035	598082	0	0
2024-08-30 08:00:47			0	36591	0	0	0	28937	27540	159857	26812	1077134	46969	110756	0	0	8035	598157	0	0
2024-08-30 08:01:47			0	36593	0	0	0	28929	27540	159886	26930	1077161	46958	110753	0	0	8036	598075	0	0
2024-08-30 08:02:47			0	36599	0	0	0	28927	27540	159974	26804	1077134	46958	110752	0	0	8036	597829	0	0
2024-08-30 08:03:47			0	36609	0	0	0	28927	27540	159894	27183	1077125	46958	110752	0	0	8037	597420	0	0
2024-08-30 08:04:47			0	36596	0	0	0	28929	27540	159869	27355	1077125	46946	110753	0	0	8036	597952	0	0
2024-08-30 08:05:47			0	36614	0	0	0	28924	27540	159942	27307	1077152	46958	110751	0	0	8037	597215	0	0
2024-08-30 08:06:47			0	36603	0	0	0	28940	27520	159858	27038	1077205	46956	110757	0	0	8036	597734	0	0
2024-08-30 08:07:47			0	36604	0	0	0	28927	27540	159938	27147	1077125	46946	110752	0	0	8036	597625	0	0
2024-08-30 08:08:47			0	36616	0	0	0	28927	27540	159934	26830	1077080	46947	110752	0	0	8037	597133	0	0
2024-08-30 08:09:47			0	36606	0	0	0	28932	27530	159882	26684	1077169	46958	110754	0	0	8036	597577	0	0
2024-08-30 08:10:47			0	36617	0	0	0	28937	27540	159886	26599	1077179	46968	110756	0	0	8037	597092	0	0
2024-08-30 08:11:47			0	36591	0	0	0	28929	27530	159769	26760	1077142	46946	110753	0	0	8035	598191	0	0
2024-08-30 08:12:47			0	36594	0	0	0	28929	27540	159858	27345	1077205	46958	110753	0	0	8036	598034	0	0
2024-08-30 08:13:47			0	36597	0	0	0	28929	27530	159954	26970	1077169	46968	110753	0	0	8036	597945	0	0
2024-08-30 08:14:47			0	36605	0	0	0	28935	27530	159846	27003	1077115	46968	110755	0	0	8036	597618	0	0
2024-08-30 08:15:47			0	36611	0	0	0	28937	27550	159886	26987	1077170	46958	110756	0	0	8037	597304	0	0
2024-08-30 08:16:47			0	36621	0	0	0	28929	27540	159818	26844	1077134	46958	110753	0	0	8037	596929	0	0
2024-08-30 08:17:47			0	36606	0	0	0	28932	27530	159754	27190	1077115	46946	110754	0	0	8036	597577	0	0
2024-08-30 08:18:47			0	36628	0	0	0	28929	27530	159902	27190	1077142	46958	110753	0	0	8038	596677	0	0
2024-08-30 08:19:47			0	36611	0	0	0	28935	27530	159802	27116	1077169	46946	110755	0	0	8036	597372	0	0
2024-08-30 08:20:47			0	36620	0	0	0	28929	27530	159818	27189	1077088	46958	110753	0	0	8037	597004	0	0
2024-08-30 08:21:47			0	36623	0	0	0	28927	27540	159770	27268	1077152	46958	110752	0	0	8037	596847	0	0
2024-08-30 08:22:47			0	36620	0	0	0	28932	27540	159710	27041	1077179	46946	110754	0	0	8037	596970	0	0
2024-08-30 08:23:47			0	36630	0	0	0	28937	27540	159818	26880	1077188	46969	110756	0	0	8038	596561	0	0
2024-08-30 08:24:47			0	36623	0	0	0	28932	27540	159734	27053	1077205	46946	110754	0	0	8037	596847	0	0
2024-08-30 08:25:47			0	36632	0	0	0	28929	27540	159710	27253	1077152	46958	110753	0	0	8038	596479	0	0
2024-08-30 08:26:47			0	36635	0	0	0	28922	27530	159662	27055	1077115	46946	110750	0	0	8038	596391	0	0
2024-08-30 08:27:47			0	36637	0	0	0	28916	27540	159730	27046	1077098	46958	110748	0	0	8038	596275	0	0
2024-08-30 08:28:47			0	36642	0	0	0	28924	27530	159762	26713	1077079	46945	110751	0	0	8039	596105	0	0
2024-08-30 08:29:47			0	36662	0	0	0	28909	27530	159650	27067	1077133	46957	110745	0	0	8040	595287	0	0
2024-08-30 08:30:47			0	36636	0	0	0	28916	27530	159622	27013	1077106	46945	110748	0	0	8038	596350	0	0
2024-08-30 08:31:47			0	36640	0	0	0	28911	27520	159710	27218	1077070	46956	110746	0	0	8039	596221	0	0
2024-08-30 08:32:47			0	36655	0	0	0	28906	27520	159610	27206	1077097	46956	110744	0	0	8040	595608	0	0
2024-08-30 08:33:47			0	36648	0	0	0	28922	27530	159646	27305	1077133	46945	110750	0	0	8039	595859	0	0
2024-08-30 08:34:47			0	36670	0	0	0	28919	27520	159646	27019	1077070	46944	110749	0	0	8040	594995	0	0
2024-08-30 08:35:47			0	36673	0	0	0	28922	27520	159622	27050	1077151	46956	110750	0	0	8040	594873	0	0
2024-08-30 08:36:47			0	36672	0	0	0	28927	27520	159574	27033	1077070	46966	110752	0	0	8040	594913	0	0
2024-08-30 08:37:47			0	36664	0	0	0	28932	27530	159594	27050	1077106	46957	110754	0	0	8040	595206	0	0
2024-08-30 08:38:47			0	36659	0	0	0	28924	27520	159526	27157	1077097	46966	110751	0	0	8039	595444	0	0
2024-08-30 08:39:47			0	36692	0	0	0	28940	27530	159582	27154	1077079	46945	110757	0	0	8041	594063	0	0
2024-08-30 08:40:47			0	36674	0	0	0	28924	27540	159570	27152	1077205	46935	110751	0	0	8040	594763	0	0
2024-08-30 08:41:47			0	36684	0	0	0	28922	27530	159542	26958	1077142	46968	110750	0	0	8041	594390	0	0
2024-08-30 08:42:47			0	36663	0	0	0	28916	27530	159462	27320	1077160	46945	110748	0	0	8040	595247	0	0
2024-08-30 08:43:47			0	36677	0	0	0	28924	27530	159522	27230	1077106	46957	110751	0	0	8041	594675	0	0
2024-08-30 08:44:47			0	36680	0	0	0	28922	27530	159546	26920	1077052	46967	110750	0	0	8041	594553	0	0
2024-08-30 08:45:47			0	36698	0	0	0	28916	27530	159338	26930	1077115	46958	110748	0	0	8042	593819	0	0
2024-08-30 08:46:47			0	36700	0	0	0	28914	27530	159410	26835	1077079	46945	110747	0	0	8042	593737	0	0
2024-08-30 08:47:47			0	36682	0	0	0	28906	27520	159394	26937	1077070	46933	110744	0	0	8041	594506	0	0
2024-08-30 08:48:47			0	36700	0	0	0	28911	27530	159458	26774	1077079	46967	110746	0	0	8042	593737	0	0
2024-08-30 08:49:47			0	36690	0	0	0	28901	27520	159490	26811	1077097	46956	110742	0	0	8042	594179	0	0
2024-08-30 08:50:47			0	36686	0	0	0	28896	27520	159490	27133	1077097	46944	110740	0	0	8042	594342	0	0
2024-08-30 08:51:47			0	36690	0	0	0	28883	27520	159486	26896	1077043	46956	110735	0	0	8042	594179	0	0
2024-08-30 08:52:47			0	36682	0	0	0	28870	27510	159446	26982	1077052	46955	110730	0	0	8042	594540	0	0
2024-08-30 08:53:47			0	36702	0	0	0	28867	27510	159442	27307	1076971	46932	110729	0	0	8043	593724	0	0
2024-08-30 08:54:47			0	36715	0	0	0	28872	27500	159470	26785	1076926	46931	110731	0	0	8044	593228	0	0
2024-08-30 08:55:47			0	36707	0	0	0	28864	27500	159370	26987	1076980	46942	110728	0	0	8043	593554	0	0
2024-08-30 08:56:47			0	36710	0	0	0	28867	27490	159486	26703	1076801	46941	110729	0	0	8043	593466	0	0
2024-08-30 08:57:47			0	36721	0	0	0	28877	27490	159422	27118	1076881	46941	110733	0	0	8044	593018	0	0
2024-08-30 08:58:47			0	36714	0	0	0	28875	27490	159434	26927	1076917	46954	110732	0	0	8043	593303	0	0
2024-08-30 08:59:47			0	36713	0	0	0	28872	27490	159578	27114	1076908	46930	110731	0	0	8043	593344	0	0
2024-08-30 09:00:47			0	36717	0	0	0	28867	27490	159378	26807	1076962	46941	110729	0	0	8044	593181	0	0
2024-08-30 09:01:47			0	36738	0	0	0	28867	27480	159362	27152	1076836	46952	110729	0	0	8045	592360	0	0
2024-08-30 09:02:47			0	36746	0	0	0	28872	27490	159330	27133	1076854	46953	110731	0	0	8045	592001	0	0
2024-08-30 09:03:47			0	36754	0	0	0	28870	27490	159318	27121	1076828	46941	110730	0	0	8046	591675	0	0
2024-08-30 09:04:47			0	36780	0	0	0	28872	27480	159246	27182	1076899	46953	110731	0	0	8047	590653	0	0
2024-08-30 09:05:47			0	36810	0	0	0	28864	27470	159154	27149	1076800	46952	110728	0	0	8049	589469	0	0
2024-08-30 09:06:47			0	36798	0	0	0	28862	27470	159090	27331	1076854	46952	110727	0	0	8048	589956	0	0
2024-08-30 09:07:47			0	36818	0	0	0	28862	27470	159098	27043	1076818	46939	110727	0	0	8050	589144	0	0
2024-08-30 09:08:47			0	36853	0	0	0	28857	27480	159030	27081	1076845	46953	110725	0	0	8052	587692	0	0
2024-08-30 09:09:47			0	36841	0	0	0	28857	27470	158870	26856	1076800	46940	110725	0	0	8051	588212	0	0
2024-08-30 09:10:47			0	36866	0	0	0	28857	27470	158926	26852	1076818	46928	110725	0	0	8053	587200	0	0
2024-08-30 09:11:47			0	36895	0	0	0	28854	27470	158762	26729	1076800	46952	110724	0	0	8054	586028	0	0
2024-08-30 09:12:47			0	36921	0	0	0	28867	27470	158658	26844	1076818	46939	110729	0	0	8056	584978	0	0
2024-08-30 09:13:47			0	36943	0	0	0	28864	27460	158518	26967	1076782	46927	110728	0	0	8057	584124	0	0
2024-08-30 09:14:47			0	36965	0	0	0	28867	27450	158470	26993	1076818	46938	110729	0	0	8058	583271	0	0
2024-08-30 09:15:47			0	36969	0	0	0	28872	27460	158482	26974	1076890	46950	110731	0	0	8058	583077	0	0
2024-08-30 09:16:47			0	37004	0	0	0	28872	27460	158386	26885	1076773	46950	110731	0	0	8060	581668	0	0
2024-08-30 09:17:47			0	37021	0	0	0	28888	27470	158322	26623	1076773	46952	110737	0	0	8061	580952	0	0
2024-08-30 09:18:47			0	37025	0	0	0	28888	27470	158234	27046	1076845	46939	110737	0	0	8061	580791	0	0
2024-08-30 09:19:47			0	37027	0	0	0	28888	27470	158250	26904	1076845	46961	110737	0	0	8062	580711	0	0
2024-08-30 09:20:47			0	37052	0	0	0	28893	27470	158170	26979	1076908	46952	110739	0	0	8063	579708	0	0
2024-08-30 09:21:47			0	37058	0	0	0	28896	27480	158114	26713	1076863	46962	110740	0	0	8063	579434	0	0
2024-08-30 09:22:47			0	37067	0	0	0	28898	27490	158118	26696	1076908	46941	110741	0	0	8064	579039	0	0
2024-08-30 09:23:47			0	37079	0	0	0	28893	27470	158134	26797	1076962	46940	110739	0	0	8065	578625	0	0
2024-08-30 09:24:47			0	37076	0	0	0	28903	27480	158038	27177	1076953	46963	110743	0	0	8064	578712	0	0
2024-08-30 09:25:47			0	37079	0	0	0	28906	27480	158010	26635	1076872	46963	110744	0	0	8064	578592	0	0
2024-08-30 09:26:47			0	37092	0	0	0	28903	27480	158022	27277	1076980	46953	110743	0	0	8065	578071	0	0
2024-08-30 09:27:47			0	37113	0	0	0	28898	27490	157882	27050	1077016	46941	110741	0	0	8067	577198	0	0
2024-08-30 09:28:47			0	37121	0	0	0	28903	27480	157898	27031	1076980	46941	110743	0	0	8067	576911	0	0
2024-08-30 09:29:47			0	37139	0	0	0	28914	27490	157838	26786	1077016	46953	110747	0	0	8068	576159	0	0
2024-08-30 09:30:47			0	37120	0	0	0	28922	27490	157826	26953	1077025	46964	110750	0	0	8067	576918	0	0
2024-08-30 09:31:47			0	37146	0	0	0	28909	27500	157754	26703	1077007	46954	110745	0	0	8068	575846	0	0
2024-08-30 09:32:47			0	37132	0	0	0	28919	27510	157714	26845	1077007	46944	110749	0	0	8067	576372	0	0
2024-08-30 09:33:47			0	37164	0	0	0	28919	27500	157730	27166	1077043	46955	110749	0	0	8069	575128	0	0
2024-08-30 09:34:47			0	37169	0	0	0	28924	27500	157686	26916	1077097	46955	110751	0	0	8069	574928	0	0
2024-08-30 09:35:47			0	37176	0	0	0	28929	27510	157662	26915	1077034	46977	110753	0	0	8070	574616	0	0
2024-08-30 09:36:47			0	37169	0	0	0	28922	27500	157526	26648	1077043	46955	110750	0	0	8069	574928	0	0
2024-08-30 09:37:47			0	37204	0	0	0	28924	27510	157558	26840	1077052	46955	110751	0	0	8072	573500	0	0
2024-08-30 09:38:47			0	37198	0	0	0	28924	27510	157562	26817	1077106	46955	110751	0	0	8071	573739	0	0
2024-08-30 09:39:47			0	37182	0	0	0	28929	27520	157526	26573	1077097	46956	110753	0	0	8070	574344	0	0
2024-08-30 09:40:47			0	37204	0	0	0	28935	27510	157462	26902	1077142	46956	110755	0	0	8071	573500	0	0
2024-08-30 09:41:47			0	37200	0	0	0	28929	27520	157502	26873	1077097	46956	110753	0	0	8071	573626	0	0
2024-08-30 09:42:47			0	37202	0	0	0	28937	27530	157510	27041	1077160	46957	110756	0	0	8071	573514	0	0
2024-08-30 09:43:47			0	37222	0	0	0	28937	27530	157414	27062	1077115	46968	110756	0	0	8072	572718	0	0
2024-08-30 09:44:47			0	37231	0	0	0	28942	27530	157354	26785	1077160	46957	110758	0	0	8073	572360	0	0
2024-08-30 09:45:47			0	37242	0	0	0	28945	27540	157382	27097	1077241	46958	110759	0	0	8074	571890	0	0
2024-08-30 09:46:47			0	37243	0	0	0	28942	27530	157330	26882	1077187	46945	110758	0	0	8074	571883	0	0
2024-08-30 09:47:47			0	37248	0	0	0	28945	27530	157418	27034	1077241	46967	110759	0	0	8074	571684	0	0
2024-08-30 09:48:47			0	37257	0	0	0	28948	27530	157250	26606	1077214	46934	110760	0	0	8074	571327	0	0
2024-08-30 09:49:47			0	37250	0	0	0	28948	27530	157166	26757	1077277	46958	110760	0	0	8074	571605	0	0
2024-08-30 09:50:47			0	37257	0	0	0	28950	27530	157162	26767	1077223	46958	110761	0	0	8074	571327	0	0
2024-08-30 09:51:47			0	37264	0	0	0	28961	27540	157258	26750	1077259	46958	110765	0	0	8075	571016	0	0
2024-08-30 09:52:47			0	37259	0	0	0	28953	27540	157126	26977	1077295	46958	110762	0	0	8074	571214	0	0
2024-08-30 09:53:47			0	37278	0	0	0	28942	27540	157150	26901	1077268	46947	110758	0	0	8076	570460	0	0
2024-08-30 09:54:47			0	37273	0	0	0	28958	27540	157138	26942	1077268	46958	110764	0	0	8075	570659	0	0
2024-08-30 09:55:47			0	37276	0	0	0	28955	27550	157222	27039	1077277	46958	110763	0	0	8075	570507	0	0
2024-08-30 09:56:47			0	37284	0	0	0	28958	27550	157022	26948	1077260	46959	110764	0	0	8076	570189	0	0
2024-08-30 09:57:47			0	37286	0	0	0	28966	27550	157054	27159	1077313	46970	110767	0	0	8076	570110	0	0
2024-08-30 09:58:47			0	37286	0	0	0	28968	27550	157078	27050	1077340	46970	110768	0	0	8076	570110	0	0
2024-08-30 09:59:47			0	37306	0	0	0	28961	27550	157058	27131	1077277	46947	110765	0	0	8077	569317	0	0
2024-08-30 10:00:47			0	37296	0	0	0	28971	27550	157026	26698	1077313	46970	110769	0	0	8076	569713	0	0
2024-08-30 10:01:47			0	37310	0	0	0	28976	27550	156950	27005	1077340	46959	110771	0	0	8077	569158	0	0
2024-08-30 10:02:47			0	37315	0	0	0	28973	27560	156947	26998	1077385	46949	110770	0	0	8077	568928	0	0
2024-08-30 10:03:47			0	37329	0	0	0	28971	27560	156879	27031	1077322	46948	110769	0	0	8078	568373	0	0
2024-08-30 10:04:47			0	37332	0	0	0	28973	27560	156883	26892	1077358	46960	110770	0	0	8078	568255	0	0
2024-08-30 10:05:47			0	37340	0	0	0	28984	27560	156875	26967	1077349	46959	110774	0	0	8079	567938	0	0
2024-08-30 10:06:47			0	37334	0	0	0	28989	27570	156863	27066	1077367	46949	110776	0	0	8078	568143	0	0
2024-08-30 10:07:47			0	37350	0	0	0	28984	27560	156923	26974	1077358	46960	110774	0	0	8079	567543	0	0
2024-08-30 10:08:47			0	37340	0	0	0	28989	27560	156715	26942	1077466	46960	110776	0	0	8079	567938	0	0
2024-08-30 10:09:47			0	37361	0	0	0	28992	27580	156815	26691	1077386	46939	110777	0	0	8080	567042	0	0
2024-08-30 10:10:47			0	37361	0	0	0	28979	27570	156763	26667	1077403	46961	110772	0	0	8080	567075	0	0
2024-08-30 10:11:47			0	37373	0	0	0	28984	27580	156775	26663	1077439	46961	110774	0	0	8081	566568	0	0
2024-08-30 10:12:47			0	37390	0	0	0	28994	27570	156787	27086	1077475	46960	110778	0	0	8081	565930	0	0
2024-08-30 10:13:47			0	37379	0	0	0	28992	27570	156635	26642	1077448	46949	110777	0	0	8081	566364	0	0
2024-08-30 10:14:47			0	37403	0	0	0	28986	27570	156615	26833	1077511	46961	110775	0	0	8082	565417	0	0
2024-08-30 10:15:47			0	37385	0	0	0	28997	27580	156647	26942	1077466	46950	110779	0	0	8081	566095	0	0
2024-08-30 10:16:47			0	37390	0	0	0	28994	27580	156623	27180	1077475	46951	110778	0	0	8082	565897	0	0
2024-08-30 10:17:47			0	37383	0	0	0	28999	27590	156723	26654	1077511	46962	110780	0	0	8081	566141	0	0
2024-08-30 10:18:47			0	37403	0	0	0	28999	27580	156687	26641	1077502	46962	110780	0	0	8082	565384	0	0
2024-08-30 10:19:47			0	37415	0	0	0	28994	27590	156683	26693	1077574	46952	110778	0	0	8083	564879	0	0
2024-08-30 10:20:47			0	37422	0	0	0	29002	27590	156647	26821	1077538	46973	110781	0	0	8083	564603	0	0
2024-08-30 10:21:47			0	37410	0	0	0	28999	27590	156559	26824	1077574	46952	110780	0	0	8083	565076	0	0
2024-08-30 10:22:47			0	37415	0	0	0	29007	27590	156623	27020	1077511	46962	110783	0	0	8083	564879	0	0
2024-08-30 10:23:47			0	37431	0	0	0	29005	27590	156511	27043	1077511	46973	110782	0	0	8084	564248	0	0
2024-08-30 10:24:47			0	37442	0	0	0	29010	27590	156475	26991	1077511	46973	110784	0	0	8084	563815	0	0
2024-08-30 10:25:47			0	37438	0	0	0	29015	27600	156535	26916	1077556	46953	110786	0	0	8084	563940	0	0
2024-08-30 10:26:47			0	37430	0	0	0	29023	27590	156507	26932	1077520	46952	110789	0	0	8083	564287	0	0
2024-08-30 10:27:47			0	37442	0	0	0	29018	27610	156423	27057	1077628	46964	110787	0	0	8084	563750	0	0
2024-08-30 10:28:47			0	37442	0	0	0	29020	27600	156395	27107	1077619	46953	110788	0	0	8084	563782	0	0
2024-08-30 10:29:47			0	37458	0	0	0	29012	27600	156491	26778	1077556	46942	110785	0	0	8085	563153	0	0
2024-08-30 10:30:47			0	37457	0	0	0	29028	27600	156447	26923	1077619	46975	110791	0	0	8085	563192	0	0
2024-08-30 10:31:47			0	37445	0	0	0	29033	27610	156371	27183	1077601	46975	110793	0	0	8084	563632	0	0
2024-08-30 10:32:47			0	37479	0	0	0	29044	27610	156387	27105	1077691	46976	110797	0	0	8086	562295	0	0
2024-08-30 10:33:47			0	37468	0	0	0	29041	27610	156495	27053	1077691	46965	110796	0	0	8085	562727	0	0
2024-08-30 10:34:47			0	37475	0	0	0	29059	27620	156323	26826	1077727	46966	110803	0	0	8086	562420	0	0
2024-08-30 10:35:47			0	37483	0	0	0	29057	27620	156319	27154	1077817	46989	110802	0	0	8086	562105	0	0
2024-08-30 10:36:47			0	37496	0	0	0	29054	27620	156343	26894	1077790	46966	110801	0	0	8087	561595	0	0
2024-08-30 10:37:47			0	37490	0	0	0	29059	27640	156299	27154	1077746	46968	110803	0	0	8087	561765	0	0
2024-08-30 10:38:47			0	37504	0	0	0	29064	27640	156263	27022	1077827	46979	110805	0	0	8087	561216	0	0
2024-08-30 10:39:47			0	37493	0	0	0	29077	27660	156263	27154	1077935	46970	110810	0	0	8086	561583	0	0
2024-08-30 10:40:47			0	37484	0	0	0	29088	27650	156327	27145	1077872	46969	110814	0	0	8086	561969	0	0
2024-08-30 10:41:47			0	37502	0	0	0	29088	27650	156295	26887	1077872	46969	110814	0	0	8087	561262	0	0
2024-08-30 10:42:47			0	37489	0	0	0	29085	27660	156319	27069	1077935	46970	110813	0	0	8086	561740	0	0
2024-08-30 10:43:47			0	37499	0	0	0	29090	27660	156159	26902	1077935	46970	110815	0	0	8087	561347	0	0
2024-08-30 10:44:47			0	37506	0	0	0	29101	27660	156187	27197	1077935	46958	110819	0	0	8087	561073	0	0
2024-08-30 10:45:47			0	37483	0	0	0	29101	27670	156127	27093	1078007	46959	110819	0	0	8086	561943	0	0
2024-08-30 10:46:47			0	37507	0	0	0	29106	27670	156011	26717	1078034	46982	110821	0	0	8087	561001	0	0
2024-08-30 10:47:47			0	37495	0	0	0	29109	27670	156179	27057	1078016	46971	110822	0	0	8086	561472	0	0
2024-08-30 10:48:47			0	37508	0	0	0	29111	27670	156091	27062	1078016	46959	110823	0	0	8087	560962	0	0
2024-08-30 10:49:47			0	37518	0	0	0	29122	27680	156079	27076	1078061	46961	110827	0	0	8087	560537	0	0
2024-08-30 10:50:47			0	37509	0	0	0	29114	27690	155939	27067	1078070	46996	110824	0	0	8087	560858	0	0
2024-08-30 10:51:47			0	37527	0	0	0	29109	27690	156055	27019	1078133	46973	110822	0	0	8088	560152	0	0
2024-08-30 10:52:47			0	37513	0	0	0	29106	27700	155991	27220	1078142	46974	110821	0	0	8087	560669	0	0
2024-08-30 10:53:47			0	37522	0	0	0	29109	27700	156035	27135	1078151	46963	110822	0	0	8088	560316	0	0
2024-08-30 10:54:47			0	37501	0	0	0	29116	27690	156019	26915	1078133	46961	110825	0	0	8086	561172	0	0
2024-08-30 10:55:47			0	37523	0	0	0	29114	27700	156019	26977	1078124	46963	110824	0	0	8088	560277	0	0
2024-08-30 10:56:47			0	37509	0	0	0	29119	27700	155971	26859	1078071	46975	110826	0	0	8087	560826	0	0
2024-08-30 10:57:47			0	37538	0	0	0	29127	27710	155967	27017	1078187	46986	110829	0	0	8088	559657	0	0
2024-08-30 10:58:47			0	37520	0	0	0	29122	27710	155975	27064	1078107	46975	110827	0	0	8088	560362	0	0
2024-08-30 10:59:47			0	37531	0	0	0	29132	27710	156079	27126	1078169	46964	110831	0	0	8088	559931	0	0
2024-08-30 11:00:47			0	37540	0	0	0	29135	27710	155979	26967	1078241	46986	110832	0	0	8088	559578	0	0
2024-08-30 11:01:47			0	37529	0	0	0	29153	27710	156079	26776	1078250	46987	110839	0	0	8088	560009	0	0
2024-08-30 11:02:47			0	37538	0	0	0	29161	27720	155931	26960	1078241	46977	110842	0	0	8088	559625	0	0
2024-08-30 11:03:47			0	37552	0	0	0	29171	27730	155935	26911	1078304	46989	110846	0	0	8089	559044	0	0
2024-08-30 11:04:47			0	37543	0	0	0	29192	27730	155959	26857	1078358	46978	110854	0	0	8088	559397	0	0
2024-08-30 11:05:47			0	37543	0	0	0	29207	27740	155955	26987	1078385	47001	110860	0	0	8088	559364	0	0
2024-08-30 11:06:47			0	37556	0	0	0	29199	27750	155923	26833	1078448	46991	110857	0	0	8088	558823	0	0
2024-08-30 11:07:47			0	37543	0	0	0	29202	27760	155911	26982	1078440	47002	110858	0	0	8088	559300	0	0
2024-08-30 11:08:47			0	37565	0	0	0	29199	27770	155847	26729	1078458	46982	110857	0	0	8089	558407	0	0
2024-08-30 11:09:47			0	37577	0	0	0	29202	27770	155811	27039	1078485	46993	110858	0	0	8090	557938	0	0
2024-08-30 11:10:47			0	37569	0	0	0	29192	27770	155731	27116	1078548	46970	110854	0	0	8089	558250	0	0
2024-08-30 11:11:47			0	37577	0	0	0	29202	27770	155823	27013	1078548	46993	110858	0	0	8090	557938	0	0
2024-08-30 11:12:47			0	37581	0	0	0	29199	27780	155731	27017	1078557	46970	110857	0	0	8090	557749	0	0
2024-08-30 11:13:47			0	37572	0	0	0	29212	27770	155763	26925	1078601	46982	110862	0	0	8089	558133	0	0
2024-08-30 11:14:47			0	37580	0	0	0	29223	27780	155683	26987	1078530	46982	110866	0	0	8090	557788	0	0
2024-08-30 11:15:47			0	37586	0	0	0	29207	27790	155619	26845	1078557	46985	110860	0	0	8090	557522	0	0
2024-08-30 11:16:47			0	37582	0	0	0	29215	27780	155583	26736	1078593	46994	110863	0	0	8090	557710	0	0
2024-08-30 11:17:47			0	37588	0	0	0	29220	27790	155587	27043	1078575	46984	110865	0	0	8090	557443	0	0
2024-08-30 11:18:47			0	37594	0	0	0	29225	27790	155595	26977	1078656	46973	110867	0	0	8090	557209	0	0
2024-08-30 11:19:47			0	37600	0	0	0	29228	27810	155475	26870	1078737	46974	110868	0	0	8091	556911	0	0
2024-08-30 11:20:47			0	37575	0	0	0	29236	27790	155515	27137	1078746	46985	110871	0	0	8089	557951	0	0
2024-08-30 11:21:47			0	37571	0	0	0	29225	27820	155563	27083	1078728	46976	110867	0	0	8089	558012	0	0
2024-08-30 11:22:47			0	37609	0	0	0	29228	27820	155519	27081	1078764	46987	110868	0	0	8091	556527	0	0
2024-08-30 11:23:47			0	37601	0	0	0	29236	27800	155535	27019	1078755	46985	110871	0	0	8091	556904	0	0
2024-08-30 11:24:47			0	37599	0	0	0	29236	27820	155583	26814	1078836	46987	110871	0	0	8091	556918	0	0
2024-08-30 11:25:47			0	37608	0	0	0	29231	27830	155595	26948	1078827	47009	110869	0	0	8091	556534	0	0
2024-08-30 11:26:47			0	37611	0	0	0	29233	27830	155535	27142	1078827	46987	110870	0	0	8091	556417	0	0
2024-08-30 11:27:47			0	37607	0	0	0	29231	27830	155391	26847	1078836	46988	110869	0	0	8091	556573	0	0
2024-08-30 11:28:47			0	37618	0	0	0	29246	27830	155483	26927	1078827	46976	110875	0	0	8092	556144	0	0
2024-08-30 11:29:47			0	37623	0	0	0	29246	27830	155431	26844	1078863	46988	110875	0	0	8092	555949	0	0
2024-08-30 11:30:47			0	37613	0	0	0	29244	27840	155471	26871	1078872	46978	110874	0	0	8091	556307	0	0
2024-08-30 11:31:47			0	37625	0	0	0	29254	27840	155419	27024	1078899	46989	110878	0	0	8092	555839	0	0
2024-08-30 11:32:47			0	37607	0	0	0	29249	27840	155543	26902	1078881	46989	110876	0	0	8091	556541	0	0
2024-08-30 11:33:47			0	37619	0	0	0	29251	27850	155475	27130	1078917	46989	110877	0	0	8092	556041	0	0
2024-08-30 11:34:47			0	37622	0	0	0	29251	27840	155499	26849	1078872	47000	110877	0	0	8092	555956	0	0
2024-08-30 11:35:47			0	37630	0	0	0	29262	27860	155415	27050	1078989	47001	110881	0	0	8092	555580	0	0
2024-08-30 11:36:47			0	37616	0	0	0	29259	27850	155451	26904	1078953	46990	110880	0	0	8091	556158	0	0
2024-08-30 11:37:47			0	37615	0	0	0	29257	27850	155415	27208	1078899	47000	110879	0	0	8091	556197	0	0
2024-08-30 11:38:47			0	37633	0	0	0	29267	27870	155459	27033	1078963	47002	110883	0	0	8092	555431	0	0
2024-08-30 11:39:47			0	37636	0	0	0	29267	27860	155347	26955	1079016	46980	110883	0	0	8093	555346	0	0
2024-08-30 11:40:47			0	37649	0	0	0	29270	27850	155255	27052	1078953	46990	110884	0	0	8093	554872	0	0
2024-08-30 11:41:47			0	37653	0	0	0	29270	27860	155239	26890	1079079	46992	110884	0	0	8093	554684	0	0
2024-08-30 11:42:47			0	37669	0	0	0	29280	27870	155259	26942	1079016	46992	110888	0	0	8094	554030	0	0
2024-08-30 11:43:47			0	37677	0	0	0	29275	27880	155259	27059	1079106	46993	110886	0	0	8095	553687	0	0
2024-08-30 11:44:47			0	37674	0	0	0	29270	27880	155199	26870	1079106	47003	110884	0	0	8095	553803	0	0
2024-08-30 11:45:47			0	37677	0	0	0	29283	27870	155295	27220	1079097	46981	110889	0	0	8095	553718	0	0
2024-08-30 11:46:47			0	37690	0	0	0	29267	27870	155231	27208	1079097	46992	110883	0	0	8096	553213	0	0
2024-08-30 11:47:47			0	37679	0	0	0	29267	27870	155147	27057	1079097	46969	110883	0	0	8095	553641	0	0
2024-08-30 11:48:47			0	37690	0	0	0	29270	27880	155115	26873	1079052	46993	110884	0	0	8096	553181	0	0
2024-08-30 11:49:47			0	37715	0	0	0	29277	27870	155123	26885	1079043	46981	110887	0	0	8097	552242	0	0
2024-08-30 11:50:47			0	37709	0	0	0	29272	27880	155091	26774	1079106	46993	110885	0	0	8097	552443	0	0
2024-08-30 11:51:47			0	37723	0	0	0	29285	27870	154991	26587	1079124	46981	110890	0	0	8097	551931	0	0
2024-08-30 11:52:47			0	37729	0	0	0	29288	27880	155075	26724	1079142	46994	110891	0	0	8098	551667	0	0
2024-08-30 11:53:47			0	37745	0	0	0	29296	27890	155047	26961	1079205	46994	110894	0	0	8098	551014	0	0
2024-08-30 11:54:47			0	37736	0	0	0	29298	27890	154991	27100	1079124	47004	110895	0	0	8098	551363	0	0
2024-08-30 11:55:47			0	37734	0	0	0	29298	27890	154927	27003	1079187	46994	110895	0	0	8098	551441	0	0
2024-08-30 11:56:47			0	37749	0	0	0	29303	27890	154903	26909	1079124	46983	110897	0	0	8099	550859	0	0
2024-08-30 11:57:47			0	37742	0	0	0	29306	27890	155031	27112	1079241	47004	110898	0	0	8098	551131	0	0
2024-08-30 11:58:47			0	37748	0	0	0	29311	27900	154835	27022	1079233	46996	110900	0	0	8098	550866	0	0
2024-08-30 11:59:47			0	37763	0	0	0	29324	27890	154851	26876	1079268	46994	110905	0	0	8099	550317	0	0
2024-08-30 12:00:47			0	37763	0	0	0	29329	27900	154819	27088	1079259	47006	110907	0	0	8099	550285	0	0
2024-08-30 12:01:47			0	37783	0	0	0	29327	27910	154751	26883	1079332	47006	110906	0	0	8100	549479	0	0
2024-08-30 12:02:47			0	37776	0	0	0	29332	27920	154843	27164	1079341	47007	110908	0	0	8100	549718	0	0
2024-08-30 12:03:47			0	37779	0	0	0	29337	27920	154743	27107	1079368	46997	110910	0	0	8100	549602	0	0
2024-08-30 12:04:47			0	37781	0	0	0	29340	27920	154739	27149	1079368	46997	110911	0	0	8100	549525	0	0
2024-08-30 12:05:47			0	37806	0	0	0	29337	27910	154691	26729	1079332	46985	110910	0	0	8101	548590	0	0
2024-08-30 12:06:47			0	37773	0	0	0	29348	27930	154675	27074	1079359	47009	110914	0	0	8099	549803	0	0
2024-08-30 12:07:47			0	37820	0	0	0	29342	27920	154747	27194	1079323	47008	110912	0	0	8102	548017	0	0
2024-08-30 12:08:47			0	37814	0	0	0	29350	27930	154719	27053	1079449	46999	110915	0	0	8102	548217	0	0
2024-08-30 12:09:47			0	37806	0	0	0	29348	27920	154691	27020	1079404	46998	110914	0	0	8101	548558	0	0
2024-08-30 12:10:47			0	37806	0	0	0	29350	27940	154687	27159	1079485	46988	110915	0	0	8101	548495	0	0
2024-08-30 12:11:47			0	37806	0	0	0	29376	27940	154615	27251	1079566	46988	110925	0	0	8101	548495	0	0
2024-08-30 12:12:47			0	37822	0	0	0	29399	27950	154607	27275	1079593	47012	110934	0	0	8101	547845	0	0
2024-08-30 12:13:47			0	37827	0	0	0	29425	27950	154571	27182	1079665	47023	110944	0	0	8101	547652	0	0
2024-08-30 12:14:47			0	37823	0	0	0	29433	27970	154575	27041	1079755	47036	110947	0	0	8101	547743	0	0
2024-08-30 12:15:47			0	37820	0	0	0	29444	27970	154651	27060	1079782	47014	110951	0	0	8101	547859	0	0
2024-08-30 12:16:47			0	37825	0	0	0	29446	27980	154531	26982	1079809	47014	110952	0	0	8101	547634	0	0
2024-08-30 12:17:47			0	37818	0	0	0	29438	28000	154503	27008	1079890	47017	110949	0	0	8101	547841	0	0
2024-08-30 12:18:47			0	37823	0	0	0	29462	28000	154415	27100	1079863	47005	110958	0	0	8101	547648	0	0
2024-08-30 12:19:47			0	37830	0	0	0	29470	28010	154435	27118	1079890	47019	110961	0	0	8101	547347	0	0
2024-08-30 12:20:47			0	37837	0	0	0	29470	28020	154443	27187	1080007	47007	110961	0	0	8101	547045	0	0
2024-08-30 12:21:47			0	37850	0	0	0	29464	28020	154427	27159	1079989	46997	110959	0	0	8102	546544	0	0
2024-08-30 12:22:47			0	37859	0	0	0	29462	28020	154279	27092	1079936	47007	110958	0	0	8103	546197	0	0
2024-08-30 12:23:47			0	37875	0	0	0	29462	28030	154259	27010	1079945	47020	110958	0	0	8104	545549	0	0
2024-08-30 12:24:47			0	37884	0	0	0	29451	28040	154263	26909	1079990	47009	110954	0	0	8105	545171	0	0
2024-08-30 12:25:47			0	37894	0	0	0	29454	28030	154123	26835	1079927	47009	110955	0	0	8105	544817	0	0
2024-08-30 12:26:47			0	37914	0	0	0	29451	28030	154139	26923	1079954	46987	110954	0	0	8106	544048	0	0
2024-08-30 12:27:47			0	37912	0	0	0	29449	28030	154071	27114	1080035	46999	110953	0	0	8106	544125	0	0
2024-08-30 12:28:47			0	37910	0	0	0	29475	28030	154083	26989	1080008	47009	110963	0	0	8106	544202	0	0
2024-08-30 12:29:47			0	37912	0	0	0	29483	28050	154063	27031	1080035	47010	110966	0	0	8106	544062	0	0
2024-08-30 12:30:47			0	37905	0	0	0	29472	28050	154063	27161	1080071	47000	110962	0	0	8105	544332	0	0
2024-08-30 12:31:47			0	37908	0	0	0	29459	28040	154067	27267	1080107	47009	110957	0	0	8106	544247	0	0
2024-08-30 12:32:47			0	37932	0	0	0	29444	28050	154035	27012	1080044	47023	110951	0	0	8107	543294	0	0
2024-08-30 12:33:47			0	37931	0	0	0	29438	28050	153939	26760	1080044	47011	110949	0	0	8108	543332	0	0
2024-08-30 12:34:47			0	37950	0	0	0	29425	28050	153855	27072	1080008	47010	110944	0	0	8109	542603	0	0
2024-08-30 12:35:47			0	37964	0	0	0	29399	28040	153763	26894	1079945	47009	110934	0	0	8110	542097	0	0
2024-08-30 12:36:47			0	37953	0	0	0	29410	28050	153727	27072	1079963	47000	110938	0	0	8109	542488	0	0
2024-08-30 12:37:47			0	37962	0	0	0	29410	28040	153783	26885	1079918	46987	110938	0	0	8110	542174	0	0
2024-08-30 12:38:47			0	37971	0	0	0	29405	28040	153935	27194	1079936	46987	110936	0	0	8110	541829	0	0
2024-08-30 12:39:47			0	37963	0	0	0	29397	28020	153831	26883	1079855	46985	110933	0	0	8110	542198	0	0
2024-08-30 12:40:47			0	37963	0	0	0	29402	28020	153951	27114	1079846	46997	110935	0	0	8110	542198	0	0
2024-08-30 12:41:47			0	37964	0	0	0	29379	28020	153883	26850	1079828	46985	110926	0	0	8110	542160	0	0
2024-08-30 12:42:47			0	37956	0	0	0	29381	28020	153859	26913	1079846	46997	110927	0	0	8110	542466	0	0
2024-08-30 12:43:47			0	37972	0	0	0	29379	28010	153839	27072	1079729	46985	110926	0	0	8111	541884	0	0
2024-08-30 12:44:47			0	37952	0	0	0	29374	28020	153855	26894	1079792	46997	110924	0	0	8110	542620	0	0
2024-08-30 12:45:47			0	37943	0	0	0	29368	28020	153899	26901	1079792	46974	110922	0	0	8109	542965	0	0
2024-08-30 12:46:47			0	37935	0	0	0	29371	28010	153959	27197	1079720	46996	110923	0	0	8109	543304	0	0
2024-08-30 12:47:47			0	37934	0	0	0	29381	28000	154007	26847	1079782	46995	110927	0	0	8108	543374	0	0
2024-08-30 12:48:47			0	37918	0	0	0	29423	28000	154075	27346	1079765	46995	110943	0	0	8107	543989	0	0
2024-08-30 12:49:47			0	37908	0	0	0	29418	28010	154071	27067	1079837	47007	110941	0	0	8106	544342	0	0
2024-08-30 12:50:47			0	37899	0	0	0	29415	28010	154087	27053	1079863	47019	110940	0	0	8106	544688	0	0
2024-08-30 12:51:47			0	37893	0	0	0	29397	28020	154099	27293	1079846	47007	110933	0	0	8106	544887	0	0
2024-08-30 12:52:47			0	37887	0	0	0	29392	28010	154155	27296	1079837	46997	110931	0	0	8106	545150	0	0
2024-08-30 12:53:47			0	37903	0	0	0	29384	28010	154151	27230	1079810	47007	110928	0	0	8107	544534	0	0
2024-08-30 12:54:47			0	37895	0	0	0	29371	28010	154103	27147	1079693	46973	110923	0	0	8106	544842	0	0
2024-08-30 12:55:47			0	37889	0	0	0	29384	28000	154131	27229	1079738	46995	110928	0	0	8106	545104	0	0
2024-08-30 12:56:47			0	37892	0	0	0	29379	28000	154087	27206	1079765	47005	110926	0	0	8106	544989	0	0
2024-08-30 12:57:47			0	37902	0	0	0	29379	28000	154211	27225	1079702	47005	110926	0	0	8107	544604	0	0
2024-08-30 12:58:47			0	37897	0	0	0	29410	28000	154159	26998	1079755	46995	110938	0	0	8106	544796	0	0
2024-08-30 12:59:47			0	37891	0	0	0	29423	28000	154171	27199	1079782	47017	110943	0	0	8105	545027	0	0
2024-08-30 13:00:47			0	37885	0	0	0	29418	28000	154207	26892	1079791	46995	110941	0	0	8105	545258	0	0
2024-08-30 13:01:47			0	37895	0	0	0	29410	28000	154171	27137	1079755	46995	110938	0	0	8106	544873	0	0
2024-08-30 13:02:47			0	37885	0	0	0	29410	28000	154207	27012	1079782	47005	110938	0	0	8105	545258	0	0
2024-08-30 13:03:47			0	37892	0	0	0	29407	28000	154175	27128	1079836	47017	110937	0	0	8106	544989	0	0
2024-08-30 13:04:47			0	37896	0	0	0	29420	28010	154211	27156	1079828	47006	110942	0	0	8106	544803	0	0
2024-08-30 13:05:47			0	37892	0	0	0	29428	28010	154127	26965	1079890	47007	110945	0	0	8105	544957	0	0
2024-08-30 13:06:47			0	37893	0	0	0	29431	28010	154151	27066	1079890	47019	110946	0	0	8105	544919	0	0
2024-08-30 13:07:47			0	37891	0	0	0	29446	28010	154291	26956	1079917	47030	110952	0	0	8105	544996	0	0
2024-08-30 13:08:47			0	37890	0	0	0	29444	28030	154171	27043	1079945	47020	110951	0	0	8105	544971	0	0
2024-08-30 13:09:47			0	37892	0	0	0	29454	28020	154167	26871	1080016	47019	110955	0	0	8105	544926	0	0
2024-08-30 13:10:47			0	37922	0	0	0	29449	28020	154155	27190	1080043	47030	110953	0	0	8107	543772	0	0
2024-08-30 13:11:47			0	37893	0	0	0	29457	28030	154043	27055	1079998	47008	110956	0	0	8105	544856	0	0
2024-08-30 13:12:47			0	37886	0	0	0	29516	28040	154099	26771	1080152	47009	110979	0	0	8104	545094	0	0
2024-08-30 13:13:47			0	37913	0	0	0	29555	28050	154075	26955	1080224	47043	110994	0	0	8105	544024	0	0
2024-08-30 13:14:47			0	37928	0	0	0	29553	28060	153915	27090	1080278	47024	110993	0	0	8105	543416	0	0
2024-08-30 13:15:47			0	37932	0	0	0	29558	28080	153911	26844	1080386	47036	110995	0	0	8106	543200	0	0
2024-08-30 13:16:47			0	37954	0	0	0	29548	28080	153999	26765	1080422	47037	110991	0	0	8107	542355	0	0
2024-08-30 13:17:47			0	37935	0	0	0	29498	28090	153939	27274	1080386	47027	110972	0	0	8107	543053	0	0
2024-08-30 13:18:47			0	37959	0	0	0	29454	28100	153803	27086	1080288	47016	110955	0	0	8109	542101	0	0
2024-08-30 13:19:47			0	37971	0	0	0	29451	28090	153787	26736	1080252	47027	110954	0	0	8110	541672	0	0
2024-08-30 13:20:47			0	38003	0	0	0	29444	28080	153743	27020	1080180	46992	110951	0	0	8112	540478	0	0
2024-08-30 13:21:47			0	38002	0	0	0	29420	28070	153623	27067	1080161	46991	110942	0	0	8112	540547	0	0
2024-08-30 13:22:47			0	37989	0	0	0	29425	28060	153615	26920	1080062	46990	110944	0	0	8111	541076	0	0
2024-08-30 13:23:47			0	38030	0	0	0	29433	28060	153688	27069	1080035	47001	110947	0	0	8113	539507	0	0
2024-08-30 13:24:47			0	37995	0	0	0	29438	28060	153691	27001	1080062	47001	110949	0	0	8111	540846	0	0
2024-08-30 13:25:47			0	38000	0	0	0	29438	28060	153639	26951	1080089	47001	110949	0	0	8112	540655	0	0
2024-08-30 13:26:47			0	37997	0	0	0	29433	28060	153703	26930	1080116	46990	110947	0	0	8111	540770	0	0
2024-08-30 13:27:47			0	37998	0	0	0	29454	28050	153643	26989	1080044	47011	110955	0	0	8111	540763	0	0
2024-08-30 13:28:47			0	38010	0	0	0	29462	28060	153683	27201	1080116	47001	110958	0	0	8112	540272	0	0
2024-08-30 13:29:47			0	38002	0	0	0	29475	28060	153719	26859	1080170	47012	110963	0	0	8111	540578	0	0
2024-08-30 13:30:47			0	38000	0	0	0	29470	28060	153703	26981	1080134	47011	110961	0	0	8111	540655	0	0
2024-08-30 13:31:47			0	38004	0	0	0	29462	28060	153783	26750	1080062	47012	110958	0	0	8111	540502	0	0
2024-08-30 13:32:47			0	37987	0	0	0	29451	28060	153699	27296	1080116	47012	110954	0	0	8111	541153	0	0
2024-08-30 13:33:47			0	38004	0	0	0	29459	28070	153667	26979	1080098	47012	110957	0	0	8111	540471	0	0
2024-08-30 13:34:47			0	37993	0	0	0	29464	28060	153671	27157	1080134	47011	110959	0	0	8111	540923	0	0
2024-08-30 13:35:47			0	37990	0	0	0	29470	28060	153659	27046	1080134	47011	110961	0	0	8110	541038	0	0
2024-08-30 13:36:47			0	38008	0	0	0	29462	28070	153735	27008	1080188	47013	110958	0	0	8112	540318	0	0
2024-08-30 13:37:47			0	37990	0	0	0	29472	28070	153675	27126	1080161	47002	110962	0	0	8110	541007	0	0
2024-08-30 13:38:47			0	37984	0	0	0	29475	28070	153615	26845	1080125	47012	110963	0	0	8110	541237	0	0
2024-08-30 13:39:47			0	37993	0	0	0	29477	28050	153683	27130	1080098	47011	110964	0	0	8110	540954	0	0
2024-08-30 13:40:47			0	37982	0	0	0	29477	28070	153763	26953	1080188	47025	110964	0	0	8110	541313	0	0
2024-08-30 13:41:47			0	37990	0	0	0	29480	28070	153763	27003	1080242	47013	110965	0	0	8110	541007	0	0
2024-08-30 13:42:47			0	37987	0	0	0	29490	28070	153723	27116	1080242	47013	110969	0	0	8110	541122	0	0
2024-08-30 13:43:47			0	37972	0	0	0	29493	28070	153627	27286	1080215	47013	110970	0	0	8109	541696	0	0
2024-08-30 13:44:47			0	37987	0	0	0	29519	28070	153755	26944	1080206	47024	110980	0	0	8109	541122	0	0
2024-08-30 13:45:47			0	37967	0	0	0	29535	28080	153751	26776	1080395	47026	110986	0	0	8108	541857	0	0
2024-08-30 13:46:47			0	37969	0	0	0	29545	28090	153743	27053	1080350	47026	110990	0	0	8108	541749	0	0
2024-08-30 13:47:47			0	37985	0	0	0	29548	28100	153783	26908	1080422	47039	110991	0	0	8109	541105	0	0
2024-08-30 13:48:47			0	37956	0	0	0	29553	28110	153723	26897	1080431	47016	110993	0	0	8107	542185	0	0
2024-08-30 13:49:47			0	37983	0	0	0	29563	28120	153795	26830	1080557	47029	110997	0	0	8109	541119	0	0
2024-08-30 13:50:47			0	37976	0	0	0	29566	28120	153751	26998	1080540	47018	110998	0	0	8108	541387	0	0
2024-08-30 13:51:47			0	37980	0	0	0	29566	28130	153715	27076	1080602	47030	110998	0	0	8109	541202	0	0
2024-08-30 13:52:47			0	37968	0	0	0	29579	28130	153731	26939	1080585	47031	111003	0	0	8108	541662	0	0
2024-08-30 13:53:47			0	37970	0	0	0	29607	28130	153723	26904	1080692	47031	111014	0	0	8107	541586	0	0
2024-08-30 13:54:47			0	37987	0	0	0	29607	28150	153771	27306	1080747	47032	111014	0	0	8108	540872	0	0
2024-08-30 13:55:47			0	37991	0	0	0	29615	28160	153767	27000	1080738	47033	111017	0	0	8109	540687	0	0
2024-08-30 13:56:47			0	37980	0	0	0	29612	28160	153623	27422	1080801	47034	111016	0	0	8108	541109	0	0
2024-08-30 13:57:47			0	37994	0	0	0	29631	28170	153619	26928	1080864	47044	111023	0	0	8108	540541	0	0
2024-08-30 13:58:47			0	38003	0	0	0	29612	28180	153703	27121	1080936	47024	111016	0	0	8109	540166	0	0
2024-08-30 13:59:47			0	37997	0	0	0	29612	28180	153679	27154	1080855	47024	111016	0	0	8109	540395	0	0
2024-08-30 14:00:47			0	38004	0	0	0	29631	28190	153611	27178	1080883	47025	111023	0	0	8109	540096	0	0
2024-08-30 14:01:47			0	37979	0	0	0	29623	28190	153663	27230	1080910	47037	111020	0	0	8108	541053	0	0
2024-08-30 14:02:47			0	37990	0	0	0	29654	28190	153663	27189	1080927	47036	111032	0	0	8108	540632	0	0
2024-08-30 14:03:47			0	37996	0	0	0	29683	28210	153679	27150	1081018	47027	111043	0	0	8108	540340	0	0
2024-08-30 14:04:47			0	38006	0	0	0	29693	28220	153719	27282	1081072	47017	111047	0	0	8108	539926	0	0
2024-08-30 14:05:47			0	37988	0	0	0	29633	28220	153619	27391	1081099	47040	111024	0	0	8108	540615	0	0
2024-08-30 14:06:47			0	37987	0	0	0	29597	28230	153619	27248	1081081	47029	111010	0	0	8109	540622	0	0
2024-08-30 14:07:47			0	38002	0	0	0	29579	28230	153463	27152	1080982	47018	111003	0	0	8110	540048	0	0
2024-08-30 14:08:47			0	38018	0	0	0	29620	28220	153395	27098	1080964	47006	111019	0	0	8110	539467	0	0
2024-08-30 14:09:47			0	38021	0	0	0	29631	28220	153503	27119	1080964	47028	111023	0	0	8110	539353	0	0
2024-08-30 14:10:47			0	38016	0	0	0	29644	28220	153431	26991	1080982	47028	111028	0	0	8110	539544	0	0
2024-08-30 14:11:47			0	38017	0	0	0	29662	28230	153523	27102	1081081	47041	111035	0	0	8110	539475	0	0
2024-08-30 14:12:47			0	37999	0	0	0	29659	28230	153595	27185	1081135	47029	111034	0	0	8109	540163	0	0
2024-08-30 14:13:47			0	38023	0	0	0	29667	28240	153503	26741	1081162	47042	111037	0	0	8110	539214	0	0
2024-08-30 14:14:47			0	38014	0	0	0	29680	28240	153539	27133	1081216	47042	111042	0	0	8109	539558	0	0
2024-08-30 14:15:47			0	37990	0	0	0	29680	28240	153479	26719	1081162	47042	111042	0	0	8108	540476	0	0
2024-08-30 14:16:47			0	38013	0	0	0	29701	28260	153583	27213	1081279	47044	111050	0	0	8109	539534	0	0
2024-08-30 14:17:47			0	38008	0	0	0	29706	28260	153523	27074	1081243	47043	111052	0	0	8108	539725	0	0
2024-08-30 14:18:47			0	38006	0	0	0	29714	28270	153527	27076	1081325	47044	111055	0	0	8108	539770	0	0
2024-08-30 14:19:47			0	38017	0	0	0	29727	28280	153571	26859	1081307	47045	111060	0	0	8109	539319	0	0
2024-08-30 14:20:47			0	37989	0	0	0	29729	28270	153551	27131	1081379	47055	111061	0	0	8107	540421	0	0
2024-08-30 14:21:47			0	38006	0	0	0	29745	28280	153571	27003	1081478	47046	111067	0	0	8108	539739	0	0
2024-08-30 14:22:47			0	38021	0	0	0	29763	28290	153491	26967	1081514	47057	111074	0	0	8108	539135	0	0
2024-08-30 14:23:47			0	38000	0	0	0	29786	28310	153619	27112	1081631	47072	111083	0	0	8107	539875	0	0
2024-08-30 14:24:47			0	38011	0	0	0	29781	28320	153579	26956	1081649	47060	111081	0	0	8108	539423	0	0
2024-08-30 14:25:47			0	38013	0	0	0	29774	28320	153435	27114	1081686	47050	111078	0	0	8108	539347	0	0
2024-08-30 14:26:47			0	38008	0	0	0	29768	28330	153511	26838	1081650	47051	111076	0	0	8108	539507	0	0
2024-08-30 14:27:47			0	38014	0	0	0	29755	28340	153495	26913	1081686	47040	111071	0	0	8108	539246	0	0
2024-08-30 14:28:47			0	38034	0	0	0	29755	28330	153392	27239	1081587	47040	111071	0	0	8109	538514	0	0
2024-08-30 14:29:47			0	38023	0	0	0	29755	28340	153391	27137	1081659	47029	111071	0	0	8109	538903	0	0
2024-08-30 14:30:47			0	38032	0	0	0	29781	28340	153468	26920	1081668	47052	111081	0	0	8109	538559	0	0
2024-08-30 14:31:47			0	38020	0	0	0	29774	28350	153300	27114	1081659	47053	111078	0	0	8108	538986	0	0
2024-08-30 14:32:47			0	38036	0	0	0	29792	28350	153336	26826	1081731	47042	111085	0	0	8109	538375	0	0
2024-08-30 14:33:47			0	38026	0	0	0	29818	28360	153412	26928	1081812	47054	111095	0	0	8108	538726	0	0
2024-08-30 14:34:47			0	38025	0	0	0	29854	28370	153375	27305	1081929	47066	111109	0	0	8107	538733	0	0
2024-08-30 14:35:47			0	38023	0	0	0	29864	28370	153431	27268	1081938	47067	111113	0	0	8107	538809	0	0
2024-08-30 14:36:47			0	38007	0	0	0	29872	28390	153375	27050	1082019	47068	111116	0	0	8106	539358	0	0
2024-08-30 14:37:47			0	38008	0	0	0	29877	28400	153411	27164	1082091	47069	111118	0	0	8106	539289	0	0
2024-08-30 14:38:47			0	38031	0	0	0	29862	28410	153371	27060	1082110	47059	111112	0	0	8108	538380	0	0
2024-08-30 14:39:47			0	38036	0	0	0	29859	28420	153332	27059	1082101	47060	111111	0	0	8108	538157	0	0
2024-08-30 14:40:47			0	38041	0	0	0	29846	28420	153156	27109	1082101	47049	111106	0	0	8109	537967	0	0
2024-08-30 14:41:47			0	38070	0	0	0	29857	28430	153192	26887	1082137	47049	111110	0	0	8110	536830	0	0
2024-08-30 14:42:47			0	38061	0	0	0	29859	28430	153072	26986	1082227	47050	111111	0	0	8110	537173	0	0
2024-08-30 14:43:47			0	38080	0	0	0	29877	28430	153040	27017	1082227	47050	111118	0	0	8110	536450	0	0
2024-08-30 14:44:47			0	38084	0	0	0	29890	28440	153124	26972	1082182	47073	111123	0	0	8111	536266	0	0
2024-08-30 14:45:47			0	38079	0	0	0	29890	28440	153128	26953	1082290	47062	111123	0	0	8110	536457	0	0
2024-08-30 14:46:47			0	38078	0	0	0	29896	28450	153052	26937	1082264	47063	111125	0	0	8110	536464	0	0
2024-08-30 14:47:47			0	38063	0	0	0	29893	28460	153072	26953	1082336	47065	111124	0	0	8109	537004	0	0
2024-08-30 14:48:47			0	38073	0	0	0	29890	28470	153028	26800	1082408	47065	111123	0	0	8110	536592	0	0
2024-08-30 14:49:47			0	38085	0	0	0	29896	28470	153100	27156	1082354	47076	111125	0	0	8111	536135	0	0
2024-08-30 14:50:47			0	38102	0	0	0	29898	28460	153072	27013	1082417	47042	111126	0	0	8111	535520	0	0
2024-08-30 14:51:47			0	38081	0	0	0	29911	28480	152988	27135	1082507	47078	111131	0	0	8110	536256	0	0
2024-08-30 14:52:47			0	38101	0	0	0	29906	28480	153004	27085	1082453	47067	111129	0	0	8111	535496	0	0
2024-08-30 14:53:47			0	38102	0	0	0	29916	28490	152892	27305	1082471	47056	111133	0	0	8111	535427	0	0
2024-08-30 14:54:47			0	38117	0	0	0	29929	28500	152896	27308	1082543	47058	111138	0	0	8112	534826	0	0
2024-08-30 14:55:47			0	38109	0	0	0	29898	28490	152900	27083	1082543	47067	111126	0	0	8112	535161	0	0
2024-08-30 14:56:47			0	38112	0	0	0	29911	28510	152956	27164	1082525	47047	111131	0	0	8112	534985	0	0
2024-08-30 14:57:47			0	38116	0	0	0	29906	28510	152920	27062	1082552	47059	111129	0	0	8112	534833	0	0
2024-08-30 14:58:47			0	38114	0	0	0	29919	28510	153004	27079	1082660	47059	111134	0	0	8112	534909	0	0
2024-08-30 14:59:47			0	38117	0	0	0	29903	28520	152920	27218	1082651	47059	111128	0	0	8113	534764	0	0
2024-08-30 15:00:47			0	38118	0	0	0	29849	28510	153004	27258	1082525	47059	111107	0	0	8113	534757	0	0
2024-08-30 15:01:47			0	38109	0	0	0	29846	28510	152808	27215	1082481	47059	111106	0	0	8113	535099	0	0
2024-08-30 15:02:47			0	38133	0	0	0	29864	28510	152864	26984	1082561	47059	111113	0	0	8114	534187	0	0
2024-08-30 15:03:47			0	38120	0	0	0	29849	28510	152828	26639	1082471	47047	111107	0	0	8114	534681	0	0
2024-08-30 15:04:47			0	38127	0	0	0	29846	28500	152876	27008	1082462	47046	111106	0	0	8114	534446	0	0
2024-08-30 15:05:47			0	38139	0	0	0	29875	28510	152856	27147	1082552	47059	111117	0	0	8114	533959	0	0
2024-08-30 15:06:47			0	38136	0	0	0	29896	28500	152888	26894	1082516	47058	111125	0	0	8114	534104	0	0
2024-08-30 15:07:47			0	38132	0	0	0	29911	28510	152812	27138	1082561	47047	111131	0	0	8113	534225	0	0
2024-08-30 15:08:47			0	38128	0	0	0	29893	28500	152952	27154	1082516	47058	111124	0	0	8113	534408	0	0
2024-08-30 15:09:47			0	38121	0	0	0	29893	28510	152752	27206	1082561	47047	111124	0	0	8113	534643	0	0
2024-08-30 15:10:47			0	38128	0	0	0	29859	28510	152916	27104	1082588	47037	111111	0	0	8114	534377	0	0
2024-08-30 15:11:47			0	38135	0	0	0	29857	28500	152848	26998	1082489	47036	111110	0	0	8114	534142	0	0
2024-08-30 15:12:47			0	38104	0	0	0	29854	28500	152868	26830	1082435	47046	111109	0	0	8113	535320	0	0
2024-08-30 15:13:47			0	38101	0	0	0	29841	28500	152944	26746	1082399	47045	111104	0	0	8113	535434	0	0
2024-08-30 15:14:47			0	38088	0	0	0	29838	28510	153000	26982	1082525	47037	111103	0	0	8112	535897	0	0
2024-08-30 15:15:47			0	38087	0	0	0	29833	28500	153028	26710	1082319	47035	111101	0	0	8112	535966	0	0
2024-08-30 15:16:47			0	38066	0	0	0	29789	28490	153104	26720	1082309	47022	111084	0	0	8111	536796	0	0
2024-08-30 15:17:47			0	38069	0	0	0	29812	28480	153044	27111	1082228	47033	111093	0	0	8111	536713	0	0
2024-08-30 15:18:47			0	38078	0	0	0	29828	28470	153100	26823	1082246	47032	111099	0	0	8111	536402	0	0
2024-08-30 15:19:47			0	38081	0	0	0	29831	28480	153120	26854	1082282	47021	111100	0	0	8112	536256	0	0
2024-08-30 15:20:47			0	38070	0	0	0	29859	28480	153156	26908	1082336	47043	111111	0	0	8110	536675	0	0
2024-08-30 15:21:47			0	38060	0	0	0	29849	28470	153188	26727	1082273	47032	111107	0	0	8110	537087	0	0
2024-08-30 15:22:47			0	38061	0	0	0	29859	28470	153112	26790	1082273	47054	111111	0	0	8110	537049	0	0
2024-08-30 15:23:47			0	38075	0	0	0	29854	28470	153208	27272	1082291	47042	111109	0	0	8111	536516	0	0
2024-08-30 15:24:47			0	38044	0	0	0	29831	28470	153144	26982	1082300	47032	111100	0	0	8109	537697	0	0
2024-08-30 15:25:47			0	38047	0	0	0	29828	28470	153280	27036	1082300	47042	111099	0	0	8110	537582	0	0
2024-08-30 15:26:47			0	38044	0	0	0	29838	28470	153196	26963	1082354	47042	111103	0	0	8109	537697	0	0
2024-08-30 15:27:47			0	38045	0	0	0	29854	28470	153168	26765	1082237	47042	111109	0	0	8109	537659	0	0
2024-08-30 15:28:47			0	38056	0	0	0	29870	28470	153176	26876	1082318	47042	111115	0	0	8109	537240	0	0
2024-08-30 15:29:47			0	38045	0	0	0	29854	28470	153372	26876	1082399	47076	111109	0	0	8109	537659	0	0
2024-08-30 15:30:47			0	38038	0	0	0	29833	28470	153136	26712	1082300	47054	111101	0	0	8109	537926	0	0
2024-08-30 15:31:47			0	38043	0	0	0	29818	28470	153208	26870	1082318	47042	111095	0	0	8110	537735	0	0
2024-08-30 15:32:47			0	38049	0	0	0	29846	28450	153304	27258	1082291	47052	111106	0	0	8109	537568	0	0
2024-08-30 15:33:47			0	38014	0	0	0	29815	28460	153171	26890	1082201	47032	111094	0	0	8108	538873	0	0
2024-08-30 15:34:47			0	38049	0	0	0	29831	28470	153228	27078	1082273	47042	111100	0	0	8110	537506	0	0
2024-08-30 15:35:47			0	38043	0	0	0	29859	28460	153104	26967	1082255	47042	111111	0	0	8109	537766	0	0
2024-08-30 15:36:47			0	38036	0	0	0	29857	28460	153164	26935	1082309	47042	111110	0	0	8108	538033	0	0
2024-08-30 15:37:47			0	38040	0	0	0	29828	28460	153264	26935	1082273	47041	111099	0	0	8109	537881	0	0
2024-08-30 15:38:47			0	38046	0	0	0	29854	28460	153216	27128	1082282	47042	111109	0	0	8109	537652	0	0
2024-08-30 15:39:47			0	38041	0	0	0	29851	28460	153268	27171	1082309	47042	111108	0	0	8109	537842	0	0
2024-08-30 15:40:47			0	38042	0	0	0	29828	28480	153192	27100	1082309	47043	111099	0	0	8109	537742	0	0
2024-08-30 15:41:47			0	38037	0	0	0	29828	28470	153156	27199	1082246	47042	111099	0	0	8109	537964	0	0
2024-08-30 15:42:47			0	38051	0	0	0	29898	28470	153188	27036	1082372	47042	111126	0	0	8109	537430	0	0
2024-08-30 15:43:47			0	38072	0	0	0	29820	28470	153088	27076	1082273	47042	111096	0	0	8111	536630	0	0
2024-08-30 15:44:47			0	38088	0	0	0	29831	28470	153076	27429	1082300	47054	111100	0	0	8112	536021	0	0
2024-08-30 15:45:47			0	38083	0	0	0	29797	28460	153120	27074	1082228	47032	111087	0	0	8112	536242	0	0
2024-08-30 15:46:47			0	38087	0	0	0	29849	28460	153044	27201	1082246	47041	111107	0	0	8111	536090	0	0
2024-08-30 15:47:47			0	38067	0	0	0	29867	28470	153028	27085	1082237	47054	111114	0	0	8110	536820	0	0
2024-08-30 15:48:47			0	38063	0	0	0	29888	28460	153256	27159	1082390	47054	111122	0	0	8109	537004	0	0
2024-08-30 15:49:47			0	38062	0	0	0	29901	28480	153144	27229	1082453	47067	111127	0	0	8109	536980	0	0
2024-08-30 15:50:47			0	38071	0	0	0	29883	28480	153144	26764	1082453	47078	111120	0	0	8110	536637	0	0
2024-08-30 15:51:47			0	38036	0	0	0	29877	28480	153160	27133	1082480	47056	111118	0	0	8108	537971	0	0
2024-08-30 15:52:47			0	38055	0	0	0	29864	28490	153296	26764	1082435	47044	111113	0	0	8110	537215	0	0
2024-08-30 15:53:47			0	38039	0	0	0	29857	28480	153200	26949	1082417	47043	111110	0	0	8109	537856	0	0
2024-08-30 15:54:47			0	38041	0	0	0	29841	28480	153204	26925	1082372	47044	111104	0	0	8109	537780	0	0
2024-08-30 15:55:47			0	38042	0	0	0	29841	28480	153268	27255	1082336	47055	111104	0	0	8109	537742	0	0
2024-08-30 15:56:47			0	38049	0	0	0	29833	28480	153196	27059	1082318	47056	111101	0	0	8110	537475	0	0
2024-08-30 15:57:47			0	38051	0	0	0	29862	28470	153216	27175	1082354	47032	111112	0	0	8109	537430	0	0
2024-08-30 15:58:47			0	38060	0	0	0	29901	28480	153216	27050	1082363	47055	111127	0	0	8109	537056	0	0
2024-08-30 15:59:47			0	38032	0	0	0	29909	28470	153276	27100	1082408	47042	111130	0	0	8107	538154	0	0
2024-08-30 16:00:47			0	38022	0	0	0	29898	28480	153259	27202	1082444	47055	111126	0	0	8107	538505	0	0
2024-08-30 16:01:47			0	38031	0	0	0	29828	28470	153276	27012	1082327	47042	111099	0	0	8109	538193	0	0
2024-08-30 16:02:47			0	38038	0	0	0	29818	28470	153148	26939	1082327	47054	111095	0	0	8109	537926	0	0
2024-08-30 16:03:47			0	38045	0	0	0	29823	28480	153224	27166	1082309	47043	111097	0	0	8110	537628	0	0
2024-08-30 16:04:47			0	38031	0	0	0	29849	28470	153292	27069	1082327	47042	111107	0	0	8108	538193	0	0
2024-08-30 16:05:47			0	38047	0	0	0	29870	28480	153264	27053	1082363	47043	111115	0	0	8109	537551	0	0
2024-08-30 16:06:47			0	38020	0	0	0	29870	28480	153255	26772	1082426	47056	111115	0	0	8107	538581	0	0
2024-08-30 16:07:47			0	38035	0	0	0	29857	28470	153148	27012	1082354	47054	111110	0	0	8108	538040	0	0
2024-08-30 16:08:47			0	38019	0	0	0	29831	28480	153219	27171	1082318	47056	111100	0	0	8108	538619	0	0
2024-08-30 16:09:47			0	38010	0	0	0	29815	28480	153239	26956	1082255	47033	111094	0	0	8108	538963	0	0
2024-08-30 16:10:47			0	38008	0	0	0	29823	28470	153375	26961	1082246	47042	111097	0	0	8107	539070	0	0
2024-08-30 16:11:47			0	37996	0	0	0	29812	28470	153395	27039	1082237	47054	111093	0	0	8107	539529	0	0
2024-08-30 16:12:47			0	37992	0	0	0	29802	28450	153419	27015	1082210	47052	111089	0	0	8107	539744	0	0
2024-08-30 16:13:47			0	37980	0	0	0	29774	28460	153467	26817	1082138	47041	111078	0	0	8107	540172	0	0
2024-08-30 16:14:47			0	37983	0	0	0	29766	28460	153467	27267	1082084	47041	111075	0	0	8107	540057	0	0
2024-08-30 16:15:47			0	37963	0	0	0	29771	28440	153455	27360	1082102	47040	111077	0	0	8106	540884	0	0
2024-08-30 16:16:47			0	37947	0	0	0	29776	28440	153631	27258	1082075	47040	111079	0	0	8105	541497	0	0
2024-08-30 16:17:47			0	37934	0	0	0	29786	28430	153683	26960	1082012	47039	111083	0	0	8104	542026	0	0
2024-08-30 16:18:47			0	37933	0	0	0	29792	28430	153667	27248	1082039	47039	111085	0	0	8103	542064	0	0
2024-08-30 16:19:47			0	37927	0	0	0	29776	28430	153563	27057	1082039	47028	111079	0	0	8103	542294	0	0
2024-08-30 16:20:47			0	37935	0	0	0	29766	28430	153559	27213	1082039	47039	111075	0	0	8104	541988	0	0
2024-08-30 16:21:47			0	37925	0	0	0	29758	28430	153723	26925	1081976	47049	111072	0	0	8104	542371	0	0
2024-08-30 16:22:47			0	37920	0	0	0	29753	28420	153639	27149	1082020	47027	111070	0	0	8103	542594	0	0
2024-08-30 16:23:47			0	37934	0	0	0	29771	28410	153747	27130	1081939	47047	111077	0	0	8104	542089	0	0
2024-08-30 16:24:47			0	37917	0	0	0	29786	28430	153583	27357	1082029	47049	111083	0	0	8103	542678	0	0
2024-08-30 16:25:47			0	37935	0	0	0	29792	28430	153619	27020	1082164	47071	111085	0	0	8104	541988	0	0
2024-08-30 16:26:47			0	37920	0	0	0	29771	28420	153699	27185	1082101	47049	111077	0	0	8103	542594	0	0
2024-08-30 16:27:47			0	37927	0	0	0	29761	28430	153643	27097	1082083	47038	111073	0	0	8104	542294	0	0
2024-08-30 16:28:47			0	37929	0	0	0	29745	28420	153595	26951	1082020	47038	111067	0	0	8104	542249	0	0
2024-08-30 16:29:47			0	37933	0	0	0	29742	28420	153651	27092	1081903	47027	111066	0	0	8104	542096	0	0
2024-08-30 16:30:47			0	37914	0	0	0	29753	28410	153695	27107	1081912	47025	111070	0	0	8103	542855	0	0
2024-08-30 16:31:47			0	37948	0	0	0	29763	28400	153651	27189	1081903	47047	111074	0	0	8105	541584	0	0
2024-08-30 16:32:47			0	37928	0	0	0	29820	28400	153723	27293	1081948	47047	111096	0	0	8103	542350	0	0
2024-08-30 16:33:47			0	37931	0	0	0	29867	28400	153699	27046	1082118	47069	111114	0	0	8102	542235	0	0
2024-08-30 16:34:47			0	37918	0	0	0	29885	28430	153727	26896	1082191	47071	111121	0	0	8101	542639	0	0
2024-08-30 16:35:47			0	37933	0	0	0	29885	28440	153715	27183	1082182	47073	111121	0	0	8102	542033	0	0
2024-08-30 16:36:47			0	37924	0	0	0	29877	28450	153667	26880	1082281	47063	111118	0	0	8102	542347	0	0
2024-08-30 16:37:47			0	37942	0	0	0	29883	28440	153603	27163	1082299	47063	111120	0	0	8102	541688	0	0
2024-08-30 16:38:47			0	37927	0	0	0	29862	28450	153747	27286	1082371	47074	111112	0	0	8102	542232	0	0
2024-08-30 16:39:47			0	37925	0	0	0	29870	28450	153695	27154	1082318	47074	111115	0	0	8102	542308	0	0
2024-08-30 16:40:47			0	37945	0	0	0	29875	28460	153619	26974	1082354	47064	111117	0	0	8103	541511	0	0
2024-08-30 16:41:47			0	37951	0	0	0	29893	28460	153623	27071	1082336	47054	111124	0	0	8103	541281	0	0
2024-08-30 16:42:47			0	37969	0	0	0	29885	28470	153563	27173	1082381	47065	111121	0	0	8104	540561	0	0
2024-08-30 16:43:47			0	37965	0	0	0	29877	28460	153575	27291	1082390	47065	111118	0	0	8104	540745	0	0
2024-08-30 16:44:47			0	37954	0	0	0	29885	28480	153467	26941	1082390	47043	111121	0	0	8103	541104	0	0
2024-08-30 16:45:47			0	37971	0	0	0	29893	28460	153463	27015	1082417	47054	111124	0	0	8104	540516	0	0
2024-08-30 16:46:47			0	37975	0	0	0	29877	28480	153527	27194	1082417	47043	111118	0	0	8105	540300	0	0
2024-08-30 16:47:47			0	37979	0	0	0	29880	28480	153487	27216	1082453	47056	111119	0	0	8105	540147	0	0
2024-08-30 16:48:47			0	37974	0	0	0	29877	28470	153499	27419	1082426	47054	111118	0	0	8105	540370	0	0
2024-08-30 16:49:47			0	37984	0	0	0	29877	28480	153395	26928	1082444	47055	111118	0	0	8105	539956	0	0
2024-08-30 16:50:47			0	37988	0	0	0	29883	28470	153367	27403	1082426	47065	111120	0	0	8105	539834	0	0
2024-08-30 16:51:47			0	37990	0	0	0	29883	28480	153399	27320	1082453	47067	111120	0	0	8105	539727	0	0
2024-08-30 16:52:47			0	37979	0	0	0	29893	28480	153467	26809	1082417	47055	111124	0	0	8105	540147	0	0
2024-08-30 16:53:47			0	37975	0	0	0	29857	28480	153343	27050	1082363	47055	111110	0	0	8105	540300	0	0
2024-08-30 16:54:47			0	37986	0	0	0	29851	28480	153427	27248	1082417	47043	111108	0	0	8106	539880	0	0
2024-08-30 16:55:47			0	37982	0	0	0	29857	28490	153415	27376	1082435	47044	111110	0	0	8105	540001	0	0
2024-08-30 16:56:47			0	37983	0	0	0	29862	28480	153443	27239	1082372	47044	111112	0	0	8105	539994	0	0
2024-08-30 16:57:47			0	37978	0	0	0	29875	28480	153455	26979	1082417	47043	111117	0	0	8105	540185	0	0
2024-08-30 16:58:47			0	37959	0	0	0	29877	28480	153495	27284	1082507	47044	111118	0	0	8104	540912	0	0
2024-08-30 16:59:47			0	37972	0	0	0	29875	28480	153435	27246	1082390	47055	111117	0	0	8105	540415	0	0
2024-08-30 17:00:47			0	37970	0	0	0	29875	28480	153507	27121	1082453	47056	111117	0	0	8104	540491	0	0
2024-08-30 17:01:47			0	37969	0	0	0	29880	28490	153503	27248	1082462	47056	111119	0	0	8104	540498	0	0
2024-08-30 17:02:47			0	37979	0	0	0	29880	28480	153563	27350	1082453	47056	111119	0	0	8105	540147	0	0
2024-08-30 17:03:47			0	37940	0	0	0	29883	28480	153479	27137	1082399	47056	111120	0	0	8103	541640	0	0
2024-08-30 17:04:47			0	37940	0	0	0	29885	28480	153495	26986	1082480	47056	111121	0	0	8103	541640	0	0
2024-08-30 17:05:47			0	37949	0	0	0	29898	28490	153523	26979	1082462	47067	111126	0	0	8103	541264	0	0
2024-08-30 17:06:47			0	37942	0	0	0	29898	28500	153531	27156	1082534	47045	111126	0	0	8102	541500	0	0
2024-08-30 17:07:47			0	37936	0	0	0	29885	28480	153599	27159	1082561	47056	111121	0	0	8102	541793	0	0
2024-08-30 17:08:47			0	37950	0	0	0	29880	28490	153591	27192	1082498	47056	111119	0	0	8103	541225	0	0
2024-08-30 17:09:47			0	37955	0	0	0	29909	28500	153583	27133	1082507	47057	111130	0	0	8103	541003	0	0
2024-08-30 17:10:47			0	37957	0	0	0	29906	28500	153635	27357	1082534	47045	111129	0	0	8103	540926	0	0
2024-08-30 17:11:47			0	37950	0	0	0	29916	28500	153607	26859	1082588	47057	111133	0	0	8103	541194	0	0
2024-08-30 17:12:47			0	37937	0	0	0	29914	28500	153599	27171	1082570	47058	111132	0	0	8102	541692	0	0
2024-08-30 17:13:47			0	37938	0	0	0	29883	28510	153623	27116	1082525	47070	111120	0	0	8103	541622	0	0
2024-08-30 17:14:47			0	37931	0	0	0	29810	28500	153519	27083	1082516	47058	111092	0	0	8103	541922	0	0
2024-08-30 17:15:47			0	37957	0	0	0	29820	28490	153563	26994	1082390	47034	111096	0	0	8105	540957	0	0
2024-08-30 17:16:47			0	37960	0	0	0	29833	28490	153559	27092	1082390	47044	111101	0	0	8105	540843	0	0
2024-08-30 17:17:47			0	37955	0	0	0	29838	28480	153543	26923	1082291	47034	111103	0	0	8104	541065	0	0
2024-08-30 17:18:47			0	37948	0	0	0	29820	28480	153455	27081	1082309	47043	111096	0	0	8104	541333	0	0
2024-08-30 17:19:47			0	37959	0	0	0	29828	28470	153395	26686	1082300	47054	111099	0	0	8105	540943	0	0
2024-08-30 17:20:47			0	37953	0	0	0	29828	28470	153539	26968	1082264	47042	111099	0	0	8104	541173	0	0
2024-08-30 17:21:47			0	37947	0	0	0	29849	28460	153519	26719	1082309	47065	111107	0	0	8103	541434	0	0
2024-08-30 17:22:47			0	37932	0	0	0	29867	28460	153579	27119	1082336	47054	111114	0	0	8102	542009	0	0
2024-08-30 17:23:47			0	37927	0	0	0	29867	28470	153707	26835	1082399	47065	111114	0	0	8102	542169	0	0
2024-08-30 17:24:47			0	37915	0	0	0	29851	28470	153643	27183	1082327	47054	111108	0	0	8102	542629	0	0
2024-08-30 17:25:47			0	37923	0	0	0	29851	28470	153647	27222	1082327	47054	111108	0	0	8102	542322	0	0
2024-08-30 17:26:47			0	37914	0	0	0	29849	28470	153611	27104	1082408	47054	111107	0	0	8102	542667	0	0
2024-08-30 17:27:47			0	37919	0	0	0	29836	28470	153635	27081	1082318	47054	111102	0	0	8102	542476	0	0
2024-08-30 17:28:47			0	37930	0	0	0	29849	28460	153631	27301	1082309	47042	111107	0	0	8102	542085	0	0
2024-08-30 17:29:47			0	37918	0	0	0	29849	28470	153663	26861	1082300	47042	111107	0	0	8102	542514	0	0
2024-08-30 17:30:47			0	37898	0	0	0	29763	28460	153663	26798	1082282	47042	111074	0	0	8102	543312	0	0
2024-08-30 17:31:47			0	37916	0	0	0	29771	28450	153667	27097	1082183	47030	111077	0	0	8103	542653	0	0
2024-08-30 17:32:47			0	37897	0	0	0	29815	28450	153667	26606	1082120	47041	111094	0	0	8101	543382	0	0
2024-08-30 17:33:47			0	37912	0	0	0	29841	28440	153687	27072	1082165	47052	111104	0	0	8101	542838	0	0
2024-08-30 17:34:47			0	37905	0	0	0	29851	28450	153859	26890	1082228	47052	111108	0	0	8101	543075	0	0
2024-08-30 17:35:47			0	37921	0	0	0	29870	28450	153675	26788	1082291	47063	111115	0	0	8102	542462	0	0
2024-08-30 17:36:47			0	37890	0	0	0	29836	28460	153695	26951	1082309	47054	111102	0	0	8100	543619	0	0
2024-08-30 17:37:47			0	37926	0	0	0	29763	28460	153683	26823	1082201	47054	111074	0	0	8104	542239	0	0
2024-08-30 17:38:47			0	37909	0	0	0	29786	28440	153579	26795	1082191	47063	111083	0	0	8102	542953	0	0
2024-08-30 17:39:47			0	37913	0	0	0	29786	28430	153491	26901	1082119	47050	111083	0	0	8102	542831	0	0
2024-08-30 17:40:47			0	37921	0	0	0	29820	28440	153567	26764	1082155	47040	111096	0	0	8102	542493	0	0
2024-08-30 17:41:47			0	37943	0	0	0	29781	28440	153491	27133	1082102	47040	111081	0	0	8104	541650	0	0
2024-08-30 17:42:47			0	37954	0	0	0	29784	28430	153527	26876	1082119	47050	111082	0	0	8105	541260	0	0
2024-08-30 17:43:47			0	37940	0	0	0	29781	28440	153499	27010	1082111	47052	111081	0	0	8104	541765	0	0
2024-08-30 17:44:47			0	37941	0	0	0	29836	28420	153659	26850	1082128	47049	111102	0	0	8103	541789	0	0
2024-08-30 17:45:47			0	37941	0	0	0	29838	28430	153627	27194	1082218	47060	111103	0	0	8103	541758	0	0
2024-08-30 17:46:47			0	37934	0	0	0	29846	28430	153591	27170	1082173	47050	111106	0	0	8103	542026	0	0
2024-08-30 17:47:47			0	37936	0	0	0	29862	28450	153663	26930	1082228	47052	111112	0	0	8103	541887	0	0
2024-08-30 17:48:47			0	37944	0	0	0	29867	28450	153663	26878	1082308	47063	111114	0	0	8103	541580	0	0
2024-08-30 17:49:47			0	37956	0	0	0	29875	28450	153715	26986	1082308	47052	111117	0	0	8103	541121	0	0
2024-08-30 17:50:47			0	37948	0	0	0	29883	28450	153583	27137	1082344	47063	111120	0	0	8103	541427	0	0
2024-08-30 17:51:47			0	37921	0	0	0	29883	28450	153559	26778	1082335	47052	111120	0	0	8101	542462	0	0
2024-08-30 17:52:47			0	37946	0	0	0	29877	28460	153583	27286	1082363	47076	111118	0	0	8103	541472	0	0
2024-08-30 17:53:47			0	37955	0	0	0	29888	28460	153447	26762	1082381	47064	111122	0	0	8103	541128	0	0
2024-08-30 17:54:47			0	37954	0	0	0	29901	28460	153535	26996	1082381	47064	111127	0	0	8103	541166	0	0
2024-08-30 17:55:47			0	37963	0	0	0	29903	28480	153467	27147	1082444	47077	111128	0	0	8104	540759	0	0
2024-08-30 17:56:47			0	37982	0	0	0	29909	28480	153519	26798	1082453	47067	111130	0	0	8105	540033	0	0
2024-08-30 17:57:47			0	37980	0	0	0	29914	28480	153347	27185	1082534	47056	111132	0	0	8104	540109	0	0
2024-08-30 17:58:47			0	37985	0	0	0	29916	28490	153331	27027	1082543	47078	111133	0	0	8105	539887	0	0
2024-08-30 17:59:47			0	38018	0	0	0	29890	28490	153359	27152	1082516	47078	111123	0	0	8107	538626	0	0
2024-08-30 18:00:47			0	38037	0	0	0	29846	28490	153108	27156	1082444	47056	111106	0	0	8109	537902	0	0
2024-08-30 18:01:47			0	38053	0	0	0	29802	28480	153072	27157	1082453	47044	111089	0	0	8110	537323	0	0
2024-08-30 18:02:47			0	38071	0	0	0	29805	28480	152940	26902	1082399	47044	111090	0	0	8111	536637	0	0
2024-08-30 18:03:47			0	38078	0	0	0	29857	28470	152960	27154	1082381	47032	111110	0	0	8111	536402	0	0
2024-08-30 18:04:47			0	38102	0	0	0	29867	28470	153004	27293	1082372	47065	111114	0	0	8112	535489	0	0
2024-08-30 18:05:47			0	38101	0	0	0	29875	28470	152968	27017	1082426	47042	111117	0	0	8112	535527	0	0
2024-08-30 18:06:47			0	38116	0	0	0	29877	28480	152980	26861	1082417	47055	111118	0	0	8113	534926	0	0
2024-08-30 18:07:47			0	38087	0	0	0	29885	28470	152860	26972	1082381	47054	111121	0	0	8111	536059	0	0
2024-08-30 18:08:47			0	38132	0	0	0	29898	28490	152888	26887	1082435	47067	111126	0	0	8113	534287	0	0
2024-08-30 18:09:47			0	38126	0	0	0	29901	28470	152968	27213	1082462	47054	111127	0	0	8113	534577	0	0
2024-08-30 18:10:47			0	38108	0	0	0	29901	28490	152860	26946	1082516	47056	111127	0	0	8112	535199	0	0
2024-08-30 18:11:47			0	38116	0	0	0	29896	28490	152924	26746	1082525	47067	111125	0	0	8112	534895	0	0
2024-08-30 18:12:47			0	38116	0	0	0	29877	28490	152888	26904	1082543	47067	111118	0	0	8113	534895	0	0
2024-08-30 18:13:47			0	38101	0	0	0	29885	28480	152912	26857	1082507	47067	111121	0	0	8112	535496	0	0
2024-08-30 18:14:47			0	38100	0	0	0	29841	28480	152968	27029	1082480	47067	111104	0	0	8112	535534	0	0
2024-08-30 18:15:47			0	38094	0	0	0	29761	28470	152924	27135	1082300	47042	111073	0	0	8113	535793	0	0
2024-08-30 18:16:47			0	38141	0	0	0	29794	28470	152888	27180	1082246	47042	111086	0	0	8116	534007	0	0
2024-08-30 18:17:47			0	38118	0	0	0	29797	28460	152800	27112	1082111	47031	111087	0	0	8114	534911	0	0
2024-08-30 18:18:47			0	38094	0	0	0	29776	28450	153088	27197	1082129	47030	111079	0	0	8113	535855	0	0
2024-08-30 18:19:47			0	38067	0	0	0	29753	28440	153108	26838	1082084	47041	111070	0	0	8112	536914	0	0
2024-08-30 18:20:47			0	38030	0	0	0	29768	28440	153308	27024	1082057	47041	111076	0	0	8109	538324	0	0
2024-08-30 18:21:47			0	38025	0	0	0	29768	28440	153375	27303	1082075	47051	111076	0	0	8109	538515	0	0
2024-08-30 18:22:47			0	38003	0	0	0	29753	28430	153363	27209	1081976	47049	111070	0	0	8108	539386	0	0
2024-08-30 18:23:47			0	37994	0	0	0	29748	28420	153467	27429	1081984	47060	111068	0	0	8108	539761	0	0
2024-08-30 18:24:47			0	37962	0	0	0	29729	28410	153383	26819	1081858	47036	111061	0	0	8106	541016	0	0
2024-08-30 18:25:47			0	37960	0	0	0	29703	28410	153559	27260	1081858	47047	111051	0	0	8106	541093	0	0
2024-08-30 18:26:47			0	37955	0	0	0	29690	28390	153575	27012	1081831	47024	111046	0	0	8106	541347	0	0
2024-08-30 18:27:47			0	37947	0	0	0	29729	28390	153619	27069	1081777	47024	111061	0	0	8105	541653	0	0
2024-08-30 18:28:47			0	37929	0	0	0	29781	28380	153647	26930	1081812	47034	111081	0	0	8103	542374	0	0
2024-08-30 18:29:47			0	37927	0	0	0	29786	28370	153855	26868	1081830	47056	111083	0	0	8103	542483	0	0
2024-08-30 18:30:47			0	37929	0	0	0	29784	28380	153847	27112	1081839	47067	111082	0	0	8103	542374	0	0
2024-08-30 18:31:47			0	37917	0	0	0	29779	28370	153635	27057	1081848	47055	111080	0	0	8102	542866	0	0
2024-08-30 18:32:47			0	37932	0	0	0	29763	28380	153631	26979	1081920	47056	111074	0	0	8104	542259	0	0
2024-08-30 18:33:47			0	37915	0	0	0	29768	28380	153767	26764	1081893	47045	111076	0	0	8103	542911	0	0
2024-08-30 18:34:47			0	37935	0	0	0	29771	28380	153707	27017	1081893	47045	111077	0	0	8104	542144	0	0
2024-08-30 18:35:47			0	37937	0	0	0	29766	28370	153807	27067	1081884	47056	111075	0	0	8104	542099	0	0
2024-08-30 18:36:47			0	37921	0	0	0	29768	28380	153739	26889	1081839	47056	111076	0	0	8103	542681	0	0
2024-08-30 18:37:47			0	37940	0	0	0	29776	28380	153767	26760	1081839	47045	111079	0	0	8104	541953	0	0
2024-08-30 18:38:47			0	37939	0	0	0	29779	28370	153659	26915	1081848	47055	111080	0	0	8104	542023	0	0
2024-08-30 18:39:47			0	37935	0	0	0	29776	28370	153819	26901	1081938	47034	111079	0	0	8104	542176	0	0
2024-08-30 18:40:47			0	37918	0	0	0	29758	28370	153711	27034	1081821	47044	111072	0	0	8103	542828	0	0
2024-08-30 18:41:47			0	37924	0	0	0	29755	28370	153755	26955	1081848	47044	111071	0	0	8103	542598	0	0
2024-08-30 18:42:47			0	37925	0	0	0	29755	28370	153755	26771	1081749	47034	111071	0	0	8103	542559	0	0
2024-08-30 18:43:47			0	37925	0	0	0	29742	28370	153731	26850	1081848	47044	111066	0	0	8104	542559	0	0
2024-08-30 18:44:47			0	37933	0	0	0	29750	28370	153727	27097	1081857	47045	111069	0	0	8104	542252	0	0
2024-08-30 18:45:47			0	37920	0	0	0	29786	28360	153811	26944	1081812	47077	111083	0	0	8102	542782	0	0
2024-08-30 18:46:47			0	37896	0	0	0	29781	28370	153891	27163	1081848	47055	111081	0	0	8101	543672	0	0
2024-08-30 18:47:47			0	37910	0	0	0	29781	28370	153791	26857	1081884	47056	111081	0	0	8102	543135	0	0
2024-08-30 18:48:47			0	37914	0	0	0	29781	28370	153807	27010	1081848	47044	111081	0	0	8102	542981	0	0
2024-08-30 18:49:47			0	37927	0	0	0	29789	28370	153743	26767	1081911	47056	111084	0	0	8103	542483	0	0
2024-08-30 18:50:47			0	37910	0	0	0	29779	28370	153847	26705	1081884	47056	111080	0	0	8102	543135	0	0
2024-08-30 18:51:47			0	37891	0	0	0	29781	28380	153727	27045	1081893	47045	111081	0	0	8101	543833	0	0
2024-08-30 18:52:47			0	37913	0	0	0	29781	28380	153715	26998	1081893	47056	111081	0	0	8102	542988	0	0
2024-08-30 18:53:47			0	37913	0	0	0	29789	28380	153731	26696	1081893	47067	111084	0	0	8102	542988	0	0
2024-08-30 18:54:47			0	37916	0	0	0	29771	28370	153775	27012	1081911	47067	111077	0	0	8103	542904	0	0
2024-08-30 18:55:47			0	37911	0	0	0	29779	28380	153779	26920	1081848	47045	111080	0	0	8102	543065	0	0
2024-08-30 18:56:47			0	37912	0	0	0	29774	28380	153799	27071	1081947	47056	111078	0	0	8102	543027	0	0
2024-08-30 18:57:47			0	37901	0	0	0	29771	28370	153767	26882	1081875	47044	111077	0	0	8102	543480	0	0
2024-08-30 18:58:47			0	37913	0	0	0	29755	28380	153855	27135	1081947	47045	111071	0	0	8103	542988	0	0
2024-08-30 18:59:47			0	37924	0	0	0	29755	28380	153763	27097	1081902	47045	111071	0	0	8103	542566	0	0
2024-08-30 19:00:47			0	37915	0	0	0	29748	28370	153791	26993	1081857	47045	111068	0	0	8103	542943	0	0
2024-08-30 19:01:47			0	37920	0	0	0	29735	28370	153759	26845	1081830	47045	111063	0	0	8103	542751	0	0
2024-08-30 19:02:47			0	37923	0	0	0	29703	28380	153807	27156	1081759	47056	111051	0	0	8104	542604	0	0
2024-08-30 19:03:47			0	37918	0	0	0	29703	28370	153755	27076	1081723	47056	111051	0	0	8104	542828	0	0
2024-08-30 19:04:47			0	37908	0	0	0	29719	28370	153755	27405	1081767	47044	111057	0	0	8103	543211	0	0
2024-08-30 19:05:47			0	37926	0	0	0	29706	28360	153803	27055	1081758	47043	111052	0	0	8104	542552	0	0
2024-08-30 19:06:47			0	37933	0	0	0	29680	28360	153747	26892	1081722	47053	111042	0	0	8105	542284	0	0
2024-08-30 19:07:47			0	37924	0	0	0	29664	28360	153771	26923	1081731	47043	111036	0	0	8105	542629	0	0
2024-08-30 19:08:47			0	37919	0	0	0	29649	28360	153735	27033	1081695	47042	111030	0	0	8105	542821	0	0
2024-08-30 19:09:47			0	37918	0	0	0	29654	28340	153795	26967	1081641	47030	111032	0	0	8104	542922	0	0
2024-08-30 19:10:47			0	37933	0	0	0	29644	28340	153823	26939	1081641	47030	111028	0	0	8106	542346	0	0
2024-08-30 19:11:47			0	37917	0	0	0	29625	28330	153799	26942	1081542	47029	111021	0	0	8105	542991	0	0
2024-08-30 19:12:47			0	37892	0	0	0	29620	28340	153923	27052	1081524	47029	111019	0	0	8104	543920	0	0
2024-08-30 19:13:47			0	37875	0	0	0	29636	28330	153855	26863	1081542	47029	111025	0	0	8102	544605	0	0
2024-08-30 19:14:47			0	37886	0	0	0	29672	28330	153875	27090	1081533	47040	111039	0	0	8102	544182	0	0
2024-08-30 19:15:47			0	37868	0	0	0	29649	28320	154019	27438	1081578	47039	111030	0	0	8102	544905	0	0
2024-08-30 19:16:47			0	37872	0	0	0	29636	28320	154051	27013	1081497	47028	111025	0	0	8102	544751	0	0
2024-08-30 19:17:47			0	37864	0	0	0	29633	28310	154095	26915	1081479	47038	111024	0	0	8102	545091	0	0
2024-08-30 19:18:47			0	37866	0	0	0	29618	28310	154079	26913	1081443	47027	111018	0	0	8102	545014	0	0
2024-08-30 19:19:47			0	37842	0	0	0	29631	28300	154051	26906	1081371	47014	111023	0	0	8100	545969	0	0
2024-08-30 19:20:47			0	37852	0	0	0	29584	28300	154159	26906	1081344	47037	111005	0	0	8102	545584	0	0
2024-08-30 19:21:47			0	37846	0	0	0	29584	28270	154147	27229	1081244	47022	111005	0	0	8101	545909	0	0
2024-08-30 19:22:47			0	37838	0	0	0	29563	28270	154151	27007	1081235	47011	110997	0	0	8101	546217	0	0
2024-08-30 19:23:47			0	37839	0	0	0	29548	28250	154223	27144	1081153	47020	110991	0	0	8101	546242	0	0
2024-08-30 19:24:47			0	37827	0	0	0	29542	28250	154195	26809	1081063	47009	110989	0	0	8101	546705	0	0
2024-08-30 19:25:47			0	37814	0	0	0	29527	28240	154295	26925	1081054	47009	110983	0	0	8100	547237	0	0
2024-08-30 19:26:47			0	37807	0	0	0	29516	28230	154299	26866	1080973	47007	110979	0	0	8100	547539	0	0
2024-08-30 19:27:47			0	37812	0	0	0	29529	28220	154315	27123	1080901	47006	110984	0	0	8100	547378	0	0
2024-08-30 19:28:47			0	37807	0	0	0	29522	28200	154367	27178	1080820	47015	110981	0	0	8100	547634	0	0
2024-08-30 19:29:47			0	37799	0	0	0	29506	28200	154463	27102	1080892	47004	110975	0	0	8099	547943	0	0
2024-08-30 19:30:47			0	37808	0	0	0	29490	28190	154311	27112	1080739	47024	110969	0	0	8100	547627	0	0
2024-08-30 19:31:47			0	37800	0	0	0	29488	28170	154395	27104	1080712	47001	110968	0	0	8100	547999	0	0
2024-08-30 19:32:47			0	37801	0	0	0	29488	28160	154419	26706	1080613	47000	110968	0	0	8100	547992	0	0
2024-08-30 19:33:47			0	37781	0	0	0	29475	28170	154511	27301	1080675	47011	110963	0	0	8099	548733	0	0
2024-08-30 19:34:47			0	37773	0	0	0	29480	28150	154483	27104	1080648	47010	110965	0	0	8098	549105	0	0
2024-08-30 19:35:47			0	37772	0	0	0	29488	28150	154567	26920	1080594	47021	110968	0	0	8098	549144	0	0
2024-08-30 19:36:47			0	37783	0	0	0	29488	28140	154571	26767	1080576	47009	110968	0	0	8099	548751	0	0
2024-08-30 19:37:47			0	37770	0	0	0	29490	28140	154587	27213	1080621	47008	110969	0	0	8098	549253	0	0
2024-08-30 19:38:47			0	37767	0	0	0	29488	28140	154679	27033	1080603	47020	110968	0	0	8098	549369	0	0
2024-08-30 19:39:47			0	37761	0	0	0	29477	28130	154743	26930	1080549	47030	110964	0	0	8097	549633	0	0
2024-08-30 19:40:47			0	37779	0	0	0	29475	28120	154731	26889	1080530	47006	110963	0	0	8098	548968	0	0
2024-08-30 19:41:47			0	37767	0	0	0	29464	28110	154731	26889	1080494	47029	110959	0	0	8098	549464	0	0
2024-08-30 19:42:47			0	37747	0	0	0	29464	28110	154647	26918	1080494	47017	110959	0	0	8097	550238	0	0
2024-08-30 19:43:47			0	37751	0	0	0	29464	28110	154707	27083	1080485	47016	110959	0	0	8097	550083	0	0
2024-08-30 19:44:47			0	37757	0	0	0	29475	28100	154775	27024	1080422	47016	110963	0	0	8097	549883	0	0
2024-08-30 19:45:47			0	37746	0	0	0	29467	28110	154835	26916	1080404	47016	110960	0	0	8097	550277	0	0
2024-08-30 19:46:47			0	37758	0	0	0	29477	28090	154835	27114	1080386	47015	110964	0	0	8097	549876	0	0
2024-08-30 19:47:47			0	37763	0	0	0	29459	28090	154799	27003	1080431	47014	110957	0	0	8098	549682	0	0
2024-08-30 19:48:47			0	37755	0	0	0	29451	28090	154815	27086	1080332	47015	110954	0	0	8097	549992	0	0
2024-08-30 19:49:47			0	37742	0	0	0	29451	28090	154823	27052	1080386	47027	110954	0	0	8097	550495	0	0
2024-08-30 19:50:47			0	37746	0	0	0	29459	28090	154787	26828	1080296	47003	110957	0	0	8097	550340	0	0
2024-08-30 19:51:47			0	37763	0	0	0	29446	28080	154783	26800	1080332	47002	110952	0	0	8098	549714	0	0
2024-08-30 19:52:47			0	37748	0	0	0	29459	28080	154687	27022	1080305	47013	110957	0	0	8097	550295	0	0
2024-08-30 19:53:47			0	37744	0	0	0	29449	28070	154715	27083	1080314	47024	110953	0	0	8097	550481	0	0
2024-08-30 19:54:47			0	37751	0	0	0	29449	28070	154767	26972	1080215	47013	110953	0	0	8097	550210	0	0
2024-08-30 19:55:47			0	37737	0	0	0	29457	28060	154839	26968	1080278	47035	110956	0	0	8096	550784	0	0
2024-08-30 19:56:47			0	37741	0	0	0	29462	28070	154799	27060	1080260	47024	110958	0	0	8096	550598	0	0
2024-08-30 19:57:47			0	37734	0	0	0	29472	28070	154803	27066	1080341	47024	110962	0	0	8096	550869	0	0
2024-08-30 19:58:47			0	37744	0	0	0	29493	28080	154851	26837	1080413	47025	110970	0	0	8096	550450	0	0
2024-08-30 19:59:47			0	37719	0	0	0	29498	28070	154939	27157	1080404	47036	110972	0	0	8094	551450	0	0
2024-08-30 20:00:47			0	37738	0	0	0	29511	28070	154923	27081	1080368	47035	110977	0	0	8095	550714	0	0
2024-08-30 20:01:47			0	37734	0	0	0	29522	28080	154895	27137	1080449	47026	110981	0	0	8095	550837	0	0
2024-08-30 20:02:47			0	37723	0	0	0	29519	28090	154931	27001	1080512	47047	110980	0	0	8094	551231	0	0
2024-08-30 20:03:47			0	37723	0	0	0	29522	28100	154995	26781	1080530	47028	110981	0	0	8094	551200	0	0
2024-08-30 20:04:47			0	37705	0	0	0	29501	28110	154887	27038	1080602	47029	110973	0	0	8094	551866	0	0
2024-08-30 20:05:47			0	37686	0	0	0	29472	28110	155075	26925	1080539	47028	110962	0	0	8093	552603	0	0
2024-08-30 20:06:47			0	37640	0	0	0	29459	28090	155231	26982	1080440	47027	110957	0	0	8091	554455	0	0
2024-08-30 20:07:47			0	37614	0	0	0	29451	28100	155223	27171	1080368	47016	110954	0	0	8089	555435	0	0
2024-08-30 20:08:47			0	37586	0	0	0	29438	28090	155335	27005	1080377	47014	110949	0	0	8088	556558	0	0
2024-08-30 20:09:47			0	37583	0	0	0	29470	28080	155443	27092	1080368	47014	110961	0	0	8087	556707	0	0
2024-08-30 20:10:47			0	37592	0	0	0	29488	28080	155491	27031	1080368	47026	110968	0	0	8087	556356	0	0
2024-08-30 20:11:47			0	37578	0	0	0	29483	28080	155467	27104	1080422	47037	110966	0	0	8087	556902	0	0
2024-08-30 20:12:47			0	37570	0	0	0	29464	28080	155491	27097	1080449	47037	110959	0	0	8086	557214	0	0
2024-08-30 20:13:47			0	37581	0	0	0	29459	28080	155579	27093	1080386	47036	110957	0	0	8087	556785	0	0
2024-08-30 20:14:47			0	37574	0	0	0	29470	28090	155479	26981	1080431	47014	110961	0	0	8087	557026	0	0
2024-08-30 20:15:47			0	37575	0	0	0	29485	28080	155503	26908	1080413	47013	110967	0	0	8086	557019	0	0
2024-08-30 20:16:47			0	37589	0	0	0	29496	28080	155431	27017	1080314	47037	110971	0	0	8087	556473	0	0
2024-08-30 20:17:47			0	37579	0	0	0	29496	28090	155475	27260	1080467	47027	110971	0	0	8086	556831	0	0
2024-08-30 20:18:47			0	37591	0	0	0	29498	28080	155391	26949	1080395	47026	110972	0	0	8087	556395	0	0
2024-08-30 20:19:47			0	37588	0	0	0	29493	28090	155495	27104	1080431	47026	110970	0	0	8087	556480	0	0
2024-08-30 20:20:47			0	37593	0	0	0	29496	28090	155403	27130	1080539	47037	110971	0	0	8087	556285	0	0
2024-08-30 20:21:47			0	37605	0	0	0	29490	28090	155399	27064	1080404	47037	110969	0	0	8088	555817	0	0
2024-08-30 20:22:47			0	37597	0	0	0	29490	28080	155411	26987	1080476	47047	110969	0	0	8088	556161	0	0
2024-08-30 20:23:47			0	37603	0	0	0	29480	28090	155435	26672	1080431	47026	110965	0	0	8088	555895	0	0
2024-08-30 20:24:47			0	37590	0	0	0	29490	28080	155487	26972	1080422	47026	110969	0	0	8087	556434	0	0
2024-08-30 20:25:47			0	37583	0	0	0	29498	28080	155539	27114	1080476	47026	110972	0	0	8087	556707	0	0
2024-08-30 20:26:47			0	37562	0	0	0	29503	28090	155575	26748	1080404	47026	110974	0	0	8085	557495	0	0
2024-08-30 20:27:47			0	37572	0	0	0	29503	28080	155603	27046	1080494	47013	110974	0	0	8086	557136	0	0
2024-08-30 20:28:47			0	37557	0	0	0	29490	28090	155719	26922	1080467	47015	110969	0	0	8085	557690	0	0
2024-08-30 20:29:47			0	37535	0	0	0	29496	28090	155839	26920	1080512	47014	110971	0	0	8084	558549	0	0
2024-08-30 20:30:47			0	37483	0	0	0	29501	28080	155879	26916	1080422	47026	110973	0	0	8081	560617	0	0
2024-08-30 20:31:47			0	37453	0	0	0	29490	28080	156007	27315	1080422	47026	110969	0	0	8079	561793	0	0
2024-08-30 20:32:47			0	37430	0	0	0	29477	28090	156267	26883	1080458	47026	110964	0	0	8078	562664	0	0
2024-08-30 20:33:47			0	37367	0	0	0	29477	28080	156351	27052	1080449	47037	110964	0	0	8074	565175	0	0
2024-08-30 20:34:47			0	37344	0	0	0	29470	28080	156523	27118	1080449	47026	110961	0	0	8073	566081	0	0
2024-08-30 20:35:47			0	37295	0	0	0	29470	28090	156586	27327	1080296	47014	110961	0	0	8070	567983	0	0
2024-08-30 20:36:47			0	37288	0	0	0	29472	28080	156694	27159	1080386	47002	110962	0	0	8070	568292	0	0
2024-08-30 20:37:47			0	37261	0	0	0	29464	28070	156826	27176	1080350	47036	110959	0	0	8068	569393	0	0
2024-08-30 20:38:47			0	37242	0	0	0	29467	28080	156822	27057	1080386	47025	110960	0	0	8067	570113	0	0
2024-08-30 20:39:47			0	37238	0	0	0	29470	28070	156878	27097	1080341	47012	110961	0	0	8067	570305	0	0
2024-08-30 20:40:47			0	37217	0	0	0	29472	28080	156870	27180	1080359	47025	110962	0	0	8066	571104	0	0
2024-08-30 20:41:47			0	37231	0	0	0	29475	28080	156942	26934	1080305	47013	110963	0	0	8066	570549	0	0
2024-08-30 20:42:47			0	37206	0	0	0	29470	28070	156950	27185	1080377	47025	110961	0	0	8065	571574	0	0
2024-08-30 20:43:47			0	37220	0	0	0	29467	28070	157010	27293	1080350	47013	110960	0	0	8066	571018	0	0
2024-08-30 20:44:47			0	37210	0	0	0	29472	28070	156986	26890	1080260	47024	110962	0	0	8065	571415	0	0
2024-08-30 20:45:47			0	37216	0	0	0	29459	28070	157006	26750	1080341	47024	110957	0	0	8066	571177	0	0
2024-08-30 20:46:47			0	37235	0	0	0	29464	28070	156990	26960	1080377	47013	110959	0	0	8067	570423	0	0
2024-08-30 20:47:47			0	37235	0	0	0	29467	28060	156942	26896	1080251	47024	110960	0	0	8067	570456	0	0
2024-08-30 20:48:47			0	37217	0	0	0	29464	28060	157006	27175	1080197	47024	110959	0	0	8066	571170	0	0
2024-08-30 20:49:47			0	37217	0	0	0	29462	28060	157026	27112	1080332	47012	110958	0	0	8066	571170	0	0
2024-08-30 20:50:47			0	37222	0	0	0	29454	28060	156990	27086	1080359	47024	110955	0	0	8066	570972	0	0
2024-08-30 20:51:47			0	37240	0	0	0	29457	28050	156942	27043	1080233	47000	110956	0	0	8067	570291	0	0
2024-08-30 20:52:47			0	37218	0	0	0	29457	28050	156974	26946	1080197	47033	110956	0	0	8066	571163	0	0
2024-08-30 20:53:47			0	37214	0	0	0	29457	28050	157042	27104	1080287	47023	110956	0	0	8066	571322	0	0
2024-08-30 20:54:47			0	37195	0	0	0	29457	28060	156966	27241	1080296	47044	110956	0	0	8065	572043	0	0
2024-08-30 20:55:47			0	37198	0	0	0	29451	28050	157046	27100	1080179	47023	110954	0	0	8065	571957	0	0
2024-08-30 20:56:47			0	37177	0	0	0	29451	28060	157134	27416	1080242	47023	110954	0	0	8064	572758	0	0
2024-08-30 20:57:47			0	37175	0	0	0	29454	28060	157142	27341	1080242	47011	110955	0	0	8063	572838	0	0
2024-08-30 20:58:47			0	37149	0	0	0	29436	28060	157158	27220	1080188	47011	110948	0	0	8062	573872	0	0
2024-08-30 20:59:47			0	37164	0	0	0	29449	28040	157226	27248	1080215	47021	110953	0	0	8063	573341	0	0
2024-08-30 21:00:47			0	37145	0	0	0	29449	28050	157262	26845	1080206	47023	110953	0	0	8062	574064	0	0
2024-08-30 21:01:47			0	37142	0	0	0	29451	28050	157238	27398	1080206	47011	110954	0	0	8062	574184	0	0
2024-08-30 21:02:47			0	37145	0	0	0	29446	28050	157230	27241	1080170	47043	110952	0	0	8062	574064	0	0
2024-08-30 21:03:47			0	37141	0	0	0	29446	28050	157222	27225	1080224	47010	110952	0	0	8062	574223	0	0
2024-08-30 21:04:47			0	37150	0	0	0	29446	28040	157334	27163	1080161	47009	110952	0	0	8062	573898	0	0
2024-08-30 21:05:47			0	37151	0	0	0	29438	28050	157334	27007	1080197	47022	110949	0	0	8062	573825	0	0
2024-08-30 21:06:47			0	37128	0	0	0	29436	28050	157230	27159	1080170	47010	110948	0	0	8061	574741	0	0
2024-08-30 21:07:47			0	37151	0	0	0	29436	28040	157314	27142	1080134	47032	110948	0	0	8062	573858	0	0
2024-08-30 21:08:47			0	37147	0	0	0	29433	28050	157358	27196	1080251	47010	110947	0	0	8062	573985	0	0
2024-08-30 21:09:47			0	37148	0	0	0	29438	28040	157334	27055	1080071	47009	110949	0	0	8062	573978	0	0
2024-08-30 21:10:47			0	37153	0	0	0	29428	28030	157262	27010	1080197	47009	110945	0	0	8062	573812	0	0
2024-08-30 21:11:47			0	37136	0	0	0	29425	28050	157286	26979	1080152	47023	110944	0	0	8062	574423	0	0
2024-08-30 21:12:47			0	37142	0	0	0	29423	28040	157410	27208	1080179	47032	110943	0	0	8062	574217	0	0
2024-08-30 21:13:47			0	37124	0	0	0	29425	28030	157290	26809	1080133	47020	110944	0	0	8061	574967	0	0
2024-08-30 21:14:47			0	37132	0	0	0	29428	28030	157310	26994	1080079	47031	110945	0	0	8061	574648	0	0
2024-08-30 21:15:47			0	37119	0	0	0	29425	28030	157330	26726	1080079	47031	110944	0	0	8061	575166	0	0
2024-08-30 21:16:47			0	37118	0	0	0	29410	28030	157330	27254	1080035	47021	110938	0	0	8061	575206	0	0
2024-08-30 21:17:47			0	37112	0	0	0	29415	28020	157386	26901	1080043	47030	110940	0	0	8060	575478	0	0
2024-08-30 21:18:47			0	37105	0	0	0	29397	28020	157426	26904	1080007	47030	110933	0	0	8060	575758	0	0
2024-08-30 21:19:47			0	37095	0	0	0	29405	28020	157286	27079	1080043	47019	110936	0	0	8059	576156	0	0
2024-08-30 21:20:47			0	37114	0	0	0	29407	28010	157438	27190	1079998	47019	110937	0	0	8060	575432	0	0
2024-08-30 21:21:47			0	37109	0	0	0	29402	28020	157462	27052	1080043	47007	110935	0	0	8060	575598	0	0
2024-08-30 21:22:47			0	37078	0	0	0	29407	28010	157498	26880	1080043	47018	110937	0	0	8058	576868	0	0
2024-08-30 21:23:47			0	37106	0	0	0	29402	28010	157426	27066	1079989	47018	110935	0	0	8060	575751	0	0
2024-08-30 21:24:47			0	37101	0	0	0	29397	28010	157430	26939	1079962	47040	110933	0	0	8060	575950	0	0
2024-08-30 21:25:47			0	37105	0	0	0	29397	28010	157390	27072	1079935	47029	110933	0	0	8060	575791	0	0
2024-08-30 21:26:47			0	37111	0	0	0	29394	28010	157426	26842	1080043	47029	110932	0	0	8061	575551	0	0
2024-08-30 21:27:47			0	37110	0	0	0	29397	28000	157314	27097	1079998	47017	110933	0	0	8060	575625	0	0
2024-08-30 21:28:47			0	37140	0	0	0	29405	28000	157446	26713	1079926	47017	110936	0	0	8062	574429	0	0
2024-08-30 21:29:47			0	37149	0	0	0	29397	28000	157174	27017	1079980	47017	110933	0	0	8063	574071	0	0
2024-08-30 21:30:47			0	37182	0	0	0	29389	28000	157190	26923	1079926	47028	110930	0	0	8065	572758	0	0
2024-08-30 21:31:47			0	37190	0	0	0	29397	28000	157202	26675	1079890	47028	110933	0	0	8065	572440	0	0
2024-08-30 21:32:47			0	37208	0	0	0	29397	27990	157058	26892	1079962	47015	110933	0	0	8066	571758	0	0
2024-08-30 21:33:47			0	37221	0	0	0	29392	28000	157066	27020	1079971	47028	110931	0	0	8067	571209	0	0
2024-08-30 21:34:47			0	37213	0	0	0	29397	28000	156926	26805	1079953	47017	110933	0	0	8066	571527	0	0
2024-08-30 21:35:47			0	37235	0	0	0	29397	28000	156962	26760	1079917	47017	110933	0	0	8068	570654	0	0
2024-08-30 21:36:47			0	37260	0	0	0	29405	28000	156826	26871	1079917	47028	110936	0	0	8069	569663	0	0
2024-08-30 21:37:47			0	37275	0	0	0	29405	27980	156922	26889	1079863	47026	110936	0	0	8070	569135	0	0
2024-08-30 21:38:47			0	37267	0	0	0	29399	27990	156766	27111	1079962	47027	110934	0	0	8069	569419	0	0
2024-08-30 21:39:47			0	37290	0	0	0	29397	27990	156766	27137	1079845	47027	110933	0	0	8071	568508	0	0
2024-08-30 21:40:47			0	37297	0	0	0	29399	28000	156670	26916	1079953	47005	110934	0	0	8071	568199	0	0
2024-08-30 21:41:47			0	37328	0	0	0	29392	28000	156467	26703	1079944	47039	110931	0	0	8073	566974	0	0
2024-08-30 21:42:47			0	37356	0	0	0	29389	28000	156435	27222	1079944	47039	110930	0	0	8075	565869	0	0
2024-08-30 21:43:47			0	37375	0	0	0	29399	27990	156387	27019	1079935	47027	110934	0	0	8076	565153	0	0
2024-08-30 21:44:47			0	37402	0	0	0	29397	27980	156215	26824	1079917	47037	110933	0	0	8077	564122	0	0
2024-08-30 21:45:47			0	37419	0	0	0	29384	27990	156231	26981	1079935	47027	110928	0	0	8079	563421	0	0
2024-08-30 21:46:47			0	37463	0	0	0	29384	27990	155979	27147	1079926	47027	110928	0	0	8081	561693	0	0
2024-08-30 21:47:47			0	37482	0	0	0	29384	27990	155895	27183	1079935	47015	110928	0	0	8082	560947	0	0
2024-08-30 21:48:47			0	37494	0	0	0	29389	27990	155771	27197	1079962	47027	110930	0	0	8083	560477	0	0
2024-08-30 21:49:47			0	37506	0	0	0	29386	27990	155727	26925	1079953	47015	110929	0	0	8084	560007	0	0
2024-08-30 21:50:47			0	37529	0	0	0	29386	27990	155695	27275	1079899	47015	110929	0	0	8085	559107	0	0
2024-08-30 21:51:47			0	37548	0	0	0	29389	27990	155591	27112	1079872	47027	110930	0	0	8086	558363	0	0
2024-08-30 21:52:47			0	37572	0	0	0	29384	27980	155459	27386	1079944	47026	110928	0	0	8087	557458	0	0
2024-08-30 21:53:47			0	37578	0	0	0	29392	27980	155475	27031	1079890	47037	110931	0	0	8088	557224	0	0
2024-08-30 21:54:47			0	37595	0	0	0	29379	27980	155451	26873	1079890	47014	110926	0	0	8089	556560	0	0
2024-08-30 21:55:47			0	37598	0	0	0	29384	27980	155523	27116	1079836	47003	110928	0	0	8089	556443	0	0
2024-08-30 21:56:47			0	37602	0	0	0	29389	27990	155551	26987	1079899	47027	110930	0	0	8089	556255	0	0
2024-08-30 21:57:47			0	37601	0	0	0	29389	27990	155487	27130	1079872	47015	110930	0	0	8089	556294	0	0
2024-08-30 21:58:47			0	37611	0	0	0	29384	27980	155443	27105	1079836	47014	110928	0	0	8090	555936	0	0
2024-08-30 21:59:47			0	37619	0	0	0	29389	27980	155419	27365	1079863	47026	110930	0	0	8090	555624	0	0
2024-08-30 22:00:47			0	37612	0	0	0	29381	27990	155427	27124	1079899	47027	110927	0	0	8090	555865	0	0
2024-08-30 22:01:47			0	37603	0	0	0	29381	27980	155411	26708	1079890	47037	110927	0	0	8089	556248	0	0
2024-08-30 22:02:47			0	37606	0	0	0	29381	27970	155371	27015	1079809	47025	110927	0	0	8089	556163	0	0
2024-08-30 22:03:47			0	37621	0	0	0	29376	27990	155339	26918	1079926	47015	110925	0	0	8090	555515	0	0
2024-08-30 22:04:47			0	37623	0	0	0	29384	27970	155387	27022	1079863	47014	110928	0	0	8090	555501	0	0
2024-08-30 22:05:47			0	37605	0	0	0	29371	27970	155415	27286	1079782	47014	110923	0	0	8089	556202	0	0
2024-08-30 22:06:47			0	37606	0	0	0	29381	27980	155455	27244	1079890	47014	110927	0	0	8089	556131	0	0
2024-08-30 22:07:47			0	37614	0	0	0	29379	27980	155387	27254	1079827	47014	110926	0	0	8090	555819	0	0
2024-08-30 22:08:47			0	37596	0	0	0	29374	27970	155343	26845	1079836	47014	110924	0	0	8089	556553	0	0
2024-08-30 22:09:47			0	37605	0	0	0	29368	27970	155319	26797	1079836	47014	110922	0	0	8090	556202	0	0
2024-08-30 22:10:47			0	37615	0	0	0	29379	27980	155395	27121	1079827	47014	110926	0	0	8090	555780	0	0
2024-08-30 22:11:47			0	37594	0	0	0	29392	27970	155351	27173	1079782	47025	110931	0	0	8088	556631	0	0
2024-08-30 22:12:47			0	37580	0	0	0	29381	27980	155551	27227	1079881	47014	110927	0	0	8088	557146	0	0
2024-08-30 22:13:47			0	37563	0	0	0	29397	27970	155503	27237	1079782	47025	110933	0	0	8087	557842	0	0
2024-08-30 22:14:47			0	37572	0	0	0	29397	27980	155599	27170	1079836	47014	110933	0	0	8087	557458	0	0
2024-08-30 22:15:47			0	37564	0	0	0	29397	27980	155543	27275	1079836	47014	110933	0	0	8087	557770	0	0
2024-08-30 22:16:47			0	37551	0	0	0	29394	27980	155571	27116	1079854	47025	110932	0	0	8086	558278	0	0
2024-08-30 22:17:47			0	37545	0	0	0	29389	27980	155667	27088	1079890	47026	110930	0	0	8086	558513	0	0
2024-08-30 22:18:47			0	37524	0	0	0	29389	27980	155787	27317	1079836	47026	110930	0	0	8085	559334	0	0
2024-08-30 22:19:47			0	37529	0	0	0	29389	27990	155763	27239	1079818	47015	110930	0	0	8085	559107	0	0
2024-08-30 22:20:47			0	37521	0	0	0	29394	27980	155763	27041	1079836	47037	110932	0	0	8084	559452	0	0
2024-08-30 22:21:47			0	37518	0	0	0	29384	27980	155831	27033	1079917	47026	110928	0	0	8084	559569	0	0
2024-08-30 22:22:47			0	37501	0	0	0	29386	27970	155871	27175	1079916	47025	110929	0	0	8083	560267	0	0
2024-08-30 22:23:47			0	37500	0	0	0	29389	27980	155903	27142	1079890	47037	110930	0	0	8083	560274	0	0
2024-08-30 22:24:47			0	37496	0	0	0	29392	27980	155955	27041	1079890	47026	110931	0	0	8083	560431	0	0
2024-08-30 22:25:47			0	37480	0	0	0	29389	27990	155927	27365	1079872	47027	110930	0	0	8082	561026	0	0
2024-08-30 22:26:47			0	37500	0	0	0	29402	27990	155951	27159	1079872	47015	110935	0	0	8083	560242	0	0
2024-08-30 22:27:47			0	37488	0	0	0	29394	27990	155899	27267	1079845	47015	110932	0	0	8082	560712	0	0
2024-08-30 22:28:47			0	37487	0	0	0	29389	27980	155987	27173	1079836	47014	110930	0	0	8082	560784	0	0
2024-08-30 22:29:47			0	37489	0	0	0	29386	27980	156027	27237	1079917	47014	110929	0	0	8083	560705	0	0
2024-08-30 22:30:47			0	37480	0	0	0	29392	27980	155927	26863	1079854	47025	110931	0	0	8082	561058	0	0
2024-08-30 22:31:47			0	37491	0	0	0	29389	27980	155907	27280	1079836	47026	110930	0	0	8083	560627	0	0
2024-08-30 22:32:47			0	37487	0	0	0	29379	27980	155887	27234	1079836	47037	110926	0	0	8083	560784	0	0
2024-08-30 22:33:47			0	37468	0	0	0	29386	27980	155935	27131	1079917	47026	110929	0	0	8081	561529	0	0
2024-08-30 22:34:47			0	37486	0	0	0	29384	27980	155891	27036	1079881	47014	110928	0	0	8082	560823	0	0
2024-08-30 22:35:47			0	37477	0	0	0	29384	27980	155931	27222	1079836	47014	110928	0	0	8082	561176	0	0
2024-08-30 22:36:47			0	37472	0	0	0	29386	27980	156027	26987	1079881	47025	110929	0	0	8082	561372	0	0
2024-08-30 22:37:47			0	37476	0	0	0	29389	27980	155943	26953	1079863	47037	110930	0	0	8082	561215	0	0
2024-08-30 22:38:47			0	37455	0	0	0	29384	27980	155959	27066	1079890	47014	110928	0	0	8081	562039	0	0
2024-08-30 22:39:47			0	37472	0	0	0	29384	27980	156031	27090	1079890	47037	110928	0	0	8082	561372	0	0
2024-08-30 22:40:47			0	37465	0	0	0	29381	27980	156039	27095	1079890	47026	110927	0	0	8081	561646	0	0
2024-08-30 22:41:47			0	37485	0	0	0	29376	27980	155999	27038	1079908	47014	110925	0	0	8082	560862	0	0
2024-08-30 22:42:47			0	37464	0	0	0	29379	27970	155991	26852	1079863	47036	110926	0	0	8081	561718	0	0
2024-08-30 22:43:47			0	37463	0	0	0	29371	27970	156011	26927	1079863	47025	110923	0	0	8081	561757	0	0
2024-08-30 22:44:47			0	37484	0	0	0	29376	27980	156047	27244	1079836	47014	110925	0	0	8082	560901	0	0
2024-08-30 22:45:47			0	37476	0	0	0	29368	27970	155955	26913	1079863	47014	110922	0	0	8082	561247	0	0
2024-08-30 22:46:47			0	37474	0	0	0	29371	27970	155927	27176	1079863	47014	110923	0	0	8082	561326	0	0
2024-08-30 22:47:47			0	37486	0	0	0	29374	27980	155935	27268	1079827	47025	110924	0	0	8083	560823	0	0
2024-08-30 22:48:47			0	37477	0	0	0	29366	27970	155903	27005	1079836	47014	110921	0	0	8082	561208	0	0
2024-08-30 22:49:47			0	37487	0	0	0	29381	27970	155939	26894	1079863	47025	110927	0	0	8082	560816	0	0
2024-08-30 22:50:47			0	37480	0	0	0	29374	27970	155955	26830	1079890	47014	110924	0	0	8082	561091	0	0
2024-08-30 22:51:47			0	37491	0	0	0	29379	27960	155843	26873	1079764	47034	110926	0	0	8083	560692	0	0
2024-08-30 22:52:47			0	37503	0	0	0	29371	27980	155879	26977	1079827	47025	110923	0	0	8084	560157	0	0
2024-08-30 22:53:47			0	37484	0	0	0	29374	27980	155871	27000	1079881	47025	110924	0	0	8082	560901	0	0
2024-08-30 22:54:47			0	37499	0	0	0	29379	27970	155863	26852	1079809	47025	110926	0	0	8083	560346	0	0
2024-08-30 22:55:47			0	37507	0	0	0	29376	27970	155819	27107	1079863	47025	110925	0	0	8084	560032	0	0
2024-08-30 22:56:47			0	37490	0	0	0	29374	27980	155811	27109	1079854	47014	110924	0	0	8083	560666	0	0
2024-08-30 22:57:47			0	37492	0	0	0	29374	27960	155855	26890	1079827	47035	110924	0	0	8083	560652	0	0
2024-08-30 22:58:47			0	37507	0	0	0	29368	27960	155863	27208	1079746	47024	110922	0	0	8084	560065	0	0
2024-08-30 22:59:47			0	37507	0	0	0	29374	27960	155895	27150	1079800	47035	110924	0	0	8084	560065	0	0
2024-08-30 23:00:47			0	37521	0	0	0	29374	27960	155843	27066	1079764	47023	110924	0	0	8085	559516	0	0
2024-08-30 23:01:47			0	37503	0	0	0	29363	27950	155875	27173	1079808	47023	110920	0	0	8084	560254	0	0
2024-08-30 23:02:47			0	37509	0	0	0	29366	27960	155871	26901	1079773	47013	110921	0	0	8084	559986	0	0
2024-08-30 23:03:47			0	37512	0	0	0	29371	27960	155791	27180	1079764	47012	110923	0	0	8084	559869	0	0
2024-08-30 23:04:47			0	37494	0	0	0	29368	27960	155895	26817	1079800	47013	110922	0	0	8083	560574	0	0
2024-08-30 23:05:47			0	37506	0	0	0	29374	27950	155871	26684	1079755	47023	110924	0	0	8084	560136	0	0
2024-08-30 23:06:47			0	37509	0	0	0	29366	27960	155883	27124	1079791	47012	110921	0	0	8084	559986	0	0
2024-08-30 23:07:47			0	37496	0	0	0	29374	27960	155887	27185	1079791	47012	110924	0	0	8083	560496	0	0
2024-08-30 23:08:47			0	37503	0	0	0	29366	27960	155827	27012	1079791	47034	110921	0	0	8084	560221	0	0
2024-08-30 23:09:47			0	37510	0	0	0	29363	27960	155963	26750	1079827	47013	110920	0	0	8084	559947	0	0
2024-08-30 23:10:47			0	37496	0	0	0	29368	27960	155939	27190	1079791	47023	110922	0	0	8083	560496	0	0
2024-08-30 23:11:47			0	37500	0	0	0	29366	27960	155911	27126	1079746	47013	110921	0	0	8083	560339	0	0
2024-08-30 23:12:47			0	37516	0	0	0	29363	27950	155883	27093	1079781	47023	110920	0	0	8084	559744	0	0
2024-08-30 23:13:47			0	37493	0	0	0	29366	27960	155807	26963	1079791	47034	110921	0	0	8083	560613	0	0
2024-08-30 23:14:47			0	37508	0	0	0	29361	27950	155835	26916	1079755	47023	110919	0	0	8084	560058	0	0
2024-08-30 23:15:47			0	37514	0	0	0	29363	27950	155823	26951	1079772	47034	110920	0	0	8084	559823	0	0
2024-08-30 23:16:47			0	37519	0	0	0	29358	27950	155895	27133	1079781	47034	110918	0	0	8085	559627	0	0
2024-08-30 23:17:47			0	37528	0	0	0	29353	27950	155867	27203	1079808	47012	110916	0	0	8085	559275	0	0
2024-08-30 23:18:47			0	37518	0	0	0	29363	27960	155847	27095	1079764	47012	110920	0	0	8085	559634	0	0
2024-08-30 23:19:47			0	37513	0	0	0	29361	27950	155887	27149	1079808	47034	110919	0	0	8084	559862	0	0
2024-08-30 23:20:47			0	37493	0	0	0	29355	27940	155879	27005	1079710	47022	110917	0	0	8083	560678	0	0
2024-08-30 23:21:47			0	37489	0	0	0	29355	27950	155847	26785	1079745	47012	110917	0	0	8083	560802	0	0
2024-08-30 23:22:47			0	37513	0	0	0	29353	27950	155839	26927	1079719	47023	110916	0	0	8084	559862	0	0
2024-08-30 23:23:47			0	37502	0	0	0	29342	27950	155911	26913	1079781	47023	110912	0	0	8084	560293	0	0
2024-08-30 23:24:47			0	37487	0	0	0	29355	27950	155907	27168	1079745	47012	110917	0	0	8083	560881	0	0
2024-08-30 23:25:47			0	37483	0	0	0	29342	27940	155843	26987	1079736	47022	110912	0	0	8083	561070	0	0
2024-08-30 23:26:47			0	37492	0	0	0	29345	27950	155875	26733	1079728	47023	110913	0	0	8083	560685	0	0
2024-08-30 23:27:47			0	37485	0	0	0	29335	27940	155911	26861	1079736	47022	110909	0	0	8083	560991	0	0
2024-08-30 23:28:47			0	37475	0	0	0	29350	27940	155919	26996	1079710	47022	110915	0	0	8082	561384	0	0
2024-08-30 23:29:47			0	37462	0	0	0	29335	27950	155955	27107	1079719	47012	110909	0	0	8082	561861	0	0
2024-08-30 23:30:47			0	37473	0	0	0	29340	27940	156063	27275	1079629	47010	110911	0	0	8082	561462	0	0
2024-08-30 23:31:47			0	37440	0	0	0	29340	27940	156071	27022	1079727	47009	110911	0	0	8080	562758	0	0
2024-08-30 23:32:47			0	37457	0	0	0	29337	27940	156047	26946	1079700	47021	110910	0	0	8081	562090	0	0
2024-08-30 23:33:47			0	37472	0	0	0	29340	27930	156039	27171	1079637	47032	110911	0	0	8082	561534	0	0
2024-08-30 23:34:47			0	37453	0	0	0	29327	27940	156015	27142	1079620	47032	110906	0	0	8081	562247	0	0
2024-08-30 23:35:47			0	37428	0	0	0	29324	27930	156207	27203	1079664	47009	110905	0	0	8080	563262	0	0
2024-08-30 23:36:47			0	37438	0	0	0	29329	27930	156115	26786	1079691	47009	110907	0	0	8080	562869	0	0
2024-08-30 23:37:47			0	37428	0	0	0	29332	27930	156103	27039	1079637	47021	110908	0	0	8080	563262	0	0
2024-08-30 23:38:47			0	37442	0	0	0	29335	27930	156251	27111	1079664	47021	110909	0	0	8080	562712	0	0
2024-08-30 23:39:47			0	37419	0	0	0	29329	27930	156239	27293	1079655	47021	110907	0	0	8079	563616	0	0
2024-08-30 23:40:47			0	37417	0	0	0	29327	27930	156215	27048	1079637	47021	110906	0	0	8079	563695	0	0
2024-08-30 23:41:47			0	37405	0	0	0	29329	27930	156223	27081	1079664	47021	110907	0	0	8078	564167	0	0
2024-08-30 23:42:47			0	37408	0	0	0	29329	27930	156255	27156	1079628	47009	110907	0	0	8079	564049	0	0
2024-08-30 23:43:47			0	37410	0	0	0	29327	27940	156291	27296	1079656	47010	110906	0	0	8079	563938	0	0
2024-08-30 23:44:47			0	37398	0	0	0	29329	27920	156295	27150	1079646	47031	110907	0	0	8078	564475	0	0
2024-08-30 23:45:47			0	37385	0	0	0	29311	27920	156283	26930	1079583	47019	110900	0	0	8077	564987	0	0
2024-08-30 23:46:47			0	37374	0	0	0	29322	27920	156287	26880	1079592	47020	110904	0	0	8077	565421	0	0
2024-08-30 23:47:47			0	37371	0	0	0	29316	27930	156479	27248	1079584	47032	110902	0	0	8077	565506	0	0
2024-08-30 23:48:47			0	37355	0	0	0	29314	27920	156499	26904	1079556	47019	110901	0	0	8076	566170	0	0
2024-08-30 23:49:47			0	37351	0	0	0	29316	27910	156451	26899	1079547	47018	110902	0	0	8075	566360	0	0
2024-08-30 23:50:47			0	37363	0	0	0	29314	27920	156567	27305	1079556	47019	110901	0	0	8076	565854	0	0
2024-08-30 23:51:47			0	37338	0	0	0	29303	27920	156571	27305	1079583	47019	110897	0	0	8075	566841	0	0
2024-08-30 23:52:47			0	37347	0	0	0	29311	27910	156591	27033	1079520	47018	110900	0	0	8075	566518	0	0
2024-08-30 23:53:47			0	37343	0	0	0	29301	27920	156639	27072	1079556	47007	110896	0	0	8075	566643	0	0
2024-08-30 23:54:47			0	37336	0	0	0	29303	27920	156643	27407	1079556	47019	110897	0	0	8075	566920	0	0
2024-08-30 23:55:47			0	37313	0	0	0	29303	27910	156647	26982	1079520	46996	110897	0	0	8073	567861	0	0
2024-08-30 23:56:47			0	37329	0	0	0	29309	27900	156623	26925	1079448	47029	110899	0	0	8074	567262	0	0
2024-08-30 23:57:47			0	37321	0	0	0	29301	27910	156743	27286	1079430	47006	110896	0	0	8074	567545	0	0
2024-08-30 23:58:47			0	37318	0	0	0	29309	27900	156663	26890	1079475	47018	110899	0	0	8074	567696	0	0
2024-08-30 23:59:47			0	37310	0	0	0	29296	27900	156730	27242	1079439	47028	110894	0	0	8073	568012	0	0
2024-08-31 00:00:47			0	37320	0	0	0	29303	27900	156651	27223	1079466	47017	110897	0	0	8074	567617	0	0
2024-08-31 00:01:47			0	37321	0	0	0	29316	27900	156791	26883	1079520	47017	110902	0	0	8074	567578	0	0
2024-08-31 00:02:47			0	37324	0	0	0	29309	27910	156751	27393	1079511	47006	110899	0	0	8074	567426	0	0
2024-08-31 00:03:47			0	37317	0	0	0	29303	27900	156819	27168	1079547	47017	110897	0	0	8074	567736	0	0
2024-08-31 00:04:47			0	37313	0	0	0	29303	27900	156626	26993	1079412	47017	110897	0	0	8073	567894	0	0
2024-08-31 00:05:47			0	37310	0	0	0	29296	27900	156678	27135	1079439	47005	110894	0	0	8073	568012	0	0
2024-08-31 00:06:47			0	37299	0	0	0	29303	27900	156686	27069	1079502	47018	110897	0	0	8073	568448	0	0
2024-08-31 00:07:47			0	37316	0	0	0	29301	27890	156626	26979	1079484	47004	110896	0	0	8073	567808	0	0
2024-08-31 00:08:47			0	37319	0	0	0	29306	27900	156699	27152	1079466	47017	110898	0	0	8074	567657	0	0
2024-08-31 00:09:47			0	37306	0	0	0	29303	27900	156662	27326	1079556	47006	110897	0	0	8073	568171	0	0
2024-08-31 00:10:47			0	37317	0	0	0	29301	27890	156619	27000	1079484	47016	110896	0	0	8074	567768	0	0
2024-08-31 00:11:47			0	37316	0	0	0	29303	27890	156559	27154	1079430	47027	110897	0	0	8073	567808	0	0
2024-08-31 00:12:47			0	37295	0	0	0	29301	27900	156654	27194	1079466	47028	110896	0	0	8072	568606	0	0
2024-08-31 00:13:47			0	37303	0	0	0	29306	27900	156738	27066	1079475	47018	110898	0	0	8073	568289	0	0
2024-08-31 00:14:47			0	37335	0	0	0	29303	27910	156659	27055	1079565	47018	110897	0	0	8075	566992	0	0
2024-08-31 00:15:47			0	37302	0	0	0	29298	27890	156670	27152	1079430	47016	110895	0	0	8073	568362	0	0
2024-08-31 00:16:47			0	37313	0	0	0	29290	27890	156630	27173	1079457	47004	110892	0	0	8073	567927	0	0
2024-08-31 00:17:47			0	37300	0	0	0	29296	27890	156666	27138	1079511	46994	110894	0	0	8073	568441	0	0
2024-08-31 00:18:47			0	37319	0	0	0	29293	27890	156635	27279	1079430	47027	110893	0	0	8074	567689	0	0
2024-08-31 00:19:47			0	37329	0	0	0	29303	27890	156627	27234	1079403	47004	110897	0	0	8074	567294	0	0
2024-08-31 00:20:47			0	37329	0	0	0	29298	27890	156623	27123	1079430	47016	110895	0	0	8074	567294	0	0
2024-08-31 00:21:47			0	37333	0	0	0	29293	27900	156703	26906	1079466	47028	110893	0	0	8075	567104	0	0
2024-08-31 00:22:47			0	37337	0	0	0	29301	27890	156763	27171	1079403	47016	110896	0	0	8075	566978	0	0
2024-08-31 00:23:47			0	37324	0	0	0	29290	27890	156731	27293	1079430	47016	110892	0	0	8074	567492	0	0
2024-08-31 00:24:47			0	37323	0	0	0	29296	27890	156598	27197	1079430	47027	110894	0	0	8074	567531	0	0
2024-08-31 00:25:47			0	37334	0	0	0	29290	27890	156595	26776	1079484	47027	110892	0	0	8075	567097	0	0
2024-08-31 00:26:47			0	37323	0	0	0	29288	27900	156635	27010	1079466	47028	110891	0	0	8074	567499	0	0
2024-08-31 00:27:47			0	37327	0	0	0	29290	27890	156583	27128	1079394	47027	110892	0	0	8074	567373	0	0
2024-08-31 00:28:47			0	37306	0	0	0	29288	27890	156554	27298	1079394	46994	110891	0	0	8073	568203	0	0
2024-08-31 00:29:47			0	37336	0	0	0	29283	27890	156611	27267	1079340	47016	110889	0	0	8075	567018	0	0
2024-08-31 00:30:47			0	37335	0	0	0	29290	27890	156659	26800	1079421	47016	110892	0	0	8075	567057	0	0
2024-08-31 00:31:47			0	37323	0	0	0	29277	27880	156619	27218	1079412	47027	110887	0	0	8074	567564	0	0
2024-08-31 00:32:47			0	37335	0	0	0	29288	27890	156627	27339	1079403	47027	110891	0	0	8075	567057	0	0
2024-08-31 00:33:47			0	37332	0	0	0	29290	27880	156611	27135	1079412	47004	110892	0	0	8075	567208	0	0
2024-08-31 00:34:47			0	37331	0	0	0	29285	27880	156559	26698	1079412	47004	110890	0	0	8075	567248	0	0
2024-08-31 00:35:47			0	37343	0	0	0	29290	27880	156627	27398	1079412	47016	110892	0	0	8075	566774	0	0
2024-08-31 00:36:47			0	37336	0	0	0	29290	27880	156527	27301	1079331	47027	110892	0	0	8075	567050	0	0
2024-08-31 00:37:47			0	37345	0	0	0	29277	27880	156639	27277	1079385	47016	110887	0	0	8076	566695	0	0
2024-08-31 00:38:47			0	37321	0	0	0	29270	27880	156623	26885	1079376	47026	110884	0	0	8074	567643	0	0
2024-08-31 00:39:47			0	37331	0	0	0	29272	27880	156675	27164	1079349	47003	110885	0	0	8075	567248	0	0
2024-08-31 00:40:47			0	37324	0	0	0	29272	27880	156567	26961	1079295	47026	110885	0	0	8074	567524	0	0
2024-08-31 00:41:47			0	37328	0	0	0	29277	27870	156619	27033	1079313	47002	110887	0	0	8074	567399	0	0
2024-08-31 00:42:47			0	37326	0	0	0	29277	27880	156635	27019	1079349	47015	110887	0	0	8074	567445	0	0
2024-08-31 00:43:47			0	37311	0	0	0	29270	27870	156582	27229	1079367	47014	110884	0	0	8074	568071	0	0
2024-08-31 00:44:47			0	37321	0	0	0	29264	27870	156691	27300	1079313	47025	110882	0	0	8074	567676	0	0
2024-08-31 00:45:47			0	37309	0	0	0	29264	27870	156662	27152	1079313	47002	110882	0	0	8074	568150	0	0
2024-08-31 00:46:47			0	37312	0	0	0	29262	27870	156658	26899	1079277	47002	110881	0	0	8074	568032	0	0
2024-08-31 00:47:47			0	37299	0	0	0	29264	27860	156646	26663	1079295	47014	110882	0	0	8073	568579	0	0
2024-08-31 00:48:47			0	37307	0	0	0	29264	27870	156674	26622	1079277	47025	110882	0	0	8073	568229	0	0
2024-08-31 00:49:47			0	37316	0	0	0	29262	27870	156719	27310	1079277	47025	110881	0	0	8074	567873	0	0
2024-08-31 00:50:47			0	37296	0	0	0	29264	27870	156842	26870	1079304	47014	110882	0	0	8073	568664	0	0
2024-08-31 00:51:47			0	37291	0	0	0	29257	27860	156646	27083	1079285	47013	110879	0	0	8073	568895	0	0
2024-08-31 00:52:47			0	37309	0	0	0	29264	27870	156714	27022	1079277	47002	110882	0	0	8074	568150	0	0
2024-08-31 00:53:47			0	37291	0	0	0	29251	27870	156710	26991	1079277	47002	110877	0	0	8073	568862	0	0
2024-08-31 00:54:47			0	37287	0	0	0	29251	27870	156758	27182	1079277	47025	110877	0	0	8073	569021	0	0
2024-08-31 00:55:47			0	37286	0	0	0	29249	27850	156654	26949	1079223	47012	110876	0	0	8072	569126	0	0
2024-08-31 00:56:47			0	37293	0	0	0	29246	27850	156634	27201	1079330	47000	110875	0	0	8073	568849	0	0
2024-08-31 00:57:47			0	37283	0	0	0	29246	27860	156738	27268	1079232	47001	110875	0	0	8072	569212	0	0
2024-08-31 00:58:47			0	37287	0	0	0	29244	27860	156802	26941	1079241	47014	110874	0	0	8073	569054	0	0
2024-08-31 00:59:47			0	37273	0	0	0	29244	27860	156834	26916	1079232	47013	110874	0	0	8072	569608	0	0
2024-08-31 01:00:47			0	37259	0	0	0	29233	27860	156786	26935	1079232	47001	110870	0	0	8071	570163	0	0
2024-08-31 01:01:47			0	37252	0	0	0	29251	27860	156794	27315	1079259	47013	110877	0	0	8070	570440	0	0
2024-08-31 01:02:47			0	37247	0	0	0	29241	27850	156906	26845	1079250	47012	110873	0	0	8070	570671	0	0
2024-08-31 01:03:47			0	37252	0	0	0	29241	27860	156938	27225	1079259	47013	110873	0	0	8071	570440	0	0
2024-08-31 01:04:47			0	37273	0	0	0	29236	27840	156970	27131	1079141	47000	110871	0	0	8072	569674	0	0
2024-08-31 01:05:47			0	37245	0	0	0	29233	27840	156998	27291	1079141	47022	110870	0	0	8070	570784	0	0
2024-08-31 01:06:47			0	37228	0	0	0	29241	27840	157010	27305	1079124	47011	110873	0	0	8069	571458	0	0
2024-08-31 01:07:47			0	37244	0	0	0	29236	27840	157054	27159	1079124	47011	110871	0	0	8070	570823	0	0
2024-08-31 01:08:47			0	37235	0	0	0	29225	27840	157094	27232	1079195	47034	110867	0	0	8070	571180	0	0
2024-08-31 01:09:47			0	37240	0	0	0	29223	27840	157026	27253	1079195	46989	110866	0	0	8070	570982	0	0
2024-08-31 01:10:47			0	37227	0	0	0	29225	27840	157034	27137	1079115	47011	110867	0	0	8069	571498	0	0
2024-08-31 01:11:47			0	37242	0	0	0	29220	27830	157122	26963	1079052	47021	110865	0	0	8070	570936	0	0
2024-08-31 01:12:47			0	37217	0	0	0	29220	27820	157118	27135	1079033	46998	110865	0	0	8069	571961	0	0
2024-08-31 01:13:47			0	37214	0	0	0	29223	27830	157118	27202	1079123	47009	110866	0	0	8069	572047	0	0
2024-08-31 01:14:47			0	37219	0	0	0	29223	27830	157126	27211	1079043	47009	110866	0	0	8069	571849	0	0
2024-08-31 01:15:47			0	37206	0	0	0	29218	27830	157162	27248	1079079	47021	110864	0	0	8068	572365	0	0
2024-08-31 01:16:47			0	37199	0	0	0	29212	27820	157150	27351	1079024	47020	110862	0	0	8068	572676	0	0
2024-08-31 01:17:47			0	37209	0	0	0	29228	27820	157182	27109	1079060	47020	110868	0	0	8068	572279	0	0
2024-08-31 01:18:47			0	37183	0	0	0	29212	27820	157242	27289	1079060	47009	110862	0	0	8067	573313	0	0
2024-08-31 01:19:47			0	37192	0	0	0	29210	27820	157178	26934	1079007	46998	110861	0	0	8067	572955	0	0
2024-08-31 01:20:47			0	37195	0	0	0	29207	27820	157202	27244	1078944	47009	110860	0	0	8068	572835	0	0
2024-08-31 01:21:47			0	37198	0	0	0	29197	27820	157150	27461	1079051	47009	110856	0	0	8068	572716	0	0
2024-08-31 01:22:47			0	37191	0	0	0	29202	27810	157206	27111	1078988	47019	110858	0	0	8067	573027	0	0
2024-08-31 01:23:47			0	37180	0	0	0	29197	27810	157322	27336	1079042	47008	110856	0	0	8067	573465	0	0
2024-08-31 01:24:47			0	37173	0	0	0	29197	27810	157246	27159	1079006	47007	110856	0	0	8067	573744	0	0
2024-08-31 01:25:47			0	37184	0	0	0	29199	27810	157334	27111	1078961	47008	110857	0	0	8067	573306	0	0
2024-08-31 01:26:47			0	37168	0	0	0	29186	27800	157382	27279	1078997	46996	110852	0	0	8066	573976	0	0
2024-08-31 01:27:47			0	37152	0	0	0	29184	27790	157398	27244	1078844	47006	110851	0	0	8065	574646	0	0
2024-08-31 01:28:47			0	37142	0	0	0	29181	27800	157494	27052	1078863	46985	110850	0	0	8065	575012	0	0
2024-08-31 01:29:47			0	37142	0	0	0	29186	27790	157450	27022	1078827	47007	110852	0	0	8065	575045	0	0
2024-08-31 01:30:47			0	37132	0	0	0	29186	27790	157618	27256	1078853	47007	110852	0	0	8064	575444	0	0
2024-08-31 01:31:47			0	37127	0	0	0	29186	27790	157442	27064	1078898	47017	110852	0	0	8064	575643	0	0
2024-08-31 01:32:47			0	37125	0	0	0	29184	27790	157666	27013	1078880	47007	110851	0	0	8064	575723	0	0
2024-08-31 01:33:47			0	37110	0	0	0	29184	27790	157506	27263	1078844	47006	110851	0	0	8063	576322	0	0
2024-08-31 01:34:47			0	37104	0	0	0	29179	27780	157618	27192	1078835	47005	110849	0	0	8063	576595	0	0
2024-08-31 01:35:47			0	37102	0	0	0	29186	27780	157598	27286	1078862	47016	110852	0	0	8062	576674	0	0
2024-08-31 01:36:47			0	37099	0	0	0	29176	27790	157514	27346	1078844	47006	110848	0	0	8062	576761	0	0
2024-08-31 01:37:47			0	37101	0	0	0	29179	27780	157638	27298	1078826	47004	110849	0	0	8062	576714	0	0
2024-08-31 01:38:47			0	37086	0	0	0	29173	27780	157718	27183	1078835	47016	110847	0	0	8062	577314	0	0
2024-08-31 01:39:47			0	37093	0	0	0	29176	27770	157686	26949	1078817	47015	110848	0	0	8062	577067	0	0
2024-08-31 01:40:47			0	37081	0	0	0	29166	27780	157658	27225	1078772	47004	110844	0	0	8062	577514	0	0
2024-08-31 01:41:47			0	37081	0	0	0	29163	27780	157750	27241	1078808	47016	110843	0	0	8062	577514	0	0
2024-08-31 01:42:47			0	37070	0	0	0	29158	27780	157798	27069	1078772	46993	110841	0	0	8061	577954	0	0
2024-08-31 01:43:47			0	37042	0	0	0	29161	27770	157778	27390	1078817	47015	110842	0	0	8059	579108	0	0
2024-08-31 01:44:47			0	37068	0	0	0	29163	27770	157782	26991	1078781	47004	110843	0	0	8061	578067	0	0
2024-08-31 01:45:47			0	37035	0	0	0	29168	27770	157826	27071	1078754	47004	110845	0	0	8059	579388	0	0
2024-08-31 01:46:47			0	37025	0	0	0	29173	27760	157858	27267	1078745	46992	110847	0	0	8058	579823	0	0
2024-08-31 01:47:47			0	37042	0	0	0	29161	27770	157878	27074	1078754	47004	110842	0	0	8059	579108	0	0
2024-08-31 01:48:47			0	37032	0	0	0	29163	27760	157910	27197	1078763	47013	110843	0	0	8059	579542	0	0
2024-08-31 01:49:47			0	37031	0	0	0	29163	27750	158018	26795	1078673	47002	110843	0	0	8058	579616	0	0
2024-08-31 01:50:47			0	37001	0	0	0	29163	27760	157970	27159	1078718	47014	110843	0	0	8057	580785	0	0
2024-08-31 01:51:47			0	37022	0	0	0	29155	27770	158010	27100	1078781	47015	110840	0	0	8058	579910	0	0
2024-08-31 01:52:47			0	37039	0	0	0	29163	27760	157974	27052	1078745	47003	110843	0	0	8059	579261	0	0
2024-08-31 01:53:47			0	37037	0	0	0	29161	27760	157918	27062	1078664	47014	110842	0	0	8059	579342	0	0
2024-08-31 01:54:47			0	37025	0	0	0	29161	27770	157934	26890	1078673	47015	110842	0	0	8058	579789	0	0
2024-08-31 01:55:47			0	37024	0	0	0	29153	27760	157902	27105	1078718	47003	110839	0	0	8058	579863	0	0
2024-08-31 01:56:47			0	37011	0	0	0	29150	27760	157902	27204	1078763	47013	110838	0	0	8058	580384	0	0
2024-08-31 01:57:47			0	37024	0	0	0	29150	27760	157898	27142	1078745	46992	110838	0	0	8058	579863	0	0
2024-08-31 01:58:47			0	37007	0	0	0	29153	27750	157882	27079	1078691	47002	110839	0	0	8057	580578	0	0
2024-08-31 01:59:47			0	37022	0	0	0	29150	27750	157938	27081	1078664	46991	110838	0	0	8058	579976	0	0
2024-08-31 02:00:47			0	37035	0	0	0	29145	27760	157978	27066	1078745	47025	110836	0	0	8059	579422	0	0
2024-08-31 02:01:47			0	37028	0	0	0	29140	27750	157890	26998	1078610	47002	110834	0	0	8059	579736	0	0
2024-08-31 02:02:47			0	37028	0	0	0	29140	27750	157846	26993	1078664	47013	110834	0	0	8059	579736	0	0
2024-08-31 02:03:47			0	37011	0	0	0	29148	27750	157926	26998	1078673	47013	110837	0	0	8058	580417	0	0
2024-08-31 02:04:47			0	37034	0	0	0	29153	27740	157918	26994	1078628	47001	110839	0	0	8059	579529	0	0
2024-08-31 02:05:47			0	37035	0	0	0	29140	27750	157966	27107	1078691	47013	110834	0	0	8059	579455	0	0
2024-08-31 02:06:47			0	37018	0	0	0	29148	27740	157966	27156	1078655	47012	110837	0	0	8058	580170	0	0
2024-08-31 02:07:47			0	37027	0	0	0	29142	27750	157918	27041	1078691	47013	110835	0	0	8059	579776	0	0
2024-08-31 02:08:47			0	37008	0	0	0	29158	27740	157998	26828	1078682	47001	110841	0	0	8057	580571	0	0
2024-08-31 02:09:47			0	37011	0	0	0	29148	27750	158010	27149	1078610	46991	110837	0	0	8058	580417	0	0
2024-08-31 02:10:47			0	37008	0	0	0	29142	27740	158082	27088	1078655	47001	110835	0	0	8057	580571	0	0
2024-08-31 02:11:47			0	36995	0	0	0	29137	27750	158046	27150	1078592	47002	110833	0	0	8057	581060	0	0
2024-08-31 02:12:47			0	37010	0	0	0	29145	27740	158046	27059	1078592	47000	110836	0	0	8058	580491	0	0
2024-08-31 02:13:47			0	37008	0	0	0	29137	27740	157978	26804	1078699	47011	110833	0	0	8058	580571	0	0
2024-08-31 02:14:47			0	36996	0	0	0	29142	27740	158066	26993	1078655	47012	110835	0	0	8057	581053	0	0
2024-08-31 02:15:47			0	36981	0	0	0	29145	27740	158046	26864	1078646	47000	110836	0	0	8056	581656	0	0
2024-08-31 02:16:47			0	36984	0	0	0	29148	27740	158114	26941	1078601	47012	110837	0	0	8056	581535	0	0
2024-08-31 02:17:47			0	36974	0	0	0	29135	27740	158018	26727	1078628	46990	110832	0	0	8056	581937	0	0
2024-08-31 02:18:47			0	36990	0	0	0	29132	27730	158182	27241	1078583	47000	110831	0	0	8057	581327	0	0
2024-08-31 02:19:47			0	36994	0	0	0	29127	27750	157954	26870	1078583	47002	110829	0	0	8057	581100	0	0
2024-08-31 02:20:47			0	37005	0	0	0	29122	27730	158014	26934	1078556	47011	110827	0	0	8058	580725	0	0
2024-08-31 02:21:47			0	37000	0	0	0	29114	27730	158050	26956	1078502	47011	110824	0	0	8057	580926	0	0
2024-08-31 02:22:47			0	37018	0	0	0	29114	27730	158002	26944	1078502	46989	110824	0	0	8058	580203	0	0
2024-08-31 02:23:47			0	36998	0	0	0	29114	27720	157962	26977	1078538	47000	110824	0	0	8057	581040	0	0
2024-08-31 02:24:47			0	36999	0	0	0	29116	27720	158046	26961	1078484	47010	110825	0	0	8057	580999	0	0
2024-08-31 02:25:47			0	36990	0	0	0	29135	27730	158026	26897	1078601	47000	110832	0	0	8056	581327	0	0
2024-08-31 02:26:47			0	37004	0	0	0	29135	27720	158014	26823	1078511	47021	110832	0	0	8057	580799	0	0
2024-08-31 02:27:47			0	36984	0	0	0	29127	27720	158018	26890	1078511	47000	110829	0	0	8056	581602	0	0
2024-08-31 02:28:47			0	36994	0	0	0	29127	27720	158042	27005	1078565	47010	110829	0	0	8057	581200	0	0
2024-08-31 02:29:47			0	37016	0	0	0	29122	27730	157930	26887	1078520	47011	110827	0	0	8058	580284	0	0
2024-08-31 02:30:47			0	37013	0	0	0	29127	27720	158054	26760	1078538	47000	110829	0	0	8058	580438	0	0
2024-08-31 02:31:47			0	37021	0	0	0	29116	27720	157982	27059	1078457	47000	110825	0	0	8059	580117	0	0
2024-08-31 02:32:47			0	37030	0	0	0	29116	27720	157898	26935	1078502	46987	110825	0	0	8059	579756	0	0
2024-08-31 02:33:47			0	37021	0	0	0	29103	27720	157834	26994	1078502	46999	110820	0	0	8059	580117	0	0
2024-08-31 02:34:47			0	37034	0	0	0	29111	27720	157850	27234	1078502	46999	110823	0	0	8059	579595	0	0
2024-08-31 02:35:47			0	37040	0	0	0	29116	27730	157862	26873	1078439	47022	110825	0	0	8060	579321	0	0
2024-08-31 02:36:47			0	37041	0	0	0	29114	27710	157934	26981	1078493	47009	110824	0	0	8060	579348	0	0
2024-08-31 02:37:47			0	37040	0	0	0	29114	27720	157774	26948	1078421	46999	110824	0	0	8060	579355	0	0
2024-08-31 02:38:47			0	37039	0	0	0	29109	27720	157810	27265	1078394	47009	110822	0	0	8060	579395	0	0
2024-08-31 02:39:47			0	37047	0	0	0	29101	27710	157806	27220	1078493	47009	110819	0	0	8060	579108	0	0
2024-08-31 02:40:47			0	37056	0	0	0	29098	27710	157886	27263	1078439	46999	110818	0	0	8061	578747	0	0
2024-08-31 02:41:47			0	37059	0	0	0	29101	27710	157842	27130	1078403	47008	110819	0	0	8061	578627	0	0
2024-08-31 02:42:47			0	37068	0	0	0	29098	27700	157822	27135	1078394	46998	110818	0	0	8062	578300	0	0
2024-08-31 02:43:47			0	37066	0	0	0	29096	27710	157698	27239	1078403	47008	110817	0	0	8061	578347	0	0
2024-08-31 02:44:47			0	37055	0	0	0	29090	27700	157778	27034	1078394	47008	110815	0	0	8061	578821	0	0
2024-08-31 02:45:47			0	37064	0	0	0	29093	27710	157850	26738	1078457	47008	110816	0	0	8061	578427	0	0
2024-08-31 02:46:47			0	37058	0	0	0	29093	27700	157726	27003	1078421	46986	110816	0	0	8061	578701	0	0
2024-08-31 02:47:47			0	37060	0	0	0	29083	27700	157822	27171	1078367	46998	110812	0	0	8061	578620	0	0
2024-08-31 02:48:47			0	37075	0	0	0	29093	27700	157778	27086	1078331	47007	110816	0	0	8062	578020	0	0
2024-08-31 02:49:47			0	37063	0	0	0	29090	27700	157614	26955	1078358	47007	110815	0	0	8061	578500	0	0
2024-08-31 02:50:47			0	37083	0	0	0	29093	27700	157730	27282	1078358	46997	110816	0	0	8062	577700	0	0
2024-08-31 02:51:47			0	37069	0	0	0	29098	27690	157714	27145	1078349	46996	110818	0	0	8062	578293	0	0
2024-08-31 02:52:47			0	37062	0	0	0	29093	27690	157758	27209	1078375	47006	110816	0	0	8061	578574	0	0
2024-08-31 02:53:47			0	37073	0	0	0	29080	27700	157738	27019	1078358	47007	110811	0	0	8062	578100	0	0
2024-08-31 02:54:47			0	37078	0	0	0	29096	27700	157838	26899	1078331	47007	110817	0	0	8062	577900	0	0
2024-08-31 02:55:47			0	37068	0	0	0	29090	27690	157750	27263	1078340	46996	110815	0	0	8062	578333	0	0
2024-08-31 02:56:47			0	37089	0	0	0	29085	27690	157726	27104	1078340	46996	110813	0	0	8063	577493	0	0
2024-08-31 02:57:47			0	37088	0	0	0	29088	27690	157714	27229	1078340	47006	110814	0	0	8063	577533	0	0
2024-08-31 02:58:47			0	37077	0	0	0	29090	27700	157694	27488	1078421	46998	110815	0	0	8062	577940	0	0
2024-08-31 02:59:47			0	37086	0	0	0	29096	27700	157750	27400	1078358	47007	110817	0	0	8063	577580	0	0
2024-08-31 03:00:47			0	37092	0	0	0	29093	27680	157766	27398	1078357	46996	110816	0	0	8063	577407	0	0
2024-08-31 03:01:47			0	37069	0	0	0	29093	27680	157674	27268	1078357	46996	110816	0	0	8062	578327	0	0
2024-08-31 03:02:47			0	37058	0	0	0	29083	27690	157790	27109	1078393	47006	110812	0	0	8061	578734	0	0
2024-08-31 03:03:47			0	37076	0	0	0	29077	27690	157730	27189	1078420	47017	110810	0	0	8062	578013	0	0
2024-08-31 03:04:47			0	37079	0	0	0	29083	27690	157806	26807	1078340	47006	110812	0	0	8062	577893	0	0
2024-08-31 03:05:47			0	37080	0	0	0	29083	27690	157762	27033	1078313	46996	110812	0	0	8062	577853	0	0
2024-08-31 03:06:47			0	37062	0	0	0	29070	27680	157734	27272	1078330	46996	110807	0	0	8062	578607	0	0
2024-08-31 03:07:47			0	37074	0	0	0	29064	27680	157770	27209	1078330	46996	110805	0	0	8062	578127	0	0
2024-08-31 03:08:47			0	37067	0	0	0	29072	27680	157878	27256	1078277	46996	110808	0	0	8062	578407	0	0
2024-08-31 03:09:47			0	37045	0	0	0	29062	27670	157838	27159	1078258	47004	110804	0	0	8061	579321	0	0
2024-08-31 03:10:47			0	37058	0	0	0	29072	27680	157874	26967	1078277	47006	110808	0	0	8061	578767	0	0
2024-08-31 03:11:47			0	37042	0	0	0	29070	27670	157914	27138	1078303	46994	110807	0	0	8060	579442	0	0
2024-08-31 03:12:47			0	37053	0	0	0	29057	27670	157778	27166	1078258	46994	110802	0	0	8061	579001	0	0
2024-08-31 03:13:47			0	37035	0	0	0	29054	27660	157898	27126	1078240	46994	110801	0	0	8060	579756	0	0
2024-08-31 03:14:47			0	37047	0	0	0	29046	27670	157938	26996	1078222	47004	110798	0	0	8061	579241	0	0
2024-08-31 03:15:47			0	37033	0	0	0	29051	27660	158038	27019	1078186	47004	110800	0	0	8060	579836	0	0
2024-08-31 03:16:47			0	37024	0	0	0	29054	27660	158022	27057	1078240	46971	110801	0	0	8059	580197	0	0
2024-08-31 03:17:47			0	37019	0	0	0	29049	27650	158038	27317	1078222	46980	110799	0	0	8059	580431	0	0
2024-08-31 03:18:47			0	37006	0	0	0	29046	27660	158038	27154	1078186	47004	110798	0	0	8059	580919	0	0
2024-08-31 03:19:47			0	37015	0	0	0	29044	27660	158050	26838	1078204	46993	110797	0	0	8059	580558	0	0
2024-08-31 03:20:47			0	36998	0	0	0	29044	27650	158042	26946	1078240	47002	110797	0	0	8058	581274	0	0
2024-08-31 03:21:47			0	37001	0	0	0	29044	27660	158154	27083	1078204	47003	110797	0	0	8058	581120	0	0
2024-08-31 03:22:47			0	36988	0	0	0	29044	27660	158118	27176	1078231	46993	110797	0	0	8058	581642	0	0
2024-08-31 03:23:47			0	36971	0	0	0	29046	27660	158130	27159	1078160	46994	110798	0	0	8057	582326	0	0
2024-08-31 03:24:47			0	36981	0	0	0	29044	27650	158230	27057	1078132	47002	110797	0	0	8057	581957	0	0
2024-08-31 03:25:47			0	36977	0	0	0	29031	27650	158198	27131	1078159	47002	110792	0	0	8057	582118	0	0
2024-08-31 03:26:47			0	36973	0	0	0	29049	27650	158202	27086	1078186	46992	110799	0	0	8057	582279	0	0
2024-08-31 03:27:47			0	36977	0	0	0	29038	27650	158206	27066	1078132	47002	110795	0	0	8057	582118	0	0
2024-08-31 03:28:47			0	36970	0	0	0	29044	27650	158226	26876	1078159	46992	110797	0	0	8056	582399	0	0
2024-08-31 03:29:47			0	36974	0	0	0	29038	27630	158270	27086	1078104	47000	110795	0	0	8057	582306	0	0
2024-08-31 03:30:47			0	36973	0	0	0	29036	27630	158170	26759	1078078	47000	110794	0	0	8057	582346	0	0
2024-08-31 03:31:47			0	36968	0	0	0	29023	27640	158298	26979	1078140	46991	110789	0	0	8057	582513	0	0
2024-08-31 03:32:47			0	36970	0	0	0	29028	27630	158310	27190	1078104	47000	110791	0	0	8057	582466	0	0
2024-08-31 03:33:47			0	36962	0	0	0	29025	27630	158294	26871	1078068	46990	110790	0	0	8056	582788	0	0
2024-08-31 03:34:47			0	36940	0	0	0	29031	27630	158382	27161	1078015	46990	110792	0	0	8055	583674	0	0
2024-08-31 03:35:47			0	36955	0	0	0	29028	27630	158362	27003	1078104	47000	110791	0	0	8056	583070	0	0
2024-08-31 03:36:47			0	36947	0	0	0	29020	27620	158358	26852	1078006	46989	110788	0	0	8055	583426	0	0
2024-08-31 03:37:47			0	36952	0	0	0	29020	27630	158354	27154	1078122	46978	110788	0	0	8056	583191	0	0
2024-08-31 03:38:47			0	36931	0	0	0	29018	27630	158298	27173	1078095	46990	110787	0	0	8054	584037	0	0
2024-08-31 03:39:47			0	36946	0	0	0	29020	27630	158402	27345	1078068	47000	110788	0	0	8055	583432	0	0
2024-08-31 03:40:47			0	36934	0	0	0	29020	27620	158346	27015	1077996	47000	110788	0	0	8055	583949	0	0
2024-08-31 03:41:47			0	36934	0	0	0	29007	27620	158418	26939	1078086	46989	110783	0	0	8055	583949	0	0
2024-08-31 03:42:47			0	36925	0	0	0	29012	27610	158406	26948	1078041	46999	110785	0	0	8054	584346	0	0
2024-08-31 03:43:47			0	36921	0	0	0	29007	27620	158418	27107	1078077	46977	110783	0	0	8054	584473	0	0
2024-08-31 03:44:47			0	36895	0	0	0	29007	27620	158530	27138	1078023	47000	110783	0	0	8052	585522	0	0
2024-08-31 03:45:47			0	36895	0	0	0	29012	27610	158466	26823	1077961	46999	110785	0	0	8052	585556	0	0
2024-08-31 03:46:47			0	36882	0	0	0	29020	27620	158658	26632	1077943	47000	110788	0	0	8052	586047	0	0
2024-08-31 03:47:47			0	36892	0	0	0	29007	27620	158570	27013	1078006	47000	110783	0	0	8052	585643	0	0
2024-08-31 03:48:47			0	36899	0	0	0	29023	27610	158586	26948	1078014	46987	110789	0	0	8052	585395	0	0
2024-08-31 03:49:47			0	36902	0	0	0	29015	27610	158686	26998	1077978	46998	110786	0	0	8053	585273	0	0
2024-08-31 03:50:47			0	36891	0	0	0	29010	27610	158578	27008	1078005	46986	110784	0	0	8052	585717	0	0
2024-08-31 03:51:47			0	36883	0	0	0	29005	27620	158690	27059	1077996	46989	110782	0	0	8052	586007	0	0
2024-08-31 03:52:47			0	36879	0	0	0	29010	27610	158646	26911	1078005	46998	110784	0	0	8051	586202	0	0
2024-08-31 03:53:47			0	36869	0	0	0	29005	27610	158678	27053	1077961	46999	110782	0	0	8051	586606	0	0
2024-08-31 03:54:47			0	36860	0	0	0	29007	27600	158798	26915	1077996	46998	110783	0	0	8050	587004	0	0
2024-08-31 03:55:47			0	36863	0	0	0	29002	27610	158762	27204	1078005	46986	110781	0	0	8051	586849	0	0
2024-08-31 03:56:47			0	36833	0	0	0	28979	27610	158750	27067	1078005	46986	110772	0	0	8049	588063	0	0
2024-08-31 03:57:47			0	36836	0	0	0	28979	27600	158818	27083	1077906	46986	110772	0	0	8049	587975	0	0
2024-08-31 03:58:47			0	36829	0	0	0	28963	27600	158806	27145	1077889	46998	110766	0	0	8049	588258	0	0
2024-08-31 03:59:47			0	36819	0	0	0	28968	27600	158838	26809	1077880	46986	110768	0	0	8049	588663	0	0
2024-08-31 04:00:47			0	36800	0	0	0	28968	27590	158914	26955	1077897	46997	110768	0	0	8047	589467	0	0
2024-08-31 04:01:47			0	36784	0	0	0	28966	27590	159038	27223	1077808	46984	110767	0	0	8046	590117	0	0
2024-08-31 04:02:47			0	36771	0	0	0	28971	27590	158986	26918	1077834	46996	110769	0	0	8046	590644	0	0
2024-08-31 04:03:47			0	36772	0	0	0	28971	27580	159122	26897	1077772	46984	110769	0	0	8046	590638	0	0
2024-08-31 04:04:47			0	36772	0	0	0	28963	27590	159122	27111	1077861	46973	110766	0	0	8046	590604	0	0
2024-08-31 04:05:47			0	36765	0	0	0	28963	27580	159198	26901	1077798	46996	110766	0	0	8045	590922	0	0
2024-08-31 04:06:47			0	36745	0	0	0	28963	27570	159210	27034	1077807	46995	110766	0	0	8044	591769	0	0
2024-08-31 04:07:47			0	36741	0	0	0	28963	27570	159234	27303	1077753	46995	110766	0	0	8044	591931	0	0
2024-08-31 04:08:47			0	36752	0	0	0	28950	27570	159218	27034	1077726	47005	110761	0	0	8045	591484	0	0
2024-08-31 04:09:47			0	36745	0	0	0	28950	27570	159322	27223	1077664	46982	110761	0	0	8044	591769	0	0
2024-08-31 04:10:47			0	36747	0	0	0	28948	27560	159258	27319	1077735	46982	110760	0	0	8044	591722	0	0
2024-08-31 04:11:47			0	36719	0	0	0	28942	27570	159278	27298	1077771	47004	110758	0	0	8043	592827	0	0
2024-08-31 04:12:47			0	36721	0	0	0	28932	27560	159374	27128	1077681	46994	110754	0	0	8043	592779	0	0
2024-08-31 04:13:47			0	36715	0	0	0	28932	27560	159362	26925	1077699	46970	110754	0	0	8043	593024	0	0
2024-08-31 04:14:47			0	36718	0	0	0	28922	27550	159322	27222	1077636	46993	110750	0	0	8043	592936	0	0
2024-08-31 04:15:47			0	36685	0	0	0	28916	27540	159498	27215	1077618	46992	110748	0	0	8041	594315	0	0
2024-08-31 04:16:47			0	36672	0	0	0	28909	27540	159518	27183	1077538	46980	110745	0	0	8041	594845	0	0
2024-08-31 04:17:47			0	36666	0	0	0	28903	27540	159554	26904	1077582	46979	110743	0	0	8040	595090	0	0
2024-08-31 04:18:47			0	36664	0	0	0	28906	27540	159614	27133	1077501	46979	110744	0	0	8040	595172	0	0
2024-08-31 04:19:47			0	36625	0	0	0	28911	27540	159662	27286	1077511	46992	110746	0	0	8038	596765	0	0
2024-08-31 04:20:47			0	36618	0	0	0	28898	27530	159770	27060	1077519	46991	110741	0	0	8038	597086	0	0
2024-08-31 04:21:47			0	36591	0	0	0	28896	27530	159933	27150	1077510	46978	110740	0	0	8036	598191	0	0
2024-08-31 04:22:47			0	36582	0	0	0	28906	27530	160049	27202	1077519	46991	110744	0	0	8035	598560	0	0
2024-08-31 04:23:47			0	36555	0	0	0	28906	27520	160245	27249	1077501	46977	110744	0	0	8034	599702	0	0
2024-08-31 04:24:47			0	36544	0	0	0	28898	27530	160189	27242	1077537	46990	110741	0	0	8033	600119	0	0
2024-08-31 04:25:47			0	36519	0	0	0	28898	27510	160317	27173	1077438	46966	110741	0	0	8032	601215	0	0
2024-08-31 04:26:47			0	36515	0	0	0	28903	27500	160345	27326	1077474	46965	110743	0	0	8031	601414	0	0
2024-08-31 04:27:47			0	36499	0	0	0	28893	27510	160393	27130	1077438	46989	110739	0	0	8030	602038	0	0
2024-08-31 04:28:47			0	36481	0	0	0	28898	27500	160425	27038	1077366	46988	110741	0	0	8029	602813	0	0
2024-08-31 04:29:47			0	36462	0	0	0	28898	27500	160457	27138	1077465	46975	110741	0	0	8028	603596	0	0
2024-08-31 04:30:47			0	36468	0	0	0	28893	27500	160641	27085	1077447	46976	110739	0	0	8029	603349	0	0
2024-08-31 04:31:47			0	36443	0	0	0	28901	27500	160689	27039	1077393	46976	110742	0	0	8027	604380	0	0
2024-08-31 04:32:47			0	36436	0	0	0	28893	27500	160697	27060	1077438	46975	110739	0	0	8027	604669	0	0
2024-08-31 04:33:47			0	36415	0	0	0	28888	27500	160697	27286	1077366	46965	110737	0	0	8025	605536	0	0
2024-08-31 04:34:47			0	36405	0	0	0	28872	27500	160737	27041	1077420	46976	110731	0	0	8025	605949	0	0
2024-08-31 04:35:47			0	36398	0	0	0	28896	27500	160765	27133	1077357	46987	110740	0	0	8024	606239	0	0
2024-08-31 04:36:47			0	36390	0	0	0	28888	27500	160781	27090	1077411	46987	110737	0	0	8024	606570	0	0
2024-08-31 04:37:47			0	36381	0	0	0	28885	27500	160937	27041	1077384	46975	110736	0	0	8023	606942	0	0
2024-08-31 04:38:47			0	36368	0	0	0	28888	27500	161061	27208	1077384	46987	110737	0	0	8023	607480	0	0
2024-08-31 04:39:47			0	36350	0	0	0	28888	27490	161013	26934	1077348	46987	110737	0	0	8022	608261	0	0
2024-08-31 04:40:47			0	36340	0	0	0	28872	27480	161097	27107	1077330	46986	110731	0	0	8021	608710	0	0
2024-08-31 04:41:47			0	36324	0	0	0	28870	27490	161017	26894	1077348	46998	110730	0	0	8020	609339	0	0
2024-08-31 04:42:47			0	36314	0	0	0	28872	27490	161149	26890	1077348	46975	110731	0	0	8020	609754	0	0
2024-08-31 04:43:47			0	36318	0	0	0	28875	27490	161221	27253	1077348	46998	110732	0	0	8020	609588	0	0
2024-08-31 04:44:47			0	36307	0	0	0	28870	27480	161169	27336	1077321	46973	110730	0	0	8019	610080	0	0
2024-08-31 04:45:47			0	36287	0	0	0	28885	27480	161245	27258	1077267	46996	110736	0	0	8018	610911	0	0
2024-08-31 04:46:47			0	36311	0	0	0	28872	27480	161313	27350	1077321	46996	110731	0	0	8019	609914	0	0
2024-08-31 04:47:47			0	36311	0	0	0	28872	27480	161189	27391	1077321	46973	110731	0	0	8019	609914	0	0
2024-08-31 04:48:47			0	36295	0	0	0	28862	27480	161269	27251	1077276	46974	110727	0	0	8019	610578	0	0
2024-08-31 04:49:47			0	36284	0	0	0	28864	27470	161253	27274	1077231	46985	110728	0	0	8018	611070	0	0
2024-08-31 04:50:47			0	36288	0	0	0	28867	27470	161201	27248	1077285	46973	110729	0	0	8018	610904	0	0
2024-08-31 04:51:47			0	36306	0	0	0	28862	27470	161221	27310	1077249	46984	110727	0	0	8019	610156	0	0
2024-08-31 04:52:47			0	36316	0	0	0	28864	27470	161253	26922	1077222	46961	110728	0	0	8020	609741	0	0
2024-08-31 04:53:47			0	36307	0	0	0	28859	27460	161221	27246	1077267	46971	110726	0	0	8019	610150	0	0
2024-08-31 04:54:47			0	36309	0	0	0	28857	27470	161261	27066	1077258	46985	110725	0	0	8019	610032	0	0
2024-08-31 04:55:47			0	36321	0	0	0	28851	27460	161197	27405	1077294	46983	110723	0	0	8020	609569	0	0
2024-08-31 04:56:47			0	36302	0	0	0	28859	27470	161205	27253	1077222	46972	110726	0	0	8019	610322	0	0
2024-08-31 04:57:47			0	36324	0	0	0	28857	27470	161337	27079	1077249	46972	110725	0	0	8020	609409	0	0
2024-08-31 04:58:47			0	36330	0	0	0	28854	27460	161289	27069	1077186	46971	110724	0	0	8021	609195	0	0
2024-08-31 04:59:47			0	36336	0	0	0	28851	27460	161213	27211	1077240	46960	110723	0	0	8021	608946	0	0
2024-08-31 05:00:47			0	36328	0	0	0	28849	27460	161253	27114	1077267	46983	110722	0	0	8021	609278	0	0
2024-08-31 05:01:47			0	36336	0	0	0	28846	27460	161221	26706	1077159	46983	110721	0	0	8021	608946	0	0
2024-08-31 05:02:47			0	36337	0	0	0	28846	27450	161253	26961	1077168	46960	110721	0	0	8021	608940	0	0
2024-08-31 05:03:47			0	36330	0	0	0	28844	27450	161289	27137	1077213	46970	110720	0	0	8021	609230	0	0
2024-08-31 05:04:47			0	36350	0	0	0	28844	27460	161141	27079	1077150	46971	110720	0	0	8022	608366	0	0
2024-08-31 05:05:47			0	36361	0	0	0	28846	27450	161081	27263	1077222	46983	110721	0	0	8023	607945	0	0
2024-08-31 05:06:47			0	36361	0	0	0	28828	27460	161129	27405	1077150	46971	110714	0	0	8023	607910	0	0
2024-08-31 05:07:47			0	36368	0	0	0	28828	27450	161037	27396	1077141	46994	110714	0	0	8023	607655	0	0
2024-08-31 05:08:47			0	36378	0	0	0	28828	27450	161085	27079	1077168	46971	110714	0	0	8024	607241	0	0
2024-08-31 05:09:47			0	36376	0	0	0	28828	27450	161041	27225	1077132	46970	110714	0	0	8024	607323	0	0
2024-08-31 05:10:47			0	36392	0	0	0	28815	27440	161025	27138	1077123	46969	110709	0	0	8025	606696	0	0
2024-08-31 05:11:47			0	36381	0	0	0	28818	27440	160997	27249	1077033	46969	110710	0	0	8024	607151	0	0
2024-08-31 05:12:47			0	36381	0	0	0	28815	27440	160941	27140	1077069	46969	110709	0	0	8024	607151	0	0
2024-08-31 05:13:47			0	36393	0	0	0	28812	27440	160945	27242	1077060	46969	110708	0	0	8025	606655	0	0
2024-08-31 05:14:47			0	36404	0	0	0	28818	27430	161137	27071	1076988	46958	110710	0	0	8026	606235	0	0
2024-08-31 05:15:47			0	36393	0	0	0	28805	27430	160993	26939	1076961	46946	110705	0	0	8025	606689	0	0
2024-08-31 05:16:47			0	36397	0	0	0	28807	27430	160985	26812	1077015	46980	110706	0	0	8025	606524	0	0
2024-08-31 05:17:47			0	36408	0	0	0	28807	27430	160925	27048	1077024	46981	110706	0	0	8026	606069	0	0
2024-08-31 05:18:47			0	36406	0	0	0	28807	27420	160921	27152	1077033	46957	110706	0	0	8026	606187	0	0
2024-08-31 05:19:47			0	36405	0	0	0	28807	27420	160925	27102	1076997	46979	110706	0	0	8026	606228	0	0
2024-08-31 05:20:47			0	36417	0	0	0	28810	27420	160933	27074	1076943	46967	110707	0	0	8026	605732	0	0
2024-08-31 05:21:47			0	36420	0	0	0	28799	27410	160785	26795	1076978	46978	110703	0	0	8027	605643	0	0
2024-08-31 05:22:47			0	36409	0	0	0	28794	27420	160833	26838	1076997	46979	110701	0	0	8026	606063	0	0
2024-08-31 05:23:47			0	36415	0	0	0	28797	27410	160913	27223	1076951	46978	110702	0	0	8027	605849	0	0
2024-08-31 05:24:47			0	36427	0	0	0	28807	27420	160801	27060	1076916	46967	110706	0	0	8027	605319	0	0
2024-08-31 05:25:47			0	36444	0	0	0	28792	27410	160833	27196	1076988	46978	110700	0	0	8028	604651	0	0
2024-08-31 05:26:47			0	36454	0	0	0	28799	27410	160721	27102	1076961	46966	110703	0	0	8029	604239	0	0
2024-08-31 05:27:47			0	36446	0	0	0	28799	27400	160657	27062	1076942	46965	110703	0	0	8028	604604	0	0
2024-08-31 05:28:47			0	36428	0	0	0	28797	27410	160701	27189	1076924	46966	110702	0	0	8027	605312	0	0
2024-08-31 05:29:47			0	36454	0	0	0	28792	27400	160765	26961	1076942	46977	110700	0	0	8029	604273	0	0
2024-08-31 05:30:47			0	36441	0	0	0	28797	27400	160793	27258	1076852	46964	110702	0	0	8028	604810	0	0
2024-08-31 05:31:47			0	36457	0	0	0	28789	27410	160801	27038	1076898	46989	110699	0	0	8029	604115	0	0
2024-08-31 05:32:47			0	36464	0	0	0	28794	27410	160773	27296	1076898	46978	110701	0	0	8030	603826	0	0
2024-08-31 05:33:47			0	36460	0	0	0	28792	27410	160729	26935	1076871	46966	110700	0	0	8029	603991	0	0
2024-08-31 05:34:47			0	36456	0	0	0	28794	27400	160645	26958	1076862	46955	110701	0	0	8029	604191	0	0
2024-08-31 05:35:47			0	36493	0	0	0	28792	27400	160701	27171	1076933	46964	110700	0	0	8031	602666	0	0
2024-08-31 05:36:47			0	36472	0	0	0	28802	27410	160541	27301	1076790	46966	110704	0	0	8030	603496	0	0
2024-08-31 05:37:47			0	36453	0	0	0	28805	27400	160769	27170	1076942	46965	110705	0	0	8029	604315	0	0
2024-08-31 05:38:47			0	36463	0	0	0	28812	27410	160705	27130	1076978	46966	110708	0	0	8029	603867	0	0
2024-08-31 05:39:47			0	36476	0	0	0	28812	27400	160681	26993	1076969	46965	110708	0	0	8030	603366	0	0
2024-08-31 05:40:47			0	36485	0	0	0	28810	27400	160677	27114	1076960	46976	110707	0	0	8030	602995	0	0
2024-08-31 05:41:47			0	36470	0	0	0	28812	27410	160677	27008	1076978	46966	110708	0	0	8030	603579	0	0
2024-08-31 05:42:47			0	36460	0	0	0	28815	27410	160789	26981	1076961	46978	110709	0	0	8029	603991	0	0
2024-08-31 05:43:47			0	36481	0	0	0	28805	27400	160673	27069	1076969	46977	110705	0	0	8030	603160	0	0
2024-08-31 05:44:47			0	36481	0	0	0	28807	27400	160797	27218	1076969	46977	110706	0	0	8030	603160	0	0
2024-08-31 05:45:47			0	36472	0	0	0	28802	27410	160753	27043	1076951	46978	110704	0	0	8030	603496	0	0
2024-08-31 05:46:47			0	36477	0	0	0	28807	27400	160749	27189	1076879	46976	110706	0	0	8030	603325	0	0
2024-08-31 05:47:47			0	36483	0	0	0	28810	27400	160765	26923	1076915	46977	110707	0	0	8030	603078	0	0
2024-08-31 05:48:47			0	36455	0	0	0	28807	27410	160801	27154	1076951	46978	110706	0	0	8029	604197	0	0
2024-08-31 05:49:47			0	36485	0	0	0	28812	27400	160745	27197	1076915	46965	110708	0	0	8030	602995	0	0
2024-08-31 05:50:47			0	36466	0	0	0	28823	27410	160761	27185	1076978	46989	110712	0	0	8029	603744	0	0
2024-08-31 05:51:47			0	36470	0	0	0	28831	27410	160801	27301	1076978	46978	110715	0	0	8029	603579	0	0
2024-08-31 05:52:47			0	36465	0	0	0	28828	27410	160841	27209	1077015	46978	110714	0	0	8029	603785	0	0
2024-08-31 05:53:47			0	36445	0	0	0	28833	27410	160753	27287	1076961	46978	110716	0	0	8028	604610	0	0
2024-08-31 05:54:47			0	36451	0	0	0	28833	27400	160881	27059	1076969	46999	110716	0	0	8028	604397	0	0
2024-08-31 05:55:47			0	36436	0	0	0	28838	27410	160869	27161	1076924	46978	110718	0	0	8027	604982	0	0
2024-08-31 05:56:47			0	36435	0	0	0	28849	27420	160945	27294	1077077	46990	110722	0	0	8027	604988	0	0
2024-08-31 05:57:47			0	36428	0	0	0	28841	27420	160921	27332	1077051	46990	110719	0	0	8027	605277	0	0
2024-08-31 05:58:47			0	36432	0	0	0	28859	27410	160893	27237	1077095	46978	110726	0	0	8027	605147	0	0
2024-08-31 05:59:47			0	36403	0	0	0	28854	27420	161017	27223	1077077	46979	110724	0	0	8025	606311	0	0
2024-08-31 06:00:47			0	36401	0	0	0	28862	27430	160869	27142	1077176	46991	110727	0	0	8025	606359	0	0
2024-08-31 06:01:47			0	36389	0	0	0	28872	27440	161149	27140	1077221	46992	110731	0	0	8024	606820	0	0
2024-08-31 06:02:47			0	36367	0	0	0	28880	27440	161109	27301	1077248	46981	110734	0	0	8022	607731	0	0
2024-08-31 06:03:47			0	36351	0	0	0	28885	27440	161085	27310	1077230	47002	110736	0	0	8021	608394	0	0
2024-08-31 06:04:47			0	36346	0	0	0	28885	27440	161213	27485	1077284	47002	110736	0	0	8021	608601	0	0
2024-08-31 06:05:47			0	36324	0	0	0	28888	27450	161277	27274	1077347	46993	110737	0	0	8020	609479	0	0
2024-08-31 06:06:47			0	36309	0	0	0	28890	27440	161297	27242	1077284	46981	110738	0	0	8019	610137	0	0
2024-08-31 06:07:47			0	36281	0	0	0	28898	27460	161357	27374	1077311	46983	110741	0	0	8017	611231	0	0
2024-08-31 06:08:47			0	36284	0	0	0	28885	27450	161481	27260	1077275	46971	110736	0	0	8017	611141	0	0
2024-08-31 06:09:47			0	36278	0	0	0	28890	27440	161513	27306	1077177	46969	110738	0	0	8017	611425	0	0
2024-08-31 06:10:47			0	36249	0	0	0	28888	27450	161601	27291	1077222	46971	110737	0	0	8015	612597	0	0
2024-08-31 06:11:47			0	36248	0	0	0	28885	27440	161633	27580	1077123	46969	110736	0	0	8015	612674	0	0
2024-08-31 06:12:47			0	36249	0	0	0	28880	27440	161673	27033	1077248	46981	110734	0	0	8015	612633	0	0
2024-08-31 06:13:47			0	36221	0	0	0	28880	27450	161593	27130	1077239	46982	110734	0	0	8014	613765	0	0
2024-08-31 06:14:47			0	36219	0	0	0	28883	27440	161701	27029	1077203	46981	110735	0	0	8013	613883	0	0
2024-08-31 06:15:47			0	36214	0	0	0	28875	27450	161685	27142	1077186	46993	110732	0	0	8013	614057	0	0
2024-08-31 06:16:47			0	36201	0	0	0	28880	27450	161813	27225	1077213	46993	110734	0	0	8013	614599	0	0
2024-08-31 06:17:47			0	36203	0	0	0	28883	27450	161845	27249	1077213	46993	110735	0	0	8013	614516	0	0
2024-08-31 06:18:47			0	36188	0	0	0	28888	27450	161865	26982	1077275	46994	110737	0	0	8012	615142	0	0
2024-08-31 06:19:47			0	36170	0	0	0	28883	27460	161845	27308	1077204	46994	110735	0	0	8011	615859	0	0
2024-08-31 06:20:47			0	36177	0	0	0	28875	27460	161885	27114	1077258	46994	110732	0	0	8011	615566	0	0
2024-08-31 06:21:47			0	36160	0	0	0	28877	27460	161849	27180	1077231	46983	110733	0	0	8010	616277	0	0
2024-08-31 06:22:47			0	36157	0	0	0	28870	27460	161901	27275	1077231	46994	110730	0	0	8010	616403	0	0
2024-08-31 06:23:47			0	36169	0	0	0	28864	27450	161953	27232	1077222	46983	110728	0	0	8011	615936	0	0
2024-08-31 06:24:47			0	36171	0	0	0	28862	27440	161985	27038	1077284	46992	110727	0	0	8011	615888	0	0
2024-08-31 06:25:47			0	36148	0	0	0	28849	27450	162053	27067	1077249	46994	110722	0	0	8010	616815	0	0
2024-08-31 06:26:47			0	36127	0	0	0	28844	27450	161997	27098	1077213	46982	110720	0	0	8009	617694	0	0
2024-08-31 06:27:47			0	36137	0	0	0	28841	27450	162125	27228	1077195	46971	110719	0	0	8009	617275	0	0
2024-08-31 06:28:47			0	36150	0	0	0	28849	27450	162073	27312	1077159	46982	110722	0	0	8010	616731	0	0
2024-08-31 06:29:47			0	36120	0	0	0	28849	27450	162057	27142	1077213	46993	110722	0	0	8008	617988	0	0
2024-08-31 06:30:47			0	36118	0	0	0	28844	27450	162053	27119	1077159	46982	110720	0	0	8008	618071	0	0
2024-08-31 06:31:47			0	36113	0	0	0	28851	27450	162101	26896	1077195	46983	110723	0	0	8008	618281	0	0
2024-08-31 06:32:47			0	36121	0	0	0	28846	27440	162149	27001	1077150	46958	110721	0	0	8008	617981	0	0
2024-08-31 06:33:47			0	36123	0	0	0	28836	27430	162189	27471	1077051	46969	110717	0	0	8008	617933	0	0
2024-08-31 06:34:47			0	36128	0	0	0	28828	27430	162149	27001	1077069	46980	110714	0	0	8009	617723	0	0
2024-08-31 06:35:47			0	36119	0	0	0	28815	27420	162097	27256	1076943	46957	110709	0	0	8009	618136	0	0
2024-08-31 06:36:47			0	36125	0	0	0	28799	27420	162077	27293	1076943	46957	110703	0	0	8009	617885	0	0
2024-08-31 06:37:47			0	36126	0	0	0	28789	27410	162073	27157	1076853	46945	110699	0	0	8009	617878	0	0
2024-08-31 06:38:47			0	36138	0	0	0	28766	27390	162073	26930	1076816	46976	110690	0	0	8010	617446	0	0
2024-08-31 06:39:47			0	36142	0	0	0	28750	27390	161977	27291	1076754	46964	110684	0	0	8011	617279	0	0
2024-08-31 06:40:47			0	36145	0	0	0	28748	27370	162093	27234	1076726	46974	110683	0	0	8011	617224	0	0
2024-08-31 06:41:47			0	36159	0	0	0	28748	27370	161945	27213	1076753	46962	110683	0	0	8012	616638	0	0
2024-08-31 06:42:47			0	36161	0	0	0	28776	27370	162113	27538	1076673	46985	110694	0	0	8011	616554	0	0
2024-08-31 06:43:47			0	36160	0	0	0	28766	27370	162001	27421	1076690	46974	110690	0	0	8012	616596	0	0
2024-08-31 06:44:47			0	36164	0	0	0	28745	27360	162073	27246	1076628	46973	110682	0	0	8012	616464	0	0
2024-08-31 06:45:47			0	36159	0	0	0	28745	27350	162073	27059	1076547	46950	110682	0	0	8012	616709	0	0
2024-08-31 06:46:47			0	36166	0	0	0	28755	27350	161933	27232	1076502	46960	110686	0	0	8012	616416	0	0
2024-08-31 06:47:47			0	36188	0	0	0	28776	27340	161913	27336	1076555	46958	110694	0	0	8013	615531	0	0
2024-08-31 06:48:47			0	36191	0	0	0	28794	27330	161945	27415	1076618	46969	110701	0	0	8013	615441	0	0
2024-08-31 06:49:47			0	36194	0	0	0	28807	27330	161997	27168	1076600	46991	110706	0	0	8013	615316	0	0
2024-08-31 06:50:47			0	36182	0	0	0	28812	27340	161993	27256	1076663	46970	110708	0	0	8012	615782	0	0
2024-08-31 06:51:47			0	36178	0	0	0	28810	27350	161933	27343	1076654	46972	110707	0	0	8012	615914	0	0
2024-08-31 06:52:47			0	36185	0	0	0	28815	27350	161833	27268	1076654	46960	110709	0	0	8012	615621	0	0
2024-08-31 06:53:47			0	36185	0	0	0	28815	27350	162001	27467	1076762	46972	110709	0	0	8012	615621	0	0
2024-08-31 06:54:47			0	36173	0	0	0	28818	27350	162049	27429	1076789	46983	110710	0	0	8011	616123	0	0
2024-08-31 06:55:47			0	36169	0	0	0	28820	27350	162025	26842	1076825	46983	110711	0	0	8011	616290	0	0
2024-08-31 06:56:47			0	36153	0	0	0	28823	27370	162105	27163	1076879	46985	110712	0	0	8010	616889	0	0
2024-08-31 06:57:47			0	36139	0	0	0	28828	27370	162149	26915	1076807	46985	110714	0	0	8009	617475	0	0
2024-08-31 06:58:47			0	36136	0	0	0	28815	27370	162185	27092	1076888	46985	110709	0	0	8009	617601	0	0
2024-08-31 06:59:47			0	36117	0	0	0	28823	27360	162309	27371	1076897	46995	110712	0	0	8008	618433	0	0
2024-08-31 07:00:47			0	36100	0	0	0	28815	27380	162309	27209	1076924	46996	110709	0	0	8007	619075	0	0
2024-08-31 07:01:47			0	36106	0	0	0	28794	27370	162341	27213	1076888	47007	110701	0	0	8008	618859	0	0
2024-08-31 07:02:47			0	36078	0	0	0	28792	27390	162337	27222	1076924	46998	110700	0	0	8006	619964	0	0
2024-08-31 07:03:47			0	36065	0	0	0	28794	27380	162437	27086	1076906	46975	110701	0	0	8005	620545	0	0
2024-08-31 07:04:47			0	36060	0	0	0	28799	27390	162489	27272	1076861	46987	110703	0	0	8005	620720	0	0
2024-08-31 07:05:47			0	36034	0	0	0	28763	27370	162581	26981	1076717	46974	110689	0	0	8004	621885	0	0
2024-08-31 07:06:47			0	36024	0	0	0	28735	27360	162685	26887	1076628	46961	110678	0	0	8004	622342	0	0
2024-08-31 07:07:47			0	36008	0	0	0	28729	27350	162737	27123	1076574	46960	110676	0	0	8003	623052	0	0
2024-08-31 07:08:47			0	35982	0	0	0	28716	27340	162781	27364	1076475	46936	110671	0	0	8002	624185	0	0
2024-08-31 07:09:47			0	35986	0	0	0	28685	27330	162789	27126	1076439	46935	110659	0	0	8002	624052	0	0
2024-08-31 07:10:47			0	35989	0	0	0	28649	27320	162801	27230	1076385	46946	110645	0	0	8003	623961	0	0
2024-08-31 07:11:47			0	35983	0	0	0	28620	27310	162741	27197	1076286	46945	110634	0	0	8003	624250	0	0
2024-08-31 07:12:47			0	35979	0	0	0	28612	27300	162873	27076	1076214	46955	110631	0	0	8003	624455	0	0
2024-08-31 07:13:47			0	35923	0	0	0	28594	27280	163065	27315	1076133	46954	110624	0	0	8000	626895	0	0
2024-08-31 07:14:47			0	35844	0	0	0	28586	27270	163352	27119	1076132	46951	110621	0	0	7995	630284	0	0
2024-08-31 07:15:47			0	35791	0	0	0	28568	27260	163768	27149	1076096	46961	110614	0	0	7992	632576	0	0
2024-08-31 07:16:47			0	35722	0	0	0	28558	27250	163984	27272	1075971	46950	110610	0	0	7988	635559	0	0
2024-08-31 07:17:47			0	35675	0	0	0	28558	27240	164220	27333	1075943	46938	110610	0	0	7985	637608	0	0
2024-08-31 07:18:47			0	35629	0	0	0	28555	27230	164404	27338	1075881	46948	110609	0	0	7982	639619	0	0
2024-08-31 07:19:47			0	35581	0	0	0	28540	27230	164668	27133	1075818	46947	110603	0	0	7979	641684	0	0
2024-08-31 07:20:47			0	35521	0	0	0	28532	27210	165060	27215	1075818	46946	110600	0	0	7976	644347	0	0
2024-08-31 07:21:47			0	35490	0	0	0	28532	27200	165176	27015	1075799	46944	110600	0	0	7974	645724	0	0
2024-08-31 07:22:47			0	35437	0	0	0	28524	27200	165392	27010	1075746	46944	110597	0	0	7971	648020	0	0
2024-08-31 07:23:47			0	35407	0	0	0	28527	27180	165596	27128	1075692	46954	110598	0	0	7969	649397	0	0
2024-08-31 07:24:47			0	35386	0	0	0	28522	27180	165780	27114	1075665	46943	110596	0	0	7967	650310	0	0
2024-08-31 07:25:47			0	35349	0	0	0	28529	27170	165816	27045	1075718	46964	110599	0	0	7965	651959	0	0
2024-08-31 07:26:47			0	35355	0	0	0	28555	27180	165852	27131	1075763	46942	110609	0	0	7965	651660	0	0
2024-08-31 07:27:47			0	35358	0	0	0	28615	27180	165912	27234	1075790	46975	110632	0	0	7964	651529	0	0
2024-08-31 07:28:47			0	35350	0	0	0	28633	27190	165828	27171	1075862	46989	110639	0	0	7963	651840	0	0
2024-08-31 07:29:47			0	35386	0	0	0	28649	27190	165804	26982	1075871	46966	110645	0	0	7965	650273	0	0
2024-08-31 07:30:47			0	35381	0	0	0	28670	27200	165736	27078	1075970	46978	110653	0	0	7965	650453	0	0
2024-08-31 07:31:47			0	35405	0	0	0	28709	27200	165752	26828	1076095	46989	110668	0	0	7966	649410	0	0
2024-08-31 07:32:47			0	35421	0	0	0	28701	27220	165664	27005	1076105	47002	110665	0	0	7967	648640	0	0
2024-08-31 07:33:47			0	35439	0	0	0	28680	27230	165556	26930	1076203	46993	110657	0	0	7968	647822	0	0
2024-08-31 07:34:47			0	35443	0	0	0	28670	27240	165472	26840	1076213	47015	110653	0	0	7969	647611	0	0
2024-08-31 07:35:47			0	35443	0	0	0	28667	27230	165524	27194	1076203	46970	110652	0	0	7969	647648	0	0
2024-08-31 07:36:47			0	35444	0	0	0	28667	27240	165440	27341	1076168	46971	110652	0	0	7969	647568	0	0
2024-08-31 07:37:47			0	35420	0	0	0	28662	27240	165592	27161	1076186	46971	110650	0	0	7968	648609	0	0
2024-08-31 07:38:47			0	35428	0	0	0	28659	27240	165564	27251	1076114	46971	110649	0	0	7968	648262	0	0
2024-08-31 07:39:47			0	35409	0	0	0	28664	27240	165560	26955	1076114	46949	110651	0	0	7967	649087	0	0
2024-08-31 07:40:47			0	35410	0	0	0	28670	27240	165584	27121	1076078	46982	110653	0	0	7967	649043	0	0
2024-08-31 07:41:47			0	35401	0	0	0	28675	27240	165600	26944	1076141	46960	110655	0	0	7966	649434	0	0
2024-08-31 07:42:47			0	35410	0	0	0	28685	27240	165592	26906	1076141	46971	110659	0	0	7966	649043	0	0
2024-08-31 07:43:47			0	35399	0	0	0	28680	27250	165604	27003	1076177	46971	110657	0	0	7966	649484	0	0
2024-08-31 07:44:47			0	35411	0	0	0	28693	27240	165632	26989	1076195	46949	110662	0	0	7966	649000	0	0
2024-08-31 07:45:47			0	35404	0	0	0	28698	27250	165712	27261	1076204	46982	110664	0	0	7966	649267	0	0
2024-08-31 07:46:47			0	35420	0	0	0	28701	27250	165588	26883	1076240	46983	110665	0	0	7967	648572	0	0
2024-08-31 07:47:47			0	35423	0	0	0	28716	27260	165452	27007	1076339	46984	110671	0	0	7967	648404	0	0
2024-08-31 07:48:47			0	35433	0	0	0	28722	27260	165496	26975	1076312	46973	110673	0	0	7967	647971	0	0
2024-08-31 07:49:47			0	35441	0	0	0	28724	27270	165332	26830	1076321	46973	110674	0	0	7968	647586	0	0
2024-08-31 07:50:47			0	35450	0	0	0	28724	27280	165376	26857	1076393	46986	110674	0	0	7969	647159	0	0
2024-08-31 07:51:47			0	35469	0	0	0	28727	27280	165292	27206	1076402	46999	110675	0	0	7970	646336	0	0
2024-08-31 07:52:47			0	35467	0	0	0	28732	27290	165280	27192	1076438	46976	110677	0	0	7969	646386	0	0
2024-08-31 07:53:47			0	35478	0	0	0	28753	27290	165232	27069	1076465	46999	110685	0	0	7970	645909	0	0
2024-08-31 07:54:47			0	35497	0	0	0	28763	27300	165124	27149	1076456	46988	110689	0	0	7971	645050	0	0
2024-08-31 07:55:47			0	35506	0	0	0	28761	27310	165020	27039	1076474	46989	110688	0	0	7972	644624	0	0
2024-08-31 07:56:47			0	35533	0	0	0	28761	27300	164996	27194	1076546	46989	110688	0	0	7973	643495	0	0
2024-08-31 07:57:47			0	35531	0	0	0	28771	27310	164904	27338	1076591	46978	110692	0	0	7973	643545	0	0
2024-08-31 07:58:47			0	35551	0	0	0	28761	27320	164844	27053	1076627	46979	110688	0	0	7974	642645	0	0
2024-08-31 07:59:47			0	35555	0	0	0	28742	27310	164968	27130	1076483	46956	110681	0	0	7975	642510	0	0
2024-08-31 08:00:47			0	35580	0	0	0	28737	27320	164756	27131	1076582	46958	110679	0	0	7977	641396	0	0
2024-08-31 08:01:47			0	35589	0	0	0	28711	27320	164620	27138	1076519	46957	110669	0	0	7978	641008	0	0
2024-08-31 08:02:47			0	35586	0	0	0	28722	27310	164656	27147	1076528	46967	110673	0	0	7977	641174	0	0
2024-08-31 08:03:47			0	35616	0	0	0	28719	27310	164540	27098	1076456	46978	110672	0	0	7979	639884	0	0
2024-08-31 08:04:47			0	35632	0	0	0	28711	27300	164520	27135	1076510	46966	110669	0	0	7980	639233	0	0
2024-08-31 08:05:47			0	35622	0	0	0	28711	27310	164492	27260	1076447	46967	110669	0	0	7979	639626	0	0
2024-08-31 08:06:47			0	35652	0	0	0	28698	27300	164456	27170	1076438	46967	110664	0	0	7982	638375	0	0
2024-08-31 08:07:47			0	35656	0	0	0	28690	27300	164312	26880	1076411	46978	110661	0	0	7982	638203	0	0
2024-08-31 08:08:47			0	35667	0	0	0	28703	27300	164304	27282	1076348	46944	110666	0	0	7982	637732	0	0
2024-08-31 08:09:47			0	35678	0	0	0	28714	27290	164236	27152	1076447	46965	110670	0	0	7983	637297	0	0
2024-08-31 08:10:47			0	35693	0	0	0	28722	27290	164108	26871	1076420	46965	110673	0	0	7984	636654	0	0
2024-08-31 08:11:47			0	35729	0	0	0	28688	27300	164036	27145	1076429	46977	110660	0	0	7986	635077	0	0
2024-08-31 08:12:47			0	35714	0	0	0	28693	27280	164172	27027	1076375	46943	110662	0	0	7985	635792	0	0
2024-08-31 08:13:47			0	35738	0	0	0	28703	27290	164032	27093	1076330	46965	110666	0	0	7987	634729	0	0
2024-08-31 08:14:47			0	35755	0	0	0	28701	27290	163892	27157	1076384	46976	110665	0	0	7988	634003	0	0
2024-08-31 08:15:47			0	35758	0	0	0	28696	27290	163916	27187	1076393	46965	110663	0	0	7988	633875	0	0
2024-08-31 08:16:47			0	35758	0	0	0	28703	27290	163904	27206	1076447	46965	110666	0	0	7988	633875	0	0
2024-08-31 08:17:47			0	35757	0	0	0	28703	27290	163840	27298	1076420	46976	110666	0	0	7988	633918	0	0
2024-08-31 08:18:47			0	35767	0	0	0	28709	27300	163908	27405	1076456	46955	110668	0	0	7988	633455	0	0
2024-08-31 08:19:47			0	35766	0	0	0	28716	27290	163800	27019	1076447	46976	110671	0	0	7988	633534	0	0
2024-08-31 08:20:47			0	35793	0	0	0	28714	27300	163764	26935	1076456	46966	110670	0	0	7990	632346	0	0
2024-08-31 08:21:47			0	35806	0	0	0	28716	27290	163728	26984	1076447	46965	110671	0	0	7991	631828	0	0
2024-08-31 08:22:47			0	35798	0	0	0	28711	27300	163732	27242	1076402	46966	110669	0	0	7990	632133	0	0
2024-08-31 08:23:47			0	35805	0	0	0	28722	27300	163676	27036	1076483	46955	110673	0	0	7990	631835	0	0
2024-08-31 08:24:47			0	35805	0	0	0	28722	27300	163820	26982	1076465	46956	110673	0	0	7990	631835	0	0
2024-08-31 08:25:47			0	35808	0	0	0	28716	27290	163704	26932	1076411	46976	110671	0	0	7991	631743	0	0
2024-08-31 08:26:47			0	35826	0	0	0	28714	27300	163664	27346	1076492	46967	110670	0	0	7992	630941	0	0
2024-08-31 08:27:47			0	35833	0	0	0	28703	27300	163596	27317	1076411	46978	110666	0	0	7992	630643	0	0
2024-08-31 08:28:47			0	35838	0	0	0	28709	27300	163528	27438	1076483	46966	110668	0	0	7993	630430	0	0
2024-08-31 08:29:47			0	35854	0	0	0	28698	27300	163513	27289	1076429	46966	110664	0	0	7994	629750	0	0
2024-08-31 08:30:47			0	35851	0	0	0	28672	27300	163440	26837	1076429	46955	110654	0	0	7994	629878	0	0
2024-08-31 08:31:47			0	35873	0	0	0	28677	27300	163389	26949	1076402	46955	110656	0	0	7995	628943	0	0
2024-08-31 08:32:47			0	35851	0	0	0	28662	27280	163404	27242	1076348	46954	110650	0	0	7994	629950	0	0
2024-08-31 08:33:47			0	35850	0	0	0	28662	27290	163576	27256	1076303	46965	110650	0	0	7994	629956	0	0
2024-08-31 08:34:47			0	35866	0	0	0	28636	27280	163381	27455	1076294	46954	110640	0	0	7996	629313	0	0
2024-08-31 08:35:47			0	35870	0	0	0	28628	27280	163441	27478	1076204	46942	110637	0	0	7996	629143	0	0
2024-08-31 08:36:47			0	35861	0	0	0	28646	27270	163572	27348	1076195	46952	110644	0	0	7995	629561	0	0
2024-08-31 08:37:47			0	35867	0	0	0	28657	27270	163429	27140	1076240	46973	110648	0	0	7995	629306	0	0
2024-08-31 08:38:47			0	35862	0	0	0	28641	27260	163432	27239	1076204	46951	110642	0	0	7995	629555	0	0
2024-08-31 08:39:47			0	35875	0	0	0	28620	27260	163417	26908	1076204	46940	110634	0	0	7996	629003	0	0
2024-08-31 08:40:47			0	35889	0	0	0	28615	27260	163301	27118	1076060	46951	110632	0	0	7997	628409	0	0
2024-08-31 08:41:47			0	35864	0	0	0	28628	27240	163333	27445	1076060	46949	110637	0	0	7995	629542	0	0
2024-08-31 08:42:47			0	35859	0	0	0	28612	27240	163425	27114	1076024	46938	110631	0	0	7995	629755	0	0
2024-08-31 08:43:47			0	35863	0	0	0	28623	27240	163393	27272	1076105	46949	110635	0	0	7995	629585	0	0
2024-08-31 08:44:47			0	35837	0	0	0	28662	27240	163492	26759	1076132	46960	110650	0	0	7993	630690	0	0
2024-08-31 08:45:47			0	35827	0	0	0	28685	27230	163620	26892	1076177	46970	110659	0	0	7992	631152	0	0
2024-08-31 08:46:47			0	35834	0	0	0	28693	27260	163476	27086	1076195	46996	110662	0	0	7993	630745	0	0
2024-08-31 08:47:47			0	35844	0	0	0	28711	27260	163528	27327	1076303	46973	110669	0	0	7993	630320	0	0
2024-08-31 08:48:47			0	35841	0	0	0	28719	27270	163584	27031	1076384	46997	110672	0	0	7993	630411	0	0
2024-08-31 08:49:47			0	35862	0	0	0	28742	27270	163516	26958	1076410	46985	110681	0	0	7993	629519	0	0
2024-08-31 08:50:47			0	35869	0	0	0	28740	27280	163537	27305	1076455	46976	110680	0	0	7994	629185	0	0
2024-08-31 08:51:47			0	35868	0	0	0	28748	27280	163477	27150	1076455	46987	110683	0	0	7994	629228	0	0
2024-08-31 08:52:47			0	35864	0	0	0	28753	27300	163477	27156	1076456	46977	110685	0	0	7994	629326	0	0
2024-08-31 08:53:47			0	35848	0	0	0	28748	27300	163476	27041	1076537	46977	110683	0	0	7993	630005	0	0
2024-08-31 08:54:47			0	35866	0	0	0	28748	27300	163432	26982	1076573	46978	110683	0	0	7994	629240	0	0
2024-08-31 08:55:47			0	35850	0	0	0	28737	27310	163428	27178	1076501	46978	110679	0	0	7993	629884	0	0
2024-08-31 08:56:47			0	35838	0	0	0	28737	27310	163500	26824	1076555	46978	110679	0	0	7992	630394	0	0
2024-08-31 08:57:47			0	35851	0	0	0	28737	27320	163436	26729	1076546	46968	110679	0	0	7993	629805	0	0
2024-08-31 08:58:47			0	35876	0	0	0	28753	27310	163557	27024	1076609	46978	110685	0	0	7994	628780	0	0
2024-08-31 08:59:47			0	35849	0	0	0	28758	27310	163568	26845	1076618	46978	110687	0	0	7993	629927	0	0
2024-08-31 09:00:47			0	35847	0	0	0	28755	27320	163552	27088	1076627	46990	110686	0	0	7993	629975	0	0
2024-08-31 09:01:47			0	35850	0	0	0	28758	27320	163516	27060	1076627	46979	110687	0	0	7993	629848	0	0
2024-08-31 09:02:47			0	35831	0	0	0	28755	27330	163684	27206	1076654	46958	110686	0	0	7992	630619	0	0
2024-08-31 09:03:47			0	35861	0	0	0	28748	27330	163565	27197	1076681	46969	110683	0	0	7994	629344	0	0
2024-08-31 09:04:47			0	35842	0	0	0	28732	27330	163536	27256	1076681	46969	110677	0	0	7993	630152	0	0
2024-08-31 09:05:47			0	35854	0	0	0	28732	27330	163540	27088	1076627	46969	110677	0	0	7993	629642	0	0
2024-08-31 09:06:47			0	35836	0	0	0	28735	27330	163504	27178	1076600	46969	110678	0	0	7992	630407	0	0
2024-08-31 09:07:47			0	35841	0	0	0	28737	27330	163524	27415	1076645	46969	110679	0	0	7993	630194	0	0
2024-08-31 09:08:47			0	35846	0	0	0	28742	27330	163464	26890	1076627	46980	110681	0	0	7993	629982	0	0
2024-08-31 09:09:47			0	35850	0	0	0	28742	27340	163444	27053	1076609	46981	110681	0	0	7993	629775	0	0
2024-08-31 09:10:47			0	35879	0	0	0	28745	27340	163425	26958	1076663	46981	110682	0	0	7995	628544	0	0
2024-08-31 09:11:47			0	35859	0	0	0	28737	27330	163393	27218	1076645	46980	110679	0	0	7994	629429	0	0
2024-08-31 09:12:47			0	35871	0	0	0	28748	27340	163409	27019	1076663	46970	110683	0	0	7994	628884	0	0
2024-08-31 09:13:47			0	35875	0	0	0	28740	27330	163313	27248	1076654	46980	110680	0	0	7995	628750	0	0
2024-08-31 09:14:47			0	35878	0	0	0	28742	27350	163261	27187	1076654	46983	110681	0	0	7995	628551	0	0
2024-08-31 09:15:47			0	35886	0	0	0	28742	27340	163293	27196	1076636	46981	110681	0	0	7995	628247	0	0
2024-08-31 09:16:47			0	35881	0	0	0	28750	27330	163249	27440	1076654	46958	110684	0	0	7995	628495	0	0
2024-08-31 09:17:47			0	35899	0	0	0	28742	27340	163269	27173	1076726	46982	110681	0	0	7996	627696	0	0
2024-08-31 09:18:47			0	35919	0	0	0	28750	27330	163225	27057	1076627	46980	110684	0	0	7997	626885	0	0
2024-08-31 09:19:47			0	35919	0	0	0	28727	27340	163061	27222	1076645	46971	110675	0	0	7998	626849	0	0
2024-08-31 09:20:47			0	35951	0	0	0	28714	27340	163049	27254	1076564	46971	110670	0	0	8000	625495	0	0
2024-08-31 09:21:47			0	35973	0	0	0	28727	27330	162961	27495	1076618	46958	110675	0	0	8001	624601	0	0
2024-08-31 09:22:47			0	36007	0	0	0	28729	27330	162793	27072	1076573	46969	110676	0	0	8003	623166	0	0
2024-08-31 09:23:47			0	36034	0	0	0	28732	27340	162693	26986	1076663	46981	110677	0	0	8004	621993	0	0
2024-08-31 09:24:47			0	36057	0	0	0	28735	27340	162493	27208	1076609	46970	110678	0	0	8006	621025	0	0
2024-08-31 09:25:47			0	36104	0	0	0	28735	27330	162373	27422	1076654	46969	110678	0	0	8009	619085	0	0
2024-08-31 09:26:47			0	36105	0	0	0	28737	27330	162373	27216	1076600	46969	110679	0	0	8009	619043	0	0
2024-08-31 09:27:47			0	36108	0	0	0	28740	27330	162193	27364	1076654	46969	110680	0	0	8009	618917	0	0
2024-08-31 09:28:47			0	36156	0	0	0	28748	27330	162217	27114	1076573	46980	110683	0	0	8011	616905	0	0
2024-08-31 09:29:47			0	36154	0	0	0	28740	27340	162137	27352	1076690	46970	110680	0	0	8012	616954	0	0
2024-08-31 09:30:47			0	36178	0	0	0	28748	27330	161985	27246	1076627	46980	110683	0	0	8013	615985	0	0
2024-08-31 09:31:47			0	36185	0	0	0	28745	27340	161857	27208	1076672	46982	110682	0	0	8013	615657	0	0
2024-08-31 09:32:47			0	36192	0	0	0	28742	27340	161881	27289	1076609	46992	110681	0	0	8014	615364	0	0
2024-08-31 09:33:47			0	36208	0	0	0	28727	27340	161877	27209	1076609	46970	110675	0	0	8015	614696	0	0
2024-08-31 09:34:47			0	36203	0	0	0	28727	27330	161753	27209	1076627	46958	110675	0	0	8015	614940	0	0
2024-08-31 09:35:47			0	36237	0	0	0	28732	27320	161825	27024	1076636	46958	110677	0	0	8017	613556	0	0
2024-08-31 09:36:47			0	36235	0	0	0	28735	27340	161645	27126	1076618	46982	110678	0	0	8016	613569	0	0
2024-08-31 09:37:47			0	36260	0	0	0	28737	27330	161721	27225	1076672	46969	110679	0	0	8018	612562	0	0
2024-08-31 09:38:47			0	36262	0	0	0	28742	27330	161701	27312	1076618	46969	110681	0	0	8018	612478	0	0
2024-08-31 09:39:47			0	36279	0	0	0	28735	27330	161597	27104	1076735	46969	110678	0	0	8019	611771	0	0
2024-08-31 09:40:47			0	36269	0	0	0	28742	27340	161537	27234	1076645	46971	110681	0	0	8018	612152	0	0
2024-08-31 09:41:47			0	36285	0	0	0	28735	27330	161565	26939	1076600	46969	110678	0	0	8019	611521	0	0
2024-08-31 09:42:47			0	36270	0	0	0	28727	27330	161573	27215	1076627	46969	110675	0	0	8019	612145	0	0
2024-08-31 09:43:47			0	36302	0	0	0	28735	27330	161517	27072	1076627	46958	110678	0	0	8020	610814	0	0
2024-08-31 09:44:47			0	36312	0	0	0	28735	27330	161409	27194	1076654	46969	110678	0	0	8021	610398	0	0
2024-08-31 09:45:47			0	36301	0	0	0	28732	27340	161385	27431	1076663	46970	110677	0	0	8020	610820	0	0
2024-08-31 09:46:47			0	36314	0	0	0	28745	27330	161421	26817	1076654	46958	110682	0	0	8021	610315	0	0
2024-08-31 09:47:47			0	36309	0	0	0	28753	27340	161437	27137	1076663	46970	110685	0	0	8021	610488	0	0
2024-08-31 09:48:47			0	36309	0	0	0	28748	27340	161433	27312	1076636	46970	110683	0	0	8021	610488	0	0
2024-08-31 09:49:47			0	36311	0	0	0	28755	27340	161481	27402	1076690	46981	110686	0	0	8021	610405	0	0
2024-08-31 09:50:47			0	36314	0	0	0	28753	27340	161561	27081	1076744	46970	110685	0	0	8021	610280	0	0
2024-08-31 09:51:47			0	36296	0	0	0	28763	27350	161389	26927	1076735	46983	110689	0	0	8020	610993	0	0
2024-08-31 09:52:47			0	36323	0	0	0	28758	27340	161469	27168	1076780	46982	110687	0	0	8021	609906	0	0
2024-08-31 09:53:47			0	36317	0	0	0	28755	27350	161293	27203	1076744	46972	110686	0	0	8021	610120	0	0
2024-08-31 09:54:47			0	36316	0	0	0	28766	27350	161269	27126	1076708	46972	110690	0	0	8021	610162	0	0
2024-08-31 09:55:47			0	36323	0	0	0	28761	27340	161389	27329	1076753	46971	110688	0	0	8021	609906	0	0
2024-08-31 09:56:47			0	36313	0	0	0	28771	27360	161329	27086	1076807	46983	110692	0	0	8021	610251	0	0
2024-08-31 09:57:47			0	36315	0	0	0	28771	27350	161345	27277	1076771	46994	110692	0	0	8021	610203	0	0
2024-08-31 09:58:47			0	36318	0	0	0	28774	27360	161381	27171	1076726	46983	110693	0	0	8021	610044	0	0
2024-08-31 09:59:47			0	36347	0	0	0	28771	27360	161349	27253	1076780	46972	110692	0	0	8023	608840	0	0
2024-08-31 10:00:47			0	36327	0	0	0	28774	27360	161385	27208	1076780	46972	110693	0	0	8021	609670	0	0
2024-08-31 10:01:47			0	36328	0	0	0	28768	27360	161329	26875	1076789	46961	110691	0	0	8022	609628	0	0
2024-08-31 10:02:47			0	36329	0	0	0	28771	27360	161429	26942	1076762	46984	110692	0	0	8022	609587	0	0
2024-08-31 10:03:47			0	36327	0	0	0	28768	27360	161513	27303	1076780	46972	110691	0	0	8022	609670	0	0
2024-08-31 10:04:47			0	36328	0	0	0	28763	27360	161509	27107	1076726	46972	110689	0	0	8022	609628	0	0
2024-08-31 10:05:47			0	36304	0	0	0	28768	27350	161389	27287	1076798	46994	110691	0	0	8020	610660	0	0
2024-08-31 10:06:47			0	36329	0	0	0	28774	27350	161481	27209	1076798	46960	110693	0	0	8021	609622	0	0
2024-08-31 10:07:47			0	36304	0	0	0	28774	27370	161433	27175	1076834	46985	110693	0	0	8020	610590	0	0
2024-08-31 10:08:47			0	36327	0	0	0	28771	27360	161441	27386	1076816	46961	110692	0	0	8021	609670	0	0
2024-08-31 10:09:47			0	36316	0	0	0	28771	27370	161433	27237	1076861	46974	110692	0	0	8021	610092	0	0
2024-08-31 10:10:47			0	36312	0	0	0	28781	27370	161549	27171	1076834	46974	110696	0	0	8020	610258	0	0
2024-08-31 10:11:47			0	36304	0	0	0	28771	27360	161429	27355	1076816	46973	110692	0	0	8020	610625	0	0
2024-08-31 10:12:47			0	36319	0	0	0	28763	27370	161569	27232	1076798	46962	110689	0	0	8021	609967	0	0
2024-08-31 10:13:47			0	36320	0	0	0	28758	27370	161549	27365	1076780	46974	110687	0	0	8021	609926	0	0
2024-08-31 10:14:47			0	36315	0	0	0	28758	27370	161521	27154	1076798	46962	110687	0	0	8021	610133	0	0
2024-08-31 10:15:47			0	36321	0	0	0	28748	27360	161533	27286	1076807	46972	110683	0	0	8022	609919	0	0
2024-08-31 10:16:47			0	36315	0	0	0	28732	27350	161457	27343	1076717	46960	110677	0	0	8021	610203	0	0
2024-08-31 10:17:47			0	36305	0	0	0	28711	27340	161445	27178	1076618	46971	110669	0	0	8021	610654	0	0
2024-08-31 10:18:47			0	36293	0	0	0	28706	27350	161549	27039	1076690	46972	110667	0	0	8020	611118	0	0
2024-08-31 10:19:47			0	36258	0	0	0	28690	27340	161725	27289	1076591	46949	110661	0	0	8019	612610	0	0
2024-08-31 10:20:47			0	36230	0	0	0	28698	27320	161789	27486	1076573	46946	110664	0	0	8017	613848	0	0
2024-08-31 10:21:47			0	36221	0	0	0	28693	27330	162017	27685	1076546	46969	110662	0	0	8016	614188	0	0
2024-08-31 10:22:47			0	36200	0	0	0	28693	27320	161993	27429	1076492	46957	110662	0	0	8015	615100	0	0
2024-08-31 10:23:47			0	36174	0	0	0	28688	27310	162077	27303	1076483	46945	110660	0	0	8013	616223	0	0
2024-08-31 10:24:47			0	36177	0	0	0	28683	27320	162117	27459	1076546	46979	110658	0	0	8014	616062	0	0
2024-08-31 10:25:47			0	36164	0	0	0	28693	27320	162157	27483	1076546	46957	110662	0	0	8013	616606	0	0
2024-08-31 10:26:47			0	36161	0	0	0	28690	27310	162173	27192	1076483	46967	110661	0	0	8013	616767	0	0
2024-08-31 10:27:47			0	36147	0	0	0	28701	27310	162169	27150	1076474	46956	110665	0	0	8012	617353	0	0
2024-08-31 10:28:47			0	36152	0	0	0	28688	27310	162177	26984	1076501	46956	110660	0	0	8012	617144	0	0
2024-08-31 10:29:47			0	36145	0	0	0	28698	27310	162229	27261	1076555	46967	110664	0	0	8012	617437	0	0
2024-08-31 10:30:47			0	36133	0	0	0	28698	27310	162349	27293	1076528	46967	110664	0	0	8011	617940	0	0
2024-08-31 10:31:47			0	36119	0	0	0	28709	27300	162325	27298	1076465	46956	110668	0	0	8010	618563	0	0
2024-08-31 10:32:47			0	36120	0	0	0	28724	27310	162337	27490	1076528	46967	110674	0	0	8010	618485	0	0
2024-08-31 10:33:47			0	36147	0	0	0	28724	27310	162321	27358	1076564	46978	110674	0	0	8011	617353	0	0
2024-08-31 10:34:47			0	36139	0	0	0	28716	27310	162329	27008	1076582	46989	110671	0	0	8011	617688	0	0
2024-08-31 10:35:47			0	36144	0	0	0	28722	27310	162357	27280	1076501	46967	110673	0	0	8011	617479	0	0
2024-08-31 10:36:47			0	36130	0	0	0	28729	27310	162261	27251	1076528	46978	110676	0	0	8010	618066	0	0
2024-08-31 10:37:47			0	36139	0	0	0	28722	27320	162225	27293	1076546	46979	110673	0	0	8011	617653	0	0
2024-08-31 10:38:47			0	36130	0	0	0	28737	27320	162265	27322	1076582	46969	110679	0	0	8010	618030	0	0
2024-08-31 10:39:47			0	36134	0	0	0	28740	27320	162273	27357	1076600	46990	110680	0	0	8010	617862	0	0
2024-08-31 10:40:47			0	36141	0	0	0	28753	27330	162309	27168	1076645	46980	110685	0	0	8010	617534	0	0
2024-08-31 10:41:47			0	36143	0	0	0	28761	27330	162369	27345	1076645	46969	110688	0	0	8010	617450	0	0
2024-08-31 10:42:47			0	36142	0	0	0	28768	27340	162221	27303	1076672	46993	110691	0	0	8010	617456	0	0
2024-08-31 10:43:47			0	36138	0	0	0	28781	27330	162225	27137	1076762	46991	110696	0	0	8010	617659	0	0
2024-08-31 10:44:47			0	36136	0	0	0	28776	27340	162237	27067	1076780	46993	110694	0	0	8010	617708	0	0
2024-08-31 10:45:47			0	36159	0	0	0	28784	27350	162161	27256	1076825	46994	110697	0	0	8011	616709	0	0
2024-08-31 10:46:47			0	36159	0	0	0	28792	27350	162181	27185	1076825	47005	110700	0	0	8011	616709	0	0
2024-08-31 10:47:47			0	36151	0	0	0	28799	27360	162237	27393	1076861	46994	110703	0	0	8010	617008	0	0
2024-08-31 10:48:47			0	36169	0	0	0	28810	27360	162089	27409	1076897	46973	110707	0	0	8011	616255	0	0
2024-08-31 10:49:47			0	36181	0	0	0	28805	27370	162009	27033	1076879	46985	110705	0	0	8012	615718	0	0
2024-08-31 10:50:47			0	36188	0	0	0	28812	27370	162017	27164	1076906	46985	110708	0	0	8012	615425	0	0
2024-08-31 10:51:47			0	36179	0	0	0	28815	27380	161957	27272	1076960	46975	110709	0	0	8012	615766	0	0
2024-08-31 10:52:47			0	36211	0	0	0	28812	27380	161961	27131	1076987	46986	110708	0	0	8014	614429	0	0
2024-08-31 10:53:47			0	36218	0	0	0	28812	27380	161933	27187	1076951	46996	110708	0	0	8014	614137	0	0
2024-08-31 10:54:47			0	36208	0	0	0	28810	27390	162001	26786	1077005	46987	110707	0	0	8014	614519	0	0
2024-08-31 10:55:47			0	36232	0	0	0	28812	27400	161849	27072	1077041	46998	110708	0	0	8015	613482	0	0
2024-08-31 10:56:47			0	36220	0	0	0	28807	27400	161877	27235	1077095	46987	110706	0	0	8015	613983	0	0
2024-08-31 10:57:47			0	36234	0	0	0	28820	27400	161733	26902	1077050	46977	110711	0	0	8015	613399	0	0
2024-08-31 10:58:47			0	36235	0	0	0	28831	27400	161693	27105	1077077	46965	110715	0	0	8015	613357	0	0
2024-08-31 10:59:47			0	36245	0	0	0	28836	27410	161689	27194	1077140	47000	110717	0	0	8016	612905	0	0
2024-08-31 11:00:47			0	36261	0	0	0	28857	27400	161597	26979	1077185	46977	110725	0	0	8016	612274	0	0
2024-08-31 11:01:47			0	36288	0	0	0	28862	27420	161665	27246	1077158	47000	110727	0	0	8018	611080	0	0
2024-08-31 11:02:47			0	36273	0	0	0	28864	27420	161501	27229	1077221	46990	110728	0	0	8017	611704	0	0
2024-08-31 11:03:47			0	36302	0	0	0	28872	27420	161441	27270	1077275	46979	110731	0	0	8019	610498	0	0
2024-08-31 11:04:47			0	36304	0	0	0	28883	27430	161461	27308	1077266	46992	110735	0	0	8019	610380	0	0
2024-08-31 11:05:47			0	36323	0	0	0	28880	27440	161381	27010	1077302	47002	110734	0	0	8020	609556	0	0
2024-08-31 11:06:47			0	36329	0	0	0	28877	27450	161265	27590	1077383	47005	110733	0	0	8020	609272	0	0
2024-08-31 11:07:47			0	36360	0	0	0	28888	27450	161177	27007	1077293	46993	110737	0	0	8022	607986	0	0
2024-08-31 11:08:47			0	36352	0	0	0	28906	27460	161197	27218	1077392	47005	110744	0	0	8021	608283	0	0
2024-08-31 11:09:47			0	36366	0	0	0	28922	27470	161185	27093	1077383	46995	110750	0	0	8022	607668	0	0
2024-08-31 11:10:47			0	36377	0	0	0	28927	27460	161073	27064	1077446	47005	110752	0	0	8022	607247	0	0
2024-08-31 11:11:47			0	36386	0	0	0	28932	27470	161013	27170	1077554	46985	110754	0	0	8023	606840	0	0
2024-08-31 11:12:47			0	36384	0	0	0	28937	27480	161017	27429	1077599	46997	110756	0	0	8023	606888	0	0
2024-08-31 11:13:47			0	36402	0	0	0	28940	27490	160885	27192	1077554	46997	110757	0	0	8024	606108	0	0
2024-08-31 11:14:47			0	36421	0	0	0	28945	27490	160961	27012	1077590	46998	110759	0	0	8025	605323	0	0
2024-08-31 11:15:47			0	36411	0	0	0	28950	27510	160881	27306	1077698	47010	110761	0	0	8024	605666	0	0
2024-08-31 11:16:47			0	36430	0	0	0	28953	27510	160809	27223	1077707	47000	110762	0	0	8025	604882	0	0
2024-08-31 11:17:47			0	36445	0	0	0	28945	27510	160849	27039	1077680	47000	110759	0	0	8026	604263	0	0
2024-08-31 11:18:47			0	36441	0	0	0	28935	27530	160737	27287	1077725	47000	110755	0	0	8026	604358	0	0
2024-08-31 11:19:47			0	36451	0	0	0	28937	27530	160661	27412	1077752	46978	110756	0	0	8027	603946	0	0
2024-08-31 11:20:47			0	36466	0	0	0	28948	27520	160581	27298	1077689	47000	110760	0	0	8028	603362	0	0
2024-08-31 11:21:47			0	36518	0	0	0	28945	27520	160541	27296	1077689	46989	110759	0	0	8031	601222	0	0
2024-08-31 11:22:47			0	36500	0	0	0	28953	27530	160533	27230	1077681	46968	110762	0	0	8030	601927	0	0
2024-08-31 11:23:47			0	36508	0	0	0	28973	27530	160441	27388	1077752	47000	110770	0	0	8030	601598	0	0
2024-08-31 11:24:47			0	36538	0	0	0	28992	27540	160393	27150	1077834	47002	110777	0	0	8031	600331	0	0
2024-08-31 11:25:47			0	36542	0	0	0	28997	27540	160309	27265	1077861	46992	110779	0	0	8031	600166	0	0
2024-08-31 11:26:47			0	36552	0	0	0	29020	27560	160189	27533	1077915	47003	110788	0	0	8032	599687	0	0
2024-08-31 11:27:47			0	36563	0	0	0	29015	27560	160189	27194	1077942	47003	110786	0	0	8032	599236	0	0
2024-08-31 11:28:47			0	36562	0	0	0	29020	27560	160157	27076	1077978	47016	110788	0	0	8032	599277	0	0
2024-08-31 11:29:47			0	36568	0	0	0	29033	27580	160097	26994	1078059	46984	110793	0	0	8033	598962	0	0
2024-08-31 11:30:47			0	36561	0	0	0	29051	27580	160033	27201	1078085	47005	110800	0	0	8032	599249	0	0
2024-08-31 11:31:47			0	36562	0	0	0	29072	27590	160101	26932	1078157	46996	110808	0	0	8032	599173	0	0
2024-08-31 11:32:47			0	36575	0	0	0	29072	27600	160117	27062	1078176	47008	110808	0	0	8032	598606	0	0
2024-08-31 11:33:47			0	36588	0	0	0	29064	27600	160017	27013	1078229	47008	110805	0	0	8033	598073	0	0
2024-08-31 11:34:47			0	36604	0	0	0	29077	27610	159938	26941	1078194	47008	110810	0	0	8034	597384	0	0
2024-08-31 11:35:47			0	36624	0	0	0	29077	27610	159882	27175	1078230	46999	110810	0	0	8035	596566	0	0
2024-08-31 11:36:47			0	36634	0	0	0	29064	27620	159866	27057	1078239	47010	110805	0	0	8036	596123	0	0
2024-08-31 11:37:47			0	36645	0	0	0	29064	27620	159730	27057	1078275	47000	110805	0	0	8037	595673	0	0
2024-08-31 11:38:47			0	36689	0	0	0	29070	27630	159586	27164	1078212	47011	110807	0	0	8039	593844	0	0
2024-08-31 11:39:47			0	36721	0	0	0	29067	27630	159518	27358	1078284	47011	110806	0	0	8041	592541	0	0
2024-08-31 11:40:47			0	36729	0	0	0	29077	27630	159390	27095	1078293	47011	110810	0	0	8042	592215	0	0
2024-08-31 11:41:47			0	36762	0	0	0	29085	27640	159406	27284	1078446	47001	110813	0	0	8043	590840	0	0
2024-08-31 11:42:47			0	36760	0	0	0	29085	27650	159302	27090	1078464	47002	110813	0	0	8043	590887	0	0
2024-08-31 11:43:47			0	36786	0	0	0	29106	27650	159318	27623	1078374	47013	110821	0	0	8045	589832	0	0
2024-08-31 11:44:47			0	36783	0	0	0	29090	27670	159158	27083	1078519	47015	110815	0	0	8045	589885	0	0
2024-08-31 11:45:47			0	36795	0	0	0	29085	27660	159050	27241	1078429	47004	110813	0	0	8045	589433	0	0
2024-08-31 11:46:47			0	36825	0	0	0	29090	27650	158906	26946	1078410	47002	110815	0	0	8047	588251	0	0
2024-08-31 11:47:47			0	36862	0	0	0	29093	27670	158778	26850	1078528	47004	110816	0	0	8049	586687	0	0
2024-08-31 11:48:47			0	36883	0	0	0	29116	27670	158658	27095	1078519	46994	110825	0	0	8050	585838	0	0
2024-08-31 11:49:47			0	36904	0	0	0	29098	27670	158486	27173	1078572	47004	110818	0	0	8052	584991	0	0
2024-08-31 11:50:47			0	36926	0	0	0	29101	27680	158326	27109	1078519	47006	110819	0	0	8053	584070	0	0
2024-08-31 11:51:47			0	36941	0	0	0	29106	27690	158414	27573	1078474	47017	110821	0	0	8054	583432	0	0
2024-08-31 11:52:47			0	36964	0	0	0	29109	27680	158278	27140	1078510	47016	110822	0	0	8055	582540	0	0
2024-08-31 11:53:47			0	36971	0	0	0	29140	27680	158290	27033	1078654	47017	110834	0	0	8055	582258	0	0
2024-08-31 11:54:47			0	36993	0	0	0	29132	27700	158178	27244	1078663	47019	110831	0	0	8057	581307	0	0
2024-08-31 11:55:47			0	36996	0	0	0	29161	27710	158110	27033	1078807	47008	110842	0	0	8056	581154	0	0
2024-08-31 11:56:47			0	37004	0	0	0	29145	27710	158114	27235	1078726	47019	110836	0	0	8057	580832	0	0
2024-08-31 11:57:47			0	36998	0	0	0	29153	27710	157998	27088	1078726	47008	110839	0	0	8057	581073	0	0
2024-08-31 11:58:47			0	37013	0	0	0	29145	27710	158062	27492	1078816	47020	110836	0	0	8058	580471	0	0
2024-08-31 11:59:47			0	37019	0	0	0	29119	27710	158010	27123	1078726	47008	110826	0	0	8058	580230	0	0
2024-08-31 12:00:47			0	37014	0	0	0	29124	27720	157954	27346	1078744	46999	110828	0	0	8058	580397	0	0
2024-08-31 12:01:47			0	37018	0	0	0	29140	27720	157930	27135	1078861	47021	110834	0	0	8058	580237	0	0
2024-08-31 12:02:47			0	37046	0	0	0	29153	27720	157982	27182	1078825	46999	110839	0	0	8059	579114	0	0
2024-08-31 12:03:47			0	37039	0	0	0	29158	27720	157794	26970	1078825	47009	110841	0	0	8059	579395	0	0
2024-08-31 12:04:47			0	37053	0	0	0	29148	27730	157774	27163	1078870	47000	110837	0	0	8060	578801	0	0
2024-08-31 12:05:47			0	37045	0	0	0	29150	27730	157750	26989	1078906	47011	110838	0	0	8059	579121	0	0
2024-08-31 12:06:47			0	37065	0	0	0	29150	27740	157734	27180	1078888	47011	110838	0	0	8061	578287	0	0
2024-08-31 12:07:47			0	37071	0	0	0	29194	27740	157698	27228	1078924	47012	110855	0	0	8060	578047	0	0
2024-08-31 12:08:47			0	37081	0	0	0	29168	27740	157706	26998	1078978	47045	110845	0	0	8061	577647	0	0
2024-08-31 12:09:47			0	37092	0	0	0	29168	27740	157750	27298	1078924	47023	110845	0	0	8062	577207	0	0
2024-08-31 12:10:47			0	37096	0	0	0	29231	27740	157590	27203	1078978	47012	110869	0	0	8061	577047	0	0
2024-08-31 12:11:47			0	37116	0	0	0	29184	27750	157606	27062	1079068	47013	110851	0	0	8063	576215	0	0
2024-08-31 12:12:47			0	37107	0	0	0	29150	27750	157594	27163	1078942	47013	110838	0	0	8063	576575	0	0
2024-08-31 12:13:47			0	37107	0	0	0	29116	27750	157542	27377	1078933	47002	110825	0	0	8064	576575	0	0
2024-08-31 12:14:47			0	37116	0	0	0	29124	27740	157526	26871	1078843	47001	110828	0	0	8064	576248	0	0
2024-08-31 12:15:47			0	37138	0	0	0	29122	27740	157346	27175	1078735	46990	110827	0	0	8065	575370	0	0
2024-08-31 12:16:47			0	37167	0	0	0	29116	27740	157378	26783	1078789	47001	110825	0	0	8067	574214	0	0
2024-08-31 12:17:47			0	37189	0	0	0	29129	27740	157254	26906	1078834	47011	110830	0	0	8068	573338	0	0
2024-08-31 12:18:47			0	37216	0	0	0	29135	27740	157262	27071	1078807	46989	110832	0	0	8070	572265	0	0
2024-08-31 12:19:47			0	37212	0	0	0	29171	27740	157102	27092	1078861	47011	110846	0	0	8069	572423	0	0
2024-08-31 12:20:47			0	37206	0	0	0	29173	27740	157106	27135	1078978	47012	110847	0	0	8069	572662	0	0
2024-08-31 12:21:47			0	37239	0	0	0	29163	27740	157086	26909	1078924	47023	110843	0	0	8071	571351	0	0
2024-08-31 12:22:47			0	37228	0	0	0	29161	27750	157098	27298	1078942	47002	110842	0	0	8070	571755	0	0
2024-08-31 12:23:47			0	37235	0	0	0	29171	27750	157054	27315	1078960	47024	110846	0	0	8070	571477	0	0
2024-08-31 12:24:47			0	37258	0	0	0	29184	27740	157022	27175	1078897	47023	110851	0	0	8071	570597	0	0
2024-08-31 12:25:47			0	37252	0	0	0	29189	27760	156986	27312	1078951	47036	110853	0	0	8071	570769	0	0
2024-08-31 12:26:47			0	37269	0	0	0	29212	27750	156974	26845	1078996	47024	110862	0	0	8072	570128	0	0
2024-08-31 12:27:47			0	37280	0	0	0	29189	27750	156954	27029	1079077	47024	110853	0	0	8073	569692	0	0
2024-08-31 12:28:47			0	37268	0	0	0	29199	27760	156830	27173	1079041	47037	110857	0	0	8072	570134	0	0
2024-08-31 12:29:47			0	37292	0	0	0	29197	27770	156846	26923	1079104	47015	110856	0	0	8073	569151	0	0
2024-08-31 12:30:47			0	37288	0	0	0	29192	27760	156830	26984	1079041	47025	110854	0	0	8073	569342	0	0
2024-08-31 12:31:47			0	37309	0	0	0	29184	27770	156722	26736	1079113	47026	110851	0	0	8074	568478	0	0
2024-08-31 12:32:47			0	37331	0	0	0	29194	27770	156587	26804	1079059	47015	110855	0	0	8076	567608	0	0
2024-08-31 12:33:47			0	37332	0	0	0	29210	27770	156579	27118	1079077	47015	110861	0	0	8075	567568	0	0
2024-08-31 12:34:47			0	37344	0	0	0	29212	27780	156415	26961	1079095	47015	110862	0	0	8076	567061	0	0
2024-08-31 12:35:47			0	37359	0	0	0	29231	27780	156699	26922	1079239	47016	110869	0	0	8077	566469	0	0
2024-08-31 12:36:47			0	37351	0	0	0	29275	27790	156551	27145	1079284	47030	110886	0	0	8075	566752	0	0
2024-08-31 12:37:47			0	37353	0	0	0	29262	27810	156539	26850	1079365	47041	110881	0	0	8076	566608	0	0
2024-08-31 12:38:47			0	37346	0	0	0	29249	27810	156471	27192	1079338	47041	110876	0	0	8076	566884	0	0
2024-08-31 12:39:47			0	37366	0	0	0	29241	27820	156551	26963	1079357	47042	110873	0	0	8077	566062	0	0
2024-08-31 12:40:47			0	37368	0	0	0	29238	27820	156499	26904	1079303	47020	110872	0	0	8077	565983	0	0
2024-08-31 12:41:47			0	37370	0	0	0	29236	27820	156395	27280	1079321	47020	110871	0	0	8077	565904	0	0
2024-08-31 12:42:47			0	37368	0	0	0	29241	27820	156463	26726	1079330	47020	110873	0	0	8077	565983	0	0
2024-08-31 12:43:47			0	37387	0	0	0	29257	27830	156475	26986	1079339	47020	110879	0	0	8078	565201	0	0
2024-08-31 12:44:47			0	37372	0	0	0	29280	27820	156303	26958	1079410	47009	110888	0	0	8077	565825	0	0
2024-08-31 12:45:47			0	37395	0	0	0	29293	27840	156387	27230	1079465	47034	110893	0	0	8078	564854	0	0
2024-08-31 12:46:47			0	37382	0	0	0	29285	27830	156439	27114	1079483	47033	110890	0	0	8077	565398	0	0
2024-08-31 12:47:47			0	37384	0	0	0	29285	27850	156447	26934	1079600	47023	110890	0	0	8078	565255	0	0
2024-08-31 12:48:47			0	37377	0	0	0	29283	27850	156359	27261	1079492	47023	110889	0	0	8077	565530	0	0
2024-08-31 12:49:47			0	37399	0	0	0	29293	27850	156295	27031	1079573	47023	110893	0	0	8078	564663	0	0
2024-08-31 12:50:47			0	37377	0	0	0	29296	27870	156363	27178	1079600	47025	110894	0	0	8077	565465	0	0
2024-08-31 12:51:47			0	37375	0	0	0	29309	27870	156379	27074	1079609	47037	110899	0	0	8077	565544	0	0
2024-08-31 12:52:47			0	37392	0	0	0	29303	27870	156287	27211	1079663	47037	110897	0	0	8078	564874	0	0
2024-08-31 12:53:47			0	37387	0	0	0	29316	27880	156455	27362	1079726	47048	110902	0	0	8077	565038	0	0
2024-08-31 12:54:47			0	37395	0	0	0	29311	27870	156391	27079	1079717	47037	110900	0	0	8078	564756	0	0
2024-08-31 12:55:47			0	37396	0	0	0	29319	27890	156347	26793	1079690	47027	110903	0	0	8078	564651	0	0
2024-08-31 12:56:47			0	37405	0	0	0	29340	27890	156191	27182	1079780	47049	110911	0	0	8078	564297	0	0
2024-08-31 12:57:47			0	37426	0	0	0	29350	27910	156215	27098	1079915	47051	110915	0	0	8079	563406	0	0
2024-08-31 12:58:47			0	37429	0	0	0	29376	27910	156143	26974	1079951	47051	110925	0	0	8079	563288	0	0
2024-08-31 12:59:47			0	37464	0	0	0	29410	27920	156079	26814	1079996	47064	110938	0	0	8080	561880	0	0
2024-08-31 13:00:47			0	37466	0	0	0	29410	27930	156115	27211	1080149	47065	110938	0	0	8081	561769	0	0
2024-08-31 13:01:47			0	37457	0	0	0	29399	27950	156043	27128	1080230	47079	110934	0	0	8080	562058	0	0
2024-08-31 13:02:47			0	37462	0	0	0	29425	27960	156087	27170	1080258	47069	110944	0	0	8080	561829	0	0
2024-08-31 13:03:47			0	37475	0	0	0	29418	27990	155967	27196	1080330	47060	110941	0	0	8081	561222	0	0
2024-08-31 13:04:47			0	37471	0	0	0	29423	27990	155967	27105	1080303	47049	110943	0	0	8081	561379	0	0
2024-08-31 13:05:47			0	37473	0	0	0	29402	27990	155903	26989	1080303	47038	110935	0	0	8081	561300	0	0
2024-08-31 13:06:47			0	37465	0	0	0	29397	27990	155983	27150	1080285	47038	110933	0	0	8081	561614	0	0
2024-08-31 13:07:47			0	37486	0	0	0	29376	27990	155935	27159	1080258	47027	110925	0	0	8083	560791	0	0
2024-08-31 13:08:47			0	37488	0	0	0	29376	27990	155911	27417	1080258	47027	110925	0	0	8083	560712	0	0
2024-08-31 13:09:47			0	37506	0	0	0	29342	27990	155791	27170	1080231	47004	110912	0	0	8084	560007	0	0
2024-08-31 13:10:47			0	37510	0	0	0	29329	27970	155767	27074	1080132	47014	110907	0	0	8085	559915	0	0
2024-08-31 13:11:47			0	37524	0	0	0	29374	27990	155667	27248	1080222	47038	110924	0	0	8085	559302	0	0
2024-08-31 13:12:47			0	37531	0	0	0	29353	27990	155659	27246	1080276	47038	110916	0	0	8086	559028	0	0
2024-08-31 13:13:47			0	37555	0	0	0	29376	27990	155623	27118	1080276	47038	110925	0	0	8087	558090	0	0
2024-08-31 13:14:47			0	37577	0	0	0	29366	28000	155495	27199	1080249	47039	110921	0	0	8088	557198	0	0
2024-08-31 13:15:47			0	37572	0	0	0	29412	28010	155555	27175	1080312	47040	110939	0	0	8087	557362	0	0
2024-08-31 13:16:47			0	37592	0	0	0	29428	28000	155499	27156	1080411	47028	110945	0	0	8088	556613	0	0
2024-08-31 13:17:47			0	37579	0	0	0	29451	28010	155491	27199	1080402	47041	110954	0	0	8087	557088	0	0
2024-08-31 13:18:47			0	37573	0	0	0	29477	28020	155479	27332	1080528	47052	110964	0	0	8086	557290	0	0
2024-08-31 13:19:47			0	37583	0	0	0	29483	28030	155471	27107	1080601	47065	110966	0	0	8087	556868	0	0
2024-08-31 13:20:47			0	37595	0	0	0	29490	28040	155443	26833	1080717	47054	110969	0	0	8087	556368	0	0
2024-08-31 13:21:47			0	37608	0	0	0	29475	28050	155519	27251	1080745	47044	110963	0	0	8088	555829	0	0
2024-08-31 13:22:47			0	37593	0	0	0	29467	28070	155379	27083	1080718	47057	110960	0	0	8088	556349	0	0
2024-08-31 13:23:47			0	37601	0	0	0	29457	28070	155219	27045	1080745	47035	110956	0	0	8088	556037	0	0
2024-08-31 13:24:47			0	37613	0	0	0	29438	28070	155211	27072	1080673	47036	110949	0	0	8089	555570	0	0
2024-08-31 13:25:47			0	37631	0	0	0	29449	28070	155203	26908	1080583	47035	110953	0	0	8090	554869	0	0
2024-08-31 13:26:47			0	37640	0	0	0	29449	28070	155199	27284	1080646	47036	110953	0	0	8091	554519	0	0
2024-08-31 13:27:47			0	37646	0	0	0	29451	28070	155179	27128	1080664	47012	110954	0	0	8091	554285	0	0
2024-08-31 13:28:47			0	37638	0	0	0	29446	28060	155175	27201	1080547	47035	110952	0	0	8091	554628	0	0
2024-08-31 13:29:47			0	37645	0	0	0	29433	28060	155167	26951	1080592	47034	110947	0	0	8091	554356	0	0
2024-08-31 13:30:47			0	37655	0	0	0	29428	28060	155083	26842	1080511	47034	110945	0	0	8092	553967	0	0
2024-08-31 13:31:47			0	37647	0	0	0	29449	28050	155051	27022	1080637	47034	110953	0	0	8091	554310	0	0
2024-08-31 13:32:47			0	37642	0	0	0	29451	28050	155023	27197	1080610	47044	110954	0	0	8091	554505	0	0
2024-08-31 13:33:47			0	37650	0	0	0	29436	28060	155163	26968	1080628	47035	110948	0	0	8091	554162	0	0
2024-08-31 13:34:47			0	37657	0	0	0	29459	28050	155151	26987	1080529	47044	110957	0	0	8091	553921	0	0
2024-08-31 13:35:47			0	37655	0	0	0	29467	28060	155203	27286	1080646	47034	110960	0	0	8091	553967	0	0
2024-08-31 13:36:47			0	37640	0	0	0	29477	28070	155155	26956	1080754	47046	110964	0	0	8090	554519	0	0
2024-08-31 13:37:47			0	37647	0	0	0	29493	28080	155171	27005	1080817	47046	110970	0	0	8090	554214	0	0
2024-08-31 13:38:47			0	37650	0	0	0	29493	28080	155167	27239	1080772	47047	110970	0	0	8091	554098	0	0
2024-08-31 13:39:47			0	37656	0	0	0	29488	28080	155159	27052	1080826	47047	110968	0	0	8091	553864	0	0
2024-08-31 13:40:47			0	37620	0	0	0	29454	28080	155131	26892	1080826	47047	110955	0	0	8089	555265	0	0
2024-08-31 13:41:47			0	37642	0	0	0	29438	28080	155079	26800	1080763	47046	110949	0	0	8091	554409	0	0
2024-08-31 13:42:47			0	37662	0	0	0	29415	28080	155075	26887	1080718	47037	110940	0	0	8093	553631	0	0
2024-08-31 13:43:47			0	37659	0	0	0	29425	28080	154987	26915	1080611	47037	110944	0	0	8092	553748	0	0
2024-08-31 13:44:47			0	37670	0	0	0	29415	28070	154983	26953	1080673	47025	110940	0	0	8093	553352	0	0
2024-08-31 13:45:47			0	37667	0	0	0	29394	28070	154899	27166	1080610	47035	110932	0	0	8093	553469	0	0
2024-08-31 13:46:47			0	37682	0	0	0	29397	28060	154883	27346	1080574	47012	110933	0	0	8094	552918	0	0
2024-08-31 13:47:47			0	37684	0	0	0	29386	28060	154971	27062	1080538	47034	110929	0	0	8094	552840	0	0
2024-08-31 13:48:47			0	37695	0	0	0	29379	28060	154971	27208	1080404	47023	110926	0	0	8095	552413	0	0
2024-08-31 13:49:47			0	37672	0	0	0	29428	28050	154955	27156	1080520	47022	110945	0	0	8093	553338	0	0
2024-08-31 13:50:47			0	37687	0	0	0	29579	28050	155083	27100	1080655	47043	111003	0	0	8091	552755	0	0
2024-08-31 13:51:47			0	37674	0	0	0	29618	28060	155047	27118	1080871	47080	111018	0	0	8090	553229	0	0
2024-08-31 13:52:47			0	37691	0	0	0	29651	28090	155059	27377	1081024	47103	111031	0	0	8090	552473	0	0
2024-08-31 13:53:47			0	37683	0	0	0	29641	28110	154983	26800	1081087	47095	111027	0	0	8090	552719	0	0
2024-08-31 13:54:47			0	37669	0	0	0	29641	28130	155035	27197	1081168	47074	111027	0	0	8089	553199	0	0
2024-08-31 13:55:47			0	37673	0	0	0	29641	28140	155059	27244	1081196	47087	111027	0	0	8090	553012	0	0
2024-08-31 13:56:47			0	37680	0	0	0	29599	28150	155023	27175	1081268	47054	111011	0	0	8091	552708	0	0
2024-08-31 13:57:47			0	37681	0	0	0	29576	28160	154947	26939	1081205	47067	111002	0	0	8091	552638	0	0
2024-08-31 13:58:47			0	37711	0	0	0	29496	28160	154799	26720	1081071	47034	110971	0	0	8094	551474	0	0
2024-08-31 13:59:47			0	37755	0	0	0	29488	28150	154635	27059	1081016	47032	110968	0	0	8097	549801	0	0
2024-08-31 14:00:47			0	37760	0	0	0	29490	28140	154567	27272	1080953	47020	110969	0	0	8097	549640	0	0
2024-08-31 14:01:47			0	37781	0	0	0	29509	28140	154407	27628	1080917	47019	110976	0	0	8098	548828	0	0
2024-08-31 14:02:47			0	37790	0	0	0	29527	28130	154535	27183	1080953	47041	110983	0	0	8098	548512	0	0
2024-08-31 14:03:47			0	37797	0	0	0	29553	28130	154559	27424	1080980	47052	110993	0	0	8098	548241	0	0
2024-08-31 14:04:47			0	37785	0	0	0	29563	28130	154579	27204	1081034	47041	110997	0	0	8097	548705	0	0
2024-08-31 14:05:47			0	37791	0	0	0	29589	28130	154551	27229	1081070	47075	111007	0	0	8097	548473	0	0
2024-08-31 14:06:47			0	37760	0	0	0	29620	28150	154595	27261	1081232	47076	111019	0	0	8095	549608	0	0
2024-08-31 14:07:47			0	37759	0	0	0	29584	28160	154655	27187	1081223	47054	111005	0	0	8096	549615	0	0
2024-08-31 14:08:47			0	37758	0	0	0	29579	28160	154659	27175	1081196	47066	111003	0	0	8096	549654	0	0
2024-08-31 14:09:47			0	37760	0	0	0	29581	28170	154699	27093	1081241	47044	111004	0	0	8096	549545	0	0
2024-08-31 14:10:47			0	37762	0	0	0	29586	28160	154615	27010	1081232	47067	111006	0	0	8096	549499	0	0
2024-08-31 14:11:47			0	37783	0	0	0	29589	28170	154667	27187	1081223	47057	111007	0	0	8097	548655	0	0
2024-08-31 14:12:47			0	37772	0	0	0	29579	28170	154523	26873	1081277	47045	111003	0	0	8097	549081	0	0
2024-08-31 14:13:47			0	37772	0	0	0	29563	28180	154627	27282	1081206	47046	110997	0	0	8097	549049	0	0
2024-08-31 14:14:47			0	37788	0	0	0	29558	28180	154603	27244	1081179	47046	110995	0	0	8098	548431	0	0
2024-08-31 14:15:47			0	37765	0	0	0	29529	28170	154631	26809	1081143	47035	110984	0	0	8097	549351	0	0
2024-08-31 14:16:47			0	37777	0	0	0	29524	28170	154619	27131	1081134	47044	110982	0	0	8098	548887	0	0
2024-08-31 14:17:47			0	37771	0	0	0	29527	28170	154603	26894	1081080	47056	110983	0	0	8097	549119	0	0
2024-08-31 14:18:47			0	37778	0	0	0	29522	28150	154595	26922	1081079	47043	110981	0	0	8098	548912	0	0
2024-08-31 14:19:47			0	37785	0	0	0	29555	28160	154519	27149	1081124	47056	110994	0	0	8098	548610	0	0
2024-08-31 14:20:47			0	37783	0	0	0	29610	28160	154615	27090	1081232	47056	111015	0	0	8097	548687	0	0
2024-08-31 14:21:47			0	37789	0	0	0	29636	28180	154459	26824	1081313	47080	111025	0	0	8097	548392	0	0
2024-08-31 14:22:47			0	37791	0	0	0	29612	28190	154479	27024	1081359	47080	111016	0	0	8097	548283	0	0
2024-08-31 14:23:47			0	37787	0	0	0	29612	28200	154547	27015	1081458	47071	111016	0	0	8097	548406	0	0
2024-08-31 14:24:47			0	37782	0	0	0	29610	28200	154535	27116	1081440	47060	111015	0	0	8097	548599	0	0
2024-08-31 14:25:47			0	37784	0	0	0	29579	28210	154491	26949	1081458	47061	111003	0	0	8097	548490	0	0
2024-08-31 14:26:47			0	37802	0	0	0	29586	28210	154519	27492	1081350	47061	111006	0	0	8098	547795	0	0
2024-08-31 14:27:47			0	37773	0	0	0	29579	28220	154427	27053	1081467	47050	111003	0	0	8097	548883	0	0
2024-08-31 14:28:47			0	37800	0	0	0	29548	28210	154515	27268	1081368	47049	110991	0	0	8099	547872	0	0
2024-08-31 14:29:47			0	37785	0	0	0	29561	28200	154543	27291	1081296	47048	110996	0	0	8098	548483	0	0
2024-08-31 14:30:47			0	37783	0	0	0	29581	28210	154471	27116	1081395	47039	111004	0	0	8097	548529	0	0
2024-08-31 14:31:47			0	37786	0	0	0	29602	28200	154503	27424	1081350	47048	111012	0	0	8097	548445	0	0
2024-08-31 14:32:47			0	37790	0	0	0	29628	28210	154483	27227	1081431	47049	111022	0	0	8097	548258	0	0
2024-08-31 14:33:47			0	37801	0	0	0	29657	28210	154419	27001	1081458	47072	111033	0	0	8097	547834	0	0
2024-08-31 14:34:47			0	37805	0	0	0	29696	28220	154383	27215	1081611	47062	111048	0	0	8097	547648	0	0
2024-08-31 14:35:47			0	37806	0	0	0	29729	28240	154515	27022	1081746	47075	111061	0	0	8096	547546	0	0
2024-08-31 14:36:47			0	37796	0	0	0	29748	28250	154447	27043	1081710	47098	111068	0	0	8095	547900	0	0
2024-08-31 14:37:47			0	37790	0	0	0	29742	28260	154475	27190	1081755	47099	111066	0	0	8095	548100	0	0
2024-08-31 14:38:47			0	37785	0	0	0	29755	28270	154483	27178	1081918	47078	111071	0	0	8095	548262	0	0
2024-08-31 14:39:47			0	37786	0	0	0	29753	28280	154611	27246	1081873	47079	111070	0	0	8095	548191	0	0
2024-08-31 14:40:47			0	37794	0	0	0	29781	28290	154503	27300	1082053	47080	111081	0	0	8095	547851	0	0
2024-08-31 14:41:47			0	37796	0	0	0	29794	28310	154523	27332	1082090	47093	111086	0	0	8095	547710	0	0
2024-08-31 14:42:47			0	37769	0	0	0	29794	28320	154431	26870	1082108	47083	111086	0	0	8093	548721	0	0
2024-08-31 14:43:47			0	37787	0	0	0	29797	28320	154431	27022	1082135	47093	111087	0	0	8094	548026	0	0
2024-08-31 14:44:47			0	37787	0	0	0	29815	28330	154371	26972	1082153	47084	111094	0	0	8094	547994	0	0
2024-08-31 14:45:47			0	37792	0	0	0	29771	28340	154251	27010	1082207	47085	111077	0	0	8095	547770	0	0
2024-08-31 14:46:47			0	37826	0	0	0	29771	28340	154255	27244	1082198	47096	111077	0	0	8097	546459	0	0
2024-08-31 14:47:47			0	37825	0	0	0	29768	28350	154155	27310	1082225	47076	111076	0	0	8097	546466	0	0
2024-08-31 14:48:47			0	37862	0	0	0	29766	28350	154071	27119	1082162	47064	111075	0	0	8099	545042	0	0
2024-08-31 14:49:47			0	37891	0	0	0	29758	28350	153947	27088	1082252	47064	111072	0	0	8101	543927	0	0
2024-08-31 14:50:47			0	37916	0	0	0	29768	28350	153775	27478	1082198	47064	111076	0	0	8102	542967	0	0
2024-08-31 14:51:47			0	37943	0	0	0	29794	28350	153695	27208	1082252	47086	111086	0	0	8104	541932	0	0
2024-08-31 14:52:47			0	37958	0	0	0	29794	28360	153559	27196	1082288	47086	111086	0	0	8105	541326	0	0
2024-08-31 14:53:47			0	37967	0	0	0	29792	28370	153599	27121	1082333	47088	111085	0	0	8105	540950	0	0
2024-08-31 14:54:47			0	37955	0	0	0	29781	28370	153627	27092	1082316	47089	111081	0	0	8105	541409	0	0
2024-08-31 14:55:47			0	37966	0	0	0	29781	28370	153603	27369	1082333	47088	111081	0	0	8105	540988	0	0
2024-08-31 14:56:47			0	37959	0	0	0	29781	28380	153639	27287	1082325	47067	111081	0	0	8105	541225	0	0
2024-08-31 14:57:47			0	37967	0	0	0	29779	28380	153555	27208	1082361	47067	111080	0	0	8105	540919	0	0
2024-08-31 14:58:47			0	37970	0	0	0	29776	28380	153539	27183	1082361	47067	111079	0	0	8106	540804	0	0
2024-08-31 14:59:47			0	37970	0	0	0	29774	28380	153455	27516	1082307	47079	111078	0	0	8106	540804	0	0
2024-08-31 15:00:47			0	37980	0	0	0	29789	28380	153567	27267	1082442	47079	111084	0	0	8106	540421	0	0
2024-08-31 15:01:47			0	37968	0	0	0	29799	28390	153627	27308	1082397	47068	111088	0	0	8105	540849	0	0
2024-08-31 15:02:47			0	37984	0	0	0	29836	28390	153475	27227	1082424	47080	111102	0	0	8105	540237	0	0
2024-08-31 15:03:47			0	37963	0	0	0	29833	28410	153519	27194	1082487	47082	111101	0	0	8104	540978	0	0
2024-08-31 15:04:47			0	37975	0	0	0	29851	28410	153479	27100	1082586	47081	111108	0	0	8105	540519	0	0
2024-08-31 15:05:47			0	37970	0	0	0	29846	28410	153479	27235	1082649	47082	111106	0	0	8105	540710	0	0
2024-08-31 15:06:47			0	37971	0	0	0	29838	28410	153547	27196	1082514	47092	111103	0	0	8105	540672	0	0
2024-08-31 15:07:47			0	37972	0	0	0	29825	28420	153375	27178	1082496	47093	111098	0	0	8105	540602	0	0
2024-08-31 15:08:47			0	37978	0	0	0	29833	28410	153555	27533	1082568	47082	111101	0	0	8105	540404	0	0
2024-08-31 15:09:47			0	37974	0	0	0	29812	28430	153419	27083	1082542	47083	111093	0	0	8105	540495	0	0
2024-08-31 15:10:47			0	37977	0	0	0	29805	28420	153459	27185	1082506	47060	111090	0	0	8106	540411	0	0
2024-08-31 15:11:47			0	37985	0	0	0	29802	28420	153375	26970	1082416	47060	111089	0	0	8106	540105	0	0
2024-08-31 15:12:47			0	37988	0	0	0	29799	28420	153379	27388	1082533	47071	111088	0	0	8106	539991	0	0
2024-08-31 15:13:47			0	37982	0	0	0	29815	28420	153411	27371	1082452	47083	111094	0	0	8106	540220	0	0
2024-08-31 15:14:47			0	37996	0	0	0	29802	28410	153399	27493	1082406	47082	111089	0	0	8107	539716	0	0
2024-08-31 15:15:47			0	38008	0	0	0	29802	28420	153287	27126	1082496	47093	111089	0	0	8108	539226	0	0
2024-08-31 15:16:47			0	38011	0	0	0	29815	28410	153399	27407	1082487	47082	111094	0	0	8107	539143	0	0
2024-08-31 15:17:47			0	38000	0	0	0	29794	28410	153335	27074	1082460	47082	111086	0	0	8107	539563	0	0
2024-08-31 15:18:47			0	38000	0	0	0	29807	28410	153387	27211	1082460	47092	111091	0	0	8107	539563	0	0
2024-08-31 15:19:47			0	38003	0	0	0	29818	28420	153435	26939	1082443	47083	111095	0	0	8107	539417	0	0
2024-08-31 15:20:47			0	38002	0	0	0	29818	28420	153435	27086	1082550	47083	111095	0	0	8107	539456	0	0
2024-08-31 15:21:47			0	37974	0	0	0	29838	28430	153403	26958	1082623	47093	111103	0	0	8105	540495	0	0
2024-08-31 15:22:47			0	37999	0	0	0	29846	28430	153371	27312	1082623	47093	111106	0	0	8106	539539	0	0
2024-08-31 15:23:47			0	37979	0	0	0	29851	28430	153451	27201	1082686	47094	111108	0	0	8105	540303	0	0
2024-08-31 15:24:47			0	37978	0	0	0	29836	28440	153423	27282	1082695	47084	111102	0	0	8105	540310	0	0
2024-08-31 15:25:47			0	37972	0	0	0	29823	28440	153455	27246	1082614	47073	111097	0	0	8105	540540	0	0
2024-08-31 15:26:47			0	37979	0	0	0	29831	28440	153419	27144	1082704	47096	111100	0	0	8105	540272	0	0
2024-08-31 15:27:47			0	37983	0	0	0	29833	28430	153503	27305	1082632	47083	111101	0	0	8106	540150	0	0
2024-08-31 15:28:47			0	37989	0	0	0	29833	28450	153423	27211	1082695	47085	111101	0	0	8106	539859	0	0
2024-08-31 15:29:47			0	38004	0	0	0	29854	28450	153411	27194	1082713	47085	111109	0	0	8107	539285	0	0
2024-08-31 15:30:47			0	38015	0	0	0	29867	28460	153323	27119	1082821	47087	111114	0	0	8107	538834	0	0
2024-08-31 15:31:47			0	38000	0	0	0	29864	28460	153271	27324	1082839	47097	111113	0	0	8106	539407	0	0
2024-08-31 15:32:47			0	38022	0	0	0	29901	28470	153300	26902	1082884	47087	111127	0	0	8107	538536	0	0
2024-08-31 15:33:47			0	38025	0	0	0	29945	28470	153307	27448	1082938	47087	111144	0	0	8106	538421	0	0
2024-08-31 15:34:47			0	38028	0	0	0	29955	28480	153216	27121	1082983	47099	111148	0	0	8106	538276	0	0
2024-08-31 15:35:47			0	38019	0	0	0	29940	28500	153219	27119	1083029	47102	111142	0	0	8106	538557	0	0
2024-08-31 15:36:47			0	38013	0	0	0	29942	28500	153299	27365	1083100	47101	111143	0	0	8106	538786	0	0
2024-08-31 15:37:47			0	38040	0	0	0	29953	28500	153252	27185	1083136	47102	111147	0	0	8107	537756	0	0
2024-08-31 15:38:47			0	38045	0	0	0	29971	28520	153200	27277	1083200	47104	111154	0	0	8107	537503	0	0
2024-08-31 15:39:47			0	38027	0	0	0	29961	28520	153235	27260	1083191	47092	111150	0	0	8106	538190	0	0
2024-08-31 15:40:47			0	38052	0	0	0	29966	28530	153124	27180	1083209	47094	111152	0	0	8108	537205	0	0
2024-08-31 15:41:47			0	38055	0	0	0	30005	28530	153176	27206	1083272	47105	111167	0	0	8107	537091	0	0
2024-08-31 15:42:47			0	38069	0	0	0	29989	28540	153092	27390	1083317	47118	111161	0	0	8108	536527	0	0
2024-08-31 15:43:47			0	38092	0	0	0	29994	28550	152992	27310	1083327	47107	111163	0	0	8110	535621	0	0
2024-08-31 15:44:47			0	38107	0	0	0	29984	28550	152848	26800	1083327	47096	111159	0	0	8111	535051	0	0
2024-08-31 15:45:47			0	38152	0	0	0	29968	28570	152700	27010	1083363	47098	111153	0	0	8114	533281	0	0
2024-08-31 15:46:47			0	38179	0	0	0	29950	28560	152692	27083	1083327	47108	111146	0	0	8115	532289	0	0
2024-08-31 15:47:47			0	38195	0	0	0	29953	28560	152560	27022	1083300	47086	111147	0	0	8116	531683	0	0
2024-08-31 15:48:47			0	38197	0	0	0	29924	28560	152480	27201	1083291	47085	111136	0	0	8117	531607	0	0
2024-08-31 15:49:47			0	38231	0	0	0	29927	28550	152360	26998	1083282	47074	111137	0	0	8119	530352	0	0
2024-08-31 15:50:47			0	38235	0	0	0	29914	28550	152340	27072	1083219	47096	111132	0	0	8119	530201	0	0
2024-08-31 15:51:47			0	38242	0	0	0	29914	28550	152312	26972	1083192	47085	111132	0	0	8120	529936	0	0
2024-08-31 15:52:47			0	38249	0	0	0	29924	28550	152260	26953	1083192	47063	111136	0	0	8120	529672	0	0
2024-08-31 15:53:47			0	38256	0	0	0	29945	28540	152256	27490	1083183	47084	111144	0	0	8120	529438	0	0
2024-08-31 15:54:47			0	38221	0	0	0	29924	28540	152304	26948	1083183	47084	111136	0	0	8118	530761	0	0
2024-08-31 15:55:47			0	38218	0	0	0	29862	28550	152312	27085	1083138	47085	111112	0	0	8119	530844	0	0
2024-08-31 15:56:47			0	38208	0	0	0	29846	28530	152360	27144	1082967	47072	111106	0	0	8119	531283	0	0
2024-08-31 15:57:47			0	38195	0	0	0	29880	28520	152640	27067	1082957	47060	111119	0	0	8117	531806	0	0
2024-08-31 15:58:47			0	38154	0	0	0	29922	28520	152760	27260	1083038	47071	111135	0	0	8114	533359	0	0
2024-08-31 15:59:47			0	38127	0	0	0	29872	28520	152952	27163	1082984	47071	111116	0	0	8114	534384	0	0
2024-08-31 16:00:47			0	38122	0	0	0	29859	28510	152904	27255	1083020	47082	111111	0	0	8114	534605	0	0
2024-08-31 16:01:47			0	38121	0	0	0	29854	28510	152856	27126	1082966	47082	111109	0	0	8114	534643	0	0
2024-08-31 16:02:47			0	38119	0	0	0	29864	28510	152908	27310	1083047	47082	111113	0	0	8113	534719	0	0
2024-08-31 16:03:47			0	38097	0	0	0	29854	28500	152972	27281	1082948	47081	111109	0	0	8112	535586	0	0
2024-08-31 16:04:47			0	38089	0	0	0	29812	28510	153004	26986	1082930	47082	111093	0	0	8112	535859	0	0
2024-08-31 16:05:47			0	38051	0	0	0	29789	28490	153144	27133	1082795	47078	111084	0	0	8111	537368	0	0
2024-08-31 16:06:47			0	38030	0	0	0	29781	28480	153216	26923	1082740	47066	111081	0	0	8109	538200	0	0
2024-08-31 16:07:47			0	37992	0	0	0	29771	28470	153351	27163	1082587	47042	111077	0	0	8107	539682	0	0
2024-08-31 16:08:47			0	37986	0	0	0	29771	28450	153547	27194	1082578	47052	111077	0	0	8107	539973	0	0
2024-08-31 16:09:47			0	37970	0	0	0	29812	28460	153563	27249	1082623	47076	111093	0	0	8105	540554	0	0
2024-08-31 16:10:47			0	37930	0	0	0	29823	28440	153691	26928	1082596	47074	111097	0	0	8103	542148	0	0
2024-08-31 16:11:47			0	37908	0	0	0	29831	28440	153835	27303	1082641	47084	111100	0	0	8101	542991	0	0
2024-08-31 16:12:47			0	37890	0	0	0	29825	28440	153855	26909	1082587	47095	111098	0	0	8100	543682	0	0
2024-08-31 16:13:47			0	37864	0	0	0	29818	28450	153835	27029	1082659	47085	111095	0	0	8099	544650	0	0
2024-08-31 16:14:47			0	37857	0	0	0	29807	28440	154019	27197	1082650	47096	111091	0	0	8099	544950	0	0
2024-08-31 16:15:47			0	37829	0	0	0	29820	28440	154027	27395	1082560	47084	111096	0	0	8097	546028	0	0
2024-08-31 16:16:47			0	37825	0	0	0	29799	28440	154175	27343	1082596	47085	111088	0	0	8097	546181	0	0
2024-08-31 16:17:47			0	37806	0	0	0	29784	28440	154143	27201	1082587	47084	111082	0	0	8096	546913	0	0
2024-08-31 16:18:47			0	37793	0	0	0	29755	28450	154167	27237	1082551	47074	111071	0	0	8096	547383	0	0
2024-08-31 16:19:47			0	37796	0	0	0	29766	28420	154227	27222	1082452	47060	111075	0	0	8096	547362	0	0
2024-08-31 16:20:47			0	37810	0	0	0	29774	28410	154111	27391	1082505	47069	111078	0	0	8097	546854	0	0
2024-08-31 16:21:47			0	37805	0	0	0	29779	28410	154131	27277	1082451	47081	111080	0	0	8096	547047	0	0
2024-08-31 16:22:47			0	37793	0	0	0	29776	28410	154115	27053	1082487	47070	111079	0	0	8096	547510	0	0
2024-08-31 16:23:47			0	37808	0	0	0	29781	28410	154107	27029	1082424	47069	111081	0	0	8096	546931	0	0
2024-08-31 16:24:47			0	37796	0	0	0	29753	28410	154079	27319	1082433	47070	111070	0	0	8096	547394	0	0
2024-08-31 16:25:47			0	37818	0	0	0	29714	28410	154115	27251	1082370	47069	111055	0	0	8098	546546	0	0
2024-08-31 16:26:47			0	37782	0	0	0	29701	28400	154039	27206	1082352	47069	111050	0	0	8096	547965	0	0
2024-08-31 16:27:47			0	37814	0	0	0	29716	28390	153879	27438	1082289	47057	111056	0	0	8098	546763	0	0
2024-08-31 16:28:47			0	37798	0	0	0	29763	28380	153803	27254	1082298	47067	111074	0	0	8096	547412	0	0
2024-08-31 16:29:47			0	37801	0	0	0	29786	28400	153735	27407	1082406	47091	111083	0	0	8096	547233	0	0
2024-08-31 16:30:47			0	37790	0	0	0	29758	28390	153859	27045	1082424	47102	111072	0	0	8096	547688	0	0
2024-08-31 16:31:47			0	37808	0	0	0	29698	28380	153759	27130	1082361	47079	111049	0	0	8098	547026	0	0
2024-08-31 16:32:47			0	37811	0	0	0	29659	28380	153755	27190	1082280	47056	111034	0	0	8098	546910	0	0
2024-08-31 16:33:47			0	37815	0	0	0	29675	28370	153675	26991	1082145	47066	111040	0	0	8098	546788	0	0
2024-08-31 16:34:47			0	37805	0	0	0	29683	28360	153727	27109	1082100	47042	111043	0	0	8098	547205	0	0
2024-08-31 16:35:47			0	37820	0	0	0	29703	28340	153811	27303	1082063	47051	111051	0	0	8098	546690	0	0
2024-08-31 16:36:47			0	37820	0	0	0	29737	28340	153807	27045	1082180	47063	111064	0	0	8097	546690	0	0
2024-08-31 16:37:47			0	37833	0	0	0	29740	28350	153819	27022	1082162	47086	111065	0	0	8098	546158	0	0
2024-08-31 16:38:47			0	37807	0	0	0	29729	28350	153779	27485	1082216	47076	111061	0	0	8097	547160	0	0
2024-08-31 16:39:47			0	37811	0	0	0	29711	28340	153763	27346	1082180	47075	111054	0	0	8097	547037	0	0
2024-08-31 16:40:47			0	37830	0	0	0	29690	28350	153807	27258	1082135	47076	111046	0	0	8099	546273	0	0
2024-08-31 16:41:47			0	37833	0	0	0	29701	28350	153739	27258	1082162	47064	111050	0	0	8099	546158	0	0
2024-08-31 16:42:47			0	37813	0	0	0	29703	28340	153699	27329	1082144	47074	111051	0	0	8098	546960	0	0
2024-08-31 16:43:47			0	37824	0	0	0	29709	28330	153723	27315	1082108	47074	111053	0	0	8098	546567	0	0
2024-08-31 16:44:47			0	37814	0	0	0	29701	28330	153691	27123	1082081	47074	111050	0	0	8098	546953	0	0
2024-08-31 16:45:47			0	37826	0	0	0	29696	28340	153787	27241	1082090	47074	111048	0	0	8098	546459	0	0
2024-08-31 16:46:47			0	37823	0	0	0	29693	28320	153847	27248	1082009	47073	111047	0	0	8098	546637	0	0
2024-08-31 16:47:47			0	37830	0	0	0	29711	28320	153799	26948	1082063	47073	111054	0	0	8098	546368	0	0
2024-08-31 16:48:47			0	37821	0	0	0	29693	28330	153699	26974	1082054	47074	111047	0	0	8098	546683	0	0
2024-08-31 16:49:47			0	37844	0	0	0	29675	28330	153719	27000	1082072	47062	111040	0	0	8100	545797	0	0
2024-08-31 16:50:47			0	37853	0	0	0	29644	28320	153691	27003	1082090	47083	111028	0	0	8101	545482	0	0
2024-08-31 16:51:47			0	37847	0	0	0	29657	28330	153727	27263	1081991	47062	111033	0	0	8100	545682	0	0
2024-08-31 16:52:47			0	37844	0	0	0	29683	28320	153699	27206	1082009	47073	111043	0	0	8100	545829	0	0
2024-08-31 16:53:47			0	37832	0	0	0	29667	28330	153755	27022	1081991	47074	111037	0	0	8099	546259	0	0
2024-08-31 16:54:47			0	37829	0	0	0	29683	28320	153683	27083	1082009	47073	111043	0	0	8099	546406	0	0
2024-08-31 16:55:47			0	37837	0	0	0	29745	28320	153735	27215	1082054	47072	111067	0	0	8098	546098	0	0
2024-08-31 16:56:47			0	37813	0	0	0	29761	28320	153899	26963	1082189	47083	111073	0	0	8097	547023	0	0
2024-08-31 16:57:47			0	37811	0	0	0	29763	28330	153855	26870	1082243	47084	111074	0	0	8096	547068	0	0
2024-08-31 16:58:47			0	37820	0	0	0	29716	28340	153731	27163	1082198	47084	111056	0	0	8098	546690	0	0
2024-08-31 16:59:47			0	37798	0	0	0	29703	28340	153691	26889	1082180	47085	111051	0	0	8097	547538	0	0
2024-08-31 17:00:47			0	37821	0	0	0	29722	28350	153771	27251	1082162	47086	111058	0	0	8098	546620	0	0
2024-08-31 17:01:47			0	37832	0	0	0	29709	28340	153647	27308	1082153	47075	111053	0	0	8099	546228	0	0
2024-08-31 17:02:47			0	37809	0	0	0	29685	28340	153723	27123	1082099	47063	111044	0	0	8098	547114	0	0
2024-08-31 17:03:47			0	37819	0	0	0	29698	28340	153807	26741	1082090	47062	111049	0	0	8098	546728	0	0
2024-08-31 17:04:47			0	37807	0	0	0	29685	28330	153659	27189	1082054	47062	111044	0	0	8098	547223	0	0
2024-08-31 17:05:47			0	37809	0	0	0	29677	28340	153779	26934	1082036	47062	111041	0	0	8098	547114	0	0
2024-08-31 17:06:47			0	37803	0	0	0	29688	28320	153731	27081	1081955	47050	111045	0	0	8097	547409	0	0
2024-08-31 17:07:47			0	37807	0	0	0	29693	28320	153811	27059	1081973	47060	111047	0	0	8097	547254	0	0
2024-08-31 17:08:47			0	37805	0	0	0	29703	28320	153899	27279	1082054	47072	111051	0	0	8097	547331	0	0
2024-08-31 17:09:47			0	37809	0	0	0	29701	28320	153915	27017	1082036	47083	111050	0	0	8097	547177	0	0
2024-08-31 17:10:47			0	37809	0	0	0	29698	28320	153727	27232	1082000	47060	111049	0	0	8097	547177	0	0
2024-08-31 17:11:47			0	37804	0	0	0	29703	28310	153871	27286	1082018	47093	111051	0	0	8097	547402	0	0
2024-08-31 17:12:47			0	37799	0	0	0	29693	28310	153827	27161	1081991	47083	111047	0	0	8097	547595	0	0
2024-08-31 17:13:47			0	37799	0	0	0	29703	28310	153847	27282	1082072	47072	111051	0	0	8097	547595	0	0
2024-08-31 17:14:47			0	37799	0	0	0	29719	28320	153847	26896	1082054	47072	111057	0	0	8096	547563	0	0
2024-08-31 17:15:47			0	37794	0	0	0	29711	28320	153935	27123	1082063	47061	111054	0	0	8096	547756	0	0
2024-08-31 17:16:47			0	37756	0	0	0	29672	28330	153859	27156	1082045	47062	111039	0	0	8095	549192	0	0
2024-08-31 17:17:47			0	37792	0	0	0	29680	28320	153791	26972	1081973	47049	111042	0	0	8097	547833	0	0
2024-08-31 17:18:47			0	37794	0	0	0	29690	28310	153855	27218	1081928	47060	111046	0	0	8097	547787	0	0
2024-08-31 17:19:47			0	37795	0	0	0	29732	28330	153883	27248	1082045	47074	111062	0	0	8096	547686	0	0
2024-08-31 17:20:47			0	37786	0	0	0	29740	28330	153943	27267	1082099	47084	111065	0	0	8095	548033	0	0
2024-08-31 17:21:47			0	37827	0	0	0	29732	28330	153991	27528	1082126	47084	111062	0	0	8098	546452	0	0
2024-08-31 17:22:47			0	37773	0	0	0	29675	28330	153791	27246	1082072	47084	111040	0	0	8096	548535	0	0
2024-08-31 17:23:47			0	37824	0	0	0	29677	28330	153831	27339	1082072	47074	111041	0	0	8099	546567	0	0
2024-08-31 17:24:47			0	37803	0	0	0	29714	28320	153883	27315	1082081	47060	111055	0	0	8097	547409	0	0
2024-08-31 17:25:47			0	37822	0	0	0	29732	28320	153791	27164	1082108	47072	111062	0	0	8098	546676	0	0
2024-08-31 17:26:47			0	37835	0	0	0	29779	28330	153727	26790	1082135	47084	111080	0	0	8098	546144	0	0
2024-08-31 17:27:47			0	37825	0	0	0	29768	28330	153867	27275	1082216	47107	111076	0	0	8097	546529	0	0
2024-08-31 17:28:47			0	37820	0	0	0	29740	28350	153787	27022	1082243	47086	111065	0	0	8097	546658	0	0
2024-08-31 17:29:47			0	37849	0	0	0	29727	28340	153719	26804	1082252	47074	111060	0	0	8099	545573	0	0
2024-08-31 17:30:47			0	37836	0	0	0	29735	28340	153575	26994	1082153	47075	111063	0	0	8098	546074	0	0
2024-08-31 17:31:47			0	37863	0	0	0	29763	28340	153563	27118	1082207	47063	111074	0	0	8099	545035	0	0
2024-08-31 17:32:47			0	37855	0	0	0	29776	28350	153463	27272	1082297	47086	111079	0	0	8099	545311	0	0
2024-08-31 17:33:47			0	37882	0	0	0	29786	28360	153475	27072	1082315	47076	111083	0	0	8100	544241	0	0
2024-08-31 17:34:47			0	37871	0	0	0	29774	28360	153495	27086	1082369	47098	111078	0	0	8100	544664	0	0
2024-08-31 17:35:47			0	37899	0	0	0	29766	28360	153355	26991	1082288	47086	111075	0	0	8102	543588	0	0
2024-08-31 17:36:47			0	37896	0	0	0	29768	28360	153355	27313	1082324	47087	111076	0	0	8101	543703	0	0
2024-08-31 17:37:47			0	37893	0	0	0	29774	28370	153355	27220	1082414	47078	111078	0	0	8101	543787	0	0
2024-08-31 17:38:47			0	37910	0	0	0	29786	28360	153383	27052	1082378	47099	111083	0	0	8102	543166	0	0
2024-08-31 17:39:47			0	37887	0	0	0	29786	28360	153359	27066	1082405	47087	111083	0	0	8101	544049	0	0
2024-08-31 17:40:47			0	37896	0	0	0	29774	28370	153451	27076	1082441	47088	111078	0	0	8101	543672	0	0
2024-08-31 17:41:47			0	37921	0	0	0	29779	28380	153471	26994	1082432	47079	111080	0	0	8103	542681	0	0
2024-08-31 17:42:47			0	37913	0	0	0	29805	28390	153271	27116	1082451	47090	111090	0	0	8102	542957	0	0
2024-08-31 17:43:47			0	37913	0	0	0	29786	28380	153303	26949	1082406	47089	111083	0	0	8102	542988	0	0
2024-08-31 17:44:47			0	37906	0	0	0	29789	28380	153323	27144	1082522	47089	111084	0	0	8102	543257	0	0
2024-08-31 17:45:47			0	37895	0	0	0	29792	28380	153411	26941	1082513	47067	111085	0	0	8101	543679	0	0
2024-08-31 17:46:47			0	37909	0	0	0	29779	28390	153351	27104	1082397	47068	111080	0	0	8102	543110	0	0
2024-08-31 17:47:47			0	37906	0	0	0	29779	28400	153295	26968	1082487	47081	111080	0	0	8102	543194	0	0
2024-08-31 17:48:47			0	37894	0	0	0	29766	28380	153311	27069	1082442	47067	111075	0	0	8101	543717	0	0
2024-08-31 17:49:47			0	37920	0	0	0	29781	28380	153235	27199	1082388	47079	111081	0	0	8103	542720	0	0
2024-08-31 17:50:47			0	37901	0	0	0	29797	28390	153335	27008	1082451	47080	111087	0	0	8101	543417	0	0
2024-08-31 17:51:47			0	37896	0	0	0	29810	28400	153295	26987	1082460	47091	111092	0	0	8101	543578	0	0
2024-08-31 17:52:47			0	37886	0	0	0	29810	28390	153375	26906	1082505	47080	111092	0	0	8100	543993	0	0
2024-08-31 17:53:47			0	37881	0	0	0	29805	28390	153363	26934	1082397	47090	111090	0	0	8100	544185	0	0
2024-08-31 17:54:47			0	37891	0	0	0	29805	28400	153271	27111	1082496	47081	111090	0	0	8101	543770	0	0
2024-08-31 17:55:47			0	37883	0	0	0	29810	28400	153395	26838	1082550	47103	111092	0	0	8100	544077	0	0
2024-08-31 17:56:47			0	37900	0	0	0	29789	28400	153383	26857	1082523	47069	111084	0	0	8101	543424	0	0
2024-08-31 17:57:47			0	37903	0	0	0	29807	28410	153443	27126	1082586	47081	111091	0	0	8101	543278	0	0
2024-08-31 17:58:47			0	37896	0	0	0	29794	28410	153271	27064	1082613	47103	111086	0	0	8101	543546	0	0
2024-08-31 17:59:47			0	37888	0	0	0	29781	28420	153347	27147	1082577	47083	111081	0	0	8101	543822	0	0
2024-08-31 18:00:47			0	37876	0	0	0	29794	28420	153219	26724	1082550	47093	111086	0	0	8100	544283	0	0
2024-08-31 18:01:47			0	37877	0	0	0	29771	28420	153327	27166	1082523	47083	111077	0	0	8101	544245	0	0
2024-08-31 18:02:47			0	37888	0	0	0	29792	28420	153339	27128	1082550	47093	111085	0	0	8101	543822	0	0
2024-08-31 18:03:47			0	37895	0	0	0	29815	28410	153347	27066	1082541	47082	111094	0	0	8101	543585	0	0
2024-08-31 18:04:47			0	37906	0	0	0	29807	28410	153355	26870	1082532	47091	111091	0	0	8102	543163	0	0
2024-08-31 18:05:47			0	37897	0	0	0	29805	28410	153279	26982	1082514	47092	111090	0	0	8101	543508	0	0
2024-08-31 18:06:47			0	37892	0	0	0	29807	28420	153339	26878	1082586	47093	111091	0	0	8101	543668	0	0
2024-08-31 18:07:47			0	37892	0	0	0	29807	28410	153403	27164	1082595	47070	111091	0	0	8101	543700	0	0
2024-08-31 18:08:47			0	37901	0	0	0	29792	28410	153351	27202	1082541	47082	111085	0	0	8102	543354	0	0
2024-08-31 18:09:47			0	37902	0	0	0	29786	28410	153403	27319	1082568	47082	111083	0	0	8102	543316	0	0
2024-08-31 18:10:47			0	37895	0	0	0	29766	28410	153391	27263	1082541	47092	111075	0	0	8102	543585	0	0
2024-08-31 18:11:47			0	37888	0	0	0	29706	28410	153339	26727	1082460	47082	111052	0	0	8102	543853	0	0
2024-08-31 18:12:47			0	37905	0	0	0	29690	28390	153287	27140	1082370	47057	111046	0	0	8103	543264	0	0
2024-08-31 18:13:47			0	37928	0	0	0	29711	28380	153275	27176	1082226	47056	111054	0	0	8104	542413	0	0
2024-08-31 18:14:47			0	37914	0	0	0	29709	28370	153311	27248	1082208	47067	111053	0	0	8103	542981	0	0
2024-08-31 18:15:47			0	37928	0	0	0	29706	28370	153287	27258	1082199	47078	111052	0	0	8104	542444	0	0
2024-08-31 18:16:47			0	37916	0	0	0	29659	28360	153327	26930	1082180	47053	111034	0	0	8104	542936	0	0
2024-08-31 18:17:47			0	37910	0	0	0	29680	28360	153251	27175	1082153	47064	111042	0	0	8104	543166	0	0
2024-08-31 18:18:47			0	37921	0	0	0	29633	28350	153275	27111	1082117	47076	111024	0	0	8105	542775	0	0
2024-08-31 18:19:47			0	37910	0	0	0	29659	28340	153259	26989	1082072	47063	111034	0	0	8104	543229	0	0
2024-08-31 18:20:47			0	37934	0	0	0	29638	28340	153203	27081	1082063	47062	111026	0	0	8106	542308	0	0
2024-08-31 18:21:47			0	37937	0	0	0	29610	28340	153251	26901	1082009	47051	111015	0	0	8106	542193	0	0
2024-08-31 18:22:47			0	37937	0	0	0	29615	28320	153123	27019	1081901	47073	111017	0	0	8106	542256	0	0
2024-08-31 18:23:47			0	37935	0	0	0	29625	28310	153199	26937	1081883	47072	111021	0	0	8106	542364	0	0
2024-08-31 18:24:47			0	37920	0	0	0	29641	28320	153287	27114	1081874	47073	111027	0	0	8105	542908	0	0
2024-08-31 18:25:47			0	37929	0	0	0	29625	28300	153287	27085	1081775	47047	111021	0	0	8105	542625	0	0
2024-08-31 18:26:47			0	37945	0	0	0	29636	28310	153275	26781	1081874	47072	111025	0	0	8106	541980	0	0
2024-08-31 18:27:47			0	37935	0	0	0	29675	28300	153323	27076	1081856	47081	111040	0	0	8105	542395	0	0
2024-08-31 18:28:47			0	37907	0	0	0	29654	28300	153251	27135	1081963	47081	111032	0	0	8104	543469	0	0
2024-08-31 18:29:47			0	37916	0	0	0	29631	28300	153271	27166	1081892	47059	111023	0	0	8105	543124	0	0
2024-08-31 18:30:47			0	37946	0	0	0	29657	28300	153163	26894	1081883	47070	111033	0	0	8106	541973	0	0
2024-08-31 18:31:47			0	37952	0	0	0	29701	28300	153251	27230	1081937	47081	111050	0	0	8105	541743	0	0
2024-08-31 18:32:47			0	37953	0	0	0	29664	28300	153219	27154	1081946	47071	111036	0	0	8106	541705	0	0
2024-08-31 18:33:47			0	37969	0	0	0	29649	28300	153191	27213	1081919	47071	111030	0	0	8107	541092	0	0
2024-08-31 18:34:47			0	37965	0	0	0	29662	28300	153139	27177	1081883	47070	111035	0	0	8107	541246	0	0
2024-08-31 18:35:47			0	37963	0	0	0	29675	28300	153151	27204	1081910	47070	111040	0	0	8107	541322	0	0
2024-08-31 18:36:47			0	37979	0	0	0	29677	28300	153111	27128	1081910	47070	111041	0	0	8107	540710	0	0
2024-08-31 18:37:47			0	37987	0	0	0	29649	28290	153079	26724	1081927	47058	111030	0	0	8108	540435	0	0
2024-08-31 18:38:47			0	37985	0	0	0	29667	28300	153203	27196	1081856	47070	111037	0	0	8108	540480	0	0
2024-08-31 18:39:47			0	37997	0	0	0	29646	28290	153135	26955	1081874	47070	111029	0	0	8109	540052	0	0
2024-08-31 18:40:47			0	37983	0	0	0	29649	28290	153043	27057	1081864	47069	111030	0	0	8108	540588	0	0
2024-08-31 18:41:47			0	37991	0	0	0	29654	28280	153055	27286	1081828	47057	111032	0	0	8108	540313	0	0
2024-08-31 18:42:47			0	37995	0	0	0	29670	28280	153023	26731	1081855	47069	111038	0	0	8108	540160	0	0
2024-08-31 18:43:47			0	37982	0	0	0	29716	28300	153079	26885	1081910	47070	111056	0	0	8107	540595	0	0
2024-08-31 18:44:47			0	37979	0	0	0	29716	28290	153119	27079	1081981	47091	111056	0	0	8107	540741	0	0
2024-08-31 18:45:47			0	37978	0	0	0	29703	28300	153183	27104	1082026	47092	111051	0	0	8107	540748	0	0
2024-08-31 18:46:47			0	37975	0	0	0	29719	28300	153155	26828	1082026	47082	111057	0	0	8106	540863	0	0
2024-08-31 18:47:47			0	37982	0	0	0	29701	28310	153111	26904	1082018	47072	111050	0	0	8107	540564	0	0
2024-08-31 18:48:47			0	37973	0	0	0	29677	28300	153055	26844	1081946	47071	111041	0	0	8107	540939	0	0
2024-08-31 18:49:47			0	37967	0	0	0	29672	28310	153191	27024	1081982	47072	111039	0	0	8107	541138	0	0
2024-08-31 18:50:47			0	37975	0	0	0	29672	28300	153179	27029	1081937	47058	111039	0	0	8107	540863	0	0
2024-08-31 18:51:47			0	37942	0	0	0	29659	28300	153267	27024	1081892	47071	111034	0	0	8106	542127	0	0
2024-08-31 18:52:47			0	37933	0	0	0	29620	28300	153227	26942	1081892	47082	111019	0	0	8106	542472	0	0
2024-08-31 18:53:47			0	37949	0	0	0	29584	28300	153251	26733	1081829	47058	111005	0	0	8107	541858	0	0
2024-08-31 18:54:47			0	37951	0	0	0	29610	28280	153339	26944	1081765	47056	111015	0	0	8107	541844	0	0
2024-08-31 18:55:47			0	37950	0	0	0	29615	28270	153403	26955	1081693	47055	111017	0	0	8107	541914	0	0
2024-08-31 18:56:47			0	37931	0	0	0	29623	28260	153387	27017	1081684	47055	111020	0	0	8105	542674	0	0
2024-08-31 18:57:47			0	37938	0	0	0	29620	28270	153471	26968	1081693	47055	111019	0	0	8106	542374	0	0
2024-08-31 18:58:47			0	37934	0	0	0	29625	28250	153467	26717	1081692	47053	111021	0	0	8105	542590	0	0
2024-08-31 18:59:47			0	37927	0	0	0	29623	28250	153419	26804	1081656	47053	111020	0	0	8105	542859	0	0
2024-08-31 19:00:47			0	37919	0	0	0	29677	28250	153491	27130	1081773	47076	111041	0	0	8104	543166	0	0
2024-08-31 19:01:47			0	37917	0	0	0	29677	28250	153471	26975	1081773	47086	111041	0	0	8104	543243	0	0
2024-08-31 19:02:47			0	37924	0	0	0	29675	28270	153539	26892	1081855	47088	111040	0	0	8104	542911	0	0
2024-08-31 19:03:47			0	37915	0	0	0	29683	28270	153571	26687	1081801	47078	111043	0	0	8103	543256	0	0
2024-08-31 19:04:47			0	37928	0	0	0	29688	28270	153543	26887	1081810	47088	111045	0	0	8104	542758	0	0
2024-08-31 19:05:47			0	37905	0	0	0	29693	28270	153531	26994	1081855	47067	111047	0	0	8103	543641	0	0
2024-08-31 19:06:47			0	37908	0	0	0	29693	28280	153523	26790	1081855	47080	111047	0	0	8103	543494	0	0
2024-08-31 19:07:47			0	37906	0	0	0	29701	28280	153551	27187	1081900	47079	111050	0	0	8103	543571	0	0
2024-08-31 19:08:47			0	37900	0	0	0	29698	28280	153547	27253	1081882	47080	111049	0	0	8102	543801	0	0
2024-08-31 19:09:47			0	37914	0	0	0	29696	28280	153623	27203	1081900	47089	111048	0	0	8103	543264	0	0
2024-08-31 19:10:47			0	37904	0	0	0	29706	28280	153555	27249	1081882	47080	111052	0	0	8103	543648	0	0
2024-08-31 19:11:47			0	37914	0	0	0	29701	28280	153691	27190	1081909	47080	111050	0	0	8103	543264	0	0
2024-08-31 19:12:47			0	37907	0	0	0	29693	28280	153563	27024	1081900	47079	111047	0	0	8103	543532	0	0
2024-08-31 19:13:47			0	37896	0	0	0	29706	28300	153599	26856	1081937	47070	111052	0	0	8102	543892	0	0
2024-08-31 19:14:47			0	37904	0	0	0	29711	28270	153547	26934	1081945	47078	111054	0	0	8102	543679	0	0
2024-08-31 19:15:47			0	37889	0	0	0	29706	28300	153539	27052	1081973	47082	111052	0	0	8102	544161	0	0
2024-08-31 19:16:47			0	37902	0	0	0	29711	28300	153567	27085	1081990	47091	111054	0	0	8102	543662	0	0
2024-08-31 19:17:47			0	37908	0	0	0	29701	28300	153551	27090	1082026	47092	111050	0	0	8103	543431	0	0
2024-08-31 19:18:47			0	37905	0	0	0	29680	28290	153527	27156	1081981	47091	111042	0	0	8103	543578	0	0
2024-08-31 19:19:47			0	37905	0	0	0	29633	28290	153519	27341	1081901	47081	111024	0	0	8104	543578	0	0
2024-08-31 19:20:47			0	37905	0	0	0	29649	28300	153551	27265	1081919	47071	111030	0	0	8104	543546	0	0
2024-08-31 19:21:47			0	37910	0	0	0	29636	28280	153439	27277	1081792	47079	111025	0	0	8104	543417	0	0
2024-08-31 19:22:47			0	37902	0	0	0	29649	28280	153503	27168	1081882	47080	111030	0	0	8103	543724	0	0
2024-08-31 19:23:47			0	37898	0	0	0	29667	28280	153539	27163	1081846	47056	111037	0	0	8103	543878	0	0
2024-08-31 19:24:47			0	37900	0	0	0	29672	28280	153591	27201	1081846	47079	111039	0	0	8103	543801	0	0
2024-08-31 19:25:47			0	37903	0	0	0	29677	28270	153627	26892	1081891	47078	111041	0	0	8103	543717	0	0
2024-08-31 19:26:47			0	37897	0	0	0	29675	28280	153531	27081	1081882	47069	111040	0	0	8103	543916	0	0
2024-08-31 19:27:47			0	37898	0	0	0	29680	28280	153583	27081	1081846	47068	111042	0	0	8103	543878	0	0
2024-08-31 19:28:47			0	37883	0	0	0	29672	28270	153635	27232	1081945	47067	111039	0	0	8102	544486	0	0
2024-08-31 19:29:47			0	37897	0	0	0	29677	28280	153535	27170	1081900	47068	111041	0	0	8103	543916	0	0
2024-08-31 19:30:47			0	37892	0	0	0	29680	28270	153615	27187	1081864	47078	111042	0	0	8102	544140	0	0
2024-08-31 19:31:47			0	37888	0	0	0	29688	28270	153539	26944	1081837	47088	111045	0	0	8102	544294	0	0
2024-08-31 19:32:47			0	37888	0	0	0	29680	28280	153571	26915	1081873	47068	111042	0	0	8102	544262	0	0
2024-08-31 19:33:47			0	37891	0	0	0	29662	28270	153599	27104	1081837	47078	111035	0	0	8102	544178	0	0
2024-08-31 19:34:47			0	37870	0	0	0	29623	28280	153639	27144	1081828	47069	111020	0	0	8102	544954	0	0
2024-08-31 19:35:47			0	37882	0	0	0	29605	28280	153587	27190	1081792	47089	111013	0	0	8103	544493	0	0
2024-08-31 19:36:47			0	37868	0	0	0	29631	28270	153595	27072	1081864	47078	111023	0	0	8102	545063	0	0
2024-08-31 19:37:47			0	37859	0	0	0	29649	28280	153535	27074	1081765	47068	111030	0	0	8101	545377	0	0
2024-08-31 19:38:47			0	37857	0	0	0	29542	28270	153743	26726	1081828	47067	110989	0	0	8103	545486	0	0
2024-08-31 19:39:47			0	37851	0	0	0	29537	28270	153703	27268	1081756	47078	110987	0	0	8102	545717	0	0
2024-08-31 19:40:47			0	37849	0	0	0	29535	28260	153731	27111	1081684	47067	110986	0	0	8102	545825	0	0
2024-08-31 19:41:47			0	37850	0	0	0	29490	28260	153703	26993	1081630	47055	110969	0	0	8103	545787	0	0
2024-08-31 19:42:47			0	37838	0	0	0	29451	28240	153759	27234	1081566	47053	110954	0	0	8103	546312	0	0
2024-08-31 19:43:47			0	37842	0	0	0	29451	28220	153687	27005	1081341	47017	110954	0	0	8103	546221	0	0
2024-08-31 19:44:47			0	37837	0	0	0	29449	28220	153795	27209	1081314	47017	110953	0	0	8103	546414	0	0
2024-08-31 19:45:47			0	37843	0	0	0	29464	28180	153831	26937	1081161	47024	110959	0	0	8103	546309	0	0
2024-08-31 19:46:47			0	37813	0	0	0	29464	28180	153859	27074	1081179	47046	110959	0	0	8101	547466	0	0
2024-08-31 19:47:47			0	37829	0	0	0	29462	28170	153903	27069	1081197	47057	110958	0	0	8102	546880	0	0
2024-08-31 19:48:47			0	37815	0	0	0	29436	28160	153903	27038	1081142	47033	110948	0	0	8101	547452	0	0
2024-08-31 19:49:47			0	37781	0	0	0	29394	28150	154063	27145	1081052	47043	110932	0	0	8100	548796	0	0
2024-08-31 19:50:47			0	37806	0	0	0	29355	28150	153991	27175	1080935	47020	110917	0	0	8102	547831	0	0
2024-08-31 19:51:47			0	37787	0	0	0	29363	28120	154023	27069	1080827	47017	110920	0	0	8101	548659	0	0
2024-08-31 19:52:47			0	37781	0	0	0	29399	28110	154147	26876	1080755	46994	110934	0	0	8100	548923	0	0
2024-08-31 19:53:47			0	37764	0	0	0	29425	28090	154171	26987	1080727	47037	110944	0	0	8098	549644	0	0
2024-08-31 19:54:47			0	37765	0	0	0	29431	28080	154179	26883	1080745	47037	110946	0	0	8098	549637	0	0
2024-08-31 19:55:47			0	37761	0	0	0	29433	28070	154319	26994	1080754	47046	110947	0	0	8098	549823	0	0
2024-08-31 19:56:47			0	37761	0	0	0	29397	28070	154215	26993	1080745	47035	110933	0	0	8099	549823	0	0
2024-08-31 19:57:47			0	37752	0	0	0	29386	28070	154235	27381	1080673	47046	110929	0	0	8098	550172	0	0
2024-08-31 19:58:47			0	37762	0	0	0	29397	28060	154243	26974	1080655	47035	110933	0	0	8099	549816	0	0
2024-08-31 19:59:47			0	37751	0	0	0	29405	28060	154331	27154	1080682	47057	110936	0	0	8098	550242	0	0
2024-08-31 20:00:47			0	37741	0	0	0	29446	28070	154315	27222	1080799	47057	110952	0	0	8097	550598	0	0
2024-08-31 20:01:47			0	37735	0	0	0	29446	28070	154411	26897	1080808	47058	110952	0	0	8096	550830	0	0
2024-08-31 20:02:47			0	37715	0	0	0	29472	28060	154359	26975	1080817	47045	110962	0	0	8095	551637	0	0
2024-08-31 20:03:47			0	37726	0	0	0	29470	28060	154379	27294	1080844	47068	110961	0	0	8095	551211	0	0
2024-08-31 20:04:47			0	37727	0	0	0	29477	28060	154379	27161	1080871	47068	110964	0	0	8095	551172	0	0
2024-08-31 20:05:47			0	37739	0	0	0	29454	28080	154299	27140	1080844	47058	110955	0	0	8096	550643	0	0
2024-08-31 20:06:47			0	37739	0	0	0	29475	28070	154331	27013	1080889	47058	110963	0	0	8096	550675	0	0
2024-08-31 20:07:47			0	37732	0	0	0	29506	28070	154343	26823	1080880	47057	110975	0	0	8095	550946	0	0
2024-08-31 20:08:47			0	37739	0	0	0	29503	28070	154351	26668	1080862	47058	110974	0	0	8095	550675	0	0
2024-08-31 20:09:47			0	37749	0	0	0	29472	28080	154415	26785	1080961	47070	110962	0	0	8097	550256	0	0
2024-08-31 20:10:47			0	37739	0	0	0	29493	28080	154223	26804	1080844	47058	110970	0	0	8096	550643	0	0
2024-08-31 20:11:47			0	37735	0	0	0	29490	28080	154275	26637	1080907	47059	110969	0	0	8095	550798	0	0
2024-08-31 20:12:47			0	37748	0	0	0	29485	28080	154279	26909	1080934	47070	110967	0	0	8096	550295	0	0
2024-08-31 20:13:47			0	37742	0	0	0	29485	28080	154179	26970	1080934	47059	110967	0	0	8096	550527	0	0
2024-08-31 20:14:47			0	37741	0	0	0	29467	28090	154203	27033	1080943	47059	110960	0	0	8096	550534	0	0
2024-08-31 20:15:47			0	37742	0	0	0	29467	28090	154259	26944	1080997	47070	110960	0	0	8096	550495	0	0
2024-08-31 20:16:47			0	37768	0	0	0	29446	28080	154255	26785	1080907	47059	110952	0	0	8098	549521	0	0
2024-08-31 20:17:47			0	37751	0	0	0	29444	28090	154243	26892	1080871	47060	110951	0	0	8097	550147	0	0
2024-08-31 20:18:47			0	37748	0	0	0	29449	28080	154211	27039	1080880	47047	110953	0	0	8097	550295	0	0
2024-08-31 20:19:47			0	37760	0	0	0	29438	28080	154327	26889	1080898	47058	110949	0	0	8098	549830	0	0
2024-08-31 20:20:47			0	37752	0	0	0	29423	28070	154287	26890	1080754	47046	110943	0	0	8098	550172	0	0
2024-08-31 20:21:47			0	37757	0	0	0	29423	28080	154303	26967	1080736	47036	110943	0	0	8098	549946	0	0
2024-08-31 20:22:47			0	37742	0	0	0	29425	28070	154319	26963	1080799	47057	110944	0	0	8097	550559	0	0
2024-08-31 20:23:47			0	37733	0	0	0	29441	28070	154351	27055	1080808	47058	110950	0	0	8096	550907	0	0
2024-08-31 20:24:47			0	37751	0	0	0	29420	28060	154251	27176	1080763	47057	110942	0	0	8098	550242	0	0
2024-08-31 20:25:47			0	37726	0	0	0	29410	28060	154219	26896	1080682	47045	110938	0	0	8096	551211	0	0
2024-08-31 20:26:47			0	37728	0	0	0	29399	28050	154307	26783	1080664	47034	110934	0	0	8096	551165	0	0
2024-08-31 20:27:47			0	37730	0	0	0	29405	28040	154251	26958	1080619	47054	110936	0	0	8096	551119	0	0
2024-08-31 20:28:47			0	37725	0	0	0	29399	28050	154299	26923	1080628	47033	110934	0	0	8096	551281	0	0
2024-08-31 20:29:47			0	37718	0	0	0	29410	28050	154343	26823	1080610	47056	110938	0	0	8096	551553	0	0
2024-08-31 20:30:47			0	37741	0	0	0	29402	28040	154451	27249	1080664	47032	110935	0	0	8097	550693	0	0
2024-08-31 20:31:47			0	37740	0	0	0	29394	28040	154471	27105	1080556	47042	110932	0	0	8097	550732	0	0
2024-08-31 20:32:47			0	37734	0	0	0	29389	28030	154411	26894	1080493	47054	110930	0	0	8097	550996	0	0
2024-08-31 20:33:47			0	37734	0	0	0	29379	28020	154431	27043	1080501	47041	110926	0	0	8097	551028	0	0
2024-08-31 20:34:47			0	37711	0	0	0	29379	28010	154527	26896	1080429	47030	110926	0	0	8096	551951	0	0
2024-08-31 20:35:47			0	37702	0	0	0	29374	28020	154507	26854	1080411	47041	110924	0	0	8095	552269	0	0
2024-08-31 20:36:47			0	37691	0	0	0	29392	28000	154551	27131	1080438	47061	110931	0	0	8094	552760	0	0
2024-08-31 20:37:47			0	37713	0	0	0	29397	28010	154579	27171	1080483	47052	110933	0	0	8095	551874	0	0
2024-08-31 20:38:47			0	37686	0	0	0	29407	28010	154575	26873	1080474	47040	110937	0	0	8094	552922	0	0
2024-08-31 20:39:47			0	37696	0	0	0	29389	28000	154507	26774	1080465	47073	110930	0	0	8095	552565	0	0
2024-08-31 20:40:47			0	37690	0	0	0	29394	28000	154503	27234	1080411	47050	110932	0	0	8094	552799	0	0
2024-08-31 20:41:47			0	37705	0	0	0	29379	28000	154547	26880	1080429	47039	110926	0	0	8095	552216	0	0
2024-08-31 20:42:47			0	37694	0	0	0	29371	28010	154667	27149	1080393	47040	110923	0	0	8095	552611	0	0
2024-08-31 20:43:47			0	37692	0	0	0	29363	27990	154483	26805	1080357	47049	110920	0	0	8095	552753	0	0
2024-08-31 20:44:47			0	37679	0	0	0	29374	27990	154579	27092	1080330	47049	110924	0	0	8094	553258	0	0
2024-08-31 20:45:47			0	37705	0	0	0	29399	27990	154539	26797	1080438	47038	110934	0	0	8095	552248	0	0
2024-08-31 20:46:47			0	37693	0	0	0	29392	27990	154563	26828	1080447	47060	110931	0	0	8094	552714	0	0
2024-08-31 20:47:47			0	37682	0	0	0	29353	27990	154539	27109	1080357	47049	110916	0	0	8094	553141	0	0
2024-08-31 20:48:47			0	37704	0	0	0	29348	27990	154499	26982	1080366	47049	110914	0	0	8096	552287	0	0
2024-08-31 20:49:47			0	37695	0	0	0	29348	27990	154607	27026	1080438	47049	110914	0	0	8095	552636	0	0
2024-08-31 20:50:47			0	37682	0	0	0	29348	27980	154599	26913	1080339	47047	110914	0	0	8094	553173	0	0
2024-08-31 20:51:47			0	37691	0	0	0	29340	27990	154543	27144	1080330	47038	110911	0	0	8095	552791	0	0
2024-08-31 20:52:47			0	37698	0	0	0	29335	27980	154595	26928	1080294	47037	110909	0	0	8096	552551	0	0
2024-08-31 20:53:47			0	37694	0	0	0	29324	27980	154671	27244	1080240	47026	110905	0	0	8095	552707	0	0
2024-08-31 20:54:47			0	37700	0	0	0	29337	27970	154555	27050	1080240	47036	110910	0	0	8096	552506	0	0
2024-08-31 20:55:47			0	37709	0	0	0	29363	27980	154639	27154	1080312	47036	110920	0	0	8096	552125	0	0
2024-08-31 20:56:47			0	37684	0	0	0	29363	27970	154599	27033	1080267	47036	110920	0	0	8094	553127	0	0
2024-08-31 20:57:47			0	37682	0	0	0	29361	27970	154507	27138	1080267	47047	110919	0	0	8094	553205	0	0
2024-08-31 20:58:47			0	37695	0	0	0	29358	27970	154599	26991	1080321	47047	110918	0	0	8095	552700	0	0
2024-08-31 20:59:47			0	37694	0	0	0	29358	27960	154559	27050	1080311	47069	110918	0	0	8095	552771	0	0
2024-08-31 21:00:47			0	37702	0	0	0	29366	27960	154607	27092	1080285	47057	110921	0	0	8095	552460	0	0
2024-08-31 21:01:47			0	37701	0	0	0	29374	27980	154647	27093	1080339	47058	110924	0	0	8095	552435	0	0
2024-08-31 21:02:47			0	37686	0	0	0	29368	27960	154683	27001	1080285	47046	110922	0	0	8094	553081	0	0
2024-08-31 21:03:47			0	37693	0	0	0	29379	27970	154555	26935	1080267	47069	110926	0	0	8094	552778	0	0
2024-08-31 21:04:47			0	37676	0	0	0	29355	27980	154587	26960	1080339	47036	110917	0	0	8094	553406	0	0
2024-08-31 21:05:47			0	37694	0	0	0	29348	27960	154615	27024	1080275	47045	110914	0	0	8095	552771	0	0
2024-08-31 21:06:47			0	37675	0	0	0	29348	27950	154739	26896	1080212	47045	110914	0	0	8094	553541	0	0
2024-08-31 21:07:47			0	37683	0	0	0	29358	27960	154635	27204	1080222	47045	110918	0	0	8094	553198	0	0
2024-08-31 21:08:47			0	37677	0	0	0	29361	27950	154743	27246	1080239	47045	110919	0	0	8094	553463	0	0
2024-08-31 21:09:47			0	37684	0	0	0	29363	27950	154731	27227	1080257	47045	110920	0	0	8094	553191	0	0
2024-08-31 21:10:47			0	37673	0	0	0	29371	27960	154767	27187	1080222	47056	110923	0	0	8093	553587	0	0
2024-08-31 21:11:47			0	37671	0	0	0	29355	27960	154819	27020	1080231	47035	110917	0	0	8094	553664	0	0
2024-08-31 21:12:47			0	37689	0	0	0	29361	27960	154647	27119	1080285	47035	110919	0	0	8094	552965	0	0
2024-08-31 21:13:47			0	37687	0	0	0	29355	27940	154651	27076	1080221	47033	110917	0	0	8094	553106	0	0
2024-08-31 21:14:47			0	37672	0	0	0	29358	27950	154715	26863	1080186	47045	110918	0	0	8093	553657	0	0
2024-08-31 21:15:47			0	37686	0	0	0	29366	27950	154723	27100	1080239	47056	110921	0	0	8094	553113	0	0
2024-08-31 21:16:47			0	37672	0	0	0	29361	27950	154667	27128	1080212	47056	110919	0	0	8093	553657	0	0
2024-08-31 21:17:47			0	37666	0	0	0	29361	27950	154723	27124	1080266	47056	110919	0	0	8093	553891	0	0
2024-08-31 21:18:47			0	37673	0	0	0	29361	27950	154691	26786	1080239	47034	110919	0	0	8093	553619	0	0
2024-08-31 21:19:47			0	37660	0	0	0	29363	27960	154675	27152	1080195	47056	110920	0	0	8093	554092	0	0
2024-08-31 21:20:47			0	37666	0	0	0	29371	27960	154847	27098	1080222	47045	110923	0	0	8093	553859	0	0
2024-08-31 21:21:47			0	37652	0	0	0	29368	27950	154867	27088	1080257	47056	110922	0	0	8092	554435	0	0
2024-08-31 21:22:47			0	37658	0	0	0	29368	27950	154719	26937	1080284	47045	110922	0	0	8092	554202	0	0
2024-08-31 21:23:47			0	37664	0	0	0	29358	27960	154787	26974	1080248	47045	110918	0	0	8093	553937	0	0
2024-08-31 21:24:47			0	37668	0	0	0	29368	27960	154707	26955	1080275	47034	110922	0	0	8093	553781	0	0
2024-08-31 21:25:47			0	37662	0	0	0	29353	27960	154675	26904	1080302	47056	110916	0	0	8093	554014	0	0
2024-08-31 21:26:47			0	37669	0	0	0	29363	27950	154707	26880	1080266	47045	110920	0	0	8093	553774	0	0
2024-08-31 21:27:47			0	37666	0	0	0	29353	27950	154787	26909	1080257	47045	110916	0	0	8093	553891	0	0
2024-08-31 21:28:47			0	37676	0	0	0	29353	27950	154791	27230	1080239	47045	110916	0	0	8094	553502	0	0
2024-08-31 21:29:47			0	37662	0	0	0	29366	27950	154679	27022	1080230	47045	110921	0	0	8093	554046	0	0
2024-08-31 21:30:47			0	37662	0	0	0	29348	27950	154819	26795	1080186	47045	110914	0	0	8093	554046	0	0
2024-08-31 21:31:47			0	37639	0	0	0	29355	27940	154791	26961	1080167	47033	110917	0	0	8092	554974	0	0
2024-08-31 21:32:47			0	37651	0	0	0	29355	27950	154811	26935	1080203	47045	110917	0	0	8092	554474	0	0
2024-08-31 21:33:47			0	37635	0	0	0	29355	27950	154871	26896	1080239	47056	110917	0	0	8091	555097	0	0
2024-08-31 21:34:47			0	37637	0	0	0	29358	27940	154743	27020	1080212	47043	110918	0	0	8091	555051	0	0
2024-08-31 21:35:47			0	37633	0	0	0	29355	27940	154871	26802	1080167	47055	110917	0	0	8091	555207	0	0
2024-08-31 21:36:47			0	37637	0	0	0	29345	27950	154831	27104	1080176	47056	110913	0	0	8092	555019	0	0
2024-08-31 21:37:47			0	37622	0	0	0	29353	27940	154883	27079	1080131	47032	110916	0	0	8091	555636	0	0
2024-08-31 21:38:47			0	37613	0	0	0	29342	27940	154899	26970	1080167	47033	110912	0	0	8090	555987	0	0
2024-08-31 21:39:47			0	37613	0	0	0	29348	27950	154991	27019	1080186	47045	110914	0	0	8090	555954	0	0
2024-08-31 21:40:47			0	37607	0	0	0	29348	27950	154975	26915	1080203	47045	110914	0	0	8090	556189	0	0
2024-08-31 21:41:47			0	37593	0	0	0	29345	27940	155063	26930	1080167	47055	110913	0	0	8089	556767	0	0
2024-08-31 21:42:47			0	37583	0	0	0	29340	27940	155047	26798	1080167	47055	110911	0	0	8089	557157	0	0
2024-08-31 21:43:47			0	37593	0	0	0	29340	27940	155083	27072	1080140	47044	110911	0	0	8089	556767	0	0
2024-08-31 21:44:47			0	37588	0	0	0	29332	27940	155179	26729	1080167	47055	110908	0	0	8089	556962	0	0
2024-08-31 21:45:47			0	37580	0	0	0	29327	27930	155203	27019	1080113	47043	110906	0	0	8089	557306	0	0
2024-08-31 21:46:47			0	37556	0	0	0	29324	27930	155247	27121	1080041	47043	110905	0	0	8087	558244	0	0
2024-08-31 21:47:47			0	37568	0	0	0	29327	27930	155307	27175	1080095	47043	110906	0	0	8088	557775	0	0
2024-08-31 21:48:47			0	37560	0	0	0	29322	27930	155303	26772	1080086	47054	110904	0	0	8088	558087	0	0
2024-08-31 21:49:47			0	37555	0	0	0	29322	27930	155263	26965	1080149	47043	110904	0	0	8087	558283	0	0
2024-08-31 21:50:47			0	37550	0	0	0	29311	27920	155263	27135	1080050	47031	110900	0	0	8087	558511	0	0
2024-08-31 21:51:47			0	37520	0	0	0	29306	27920	155355	27434	1080014	47041	110898	0	0	8085	559685	0	0
2024-08-31 21:52:47			0	37518	0	0	0	29309	27930	155471	27114	1080086	47043	110899	0	0	8085	559731	0	0
2024-08-31 21:53:47			0	37511	0	0	0	29303	27910	155427	27300	1079978	47041	110897	0	0	8085	560069	0	0
2024-08-31 21:54:47			0	37498	0	0	0	29301	27920	155423	26817	1080068	47041	110896	0	0	8084	560546	0	0
2024-08-31 21:55:47			0	37496	0	0	0	29316	27920	155523	26970	1079987	47041	110902	0	0	8084	560625	0	0
2024-08-31 21:56:47			0	37513	0	0	0	29309	27910	155463	27183	1080059	47041	110899	0	0	8085	559991	0	0
2024-08-31 21:57:47			0	37482	0	0	0	29316	27910	155499	27124	1080032	47018	110902	0	0	8083	561206	0	0
2024-08-31 21:58:47			0	37492	0	0	0	29316	27920	155499	27083	1080023	47042	110902	0	0	8084	560782	0	0
2024-08-31 21:59:47			0	37483	0	0	0	29314	27910	155547	27074	1079978	47062	110901	0	0	8083	561167	0	0
2024-08-31 22:00:47			0	37464	0	0	0	29322	27910	155547	26963	1079969	47051	110904	0	0	8082	561913	0	0
2024-08-31 22:01:47			0	37489	0	0	0	29319	27920	155527	26944	1079987	47052	110903	0	0	8083	560899	0	0
2024-08-31 22:02:47			0	37457	0	0	0	29296	27910	155503	27074	1079951	47051	110894	0	0	8082	562187	0	0
2024-08-31 22:03:47			0	37457	0	0	0	29301	27910	155607	27000	1079942	47029	110896	0	0	8082	562187	0	0
2024-08-31 22:04:47			0	37439	0	0	0	29293	27910	155603	27150	1079861	47062	110893	0	0	8081	562895	0	0
2024-08-31 22:05:47			0	37449	0	0	0	29293	27900	155631	26833	1079933	47041	110893	0	0	8081	562534	0	0
2024-08-31 22:06:47			0	37448	0	0	0	29303	27910	155635	27107	1079924	47051	110897	0	0	8081	562541	0	0
2024-08-31 22:07:47			0	37435	0	0	0	29309	27900	155651	27097	1079906	47051	110899	0	0	8080	563084	0	0
2024-08-31 22:08:47			0	37431	0	0	0	29301	27890	155627	27142	1079888	47039	110896	0	0	8080	563274	0	0
2024-08-31 22:09:47			0	37440	0	0	0	29298	27900	155647	27244	1079906	47051	110895	0	0	8081	562888	0	0
2024-08-31 22:10:47			0	37437	0	0	0	29303	27900	155651	27225	1079960	47051	110897	0	0	8081	563006	0	0
2024-08-31 22:11:47			0	37426	0	0	0	29301	27900	155671	27088	1079870	47040	110896	0	0	8080	563438	0	0
2024-08-31 22:12:47			0	37433	0	0	0	29298	27900	155687	27170	1079906	47051	110895	0	0	8080	563163	0	0
2024-08-31 22:13:47			0	37413	0	0	0	29283	27900	155711	27225	1079843	47040	110889	0	0	8079	563950	0	0
2024-08-31 22:14:47			0	37410	0	0	0	29290	27890	155851	27173	1079861	47049	110892	0	0	8079	564100	0	0
2024-08-31 22:15:47			0	37429	0	0	0	29277	27890	155659	27109	1079834	47039	110887	0	0	8080	563353	0	0
2024-08-31 22:16:47			0	37399	0	0	0	29277	27890	155815	27381	1079798	47027	110887	0	0	8079	564533	0	0
2024-08-31 22:17:47			0	37418	0	0	0	29275	27890	155867	26870	1079834	47049	110886	0	0	8080	563785	0	0
2024-08-31 22:18:47			0	37410	0	0	0	29272	27890	155831	27159	1079825	47049	110885	0	0	8079	564100	0	0
2024-08-31 22:19:47			0	37405	0	0	0	29270	27870	155767	26927	1079761	47025	110884	0	0	8079	564362	0	0
2024-08-31 22:20:47			0	37427	0	0	0	29259	27870	155847	26935	1079771	47037	110880	0	0	8081	563496	0	0
2024-08-31 22:21:47			0	37409	0	0	0	29270	27880	155899	26987	1079762	47039	110884	0	0	8079	564172	0	0
2024-08-31 22:22:47			0	37415	0	0	0	29270	27870	155803	26710	1079744	47037	110884	0	0	8080	563968	0	0
2024-08-31 22:23:47			0	37419	0	0	0	29267	27880	155799	26996	1079780	47048	110883	0	0	8080	563779	0	0
2024-08-31 22:24:47			0	37406	0	0	0	29264	27880	155867	27074	1079726	47048	110882	0	0	8079	564290	0	0
2024-08-31 22:25:47			0	37409	0	0	0	29259	27870	155795	26986	1079771	47047	110880	0	0	8080	564205	0	0
2024-08-31 22:26:47			0	37423	0	0	0	29262	27860	155823	26705	1079779	47047	110881	0	0	8080	563686	0	0
2024-08-31 22:27:47			0	37420	0	0	0	29259	27880	155879	27036	1079726	47048	110880	0	0	8080	563739	0	0
2024-08-31 22:28:47			0	37413	0	0	0	29257	27870	155819	26949	1079690	47047	110879	0	0	8080	564047	0	0
2024-08-31 22:29:47			0	37411	0	0	0	29259	27870	155819	27138	1079771	47047	110880	0	0	8080	564126	0	0
2024-08-31 22:30:47			0	37416	0	0	0	29262	27860	155911	27128	1079672	47047	110881	0	0	8080	563962	0	0
2024-08-31 22:31:47			0	37403	0	0	0	29262	27860	155863	26856	1079672	47037	110881	0	0	8079	564473	0	0
2024-08-31 22:32:47			0	37398	0	0	0	29262	27860	155855	27071	1079645	47058	110881	0	0	8079	564670	0	0
2024-08-31 22:33:47			0	37398	0	0	0	29257	27870	155911	26915	1079708	47037	110879	0	0	8079	564638	0	0
2024-08-31 22:34:47			0	37399	0	0	0	29244	27850	155955	27118	1079627	47045	110874	0	0	8079	564663	0	0
2024-08-31 22:35:47			0	37387	0	0	0	29251	27860	156003	26909	1079672	47047	110877	0	0	8078	565104	0	0
2024-08-31 22:36:47			0	37392	0	0	0	29244	27860	156023	27019	1079663	47057	110874	0	0	8079	564907	0	0
2024-08-31 22:37:47			0	37371	0	0	0	29241	27850	156011	26958	1079644	47034	110873	0	0	8078	565767	0	0
2024-08-31 22:38:47			0	37368	0	0	0	29241	27840	155947	27229	1079662	47034	110873	0	0	8077	565918	0	0
2024-08-31 22:39:47			0	37367	0	0	0	29238	27850	156047	27066	1079617	47044	110872	0	0	8077	565925	0	0
2024-08-31 22:40:47			0	37366	0	0	0	29236	27840	156075	27057	1079599	47034	110871	0	0	8077	565997	0	0
2024-08-31 22:41:47			0	37362	0	0	0	29223	27840	156047	27007	1079635	47034	110866	0	0	8077	566155	0	0
2024-08-31 22:42:47			0	37349	0	0	0	29197	27850	156071	26965	1079564	47044	110856	0	0	8077	566635	0	0
2024-08-31 22:43:47			0	37355	0	0	0	29212	27830	156235	26760	1079527	47031	110862	0	0	8077	566464	0	0
2024-08-31 22:44:47			0	37348	0	0	0	29205	27830	156035	26878	1079483	47033	110859	0	0	8077	566740	0	0
2024-08-31 22:45:47			0	37347	0	0	0	29207	27830	156203	26928	1079473	47031	110860	0	0	8077	566779	0	0
2024-08-31 22:46:47			0	37348	0	0	0	29210	27830	156087	26826	1079509	47021	110861	0	0	8077	566740	0	0
2024-08-31 22:47:47			0	37334	0	0	0	29207	27820	156203	27050	1079428	47042	110860	0	0	8076	567326	0	0
2024-08-31 22:48:47			0	37327	0	0	0	29202	27830	156131	27107	1079473	47031	110858	0	0	8076	567570	0	0
2024-08-31 22:49:47			0	37325	0	0	0	29197	27810	156227	26811	1079419	47041	110856	0	0	8075	567714	0	0
2024-08-31 22:50:47			0	37344	0	0	0	29207	27810	156199	27059	1079446	47041	110860	0	0	8076	566963	0	0
2024-08-31 22:51:47			0	37316	0	0	0	29192	27820	156246	26788	1079428	47031	110854	0	0	8075	568037	0	0
2024-08-31 22:52:47			0	37298	0	0	0	29186	27810	156294	26965	1079392	47019	110852	0	0	8074	568782	0	0
2024-08-31 22:53:47			0	37312	0	0	0	29176	27810	156327	27265	1079419	47041	110848	0	0	8075	568228	0	0
2024-08-31 22:54:47			0	37290	0	0	0	29181	27810	156326	26930	1079329	47030	110850	0	0	8074	569099	0	0
2024-08-31 22:55:47			0	37277	0	0	0	29179	27810	156442	27182	1079302	47018	110849	0	0	8073	569614	0	0
2024-08-31 22:56:47			0	37266	0	0	0	29176	27790	156450	27118	1079392	47030	110848	0	0	8072	570115	0	0
2024-08-31 22:57:47			0	37263	0	0	0	29171	27790	156422	27294	1079365	47030	110846	0	0	8072	570234	0	0
2024-08-31 22:58:47			0	37257	0	0	0	29173	27790	156490	27083	1079311	47041	110847	0	0	8072	570472	0	0
2024-08-31 22:59:47			0	37265	0	0	0	29155	27780	156506	27083	1079230	47038	110840	0	0	8072	570188	0	0
2024-08-31 23:00:47			0	37245	0	0	0	29140	27780	156654	27239	1079149	47038	110834	0	0	8072	570981	0	0
2024-08-31 23:01:47			0	37233	0	0	0	29132	27770	156670	27036	1079194	47026	110831	0	0	8071	571490	0	0
2024-08-31 23:02:47			0	37235	0	0	0	29135	27760	156674	26894	1079149	47014	110832	0	0	8071	571444	0	0
2024-08-31 23:03:47			0	37203	0	0	0	29135	27760	156790	27088	1079149	47037	110832	0	0	8069	572715	0	0
2024-08-31 23:04:47			0	37199	0	0	0	29137	27750	156854	27007	1079157	47024	110833	0	0	8069	572907	0	0
2024-08-31 23:05:47			0	37175	0	0	0	29132	27760	156890	27083	1079113	47036	110831	0	0	8067	573829	0	0
2024-08-31 23:06:47			0	37163	0	0	0	29132	27760	156910	27031	1079113	47024	110831	0	0	8067	574307	0	0
2024-08-31 23:07:47			0	37159	0	0	0	29137	27760	157018	27024	1079113	47046	110833	0	0	8066	574467	0	0
2024-08-31 23:08:47			0	37142	0	0	0	29137	27750	157030	26880	1079104	47024	110833	0	0	8065	575178	0	0
2024-08-31 23:09:47			0	37144	0	0	0	29140	27750	157110	27041	1079077	47036	110834	0	0	8065	575098	0	0
2024-08-31 23:10:47			0	37140	0	0	0	29132	27740	156978	26998	1079112	47023	110831	0	0	8065	575290	0	0
2024-08-31 23:11:47			0	37127	0	0	0	29140	27740	157194	27199	1079103	47034	110834	0	0	8064	575809	0	0
2024-08-31 23:12:47			0	37129	0	0	0	29127	27740	157062	27144	1079076	47022	110829	0	0	8065	575729	0	0
2024-08-31 23:13:47			0	37124	0	0	0	29140	27740	157234	26928	1079076	47022	110834	0	0	8064	575929	0	0
2024-08-31 23:14:47			0	37109	0	0	0	29129	27740	157194	27010	1079076	47034	110830	0	0	8064	576528	0	0
2024-08-31 23:15:47			0	37099	0	0	0	29129	27740	157250	26700	1079059	47035	110830	0	0	8063	576927	0	0
2024-08-31 23:16:47			0	37098	0	0	0	29127	27740	157178	27045	1079050	47044	110829	0	0	8063	576967	0	0
2024-08-31 23:17:47			0	37103	0	0	0	29132	27720	157266	27251	1078986	47020	110831	0	0	8063	576834	0	0
2024-08-31 23:18:47			0	37077	0	0	0	29127	27740	157270	27149	1079023	47067	110829	0	0	8062	577807	0	0
2024-08-31 23:19:47			0	37072	0	0	0	29132	27740	157290	27050	1079157	47022	110831	0	0	8061	578007	0	0
2024-08-31 23:20:47			0	37072	0	0	0	29137	27730	157294	26844	1079067	47044	110833	0	0	8061	578040	0	0
2024-08-31 23:21:47			0	37077	0	0	0	29124	27730	157362	26986	1079031	47056	110828	0	0	8062	577840	0	0
2024-08-31 23:22:47			0	37075	0	0	0	29129	27720	157306	26807	1079013	47032	110830	0	0	8061	577953	0	0
2024-08-31 23:23:47			0	37082	0	0	0	29124	27720	157302	26795	1079013	47032	110828	0	0	8062	577673	0	0
2024-08-31 23:24:47			0	37081	0	0	0	29114	27730	157250	26987	1079058	47011	110824	0	0	8062	577680	0	0
2024-08-31 23:25:47			0	37066	0	0	0	29124	27720	157322	27019	1078995	47043	110828	0	0	8061	578314	0	0
2024-08-31 23:26:47			0	37064	0	0	0	29114	27720	157258	27083	1079022	47021	110824	0	0	8061	578394	0	0
2024-08-31 23:27:47			0	37074	0	0	0	29111	27710	157210	27173	1079004	47032	110823	0	0	8062	578027	0	0
2024-08-31 23:28:47			0	37054	0	0	0	29122	27720	157202	27270	1078995	47021	110827	0	0	8060	578794	0	0
2024-08-31 23:29:47			0	37061	0	0	0	29111	27720	157354	26682	1078995	47021	110823	0	0	8061	578514	0	0
2024-08-31 23:30:47			0	37058	0	0	0	29114	27720	157242	27279	1078959	47020	110824	0	0	8061	578634	0	0
2024-08-31 23:31:47			0	37066	0	0	0	29103	27720	157238	26915	1078959	47042	110820	0	0	8061	578314	0	0
2024-08-31 23:32:47			0	37067	0	0	0	29090	27710	157310	27090	1078950	47009	110815	0	0	8062	578307	0	0
2024-08-31 23:33:47			0	37056	0	0	0	29111	27710	157194	27116	1078977	47020	110823	0	0	8061	578747	0	0
2024-08-31 23:34:47			0	37067	0	0	0	29101	27710	157250	27338	1078914	47031	110819	0	0	8061	578307	0	0
2024-08-31 23:35:47			0	37069	0	0	0	29098	27700	157166	27118	1078959	47031	110818	0	0	8062	578260	0	0
2024-08-31 23:36:47			0	37085	0	0	0	29111	27710	157178	27039	1078968	47031	110823	0	0	8062	577587	0	0
2024-08-31 23:37:47			0	37081	0	0	0	29101	27710	157094	27197	1078941	47031	110819	0	0	8062	577747	0	0
2024-08-31 23:38:47			0	37083	0	0	0	29101	27700	157066	27206	1078878	47031	110819	0	0	8062	577700	0	0
2024-08-31 23:39:47			0	37050	0	0	0	29080	27700	157138	26909	1078842	47030	110811	0	0	8061	579021	0	0
2024-08-31 23:40:47			0	37073	0	0	0	29090	27700	157214	27223	1078815	47030	110815	0	0	8062	578100	0	0
2024-08-31 23:41:47			0	37060	0	0	0	29101	27690	157146	27078	1078860	47051	110819	0	0	8061	578654	0	0
2024-08-31 23:42:47			0	37037	0	0	0	29096	27690	157262	27293	1078905	47051	110817	0	0	8060	579575	0	0
2024-08-31 23:43:47			0	37046	0	0	0	29093	27700	157282	27041	1078869	47041	110816	0	0	8060	579181	0	0
2024-08-31 23:44:47			0	37021	0	0	0	29090	27700	157406	26948	1078950	47041	110815	0	0	8059	580183	0	0
2024-08-31 23:45:47			0	37031	0	0	0	29093	27690	157454	27109	1078824	47040	110816	0	0	8059	579816	0	0
2024-08-31 23:46:47			0	36996	0	0	0	29085	27700	157454	27178	1078869	47030	110813	0	0	8058	581187	0	0
2024-08-31 23:47:47			0	37009	0	0	0	29096	27690	157522	27216	1078860	47029	110817	0	0	8058	580698	0	0
2024-08-31 23:48:47			0	36995	0	0	0	29090	27690	157534	27192	1078806	47029	110815	0	0	8057	581261	0	0
2024-08-31 23:49:47			0	36987	0	0	0	29090	27690	157582	27201	1078824	47029	110815	0	0	8057	581582	0	0
2024-08-31 23:50:47			0	36971	0	0	0	29093	27680	157626	27267	1078761	47029	110816	0	0	8056	582258	0	0
2024-08-31 23:51:47			0	36974	0	0	0	29093	27690	157622	27199	1078824	47029	110816	0	0	8056	582104	0	0
2024-08-31 23:52:47			0	36975	0	0	0	29083	27700	157654	27140	1078896	47030	110812	0	0	8056	582031	0	0
2024-08-31 23:53:47			0	36955	0	0	0	29090	27690	157694	27093	1078824	47040	110815	0	0	8055	582869	0	0
2024-08-31 23:54:47			0	36960	0	0	0	29085	27690	157630	27171	1078860	47029	110813	0	0	8055	582667	0	0
2024-08-31 23:55:47			0	36964	0	0	0	29085	27690	157650	27157	1078833	47029	110813	0	0	8056	582506	0	0
2024-08-31 23:56:47			0	36951	0	0	0	29088	27690	157742	26967	1078851	47040	110814	0	0	8055	583030	0	0
2024-08-31 23:57:47			0	36964	0	0	0	29083	27690	157682	27152	1078824	47029	110812	0	0	8056	582506	0	0
2024-08-31 23:58:47			0	36956	0	0	0	29077	27690	157718	26733	1078851	47029	110810	0	0	8055	582828	0	0
2024-08-31 23:59:47			0	36947	0	0	0	29090	27680	157710	27157	1078788	47040	110815	0	0	8054	583224	0	0
2024-09-01 00:00:47			0	36974	0	0	0	29083	27690	157702	27265	1078824	47029	110812	0	0	8056	582104	0	0
2024-09-01 00:01:47			0	36950	0	0	0	29080	27690	157722	26859	1078851	47029	110811	0	0	8055	583070	0	0
2024-09-01 00:02:47			0	36961	0	0	0	29083	27680	157634	27001	1078815	47029	110812	0	0	8055	582661	0	0
2024-09-01 00:03:47			0	36963	0	0	0	29085	27690	157678	27424	1078806	47029	110813	0	0	8056	582547	0	0
2024-09-01 00:04:47			0	36971	0	0	0	29088	27690	157622	27064	1078833	47029	110814	0	0	8056	582225	0	0
2024-09-01 00:05:47			0	36967	0	0	0	29096	27680	157658	27218	1078815	47040	110817	0	0	8056	582419	0	0
2024-09-01 00:06:47			0	37000	0	0	0	29085	27680	157638	27104	1078806	47039	110813	0	0	8058	581093	0	0
2024-09-01 00:07:47			0	36990	0	0	0	29096	27680	157598	27254	1078842	47040	110817	0	0	8057	581495	0	0
2024-09-01 00:08:47			0	36981	0	0	0	29085	27690	157658	27145	1078806	47040	110813	0	0	8057	581823	0	0
2024-09-01 00:09:47			0	36982	0	0	0	29085	27680	157594	27232	1078752	47039	110813	0	0	8057	581816	0	0
2024-09-01 00:10:47			0	36996	0	0	0	29090	27690	157578	26998	1078797	47029	110815	0	0	8057	581220	0	0
2024-09-01 00:11:47			0	36969	0	0	0	29072	27680	157602	27183	1078815	47040	110808	0	0	8056	582339	0	0
2024-09-01 00:12:47			0	36971	0	0	0	29070	27680	157570	27452	1078734	47040	110807	0	0	8056	582258	0	0
2024-09-01 00:13:47			0	36972	0	0	0	29062	27680	157682	27369	1078680	47040	110804	0	0	8056	582218	0	0
2024-09-01 00:14:47			0	36982	0	0	0	29057	27680	157734	27339	1078752	47028	110802	0	0	8057	581816	0	0
2024-09-01 00:15:47			0	36969	0	0	0	29051	27680	157618	27154	1078671	47028	110800	0	0	8056	582339	0	0
2024-09-01 00:16:47			0	36971	0	0	0	29054	27670	157734	27490	1078626	47015	110801	0	0	8056	582292	0	0
2024-09-01 00:17:47			0	36966	0	0	0	29067	27670	157586	27104	1078734	47015	110806	0	0	8056	582493	0	0
2024-09-01 00:18:47			0	36950	0	0	0	29067	27670	157770	27433	1078680	47027	110806	0	0	8055	583137	0	0
2024-09-01 00:19:47			0	36974	0	0	0	29070	27670	157610	26960	1078716	47015	110807	0	0	8056	582171	0	0
2024-09-01 00:20:47			0	36977	0	0	0	29077	27660	157622	26904	1078617	47027	110810	0	0	8056	582084	0	0
2024-09-01 00:21:47			0	36978	0	0	0	29072	27660	157646	27196	1078725	47027	110808	0	0	8056	582044	0	0
2024-09-01 00:22:47			0	36965	0	0	0	29080	27670	157658	27034	1078734	47027	110811	0	0	8056	582533	0	0
2024-09-01 00:23:47			0	36967	0	0	0	29067	27660	157610	27306	1078644	47015	110806	0	0	8056	582487	0	0
2024-09-01 00:24:47			0	36972	0	0	0	29064	27660	157698	27239	1078581	47026	110805	0	0	8056	582285	0	0
2024-09-01 00:25:47			0	36967	0	0	0	29057	27660	157734	27039	1078716	47037	110802	0	0	8056	582487	0	0
2024-09-01 00:26:47			0	36959	0	0	0	29059	27660	157598	27386	1078644	47027	110803	0	0	8056	582808	0	0
2024-09-01 00:27:47			0	36981	0	0	0	29062	27660	157778	27135	1078635	47026	110804	0	0	8057	581924	0	0
2024-09-01 00:28:47			0	36955	0	0	0	29062	27660	157754	27267	1078608	47026	110804	0	0	8055	582969	0	0
2024-09-01 00:29:47			0	36947	0	0	0	29057	27650	157750	27277	1078653	47025	110802	0	0	8055	583325	0	0
2024-09-01 00:30:47			0	36952	0	0	0	29041	27650	157818	27286	1078572	47013	110796	0	0	8055	583124	0	0
2024-09-01 00:31:47			0	36938	0	0	0	29044	27660	157894	27197	1078581	47014	110797	0	0	8055	583654	0	0
2024-09-01 00:32:47			0	36923	0	0	0	29049	27650	157810	27171	1078590	47013	110799	0	0	8054	584292	0	0
2024-09-01 00:33:47			0	36930	0	0	0	29051	27660	157826	27046	1078581	47026	110800	0	0	8054	583976	0	0
2024-09-01 00:34:47			0	36932	0	0	0	29070	27650	157886	27362	1078599	47046	110807	0	0	8054	583929	0	0
2024-09-01 00:35:47			0	36923	0	0	0	29062	27650	157922	27294	1078644	47025	110804	0	0	8053	584292	0	0
2024-09-01 00:36:47			0	36940	0	0	0	29059	27640	157818	27048	1078608	47045	110803	0	0	8054	583640	0	0
2024-09-01 00:37:47			0	36917	0	0	0	29059	27650	157894	27258	1078626	47025	110803	0	0	8053	584534	0	0
2024-09-01 00:38:47			0	36922	0	0	0	29059	27650	157910	27241	1078590	47046	110803	0	0	8053	584332	0	0
2024-09-01 00:39:47			0	36929	0	0	0	29064	27650	157706	27183	1078626	47013	110805	0	0	8054	584050	0	0
2024-09-01 00:40:47			0	36919	0	0	0	29070	27650	157826	27095	1078626	47036	110807	0	0	8053	584453	0	0
2024-09-01 00:41:47			0	36933	0	0	0	29080	27650	157778	27147	1078706	47058	110811	0	0	8054	583889	0	0
2024-09-01 00:42:47			0	36919	0	0	0	29072	27650	157806	27284	1078617	47036	110808	0	0	8053	584453	0	0
2024-09-01 00:43:47			0	36924	0	0	0	29075	27660	157806	26944	1078698	47027	110809	0	0	8053	584218	0	0
2024-09-01 00:44:47			0	36929	0	0	0	29080	27660	157826	27062	1078689	47037	110811	0	0	8053	584016	0	0
2024-09-01 00:45:47			0	36929	0	0	0	29077	27660	157818	27000	1078770	47026	110810	0	0	8054	584016	0	0
2024-09-01 00:46:47			0	36922	0	0	0	29064	27650	157694	27308	1078706	47013	110805	0	0	8053	584332	0	0
2024-09-01 00:47:47			0	36937	0	0	0	29054	27660	157766	27104	1078689	47037	110801	0	0	8054	583694	0	0
2024-09-01 00:48:47			0	36924	0	0	0	29051	27650	157702	27289	1078599	47036	110800	0	0	8054	584251	0	0
2024-09-01 00:49:47			0	36925	0	0	0	29054	27660	157842	27331	1078725	47027	110801	0	0	8054	584178	0	0
2024-09-01 00:50:47			0	36916	0	0	0	29044	27650	157902	27192	1078653	47025	110797	0	0	8053	584574	0	0
2024-09-01 00:51:47			0	36912	0	0	0	29041	27650	157842	27124	1078590	47036	110796	0	0	8053	584735	0	0
2024-09-01 00:52:47			0	36909	0	0	0	29044	27660	157806	27407	1078617	47038	110797	0	0	8053	584823	0	0
2024-09-01 00:53:47			0	36907	0	0	0	29036	27660	157922	27280	1078608	47026	110794	0	0	8053	584903	0	0
2024-09-01 00:54:47			0	36896	0	0	0	29041	27650	157962	27391	1078644	47025	110796	0	0	8052	585381	0	0
2024-09-01 00:55:47			0	36866	0	0	0	29051	27650	158114	27448	1078563	47025	110800	0	0	8050	586592	0	0
2024-09-01 00:56:47			0	36864	0	0	0	29038	27650	158094	27194	1078590	47036	110795	0	0	8050	586673	0	0
2024-09-01 00:57:47			0	36860	0	0	0	29041	27660	158134	27365	1078635	47026	110796	0	0	8050	586801	0	0
2024-09-01 00:58:47			0	36842	0	0	0	29046	27650	158154	27358	1078644	47025	110798	0	0	8049	587563	0	0
2024-09-01 00:59:47			0	36836	0	0	0	29049	27640	158122	27048	1078527	47035	110799	0	0	8048	587840	0	0
2024-09-01 01:00:47			0	36839	0	0	0	29051	27650	158178	27024	1078617	47025	110800	0	0	8049	587684	0	0
2024-09-01 01:01:47			0	36839	0	0	0	29049	27650	158218	27412	1078590	47025	110799	0	0	8049	587684	0	0
2024-09-01 01:02:47			0	36846	0	0	0	29038	27650	158114	26961	1078590	47046	110795	0	0	8049	587401	0	0
2024-09-01 01:03:47			0	36854	0	0	0	29031	27630	158134	27229	1078562	47034	110792	0	0	8050	587145	0	0
2024-09-01 01:04:47			0	36843	0	0	0	29036	27640	158110	27398	1078554	47035	110794	0	0	8049	587556	0	0
2024-09-01 01:05:47			0	36848	0	0	0	29033	27640	158190	27072	1078544	47024	110793	0	0	8049	587354	0	0
2024-09-01 01:06:47			0	36861	0	0	0	29033	27630	158154	26748	1078508	47011	110793	0	0	8050	586862	0	0
2024-09-01 01:07:47			0	36864	0	0	0	29018	27640	158150	27164	1078490	47024	110787	0	0	8051	586707	0	0
2024-09-01 01:08:47			0	36870	0	0	0	29018	27630	158066	27039	1078508	47023	110787	0	0	8051	586498	0	0
2024-09-01 01:09:47			0	36865	0	0	0	28999	27620	158018	26729	1078436	47000	110780	0	0	8051	586734	0	0
2024-09-01 01:10:47			0	36888	0	0	0	29005	27620	158050	27287	1078373	47022	110782	0	0	8052	585805	0	0
2024-09-01 01:11:47			0	36884	0	0	0	28997	27620	158098	26920	1078454	47022	110779	0	0	8052	585966	0	0
2024-09-01 01:12:47			0	36877	0	0	0	28999	27610	158038	27187	1078391	47032	110780	0	0	8052	586283	0	0
2024-09-01 01:13:47			0	36873	0	0	0	29015	27610	158106	27027	1078409	47020	110786	0	0	8051	586445	0	0
2024-09-01 01:14:47			0	36881	0	0	0	29025	27620	158110	27480	1078427	47022	110790	0	0	8051	586088	0	0
2024-09-01 01:15:47			0	36893	0	0	0	29018	27620	158034	27497	1078427	47022	110787	0	0	8052	585603	0	0
2024-09-01 01:16:47			0	36877	0	0	0	28999	27610	157994	27204	1078364	47009	110780	0	0	8052	586283	0	0
2024-09-01 01:17:47			0	36888	0	0	0	28966	27600	157962	27128	1078319	47020	110767	0	0	8053	585872	0	0
2024-09-01 01:18:47			0	36886	0	0	0	28966	27600	157910	27306	1078292	47020	110767	0	0	8053	585953	0	0
2024-09-01 01:19:47			0	36898	0	0	0	28950	27600	157982	27338	1078256	47020	110761	0	0	8054	585469	0	0
2024-09-01 01:20:47			0	36912	0	0	0	28932	27590	157966	27149	1078193	47007	110754	0	0	8055	584937	0	0
2024-09-01 01:21:47			0	36898	0	0	0	28945	27590	157898	27144	1078157	46996	110759	0	0	8054	585502	0	0
2024-09-01 01:22:47			0	36905	0	0	0	28937	27570	158014	27090	1078130	47017	110756	0	0	8054	585287	0	0
2024-09-01 01:23:47			0	36898	0	0	0	28927	27580	158022	27128	1078085	47005	110752	0	0	8054	585536	0	0
2024-09-01 01:24:47			0	36893	0	0	0	28919	27560	157930	27248	1078085	47016	110749	0	0	8054	585805	0	0
2024-09-01 01:25:47			0	36892	0	0	0	28924	27560	157938	27326	1078031	47004	110751	0	0	8053	585846	0	0
2024-09-01 01:26:47			0	36903	0	0	0	28914	27550	158038	26953	1078040	47003	110747	0	0	8054	585435	0	0
2024-09-01 01:27:47			0	36896	0	0	0	28932	27550	158054	27007	1077950	47014	110754	0	0	8053	585718	0	0
2024-09-01 01:28:47			0	36886	0	0	0	28919	27550	158078	27152	1078040	47003	110749	0	0	8053	586122	0	0
2024-09-01 01:29:47			0	36887	0	0	0	28929	27540	158130	27253	1078013	47013	110753	0	0	8053	586115	0	0
2024-09-01 01:30:47			0	36900	0	0	0	28953	27540	158082	27017	1078049	47036	110762	0	0	8053	585590	0	0
2024-09-01 01:31:47			0	36894	0	0	0	28953	27540	158086	27409	1078049	47025	110762	0	0	8053	585832	0	0
2024-09-01 01:32:47			0	36873	0	0	0	28948	27550	158214	27118	1078058	47014	110760	0	0	8052	586647	0	0
2024-09-01 01:33:47			0	36863	0	0	0	28940	27540	158142	27241	1078022	47036	110757	0	0	8051	587085	0	0
2024-09-01 01:34:47			0	36855	0	0	0	28948	27540	158122	26979	1078013	47013	110760	0	0	8051	587409	0	0
2024-09-01 01:35:47			0	36864	0	0	0	28932	27550	158130	27066	1078058	47014	110754	0	0	8052	587011	0	0
2024-09-01 01:36:47			0	36869	0	0	0	28929	27540	158234	26932	1077959	47013	110753	0	0	8052	586843	0	0
2024-09-01 01:37:47			0	36836	0	0	0	28916	27540	158442	27168	1078013	47001	110748	0	0	8050	588178	0	0
2024-09-01 01:38:47			0	36824	0	0	0	28919	27540	158354	26859	1077986	47024	110749	0	0	8049	588664	0	0
2024-09-01 01:39:47			0	36817	0	0	0	28903	27530	158402	26736	1077896	47013	110743	0	0	8049	588982	0	0
2024-09-01 01:40:47			0	36807	0	0	0	28893	27530	158478	27062	1077923	47024	110739	0	0	8049	589387	0	0
2024-09-01 01:41:47			0	36776	0	0	0	28890	27530	158470	27229	1077887	47023	110738	0	0	8047	590645	0	0
2024-09-01 01:42:47			0	36750	0	0	0	28898	27530	158578	27267	1077833	47012	110741	0	0	8045	591702	0	0
2024-09-01 01:43:47			0	36736	0	0	0	28898	27510	158682	27322	1077806	47021	110741	0	0	8044	592339	0	0
2024-09-01 01:44:47			0	36722	0	0	0	28883	27510	158774	27242	1077842	47011	110735	0	0	8044	592909	0	0
2024-09-01 01:45:47			0	36699	0	0	0	28880	27500	158822	27053	1077770	47010	110734	0	0	8042	593880	0	0
2024-09-01 01:46:47			0	36688	0	0	0	28870	27500	158834	26956	1077743	46999	110730	0	0	8042	594329	0	0
2024-09-01 01:47:47			0	36664	0	0	0	28864	27500	158970	27211	1077788	46998	110728	0	0	8041	595309	0	0
2024-09-01 01:48:47			0	36661	0	0	0	28862	27500	159050	27109	1077734	46998	110727	0	0	8041	595431	0	0
2024-09-01 01:49:47			0	36637	0	0	0	28867	27490	159118	27081	1077796	47019	110729	0	0	8039	596446	0	0
2024-09-01 01:50:47			0	36630	0	0	0	28862	27490	159270	26781	1077743	46997	110727	0	0	8039	596732	0	0
2024-09-01 01:51:47			0	36600	0	0	0	28862	27480	159234	27114	1077707	47007	110727	0	0	8037	597995	0	0
2024-09-01 01:52:47			0	36599	0	0	0	28862	27490	159254	26939	1077716	47019	110727	0	0	8037	598001	0	0
2024-09-01 01:53:47			0	36603	0	0	0	28875	27480	159362	27013	1077680	47019	110732	0	0	8037	597872	0	0
2024-09-01 01:54:47			0	36565	0	0	0	28906	27480	159449	27223	1077698	46985	110744	0	0	8034	599429	0	0
2024-09-01 01:55:47			0	36555	0	0	0	28916	27470	159381	27024	1077769	47006	110748	0	0	8033	599874	0	0
2024-09-01 01:56:47			0	36589	0	0	0	28906	27480	159358	26951	1077778	47029	110744	0	0	8035	598445	0	0
2024-09-01 01:57:47			0	36577	0	0	0	28903	27470	159413	27071	1077733	47006	110743	0	0	8035	598972	0	0
2024-09-01 01:58:47			0	36570	0	0	0	28903	27480	159425	27220	1077734	47019	110743	0	0	8034	599224	0	0
2024-09-01 01:59:47			0	36558	0	0	0	28893	27470	159409	26977	1077715	47018	110739	0	0	8034	599751	0	0
2024-09-01 02:00:47			0	36554	0	0	0	28885	27480	159445	26765	1077751	47018	110736	0	0	8034	599881	0	0
2024-09-01 02:01:47			0	36542	0	0	0	28877	27490	159429	26771	1077716	47019	110733	0	0	8033	600339	0	0
2024-09-01 02:02:47			0	36538	0	0	0	28870	27480	159481	26948	1077707	47007	110730	0	0	8033	600538	0	0
2024-09-01 02:03:47			0	36536	0	0	0	28857	27470	159525	26970	1077652	47028	110725	0	0	8033	600655	0	0
2024-09-01 02:04:47			0	36506	0	0	0	28872	27470	159605	27026	1077662	47029	110731	0	0	8031	601888	0	0
2024-09-01 02:05:47			0	36506	0	0	0	28870	27470	159661	26866	1077652	47017	110730	0	0	8031	601888	0	0
2024-09-01 02:06:47			0	36505	0	0	0	28867	27470	159577	27095	1077679	46995	110729	0	0	8031	601929	0	0
2024-09-01 02:07:47			0	36514	0	0	0	28859	27470	159705	26710	1077706	47017	110726	0	0	8032	601559	0	0
2024-09-01 02:08:47			0	36499	0	0	0	28862	27470	159705	27076	1077652	47006	110727	0	0	8031	602176	0	0
2024-09-01 02:09:47			0	36476	0	0	0	28838	27460	159737	27156	1077607	46994	110718	0	0	8030	603158	0	0
2024-09-01 02:10:47			0	36480	0	0	0	28831	27450	159765	27239	1077598	47005	110715	0	0	8030	603028	0	0
2024-09-01 02:11:47			0	36486	0	0	0	28833	27450	159821	27059	1077491	47005	110716	0	0	8030	602781	0	0
2024-09-01 02:12:47			0	36477	0	0	0	28825	27460	159901	27130	1077554	46994	110713	0	0	8030	603117	0	0
2024-09-01 02:13:47			0	36456	0	0	0	28825	27450	159949	26828	1077518	47005	110713	0	0	8029	604017	0	0
2024-09-01 02:14:47			0	36438	0	0	0	28831	27440	159909	27029	1077517	47014	110715	0	0	8027	604795	0	0
2024-09-01 02:15:47			0	36456	0	0	0	28833	27440	159949	26793	1077490	47002	110716	0	0	8029	604052	0	0
2024-09-01 02:16:47			0	36433	0	0	0	28831	27440	160077	26960	1077490	47002	110715	0	0	8027	605001	0	0
2024-09-01 02:17:47			0	36417	0	0	0	28820	27430	160033	26637	1077481	47014	110711	0	0	8026	605697	0	0
2024-09-01 02:18:47			0	36423	0	0	0	28825	27430	160073	27100	1077535	47002	110713	0	0	8027	605449	0	0
2024-09-01 02:19:47			0	36407	0	0	0	28831	27430	160133	27053	1077481	47002	110715	0	0	8026	606110	0	0
2024-09-01 02:20:47			0	36404	0	0	0	28828	27440	160053	26864	1077490	47002	110714	0	0	8026	606200	0	0
2024-09-01 02:21:47			0	36417	0	0	0	28825	27430	160109	27092	1077455	47002	110713	0	0	8026	605697	0	0
2024-09-01 02:22:47			0	36395	0	0	0	28818	27440	160169	26642	1077464	47002	110710	0	0	8025	606572	0	0
2024-09-01 02:23:47			0	36397	0	0	0	28818	27430	160093	26788	1077401	47002	110710	0	0	8025	606524	0	0
2024-09-01 02:24:47			0	36416	0	0	0	28812	27430	160133	27079	1077508	47002	110708	0	0	8026	605738	0	0
2024-09-01 02:25:47			0	36411	0	0	0	28812	27430	160173	27241	1077445	47024	110708	0	0	8026	605945	0	0
2024-09-01 02:26:47			0	36385	0	0	0	28807	27430	160225	26942	1077392	47001	110706	0	0	8025	607021	0	0
2024-09-01 02:27:47			0	36415	0	0	0	28799	27430	160177	27126	1077392	46991	110703	0	0	8027	605780	0	0
2024-09-01 02:28:47			0	36393	0	0	0	28786	27420	160217	27088	1077320	47000	110698	0	0	8025	606724	0	0
2024-09-01 02:29:47			0	36402	0	0	0	28781	27410	160161	26894	1077311	47000	110696	0	0	8026	606387	0	0
2024-09-01 02:30:47			0	36379	0	0	0	28786	27410	160161	27145	1077328	47000	110698	0	0	8025	607339	0	0
2024-09-01 02:31:47			0	36396	0	0	0	28784	27400	160261	27109	1077292	47010	110697	0	0	8026	606670	0	0
2024-09-01 02:32:47			0	36407	0	0	0	28784	27400	160193	26932	1077310	47020	110697	0	0	8026	606215	0	0
2024-09-01 02:33:47			0	36400	0	0	0	28786	27400	160161	26956	1077292	46988	110698	0	0	8026	606504	0	0
2024-09-01 02:34:47			0	36389	0	0	0	28797	27400	160209	26762	1077256	47009	110702	0	0	8025	606960	0	0
2024-09-01 02:35:47			0	36393	0	0	0	28794	27390	160465	27043	1077274	46976	110701	0	0	8025	606829	0	0
2024-09-01 02:36:47			0	36382	0	0	0	28784	27390	160213	27121	1077274	47009	110697	0	0	8025	607284	0	0
2024-09-01 02:37:47			0	36389	0	0	0	28771	27390	160253	26781	1077238	47009	110692	0	0	8025	606995	0	0
2024-09-01 02:38:47			0	36384	0	0	0	28761	27390	160361	26894	1077238	46998	110688	0	0	8025	607202	0	0
2024-09-01 02:39:47			0	36390	0	0	0	28763	27390	160289	26944	1077274	46998	110689	0	0	8026	606953	0	0
2024-09-01 02:40:47			0	36369	0	0	0	28758	27380	160373	27112	1077220	47018	110687	0	0	8024	607858	0	0
2024-09-01 02:41:47			0	36380	0	0	0	28766	27380	160285	27352	1077202	46997	110690	0	0	8025	607402	0	0
2024-09-01 02:42:47			0	36367	0	0	0	28768	27380	160357	26870	1077220	47007	110691	0	0	8024	607941	0	0
2024-09-01 02:43:47			0	36369	0	0	0	28768	27370	160377	27310	1077184	46996	110691	0	0	8024	607893	0	0
2024-09-01 02:44:47			0	36388	0	0	0	28750	27380	160401	27060	1077220	47007	110684	0	0	8026	607071	0	0
2024-09-01 02:45:47			0	36393	0	0	0	28750	27370	160425	27265	1077067	46996	110684	0	0	8026	606899	0	0
2024-09-01 02:46:47			0	36383	0	0	0	28750	27370	160453	26885	1077130	46996	110684	0	0	8025	607313	0	0
2024-09-01 02:47:47			0	36365	0	0	0	28750	27360	160377	27013	1077139	46995	110684	0	0	8024	608093	0	0
2024-09-01 02:48:47			0	36393	0	0	0	28729	27360	160393	27005	1077103	46972	110676	0	0	8026	606934	0	0
2024-09-01 02:49:47			0	36361	0	0	0	28737	27350	160409	26764	1077058	47005	110679	0	0	8024	608294	0	0
2024-09-01 02:50:47			0	36367	0	0	0	28745	27350	160493	26901	1077121	46994	110682	0	0	8024	608045	0	0
2024-09-01 02:51:47			0	36361	0	0	0	28729	27360	160369	26838	1077049	47005	110676	0	0	8024	608259	0	0
2024-09-01 02:52:47			0	36363	0	0	0	28711	27350	160405	26993	1076923	46994	110669	0	0	8025	608211	0	0
2024-09-01 02:53:47			0	36380	0	0	0	28698	27340	160417	27005	1076995	46971	110664	0	0	8026	607542	0	0
2024-09-01 02:54:47			0	36373	0	0	0	28693	27340	160361	27098	1076914	46982	110662	0	0	8025	607832	0	0
2024-09-01 02:55:47			0	36381	0	0	0	28706	27330	160389	27225	1076842	46991	110667	0	0	8026	607535	0	0
2024-09-01 02:56:47			0	36360	0	0	0	28727	27320	160393	26802	1076878	46980	110675	0	0	8024	608440	0	0
2024-09-01 02:57:47			0	36352	0	0	0	28737	27330	160453	26927	1076887	46991	110679	0	0	8023	608737	0	0
2024-09-01 02:58:47			0	36353	0	0	0	28742	27330	160573	26965	1076968	47002	110681	0	0	8023	608696	0	0
2024-09-01 02:59:47			0	36362	0	0	0	28729	27320	160413	26996	1076950	46990	110676	0	0	8024	608358	0	0
2024-09-01 03:00:47			0	36359	0	0	0	28709	27320	160545	27144	1076923	46990	110668	0	0	8024	608482	0	0
2024-09-01 03:01:47			0	36357	0	0	0	28690	27310	160433	27216	1076833	46989	110661	0	0	8024	608600	0	0
2024-09-01 03:02:47			0	36362	0	0	0	28693	27310	160385	27244	1076716	47000	110662	0	0	8025	608393	0	0
2024-09-01 03:03:47			0	36349	0	0	0	28680	27300	160445	26830	1076815	46978	110657	0	0	8024	608967	0	0
2024-09-01 03:04:47			0	36357	0	0	0	28672	27300	160577	26800	1076725	46988	110654	0	0	8025	608635	0	0
2024-09-01 03:05:47			0	36356	0	0	0	28670	27290	160393	27135	1076734	46987	110653	0	0	8025	608711	0	0
2024-09-01 03:06:47			0	36355	0	0	0	28657	27280	160509	27263	1076644	46999	110648	0	0	8025	608788	0	0
2024-09-01 03:07:47			0	36360	0	0	0	28667	27290	160561	27050	1076653	46999	110652	0	0	8025	608545	0	0
2024-09-01 03:08:47			0	36377	0	0	0	28662	27290	160485	27034	1076680	46999	110650	0	0	8026	607841	0	0
2024-09-01 03:09:47			0	36374	0	0	0	28670	27270	160541	26727	1076680	46985	110653	0	0	8026	608035	0	0
2024-09-01 03:10:47			0	36381	0	0	0	28675	27280	160401	27152	1076689	46986	110655	0	0	8026	607710	0	0
2024-09-01 03:11:47			0	36363	0	0	0	28706	27280	160413	27128	1076715	47008	110667	0	0	8024	608456	0	0
2024-09-01 03:12:47			0	36358	0	0	0	28719	27270	160437	26934	1076626	47007	110672	0	0	8024	608698	0	0
2024-09-01 03:13:47			0	36365	0	0	0	28716	27280	160501	27242	1076742	46998	110671	0	0	8024	608373	0	0
2024-09-01 03:14:47			0	36348	0	0	0	28706	27290	160561	27249	1076734	46987	110667	0	0	8023	609043	0	0
2024-09-01 03:15:47			0	36337	0	0	0	28688	27280	160585	27305	1076751	47009	110660	0	0	8023	609535	0	0
2024-09-01 03:16:47			0	36358	0	0	0	28677	27280	160585	27246	1076742	46986	110656	0	0	8025	608663	0	0
2024-09-01 03:17:47			0	36342	0	0	0	28672	27280	160685	27216	1076698	46976	110654	0	0	8024	609327	0	0
2024-09-01 03:18:47			0	36331	0	0	0	28677	27270	160561	27227	1076680	46985	110656	0	0	8023	609819	0	0
2024-09-01 03:19:47			0	36340	0	0	0	28657	27270	160721	27045	1076653	47007	110648	0	0	8024	609445	0	0
2024-09-01 03:20:47			0	36319	0	0	0	28651	27260	160677	27319	1076608	46984	110646	0	0	8023	610353	0	0
2024-09-01 03:21:47			0	36305	0	0	0	28633	27270	160769	27057	1076617	46996	110639	0	0	8022	610900	0	0
2024-09-01 03:22:47			0	36276	0	0	0	28628	27260	160745	27308	1076581	46984	110637	0	0	8020	612142	0	0
2024-09-01 03:23:47			0	36297	0	0	0	28628	27260	160889	27097	1076554	46973	110637	0	0	8022	611267	0	0
2024-09-01 03:24:47			0	36280	0	0	0	28641	27250	160865	27312	1076536	46972	110642	0	0	8020	612010	0	0
2024-09-01 03:25:47			0	36272	0	0	0	28664	27250	160917	26857	1076482	46972	110651	0	0	8019	612343	0	0
2024-09-01 03:26:47			0	36273	0	0	0	28688	27250	161017	26949	1076527	46994	110660	0	0	8019	612302	0	0
2024-09-01 03:27:47			0	36267	0	0	0	28685	27250	160953	27123	1076527	46994	110659	0	0	8019	612552	0	0
2024-09-01 03:28:47			0	36262	0	0	0	28701	27250	160961	27092	1076527	46982	110665	0	0	8018	612760	0	0
2024-09-01 03:29:47			0	36277	0	0	0	28701	27250	160989	26953	1076563	47005	110665	0	0	8019	612135	0	0
2024-09-01 03:30:47			0	36262	0	0	0	28703	27260	160937	27220	1076715	47029	110666	0	0	8018	612725	0	0
2024-09-01 03:31:47			0	36257	0	0	0	28688	27260	160953	27145	1076706	47029	110660	0	0	8018	612933	0	0
2024-09-01 03:32:47			0	36242	0	0	0	28683	27260	161009	27168	1076634	47006	110658	0	0	8017	613559	0	0
2024-09-01 03:33:47			0	36249	0	0	0	28685	27260	161141	26916	1076715	47006	110659	0	0	8018	613267	0	0
2024-09-01 03:34:47			0	36245	0	0	0	28685	27260	161125	27152	1076661	47006	110659	0	0	8018	613434	0	0
2024-09-01 03:35:47			0	36234	0	0	0	28685	27280	161129	26979	1076689	47008	110659	0	0	8017	613822	0	0
2024-09-01 03:36:47			0	36224	0	0	0	28670	27270	161025	27187	1076644	47006	110653	0	0	8017	614275	0	0
2024-09-01 03:37:47			0	36208	0	0	0	28657	27260	161145	26944	1076634	47006	110648	0	0	8016	614978	0	0
2024-09-01 03:38:47			0	36213	0	0	0	28646	27260	161105	26899	1076572	47006	110644	0	0	8016	614769	0	0
2024-09-01 03:39:47			0	36206	0	0	0	28649	27260	161105	27386	1076554	46996	110645	0	0	8016	615062	0	0
2024-09-01 03:40:47			0	36195	0	0	0	28638	27250	161185	26906	1076589	46983	110641	0	0	8015	615557	0	0
2024-09-01 03:41:47			0	36183	0	0	0	28638	27260	161197	27088	1076500	46996	110641	0	0	8015	616023	0	0
2024-09-01 03:42:47			0	36180	0	0	0	28633	27250	161241	26717	1076473	46982	110639	0	0	8014	616184	0	0
2024-09-01 03:43:47			0	36174	0	0	0	28638	27250	161329	27251	1076500	46982	110641	0	0	8014	616435	0	0
2024-09-01 03:44:47			0	36164	0	0	0	28641	27230	161325	26896	1076499	46981	110642	0	0	8013	616925	0	0
2024-09-01 03:45:47			0	36165	0	0	0	28631	27240	161313	27066	1076455	46982	110638	0	0	8014	616847	0	0
2024-09-01 03:46:47			0	36144	0	0	0	28636	27240	161401	26982	1076491	46982	110640	0	0	8012	617727	0	0
2024-09-01 03:47:47			0	36150	0	0	0	28628	27250	161425	27235	1076446	46971	110637	0	0	8013	617440	0	0
2024-09-01 03:48:47			0	36161	0	0	0	28636	27240	161497	27168	1076464	46994	110640	0	0	8013	617015	0	0
2024-09-01 03:49:47			0	36137	0	0	0	28625	27250	161513	27315	1076473	46994	110636	0	0	8012	617985	0	0
2024-09-01 03:50:47			0	36148	0	0	0	28636	27250	161501	27154	1076527	46994	110640	0	0	8012	617524	0	0
2024-09-01 03:51:47			0	36136	0	0	0	28628	27240	161553	27111	1076491	47004	110637	0	0	8012	618063	0	0
2024-09-01 03:52:47			0	36142	0	0	0	28633	27230	161517	27130	1076473	46993	110639	0	0	8012	617847	0	0
2024-09-01 03:53:47			0	36138	0	0	0	28618	27230	161557	27235	1076437	46992	110633	0	0	8012	618014	0	0
2024-09-01 03:54:47			0	36141	0	0	0	28618	27230	161529	27209	1076446	46993	110633	0	0	8012	617889	0	0
2024-09-01 03:55:47			0	36128	0	0	0	28615	27230	161493	26975	1076446	46981	110632	0	0	8012	618434	0	0
2024-09-01 03:56:47			0	36139	0	0	0	28605	27230	161405	27485	1076517	46992	110628	0	0	8012	617972	0	0
2024-09-01 03:57:47			0	36141	0	0	0	28618	27220	161573	27031	1076374	46992	110633	0	0	8012	617924	0	0
2024-09-01 03:58:47			0	36139	0	0	0	28620	27230	161461	27293	1076419	46981	110634	0	0	8012	617972	0	0
2024-09-01 03:59:47			0	36151	0	0	0	28618	27210	161389	27149	1076365	46980	110633	0	0	8013	617540	0	0
2024-09-01 04:00:47			0	36178	0	0	0	28623	27220	161369	26922	1076427	46980	110635	0	0	8014	616374	0	0
2024-09-01 04:01:47			0	36165	0	0	0	28620	27210	161261	27156	1076329	46979	110634	0	0	8014	616954	0	0
2024-09-01 04:02:47			0	36179	0	0	0	28610	27200	161289	27076	1076257	46989	110630	0	0	8015	616403	0	0
2024-09-01 04:03:47			0	36183	0	0	0	28602	27200	161229	27351	1076257	46966	110627	0	0	8015	616236	0	0
2024-09-01 04:04:47			0	36176	0	0	0	28605	27190	161261	27353	1076212	47000	110628	0	0	8014	616564	0	0
2024-09-01 04:05:47			0	36186	0	0	0	28605	27190	161317	27390	1076275	46966	110628	0	0	8015	616145	0	0
2024-09-01 04:06:47			0	36178	0	0	0	28602	27190	161305	27092	1076221	46989	110627	0	0	8015	616480	0	0
2024-09-01 04:07:47			0	36195	0	0	0	28597	27180	161261	27334	1076230	46988	110625	0	0	8016	615804	0	0
2024-09-01 04:08:47			0	36199	0	0	0	28594	27190	161273	27251	1076239	46989	110624	0	0	8016	615602	0	0
2024-09-01 04:09:47			0	36210	0	0	0	28589	27190	161309	26906	1076266	46989	110622	0	0	8017	615142	0	0
2024-09-01 04:10:47			0	36180	0	0	0	28602	27180	161161	26930	1076256	47009	110627	0	0	8015	616432	0	0
2024-09-01 04:11:47			0	36191	0	0	0	28592	27190	161273	27183	1076239	46989	110623	0	0	8015	615936	0	0
2024-09-01 04:12:47			0	36220	0	0	0	28594	27180	161217	27093	1076256	47009	110624	0	0	8017	614759	0	0
2024-09-01 04:13:47			0	36218	0	0	0	28597	27190	161217	27093	1076292	47000	110625	0	0	8017	614808	0	0
2024-09-01 04:14:47			0	36217	0	0	0	28597	27180	161189	26998	1076176	46999	110625	0	0	8017	614885	0	0
2024-09-01 04:15:47			0	36226	0	0	0	28610	27190	161089	27237	1076292	46989	110630	0	0	8017	614473	0	0
2024-09-01 04:16:47			0	36234	0	0	0	28599	27200	161157	27206	1076311	47000	110626	0	0	8018	614104	0	0
2024-09-01 04:17:47			0	36266	0	0	0	28594	27190	161017	27268	1076239	46989	110624	0	0	8020	612805	0	0
2024-09-01 04:18:47			0	36258	0	0	0	28584	27190	161013	27178	1076275	46989	110620	0	0	8020	613138	0	0
2024-09-01 04:19:47			0	36280	0	0	0	28579	27190	160977	26896	1076185	46977	110618	0	0	8021	612221	0	0
2024-09-01 04:20:47			0	36262	0	0	0	28579	27180	160965	27327	1076203	46999	110618	0	0	8020	613006	0	0
2024-09-01 04:21:47			0	36287	0	0	0	28573	27180	160933	27192	1076149	46999	110616	0	0	8022	611965	0	0
2024-09-01 04:22:47			0	36288	0	0	0	28573	27180	160865	27241	1076203	46999	110616	0	0	8022	611923	0	0
2024-09-01 04:23:47			0	36316	0	0	0	28555	27180	160841	27357	1076140	46975	110609	0	0	8024	610758	0	0
2024-09-01 04:24:47			0	36299	0	0	0	28555	27170	160721	27338	1076211	46986	110609	0	0	8023	611500	0	0
2024-09-01 04:25:47			0	36334	0	0	0	28540	27180	160689	27386	1076167	46964	110603	0	0	8025	610010	0	0
2024-09-01 04:26:47			0	36319	0	0	0	28540	27170	160665	27033	1076131	46986	110603	0	0	8024	610668	0	0
2024-09-01 04:27:47			0	36324	0	0	0	28542	27170	160669	27220	1076041	46986	110604	0	0	8024	610460	0	0
2024-09-01 04:28:47			0	36326	0	0	0	28537	27170	160629	27183	1076041	46975	110602	0	0	8024	610377	0	0
2024-09-01 04:29:47			0	36337	0	0	0	28529	27160	160605	27249	1076032	46985	110599	0	0	8025	609955	0	0
2024-09-01 04:30:47			0	36345	0	0	0	28532	27160	160581	27057	1076049	46973	110600	0	0	8026	609623	0	0
2024-09-01 04:31:47			0	36355	0	0	0	28532	27150	160477	27274	1075960	46984	110600	0	0	8026	609242	0	0
2024-09-01 04:32:47			0	36376	0	0	0	28511	27140	160509	27353	1075986	46994	110592	0	0	8028	608406	0	0
2024-09-01 04:33:47			0	36383	0	0	0	28511	27140	160425	27377	1075969	46961	110592	0	0	8028	608116	0	0
2024-09-01 04:34:47			0	36390	0	0	0	28516	27140	160449	26965	1075942	46961	110594	0	0	8028	607825	0	0
2024-09-01 04:35:47			0	36394	0	0	0	28514	27140	160377	27334	1075888	46995	110593	0	0	8029	607660	0	0
2024-09-01 04:36:47			0	36412	0	0	0	28509	27140	160229	27208	1075888	46972	110591	0	0	8030	606914	0	0
2024-09-01 04:37:47			0	36408	0	0	0	28503	27130	160273	27069	1075861	46959	110589	0	0	8030	607114	0	0
2024-09-01 04:38:47			0	36443	0	0	0	28509	27130	160325	27183	1075897	47004	110591	0	0	8032	605666	0	0
2024-09-01 04:39:47			0	36442	0	0	0	28509	27120	160249	27102	1075878	46970	110591	0	0	8032	605742	0	0
2024-09-01 04:40:47			0	36459	0	0	0	28509	27120	160185	27208	1075771	46981	110591	0	0	8033	605039	0	0
2024-09-01 04:41:47			0	36474	0	0	0	28509	27120	160141	27270	1075843	46980	110591	0	0	8034	604420	0	0
2024-09-01 04:42:47			0	36478	0	0	0	28496	27120	160033	27298	1075869	46980	110586	0	0	8034	604255	0	0
2024-09-01 04:43:47			0	36480	0	0	0	28496	27110	160049	27383	1075780	46979	110586	0	0	8034	604207	0	0
2024-09-01 04:44:47			0	36492	0	0	0	28480	27100	160137	27326	1075708	46979	110580	0	0	8035	603746	0	0
2024-09-01 04:45:47			0	36520	0	0	0	28475	27110	160073	27005	1075771	46968	110578	0	0	8037	602557	0	0
2024-09-01 04:46:47			0	36532	0	0	0	28480	27100	160013	27275	1075735	46979	110580	0	0	8037	602097	0	0
2024-09-01 04:47:47			0	36535	0	0	0	28477	27100	159977	27253	1075735	46979	110579	0	0	8038	601974	0	0
2024-09-01 04:48:47			0	36547	0	0	0	28477	27100	159925	27163	1075726	46978	110579	0	0	8038	601480	0	0
2024-09-01 04:49:47			0	36555	0	0	0	28472	27100	159841	27046	1075708	46968	110577	0	0	8039	601151	0	0
2024-09-01 04:50:47			0	36578	0	0	0	28472	27090	159689	26949	1075681	46989	110577	0	0	8040	600239	0	0
2024-09-01 04:51:47			0	36585	0	0	0	28462	27080	159681	27114	1075582	46988	110573	0	0	8041	599986	0	0
2024-09-01 04:52:47			0	36582	0	0	0	28467	27090	159609	27204	1075654	46966	110575	0	0	8041	600075	0	0
2024-09-01 04:53:47			0	36591	0	0	0	28451	27090	159697	27203	1075627	46977	110569	0	0	8041	599705	0	0
2024-09-01 04:54:47			0	36588	0	0	0	28459	27080	159641	27357	1075591	46977	110572	0	0	8041	599863	0	0
2024-09-01 04:55:47			0	36587	0	0	0	28449	27080	159581	27440	1075618	46966	110568	0	0	8041	599904	0	0
2024-09-01 04:56:47			0	36596	0	0	0	28446	27070	159533	27497	1075573	46975	110567	0	0	8042	599569	0	0
2024-09-01 04:57:47			0	36620	0	0	0	28436	27070	159614	27393	1075537	46975	110563	0	0	8043	598584	0	0
2024-09-01 04:58:47			0	36618	0	0	0	28444	27070	159526	27410	1075510	46975	110566	0	0	8043	598666	0	0
2024-09-01 04:59:47			0	36603	0	0	0	28433	27070	159570	27497	1075537	46954	110562	0	0	8042	599281	0	0
2024-09-01 05:00:47			0	36619	0	0	0	28436	27060	159486	27345	1075492	46974	110563	0	0	8043	598659	0	0
2024-09-01 05:01:47			0	36624	0	0	0	28438	27060	159614	27003	1075465	46974	110564	0	0	8043	598454	0	0
2024-09-01 05:02:47			0	36625	0	0	0	28433	27050	159422	26996	1075474	46973	110562	0	0	8043	598447	0	0
2024-09-01 05:03:47			0	36631	0	0	0	28425	27050	159458	27102	1075474	46985	110559	0	0	8044	598201	0	0
2024-09-01 05:04:47			0	36644	0	0	0	28423	27040	159374	27405	1075465	46961	110558	0	0	8045	597703	0	0
2024-09-01 05:05:47			0	36657	0	0	0	28420	27050	159398	27429	1075420	46985	110557	0	0	8046	597136	0	0
2024-09-01 05:06:47			0	36666	0	0	0	28418	27040	159306	27476	1075465	46961	110556	0	0	8046	596802	0	0
2024-09-01 05:07:47			0	36656	0	0	0	28420	27040	159294	27225	1075428	46961	110557	0	0	8045	597211	0	0
2024-09-01 05:08:47			0	36682	0	0	0	28415	27030	159306	27031	1075366	46971	110555	0	0	8047	596181	0	0
2024-09-01 05:09:47			0	36657	0	0	0	28410	27030	159230	27306	1075419	46971	110553	0	0	8046	597204	0	0
2024-09-01 05:10:47			0	36683	0	0	0	28402	27020	159274	26913	1075374	46970	110550	0	0	8047	596174	0	0
2024-09-01 05:11:47			0	36694	0	0	0	28394	27030	159246	26915	1075312	46960	110547	0	0	8048	595690	0	0
2024-09-01 05:12:47			0	36675	0	0	0	28389	27020	159250	27190	1075312	46959	110545	0	0	8047	596502	0	0
2024-09-01 05:13:47			0	36677	0	0	0	28386	27020	159202	27189	1075267	46970	110544	0	0	8047	596420	0	0
2024-09-01 05:14:47			0	36680	0	0	0	28386	27020	159282	27154	1075267	46949	110544	0	0	8047	596297	0	0
2024-09-01 05:15:47			0	36680	0	0	0	28392	27010	159238	27296	1075276	46969	110546	0	0	8047	596331	0	0
2024-09-01 05:16:47			0	36665	0	0	0	28397	27010	159258	27144	1075293	46968	110548	0	0	8046	596945	0	0
2024-09-01 05:17:47			0	36695	0	0	0	28394	27010	159298	26937	1075302	46981	110547	0	0	8048	595718	0	0
2024-09-01 05:18:47			0	36693	0	0	0	28392	27010	159202	26994	1075266	46980	110546	0	0	8048	595799	0	0
2024-09-01 05:19:47			0	36695	0	0	0	28384	27010	159218	27164	1075293	46947	110543	0	0	8048	595718	0	0
2024-09-01 05:20:47			0	36708	0	0	0	28384	27000	159222	27071	1075203	46991	110543	0	0	8049	595220	0	0
2024-09-01 05:21:47			0	36695	0	0	0	28376	27010	159270	27164	1075212	46958	110540	0	0	8048	595718	0	0
2024-09-01 05:22:47			0	36701	0	0	0	28379	27000	159122	27237	1075203	46958	110541	0	0	8049	595507	0	0
2024-09-01 05:23:47			0	36705	0	0	0	28374	27000	159158	27157	1075194	46967	110539	0	0	8049	595343	0	0
2024-09-01 05:24:47			0	36729	0	0	0	28363	26980	159182	27336	1075140	46966	110535	0	0	8050	594431	0	0
2024-09-01 05:25:47			0	36731	0	0	0	28366	26980	159082	26897	1075167	46966	110536	0	0	8051	594349	0	0
2024-09-01 05:26:47			0	36717	0	0	0	28381	26980	159150	27112	1075158	46955	110542	0	0	8049	594921	0	0
2024-09-01 05:27:47			0	36727	0	0	0	28374	26990	159310	26812	1075185	46945	110539	0	0	8050	594478	0	0
2024-09-01 05:28:47			0	36727	0	0	0	28389	26980	159166	26993	1075185	46965	110545	0	0	8050	594512	0	0
2024-09-01 05:29:47			0	36735	0	0	0	28389	26990	159198	26944	1075158	46979	110545	0	0	8050	594152	0	0
2024-09-01 05:30:47			0	36746	0	0	0	28381	26990	159078	26972	1075239	46967	110542	0	0	8051	593703	0	0
2024-09-01 05:31:47			0	36734	0	0	0	28381	26980	159098	27109	1075194	46966	110542	0	0	8050	594227	0	0
2024-09-01 05:32:47			0	36730	0	0	0	28381	26970	159006	27090	1075149	46965	110542	0	0	8050	594424	0	0
2024-09-01 05:33:47			0	36752	0	0	0	28368	26980	159070	26837	1075131	46988	110537	0	0	8052	593492	0	0
2024-09-01 05:34:47			0	36741	0	0	0	28376	26980	159078	27230	1075212	46955	110540	0	0	8051	593941	0	0
2024-09-01 05:35:47			0	36747	0	0	0	28374	26980	159070	26904	1075167	46966	110539	0	0	8051	593696	0	0
2024-09-01 05:36:47			0	36732	0	0	0	28381	26970	159174	27305	1075068	46955	110542	0	0	8050	594343	0	0
2024-09-01 05:37:47			0	36738	0	0	0	28374	26980	159138	26906	1075167	46945	110539	0	0	8051	594063	0	0
2024-09-01 05:38:47			0	36735	0	0	0	28386	26970	159170	27039	1075176	46965	110544	0	0	8050	594220	0	0
2024-09-01 05:39:47			0	36716	0	0	0	28392	26970	159166	27183	1075203	46955	110546	0	0	8049	594996	0	0
2024-09-01 05:40:47			0	36698	0	0	0	28389	26980	159214	27046	1075194	46956	110545	0	0	8048	595697	0	0
2024-09-01 05:41:47			0	36719	0	0	0	28386	26970	159302	26842	1075203	46977	110544	0	0	8049	594873	0	0
2024-09-01 05:42:47			0	36702	0	0	0	28394	26980	159258	26781	1075212	46955	110547	0	0	8048	595534	0	0
2024-09-01 05:43:47			0	36688	0	0	0	28392	26970	159446	27189	1075095	46977	110546	0	0	8047	596141	0	0
2024-09-01 05:44:47			0	36700	0	0	0	28394	26980	159446	27102	1075131	46965	110547	0	0	8048	595616	0	0
2024-09-01 05:45:47			0	36682	0	0	0	28389	26970	159446	27178	1075086	46987	110545	0	0	8047	596386	0	0
2024-09-01 05:46:47			0	36661	0	0	0	28389	26970	159514	27164	1075140	46976	110545	0	0	8046	597246	0	0
2024-09-01 05:47:47			0	36646	0	0	0	28389	26970	159630	26771	1075086	46954	110545	0	0	8045	597861	0	0
2024-09-01 05:48:47			0	36652	0	0	0	28379	26980	159690	27213	1075051	46977	110541	0	0	8046	597581	0	0
2024-09-01 05:49:47			0	36616	0	0	0	28363	26950	159682	27258	1075059	46953	110535	0	0	8044	599160	0	0
2024-09-01 05:50:47			0	36618	0	0	0	28345	26960	159650	27114	1074987	46963	110528	0	0	8044	599044	0	0
2024-09-01 05:51:47			0	36606	0	0	0	28327	26950	159762	26946	1074943	46952	110521	0	0	8044	599571	0	0
2024-09-01 05:52:47			0	36595	0	0	0	28314	26930	159805	27111	1074898	46951	110516	0	0	8043	600091	0	0
2024-09-01 05:53:47			0	36596	0	0	0	28306	26930	159746	26975	1074862	46950	110513	0	0	8043	600050	0	0
2024-09-01 05:54:47			0	36580	0	0	0	28324	26930	159893	27029	1074888	46950	110520	0	0	8042	600708	0	0
2024-09-01 05:55:47			0	36567	0	0	0	28337	26930	159893	27055	1074942	46950	110525	0	0	8041	601243	0	0
2024-09-01 05:56:47			0	36570	0	0	0	28324	26920	160041	27013	1074870	46937	110520	0	0	8041	601154	0	0
2024-09-01 05:57:47			0	36565	0	0	0	28337	26930	160001	27190	1074915	46950	110525	0	0	8041	601325	0	0
2024-09-01 05:58:47			0	36531	0	0	0	28322	26920	159965	27256	1074843	46949	110519	0	0	8039	602761	0	0
2024-09-01 05:59:47			0	36534	0	0	0	28342	26910	160037	27189	1074808	46959	110527	0	0	8039	602671	0	0
2024-09-01 06:00:47			0	36529	0	0	0	28342	26920	160069	26989	1074924	46959	110527	0	0	8039	602843	0	0
2024-09-01 06:01:47			0	36535	0	0	0	28350	26920	160073	26866	1074933	46960	110530	0	0	8039	602596	0	0
2024-09-01 06:02:47			0	36519	0	0	0	28345	26920	160113	26833	1074897	46971	110528	0	0	8038	603255	0	0
2024-09-01 06:03:47			0	36497	0	0	0	28353	26920	160177	26889	1074906	46972	110531	0	0	8037	604163	0	0
2024-09-01 06:04:47			0	36501	0	0	0	28350	26930	160169	27183	1074969	46950	110530	0	0	8037	603964	0	0
2024-09-01 06:05:47			0	36492	0	0	0	28353	26930	160309	26876	1074951	46984	110531	0	0	8036	604335	0	0
2024-09-01 06:06:47			0	36512	0	0	0	28348	26910	160241	26882	1074888	46982	110529	0	0	8037	603579	0	0
2024-09-01 06:07:47			0	36496	0	0	0	28353	26930	160289	26994	1074924	46984	110531	0	0	8037	604170	0	0
2024-09-01 06:08:47			0	36497	0	0	0	28361	26930	160305	27059	1074915	46972	110534	0	0	8036	604129	0	0
2024-09-01 06:09:47			0	36491	0	0	0	28350	26920	160325	27324	1074933	46960	110530	0	0	8036	604411	0	0
2024-09-01 06:10:47			0	36505	0	0	0	28353	26920	160393	27275	1074933	46960	110531	0	0	8037	603833	0	0
2024-09-01 06:11:47			0	36469	0	0	0	28350	26920	160329	26868	1074906	46983	110530	0	0	8035	605320	0	0
2024-09-01 06:12:47			0	36491	0	0	0	28335	26920	160417	27123	1074897	46949	110524	0	0	8036	604411	0	0
2024-09-01 06:13:47			0	36477	0	0	0	28314	26920	160285	27372	1074933	46960	110516	0	0	8036	604990	0	0
2024-09-01 06:14:47			0	36466	0	0	0	28293	26910	160337	27168	1074808	46959	110508	0	0	8036	605479	0	0
2024-09-01 06:15:47			0	36461	0	0	0	28283	26920	160417	27085	1074763	46959	110504	0	0	8036	605651	0	0
2024-09-01 06:16:47			0	36474	0	0	0	28262	26910	160429	26955	1074744	46958	110496	0	0	8037	605148	0	0
2024-09-01 06:17:47			0	36461	0	0	0	28267	26910	160493	27109	1074700	46949	110498	0	0	8036	605686	0	0
2024-09-01 06:18:47			0	36469	0	0	0	28275	26900	160453	26937	1074646	46958	110501	0	0	8036	605390	0	0
2024-09-01 06:19:47			0	36488	0	0	0	28272	26880	160557	27187	1074565	46945	110500	0	0	8037	604674	0	0
2024-09-01 06:20:47			0	36475	0	0	0	28267	26870	160421	26987	1074627	46933	110498	0	0	8036	605246	0	0
2024-09-01 06:21:47			0	36477	0	0	0	28277	26880	160549	27192	1074592	46945	110502	0	0	8036	605128	0	0
2024-09-01 06:22:47			0	36476	0	0	0	28290	26870	160341	27268	1074574	46956	110507	0	0	8036	605204	0	0
2024-09-01 06:23:47			0	36453	0	0	0	28275	26870	160437	26994	1074591	46944	110501	0	0	8035	606156	0	0
2024-09-01 06:24:47			0	36484	0	0	0	28267	26860	160441	26915	1074529	46954	110498	0	0	8037	604908	0	0
2024-09-01 06:25:47			0	36478	0	0	0	28264	26860	160337	27086	1074555	46943	110497	0	0	8037	605156	0	0
2024-09-01 06:26:47			0	36476	0	0	0	28275	26850	160509	27107	1074484	46954	110501	0	0	8036	605274	0	0
2024-09-01 06:27:47			0	36473	0	0	0	28272	26860	160377	27137	1074439	46954	110500	0	0	8036	605363	0	0
2024-09-01 06:28:47			0	36478	0	0	0	28259	26860	160293	27253	1074493	46943	110495	0	0	8037	605156	0	0
2024-09-01 06:29:47			0	36483	0	0	0	28254	26850	160417	26979	1074537	46964	110493	0	0	8037	604984	0	0
2024-09-01 06:30:47			0	36471	0	0	0	28259	26850	160397	27183	1074510	46976	110495	0	0	8036	605480	0	0
2024-09-01 06:31:47			0	36457	0	0	0	28275	26850	160309	27067	1074475	46963	110501	0	0	8035	606060	0	0
2024-09-01 06:32:47			0	36467	0	0	0	28288	26850	160377	27137	1074501	46963	110506	0	0	8035	605646	0	0
2024-09-01 06:33:47			0	36466	0	0	0	28296	26850	160457	27045	1074537	46976	110509	0	0	8035	605687	0	0
2024-09-01 06:34:47			0	36480	0	0	0	28309	26840	160433	27365	1074519	46962	110514	0	0	8036	605143	0	0
2024-09-01 06:35:47			0	36454	0	0	0	28306	26850	160493	27124	1074591	46954	110513	0	0	8034	606184	0	0
2024-09-01 06:36:47			0	36457	0	0	0	28309	26860	160385	27246	1074600	46987	110514	0	0	8035	606025	0	0
2024-09-01 06:37:47			0	36451	0	0	0	28316	26860	160513	26885	1074735	46976	110517	0	0	8034	606273	0	0
2024-09-01 06:38:47			0	36456	0	0	0	28311	26860	160533	26887	1074636	46976	110515	0	0	8035	606066	0	0
2024-09-01 06:39:47			0	36454	0	0	0	28322	26860	160573	26890	1074663	46976	110519	0	0	8034	606149	0	0
2024-09-01 06:40:47			0	36457	0	0	0	28322	26870	160553	26961	1074672	46966	110519	0	0	8034	605990	0	0
2024-09-01 06:41:47			0	36454	0	0	0	28322	26870	160585	26868	1074591	46977	110519	0	0	8034	606114	0	0
2024-09-01 06:42:47			0	36454	0	0	0	28316	26870	160417	26873	1074699	46955	110517	0	0	8034	606114	0	0
2024-09-01 06:43:47			0	36450	0	0	0	28316	26870	160537	26956	1074627	46967	110517	0	0	8034	606280	0	0
2024-09-01 06:44:47			0	36454	0	0	0	28316	26870	160617	27133	1074681	46967	110517	0	0	8034	606114	0	0
2024-09-01 06:45:47			0	36456	0	0	0	28314	26880	160657	27090	1074690	46967	110516	0	0	8035	605997	0	0
2024-09-01 06:46:47			0	36446	0	0	0	28314	26880	160589	27126	1074744	46956	110516	0	0	8034	606411	0	0
2024-09-01 06:47:47			0	36440	0	0	0	28314	26880	160569	27166	1074753	46989	110516	0	0	8034	606659	0	0
2024-09-01 06:48:47			0	36427	0	0	0	28306	26870	160565	26970	1074789	46956	110513	0	0	8033	607233	0	0
2024-09-01 06:49:47			0	36424	0	0	0	28314	26890	160653	26828	1074789	46968	110516	0	0	8033	607287	0	0
2024-09-01 06:50:47			0	36401	0	0	0	28327	26880	160609	27020	1074807	46978	110521	0	0	8031	608276	0	0
2024-09-01 06:51:47			0	36415	0	0	0	28314	26880	160709	27024	1074834	46989	110516	0	0	8032	607695	0	0
2024-09-01 06:52:47			0	36407	0	0	0	28327	26890	160637	27041	1074798	46968	110521	0	0	8031	607992	0	0
2024-09-01 06:53:47			0	36416	0	0	0	28316	26900	160653	27164	1074807	46958	110517	0	0	8032	607584	0	0
2024-09-01 06:54:47			0	36397	0	0	0	28319	26900	160781	26804	1074807	46968	110518	0	0	8031	608372	0	0
2024-09-01 06:55:47			0	36402	0	0	0	28319	26900	160701	26944	1074843	46948	110518	0	0	8031	608165	0	0
2024-09-01 06:56:47			0	36395	0	0	0	28322	26900	160805	26932	1074816	46970	110519	0	0	8031	608455	0	0
2024-09-01 06:57:47			0	36393	0	0	0	28314	26900	160721	27039	1074843	46970	110516	0	0	8031	608538	0	0
2024-09-01 06:58:47			0	36384	0	0	0	28319	26910	160793	26814	1074744	46970	110518	0	0	8030	608877	0	0
2024-09-01 06:59:47			0	36409	0	0	0	28311	26890	160733	27222	1074789	46946	110515	0	0	8032	607909	0	0
2024-09-01 07:00:47			0	36373	0	0	0	28306	26880	160761	26896	1074699	46933	110513	0	0	8030	609438	0	0
2024-09-01 07:01:47			0	36386	0	0	0	28288	26880	160821	26753	1074592	46945	110506	0	0	8031	608898	0	0
2024-09-01 07:02:47			0	36367	0	0	0	28264	26870	160825	27192	1074574	46956	110497	0	0	8030	609723	0	0
2024-09-01 07:03:47			0	36369	0	0	0	28236	26860	160793	26785	1074502	46931	110486	0	0	8031	609675	0	0
2024-09-01 07:04:47			0	36381	0	0	0	28207	26850	160825	27013	1074457	46954	110475	0	0	8032	609211	0	0
2024-09-01 07:05:47			0	36375	0	0	0	28192	26850	160813	27390	1074394	46930	110469	0	0	8032	609460	0	0
2024-09-01 07:06:47			0	36377	0	0	0	28181	26840	160781	27121	1074349	46918	110465	0	0	8032	609412	0	0
2024-09-01 07:07:47			0	36372	0	0	0	28166	26830	160713	27060	1074205	46917	110459	0	0	8032	609655	0	0
2024-09-01 07:08:47			0	36370	0	0	0	28158	26820	160749	27123	1074259	46926	110456	0	0	8032	609773	0	0
2024-09-01 07:09:47			0	36381	0	0	0	28148	26820	160845	26932	1074205	46926	110452	0	0	8033	609316	0	0
2024-09-01 07:10:47			0	36379	0	0	0	28153	26810	160865	27029	1074160	46938	110454	0	0	8032	609434	0	0
2024-09-01 07:11:47			0	36383	0	0	0	28145	26810	160825	27126	1074160	46926	110451	0	0	8033	609267	0	0
2024-09-01 07:12:47			0	36374	0	0	0	28137	26800	160753	26833	1074115	46947	110448	0	0	8032	609676	0	0
2024-09-01 07:13:47			0	36376	0	0	0	28137	26780	160893	27334	1074142	46935	110448	0	0	8032	609663	0	0
2024-09-01 07:14:47			0	36381	0	0	0	28142	26790	160829	27116	1074070	46936	110450	0	0	8033	609420	0	0
2024-09-01 07:15:47			0	36388	0	0	0	28137	26780	160833	27431	1074025	46945	110448	0	0	8033	609164	0	0
2024-09-01 07:16:47			0	36384	0	0	0	28135	26780	160757	27124	1074007	46935	110447	0	0	8033	609331	0	0
2024-09-01 07:17:47			0	36390	0	0	0	28127	26770	160781	27140	1073989	46934	110444	0	0	8033	609116	0	0
2024-09-01 07:18:47			0	36379	0	0	0	28145	26760	160789	26883	1073989	46943	110451	0	0	8032	609608	0	0
2024-09-01 07:19:47			0	36366	0	0	0	28168	26750	160885	26922	1073980	46942	110460	0	0	8031	610184	0	0
2024-09-01 07:20:47			0	36367	0	0	0	28181	26760	160913	26901	1074043	46943	110465	0	0	8031	610107	0	0
2024-09-01 07:21:47			0	36373	0	0	0	28205	26760	160997	27298	1074016	46965	110474	0	0	8031	609858	0	0
2024-09-01 07:22:47			0	36379	0	0	0	28215	26750	161073	27126	1074025	46953	110478	0	0	8031	609643	0	0
2024-09-01 07:23:47			0	36363	0	0	0	28236	26760	161101	27329	1073989	46943	110486	0	0	8030	610273	0	0
2024-09-01 07:24:47			0	36374	0	0	0	28233	26760	161149	27130	1074123	46965	110485	0	0	8030	609816	0	0
2024-09-01 07:25:47			0	36346	0	0	0	28244	26760	161105	26795	1074132	46966	110489	0	0	8029	610981	0	0
2024-09-01 07:26:47			0	36324	0	0	0	28246	26760	161149	27232	1074132	46966	110490	0	0	8027	611897	0	0
2024-09-01 07:27:47			0	36323	0	0	0	28238	26770	161137	27317	1074088	46967	110487	0	0	8027	611904	0	0
2024-09-01 07:28:47			0	36300	0	0	0	28236	26770	161369	27052	1074141	46956	110486	0	0	8026	612863	0	0
2024-09-01 07:29:47			0	36272	0	0	0	28244	26770	161417	27253	1074141	46978	110489	0	0	8024	614031	0	0
2024-09-01 07:30:47			0	36270	0	0	0	28244	26770	161509	26993	1074097	46945	110489	0	0	8024	614115	0	0
2024-09-01 07:31:47			0	36243	0	0	0	28223	26770	161397	26778	1074061	46934	110481	0	0	8023	615244	0	0
2024-09-01 07:32:47			0	36216	0	0	0	28199	26760	161561	26757	1074079	46955	110472	0	0	8021	616409	0	0
2024-09-01 07:33:47			0	36220	0	0	0	28176	26760	161573	27105	1074016	46954	110463	0	0	8022	616242	0	0
2024-09-01 07:34:47			0	36199	0	0	0	28189	26760	161741	26870	1073998	46944	110468	0	0	8021	617121	0	0
2024-09-01 07:35:47			0	36199	0	0	0	28207	26760	161757	26882	1074016	46965	110475	0	0	8020	617121	0	0
2024-09-01 07:36:47			0	36177	0	0	0	28199	26750	161789	26915	1074034	46953	110472	0	0	8019	618080	0	0
2024-09-01 07:37:47			0	36194	0	0	0	28179	26760	161721	27390	1074069	46943	110464	0	0	8021	617331	0	0
2024-09-01 07:38:47			0	36183	0	0	0	28163	26760	161789	27142	1073998	46966	110458	0	0	8020	617792	0	0
2024-09-01 07:39:47			0	36169	0	0	0	28158	26750	161809	27147	1074007	46953	110456	0	0	8019	618415	0	0
2024-09-01 07:40:47			0	36165	0	0	0	28163	26750	161861	27022	1073917	46942	110458	0	0	8019	618583	0	0
2024-09-01 07:41:47			0	36169	0	0	0	28186	26750	161829	27204	1074034	46964	110467	0	0	8019	618415	0	0
2024-09-01 07:42:47			0	36152	0	0	0	28205	26760	161969	27315	1074016	46965	110474	0	0	8018	619094	0	0
2024-09-01 07:43:47			0	36156	0	0	0	28215	26760	161929	27057	1074069	46976	110478	0	0	8018	618926	0	0
2024-09-01 07:44:47			0	36148	0	0	0	28215	26750	161965	26939	1074087	46964	110478	0	0	8017	619297	0	0
2024-09-01 07:45:47			0	36151	0	0	0	28241	26760	161977	27105	1074123	46954	110488	0	0	8017	619136	0	0
2024-09-01 07:46:47			0	36143	0	0	0	28236	26760	162033	27017	1074105	46955	110486	0	0	8016	619472	0	0
2024-09-01 07:47:47			0	36139	0	0	0	28220	26760	161969	27192	1074132	46966	110480	0	0	8016	619640	0	0
2024-09-01 07:48:47			0	36131	0	0	0	28194	26760	162097	27010	1074159	46944	110470	0	0	8016	619977	0	0
2024-09-01 07:49:47			0	36135	0	0	0	28176	26770	161997	27019	1074088	46967	110463	0	0	8017	619773	0	0
2024-09-01 07:50:47			0	36121	0	0	0	28140	26770	162001	26949	1074034	46945	110449	0	0	8017	620362	0	0
2024-09-01 07:51:47			0	36109	0	0	0	28119	26750	162033	27060	1073917	46931	110441	0	0	8016	620938	0	0
2024-09-01 07:52:47			0	36102	0	0	0	28122	26760	162017	27185	1073989	46943	110442	0	0	8016	621197	0	0
2024-09-01 07:53:47			0	36107	0	0	0	28103	26740	162089	27135	1073881	46931	110435	0	0	8016	621058	0	0
2024-09-01 07:54:47			0	36104	0	0	0	28103	26740	162177	26689	1073881	46931	110435	0	0	8016	621184	0	0
2024-09-01 07:55:47			0	36088	0	0	0	28109	26730	162145	27083	1073836	46929	110437	0	0	8015	621894	0	0
2024-09-01 07:56:47			0	36085	0	0	0	28114	26720	162269	26856	1073764	46929	110439	0	0	8015	622056	0	0
2024-09-01 07:57:47			0	36092	0	0	0	28124	26710	162133	27183	1073746	46938	110443	0	0	8015	621796	0	0
2024-09-01 07:58:47			0	36073	0	0	0	28132	26710	162225	27204	1073854	46938	110446	0	0	8014	622597	0	0
2024-09-01 07:59:47			0	36076	0	0	0	28137	26710	162325	27104	1073800	46938	110448	0	0	8014	622471	0	0
2024-09-01 08:00:47			0	36072	0	0	0	28132	26710	162281	26928	1073764	46949	110446	0	0	8014	622640	0	0
2024-09-01 08:01:47			0	36080	0	0	0	28111	26710	162277	27114	1073683	46927	110438	0	0	8015	622302	0	0
2024-09-01 08:02:47			0	36065	0	0	0	28062	26710	162305	27345	1073737	46927	110419	0	0	8014	622935	0	0
2024-09-01 08:03:47			0	36074	0	0	0	28054	26700	162309	27374	1073674	46938	110416	0	0	8015	622591	0	0
2024-09-01 08:04:47			0	36068	0	0	0	28054	26700	162389	27138	1073585	46937	110416	0	0	8015	622844	0	0
2024-09-01 08:05:47			0	36063	0	0	0	28062	26680	162401	27242	1073558	46958	110419	0	0	8014	623126	0	0
2024-09-01 08:06:47			0	36033	0	0	0	28088	26690	162445	27317	1073683	46947	110429	0	0	8012	624358	0	0
2024-09-01 08:07:47			0	36030	0	0	0	28085	26690	162441	27027	1073674	46946	110428	0	0	8012	624485	0	0
2024-09-01 08:08:47			0	36019	0	0	0	28088	26680	162477	27208	1073638	46946	110429	0	0	8011	624986	0	0
2024-09-01 08:09:47			0	36009	0	0	0	28059	26690	162557	26890	1073620	46946	110418	0	0	8011	625373	0	0
2024-09-01 08:10:47			0	35976	0	0	0	28031	26680	162585	27055	1073531	46913	110407	0	0	8009	626807	0	0
2024-09-01 08:11:47			0	35983	0	0	0	28007	26680	162633	26951	1073504	46924	110398	0	0	8010	626510	0	0
2024-09-01 08:12:47			0	35956	0	0	0	28010	26660	162869	27142	1073405	46922	110399	0	0	8008	627727	0	0
2024-09-01 08:13:47			0	35888	0	0	0	28010	26650	163117	27050	1073395	46932	110399	0	0	8004	630653	0	0
2024-09-01 08:14:47			0	35793	0	0	0	28025	26640	163560	27249	1073386	46909	110405	0	0	7998	634743	0	0
2024-09-01 08:15:47			0	35689	0	0	0	28067	26640	163920	27258	1073521	46942	110421	0	0	7991	639203	0	0
2024-09-01 08:16:47			0	35654	0	0	0	28122	26650	164184	27081	1073610	46955	110442	0	0	7988	640673	0	0
2024-09-01 08:17:47			0	35657	0	0	0	28142	26670	164144	27481	1073665	46944	110450	0	0	7988	640470	0	0
2024-09-01 08:18:47			0	35664	0	0	0	28158	26670	163988	27270	1073701	46967	110456	0	0	7988	640169	0	0
2024-09-01 08:19:47			0	35665	0	0	0	28171	26690	164188	27039	1073808	46979	110461	0	0	7988	640052	0	0
2024-09-01 08:20:47			0	35642	0	0	0	28179	26700	164104	27092	1073827	46970	110464	0	0	7987	641006	0	0
2024-09-01 08:21:47			0	35648	0	0	0	28186	26700	164272	27234	1073916	46960	110467	0	0	7987	640748	0	0
2024-09-01 08:22:47			0	35628	0	0	0	28153	26710	164148	27334	1073898	46960	110454	0	0	7986	641573	0	0
2024-09-01 08:23:47			0	35628	0	0	0	28127	26710	164252	27118	1073818	46949	110444	0	0	7987	641573	0	0
2024-09-01 08:24:47			0	35604	0	0	0	28122	26720	164172	27305	1073809	46950	110442	0	0	7985	642571	0	0
2024-09-01 08:25:47			0	35602	0	0	0	28135	26700	164252	27192	1073800	46948	110447	0	0	7985	642731	0	0
2024-09-01 08:26:47			0	35577	0	0	0	28155	26710	164320	27379	1073854	46938	110455	0	0	7983	643773	0	0
2024-09-01 08:27:47			0	35584	0	0	0	28199	26720	164476	27353	1073916	46961	110472	0	0	7983	643434	0	0
2024-09-01 08:28:47			0	35576	0	0	0	28223	26730	164484	27256	1074096	46962	110481	0	0	7982	643743	0	0
2024-09-01 08:29:47			0	35573	0	0	0	28223	26740	164408	27097	1074096	46986	110481	0	0	7982	643836	0	0
2024-09-01 08:30:47			0	35567	0	0	0	28233	26750	164448	27095	1074132	46964	110485	0	0	7981	644058	0	0
2024-09-01 08:31:47			0	35543	0	0	0	28218	26760	164484	27253	1074159	46977	110479	0	0	7980	645059	0	0
2024-09-01 08:32:47			0	35563	0	0	0	28220	26770	164560	26991	1074168	46978	110480	0	0	7981	644157	0	0
2024-09-01 08:33:47			0	35552	0	0	0	28223	26780	164580	27209	1074240	46967	110481	0	0	7981	644596	0	0
2024-09-01 08:34:47			0	35524	0	0	0	28210	26770	164592	27275	1074177	46956	110476	0	0	7979	645844	0	0
2024-09-01 08:35:47			0	35539	0	0	0	28210	26780	164612	27156	1074213	46945	110476	0	0	7980	645158	0	0
2024-09-01 08:36:47			0	35518	0	0	0	28207	26780	164500	27190	1074213	46945	110475	0	0	7979	646067	0	0
2024-09-01 08:37:47			0	35538	0	0	0	28197	26780	164596	26765	1074249	46957	110471	0	0	7980	645201	0	0
2024-09-01 08:38:47			0	35532	0	0	0	28189	26790	164616	27260	1074231	46958	110468	0	0	7980	645424	0	0
2024-09-01 08:39:47			0	35520	0	0	0	28179	26780	164620	27008	1074195	46946	110464	0	0	7979	645981	0	0
2024-09-01 08:40:47			0	35520	0	0	0	28179	26780	164632	26975	1074168	46946	110464	0	0	7979	645981	0	0
2024-09-01 08:41:47			0	35508	0	0	0	28179	26780	164792	26875	1074159	46945	110464	0	0	7979	646501	0	0
2024-09-01 08:42:47			0	35498	0	0	0	28184	26780	164672	26970	1074222	46935	110466	0	0	7978	646934	0	0
2024-09-01 08:43:47			0	35506	0	0	0	28173	26790	164688	27119	1074151	46958	110462	0	0	7979	646550	0	0
2024-09-01 08:44:47			0	35519	0	0	0	28173	26780	164792	27230	1074168	46946	110462	0	0	7980	646024	0	0
2024-09-01 08:45:47			0	35514	0	0	0	28179	26780	164648	27109	1074133	46945	110464	0	0	7979	646241	0	0
2024-09-01 08:46:47			0	35514	0	0	0	28171	26780	164608	26949	1074186	46934	110461	0	0	7979	646241	0	0
2024-09-01 08:47:47			0	35513	0	0	0	28181	26790	164720	26824	1074214	46936	110465	0	0	7979	646247	0	0
2024-09-01 08:48:47			0	35505	0	0	0	28168	26790	164624	27183	1074151	46958	110460	0	0	7979	646594	0	0
2024-09-01 08:49:47			0	35497	0	0	0	28166	26780	164700	27152	1074168	46957	110459	0	0	7978	646977	0	0
2024-09-01 08:50:47			0	35514	0	0	0	28179	26780	164668	27319	1074142	46957	110464	0	0	7979	646241	0	0
2024-09-01 08:51:47			0	35523	0	0	0	28168	26780	164552	27455	1074142	46935	110460	0	0	7980	645851	0	0
2024-09-01 08:52:47			0	35520	0	0	0	28168	26770	164560	27350	1074177	46945	110460	0	0	7980	646018	0	0
2024-09-01 08:53:47			0	35536	0	0	0	28129	26780	164608	27072	1074088	46935	110445	0	0	7981	645288	0	0
2024-09-01 08:54:47			0	35561	0	0	0	28116	26770	164472	27164	1074123	46934	110440	0	0	7983	644244	0	0
2024-09-01 08:55:47			0	35557	0	0	0	28119	26760	164416	26977	1074016	46910	110441	0	0	7983	644453	0	0
2024-09-01 08:56:47			0	35574	0	0	0	28127	26760	164396	26937	1073962	46910	110444	0	0	7984	643719	0	0
2024-09-01 08:57:47			0	35594	0	0	0	28135	26760	164360	27386	1073962	46920	110447	0	0	7985	642855	0	0
2024-09-01 08:58:47			0	35614	0	0	0	28135	26760	164204	27033	1073962	46932	110447	0	0	7986	641992	0	0
2024-09-01 08:59:47			0	35606	0	0	0	28155	26750	164144	27121	1074025	46942	110455	0	0	7985	642374	0	0
2024-09-01 09:00:47			0	35627	0	0	0	28142	26750	164100	27192	1073980	46919	110450	0	0	7987	641469	0	0
2024-09-01 09:01:47			0	35654	0	0	0	28168	26740	164000	27071	1073926	46941	110460	0	0	7988	640343	0	0
2024-09-01 09:02:47			0	35687	0	0	0	28166	26750	163916	27029	1073980	46953	110459	0	0	7990	638887	0	0
2024-09-01 09:03:47			0	35694	0	0	0	28166	26750	163968	27306	1074007	46953	110459	0	0	7990	638586	0	0
2024-09-01 09:04:47			0	35693	0	0	0	28176	26750	163880	27197	1074025	46919	110463	0	0	7990	638629	0	0
2024-09-01 09:05:47			0	35728	0	0	0	28179	26760	163828	27050	1074123	46943	110464	0	0	7992	637090	0	0
2024-09-01 09:06:47			0	35743	0	0	0	28184	26760	163672	27263	1074096	46954	110466	0	0	7993	636447	0	0
2024-09-01 09:07:47			0	35746	0	0	0	28186	26760	163592	27253	1074132	46955	110467	0	0	7993	636319	0	0
2024-09-01 09:08:47			0	35779	0	0	0	28168	26770	163524	27163	1074088	46967	110460	0	0	7996	634870	0	0
2024-09-01 09:09:47			0	35784	0	0	0	28168	26770	163356	27176	1074150	46956	110460	0	0	7996	634656	0	0
2024-09-01 09:10:47			0	35814	0	0	0	28161	26770	163248	26807	1074088	46945	110457	0	0	7998	633374	0	0
2024-09-01 09:11:47			0	35836	0	0	0	28158	26750	163300	26918	1074034	46942	110456	0	0	7999	632508	0	0
2024-09-01 09:12:47			0	35830	0	0	0	28163	26760	163204	27001	1074043	46932	110458	0	0	7999	632727	0	0
2024-09-01 09:13:47			0	35842	0	0	0	28148	26760	163112	27232	1074052	46933	110452	0	0	8000	632215	0	0
2024-09-01 09:14:47			0	35866	0	0	0	28137	26750	163016	27052	1074034	46942	110448	0	0	8001	631229	0	0
2024-09-01 09:15:47			0	35899	0	0	0	28145	26750	163057	27185	1073980	46931	110451	0	0	8003	629824	0	0
2024-09-01 09:16:47			0	35868	0	0	0	28145	26750	163025	27069	1073980	46942	110451	0	0	8001	631144	0	0
2024-09-01 09:17:47			0	35843	0	0	0	28166	26750	163180	26824	1074034	46942	110459	0	0	7999	632209	0	0
2024-09-01 09:18:47			0	35813	0	0	0	28184	26760	163304	27055	1074069	46943	110466	0	0	7997	633453	0	0
2024-09-01 09:19:47			0	35812	0	0	0	28197	26760	163328	27222	1074079	46933	110471	0	0	7997	633496	0	0
2024-09-01 09:20:47			0	35804	0	0	0	28210	26770	163348	27253	1074177	46956	110476	0	0	7996	633801	0	0
2024-09-01 09:21:47			0	35820	0	0	0	28218	26780	163276	27371	1074240	46956	110479	0	0	7997	633082	0	0
2024-09-01 09:22:47			0	35842	0	0	0	28236	26780	163072	27185	1074213	46967	110486	0	0	7998	632143	0	0
2024-09-01 09:23:47			0	35890	0	0	0	28238	26780	162953	27170	1074303	46968	110487	0	0	8001	630099	0	0
2024-09-01 09:24:47			0	35930	0	0	0	28241	26800	162713	27031	1074357	46980	110488	0	0	8004	628327	0	0
2024-09-01 09:25:47			0	36092	0	0	0	28236	26800	162033	27235	1074384	46958	110486	0	0	8014	621476	0	0
2024-09-01 09:26:47			0	36222	0	0	0	28238	26800	161553	26996	1074420	46981	110487	0	0	8021	616017	0	0
2024-09-01 09:27:47			0	36336	0	0	0	28236	26810	161045	27199	1074402	46949	110486	0	0	8028	611222	0	0
2024-09-01 09:28:47			0	36401	0	0	0	28244	26810	160761	27228	1074384	46959	110489	0	0	8032	608520	0	0
2024-09-01 09:29:47			0	36470	0	0	0	28244	26820	160497	27128	1074393	46938	110489	0	0	8036	605626	0	0
2024-09-01 09:30:47			0	36489	0	0	0	28246	26820	160337	27251	1074456	46950	110490	0	0	8037	604840	0	0
2024-09-01 09:31:47			0	36527	0	0	0	28249	26820	160081	26953	1074420	46949	110491	0	0	8040	603271	0	0
2024-09-01 09:32:47			0	36531	0	0	0	28251	26830	160065	27176	1074465	46951	110492	0	0	8040	603072	0	0
2024-09-01 09:33:47			0	36544	0	0	0	28251	26820	159949	27189	1074510	46950	110492	0	0	8041	602570	0	0
2024-09-01 09:34:47			0	36566	0	0	0	28254	26830	159953	26993	1074474	46973	110493	0	0	8042	601629	0	0
2024-09-01 09:35:47			0	36598	0	0	0	28259	26830	159874	27320	1074528	46951	110495	0	0	8044	600312	0	0
2024-09-01 09:36:47			0	36592	0	0	0	28249	26840	159889	27296	1074537	46941	110491	0	0	8044	600525	0	0
2024-09-01 09:37:47			0	36626	0	0	0	28218	26830	159730	26873	1074474	46940	110479	0	0	8046	599162	0	0
2024-09-01 09:38:47			0	36611	0	0	0	28228	26830	159766	26890	1074501	46928	110483	0	0	8045	599778	0	0
2024-09-01 09:39:47			0	36618	0	0	0	28244	26820	159722	26883	1074376	46939	110489	0	0	8045	599525	0	0
2024-09-01 09:40:47			0	36637	0	0	0	28254	26830	159634	26788	1074438	46940	110493	0	0	8046	598710	0	0
2024-09-01 09:41:47			0	36640	0	0	0	28231	26830	159638	27166	1074474	46951	110484	0	0	8047	598587	0	0
2024-09-01 09:42:47			0	36644	0	0	0	28228	26830	159626	27105	1074465	46951	110483	0	0	8047	598423	0	0
2024-09-01 09:43:47			0	36647	0	0	0	28218	26830	159542	27083	1074438	46940	110479	0	0	8047	598300	0	0
2024-09-01 09:44:47			0	36658	0	0	0	28231	26830	159510	27159	1074474	46961	110484	0	0	8048	597848	0	0
2024-09-01 09:45:47			0	36679	0	0	0	28233	26840	159526	26779	1074456	46952	110485	0	0	8049	596954	0	0
2024-09-01 09:46:47			0	36656	0	0	0	28231	26820	159526	27055	1074474	46949	110484	0	0	8048	597965	0	0
2024-09-01 09:47:47			0	36672	0	0	0	28246	26820	159530	27144	1074456	46950	110490	0	0	8048	597309	0	0
2024-09-01 09:48:47			0	36658	0	0	0	28251	26840	159578	27306	1074510	46962	110492	0	0	8047	597814	0	0
2024-09-01 09:49:47			0	36660	0	0	0	28244	26830	159538	27126	1074501	46940	110489	0	0	8048	597766	0	0
2024-09-01 09:50:47			0	36663	0	0	0	28254	26830	159498	27071	1074474	46940	110493	0	0	8048	597644	0	0
2024-09-01 09:51:47			0	36672	0	0	0	28249	26840	159498	27206	1074537	46952	110491	0	0	8048	597240	0	0
2024-09-01 09:52:47			0	36671	0	0	0	28254	26850	159498	27131	1074501	46953	110493	0	0	8048	597247	0	0
2024-09-01 09:53:47			0	36665	0	0	0	28254	26840	159510	27109	1074510	46974	110493	0	0	8048	597527	0	0
2024-09-01 09:54:47			0	36647	0	0	0	28259	26840	159566	27102	1074546	46941	110495	0	0	8047	598265	0	0
2024-09-01 09:55:47			0	36662	0	0	0	28267	26840	159506	27275	1074546	46929	110498	0	0	8047	597650	0	0
2024-09-01 09:56:47			0	36647	0	0	0	28270	26850	159574	27348	1074564	46954	110499	0	0	8047	598231	0	0
2024-09-01 09:57:47			0	36649	0	0	0	28270	26850	159626	27270	1074564	46954	110499	0	0	8047	598149	0	0
2024-09-01 09:58:47			0	36646	0	0	0	28264	26840	159650	27242	1074546	46952	110497	0	0	8047	598306	0	0
2024-09-01 09:59:47			0	36662	0	0	0	28267	26850	159646	26880	1074591	46943	110498	0	0	8047	597616	0	0
2024-09-01 10:00:47			0	36656	0	0	0	28272	26850	159658	27339	1074618	46954	110500	0	0	8047	597862	0	0
2024-09-01 10:01:47			0	36657	0	0	0	28270	26850	159574	27232	1074591	46954	110499	0	0	8047	597821	0	0
2024-09-01 10:02:47			0	36668	0	0	0	28275	26850	159590	27227	1074636	46942	110501	0	0	8048	597370	0	0
2024-09-01 10:03:47			0	36690	0	0	0	28280	26860	159494	26885	1074654	46964	110503	0	0	8049	596435	0	0
2024-09-01 10:04:47			0	36704	0	0	0	28283	26850	159506	26979	1074582	46942	110504	0	0	8050	595896	0	0
2024-09-01 10:05:47			0	36704	0	0	0	28285	26860	159414	27180	1074735	46954	110505	0	0	8050	595862	0	0
2024-09-01 10:06:47			0	36725	0	0	0	28285	26860	159378	26981	1074663	46954	110505	0	0	8051	595003	0	0
2024-09-01 10:07:47			0	36741	0	0	0	28285	26870	159270	26963	1074654	46956	110505	0	0	8052	594316	0	0
2024-09-01 10:08:47			0	36743	0	0	0	28277	26860	159286	27275	1074744	46964	110502	0	0	8052	594268	0	0
2024-09-01 10:09:47			0	36752	0	0	0	28306	26860	159246	26868	1074690	46954	110513	0	0	8052	593901	0	0
2024-09-01 10:10:47			0	36761	0	0	0	28306	26870	159254	26911	1074780	46955	110513	0	0	8053	593499	0	0
2024-09-01 10:11:47			0	36791	0	0	0	28311	26870	159070	27246	1074789	46956	110515	0	0	8054	592276	0	0
2024-09-01 10:12:47			0	36782	0	0	0	28301	26880	159038	27005	1074744	46945	110511	0	0	8054	592609	0	0
2024-09-01 10:13:47			0	36815	0	0	0	28316	26880	158970	27256	1074798	46978	110517	0	0	8056	591265	0	0
2024-09-01 10:14:47			0	36828	0	0	0	28319	26880	158846	27590	1074825	46967	110518	0	0	8057	590736	0	0
2024-09-01 10:15:47			0	36847	0	0	0	28319	26890	158730	27085	1074896	46946	110518	0	0	8058	589930	0	0
2024-09-01 10:16:47			0	36867	0	0	0	28329	26900	158654	27194	1074861	46947	110522	0	0	8059	589084	0	0
2024-09-01 10:17:47			0	36890	0	0	0	28327	26890	158558	27556	1074896	46968	110521	0	0	8060	588185	0	0
2024-09-01 10:18:47			0	36918	0	0	0	28332	26910	158554	26981	1074933	46958	110523	0	0	8062	586983	0	0
2024-09-01 10:19:47			0	36907	0	0	0	28329	26910	158518	27215	1074906	46948	110522	0	0	8061	587429	0	0
2024-09-01 10:20:47			0	36936	0	0	0	28324	26910	158530	27216	1074933	46970	110520	0	0	8063	586255	0	0
2024-09-01 10:21:47			0	36929	0	0	0	28329	26910	158382	26968	1075023	46971	110522	0	0	8063	586538	0	0
2024-09-01 10:22:47			0	36925	0	0	0	28340	26910	158350	27201	1074969	46959	110526	0	0	8062	586700	0	0
2024-09-01 10:23:47			0	36950	0	0	0	28345	26910	158362	27046	1074969	46949	110528	0	0	8063	585688	0	0
2024-09-01 10:24:47			0	36948	0	0	0	28345	26920	158314	27215	1075041	46972	110528	0	0	8063	585736	0	0
2024-09-01 10:25:47			0	36955	0	0	0	28353	26920	158274	27175	1075014	46960	110531	0	0	8064	585453	0	0
2024-09-01 10:26:47			0	36988	0	0	0	28353	26920	158166	27062	1075005	46949	110531	0	0	8066	584120	0	0
2024-09-01 10:27:47			0	37001	0	0	0	28348	26940	158178	27199	1075068	46940	110529	0	0	8067	583529	0	0
2024-09-01 10:28:47			0	37017	0	0	0	28340	26930	158090	27192	1074942	46950	110526	0	0	8068	582917	0	0
2024-09-01 10:29:47			0	37049	0	0	0	28342	26930	157834	27064	1075023	46960	110527	0	0	8069	581628	0	0
2024-09-01 10:30:47			0	37076	0	0	0	28335	26930	157786	26965	1074996	46950	110524	0	0	8071	580543	0	0
2024-09-01 10:31:47			0	37088	0	0	0	28342	26920	157766	27150	1074987	46950	110527	0	0	8072	580094	0	0
2024-09-01 10:32:47			0	37098	0	0	0	28340	26930	157646	27085	1075059	46939	110526	0	0	8072	579659	0	0
2024-09-01 10:33:47			0	37139	0	0	0	28327	26930	157474	27076	1074978	46951	110521	0	0	8075	578014	0	0
2024-09-01 10:34:47			0	37142	0	0	0	28342	26930	157506	27204	1075059	46973	110527	0	0	8075	577894	0	0
2024-09-01 10:35:47			0	37156	0	0	0	28340	26930	157526	26989	1075059	46961	110526	0	0	8076	577333	0	0
2024-09-01 10:36:47			0	37153	0	0	0	28342	26940	157454	27272	1075041	46962	110527	0	0	8076	577420	0	0
2024-09-01 10:37:47			0	37151	0	0	0	28340	26940	157318	27176	1075068	46952	110526	0	0	8076	577500	0	0
2024-09-01 10:38:47			0	37148	0	0	0	28345	26930	157402	27410	1075086	46939	110528	0	0	8075	577654	0	0
2024-09-01 10:39:47			0	37162	0	0	0	28348	26940	157386	27296	1075122	46952	110529	0	0	8076	577060	0	0
2024-09-01 10:40:47			0	37173	0	0	0	28358	26940	157322	26863	1075041	46974	110533	0	0	8077	576620	0	0
2024-09-01 10:41:47			0	37191	0	0	0	28358	26950	157358	27293	1075131	46974	110533	0	0	8078	575867	0	0
2024-09-01 10:42:47			0	37196	0	0	0	28358	26930	157334	26840	1075086	46961	110533	0	0	8078	575733	0	0
2024-09-01 10:43:47			0	37210	0	0	0	28361	26950	157238	27003	1075104	46952	110534	0	0	8079	575108	0	0
2024-09-01 10:44:47			0	37194	0	0	0	28366	26960	157294	26965	1075212	46964	110536	0	0	8078	575714	0	0
2024-09-01 10:45:47			0	37207	0	0	0	28363	26950	157250	27034	1075167	46963	110535	0	0	8078	575228	0	0
2024-09-01 10:46:47			0	37194	0	0	0	28363	26960	157218	27114	1075149	46963	110535	0	0	8078	575714	0	0
2024-09-01 10:47:47			0	37204	0	0	0	28366	26950	157342	27140	1075140	46941	110536	0	0	8078	575348	0	0
2024-09-01 10:48:47			0	37210	0	0	0	28376	26960	157266	26824	1075158	46954	110540	0	0	8078	575075	0	0
2024-09-01 10:49:47			0	37203	0	0	0	28376	26960	157294	27175	1075185	46964	110540	0	0	8078	575354	0	0
2024-09-01 10:50:47			0	37213	0	0	0	28376	26970	157278	27149	1075221	46954	110540	0	0	8079	574922	0	0
2024-09-01 10:51:47			0	37211	0	0	0	28381	26970	157266	26842	1075194	46976	110542	0	0	8079	575002	0	0
2024-09-01 10:52:47			0	37212	0	0	0	28379	26960	157246	26814	1075185	46964	110541	0	0	8079	574995	0	0
2024-09-01 10:53:47			0	37225	0	0	0	28389	26970	157314	26850	1075203	46977	110545	0	0	8079	574443	0	0
2024-09-01 10:54:47			0	37230	0	0	0	28386	26970	157218	27275	1075230	46955	110544	0	0	8080	574244	0	0
2024-09-01 10:55:47			0	37213	0	0	0	28394	26980	157150	26795	1075293	46965	110547	0	0	8078	574889	0	0
2024-09-01 10:56:47			0	37242	0	0	0	28407	26970	157054	26759	1075284	46977	110552	0	0	8080	573765	0	0
2024-09-01 10:57:47			0	37238	0	0	0	28405	26980	157138	26948	1075293	46977	110551	0	0	8080	573892	0	0
2024-09-01 10:58:47			0	37244	0	0	0	28412	26980	156962	26961	1075355	46956	110554	0	0	8080	573652	0	0
2024-09-01 10:59:47			0	37261	0	0	0	28418	26990	156934	27230	1075347	46967	110556	0	0	8081	572942	0	0
2024-09-01 11:00:47			0	37255	0	0	0	28418	27000	156994	26922	1075338	46980	110556	0	0	8081	573148	0	0
2024-09-01 11:01:47			0	37257	0	0	0	28423	27000	156990	27119	1075418	46968	110558	0	0	8081	573068	0	0
2024-09-01 11:02:47			0	37252	0	0	0	28425	27000	156958	27114	1075445	46968	110559	0	0	8080	573268	0	0
2024-09-01 11:03:47			0	37269	0	0	0	28423	27010	156950	27377	1075454	46980	110558	0	0	8081	572558	0	0
2024-09-01 11:04:47			0	37266	0	0	0	28431	27010	156970	27192	1075454	46968	110561	0	0	8081	572677	0	0
2024-09-01 11:05:47			0	37294	0	0	0	28438	27010	157026	27019	1075437	46969	110564	0	0	8083	571563	0	0
2024-09-01 11:06:47			0	37278	0	0	0	28436	27020	156918	27137	1075500	46959	110563	0	0	8082	572167	0	0
2024-09-01 11:07:47			0	37269	0	0	0	28438	27020	156886	26961	1075446	46959	110564	0	0	8081	572525	0	0
2024-09-01 11:08:47			0	37283	0	0	0	28431	27020	156846	27145	1075509	46959	110561	0	0	8082	571968	0	0
2024-09-01 11:09:47			0	37278	0	0	0	28454	27020	156866	27178	1075527	46959	110570	0	0	8081	572167	0	0
2024-09-01 11:10:47			0	37300	0	0	0	28441	27030	156882	26870	1075545	46959	110565	0	0	8083	571259	0	0
2024-09-01 11:11:47			0	37307	0	0	0	28457	27030	156802	26852	1075545	46982	110571	0	0	8083	570980	0	0
2024-09-01 11:12:47			0	37303	0	0	0	28457	27030	156786	27194	1075599	46949	110571	0	0	8083	571139	0	0
2024-09-01 11:13:47			0	37318	0	0	0	28462	27040	156831	27232	1075653	46972	110573	0	0	8084	570511	0	0
2024-09-01 11:14:47			0	37356	0	0	0	28475	27040	156719	26878	1075617	46961	110578	0	0	8086	569003	0	0
2024-09-01 11:15:47			0	37333	0	0	0	28459	27040	156699	27289	1075617	46984	110572	0	0	8085	569915	0	0
2024-09-01 11:16:47			0	37360	0	0	0	28464	27050	156707	27104	1075662	46985	110574	0	0	8086	568811	0	0
2024-09-01 11:17:47			0	37350	0	0	0	28480	27050	156551	27045	1075716	46985	110580	0	0	8085	569208	0	0
2024-09-01 11:18:47			0	37355	0	0	0	28483	27060	156527	27060	1075626	46974	110581	0	0	8086	568977	0	0
2024-09-01 11:19:47			0	37351	0	0	0	28493	27060	156487	27216	1075770	46974	110585	0	0	8085	569136	0	0
2024-09-01 11:20:47			0	37372	0	0	0	28514	27070	156495	27024	1075788	46975	110593	0	0	8086	568271	0	0
2024-09-01 11:21:47			0	37364	0	0	0	28511	27070	156471	26918	1075752	46987	110592	0	0	8086	568588	0	0
2024-09-01 11:22:47			0	37373	0	0	0	28516	27080	156491	26956	1075878	46988	110594	0	0	8086	568198	0	0
2024-09-01 11:23:47			0	37396	0	0	0	28516	27080	156399	27131	1075851	46976	110594	0	0	8088	567288	0	0
2024-09-01 11:24:47			0	37363	0	0	0	28540	27090	156407	27185	1075950	46989	110603	0	0	8085	568562	0	0
2024-09-01 11:25:47			0	37373	0	0	0	28535	27100	156391	27027	1075941	46990	110601	0	0	8086	568133	0	0
2024-09-01 11:26:47			0	37365	0	0	0	28542	27100	156507	27050	1076004	46991	110604	0	0	8085	568450	0	0
2024-09-01 11:27:47			0	37362	0	0	0	28555	27100	156407	27130	1075977	46991	110609	0	0	8085	568569	0	0
2024-09-01 11:28:47			0	37373	0	0	0	28561	27110	156463	27163	1076013	46991	110611	0	0	8086	568101	0	0
2024-09-01 11:29:47			0	37366	0	0	0	28579	27120	156379	27147	1076067	46981	110618	0	0	8085	568345	0	0
2024-09-01 11:30:47			0	37391	0	0	0	28584	27120	156411	26729	1076174	46993	110620	0	0	8086	567356	0	0
2024-09-01 11:31:47			0	37380	0	0	0	28576	27120	156347	27059	1076121	46993	110617	0	0	8086	567791	0	0
2024-09-01 11:32:47			0	37401	0	0	0	28584	27140	156307	27220	1076148	46982	110620	0	0	8087	566895	0	0
2024-09-01 11:33:47			0	37385	0	0	0	28579	27140	156267	27124	1076202	46982	110618	0	0	8086	567528	0	0
2024-09-01 11:34:47			0	37388	0	0	0	28576	27140	156239	27048	1076184	47005	110617	0	0	8086	567409	0	0
2024-09-01 11:35:47			0	37388	0	0	0	28571	27150	156259	27152	1076247	46984	110615	0	0	8087	567377	0	0
2024-09-01 11:36:47			0	37410	0	0	0	28576	27140	156391	26863	1076157	46972	110617	0	0	8088	566539	0	0
2024-09-01 11:37:47			0	37398	0	0	0	28584	27150	156351	27088	1076273	46984	110620	0	0	8087	566981	0	0
2024-09-01 11:38:47			0	37406	0	0	0	28592	27160	156207	27275	1076274	46985	110623	0	0	8087	566632	0	0
2024-09-01 11:39:47			0	37401	0	0	0	28576	27160	156251	27175	1076301	46974	110617	0	0	8087	566830	0	0
2024-09-01 11:40:47			0	37409	0	0	0	28589	27160	156267	27031	1076301	46974	110622	0	0	8087	566514	0	0
2024-09-01 11:41:47			0	37410	0	0	0	28607	27160	156267	26849	1076328	46985	110629	0	0	8087	566474	0	0
2024-09-01 11:42:47			0	37413	0	0	0	28615	27170	156131	27005	1076346	46986	110632	0	0	8087	566323	0	0
2024-09-01 11:43:47			0	37417	0	0	0	28623	27170	156147	27078	1076310	46998	110635	0	0	8087	566165	0	0
2024-09-01 11:44:47			0	37409	0	0	0	28607	27180	156111	27173	1076409	46998	110629	0	0	8087	566448	0	0
2024-09-01 11:45:47			0	37411	0	0	0	28607	27180	156039	27358	1076418	46999	110629	0	0	8087	566369	0	0
2024-09-01 11:46:47			0	37416	0	0	0	28612	27180	156143	27204	1076328	46975	110631	0	0	8088	566172	0	0
2024-09-01 11:47:47			0	37425	0	0	0	28610	27190	156051	27322	1076373	47010	110630	0	0	8088	565784	0	0
2024-09-01 11:48:47			0	37435	0	0	0	28607	27190	156075	27282	1076436	46977	110629	0	0	8089	565389	0	0
2024-09-01 11:49:47			0	37441	0	0	0	28610	27190	155999	27187	1076427	46977	110630	0	0	8089	565152	0	0
2024-09-01 11:50:47			0	37414	0	0	0	28620	27190	156063	27178	1076436	46966	110634	0	0	8087	566218	0	0
2024-09-01 11:51:47			0	37449	0	0	0	28618	27200	156099	27274	1076445	46989	110633	0	0	8090	564804	0	0
2024-09-01 11:52:47			0	37422	0	0	0	28625	27200	156015	27166	1076499	46989	110636	0	0	8088	565870	0	0
2024-09-01 11:53:47			0	37431	0	0	0	28615	27200	156107	27135	1076454	46978	110632	0	0	8089	565514	0	0
2024-09-01 11:54:47			0	37441	0	0	0	28623	27210	156047	27170	1076571	46979	110635	0	0	8089	565087	0	0
2024-09-01 11:55:47			0	37437	0	0	0	28620	27210	156099	27222	1076517	46991	110634	0	0	8089	565245	0	0
2024-09-01 11:56:47			0	37451	0	0	0	28620	27210	155995	27289	1076463	46991	110634	0	0	8090	564693	0	0
2024-09-01 11:57:47			0	37457	0	0	0	28633	27210	156067	27135	1076544	46991	110639	0	0	8090	564456	0	0
2024-09-01 11:58:47			0	37449	0	0	0	28649	27210	155967	27053	1076517	46991	110645	0	0	8089	564772	0	0
2024-09-01 11:59:47			0	37458	0	0	0	28644	27220	155963	27360	1076562	47002	110643	0	0	8090	564384	0	0
2024-09-01 12:00:47			0	37456	0	0	0	28641	27220	155907	27310	1076562	47002	110642	0	0	8090	564463	0	0
2024-09-01 12:01:47			0	37449	0	0	0	28644	27230	155899	27206	1076598	46980	110643	0	0	8089	564707	0	0
2024-09-01 12:02:47			0	37463	0	0	0	28641	27220	155955	27267	1076589	46980	110642	0	0	8090	564187	0	0
2024-09-01 12:03:47			0	37453	0	0	0	28664	27230	155891	27229	1076652	46992	110651	0	0	8089	564549	0	0
2024-09-01 12:04:47			0	37458	0	0	0	28662	27230	155939	27055	1076706	46992	110650	0	0	8089	564352	0	0
2024-09-01 12:05:47			0	37459	0	0	0	28675	27230	156023	27187	1076688	46981	110655	0	0	8089	564312	0	0
2024-09-01 12:06:47			0	37461	0	0	0	28677	27240	155959	27069	1076777	46982	110656	0	0	8089	564201	0	0
2024-09-01 12:07:47			0	37461	0	0	0	28675	27250	155867	27355	1076751	46995	110655	0	0	8089	564169	0	0
2024-09-01 12:08:47			0	37468	0	0	0	28685	27240	155911	27346	1076733	47004	110659	0	0	8090	563925	0	0
2024-09-01 12:09:47			0	37451	0	0	0	28667	27250	155839	27029	1076769	46994	110652	0	0	8089	564563	0	0
2024-09-01 12:10:47			0	37479	0	0	0	28677	27250	155875	27317	1076796	46994	110656	0	0	8090	563460	0	0
2024-09-01 12:11:47			0	37472	0	0	0	28690	27250	155899	27078	1076778	47005	110661	0	0	8090	563735	0	0
2024-09-01 12:12:47			0	37469	0	0	0	28709	27270	155871	27277	1076832	46996	110668	0	0	8089	563789	0	0
2024-09-01 12:13:47			0	37486	0	0	0	28703	27270	155731	27119	1076922	46974	110666	0	0	8091	563119	0	0
2024-09-01 12:14:47			0	37478	0	0	0	28727	27280	155747	27223	1076904	47019	110675	0	0	8090	563402	0	0
2024-09-01 12:15:47			0	37478	0	0	0	28716	27270	155839	27353	1076949	46997	110671	0	0	8090	563434	0	0
2024-09-01 12:16:47			0	37478	0	0	0	28727	27290	155707	27130	1076922	46999	110675	0	0	8090	563370	0	0
2024-09-01 12:17:47			0	37478	0	0	0	28706	27280	155835	27168	1076940	46987	110667	0	0	8090	563402	0	0
2024-09-01 12:18:47			0	37480	0	0	0	28722	27290	155703	26958	1076958	46999	110673	0	0	8090	563291	0	0
2024-09-01 12:19:47			0	37500	0	0	0	28722	27290	155855	27175	1076985	46999	110673	0	0	8091	562504	0	0
2024-09-01 12:20:47			0	37476	0	0	0	28719	27300	155867	27374	1077030	47000	110672	0	0	8090	563416	0	0
2024-09-01 12:21:47			0	37492	0	0	0	28716	27290	155879	27575	1077012	47009	110671	0	0	8091	562819	0	0
2024-09-01 12:22:47			0	37495	0	0	0	28742	27290	155719	27369	1077039	46987	110681	0	0	8091	562701	0	0
2024-09-01 12:23:47			0	37498	0	0	0	28737	27300	155659	27339	1077057	47000	110679	0	0	8091	562550	0	0
2024-09-01 12:24:47			0	37508	0	0	0	28722	27310	155739	27159	1077012	47000	110673	0	0	8092	562125	0	0
2024-09-01 12:25:47			0	37521	0	0	0	28727	27300	155655	27282	1077030	46989	110675	0	0	8092	561646	0	0
2024-09-01 12:26:47			0	37525	0	0	0	28735	27310	155619	27161	1077039	47000	110678	0	0	8092	561456	0	0
2024-09-01 12:27:47			0	37505	0	0	0	28742	27310	155675	27022	1077129	47011	110681	0	0	8091	562243	0	0
2024-09-01 12:28:47			0	37527	0	0	0	28740	27310	155671	26986	1077129	47000	110680	0	0	8093	561378	0	0
2024-09-01 12:29:47			0	37525	0	0	0	28745	27330	155583	27478	1077129	46980	110682	0	0	8092	561392	0	0
2024-09-01 12:30:47			0	37514	0	0	0	28742	27330	155627	27209	1077246	46991	110681	0	0	8092	561824	0	0
2024-09-01 12:31:47			0	37526	0	0	0	28735	27340	155643	26925	1077174	46992	110678	0	0	8093	561320	0	0
2024-09-01 12:32:47			0	37536	0	0	0	28737	27330	155631	27379	1077156	46991	110679	0	0	8093	560960	0	0
2024-09-01 12:33:47			0	37536	0	0	0	28729	27320	155643	27393	1077111	47001	110676	0	0	8093	560992	0	0
2024-09-01 12:34:47			0	37544	0	0	0	28732	27330	155587	27270	1077165	46991	110677	0	0	8094	560646	0	0
2024-09-01 12:35:47			0	37562	0	0	0	28737	27330	155519	27293	1077165	47002	110679	0	0	8095	559940	0	0
2024-09-01 12:36:47			0	37569	0	0	0	28742	27340	155511	27391	1077147	46992	110681	0	0	8095	559633	0	0
2024-09-01 12:37:47			0	37568	0	0	0	28753	27330	155479	27429	1077192	47002	110685	0	0	8095	559704	0	0
2024-09-01 12:38:47			0	37575	0	0	0	28745	27330	155391	27381	1077192	47002	110682	0	0	8095	559430	0	0
2024-09-01 12:39:47			0	37573	0	0	0	28763	27340	155455	27376	1077237	46982	110689	0	0	8095	559476	0	0
2024-09-01 12:40:47			0	37575	0	0	0	28758	27340	155519	27384	1077255	47003	110687	0	0	8095	559398	0	0
2024-09-01 12:41:47			0	37570	0	0	0	28761	27340	155439	27206	1077228	47003	110688	0	0	8095	559594	0	0
2024-09-01 12:42:47			0	37579	0	0	0	28763	27340	155331	27128	1077255	47003	110689	0	0	8095	559241	0	0
2024-09-01 12:43:47			0	37579	0	0	0	28766	27350	155435	27632	1077309	47005	110690	0	0	8095	559209	0	0
2024-09-01 12:44:47			0	37578	0	0	0	28776	27350	155447	27218	1077309	47016	110694	0	0	8095	559248	0	0
2024-09-01 12:45:47			0	37577	0	0	0	28784	27350	155451	27462	1077282	47005	110697	0	0	8095	559288	0	0
2024-09-01 12:46:47			0	37563	0	0	0	28786	27360	155431	27466	1077345	47016	110698	0	0	8094	559804	0	0
2024-09-01 12:47:47			0	37563	0	0	0	28789	27370	155447	27281	1077444	47007	110699	0	0	8094	559772	0	0
2024-09-01 12:48:47			0	37556	0	0	0	28786	27370	155395	27447	1077390	47007	110698	0	0	8094	560046	0	0
2024-09-01 12:49:47			0	37566	0	0	0	28792	27360	155383	27497	1077408	47006	110700	0	0	8094	559686	0	0
2024-09-01 12:50:47			0	37548	0	0	0	28784	27370	155447	27343	1077390	47007	110697	0	0	8093	560360	0	0
2024-09-01 12:51:47			0	37566	0	0	0	28794	27370	155491	27079	1077399	47007	110701	0	0	8094	559654	0	0
2024-09-01 12:52:47			0	37551	0	0	0	28812	27380	155559	27332	1077435	47007	110708	0	0	8093	560210	0	0
2024-09-01 12:53:47			0	37549	0	0	0	28815	27390	155411	27178	1077426	47009	110709	0	0	8093	560257	0	0
2024-09-01 12:54:47			0	37542	0	0	0	28812	27380	155491	27267	1077462	46996	110708	0	0	8092	560563	0	0
2024-09-01 12:55:47			0	37541	0	0	0	28815	27390	155435	27157	1077516	46998	110709	0	0	8092	560570	0	0
2024-09-01 12:56:47			0	37527	0	0	0	28815	27400	155499	27237	1077579	46998	110709	0	0	8092	561088	0	0
2024-09-01 12:57:47			0	37530	0	0	0	28820	27400	155523	27289	1077561	46999	110711	0	0	8092	560970	0	0
2024-09-01 12:58:47			0	37552	0	0	0	28823	27400	155515	27253	1077588	46999	110712	0	0	8093	560107	0	0
2024-09-01 12:59:47			0	37552	0	0	0	28844	27400	155471	27227	1077561	47021	110720	0	0	8093	560107	0	0
2024-09-01 13:00:47			0	37546	0	0	0	28836	27400	155443	27180	1077588	47010	110717	0	0	8092	560342	0	0
2024-09-01 13:01:47			0	37529	0	0	0	28833	27410	155491	27010	1077570	47000	110716	0	0	8092	560977	0	0
2024-09-01 13:02:47			0	37540	0	0	0	28828	27410	155543	27190	1077607	47022	110714	0	0	8092	560545	0	0
2024-09-01 13:03:47			0	37521	0	0	0	28836	27420	155559	26838	1077625	47012	110717	0	0	8091	561259	0	0
2024-09-01 13:04:47			0	37509	0	0	0	28825	27420	155447	26927	1077679	47012	110713	0	0	8091	561730	0	0
2024-09-01 13:05:47			0	37517	0	0	0	28825	27420	155467	27078	1077679	47000	110713	0	0	8091	561416	0	0
2024-09-01 13:06:47			0	37536	0	0	0	28828	27420	155439	27050	1077643	47012	110714	0	0	8092	560670	0	0
2024-09-01 13:07:47			0	37536	0	0	0	28818	27420	155543	26958	1077625	47012	110710	0	0	8092	560670	0	0
2024-09-01 13:08:47			0	37512	0	0	0	28823	27420	155539	26981	1077625	47012	110712	0	0	8091	561612	0	0
2024-09-01 13:09:47			0	37506	0	0	0	28836	27420	155571	26979	1077562	47012	110717	0	0	8090	561848	0	0
2024-09-01 13:10:47			0	37506	0	0	0	28844	27420	155475	27090	1077625	47000	110720	0	0	8090	561848	0	0
2024-09-01 13:11:47			0	37498	0	0	0	28846	27420	155587	26994	1077652	47012	110721	0	0	8090	562162	0	0
2024-09-01 13:12:47			0	37524	0	0	0	28862	27430	155731	27185	1077751	47014	110727	0	0	8091	561109	0	0
2024-09-01 13:13:47			0	37498	0	0	0	28872	27430	155599	27034	1077777	47002	110731	0	0	8089	562130	0	0
2024-09-01 13:14:47			0	37489	0	0	0	28867	27440	155615	27467	1077760	47014	110729	0	0	8089	562452	0	0
2024-09-01 13:15:47			0	37493	0	0	0	28870	27440	155611	27235	1077822	47002	110730	0	0	8089	562294	0	0
2024-09-01 13:16:47			0	37494	0	0	0	28854	27440	155599	27190	1077796	47014	110724	0	0	8089	562255	0	0
2024-09-01 13:17:47			0	37490	0	0	0	28844	27450	155543	27211	1077724	47003	110720	0	0	8089	562380	0	0
2024-09-01 13:18:47			0	37492	0	0	0	28844	27450	155595	27020	1077760	47016	110720	0	0	8089	562301	0	0
2024-09-01 13:19:47			0	37477	0	0	0	28844	27450	155675	27255	1077778	47026	110720	0	0	8088	562891	0	0
2024-09-01 13:20:47			0	37490	0	0	0	28849	27440	155631	27235	1077715	47014	110722	0	0	8089	562412	0	0
2024-09-01 13:21:47			0	37482	0	0	0	28841	27430	155751	27246	1077724	47002	110719	0	0	8089	562759	0	0
2024-09-01 13:22:47			0	37485	0	0	0	28838	27450	155531	27107	1077751	47003	110718	0	0	8089	562577	0	0
2024-09-01 13:23:47			0	37489	0	0	0	28846	27440	155575	27480	1077742	47014	110721	0	0	8089	562452	0	0
2024-09-01 13:24:47			0	37486	0	0	0	28841	27440	155551	27190	1077742	47014	110719	0	0	8089	562569	0	0
2024-09-01 13:25:47			0	37492	0	0	0	28859	27440	155575	27206	1077733	47014	110726	0	0	8089	562334	0	0
2024-09-01 13:26:47			0	37487	0	0	0	28867	27450	155639	27192	1077778	47003	110729	0	0	8089	562498	0	0
2024-09-01 13:27:47			0	37478	0	0	0	28872	27450	155547	27306	1077894	47016	110731	0	0	8088	562852	0	0
2024-09-01 13:28:47			0	37465	0	0	0	28890	27460	155595	27275	1077850	47027	110738	0	0	8087	563331	0	0
2024-09-01 13:29:47			0	37495	0	0	0	28901	27460	155635	27215	1077939	47005	110742	0	0	8089	562151	0	0
2024-09-01 13:30:47			0	37487	0	0	0	28898	27470	155515	27417	1077949	47017	110741	0	0	8088	562433	0	0
2024-09-01 13:31:47			0	37475	0	0	0	28911	27470	155619	27088	1077985	47006	110746	0	0	8087	562905	0	0
2024-09-01 13:32:47			0	37476	0	0	0	28909	27470	155607	27322	1077949	47028	110745	0	0	8087	562866	0	0
2024-09-01 13:33:47			0	37485	0	0	0	28880	27470	155599	27189	1077958	47018	110734	0	0	8088	562512	0	0
2024-09-01 13:34:47			0	37475	0	0	0	28883	27470	155555	27095	1077931	47006	110735	0	0	8088	562905	0	0
2024-09-01 13:35:47			0	37485	0	0	0	28880	27480	155551	26925	1077940	47006	110734	0	0	8088	562479	0	0
2024-09-01 13:36:47			0	37486	0	0	0	28885	27480	155587	26904	1077976	47007	110736	0	0	8088	562440	0	0
2024-09-01 13:37:47			0	37500	0	0	0	28888	27490	155523	27218	1077967	47008	110737	0	0	8089	561857	0	0
2024-09-01 13:38:47			0	37507	0	0	0	28888	27480	155507	27381	1077940	47006	110737	0	0	8090	561615	0	0
2024-09-01 13:39:47			0	37515	0	0	0	28890	27490	155499	27350	1078012	47019	110738	0	0	8090	561268	0	0
2024-09-01 13:40:47			0	37532	0	0	0	28893	27490	155467	27464	1078012	47019	110739	0	0	8091	560601	0	0
2024-09-01 13:41:47			0	37549	0	0	0	28898	27490	155407	26939	1078119	47007	110741	0	0	8092	559934	0	0
2024-09-01 13:42:47			0	37532	0	0	0	28911	27490	155455	27331	1078075	47020	110746	0	0	8091	560601	0	0
2024-09-01 13:43:47			0	37535	0	0	0	28929	27500	155399	27313	1078111	47020	110753	0	0	8091	560451	0	0
2024-09-01 13:44:47			0	37553	0	0	0	28932	27500	155463	27048	1078120	47032	110754	0	0	8092	559745	0	0
2024-09-01 13:45:47			0	37539	0	0	0	28932	27520	155343	27192	1078174	47044	110754	0	0	8091	560230	0	0
2024-09-01 13:46:47			0	37538	0	0	0	28922	27520	155327	27090	1078120	47011	110750	0	0	8091	560269	0	0
2024-09-01 13:47:47			0	37548	0	0	0	28932	27530	155375	27038	1078264	47023	110754	0	0	8092	559845	0	0
2024-09-01 13:48:47			0	37565	0	0	0	28937	27520	155295	27248	1078228	47022	110756	0	0	8092	559211	0	0
2024-09-01 13:49:47			0	37535	0	0	0	28942	27530	155275	27097	1078246	47024	110758	0	0	8091	560355	0	0
2024-09-01 13:50:47			0	37561	0	0	0	28945	27540	155287	27078	1078291	47025	110759	0	0	8092	559303	0	0
2024-09-01 13:51:47			0	37556	0	0	0	28940	27530	155267	27124	1078246	47013	110757	0	0	8092	559531	0	0
2024-09-01 13:52:47			0	37586	0	0	0	28942	27540	155163	27358	1078291	47014	110758	0	0	8094	558325	0	0
2024-09-01 13:53:47			0	37614	0	0	0	28958	27540	155035	27313	1078372	47014	110764	0	0	8095	557230	0	0
2024-09-01 13:54:47			0	37618	0	0	0	28955	27540	155043	27177	1078345	47014	110763	0	0	8095	557074	0	0
2024-09-01 13:55:47			0	37623	0	0	0	28955	27550	154979	26998	1078390	47015	110763	0	0	8096	556846	0	0
2024-09-01 13:56:47			0	37634	0	0	0	28961	27550	154963	27260	1078408	47036	110765	0	0	8096	556417	0	0
2024-09-01 13:57:47			0	37639	0	0	0	28973	27560	154919	26975	1078426	47026	110770	0	0	8096	556190	0	0
2024-09-01 13:58:47			0	37635	0	0	0	28994	27550	154935	27164	1078444	47048	110778	0	0	8096	556378	0	0
2024-09-01 13:59:47			0	37639	0	0	0	28994	27560	154911	27176	1078543	47049	110778	0	0	8096	556190	0	0
2024-09-01 14:00:47			0	37637	0	0	0	29002	27570	154899	27293	1078579	47027	110781	0	0	8096	556236	0	0
2024-09-01 14:01:47			0	37642	0	0	0	29010	27580	155007	26975	1078597	47017	110784	0	0	8096	556008	0	0
2024-09-01 14:02:47			0	37639	0	0	0	29010	27580	155091	27441	1078597	47028	110784	0	0	8096	556126	0	0
2024-09-01 14:03:47			0	37641	0	0	0	29025	27580	154939	27440	1078651	47039	110790	0	0	8096	556048	0	0
2024-09-01 14:04:47			0	37664	0	0	0	29036	27590	154991	27416	1078678	47041	110794	0	0	8097	555119	0	0
2024-09-01 14:05:47			0	37635	0	0	0	29038	27590	154999	27339	1078759	47052	110795	0	0	8095	556250	0	0
2024-09-01 14:06:47			0	37654	0	0	0	29046	27600	154899	27152	1078741	47041	110798	0	0	8096	555476	0	0
2024-09-01 14:07:47			0	37630	0	0	0	29015	27600	154987	27358	1078723	47020	110786	0	0	8095	556413	0	0
2024-09-01 14:08:47			0	37670	0	0	0	29002	27610	154947	26918	1078732	47020	110781	0	0	8098	554821	0	0
2024-09-01 14:09:47			0	37648	0	0	0	29010	27610	154935	27026	1078741	47032	110784	0	0	8096	555678	0	0
2024-09-01 14:10:47			0	37661	0	0	0	29033	27620	154871	27376	1078723	47010	110793	0	0	8097	555140	0	0
2024-09-01 14:11:47			0	37664	0	0	0	29007	27610	154795	27280	1078759	47041	110783	0	0	8097	555055	0	0
2024-09-01 14:12:47			0	37665	0	0	0	29007	27610	154907	27232	1078687	47009	110783	0	0	8097	555016	0	0
2024-09-01 14:13:47			0	37688	0	0	0	29028	27610	154755	27306	1078678	47008	110791	0	0	8098	554120	0	0
2024-09-01 14:14:47			0	37681	0	0	0	28997	27610	154823	27326	1078634	47021	110779	0	0	8099	554392	0	0
2024-09-01 14:15:47			0	37687	0	0	0	29012	27610	154727	27260	1078705	47020	110785	0	0	8099	554159	0	0
2024-09-01 14:16:47			0	37708	0	0	0	29025	27610	154623	27274	1078741	47021	110790	0	0	8100	553342	0	0
2024-09-01 14:17:47			0	37703	0	0	0	29062	27600	154659	27355	1078804	47020	110804	0	0	8099	553568	0	0
2024-09-01 14:18:47			0	37708	0	0	0	29064	27610	154651	27144	1078786	47041	110805	0	0	8099	553342	0	0
2024-09-01 14:19:47			0	37699	0	0	0	29077	27620	154699	27263	1078840	47043	110810	0	0	8098	553660	0	0
2024-09-01 14:20:47			0	37703	0	0	0	29090	27620	154675	27098	1078921	47055	110815	0	0	8098	553504	0	0
2024-09-01 14:21:47			0	37704	0	0	0	29072	27640	154683	27190	1078958	47045	110808	0	0	8099	553402	0	0
2024-09-01 14:22:47			0	37716	0	0	0	29085	27640	154643	27053	1078948	47045	110813	0	0	8099	552935	0	0
2024-09-01 14:23:47			0	37707	0	0	0	29085	27660	154659	27306	1079012	47026	110813	0	0	8099	553221	0	0
2024-09-01 14:24:47			0	37703	0	0	0	29080	27660	154563	26948	1078994	47060	110811	0	0	8099	553377	0	0
2024-09-01 14:25:47			0	37734	0	0	0	29083	27670	154619	27065	1078976	47038	110812	0	0	8100	552140	0	0
2024-09-01 14:26:47			0	37734	0	0	0	29090	27670	154475	27109	1079030	47038	110815	0	0	8100	552140	0	0
2024-09-01 14:27:47			0	37746	0	0	0	29129	27670	154443	27182	1079120	47048	110830	0	0	8100	551674	0	0
2024-09-01 14:28:47			0	37752	0	0	0	29142	27670	154563	27052	1079093	47038	110835	0	0	8100	551442	0	0
2024-09-01 14:29:47			0	37750	0	0	0	29161	27690	154423	27138	1079228	47051	110842	0	0	8100	551456	0	0
2024-09-01 14:30:47			0	37766	0	0	0	29173	27700	154443	27473	1079327	47041	110847	0	0	8101	550803	0	0
2024-09-01 14:31:47			0	37754	0	0	0	29176	27700	154435	27237	1079309	47041	110848	0	0	8100	551269	0	0
2024-09-01 14:32:47			0	37761	0	0	0	29171	27720	154331	27270	1079372	47055	110846	0	0	8101	550934	0	0
2024-09-01 14:33:47			0	37760	0	0	0	29142	27730	154291	27204	1079408	47044	110835	0	0	8101	550941	0	0
2024-09-01 14:34:47			0	37776	0	0	0	29148	27730	154215	27086	1079390	47044	110837	0	0	8102	550320	0	0
2024-09-01 14:35:47			0	37764	0	0	0	29166	27730	154167	26894	1079417	47044	110844	0	0	8101	550786	0	0
2024-09-01 14:36:47			0	37778	0	0	0	29168	27740	154191	27320	1079400	47056	110845	0	0	8102	550211	0	0
2024-09-01 14:37:47			0	37790	0	0	0	29173	27740	154119	26982	1079436	47068	110847	0	0	8102	549746	0	0
2024-09-01 14:38:47			0	37775	0	0	0	29155	27750	154131	27118	1079498	47036	110840	0	0	8102	550296	0	0
2024-09-01 14:39:47			0	37803	0	0	0	29135	27760	154115	27066	1079544	47036	110832	0	0	8104	549180	0	0
2024-09-01 14:40:47			0	37800	0	0	0	29142	27750	154067	26960	1079535	47036	110835	0	0	8104	549328	0	0
2024-09-01 14:41:47			0	37802	0	0	0	29176	27760	153995	27279	1079580	47037	110848	0	0	8103	549219	0	0
2024-09-01 14:42:47			0	37815	0	0	0	29194	27770	153979	27010	1079589	47048	110855	0	0	8104	548684	0	0
2024-09-01 14:43:47			0	37815	0	0	0	29176	27780	153955	27185	1079661	47038	110848	0	0	8104	548653	0	0
2024-09-01 14:44:47			0	37815	0	0	0	29176	27770	154063	27192	1079652	47048	110848	0	0	8104	548684	0	0
2024-09-01 14:45:47			0	37802	0	0	0	29176	27780	153963	27208	1079661	47038	110848	0	0	8103	549156	0	0
2024-09-01 14:46:47			0	37817	0	0	0	29197	27780	153975	27078	1079688	47038	110856	0	0	8104	548575	0	0
2024-09-01 14:47:47			0	37817	0	0	0	29199	27790	153987	26764	1079706	47050	110857	0	0	8104	548544	0	0
2024-09-01 14:48:47			0	37823	0	0	0	29181	27790	154095	26956	1079742	47051	110850	0	0	8104	548312	0	0
2024-09-01 14:49:47			0	37806	0	0	0	29189	27790	153935	27315	1079706	47050	110853	0	0	8103	548969	0	0
2024-09-01 14:50:47			0	37822	0	0	0	29184	27800	153919	27173	1079724	47051	110851	0	0	8104	548319	0	0
2024-09-01 14:51:47			0	37823	0	0	0	29186	27800	153971	27346	1079778	47051	110852	0	0	8104	548280	0	0
2024-09-01 14:52:47			0	37817	0	0	0	29184	27800	153951	27182	1079697	47041	110851	0	0	8104	548512	0	0
2024-09-01 14:53:47			0	37824	0	0	0	29140	27800	153871	27358	1079670	47030	110834	0	0	8105	548242	0	0
2024-09-01 14:54:47			0	37835	0	0	0	29137	27800	153823	27185	1079617	47018	110833	0	0	8106	547816	0	0
2024-09-01 14:55:47			0	37844	0	0	0	29153	27790	153911	27480	1079688	47030	110839	0	0	8106	547500	0	0
2024-09-01 14:56:47			0	37873	0	0	0	29093	27790	153759	27365	1079554	47018	110816	0	0	8109	546381	0	0
2024-09-01 14:57:47			0	37923	0	0	0	28888	27770	153411	27303	1079221	46982	110737	0	0	8115	544518	0	0
2024-09-01 14:58:47			0	37947	0	0	0	28825	27750	153323	27211	1079068	46958	110713	0	0	8117	543657	0	0
2024-09-01 14:59:47			0	37948	0	0	0	28898	27710	153331	27371	1078833	46963	110741	0	0	8116	543744	0	0
2024-09-01 15:00:47			0	37955	0	0	0	28950	27700	153363	27526	1078798	46963	110761	0	0	8116	543506	0	0
2024-09-01 15:01:47			0	37937	0	0	0	29012	27670	153415	27157	1078851	46994	110785	0	0	8113	544293	0	0
2024-09-01 15:02:47			0	37958	0	0	0	29046	27670	153471	27230	1078878	47015	110798	0	0	8114	543485	0	0
2024-09-01 15:03:47			0	37941	0	0	0	29041	27670	153547	27098	1078949	47015	110796	0	0	8113	544139	0	0
2024-09-01 15:04:47			0	37947	0	0	0	29041	27670	153531	27355	1079039	47027	110796	0	0	8113	543908	0	0
2024-09-01 15:05:47			0	37929	0	0	0	29028	27670	153543	27223	1078958	47015	110791	0	0	8113	544601	0	0
2024-09-01 15:06:47			0	37928	0	0	0	29044	27660	153543	26628	1078940	47015	110797	0	0	8112	544670	0	0
2024-09-01 15:07:47			0	37941	0	0	0	29054	27680	153587	27390	1078994	47028	110801	0	0	8113	544107	0	0
2024-09-01 15:08:47			0	37919	0	0	0	29046	27680	153651	27100	1078994	47028	110798	0	0	8112	544954	0	0
2024-09-01 15:09:47			0	37924	0	0	0	29070	27670	153695	27229	1078958	47015	110807	0	0	8112	544793	0	0
2024-09-01 15:10:47			0	37911	0	0	0	29085	27680	153671	27001	1079021	47016	110813	0	0	8111	545262	0	0
2024-09-01 15:11:47			0	37902	0	0	0	29096	27680	153811	27048	1079021	47028	110817	0	0	8110	545609	0	0
2024-09-01 15:12:47			0	37885	0	0	0	29106	27670	153763	27435	1079066	47038	110821	0	0	8109	546296	0	0
2024-09-01 15:13:47			0	37897	0	0	0	29106	27680	153795	27130	1079111	47017	110821	0	0	8109	545802	0	0
2024-09-01 15:14:47			0	37882	0	0	0	29062	27690	153759	27111	1079129	47040	110804	0	0	8109	546349	0	0
2024-09-01 15:15:47			0	37895	0	0	0	29085	27690	153867	27201	1079201	47051	110813	0	0	8110	545848	0	0
2024-09-01 15:16:47			0	37891	0	0	0	29059	27700	153739	26890	1079138	47041	110803	0	0	8110	545970	0	0
2024-09-01 15:17:47			0	37884	0	0	0	29046	27690	153763	26977	1079093	47017	110798	0	0	8110	546272	0	0
2024-09-01 15:18:47			0	37902	0	0	0	29046	27690	153711	27194	1079120	47017	110798	0	0	8111	545578	0	0
2024-09-01 15:19:47			0	37901	0	0	0	29064	27680	153727	27020	1079084	47029	110805	0	0	8110	545648	0	0
2024-09-01 15:20:47			0	37896	0	0	0	29028	27680	153675	27135	1079030	47017	110791	0	0	8111	545840	0	0
2024-09-01 15:21:47			0	37902	0	0	0	29007	27680	153827	26956	1078950	47006	110783	0	0	8111	545609	0	0
2024-09-01 15:22:47			0	37903	0	0	0	29041	27670	153887	27390	1078985	47015	110796	0	0	8111	545602	0	0
2024-09-01 15:23:47			0	37884	0	0	0	29018	27670	153867	27097	1078976	47027	110787	0	0	8110	546335	0	0
2024-09-01 15:24:47			0	37838	0	0	0	29018	27670	153987	27310	1078922	47015	110787	0	0	8108	548111	0	0
2024-09-01 15:25:47			0	37809	0	0	0	29033	27670	154103	27067	1078932	47015	110793	0	0	8106	549233	0	0
2024-09-01 15:26:47			0	37797	0	0	0	29046	27660	154167	27126	1078994	47015	110798	0	0	8105	549729	0	0
2024-09-01 15:27:47			0	37796	0	0	0	29046	27670	154219	26994	1078958	47027	110798	0	0	8105	549736	0	0
2024-09-01 15:28:47			0	37762	0	0	0	29083	27660	154187	27215	1078940	47015	110812	0	0	8102	551085	0	0
2024-09-01 15:29:47			0	37774	0	0	0	29114	27660	154335	27237	1079012	47047	110824	0	0	8102	550620	0	0
2024-09-01 15:30:47			0	37746	0	0	0	29119	27660	154355	27145	1079048	47038	110826	0	0	8100	551706	0	0
2024-09-01 15:31:47			0	37729	0	0	0	29124	27680	154351	26970	1079138	47040	110828	0	0	8099	552303	0	0
2024-09-01 15:32:47			0	37755	0	0	0	29101	27690	154411	27189	1079147	47051	110819	0	0	8101	551262	0	0
2024-09-01 15:33:47			0	37741	0	0	0	29101	27690	154371	26778	1079120	47029	110819	0	0	8101	551805	0	0
2024-09-01 15:34:47			0	37738	0	0	0	29103	27690	154427	27005	1079237	47040	110820	0	0	8100	551921	0	0
2024-09-01 15:35:47			0	37734	0	0	0	29132	27710	154447	27012	1079372	47053	110831	0	0	8100	552013	0	0
2024-09-01 15:36:47			0	37716	0	0	0	29132	27710	154451	27119	1079318	47075	110831	0	0	8099	552712	0	0
2024-09-01 15:37:47			0	37747	0	0	0	29137	27720	154419	27230	1079417	47065	110833	0	0	8100	551477	0	0
2024-09-01 15:38:47			0	37731	0	0	0	29137	27720	154339	27128	1079453	47055	110833	0	0	8100	552098	0	0
2024-09-01 15:39:47			0	37722	0	0	0	29137	27730	154303	27112	1079328	47034	110833	0	0	8099	552415	0	0
2024-09-01 15:40:47			0	37765	0	0	0	29150	27720	154295	27057	1079372	47043	110838	0	0	8101	550779	0	0
2024-09-01 15:41:47			0	37738	0	0	0	29155	27730	154195	26975	1079417	47056	110840	0	0	8100	551794	0	0
2024-09-01 15:42:47			0	37762	0	0	0	29163	27730	154179	27524	1079417	47044	110843	0	0	8101	550863	0	0
2024-09-01 15:43:47			0	37746	0	0	0	29181	27740	154239	27126	1079516	47045	110850	0	0	8100	551452	0	0
2024-09-01 15:44:47			0	37762	0	0	0	29223	27750	154227	26830	1079615	47069	110866	0	0	8100	550800	0	0
2024-09-01 15:45:47			0	37770	0	0	0	29228	27770	154195	27067	1079723	47071	110868	0	0	8100	550426	0	0
2024-09-01 15:46:47			0	37773	0	0	0	29202	27770	154163	27268	1079669	47048	110858	0	0	8101	550310	0	0
2024-09-01 15:47:47			0	37806	0	0	0	29176	27780	154111	27079	1079634	47038	110848	0	0	8104	549001	0	0
2024-09-01 15:48:47			0	37793	0	0	0	29158	27790	153995	27182	1079652	47062	110841	0	0	8103	549472	0	0
2024-09-01 15:49:47			0	37807	0	0	0	29145	27780	154019	27211	1079670	47027	110836	0	0	8104	548962	0	0
2024-09-01 15:50:47			0	37818	0	0	0	29153	27770	153931	27218	1079589	47038	110839	0	0	8105	548568	0	0
2024-09-01 15:51:47			0	37839	0	0	0	29173	27770	153823	27168	1079589	47015	110847	0	0	8105	547757	0	0
2024-09-01 15:52:47			0	37862	0	0	0	29218	27770	153759	27208	1079598	47048	110864	0	0	8106	546869	0	0
2024-09-01 15:53:47			0	37886	0	0	0	29228	27780	153691	26961	1079832	47049	110868	0	0	8107	545911	0	0
2024-09-01 15:54:47			0	37895	0	0	0	29236	27780	153631	27187	1079741	47060	110871	0	0	8108	545565	0	0
2024-09-01 15:55:47			0	37899	0	0	0	29259	27810	153659	27253	1079895	47051	110880	0	0	8108	545316	0	0
2024-09-01 15:56:47			0	37904	0	0	0	29303	27820	153595	27168	1080030	47065	110897	0	0	8107	545092	0	0
2024-09-01 15:57:47			0	37919	0	0	0	29335	27840	153599	27098	1080219	47067	110909	0	0	8108	544452	0	0
2024-09-01 15:58:47			0	37907	0	0	0	29329	27840	153607	26996	1080165	47078	110907	0	0	8107	544914	0	0
2024-09-01 15:59:47			0	37916	0	0	0	29296	27850	153515	27114	1080165	47068	110894	0	0	8108	544536	0	0
2024-09-01 16:00:47			0	37934	0	0	0	29283	27860	153431	27144	1080183	47047	110889	0	0	8109	543813	0	0
2024-09-01 16:01:47			0	37927	0	0	0	29262	27860	153451	27183	1080183	47037	110881	0	0	8109	544082	0	0
2024-09-01 16:02:47			0	37949	0	0	0	29241	27870	153415	26944	1080112	47047	110873	0	0	8111	543205	0	0
2024-09-01 16:03:47			0	37965	0	0	0	29231	27860	153211	27268	1080103	47037	110869	0	0	8112	542622	0	0
2024-09-01 16:04:47			0	38015	0	0	0	29215	27860	153095	27074	1080066	47036	110863	0	0	8115	540704	0	0
2024-09-01 16:05:47			0	38041	0	0	0	29228	27850	152996	27109	1080031	47023	110868	0	0	8116	539740	0	0
2024-09-01 16:06:47			0	38059	0	0	0	29228	27850	152896	27074	1079994	47044	110868	0	0	8118	539051	0	0
2024-09-01 16:07:47			0	38076	0	0	0	29244	27850	152888	27008	1079968	47034	110874	0	0	8118	538402	0	0
2024-09-01 16:08:47			0	38049	0	0	0	29316	27860	152924	26837	1080066	47046	110902	0	0	8116	539403	0	0
2024-09-01 16:09:47			0	38088	0	0	0	29322	27860	152916	27133	1080228	47069	110904	0	0	8118	537912	0	0
2024-09-01 16:10:47			0	38083	0	0	0	29285	27870	152944	27098	1080165	47047	110890	0	0	8118	538072	0	0
2024-09-01 16:11:47			0	38082	0	0	0	29275	27870	152924	27286	1080175	47037	110886	0	0	8118	538110	0	0
2024-09-01 16:12:47			0	38080	0	0	0	29293	27870	153016	27201	1080228	47047	110893	0	0	8118	538187	0	0
2024-09-01 16:13:47			0	38088	0	0	0	29298	27880	152928	27000	1080220	47060	110895	0	0	8118	537850	0	0
2024-09-01 16:14:47			0	38071	0	0	0	29293	27880	152904	26764	1080184	47048	110893	0	0	8117	538500	0	0
2024-09-01 16:15:47			0	38084	0	0	0	29309	27880	152804	26923	1080211	47048	110899	0	0	8118	538003	0	0
2024-09-01 16:16:47			0	38095	0	0	0	29259	27870	152824	27055	1080228	47058	110880	0	0	8119	537614	0	0
2024-09-01 16:17:47			0	38102	0	0	0	29225	27890	152796	27124	1080175	47027	110867	0	0	8120	537285	0	0
2024-09-01 16:18:47			0	38101	0	0	0	29210	27880	152748	27083	1080130	47038	110861	0	0	8120	537354	0	0
2024-09-01 16:19:47			0	38117	0	0	0	29223	27870	152736	27244	1080085	47025	110866	0	0	8121	536775	0	0
2024-09-01 16:20:47			0	38126	0	0	0	29228	27880	152716	27329	1080076	47048	110868	0	0	8122	536401	0	0
2024-09-01 16:21:47			0	38115	0	0	0	29244	27870	152760	27254	1080067	47025	110874	0	0	8121	536851	0	0
2024-09-01 16:22:47			0	38127	0	0	0	29236	27860	152728	26844	1079995	47047	110871	0	0	8121	536425	0	0
2024-09-01 16:23:47			0	38138	0	0	0	29223	27870	152648	27086	1080058	47037	110866	0	0	8122	535974	0	0
2024-09-01 16:24:47			0	38128	0	0	0	29215	27840	152628	27085	1079958	47034	110863	0	0	8122	536448	0	0
2024-09-01 16:25:47			0	38136	0	0	0	29257	27850	152732	26824	1080057	47056	110879	0	0	8121	536112	0	0
2024-09-01 16:26:47			0	38106	0	0	0	29303	27860	152692	26972	1080129	47058	110897	0	0	8119	537225	0	0
2024-09-01 16:27:47			0	38119	0	0	0	29342	27880	152772	27145	1080264	47071	110912	0	0	8119	536668	0	0
2024-09-01 16:28:47			0	38111	0	0	0	29374	27870	152712	26989	1080336	47058	110924	0	0	8118	537004	0	0
2024-09-01 16:29:47			0	38123	0	0	0	29384	27900	152784	27005	1080445	47084	110928	0	0	8119	536453	0	0
2024-09-01 16:30:47			0	38148	0	0	0	29340	27900	152712	27013	1080525	47074	110911	0	0	8121	535501	0	0
2024-09-01 16:31:47			0	38174	0	0	0	29311	27900	152480	26927	1080462	47050	110900	0	0	8123	534512	0	0
2024-09-01 16:32:47			0	38203	0	0	0	29306	27900	152412	26970	1080391	47041	110898	0	0	8125	533410	0	0
2024-09-01 16:33:47			0	38214	0	0	0	29293	27910	152284	27220	1080373	47041	110893	0	0	8126	532961	0	0
2024-09-01 16:34:47			0	38229	0	0	0	29314	27920	152284	27156	1080364	47075	110901	0	0	8126	532361	0	0
2024-09-01 16:35:47			0	38218	0	0	0	29311	27920	152212	26864	1080391	47063	110900	0	0	8126	532779	0	0
2024-09-01 16:36:47			0	38218	0	0	0	29316	27930	152224	27116	1080517	47077	110902	0	0	8126	532748	0	0
2024-09-01 16:37:47			0	38220	0	0	0	29311	27930	152324	26949	1080517	47065	110900	0	0	8126	532672	0	0
2024-09-01 16:38:47			0	38211	0	0	0	29285	27930	152292	27052	1080544	47054	110890	0	0	8126	533014	0	0
2024-09-01 16:39:47			0	38213	0	0	0	29309	27930	152308	27154	1080499	47065	110899	0	0	8125	532938	0	0
2024-09-01 16:40:47			0	38213	0	0	0	29329	27930	152252	27176	1080472	47054	110907	0	0	8125	532938	0	0
2024-09-01 16:41:47			0	38196	0	0	0	29314	27930	152364	27140	1080472	47054	110901	0	0	8124	533583	0	0
2024-09-01 16:42:47			0	38196	0	0	0	29345	27930	152452	27046	1080499	47043	110913	0	0	8124	533583	0	0
2024-09-01 16:43:47			0	38175	0	0	0	29363	27930	152480	27033	1080490	47054	110920	0	0	8122	534381	0	0
2024-09-01 16:44:47			0	38163	0	0	0	29371	27930	152456	26951	1080553	47054	110923	0	0	8121	534838	0	0
2024-09-01 16:45:47			0	38164	0	0	0	29361	27950	152548	27055	1080563	47056	110919	0	0	8122	534738	0	0
2024-09-01 16:46:47			0	38172	0	0	0	29376	27940	152492	27336	1080616	47077	110925	0	0	8122	534464	0	0
2024-09-01 16:47:47			0	38147	0	0	0	29399	27950	152572	26906	1080697	47045	110934	0	0	8120	535385	0	0
2024-09-01 16:48:47			0	38128	0	0	0	29405	27960	152512	27150	1080706	47056	110936	0	0	8119	536077	0	0
2024-09-01 16:49:47			0	38128	0	0	0	29407	27970	152612	27211	1080751	47069	110937	0	0	8119	536046	0	0
2024-09-01 16:50:47			0	38120	0	0	0	29389	27980	152512	27242	1080797	47069	110930	0	0	8119	536320	0	0
2024-09-01 16:51:47			0	38143	0	0	0	29394	27980	152424	26968	1080770	47058	110932	0	0	8120	535444	0	0
2024-09-01 16:52:47			0	38145	0	0	0	29407	27980	152412	26960	1080779	47082	110937	0	0	8120	535368	0	0
2024-09-01 16:53:47			0	38189	0	0	0	29412	27980	152408	27213	1080797	47047	110939	0	0	8122	533695	0	0
2024-09-01 16:54:47			0	38189	0	0	0	29412	27980	152384	27022	1080797	47058	110939	0	0	8122	533695	0	0
2024-09-01 16:55:47			0	38184	0	0	0	29412	27990	152300	27218	1080851	47060	110939	0	0	8122	533854	0	0
2024-09-01 16:56:47			0	38206	0	0	0	29438	27990	152284	27121	1080869	47060	110949	0	0	8123	533019	0	0
2024-09-01 16:57:47			0	38221	0	0	0	29449	28000	152228	27352	1080950	47061	110953	0	0	8124	532419	0	0
2024-09-01 16:58:47			0	38213	0	0	0	29480	28010	152116	26984	1080959	47074	110965	0	0	8123	532692	0	0
2024-09-01 16:59:47			0	38249	0	0	0	29485	28010	152052	27228	1081067	47074	110967	0	0	8125	531327	0	0
2024-09-01 17:00:47			0	38263	0	0	0	29472	28020	151960	27123	1081085	47085	110962	0	0	8126	530766	0	0
2024-09-01 17:01:47			0	38300	0	0	0	29480	28020	151804	27164	1081040	47085	110965	0	0	8128	529367	0	0
2024-09-01 17:02:47			0	38298	0	0	0	29493	28030	151864	27163	1081166	47098	110970	0	0	8128	529412	0	0
2024-09-01 17:03:47			0	38313	0	0	0	29498	28050	151844	27112	1081194	47066	110972	0	0	8128	528785	0	0
2024-09-01 17:04:47			0	38334	0	0	0	29477	28050	151804	26987	1081194	47078	110964	0	0	8130	527992	0	0
2024-09-01 17:05:47			0	38311	0	0	0	29464	28050	151840	27357	1081140	47066	110959	0	0	8129	528860	0	0
2024-09-01 17:06:47			0	38321	0	0	0	29433	28060	151772	27196	1081158	47067	110947	0	0	8130	528452	0	0
2024-09-01 17:07:47			0	38337	0	0	0	29428	28060	151756	27100	1081167	47057	110945	0	0	8131	527848	0	0
2024-09-01 17:08:47			0	38330	0	0	0	29418	28050	151712	27216	1081068	47067	110941	0	0	8131	528143	0	0
2024-09-01 17:09:47			0	38331	0	0	0	29431	28050	151636	27066	1081095	47044	110946	0	0	8131	528105	0	0
2024-09-01 17:10:47			0	38330	0	0	0	29420	28050	151688	27379	1081113	47055	110942	0	0	8131	528143	0	0
2024-09-01 17:11:47			0	38335	0	0	0	29431	28050	151792	27098	1081068	47067	110946	0	0	8131	527954	0	0
2024-09-01 17:12:47			0	38336	0	0	0	29420	28040	151740	27199	1081104	47042	110942	0	0	8131	527947	0	0
2024-09-01 17:13:47			0	38335	0	0	0	29436	28040	151844	27100	1081131	47065	110948	0	0	8131	527985	0	0
2024-09-01 17:14:47			0	38324	0	0	0	29392	28040	151728	27261	1081050	47054	110931	0	0	8131	528400	0	0
2024-09-01 17:15:47			0	38319	0	0	0	29441	28040	151716	27403	1081050	47042	110950	0	0	8130	528588	0	0
2024-09-01 17:16:47			0	38332	0	0	0	29441	28040	151736	27268	1080969	47054	110950	0	0	8130	528098	0	0
2024-09-01 17:17:47			0	38309	0	0	0	29412	28040	151800	27204	1080987	47065	110939	0	0	8130	528966	0	0
2024-09-01 17:18:47			0	38319	0	0	0	29423	28040	151748	27277	1080987	47077	110943	0	0	8130	528588	0	0
2024-09-01 17:19:47			0	38314	0	0	0	29423	28030	151904	27230	1080968	47053	110943	0	0	8130	528808	0	0
2024-09-01 17:20:47			0	38307	0	0	0	29431	28040	151840	27422	1081014	47054	110946	0	0	8129	529042	0	0
2024-09-01 17:21:47			0	38290	0	0	0	29436	28040	151944	27133	1080996	47065	110948	0	0	8128	529684	0	0
2024-09-01 17:22:47			0	38293	0	0	0	29462	28040	151920	26927	1081041	47087	110958	0	0	8128	529571	0	0
2024-09-01 17:23:47			0	38281	0	0	0	29459	28040	151928	27213	1081095	47065	110957	0	0	8127	530024	0	0
2024-09-01 17:24:47			0	38281	0	0	0	29464	28040	151920	27074	1081077	47087	110959	0	0	8127	530024	0	0
2024-09-01 17:25:47			0	38286	0	0	0	29446	28040	151932	27474	1081077	47065	110952	0	0	8128	529835	0	0
2024-09-01 17:26:47			0	38265	0	0	0	29399	28050	152032	27320	1081086	47078	110934	0	0	8127	530599	0	0
2024-09-01 17:27:47			0	38274	0	0	0	29371	28050	151928	27417	1080987	47044	110923	0	0	8128	530258	0	0
2024-09-01 17:28:47			0	38260	0	0	0	29389	28040	152060	27287	1080906	47032	110930	0	0	8127	530819	0	0
2024-09-01 17:29:47			0	38245	0	0	0	29431	28020	152088	27312	1080932	47052	110946	0	0	8126	531448	0	0
2024-09-01 17:30:47			0	38238	0	0	0	29446	28030	152132	27022	1081049	47064	110952	0	0	8125	531683	0	0
2024-09-01 17:31:47			0	38241	0	0	0	29379	28030	151956	27241	1081059	47054	110926	0	0	8126	531569	0	0
2024-09-01 17:32:47			0	38226	0	0	0	29386	28040	152100	27225	1081050	47065	110929	0	0	8125	532107	0	0
2024-09-01 17:33:47			0	38237	0	0	0	29428	28040	152124	27173	1080996	47042	110945	0	0	8125	531690	0	0
2024-09-01 17:34:47			0	38232	0	0	0	29449	28040	152120	27305	1081014	47065	110953	0	0	8125	531879	0	0
2024-09-01 17:35:47			0	38218	0	0	0	29459	28050	152212	27126	1081113	47078	110957	0	0	8124	532379	0	0
2024-09-01 17:36:47			0	38221	0	0	0	29480	28050	152200	27459	1081149	47079	110965	0	0	8123	532266	0	0
2024-09-01 17:37:47			0	38218	0	0	0	29503	28050	152184	27300	1081122	47079	110974	0	0	8123	532379	0	0
2024-09-01 17:38:47			0	38243	0	0	0	29511	28050	152136	27185	1081230	47079	110977	0	0	8124	531432	0	0
2024-09-01 17:39:47			0	38253	0	0	0	29446	28070	152040	26857	1081230	47090	110952	0	0	8126	530992	0	0
2024-09-01 17:40:47			0	38274	0	0	0	29459	28080	151960	27339	1081275	47081	110957	0	0	8127	530167	0	0
2024-09-01 17:41:47			0	38295	0	0	0	29441	28060	151880	27429	1081248	47080	110950	0	0	8128	529434	0	0
2024-09-01 17:42:47			0	38320	0	0	0	29420	28070	151868	27438	1081149	47080	110942	0	0	8130	528459	0	0
2024-09-01 17:43:47			0	38347	0	0	0	29433	28060	151796	27478	1081113	47068	110947	0	0	8132	527471	0	0
2024-09-01 17:44:47			0	38340	0	0	0	29459	28060	151692	27365	1081167	47057	110957	0	0	8131	527735	0	0
2024-09-01 17:45:47			0	38355	0	0	0	29485	28060	151648	27445	1081239	47067	110967	0	0	8131	527170	0	0
2024-09-01 17:46:47			0	38362	0	0	0	29480	28070	151676	27203	1081257	47080	110965	0	0	8132	526875	0	0
2024-09-01 17:47:47			0	38371	0	0	0	29477	28070	151712	27461	1081239	47069	110964	0	0	8132	526536	0	0
2024-09-01 17:48:47			0	38359	0	0	0	29485	28060	151660	26896	1081194	47068	110967	0	0	8131	527019	0	0
2024-09-01 17:49:47			0	38342	0	0	0	29480	28080	151612	27248	1081302	47081	110965	0	0	8131	527599	0	0
2024-09-01 17:50:47			0	38355	0	0	0	29472	28070	151696	27277	1081293	47091	110962	0	0	8131	527139	0	0
2024-09-01 17:51:47			0	38356	0	0	0	29470	28090	151612	27412	1081320	47070	110961	0	0	8132	527041	0	0
2024-09-01 17:52:47			0	38346	0	0	0	29477	28080	151664	27274	1081248	47046	110964	0	0	8131	527448	0	0
2024-09-01 17:53:47			0	38356	0	0	0	29475	28080	151724	27384	1081311	47059	110963	0	0	8131	527071	0	0
2024-09-01 17:54:47			0	38342	0	0	0	29480	28070	151752	27350	1081266	47069	110965	0	0	8131	527629	0	0
2024-09-01 17:55:47			0	38321	0	0	0	29503	28080	151852	27350	1081275	47081	110974	0	0	8129	528391	0	0
2024-09-01 17:56:47			0	38290	0	0	0	29496	28090	151868	27438	1081320	47082	110971	0	0	8127	529531	0	0
2024-09-01 17:57:47			0	38296	0	0	0	29464	28090	151880	27353	1081329	47071	110959	0	0	8128	529304	0	0
2024-09-01 17:58:47			0	38254	0	0	0	29444	28090	151908	27173	1081266	47059	110951	0	0	8126	530893	0	0
2024-09-01 17:59:47			0	38282	0	0	0	29428	28080	151960	27209	1081275	47069	110945	0	0	8128	529864	0	0
2024-09-01 18:00:47			0	38246	0	0	0	29415	28080	152032	27312	1081167	47069	110940	0	0	8126	531226	0	0
2024-09-01 18:01:47			0	38263	0	0	0	29444	28080	152084	27192	1081176	47047	110951	0	0	8127	530583	0	0
2024-09-01 18:02:47			0	38231	0	0	0	29451	28050	152188	27258	1081176	47056	110954	0	0	8125	531887	0	0
2024-09-01 18:03:47			0	38225	0	0	0	29457	28060	152164	27192	1081140	47045	110956	0	0	8124	532083	0	0
2024-09-01 18:04:47			0	38227	0	0	0	29441	28070	152168	27410	1081176	47080	110950	0	0	8125	531977	0	0
2024-09-01 18:05:47			0	38223	0	0	0	29418	28070	152128	27320	1081158	47069	110941	0	0	8125	532128	0	0
2024-09-01 18:06:47			0	38206	0	0	0	29384	28060	152160	27452	1081113	47068	110928	0	0	8124	532804	0	0
2024-09-01 18:07:47			0	38207	0	0	0	29428	28060	152208	27395	1081113	47068	110945	0	0	8124	532766	0	0
2024-09-01 18:08:47			0	38201	0	0	0	29457	28060	152240	27187	1081113	47068	110956	0	0	8123	532993	0	0
2024-09-01 18:09:47			0	38196	0	0	0	29451	28060	152332	27225	1081140	47080	110954	0	0	8123	533183	0	0
2024-09-01 18:10:47			0	38196	0	0	0	29423	28060	152324	27059	1081140	47068	110943	0	0	8123	533183	0	0
2024-09-01 18:11:47			0	38182	0	0	0	29366	28060	152248	27355	1081077	47056	110921	0	0	8123	533715	0	0
2024-09-01 18:12:47			0	38177	0	0	0	29366	28040	152196	27149	1081023	47065	110921	0	0	8123	533966	0	0
2024-09-01 18:13:47			0	38185	0	0	0	29340	28040	152284	27327	1080969	47042	110911	0	0	8124	533662	0	0
2024-09-01 18:14:47			0	38192	0	0	0	29342	28030	152408	27064	1080888	47041	110912	0	0	8124	533427	0	0
2024-09-01 18:15:47			0	38181	0	0	0	29332	28020	152272	27306	1080798	47052	110908	0	0	8124	533876	0	0
2024-09-01 18:16:47			0	38179	0	0	0	29366	28010	152340	27097	1080806	47041	110921	0	0	8123	533983	0	0
2024-09-01 18:17:47			0	38190	0	0	0	29340	28010	152364	27407	1080770	47062	110911	0	0	8124	533565	0	0
2024-09-01 18:18:47			0	38177	0	0	0	29342	27990	152288	27182	1080770	47038	110912	0	0	8123	534120	0	0
2024-09-01 18:19:47			0	38170	0	0	0	29337	27990	152336	27154	1080743	47049	110910	0	0	8123	534386	0	0
2024-09-01 18:20:47			0	38189	0	0	0	29366	28000	152352	27222	1080887	47050	110921	0	0	8123	533634	0	0
2024-09-01 18:21:47			0	38184	0	0	0	29335	28000	152204	27168	1080788	47050	110909	0	0	8124	533824	0	0
2024-09-01 18:22:47			0	38181	0	0	0	29319	27990	152164	27279	1080734	47049	110903	0	0	8124	533968	0	0
2024-09-01 18:23:47			0	38190	0	0	0	29324	28000	152236	27301	1080752	47061	110905	0	0	8124	533596	0	0
2024-09-01 18:24:47			0	38188	0	0	0	29311	27980	152304	27072	1080671	47048	110900	0	0	8124	533733	0	0
2024-09-01 18:25:47			0	38213	0	0	0	29296	27980	152188	27171	1080617	47037	110894	0	0	8126	532784	0	0
2024-09-01 18:26:47			0	38208	0	0	0	29319	27970	152272	27208	1080590	47036	110903	0	0	8125	533005	0	0
2024-09-01 18:27:47			0	38201	0	0	0	29322	27950	152400	27263	1080563	47056	110904	0	0	8125	533332	0	0
2024-09-01 18:28:47			0	38180	0	0	0	29342	27960	152256	27256	1080572	47045	110912	0	0	8123	534099	0	0
2024-09-01 18:29:47			0	38200	0	0	0	29332	27950	152316	27046	1080536	47056	110908	0	0	8124	533370	0	0
2024-09-01 18:30:47			0	38184	0	0	0	29337	27950	152288	27064	1080580	47056	110910	0	0	8123	533978	0	0
2024-09-01 18:31:47			0	38171	0	0	0	29306	27950	152412	27114	1080580	47056	110898	0	0	8123	534472	0	0
2024-09-01 18:32:47			0	38193	0	0	0	29184	27940	152252	27334	1080455	47021	110851	0	0	8126	533666	0	0
2024-09-01 18:33:47			0	38185	0	0	0	29223	27930	152280	27171	1080284	47021	110866	0	0	8125	534001	0	0
2024-09-01 18:34:47			0	38174	0	0	0	29283	27920	152280	27020	1080364	47030	110889	0	0	8124	534450	0	0
2024-09-01 18:35:47			0	38159	0	0	0	29306	27910	152436	27242	1080409	47051	110898	0	0	8122	535051	0	0
2024-09-01 18:36:47			0	38168	0	0	0	29290	27910	152540	27376	1080454	47051	110892	0	0	8123	534709	0	0
2024-09-01 18:37:47			0	38160	0	0	0	29194	27910	152464	27410	1080436	47051	110855	0	0	8124	535013	0	0
2024-09-01 18:38:47			0	38141	0	0	0	29259	27900	152556	27154	1080310	47051	110880	0	0	8122	535768	0	0
2024-09-01 18:39:47			0	38132	0	0	0	29290	27910	152536	27355	1080400	47051	110892	0	0	8121	536079	0	0
2024-09-01 18:40:47			0	38140	0	0	0	29275	27900	152600	27287	1080310	47041	110886	0	0	8122	535806	0	0
2024-09-01 18:41:47			0	38134	0	0	0	29335	27900	152700	27512	1080337	47051	110909	0	0	8120	536034	0	0
2024-09-01 18:42:47			0	38121	0	0	0	29366	27910	152696	27284	1080517	47051	110921	0	0	8119	536499	0	0
2024-09-01 18:43:47			0	38111	0	0	0	29381	27910	152700	27416	1080517	47074	110927	0	0	8118	536880	0	0
2024-09-01 18:44:47			0	38128	0	0	0	29376	27920	152604	27343	1080535	47064	110925	0	0	8119	536201	0	0
2024-09-01 18:45:47			0	38151	0	0	0	29374	27930	152640	27300	1080544	47065	110924	0	0	8121	535294	0	0
2024-09-01 18:46:47			0	38168	0	0	0	29361	27930	152448	27159	1080661	47065	110919	0	0	8122	534647	0	0
2024-09-01 18:47:47			0	38170	0	0	0	29296	27920	152416	27166	1080535	47053	110894	0	0	8123	534602	0	0
2024-09-01 18:48:47			0	38185	0	0	0	29324	27930	152320	27218	1080553	47065	110905	0	0	8124	534001	0	0
2024-09-01 18:49:47			0	38172	0	0	0	29353	27930	152372	27079	1080580	47065	110916	0	0	8122	534495	0	0
2024-09-01 18:50:47			0	38195	0	0	0	29342	27940	152460	27163	1080535	47077	110912	0	0	8124	533590	0	0
2024-09-01 18:51:47			0	38180	0	0	0	29316	27930	152324	27170	1080526	47054	110902	0	0	8123	534191	0	0
2024-09-01 18:52:47			0	38206	0	0	0	29311	27940	152308	27055	1080535	47065	110900	0	0	8125	533173	0	0
2024-09-01 18:53:47			0	38194	0	0	0	29301	27930	152204	27015	1080436	47054	110896	0	0	8124	533659	0	0
2024-09-01 18:54:47			0	38188	0	0	0	29275	27930	152288	26953	1080436	47043	110886	0	0	8125	533887	0	0
2024-09-01 18:55:47			0	38192	0	0	0	29283	27920	152276	27105	1080391	47052	110889	0	0	8125	533766	0	0
2024-09-01 18:56:47			0	38189	0	0	0	29288	27920	152340	27467	1080418	47041	110891	0	0	8124	533880	0	0
2024-09-01 18:57:47			0	38182	0	0	0	29283	27920	152380	27157	1080418	47041	110889	0	0	8124	534146	0	0
2024-09-01 18:58:47			0	38157	0	0	0	29290	27920	152496	27090	1080418	47041	110892	0	0	8122	535097	0	0
2024-09-01 18:59:47			0	38163	0	0	0	29280	27910	152476	27345	1080355	47051	110888	0	0	8123	534899	0	0
2024-09-01 19:00:47			0	38152	0	0	0	29277	27920	152516	27185	1080311	47041	110887	0	0	8122	535287	0	0
2024-09-01 19:01:47			0	38129	0	0	0	29290	27900	152572	27055	1080328	47040	110892	0	0	8121	536225	0	0
2024-09-01 19:02:47			0	38136	0	0	0	29280	27900	152528	27279	1080337	47041	110888	0	0	8121	535958	0	0
2024-09-01 19:03:47			0	38133	0	0	0	29275	27910	152680	27088	1080238	47051	110886	0	0	8121	536041	0	0
2024-09-01 19:04:47			0	38115	0	0	0	29259	27890	152712	27144	1080319	47039	110880	0	0	8120	536789	0	0
2024-09-01 19:05:47			0	38116	0	0	0	29244	27890	152640	27156	1080319	47049	110874	0	0	8121	536751	0	0
2024-09-01 19:06:47			0	38117	0	0	0	29238	27890	152672	27010	1080202	47049	110872	0	0	8121	536713	0	0
2024-09-01 19:07:47			0	38098	0	0	0	29228	27880	152628	27319	1080247	47039	110868	0	0	8120	537469	0	0
2024-09-01 19:08:47			0	38092	0	0	0	29259	27880	152716	27164	1080184	47038	110880	0	0	8119	537698	0	0
2024-09-01 19:09:47			0	38081	0	0	0	29275	27880	152812	27303	1080193	47060	110886	0	0	8118	538118	0	0
2024-09-01 19:10:47			0	38061	0	0	0	29272	27880	152832	27218	1080220	47049	110885	0	0	8117	538882	0	0
2024-09-01 19:11:47			0	38069	0	0	0	29270	27880	152908	27424	1080274	47060	110884	0	0	8118	538576	0	0
2024-09-01 19:12:47			0	38066	0	0	0	29262	27870	152876	27412	1080219	47047	110881	0	0	8117	538722	0	0
2024-09-01 19:13:47			0	38050	0	0	0	29246	27880	152816	27171	1080211	47048	110875	0	0	8117	539302	0	0
2024-09-01 19:14:47			0	38048	0	0	0	29246	27880	152884	27088	1080211	47038	110875	0	0	8117	539379	0	0
2024-09-01 19:15:47			0	38049	0	0	0	29241	27870	152864	27171	1080201	47047	110873	0	0	8117	539372	0	0
2024-09-01 19:16:47			0	38042	0	0	0	29254	27860	152860	27178	1080183	47058	110878	0	0	8116	539670	0	0
2024-09-01 19:17:47			0	38038	0	0	0	29264	27870	152928	27192	1080148	47058	110882	0	0	8116	539792	0	0
2024-09-01 19:18:47			0	38039	0	0	0	29236	27870	152904	27043	1080085	47047	110871	0	0	8116	539754	0	0
2024-09-01 19:19:47			0	38039	0	0	0	29207	27860	152936	26894	1080129	47047	110860	0	0	8117	539785	0	0
2024-09-01 19:20:47			0	38041	0	0	0	29109	27870	152952	27194	1080031	47047	110822	0	0	8119	539678	0	0
2024-09-01 19:21:47			0	38024	0	0	0	29101	27850	152927	27317	1079968	47044	110819	0	0	8118	540391	0	0
2024-09-01 19:22:47			0	38036	0	0	0	29145	27840	153020	27180	1079878	47044	110836	0	0	8118	539962	0	0
2024-09-01 19:23:47			0	38013	0	0	0	29225	27830	153091	27144	1079913	47033	110867	0	0	8115	540874	0	0
2024-09-01 19:24:47			0	37995	0	0	0	29244	27840	153143	27306	1079976	47044	110874	0	0	8114	541533	0	0
2024-09-01 19:25:47			0	38001	0	0	0	29228	27830	153151	27346	1080075	47054	110868	0	0	8114	541334	0	0
2024-09-01 19:26:47			0	38009	0	0	0	29161	27830	153203	27161	1079940	47054	110842	0	0	8116	541028	0	0
2024-09-01 19:27:47			0	38023	0	0	0	29140	27830	153067	27305	1079904	47042	110834	0	0	8117	540491	0	0
2024-09-01 19:28:47			0	37999	0	0	0	29192	27820	153159	27138	1079868	47031	110854	0	0	8115	541442	0	0
2024-09-01 19:29:47			0	37992	0	0	0	29257	27820	153191	27246	1079976	47042	110879	0	0	8113	541710	0	0
2024-09-01 19:30:47			0	38012	0	0	0	29264	27830	153115	27471	1080066	47053	110882	0	0	8114	540912	0	0
2024-09-01 19:31:47			0	38001	0	0	0	29251	27830	153263	27222	1080012	47065	110877	0	0	8114	541334	0	0
2024-09-01 19:32:47			0	38009	0	0	0	29231	27830	153215	27357	1080048	47066	110869	0	0	8115	541028	0	0
2024-09-01 19:33:47			0	38022	0	0	0	29233	27830	153207	27177	1080048	47054	110870	0	0	8115	540529	0	0
2024-09-01 19:34:47			0	38006	0	0	0	29236	27840	153139	27211	1080093	47044	110871	0	0	8114	541111	0	0
2024-09-01 19:35:47			0	38033	0	0	0	29212	27830	153256	27374	1080021	47043	110862	0	0	8116	540108	0	0
2024-09-01 19:36:47			0	38034	0	0	0	29202	27840	152996	27232	1080012	47044	110858	0	0	8116	540039	0	0
2024-09-01 19:37:47			0	38018	0	0	0	29220	27830	153055	27161	1079967	47043	110865	0	0	8115	540683	0	0
2024-09-01 19:38:47			0	38044	0	0	0	29233	27830	153172	27372	1080039	47042	110870	0	0	8116	539687	0	0
2024-09-01 19:39:47			0	38023	0	0	0	29225	27840	153052	27398	1080039	47055	110867	0	0	8115	540460	0	0
2024-09-01 19:40:47			0	38018	0	0	0	29218	27830	153115	27296	1080021	47066	110864	0	0	8115	540683	0	0
2024-09-01 19:41:47			0	38004	0	0	0	29181	27830	153239	27241	1080039	47031	110850	0	0	8115	541219	0	0
2024-09-01 19:42:47			0	38015	0	0	0	29044	27840	153139	27381	1079949	47034	110797	0	0	8118	540767	0	0
2024-09-01 19:43:47			0	38001	0	0	0	28953	27810	153035	27317	1079653	46996	110762	0	0	8119	541397	0	0
2024-09-01 19:44:47			0	38001	0	0	0	29096	27800	153187	27230	1079617	47018	110817	0	0	8116	541428	0	0
2024-09-01 19:45:47			0	37979	0	0	0	29137	27790	153343	27260	1079634	47018	110833	0	0	8114	542303	0	0
2024-09-01 19:46:47			0	37944	0	0	0	29166	27780	153571	27350	1079697	47027	110844	0	0	8112	543679	0	0
2024-09-01 19:47:47			0	37899	0	0	0	29199	27780	153619	27343	1079751	47027	110857	0	0	8108	545411	0	0
2024-09-01 19:48:47			0	37885	0	0	0	29202	27780	153759	26974	1079822	47071	110858	0	0	8108	545950	0	0
2024-09-01 19:49:47			0	37874	0	0	0	29181	27790	153755	27190	1079769	47051	110850	0	0	8107	546343	0	0
2024-09-01 19:50:47			0	37854	0	0	0	29192	27790	153811	27365	1079760	47040	110854	0	0	8106	547114	0	0
2024-09-01 19:51:47			0	37847	0	0	0	29186	27790	153859	27324	1079823	47041	110852	0	0	8106	547385	0	0
2024-09-01 19:52:47			0	37837	0	0	0	29176	27790	153975	27289	1079706	47029	110848	0	0	8105	547771	0	0
2024-09-01 19:53:47			0	37818	0	0	0	29129	27790	154039	27228	1079715	47063	110830	0	0	8105	548505	0	0
2024-09-01 19:54:47			0	37791	0	0	0	29116	27790	154139	27355	1079760	47029	110825	0	0	8104	549550	0	0
2024-09-01 19:55:47			0	37745	0	0	0	29098	27790	154203	27046	1079652	47029	110818	0	0	8101	551332	0	0
2024-09-01 19:56:47			0	37719	0	0	0	29116	27770	154335	27180	1079625	47038	110825	0	0	8099	552405	0	0
2024-09-01 19:57:47			0	37680	0	0	0	29135	27770	154599	27164	1079535	47026	110832	0	0	8097	553921	0	0
2024-09-01 19:58:47			0	37647	0	0	0	29111	27760	154683	27114	1079490	47024	110823	0	0	8095	555238	0	0
2024-09-01 19:59:47			0	37615	0	0	0	29106	27760	154863	27161	1079490	47036	110821	0	0	8094	556486	0	0
2024-09-01 20:00:47			0	37585	0	0	0	29111	27750	155103	27395	1079535	47036	110823	0	0	8092	557689	0	0
2024-09-01 20:01:47			0	37538	0	0	0	29098	27750	155199	27039	1079454	47036	110818	0	0	8089	559528	0	0
2024-09-01 20:02:47			0	37482	0	0	0	29093	27740	155355	27533	1079373	47011	110816	0	0	8086	561756	0	0
2024-09-01 20:03:47			0	37472	0	0	0	29103	27730	155443	27190	1079471	47034	110820	0	0	8085	562181	0	0
2024-09-01 20:04:47			0	37454	0	0	0	29090	27740	155435	27175	1079436	47045	110815	0	0	8084	562856	0	0
2024-09-01 20:05:47			0	37448	0	0	0	29083	27730	155575	26922	1079381	47022	110812	0	0	8084	563125	0	0
2024-09-01 20:06:47			0	37433	0	0	0	29090	27730	155519	27161	1079435	47044	110815	0	0	8083	563715	0	0
2024-09-01 20:07:47			0	37449	0	0	0	29093	27730	155547	27152	1079408	47044	110816	0	0	8084	563085	0	0
2024-09-01 20:08:47			0	37438	0	0	0	29096	27720	155547	27466	1079318	47033	110817	0	0	8083	563551	0	0
2024-09-01 20:09:47			0	37468	0	0	0	29064	27720	155571	27469	1079363	47032	110805	0	0	8086	562371	0	0
2024-09-01 20:10:47			0	37464	0	0	0	29070	27720	155411	27249	1079336	47032	110807	0	0	8085	562528	0	0
2024-09-01 20:11:47			0	37488	0	0	0	29072	27710	155423	27367	1079273	47042	110808	0	0	8087	561618	0	0
2024-09-01 20:12:47			0	37494	0	0	0	29062	27710	155407	27168	1079237	47019	110804	0	0	8087	561382	0	0
2024-09-01 20:13:47			0	37501	0	0	0	29067	27700	155383	27267	1079219	47018	110806	0	0	8087	561140	0	0
2024-09-01 20:14:47			0	37504	0	0	0	29041	27690	155251	27012	1079076	47017	110796	0	0	8088	561054	0	0
2024-09-01 20:15:47			0	37508	0	0	0	29033	27690	155307	27173	1079147	47029	110793	0	0	8088	560897	0	0
2024-09-01 20:16:47			0	37524	0	0	0	29036	27680	155299	27090	1079084	47029	110794	0	0	8089	560302	0	0
2024-09-01 20:17:47			0	37505	0	0	0	29046	27670	155335	27325	1079120	47038	110798	0	0	8088	561080	0	0
2024-09-01 20:18:47			0	37502	0	0	0	29046	27670	155307	27343	1079093	47015	110798	0	0	8088	561197	0	0
2024-09-01 20:19:47			0	37513	0	0	0	29031	27670	155399	27213	1079066	47027	110792	0	0	8088	560766	0	0
2024-09-01 20:20:47			0	37524	0	0	0	29025	27670	155319	27048	1079030	47015	110790	0	0	8089	560334	0	0
2024-09-01 20:21:47			0	37520	0	0	0	29018	27660	155423	27171	1078994	47027	110787	0	0	8089	560524	0	0
2024-09-01 20:22:47			0	37520	0	0	0	29007	27650	155303	27175	1078940	47036	110783	0	0	8089	560556	0	0
2024-09-01 20:23:47			0	37536	0	0	0	28992	27650	155327	27343	1078913	47025	110777	0	0	8090	559929	0	0
2024-09-01 20:24:47			0	37528	0	0	0	28992	27640	155287	27237	1078850	47001	110777	0	0	8090	560274	0	0
2024-09-01 20:25:47			0	37521	0	0	0	29002	27630	155279	27542	1078903	47023	110781	0	0	8089	560581	0	0
2024-09-01 20:26:47			0	37518	0	0	0	29020	27640	155311	27334	1078894	47024	110788	0	0	8089	560666	0	0
2024-09-01 20:27:47			0	37518	0	0	0	29010	27630	155427	27637	1078885	47023	110784	0	0	8089	560699	0	0
2024-09-01 20:28:47			0	37528	0	0	0	28997	27630	155335	27296	1078849	47034	110779	0	0	8090	560307	0	0
2024-09-01 20:29:47			0	37504	0	0	0	28992	27620	155395	27246	1078840	47022	110777	0	0	8088	561280	0	0
2024-09-01 20:30:47			0	37507	0	0	0	28984	27620	155319	27131	1078912	47043	110774	0	0	8089	561163	0	0
2024-09-01 20:31:47			0	37524	0	0	0	28997	27610	155371	27403	1078768	47032	110779	0	0	8089	560528	0	0
2024-09-01 20:32:47			0	37514	0	0	0	28989	27610	155403	27090	1078813	47031	110776	0	0	8089	560920	0	0
2024-09-01 20:33:47			0	37506	0	0	0	28992	27610	155471	27147	1078768	47021	110777	0	0	8088	561234	0	0
2024-09-01 20:34:47			0	37525	0	0	0	28986	27610	155427	26994	1078732	47020	110775	0	0	8090	560489	0	0
2024-09-01 20:35:47			0	37513	0	0	0	28992	27610	155415	26873	1078786	47020	110777	0	0	8089	560959	0	0
2024-09-01 20:36:47			0	37497	0	0	0	28992	27590	155355	26908	1078732	47030	110777	0	0	8088	561652	0	0
2024-09-01 20:37:47			0	37490	0	0	0	28997	27610	155467	27230	1078759	47041	110779	0	0	8087	561862	0	0
2024-09-01 20:38:47			0	37506	0	0	0	28994	27610	155463	27081	1078732	47041	110778	0	0	8088	561234	0	0
2024-09-01 20:39:47			0	37514	0	0	0	29002	27590	155375	27218	1078759	47041	110781	0	0	8089	560985	0	0
2024-09-01 20:40:47			0	37505	0	0	0	29002	27600	155411	27022	1078768	47020	110781	0	0	8088	561306	0	0
2024-09-01 20:41:47			0	37512	0	0	0	29012	27600	155447	27265	1078849	47031	110785	0	0	8088	561031	0	0
2024-09-01 20:42:47			0	37502	0	0	0	29015	27600	155551	27142	1078831	47041	110786	0	0	8088	561424	0	0
2024-09-01 20:43:47			0	37495	0	0	0	29018	27600	155503	27282	1078804	47041	110787	0	0	8087	561699	0	0
2024-09-01 20:44:47			0	37501	0	0	0	29025	27590	155503	27270	1078786	47041	110790	0	0	8087	561495	0	0
2024-09-01 20:45:47			0	37505	0	0	0	29025	27600	155403	26991	1078831	47020	110790	0	0	8088	561306	0	0
2024-09-01 20:46:47			0	37472	0	0	0	29031	27610	155619	27031	1078840	47041	110792	0	0	8086	562570	0	0
2024-09-01 20:47:47			0	37481	0	0	0	29036	27610	155647	27227	1078876	47042	110794	0	0	8086	562216	0	0
2024-09-01 20:48:47			0	37485	0	0	0	29041	27610	155619	27159	1078876	47032	110796	0	0	8086	562059	0	0
2024-09-01 20:49:47			0	37479	0	0	0	29041	27610	155507	27081	1078867	47031	110796	0	0	8086	562295	0	0
2024-09-01 20:50:47			0	37491	0	0	0	29049	27610	155579	26885	1078903	47032	110799	0	0	8087	561823	0	0
2024-09-01 20:51:47			0	37483	0	0	0	29038	27620	155591	27223	1078912	47033	110795	0	0	8086	562105	0	0
2024-09-01 20:52:47			0	37491	0	0	0	29038	27620	155523	27126	1078975	47055	110795	0	0	8087	561791	0	0
2024-09-01 20:53:47			0	37489	0	0	0	29041	27620	155575	27124	1078966	47022	110796	0	0	8087	561870	0	0
2024-09-01 20:54:47			0	37487	0	0	0	29038	27620	155563	27362	1078948	47033	110795	0	0	8087	561948	0	0
2024-09-01 20:55:47			0	37480	0	0	0	29051	27620	155555	27253	1078948	47033	110800	0	0	8086	562223	0	0
2024-09-01 20:56:47			0	37480	0	0	0	29051	27630	155551	27175	1078957	47034	110800	0	0	8086	562191	0	0
2024-09-01 20:57:47			0	37492	0	0	0	29057	27630	155559	26979	1079020	47045	110802	0	0	8087	561719	0	0
2024-09-01 20:58:47			0	37488	0	0	0	29059	27630	155523	27039	1079074	47056	110803	0	0	8086	561876	0	0
2024-09-01 20:59:47			0	37476	0	0	0	29051	27630	155559	27315	1078993	47045	110800	0	0	8086	562348	0	0
2024-09-01 21:00:47			0	37485	0	0	0	29067	27630	155579	27296	1078993	47045	110806	0	0	8086	561994	0	0
2024-09-01 21:01:47			0	37461	0	0	0	29062	27640	155535	27230	1078975	47035	110804	0	0	8085	562905	0	0
2024-09-01 21:02:47			0	37456	0	0	0	29064	27640	155615	27187	1079038	47035	110805	0	0	8084	563102	0	0
2024-09-01 21:03:47			0	37476	0	0	0	29062	27640	155639	26996	1079092	47057	110804	0	0	8086	562315	0	0
2024-09-01 21:04:47			0	37443	0	0	0	29062	27630	155591	27121	1079020	47023	110804	0	0	8084	563646	0	0
2024-09-01 21:05:47			0	37436	0	0	0	29059	27650	155679	27317	1079056	47036	110803	0	0	8083	563856	0	0
2024-09-01 21:06:47			0	37438	0	0	0	29062	27640	155647	27111	1079038	47012	110804	0	0	8083	563810	0	0
2024-09-01 21:07:47			0	37446	0	0	0	29059	27650	155815	27124	1078967	47036	110803	0	0	8084	563463	0	0
2024-09-01 21:08:47			0	37412	0	0	0	29057	27650	155771	27060	1078993	47036	110802	0	0	8082	564802	0	0
2024-09-01 21:09:47			0	37408	0	0	0	29057	27640	155847	27211	1078984	47024	110802	0	0	8082	564992	0	0
2024-09-01 21:10:47			0	37404	0	0	0	29062	27650	155847	27150	1078976	47046	110804	0	0	8082	565117	0	0
2024-09-01 21:11:47			0	37397	0	0	0	29062	27650	155883	27192	1079020	47025	110804	0	0	8081	565393	0	0
2024-09-01 21:12:47			0	37402	0	0	0	29051	27650	155755	27268	1078993	47046	110800	0	0	8082	565196	0	0
2024-09-01 21:13:47			0	37374	0	0	0	29057	27660	155871	27031	1079012	47047	110802	0	0	8080	566268	0	0
2024-09-01 21:14:47			0	37382	0	0	0	29046	27650	155887	27001	1079074	47036	110798	0	0	8080	565985	0	0
2024-09-01 21:15:47			0	37371	0	0	0	29023	27660	155963	27034	1079012	47047	110789	0	0	8080	566387	0	0
2024-09-01 21:16:47			0	37373	0	0	0	29020	27640	156083	27192	1078948	47024	110788	0	0	8080	566373	0	0
2024-09-01 21:17:47			0	37343	0	0	0	29018	27630	156019	26783	1078885	47045	110787	0	0	8079	567591	0	0
2024-09-01 21:18:47			0	37319	0	0	0	29015	27630	156098	26960	1078939	47034	110786	0	0	8077	568540	0	0
2024-09-01 21:19:47			0	37338	0	0	0	29015	27630	156183	27185	1078966	47034	110786	0	0	8078	567788	0	0
2024-09-01 21:20:47			0	37320	0	0	0	29015	27630	156227	27220	1078903	47034	110786	0	0	8077	568501	0	0
2024-09-01 21:21:47			0	37296	0	0	0	29010	27630	156230	27152	1078885	47023	110784	0	0	8076	569451	0	0
2024-09-01 21:22:47			0	37304	0	0	0	29015	27620	156274	27312	1078921	47043	110786	0	0	8076	569167	0	0
2024-09-01 21:23:47			0	37278	0	0	0	29012	27620	156286	27313	1078831	47033	110785	0	0	8075	570197	0	0
2024-09-01 21:24:47			0	37281	0	0	0	29018	27610	156290	27175	1078849	47021	110787	0	0	8075	570111	0	0
2024-09-01 21:25:47			0	37257	0	0	0	29015	27620	156398	27279	1078858	47043	110786	0	0	8074	571031	0	0
2024-09-01 21:26:47			0	37270	0	0	0	29018	27620	156410	27351	1078885	47022	110787	0	0	8074	570515	0	0
2024-09-01 21:27:47			0	37257	0	0	0	29015	27620	156430	27015	1078867	47022	110786	0	0	8074	571031	0	0
2024-09-01 21:28:47			0	37264	0	0	0	29012	27610	156414	27064	1078849	47021	110785	0	0	8074	570786	0	0
2024-09-01 21:29:47			0	37267	0	0	0	29010	27610	156446	27218	1078867	47031	110784	0	0	8074	570667	0	0
2024-09-01 21:30:47			0	37258	0	0	0	29005	27620	156434	27038	1078858	47022	110782	0	0	8074	570991	0	0
2024-09-01 21:31:47			0	37262	0	0	0	29010	27610	156466	27280	1078849	47032	110784	0	0	8074	570865	0	0
2024-09-01 21:32:47			0	37251	0	0	0	29007	27620	156470	27223	1078858	47022	110783	0	0	8073	571269	0	0
2024-09-01 21:33:47			0	37259	0	0	0	29007	27610	156434	27206	1078813	47020	110783	0	0	8074	570984	0	0
2024-09-01 21:34:47			0	37268	0	0	0	29007	27600	156386	27462	1078831	47031	110783	0	0	8074	570660	0	0
2024-09-01 21:35:47			0	37272	0	0	0	28986	27600	156274	26979	1078849	47020	110775	0	0	8075	570501	0	0
2024-09-01 21:36:47			0	37259	0	0	0	28994	27600	156418	27268	1078822	47031	110778	0	0	8074	571017	0	0
2024-09-01 21:37:47			0	37253	0	0	0	28979	27590	156406	27196	1078732	47019	110772	0	0	8074	571288	0	0
2024-09-01 21:38:47			0	37237	0	0	0	28979	27600	156346	27654	1078696	47020	110772	0	0	8073	571891	0	0
2024-09-01 21:39:47			0	37259	0	0	0	28963	27600	156454	27300	1078660	47031	110766	0	0	8074	571017	0	0
2024-09-01 21:40:47			0	37246	0	0	0	28963	27590	156454	27161	1078669	47029	110766	0	0	8074	571566	0	0
2024-09-01 21:41:47			0	37242	0	0	0	28950	27590	156574	27173	1078696	47018	110761	0	0	8074	571725	0	0
2024-09-01 21:42:47			0	37243	0	0	0	28945	27580	156546	26811	1078687	47040	110759	0	0	8074	571718	0	0
2024-09-01 21:43:47			0	37234	0	0	0	28955	27580	156514	27248	1078651	47017	110763	0	0	8073	572076	0	0
2024-09-01 21:44:47			0	37234	0	0	0	28953	27580	156578	27261	1078624	47028	110762	0	0	8073	572076	0	0
2024-09-01 21:45:47			0	37243	0	0	0	28953	27580	156562	27177	1078597	47017	110762	0	0	8074	571718	0	0
2024-09-01 21:46:47			0	37231	0	0	0	28945	27560	156618	27223	1078570	47027	110759	0	0	8073	572261	0	0
2024-09-01 21:47:47			0	37227	0	0	0	28945	27570	156614	27111	1078615	47017	110759	0	0	8073	572387	0	0
2024-09-01 21:48:47			0	37222	0	0	0	28953	27570	156578	27258	1078552	47027	110762	0	0	8072	572586	0	0
2024-09-01 21:49:47			0	37229	0	0	0	28948	27560	156566	27248	1078570	47038	110760	0	0	8073	572341	0	0
2024-09-01 21:50:47			0	37254	0	0	0	28950	27570	156474	27170	1078525	47016	110761	0	0	8074	571314	0	0
2024-09-01 21:51:47			0	37272	0	0	0	28955	27570	156450	27062	1078606	47027	110763	0	0	8075	570600	0	0
2024-09-01 21:52:47			0	37276	0	0	0	28945	27560	156414	26850	1078561	47026	110759	0	0	8076	570474	0	0
2024-09-01 21:53:47			0	37259	0	0	0	28948	27560	156342	27237	1078543	47027	110760	0	0	8075	571149	0	0
2024-09-01 21:54:47			0	37273	0	0	0	28940	27560	156290	27088	1078534	47015	110757	0	0	8076	570593	0	0
2024-09-01 21:55:47			0	37277	0	0	0	28935	27550	156322	27039	1078471	47015	110755	0	0	8076	570467	0	0
2024-09-01 21:56:47			0	37269	0	0	0	28929	27560	156278	27003	1078534	47037	110753	0	0	8075	570752	0	0
2024-09-01 21:57:47			0	37276	0	0	0	28927	27550	156314	27176	1078516	47014	110752	0	0	8076	570507	0	0
2024-09-01 21:58:47			0	37296	0	0	0	28919	27550	156270	27235	1078444	47015	110749	0	0	8077	569713	0	0
2024-09-01 21:59:47			0	37301	0	0	0	28919	27550	156318	27154	1078417	47037	110749	0	0	8077	569515	0	0
2024-09-01 22:00:47			0	37325	0	0	0	28911	27540	156279	26871	1078390	47013	110746	0	0	8079	568597	0	0
2024-09-01 22:01:47			0	37300	0	0	0	28911	27540	156258	27149	1078399	47025	110746	0	0	8077	569588	0	0
2024-09-01 22:02:47			0	37295	0	0	0	28914	27540	156246	27140	1078417	47013	110747	0	0	8077	569786	0	0
2024-09-01 22:03:47			0	37330	0	0	0	28903	27540	156211	27255	1078426	47025	110743	0	0	8079	568399	0	0
2024-09-01 22:04:47			0	37328	0	0	0	28903	27530	156251	27066	1078327	47024	110743	0	0	8079	568511	0	0
2024-09-01 22:05:47			0	37320	0	0	0	28888	27530	156159	27107	1078327	47024	110737	0	0	8079	568828	0	0
2024-09-01 22:06:47			0	37329	0	0	0	28867	27520	156179	27258	1078308	47011	110729	0	0	8080	568504	0	0
2024-09-01 22:07:47			0	37360	0	0	0	28854	27530	156051	26776	1078183	47023	110724	0	0	8082	567245	0	0
2024-09-01 22:08:47			0	37368	0	0	0	28851	27510	156091	27114	1078210	46988	110723	0	0	8082	566994	0	0
2024-09-01 22:09:47			0	37341	0	0	0	28836	27510	156111	27176	1078138	47000	110717	0	0	8081	568062	0	0
2024-09-01 22:10:47			0	37362	0	0	0	28836	27500	156163	27052	1078147	47010	110717	0	0	8082	567264	0	0
2024-09-01 22:11:47			0	37346	0	0	0	28833	27490	156131	27296	1078048	47020	110716	0	0	8081	567929	0	0
2024-09-01 22:12:47			0	37355	0	0	0	28846	27480	156195	27017	1078047	47029	110721	0	0	8082	567606	0	0
2024-09-01 22:13:47			0	37335	0	0	0	28857	27480	156143	27178	1078030	47030	110725	0	0	8080	568398	0	0
2024-09-01 22:14:47			0	37346	0	0	0	28872	27480	156243	27171	1078056	47030	110731	0	0	8081	567962	0	0
2024-09-01 22:15:47			0	37347	0	0	0	28875	27480	156199	27015	1078074	47029	110732	0	0	8081	567923	0	0
2024-09-01 22:16:47			0	37364	0	0	0	28877	27480	156135	27029	1078101	47018	110733	0	0	8082	567250	0	0
2024-09-01 22:17:47			0	37346	0	0	0	28880	27480	156135	26663	1078056	47019	110734	0	0	8080	567962	0	0
2024-09-01 22:18:47			0	37376	0	0	0	28875	27480	156095	27346	1078074	47029	110732	0	0	8082	566776	0	0
2024-09-01 22:19:47			0	37377	0	0	0	28877	27470	156075	26781	1078065	47029	110733	0	0	8082	566769	0	0
2024-09-01 22:20:47			0	37376	0	0	0	28875	27490	156135	26781	1078146	47007	110732	0	0	8082	566743	0	0
2024-09-01 22:21:47			0	37382	0	0	0	28877	27480	156199	27114	1078137	47019	110733	0	0	8083	566539	0	0
2024-09-01 22:22:47			0	37370	0	0	0	28862	27480	156099	27050	1078128	47029	110727	0	0	8082	567013	0	0
2024-09-01 22:23:47			0	37385	0	0	0	28867	27470	156135	27112	1078065	47018	110729	0	0	8083	566453	0	0
2024-09-01 22:24:47			0	37376	0	0	0	28859	27480	156051	27225	1078074	47018	110726	0	0	8083	566776	0	0
2024-09-01 22:25:47			0	37378	0	0	0	28862	27470	156167	27144	1077958	47018	110727	0	0	8083	566730	0	0
2024-09-01 22:26:47			0	37380	0	0	0	28857	27480	156131	27102	1078074	47029	110725	0	0	8083	566618	0	0
2024-09-01 22:27:47			0	37364	0	0	0	28862	27470	156039	27182	1078056	47017	110727	0	0	8082	567283	0	0
2024-09-01 22:28:47			0	37383	0	0	0	28854	27470	156071	27183	1078056	47006	110724	0	0	8083	566532	0	0
2024-09-01 22:29:47			0	37381	0	0	0	28857	27460	156111	27152	1078011	47016	110725	0	0	8083	566643	0	0
2024-09-01 22:30:47			0	37354	0	0	0	28857	27460	156039	26847	1078020	47039	110725	0	0	8081	567711	0	0
2024-09-01 22:31:47			0	37364	0	0	0	28857	27470	156083	27133	1078083	47040	110725	0	0	8082	567283	0	0
2024-09-01 22:32:47			0	37353	0	0	0	28854	27470	156087	27128	1078002	47017	110724	0	0	8081	567718	0	0
2024-09-01 22:33:47			0	37372	0	0	0	28854	27450	156091	27079	1078056	47027	110724	0	0	8082	567032	0	0
2024-09-01 22:34:47			0	37362	0	0	0	28857	27460	156099	27090	1077957	47005	110725	0	0	8082	567394	0	0
2024-09-01 22:35:47			0	37371	0	0	0	28849	27460	156055	26949	1078020	47016	110722	0	0	8082	567039	0	0
2024-09-01 22:36:47			0	37376	0	0	0	28851	27450	156111	26809	1077966	47038	110723	0	0	8082	566874	0	0
2024-09-01 22:37:47			0	37367	0	0	0	28854	27460	156151	27088	1078011	47027	110724	0	0	8082	567197	0	0
2024-09-01 22:38:47			0	37372	0	0	0	28849	27460	156179	27027	1077993	47027	110722	0	0	8082	566999	0	0
2024-09-01 22:39:47			0	37348	0	0	0	28851	27460	156127	27154	1077957	47005	110723	0	0	8081	567948	0	0
2024-09-01 22:40:47			0	37371	0	0	0	28851	27460	156151	27137	1077984	47016	110723	0	0	8082	567039	0	0
2024-09-01 22:41:47			0	37383	0	0	0	28849	27450	156071	26885	1077975	47027	110722	0	0	8083	566597	0	0
2024-09-01 22:42:47			0	37348	0	0	0	28851	27460	156131	27241	1077957	47016	110723	0	0	8081	567948	0	0
2024-09-01 22:43:47			0	37373	0	0	0	28844	27450	156015	27182	1077921	47027	110720	0	0	8082	566992	0	0
2024-09-01 22:44:47			0	37379	0	0	0	28836	27450	156067	27123	1077939	47015	110717	0	0	8083	566755	0	0
2024-09-01 22:45:47			0	37378	0	0	0	28841	27450	156135	27130	1077939	47026	110719	0	0	8083	566795	0	0
2024-09-01 22:46:47			0	37374	0	0	0	28841	27450	156179	27358	1077948	47027	110719	0	0	8083	566953	0	0
2024-09-01 22:47:47			0	37365	0	0	0	28841	27450	156247	27048	1077975	47027	110719	0	0	8082	567308	0	0
2024-09-01 22:48:47			0	37357	0	0	0	28846	27440	156147	27039	1077957	47014	110721	0	0	8081	567658	0	0
2024-09-01 22:49:47			0	37351	0	0	0	28841	27440	156191	27144	1077903	47014	110719	0	0	8081	567895	0	0
2024-09-01 22:50:47			0	37348	0	0	0	28836	27450	156191	27286	1077939	47038	110717	0	0	8081	567981	0	0
2024-09-01 22:51:47			0	37336	0	0	0	28838	27450	156207	26909	1077939	47026	110718	0	0	8080	568456	0	0
2024-09-01 22:52:47			0	37345	0	0	0	28841	27450	156283	27194	1077939	47003	110719	0	0	8081	568100	0	0
2024-09-01 22:53:47			0	37336	0	0	0	28831	27450	156243	27145	1077939	47003	110715	0	0	8081	568456	0	0
2024-09-01 22:54:47			0	37332	0	0	0	28838	27440	156259	26774	1077849	47014	110718	0	0	8080	568647	0	0
2024-09-01 22:55:47			0	37324	0	0	0	28833	27450	156347	26861	1077921	47016	110716	0	0	8080	568931	0	0
2024-09-01 22:56:47			0	37313	0	0	0	28833	27440	156394	27215	1077957	47014	110716	0	0	8079	569400	0	0
2024-09-01 22:57:47			0	37308	0	0	0	28831	27440	156310	26816	1077849	47025	110715	0	0	8079	569598	0	0
2024-09-01 22:58:47			0	37293	0	0	0	28825	27440	156474	27410	1077840	47025	110713	0	0	8078	570193	0	0
2024-09-01 22:59:47			0	37276	0	0	0	28831	27430	156546	27130	1077930	47024	110715	0	0	8077	570900	0	0
2024-09-01 23:00:47			0	37265	0	0	0	28831	27440	156578	26934	1077921	47037	110715	0	0	8076	571305	0	0
2024-09-01 23:01:47			0	37247	0	0	0	28823	27440	156602	27119	1077867	47025	110712	0	0	8075	572020	0	0
2024-09-01 23:02:47			0	37243	0	0	0	28828	27440	156686	27220	1077867	47025	110714	0	0	8075	572179	0	0
2024-09-01 23:03:47			0	37221	0	0	0	28831	27440	156642	27145	1077903	47014	110715	0	0	8074	573054	0	0
2024-09-01 23:04:47			0	37216	0	0	0	28825	27430	156802	27218	1077822	47013	110713	0	0	8074	573286	0	0
2024-09-01 23:05:47			0	37220	0	0	0	28833	27430	156846	27364	1077885	47037	110716	0	0	8074	573127	0	0
2024-09-01 23:06:47			0	37184	0	0	0	28825	27430	156830	26993	1077849	47036	110713	0	0	8072	574561	0	0
2024-09-01 23:07:47			0	37187	0	0	0	28833	27430	156894	27270	1077876	47013	110716	0	0	8072	574442	0	0
2024-09-01 23:08:47			0	37188	0	0	0	28836	27440	156990	27114	1077867	47014	110717	0	0	8072	574369	0	0
2024-09-01 23:09:47			0	37173	0	0	0	28825	27430	156966	26856	1077858	47025	110713	0	0	8071	575000	0	0
2024-09-01 23:10:47			0	37159	0	0	0	28831	27430	156994	26956	1077804	47025	110715	0	0	8070	575559	0	0
2024-09-01 23:11:47			0	37166	0	0	0	28833	27430	157026	27144	1077822	47024	110716	0	0	8070	575279	0	0
2024-09-01 23:12:47			0	37158	0	0	0	28836	27430	157078	27176	1077849	47024	110717	0	0	8070	575599	0	0
2024-09-01 23:13:47			0	37120	0	0	0	28828	27430	157086	27182	1077849	47001	110714	0	0	8068	577117	0	0
2024-09-01 23:14:47			0	37143	0	0	0	28831	27430	157262	27189	1077831	47037	110715	0	0	8069	576198	0	0
2024-09-01 23:15:47			0	37099	0	0	0	28825	27430	157242	27060	1077858	47025	110713	0	0	8067	577957	0	0
2024-09-01 23:16:47			0	37120	0	0	0	28828	27430	157326	27175	1077849	47001	110714	0	0	8068	577117	0	0
2024-09-01 23:17:47			0	37107	0	0	0	28833	27430	157182	27055	1077822	47001	110716	0	0	8067	577637	0	0
2024-09-01 23:18:47			0	37080	0	0	0	28823	27420	157282	27081	1077840	47023	110712	0	0	8066	578751	0	0
2024-09-01 23:19:47			0	37087	0	0	0	28818	27430	157354	27045	1077822	47024	110710	0	0	8066	578438	0	0
2024-09-01 23:20:47			0	37072	0	0	0	28823	27430	157482	27124	1077822	47024	110712	0	0	8065	579039	0	0
2024-09-01 23:21:47			0	37060	0	0	0	28818	27420	157362	26955	1077750	47035	110710	0	0	8064	579553	0	0
2024-09-01 23:22:47			0	37066	0	0	0	28831	27420	157422	27007	1077813	47023	110715	0	0	8065	579313	0	0
2024-09-01 23:23:47			0	37016	0	0	0	28818	27420	157662	27059	1077831	47000	110710	0	0	8062	581320	0	0
2024-09-01 23:24:47			0	36970	0	0	0	28812	27430	157746	27232	1077768	47013	110708	0	0	8059	583137	0	0
2024-09-01 23:25:47			0	36924	0	0	0	28812	27410	157934	27027	1077822	47011	110708	0	0	8056	585059	0	0
2024-09-01 23:26:47			0	36917	0	0	0	28818	27430	158046	27291	1077795	47036	110710	0	0	8056	585274	0	0
2024-09-01 23:27:47			0	36885	0	0	0	28812	27410	158194	27348	1077795	47022	110708	0	0	8054	586634	0	0
2024-09-01 23:28:47			0	36877	0	0	0	28812	27420	158342	27064	1077750	47000	110708	0	0	8054	586924	0	0
2024-09-01 23:29:47			0	36850	0	0	0	28810	27420	158366	27083	1077759	47023	110707	0	0	8052	588017	0	0
2024-09-01 23:30:47			0	36834	0	0	0	28807	27420	158410	27308	1077750	47012	110706	0	0	8051	588665	0	0
2024-09-01 23:31:47			0	36809	0	0	0	28807	27410	158446	27090	1077741	47011	110706	0	0	8050	589713	0	0
2024-09-01 23:32:47			0	36808	0	0	0	28807	27420	158570	27279	1077804	47023	110706	0	0	8050	589719	0	0
2024-09-01 23:33:47			0	36790	0	0	0	28802	27410	158474	27357	1077768	47022	110704	0	0	8049	590484	0	0
2024-09-01 23:34:47			0	36782	0	0	0	28797	27410	158626	27281	1077768	47022	110702	0	0	8048	590809	0	0
2024-09-01 23:35:47			0	36794	0	0	0	28789	27410	158654	27088	1077759	47011	110699	0	0	8049	590322	0	0
2024-09-01 23:36:47			0	36770	0	0	0	28784	27420	158638	27140	1077750	47012	110697	0	0	8048	591263	0	0
2024-09-01 23:37:47			0	36760	0	0	0	28779	27390	158670	27388	1077705	47009	110695	0	0	8047	591771	0	0
2024-09-01 23:38:47			0	36749	0	0	0	28789	27410	158698	27161	1077705	47000	110699	0	0	8047	592151	0	0
2024-09-01 23:39:47			0	36767	0	0	0	28792	27400	158714	27189	1077714	47032	110700	0	0	8048	591453	0	0
2024-09-01 23:40:47			0	36771	0	0	0	28784	27410	158646	27128	1077624	47011	110697	0	0	8048	591256	0	0
2024-09-01 23:41:47			0	36770	0	0	0	28784	27400	158606	27334	1077687	47009	110697	0	0	8048	591331	0	0
2024-09-01 23:42:47			0	36775	0	0	0	28786	27390	158654	27086	1077678	47020	110698	0	0	8048	591161	0	0
2024-09-01 23:43:47			0	36771	0	0	0	28781	27390	158618	27039	1077651	47020	110696	0	0	8048	591324	0	0
2024-09-01 23:44:47			0	36792	0	0	0	28771	27390	158606	27109	1077597	47009	110692	0	0	8049	590471	0	0
2024-09-01 23:45:47			0	36793	0	0	0	28776	27370	158586	27312	1077614	47018	110694	0	0	8049	590498	0	0
2024-09-01 23:46:47			0	36784	0	0	0	28774	27390	158606	26915	1077615	47020	110693	0	0	8049	590796	0	0
2024-09-01 23:47:47			0	36782	0	0	0	28774	27380	158582	27227	1077624	47007	110693	0	0	8049	590911	0	0
2024-09-01 23:48:47			0	36776	0	0	0	28774	27380	158598	27001	1077624	47030	110693	0	0	8048	591155	0	0
2024-09-01 23:49:47			0	36796	0	0	0	28774	27390	158618	27235	1077642	47009	110693	0	0	8049	590308	0	0
2024-09-01 23:50:47			0	36791	0	0	0	28771	27370	158546	27010	1077588	47030	110692	0	0	8049	590579	0	0
2024-09-01 23:51:47			0	36797	0	0	0	28779	27370	158558	27116	1077605	47007	110695	0	0	8049	590336	0	0
2024-09-01 23:52:47			0	36803	0	0	0	28763	27370	158546	27258	1077534	47030	110689	0	0	8050	590092	0	0
2024-09-01 23:53:47			0	36789	0	0	0	28774	27370	158586	27209	1077588	47018	110693	0	0	8049	590660	0	0
2024-09-01 23:54:47			0	36800	0	0	0	28766	27380	158562	27026	1077624	47007	110690	0	0	8050	590180	0	0
2024-09-01 23:55:47			0	36818	0	0	0	28763	27370	158518	26925	1077588	47018	110689	0	0	8051	589483	0	0
2024-09-01 23:56:47			0	36799	0	0	0	28768	27370	158522	26972	1077471	47018	110691	0	0	8050	590254	0	0
2024-09-01 23:57:47			0	36811	0	0	0	28763	27380	158522	26876	1077543	47018	110689	0	0	8051	589733	0	0
2024-09-01 23:58:47			0	36797	0	0	0	28755	27360	158450	27102	1077489	47017	110686	0	0	8050	590369	0	0
2024-09-01 23:59:47			0	36802	0	0	0	28768	27370	158550	26882	1077588	46996	110691	0	0	8050	590133	0	0
2024-09-02 00:00:47			0	36803	0	0	0	28758	27370	158450	27128	1077507	47018	110687	0	0	8050	590092	0	0
2024-09-02 00:01:47			0	36813	0	0	0	28748	27370	158394	27190	1077525	47007	110683	0	0	8051	589686	0	0
2024-09-02 00:02:47			0	36809	0	0	0	28753	27360	158530	27121	1077543	47017	110685	0	0	8050	589882	0	0
2024-09-02 00:03:47			0	36807	0	0	0	28758	27370	158518	26868	1077605	47018	110687	0	0	8050	589930	0	0
2024-09-02 00:04:47			0	36800	0	0	0	28753	27360	158618	26793	1077560	47028	110685	0	0	8050	590248	0	0
2024-09-02 00:05:47			0	36798	0	0	0	28750	27360	158502	26864	1077453	46994	110684	0	0	8050	590329	0	0
2024-09-02 00:06:47			0	36793	0	0	0	28745	27350	158562	27197	1077524	47016	110682	0	0	8050	590566	0	0
2024-09-02 00:07:47			0	36788	0	0	0	28745	27350	158450	27022	1077497	47016	110682	0	0	8049	590769	0	0
2024-09-02 00:08:47			0	36797	0	0	0	28748	27360	158530	26849	1077480	47028	110683	0	0	8050	590369	0	0
2024-09-02 00:09:47			0	36802	0	0	0	28750	27360	158622	27048	1077462	47006	110684	0	0	8050	590166	0	0
2024-09-02 00:10:47			0	36784	0	0	0	28755	27360	158502	27121	1077516	47017	110686	0	0	8049	590898	0	0
2024-09-02 00:11:47			0	36800	0	0	0	28753	27360	158534	26958	1077560	47016	110685	0	0	8050	590248	0	0
2024-09-02 00:12:47			0	36804	0	0	0	28745	27360	158514	27267	1077507	47028	110682	0	0	8050	590085	0	0
2024-09-02 00:13:47			0	36803	0	0	0	28745	27350	158398	26857	1077497	47016	110682	0	0	8050	590160	0	0
2024-09-02 00:14:47			0	36806	0	0	0	28740	27350	158462	27085	1077462	47016	110680	0	0	8050	590038	0	0
2024-09-02 00:15:47			0	36798	0	0	0	28742	27350	158362	27154	1077462	47028	110681	0	0	8050	590363	0	0
2024-09-02 00:16:47			0	36802	0	0	0	28740	27350	158394	27116	1077462	46994	110680	0	0	8050	590200	0	0
2024-09-02 00:17:47			0	36806	0	0	0	28737	27340	158434	27090	1077479	47004	110679	0	0	8050	590072	0	0
2024-09-02 00:18:47			0	36826	0	0	0	28729	27340	158354	26968	1077426	47015	110676	0	0	8052	589260	0	0
2024-09-02 00:19:47			0	36805	0	0	0	28729	27340	158354	27079	1077399	47015	110676	0	0	8051	590112	0	0
2024-09-02 00:20:47			0	36803	0	0	0	28722	27340	158326	26797	1077426	47026	110673	0	0	8051	590194	0	0
2024-09-02 00:21:47			0	36839	0	0	0	28732	27340	158366	26911	1077390	47014	110677	0	0	8052	588733	0	0
2024-09-02 00:22:47			0	36822	0	0	0	28727	27340	158402	27102	1077390	47014	110675	0	0	8052	589423	0	0
2024-09-02 00:23:47			0	36819	0	0	0	28729	27340	158422	26859	1077452	47004	110676	0	0	8051	589544	0	0
2024-09-02 00:24:47			0	36814	0	0	0	28729	27330	158326	26805	1077398	46991	110676	0	0	8051	589781	0	0
2024-09-02 00:25:47			0	36832	0	0	0	28735	27340	158338	27300	1077426	47015	110678	0	0	8052	589017	0	0
2024-09-02 00:26:47			0	36821	0	0	0	28727	27340	158334	26831	1077416	47025	110675	0	0	8052	589463	0	0
2024-09-02 00:27:47			0	36813	0	0	0	28732	27330	158386	27039	1077327	47024	110677	0	0	8051	589822	0	0
2024-09-02 00:28:47			0	36834	0	0	0	28727	27330	158314	27020	1077318	47002	110675	0	0	8052	588970	0	0
2024-09-02 00:29:47			0	36828	0	0	0	28732	27330	158326	27081	1077380	47002	110677	0	0	8052	589213	0	0
2024-09-02 00:30:47			0	36823	0	0	0	28724	27320	158366	26944	1077300	47001	110674	0	0	8052	589450	0	0
2024-09-02 00:31:47			0	36842	0	0	0	28719	27330	158330	27008	1077300	47013	110672	0	0	8053	588645	0	0
2024-09-02 00:32:47			0	36826	0	0	0	28709	27330	158378	26764	1077345	47002	110668	0	0	8052	589294	0	0
2024-09-02 00:33:47			0	36830	0	0	0	28716	27320	158250	27013	1077309	47024	110671	0	0	8052	589166	0	0
2024-09-02 00:34:47			0	36828	0	0	0	28722	27330	158230	26679	1077354	47013	110673	0	0	8052	589213	0	0
2024-09-02 00:35:47			0	36840	0	0	0	28711	27320	158254	27150	1077326	47001	110669	0	0	8053	588760	0	0
2024-09-02 00:36:47			0	36835	0	0	0	28722	27320	158326	27050	1077362	47024	110673	0	0	8052	588963	0	0
2024-09-02 00:37:47			0	36849	0	0	0	28714	27310	158222	27071	1077344	47011	110670	0	0	8053	588429	0	0
2024-09-02 00:38:47			0	36846	0	0	0	28701	27320	158226	26925	1077326	47012	110665	0	0	8053	588517	0	0
2024-09-02 00:39:47			0	36840	0	0	0	28711	27310	158290	26802	1077281	47000	110669	0	0	8053	588794	0	0
2024-09-02 00:40:47			0	36848	0	0	0	28703	27310	158246	27168	1077228	47034	110666	0	0	8053	588470	0	0
2024-09-02 00:41:47			0	36848	0	0	0	28701	27310	158210	26911	1077317	47011	110665	0	0	8053	588470	0	0
2024-09-02 00:42:47			0	36850	0	0	0	28701	27300	158174	27248	1077245	47011	110665	0	0	8053	588423	0	0
2024-09-02 00:43:47			0	36854	0	0	0	28698	27310	158230	27289	1077281	47022	110664	0	0	8054	588227	0	0
2024-09-02 00:44:47			0	36846	0	0	0	28701	27310	158194	27206	1077308	47000	110665	0	0	8053	588551	0	0
2024-09-02 00:45:47			0	36853	0	0	0	28703	27300	158182	26896	1077209	47010	110666	0	0	8054	588301	0	0
2024-09-02 00:46:47			0	36853	0	0	0	28703	27310	158266	26960	1077281	47022	110666	0	0	8054	588267	0	0
2024-09-02 00:47:47			0	36861	0	0	0	28698	27300	158214	27229	1077272	47011	110664	0	0	8054	587977	0	0
2024-09-02 00:48:47			0	36856	0	0	0	28696	27300	158274	26965	1077245	47022	110663	0	0	8054	588179	0	0
2024-09-02 00:49:47			0	36854	0	0	0	28690	27290	158278	26849	1077254	46999	110661	0	0	8054	588294	0	0
2024-09-02 00:50:47			0	36879	0	0	0	28690	27300	158294	27176	1077219	47011	110661	0	0	8055	587248	0	0
2024-09-02 00:51:47			0	36860	0	0	0	28696	27300	158150	27173	1077245	47011	110663	0	0	8054	588017	0	0
2024-09-02 00:52:47			0	36849	0	0	0	28685	27300	158310	27258	1077183	47010	110659	0	0	8054	588463	0	0
2024-09-02 00:53:47			0	36868	0	0	0	28690	27290	158298	26986	1077137	47009	110661	0	0	8055	587727	0	0
2024-09-02 00:54:47			0	36869	0	0	0	28688	27290	158206	26908	1077173	47009	110660	0	0	8055	587687	0	0
2024-09-02 00:55:47			0	36871	0	0	0	28670	27290	158294	27043	1077164	46999	110653	0	0	8055	587606	0	0
2024-09-02 00:56:47			0	36865	0	0	0	28680	27300	158266	27279	1077156	47000	110657	0	0	8055	587815	0	0
2024-09-02 00:57:47			0	36867	0	0	0	28680	27270	158234	27069	1077110	47007	110657	0	0	8055	587835	0	0
2024-09-02 00:58:47			0	36869	0	0	0	28680	27280	158186	27190	1077146	46998	110657	0	0	8055	587720	0	0
2024-09-02 00:59:47			0	36871	0	0	0	28672	27270	158214	27041	1077029	46997	110654	0	0	8055	587673	0	0
2024-09-02 01:00:47			0	36866	0	0	0	28664	27280	158190	27175	1077065	47008	110651	0	0	8055	587842	0	0
2024-09-02 01:01:47			0	36874	0	0	0	28677	27280	158234	26984	1077092	46986	110656	0	0	8055	587518	0	0
2024-09-02 01:02:47			0	36874	0	0	0	28677	27280	158206	26956	1077119	46998	110656	0	0	8055	587518	0	0
2024-09-02 01:03:47			0	36881	0	0	0	28675	27280	158218	27308	1077092	47031	110655	0	0	8056	587234	0	0
2024-09-02 01:04:47			0	36867	0	0	0	28672	27280	158282	26996	1077101	47032	110654	0	0	8055	587801	0	0
2024-09-02 01:05:47			0	36875	0	0	0	28675	27270	158298	27232	1077110	46997	110655	0	0	8055	587511	0	0
2024-09-02 01:06:47			0	36869	0	0	0	28675	27280	158210	26863	1077119	47008	110655	0	0	8055	587720	0	0
2024-09-02 01:07:47			0	36865	0	0	0	28672	27280	158190	26896	1077119	47008	110654	0	0	8055	587882	0	0
2024-09-02 01:08:47			0	36880	0	0	0	28677	27270	158230	27168	1077110	47007	110656	0	0	8055	587309	0	0
2024-09-02 01:09:47			0	36884	0	0	0	28672	27280	158186	27229	1077155	47009	110654	0	0	8056	587113	0	0
2024-09-02 01:10:47			0	36880	0	0	0	28675	27270	158374	27066	1077137	47007	110655	0	0	8056	587309	0	0
2024-09-02 01:11:47			0	36891	0	0	0	28664	27270	158266	27045	1077056	47007	110651	0	0	8056	586864	0	0
2024-09-02 01:12:47			0	36895	0	0	0	28675	27280	158306	27291	1077074	47009	110655	0	0	8056	586668	0	0
2024-09-02 01:13:47			0	36889	0	0	0	28675	27260	158226	27060	1077038	47017	110655	0	0	8056	586978	0	0
2024-09-02 01:14:47			0	36904	0	0	0	28670	27270	158362	27076	1077047	46996	110653	0	0	8057	586338	0	0
2024-09-02 01:15:47			0	36901	0	0	0	28664	27260	158234	27102	1077038	47006	110651	0	0	8057	586493	0	0
2024-09-02 01:16:47			0	36893	0	0	0	28670	27270	158230	27336	1077101	47017	110653	0	0	8056	586783	0	0
2024-09-02 01:17:47			0	36908	0	0	0	28662	27270	158230	26939	1077047	47006	110650	0	0	8057	586176	0	0
2024-09-02 01:18:47			0	36897	0	0	0	28662	27270	158190	27246	1077020	47017	110650	0	0	8057	586621	0	0
2024-09-02 01:19:47			0	36911	0	0	0	28662	27260	158238	26783	1077011	46996	110650	0	0	8058	586088	0	0
2024-09-02 01:20:47			0	36902	0	0	0	28662	27270	158154	27223	1077101	47006	110650	0	0	8057	586419	0	0
2024-09-02 01:21:47			0	36907	0	0	0	28646	27250	158158	27107	1077047	46995	110644	0	0	8058	586284	0	0
2024-09-02 01:22:47			0	36903	0	0	0	28649	27260	158086	27053	1076975	46984	110645	0	0	8057	586412	0	0
2024-09-02 01:23:47			0	36913	0	0	0	28644	27270	158050	27090	1077020	46996	110643	0	0	8058	585974	0	0
2024-09-02 01:24:47			0	36940	0	0	0	28646	27260	157962	26667	1077056	46996	110644	0	0	8060	584917	0	0
2024-09-02 01:25:47			0	36938	0	0	0	28638	27250	158030	27112	1076993	47005	110641	0	0	8059	585031	0	0
2024-09-02 01:26:47			0	36933	0	0	0	28644	27250	158038	27062	1076984	47004	110643	0	0	8059	585233	0	0
2024-09-02 01:27:47			0	36913	0	0	0	28636	27260	158014	27150	1076957	47006	110640	0	0	8058	586008	0	0
2024-09-02 01:28:47			0	36934	0	0	0	28633	27240	158074	26854	1076948	46994	110639	0	0	8059	585227	0	0
2024-09-02 01:29:47			0	36933	0	0	0	28638	27240	158010	27100	1076894	46982	110641	0	0	8059	585267	0	0
2024-09-02 01:30:47			0	36926	0	0	0	28633	27240	158022	26975	1076921	47015	110639	0	0	8059	585550	0	0
2024-09-02 01:31:47			0	36941	0	0	0	28636	27240	158030	27305	1076921	47015	110640	0	0	8060	584944	0	0
2024-09-02 01:32:47			0	36937	0	0	0	28631	27250	157906	27265	1076957	46994	110638	0	0	8060	585072	0	0
2024-09-02 01:33:47			0	36960	0	0	0	28636	27240	157990	27024	1076831	46994	110640	0	0	8061	584177	0	0
2024-09-02 01:34:47			0	36957	0	0	0	28633	27240	158042	27203	1076894	46994	110639	0	0	8061	584298	0	0
2024-09-02 01:35:47			0	36936	0	0	0	28631	27240	157926	27001	1076894	47015	110638	0	0	8059	585146	0	0
2024-09-02 01:36:47			0	36926	0	0	0	28633	27240	158038	27130	1076858	47004	110639	0	0	8059	585550	0	0
2024-09-02 01:37:47			0	36953	0	0	0	28623	27240	157966	26942	1076894	47015	110635	0	0	8061	584460	0	0
2024-09-02 01:38:47			0	36924	0	0	0	28631	27230	158102	26908	1076822	46981	110638	0	0	8059	585664	0	0
2024-09-02 01:39:47			0	36923	0	0	0	28620	27230	158038	27312	1076822	46993	110634	0	0	8059	585704	0	0
2024-09-02 01:40:47			0	36926	0	0	0	28615	27230	158082	27163	1076786	46980	110632	0	0	8059	585583	0	0
2024-09-02 01:41:47			0	36925	0	0	0	28605	27220	158054	26779	1076831	47013	110628	0	0	8059	585657	0	0
2024-09-02 01:42:47			0	36922	0	0	0	28610	27220	158018	27086	1076858	47013	110630	0	0	8059	585778	0	0
2024-09-02 01:43:47			0	36921	0	0	0	28610	27230	158046	27388	1076813	47002	110630	0	0	8059	585785	0	0
2024-09-02 01:44:47			0	36919	0	0	0	28612	27220	158018	26930	1076777	47002	110631	0	0	8059	585900	0	0
2024-09-02 01:45:47			0	36944	0	0	0	28605	27230	158102	27149	1076786	47013	110628	0	0	8060	584856	0	0
2024-09-02 01:46:47			0	36914	0	0	0	28610	27210	158090	27279	1076813	46991	110630	0	0	8058	586135	0	0
2024-09-02 01:47:47			0	36930	0	0	0	28612	27210	157962	27131	1076795	46992	110631	0	0	8059	585489	0	0
2024-09-02 01:48:47			0	36922	0	0	0	28607	27210	157962	27140	1076705	47012	110629	0	0	8059	585812	0	0
2024-09-02 01:49:47			0	36923	0	0	0	28607	27210	157894	26996	1076795	47013	110629	0	0	8059	585772	0	0
2024-09-02 01:50:47			0	36929	0	0	0	28597	27210	158018	26824	1076795	47002	110625	0	0	8059	585529	0	0
2024-09-02 01:51:47			0	36929	0	0	0	28597	27210	158054	26918	1076741	47013	110625	0	0	8059	585529	0	0
2024-09-02 01:52:47			0	36929	0	0	0	28589	27210	158006	26691	1076741	47002	110622	0	0	8060	585529	0	0
2024-09-02 01:53:47			0	36930	0	0	0	28594	27200	157998	26951	1076687	47000	110624	0	0	8060	585522	0	0
2024-09-02 01:54:47			0	36932	0	0	0	28597	27200	158110	27287	1076723	46990	110625	0	0	8060	585442	0	0
2024-09-02 01:55:47			0	36930	0	0	0	28584	27190	158082	27163	1076651	46977	110620	0	0	8060	585556	0	0
2024-09-02 01:56:47			0	36927	0	0	0	28592	27190	158030	27234	1076642	47000	110623	0	0	8059	585677	0	0
2024-09-02 01:57:47			0	36936	0	0	0	28581	27190	158030	27317	1076723	46989	110619	0	0	8060	585314	0	0
2024-09-02 01:58:47			0	36934	0	0	0	28581	27190	158014	27098	1076615	46989	110619	0	0	8060	585395	0	0
2024-09-02 01:59:47			0	36924	0	0	0	28573	27190	158150	27270	1076642	47000	110616	0	0	8059	585799	0	0
2024-09-02 02:00:47			0	36925	0	0	0	28573	27190	158090	27220	1076615	47000	110616	0	0	8060	585758	0	0
2024-09-02 02:01:47			0	36931	0	0	0	28576	27190	158106	27118	1076624	46989	110617	0	0	8060	585516	0	0
2024-09-02 02:02:47			0	36935	0	0	0	28576	27190	158166	27317	1076615	47000	110617	0	0	8060	585354	0	0
2024-09-02 02:03:47			0	36917	0	0	0	28563	27180	158118	27398	1076606	46988	110612	0	0	8059	586115	0	0
2024-09-02 02:04:47			0	36924	0	0	0	28566	27180	158182	26981	1076633	46988	110613	0	0	8060	585832	0	0
2024-09-02 02:05:47			0	36930	0	0	0	28566	27180	158154	26854	1076633	46988	110613	0	0	8060	585590	0	0
2024-09-02 02:06:47			0	36933	0	0	0	28558	27180	158146	26871	1076624	46998	110610	0	0	8060	585469	0	0
2024-09-02 02:07:47			0	36934	0	0	0	28553	27170	158230	27281	1076588	47008	110608	0	0	8060	585462	0	0
2024-09-02 02:08:47			0	36927	0	0	0	28553	27170	158186	26854	1076534	46998	110608	0	0	8060	585745	0	0
2024-09-02 02:09:47			0	36920	0	0	0	28561	27170	158322	27235	1076534	46986	110611	0	0	8059	586028	0	0
2024-09-02 02:10:47			0	36925	0	0	0	28548	27160	158194	27367	1076462	46985	110606	0	0	8060	585859	0	0
2024-09-02 02:11:47			0	36916	0	0	0	28561	27160	158198	27012	1076462	46985	110611	0	0	8059	586223	0	0
2024-09-02 02:12:47			0	36899	0	0	0	28545	27170	158238	27175	1076498	46986	110605	0	0	8058	586877	0	0
2024-09-02 02:13:47			0	36906	0	0	0	28550	27160	158370	26873	1076507	47006	110607	0	0	8059	586627	0	0
2024-09-02 02:14:47			0	36887	0	0	0	28540	27160	158258	27138	1076462	46997	110603	0	0	8058	587396	0	0
2024-09-02 02:15:47			0	36898	0	0	0	28540	27150	158306	27282	1076498	46996	110603	0	0	8058	586985	0	0
2024-09-02 02:16:47			0	36891	0	0	0	28537	27150	158334	27312	1076444	46996	110602	0	0	8058	587268	0	0
2024-09-02 02:17:47			0	36884	0	0	0	28548	27150	158310	27208	1076444	46984	110606	0	0	8057	587552	0	0
2024-09-02 02:18:47			0	36895	0	0	0	28540	27150	158270	27020	1076498	46996	110603	0	0	8058	587106	0	0
2024-09-02 02:19:47			0	36893	0	0	0	28548	27150	158258	27163	1076444	47006	110606	0	0	8058	587187	0	0
2024-09-02 02:20:47			0	36887	0	0	0	28542	27150	158354	27230	1076498	46996	110604	0	0	8058	587430	0	0
2024-09-02 02:21:47			0	36900	0	0	0	28535	27130	158278	27341	1076435	46994	110601	0	0	8058	586971	0	0
2024-09-02 02:22:47			0	36881	0	0	0	28540	27150	158374	27107	1076408	46973	110603	0	0	8057	587673	0	0
2024-09-02 02:23:47			0	36888	0	0	0	28537	27140	158302	27175	1076390	46994	110602	0	0	8058	587423	0	0
2024-09-02 02:24:47			0	36877	0	0	0	28542	27140	158310	27071	1076417	47004	110604	0	0	8057	587869	0	0
2024-09-02 02:25:47			0	36865	0	0	0	28540	27140	158370	27055	1076506	46984	110603	0	0	8056	588355	0	0
2024-09-02 02:26:47			0	36874	0	0	0	28529	27140	158422	27223	1076426	46984	110599	0	0	8057	587990	0	0
2024-09-02 02:27:47			0	36865	0	0	0	28532	27140	158390	27159	1076345	46984	110600	0	0	8056	588355	0	0
2024-09-02 02:28:47			0	36871	0	0	0	28522	27140	158314	26831	1076399	46995	110596	0	0	8057	588112	0	0
2024-09-02 02:29:47			0	36867	0	0	0	28524	27140	158414	26781	1076372	47005	110597	0	0	8057	588274	0	0
2024-09-02 02:30:47			0	36863	0	0	0	28509	27140	158362	27072	1076336	46982	110591	0	0	8057	588436	0	0
2024-09-02 02:31:47			0	36874	0	0	0	28511	27140	158522	27074	1076345	46995	110592	0	0	8057	587990	0	0
2024-09-02 02:32:47			0	36865	0	0	0	28519	27130	158426	27071	1076381	47004	110595	0	0	8057	588389	0	0
2024-09-02 02:33:47			0	36867	0	0	0	28509	27130	158434	27079	1076300	46994	110591	0	0	8057	588308	0	0
2024-09-02 02:34:47			0	36853	0	0	0	28503	27130	158426	27229	1076318	46993	110589	0	0	8056	588875	0	0
2024-09-02 02:35:47			0	36839	0	0	0	28511	27120	158458	27367	1076336	46993	110592	0	0	8055	589477	0	0
2024-09-02 02:36:47			0	36853	0	0	0	28511	27120	158442	26996	1076246	46980	110592	0	0	8056	588909	0	0
2024-09-02 02:37:47			0	36856	0	0	0	28509	27120	158438	27078	1076309	47003	110591	0	0	8056	588788	0	0
2024-09-02 02:38:47			0	36861	0	0	0	28506	27120	158426	26788	1076246	46980	110590	0	0	8057	588585	0	0
2024-09-02 02:39:47			0	36858	0	0	0	28506	27120	158446	27249	1076255	46981	110590	0	0	8056	588706	0	0
2024-09-02 02:40:47			0	36852	0	0	0	28501	27120	158450	27171	1076273	46969	110588	0	0	8056	588950	0	0
2024-09-02 02:41:47			0	36838	0	0	0	28496	27120	158554	27118	1076219	46980	110586	0	0	8055	589518	0	0
2024-09-02 02:42:47			0	36833	0	0	0	28503	27120	158466	27213	1076255	46993	110589	0	0	8055	589721	0	0
2024-09-02 02:43:47			0	36851	0	0	0	28498	27110	158326	27232	1076201	46991	110587	0	0	8056	589024	0	0
2024-09-02 02:44:47			0	36858	0	0	0	28498	27120	158438	27196	1076246	46992	110587	0	0	8057	588706	0	0
2024-09-02 02:45:47			0	36849	0	0	0	28501	27120	158474	26953	1076246	46992	110588	0	0	8056	589071	0	0
2024-09-02 02:46:47			0	36839	0	0	0	28485	27100	158426	26866	1076210	46990	110582	0	0	8056	589545	0	0
2024-09-02 02:47:47			0	36847	0	0	0	28501	27100	158546	27130	1076129	46978	110588	0	0	8056	589220	0	0
2024-09-02 02:48:47			0	36836	0	0	0	28488	27110	158490	26960	1076147	46991	110583	0	0	8055	589633	0	0
2024-09-02 02:49:47			0	36812	0	0	0	28475	27110	158466	27130	1076174	46991	110578	0	0	8054	590608	0	0
2024-09-02 02:50:47			0	36834	0	0	0	28470	27090	158518	26944	1076147	47000	110576	0	0	8055	589782	0	0
2024-09-02 02:51:47			0	36808	0	0	0	28467	27090	158554	27137	1076084	46989	110575	0	0	8054	590838	0	0
2024-09-02 02:52:47			0	36805	0	0	0	28475	27090	158614	27116	1076039	46989	110578	0	0	8054	590960	0	0
2024-09-02 02:53:47			0	36799	0	0	0	28470	27090	158662	27199	1076120	46989	110576	0	0	8053	591204	0	0
2024-09-02 02:54:47			0	36794	0	0	0	28475	27080	158674	27015	1076039	46976	110578	0	0	8053	591442	0	0
2024-09-02 02:55:47			0	36797	0	0	0	28472	27080	158646	26899	1076120	46999	110577	0	0	8053	591319	0	0
2024-09-02 02:56:47			0	36789	0	0	0	28475	27080	158698	26892	1076102	46989	110578	0	0	8053	591645	0	0
2024-09-02 02:57:47			0	36790	0	0	0	28475	27080	158694	27024	1076012	46999	110578	0	0	8053	591604	0	0
2024-09-02 02:58:47			0	36793	0	0	0	28472	27090	158666	26928	1076138	47000	110577	0	0	8053	591448	0	0
2024-09-02 02:59:47			0	36777	0	0	0	28472	27080	158746	26729	1076120	46976	110577	0	0	8052	592133	0	0
2024-09-02 03:00:47			0	36774	0	0	0	28467	27090	158810	27000	1076111	46977	110575	0	0	8052	592222	0	0
2024-09-02 03:01:47			0	36759	0	0	0	28462	27070	158894	27024	1076048	46998	110573	0	0	8051	592901	0	0
2024-09-02 03:02:47			0	36765	0	0	0	28459	27080	158790	26642	1075985	46976	110572	0	0	8051	592622	0	0
2024-09-02 03:03:47			0	36733	0	0	0	28449	27070	158886	27007	1075994	46975	110568	0	0	8050	593961	0	0
2024-09-02 03:04:47			0	36739	0	0	0	28441	27070	158978	26965	1075940	46975	110565	0	0	8050	593716	0	0
2024-09-02 03:05:47			0	36743	0	0	0	28438	27060	159062	26800	1075904	46986	110564	0	0	8050	593587	0	0
2024-09-02 03:06:47			0	36708	0	0	0	28431	27070	159086	26930	1075913	46987	110561	0	0	8049	594982	0	0
2024-09-02 03:07:47			0	36715	0	0	0	28433	27060	159038	26987	1075985	46974	110562	0	0	8049	594730	0	0
2024-09-02 03:08:47			0	36694	0	0	0	28438	27050	159090	26779	1075940	46996	110564	0	0	8047	595622	0	0
2024-09-02 03:09:47			0	36679	0	0	0	28428	27050	159150	26883	1075859	46996	110560	0	0	8047	596235	0	0
2024-09-02 03:10:47			0	36683	0	0	0	28428	27050	159234	27078	1075886	46973	110560	0	0	8047	596072	0	0
2024-09-02 03:11:47			0	36679	0	0	0	28425	27050	159130	26889	1075913	46985	110559	0	0	8047	596235	0	0
2024-09-02 03:12:47			0	36676	0	0	0	28433	27060	159178	27239	1075895	46986	110562	0	0	8047	596324	0	0
2024-09-02 03:13:47			0	36646	0	0	0	28431	27050	159258	27168	1075877	46973	110561	0	0	8045	597586	0	0
2024-09-02 03:14:47			0	36666	0	0	0	28431	27050	159250	26805	1075877	46996	110561	0	0	8046	596767	0	0
2024-09-02 03:15:47			0	36635	0	0	0	28423	27050	159306	27258	1075823	46985	110558	0	0	8044	598037	0	0
2024-09-02 03:16:47			0	36633	0	0	0	28423	27050	159346	27100	1075931	46985	110558	0	0	8044	598119	0	0
2024-09-02 03:17:47			0	36627	0	0	0	28418	27050	159334	27131	1075823	46985	110556	0	0	8044	598365	0	0
2024-09-02 03:18:47			0	36635	0	0	0	28425	27040	159490	26911	1075814	46984	110559	0	0	8044	598072	0	0
2024-09-02 03:19:47			0	36616	0	0	0	28423	27030	159486	26968	1075877	46960	110558	0	0	8043	598885	0	0
2024-09-02 03:20:47			0	36611	0	0	0	28402	27030	159458	26828	1075823	46971	110550	0	0	8043	599090	0	0
2024-09-02 03:21:47			0	36601	0	0	0	28402	27030	159526	27189	1075796	46971	110550	0	0	8042	599501	0	0
2024-09-02 03:22:47			0	36607	0	0	0	28399	27030	159562	26830	1075787	46993	110549	0	0	8043	599255	0	0
2024-09-02 03:23:47			0	36599	0	0	0	28407	27020	159610	27124	1075715	46982	110552	0	0	8042	599618	0	0
2024-09-02 03:24:47			0	36599	0	0	0	28397	27020	159558	27251	1075742	46970	110548	0	0	8042	599618	0	0
2024-09-02 03:25:47			0	36581	0	0	0	28392	27020	159593	27350	1075724	46970	110546	0	0	8041	600357	0	0
2024-09-02 03:26:47			0	36590	0	0	0	28392	27020	159561	27341	1075634	46982	110546	0	0	8042	599987	0	0
2024-09-02 03:27:47			0	36590	0	0	0	28392	27010	159554	27083	1075679	46969	110546	0	0	8042	600022	0	0
2024-09-02 03:28:47			0	36594	0	0	0	28384	27010	159597	27086	1075652	46969	110543	0	0	8042	599857	0	0
2024-09-02 03:29:47			0	36570	0	0	0	28389	27010	159749	27048	1075670	46980	110545	0	0	8041	600844	0	0
2024-09-02 03:30:47			0	36585	0	0	0	28402	27010	159621	27041	1075706	46981	110550	0	0	8041	600227	0	0
2024-09-02 03:31:47			0	36581	0	0	0	28402	27000	159638	27149	1075714	47001	110550	0	0	8041	600426	0	0
2024-09-02 03:32:47			0	36576	0	0	0	28402	27010	159697	27119	1075679	46969	110550	0	0	8041	600597	0	0
2024-09-02 03:33:47			0	36580	0	0	0	28402	27000	159713	27022	1075714	46980	110550	0	0	8041	600467	0	0
2024-09-02 03:34:47			0	36576	0	0	0	28412	27010	159717	27104	1075750	46980	110554	0	0	8041	600597	0	0
2024-09-02 03:35:47			0	36581	0	0	0	28397	27010	159638	27199	1075723	46980	110548	0	0	8041	600392	0	0
2024-09-02 03:36:47			0	36579	0	0	0	28399	27010	159589	27161	1075706	46981	110549	0	0	8041	600474	0	0
2024-09-02 03:37:47			0	36568	0	0	0	28405	27010	159641	27192	1075723	46991	110551	0	0	8040	600926	0	0
2024-09-02 03:38:47			0	36564	0	0	0	28392	27000	159645	27164	1075678	46957	110546	0	0	8040	601125	0	0
2024-09-02 03:39:47			0	36576	0	0	0	28397	27000	159737	27147	1075687	46980	110548	0	0	8041	600632	0	0
2024-09-02 03:40:47			0	36556	0	0	0	28399	27000	159737	27183	1075651	46979	110549	0	0	8040	601454	0	0
2024-09-02 03:41:47			0	36559	0	0	0	28402	27010	159705	27251	1075723	46991	110550	0	0	8040	601297	0	0
2024-09-02 03:42:47			0	36551	0	0	0	28402	27010	159789	27111	1075723	46980	110550	0	0	8039	601626	0	0
2024-09-02 03:43:47			0	36547	0	0	0	28402	27010	159793	27163	1075750	46968	110550	0	0	8039	601790	0	0
2024-09-02 03:44:47			0	36555	0	0	0	28402	27000	159857	26908	1075678	46979	110550	0	0	8040	601496	0	0
2024-09-02 03:45:47			0	36546	0	0	0	28412	27010	159653	27024	1075723	46980	110554	0	0	8039	601832	0	0
2024-09-02 03:46:47			0	36547	0	0	0	28394	27000	159753	26963	1075678	46990	110547	0	0	8039	601825	0	0
2024-09-02 03:47:47			0	36539	0	0	0	28394	27010	159705	27282	1075670	46991	110547	0	0	8039	602120	0	0
2024-09-02 03:48:47			0	36533	0	0	0	28399	26980	159669	27206	1075651	46978	110549	0	0	8038	602471	0	0
2024-09-02 03:49:47			0	36551	0	0	0	28402	27000	159741	27223	1075678	46979	110550	0	0	8039	601660	0	0
2024-09-02 03:50:47			0	36540	0	0	0	28399	27000	159681	27209	1075732	46967	110549	0	0	8039	602113	0	0
2024-09-02 03:51:47			0	36537	0	0	0	28405	27000	159697	26913	1075687	47001	110551	0	0	8038	602237	0	0
2024-09-02 03:52:47			0	36539	0	0	0	28394	27000	159693	27287	1075634	46991	110547	0	0	8039	602154	0	0
2024-09-02 03:53:47			0	36529	0	0	0	28402	27000	159701	26991	1075687	46980	110550	0	0	8038	602567	0	0
2024-09-02 03:54:47			0	36525	0	0	0	28405	27010	159861	27163	1075750	46980	110551	0	0	8038	602697	0	0
2024-09-02 03:55:47			0	36524	0	0	0	28399	27000	159753	26880	1075705	46990	110549	0	0	8038	602773	0	0
2024-09-02 03:56:47			0	36519	0	0	0	28407	27000	159689	26979	1075741	46980	110552	0	0	8037	602979	0	0
2024-09-02 03:57:47			0	36513	0	0	0	28410	27010	159717	27076	1075670	46968	110553	0	0	8037	603192	0	0
2024-09-02 03:58:47			0	36508	0	0	0	28407	27010	159869	27138	1075723	46991	110552	0	0	8037	603398	0	0
2024-09-02 03:59:47			0	36522	0	0	0	28415	27010	159809	27197	1075670	47001	110555	0	0	8037	602820	0	0
2024-09-02 04:00:47			0	36499	0	0	0	28399	27010	159753	27424	1075696	46980	110549	0	0	8036	603769	0	0
2024-09-02 04:01:47			0	36492	0	0	0	28389	27010	159953	27376	1075670	46980	110545	0	0	8036	604058	0	0
2024-09-02 04:02:47			0	36487	0	0	0	28381	27000	159985	26951	1075625	46967	110542	0	0	8036	604299	0	0
2024-09-02 04:03:47			0	36456	0	0	0	28381	27000	160081	26989	1075651	46979	110542	0	0	8034	605580	0	0
2024-09-02 04:04:47			0	36440	0	0	0	28376	27000	160077	27102	1075687	46980	110540	0	0	8033	606242	0	0
2024-09-02 04:05:47			0	36440	0	0	0	28363	26990	160137	27135	1075589	46967	110535	0	0	8033	606277	0	0
2024-09-02 04:06:47			0	36436	0	0	0	28363	26990	160205	27301	1075642	46957	110535	0	0	8033	606442	0	0
2024-09-02 04:07:47			0	36445	0	0	0	28368	26980	160097	27048	1075597	46978	110537	0	0	8033	606105	0	0
2024-09-02 04:08:47			0	36426	0	0	0	28366	26980	160209	27357	1075624	46966	110536	0	0	8032	606891	0	0
2024-09-02 04:09:47			0	36410	0	0	0	28355	26980	160249	26993	1075490	46989	110532	0	0	8032	607554	0	0
2024-09-02 04:10:47			0	36433	0	0	0	28355	26980	160269	27138	1075517	46978	110532	0	0	8033	606601	0	0
2024-09-02 04:11:47			0	36414	0	0	0	28355	26980	160201	27197	1075517	46966	110532	0	0	8032	607388	0	0
2024-09-02 04:12:47			0	36431	0	0	0	28358	26970	160165	26850	1075516	46987	110533	0	0	8033	606719	0	0
2024-09-02 04:13:47			0	36420	0	0	0	28361	26970	160193	27098	1075472	46977	110534	0	0	8032	607175	0	0
2024-09-02 04:14:47			0	36423	0	0	0	28361	26980	160133	27178	1075517	47000	110534	0	0	8032	607016	0	0
2024-09-02 04:15:47			0	36429	0	0	0	28355	26970	160161	27166	1075516	46998	110532	0	0	8033	606802	0	0
2024-09-02 04:16:47			0	36442	0	0	0	28355	26970	160153	26920	1075445	46988	110532	0	0	8033	606264	0	0
2024-09-02 04:17:47			0	36416	0	0	0	28348	26970	160329	26944	1075445	46965	110529	0	0	8032	607340	0	0
2024-09-02 04:18:47			0	36413	0	0	0	28348	26960	160281	27177	1075481	46964	110529	0	0	8032	607500	0	0
2024-09-02 04:19:47			0	36410	0	0	0	28345	26970	160413	27088	1075472	46977	110528	0	0	8032	607589	0	0
2024-09-02 04:20:47			0	36406	0	0	0	28345	26960	160373	26826	1075498	46963	110528	0	0	8031	607790	0	0
2024-09-02 04:21:47			0	36385	0	0	0	28345	26960	160521	26733	1075454	46976	110528	0	0	8030	608661	0	0
2024-09-02 04:22:47			0	36363	0	0	0	28348	26950	160513	26701	1075409	46963	110529	0	0	8029	609609	0	0
2024-09-02 04:23:47			0	36364	0	0	0	28348	26960	160577	27178	1075427	46987	110529	0	0	8029	609533	0	0
2024-09-02 04:24:47			0	36372	0	0	0	28345	26950	160593	27020	1075462	46975	110528	0	0	8029	609235	0	0
2024-09-02 04:25:47			0	36360	0	0	0	28340	26960	160589	26863	1075445	46986	110526	0	0	8029	609699	0	0
2024-09-02 04:26:47			0	36363	0	0	0	28335	26950	160549	26918	1075328	46975	110524	0	0	8029	609609	0	0
2024-09-02 04:27:47			0	36371	0	0	0	28348	26960	160625	27124	1075418	46975	110529	0	0	8029	609242	0	0
2024-09-02 04:28:47			0	36370	0	0	0	28340	26950	160577	27289	1075373	46985	110526	0	0	8029	609319	0	0
2024-09-02 04:29:47			0	36357	0	0	0	28345	26950	160669	27263	1075346	46974	110528	0	0	8028	609859	0	0
2024-09-02 04:30:47			0	36347	0	0	0	28340	26940	160749	27213	1075364	46962	110526	0	0	8028	610309	0	0
2024-09-02 04:31:47			0	36335	0	0	0	28340	26950	160737	26941	1075453	46974	110526	0	0	8027	610773	0	0
2024-09-02 04:32:47			0	36322	0	0	0	28327	26950	160877	27287	1075409	46953	110521	0	0	8027	611315	0	0
2024-09-02 04:33:47			0	36317	0	0	0	28335	26950	160733	26961	1075409	46997	110524	0	0	8026	611523	0	0
2024-09-02 04:34:47			0	36308	0	0	0	28340	26930	160713	26927	1075355	46973	110526	0	0	8025	611968	0	0
2024-09-02 04:35:47			0	36330	0	0	0	28332	26940	160861	27163	1075364	46974	110523	0	0	8027	611016	0	0
2024-09-02 04:36:47			0	36301	0	0	0	28332	26950	160821	27306	1075355	46963	110523	0	0	8025	612189	0	0
2024-09-02 04:37:47			0	36295	0	0	0	28327	26930	160769	27242	1075382	46961	110521	0	0	8025	612510	0	0
2024-09-02 04:38:47			0	36314	0	0	0	28324	26930	160757	27066	1075372	46983	110520	0	0	8026	611718	0	0
2024-09-02 04:39:47			0	36311	0	0	0	28314	26930	160825	27405	1075355	46973	110516	0	0	8026	611843	0	0
2024-09-02 04:40:47			0	36304	0	0	0	28319	26930	160889	27013	1075328	46973	110518	0	0	8026	612134	0	0
2024-09-02 04:41:47			0	36303	0	0	0	28311	26930	160809	27201	1075274	46961	110515	0	0	8026	612176	0	0
2024-09-02 04:42:47			0	36289	0	0	0	28306	26930	160929	27272	1075292	46960	110513	0	0	8025	612760	0	0
2024-09-02 04:43:47			0	36294	0	0	0	28303	26920	160841	27173	1075256	46972	110512	0	0	8025	612586	0	0
2024-09-02 04:44:47			0	36296	0	0	0	28303	26920	160925	27315	1075274	46959	110512	0	0	8025	612503	0	0
2024-09-02 04:45:47			0	36291	0	0	0	28311	26920	160929	27053	1075274	46971	110515	0	0	8025	612711	0	0
2024-09-02 04:46:47			0	36298	0	0	0	28316	26920	160885	27010	1075256	46950	110517	0	0	8025	612420	0	0
2024-09-02 04:47:47			0	36303	0	0	0	28306	26920	160841	27171	1075301	46971	110513	0	0	8026	612211	0	0
2024-09-02 04:48:47			0	36288	0	0	0	28309	26930	160913	27279	1075346	46972	110514	0	0	8025	612801	0	0
2024-09-02 04:49:47			0	36299	0	0	0	28301	26920	160897	27339	1075247	46949	110511	0	0	8026	612378	0	0
2024-09-02 04:50:47			0	36305	0	0	0	28296	26910	160849	27293	1075265	46971	110509	0	0	8026	612163	0	0
2024-09-02 04:51:47			0	36292	0	0	0	28301	26920	160945	26982	1075247	46982	110511	0	0	8025	612670	0	0
2024-09-02 04:52:47			0	36300	0	0	0	28301	26900	160977	26967	1075192	46958	110511	0	0	8026	612406	0	0
2024-09-02 04:53:47			0	36292	0	0	0	28298	26910	160997	27301	1075238	46982	110510	0	0	8025	612705	0	0
2024-09-02 04:54:47			0	36277	0	0	0	28296	26900	160909	27268	1075192	46981	110509	0	0	8024	613366	0	0
2024-09-02 04:55:47			0	36287	0	0	0	28301	26900	160897	27180	1075219	46970	110511	0	0	8025	612948	0	0
2024-09-02 04:56:47			0	36290	0	0	0	28303	26900	160957	27232	1075192	46958	110512	0	0	8025	612823	0	0
2024-09-02 04:57:47			0	36282	0	0	0	28301	26900	161013	27381	1075192	46958	110511	0	0	8024	613157	0	0
2024-09-02 04:58:47			0	36280	0	0	0	28296	26890	160797	27261	1075147	46947	110509	0	0	8024	613276	0	0
2024-09-02 04:59:47			0	36295	0	0	0	28290	26900	160989	27199	1075183	46991	110507	0	0	8025	612615	0	0
2024-09-02 05:00:47			0	36271	0	0	0	28293	26890	160917	27029	1075147	46968	110508	0	0	8024	613651	0	0
2024-09-02 05:01:47			0	36289	0	0	0	28285	26900	160949	27149	1075192	46992	110505	0	0	8025	612865	0	0
2024-09-02 05:02:47			0	36302	0	0	0	28298	26900	160869	27237	1075166	46958	110510	0	0	8026	612323	0	0
2024-09-02 05:03:47			0	36294	0	0	0	28283	26880	160925	27183	1075129	46978	110504	0	0	8025	612727	0	0
2024-09-02 05:04:47			0	36291	0	0	0	28283	26890	160965	27083	1075138	46968	110504	0	0	8025	612817	0	0
2024-09-02 05:05:47			0	36311	0	0	0	28275	26880	160857	27104	1075102	46956	110501	0	0	8027	612018	0	0
2024-09-02 05:06:47			0	36285	0	0	0	28288	26890	160937	26769	1075111	46946	110506	0	0	8025	613067	0	0
2024-09-02 05:07:47			0	36296	0	0	0	28280	26870	160929	27102	1075084	46945	110503	0	0	8025	612678	0	0
2024-09-02 05:08:47			0	36289	0	0	0	28272	26880	160869	27038	1075067	46967	110500	0	0	8025	612935	0	0
2024-09-02 05:09:47			0	36286	0	0	0	28275	26880	160829	27000	1075076	46967	110501	0	0	8025	613060	0	0
2024-09-02 05:10:47			0	36280	0	0	0	28272	26870	160929	26831	1075075	46966	110500	0	0	8025	613346	0	0
2024-09-02 05:11:47			0	36267	0	0	0	28264	26870	161005	27244	1075022	46966	110497	0	0	8024	613889	0	0
2024-09-02 05:12:47			0	36266	0	0	0	28272	26880	160917	27116	1075067	46978	110500	0	0	8024	613895	0	0
2024-09-02 05:13:47			0	36267	0	0	0	28254	26870	160921	26908	1075057	46967	110493	0	0	8024	613889	0	0
2024-09-02 05:14:47			0	36281	0	0	0	28259	26870	161005	26963	1075022	46966	110495	0	0	8025	613304	0	0
2024-09-02 05:15:47			0	36261	0	0	0	28257	26870	160985	27039	1075048	46966	110494	0	0	8024	614139	0	0
2024-09-02 05:16:47			0	36263	0	0	0	28262	26870	160961	27029	1074995	46966	110496	0	0	8024	614056	0	0
2024-09-02 05:17:47			0	36257	0	0	0	28259	26870	161093	27093	1075022	46944	110495	0	0	8024	614306	0	0
2024-09-02 05:18:47			0	36265	0	0	0	28254	26870	161057	27007	1075022	46955	110493	0	0	8024	613972	0	0
2024-09-02 05:19:47			0	36276	0	0	0	28249	26850	161069	27326	1074994	46954	110491	0	0	8025	613583	0	0
2024-09-02 05:20:47			0	36271	0	0	0	28254	26850	161073	27170	1074941	46954	110493	0	0	8024	613792	0	0
2024-09-02 05:21:47			0	36263	0	0	0	28251	26870	161101	27242	1074941	46966	110492	0	0	8024	614056	0	0
2024-09-02 05:22:47			0	36267	0	0	0	28249	26850	161085	26904	1074968	46976	110491	0	0	8024	613959	0	0
2024-09-02 05:23:47			0	36270	0	0	0	28251	26850	161025	27067	1075021	46976	110492	0	0	8024	613834	0	0
2024-09-02 05:24:47			0	36281	0	0	0	28246	26860	160985	27232	1074977	46964	110490	0	0	8025	613339	0	0
2024-09-02 05:25:47			0	36289	0	0	0	28246	26850	161001	27170	1074958	46953	110490	0	0	8026	613041	0	0
2024-09-02 05:26:47			0	36277	0	0	0	28254	26850	161013	27142	1074958	46963	110493	0	0	8025	613541	0	0
2024-09-02 05:27:47			0	36279	0	0	0	28241	26850	161001	27066	1074914	46954	110488	0	0	8025	613458	0	0
2024-09-02 05:28:47			0	36286	0	0	0	28236	26840	161061	27256	1074896	46962	110486	0	0	8025	613201	0	0
2024-09-02 05:29:47			0	36270	0	0	0	28233	26840	160993	27062	1074896	46962	110485	0	0	8025	613869	0	0
2024-09-02 05:30:47			0	36280	0	0	0	28236	26830	161141	27208	1074878	46973	110486	0	0	8025	613487	0	0
2024-09-02 05:31:47			0	36278	0	0	0	28236	26840	160961	27157	1074896	46962	110486	0	0	8025	613535	0	0
2024-09-02 05:32:47			0	36265	0	0	0	28231	26830	160965	27114	1074868	46973	110484	0	0	8024	614113	0	0
2024-09-02 05:33:47			0	36293	0	0	0	28225	26850	160997	27220	1074932	46975	110482	0	0	8026	612874	0	0
2024-09-02 05:34:47			0	36280	0	0	0	28233	26840	161033	27130	1074842	46962	110485	0	0	8025	613451	0	0
2024-09-02 05:35:47			0	36283	0	0	0	28231	26830	161033	27060	1074842	46961	110484	0	0	8025	613361	0	0
2024-09-02 05:36:47			0	36281	0	0	0	28238	26840	161017	27180	1074887	46962	110487	0	0	8025	613410	0	0
2024-09-02 05:37:47			0	36285	0	0	0	28231	26830	161017	26892	1074904	46961	110484	0	0	8025	613278	0	0
2024-09-02 05:38:47			0	36295	0	0	0	28238	26830	160969	27076	1074878	46961	110487	0	0	8026	612861	0	0
2024-09-02 05:39:47			0	36304	0	0	0	28241	26840	160937	26791	1074860	46974	110488	0	0	8026	612450	0	0
2024-09-02 05:40:47			0	36299	0	0	0	28246	26840	160941	27131	1074940	46974	110490	0	0	8026	612659	0	0
2024-09-02 05:41:47			0	36284	0	0	0	28238	26830	160989	26916	1074878	46973	110487	0	0	8025	613319	0	0
2024-09-02 05:42:47			0	36289	0	0	0	28244	26840	160973	26930	1074833	46962	110489	0	0	8026	613076	0	0
2024-09-02 05:43:47			0	36307	0	0	0	28236	26840	161029	26831	1074913	46974	110486	0	0	8027	612325	0	0
2024-09-02 05:44:47			0	36294	0	0	0	28233	26840	160941	27284	1074833	46962	110485	0	0	8026	612867	0	0
2024-09-02 05:45:47			0	36299	0	0	0	28225	26830	160917	27170	1074922	46961	110482	0	0	8026	612694	0	0
2024-09-02 05:46:47			0	36289	0	0	0	28241	26830	161025	27182	1074851	46961	110488	0	0	8026	613111	0	0
2024-09-02 05:47:47			0	36283	0	0	0	28241	26830	161021	27248	1074895	46973	110488	0	0	8025	613361	0	0
2024-09-02 05:48:47			0	36291	0	0	0	28228	26820	160909	27131	1074877	46959	110483	0	0	8026	613063	0	0
2024-09-02 05:49:47			0	36300	0	0	0	28223	26830	161049	27244	1074851	46961	110481	0	0	8026	612652	0	0
2024-09-02 05:50:47			0	36293	0	0	0	28210	26830	160965	27015	1074770	46951	110476	0	0	8026	612944	0	0
2024-09-02 05:51:47			0	36285	0	0	0	28205	26820	160933	27391	1074833	46960	110474	0	0	8026	613313	0	0
2024-09-02 05:52:47			0	36284	0	0	0	28202	26830	160925	27211	1074770	46973	110473	0	0	8026	613319	0	0
2024-09-02 05:53:47			0	36283	0	0	0	28205	26820	160993	27326	1074770	46959	110474	0	0	8026	613396	0	0
2024-09-02 05:54:47			0	36268	0	0	0	28215	26830	160901	27060	1074761	46951	110478	0	0	8025	613987	0	0
2024-09-02 05:55:47			0	36269	0	0	0	28210	26820	160985	26913	1074779	46960	110476	0	0	8025	613981	0	0
2024-09-02 05:56:47			0	36271	0	0	0	28215	26820	161009	27085	1074806	46960	110478	0	0	8025	613897	0	0
2024-09-02 05:57:47			0	36272	0	0	0	28205	26820	161081	27112	1074797	46971	110474	0	0	8025	613856	0	0
2024-09-02 05:58:47			0	36274	0	0	0	28210	26810	161065	27263	1074707	46971	110476	0	0	8025	613807	0	0
2024-09-02 05:59:47			0	36275	0	0	0	28210	26810	161061	27066	1074788	46959	110476	0	0	8025	613765	0	0
2024-09-02 06:00:47			0	36265	0	0	0	28202	26810	161053	27180	1074698	46959	110473	0	0	8025	614183	0	0
2024-09-02 06:01:47			0	36269	0	0	0	28202	26800	161009	27367	1074689	46948	110473	0	0	8025	614051	0	0
2024-09-02 06:02:47			0	36276	0	0	0	28199	26810	160997	27362	1074761	46959	110472	0	0	8025	613724	0	0
2024-09-02 06:03:47			0	36258	0	0	0	28199	26810	161061	27078	1074734	46971	110472	0	0	8024	614476	0	0
2024-09-02 06:04:47			0	36255	0	0	0	28202	26800	161157	27229	1074662	46958	110473	0	0	8024	614636	0	0
2024-09-02 06:05:47			0	36242	0	0	0	28199	26800	161113	27043	1074743	46970	110472	0	0	8023	615180	0	0
2024-09-02 06:06:47			0	36234	0	0	0	28202	26800	161177	27353	1074743	46948	110473	0	0	8023	615514	0	0
2024-09-02 06:07:47			0	36252	0	0	0	28197	26800	161153	27052	1074662	46948	110471	0	0	8024	614762	0	0
2024-09-02 06:08:47			0	36228	0	0	0	28210	26810	161137	27069	1074671	46959	110476	0	0	8022	615730	0	0
2024-09-02 06:09:47			0	36238	0	0	0	28197	26800	161273	27391	1074716	46970	110471	0	0	8023	615347	0	0
2024-09-02 06:10:47			0	36234	0	0	0	28197	26800	161205	27239	1074662	46970	110471	0	0	8023	615514	0	0
2024-09-02 06:11:47			0	36244	0	0	0	28202	26800	161281	26994	1074707	46958	110473	0	0	8023	615096	0	0
2024-09-02 06:12:47			0	36241	0	0	0	28192	26800	161257	27272	1074662	46958	110469	0	0	8023	615222	0	0
2024-09-02 06:13:47			0	36230	0	0	0	28186	26790	161225	27215	1074671	46958	110467	0	0	8023	615717	0	0
2024-09-02 06:14:47			0	36243	0	0	0	28186	26800	161153	27440	1074716	46948	110467	0	0	8024	615138	0	0
2024-09-02 06:15:47			0	36246	0	0	0	28189	26800	161257	27145	1074680	46958	110468	0	0	8024	615013	0	0
2024-09-02 06:16:47			0	36241	0	0	0	28181	26790	161181	27253	1074698	46969	110465	0	0	8023	615257	0	0
2024-09-02 06:17:47			0	36226	0	0	0	28181	26790	161245	27182	1074608	46958	110465	0	0	8023	615884	0	0
2024-09-02 06:18:47			0	36228	0	0	0	28173	26790	161165	27079	1074661	46969	110462	0	0	8023	615801	0	0
2024-09-02 06:19:47			0	36228	0	0	0	28173	26790	161169	26941	1074634	46958	110462	0	0	8023	615801	0	0
2024-09-02 06:20:47			0	36240	0	0	0	28163	26780	161209	27367	1074590	46967	110458	0	0	8024	615334	0	0
2024-09-02 06:21:47			0	36237	0	0	0	28158	26780	161213	27293	1074509	46967	110456	0	0	8024	615459	0	0
2024-09-02 06:22:47			0	36224	0	0	0	28161	26780	161181	27107	1074625	46957	110457	0	0	8023	616003	0	0
2024-09-02 06:23:47			0	36221	0	0	0	28168	26770	161209	27024	1074554	46967	110460	0	0	8022	616164	0	0
2024-09-02 06:24:47			0	36229	0	0	0	28168	26780	161205	27268	1074509	46945	110460	0	0	8023	615794	0	0
2024-09-02 06:25:47			0	36244	0	0	0	28163	26760	161297	27286	1074446	46965	110458	0	0	8024	615237	0	0
2024-09-02 06:26:47			0	36227	0	0	0	28166	26770	161321	27170	1074500	46934	110459	0	0	8023	615913	0	0
2024-09-02 06:27:47			0	36233	0	0	0	28155	26770	161253	27124	1074500	46956	110455	0	0	8023	615662	0	0
2024-09-02 06:28:47			0	36238	0	0	0	28158	26780	161265	27215	1074491	46968	110456	0	0	8024	615418	0	0
2024-09-02 06:29:47			0	36240	0	0	0	28153	26770	161225	27121	1074491	46945	110454	0	0	8024	615369	0	0
2024-09-02 06:30:47			0	36264	0	0	0	28153	26770	161265	26783	1074491	46956	110454	0	0	8025	614366	0	0
2024-09-02 06:31:47			0	36263	0	0	0	28150	26770	161193	26772	1074464	46967	110453	0	0	8025	614408	0	0
2024-09-02 06:32:47			0	36237	0	0	0	28148	26770	161205	26989	1074491	46956	110452	0	0	8024	615495	0	0
2024-09-02 06:33:47			0	36252	0	0	0	28150	26760	161205	27223	1074473	46954	110453	0	0	8024	614903	0	0
2024-09-02 06:34:47			0	36251	0	0	0	28153	26770	161213	26840	1074473	46956	110454	0	0	8024	614909	0	0
2024-09-02 06:35:47			0	36253	0	0	0	28153	26760	161173	27332	1074455	46966	110454	0	0	8025	614861	0	0
2024-09-02 06:36:47			0	36254	0	0	0	28150	26760	161181	27251	1074482	46944	110453	0	0	8025	614819	0	0
2024-09-02 06:37:47			0	36253	0	0	0	28150	26760	161101	26734	1074392	46954	110453	0	0	8025	614861	0	0
2024-09-02 06:38:47			0	36255	0	0	0	28150	26760	161113	27235	1074473	46965	110453	0	0	8025	614777	0	0
2024-09-02 06:39:47			0	36256	0	0	0	28145	26760	161261	27175	1074392	46943	110451	0	0	8025	614735	0	0
2024-09-02 06:40:47			0	36261	0	0	0	28148	26760	161109	27090	1074401	46955	110452	0	0	8025	614526	0	0
2024-09-02 06:41:47			0	36263	0	0	0	28140	26750	161225	26920	1074374	46975	110449	0	0	8025	614478	0	0
2024-09-02 06:42:47			0	36273	0	0	0	28148	26750	161189	26951	1074401	46953	110452	0	0	8026	614060	0	0
2024-09-02 06:43:47			0	36261	0	0	0	28145	26760	161185	27005	1074401	46944	110451	0	0	8025	614526	0	0
2024-09-02 06:44:47			0	36266	0	0	0	28137	26740	161197	27334	1074392	46964	110448	0	0	8025	614388	0	0
2024-09-02 06:45:47			0	36258	0	0	0	28137	26750	161189	27043	1074410	46942	110448	0	0	8025	614687	0	0
2024-09-02 06:46:47			0	36261	0	0	0	28135	26740	161249	27398	1074365	46964	110447	0	0	8025	614597	0	0
2024-09-02 06:47:47			0	36269	0	0	0	28132	26740	161309	27360	1074329	46963	110446	0	0	8026	614262	0	0
2024-09-02 06:48:47			0	36254	0	0	0	28122	26750	161313	27282	1074347	46964	110442	0	0	8025	614854	0	0
2024-09-02 06:49:47			0	36247	0	0	0	28124	26750	161169	27305	1074401	46953	110443	0	0	8025	615147	0	0
2024-09-02 06:50:47			0	36257	0	0	0	28119	26740	161209	27275	1074392	46953	110441	0	0	8025	614764	0	0
2024-09-02 06:51:47			0	36259	0	0	0	28114	26740	161193	27272	1074338	46964	110439	0	0	8025	614680	0	0
2024-09-02 06:52:47			0	36235	0	0	0	28111	26740	161313	27185	1074329	46963	110438	0	0	8024	615684	0	0
2024-09-02 06:53:47			0	36231	0	0	0	28096	26740	161285	27455	1074383	46974	110432	0	0	8024	615852	0	0
2024-09-02 06:54:47			0	36239	0	0	0	28090	26730	161325	27095	1074320	46962	110430	0	0	8025	615552	0	0
2024-09-02 06:55:47			0	36225	0	0	0	28090	26720	161265	27267	1074302	46951	110430	0	0	8024	616173	0	0
2024-09-02 06:56:47			0	36221	0	0	0	28093	26740	161373	27208	1074356	46952	110431	0	0	8023	616270	0	0
2024-09-02 06:57:47			0	36227	0	0	0	28088	26720	161417	27067	1074356	46951	110429	0	0	8024	616089	0	0
2024-09-02 06:58:47			0	36214	0	0	0	28111	26730	161385	27249	1074311	46951	110438	0	0	8023	616599	0	0
2024-09-02 06:59:47			0	36209	0	0	0	28101	26720	161361	27043	1074293	46950	110434	0	0	8023	616844	0	0
2024-09-02 07:00:47			0	36217	0	0	0	28114	26730	161417	27048	1074320	46951	110439	0	0	8023	616473	0	0
2024-09-02 07:01:47			0	36207	0	0	0	28122	26730	161465	27287	1074338	46951	110442	0	0	8022	616892	0	0
2024-09-02 07:02:47			0	36208	0	0	0	28135	26730	161445	27369	1074338	46962	110447	0	0	8022	616850	0	0
2024-09-02 07:03:47			0	36201	0	0	0	28129	26720	161373	27284	1074382	46973	110445	0	0	8022	617179	0	0
2024-09-02 07:04:47			0	36210	0	0	0	28140	26730	161409	27142	1074338	46973	110449	0	0	8022	616766	0	0
2024-09-02 07:05:47			0	36221	0	0	0	28132	26740	161401	27017	1074419	46964	110446	0	0	8023	616270	0	0
2024-09-02 07:06:47			0	36222	0	0	0	28129	26750	161441	27135	1074374	46953	110445	0	0	8023	616193	0	0
2024-09-02 07:07:47			0	36216	0	0	0	28137	26750	161393	27055	1074410	46953	110448	0	0	8022	616444	0	0
2024-09-02 07:08:47			0	36205	0	0	0	28145	26750	161405	27050	1074437	46953	110451	0	0	8022	616905	0	0
2024-09-02 07:09:47			0	36194	0	0	0	28155	26740	161449	26807	1074446	46942	110455	0	0	8021	617402	0	0
2024-09-02 07:10:47			0	36203	0	0	0	28150	26750	161501	27137	1074374	46953	110453	0	0	8021	616989	0	0
2024-09-02 07:11:47			0	36202	0	0	0	28150	26740	161445	27071	1074329	46963	110453	0	0	8021	617066	0	0
2024-09-02 07:12:47			0	36200	0	0	0	28150	26730	161409	26800	1074311	46951	110453	0	0	8021	617186	0	0
2024-09-02 07:13:47			0	36202	0	0	0	28111	26720	161389	26790	1074239	46939	110438	0	0	8022	617137	0	0
2024-09-02 07:14:47			0	36197	0	0	0	28083	26710	161425	27208	1074257	46927	110427	0	0	8022	617382	0	0
2024-09-02 07:15:47			0	36213	0	0	0	28085	26720	161429	26719	1074194	46940	110428	0	0	8023	616676	0	0
2024-09-02 07:16:47			0	36214	0	0	0	28090	26710	161473	27268	1074140	46949	110430	0	0	8023	616669	0	0
2024-09-02 07:17:47			0	36205	0	0	0	28093	26710	161489	27116	1074087	46927	110431	0	0	8022	617047	0	0
2024-09-02 07:18:47			0	36208	0	0	0	28072	26700	161477	27098	1074131	46938	110423	0	0	8023	616956	0	0
2024-09-02 07:19:47			0	36204	0	0	0	28062	26700	161477	27220	1074095	46937	110419	0	0	8023	617124	0	0
2024-09-02 07:20:47			0	36208	0	0	0	28059	26690	161489	27013	1074104	46946	110418	0	0	8023	616991	0	0
2024-09-02 07:21:47			0	36207	0	0	0	28059	26690	161461	27230	1074086	46936	110418	0	0	8023	617033	0	0
2024-09-02 07:22:47			0	36216	0	0	0	28057	26690	161433	27112	1074059	46947	110417	0	0	8024	616656	0	0
2024-09-02 07:23:47			0	36201	0	0	0	28062	26680	161505	27135	1074068	46924	110419	0	0	8023	617320	0	0
2024-09-02 07:24:47			0	36195	0	0	0	28049	26690	161497	27069	1074024	46935	110414	0	0	8022	617537	0	0
2024-09-02 07:25:47			0	36199	0	0	0	28033	26680	161613	27052	1073988	46946	110408	0	0	8023	617404	0	0
2024-09-02 07:26:47			0	36201	0	0	0	28031	26680	161453	27215	1073952	46946	110407	0	0	8023	617320	0	0
2024-09-02 07:27:47			0	36217	0	0	0	28018	26690	161457	27204	1074024	46935	110402	0	0	8024	616614	0	0
2024-09-02 07:28:47			0	36198	0	0	0	28007	26660	161493	27390	1073897	46944	110398	0	0	8023	617517	0	0
2024-09-02 07:29:47			0	36198	0	0	0	28010	26660	161561	27268	1073924	46933	110399	0	0	8023	617517	0	0
2024-09-02 07:30:47			0	36164	0	0	0	28007	26660	161745	27017	1073861	46944	110398	0	0	8021	618944	0	0
2024-09-02 07:31:47			0	36148	0	0	0	27999	26660	161741	27190	1073835	46922	110395	0	0	8020	619617	0	0
2024-09-02 07:32:47			0	36123	0	0	0	27997	26640	161893	27346	1073807	46920	110394	0	0	8019	620739	0	0
2024-09-02 07:33:47			0	36111	0	0	0	28005	26640	161849	27145	1073816	46942	110397	0	0	8018	621245	0	0
2024-09-02 07:34:47			0	36109	0	0	0	27997	26620	161893	27074	1073727	46929	110394	0	0	8018	621400	0	0
2024-09-02 07:35:47			0	36097	0	0	0	27994	26630	161941	27319	1073718	46942	110393	0	0	8017	621870	0	0
2024-09-02 07:36:47			0	36110	0	0	0	27997	26620	161957	27109	1073780	46929	110394	0	0	8018	621358	0	0
2024-09-02 07:37:47			0	36109	0	0	0	27999	26630	161997	26928	1073789	46918	110395	0	0	8018	621365	0	0
2024-09-02 07:38:47			0	36087	0	0	0	28002	26610	162025	27039	1073735	46951	110396	0	0	8016	622363	0	0
2024-09-02 07:39:47			0	36090	0	0	0	28005	26610	162001	27284	1073735	46939	110397	0	0	8016	622237	0	0
2024-09-02 07:40:47			0	36105	0	0	0	28005	26620	161897	27301	1073700	46940	110397	0	0	8017	621569	0	0
2024-09-02 07:41:47			0	36106	0	0	0	28005	26610	161961	27242	1073708	46951	110397	0	0	8017	621562	0	0
2024-09-02 07:42:47			0	36099	0	0	0	28020	26620	162001	27177	1073753	46929	110403	0	0	8017	621822	0	0
2024-09-02 07:43:47			0	36104	0	0	0	28031	26610	162049	27286	1073726	46951	110407	0	0	8017	621646	0	0
2024-09-02 07:44:47			0	36087	0	0	0	28023	26610	161965	27258	1073726	46939	110404	0	0	8016	622363	0	0
2024-09-02 07:45:47			0	36089	0	0	0	28025	26620	162097	27027	1073771	46951	110405	0	0	8016	622243	0	0
2024-09-02 07:46:47			0	36107	0	0	0	28020	26610	162105	27060	1073708	46939	110403	0	0	8017	621520	0	0
2024-09-02 07:47:47			0	36096	0	0	0	28028	26610	162029	26826	1073735	46928	110406	0	0	8016	621984	0	0
2024-09-02 07:48:47			0	36102	0	0	0	28018	26620	161937	27060	1073771	46928	110402	0	0	8017	621695	0	0
2024-09-02 07:49:47			0	36085	0	0	0	28020	26610	162009	27220	1073762	46928	110403	0	0	8016	622448	0	0
2024-09-02 07:50:47			0	36092	0	0	0	28012	26610	161997	27410	1073735	46939	110400	0	0	8016	622152	0	0
2024-09-02 07:51:47			0	36099	0	0	0	28023	26610	162017	26800	1073726	46939	110404	0	0	8017	621857	0	0
2024-09-02 07:52:47			0	36099	0	0	0	28031	26620	162077	27203	1073798	46939	110407	0	0	8017	621822	0	0
2024-09-02 07:53:47			0	36086	0	0	0	28038	26610	161993	27223	1073789	46951	110410	0	0	8016	622406	0	0
2024-09-02 07:54:47			0	36084	0	0	0	28031	26620	161913	27204	1073718	46939	110407	0	0	8016	622454	0	0
2024-09-02 07:55:47			0	36090	0	0	0	28023	26610	162017	27131	1073816	46961	110404	0	0	8016	622237	0	0
2024-09-02 07:56:47			0	36096	0	0	0	28031	26610	161921	26982	1073735	46939	110407	0	0	8016	621984	0	0
2024-09-02 07:57:47			0	36101	0	0	0	28044	26610	162013	27178	1073780	46928	110412	0	0	8016	621773	0	0
2024-09-02 07:58:47			0	36095	0	0	0	28057	26610	161969	26958	1073834	46939	110417	0	0	8016	622026	0	0
2024-09-02 07:59:47			0	36085	0	0	0	28067	26610	162005	27204	1073789	46928	110421	0	0	8015	622448	0	0
2024-09-02 08:00:47			0	36092	0	0	0	28067	26600	162077	27223	1073717	46950	110421	0	0	8015	622188	0	0
2024-09-02 08:01:47			0	36099	0	0	0	28064	26610	162017	27431	1073780	46972	110420	0	0	8016	621857	0	0
2024-09-02 08:02:47			0	36108	0	0	0	28057	26610	162149	27194	1073780	46939	110417	0	0	8017	621478	0	0
2024-09-02 08:03:47			0	36104	0	0	0	28054	26610	162009	27248	1073789	46928	110416	0	0	8016	621646	0	0
2024-09-02 08:04:47			0	36091	0	0	0	28054	26620	161953	27341	1073825	46951	110416	0	0	8016	622159	0	0
2024-09-02 08:05:47			0	36101	0	0	0	28057	26610	162081	27253	1073753	46961	110417	0	0	8016	621773	0	0
2024-09-02 08:06:47			0	36114	0	0	0	28059	26610	162073	27327	1073708	46939	110418	0	0	8017	621225	0	0
2024-09-02 08:07:47			0	36085	0	0	0	28059	26620	162089	27298	1073825	46961	110418	0	0	8015	622412	0	0
2024-09-02 08:08:47			0	36103	0	0	0	28057	26610	162081	27124	1073762	46951	110417	0	0	8016	621689	0	0
2024-09-02 08:09:47			0	36105	0	0	0	28046	26610	162049	27306	1073762	46972	110413	0	0	8017	621604	0	0
2024-09-02 08:10:47			0	36101	0	0	0	28044	26620	162021	27261	1073834	46940	110412	0	0	8016	621737	0	0
2024-09-02 08:11:47			0	36089	0	0	0	28051	26620	162105	27071	1073780	46952	110415	0	0	8016	622243	0	0
2024-09-02 08:12:47			0	36094	0	0	0	28067	26620	162049	27365	1073771	46951	110421	0	0	8016	622032	0	0
2024-09-02 08:13:47			0	36095	0	0	0	28080	26630	162021	27010	1073897	46953	110426	0	0	8016	621955	0	0
2024-09-02 08:14:47			0	36097	0	0	0	28070	26630	161981	27183	1073825	46942	110422	0	0	8016	621870	0	0
2024-09-02 08:15:47			0	36111	0	0	0	28072	26630	162041	27317	1073852	46954	110423	0	0	8017	621280	0	0
2024-09-02 08:16:47			0	36091	0	0	0	28077	26630	161969	27274	1073897	46963	110425	0	0	8015	622123	0	0
2024-09-02 08:17:47			0	36099	0	0	0	28075	26620	162009	27163	1073861	46940	110424	0	0	8016	621822	0	0
2024-09-02 08:18:47			0	36116	0	0	0	28062	26630	162029	27196	1073879	46964	110419	0	0	8017	621070	0	0
2024-09-02 08:19:47			0	36115	0	0	0	28057	26630	161929	27083	1073924	46941	110417	0	0	8017	621112	0	0
2024-09-02 08:20:47			0	36116	0	0	0	28054	26640	161909	27164	1073924	46954	110416	0	0	8017	621034	0	0
2024-09-02 08:21:47			0	36104	0	0	0	28036	26640	161941	27057	1073888	46942	110409	0	0	8017	621540	0	0
2024-09-02 08:22:47			0	36100	0	0	0	28028	26630	161937	27161	1073825	46931	110406	0	0	8017	621744	0	0
2024-09-02 08:23:47			0	36106	0	0	0	28002	26630	161997	27213	1073825	46942	110396	0	0	8018	621491	0	0
2024-09-02 08:24:47			0	36106	0	0	0	27994	26630	161977	26965	1073789	46930	110393	0	0	8018	621491	0	0
2024-09-02 08:25:47			0	36102	0	0	0	27989	26620	162041	27248	1073753	46929	110391	0	0	8017	621695	0	0
2024-09-02 08:26:47			0	36109	0	0	0	28002	26610	161937	26819	1073735	46928	110396	0	0	8018	621436	0	0
2024-09-02 08:27:47			0	36094	0	0	0	27992	26620	162017	26989	1073718	46928	110392	0	0	8017	622032	0	0
2024-09-02 08:28:47			0	36091	0	0	0	27997	26610	161985	27072	1073789	46939	110394	0	0	8017	622195	0	0
2024-09-02 08:29:47			0	36105	0	0	0	28010	26610	161961	27015	1073708	46939	110399	0	0	8017	621604	0	0
2024-09-02 08:30:47			0	36119	0	0	0	28028	26610	161965	27060	1073682	46939	110406	0	0	8018	621015	0	0
2024-09-02 08:31:47			0	36102	0	0	0	28038	26610	162029	26948	1073753	46951	110410	0	0	8017	621731	0	0
2024-09-02 08:32:47			0	36095	0	0	0	28051	26610	161977	27050	1073789	46961	110415	0	0	8016	622026	0	0
2024-09-02 08:33:47			0	36094	0	0	0	28046	26610	161929	26878	1073762	46961	110413	0	0	8016	622068	0	0
2024-09-02 08:34:47			0	36112	0	0	0	28038	26620	162001	27012	1073798	46961	110410	0	0	8017	621274	0	0
2024-09-02 08:35:47			0	36101	0	0	0	28031	26630	162089	27248	1073843	46963	110407	0	0	8017	621702	0	0
2024-09-02 08:36:47			0	36094	0	0	0	28036	26610	162161	26946	1073816	46951	110409	0	0	8016	622068	0	0
2024-09-02 08:37:47			0	36099	0	0	0	28064	26630	161965	27253	1073897	46953	110420	0	0	8016	621786	0	0
2024-09-02 08:38:47			0	36080	0	0	0	28070	26630	162001	26975	1073978	46963	110422	0	0	8015	622587	0	0
2024-09-02 08:39:47			0	36095	0	0	0	28064	26630	162037	27024	1073897	46953	110420	0	0	8016	621955	0	0
2024-09-02 08:40:47			0	36102	0	0	0	28080	26630	162093	27168	1073960	46954	110426	0	0	8016	621660	0	0
2024-09-02 08:41:47			0	36079	0	0	0	28085	26640	162137	27112	1074005	46964	110428	0	0	8015	622594	0	0
2024-09-02 08:42:47			0	36086	0	0	0	28093	26650	162005	27111	1073987	46955	110431	0	0	8015	622263	0	0
2024-09-02 08:43:47			0	36111	0	0	0	28085	26660	162037	27260	1074050	46956	110428	0	0	8017	621174	0	0
2024-09-02 08:44:47			0	36095	0	0	0	28080	26650	161921	27168	1074014	46932	110426	0	0	8016	621883	0	0
2024-09-02 08:45:47			0	36112	0	0	0	28064	26660	162041	27121	1074059	46956	110420	0	0	8017	621132	0	0
2024-09-02 08:46:47			0	36104	0	0	0	28051	26640	161969	27312	1073978	46942	110415	0	0	8017	621540	0	0
2024-09-02 08:47:47			0	36099	0	0	0	28046	26660	161969	27277	1073969	46944	110413	0	0	8017	621679	0	0
2024-09-02 08:48:47			0	36098	0	0	0	28044	26640	162029	27157	1073969	46931	110412	0	0	8016	621793	0	0
2024-09-02 08:49:47			0	36101	0	0	0	28038	26660	161925	27279	1073996	46933	110410	0	0	8017	621595	0	0
2024-09-02 08:50:47			0	36099	0	0	0	28041	26660	161881	27111	1074023	46956	110411	0	0	8017	621679	0	0
2024-09-02 08:51:47			0	36096	0	0	0	28051	26640	161973	27336	1073924	46920	110415	0	0	8016	621877	0	0
2024-09-02 08:52:47			0	36068	0	0	0	28057	26650	161997	27175	1073960	46943	110417	0	0	8014	623022	0	0
2024-09-02 08:53:47			0	36096	0	0	0	28059	26660	161965	27365	1074023	46956	110418	0	0	8016	621806	0	0
2024-09-02 08:54:47			0	36089	0	0	0	28049	26640	161981	27372	1073897	46954	110414	0	0	8016	622172	0	0
2024-09-02 08:55:47			0	36086	0	0	0	28059	26650	162005	27242	1073987	46965	110418	0	0	8015	622263	0	0
2024-09-02 08:56:47			0	36098	0	0	0	28046	26650	161897	26965	1073960	46943	110413	0	0	8016	621757	0	0
2024-09-02 08:57:47			0	36114	0	0	0	28059	26650	161909	27232	1073960	46955	110418	0	0	8017	621083	0	0
2024-09-02 08:58:47			0	36117	0	0	0	28062	26650	161913	27060	1073960	46955	110419	0	0	8017	620957	0	0
2024-09-02 08:59:47			0	36106	0	0	0	28080	26660	161961	27300	1073969	46956	110426	0	0	8016	621384	0	0
2024-09-02 09:00:47			0	36120	0	0	0	28085	26660	162033	27111	1074023	46956	110428	0	0	8017	620795	0	0
2024-09-02 09:01:47			0	36134	0	0	0	28080	26660	161841	27161	1074023	46933	110426	0	0	8018	620205	0	0
2024-09-02 09:02:47			0	36130	0	0	0	28083	26660	161837	27163	1074032	46956	110427	0	0	8018	620374	0	0
2024-09-02 09:03:47			0	36157	0	0	0	28090	26670	161709	27251	1074077	46967	110430	0	0	8019	619203	0	0
2024-09-02 09:04:47			0	36159	0	0	0	28096	26670	161717	26764	1074104	46967	110432	0	0	8019	619119	0	0
2024-09-02 09:05:47			0	36149	0	0	0	28093	26680	161705	27045	1074140	46946	110431	0	0	8019	619504	0	0
2024-09-02 09:06:47			0	36163	0	0	0	28090	26670	161697	27267	1074068	46944	110430	0	0	8020	618951	0	0
2024-09-02 09:07:47			0	36154	0	0	0	28103	26680	161589	27053	1074203	46958	110435	0	0	8019	619294	0	0
2024-09-02 09:08:47			0	36159	0	0	0	28109	26690	161685	27168	1074185	46958	110437	0	0	8019	619048	0	0
2024-09-02 09:09:47			0	36158	0	0	0	28116	26690	161681	27145	1074221	46980	110440	0	0	8019	619090	0	0
2024-09-02 09:10:47			0	36180	0	0	0	28124	26690	161617	26908	1074212	46968	110443	0	0	8020	618166	0	0
2024-09-02 09:11:47			0	36184	0	0	0	28122	26700	161605	27175	1074176	46948	110442	0	0	8021	617963	0	0
2024-09-02 09:12:47			0	36178	0	0	0	28129	26700	161505	27088	1074257	46970	110445	0	0	8020	618215	0	0
2024-09-02 09:13:47			0	36190	0	0	0	28129	26710	161585	27260	1074248	46960	110445	0	0	8021	617676	0	0
2024-09-02 09:14:47			0	36191	0	0	0	28122	26700	161501	27187	1074284	46948	110442	0	0	8021	617669	0	0
2024-09-02 09:15:47			0	36207	0	0	0	28135	26710	161485	26963	1074248	46949	110447	0	0	8022	616963	0	0
2024-09-02 09:16:47			0	36195	0	0	0	28124	26710	161501	27265	1074338	46949	110443	0	0	8021	617466	0	0
2024-09-02 09:17:47			0	36206	0	0	0	28127	26710	161441	27081	1074284	46949	110444	0	0	8022	617005	0	0
2024-09-02 09:18:47			0	36214	0	0	0	28127	26700	161353	26899	1074266	46960	110444	0	0	8022	616705	0	0
2024-09-02 09:19:47			0	36242	0	0	0	28129	26710	161281	27171	1074311	46949	110445	0	0	8024	615497	0	0
2024-09-02 09:20:47			0	36256	0	0	0	28129	26720	161313	27409	1074293	46950	110445	0	0	8025	614876	0	0
2024-09-02 09:21:47			0	36259	0	0	0	28135	26710	161233	27114	1074338	46949	110447	0	0	8025	614786	0	0
2024-09-02 09:22:47			0	36293	0	0	0	28124	26720	161137	27163	1074320	46939	110443	0	0	8027	613330	0	0
2024-09-02 09:23:47			0	36289	0	0	0	28137	26710	161209	27242	1074364	46949	110448	0	0	8027	613532	0	0
2024-09-02 09:24:47			0	36300	0	0	0	28142	26720	161093	27057	1074382	46962	110450	0	0	8027	613038	0	0
2024-09-02 09:25:47			0	36320	0	0	0	28148	26720	160973	27206	1074356	46951	110452	0	0	8028	612204	0	0
2024-09-02 09:26:47			0	36346	0	0	0	28145	26720	160941	27211	1074409	46962	110451	0	0	8030	611121	0	0
2024-09-02 09:27:47			0	36327	0	0	0	28148	26720	160897	27223	1074382	46962	110452	0	0	8029	611912	0	0
2024-09-02 09:28:47			0	36353	0	0	0	28153	26730	160885	27171	1074401	46951	110454	0	0	8030	610794	0	0
2024-09-02 09:29:47			0	36353	0	0	0	28158	26730	160873	27202	1074454	46962	110456	0	0	8030	610794	0	0
2024-09-02 09:30:47			0	36352	0	0	0	28148	26740	160777	26974	1074436	46952	110452	0	0	8030	610801	0	0
2024-09-02 09:31:47			0	36372	0	0	0	28158	26730	160749	27157	1074508	46962	110456	0	0	8031	610004	0	0
2024-09-02 09:32:47			0	36392	0	0	0	28155	26730	160681	27260	1074454	46973	110455	0	0	8033	609173	0	0
2024-09-02 09:33:47			0	36375	0	0	0	28148	26740	160597	27156	1074410	46974	110452	0	0	8032	609844	0	0
2024-09-02 09:34:47			0	36418	0	0	0	28163	26740	160613	27228	1074383	46963	110458	0	0	8034	608058	0	0
2024-09-02 09:35:47			0	36403	0	0	0	28155	26740	160549	27048	1074419	46953	110455	0	0	8033	608681	0	0
2024-09-02 09:36:47			0	36422	0	0	0	28166	26740	160457	27183	1074436	46952	110459	0	0	8034	607892	0	0
2024-09-02 09:37:47			0	36435	0	0	0	28163	26740	160477	26915	1074463	46974	110458	0	0	8035	607353	0	0
2024-09-02 09:38:47			0	36454	0	0	0	28166	26750	160345	27376	1074455	46964	110459	0	0	8036	606531	0	0
2024-09-02 09:39:47			0	36491	0	0	0	28158	26750	160165	26812	1074544	46964	110456	0	0	8039	605000	0	0
2024-09-02 09:40:47			0	36534	0	0	0	28163	26760	159969	27138	1074500	46965	110458	0	0	8041	603190	0	0
2024-09-02 09:41:47			0	36560	0	0	0	28168	26760	159853	27190	1074553	46943	110460	0	0	8043	602117	0	0
2024-09-02 09:42:47			0	36621	0	0	0	28168	26760	159738	27294	1074473	46965	110460	0	0	8046	599607	0	0
2024-09-02 09:43:47			0	36636	0	0	0	28155	26750	159550	27279	1074562	46964	110455	0	0	8047	599025	0	0
2024-09-02 09:44:47			0	36677	0	0	0	28168	26760	159350	27303	1074580	46954	110460	0	0	8050	597309	0	0
2024-09-02 09:45:47			0	36691	0	0	0	28163	26750	159218	27194	1074535	46964	110458	0	0	8050	596770	0	0
2024-09-02 09:46:47			0	36737	0	0	0	28171	26750	159166	27130	1074517	46964	110461	0	0	8053	594888	0	0
2024-09-02 09:47:47			0	36720	0	0	0	28163	26760	159138	27152	1074580	46943	110458	0	0	8052	595549	0	0
2024-09-02 09:48:47			0	36729	0	0	0	28173	26770	159098	27161	1074580	46978	110462	0	0	8053	595147	0	0
2024-09-02 09:49:47			0	36732	0	0	0	28173	26760	159094	27053	1074616	46955	110462	0	0	8053	595058	0	0
2024-09-02 09:50:47			0	36764	0	0	0	28176	26760	159078	27227	1074589	46955	110463	0	0	8055	593751	0	0
2024-09-02 09:51:47			0	36754	0	0	0	28171	26770	159046	27282	1074652	46934	110461	0	0	8054	594125	0	0
2024-09-02 09:52:47			0	36747	0	0	0	28179	26760	159082	27393	1074562	46955	110464	0	0	8054	594445	0	0
2024-09-02 09:53:47			0	36760	0	0	0	28176	26770	159050	27235	1074625	46934	110463	0	0	8054	593880	0	0
2024-09-02 09:54:47			0	36776	0	0	0	28171	26770	158950	27261	1074598	46967	110461	0	0	8055	593227	0	0
2024-09-02 09:55:47			0	36758	0	0	0	28173	26780	159074	27341	1074616	46967	110462	0	0	8054	593928	0	0
2024-09-02 09:56:47			0	36755	0	0	0	28179	26760	159018	26885	1074616	46966	110464	0	0	8054	594118	0	0
2024-09-02 09:57:47			0	36771	0	0	0	28179	26770	158994	27343	1074607	46956	110464	0	0	8055	593431	0	0
2024-09-02 09:58:47			0	36790	0	0	0	28181	26770	159010	27265	1074625	46967	110465	0	0	8056	592656	0	0
2024-09-02 09:59:47			0	36773	0	0	0	28184	26770	158970	27237	1074625	46956	110466	0	0	8055	593350	0	0
2024-09-02 10:00:47			0	36795	0	0	0	28171	26770	158978	27390	1074607	46956	110461	0	0	8057	592453	0	0
2024-09-02 10:01:47			0	36788	0	0	0	28171	26770	158810	27222	1074607	46956	110461	0	0	8056	592738	0	0
2024-09-02 10:02:47			0	36800	0	0	0	28181	26780	158878	27149	1074670	46967	110465	0	0	8057	592215	0	0
2024-09-02 10:03:47			0	36795	0	0	0	28184	26780	158894	27170	1074670	46945	110466	0	0	8056	592419	0	0
2024-09-02 10:04:47			0	36819	0	0	0	28181	26780	158706	27244	1074679	46957	110465	0	0	8058	591441	0	0
2024-09-02 10:05:47			0	36819	0	0	0	28179	26780	158770	27196	1074697	46967	110464	0	0	8058	591441	0	0
2024-09-02 10:06:47			0	36815	0	0	0	28184	26780	158774	26984	1074679	46979	110466	0	0	8058	591604	0	0
2024-09-02 10:07:47			0	36821	0	0	0	28179	26780	158694	27033	1074652	46968	110464	0	0	8058	591360	0	0
2024-09-02 10:08:47			0	36839	0	0	0	28192	26780	158822	27246	1074670	46956	110469	0	0	8059	590627	0	0
2024-09-02 10:09:47			0	36836	0	0	0	28197	26780	158658	27152	1074679	46946	110471	0	0	8059	590750	0	0
2024-09-02 10:10:47			0	36842	0	0	0	28189	26780	158666	27059	1074643	46945	110468	0	0	8059	590506	0	0
2024-09-02 10:11:47			0	36842	0	0	0	28179	26780	158586	27261	1074706	46957	110464	0	0	8059	590506	0	0
2024-09-02 10:12:47			0	36856	0	0	0	28186	26770	158546	27364	1074661	46945	110467	0	0	8060	589970	0	0
2024-09-02 10:13:47			0	36872	0	0	0	28181	26790	158566	27149	1074715	46969	110465	0	0	8061	589253	0	0
2024-09-02 10:14:47			0	36870	0	0	0	28186	26780	158546	27279	1074697	46967	110467	0	0	8061	589368	0	0
2024-09-02 10:15:47			0	36862	0	0	0	28186	26780	158530	27206	1074697	46945	110467	0	0	8060	589693	0	0
2024-09-02 10:16:47			0	36875	0	0	0	28194	26790	158570	27552	1074698	46958	110470	0	0	8061	589131	0	0
2024-09-02 10:17:47			0	36865	0	0	0	28192	26790	158534	27327	1074698	46969	110469	0	0	8060	589537	0	0
2024-09-02 10:18:47			0	36877	0	0	0	28192	26780	158522	27166	1074706	46968	110469	0	0	8061	589084	0	0
2024-09-02 10:19:47			0	36879	0	0	0	28194	26780	158514	27336	1074670	46956	110470	0	0	8061	589002	0	0
2024-09-02 10:20:47			0	36873	0	0	0	28197	26790	158542	27225	1074778	46958	110471	0	0	8061	589212	0	0
2024-09-02 10:21:47			0	36864	0	0	0	28199	26800	158482	27178	1074760	46936	110472	0	0	8060	589544	0	0
2024-09-02 10:22:47			0	36874	0	0	0	28202	26790	158422	27197	1074742	46947	110473	0	0	8061	589171	0	0
2024-09-02 10:23:47			0	36882	0	0	0	28202	26790	158390	27244	1074742	46958	110473	0	0	8061	588847	0	0
2024-09-02 10:24:47			0	36893	0	0	0	28205	26800	158426	27137	1074787	46958	110474	0	0	8062	588367	0	0
2024-09-02 10:25:47			0	36913	0	0	0	28202	26790	158410	27390	1074778	46958	110473	0	0	8063	587590	0	0
2024-09-02 10:26:47			0	36891	0	0	0	28207	26790	158466	27275	1074805	46958	110475	0	0	8062	588482	0	0
2024-09-02 10:27:47			0	36887	0	0	0	28212	26800	158378	27265	1074787	46936	110477	0	0	8061	588610	0	0
2024-09-02 10:28:47			0	36911	0	0	0	28210	26790	158394	27159	1074805	46958	110476	0	0	8063	587671	0	0
2024-09-02 10:29:47			0	36904	0	0	0	28225	26810	158362	27206	1074841	46971	110482	0	0	8062	587887	0	0
2024-09-02 10:30:47			0	36903	0	0	0	28231	26800	158322	27334	1074823	46958	110484	0	0	8062	587961	0	0
2024-09-02 10:31:47			0	36907	0	0	0	28228	26810	158326	27253	1074814	46959	110483	0	0	8062	587765	0	0
2024-09-02 10:32:47			0	36907	0	0	0	28231	26800	158370	27339	1074877	46970	110484	0	0	8062	587799	0	0
2024-09-02 10:33:47			0	36893	0	0	0	28236	26810	158314	27507	1074859	46959	110486	0	0	8061	588333	0	0
2024-09-02 10:34:47			0	36911	0	0	0	28241	26810	158302	27329	1074805	46949	110488	0	0	8062	587603	0	0
2024-09-02 10:35:47			0	36908	0	0	0	28238	26820	158282	27078	1074877	46959	110487	0	0	8062	587691	0	0
2024-09-02 10:36:47			0	36901	0	0	0	28238	26820	158214	27213	1074967	46960	110487	0	0	8062	587975	0	0
2024-09-02 10:37:47			0	36900	0	0	0	28233	26830	158262	27199	1074949	46951	110485	0	0	8062	587982	0	0
2024-09-02 10:38:47			0	36909	0	0	0	28249	26820	158278	27124	1074940	46983	110491	0	0	8062	587651	0	0
2024-09-02 10:39:47			0	36898	0	0	0	28259	26830	158414	27194	1074976	46961	110495	0	0	8061	588063	0	0
2024-09-02 10:40:47			0	36906	0	0	0	28254	26830	158254	27112	1074976	46973	110493	0	0	8062	587739	0	0
2024-09-02 10:41:47			0	36892	0	0	0	28270	26830	158262	27126	1075003	46961	110499	0	0	8061	588306	0	0
2024-09-02 10:42:47			0	36901	0	0	0	28259	26840	158334	27078	1074994	46974	110495	0	0	8062	587908	0	0
2024-09-02 10:43:47			0	36910	0	0	0	28264	26830	158322	27005	1074985	46984	110497	0	0	8062	587576	0	0
2024-09-02 10:44:47			0	36902	0	0	0	28259	26830	158210	26920	1075039	46984	110495	0	0	8062	587901	0	0
2024-09-02 10:45:47			0	36905	0	0	0	28264	26830	158262	27060	1075066	46973	110497	0	0	8062	587779	0	0
2024-09-02 10:46:47			0	36910	0	0	0	28267	26840	158174	27135	1075084	46962	110498	0	0	8062	587543	0	0
2024-09-02 10:47:47			0	36910	0	0	0	28270	26850	158126	27365	1075066	46963	110499	0	0	8062	587509	0	0
2024-09-02 10:48:47			0	36921	0	0	0	28275	26850	158118	27027	1075093	46963	110501	0	0	8063	587063	0	0
2024-09-02 10:49:47			0	36954	0	0	0	28280	26860	158170	27293	1075138	46954	110503	0	0	8065	585695	0	0
2024-09-02 10:50:47			0	36964	0	0	0	28285	26850	157982	27536	1075129	46954	110505	0	0	8065	585324	0	0
2024-09-02 10:51:47			0	36968	0	0	0	28272	26860	157962	27306	1075138	46976	110500	0	0	8066	585129	0	0
2024-09-02 10:52:47			0	36984	0	0	0	28277	26860	157874	27341	1075138	46943	110502	0	0	8066	584482	0	0
2024-09-02 10:53:47			0	36994	0	0	0	28288	26860	157854	27048	1075174	46964	110506	0	0	8067	584079	0	0
2024-09-02 10:54:47			0	37010	0	0	0	28290	26870	157806	27341	1075210	46977	110507	0	0	8068	583400	0	0
2024-09-02 10:55:47			0	37021	0	0	0	28301	26860	157686	27371	1075201	46976	110511	0	0	8068	582990	0	0
2024-09-02 10:56:47			0	37027	0	0	0	28296	26860	157658	27196	1075147	46976	110509	0	0	8069	582748	0	0
2024-09-02 10:57:47			0	37044	0	0	0	28311	26880	157834	27232	1075237	46967	110515	0	0	8069	581996	0	0
2024-09-02 10:58:47			0	37041	0	0	0	28335	26870	157686	27177	1075273	46967	110524	0	0	8069	582151	0	0
2024-09-02 10:59:47			0	37038	0	0	0	28358	26880	157726	27197	1075335	46967	110533	0	0	8068	582238	0	0
2024-09-02 11:00:47			0	37036	0	0	0	28355	26890	157682	27265	1075380	46990	110532	0	0	8068	582285	0	0
2024-09-02 11:01:47			0	37036	0	0	0	28361	26910	157742	27296	1075470	46981	110534	0	0	8068	582218	0	0
2024-09-02 11:02:47			0	37032	0	0	0	28350	26910	157714	27305	1075399	46982	110530	0	0	8068	582379	0	0
2024-09-02 11:03:47			0	37030	0	0	0	28355	26910	157698	27039	1075399	46982	110532	0	0	8068	582460	0	0
2024-09-02 11:04:47			0	37031	0	0	0	28379	26920	157714	27396	1075489	46971	110541	0	0	8068	582386	0	0
2024-09-02 11:05:47			0	37023	0	0	0	28366	26930	157842	27369	1075561	46983	110536	0	0	8068	582675	0	0
2024-09-02 11:06:47			0	37016	0	0	0	28348	26930	157730	27272	1075597	47006	110529	0	0	8067	582957	0	0
2024-09-02 11:07:47			0	37024	0	0	0	28358	26930	157646	27078	1075570	46973	110533	0	0	8068	582635	0	0
2024-09-02 11:08:47			0	37032	0	0	0	28374	26930	157666	27642	1075597	46973	110539	0	0	8068	582313	0	0
2024-09-02 11:09:47			0	37031	0	0	0	28381	26940	157686	27185	1075606	46974	110542	0	0	8068	582320	0	0
2024-09-02 11:10:47			0	37037	0	0	0	28384	26950	157698	27209	1075704	46986	110543	0	0	8068	582045	0	0
2024-09-02 11:11:47			0	37029	0	0	0	28402	26950	157654	27267	1075678	47008	110550	0	0	8067	582367	0	0
2024-09-02 11:12:47			0	37033	0	0	0	28410	26970	157618	27502	1075678	46987	110553	0	0	8068	582139	0	0
2024-09-02 11:13:47			0	37023	0	0	0	28405	26970	157742	27351	1075768	46999	110551	0	0	8067	582542	0	0
2024-09-02 11:14:47			0	37053	0	0	0	28415	26970	157734	27092	1075705	46976	110555	0	0	8069	581334	0	0
2024-09-02 11:15:47			0	37032	0	0	0	28415	26980	157622	27461	1075786	46989	110555	0	0	8067	582146	0	0
2024-09-02 11:16:47			0	37048	0	0	0	28415	26980	157482	27131	1075830	46965	110555	0	0	8068	581502	0	0
2024-09-02 11:17:47			0	37055	0	0	0	28431	26980	157674	27170	1075813	46978	110561	0	0	8069	581220	0	0
2024-09-02 11:18:47			0	37055	0	0	0	28418	27000	157570	27575	1075867	47000	110556	0	0	8069	581154	0	0
2024-09-02 11:19:47			0	37056	0	0	0	28418	27000	157534	27199	1075929	46980	110556	0	0	8069	581113	0	0
2024-09-02 11:20:47			0	37066	0	0	0	28415	27000	157474	27550	1075849	46980	110555	0	0	8070	580711	0	0
2024-09-02 11:21:47			0	37050	0	0	0	28415	27010	157530	27206	1075939	46980	110555	0	0	8069	581321	0	0
2024-09-02 11:22:47			0	37059	0	0	0	28418	27010	157538	27339	1075965	46980	110556	0	0	8069	580960	0	0
2024-09-02 11:23:47			0	37060	0	0	0	28431	27010	157550	27460	1075894	46969	110561	0	0	8069	580919	0	0
2024-09-02 11:24:47			0	37066	0	0	0	28446	27010	157538	27147	1075867	46992	110567	0	0	8069	580678	0	0
2024-09-02 11:25:47			0	37071	0	0	0	28454	27010	157490	27076	1076002	46981	110570	0	0	8069	580477	0	0
2024-09-02 11:26:47			0	37063	0	0	0	28454	27030	157458	27280	1075975	46982	110570	0	0	8069	580732	0	0
2024-09-02 11:27:47			0	37085	0	0	0	28462	27030	157442	27211	1076038	46971	110573	0	0	8070	579848	0	0
2024-09-02 11:28:47			0	37083	0	0	0	28459	27030	157490	27452	1076065	46983	110572	0	0	8070	579929	0	0
2024-09-02 11:29:47			0	37107	0	0	0	28462	27030	157330	27293	1076065	46983	110573	0	0	8071	578966	0	0
2024-09-02 11:30:47			0	37115	0	0	0	28470	27040	157438	27268	1076083	46995	110576	0	0	8072	578611	0	0
2024-09-02 11:31:47			0	37123	0	0	0	28472	27040	157358	27332	1076155	47005	110577	0	0	8072	578291	0	0
2024-09-02 11:32:47			0	37138	0	0	0	28519	27050	157218	27372	1076227	46996	110595	0	0	8072	577657	0	0
2024-09-02 11:33:47			0	37136	0	0	0	28516	27060	157158	27111	1076299	46997	110594	0	0	8072	577704	0	0
2024-09-02 11:34:47			0	37152	0	0	0	28522	27070	157090	27362	1076290	47020	110596	0	0	8073	577030	0	0
2024-09-02 11:35:47			0	37153	0	0	0	28529	27080	157158	27362	1076389	46999	110599	0	0	8073	576957	0	0
2024-09-02 11:36:47			0	37153	0	0	0	28509	27090	157050	27410	1076362	47000	110591	0	0	8074	576924	0	0
2024-09-02 11:37:47			0	37175	0	0	0	28516	27080	156930	27312	1076389	46988	110594	0	0	8075	576077	0	0
2024-09-02 11:38:47			0	37195	0	0	0	28558	27100	156914	27090	1076452	47000	110610	0	0	8075	575212	0	0
2024-09-02 11:39:47			0	37183	0	0	0	28573	27100	156886	27447	1076515	46991	110616	0	0	8074	575691	0	0
2024-09-02 11:40:47			0	37230	0	0	0	28581	27110	156766	27260	1076614	47013	110619	0	0	8077	573783	0	0
2024-09-02 11:41:47			0	37239	0	0	0	28548	27110	156622	27057	1076604	47013	110606	0	0	8078	573424	0	0
2024-09-02 11:42:47			0	37274	0	0	0	28545	27120	156574	27286	1076515	46980	110605	0	0	8080	571998	0	0
2024-09-02 11:43:47			0	37288	0	0	0	28548	27110	156502	27379	1076533	46991	110606	0	0	8081	571474	0	0
2024-09-02 11:44:47			0	37296	0	0	0	28563	27130	156422	27223	1076587	46981	110612	0	0	8081	571090	0	0
2024-09-02 11:45:47			0	37314	0	0	0	28581	27130	156375	27241	1076596	46994	110619	0	0	8082	570375	0	0
2024-09-02 11:46:47			0	37313	0	0	0	28584	27130	156371	27121	1076641	46981	110620	0	0	8082	570415	0	0
2024-09-02 11:47:47			0	37318	0	0	0	28584	27140	156367	27614	1076659	47027	110620	0	0	8082	570183	0	0
2024-09-02 11:48:47			0	37320	0	0	0	28568	27140	156419	27324	1076632	47016	110614	0	0	8083	570104	0	0
2024-09-02 11:49:47			0	37327	0	0	0	28561	27150	156247	27301	1076650	46996	110611	0	0	8083	569794	0	0
2024-09-02 11:50:47			0	37339	0	0	0	28561	27150	156131	27098	1076650	46973	110611	0	0	8084	569317	0	0
2024-09-02 11:51:47			0	37364	0	0	0	28555	27150	156175	26932	1076677	46996	110609	0	0	8085	568327	0	0
2024-09-02 11:52:47			0	37364	0	0	0	28563	27140	156175	27182	1076641	46984	110612	0	0	8085	568359	0	0
2024-09-02 11:53:47			0	37365	0	0	0	28563	27140	156111	27343	1076695	46972	110612	0	0	8085	568320	0	0
2024-09-02 11:54:47			0	37373	0	0	0	28566	27150	156095	27176	1076659	46996	110613	0	0	8086	567970	0	0
2024-09-02 11:55:47			0	37365	0	0	0	28566	27150	156127	27208	1076677	46973	110613	0	0	8085	568287	0	0
2024-09-02 11:56:47			0	37372	0	0	0	28568	27150	156091	27300	1076677	46996	110614	0	0	8086	568010	0	0
2024-09-02 11:57:47			0	37359	0	0	0	28566	27150	156135	27448	1076650	46996	110613	0	0	8085	568525	0	0
2024-09-02 11:58:47			0	37372	0	0	0	28573	27150	156171	27301	1076686	46984	110616	0	0	8086	568010	0	0
2024-09-02 11:59:47			0	37384	0	0	0	28566	27160	156027	27253	1076722	46973	110613	0	0	8086	567502	0	0
2024-09-02 12:00:47			0	37377	0	0	0	28555	27160	156043	27222	1076695	46984	110609	0	0	8086	567779	0	0
2024-09-02 12:01:47			0	37385	0	0	0	28558	27150	156067	27130	1076677	46984	110610	0	0	8087	567495	0	0
2024-09-02 12:02:47			0	37370	0	0	0	28558	27160	156075	27395	1076695	46996	110610	0	0	8086	568057	0	0
2024-09-02 12:03:47			0	37371	0	0	0	28550	27150	156123	27203	1076632	46984	110607	0	0	8086	568050	0	0
2024-09-02 12:04:47			0	37369	0	0	0	28542	27150	156067	27281	1076569	46996	110604	0	0	8086	568129	0	0
2024-09-02 12:05:47			0	37345	0	0	0	28550	27160	156079	27338	1076668	46984	110607	0	0	8084	569047	0	0
2024-09-02 12:06:47			0	37375	0	0	0	28553	27150	156095	27275	1076596	47006	110608	0	0	8086	567891	0	0
2024-09-02 12:07:47			0	37372	0	0	0	28558	27150	156051	27317	1076578	46984	110610	0	0	8086	568010	0	0
2024-09-02 12:08:47			0	37371	0	0	0	28558	27150	155987	26708	1076569	47006	110610	0	0	8086	568050	0	0
2024-09-02 12:09:47			0	37365	0	0	0	28568	27140	156047	27315	1076641	47005	110614	0	0	8085	568320	0	0
2024-09-02 12:10:47			0	37376	0	0	0	28561	27150	156067	27372	1076623	46996	110611	0	0	8086	567852	0	0
2024-09-02 12:11:47			0	37365	0	0	0	28555	27150	156127	27178	1076596	46984	110609	0	0	8085	568287	0	0
2024-09-02 12:12:47			0	37371	0	0	0	28555	27140	156163	27371	1076587	46984	110609	0	0	8086	568082	0	0
2024-09-02 12:13:47			0	37378	0	0	0	28555	27150	156123	27369	1076623	46996	110609	0	0	8086	567772	0	0
2024-09-02 12:14:47			0	37358	0	0	0	28558	27140	156135	27003	1076587	47005	110610	0	0	8085	568597	0	0
2024-09-02 12:15:47			0	37371	0	0	0	28558	27150	156039	27196	1076605	46996	110610	0	0	8086	568050	0	0
2024-09-02 12:16:47			0	37370	0	0	0	28553	27150	156159	27281	1076569	46996	110608	0	0	8086	568089	0	0
2024-09-02 12:17:47			0	37359	0	0	0	28561	27150	156135	27305	1076596	47006	110611	0	0	8085	568525	0	0
2024-09-02 12:18:47			0	37373	0	0	0	28584	27140	156055	27450	1076641	47017	110620	0	0	8085	568003	0	0
2024-09-02 12:19:47			0	37374	0	0	0	28594	27140	156059	27126	1076695	47017	110624	0	0	8085	567963	0	0
2024-09-02 12:20:47			0	37368	0	0	0	28605	27150	156079	27274	1076767	46996	110628	0	0	8085	568168	0	0
2024-09-02 12:21:47			0	37370	0	0	0	28599	27160	156151	27414	1076749	46996	110626	0	0	8085	568057	0	0
2024-09-02 12:22:47			0	37379	0	0	0	28612	27170	156227	27145	1076794	46998	110631	0	0	8085	567667	0	0
2024-09-02 12:23:47			0	37370	0	0	0	28612	27170	156175	27211	1076848	47008	110631	0	0	8085	568024	0	0
2024-09-02 12:24:47			0	37372	0	0	0	28623	27180	156139	27206	1076785	47008	110635	0	0	8085	567912	0	0
2024-09-02 12:25:47			0	37358	0	0	0	28631	27180	156247	27390	1076893	47031	110638	0	0	8084	568466	0	0
2024-09-02 12:26:47			0	37354	0	0	0	28623	27190	156071	27263	1076965	47000	110635	0	0	8084	568592	0	0
2024-09-02 12:27:47			0	37364	0	0	0	28623	27200	156131	27116	1076956	47022	110635	0	0	8084	568164	0	0
2024-09-02 12:28:47			0	37360	0	0	0	28631	27190	156107	27272	1076992	47000	110638	0	0	8084	568355	0	0
2024-09-02 12:29:47			0	37348	0	0	0	28631	27210	156151	26981	1076947	47024	110638	0	0	8083	568765	0	0
2024-09-02 12:30:47			0	37368	0	0	0	28641	27210	156155	27350	1077028	47012	110642	0	0	8084	567973	0	0
2024-09-02 12:31:47			0	37355	0	0	0	28641	27210	156127	27008	1077010	47002	110642	0	0	8084	568487	0	0
2024-09-02 12:32:47			0	37352	0	0	0	28654	27210	156167	27161	1077091	47002	110647	0	0	8083	568606	0	0
2024-09-02 12:33:47			0	37378	0	0	0	28659	27210	156159	27104	1077064	47013	110649	0	0	8085	567577	0	0
2024-09-02 12:34:47			0	37368	0	0	0	28664	27230	156243	27307	1077145	46993	110651	0	0	8084	567907	0	0
2024-09-02 12:35:47			0	37357	0	0	0	28675	27240	156167	27251	1077235	47015	110655	0	0	8083	568310	0	0
2024-09-02 12:36:47			0	37360	0	0	0	28690	27240	156147	27229	1077235	46994	110661	0	0	8083	568191	0	0
2024-09-02 12:37:47			0	37374	0	0	0	28688	27250	156083	27034	1077280	47027	110660	0	0	8084	567605	0	0
2024-09-02 12:38:47			0	37348	0	0	0	28696	27250	156063	27275	1077307	47027	110663	0	0	8083	568634	0	0
2024-09-02 12:39:47			0	37349	0	0	0	28690	27250	156111	27395	1077289	47016	110661	0	0	8083	568595	0	0
2024-09-02 12:40:47			0	37360	0	0	0	28677	27260	156119	27322	1077334	47029	110656	0	0	8084	568126	0	0
2024-09-02 12:41:47			0	37348	0	0	0	28696	27270	156011	27305	1077352	46997	110663	0	0	8083	568569	0	0
2024-09-02 12:42:47			0	37342	0	0	0	28722	27280	156043	27298	1077388	47019	110673	0	0	8082	568774	0	0
2024-09-02 12:43:47			0	37338	0	0	0	28724	27280	156107	27253	1077397	47032	110674	0	0	8082	568932	0	0
2024-09-02 12:44:47			0	37345	0	0	0	28690	27290	156023	27287	1077443	47032	110661	0	0	8083	568622	0	0
2024-09-02 12:45:47			0	37351	0	0	0	28716	27290	156091	27405	1077389	47009	110671	0	0	8083	568385	0	0
2024-09-02 12:46:47			0	37344	0	0	0	28698	27290	156175	27248	1077416	47032	110664	0	0	8082	568662	0	0
2024-09-02 12:47:47			0	37356	0	0	0	28685	27300	156119	27483	1077398	47010	110659	0	0	8083	568154	0	0
2024-09-02 12:48:47			0	37370	0	0	0	28690	27300	156167	27417	1077452	47010	110661	0	0	8084	567600	0	0
2024-09-02 12:49:47			0	37364	0	0	0	28703	27310	155999	27386	1077497	47000	110666	0	0	8084	567805	0	0
2024-09-02 12:50:47			0	37375	0	0	0	28714	27300	156127	27076	1077478	47010	110670	0	0	8084	567402	0	0
2024-09-02 12:51:47			0	37377	0	0	0	28714	27300	156127	27251	1077461	47011	110670	0	0	8084	567323	0	0
2024-09-02 12:52:47			0	37383	0	0	0	28719	27310	156031	27469	1077524	47000	110672	0	0	8084	567053	0	0
2024-09-02 12:53:47			0	37370	0	0	0	28729	27320	155931	27307	1077569	47035	110676	0	0	8084	567535	0	0
2024-09-02 12:54:47			0	37387	0	0	0	28758	27310	156031	27026	1077613	47022	110687	0	0	8084	566895	0	0
2024-09-02 12:55:47			0	37382	0	0	0	28774	27320	155951	27242	1077622	47045	110693	0	0	8084	567060	0	0
2024-09-02 12:56:47			0	37365	0	0	0	28779	27340	155955	27263	1077739	47047	110695	0	0	8083	567667	0	0
2024-09-02 12:57:47			0	37381	0	0	0	28750	27340	155935	27176	1077659	47037	110684	0	0	8084	567034	0	0
2024-09-02 12:58:47			0	37426	0	0	0	28758	27350	155823	27152	1077731	47016	110687	0	0	8087	565225	0	0
2024-09-02 12:59:47			0	37400	0	0	0	28781	27350	155875	27263	1077784	47016	110696	0	0	8085	566251	0	0
2024-09-02 13:00:47			0	37417	0	0	0	28805	27360	155763	27275	1077883	47039	110705	0	0	8085	565547	0	0
2024-09-02 13:01:47			0	37424	0	0	0	28786	27350	155687	27296	1077847	47028	110698	0	0	8086	565303	0	0
2024-09-02 13:02:47			0	37446	0	0	0	28768	27370	155635	27365	1077964	47030	110691	0	0	8088	564371	0	0
2024-09-02 13:03:47			0	37447	0	0	0	28750	27370	155543	27249	1077884	47007	110684	0	0	8088	564332	0	0
2024-09-02 13:04:47			0	37449	0	0	0	28745	27370	155491	27033	1077821	46996	110682	0	0	8088	564253	0	0
2024-09-02 13:05:47			0	37457	0	0	0	28742	27370	155419	26934	1077767	46996	110681	0	0	8089	563938	0	0
2024-09-02 13:06:47			0	37457	0	0	0	28781	27360	155499	27485	1077812	47006	110696	0	0	8088	563970	0	0
2024-09-02 13:07:47			0	37451	0	0	0	28799	27370	155543	27124	1077937	47018	110703	0	0	8087	564174	0	0
2024-09-02 13:08:47			0	37470	0	0	0	28786	27370	155587	27447	1077830	47007	110698	0	0	8089	563426	0	0
2024-09-02 13:09:47			0	37464	0	0	0	28768	27380	155479	27291	1077839	47030	110691	0	0	8089	563629	0	0
2024-09-02 13:10:47			0	37488	0	0	0	28776	27380	155455	27111	1077839	47007	110694	0	0	8090	562685	0	0
2024-09-02 13:11:47			0	37508	0	0	0	28774	27370	155419	27441	1077884	47018	110693	0	0	8091	561931	0	0
2024-09-02 13:12:47			0	37513	0	0	0	28771	27370	155423	27263	1077857	47007	110692	0	0	8091	561734	0	0
2024-09-02 13:13:47			0	37518	0	0	0	28802	27380	155427	27327	1077946	47007	110704	0	0	8091	561506	0	0
2024-09-02 13:14:47			0	37531	0	0	0	28823	27390	155359	27244	1078018	47032	110712	0	0	8092	560963	0	0
2024-09-02 13:15:47			0	37550	0	0	0	28820	27390	155199	27341	1077992	47020	110711	0	0	8093	560217	0	0
2024-09-02 13:16:47			0	37568	0	0	0	28781	27390	155167	27022	1077974	47032	110696	0	0	8095	559512	0	0
2024-09-02 13:17:47			0	37585	0	0	0	28815	27390	155063	27301	1078001	47032	110709	0	0	8095	558846	0	0
2024-09-02 13:18:47			0	37600	0	0	0	28836	27390	155039	27391	1078054	47020	110717	0	0	8095	558259	0	0
2024-09-02 13:19:47			0	37573	0	0	0	28812	27400	155095	27196	1078099	47010	110708	0	0	8094	559283	0	0
2024-09-02 13:20:47			0	37587	0	0	0	28799	27410	155031	27029	1078055	47034	110703	0	0	8095	558703	0	0
2024-09-02 13:21:47			0	37589	0	0	0	28818	27410	154991	27111	1077974	47034	110710	0	0	8095	558625	0	0
2024-09-02 13:22:47			0	37611	0	0	0	28828	27420	154947	27301	1078046	47023	110714	0	0	8096	557732	0	0
2024-09-02 13:23:47			0	37593	0	0	0	28825	27410	154947	27256	1078082	47022	110713	0	0	8095	558468	0	0
2024-09-02 13:24:47			0	37605	0	0	0	28794	27410	154919	27383	1078108	47022	110701	0	0	8097	557999	0	0
2024-09-02 13:25:47			0	37614	0	0	0	28805	27410	154935	27072	1078091	47011	110705	0	0	8097	557647	0	0
2024-09-02 13:26:47			0	37600	0	0	0	28810	27420	154827	27052	1078055	47023	110707	0	0	8096	558162	0	0
2024-09-02 13:27:47			0	37621	0	0	0	28815	27410	154755	27052	1078037	47022	110709	0	0	8097	557373	0	0
2024-09-02 13:28:47			0	37600	0	0	0	28815	27410	154823	27109	1078064	47022	110709	0	0	8096	558194	0	0
2024-09-02 13:29:47			0	37594	0	0	0	28815	27420	154891	27031	1078109	47035	110709	0	0	8096	558397	0	0
2024-09-02 13:30:47			0	37589	0	0	0	28825	27410	154891	27163	1078118	47022	110713	0	0	8095	558625	0	0
2024-09-02 13:31:47			0	37598	0	0	0	28828	27420	154895	27265	1078073	47012	110714	0	0	8096	558240	0	0
2024-09-02 13:32:47			0	37588	0	0	0	28844	27420	154815	27412	1078154	47012	110720	0	0	8095	558632	0	0
2024-09-02 13:33:47			0	37585	0	0	0	28846	27430	155055	27206	1078181	47037	110721	0	0	8095	558717	0	0
2024-09-02 13:34:47			0	37590	0	0	0	28844	27410	154915	27024	1078172	47034	110720	0	0	8095	558586	0	0
2024-09-02 13:35:47			0	37584	0	0	0	28823	27430	154959	27287	1078154	47014	110712	0	0	8095	558756	0	0
2024-09-02 13:36:47			0	37586	0	0	0	28836	27450	155047	27305	1078181	47026	110717	0	0	8095	558614	0	0
2024-09-02 13:37:47			0	37569	0	0	0	28870	27430	154991	27313	1078235	47037	110730	0	0	8093	559344	0	0
2024-09-02 13:38:47			0	37587	0	0	0	28916	27450	155043	27244	1078343	47038	110748	0	0	8094	558574	0	0
2024-09-02 13:39:47			0	37586	0	0	0	28872	27460	154947	27367	1078442	47049	110731	0	0	8094	558582	0	0
2024-09-02 13:40:47			0	37594	0	0	0	28857	27460	155051	27251	1078388	47060	110725	0	0	8095	558268	0	0
2024-09-02 13:41:47			0	37575	0	0	0	28838	27460	154971	27244	1078316	47005	110718	0	0	8094	559012	0	0
2024-09-02 13:42:47			0	37574	0	0	0	28864	27460	154919	27331	1078307	47016	110728	0	0	8094	559051	0	0
2024-09-02 13:43:47			0	37601	0	0	0	28859	27450	154983	27164	1078343	47015	110726	0	0	8095	558027	0	0
2024-09-02 13:44:47			0	37587	0	0	0	28846	27460	154883	27234	1078370	47005	110721	0	0	8095	558542	0	0
2024-09-02 13:45:47			0	37600	0	0	0	28851	27460	154863	27138	1078415	47005	110723	0	0	8096	558034	0	0
2024-09-02 13:46:47			0	37616	0	0	0	28841	27460	154927	27405	1078361	47027	110719	0	0	8097	557408	0	0
2024-09-02 13:47:47			0	37626	0	0	0	28880	27460	154815	27033	1078397	47027	110734	0	0	8097	557017	0	0
2024-09-02 13:48:47			0	37629	0	0	0	28867	27450	154803	27130	1078352	47039	110729	0	0	8097	556932	0	0
2024-09-02 13:49:47			0	37650	0	0	0	28862	27470	154823	27206	1078415	47041	110727	0	0	8098	556048	0	0
2024-09-02 13:50:47			0	37643	0	0	0	28831	27460	154691	27478	1078370	47016	110715	0	0	8098	556353	0	0
2024-09-02 13:51:47			0	37647	0	0	0	28805	27470	154675	27564	1078325	47006	110705	0	0	8099	556165	0	0
2024-09-02 13:52:47			0	37652	0	0	0	28818	27460	154671	27300	1078262	47005	110710	0	0	8099	556002	0	0
2024-09-02 13:53:47			0	37643	0	0	0	28867	27460	154795	27331	1078316	47016	110729	0	0	8098	556353	0	0
2024-09-02 13:54:47			0	37639	0	0	0	28828	27460	154803	27187	1078370	47027	110714	0	0	8098	556510	0	0
2024-09-02 13:55:47			0	37658	0	0	0	28810	27460	154663	27343	1078280	47016	110707	0	0	8100	555768	0	0
2024-09-02 13:56:47			0	37653	0	0	0	28849	27460	154739	27020	1078334	47005	110722	0	0	8099	555963	0	0
2024-09-02 13:57:47			0	37652	0	0	0	28857	27460	154579	27512	1078334	47027	110725	0	0	8098	556002	0	0
2024-09-02 13:58:47			0	37660	0	0	0	28859	27460	154635	27395	1078370	47027	110726	0	0	8099	555690	0	0
2024-09-02 13:59:47			0	37665	0	0	0	28870	27460	154599	27289	1078388	47005	110730	0	0	8099	555495	0	0
2024-09-02 14:00:47			0	37691	0	0	0	28893	27460	154559	27362	1078424	47027	110739	0	0	8100	554481	0	0
2024-09-02 14:01:47			0	37680	0	0	0	28911	27470	154679	27505	1078496	47041	110746	0	0	8099	554878	0	0
2024-09-02 14:02:47			0	37702	0	0	0	28896	27480	154551	27282	1078532	47029	110740	0	0	8101	553989	0	0
2024-09-02 14:03:47			0	37703	0	0	0	28929	27490	154491	27183	1078613	47042	110753	0	0	8100	553918	0	0
2024-09-02 14:04:47			0	37711	0	0	0	28919	27500	154419	27407	1078649	47053	110749	0	0	8101	553575	0	0
2024-09-02 14:05:47			0	37735	0	0	0	28932	27500	154387	27324	1078631	47043	110754	0	0	8102	552642	0	0
2024-09-02 14:06:47			0	37721	0	0	0	28924	27510	154375	27237	1078676	47033	110751	0	0	8102	553154	0	0
2024-09-02 14:07:47			0	37719	0	0	0	28903	27510	154379	27346	1078649	47033	110743	0	0	8102	553232	0	0
2024-09-02 14:08:47			0	37741	0	0	0	28898	27510	154371	27374	1078649	47033	110741	0	0	8103	552377	0	0
2024-09-02 14:09:47			0	37736	0	0	0	28914	27500	154463	27251	1078604	47032	110747	0	0	8103	552603	0	0
2024-09-02 14:10:47			0	37725	0	0	0	28922	27510	154455	27452	1078649	47044	110750	0	0	8102	552999	0	0
2024-09-02 14:11:47			0	37740	0	0	0	28916	27520	154407	27272	1078658	47044	110748	0	0	8103	552384	0	0
2024-09-02 14:12:47			0	37716	0	0	0	28945	27510	154371	27440	1078730	47055	110759	0	0	8101	553349	0	0
2024-09-02 14:13:47			0	37734	0	0	0	28953	27510	154355	27213	1078703	47044	110762	0	0	8102	552649	0	0
2024-09-02 14:14:47			0	37760	0	0	0	28924	27530	154327	27083	1078748	47056	110751	0	0	8104	551575	0	0
2024-09-02 14:15:47			0	37745	0	0	0	28901	27530	154287	27241	1078694	47023	110742	0	0	8103	552158	0	0
2024-09-02 14:16:47			0	37763	0	0	0	28922	27520	154279	27362	1078631	47033	110750	0	0	8104	551491	0	0
2024-09-02 14:17:47			0	37773	0	0	0	28919	27540	154195	27177	1078659	47035	110749	0	0	8105	551039	0	0
2024-09-02 14:18:47			0	37769	0	0	0	28927	27530	154175	27324	1078775	47023	110752	0	0	8104	551226	0	0
2024-09-02 14:19:47			0	37781	0	0	0	28929	27540	154147	27268	1078776	47036	110753	0	0	8105	550729	0	0
2024-09-02 14:20:47			0	37804	0	0	0	28909	27540	154075	27471	1078722	47025	110745	0	0	8107	549837	0	0
2024-09-02 14:21:47			0	37807	0	0	0	28911	27540	154167	27268	1078767	47024	110746	0	0	8107	549721	0	0
2024-09-02 14:22:47			0	37803	0	0	0	28927	27550	153963	27244	1078785	47036	110752	0	0	8106	549844	0	0
2024-09-02 14:23:47			0	37811	0	0	0	28940	27540	154067	27173	1078749	47025	110757	0	0	8107	549566	0	0
2024-09-02 14:24:47			0	37806	0	0	0	28916	27540	153895	27124	1078803	47025	110748	0	0	8107	549760	0	0
2024-09-02 14:25:47			0	37846	0	0	0	28909	27540	154047	27381	1078740	47024	110745	0	0	8109	548212	0	0
2024-09-02 14:26:47			0	37835	0	0	0	28919	27540	153847	26977	1078713	47024	110749	0	0	8108	548637	0	0
2024-09-02 14:27:47			0	37834	0	0	0	28955	27550	153779	27379	1078812	47036	110763	0	0	8108	548644	0	0
2024-09-02 14:28:47			0	37845	0	0	0	28929	27540	153839	27079	1078722	47025	110753	0	0	8109	548250	0	0
2024-09-02 14:29:47			0	37858	0	0	0	28903	27540	153739	27159	1078803	47036	110743	0	0	8110	547748	0	0
2024-09-02 14:30:47			0	37885	0	0	0	28906	27550	153795	27201	1078731	47036	110744	0	0	8112	546674	0	0
2024-09-02 14:31:47			0	37891	0	0	0	28981	27540	153823	27150	1078830	47047	110773	0	0	8111	546473	0	0
2024-09-02 14:32:47			0	37871	0	0	0	28940	27540	153775	27291	1078820	47035	110757	0	0	8110	547246	0	0
2024-09-02 14:33:47			0	37874	0	0	0	28955	27550	153723	27374	1078785	47036	110763	0	0	8110	547098	0	0
2024-09-02 14:34:47			0	37893	0	0	0	28942	27550	153871	27248	1078812	47025	110758	0	0	8111	546365	0	0
2024-09-02 14:35:47			0	37872	0	0	0	28955	27550	153791	27400	1078785	47025	110763	0	0	8110	547175	0	0
2024-09-02 14:36:47			0	37876	0	0	0	28961	27550	153855	27557	1078866	47025	110765	0	0	8110	547021	0	0
2024-09-02 14:37:47			0	37857	0	0	0	28966	27550	153755	27556	1078866	47047	110767	0	0	8109	547755	0	0
2024-09-02 14:38:47			0	37871	0	0	0	28958	27550	153751	27263	1078839	47036	110764	0	0	8110	547214	0	0
2024-09-02 14:39:47			0	37879	0	0	0	28958	27550	153675	27064	1078892	47047	110764	0	0	8110	546905	0	0
2024-09-02 14:40:47			0	37890	0	0	0	28955	27560	153747	27026	1078884	47026	110763	0	0	8111	546449	0	0
2024-09-02 14:41:47			0	37912	0	0	0	28966	27560	153667	26968	1078884	47037	110767	0	0	8112	545601	0	0
2024-09-02 14:42:47			0	37908	0	0	0	28966	27560	153679	27097	1078911	47037	110767	0	0	8112	545755	0	0
2024-09-02 14:43:47			0	37919	0	0	0	28984	27560	153559	27183	1078947	47016	110774	0	0	8112	545331	0	0
2024-09-02 14:44:47			0	37906	0	0	0	29010	27560	153623	27433	1078938	47015	110784	0	0	8111	545832	0	0
2024-09-02 14:45:47			0	37907	0	0	0	29018	27580	153671	27319	1079028	47050	110787	0	0	8111	545730	0	0
2024-09-02 14:46:47			0	37910	0	0	0	29002	27580	153667	27154	1079037	47040	110781	0	0	8112	545615	0	0
2024-09-02 14:47:47			0	37898	0	0	0	28994	27580	153651	27097	1079091	47051	110778	0	0	8111	546078	0	0
2024-09-02 14:48:47			0	37907	0	0	0	29010	27590	153663	27194	1079082	47041	110784	0	0	8111	545699	0	0
2024-09-02 14:49:47			0	37884	0	0	0	29028	27590	153667	27076	1079127	47051	110791	0	0	8110	546586	0	0
2024-09-02 14:50:47			0	37886	0	0	0	29041	27590	153727	27189	1079109	47052	110796	0	0	8110	546509	0	0
2024-09-02 14:51:47			0	37886	0	0	0	29031	27590	153831	26935	1079163	47063	110792	0	0	8110	546509	0	0
2024-09-02 14:52:47			0	37892	0	0	0	29005	27590	153739	27211	1079109	47041	110782	0	0	8110	546278	0	0
2024-09-02 14:53:47			0	37876	0	0	0	28997	27610	153743	27176	1079217	47053	110779	0	0	8110	546832	0	0
2024-09-02 14:54:47			0	37880	0	0	0	29028	27610	153755	27055	1079190	47031	110791	0	0	8109	546678	0	0
2024-09-02 14:55:47			0	37864	0	0	0	29041	27610	153899	27270	1079271	47053	110796	0	0	8108	547295	0	0
2024-09-02 14:56:47			0	37873	0	0	0	29044	27620	153703	27159	1079298	47033	110797	0	0	8109	546916	0	0
2024-09-02 14:57:47			0	37891	0	0	0	29041	27620	153783	27263	1079289	47055	110796	0	0	8110	546222	0	0
2024-09-02 14:58:47			0	37893	0	0	0	29044	27620	153599	27362	1079271	47043	110797	0	0	8110	546145	0	0
2024-09-02 14:59:47			0	37896	0	0	0	29046	27630	153627	27230	1079307	47045	110798	0	0	8110	545998	0	0
2024-09-02 15:00:47			0	37906	0	0	0	29044	27630	153523	26975	1079280	47045	110797	0	0	8111	545612	0	0
2024-09-02 15:01:47			0	37890	0	0	0	29041	27640	153515	27164	1079334	47045	110796	0	0	8110	546198	0	0
2024-09-02 15:02:47			0	37905	0	0	0	29041	27630	153631	27296	1079334	47023	110796	0	0	8111	545651	0	0
2024-09-02 15:03:47			0	37904	0	0	0	29023	27630	153567	27310	1079253	47045	110789	0	0	8111	545689	0	0
2024-09-02 15:04:47			0	37905	0	0	0	29020	27630	153495	27154	1079235	47034	110788	0	0	8111	545651	0	0
2024-09-02 15:05:47			0	37916	0	0	0	29023	27630	153571	27036	1079316	47023	110789	0	0	8112	545227	0	0
2024-09-02 15:06:47			0	37918	0	0	0	29025	27640	153595	27284	1079308	47035	110790	0	0	8112	545118	0	0
2024-09-02 15:07:47			0	37914	0	0	0	29028	27650	153435	27072	1079406	47058	110791	0	0	8112	545241	0	0
2024-09-02 15:08:47			0	37937	0	0	0	29025	27650	153543	26967	1079424	47058	110790	0	0	8113	544355	0	0
2024-09-02 15:09:47			0	37935	0	0	0	29038	27660	153427	26712	1079470	47047	110795	0	0	8113	544401	0	0
2024-09-02 15:10:47			0	37941	0	0	0	29046	27660	153411	26993	1079452	47060	110798	0	0	8113	544170	0	0
2024-09-02 15:11:47			0	37956	0	0	0	29051	27660	153295	27175	1079452	47027	110800	0	0	8114	543593	0	0
2024-09-02 15:12:47			0	37960	0	0	0	29075	27660	153271	26930	1079425	47038	110809	0	0	8114	543439	0	0
2024-09-02 15:13:47			0	37967	0	0	0	29028	27660	153267	27071	1079452	47038	110791	0	0	8115	543170	0	0
2024-09-02 15:14:47			0	37961	0	0	0	28984	27670	153139	26889	1079434	47048	110774	0	0	8115	543370	0	0
2024-09-02 15:15:47			0	37986	0	0	0	28981	27660	153211	26906	1079317	47027	110773	0	0	8117	542440	0	0
2024-09-02 15:16:47			0	37980	0	0	0	28971	27650	153183	27145	1079245	47025	110769	0	0	8116	542702	0	0
2024-09-02 15:17:47			0	37989	0	0	0	28968	27650	153167	26864	1079263	47025	110768	0	0	8117	542356	0	0
2024-09-02 15:18:47			0	38024	0	0	0	28963	27640	153179	26982	1079254	47024	110766	0	0	8119	541045	0	0
2024-09-02 15:19:47			0	38028	0	0	0	28955	27640	153055	26842	1079227	47035	110763	0	0	8119	540891	0	0
2024-09-02 15:20:47			0	38029	0	0	0	28979	27650	152972	26998	1079290	47058	110772	0	0	8119	540822	0	0
2024-09-02 15:21:47			0	38030	0	0	0	28966	27650	153092	26975	1079263	47025	110767	0	0	8119	540784	0	0
2024-09-02 15:22:47			0	38034	0	0	0	28973	27640	153016	27131	1079200	47024	110770	0	0	8119	540661	0	0
2024-09-02 15:23:47			0	38047	0	0	0	28973	27630	152980	27072	1079262	47011	110770	0	0	8120	540194	0	0
2024-09-02 15:24:47			0	38038	0	0	0	28966	27620	153036	27168	1079244	47010	110767	0	0	8120	540570	0	0
2024-09-02 15:25:47			0	38035	0	0	0	29010	27620	153024	27076	1079190	47022	110784	0	0	8119	540685	0	0
2024-09-02 15:26:47			0	38029	0	0	0	29020	27620	153099	27183	1079235	47043	110788	0	0	8118	540915	0	0
2024-09-02 15:27:47			0	38019	0	0	0	29007	27620	153143	27322	1079244	47033	110783	0	0	8118	541299	0	0
2024-09-02 15:28:47			0	37997	0	0	0	28973	27620	153131	26790	1079190	47055	110770	0	0	8117	542143	0	0
2024-09-02 15:29:47			0	38002	0	0	0	29002	27620	153115	27114	1079235	47033	110781	0	0	8117	541951	0	0
2024-09-02 15:30:47			0	37994	0	0	0	28992	27630	153191	27098	1079262	47034	110777	0	0	8117	542227	0	0
2024-09-02 15:31:47			0	37986	0	0	0	28973	27630	153203	27173	1079280	47034	110770	0	0	8117	542534	0	0
2024-09-02 15:32:47			0	37970	0	0	0	28966	27630	153219	27383	1079262	47045	110767	0	0	8116	543149	0	0
2024-09-02 15:33:47			0	37982	0	0	0	28986	27630	153375	26991	1079316	47056	110775	0	0	8116	542688	0	0
2024-09-02 15:34:47			0	37970	0	0	0	29012	27650	153375	26904	1079370	47036	110785	0	0	8115	543086	0	0
2024-09-02 15:35:47			0	37970	0	0	0	28994	27630	153255	26831	1079262	47034	110778	0	0	8115	543149	0	0
2024-09-02 15:36:47			0	37981	0	0	0	28986	27630	153275	27043	1079253	47045	110775	0	0	8116	542726	0	0
2024-09-02 15:37:47			0	37987	0	0	0	28992	27630	153311	26972	1079226	47023	110777	0	0	8116	542496	0	0
2024-09-02 15:38:47			0	37985	0	0	0	28973	27630	153391	27341	1079235	47023	110770	0	0	8117	542572	0	0
2024-09-02 15:39:47			0	37978	0	0	0	29005	27620	153363	27324	1079244	47022	110782	0	0	8116	542873	0	0
2024-09-02 15:40:47			0	37999	0	0	0	28999	27630	153299	27204	1079280	47045	110780	0	0	8117	542035	0	0
2024-09-02 15:41:47			0	37959	0	0	0	29046	27630	153367	27079	1079370	47045	110798	0	0	8114	543572	0	0
2024-09-02 15:42:47			0	37980	0	0	0	29033	27640	153355	26928	1079334	47035	110793	0	0	8115	542733	0	0
2024-09-02 15:43:47			0	37970	0	0	0	29007	27630	153303	26970	1079262	47045	110783	0	0	8115	543149	0	0
2024-09-02 15:44:47			0	37996	0	0	0	28989	27630	153267	26915	1079226	47023	110776	0	0	8117	542150	0	0
2024-09-02 15:45:47			0	38015	0	0	0	28994	27630	153331	26928	1079253	47023	110778	0	0	8118	541421	0	0
2024-09-02 15:46:47			0	38001	0	0	0	29020	27630	153299	27039	1079397	47067	110788	0	0	8117	541958	0	0
2024-09-02 15:47:47			0	37997	0	0	0	28992	27640	153255	27301	1079379	47068	110777	0	0	8117	542080	0	0
2024-09-02 15:48:47			0	37995	0	0	0	28973	27650	153295	27008	1079317	47046	110770	0	0	8117	542126	0	0
2024-09-02 15:49:47			0	37989	0	0	0	28999	27640	153207	27116	1079308	47035	110780	0	0	8116	542388	0	0
2024-09-02 15:50:47			0	38004	0	0	0	29007	27640	153259	27189	1079379	47057	110783	0	0	8117	541812	0	0
2024-09-02 15:51:47			0	37987	0	0	0	29007	27650	153247	27277	1079370	47046	110783	0	0	8116	542433	0	0
2024-09-02 15:52:47			0	38018	0	0	0	29025	27650	153251	26975	1079397	47025	110790	0	0	8118	541243	0	0
2024-09-02 15:53:47			0	38009	0	0	0	29064	27660	153227	26736	1079416	47026	110805	0	0	8117	541558	0	0
2024-09-02 15:54:47			0	38027	0	0	0	29046	27650	153160	26981	1079424	47025	110798	0	0	8118	540898	0	0
2024-09-02 15:55:47			0	38019	0	0	0	29072	27650	153071	27133	1079433	47036	110808	0	0	8117	541205	0	0
2024-09-02 15:56:47			0	38023	0	0	0	29088	27650	153087	26800	1079451	47058	110814	0	0	8117	541052	0	0
2024-09-02 15:57:47			0	38030	0	0	0	29072	27660	153136	27147	1079497	47047	110808	0	0	8118	540752	0	0
2024-09-02 15:58:47			0	38030	0	0	0	29067	27660	153071	27086	1079425	47060	110806	0	0	8118	540752	0	0
2024-09-02 15:59:47			0	38050	0	0	0	29067	27670	152988	27223	1079488	47038	110806	0	0	8119	539955	0	0
2024-09-02 16:00:47			0	38056	0	0	0	29064	27670	152932	26946	1079524	47038	110805	0	0	8119	539725	0	0
2024-09-02 16:01:47			0	38087	0	0	0	29062	27670	152920	27246	1079542	47038	110804	0	0	8121	538540	0	0
2024-09-02 16:02:47			0	38094	0	0	0	29067	27670	152824	27255	1079470	47048	110806	0	0	8121	538272	0	0
2024-09-02 16:03:47			0	38087	0	0	0	29051	27670	152888	27209	1079497	47027	110800	0	0	8121	538540	0	0
2024-09-02 16:04:47			0	38108	0	0	0	29028	27670	152868	27211	1079407	47038	110791	0	0	8123	537737	0	0
2024-09-02 16:05:47			0	38121	0	0	0	29025	27670	152828	27062	1079434	47027	110790	0	0	8124	537241	0	0
2024-09-02 16:06:47			0	38124	0	0	0	29025	27660	152776	27242	1079398	47027	110790	0	0	8124	537157	0	0
2024-09-02 16:07:47			0	38119	0	0	0	29041	27660	152740	27045	1079398	47027	110796	0	0	8123	537348	0	0
2024-09-02 16:08:47			0	38100	0	0	0	29025	27650	152820	26993	1079326	47036	110790	0	0	8122	538105	0	0
2024-09-02 16:09:47			0	38127	0	0	0	29012	27660	152884	26802	1079371	47038	110785	0	0	8124	537043	0	0
2024-09-02 16:10:47			0	38115	0	0	0	29025	27660	153008	26753	1079362	47037	110790	0	0	8123	537501	0	0
2024-09-02 16:11:47			0	38102	0	0	0	29036	27650	152876	27303	1079397	47025	110794	0	0	8122	538028	0	0
2024-09-02 16:12:47			0	38110	0	0	0	29054	27650	152936	27189	1079370	47046	110801	0	0	8122	537723	0	0
2024-09-02 16:13:47			0	38097	0	0	0	29067	27640	153020	27578	1079442	47045	110806	0	0	8121	538250	0	0
2024-09-02 16:14:47			0	38089	0	0	0	29057	27650	152980	26967	1079433	47036	110802	0	0	8121	538525	0	0
2024-09-02 16:15:47			0	38113	0	0	0	29038	27660	152948	27225	1079452	47048	110795	0	0	8123	537577	0	0
2024-09-02 16:16:47			0	38087	0	0	0	29020	27660	152932	27460	1079389	47037	110788	0	0	8122	538571	0	0
2024-09-02 16:17:47			0	38107	0	0	0	29007	27660	152924	26906	1079335	47026	110783	0	0	8123	537806	0	0
2024-09-02 16:18:47			0	38108	0	0	0	29010	27650	152904	26928	1079317	47013	110784	0	0	8123	537799	0	0
2024-09-02 16:19:47			0	38117	0	0	0	29007	27650	152932	27166	1079290	47013	110783	0	0	8124	537455	0	0
2024-09-02 16:20:47			0	38097	0	0	0	29031	27640	152924	27241	1079334	47024	110792	0	0	8122	538250	0	0
2024-09-02 16:21:47			0	38106	0	0	0	29051	27650	152976	26922	1079343	47046	110800	0	0	8122	537876	0	0
2024-09-02 16:22:47			0	38080	0	0	0	29072	27650	153040	27412	1079451	47046	110808	0	0	8120	538869	0	0
2024-09-02 16:23:47			0	38083	0	0	0	29051	27640	153044	27249	1079469	47045	110800	0	0	8121	538786	0	0
2024-09-02 16:24:47			0	38071	0	0	0	29051	27660	153036	27102	1079533	47060	110800	0	0	8120	539182	0	0
2024-09-02 16:25:47			0	38045	0	0	0	29075	27660	153144	27183	1079470	47047	110809	0	0	8118	540178	0	0
2024-09-02 16:26:47			0	38054	0	0	0	29083	27670	153108	27111	1079515	47038	110812	0	0	8119	539802	0	0
2024-09-02 16:27:47			0	38028	0	0	0	29085	27680	153220	27076	1079560	47072	110813	0	0	8117	540767	0	0
2024-09-02 16:28:47			0	38054	0	0	0	29062	27680	153188	26797	1079641	47050	110804	0	0	8119	539771	0	0
2024-09-02 16:29:47			0	38033	0	0	0	29038	27680	153176	27360	1079614	47061	110795	0	0	8118	540575	0	0
2024-09-02 16:30:47			0	38041	0	0	0	29038	27690	153164	26922	1079524	47051	110795	0	0	8119	540238	0	0
2024-09-02 16:31:47			0	38057	0	0	0	29025	27670	153204	26986	1079524	47027	110790	0	0	8120	539687	0	0
2024-09-02 16:32:47			0	38041	0	0	0	29025	27670	153076	27140	1079497	47027	110790	0	0	8119	540300	0	0
2024-09-02 16:33:47			0	38065	0	0	0	29038	27670	153112	27206	1079461	47048	110795	0	0	8120	539381	0	0
2024-09-02 16:34:47			0	38060	0	0	0	29051	27680	153160	27088	1079479	47028	110800	0	0	8120	539541	0	0
2024-09-02 16:35:47			0	38076	0	0	0	29041	27680	153092	27121	1079506	47050	110796	0	0	8121	538929	0	0
2024-09-02 16:36:47			0	38048	0	0	0	29057	27680	153228	27265	1079560	47039	110802	0	0	8119	540001	0	0
2024-09-02 16:37:47			0	38046	0	0	0	29072	27670	153116	27034	1079515	47060	110808	0	0	8119	540108	0	0
2024-09-02 16:38:47			0	38030	0	0	0	29083	27670	153067	27312	1079551	47048	110812	0	0	8117	540721	0	0
2024-09-02 16:39:47			0	38042	0	0	0	29085	27680	153136	27270	1079560	47050	110813	0	0	8118	540230	0	0
2024-09-02 16:40:47			0	38056	0	0	0	29075	27680	153140	27253	1079650	47062	110809	0	0	8119	539694	0	0
2024-09-02 16:41:47			0	38021	0	0	0	29072	27690	153139	27024	1079551	47040	110808	0	0	8117	541004	0	0
2024-09-02 16:42:47			0	38038	0	0	0	29057	27680	153244	27286	1079569	47062	110802	0	0	8118	540384	0	0
2024-09-02 16:43:47			0	38038	0	0	0	29064	27680	153164	26993	1079515	47040	110805	0	0	8118	540384	0	0
2024-09-02 16:44:47			0	38053	0	0	0	29057	27690	153276	26788	1079551	47029	110802	0	0	8119	539778	0	0
2024-09-02 16:45:47			0	38032	0	0	0	29054	27690	153284	27095	1079524	47029	110801	0	0	8118	540582	0	0
2024-09-02 16:46:47			0	38038	0	0	0	29041	27680	153192	27293	1079515	47040	110796	0	0	8119	540384	0	0
2024-09-02 16:47:47			0	38033	0	0	0	29033	27670	153196	27057	1079443	47015	110793	0	0	8118	540606	0	0
2024-09-02 16:48:47			0	38018	0	0	0	29041	27680	153328	27355	1079425	47050	110796	0	0	8118	541150	0	0
2024-09-02 16:49:47			0	38004	0	0	0	29072	27670	153347	27248	1079497	47038	110808	0	0	8116	541718	0	0
2024-09-02 16:50:47			0	38010	0	0	0	29064	27670	153371	27071	1079515	47048	110805	0	0	8117	541488	0	0
2024-09-02 16:51:47			0	37998	0	0	0	29075	27670	153339	27024	1079461	47038	110809	0	0	8116	541948	0	0
2024-09-02 16:52:47			0	38002	0	0	0	29075	27680	153419	26838	1079596	47051	110809	0	0	8116	541764	0	0
2024-09-02 16:53:47			0	37989	0	0	0	29096	27670	153415	27137	1079605	47060	110817	0	0	8115	542294	0	0
2024-09-02 16:54:47			0	37999	0	0	0	29093	27690	153399	27336	1079713	47051	110816	0	0	8116	541848	0	0
2024-09-02 16:55:47			0	37995	0	0	0	29111	27690	153379	27270	1079668	47062	110823	0	0	8115	542001	0	0
2024-09-02 16:56:47			0	38009	0	0	0	29116	27690	153195	27216	1079641	47051	110825	0	0	8116	541464	0	0
2024-09-02 16:57:47			0	38033	0	0	0	29114	27700	153208	27445	1079758	47074	110824	0	0	8117	540513	0	0
2024-09-02 16:58:47			0	38032	0	0	0	29101	27690	153064	27390	1079749	47040	110819	0	0	8117	540582	0	0
2024-09-02 16:59:47			0	38058	0	0	0	29111	27700	153108	26916	1079731	47063	110823	0	0	8119	539556	0	0
2024-09-02 17:00:47			0	38084	0	0	0	29090	27710	153076	26915	1079830	47064	110815	0	0	8121	538530	0	0
2024-09-02 17:01:47			0	38096	0	0	0	29103	27710	152916	27057	1079758	47032	110820	0	0	8121	538072	0	0
2024-09-02 17:02:47			0	38081	0	0	0	29093	27700	152912	26994	1079821	47053	110816	0	0	8120	538676	0	0
2024-09-02 17:03:47			0	38107	0	0	0	29088	27710	152880	26934	1079749	47053	110814	0	0	8122	537652	0	0
2024-09-02 17:04:47			0	38115	0	0	0	29093	27710	152892	27107	1079785	47065	110816	0	0	8122	537346	0	0
2024-09-02 17:05:47			0	38107	0	0	0	29090	27710	152900	27164	1079758	47032	110815	0	0	8122	537652	0	0
2024-09-02 17:06:47			0	38109	0	0	0	29072	27710	152844	26800	1079695	47031	110808	0	0	8122	537575	0	0
2024-09-02 17:07:47			0	38115	0	0	0	29057	27710	152828	27395	1079641	47041	110802	0	0	8123	537346	0	0
2024-09-02 17:08:47			0	38127	0	0	0	29044	27700	152776	27516	1079596	47018	110797	0	0	8124	536919	0	0
2024-09-02 17:09:47			0	38117	0	0	0	29049	27700	152828	27343	1079596	47041	110799	0	0	8123	537301	0	0
2024-09-02 17:10:47			0	38123	0	0	0	29046	27700	152812	27062	1079596	47041	110798	0	0	8124	537072	0	0
2024-09-02 17:11:47			0	38110	0	0	0	29057	27690	152888	27339	1079587	47040	110802	0	0	8123	537599	0	0
2024-09-02 17:12:47			0	38109	0	0	0	29083	27690	152924	27360	1079551	47051	110812	0	0	8122	537637	0	0
2024-09-02 17:13:47			0	38088	0	0	0	29098	27690	152980	27050	1079641	47051	110818	0	0	8121	538439	0	0
2024-09-02 17:14:47			0	38100	0	0	0	29093	27700	153012	27029	1079650	47052	110816	0	0	8121	537950	0	0
2024-09-02 17:15:47			0	38100	0	0	0	29096	27700	152924	27202	1079569	47041	110817	0	0	8121	537950	0	0
2024-09-02 17:16:47			0	38100	0	0	0	29119	27700	152972	26991	1079677	47063	110826	0	0	8121	537950	0	0
2024-09-02 17:17:47			0	38107	0	0	0	29116	27710	153004	27374	1079722	47064	110825	0	0	8122	537652	0	0
2024-09-02 17:18:47			0	38125	0	0	0	29129	27710	152856	27443	1079776	47053	110830	0	0	8122	536965	0	0
2024-09-02 17:19:47			0	38125	0	0	0	29124	27710	152860	27255	1079749	47064	110828	0	0	8122	536965	0	0
2024-09-02 17:20:47			0	38131	0	0	0	29098	27710	152932	27220	1079785	47042	110818	0	0	8123	536736	0	0
2024-09-02 17:21:47			0	38128	0	0	0	29111	27710	152840	27168	1079758	47042	110823	0	0	8123	536850	0	0
2024-09-02 17:22:47			0	38137	0	0	0	29111	27720	152768	27350	1079767	47032	110823	0	0	8123	536476	0	0
2024-09-02 17:23:47			0	38134	0	0	0	29114	27710	152908	27135	1079803	47053	110824	0	0	8123	536621	0	0
2024-09-02 17:24:47			0	38126	0	0	0	29127	27710	152836	27022	1079812	47054	110829	0	0	8122	536926	0	0
2024-09-02 17:25:47			0	38136	0	0	0	29135	27720	152980	27163	1079830	47077	110832	0	0	8123	536514	0	0
2024-09-02 17:26:47			0	38124	0	0	0	29142	27710	152880	27284	1079830	47053	110835	0	0	8122	537003	0	0
2024-09-02 17:27:47			0	38122	0	0	0	29137	27720	152792	27222	1079848	47054	110833	0	0	8122	537048	0	0
2024-09-02 17:28:47			0	38118	0	0	0	29135	27720	152872	27237	1079848	47054	110832	0	0	8122	537201	0	0
2024-09-02 17:29:47			0	38129	0	0	0	29119	27720	152896	27145	1079857	47055	110826	0	0	8123	536781	0	0
2024-09-02 17:30:47			0	38119	0	0	0	29111	27730	152808	27119	1079848	47056	110823	0	0	8122	537132	0	0
2024-09-02 17:31:47			0	38116	0	0	0	29132	27730	152752	27227	1079812	47056	110831	0	0	8122	537246	0	0
2024-09-02 17:32:47			0	38126	0	0	0	29168	27740	152792	27339	1079965	47056	110845	0	0	8122	536834	0	0
2024-09-02 17:33:47			0	38128	0	0	0	29181	27730	152728	27197	1079956	47056	110850	0	0	8122	536788	0	0
2024-09-02 17:34:47			0	38139	0	0	0	29197	27740	152720	27150	1079911	47067	110856	0	0	8122	536338	0	0
2024-09-02 17:35:47			0	38141	0	0	0	29184	27750	152712	27064	1080037	47069	110851	0	0	8123	536231	0	0
2024-09-02 17:36:47			0	38157	0	0	0	29181	27750	152636	27003	1079956	47080	110850	0	0	8123	535621	0	0
2024-09-02 17:37:47			0	38166	0	0	0	29192	27760	152512	27208	1080028	47058	110854	0	0	8124	535248	0	0
2024-09-02 17:38:47			0	38179	0	0	0	29199	27750	152596	26956	1080019	47058	110857	0	0	8124	534784	0	0
2024-09-02 17:39:47			0	38201	0	0	0	29194	27750	152536	27130	1080046	47036	110855	0	0	8126	533947	0	0
2024-09-02 17:40:47			0	38186	0	0	0	29186	27760	152540	27147	1080109	47046	110852	0	0	8125	534486	0	0
2024-09-02 17:41:47			0	38195	0	0	0	29171	27770	152400	27019	1080046	47071	110846	0	0	8126	534113	0	0
2024-09-02 17:42:47			0	38189	0	0	0	29179	27760	152412	27083	1079974	47058	110849	0	0	8125	534372	0	0
2024-09-02 17:43:47			0	38205	0	0	0	29168	27770	152504	27085	1080100	47048	110845	0	0	8127	533733	0	0
2024-09-02 17:44:47			0	38197	0	0	0	29176	27760	152316	27253	1080037	47037	110848	0	0	8126	534068	0	0
2024-09-02 17:45:47			0	38186	0	0	0	29171	27760	152404	27334	1080091	47047	110846	0	0	8125	534486	0	0
2024-09-02 17:46:47			0	38192	0	0	0	29186	27760	152416	27254	1080118	47047	110852	0	0	8125	534258	0	0
2024-09-02 17:47:47			0	38167	0	0	0	29176	27770	152376	27131	1080056	47048	110848	0	0	8124	535179	0	0
2024-09-02 17:48:47			0	38158	0	0	0	29166	27770	152520	27182	1080056	47060	110844	0	0	8124	535521	0	0
2024-09-02 17:49:47			0	38151	0	0	0	29181	27770	152488	27024	1080046	47048	110850	0	0	8123	535788	0	0
2024-09-02 17:50:47			0	38156	0	0	0	29186	27770	152592	26939	1080154	47048	110852	0	0	8123	535598	0	0
2024-09-02 17:51:47			0	38131	0	0	0	29192	27770	152568	27119	1080109	47060	110854	0	0	8122	536550	0	0
2024-09-02 17:52:47			0	38136	0	0	0	29189	27770	152548	27079	1080073	47060	110853	0	0	8122	536360	0	0
2024-09-02 17:53:47			0	38134	0	0	0	29194	27770	152568	27524	1080100	47060	110855	0	0	8122	536436	0	0
2024-09-02 17:54:47			0	38157	0	0	0	29189	27770	152524	27253	1080100	47071	110853	0	0	8123	535559	0	0
2024-09-02 17:55:47			0	38179	0	0	0	29189	27770	152412	27173	1080154	47038	110853	0	0	8125	534722	0	0
2024-09-02 17:56:47			0	38195	0	0	0	29181	27780	152316	27313	1080128	47072	110850	0	0	8126	534083	0	0
2024-09-02 17:57:47			0	38195	0	0	0	29186	27770	152268	27265	1080082	47060	110852	0	0	8126	534113	0	0
2024-09-02 17:58:47			0	38210	0	0	0	29186	27770	152260	27345	1080136	47048	110852	0	0	8127	533543	0	0
2024-09-02 17:59:47			0	38211	0	0	0	29199	27780	152168	27183	1080155	47061	110857	0	0	8126	533475	0	0
2024-09-02 18:00:47			0	38206	0	0	0	29194	27780	152196	27284	1080145	47048	110855	0	0	8126	533665	0	0
2024-09-02 18:01:47			0	38230	0	0	0	29197	27770	152284	27128	1080136	47071	110856	0	0	8128	532784	0	0
2024-09-02 18:02:47			0	38221	0	0	0	29197	27780	152208	27105	1080145	47071	110856	0	0	8127	533095	0	0
2024-09-02 18:03:47			0	38223	0	0	0	29179	27780	152180	27300	1080172	47060	110849	0	0	8127	533019	0	0
2024-09-02 18:04:47			0	38243	0	0	0	29179	27770	152268	27140	1080136	47060	110849	0	0	8129	532290	0	0
2024-09-02 18:05:47			0	38242	0	0	0	29173	27770	152116	27182	1080109	47060	110847	0	0	8129	532328	0	0
2024-09-02 18:06:47			0	38223	0	0	0	29184	27770	152084	26920	1080056	47060	110851	0	0	8127	533050	0	0
2024-09-02 18:07:47			0	38249	0	0	0	29179	27770	152200	27241	1080109	47048	110849	0	0	8129	532063	0	0
2024-09-02 18:08:47			0	38240	0	0	0	29184	27770	152140	27052	1080082	47048	110851	0	0	8128	532404	0	0
2024-09-02 18:09:47			0	38227	0	0	0	29171	27770	152256	27041	1080127	47048	110846	0	0	8128	532898	0	0
2024-09-02 18:10:47			0	38230	0	0	0	29184	27770	152104	26805	1080073	47060	110851	0	0	8128	532784	0	0
2024-09-02 18:11:47			0	38252	0	0	0	29179	27770	152176	27064	1080109	47071	110849	0	0	8129	531949	0	0
2024-09-02 18:12:47			0	38232	0	0	0	29173	27770	152232	27137	1080073	47071	110847	0	0	8128	532708	0	0
2024-09-02 18:13:47			0	38246	0	0	0	29166	27770	152152	27000	1080100	47060	110844	0	0	8129	532177	0	0
2024-09-02 18:14:47			0	38191	0	0	0	29161	27760	152316	27156	1080091	47047	110842	0	0	8126	534296	0	0
2024-09-02 18:15:47			0	38190	0	0	0	29150	27760	152388	27100	1080037	47059	110838	0	0	8126	534334	0	0
2024-09-02 18:16:47			0	38169	0	0	0	29150	27760	152412	27326	1080001	47058	110838	0	0	8125	535133	0	0
2024-09-02 18:17:47			0	38157	0	0	0	29158	27750	152392	27327	1079983	47036	110841	0	0	8124	535621	0	0
2024-09-02 18:18:47			0	38150	0	0	0	29158	27760	152452	27005	1080001	47080	110841	0	0	8124	535857	0	0
2024-09-02 18:19:47			0	38153	0	0	0	29171	27760	152488	27291	1080010	47059	110846	0	0	8123	535743	0	0
2024-09-02 18:20:47			0	38177	0	0	0	29173	27760	152448	27319	1080010	47070	110847	0	0	8125	534829	0	0
2024-09-02 18:21:47			0	38182	0	0	0	29171	27750	152268	27300	1080019	47058	110846	0	0	8125	534669	0	0
2024-09-02 18:22:47			0	38202	0	0	0	29168	27760	152308	27216	1080028	47046	110845	0	0	8126	533878	0	0
2024-09-02 18:23:47			0	38220	0	0	0	29173	27750	152256	27246	1080010	47058	110847	0	0	8127	533225	0	0
2024-09-02 18:24:47			0	38225	0	0	0	29171	27760	152232	27199	1079974	47069	110846	0	0	8128	533004	0	0
2024-09-02 18:25:47			0	38225	0	0	0	29171	27760	152192	27194	1080028	47080	110846	0	0	8128	533004	0	0
2024-09-02 18:26:47			0	38242	0	0	0	29181	27750	152192	27315	1080046	47080	110850	0	0	8128	532390	0	0
2024-09-02 18:27:47			0	38227	0	0	0	29171	27760	152200	27298	1080001	47058	110846	0	0	8128	532928	0	0
2024-09-02 18:28:47			0	38238	0	0	0	29171	27750	152180	27552	1080037	47046	110846	0	0	8128	532541	0	0
2024-09-02 18:29:47			0	38233	0	0	0	29171	27760	152244	27573	1080037	47059	110846	0	0	8128	532701	0	0
2024-09-02 18:30:47			0	38227	0	0	0	29166	27760	152228	27268	1080055	47058	110844	0	0	8128	532928	0	0
2024-09-02 18:31:47			0	38219	0	0	0	29158	27750	152260	27388	1080046	47058	110841	0	0	8127	533263	0	0
2024-09-02 18:32:47			0	38212	0	0	0	29168	27750	152276	27208	1080073	47058	110845	0	0	8127	533529	0	0
2024-09-02 18:33:47			0	38197	0	0	0	29166	27750	152376	27149	1080073	47080	110844	0	0	8126	534099	0	0
2024-09-02 18:34:47			0	38188	0	0	0	29161	27760	152280	27374	1080055	47058	110842	0	0	8126	534410	0	0
2024-09-02 18:35:47			0	38205	0	0	0	29163	27760	152336	27504	1080010	47059	110843	0	0	8127	533764	0	0
2024-09-02 18:36:47			0	38194	0	0	0	29168	27750	152292	26934	1080010	47046	110845	0	0	8126	534213	0	0
2024-09-02 18:37:47			0	38201	0	0	0	29166	27750	152408	27022	1080019	47058	110844	0	0	8126	533947	0	0
2024-09-02 18:38:47			0	38173	0	0	0	29163	27750	152392	27274	1080010	47058	110843	0	0	8125	535012	0	0
2024-09-02 18:39:47			0	38139	0	0	0	29150	27750	152572	27164	1080019	47058	110838	0	0	8123	536307	0	0
2024-09-02 18:40:47			0	38113	0	0	0	29140	27750	152704	27279	1079929	47046	110834	0	0	8122	537299	0	0
2024-09-02 18:41:47			0	38072	0	0	0	29153	27750	152884	27133	1079956	47058	110839	0	0	8119	538865	0	0
2024-09-02 18:42:47			0	38048	0	0	0	29135	27740	152904	27371	1079974	47068	110832	0	0	8118	539814	0	0
2024-09-02 18:43:47			0	37992	0	0	0	29127	27750	153103	27183	1079929	47058	110829	0	0	8115	541929	0	0
2024-09-02 18:44:47			0	37987	0	0	0	29148	27740	153087	27180	1079938	47034	110837	0	0	8114	542152	0	0
2024-09-02 18:45:47			0	37970	0	0	0	29132	27730	153179	27124	1079929	47044	110831	0	0	8113	542836	0	0
2024-09-02 18:46:47			0	37922	0	0	0	29124	27730	153403	27079	1079920	47044	110828	0	0	8111	544682	0	0
2024-09-02 18:47:47			0	37885	0	0	0	29103	27730	153543	27211	1079902	47056	110820	0	0	8109	546107	0	0
2024-09-02 18:48:47			0	37821	0	0	0	29101	27730	153799	27182	1079767	47044	110819	0	0	8105	548579	0	0
2024-09-02 18:49:47			0	37764	0	0	0	29109	27730	154115	27428	1079812	47056	110822	0	0	8102	550786	0	0
2024-09-02 18:50:47			0	37711	0	0	0	29114	27720	154251	27192	1079803	47043	110824	0	0	8099	552875	0	0
2024-09-02 18:51:47			0	37694	0	0	0	29106	27710	154363	26928	1079722	47041	110821	0	0	8098	553568	0	0
2024-09-02 18:52:47			0	37651	0	0	0	29098	27710	154499	27358	1079749	47053	110818	0	0	8096	555242	0	0
2024-09-02 18:53:47			0	37622	0	0	0	29088	27710	154619	27170	1079614	47053	110814	0	0	8094	556373	0	0
2024-09-02 18:54:47			0	37571	0	0	0	29083	27710	154763	27220	1079668	47053	110812	0	0	8091	558365	0	0
2024-09-02 18:55:47			0	37535	0	0	0	29054	27700	155007	26837	1079677	47041	110801	0	0	8090	559807	0	0
2024-09-02 18:56:47			0	37499	0	0	0	29070	27690	155143	27093	1079587	47051	110807	0	0	8087	561250	0	0
2024-09-02 18:57:47			0	37457	0	0	0	29083	27690	155375	27055	1079578	47062	110812	0	0	8084	562900	0	0
2024-09-02 18:58:47			0	37445	0	0	0	29049	27680	155367	27216	1079488	47051	110799	0	0	8084	563405	0	0
2024-09-02 18:59:47			0	37423	0	0	0	29067	27690	155407	27024	1079587	47040	110806	0	0	8083	564238	0	0
2024-09-02 19:00:47			0	37436	0	0	0	29057	27690	155503	27111	1079551	47040	110802	0	0	8084	563727	0	0
2024-09-02 19:01:47			0	37391	0	0	0	29033	27680	155591	26942	1079452	47039	110793	0	0	8081	565532	0	0
2024-09-02 19:02:47			0	37361	0	0	0	29044	27670	155699	26908	1079443	47060	110797	0	0	8079	566749	0	0
2024-09-02 19:03:47			0	37349	0	0	0	29033	27660	155807	27261	1079389	47047	110793	0	0	8079	567256	0	0
2024-09-02 19:04:47			0	37332	0	0	0	29023	27650	155779	27052	1079433	47036	110789	0	0	8078	567960	0	0
2024-09-02 19:05:47			0	37325	0	0	0	29005	27650	155839	27019	1079380	47036	110782	0	0	8078	568237	0	0
2024-09-02 19:06:47			0	37307	0	0	0	29010	27650	155918	27189	1079370	47058	110784	0	0	8077	568950	0	0
2024-09-02 19:07:47			0	37280	0	0	0	28999	27630	156018	27317	1079280	47034	110780	0	0	8075	570085	0	0
2024-09-02 19:08:47			0	37262	0	0	0	28999	27630	156106	27199	1079280	47045	110780	0	0	8074	570799	0	0
2024-09-02 19:09:47			0	37245	0	0	0	29002	27620	156134	27244	1079244	47043	110781	0	0	8073	571507	0	0
2024-09-02 19:10:47			0	37229	0	0	0	28999	27620	156178	26923	1079235	47055	110780	0	0	8072	572143	0	0
2024-09-02 19:11:47			0	37227	0	0	0	28979	27620	156290	27390	1079181	47043	110772	0	0	8072	572223	0	0
2024-09-02 19:12:47			0	37191	0	0	0	28973	27610	156458	27267	1079109	47031	110770	0	0	8070	573688	0	0
2024-09-02 19:13:47			0	37178	0	0	0	28984	27610	156358	27192	1079145	47032	110774	0	0	8069	574206	0	0
2024-09-02 19:14:47			0	37171	0	0	0	28986	27600	156622	27156	1079127	47041	110775	0	0	8069	574518	0	0
2024-09-02 19:15:47			0	37147	0	0	0	28968	27600	156550	27479	1079091	47064	110768	0	0	8068	575475	0	0
2024-09-02 19:16:47			0	37122	0	0	0	28966	27590	156734	27242	1079073	47051	110767	0	0	8066	576506	0	0
2024-09-02 19:17:47			0	37131	0	0	0	28955	27590	156850	27436	1079001	47041	110763	0	0	8067	576147	0	0
2024-09-02 19:18:47			0	37107	0	0	0	28937	27580	156846	27306	1078956	47051	110756	0	0	8066	577139	0	0
2024-09-02 19:19:47			0	37095	0	0	0	28937	27580	156966	27251	1078947	47039	110756	0	0	8065	577619	0	0
2024-09-02 19:20:47			0	37075	0	0	0	28940	27570	157094	27137	1078938	47039	110757	0	0	8064	578453	0	0
2024-09-02 19:21:47			0	37041	0	0	0	28935	27570	157118	27187	1078983	47027	110755	0	0	8062	579815	0	0
2024-09-02 19:22:47			0	37042	0	0	0	28924	27570	157078	27209	1078983	47038	110751	0	0	8062	579775	0	0
2024-09-02 19:23:47			0	37019	0	0	0	28940	27560	157202	27365	1078911	47026	110757	0	0	8061	580731	0	0
2024-09-02 19:24:47			0	37029	0	0	0	28935	27560	157214	27239	1078857	47026	110755	0	0	8061	580330	0	0
2024-09-02 19:25:47			0	37013	0	0	0	28929	27550	157294	27483	1078875	47048	110753	0	0	8060	581006	0	0
2024-09-02 19:26:47			0	36996	0	0	0	28922	27550	157206	27339	1078866	47036	110750	0	0	8060	581689	0	0
2024-09-02 19:27:47			0	37012	0	0	0	28932	27550	157258	27211	1078821	47037	110754	0	0	8060	581046	0	0
2024-09-02 19:28:47			0	37000	0	0	0	28922	27550	157354	26981	1078839	47047	110750	0	0	8060	581528	0	0
2024-09-02 19:29:47			0	36974	0	0	0	28911	27540	157366	27135	1078803	47047	110746	0	0	8058	582607	0	0
2024-09-02 19:30:47			0	36960	0	0	0	28903	27530	157386	27218	1078811	47046	110743	0	0	8058	583204	0	0
2024-09-02 19:31:47			0	36955	0	0	0	28906	27540	157426	27351	1078794	47035	110744	0	0	8057	583372	0	0
2024-09-02 19:32:47			0	36948	0	0	0	28898	27530	157518	27194	1078721	47045	110741	0	0	8057	583687	0	0
2024-09-02 19:33:47			0	36945	0	0	0	28903	27540	157606	26894	1078740	47024	110743	0	0	8057	583775	0	0
2024-09-02 19:34:47			0	36921	0	0	0	28901	27530	157602	26955	1078748	47045	110742	0	0	8055	584776	0	0
2024-09-02 19:35:47			0	36902	0	0	0	28901	27510	157802	26838	1078640	47032	110742	0	0	8054	585610	0	0
2024-09-02 19:36:47			0	36914	0	0	0	28909	27510	157826	26741	1078730	47033	110745	0	0	8055	585126	0	0
2024-09-02 19:37:47			0	36933	0	0	0	28916	27510	157694	27116	1078694	47043	110748	0	0	8056	584359	0	0
2024-09-02 19:38:47			0	36917	0	0	0	28906	27510	157754	26982	1078667	47032	110744	0	0	8055	585005	0	0
2024-09-02 19:39:47			0	36916	0	0	0	28903	27510	157710	27225	1078667	47054	110743	0	0	8055	585045	0	0
2024-09-02 19:40:47			0	36924	0	0	0	28903	27510	157710	27064	1078694	47054	110743	0	0	8055	584722	0	0
2024-09-02 19:41:47			0	36886	0	0	0	28893	27510	157730	27121	1078694	47043	110739	0	0	8053	586256	0	0
2024-09-02 19:42:47			0	36882	0	0	0	28885	27500	157850	26953	1078658	47043	110736	0	0	8053	586452	0	0
2024-09-02 19:43:47			0	36897	0	0	0	28885	27500	157870	26970	1078658	47054	110736	0	0	8054	585846	0	0
2024-09-02 19:44:47			0	36847	0	0	0	28893	27500	157966	27270	1078622	47042	110739	0	0	8051	587868	0	0
2024-09-02 19:45:47			0	36851	0	0	0	28885	27490	157894	27121	1078631	47041	110736	0	0	8051	587740	0	0
2024-09-02 19:46:47			0	36867	0	0	0	28906	27500	158014	27033	1078568	47053	110744	0	0	8052	587058	0	0
2024-09-02 19:47:47			0	36911	0	0	0	28903	27490	157758	27050	1078694	47053	110743	0	0	8055	585314	0	0
2024-09-02 19:48:47			0	36902	0	0	0	28888	27500	157854	27211	1078649	47064	110737	0	0	8054	585644	0	0
2024-09-02 19:49:47			0	36909	0	0	0	28919	27490	157730	27149	1078631	47063	110749	0	0	8054	585395	0	0
2024-09-02 19:50:47			0	36898	0	0	0	28893	27490	157818	26916	1078658	47030	110739	0	0	8054	585839	0	0
2024-09-02 19:51:47			0	36891	0	0	0	28880	27500	157958	27306	1078649	47053	110734	0	0	8054	586088	0	0
2024-09-02 19:52:47			0	36860	0	0	0	28883	27480	157950	26987	1078541	47041	110735	0	0	8052	587409	0	0
2024-09-02 19:53:47			0	36871	0	0	0	28880	27500	157978	27076	1078568	47042	110734	0	0	8053	586897	0	0
2024-09-02 19:54:47			0	36843	0	0	0	28883	27480	158118	27305	1078622	47063	110735	0	0	8051	588097	0	0
2024-09-02 19:55:47			0	36844	0	0	0	28890	27480	158098	27183	1078568	47030	110738	0	0	8051	588057	0	0
2024-09-02 19:56:47			0	36876	0	0	0	28893	27490	158102	27170	1078640	47053	110739	0	0	8053	586728	0	0
2024-09-02 19:57:47			0	36853	0	0	0	28877	27480	158070	27053	1078622	47052	110733	0	0	8052	587692	0	0
2024-09-02 19:58:47			0	36862	0	0	0	28888	27480	158062	27137	1078622	47041	110737	0	0	8052	587328	0	0
2024-09-02 19:59:47			0	36863	0	0	0	28896	27480	158094	27381	1078649	47063	110740	0	0	8052	587288	0	0
2024-09-02 20:00:47			0	36853	0	0	0	28890	27480	158034	27348	1078595	47041	110738	0	0	8051	587692	0	0
2024-09-02 20:01:47			0	36845	0	0	0	28883	27480	158086	27098	1078649	47052	110735	0	0	8051	588016	0	0
2024-09-02 20:02:47			0	36859	0	0	0	28890	27480	158058	27365	1078568	47052	110738	0	0	8052	587450	0	0
2024-09-02 20:03:47			0	36852	0	0	0	28890	27490	158078	27213	1078577	47052	110738	0	0	8051	587699	0	0
2024-09-02 20:04:47			0	36875	0	0	0	28880	27480	158130	27281	1078568	47019	110734	0	0	8053	586802	0	0
2024-09-02 20:05:47			0	36849	0	0	0	28883	27490	158082	27066	1078550	47052	110735	0	0	8051	587821	0	0
2024-09-02 20:06:47			0	36847	0	0	0	28893	27480	158078	27196	1078649	47041	110739	0	0	8051	587935	0	0
2024-09-02 20:07:47			0	36857	0	0	0	28890	27490	158074	26946	1078604	47041	110738	0	0	8052	587497	0	0
2024-09-02 20:08:47			0	36854	0	0	0	28883	27490	158174	27319	1078523	47052	110735	0	0	8052	587618	0	0
2024-09-02 20:09:47			0	36837	0	0	0	28893	27490	158158	27157	1078577	47041	110739	0	0	8050	588306	0	0
2024-09-02 20:10:47			0	36822	0	0	0	28885	27480	158150	27379	1078595	47052	110736	0	0	8050	588948	0	0
2024-09-02 20:11:47			0	36833	0	0	0	28877	27470	158190	27183	1078577	47051	110733	0	0	8050	588536	0	0
2024-09-02 20:12:47			0	36806	0	0	0	28877	27470	158150	27327	1078523	47041	110733	0	0	8049	589631	0	0
2024-09-02 20:13:47			0	36829	0	0	0	28888	27480	158298	26998	1078532	47041	110737	0	0	8050	588665	0	0
2024-09-02 20:14:47			0	36815	0	0	0	28875	27470	158090	27326	1078523	47051	110732	0	0	8049	589266	0	0
2024-09-02 20:15:47			0	36796	0	0	0	28888	27480	158234	27130	1078559	47041	110737	0	0	8048	590003	0	0
2024-09-02 20:16:47			0	36814	0	0	0	28888	27480	158178	27187	1078595	47030	110737	0	0	8049	589273	0	0
2024-09-02 20:17:47			0	36830	0	0	0	28890	27470	158066	27353	1078523	47051	110738	0	0	8050	588658	0	0
2024-09-02 20:18:47			0	36850	0	0	0	28883	27480	157970	27074	1078586	47029	110735	0	0	8051	587814	0	0
2024-09-02 20:19:47			0	36846	0	0	0	28888	27470	158146	27083	1078577	47051	110737	0	0	8051	588010	0	0
2024-09-02 20:20:47			0	36847	0	0	0	28896	27490	158070	27232	1078631	47041	110740	0	0	8051	587902	0	0
2024-09-02 20:21:47			0	36842	0	0	0	28883	27470	158018	27026	1078604	47074	110735	0	0	8051	588172	0	0
2024-09-02 20:22:47			0	36837	0	0	0	28880	27480	158086	27104	1078595	47052	110734	0	0	8051	588340	0	0
2024-09-02 20:23:47			0	36838	0	0	0	28875	27480	158202	27031	1078559	47051	110732	0	0	8051	588300	0	0
2024-09-02 20:24:47			0	36851	0	0	0	28883	27480	158110	26934	1078586	47041	110735	0	0	8051	587773	0	0
2024-09-02 20:25:47			0	36850	0	0	0	28896	27470	158062	27352	1078604	47051	110740	0	0	8051	587848	0	0
2024-09-02 20:26:47			0	36872	0	0	0	28883	27470	158030	27036	1078577	47051	110735	0	0	8053	586957	0	0
2024-09-02 20:27:47			0	36868	0	0	0	28893	27480	158110	27105	1078622	47041	110739	0	0	8052	587086	0	0
2024-09-02 20:28:47			0	36882	0	0	0	28875	27480	157982	27062	1078622	47052	110732	0	0	8053	586519	0	0
2024-09-02 20:29:47			0	36883	0	0	0	28888	27480	158030	27244	1078559	47029	110737	0	0	8053	586479	0	0
2024-09-02 20:30:47			0	36876	0	0	0	28888	27490	158054	26948	1078604	47052	110737	0	0	8053	586728	0	0
2024-09-02 20:31:47			0	36883	0	0	0	28901	27480	157974	27431	1078559	47041	110742	0	0	8053	586479	0	0
2024-09-02 20:32:47			0	36872	0	0	0	28888	27480	157974	26939	1078622	47052	110737	0	0	8052	586924	0	0
2024-09-02 20:33:47			0	36861	0	0	0	28880	27470	158038	27255	1078604	47051	110734	0	0	8052	587402	0	0
2024-09-02 20:34:47			0	36859	0	0	0	28885	27470	158018	27074	1078577	47041	110736	0	0	8052	587483	0	0
2024-09-02 20:35:47			0	36870	0	0	0	28872	27470	158110	27045	1078487	47040	110731	0	0	8053	587038	0	0
2024-09-02 20:36:47			0	36866	0	0	0	28883	27460	158182	27213	1078559	47039	110735	0	0	8052	587234	0	0
2024-09-02 20:37:47			0	36848	0	0	0	28880	27470	158130	27150	1078568	47040	110734	0	0	8051	587929	0	0
2024-09-02 20:38:47			0	36832	0	0	0	28888	27470	158162	27112	1078550	47041	110737	0	0	8050	588577	0	0
2024-09-02 20:39:47			0	36860	0	0	0	28888	27470	158030	27015	1078577	47051	110737	0	0	8052	587443	0	0
2024-09-02 20:40:47			0	36870	0	0	0	28880	27480	158006	26889	1078568	47052	110734	0	0	8052	587005	0	0
2024-09-02 20:41:47			0	36871	0	0	0	28880	27470	157926	27043	1078604	47051	110734	0	0	8053	586998	0	0
2024-09-02 20:42:47			0	36877	0	0	0	28867	27470	158034	27064	1078550	47041	110729	0	0	8053	586755	0	0
2024-09-02 20:43:47			0	36880	0	0	0	28880	27470	157982	27274	1078541	47040	110734	0	0	8053	586634	0	0
2024-09-02 20:44:47			0	36878	0	0	0	28875	27480	158018	27284	1078505	47041	110732	0	0	8053	586681	0	0
2024-09-02 20:45:47			0	36882	0	0	0	28867	27480	157978	26896	1078514	47041	110729	0	0	8053	586519	0	0
2024-09-02 20:46:47			0	36884	0	0	0	28870	27470	157962	27225	1078514	47050	110730	0	0	8053	586472	0	0
2024-09-02 20:47:47			0	36869	0	0	0	28864	27460	158014	27154	1078505	47027	110728	0	0	8053	587113	0	0
2024-09-02 20:48:47			0	36851	0	0	0	28862	27460	157966	27057	1078469	47039	110727	0	0	8052	587841	0	0
2024-09-02 20:49:47			0	36865	0	0	0	28877	27460	158082	27157	1078505	47039	110733	0	0	8052	587274	0	0
2024-09-02 20:50:47			0	36867	0	0	0	28862	27470	158046	27232	1078469	47041	110727	0	0	8053	587160	0	0
2024-09-02 20:51:47			0	36898	0	0	0	28896	27460	157874	27178	1078505	47027	110740	0	0	8054	585940	0	0
2024-09-02 20:52:47			0	36894	0	0	0	28859	27470	157798	26785	1078487	47050	110726	0	0	8054	586068	0	0
2024-09-02 20:53:47			0	36867	0	0	0	28870	27470	158018	27263	1078514	47040	110730	0	0	8052	587160	0	0
2024-09-02 20:54:47			0	36874	0	0	0	28872	27460	157978	27105	1078505	47049	110731	0	0	8053	586910	0	0
2024-09-02 20:55:47			0	36884	0	0	0	28875	27460	158082	26922	1078505	47016	110732	0	0	8053	586506	0	0
2024-09-02 20:56:47			0	36897	0	0	0	28857	27470	157934	26939	1078487	47028	110725	0	0	8054	585947	0	0
2024-09-02 20:57:47			0	36908	0	0	0	28870	27460	157990	27180	1078532	47049	110730	0	0	8055	585536	0	0
2024-09-02 20:58:47			0	36907	0	0	0	28877	27470	157906	27135	1078550	47041	110733	0	0	8055	585543	0	0
2024-09-02 20:59:47			0	36906	0	0	0	28885	27460	157862	27114	1078451	47039	110736	0	0	8054	585617	0	0
2024-09-02 21:00:47			0	36897	0	0	0	28862	27460	157810	27197	1078532	47060	110727	0	0	8054	585981	0	0
2024-09-02 21:01:47			0	36895	0	0	0	28870	27470	157934	27189	1078514	47050	110730	0	0	8054	586028	0	0
2024-09-02 21:02:47			0	36880	0	0	0	28846	27460	158058	27213	1078451	47027	110721	0	0	8054	586668	0	0
2024-09-02 21:03:47			0	36862	0	0	0	28859	27460	158010	27038	1078451	47049	110726	0	0	8052	587396	0	0
2024-09-02 21:04:47			0	36887	0	0	0	28888	27460	157906	27216	1078469	47005	110737	0	0	8053	586385	0	0
2024-09-02 21:05:47			0	36886	0	0	0	28864	27460	157926	27329	1078559	47049	110728	0	0	8054	586425	0	0
2024-09-02 21:06:47			0	36892	0	0	0	28854	27450	157902	27220	1078540	47027	110724	0	0	8054	586216	0	0
2024-09-02 21:07:47			0	36902	0	0	0	28862	27460	157930	27107	1078442	47016	110727	0	0	8055	585779	0	0
2024-09-02 21:08:47			0	36888	0	0	0	28880	27460	157970	27033	1078478	47027	110734	0	0	8053	586344	0	0
2024-09-02 21:09:47			0	36860	0	0	0	28851	27460	157966	27105	1078469	47039	110723	0	0	8052	587477	0	0
2024-09-02 21:10:47			0	36861	0	0	0	28825	27460	158058	27104	1078469	47039	110713	0	0	8053	587436	0	0
2024-09-02 21:11:47			0	36840	0	0	0	28854	27450	158054	27170	1078424	47026	110724	0	0	8051	588320	0	0
2024-09-02 21:12:47			0	36865	0	0	0	28870	27450	158030	27109	1078397	47038	110730	0	0	8052	587308	0	0
2024-09-02 21:13:47			0	36882	0	0	0	28864	27450	157914	27274	1078406	47039	110728	0	0	8053	586621	0	0
2024-09-02 21:14:47			0	36882	0	0	0	28864	27460	158042	27130	1078469	47049	110728	0	0	8053	586587	0	0
2024-09-02 21:15:47			0	36888	0	0	0	28849	27450	157874	27209	1078487	47039	110722	0	0	8054	586378	0	0
2024-09-02 21:16:47			0	36879	0	0	0	28883	27450	158062	27274	1078487	47049	110735	0	0	8053	586742	0	0
2024-09-02 21:17:47			0	36912	0	0	0	28870	27450	157846	26970	1078504	47038	110730	0	0	8055	585408	0	0
2024-09-02 21:18:47			0	36915	0	0	0	28880	27450	157770	27154	1078487	47060	110734	0	0	8055	585287	0	0
2024-09-02 21:19:47			0	36918	0	0	0	28854	27460	157822	27248	1078397	47049	110724	0	0	8056	585133	0	0
2024-09-02 21:20:47			0	36880	0	0	0	28849	27460	157946	27249	1078442	47039	110722	0	0	8054	586668	0	0
2024-09-02 21:21:47			0	36881	0	0	0	28867	27450	157962	26963	1078451	47026	110729	0	0	8053	586661	0	0
2024-09-02 21:22:47			0	36903	0	0	0	28862	27450	157950	27218	1078487	47039	110727	0	0	8055	585772	0	0
2024-09-02 21:23:47			0	36886	0	0	0	28846	27450	158018	26804	1078451	47059	110721	0	0	8054	586459	0	0
2024-09-02 21:24:47			0	36874	0	0	0	28828	27450	158066	27001	1078379	47049	110714	0	0	8053	586944	0	0
2024-09-02 21:25:47			0	36844	0	0	0	28831	27450	158146	27007	1078424	47026	110715	0	0	8052	588158	0	0
2024-09-02 21:26:47			0	36841	0	0	0	28825	27440	158230	27064	1078415	47025	110713	0	0	8052	588314	0	0
2024-09-02 21:27:47			0	36821	0	0	0	28828	27440	158274	27013	1078325	47047	110714	0	0	8050	589124	0	0
2024-09-02 21:28:47			0	36824	0	0	0	28815	27430	158222	27050	1078316	47047	110709	0	0	8051	589037	0	0
2024-09-02 21:29:47			0	36835	0	0	0	28825	27440	158158	27060	1078253	47014	110713	0	0	8051	588557	0	0
2024-09-02 21:30:47			0	36833	0	0	0	28805	27430	158338	27071	1078343	47037	110705	0	0	8051	588672	0	0
2024-09-02 21:31:47			0	36797	0	0	0	28805	27430	158306	26902	1078280	47013	110705	0	0	8049	590132	0	0
2024-09-02 21:32:47			0	36814	0	0	0	28831	27430	158254	26904	1078253	47046	110715	0	0	8050	589442	0	0
2024-09-02 21:33:47			0	36798	0	0	0	28815	27430	158282	27253	1078280	47013	110709	0	0	8049	590091	0	0
2024-09-02 21:34:47			0	36818	0	0	0	28810	27420	158278	27060	1078244	47035	110707	0	0	8050	589314	0	0
2024-09-02 21:35:47			0	36834	0	0	0	28820	27430	158334	27197	1078343	47037	110711	0	0	8051	588631	0	0
2024-09-02 21:36:47			0	36810	0	0	0	28820	27420	158358	27116	1078244	47023	110711	0	0	8050	589638	0	0
2024-09-02 21:37:47			0	36818	0	0	0	28807	27420	158246	27152	1078244	47035	110706	0	0	8050	589314	0	0
2024-09-02 21:38:47			0	36815	0	0	0	28812	27420	158258	26814	1078271	47045	110708	0	0	8050	589435	0	0
2024-09-02 21:39:47			0	36801	0	0	0	28807	27410	158330	27092	1078226	47022	110706	0	0	8049	590038	0	0
2024-09-02 21:40:47			0	36805	0	0	0	28836	27410	158314	27086	1078270	47044	110717	0	0	8049	589875	0	0
2024-09-02 21:41:47			0	36823	0	0	0	28820	27410	158294	27066	1078226	47034	110711	0	0	8050	589145	0	0
2024-09-02 21:42:47			0	36840	0	0	0	28818	27410	158206	27173	1078226	47044	110710	0	0	8051	588456	0	0
2024-09-02 21:43:47			0	36817	0	0	0	28799	27420	158294	27079	1078288	47045	110703	0	0	8050	589354	0	0
2024-09-02 21:44:47			0	36806	0	0	0	28776	27410	158322	27185	1078172	47011	110694	0	0	8050	589834	0	0
2024-09-02 21:45:47			0	36799	0	0	0	28810	27400	158186	27145	1078153	47021	110707	0	0	8049	590153	0	0
2024-09-02 21:46:47			0	36846	0	0	0	28838	27410	158290	27152	1078189	47044	110718	0	0	8051	588213	0	0
2024-09-02 21:47:47			0	36841	0	0	0	28820	27420	158218	27081	1078262	47035	110711	0	0	8052	588381	0	0
2024-09-02 21:48:47			0	36862	0	0	0	28802	27420	158234	27220	1078288	47023	110704	0	0	8053	587531	0	0
2024-09-02 21:49:47			0	36840	0	0	0	28776	27410	158290	26908	1078172	47055	110694	0	0	8052	588456	0	0
2024-09-02 21:50:47			0	36809	0	0	0	28794	27410	158394	27050	1078118	47022	110701	0	0	8050	589713	0	0
2024-09-02 21:51:47			0	36825	0	0	0	28792	27400	158402	27112	1078153	47033	110700	0	0	8051	589098	0	0
2024-09-02 21:52:47			0	36811	0	0	0	28758	27390	158426	26987	1078045	47020	110687	0	0	8051	589699	0	0
2024-09-02 21:53:47			0	36782	0	0	0	28750	27390	158490	27246	1078018	47020	110684	0	0	8049	590877	0	0
2024-09-02 21:54:47			0	36757	0	0	0	28740	27390	158542	26894	1078018	47020	110680	0	0	8048	591893	0	0
2024-09-02 21:55:47			0	36767	0	0	0	28742	27370	158562	26767	1077964	47018	110681	0	0	8048	591555	0	0
2024-09-02 21:56:47			0	36760	0	0	0	28789	27380	158678	27166	1077946	47051	110699	0	0	8047	591805	0	0
2024-09-02 21:57:47			0	36790	0	0	0	28758	27370	158574	27133	1077937	47030	110687	0	0	8049	590620	0	0
2024-09-02 21:58:47			0	36792	0	0	0	28724	27360	158522	26963	1077892	47040	110674	0	0	8050	590573	0	0
2024-09-02 21:59:47			0	36785	0	0	0	28727	27360	158618	26937	1077910	47005	110675	0	0	8049	590857	0	0
2024-09-02 22:00:47			0	36780	0	0	0	28719	27350	158590	27059	1077793	47028	110672	0	0	8049	591094	0	0
2024-09-02 22:01:47			0	36776	0	0	0	28755	27360	158598	27005	1077829	47016	110686	0	0	8048	591223	0	0
2024-09-02 22:02:47			0	36800	0	0	0	28755	27350	158606	27300	1077847	47028	110686	0	0	8050	590282	0	0
2024-09-02 22:03:47			0	36817	0	0	0	28776	27350	158386	27038	1077928	47016	110694	0	0	8050	589591	0	0
2024-09-02 22:04:47			0	36814	0	0	0	28735	27350	158526	26928	1077901	47049	110678	0	0	8051	589713	0	0
2024-09-02 22:05:47			0	36796	0	0	0	28727	27350	158454	26837	1077811	47039	110675	0	0	8050	590444	0	0
2024-09-02 22:06:47			0	36802	0	0	0	28722	27350	158410	26850	1077793	47028	110673	0	0	8051	590200	0	0
2024-09-02 22:07:47			0	36804	0	0	0	28698	27350	158470	26769	1077767	47016	110664	0	0	8051	590119	0	0
2024-09-02 22:08:47			0	36797	0	0	0	28706	27340	158582	26955	1077712	47025	110667	0	0	8050	590437	0	0
2024-09-02 22:09:47			0	36770	0	0	0	28693	27330	158566	26979	1077730	47024	110662	0	0	8049	591569	0	0
2024-09-02 22:10:47			0	36771	0	0	0	28672	27320	158566	27090	1077631	47013	110654	0	0	8049	591562	0	0
2024-09-02 22:11:47			0	36772	0	0	0	28677	27310	158490	27209	1077586	47011	110656	0	0	8049	591555	0	0
2024-09-02 22:12:47			0	36769	0	0	0	28683	27310	158602	26965	1077550	47034	110658	0	0	8049	591677	0	0
2024-09-02 22:13:47			0	36760	0	0	0	28670	27310	158558	26807	1077604	46989	110653	0	0	8049	592044	0	0
2024-09-02 22:14:47			0	36767	0	0	0	28659	27300	158646	27064	1077541	47022	110649	0	0	8049	591793	0	0
2024-09-02 22:15:47			0	36749	0	0	0	28662	27300	158610	26838	1077541	47000	110650	0	0	8048	592525	0	0
2024-09-02 22:16:47			0	36756	0	0	0	28662	27290	158710	27218	1077523	47032	110650	0	0	8049	592274	0	0
2024-09-02 22:17:47			0	36760	0	0	0	28680	27280	158598	27105	1077532	47020	110657	0	0	8048	592146	0	0
2024-09-02 22:18:47			0	36777	0	0	0	28672	27280	158602	27185	1077478	47009	110654	0	0	8050	591454	0	0
2024-09-02 22:19:47			0	36780	0	0	0	28677	27280	158554	27254	1077496	47019	110656	0	0	8050	591332	0	0
2024-09-02 22:20:47			0	36778	0	0	0	28667	27280	158570	26856	1077505	47020	110652	0	0	8050	591413	0	0
2024-09-02 22:21:47			0	36783	0	0	0	28667	27280	158486	26975	1077397	47009	110652	0	0	8050	591210	0	0
2024-09-02 22:22:47			0	36786	0	0	0	28659	27270	158606	27071	1077487	47030	110649	0	0	8050	591122	0	0
2024-09-02 22:23:47			0	36772	0	0	0	28675	27270	158550	27201	1077451	47029	110655	0	0	8049	591691	0	0
2024-09-02 22:24:47			0	36784	0	0	0	28667	27270	158478	27098	1077433	47030	110652	0	0	8050	591203	0	0
2024-09-02 22:25:47			0	36792	0	0	0	28654	27270	158518	27043	1077379	47041	110647	0	0	8051	590878	0	0
2024-09-02 22:26:47			0	36792	0	0	0	28657	27270	158518	27383	1077370	47040	110648	0	0	8051	590878	0	0
2024-09-02 22:27:47			0	36792	0	0	0	28657	27270	158518	27166	1077424	47017	110648	0	0	8051	590878	0	0
2024-09-02 22:28:47			0	36789	0	0	0	28659	27270	158618	27130	1077424	47029	110649	0	0	8050	591000	0	0
2024-09-02 22:29:47			0	36789	0	0	0	28644	27270	158486	26890	1077424	46996	110643	0	0	8051	591000	0	0
2024-09-02 22:30:47			0	36774	0	0	0	28649	27260	158594	26856	1077307	47006	110645	0	0	8050	591644	0	0
2024-09-02 22:31:47			0	36793	0	0	0	28646	27250	158618	27012	1077334	47027	110644	0	0	8051	590905	0	0
2024-09-02 22:32:47			0	36772	0	0	0	28638	27260	158622	27055	1077298	47029	110641	0	0	8050	591725	0	0
2024-09-02 22:33:47			0	36781	0	0	0	28672	27250	158658	26942	1077334	47015	110654	0	0	8050	591393	0	0
2024-09-02 22:34:47			0	36779	0	0	0	28649	27260	158526	26967	1077406	47029	110645	0	0	8050	591441	0	0
2024-09-02 22:35:47			0	36810	0	0	0	28659	27250	158602	27232	1077423	47039	110649	0	0	8052	590214	0	0
2024-09-02 22:36:47			0	36817	0	0	0	28657	27250	158402	27008	1077397	47039	110648	0	0	8052	589930	0	0
2024-09-02 22:37:47			0	36818	0	0	0	28659	27250	158446	27022	1077361	47004	110649	0	0	8052	589890	0	0
2024-09-02 22:38:47			0	36809	0	0	0	28649	27250	158386	26852	1077361	47027	110645	0	0	8052	590255	0	0
2024-09-02 22:39:47			0	36816	0	0	0	28641	27250	158462	26791	1077370	47016	110642	0	0	8052	589971	0	0
2024-09-02 22:40:47			0	36806	0	0	0	28625	27250	158494	27156	1077253	47015	110636	0	0	8052	590377	0	0
2024-09-02 22:41:47			0	36804	0	0	0	28628	27250	158474	27332	1077307	47004	110637	0	0	8052	590458	0	0
2024-09-02 22:42:47			0	36791	0	0	0	28636	27250	158478	26948	1077289	47005	110640	0	0	8051	590987	0	0
2024-09-02 22:43:47			0	36777	0	0	0	28623	27240	158546	27050	1077298	47038	110635	0	0	8050	591590	0	0
2024-09-02 22:44:47			0	36747	0	0	0	28620	27240	158654	27112	1077271	47015	110634	0	0	8048	592811	0	0
2024-09-02 22:45:47			0	36751	0	0	0	28618	27240	158778	27182	1077190	47027	110633	0	0	8049	592648	0	0
2024-09-02 22:46:47			0	36748	0	0	0	28625	27240	158766	27190	1077271	47027	110636	0	0	8048	592770	0	0
2024-09-02 22:47:47			0	36758	0	0	0	28623	27240	158822	27216	1077244	46994	110635	0	0	8049	592363	0	0
2024-09-02 22:48:47			0	36745	0	0	0	28620	27230	158838	27130	1077226	47003	110634	0	0	8048	592927	0	0
2024-09-02 22:49:47			0	36749	0	0	0	28615	27240	158846	27029	1077163	47027	110632	0	0	8049	592730	0	0
2024-09-02 22:50:47			0	36736	0	0	0	28615	27230	158830	26916	1077226	47014	110632	0	0	8048	593293	0	0
2024-09-02 22:51:47			0	36727	0	0	0	28631	27230	158818	27133	1077226	47026	110638	0	0	8047	593660	0	0
2024-09-02 22:52:47			0	36742	0	0	0	28625	27230	158774	27275	1077190	47013	110636	0	0	8048	593049	0	0
2024-09-02 22:53:47			0	36735	0	0	0	28631	27220	158786	27241	1077181	47036	110638	0	0	8047	593368	0	0
2024-09-02 22:54:47			0	36736	0	0	0	28628	27220	158758	27267	1077208	47013	110637	0	0	8048	593327	0	0
2024-09-02 22:55:47			0	36737	0	0	0	28623	27220	158762	27263	1077261	47036	110635	0	0	8048	593287	0	0
2024-09-02 22:56:47			0	36747	0	0	0	28631	27220	158794	27072	1077181	47025	110638	0	0	8048	592879	0	0
2024-09-02 22:57:47			0	36747	0	0	0	28620	27230	158638	27013	1077163	47036	110634	0	0	8048	592845	0	0
2024-09-02 22:58:47			0	36759	0	0	0	28631	27230	158714	27119	1077226	47026	110638	0	0	8049	592356	0	0
2024-09-02 22:59:47			0	36750	0	0	0	28620	27220	158606	27116	1077208	47025	110634	0	0	8049	592757	0	0
2024-09-02 23:00:47			0	36750	0	0	0	28623	27210	158698	27396	1077136	47024	110635	0	0	8048	592791	0	0
2024-09-02 23:01:47			0	36746	0	0	0	28612	27230	158746	27208	1077163	47013	110631	0	0	8048	592886	0	0
2024-09-02 23:02:47			0	36754	0	0	0	28618	27220	158810	27371	1077208	47025	110633	0	0	8049	592594	0	0
2024-09-02 23:03:47			0	36749	0	0	0	28599	27230	158874	27303	1077163	47025	110626	0	0	8049	592764	0	0
2024-09-02 23:04:47			0	36733	0	0	0	28610	27210	158738	27313	1077172	47013	110630	0	0	8048	593484	0	0
2024-09-02 23:05:47			0	36736	0	0	0	28623	27210	158866	27119	1077190	47035	110635	0	0	8048	593361	0	0
2024-09-02 23:06:47			0	36736	0	0	0	28610	27220	158730	27065	1077181	47025	110630	0	0	8048	593327	0	0
2024-09-02 23:07:47			0	36732	0	0	0	28592	27230	158834	26968	1077163	47036	110623	0	0	8048	593456	0	0
2024-09-02 23:08:47			0	36714	0	0	0	28594	27210	158918	27383	1077172	47025	110624	0	0	8047	594259	0	0
2024-09-02 23:09:47			0	36704	0	0	0	28594	27210	159042	27026	1077109	47024	110624	0	0	8046	594667	0	0
2024-09-02 23:10:47			0	36701	0	0	0	28610	27210	159002	26859	1077163	46991	110630	0	0	8046	594789	0	0
2024-09-02 23:11:47			0	36693	0	0	0	28599	27210	158938	27133	1077172	47002	110626	0	0	8045	595116	0	0
2024-09-02 23:12:47			0	36701	0	0	0	28612	27200	158930	26859	1077145	47022	110631	0	0	8046	594824	0	0
2024-09-02 23:13:47			0	36722	0	0	0	28602	27200	158930	27128	1077154	47011	110627	0	0	8047	593966	0	0
2024-09-02 23:14:47			0	36690	0	0	0	28602	27190	158930	27038	1077055	47022	110627	0	0	8045	595307	0	0
2024-09-02 23:15:47			0	36693	0	0	0	28599	27200	158874	27177	1077091	47022	110626	0	0	8045	595150	0	0
2024-09-02 23:16:47			0	36678	0	0	0	28594	27200	158962	27093	1077091	47010	110624	0	0	8045	595763	0	0
2024-09-02 23:17:47			0	36654	0	0	0	28581	27210	159018	27410	1077109	47035	110619	0	0	8043	596711	0	0
2024-09-02 23:18:47			0	36657	0	0	0	28584	27190	159102	27265	1077073	47022	110620	0	0	8043	596656	0	0
2024-09-02 23:19:47			0	36646	0	0	0	28568	27190	159270	27391	1077001	47010	110614	0	0	8043	597107	0	0
2024-09-02 23:20:47			0	36630	0	0	0	28581	27190	159274	27467	1077028	47000	110619	0	0	8042	597762	0	0
2024-09-02 23:21:47			0	36632	0	0	0	28586	27190	159362	27296	1077019	47022	110621	0	0	8042	597680	0	0
2024-09-02 23:22:47			0	36630	0	0	0	28592	27190	159234	27013	1077001	47033	110623	0	0	8042	597762	0	0
2024-09-02 23:23:47			0	36609	0	0	0	28573	27170	159302	27086	1076938	47008	110616	0	0	8041	598691	0	0
2024-09-02 23:24:47			0	36609	0	0	0	28568	27180	159406	27168	1076929	47021	110614	0	0	8041	598657	0	0
2024-09-02 23:25:47			0	36593	0	0	0	28579	27180	159481	27008	1077010	47021	110618	0	0	8040	599314	0	0
2024-09-02 23:26:47			0	36576	0	0	0	28568	27180	159449	27306	1077010	47021	110614	0	0	8039	600012	0	0
2024-09-02 23:27:47			0	36601	0	0	0	28579	27180	159498	26807	1076947	47031	110618	0	0	8040	598985	0	0
2024-09-02 23:28:47			0	36573	0	0	0	28573	27180	159477	27057	1076920	47008	110616	0	0	8039	600135	0	0
2024-09-02 23:29:47			0	36581	0	0	0	28566	27180	159437	27020	1077037	47032	110613	0	0	8039	599806	0	0
2024-09-02 23:30:47			0	36566	0	0	0	28576	27170	159597	27305	1076938	47008	110617	0	0	8038	600457	0	0
2024-09-02 23:31:47			0	36564	0	0	0	28568	27180	159537	26951	1076974	47020	110614	0	0	8038	600505	0	0
2024-09-02 23:32:47			0	36546	0	0	0	28573	27170	159649	26911	1076938	46998	110616	0	0	8037	601279	0	0
2024-09-02 23:33:47			0	36555	0	0	0	28571	27180	159681	26901	1076974	47020	110615	0	0	8038	600875	0	0
2024-09-02 23:34:47			0	36543	0	0	0	28558	27170	159721	27048	1076929	47008	110610	0	0	8037	601403	0	0
2024-09-02 23:35:47			0	36517	0	0	0	28555	27160	159861	27081	1076991	47006	110609	0	0	8035	602508	0	0
2024-09-02 23:36:47			0	36506	0	0	0	28568	27160	159765	26982	1076920	47019	110614	0	0	8035	602961	0	0
2024-09-02 23:37:47			0	36504	0	0	0	28568	27160	159969	26998	1076973	47019	110614	0	0	8035	603043	0	0
2024-09-02 23:38:47			0	36506	0	0	0	28576	27170	159945	27178	1076983	47031	110617	0	0	8035	602926	0	0
2024-09-02 23:39:47			0	36485	0	0	0	28586	27170	159845	26991	1076902	47008	110621	0	0	8033	603792	0	0
2024-09-02 23:40:47			0	36472	0	0	0	28579	27160	159917	26856	1076920	47019	110618	0	0	8032	604364	0	0
2024-09-02 23:41:47			0	36478	0	0	0	28581	27170	159953	26840	1076992	47020	110619	0	0	8033	604081	0	0
2024-09-02 23:42:47			0	36431	0	0	0	28584	27170	159929	26906	1077018	47020	110620	0	0	8030	606023	0	0
2024-09-02 23:43:47			0	36440	0	0	0	28589	27170	160033	27138	1076956	47020	110622	0	0	8030	605651	0	0
2024-09-02 23:44:47			0	36440	0	0	0	28589	27170	160149	27100	1077018	47031	110622	0	0	8030	605651	0	0
2024-09-02 23:45:47			0	36448	0	0	0	28592	27180	160129	26868	1077054	47031	110623	0	0	8031	605286	0	0
2024-09-02 23:46:47			0	36427	0	0	0	28586	27180	160057	26972	1077028	47008	110621	0	0	8030	606154	0	0
2024-09-02 23:47:47			0	36455	0	0	0	28589	27180	160097	27206	1076974	47008	110622	0	0	8031	604996	0	0
2024-09-02 23:48:47			0	36473	0	0	0	28592	27170	160029	27074	1077018	46998	110623	0	0	8032	604288	0	0
2024-09-02 23:49:47			0	36503	0	0	0	28592	27180	159813	26861	1077028	47020	110623	0	0	8034	603016	0	0
2024-09-02 23:50:47			0	36509	0	0	0	28581	27180	159789	26849	1077028	47031	110619	0	0	8035	602768	0	0
2024-09-02 23:51:47			0	36524	0	0	0	28586	27180	159737	27293	1076974	47020	110621	0	0	8035	602150	0	0
2024-09-02 23:52:47			0	36524	0	0	0	28581	27170	159785	26949	1076938	47020	110619	0	0	8036	602185	0	0
2024-09-02 23:53:47			0	36550	0	0	0	28586	27170	159689	27119	1077045	47031	110621	0	0	8037	601115	0	0
2024-09-02 23:54:47			0	36566	0	0	0	28573	27160	159541	26878	1076947	47007	110616	0	0	8038	600491	0	0
2024-09-02 23:55:47			0	36576	0	0	0	28573	27180	159585	26984	1077001	46998	110616	0	0	8039	600012	0	0
2024-09-02 23:56:47			0	36581	0	0	0	28576	27170	159533	27005	1076902	47041	110617	0	0	8039	599841	0	0
2024-09-02 23:57:47			0	36571	0	0	0	28555	27170	159553	27022	1076965	47008	110609	0	0	8039	600252	0	0
2024-09-02 23:58:47			0	36580	0	0	0	28548	27180	159581	27332	1076947	47020	110606	0	0	8039	599847	0	0
2024-09-02 23:59:47			0	36590	0	0	0	28555	27160	159461	27157	1076893	47019	110609	0	0	8040	599506	0	0
2024-09-03 00:00:47			0	36583	0	0	0	28561	27170	159505	27216	1076902	46998	110611	0	0	8039	599759	0	0
2024-09-03 00:01:47			0	36593	0	0	0	28563	27160	159514	26955	1076883	47018	110612	0	0	8040	599382	0	0
2024-09-03 00:02:47			0	36590	0	0	0	28563	27160	159582	26946	1076893	47019	110612	0	0	8040	599506	0	0
2024-09-03 00:03:47			0	36589	0	0	0	28563	27160	159601	27019	1076920	47007	110612	0	0	8040	599547	0	0
2024-09-03 00:04:47			0	36580	0	0	0	28566	27160	159613	27062	1076893	47030	110613	0	0	8039	599916	0	0
2024-09-03 00:05:47			0	36584	0	0	0	28561	27170	159585	27097	1076983	47020	110611	0	0	8039	599717	0	0
2024-09-03 00:06:47			0	36595	0	0	0	28550	27160	159578	27147	1076937	47018	110607	0	0	8040	599300	0	0
2024-09-03 00:07:47			0	36613	0	0	0	28542	27140	159498	27364	1076883	47017	110604	0	0	8041	598631	0	0
2024-09-03 00:08:47			0	36624	0	0	0	28540	27150	159302	27268	1076821	47006	110603	0	0	8042	598145	0	0
2024-09-03 00:09:47			0	36677	0	0	0	28540	27150	159098	27332	1076838	47006	110603	0	0	8045	595975	0	0
2024-09-03 00:10:47			0	36707	0	0	0	28540	27140	158918	27227	1076775	47005	110603	0	0	8047	594783	0	0
2024-09-03 00:11:47			0	36714	0	0	0	28542	27160	158938	26996	1076883	46996	110604	0	0	8047	594429	0	0
2024-09-03 00:12:47			0	36729	0	0	0	28540	27150	159014	27045	1076838	46996	110603	0	0	8048	593851	0	0
2024-09-03 00:13:47			0	36736	0	0	0	28532	27150	158906	27426	1076838	47006	110600	0	0	8049	593566	0	0
2024-09-03 00:14:47			0	36743	0	0	0	28532	27140	158914	27078	1076775	47017	110600	0	0	8049	593315	0	0
2024-09-03 00:15:47			0	36717	0	0	0	28537	27140	158874	27197	1076775	46984	110602	0	0	8048	594375	0	0
2024-09-03 00:16:47			0	36726	0	0	0	28537	27140	158822	27157	1076802	47005	110602	0	0	8048	594008	0	0
2024-09-03 00:17:47			0	36758	0	0	0	28532	27140	158854	26981	1076820	47016	110600	0	0	8050	592703	0	0
2024-09-03 00:18:47			0	36759	0	0	0	28535	27140	158778	27310	1076829	47005	110601	0	0	8050	592663	0	0
2024-09-03 00:19:47			0	36796	0	0	0	28527	27140	158698	27038	1076820	47016	110598	0	0	8052	591156	0	0
2024-09-03 00:20:47			0	36777	0	0	0	28529	27130	158770	27105	1076748	47003	110599	0	0	8051	591963	0	0
2024-09-03 00:21:47			0	36783	0	0	0	28532	27140	158690	27428	1076775	47028	110600	0	0	8052	591685	0	0
2024-09-03 00:22:47			0	36835	0	0	0	28522	27140	158478	27164	1076793	47016	110596	0	0	8055	589572	0	0
2024-09-03 00:23:47			0	36823	0	0	0	28529	27140	158542	27258	1076775	47017	110599	0	0	8054	590059	0	0
2024-09-03 00:24:47			0	36828	0	0	0	28535	27130	158554	27441	1076784	47027	110601	0	0	8054	589890	0	0
2024-09-03 00:25:47			0	36831	0	0	0	28511	27130	158442	27071	1076757	47004	110592	0	0	8055	589768	0	0
2024-09-03 00:26:47			0	36796	0	0	0	28501	27130	158646	27074	1076730	46994	110588	0	0	8053	591190	0	0
2024-09-03 00:27:47			0	36755	0	0	0	28501	27130	158850	27079	1076695	47015	110588	0	0	8050	592859	0	0
2024-09-03 00:28:47			0	36725	0	0	0	28501	27120	158922	27334	1076659	47003	110588	0	0	8049	594117	0	0
2024-09-03 00:29:47			0	36681	0	0	0	28503	27120	159058	27251	1076676	47002	110589	0	0	8046	595914	0	0
2024-09-03 00:30:47			0	36653	0	0	0	28511	27120	159190	27223	1076685	47003	110592	0	0	8044	597060	0	0
2024-09-03 00:31:47			0	36664	0	0	0	28498	27120	159126	27294	1076632	47015	110587	0	0	8045	596610	0	0
2024-09-03 00:32:47			0	36707	0	0	0	28503	27120	159106	27229	1076659	47015	110589	0	0	8047	594852	0	0
2024-09-03 00:33:47			0	36685	0	0	0	28506	27110	159038	27263	1076667	47024	110590	0	0	8046	595785	0	0
2024-09-03 00:34:47			0	36695	0	0	0	28516	27110	158994	26922	1076604	47013	110594	0	0	8046	595376	0	0
2024-09-03 00:35:47			0	36726	0	0	0	28519	27110	158902	27078	1076658	47024	110595	0	0	8048	594110	0	0
2024-09-03 00:36:47			0	36767	0	0	0	28516	27110	158794	27039	1076658	47001	110594	0	0	8051	592439	0	0
2024-09-03 00:37:47			0	36803	0	0	0	28519	27120	158638	27246	1076712	47015	110595	0	0	8053	590940	0	0
2024-09-03 00:38:47			0	36809	0	0	0	28516	27120	158566	27227	1076650	47014	110594	0	0	8053	590696	0	0
2024-09-03 00:39:47			0	36837	0	0	0	28519	27120	158470	26923	1076676	47014	110595	0	0	8055	589558	0	0
2024-09-03 00:40:47			0	36853	0	0	0	28516	27110	158374	27078	1076667	47013	110594	0	0	8056	588943	0	0
2024-09-03 00:41:47			0	36858	0	0	0	28516	27110	158350	27272	1076658	47013	110594	0	0	8056	588740	0	0
2024-09-03 00:42:47			0	36896	0	0	0	28516	27120	158254	26953	1076685	47003	110594	0	0	8058	587167	0	0
2024-09-03 00:43:47			0	36913	0	0	0	28514	27120	158098	27206	1076676	46992	110593	0	0	8059	586479	0	0
2024-09-03 00:44:47			0	36937	0	0	0	28524	27120	158094	27237	1076703	47002	110597	0	0	8061	585509	0	0
2024-09-03 00:45:47			0	36918	0	0	0	28524	27120	158058	27170	1076703	47014	110597	0	0	8060	586277	0	0
2024-09-03 00:46:47			0	36939	0	0	0	28532	27120	158150	27095	1076703	47025	110600	0	0	8061	585428	0	0
2024-09-03 00:47:47			0	36960	0	0	0	28527	27120	157906	26654	1076676	46992	110598	0	0	8062	584580	0	0
2024-09-03 00:48:47			0	36981	0	0	0	28522	27130	157830	27229	1076695	47003	110596	0	0	8063	583699	0	0
2024-09-03 00:49:47			0	36978	0	0	0	28514	27120	157922	27171	1076676	47014	110593	0	0	8063	583854	0	0
2024-09-03 00:50:47			0	36971	0	0	0	28524	27110	157982	27085	1076667	47024	110597	0	0	8063	584169	0	0
2024-09-03 00:51:47			0	36993	0	0	0	28524	27110	157786	27215	1076721	47013	110597	0	0	8064	583282	0	0
2024-09-03 00:52:47			0	37032	0	0	0	28514	27110	157702	27208	1076667	47024	110593	0	0	8066	581712	0	0
2024-09-03 00:53:47			0	37059	0	0	0	28524	27110	157590	27173	1076667	47013	110597	0	0	8068	580626	0	0
2024-09-03 00:54:47			0	37090	0	0	0	28522	27110	157406	27209	1076667	47001	110596	0	0	8070	579382	0	0
2024-09-03 00:55:47			0	37106	0	0	0	28516	27120	157342	27298	1076739	47015	110594	0	0	8071	578707	0	0
2024-09-03 00:56:47			0	37078	0	0	0	28511	27120	157470	27024	1076659	47015	110592	0	0	8069	579830	0	0
2024-09-03 00:57:47			0	37045	0	0	0	28519	27120	157594	27421	1076650	47002	110595	0	0	8067	581156	0	0
2024-09-03 00:58:47			0	37067	0	0	0	28511	27120	157638	27171	1076730	47025	110592	0	0	8069	580272	0	0
2024-09-03 00:59:47			0	37066	0	0	0	28519	27120	157550	27424	1076703	47025	110595	0	0	8068	580312	0	0
2024-09-03 01:00:47			0	37065	0	0	0	28516	27110	157562	26930	1076667	47024	110594	0	0	8068	580385	0	0
2024-09-03 01:01:47			0	37045	0	0	0	28514	27110	157574	27467	1076667	47001	110593	0	0	8067	581189	0	0
2024-09-03 01:02:47			0	37078	0	0	0	28506	27110	157426	27286	1076667	47024	110590	0	0	8069	579863	0	0
2024-09-03 01:03:47			0	37061	0	0	0	28511	27120	157474	27085	1076685	47015	110592	0	0	8068	580513	0	0
2024-09-03 01:04:47			0	37050	0	0	0	28496	27120	157630	27345	1076676	47014	110586	0	0	8068	580955	0	0
2024-09-03 01:05:47			0	37052	0	0	0	28514	27120	157758	27313	1076703	47014	110593	0	0	8068	580874	0	0
2024-09-03 01:06:47			0	37078	0	0	0	28509	27120	157566	26977	1076730	47036	110591	0	0	8069	579830	0	0
2024-09-03 01:07:47			0	37098	0	0	0	28509	27110	157490	27189	1076712	47001	110591	0	0	8070	579061	0	0
2024-09-03 01:08:47			0	37139	0	0	0	28506	27110	157286	26975	1076640	47013	110590	0	0	8073	577418	0	0
2024-09-03 01:09:47			0	37143	0	0	0	28511	27110	157294	27199	1076667	47013	110592	0	0	8073	577258	0	0
2024-09-03 01:10:47			0	37147	0	0	0	28514	27110	157302	27144	1076694	47001	110593	0	0	8073	577098	0	0
2024-09-03 01:11:47			0	37140	0	0	0	28501	27110	157282	27176	1076721	47024	110588	0	0	8073	577378	0	0
2024-09-03 01:12:47			0	37112	0	0	0	28503	27110	157370	27171	1076631	47013	110589	0	0	8071	578499	0	0
2024-09-03 01:13:47			0	37135	0	0	0	28509	27110	157266	27041	1076631	47013	110591	0	0	8073	577578	0	0
2024-09-03 01:14:47			0	37131	0	0	0	28496	27110	157370	26982	1076604	47013	110586	0	0	8073	577738	0	0
2024-09-03 01:15:47			0	37138	0	0	0	28498	27100	157254	27280	1076622	47001	110587	0	0	8073	577491	0	0
2024-09-03 01:16:47			0	37138	0	0	0	28496	27100	157398	27244	1076595	47001	110586	0	0	8073	577491	0	0
2024-09-03 01:17:47			0	37152	0	0	0	28506	27100	157338	27293	1076559	47000	110590	0	0	8074	576931	0	0
2024-09-03 01:18:47			0	37136	0	0	0	28488	27090	157306	27078	1076550	47011	110583	0	0	8073	577604	0	0
2024-09-03 01:19:47			0	37142	0	0	0	28498	27100	157174	27024	1076613	47034	110587	0	0	8073	577331	0	0
2024-09-03 01:20:47			0	37137	0	0	0	28503	27100	157222	27211	1076622	47024	110589	0	0	8073	577531	0	0
2024-09-03 01:21:47			0	37141	0	0	0	28503	27100	157178	27194	1076649	47001	110589	0	0	8073	577371	0	0
2024-09-03 01:22:47			0	37146	0	0	0	28501	27100	157190	27265	1076586	47000	110588	0	0	8073	577171	0	0
2024-09-03 01:23:47			0	37139	0	0	0	28480	27100	157234	27192	1076533	47012	110580	0	0	8073	577451	0	0
2024-09-03 01:24:47			0	37105	0	0	0	28480	27090	157322	27150	1076604	47000	110580	0	0	8071	578846	0	0
2024-09-03 01:25:47			0	37113	0	0	0	28498	27100	157366	27178	1076586	47023	110587	0	0	8071	578493	0	0
2024-09-03 01:26:47			0	37130	0	0	0	28496	27100	157398	26982	1076559	47000	110586	0	0	8072	577811	0	0
2024-09-03 01:27:47			0	37117	0	0	0	28501	27090	157402	27152	1076577	47011	110588	0	0	8072	578365	0	0
2024-09-03 01:28:47			0	37116	0	0	0	28498	27090	157414	26965	1076577	47022	110587	0	0	8072	578405	0	0
2024-09-03 01:29:47			0	37119	0	0	0	28501	27100	157342	27031	1076595	47001	110588	0	0	8072	578252	0	0
2024-09-03 01:30:47			0	37095	0	0	0	28503	27100	157466	27249	1076586	47012	110589	0	0	8070	579214	0	0
2024-09-03 01:31:47			0	37094	0	0	0	28501	27100	157530	27237	1076595	47001	110588	0	0	8070	579254	0	0
2024-09-03 01:32:47			0	37079	0	0	0	28496	27090	157494	27133	1076622	47011	110586	0	0	8069	579890	0	0
2024-09-03 01:33:47			0	37062	0	0	0	28501	27090	157622	27182	1076631	47000	110588	0	0	8068	580572	0	0
2024-09-03 01:34:47			0	37070	0	0	0	28493	27100	157574	27203	1076622	47024	110585	0	0	8069	580218	0	0
2024-09-03 01:35:47			0	37038	0	0	0	28509	27100	157542	26981	1076649	47024	110591	0	0	8067	581504	0	0
2024-09-03 01:36:47			0	37059	0	0	0	28503	27090	157558	27270	1076577	47011	110589	0	0	8068	580693	0	0
2024-09-03 01:37:47			0	37044	0	0	0	28501	27100	157742	27249	1076586	47012	110588	0	0	8067	581263	0	0
2024-09-03 01:38:47			0	37019	0	0	0	28498	27090	157762	27059	1076604	47022	110587	0	0	8066	582302	0	0
2024-09-03 01:39:47			0	37025	0	0	0	28490	27090	157798	27130	1076550	47022	110584	0	0	8066	582060	0	0
2024-09-03 01:40:47			0	37012	0	0	0	28488	27100	157814	27168	1076542	47024	110583	0	0	8066	582550	0	0
2024-09-03 01:41:47			0	37000	0	0	0	28483	27100	157794	27128	1076533	47000	110581	0	0	8065	583034	0	0
2024-09-03 01:42:47			0	37006	0	0	0	28493	27090	157898	27145	1076577	47000	110585	0	0	8065	582825	0	0
2024-09-03 01:43:47			0	36989	0	0	0	28483	27080	157830	27272	1076532	47011	110581	0	0	8064	583544	0	0
2024-09-03 01:44:47			0	36995	0	0	0	28477	27090	157910	27216	1076541	47000	110579	0	0	8065	583269	0	0
2024-09-03 01:45:47			0	36979	0	0	0	28470	27080	157954	27230	1076478	47000	110576	0	0	8064	583947	0	0
2024-09-03 01:46:47			0	36975	0	0	0	28467	27080	157934	27088	1076452	47011	110575	0	0	8064	584109	0	0
2024-09-03 01:47:47			0	36948	0	0	0	28457	27090	157974	27261	1076497	47000	110571	0	0	8062	585165	0	0
2024-09-03 01:48:47			0	36962	0	0	0	28467	27080	157918	26849	1076425	47011	110575	0	0	8063	584633	0	0
2024-09-03 01:49:47			0	36961	0	0	0	28457	27080	157978	27225	1076496	47009	110571	0	0	8063	584674	0	0
2024-09-03 01:50:47			0	36952	0	0	0	28467	27090	158018	27152	1076434	47000	110575	0	0	8062	585003	0	0
2024-09-03 01:51:47			0	36935	0	0	0	28467	27080	158094	27093	1076496	46999	110575	0	0	8061	585724	0	0
2024-09-03 01:52:47			0	36941	0	0	0	28464	27070	158086	27272	1076380	47020	110574	0	0	8062	585515	0	0
2024-09-03 01:53:47			0	36922	0	0	0	28454	27070	158178	27189	1076398	46998	110570	0	0	8061	586283	0	0
2024-09-03 01:54:47			0	36895	0	0	0	28454	27070	158234	27046	1076433	46987	110570	0	0	8059	587376	0	0
2024-09-03 01:55:47			0	36893	0	0	0	28441	27070	158286	27213	1076398	47008	110565	0	0	8059	587457	0	0
2024-09-03 01:56:47			0	36890	0	0	0	28444	27070	158390	27331	1076424	46998	110566	0	0	8059	587578	0	0
2024-09-03 01:57:47			0	36877	0	0	0	28446	27060	158498	27196	1076406	46997	110567	0	0	8058	588139	0	0
2024-09-03 01:58:47			0	36862	0	0	0	28451	27060	158498	27013	1076388	46997	110569	0	0	8057	588747	0	0
2024-09-03 01:59:47			0	36837	0	0	0	28451	27060	158458	27133	1076379	47019	110569	0	0	8056	589761	0	0
2024-09-03 02:00:47			0	36832	0	0	0	28451	27060	158506	27300	1076353	47007	110569	0	0	8055	589965	0	0
2024-09-03 02:01:47			0	36831	0	0	0	28449	27060	158662	27204	1076353	46986	110568	0	0	8055	590005	0	0
2024-09-03 02:02:47			0	36817	0	0	0	28438	27050	158598	26920	1076343	46996	110564	0	0	8055	590608	0	0
2024-09-03 02:03:47			0	36807	0	0	0	28444	27060	158634	27379	1076353	47007	110566	0	0	8054	590981	0	0
2024-09-03 02:04:47			0	36796	0	0	0	28433	27060	158686	27274	1076379	46997	110562	0	0	8054	591428	0	0
2024-09-03 02:05:47			0	36784	0	0	0	28431	27050	158714	26927	1076343	47006	110561	0	0	8053	591950	0	0
2024-09-03 02:06:47			0	36779	0	0	0	28436	27050	158790	27010	1076281	46985	110563	0	0	8053	592154	0	0
2024-09-03 02:07:47			0	36766	0	0	0	28433	27040	158826	27390	1076316	46984	110562	0	0	8052	592718	0	0
2024-09-03 02:08:47			0	36786	0	0	0	28438	27040	158910	27229	1076298	47005	110564	0	0	8053	591903	0	0
2024-09-03 02:09:47			0	36762	0	0	0	28431	27040	158890	27196	1076316	47017	110561	0	0	8052	592880	0	0
2024-09-03 02:10:47			0	36763	0	0	0	28441	27050	159006	26939	1076334	47006	110565	0	0	8052	592806	0	0
2024-09-03 02:11:47			0	36737	0	0	0	28433	27050	158974	27010	1076343	46985	110562	0	0	8050	593866	0	0
2024-09-03 02:12:47			0	36746	0	0	0	28436	27040	158962	26838	1076316	46995	110563	0	0	8051	593533	0	0
2024-09-03 02:13:47			0	36775	0	0	0	28441	27040	158958	27133	1076316	46995	110565	0	0	8052	592351	0	0
2024-09-03 02:14:47			0	36785	0	0	0	28433	27040	158654	27140	1076325	47005	110562	0	0	8053	591944	0	0
2024-09-03 02:15:47			0	36784	0	0	0	28436	27040	158798	27291	1076272	46995	110563	0	0	8053	591984	0	0
2024-09-03 02:16:47			0	36788	0	0	0	28431	27040	158794	27100	1076316	47005	110561	0	0	8053	591822	0	0
2024-09-03 02:17:47			0	36812	0	0	0	28436	27040	158734	27071	1076298	47005	110563	0	0	8054	590845	0	0
2024-09-03 02:18:47			0	36821	0	0	0	28433	27030	158610	27268	1076244	47015	110562	0	0	8055	590513	0	0
2024-09-03 02:19:47			0	36820	0	0	0	28431	27050	158642	27194	1076281	47006	110561	0	0	8055	590486	0	0
2024-09-03 02:20:47			0	36832	0	0	0	28423	27040	158686	27279	1076325	46995	110558	0	0	8056	590032	0	0
2024-09-03 02:21:47			0	36815	0	0	0	28410	27030	158822	27131	1076271	47003	110553	0	0	8055	590757	0	0
2024-09-03 02:22:47			0	36785	0	0	0	28418	27030	158790	27093	1076244	46993	110556	0	0	8053	591977	0	0
2024-09-03 02:23:47			0	36809	0	0	0	28423	27040	158746	27424	1076208	46995	110558	0	0	8054	590967	0	0
2024-09-03 02:24:47			0	36813	0	0	0	28420	27030	158782	27055	1076271	47003	110557	0	0	8055	590838	0	0
2024-09-03 02:25:47			0	36806	0	0	0	28425	27020	158774	27161	1076208	46993	110559	0	0	8054	591157	0	0
2024-09-03 02:26:47			0	36809	0	0	0	28407	27040	158630	27168	1076316	46995	110552	0	0	8055	590967	0	0
2024-09-03 02:27:47			0	36823	0	0	0	28412	27010	158738	27326	1076217	46981	110554	0	0	8055	590499	0	0
2024-09-03 02:28:47			0	36810	0	0	0	28407	27020	158646	27575	1076208	47003	110552	0	0	8055	590994	0	0
2024-09-03 02:29:47			0	36852	0	0	0	28415	27030	158598	27170	1076190	46993	110555	0	0	8057	589254	0	0
2024-09-03 02:30:47			0	36843	0	0	0	28418	27020	158550	27379	1076154	47003	110556	0	0	8056	589653	0	0
2024-09-03 02:31:47			0	36859	0	0	0	28415	27020	158522	27152	1076172	47003	110555	0	0	8057	589004	0	0
2024-09-03 02:32:47			0	36856	0	0	0	28402	27020	158626	27230	1076145	47003	110550	0	0	8058	589125	0	0
2024-09-03 02:33:47			0	36883	0	0	0	28405	27020	158538	27166	1076101	47003	110551	0	0	8059	588030	0	0
2024-09-03 02:34:47			0	36879	0	0	0	28399	27010	158518	27154	1076109	46992	110549	0	0	8059	588226	0	0
2024-09-03 02:35:47			0	36890	0	0	0	28407	27020	158506	27419	1076127	46993	110552	0	0	8059	587747	0	0
2024-09-03 02:36:47			0	36888	0	0	0	28407	27020	158534	27166	1076145	46993	110552	0	0	8059	587828	0	0
2024-09-03 02:37:47			0	36891	0	0	0	28410	27010	158442	27010	1076082	46992	110553	0	0	8059	587740	0	0
2024-09-03 02:38:47			0	36899	0	0	0	28394	27000	158346	27244	1076145	47001	110547	0	0	8060	587450	0	0
2024-09-03 02:39:47			0	36897	0	0	0	28415	27000	158390	27137	1076118	46991	110555	0	0	8060	587531	0	0
2024-09-03 02:40:47			0	36913	0	0	0	28415	27020	158358	26937	1076253	47026	110555	0	0	8061	586815	0	0
2024-09-03 02:41:47			0	36919	0	0	0	28418	27020	158382	27312	1076172	46993	110556	0	0	8061	586573	0	0
2024-09-03 02:42:47			0	36914	0	0	0	28407	27020	158322	26993	1076118	47015	110552	0	0	8061	586775	0	0
2024-09-03 02:43:47			0	36924	0	0	0	28407	27010	158322	27242	1076163	47002	110552	0	0	8061	586404	0	0
2024-09-03 02:44:47			0	36887	0	0	0	28376	27010	158326	26930	1076127	47001	110540	0	0	8060	587902	0	0
2024-09-03 02:45:47			0	36797	0	0	0	28374	27000	158722	27017	1076064	46980	110539	0	0	8054	591591	0	0
2024-09-03 02:46:47			0	36696	0	0	0	28374	27010	159142	27003	1076046	46991	110539	0	0	8048	595677	0	0
2024-09-03 02:47:47			0	36660	0	0	0	28384	27000	159462	27244	1076028	46990	110543	0	0	8046	597184	0	0
2024-09-03 02:48:47			0	36611	0	0	0	28389	27000	159562	27128	1076118	47001	110545	0	0	8043	599194	0	0
2024-09-03 02:49:47			0	36611	0	0	0	28397	27000	159594	27326	1076037	47001	110548	0	0	8043	599194	0	0
2024-09-03 02:50:47			0	36623	0	0	0	28389	27000	159530	26772	1076109	47000	110545	0	0	8044	598701	0	0
2024-09-03 02:51:47			0	36584	0	0	0	28381	27000	159638	27119	1076109	46990	110542	0	0	8042	600303	0	0
2024-09-03 02:52:47			0	36573	0	0	0	28376	26990	159821	26998	1076037	46989	110540	0	0	8041	600789	0	0
2024-09-03 02:53:47			0	36507	0	0	0	28384	27000	160033	26720	1076028	46979	110543	0	0	8037	603474	0	0
2024-09-03 02:54:47			0	36537	0	0	0	28410	27000	159985	27085	1076109	47012	110553	0	0	8038	602237	0	0
2024-09-03 02:55:47			0	36554	0	0	0	28392	27000	159869	26944	1076082	47012	110546	0	0	8040	601537	0	0
2024-09-03 02:56:47			0	36536	0	0	0	28394	27000	160065	26970	1076136	47000	110547	0	0	8039	602278	0	0
2024-09-03 02:57:47			0	36513	0	0	0	28405	26990	160029	27173	1076046	47000	110551	0	0	8037	603261	0	0
2024-09-03 02:58:47			0	36498	0	0	0	28386	27000	160133	27281	1076109	47023	110544	0	0	8036	603845	0	0
2024-09-03 02:59:47			0	36451	0	0	0	28384	27000	160293	27227	1076136	47012	110543	0	0	8034	605787	0	0
2024-09-03 03:00:47			0	36434	0	0	0	28384	26990	160337	27232	1076046	46979	110543	0	0	8033	606525	0	0
2024-09-03 03:01:47			0	36430	0	0	0	28379	27000	160433	27066	1076109	47000	110541	0	0	8032	606656	0	0
2024-09-03 03:02:47			0	36412	0	0	0	28389	26990	160557	27102	1076010	46978	110545	0	0	8031	607437	0	0
2024-09-03 03:03:47			0	36398	0	0	0	28389	26990	160669	26998	1076073	47000	110545	0	0	8030	608017	0	0
2024-09-03 03:04:47			0	36417	0	0	0	28431	27000	160585	26816	1076064	47013	110561	0	0	8031	607195	0	0
2024-09-03 03:05:47			0	36501	0	0	0	28418	26990	160289	26889	1076100	47012	110556	0	0	8036	603756	0	0
2024-09-03 03:06:47			0	36568	0	0	0	28415	27000	159913	26982	1076162	47023	110555	0	0	8040	600961	0	0
2024-09-03 03:07:47			0	36555	0	0	0	28394	27010	159849	27171	1076154	47013	110547	0	0	8040	601461	0	0
2024-09-03 03:08:47			0	36540	0	0	0	28389	27000	159977	26965	1076118	46991	110545	0	0	8039	602113	0	0
2024-09-03 03:09:47			0	36476	0	0	0	28389	27000	160277	27138	1076109	47000	110545	0	0	8035	604753	0	0
2024-09-03 03:10:47			0	36460	0	0	0	28384	26990	160337	27201	1076100	47000	110543	0	0	8034	605450	0	0
2024-09-03 03:11:47			0	36438	0	0	0	28394	27000	160305	27320	1076145	47001	110547	0	0	8033	606325	0	0
2024-09-03 03:12:47			0	36429	0	0	0	28415	27000	160509	27130	1076145	47001	110555	0	0	8032	606697	0	0
2024-09-03 03:13:47			0	36464	0	0	0	28428	27000	160309	27253	1076171	46980	110560	0	0	8034	605249	0	0
2024-09-03 03:14:47			0	36522	0	0	0	28407	27000	159993	27211	1076171	46991	110552	0	0	8038	602855	0	0
2024-09-03 03:15:47			0	36509	0	0	0	28402	27000	160085	27163	1076145	47001	110550	0	0	8037	603391	0	0
2024-09-03 03:16:47			0	36504	0	0	0	28399	27000	160133	27168	1076109	46990	110549	0	0	8037	603597	0	0
2024-09-03 03:17:47			0	36479	0	0	0	28392	27000	160153	27112	1076171	47001	110546	0	0	8035	604629	0	0
2024-09-03 03:18:47			0	36457	0	0	0	28384	27010	160377	27232	1076100	47001	110543	0	0	8034	605504	0	0
2024-09-03 03:19:47			0	36452	0	0	0	28418	27000	160381	27303	1076136	46990	110556	0	0	8033	605746	0	0
2024-09-03 03:20:47			0	36491	0	0	0	28407	27000	160149	27083	1076198	47013	110552	0	0	8036	604134	0	0
2024-09-03 03:21:47			0	36552	0	0	0	28407	27010	160045	26922	1076127	47001	110552	0	0	8039	601585	0	0
2024-09-03 03:22:47			0	36563	0	0	0	28402	27010	159977	26809	1076154	47013	110550	0	0	8040	601132	0	0
2024-09-03 03:23:47			0	36553	0	0	0	28392	27000	159861	27209	1076091	46991	110546	0	0	8040	601578	0	0
2024-09-03 03:24:47			0	36566	0	0	0	28420	27000	159937	27020	1076109	46990	110557	0	0	8040	601043	0	0
2024-09-03 03:25:47			0	36567	0	0	0	28418	27010	159821	27022	1076181	47001	110556	0	0	8040	600967	0	0
2024-09-03 03:26:47			0	36605	0	0	0	28410	27010	159794	27111	1076261	46980	110553	0	0	8042	599406	0	0
2024-09-03 03:27:47			0	36585	0	0	0	28397	27020	159737	26972	1076199	47003	110548	0	0	8042	600193	0	0
2024-09-03 03:28:47			0	36567	0	0	0	28384	27010	159793	26896	1076163	46992	110543	0	0	8041	600967	0	0
2024-09-03 03:29:47			0	36531	0	0	0	28366	27010	160009	26974	1076127	47013	110536	0	0	8039	602450	0	0
2024-09-03 03:30:47			0	36499	0	0	0	28381	27000	160181	26882	1076091	47001	110542	0	0	8037	603804	0	0
2024-09-03 03:31:47			0	36492	0	0	0	28386	27010	160265	27015	1076127	46991	110544	0	0	8036	604058	0	0
2024-09-03 03:32:47			0	36487	0	0	0	28392	27000	160229	27216	1076037	46980	110546	0	0	8036	604299	0	0
2024-09-03 03:33:47			0	36503	0	0	0	28418	27000	160145	26871	1076055	47012	110556	0	0	8036	603639	0	0
2024-09-03 03:34:47			0	36512	0	0	0	28397	27000	160209	26835	1076091	47001	110548	0	0	8037	603267	0	0
2024-09-03 03:35:47			0	36482	0	0	0	28394	27010	160349	26987	1076127	47013	110547	0	0	8035	604471	0	0
2024-09-03 03:36:47			0	36464	0	0	0	28386	27000	160329	27163	1076109	47012	110544	0	0	8034	605249	0	0
2024-09-03 03:37:47			0	36460	0	0	0	28389	27000	160261	26930	1076118	47001	110545	0	0	8034	605415	0	0
2024-09-03 03:38:47			0	36427	0	0	0	28376	27000	160413	27194	1076091	47001	110540	0	0	8032	606780	0	0
2024-09-03 03:39:47			0	36430	0	0	0	28399	27010	160485	26961	1076046	46980	110549	0	0	8032	606621	0	0
2024-09-03 03:40:47			0	36452	0	0	0	28399	26990	160353	27255	1076046	47000	110549	0	0	8033	605780	0	0
2024-09-03 03:41:47			0	36489	0	0	0	28397	26990	160213	27086	1076091	47000	110548	0	0	8036	604251	0	0
2024-09-03 03:42:47			0	36470	0	0	0	28381	27010	160237	27097	1076127	47001	110542	0	0	8035	604967	0	0
2024-09-03 03:43:47			0	36454	0	0	0	28389	27000	160289	27086	1076082	46979	110545	0	0	8034	605663	0	0
2024-09-03 03:44:47			0	36462	0	0	0	28394	27000	160329	27341	1076028	47012	110547	0	0	8034	605332	0	0
2024-09-03 03:45:47			0	36437	0	0	0	28397	26990	160385	27301	1076046	46979	110548	0	0	8033	606401	0	0
2024-09-03 03:46:47			0	36462	0	0	0	28389	26990	160297	27251	1075992	47000	110545	0	0	8034	605367	0	0
2024-09-03 03:47:47			0	36461	0	0	0	28384	26990	160329	27203	1076091	47011	110543	0	0	8034	605408	0	0
2024-09-03 03:48:47			0	36455	0	0	0	28402	26990	160349	27218	1076100	47012	110550	0	0	8034	605656	0	0
2024-09-03 03:49:47			0	36481	0	0	0	28381	27000	160309	27012	1076109	47012	110542	0	0	8036	604547	0	0
2024-09-03 03:50:47			0	36485	0	0	0	28392	26980	160401	26870	1076001	46989	110546	0	0	8035	604451	0	0
2024-09-03 03:51:47			0	36459	0	0	0	28389	27000	160309	27112	1076055	46990	110545	0	0	8034	605456	0	0
2024-09-03 03:52:47			0	36466	0	0	0	28399	26990	160457	27142	1076117	47011	110549	0	0	8034	605201	0	0
2024-09-03 03:53:47			0	36487	0	0	0	28376	26990	160225	27223	1076091	47000	110540	0	0	8036	604334	0	0
2024-09-03 03:54:47			0	36512	0	0	0	28389	26980	160121	26876	1076055	47011	110545	0	0	8037	603336	0	0
2024-09-03 03:55:47			0	36522	0	0	0	28392	26980	160169	26946	1076028	47000	110546	0	0	8038	602924	0	0
2024-09-03 03:56:47			0	36535	0	0	0	28386	26990	160145	27142	1076046	47012	110544	0	0	8039	602354	0	0
2024-09-03 03:57:47			0	36566	0	0	0	28394	26980	160033	27071	1076046	46988	110547	0	0	8040	601112	0	0
2024-09-03 03:58:47			0	36596	0	0	0	28394	27000	159842	27291	1076082	47012	110547	0	0	8042	599810	0	0
2024-09-03 03:59:47			0	36637	0	0	0	28420	26980	159714	27039	1076081	46989	110557	0	0	8044	598195	0	0
2024-09-03 04:00:47			0	36662	0	0	0	28412	27000	159502	27015	1076118	47013	110554	0	0	8046	597102	0	0
2024-09-03 04:01:47			0	36680	0	0	0	28402	27000	159426	27208	1076136	47012	110550	0	0	8047	596366	0	0
2024-09-03 04:02:47			0	36687	0	0	0	28402	27010	159470	27112	1076234	47001	110550	0	0	8047	596045	0	0
2024-09-03 04:03:47			0	36693	0	0	0	28402	27000	159370	26797	1076162	47000	110550	0	0	8048	595834	0	0
2024-09-03 04:04:47			0	36669	0	0	0	28405	27000	159314	27067	1076118	47001	110551	0	0	8046	596816	0	0
2024-09-03 04:05:47			0	36697	0	0	0	28402	26990	159486	27133	1076126	46979	110550	0	0	8048	595704	0	0
2024-09-03 04:06:47			0	36741	0	0	0	28410	27000	159250	26974	1076082	47012	110553	0	0	8050	593873	0	0
2024-09-03 04:07:47			0	36789	0	0	0	28418	27010	159010	27119	1076127	47001	110556	0	0	8053	591883	0	0
2024-09-03 04:08:47			0	36801	0	0	0	28407	27010	158918	27142	1076127	47013	110552	0	0	8054	591394	0	0
2024-09-03 04:09:47			0	36791	0	0	0	28407	27000	158878	27003	1076118	46991	110552	0	0	8053	591835	0	0
2024-09-03 04:10:47			0	36773	0	0	0	28399	27000	159042	27199	1076145	46991	110549	0	0	8053	592568	0	0
2024-09-03 04:11:47			0	36765	0	0	0	28397	27010	159062	27026	1076127	47013	110548	0	0	8052	592860	0	0
2024-09-03 04:12:47			0	36743	0	0	0	28407	27000	159050	27048	1076145	47001	110552	0	0	8051	593791	0	0
2024-09-03 04:13:47			0	36774	0	0	0	28410	27000	159070	27345	1076145	47013	110553	0	0	8052	592528	0	0
2024-09-03 04:14:47			0	36739	0	0	0	28402	27000	159110	26883	1076091	47013	110550	0	0	8050	593955	0	0
2024-09-03 04:15:47			0	36730	0	0	0	28405	27000	159058	27140	1076189	46979	110551	0	0	8050	594322	0	0
2024-09-03 04:16:47			0	36736	0	0	0	28407	27000	159158	27237	1076145	47001	110552	0	0	8050	594077	0	0
2024-09-03 04:17:47			0	36781	0	0	0	28402	27000	158978	27364	1076118	46991	110550	0	0	8053	592242	0	0
2024-09-03 04:18:47			0	36804	0	0	0	28402	26980	158898	27090	1076055	46989	110550	0	0	8054	591374	0	0
2024-09-03 04:19:47			0	36825	0	0	0	28412	26990	158830	27161	1076100	46979	110554	0	0	8055	590486	0	0
2024-09-03 04:20:47			0	36831	0	0	0	28415	27000	158646	27348	1076189	47000	110555	0	0	8056	590208	0	0
2024-09-03 04:21:47			0	36838	0	0	0	28410	27000	158634	27114	1076118	47013	110553	0	0	8056	589924	0	0
2024-09-03 04:22:47			0	36843	0	0	0	28405	27000	158606	26958	1076136	47012	110551	0	0	8057	589721	0	0
2024-09-03 04:23:47			0	36878	0	0	0	28392	27000	158478	27050	1076109	47000	110546	0	0	8059	588301	0	0
2024-09-03 04:24:47			0	36894	0	0	0	28389	27000	158478	27029	1076064	47013	110545	0	0	8060	587652	0	0
2024-09-03 04:25:47			0	36868	0	0	0	28402	27000	158590	26944	1076028	46990	110550	0	0	8058	588706	0	0
2024-09-03 04:26:47			0	36854	0	0	0	28389	26980	158590	26994	1076055	47000	110545	0	0	8057	589342	0	0
2024-09-03 04:27:47			0	36872	0	0	0	28386	27000	158518	27208	1076109	47000	110544	0	0	8059	588544	0	0
2024-09-03 04:28:47			0	36866	0	0	0	28386	27000	158486	27071	1076055	46990	110544	0	0	8058	588787	0	0
2024-09-03 04:29:47			0	36876	0	0	0	28384	27000	158474	27015	1076109	47012	110543	0	0	8059	588382	0	0
2024-09-03 04:30:47			0	36862	0	0	0	28397	27000	158614	27102	1076028	47012	110548	0	0	8058	588950	0	0
2024-09-03 04:31:47			0	36879	0	0	0	28397	26980	158550	27001	1076028	46989	110548	0	0	8059	588327	0	0
2024-09-03 04:32:47			0	36900	0	0	0	28399	27000	158502	26835	1076145	46991	110549	0	0	8060	587409	0	0
2024-09-03 04:33:47			0	36906	0	0	0	28405	26990	158438	26972	1076091	47000	110551	0	0	8060	587200	0	0
2024-09-03 04:34:47			0	36945	0	0	0	28399	27000	158350	27180	1076082	46990	110549	0	0	8063	585588	0	0
2024-09-03 04:35:47			0	36962	0	0	0	28392	26990	158242	26908	1076064	47000	110546	0	0	8064	584935	0	0
2024-09-03 04:36:47			0	36966	0	0	0	28402	27000	158262	26852	1076145	46991	110550	0	0	8064	584740	0	0
2024-09-03 04:37:47			0	36955	0	0	0	28394	27000	158234	26892	1076082	47012	110547	0	0	8063	585184	0	0
2024-09-03 04:38:47			0	36978	0	0	0	28389	27000	158150	26887	1076109	47000	110545	0	0	8065	584256	0	0
2024-09-03 04:39:47			0	36968	0	0	0	28394	26980	158234	27048	1076072	46999	110547	0	0	8064	584726	0	0
2024-09-03 04:40:47			0	36961	0	0	0	28389	27000	158110	26880	1076109	47000	110545	0	0	8064	584942	0	0
2024-09-03 04:41:47			0	36980	0	0	0	28389	27000	158150	27223	1076109	47000	110545	0	0	8065	584175	0	0
2024-09-03 04:42:47			0	36990	0	0	0	28379	26990	158162	26774	1076100	46990	110541	0	0	8066	583805	0	0
2024-09-03 04:43:47			0	36981	0	0	0	28381	26990	158114	27140	1076073	46990	110542	0	0	8065	584168	0	0
2024-09-03 04:44:47			0	36992	0	0	0	28368	26980	158058	27234	1076046	46999	110537	0	0	8066	583758	0	0
2024-09-03 04:45:47			0	36987	0	0	0	28368	26980	158074	27038	1076046	46999	110537	0	0	8066	583959	0	0
2024-09-03 04:46:47			0	37024	0	0	0	28368	26980	158026	27197	1076046	46988	110537	0	0	8068	582468	0	0
2024-09-03 04:47:47			0	37004	0	0	0	28363	26980	158034	27183	1076072	46988	110535	0	0	8067	583274	0	0
2024-09-03 04:48:47			0	37013	0	0	0	28358	26980	157958	27197	1075992	46999	110533	0	0	8067	582911	0	0
2024-09-03 04:49:47			0	37019	0	0	0	28355	26980	157914	26844	1075965	46999	110532	0	0	8068	582669	0	0
2024-09-03 04:50:47			0	37050	0	0	0	28358	26970	157754	26772	1075983	46988	110533	0	0	8069	581455	0	0
2024-09-03 04:51:47			0	37094	0	0	0	28355	26960	157854	27190	1075938	46998	110532	0	0	8072	579720	0	0
2024-09-03 04:52:47			0	37125	0	0	0	28361	26970	157622	26835	1075983	46988	110534	0	0	8074	578443	0	0
2024-09-03 04:53:47			0	37135	0	0	0	28368	26970	157394	27086	1075947	46998	110537	0	0	8074	578042	0	0
2024-09-03 04:54:47			0	37147	0	0	0	28363	26970	157542	27225	1075920	46987	110535	0	0	8075	577561	0	0
2024-09-03 04:55:47			0	37146	0	0	0	28371	26970	157398	27098	1075956	47010	110538	0	0	8075	577601	0	0
2024-09-03 04:56:47			0	37183	0	0	0	28371	26960	157306	27024	1076018	46998	110538	0	0	8077	576154	0	0
2024-09-03 04:57:47			0	37207	0	0	0	28384	26980	157238	26996	1075992	46999	110543	0	0	8078	575129	0	0
2024-09-03 04:58:47			0	37231	0	0	0	28379	26960	157214	27036	1076018	46987	110541	0	0	8080	574237	0	0
2024-09-03 04:59:47			0	37232	0	0	0	28361	26960	157050	27055	1075991	46987	110534	0	0	8080	574197	0	0
2024-09-03 05:00:47			0	37253	0	0	0	28361	26970	156986	27202	1075983	47010	110534	0	0	8081	573327	0	0
2024-09-03 05:01:47			0	37252	0	0	0	28363	26970	157010	27095	1076054	46987	110535	0	0	8081	573366	0	0
2024-09-03 05:02:47			0	37249	0	0	0	28353	26970	157034	27308	1076001	46998	110531	0	0	8081	573486	0	0
2024-09-03 05:03:47			0	37266	0	0	0	28363	26970	156970	27140	1075974	46987	110535	0	0	8082	572809	0	0
2024-09-03 05:04:47			0	37271	0	0	0	28353	26970	156970	27281	1075893	47009	110531	0	0	8083	572609	0	0
2024-09-03 05:05:47			0	37250	0	0	0	28355	26960	156938	27041	1075991	46998	110532	0	0	8081	573479	0	0
2024-09-03 05:06:47			0	37260	0	0	0	28345	26960	156946	27182	1075929	46975	110528	0	0	8082	573080	0	0
2024-09-03 05:07:47			0	37294	0	0	0	28355	26960	156798	27170	1075956	46997	110532	0	0	8084	571727	0	0
2024-09-03 05:08:47			0	37281	0	0	0	28355	26960	156798	26948	1075902	46997	110532	0	0	8083	572244	0	0
2024-09-03 05:09:47			0	37309	0	0	0	28355	26960	156858	27111	1075902	46997	110532	0	0	8085	571130	0	0
2024-09-03 05:10:47			0	37314	0	0	0	28345	26960	156790	27310	1075965	46998	110528	0	0	8085	570932	0	0
2024-09-03 05:11:47			0	37315	0	0	0	28361	26950	156710	27149	1075920	46997	110534	0	0	8085	570924	0	0
2024-09-03 05:12:47			0	37324	0	0	0	28348	26950	156651	26996	1075884	46996	110529	0	0	8086	570567	0	0
2024-09-03 05:13:47			0	37322	0	0	0	28348	26960	156654	27060	1075902	46997	110529	0	0	8086	570614	0	0
2024-09-03 05:14:47			0	37333	0	0	0	28350	26960	156719	26942	1075929	46986	110530	0	0	8086	570177	0	0
2024-09-03 05:15:47			0	37310	0	0	0	28329	26950	156766	27168	1075839	46986	110522	0	0	8085	571123	0	0
2024-09-03 05:16:47			0	37287	0	0	0	28340	26930	156762	27161	1075839	46995	110526	0	0	8083	572104	0	0
2024-09-03 05:17:47			0	37290	0	0	0	28335	26950	156834	27164	1075893	47008	110524	0	0	8084	571919	0	0
2024-09-03 05:18:47			0	37295	0	0	0	28335	26930	156826	27069	1075812	46984	110524	0	0	8084	571785	0	0
2024-09-03 05:19:47			0	37296	0	0	0	28329	26940	156870	27069	1075848	47007	110522	0	0	8084	571713	0	0
2024-09-03 05:20:47			0	37271	0	0	0	28327	26930	156974	27123	1075866	46995	110521	0	0	8083	572741	0	0
2024-09-03 05:21:47			0	37256	0	0	0	28337	26930	157006	26981	1075812	47006	110525	0	0	8082	573338	0	0
2024-09-03 05:22:47			0	37248	0	0	0	28329	26920	157018	26802	1075821	46994	110522	0	0	8081	573690	0	0
2024-09-03 05:23:47			0	37239	0	0	0	28335	26930	157078	26819	1075812	47006	110524	0	0	8081	574016	0	0
2024-09-03 05:24:47			0	37224	0	0	0	28322	26930	156978	27194	1075830	46994	110519	0	0	8080	574615	0	0
2024-09-03 05:25:47			0	37229	0	0	0	28327	26930	157110	27275	1075785	46995	110521	0	0	8080	574415	0	0
2024-09-03 05:26:47			0	37244	0	0	0	28322	26930	157102	27296	1075749	46983	110519	0	0	8081	573817	0	0
2024-09-03 05:27:47			0	37251	0	0	0	28327	26930	157086	27253	1075839	46995	110521	0	0	8082	573538	0	0
2024-09-03 05:28:47			0	37251	0	0	0	28324	26930	157010	27353	1075830	47005	110520	0	0	8082	573538	0	0
2024-09-03 05:29:47			0	37267	0	0	0	28319	26920	157058	27265	1075758	46993	110518	0	0	8083	572933	0	0
2024-09-03 05:30:47			0	37259	0	0	0	28322	26930	157090	27010	1075776	46994	110519	0	0	8082	573219	0	0
2024-09-03 05:31:47			0	37269	0	0	0	28316	26910	156862	26920	1075722	46982	110517	0	0	8083	572886	0	0
2024-09-03 05:32:47			0	37267	0	0	0	28316	26920	156938	27045	1075704	47004	110517	0	0	8083	572933	0	0
2024-09-03 05:33:47			0	37310	0	0	0	28319	26920	156866	26955	1075767	47005	110518	0	0	8085	571221	0	0
2024-09-03 05:34:47			0	37315	0	0	0	28316	26910	156847	27493	1075776	46982	110517	0	0	8085	571055	0	0
2024-09-03 05:35:47			0	37301	0	0	0	28306	26920	156818	26821	1075767	46972	110513	0	0	8085	571579	0	0
2024-09-03 05:36:47			0	37288	0	0	0	28306	26910	156818	26828	1075668	46982	110513	0	0	8084	572129	0	0
2024-09-03 05:37:47			0	37330	0	0	0	28296	26910	156827	27170	1075739	46992	110509	0	0	8087	570459	0	0
2024-09-03 05:38:47			0	37309	0	0	0	28298	26910	156846	27287	1075749	46993	110510	0	0	8085	571294	0	0
2024-09-03 05:39:47			0	37323	0	0	0	28296	26910	156851	26908	1075722	46982	110509	0	0	8086	570737	0	0
2024-09-03 05:40:47			0	37280	0	0	0	28296	26910	156982	26944	1075695	46993	110509	0	0	8084	572448	0	0
2024-09-03 05:41:47			0	37277	0	0	0	28298	26900	156950	26909	1075694	46968	110510	0	0	8083	572600	0	0
2024-09-03 05:42:47			0	37261	0	0	0	28303	26900	157026	27019	1075650	46981	110512	0	0	8082	573238	0	0
2024-09-03 05:43:47			0	37272	0	0	0	28298	26890	156926	27319	1075658	46968	110510	0	0	8083	572832	0	0
2024-09-03 05:44:47			0	37317	0	0	0	28290	26890	156794	27242	1075658	46991	110507	0	0	8086	571041	0	0
2024-09-03 05:45:47			0	37321	0	0	0	28293	26900	156807	27053	1075730	46981	110508	0	0	8086	570850	0	0
2024-09-03 05:46:47			0	37305	0	0	0	28290	26900	156826	27242	1075640	47002	110507	0	0	8085	571486	0	0
2024-09-03 05:47:47			0	37283	0	0	0	28296	26900	156834	27118	1075667	46980	110509	0	0	8084	572361	0	0
2024-09-03 05:48:47			0	37300	0	0	0	28277	26880	156878	26864	1075613	46989	110502	0	0	8085	571750	0	0
2024-09-03 05:49:47			0	37280	0	0	0	28296	26900	156998	27133	1075587	46980	110509	0	0	8084	572481	0	0
2024-09-03 05:50:47			0	37284	0	0	0	28288	26880	156982	26991	1075524	46989	110506	0	0	8084	572387	0	0
2024-09-03 05:51:47			0	37283	0	0	0	28285	26890	156966	27194	1075569	46979	110505	0	0	8084	572394	0	0
2024-09-03 05:52:47			0	37267	0	0	0	28288	26900	156958	26760	1075614	46991	110506	0	0	8083	572999	0	0
2024-09-03 05:53:47			0	37286	0	0	0	28275	26890	156946	27053	1075622	46979	110501	0	0	8084	572275	0	0
2024-09-03 05:54:47			0	37277	0	0	0	28285	26890	156894	27100	1075569	46990	110505	0	0	8084	572633	0	0
2024-09-03 05:55:47			0	37288	0	0	0	28275	26880	156886	26906	1075604	46978	110501	0	0	8084	572228	0	0
2024-09-03 05:56:47			0	37315	0	0	0	28272	26880	156875	27144	1075631	47000	110500	0	0	8086	571154	0	0
2024-09-03 05:57:47			0	37314	0	0	0	28270	26880	156867	27105	1075577	47000	110499	0	0	8086	571193	0	0
2024-09-03 05:58:47			0	37339	0	0	0	28270	26880	156795	27114	1075550	46989	110499	0	0	8087	570200	0	0
2024-09-03 05:59:47			0	37326	0	0	0	28267	26870	156827	27203	1075505	46977	110498	0	0	8087	570749	0	0
2024-09-03 06:00:47			0	37325	0	0	0	28264	26870	156819	27249	1075515	46978	110497	0	0	8087	570789	0	0
2024-09-03 06:01:47			0	37319	0	0	0	28264	26870	156939	27343	1075515	47000	110497	0	0	8086	571027	0	0
2024-09-03 06:02:47			0	37290	0	0	0	28259	26870	157022	27358	1075479	46955	110495	0	0	8085	572181	0	0
2024-09-03 06:03:47			0	37280	0	0	0	28264	26860	157046	27357	1075461	46976	110497	0	0	8084	572612	0	0
2024-09-03 06:04:47			0	37266	0	0	0	28262	26870	157130	27537	1075532	46977	110496	0	0	8083	573137	0	0
2024-09-03 06:05:47			0	37276	0	0	0	28259	26870	157078	27324	1075479	46988	110495	0	0	8084	572739	0	0
2024-09-03 06:06:47			0	37234	0	0	0	28251	26860	157274	27017	1075434	46999	110492	0	0	8082	574446	0	0
2024-09-03 06:07:47			0	37234	0	0	0	28246	26860	157222	27156	1075416	46999	110490	0	0	8082	574446	0	0
2024-09-03 06:08:47			0	37210	0	0	0	28257	26870	157258	27301	1075425	46988	110494	0	0	8080	575372	0	0
2024-09-03 06:09:47			0	37202	0	0	0	28251	26860	157438	27168	1075443	46976	110492	0	0	8080	575724	0	0
2024-09-03 06:10:47			0	37174	0	0	0	28257	26850	157446	27483	1075478	46987	110494	0	0	8078	576877	0	0
2024-09-03 06:11:47			0	37140	0	0	0	28244	26850	157578	26949	1075478	46964	110489	0	0	8076	578239	0	0
2024-09-03 06:12:47			0	37132	0	0	0	28254	26850	157726	27211	1075389	46975	110493	0	0	8075	578560	0	0
2024-09-03 06:13:47			0	37119	0	0	0	28249	26850	157730	27131	1075371	46987	110491	0	0	8075	579082	0	0
2024-09-03 06:14:47			0	37118	0	0	0	28244	26850	157686	27239	1075416	46986	110489	0	0	8075	579122	0	0
2024-09-03 06:15:47			0	37113	0	0	0	28233	26850	157806	27322	1075398	46999	110485	0	0	8075	579322	0	0
2024-09-03 06:16:47			0	37127	0	0	0	28241	26850	157786	27237	1075416	46986	110488	0	0	8075	578761	0	0
2024-09-03 06:17:47			0	37144	0	0	0	28244	26850	157622	26934	1075442	46963	110489	0	0	8076	578079	0	0
2024-09-03 06:18:47			0	37144	0	0	0	28236	26850	157578	27050	1075371	46987	110486	0	0	8076	578079	0	0
2024-09-03 06:19:47			0	37150	0	0	0	28251	26850	157598	26965	1075416	46998	110492	0	0	8077	577838	0	0
2024-09-03 06:20:47			0	37145	0	0	0	28251	26840	157690	27150	1075272	46962	110492	0	0	8076	578072	0	0
2024-09-03 06:21:47			0	37124	0	0	0	28244	26850	157670	27202	1075371	46976	110489	0	0	8075	578881	0	0
2024-09-03 06:22:47			0	37143	0	0	0	28262	26840	157634	27161	1075380	46997	110496	0	0	8076	578152	0	0
2024-09-03 06:23:47			0	37146	0	0	0	28251	26840	157682	27088	1075380	46985	110492	0	0	8076	578032	0	0
2024-09-03 06:24:47			0	37158	0	0	0	28241	26840	157606	27196	1075326	46985	110488	0	0	8077	577551	0	0
2024-09-03 06:25:47			0	37157	0	0	0	28246	26840	157542	26753	1075371	46985	110490	0	0	8077	577591	0	0
2024-09-03 06:26:47			0	37162	0	0	0	28244	26850	157582	27057	1075362	46986	110489	0	0	8077	577358	0	0
2024-09-03 06:27:47			0	37144	0	0	0	28244	26840	157606	27128	1075397	46974	110489	0	0	8076	578112	0	0
2024-09-03 06:28:47			0	37138	0	0	0	28236	26830	157670	27118	1075335	46984	110486	0	0	8076	578386	0	0
2024-09-03 06:29:47			0	37117	0	0	0	28238	26840	157734	27137	1075380	46997	110487	0	0	8075	579195	0	0
2024-09-03 06:30:47			0	37111	0	0	0	28241	26830	157782	27301	1075335	46973	110488	0	0	8074	579469	0	0
2024-09-03 06:31:47			0	37121	0	0	0	28246	26840	157758	27105	1075371	46997	110490	0	0	8075	579035	0	0
2024-09-03 06:32:47			0	37094	0	0	0	28241	26830	157890	26941	1075335	46961	110488	0	0	8073	580152	0	0
2024-09-03 06:33:47			0	37085	0	0	0	28228	26840	157994	27272	1075344	46985	110483	0	0	8073	580480	0	0
2024-09-03 06:34:47			0	37064	0	0	0	28241	26830	157994	27144	1075335	46984	110488	0	0	8072	581358	0	0
2024-09-03 06:35:47			0	37048	0	0	0	28257	26840	158082	27118	1075433	46997	110494	0	0	8070	581969	0	0
2024-09-03 06:36:47			0	37011	0	0	0	28251	26840	158186	26880	1075397	46997	110492	0	0	8068	583460	0	0
2024-09-03 06:37:47			0	37006	0	0	0	28264	26830	158218	27246	1075361	46996	110497	0	0	8068	583695	0	0
2024-09-03 06:38:47			0	36993	0	0	0	28257	26840	158234	27067	1075397	46974	110494	0	0	8067	584186	0	0
2024-09-03 06:39:47			0	36971	0	0	0	28246	26840	158314	27012	1075424	46997	110490	0	0	8066	585074	0	0
2024-09-03 06:40:47			0	36949	0	0	0	28257	26840	158374	26778	1075371	46974	110494	0	0	8065	585964	0	0
2024-09-03 06:41:47			0	36934	0	0	0	28246	26840	158398	27118	1075433	46997	110490	0	0	8064	586571	0	0
2024-09-03 06:42:47			0	36948	0	0	0	28241	26840	158414	27279	1075344	46997	110488	0	0	8065	586004	0	0
2024-09-03 06:43:47			0	36937	0	0	0	28236	26840	158502	27020	1075344	46962	110486	0	0	8064	586449	0	0
2024-09-03 06:44:47			0	36941	0	0	0	28228	26830	158598	26850	1075361	46973	110483	0	0	8065	586321	0	0
2024-09-03 06:45:47			0	36947	0	0	0	28236	26840	158506	27133	1075344	46974	110486	0	0	8065	586045	0	0
2024-09-03 06:46:47			0	36955	0	0	0	28244	26830	158426	27066	1075308	46984	110489	0	0	8065	585755	0	0
2024-09-03 06:47:47			0	36940	0	0	0	28257	26840	158582	26904	1075380	46952	110494	0	0	8064	586328	0	0
2024-09-03 06:48:47			0	36916	0	0	0	28264	26840	158682	26963	1075371	46974	110497	0	0	8063	587300	0	0
2024-09-03 06:49:47			0	36899	0	0	0	28270	26840	158754	26986	1075353	46997	110499	0	0	8061	587989	0	0
2024-09-03 06:50:47			0	36871	0	0	0	28280	26840	158750	26944	1075371	46974	110503	0	0	8060	589125	0	0
2024-09-03 06:51:47			0	36854	0	0	0	28285	26840	158846	27291	1075371	46974	110505	0	0	8059	589815	0	0
2024-09-03 06:52:47			0	36837	0	0	0	28244	26840	159054	27334	1075380	46974	110489	0	0	8058	590506	0	0
2024-09-03 06:53:47			0	36793	0	0	0	28244	26830	159050	26941	1075361	46973	110489	0	0	8056	592331	0	0
2024-09-03 06:54:47			0	36791	0	0	0	28236	26830	159006	27235	1075335	46984	110486	0	0	8056	592412	0	0
2024-09-03 06:55:47			0	36783	0	0	0	28238	26830	158994	27301	1075379	46996	110487	0	0	8055	592738	0	0
2024-09-03 06:56:47			0	36794	0	0	0	28231	26830	159086	26958	1075254	46984	110484	0	0	8056	592290	0	0
2024-09-03 06:57:47			0	36775	0	0	0	28246	26820	159214	27294	1075290	46983	110490	0	0	8054	593098	0	0
2024-09-03 06:58:47			0	36770	0	0	0	28264	26830	159274	27090	1075335	46984	110497	0	0	8054	593268	0	0
2024-09-03 06:59:47			0	36786	0	0	0	28262	26820	159146	27306	1075263	46983	110496	0	0	8055	592650	0	0
2024-09-03 07:00:47			0	36757	0	0	0	28257	26820	159214	27320	1075334	46993	110494	0	0	8053	593833	0	0
2024-09-03 07:01:47			0	36744	0	0	0	28249	26820	159274	27072	1075343	46995	110491	0	0	8053	594363	0	0
2024-09-03 07:02:47			0	36733	0	0	0	28290	26810	159382	26939	1075325	47004	110507	0	0	8051	594847	0	0
2024-09-03 07:03:47			0	36689	0	0	0	28366	26830	159506	27351	1075379	47017	110536	0	0	8047	596578	0	0
2024-09-03 07:04:47			0	36690	0	0	0	28306	26830	159650	26991	1075442	46996	110513	0	0	8048	596538	0	0
2024-09-03 07:05:47			0	36657	0	0	0	28262	26830	159698	27256	1075308	46984	110496	0	0	8047	597889	0	0
2024-09-03 07:06:47			0	36635	0	0	0	28254	26830	159850	26816	1075352	46996	110493	0	0	8046	598792	0	0
2024-09-03 07:07:47			0	36603	0	0	0	28262	26820	159874	27313	1075343	46983	110496	0	0	8044	600141	0	0
2024-09-03 07:08:47			0	36611	0	0	0	28306	26820	159838	27135	1075316	46972	110513	0	0	8044	599812	0	0
2024-09-03 07:09:47			0	36605	0	0	0	28275	26830	159998	27211	1075326	46973	110501	0	0	8044	600024	0	0
2024-09-03 07:10:47			0	36607	0	0	0	28199	26830	159902	27092	1075299	47006	110472	0	0	8045	599942	0	0
2024-09-03 07:11:47			0	36625	0	0	0	28236	26830	159782	27097	1075352	46996	110486	0	0	8046	599203	0	0
2024-09-03 07:12:47			0	36635	0	0	0	28231	26820	159766	27286	1075236	46983	110484	0	0	8046	598826	0	0
2024-09-03 07:13:47			0	36656	0	0	0	28199	26820	159618	27338	1075200	46982	110472	0	0	8048	597965	0	0
2024-09-03 07:14:47			0	36666	0	0	0	28166	26820	159718	27374	1075173	46982	110459	0	0	8049	597555	0	0
2024-09-03 07:15:47			0	36694	0	0	0	28179	26800	159662	27381	1075083	46958	110464	0	0	8051	596476	0	0
2024-09-03 07:16:47			0	36701	0	0	0	28212	26810	159626	27434	1075155	46959	110477	0	0	8051	596155	0	0
2024-09-03 07:17:47			0	36719	0	0	0	28210	26790	159658	27189	1075101	46958	110476	0	0	8052	595487	0	0
2024-09-03 07:18:47			0	36717	0	0	0	28223	26790	159634	27046	1075074	46969	110481	0	0	8051	595569	0	0
2024-09-03 07:19:47			0	36708	0	0	0	28277	26790	159698	27293	1075128	46980	110502	0	0	8050	595937	0	0
2024-09-03 07:20:47			0	36669	0	0	0	28293	26800	159806	27182	1075110	46980	110508	0	0	8047	597500	0	0
2024-09-03 07:21:47			0	36663	0	0	0	28290	26800	159782	27218	1075164	47002	110507	0	0	8047	597746	0	0
2024-09-03 07:22:47			0	36651	0	0	0	28293	26810	159854	26878	1075236	47004	110508	0	0	8046	598204	0	0
2024-09-03 07:23:47			0	36631	0	0	0	28244	26810	159782	27019	1075245	47004	110489	0	0	8046	599025	0	0
2024-09-03 07:24:47			0	36612	0	0	0	28220	26810	159954	26909	1075209	46993	110480	0	0	8045	599806	0	0
2024-09-03 07:25:47			0	36599	0	0	0	28225	26800	159977	27104	1075200	46992	110482	0	0	8044	600374	0	0
2024-09-03 07:26:47			0	36587	0	0	0	28210	26800	159969	27246	1075092	46992	110476	0	0	8044	600868	0	0
2024-09-03 07:27:47			0	36587	0	0	0	28220	26800	159994	27331	1075038	46981	110480	0	0	8044	600868	0	0
2024-09-03 07:28:47			0	36604	0	0	0	28225	26790	160034	27220	1075038	46980	110482	0	0	8044	600203	0	0
2024-09-03 07:29:47			0	36590	0	0	0	28199	26780	160050	27227	1075136	46979	110472	0	0	8044	600813	0	0
2024-09-03 07:30:47			0	36580	0	0	0	28194	26790	160113	27159	1075020	46969	110470	0	0	8044	601190	0	0
2024-09-03 07:31:47			0	36584	0	0	0	28189	26790	160134	27145	1075118	46980	110468	0	0	8044	601026	0	0
2024-09-03 07:32:47			0	36595	0	0	0	28210	26790	159949	27223	1075038	46992	110476	0	0	8044	600573	0	0
2024-09-03 07:33:47			0	36608	0	0	0	28189	26780	159930	27393	1075073	46978	110468	0	0	8045	600073	0	0
2024-09-03 07:34:47			0	36608	0	0	0	28166	26780	160034	27168	1075109	46991	110459	0	0	8046	600073	0	0
2024-09-03 07:35:47			0	36588	0	0	0	28166	26780	160045	27159	1074993	46967	110459	0	0	8044	600896	0	0
2024-09-03 07:36:47			0	36586	0	0	0	28155	26780	159977	27249	1074993	46989	110455	0	0	8045	600978	0	0
2024-09-03 07:37:47			0	36605	0	0	0	28150	26770	160094	27072	1075028	46967	110453	0	0	8046	600231	0	0
2024-09-03 07:38:47			0	36578	0	0	0	28153	26760	160113	27410	1074939	46966	110454	0	0	8044	601376	0	0
2024-09-03 07:39:47			0	36595	0	0	0	28148	26760	160102	27161	1074966	46944	110452	0	0	8045	600676	0	0
2024-09-03 07:40:47			0	36590	0	0	0	28150	26760	160106	27130	1074912	46977	110453	0	0	8045	600882	0	0
2024-09-03 07:41:47			0	36603	0	0	0	28142	26760	160066	27405	1074966	46966	110450	0	0	8046	600347	0	0
2024-09-03 07:42:47			0	36589	0	0	0	28135	26750	160085	27339	1074894	46975	110447	0	0	8045	600958	0	0
2024-09-03 07:43:47			0	36579	0	0	0	28155	26760	160129	27270	1074849	46976	110455	0	0	8044	601335	0	0
2024-09-03 07:44:47			0	36573	0	0	0	28158	26750	160153	27227	1074885	46998	110456	0	0	8044	601616	0	0
2024-09-03 07:45:47			0	36572	0	0	0	28142	26750	160221	27386	1074885	46986	110450	0	0	8044	601658	0	0
2024-09-03 07:46:47			0	36543	0	0	0	28140	26750	160273	27355	1074885	46964	110449	0	0	8042	602853	0	0
2024-09-03 07:47:47			0	36551	0	0	0	28150	26750	160365	27282	1074777	46975	110453	0	0	8042	602523	0	0
2024-09-03 07:48:47			0	36524	0	0	0	28135	26740	160433	27464	1074849	46975	110447	0	0	8041	603671	0	0
2024-09-03 07:49:47			0	36505	0	0	0	28137	26740	160429	27230	1074893	46952	110448	0	0	8040	604456	0	0
2024-09-03 07:50:47			0	36518	0	0	0	28142	26730	160485	27166	1074777	46962	110450	0	0	8040	603954	0	0
2024-09-03 07:51:47			0	36501	0	0	0	28135	26740	160521	27152	1074759	46985	110447	0	0	8040	604621	0	0
2024-09-03 07:52:47			0	36471	0	0	0	28132	26750	160589	27081	1074867	46986	110446	0	0	8038	605827	0	0
2024-09-03 07:53:47			0	36490	0	0	0	28129	26730	160685	27303	1074848	46973	110445	0	0	8039	605111	0	0
2024-09-03 07:54:47			0	36496	0	0	0	28202	26730	160693	27329	1074822	46973	110473	0	0	8038	604863	0	0
2024-09-03 07:55:47			0	36472	0	0	0	28181	26730	160625	27161	1074848	46984	110465	0	0	8037	605855	0	0
2024-09-03 07:56:47			0	36470	0	0	0	28161	26730	160613	27072	1074848	46973	110457	0	0	8037	605938	0	0
2024-09-03 07:57:47			0	36460	0	0	0	28161	26720	160685	27012	1074830	46983	110457	0	0	8037	606387	0	0
2024-09-03 07:58:47			0	36453	0	0	0	28166	26720	160641	27339	1074813	46984	110459	0	0	8036	606677	0	0
2024-09-03 07:59:47			0	36449	0	0	0	28176	26730	160633	27050	1074804	46973	110463	0	0	8036	606808	0	0
2024-09-03 08:00:47			0	36438	0	0	0	28197	26720	160789	27287	1074813	46984	110471	0	0	8035	607298	0	0
2024-09-03 08:01:47			0	36455	0	0	0	28259	26740	160781	26835	1074867	46963	110495	0	0	8035	606524	0	0
2024-09-03 08:02:47			0	36430	0	0	0	28324	26730	160889	26896	1074929	46996	110520	0	0	8032	607595	0	0
2024-09-03 08:03:47			0	36415	0	0	0	28394	26740	160909	27137	1075010	46998	110547	0	0	8030	608183	0	0
2024-09-03 08:04:47			0	36397	0	0	0	28415	26750	160925	27034	1075127	47008	110555	0	0	8029	608895	0	0
2024-09-03 08:05:47			0	36390	0	0	0	28420	26770	161029	27145	1075243	47011	110557	0	0	8028	609116	0	0
2024-09-03 08:06:47			0	36381	0	0	0	28420	26780	160933	27204	1075351	47012	110557	0	0	8028	609455	0	0
2024-09-03 08:07:47			0	36398	0	0	0	28415	26800	160861	27000	1075459	47025	110555	0	0	8029	608679	0	0
2024-09-03 08:08:47			0	36378	0	0	0	28410	26800	160965	27190	1075549	47026	110553	0	0	8028	609510	0	0
2024-09-03 08:09:47			0	36404	0	0	0	28418	26820	160809	27376	1075576	47048	110556	0	0	8029	608361	0	0
2024-09-03 08:10:47			0	36410	0	0	0	28423	26830	160765	26972	1075567	47040	110558	0	0	8030	608077	0	0
2024-09-03 08:11:47			0	36444	0	0	0	28397	26840	160597	27128	1075568	47030	110548	0	0	8032	606633	0	0
2024-09-03 08:12:47			0	36448	0	0	0	28399	26840	160713	27542	1075514	47007	110549	0	0	8032	606467	0	0
2024-09-03 08:13:47			0	36421	0	0	0	28405	26850	160593	27256	1075631	46998	110551	0	0	8031	607551	0	0
2024-09-03 08:14:47			0	36442	0	0	0	28415	26850	160685	27213	1075693	47032	110555	0	0	8032	606681	0	0
2024-09-03 08:15:47			0	36428	0	0	0	28399	26880	160737	27294	1075739	47011	110549	0	0	8031	607156	0	0
2024-09-03 08:16:47			0	36431	0	0	0	28407	26870	160581	27180	1075730	47034	110552	0	0	8031	607067	0	0
2024-09-03 08:17:47			0	36452	0	0	0	28405	26880	160621	27189	1075712	47011	110551	0	0	8033	606163	0	0
2024-09-03 08:18:47			0	36458	0	0	0	28412	26890	160441	27301	1075820	47013	110554	0	0	8033	605879	0	0
2024-09-03 08:19:47			0	36482	0	0	0	28384	26900	160341	27144	1075865	47014	110543	0	0	8035	604852	0	0
2024-09-03 08:20:47			0	36491	0	0	0	28309	26890	160445	26908	1075676	47012	110514	0	0	8037	604515	0	0
2024-09-03 08:21:47			0	36501	0	0	0	28296	26880	160385	27317	1075550	46967	110509	0	0	8038	604137	0	0
2024-09-03 08:22:47			0	36468	0	0	0	28316	26860	160457	27105	1075443	46954	110517	0	0	8035	605570	0	0
2024-09-03 08:23:47			0	36445	0	0	0	28228	26860	160441	27057	1075461	46987	110483	0	0	8035	606522	0	0
2024-09-03 08:24:47			0	36418	0	0	0	28186	26840	160733	27123	1075218	46962	110467	0	0	8034	607710	0	0
2024-09-03 08:25:47			0	36381	0	0	0	28148	26820	160737	27008	1075119	46959	110452	0	0	8033	609316	0	0
2024-09-03 08:26:47			0	36335	0	0	0	28135	26820	160897	27126	1075119	46959	110447	0	0	8030	611229	0	0
2024-09-03 08:27:47			0	36288	0	0	0	28122	26800	161133	27123	1074985	46948	110442	0	0	8027	613258	0	0
2024-09-03 08:28:47			0	36273	0	0	0	28114	26800	161229	26797	1075011	46958	110439	0	0	8027	613884	0	0
2024-09-03 08:29:47			0	36269	0	0	0	28103	26780	161225	27086	1074939	46967	110435	0	0	8026	614122	0	0
2024-09-03 08:30:47			0	36240	0	0	0	28119	26770	161421	27178	1074894	46945	110441	0	0	8024	615369	0	0
2024-09-03 08:31:47			0	36241	0	0	0	28119	26760	161501	27249	1074858	46977	110441	0	0	8024	615363	0	0
2024-09-03 08:32:47			0	36249	0	0	0	28098	26750	161505	27076	1074777	46964	110433	0	0	8025	615063	0	0
2024-09-03 08:33:47			0	36223	0	0	0	28083	26750	161493	27013	1074750	46975	110427	0	0	8024	616151	0	0
2024-09-03 08:34:47			0	36241	0	0	0	28103	26740	161533	27071	1074759	46974	110435	0	0	8025	615433	0	0
2024-09-03 08:35:47			0	36235	0	0	0	28114	26730	161521	27225	1074741	46973	110439	0	0	8024	615719	0	0
2024-09-03 08:36:47			0	36245	0	0	0	28109	26730	161569	27142	1074714	46962	110437	0	0	8025	615301	0	0
2024-09-03 08:37:47			0	36240	0	0	0	28114	26720	161641	27362	1074651	46962	110439	0	0	8024	615545	0	0
2024-09-03 08:38:47			0	36237	0	0	0	28129	26720	161585	27256	1074669	46972	110445	0	0	8024	615671	0	0
2024-09-03 08:39:47			0	36218	0	0	0	28140	26710	161633	27322	1074660	46971	110449	0	0	8022	616502	0	0
2024-09-03 08:40:47			0	36224	0	0	0	28176	26710	161697	27308	1074705	46982	110463	0	0	8022	616250	0	0
2024-09-03 08:41:47			0	36227	0	0	0	28116	26700	161605	27159	1074696	46994	110440	0	0	8023	616160	0	0
2024-09-03 08:42:47			0	36240	0	0	0	28127	26710	161581	27384	1074687	46982	110444	0	0	8024	615581	0	0
2024-09-03 08:43:47			0	36235	0	0	0	28140	26710	161589	27192	1074651	46971	110449	0	0	8023	615790	0	0
2024-09-03 08:44:47			0	36261	0	0	0	28168	26710	161461	27019	1074687	46982	110460	0	0	8024	614702	0	0
2024-09-03 08:45:47			0	36260	0	0	0	28153	26710	161449	27149	1074768	46982	110454	0	0	8025	614744	0	0
2024-09-03 08:46:47			0	36293	0	0	0	28137	26710	161385	27305	1074759	46994	110448	0	0	8027	613365	0	0
2024-09-03 08:47:47			0	36290	0	0	0	28145	26710	161465	27338	1074705	46982	110451	0	0	8027	613491	0	0
2024-09-03 08:48:47			0	36290	0	0	0	28194	26700	161377	27505	1074750	46994	110470	0	0	8026	613526	0	0
2024-09-03 08:49:47			0	36294	0	0	0	28324	26720	161349	27279	1074830	47005	110520	0	0	8024	613289	0	0
2024-09-03 08:50:47			0	36310	0	0	0	28212	26720	161217	27232	1074893	47006	110477	0	0	8027	612621	0	0
2024-09-03 08:51:47			0	36312	0	0	0	28194	26720	161173	27215	1074884	46995	110470	0	0	8027	612538	0	0
2024-09-03 08:52:47			0	36308	0	0	0	28298	26730	161209	27301	1074938	46996	110510	0	0	8025	612669	0	0
2024-09-03 08:53:47			0	36339	0	0	0	28225	26740	161201	27315	1075028	47019	110482	0	0	8028	611342	0	0
2024-09-03 08:54:47			0	36324	0	0	0	28277	26750	161157	27300	1074992	47020	110502	0	0	8027	611932	0	0
2024-09-03 08:55:47			0	36338	0	0	0	28277	26750	161109	27429	1075055	47008	110502	0	0	8027	611349	0	0
2024-09-03 08:56:47			0	36333	0	0	0	28301	26750	161193	27279	1075163	47008	110511	0	0	8027	611557	0	0
2024-09-03 08:57:47			0	36329	0	0	0	28251	26770	161153	27410	1075172	47011	110492	0	0	8027	611654	0	0
2024-09-03 08:58:47			0	36319	0	0	0	28251	26780	161085	27320	1075127	47011	110492	0	0	8027	612035	0	0
2024-09-03 08:59:47			0	36318	0	0	0	28280	26780	161145	27379	1075190	47012	110503	0	0	8026	612077	0	0
2024-09-03 09:00:47			0	36322	0	0	0	28288	26800	161173	27147	1075298	47013	110506	0	0	8027	611840	0	0
2024-09-03 09:01:47			0	36327	0	0	0	28335	26790	161165	27414	1075343	47002	110524	0	0	8026	611667	0	0
2024-09-03 09:02:47			0	36321	0	0	0	28298	26800	161097	27294	1075334	47014	110510	0	0	8026	611882	0	0
2024-09-03 09:03:47			0	36342	0	0	0	28254	26790	161025	27163	1075316	47002	110493	0	0	8028	611042	0	0
2024-09-03 09:04:47			0	36345	0	0	0	28259	26800	161057	27326	1075280	46992	110495	0	0	8028	610882	0	0
2024-09-03 09:05:47			0	36357	0	0	0	28189	26800	160977	27121	1075253	46992	110468	0	0	8030	610383	0	0
2024-09-03 09:06:47			0	36368	0	0	0	28184	26800	160865	27261	1075110	46980	110466	0	0	8031	609926	0	0
2024-09-03 09:07:47			0	36394	0	0	0	28290	26800	160789	27131	1075164	47002	110507	0	0	8031	608845	0	0
2024-09-03 09:08:47			0	36402	0	0	0	28293	26800	160809	27149	1075280	47014	110508	0	0	8031	608513	0	0
2024-09-03 09:09:47			0	36413	0	0	0	28275	26810	160729	27043	1075343	47015	110501	0	0	8032	608022	0	0
2024-09-03 09:10:47			0	36430	0	0	0	28259	26810	160649	27078	1075352	47027	110495	0	0	8034	607317	0	0
2024-09-03 09:11:47			0	36437	0	0	0	28238	26830	160649	27268	1075352	46984	110487	0	0	8034	606957	0	0
2024-09-03 09:12:47			0	36456	0	0	0	28225	26810	160549	27350	1075298	47004	110482	0	0	8036	606240	0	0
2024-09-03 09:13:47			0	36461	0	0	0	28205	26820	160549	27176	1075227	46982	110474	0	0	8036	605998	0	0
2024-09-03 09:14:47			0	36465	0	0	0	28181	26810	160505	27225	1075164	46993	110465	0	0	8037	605867	0	0
2024-09-03 09:15:47			0	36481	0	0	0	28181	26810	160433	27048	1075155	46993	110465	0	0	8038	605206	0	0
2024-09-03 09:16:47			0	36485	0	0	0	28184	26800	160397	27300	1075173	46970	110466	0	0	8038	605075	0	0
2024-09-03 09:17:47			0	36494	0	0	0	28184	26790	160373	27131	1075074	46969	110466	0	0	8039	604738	0	0
2024-09-03 09:18:47			0	36489	0	0	0	28189	26790	160461	27220	1075118	46969	110468	0	0	8038	604944	0	0
2024-09-03 09:19:47			0	36490	0	0	0	28189	26790	160457	27131	1075101	46992	110468	0	0	8038	604903	0	0
2024-09-03 09:20:47			0	36492	0	0	0	28192	26780	160377	27242	1075082	46968	110469	0	0	8038	604855	0	0
2024-09-03 09:21:47			0	36505	0	0	0	28184	26790	160337	27358	1075101	46969	110466	0	0	8039	604283	0	0
2024-09-03 09:22:47			0	36487	0	0	0	28194	26790	160377	27377	1075091	46980	110470	0	0	8038	605027	0	0
2024-09-03 09:23:47			0	36491	0	0	0	28199	26790	160469	26913	1075101	46992	110472	0	0	8038	604862	0	0
2024-09-03 09:24:47			0	36508	0	0	0	28207	26790	160409	27294	1075074	46980	110475	0	0	8039	604159	0	0
2024-09-03 09:25:47			0	36482	0	0	0	28210	26780	160453	27275	1075109	47001	110476	0	0	8037	605268	0	0
2024-09-03 09:26:47			0	36527	0	0	0	28329	26790	160305	27076	1075208	47013	110522	0	0	8038	603375	0	0
2024-09-03 09:27:47			0	36534	0	0	0	28376	26800	160297	27403	1075388	47026	110540	0	0	8038	603051	0	0
2024-09-03 09:28:47			0	36548	0	0	0	28355	26830	160249	27260	1075460	47029	110532	0	0	8039	602371	0	0
2024-09-03 09:29:47			0	36564	0	0	0	28324	26830	160133	27149	1075541	47029	110520	0	0	8041	601711	0	0
2024-09-03 09:30:47			0	36572	0	0	0	28324	26840	160057	27135	1075541	47007	110520	0	0	8041	601347	0	0
2024-09-03 09:31:47			0	36573	0	0	0	28353	26850	160073	27185	1075577	47019	110531	0	0	8041	601272	0	0
2024-09-03 09:32:47			0	36582	0	0	0	28350	26850	160121	27281	1075640	47009	110530	0	0	8041	600901	0	0
2024-09-03 09:33:47			0	36592	0	0	0	28350	26850	159977	27291	1075667	47009	110530	0	0	8042	600490	0	0
2024-09-03 09:34:47			0	36574	0	0	0	28345	26860	160073	27298	1075649	47009	110528	0	0	8041	601196	0	0
2024-09-03 09:35:47			0	36581	0	0	0	28348	26870	159901	26930	1075730	47022	110529	0	0	8041	600874	0	0
2024-09-03 09:36:47			0	36578	0	0	0	28374	26880	159993	27251	1075694	47011	110539	0	0	8041	600963	0	0
2024-09-03 09:37:47			0	36562	0	0	0	28358	26880	160005	27124	1075775	47000	110533	0	0	8040	601621	0	0
2024-09-03 09:38:47			0	36567	0	0	0	28345	26890	160069	27248	1075766	47036	110528	0	0	8041	601381	0	0
2024-09-03 09:39:47			0	36562	0	0	0	28355	26900	160057	27206	1075802	47002	110532	0	0	8040	601552	0	0
2024-09-03 09:40:47			0	36563	0	0	0	28332	26910	159929	27227	1075820	47003	110523	0	0	8041	601477	0	0
2024-09-03 09:41:47			0	36576	0	0	0	28337	26910	159985	27156	1075739	47014	110525	0	0	8041	600942	0	0
2024-09-03 09:42:47			0	36580	0	0	0	28402	26900	160001	27036	1075811	47003	110550	0	0	8041	600811	0	0
2024-09-03 09:43:47			0	36571	0	0	0	28353	26910	159969	26998	1075874	47003	110531	0	0	8041	601148	0	0
2024-09-03 09:44:47			0	36562	0	0	0	28361	26910	160065	27062	1075874	47014	110534	0	0	8040	601518	0	0
2024-09-03 09:45:47			0	36581	0	0	0	28368	26910	160065	27351	1075829	46982	110537	0	0	8041	600736	0	0
2024-09-03 09:46:47			0	36559	0	0	0	28337	26900	160001	27092	1075811	47003	110525	0	0	8040	601676	0	0
2024-09-03 09:47:47			0	36574	0	0	0	28376	26920	160017	27199	1075838	46993	110540	0	0	8041	600989	0	0
2024-09-03 09:48:47			0	36584	0	0	0	28345	26910	159942	27152	1075793	47003	110528	0	0	8042	600613	0	0
2024-09-03 09:49:47			0	36584	0	0	0	28381	26910	159973	27069	1075847	47014	110542	0	0	8041	600613	0	0
2024-09-03 09:50:47			0	36585	0	0	0	28386	26910	159849	27300	1075883	47004	110544	0	0	8041	600572	0	0
2024-09-03 09:51:47			0	36588	0	0	0	28345	26920	159942	27294	1075865	47004	110528	0	0	8042	600414	0	0
2024-09-03 09:52:47			0	36613	0	0	0	28335	26920	159866	27008	1075892	47004	110524	0	0	8044	599386	0	0
2024-09-03 09:53:47			0	36612	0	0	0	28374	26920	159902	27168	1075838	46982	110539	0	0	8043	599427	0	0
2024-09-03 09:54:47			0	36592	0	0	0	28358	26930	159777	27109	1075946	47006	110533	0	0	8042	600215	0	0
2024-09-03 09:55:47			0	36600	0	0	0	28366	26920	159858	27064	1075919	47004	110536	0	0	8042	599920	0	0
2024-09-03 09:56:47			0	36591	0	0	0	28381	26930	159777	27313	1075919	47017	110542	0	0	8042	600256	0	0
2024-09-03 09:57:47			0	36609	0	0	0	28405	26930	159846	27171	1076000	47006	110551	0	0	8042	599516	0	0
2024-09-03 09:58:47			0	36603	0	0	0	28420	26940	159898	27170	1076036	47029	110557	0	0	8042	599728	0	0
2024-09-03 09:59:47			0	36611	0	0	0	28428	26950	159806	27072	1076072	47041	110560	0	0	8042	599365	0	0
2024-09-03 10:00:47			0	36609	0	0	0	28436	26960	159854	27024	1076180	47031	110563	0	0	8042	599413	0	0
2024-09-03 10:01:47			0	36542	0	0	0	28441	26970	160125	27459	1076162	47020	110565	0	0	8038	602135	0	0
2024-09-03 10:02:47			0	36559	0	0	0	28438	26960	159901	27104	1076260	47020	110564	0	0	8039	601469	0	0
2024-09-03 10:03:47			0	36576	0	0	0	28433	26980	159849	27144	1076207	47032	110562	0	0	8040	600701	0	0
2024-09-03 10:04:47			0	36595	0	0	0	28451	26990	159862	26961	1076315	47045	110569	0	0	8041	599885	0	0
2024-09-03 10:05:47			0	36596	0	0	0	28441	27000	159714	27201	1076297	47012	110565	0	0	8041	599810	0	0
2024-09-03 10:06:47			0	36634	0	0	0	28441	27000	159586	27308	1076324	47023	110565	0	0	8044	598250	0	0
2024-09-03 10:07:47			0	36657	0	0	0	28454	27010	159534	27026	1076351	47014	110570	0	0	8045	597273	0	0
2024-09-03 10:08:47			0	36674	0	0	0	28446	27000	159382	27294	1076360	47024	110567	0	0	8046	596611	0	0
2024-09-03 10:09:47			0	36700	0	0	0	28451	27010	159350	27095	1076396	47024	110569	0	0	8047	595513	0	0
2024-09-03 10:10:47			0	36715	0	0	0	28459	27020	159226	27133	1076441	47015	110572	0	0	8048	594866	0	0
2024-09-03 10:11:47			0	36732	0	0	0	28451	27020	159102	27126	1076369	47026	110569	0	0	8049	594172	0	0
2024-09-03 10:12:47			0	36735	0	0	0	28446	27030	159114	27346	1076405	47015	110567	0	0	8050	594016	0	0
2024-09-03 10:13:47			0	36741	0	0	0	28454	27020	159006	27362	1076441	47026	110570	0	0	8050	593805	0	0
2024-09-03 10:14:47			0	36759	0	0	0	28449	27030	159042	27057	1076459	47026	110568	0	0	8051	593037	0	0
2024-09-03 10:15:47			0	36770	0	0	0	28446	27030	159018	27126	1076459	47015	110567	0	0	8052	592588	0	0
2024-09-03 10:16:47			0	36758	0	0	0	28457	27030	159010	27417	1076441	47027	110571	0	0	8051	593078	0	0
2024-09-03 10:17:47			0	36786	0	0	0	28457	27030	159090	27147	1076468	47004	110571	0	0	8052	591937	0	0
2024-09-03 10:18:47			0	36785	0	0	0	28459	27050	158898	27060	1076469	47018	110572	0	0	8053	591910	0	0
2024-09-03 10:19:47			0	36789	0	0	0	28457	27030	158814	27407	1076549	47027	110571	0	0	8053	591815	0	0
2024-09-03 10:20:47			0	36801	0	0	0	28436	27040	158910	27251	1076450	47017	110563	0	0	8054	591293	0	0
2024-09-03 10:21:47			0	36790	0	0	0	28444	27040	158846	27241	1076487	47005	110566	0	0	8053	591740	0	0
2024-09-03 10:22:47			0	36778	0	0	0	28431	27030	158922	27022	1076441	47004	110561	0	0	8052	592263	0	0
2024-09-03 10:23:47			0	36763	0	0	0	28423	27040	158830	27377	1076450	47005	110558	0	0	8052	592840	0	0
2024-09-03 10:24:47			0	36761	0	0	0	28420	27030	158918	27119	1076378	46993	110557	0	0	8052	592955	0	0
2024-09-03 10:25:47			0	36750	0	0	0	28410	27020	158966	27261	1076307	46993	110553	0	0	8051	593438	0	0
2024-09-03 10:26:47			0	36739	0	0	0	28407	27020	159078	27320	1076343	47003	110552	0	0	8051	593886	0	0
2024-09-03 10:27:47			0	36758	0	0	0	28399	27040	158994	27421	1076370	47005	110549	0	0	8052	593043	0	0
2024-09-03 10:28:47			0	36767	0	0	0	28405	27020	158862	27377	1076253	46982	110551	0	0	8052	592745	0	0
2024-09-03 10:29:47			0	36794	0	0	0	28394	27010	158746	27268	1076261	47013	110547	0	0	8054	591679	0	0
2024-09-03 10:30:47			0	36797	0	0	0	28394	27010	158746	27479	1076324	46992	110547	0	0	8054	591557	0	0
2024-09-03 10:31:47			0	36808	0	0	0	28399	27010	158734	27147	1076271	46992	110549	0	0	8055	591109	0	0
2024-09-03 10:32:47			0	36815	0	0	0	28394	27000	158766	27441	1076306	46991	110547	0	0	8055	590859	0	0
2024-09-03 10:33:47			0	36820	0	0	0	28399	27000	158674	27053	1076198	47024	110549	0	0	8055	590655	0	0
2024-09-03 10:34:47			0	36827	0	0	0	28407	27000	158694	27267	1076243	47012	110552	0	0	8056	590371	0	0
2024-09-03 10:35:47			0	36821	0	0	0	28407	27010	158766	27384	1076234	47013	110552	0	0	8055	590581	0	0
2024-09-03 10:36:47			0	36809	0	0	0	28420	27010	158726	27417	1076261	47013	110557	0	0	8054	591069	0	0
2024-09-03 10:37:47			0	36815	0	0	0	28425	27000	158742	26951	1076306	47001	110559	0	0	8055	590859	0	0
2024-09-03 10:38:47			0	36845	0	0	0	28412	27010	158830	27147	1076369	47013	110554	0	0	8057	589606	0	0
2024-09-03 10:39:47			0	36827	0	0	0	28407	27010	158910	27114	1076315	46991	110552	0	0	8056	590337	0	0
2024-09-03 10:40:47			0	36809	0	0	0	28402	27010	158846	27170	1076298	47002	110550	0	0	8055	591069	0	0
2024-09-03 10:41:47			0	36803	0	0	0	28397	27010	158854	27222	1076288	47001	110548	0	0	8054	591313	0	0
2024-09-03 10:42:47			0	36779	0	0	0	28394	27010	158978	27393	1076315	47001	110547	0	0	8053	592290	0	0
2024-09-03 10:43:47			0	36768	0	0	0	28399	27000	158982	27152	1076270	47000	110549	0	0	8052	592772	0	0
2024-09-03 10:44:47			0	36759	0	0	0	28407	27000	159074	27331	1076306	47001	110552	0	0	8052	593139	0	0
2024-09-03 10:45:47			0	36751	0	0	0	28418	27010	159026	27234	1076298	46992	110556	0	0	8051	593431	0	0
2024-09-03 10:46:47			0	36736	0	0	0	28423	27010	159122	27112	1076261	47013	110558	0	0	8050	594043	0	0
2024-09-03 10:47:47			0	36748	0	0	0	28425	27000	159214	27059	1076306	47024	110559	0	0	8051	593587	0	0
2024-09-03 10:48:47			0	36744	0	0	0	28436	27010	159194	26901	1076324	47002	110563	0	0	8050	593716	0	0
2024-09-03 10:49:47			0	36749	0	0	0	28438	27010	159218	27152	1076378	47025	110564	0	0	8051	593512	0	0
2024-09-03 10:50:47			0	36750	0	0	0	28454	27010	159214	26817	1076405	47025	110570	0	0	8050	593472	0	0
2024-09-03 10:51:47			0	36741	0	0	0	28459	27020	159182	27100	1076450	47026	110572	0	0	8050	593805	0	0
2024-09-03 10:52:47			0	36760	0	0	0	28493	27030	159090	27234	1076432	47015	110585	0	0	8050	592996	0	0
2024-09-03 10:53:47			0	36780	0	0	0	28490	27040	158962	27138	1076504	47028	110584	0	0	8052	592147	0	0
2024-09-03 10:54:47			0	36832	0	0	0	28485	27040	158918	26915	1076567	47028	110582	0	0	8055	590032	0	0
2024-09-03 10:55:47			0	36856	0	0	0	28480	27040	158786	27426	1076540	47028	110580	0	0	8056	589058	0	0
2024-09-03 10:56:47			0	36883	0	0	0	28472	27060	158674	26918	1076595	47030	110577	0	0	8058	587896	0	0
2024-09-03 10:57:47			0	36896	0	0	0	28490	27050	158518	26958	1076586	47018	110584	0	0	8059	587403	0	0
2024-09-03 10:58:47			0	36873	0	0	0	28488	27060	158634	27111	1076648	47019	110583	0	0	8057	588301	0	0
2024-09-03 10:59:47			0	36885	0	0	0	28498	27050	158658	27046	1076666	47041	110587	0	0	8058	587848	0	0
2024-09-03 11:00:47			0	36884	0	0	0	28498	27050	158566	27149	1076603	47018	110587	0	0	8058	587889	0	0
2024-09-03 11:01:47			0	36920	0	0	0	28511	27060	158430	27234	1076648	47019	110592	0	0	8060	586398	0	0
2024-09-03 11:02:47			0	36943	0	0	0	28524	27070	158426	27208	1076747	47031	110597	0	0	8061	585434	0	0
2024-09-03 11:03:47			0	36930	0	0	0	28527	27080	158338	27228	1076747	47033	110598	0	0	8060	585926	0	0
2024-09-03 11:04:47			0	36964	0	0	0	28550	27080	158138	27429	1076819	47021	110607	0	0	8062	584552	0	0
2024-09-03 11:05:47			0	37025	0	0	0	28550	27090	157906	27372	1076783	47033	110607	0	0	8065	582060	0	0
2024-09-03 11:06:47			0	37072	0	0	0	28555	27090	157698	27007	1076873	47044	110609	0	0	8068	580171	0	0
2024-09-03 11:07:47			0	37095	0	0	0	28571	27100	157666	26960	1076882	47034	110615	0	0	8069	579214	0	0
2024-09-03 11:08:47			0	37133	0	0	0	28584	27100	157526	26972	1076945	47024	110620	0	0	8071	577691	0	0
2024-09-03 11:09:47			0	37151	0	0	0	28589	27110	157426	26838	1077008	47035	110622	0	0	8072	576938	0	0
2024-09-03 11:10:47			0	37194	0	0	0	28594	27120	157218	26866	1076954	47026	110624	0	0	8075	575186	0	0
2024-09-03 11:11:47			0	37222	0	0	0	28607	27130	157178	27005	1077107	47038	110629	0	0	8076	574036	0	0
2024-09-03 11:12:47			0	37251	0	0	0	28623	27130	157030	27019	1077080	47038	110635	0	0	8078	572880	0	0
2024-09-03 11:13:47			0	37283	0	0	0	28625	27140	156870	27220	1077179	47039	110636	0	0	8079	571574	0	0
2024-09-03 11:14:47			0	37306	0	0	0	28628	27150	156874	27341	1077251	47051	110637	0	0	8081	570627	0	0
2024-09-03 11:15:47			0	37322	0	0	0	28631	27160	156630	26944	1077287	47040	110638	0	0	8082	569959	0	0
2024-09-03 11:16:47			0	37350	0	0	0	28625	27170	156571	26814	1077332	47031	110636	0	0	8083	568816	0	0
2024-09-03 11:17:47			0	37371	0	0	0	28636	27170	156435	27220	1077314	47041	110640	0	0	8085	567984	0	0
2024-09-03 11:18:47			0	37395	0	0	0	28628	27190	156299	27163	1077395	47033	110637	0	0	8086	566969	0	0
2024-09-03 11:19:47			0	37404	0	0	0	28644	27190	156303	27123	1077368	47043	110643	0	0	8086	566614	0	0
2024-09-03 11:20:47			0	37419	0	0	0	28646	27200	156235	27057	1077387	47055	110644	0	0	8087	565988	0	0
2024-09-03 11:21:47			0	37442	0	0	0	28654	27200	156099	26989	1077467	47033	110647	0	0	8088	565080	0	0
2024-09-03 11:22:47			0	37452	0	0	0	28644	27210	156075	27176	1077432	47024	110643	0	0	8089	564653	0	0
2024-09-03 11:23:47			0	37480	0	0	0	28664	27210	155975	27232	1077485	47035	110651	0	0	8091	563550	0	0
2024-09-03 11:24:47			0	37494	0	0	0	28690	27210	156055	27105	1077512	47057	110661	0	0	8091	562999	0	0
2024-09-03 11:25:47			0	37514	0	0	0	28680	27220	155863	27173	1077530	47036	110657	0	0	8092	562179	0	0
2024-09-03 11:26:47			0	37524	0	0	0	28690	27240	155859	27144	1077585	47048	110661	0	0	8093	561722	0	0
2024-09-03 11:27:47			0	37548	0	0	0	28698	27240	155687	27138	1077638	47048	110664	0	0	8094	560779	0	0
2024-09-03 11:28:47			0	37543	0	0	0	28701	27240	155663	26866	1077585	47048	110665	0	0	8094	560975	0	0
2024-09-03 11:29:47			0	37583	0	0	0	28724	27250	155543	27300	1077737	47038	110674	0	0	8096	559374	0	0
2024-09-03 11:30:47			0	37585	0	0	0	28729	27250	155555	27090	1077746	47039	110676	0	0	8096	559295	0	0
2024-09-03 11:31:47			0	37609	0	0	0	28724	27260	155479	26939	1077728	47051	110674	0	0	8097	558323	0	0
2024-09-03 11:32:47			0	37597	0	0	0	28729	27260	155459	27090	1077836	47040	110676	0	0	8097	558793	0	0
2024-09-03 11:33:47			0	37619	0	0	0	28737	27270	155303	27232	1077827	47040	110679	0	0	8098	557900	0	0
2024-09-03 11:34:47			0	37641	0	0	0	28729	27280	155391	27144	1077899	47041	110676	0	0	8099	557007	0	0
2024-09-03 11:35:47			0	37632	0	0	0	28735	27280	155171	27090	1077935	47032	110678	0	0	8099	557359	0	0
2024-09-03 11:36:47			0	37632	0	0	0	28753	27280	155239	27090	1077935	47053	110685	0	0	8098	557359	0	0
2024-09-03 11:37:47			0	37649	0	0	0	28761	27290	155327	27225	1077954	47065	110688	0	0	8099	556663	0	0
2024-09-03 11:38:47			0	37659	0	0	0	28763	27290	155251	27150	1078008	47032	110689	0	0	8100	556272	0	0
2024-09-03 11:39:47			0	37682	0	0	0	28774	27310	155179	27737	1078035	47067	110693	0	0	8101	555311	0	0
2024-09-03 11:40:47			0	37679	0	0	0	28794	27320	155063	27126	1078107	47057	110701	0	0	8100	555396	0	0
2024-09-03 11:41:47			0	37699	0	0	0	28794	27330	154939	27170	1078152	47058	110701	0	0	8102	554584	0	0
2024-09-03 11:42:47			0	37720	0	0	0	28784	27340	154923	26850	1078170	47059	110697	0	0	8103	553734	0	0
2024-09-03 11:43:47			0	37721	0	0	0	28789	27340	154875	27060	1078179	47071	110699	0	0	8103	553695	0	0
2024-09-03 11:44:47			0	37725	0	0	0	28792	27350	154887	27163	1078251	47072	110700	0	0	8103	553508	0	0
2024-09-03 11:45:47			0	37745	0	0	0	28810	27340	154867	27253	1078287	47048	110707	0	0	8104	552761	0	0
2024-09-03 11:46:47			0	37731	0	0	0	28818	27350	154803	27275	1078278	47072	110710	0	0	8103	553274	0	0
2024-09-03 11:47:47			0	37737	0	0	0	28818	27370	154771	27142	1078341	47051	110710	0	0	8104	552977	0	0
2024-09-03 11:48:47			0	37755	0	0	0	28818	27370	154723	26987	1078395	47063	110710	0	0	8105	552277	0	0
2024-09-03 11:49:47			0	37747	0	0	0	28857	27370	154763	27216	1078368	47063	110725	0	0	8104	552588	0	0
2024-09-03 11:50:47			0	37723	0	0	0	28880	27380	154723	27079	1078431	47051	110734	0	0	8102	553490	0	0
2024-09-03 11:51:47			0	37756	0	0	0	28877	27390	154751	27222	1078584	47076	110733	0	0	8104	552175	0	0
2024-09-03 11:52:47			0	37759	0	0	0	28880	27400	154767	27190	1078530	47066	110734	0	0	8104	552027	0	0
2024-09-03 11:53:47			0	37770	0	0	0	28883	27410	154711	27216	1078566	47078	110735	0	0	8105	551568	0	0
2024-09-03 11:54:47			0	37750	0	0	0	28885	27420	154719	27060	1078665	47068	110736	0	0	8103	552313	0	0
2024-09-03 11:55:47			0	37765	0	0	0	28885	27420	154559	27268	1078701	47068	110736	0	0	8104	551730	0	0
2024-09-03 11:56:47			0	37771	0	0	0	28893	27430	154495	27171	1078683	47057	110739	0	0	8105	551465	0	0
2024-09-03 11:57:47			0	37771	0	0	0	28893	27440	154575	26830	1078728	47058	110739	0	0	8105	551434	0	0
2024-09-03 11:58:47			0	37778	0	0	0	28893	27430	154487	27310	1078692	47058	110739	0	0	8105	551194	0	0
2024-09-03 11:59:47			0	37803	0	0	0	28890	27450	154595	27249	1078747	47071	110738	0	0	8107	550161	0	0
2024-09-03 12:00:47			0	37808	0	0	0	28888	27440	154547	27001	1078791	47058	110737	0	0	8107	549999	0	0
2024-09-03 12:01:47			0	37804	0	0	0	28890	27440	154519	27202	1078738	47058	110738	0	0	8107	550154	0	0
2024-09-03 12:02:47			0	37803	0	0	0	28893	27450	154475	27279	1078774	47071	110739	0	0	8107	550161	0	0
2024-09-03 12:03:47			0	37808	0	0	0	28890	27460	154467	27294	1078845	47072	110738	0	0	8107	549935	0	0
2024-09-03 12:04:47			0	37814	0	0	0	28903	27450	154419	27001	1078836	47060	110743	0	0	8107	549734	0	0
2024-09-03 12:05:47			0	37833	0	0	0	28903	27460	154331	27190	1078881	47060	110743	0	0	8108	548967	0	0
2024-09-03 12:06:47			0	37838	0	0	0	28906	27450	154435	27133	1078836	47060	110744	0	0	8108	548805	0	0
2024-09-03 12:07:47			0	37833	0	0	0	28903	27470	154311	27171	1078917	47073	110743	0	0	8108	548935	0	0
2024-09-03 12:08:47			0	37835	0	0	0	28914	27470	154331	27161	1078873	47062	110747	0	0	8108	548858	0	0
2024-09-03 12:09:47			0	37853	0	0	0	28916	27470	154351	27261	1078900	47062	110748	0	0	8109	548162	0	0
2024-09-03 12:10:47			0	37852	0	0	0	28906	27470	154255	27512	1078900	47041	110744	0	0	8109	548200	0	0
2024-09-03 12:11:47			0	37860	0	0	0	28911	27480	154239	27133	1078963	47062	110746	0	0	8110	547859	0	0
2024-09-03 12:12:47			0	37854	0	0	0	28922	27480	154287	27350	1078972	47052	110750	0	0	8109	548092	0	0
2024-09-03 12:13:47			0	37862	0	0	0	28932	27490	154303	27241	1078963	47053	110754	0	0	8110	547751	0	0
2024-09-03 12:14:47			0	37862	0	0	0	28924	27490	154247	27057	1078954	47052	110751	0	0	8110	547751	0	0
2024-09-03 12:15:47			0	37872	0	0	0	28935	27480	154207	27079	1078972	47063	110755	0	0	8110	547396	0	0
2024-09-03 12:16:47			0	37878	0	0	0	28932	27490	154107	27261	1078990	47076	110754	0	0	8110	547133	0	0
2024-09-03 12:17:47			0	37865	0	0	0	28942	27500	154151	26922	1078972	47064	110758	0	0	8110	547603	0	0
2024-09-03 12:18:47			0	37918	0	0	0	28942	27500	154039	27286	1078999	47064	110758	0	0	8113	545558	0	0
2024-09-03 12:19:47			0	37908	0	0	0	28937	27510	154055	27031	1079098	47043	110756	0	0	8112	545912	0	0
2024-09-03 12:20:47			0	37901	0	0	0	28940	27510	154079	27220	1079125	47077	110757	0	0	8112	546182	0	0
2024-09-03 12:21:47			0	37896	0	0	0	28940	27520	154031	27178	1079143	47055	110757	0	0	8111	546343	0	0
2024-09-03 12:22:47			0	37900	0	0	0	28953	27510	154007	26998	1079107	47055	110762	0	0	8111	546220	0	0
2024-09-03 12:23:47			0	37894	0	0	0	28942	27510	154015	26785	1079125	47054	110758	0	0	8111	546452	0	0
2024-09-03 12:24:47			0	37911	0	0	0	28945	27530	153975	27241	1079098	47068	110759	0	0	8112	545733	0	0
2024-09-03 12:25:47			0	37909	0	0	0	28953	27520	153963	27270	1079170	47066	110762	0	0	8112	545842	0	0
2024-09-03 12:26:47			0	37892	0	0	0	28953	27530	154091	27142	1079098	47068	110762	0	0	8111	546466	0	0
2024-09-03 12:27:47			0	37919	0	0	0	28953	27530	153915	27039	1079125	47056	110762	0	0	8113	545425	0	0
2024-09-03 12:28:47			0	37920	0	0	0	28950	27520	153923	27118	1079170	47044	110761	0	0	8113	545418	0	0
2024-09-03 12:29:47			0	37911	0	0	0	28958	27530	153943	27090	1079161	47069	110764	0	0	8112	545733	0	0
2024-09-03 12:30:47			0	37919	0	0	0	28966	27540	153907	27391	1079170	47057	110767	0	0	8112	545394	0	0
2024-09-03 12:31:47			0	37900	0	0	0	28968	27530	153871	27279	1079188	47046	110768	0	0	8111	546157	0	0
2024-09-03 12:32:47			0	37917	0	0	0	28979	27530	153915	26857	1079242	47069	110772	0	0	8112	545502	0	0
2024-09-03 12:33:47			0	37898	0	0	0	28997	27550	153987	27253	1079269	47058	110779	0	0	8111	546172	0	0
2024-09-03 12:34:47			0	37928	0	0	0	28992	27540	153915	27280	1079305	47057	110777	0	0	8113	545047	0	0
2024-09-03 12:35:47			0	37912	0	0	0	28999	27560	153939	27203	1079314	47082	110780	0	0	8112	545601	0	0
2024-09-03 12:36:47			0	37900	0	0	0	29002	27560	153891	27140	1079314	47059	110781	0	0	8111	546063	0	0
2024-09-03 12:37:47			0	37903	0	0	0	29010	27560	153923	27286	1079368	47070	110784	0	0	8111	545948	0	0
2024-09-03 12:38:47			0	37915	0	0	0	29010	27560	153847	27133	1079350	47083	110784	0	0	8112	545485	0	0
2024-09-03 12:39:47			0	37922	0	0	0	29018	27580	153903	27182	1079378	47061	110787	0	0	8112	545152	0	0
2024-09-03 12:40:47			0	37927	0	0	0	29018	27570	153883	27013	1079440	47083	110787	0	0	8112	544991	0	0
2024-09-03 12:41:47			0	37934	0	0	0	29015	27570	153879	27183	1079440	47060	110786	0	0	8113	544722	0	0
2024-09-03 12:42:47			0	37920	0	0	0	29015	27570	153795	27010	1079494	47072	110786	0	0	8112	545261	0	0
2024-09-03 12:43:47			0	37932	0	0	0	29010	27580	153835	27085	1079512	47083	110784	0	0	8113	544767	0	0
2024-09-03 12:44:47			0	37955	0	0	0	29012	27580	153747	27074	1079467	47062	110785	0	0	8114	543882	0	0
2024-09-03 12:45:47			0	37935	0	0	0	29018	27580	153827	27109	1079575	47051	110787	0	0	8113	544652	0	0
2024-09-03 12:46:47			0	37936	0	0	0	29012	27580	153787	26894	1079485	47073	110785	0	0	8113	544613	0	0
2024-09-03 12:47:47			0	37955	0	0	0	29012	27600	153655	27563	1079468	47076	110785	0	0	8114	543819	0	0
2024-09-03 12:48:47			0	37952	0	0	0	29015	27580	153727	27254	1079494	47074	110786	0	0	8114	543997	0	0
2024-09-03 12:49:47			0	37956	0	0	0	29020	27580	153723	27241	1079467	47084	110788	0	0	8114	543843	0	0
2024-09-03 12:50:47			0	37957	0	0	0	29018	27590	153743	27007	1079503	47051	110787	0	0	8114	543774	0	0
2024-09-03 12:51:47			0	37971	0	0	0	29012	27590	153675	26908	1079566	47075	110785	0	0	8115	543235	0	0
2024-09-03 12:52:47			0	37960	0	0	0	29020	27590	153683	27189	1079566	47096	110788	0	0	8114	543658	0	0
2024-09-03 12:53:47			0	37969	0	0	0	29023	27600	153739	27348	1079575	47076	110789	0	0	8115	543281	0	0
2024-09-03 12:54:47			0	37958	0	0	0	29033	27590	153739	27183	1079593	47085	110793	0	0	8114	543735	0	0
2024-09-03 12:55:47			0	37952	0	0	0	29036	27610	153775	27393	1079621	47086	110794	0	0	8113	543903	0	0
2024-09-03 12:56:47			0	37967	0	0	0	29041	27600	153747	27256	1079629	47076	110796	0	0	8114	543358	0	0
2024-09-03 12:57:47			0	37957	0	0	0	29044	27610	153743	27024	1079674	47064	110797	0	0	8114	543711	0	0
2024-09-03 12:58:47			0	37959	0	0	0	29062	27610	153819	27001	1079710	47087	110804	0	0	8113	543634	0	0
2024-09-03 12:59:47			0	37963	0	0	0	29098	27620	153719	27234	1079719	47088	110818	0	0	8113	543449	0	0
2024-09-03 13:00:47			0	37971	0	0	0	29093	27630	153659	27166	1079845	47100	110816	0	0	8114	543110	0	0
2024-09-03 13:01:47			0	37962	0	0	0	29077	27640	153715	27159	1079900	47101	110810	0	0	8114	543425	0	0
2024-09-03 13:02:47			0	37976	0	0	0	29057	27650	153719	27390	1079855	47091	110802	0	0	8115	542856	0	0
2024-09-03 13:03:47			0	37974	0	0	0	29059	27640	153571	27365	1079846	47057	110803	0	0	8115	542964	0	0
2024-09-03 13:04:47			0	37990	0	0	0	29036	27650	153467	27107	1079855	47091	110794	0	0	8116	542318	0	0
2024-09-03 13:05:47			0	38008	0	0	0	29031	27650	153579	27036	1079774	47069	110792	0	0	8117	541627	0	0
2024-09-03 13:06:47			0	38001	0	0	0	29033	27640	153495	27170	1079810	47068	110793	0	0	8117	541927	0	0
2024-09-03 13:07:47			0	38010	0	0	0	29041	27640	153527	27289	1079738	47068	110796	0	0	8117	541582	0	0
2024-09-03 13:08:47			0	38009	0	0	0	29046	27640	153619	27390	1079738	47035	110798	0	0	8117	541620	0	0
2024-09-03 13:09:47			0	37988	0	0	0	29064	27620	153583	27407	1079729	47066	110805	0	0	8115	542488	0	0
2024-09-03 13:10:47			0	37986	0	0	0	29057	27630	153683	26842	1079711	47067	110802	0	0	8115	542534	0	0
2024-09-03 13:11:47			0	37977	0	0	0	29059	27630	153667	27440	1079720	47079	110803	0	0	8115	542880	0	0
2024-09-03 13:12:47			0	37971	0	0	0	29062	27630	153739	27289	1079818	47089	110804	0	0	8114	543110	0	0
2024-09-03 13:13:47			0	37958	0	0	0	29075	27650	153619	27505	1079801	47081	110809	0	0	8113	543547	0	0
2024-09-03 13:14:47			0	37937	0	0	0	29080	27660	153767	27443	1079927	47082	110811	0	0	8112	544324	0	0
2024-09-03 13:15:47			0	37947	0	0	0	29075	27660	153723	27112	1079954	47082	110809	0	0	8113	543939	0	0
2024-09-03 13:16:47			0	37939	0	0	0	29067	27650	153735	27313	1079891	47069	110806	0	0	8112	544278	0	0
2024-09-03 13:17:47			0	37944	0	0	0	29083	27660	153763	27261	1079856	47071	110812	0	0	8112	544055	0	0
2024-09-03 13:18:47			0	37940	0	0	0	29093	27650	153771	27402	1079945	47069	110816	0	0	8112	544240	0	0
2024-09-03 13:19:47			0	37929	0	0	0	29106	27660	153767	27111	1079954	47082	110821	0	0	8111	544632	0	0
2024-09-03 13:20:47			0	37930	0	0	0	29106	27670	153795	27213	1079955	47083	110821	0	0	8111	544562	0	0
2024-09-03 13:21:47			0	37944	0	0	0	29119	27670	153807	27222	1079982	47093	110826	0	0	8112	544023	0	0
2024-09-03 13:22:47			0	37950	0	0	0	29137	27680	153659	27088	1080018	47083	110833	0	0	8112	543761	0	0
2024-09-03 13:23:47			0	37940	0	0	0	29140	27680	153815	27324	1080027	47095	110834	0	0	8111	544146	0	0
2024-09-03 13:24:47			0	37964	0	0	0	29135	27690	153635	26965	1080143	47095	110832	0	0	8113	543192	0	0
2024-09-03 13:25:47			0	37957	0	0	0	29135	27690	153587	27033	1080116	47084	110832	0	0	8112	543461	0	0
2024-09-03 13:26:47			0	37965	0	0	0	29137	27690	153635	26944	1080063	47095	110833	0	0	8113	543153	0	0
2024-09-03 13:27:47			0	37960	0	0	0	29142	27700	153523	27241	1080108	47085	110835	0	0	8113	543314	0	0
2024-09-03 13:28:47			0	37966	0	0	0	29142	27700	153559	27133	1080144	47108	110835	0	0	8113	543084	0	0
2024-09-03 13:29:47			0	37987	0	0	0	29150	27710	153399	27315	1080234	47108	110838	0	0	8114	542246	0	0
2024-09-03 13:30:47			0	37994	0	0	0	29163	27720	153475	27369	1080306	47087	110843	0	0	8114	541946	0	0
2024-09-03 13:31:47			0	38011	0	0	0	29150	27710	153279	27159	1080270	47087	110838	0	0	8115	541325	0	0
2024-09-03 13:32:47			0	38036	0	0	0	29161	27720	153304	27244	1080306	47098	110842	0	0	8117	540336	0	0
2024-09-03 13:33:47			0	38051	0	0	0	29168	27720	153224	27088	1080342	47088	110845	0	0	8117	539761	0	0
2024-09-03 13:34:47			0	38045	0	0	0	29171	27740	153196	27256	1080288	47078	110846	0	0	8117	539929	0	0
2024-09-03 13:35:47			0	38048	0	0	0	29176	27740	153180	27251	1080351	47079	110848	0	0	8117	539814	0	0
2024-09-03 13:36:47			0	38056	0	0	0	29171	27750	153160	27410	1080360	47091	110846	0	0	8118	539477	0	0
2024-09-03 13:37:47			0	38052	0	0	0	29163	27740	153048	27130	1080324	47079	110843	0	0	8118	539661	0	0
2024-09-03 13:38:47			0	38064	0	0	0	29176	27750	152968	27360	1080360	47091	110848	0	0	8118	539171	0	0
2024-09-03 13:39:47			0	38065	0	0	0	29184	27750	153032	27230	1080423	47091	110851	0	0	8118	539133	0	0
2024-09-03 13:40:47			0	38063	0	0	0	29194	27750	153020	27133	1080441	47091	110855	0	0	8118	539209	0	0
2024-09-03 13:41:47			0	38068	0	0	0	29199	27760	153012	27436	1080432	47091	110857	0	0	8118	538987	0	0
2024-09-03 13:42:47			0	38083	0	0	0	29202	27760	153044	27377	1080495	47092	110858	0	0	8119	538413	0	0
2024-09-03 13:43:47			0	38077	0	0	0	29223	27770	152968	27372	1080477	47093	110866	0	0	8118	538612	0	0
2024-09-03 13:44:47			0	38067	0	0	0	29231	27770	153004	27263	1080567	47093	110869	0	0	8118	538994	0	0
2024-09-03 13:45:47			0	38060	0	0	0	29228	27780	153116	27291	1080549	47093	110868	0	0	8117	539231	0	0
2024-09-03 13:46:47			0	38072	0	0	0	29228	27780	152944	27364	1080640	47083	110868	0	0	8118	538772	0	0
2024-09-03 13:47:47			0	38061	0	0	0	29218	27790	153088	27479	1080622	47106	110864	0	0	8118	539161	0	0
2024-09-03 13:48:47			0	38086	0	0	0	29223	27780	152960	27445	1080505	47117	110866	0	0	8119	538237	0	0
2024-09-03 13:49:47			0	38082	0	0	0	29238	27790	152916	27357	1080631	47074	110872	0	0	8118	538358	0	0
2024-09-03 13:50:47			0	38127	0	0	0	29244	27790	152888	27220	1080685	47096	110874	0	0	8121	536641	0	0
2024-09-03 13:51:47			0	38123	0	0	0	29270	27810	152860	27296	1080685	47120	110884	0	0	8120	536732	0	0
2024-09-03 13:52:47			0	38134	0	0	0	29290	27810	152908	26920	1080766	47108	110892	0	0	8121	536312	0	0
2024-09-03 13:53:47			0	38153	0	0	0	29296	27820	152760	27088	1080829	47121	110894	0	0	8122	535557	0	0
2024-09-03 13:54:47			0	38160	0	0	0	29296	27830	152924	26859	1080793	47098	110894	0	0	8122	535260	0	0
2024-09-03 13:55:47			0	38163	0	0	0	29285	27840	152800	27048	1080865	47123	110890	0	0	8122	535115	0	0
2024-09-03 13:56:47			0	38163	0	0	0	29298	27840	152776	27239	1080928	47123	110895	0	0	8122	535115	0	0
2024-09-03 13:57:47			0	38169	0	0	0	29296	27840	152664	27414	1080982	47111	110894	0	0	8123	534887	0	0
2024-09-03 13:58:47			0	38202	0	0	0	29236	27850	152792	27145	1080964	47111	110871	0	0	8126	533601	0	0
2024-09-03 13:59:47			0	38205	0	0	0	29244	27860	152640	27213	1080911	47103	110874	0	0	8126	533457	0	0
2024-09-03 14:00:47			0	38224	0	0	0	29238	27860	152408	27346	1080874	47091	110872	0	0	8127	532735	0	0
2024-09-03 14:01:47			0	38236	0	0	0	29241	27860	152396	27083	1080901	47102	110873	0	0	8128	532280	0	0
2024-09-03 14:02:47			0	38235	0	0	0	29244	27850	152516	27336	1080892	47079	110874	0	0	8127	532349	0	0
2024-09-03 14:03:47			0	38257	0	0	0	29262	27850	152284	26930	1080892	47101	110881	0	0	8128	531514	0	0
2024-09-03 14:04:47			0	38261	0	0	0	29267	27860	152352	26991	1080928	47102	110883	0	0	8129	531332	0	0
2024-09-03 14:05:47			0	38259	0	0	0	29259	27860	152300	27154	1080901	47091	110880	0	0	8129	531408	0	0
2024-09-03 14:06:47			0	38273	0	0	0	29264	27860	152260	27409	1080955	47080	110882	0	0	8129	530878	0	0
2024-09-03 14:07:47			0	38250	0	0	0	29272	27860	152244	27140	1080928	47102	110885	0	0	8128	531749	0	0
2024-09-03 14:08:47			0	38257	0	0	0	29272	27860	152268	27076	1080901	47091	110885	0	0	8128	531484	0	0
2024-09-03 14:09:47			0	38266	0	0	0	29290	27860	152212	27062	1080964	47103	110892	0	0	8128	531143	0	0
2024-09-03 14:10:47			0	38281	0	0	0	29293	27860	152176	26939	1081045	47103	110893	0	0	8129	530575	0	0
2024-09-03 14:11:47			0	38276	0	0	0	29288	27870	152200	27109	1081036	47114	110891	0	0	8129	530733	0	0
2024-09-03 14:12:47			0	38283	0	0	0	29290	27880	152156	27066	1081046	47082	110892	0	0	8129	530438	0	0
2024-09-03 14:13:47			0	38280	0	0	0	29288	27880	152092	27173	1081081	47094	110891	0	0	8129	530551	0	0
2024-09-03 14:14:47			0	38261	0	0	0	29275	27880	152208	27279	1081046	47115	110886	0	0	8128	531271	0	0
2024-09-03 14:15:47			0	38302	0	0	0	29280	27890	152212	27052	1081100	47105	110888	0	0	8131	529689	0	0
2024-09-03 14:16:47			0	38297	0	0	0	29303	27890	151980	27415	1081046	47094	110897	0	0	8130	529878	0	0
2024-09-03 14:17:47			0	38305	0	0	0	29290	27890	152044	27358	1081207	47094	110892	0	0	8131	529575	0	0
2024-09-03 14:18:47			0	38293	0	0	0	29290	27890	152100	27505	1081118	47083	110892	0	0	8130	530029	0	0
2024-09-03 14:19:47			0	38279	0	0	0	29283	27890	152160	27397	1081118	47105	110889	0	0	8129	530559	0	0
2024-09-03 14:20:47			0	38283	0	0	0	29309	27890	152084	27279	1081154	47094	110899	0	0	8129	530407	0	0
2024-09-03 14:21:47			0	38296	0	0	0	29324	27890	152132	27358	1081207	47094	110905	0	0	8130	529915	0	0
2024-09-03 14:22:47			0	38313	0	0	0	29322	27900	152116	27183	1081226	47118	110904	0	0	8131	529242	0	0
2024-09-03 14:23:47			0	38281	0	0	0	29340	27910	152084	27381	1081235	47118	110911	0	0	8129	530422	0	0
2024-09-03 14:24:47			0	38290	0	0	0	29366	27900	152044	27060	1081253	47107	110921	0	0	8129	530112	0	0
2024-09-03 14:25:47			0	38281	0	0	0	29397	27910	152112	26939	1081352	47107	110933	0	0	8128	530422	0	0
2024-09-03 14:26:47			0	38288	0	0	0	29399	27930	152164	27336	1081406	47099	110934	0	0	8128	530096	0	0
2024-09-03 14:27:47			0	38291	0	0	0	29412	27940	152156	27287	1081478	47099	110939	0	0	8128	529952	0	0
2024-09-03 14:28:47			0	38295	0	0	0	29363	27940	151992	27121	1081451	47110	110920	0	0	8129	529801	0	0
2024-09-03 14:29:47			0	38321	0	0	0	29329	27950	151892	27263	1081523	47101	110907	0	0	8131	528787	0	0
2024-09-03 14:30:47			0	38330	0	0	0	29345	27950	151888	27365	1081416	47089	110913	0	0	8132	528447	0	0
2024-09-03 14:31:47			0	38343	0	0	0	29348	27940	151736	27235	1081433	47088	110914	0	0	8132	527987	0	0
2024-09-03 14:32:47			0	38360	0	0	0	29374	27950	151784	27234	1081496	47101	110924	0	0	8133	527316	0	0
2024-09-03 14:33:47			0	38363	0	0	0	29361	27950	151780	27485	1081505	47101	110919	0	0	8133	527203	0	0
2024-09-03 14:34:47			0	38372	0	0	0	29348	27960	151768	27524	1081488	47089	110914	0	0	8134	526833	0	0
2024-09-03 14:35:47			0	38359	0	0	0	29358	27950	151776	27159	1081505	47123	110918	0	0	8133	527353	0	0
2024-09-03 14:36:47			0	38361	0	0	0	29371	27960	151752	27327	1081488	47101	110923	0	0	8133	527247	0	0
2024-09-03 14:37:47			0	38356	0	0	0	29371	27960	151696	27185	1081577	47113	110923	0	0	8133	527436	0	0
2024-09-03 14:38:47			0	38377	0	0	0	29374	27980	151748	27312	1081605	47103	110924	0	0	8134	526584	0	0
2024-09-03 14:39:47			0	38348	0	0	0	29361	27980	151748	27046	1081641	47092	110919	0	0	8132	527677	0	0
2024-09-03 14:40:47			0	38353	0	0	0	29348	27980	151708	26963	1081578	47103	110914	0	0	8133	527488	0	0
2024-09-03 14:41:47			0	38366	0	0	0	29366	27980	151728	27182	1081668	47092	110921	0	0	8133	526998	0	0
2024-09-03 14:42:47			0	38368	0	0	0	29355	27980	151748	27175	1081578	47114	110917	0	0	8134	526923	0	0
2024-09-03 14:43:47			0	38367	0	0	0	29350	27990	151632	26838	1081677	47116	110915	0	0	8134	526930	0	0
2024-09-03 14:44:47			0	38374	0	0	0	29418	27990	151672	27145	1081677	47105	110941	0	0	8133	526666	0	0
2024-09-03 14:45:47			0	38360	0	0	0	29376	28010	151664	27170	1081767	47118	110925	0	0	8133	527133	0	0
2024-09-03 14:46:47			0	38353	0	0	0	29366	28000	151672	27111	1081812	47117	110921	0	0	8133	527427	0	0
2024-09-03 14:47:47			0	38343	0	0	0	29397	28010	151772	27177	1081830	47130	110933	0	0	8132	527774	0	0
2024-09-03 14:48:47			0	38356	0	0	0	29376	28010	151776	27319	1081821	47107	110925	0	0	8133	527284	0	0
2024-09-03 14:49:47			0	38365	0	0	0	29374	28020	151660	27344	1081875	47119	110924	0	0	8133	526914	0	0
2024-09-03 14:50:47			0	38356	0	0	0	29371	28020	151684	27254	1081821	47119	110923	0	0	8133	527254	0	0
2024-09-03 14:51:47			0	38344	0	0	0	29371	28020	151692	27261	1081848	47085	110923	0	0	8132	527706	0	0
2024-09-03 14:52:47			0	38361	0	0	0	29374	28020	151652	27055	1081767	47108	110924	0	0	8133	527065	0	0
2024-09-03 14:53:47			0	38358	0	0	0	29386	28010	151748	27319	1081776	47096	110929	0	0	8133	527208	0	0
2024-09-03 14:54:47			0	38353	0	0	0	29379	28020	151704	26928	1081785	47096	110926	0	0	8133	527367	0	0
2024-09-03 14:55:47			0	38353	0	0	0	29361	28010	151696	27319	1081713	47095	110919	0	0	8133	527397	0	0
2024-09-03 14:56:47			0	38352	0	0	0	29361	28010	151748	27173	1081776	47096	110919	0	0	8133	527435	0	0
2024-09-03 14:57:47			0	38350	0	0	0	29363	28010	151684	27131	1081776	47085	110920	0	0	8133	527510	0	0
2024-09-03 14:58:47			0	38337	0	0	0	29358	28020	151724	27197	1081731	47096	110918	0	0	8132	527970	0	0
2024-09-03 14:59:47			0	38327	0	0	0	29371	28010	151784	27235	1081713	47095	110923	0	0	8131	528378	0	0
2024-09-03 15:00:47			0	38323	0	0	0	29402	28010	151920	27364	1081740	47107	110935	0	0	8130	528529	0	0
2024-09-03 15:01:47			0	38307	0	0	0	29410	28020	151820	27189	1081839	47108	110938	0	0	8129	529103	0	0
2024-09-03 15:02:47			0	38304	0	0	0	29428	28010	151884	26908	1081857	47108	110945	0	0	8129	529246	0	0
2024-09-03 15:03:47			0	38307	0	0	0	29415	28020	151924	27072	1081866	47119	110940	0	0	8129	529103	0	0
2024-09-03 15:04:47			0	38288	0	0	0	29428	28020	151852	27038	1081929	47130	110945	0	0	8128	529821	0	0
2024-09-03 15:05:47			0	38292	0	0	0	29423	28030	151896	27364	1081921	47110	110943	0	0	8128	529639	0	0
2024-09-03 15:06:47			0	38324	0	0	0	29436	28040	151888	27215	1081993	47110	110948	0	0	8130	528400	0	0
2024-09-03 15:07:47			0	38337	0	0	0	29475	28040	151940	27319	1082038	47132	110963	0	0	8130	527909	0	0
2024-09-03 15:08:47			0	38334	0	0	0	29511	28050	151800	27372	1082200	47123	110977	0	0	8129	527992	0	0
2024-09-03 15:09:47			0	38352	0	0	0	29519	28070	151812	27071	1082227	47124	110980	0	0	8130	527252	0	0
2024-09-03 15:10:47			0	38391	0	0	0	29485	28070	151588	27272	1082236	47136	110967	0	0	8133	525783	0	0
2024-09-03 15:11:47			0	38424	0	0	0	29475	28090	151480	27190	1082290	47125	110963	0	0	8135	524482	0	0
2024-09-03 15:12:47			0	38437	0	0	0	29532	28100	151376	27367	1082254	47127	110985	0	0	8135	523964	0	0
2024-09-03 15:13:47			0	38455	0	0	0	29581	28110	151340	27126	1082398	47117	111004	0	0	8135	523258	0	0
2024-09-03 15:14:47			0	38465	0	0	0	29615	28110	151324	27211	1082515	47140	111017	0	0	8135	522883	0	0
2024-09-03 15:15:47			0	38562	0	0	0	29625	28140	151012	27454	1082615	47130	111021	0	0	8141	519164	0	0
2024-09-03 15:16:47			0	38689	0	0	0	29586	28140	150468	27649	1082570	47131	111006	0	0	8149	514436	0	0
2024-09-03 15:17:47			0	38745	0	0	0	29615	28150	150125	27178	1082642	47144	111017	0	0	8152	512330	0	0
2024-09-03 15:18:47			0	38793	0	0	0	29636	28160	150045	27334	1082651	47132	111025	0	0	8154	510525	0	0
2024-09-03 15:19:47			0	38811	0	0	0	29636	28160	149921	27388	1082741	47133	111025	0	0	8155	509860	0	0
2024-09-03 15:20:47			0	38871	0	0	0	29649	28170	149753	27220	1082706	47134	111030	0	0	8158	507618	0	0
2024-09-03 15:21:47			0	38920	0	0	0	29636	28180	149385	27355	1082805	47135	111025	0	0	8161	505786	0	0
2024-09-03 15:22:47			0	38948	0	0	0	29631	28180	149285	27190	1082778	47158	111023	0	0	8163	504758	0	0
2024-09-03 15:23:47			0	38994	0	0	0	29644	28190	149161	27168	1082814	47135	111028	0	0	8165	503042	0	0
2024-09-03 15:24:47			0	39037	0	0	0	29644	28200	149101	27045	1082805	47137	111028	0	0	8168	501440	0	0
2024-09-03 15:25:47			0	39038	0	0	0	29646	28210	148993	27057	1082931	47138	111029	0	0	8168	501374	0	0
2024-09-03 15:26:47			0	39058	0	0	0	29651	28210	148829	27412	1082877	47138	111031	0	0	8169	500644	0	0
2024-09-03 15:27:47			0	39096	0	0	0	29662	28210	148797	27239	1082913	47138	111035	0	0	8171	499257	0	0
2024-09-03 15:28:47			0	39105	0	0	0	29651	28220	148713	27001	1082949	47151	111031	0	0	8172	498900	0	0
2024-09-03 15:29:47			0	39128	0	0	0	29651	28220	148721	27095	1082985	47118	111031	0	0	8173	498062	0	0
2024-09-03 15:30:47			0	39122	0	0	0	29659	28220	148617	27020	1082985	47151	111034	0	0	8173	498281	0	0
2024-09-03 15:31:47			0	39126	0	0	0	29633	28230	148573	27199	1082940	47119	111024	0	0	8173	498106	0	0
2024-09-03 15:32:47			0	39148	0	0	0	29638	28230	148541	27296	1082994	47119	111026	0	0	8175	497306	0	0
2024-09-03 15:33:47			0	39120	0	0	0	29610	28240	148597	26996	1083013	47130	111015	0	0	8173	498296	0	0
2024-09-03 15:34:47			0	39115	0	0	0	29599	28240	148665	27168	1083022	47109	111011	0	0	8173	498478	0	0
2024-09-03 15:35:47			0	39076	0	0	0	29589	28230	148705	27118	1082913	47119	111007	0	0	8171	499929	0	0
2024-09-03 15:36:47			0	39004	0	0	0	29625	28220	149001	27274	1082877	47139	111021	0	0	8167	502589	0	0
2024-09-03 15:37:47			0	38945	0	0	0	29615	28240	149221	26963	1082932	47130	111017	0	0	8163	504693	0	0
2024-09-03 15:38:47			0	38934	0	0	0	29602	28230	149365	26955	1082842	47119	111012	0	0	8163	505126	0	0
2024-09-03 15:39:47			0	38883	0	0	0	29592	28240	149457	27145	1082932	47130	111008	0	0	8160	506971	0	0
2024-09-03 15:40:47			0	38880	0	0	0	29592	28220	149601	27208	1082904	47128	111008	0	0	8160	507140	0	0
2024-09-03 15:41:47			0	38848	0	0	0	29586	28220	149693	27235	1082931	47118	111006	0	0	8158	508318	0	0
2024-09-03 15:42:47			0	38790	0	0	0	29579	28220	149669	27105	1082877	47118	111003	0	0	8155	510458	0	0
2024-09-03 15:43:47			0	38756	0	0	0	29602	28230	149977	27298	1082886	47119	111012	0	0	8153	511686	0	0
2024-09-03 15:44:47			0	38798	0	0	0	29623	28230	149797	26955	1082896	47119	111020	0	0	8155	510133	0	0
2024-09-03 15:45:47			0	38795	0	0	0	29633	28230	149845	27313	1082940	47129	111024	0	0	8155	510244	0	0
2024-09-03 15:46:47			0	38787	0	0	0	29610	28240	149881	27196	1082941	47121	111015	0	0	8155	510510	0	0
2024-09-03 15:47:47			0	38819	0	0	0	29605	28240	149889	27171	1082905	47130	111013	0	0	8156	509329	0	0
2024-09-03 15:48:47			0	38820	0	0	0	29612	28240	149677	27095	1082968	47121	111016	0	0	8156	509292	0	0
2024-09-03 15:49:47			0	38804	0	0	0	29610	28230	149773	27107	1082940	47129	111015	0	0	8155	509912	0	0
2024-09-03 15:50:47			0	38813	0	0	0	29597	28240	149885	27055	1082905	47120	111010	0	0	8156	509550	0	0
2024-09-03 15:51:47			0	38791	0	0	0	29589	28240	149845	27010	1082932	47108	111007	0	0	8155	510363	0	0
2024-09-03 15:52:47			0	38779	0	0	0	29605	28230	149913	27072	1082833	47129	111013	0	0	8154	510836	0	0
2024-09-03 15:53:47			0	38769	0	0	0	29605	28220	149973	27208	1082931	47118	111013	0	0	8153	511235	0	0
2024-09-03 15:54:47			0	38741	0	0	0	29612	28230	150021	27384	1082950	47129	111016	0	0	8152	512241	0	0
2024-09-03 15:55:47			0	38761	0	0	0	29636	28230	150045	27322	1083030	47140	111025	0	0	8153	511501	0	0
2024-09-03 15:56:47			0	38815	0	0	0	29670	28250	149781	27150	1083085	47142	111038	0	0	8155	509447	0	0
2024-09-03 15:57:47			0	38848	0	0	0	29628	28250	149597	27026	1083085	47131	111022	0	0	8158	508230	0	0
2024-09-03 15:58:47			0	38859	0	0	0	29628	28260	149569	27310	1083076	47122	111022	0	0	8158	507796	0	0
2024-09-03 15:59:47			0	38860	0	0	0	29654	28250	149617	27079	1083058	47154	111032	0	0	8158	507788	0	0
2024-09-03 16:00:47			0	38827	0	0	0	29610	28250	149649	27253	1083121	47142	111015	0	0	8157	509004	0	0
2024-09-03 16:01:47			0	38838	0	0	0	29605	28250	149725	27284	1083094	47131	111013	0	0	8158	508599	0	0
2024-09-03 16:02:47			0	38783	0	0	0	29568	28260	149693	26998	1083076	47122	110999	0	0	8155	510599	0	0
2024-09-03 16:03:47			0	38761	0	0	0	29532	28260	149969	26847	1082941	47122	110985	0	0	8154	511412	0	0
2024-09-03 16:04:47			0	38706	0	0	0	29524	28240	149972	27267	1082779	47086	110982	0	0	8151	513508	0	0
2024-09-03 16:05:47			0	38666	0	0	0	29522	28220	150204	26786	1082689	47106	110981	0	0	8149	515052	0	0
2024-09-03 16:06:47			0	38623	0	0	0	29527	28200	150392	26993	1082652	47093	110983	0	0	8146	516710	0	0
2024-09-03 16:07:47			0	38590	0	0	0	29563	28220	150488	27474	1082707	47106	110997	0	0	8144	517880	0	0
2024-09-03 16:08:47			0	38617	0	0	0	29592	28210	150480	26925	1082724	47105	111008	0	0	8145	516904	0	0
2024-09-03 16:09:47			0	38635	0	0	0	29597	28200	150500	27189	1082778	47126	111010	0	0	8146	516264	0	0
2024-09-03 16:10:47			0	38656	0	0	0	29597	28210	150248	27201	1082859	47150	111010	0	0	8147	515453	0	0
2024-09-03 16:11:47			0	38680	0	0	0	29618	28220	150228	27130	1082868	47139	111018	0	0	8148	514532	0	0
2024-09-03 16:12:47			0	38677	0	0	0	29576	28220	150184	27220	1082895	47139	111002	0	0	8149	514644	0	0
2024-09-03 16:13:47			0	38668	0	0	0	29586	28230	150256	27190	1082950	47152	111006	0	0	8148	514948	0	0
2024-09-03 16:14:47			0	38654	0	0	0	29568	28230	150296	27131	1082923	47140	110999	0	0	8148	515468	0	0
2024-09-03 16:15:47			0	38634	0	0	0	29548	28230	150380	26982	1082923	47140	110991	0	0	8147	516212	0	0
2024-09-03 16:16:47			0	38635	0	0	0	29524	28230	150392	26987	1082923	47119	110982	0	0	8147	516175	0	0
2024-09-03 16:17:47			0	38612	0	0	0	29503	28230	150476	27045	1082833	47119	110974	0	0	8146	517030	0	0
2024-09-03 16:18:47			0	38591	0	0	0	29519	28210	150576	26944	1082698	47127	110980	0	0	8145	517872	0	0
2024-09-03 16:19:47			0	38574	0	0	0	29571	28220	150676	27123	1082824	47083	111000	0	0	8143	518476	0	0
2024-09-03 16:20:47			0	38550	0	0	0	29553	28210	150596	27090	1082778	47105	110993	0	0	8142	519402	0	0
2024-09-03 16:21:47			0	38555	0	0	0	29509	28210	150572	27253	1082751	47105	110976	0	0	8143	519215	0	0
2024-09-03 16:22:47			0	38568	0	0	0	29553	28190	150612	27114	1082688	47125	110993	0	0	8143	518790	0	0
2024-09-03 16:23:47			0	38569	0	0	0	29516	28200	150712	27137	1082760	47116	110979	0	0	8143	518723	0	0
2024-09-03 16:24:47			0	38567	0	0	0	29532	28200	150684	27012	1082697	47093	110985	0	0	8143	518797	0	0
2024-09-03 16:25:47			0	38585	0	0	0	29485	28190	150592	27097	1082634	47092	110967	0	0	8145	518156	0	0
2024-09-03 16:26:47			0	38544	0	0	0	29493	28180	150596	27170	1082616	47114	110970	0	0	8142	519716	0	0
2024-09-03 16:27:47			0	38520	0	0	0	29498	28180	150648	26902	1082589	47091	110972	0	0	8141	520613	0	0
2024-09-03 16:28:47			0	38548	0	0	0	29516	28180	150704	27277	1082607	47102	110979	0	0	8142	519566	0	0
2024-09-03 16:29:47			0	38553	0	0	0	29527	28170	150632	27085	1082535	47112	110983	0	0	8142	519410	0	0
2024-09-03 16:30:47			0	38565	0	0	0	29519	28180	150684	27197	1082607	47114	110980	0	0	8143	518932	0	0
2024-09-03 16:31:47			0	38578	0	0	0	29472	28180	150640	27300	1082553	47125	110962	0	0	8145	518447	0	0
2024-09-03 16:32:47			0	38613	0	0	0	29446	28170	150508	27126	1082508	47089	110952	0	0	8147	517172	0	0
2024-09-03 16:33:47			0	38577	0	0	0	29503	28160	150604	27111	1082490	47088	110974	0	0	8144	518544	0	0
2024-09-03 16:34:47			0	38594	0	0	0	29561	28150	150580	27279	1082507	47099	110996	0	0	8144	517940	0	0
2024-09-03 16:35:47			0	38611	0	0	0	29553	28160	150424	27206	1082526	47100	110993	0	0	8145	517277	0	0
2024-09-03 16:36:47			0	38663	0	0	0	29553	28160	150300	27074	1082570	47132	110993	0	0	8148	515342	0	0
2024-09-03 16:37:47			0	38688	0	0	0	29563	28160	150172	27239	1082570	47132	110997	0	0	8149	514413	0	0
2024-09-03 16:38:47			0	38737	0	0	0	29540	28160	150041	26769	1082570	47122	110988	0	0	8152	512596	0	0
2024-09-03 16:39:47			0	38735	0	0	0	29519	28160	149973	26961	1082570	47111	110980	0	0	8153	512670	0	0
2024-09-03 16:40:47			0	38740	0	0	0	29522	28160	149937	27215	1082517	47132	110981	0	0	8153	512485	0	0
2024-09-03 16:41:47			0	38753	0	0	0	29537	28150	150009	27232	1082480	47111	110987	0	0	8153	512034	0	0
2024-09-03 16:42:47			0	38727	0	0	0	29548	28150	150069	27059	1082525	47121	110991	0	0	8152	512996	0	0
2024-09-03 16:43:47			0	38727	0	0	0	29550	28160	150061	27026	1082543	47099	110992	0	0	8152	512967	0	0
2024-09-03 16:44:47			0	38734	0	0	0	29548	28160	150061	26889	1082597	47111	110991	0	0	8152	512708	0	0
2024-09-03 16:45:47			0	38751	0	0	0	29524	28160	150089	26823	1082570	47111	110982	0	0	8154	512078	0	0
2024-09-03 16:46:47			0	38734	0	0	0	29529	28150	150001	27015	1082561	47111	110984	0	0	8152	512737	0	0
2024-09-03 16:47:47			0	38720	0	0	0	29529	28160	150056	26930	1082517	47132	110984	0	0	8152	513226	0	0
2024-09-03 16:48:47			0	38712	0	0	0	29496	28150	150192	27097	1082471	47109	110971	0	0	8152	513553	0	0
2024-09-03 16:49:47			0	38664	0	0	0	29558	28150	150268	27293	1082471	47098	110995	0	0	8148	515335	0	0
2024-09-03 16:50:47			0	38667	0	0	0	29545	28150	150320	27272	1082498	47131	110990	0	0	8148	515223	0	0
2024-09-03 16:51:47			0	38686	0	0	0	29558	28150	150216	27166	1082561	47122	110995	0	0	8149	514517	0	0
2024-09-03 16:52:47			0	38693	0	0	0	29571	28150	150176	27098	1082534	47122	111000	0	0	8149	514258	0	0
2024-09-03 16:53:47			0	38708	0	0	0	29571	28150	150076	27142	1082588	47111	111000	0	0	8150	513701	0	0
2024-09-03 16:54:47			0	38755	0	0	0	29568	28160	150061	27395	1082570	47122	110999	0	0	8153	511930	0	0
2024-09-03 16:55:47			0	38733	0	0	0	29579	28160	150033	27300	1082633	47133	111003	0	0	8152	512744	0	0
2024-09-03 16:56:47			0	38749	0	0	0	29558	28150	149909	27166	1082615	47132	110995	0	0	8153	512181	0	0
2024-09-03 16:57:47			0	38768	0	0	0	29516	28160	149957	27131	1082624	47132	110979	0	0	8155	511449	0	0
2024-09-03 16:58:47			0	38734	0	0	0	29516	28170	149977	27038	1082643	47145	110979	0	0	8153	512678	0	0
2024-09-03 16:59:47			0	38711	0	0	0	29555	28160	150144	27008	1082553	47133	110994	0	0	8151	513560	0	0
2024-09-03 17:00:47			0	38710	0	0	0	29579	28170	150232	27230	1082643	47133	111003	0	0	8150	513567	0	0
2024-09-03 17:01:47			0	38725	0	0	0	29579	28160	150128	27201	1082570	47132	111003	0	0	8151	513041	0	0
2024-09-03 17:02:47			0	38736	0	0	0	29571	28160	149961	26868	1082651	47144	111000	0	0	8152	512633	0	0
2024-09-03 17:03:47			0	38752	0	0	0	29568	28170	150005	27124	1082669	47133	110999	0	0	8153	512011	0	0
2024-09-03 17:04:47			0	38745	0	0	0	29584	28160	149941	26830	1082633	47123	111005	0	0	8152	512300	0	0
2024-09-03 17:05:47			0	38746	0	0	0	29581	28170	149997	26847	1082643	47133	111004	0	0	8152	512234	0	0
2024-09-03 17:06:47			0	38760	0	0	0	29599	28170	149913	27208	1082669	47133	111011	0	0	8153	511715	0	0
2024-09-03 17:07:47			0	38798	0	0	0	29615	28170	149789	26951	1082696	47145	111017	0	0	8155	510310	0	0
2024-09-03 17:08:47			0	38824	0	0	0	29623	28180	149721	27293	1082769	47135	111020	0	0	8156	509321	0	0
2024-09-03 17:09:47			0	38837	0	0	0	29615	28180	149625	27111	1082742	47147	111017	0	0	8157	508841	0	0
2024-09-03 17:10:47			0	38883	0	0	0	29618	28190	149577	27055	1082814	47135	111018	0	0	8160	507117	0	0
2024-09-03 17:11:47			0	38880	0	0	0	29602	28190	149417	26961	1082850	47125	111012	0	0	8160	507228	0	0
2024-09-03 17:12:47			0	38879	0	0	0	29599	28190	149465	26991	1082787	47125	111011	0	0	8160	507265	0	0
2024-09-03 17:13:47			0	38875	0	0	0	29597	28190	149561	26838	1082760	47135	111010	0	0	8160	507412	0	0
2024-09-03 17:14:47			0	38842	0	0	0	29589	28180	149529	27182	1082805	47135	111007	0	0	8158	508657	0	0
2024-09-03 17:15:47			0	38841	0	0	0	29586	28190	149557	27072	1082841	47125	111006	0	0	8158	508665	0	0
2024-09-03 17:16:47			0	38831	0	0	0	29594	28190	149749	27270	1082760	47125	111009	0	0	8157	509033	0	0
2024-09-03 17:17:47			0	38813	0	0	0	29594	28200	149721	27029	1082778	47149	111009	0	0	8156	509668	0	0
2024-09-03 17:18:47			0	38825	0	0	0	29625	28200	149657	26765	1082832	47137	111021	0	0	8156	509225	0	0
2024-09-03 17:19:47			0	38873	0	0	0	29612	28200	149541	26987	1082859	47137	111016	0	0	8159	507456	0	0
2024-09-03 17:20:47			0	38901	0	0	0	29620	28190	149353	27157	1082823	47148	111019	0	0	8161	506455	0	0
2024-09-03 17:21:47			0	38920	0	0	0	29605	28210	149221	27171	1082904	47138	111013	0	0	8162	505699	0	0
2024-09-03 17:22:47			0	38929	0	0	0	29615	28200	149297	26977	1082859	47116	111017	0	0	8162	505397	0	0
2024-09-03 17:23:47			0	38944	0	0	0	29612	28200	149293	27265	1082841	47126	111016	0	0	8163	504846	0	0
2024-09-03 17:24:47			0	38966	0	0	0	29612	28200	149325	27168	1082895	47137	111016	0	0	8164	504039	0	0
2024-09-03 17:25:47			0	38963	0	0	0	29620	28200	149225	27222	1082805	47137	111019	0	0	8164	504149	0	0
2024-09-03 17:26:47			0	38964	0	0	0	29623	28210	149177	27142	1082904	47150	111020	0	0	8164	504083	0	0
2024-09-03 17:27:47			0	38981	0	0	0	29620	28200	149253	26911	1082886	47137	111019	0	0	8165	503489	0	0
2024-09-03 17:28:47			0	38962	0	0	0	29620	28210	149209	27145	1082796	47138	111019	0	0	8164	504157	0	0
2024-09-03 17:29:47			0	38972	0	0	0	29618	28210	149229	26916	1082877	47127	111018	0	0	8165	503790	0	0
2024-09-03 17:30:47			0	38968	0	0	0	29620	28220	149225	26795	1082841	47151	111019	0	0	8165	503908	0	0
2024-09-03 17:31:47			0	38969	0	0	0	29628	28220	149201	27029	1082895	47128	111022	0	0	8164	503871	0	0
2024-09-03 17:32:47			0	38986	0	0	0	29628	28210	149173	27152	1082886	47138	111022	0	0	8165	503277	0	0
2024-09-03 17:33:47			0	38963	0	0	0	29625	28210	149089	27431	1082940	47138	111021	0	0	8164	504120	0	0
2024-09-03 17:34:47			0	38971	0	0	0	29610	28210	149169	27064	1082886	47127	111015	0	0	8165	503827	0	0
2024-09-03 17:35:47			0	38976	0	0	0	29620	28220	149137	27048	1082949	47139	111019	0	0	8165	503614	0	0
2024-09-03 17:36:47			0	38968	0	0	0	29620	28220	149113	26880	1082904	47139	111019	0	0	8165	503908	0	0
2024-09-03 17:37:47			0	38954	0	0	0	29623	28220	149253	27154	1082895	47139	111020	0	0	8164	504421	0	0
2024-09-03 17:38:47			0	38957	0	0	0	29618	28220	149245	27100	1082931	47139	111018	0	0	8164	504311	0	0
2024-09-03 17:39:47			0	38943	0	0	0	29610	28220	149217	27163	1082931	47139	111015	0	0	8163	504825	0	0
2024-09-03 17:40:47			0	38941	0	0	0	29599	28210	149257	26951	1082859	47127	111011	0	0	8163	504927	0	0
2024-09-03 17:41:47			0	38924	0	0	0	29618	28220	149257	27130	1082868	47139	111018	0	0	8162	505522	0	0
2024-09-03 17:42:47			0	38894	0	0	0	29625	28220	149401	26974	1082895	47139	111021	0	0	8160	506625	0	0
2024-09-03 17:43:47			0	38905	0	0	0	29612	28210	149237	27109	1082913	47127	111016	0	0	8161	506250	0	0
2024-09-03 17:44:47			0	38929	0	0	0	29610	28210	149381	26953	1082940	47150	111015	0	0	8162	505368	0	0
2024-09-03 17:45:47			0	38908	0	0	0	29597	28210	149261	27303	1082913	47127	111010	0	0	8161	506139	0	0
2024-09-03 17:46:47			0	38907	0	0	0	29597	28210	149345	26776	1082886	47117	111010	0	0	8161	506176	0	0
2024-09-03 17:47:47			0	38889	0	0	0	29597	28210	149385	27043	1082877	47138	111010	0	0	8160	506838	0	0
2024-09-03 17:48:47			0	38887	0	0	0	29605	28220	149425	27261	1082895	47128	111013	0	0	8160	506882	0	0
2024-09-03 17:49:47			0	38869	0	0	0	29605	28210	149453	27255	1082850	47127	111013	0	0	8159	507574	0	0
2024-09-03 17:50:47			0	38907	0	0	0	29612	28210	149413	27242	1082859	47150	111016	0	0	8161	506176	0	0
2024-09-03 17:51:47			0	38915	0	0	0	29620	28200	149357	27001	1082922	47126	111019	0	0	8161	505911	0	0
2024-09-03 17:52:47			0	38939	0	0	0	29625	28210	149277	27293	1082886	47138	111021	0	0	8163	505001	0	0
2024-09-03 17:53:47			0	38910	0	0	0	29631	28210	149221	27196	1082913	47138	111023	0	0	8161	506066	0	0
2024-09-03 17:54:47			0	38895	0	0	0	29633	28220	149381	27114	1082949	47139	111024	0	0	8160	506588	0	0
2024-09-03 17:55:47			0	38877	0	0	0	29641	28220	149381	26845	1082976	47151	111027	0	0	8159	507250	0	0
2024-09-03 17:56:47			0	38877	0	0	0	29644	28210	149409	27081	1082967	47138	111028	0	0	8159	507280	0	0
2024-09-03 17:57:47			0	38885	0	0	0	29636	28230	149337	27118	1082994	47152	111025	0	0	8160	506927	0	0
2024-09-03 17:58:47			0	38891	0	0	0	29636	28220	149397	27017	1082922	47151	111025	0	0	8160	506735	0	0
2024-09-03 17:59:47			0	38902	0	0	0	29636	28220	149349	27062	1082985	47151	111025	0	0	8161	506331	0	0
2024-09-03 18:00:47			0	38906	0	0	0	29636	28230	149445	27455	1082967	47140	111025	0	0	8161	506155	0	0
2024-09-03 18:01:47			0	38907	0	0	0	29636	28220	149333	26752	1082904	47128	111025	0	0	8161	506147	0	0
2024-09-03 18:02:47			0	38915	0	0	0	29646	28220	149477	27005	1082958	47151	111029	0	0	8161	505853	0	0
2024-09-03 18:03:47			0	38881	0	0	0	29646	28230	149413	26977	1083021	47152	111029	0	0	8159	507074	0	0
2024-09-03 18:04:47			0	38891	0	0	0	29649	28220	149413	27095	1082931	47128	111030	0	0	8160	506735	0	0
2024-09-03 18:05:47			0	38871	0	0	0	29644	28230	149445	27145	1083057	47152	111028	0	0	8159	507442	0	0
2024-09-03 18:06:47			0	38885	0	0	0	29638	28230	149609	27284	1083003	47152	111026	0	0	8160	506927	0	0
2024-09-03 18:07:47			0	38868	0	0	0	29644	28230	149529	27105	1082994	47152	111028	0	0	8159	507552	0	0
2024-09-03 18:08:47			0	38871	0	0	0	29641	28230	149549	26953	1082994	47152	111027	0	0	8159	507442	0	0
2024-09-03 18:09:47			0	38860	0	0	0	29649	28230	149461	27211	1083003	47152	111030	0	0	8158	507847	0	0
2024-09-03 18:10:47			0	38829	0	0	0	29651	28240	149585	27300	1083066	47153	111031	0	0	8156	508960	0	0
2024-09-03 18:11:47			0	38835	0	0	0	29654	28240	149637	27194	1083049	47154	111032	0	0	8157	508739	0	0
2024-09-03 18:12:47			0	38827	0	0	0	29646	28240	149701	27313	1083022	47165	111029	0	0	8156	509034	0	0
2024-09-03 18:13:47			0	38790	0	0	0	29646	28240	149745	26956	1082986	47153	111029	0	0	8154	510399	0	0
2024-09-03 18:14:47			0	38788	0	0	0	29646	28250	149753	26824	1083085	47154	111029	0	0	8154	510444	0	0
2024-09-03 18:15:47			0	38787	0	0	0	29644	28240	149793	27065	1083039	47130	111028	0	0	8154	510510	0	0
2024-09-03 18:16:47			0	38803	0	0	0	29646	28240	149737	27043	1083039	47153	111029	0	0	8155	509919	0	0
2024-09-03 18:17:47			0	38826	0	0	0	29641	28230	149697	27118	1083030	47140	111027	0	0	8156	509100	0	0
2024-09-03 18:18:47			0	38814	0	0	0	29644	28240	149845	26840	1083049	47142	111028	0	0	8155	509514	0	0
2024-09-03 18:19:47			0	38801	0	0	0	29641	28230	149869	26996	1082976	47152	111027	0	0	8155	510023	0	0
2024-09-03 18:20:47			0	38806	0	0	0	29638	28230	149809	26769	1083030	47140	111026	0	0	8155	509838	0	0
2024-09-03 18:21:47			0	38779	0	0	0	29548	28240	149773	27024	1082959	47141	110991	0	0	8155	510806	0	0
2024-09-03 18:22:47			0	38803	0	0	0	29571	28230	149757	27052	1082950	47152	111000	0	0	8156	509949	0	0
2024-09-03 18:23:47			0	38795	0	0	0	29597	28230	149793	26967	1082967	47119	111010	0	0	8155	510244	0	0
2024-09-03 18:24:47			0	38770	0	0	0	29548	28220	149805	27017	1082895	47128	110991	0	0	8155	511198	0	0
2024-09-03 18:25:47			0	38768	0	0	0	29524	28220	149817	27187	1082868	47128	110982	0	0	8155	511272	0	0
2024-09-03 18:26:47			0	38730	0	0	0	29620	28220	150081	26927	1082868	47139	111019	0	0	8151	512678	0	0
2024-09-03 18:27:47			0	38682	0	0	0	29618	28210	150124	27107	1082877	47138	111018	0	0	8148	514488	0	0
2024-09-03 18:28:47			0	38676	0	0	0	29618	28210	150160	27079	1082886	47117	111018	0	0	8148	514710	0	0
2024-09-03 18:29:47			0	38660	0	0	0	29618	28210	150296	27027	1082904	47150	111018	0	0	8147	515305	0	0
2024-09-03 18:30:47			0	38656	0	0	0	29615	28220	150356	27102	1082904	47118	111017	0	0	8147	515424	0	0
2024-09-03 18:31:47			0	38655	0	0	0	29615	28210	150404	27130	1082940	47150	111017	0	0	8147	515491	0	0
2024-09-03 18:32:47			0	38630	0	0	0	29615	28210	150384	27180	1082850	47138	111017	0	0	8145	516420	0	0
2024-09-03 18:33:47			0	38615	0	0	0	29594	28210	150472	27081	1082805	47150	111009	0	0	8145	516978	0	0
2024-09-03 18:34:47			0	38589	0	0	0	29586	28220	150484	27267	1082895	47118	111006	0	0	8144	517917	0	0
2024-09-03 18:35:47			0	38558	0	0	0	29584	28210	150660	27203	1082769	47150	111005	0	0	8142	519103	0	0
2024-09-03 18:36:47			0	38527	0	0	0	29568	28190	150784	27272	1082814	47114	110999	0	0	8140	520321	0	0
2024-09-03 18:37:47			0	38502	0	0	0	29550	28190	150904	27085	1082706	47135	110992	0	0	8139	521256	0	0
2024-09-03 18:38:47			0	38490	0	0	0	29550	28190	151020	26946	1082688	47136	110992	0	0	8138	521705	0	0
2024-09-03 18:39:47			0	38465	0	0	0	29566	28180	151072	27019	1082688	47135	110998	0	0	8137	522672	0	0
2024-09-03 18:40:47			0	38446	0	0	0	29553	28180	151200	27052	1082643	47125	110993	0	0	8136	523384	0	0
2024-09-03 18:41:47			0	38425	0	0	0	29550	28180	151212	27159	1082688	47135	110992	0	0	8135	524172	0	0
2024-09-03 18:42:47			0	38408	0	0	0	29558	28170	151364	26870	1082652	47124	110995	0	0	8133	524841	0	0
2024-09-03 18:43:47			0	38422	0	0	0	29548	28170	151236	26897	1082652	47124	110991	0	0	8134	524315	0	0
2024-09-03 18:44:47			0	38395	0	0	0	29563	28170	151316	26998	1082696	47123	110997	0	0	8133	525330	0	0
2024-09-03 18:45:47			0	38380	0	0	0	29550	28170	151344	27074	1082723	47133	110992	0	0	8132	525894	0	0
2024-09-03 18:46:47			0	38379	0	0	0	29555	28160	151472	27064	1082633	47133	110994	0	0	8132	525962	0	0
2024-09-03 18:47:47			0	38366	0	0	0	29555	28160	151452	27322	1082606	47133	110994	0	0	8131	526451	0	0
2024-09-03 18:48:47			0	38370	0	0	0	29553	28160	151492	27007	1082597	47132	110993	0	0	8131	526301	0	0
2024-09-03 18:49:47			0	38377	0	0	0	29548	28160	151480	26786	1082633	47133	110991	0	0	8132	526037	0	0
2024-09-03 18:50:47			0	38384	0	0	0	29548	28160	151500	27118	1082517	47144	110991	0	0	8132	525774	0	0
2024-09-03 18:51:47			0	38369	0	0	0	29553	28150	151532	26882	1082552	47143	110993	0	0	8131	526369	0	0
2024-09-03 18:52:47			0	38364	0	0	0	29558	28150	151420	27059	1082561	47144	110995	0	0	8131	526557	0	0
2024-09-03 18:53:47			0	38372	0	0	0	29555	28150	151560	27060	1082615	47122	110994	0	0	8131	526256	0	0
2024-09-03 18:54:47			0	38333	0	0	0	29548	28150	151608	26856	1082588	47155	110991	0	0	8129	527725	0	0
2024-09-03 18:55:47			0	38335	0	0	0	29548	28150	151616	27258	1082525	47131	110991	0	0	8129	527650	0	0
2024-09-03 18:56:47			0	38348	0	0	0	29548	28160	151600	27157	1082543	47132	110991	0	0	8130	527129	0	0
2024-09-03 18:57:47			0	38325	0	0	0	29548	28150	151656	27206	1082615	47122	110991	0	0	8129	528027	0	0
2024-09-03 18:58:47			0	38328	0	0	0	29540	28150	151656	26663	1082579	47131	110988	0	0	8129	527913	0	0
2024-09-03 18:59:47			0	38320	0	0	0	29542	28150	151752	27156	1082552	47131	110989	0	0	8129	528215	0	0
2024-09-03 19:00:47			0	38313	0	0	0	29535	28150	151732	27119	1082606	47131	110986	0	0	8128	528479	0	0
2024-09-03 19:01:47			0	38305	0	0	0	29535	28150	151780	26757	1082579	47121	110986	0	0	8128	528781	0	0
2024-09-03 19:02:47			0	38293	0	0	0	29535	28150	151940	26932	1082480	47132	110986	0	0	8127	529235	0	0
2024-09-03 19:03:47			0	38272	0	0	0	29540	28140	151840	27126	1082534	47142	110988	0	0	8126	530059	0	0
2024-09-03 19:04:47			0	38273	0	0	0	29529	28140	152028	26956	1082480	47153	110984	0	0	8126	530021	0	0
2024-09-03 19:05:47			0	38266	0	0	0	29537	28140	151956	27012	1082543	47131	110987	0	0	8126	530286	0	0
2024-09-03 19:06:47			0	38272	0	0	0	29532	28140	151932	27034	1082507	47142	110985	0	0	8126	530059	0	0
2024-09-03 19:07:47			0	38267	0	0	0	29519	28140	151860	26663	1082489	47143	110980	0	0	8126	530248	0	0
2024-09-03 19:08:47			0	38270	0	0	0	29540	28130	151952	26686	1082471	47130	110988	0	0	8126	530165	0	0
2024-09-03 19:09:47			0	38263	0	0	0	29540	28130	151968	27008	1082462	47141	110988	0	0	8125	530430	0	0
2024-09-03 19:10:47			0	38279	0	0	0	29529	28140	151896	27059	1082534	47130	110984	0	0	8126	529794	0	0
2024-09-03 19:11:47			0	38267	0	0	0	29522	28130	151924	27005	1082489	47141	110981	0	0	8126	530278	0	0
2024-09-03 19:12:47			0	38270	0	0	0	29509	28130	151832	27038	1082444	47130	110976	0	0	8126	530165	0	0
2024-09-03 19:13:47			0	38273	0	0	0	29498	28130	151932	26746	1082417	47142	110972	0	0	8127	530052	0	0
2024-09-03 19:14:47			0	38243	0	0	0	29516	28130	151996	26920	1082462	47129	110979	0	0	8125	531187	0	0
2024-09-03 19:15:47			0	38263	0	0	0	29472	28120	152064	26859	1082390	47128	110962	0	0	8126	530460	0	0
2024-09-03 19:16:47			0	38252	0	0	0	29467	28120	151996	26762	1082309	47107	110960	0	0	8126	530877	0	0
2024-09-03 19:17:47			0	38222	0	0	0	29472	28110	152140	26712	1082317	47127	110962	0	0	8124	532043	0	0
2024-09-03 19:18:47			0	38202	0	0	0	29462	28110	152216	26890	1082290	47127	110958	0	0	8123	532802	0	0
2024-09-03 19:19:47			0	38186	0	0	0	29462	28090	152312	26981	1082245	47116	110958	0	0	8122	533470	0	0
2024-09-03 19:20:47			0	38182	0	0	0	29446	28080	152392	26871	1082119	47103	110952	0	0	8122	533653	0	0
2024-09-03 19:21:47			0	38165	0	0	0	29431	28090	152508	27069	1082182	47092	110946	0	0	8121	534268	0	0
2024-09-03 19:22:47			0	38169	0	0	0	29433	28080	152392	27241	1082164	47125	110947	0	0	8121	534147	0	0
2024-09-03 19:23:47			0	38154	0	0	0	29428	28070	152392	26608	1082047	47114	110945	0	0	8121	534748	0	0
2024-09-03 19:24:47			0	38146	0	0	0	29412	28070	152468	27216	1082065	47124	110939	0	0	8120	535052	0	0
2024-09-03 19:25:47			0	38127	0	0	0	29407	28060	152560	27156	1082029	47124	110937	0	0	8119	535806	0	0
2024-09-03 19:26:47			0	38101	0	0	0	29389	28050	152648	27189	1081957	47112	110930	0	0	8118	536828	0	0
2024-09-03 19:27:47			0	38107	0	0	0	29376	28050	152700	27249	1081975	47111	110925	0	0	8119	536599	0	0
2024-09-03 19:28:47			0	38072	0	0	0	29412	28030	152716	27270	1081948	47121	110939	0	0	8116	537996	0	0
2024-09-03 19:29:47			0	38113	0	0	0	29394	28040	152772	27053	1081876	47121	110932	0	0	8119	536401	0	0
2024-09-03 19:30:47			0	38088	0	0	0	29410	28030	152856	26831	1081911	47131	110938	0	0	8117	537385	0	0
2024-09-03 19:31:47			0	38087	0	0	0	29410	28020	152872	26783	1081929	47119	110938	0	0	8117	537454	0	0
2024-09-03 19:32:47			0	38076	0	0	0	29394	28030	152740	26755	1081884	47120	110932	0	0	8117	537843	0	0
2024-09-03 19:33:47			0	38066	0	0	0	29384	28010	152784	26998	1081884	47130	110928	0	0	8116	538287	0	0
2024-09-03 19:34:47			0	38061	0	0	0	29394	28020	152788	27039	1081848	47119	110932	0	0	8116	538447	0	0
2024-09-03 19:35:47			0	38048	0	0	0	29389	28020	152888	26958	1081920	47130	110930	0	0	8115	538944	0	0
2024-09-03 19:36:47			0	38039	0	0	0	29394	28020	152904	26816	1081893	47130	110932	0	0	8114	539287	0	0
2024-09-03 19:37:47			0	38045	0	0	0	29353	28020	153008	27104	1081821	47119	110916	0	0	8115	539058	0	0
2024-09-03 19:38:47			0	38025	0	0	0	29311	28010	152944	26817	1081821	47129	110900	0	0	8115	539854	0	0
2024-09-03 19:39:47			0	38050	0	0	0	29283	28000	152848	26960	1081668	47117	110889	0	0	8117	538929	0	0
2024-09-03 19:40:47			0	38044	0	0	0	29355	27990	152856	27111	1081632	47105	110917	0	0	8115	539190	0	0
2024-09-03 19:41:47			0	38020	0	0	0	29363	27980	153031	27154	1081641	47125	110920	0	0	8114	540139	0	0
2024-09-03 19:42:47			0	38015	0	0	0	29363	27990	153139	26831	1081704	47127	110920	0	0	8113	540299	0	0
2024-09-03 19:43:47			0	38005	0	0	0	29314	27990	153043	26734	1081686	47116	110901	0	0	8114	540682	0	0
2024-09-03 19:44:47			0	37985	0	0	0	29314	27990	153187	26915	1081704	47127	110901	0	0	8112	541448	0	0
2024-09-03 19:45:47			0	38002	0	0	0	29322	27980	153183	26916	1081641	47125	110904	0	0	8113	540828	0	0
2024-09-03 19:46:47			0	37973	0	0	0	29329	27960	153247	26677	1081631	47124	110907	0	0	8111	542002	0	0
2024-09-03 19:47:47			0	37960	0	0	0	29348	27960	153279	27027	1081577	47102	110914	0	0	8110	542501	0	0
2024-09-03 19:48:47			0	37962	0	0	0	29327	27970	153363	26703	1081587	47114	110906	0	0	8111	542393	0	0
2024-09-03 19:49:47			0	37963	0	0	0	29332	27950	153375	27045	1081505	47112	110908	0	0	8111	542417	0	0
2024-09-03 19:50:47			0	37962	0	0	0	29283	27950	153291	26883	1081505	47112	110889	0	0	8111	542455	0	0
2024-09-03 19:51:47			0	37969	0	0	0	29283	27950	153327	26727	1081442	47101	110889	0	0	8112	542187	0	0
2024-09-03 19:52:47			0	37964	0	0	0	29311	27940	153303	27138	1081460	47122	110900	0	0	8111	542410	0	0
2024-09-03 19:53:47			0	37978	0	0	0	29314	27950	153307	26923	1081442	47101	110901	0	0	8112	541841	0	0
2024-09-03 19:54:47			0	37949	0	0	0	29324	27940	153391	26771	1081424	47110	110905	0	0	8110	542986	0	0
2024-09-03 19:55:47			0	37946	0	0	0	29322	27940	153347	27045	1081397	47110	110904	0	0	8110	543101	0	0
2024-09-03 19:56:47			0	37951	0	0	0	29324	27930	153359	26935	1081469	47110	110905	0	0	8110	542940	0	0
2024-09-03 19:57:47			0	37952	0	0	0	29335	27930	153359	26680	1081415	47132	110909	0	0	8110	542902	0	0
2024-09-03 19:58:47			0	37962	0	0	0	29340	27930	153383	27085	1081487	47132	110911	0	0	8110	542518	0	0
2024-09-03 19:59:47			0	37951	0	0	0	29342	27930	153323	26847	1081487	47121	110912	0	0	8110	542940	0	0
2024-09-03 20:00:47			0	37941	0	0	0	29348	27930	153291	26922	1081523	47143	110914	0	0	8109	543324	0	0
2024-09-03 20:01:47			0	37965	0	0	0	29345	27930	153435	26975	1081442	47143	110913	0	0	8111	542403	0	0
2024-09-03 20:02:47			0	37936	0	0	0	29355	27940	153367	27043	1081478	47132	110917	0	0	8109	543485	0	0
2024-09-03 20:03:47			0	37920	0	0	0	29353	27930	153467	27031	1081550	47132	110916	0	0	8108	544131	0	0
2024-09-03 20:04:47			0	37909	0	0	0	29355	27940	153463	27157	1081568	47133	110917	0	0	8107	544523	0	0
2024-09-03 20:05:47			0	37915	0	0	0	29353	27940	153463	26876	1081541	47122	110916	0	0	8108	544292	0	0
2024-09-03 20:06:47			0	37921	0	0	0	29353	27940	153455	27255	1081595	47122	110916	0	0	8108	544062	0	0
2024-09-03 20:07:47			0	37931	0	0	0	29358	27940	153423	27150	1081568	47122	110918	0	0	8108	543677	0	0
2024-09-03 20:08:47			0	37912	0	0	0	29363	27940	153431	27045	1081541	47122	110920	0	0	8107	544408	0	0
2024-09-03 20:09:47			0	37923	0	0	0	29363	27940	153423	26965	1081568	47133	110920	0	0	8108	543985	0	0
2024-09-03 20:10:47			0	37916	0	0	0	29345	27960	153355	26889	1081622	47123	110913	0	0	8108	544191	0	0
2024-09-03 20:11:47			0	37919	0	0	0	29337	27940	153371	26996	1081514	47122	110910	0	0	8108	544138	0	0
2024-09-03 20:12:47			0	37928	0	0	0	29340	27950	153347	26977	1081523	47123	110911	0	0	8109	543761	0	0
2024-09-03 20:13:47			0	37910	0	0	0	29342	27940	153403	26902	1081568	47100	110912	0	0	8107	544485	0	0
2024-09-03 20:14:47			0	37915	0	0	0	29342	27950	153463	26864	1081523	47112	110912	0	0	8108	544261	0	0
2024-09-03 20:15:47			0	37927	0	0	0	29342	27940	153431	26821	1081478	47099	110912	0	0	8108	543831	0	0
2024-09-03 20:16:47			0	37924	0	0	0	29345	27940	153515	27064	1081487	47122	110913	0	0	8108	543946	0	0
2024-09-03 20:17:47			0	37942	0	0	0	29340	27930	153451	27168	1081469	47110	110911	0	0	8109	543286	0	0
2024-09-03 20:18:47			0	37929	0	0	0	29335	27930	153419	26753	1081496	47132	110909	0	0	8109	543785	0	0
2024-09-03 20:19:47			0	37922	0	0	0	29332	27930	153451	27074	1081460	47110	110908	0	0	8108	544054	0	0
2024-09-03 20:20:47			0	37916	0	0	0	29329	27930	153443	26797	1081496	47121	110907	0	0	8108	544285	0	0
2024-09-03 20:21:47			0	37929	0	0	0	29324	27930	153415	26779	1081406	47110	110905	0	0	8109	543785	0	0
2024-09-03 20:22:47			0	37925	0	0	0	29316	27930	153471	26880	1081415	47132	110902	0	0	8109	543939	0	0
2024-09-03 20:23:47			0	37922	0	0	0	29322	27930	153483	26967	1081388	47110	110904	0	0	8108	544054	0	0
2024-09-03 20:24:47			0	37908	0	0	0	29314	27930	153523	27003	1081442	47121	110901	0	0	8108	544593	0	0
2024-09-03 20:25:47			0	37930	0	0	0	29324	27920	153447	27072	1081388	47119	110905	0	0	8109	543778	0	0
2024-09-03 20:26:47			0	37920	0	0	0	29316	27920	153563	27053	1081397	47120	110902	0	0	8108	544163	0	0
2024-09-03 20:27:47			0	37936	0	0	0	29322	27930	153447	27133	1081433	47121	110904	0	0	8109	543516	0	0
2024-09-03 20:28:47			0	37925	0	0	0	29324	27920	153427	27182	1081397	47120	110905	0	0	8109	543970	0	0
2024-09-03 20:29:47			0	37949	0	0	0	29324	27910	153483	27166	1081352	47129	110905	0	0	8110	543079	0	0
2024-09-03 20:30:47			0	37951	0	0	0	29324	27920	153399	27279	1081370	47109	110905	0	0	8110	542971	0	0
2024-09-03 20:31:47			0	37944	0	0	0	29324	27910	153307	27131	1081379	47107	110905	0	0	8110	543272	0	0
2024-09-03 20:32:47			0	37964	0	0	0	29324	27920	153291	27154	1081415	47130	110905	0	0	8111	542472	0	0
2024-09-03 20:33:47			0	37967	0	0	0	29324	27920	153363	27024	1081388	47108	110905	0	0	8111	542357	0	0
2024-09-03 20:34:47			0	37969	0	0	0	29327	27920	153415	27033	1081424	47131	110906	0	0	8111	542280	0	0
2024-09-03 20:35:47			0	37954	0	0	0	29316	27920	153363	26797	1081397	47120	110902	0	0	8110	542856	0	0
2024-09-03 20:36:47			0	37958	0	0	0	29319	27920	153375	27017	1081424	47120	110903	0	0	8111	542703	0	0
2024-09-03 20:37:47			0	37965	0	0	0	29285	27920	153275	26845	1081424	47120	110890	0	0	8111	542434	0	0
2024-09-03 20:38:47			0	37957	0	0	0	29249	27910	153287	26769	1081379	47107	110876	0	0	8112	542772	0	0
2024-09-03 20:39:47			0	37955	0	0	0	29212	27910	153279	26939	1081379	47107	110862	0	0	8112	542849	0	0
2024-09-03 20:40:47			0	37937	0	0	0	29210	27900	153303	27287	1081172	47084	110861	0	0	8111	543572	0	0
2024-09-03 20:41:47			0	37967	0	0	0	29233	27890	153267	26958	1081118	47105	110870	0	0	8112	542451	0	0
2024-09-03 20:42:47			0	37963	0	0	0	29277	27880	153351	26651	1081108	47105	110887	0	0	8111	542636	0	0
2024-09-03 20:43:47			0	37940	0	0	0	29236	27890	153419	27192	1081171	47127	110871	0	0	8111	543488	0	0
2024-09-03 20:44:47			0	37959	0	0	0	29199	27880	153375	26901	1081099	47104	110857	0	0	8112	542789	0	0
2024-09-03 20:45:47			0	37942	0	0	0	29192	27870	153491	27079	1081027	47091	110854	0	0	8111	543474	0	0
2024-09-03 20:46:47			0	37938	0	0	0	29197	27870	153383	27078	1080946	47103	110856	0	0	8111	543627	0	0
2024-09-03 20:47:47			0	37951	0	0	0	29207	27850	153463	26982	1080973	47090	110860	0	0	8112	543191	0	0
2024-09-03 20:48:47			0	37934	0	0	0	29207	27860	153583	27242	1080982	47080	110860	0	0	8111	543813	0	0
2024-09-03 20:49:47			0	37921	0	0	0	29179	27840	153495	27033	1080901	47089	110849	0	0	8110	544375	0	0
2024-09-03 20:50:47			0	37910	0	0	0	29210	27840	153527	26942	1080928	47111	110861	0	0	8109	544799	0	0
2024-09-03 20:51:47			0	37868	0	0	0	29194	27850	153831	27020	1080991	47111	110855	0	0	8107	546385	0	0
2024-09-03 20:52:47			0	37882	0	0	0	29215	27840	153755	26906	1081000	47100	110863	0	0	8108	545877	0	0
2024-09-03 20:53:47			0	37873	0	0	0	29220	27840	153707	27034	1080982	47100	110865	0	0	8107	546224	0	0
2024-09-03 20:54:47			0	37862	0	0	0	29244	27850	153835	27293	1080991	47123	110874	0	0	8106	546617	0	0
2024-09-03 20:55:47			0	37841	0	0	0	29168	27850	153815	27053	1081018	47123	110845	0	0	8106	547427	0	0
2024-09-03 20:56:47			0	37841	0	0	0	29205	27840	153775	27126	1080973	47111	110859	0	0	8105	547459	0	0
2024-09-03 20:57:47			0	37868	0	0	0	29184	27840	153851	27114	1080982	47089	110851	0	0	8107	546417	0	0
2024-09-03 20:58:47			0	37843	0	0	0	29150	27840	153899	26811	1080946	47123	110838	0	0	8106	547381	0	0
2024-09-03 20:59:47			0	37825	0	0	0	29166	27840	153967	27296	1080865	47111	110844	0	0	8105	548076	0	0
2024-09-03 21:00:47			0	37829	0	0	0	29150	27840	153919	27102	1080874	47100	110838	0	0	8106	547922	0	0
2024-09-03 21:01:47			0	37816	0	0	0	29124	27830	154031	27156	1080829	47110	110828	0	0	8105	548456	0	0
2024-09-03 21:02:47			0	37815	0	0	0	29119	27820	154007	26882	1080703	47065	110826	0	0	8105	548526	0	0
2024-09-03 21:03:47			0	37799	0	0	0	29119	27820	153979	27190	1080667	47098	110826	0	0	8104	549145	0	0
2024-09-03 21:04:47			0	37792	0	0	0	29114	27800	154047	27163	1080694	47084	110824	0	0	8104	549479	0	0
2024-09-03 21:05:47			0	37790	0	0	0	29132	27780	154063	26786	1080640	47105	110831	0	0	8103	549620	0	0
2024-09-03 21:06:47			0	37782	0	0	0	29173	27790	154107	27074	1080631	47096	110847	0	0	8102	549898	0	0
2024-09-03 21:07:47			0	37794	0	0	0	29150	27790	154171	27114	1080729	47106	110838	0	0	8103	549434	0	0
2024-09-03 21:08:47			0	37774	0	0	0	29153	27780	154295	27189	1080666	47117	110839	0	0	8102	550240	0	0
2024-09-03 21:09:47			0	37756	0	0	0	29163	27800	154367	26745	1080694	47107	110843	0	0	8101	550874	0	0
2024-09-03 21:10:47			0	37739	0	0	0	29148	27780	154323	27242	1080666	47117	110837	0	0	8100	551597	0	0
2024-09-03 21:11:47			0	37733	0	0	0	29163	27790	154319	27173	1080676	47095	110843	0	0	8100	551798	0	0
2024-09-03 21:12:47			0	37726	0	0	0	29168	27790	154447	26896	1080649	47095	110845	0	0	8099	552069	0	0
2024-09-03 21:13:47			0	37708	0	0	0	29168	27780	154499	27102	1080657	47104	110845	0	0	8098	552800	0	0
2024-09-03 21:14:47			0	37715	0	0	0	29158	27770	154495	27381	1080675	47082	110841	0	0	8098	552560	0	0
2024-09-03 21:15:47			0	37722	0	0	0	29132	27770	154499	27253	1080648	47116	110831	0	0	8099	552288	0	0
2024-09-03 21:16:47			0	37696	0	0	0	29124	27780	154447	26779	1080603	47104	110828	0	0	8098	553267	0	0
2024-09-03 21:17:47			0	37685	0	0	0	29124	27780	154495	27059	1080522	47104	110828	0	0	8097	553694	0	0
2024-09-03 21:18:47			0	37670	0	0	0	29111	27770	154647	26771	1080540	47093	110823	0	0	8097	554310	0	0
2024-09-03 21:19:47			0	37657	0	0	0	29119	27760	154687	27121	1080522	47092	110826	0	0	8096	554848	0	0
2024-09-03 21:20:47			0	37631	0	0	0	29101	27770	154807	27015	1080612	47104	110819	0	0	8095	555829	0	0
2024-09-03 21:21:47			0	37608	0	0	0	29085	27760	154847	27203	1080486	47091	110813	0	0	8093	556759	0	0
2024-09-03 21:22:47			0	37600	0	0	0	29093	27750	154915	26850	1080450	47091	110816	0	0	8093	557103	0	0
2024-09-03 21:23:47			0	37575	0	0	0	29119	27750	154971	27041	1080477	47102	110826	0	0	8091	558080	0	0
2024-09-03 21:24:47			0	37552	0	0	0	29132	27760	155099	27206	1080522	47103	110831	0	0	8089	558948	0	0
2024-09-03 21:25:47			0	37558	0	0	0	29153	27740	155063	26809	1080486	47079	110839	0	0	8089	558777	0	0
2024-09-03 21:26:47			0	37548	0	0	0	29155	27750	155119	26639	1080441	47125	110840	0	0	8089	559136	0	0
2024-09-03 21:27:47			0	37547	0	0	0	29093	27750	155063	26623	1080477	47102	110816	0	0	8090	559176	0	0
2024-09-03 21:28:47			0	37508	0	0	0	29114	27750	155207	26876	1080468	47114	110824	0	0	8087	560704	0	0
2024-09-03 21:29:47			0	37481	0	0	0	29158	27740	155371	26698	1080459	47101	110841	0	0	8085	561795	0	0
2024-09-03 21:30:47			0	37468	0	0	0	29124	27750	155483	26752	1080549	47102	110828	0	0	8085	562274	0	0
2024-09-03 21:31:47			0	37446	0	0	0	29098	27760	155559	26958	1080540	47091	110818	0	0	8084	563106	0	0
2024-09-03 21:32:47			0	37467	0	0	0	29096	27750	155455	27246	1080522	47102	110817	0	0	8085	562313	0	0
2024-09-03 21:33:47			0	37422	0	0	0	29109	27760	155607	27007	1080459	47091	110822	0	0	8082	564050	0	0
2024-09-03 21:34:47			0	37409	0	0	0	29127	27730	155671	26932	1080494	47089	110829	0	0	8081	564660	0	0
2024-09-03 21:35:47			0	37417	0	0	0	29132	27740	155743	26811	1080459	47090	110831	0	0	8082	564312	0	0
2024-09-03 21:36:47			0	37421	0	0	0	29155	27740	155735	26894	1080459	47113	110840	0	0	8081	564155	0	0
2024-09-03 21:37:47			0	37402	0	0	0	29166	27750	155751	26873	1080531	47114	110844	0	0	8080	564871	0	0
2024-09-03 21:38:47			0	37406	0	0	0	29166	27740	155667	26816	1080504	47112	110844	0	0	8080	564746	0	0
2024-09-03 21:39:47			0	37395	0	0	0	29173	27750	155811	26783	1080558	47102	110847	0	0	8080	565147	0	0
2024-09-03 21:40:47			0	37364	0	0	0	29176	27750	155923	27071	1080495	47114	110848	0	0	8078	566369	0	0
2024-09-03 21:41:47			0	37346	0	0	0	29173	27750	155923	27008	1080504	47102	110847	0	0	8077	567080	0	0
2024-09-03 21:42:47			0	37333	0	0	0	29184	27740	156147	26811	1080540	47101	110851	0	0	8076	567627	0	0
2024-09-03 21:43:47			0	37295	0	0	0	29181	27750	156242	27081	1080558	47102	110850	0	0	8074	569097	0	0
2024-09-03 21:44:47			0	37306	0	0	0	29181	27760	156154	27031	1080567	47102	110850	0	0	8074	568629	0	0
2024-09-03 21:45:47			0	37280	0	0	0	29179	27750	156254	26916	1080639	47114	110849	0	0	8073	569692	0	0
2024-09-03 21:46:47			0	37254	0	0	0	29176	27760	156302	27069	1080576	47081	110848	0	0	8071	570690	0	0
2024-09-03 21:47:47			0	37240	0	0	0	29168	27760	156458	26993	1080540	47114	110845	0	0	8071	571245	0	0
2024-09-03 21:48:47			0	37209	0	0	0	29163	27760	156522	26878	1080621	47114	110843	0	0	8069	572477	0	0
2024-09-03 21:49:47			0	37184	0	0	0	29173	27760	156522	27192	1080603	47103	110847	0	0	8067	573471	0	0
2024-09-03 21:50:47			0	37170	0	0	0	29176	27750	156666	27095	1080612	47114	110848	0	0	8066	574062	0	0
2024-09-03 21:51:47			0	37148	0	0	0	29173	27760	156794	26790	1080540	47114	110847	0	0	8065	574905	0	0
2024-09-03 21:52:47			0	37132	0	0	0	29173	27760	156814	26642	1080540	47114	110847	0	0	8064	575543	0	0
2024-09-03 21:53:47			0	37134	0	0	0	29163	27750	156838	27112	1080549	47102	110843	0	0	8065	575497	0	0
2024-09-03 21:54:47			0	37113	0	0	0	29171	27760	156882	27100	1080630	47115	110846	0	0	8063	576302	0	0
2024-09-03 21:55:47			0	37106	0	0	0	29173	27750	156950	26831	1080639	47102	110847	0	0	8063	576614	0	0
2024-09-03 21:56:47			0	37094	0	0	0	29171	27760	157050	26757	1080576	47125	110846	0	0	8062	577060	0	0
2024-09-03 21:57:47			0	37091	0	0	0	29161	27760	157022	26863	1080576	47092	110842	0	0	8062	577180	0	0
2024-09-03 21:58:47			0	37072	0	0	0	29166	27750	157078	27024	1080522	47102	110844	0	0	8061	577974	0	0
2024-09-03 21:59:47			0	37068	0	0	0	29155	27760	157066	26684	1080567	47114	110840	0	0	8061	578100	0	0
2024-09-03 22:00:47			0	37050	0	0	0	29161	27750	157090	26916	1080558	47102	110842	0	0	8060	578854	0	0
2024-09-03 22:01:47			0	37050	0	0	0	29166	27750	157102	27170	1080558	47125	110844	0	0	8060	578854	0	0
2024-09-03 22:02:47			0	37053	0	0	0	29171	27760	157026	27104	1080486	47102	110846	0	0	8060	578701	0	0
2024-09-03 22:03:47			0	37034	0	0	0	29153	27750	157178	27209	1080504	47114	110839	0	0	8059	579495	0	0
2024-09-03 22:04:47			0	37043	0	0	0	29153	27740	157186	27036	1080459	47113	110839	0	0	8059	579168	0	0
2024-09-03 22:05:47			0	37018	0	0	0	29140	27750	157202	26880	1080477	47102	110834	0	0	8058	580137	0	0
2024-09-03 22:06:47			0	37030	0	0	0	29142	27750	157254	27052	1080549	47114	110835	0	0	8059	579656	0	0
2024-09-03 22:07:47			0	37017	0	0	0	29145	27750	157194	26804	1080387	47102	110836	0	0	8058	580177	0	0
2024-09-03 22:08:47			0	37006	0	0	0	29155	27760	157162	26944	1080513	47114	110840	0	0	8057	580585	0	0
2024-09-03 22:09:47			0	36991	0	0	0	29140	27760	157290	26920	1080567	47114	110834	0	0	8057	581187	0	0
2024-09-03 22:10:47			0	37000	0	0	0	29142	27750	157386	26906	1080468	47091	110835	0	0	8057	580859	0	0
2024-09-03 22:11:47			0	36981	0	0	0	29145	27740	157382	26996	1080504	47100	110836	0	0	8056	581656	0	0
2024-09-03 22:12:47			0	36986	0	0	0	29148	27740	157282	26746	1080477	47100	110837	0	0	8056	581455	0	0
2024-09-03 22:13:47			0	36989	0	0	0	29135	27750	157286	26816	1080468	47091	110832	0	0	8056	581301	0	0
2024-09-03 22:14:47			0	36968	0	0	0	29129	27730	157458	26963	1080441	47100	110830	0	0	8055	582212	0	0
2024-09-03 22:15:47			0	36998	0	0	0	29124	27750	157290	26651	1080495	47114	110828	0	0	8057	580939	0	0
2024-09-03 22:16:47			0	36973	0	0	0	29124	27730	157434	26878	1080414	47100	110828	0	0	8056	582011	0	0
2024-09-03 22:17:47			0	36990	0	0	0	29129	27730	157330	26786	1080414	47100	110830	0	0	8057	581327	0	0
2024-09-03 22:18:47			0	37002	0	0	0	29119	27740	157310	26542	1080396	47112	110826	0	0	8057	580812	0	0
2024-09-03 22:19:47			0	36990	0	0	0	29114	27720	157306	26743	1080369	47088	110824	0	0	8057	581361	0	0
2024-09-03 22:20:47			0	36974	0	0	0	29111	27730	157326	26838	1080360	47089	110823	0	0	8056	581970	0	0
2024-09-03 22:21:47			0	36984	0	0	0	29109	27720	157286	27223	1080333	47087	110822	0	0	8056	581602	0	0
2024-09-03 22:22:47			0	36988	0	0	0	29109	27730	157326	27033	1080324	47100	110822	0	0	8057	581408	0	0
2024-09-03 22:23:47			0	36997	0	0	0	29096	27720	157298	27072	1080360	47098	110817	0	0	8057	581080	0	0
2024-09-03 22:24:47			0	37007	0	0	0	29085	27720	157242	27064	1080333	47076	110813	0	0	8058	580678	0	0
2024-09-03 22:25:47			0	37014	0	0	0	29090	27710	157250	27076	1080243	47098	110815	0	0	8059	580431	0	0
2024-09-03 22:26:47			0	37028	0	0	0	29088	27710	157102	27005	1080287	47097	110814	0	0	8059	579869	0	0
2024-09-03 22:27:47			0	37055	0	0	0	29085	27720	157098	26809	1080333	47087	110813	0	0	8061	578754	0	0
2024-09-03 22:28:47			0	37087	0	0	0	29077	27700	157010	26934	1080269	47096	110810	0	0	8063	577540	0	0
2024-09-03 22:29:47			0	37114	0	0	0	29083	27700	156882	27171	1080225	47108	110812	0	0	8064	576461	0	0
2024-09-03 22:30:47			0	37105	0	0	0	29077	27700	156798	27015	1080242	47085	110810	0	0	8064	576820	0	0
2024-09-03 22:31:47			0	37112	0	0	0	29077	27700	156846	26824	1080215	47096	110810	0	0	8064	576541	0	0
2024-09-03 22:32:47			0	37106	0	0	0	29072	27690	156858	26573	1080143	47095	110808	0	0	8064	576814	0	0
2024-09-03 22:33:47			0	37128	0	0	0	29064	27690	156758	27010	1080143	47107	110805	0	0	8066	575935	0	0
2024-09-03 22:34:47			0	37122	0	0	0	29070	27680	156750	26951	1080161	47095	110807	0	0	8065	576208	0	0
2024-09-03 22:35:47			0	37126	0	0	0	29067	27680	156902	27209	1080161	47107	110806	0	0	8065	576048	0	0
2024-09-03 22:36:47			0	37123	0	0	0	29070	27690	156778	27216	1080197	47095	110807	0	0	8065	576135	0	0
2024-09-03 22:37:47			0	37123	0	0	0	29062	27680	156738	27010	1080098	47105	110804	0	0	8065	576168	0	0
2024-09-03 22:38:47			0	37120	0	0	0	29064	27670	156926	27043	1080089	47093	110805	0	0	8065	576321	0	0
2024-09-03 22:39:47			0	37134	0	0	0	29062	27670	156730	27074	1080089	47104	110804	0	0	8066	575762	0	0
2024-09-03 22:40:47			0	37118	0	0	0	29070	27670	156794	26762	1080107	47104	110807	0	0	8065	576401	0	0
2024-09-03 22:41:47			0	37160	0	0	0	29067	27670	156866	27076	1080143	47093	110806	0	0	8067	574725	0	0
2024-09-03 22:42:47			0	37139	0	0	0	29062	27670	156694	26975	1080116	47083	110804	0	0	8066	575562	0	0
2024-09-03 22:43:47			0	37130	0	0	0	29070	27670	156722	27059	1080107	47093	110807	0	0	8065	575921	0	0
2024-09-03 22:44:47			0	37137	0	0	0	29059	27660	156758	26741	1080035	47103	110803	0	0	8066	575675	0	0
2024-09-03 22:45:47			0	37154	0	0	0	29044	27670	156702	27036	1080107	47116	110797	0	0	8067	574964	0	0
2024-09-03 22:46:47			0	37154	0	0	0	29046	27660	156610	26972	1080089	47103	110798	0	0	8067	574997	0	0
2024-09-03 22:47:47			0	37182	0	0	0	29054	27660	156694	27168	1080116	47092	110801	0	0	8069	573881	0	0
2024-09-03 22:48:47			0	37176	0	0	0	29057	27660	156626	27031	1080062	47092	110802	0	0	8068	574120	0	0
2024-09-03 22:49:47			0	37170	0	0	0	29051	27650	156546	26814	1079999	47102	110800	0	0	8068	574392	0	0
2024-09-03 22:50:47			0	37182	0	0	0	29046	27650	156514	26899	1079990	47102	110798	0	0	8069	573914	0	0
2024-09-03 22:51:47			0	37209	0	0	0	29049	27650	156538	27066	1080053	47102	110799	0	0	8070	572840	0	0
2024-09-03 22:52:47			0	37200	0	0	0	29049	27650	156458	27078	1080017	47102	110799	0	0	8070	573198	0	0
2024-09-03 22:53:47			0	37208	0	0	0	29051	27650	156442	27121	1079990	47102	110800	0	0	8070	572879	0	0
2024-09-03 22:54:47			0	37230	0	0	0	29046	27650	156294	27022	1080017	47102	110798	0	0	8072	572005	0	0
2024-09-03 22:55:47			0	37241	0	0	0	29044	27660	156350	26826	1080062	47103	110797	0	0	8072	571535	0	0
2024-09-03 22:56:47			0	37252	0	0	0	29044	27640	156242	27251	1079971	47090	110797	0	0	8073	571164	0	0
2024-09-03 22:57:47			0	37257	0	0	0	29041	27630	156234	27164	1080016	47112	110796	0	0	8073	570998	0	0
2024-09-03 22:58:47			0	37263	0	0	0	29046	27640	156310	26934	1079971	47101	110798	0	0	8074	570727	0	0
2024-09-03 22:59:47			0	37292	0	0	0	29051	27630	156282	27209	1080016	47089	110800	0	0	8075	569610	0	0
2024-09-03 23:00:47			0	37263	0	0	0	29046	27650	156230	26850	1080017	47102	110798	0	0	8074	570694	0	0
2024-09-03 23:01:47			0	37285	0	0	0	29044	27630	156298	26797	1079926	47112	110797	0	0	8075	569887	0	0
2024-09-03 23:02:47			0	37287	0	0	0	29044	27630	156258	26941	1079962	47089	110797	0	0	8075	569808	0	0
2024-09-03 23:03:47			0	37279	0	0	0	29041	27630	156194	27059	1079989	47112	110796	0	0	8074	570125	0	0
2024-09-03 23:04:47			0	37284	0	0	0	29041	27640	156166	27119	1079981	47101	110796	0	0	8075	569894	0	0
2024-09-03 23:05:47			0	37276	0	0	0	29044	27640	156302	26824	1079971	47090	110797	0	0	8074	570211	0	0
2024-09-03 23:06:47			0	37296	0	0	0	29051	27640	156314	26778	1080034	47090	110800	0	0	8075	569418	0	0
2024-09-03 23:07:47			0	37277	0	0	0	29051	27630	156194	26974	1080007	47112	110800	0	0	8074	570204	0	0
2024-09-03 23:08:47			0	37285	0	0	0	29049	27630	156246	26975	1079953	47100	110799	0	0	8075	569887	0	0
2024-09-03 23:09:47			0	37278	0	0	0	29031	27630	156314	26928	1080007	47100	110792	0	0	8075	570165	0	0
2024-09-03 23:10:47			0	37288	0	0	0	29041	27640	156262	26871	1080025	47101	110796	0	0	8075	569735	0	0
2024-09-03 23:11:47			0	37281	0	0	0	29041	27630	156322	26866	1079980	47100	110796	0	0	8075	570046	0	0
2024-09-03 23:12:47			0	37280	0	0	0	29041	27630	156246	27052	1079980	47100	110796	0	0	8075	570085	0	0
2024-09-03 23:13:47			0	37272	0	0	0	29041	27640	156226	26902	1079981	47090	110796	0	0	8074	570370	0	0
2024-09-03 23:14:47			0	37265	0	0	0	29044	27630	156250	27052	1079962	47112	110797	0	0	8074	570680	0	0
2024-09-03 23:15:47			0	37273	0	0	0	29028	27630	156282	26821	1079953	47100	110791	0	0	8074	570363	0	0
2024-09-03 23:16:47			0	37277	0	0	0	29033	27630	156270	26623	1079953	47112	110793	0	0	8075	570204	0	0
2024-09-03 23:17:47			0	37268	0	0	0	29031	27620	156354	26968	1079944	47088	110792	0	0	8074	570594	0	0
2024-09-03 23:18:47			0	37271	0	0	0	29025	27630	156262	26686	1079962	47100	110790	0	0	8074	570442	0	0
2024-09-03 23:19:47			0	37267	0	0	0	29028	27630	156386	27220	1079935	47100	110791	0	0	8074	570601	0	0
2024-09-03 23:20:47			0	37253	0	0	0	29025	27630	156290	27130	1079899	47100	110790	0	0	8073	571157	0	0
2024-09-03 23:21:47			0	37247	0	0	0	29025	27620	156434	27012	1079881	47099	110790	0	0	8073	571428	0	0
2024-09-03 23:22:47			0	37245	0	0	0	29023	27630	156362	27145	1079926	47100	110789	0	0	8073	571474	0	0
2024-09-03 23:23:47			0	37253	0	0	0	29020	27630	156402	26960	1079801	47100	110788	0	0	8073	571157	0	0
2024-09-03 23:24:47			0	37256	0	0	0	29012	27620	156342	26660	1079809	47088	110785	0	0	8074	571070	0	0
2024-09-03 23:25:47			0	37261	0	0	0	29015	27620	156486	26989	1079917	47099	110786	0	0	8074	570872	0	0
2024-09-03 23:26:47			0	37241	0	0	0	29012	27620	156486	27246	1079854	47099	110785	0	0	8073	571666	0	0
2024-09-03 23:27:47			0	37220	0	0	0	29005	27610	156466	27235	1079836	47109	110782	0	0	8072	572534	0	0
2024-09-03 23:28:47			0	37239	0	0	0	29012	27620	156338	27093	1079863	47099	110785	0	0	8073	571746	0	0
2024-09-03 23:29:47			0	37223	0	0	0	29010	27610	156470	26748	1079899	47087	110784	0	0	8072	572415	0	0
2024-09-03 23:30:47			0	37235	0	0	0	28999	27620	156442	26949	1079827	47111	110780	0	0	8073	571905	0	0
2024-09-03 23:31:47			0	37236	0	0	0	29002	27610	156398	26908	1079755	47097	110781	0	0	8073	571898	0	0
2024-09-03 23:32:47			0	37237	0	0	0	29007	27610	156402	26968	1079818	47098	110783	0	0	8073	571858	0	0
2024-09-03 23:33:47			0	37232	0	0	0	29002	27600	156414	26765	1079746	47076	110781	0	0	8072	572090	0	0
2024-09-03 23:34:47			0	37240	0	0	0	29002	27610	156318	26984	1079890	47086	110781	0	0	8073	571739	0	0
2024-09-03 23:35:47			0	37243	0	0	0	29002	27600	156418	26946	1079791	47120	110781	0	0	8073	571653	0	0
2024-09-03 23:36:47			0	37249	0	0	0	28997	27600	156354	26908	1079800	47109	110779	0	0	8073	571414	0	0
2024-09-03 23:37:47			0	37240	0	0	0	28986	27600	156458	26991	1079800	47086	110775	0	0	8073	571772	0	0
2024-09-03 23:38:47			0	37250	0	0	0	28984	27600	156410	27118	1079737	47086	110774	0	0	8074	571374	0	0
2024-09-03 23:39:47			0	37256	0	0	0	28979	27590	156450	26896	1079773	47084	110772	0	0	8074	571169	0	0
2024-09-03 23:40:47			0	37234	0	0	0	28979	27600	156482	27046	1079764	47097	110772	0	0	8073	572010	0	0
2024-09-03 23:41:47			0	37256	0	0	0	28976	27590	156474	26965	1079728	47096	110771	0	0	8074	571169	0	0
2024-09-03 23:42:47			0	37252	0	0	0	28976	27590	156522	26755	1079746	47107	110771	0	0	8074	571328	0	0
2024-09-03 23:43:47			0	37241	0	0	0	28971	27590	156386	26746	1079746	47095	110769	0	0	8073	571765	0	0
2024-09-03 23:44:47			0	37237	0	0	0	28971	27580	156394	26684	1079710	47084	110769	0	0	8073	571957	0	0
2024-09-03 23:45:47			0	37262	0	0	0	28971	27590	156438	27000	1079773	47074	110769	0	0	8074	570931	0	0
2024-09-03 23:46:47			0	37266	0	0	0	28976	27580	156462	26968	1079647	47083	110771	0	0	8075	570805	0	0
2024-09-03 23:47:47			0	37271	0	0	0	28968	27580	156438	27031	1079674	47094	110768	0	0	8075	570607	0	0
2024-09-03 23:48:47			0	37248	0	0	0	28968	27580	156454	27026	1079683	47095	110768	0	0	8074	571520	0	0
2024-09-03 23:49:47			0	37272	0	0	0	28971	27580	156282	27064	1079656	47095	110769	0	0	8075	570567	0	0
2024-09-03 23:50:47			0	37250	0	0	0	28973	27580	156406	27182	1079674	47106	110770	0	0	8074	571440	0	0
2024-09-03 23:51:47			0	37276	0	0	0	28966	27580	156338	27265	1079620	47106	110767	0	0	8075	570408	0	0
2024-09-03 23:52:47			0	37288	0	0	0	28966	27580	156314	26925	1079674	47094	110767	0	0	8076	569932	0	0
2024-09-03 23:53:47			0	37293	0	0	0	28968	27570	156294	27274	1079602	47093	110768	0	0	8076	569767	0	0
2024-09-03 23:54:47			0	37286	0	0	0	28968	27570	156326	27537	1079665	47073	110768	0	0	8076	570044	0	0
2024-09-03 23:55:47			0	37278	0	0	0	28961	27570	156382	27291	1079602	47083	110765	0	0	8075	570362	0	0
2024-09-03 23:56:47			0	37291	0	0	0	28958	27560	156358	27005	1079637	47092	110764	0	0	8076	569879	0	0
2024-09-03 23:57:47			0	37258	0	0	0	28963	27570	156290	27026	1079656	47105	110766	0	0	8074	571155	0	0
2024-09-03 23:58:47			0	37262	0	0	0	28968	27560	156398	26961	1079593	47105	110768	0	0	8074	571029	0	0
2024-09-03 23:59:47			0	37250	0	0	0	28968	27570	156346	26684	1079629	47093	110768	0	0	8074	571473	0	0
2024-09-04 00:00:47			0	37257	0	0	0	28966	27570	156474	26996	1079665	47083	110767	0	0	8074	571195	0	0
2024-09-04 00:01:47			0	37250	0	0	0	28971	27560	156490	27291	1079593	47093	110769	0	0	8074	571506	0	0
2024-09-04 00:02:47			0	37242	0	0	0	28958	27570	156414	27163	1079575	47105	110764	0	0	8073	571791	0	0
2024-09-04 00:03:47			0	37232	0	0	0	28963	27570	156534	27306	1079575	47083	110766	0	0	8073	572189	0	0
2024-09-04 00:04:47			0	37236	0	0	0	28966	27570	156594	26764	1079575	47093	110767	0	0	8073	572029	0	0
2024-09-04 00:05:47			0	37236	0	0	0	28963	27560	156458	26679	1079584	47092	110766	0	0	8073	572062	0	0
2024-09-04 00:06:47			0	37227	0	0	0	28966	27570	156422	27062	1079602	47093	110767	0	0	8072	572387	0	0
2024-09-04 00:07:47			0	37235	0	0	0	28966	27550	156534	27092	1079548	47104	110767	0	0	8073	572135	0	0
2024-09-04 00:08:47			0	37225	0	0	0	28963	27560	156630	26913	1079566	47105	110766	0	0	8072	572500	0	0
2024-09-04 00:09:47			0	37239	0	0	0	28966	27560	156526	27008	1079557	47104	110767	0	0	8073	571943	0	0
2024-09-04 00:10:47			0	37221	0	0	0	28968	27560	156482	27133	1079584	47092	110768	0	0	8072	572659	0	0
2024-09-04 00:11:47			0	37214	0	0	0	28968	27550	156562	27097	1079574	47104	110768	0	0	8072	572970	0	0
2024-09-04 00:12:47			0	37217	0	0	0	28968	27560	156666	27007	1079620	47083	110768	0	0	8072	572818	0	0
2024-09-04 00:13:47			0	37220	0	0	0	28961	27560	156610	27135	1079503	47082	110765	0	0	8072	572699	0	0
2024-09-04 00:14:47			0	37200	0	0	0	28958	27560	156618	26873	1079539	47083	110764	0	0	8071	573494	0	0
2024-09-04 00:15:47			0	37223	0	0	0	28948	27560	156562	27159	1079593	47105	110760	0	0	8072	572579	0	0
2024-09-04 00:16:47			0	37209	0	0	0	28945	27550	156554	27232	1079494	47092	110759	0	0	8072	573169	0	0
2024-09-04 00:17:47			0	37230	0	0	0	28942	27550	156450	27048	1079565	47081	110758	0	0	8073	572334	0	0
2024-09-04 00:18:47			0	37251	0	0	0	28940	27540	156418	27246	1079502	47091	110757	0	0	8074	571532	0	0
2024-09-04 00:19:47			0	37247	0	0	0	28932	27560	156550	27263	1079530	47092	110754	0	0	8074	571625	0	0
2024-09-04 00:20:47			0	37235	0	0	0	28937	27540	156386	27149	1079476	47103	110756	0	0	8073	572168	0	0
2024-09-04 00:21:47			0	37238	0	0	0	28924	27540	156374	27029	1079476	47081	110751	0	0	8074	572049	0	0
2024-09-04 00:22:47			0	37250	0	0	0	28924	27540	156362	27057	1079368	47091	110751	0	0	8074	571572	0	0
2024-09-04 00:23:47			0	37259	0	0	0	28924	27540	156310	26694	1079449	47091	110751	0	0	8075	571214	0	0
2024-09-04 00:24:47			0	37254	0	0	0	28909	27540	156334	27142	1079466	47080	110745	0	0	8075	571413	0	0
2024-09-04 00:25:47			0	37261	0	0	0	28911	27530	156350	27149	1079376	47102	110746	0	0	8075	571168	0	0
2024-09-04 00:26:47			0	37252	0	0	0	28906	27530	156354	26961	1079403	47080	110744	0	0	8075	571525	0	0
2024-09-04 00:27:47			0	37274	0	0	0	28914	27530	156358	27048	1079313	47089	110747	0	0	8076	570652	0	0
2024-09-04 00:28:47			0	37277	0	0	0	28906	27520	156266	26805	1079412	47088	110744	0	0	8076	570565	0	0
2024-09-04 00:29:47			0	37276	0	0	0	28909	27530	156262	27135	1079367	47079	110745	0	0	8076	570572	0	0
2024-09-04 00:30:47			0	37274	0	0	0	28901	27520	156346	26922	1079358	47100	110742	0	0	8076	570684	0	0
2024-09-04 00:31:47			0	37272	0	0	0	28911	27530	156346	26828	1079367	47101	110746	0	0	8076	570731	0	0
2024-09-04 00:32:47			0	37274	0	0	0	28896	27520	156298	27156	1079331	47088	110740	0	0	8076	570684	0	0
2024-09-04 00:33:47			0	37276	0	0	0	28901	27530	156258	26913	1079367	47079	110742	0	0	8076	570572	0	0
2024-09-04 00:34:47			0	37273	0	0	0	28898	27510	156262	27093	1079268	47088	110741	0	0	8076	570757	0	0
2024-09-04 00:35:47			0	37265	0	0	0	28901	27510	156254	27088	1079295	47078	110742	0	0	8075	571075	0	0
2024-09-04 00:36:47			0	37258	0	0	0	28903	27510	156274	27074	1079286	47087	110743	0	0	8075	571353	0	0
2024-09-04 00:37:47			0	37266	0	0	0	28903	27500	156254	27183	1079304	47077	110743	0	0	8075	571068	0	0
2024-09-04 00:38:47			0	37258	0	0	0	28906	27500	156302	26885	1079331	47087	110744	0	0	8075	571385	0	0
2024-09-04 00:39:47			0	37268	0	0	0	28893	27510	156290	26934	1079259	47087	110739	0	0	8076	570955	0	0
2024-09-04 00:40:47			0	37270	0	0	0	28893	27500	156346	27336	1079250	47087	110739	0	0	8076	570909	0	0
2024-09-04 00:41:47			0	37275	0	0	0	28893	27490	156290	27057	1079205	47109	110739	0	0	8076	570743	0	0
2024-09-04 00:42:47			0	37256	0	0	0	28898	27500	156398	27093	1079214	47086	110741	0	0	8075	571465	0	0
2024-09-04 00:43:47			0	37275	0	0	0	28890	27500	156374	27279	1079241	47109	110738	0	0	8076	570710	0	0
2024-09-04 00:44:47			0	37290	0	0	0	28890	27490	156310	27041	1079205	47098	110738	0	0	8077	570148	0	0
2024-09-04 00:45:47			0	37262	0	0	0	28888	27500	156382	27031	1079250	47110	110737	0	0	8075	571227	0	0
2024-09-04 00:46:47			0	37272	0	0	0	28896	27490	156222	27053	1079277	47085	110740	0	0	8076	570862	0	0
2024-09-04 00:47:47			0	37290	0	0	0	28888	27500	156302	26955	1079160	47109	110737	0	0	8077	570115	0	0
2024-09-04 00:48:47			0	37287	0	0	0	28893	27500	156190	26923	1079304	47087	110739	0	0	8077	570234	0	0
2024-09-04 00:49:47			0	37297	0	0	0	28870	27490	156198	27157	1079223	47085	110730	0	0	8078	569870	0	0
2024-09-04 00:50:47			0	37322	0	0	0	28867	27490	156139	26994	1079205	47098	110729	0	0	8079	568880	0	0
2024-09-04 00:51:47			0	37301	0	0	0	28862	27480	155998	27067	1079097	47084	110727	0	0	8078	569745	0	0
2024-09-04 00:52:47			0	37352	0	0	0	28864	27480	155995	27422	1079106	47085	110728	0	0	8081	567725	0	0
2024-09-04 00:53:47			0	37368	0	0	0	28867	27480	155959	26896	1079151	47084	110729	0	0	8082	567092	0	0
2024-09-04 00:54:47			0	37366	0	0	0	28851	27470	155903	27118	1079088	47084	110723	0	0	8082	567204	0	0
2024-09-04 00:55:47			0	37386	0	0	0	28857	27480	155763	27426	1079097	47084	110725	0	0	8083	566381	0	0
2024-09-04 00:56:47			0	37419	0	0	0	28844	27470	155739	27163	1079079	47095	110720	0	0	8085	565111	0	0
2024-09-04 00:57:47			0	37440	0	0	0	28854	27470	155623	27128	1079088	47074	110724	0	0	8086	564283	0	0
2024-09-04 00:58:47			0	37474	0	0	0	28846	27470	155591	27251	1079052	47095	110721	0	0	8088	562945	0	0
2024-09-04 00:59:47			0	37499	0	0	0	28849	27460	155391	27372	1079016	47083	110722	0	0	8090	561994	0	0
2024-09-04 01:00:47			0	37509	0	0	0	28825	27460	155371	27060	1078980	47083	110713	0	0	8091	561601	0	0
2024-09-04 01:01:47			0	37538	0	0	0	28823	27450	155307	27216	1078944	47094	110712	0	0	8092	560495	0	0
2024-09-04 01:02:47			0	37558	0	0	0	28838	27450	155187	27187	1078998	47083	110718	0	0	8093	559711	0	0
2024-09-04 01:03:47			0	37575	0	0	0	28823	27460	155203	27400	1078953	47083	110712	0	0	8095	559012	0	0
2024-09-04 01:04:47			0	37563	0	0	0	28812	27450	155219	26876	1078908	47071	110708	0	0	8094	559515	0	0
2024-09-04 01:05:47			0	37577	0	0	0	28815	27450	155103	27289	1078935	47082	110709	0	0	8095	558966	0	0
2024-09-04 01:06:47			0	37584	0	0	0	28818	27440	155143	27234	1078926	47081	110710	0	0	8095	558724	0	0
2024-09-04 01:07:47			0	37599	0	0	0	28815	27450	154987	27281	1078908	47071	110709	0	0	8096	558105	0	0
2024-09-04 01:08:47			0	37609	0	0	0	28812	27440	154991	27204	1078944	47091	110708	0	0	8097	557746	0	0
2024-09-04 01:09:47			0	37628	0	0	0	28810	27420	155059	27344	1078890	47090	110707	0	0	8098	557067	0	0
2024-09-04 01:10:47			0	37623	0	0	0	28810	27430	155019	27241	1078908	47081	110707	0	0	8097	557231	0	0
2024-09-04 01:11:47			0	37613	0	0	0	28802	27430	155015	27026	1078881	47070	110704	0	0	8097	557622	0	0
2024-09-04 01:12:47			0	37592	0	0	0	28812	27430	155083	26977	1078899	47080	110708	0	0	8096	558443	0	0
2024-09-04 01:13:47			0	37611	0	0	0	28815	27420	155191	27242	1078836	47079	110709	0	0	8097	557732	0	0
2024-09-04 01:14:47			0	37587	0	0	0	28812	27420	155075	27081	1078836	47079	110708	0	0	8095	558671	0	0
2024-09-04 01:15:47			0	37584	0	0	0	28802	27420	155083	26948	1078800	47090	110704	0	0	8095	558788	0	0
2024-09-04 01:16:47			0	37618	0	0	0	28815	27420	155079	27306	1078854	47079	110709	0	0	8097	557458	0	0
2024-09-04 01:17:47			0	37621	0	0	0	28815	27430	155075	27229	1078818	47091	110709	0	0	8097	557309	0	0
2024-09-04 01:18:47			0	37619	0	0	0	28818	27420	155015	27199	1078836	47079	110710	0	0	8097	557419	0	0
2024-09-04 01:19:47			0	37609	0	0	0	28812	27430	154975	26993	1078845	47080	110708	0	0	8097	557778	0	0
2024-09-04 01:20:47			0	37617	0	0	0	28815	27420	155019	26951	1078836	47090	110709	0	0	8097	557497	0	0
2024-09-04 01:21:47			0	37622	0	0	0	28815	27420	155131	27024	1078827	47079	110709	0	0	8097	557302	0	0
2024-09-04 01:22:47			0	37612	0	0	0	28818	27430	155095	26734	1078899	47080	110710	0	0	8097	557661	0	0
2024-09-04 01:23:47			0	37602	0	0	0	28820	27410	155059	26774	1078764	47088	110711	0	0	8096	558116	0	0
2024-09-04 01:24:47			0	37610	0	0	0	28810	27430	155059	27012	1078845	47091	110707	0	0	8097	557739	0	0
2024-09-04 01:25:47			0	37615	0	0	0	28794	27420	155107	27107	1078836	47079	110701	0	0	8097	557575	0	0
2024-09-04 01:26:47			0	37610	0	0	0	28799	27410	155055	27263	1078818	47088	110703	0	0	8097	557803	0	0
2024-09-04 01:27:47			0	37617	0	0	0	28786	27410	155091	27034	1078781	47088	110698	0	0	8097	557529	0	0
2024-09-04 01:28:47			0	37624	0	0	0	28799	27410	154999	26785	1078781	47078	110703	0	0	8098	557256	0	0
2024-09-04 01:29:47			0	37613	0	0	0	28797	27410	155091	27293	1078754	47078	110702	0	0	8097	557686	0	0
2024-09-04 01:30:47			0	37622	0	0	0	28799	27410	155067	27144	1078791	47088	110703	0	0	8097	557334	0	0
2024-09-04 01:31:47			0	37642	0	0	0	28797	27410	155087	27260	1078754	47088	110702	0	0	8099	556552	0	0
2024-09-04 01:32:47			0	37620	0	0	0	28802	27410	155139	26982	1078791	47088	110704	0	0	8097	557412	0	0
2024-09-04 01:33:47			0	37617	0	0	0	28797	27410	155203	27137	1078791	47078	110702	0	0	8097	557529	0	0
2024-09-04 01:34:47			0	37613	0	0	0	28794	27400	155151	27154	1078745	47087	110701	0	0	8097	557718	0	0
2024-09-04 01:35:47			0	37621	0	0	0	28805	27390	155155	26783	1078727	47086	110705	0	0	8097	557437	0	0
2024-09-04 01:36:47			0	37610	0	0	0	28794	27400	155191	27197	1078736	47076	110701	0	0	8097	557835	0	0
2024-09-04 01:37:47			0	37621	0	0	0	28797	27400	155155	26925	1078745	47077	110702	0	0	8097	557405	0	0
2024-09-04 01:38:47			0	37615	0	0	0	28792	27400	155139	26928	1078763	47086	110700	0	0	8097	557640	0	0
2024-09-04 01:39:47			0	37636	0	0	0	28789	27400	155119	26925	1078709	47098	110699	0	0	8098	556819	0	0
2024-09-04 01:40:47			0	37622	0	0	0	28786	27410	155071	26831	1078754	47088	110698	0	0	8098	557334	0	0
2024-09-04 01:41:47			0	37611	0	0	0	28781	27400	155107	26786	1078682	47086	110696	0	0	8097	557796	0	0
2024-09-04 01:42:47			0	37626	0	0	0	28784	27390	155095	27274	1078673	47076	110697	0	0	8098	557242	0	0
2024-09-04 01:43:47			0	37627	0	0	0	28774	27390	155123	27161	1078620	47086	110693	0	0	8098	557202	0	0
2024-09-04 01:44:47			0	37617	0	0	0	28771	27390	155107	27213	1078673	47076	110692	0	0	8098	557593	0	0
2024-09-04 01:45:47			0	37620	0	0	0	28771	27390	155199	27140	1078637	47086	110692	0	0	8098	557476	0	0
2024-09-04 01:46:47			0	37619	0	0	0	28763	27380	155167	26922	1078673	47096	110689	0	0	8098	557547	0	0
2024-09-04 01:47:47			0	37602	0	0	0	28781	27390	155167	27121	1078664	47076	110696	0	0	8097	558180	0	0
2024-09-04 01:48:47			0	37616	0	0	0	28768	27390	155231	27249	1078610	47065	110691	0	0	8098	557632	0	0
2024-09-04 01:49:47			0	37606	0	0	0	28768	27370	155239	26800	1078583	47084	110691	0	0	8097	558088	0	0
2024-09-04 01:50:47			0	37583	0	0	0	28768	27380	155243	26979	1078574	47075	110691	0	0	8096	558956	0	0
2024-09-04 01:51:47			0	37595	0	0	0	28766	27370	155263	27244	1078610	47063	110690	0	0	8096	558518	0	0
2024-09-04 01:52:47			0	37602	0	0	0	28763	27380	155211	27199	1078592	47096	110689	0	0	8097	558212	0	0
2024-09-04 01:53:47			0	37596	0	0	0	28763	27380	155263	27079	1078619	47084	110689	0	0	8096	558447	0	0
2024-09-04 01:54:47			0	37608	0	0	0	28758	27370	155207	27194	1078583	47096	110687	0	0	8097	558009	0	0
2024-09-04 01:55:47			0	37603	0	0	0	28750	27370	155235	27088	1078583	47084	110684	0	0	8097	558205	0	0
2024-09-04 01:56:47			0	37600	0	0	0	28745	27370	155247	27159	1078493	47096	110682	0	0	8097	558323	0	0
2024-09-04 01:57:47			0	37596	0	0	0	28745	27370	155179	27092	1078520	47096	110682	0	0	8097	558479	0	0
2024-09-04 01:58:47			0	37583	0	0	0	28742	27370	155219	26956	1078583	47074	110681	0	0	8096	558988	0	0
2024-09-04 01:59:47			0	37578	0	0	0	28740	27360	155299	27000	1078538	47073	110680	0	0	8096	559216	0	0
2024-09-04 02:00:47			0	37578	0	0	0	28742	27360	155263	27062	1078556	47072	110681	0	0	8096	559216	0	0
2024-09-04 02:01:47			0	37579	0	0	0	28740	27360	155315	26955	1078502	47083	110680	0	0	8096	559177	0	0
2024-09-04 02:02:47			0	37565	0	0	0	28737	27360	155299	26974	1078448	47083	110679	0	0	8095	559726	0	0
2024-09-04 02:03:47			0	37567	0	0	0	28737	27350	155211	26802	1078493	47072	110679	0	0	8095	559679	0	0
2024-09-04 02:04:47			0	37557	0	0	0	28735	27350	155335	27031	1078430	47072	110678	0	0	8095	560072	0	0
2024-09-04 02:05:47			0	37574	0	0	0	28740	27340	155279	26642	1078394	47082	110680	0	0	8095	559437	0	0
2024-09-04 02:06:47			0	37587	0	0	0	28732	27340	155199	26963	1078448	47071	110677	0	0	8096	558928	0	0
2024-09-04 02:07:47			0	37602	0	0	0	28737	27340	155167	26965	1078475	47071	110679	0	0	8097	558341	0	0
2024-09-04 02:08:47			0	37591	0	0	0	28735	27340	155235	27090	1078448	47082	110678	0	0	8096	558771	0	0
2024-09-04 02:09:47			0	37598	0	0	0	28735	27330	155071	27013	1078484	47080	110678	0	0	8097	558529	0	0
2024-09-04 02:10:47			0	37621	0	0	0	28742	27340	155119	27012	1078475	47093	110681	0	0	8098	557597	0	0
2024-09-04 02:11:47			0	37630	0	0	0	28732	27340	155019	27197	1078448	47071	110677	0	0	8099	557245	0	0
2024-09-04 02:12:47			0	37636	0	0	0	28732	27340	155023	27225	1078412	47081	110677	0	0	8099	557011	0	0
2024-09-04 02:13:47			0	37632	0	0	0	28737	27340	154971	27060	1078412	47092	110679	0	0	8099	557167	0	0
2024-09-04 02:14:47			0	37636	0	0	0	28729	27340	155039	27400	1078367	47071	110676	0	0	8099	557011	0	0
2024-09-04 02:15:47			0	37657	0	0	0	28732	27340	154967	27164	1078358	47081	110677	0	0	8100	556190	0	0
2024-09-04 02:16:47			0	37639	0	0	0	28732	27340	155007	26994	1078421	47071	110677	0	0	8099	556894	0	0
2024-09-04 02:17:47			0	37636	0	0	0	28727	27330	155039	27033	1078349	47069	110675	0	0	8099	557043	0	0
2024-09-04 02:18:47			0	37656	0	0	0	28727	27330	155035	27092	1078403	47080	110675	0	0	8100	556261	0	0
2024-09-04 02:19:47			0	37646	0	0	0	28719	27330	154995	27390	1078394	47069	110672	0	0	8100	556652	0	0
2024-09-04 02:20:47			0	37657	0	0	0	28727	27330	155011	27187	1078340	47069	110675	0	0	8100	556222	0	0
2024-09-04 02:21:47			0	37665	0	0	0	28729	27320	154975	27145	1078322	47079	110676	0	0	8101	555942	0	0
2024-09-04 02:22:47			0	37643	0	0	0	28722	27320	154955	27142	1078331	47069	110673	0	0	8100	556801	0	0
2024-09-04 02:23:47			0	37657	0	0	0	28724	27320	154983	26899	1078295	47068	110674	0	0	8100	556254	0	0
2024-09-04 02:24:47			0	37646	0	0	0	28729	27320	154919	26998	1078322	47079	110676	0	0	8100	556684	0	0
2024-09-04 02:25:47			0	37659	0	0	0	28727	27330	155071	27007	1078367	47080	110675	0	0	8100	556144	0	0
2024-09-04 02:26:47			0	37640	0	0	0	28722	27320	155015	27078	1078241	47090	110673	0	0	8099	556918	0	0
2024-09-04 02:27:47			0	37653	0	0	0	28714	27320	155003	27066	1078295	47068	110670	0	0	8100	556411	0	0
2024-09-04 02:28:47			0	37662	0	0	0	28716	27330	155019	27199	1078367	47080	110671	0	0	8101	556027	0	0
2024-09-04 02:29:47			0	37651	0	0	0	28711	27330	154963	27180	1078367	47058	110669	0	0	8100	556457	0	0
2024-09-04 02:30:47			0	37654	0	0	0	28716	27320	155035	27133	1078331	47080	110671	0	0	8100	556371	0	0
2024-09-04 02:31:47			0	37656	0	0	0	28706	27330	154991	27293	1078313	47080	110667	0	0	8101	556261	0	0
2024-09-04 02:32:47			0	37647	0	0	0	28701	27310	155135	27189	1078313	47078	110665	0	0	8100	556677	0	0
2024-09-04 02:33:47			0	37640	0	0	0	28693	27320	155051	27239	1078358	47080	110662	0	0	8100	556918	0	0
2024-09-04 02:34:47			0	37639	0	0	0	28693	27310	155067	27362	1078259	47078	110662	0	0	8100	556990	0	0
2024-09-04 02:35:47			0	37634	0	0	0	28690	27320	154991	26844	1078322	47079	110661	0	0	8100	557153	0	0
2024-09-04 02:36:47			0	37643	0	0	0	28693	27310	155075	26961	1078277	47089	110662	0	0	8100	556833	0	0
2024-09-04 02:37:47			0	37641	0	0	0	28690	27300	155103	26960	1078160	47067	110661	0	0	8100	556943	0	0
2024-09-04 02:38:47			0	37626	0	0	0	28688	27300	155099	26906	1078214	47067	110660	0	0	8099	557530	0	0
2024-09-04 02:39:47			0	37634	0	0	0	28688	27290	155131	26765	1078196	47053	110660	0	0	8100	557249	0	0
2024-09-04 02:40:47			0	37636	0	0	0	28685	27300	155047	27097	1078178	47055	110659	0	0	8100	557139	0	0
2024-09-04 02:41:47			0	37629	0	0	0	28675	27300	155227	27031	1078241	47067	110655	0	0	8099	557412	0	0
2024-09-04 02:42:47			0	37620	0	0	0	28675	27290	155167	27095	1078160	47065	110655	0	0	8099	557797	0	0
2024-09-04 02:43:47			0	37609	0	0	0	28675	27290	155183	27407	1078133	47065	110655	0	0	8098	558227	0	0
2024-09-04 02:44:47			0	37621	0	0	0	28672	27290	155151	27360	1078142	47065	110654	0	0	8099	557757	0	0
2024-09-04 02:45:47			0	37628	0	0	0	28675	27280	155211	27005	1078141	47053	110655	0	0	8099	557516	0	0
2024-09-04 02:46:47			0	37603	0	0	0	28677	27290	155339	27216	1078169	47065	110656	0	0	8098	558462	0	0
2024-09-04 02:47:47			0	37601	0	0	0	28683	27280	155275	27220	1078151	47076	110658	0	0	8098	558572	0	0
2024-09-04 02:48:47			0	37581	0	0	0	28670	27290	155231	27111	1078169	47053	110653	0	0	8097	559324	0	0
2024-09-04 02:49:47			0	37587	0	0	0	28672	27280	155319	27152	1078115	47075	110654	0	0	8097	559120	0	0
2024-09-04 02:50:47			0	37586	0	0	0	28667	27280	155303	27107	1078141	47064	110652	0	0	8097	559160	0	0
2024-09-04 02:51:47			0	37580	0	0	0	28677	27270	155327	26691	1078132	47074	110656	0	0	8096	559427	0	0
2024-09-04 02:52:47			0	37557	0	0	0	28680	27270	155343	27012	1078159	47074	110657	0	0	8095	560329	0	0
2024-09-04 02:53:47			0	37565	0	0	0	28667	27270	155399	27185	1078079	47074	110652	0	0	8096	560015	0	0
2024-09-04 02:54:47			0	37565	0	0	0	28672	27280	155363	27079	1078061	47075	110654	0	0	8096	559983	0	0
2024-09-04 02:55:47			0	37562	0	0	0	28670	27280	155327	26788	1078115	47075	110653	0	0	8096	560101	0	0
2024-09-04 02:56:47			0	37567	0	0	0	28675	27280	155447	27253	1078061	47075	110655	0	0	8096	559905	0	0
2024-09-04 02:57:47			0	37575	0	0	0	28680	27280	155391	27144	1078088	47086	110657	0	0	8096	559591	0	0
2024-09-04 02:58:47			0	37565	0	0	0	28675	27260	155275	27242	1078114	47073	110655	0	0	8096	560047	0	0
2024-09-04 02:59:47			0	37567	0	0	0	28675	27270	155371	27287	1078079	47074	110655	0	0	8096	559937	0	0
2024-09-04 03:00:47			0	37567	0	0	0	28670	27270	155463	27130	1078096	47084	110653	0	0	8096	559937	0	0
2024-09-04 03:01:47			0	37556	0	0	0	28667	27280	155435	26863	1078168	47064	110652	0	0	8095	560336	0	0
2024-09-04 03:02:47			0	37571	0	0	0	28659	27270	155359	27095	1078096	47084	110649	0	0	8096	559780	0	0
2024-09-04 03:03:47			0	37573	0	0	0	28667	27270	155387	27060	1078105	47063	110652	0	0	8096	559701	0	0
2024-09-04 03:04:47			0	37578	0	0	0	28657	27270	155291	26994	1078016	47062	110648	0	0	8097	559505	0	0
2024-09-04 03:05:47			0	37570	0	0	0	28649	27270	155307	27235	1078016	47073	110645	0	0	8096	559819	0	0
2024-09-04 03:06:47			0	37564	0	0	0	28644	27260	155347	27332	1078034	47073	110643	0	0	8096	560087	0	0
2024-09-04 03:07:47			0	37584	0	0	0	28638	27250	155331	27332	1077988	47061	110641	0	0	8097	559334	0	0
2024-09-04 03:08:47			0	37573	0	0	0	28633	27260	155367	27440	1077998	47073	110639	0	0	8097	559733	0	0
2024-09-04 03:09:47			0	37567	0	0	0	28636	27250	155395	27275	1077979	47071	110640	0	0	8096	560001	0	0
2024-09-04 03:10:47			0	37552	0	0	0	28628	27250	155463	27197	1077908	47072	110637	0	0	8096	560590	0	0
2024-09-04 03:11:47			0	37539	0	0	0	28625	27250	155351	27050	1077935	47072	110636	0	0	8095	561100	0	0
2024-09-04 03:12:47			0	37559	0	0	0	28618	27250	155527	27261	1077854	47061	110633	0	0	8096	560315	0	0
2024-09-04 03:13:47			0	37564	0	0	0	28607	27250	155395	27156	1077872	47071	110629	0	0	8097	560119	0	0
2024-09-04 03:14:47			0	37543	0	0	0	28620	27240	155431	27281	1077836	47071	110634	0	0	8095	560975	0	0
2024-09-04 03:15:47			0	37551	0	0	0	28610	27230	155391	27405	1077871	47059	110630	0	0	8096	560693	0	0
2024-09-04 03:16:47			0	37540	0	0	0	28618	27240	155487	27026	1077773	47060	110633	0	0	8095	561093	0	0
2024-09-04 03:17:47			0	37556	0	0	0	28605	27230	155491	27171	1077791	47070	110628	0	0	8096	560497	0	0
2024-09-04 03:18:47			0	37542	0	0	0	28607	27230	155463	27393	1077755	47069	110629	0	0	8095	561047	0	0
2024-09-04 03:19:47			0	37526	0	0	0	28605	27230	155435	27426	1077836	47069	110628	0	0	8094	561675	0	0
2024-09-04 03:20:47			0	37529	0	0	0	28594	27230	155511	27180	1077809	47069	110624	0	0	8095	561557	0	0
2024-09-04 03:21:47			0	37534	0	0	0	28602	27230	155567	27029	1077782	47069	110627	0	0	8095	561361	0	0
2024-09-04 03:22:47			0	37537	0	0	0	28592	27210	155575	27429	1077683	47069	110623	0	0	8095	561308	0	0
2024-09-04 03:23:47			0	37532	0	0	0	28592	27220	155543	27281	1077800	47069	110623	0	0	8095	561472	0	0
2024-09-04 03:24:47			0	37536	0	0	0	28589	27210	155587	27055	1077710	47058	110622	0	0	8095	561347	0	0
2024-09-04 03:25:47			0	37517	0	0	0	28579	27210	155627	27313	1077701	47045	110618	0	0	8094	562094	0	0
2024-09-04 03:26:47			0	37531	0	0	0	28589	27200	155663	27386	1077736	47043	110622	0	0	8095	561576	0	0
2024-09-04 03:27:47			0	37532	0	0	0	28581	27200	155555	26949	1077656	47066	110619	0	0	8095	561536	0	0
2024-09-04 03:28:47			0	37530	0	0	0	28571	27200	155587	27222	1077709	47077	110615	0	0	8095	561615	0	0
2024-09-04 03:29:47			0	37516	0	0	0	28584	27200	155579	27170	1077548	47066	110620	0	0	8094	562165	0	0
2024-09-04 03:30:47			0	37537	0	0	0	28579	27200	155515	27320	1077629	47055	110618	0	0	8095	561340	0	0
2024-09-04 03:31:47			0	37535	0	0	0	28563	27190	155571	27005	1077584	47066	110612	0	0	8095	561451	0	0
2024-09-04 03:32:47			0	37506	0	0	0	28566	27190	155719	26741	1077584	47055	110613	0	0	8094	562591	0	0
2024-09-04 03:33:47			0	37515	0	0	0	28558	27190	155627	27008	1077566	47066	110610	0	0	8094	562237	0	0
2024-09-04 03:34:47			0	37518	0	0	0	28566	27190	155627	27097	1077566	47055	110613	0	0	8094	562119	0	0
2024-09-04 03:35:47			0	37497	0	0	0	28561	27170	155663	26996	1077476	47064	110611	0	0	8093	563010	0	0
2024-09-04 03:36:47			0	37508	0	0	0	28553	27180	155731	27039	1077539	47076	110608	0	0	8094	562544	0	0
2024-09-04 03:37:47			0	37494	0	0	0	28550	27180	155639	27339	1077458	47064	110607	0	0	8093	563095	0	0
2024-09-04 03:38:47			0	37509	0	0	0	28553	27170	155643	27190	1077449	47053	110608	0	0	8094	562537	0	0
2024-09-04 03:39:47			0	37510	0	0	0	28550	27170	155695	27197	1077503	47064	110607	0	0	8094	562498	0	0
2024-09-04 03:40:47			0	37484	0	0	0	28548	27170	155731	27109	1077467	47064	110606	0	0	8093	563522	0	0
2024-09-04 03:41:47			0	37495	0	0	0	28550	27170	155723	27248	1077413	47053	110607	0	0	8093	563089	0	0
2024-09-04 03:42:47			0	37500	0	0	0	28548	27160	155739	27270	1077431	47075	110606	0	0	8093	562924	0	0
2024-09-04 03:43:47			0	37493	0	0	0	28545	27160	155719	27244	1077368	47062	110605	0	0	8093	563199	0	0
2024-09-04 03:44:47			0	37493	0	0	0	28537	27160	155811	26963	1077394	47073	110602	0	0	8093	563199	0	0
2024-09-04 03:45:47			0	37491	0	0	0	28529	27160	155759	27060	1077394	47051	110599	0	0	8093	563278	0	0
2024-09-04 03:46:47			0	37480	0	0	0	28511	27160	155723	27109	1077341	47062	110592	0	0	8093	563712	0	0
2024-09-04 03:47:47			0	37475	0	0	0	28514	27150	155775	27175	1077332	47062	110593	0	0	8093	563941	0	0
2024-09-04 03:48:47			0	37474	0	0	0	28503	27150	155891	27036	1077349	47051	110589	0	0	8093	563980	0	0
2024-09-04 03:49:47			0	37468	0	0	0	28498	27140	155855	27102	1077304	47049	110587	0	0	8092	564249	0	0
2024-09-04 03:50:47			0	37465	0	0	0	28485	27140	155843	27074	1077278	47049	110582	0	0	8092	564368	0	0
2024-09-04 03:51:47			0	37466	0	0	0	28480	27130	155935	27296	1077242	47060	110580	0	0	8093	564361	0	0
2024-09-04 03:52:47			0	37443	0	0	0	28488	27130	155899	27114	1077206	47048	110583	0	0	8091	565268	0	0
2024-09-04 03:53:47			0	37454	0	0	0	28488	27120	156007	26906	1077187	47058	110583	0	0	8092	564866	0	0
2024-09-04 03:54:47			0	37446	0	0	0	28485	27120	156007	26956	1077161	47058	110582	0	0	8091	565182	0	0
2024-09-04 03:55:47			0	37426	0	0	0	28480	27110	156011	26996	1077169	47046	110580	0	0	8090	566004	0	0
2024-09-04 03:56:47			0	37439	0	0	0	28483	27110	156003	27027	1077116	47046	110581	0	0	8091	565491	0	0
2024-09-04 03:57:47			0	37439	0	0	0	28477	27100	156071	27020	1077133	47057	110579	0	0	8091	565523	0	0
2024-09-04 03:58:47			0	37425	0	0	0	28480	27110	155995	27074	1077151	47057	110580	0	0	8090	566044	0	0
2024-09-04 03:59:47			0	37426	0	0	0	28470	27110	156023	27041	1077142	47057	110576	0	0	8090	566004	0	0
2024-09-04 04:00:47			0	37433	0	0	0	28477	27100	155983	27079	1077106	47057	110579	0	0	8090	565760	0	0
2024-09-04 04:01:47			0	37426	0	0	0	28470	27090	156083	26932	1077035	47044	110576	0	0	8090	566069	0	0
2024-09-04 04:02:47			0	37391	0	0	0	28467	27100	156163	27107	1077106	47057	110575	0	0	8088	567421	0	0
2024-09-04 04:03:47			0	37414	0	0	0	28464	27100	156163	26831	1077044	47045	110574	0	0	8090	566511	0	0
2024-09-04 04:04:47			0	37411	0	0	0	28470	27090	156119	26844	1077035	47066	110576	0	0	8089	566662	0	0
2024-09-04 04:05:47			0	37397	0	0	0	28464	27090	156127	26889	1077106	47055	110574	0	0	8089	567216	0	0
2024-09-04 04:06:47			0	37406	0	0	0	28467	27080	156131	26880	1077043	47055	110575	0	0	8089	566892	0	0
2024-09-04 04:07:47			0	37388	0	0	0	28470	27090	156319	27154	1077106	47044	110576	0	0	8088	567572	0	0
2024-09-04 04:08:47			0	37380	0	0	0	28451	27080	156231	27100	1077061	47054	110569	0	0	8088	567921	0	0
2024-09-04 04:09:47			0	37386	0	0	0	28454	27070	156231	26859	1076945	47042	110570	0	0	8088	567716	0	0
2024-09-04 04:10:47			0	37374	0	0	0	28441	27080	156155	27109	1077034	47043	110565	0	0	8088	568159	0	0
2024-09-04 04:11:47			0	37378	0	0	0	28449	27070	156287	27107	1076998	47053	110568	0	0	8088	568033	0	0
2024-09-04 04:12:47			0	37378	0	0	0	28444	27070	156391	26817	1076998	47053	110566	0	0	8088	568033	0	0
2024-09-04 04:13:47			0	37364	0	0	0	28444	27070	156275	26873	1076918	47053	110566	0	0	8087	568588	0	0
2024-09-04 04:14:47			0	37371	0	0	0	28454	27070	156315	27071	1076962	47053	110570	0	0	8087	568310	0	0
2024-09-04 04:15:47			0	37361	0	0	0	28446	27060	156331	26946	1076953	47063	110567	0	0	8087	568739	0	0
2024-09-04 04:16:47			0	37368	0	0	0	28449	27060	156319	26963	1076980	47052	110568	0	0	8087	568462	0	0
2024-09-04 04:17:47			0	37356	0	0	0	28451	27060	156403	26738	1076944	47063	110569	0	0	8086	568937	0	0
2024-09-04 04:18:47			0	37356	0	0	0	28444	27060	156435	27124	1077007	47052	110566	0	0	8086	568937	0	0
2024-09-04 04:19:47			0	37346	0	0	0	28446	27060	156411	26923	1076917	47030	110567	0	0	8086	569334	0	0
2024-09-04 04:20:47			0	37355	0	0	0	28441	27060	156499	27123	1076944	47063	110565	0	0	8086	568977	0	0
2024-09-04 04:21:47			0	37344	0	0	0	28433	27060	156399	27012	1076890	47052	110562	0	0	8086	569413	0	0
2024-09-04 04:22:47			0	37338	0	0	0	28433	27050	156495	27211	1076899	47041	110562	0	0	8085	569684	0	0
2024-09-04 04:23:47			0	37337	0	0	0	28431	27050	156459	26720	1076854	47062	110561	0	0	8085	569724	0	0
2024-09-04 04:24:47			0	37325	0	0	0	28433	27040	156402	26994	1076863	47050	110562	0	0	8085	570233	0	0
2024-09-04 04:25:47			0	37328	0	0	0	28425	27050	156499	27396	1076818	47041	110559	0	0	8085	570081	0	0
2024-09-04 04:26:47			0	37330	0	0	0	28446	27040	156455	27071	1076863	47040	110567	0	0	8085	570034	0	0
2024-09-04 04:27:47			0	37317	0	0	0	28449	27040	156450	26984	1076827	47061	110568	0	0	8084	570550	0	0
2024-09-04 04:28:47			0	37308	0	0	0	28449	27050	156534	27156	1076801	47051	110568	0	0	8083	570875	0	0
2024-09-04 04:29:47			0	37295	0	0	0	28446	27040	156462	27111	1076854	47050	110567	0	0	8083	571425	0	0
2024-09-04 04:30:47			0	37309	0	0	0	28444	27050	156502	27194	1076854	47041	110566	0	0	8084	570836	0	0
2024-09-04 04:31:47			0	37318	0	0	0	28436	27050	156591	27098	1076872	47051	110563	0	0	8084	570478	0	0
2024-09-04 04:32:47			0	37297	0	0	0	28431	27050	156582	27107	1076881	47041	110561	0	0	8083	571312	0	0
2024-09-04 04:33:47			0	37308	0	0	0	28425	27040	156518	27116	1076773	47040	110559	0	0	8084	570908	0	0
2024-09-04 04:34:47			0	37292	0	0	0	28418	27050	156538	27097	1076872	47041	110556	0	0	8083	571511	0	0
2024-09-04 04:35:47			0	37308	0	0	0	28420	27040	156595	27209	1076836	47040	110557	0	0	8084	570908	0	0
2024-09-04 04:36:47			0	37293	0	0	0	28420	27040	156618	26991	1076800	47040	110557	0	0	8083	571504	0	0
2024-09-04 04:37:47			0	37280	0	0	0	28410	27040	156526	27024	1076800	47040	110553	0	0	8082	572021	0	0
2024-09-04 04:38:47			0	37280	0	0	0	28407	27030	156742	27045	1076782	47048	110552	0	0	8082	572054	0	0
2024-09-04 04:39:47			0	37292	0	0	0	28402	27030	156722	26769	1076728	47048	110550	0	0	8083	571577	0	0
2024-09-04 04:40:47			0	37257	0	0	0	28394	27040	156726	27001	1076692	47050	110547	0	0	8081	572937	0	0
2024-09-04 04:41:47			0	37253	0	0	0	28386	27030	156794	27183	1076728	47026	110544	0	0	8081	573129	0	0
2024-09-04 04:42:47			0	37252	0	0	0	28386	27020	156750	26890	1076683	47038	110544	0	0	8081	573202	0	0
2024-09-04 04:43:47			0	37246	0	0	0	28386	27010	156790	27092	1076647	47047	110544	0	0	8081	573474	0	0
2024-09-04 04:44:47			0	37230	0	0	0	28376	27010	156862	27069	1076665	47036	110540	0	0	8080	574112	0	0
2024-09-04 04:45:47			0	37205	0	0	0	28384	27010	156894	27137	1076647	47047	110543	0	0	8078	575110	0	0
2024-09-04 04:46:47			0	37229	0	0	0	28384	27010	156938	26993	1076584	47046	110543	0	0	8080	574152	0	0
2024-09-04 04:47:47			0	37223	0	0	0	28379	27000	156962	27053	1076682	47046	110541	0	0	8079	574424	0	0
2024-09-04 04:48:47			0	37206	0	0	0	28368	26990	157054	27225	1076611	47023	110537	0	0	8079	575136	0	0
2024-09-04 04:49:47			0	37210	0	0	0	28368	27000	157026	26880	1076646	47035	110537	0	0	8079	574943	0	0
2024-09-04 04:50:47			0	37219	0	0	0	28371	26980	156950	27291	1076539	47022	110538	0	0	8079	574649	0	0
2024-09-04 04:51:47			0	37203	0	0	0	28355	26990	157054	27244	1076530	47023	110532	0	0	8079	575256	0	0
2024-09-04 04:52:47			0	37213	0	0	0	28371	27000	157018	27131	1076566	47035	110538	0	0	8079	574823	0	0
2024-09-04 04:53:47			0	37200	0	0	0	28363	26980	157194	27019	1076512	47055	110535	0	0	8078	575408	0	0
2024-09-04 04:54:47			0	37201	0	0	0	28371	26980	157170	27012	1076539	47033	110538	0	0	8078	575368	0	0
2024-09-04 04:55:47			0	37229	0	0	0	28368	26980	157158	27211	1076530	47043	110537	0	0	8080	574251	0	0
2024-09-04 04:56:47			0	37188	0	0	0	28358	26980	157142	27140	1076539	47044	110533	0	0	8078	575888	0	0
2024-09-04 04:57:47			0	37181	0	0	0	28361	26970	157186	27298	1076494	47043	110534	0	0	8077	576201	0	0
2024-09-04 04:58:47			0	37177	0	0	0	28376	26970	157214	27149	1076511	47053	110540	0	0	8077	576361	0	0
2024-09-04 04:59:47			0	37176	0	0	0	28374	26980	157386	26934	1076592	47044	110539	0	0	8077	576368	0	0
2024-09-04 05:00:47			0	37166	0	0	0	28361	26980	157302	27064	1076503	47032	110534	0	0	8076	576768	0	0
2024-09-04 05:01:47			0	37154	0	0	0	28361	26970	157434	26948	1076494	47043	110534	0	0	8076	577281	0	0
2024-09-04 05:02:47			0	37161	0	0	0	28350	26980	157318	27135	1076476	47043	110530	0	0	8076	576968	0	0
2024-09-04 05:03:47			0	37144	0	0	0	28353	26960	157350	27218	1076476	47042	110531	0	0	8075	577715	0	0
2024-09-04 05:04:47			0	37140	0	0	0	28342	26970	157474	27171	1076458	47042	110527	0	0	8075	577842	0	0
2024-09-04 05:05:47			0	37145	0	0	0	28345	26970	157474	26920	1076511	47042	110528	0	0	8075	577641	0	0
2024-09-04 05:06:47			0	37116	0	0	0	28340	26960	157606	27090	1076422	47042	110526	0	0	8074	578837	0	0
2024-09-04 05:07:47			0	37141	0	0	0	28340	26950	157494	27227	1076395	47041	110526	0	0	8075	577868	0	0
2024-09-04 05:08:47			0	37097	0	0	0	28335	26970	157474	26844	1076431	47031	110524	0	0	8073	579566	0	0
2024-09-04 05:09:47			0	37108	0	0	0	28335	26950	157506	26989	1076404	47030	110524	0	0	8073	579191	0	0
2024-09-04 05:10:47			0	37107	0	0	0	28335	26940	157590	27303	1076332	47051	110524	0	0	8073	579264	0	0
2024-09-04 05:11:47			0	37099	0	0	0	28324	26950	157602	27362	1076287	47041	110520	0	0	8073	579552	0	0
2024-09-04 05:12:47			0	37091	0	0	0	28322	26950	157586	26920	1076421	47018	110519	0	0	8072	579873	0	0
2024-09-04 05:13:47			0	37072	0	0	0	28335	26940	157590	27180	1076305	47051	110524	0	0	8071	580670	0	0
2024-09-04 05:14:47			0	37052	0	0	0	28303	26930	157590	27121	1076296	47028	110512	0	0	8070	581508	0	0
2024-09-04 05:15:47			0	37003	0	0	0	28303	26930	157858	27071	1076233	47039	110512	0	0	8067	583481	0	0
2024-09-04 05:16:47			0	36955	0	0	0	28298	26930	158114	27523	1076233	47027	110510	0	0	8065	585419	0	0
2024-09-04 05:17:47			0	36907	0	0	0	28301	26930	158358	27218	1076260	47027	110511	0	0	8062	587361	0	0
2024-09-04 05:18:47			0	36882	0	0	0	28309	26920	158402	26828	1076242	47026	110514	0	0	8060	588408	0	0
2024-09-04 05:19:47			0	36855	0	0	0	28311	26920	158526	27107	1076251	47027	110515	0	0	8059	589504	0	0
2024-09-04 05:20:47			0	36842	0	0	0	28306	26920	158582	27147	1076269	47038	110513	0	0	8058	590032	0	0
2024-09-04 05:21:47			0	36822	0	0	0	28293	26920	158694	26946	1076224	47039	110508	0	0	8057	590845	0	0
2024-09-04 05:22:47			0	36823	0	0	0	28296	26910	158678	26870	1076152	47026	110509	0	0	8057	590838	0	0
2024-09-04 05:23:47			0	36809	0	0	0	28301	26910	158778	27066	1076169	47047	110511	0	0	8056	591408	0	0
2024-09-04 05:24:47			0	36806	0	0	0	28309	26900	158786	27166	1076134	47037	110514	0	0	8056	591564	0	0
2024-09-04 05:25:47			0	36784	0	0	0	28298	26910	158826	27171	1076143	47037	110510	0	0	8054	592426	0	0
2024-09-04 05:26:47			0	36778	0	0	0	28311	26900	158846	27171	1076214	47047	110515	0	0	8054	592704	0	0
2024-09-04 05:27:47			0	36772	0	0	0	28314	26910	158902	27303	1076196	47037	110516	0	0	8054	592915	0	0
2024-09-04 05:28:47			0	36778	0	0	0	28332	26900	158894	27170	1076187	47047	110523	0	0	8054	592704	0	0
2024-09-04 05:29:47			0	36765	0	0	0	28327	26910	158918	27045	1076250	47047	110521	0	0	8053	593200	0	0
2024-09-04 05:30:47			0	36762	0	0	0	28332	26910	158966	26817	1076233	47038	110523	0	0	8053	593322	0	0
2024-09-04 05:31:47			0	36772	0	0	0	28311	26910	158974	27355	1076196	47025	110515	0	0	8054	592915	0	0
2024-09-04 05:32:47			0	36751	0	0	0	28298	26910	159006	27119	1076223	47037	110510	0	0	8053	593771	0	0
2024-09-04 05:33:47			0	36751	0	0	0	28293	26890	158982	27194	1076169	47024	110508	0	0	8053	593839	0	0
2024-09-04 05:34:47			0	36756	0	0	0	28288	26910	159026	27102	1076169	47037	110506	0	0	8053	593567	0	0
2024-09-04 05:35:47			0	36746	0	0	0	28283	26900	159162	26918	1076178	47036	110504	0	0	8052	594009	0	0
2024-09-04 05:36:47			0	36740	0	0	0	28264	26900	159102	27183	1076160	47037	110497	0	0	8052	594254	0	0
2024-09-04 05:37:47			0	36736	0	0	0	28267	26890	159058	27274	1076089	47024	110498	0	0	8052	594452	0	0
2024-09-04 05:38:47			0	36738	0	0	0	28262	26890	159026	27190	1076106	47035	110496	0	0	8052	594370	0	0
2024-09-04 05:39:47			0	36740	0	0	0	28246	26880	159066	27289	1076044	47022	110490	0	0	8053	594322	0	0
2024-09-04 05:40:47			0	36741	0	0	0	28236	26880	158938	27147	1076017	47022	110486	0	0	8053	594282	0	0
2024-09-04 05:41:47			0	36749	0	0	0	28233	26860	159026	27052	1075927	47020	110485	0	0	8053	594023	0	0
2024-09-04 05:42:47			0	36718	0	0	0	28228	26870	159058	26965	1075909	47010	110483	0	0	8052	595255	0	0
2024-09-04 05:43:47			0	36712	0	0	0	28244	26870	159174	26915	1075972	47011	110489	0	0	8051	595501	0	0
2024-09-04 05:44:47			0	36680	0	0	0	28236	26850	159266	27190	1075855	47042	110486	0	0	8049	596879	0	0
2024-09-04 05:45:47			0	36661	0	0	0	28241	26850	159362	27301	1075935	47032	110488	0	0	8048	597657	0	0
2024-09-04 05:46:47			0	36638	0	0	0	28228	26850	159526	26958	1075899	47008	110483	0	0	8047	598600	0	0
2024-09-04 05:47:47			0	36617	0	0	0	28233	26840	159526	27038	1075783	47018	110485	0	0	8045	599497	0	0
2024-09-04 05:48:47			0	36604	0	0	0	28212	26840	159670	27048	1075801	47018	110477	0	0	8045	600031	0	0
2024-09-04 05:49:47			0	36561	0	0	0	28210	26840	159785	27135	1075720	47007	110476	0	0	8042	601800	0	0
2024-09-04 05:50:47			0	36550	0	0	0	28197	26820	159877	27272	1075747	47016	110471	0	0	8042	602323	0	0
2024-09-04 05:51:47			0	36546	0	0	0	28202	26830	159897	27055	1075738	47017	110473	0	0	8042	602453	0	0
2024-09-04 05:52:47			0	36529	0	0	0	28197	26830	159981	27071	1075729	47029	110471	0	0	8041	603154	0	0
2024-09-04 05:53:47			0	36513	0	0	0	28194	26820	160013	26913	1075720	47028	110470	0	0	8040	603849	0	0
2024-09-04 05:54:47			0	36517	0	0	0	28199	26820	159993	27322	1075693	47016	110472	0	0	8040	603684	0	0
2024-09-04 05:55:47			0	36513	0	0	0	28238	26820	160113	27310	1075657	47038	110487	0	0	8039	603849	0	0
2024-09-04 05:56:47			0	36500	0	0	0	28272	26810	160153	27194	1075639	47038	110500	0	0	8038	604420	0	0
2024-09-04 05:57:47			0	36496	0	0	0	28267	26810	160153	27039	1075666	47038	110498	0	0	8037	604586	0	0
2024-09-04 05:58:47			0	36491	0	0	0	28218	26820	160201	27107	1075738	47027	110479	0	0	8038	604758	0	0
2024-09-04 05:59:47			0	36496	0	0	0	28199	26800	160161	26771	1075657	47037	110472	0	0	8038	604620	0	0
2024-09-04 06:00:47			0	36491	0	0	0	28197	26810	160197	27135	1075693	47015	110471	0	0	8038	604792	0	0
2024-09-04 06:01:47			0	36480	0	0	0	28207	26810	160273	27208	1075666	47038	110475	0	0	8037	605247	0	0
2024-09-04 06:02:47			0	36480	0	0	0	28194	26800	160297	27064	1075621	47036	110470	0	0	8038	605282	0	0
2024-09-04 06:03:47			0	36492	0	0	0	28184	26810	160417	26937	1075612	47027	110466	0	0	8039	604751	0	0
2024-09-04 06:04:47			0	36483	0	0	0	28192	26800	160253	27246	1075684	47026	110469	0	0	8038	605158	0	0
2024-09-04 06:05:47			0	36474	0	0	0	28205	26790	160285	27102	1075665	47036	110474	0	0	8037	605565	0	0
2024-09-04 06:06:47			0	36466	0	0	0	28285	26800	160365	27142	1075603	47026	110505	0	0	8035	605861	0	0
2024-09-04 06:07:47			0	36452	0	0	0	28384	26800	160489	26833	1075630	47037	110543	0	0	8033	606440	0	0
2024-09-04 06:08:47			0	36456	0	0	0	28358	26800	160537	26970	1075621	47013	110533	0	0	8033	606275	0	0
2024-09-04 06:09:47			0	36485	0	0	0	28415	26800	160529	27114	1075701	47036	110555	0	0	8034	605075	0	0
2024-09-04 06:10:47			0	36460	0	0	0	28444	26810	160441	26896	1075773	47038	110566	0	0	8032	606075	0	0
2024-09-04 06:11:47			0	36484	0	0	0	28423	26810	160453	27182	1075890	47048	110558	0	0	8034	605082	0	0
2024-09-04 06:12:47			0	36480	0	0	0	28425	26810	160473	26878	1075863	47048	110559	0	0	8034	605247	0	0
2024-09-04 06:13:47			0	36466	0	0	0	28428	26830	160437	26987	1075953	47062	110560	0	0	8033	605757	0	0
2024-09-04 06:14:47			0	36446	0	0	0	28379	26830	160505	27255	1075845	47050	110541	0	0	8033	606585	0	0
2024-09-04 06:15:47			0	36448	0	0	0	28288	26830	160549	27071	1075926	47050	110506	0	0	8034	606502	0	0
2024-09-04 06:16:47			0	36426	0	0	0	28228	26840	160477	26819	1075864	47030	110483	0	0	8034	607379	0	0
2024-09-04 06:17:47			0	36422	0	0	0	28202	26830	160633	27251	1075729	47050	110473	0	0	8034	607579	0	0
2024-09-04 06:18:47			0	36415	0	0	0	28179	26830	160565	27022	1075738	47040	110464	0	0	8034	607869	0	0
2024-09-04 06:19:47			0	36404	0	0	0	28179	26810	160545	27300	1075648	47038	110464	0	0	8033	608395	0	0
2024-09-04 06:20:47			0	36407	0	0	0	28199	26820	160665	27100	1075684	47027	110472	0	0	8033	608236	0	0
2024-09-04 06:21:47			0	36403	0	0	0	28264	26810	160589	26922	1075666	47038	110497	0	0	8032	608437	0	0
2024-09-04 06:22:47			0	36411	0	0	0	28225	26800	160613	27055	1075710	47026	110482	0	0	8033	608140	0	0
2024-09-04 06:23:47			0	36414	0	0	0	28194	26810	160449	27133	1075675	47027	110470	0	0	8034	607980	0	0
2024-09-04 06:24:47			0	36422	0	0	0	28186	26800	160545	26746	1075630	47047	110467	0	0	8034	607684	0	0
2024-09-04 06:25:47			0	36427	0	0	0	28173	26790	160417	27166	1075585	47025	110462	0	0	8035	607511	0	0
2024-09-04 06:26:47			0	36421	0	0	0	28163	26790	160449	27270	1075575	47025	110458	0	0	8035	607760	0	0
2024-09-04 06:27:47			0	36447	0	0	0	28166	26790	160545	27229	1075558	47013	110459	0	0	8036	606682	0	0
2024-09-04 06:28:47			0	36434	0	0	0	28166	26780	160501	27324	1075486	47012	110459	0	0	8035	607256	0	0
2024-09-04 06:29:47			0	36437	0	0	0	28155	26790	160541	27166	1075522	47013	110455	0	0	8036	607097	0	0
2024-09-04 06:30:47			0	36426	0	0	0	28150	26790	160517	27147	1075504	47013	110453	0	0	8035	607553	0	0
2024-09-04 06:31:47			0	36416	0	0	0	28140	26790	160565	27280	1075495	47036	110449	0	0	8035	607967	0	0
2024-09-04 06:32:47			0	36400	0	0	0	28145	26760	160649	26835	1075476	47022	110451	0	0	8033	608736	0	0
2024-09-04 06:33:47			0	36390	0	0	0	28132	26780	160713	27003	1075504	47023	110446	0	0	8033	609081	0	0
2024-09-04 06:34:47			0	36391	0	0	0	28142	26760	160725	27255	1075423	47010	110450	0	0	8033	609110	0	0
2024-09-04 06:35:47			0	36378	0	0	0	28145	26770	160789	27215	1075459	47023	110451	0	0	8032	609615	0	0
2024-09-04 06:36:47			0	36376	0	0	0	28166	26760	160789	27157	1075369	47000	110459	0	0	8032	609733	0	0
2024-09-04 06:37:47			0	36371	0	0	0	28129	26750	160789	27227	1075378	47020	110445	0	0	8032	609976	0	0
2024-09-04 06:38:47			0	36353	0	0	0	28127	26760	160833	26842	1075387	47021	110444	0	0	8031	610689	0	0
2024-09-04 06:39:47			0	36361	0	0	0	28114	26750	160837	26968	1075369	47031	110439	0	0	8032	610392	0	0
2024-09-04 06:40:47			0	36352	0	0	0	28116	26760	160845	27133	1075387	47021	110440	0	0	8031	610731	0	0
2024-09-04 06:41:47			0	36327	0	0	0	28116	26740	160977	27090	1075306	47020	110440	0	0	8029	611842	0	0
2024-09-04 06:42:47			0	36319	0	0	0	28111	26740	161053	26871	1075306	47020	110438	0	0	8029	612176	0	0
2024-09-04 06:43:47			0	36316	0	0	0	28114	26730	161029	26882	1075315	47017	110439	0	0	8029	612336	0	0
2024-09-04 06:44:47			0	36306	0	0	0	28119	26730	161097	27013	1075261	47006	110441	0	0	8028	612753	0	0
2024-09-04 06:45:47			0	36322	0	0	0	28122	26730	161097	27152	1075225	47017	110442	0	0	8029	612086	0	0
2024-09-04 06:46:47			0	36315	0	0	0	28122	26730	161073	27050	1075261	47017	110442	0	0	8029	612377	0	0
2024-09-04 06:47:47			0	36358	0	0	0	28129	26730	160785	27182	1075252	47029	110445	0	0	8031	610586	0	0
2024-09-04 06:48:47			0	36404	0	0	0	28101	26730	160689	27192	1075279	47017	110434	0	0	8034	608674	0	0
2024-09-04 06:49:47			0	36440	0	0	0	28270	26740	160625	27246	1075297	47030	110499	0	0	8034	607146	0	0
2024-09-04 06:50:47			0	36444	0	0	0	28171	26720	160497	27268	1075270	46996	110461	0	0	8035	607050	0	0
2024-09-04 06:51:47			0	36470	0	0	0	28122	26730	160453	26828	1075261	46996	110442	0	0	8038	605938	0	0
2024-09-04 06:52:47			0	36488	0	0	0	28124	26720	160457	27130	1075234	47005	110443	0	0	8039	605228	0	0
2024-09-04 06:53:47			0	36477	0	0	0	28262	26720	160401	26949	1075260	47016	110496	0	0	8036	605683	0	0
2024-09-04 06:54:47			0	36469	0	0	0	28316	26720	160561	27208	1075207	47028	110517	0	0	8034	606014	0	0
2024-09-04 06:55:47			0	36487	0	0	0	28355	26720	160545	27119	1075296	47029	110532	0	0	8035	605269	0	0
2024-09-04 06:56:47			0	36471	0	0	0	28389	26720	160425	27358	1075458	47062	110545	0	0	8033	605931	0	0
2024-09-04 06:57:47			0	36492	0	0	0	28402	26750	160577	27131	1075620	47075	110550	0	0	8035	604959	0	0
2024-09-04 06:58:47			0	36468	0	0	0	28399	26760	160485	27464	1075763	47054	110549	0	0	8033	605917	0	0
2024-09-04 06:59:47			0	36497	0	0	0	28363	26780	160357	27119	1075853	47067	110535	0	0	8036	604648	0	0
2024-09-04 07:00:47			0	36482	0	0	0	28340	26800	160201	27144	1075926	47059	110526	0	0	8035	605199	0	0
2024-09-04 07:01:47			0	36481	0	0	0	28355	26810	160277	26901	1075944	47060	110532	0	0	8035	605206	0	0
2024-09-04 07:02:47			0	36478	0	0	0	28374	26820	160345	26835	1076042	47061	110539	0	0	8035	605295	0	0
2024-09-04 07:03:47			0	36463	0	0	0	28397	26830	160353	27249	1076114	47073	110548	0	0	8033	605881	0	0
2024-09-04 07:04:47			0	36469	0	0	0	28431	26850	160369	26578	1076204	47065	110561	0	0	8033	605563	0	0
2024-09-04 07:05:47			0	36460	0	0	0	28425	26870	160377	27052	1076267	47067	110559	0	0	8033	605866	0	0
2024-09-04 07:06:47			0	36465	0	0	0	28444	26880	160477	26831	1076330	47089	110566	0	0	8033	605625	0	0
2024-09-04 07:07:47			0	36455	0	0	0	28457	26900	160469	27126	1076456	47070	110571	0	0	8032	605969	0	0
2024-09-04 07:08:47			0	36440	0	0	0	28454	26910	160469	26844	1076465	47070	110570	0	0	8031	606555	0	0
2024-09-04 07:09:47			0	36423	0	0	0	28472	26920	160413	27119	1076547	47094	110577	0	0	8030	607224	0	0
2024-09-04 07:10:47			0	36430	0	0	0	28472	26940	160437	27109	1076574	47074	110577	0	0	8031	606865	0	0
2024-09-04 07:11:47			0	36436	0	0	0	28477	26950	160501	26923	1076646	47075	110579	0	0	8031	606581	0	0
2024-09-04 07:12:47			0	36420	0	0	0	28480	26960	160465	26967	1076744	47065	110580	0	0	8030	607210	0	0
2024-09-04 07:13:47			0	36426	0	0	0	28462	26970	160397	27182	1076682	47077	110573	0	0	8031	606926	0	0
2024-09-04 07:14:47			0	36423	0	0	0	28464	26990	160357	27277	1076745	47079	110574	0	0	8031	606981	0	0
2024-09-04 07:15:47			0	36424	0	0	0	28475	26990	160349	27249	1076772	47056	110578	0	0	8030	606939	0	0
2024-09-04 07:16:47			0	36426	0	0	0	28485	27000	160429	27161	1076835	47068	110582	0	0	8030	606822	0	0
2024-09-04 07:17:47			0	36414	0	0	0	28485	27010	160409	27111	1076889	47070	110582	0	0	8030	607284	0	0
2024-09-04 07:18:47			0	36401	0	0	0	28490	27010	160429	27211	1076853	47080	110584	0	0	8029	607823	0	0
2024-09-04 07:19:47			0	36415	0	0	0	28485	27030	160469	27185	1076943	47059	110582	0	0	8030	607173	0	0
2024-09-04 07:20:47			0	36408	0	0	0	28477	27030	160493	27183	1076943	47071	110579	0	0	8030	607463	0	0
2024-09-04 07:21:47			0	36392	0	0	0	28480	27040	160505	27067	1076961	47073	110580	0	0	8029	608091	0	0
2024-09-04 07:22:47			0	36377	0	0	0	28475	27040	160553	26854	1076961	47061	110578	0	0	8028	608714	0	0
2024-09-04 07:23:47			0	36375	0	0	0	28464	27040	160553	26823	1076961	47040	110574	0	0	8028	608797	0	0
2024-09-04 07:24:47			0	36366	0	0	0	28467	27050	160529	27059	1076899	47074	110575	0	0	8027	609135	0	0
2024-09-04 07:25:47			0	36363	0	0	0	28464	27050	160589	27182	1077007	47051	110574	0	0	8027	609260	0	0
2024-09-04 07:26:47			0	36354	0	0	0	28467	27040	160665	26830	1076998	47061	110575	0	0	8027	609669	0	0
2024-09-04 07:27:47			0	36343	0	0	0	28464	27060	160681	27083	1077025	47052	110574	0	0	8026	610056	0	0
2024-09-04 07:28:47			0	36332	0	0	0	28457	27060	160733	26998	1076971	47052	110571	0	0	8026	610513	0	0
2024-09-04 07:29:47			0	36340	0	0	0	28467	27050	160681	27039	1077016	47062	110575	0	0	8026	610215	0	0
2024-09-04 07:30:47			0	36345	0	0	0	28457	27050	160765	26965	1076935	47051	110571	0	0	8026	610008	0	0
2024-09-04 07:31:47			0	36335	0	0	0	28459	27060	160753	26876	1076998	47052	110572	0	0	8026	610388	0	0
2024-09-04 07:32:47			0	36327	0	0	0	28451	27060	160645	27119	1076917	47052	110569	0	0	8025	610721	0	0
2024-09-04 07:33:47			0	36331	0	0	0	28449	27050	160789	27275	1076908	47051	110568	0	0	8026	610590	0	0
2024-09-04 07:34:47			0	36324	0	0	0	28446	27050	160785	27242	1077043	47051	110567	0	0	8025	610881	0	0
2024-09-04 07:35:47			0	36321	0	0	0	28446	27050	160653	27114	1076926	47062	110567	0	0	8025	611006	0	0
2024-09-04 07:36:47			0	36349	0	0	0	28446	27050	160641	27263	1076962	47074	110567	0	0	8027	609841	0	0
2024-09-04 07:37:47			0	36343	0	0	0	28446	27050	160777	26902	1076926	47051	110567	0	0	8026	610091	0	0
2024-09-04 07:38:47			0	36334	0	0	0	28457	27050	160761	27140	1076935	47041	110571	0	0	8026	610465	0	0
2024-09-04 07:39:47			0	36315	0	0	0	28441	27050	160693	26882	1076926	47051	110565	0	0	8025	611255	0	0
2024-09-04 07:40:47			0	36333	0	0	0	28436	27050	160745	27111	1076962	47062	110563	0	0	8026	610507	0	0
2024-09-04 07:41:47			0	36331	0	0	0	28428	27050	160681	27173	1076962	47051	110560	0	0	8026	610590	0	0
2024-09-04 07:42:47			0	36318	0	0	0	28433	27050	160813	27175	1076935	47051	110562	0	0	8025	611130	0	0
2024-09-04 07:43:47			0	36328	0	0	0	28454	27050	160677	27062	1076935	47062	110570	0	0	8025	610714	0	0
2024-09-04 07:44:47			0	36324	0	0	0	28444	27050	160689	26986	1076926	47041	110566	0	0	8025	610881	0	0
2024-09-04 07:45:47			0	36327	0	0	0	28438	27040	160733	27138	1076944	47061	110564	0	0	8026	610791	0	0
2024-09-04 07:46:47			0	36332	0	0	0	28428	27050	160737	27078	1076899	47051	110560	0	0	8026	610548	0	0
2024-09-04 07:47:47			0	36348	0	0	0	28436	27040	160733	26908	1076890	47050	110563	0	0	8027	609918	0	0
2024-09-04 07:48:47			0	36345	0	0	0	28441	27040	160641	27275	1076908	47050	110565	0	0	8027	610043	0	0
2024-09-04 07:49:47			0	36364	0	0	0	28438	27040	160533	27234	1076917	47040	110564	0	0	8028	609253	0	0
2024-09-04 07:50:47			0	36364	0	0	0	28407	27040	160489	26873	1076827	47050	110552	0	0	8028	609253	0	0
2024-09-04 07:51:47			0	36378	0	0	0	28415	27040	160461	27336	1076917	47061	110555	0	0	8029	608672	0	0
2024-09-04 07:52:47			0	36390	0	0	0	28405	27050	160341	27371	1076926	47051	110551	0	0	8030	608139	0	0
2024-09-04 07:53:47			0	36419	0	0	0	28399	27040	160305	27171	1076827	47050	110549	0	0	8032	606972	0	0
2024-09-04 07:54:47			0	36428	0	0	0	28386	27040	160205	27376	1076854	47061	110544	0	0	8032	606600	0	0
2024-09-04 07:55:47			0	36449	0	0	0	28358	27030	160173	26816	1076845	47039	110533	0	0	8034	605765	0	0
2024-09-04 07:56:47			0	36449	0	0	0	28348	27040	160045	27545	1076827	47040	110529	0	0	8034	605731	0	0
2024-09-04 07:57:47			0	36482	0	0	0	28345	27030	160141	27019	1076764	47049	110528	0	0	8036	604402	0	0
2024-09-04 07:58:47			0	36470	0	0	0	28332	27030	160081	27204	1076782	47038	110523	0	0	8036	604897	0	0
2024-09-04 07:59:47			0	36477	0	0	0	28319	27030	160001	27033	1076764	47039	110518	0	0	8036	604608	0	0
2024-09-04 08:00:47			0	36482	0	0	0	28340	27020	160085	27227	1076719	47048	110526	0	0	8036	604436	0	0
2024-09-04 08:01:47			0	36481	0	0	0	28350	27020	160061	26930	1076638	47026	110530	0	0	8036	604478	0	0
2024-09-04 08:02:47			0	36487	0	0	0	28348	27000	159993	26765	1076682	47036	110529	0	0	8036	604299	0	0
2024-09-04 08:03:47			0	36484	0	0	0	28319	27000	159929	27107	1076620	47045	110518	0	0	8037	604423	0	0
2024-09-04 08:04:47			0	36481	0	0	0	28311	27000	159969	27215	1076646	47012	110515	0	0	8037	604547	0	0
2024-09-04 08:05:47			0	36495	0	0	0	28303	27000	159913	27208	1076593	47035	110512	0	0	8038	603969	0	0
2024-09-04 08:06:47			0	36492	0	0	0	28301	26980	159889	27246	1076512	47011	110511	0	0	8037	604162	0	0
2024-09-04 08:07:47			0	36489	0	0	0	28298	26970	159901	27017	1076485	47020	110510	0	0	8037	604321	0	0
2024-09-04 08:08:47			0	36491	0	0	0	28275	26970	159893	27098	1076458	47020	110501	0	0	8038	604238	0	0
2024-09-04 08:09:47			0	36493	0	0	0	28272	26960	159777	26847	1076386	47030	110500	0	0	8038	604190	0	0
2024-09-04 08:10:47			0	36500	0	0	0	28270	26960	159957	27083	1076440	47019	110499	0	0	8038	603901	0	0
2024-09-04 08:11:47			0	36497	0	0	0	28264	26940	159949	27182	1076305	47041	110497	0	0	8038	604094	0	0
2024-09-04 08:12:47			0	36497	0	0	0	28244	26950	159913	26953	1076296	47030	110489	0	0	8039	604059	0	0
2024-09-04 08:13:47			0	36498	0	0	0	28236	26930	159885	27090	1076215	47017	110486	0	0	8039	604087	0	0
2024-09-04 08:14:47			0	36494	0	0	0	28233	26930	160009	27209	1076269	47017	110485	0	0	8038	604253	0	0
2024-09-04 08:15:47			0	36474	0	0	0	28231	26930	159937	27092	1076260	47027	110484	0	0	8037	605079	0	0
2024-09-04 08:16:47			0	36484	0	0	0	28238	26920	160037	27220	1076161	47015	110487	0	0	8038	604700	0	0
2024-09-04 08:17:47			0	36469	0	0	0	28246	26910	160013	26974	1076143	47025	110490	0	0	8037	605355	0	0
2024-09-04 08:18:47			0	36490	0	0	0	28259	26910	159993	27180	1076169	47037	110495	0	0	8038	604487	0	0
2024-09-04 08:19:47			0	36473	0	0	0	28264	26900	160149	27062	1076134	47025	110497	0	0	8037	605224	0	0
2024-09-04 08:20:47			0	36471	0	0	0	28259	26900	160113	27173	1076134	47037	110495	0	0	8036	605307	0	0
2024-09-04 08:21:47			0	36489	0	0	0	28270	26890	160173	26953	1076115	47036	110499	0	0	8037	604598	0	0
2024-09-04 08:22:47			0	36475	0	0	0	28259	26880	160145	26861	1076169	47022	110495	0	0	8037	605211	0	0
2024-09-04 08:23:47			0	36469	0	0	0	28270	26900	160217	27237	1076178	47024	110499	0	0	8036	605390	0	0
2024-09-04 08:24:47			0	36462	0	0	0	28275	26890	160141	27135	1076133	47023	110501	0	0	8036	605714	0	0
2024-09-04 08:25:47			0	36460	0	0	0	28277	26890	160145	27100	1076196	47036	110502	0	0	8035	605797	0	0
2024-09-04 08:26:47			0	36480	0	0	0	28264	26890	160113	27036	1076133	47023	110497	0	0	8037	604970	0	0
2024-09-04 08:27:47			0	36468	0	0	0	28275	26900	160117	27225	1076151	47036	110501	0	0	8036	605431	0	0
2024-09-04 08:28:47			0	36456	0	0	0	28280	26880	160265	27039	1076124	47034	110503	0	0	8035	605997	0	0
2024-09-04 08:29:47			0	36463	0	0	0	28270	26890	160189	27013	1076196	47024	110499	0	0	8036	605673	0	0
2024-09-04 08:30:47			0	36468	0	0	0	28272	26880	160169	27062	1076097	47044	110500	0	0	8036	605501	0	0
2024-09-04 08:31:47			0	36464	0	0	0	28275	26880	160217	27052	1076142	47034	110501	0	0	8036	605666	0	0
2024-09-04 08:32:47			0	36459	0	0	0	28285	26880	160177	27189	1076178	47044	110505	0	0	8035	605873	0	0
2024-09-04 08:33:47			0	36469	0	0	0	28290	26880	160185	27085	1076196	47034	110507	0	0	8036	605459	0	0
2024-09-04 08:34:47			0	36464	0	0	0	28298	26890	160205	27039	1076160	47023	110510	0	0	8035	605631	0	0
2024-09-04 08:35:47			0	36468	0	0	0	28306	26890	160197	27230	1076223	47046	110513	0	0	8035	605466	0	0
2024-09-04 08:36:47			0	36460	0	0	0	28298	26890	160129	27050	1076187	47045	110510	0	0	8035	605797	0	0
2024-09-04 08:37:47			0	36478	0	0	0	28296	26900	160209	27175	1076232	47036	110509	0	0	8036	605018	0	0
2024-09-04 08:38:47			0	36468	0	0	0	28290	26900	160205	26974	1076322	47047	110507	0	0	8036	605431	0	0
2024-09-04 08:39:47			0	36467	0	0	0	28270	26910	160365	26958	1076277	47047	110499	0	0	8036	605438	0	0
2024-09-04 08:40:47			0	36454	0	0	0	28262	26900	160273	26798	1076187	47037	110496	0	0	8035	606010	0	0
2024-09-04 08:41:47			0	36464	0	0	0	28264	26900	160193	26993	1076241	47025	110497	0	0	8036	605596	0	0
2024-09-04 08:42:47			0	36446	0	0	0	28246	26890	160277	26892	1076142	47036	110490	0	0	8035	606376	0	0
2024-09-04 08:43:47			0	36453	0	0	0	28225	26890	160245	26790	1076187	47035	110482	0	0	8036	606086	0	0
2024-09-04 08:44:47			0	36446	0	0	0	28207	26890	160293	27128	1076133	47012	110475	0	0	8036	606376	0	0
2024-09-04 08:45:47			0	36459	0	0	0	28197	26880	160265	26771	1076097	47011	110471	0	0	8037	605873	0	0
2024-09-04 08:46:47			0	36479	0	0	0	28186	26880	160229	26701	1076008	47034	110467	0	0	8038	605046	0	0
2024-09-04 08:47:47			0	36457	0	0	0	28184	26870	160209	26963	1075972	47022	110466	0	0	8037	605990	0	0
2024-09-04 08:48:47			0	36450	0	0	0	28186	26870	160253	26904	1075909	47021	110467	0	0	8036	606280	0	0
2024-09-04 08:49:47			0	36441	0	0	0	28202	26860	160285	26882	1075980	47020	110473	0	0	8035	606687	0	0
2024-09-04 08:50:47			0	36439	0	0	0	28223	26860	160361	27130	1075918	47032	110481	0	0	8035	606770	0	0
2024-09-04 08:51:47			0	36439	0	0	0	28228	26850	160389	27062	1075935	47032	110483	0	0	8035	606805	0	0
2024-09-04 08:52:47			0	36430	0	0	0	28233	26860	160357	27242	1075998	47020	110485	0	0	8034	607143	0	0
2024-09-04 08:53:47			0	36447	0	0	0	28244	26850	160473	27147	1076043	47032	110489	0	0	8035	606474	0	0
2024-09-04 08:54:47			0	36419	0	0	0	28262	26860	160449	26986	1075998	47032	110496	0	0	8033	607599	0	0
2024-09-04 08:55:47			0	36429	0	0	0	28267	26860	160437	27176	1076025	47042	110498	0	0	8034	607185	0	0
2024-09-04 08:56:47			0	36410	0	0	0	28264	26860	160433	27327	1076025	47053	110497	0	0	8033	607972	0	0
2024-09-04 08:57:47			0	36432	0	0	0	28264	26860	160453	27152	1076061	47032	110497	0	0	8034	607060	0	0
2024-09-04 08:58:47			0	36433	0	0	0	28270	26860	160365	26894	1076061	47032	110499	0	0	8034	607019	0	0
2024-09-04 08:59:47			0	36436	0	0	0	28262	26860	160477	27088	1076115	47032	110496	0	0	8034	606894	0	0
2024-09-04 09:00:47			0	36422	0	0	0	28257	26870	160337	27043	1076070	47021	110494	0	0	8033	607440	0	0
2024-09-04 09:01:47			0	36431	0	0	0	28285	26870	160389	27159	1076151	47033	110505	0	0	8033	607067	0	0
2024-09-04 09:02:47			0	36413	0	0	0	28285	26880	160333	26923	1076061	47034	110505	0	0	8032	607778	0	0
2024-09-04 09:03:47			0	36433	0	0	0	28267	26870	160429	27154	1076133	47022	110498	0	0	8034	606984	0	0
2024-09-04 09:04:47			0	36421	0	0	0	28257	26870	160313	27048	1076079	47034	110494	0	0	8033	607481	0	0
2024-09-04 09:05:47			0	36455	0	0	0	28249	26860	160485	27036	1076052	47020	110491	0	0	8035	606108	0	0
2024-09-04 09:06:47			0	36424	0	0	0	28257	26870	160365	27124	1076070	47021	110494	0	0	8034	607357	0	0
2024-09-04 09:07:47			0	36396	0	0	0	28246	26870	160361	27104	1076052	47011	110490	0	0	8032	608518	0	0
2024-09-04 09:08:47			0	36389	0	0	0	28244	26860	160433	26961	1075971	47032	110489	0	0	8032	608844	0	0
2024-09-04 09:09:47			0	36378	0	0	0	28259	26860	160613	26984	1075998	47020	110495	0	0	8031	609301	0	0
2024-09-04 09:10:47			0	36381	0	0	0	28257	26860	160633	26925	1075971	47032	110494	0	0	8031	609176	0	0
2024-09-04 09:11:47			0	36352	0	0	0	28267	26860	160681	26852	1076052	47032	110498	0	0	8029	610381	0	0
2024-09-04 09:12:47			0	36354	0	0	0	28262	26860	160733	27083	1076025	47020	110496	0	0	8029	610298	0	0
2024-09-04 09:13:47			0	36333	0	0	0	28238	26850	160777	27256	1075989	47020	110487	0	0	8028	611207	0	0
2024-09-04 09:14:47			0	36321	0	0	0	28251	26860	160813	27078	1075954	47032	110492	0	0	8027	611672	0	0
2024-09-04 09:15:47			0	36308	0	0	0	28244	26860	160961	27022	1076025	47020	110489	0	0	8027	612213	0	0
2024-09-04 09:16:47			0	36308	0	0	0	28238	26870	160893	26873	1075963	47021	110487	0	0	8027	612178	0	0
2024-09-04 09:17:47			0	36300	0	0	0	28254	26850	160921	27066	1076016	47032	110493	0	0	8026	612582	0	0
2024-09-04 09:18:47			0	36290	0	0	0	28267	26850	161001	26831	1076016	47020	110498	0	0	8025	612999	0	0
2024-09-04 09:19:47			0	36274	0	0	0	28267	26850	161041	26951	1075980	47041	110498	0	0	8024	613667	0	0
2024-09-04 09:20:47			0	36281	0	0	0	28272	26860	160993	27256	1076025	47020	110500	0	0	8025	613339	0	0
2024-09-04 09:21:47			0	36271	0	0	0	28280	26850	161013	27126	1076007	47041	110503	0	0	8024	613792	0	0
2024-09-04 09:22:47			0	36282	0	0	0	28293	26860	161129	27020	1076061	47032	110508	0	0	8024	613298	0	0
2024-09-04 09:23:47			0	36267	0	0	0	28296	26870	161081	27310	1076016	47021	110509	0	0	8023	613889	0	0
2024-09-04 09:24:47			0	36267	0	0	0	28280	26860	161117	27253	1075971	47032	110503	0	0	8024	613924	0	0
2024-09-04 09:25:47			0	36245	0	0	0	28246	26860	161145	27248	1076088	47032	110490	0	0	8023	614843	0	0
2024-09-04 09:26:47			0	36239	0	0	0	28241	26860	161301	27175	1076034	47032	110488	0	0	8023	615094	0	0
2024-09-04 09:27:47			0	36211	0	0	0	28233	26870	161433	27341	1075989	47010	110485	0	0	8021	616230	0	0
2024-09-04 09:28:47			0	36168	0	0	0	28228	26850	161489	27220	1075909	47009	110483	0	0	8019	618103	0	0
2024-09-04 09:29:47			0	36137	0	0	0	28236	26850	161557	27192	1075899	47008	110486	0	0	8017	619405	0	0
2024-09-04 09:30:47			0	36133	0	0	0	28231	26840	161689	26746	1075890	47041	110484	0	0	8016	619609	0	0
2024-09-04 09:31:47			0	36126	0	0	0	28236	26850	161757	26993	1075909	47032	110486	0	0	8016	619867	0	0
2024-09-04 09:32:47			0	36117	0	0	0	28251	26850	161685	26942	1075873	47031	110492	0	0	8015	620246	0	0
2024-09-04 09:33:47			0	36107	0	0	0	28290	26850	161733	27138	1076034	47019	110507	0	0	8014	620666	0	0
2024-09-04 09:34:47			0	36112	0	0	0	28293	26850	161829	27050	1076016	47053	110508	0	0	8014	620456	0	0
2024-09-04 09:35:47			0	36151	0	0	0	28290	26860	161633	27317	1076052	47032	110507	0	0	8017	618781	0	0
2024-09-04 09:36:47			0	36210	0	0	0	28301	26860	161353	27204	1076088	47042	110511	0	0	8020	616307	0	0
2024-09-04 09:37:47			0	36286	0	0	0	28296	26860	161217	27137	1076133	47053	110509	0	0	8025	613131	0	0
2024-09-04 09:38:47			0	36357	0	0	0	28277	26860	160657	27130	1076088	47042	110502	0	0	8029	610173	0	0
2024-09-04 09:39:47			0	36495	0	0	0	28293	26870	160085	27320	1076070	47043	110508	0	0	8037	604419	0	0
2024-09-04 09:40:47			0	36608	0	0	0	28290	26870	159666	27291	1076151	47033	110507	0	0	8044	599764	0	0
2024-09-04 09:41:47			0	36683	0	0	0	28290	26860	159342	27088	1076034	47032	110507	0	0	8048	596722	0	0
2024-09-04 09:42:47			0	36748	0	0	0	28290	26870	159054	27338	1076151	47043	110507	0	0	8052	594030	0	0
2024-09-04 09:43:47			0	36779	0	0	0	28290	26870	158930	27170	1076124	47021	110507	0	0	8054	592765	0	0
2024-09-04 09:44:47			0	36801	0	0	0	28296	26870	158646	27001	1076097	47021	110509	0	0	8055	591869	0	0
2024-09-04 09:45:47			0	36833	0	0	0	28283	26880	158586	27296	1076124	47022	110504	0	0	8057	590533	0	0
2024-09-04 09:46:47			0	36867	0	0	0	28298	26870	158474	27331	1076124	47043	110510	0	0	8059	589186	0	0
2024-09-04 09:47:47			0	36884	0	0	0	28301	26880	158470	27060	1076142	47022	110511	0	0	8060	588462	0	0
2024-09-04 09:48:47			0	36885	0	0	0	28306	26870	158386	26889	1076106	47044	110513	0	0	8060	588455	0	0
2024-09-04 09:49:47			0	36868	0	0	0	28298	26880	158406	27296	1076142	47034	110510	0	0	8059	589111	0	0
2024-09-04 09:50:47			0	36903	0	0	0	28309	26880	158426	27010	1076142	47034	110514	0	0	8061	587692	0	0
2024-09-04 09:51:47			0	36891	0	0	0	28306	26880	158426	27190	1076196	47034	110513	0	0	8061	588178	0	0
2024-09-04 09:52:47			0	36865	0	0	0	28301	26880	158494	27173	1076115	47034	110511	0	0	8059	589233	0	0
2024-09-04 09:53:47			0	36878	0	0	0	28303	26880	158498	27168	1076205	47034	110512	0	0	8060	588706	0	0
2024-09-04 09:54:47			0	36856	0	0	0	28301	26900	158526	27133	1076205	47024	110511	0	0	8059	589531	0	0
2024-09-04 09:55:47			0	36864	0	0	0	28296	26900	158502	27086	1076205	47036	110509	0	0	8059	589206	0	0
2024-09-04 09:56:47			0	36827	0	0	0	28296	26900	158618	27105	1076178	47046	110509	0	0	8057	590709	0	0
2024-09-04 09:57:47			0	36833	0	0	0	28288	26890	158626	27305	1076169	47024	110506	0	0	8057	590499	0	0
2024-09-04 09:58:47			0	36825	0	0	0	28285	26870	158638	27003	1076106	47022	110505	0	0	8057	590892	0	0
2024-09-04 09:59:47			0	36812	0	0	0	28293	26880	158778	26965	1076169	47022	110508	0	0	8056	591387	0	0
2024-09-04 10:00:47			0	36796	0	0	0	28298	26870	158766	27159	1076052	47034	110510	0	0	8055	592073	0	0
2024-09-04 10:01:47			0	36821	0	0	0	28277	26880	158702	27036	1076124	47034	110502	0	0	8057	591021	0	0
2024-09-04 10:02:47			0	36820	0	0	0	28275	26870	158618	27396	1076079	47034	110501	0	0	8057	591096	0	0
2024-09-04 10:03:47			0	36838	0	0	0	28270	26860	158638	26849	1076061	47032	110499	0	0	8058	590398	0	0
2024-09-04 10:04:47			0	36858	0	0	0	28262	26860	158506	26927	1076061	47020	110496	0	0	8059	589585	0	0
2024-09-04 10:05:47			0	36880	0	0	0	28251	26860	158494	26823	1076061	47009	110492	0	0	8061	588692	0	0
2024-09-04 10:06:47			0	36911	0	0	0	28249	26860	158398	27086	1075980	47009	110491	0	0	8063	587435	0	0
2024-09-04 10:07:47			0	36912	0	0	0	28241	26850	158262	27322	1075909	47009	110488	0	0	8063	587428	0	0
2024-09-04 10:08:47			0	36925	0	0	0	28218	26850	158242	26909	1075953	47019	110479	0	0	8064	586902	0	0
2024-09-04 10:09:47			0	36944	0	0	0	28210	26850	158190	27157	1075935	47020	110476	0	0	8065	586133	0	0
2024-09-04 10:10:47			0	36976	0	0	0	28225	26840	158222	26925	1075944	47018	110482	0	0	8067	584872	0	0
2024-09-04 10:11:47			0	36987	0	0	0	28225	26840	158026	27192	1075881	47018	110482	0	0	8067	584428	0	0
2024-09-04 10:12:47			0	36988	0	0	0	28231	26830	158014	26752	1075872	47017	110484	0	0	8067	584421	0	0
2024-09-04 10:13:47			0	36990	0	0	0	28233	26840	158014	27083	1075881	47018	110485	0	0	8067	584307	0	0
2024-09-04 10:14:47			0	36981	0	0	0	28228	26830	158090	26932	1075890	47017	110483	0	0	8067	584704	0	0
2024-09-04 10:15:47			0	36997	0	0	0	28225	26820	158074	26998	1075881	47016	110482	0	0	8068	584091	0	0
2024-09-04 10:16:47			0	36997	0	0	0	28228	26820	158046	27079	1075827	47016	110483	0	0	8068	584091	0	0
2024-09-04 10:17:47			0	36990	0	0	0	28228	26830	158126	27007	1075872	47029	110483	0	0	8067	584341	0	0
2024-09-04 10:18:47			0	37018	0	0	0	28233	26830	157986	27176	1075845	47040	110485	0	0	8069	583211	0	0
2024-09-04 10:19:47			0	37054	0	0	0	28241	26830	157882	27227	1075863	47029	110488	0	0	8071	581761	0	0
2024-09-04 10:20:47			0	37076	0	0	0	28244	26820	157750	27161	1075908	47039	110489	0	0	8072	580909	0	0
2024-09-04 10:21:47			0	37083	0	0	0	28241	26830	157610	26948	1075863	47029	110488	0	0	8073	580594	0	0
2024-09-04 10:22:47			0	37091	0	0	0	28238	26830	157534	26981	1075899	47029	110487	0	0	8073	580272	0	0
2024-09-04 10:23:47			0	37110	0	0	0	28228	26820	157570	26984	1075881	47049	110483	0	0	8074	579542	0	0
2024-09-04 10:24:47			0	37123	0	0	0	28231	26830	157542	27261	1075890	47029	110484	0	0	8075	578987	0	0
2024-09-04 10:25:47			0	37106	0	0	0	28241	26840	157522	27336	1075908	47030	110488	0	0	8074	579637	0	0
2024-09-04 10:26:47			0	37127	0	0	0	28246	26830	157498	26885	1075953	47006	110490	0	0	8075	578827	0	0
2024-09-04 10:27:47			0	37150	0	0	0	28241	26820	157502	27000	1075962	47028	110488	0	0	8077	577938	0	0
2024-09-04 10:28:47			0	37139	0	0	0	28244	26830	157486	27164	1075953	47029	110489	0	0	8076	578346	0	0
2024-09-04 10:29:47			0	37139	0	0	0	28249	26830	157358	26998	1075953	47029	110491	0	0	8076	578346	0	0
2024-09-04 10:30:47			0	37182	0	0	0	28246	26840	157486	27066	1075989	47030	110490	0	0	8078	576590	0	0
2024-09-04 10:31:47			0	37178	0	0	0	28238	26840	157478	26996	1075989	47041	110487	0	0	8078	576750	0	0
2024-09-04 10:32:47			0	37188	0	0	0	28244	26830	157422	26949	1075980	47029	110489	0	0	8079	576383	0	0
2024-09-04 10:33:47			0	37167	0	0	0	28246	26840	157446	27104	1075962	47018	110490	0	0	8078	577191	0	0
2024-09-04 10:34:47			0	37186	0	0	0	28262	26840	157358	27232	1075989	47041	110496	0	0	8078	576430	0	0
2024-09-04 10:35:47			0	37172	0	0	0	28262	26840	157346	27053	1075989	47051	110496	0	0	8078	576990	0	0
2024-09-04 10:36:47			0	37174	0	0	0	28288	26840	157242	27308	1075971	47041	110506	0	0	8077	576910	0	0
2024-09-04 10:37:47			0	37182	0	0	0	28293	26830	157330	27194	1076060	47040	110508	0	0	8078	576623	0	0
2024-09-04 10:38:47			0	37173	0	0	0	28319	26850	157358	26670	1076115	47041	110518	0	0	8077	576917	0	0
2024-09-04 10:39:47			0	37193	0	0	0	28301	26840	157314	26627	1076106	47030	110511	0	0	8078	576150	0	0
2024-09-04 10:40:47			0	37179	0	0	0	28311	26850	157286	27196	1076150	47042	110515	0	0	8077	576677	0	0
2024-09-04 10:41:47			0	37176	0	0	0	28322	26850	157298	26861	1076150	47032	110519	0	0	8077	576797	0	0
2024-09-04 10:42:47			0	37178	0	0	0	28316	26870	157346	27098	1076231	47043	110517	0	0	8077	576651	0	0
2024-09-04 10:43:47			0	37177	0	0	0	28311	26870	157266	27111	1076187	47044	110515	0	0	8077	576691	0	0
2024-09-04 10:44:47			0	37162	0	0	0	28293	26880	157310	27196	1076196	47044	110508	0	0	8077	577259	0	0
2024-09-04 10:45:47			0	37163	0	0	0	28303	26870	157350	26823	1076187	47034	110512	0	0	8077	577252	0	0
2024-09-04 10:46:47			0	37160	0	0	0	28306	26880	157418	26802	1076223	47022	110513	0	0	8076	577339	0	0
2024-09-04 10:47:47			0	37156	0	0	0	28306	26880	157350	27173	1076169	47022	110513	0	0	8076	577499	0	0
2024-09-04 10:48:47			0	37188	0	0	0	28324	26870	157238	27185	1076214	47044	110520	0	0	8078	576251	0	0
2024-09-04 10:49:47			0	37185	0	0	0	28322	26880	157174	27175	1076276	47034	110519	0	0	8078	576338	0	0
2024-09-04 10:50:47			0	37217	0	0	0	28324	26890	157114	27050	1076277	47046	110520	0	0	8079	575026	0	0
2024-09-04 10:51:47			0	37238	0	0	0	28337	26890	157054	27043	1076330	47046	110525	0	0	8080	574188	0	0
2024-09-04 10:52:47			0	37263	0	0	0	28348	26890	156878	26663	1076384	47036	110529	0	0	8082	573191	0	0
2024-09-04 10:53:47			0	37267	0	0	0	28342	26900	156790	26660	1076393	47036	110527	0	0	8082	572999	0	0
2024-09-04 10:54:47			0	37274	0	0	0	28350	26910	156826	27112	1076358	47047	110530	0	0	8082	572687	0	0
2024-09-04 10:55:47			0	37278	0	0	0	28358	26920	156846	27208	1076358	47049	110533	0	0	8083	572495	0	0
2024-09-04 10:56:47			0	37278	0	0	0	28366	26920	156750	27147	1076439	47039	110536	0	0	8082	572495	0	0
2024-09-04 10:57:47			0	37284	0	0	0	28361	26910	156822	27154	1076502	47038	110534	0	0	8083	572289	0	0
2024-09-04 10:58:47			0	37274	0	0	0	28366	26920	156750	27156	1076466	47039	110536	0	0	8082	572654	0	0
2024-09-04 10:59:47			0	37279	0	0	0	28361	26930	156782	26961	1076448	47039	110534	0	0	8083	572422	0	0
2024-09-04 11:00:47			0	37295	0	0	0	28361	26930	156794	27119	1076511	47050	110534	0	0	8084	571785	0	0
2024-09-04 11:01:47			0	37304	0	0	0	28350	26940	156766	27086	1076466	47051	110530	0	0	8084	571395	0	0
2024-09-04 11:02:47			0	37303	0	0	0	28342	26930	156750	27152	1076484	47028	110527	0	0	8084	571467	0	0
2024-09-04 11:03:47			0	37318	0	0	0	28332	26930	156691	27173	1076457	47040	110523	0	0	8085	570871	0	0
2024-09-04 11:04:47			0	37320	0	0	0	28332	26940	156707	27161	1076520	47029	110523	0	0	8086	570758	0	0
2024-09-04 11:05:47			0	37316	0	0	0	28384	26930	156695	27206	1076403	47028	110543	0	0	8084	570950	0	0
2024-09-04 11:06:47			0	37343	0	0	0	28358	26950	156599	27256	1076502	47041	110533	0	0	8087	569812	0	0
2024-09-04 11:07:47			0	37347	0	0	0	28355	26940	156527	27100	1076466	47041	110532	0	0	8087	569686	0	0
2024-09-04 11:08:47			0	37359	0	0	0	28353	26940	156403	27384	1076520	47029	110531	0	0	8088	569210	0	0
2024-09-04 11:09:47			0	37376	0	0	0	28361	26950	156419	26901	1076529	47041	110534	0	0	8088	568503	0	0
2024-09-04 11:10:47			0	37377	0	0	0	28361	26940	156379	26850	1076520	47041	110534	0	0	8088	568496	0	0
2024-09-04 11:11:47			0	37391	0	0	0	28371	26950	156335	27114	1076565	47041	110538	0	0	8089	567909	0	0
2024-09-04 11:12:47			0	37405	0	0	0	28368	26950	156291	27081	1076592	47041	110537	0	0	8090	567355	0	0
2024-09-04 11:13:47			0	37425	0	0	0	28381	26950	156183	27050	1076592	47052	110542	0	0	8091	566563	0	0
2024-09-04 11:14:47			0	37442	0	0	0	28381	26960	156223	26998	1076682	47041	110542	0	0	8092	565859	0	0
2024-09-04 11:15:47			0	37430	0	0	0	28371	26960	156175	27036	1076556	47053	110538	0	0	8091	566333	0	0
2024-09-04 11:16:47			0	37448	0	0	0	28381	26960	156127	27095	1076628	47052	110542	0	0	8092	565622	0	0
2024-09-04 11:17:47			0	37448	0	0	0	28376	26960	156131	27005	1076583	47042	110540	0	0	8092	565622	0	0
2024-09-04 11:18:47			0	37448	0	0	0	28402	26960	156039	27196	1076601	47041	110550	0	0	8092	565622	0	0
2024-09-04 11:19:47			0	37460	0	0	0	28410	26970	156087	27043	1076727	47042	110553	0	0	8093	565116	0	0
2024-09-04 11:20:47			0	37444	0	0	0	28436	26980	156075	27135	1076691	47054	110563	0	0	8091	565715	0	0
2024-09-04 11:21:47			0	37444	0	0	0	28428	26980	156027	27010	1076637	47054	110560	0	0	8091	565715	0	0
2024-09-04 11:22:47			0	37448	0	0	0	28438	26980	156163	26994	1076781	47067	110564	0	0	8091	565557	0	0
2024-09-04 11:23:47			0	37444	0	0	0	28407	26980	156055	27227	1076781	47055	110552	0	0	8092	565715	0	0
2024-09-04 11:24:47			0	37468	0	0	0	28394	26990	155959	26823	1076799	47045	110547	0	0	8093	564735	0	0
2024-09-04 11:25:47			0	37456	0	0	0	28392	27000	156007	27313	1076781	47035	110546	0	0	8093	565176	0	0
2024-09-04 11:26:47			0	37459	0	0	0	28361	26980	155923	27062	1076700	47033	110534	0	0	8093	565123	0	0
2024-09-04 11:27:47			0	37469	0	0	0	28363	27000	155979	27135	1076727	47023	110535	0	0	8094	564663	0	0
2024-09-04 11:28:47			0	37484	0	0	0	28381	26980	155867	27150	1076673	47033	110542	0	0	8095	564136	0	0
2024-09-04 11:29:47			0	37489	0	0	0	28389	27000	155887	27197	1076700	47045	110545	0	0	8095	563875	0	0
2024-09-04 11:30:47			0	37508	0	0	0	28379	26980	155827	27289	1076700	47044	110541	0	0	8096	563190	0	0
2024-09-04 11:31:47			0	37509	0	0	0	28379	26990	155735	27280	1076736	47044	110541	0	0	8096	563119	0	0
2024-09-04 11:32:47			0	37530	0	0	0	28389	26980	155731	27211	1076664	47043	110545	0	0	8097	562324	0	0
2024-09-04 11:33:47			0	37514	0	0	0	28386	26980	155739	27393	1076754	47055	110544	0	0	8096	562954	0	0
2024-09-04 11:34:47			0	37544	0	0	0	28399	27000	155663	26857	1076754	47045	110549	0	0	8098	561709	0	0
2024-09-04 11:35:47			0	37548	0	0	0	28394	26980	155679	27258	1076727	47044	110547	0	0	8098	561616	0	0
2024-09-04 11:36:47			0	37549	0	0	0	28402	27000	155679	26991	1076781	47045	110550	0	0	8098	561512	0	0
2024-09-04 11:37:47			0	37564	0	0	0	28405	27000	155583	27100	1076754	47045	110551	0	0	8099	560923	0	0
2024-09-04 11:38:47			0	37563	0	0	0	28412	27000	155699	27187	1076790	47057	110554	0	0	8099	560962	0	0
2024-09-04 11:39:47			0	37567	0	0	0	28412	27000	155599	27027	1076781	47068	110554	0	0	8099	560805	0	0
2024-09-04 11:40:47			0	37567	0	0	0	28410	27000	155555	26696	1076790	47046	110553	0	0	8099	560805	0	0
2024-09-04 11:41:47			0	37570	0	0	0	28410	27000	155571	26850	1076790	47046	110553	0	0	8099	560687	0	0
2024-09-04 11:42:47			0	37589	0	0	0	28394	27010	155499	26734	1076799	47057	110547	0	0	8101	559909	0	0
2024-09-04 11:43:47			0	37571	0	0	0	28397	27000	155475	27086	1076700	47035	110548	0	0	8099	560648	0	0
2024-09-04 11:44:47			0	37578	0	0	0	28397	27000	155571	26935	1076790	47046	110548	0	0	8100	560373	0	0
2024-09-04 11:45:47			0	37606	0	0	0	28420	27000	155543	26975	1076808	47056	110557	0	0	8101	559275	0	0
2024-09-04 11:46:47			0	37595	0	0	0	28418	27010	155403	27078	1076808	47047	110556	0	0	8100	559674	0	0
2024-09-04 11:47:47			0	37608	0	0	0	28410	27010	155451	27041	1076799	47046	110553	0	0	8101	559164	0	0
2024-09-04 11:48:47			0	37606	0	0	0	28410	27010	155331	26942	1076772	47057	110553	0	0	8101	559243	0	0
2024-09-04 11:49:47			0	37621	0	0	0	28410	27010	155359	26731	1076799	47036	110553	0	0	8102	558655	0	0
2024-09-04 11:50:47			0	37629	0	0	0	28407	27010	155351	27319	1076808	47047	110552	0	0	8103	558341	0	0
2024-09-04 11:51:47			0	37608	0	0	0	28399	27010	155359	27034	1076799	47046	110549	0	0	8102	559164	0	0
2024-09-04 11:52:47			0	37615	0	0	0	28397	27010	155351	26897	1076745	47013	110548	0	0	8102	558890	0	0
2024-09-04 11:53:47			0	37599	0	0	0	28405	27000	155343	27090	1076790	47036	110551	0	0	8101	559549	0	0
2024-09-04 11:54:47			0	37607	0	0	0	28415	27010	155327	26901	1076826	47057	110555	0	0	8101	559203	0	0
2024-09-04 11:55:47			0	37608	0	0	0	28420	27010	155471	27095	1076799	47046	110557	0	0	8101	559164	0	0
2024-09-04 11:56:47			0	37603	0	0	0	28423	27020	155423	26981	1076844	47048	110558	0	0	8101	559328	0	0
2024-09-04 11:57:47			0	37618	0	0	0	28425	27010	155351	27242	1076916	47037	110559	0	0	8102	558772	0	0
2024-09-04 11:58:47			0	37609	0	0	0	28446	27030	155339	26955	1076889	47059	110567	0	0	8101	559061	0	0
2024-09-04 11:59:47			0	37603	0	0	0	28444	27020	155403	27218	1076952	47059	110566	0	0	8101	559328	0	0
2024-09-04 12:00:47			0	37608	0	0	0	28454	27020	155379	27074	1076925	47048	110570	0	0	8101	559132	0	0
2024-09-04 12:01:47			0	37608	0	0	0	28454	27030	155335	27150	1076979	47049	110570	0	0	8101	559100	0	0
2024-09-04 12:02:47			0	37618	0	0	0	28451	27030	155383	26989	1076979	47049	110569	0	0	8101	558708	0	0
2024-09-04 12:03:47			0	37624	0	0	0	28457	27040	155395	27152	1077015	47050	110571	0	0	8102	558441	0	0
2024-09-04 12:04:47			0	37622	0	0	0	28446	27030	155395	26984	1077060	47060	110567	0	0	8102	558551	0	0
2024-09-04 12:05:47			0	37614	0	0	0	28464	27040	155311	27225	1076998	47061	110574	0	0	8101	558833	0	0
2024-09-04 12:06:47			0	37618	0	0	0	28470	27040	155263	27371	1077025	47050	110576	0	0	8101	558676	0	0
2024-09-04 12:07:47			0	37630	0	0	0	28477	27040	155347	27422	1077105	47050	110579	0	0	8102	558206	0	0
2024-09-04 12:08:47			0	37633	0	0	0	28480	27050	155319	27095	1077114	47062	110580	0	0	8102	558056	0	0
2024-09-04 12:09:47			0	37647	0	0	0	28483	27050	155303	26883	1077168	47062	110581	0	0	8103	557509	0	0
2024-09-04 12:10:47			0	37647	0	0	0	28493	27060	155255	27197	1077159	47063	110585	0	0	8102	557476	0	0
2024-09-04 12:11:47			0	37632	0	0	0	28490	27060	155319	27071	1077168	47063	110584	0	0	8102	558064	0	0
2024-09-04 12:12:47			0	37641	0	0	0	28485	27060	155247	27111	1077159	47052	110582	0	0	8102	557711	0	0
2024-09-04 12:13:47			0	37657	0	0	0	28485	27070	155383	27242	1077231	47064	110582	0	0	8103	557053	0	0
2024-09-04 12:14:47			0	37655	0	0	0	28506	27070	155167	27260	1077213	47064	110590	0	0	8103	557132	0	0
2024-09-04 12:15:47			0	37625	0	0	0	28488	27070	155291	27261	1077187	47064	110583	0	0	8101	558306	0	0
2024-09-04 12:16:47			0	37641	0	0	0	28477	27080	155291	27135	1077196	47065	110579	0	0	8102	557647	0	0
2024-09-04 12:17:47			0	37654	0	0	0	28462	27070	155207	27138	1077213	47053	110573	0	0	8103	557171	0	0
2024-09-04 12:18:47			0	37627	0	0	0	28459	27080	155279	27052	1077205	47055	110572	0	0	8102	558195	0	0
2024-09-04 12:19:47			0	37650	0	0	0	28457	27080	155219	27374	1077169	47065	110571	0	0	8103	557295	0	0
2024-09-04 12:20:47			0	37651	0	0	0	28470	27060	155235	27346	1077088	47041	110576	0	0	8103	557320	0	0
2024-09-04 12:21:47			0	37634	0	0	0	28480	27070	155307	27104	1077133	47053	110580	0	0	8102	557953	0	0
2024-09-04 12:22:47			0	37636	0	0	0	28475	27080	155283	27194	1077178	47044	110578	0	0	8102	557843	0	0
2024-09-04 12:23:47			0	37638	0	0	0	28501	27070	155359	26972	1077240	47053	110588	0	0	8102	557797	0	0
2024-09-04 12:24:47			0	37641	0	0	0	28519	27090	155363	27105	1077268	47055	110595	0	0	8102	557615	0	0
2024-09-04 12:25:47			0	37623	0	0	0	28519	27090	155279	27251	1077268	47066	110595	0	0	8101	558320	0	0
2024-09-04 12:26:47			0	37620	0	0	0	28537	27100	155303	27246	1077286	47079	110602	0	0	8100	558405	0	0
2024-09-04 12:27:47			0	37604	0	0	0	28542	27100	155299	27178	1077286	47079	110604	0	0	8099	559032	0	0
2024-09-04 12:28:47			0	37636	0	0	0	28548	27100	155295	26944	1077366	47079	110606	0	0	8101	557779	0	0
2024-09-04 12:29:47			0	37619	0	0	0	28568	27110	155367	27022	1077358	47068	110614	0	0	8100	558412	0	0
2024-09-04 12:30:47			0	37624	0	0	0	28579	27110	155379	26955	1077582	47068	110618	0	0	8100	558217	0	0
2024-09-04 12:31:47			0	37618	0	0	0	28589	27120	155383	27142	1077492	47059	110622	0	0	8099	558420	0	0
2024-09-04 12:32:47			0	37629	0	0	0	28589	27120	155331	26993	1077627	47070	110622	0	0	8100	557989	0	0
2024-09-04 12:33:47			0	37607	0	0	0	28597	27140	155443	26923	1077573	47083	110625	0	0	8099	558786	0	0
2024-09-04 12:34:47			0	37610	0	0	0	28602	27140	155411	27218	1077681	47071	110627	0	0	8099	558669	0	0
2024-09-04 12:35:47			0	37625	0	0	0	28602	27150	155339	26880	1077699	47073	110627	0	0	8100	558049	0	0
2024-09-04 12:36:47			0	37636	0	0	0	28597	27160	155247	27059	1077744	47084	110625	0	0	8101	557587	0	0
2024-09-04 12:37:47			0	37631	0	0	0	28597	27160	155267	27098	1077780	47075	110625	0	0	8100	557783	0	0
2024-09-04 12:38:47			0	37636	0	0	0	28597	27170	155263	27024	1077736	47064	110625	0	0	8101	557555	0	0
2024-09-04 12:39:47			0	37633	0	0	0	28594	27170	155239	27119	1077816	47086	110624	0	0	8100	557672	0	0
2024-09-04 12:40:47			0	37650	0	0	0	28610	27170	155215	27105	1077763	47086	110630	0	0	8101	557007	0	0
2024-09-04 12:41:47			0	37660	0	0	0	28628	27170	155127	26932	1077826	47076	110637	0	0	8101	556616	0	0
2024-09-04 12:42:47			0	37648	0	0	0	28612	27180	155215	27170	1077915	47064	110631	0	0	8101	557054	0	0
2024-09-04 12:43:47			0	37642	0	0	0	28610	27190	155235	27083	1077933	47088	110630	0	0	8101	557256	0	0
2024-09-04 12:44:47			0	37657	0	0	0	28589	27190	155247	26920	1077907	47077	110622	0	0	8102	556670	0	0
2024-09-04 12:45:47			0	37654	0	0	0	28605	27190	155211	26986	1077826	47055	110628	0	0	8102	556787	0	0
2024-09-04 12:46:47			0	37665	0	0	0	28618	27190	155163	26665	1077933	47077	110633	0	0	8102	556357	0	0
2024-09-04 12:47:47			0	37668	0	0	0	28584	27200	155159	27001	1077925	47066	110620	0	0	8103	556208	0	0
2024-09-04 12:48:47			0	37664	0	0	0	28571	27200	155119	26883	1077898	47077	110615	0	0	8103	556364	0	0
2024-09-04 12:49:47			0	37658	0	0	0	28584	27200	155167	27215	1077907	47044	110620	0	0	8102	556599	0	0
2024-09-04 12:50:47			0	37663	0	0	0	28628	27190	155171	27144	1077889	47055	110637	0	0	8102	556436	0	0
2024-09-04 12:51:47			0	37663	0	0	0	28618	27200	155075	27485	1077934	47089	110633	0	0	8102	556404	0	0
2024-09-04 12:52:47			0	37658	0	0	0	28610	27200	155083	27512	1077988	47067	110630	0	0	8102	556599	0	0
2024-09-04 12:53:47			0	37652	0	0	0	28727	27210	155199	27156	1077997	47090	110675	0	0	8100	556801	0	0
2024-09-04 12:54:47			0	37698	0	0	0	28753	27230	154995	27135	1078194	47092	110685	0	0	8102	554942	0	0
2024-09-04 12:55:47			0	37723	0	0	0	28742	27240	154963	27154	1078257	47104	110681	0	0	8104	553936	0	0
2024-09-04 12:56:47			0	37740	0	0	0	28696	27250	154771	27166	1078284	47083	110663	0	0	8105	553242	0	0
2024-09-04 12:57:47			0	37761	0	0	0	28698	27260	154623	27074	1078276	47095	110664	0	0	8107	552393	0	0
2024-09-04 12:58:47			0	37768	0	0	0	28709	27250	154647	27001	1078284	47083	110668	0	0	8107	552153	0	0
2024-09-04 12:59:47			0	37769	0	0	0	28748	27260	154643	27194	1078320	47095	110683	0	0	8106	552082	0	0
2024-09-04 13:00:47			0	37775	0	0	0	28750	27270	154619	27371	1078401	47074	110684	0	0	8107	551817	0	0
2024-09-04 13:01:47			0	37762	0	0	0	28735	27270	154631	27457	1078455	47085	110678	0	0	8106	552322	0	0
2024-09-04 13:02:47			0	37767	0	0	0	28727	27290	154671	27190	1078510	47087	110675	0	0	8107	552065	0	0
2024-09-04 13:03:47			0	37753	0	0	0	28729	27290	154675	27057	1078438	47076	110676	0	0	8106	552609	0	0
2024-09-04 13:04:47			0	37736	0	0	0	28755	27300	154679	27322	1078510	47078	110686	0	0	8104	553238	0	0
2024-09-04 13:05:47			0	37723	0	0	0	28745	27310	154891	27114	1078582	47067	110682	0	0	8104	553713	0	0
2024-09-04 13:06:47			0	37724	0	0	0	28722	27310	154647	27029	1078528	47089	110673	0	0	8104	553674	0	0
2024-09-04 13:07:47			0	37710	0	0	0	28719	27330	154787	27398	1078636	47091	110672	0	0	8104	554155	0	0
2024-09-04 13:08:47			0	37712	0	0	0	28719	27320	154903	27235	1078618	47090	110672	0	0	8104	554109	0	0
2024-09-04 13:09:47			0	37714	0	0	0	28675	27330	154887	27053	1078645	47080	110655	0	0	8105	554000	0	0
2024-09-04 13:10:47			0	37705	0	0	0	28690	27330	154831	27242	1078636	47091	110661	0	0	8104	554350	0	0
2024-09-04 13:11:47			0	37711	0	0	0	28719	27340	154747	27329	1078574	47081	110672	0	0	8104	554085	0	0
2024-09-04 13:12:47			0	37698	0	0	0	28745	27340	154703	27298	1078681	47081	110682	0	0	8102	554591	0	0
2024-09-04 13:13:47			0	37669	0	0	0	28714	27340	154931	27145	1078663	47093	110670	0	0	8101	555722	0	0
2024-09-04 13:14:47			0	37674	0	0	0	28711	27340	154847	27003	1078663	47082	110669	0	0	8102	555527	0	0
2024-09-04 13:15:47			0	37701	0	0	0	28683	27340	154807	27370	1078574	47081	110658	0	0	8104	554474	0	0
2024-09-04 13:16:47			0	37687	0	0	0	28683	27340	154747	26901	1078520	47059	110658	0	0	8103	555020	0	0
2024-09-04 13:17:47			0	37682	0	0	0	28722	27330	154783	27069	1078618	47069	110673	0	0	8102	555247	0	0
2024-09-04 13:18:47			0	37679	0	0	0	28701	27330	154771	26928	1078564	47058	110665	0	0	8102	555364	0	0
2024-09-04 13:19:47			0	37700	0	0	0	28716	27320	154867	27135	1078519	47069	110671	0	0	8103	554577	0	0
2024-09-04 13:20:47			0	37684	0	0	0	28714	27330	154811	27097	1078502	47080	110670	0	0	8102	555169	0	0
2024-09-04 13:21:47			0	37691	0	0	0	28709	27320	154807	27000	1078483	47079	110668	0	0	8103	554928	0	0
2024-09-04 13:22:47			0	37689	0	0	0	28714	27330	154815	27079	1078555	47091	110670	0	0	8102	554974	0	0
2024-09-04 13:23:47			0	37695	0	0	0	28703	27320	154747	27163	1078510	47057	110666	0	0	8103	554772	0	0
2024-09-04 13:24:47			0	37715	0	0	0	28706	27330	154831	27010	1078528	47069	110667	0	0	8104	553961	0	0
2024-09-04 13:25:47			0	37712	0	0	0	28696	27310	154719	27192	1078474	47078	110663	0	0	8104	554141	0	0
2024-09-04 13:26:47			0	37709	0	0	0	28693	27330	154659	27208	1078502	47069	110662	0	0	8104	554194	0	0
2024-09-04 13:27:47			0	37725	0	0	0	28701	27320	154675	27020	1078466	47080	110665	0	0	8105	553603	0	0
2024-09-04 13:28:47			0	37718	0	0	0	28706	27300	154675	27161	1078402	47067	110667	0	0	8104	553939	0	0
2024-09-04 13:29:47			0	37728	0	0	0	28709	27310	154711	27065	1078501	47067	110668	0	0	8105	553518	0	0
2024-09-04 13:30:47			0	37738	0	0	0	28714	27320	154663	27190	1078537	47079	110670	0	0	8105	553097	0	0
2024-09-04 13:31:47			0	37745	0	0	0	28719	27320	154671	26876	1078483	47090	110672	0	0	8106	552825	0	0
2024-09-04 13:32:47			0	37745	0	0	0	28719	27310	154619	27097	1078528	47078	110672	0	0	8106	552857	0	0
2024-09-04 13:33:47			0	37760	0	0	0	28724	27320	154623	26710	1078510	47079	110674	0	0	8106	552242	0	0
2024-09-04 13:34:47			0	37756	0	0	0	28735	27310	154555	27046	1078528	47078	110678	0	0	8106	552429	0	0
2024-09-04 13:35:47			0	37785	0	0	0	28745	27320	154487	26955	1078618	47090	110682	0	0	8107	551271	0	0
2024-09-04 13:36:47			0	37765	0	0	0	28774	27320	154519	27235	1078627	47091	110693	0	0	8106	552047	0	0
2024-09-04 13:37:47			0	37774	0	0	0	28774	27330	154603	27062	1078663	47102	110693	0	0	8106	551666	0	0
2024-09-04 13:38:47			0	37782	0	0	0	28750	27350	154499	27111	1078753	47105	110684	0	0	8107	551292	0	0
2024-09-04 13:39:47			0	37786	0	0	0	28771	27340	154551	27142	1078744	47082	110692	0	0	8107	551168	0	0
2024-09-04 13:40:47			0	37772	0	0	0	28763	27350	154491	27026	1078753	47083	110689	0	0	8107	551680	0	0
2024-09-04 13:41:47			0	37792	0	0	0	28771	27340	154479	27029	1078690	47093	110692	0	0	8107	550935	0	0
2024-09-04 13:42:47			0	37783	0	0	0	28776	27350	154375	27022	1078807	47083	110694	0	0	8107	551253	0	0
2024-09-04 13:43:47			0	37786	0	0	0	28786	27360	154339	27232	1078780	47083	110698	0	0	8107	551105	0	0
2024-09-04 13:44:47			0	37780	0	0	0	28786	27350	154515	27137	1078816	47072	110698	0	0	8107	551370	0	0
2024-09-04 13:45:47			0	37786	0	0	0	28792	27360	154363	27154	1078834	47073	110700	0	0	8107	551105	0	0
2024-09-04 13:46:47			0	37800	0	0	0	28807	27370	154407	27192	1078870	47107	110706	0	0	8107	550530	0	0
2024-09-04 13:47:47			0	37780	0	0	0	28810	27360	154411	27039	1078915	47106	110707	0	0	8106	551338	0	0
2024-09-04 13:48:47			0	37799	0	0	0	28807	27370	154307	26830	1078906	47096	110706	0	0	8107	550569	0	0
2024-09-04 13:49:47			0	37807	0	0	0	28810	27390	154399	26911	1078942	47086	110707	0	0	8108	550195	0	0
2024-09-04 13:50:47			0	37807	0	0	0	28820	27390	154375	27202	1078987	47098	110711	0	0	8108	550195	0	0
2024-09-04 13:51:47			0	37817	0	0	0	28833	27380	154251	26930	1079032	47108	110716	0	0	8108	549839	0	0
2024-09-04 13:52:47			0	37845	0	0	0	28831	27400	154247	27052	1079005	47098	110715	0	0	8110	548692	0	0
2024-09-04 13:53:47			0	37857	0	0	0	28828	27390	154187	27123	1078942	47086	110714	0	0	8111	548259	0	0
2024-09-04 13:54:47			0	37884	0	0	0	28818	27410	154123	27052	1079077	47078	110710	0	0	8112	547152	0	0
2024-09-04 13:55:47			0	37903	0	0	0	28802	27410	154063	27067	1079006	47088	110704	0	0	8114	546419	0	0
2024-09-04 13:56:47			0	37922	0	0	0	28812	27410	153879	26944	1079050	47088	110708	0	0	8115	545686	0	0
2024-09-04 13:57:47			0	37926	0	0	0	28802	27410	153935	27126	1079077	47078	110704	0	0	8115	545531	0	0
2024-09-04 13:58:47			0	37923	0	0	0	28807	27410	153835	27220	1079033	47088	110706	0	0	8115	545647	0	0
2024-09-04 13:59:47			0	37927	0	0	0	28820	27420	153935	27010	1079069	47090	110711	0	0	8115	545462	0	0
2024-09-04 14:00:47			0	37933	0	0	0	28828	27410	153855	27213	1079033	47100	110714	0	0	8115	545262	0	0
2024-09-04 14:01:47			0	37952	0	0	0	28836	27400	153815	26779	1079014	47099	110717	0	0	8116	544561	0	0
2024-09-04 14:02:47			0	37942	0	0	0	28833	27420	153703	26821	1079096	47090	110716	0	0	8115	544883	0	0
2024-09-04 14:03:47			0	37975	0	0	0	28833	27420	153627	26844	1079159	47090	110716	0	0	8117	543613	0	0
2024-09-04 14:04:47			0	37956	0	0	0	28831	27420	153539	26781	1079213	47090	110715	0	0	8116	544344	0	0
2024-09-04 14:05:47			0	37985	0	0	0	28825	27440	153639	27001	1079213	47091	110713	0	0	8118	543166	0	0
2024-09-04 14:06:47			0	37970	0	0	0	28828	27430	153707	26887	1079195	47091	110714	0	0	8117	543774	0	0
2024-09-04 14:07:47			0	37973	0	0	0	28820	27430	153583	26821	1079096	47081	110711	0	0	8118	543659	0	0
2024-09-04 14:08:47			0	37982	0	0	0	28831	27430	153599	27007	1079222	47091	110715	0	0	8118	543312	0	0
2024-09-04 14:09:47			0	37976	0	0	0	28838	27430	153591	27138	1079168	47080	110718	0	0	8117	543543	0	0
2024-09-04 14:10:47			0	37976	0	0	0	28833	27430	153611	26816	1079096	47081	110716	0	0	8117	543543	0	0
2024-09-04 14:11:47			0	37976	0	0	0	28831	27440	153619	27076	1079195	47103	110715	0	0	8118	543512	0	0
2024-09-04 14:12:47			0	37975	0	0	0	28838	27430	153635	27206	1079231	47091	110718	0	0	8117	543582	0	0
2024-09-04 14:13:47			0	37994	0	0	0	28849	27440	153527	26998	1079240	47081	110722	0	0	8118	542820	0	0
2024-09-04 14:14:47			0	37993	0	0	0	28846	27440	153567	26873	1079267	47103	110721	0	0	8118	542858	0	0
2024-09-04 14:15:47			0	38016	0	0	0	28841	27440	153515	27324	1079249	47091	110719	0	0	8120	541975	0	0
2024-09-04 14:16:47			0	38025	0	0	0	28841	27440	153339	26859	1079249	47091	110719	0	0	8120	541629	0	0
2024-09-04 14:17:47			0	38053	0	0	0	28846	27440	153300	27067	1079240	47091	110721	0	0	8122	540555	0	0
2024-09-04 14:18:47			0	38065	0	0	0	28849	27450	153264	26759	1079267	47094	110722	0	0	8122	540064	0	0
2024-09-04 14:19:47			0	38052	0	0	0	28864	27450	153288	26859	1079348	47105	110728	0	0	8121	540562	0	0
2024-09-04 14:20:47			0	38062	0	0	0	28877	27450	153324	27000	1079366	47104	110733	0	0	8122	540179	0	0
2024-09-04 14:21:47			0	38070	0	0	0	28893	27450	153264	27208	1079482	47105	110739	0	0	8122	539873	0	0
2024-09-04 14:22:47			0	38066	0	0	0	28948	27460	153284	27045	1079527	47105	110760	0	0	8121	539995	0	0
2024-09-04 14:23:47			0	38071	0	0	0	28979	27480	153292	26989	1079608	47107	110772	0	0	8121	539741	0	0
2024-09-04 14:24:47			0	38112	0	0	0	28981	27500	153096	26897	1079618	47120	110773	0	0	8123	538111	0	0
2024-09-04 14:25:47			0	38127	0	0	0	28986	27510	152996	27116	1079744	47121	110775	0	0	8124	537507	0	0
2024-09-04 14:26:47			0	38159	0	0	0	28976	27510	152888	27029	1079690	47121	110771	0	0	8126	536285	0	0
2024-09-04 14:27:47			0	38168	0	0	0	28953	27530	152776	26944	1079780	47124	110762	0	0	8127	535880	0	0
2024-09-04 14:28:47			0	38183	0	0	0	28919	27530	152724	27010	1079753	47102	110749	0	0	8128	535309	0	0
2024-09-04 14:29:47			0	38204	0	0	0	28935	27540	152700	26793	1079772	47091	110755	0	0	8129	534479	0	0
2024-09-04 14:30:47			0	38174	0	0	0	28932	27530	152796	27249	1079726	47102	110754	0	0	8128	535652	0	0
2024-09-04 14:31:47			0	38166	0	0	0	28942	27540	152848	26812	1079772	47091	110758	0	0	8127	535926	0	0
2024-09-04 14:32:47			0	38159	0	0	0	28953	27540	152744	27019	1079843	47102	110762	0	0	8126	536193	0	0
2024-09-04 14:33:47			0	38171	0	0	0	28958	27530	152804	27005	1079780	47113	110764	0	0	8127	535766	0	0
2024-09-04 14:34:47			0	38172	0	0	0	28973	27550	152880	27043	1079861	47125	110770	0	0	8127	535666	0	0
2024-09-04 14:35:47			0	38170	0	0	0	28963	27550	152856	26809	1079915	47091	110766	0	0	8127	535743	0	0
2024-09-04 14:36:47			0	38187	0	0	0	28968	27560	152772	26823	1079933	47104	110768	0	0	8128	535064	0	0
2024-09-04 14:37:47			0	38189	0	0	0	28976	27550	152820	26686	1079871	47104	110771	0	0	8128	535019	0	0
2024-09-04 14:38:47			0	38194	0	0	0	28981	27560	152736	27163	1079880	47104	110773	0	0	8128	534798	0	0
2024-09-04 14:39:47			0	38197	0	0	0	28989	27570	152648	26885	1080005	47093	110776	0	0	8128	534653	0	0
2024-09-04 14:40:47			0	38177	0	0	0	28997	27570	152700	26956	1080015	47106	110779	0	0	8127	535414	0	0
2024-09-04 14:41:47			0	38175	0	0	0	28997	27580	152620	26961	1080033	47118	110779	0	0	8127	535460	0	0
2024-09-04 14:42:47			0	38198	0	0	0	29010	27600	152636	26870	1080033	47109	110784	0	0	8128	534522	0	0
2024-09-04 14:43:47			0	38192	0	0	0	29010	27590	152628	27052	1080123	47107	110784	0	0	8128	534781	0	0
2024-09-04 14:44:47			0	38210	0	0	0	29015	27600	152612	26844	1080114	47120	110786	0	0	8129	534066	0	0
2024-09-04 14:45:47			0	38213	0	0	0	29041	27610	152660	27249	1080132	47097	110796	0	0	8128	533921	0	0
2024-09-04 14:46:47			0	38229	0	0	0	29036	27610	152484	26896	1080159	47109	110794	0	0	8129	533313	0	0
2024-09-04 14:47:47			0	38251	0	0	0	29005	27620	152460	26923	1080204	47099	110782	0	0	8131	532447	0	0
2024-09-04 14:48:47			0	38237	0	0	0	29020	27620	152336	27218	1080177	47099	110788	0	0	8130	532978	0	0
2024-09-04 14:49:47			0	38238	0	0	0	29062	27610	152536	27201	1080132	47109	110804	0	0	8130	532971	0	0
2024-09-04 14:50:47			0	38224	0	0	0	29051	27620	152480	27010	1080258	47122	110800	0	0	8129	533472	0	0
2024-09-04 14:51:47			0	38237	0	0	0	29054	27620	152652	27090	1080267	47111	110801	0	0	8130	532978	0	0
2024-09-04 14:52:47			0	38239	0	0	0	29059	27630	152500	27012	1080285	47112	110803	0	0	8130	532872	0	0
2024-09-04 14:53:47			0	38252	0	0	0	29051	27640	152300	26977	1080304	47124	110800	0	0	8131	532347	0	0
2024-09-04 14:54:47			0	38265	0	0	0	29049	27650	152260	27015	1080313	47102	110799	0	0	8131	531824	0	0
2024-09-04 14:55:47			0	38256	0	0	0	29054	27630	152264	27003	1080312	47123	110801	0	0	8131	532226	0	0
2024-09-04 14:56:47			0	38279	0	0	0	29054	27630	152220	27203	1080285	47112	110801	0	0	8132	531354	0	0
2024-09-04 14:57:47			0	38281	0	0	0	29064	27650	152204	27308	1080232	47114	110805	0	0	8132	531217	0	0
2024-09-04 14:58:47			0	38269	0	0	0	29057	27650	152180	27013	1080376	47102	110802	0	0	8132	531672	0	0
2024-09-04 14:59:47			0	38285	0	0	0	29059	27660	152116	27142	1080331	47103	110803	0	0	8132	531035	0	0
2024-09-04 15:00:47			0	38276	0	0	0	29072	27660	152212	26824	1080367	47126	110808	0	0	8132	531376	0	0
2024-09-04 15:01:47			0	38298	0	0	0	29083	27660	152280	27173	1080385	47115	110812	0	0	8133	530542	0	0
2024-09-04 15:02:47			0	38285	0	0	0	29096	27680	152196	27031	1080502	47127	110817	0	0	8132	530974	0	0
2024-09-04 15:03:47			0	38267	0	0	0	29106	27670	152228	27199	1080574	47116	110821	0	0	8131	531687	0	0
2024-09-04 15:04:47			0	38302	0	0	0	29127	27680	152120	26819	1080583	47127	110829	0	0	8132	530330	0	0
2024-09-04 15:05:47			0	38310	0	0	0	29137	27690	152132	27192	1080628	47118	110833	0	0	8133	529996	0	0
2024-09-04 15:06:47			0	38322	0	0	0	29137	27690	152012	27029	1080664	47140	110833	0	0	8133	529542	0	0
2024-09-04 15:07:47			0	38329	0	0	0	29158	27710	152032	27223	1080691	47120	110841	0	0	8134	529217	0	0
2024-09-04 15:08:47			0	38342	0	0	0	29155	27720	151916	26835	1080817	47143	110840	0	0	8134	528695	0	0
2024-09-04 15:09:47			0	38386	0	0	0	29145	27720	151856	27024	1080772	47132	110836	0	0	8137	527034	0	0
2024-09-04 15:10:47			0	38389	0	0	0	29163	27730	151840	27220	1080808	47133	110843	0	0	8137	526890	0	0
2024-09-04 15:11:47			0	38373	0	0	0	29148	27720	151788	26955	1080871	47109	110837	0	0	8136	527524	0	0
2024-09-04 15:12:47			0	38375	0	0	0	29168	27740	151772	27189	1080827	47133	110845	0	0	8136	527388	0	0
2024-09-04 15:13:47			0	38398	0	0	0	29168	27740	151756	27112	1080854	47123	110845	0	0	8137	526521	0	0
2024-09-04 15:14:47			0	38376	0	0	0	29181	27750	151752	27118	1080926	47125	110850	0	0	8136	527320	0	0
2024-09-04 15:15:47			0	38381	0	0	0	29179	27750	151684	27341	1080953	47147	110849	0	0	8136	527131	0	0
2024-09-04 15:16:47			0	38422	0	0	0	29179	27750	151544	27180	1080908	47125	110849	0	0	8139	525587	0	0
2024-09-04 15:17:47			0	38416	0	0	0	29176	27760	151604	27085	1080944	47125	110848	0	0	8138	525782	0	0
2024-09-04 15:18:47			0	38384	0	0	0	29194	27750	151620	27078	1080935	47135	110855	0	0	8136	527018	0	0
2024-09-04 15:19:47			0	38398	0	0	0	29184	27770	151636	26918	1081043	47137	110851	0	0	8137	526430	0	0
2024-09-04 15:20:47			0	38413	0	0	0	29192	27770	151688	27128	1081016	47137	110854	0	0	8138	525865	0	0
2024-09-04 15:21:47			0	38426	0	0	0	29189	27780	151572	26965	1081061	47137	110853	0	0	8139	525345	0	0
2024-09-04 15:22:47			0	38425	0	0	0	29184	27770	151492	27227	1081052	47126	110851	0	0	8139	525413	0	0
2024-09-04 15:23:47			0	38408	0	0	0	29181	27780	151612	27199	1081070	47117	110850	0	0	8138	526023	0	0
2024-09-04 15:24:47			0	38420	0	0	0	29186	27790	151388	27178	1081080	47118	110852	0	0	8139	525541	0	0
2024-09-04 15:25:47			0	38424	0	0	0	29199	27780	151596	27306	1081070	47127	110857	0	0	8139	525420	0	0
2024-09-04 15:26:47			0	38412	0	0	0	29179	27780	151580	27019	1081070	47138	110849	0	0	8138	525872	0	0
2024-09-04 15:27:47			0	38432	0	0	0	29194	27790	151528	27135	1081115	47119	110855	0	0	8139	525089	0	0
2024-09-04 15:28:47			0	38389	0	0	0	29210	27790	151540	27114	1081133	47118	110861	0	0	8136	526708	0	0
2024-09-04 15:29:47			0	38400	0	0	0	29194	27780	151580	27493	1081097	47105	110855	0	0	8137	526324	0	0
2024-09-04 15:30:47			0	38414	0	0	0	29192	27790	151540	26989	1081142	47119	110854	0	0	8138	525767	0	0
2024-09-04 15:31:47			0	38403	0	0	0	29186	27790	151548	27024	1081133	47128	110852	0	0	8138	526181	0	0
2024-09-04 15:32:47			0	38405	0	0	0	29184	27790	151692	27234	1081080	47106	110851	0	0	8138	526106	0	0
2024-09-04 15:33:47			0	38379	0	0	0	29218	27790	151664	27322	1081142	47119	110864	0	0	8136	527085	0	0
2024-09-04 15:34:47			0	38354	0	0	0	29205	27790	151772	26934	1081080	47128	110859	0	0	8135	528029	0	0
2024-09-04 15:35:47			0	38357	0	0	0	29218	27800	151748	27097	1081125	47129	110864	0	0	8135	527885	0	0
2024-09-04 15:36:47			0	38356	0	0	0	29236	27790	151788	26791	1081160	47128	110871	0	0	8134	527953	0	0
2024-09-04 15:37:47			0	38360	0	0	0	29249	27800	151668	27267	1081178	47140	110876	0	0	8134	527772	0	0
2024-09-04 15:38:47			0	38384	0	0	0	29254	27820	151636	27031	1081233	47142	110878	0	0	8136	526806	0	0
2024-09-04 15:39:47			0	38406	0	0	0	29254	27820	151612	27034	1081323	47131	110878	0	0	8137	525977	0	0
2024-09-04 15:40:47			0	38427	0	0	0	29257	27830	151576	27093	1081305	47142	110879	0	0	8138	525156	0	0
2024-09-04 15:41:47			0	38441	0	0	0	29246	27830	151400	27171	1081341	47122	110875	0	0	8139	524630	0	0
2024-09-04 15:42:47			0	38455	0	0	0	29254	27830	151440	27237	1081341	47122	110878	0	0	8140	524103	0	0
2024-09-04 15:43:47			0	38444	0	0	0	29249	27840	151412	27104	1081377	47145	110876	0	0	8139	524487	0	0
2024-09-04 15:44:47			0	38431	0	0	0	29241	27830	151488	27298	1081341	47132	110873	0	0	8139	525006	0	0
2024-09-04 15:45:47			0	38425	0	0	0	29270	27830	151424	26935	1081314	47132	110884	0	0	8138	525232	0	0
2024-09-04 15:46:47			0	38419	0	0	0	29283	27830	151496	27222	1081341	47132	110889	0	0	8137	525457	0	0
2024-09-04 15:47:47			0	38427	0	0	0	29296	27850	151428	26953	1081449	47145	110894	0	0	8137	525096	0	0
2024-09-04 15:48:47			0	38441	0	0	0	29270	27850	151376	27199	1081503	47133	110884	0	0	8139	524569	0	0
2024-09-04 15:49:47			0	38436	0	0	0	29257	27850	151344	27286	1081485	47146	110879	0	0	8139	524757	0	0
2024-09-04 15:50:47			0	38438	0	0	0	29270	27850	151448	27241	1081458	47146	110884	0	0	8139	524682	0	0
2024-09-04 15:51:47			0	38405	0	0	0	29277	27850	151412	26994	1081485	47134	110887	0	0	8137	525924	0	0
2024-09-04 15:52:47			0	38421	0	0	0	29267	27850	151364	27081	1081431	47134	110883	0	0	8138	525321	0	0
2024-09-04 15:53:47			0	38408	0	0	0	29270	27860	151396	27275	1081494	47146	110884	0	0	8137	525780	0	0
2024-09-04 15:54:47			0	38396	0	0	0	29262	27860	151604	27332	1081530	47136	110881	0	0	8136	526232	0	0
2024-09-04 15:55:47			0	38388	0	0	0	29264	27860	151512	27376	1081530	47136	110882	0	0	8136	526534	0	0
2024-09-04 15:56:47			0	38378	0	0	0	29275	27860	151464	27495	1081557	47136	110886	0	0	8135	526911	0	0
2024-09-04 15:57:47			0	38393	0	0	0	29306	27860	151636	27324	1081530	47136	110898	0	0	8135	526345	0	0
2024-09-04 15:58:47			0	38408	0	0	0	29309	27870	151624	26902	1081629	47147	110899	0	0	8136	525750	0	0
2024-09-04 15:59:47			0	38409	0	0	0	29322	27880	151428	27372	1081584	47160	110904	0	0	8136	525682	0	0
2024-09-04 16:00:47			0	38426	0	0	0	29309	27890	151352	27431	1081665	47150	110899	0	0	8137	525012	0	0
2024-09-04 16:01:47			0	38451	0	0	0	29322	27890	151264	27319	1081656	47150	110904	0	0	8139	524073	0	0
2024-09-04 16:02:47			0	38449	0	0	0	29332	27890	151268	27159	1081719	47161	110908	0	0	8138	524148	0	0
2024-09-04 16:03:47			0	38463	0	0	0	29309	27900	151204	27201	1081674	47139	110899	0	0	8140	523592	0	0
2024-09-04 16:04:47			0	38473	0	0	0	29332	27900	151180	27192	1081674	47151	110908	0	0	8140	523216	0	0
2024-09-04 16:05:47			0	38481	0	0	0	29337	27900	151132	27168	1081737	47140	110910	0	0	8140	522916	0	0
2024-09-04 16:06:47			0	38495	0	0	0	29298	27900	150932	27242	1081701	47139	110895	0	0	8142	522391	0	0
2024-09-04 16:07:47			0	38516	0	0	0	29270	27900	151020	27298	1081710	47152	110884	0	0	8143	521604	0	0
2024-09-04 16:08:47			0	38522	0	0	0	29267	27900	150908	27216	1081647	47117	110883	0	0	8144	521380	0	0
2024-09-04 16:09:47			0	38485	0	0	0	29280	27900	151084	26944	1081657	47129	110888	0	0	8141	522766	0	0
2024-09-04 16:10:47			0	38462	0	0	0	29283	27890	151160	27079	1081665	47127	110889	0	0	8140	523659	0	0
2024-09-04 16:11:47			0	38455	0	0	0	29296	27900	151248	27280	1081701	47139	110894	0	0	8139	523892	0	0
2024-09-04 16:12:47			0	38433	0	0	0	29298	27900	151344	26908	1081674	47128	110895	0	0	8138	524719	0	0
2024-09-04 16:13:47			0	38411	0	0	0	29301	27890	151408	27291	1081692	47138	110896	0	0	8137	525577	0	0
2024-09-04 16:14:47			0	38437	0	0	0	29290	27900	151336	27135	1081737	47140	110892	0	0	8138	524568	0	0
2024-09-04 16:15:47			0	38424	0	0	0	29285	27900	151384	27149	1081683	47140	110890	0	0	8138	525057	0	0
2024-09-04 16:16:47			0	38423	0	0	0	29270	27900	151492	26998	1081657	47140	110884	0	0	8138	525095	0	0
2024-09-04 16:17:47			0	38401	0	0	0	29280	27900	151396	27107	1081621	47139	110888	0	0	8137	525923	0	0
2024-09-04 16:18:47			0	38378	0	0	0	29288	27900	151448	26956	1081657	47118	110891	0	0	8135	526789	0	0
2024-09-04 16:19:47			0	38388	0	0	0	29280	27900	151456	27258	1081647	47139	110888	0	0	8136	526412	0	0
2024-09-04 16:20:47			0	38391	0	0	0	29277	27890	151488	27209	1081602	47127	110887	0	0	8136	526330	0	0
2024-09-04 16:21:47			0	38402	0	0	0	29272	27890	151448	27248	1081585	47116	110885	0	0	8137	525915	0	0
2024-09-04 16:22:47			0	38394	0	0	0	29283	27890	151400	27109	1081638	47138	110889	0	0	8136	526217	0	0
2024-09-04 16:23:47			0	38397	0	0	0	29280	27890	151420	27079	1081602	47127	110888	0	0	8136	526104	0	0
2024-09-04 16:24:47			0	38397	0	0	0	29290	27890	151464	26739	1081638	47127	110892	0	0	8136	526104	0	0
2024-09-04 16:25:47			0	38393	0	0	0	29296	27900	151504	27275	1081621	47139	110894	0	0	8136	526224	0	0
2024-09-04 16:26:47			0	38389	0	0	0	29285	27890	151380	27255	1081638	47138	110890	0	0	8136	526405	0	0
2024-09-04 16:27:47			0	38401	0	0	0	29288	27890	151348	27367	1081611	47138	110891	0	0	8136	525953	0	0
2024-09-04 16:28:47			0	38427	0	0	0	29275	27890	151332	27537	1081611	47127	110886	0	0	8138	524975	0	0
2024-09-04 16:29:47			0	38434	0	0	0	29285	27900	151412	27533	1081701	47139	110890	0	0	8138	524681	0	0
2024-09-04 16:30:47			0	38428	0	0	0	29272	27900	151296	27398	1081674	47139	110885	0	0	8138	524907	0	0
2024-09-04 16:31:47			0	38418	0	0	0	29267	27890	151248	27275	1081602	47138	110883	0	0	8138	525313	0	0
2024-09-04 16:32:47			0	38429	0	0	0	29270	27890	151220	27048	1081585	47138	110884	0	0	8138	524899	0	0
2024-09-04 16:33:47			0	38431	0	0	0	29275	27890	151276	27301	1081719	47116	110886	0	0	8138	524824	0	0
2024-09-04 16:34:47			0	38437	0	0	0	29285	27890	151384	27109	1081719	47161	110890	0	0	8138	524599	0	0
2024-09-04 16:35:47			0	38438	0	0	0	29311	27890	151240	27062	1081692	47138	110900	0	0	8138	524561	0	0
2024-09-04 16:36:47			0	38440	0	0	0	29290	27900	151260	27249	1081728	47139	110892	0	0	8139	524456	0	0
2024-09-04 16:37:47			0	38465	0	0	0	29259	27910	151208	27270	1081666	47140	110880	0	0	8141	523486	0	0
2024-09-04 16:38:47			0	38475	0	0	0	29257	27900	151188	27346	1081674	47128	110879	0	0	8141	523141	0	0
2024-09-04 16:39:47			0	38443	0	0	0	29259	27880	151124	27126	1081593	47127	110880	0	0	8139	524403	0	0
2024-09-04 16:40:47			0	38477	0	0	0	29288	27900	151124	27265	1081657	47140	110891	0	0	8141	523066	0	0
2024-09-04 16:41:47			0	38456	0	0	0	29270	27890	151148	27350	1081585	47138	110884	0	0	8140	523885	0	0
2024-09-04 16:42:47			0	38477	0	0	0	29280	27890	151064	27289	1081611	47127	110888	0	0	8141	523096	0	0
2024-09-04 16:43:47			0	38469	0	0	0	29290	27890	151164	27277	1081638	47127	110892	0	0	8140	523397	0	0
2024-09-04 16:44:47			0	38467	0	0	0	29303	27890	151100	27209	1081656	47138	110897	0	0	8140	523472	0	0
2024-09-04 16:45:47			0	38484	0	0	0	29316	27890	151076	27227	1081665	47150	110902	0	0	8141	522834	0	0
2024-09-04 16:46:47			0	38486	0	0	0	29319	27890	151008	27268	1081683	47127	110903	0	0	8141	522759	0	0
2024-09-04 16:47:47			0	38492	0	0	0	29332	27910	151064	27072	1081720	47140	110908	0	0	8141	522473	0	0
2024-09-04 16:48:47			0	38525	0	0	0	29345	27910	150940	27268	1081747	47152	110913	0	0	8143	521237	0	0
2024-09-04 16:49:47			0	38518	0	0	0	29350	27910	150780	27334	1081801	47140	110915	0	0	8142	521499	0	0
2024-09-04 16:50:47			0	38526	0	0	0	29337	27910	150844	27183	1081810	47140	110910	0	0	8143	521200	0	0
2024-09-04 16:51:47			0	38532	0	0	0	29327	27900	150840	27322	1081791	47140	110906	0	0	8143	521005	0	0
2024-09-04 16:52:47			0	38549	0	0	0	29335	27920	150772	27396	1081819	47141	110909	0	0	8144	520309	0	0
2024-09-04 16:53:47			0	38553	0	0	0	29329	27920	150776	27248	1081819	47141	110907	0	0	8144	520159	0	0
2024-09-04 16:54:47			0	38543	0	0	0	29335	27910	150776	27355	1081783	47140	110909	0	0	8144	520563	0	0
2024-09-04 16:55:47			0	38561	0	0	0	29311	27920	150732	27457	1081828	47154	110900	0	0	8145	519860	0	0
2024-09-04 16:56:47			0	38555	0	0	0	29301	27920	150784	27026	1081774	47142	110896	0	0	8145	520085	0	0
2024-09-04 16:57:47			0	38568	0	0	0	29285	27920	150620	27294	1081774	47142	110890	0	0	8146	519599	0	0
2024-09-04 16:58:47			0	38547	0	0	0	29311	27920	150656	27131	1081774	47131	110900	0	0	8144	520384	0	0
2024-09-04 16:59:47			0	38545	0	0	0	29283	27910	150772	27114	1081702	47140	110889	0	0	8145	520489	0	0
2024-09-04 17:00:47			0	38544	0	0	0	29241	27900	150736	27270	1081647	47117	110873	0	0	8145	520556	0	0
2024-09-04 17:01:47			0	38546	0	0	0	29228	27900	150852	27215	1081603	47129	110868	0	0	8146	520481	0	0
2024-09-04 17:02:47			0	38508	0	0	0	29223	27900	150876	27211	1081459	47106	110866	0	0	8144	521904	0	0
2024-09-04 17:03:47			0	38475	0	0	0	29215	27890	150964	27209	1081531	47127	110863	0	0	8142	523172	0	0
2024-09-04 17:04:47			0	38451	0	0	0	29238	27870	151060	27289	1081467	47114	110872	0	0	8140	524133	0	0
2024-09-04 17:05:47			0	38406	0	0	0	29257	27880	151276	27182	1081459	47116	110879	0	0	8137	525795	0	0
2024-09-04 17:06:47			0	38380	0	0	0	29251	27870	151452	27102	1081404	47114	110877	0	0	8136	526805	0	0
2024-09-04 17:07:47			0	38370	0	0	0	29249	27880	151484	27013	1081530	47126	110876	0	0	8135	527151	0	0
2024-09-04 17:08:47			0	38362	0	0	0	29264	27880	151524	27327	1081503	47137	110882	0	0	8134	527453	0	0
2024-09-04 17:09:47			0	38367	0	0	0	29267	27870	151624	27126	1081512	47147	110883	0	0	8135	527295	0	0
2024-09-04 17:10:47			0	38356	0	0	0	29280	27880	151616	27189	1081557	47149	110888	0	0	8134	527679	0	0
2024-09-04 17:11:47			0	38367	0	0	0	29290	27880	151488	27268	1081557	47149	110892	0	0	8134	527264	0	0
2024-09-04 17:12:47			0	38379	0	0	0	29301	27880	151560	27263	1081530	47149	110896	0	0	8135	526812	0	0
2024-09-04 17:13:47			0	38393	0	0	0	29311	27880	151408	27261	1081593	47150	110900	0	0	8135	526285	0	0
2024-09-04 17:14:47			0	38426	0	0	0	29290	27880	151400	27213	1081674	47150	110892	0	0	8138	525043	0	0
2024-09-04 17:15:47			0	38421	0	0	0	29311	27880	151280	27369	1081674	47161	110900	0	0	8137	525231	0	0
2024-09-04 17:16:47			0	38430	0	0	0	29329	27890	151300	27320	1081710	47161	110907	0	0	8137	524862	0	0
2024-09-04 17:17:47			0	38450	0	0	0	29327	27890	151220	27407	1081656	47150	110906	0	0	8138	524110	0	0
2024-09-04 17:18:47			0	38466	0	0	0	29335	27900	151172	27268	1081755	47151	110909	0	0	8139	523479	0	0
2024-09-04 17:19:47			0	38493	0	0	0	29335	27900	151012	27192	1081791	47140	110909	0	0	8141	522466	0	0
2024-09-04 17:20:47			0	38508	0	0	0	29340	27890	150992	27098	1081773	47138	110911	0	0	8142	521934	0	0
2024-09-04 17:21:47			0	38543	0	0	0	29342	27910	150952	26951	1081810	47140	110912	0	0	8144	520563	0	0
2024-09-04 17:22:47			0	38547	0	0	0	29350	27910	150796	27241	1081810	47140	110915	0	0	8144	520414	0	0
2024-09-04 17:23:47			0	38570	0	0	0	29358	27910	150820	27317	1081855	47163	110918	0	0	8145	519554	0	0
2024-09-04 17:24:47			0	38557	0	0	0	29358	27920	150740	27372	1081873	47141	110918	0	0	8144	520010	0	0
2024-09-04 17:25:47			0	38588	0	0	0	29350	27920	150624	27202	1081900	47153	110915	0	0	8146	518852	0	0
2024-09-04 17:26:47			0	38583	0	0	0	29342	27920	150700	27235	1081882	47131	110912	0	0	8146	519038	0	0
2024-09-04 17:27:47			0	38583	0	0	0	29332	27920	150668	27168	1081900	47153	110908	0	0	8146	519038	0	0
2024-09-04 17:28:47			0	38577	0	0	0	29319	27930	150680	27410	1081846	47155	110903	0	0	8146	519232	0	0
2024-09-04 17:29:47			0	38573	0	0	0	29290	27940	150584	27383	1081909	47155	110892	0	0	8146	519352	0	0
2024-09-04 17:30:47			0	38548	0	0	0	29298	27930	150708	27218	1081837	47143	110895	0	0	8145	520316	0	0
2024-09-04 17:31:47			0	38536	0	0	0	29309	27930	151016	27272	1081873	47143	110899	0	0	8144	520765	0	0
2024-09-04 17:32:47			0	38497	0	0	0	29309	27920	150996	27400	1081855	47154	110899	0	0	8142	522256	0	0
2024-09-04 17:33:47			0	38488	0	0	0	29285	27930	150988	27287	1081810	47143	110890	0	0	8142	522563	0	0
2024-09-04 17:34:47			0	38471	0	0	0	29288	27920	151088	27173	1081801	47131	110891	0	0	8140	523231	0	0
2024-09-04 17:35:47			0	38490	0	0	0	29298	27930	151056	27216	1081837	47132	110895	0	0	8141	522488	0	0
2024-09-04 17:36:47			0	38468	0	0	0	29311	27910	151084	27352	1081756	47129	110900	0	0	8140	523374	0	0
2024-09-04 17:37:47			0	38457	0	0	0	29324	27920	151200	27360	1081828	47154	110905	0	0	8139	523757	0	0
2024-09-04 17:38:47			0	38459	0	0	0	29342	27920	151128	27067	1081819	47141	110912	0	0	8139	523681	0	0
2024-09-04 17:39:47			0	38483	0	0	0	29348	27930	150988	27031	1081891	47143	110914	0	0	8140	522751	0	0
2024-09-04 17:40:47			0	38494	0	0	0	29337	27940	151016	27270	1081963	47143	110910	0	0	8141	522308	0	0
2024-09-04 17:41:47			0	38511	0	0	0	29337	27930	150944	27003	1081900	47143	110910	0	0	8142	521701	0	0
2024-09-04 17:42:47			0	38506	0	0	0	29322	27930	151020	26715	1081846	47143	110904	0	0	8142	521889	0	0
2024-09-04 17:43:47			0	38489	0	0	0	29329	27930	151028	27079	1081900	47155	110907	0	0	8141	522526	0	0
2024-09-04 17:44:47			0	38505	0	0	0	29335	27940	150988	26994	1081882	47132	110909	0	0	8142	521896	0	0
2024-09-04 17:45:47			0	38506	0	0	0	29342	27930	150960	27156	1081918	47143	110912	0	0	8142	521889	0	0
2024-09-04 17:46:47			0	38491	0	0	0	29355	27930	151080	26920	1081954	47143	110917	0	0	8141	522451	0	0
2024-09-04 17:47:47			0	38508	0	0	0	29384	27950	150992	27441	1081927	47145	110928	0	0	8141	521753	0	0
2024-09-04 17:48:47			0	38530	0	0	0	29405	27950	150848	27409	1082008	47178	110936	0	0	8142	520930	0	0
2024-09-04 17:49:47			0	38561	0	0	0	29389	27950	150776	27301	1082098	47157	110930	0	0	8144	519770	0	0
2024-09-04 17:50:47			0	38565	0	0	0	29358	27960	150604	27383	1082080	47157	110918	0	0	8145	519591	0	0
2024-09-04 17:51:47			0	38606	0	0	0	29342	27960	150556	27281	1081999	47157	110912	0	0	8147	518060	0	0
2024-09-04 17:52:47			0	38603	0	0	0	29329	27960	150572	27289	1082035	47158	110907	0	0	8147	518172	0	0
2024-09-04 17:53:47			0	38579	0	0	0	29337	27940	150720	27135	1081945	47144	110910	0	0	8146	519128	0	0
2024-09-04 17:54:47			0	38563	0	0	0	29340	27960	150808	27131	1082053	47145	110911	0	0	8145	519666	0	0
2024-09-04 17:55:47			0	38540	0	0	0	29340	27950	150888	26948	1081981	47145	110911	0	0	8144	520555	0	0
2024-09-04 17:56:47			0	38522	0	0	0	29329	27940	150940	27097	1081945	47144	110907	0	0	8143	521259	0	0
2024-09-04 17:57:47			0	38513	0	0	0	29332	27950	150908	26961	1082008	47134	110908	0	0	8142	521566	0	0
2024-09-04 17:58:47			0	38520	0	0	0	29335	27950	150912	27249	1081936	47145	110909	0	0	8143	521304	0	0
2024-09-04 17:59:47			0	38520	0	0	0	29327	27950	150840	27319	1081927	47157	110906	0	0	8143	521304	0	0
2024-09-04 18:00:47			0	38518	0	0	0	29316	27950	150880	27332	1081954	47157	110902	0	0	8143	521379	0	0
2024-09-04 18:01:47			0	38492	0	0	0	29340	27940	150904	27178	1081945	47144	110911	0	0	8141	522383	0	0
2024-09-04 18:02:47			0	38504	0	0	0	29353	27940	150912	27173	1081909	47132	110916	0	0	8141	521933	0	0
2024-09-04 18:03:47			0	38508	0	0	0	29358	27940	151000	26989	1081972	47144	110918	0	0	8141	521784	0	0
2024-09-04 18:04:47			0	38525	0	0	0	29363	27950	150992	27138	1081954	47157	110920	0	0	8142	521117	0	0
2024-09-04 18:05:47			0	38541	0	0	0	29332	27940	150828	27284	1081936	47143	110908	0	0	8144	520548	0	0
2024-09-04 18:06:47			0	38532	0	0	0	29350	27940	150808	27274	1081864	47133	110915	0	0	8143	520885	0	0
2024-09-04 18:07:47			0	38525	0	0	0	29366	27950	150800	27305	1081954	47145	110921	0	0	8142	521117	0	0
2024-09-04 18:08:47			0	38545	0	0	0	29348	27940	150788	27178	1081972	47144	110914	0	0	8144	520399	0	0
2024-09-04 18:09:47			0	38537	0	0	0	29348	27940	150760	27135	1081945	47144	110914	0	0	8143	520698	0	0
2024-09-04 18:10:47			0	38522	0	0	0	29342	27950	150796	27067	1082008	47157	110912	0	0	8143	521229	0	0
2024-09-04 18:11:47			0	38535	0	0	0	29345	27940	150752	26984	1081999	47156	110913	0	0	8143	520773	0	0
2024-09-04 18:12:47			0	38542	0	0	0	29348	27940	150740	27130	1081972	47144	110914	0	0	8144	520511	0	0
2024-09-04 18:13:47			0	38549	0	0	0	29340	27960	150700	26928	1082080	47157	110911	0	0	8144	520189	0	0
2024-09-04 18:14:47			0	38549	0	0	0	29358	27950	150756	27078	1081981	47134	110918	0	0	8144	520219	0	0
2024-09-04 18:15:47			0	38542	0	0	0	29358	27950	150836	26759	1081900	47157	110918	0	0	8143	520481	0	0
2024-09-04 18:16:47			0	38543	0	0	0	29361	27950	150712	26804	1082008	47145	110919	0	0	8143	520443	0	0
2024-09-04 18:17:47			0	38542	0	0	0	29371	27960	150764	27111	1082080	47134	110923	0	0	8143	520451	0	0
2024-09-04 18:18:47			0	38580	0	0	0	29379	27950	150688	27092	1082035	47157	110926	0	0	8145	519060	0	0
2024-09-04 18:19:47			0	38590	0	0	0	29374	27960	150532	27138	1082062	47168	110924	0	0	8146	518657	0	0
2024-09-04 18:20:47			0	38584	0	0	0	29374	27960	150560	27159	1081972	47134	110924	0	0	8146	518881	0	0
2024-09-04 18:21:47			0	38609	0	0	0	29374	27950	150472	26670	1082044	47157	110924	0	0	8147	517978	0	0
2024-09-04 18:22:47			0	38615	0	0	0	29371	27960	150512	27227	1081999	47145	110923	0	0	8147	517725	0	0
2024-09-04 18:23:47			0	38628	0	0	0	29371	27960	150328	27213	1081999	47145	110923	0	0	8148	517240	0	0
2024-09-04 18:24:47			0	38616	0	0	0	29358	27950	150392	26852	1082044	47157	110918	0	0	8148	517717	0	0
2024-09-04 18:25:47			0	38653	0	0	0	29345	27950	150416	27010	1082017	47157	110913	0	0	8150	516339	0	0
2024-09-04 18:26:47			0	38636	0	0	0	29350	27950	150516	27130	1082017	47145	110915	0	0	8149	516972	0	0
2024-09-04 18:27:47			0	38589	0	0	0	29348	27960	150588	27213	1081999	47157	110914	0	0	8146	518695	0	0
2024-09-04 18:28:47			0	38566	0	0	0	29350	27950	150692	27003	1082008	47145	110915	0	0	8145	519583	0	0
2024-09-04 18:29:47			0	38566	0	0	0	29348	27950	150588	27086	1081910	47134	110914	0	0	8145	519583	0	0
2024-09-04 18:30:47			0	38599	0	0	0	29340	27950	150644	26897	1081927	47157	110911	0	0	8147	518351	0	0
2024-09-04 18:31:47			0	38558	0	0	0	29322	27940	150692	27305	1081945	47144	110904	0	0	8145	519913	0	0
2024-09-04 18:32:47			0	38578	0	0	0	29329	27940	150728	27079	1081918	47133	110907	0	0	8146	519165	0	0
2024-09-04 18:33:47			0	38540	0	0	0	29319	27930	150760	26774	1081900	47143	110903	0	0	8144	520616	0	0
2024-09-04 18:34:47			0	38543	0	0	0	29322	27930	150880	26958	1081837	47143	110904	0	0	8144	520503	0	0
2024-09-04 18:35:47			0	38519	0	0	0	29322	27920	150968	26908	1081828	47142	110904	0	0	8143	521432	0	0
2024-09-04 18:36:47			0	38526	0	0	0	29329	27930	151052	26982	1081837	47155	110907	0	0	8143	521139	0	0
2024-09-04 18:37:47			0	38515	0	0	0	29298	27920	150964	26979	1081855	47142	110895	0	0	8143	521581	0	0
2024-09-04 18:38:47			0	38483	0	0	0	29306	27920	150948	26568	1081792	47130	110898	0	0	8141	522781	0	0
2024-09-04 18:39:47			0	38474	0	0	0	29301	27920	150996	26809	1081819	47130	110896	0	0	8140	523119	0	0
2024-09-04 18:40:47			0	38488	0	0	0	29311	27920	151068	27261	1081765	47153	110900	0	0	8141	522593	0	0
2024-09-04 18:41:47			0	38497	0	0	0	29314	27910	151124	27026	1081702	47140	110901	0	0	8141	522286	0	0
2024-09-04 18:42:47			0	38479	0	0	0	29309	27910	151112	26805	1081774	47140	110899	0	0	8141	522961	0	0
2024-09-04 18:43:47			0	38462	0	0	0	29296	27910	151040	26889	1081810	47140	110894	0	0	8140	523599	0	0
2024-09-04 18:44:47			0	38463	0	0	0	29293	27910	151152	26968	1081801	47152	110893	0	0	8140	523562	0	0
2024-09-04 18:45:47			0	38471	0	0	0	29290	27900	151040	27060	1081737	47140	110892	0	0	8140	523291	0	0
2024-09-04 18:46:47			0	38477	0	0	0	29283	27900	151140	26757	1081737	47140	110889	0	0	8141	523066	0	0
2024-09-04 18:47:47			0	38470	0	0	0	29296	27900	151144	26854	1081683	47140	110894	0	0	8140	523329	0	0
2024-09-04 18:48:47			0	38449	0	0	0	29303	27890	151088	27305	1081692	47150	110897	0	0	8139	524148	0	0
2024-09-04 18:49:47			0	38457	0	0	0	29309	27900	151192	27279	1081683	47152	110899	0	0	8139	523817	0	0
2024-09-04 18:50:47			0	38469	0	0	0	29298	27900	151260	27034	1081710	47152	110895	0	0	8140	523366	0	0
2024-09-04 18:51:47			0	38457	0	0	0	29306	27890	151200	27085	1081719	47161	110898	0	0	8139	523847	0	0
2024-09-04 18:52:47			0	38470	0	0	0	29303	27900	151176	27050	1081737	47152	110897	0	0	8140	523329	0	0
2024-09-04 18:53:47			0	38470	0	0	0	29293	27900	151220	27144	1081701	47151	110893	0	0	8140	523329	0	0
2024-09-04 18:54:47			0	38470	0	0	0	29303	27890	151292	27123	1081719	47138	110897	0	0	8140	523359	0	0
2024-09-04 18:55:47			0	38488	0	0	0	29293	27890	151236	27059	1081665	47150	110893	0	0	8141	522684	0	0
2024-09-04 18:56:47			0	38462	0	0	0	29296	27890	151324	27170	1081683	47150	110894	0	0	8140	523659	0	0
2024-09-04 18:57:47			0	38439	0	0	0	29309	27890	151380	27074	1081692	47150	110899	0	0	8138	524524	0	0
2024-09-04 18:58:47			0	38448	0	0	0	29290	27890	151408	27209	1081719	47138	110892	0	0	8139	524185	0	0
2024-09-04 18:59:47			0	38412	0	0	0	29283	27890	151456	27291	1081665	47138	110889	0	0	8137	525539	0	0
2024-09-04 19:00:47			0	38423	0	0	0	29275	27890	151452	27152	1081665	47150	110886	0	0	8138	525125	0	0
2024-09-04 19:01:47			0	38402	0	0	0	29283	27880	151556	27190	1081593	47150	110889	0	0	8136	525946	0	0
2024-09-04 19:02:47			0	38403	0	0	0	29264	27890	151524	27097	1081629	47138	110882	0	0	8137	525878	0	0
2024-09-04 19:03:47			0	38385	0	0	0	29264	27880	151528	27015	1081566	47138	110882	0	0	8136	526586	0	0
2024-09-04 19:04:47			0	38389	0	0	0	29238	27880	151624	27267	1081557	47160	110872	0	0	8136	526435	0	0
2024-09-04 19:05:47			0	38363	0	0	0	29262	27880	151628	27239	1081584	47137	110881	0	0	8135	527415	0	0
2024-09-04 19:06:47			0	38364	0	0	0	29257	27880	151732	27265	1081557	47149	110879	0	0	8135	527378	0	0
2024-09-04 19:07:47			0	38359	0	0	0	29233	27870	151664	26920	1081494	47136	110870	0	0	8135	527597	0	0
2024-09-04 19:08:47			0	38329	0	0	0	29236	27870	151720	27043	1081494	47136	110871	0	0	8133	528729	0	0
2024-09-04 19:09:47			0	38323	0	0	0	29231	27860	151720	27272	1081467	47146	110869	0	0	8133	528986	0	0
2024-09-04 19:10:47			0	38313	0	0	0	29205	27850	151828	27033	1081485	47134	110859	0	0	8133	529395	0	0
2024-09-04 19:11:47			0	38306	0	0	0	29218	27860	151880	27192	1081440	47135	110864	0	0	8132	529629	0	0
2024-09-04 19:12:47			0	38297	0	0	0	29231	27850	151912	27078	1081368	47145	110869	0	0	8131	530000	0	0
2024-09-04 19:13:47			0	38289	0	0	0	29236	27850	152000	27176	1081404	47146	110871	0	0	8131	530302	0	0
2024-09-04 19:14:47			0	38291	0	0	0	29233	27850	151820	27225	1081368	47133	110870	0	0	8131	530227	0	0
2024-09-04 19:15:47			0	38307	0	0	0	29244	27840	151872	27353	1081431	47145	110874	0	0	8131	529652	0	0
2024-09-04 19:16:47			0	38305	0	0	0	29236	27830	151924	27301	1081448	47143	110871	0	0	8131	529758	0	0
2024-09-04 19:17:47			0	38292	0	0	0	29244	27840	151852	27388	1081377	47145	110874	0	0	8131	530220	0	0
2024-09-04 19:18:47			0	38293	0	0	0	29238	27840	151980	27159	1081350	47145	110872	0	0	8131	530182	0	0
2024-09-04 19:19:47			0	38287	0	0	0	29241	27840	151992	27303	1081404	47133	110873	0	0	8130	530409	0	0
2024-09-04 19:20:47			0	38267	0	0	0	29244	27840	151996	27166	1081332	47145	110874	0	0	8129	531166	0	0
2024-09-04 19:21:47			0	38263	0	0	0	29231	27830	151996	27346	1081341	47143	110869	0	0	8129	531348	0	0
2024-09-04 19:22:47			0	38271	0	0	0	29238	27840	152116	27452	1081404	47145	110872	0	0	8129	531015	0	0
2024-09-04 19:23:47			0	38270	0	0	0	29236	27830	152120	27022	1081412	47142	110871	0	0	8129	531083	0	0
2024-09-04 19:24:47			0	38256	0	0	0	29238	27840	152112	27118	1081350	47145	110872	0	0	8129	531583	0	0
2024-09-04 19:25:47			0	38283	0	0	0	29238	27830	152052	26915	1081314	47132	110872	0	0	8130	530591	0	0
2024-09-04 19:26:47			0	38279	0	0	0	29231	27830	152140	27059	1081395	47155	110869	0	0	8130	530742	0	0
2024-09-04 19:27:47			0	38269	0	0	0	29233	27830	152032	27450	1081368	47143	110870	0	0	8129	531121	0	0
2024-09-04 19:28:47			0	38264	0	0	0	29238	27830	152108	27339	1081412	47154	110872	0	0	8129	531310	0	0
2024-09-04 19:29:47			0	38223	0	0	0	29244	27830	152216	27327	1081359	47142	110874	0	0	8127	532865	0	0
2024-09-04 19:30:47			0	38215	0	0	0	29244	27840	152092	27171	1081350	47156	110874	0	0	8126	533138	0	0
2024-09-04 19:31:47			0	38196	0	0	0	29244	27830	152280	27166	1081395	47143	110874	0	0	8125	533891	0	0
2024-09-04 19:32:47			0	38184	0	0	0	29246	27820	152280	27215	1081376	47142	110875	0	0	8124	534378	0	0
2024-09-04 19:33:47			0	38196	0	0	0	29251	27830	152228	27034	1081395	47143	110877	0	0	8125	533891	0	0
2024-09-04 19:34:47			0	38167	0	0	0	29246	27830	152328	27209	1081421	47143	110875	0	0	8123	534994	0	0
2024-09-04 19:35:47			0	38164	0	0	0	29244	27830	152324	27376	1081368	47155	110874	0	0	8123	535108	0	0
2024-09-04 19:36:47			0	38141	0	0	0	29249	27830	152288	26979	1081359	47142	110876	0	0	8122	535984	0	0
2024-09-04 19:37:47			0	38144	0	0	0	29236	27840	152240	27156	1081350	47156	110871	0	0	8122	535839	0	0
2024-09-04 19:38:47			0	38147	0	0	0	29231	27830	152428	27124	1081439	47131	110869	0	0	8122	535755	0	0
2024-09-04 19:39:47			0	38124	0	0	0	29244	27830	152388	26970	1081386	47142	110874	0	0	8121	536632	0	0
2024-09-04 19:40:47			0	38126	0	0	0	29233	27830	152412	27396	1081386	47142	110870	0	0	8121	536555	0	0
2024-09-04 19:41:47			0	38140	0	0	0	29218	27830	152360	27296	1081359	47142	110864	0	0	8122	536022	0	0
2024-09-04 19:42:47			0	38132	0	0	0	29233	27830	152364	27248	1081386	47154	110870	0	0	8122	536327	0	0
2024-09-04 19:43:47			0	38132	0	0	0	29231	27830	152416	27185	1081386	47131	110869	0	0	8122	536327	0	0
2024-09-04 19:44:47			0	38147	0	0	0	29231	27830	152376	27263	1081359	47142	110869	0	0	8122	535755	0	0
2024-09-04 19:45:47			0	38128	0	0	0	29218	27830	152476	27329	1081332	47131	110864	0	0	8122	536479	0	0
2024-09-04 19:46:47			0	38104	0	0	0	29220	27830	152652	27150	1081305	47131	110865	0	0	8120	537395	0	0
2024-09-04 19:47:47			0	38055	0	0	0	29215	27810	152668	27036	1081277	47130	110863	0	0	8117	539329	0	0
2024-09-04 19:48:47			0	38011	0	0	0	29220	27810	152751	27274	1081268	47140	110865	0	0	8115	541013	0	0
2024-09-04 19:49:47			0	37985	0	0	0	29218	27820	152975	27119	1081269	47154	110864	0	0	8113	541979	0	0
2024-09-04 19:50:47			0	37960	0	0	0	29207	27820	153123	27060	1081260	47142	110860	0	0	8112	542939	0	0
2024-09-04 19:51:47			0	37949	0	0	0	29202	27820	153255	27019	1081206	47131	110858	0	0	8111	543361	0	0
2024-09-04 19:52:47			0	37922	0	0	0	29197	27820	153239	27168	1081206	47131	110856	0	0	8110	544399	0	0
2024-09-04 19:53:47			0	37906	0	0	0	29194	27810	153363	27156	1081268	47129	110855	0	0	8109	545047	0	0
2024-09-04 19:54:47			0	37884	0	0	0	29205	27810	153439	26967	1081224	47141	110859	0	0	8108	545894	0	0
2024-09-04 19:55:47			0	37863	0	0	0	29197	27800	153599	27298	1081152	47140	110856	0	0	8107	546736	0	0
2024-09-04 19:56:47			0	37847	0	0	0	29189	27800	153567	27154	1081152	47129	110853	0	0	8106	547353	0	0
2024-09-04 19:57:47			0	37837	0	0	0	29186	27790	153583	27102	1081169	47140	110852	0	0	8105	547771	0	0
2024-09-04 19:58:47			0	37844	0	0	0	29176	27790	153503	27280	1081169	47129	110848	0	0	8106	547500	0	0
2024-09-04 19:59:47			0	37840	0	0	0	29179	27780	153543	27128	1081097	47127	110849	0	0	8105	547686	0	0
2024-09-04 20:00:47			0	37854	0	0	0	29186	27790	153531	27060	1081115	47152	110852	0	0	8106	547114	0	0
2024-09-04 20:01:47			0	37859	0	0	0	29184	27790	153583	27100	1081133	47151	110851	0	0	8106	546921	0	0
2024-09-04 20:02:47			0	37848	0	0	0	29179	27790	153527	26736	1081106	47139	110849	0	0	8106	547346	0	0
2024-09-04 20:03:47			0	37870	0	0	0	29186	27790	153547	27203	1081106	47139	110852	0	0	8107	546497	0	0
2024-09-04 20:04:47			0	37877	0	0	0	29176	27790	153487	26861	1081089	47152	110848	0	0	8108	546227	0	0
2024-09-04 20:05:47			0	37890	0	0	0	29184	27770	153527	27031	1081079	47137	110851	0	0	8108	545789	0	0
2024-09-04 20:06:47			0	37896	0	0	0	29181	27780	153575	27012	1081088	47126	110850	0	0	8109	545526	0	0
2024-09-04 20:07:47			0	37868	0	0	0	29184	27780	153603	27104	1081115	47126	110851	0	0	8107	546606	0	0
2024-09-04 20:08:47			0	37853	0	0	0	29186	27790	153631	27203	1081053	47139	110852	0	0	8106	547153	0	0
2024-09-04 20:09:47			0	37863	0	0	0	29181	27770	153607	27161	1081079	47126	110850	0	0	8107	546830	0	0
2024-09-04 20:10:47			0	37870	0	0	0	29179	27780	153455	27024	1081070	47161	110849	0	0	8107	546528	0	0
2024-09-04 20:11:47			0	37876	0	0	0	29189	27780	153499	26772	1081070	47138	110853	0	0	8107	546297	0	0
2024-09-04 20:12:47			0	37876	0	0	0	29189	27770	153447	26956	1081124	47126	110853	0	0	8107	546329	0	0
2024-09-04 20:13:47			0	37888	0	0	0	29189	27780	153435	26958	1081115	47137	110853	0	0	8108	545834	0	0
2024-09-04 20:14:47			0	37875	0	0	0	29189	27770	153487	26693	1081070	47137	110853	0	0	8107	546367	0	0
2024-09-04 20:15:47			0	37858	0	0	0	29189	27780	153515	26861	1081088	47137	110853	0	0	8106	546991	0	0
2024-09-04 20:16:47			0	37871	0	0	0	29181	27780	153527	27066	1081061	47137	110850	0	0	8107	546490	0	0
2024-09-04 20:17:47			0	37856	0	0	0	29181	27790	153531	26968	1081133	47139	110850	0	0	8106	547037	0	0
2024-09-04 20:18:47			0	37881	0	0	0	29184	27770	153439	27005	1081106	47137	110851	0	0	8108	546136	0	0
2024-09-04 20:19:47			0	37899	0	0	0	29171	27770	153471	26861	1081106	47137	110846	0	0	8109	545442	0	0
2024-09-04 20:20:47			0	37899	0	0	0	29166	27770	153523	27150	1081052	47149	110844	0	0	8109	545442	0	0
2024-09-04 20:21:47			0	37916	0	0	0	29158	27770	153363	27001	1081016	47126	110841	0	0	8110	544787	0	0
2024-09-04 20:22:47			0	37952	0	0	0	29171	27770	153251	26987	1081016	47137	110846	0	0	8112	543403	0	0
2024-09-04 20:23:47			0	37942	0	0	0	29161	27760	153271	26802	1080971	47135	110842	0	0	8112	543818	0	0
2024-09-04 20:24:47			0	37956	0	0	0	29153	27770	153067	26967	1080962	47126	110839	0	0	8112	543249	0	0
2024-09-04 20:25:47			0	37983	0	0	0	29163	27760	153143	27026	1080926	47136	110843	0	0	8114	542243	0	0
2024-09-04 20:26:47			0	37974	0	0	0	29168	27760	153131	26998	1080980	47125	110845	0	0	8113	542589	0	0
2024-09-04 20:27:47			0	37956	0	0	0	29153	27750	153183	27001	1080962	47135	110839	0	0	8112	543311	0	0
2024-09-04 20:28:47			0	37957	0	0	0	29155	27750	153255	27071	1080953	47135	110840	0	0	8112	543273	0	0
2024-09-04 20:29:47			0	37956	0	0	0	29153	27750	153167	27384	1080962	47147	110839	0	0	8112	543311	0	0
2024-09-04 20:30:47			0	37942	0	0	0	29163	27760	153383	27204	1080944	47125	110843	0	0	8111	543818	0	0
2024-09-04 20:31:47			0	37959	0	0	0	29161	27750	153371	27015	1080926	47135	110842	0	0	8112	543196	0	0
2024-09-04 20:32:47			0	37937	0	0	0	29150	27750	153399	27112	1080908	47135	110838	0	0	8111	544042	0	0
2024-09-04 20:33:47			0	37967	0	0	0	29153	27760	153359	26817	1080998	47135	110839	0	0	8113	542858	0	0
2024-09-04 20:34:47			0	37969	0	0	0	29153	27750	153319	27041	1081016	47135	110839	0	0	8113	542812	0	0
2024-09-04 20:35:47			0	37956	0	0	0	29153	27750	153223	26994	1080854	47135	110839	0	0	8112	543311	0	0
2024-09-04 20:36:47			0	37984	0	0	0	29148	27750	153299	26996	1080899	47135	110837	0	0	8114	542236	0	0
2024-09-04 20:37:47			0	37974	0	0	0	29150	27750	153279	27320	1080908	47147	110838	0	0	8113	542620	0	0
2024-09-04 20:38:47			0	37989	0	0	0	29153	27740	153207	27157	1080917	47113	110839	0	0	8114	542075	0	0
2024-09-04 20:39:47			0	38000	0	0	0	29150	27750	153171	27211	1080953	47135	110838	0	0	8115	541622	0	0
2024-09-04 20:40:47			0	38001	0	0	0	29145	27740	153251	27164	1080890	47146	110836	0	0	8115	541615	0	0
2024-09-04 20:41:47			0	37970	0	0	0	29145	27740	153167	27071	1080917	47134	110836	0	0	8113	542805	0	0
2024-09-04 20:42:47			0	37972	0	0	0	29150	27750	153159	27005	1080926	47147	110838	0	0	8113	542697	0	0
2024-09-04 20:43:47			0	37984	0	0	0	29148	27750	153283	26965	1080899	47135	110837	0	0	8114	542236	0	0
2024-09-04 20:44:47			0	37984	0	0	0	29140	27740	153239	27090	1080881	47123	110834	0	0	8114	542267	0	0
2024-09-04 20:45:47			0	37981	0	0	0	29142	27750	153175	26694	1080926	47135	110835	0	0	8114	542351	0	0
2024-09-04 20:46:47			0	37998	0	0	0	29145	27750	153187	26804	1080899	47147	110836	0	0	8115	541699	0	0
2024-09-04 20:47:47			0	37982	0	0	0	29140	27740	153271	26783	1080854	47145	110834	0	0	8114	542344	0	0
2024-09-04 20:48:47			0	37986	0	0	0	29142	27740	153139	26809	1080863	47134	110835	0	0	8114	542190	0	0
2024-09-04 20:49:47			0	37975	0	0	0	29140	27740	153147	26923	1080827	47133	110834	0	0	8114	542613	0	0
2024-09-04 20:50:47			0	37977	0	0	0	29150	27730	153291	26994	1080845	47145	110838	0	0	8114	542567	0	0
2024-09-04 20:51:47			0	37960	0	0	0	29155	27740	153223	26920	1080943	47134	110840	0	0	8113	543189	0	0
2024-09-04 20:52:47			0	37977	0	0	0	29158	27730	153215	27085	1080898	47145	110841	0	0	8113	542567	0	0
2024-09-04 20:53:47			0	37979	0	0	0	29158	27740	153307	27010	1080934	47133	110841	0	0	8114	542459	0	0
2024-09-04 20:54:47			0	37979	0	0	0	29158	27730	153251	27197	1080898	47145	110841	0	0	8114	542490	0	0
2024-09-04 20:55:47			0	37981	0	0	0	29166	27740	153239	26866	1080907	47145	110844	0	0	8114	542382	0	0
2024-09-04 20:56:47			0	37992	0	0	0	29166	27740	153263	26967	1080943	47134	110844	0	0	8114	541960	0	0
2024-09-04 20:57:47			0	37977	0	0	0	29173	27740	153267	27128	1080943	47146	110847	0	0	8113	542536	0	0
2024-09-04 20:58:47			0	37984	0	0	0	29171	27730	153231	27137	1080979	47133	110846	0	0	8114	542298	0	0
2024-09-04 20:59:47			0	37972	0	0	0	29168	27760	153199	27190	1080998	47135	110845	0	0	8113	542666	0	0
2024-09-04 21:00:47			0	37997	0	0	0	29153	27750	153143	26875	1081033	47147	110839	0	0	8115	541737	0	0
2024-09-04 21:01:47			0	38009	0	0	0	29161	27750	153007	27372	1080979	47147	110842	0	0	8115	541277	0	0
2024-09-04 21:02:47			0	38006	0	0	0	29155	27750	153191	27072	1081006	47135	110840	0	0	8115	541392	0	0
2024-09-04 21:03:47			0	38048	0	0	0	29161	27750	152936	27242	1080908	47135	110842	0	0	8118	539783	0	0
2024-09-04 21:04:47			0	38035	0	0	0	29158	27750	152892	27137	1080935	47158	110841	0	0	8117	540281	0	0
2024-09-04 21:05:47			0	38049	0	0	0	29153	27750	152912	27133	1080979	47158	110839	0	0	8118	539745	0	0
2024-09-04 21:06:47			0	38043	0	0	0	29153	27740	152896	27074	1080970	47146	110839	0	0	8117	540005	0	0
2024-09-04 21:07:47			0	38031	0	0	0	29150	27740	153048	27090	1081015	47133	110838	0	0	8117	540465	0	0
2024-09-04 21:08:47			0	38021	0	0	0	29140	27750	153075	27112	1080881	47125	110834	0	0	8116	540817	0	0
2024-09-04 21:09:47			0	38006	0	0	0	29150	27740	153143	26972	1080943	47134	110838	0	0	8115	541423	0	0
2024-09-04 21:10:47			0	37989	0	0	0	29132	27750	153155	27081	1080926	47135	110831	0	0	8115	542044	0	0
2024-09-04 21:11:47			0	37983	0	0	0	29145	27750	153319	26998	1080872	47135	110836	0	0	8114	542274	0	0
2024-09-04 21:12:47			0	37981	0	0	0	29145	27740	153231	27182	1080890	47134	110836	0	0	8114	542382	0	0
2024-09-04 21:13:47			0	37986	0	0	0	29137	27740	153207	27332	1080917	47146	110833	0	0	8114	542190	0	0
2024-09-04 21:14:47			0	37961	0	0	0	29153	27730	153295	27039	1080845	47145	110839	0	0	8113	543182	0	0
2024-09-04 21:15:47			0	37947	0	0	0	29145	27740	153371	26854	1080854	47145	110836	0	0	8112	543689	0	0
2024-09-04 21:16:47			0	37945	0	0	0	29142	27730	153283	27260	1080845	47133	110835	0	0	8112	543797	0	0
2024-09-04 21:17:47			0	37945	0	0	0	29140	27740	153351	27183	1080907	47133	110834	0	0	8112	543766	0	0
2024-09-04 21:18:47			0	37936	0	0	0	29140	27740	153323	26953	1080854	47145	110834	0	0	8111	544112	0	0
2024-09-04 21:19:47			0	37944	0	0	0	29124	27740	153411	27431	1080854	47145	110828	0	0	8112	543804	0	0
2024-09-04 21:20:47			0	37913	0	0	0	29119	27740	153343	27213	1080854	47133	110826	0	0	8110	544997	0	0
2024-09-04 21:21:47			0	37920	0	0	0	29124	27730	153431	26989	1080871	47133	110828	0	0	8111	544759	0	0
2024-09-04 21:22:47			0	37907	0	0	0	29116	27720	153535	27038	1080826	47132	110825	0	0	8110	545291	0	0
2024-09-04 21:23:47			0	37882	0	0	0	29116	27720	153559	27244	1080799	47144	110825	0	0	8109	546254	0	0
2024-09-04 21:24:47			0	37877	0	0	0	29116	27730	153579	27071	1080835	47145	110825	0	0	8108	546416	0	0
2024-09-04 21:25:47			0	37887	0	0	0	29111	27720	153539	27209	1080772	47144	110823	0	0	8109	546062	0	0
2024-09-04 21:26:47			0	37873	0	0	0	29111	27730	153667	27298	1080808	47133	110823	0	0	8108	546570	0	0
2024-09-04 21:27:47			0	37860	0	0	0	29111	27710	153699	27417	1080781	47121	110823	0	0	8107	547135	0	0
2024-09-04 21:28:47			0	37846	0	0	0	29109	27720	153711	27133	1080772	47132	110822	0	0	8107	547644	0	0
2024-09-04 21:29:47			0	37851	0	0	0	29106	27710	153659	27211	1080754	47121	110821	0	0	8107	547482	0	0
2024-09-04 21:30:47			0	37844	0	0	0	29103	27710	153819	27190	1080745	47130	110820	0	0	8107	547753	0	0
2024-09-04 21:31:47			0	37832	0	0	0	29103	27720	153723	27074	1080763	47121	110820	0	0	8106	548185	0	0
2024-09-04 21:32:47			0	37827	0	0	0	29093	27720	153839	27371	1080790	47121	110816	0	0	8106	548378	0	0
2024-09-04 21:33:47			0	37821	0	0	0	29103	27710	153803	27057	1080718	47130	110820	0	0	8105	548642	0	0
2024-09-04 21:34:47			0	37824	0	0	0	29090	27710	153811	27022	1080727	47131	110815	0	0	8106	548526	0	0
2024-09-04 21:35:47			0	37821	0	0	0	29090	27710	153839	27038	1080745	47120	110815	0	0	8105	548642	0	0
2024-09-04 21:36:47			0	37838	0	0	0	29090	27700	153819	27142	1080673	47129	110815	0	0	8106	548016	0	0
2024-09-04 21:37:47			0	37838	0	0	0	29075	27700	153711	27097	1080709	47120	110809	0	0	8107	548016	0	0
2024-09-04 21:38:47			0	37867	0	0	0	29080	27690	153675	27092	1080655	47128	110811	0	0	8108	546928	0	0
2024-09-04 21:39:47			0	37835	0	0	0	29072	27690	153771	26958	1080655	47140	110808	0	0	8107	548164	0	0
2024-09-04 21:40:47			0	37816	0	0	0	29072	27690	153803	27104	1080556	47128	110808	0	0	8105	548898	0	0
2024-09-04 21:41:47			0	37768	0	0	0	29077	27690	154015	27436	1080601	47128	110810	0	0	8103	550757	0	0
2024-09-04 21:42:47			0	37739	0	0	0	29075	27690	154079	27317	1080601	47128	110809	0	0	8101	551883	0	0
2024-09-04 21:43:47			0	37725	0	0	0	29075	27690	154163	27076	1080628	47128	110809	0	0	8100	552426	0	0
2024-09-04 21:44:47			0	37716	0	0	0	29064	27680	154255	26960	1080556	47127	110805	0	0	8100	552808	0	0
2024-09-04 21:45:47			0	37687	0	0	0	29072	27680	154355	27203	1080583	47127	110808	0	0	8098	553936	0	0
2024-09-04 21:46:47			0	37674	0	0	0	29064	27680	154427	27081	1080583	47127	110805	0	0	8097	554442	0	0
2024-09-04 21:47:47			0	37665	0	0	0	29062	27680	154583	27204	1080556	47139	110804	0	0	8097	554792	0	0
2024-09-04 21:48:47			0	37646	0	0	0	29067	27670	154623	27192	1080547	47126	110806	0	0	8096	555564	0	0
2024-09-04 21:49:47			0	37644	0	0	0	29064	27670	154583	27156	1080547	47126	110805	0	0	8096	555642	0	0
2024-09-04 21:50:47			0	37645	0	0	0	29064	27660	154531	27166	1080520	47137	110805	0	0	8096	555635	0	0
2024-09-04 21:51:47			0	37648	0	0	0	29067	27670	154651	26946	1080547	47126	110806	0	0	8096	555487	0	0
2024-09-04 21:52:47			0	37650	0	0	0	29059	27670	154627	26882	1080565	47126	110803	0	0	8096	555409	0	0
2024-09-04 21:53:47			0	37666	0	0	0	29062	27660	154551	26934	1080529	47126	110804	0	0	8097	554817	0	0
2024-09-04 21:54:47			0	37664	0	0	0	29070	27670	154531	27334	1080511	47126	110807	0	0	8097	554863	0	0
2024-09-04 21:55:47			0	37656	0	0	0	29064	27670	154483	26908	1080484	47149	110805	0	0	8096	555175	0	0
2024-09-04 21:56:47			0	37687	0	0	0	29062	27670	154487	27116	1080538	47126	110804	0	0	8098	553967	0	0
2024-09-04 21:57:47			0	37660	0	0	0	29051	27660	154467	27074	1080502	47116	110800	0	0	8097	555051	0	0
2024-09-04 21:58:47			0	37663	0	0	0	29054	27660	154531	27043	1080493	47137	110801	0	0	8097	554934	0	0
2024-09-04 21:59:47			0	37660	0	0	0	29046	27660	154535	27107	1080466	47115	110798	0	0	8097	555051	0	0
2024-09-04 22:00:47			0	37670	0	0	0	29054	27660	154523	27178	1080439	47125	110801	0	0	8097	554661	0	0
2024-09-04 22:01:47			0	37658	0	0	0	29049	27650	154507	27069	1080420	47125	110799	0	0	8096	555161	0	0
2024-09-04 22:02:47			0	37655	0	0	0	29044	27660	154555	27313	1080493	47137	110797	0	0	8096	555246	0	0
2024-09-04 22:03:47			0	37656	0	0	0	29036	27650	154575	27046	1080456	47136	110794	0	0	8097	555239	0	0
2024-09-04 22:04:47			0	37645	0	0	0	29038	27650	154627	27100	1080367	47136	110795	0	0	8096	555667	0	0
2024-09-04 22:05:47			0	37635	0	0	0	29036	27650	154539	27140	1080420	47136	110794	0	0	8095	556058	0	0
2024-09-04 22:06:47			0	37655	0	0	0	29044	27650	154643	27254	1080367	47136	110797	0	0	8096	555278	0	0
2024-09-04 22:07:47			0	37642	0	0	0	29038	27640	154535	27407	1080411	47124	110795	0	0	8096	555817	0	0
2024-09-04 22:08:47			0	37647	0	0	0	29033	27630	154571	27345	1080384	47123	110793	0	0	8096	555654	0	0
2024-09-04 22:09:47			0	37637	0	0	0	29028	27640	154739	27017	1080375	47135	110791	0	0	8096	556011	0	0
2024-09-04 22:10:47			0	37640	0	0	0	29038	27630	154615	27433	1080393	47134	110795	0	0	8096	555926	0	0
2024-09-04 22:11:47			0	37638	0	0	0	29033	27630	154679	27338	1080330	47145	110793	0	0	8095	556005	0	0
2024-09-04 22:12:47			0	37644	0	0	0	29036	27630	154591	27396	1080357	47145	110794	0	0	8096	555770	0	0
2024-09-04 22:13:47			0	37627	0	0	0	29031	27630	154643	27010	1080384	47123	110792	0	0	8095	556434	0	0
2024-09-04 22:14:47			0	37642	0	0	0	29031	27630	154763	27312	1080366	47112	110792	0	0	8096	555849	0	0
2024-09-04 22:15:47			0	37636	0	0	0	29033	27620	154619	27085	1080321	47122	110793	0	0	8095	556114	0	0
2024-09-04 22:16:47			0	37661	0	0	0	29033	27630	154575	27050	1080366	47134	110793	0	0	8097	555108	0	0
2024-09-04 22:17:47			0	37640	0	0	0	29038	27630	154603	27095	1080384	47123	110795	0	0	8096	555926	0	0
2024-09-04 22:18:47			0	37655	0	0	0	29038	27630	154731	27206	1080330	47134	110795	0	0	8096	555342	0	0
2024-09-04 22:19:47			0	37646	0	0	0	29031	27630	154619	27071	1080438	47134	110792	0	0	8096	555692	0	0
2024-09-04 22:20:47			0	37636	0	0	0	29031	27630	154659	26880	1080303	47145	110792	0	0	8095	556082	0	0
2024-09-04 22:21:47			0	37648	0	0	0	29036	27630	154671	26963	1080303	47134	110794	0	0	8096	555615	0	0
2024-09-04 22:22:47			0	37635	0	0	0	29018	27620	154583	27105	1080258	47133	110787	0	0	8096	556154	0	0
2024-09-04 22:23:47			0	37646	0	0	0	29018	27620	154687	27131	1080285	47133	110787	0	0	8096	555724	0	0
2024-09-04 22:24:47			0	37638	0	0	0	29010	27620	154731	27246	1080321	47144	110784	0	0	8096	556036	0	0
2024-09-04 22:25:47			0	37635	0	0	0	29012	27610	154679	27163	1080249	47121	110785	0	0	8096	556186	0	0
2024-09-04 22:26:47			0	37633	0	0	0	29005	27610	154803	26928	1080303	47131	110782	0	0	8096	556264	0	0
2024-09-04 22:27:47			0	37621	0	0	0	28966	27620	154727	27119	1080258	47122	110767	0	0	8096	556700	0	0
2024-09-04 22:28:47			0	37638	0	0	0	28958	27620	154775	27220	1080258	47122	110764	0	0	8097	556036	0	0
2024-09-04 22:29:47			0	37622	0	0	0	28950	27610	154759	27495	1080249	47121	110761	0	0	8096	556693	0	0
2024-09-04 22:30:47			0	37602	0	0	0	28955	27600	154843	26715	1080114	47120	110763	0	0	8095	557506	0	0
2024-09-04 22:31:47			0	37583	0	0	0	28958	27600	155015	27194	1080177	47109	110764	0	0	8093	558249	0	0
2024-09-04 22:32:47			0	37561	0	0	0	28963	27600	154967	27230	1080177	47109	110766	0	0	8092	559110	0	0
2024-09-04 22:33:47			0	37536	0	0	0	28963	27590	154987	26998	1080078	47119	110766	0	0	8091	560122	0	0
2024-09-04 22:34:47			0	37543	0	0	0	28929	27590	155147	26870	1080105	47141	110753	0	0	8092	559848	0	0
2024-09-04 22:35:47			0	37549	0	0	0	28961	27590	155107	27024	1080105	47108	110765	0	0	8091	559612	0	0
2024-09-04 22:36:47			0	37527	0	0	0	28924	27580	155055	27213	1080033	47118	110751	0	0	8091	560507	0	0
2024-09-04 22:37:47			0	37540	0	0	0	28903	27590	155083	27076	1080051	47119	110743	0	0	8092	559965	0	0
2024-09-04 22:38:47			0	37538	0	0	0	28911	27580	155079	26717	1079997	47117	110746	0	0	8092	560076	0	0
2024-09-04 22:39:47			0	37520	0	0	0	28909	27580	155179	27095	1080033	47129	110745	0	0	8091	560782	0	0
2024-09-04 22:40:47			0	37520	0	0	0	28940	27570	155063	27123	1079925	47116	110757	0	0	8090	560814	0	0
2024-09-04 22:41:47			0	37538	0	0	0	28927	27560	155131	26781	1079987	47125	110752	0	0	8091	560140	0	0
2024-09-04 22:42:47			0	37512	0	0	0	28909	27570	155295	26849	1079952	47116	110745	0	0	8090	561128	0	0
2024-09-04 22:43:47			0	37536	0	0	0	28916	27570	155267	27093	1079952	47116	110748	0	0	8091	560186	0	0
2024-09-04 22:44:47			0	37543	0	0	0	28919	27550	155171	27038	1079915	47103	110749	0	0	8092	559976	0	0
2024-09-04 22:45:47			0	37546	0	0	0	28914	27560	155147	27308	1079960	47125	110747	0	0	8092	559827	0	0
2024-09-04 22:46:47			0	37552	0	0	0	28932	27560	155147	27199	1079933	47104	110754	0	0	8092	559592	0	0
2024-09-04 22:47:47			0	37543	0	0	0	28935	27560	155087	27081	1079933	47125	110755	0	0	8091	559944	0	0
2024-09-04 22:48:47			0	37518	0	0	0	28927	27550	155103	26885	1079942	47114	110752	0	0	8090	560957	0	0
2024-09-04 22:49:47			0	37524	0	0	0	28937	27540	155283	27062	1079897	47135	110756	0	0	8090	560754	0	0
2024-09-04 22:50:47			0	37542	0	0	0	28948	27550	155239	27119	1079915	47125	110760	0	0	8091	560016	0	0
2024-09-04 22:51:47			0	37517	0	0	0	28940	27540	155239	27000	1079933	47125	110757	0	0	8090	561029	0	0
2024-09-04 22:52:47			0	37495	0	0	0	28937	27540	155287	26807	1079852	47125	110756	0	0	8088	561892	0	0
2024-09-04 22:53:47			0	37472	0	0	0	28937	27540	155407	27249	1079879	47125	110756	0	0	8087	562796	0	0
2024-09-04 22:54:47			0	37473	0	0	0	28948	27540	155463	27357	1079906	47125	110760	0	0	8087	562757	0	0
2024-09-04 22:55:47			0	37440	0	0	0	28935	27550	155583	26939	1079942	47114	110755	0	0	8085	564023	0	0
2024-09-04 22:56:47			0	37430	0	0	0	28929	27550	155563	27178	1079888	47136	110753	0	0	8085	564417	0	0
2024-09-04 22:57:47			0	37404	0	0	0	28929	27540	155559	27041	1079924	47113	110753	0	0	8083	565475	0	0
2024-09-04 22:58:47			0	37417	0	0	0	28935	27550	155535	26691	1079915	47125	110755	0	0	8084	564930	0	0
2024-09-04 22:59:47			0	37422	0	0	0	28937	27550	155643	26720	1079861	47125	110756	0	0	8084	564733	0	0
2024-09-04 23:00:47			0	37413	0	0	0	28937	27540	155727	26958	1079906	47125	110756	0	0	8084	565120	0	0
2024-09-04 23:01:47			0	37404	0	0	0	28942	27530	155735	26904	1079915	47102	110758	0	0	8083	565508	0	0
2024-09-04 23:02:47			0	37380	0	0	0	28927	27540	155687	27104	1079960	47125	110752	0	0	8082	566422	0	0
2024-09-04 23:03:47			0	37380	0	0	0	28940	27540	155699	26875	1079906	47125	110757	0	0	8082	566422	0	0
2024-09-04 23:04:47			0	37364	0	0	0	28940	27540	155731	26944	1079799	47114	110757	0	0	8081	567054	0	0
2024-09-04 23:05:47			0	37369	0	0	0	28932	27540	155795	26717	1079870	47124	110754	0	0	8081	566857	0	0
2024-09-04 23:06:47			0	37359	0	0	0	28942	27540	155855	27135	1079870	47124	110758	0	0	8080	567252	0	0
2024-09-04 23:07:47			0	37370	0	0	0	28932	27540	155803	27336	1079843	47113	110754	0	0	8081	566817	0	0
2024-09-04 23:08:47			0	37351	0	0	0	28935	27530	155771	27095	1079861	47113	110755	0	0	8080	567601	0	0
2024-09-04 23:09:47			0	37359	0	0	0	28929	27530	155871	26984	1079915	47135	110753	0	0	8081	567285	0	0
2024-09-04 23:10:47			0	37357	0	0	0	28929	27530	155855	26807	1079861	47113	110753	0	0	8080	567364	0	0
2024-09-04 23:11:47			0	37368	0	0	0	28914	27540	155927	26946	1079843	47124	110747	0	0	8081	566896	0	0
2024-09-04 23:12:47			0	37343	0	0	0	28909	27530	155911	26897	1079780	47113	110745	0	0	8080	567918	0	0
2024-09-04 23:13:47			0	37336	0	0	0	28911	27530	156007	26918	1079780	47113	110746	0	0	8080	568194	0	0
2024-09-04 23:14:47			0	37335	0	0	0	28909	27540	155883	26625	1079816	47102	110745	0	0	8080	568201	0	0
2024-09-04 23:15:47			0	37318	0	0	0	28883	27530	155939	27332	1079753	47124	110735	0	0	8079	568907	0	0
2024-09-04 23:16:47			0	37322	0	0	0	28844	27530	155971	26828	1079771	47123	110720	0	0	8080	568749	0	0
2024-09-04 23:17:47			0	37328	0	0	0	28851	27530	155963	26543	1079744	47123	110723	0	0	8080	568511	0	0
2024-09-04 23:18:47			0	37296	0	0	0	28849	27520	156058	26989	1079762	47111	110722	0	0	8078	569812	0	0
2024-09-04 23:19:47			0	37287	0	0	0	28781	27510	156050	26804	1079726	47111	110696	0	0	8079	570201	0	0
2024-09-04 23:20:47			0	37260	0	0	0	28698	27500	156102	27026	1079627	47110	110664	0	0	8079	571306	0	0
2024-09-04 23:21:47			0	37253	0	0	0	28701	27500	156146	26923	1079573	47121	110665	0	0	8078	571584	0	0
2024-09-04 23:22:47			0	37255	0	0	0	28758	27490	156174	26880	1079582	47098	110687	0	0	8077	571537	0	0
2024-09-04 23:23:47			0	37235	0	0	0	28789	27490	156134	27237	1079501	47109	110699	0	0	8076	572332	0	0
2024-09-04 23:24:47			0	37231	0	0	0	28714	27490	156318	26972	1079546	47097	110670	0	0	8077	572492	0	0
2024-09-04 23:25:47			0	37231	0	0	0	28625	27490	156242	27029	1079384	47108	110636	0	0	8078	572492	0	0
2024-09-04 23:26:47			0	37222	0	0	0	28550	27470	156174	26608	1079303	47084	110607	0	0	8079	572916	0	0
2024-09-04 23:27:47			0	37252	0	0	0	28516	27460	156206	26935	1079178	47083	110594	0	0	8081	571755	0	0
2024-09-04 23:28:47			0	37231	0	0	0	28514	27450	156182	26712	1079123	47082	110593	0	0	8080	572623	0	0
2024-09-04 23:29:47			0	37239	0	0	0	28553	27440	156254	27062	1079078	47091	110608	0	0	8080	572338	0	0
2024-09-04 23:30:47			0	37236	0	0	0	28516	27420	156238	27045	1079051	47079	110594	0	0	8080	572523	0	0
2024-09-04 23:31:47			0	37247	0	0	0	28540	27410	156210	26965	1078979	47078	110603	0	0	8080	572118	0	0
2024-09-04 23:32:47			0	37254	0	0	0	28446	27400	156278	27013	1078934	47087	110567	0	0	8082	571873	0	0
2024-09-04 23:33:47			0	37249	0	0	0	28438	27400	156186	26968	1078826	47066	110564	0	0	8082	572072	0	0
2024-09-04 23:34:47			0	37255	0	0	0	28405	27380	156226	26935	1078754	47063	110551	0	0	8083	571899	0	0
2024-09-04 23:35:47			0	37234	0	0	0	28384	27360	156254	26838	1078565	47062	110543	0	0	8082	572800	0	0
2024-09-04 23:36:47			0	37230	0	0	0	28376	27360	156310	26883	1078529	47049	110540	0	0	8082	572959	0	0
2024-09-04 23:37:47			0	37239	0	0	0	28368	27330	156314	26790	1078457	47046	110537	0	0	8082	572700	0	0
2024-09-04 23:38:47			0	37223	0	0	0	28337	27300	156374	26911	1078349	47044	110525	0	0	8082	573436	0	0
2024-09-04 23:39:47			0	37225	0	0	0	28324	27270	156466	26961	1077944	46985	110520	0	0	8082	573455	0	0
2024-09-04 23:40:47			0	37215	0	0	0	28309	27230	156410	26783	1077737	46981	110514	0	0	8081	573985	0	0
2024-09-04 23:41:47			0	37223	0	0	0	28293	27200	156402	27163	1077629	46977	110508	0	0	8082	573765	0	0
2024-09-04 23:42:47			0	37208	0	0	0	28306	27180	156486	27019	1077404	46998	110513	0	0	8081	574429	0	0
2024-09-04 23:43:47			0	37222	0	0	0	28303	27160	156534	26847	1077448	47006	110512	0	0	8081	573937	0	0
2024-09-04 23:44:47			0	37204	0	0	0	28290	27140	156626	26819	1077331	47016	110507	0	0	8080	574721	0	0
2024-09-04 23:45:47			0	37201	0	0	0	28272	27120	156650	27015	1077250	47003	110500	0	0	8081	574906	0	0
2024-09-04 23:46:47			0	37197	0	0	0	28272	27100	156618	27078	1077133	47024	110500	0	0	8080	575132	0	0
2024-09-04 23:47:47			0	37210	0	0	0	28264	27080	156710	26896	1077034	47021	110497	0	0	8081	574679	0	0
2024-09-04 23:48:47			0	37187	0	0	0	28270	27060	156794	27019	1076998	47007	110499	0	0	8079	575664	0	0
2024-09-04 23:49:47			0	37171	0	0	0	28244	27040	156834	26948	1076881	47028	110489	0	0	8079	576369	0	0
2024-09-04 23:50:47			0	37176	0	0	0	28233	27030	156926	27059	1076818	47027	110485	0	0	8079	576202	0	0
2024-09-04 23:51:47			0	37186	0	0	0	28228	27020	156914	26963	1076844	47015	110483	0	0	8080	575836	0	0
2024-09-04 23:52:47			0	37168	0	0	0	28223	27010	156934	27043	1076745	47024	110481	0	0	8079	576588	0	0
2024-09-04 23:53:47			0	37168	0	0	0	28236	26980	156958	26934	1076700	47033	110486	0	0	8079	576688	0	0
2024-09-04 23:54:47			0	37175	0	0	0	28241	26970	156990	27112	1076709	47021	110488	0	0	8079	576441	0	0
2024-09-04 23:55:47			0	37162	0	0	0	28241	26960	156966	26795	1076664	47020	110488	0	0	8078	576994	0	0
2024-09-04 23:56:47			0	37174	0	0	0	28231	26950	157050	27308	1076592	47030	110484	0	0	8079	576547	0	0
2024-09-04 23:57:47			0	37150	0	0	0	28228	26950	157038	27327	1076610	47029	110483	0	0	8077	577507	0	0
2024-09-04 23:58:47			0	37165	0	0	0	28212	26940	157210	27137	1076520	47029	110477	0	0	8079	576940	0	0
2024-09-04 23:59:47			0	37153	0	0	0	28205	26920	157122	27152	1076520	47027	110474	0	0	8078	577487	0	0
2024-09-05 00:00:47			0	37148	0	0	0	28194	26910	157070	26778	1076421	47038	110470	0	0	8078	577720	0	0
2024-09-05 00:01:47			0	37157	0	0	0	28194	26900	157150	27232	1076376	47014	110470	0	0	8078	577393	0	0
2024-09-05 00:02:47			0	37145	0	0	0	28189	26900	157158	26948	1076313	47024	110468	0	0	8078	577873	0	0
2024-09-05 00:03:47			0	37147	0	0	0	28192	26880	157178	27225	1076276	47034	110469	0	0	8078	577859	0	0
2024-09-05 00:04:47			0	37156	0	0	0	28215	26880	157186	27069	1076330	47022	110478	0	0	8078	577499	0	0
2024-09-05 00:05:47			0	37125	0	0	0	28493	26880	157342	27163	1076501	47078	110585	0	0	8071	578741	0	0
2024-09-05 00:06:47			0	37088	0	0	0	28480	26900	157570	27218	1076860	47114	110580	0	0	8069	580160	0	0
2024-09-05 00:07:47			0	37053	0	0	0	28335	26930	157650	27092	1076941	47095	110524	0	0	8070	581467	0	0
2024-09-05 00:08:47			0	37054	0	0	0	28397	26970	157682	27046	1077049	47098	110548	0	0	8069	581294	0	0
2024-09-05 00:09:47			0	37005	0	0	0	28662	26980	157926	27225	1077265	47123	110650	0	0	8062	583233	0	0
2024-09-05 00:10:47			0	37037	0	0	0	28672	27020	157754	26913	1077463	47126	110654	0	0	8064	581811	0	0
2024-09-05 00:11:47			0	37068	0	0	0	28680	27040	157534	27313	1077724	47128	110657	0	0	8065	580498	0	0
2024-09-05 00:12:47			0	37071	0	0	0	28659	27080	157498	27104	1077841	47132	110649	0	0	8066	580244	0	0
2024-09-05 00:13:47			0	37096	0	0	0	28581	27100	157386	27046	1077958	47134	110619	0	0	8069	579174	0	0
2024-09-05 00:14:47			0	37106	0	0	0	28670	27120	157354	27050	1078111	47125	110653	0	0	8068	578707	0	0
2024-09-05 00:15:47			0	37097	0	0	0	28711	27140	157314	26928	1078147	47127	110669	0	0	8067	579001	0	0
2024-09-05 00:16:47			0	37108	0	0	0	28706	27160	157266	27022	1078228	47140	110667	0	0	8068	578494	0	0
2024-09-05 00:17:47			0	37119	0	0	0	28553	27170	157190	27365	1078283	47120	110608	0	0	8071	578020	0	0
2024-09-05 00:18:47			0	37126	0	0	0	28542	27180	157182	27348	1078247	47110	110604	0	0	8072	577706	0	0
2024-09-05 00:19:47			0	37128	0	0	0	28654	27200	157234	27402	1078301	47088	110647	0	0	8070	577560	0	0
2024-09-05 00:20:47			0	37112	0	0	0	28615	27210	157266	27445	1078382	47114	110632	0	0	8070	578167	0	0
2024-09-05 00:21:47			0	37088	0	0	0	28584	27210	157242	27260	1078436	47102	110620	0	0	8069	579129	0	0
2024-09-05 00:22:47			0	37084	0	0	0	28685	27220	157294	27239	1078445	47102	110659	0	0	8067	579257	0	0
2024-09-05 00:23:47			0	37082	0	0	0	28511	27240	157314	27234	1078392	47093	110592	0	0	8070	579270	0	0
2024-09-05 00:24:47			0	37064	0	0	0	28677	27240	157306	27421	1078374	47104	110656	0	0	8066	579993	0	0
2024-09-05 00:25:47			0	37051	0	0	0	28631	27240	157314	27319	1078481	47093	110638	0	0	8066	580515	0	0
2024-09-05 00:26:47			0	37015	0	0	0	28485	27260	157446	27204	1078455	47106	110582	0	0	8067	581895	0	0
2024-09-05 00:27:47			0	37011	0	0	0	28420	27260	157606	27241	1078347	47073	110557	0	0	8068	582056	0	0
2024-09-05 00:28:47			0	36995	0	0	0	28602	27240	157594	27293	1078239	47071	110627	0	0	8063	582767	0	0
2024-09-05 00:29:47			0	36967	0	0	0	28579	27240	157746	27010	1078293	47071	110618	0	0	8062	583895	0	0
2024-09-05 00:30:47			0	36937	0	0	0	28399	27250	157890	27147	1078231	47072	110549	0	0	8063	585072	0	0
2024-09-05 00:31:47			0	36933	0	0	0	28381	27230	157822	27112	1078033	47047	110542	0	0	8063	585300	0	0
2024-09-05 00:32:47			0	36904	0	0	0	28374	27220	157886	27156	1078042	47069	110539	0	0	8062	586506	0	0
2024-09-05 00:33:47			0	36909	0	0	0	28412	27210	157886	27057	1077997	47057	110554	0	0	8061	586338	0	0
2024-09-05 00:34:47			0	36907	0	0	0	28485	27200	157994	27322	1077988	47044	110582	0	0	8060	586452	0	0
2024-09-05 00:35:47			0	36873	0	0	0	28625	27200	158314	27390	1078059	47077	110636	0	0	8056	587828	0	0
2024-09-05 00:36:47			0	36871	0	0	0	28509	27200	158174	27419	1078176	47079	110591	0	0	8057	587909	0	0
2024-09-05 00:37:47			0	36878	0	0	0	28470	27210	158126	27168	1078077	47068	110576	0	0	8059	587592	0	0
2024-09-05 00:38:47			0	36872	0	0	0	28470	27200	158242	27038	1078014	47067	110576	0	0	8058	587869	0	0
2024-09-05 00:39:47			0	36879	0	0	0	28563	27200	158158	26987	1078095	47079	110612	0	0	8057	587585	0	0
2024-09-05 00:40:47			0	36859	0	0	0	28519	27190	158262	27396	1078104	47077	110595	0	0	8057	588429	0	0
2024-09-05 00:41:47			0	36850	0	0	0	28568	27210	158158	27060	1078104	47090	110614	0	0	8055	588727	0	0
2024-09-05 00:42:47			0	36854	0	0	0	28553	27200	158242	27471	1078122	47089	110608	0	0	8056	588598	0	0
2024-09-05 00:43:47			0	36856	0	0	0	28509	27210	158206	27357	1078185	47080	110591	0	0	8057	588483	0	0
2024-09-05 00:44:47			0	36850	0	0	0	28535	27210	158166	26994	1078185	47090	110601	0	0	8056	588727	0	0
2024-09-05 00:45:47			0	36839	0	0	0	28516	27210	158202	27500	1078131	47068	110594	0	0	8056	589173	0	0
2024-09-05 00:46:47			0	36832	0	0	0	28514	27210	158202	27112	1078158	47068	110593	0	0	8055	589457	0	0
2024-09-05 00:47:47			0	36810	0	0	0	28509	27200	158258	27109	1078095	47079	110591	0	0	8054	590384	0	0
2024-09-05 00:48:47			0	36832	0	0	0	28464	27210	158298	27201	1078131	47068	110574	0	0	8056	589457	0	0
2024-09-05 00:49:47			0	36834	0	0	0	28381	27210	158290	27005	1078050	47080	110542	0	0	8058	589376	0	0
2024-09-05 00:50:47			0	36816	0	0	0	28348	27210	158322	27067	1077997	47045	110529	0	0	8057	590106	0	0
2024-09-05 00:51:47			0	36815	0	0	0	28348	27190	158354	27381	1077862	47043	110529	0	0	8057	590215	0	0
2024-09-05 00:52:47			0	36811	0	0	0	28363	27170	158370	27246	1077709	47020	110535	0	0	8056	590445	0	0
2024-09-05 00:53:47			0	36798	0	0	0	28386	27160	158414	27012	1077834	47041	110544	0	0	8055	591007	0	0
2024-09-05 00:54:47			0	36799	0	0	0	28366	27140	158374	27003	1077636	47039	110536	0	0	8055	591035	0	0
2024-09-05 00:55:47			0	36788	0	0	0	28329	27150	158470	27209	1077681	47051	110522	0	0	8055	591448	0	0
2024-09-05 00:56:47			0	36789	0	0	0	28335	27140	158438	27034	1077475	47028	110524	0	0	8055	591441	0	0
2024-09-05 00:57:47			0	36788	0	0	0	28340	27120	158418	26955	1077376	47002	110526	0	0	8055	591550	0	0
2024-09-05 00:58:47			0	36776	0	0	0	28353	27100	158618	26928	1077375	47035	110531	0	0	8054	592106	0	0
2024-09-05 00:59:47			0	36769	0	0	0	28353	27100	158566	27228	1077375	47057	110531	0	0	8054	592391	0	0
2024-09-05 01:00:47			0	36762	0	0	0	28472	27100	158622	27246	1077447	47056	110577	0	0	8051	592676	0	0
2024-09-05 01:01:47			0	36749	0	0	0	28566	27100	158658	26852	1077510	47080	110613	0	0	8049	593206	0	0
2024-09-05 01:02:47			0	36767	0	0	0	28483	27110	158650	27386	1077663	47080	110581	0	0	8051	592439	0	0
2024-09-05 01:03:47			0	36789	0	0	0	28514	27120	158530	27246	1077752	47069	110593	0	0	8052	591509	0	0
2024-09-05 01:04:47			0	36799	0	0	0	28573	27120	158582	27178	1077779	47081	110616	0	0	8052	591102	0	0
2024-09-05 01:05:47			0	36795	0	0	0	28555	27130	158526	26923	1077887	47083	110609	0	0	8052	591231	0	0
2024-09-05 01:06:47			0	36809	0	0	0	28529	27130	158318	27377	1077833	47071	110599	0	0	8053	590662	0	0
2024-09-05 01:07:47			0	36851	0	0	0	28597	27140	158338	27275	1077842	47083	110625	0	0	8055	588923	0	0
2024-09-05 01:08:47			0	36849	0	0	0	28607	27150	158210	27241	1077968	47073	110629	0	0	8054	588970	0	0
2024-09-05 01:09:47			0	36888	0	0	0	28612	27150	158142	27353	1077923	47073	110631	0	0	8056	587389	0	0
2024-09-05 01:10:47			0	36964	0	0	0	28618	27160	157918	27126	1077986	47084	110633	0	0	8061	584284	0	0
2024-09-05 01:11:47			0	37000	0	0	0	28620	27160	157578	27081	1077986	47084	110634	0	0	8063	582833	0	0
2024-09-05 01:12:47			0	37051	0	0	0	28615	27170	157534	27138	1078059	47076	110632	0	0	8066	580748	0	0
2024-09-05 01:13:47			0	37073	0	0	0	28612	27170	157370	27152	1077960	47097	110631	0	0	8067	579864	0	0
2024-09-05 01:14:47			0	37100	0	0	0	28625	27170	157330	27249	1078095	47076	110636	0	0	8069	578781	0	0
2024-09-05 01:15:47			0	37120	0	0	0	28615	27190	157146	27005	1078068	47088	110632	0	0	8070	577913	0	0
2024-09-05 01:16:47			0	37137	0	0	0	28618	27180	157058	27255	1078032	47076	110633	0	0	8071	577266	0	0
2024-09-05 01:17:47			0	37123	0	0	0	28610	27180	156986	27157	1078140	47087	110630	0	0	8070	577826	0	0
2024-09-05 01:18:47			0	37144	0	0	0	28605	27190	156986	27178	1078122	47099	110628	0	0	8072	576953	0	0
2024-09-05 01:19:47			0	37130	0	0	0	28605	27180	156998	27128	1078104	47064	110628	0	0	8071	577546	0	0
2024-09-05 01:20:47			0	37165	0	0	0	28605	27180	156962	27478	1078086	47076	110628	0	0	8073	576146	0	0
2024-09-05 01:21:47			0	37206	0	0	0	28607	27190	156802	27005	1078041	47066	110629	0	0	8075	574476	0	0
2024-09-05 01:22:47			0	37241	0	0	0	28586	27180	156594	27190	1078050	47076	110621	0	0	8078	573114	0	0
2024-09-05 01:23:47			0	37271	0	0	0	28586	27180	156494	27300	1078032	47076	110621	0	0	8080	571920	0	0
2024-09-05 01:24:47			0	37292	0	0	0	28581	27190	156494	26968	1078068	47077	110619	0	0	8081	571052	0	0
2024-09-05 01:25:47			0	37298	0	0	0	28594	27180	156458	27244	1078086	47087	110624	0	0	8081	570847	0	0
2024-09-05 01:26:47			0	37299	0	0	0	28594	27180	156362	27223	1078086	47087	110624	0	0	8081	570807	0	0
2024-09-05 01:27:47			0	37308	0	0	0	28592	27190	156262	27175	1078068	47066	110623	0	0	8082	570417	0	0
2024-09-05 01:28:47			0	37311	0	0	0	28586	27180	156282	27320	1078059	47065	110621	0	0	8082	570330	0	0
2024-09-05 01:29:47			0	37311	0	0	0	28599	27190	156258	27339	1078095	47077	110626	0	0	8082	570298	0	0
2024-09-05 01:30:47			0	37341	0	0	0	28592	27190	156227	27156	1078041	47077	110623	0	0	8084	569108	0	0
2024-09-05 01:31:47			0	37334	0	0	0	28594	27190	156183	27282	1078095	47099	110624	0	0	8083	569385	0	0
2024-09-05 01:32:47			0	37365	0	0	0	28589	27180	156239	27118	1078113	47087	110622	0	0	8085	568189	0	0
2024-09-05 01:33:47			0	37347	0	0	0	28589	27180	156119	27312	1078086	47076	110622	0	0	8084	568902	0	0
2024-09-05 01:34:47			0	37374	0	0	0	28592	27190	156095	27350	1078068	47077	110623	0	0	8086	567800	0	0
2024-09-05 01:35:47			0	37363	0	0	0	28584	27180	155971	27022	1078077	47097	110620	0	0	8085	568268	0	0
2024-09-05 01:36:47			0	37377	0	0	0	28579	27180	156003	27258	1077996	47086	110618	0	0	8086	567714	0	0
2024-09-05 01:37:47			0	37354	0	0	0	28576	27180	156119	27194	1078077	47076	110617	0	0	8085	568625	0	0
2024-09-05 01:38:47			0	37370	0	0	0	28576	27180	156075	27357	1077996	47076	110617	0	0	8086	567991	0	0
2024-09-05 01:39:47			0	37360	0	0	0	28579	27190	156239	27268	1078068	47088	110618	0	0	8085	568355	0	0
2024-09-05 01:40:47			0	37362	0	0	0	28571	27180	156115	27090	1078077	47076	110615	0	0	8085	568308	0	0
2024-09-05 01:41:47			0	37374	0	0	0	28571	27180	156183	27027	1078077	47086	110615	0	0	8086	567833	0	0
2024-09-05 01:42:47			0	37364	0	0	0	28573	27180	156091	26871	1078050	47053	110616	0	0	8085	568229	0	0
2024-09-05 01:43:47			0	37371	0	0	0	28571	27180	156103	27180	1078005	47076	110615	0	0	8086	567952	0	0
2024-09-05 01:44:47			0	37362	0	0	0	28558	27170	156143	27022	1077987	47086	110610	0	0	8085	568341	0	0
2024-09-05 01:45:47			0	37362	0	0	0	28571	27180	156055	27234	1077969	47076	110615	0	0	8085	568308	0	0
2024-09-05 01:46:47			0	37363	0	0	0	28568	27180	156107	27123	1077996	47086	110614	0	0	8085	568268	0	0
2024-09-05 01:47:47			0	37368	0	0	0	28568	27170	156191	27230	1077951	47076	110614	0	0	8085	568103	0	0
2024-09-05 01:48:47			0	37374	0	0	0	28563	27170	156015	27239	1078005	47076	110612	0	0	8086	567865	0	0
2024-09-05 01:49:47			0	37360	0	0	0	28558	27170	156019	27107	1077933	47086	110610	0	0	8085	568420	0	0
2024-09-05 01:50:47			0	37381	0	0	0	28553	27160	156099	26885	1077942	47096	110608	0	0	8086	567621	0	0
2024-09-05 01:51:47			0	37381	0	0	0	28568	27170	156179	27100	1077870	47086	110614	0	0	8086	567588	0	0
2024-09-05 01:52:47			0	37394	0	0	0	28558	27170	156179	27043	1077951	47086	110610	0	0	8087	567074	0	0
2024-09-05 01:53:47			0	37359	0	0	0	28561	27160	156059	27020	1077942	47085	110611	0	0	8085	568492	0	0
2024-09-05 01:54:47			0	37365	0	0	0	28561	27160	156191	27332	1077942	47085	110611	0	0	8085	568254	0	0
2024-09-05 01:55:47			0	37385	0	0	0	28550	27150	156127	27341	1077923	47073	110607	0	0	8087	567495	0	0
2024-09-05 01:56:47			0	37367	0	0	0	28548	27160	156123	26958	1077915	47075	110606	0	0	8086	568175	0	0
2024-09-05 01:57:47			0	37376	0	0	0	28550	27150	156151	26894	1077870	47073	110607	0	0	8086	567852	0	0
2024-09-05 01:58:47			0	37378	0	0	0	28550	27150	156015	27171	1077870	47062	110607	0	0	8086	567772	0	0
2024-09-05 01:59:47			0	37369	0	0	0	28550	27160	156079	27050	1077906	47095	110607	0	0	8086	568096	0	0
2024-09-05 02:00:47			0	37374	0	0	0	28550	27140	156075	27130	1077851	47061	110607	0	0	8086	567963	0	0
2024-09-05 02:01:47			0	37396	0	0	0	28537	27150	155991	27211	1077870	47073	110602	0	0	8088	567060	0	0
2024-09-05 02:02:47			0	37379	0	0	0	28537	27150	156015	26991	1077896	47073	110602	0	0	8087	567733	0	0
2024-09-05 02:03:47			0	37390	0	0	0	28542	27150	156099	26819	1077834	47062	110604	0	0	8087	567297	0	0
2024-09-05 02:04:47			0	37388	0	0	0	28537	27150	156027	27067	1077896	47073	110602	0	0	8087	567377	0	0
2024-09-05 02:05:47			0	37381	0	0	0	28537	27150	156055	27093	1077735	47073	110602	0	0	8087	567654	0	0
2024-09-05 02:06:47			0	37383	0	0	0	28535	27150	156079	27019	1077843	47084	110601	0	0	8087	567574	0	0
2024-09-05 02:07:47			0	37395	0	0	0	28537	27140	156003	27237	1077842	47083	110602	0	0	8087	567132	0	0
2024-09-05 02:08:47			0	37378	0	0	0	28535	27140	156083	26776	1077825	47072	110601	0	0	8086	567805	0	0
2024-09-05 02:09:47			0	37396	0	0	0	28532	27140	156111	27105	1077815	47083	110600	0	0	8088	567093	0	0
2024-09-05 02:10:47			0	37386	0	0	0	28524	27140	156131	27086	1077789	47083	110597	0	0	8087	567488	0	0
2024-09-05 02:11:47			0	37380	0	0	0	28522	27140	156059	27436	1077798	47094	110596	0	0	8087	567726	0	0
2024-09-05 02:12:47			0	37376	0	0	0	28519	27130	156267	26863	1077770	47070	110595	0	0	8087	567917	0	0
2024-09-05 02:13:47			0	37359	0	0	0	28524	27140	156195	26856	1077815	47071	110597	0	0	8086	568557	0	0
2024-09-05 02:14:47			0	37374	0	0	0	28522	27140	156231	26837	1077735	47071	110596	0	0	8086	567963	0	0
2024-09-05 02:15:47			0	37351	0	0	0	28519	27130	156147	27241	1077780	47071	110595	0	0	8085	568907	0	0
2024-09-05 02:16:47			0	37350	0	0	0	28522	27130	156211	27225	1077699	47071	110596	0	0	8085	568947	0	0
2024-09-05 02:17:47			0	37358	0	0	0	28509	27130	156251	27241	1077663	47070	110591	0	0	8086	568630	0	0
2024-09-05 02:18:47			0	37358	0	0	0	28506	27130	156239	27199	1077717	47059	110590	0	0	8086	568630	0	0
2024-09-05 02:19:47			0	37360	0	0	0	28490	27120	156327	27060	1077627	47070	110584	0	0	8086	568583	0	0
2024-09-05 02:20:47			0	37387	0	0	0	28506	27130	156127	27038	1077690	47059	110590	0	0	8087	567481	0	0
2024-09-05 02:21:47			0	37394	0	0	0	28501	27120	156119	27048	1077681	47070	110588	0	0	8088	567237	0	0
2024-09-05 02:22:47			0	37408	0	0	0	28498	27120	156091	27343	1077591	47069	110587	0	0	8089	566683	0	0
2024-09-05 02:23:47			0	37421	0	0	0	28506	27120	155991	26986	1077681	47070	110590	0	0	8089	566169	0	0
2024-09-05 02:24:47			0	37419	0	0	0	28490	27110	155927	27154	1077689	47068	110584	0	0	8089	566281	0	0
2024-09-05 02:25:47			0	37427	0	0	0	28488	27110	155943	27176	1077600	47080	110583	0	0	8090	565965	0	0
2024-09-05 02:26:47			0	37435	0	0	0	28477	27100	155895	27220	1077555	47056	110579	0	0	8091	565681	0	0
2024-09-05 02:27:47			0	37443	0	0	0	28480	27110	155959	27244	1077573	47080	110580	0	0	8091	565333	0	0
2024-09-05 02:28:47			0	37422	0	0	0	28483	27100	155895	26975	1077564	47080	110581	0	0	8090	566195	0	0
2024-09-05 02:29:47			0	37440	0	0	0	28483	27090	156023	27176	1077546	47066	110581	0	0	8091	565516	0	0
2024-09-05 02:30:47			0	37435	0	0	0	28485	27100	155891	26958	1077537	47057	110582	0	0	8090	565681	0	0
2024-09-05 02:31:47			0	37433	0	0	0	28477	27090	155931	27183	1077492	47055	110579	0	0	8090	565793	0	0
2024-09-05 02:32:47			0	37430	0	0	0	28459	27090	155879	27407	1077546	47055	110572	0	0	8091	565911	0	0
2024-09-05 02:33:47			0	37412	0	0	0	28470	27090	156023	27081	1077510	47055	110576	0	0	8089	566623	0	0
2024-09-05 02:34:47			0	37410	0	0	0	28462	27090	155995	27211	1077429	47088	110573	0	0	8089	566702	0	0
2024-09-05 02:35:47			0	37383	0	0	0	28467	27090	156127	27320	1077483	47078	110575	0	0	8088	567770	0	0
2024-09-05 02:36:47			0	37394	0	0	0	28470	27080	156075	27090	1077465	47077	110576	0	0	8088	567367	0	0
2024-09-05 02:37:47			0	37397	0	0	0	28464	27080	156139	27138	1077465	47065	110574	0	0	8089	567248	0	0
2024-09-05 02:38:47			0	37380	0	0	0	28464	27070	156311	27415	1077473	47086	110574	0	0	8087	567954	0	0
2024-09-05 02:39:47			0	37373	0	0	0	28472	27080	156239	27203	1077438	47077	110577	0	0	8087	568198	0	0
2024-09-05 02:40:47			0	37352	0	0	0	28459	27080	156299	27081	1077474	47088	110572	0	0	8086	569031	0	0
2024-09-05 02:41:47			0	37365	0	0	0	28459	27070	156247	27379	1077402	47064	110572	0	0	8087	568548	0	0
2024-09-05 02:42:47			0	37361	0	0	0	28457	27080	156291	27170	1077384	47077	110571	0	0	8087	568674	0	0
2024-09-05 02:43:47			0	37342	0	0	0	28467	27070	156379	27332	1077420	47076	110575	0	0	8085	569460	0	0
2024-09-05 02:44:47			0	37312	0	0	0	28457	27060	156378	27348	1077384	47052	110571	0	0	8084	570684	0	0
2024-09-05 02:45:47			0	37306	0	0	0	28457	27070	156430	27180	1077312	47076	110571	0	0	8083	570889	0	0
2024-09-05 02:46:47			0	37319	0	0	0	28444	27060	156451	26935	1077357	47063	110566	0	0	8084	570406	0	0
2024-09-05 02:47:47			0	37309	0	0	0	28449	27070	156542	27204	1077393	47076	110568	0	0	8084	570770	0	0
2024-09-05 02:48:47			0	37290	0	0	0	28444	27060	156510	27024	1077375	47075	110566	0	0	8083	571558	0	0
2024-09-05 02:49:47			0	37320	0	0	0	28438	27050	156486	26993	1077249	47062	110564	0	0	8084	570399	0	0
2024-09-05 02:50:47			0	37290	0	0	0	28431	27060	156546	27282	1077321	47063	110561	0	0	8083	571558	0	0
2024-09-05 02:51:47			0	37276	0	0	0	28438	27060	156606	27216	1077375	47063	110564	0	0	8082	572115	0	0
2024-09-05 02:52:47			0	37287	0	0	0	28423	27060	156610	27138	1077321	47075	110558	0	0	8083	571677	0	0
2024-09-05 02:53:47			0	37276	0	0	0	28423	27060	156638	27031	1077348	47075	110558	0	0	8082	572115	0	0
2024-09-05 02:54:47			0	37272	0	0	0	28420	27050	156570	27223	1077222	47074	110557	0	0	8082	572307	0	0
2024-09-05 02:55:47			0	37274	0	0	0	28418	27050	156718	27067	1077231	47062	110556	0	0	8082	572227	0	0
2024-09-05 02:56:47			0	37254	0	0	0	28415	27040	156762	27135	1077240	47061	110555	0	0	8081	573056	0	0
2024-09-05 02:57:47			0	37248	0	0	0	28407	27050	156770	27353	1077222	47074	110552	0	0	8081	573263	0	0
2024-09-05 02:58:47			0	37250	0	0	0	28405	27040	156710	27208	1077240	47073	110551	0	0	8081	573216	0	0
2024-09-05 02:59:47			0	37238	0	0	0	28397	27040	156746	26956	1077203	47050	110548	0	0	8080	573694	0	0
2024-09-05 03:00:47			0	37245	0	0	0	28389	27030	156782	27033	1077141	47072	110545	0	0	8081	573448	0	0
2024-09-05 03:01:47			0	37231	0	0	0	28397	27030	156746	27022	1077087	47060	110548	0	0	8080	574006	0	0
2024-09-05 03:02:47			0	37235	0	0	0	28399	27030	156858	26979	1077078	47071	110549	0	0	8080	573847	0	0
2024-09-05 03:03:47			0	37227	0	0	0	28394	27020	156934	26864	1077122	47059	110547	0	0	8079	574199	0	0
2024-09-05 03:04:47			0	37233	0	0	0	28397	27020	156858	27293	1077140	47059	110548	0	0	8080	573959	0	0
2024-09-05 03:05:47			0	37209	0	0	0	28392	27020	156970	26932	1077086	47059	110546	0	0	8078	574917	0	0
2024-09-05 03:06:47			0	37218	0	0	0	28392	27010	156930	27124	1077077	47058	110546	0	0	8079	574591	0	0
2024-09-05 03:07:47			0	37217	0	0	0	28389	27010	156998	26759	1077051	47047	110545	0	0	8079	574631	0	0
2024-09-05 03:08:47			0	37214	0	0	0	28392	27020	156958	27008	1077086	47059	110546	0	0	8079	574717	0	0
2024-09-05 03:09:47			0	37233	0	0	0	28389	27010	156982	26993	1077024	47058	110545	0	0	8080	573992	0	0
2024-09-05 03:10:47			0	37231	0	0	0	28381	27010	156898	26970	1077051	47070	110542	0	0	8080	574072	0	0
2024-09-05 03:11:47			0	37255	0	0	0	28389	27000	156802	27400	1077005	47069	110545	0	0	8081	573148	0	0
2024-09-05 03:12:47			0	37274	0	0	0	28394	26990	156778	27142	1076987	47079	110547	0	0	8082	572424	0	0
2024-09-05 03:13:47			0	37270	0	0	0	28384	27000	156670	27182	1076969	47068	110543	0	0	8082	572551	0	0
2024-09-05 03:14:47			0	37283	0	0	0	28392	27000	156746	27116	1077032	47057	110546	0	0	8083	572033	0	0
2024-09-05 03:15:47			0	37302	0	0	0	28386	27000	156602	27171	1076969	47056	110544	0	0	8084	571278	0	0
2024-09-05 03:16:47			0	37326	0	0	0	28386	27000	156599	26968	1077032	47069	110544	0	0	8085	570324	0	0
2024-09-05 03:17:47			0	37306	0	0	0	28384	26990	156606	27234	1076987	47056	110543	0	0	8084	571151	0	0
2024-09-05 03:18:47			0	37317	0	0	0	28374	26990	156623	27263	1076987	47068	110539	0	0	8085	570714	0	0
2024-09-05 03:19:47			0	37308	0	0	0	28368	26980	156570	27341	1076987	47087	110537	0	0	8084	571105	0	0
2024-09-05 03:20:47			0	37298	0	0	0	28371	26990	156558	26824	1076987	47068	110538	0	0	8084	571469	0	0
2024-09-05 03:21:47			0	37313	0	0	0	28371	26980	156555	27398	1076996	47067	110538	0	0	8085	570906	0	0
2024-09-05 03:22:47			0	37282	0	0	0	28363	26980	156582	27209	1076942	47067	110535	0	0	8083	572139	0	0
2024-09-05 03:23:47			0	37286	0	0	0	28353	26980	156626	27213	1076960	47066	110531	0	0	8083	571979	0	0
2024-09-05 03:24:47			0	37305	0	0	0	28355	26980	156646	27339	1076906	47066	110532	0	0	8085	571224	0	0
2024-09-05 03:25:47			0	37309	0	0	0	28348	26980	156634	27204	1076933	47054	110529	0	0	8085	571065	0	0
2024-09-05 03:26:47			0	37324	0	0	0	28348	26970	156671	26961	1076870	47054	110529	0	0	8086	570501	0	0
2024-09-05 03:27:47			0	37299	0	0	0	28350	26970	156538	27294	1076897	47054	110530	0	0	8084	571495	0	0
2024-09-05 03:28:47			0	37293	0	0	0	28345	26950	156634	27246	1076834	47052	110528	0	0	8084	571799	0	0
2024-09-05 03:29:47			0	37294	0	0	0	28340	26960	156690	27263	1076879	47053	110526	0	0	8084	571727	0	0
2024-09-05 03:30:47			0	37287	0	0	0	28337	26970	156694	27034	1076861	47065	110525	0	0	8084	571973	0	0
2024-09-05 03:31:47			0	37297	0	0	0	28340	26960	156642	27204	1076825	47065	110526	0	0	8084	571607	0	0
2024-09-05 03:32:47			0	37275	0	0	0	28340	26960	156606	27180	1076762	47064	110526	0	0	8083	572483	0	0
2024-09-05 03:33:47			0	37263	0	0	0	28337	26960	156746	27027	1076843	47064	110525	0	0	8082	572961	0	0
2024-09-05 03:34:47			0	37269	0	0	0	28337	26960	156734	27130	1076789	47064	110525	0	0	8083	572722	0	0
2024-09-05 03:35:47			0	37261	0	0	0	28332	26960	156866	27293	1076816	47052	110523	0	0	8082	573041	0	0
2024-09-05 03:36:47			0	37258	0	0	0	28337	26950	156774	27010	1076825	47063	110525	0	0	8082	573193	0	0
2024-09-05 03:37:47			0	37253	0	0	0	28335	26950	156826	27289	1076771	47051	110524	0	0	8082	573392	0	0
2024-09-05 03:38:47			0	37249	0	0	0	28335	26940	156766	27048	1076789	47074	110524	0	0	8081	573585	0	0
2024-09-05 03:39:47			0	37252	0	0	0	28340	26940	156890	26993	1076708	47084	110526	0	0	8081	573465	0	0
2024-09-05 03:40:47			0	37251	0	0	0	28337	26940	156782	27289	1076735	47063	110525	0	0	8081	573505	0	0
2024-09-05 03:41:47			0	37246	0	0	0	28337	26950	156850	27142	1076798	47063	110525	0	0	8081	573671	0	0
2024-09-05 03:42:47			0	37242	0	0	0	28340	26930	156870	27248	1076780	47061	110526	0	0	8081	573897	0	0
2024-09-05 03:43:47			0	37239	0	0	0	28337	26920	156838	26934	1076735	47061	110525	0	0	8081	574049	0	0
2024-09-05 03:44:47			0	37250	0	0	0	28327	26930	156650	27189	1076744	47049	110521	0	0	8082	573578	0	0
2024-09-05 03:45:47			0	37236	0	0	0	28322	26930	156898	27138	1076699	47050	110519	0	0	8081	574136	0	0
2024-09-05 03:46:47			0	37231	0	0	0	28322	26930	156834	26868	1076699	47050	110519	0	0	8080	574335	0	0
2024-09-05 03:47:47			0	37235	0	0	0	28316	26920	156902	27007	1076654	47072	110517	0	0	8081	574209	0	0
2024-09-05 03:48:47			0	37237	0	0	0	28324	26930	156854	27005	1076726	47083	110520	0	0	8081	574096	0	0
2024-09-05 03:49:47			0	37226	0	0	0	28314	26930	156870	27178	1076717	47061	110516	0	0	8080	574535	0	0
2024-09-05 03:50:47			0	37251	0	0	0	28311	26930	156858	26963	1076672	47061	110515	0	0	8082	573538	0	0
2024-09-05 03:51:47			0	37216	0	0	0	28316	26920	156902	27161	1076708	47049	110517	0	0	8080	574967	0	0
2024-09-05 03:52:47			0	37242	0	0	0	28314	26930	157006	26724	1076717	47049	110516	0	0	8081	573897	0	0
2024-09-05 03:53:47			0	37210	0	0	0	28306	26910	157038	27248	1076663	47060	110513	0	0	8079	575240	0	0
2024-09-05 03:54:47			0	37222	0	0	0	28303	26920	156950	26984	1076681	47061	110512	0	0	8080	574728	0	0
2024-09-05 03:55:47			0	37217	0	0	0	28314	26920	156926	27147	1076645	47048	110516	0	0	8080	574927	0	0
2024-09-05 03:56:47			0	37212	0	0	0	28306	26920	156898	27178	1076618	47071	110513	0	0	8080	575127	0	0
2024-09-05 03:57:47			0	37224	0	0	0	28298	26910	156966	27308	1076690	47048	110510	0	0	8080	574681	0	0
2024-09-05 03:58:47			0	37216	0	0	0	28293	26910	157018	27436	1076636	47060	110508	0	0	8080	575000	0	0
2024-09-05 03:59:47			0	37221	0	0	0	28298	26920	157010	27171	1076645	47060	110510	0	0	8080	574767	0	0
2024-09-05 04:00:47			0	37200	0	0	0	28301	26910	156986	27364	1076627	47047	110511	0	0	8079	575639	0	0
2024-09-05 04:01:47			0	37208	0	0	0	28296	26900	156978	27376	1076564	47059	110509	0	0	8079	575353	0	0
2024-09-05 04:02:47			0	37190	0	0	0	28293	26900	157046	27204	1076564	47047	110508	0	0	8078	576072	0	0
2024-09-05 04:03:47			0	37201	0	0	0	28293	26900	157058	27305	1076582	47057	110508	0	0	8079	575632	0	0
2024-09-05 04:04:47			0	37202	0	0	0	28290	26900	157026	27287	1076537	47047	110507	0	0	8079	575592	0	0
2024-09-05 04:05:47			0	37189	0	0	0	28285	26900	157122	27022	1076591	47059	110505	0	0	8079	576112	0	0
2024-09-05 04:06:47			0	37197	0	0	0	28285	26890	157086	27128	1076537	47045	110505	0	0	8079	575825	0	0
2024-09-05 04:07:47			0	37224	0	0	0	28288	26900	157030	27093	1076510	47047	110506	0	0	8081	574714	0	0
2024-09-05 04:08:47			0	37218	0	0	0	28275	26900	157070	27017	1076564	47059	110501	0	0	8080	574953	0	0
2024-09-05 04:09:47			0	37238	0	0	0	28285	26890	156926	27334	1076519	47069	110505	0	0	8081	574188	0	0
2024-09-05 04:10:47			0	37248	0	0	0	28277	26890	156930	27140	1076483	47045	110502	0	0	8082	573789	0	0
2024-09-05 04:11:47			0	37275	0	0	0	28272	26880	156862	27060	1076501	47044	110500	0	0	8084	572745	0	0
2024-09-05 04:12:47			0	37276	0	0	0	28272	26900	156830	27310	1076447	47046	110500	0	0	8084	572640	0	0
2024-09-05 04:13:47			0	37263	0	0	0	28267	26880	156866	27057	1076438	47044	110498	0	0	8083	573224	0	0
2024-09-05 04:14:47			0	37287	0	0	0	28264	26870	156782	27124	1076447	47066	110497	0	0	8084	572300	0	0
2024-09-05 04:15:47			0	37282	0	0	0	28262	26870	156798	27275	1076447	47054	110496	0	0	8084	572499	0	0
2024-09-05 04:16:47			0	37279	0	0	0	28257	26870	156770	27223	1076482	47055	110494	0	0	8084	572619	0	0
2024-09-05 04:17:47			0	37291	0	0	0	28251	26870	156778	27315	1076402	47044	110492	0	0	8085	572141	0	0
2024-09-05 04:18:47			0	37306	0	0	0	28262	26850	156782	27281	1076366	47053	110496	0	0	8086	571610	0	0
2024-09-05 04:19:47			0	37292	0	0	0	28262	26870	156710	27201	1076366	47066	110496	0	0	8085	572101	0	0
2024-09-05 04:20:47			0	37321	0	0	0	28257	26860	156715	27104	1076375	47065	110494	0	0	8087	570981	0	0
2024-09-05 04:21:47			0	37321	0	0	0	28257	26860	156626	27114	1076384	47053	110494	0	0	8087	570981	0	0
2024-09-05 04:22:47			0	37338	0	0	0	28254	26870	156575	27332	1076312	47066	110493	0	0	8088	570272	0	0
2024-09-05 04:23:47			0	37345	0	0	0	28251	26870	156567	27320	1076366	47066	110492	0	0	8088	569994	0	0
2024-09-05 04:24:47			0	37359	0	0	0	28257	26850	156527	27275	1076339	47053	110494	0	0	8089	569504	0	0
2024-09-05 04:25:47			0	37378	0	0	0	28246	26850	156419	27280	1076366	47065	110490	0	0	8090	568750	0	0
2024-09-05 04:26:47			0	37387	0	0	0	28238	26850	156471	27168	1076303	47052	110487	0	0	8091	568393	0	0
2024-09-05 04:27:47			0	37414	0	0	0	28236	26850	156367	27251	1076285	47032	110486	0	0	8092	567324	0	0
2024-09-05 04:28:47			0	37417	0	0	0	28233	26850	156219	27260	1076366	47053	110485	0	0	8092	567205	0	0
2024-09-05 04:29:47			0	37411	0	0	0	28238	26850	156195	27232	1076276	47064	110487	0	0	8092	567442	0	0
2024-09-05 04:30:47			0	37427	0	0	0	28244	26850	156119	27078	1076249	47052	110489	0	0	8093	566809	0	0
2024-09-05 04:31:47			0	37434	0	0	0	28238	26850	156247	27135	1076303	47052	110487	0	0	8093	566532	0	0
2024-09-05 04:32:47			0	37431	0	0	0	28236	26840	156183	27166	1076231	47041	110486	0	0	8093	566683	0	0
2024-09-05 04:33:47			0	37448	0	0	0	28231	26840	156215	27187	1076258	47051	110484	0	0	8094	566011	0	0
2024-09-05 04:34:47			0	37432	0	0	0	28233	26840	156135	27190	1076294	47063	110485	0	0	8093	566644	0	0
2024-09-05 04:35:47			0	37447	0	0	0	28231	26830	156111	27227	1076240	47050	110484	0	0	8094	566083	0	0
2024-09-05 04:36:47			0	37427	0	0	0	28231	26840	156163	27079	1076231	47051	110484	0	0	8093	566842	0	0
2024-09-05 04:37:47			0	37437	0	0	0	28236	26830	156183	27223	1076276	47040	110486	0	0	8094	566478	0	0
2024-09-05 04:38:47			0	37437	0	0	0	28225	26840	156263	27026	1076285	47063	110482	0	0	8094	566446	0	0
2024-09-05 04:39:47			0	37433	0	0	0	28225	26830	156123	27182	1076222	47062	110482	0	0	8093	566637	0	0
2024-09-05 04:40:47			0	37434	0	0	0	28215	26840	156107	27377	1076231	47051	110478	0	0	8094	566565	0	0
2024-09-05 04:41:47			0	37438	0	0	0	28218	26830	156283	27081	1076222	47040	110479	0	0	8094	566439	0	0
2024-09-05 04:42:47			0	37449	0	0	0	28210	26830	156227	27131	1076186	47062	110476	0	0	8095	566004	0	0
2024-09-05 04:43:47			0	37447	0	0	0	28207	26820	156159	27161	1076150	47061	110475	0	0	8095	566116	0	0
2024-09-05 04:44:47			0	37451	0	0	0	28197	26820	156231	27201	1076204	47028	110471	0	0	8095	565957	0	0
2024-09-05 04:45:47			0	37425	0	0	0	28212	26830	156271	27213	1076105	47050	110477	0	0	8093	566953	0	0
2024-09-05 04:46:47			0	37426	0	0	0	28215	26820	156359	26948	1076087	47048	110478	0	0	8093	566946	0	0
2024-09-05 04:47:47			0	37418	0	0	0	28210	26820	156335	27400	1076123	47049	110476	0	0	8093	567263	0	0
2024-09-05 04:48:47			0	37422	0	0	0	28205	26820	156399	27251	1076114	47027	110474	0	0	8093	567104	0	0
2024-09-05 04:49:47			0	37414	0	0	0	28202	26800	156443	27256	1076114	47047	110473	0	0	8093	567486	0	0
2024-09-05 04:50:47			0	37402	0	0	0	28215	26810	156231	27312	1076105	47048	110478	0	0	8092	567929	0	0
2024-09-05 04:51:47			0	37403	0	0	0	28207	26820	156395	27374	1076141	47048	110475	0	0	8092	567857	0	0
2024-09-05 04:52:47			0	37415	0	0	0	28218	26810	156527	27026	1076078	47060	110479	0	0	8092	567414	0	0
2024-09-05 04:53:47			0	37419	0	0	0	28210	26810	156447	26826	1076105	47048	110476	0	0	8093	567256	0	0
2024-09-05 04:54:47			0	37397	0	0	0	28197	26810	156395	27241	1076078	47071	110471	0	0	8092	568127	0	0
2024-09-05 04:55:47			0	37424	0	0	0	28199	26800	156527	27088	1076087	47059	110472	0	0	8093	567090	0	0
2024-09-05 04:56:47			0	37428	0	0	0	28197	26810	156495	27493	1076096	47048	110471	0	0	8094	566899	0	0
2024-09-05 04:57:47			0	37401	0	0	0	28189	26790	156411	27434	1076113	47046	110468	0	0	8092	568034	0	0
2024-09-05 04:58:47			0	37409	0	0	0	28197	26790	156499	27173	1076096	47036	110471	0	0	8092	567717	0	0
2024-09-05 04:59:47			0	37405	0	0	0	28194	26790	156407	27086	1076069	47058	110470	0	0	8092	567875	0	0
2024-09-05 05:00:47			0	37411	0	0	0	28184	26800	156447	27197	1075997	47046	110466	0	0	8093	567605	0	0
2024-09-05 05:01:47			0	37403	0	0	0	28184	26810	156439	27097	1076042	47048	110466	0	0	8092	567889	0	0
2024-09-05 05:02:47			0	37392	0	0	0	28184	26800	156543	27131	1076131	47058	110466	0	0	8092	568358	0	0
2024-09-05 05:03:47			0	37385	0	0	0	28184	26800	156487	27185	1076105	47046	110466	0	0	8091	568635	0	0
2024-09-05 05:04:47			0	37405	0	0	0	28179	26790	156495	27299	1076032	47058	110464	0	0	8092	567875	0	0
2024-09-05 05:05:47			0	37389	0	0	0	28184	26780	156551	27202	1075996	47057	110466	0	0	8091	568542	0	0
2024-09-05 05:06:47			0	37379	0	0	0	28173	26780	156451	27154	1076023	47057	110462	0	0	8091	568938	0	0
2024-09-05 05:07:47			0	37374	0	0	0	28166	26790	156503	27211	1076006	47046	110459	0	0	8091	569104	0	0
2024-09-05 05:08:47			0	37369	0	0	0	28168	26780	156559	27229	1075970	47045	110460	0	0	8090	569335	0	0
2024-09-05 05:09:47			0	37382	0	0	0	28173	26770	156543	27253	1075925	47044	110462	0	0	8091	568852	0	0
2024-09-05 05:10:47			0	37366	0	0	0	28163	26780	156487	27329	1075970	47057	110458	0	0	8090	569454	0	0
2024-09-05 05:11:47			0	37365	0	0	0	28163	26790	156583	27272	1075979	47058	110458	0	0	8090	569461	0	0
2024-09-05 05:12:47			0	37349	0	0	0	28155	26770	156511	27457	1075951	47044	110455	0	0	8089	570162	0	0
2024-09-05 05:13:47			0	37365	0	0	0	28161	26780	156499	27334	1075987	47034	110457	0	0	8090	569494	0	0
2024-09-05 05:14:47			0	37364	0	0	0	28163	26770	156559	27208	1075951	47044	110458	0	0	8090	569566	0	0
2024-09-05 05:15:47			0	37348	0	0	0	28163	26770	156655	27268	1075916	47044	110458	0	0	8089	570202	0	0
2024-09-05 05:16:47			0	37335	0	0	0	28161	26770	156615	26791	1075898	47044	110457	0	0	8089	570718	0	0
2024-09-05 05:17:47			0	37338	0	0	0	28166	26770	156587	27218	1075916	47044	110459	0	0	8089	570599	0	0
2024-09-05 05:18:47			0	37334	0	0	0	28158	26770	156571	26982	1075898	47044	110456	0	0	8089	570758	0	0
2024-09-05 05:19:47			0	37341	0	0	0	28163	26770	156607	27180	1075835	47056	110458	0	0	8089	570480	0	0
2024-09-05 05:20:47			0	37316	0	0	0	28158	26770	156775	26850	1075835	47034	110456	0	0	8087	571474	0	0
2024-09-05 05:21:47			0	37322	0	0	0	28153	26770	156663	27156	1075835	47056	110454	0	0	8088	571235	0	0
2024-09-05 05:22:47			0	37336	0	0	0	28158	26760	156631	27022	1075906	47055	110456	0	0	8089	570711	0	0
2024-09-05 05:23:47			0	37308	0	0	0	28155	26770	156678	27170	1075898	47044	110455	0	0	8087	571792	0	0
2024-09-05 05:24:47			0	37313	0	0	0	28158	26770	156782	27209	1075916	47044	110456	0	0	8087	571593	0	0
2024-09-05 05:25:47			0	37312	0	0	0	28166	26760	156742	27180	1075871	47042	110459	0	0	8087	571666	0	0
2024-09-05 05:26:47			0	37316	0	0	0	28161	26760	156791	27246	1075871	47054	110457	0	0	8087	571507	0	0
2024-09-05 05:27:47			0	37323	0	0	0	28166	26750	156843	27192	1075888	47053	110459	0	0	8088	571261	0	0
2024-09-05 05:28:47			0	37325	0	0	0	28155	26760	156859	27246	1075897	47042	110455	0	0	8088	571149	0	0
2024-09-05 05:29:47			0	37316	0	0	0	28158	26760	156875	27090	1075871	47042	110456	0	0	8087	571507	0	0
2024-09-05 05:30:47			0	37315	0	0	0	28158	26760	156878	27220	1075853	47033	110456	0	0	8087	571546	0	0
2024-09-05 05:31:47			0	37301	0	0	0	28173	26760	156806	27298	1075844	47054	110462	0	0	8086	572104	0	0
2024-09-05 05:32:47			0	37303	0	0	0	28163	26770	156902	27229	1075889	47034	110458	0	0	8087	571991	0	0
2024-09-05 05:33:47			0	37285	0	0	0	28163	26760	156838	27246	1075871	47054	110458	0	0	8086	572741	0	0
2024-09-05 05:34:47			0	37297	0	0	0	28150	26750	156790	27332	1075781	47041	110453	0	0	8086	572296	0	0
2024-09-05 05:35:47			0	37289	0	0	0	28155	26760	156806	27213	1075844	47032	110455	0	0	8086	572581	0	0
2024-09-05 05:36:47			0	37299	0	0	0	28158	26760	156970	27225	1075853	47043	110456	0	0	8086	572183	0	0
2024-09-05 05:37:47			0	37274	0	0	0	28153	26750	157078	27183	1075861	47031	110454	0	0	8085	573212	0	0
2024-09-05 05:38:47			0	37284	0	0	0	28163	26750	157014	26989	1075835	47041	110458	0	0	8085	572814	0	0
2024-09-05 05:39:47			0	37278	0	0	0	28155	26760	157086	26902	1075853	47043	110455	0	0	8085	573020	0	0
2024-09-05 05:40:47			0	37279	0	0	0	28150	26760	157082	27274	1075897	47032	110453	0	0	8085	572980	0	0
2024-09-05 05:41:47			0	37284	0	0	0	28155	26750	156974	27312	1075826	47041	110455	0	0	8086	572814	0	0
2024-09-05 05:42:47			0	37262	0	0	0	28145	26750	157030	27202	1075826	47041	110451	0	0	8084	573691	0	0
2024-09-05 05:43:47			0	37262	0	0	0	28148	26760	157054	27105	1075897	47042	110452	0	0	8084	573658	0	0
2024-09-05 05:44:47			0	37267	0	0	0	28155	26750	157002	27395	1075799	47053	110455	0	0	8085	573491	0	0
2024-09-05 05:45:47			0	37261	0	0	0	28145	26750	156986	27072	1075799	47053	110451	0	0	8084	573731	0	0
2024-09-05 05:46:47			0	37273	0	0	0	28150	26750	157006	27092	1075799	47031	110453	0	0	8085	573252	0	0
2024-09-05 05:47:47			0	37268	0	0	0	28142	26750	156974	27357	1075826	47041	110450	0	0	8085	573451	0	0
2024-09-05 05:48:47			0	37250	0	0	0	28132	26750	157050	27305	1075772	47041	110446	0	0	8084	574169	0	0
2024-09-05 05:49:47			0	37258	0	0	0	28142	26740	157158	27145	1075763	47041	110450	0	0	8084	573883	0	0
2024-09-05 05:50:47			0	37271	0	0	0	28140	26740	157082	27022	1075816	47031	110449	0	0	8085	573365	0	0
2024-09-05 05:51:47			0	37269	0	0	0	28129	26740	157118	26918	1075790	47041	110445	0	0	8085	573444	0	0
2024-09-05 05:52:47			0	37252	0	0	0	28124	26740	157070	26845	1075781	47041	110443	0	0	8084	574123	0	0
2024-09-05 05:53:47			0	37251	0	0	0	28122	26740	157218	27192	1075727	47041	110442	0	0	8084	574162	0	0
2024-09-05 05:54:47			0	37247	0	0	0	28122	26740	157154	27138	1075709	47053	110442	0	0	8084	574322	0	0
2024-09-05 05:55:47			0	37238	0	0	0	28124	26730	157310	27196	1075718	47040	110443	0	0	8083	574714	0	0
2024-09-05 05:56:47			0	37233	0	0	0	28122	26740	157098	27154	1075682	47031	110442	0	0	8083	574881	0	0
2024-09-05 05:57:47			0	37241	0	0	0	28129	26730	157246	27098	1075637	47051	110445	0	0	8083	574594	0	0
2024-09-05 05:58:47			0	37235	0	0	0	28137	26730	157162	27289	1075762	47040	110448	0	0	8083	574834	0	0
2024-09-05 05:59:47			0	37212	0	0	0	28132	26730	157246	27294	1075691	47051	110446	0	0	8082	575753	0	0
2024-09-05 06:00:47			0	37222	0	0	0	28135	26740	157318	27192	1075754	47041	110447	0	0	8082	575321	0	0
2024-09-05 06:01:47			0	37211	0	0	0	28140	26740	157338	26982	1075700	47052	110449	0	0	8081	575760	0	0
2024-09-05 06:02:47			0	37219	0	0	0	28137	26740	157258	27137	1075682	47053	110448	0	0	8082	575440	0	0
2024-09-05 06:03:47			0	37191	0	0	0	28132	26740	157314	27187	1075727	47041	110446	0	0	8080	576560	0	0
2024-09-05 06:04:47			0	37208	0	0	0	28129	26730	157410	27294	1075771	47051	110445	0	0	8081	575913	0	0
2024-09-05 06:05:47			0	37189	0	0	0	28132	26730	157390	27324	1075762	47040	110446	0	0	8080	576673	0	0
2024-09-05 06:06:47			0	37185	0	0	0	28122	26740	157394	27078	1075754	47030	110442	0	0	8080	576800	0	0
2024-09-05 06:07:47			0	37194	0	0	0	28129	26740	157402	27390	1075727	47052	110445	0	0	8081	576440	0	0
2024-09-05 06:08:47			0	37189	0	0	0	28127	26740	157438	27031	1075754	47052	110444	0	0	8080	576640	0	0
2024-09-05 06:09:47			0	37182	0	0	0	28129	26740	157410	27059	1075673	47041	110445	0	0	8080	576921	0	0
2024-09-05 06:10:47			0	37168	0	0	0	28129	26720	157398	27039	1075726	47051	110445	0	0	8079	577547	0	0
2024-09-05 06:11:47			0	37180	0	0	0	28119	26730	157394	27275	1075718	47040	110441	0	0	8080	577034	0	0
2024-09-05 06:12:47			0	37187	0	0	0	28119	26730	157518	27066	1075709	47051	110441	0	0	8080	576753	0	0
2024-09-05 06:13:47			0	37169	0	0	0	28114	26720	157530	26816	1075691	47028	110439	0	0	8079	577507	0	0
2024-09-05 06:14:47			0	37187	0	0	0	28103	26720	157486	27157	1075646	47040	110435	0	0	8081	576786	0	0
2024-09-05 06:15:47			0	37167	0	0	0	28103	26730	157578	26880	1075628	47040	110435	0	0	8079	577554	0	0
2024-09-05 06:16:47			0	37162	0	0	0	28103	26720	157502	27081	1075556	47039	110435	0	0	8079	577788	0	0
2024-09-05 06:17:47			0	37143	0	0	0	28101	26720	157506	26967	1075610	47050	110434	0	0	8078	578550	0	0
2024-09-05 06:18:47			0	37164	0	0	0	28109	26720	157614	27085	1075619	47051	110437	0	0	8079	577708	0	0
2024-09-05 06:19:47			0	37157	0	0	0	28111	26710	157442	27026	1075574	47015	110438	0	0	8079	578021	0	0
2024-09-05 06:20:47			0	37173	0	0	0	28114	26710	157442	27137	1075628	47038	110439	0	0	8080	577380	0	0
2024-09-05 06:21:47			0	37154	0	0	0	28106	26710	157466	26819	1075601	47027	110436	0	0	8079	578142	0	0
2024-09-05 06:22:47			0	37150	0	0	0	28101	26710	157546	27100	1075574	47049	110434	0	0	8078	578302	0	0
2024-09-05 06:23:47			0	37147	0	0	0	28109	26700	157530	27072	1075610	47038	110437	0	0	8078	578456	0	0
2024-09-05 06:24:47			0	37143	0	0	0	28116	26700	157546	27050	1075583	47038	110440	0	0	8078	578616	0	0
2024-09-05 06:25:47			0	37150	0	0	0	28109	26700	157594	27301	1075493	47037	110437	0	0	8078	578335	0	0
2024-09-05 06:26:47			0	37143	0	0	0	28098	26710	157502	27017	1075619	47049	110433	0	0	8078	578583	0	0
2024-09-05 06:27:47			0	37149	0	0	0	28106	26710	157566	27090	1075628	47049	110436	0	0	8078	578342	0	0
2024-09-05 06:28:47			0	37149	0	0	0	28101	26710	157454	26904	1075619	47038	110434	0	0	8078	578342	0	0
2024-09-05 06:29:47			0	37138	0	0	0	28098	26710	157558	26927	1075565	47049	110433	0	0	8078	578783	0	0
2024-09-05 06:30:47			0	37132	0	0	0	28101	26700	157542	27046	1075583	47038	110434	0	0	8077	579057	0	0
2024-09-05 06:31:47			0	37122	0	0	0	28090	26710	157486	27227	1075538	47015	110430	0	0	8077	579426	0	0
2024-09-05 06:32:47			0	37132	0	0	0	28090	26700	157626	27227	1075547	47037	110430	0	0	8078	579057	0	0
2024-09-05 06:33:47			0	37103	0	0	0	28093	26710	157698	27246	1075574	47049	110431	0	0	8076	580189	0	0
2024-09-05 06:34:47			0	37115	0	0	0	28083	26700	157698	27431	1075547	47037	110427	0	0	8077	579740	0	0
2024-09-05 06:35:47			0	37094	0	0	0	28083	26700	157734	27312	1075493	47048	110427	0	0	8075	580584	0	0
2024-09-05 06:36:47			0	37077	0	0	0	28077	26700	157658	26915	1075556	47038	110425	0	0	8075	581268	0	0
2024-09-05 06:37:47			0	37083	0	0	0	28085	26680	157762	27126	1075520	47024	110428	0	0	8075	581093	0	0
2024-09-05 06:38:47			0	37058	0	0	0	28080	26690	157710	27164	1075511	47036	110426	0	0	8073	582066	0	0
2024-09-05 06:39:47			0	37054	0	0	0	28080	26700	157782	27152	1075529	47038	110426	0	0	8073	582194	0	0
2024-09-05 06:40:47			0	37060	0	0	0	28072	26680	157858	27140	1075466	47024	110423	0	0	8073	582019	0	0
2024-09-05 06:41:47			0	37044	0	0	0	28072	26680	157782	27142	1075511	47012	110423	0	0	8073	582664	0	0
2024-09-05 06:42:47			0	37036	0	0	0	28083	26690	157822	27190	1075484	47047	110427	0	0	8072	582953	0	0
2024-09-05 06:43:47			0	37021	0	0	0	28077	26680	157858	27331	1075493	47024	110425	0	0	8071	583591	0	0
2024-09-05 06:44:47			0	37031	0	0	0	28062	26690	157898	27038	1075421	47035	110419	0	0	8072	583154	0	0
2024-09-05 06:45:47			0	37007	0	0	0	28059	26680	158082	27289	1075466	47035	110418	0	0	8071	584156	0	0
2024-09-05 06:46:47			0	36974	0	0	0	28062	26670	158066	27244	1075466	47022	110419	0	0	8069	585523	0	0
2024-09-05 06:47:47			0	36957	0	0	0	28057	26660	158154	27426	1075376	47033	110417	0	0	8068	586244	0	0
2024-09-05 06:48:47			0	36970	0	0	0	28051	26670	158126	27215	1075421	47034	110415	0	0	8068	585685	0	0
2024-09-05 06:49:47			0	36958	0	0	0	28051	26660	158098	27391	1075376	47022	110415	0	0	8068	586204	0	0
2024-09-05 06:50:47			0	36953	0	0	0	28041	26660	158158	27114	1075349	47033	110411	0	0	8068	586406	0	0
2024-09-05 06:51:47			0	36955	0	0	0	28059	26660	158138	26837	1075349	47022	110418	0	0	8067	586325	0	0
2024-09-05 06:52:47			0	36941	0	0	0	28051	26660	158270	27149	1075313	47044	110415	0	0	8067	586892	0	0
2024-09-05 06:53:47			0	36945	0	0	0	28059	26660	158306	26946	1075340	47022	110418	0	0	8067	586730	0	0
2024-09-05 06:54:47			0	36964	0	0	0	28049	26660	158226	26868	1075340	47033	110414	0	0	8068	585961	0	0
2024-09-05 06:55:47			0	36960	0	0	0	28057	26650	158270	27109	1075358	47032	110417	0	0	8068	586157	0	0
2024-09-05 06:56:47			0	36948	0	0	0	28059	26660	158202	27173	1075367	47033	110418	0	0	8067	586609	0	0
2024-09-05 06:57:47			0	36961	0	0	0	28059	26650	158206	27066	1075277	47032	110418	0	0	8068	586116	0	0
2024-09-05 06:58:47			0	36951	0	0	0	28070	26660	158306	27067	1075367	47044	110422	0	0	8067	586487	0	0
2024-09-05 06:59:47			0	36953	0	0	0	28077	26650	158242	27036	1075384	47042	110425	0	0	8067	586440	0	0
2024-09-05 07:00:47			0	36958	0	0	0	28085	26660	158214	27038	1075393	47033	110428	0	0	8067	586204	0	0
2024-09-05 07:01:47			0	36947	0	0	0	28096	26650	158238	27417	1075384	47054	110432	0	0	8066	586683	0	0
2024-09-05 07:02:47			0	36954	0	0	0	28101	26660	158206	27223	1075402	47044	110434	0	0	8067	586366	0	0
2024-09-05 07:03:47			0	36953	0	0	0	28155	26660	158298	27204	1075376	47033	110455	0	0	8066	586406	0	0
2024-09-05 07:04:47			0	36943	0	0	0	28119	26660	158302	26989	1075393	47044	110441	0	0	8066	586811	0	0
2024-09-05 07:05:47			0	36947	0	0	0	28085	26660	158342	27166	1075402	47033	110428	0	0	8067	586649	0	0
2024-09-05 07:06:47			0	36945	0	0	0	28088	26660	158190	26847	1075429	47033	110429	0	0	8066	586730	0	0
2024-09-05 07:07:47			0	36943	0	0	0	28106	26660	158114	27012	1075402	47044	110436	0	0	8066	586811	0	0
2024-09-05 07:08:47			0	36942	0	0	0	28098	26670	158254	27225	1075421	47023	110433	0	0	8066	586818	0	0
2024-09-05 07:09:47			0	36965	0	0	0	28075	26660	158162	26913	1075402	47033	110424	0	0	8068	585921	0	0
2024-09-05 07:10:47			0	36959	0	0	0	28072	26660	158218	27097	1075376	47022	110423	0	0	8067	586163	0	0
2024-09-05 07:11:47			0	36956	0	0	0	28051	26660	158190	27029	1075349	47022	110415	0	0	8068	586285	0	0
2024-09-05 07:12:47			0	36977	0	0	0	28070	26660	158214	27033	1075367	47033	110422	0	0	8069	585435	0	0
2024-09-05 07:13:47			0	36974	0	0	0	28054	26650	158138	26887	1075358	47021	110416	0	0	8069	585590	0	0
2024-09-05 07:14:47			0	36984	0	0	0	28023	26650	158154	26887	1075277	47032	110404	0	0	8070	585186	0	0
2024-09-05 07:15:47			0	36963	0	0	0	28012	26650	158226	27055	1075304	47042	110400	0	0	8069	586035	0	0
2024-09-05 07:16:47			0	36953	0	0	0	28041	26640	158302	27209	1075241	47031	110411	0	0	8068	586474	0	0
2024-09-05 07:17:47			0	36942	0	0	0	28025	26630	158330	26691	1075303	47020	110405	0	0	8067	586952	0	0
2024-09-05 07:18:47			0	36935	0	0	0	28012	26630	158338	27500	1075241	47019	110400	0	0	8067	587236	0	0
2024-09-05 07:19:47			0	36942	0	0	0	27997	26630	158374	27303	1075187	47019	110394	0	0	8068	586952	0	0
2024-09-05 07:20:47			0	36920	0	0	0	27994	26630	158378	27448	1075187	47019	110393	0	0	8066	587844	0	0
2024-09-05 07:21:47			0	36938	0	0	0	28005	26620	158398	27194	1075169	47028	110397	0	0	8067	587148	0	0
2024-09-05 07:22:47			0	36948	0	0	0	27997	26610	158350	27097	1075079	47017	110394	0	0	8068	586777	0	0
2024-09-05 07:23:47			0	36949	0	0	0	27997	26610	158338	27121	1075160	47039	110394	0	0	8068	586736	0	0
2024-09-05 07:24:47			0	36944	0	0	0	27997	26610	158370	27353	1075079	47028	110394	0	0	8068	586939	0	0
2024-09-05 07:25:47			0	36929	0	0	0	28002	26610	158382	27322	1075133	47017	110396	0	0	8067	587546	0	0
2024-09-05 07:26:47			0	36920	0	0	0	27992	26600	158410	26923	1075115	47038	110392	0	0	8066	587945	0	0
2024-09-05 07:27:47			0	36934	0	0	0	27992	26600	158486	27133	1075034	47027	110392	0	0	8067	587378	0	0
2024-09-05 07:28:47			0	36929	0	0	0	27989	26600	158566	26916	1075133	47015	110391	0	0	8067	587580	0	0
2024-09-05 07:29:47			0	36903	0	0	0	27974	26600	158682	26821	1075052	47015	110385	0	0	8066	588635	0	0
2024-09-05 07:30:47			0	36889	0	0	0	27981	26600	158626	27308	1075052	47026	110388	0	0	8065	589203	0	0
2024-09-05 07:31:47			0	36897	0	0	0	27986	26590	158582	27300	1074980	47015	110390	0	0	8065	588912	0	0
2024-09-05 07:32:47			0	36892	0	0	0	27997	26600	158698	26916	1075025	47003	110394	0	0	8064	589082	0	0
2024-09-05 07:33:47			0	36887	0	0	0	27979	26590	158714	26873	1075043	47037	110387	0	0	8064	589318	0	0
2024-09-05 07:34:47			0	36905	0	0	0	27999	26580	158710	26918	1075025	47036	110395	0	0	8065	588621	0	0
2024-09-05 07:35:47			0	36891	0	0	0	28059	26580	158698	27017	1075016	47024	110418	0	0	8063	589190	0	0
2024-09-05 07:36:47			0	36897	0	0	0	28090	26580	158674	26932	1075025	47014	110430	0	0	8063	588946	0	0
2024-09-05 07:37:47			0	36906	0	0	0	28002	26580	158666	26896	1074998	47047	110396	0	0	8065	588580	0	0
2024-09-05 07:38:47			0	36907	0	0	0	27984	26590	158638	26986	1075088	47048	110389	0	0	8066	588506	0	0
2024-09-05 07:39:47			0	36895	0	0	0	28028	26580	158718	27003	1074944	47036	110406	0	0	8064	589027	0	0
2024-09-05 07:40:47			0	36902	0	0	0	28033	26590	158682	27232	1075043	47037	110408	0	0	8064	588709	0	0
2024-09-05 07:41:47			0	36901	0	0	0	28116	26580	158782	27142	1075025	47036	110440	0	0	8063	588783	0	0
2024-09-05 07:42:47			0	36887	0	0	0	28051	26590	158674	27255	1075097	47037	110415	0	0	8063	589318	0	0
2024-09-05 07:43:47			0	36883	0	0	0	27989	26590	158746	27322	1075088	47037	110391	0	0	8064	589481	0	0
2024-09-05 07:44:47			0	36889	0	0	0	27989	26590	158754	27038	1074980	47048	110391	0	0	8064	589237	0	0
2024-09-05 07:45:47			0	36860	0	0	0	27979	26590	158738	27322	1075007	47026	110387	0	0	8063	590416	0	0
2024-09-05 07:46:47			0	36851	0	0	0	27966	26590	158838	27062	1074953	47037	110382	0	0	8063	590782	0	0
2024-09-05 07:47:47			0	36845	0	0	0	27979	26580	158886	27130	1074935	47046	110387	0	0	8062	591060	0	0
2024-09-05 07:48:47			0	36819	0	0	0	28002	26580	159074	27225	1074989	47035	110396	0	0	8060	592119	0	0
2024-09-05 07:49:47			0	36817	0	0	0	28072	26570	159066	27346	1074926	47035	110423	0	0	8059	592234	0	0
2024-09-05 07:50:47			0	36812	0	0	0	27994	26580	159050	27045	1074962	47024	110393	0	0	8060	592404	0	0
2024-09-05 07:51:47			0	36821	0	0	0	27966	26580	159006	27066	1074944	47025	110382	0	0	8061	592037	0	0
2024-09-05 07:52:47			0	36825	0	0	0	27929	26570	159018	27197	1074899	47013	110368	0	0	8062	591908	0	0
2024-09-05 07:53:47			0	36796	0	0	0	27916	26570	158962	27242	1074845	47013	110363	0	0	8060	593091	0	0
2024-09-05 07:54:47			0	36812	0	0	0	27924	26570	159006	26941	1074810	47013	110366	0	0	8061	592438	0	0
2024-09-05 07:55:47			0	36792	0	0	0	27932	26560	159262	27105	1074845	47022	110369	0	0	8059	593288	0	0
2024-09-05 07:56:47			0	36792	0	0	0	27919	26560	159242	26712	1074765	47011	110364	0	0	8060	593288	0	0
2024-09-05 07:57:47			0	36776	0	0	0	27911	26550	159294	26840	1074782	47011	110361	0	0	8059	593975	0	0
2024-09-05 07:58:47			0	36773	0	0	0	27909	26550	159258	27090	1074702	47011	110360	0	0	8059	594097	0	0
2024-09-05 07:59:47			0	36772	0	0	0	27906	26540	159226	27178	1074701	47020	110359	0	0	8059	594172	0	0
2024-09-05 08:00:47			0	36761	0	0	0	27890	26540	159238	26970	1074701	46998	110353	0	0	8058	594622	0	0
2024-09-05 08:01:47			0	36773	0	0	0	27903	26530	159330	26753	1074665	47008	110358	0	0	8059	594165	0	0
2024-09-05 08:02:47			0	36742	0	0	0	27914	26530	159394	26989	1074665	47019	110362	0	0	8057	595433	0	0
2024-09-05 08:03:47			0	36740	0	0	0	27909	26530	159502	27149	1074629	47008	110360	0	0	8057	595515	0	0
2024-09-05 08:04:47			0	36722	0	0	0	27914	26530	159490	27218	1074683	47030	110362	0	0	8055	596251	0	0
2024-09-05 08:05:47			0	36720	0	0	0	27922	26530	159498	26982	1074656	47019	110365	0	0	8055	596333	0	0
2024-09-05 08:06:47			0	36712	0	0	0	27932	26530	159522	27057	1074710	47030	110369	0	0	8055	596661	0	0
2024-09-05 08:07:47			0	36700	0	0	0	27929	26530	159558	27263	1074719	47019	110368	0	0	8054	597153	0	0
2024-09-05 08:08:47			0	36711	0	0	0	27935	26530	159582	27097	1074665	47019	110370	0	0	8054	596702	0	0
2024-09-05 08:09:47			0	36721	0	0	0	27945	26530	159530	27149	1074656	47030	110374	0	0	8055	596292	0	0
2024-09-05 08:10:47			0	36723	0	0	0	27932	26540	159574	26835	1074701	47031	110369	0	0	8055	596176	0	0
2024-09-05 08:11:47			0	36712	0	0	0	27940	26540	159610	27045	1074728	47031	110372	0	0	8054	596627	0	0
2024-09-05 08:12:47			0	36697	0	0	0	27948	26540	159582	27206	1074755	47031	110375	0	0	8053	597242	0	0
2024-09-05 08:13:47			0	36700	0	0	0	27948	26540	159566	26955	1074728	47031	110375	0	0	8054	597119	0	0
2024-09-05 08:14:47			0	36694	0	0	0	27953	26530	159482	27241	1074764	47030	110377	0	0	8053	597399	0	0
2024-09-05 08:15:47			0	36702	0	0	0	27948	26530	159582	27412	1074737	47019	110375	0	0	8054	597071	0	0
2024-09-05 08:16:47			0	36691	0	0	0	27942	26530	159622	27102	1074773	47030	110373	0	0	8053	597522	0	0
2024-09-05 08:17:47			0	36721	0	0	0	27948	26530	159582	27171	1074746	47030	110375	0	0	8055	596292	0	0
2024-09-05 08:18:47			0	36712	0	0	0	27955	26530	159498	27377	1074746	47030	110378	0	0	8054	596661	0	0
2024-09-05 08:19:47			0	36674	0	0	0	27953	26530	159506	26939	1074773	47030	110377	0	0	8052	598219	0	0
2024-09-05 08:20:47			0	36696	0	0	0	27950	26540	159570	27300	1074764	47032	110376	0	0	8053	597283	0	0
2024-09-05 08:21:47			0	36707	0	0	0	27932	26540	159614	27052	1074755	47031	110369	0	0	8054	596832	0	0
2024-09-05 08:22:47			0	36719	0	0	0	27940	26530	159522	27036	1074817	47008	110372	0	0	8055	596374	0	0
2024-09-05 08:23:47			0	36721	0	0	0	27932	26540	159322	27232	1074782	47031	110369	0	0	8055	596258	0	0
2024-09-05 08:24:47			0	36762	0	0	0	27940	26540	159194	27178	1074728	47031	110372	0	0	8057	594581	0	0
2024-09-05 08:25:47			0	36761	0	0	0	27945	26530	159214	27272	1074746	47019	110374	0	0	8057	594656	0	0
2024-09-05 08:26:47			0	36800	0	0	0	27937	26540	159066	27312	1074764	47032	110371	0	0	8060	593029	0	0
2024-09-05 08:27:47			0	36841	0	0	0	27935	26530	158782	27192	1074800	47019	110370	0	0	8062	591392	0	0
2024-09-05 08:28:47			0	36853	0	0	0	27924	26530	158750	27171	1074719	47041	110366	0	0	8063	590903	0	0
2024-09-05 08:29:47			0	36873	0	0	0	27916	26530	158786	27057	1074764	47030	110363	0	0	8064	590090	0	0
2024-09-05 08:30:47			0	36870	0	0	0	27919	26530	158746	27036	1074719	47019	110364	0	0	8064	590212	0	0
2024-09-05 08:31:47			0	36860	0	0	0	27927	26530	158830	26876	1074719	46997	110367	0	0	8063	590618	0	0
2024-09-05 08:32:47			0	36844	0	0	0	27924	26530	158734	26927	1074710	47030	110366	0	0	8063	591270	0	0
2024-09-05 08:33:47			0	36864	0	0	0	27919	26530	158794	27067	1074710	47019	110364	0	0	8064	590456	0	0
2024-09-05 08:34:47			0	36848	0	0	0	27932	26530	158970	26925	1074737	47008	110369	0	0	8063	591107	0	0
2024-09-05 08:35:47			0	36881	0	0	0	27924	26530	158674	26901	1074719	47030	110366	0	0	8065	589764	0	0
2024-09-05 08:36:47			0	36880	0	0	0	27922	26530	158546	27017	1074746	47019	110365	0	0	8065	589805	0	0
2024-09-05 08:37:47			0	36888	0	0	0	27911	26530	158598	26989	1074710	47019	110361	0	0	8065	589480	0	0
2024-09-05 08:38:47			0	36902	0	0	0	27914	26530	158638	26776	1074692	47019	110362	0	0	8066	588911	0	0
2024-09-05 08:39:47			0	36900	0	0	0	27916	26520	158586	27112	1074647	47030	110363	0	0	8066	589026	0	0
2024-09-05 08:40:47			0	36891	0	0	0	27914	26530	158570	26812	1074692	47008	110362	0	0	8065	589358	0	0
2024-09-05 08:41:47			0	36889	0	0	0	27916	26520	158646	26994	1074674	47008	110363	0	0	8065	589473	0	0
2024-09-05 08:42:47			0	36881	0	0	0	27911	26520	158654	26710	1074647	47008	110361	0	0	8065	589798	0	0
2024-09-05 08:43:47			0	36885	0	0	0	27909	26530	158618	27088	1074629	47019	110360	0	0	8065	589602	0	0
2024-09-05 08:44:47			0	36882	0	0	0	27919	26520	158670	26991	1074593	47019	110364	0	0	8065	589757	0	0
2024-09-05 08:45:47			0	36904	0	0	0	27906	26530	158630	26967	1074656	47030	110359	0	0	8066	588830	0	0
2024-09-05 08:46:47			0	36902	0	0	0	27906	26510	158570	26859	1074629	47006	110359	0	0	8066	588979	0	0
2024-09-05 08:47:47			0	36888	0	0	0	27914	26520	158566	27053	1074611	47018	110362	0	0	8065	589514	0	0
2024-09-05 08:48:47			0	36905	0	0	0	27916	26520	158626	26816	1074692	47018	110363	0	0	8066	588823	0	0
2024-09-05 08:49:47			0	36895	0	0	0	27914	26520	158594	26935	1074620	47030	110362	0	0	8066	589229	0	0
2024-09-05 08:50:47			0	36908	0	0	0	27914	26510	158598	27138	1074602	47028	110362	0	0	8066	588735	0	0
2024-09-05 08:51:47			0	36906	0	0	0	27922	26520	158638	26752	1074665	47018	110365	0	0	8066	588783	0	0
2024-09-05 08:52:47			0	36908	0	0	0	27919	26520	158674	27085	1074611	47018	110364	0	0	8066	588701	0	0
2024-09-05 08:53:47			0	36905	0	0	0	27927	26520	158614	26852	1074611	47041	110367	0	0	8066	588823	0	0
2024-09-05 08:54:47			0	36915	0	0	0	27924	26510	158722	27201	1074620	47006	110366	0	0	8067	588451	0	0
2024-09-05 08:55:47			0	36907	0	0	0	27919	26520	158586	27209	1074647	47019	110364	0	0	8066	588742	0	0
2024-09-05 08:56:47			0	36931	0	0	0	27919	26510	158638	27230	1074629	47017	110364	0	0	8068	587802	0	0
2024-09-05 08:57:47			0	36911	0	0	0	27919	26510	158662	27358	1074629	47028	110364	0	0	8066	588613	0	0
2024-09-05 08:58:47			0	36923	0	0	0	27924	26520	158554	26861	1074692	47029	110366	0	0	8067	588092	0	0
2024-09-05 08:59:47			0	36920	0	0	0	27919	26520	158518	27017	1074692	47018	110364	0	0	8067	588214	0	0
2024-09-05 09:00:47			0	36927	0	0	0	27929	26510	158550	27124	1074629	47028	110368	0	0	8067	587964	0	0
2024-09-05 09:01:47			0	36931	0	0	0	27927	26530	158510	26826	1074710	47008	110367	0	0	8068	587734	0	0
2024-09-05 09:02:47			0	36920	0	0	0	27966	26520	158498	26979	1074647	47019	110382	0	0	8066	588214	0	0
2024-09-05 09:03:47			0	36918	0	0	0	27961	26520	158546	26800	1074728	47030	110380	0	0	8066	588295	0	0
2024-09-05 09:04:47			0	36914	0	0	0	27948	26530	158570	27154	1074773	47030	110375	0	0	8066	588424	0	0
2024-09-05 09:05:47			0	36915	0	0	0	27971	26530	158666	26623	1074737	47030	110384	0	0	8066	588383	0	0
2024-09-05 09:06:47			0	36907	0	0	0	28010	26530	158734	27008	1074817	47041	110399	0	0	8065	588708	0	0
2024-09-05 09:07:47			0	36883	0	0	0	27974	26540	158746	26897	1074836	47042	110385	0	0	8064	589649	0	0
2024-09-05 09:08:47			0	36864	0	0	0	27981	26540	158826	27116	1074862	47031	110388	0	0	8063	590422	0	0
2024-09-05 09:09:47			0	36847	0	0	0	28002	26540	158898	26826	1074889	47020	110396	0	0	8061	591114	0	0
2024-09-05 09:10:47			0	36816	0	0	0	28018	26530	159038	26991	1074853	47030	110402	0	0	8059	592410	0	0
2024-09-05 09:11:47			0	36794	0	0	0	28015	26540	159106	27062	1074791	47043	110401	0	0	8058	593274	0	0
2024-09-05 09:12:47			0	36778	0	0	0	27989	26550	159206	26963	1074854	47021	110391	0	0	8058	593893	0	0
2024-09-05 09:13:47			0	36746	0	0	0	27997	26530	159294	27178	1074907	47030	110394	0	0	8055	595269	0	0
2024-09-05 09:14:47			0	36695	0	0	0	27999	26550	159486	27178	1074917	47022	110395	0	0	8053	597289	0	0
2024-09-05 09:15:47			0	36668	0	0	0	27989	26550	159602	27189	1074854	47021	110391	0	0	8051	598397	0	0
2024-09-05 09:16:47			0	36622	0	0	0	27981	26540	159862	26918	1074845	47032	110388	0	0	8048	600322	0	0
2024-09-05 09:17:47			0	36605	0	0	0	27966	26550	159938	26890	1074917	47033	110382	0	0	8048	600987	0	0
2024-09-05 09:18:47			0	36606	0	0	0	27974	26560	159962	26892	1074899	47022	110385	0	0	8048	600911	0	0
2024-09-05 09:19:47			0	36603	0	0	0	27981	26550	159982	26982	1074863	47044	110388	0	0	8047	601069	0	0
2024-09-05 09:20:47			0	36602	0	0	0	27989	26550	159918	26951	1074863	47033	110391	0	0	8047	601110	0	0
2024-09-05 09:21:47			0	36612	0	0	0	28010	26560	159802	27107	1074899	47033	110399	0	0	8047	600665	0	0
2024-09-05 09:22:47			0	36605	0	0	0	28023	26550	159934	26760	1074917	47033	110404	0	0	8047	600987	0	0
2024-09-05 09:23:47			0	36583	0	0	0	28018	26550	159897	26589	1074890	47033	110402	0	0	8046	601893	0	0
2024-09-05 09:24:47			0	36593	0	0	0	28028	26560	160017	26986	1074980	47022	110406	0	0	8046	601447	0	0
2024-09-05 09:25:47			0	36596	0	0	0	28051	26570	160045	26984	1075051	47046	110415	0	0	8046	601289	0	0
2024-09-05 09:26:47			0	36583	0	0	0	28041	26570	160045	26986	1075025	47035	110411	0	0	8045	601824	0	0
2024-09-05 09:27:47			0	36569	0	0	0	28057	26590	160101	27112	1075088	47048	110417	0	0	8044	602333	0	0
2024-09-05 09:28:47			0	36522	0	0	0	28036	26580	160273	27163	1075079	47047	110409	0	0	8042	604307	0	0
2024-09-05 09:29:47			0	36484	0	0	0	28085	26590	160353	26906	1075115	47048	110428	0	0	8039	605844	0	0
2024-09-05 09:30:47			0	36436	0	0	0	28090	26600	160589	27180	1075240	47048	110430	0	0	8036	607799	0	0
2024-09-05 09:31:47			0	36363	0	0	0	28080	26610	160945	27220	1075285	47061	110426	0	0	8032	610798	0	0
2024-09-05 09:32:47			0	36278	0	0	0	28083	26600	161249	27019	1075249	47049	110427	0	0	8026	614378	0	0
2024-09-05 09:33:47			0	36235	0	0	0	28067	26620	161377	27057	1075330	47050	110421	0	0	8024	616107	0	0
2024-09-05 09:34:47			0	36203	0	0	0	28101	26620	161489	26840	1075339	47051	110434	0	0	8022	617449	0	0
2024-09-05 09:35:47			0	36181	0	0	0	28096	26620	161797	27138	1075393	47051	110432	0	0	8020	618372	0	0
2024-09-05 09:36:47			0	36143	0	0	0	28072	26630	161921	27213	1075438	47064	110423	0	0	8019	619933	0	0
2024-09-05 09:37:47			0	36112	0	0	0	28098	26630	161961	26974	1075411	47053	110433	0	0	8016	621238	0	0
2024-09-05 09:38:47			0	36137	0	0	0	28119	26640	161889	26968	1075420	47031	110441	0	0	8017	620150	0	0
2024-09-05 09:39:47			0	36130	0	0	0	28103	26660	161817	27235	1075474	47055	110435	0	0	8017	620374	0	0
2024-09-05 09:40:47			0	36179	0	0	0	28109	26660	161569	27242	1075501	47044	110437	0	0	8020	618314	0	0
2024-09-05 09:41:47			0	36214	0	0	0	28077	26660	161453	26977	1075501	47033	110425	0	0	8023	616846	0	0
2024-09-05 09:42:47			0	36202	0	0	0	28057	26660	161553	27436	1075429	47033	110417	0	0	8023	617349	0	0
2024-09-05 09:43:47			0	36218	0	0	0	28070	26660	161357	26814	1075501	47044	110422	0	0	8023	616678	0	0
2024-09-05 09:44:47			0	36259	0	0	0	28083	26660	161265	27043	1075456	47033	110427	0	0	8026	614962	0	0
2024-09-05 09:45:47			0	36304	0	0	0	28088	26660	160985	26981	1075456	47044	110429	0	0	8028	613082	0	0
2024-09-05 09:46:47			0	36323	0	0	0	28067	26670	160985	26977	1075466	47033	110421	0	0	8030	612254	0	0
2024-09-05 09:47:47			0	36377	0	0	0	28033	26670	160781	26941	1075421	47034	110408	0	0	8034	610006	0	0
2024-09-05 09:48:47			0	36494	0	0	0	28018	26670	160273	26998	1075412	47022	110402	0	0	8041	605153	0	0
2024-09-05 09:49:47			0	36591	0	0	0	28015	26650	159686	27163	1075277	47021	110401	0	0	8047	601220	0	0
2024-09-05 09:50:47			0	36654	0	0	0	28018	26640	159542	26727	1075268	47020	110402	0	0	8050	598664	0	0
2024-09-05 09:51:47			0	36676	0	0	0	28007	26640	159418	27138	1075286	47020	110398	0	0	8052	597761	0	0
2024-09-05 09:52:47			0	36686	0	0	0	28018	26640	159362	26928	1075268	47031	110402	0	0	8052	597351	0	0
2024-09-05 09:53:47			0	36685	0	0	0	27994	26640	159206	27331	1075295	47020	110393	0	0	8052	597392	0	0
2024-09-05 09:54:47			0	36740	0	0	0	27994	26630	159246	27076	1075214	47007	110393	0	0	8056	595174	0	0
2024-09-05 09:55:47			0	36748	0	0	0	27992	26640	159050	26960	1075178	47008	110392	0	0	8056	594813	0	0
2024-09-05 09:56:47			0	36768	0	0	0	27989	26620	158994	26896	1075232	47029	110391	0	0	8057	594064	0	0
2024-09-05 09:57:47			0	36796	0	0	0	27997	26610	158858	26915	1075133	47017	110394	0	0	8059	592955	0	0
2024-09-05 09:58:47			0	36797	0	0	0	27992	26610	158958	26767	1075133	47017	110392	0	0	8059	592914	0	0
2024-09-05 09:59:47			0	36787	0	0	0	27994	26610	158918	26913	1075160	47028	110393	0	0	8058	593322	0	0
2024-09-05 10:00:47			0	36774	0	0	0	27984	26610	159002	26864	1075124	47039	110389	0	0	8058	593853	0	0
2024-09-05 10:01:47			0	36753	0	0	0	27893	26600	159074	26981	1075115	47027	110354	0	0	8058	594745	0	0
2024-09-05 10:02:47			0	36755	0	0	0	27909	26600	159070	26916	1074998	47026	110360	0	0	8058	594663	0	0
2024-09-05 10:03:47			0	36729	0	0	0	27950	26600	159310	27001	1074971	47003	110376	0	0	8056	595726	0	0
2024-09-05 10:04:47			0	36690	0	0	0	27932	26590	159334	27008	1075016	47003	110369	0	0	8054	597358	0	0
2024-09-05 10:05:47			0	36669	0	0	0	27838	26590	159358	27144	1074935	47026	110333	0	0	8054	598219	0	0
2024-09-05 10:06:47			0	36645	0	0	0	27836	26590	159446	26975	1074953	47015	110332	0	0	8053	599205	0	0
2024-09-05 10:07:47			0	36632	0	0	0	27768	26580	159590	27067	1074837	47025	110306	0	0	8053	599773	0	0
2024-09-05 10:08:47			0	36614	0	0	0	27763	26560	159570	27003	1074666	46990	110304	0	0	8052	600582	0	0
2024-09-05 10:09:47			0	36602	0	0	0	27711	26540	159690	26856	1074469	46976	110284	0	0	8052	601145	0	0
2024-09-05 10:10:47			0	36573	0	0	0	27735	26520	159873	26686	1074432	46953	110293	0	0	8050	602409	0	0
2024-09-05 10:11:47			0	36553	0	0	0	27716	26500	159937	27095	1074342	46984	110286	0	0	8049	603303	0	0
2024-09-05 10:12:47			0	36558	0	0	0	27784	26490	160077	26807	1074235	46970	110312	0	0	8048	603131	0	0
2024-09-05 10:13:47			0	36530	0	0	0	27820	26470	160149	26982	1074315	47001	110326	0	0	8045	604357	0	0
2024-09-05 10:14:47			0	36546	0	0	0	27779	26470	160129	26953	1074369	47001	110310	0	0	8047	603696	0	0
2024-09-05 10:15:47			0	36521	0	0	0	27802	26480	160209	27072	1074405	46992	110319	0	0	8045	604694	0	0
2024-09-05 10:16:47			0	36512	0	0	0	27784	26460	160233	27121	1074377	47000	110312	0	0	8045	605136	0	0
2024-09-05 10:17:47			0	36518	0	0	0	27924	26460	160257	27001	1074350	47012	110366	0	0	8043	604887	0	0
2024-09-05 10:18:47			0	36465	0	0	0	27916	26470	160569	26972	1074521	47024	110363	0	0	8040	607048	0	0
2024-09-05 10:19:47			0	36441	0	0	0	27880	26490	160541	26816	1074584	47038	110349	0	0	8039	607974	0	0
2024-09-05 10:20:47			0	36430	0	0	0	27875	26500	160621	26979	1074575	47039	110347	0	0	8039	608396	0	0
2024-09-05 10:21:47			0	36447	0	0	0	27885	26490	160605	26935	1074647	47048	110351	0	0	8039	607725	0	0
2024-09-05 10:22:47			0	36462	0	0	0	27849	26500	160537	26889	1074611	47028	110337	0	0	8041	607068	0	0
2024-09-05 10:23:47			0	36417	0	0	0	27851	26490	160641	27237	1074512	46993	110338	0	0	8038	608970	0	0
2024-09-05 10:24:47			0	36403	0	0	0	27864	26500	160773	26790	1074530	47006	110343	0	0	8037	609517	0	0
2024-09-05 10:25:47			0	36382	0	0	0	27888	26500	160873	26661	1074521	47005	110352	0	0	8035	610391	0	0
2024-09-05 10:26:47			0	36377	0	0	0	27898	26500	160861	26942	1074548	47016	110356	0	0	8035	610599	0	0
2024-09-05 10:27:47			0	36359	0	0	0	27877	26500	161069	27007	1074521	47016	110348	0	0	8034	611349	0	0
2024-09-05 10:28:47			0	36339	0	0	0	27867	26500	161085	26930	1074548	47016	110344	0	0	8033	612182	0	0
2024-09-05 10:29:47			0	36372	0	0	0	27890	26500	160985	27067	1074584	47006	110353	0	0	8035	610807	0	0
2024-09-05 10:30:47			0	36358	0	0	0	27924	26490	161113	27241	1074611	47004	110366	0	0	8033	611425	0	0
2024-09-05 10:31:47			0	36355	0	0	0	27893	26500	160933	27144	1074494	47016	110354	0	0	8034	611515	0	0
2024-09-05 10:32:47			0	36379	0	0	0	27854	26490	160913	27185	1074566	46993	110339	0	0	8036	610551	0	0
2024-09-05 10:33:47			0	36406	0	0	0	27854	26490	160797	27258	1074485	47004	110339	0	0	8037	609428	0	0
2024-09-05 10:34:47			0	36411	0	0	0	27836	26480	160717	27088	1074440	46992	110332	0	0	8038	609255	0	0
2024-09-05 10:35:47			0	36452	0	0	0	27823	26480	160637	27053	1074351	46969	110327	0	0	8041	607552	0	0
2024-09-05 10:36:47			0	36461	0	0	0	27831	26480	160517	27225	1074351	47014	110330	0	0	8041	607179	0	0
2024-09-05 10:37:47			0	36459	0	0	0	27867	26460	160537	26873	1074270	47000	110344	0	0	8040	607331	0	0
2024-09-05 10:38:47			0	36483	0	0	0	27849	26450	160525	27306	1074306	47011	110337	0	0	8042	606371	0	0
2024-09-05 10:39:47			0	36489	0	0	0	27851	26470	160441	27105	1074333	47013	110338	0	0	8042	606053	0	0
2024-09-05 10:40:47			0	36492	0	0	0	27833	26460	160481	27166	1074341	47000	110331	0	0	8043	605963	0	0
2024-09-05 10:41:47			0	36495	0	0	0	27846	26460	160401	26817	1074395	47023	110336	0	0	8043	605839	0	0
2024-09-05 10:42:47			0	36507	0	0	0	27859	26460	160341	27211	1074368	47012	110341	0	0	8043	605343	0	0
2024-09-05 10:43:47			0	36510	0	0	0	27903	26460	160517	27097	1074368	47012	110358	0	0	8043	605218	0	0
2024-09-05 10:44:47			0	36503	0	0	0	27906	26470	160385	26949	1074467	47024	110359	0	0	8042	605474	0	0
2024-09-05 10:45:47			0	36532	0	0	0	27872	26470	160405	27145	1074476	47024	110346	0	0	8045	604274	0	0
2024-09-05 10:46:47			0	36546	0	0	0	27807	26460	160261	27085	1074431	47000	110321	0	0	8046	603730	0	0
2024-09-05 10:47:47			0	36561	0	0	0	27789	26470	160237	27017	1074315	47001	110314	0	0	8048	603076	0	0
2024-09-05 10:48:47			0	36550	0	0	0	27807	26450	160101	27039	1074216	46989	110321	0	0	8047	603599	0	0
2024-09-05 10:49:47			0	36546	0	0	0	27810	26450	160133	27124	1074243	46989	110322	0	0	8046	603765	0	0
2024-09-05 10:50:47			0	36542	0	0	0	27771	26430	160381	27059	1074135	46987	110307	0	0	8047	603999	0	0
2024-09-05 10:51:47			0	36536	0	0	0	27812	26430	160285	27098	1074153	46975	110323	0	0	8046	604247	0	0
2024-09-05 10:52:47			0	36539	0	0	0	27849	26420	160253	26870	1074198	47008	110337	0	0	8045	604157	0	0
2024-09-05 10:53:47			0	36555	0	0	0	27880	26430	160253	26939	1074323	47031	110349	0	0	8046	603462	0	0
2024-09-05 10:54:47			0	36542	0	0	0	27802	26430	160221	26715	1074269	46998	110319	0	0	8046	603999	0	0
2024-09-05 10:55:47			0	36525	0	0	0	27742	26430	160213	26774	1074189	47009	110296	0	0	8046	604702	0	0
2024-09-05 10:56:47			0	36521	0	0	0	27758	26410	160381	26665	1074072	46996	110302	0	0	8046	604936	0	0
2024-09-05 10:57:47			0	36514	0	0	0	27740	26400	160437	27168	1073973	46995	110295	0	0	8045	605260	0	0
2024-09-05 10:58:47			0	36514	0	0	0	27735	26400	160457	27074	1073964	46983	110293	0	0	8045	605260	0	0
2024-09-05 10:59:47			0	36505	0	0	0	27748	26390	160469	27371	1073955	46994	110298	0	0	8045	605668	0	0
2024-09-05 11:00:47			0	36493	0	0	0	27750	26380	160517	26856	1073955	46970	110299	0	0	8044	606199	0	0
2024-09-05 11:01:47			0	36494	0	0	0	27740	26390	160517	27057	1073946	46982	110295	0	0	8044	606123	0	0
2024-09-05 11:02:47			0	36491	0	0	0	27740	26380	160565	26776	1073820	46970	110295	0	0	8044	606282	0	0
2024-09-05 11:03:47			0	36477	0	0	0	27709	26370	160721	27029	1073865	47002	110283	0	0	8044	606897	0	0
2024-09-05 11:04:47			0	36471	0	0	0	27716	26360	160625	26932	1073766	46980	110286	0	0	8043	607180	0	0
2024-09-05 11:05:47			0	36466	0	0	0	27716	26350	160657	27060	1073703	46990	110286	0	0	8043	607423	0	0
2024-09-05 11:06:47			0	36458	0	0	0	27683	26340	160653	26805	1073703	46977	110273	0	0	8043	607789	0	0
2024-09-05 11:07:47			0	36465	0	0	0	27690	26340	160725	26833	1073631	46978	110276	0	0	8043	607499	0	0
2024-09-05 11:08:47			0	36465	0	0	0	27703	26330	160765	27098	1073604	46987	110281	0	0	8043	607533	0	0
2024-09-05 11:09:47			0	36456	0	0	0	27711	26330	160881	26847	1073640	47000	110284	0	0	8042	607907	0	0
2024-09-05 11:10:47			0	36441	0	0	0	27698	26320	160781	27069	1073667	46998	110279	0	0	8041	608565	0	0
2024-09-05 11:11:47			0	36448	0	0	0	27690	26310	160733	26977	1073631	46998	110276	0	0	8042	608309	0	0
2024-09-05 11:12:47			0	36450	0	0	0	27685	26320	160753	27260	1073613	46998	110274	0	0	8042	608191	0	0
2024-09-05 11:13:47			0	36422	0	0	0	27662	26310	160825	27012	1073523	46986	110265	0	0	8041	609389	0	0
2024-09-05 11:14:47			0	36450	0	0	0	27693	26300	160749	27048	1073496	46973	110277	0	0	8042	608260	0	0
2024-09-05 11:15:47			0	36451	0	0	0	27729	26300	160721	26913	1073657	46996	110291	0	0	8041	608219	0	0
2024-09-05 11:16:47			0	36428	0	0	0	27698	26300	160873	27116	1073631	46996	110279	0	0	8040	609175	0	0
2024-09-05 11:17:47			0	36444	0	0	0	27703	26300	160741	26833	1073613	47006	110281	0	0	8041	608510	0	0
2024-09-05 11:18:47			0	36443	0	0	0	27675	26310	160857	27076	1073604	46998	110270	0	0	8042	608516	0	0
2024-09-05 11:19:47			0	36431	0	0	0	27722	26300	160925	27121	1073478	46984	110288	0	0	8040	609050	0	0
2024-09-05 11:20:47			0	36439	0	0	0	27714	26300	160957	27088	1073640	46984	110285	0	0	8041	608717	0	0
2024-09-05 11:21:47			0	36422	0	0	0	27672	26300	160913	27069	1073586	46996	110269	0	0	8041	609424	0	0
2024-09-05 11:22:47			0	36415	0	0	0	27677	26300	161053	27001	1073496	46984	110271	0	0	8040	609715	0	0
2024-09-05 11:23:47			0	36405	0	0	0	27638	26300	161021	27064	1073469	46984	110256	0	0	8040	610131	0	0
2024-09-05 11:24:47			0	36415	0	0	0	27651	26280	160997	27029	1073406	46982	110261	0	0	8040	609785	0	0
2024-09-05 11:25:47			0	36403	0	0	0	27670	26280	160993	26927	1073406	46971	110268	0	0	8039	610284	0	0
2024-09-05 11:26:47			0	36411	0	0	0	27662	26280	161029	26785	1073415	47004	110265	0	0	8040	609951	0	0
2024-09-05 11:27:47			0	36401	0	0	0	27670	26280	160993	27111	1073388	46982	110268	0	0	8039	610368	0	0
2024-09-05 11:28:47			0	36394	0	0	0	27657	26270	161029	27123	1073442	46981	110263	0	0	8039	610694	0	0
2024-09-05 11:29:47			0	36401	0	0	0	27651	26270	161001	26859	1073424	46994	110261	0	0	8039	610402	0	0
2024-09-05 11:30:47			0	36390	0	0	0	27662	26260	161077	26885	1073352	46992	110265	0	0	8039	610895	0	0
2024-09-05 11:31:47			0	36385	0	0	0	27683	26260	161153	27220	1073406	47002	110273	0	0	8038	611104	0	0
2024-09-05 11:32:47			0	36398	0	0	0	27654	26260	161009	27001	1073379	46992	110262	0	0	8039	610562	0	0
2024-09-05 11:33:47			0	36410	0	0	0	27646	26260	161073	26937	1073325	46980	110259	0	0	8040	610063	0	0
2024-09-05 11:34:47			0	36396	0	0	0	27594	26260	161001	27177	1073289	47002	110239	0	0	8040	610646	0	0
2024-09-05 11:35:47			0	36376	0	0	0	27605	26250	161073	27227	1073191	46957	110243	0	0	8039	611514	0	0
2024-09-05 11:36:47			0	36386	0	0	0	27612	26240	161161	26708	1073173	46977	110246	0	0	8039	611132	0	0
2024-09-05 11:37:47			0	36387	0	0	0	27628	26240	161065	26656	1073199	46966	110252	0	0	8039	611090	0	0
2024-09-05 11:38:47			0	36395	0	0	0	27612	26230	161085	26833	1073137	46989	110246	0	0	8040	610792	0	0
2024-09-05 11:39:47			0	36387	0	0	0	27586	26230	161153	26646	1073181	46966	110236	0	0	8040	611125	0	0
2024-09-05 11:40:47			0	36400	0	0	0	27594	26230	161077	26615	1073137	46977	110239	0	0	8040	610583	0	0
2024-09-05 11:41:47			0	36392	0	0	0	27592	26230	161141	26831	1073128	46977	110238	0	0	8040	610917	0	0
2024-09-05 11:42:47			0	36387	0	0	0	27586	26220	161045	26883	1073083	46975	110236	0	0	8039	611160	0	0
2024-09-05 11:43:47			0	36393	0	0	0	27599	26220	161145	26739	1073038	46976	110241	0	0	8040	610910	0	0
2024-09-05 11:44:47			0	36396	0	0	0	27625	26210	161021	26811	1073101	46975	110251	0	0	8039	610820	0	0
2024-09-05 11:45:47			0	36415	0	0	0	27584	26210	160973	26719	1073074	46998	110235	0	0	8041	610029	0	0
2024-09-05 11:46:47			0	36393	0	0	0	27568	26210	161013	26589	1073047	46986	110229	0	0	8040	610945	0	0
2024-09-05 11:47:47			0	36398	0	0	0	27589	26200	160981	26641	1072993	46973	110237	0	0	8040	610772	0	0
2024-09-05 11:48:47			0	36400	0	0	0	27592	26210	161049	26875	1073011	46975	110238	0	0	8040	610653	0	0
2024-09-05 11:49:47			0	36409	0	0	0	27571	26200	160997	27163	1072939	46973	110230	0	0	8041	610313	0	0
2024-09-05 11:50:47			0	36402	0	0	0	27584	26200	161093	26835	1072921	46974	110235	0	0	8040	610605	0	0
2024-09-05 11:51:47			0	36410	0	0	0	27592	26190	161025	26831	1072957	46984	110238	0	0	8041	610307	0	0
2024-09-05 11:52:47			0	36406	0	0	0	27576	26190	161097	26620	1072957	46984	110232	0	0	8041	610473	0	0
2024-09-05 11:53:47			0	36437	0	0	0	27581	26200	160997	26989	1072993	47006	110234	0	0	8042	609148	0	0
2024-09-05 11:54:47			0	36415	0	0	0	27586	26190	161041	26871	1072975	46984	110236	0	0	8041	610098	0	0
2024-09-05 11:55:47			0	36408	0	0	0	27581	26170	160989	26861	1072867	46993	110234	0	0	8041	610459	0	0
2024-09-05 11:56:47			0	36414	0	0	0	27581	26190	161125	27332	1072975	46973	110234	0	0	8041	610140	0	0
2024-09-05 11:57:47			0	36402	0	0	0	27597	26180	161105	27175	1072993	46983	110240	0	0	8040	610675	0	0
2024-09-05 11:58:47			0	36413	0	0	0	27589	26180	160985	27118	1072939	46983	110237	0	0	8041	610216	0	0
2024-09-05 11:59:47			0	36423	0	0	0	27586	26190	161013	27145	1072957	46973	110236	0	0	8041	609765	0	0
2024-09-05 12:00:47			0	36437	0	0	0	27586	26190	161077	26904	1072957	46996	110236	0	0	8042	609183	0	0
2024-09-05 12:01:47			0	36420	0	0	0	27568	26190	161117	26972	1072948	46996	110229	0	0	8042	609890	0	0
2024-09-05 12:02:47			0	36398	0	0	0	27566	26180	161125	26894	1072939	46983	110228	0	0	8040	610841	0	0
2024-09-05 12:03:47			0	36390	0	0	0	27561	26170	161213	27234	1072867	46981	110226	0	0	8040	611209	0	0
2024-09-05 12:04:47			0	36408	0	0	0	27571	26180	161217	27180	1072912	46972	110230	0	0	8041	610425	0	0
2024-09-05 12:05:47			0	36419	0	0	0	27584	26170	161181	27223	1072921	46970	110235	0	0	8041	610001	0	0
2024-09-05 12:06:47			0	36403	0	0	0	27571	26180	161189	27121	1072903	46982	110230	0	0	8040	610633	0	0
2024-09-05 12:07:47			0	36406	0	0	0	27574	26180	161081	27164	1072903	46982	110231	0	0	8041	610508	0	0
2024-09-05 12:08:47			0	36404	0	0	0	27561	26180	161161	27064	1072957	46982	110226	0	0	8041	610591	0	0
2024-09-05 12:09:47			0	36396	0	0	0	27563	26170	161285	26871	1072894	46993	110227	0	0	8040	610959	0	0
2024-09-05 12:10:47			0	36381	0	0	0	27566	26170	161181	27083	1072921	46993	110228	0	0	8039	611585	0	0
2024-09-05 12:11:47			0	36392	0	0	0	27566	26170	161233	26974	1072894	46981	110228	0	0	8040	611126	0	0
2024-09-05 12:12:47			0	36387	0	0	0	27566	26180	161233	27095	1072903	46982	110228	0	0	8040	611299	0	0
2024-09-05 12:13:47			0	36377	0	0	0	27561	26170	161257	27260	1072831	46970	110226	0	0	8039	611751	0	0
2024-09-05 12:14:47			0	36366	0	0	0	27555	26170	161321	27150	1072831	46970	110224	0	0	8038	612210	0	0
2024-09-05 12:15:47			0	36365	0	0	0	27558	26160	161389	27377	1072893	46969	110225	0	0	8038	612287	0	0
2024-09-05 12:16:47			0	36383	0	0	0	27555	26170	161297	27249	1072858	46970	110224	0	0	8040	611501	0	0
2024-09-05 12:17:47			0	36375	0	0	0	27550	26170	161361	26896	1072777	46981	110222	0	0	8039	611835	0	0
2024-09-05 12:18:47			0	36387	0	0	0	27558	26160	161293	27178	1072795	46981	110225	0	0	8040	611369	0	0
2024-09-05 12:19:47			0	36382	0	0	0	27558	26150	161197	27251	1072804	46968	110225	0	0	8039	611613	0	0
2024-09-05 12:20:47			0	36391	0	0	0	27553	26160	161169	27010	1072840	46980	110223	0	0	8040	611203	0	0
2024-09-05 12:21:47			0	36407	0	0	0	27555	26170	161173	27225	1072831	46970	110224	0	0	8041	610501	0	0
2024-09-05 12:22:47			0	36414	0	0	0	27545	26160	161133	26842	1072795	46981	110220	0	0	8041	610244	0	0
2024-09-05 12:23:47			0	36411	0	0	0	27548	26150	161149	27140	1072831	46979	110221	0	0	8041	610404	0	0
2024-09-05 12:24:47			0	36409	0	0	0	27537	26150	161181	27010	1072714	46979	110217	0	0	8041	610488	0	0
2024-09-05 12:25:47			0	36413	0	0	0	27545	26150	161113	27022	1072750	46979	110220	0	0	8041	610321	0	0
2024-09-05 12:26:47			0	36449	0	0	0	27548	26150	161061	27074	1072768	46968	110221	0	0	8043	608823	0	0
2024-09-05 12:27:47			0	36458	0	0	0	27540	26150	160973	26939	1072741	46958	110218	0	0	8044	608449	0	0
2024-09-05 12:28:47			0	36478	0	0	0	27540	26160	160969	27284	1072768	46981	110218	0	0	8045	607584	0	0
2024-09-05 12:29:47			0	36475	0	0	0	27550	26150	160905	27180	1072750	46991	110222	0	0	8045	607743	0	0
2024-09-05 12:30:47			0	36494	0	0	0	27563	26150	160937	27017	1072804	46979	110227	0	0	8046	606955	0	0
2024-09-05 12:31:47			0	36494	0	0	0	27563	26150	160785	27334	1072777	46979	110227	0	0	8046	606955	0	0
2024-09-05 12:32:47			0	36496	0	0	0	27550	26150	160825	26949	1072795	46979	110222	0	0	8046	606872	0	0
2024-09-05 12:33:47			0	36489	0	0	0	27529	26160	160737	27019	1072822	46970	110214	0	0	8046	607127	0	0
2024-09-05 12:34:47			0	36500	0	0	0	27540	26150	160745	26956	1072723	47001	110218	0	0	8047	606706	0	0
2024-09-05 12:35:47			0	36486	0	0	0	27535	26140	160777	27303	1072705	46979	110216	0	0	8046	607321	0	0
2024-09-05 12:36:47			0	36504	0	0	0	27527	26140	160697	27166	1072732	46979	110213	0	0	8047	606574	0	0
2024-09-05 12:37:47			0	36519	0	0	0	27527	26140	160709	27055	1072723	46957	110213	0	0	8048	605953	0	0
2024-09-05 12:38:47			0	36549	0	0	0	27519	26130	160665	27039	1072687	46966	110210	0	0	8050	604745	0	0
2024-09-05 12:39:47			0	36577	0	0	0	27506	26140	160585	26878	1072669	46967	110205	0	0	8052	603553	0	0
2024-09-05 12:40:47			0	36583	0	0	0	27503	26150	160405	27152	1072634	46968	110204	0	0	8052	603270	0	0
2024-09-05 12:41:47			0	36613	0	0	0	27503	26130	160398	27208	1072633	46966	110204	0	0	8054	602101	0	0
2024-09-05 12:42:47			0	36609	0	0	0	27509	26120	160462	26717	1072588	46989	110206	0	0	8054	602300	0	0
2024-09-05 12:43:47			0	36591	0	0	0	27501	26120	160565	27206	1072588	46977	110203	0	0	8053	603043	0	0
2024-09-05 12:44:47			0	36598	0	0	0	27496	26120	160498	26932	1072642	46977	110201	0	0	8053	602754	0	0
2024-09-05 12:45:47			0	36594	0	0	0	27524	26120	160494	27159	1072633	46965	110212	0	0	8052	602919	0	0
2024-09-05 12:46:47			0	36601	0	0	0	27488	26120	160502	27133	1072526	46976	110198	0	0	8053	602630	0	0
2024-09-05 12:47:47			0	36594	0	0	0	27488	26110	160513	27145	1072543	46964	110198	0	0	8053	602954	0	0
2024-09-05 12:48:47			0	36601	0	0	0	27485	26120	160546	27182	1072553	46965	110197	0	0	8054	602630	0	0
2024-09-05 12:49:47			0	36606	0	0	0	27488	26120	160386	27131	1072579	46965	110198	0	0	8054	602424	0	0
2024-09-05 12:50:47			0	36604	0	0	0	27498	26100	160486	27229	1072499	46974	110202	0	0	8053	602575	0	0
2024-09-05 12:51:47			0	36617	0	0	0	27496	26100	160418	27286	1072579	46974	110201	0	0	8054	602039	0	0
2024-09-05 12:52:47			0	36624	0	0	0	27568	26100	160426	27121	1072606	46974	110229	0	0	8053	601750	0	0
2024-09-05 12:53:47			0	36619	0	0	0	27519	26120	160386	27164	1072660	47009	110210	0	0	8054	601888	0	0
2024-09-05 12:54:47			0	36611	0	0	0	27511	26110	160450	26968	1072615	46986	110207	0	0	8054	602252	0	0
2024-09-05 12:55:47			0	36608	0	0	0	27503	26120	160458	27121	1072642	46989	110204	0	0	8054	602341	0	0
2024-09-05 12:56:47			0	36621	0	0	0	27506	26110	160326	27027	1072588	46963	110205	0	0	8054	601840	0	0
2024-09-05 12:57:47			0	36612	0	0	0	27496	26120	160398	27031	1072579	46976	110201	0	0	8054	602176	0	0
2024-09-05 12:58:47			0	36599	0	0	0	27555	26110	160406	27334	1072570	46975	110224	0	0	8052	602747	0	0
2024-09-05 12:59:47			0	36627	0	0	0	27636	26110	160438	27253	1072705	46987	110255	0	0	8052	601592	0	0
2024-09-05 13:00:47			0	36627	0	0	0	27581	26130	160410	26998	1072794	47000	110234	0	0	8053	601523	0	0
2024-09-05 13:01:47			0	36644	0	0	0	27545	26130	160370	26889	1072768	47000	110220	0	0	8055	600823	0	0
2024-09-05 13:02:47			0	36630	0	0	0	27597	26140	160474	27045	1072786	46991	110240	0	0	8053	601365	0	0
2024-09-05 13:03:47			0	36627	0	0	0	27584	26140	160326	26965	1072893	46991	110235	0	0	8053	601489	0	0
2024-09-05 13:04:47			0	36628	0	0	0	27618	26150	160430	26644	1072884	47001	110248	0	0	8053	601414	0	0
2024-09-05 13:05:47			0	36639	0	0	0	27568	26150	160350	27024	1072965	46979	110229	0	0	8055	600960	0	0
2024-09-05 13:06:47			0	36633	0	0	0	27592	26170	160266	26986	1072938	46993	110238	0	0	8054	601139	0	0
2024-09-05 13:07:47			0	36640	0	0	0	27566	26170	160190	26809	1072885	46981	110228	0	0	8055	600850	0	0
2024-09-05 13:08:47			0	36644	0	0	0	27612	26160	160162	26880	1072866	46969	110246	0	0	8054	600720	0	0
2024-09-05 13:09:47			0	36679	0	0	0	27584	26160	160050	27072	1072849	46993	110235	0	0	8057	599279	0	0
2024-09-05 13:10:47			0	36689	0	0	0	27550	26160	160038	26906	1072840	46992	110222	0	0	8058	598869	0	0
2024-09-05 13:11:47			0	36679	0	0	0	27566	26160	159906	26805	1072875	46970	110228	0	0	8057	599279	0	0
2024-09-05 13:12:47			0	36700	0	0	0	27574	26170	160010	27178	1072911	46981	110231	0	0	8058	598382	0	0
2024-09-05 13:13:47			0	36721	0	0	0	27594	26160	160086	27050	1072875	46993	110239	0	0	8059	597554	0	0
2024-09-05 13:14:47			0	36721	0	0	0	27576	26170	159938	26774	1072885	46970	110232	0	0	8059	597520	0	0
2024-09-05 13:15:47			0	36714	0	0	0	27535	26160	159898	27059	1072875	46970	110216	0	0	8060	597842	0	0
2024-09-05 13:16:47			0	36724	0	0	0	27594	26170	159990	26844	1072885	46993	110239	0	0	8059	597397	0	0
2024-09-05 13:17:47			0	36696	0	0	0	27620	26170	159986	27050	1072921	46981	110249	0	0	8057	598547	0	0
2024-09-05 13:18:47			0	36685	0	0	0	27620	26170	160002	27126	1072975	46993	110249	0	0	8056	598999	0	0
2024-09-05 13:19:47			0	36700	0	0	0	27625	26180	159966	27263	1073073	46983	110251	0	0	8057	598348	0	0
2024-09-05 13:20:47			0	36691	0	0	0	27615	26180	159974	27102	1073046	46995	110247	0	0	8057	598718	0	0
2024-09-05 13:21:47			0	36709	0	0	0	27623	26190	160130	26968	1073055	46996	110250	0	0	8058	597944	0	0
2024-09-05 13:22:47			0	36704	0	0	0	27644	26200	159946	27024	1073100	47006	110258	0	0	8057	598116	0	0
2024-09-05 13:23:47			0	36720	0	0	0	27625	26190	159954	26757	1073109	47006	110251	0	0	8059	597493	0	0
2024-09-05 13:24:47			0	36715	0	0	0	27623	26200	159922	27161	1073109	46974	110250	0	0	8058	597664	0	0
2024-09-05 13:25:47			0	36709	0	0	0	27628	26210	159882	27031	1073101	46998	110252	0	0	8058	597876	0	0
2024-09-05 13:26:47			0	36725	0	0	0	27651	26210	159866	26981	1073145	47008	110261	0	0	8059	597220	0	0
2024-09-05 13:27:47			0	36741	0	0	0	27659	26210	159698	26734	1073235	46975	110264	0	0	8059	596563	0	0
2024-09-05 13:28:47			0	36756	0	0	0	27649	26220	159770	26739	1073226	46999	110260	0	0	8060	595915	0	0
2024-09-05 13:29:47			0	36744	0	0	0	27662	26210	159774	26783	1073172	46986	110265	0	0	8059	596441	0	0
2024-09-05 13:30:47			0	36742	0	0	0	27677	26230	159790	26920	1073298	46989	110271	0	0	8059	596454	0	0
2024-09-05 13:31:47			0	36760	0	0	0	27662	26230	159842	27069	1073316	47000	110265	0	0	8061	595717	0	0
2024-09-05 13:32:47			0	36768	0	0	0	27672	26230	159670	27154	1073298	46989	110269	0	0	8061	595390	0	0
2024-09-05 13:33:47			0	36800	0	0	0	27672	26240	159546	27265	1073370	46978	110269	0	0	8063	594047	0	0
2024-09-05 13:34:47			0	36774	0	0	0	27693	26240	159490	26684	1073387	47000	110277	0	0	8061	595110	0	0
2024-09-05 13:35:47			0	36791	0	0	0	27711	26250	159430	26916	1073361	46991	110284	0	0	8062	594381	0	0
2024-09-05 13:36:47			0	36809	0	0	0	27685	26250	159486	26812	1073459	46991	110274	0	0	8063	593645	0	0
2024-09-05 13:37:47			0	36798	0	0	0	27672	26260	159490	26856	1073450	47002	110269	0	0	8063	594061	0	0
2024-09-05 13:38:47			0	36809	0	0	0	27703	26260	159510	26970	1073477	47002	110281	0	0	8063	593611	0	0
2024-09-05 13:39:47			0	36826	0	0	0	27649	26260	159334	26802	1073424	46980	110260	0	0	8065	592917	0	0
2024-09-05 13:40:47			0	36811	0	0	0	27641	26250	159374	26908	1073405	47001	110257	0	0	8064	593563	0	0
2024-09-05 13:41:47			0	36831	0	0	0	27615	26260	159402	27050	1073397	46980	110247	0	0	8066	592713	0	0
2024-09-05 13:42:47			0	36828	0	0	0	27610	26250	159366	27046	1073307	46979	110245	0	0	8066	592869	0	0
2024-09-05 13:43:47			0	36822	0	0	0	27644	26240	159302	27267	1073262	46967	110258	0	0	8065	593148	0	0
2024-09-05 13:44:47			0	36841	0	0	0	27664	26250	159354	27182	1073352	46979	110266	0	0	8065	592339	0	0
2024-09-05 13:45:47			0	36824	0	0	0	27662	26240	159382	27242	1073316	47000	110265	0	0	8064	593066	0	0
2024-09-05 13:46:47			0	36827	0	0	0	27693	26250	159474	27123	1073352	47001	110277	0	0	8064	592910	0	0
2024-09-05 13:47:47			0	36831	0	0	0	27701	26260	159446	27289	1073459	46992	110280	0	0	8064	592713	0	0
2024-09-05 13:48:47			0	36838	0	0	0	27672	26260	159330	27268	1073459	47002	110269	0	0	8065	592427	0	0
2024-09-05 13:49:47			0	36842	0	0	0	27698	26260	159302	27216	1073459	46992	110279	0	0	8065	592264	0	0
2024-09-05 13:50:47			0	36847	0	0	0	27688	26260	159298	27452	1073406	46992	110275	0	0	8065	592060	0	0
2024-09-05 13:51:47			0	36869	0	0	0	27633	26270	159110	27376	1073478	46994	110254	0	0	8068	591130	0	0
2024-09-05 13:52:47			0	36872	0	0	0	27599	26260	159098	27140	1073325	46992	110241	0	0	8068	591042	0	0
2024-09-05 13:53:47			0	36895	0	0	0	27620	26260	159054	27260	1073262	46958	110249	0	0	8069	590105	0	0
2024-09-05 13:54:47			0	36907	0	0	0	27628	26260	159018	27100	1073298	46969	110252	0	0	8070	589617	0	0
2024-09-05 13:55:47			0	36885	0	0	0	27662	26250	159006	27041	1073298	46979	110265	0	0	8068	590546	0	0
2024-09-05 13:56:47			0	36906	0	0	0	27657	26240	159050	27170	1073307	47000	110263	0	0	8069	589725	0	0
2024-09-05 13:57:47			0	36907	0	0	0	27688	26250	159090	26870	1073325	47001	110275	0	0	8069	589651	0	0
2024-09-05 13:58:47			0	36904	0	0	0	27683	26250	159038	26918	1073415	46991	110273	0	0	8069	589773	0	0
2024-09-05 13:59:47			0	36925	0	0	0	27685	26250	159026	27424	1073468	47001	110274	0	0	8070	588919	0	0
2024-09-05 14:00:47			0	36925	0	0	0	27696	26260	158906	27415	1073504	46992	110278	0	0	8070	588886	0	0
2024-09-05 14:01:47			0	36930	0	0	0	27711	26270	158930	27105	1073504	47004	110284	0	0	8070	588649	0	0
2024-09-05 14:02:47			0	36929	0	0	0	27657	26270	158786	27537	1073558	47004	110263	0	0	8071	588690	0	0
2024-09-05 14:03:47			0	36946	0	0	0	27680	26260	158894	27157	1073513	47002	110272	0	0	8071	588033	0	0
2024-09-05 14:04:47			0	36965	0	0	0	27670	26280	158850	27514	1073496	46994	110268	0	0	8073	587195	0	0
2024-09-05 14:05:47			0	36961	0	0	0	27651	26280	158730	27166	1073540	46982	110261	0	0	8073	587357	0	0
2024-09-05 14:06:47			0	36968	0	0	0	27690	26270	158694	27460	1073478	46994	110276	0	0	8073	587107	0	0
2024-09-05 14:07:47			0	36970	0	0	0	27711	26280	158626	27398	1073513	46994	110284	0	0	8072	586992	0	0
2024-09-05 14:08:47			0	36955	0	0	0	27706	26280	158678	27291	1073540	46994	110282	0	0	8072	587601	0	0
2024-09-05 14:09:47			0	36972	0	0	0	27698	26280	158598	27409	1073523	47004	110279	0	0	8073	586911	0	0
2024-09-05 14:10:47			0	36985	0	0	0	27701	26280	158654	27112	1073487	46994	110280	0	0	8073	586384	0	0
2024-09-05 14:11:47			0	36975	0	0	0	27735	26290	158702	27493	1073612	46995	110293	0	0	8072	586756	0	0
2024-09-05 14:12:47			0	36971	0	0	0	27737	26290	158758	27353	1073729	47006	110294	0	0	8072	586918	0	0
2024-09-05 14:13:47			0	36955	0	0	0	27742	26290	158722	27159	1073648	46996	110296	0	0	8071	587567	0	0
2024-09-05 14:14:47			0	36944	0	0	0	27724	26300	158746	27405	1073693	46973	110289	0	0	8071	587980	0	0
2024-09-05 14:15:47			0	36962	0	0	0	27711	26310	158746	27057	1073765	46998	110284	0	0	8072	587216	0	0
2024-09-05 14:16:47			0	36969	0	0	0	27706	26310	158646	27350	1073658	46998	110282	0	0	8073	586932	0	0
2024-09-05 14:17:47			0	36973	0	0	0	27716	26300	158662	27138	1073693	46984	110286	0	0	8073	586804	0	0
2024-09-05 14:18:47			0	36965	0	0	0	27729	26310	158670	27170	1073676	46997	110291	0	0	8072	587094	0	0
2024-09-05 14:19:47			0	36961	0	0	0	27735	26310	158726	27177	1073702	46985	110293	0	0	8072	587257	0	0
2024-09-05 14:20:47			0	36954	0	0	0	27745	26310	158702	27402	1073729	46997	110297	0	0	8071	587541	0	0
2024-09-05 14:21:47			0	36963	0	0	0	27748	26320	158730	27320	1073783	46999	110298	0	0	8072	587142	0	0
2024-09-05 14:22:47			0	36945	0	0	0	27742	26310	158762	27566	1073756	46997	110296	0	0	8071	587906	0	0
2024-09-05 14:23:47			0	36937	0	0	0	27750	26310	158810	27097	1073792	46986	110299	0	0	8070	588230	0	0
2024-09-05 14:24:47			0	36928	0	0	0	27753	26320	158838	27267	1073837	47009	110300	0	0	8069	588562	0	0
2024-09-05 14:25:47			0	36913	0	0	0	27763	26320	158866	27249	1073828	46998	110304	0	0	8068	589172	0	0
2024-09-05 14:26:47			0	36919	0	0	0	27763	26330	158950	27459	1073846	46999	110304	0	0	8069	588894	0	0
2024-09-05 14:27:47			0	36901	0	0	0	27761	26330	158918	27306	1073828	47000	110303	0	0	8068	589625	0	0
2024-09-05 14:28:47			0	36888	0	0	0	27761	26340	158922	27274	1073927	47000	110303	0	0	8067	590120	0	0
2024-09-05 14:29:47			0	36889	0	0	0	27753	26340	158902	27307	1073873	47000	110300	0	0	8067	590080	0	0
2024-09-05 14:30:47			0	36899	0	0	0	27753	26340	158898	27315	1073927	46989	110300	0	0	8068	589673	0	0
2024-09-05 14:31:47			0	36922	0	0	0	27766	26340	158782	27249	1073891	47010	110305	0	0	8069	588738	0	0
2024-09-05 14:32:47			0	36904	0	0	0	27768	26350	158938	27072	1073972	46990	110306	0	0	8068	589436	0	0
2024-09-05 14:33:47			0	36893	0	0	0	27763	26360	158846	27031	1073927	46991	110304	0	0	8067	589850	0	0
2024-09-05 14:34:47			0	36886	0	0	0	27773	26350	158906	27152	1073882	46989	110308	0	0	8067	590168	0	0
2024-09-05 14:35:47			0	36899	0	0	0	27773	26350	158966	26930	1073882	47000	110308	0	0	8067	589640	0	0
2024-09-05 14:36:47			0	36865	0	0	0	27773	26350	158962	27199	1073918	47001	110308	0	0	8065	591023	0	0
2024-09-05 14:37:47			0	36872	0	0	0	27763	26370	158946	27189	1073990	47002	110304	0	0	8066	590670	0	0
2024-09-05 14:38:47			0	36891	0	0	0	27768	26360	159010	26949	1073954	46991	110306	0	0	8067	589931	0	0
2024-09-05 14:39:47			0	36877	0	0	0	27776	26370	159098	27156	1073963	47002	110309	0	0	8066	590467	0	0
2024-09-05 14:40:47			0	36871	0	0	0	27781	26360	159054	27209	1074008	46980	110311	0	0	8066	590745	0	0
2024-09-05 14:41:47			0	36861	0	0	0	27786	26370	159018	27140	1073946	47002	110313	0	0	8065	591118	0	0
2024-09-05 14:42:47			0	36858	0	0	0	27773	26370	159098	27178	1073972	47013	110308	0	0	8065	591240	0	0
2024-09-05 14:43:47			0	36855	0	0	0	27786	26360	159170	27220	1073981	46991	110313	0	0	8065	591396	0	0
2024-09-05 14:44:47			0	36861	0	0	0	27781	26370	159038	26674	1073946	46991	110311	0	0	8065	591118	0	0
2024-09-05 14:45:47			0	36870	0	0	0	27779	26370	158878	26948	1073999	47013	110310	0	0	8066	590752	0	0
2024-09-05 14:46:47			0	36853	0	0	0	27784	26370	159002	27041	1074026	47024	110312	0	0	8065	591444	0	0
2024-09-05 14:47:47			0	36857	0	0	0	27784	26380	159002	27275	1074035	47003	110312	0	0	8065	591247	0	0
2024-09-05 14:48:47			0	36855	0	0	0	27792	26380	159014	27312	1074071	47004	110315	0	0	8065	591329	0	0
2024-09-05 14:49:47			0	36858	0	0	0	27797	26380	159102	26993	1074098	47004	110317	0	0	8065	591206	0	0
2024-09-05 14:50:47			0	36854	0	0	0	27807	26390	159034	27175	1074080	47004	110321	0	0	8064	591336	0	0
2024-09-05 14:51:47			0	36867	0	0	0	27805	26380	158966	27331	1074098	47004	110320	0	0	8065	590840	0	0
2024-09-05 14:52:47			0	36866	0	0	0	27807	26380	158954	27476	1074044	46993	110321	0	0	8065	590881	0	0
2024-09-05 14:53:47			0	36893	0	0	0	27818	26390	159058	27409	1074107	47004	110325	0	0	8067	589749	0	0
2024-09-05 14:54:47			0	36853	0	0	0	27833	26400	159038	27211	1074152	46994	110331	0	0	8064	591343	0	0
2024-09-05 14:55:47			0	36852	0	0	0	27838	26400	159066	27410	1074179	47005	110333	0	0	8064	591383	0	0
2024-09-05 14:56:47			0	36842	0	0	0	27836	26400	159122	27457	1074188	47006	110332	0	0	8063	591791	0	0
2024-09-05 14:57:47			0	36833	0	0	0	27849	26410	159074	27329	1074170	47017	110337	0	0	8063	592124	0	0
2024-09-05 14:58:47			0	36837	0	0	0	27851	26420	159150	27229	1074305	47019	110338	0	0	8063	591927	0	0
2024-09-05 14:59:47			0	36819	0	0	0	27846	26420	159058	27265	1074269	47018	110336	0	0	8062	592661	0	0
2024-09-05 15:00:47			0	36853	0	0	0	27846	26420	159050	27547	1074322	46996	110336	0	0	8064	591275	0	0
2024-09-05 15:01:47			0	36839	0	0	0	27851	26430	159102	27284	1074260	46997	110338	0	0	8063	591812	0	0
2024-09-05 15:02:47			0	36876	0	0	0	27841	26430	159026	27369	1074323	47020	110334	0	0	8065	590305	0	0
2024-09-05 15:03:47			0	36901	0	0	0	27844	26430	158842	27256	1074287	47008	110335	0	0	8067	589289	0	0
2024-09-05 15:04:47			0	36918	0	0	0	27854	26420	158714	27384	1074305	46997	110339	0	0	8068	588632	0	0
2024-09-05 15:05:47			0	36946	0	0	0	27851	26430	158670	27216	1074350	47009	110338	0	0	8069	587462	0	0
2024-09-05 15:06:47			0	36942	0	0	0	27862	26440	158586	27241	1074386	47000	110342	0	0	8069	587591	0	0
2024-09-05 15:07:47			0	36941	0	0	0	27870	26440	158538	27396	1074386	47010	110345	0	0	8069	587631	0	0
2024-09-05 15:08:47			0	36971	0	0	0	27810	26440	158506	27424	1074332	47000	110322	0	0	8072	586415	0	0
2024-09-05 15:09:47			0	36977	0	0	0	27831	26430	158478	27642	1074314	47008	110330	0	0	8071	586206	0	0
2024-09-05 15:10:47			0	36990	0	0	0	27841	26430	158450	27355	1074341	46997	110334	0	0	8072	585680	0	0
2024-09-05 15:11:47			0	37010	0	0	0	27802	26430	158350	27452	1074314	46997	110319	0	0	8074	584871	0	0
2024-09-05 15:12:47			0	37042	0	0	0	27789	26430	158198	27355	1074260	46986	110314	0	0	8076	583578	0	0
2024-09-05 15:13:47			0	37047	0	0	0	27753	26440	158098	27362	1074278	46988	110300	0	0	8077	583343	0	0
2024-09-05 15:14:47			0	37087	0	0	0	27766	26410	158114	27355	1074152	46974	110305	0	0	8079	581830	0	0
2024-09-05 15:15:47			0	37106	0	0	0	27781	26410	157986	27372	1074116	46961	110311	0	0	8080	581065	0	0
2024-09-05 15:16:47			0	37131	0	0	0	27776	26400	157850	27232	1074054	46984	110309	0	0	8081	580092	0	0
2024-09-05 15:17:47			0	37139	0	0	0	27742	26410	157898	27802	1074116	46995	110296	0	0	8082	579737	0	0
2024-09-05 15:18:47			0	37165	0	0	0	27735	26390	157818	27341	1073955	46983	110293	0	0	8084	578759	0	0
2024-09-05 15:19:47			0	37203	0	0	0	27714	26380	157574	27177	1073901	46970	110285	0	0	8087	577268	0	0
2024-09-05 15:20:47			0	37223	0	0	0	27693	26360	157506	27429	1073847	46958	110277	0	0	8088	576532	0	0
2024-09-05 15:21:47			0	37255	0	0	0	27703	26370	157462	27126	1073856	46980	110281	0	0	8090	575219	0	0
2024-09-05 15:22:47			0	37269	0	0	0	27714	26350	157434	27131	1073748	46978	110285	0	0	8090	574725	0	0
2024-09-05 15:23:47			0	37269	0	0	0	27740	26350	157454	27402	1073775	47000	110295	0	0	8090	574725	0	0
2024-09-05 15:24:47			0	37272	0	0	0	27735	26340	157478	27346	1073819	47000	110293	0	0	8090	574638	0	0
2024-09-05 15:25:47			0	37276	0	0	0	27758	26350	157430	27533	1073891	47001	110302	0	0	8090	574445	0	0
2024-09-05 15:26:47			0	37283	0	0	0	27729	26350	157414	27445	1073864	46990	110291	0	0	8091	574166	0	0
2024-09-05 15:27:47			0	37273	0	0	0	27706	26350	157362	27632	1073828	46989	110282	0	0	8091	574565	0	0
2024-09-05 15:28:47			0	37299	0	0	0	27651	26340	157218	27336	1073757	46966	110261	0	0	8093	573560	0	0
2024-09-05 15:29:47			0	37314	0	0	0	27690	26320	157086	27538	1073595	46987	110276	0	0	8093	573027	0	0
2024-09-05 15:30:47			0	37337	0	0	0	27698	26320	157199	27150	1073703	46987	110279	0	0	8094	572109	0	0
2024-09-05 15:31:47			0	37342	0	0	0	27719	26310	157179	27353	1073711	46986	110287	0	0	8094	571943	0	0
2024-09-05 15:32:47			0	37364	0	0	0	27690	26320	157007	27376	1073694	46986	110276	0	0	8096	571034	0	0
2024-09-05 15:33:47			0	37380	0	0	0	27633	26310	156987	27242	1073685	46975	110254	0	0	8098	570430	0	0
2024-09-05 15:34:47			0	37382	0	0	0	27633	26310	156987	27300	1073541	46974	110254	0	0	8098	570351	0	0
2024-09-05 15:35:47			0	37398	0	0	0	27646	26300	156923	27287	1073559	46973	110259	0	0	8099	569747	0	0
2024-09-05 15:36:47			0	37402	0	0	0	27664	26290	156851	27293	1073460	46973	110266	0	0	8099	569621	0	0
2024-09-05 15:37:47			0	37421	0	0	0	27667	26280	156943	26811	1073496	46982	110267	0	0	8100	568899	0	0
2024-09-05 15:38:47			0	37431	0	0	0	27675	26280	156799	27079	1073523	46982	110270	0	0	8100	568502	0	0
2024-09-05 15:39:47			0	37436	0	0	0	27683	26280	156795	27140	1073576	46982	110273	0	0	8100	568303	0	0
2024-09-05 15:40:47			0	37428	0	0	0	27732	26280	156759	27194	1073513	46982	110292	0	0	8099	568621	0	0
2024-09-05 15:41:47			0	37449	0	0	0	27766	26290	156767	27301	1073639	46983	110305	0	0	8100	567755	0	0
2024-09-05 15:42:47			0	37459	0	0	0	27799	26290	156731	27112	1073702	47017	110318	0	0	8100	567359	0	0
2024-09-05 15:43:47			0	37474	0	0	0	27825	26300	156619	26816	1073908	47029	110328	0	0	8100	566732	0	0
2024-09-05 15:44:47			0	37482	0	0	0	27773	26320	156675	26811	1073891	47020	110308	0	0	8102	566351	0	0
2024-09-05 15:45:47			0	37494	0	0	0	27711	26320	156439	27010	1073864	47009	110284	0	0	8103	565876	0	0
2024-09-05 15:46:47			0	37530	0	0	0	27714	26310	156383	27253	1073765	46975	110285	0	0	8105	564485	0	0
2024-09-05 15:47:47			0	37540	0	0	0	27706	26320	156227	27298	1073720	46998	110282	0	0	8106	564058	0	0
2024-09-05 15:48:47			0	37570	0	0	0	27685	26310	156179	27310	1073685	46986	110274	0	0	8108	562906	0	0
2024-09-05 15:49:47			0	37582	0	0	0	27685	26310	156047	27206	1073711	46986	110274	0	0	8109	562433	0	0
2024-09-05 15:50:47			0	37606	0	0	0	27709	26310	156027	27168	1073595	46997	110283	0	0	8110	561488	0	0
2024-09-05 15:51:47			0	37606	0	0	0	27716	26310	155987	27118	1073649	46974	110286	0	0	8110	561488	0	0
2024-09-05 15:52:47			0	37635	0	0	0	27688	26310	155931	27225	1073676	46985	110275	0	0	8112	560347	0	0
2024-09-05 15:53:47			0	37643	0	0	0	27698	26300	155871	27060	1073666	46984	110279	0	0	8112	560064	0	0
2024-09-05 15:54:47			0	37644	0	0	0	27735	26290	155879	27190	1073648	46984	110293	0	0	8112	560057	0	0
2024-09-05 15:55:47			0	37640	0	0	0	27701	26300	155771	27393	1073631	46984	110280	0	0	8112	560182	0	0
2024-09-05 15:56:47			0	37673	0	0	0	27701	26300	155699	27350	1073666	46984	110280	0	0	8114	558886	0	0
2024-09-05 15:57:47			0	37722	0	0	0	27688	26300	155575	27145	1073640	46984	110275	0	0	8117	556965	0	0
2024-09-05 15:58:47			0	37743	0	0	0	27685	26290	155443	27166	1073595	46984	110274	0	0	8118	556175	0	0
2024-09-05 15:59:47			0	37763	0	0	0	27690	26290	155359	27131	1073595	46984	110276	0	0	8119	555392	0	0
2024-09-05 16:00:47			0	37775	0	0	0	27701	26290	155255	27343	1073622	46996	110280	0	0	8120	554924	0	0
2024-09-05 16:01:47			0	37798	0	0	0	27696	26290	155319	27022	1073622	46984	110278	0	0	8121	554025	0	0
2024-09-05 16:02:47			0	37816	0	0	0	27688	26290	155355	27313	1073622	46996	110275	0	0	8122	553323	0	0
2024-09-05 16:03:47			0	37822	0	0	0	27709	26290	155351	27100	1073648	46984	110283	0	0	8122	553089	0	0
2024-09-05 16:04:47			0	37852	0	0	0	27719	26300	155371	27150	1073604	46984	110287	0	0	8124	551889	0	0
2024-09-05 16:05:47			0	37846	0	0	0	27711	26290	155275	27183	1073648	46984	110284	0	0	8124	552154	0	0
2024-09-05 16:06:47			0	37871	0	0	0	27732	26290	155283	27206	1073675	47006	110292	0	0	8125	551181	0	0
2024-09-05 16:07:47			0	37856	0	0	0	27724	26290	155123	27322	1073675	46996	110289	0	0	8124	551765	0	0
2024-09-05 16:08:47			0	37875	0	0	0	27732	26300	155131	27362	1073720	46984	110292	0	0	8125	550994	0	0
2024-09-05 16:09:47			0	37870	0	0	0	27724	26310	155019	26987	1073783	46985	110289	0	0	8125	551157	0	0
2024-09-05 16:10:47			0	37896	0	0	0	27727	26290	155043	27345	1073648	46984	110290	0	0	8126	550209	0	0
2024-09-05 16:11:47			0	37893	0	0	0	27729	26310	154983	27509	1073792	46998	110291	0	0	8126	550262	0	0
2024-09-05 16:12:47			0	37901	0	0	0	27722	26320	155035	27324	1073694	46998	110288	0	0	8127	549920	0	0
2024-09-05 16:13:47			0	37911	0	0	0	27727	26310	154907	27131	1073729	46985	110290	0	0	8127	549563	0	0
2024-09-05 16:14:47			0	37922	0	0	0	27727	26300	155071	27007	1073720	46996	110290	0	0	8128	549168	0	0
2024-09-05 16:15:47			0	37907	0	0	0	27732	26310	154947	27403	1073765	46986	110292	0	0	8127	549718	0	0
2024-09-05 16:16:47			0	37925	0	0	0	27724	26310	154879	27341	1073765	46986	110289	0	0	8128	549020	0	0
2024-09-05 16:17:47			0	37913	0	0	0	27735	26300	154943	27372	1073747	46996	110293	0	0	8127	549517	0	0
2024-09-05 16:18:47			0	37927	0	0	0	27742	26300	154903	27275	1073774	46973	110296	0	0	8128	548974	0	0
2024-09-05 16:19:47			0	37942	0	0	0	27724	26310	154807	27168	1073738	47008	110289	0	0	8129	548360	0	0
2024-09-05 16:20:47			0	37940	0	0	0	27727	26310	154915	27185	1073783	46997	110290	0	0	8129	548438	0	0
2024-09-05 16:21:47			0	37930	0	0	0	27729	26320	154811	27310	1073810	46987	110291	0	0	8128	548794	0	0
2024-09-05 16:22:47			0	37917	0	0	0	27742	26310	154843	26937	1073792	46986	110296	0	0	8127	549330	0	0
2024-09-05 16:23:47			0	37942	0	0	0	27740	26310	154847	27229	1073846	46986	110295	0	0	8129	548360	0	0
2024-09-05 16:24:47			0	37951	0	0	0	27732	26330	154759	26908	1073873	47009	110292	0	0	8130	547949	0	0
2024-09-05 16:25:47			0	37935	0	0	0	27745	26310	154787	27012	1073765	46986	110297	0	0	8128	548632	0	0
2024-09-05 16:26:47			0	37958	0	0	0	27748	26310	154771	27015	1073792	46986	110298	0	0	8130	547740	0	0
2024-09-05 16:27:47			0	37950	0	0	0	27737	26320	154819	27001	1073864	46976	110294	0	0	8129	548019	0	0
2024-09-05 16:28:47			0	37955	0	0	0	27737	26330	154727	27614	1073953	46976	110294	0	0	8130	547794	0	0
2024-09-05 16:29:47			0	37946	0	0	0	27748	26320	154763	27140	1073801	46998	110298	0	0	8129	548174	0	0
2024-09-05 16:30:47			0	37940	0	0	0	27742	26330	154807	27187	1073873	46987	110296	0	0	8129	548375	0	0
2024-09-05 16:31:47			0	37979	0	0	0	27758	26330	154807	27168	1073900	46987	110302	0	0	8131	546864	0	0
2024-09-05 16:32:47			0	37983	0	0	0	27750	26330	154795	27029	1073873	46987	110299	0	0	8131	546710	0	0
2024-09-05 16:33:47			0	37973	0	0	0	27773	26320	154751	27246	1073864	46999	110308	0	0	8130	547128	0	0
2024-09-05 16:34:47			0	37983	0	0	0	27766	26340	154747	27294	1073891	47000	110305	0	0	8131	546678	0	0
2024-09-05 16:35:47			0	37990	0	0	0	27779	26330	154679	27164	1073909	47000	110310	0	0	8131	546439	0	0
2024-09-05 16:36:47			0	38001	0	0	0	27771	26340	154699	27381	1073954	47011	110307	0	0	8132	545982	0	0
2024-09-05 16:37:47			0	38001	0	0	0	27781	26330	154619	27286	1073962	47000	110311	0	0	8132	546013	0	0
2024-09-05 16:38:47			0	37999	0	0	0	27786	26350	154595	27064	1074026	46990	110313	0	0	8132	546028	0	0
2024-09-05 16:39:47			0	37999	0	0	0	27789	26350	154579	27367	1073972	47001	110314	0	0	8131	546028	0	0
2024-09-05 16:40:47			0	37984	0	0	0	27792	26350	154595	27234	1073999	47001	110315	0	0	8131	546608	0	0
2024-09-05 16:41:47			0	38004	0	0	0	27805	26360	154639	27157	1074035	47002	110320	0	0	8132	545804	0	0
2024-09-05 16:42:47			0	38003	0	0	0	27794	26370	154623	27521	1074098	47002	110316	0	0	8132	545811	0	0
2024-09-05 16:43:47			0	38007	0	0	0	27781	26370	154591	27053	1074053	47013	110311	0	0	8132	545657	0	0
2024-09-05 16:44:47			0	38014	0	0	0	27781	26380	154507	27395	1074098	47004	110311	0	0	8133	545355	0	0
2024-09-05 16:45:47			0	37991	0	0	0	27789	26380	154571	27241	1074152	46993	110314	0	0	8131	546244	0	0
2024-09-05 16:46:47			0	38004	0	0	0	27786	26380	154563	27157	1074089	47003	110313	0	0	8132	545741	0	0
2024-09-05 16:47:47			0	38018	0	0	0	27784	26390	154643	27400	1074134	46993	110312	0	0	8133	545169	0	0
2024-09-05 16:48:47			0	38010	0	0	0	27779	26380	154559	27265	1074152	47004	110310	0	0	8132	545510	0	0
2024-09-05 16:49:47			0	38021	0	0	0	27799	26380	154483	27405	1074071	46993	110318	0	0	8133	545085	0	0
2024-09-05 16:50:47			0	38017	0	0	0	27781	26390	154447	27417	1074107	47004	110311	0	0	8133	545208	0	0
2024-09-05 16:51:47			0	38028	0	0	0	27784	26380	154559	27190	1074143	46970	110312	0	0	8133	544814	0	0
2024-09-05 16:52:47			0	38026	0	0	0	27786	26390	154555	27114	1074089	46994	110313	0	0	8133	544860	0	0
2024-09-05 16:53:47			0	38007	0	0	0	27794	26380	154507	27135	1074125	47004	110316	0	0	8132	545625	0	0
2024-09-05 16:54:47			0	38031	0	0	0	27786	26380	154420	27267	1074152	47004	110313	0	0	8134	544699	0	0
2024-09-05 16:55:47			0	38018	0	0	0	27805	26390	154475	27189	1074116	46983	110320	0	0	8132	545169	0	0
2024-09-05 16:56:47			0	38052	0	0	0	27802	26380	154428	27400	1074152	46982	110319	0	0	8134	543888	0	0
2024-09-05 16:57:47			0	38056	0	0	0	27805	26390	154356	27095	1074161	46993	110320	0	0	8135	543703	0	0
2024-09-05 16:58:47			0	38025	0	0	0	27807	26390	154435	27163	1074188	46993	110321	0	0	8133	544899	0	0
2024-09-05 16:59:47			0	38065	0	0	0	27815	26390	154296	26890	1074197	46994	110324	0	0	8135	543356	0	0
2024-09-05 17:00:47			0	38057	0	0	0	27815	26390	154424	27331	1074116	46994	110324	0	0	8135	543664	0	0
2024-09-05 17:01:47			0	38068	0	0	0	27818	26400	154296	27313	1074206	46994	110325	0	0	8135	543209	0	0
2024-09-05 17:02:47			0	38045	0	0	0	27825	26400	154252	27279	1074188	47006	110328	0	0	8134	544096	0	0
2024-09-05 17:03:47			0	38067	0	0	0	27833	26410	154340	27523	1074260	46996	110331	0	0	8135	543216	0	0
2024-09-05 17:04:47			0	38069	0	0	0	27833	26400	154256	27595	1074206	47005	110331	0	0	8135	543170	0	0
2024-09-05 17:05:47			0	38050	0	0	0	27823	26410	154316	27575	1074251	47006	110327	0	0	8134	543872	0	0
2024-09-05 17:06:47			0	38053	0	0	0	27828	26410	154376	27571	1074251	46995	110329	0	0	8134	543756	0	0
2024-09-05 17:07:47			0	38056	0	0	0	27823	26410	154312	27483	1074287	46996	110327	0	0	8134	543641	0	0
2024-09-05 17:08:47			0	38075	0	0	0	27831	26410	154328	27294	1074260	47007	110330	0	0	8135	542908	0	0
2024-09-05 17:09:47			0	38052	0	0	0	27828	26410	154252	27500	1074287	46996	110329	0	0	8134	543795	0	0
2024-09-05 17:10:47			0	38096	0	0	0	27825	26420	154236	27395	1074296	46996	110328	0	0	8137	542069	0	0
2024-09-05 17:11:47			0	38075	0	0	0	27836	26410	154256	27300	1074260	47007	110332	0	0	8135	542908	0	0
2024-09-05 17:12:47			0	38083	0	0	0	27846	26420	154272	27441	1074305	46986	110336	0	0	8136	542569	0	0
2024-09-05 17:13:47			0	38098	0	0	0	27841	26420	154268	27348	1074332	46997	110334	0	0	8137	541992	0	0
2024-09-05 17:14:47			0	38080	0	0	0	27836	26420	154308	27390	1074305	46997	110332	0	0	8136	542685	0	0
2024-09-05 17:15:47			0	38084	0	0	0	27841	26430	154212	27692	1074395	46997	110334	0	0	8136	542500	0	0
2024-09-05 17:16:47			0	38092	0	0	0	27828	26430	154308	27519	1074368	47008	110329	0	0	8137	542192	0	0
2024-09-05 17:17:47			0	38098	0	0	0	27849	26430	154340	27433	1074404	46998	110337	0	0	8137	541961	0	0
2024-09-05 17:18:47			0	38084	0	0	0	27841	26420	154228	27301	1074359	47030	110334	0	0	8136	542531	0	0
2024-09-05 17:19:47			0	38086	0	0	0	27849	26430	154192	27505	1074404	47009	110337	0	0	8136	542423	0	0
2024-09-05 17:20:47			0	38102	0	0	0	27838	26440	154244	27533	1074395	47010	110333	0	0	8137	541776	0	0
2024-09-05 17:21:47			0	38101	0	0	0	27846	26430	154164	27521	1074404	46998	110336	0	0	8137	541845	0	0
2024-09-05 17:22:47			0	38084	0	0	0	27859	26440	154208	27376	1074493	47010	110341	0	0	8136	542469	0	0
2024-09-05 17:23:47			0	38095	0	0	0	27859	26440	154292	27150	1074440	47010	110341	0	0	8136	542045	0	0
2024-09-05 17:24:47			0	38082	0	0	0	27862	26440	154136	27322	1074413	47010	110342	0	0	8135	542546	0	0
2024-09-05 17:25:47			0	38076	0	0	0	27862	26430	154236	27050	1074404	46998	110342	0	0	8135	542808	0	0
2024-09-05 17:26:47			0	38083	0	0	0	27864	26440	154136	27033	1074440	47010	110343	0	0	8135	542507	0	0
2024-09-05 17:27:47			0	38110	0	0	0	27864	26440	154140	27428	1074476	47010	110343	0	0	8137	541468	0	0
2024-09-05 17:28:47			0	38091	0	0	0	27867	26450	153972	27371	1074458	46989	110344	0	0	8136	542168	0	0
2024-09-05 17:29:47			0	38109	0	0	0	27862	26450	154016	27597	1074467	46989	110342	0	0	8137	541476	0	0
2024-09-05 17:30:47			0	38109	0	0	0	27859	26450	154176	27672	1074511	47000	110341	0	0	8137	541476	0	0
2024-09-05 17:31:47			0	38103	0	0	0	27867	26460	154040	27390	1074503	47012	110344	0	0	8137	541675	0	0
2024-09-05 17:32:47			0	38121	0	0	0	27872	26450	154036	27350	1074494	47000	110346	0	0	8138	541014	0	0
2024-09-05 17:33:47			0	38124	0	0	0	27864	26460	153988	27353	1074503	47000	110343	0	0	8138	540868	0	0
2024-09-05 17:34:47			0	38117	0	0	0	27877	26450	153976	27201	1074511	47000	110348	0	0	8137	541168	0	0
2024-09-05 17:35:47			0	38140	0	0	0	27880	26450	154000	27348	1074494	47011	110349	0	0	8139	540284	0	0
2024-09-05 17:36:47			0	38125	0	0	0	27872	26460	153988	27220	1074476	47012	110346	0	0	8138	540830	0	0
2024-09-05 17:37:47			0	38138	0	0	0	27872	26450	153948	27263	1074547	47000	110346	0	0	8139	540361	0	0
2024-09-05 17:38:47			0	38125	0	0	0	27870	26460	153924	27476	1074583	46990	110345	0	0	8138	540830	0	0
2024-09-05 17:39:47			0	38139	0	0	0	27875	26460	153936	27090	1074530	47000	110347	0	0	8139	540292	0	0
2024-09-05 17:40:47			0	38155	0	0	0	27872	26460	153952	27400	1074565	46990	110346	0	0	8140	539678	0	0
2024-09-05 17:41:47			0	38155	0	0	0	27875	26460	153916	27229	1074539	47000	110347	0	0	8140	539678	0	0
2024-09-05 17:42:47			0	38159	0	0	0	27880	26460	153892	27452	1074512	47000	110349	0	0	8140	539524	0	0
2024-09-05 17:43:47			0	38156	0	0	0	27875	26460	153868	27365	1074592	47000	110347	0	0	8140	539639	0	0
2024-09-05 17:44:47			0	38157	0	0	0	27877	26470	153868	27665	1074601	46991	110348	0	0	8140	539570	0	0
2024-09-05 17:45:47			0	38174	0	0	0	27877	26470	153812	27543	1074601	47013	110348	0	0	8141	538918	0	0
2024-09-05 17:46:47			0	38147	0	0	0	27872	26460	153832	27197	1074539	47000	110346	0	0	8139	539985	0	0
2024-09-05 17:47:47			0	38172	0	0	0	27870	26460	153788	27223	1074592	47000	110345	0	0	8141	539025	0	0
2024-09-05 17:48:47			0	38191	0	0	0	27880	26470	153800	27156	1074503	46991	110349	0	0	8142	538266	0	0
2024-09-05 17:49:47			0	38187	0	0	0	27870	26470	153744	26897	1074601	47001	110345	0	0	8141	538420	0	0
2024-09-05 17:50:47			0	38186	0	0	0	27877	26460	153816	27105	1074539	47000	110348	0	0	8141	538489	0	0
2024-09-05 17:51:47			0	38192	0	0	0	27896	26470	153828	26805	1074575	47013	110355	0	0	8141	538228	0	0
2024-09-05 17:52:47			0	38194	0	0	0	27893	26470	153748	27239	1074628	46991	110354	0	0	8142	538152	0	0
2024-09-05 17:53:47			0	38177	0	0	0	27898	26470	153832	27229	1074610	47001	110356	0	0	8140	538803	0	0
2024-09-05 17:54:47			0	38207	0	0	0	27901	26480	153676	27294	1074646	47003	110357	0	0	8142	537623	0	0
2024-09-05 17:55:47			0	38176	0	0	0	27901	26480	153752	27270	1074700	47003	110357	0	0	8140	538811	0	0
2024-09-05 17:56:47			0	38190	0	0	0	27924	26480	153700	27249	1074673	47014	110366	0	0	8141	538274	0	0
2024-09-05 17:57:47			0	38210	0	0	0	27919	26490	153700	27480	1074691	47015	110364	0	0	8142	537477	0	0
2024-09-05 17:58:47			0	38206	0	0	0	27919	26500	153692	27296	1074763	47005	110364	0	0	8142	537600	0	0
2024-09-05 17:59:47			0	38227	0	0	0	27950	26490	153544	26944	1074745	47004	110376	0	0	8143	536827	0	0
2024-09-05 18:00:47			0	38221	0	0	0	27971	26500	153612	26977	1074817	47016	110384	0	0	8142	537026	0	0
2024-09-05 18:01:47			0	38227	0	0	0	27974	26500	153500	27351	1074853	47017	110385	0	0	8142	536796	0	0
2024-09-05 18:02:47			0	38254	0	0	0	27992	26510	153372	27008	1074916	47017	110392	0	0	8143	535733	0	0
2024-09-05 18:03:47			0	38257	0	0	0	28018	26520	153524	27067	1074987	47018	110402	0	0	8143	535588	0	0
2024-09-05 18:04:47			0	38270	0	0	0	28051	26520	153448	27248	1075041	47041	110415	0	0	8143	535092	0	0
2024-09-05 18:05:47			0	38288	0	0	0	28088	26540	153472	27048	1075158	47042	110429	0	0	8144	534344	0	0
2024-09-05 18:06:47			0	38313	0	0	0	28137	26550	153268	27372	1075311	47054	110448	0	0	8145	533361	0	0
2024-09-05 18:07:47			0	38348	0	0	0	28150	26570	153236	27523	1075428	47057	110453	0	0	8146	531968	0	0
2024-09-05 18:08:47			0	38396	0	0	0	28176	26590	153072	27026	1075518	47070	110463	0	0	8149	530084	0	0
2024-09-05 18:09:47			0	38406	0	0	0	28212	26610	152900	27027	1075670	47073	110477	0	0	8149	529644	0	0
2024-09-05 18:10:47			0	38440	0	0	0	28202	26630	152960	27206	1075787	47064	110473	0	0	8151	528295	0	0
2024-09-05 18:11:47			0	38458	0	0	0	28210	26640	152760	27234	1075778	47076	110476	0	0	8152	527584	0	0
2024-09-05 18:12:47			0	38472	0	0	0	28238	26670	152704	27092	1076012	47045	110487	0	0	8153	526964	0	0
2024-09-05 18:13:47			0	38482	0	0	0	28246	26690	152560	27300	1076013	47057	110490	0	0	8153	526526	0	0
2024-09-05 18:14:47			0	38497	0	0	0	28249	26710	152672	27293	1076058	47060	110491	0	0	8154	525899	0	0
2024-09-05 18:15:47			0	38501	0	0	0	28257	26720	152516	27248	1076210	47062	110494	0	0	8154	525718	0	0
2024-09-05 18:16:47			0	38539	0	0	0	28270	26740	152360	27119	1076220	47064	110499	0	0	8156	524225	0	0
2024-09-05 18:17:47			0	38534	0	0	0	28277	26760	152264	27144	1076274	47054	110502	0	0	8156	524354	0	0
2024-09-05 18:18:47			0	38547	0	0	0	28288	26770	152268	27116	1076382	47067	110506	0	0	8156	523834	0	0
2024-09-05 18:19:47			0	38554	0	0	0	28293	26760	152204	26776	1076390	47066	110508	0	0	8157	523600	0	0
2024-09-05 18:20:47			0	38568	0	0	0	28290	26780	152124	26982	1076400	47045	110507	0	0	8158	523014	0	0
2024-09-05 18:21:47			0	38565	0	0	0	28309	26790	152168	27209	1076526	47046	110514	0	0	8157	523097	0	0
2024-09-05 18:22:47			0	38571	0	0	0	28306	26800	152088	27159	1076454	47058	110513	0	0	8158	522841	0	0
2024-09-05 18:23:47			0	38601	0	0	0	28316	26810	152112	27348	1076526	47060	110517	0	0	8159	521684	0	0
2024-09-05 18:24:47			0	38593	0	0	0	28311	26820	152068	27142	1076607	47061	110515	0	0	8159	521954	0	0
2024-09-05 18:25:47			0	38591	0	0	0	28311	26830	152104	27256	1076598	47040	110515	0	0	8159	522000	0	0
2024-09-05 18:26:47			0	38589	0	0	0	28314	26840	151940	26942	1076580	47051	110516	0	0	8159	522045	0	0
2024-09-05 18:27:47			0	38596	0	0	0	28319	26840	151980	27227	1076715	47051	110518	0	0	8159	521782	0	0
2024-09-05 18:28:47			0	38575	0	0	0	28340	26850	152020	27390	1076679	47052	110526	0	0	8158	522541	0	0
2024-09-05 18:29:47			0	38597	0	0	0	28327	26860	152104	27274	1076733	47042	110521	0	0	8159	521684	0	0
2024-09-05 18:30:47			0	38590	0	0	0	28322	26860	152004	27371	1076724	47053	110519	0	0	8159	521947	0	0
2024-09-05 18:31:47			0	38595	0	0	0	28319	26860	152000	27138	1076760	47065	110518	0	0	8159	521760	0	0
2024-09-05 18:32:47			0	38595	0	0	0	28329	26860	151972	27251	1076760	47053	110522	0	0	8159	521760	0	0
2024-09-05 18:33:47			0	38587	0	0	0	28329	26870	152048	27230	1076850	47054	110522	0	0	8159	522030	0	0
2024-09-05 18:34:47			0	38590	0	0	0	28332	26880	151880	27185	1076796	47067	110523	0	0	8159	521888	0	0
2024-09-05 18:35:47			0	38587	0	0	0	28332	26880	151896	27201	1076787	47044	110523	0	0	8159	522000	0	0
2024-09-05 18:36:47			0	38603	0	0	0	28329	26890	151924	27036	1076805	47056	110522	0	0	8160	521370	0	0
2024-09-05 18:37:47			0	38574	0	0	0	28327	26880	151868	27020	1076841	47044	110521	0	0	8158	522489	0	0
2024-09-05 18:38:47			0	38577	0	0	0	28327	26890	151856	26991	1076859	47045	110521	0	0	8158	522346	0	0
2024-09-05 18:39:47			0	38576	0	0	0	28342	26900	151852	26935	1076850	47046	110527	0	0	8158	522354	0	0
2024-09-05 18:40:47			0	38586	0	0	0	28337	26890	151864	27300	1076886	47056	110525	0	0	8158	522008	0	0
2024-09-05 18:41:47			0	38599	0	0	0	28342	26900	151916	27183	1076860	47047	110527	0	0	8159	521490	0	0
2024-09-05 18:42:47			0	38574	0	0	0	28332	26900	151944	27060	1076886	47037	110523	0	0	8158	522429	0	0
2024-09-05 18:43:47			0	38577	0	0	0	28335	26910	151908	27339	1076949	47059	110524	0	0	8158	522286	0	0
2024-09-05 18:44:47			0	38574	0	0	0	28337	26900	151888	27017	1076886	47059	110525	0	0	8158	522429	0	0
2024-09-05 18:45:47			0	38595	0	0	0	28342	26910	151880	27072	1076922	47047	110527	0	0	8159	521610	0	0
2024-09-05 18:46:47			0	38595	0	0	0	28348	26920	151932	27234	1076950	47061	110529	0	0	8159	521580	0	0
2024-09-05 18:47:47			0	38585	0	0	0	28327	26910	151808	27140	1076949	47059	110521	0	0	8159	521986	0	0
2024-09-05 18:48:47			0	38588	0	0	0	28335	26910	151816	27228	1076986	47048	110524	0	0	8159	521873	0	0
2024-09-05 18:49:47			0	38574	0	0	0	28348	26920	151900	27053	1077004	47049	110529	0	0	8158	522369	0	0
2024-09-05 18:50:47			0	38579	0	0	0	28337	26920	152020	27059	1076914	47060	110525	0	0	8158	522181	0	0
2024-09-05 18:51:47			0	38584	0	0	0	28329	26910	151888	27261	1076959	47038	110522	0	0	8159	522023	0	0
2024-09-05 18:52:47			0	38578	0	0	0	28337	26910	151888	26693	1076932	47026	110525	0	0	8158	522249	0	0
2024-09-05 18:53:47			0	38581	0	0	0	28335	26910	151836	27289	1076905	47048	110524	0	0	8158	522136	0	0
2024-09-05 18:54:47			0	38582	0	0	0	28324	26910	151908	27216	1076986	47048	110520	0	0	8159	522098	0	0
2024-09-05 18:55:47			0	38590	0	0	0	28329	26910	151952	26984	1076905	47048	110522	0	0	8159	521798	0	0
2024-09-05 18:56:47			0	38578	0	0	0	28316	26910	151836	27131	1076905	47038	110517	0	0	8158	522249	0	0
2024-09-05 18:57:47			0	38576	0	0	0	28306	26910	151764	26953	1076878	47060	110513	0	0	8158	522324	0	0
2024-09-05 18:58:47			0	38583	0	0	0	28293	26910	151788	26722	1076959	47038	110508	0	0	8159	522061	0	0
2024-09-05 18:59:47			0	38576	0	0	0	28309	26920	151928	27033	1076833	47038	110514	0	0	8158	522294	0	0
2024-09-05 19:00:47			0	38569	0	0	0	28296	26900	151872	27218	1076779	47047	110509	0	0	8158	522617	0	0
2024-09-05 19:01:47			0	38568	0	0	0	28301	26900	151848	26734	1076860	47047	110511	0	0	8158	522654	0	0
2024-09-05 19:02:47			0	38576	0	0	0	28285	26900	151876	27163	1076806	47037	110505	0	0	8159	522354	0	0
2024-09-05 19:03:47			0	38568	0	0	0	28280	26900	151908	26802	1076779	47059	110503	0	0	8158	522654	0	0
2024-09-05 19:04:47			0	38542	0	0	0	28288	26900	152004	27119	1076770	47046	110506	0	0	8157	523632	0	0
2024-09-05 19:05:47			0	38532	0	0	0	28267	26890	152036	27246	1076761	47046	110498	0	0	8157	524038	0	0
2024-09-05 19:06:47			0	38528	0	0	0	28293	26890	152036	27085	1076698	47035	110508	0	0	8156	524189	0	0
2024-09-05 19:07:47			0	38502	0	0	0	28285	26890	152124	26955	1076815	47046	110505	0	0	8155	525169	0	0
2024-09-05 19:08:47			0	38509	0	0	0	28277	26880	152096	27150	1076707	47044	110502	0	0	8155	524935	0	0
2024-09-05 19:09:47			0	38540	0	0	0	28275	26890	152044	26767	1076725	47045	110501	0	0	8157	523737	0	0
2024-09-05 19:10:47			0	38533	0	0	0	28288	26880	152100	27164	1076770	47044	110506	0	0	8156	524031	0	0
2024-09-05 19:11:47			0	38507	0	0	0	28303	26880	152080	27159	1076716	47044	110512	0	0	8154	525010	0	0
2024-09-05 19:12:47			0	38523	0	0	0	28298	26880	152160	27303	1076823	47055	110510	0	0	8155	524408	0	0
2024-09-05 19:13:47			0	38528	0	0	0	28264	26880	152140	26953	1076770	47044	110497	0	0	8156	524219	0	0
2024-09-05 19:14:47			0	38482	0	0	0	28244	26870	152108	27225	1076742	47043	110489	0	0	8154	525983	0	0
2024-09-05 19:15:47			0	38456	0	0	0	28238	26870	152340	27003	1076671	47044	110487	0	0	8153	526965	0	0
2024-09-05 19:16:47			0	38445	0	0	0	28254	26860	152416	26998	1076653	47032	110493	0	0	8152	527411	0	0
2024-09-05 19:17:47			0	38414	0	0	0	28254	26850	152500	27086	1076581	47020	110493	0	0	8150	528614	0	0
2024-09-05 19:18:47			0	38412	0	0	0	28264	26860	152588	26979	1076644	47032	110497	0	0	8150	528659	0	0
2024-09-05 19:19:47			0	38371	0	0	0	28238	26860	152648	26994	1076653	47042	110487	0	0	8148	530213	0	0
2024-09-05 19:20:47			0	38361	0	0	0	28241	26850	152812	26953	1076608	47032	110488	0	0	8147	530622	0	0
2024-09-05 19:21:47			0	38310	0	0	0	28249	26850	152924	27161	1076581	47042	110491	0	0	8144	532560	0	0
2024-09-05 19:22:47			0	38322	0	0	0	28272	26850	152972	27081	1076634	47042	110500	0	0	8144	532104	0	0
2024-09-05 19:23:47			0	38298	0	0	0	28288	26850	153020	26791	1076715	47042	110506	0	0	8143	533016	0	0
2024-09-05 19:24:47			0	38307	0	0	0	28285	26850	153060	27098	1076634	47053	110505	0	0	8143	532674	0	0
2024-09-05 19:25:47			0	38309	0	0	0	28267	26860	152992	26986	1076679	47053	110498	0	0	8144	532567	0	0
2024-09-05 19:26:47			0	38292	0	0	0	28228	26860	152996	26774	1076617	47042	110483	0	0	8143	533214	0	0
2024-09-05 19:27:47			0	38292	0	0	0	28285	26850	153128	27046	1076581	47032	110505	0	0	8142	533245	0	0
2024-09-05 19:28:47			0	38271	0	0	0	28293	26850	153124	26923	1076598	47041	110508	0	0	8141	534044	0	0
2024-09-05 19:29:47			0	38293	0	0	0	28293	26860	153012	26857	1076733	47042	110508	0	0	8142	533176	0	0
2024-09-05 19:30:47			0	38293	0	0	0	28306	26860	152988	27053	1076760	47076	110513	0	0	8142	533176	0	0
2024-09-05 19:31:47			0	38313	0	0	0	28298	26860	152984	26741	1076733	47053	110510	0	0	8143	532415	0	0
2024-09-05 19:32:47			0	38316	0	0	0	28306	26860	152996	27022	1076724	47042	110513	0	0	8143	532301	0	0
2024-09-05 19:33:47			0	38314	0	0	0	28293	26870	152904	27085	1076751	47067	110508	0	0	8143	532347	0	0
2024-09-05 19:34:47			0	38319	0	0	0	28311	26870	153048	27241	1076778	47055	110515	0	0	8143	532157	0	0
2024-09-05 19:35:47			0	38305	0	0	0	28329	26870	152908	27114	1076769	47043	110522	0	0	8142	532689	0	0
2024-09-05 19:36:47			0	38323	0	0	0	28340	26870	153000	26963	1076850	47066	110526	0	0	8143	532004	0	0
2024-09-05 19:37:47			0	38350	0	0	0	28342	26880	152872	27274	1076877	47055	110527	0	0	8145	530949	0	0
2024-09-05 19:38:47			0	38329	0	0	0	28335	26880	152784	26833	1076931	47055	110524	0	0	8144	531746	0	0
2024-09-05 19:39:47			0	38352	0	0	0	28309	26890	152844	26998	1076922	47057	110514	0	0	8145	530842	0	0
2024-09-05 19:40:47			0	38335	0	0	0	28329	26900	152944	26861	1076850	47069	110522	0	0	8144	531457	0	0
2024-09-05 19:41:47			0	38344	0	0	0	28345	26900	152804	27220	1076904	47046	110528	0	0	8144	531116	0	0
2024-09-05 19:42:47			0	38362	0	0	0	28319	26900	152844	26977	1076904	47069	110518	0	0	8146	530433	0	0
2024-09-05 19:43:47			0	38347	0	0	0	28303	26900	152812	27111	1076860	47059	110512	0	0	8145	531002	0	0
2024-09-05 19:44:47			0	38318	0	0	0	28309	26900	152732	27043	1076877	47046	110514	0	0	8144	532103	0	0
2024-09-05 19:45:47			0	38343	0	0	0	28283	26880	152716	26745	1076760	47044	110504	0	0	8145	531214	0	0
2024-09-05 19:46:47			0	38347	0	0	0	28283	26890	152792	27265	1076805	47045	110504	0	0	8146	531032	0	0
2024-09-05 19:47:47			0	38347	0	0	0	28267	26890	152844	26788	1076779	47035	110498	0	0	8146	531032	0	0
2024-09-05 19:48:47			0	38317	0	0	0	28272	26880	152896	27066	1076716	47055	110500	0	0	8144	532202	0	0
2024-09-05 19:49:47			0	38325	0	0	0	28293	26880	152876	27126	1076680	47055	110508	0	0	8144	531898	0	0
2024-09-05 19:50:47			0	38324	0	0	0	28288	26870	152760	27119	1076724	47044	110506	0	0	8144	531966	0	0
2024-09-05 19:51:47			0	38322	0	0	0	28241	26880	152784	26967	1076707	47044	110488	0	0	8145	532012	0	0
2024-09-05 19:52:47			0	38326	0	0	0	28275	26870	152848	27135	1076635	47043	110501	0	0	8144	531890	0	0
2024-09-05 19:53:47			0	38334	0	0	0	28296	26860	152888	27124	1076617	47042	110509	0	0	8145	531617	0	0
2024-09-05 19:54:47			0	38338	0	0	0	28251	26870	152980	27171	1076635	47043	110492	0	0	8146	531435	0	0
2024-09-05 19:55:47			0	38306	0	0	0	28241	26850	152920	27255	1076598	47041	110488	0	0	8144	532712	0	0
2024-09-05 19:56:47			0	38283	0	0	0	28212	26850	153044	27024	1076581	47042	110477	0	0	8143	533587	0	0
2024-09-05 19:57:47			0	38261	0	0	0	28231	26840	153112	26873	1076563	47030	110484	0	0	8141	534456	0	0
2024-09-05 19:58:47			0	38247	0	0	0	28254	26840	153172	27064	1076473	47041	110493	0	0	8140	534989	0	0
2024-09-05 19:59:47			0	38272	0	0	0	28285	26830	153196	26894	1076518	47050	110505	0	0	8141	534067	0	0
2024-09-05 20:00:47			0	38281	0	0	0	28215	26840	153000	27010	1076500	47051	110478	0	0	8143	533694	0	0
2024-09-05 20:01:47			0	38270	0	0	0	28184	26820	153144	27177	1076473	47028	110466	0	0	8143	534174	0	0
2024-09-05 20:02:47			0	38240	0	0	0	28205	26830	153272	27284	1076374	47040	110474	0	0	8141	535287	0	0
2024-09-05 20:03:47			0	38187	0	0	0	28192	26820	153448	27090	1076446	47039	110469	0	0	8138	537342	0	0
2024-09-05 20:04:47			0	38169	0	0	0	28202	26820	153472	27325	1076437	47048	110473	0	0	8136	538031	0	0
2024-09-05 20:05:47			0	38156	0	0	0	28207	26820	153568	26750	1076383	47038	110475	0	0	8136	538529	0	0
2024-09-05 20:06:47			0	38156	0	0	0	28202	26810	153720	26748	1076347	47048	110473	0	0	8136	538560	0	0
2024-09-05 20:07:47			0	38127	0	0	0	28220	26820	153744	26989	1076356	47048	110480	0	0	8134	539640	0	0
2024-09-05 20:08:47			0	38126	0	0	0	28238	26810	153816	26746	1076392	47048	110487	0	0	8133	539709	0	0
2024-09-05 20:09:47			0	38117	0	0	0	28249	26800	153744	26783	1076409	47059	110491	0	0	8133	540085	0	0
2024-09-05 20:10:47			0	38131	0	0	0	28254	26810	153684	27059	1076418	47048	110493	0	0	8133	539517	0	0
2024-09-05 20:11:47			0	38136	0	0	0	28259	26820	153720	27235	1076544	47048	110495	0	0	8134	539295	0	0
2024-09-05 20:12:47			0	38162	0	0	0	28244	26820	153676	27190	1076526	47061	110489	0	0	8135	538299	0	0
2024-09-05 20:13:47			0	38138	0	0	0	28233	26820	153728	27041	1076463	47048	110485	0	0	8134	539218	0	0
2024-09-05 20:14:47			0	38157	0	0	0	28249	26820	153688	27138	1076490	47038	110491	0	0	8135	538490	0	0
2024-09-05 20:15:47			0	38154	0	0	0	28249	26820	153688	27012	1076526	47039	110491	0	0	8135	538605	0	0
2024-09-05 20:16:47			0	38161	0	0	0	28244	26820	153696	27268	1076499	47061	110489	0	0	8135	538337	0	0
2024-09-05 20:17:47			0	38158	0	0	0	28223	26820	153676	26996	1076499	47039	110481	0	0	8135	538452	0	0
2024-09-05 20:18:47			0	38107	0	0	0	28218	26820	153724	26998	1076392	47049	110479	0	0	8133	540407	0	0
2024-09-05 20:19:47			0	38096	0	0	0	28220	26820	153832	27164	1076410	47060	110480	0	0	8132	540829	0	0
2024-09-05 20:20:47			0	38076	0	0	0	28223	26810	153976	27052	1076428	47038	110481	0	0	8131	541629	0	0
2024-09-05 20:21:47			0	38093	0	0	0	28241	26810	153972	26795	1076454	47048	110488	0	0	8131	540976	0	0
2024-09-05 20:22:47			0	38077	0	0	0	28210	26810	153948	26755	1076374	47060	110476	0	0	8131	541590	0	0
2024-09-05 20:23:47			0	38047	0	0	0	28173	26810	154088	26717	1076347	47015	110462	0	0	8130	542744	0	0
2024-09-05 20:24:47			0	38007	0	0	0	28197	26810	154155	27078	1076365	47038	110471	0	0	8127	544285	0	0
2024-09-05 20:25:47			0	37988	0	0	0	28210	26810	154243	26826	1076338	47048	110476	0	0	8126	545018	0	0
2024-09-05 20:26:47			0	38004	0	0	0	28202	26800	154303	26837	1076347	47036	110473	0	0	8127	544431	0	0
2024-09-05 20:27:47			0	38002	0	0	0	28218	26810	154355	27267	1076365	47038	110479	0	0	8127	544477	0	0
2024-09-05 20:28:47			0	37985	0	0	0	28233	26800	154335	26880	1076383	47047	110485	0	0	8125	545164	0	0
2024-09-05 20:29:47			0	38025	0	0	0	28202	26810	154216	26844	1076392	47038	110473	0	0	8128	543591	0	0
2024-09-05 20:30:47			0	38018	0	0	0	28150	26810	154207	26476	1076365	47060	110453	0	0	8129	543861	0	0
2024-09-05 20:31:47			0	37975	0	0	0	28145	26800	154375	27105	1076212	47046	110451	0	0	8126	545551	0	0
2024-09-05 20:32:47			0	37974	0	0	0	28192	26790	154459	26694	1076221	47025	110469	0	0	8125	545620	0	0
2024-09-05 20:33:47			0	37945	0	0	0	28207	26790	154539	26899	1076301	47036	110475	0	0	8123	546741	0	0
2024-09-05 20:34:47			0	37968	0	0	0	28215	26790	154443	26857	1076311	47036	110478	0	0	8125	545852	0	0
2024-09-05 20:35:47			0	37979	0	0	0	28114	26790	154447	26831	1076311	47036	110439	0	0	8127	545427	0	0
2024-09-05 20:36:47			0	37926	0	0	0	28098	26790	154639	26830	1076059	47025	110433	0	0	8124	547476	0	0
2024-09-05 20:37:47			0	37937	0	0	0	28083	26770	154575	27053	1076023	47011	110427	0	0	8125	547113	0	0
2024-09-05 20:38:47			0	37890	0	0	0	28135	26740	154651	27007	1075978	47008	110447	0	0	8121	549027	0	0
2024-09-05 20:39:47			0	37932	0	0	0	28132	26740	154559	26833	1075969	47019	110446	0	0	8124	547400	0	0
2024-09-05 20:40:47			0	37915	0	0	0	28093	26740	154639	26996	1075996	47030	110431	0	0	8123	548058	0	0
2024-09-05 20:41:47			0	37898	0	0	0	28132	26750	154603	27036	1076014	47041	110446	0	0	8122	548686	0	0
2024-09-05 20:42:47			0	37896	0	0	0	28197	26740	154679	27124	1076032	47031	110471	0	0	8120	548795	0	0
2024-09-05 20:43:47			0	37916	0	0	0	28192	26750	154647	27095	1076148	47053	110469	0	0	8122	547988	0	0
2024-09-05 20:44:47			0	37939	0	0	0	28220	26750	154607	27029	1076211	47053	110480	0	0	8123	547098	0	0
2024-09-05 20:45:47			0	37940	0	0	0	28210	26750	154511	26703	1076184	47064	110476	0	0	8123	547060	0	0
2024-09-05 20:46:47			0	37943	0	0	0	28158	26760	154411	26826	1076193	47042	110456	0	0	8124	546912	0	0
2024-09-05 20:47:47			0	37951	0	0	0	28119	26760	154467	26984	1076086	47032	110441	0	0	8125	546603	0	0
2024-09-05 20:48:47			0	37934	0	0	0	28171	26750	154503	26864	1076014	47020	110461	0	0	8123	547292	0	0
2024-09-05 20:49:47			0	37946	0	0	0	28166	26750	154459	26944	1076094	47041	110459	0	0	8124	546827	0	0
2024-09-05 20:50:47			0	37939	0	0	0	28135	26750	154415	26687	1076077	47031	110447	0	0	8124	547098	0	0
2024-09-05 20:51:47			0	37899	0	0	0	28202	26750	154611	26955	1076130	47041	110473	0	0	8121	548647	0	0
2024-09-05 20:52:47			0	37900	0	0	0	28215	26760	154647	27064	1076193	47054	110478	0	0	8120	548577	0	0
2024-09-05 20:53:47			0	37938	0	0	0	28207	26750	154503	26941	1076211	47053	110475	0	0	8123	547137	0	0
2024-09-05 20:54:47			0	37930	0	0	0	28207	26750	154559	27144	1076211	47041	110475	0	0	8122	547446	0	0
2024-09-05 20:55:47			0	37951	0	0	0	28275	26770	154539	27074	1076211	47044	110501	0	0	8122	546571	0	0
2024-09-05 20:56:47			0	37952	0	0	0	28254	26770	154467	26875	1076319	47067	110493	0	0	8123	546533	0	0
2024-09-05 20:57:47			0	37978	0	0	0	28303	26790	154387	27118	1076436	47069	110512	0	0	8124	545466	0	0
2024-09-05 20:58:47			0	38004	0	0	0	28270	26790	154219	27048	1076489	47080	110499	0	0	8126	544463	0	0
2024-09-05 20:59:47			0	38002	0	0	0	28194	26800	154311	27078	1076373	47080	110470	0	0	8127	544509	0	0
2024-09-05 21:00:47			0	37938	0	0	0	28197	26800	154519	27190	1076320	47058	110471	0	0	8123	546980	0	0
2024-09-05 21:01:47			0	37927	0	0	0	28207	26790	154523	27020	1076311	47058	110475	0	0	8122	547437	0	0
2024-09-05 21:02:47			0	37935	0	0	0	28241	26790	154575	27260	1076311	47036	110488	0	0	8122	547128	0	0
2024-09-05 21:03:47			0	37929	0	0	0	28236	26780	154507	27400	1076400	47045	110486	0	0	8122	547391	0	0
2024-09-05 21:04:47			0	37927	0	0	0	28233	26800	154583	26878	1076409	47059	110485	0	0	8122	547406	0	0
2024-09-05 21:05:47			0	37921	0	0	0	28210	26800	154519	27281	1076400	47046	110476	0	0	8122	547638	0	0
2024-09-05 21:06:47			0	37923	0	0	0	28197	26790	154519	27306	1076338	47046	110471	0	0	8122	547592	0	0
2024-09-05 21:07:47			0	37913	0	0	0	28207	26800	154543	27033	1076436	47059	110475	0	0	8122	547948	0	0
2024-09-05 21:08:47			0	37918	0	0	0	28212	26790	154543	26961	1076391	47046	110477	0	0	8122	547785	0	0
2024-09-05 21:09:47			0	37902	0	0	0	28212	26790	154599	27189	1076338	47046	110477	0	0	8121	548405	0	0
2024-09-05 21:10:47			0	37915	0	0	0	28262	26800	154615	27081	1076373	47036	110496	0	0	8121	547870	0	0
2024-09-05 21:11:47			0	37918	0	0	0	28254	26800	154555	27074	1076454	47036	110493	0	0	8121	547754	0	0
2024-09-05 21:12:47			0	37906	0	0	0	28231	26800	154591	27095	1076463	47059	110484	0	0	8121	548219	0	0
2024-09-05 21:13:47			0	37908	0	0	0	28236	26810	154683	27083	1076472	47048	110486	0	0	8121	548110	0	0
2024-09-05 21:14:47			0	37921	0	0	0	28223	26810	154667	27097	1076454	47048	110481	0	0	8122	547606	0	0
2024-09-05 21:15:47			0	37886	0	0	0	28202	26810	154567	27098	1076499	47060	110473	0	0	8120	548962	0	0
2024-09-05 21:16:47			0	37883	0	0	0	28168	26810	154555	27251	1076401	47060	110460	0	0	8120	549078	0	0
2024-09-05 21:17:47			0	37887	0	0	0	28158	26800	154619	27192	1076275	47026	110456	0	0	8121	548955	0	0
2024-09-05 21:18:47			0	37905	0	0	0	28145	26790	154711	27159	1076203	47036	110451	0	0	8122	548289	0	0
2024-09-05 21:19:47			0	37914	0	0	0	28116	26790	154571	27229	1076167	47013	110440	0	0	8123	547940	0	0
2024-09-05 21:20:47			0	37925	0	0	0	28106	26770	154463	26812	1076104	47000	110436	0	0	8124	547577	0	0
2024-09-05 21:21:47			0	37940	0	0	0	28114	26760	154427	26831	1076068	47022	110439	0	0	8124	547028	0	0
2024-09-05 21:22:47			0	37967	0	0	0	28111	26750	154323	26984	1076023	47031	110438	0	0	8126	546016	0	0
2024-09-05 21:23:47			0	37967	0	0	0	28106	26750	154367	26991	1076014	47008	110436	0	0	8126	546016	0	0
2024-09-05 21:24:47			0	37996	0	0	0	28103	26740	154339	26982	1075978	47008	110435	0	0	8128	544927	0	0
2024-09-05 21:25:47			0	37997	0	0	0	28114	26740	154255	27185	1075969	47030	110439	0	0	8128	544889	0	0
2024-09-05 21:26:47			0	38008	0	0	0	28135	26740	154191	26785	1075969	47019	110447	0	0	8128	544464	0	0
2024-09-05 21:27:47			0	38094	0	0	0	28150	26730	154024	27234	1075987	47040	110453	0	0	8133	541185	0	0
2024-09-05 21:28:47			0	38122	0	0	0	28140	26740	153772	26981	1076022	47030	110449	0	0	8134	540079	0	0
2024-09-05 21:29:47			0	38129	0	0	0	28129	26730	153736	26896	1076013	47040	110445	0	0	8135	539841	0	0
2024-09-05 21:30:47			0	38111	0	0	0	28119	26730	153732	26986	1075987	47029	110441	0	0	8134	540532	0	0
2024-09-05 21:31:47			0	38125	0	0	0	28109	26730	153820	26981	1075987	47040	110437	0	0	8135	539995	0	0
2024-09-05 21:32:47			0	38138	0	0	0	28088	26730	153684	26975	1075897	47029	110429	0	0	8136	539496	0	0
2024-09-05 21:33:47			0	38129	0	0	0	28080	26720	153780	27105	1075942	47029	110426	0	0	8136	539872	0	0
2024-09-05 21:34:47			0	38117	0	0	0	28096	26720	153764	27345	1075906	47039	110432	0	0	8135	540333	0	0
2024-09-05 21:35:47			0	38151	0	0	0	28093	26710	153648	27123	1075897	47015	110431	0	0	8137	539060	0	0
2024-09-05 21:36:47			0	38186	0	0	0	28085	26710	153572	27256	1075870	47027	110428	0	0	8139	537719	0	0
2024-09-05 21:37:47			0	38177	0	0	0	28080	26710	153672	26953	1075726	47015	110426	0	0	8138	538064	0	0
2024-09-05 21:38:47			0	38194	0	0	0	28088	26700	153600	27305	1075762	47037	110429	0	0	8139	537444	0	0
2024-09-05 21:39:47			0	38227	0	0	0	28098	26700	153500	27190	1075825	47027	110433	0	0	8141	536182	0	0
2024-09-05 21:40:47			0	38215	0	0	0	28085	26700	153472	26948	1075852	47038	110428	0	0	8141	536641	0	0
2024-09-05 21:41:47			0	38187	0	0	0	28075	26700	153628	26998	1075762	47037	110424	0	0	8139	537712	0	0
2024-09-05 21:42:47			0	38189	0	0	0	28075	26700	153564	27176	1075852	47038	110424	0	0	8139	537635	0	0
2024-09-05 21:43:47			0	38207	0	0	0	28072	26700	153632	27324	1075789	47026	110423	0	0	8140	536947	0	0
2024-09-05 21:44:47			0	38181	0	0	0	28075	26700	153520	27182	1075762	47026	110424	0	0	8139	537941	0	0
2024-09-05 21:45:47			0	38164	0	0	0	28072	26680	153620	27229	1075762	47024	110423	0	0	8138	538654	0	0
2024-09-05 21:46:47			0	38179	0	0	0	28090	26680	153672	27280	1075753	47035	110430	0	0	8138	538079	0	0
2024-09-05 21:47:47			0	38208	0	0	0	28090	26680	153432	27377	1075788	47035	110430	0	0	8140	536970	0	0
2024-09-05 21:48:47			0	38241	0	0	0	28080	26680	153424	27178	1075779	47024	110426	0	0	8142	535709	0	0
2024-09-05 21:49:47			0	38258	0	0	0	28090	26680	153324	26989	1075788	47024	110430	0	0	8143	535060	0	0
2024-09-05 21:50:47			0	38243	0	0	0	28075	26680	153384	27000	1075735	47035	110424	0	0	8142	535633	0	0
2024-09-05 21:51:47			0	38245	0	0	0	28090	26680	153400	27107	1075788	47024	110430	0	0	8142	535556	0	0
2024-09-05 21:52:47			0	38245	0	0	0	28070	26680	153352	26850	1075779	47035	110422	0	0	8142	535556	0	0
2024-09-05 21:53:47			0	38282	0	0	0	28049	26680	153240	27100	1075735	47024	110414	0	0	8145	534145	0	0
2024-09-05 21:54:47			0	38278	0	0	0	28057	26670	153332	27164	1075743	47034	110417	0	0	8144	534328	0	0
2024-09-05 21:55:47			0	38290	0	0	0	28057	26670	153284	27109	1075654	47022	110417	0	0	8145	533871	0	0
2024-09-05 21:56:47			0	38287	0	0	0	28064	26670	153280	26998	1075627	47022	110420	0	0	8145	533985	0	0
2024-09-05 21:57:47			0	38287	0	0	0	28031	26660	153264	26760	1075689	47033	110407	0	0	8145	534016	0	0
2024-09-05 21:58:47			0	38302	0	0	0	28036	26660	153212	27150	1075617	47000	110409	0	0	8146	533444	0	0
2024-09-05 21:59:47			0	38322	0	0	0	28057	26660	153160	26719	1075689	47033	110417	0	0	8147	532683	0	0
2024-09-05 22:00:47			0	38343	0	0	0	28023	26640	153016	27074	1075617	47020	110404	0	0	8149	531945	0	0
2024-09-05 22:01:47			0	38327	0	0	0	28031	26650	153076	27003	1075599	47009	110407	0	0	8148	532523	0	0
2024-09-05 22:02:47			0	38324	0	0	0	28044	26640	153024	27010	1075510	47020	110412	0	0	8147	532668	0	0
2024-09-05 22:03:47			0	38325	0	0	0	28012	26630	153052	26922	1075545	47008	110400	0	0	8148	532660	0	0
2024-09-05 22:04:47			0	38302	0	0	0	28018	26630	153228	27319	1075429	47019	110402	0	0	8146	533536	0	0
2024-09-05 22:05:47			0	38310	0	0	0	28036	26630	153116	27050	1075465	47020	110409	0	0	8147	533231	0	0
2024-09-05 22:06:47			0	38307	0	0	0	28018	26630	153116	27045	1075518	47008	110402	0	0	8147	533345	0	0
2024-09-05 22:07:47			0	38296	0	0	0	28044	26630	153192	26958	1075509	47030	110412	0	0	8146	533764	0	0
2024-09-05 22:08:47			0	38297	0	0	0	28031	26630	153124	26935	1075545	47041	110407	0	0	8146	533726	0	0
2024-09-05 22:09:47			0	38304	0	0	0	28085	26630	153160	26974	1075626	47031	110428	0	0	8145	533460	0	0
2024-09-05 22:10:47			0	38332	0	0	0	28098	26640	153032	27076	1075662	47031	110433	0	0	8147	532363	0	0
2024-09-05 22:11:47			0	38343	0	0	0	28127	26660	153092	26998	1075743	47044	110444	0	0	8147	531884	0	0
2024-09-05 22:12:47			0	38317	0	0	0	28137	26660	153100	26738	1075716	47044	110448	0	0	8145	532873	0	0
2024-09-05 22:13:47			0	38350	0	0	0	28171	26670	152992	26769	1075878	47067	110461	0	0	8147	531588	0	0
2024-09-05 22:14:47			0	38376	0	0	0	28181	26680	152848	26975	1075923	47045	110465	0	0	8148	530570	0	0
2024-09-05 22:15:47			0	38395	0	0	0	28171	26690	152808	27029	1076048	47058	110461	0	0	8149	529819	0	0
2024-09-05 22:16:47			0	38438	0	0	0	28176	26700	152676	27069	1076040	47071	110463	0	0	8152	528159	0	0
2024-09-05 22:17:47			0	38462	0	0	0	28184	26710	152552	26908	1076103	47049	110466	0	0	8153	527221	0	0
2024-09-05 22:18:47			0	38476	0	0	0	28186	26720	152464	27078	1076040	47050	110467	0	0	8154	526662	0	0
2024-09-05 22:19:47			0	38490	0	0	0	28189	26710	152352	27225	1076112	47027	110468	0	0	8155	526164	0	0
2024-09-05 22:20:47			0	38501	0	0	0	28186	26720	152372	27272	1076130	47040	110467	0	0	8155	525718	0	0
2024-09-05 22:21:47			0	38494	0	0	0	28186	26740	152404	27147	1076157	47041	110467	0	0	8155	525922	0	0
2024-09-05 22:22:47			0	38500	0	0	0	28181	26740	152380	26807	1076112	47053	110465	0	0	8155	525696	0	0
2024-09-05 22:23:47			0	38514	0	0	0	28194	26740	152184	27116	1076193	47053	110470	0	0	8156	525168	0	0
2024-09-05 22:24:47			0	38528	0	0	0	28202	26740	152152	26970	1076211	47041	110473	0	0	8157	524640	0	0
2024-09-05 22:25:47			0	38524	0	0	0	28197	26750	152164	27083	1076265	47041	110471	0	0	8157	524761	0	0
2024-09-05 22:26:47			0	38521	0	0	0	28197	26760	152244	27305	1076256	47033	110471	0	0	8156	524844	0	0
2024-09-05 22:27:47			0	38527	0	0	0	28189	26760	152188	27079	1076256	47055	110468	0	0	8157	524617	0	0
2024-09-05 22:28:47			0	38514	0	0	0	28176	26760	152384	27251	1076220	47042	110463	0	0	8156	525107	0	0
2024-09-05 22:29:47			0	38507	0	0	0	28181	26760	152392	27267	1076256	47043	110465	0	0	8156	525371	0	0
2024-09-05 22:30:47			0	38493	0	0	0	28176	26750	152364	27010	1076157	47031	110463	0	0	8155	525930	0	0
2024-09-05 22:31:47			0	38486	0	0	0	28189	26760	152444	26854	1076166	47032	110468	0	0	8155	526164	0	0
2024-09-05 22:32:47			0	38493	0	0	0	28186	26760	152304	27329	1076274	47042	110467	0	0	8155	525900	0	0
2024-09-05 22:33:47			0	38515	0	0	0	28181	26770	152264	27144	1076238	47034	110465	0	0	8156	525040	0	0
2024-09-05 22:34:47			0	38512	0	0	0	28189	26770	152308	26880	1076247	47056	110468	0	0	8156	525153	0	0
2024-09-05 22:35:47			0	38515	0	0	0	28207	26770	152296	27111	1076274	47044	110475	0	0	8156	525040	0	0
2024-09-05 22:36:47			0	38518	0	0	0	28202	26780	152220	27093	1076364	47056	110473	0	0	8156	524896	0	0
2024-09-05 22:37:47			0	38522	0	0	0	28205	26780	152256	26935	1076256	47044	110474	0	0	8157	524746	0	0
2024-09-05 22:38:47			0	38533	0	0	0	28207	26770	152296	26941	1076301	47034	110475	0	0	8157	524361	0	0
2024-09-05 22:39:47			0	38525	0	0	0	28210	26770	152288	26998	1076274	47044	110476	0	0	8157	524663	0	0
2024-09-05 22:40:47			0	38546	0	0	0	28215	26780	152140	27053	1076310	47044	110478	0	0	8158	523842	0	0
2024-09-05 22:41:47			0	38538	0	0	0	28223	26780	152196	26961	1076346	47035	110481	0	0	8157	524143	0	0
2024-09-05 22:42:47			0	38562	0	0	0	28220	26780	152100	27111	1076346	47045	110480	0	0	8159	523239	0	0
2024-09-05 22:43:47			0	38550	0	0	0	28205	26780	152080	27171	1076346	47045	110474	0	0	8158	523691	0	0
2024-09-05 22:44:47			0	38550	0	0	0	28205	26790	152168	26890	1076382	47046	110474	0	0	8158	523661	0	0
2024-09-05 22:45:47			0	38551	0	0	0	28205	26780	152096	27190	1076373	47035	110474	0	0	8158	523654	0	0
2024-09-05 22:46:47			0	38574	0	0	0	28210	26780	152108	27085	1076346	47035	110476	0	0	8159	522788	0	0
2024-09-05 22:47:47			0	38560	0	0	0	28210	26790	152112	27242	1076364	47046	110476	0	0	8159	523285	0	0
2024-09-05 22:48:47			0	38548	0	0	0	28179	26790	152060	27336	1076355	47036	110464	0	0	8158	523736	0	0
2024-09-05 22:49:47			0	38529	0	0	0	28142	26780	152128	27086	1076283	47044	110450	0	0	8158	524482	0	0
2024-09-05 22:50:47			0	38520	0	0	0	28171	26790	152472	27076	1076257	47046	110461	0	0	8157	524791	0	0
2024-09-05 22:51:47			0	38495	0	0	0	28192	26790	152404	27187	1076274	47036	110469	0	0	8155	525734	0	0
2024-09-05 22:52:47			0	38495	0	0	0	28207	26780	152448	27124	1076292	47057	110475	0	0	8155	525764	0	0
2024-09-05 22:53:47			0	38516	0	0	0	28197	26790	152276	26805	1076355	47046	110471	0	0	8156	524942	0	0
2024-09-05 22:54:47			0	38513	0	0	0	28205	26790	152356	27131	1076328	47036	110474	0	0	8156	525055	0	0
2024-09-05 22:55:47			0	38539	0	0	0	28202	26790	152300	26883	1076301	47036	110473	0	0	8158	524075	0	0
2024-09-05 22:56:47			0	38509	0	0	0	28194	26800	152292	27270	1076320	47036	110470	0	0	8156	525176	0	0
2024-09-05 22:57:47			0	38532	0	0	0	28176	26790	152216	27256	1076328	47058	110463	0	0	8158	524339	0	0
2024-09-05 22:58:47			0	38535	0	0	0	28186	26790	152236	26873	1076328	47036	110467	0	0	8158	524226	0	0
2024-09-05 22:59:47			0	38518	0	0	0	28184	26790	152348	26852	1076301	47025	110466	0	0	8157	524866	0	0
2024-09-05 23:00:47			0	38500	0	0	0	28186	26790	152276	26878	1076338	47036	110467	0	0	8156	525545	0	0
2024-09-05 23:01:47			0	38522	0	0	0	28192	26780	152368	27150	1076292	47024	110469	0	0	8157	524746	0	0
2024-09-05 23:02:47			0	38516	0	0	0	28199	26780	152392	27076	1076265	47045	110472	0	0	8156	524972	0	0
2024-09-05 23:03:47			0	38519	0	0	0	28194	26780	152328	26965	1076346	47035	110470	0	0	8157	524859	0	0
2024-09-05 23:04:47			0	38523	0	0	0	28192	26780	152368	27137	1076292	47035	110469	0	0	8157	524708	0	0
2024-09-05 23:05:47			0	38517	0	0	0	28192	26780	152340	27121	1076346	47035	110469	0	0	8156	524934	0	0
2024-09-05 23:06:47			0	38495	0	0	0	28173	26780	152376	27287	1076265	47035	110462	0	0	8155	525764	0	0
2024-09-05 23:07:47			0	38482	0	0	0	28158	26780	152412	27310	1076292	47045	110456	0	0	8155	526255	0	0
2024-09-05 23:08:47			0	38466	0	0	0	28155	26780	152424	27062	1076238	47045	110455	0	0	8154	526859	0	0
2024-09-05 23:09:47			0	38437	0	0	0	28161	26770	152536	27355	1076211	47034	110457	0	0	8152	527986	0	0
2024-09-05 23:10:47			0	38419	0	0	0	28168	26780	152520	26963	1076202	47023	110460	0	0	8151	528637	0	0
2024-09-05 23:11:47			0	38456	0	0	0	28168	26770	152628	27031	1076265	47034	110460	0	0	8153	527267	0	0
2024-09-05 23:12:47			0	38450	0	0	0	28181	26770	152508	27294	1076265	47044	110465	0	0	8153	527494	0	0
2024-09-05 23:13:47			0	38446	0	0	0	28179	26770	152516	27334	1076238	47044	110464	0	0	8153	527645	0	0
2024-09-05 23:14:47			0	38468	0	0	0	28171	26770	152520	27261	1076265	47044	110461	0	0	8154	526814	0	0
2024-09-05 23:15:47			0	38465	0	0	0	28176	26780	152500	27036	1076283	47034	110463	0	0	8154	526897	0	0
2024-09-05 23:16:47			0	38448	0	0	0	28171	26760	152508	27282	1076220	47032	110461	0	0	8153	527600	0	0
2024-09-05 23:17:47			0	38441	0	0	0	28186	26770	152616	27020	1076211	47023	110467	0	0	8152	527834	0	0
2024-09-05 23:18:47			0	38457	0	0	0	28173	26770	152472	27199	1076274	47044	110462	0	0	8153	527229	0	0
2024-09-05 23:19:47			0	38452	0	0	0	28173	26770	152532	26934	1076238	47044	110462	0	0	8153	527418	0	0
2024-09-05 23:20:47			0	38458	0	0	0	28168	26780	152668	26937	1076229	47044	110460	0	0	8153	527161	0	0
2024-09-05 23:21:47			0	38470	0	0	0	28181	26770	152544	26904	1076247	47034	110465	0	0	8154	526738	0	0
2024-09-05 23:22:47			0	38453	0	0	0	28171	26770	152616	27185	1076211	47044	110461	0	0	8153	527381	0	0
2024-09-05 23:23:47			0	38450	0	0	0	28171	26770	152676	27325	1076211	47034	110461	0	0	8153	527494	0	0
2024-09-05 23:24:47			0	38433	0	0	0	28171	26770	152652	26941	1076274	47034	110461	0	0	8152	528137	0	0
2024-09-05 23:25:47			0	38437	0	0	0	28168	26770	152680	27029	1076292	47034	110460	0	0	8152	527986	0	0
2024-09-05 23:26:47			0	38429	0	0	0	28161	26760	152692	27142	1076193	47042	110457	0	0	8152	528319	0	0
2024-09-05 23:27:47			0	38442	0	0	0	28163	26770	152764	27041	1076211	47034	110458	0	0	8153	527796	0	0
2024-09-05 23:28:47			0	38409	0	0	0	28155	26760	152744	27142	1076229	47033	110455	0	0	8151	529076	0	0
2024-09-05 23:29:47			0	38411	0	0	0	28163	26760	152796	27170	1076220	47042	110458	0	0	8151	529000	0	0
2024-09-05 23:30:47			0	38422	0	0	0	28161	26760	152816	26849	1076193	47054	110457	0	0	8151	528584	0	0
2024-09-05 23:31:47			0	38425	0	0	0	28153	26750	152840	26979	1076130	47020	110454	0	0	8152	528500	0	0
2024-09-05 23:32:47			0	38419	0	0	0	28161	26770	152756	27116	1076157	47034	110457	0	0	8151	528667	0	0
2024-09-05 23:33:47			0	38416	0	0	0	28153	26750	152772	26987	1076184	47031	110454	0	0	8151	528841	0	0
2024-09-05 23:34:47			0	38393	0	0	0	28142	26760	152760	27246	1076166	47042	110450	0	0	8150	529682	0	0
2024-09-05 23:35:47			0	38389	0	0	0	28161	26750	152872	26920	1076238	47041	110457	0	0	8149	529864	0	0
2024-09-05 23:36:47			0	38395	0	0	0	28158	26760	152788	26835	1076202	47033	110456	0	0	8150	529606	0	0
2024-09-05 23:37:47			0	38384	0	0	0	28155	26750	152756	27133	1076148	47041	110455	0	0	8149	530054	0	0
2024-09-05 23:38:47			0	38405	0	0	0	28155	26750	152784	27046	1076157	47031	110455	0	0	8151	529258	0	0
2024-09-05 23:39:47			0	38418	0	0	0	28155	26740	152848	27052	1076166	47031	110455	0	0	8151	528796	0	0
2024-09-05 23:40:47			0	38401	0	0	0	28150	26750	152796	26915	1076184	47041	110453	0	0	8150	529409	0	0
2024-09-05 23:41:47			0	38414	0	0	0	28161	26760	152800	26661	1076139	47021	110457	0	0	8151	528886	0	0
2024-09-05 23:42:47			0	38421	0	0	0	28155	26750	152636	27048	1076157	47041	110455	0	0	8151	528652	0	0
2024-09-05 23:43:47			0	38429	0	0	0	28153	26740	152640	27003	1076166	47031	110454	0	0	8152	528379	0	0
2024-09-05 23:44:47			0	38445	0	0	0	28148	26750	152564	26916	1076121	47020	110452	0	0	8153	527743	0	0
2024-09-05 23:45:47			0	38476	0	0	0	28135	26740	152420	26953	1076112	47020	110447	0	0	8155	526602	0	0
2024-09-05 23:46:47			0	38521	0	0	0	28124	26750	152308	27001	1076130	47020	110443	0	0	8158	524874	0	0
2024-09-05 23:47:47			0	38549	0	0	0	28132	26740	152184	26651	1076085	47020	110446	0	0	8159	523849	0	0
2024-09-05 23:48:47			0	38552	0	0	0	28129	26750	152220	27067	1076130	47020	110445	0	0	8159	523706	0	0
2024-09-05 23:49:47			0	38553	0	0	0	28137	26740	152208	26814	1076005	47020	110448	0	0	8159	523698	0	0
2024-09-05 23:50:47			0	38583	0	0	0	28127	26730	152124	26847	1076013	47029	110444	0	0	8161	522599	0	0
2024-09-05 23:51:47			0	38572	0	0	0	28119	26740	152088	27109	1076112	47031	110441	0	0	8161	522983	0	0
2024-09-05 23:52:47			0	38563	0	0	0	28129	26740	152104	27045	1076103	47041	110445	0	0	8160	523322	0	0
2024-09-05 23:53:47			0	38595	0	0	0	28132	26740	152168	27036	1076130	47030	110446	0	0	8162	522118	0	0
2024-09-05 23:54:47			0	38591	0	0	0	28135	26740	152140	26759	1076076	47030	110447	0	0	8161	522269	0	0
2024-09-05 23:55:47			0	38601	0	0	0	28140	26740	152064	26991	1076130	47030	110449	0	0	8162	521893	0	0
2024-09-05 23:56:47			0	38600	0	0	0	28129	26730	152004	26809	1076067	47029	110445	0	0	8162	521960	0	0
2024-09-05 23:57:47			0	38579	0	0	0	28122	26720	152036	27131	1076049	47029	110442	0	0	8161	522780	0	0
2024-09-05 23:58:47			0	38570	0	0	0	28119	26740	152072	27072	1076049	47030	110441	0	0	8161	523058	0	0
2024-09-05 23:59:47			0	38568	0	0	0	28132	26730	152220	26970	1076058	47040	110446	0	0	8160	523163	0	0
2024-09-06 00:00:47			0	38554	0	0	0	28132	26720	152156	27128	1076049	47029	110446	0	0	8159	523720	0	0
2024-09-06 00:01:47			0	38542	0	0	0	28140	26730	152324	26693	1076031	47040	110449	0	0	8159	524142	0	0
2024-09-06 00:02:47			0	38544	0	0	0	28129	26730	152340	26894	1076058	47029	110445	0	0	8159	524067	0	0
2024-09-06 00:03:47			0	38539	0	0	0	28148	26720	152416	27237	1076103	47029	110452	0	0	8158	524285	0	0
2024-09-06 00:04:47			0	38539	0	0	0	28137	26730	152236	26916	1076067	47040	110448	0	0	8158	524255	0	0
2024-09-06 00:05:47			0	38539	0	0	0	28129	26730	152336	27079	1076058	47029	110445	0	0	8159	524255	0	0
2024-09-06 00:06:47			0	38515	0	0	0	28132	26720	152380	26904	1076013	47039	110446	0	0	8157	525190	0	0
2024-09-06 00:07:47			0	38516	0	0	0	28145	26740	152352	26759	1076022	47019	110451	0	0	8157	525092	0	0
2024-09-06 00:08:47			0	38514	0	0	0	28137	26730	152360	27187	1076085	47051	110448	0	0	8157	525198	0	0
2024-09-06 00:09:47			0	38489	0	0	0	28137	26730	152520	27048	1076040	47029	110448	0	0	8156	526141	0	0
2024-09-06 00:10:47			0	38504	0	0	0	28127	26730	152448	26930	1076058	47051	110444	0	0	8157	525575	0	0
2024-09-06 00:11:47			0	38495	0	0	0	28127	26730	152316	27147	1076085	47029	110444	0	0	8156	525915	0	0
2024-09-06 00:12:47			0	38496	0	0	0	28135	26730	152380	27147	1076031	47029	110447	0	0	8156	525877	0	0
2024-09-06 00:13:47			0	38494	0	0	0	28124	26720	152396	26984	1076013	47028	110443	0	0	8156	525982	0	0
2024-09-06 00:14:47			0	38490	0	0	0	28111	26730	152444	27152	1075977	47029	110438	0	0	8156	526103	0	0
2024-09-06 00:15:47			0	38476	0	0	0	28119	26710	152472	26892	1075977	47027	110441	0	0	8155	526692	0	0
2024-09-06 00:16:47			0	38483	0	0	0	28116	26720	152492	26934	1075995	47040	110440	0	0	8156	526398	0	0
2024-09-06 00:17:47			0	38483	0	0	0	28111	26710	152436	26996	1076004	47027	110438	0	0	8156	526428	0	0
2024-09-06 00:18:47			0	38500	0	0	0	28106	26710	152368	27027	1075977	47049	110436	0	0	8157	525786	0	0
2024-09-06 00:19:47			0	38476	0	0	0	28085	26720	152408	27045	1075986	47039	110428	0	0	8156	526662	0	0
2024-09-06 00:20:47			0	38482	0	0	0	28096	26720	152464	26994	1075995	47017	110432	0	0	8156	526436	0	0
2024-09-06 00:21:47			0	38453	0	0	0	28098	26710	152576	27079	1075914	47038	110433	0	0	8154	527562	0	0
2024-09-06 00:22:47			0	38422	0	0	0	28088	26710	152664	27015	1075888	47038	110429	0	0	8152	528735	0	0
2024-09-06 00:23:47			0	38453	0	0	0	28085	26700	152584	27149	1075878	47015	110428	0	0	8154	527592	0	0
2024-09-06 00:24:47			0	38456	0	0	0	28085	26700	152556	27059	1075905	47027	110428	0	0	8154	527478	0	0
2024-09-06 00:25:47			0	38462	0	0	0	28080	26700	152600	27159	1075816	47037	110426	0	0	8155	527252	0	0
2024-09-06 00:26:47			0	38472	0	0	0	28067	26700	152548	27064	1075843	47026	110421	0	0	8156	526874	0	0
2024-09-06 00:27:47			0	38426	0	0	0	28070	26690	152724	27177	1075771	47024	110422	0	0	8153	528644	0	0
2024-09-06 00:28:47			0	38419	0	0	0	28093	26690	152720	26930	1075824	47035	110431	0	0	8152	528909	0	0
2024-09-06 00:29:47			0	38440	0	0	0	28093	26690	152720	27203	1075807	47025	110431	0	0	8153	528114	0	0
2024-09-06 00:30:47			0	38441	0	0	0	28096	26690	152528	26987	1075851	47024	110432	0	0	8153	528076	0	0
2024-09-06 00:31:47			0	38453	0	0	0	28106	26680	152652	26920	1075842	47035	110436	0	0	8154	527652	0	0
2024-09-06 00:32:47			0	38450	0	0	0	28106	26690	152536	26824	1075887	47036	110436	0	0	8154	527736	0	0
2024-09-06 00:33:47			0	38479	0	0	0	28111	26680	152480	27050	1075842	47035	110438	0	0	8155	526669	0	0
2024-09-06 00:34:47			0	38490	0	0	0	28106	26690	152412	26967	1075941	47036	110436	0	0	8156	526224	0	0
2024-09-06 00:35:47			0	38517	0	0	0	28114	26690	152332	27034	1075878	47035	110439	0	0	8157	525205	0	0
2024-09-06 00:36:47			0	38523	0	0	0	28103	26690	152260	27150	1075932	47035	110435	0	0	8158	524979	0	0
2024-09-06 00:37:47			0	38538	0	0	0	28101	26690	152300	27202	1075878	47012	110434	0	0	8159	524413	0	0
2024-09-06 00:38:47			0	38546	0	0	0	28106	26700	152244	27173	1075932	47038	110436	0	0	8159	524082	0	0
2024-09-06 00:39:47			0	38562	0	0	0	28101	26700	152208	26602	1075905	47027	110434	0	0	8160	523479	0	0
2024-09-06 00:40:47			0	38570	0	0	0	28106	26690	152128	26974	1075887	47013	110436	0	0	8161	523208	0	0
2024-09-06 00:41:47			0	38576	0	0	0	28098	26690	152140	26882	1075887	47025	110433	0	0	8161	522982	0	0
2024-09-06 00:42:47			0	38579	0	0	0	28103	26700	152136	27126	1075923	47026	110435	0	0	8161	522840	0	0
2024-09-06 00:43:47			0	38585	0	0	0	28109	26700	151996	27235	1075950	47037	110437	0	0	8161	522614	0	0
2024-09-06 00:44:47			0	38595	0	0	0	28109	26700	152048	27187	1075896	47037	110437	0	0	8162	522238	0	0
2024-09-06 00:45:47			0	38568	0	0	0	28111	26700	152076	26975	1075896	47037	110438	0	0	8160	523253	0	0
2024-09-06 00:46:47			0	38569	0	0	0	28103	26690	152144	27022	1075887	47036	110435	0	0	8161	523246	0	0
2024-09-06 00:47:47			0	38567	0	0	0	28093	26700	152164	27038	1075843	47026	110431	0	0	8161	523291	0	0
2024-09-06 00:48:47			0	38565	0	0	0	28103	26690	152188	26937	1075860	47036	110435	0	0	8160	523396	0	0
2024-09-06 00:49:47			0	38558	0	0	0	28098	26700	152244	27020	1075923	47048	110433	0	0	8160	523630	0	0
2024-09-06 00:50:47			0	38565	0	0	0	28106	26690	152188	27045	1075914	47036	110436	0	0	8160	523396	0	0
2024-09-06 00:51:47			0	38563	0	0	0	28093	26690	152236	27067	1075860	47025	110431	0	0	8160	523472	0	0
2024-09-06 00:52:47			0	38566	0	0	0	28088	26690	152076	27013	1075914	47013	110429	0	0	8161	523359	0	0
2024-09-06 00:53:47			0	38568	0	0	0	28093	26690	152184	26935	1075860	47036	110431	0	0	8161	523283	0	0
2024-09-06 00:54:47			0	38588	0	0	0	28098	26690	152188	27000	1075878	47035	110433	0	0	8162	522531	0	0
2024-09-06 00:55:47			0	38573	0	0	0	28109	26690	152176	26849	1075833	47025	110437	0	0	8161	523095	0	0
2024-09-06 00:56:47			0	38584	0	0	0	28098	26690	152284	27223	1075905	47024	110433	0	0	8161	522682	0	0
2024-09-06 00:57:47			0	38577	0	0	0	28106	26690	152056	26882	1075860	47036	110436	0	0	8161	522945	0	0
2024-09-06 00:58:47			0	38589	0	0	0	28109	26690	152064	27164	1075914	47025	110437	0	0	8162	522493	0	0
2024-09-06 00:59:47			0	38608	0	0	0	28098	26700	151932	27036	1075923	47037	110433	0	0	8163	521749	0	0
2024-09-06 01:00:47			0	38605	0	0	0	28096	26690	151988	27369	1075905	47024	110432	0	0	8163	521892	0	0
2024-09-06 01:01:47			0	38596	0	0	0	28090	26690	151932	27159	1075887	47047	110430	0	0	8162	522230	0	0
2024-09-06 01:02:47			0	38596	0	0	0	28093	26690	151924	27216	1075833	47036	110431	0	0	8162	522230	0	0
2024-09-06 01:03:47			0	38591	0	0	0	28096	26690	152112	27112	1075860	47036	110432	0	0	8162	522418	0	0
2024-09-06 01:04:47			0	38597	0	0	0	28096	26690	152040	26932	1075851	47024	110432	0	0	8162	522193	0	0
2024-09-06 01:05:47			0	38612	0	0	0	28085	26690	152016	27254	1075878	47035	110428	0	0	8163	521629	0	0
2024-09-06 01:06:47			0	38601	0	0	0	28077	26680	151972	27038	1075869	47035	110425	0	0	8163	522072	0	0
2024-09-06 01:07:47			0	38608	0	0	0	28096	26690	151920	26989	1075851	47045	110432	0	0	8163	521779	0	0
2024-09-06 01:08:47			0	38603	0	0	0	28096	26680	151928	27213	1075923	47035	110432	0	0	8163	521997	0	0
2024-09-06 01:09:47			0	38598	0	0	0	28096	26690	151964	27116	1075851	47035	110432	0	0	8162	522155	0	0
2024-09-06 01:10:47			0	38608	0	0	0	28101	26690	151984	27010	1075887	47036	110434	0	0	8163	521779	0	0
2024-09-06 01:11:47			0	38612	0	0	0	28083	26690	151944	26987	1075905	47012	110427	0	0	8163	521629	0	0
2024-09-06 01:12:47			0	38600	0	0	0	28096	26690	151888	27090	1075851	47045	110432	0	0	8162	522080	0	0
2024-09-06 01:13:47			0	38626	0	0	0	28096	26680	151952	26944	1075923	47035	110432	0	0	8164	521133	0	0
2024-09-06 01:14:47			0	38609	0	0	0	28085	26680	151896	26712	1075833	47035	110428	0	0	8163	521772	0	0
2024-09-06 01:15:47			0	38614	0	0	0	28080	26680	151948	26817	1075869	47045	110426	0	0	8163	521584	0	0
2024-09-06 01:16:47			0	38594	0	0	0	28070	26680	151924	26998	1075869	47024	110422	0	0	8162	522335	0	0
2024-09-06 01:17:47			0	38603	0	0	0	28077	26690	151960	26956	1075824	47024	110425	0	0	8163	521967	0	0
2024-09-06 01:18:47			0	38596	0	0	0	28080	26680	152016	26715	1075815	47024	110426	0	0	8162	522260	0	0
2024-09-06 01:19:47			0	38594	0	0	0	28090	26670	152096	26785	1075851	47023	110430	0	0	8162	522365	0	0
2024-09-06 01:20:47			0	38600	0	0	0	28083	26680	152112	26819	1075887	47035	110427	0	0	8163	522110	0	0
2024-09-06 01:21:47			0	38599	0	0	0	28083	26680	152060	27093	1075869	47024	110427	0	0	8163	522147	0	0
2024-09-06 01:22:47			0	38610	0	0	0	28085	26670	151956	27116	1075815	47033	110428	0	0	8163	521764	0	0
2024-09-06 01:23:47			0	38606	0	0	0	28085	26680	152048	26942	1075833	47024	110428	0	0	8163	521884	0	0
2024-09-06 01:24:47			0	38611	0	0	0	28075	26680	151952	26920	1075806	47045	110424	0	0	8163	521696	0	0
2024-09-06 01:25:47			0	38616	0	0	0	28051	26680	151984	27171	1075806	47024	110415	0	0	8164	521509	0	0
2024-09-06 01:26:47			0	38615	0	0	0	28054	26670	151960	27071	1075734	47022	110416	0	0	8164	521576	0	0
2024-09-06 01:27:47			0	38585	0	0	0	28057	26670	152100	26974	1075681	47010	110417	0	0	8162	522704	0	0
2024-09-06 01:28:47			0	38576	0	0	0	28075	26660	152176	26972	1075752	47022	110424	0	0	8161	523072	0	0
2024-09-06 01:29:47			0	38593	0	0	0	28064	26660	152108	27041	1075725	47022	110420	0	0	8162	522433	0	0
2024-09-06 01:30:47			0	38602	0	0	0	28070	26660	152072	27128	1075752	47010	110422	0	0	8163	522094	0	0
2024-09-06 01:31:47			0	38579	0	0	0	28064	26670	152180	27157	1075743	47023	110420	0	0	8162	522929	0	0
2024-09-06 01:32:47			0	38595	0	0	0	28054	26670	152204	27053	1075761	47033	110416	0	0	8163	522328	0	0
2024-09-06 01:33:47			0	38575	0	0	0	28059	26660	152132	27000	1075716	47022	110418	0	0	8161	523110	0	0
2024-09-06 01:34:47			0	38591	0	0	0	28064	26660	152152	26854	1075698	47022	110420	0	0	8162	522508	0	0
2024-09-06 01:35:47			0	38589	0	0	0	28062	26640	152068	27065	1075671	47008	110419	0	0	8162	522643	0	0
2024-09-06 01:36:47			0	38602	0	0	0	28072	26660	152140	26915	1075716	47022	110423	0	0	8163	522094	0	0
2024-09-06 01:37:47			0	38597	0	0	0	28077	26660	152136	26850	1075743	47022	110425	0	0	8162	522282	0	0
2024-09-06 01:38:47			0	38603	0	0	0	28070	26660	152016	26759	1075770	47010	110422	0	0	8163	522057	0	0
2024-09-06 01:39:47			0	38604	0	0	0	28062	26650	152136	27071	1075707	47021	110419	0	0	8163	522049	0	0
2024-09-06 01:40:47			0	38576	0	0	0	28080	26660	152116	26915	1075770	47022	110426	0	0	8161	523072	0	0
2024-09-06 01:41:47			0	38592	0	0	0	28067	26660	152096	27039	1075725	47033	110421	0	0	8162	522470	0	0
2024-09-06 01:42:47			0	38590	0	0	0	28075	26660	152108	27001	1075743	47044	110424	0	0	8162	522546	0	0
2024-09-06 01:43:47			0	38590	0	0	0	28057	26660	152072	26800	1075743	47010	110417	0	0	8162	522546	0	0
2024-09-06 01:44:47			0	38598	0	0	0	28062	26660	152104	27048	1075662	47033	110419	0	0	8163	522245	0	0
2024-09-06 01:45:47			0	38586	0	0	0	28059	26650	152136	26935	1075761	47032	110418	0	0	8162	522726	0	0
2024-09-06 01:46:47			0	38561	0	0	0	28059	26650	152120	26930	1075707	47021	110418	0	0	8161	523667	0	0
2024-09-06 01:47:47			0	38566	0	0	0	28049	26650	152256	27261	1075626	47021	110414	0	0	8161	523478	0	0
2024-09-06 01:48:47			0	38560	0	0	0	28070	26660	152252	27060	1075743	47044	110422	0	0	8160	523674	0	0
2024-09-06 01:49:47			0	38560	0	0	0	28062	26640	152296	27095	1075671	47020	110419	0	0	8160	523734	0	0
2024-09-06 01:50:47			0	38545	0	0	0	28041	26650	152276	27161	1075653	47021	110411	0	0	8160	524269	0	0
2024-09-06 01:51:47			0	38539	0	0	0	28059	26640	152368	27248	1075689	47020	110418	0	0	8159	524526	0	0
2024-09-06 01:52:47			0	38535	0	0	0	28067	26650	152320	27130	1075680	47021	110421	0	0	8159	524646	0	0
2024-09-06 01:53:47			0	38526	0	0	0	28054	26650	152356	27163	1075707	47021	110416	0	0	8159	524986	0	0
2024-09-06 01:54:47			0	38519	0	0	0	28070	26640	152368	26986	1075725	47031	110422	0	0	8158	525280	0	0
2024-09-06 01:55:47			0	38534	0	0	0	28059	26640	152292	27092	1075689	47020	110418	0	0	8159	524714	0	0
2024-09-06 01:56:47			0	38521	0	0	0	28067	26640	152432	26927	1075698	47020	110421	0	0	8158	525204	0	0
2024-09-06 01:57:47			0	38514	0	0	0	28054	26640	152368	27163	1075662	47008	110416	0	0	8158	525468	0	0
2024-09-06 01:58:47			0	38525	0	0	0	28057	26640	152336	26885	1075662	47031	110417	0	0	8159	525053	0	0
2024-09-06 01:59:47			0	38506	0	0	0	28051	26650	152416	27203	1075680	47042	110415	0	0	8158	525740	0	0
2024-09-06 02:00:47			0	38508	0	0	0	28051	26650	152480	27121	1075680	47009	110415	0	0	8158	525665	0	0
2024-09-06 02:01:47			0	38514	0	0	0	28057	26640	152496	27284	1075662	47020	110417	0	0	8158	525468	0	0
2024-09-06 02:02:47			0	38503	0	0	0	28031	26630	152504	27225	1075653	47031	110407	0	0	8158	525914	0	0
2024-09-06 02:03:47			0	38491	0	0	0	28025	26640	152464	26967	1075635	46998	110405	0	0	8157	526337	0	0
2024-09-06 02:04:47			0	38502	0	0	0	28018	26630	152420	26771	1075572	47020	110402	0	0	8158	525951	0	0
2024-09-06 02:05:47			0	38486	0	0	0	28025	26630	152480	26772	1075599	47008	110405	0	0	8157	526556	0	0
2024-09-06 02:06:47			0	38498	0	0	0	28036	26620	152516	27078	1075554	47029	110409	0	0	8157	526133	0	0
2024-09-06 02:07:47			0	38497	0	0	0	28033	26620	152636	27140	1075608	47029	110408	0	0	8157	526170	0	0
2024-09-06 02:08:47			0	38489	0	0	0	28023	26620	152448	26871	1075599	47017	110404	0	0	8157	526473	0	0
2024-09-06 02:09:47			0	38496	0	0	0	28023	26630	152432	27031	1075563	47007	110404	0	0	8157	526178	0	0
2024-09-06 02:10:47			0	38462	0	0	0	28015	26630	152656	27145	1075563	47019	110401	0	0	8156	527463	0	0
2024-09-06 02:11:47			0	38450	0	0	0	28028	26620	152588	27239	1075572	47017	110406	0	0	8155	527947	0	0
2024-09-06 02:12:47			0	38444	0	0	0	28020	26620	152752	27092	1075572	47028	110403	0	0	8154	528174	0	0
2024-09-06 02:13:47			0	38423	0	0	0	28025	26620	152620	26887	1075518	47039	110405	0	0	8153	528969	0	0
2024-09-06 02:14:47			0	38429	0	0	0	28041	26610	152668	26776	1075536	47017	110411	0	0	8153	528772	0	0
2024-09-06 02:15:47			0	38448	0	0	0	28038	26620	152548	27116	1075626	47017	110410	0	0	8154	528023	0	0
2024-09-06 02:16:47			0	38456	0	0	0	28025	26620	152588	27182	1075581	47006	110405	0	0	8155	527720	0	0
2024-09-06 02:17:47			0	38458	0	0	0	28023	26620	152616	27045	1075581	47029	110404	0	0	8155	527644	0	0
2024-09-06 02:18:47			0	38454	0	0	0	28036	26620	152568	27027	1075527	47018	110409	0	0	8155	527796	0	0
2024-09-06 02:19:47			0	38448	0	0	0	28020	26620	152552	26752	1075572	47017	110403	0	0	8155	528023	0	0
2024-09-06 02:20:47			0	38442	0	0	0	28025	26610	152716	27102	1075509	47017	110405	0	0	8154	528280	0	0
2024-09-06 02:21:47			0	38429	0	0	0	28025	26620	152828	26918	1075464	47028	110405	0	0	8153	528742	0	0
2024-09-06 02:22:47			0	38445	0	0	0	28036	26620	152776	27022	1075572	47028	110409	0	0	8154	528136	0	0
2024-09-06 02:23:47			0	38425	0	0	0	28023	26610	152712	27218	1075536	47028	110404	0	0	8153	528924	0	0
2024-09-06 02:24:47			0	38440	0	0	0	28028	26610	152764	27008	1075509	47017	110406	0	0	8154	528356	0	0
2024-09-06 02:25:47			0	38433	0	0	0	28033	26620	152760	27150	1075491	47028	110408	0	0	8154	528591	0	0
2024-09-06 02:26:47			0	38420	0	0	0	28033	26620	152684	27272	1075491	47017	110408	0	0	8153	529083	0	0
2024-09-06 02:27:47			0	38417	0	0	0	28033	26610	152764	27360	1075563	47005	110408	0	0	8153	529227	0	0
2024-09-06 02:28:47			0	38429	0	0	0	28018	26610	152844	27293	1075563	47017	110402	0	0	8154	528772	0	0
2024-09-06 02:29:47			0	38396	0	0	0	28015	26610	152924	27137	1075563	47017	110401	0	0	8152	530023	0	0
2024-09-06 02:30:47			0	38383	0	0	0	28010	26610	152792	27275	1075446	47028	110399	0	0	8151	530517	0	0
2024-09-06 02:31:47			0	38375	0	0	0	28020	26610	152744	27097	1075473	47028	110403	0	0	8150	530820	0	0
2024-09-06 02:32:47			0	38372	0	0	0	28025	26600	152912	26977	1075410	47004	110405	0	0	8150	530965	0	0
2024-09-06 02:33:47			0	38393	0	0	0	28020	26610	152908	27194	1075446	47017	110403	0	0	8151	530137	0	0
2024-09-06 02:34:47			0	38370	0	0	0	28015	26600	153004	27414	1075518	47027	110401	0	0	8150	531041	0	0
2024-09-06 02:35:47			0	38346	0	0	0	28015	26600	152992	27100	1075491	47027	110401	0	0	8149	531953	0	0
2024-09-06 02:36:47			0	38339	0	0	0	28020	26610	153088	26819	1075482	47028	110403	0	0	8148	532188	0	0
2024-09-06 02:37:47			0	38350	0	0	0	28012	26600	152976	27066	1075455	47015	110400	0	0	8149	531801	0	0
2024-09-06 02:38:47			0	38326	0	0	0	28020	26600	153060	27281	1075410	47027	110403	0	0	8148	532714	0	0
2024-09-06 02:39:47			0	38324	0	0	0	28018	26600	153092	27185	1075437	47027	110402	0	0	8147	532790	0	0
2024-09-06 02:40:47			0	38322	0	0	0	28012	26600	153152	27244	1075455	47015	110400	0	0	8147	532866	0	0
2024-09-06 02:41:47			0	38315	0	0	0	28005	26590	153136	27013	1075392	47003	110397	0	0	8147	533163	0	0
2024-09-06 02:42:47			0	38301	0	0	0	28002	26600	153160	27331	1075357	47027	110396	0	0	8146	533665	0	0
2024-09-06 02:43:47			0	38311	0	0	0	27989	26600	153228	27201	1075455	47015	110391	0	0	8147	533285	0	0
2024-09-06 02:44:47			0	38284	0	0	0	27992	26600	153248	26883	1075482	47026	110392	0	0	8146	534313	0	0
2024-09-06 02:45:47			0	38279	0	0	0	27989	26590	153352	27201	1075437	47015	110391	0	0	8145	534535	0	0
2024-09-06 02:46:47			0	38261	0	0	0	27992	26590	153392	27031	1075329	47026	110392	0	0	8144	535221	0	0
2024-09-06 02:47:47			0	38257	0	0	0	27992	26590	153416	27093	1075383	47015	110392	0	0	8144	535374	0	0
2024-09-06 02:48:47			0	38261	0	0	0	28002	26590	153416	26913	1075383	47015	110396	0	0	8144	535221	0	0
2024-09-06 02:49:47			0	38279	0	0	0	27989	26580	153432	27187	1075374	47014	110391	0	0	8145	534565	0	0
2024-09-06 02:50:47			0	38254	0	0	0	27989	26590	153440	27057	1075356	47026	110391	0	0	8144	535488	0	0
2024-09-06 02:51:47			0	38246	0	0	0	27999	26590	153472	27123	1075383	47015	110395	0	0	8143	535794	0	0
2024-09-06 02:52:47			0	38262	0	0	0	27984	26580	153568	27235	1075374	47014	110389	0	0	8144	535214	0	0
2024-09-06 02:53:47			0	38228	0	0	0	27986	26570	153536	26878	1075302	47001	110390	0	0	8142	536543	0	0
2024-09-06 02:54:47			0	38215	0	0	0	27974	26580	153552	27187	1075374	47014	110385	0	0	8142	537009	0	0
2024-09-06 02:55:47			0	38216	0	0	0	27976	26580	153512	27060	1075294	47025	110386	0	0	8142	536971	0	0
2024-09-06 02:56:47			0	38199	0	0	0	27966	26580	153612	27286	1075311	47013	110382	0	0	8141	537622	0	0
2024-09-06 02:57:47			0	38197	0	0	0	27974	26570	153696	27258	1075320	47013	110385	0	0	8141	537729	0	0
2024-09-06 02:58:47			0	38185	0	0	0	27966	26570	153796	27145	1075320	47001	110382	0	0	8140	538188	0	0
2024-09-06 02:59:47			0	38174	0	0	0	27974	26570	153708	26993	1075266	47024	110385	0	0	8139	538610	0	0
2024-09-06 03:00:47			0	38179	0	0	0	27971	26570	153788	27012	1075266	47013	110384	0	0	8140	538418	0	0
2024-09-06 03:01:47			0	38160	0	0	0	27963	26570	153864	27235	1075320	47024	110381	0	0	8139	539147	0	0
2024-09-06 03:02:47			0	38158	0	0	0	27961	26570	153856	27235	1075293	47024	110380	0	0	8139	539223	0	0
2024-09-06 03:03:47			0	38142	0	0	0	27958	26560	153884	27100	1075257	47023	110379	0	0	8138	539868	0	0
2024-09-06 03:04:47			0	38146	0	0	0	27966	26570	153820	27116	1075240	47001	110382	0	0	8138	539683	0	0
2024-09-06 03:05:47			0	38135	0	0	0	27955	26560	153920	27307	1075204	47000	110378	0	0	8137	540137	0	0
2024-09-06 03:06:47			0	38147	0	0	0	27945	26560	153972	27208	1075204	47012	110374	0	0	8138	539676	0	0
2024-09-06 03:07:47			0	38122	0	0	0	27958	26560	154012	27026	1075168	47011	110379	0	0	8137	540636	0	0
2024-09-06 03:08:47			0	38141	0	0	0	27955	26550	153924	26928	1075212	47011	110378	0	0	8138	539937	0	0
2024-09-06 03:09:47			0	38143	0	0	0	27948	26550	153988	27045	1075176	47021	110375	0	0	8138	539860	0	0
2024-09-06 03:10:47			0	38125	0	0	0	27948	26550	154040	27159	1075230	47021	110375	0	0	8137	540551	0	0
2024-09-06 03:11:47			0	38108	0	0	0	27950	26550	154108	27083	1075159	47011	110376	0	0	8136	541205	0	0
2024-09-06 03:12:47			0	38104	0	0	0	27942	26550	154160	27017	1075176	47010	110373	0	0	8136	541358	0	0
2024-09-06 03:13:47			0	38086	0	0	0	27940	26530	154184	27088	1075122	46997	110372	0	0	8135	542113	0	0
2024-09-06 03:14:47			0	38062	0	0	0	27940	26540	154176	27144	1075158	47009	110372	0	0	8133	543006	0	0
2024-09-06 03:15:47			0	38035	0	0	0	27932	26550	154228	27237	1075069	47010	110369	0	0	8132	544015	0	0
2024-09-06 03:16:47			0	38029	0	0	0	27922	26540	154371	27102	1075060	46999	110365	0	0	8132	544278	0	0
2024-09-06 03:17:47			0	38025	0	0	0	27927	26540	154431	26949	1075077	47009	110367	0	0	8132	544432	0	0
2024-09-06 03:18:47			0	38029	0	0	0	27924	26540	154399	27190	1075114	47010	110366	0	0	8132	544278	0	0
2024-09-06 03:19:47			0	38016	0	0	0	27937	26540	154363	27329	1075050	47009	110371	0	0	8131	544779	0	0
2024-09-06 03:20:47			0	38003	0	0	0	27940	26530	154355	27267	1075095	47030	110372	0	0	8130	545312	0	0
2024-09-06 03:21:47			0	38026	0	0	0	27927	26540	154335	27274	1075158	47009	110367	0	0	8132	544393	0	0
2024-09-06 03:22:47			0	38030	0	0	0	27924	26540	154395	26875	1075104	47020	110366	0	0	8132	544239	0	0
2024-09-06 03:23:47			0	38030	0	0	0	27922	26540	154284	27400	1075104	47020	110365	0	0	8132	544239	0	0
2024-09-06 03:24:47			0	38029	0	0	0	27916	26530	154260	27078	1075068	47008	110363	0	0	8132	544309	0	0
2024-09-06 03:25:47			0	38052	0	0	0	27924	26530	154288	26870	1075095	47008	110366	0	0	8133	543422	0	0
2024-09-06 03:26:47			0	38026	0	0	0	27914	26520	154251	27338	1075050	47008	110362	0	0	8132	544455	0	0
2024-09-06 03:27:47			0	38035	0	0	0	27911	26520	154336	27332	1074970	47008	110361	0	0	8132	544108	0	0
2024-09-06 03:28:47			0	38034	0	0	0	27916	26520	154308	27235	1075023	47008	110363	0	0	8132	544147	0	0
2024-09-06 03:29:47			0	38023	0	0	0	27906	26520	154335	27228	1075014	47007	110359	0	0	8132	544571	0	0
2024-09-06 03:30:47			0	38033	0	0	0	27906	26530	154348	26958	1075032	47019	110359	0	0	8132	544154	0	0
2024-09-06 03:31:47			0	38009	0	0	0	27896	26510	154339	27256	1074978	47006	110355	0	0	8131	545143	0	0
2024-09-06 03:32:47			0	38005	0	0	0	27898	26510	154559	26946	1074969	47017	110356	0	0	8131	545297	0	0
2024-09-06 03:33:47			0	37989	0	0	0	27903	26510	154495	27046	1074978	47017	110358	0	0	8130	545916	0	0
2024-09-06 03:34:47			0	37977	0	0	0	27909	26510	154511	27180	1074889	47006	110360	0	0	8129	546379	0	0
2024-09-06 03:35:47			0	37952	0	0	0	27903	26500	154547	26876	1074933	47017	110358	0	0	8128	547378	0	0
2024-09-06 03:36:47			0	37943	0	0	0	27901	26510	154671	26864	1074898	47017	110357	0	0	8127	547695	0	0
2024-09-06 03:37:47			0	37943	0	0	0	27888	26510	154723	27036	1074969	47028	110352	0	0	8127	547695	0	0
2024-09-06 03:38:47			0	37917	0	0	0	27901	26500	154719	27367	1074880	47017	110357	0	0	8126	548734	0	0
2024-09-06 03:39:47			0	37945	0	0	0	27885	26500	154627	27045	1074871	47016	110351	0	0	8127	547649	0	0
2024-09-06 03:40:47			0	37907	0	0	0	27885	26500	154763	26684	1074924	46994	110351	0	0	8125	549122	0	0
2024-09-06 03:41:47			0	37934	0	0	0	27870	26500	154767	27095	1074817	47005	110345	0	0	8127	548075	0	0
2024-09-06 03:42:47			0	37903	0	0	0	27885	26490	154867	27086	1074826	47004	110351	0	0	8125	549309	0	0
2024-09-06 03:43:47			0	37904	0	0	0	27877	26480	154855	27249	1074817	46992	110348	0	0	8125	549301	0	0
2024-09-06 03:44:47			0	37914	0	0	0	27867	26480	154883	26804	1074790	47003	110344	0	0	8126	548913	0	0
2024-09-06 03:45:47			0	37915	0	0	0	27857	26480	154775	26991	1074754	47003	110340	0	0	8126	548874	0	0
2024-09-06 03:46:47			0	37912	0	0	0	27862	26480	154863	27190	1074736	47003	110342	0	0	8126	548991	0	0
2024-09-06 03:47:47			0	37912	0	0	0	27854	26480	154835	27069	1074781	46992	110339	0	0	8126	548991	0	0
2024-09-06 03:48:47			0	37906	0	0	0	27870	26470	154927	26902	1074763	46991	110345	0	0	8125	549255	0	0
2024-09-06 03:49:47			0	37862	0	0	0	27877	26470	154911	27173	1074736	47001	110348	0	0	8123	550964	0	0
2024-09-06 03:50:47			0	37901	0	0	0	27880	26460	154879	26955	1074754	47012	110349	0	0	8125	549480	0	0
2024-09-06 03:51:47			0	37875	0	0	0	27888	26480	155083	27039	1074727	47003	110352	0	0	8123	550427	0	0
2024-09-06 03:52:47			0	37863	0	0	0	27883	26480	155063	27325	1074781	47025	110350	0	0	8123	550894	0	0
2024-09-06 03:53:47			0	37868	0	0	0	27872	26480	155047	27123	1074754	47025	110346	0	0	8123	550699	0	0
2024-09-06 03:54:47			0	37860	0	0	0	27877	26470	155015	26953	1074691	47013	110348	0	0	8122	551042	0	0
2024-09-06 03:55:47			0	37861	0	0	0	27880	26480	155107	26949	1074808	47014	110349	0	0	8123	550971	0	0
2024-09-06 03:56:47			0	37852	0	0	0	27877	26470	155111	27050	1074772	47013	110348	0	0	8122	551353	0	0
2024-09-06 03:57:47			0	37845	0	0	0	27883	26460	155139	27197	1074727	47000	110350	0	0	8121	551657	0	0
2024-09-06 03:58:47			0	37850	0	0	0	27888	26480	155203	27092	1074808	47025	110352	0	0	8122	551399	0	0
2024-09-06 03:59:47			0	37827	0	0	0	27890	26470	155211	27123	1074736	47024	110353	0	0	8120	552326	0	0
2024-09-06 04:00:47			0	37822	0	0	0	27898	26470	155171	27131	1074798	47001	110356	0	0	8120	552520	0	0
2024-09-06 04:01:47			0	37843	0	0	0	27893	26480	155167	27154	1074817	47014	110354	0	0	8121	551671	0	0
2024-09-06 04:02:47			0	37831	0	0	0	27896	26480	155143	26894	1074861	47014	110355	0	0	8121	552138	0	0
2024-09-06 04:03:47			0	37843	0	0	0	27888	26480	155103	27010	1074790	47014	110352	0	0	8121	551671	0	0
2024-09-06 04:04:47			0	37845	0	0	0	27896	26480	155231	27154	1074808	47014	110355	0	0	8121	551594	0	0
2024-09-06 04:05:47			0	37851	0	0	0	27940	26480	155207	27249	1074897	47014	110372	0	0	8121	551360	0	0
2024-09-06 04:06:47			0	37850	0	0	0	27932	26480	155247	27081	1074888	47025	110369	0	0	8121	551399	0	0
2024-09-06 04:07:47			0	37827	0	0	0	27922	26490	155219	26968	1074906	47026	110365	0	0	8120	552263	0	0
2024-09-06 04:08:47			0	37815	0	0	0	27914	26500	155203	27024	1075032	47027	110362	0	0	8119	552698	0	0
2024-09-06 04:09:47			0	37805	0	0	0	27909	26490	155207	26892	1074969	47015	110360	0	0	8119	553120	0	0
2024-09-06 04:10:47			0	37788	0	0	0	27909	26490	155391	27287	1074969	47004	110360	0	0	8118	553782	0	0
2024-09-06 04:11:47			0	37783	0	0	0	27898	26490	155411	27041	1074862	47015	110356	0	0	8118	553977	0	0
2024-09-06 04:12:47			0	37779	0	0	0	27896	26500	155335	27164	1074924	47016	110355	0	0	8118	554102	0	0
2024-09-06 04:13:47			0	37790	0	0	0	27903	26490	155351	27300	1074915	47004	110358	0	0	8118	553704	0	0
2024-09-06 04:14:47			0	37795	0	0	0	27893	26490	155287	27189	1074933	47015	110354	0	0	8119	553510	0	0
2024-09-06 04:15:47			0	37804	0	0	0	27906	26490	155323	27045	1074862	47015	110359	0	0	8119	553158	0	0
2024-09-06 04:16:47			0	37793	0	0	0	27898	26490	155323	27123	1074942	47004	110356	0	0	8118	553587	0	0
2024-09-06 04:17:47			0	37821	0	0	0	27893	26500	155231	26665	1074951	47016	110354	0	0	8120	552465	0	0
2024-09-06 04:18:47			0	37805	0	0	0	27898	26490	155295	26951	1074862	47015	110356	0	0	8119	553120	0	0
2024-09-06 04:19:47			0	37824	0	0	0	27885	26500	155271	27001	1074978	47005	110351	0	0	8120	552348	0	0
2024-09-06 04:20:47			0	37830	0	0	0	27898	26500	155111	27104	1074853	47017	110356	0	0	8121	552114	0	0
2024-09-06 04:21:47			0	37842	0	0	0	27906	26490	155183	26819	1074906	46993	110359	0	0	8121	551679	0	0
2024-09-06 04:22:47			0	37843	0	0	0	27890	26490	155175	27064	1074879	47015	110353	0	0	8121	551640	0	0
2024-09-06 04:23:47			0	37838	0	0	0	27883	26490	155067	26866	1074879	47015	110350	0	0	8121	551834	0	0
2024-09-06 04:24:47			0	37834	0	0	0	27867	26500	155239	27374	1074817	47005	110344	0	0	8121	551959	0	0
2024-09-06 04:25:47			0	37814	0	0	0	27857	26480	155271	27013	1074843	47003	110340	0	0	8120	552801	0	0
2024-09-06 04:26:47			0	37795	0	0	0	27854	26480	155367	26994	1074808	47003	110339	0	0	8119	553541	0	0
2024-09-06 04:27:47			0	37783	0	0	0	27849	26490	155423	27104	1074799	47004	110337	0	0	8119	553977	0	0
2024-09-06 04:28:47			0	37771	0	0	0	27857	26470	155543	26911	1074718	47001	110340	0	0	8118	554509	0	0
2024-09-06 04:29:47			0	37765	0	0	0	27854	26470	155615	27381	1074772	47013	110339	0	0	8117	554743	0	0
2024-09-06 04:30:47			0	37755	0	0	0	27859	26470	155567	27064	1074772	47001	110341	0	0	8117	555134	0	0
2024-09-06 04:31:47			0	37769	0	0	0	27854	26470	155531	27249	1074709	47001	110339	0	0	8118	554587	0	0
2024-09-06 04:32:47			0	37770	0	0	0	27846	26460	155563	26981	1074727	47012	110336	0	0	8118	554580	0	0
2024-09-06 04:33:47			0	37752	0	0	0	27851	26470	155559	27222	1074763	47001	110338	0	0	8117	555251	0	0
2024-09-06 04:34:47			0	37737	0	0	0	27841	26480	155499	27286	1074781	47003	110334	0	0	8116	555806	0	0
2024-09-06 04:35:47			0	37760	0	0	0	27823	26460	155559	27187	1074619	46990	110327	0	0	8118	554970	0	0
2024-09-06 04:36:47			0	37747	0	0	0	27831	26460	155539	27358	1074700	47000	110330	0	0	8117	555478	0	0
2024-09-06 04:37:47			0	37718	0	0	0	27828	26450	155675	27286	1074619	47011	110329	0	0	8115	556644	0	0
2024-09-06 04:38:47			0	37719	0	0	0	27838	26440	155743	27341	1074637	46988	110333	0	0	8115	556637	0	0
2024-09-06 04:39:47			0	37722	0	0	0	27857	26450	155767	27038	1074619	46989	110340	0	0	8115	556488	0	0
2024-09-06 04:40:47			0	37713	0	0	0	27838	26430	155767	26866	1074565	47009	110333	0	0	8114	556904	0	0
2024-09-06 04:41:47			0	37731	0	0	0	27833	26440	155691	27234	1074610	47000	110331	0	0	8116	556168	0	0
2024-09-06 04:42:47			0	37710	0	0	0	27831	26440	155703	27215	1074610	46988	110330	0	0	8114	556989	0	0
2024-09-06 04:43:47			0	37716	0	0	0	27833	26440	155747	27213	1074610	47000	110331	0	0	8115	556754	0	0
2024-09-06 04:44:47			0	37697	0	0	0	27828	26440	155751	27263	1074637	46988	110329	0	0	8114	557498	0	0
2024-09-06 04:45:47			0	37704	0	0	0	27810	26450	155851	26953	1074619	47000	110322	0	0	8114	557192	0	0
2024-09-06 04:46:47			0	37688	0	0	0	27799	26430	155899	27498	1074556	46997	110318	0	0	8114	557883	0	0
2024-09-06 04:47:47			0	37683	0	0	0	27810	26430	155971	26864	1074511	46987	110322	0	0	8113	558079	0	0
2024-09-06 04:48:47			0	37653	0	0	0	27815	26420	156027	27060	1074520	47008	110324	0	0	8111	559288	0	0
2024-09-06 04:49:47			0	37626	0	0	0	27823	26430	156135	27275	1074556	46997	110327	0	0	8110	560316	0	0
2024-09-06 04:50:47			0	37614	0	0	0	27810	26410	156227	26981	1074528	46996	110322	0	0	8109	560852	0	0
2024-09-06 04:51:47			0	37582	0	0	0	27828	26420	156287	26984	1074484	46996	110329	0	0	8107	562080	0	0
2024-09-06 04:52:47			0	37591	0	0	0	27823	26420	156375	26953	1074484	47007	110327	0	0	8108	561725	0	0
2024-09-06 04:53:47			0	37590	0	0	0	27831	26420	156379	26932	1074547	47008	110330	0	0	8107	561765	0	0
2024-09-06 04:54:47			0	37569	0	0	0	27820	26420	156451	26646	1074466	47008	110326	0	0	8106	562592	0	0
2024-09-06 04:55:47			0	37562	0	0	0	27812	26420	156523	27189	1074484	47007	110323	0	0	8106	562868	0	0
2024-09-06 04:56:47			0	37541	0	0	0	27810	26410	156527	27024	1074475	46996	110322	0	0	8105	563728	0	0
2024-09-06 04:57:47			0	37542	0	0	0	27818	26410	156475	27261	1074528	47007	110325	0	0	8105	563689	0	0
2024-09-06 04:58:47			0	37536	0	0	0	27825	26420	156587	27256	1074564	47007	110328	0	0	8104	563893	0	0
2024-09-06 04:59:47			0	37526	0	0	0	27825	26420	156539	27235	1074511	47018	110328	0	0	8104	564288	0	0
2024-09-06 05:00:47			0	37503	0	0	0	27818	26410	156631	27341	1074582	47007	110325	0	0	8102	565229	0	0
2024-09-06 05:01:47			0	37493	0	0	0	27820	26420	156727	27409	1074537	47007	110326	0	0	8102	565592	0	0
2024-09-06 05:02:47			0	37473	0	0	0	27825	26420	156743	27033	1074520	46997	110328	0	0	8101	566383	0	0
2024-09-06 05:03:47			0	37460	0	0	0	27815	26420	156751	27145	1074601	46986	110324	0	0	8100	566898	0	0
2024-09-06 05:04:47			0	37454	0	0	0	27823	26430	156691	27341	1074502	46997	110327	0	0	8100	567103	0	0
2024-09-06 05:05:47			0	37440	0	0	0	27825	26420	156815	27121	1074493	47008	110328	0	0	8099	567690	0	0
2024-09-06 05:06:47			0	37435	0	0	0	27825	26410	156779	27338	1074475	46996	110328	0	0	8098	567921	0	0
2024-09-06 05:07:47			0	37410	0	0	0	27831	26420	156863	27244	1074484	46996	110330	0	0	8097	568880	0	0
2024-09-06 05:08:47			0	37414	0	0	0	27833	26410	156971	27242	1074501	47007	110331	0	0	8097	568754	0	0
2024-09-06 05:09:47			0	37422	0	0	0	27838	26420	156855	27346	1074493	46997	110333	0	0	8097	568404	0	0
2024-09-06 05:10:47			0	37422	0	0	0	27833	26420	156827	27244	1074591	46996	110331	0	0	8098	568404	0	0
2024-09-06 05:11:47			0	37464	0	0	0	27831	26420	156751	27010	1074564	47007	110330	0	0	8100	566739	0	0
2024-09-06 05:12:47			0	37447	0	0	0	27859	26420	156735	27312	1074537	46996	110341	0	0	8099	567413	0	0
2024-09-06 05:13:47			0	37455	0	0	0	27875	26430	156783	27171	1074610	47019	110347	0	0	8099	567063	0	0
2024-09-06 05:14:47			0	37469	0	0	0	27880	26440	156703	27326	1074708	47010	110349	0	0	8100	566477	0	0
2024-09-06 05:15:47			0	37482	0	0	0	27859	26440	156575	27249	1074735	47021	110341	0	0	8101	565962	0	0
2024-09-06 05:16:47			0	37496	0	0	0	27862	26450	156547	27078	1074700	47000	110342	0	0	8101	565376	0	0
2024-09-06 05:17:47			0	37482	0	0	0	27849	26440	156611	27159	1074664	47010	110337	0	0	8101	565962	0	0
2024-09-06 05:18:47			0	37477	0	0	0	27857	26440	156551	26915	1074610	47000	110340	0	0	8100	566160	0	0
2024-09-06 05:19:47			0	37489	0	0	0	27864	26440	156571	27138	1074681	47021	110343	0	0	8101	565685	0	0
2024-09-06 05:20:47			0	37482	0	0	0	27870	26440	156551	27197	1074735	47010	110345	0	0	8100	565962	0	0
2024-09-06 05:21:47			0	37478	0	0	0	27875	26450	156631	26885	1074735	47011	110347	0	0	8100	566088	0	0
2024-09-06 05:22:47			0	37484	0	0	0	27875	26440	156643	27050	1074744	47010	110347	0	0	8101	565883	0	0
2024-09-06 05:23:47			0	37482	0	0	0	27875	26450	156595	26972	1074789	47022	110347	0	0	8100	565930	0	0
2024-09-06 05:24:47			0	37461	0	0	0	27888	26450	156655	27284	1074726	47000	110352	0	0	8099	566761	0	0
2024-09-06 05:25:47			0	37472	0	0	0	27903	26450	156607	27182	1074762	47000	110358	0	0	8099	566326	0	0
2024-09-06 05:26:47			0	37466	0	0	0	27890	26470	156619	27140	1074763	47013	110353	0	0	8099	566498	0	0
2024-09-06 05:27:47			0	37466	0	0	0	27890	26460	156603	27046	1074834	47012	110353	0	0	8099	566531	0	0
2024-09-06 05:28:47			0	37492	0	0	0	27872	26470	156655	27286	1074736	47024	110346	0	0	8101	565470	0	0
2024-09-06 05:29:47			0	37490	0	0	0	27885	26470	156515	27357	1074772	47013	110351	0	0	8101	565549	0	0
2024-09-06 05:30:47			0	37475	0	0	0	27880	26460	156663	27232	1074807	47012	110349	0	0	8100	566174	0	0
2024-09-06 05:31:47			0	37467	0	0	0	27870	26460	156667	27185	1074834	47012	110345	0	0	8100	566491	0	0
2024-09-06 05:32:47			0	37476	0	0	0	27872	26470	156671	27249	1074789	47013	110346	0	0	8100	566102	0	0
2024-09-06 05:33:47			0	37469	0	0	0	27875	26470	156735	27312	1074816	47001	110347	0	0	8100	566379	0	0
2024-09-06 05:34:47			0	37451	0	0	0	27864	26460	156679	26901	1074825	47012	110343	0	0	8099	567125	0	0
2024-09-06 05:35:47			0	37445	0	0	0	27870	26460	156723	27010	1074718	46990	110345	0	0	8098	567362	0	0
2024-09-06 05:36:47			0	37428	0	0	0	27885	26460	156719	27192	1074780	47000	110351	0	0	8097	568036	0	0
2024-09-06 05:37:47			0	37448	0	0	0	27872	26460	156735	27293	1074807	47012	110346	0	0	8099	567243	0	0
2024-09-06 05:38:47			0	37441	0	0	0	27880	26470	156815	27310	1074789	47001	110349	0	0	8098	567488	0	0
2024-09-06 05:39:47			0	37433	0	0	0	27875	26470	156683	27274	1074870	47013	110347	0	0	8098	567806	0	0
2024-09-06 05:40:47			0	37438	0	0	0	27877	26460	156723	27400	1074807	47012	110348	0	0	8098	567640	0	0
2024-09-06 05:41:47			0	37434	0	0	0	27872	26460	156647	27235	1074807	47012	110346	0	0	8098	567798	0	0
2024-09-06 05:42:47			0	37435	0	0	0	27872	26480	156811	27189	1074808	47003	110346	0	0	8098	567694	0	0
2024-09-06 05:43:47			0	37427	0	0	0	27870	26470	156863	27369	1074789	47013	110345	0	0	8097	568043	0	0
2024-09-06 05:44:47			0	37427	0	0	0	27859	26470	156683	27003	1074816	47001	110341	0	0	8098	568043	0	0
2024-09-06 05:45:47			0	37432	0	0	0	27859	26470	156715	27055	1074736	47001	110341	0	0	8098	567845	0	0
2024-09-06 05:46:47			0	37422	0	0	0	27859	26470	156795	27104	1074709	47013	110341	0	0	8097	568242	0	0
2024-09-06 05:47:47			0	37443	0	0	0	27854	26470	156795	27131	1074763	47001	110339	0	0	8099	567409	0	0
2024-09-06 05:48:47			0	37411	0	0	0	27846	26460	156903	27235	1074727	47012	110336	0	0	8097	568711	0	0
2024-09-06 05:49:47			0	37413	0	0	0	27849	26450	156803	27036	1074682	47000	110337	0	0	8097	568664	0	0
2024-09-06 05:50:47			0	37392	0	0	0	27849	26450	156847	26934	1074673	47011	110337	0	0	8096	569497	0	0
2024-09-06 05:51:47			0	37405	0	0	0	27857	26460	156851	27147	1074718	47000	110340	0	0	8096	568949	0	0
2024-09-06 05:52:47			0	37425	0	0	0	27862	26450	156883	26946	1074700	47000	110342	0	0	8097	568188	0	0
2024-09-06 05:53:47			0	37425	0	0	0	27867	26450	156715	27090	1074762	47000	110344	0	0	8097	568188	0	0
2024-09-06 05:54:47			0	37440	0	0	0	27867	26460	156783	27341	1074718	47012	110344	0	0	8098	567560	0	0
2024-09-06 05:55:47			0	37440	0	0	0	27864	26450	156683	27281	1074682	47000	110343	0	0	8098	567593	0	0
2024-09-06 05:56:47			0	37462	0	0	0	27854	26450	156791	27199	1074709	47000	110339	0	0	8100	566721	0	0
2024-09-06 05:57:47			0	37472	0	0	0	27849	26460	156787	27209	1074744	47012	110337	0	0	8100	566293	0	0
2024-09-06 05:58:47			0	37458	0	0	0	27849	26460	156895	27421	1074700	47012	110337	0	0	8100	566847	0	0
2024-09-06 05:59:47			0	37454	0	0	0	27846	26450	156747	27649	1074682	47011	110336	0	0	8099	567038	0	0
2024-09-06 06:00:47			0	37443	0	0	0	27841	26450	156707	27170	1074700	46989	110334	0	0	8099	567474	0	0
2024-09-06 06:01:47			0	37456	0	0	0	27836	26450	156583	27396	1074628	47000	110332	0	0	8100	566959	0	0
2024-09-06 06:02:47			0	37477	0	0	0	27836	26440	156591	27123	1074664	47000	110332	0	0	8101	566160	0	0
2024-09-06 06:03:47			0	37468	0	0	0	27831	26450	156691	26927	1074619	47000	110330	0	0	8100	566484	0	0
2024-09-06 06:04:47			0	37463	0	0	0	27836	26440	156615	27150	1074547	47000	110332	0	0	8100	566714	0	0
2024-09-06 06:05:47			0	37491	0	0	0	27831	26440	156603	27313	1074610	47010	110330	0	0	8102	565606	0	0
2024-09-06 06:06:47			0	37481	0	0	0	27820	26430	156603	27248	1074645	46998	110326	0	0	8101	566034	0	0
2024-09-06 06:07:47			0	37495	0	0	0	27833	26440	156515	27251	1074601	47000	110331	0	0	8102	565448	0	0
2024-09-06 06:08:47			0	37473	0	0	0	27833	26440	156495	27019	1074637	47000	110331	0	0	8101	566318	0	0
2024-09-06 06:09:47			0	37491	0	0	0	27838	26440	156439	27289	1074547	47010	110333	0	0	8102	565606	0	0
2024-09-06 06:10:47			0	37506	0	0	0	27846	26430	156415	27079	1074565	46998	110336	0	0	8102	565046	0	0
2024-09-06 06:11:47			0	37514	0	0	0	27831	26440	156519	26984	1074628	47010	110330	0	0	8103	564697	0	0
2024-09-06 06:12:47			0	37516	0	0	0	27836	26430	156507	27178	1074565	46987	110332	0	0	8103	564651	0	0
2024-09-06 06:13:47			0	37523	0	0	0	27825	26430	156435	27303	1074592	47009	110328	0	0	8104	564374	0	0
2024-09-06 06:14:47			0	37505	0	0	0	27831	26440	156375	27346	1074520	47021	110330	0	0	8102	565053	0	0
2024-09-06 06:15:47			0	37511	0	0	0	27823	26430	156399	27066	1074565	47009	110327	0	0	8103	564848	0	0
2024-09-06 06:16:47			0	37522	0	0	0	27833	26430	156415	27066	1074610	47019	110331	0	0	8103	564414	0	0
2024-09-06 06:17:47			0	37523	0	0	0	27836	26430	156371	27201	1074583	46986	110332	0	0	8103	564374	0	0
2024-09-06 06:18:47			0	37531	0	0	0	27836	26430	156339	27183	1074619	46998	110332	0	0	8104	564058	0	0
2024-09-06 06:19:47			0	37521	0	0	0	27825	26430	156319	27287	1074672	46987	110328	0	0	8103	564453	0	0
2024-09-06 06:20:47			0	37540	0	0	0	27815	26420	156319	27350	1074537	46996	110324	0	0	8105	563735	0	0
2024-09-06 06:21:47			0	37527	0	0	0	27815	26420	156415	27175	1074627	46997	110324	0	0	8104	564248	0	0
2024-09-06 06:22:47			0	37535	0	0	0	27820	26420	156367	26961	1074493	46997	110326	0	0	8104	563933	0	0
2024-09-06 06:23:47			0	37525	0	0	0	27810	26410	156407	27159	1074475	47007	110322	0	0	8104	564360	0	0
2024-09-06 06:24:47			0	37514	0	0	0	27812	26420	156431	27168	1074564	46996	110323	0	0	8103	564762	0	0
2024-09-06 06:25:47			0	37509	0	0	0	27818	26420	156583	27015	1074564	46985	110325	0	0	8103	564959	0	0
2024-09-06 06:26:47			0	37487	0	0	0	27820	26410	156511	26823	1074501	46996	110326	0	0	8101	565862	0	0
2024-09-06 06:27:47			0	37499	0	0	0	27807	26410	156483	27270	1074492	46995	110321	0	0	8102	565387	0	0
2024-09-06 06:28:47			0	37481	0	0	0	27815	26410	156511	26897	1074448	46996	110324	0	0	8101	566099	0	0
2024-09-06 06:29:47			0	37517	0	0	0	27810	26410	156439	27104	1074466	47006	110322	0	0	8103	564676	0	0
2024-09-06 06:30:47			0	37509	0	0	0	27805	26410	156391	27384	1074475	47007	110320	0	0	8103	564992	0	0
2024-09-06 06:31:47			0	37519	0	0	0	27810	26410	156459	27137	1074546	47006	110322	0	0	8104	564597	0	0
2024-09-06 06:32:47			0	37507	0	0	0	27792	26410	156427	26837	1074492	47006	110315	0	0	8103	565071	0	0
2024-09-06 06:33:47			0	37494	0	0	0	27797	26400	156579	26892	1074430	47017	110317	0	0	8102	565617	0	0
2024-09-06 06:34:47			0	37496	0	0	0	27805	26400	156651	26894	1074483	47006	110320	0	0	8102	565538	0	0
2024-09-06 06:35:47			0	37484	0	0	0	27797	26400	156539	27301	1074456	46984	110317	0	0	8102	566012	0	0
2024-09-06 06:36:47			0	37487	0	0	0	27802	26410	156643	27111	1074466	47006	110319	0	0	8102	565862	0	0
2024-09-06 06:37:47			0	37501	0	0	0	27797	26400	156651	27294	1074537	47006	110317	0	0	8103	565340	0	0
2024-09-06 06:38:47			0	37496	0	0	0	27797	26400	156735	27244	1074483	47006	110317	0	0	8102	565538	0	0
2024-09-06 06:39:47			0	37471	0	0	0	27797	26400	156775	27203	1074537	47006	110317	0	0	8101	566527	0	0
2024-09-06 06:40:47			0	37453	0	0	0	27797	26400	156787	27097	1074421	46994	110317	0	0	8100	567240	0	0
2024-09-06 06:41:47			0	37444	0	0	0	27794	26410	156803	27007	1074439	46995	110316	0	0	8099	567564	0	0
2024-09-06 06:42:47			0	37434	0	0	0	27792	26400	156907	27339	1074421	46994	110315	0	0	8099	567993	0	0
2024-09-06 06:43:47			0	37429	0	0	0	27789	26400	156935	27112	1074403	46995	110314	0	0	8099	568191	0	0
2024-09-06 06:44:47			0	37403	0	0	0	27810	26400	156967	26904	1074447	47005	110322	0	0	8097	569223	0	0
2024-09-06 06:45:47			0	37382	0	0	0	27794	26390	156987	27199	1074412	46994	110316	0	0	8096	570090	0	0
2024-09-06 06:46:47			0	37393	0	0	0	27792	26400	156995	27098	1074447	47016	110315	0	0	8096	569620	0	0
2024-09-06 06:47:47			0	37375	0	0	0	27792	26400	157107	27331	1074394	46994	110315	0	0	8095	570336	0	0
2024-09-06 06:48:47			0	37361	0	0	0	27797	26400	157183	27232	1074421	47005	110317	0	0	8094	570893	0	0
2024-09-06 06:49:47			0	37336	0	0	0	27792	26390	157203	27038	1074412	46983	110315	0	0	8093	571921	0	0
2024-09-06 06:50:47			0	37350	0	0	0	27776	26390	157291	27402	1074403	46993	110309	0	0	8094	571363	0	0
2024-09-06 06:51:47			0	37344	0	0	0	27807	26390	157255	27209	1074429	47004	110321	0	0	8093	571602	0	0
2024-09-06 06:52:47			0	37318	0	0	0	27810	26390	157163	26974	1074403	47004	110322	0	0	8092	572638	0	0
2024-09-06 06:53:47			0	37343	0	0	0	27805	26390	157191	27260	1074412	46994	110320	0	0	8093	571642	0	0
2024-09-06 06:54:47			0	37355	0	0	0	27786	26390	157207	27081	1074465	47005	110313	0	0	8094	571164	0	0
2024-09-06 06:55:47			0	37348	0	0	0	27792	26400	157267	27013	1074421	47005	110315	0	0	8094	571410	0	0
2024-09-06 06:56:47			0	37340	0	0	0	27812	26390	157235	27029	1074376	47004	110323	0	0	8093	571761	0	0
2024-09-06 06:57:47			0	37345	0	0	0	27805	26400	157247	26861	1074421	46994	110320	0	0	8093	571529	0	0
2024-09-06 06:58:47			0	37332	0	0	0	27810	26390	157187	27208	1074438	46994	110322	0	0	8093	572080	0	0
2024-09-06 06:59:47			0	37331	0	0	0	27810	26390	157287	27000	1074403	46993	110322	0	0	8092	572120	0	0
2024-09-06 07:00:47			0	37318	0	0	0	27812	26400	157307	27171	1074474	47005	110323	0	0	8092	572605	0	0
2024-09-06 07:01:47			0	37331	0	0	0	27820	26400	157307	27248	1074483	46995	110326	0	0	8092	572087	0	0
2024-09-06 07:02:47			0	37312	0	0	0	27838	26400	157311	27287	1074447	47005	110333	0	0	8091	572844	0	0
2024-09-06 07:03:47			0	37295	0	0	0	27825	26400	157398	27050	1074555	47005	110328	0	0	8090	573523	0	0
2024-09-06 07:04:47			0	37310	0	0	0	27825	26400	157294	27154	1074510	46995	110328	0	0	8091	572924	0	0
2024-09-06 07:05:47			0	37309	0	0	0	27828	26410	157334	27060	1074501	47018	110329	0	0	8091	572931	0	0
2024-09-06 07:06:47			0	37304	0	0	0	27828	26410	157434	27367	1074528	47007	110329	0	0	8091	573131	0	0
2024-09-06 07:07:47			0	37287	0	0	0	27828	26420	157378	27031	1074457	47018	110329	0	0	8090	573776	0	0
2024-09-06 07:08:47			0	37295	0	0	0	27825	26410	157390	27293	1074492	47028	110328	0	0	8090	573490	0	0
2024-09-06 07:09:47			0	37309	0	0	0	27844	26400	157378	27350	1074430	47006	110335	0	0	8091	572964	0	0
2024-09-06 07:10:47			0	37296	0	0	0	27833	26420	157398	27415	1074537	47007	110331	0	0	8090	573417	0	0
2024-09-06 07:11:47			0	37317	0	0	0	27836	26410	157423	27376	1074555	47018	110332	0	0	8091	572612	0	0
2024-09-06 07:12:47			0	37308	0	0	0	27849	26420	157282	26958	1074601	47008	110337	0	0	8091	572939	0	0
2024-09-06 07:13:47			0	37319	0	0	0	27841	26420	157227	26759	1074591	47007	110334	0	0	8091	572500	0	0
2024-09-06 07:14:47			0	37362	0	0	0	27844	26420	157131	27034	1074618	47007	110335	0	0	8094	570788	0	0
2024-09-06 07:15:47			0	37352	0	0	0	27841	26420	157103	27121	1074681	47008	110334	0	0	8093	571186	0	0
2024-09-06 07:16:47			0	37374	0	0	0	27851	26430	157095	27171	1074610	47008	110338	0	0	8094	570278	0	0
2024-09-06 07:17:47			0	37371	0	0	0	27849	26430	157031	27102	1074610	46997	110337	0	0	8094	570397	0	0
2024-09-06 07:18:47			0	37362	0	0	0	27851	26430	157087	27107	1074663	46997	110338	0	0	8094	570755	0	0
2024-09-06 07:19:47			0	37366	0	0	0	27844	26440	157151	27362	1074628	47010	110335	0	0	8094	570563	0	0
2024-09-06 07:20:47			0	37353	0	0	0	27838	26440	157143	27272	1074637	47010	110333	0	0	8093	571080	0	0
2024-09-06 07:21:47			0	37336	0	0	0	27841	26430	157251	27327	1074636	46997	110334	0	0	8092	571790	0	0
2024-09-06 07:22:47			0	37327	0	0	0	27844	26440	157207	27161	1074717	47010	110335	0	0	8092	572116	0	0
2024-09-06 07:23:47			0	37300	0	0	0	27857	26430	157242	27509	1074690	47008	110340	0	0	8090	573225	0	0
2024-09-06 07:24:47			0	37301	0	0	0	27870	26440	157238	27248	1074681	47010	110345	0	0	8090	573152	0	0
2024-09-06 07:25:47			0	37300	0	0	0	27872	26430	157326	27046	1074672	46998	110346	0	0	8090	573225	0	0
2024-09-06 07:26:47			0	37340	0	0	0	27864	26450	157139	27211	1074780	47022	110343	0	0	8092	571565	0	0
2024-09-06 07:27:47			0	37346	0	0	0	27864	26440	157259	27429	1074771	47010	110343	0	0	8093	571359	0	0
2024-09-06 07:28:47			0	37335	0	0	0	27872	26450	157135	27429	1074726	47022	110346	0	0	8092	571764	0	0
2024-09-06 07:29:47			0	37323	0	0	0	27883	26450	157199	27275	1074753	47011	110350	0	0	8091	572242	0	0
2024-09-06 07:30:47			0	37354	0	0	0	27893	26450	157191	27324	1074816	47000	110354	0	0	8093	571008	0	0
2024-09-06 07:31:47			0	37375	0	0	0	27885	26450	157043	27215	1074843	47011	110351	0	0	8094	570173	0	0
2024-09-06 07:32:47			0	37389	0	0	0	27872	26450	157059	27235	1074816	47034	110346	0	0	8095	569616	0	0
2024-09-06 07:33:47			0	37376	0	0	0	27875	26460	156863	27279	1074798	47012	110347	0	0	8094	570101	0	0
2024-09-06 07:34:47			0	37356	0	0	0	27880	26460	157003	26956	1074825	47012	110349	0	0	8093	570896	0	0
2024-09-06 07:35:47			0	37345	0	0	0	27872	26460	157111	27104	1074807	47023	110346	0	0	8093	571333	0	0
2024-09-06 07:36:47			0	37345	0	0	0	27877	26460	157135	26807	1074807	47023	110348	0	0	8092	571333	0	0
2024-09-06 07:37:47			0	37340	0	0	0	27875	26470	157179	27473	1074843	47013	110347	0	0	8092	571500	0	0
2024-09-06 07:38:47			0	37343	0	0	0	27880	26460	157091	26937	1074807	47012	110349	0	0	8092	571413	0	0
2024-09-06 07:39:47			0	37325	0	0	0	27890	26470	157127	27159	1074852	47013	110353	0	0	8091	572097	0	0
2024-09-06 07:40:47			0	37331	0	0	0	27877	26470	157095	27435	1074879	47013	110348	0	0	8092	571858	0	0
2024-09-06 07:41:47			0	37328	0	0	0	27885	26470	157095	27164	1074843	47013	110351	0	0	8091	571978	0	0
2024-09-06 07:42:47			0	37339	0	0	0	27877	26470	157087	27209	1074906	47001	110348	0	0	8092	571540	0	0
2024-09-06 07:43:47			0	37322	0	0	0	27883	26470	157159	27029	1074870	47024	110350	0	0	8091	572217	0	0
2024-09-06 07:44:47			0	37334	0	0	0	27888	26470	157123	27357	1074879	47024	110352	0	0	8092	571739	0	0
2024-09-06 07:45:47			0	37348	0	0	0	27893	26470	157139	27332	1074825	47001	110354	0	0	8092	571181	0	0
2024-09-06 07:46:47			0	37346	0	0	0	27906	26470	157067	27038	1074816	47013	110359	0	0	8092	571261	0	0
2024-09-06 07:47:47			0	37392	0	0	0	27888	26480	156891	27509	1074834	47014	110352	0	0	8095	569400	0	0
2024-09-06 07:48:47			0	37422	0	0	0	27914	26470	156843	27258	1074879	46991	110362	0	0	8096	568242	0	0
2024-09-06 07:49:47			0	37438	0	0	0	27893	26470	156699	27017	1074933	47013	110354	0	0	8098	567607	0	0
2024-09-06 07:50:47			0	37451	0	0	0	27893	26470	156575	26837	1074933	47024	110354	0	0	8098	567092	0	0
2024-09-06 07:51:47			0	37443	0	0	0	27893	26480	156719	27171	1074951	47014	110354	0	0	8098	567377	0	0
2024-09-06 07:52:47			0	37432	0	0	0	27890	26480	156695	27034	1074924	47025	110353	0	0	8097	567813	0	0
2024-09-06 07:53:47			0	37421	0	0	0	27896	26470	156775	27341	1074933	47001	110355	0	0	8097	568281	0	0
2024-09-06 07:54:47			0	37425	0	0	0	27890	26470	156811	26885	1074879	47013	110353	0	0	8097	568123	0	0
2024-09-06 07:55:47			0	37399	0	0	0	27877	26480	156739	27218	1074951	47014	110348	0	0	8096	569122	0	0
2024-09-06 07:56:47			0	37402	0	0	0	27880	26480	156879	27177	1074897	47014	110349	0	0	8096	569003	0	0
2024-09-06 07:57:47			0	37391	0	0	0	27890	26470	156911	27203	1074879	47013	110353	0	0	8095	569472	0	0
2024-09-06 07:58:47			0	37388	0	0	0	27885	26480	157039	27086	1074951	47003	110351	0	0	8095	569559	0	0
2024-09-06 07:59:47			0	37372	0	0	0	27890	26480	156907	27265	1074951	47014	110353	0	0	8094	570194	0	0
2024-09-06 08:00:47			0	37388	0	0	0	27880	26480	156971	27156	1074951	47014	110349	0	0	8095	569559	0	0
2024-09-06 08:01:47			0	37393	0	0	0	27872	26480	156995	26979	1074951	46992	110346	0	0	8095	569360	0	0
2024-09-06 08:02:47			0	37373	0	0	0	27885	26480	156983	27412	1074915	46992	110351	0	0	8094	570154	0	0
2024-09-06 08:03:47			0	37361	0	0	0	27890	26480	157055	27163	1074915	47014	110353	0	0	8093	570632	0	0
2024-09-06 08:04:47			0	37358	0	0	0	27883	26470	157067	27170	1074879	47013	110350	0	0	8093	570784	0	0
2024-09-06 08:05:47			0	37373	0	0	0	27880	26480	156991	27239	1074924	47003	110349	0	0	8094	570154	0	0
2024-09-06 08:06:47			0	37376	0	0	0	27877	26480	156995	27104	1074843	47003	110348	0	0	8094	570035	0	0
2024-09-06 08:07:47			0	37360	0	0	0	27880	26480	156975	27024	1074861	47014	110349	0	0	8093	570671	0	0
2024-09-06 08:08:47			0	37360	0	0	0	27883	26480	156999	27208	1074888	47014	110350	0	0	8093	570671	0	0
2024-09-06 08:09:47			0	37357	0	0	0	27883	26480	157115	27163	1074897	47003	110350	0	0	8093	570791	0	0
2024-09-06 08:10:47			0	37385	0	0	0	27872	26480	157103	27327	1074915	47003	110346	0	0	8095	569678	0	0
2024-09-06 08:11:47			0	37351	0	0	0	27875	26480	157063	27331	1074915	47003	110347	0	0	8093	571029	0	0
2024-09-06 08:12:47			0	37369	0	0	0	27885	26480	157027	27357	1074843	47003	110351	0	0	8094	570314	0	0
2024-09-06 08:13:47			0	37371	0	0	0	27893	26480	156995	27310	1074915	47037	110354	0	0	8094	570234	0	0
2024-09-06 08:14:47			0	37389	0	0	0	27903	26470	156979	27079	1074906	47013	110358	0	0	8095	569551	0	0
2024-09-06 08:15:47			0	37404	0	0	0	27893	26490	156823	27289	1074906	47015	110354	0	0	8096	568891	0	0
2024-09-06 08:16:47			0	37424	0	0	0	27901	26480	156667	27261	1074942	47014	110357	0	0	8097	568130	0	0
2024-09-06 08:17:47			0	37443	0	0	0	27901	26490	156735	27300	1074915	47015	110357	0	0	8098	567344	0	0
2024-09-06 08:18:47			0	37468	0	0	0	27911	26490	156663	27358	1074960	47004	110361	0	0	8099	566354	0	0
2024-09-06 08:19:47			0	37471	0	0	0	27909	26490	156511	27301	1075023	47026	110360	0	0	8099	566236	0	0
2024-09-06 08:20:47			0	37497	0	0	0	27909	26500	156587	27331	1075014	47028	110360	0	0	8101	565175	0	0
2024-09-06 08:21:47			0	37484	0	0	0	27916	26490	156403	27391	1075014	47015	110363	0	0	8100	565721	0	0
2024-09-06 08:22:47			0	37493	0	0	0	27906	26490	156383	27260	1074969	47015	110359	0	0	8101	565366	0	0
2024-09-06 08:23:47			0	37488	0	0	0	27906	26500	156483	27322	1075005	47016	110359	0	0	8101	565531	0	0
2024-09-06 08:24:47			0	37491	0	0	0	27922	26500	156555	27121	1074987	47017	110365	0	0	8100	565412	0	0
2024-09-06 08:25:47			0	37463	0	0	0	27916	26500	156567	27291	1075059	47016	110363	0	0	8099	566520	0	0
2024-09-06 08:26:47			0	37495	0	0	0	27924	26500	156575	27076	1075041	47006	110366	0	0	8101	565254	0	0
2024-09-06 08:27:47			0	37477	0	0	0	27914	26490	156519	27440	1075077	47026	110362	0	0	8100	565998	0	0
2024-09-06 08:28:47			0	37514	0	0	0	27932	26500	156479	27512	1075032	47016	110369	0	0	8102	564504	0	0
2024-09-06 08:29:47			0	37501	0	0	0	27932	26500	156471	27369	1075095	47017	110369	0	0	8101	565017	0	0
2024-09-06 08:30:47			0	37493	0	0	0	27919	26510	156539	27334	1075077	46995	110364	0	0	8101	565301	0	0
2024-09-06 08:31:47			0	37497	0	0	0	27924	26510	156587	27019	1075104	47006	110366	0	0	8101	565143	0	0
2024-09-06 08:32:47			0	37497	0	0	0	27927	26510	156567	27341	1075059	47028	110367	0	0	8101	565143	0	0
2024-09-06 08:33:47			0	37508	0	0	0	27922	26510	156543	27490	1075050	47006	110365	0	0	8101	564708	0	0
2024-09-06 08:34:47			0	37477	0	0	0	27940	26510	156511	27133	1075140	47006	110372	0	0	8099	565934	0	0
2024-09-06 08:35:47			0	37479	0	0	0	27932	26510	156563	27246	1075077	47028	110369	0	0	8100	565854	0	0
2024-09-06 08:36:47			0	37490	0	0	0	27940	26500	156543	27182	1075148	47028	110372	0	0	8100	565452	0	0
2024-09-06 08:37:47			0	37516	0	0	0	27948	26510	156435	26960	1075140	47006	110375	0	0	8101	564392	0	0
2024-09-06 08:38:47			0	37517	0	0	0	27945	26520	156507	27100	1075131	47019	110374	0	0	8102	564321	0	0
2024-09-06 08:39:47			0	37508	0	0	0	27948	26520	156399	27435	1075104	47019	110375	0	0	8101	564676	0	0
2024-09-06 08:40:47			0	37535	0	0	0	27935	26520	156343	27237	1075202	47029	110370	0	0	8103	563610	0	0
2024-09-06 08:41:47			0	37535	0	0	0	27955	26520	156327	27034	1075185	47008	110378	0	0	8103	563610	0	0
2024-09-06 08:42:47			0	37538	0	0	0	27942	26540	156399	27197	1075185	47020	110373	0	0	8103	563428	0	0
2024-09-06 08:43:47			0	37540	0	0	0	27945	26510	156327	27371	1075166	47028	110374	0	0	8103	563445	0	0
2024-09-06 08:44:47			0	37549	0	0	0	27945	26530	156391	27433	1075167	47008	110374	0	0	8104	563026	0	0
2024-09-06 08:45:47			0	37544	0	0	0	27948	26530	156335	27433	1075230	47019	110375	0	0	8103	563223	0	0
2024-09-06 08:46:47			0	37544	0	0	0	27963	26540	156267	27310	1075239	47020	110381	0	0	8103	563191	0	0
2024-09-06 08:47:47			0	37543	0	0	0	27961	26530	156311	27218	1075230	47019	110380	0	0	8103	563263	0	0
2024-09-06 08:48:47			0	37556	0	0	0	27961	26540	156343	27412	1075265	47020	110380	0	0	8104	562718	0	0
2024-09-06 08:49:47			0	37561	0	0	0	27966	26530	156183	27317	1075283	47008	110382	0	0	8104	562553	0	0
2024-09-06 08:50:47			0	37587	0	0	0	27961	26530	156215	27287	1075256	47019	110380	0	0	8105	561529	0	0
2024-09-06 08:51:47			0	37589	0	0	0	27958	26540	156107	27514	1075275	47021	110379	0	0	8106	561419	0	0
2024-09-06 08:52:47			0	37597	0	0	0	27961	26550	156091	27326	1075284	47021	110380	0	0	8106	561072	0	0
2024-09-06 08:53:47			0	37585	0	0	0	27963	26550	156131	27308	1075284	47010	110381	0	0	8105	561544	0	0
2024-09-06 08:54:47			0	37593	0	0	0	27961	26540	156127	27100	1075292	47020	110380	0	0	8106	561261	0	0
2024-09-06 08:55:47			0	37584	0	0	0	27953	26540	156067	27519	1075265	47020	110377	0	0	8106	561615	0	0
2024-09-06 08:56:47			0	37581	0	0	0	27963	26550	156103	26987	1075311	47010	110381	0	0	8105	561701	0	0
2024-09-06 08:57:47			0	37571	0	0	0	27961	26550	156155	27345	1075293	47011	110380	0	0	8105	562095	0	0
2024-09-06 08:58:47			0	37581	0	0	0	27966	26560	156243	27329	1075302	47011	110382	0	0	8105	561669	0	0
2024-09-06 08:59:47			0	37567	0	0	0	27955	26540	156167	27183	1075221	47021	110378	0	0	8104	562285	0	0
2024-09-06 09:00:47			0	37574	0	0	0	27968	26540	156159	27229	1075275	47010	110383	0	0	8105	562009	0	0
2024-09-06 09:01:47			0	37572	0	0	0	27955	26540	156163	27228	1075275	47032	110378	0	0	8105	562088	0	0
2024-09-06 09:02:47			0	37559	0	0	0	27958	26550	156143	27319	1075293	47022	110379	0	0	8104	562568	0	0
2024-09-06 09:03:47			0	37583	0	0	0	27971	26550	156099	26897	1075311	47021	110384	0	0	8105	561623	0	0
2024-09-06 09:04:47			0	37572	0	0	0	27981	26550	156199	27159	1075293	47033	110388	0	0	8104	562056	0	0
2024-09-06 09:05:47			0	37582	0	0	0	27979	26550	156031	27147	1075391	47021	110387	0	0	8105	561662	0	0
2024-09-06 09:06:47			0	37583	0	0	0	27971	26550	156115	27384	1075374	47033	110384	0	0	8105	561623	0	0
2024-09-06 09:07:47			0	37595	0	0	0	27986	26550	156055	27223	1075365	46999	110390	0	0	8106	561150	0	0
2024-09-06 09:08:47			0	37606	0	0	0	27976	26550	156139	27339	1075320	47022	110386	0	0	8106	560718	0	0
2024-09-06 09:09:47			0	37608	0	0	0	27986	26560	156091	27388	1075445	47023	110390	0	0	8106	560607	0	0
2024-09-06 09:10:47			0	37606	0	0	0	27981	26560	156055	27327	1075356	47022	110388	0	0	8106	560686	0	0
2024-09-06 09:11:47			0	37629	0	0	0	27984	26560	156067	27183	1075392	47034	110389	0	0	8108	559782	0	0
2024-09-06 09:12:47			0	37621	0	0	0	27979	26560	155951	27085	1075436	47011	110387	0	0	8107	560096	0	0
2024-09-06 09:13:47			0	37648	0	0	0	27979	26560	155955	27071	1075356	47022	110387	0	0	8109	559036	0	0
2024-09-06 09:14:47			0	37620	0	0	0	27981	26560	156067	27015	1075365	47012	110388	0	0	8107	560136	0	0
2024-09-06 09:15:47			0	37634	0	0	0	27986	26560	155995	27161	1075365	47023	110390	0	0	8108	559586	0	0
2024-09-06 09:16:47			0	37627	0	0	0	27981	26560	155995	27416	1075392	47034	110388	0	0	8108	559861	0	0
2024-09-06 09:17:47			0	37610	0	0	0	27984	26560	156019	27223	1075410	47011	110389	0	0	8107	560529	0	0
2024-09-06 09:18:47			0	37618	0	0	0	27981	26560	156031	27038	1075392	47023	110388	0	0	8107	560214	0	0
2024-09-06 09:19:47			0	37626	0	0	0	27989	26570	156063	27183	1075401	47035	110391	0	0	8107	559868	0	0
2024-09-06 09:20:47			0	37612	0	0	0	27981	26570	155923	27090	1075347	47024	110388	0	0	8107	560418	0	0
2024-09-06 09:21:47			0	37622	0	0	0	27984	26560	156007	27346	1075410	47033	110389	0	0	8107	560057	0	0
2024-09-06 09:22:47			0	37606	0	0	0	27992	26570	155967	27431	1075401	47024	110392	0	0	8106	560654	0	0
2024-09-06 09:23:47			0	37606	0	0	0	27974	26570	155943	26854	1075428	47035	110385	0	0	8107	560654	0	0
2024-09-06 09:24:47			0	37613	0	0	0	27971	26570	155883	27157	1075428	47013	110384	0	0	8107	560379	0	0
2024-09-06 09:25:47			0	37612	0	0	0	27976	26570	156043	27170	1075428	47024	110386	0	0	8107	560418	0	0
2024-09-06 09:26:47			0	37604	0	0	0	27966	26570	155979	27026	1075374	47024	110382	0	0	8107	560732	0	0
2024-09-06 09:27:47			0	37597	0	0	0	27976	26570	156019	27429	1075455	47024	110386	0	0	8106	561008	0	0
2024-09-06 09:28:47			0	37616	0	0	0	27981	26570	156103	27365	1075401	47024	110388	0	0	8107	560261	0	0
2024-09-06 09:29:47			0	37598	0	0	0	27976	26570	156023	27147	1075410	47024	110386	0	0	8106	560968	0	0
2024-09-06 09:30:47			0	37607	0	0	0	27979	26570	156023	27189	1075464	47013	110387	0	0	8107	560615	0	0
2024-09-06 09:31:47			0	37608	0	0	0	27966	26570	155939	27097	1075410	47013	110382	0	0	8107	560575	0	0
2024-09-06 09:32:47			0	37610	0	0	0	27966	26570	155947	26927	1075410	47035	110382	0	0	8107	560496	0	0
2024-09-06 09:33:47			0	37614	0	0	0	27953	26560	155919	27225	1075338	47012	110377	0	0	8107	560371	0	0
2024-09-06 09:34:47			0	37638	0	0	0	27942	26570	155871	27201	1075374	47013	110373	0	0	8109	559397	0	0
2024-09-06 09:35:47			0	37630	0	0	0	27937	26560	155975	27133	1075338	47012	110371	0	0	8109	559743	0	0
2024-09-06 09:36:47			0	37625	0	0	0	27935	26560	155935	27336	1075311	47012	110370	0	0	8108	559939	0	0
2024-09-06 09:37:47			0	37619	0	0	0	27937	26560	155951	27345	1075275	47022	110371	0	0	8108	560175	0	0
2024-09-06 09:38:47			0	37608	0	0	0	27927	26550	155983	27144	1075239	47011	110367	0	0	8107	560639	0	0
2024-09-06 09:39:47			0	37602	0	0	0	27937	26550	156155	27364	1075230	46999	110371	0	0	8107	560875	0	0
2024-09-06 09:40:47			0	37591	0	0	0	27924	26550	156143	27111	1075257	47010	110366	0	0	8106	561308	0	0
2024-09-06 09:41:47			0	37592	0	0	0	27919	26540	156075	27083	1075185	47020	110364	0	0	8107	561301	0	0
2024-09-06 09:42:47			0	37592	0	0	0	27919	26540	156103	27187	1075167	47021	110364	0	0	8107	561301	0	0
2024-09-06 09:43:47			0	37592	0	0	0	27924	26540	156211	27225	1075221	47010	110366	0	0	8106	561301	0	0
2024-09-06 09:44:47			0	37563	0	0	0	27948	26530	156179	27182	1075176	47019	110375	0	0	8104	562474	0	0
2024-09-06 09:45:47			0	37575	0	0	0	27950	26540	156223	27293	1075212	47020	110376	0	0	8105	561970	0	0
2024-09-06 09:46:47			0	37566	0	0	0	27963	26540	156227	27277	1075292	47020	110381	0	0	8104	562324	0	0
2024-09-06 09:47:47			0	37578	0	0	0	27971	26540	156135	27140	1075275	47021	110384	0	0	8105	561851	0	0
2024-09-06 09:48:47			0	37586	0	0	0	27976	26550	156107	27102	1075284	47021	110386	0	0	8105	561505	0	0
2024-09-06 09:49:47			0	37606	0	0	0	27979	26550	156039	26909	1075338	47021	110387	0	0	8106	560718	0	0
2024-09-06 09:50:47			0	37620	0	0	0	27976	26550	156027	27206	1075374	47011	110386	0	0	8107	560168	0	0
2024-09-06 09:51:47			0	37615	0	0	0	27981	26560	156011	27116	1075383	47033	110388	0	0	8107	560332	0	0
2024-09-06 09:52:47			0	37618	0	0	0	27955	26550	155927	27289	1075400	47022	110378	0	0	8107	560246	0	0
2024-09-06 09:53:47			0	37639	0	0	0	27958	26550	155791	27433	1075338	46999	110379	0	0	8109	559422	0	0
2024-09-06 09:54:47			0	37640	0	0	0	27958	26560	155887	27026	1075365	47023	110379	0	0	8109	559350	0	0
2024-09-06 09:55:47			0	37634	0	0	0	27968	26560	155895	27303	1075392	47034	110383	0	0	8108	559586	0	0
2024-09-06 09:56:47			0	37624	0	0	0	27963	26560	155879	27433	1075311	47023	110381	0	0	8108	559979	0	0
2024-09-06 09:57:47			0	37622	0	0	0	27976	26550	155931	27223	1075266	47022	110386	0	0	8107	560089	0	0
2024-09-06 09:58:47			0	37644	0	0	0	27966	26560	155979	27268	1075275	47000	110382	0	0	8109	559193	0	0
2024-09-06 09:59:47			0	37633	0	0	0	27968	26560	155915	27306	1075356	47011	110383	0	0	8108	559625	0	0
2024-09-06 10:00:47			0	37612	0	0	0	27974	26560	155999	27317	1075329	47011	110385	0	0	8107	560450	0	0
2024-09-06 10:01:47			0	37631	0	0	0	27971	26550	155903	27128	1075391	47010	110384	0	0	8108	559736	0	0
2024-09-06 10:02:47			0	37621	0	0	0	27968	26550	155887	27116	1075311	47032	110383	0	0	8107	560128	0	0
2024-09-06 10:03:47			0	37637	0	0	0	27963	26550	155943	27305	1075338	47021	110381	0	0	8108	559500	0	0
2024-09-06 10:04:47			0	37632	0	0	0	27976	26560	155919	27109	1075329	47022	110386	0	0	8108	559664	0	0
2024-09-06 10:05:47			0	37631	0	0	0	27984	26560	155939	27505	1075445	47023	110389	0	0	8108	559704	0	0
2024-09-06 10:06:47			0	37633	0	0	0	27992	26560	155843	27317	1075472	47023	110392	0	0	8108	559625	0	0
2024-09-06 10:07:47			0	37648	0	0	0	28005	26570	155839	27289	1075401	47035	110397	0	0	8108	559004	0	0
2024-09-06 10:08:47			0	37644	0	0	0	28018	26560	155811	27334	1075410	47022	110402	0	0	8108	559193	0	0
2024-09-06 10:09:47			0	37640	0	0	0	27999	26570	155795	27293	1075464	47035	110395	0	0	8108	559318	0	0
2024-09-06 10:10:47			0	37663	0	0	0	27999	26560	155743	27412	1075472	47023	110395	0	0	8109	558448	0	0
2024-09-06 10:11:47			0	37670	0	0	0	28002	26580	155671	27450	1075535	47025	110396	0	0	8110	558110	0	0
2024-09-06 10:12:47			0	37664	0	0	0	27999	26570	155647	27623	1075464	47024	110395	0	0	8110	558377	0	0
2024-09-06 10:13:47			0	37654	0	0	0	28020	26580	155699	27300	1075499	47024	110403	0	0	8109	558737	0	0
2024-09-06 10:14:47			0	37657	0	0	0	28018	26590	155863	27433	1075544	47015	110402	0	0	8109	558587	0	0
2024-09-06 10:15:47			0	37633	0	0	0	28036	26590	155783	27398	1075598	47037	110409	0	0	8107	559529	0	0
2024-09-06 10:16:47			0	37675	0	0	0	28023	26590	155739	27159	1075598	47026	110404	0	0	8110	557882	0	0
2024-09-06 10:17:47			0	37706	0	0	0	28046	26590	155607	26821	1075625	47037	110413	0	0	8111	556668	0	0
2024-09-06 10:18:47			0	37697	0	0	0	28057	26600	155555	27237	1075679	47038	110417	0	0	8111	556989	0	0
2024-09-06 10:19:47			0	37694	0	0	0	28072	26600	155651	27500	1075706	47027	110423	0	0	8110	557106	0	0
2024-09-06 10:20:47			0	37708	0	0	0	28062	26610	155551	27098	1075742	47028	110419	0	0	8111	556526	0	0
2024-09-06 10:21:47			0	37721	0	0	0	28064	26620	155435	27504	1075733	47017	110420	0	0	8112	555986	0	0
2024-09-06 10:22:47			0	37744	0	0	0	28064	26610	155351	27020	1075778	47050	110420	0	0	8113	555119	0	0
2024-09-06 10:23:47			0	37765	0	0	0	28059	26620	155315	27426	1075814	47039	110418	0	0	8115	554268	0	0
2024-09-06 10:24:47			0	37753	0	0	0	28059	26620	155251	27320	1075796	47029	110418	0	0	8114	554736	0	0
2024-09-06 10:25:47			0	37764	0	0	0	28057	26620	155283	27326	1075769	47040	110417	0	0	8115	554307	0	0
2024-09-06 10:26:47			0	37779	0	0	0	28080	26620	155231	27163	1075796	47040	110426	0	0	8115	553722	0	0
2024-09-06 10:27:47			0	37787	0	0	0	28096	26630	155219	27298	1075805	47019	110432	0	0	8115	553378	0	0
2024-09-06 10:28:47			0	37801	0	0	0	28093	26630	155271	27213	1075868	47031	110431	0	0	8116	552833	0	0
2024-09-06 10:29:47			0	37829	0	0	0	28083	26640	155075	27268	1075886	47053	110427	0	0	8118	551711	0	0
2024-09-06 10:30:47			0	37875	0	0	0	28096	26640	154795	26987	1075913	47041	110432	0	0	8120	549924	0	0
2024-09-06 10:31:47			0	37939	0	0	0	28085	26640	154619	27611	1075877	47031	110428	0	0	8124	547443	0	0
2024-09-06 10:32:47			0	37982	0	0	0	28083	26650	154455	27355	1075949	47032	110427	0	0	8127	545749	0	0
2024-09-06 10:33:47			0	38004	0	0	0	28088	26650	154339	27310	1075868	47032	110429	0	0	8128	544899	0	0
2024-09-06 10:34:47			0	38004	0	0	0	28085	26650	154315	27048	1075949	47032	110428	0	0	8128	544899	0	0
2024-09-06 10:35:47			0	38000	0	0	0	28075	26670	154335	27417	1075949	47010	110424	0	0	8128	544991	0	0
2024-09-06 10:36:47			0	37999	0	0	0	28083	26660	154435	27043	1075913	47010	110427	0	0	8128	545061	0	0
2024-09-06 10:37:47			0	38010	0	0	0	28077	26650	154239	27424	1075922	47032	110425	0	0	8129	544668	0	0
2024-09-06 10:38:47			0	38014	0	0	0	28088	26660	154215	27334	1075886	47033	110429	0	0	8129	544482	0	0
2024-09-06 10:39:47			0	38020	0	0	0	28093	26650	154247	27225	1075895	47021	110431	0	0	8129	544282	0	0
2024-09-06 10:40:47			0	38040	0	0	0	28098	26660	154176	27543	1075958	47022	110433	0	0	8130	543480	0	0
2024-09-06 10:41:47			0	38055	0	0	0	28106	26660	154116	27218	1076012	47010	110436	0	0	8131	542902	0	0
2024-09-06 10:42:47			0	38049	0	0	0	28111	26680	154112	27424	1076003	47035	110438	0	0	8130	543071	0	0
2024-09-06 10:43:47			0	38072	0	0	0	28114	26670	154128	27261	1076003	47044	110439	0	0	8132	542217	0	0
2024-09-06 10:44:47			0	38088	0	0	0	28116	26680	154020	27057	1076102	47035	110440	0	0	8133	541571	0	0
2024-09-06 10:45:47			0	38062	0	0	0	28111	26680	154004	27156	1076030	47045	110438	0	0	8131	542571	0	0
2024-09-06 10:46:47			0	38100	0	0	0	28109	26690	153976	27461	1076066	47035	110437	0	0	8133	541078	0	0
2024-09-06 10:47:47			0	38100	0	0	0	28106	26690	153832	27180	1076066	47045	110436	0	0	8134	541078	0	0
2024-09-06 10:48:47			0	38134	0	0	0	28101	26680	153844	27015	1076084	47035	110434	0	0	8136	539804	0	0
2024-09-06 10:49:47			0	38178	0	0	0	28116	26680	153712	27150	1076084	47024	110440	0	0	8138	538118	0	0
2024-09-06 10:50:47			0	38161	0	0	0	28111	26690	153696	27293	1076075	47036	110438	0	0	8137	538738	0	0
2024-09-06 10:51:47			0	38174	0	0	0	28111	26690	153644	27348	1076048	47013	110438	0	0	8138	538240	0	0
2024-09-06 10:52:47			0	38196	0	0	0	28106	26690	153692	27305	1076102	47025	110436	0	0	8139	537398	0	0
2024-09-06 10:53:47			0	38170	0	0	0	28111	26690	153648	27201	1076102	47036	110438	0	0	8137	538393	0	0
2024-09-06 10:54:47			0	38173	0	0	0	28103	26690	153680	27389	1076093	47024	110435	0	0	8138	538278	0	0
2024-09-06 10:55:47			0	38162	0	0	0	28106	26690	153664	27350	1076093	47035	110436	0	0	8137	538700	0	0
2024-09-06 10:56:47			0	38176	0	0	0	28098	26690	153648	27521	1076156	47036	110433	0	0	8138	538164	0	0
2024-09-06 10:57:47			0	38172	0	0	0	28098	26690	153640	27445	1076093	47024	110433	0	0	8138	538317	0	0
2024-09-06 10:58:47			0	38167	0	0	0	28109	26700	153636	27274	1076084	47037	110437	0	0	8137	538477	0	0
2024-09-06 10:59:47			0	38170	0	0	0	28109	26710	153636	27261	1076129	47049	110437	0	0	8138	538332	0	0
2024-09-06 11:00:47			0	38173	0	0	0	28098	26700	153592	27258	1076067	47027	110433	0	0	8138	538248	0	0
2024-09-06 11:01:47			0	38168	0	0	0	28096	26700	153660	27178	1076138	47026	110432	0	0	8138	538439	0	0
2024-09-06 11:02:47			0	38159	0	0	0	28090	26700	153672	27403	1076084	47037	110430	0	0	8137	538784	0	0
2024-09-06 11:03:47			0	38167	0	0	0	28093	26700	153644	27523	1076084	47026	110431	0	0	8138	538477	0	0
2024-09-06 11:04:47			0	38176	0	0	0	28093	26690	153688	27235	1076075	47047	110431	0	0	8138	538164	0	0
2024-09-06 11:05:47			0	38191	0	0	0	28093	26700	153528	27369	1076084	47037	110431	0	0	8139	537559	0	0
2024-09-06 11:06:47			0	38209	0	0	0	28106	26690	153576	27543	1076093	47035	110436	0	0	8140	536901	0	0
2024-09-06 11:07:47			0	38196	0	0	0	28116	26690	153480	27703	1076102	47013	110440	0	0	8139	537398	0	0
2024-09-06 11:08:47			0	38188	0	0	0	28111	26690	153508	27372	1076102	47025	110438	0	0	8138	537704	0	0
2024-09-06 11:09:47			0	38201	0	0	0	28114	26690	153548	27270	1076129	47036	110439	0	0	8139	537207	0	0
2024-09-06 11:10:47			0	38205	0	0	0	28122	26690	153524	27057	1076102	47036	110442	0	0	8139	537054	0	0
2024-09-06 11:11:47			0	38190	0	0	0	28119	26700	153604	27606	1076192	47048	110441	0	0	8139	537597	0	0
2024-09-06 11:12:47			0	38174	0	0	0	28109	26700	153624	27017	1076147	47038	110437	0	0	8138	538209	0	0
2024-09-06 11:13:47			0	38157	0	0	0	28111	26690	153536	27124	1076129	47036	110438	0	0	8137	538891	0	0
2024-09-06 11:14:47			0	38159	0	0	0	28122	26710	153656	27225	1076165	47027	110442	0	0	8137	538753	0	0
2024-09-06 11:15:47			0	38169	0	0	0	28122	26710	153616	27209	1076183	47038	110442	0	0	8137	538370	0	0
2024-09-06 11:16:47			0	38172	0	0	0	28116	26700	153572	27296	1076120	47038	110440	0	0	8138	538286	0	0
2024-09-06 11:17:47			0	38149	0	0	0	28114	26700	153564	27327	1076165	47037	110439	0	0	8136	539167	0	0
2024-09-06 11:18:47			0	38189	0	0	0	28119	26700	153592	27197	1076147	47027	110441	0	0	8138	537635	0	0
2024-09-06 11:19:47			0	38176	0	0	0	28129	26710	153652	26809	1076210	47027	110445	0	0	8138	538102	0	0
2024-09-06 11:20:47			0	38177	0	0	0	28122	26710	153468	26745	1076237	47027	110442	0	0	8138	538064	0	0
2024-09-06 11:21:47			0	38175	0	0	0	28137	26710	153572	27227	1076103	47049	110448	0	0	8137	538140	0	0
2024-09-06 11:22:47			0	38149	0	0	0	28148	26710	153568	27272	1076246	47038	110452	0	0	8136	539136	0	0
2024-09-06 11:23:47			0	38174	0	0	0	28148	26710	153572	27244	1076183	47038	110452	0	0	8137	538178	0	0
2024-09-06 11:24:47			0	38161	0	0	0	28129	26710	153628	27183	1076219	47038	110445	0	0	8137	538676	0	0
2024-09-06 11:25:47			0	38164	0	0	0	28145	26720	153712	27339	1076228	47039	110451	0	0	8137	538531	0	0
2024-09-06 11:26:47			0	38163	0	0	0	28140	26710	153660	27133	1076219	47027	110449	0	0	8137	538600	0	0
2024-09-06 11:27:47			0	38153	0	0	0	28150	26710	153772	27152	1076165	47038	110453	0	0	8136	538983	0	0
2024-09-06 11:28:47			0	38145	0	0	0	28155	26710	153644	27222	1076210	47049	110455	0	0	8135	539290	0	0
2024-09-06 11:29:47			0	38170	0	0	0	28153	26720	153740	27111	1076318	47040	110454	0	0	8137	538301	0	0
2024-09-06 11:30:47			0	38166	0	0	0	28150	26720	153648	27345	1076237	47051	110453	0	0	8137	538454	0	0
2024-09-06 11:31:47			0	38152	0	0	0	28168	26720	153644	26844	1076291	47051	110460	0	0	8136	538990	0	0
2024-09-06 11:32:47			0	38138	0	0	0	28116	26730	153664	27060	1076246	47029	110440	0	0	8136	539496	0	0
2024-09-06 11:33:47			0	38151	0	0	0	28109	26720	153640	27343	1076237	47040	110437	0	0	8137	539029	0	0
2024-09-06 11:34:47			0	38151	0	0	0	28127	26730	153624	27322	1076255	47029	110444	0	0	8136	538998	0	0
2024-09-06 11:35:47			0	38171	0	0	0	28150	26720	153664	26920	1076183	47040	110453	0	0	8137	538263	0	0
2024-09-06 11:36:47			0	38177	0	0	0	28142	26730	153608	27222	1076219	47040	110450	0	0	8138	538002	0	0
2024-09-06 11:37:47			0	38196	0	0	0	28129	26730	153624	27313	1076246	47029	110445	0	0	8139	537275	0	0
2024-09-06 11:38:47			0	38192	0	0	0	28142	26730	153544	27258	1076246	47040	110450	0	0	8138	537428	0	0
2024-09-06 11:39:47			0	38194	0	0	0	28135	26720	153516	27300	1076318	47040	110447	0	0	8139	537382	0	0
2024-09-06 11:40:47			0	38192	0	0	0	28127	26720	153560	27331	1076291	47051	110444	0	0	8139	537459	0	0
2024-09-06 11:41:47			0	38197	0	0	0	28153	26720	153540	26989	1076291	47051	110454	0	0	8138	537268	0	0
2024-09-06 11:42:47			0	38212	0	0	0	28124	26720	153532	26868	1076264	47051	110443	0	0	8140	536694	0	0
2024-09-06 11:43:47			0	38213	0	0	0	28116	26740	153444	27228	1076264	47041	110440	0	0	8140	536594	0	0
2024-09-06 11:44:47			0	38226	0	0	0	28103	26730	153480	27343	1076327	47029	110435	0	0	8141	536128	0	0
2024-09-06 11:45:47			0	38251	0	0	0	28111	26730	153304	27242	1076255	47029	110438	0	0	8142	535174	0	0
2024-09-06 11:46:47			0	38247	0	0	0	28106	26730	153396	27450	1076193	47029	110436	0	0	8142	535327	0	0
2024-09-06 11:47:47			0	38248	0	0	0	28150	26720	153328	27211	1076291	47029	110453	0	0	8141	535319	0	0
2024-09-06 11:48:47			0	38247	0	0	0	28155	26720	153264	27102	1076264	47040	110455	0	0	8141	535357	0	0
2024-09-06 11:49:47			0	38268	0	0	0	28127	26730	153292	26989	1076273	47017	110444	0	0	8143	534526	0	0
2024-09-06 11:50:47			0	38252	0	0	0	28155	26730	153372	27092	1076273	47040	110455	0	0	8142	535136	0	0
2024-09-06 11:51:47			0	38245	0	0	0	28163	26730	153400	27046	1076282	47040	110458	0	0	8141	535403	0	0
2024-09-06 11:52:47			0	38257	0	0	0	28140	26730	153312	27189	1076327	47040	110449	0	0	8142	534945	0	0
2024-09-06 11:53:47			0	38257	0	0	0	28163	26730	153348	27142	1076309	47040	110458	0	0	8142	534945	0	0
2024-09-06 11:54:47			0	38249	0	0	0	28166	26730	153452	27199	1076336	47040	110459	0	0	8141	535250	0	0
2024-09-06 11:55:47			0	38235	0	0	0	28166	26730	153452	27215	1076282	47040	110459	0	0	8140	535785	0	0
2024-09-06 11:56:47			0	38231	0	0	0	28168	26740	153436	26901	1076399	47052	110460	0	0	8140	535907	0	0
2024-09-06 11:57:47			0	38214	0	0	0	28161	26740	153452	27104	1076354	47041	110457	0	0	8139	536556	0	0
2024-09-06 11:58:47			0	38212	0	0	0	28173	26740	153448	27187	1076408	47031	110462	0	0	8139	536633	0	0
2024-09-06 11:59:47			0	38215	0	0	0	28173	26750	153496	27114	1076444	47041	110462	0	0	8139	536487	0	0
2024-09-06 12:00:47			0	38227	0	0	0	28171	26750	153452	27251	1076444	47041	110461	0	0	8140	536029	0	0
2024-09-06 12:01:47			0	38202	0	0	0	28171	26750	153600	27327	1076480	47041	110461	0	0	8139	536984	0	0
2024-09-06 12:02:47			0	38201	0	0	0	28189	26760	153536	27364	1076462	47032	110468	0	0	8138	536992	0	0
2024-09-06 12:03:47			0	38194	0	0	0	28184	26760	153496	27453	1076462	47032	110466	0	0	8138	537259	0	0
2024-09-06 12:04:47			0	38203	0	0	0	28168	26760	153492	27157	1076498	47055	110460	0	0	8139	536915	0	0
2024-09-06 12:05:47			0	38207	0	0	0	28181	26770	153440	27083	1076453	47034	110465	0	0	8139	536731	0	0
2024-09-06 12:06:47			0	38206	0	0	0	28184	26760	153552	27175	1076525	47055	110466	0	0	8139	536800	0	0
2024-09-06 12:07:47			0	38213	0	0	0	28184	26760	153468	27130	1076462	47054	110466	0	0	8139	536533	0	0
2024-09-06 12:08:47			0	38224	0	0	0	28186	26760	153448	27088	1076525	47055	110467	0	0	8140	536113	0	0
2024-09-06 12:09:47			0	38228	0	0	0	28186	26770	153368	27345	1076534	47044	110467	0	0	8140	535929	0	0
2024-09-06 12:10:47			0	38246	0	0	0	28197	26770	153388	26811	1076507	47044	110471	0	0	8141	535242	0	0
2024-09-06 12:11:47			0	38245	0	0	0	28205	26770	153464	26961	1076534	47034	110474	0	0	8141	535280	0	0
2024-09-06 12:12:47			0	38241	0	0	0	28202	26760	153372	27319	1076552	47033	110473	0	0	8140	535464	0	0
2024-09-06 12:13:47			0	38238	0	0	0	28207	26770	153364	27190	1076570	47044	110475	0	0	8140	535548	0	0
2024-09-06 12:14:47			0	38240	0	0	0	28212	26780	153352	27194	1076534	47057	110477	0	0	8140	535440	0	0
2024-09-06 12:15:47			0	38258	0	0	0	28218	26780	153292	26871	1076606	47034	110479	0	0	8141	534754	0	0
2024-09-06 12:16:47			0	38271	0	0	0	28212	26780	153240	27459	1076615	47045	110477	0	0	8142	534258	0	0
2024-09-06 12:17:47			0	38303	0	0	0	28205	26780	153244	27015	1076561	47035	110474	0	0	8144	533040	0	0
2024-09-06 12:18:47			0	38317	0	0	0	28215	26780	152992	27230	1076579	47056	110478	0	0	8145	532507	0	0
2024-09-06 12:19:47			0	38354	0	0	0	28207	26800	152868	26873	1076642	47036	110475	0	0	8147	531040	0	0
2024-09-06 12:20:47			0	38355	0	0	0	28210	26790	152976	27105	1076624	47058	110476	0	0	8147	531033	0	0
2024-09-06 12:21:47			0	38378	0	0	0	28212	26790	152824	27289	1076606	47046	110477	0	0	8148	530160	0	0
2024-09-06 12:22:47			0	38379	0	0	0	28207	26800	152804	26870	1076642	47058	110475	0	0	8148	530092	0	0
2024-09-06 12:23:47			0	38380	0	0	0	28207	26790	152964	27175	1076633	47036	110475	0	0	8148	530084	0	0
2024-09-06 12:24:47			0	38370	0	0	0	28210	26790	152900	27232	1076633	47046	110476	0	0	8148	530463	0	0
2024-09-06 12:25:47			0	38369	0	0	0	28199	26790	152872	27124	1076687	47036	110472	0	0	8148	530501	0	0
2024-09-06 12:26:47			0	38366	0	0	0	28192	26790	152828	27062	1076606	47058	110469	0	0	8148	530615	0	0
2024-09-06 12:27:47			0	38373	0	0	0	28194	26790	152848	27086	1076606	47036	110470	0	0	8148	530349	0	0
2024-09-06 12:28:47			0	38363	0	0	0	28192	26790	152960	27275	1076606	47036	110469	0	0	8148	530729	0	0
2024-09-06 12:29:47			0	38359	0	0	0	28205	26790	152812	27474	1076543	47036	110474	0	0	8147	530881	0	0
2024-09-06 12:30:47			0	38361	0	0	0	28223	26800	152856	27505	1076589	47046	110481	0	0	8147	530775	0	0
2024-09-06 12:31:47			0	38367	0	0	0	28220	26800	152820	27026	1076642	47046	110480	0	0	8147	530547	0	0
2024-09-06 12:32:47			0	38409	0	0	0	28225	26800	152804	27371	1076642	47036	110482	0	0	8150	528955	0	0
2024-09-06 12:33:47			0	38435	0	0	0	28225	26800	152704	27552	1076705	47047	110482	0	0	8151	527970	0	0
2024-09-06 12:34:47			0	38446	0	0	0	28225	26800	152648	27130	1076777	47046	110482	0	0	8152	527555	0	0
2024-09-06 12:35:47			0	38468	0	0	0	28223	26800	152708	27246	1076705	47047	110481	0	0	8153	526723	0	0
2024-09-06 12:36:47			0	38454	0	0	0	28210	26800	152604	26811	1076732	47037	110476	0	0	8153	527252	0	0
2024-09-06 12:37:47			0	38466	0	0	0	28202	26810	152568	27201	1076741	47038	110473	0	0	8153	526768	0	0
2024-09-06 12:38:47			0	38467	0	0	0	28210	26800	152608	27281	1076651	47026	110476	0	0	8153	526761	0	0
2024-09-06 12:39:47			0	38469	0	0	0	28207	26800	152556	27166	1076696	47046	110475	0	0	8154	526685	0	0
2024-09-06 12:40:47			0	38441	0	0	0	28202	26800	152588	27216	1076651	47037	110473	0	0	8152	527743	0	0
2024-09-06 12:41:47			0	38440	0	0	0	28210	26810	152572	27161	1076723	47060	110476	0	0	8152	527751	0	0
2024-09-06 12:42:47			0	38443	0	0	0	28205	26800	152592	27294	1076669	47025	110474	0	0	8152	527668	0	0
2024-09-06 12:43:47			0	38426	0	0	0	28207	26790	152572	26854	1076660	47036	110475	0	0	8151	528341	0	0
2024-09-06 12:44:47			0	38421	0	0	0	28202	26790	152588	27326	1076633	47036	110473	0	0	8151	528531	0	0
2024-09-06 12:45:47			0	38435	0	0	0	28199	26800	152676	26989	1076651	47037	110472	0	0	8152	527970	0	0
2024-09-06 12:46:47			0	38415	0	0	0	28199	26790	152624	27145	1076606	47046	110472	0	0	8151	528758	0	0
2024-09-06 12:47:47			0	38399	0	0	0	28212	26800	152736	27053	1076651	47037	110477	0	0	8149	529334	0	0
2024-09-06 12:48:47			0	38417	0	0	0	28205	26800	152640	27130	1076651	47081	110474	0	0	8151	528652	0	0
2024-09-06 12:49:47			0	38417	0	0	0	28223	26800	152636	27149	1076642	47046	110481	0	0	8150	528652	0	0
2024-09-06 12:50:47			0	38442	0	0	0	28199	26800	152652	27215	1076669	47046	110472	0	0	8152	527706	0	0
2024-09-06 12:51:47			0	38429	0	0	0	28218	26800	152636	27216	1076759	47037	110479	0	0	8151	528198	0	0
2024-09-06 12:52:47			0	38397	0	0	0	28218	26800	152728	27180	1076669	47036	110479	0	0	8149	529409	0	0
2024-09-06 12:53:47			0	38452	0	0	0	28205	26800	152644	27050	1076732	47059	110474	0	0	8153	527328	0	0
2024-09-06 12:54:47			0	38467	0	0	0	28210	26800	152496	27048	1076696	47036	110476	0	0	8153	526761	0	0
2024-09-06 12:55:47			0	38433	0	0	0	28210	26810	152580	27216	1076714	47038	110476	0	0	8151	528016	0	0
2024-09-06 12:56:47			0	38444	0	0	0	28199	26810	152540	27422	1076687	47038	110472	0	0	8152	527600	0	0
2024-09-06 12:57:47			0	38470	0	0	0	28179	26800	152488	27345	1076705	47059	110464	0	0	8154	526647	0	0
2024-09-06 12:58:47			0	38453	0	0	0	28184	26800	152520	27390	1076615	47036	110466	0	0	8153	527290	0	0
2024-09-06 12:59:47			0	38448	0	0	0	28251	26790	152548	27711	1076660	47046	110492	0	0	8152	527509	0	0
2024-09-06 13:00:47			0	38459	0	0	0	28244	26810	152604	27156	1076741	47060	110489	0	0	8152	527033	0	0
2024-09-06 13:01:47			0	38484	0	0	0	28218	26800	152360	27391	1076732	47047	110479	0	0	8154	526119	0	0
2024-09-06 13:02:47			0	38526	0	0	0	28207	26810	152376	27253	1076741	47060	110475	0	0	8157	524505	0	0
2024-09-06 13:03:47			0	38506	0	0	0	28218	26820	152276	27235	1076786	47060	110479	0	0	8156	525229	0	0
2024-09-06 13:04:47			0	38499	0	0	0	28210	26800	152316	27242	1076732	47037	110476	0	0	8155	525553	0	0
2024-09-06 13:05:47			0	38514	0	0	0	28207	26810	152384	27360	1076741	47038	110475	0	0	8156	524957	0	0
2024-09-06 13:06:47			0	38492	0	0	0	28215	26800	152272	27371	1076732	47047	110478	0	0	8155	525817	0	0
2024-09-06 13:07:47			0	38469	0	0	0	28202	26810	152456	27453	1076723	47038	110473	0	0	8154	526655	0	0
2024-09-06 13:08:47			0	38471	0	0	0	28205	26810	152456	27241	1076723	47048	110474	0	0	8154	526580	0	0
2024-09-06 13:09:47			0	38462	0	0	0	28194	26810	152592	27559	1076741	47027	110470	0	0	8153	526919	0	0
2024-09-06 13:10:47			0	38432	0	0	0	28205	26810	152640	27251	1076670	47038	110474	0	0	8151	528054	0	0
2024-09-06 13:11:47			0	38459	0	0	0	28207	26800	152640	27175	1076732	47037	110475	0	0	8153	527063	0	0
2024-09-06 13:12:47			0	38446	0	0	0	28205	26810	152544	26960	1076714	47038	110474	0	0	8152	527524	0	0
2024-09-06 13:13:47			0	38438	0	0	0	28218	26810	152524	26979	1076723	47071	110479	0	0	8152	527827	0	0
2024-09-06 13:14:47			0	38464	0	0	0	28212	26810	152548	27286	1076768	47048	110477	0	0	8153	526844	0	0
2024-09-06 13:15:47			0	38460	0	0	0	28215	26810	152576	26960	1076777	47060	110478	0	0	8153	526995	0	0
2024-09-06 13:16:47			0	38456	0	0	0	28218	26810	152464	27183	1076795	47048	110479	0	0	8153	527146	0	0
2024-09-06 13:17:47			0	38441	0	0	0	28225	26810	152640	27350	1076777	47038	110482	0	0	8152	527713	0	0
2024-09-06 13:18:47			0	38463	0	0	0	28228	26810	152504	27332	1076750	47048	110483	0	0	8153	526882	0	0
2024-09-06 13:19:47			0	38459	0	0	0	28223	26810	152516	27388	1076714	47048	110481	0	0	8153	527033	0	0
2024-09-06 13:20:47			0	38433	0	0	0	28215	26810	152520	27260	1076777	47038	110478	0	0	8151	528016	0	0
2024-09-06 13:21:47			0	38432	0	0	0	28212	26820	152564	27112	1076795	47039	110477	0	0	8151	528024	0	0
2024-09-06 13:22:47			0	38424	0	0	0	28215	26810	152704	27317	1076768	47038	110478	0	0	8151	528356	0	0
2024-09-06 13:23:47			0	38410	0	0	0	28220	26820	152640	27388	1076786	47038	110480	0	0	8150	528856	0	0
2024-09-06 13:24:47			0	38405	0	0	0	28257	26820	152712	27300	1076849	47049	110494	0	0	8149	529046	0	0
2024-09-06 13:25:47			0	38439	0	0	0	28259	26820	152692	27223	1076795	47072	110495	0	0	8151	527759	0	0
2024-09-06 13:26:47			0	38443	0	0	0	28238	26820	152680	27390	1076876	47049	110487	0	0	8152	527607	0	0
2024-09-06 13:27:47			0	38445	0	0	0	28233	26830	152480	27462	1076858	47050	110485	0	0	8152	527502	0	0
2024-09-06 13:28:47			0	38477	0	0	0	28244	26830	152500	27322	1076948	47062	110489	0	0	8153	526293	0	0
2024-09-06 13:29:47			0	38462	0	0	0	28244	26830	152540	27183	1076948	47050	110489	0	0	8153	526859	0	0
2024-09-06 13:30:47			0	38471	0	0	0	28231	26830	152600	27065	1076921	47050	110484	0	0	8153	526519	0	0
2024-09-06 13:31:47			0	38485	0	0	0	28231	26830	152436	27376	1076858	47040	110484	0	0	8154	525991	0	0
2024-09-06 13:32:47			0	38460	0	0	0	28257	26830	152524	27324	1076894	47050	110494	0	0	8152	526935	0	0
2024-09-06 13:33:47			0	38453	0	0	0	28246	26830	152556	27497	1076894	47050	110490	0	0	8152	527199	0	0
2024-09-06 13:34:47			0	38453	0	0	0	28275	26850	152532	27357	1076930	47053	110501	0	0	8152	527139	0	0
2024-09-06 13:35:47			0	38467	0	0	0	28288	26840	152560	27305	1076993	47051	110506	0	0	8152	526640	0	0
2024-09-06 13:36:47			0	38444	0	0	0	28296	26850	152596	27196	1077011	47065	110509	0	0	8151	527479	0	0
2024-09-06 13:37:47			0	38482	0	0	0	28280	26850	152452	27274	1077011	47065	110503	0	0	8153	526044	0	0
2024-09-06 13:38:47			0	38489	0	0	0	28280	26860	152400	27421	1077056	47065	110503	0	0	8154	525749	0	0
2024-09-06 13:39:47			0	38498	0	0	0	28280	26860	152400	27282	1077020	47053	110503	0	0	8154	525410	0	0
2024-09-06 13:40:47			0	38522	0	0	0	28267	26870	152364	27270	1077038	47054	110498	0	0	8156	524475	0	0
2024-09-06 13:41:47			0	38501	0	0	0	28283	26860	152376	27140	1077083	47076	110504	0	0	8154	525297	0	0
2024-09-06 13:42:47			0	38491	0	0	0	28303	26860	152432	27223	1077137	47053	110512	0	0	8153	525674	0	0
2024-09-06 13:43:47			0	38495	0	0	0	28316	26870	152376	27237	1077182	47067	110517	0	0	8153	525493	0	0
2024-09-06 13:44:47			0	38493	0	0	0	28335	26890	152364	27227	1077209	47068	110524	0	0	8153	525508	0	0
2024-09-06 13:45:47			0	38499	0	0	0	28348	26890	152328	27412	1077164	47069	110529	0	0	8153	525282	0	0
2024-09-06 13:46:47			0	38539	0	0	0	28340	26890	152320	27592	1077218	47080	110526	0	0	8156	523775	0	0
2024-09-06 13:47:47			0	38521	0	0	0	28374	26900	152252	27305	1077361	47069	110539	0	0	8154	524423	0	0
2024-09-06 13:48:47			0	38554	0	0	0	28384	26910	152156	27360	1077433	47070	110543	0	0	8156	523151	0	0
2024-09-06 13:49:47			0	38581	0	0	0	28386	26920	152128	27388	1077425	47082	110544	0	0	8157	522106	0	0
2024-09-06 13:50:47			0	38593	0	0	0	28397	26930	152064	26894	1077524	47072	110548	0	0	8158	521625	0	0
2024-09-06 13:51:47			0	38605	0	0	0	28384	26930	151968	27223	1077506	47073	110543	0	0	8159	521175	0	0
2024-09-06 13:52:47			0	38607	0	0	0	28394	26950	151964	27072	1077533	47075	110547	0	0	8159	521040	0	0
2024-09-06 13:53:47			0	38615	0	0	0	28397	26950	151828	27313	1077641	47085	110548	0	0	8159	520740	0	0
2024-09-06 13:54:47			0	38612	0	0	0	28394	26950	151868	27222	1077578	47063	110547	0	0	8159	520853	0	0
2024-09-06 13:55:47			0	38620	0	0	0	28415	26960	151872	27152	1077632	47065	110555	0	0	8159	520523	0	0
2024-09-06 13:56:47			0	38615	0	0	0	28399	26960	151816	27130	1077596	47075	110549	0	0	8159	520710	0	0
2024-09-06 13:57:47			0	38608	0	0	0	28412	26960	151836	27331	1077703	47075	110554	0	0	8159	520973	0	0
2024-09-06 13:58:47			0	38626	0	0	0	28399	26970	151736	27229	1077704	47077	110549	0	0	8160	520268	0	0
2024-09-06 13:59:47			0	38620	0	0	0	28389	26970	151792	27294	1077623	47077	110545	0	0	8160	520493	0	0
2024-09-06 14:00:47			0	38634	0	0	0	28405	26970	151784	27145	1077677	47077	110551	0	0	8160	519968	0	0
2024-09-06 14:01:47			0	38625	0	0	0	28386	26980	151776	27403	1077713	47077	110544	0	0	8160	520276	0	0
2024-09-06 14:02:47			0	38619	0	0	0	28389	26980	151784	27524	1077686	47066	110545	0	0	8160	520501	0	0
2024-09-06 14:03:47			0	38611	0	0	0	28399	26990	151820	27267	1077704	47067	110549	0	0	8159	520771	0	0
2024-09-06 14:04:47			0	38613	0	0	0	28423	26980	151840	27538	1077722	47078	110558	0	0	8159	520726	0	0
2024-09-06 14:05:47			0	38622	0	0	0	28399	26990	151816	27307	1077740	47068	110549	0	0	8160	520358	0	0
2024-09-06 14:06:47			0	38621	0	0	0	28394	26990	151720	27272	1077713	47079	110547	0	0	8160	520396	0	0
2024-09-06 14:07:47			0	38618	0	0	0	28402	27000	151764	27511	1077749	47068	110550	0	0	8160	520478	0	0
2024-09-06 14:08:47			0	38609	0	0	0	28410	27010	151692	27554	1077794	47057	110553	0	0	8159	520786	0	0
2024-09-06 14:09:47			0	38628	0	0	0	28415	27000	151736	27519	1077722	47068	110555	0	0	8160	520104	0	0
2024-09-06 14:10:47			0	38612	0	0	0	28410	27000	151688	27251	1077758	47069	110553	0	0	8159	520703	0	0
2024-09-06 14:11:47			0	38629	0	0	0	28433	27000	151712	27272	1077776	47079	110562	0	0	8160	520066	0	0
2024-09-06 14:12:47			0	38639	0	0	0	28438	27000	151632	27100	1077830	47079	110564	0	0	8160	519692	0	0
2024-09-06 14:13:47			0	38650	0	0	0	28441	27020	151648	27263	1077813	47071	110565	0	0	8161	519220	0	0
2024-09-06 14:14:47			0	38649	0	0	0	28436	27010	151500	27303	1077821	47080	110563	0	0	8161	519288	0	0
2024-09-06 14:15:47			0	38675	0	0	0	28441	27020	151404	27327	1077875	47071	110565	0	0	8162	518285	0	0
2024-09-06 14:16:47			0	38710	0	0	0	28451	27020	151344	27274	1077902	47082	110569	0	0	8164	516978	0	0
2024-09-06 14:17:47			0	38710	0	0	0	28493	27020	151360	27374	1077929	47071	110585	0	0	8163	516978	0	0
2024-09-06 14:18:47			0	38731	0	0	0	28511	27020	151305	27362	1077974	47082	110592	0	0	8164	516194	0	0
2024-09-06 14:19:47			0	38769	0	0	0	28535	27050	151117	27246	1078109	47084	110601	0	0	8166	514689	0	0
2024-09-06 14:20:47			0	38845	0	0	0	28540	27050	150809	27229	1078083	47107	110603	0	0	8171	511865	0	0
2024-09-06 14:21:47			0	38916	0	0	0	28532	27050	150521	27232	1078163	47095	110600	0	0	8175	509234	0	0
2024-09-06 14:22:47			0	38961	0	0	0	28537	27060	150429	27286	1078271	47096	110602	0	0	8177	507542	0	0
2024-09-06 14:23:47			0	38990	0	0	0	28516	27070	150385	27149	1078262	47098	110594	0	0	8179	506443	0	0
2024-09-06 14:24:47			0	38957	0	0	0	28511	27080	150317	27161	1078307	47088	110592	0	0	8178	507631	0	0
2024-09-06 14:25:47			0	38937	0	0	0	28490	27090	150393	27168	1078317	47088	110584	0	0	8177	508341	0	0
2024-09-06 14:26:47			0	38904	0	0	0	28503	27080	150537	27235	1078281	47078	110589	0	0	8175	509591	0	0
2024-09-06 14:27:47			0	38887	0	0	0	28516	27080	150589	27300	1078334	47066	110594	0	0	8173	510220	0	0
2024-09-06 14:28:47			0	38913	0	0	0	28519	27100	150553	27500	1078308	47079	110595	0	0	8175	509199	0	0
2024-09-06 14:29:47			0	38915	0	0	0	28566	27090	150501	27258	1078299	47099	110613	0	0	8174	509154	0	0
2024-09-06 14:30:47			0	38972	0	0	0	28573	27100	150333	27274	1078388	47112	110616	0	0	8177	507020	0	0
2024-09-06 14:31:47			0	39017	0	0	0	28537	27120	150093	27379	1078505	47091	110602	0	0	8181	505303	0	0
2024-09-06 14:32:47			0	39045	0	0	0	28509	27120	149977	27218	1078488	47092	110591	0	0	8183	504273	0	0
2024-09-06 14:33:47			0	39028	0	0	0	28496	27140	150061	27254	1078515	47093	110586	0	0	8182	504840	0	0
2024-09-06 14:34:47			0	38996	0	0	0	28490	27120	150229	27211	1078398	47081	110584	0	0	8180	506077	0	0
2024-09-06 14:35:47			0	38968	0	0	0	28485	27120	150261	27239	1078371	47081	110582	0	0	8179	507109	0	0
2024-09-06 14:36:47			0	38923	0	0	0	28488	27120	150457	27440	1078398	47069	110583	0	0	8176	508771	0	0
2024-09-06 14:37:47			0	38913	0	0	0	28498	27120	150533	27358	1078371	47069	110587	0	0	8175	509141	0	0
2024-09-06 14:38:47			0	38919	0	0	0	28477	27110	150417	27614	1078335	47068	110579	0	0	8176	508948	0	0
2024-09-06 14:39:47			0	38906	0	0	0	28490	27120	150501	27355	1078344	47047	110584	0	0	8175	509400	0	0
2024-09-06 14:40:47			0	38890	0	0	0	28488	27120	150501	27326	1078344	47081	110583	0	0	8174	509992	0	0
2024-09-06 14:41:47			0	38889	0	0	0	28542	27110	150561	27410	1078299	47080	110604	0	0	8173	510058	0	0
2024-09-06 14:42:47			0	38909	0	0	0	28594	27110	150633	27440	1078416	47090	110624	0	0	8174	509318	0	0
2024-09-06 14:43:47			0	38963	0	0	0	28592	27120	150433	27658	1078488	47092	110623	0	0	8177	507293	0	0
2024-09-06 14:44:47			0	39036	0	0	0	28568	27140	150009	27218	1078524	47094	110614	0	0	8181	504546	0	0
2024-09-06 14:45:47			0	39075	0	0	0	28553	27140	149885	27440	1078578	47094	110608	0	0	8184	503113	0	0
2024-09-06 14:46:47			0	39115	0	0	0	28561	27140	149809	27327	1078515	47083	110611	0	0	8186	501645	0	0
2024-09-06 14:47:47			0	39093	0	0	0	28571	27140	149837	27675	1078605	47094	110615	0	0	8185	502452	0	0
2024-09-06 14:48:47			0	39105	0	0	0	28563	27160	149673	27502	1078578	47084	110612	0	0	8185	501954	0	0
2024-09-06 14:49:47			0	39113	0	0	0	28571	27160	149645	27497	1078695	47096	110615	0	0	8186	501661	0	0
2024-09-06 14:50:47			0	39123	0	0	0	28563	27160	149677	27235	1078659	47084	110612	0	0	8187	501294	0	0
2024-09-06 14:51:47			0	39110	0	0	0	28555	27160	149689	27621	1078641	47085	110609	0	0	8186	501771	0	0
2024-09-06 14:52:47			0	39115	0	0	0	28548	27160	149701	27397	1078588	47096	110606	0	0	8186	501588	0	0
2024-09-06 14:53:47			0	39094	0	0	0	28548	27170	149773	27665	1078623	47076	110606	0	0	8185	502329	0	0
2024-09-06 14:54:47			0	39083	0	0	0	28550	27170	149845	27358	1078597	47086	110607	0	0	8184	502733	0	0
2024-09-06 14:55:47			0	39048	0	0	0	28566	27160	149869	27509	1078641	47085	110613	0	0	8182	504047	0	0
2024-09-06 14:56:47			0	39040	0	0	0	28586	27160	149945	27422	1078695	47085	110621	0	0	8181	504341	0	0
2024-09-06 14:57:47			0	39054	0	0	0	28571	27170	149937	27485	1078623	47086	110615	0	0	8182	503797	0	0
2024-09-06 14:58:47			0	39074	0	0	0	28579	27170	149853	27298	1078650	47097	110618	0	0	8183	503063	0	0
2024-09-06 14:59:47			0	39064	0	0	0	28586	27170	149825	27524	1078659	47086	110621	0	0	8183	503430	0	0
2024-09-06 15:00:47			0	39055	0	0	0	28581	27170	149673	27315	1078731	47076	110619	0	0	8182	503761	0	0
2024-09-06 15:01:47			0	39079	0	0	0	28586	27170	149769	26967	1078758	47086	110621	0	0	8184	502879	0	0
2024-09-06 15:02:47			0	39071	0	0	0	28594	27170	149829	27263	1078767	47086	110624	0	0	8183	503173	0	0
2024-09-06 15:03:47			0	39081	0	0	0	28599	27180	149841	27398	1078776	47086	110626	0	0	8184	502777	0	0
2024-09-06 15:04:47			0	39105	0	0	0	28605	27180	149825	27391	1078812	47076	110628	0	0	8185	501897	0	0
2024-09-06 15:05:47			0	39094	0	0	0	28599	27190	149709	27315	1078821	47077	110626	0	0	8184	502271	0	0
2024-09-06 15:06:47			0	39093	0	0	0	28594	27190	149753	27447	1078776	47088	110624	0	0	8184	502308	0	0
2024-09-06 15:07:47			0	39089	0	0	0	28594	27190	149793	27267	1078848	47088	110624	0	0	8184	502455	0	0
2024-09-06 15:08:47			0	39081	0	0	0	28615	27190	149849	27507	1078830	47088	110632	0	0	8183	502748	0	0
2024-09-06 15:09:47			0	39105	0	0	0	28607	27190	149857	27393	1078830	47088	110629	0	0	8185	501868	0	0
2024-09-06 15:10:47			0	39097	0	0	0	28618	27200	149829	27183	1078875	47089	110633	0	0	8184	502132	0	0
2024-09-06 15:11:47			0	39116	0	0	0	28623	27210	149781	27126	1078938	47090	110635	0	0	8185	501407	0	0
2024-09-06 15:12:47			0	39123	0	0	0	28638	27200	149741	27007	1078947	47099	110641	0	0	8185	501179	0	0
2024-09-06 15:13:47			0	39122	0	0	0	28631	27210	149641	27232	1078911	47101	110638	0	0	8186	501187	0	0
2024-09-06 15:14:47			0	39156	0	0	0	28625	27210	149653	27081	1079001	47091	110636	0	0	8188	499943	0	0
2024-09-06 15:15:47			0	39129	0	0	0	28633	27220	149705	27072	1078956	47102	110639	0	0	8186	500902	0	0
2024-09-06 15:16:47			0	39138	0	0	0	28646	27220	149545	27431	1079010	47091	110644	0	0	8186	500573	0	0
2024-09-06 15:17:47			0	39156	0	0	0	28649	27230	149609	27308	1078992	47091	110645	0	0	8187	499885	0	0
2024-09-06 15:18:47			0	39182	0	0	0	28657	27230	149601	27098	1079082	47092	110648	0	0	8189	498935	0	0
2024-09-06 15:19:47			0	39201	0	0	0	28662	27240	149473	27312	1079064	47093	110650	0	0	8190	498212	0	0
2024-09-06 15:20:47			0	39228	0	0	0	28651	27240	149265	27460	1079145	47083	110646	0	0	8191	497227	0	0
2024-09-06 15:21:47			0	39244	0	0	0	28675	27230	149265	27364	1079109	47092	110655	0	0	8192	496673	0	0
2024-09-06 15:22:47			0	39266	0	0	0	28680	27240	149105	27249	1079154	47093	110657	0	0	8193	495843	0	0
2024-09-06 15:23:47			0	39313	0	0	0	28680	27240	149009	27628	1079208	47093	110657	0	0	8196	494134	0	0
2024-09-06 15:24:47			0	39310	0	0	0	28683	27240	148941	27253	1079208	47083	110658	0	0	8195	494243	0	0
2024-09-06 15:25:47			0	39324	0	0	0	28688	27250	149001	27319	1079190	47104	110660	0	0	8196	493706	0	0
2024-09-06 15:26:47			0	39313	0	0	0	28696	27270	148869	27338	1079226	47084	110663	0	0	8196	494049	0	0
2024-09-06 15:27:47			0	39361	0	0	0	28696	27260	148781	27448	1079244	47095	110663	0	0	8198	492336	0	0
2024-09-06 15:28:47			0	39350	0	0	0	28693	27260	148749	27345	1079325	47118	110662	0	0	8198	492735	0	0
2024-09-06 15:29:47			0	39381	0	0	0	28701	27270	148685	27301	1079262	47096	110665	0	0	8199	491583	0	0
2024-09-06 15:30:47			0	39398	0	0	0	28711	27270	148517	27362	1079289	47096	110669	0	0	8200	490967	0	0
2024-09-06 15:31:47			0	39423	0	0	0	28729	27290	148418	27180	1079371	47098	110676	0	0	8201	490007	0	0
2024-09-06 15:32:47			0	39422	0	0	0	28722	27280	148438	27377	1079406	47120	110673	0	0	8201	490071	0	0
2024-09-06 15:33:47			0	39470	0	0	0	28722	27290	148414	27538	1079451	47109	110673	0	0	8204	488310	0	0
2024-09-06 15:34:47			0	39456	0	0	0	28719	27290	148346	27286	1079434	47109	110672	0	0	8203	488815	0	0
2024-09-06 15:35:47			0	39464	0	0	0	28714	27310	148278	27057	1079515	47123	110670	0	0	8204	488470	0	0
2024-09-06 15:36:47			0	39467	0	0	0	28719	27300	148326	27334	1079452	47111	110672	0	0	8204	488390	0	0
2024-09-06 15:37:47			0	39462	0	0	0	28711	27300	148366	27104	1079443	47088	110669	0	0	8204	488570	0	0
2024-09-06 15:38:47			0	39455	0	0	0	28735	27310	148230	27433	1079488	47100	110678	0	0	8203	488795	0	0
2024-09-06 15:39:47			0	39490	0	0	0	28737	27310	148326	27190	1079497	47089	110679	0	0	8205	487532	0	0
2024-09-06 15:40:47			0	39494	0	0	0	28748	27320	148198	27157	1079425	47112	110683	0	0	8205	487360	0	0
2024-09-06 15:41:47			0	39501	0	0	0	28748	27320	148142	27367	1079506	47101	110683	0	0	8206	487108	0	0
2024-09-06 15:42:47			0	39498	0	0	0	28745	27310	148250	27223	1079524	47100	110682	0	0	8205	487244	0	0
2024-09-06 15:43:47			0	39517	0	0	0	28748	27330	148046	27559	1079587	47114	110683	0	0	8207	486504	0	0
2024-09-06 15:44:47			0	39506	0	0	0	28753	27330	148134	27209	1079605	47091	110685	0	0	8206	486900	0	0
2024-09-06 15:45:47			0	39497	0	0	0	28748	27340	148114	27329	1079569	47092	110683	0	0	8205	487196	0	0
2024-09-06 15:46:47			0	39499	0	0	0	28742	27330	148054	27367	1079560	47102	110681	0	0	8206	487152	0	0
2024-09-06 15:47:47			0	39496	0	0	0	28761	27340	148210	27398	1079578	47104	110688	0	0	8205	487232	0	0
2024-09-06 15:48:47			0	39499	0	0	0	28755	27330	148114	27324	1079587	47102	110686	0	0	8205	487152	0	0
2024-09-06 15:49:47			0	39506	0	0	0	28748	27350	148158	27303	1079614	47094	110683	0	0	8206	486844	0	0
2024-09-06 15:50:47			0	39482	0	0	0	28755	27350	148242	27059	1079614	47105	110686	0	0	8205	487709	0	0
2024-09-06 15:51:47			0	39503	0	0	0	28753	27340	148230	27569	1079623	47103	110685	0	0	8206	486980	0	0
2024-09-06 15:52:47			0	39500	0	0	0	28761	27350	148218	27178	1079641	47105	110688	0	0	8205	487060	0	0
2024-09-06 15:53:47			0	39487	0	0	0	28761	27350	148218	27460	1079668	47105	110688	0	0	8205	487529	0	0
2024-09-06 15:54:47			0	39488	0	0	0	28776	27360	148174	27329	1079686	47094	110694	0	0	8205	487464	0	0
2024-09-06 15:55:47			0	39520	0	0	0	28768	27340	148210	27315	1079659	47104	110691	0	0	8206	486368	0	0
2024-09-06 15:56:47			0	39507	0	0	0	28774	27360	148126	27267	1079686	47116	110693	0	0	8206	486780	0	0
2024-09-06 15:57:47			0	39507	0	0	0	28763	27370	148142	27083	1079767	47107	110689	0	0	8206	486752	0	0
2024-09-06 15:58:47			0	39512	0	0	0	28763	27360	148186	27253	1079749	47118	110689	0	0	8206	486600	0	0
2024-09-06 15:59:47			0	39472	0	0	0	28766	27370	148346	27384	1079687	47107	110690	0	0	8204	488013	0	0
2024-09-06 16:00:47			0	39471	0	0	0	28742	27370	148374	27313	1079704	47107	110681	0	0	8204	488049	0	0
2024-09-06 16:01:47			0	39459	0	0	0	28750	27360	148322	27300	1079722	47095	110684	0	0	8203	488510	0	0
2024-09-06 16:02:47			0	39444	0	0	0	28758	27370	148410	27083	1079704	47084	110687	0	0	8202	489023	0	0
2024-09-06 16:03:47			0	39447	0	0	0	28763	27360	148370	27656	1079695	47128	110689	0	0	8202	488943	0	0
2024-09-06 16:04:47			0	39450	0	0	0	28768	27360	148422	27447	1079749	47106	110691	0	0	8203	488835	0	0
2024-09-06 16:05:47			0	39441	0	0	0	28771	27360	148502	27124	1079749	47118	110692	0	0	8202	489160	0	0
2024-09-06 16:06:47			0	39445	0	0	0	28779	27370	148486	27348	1079758	47107	110695	0	0	8202	488987	0	0
2024-09-06 16:07:47			0	39466	0	0	0	28781	27380	148482	27260	1079749	47107	110696	0	0	8203	488201	0	0
2024-09-06 16:08:47			0	39471	0	0	0	28797	27360	148394	27222	1079713	47116	110702	0	0	8203	488077	0	0
2024-09-06 16:09:47			0	39478	0	0	0	28797	27370	148306	27390	1079794	47119	110702	0	0	8204	487797	0	0
2024-09-06 16:10:47			0	39493	0	0	0	28792	27390	148242	27157	1079848	47121	110700	0	0	8205	487200	0	0
2024-09-06 16:11:47			0	39496	0	0	0	28781	27370	148142	27190	1079794	47107	110696	0	0	8205	487148	0	0
2024-09-06 16:12:47			0	39492	0	0	0	28781	27380	148242	27372	1079812	47108	110696	0	0	8205	487264	0	0
2024-09-06 16:13:47			0	39494	0	0	0	28774	27390	148270	27409	1079768	47109	110693	0	0	8205	487164	0	0
2024-09-06 16:14:47			0	39479	0	0	0	28784	27390	148370	27208	1079741	47109	110697	0	0	8204	487705	0	0
2024-09-06 16:15:47			0	39473	0	0	0	28771	27370	148362	27168	1079767	47107	110692	0	0	8204	487977	0	0
2024-09-06 16:16:47			0	39439	0	0	0	28789	27390	148318	27298	1079804	47109	110699	0	0	8202	489148	0	0
2024-09-06 16:17:47			0	39437	0	0	0	28771	27380	148406	27176	1079732	47097	110692	0	0	8202	489248	0	0
2024-09-06 16:18:47			0	39436	0	0	0	28774	27380	148438	27003	1079830	47096	110693	0	0	8202	489284	0	0
2024-09-06 16:19:47			0	39429	0	0	0	28794	27380	148362	27202	1079866	47097	110701	0	0	8201	489537	0	0
2024-09-06 16:20:47			0	39459	0	0	0	28781	27390	148358	27414	1079857	47131	110696	0	0	8203	488426	0	0
2024-09-06 16:21:47			0	39457	0	0	0	28789	27380	148350	27197	1079830	47107	110699	0	0	8203	488526	0	0
2024-09-06 16:22:47			0	39445	0	0	0	28784	27390	148350	27130	1079875	47121	110697	0	0	8202	488931	0	0
2024-09-06 16:23:47			0	39439	0	0	0	28771	27370	148418	27208	1079794	47107	110692	0	0	8202	489204	0	0
2024-09-06 16:24:47			0	39421	0	0	0	28766	27390	148474	27327	1079768	47098	110690	0	0	8201	489798	0	0
2024-09-06 16:25:47			0	39392	0	0	0	28776	27370	148525	27460	1079767	47096	110694	0	0	8199	490902	0	0
2024-09-06 16:26:47			0	39388	0	0	0	28789	27380	148669	27223	1079812	47108	110699	0	0	8199	491019	0	0
2024-09-06 16:27:47			0	39398	0	0	0	28774	27390	148697	26963	1079795	47109	110693	0	0	8200	490629	0	0
2024-09-06 16:28:47			0	39383	0	0	0	28792	27380	148649	27274	1079839	47108	110700	0	0	8198	491200	0	0
2024-09-06 16:29:47			0	39391	0	0	0	28789	27390	148617	27279	1079795	47109	110699	0	0	8199	490882	0	0
2024-09-06 16:30:47			0	39397	0	0	0	28802	27380	148589	27341	1079830	47107	110704	0	0	8199	490693	0	0
2024-09-06 16:31:47			0	39407	0	0	0	28797	27390	148541	26930	1079884	47121	110702	0	0	8200	490303	0	0
2024-09-06 16:32:47			0	39423	0	0	0	28792	27390	148558	27166	1079831	47109	110700	0	0	8201	489725	0	0
2024-09-06 16:33:47			0	39430	0	0	0	28786	27390	148482	27017	1079902	47121	110698	0	0	8201	489473	0	0
2024-09-06 16:34:47			0	39397	0	0	0	28786	27390	148537	27138	1079875	47109	110698	0	0	8199	490665	0	0
2024-09-06 16:35:47			0	39384	0	0	0	28781	27390	148561	27114	1079821	47109	110696	0	0	8199	491135	0	0
2024-09-06 16:36:47			0	39392	0	0	0	28786	27400	148605	27130	1079867	47109	110698	0	0	8199	490818	0	0
2024-09-06 16:37:47			0	39405	0	0	0	28799	27390	148701	27170	1079848	47109	110703	0	0	8200	490376	0	0
2024-09-06 16:38:47			0	39389	0	0	0	28802	27390	148549	26922	1079821	47098	110704	0	0	8199	490955	0	0
2024-09-06 16:39:47			0	39406	0	0	0	28794	27390	148653	27495	1079848	47121	110701	0	0	8200	490340	0	0
2024-09-06 16:40:47			0	39404	0	0	0	28815	27390	148565	27190	1079911	47121	110709	0	0	8199	490412	0	0
2024-09-06 16:41:47			0	39418	0	0	0	28815	27390	148533	27303	1079911	47121	110709	0	0	8200	489906	0	0
2024-09-06 16:42:47			0	39415	0	0	0	28820	27400	148513	27209	1079920	47109	110711	0	0	8200	489986	0	0
2024-09-06 16:43:47			0	39431	0	0	0	28825	27400	148554	27204	1079947	47121	110713	0	0	8201	489408	0	0
2024-09-06 16:44:47			0	39451	0	0	0	28823	27410	148390	27331	1079939	47133	110712	0	0	8202	488658	0	0
2024-09-06 16:45:47			0	39438	0	0	0	28831	27410	148342	27133	1079939	47133	110715	0	0	8201	489127	0	0
2024-09-06 16:46:47			0	39479	0	0	0	28818	27420	148406	27365	1080038	47112	110710	0	0	8204	487621	0	0
2024-09-06 16:47:47			0	39448	0	0	0	28815	27410	148314	27331	1079948	47100	110709	0	0	8202	488766	0	0
2024-09-06 16:48:47			0	39463	0	0	0	28823	27410	148334	27076	1079992	47123	110712	0	0	8203	488225	0	0
2024-09-06 16:49:47			0	39495	0	0	0	28844	27410	148242	27253	1079975	47123	110720	0	0	8204	487072	0	0
2024-09-06 16:50:47			0	39523	0	0	0	28859	27410	148218	27398	1080046	47123	110726	0	0	8205	486065	0	0
2024-09-06 16:51:47			0	39550	0	0	0	28872	27420	147962	27398	1080128	47124	110731	0	0	8207	485066	0	0
2024-09-06 16:52:47			0	39578	0	0	0	28872	27430	147902	27301	1080083	47135	110731	0	0	8208	484033	0	0
2024-09-06 16:53:47			0	39594	0	0	0	28870	27430	147790	27312	1080146	47136	110730	0	0	8209	483459	0	0
2024-09-06 16:54:47			0	39631	0	0	0	28867	27440	147658	27500	1080128	47125	110729	0	0	8212	482106	0	0
2024-09-06 16:55:47			0	39622	0	0	0	28870	27440	147774	27485	1080128	47125	110730	0	0	8211	482428	0	0
2024-09-06 16:56:47			0	39620	0	0	0	28854	27440	147710	27462	1080191	47125	110724	0	0	8211	482499	0	0
2024-09-06 16:57:47			0	39603	0	0	0	28831	27440	147774	27142	1080110	47114	110715	0	0	8211	483109	0	0
2024-09-06 16:58:47			0	39551	0	0	0	28831	27440	147866	27393	1080164	47125	110715	0	0	8208	484974	0	0
2024-09-06 16:59:47			0	39525	0	0	0	28828	27440	148086	27272	1080191	47103	110714	0	0	8206	485909	0	0
2024-09-06 17:00:47			0	39521	0	0	0	28825	27440	148062	27206	1080164	47103	110713	0	0	8206	486053	0	0
2024-09-06 17:01:47			0	39504	0	0	0	28823	27440	147990	27415	1080137	47103	110712	0	0	8205	486664	0	0
2024-09-06 17:02:47			0	39490	0	0	0	28807	27450	148138	27227	1080092	47126	110706	0	0	8205	487140	0	0
2024-09-06 17:03:47			0	39499	0	0	0	28807	27430	148098	27345	1080065	47103	110706	0	0	8205	486872	0	0
2024-09-06 17:04:47			0	39485	0	0	0	28810	27430	148106	27275	1080029	47113	110707	0	0	8204	487376	0	0
2024-09-06 17:05:47			0	39459	0	0	0	28807	27420	148190	27377	1080047	47101	110706	0	0	8203	488342	0	0
2024-09-06 17:06:47			0	39473	0	0	0	28810	27430	148170	27235	1079975	47125	110707	0	0	8203	487809	0	0
2024-09-06 17:07:47			0	39482	0	0	0	28812	27420	148154	27575	1079993	47112	110708	0	0	8204	487513	0	0
2024-09-06 17:08:47			0	39482	0	0	0	28815	27420	148110	27225	1080020	47112	110709	0	0	8204	487513	0	0
2024-09-06 17:09:47			0	39483	0	0	0	28820	27430	148210	27313	1080065	47103	110711	0	0	8204	487448	0	0
2024-09-06 17:10:47			0	39494	0	0	0	28836	27420	148182	27409	1080074	47101	110717	0	0	8204	487080	0	0
2024-09-06 17:11:47			0	39488	0	0	0	28841	27420	148130	27351	1079993	47112	110719	0	0	8204	487296	0	0
2024-09-06 17:12:47			0	39537	0	0	0	28846	27420	148150	27234	1080047	47124	110721	0	0	8206	485533	0	0
2024-09-06 17:13:47			0	39534	0	0	0	28849	27430	147922	27372	1080056	47113	110722	0	0	8206	485613	0	0
2024-09-06 17:14:47			0	39556	0	0	0	28844	27430	147882	27426	1080110	47113	110720	0	0	8208	484823	0	0
2024-09-06 17:15:47			0	39531	0	0	0	28857	27430	147930	27232	1080119	47103	110725	0	0	8206	485721	0	0
2024-09-06 17:16:47			0	39549	0	0	0	28836	27430	147894	27500	1080038	47125	110717	0	0	8207	485074	0	0
2024-09-06 17:17:47			0	39571	0	0	0	28836	27430	147790	27078	1080083	47125	110717	0	0	8209	484284	0	0
2024-09-06 17:18:47			0	39560	0	0	0	28825	27440	148002	27409	1080101	47125	110713	0	0	8208	484651	0	0
2024-09-06 17:19:47			0	39515	0	0	0	28849	27430	147962	27215	1080119	47125	110722	0	0	8205	486296	0	0
2024-09-06 17:20:47			0	39508	0	0	0	28851	27440	148022	27279	1080164	47114	110723	0	0	8205	486520	0	0
2024-09-06 17:21:47			0	39494	0	0	0	28854	27440	148018	27213	1080128	47125	110724	0	0	8204	487024	0	0
2024-09-06 17:22:47			0	39504	0	0	0	28857	27450	147966	27218	1080209	47138	110725	0	0	8205	486636	0	0
2024-09-06 17:23:47			0	39540	0	0	0	28862	27450	147898	26944	1080263	47116	110727	0	0	8206	485342	0	0
2024-09-06 17:24:47			0	39578	0	0	0	28854	27450	147998	27152	1080236	47116	110724	0	0	8209	483977	0	0
2024-09-06 17:25:47			0	39547	0	0	0	28851	27440	147810	27319	1080218	47114	110723	0	0	8207	485118	0	0
2024-09-06 17:26:47			0	39553	0	0	0	28862	27450	147854	27170	1080209	47116	110727	0	0	8207	484875	0	0
2024-09-06 17:27:47			0	39579	0	0	0	28870	27450	147802	27659	1080236	47127	110730	0	0	8209	483941	0	0
2024-09-06 17:28:47			0	39576	0	0	0	28872	27460	147710	27105	1080227	47127	110731	0	0	8208	484021	0	0
2024-09-06 17:29:47			0	39578	0	0	0	28857	27460	147662	27286	1080245	47127	110725	0	0	8209	483949	0	0
2024-09-06 17:30:47			0	39575	0	0	0	28864	27450	147642	27350	1080317	47116	110728	0	0	8208	484085	0	0
2024-09-06 17:31:47			0	39565	0	0	0	28872	27460	147810	27033	1080254	47138	110731	0	0	8208	484416	0	0
2024-09-06 17:32:47			0	39562	0	0	0	28870	27460	147782	27440	1080245	47116	110730	0	0	8208	484524	0	0
2024-09-06 17:33:47			0	39587	0	0	0	28880	27470	147794	27182	1080263	47117	110734	0	0	8209	483599	0	0
2024-09-06 17:34:47			0	39583	0	0	0	28885	27470	147766	27088	1080290	47128	110736	0	0	8209	483742	0	0
2024-09-06 17:35:47			0	39611	0	0	0	28890	27460	147706	27293	1080308	47127	110738	0	0	8210	482766	0	0
2024-09-06 17:36:47			0	39605	0	0	0	28877	27470	147594	26998	1080344	47117	110733	0	0	8210	482954	0	0
2024-09-06 17:37:47			0	39625	0	0	0	28890	27470	147634	27126	1080326	47118	110738	0	0	8211	482237	0	0
2024-09-06 17:38:47			0	39622	0	0	0	28888	27470	147562	27407	1080326	47129	110737	0	0	8211	482345	0	0
2024-09-06 17:39:47			0	39638	0	0	0	28885	27480	147554	27341	1080308	47107	110736	0	0	8212	481744	0	0
2024-09-06 17:40:47			0	39634	0	0	0	28872	27470	147446	27175	1080326	47118	110731	0	0	8212	481915	0	0
2024-09-06 17:41:47			0	39630	0	0	0	28877	27470	147614	27492	1080245	47118	110733	0	0	8211	482058	0	0
2024-09-06 17:42:47			0	39610	0	0	0	28880	27470	147630	27149	1080272	47118	110734	0	0	8210	482774	0	0
2024-09-06 17:43:47			0	39595	0	0	0	28867	27470	147730	27294	1080326	47129	110729	0	0	8210	483312	0	0
2024-09-06 17:44:47			0	39588	0	0	0	28870	27470	147658	27230	1080344	47117	110730	0	0	8209	483563	0	0
2024-09-06 17:45:47			0	39590	0	0	0	28851	27470	147682	27417	1080299	47118	110723	0	0	8210	483491	0	0
2024-09-06 17:46:47			0	39581	0	0	0	28864	27470	147682	27112	1080209	47106	110728	0	0	8209	483814	0	0
2024-09-06 17:47:47			0	39563	0	0	0	28854	27470	147818	27050	1080317	47117	110724	0	0	8208	484460	0	0
2024-09-06 17:48:47			0	39579	0	0	0	28870	27470	147758	27279	1080245	47107	110730	0	0	8209	483886	0	0
2024-09-06 17:49:47			0	39561	0	0	0	28870	27470	147698	27098	1080290	47117	110730	0	0	8208	484532	0	0
2024-09-06 17:50:47			0	39582	0	0	0	28864	27470	147658	27324	1080263	47117	110728	0	0	8209	483778	0	0
2024-09-06 17:51:47			0	39592	0	0	0	28859	27470	147662	27111	1080209	47117	110726	0	0	8210	483420	0	0
2024-09-06 17:52:47			0	39608	0	0	0	28877	27460	147614	27211	1080245	47105	110733	0	0	8210	482874	0	0
2024-09-06 17:53:47			0	39589	0	0	0	28872	27460	147754	27218	1080281	47116	110731	0	0	8209	483555	0	0
2024-09-06 17:54:47			0	39622	0	0	0	28864	27470	147622	27005	1080299	47118	110728	0	0	8211	482345	0	0
2024-09-06 17:55:47			0	39642	0	0	0	28851	27470	147526	27391	1080236	47117	110723	0	0	8213	481629	0	0
2024-09-06 17:56:47			0	39617	0	0	0	28849	27460	147622	27043	1080191	47105	110722	0	0	8211	482551	0	0
2024-09-06 17:57:47			0	39610	0	0	0	28846	27470	147642	27353	1080263	47117	110721	0	0	8211	482774	0	0
2024-09-06 17:58:47			0	39601	0	0	0	28844	27460	147694	27317	1080218	47127	110720	0	0	8210	483125	0	0
2024-09-06 17:59:47			0	39577	0	0	0	28841	27460	147758	26967	1080254	47127	110719	0	0	8209	483985	0	0
2024-09-06 18:00:47			0	39583	0	0	0	28841	27460	147770	27249	1080191	47105	110719	0	0	8209	483770	0	0
2024-09-06 18:01:47			0	39572	0	0	0	28841	27460	147730	27066	1080146	47105	110719	0	0	8209	484165	0	0
2024-09-06 18:02:47			0	39598	0	0	0	28838	27440	147630	27059	1080191	47114	110718	0	0	8210	483288	0	0
2024-09-06 18:03:47			0	39566	0	0	0	28836	27440	147634	27098	1080137	47103	110717	0	0	8208	484436	0	0
2024-09-06 18:04:47			0	39569	0	0	0	28831	27440	147714	26968	1080110	47114	110715	0	0	8209	484328	0	0
2024-09-06 18:05:47			0	39532	0	0	0	28825	27440	147910	27310	1080110	47136	110713	0	0	8207	485657	0	0
2024-09-06 18:06:47			0	39548	0	0	0	28828	27440	147786	27126	1080110	47114	110714	0	0	8207	485082	0	0
2024-09-06 18:07:47			0	39533	0	0	0	28823	27440	147854	27282	1080083	47114	110712	0	0	8207	485621	0	0
2024-09-06 18:08:47			0	39503	0	0	0	28810	27430	147950	26979	1080056	47113	110707	0	0	8205	486728	0	0
2024-09-06 18:09:47			0	39478	0	0	0	28812	27430	147962	27142	1080056	47102	110708	0	0	8204	487629	0	0
2024-09-06 18:10:47			0	39466	0	0	0	28810	27430	148138	27048	1079984	47114	110707	0	0	8203	488061	0	0
2024-09-06 18:11:47			0	39462	0	0	0	28805	27430	148202	27126	1080029	47113	110705	0	0	8203	488205	0	0
2024-09-06 18:12:47			0	39432	0	0	0	28797	27420	148246	27012	1079966	47112	110702	0	0	8201	489316	0	0
2024-09-06 18:13:47			0	39410	0	0	0	28802	27420	148485	27149	1079993	47112	110704	0	0	8200	490111	0	0
2024-09-06 18:14:47			0	39380	0	0	0	28805	27420	148401	26956	1079984	47101	110705	0	0	8198	491195	0	0
2024-09-06 18:15:47			0	39368	0	0	0	28802	27420	148533	27062	1079876	47112	110704	0	0	8198	491630	0	0
2024-09-06 18:16:47			0	39376	0	0	0	28802	27410	148549	27079	1079992	47100	110704	0	0	8198	491368	0	0
2024-09-06 18:17:47			0	39354	0	0	0	28797	27410	148517	27067	1079948	47100	110702	0	0	8197	492165	0	0
2024-09-06 18:18:47			0	39356	0	0	0	28784	27410	148513	27114	1079975	47111	110697	0	0	8197	492093	0	0
2024-09-06 18:19:47			0	39330	0	0	0	28789	27400	148589	27277	1079929	47110	110699	0	0	8196	493063	0	0
2024-09-06 18:20:47			0	39310	0	0	0	28789	27400	148785	27235	1079876	47122	110699	0	0	8194	493789	0	0
2024-09-06 18:21:47			0	39298	0	0	0	28792	27400	148777	26932	1079903	47099	110700	0	0	8194	494225	0	0
2024-09-06 18:22:47			0	39302	0	0	0	28784	27390	148705	27190	1079884	47098	110697	0	0	8194	494108	0	0
2024-09-06 18:23:47			0	39293	0	0	0	28768	27390	148717	27308	1079857	47098	110691	0	0	8194	494435	0	0
2024-09-06 18:24:47			0	39290	0	0	0	28776	27390	148829	27022	1079875	47098	110694	0	0	8193	494544	0	0
2024-09-06 18:25:47			0	39276	0	0	0	28763	27390	148749	27154	1079875	47109	110689	0	0	8193	495052	0	0
2024-09-06 18:26:47			0	39277	0	0	0	28763	27380	148817	26927	1079759	47085	110689	0	0	8193	495045	0	0
2024-09-06 18:27:47			0	39276	0	0	0	28761	27370	148941	27064	1079767	47119	110688	0	0	8193	495109	0	0
2024-09-06 18:28:47			0	39266	0	0	0	28763	27370	148909	27046	1079758	47119	110689	0	0	8192	495473	0	0
2024-09-06 18:29:47			0	39248	0	0	0	28766	27380	148909	27114	1079803	47107	110690	0	0	8191	496099	0	0
2024-09-06 18:30:47			0	39266	0	0	0	28768	27370	148925	26956	1079767	47119	110691	0	0	8192	495473	0	0
2024-09-06 18:31:47			0	39264	0	0	0	28771	27370	148989	27074	1079785	47107	110692	0	0	8192	495546	0	0
2024-09-06 18:32:47			0	39251	0	0	0	28763	27370	148865	26911	1079794	47119	110689	0	0	8191	496019	0	0
2024-09-06 18:33:47			0	39242	0	0	0	28761	27360	148965	26889	1079749	47118	110688	0	0	8191	496375	0	0
2024-09-06 18:34:47			0	39261	0	0	0	28753	27370	149037	27457	1079740	47096	110685	0	0	8192	495655	0	0
2024-09-06 18:35:47			0	39255	0	0	0	28758	27360	149009	26913	1079695	47118	110687	0	0	8192	495902	0	0
2024-09-06 18:36:47			0	39252	0	0	0	28768	27360	149057	27173	1079722	47118	110691	0	0	8191	496011	0	0
2024-09-06 18:37:47			0	39256	0	0	0	28763	27370	149045	27067	1079731	47119	110689	0	0	8192	495837	0	0
2024-09-06 18:38:47			0	39238	0	0	0	28766	27370	148997	27128	1079677	47119	110690	0	0	8191	496492	0	0
2024-09-06 18:39:47			0	39234	0	0	0	28761	27370	149109	27197	1079704	47107	110688	0	0	8190	496638	0	0
2024-09-06 18:40:47			0	39214	0	0	0	28761	27350	148969	27260	1079677	47105	110688	0	0	8189	497424	0	0
2024-09-06 18:41:47			0	39208	0	0	0	28758	27360	149061	27280	1079686	47105	110687	0	0	8189	497614	0	0
2024-09-06 18:42:47			0	39228	0	0	0	28758	27360	149045	26974	1079695	47106	110687	0	0	8190	496885	0	0
2024-09-06 18:43:47			0	39223	0	0	0	28750	27360	149201	26880	1079659	47116	110684	0	0	8190	497067	0	0
2024-09-06 18:44:47			0	39205	0	0	0	28748	27360	149181	27150	1079686	47116	110683	0	0	8189	497723	0	0
2024-09-06 18:45:47			0	39205	0	0	0	28758	27350	149121	26987	1079677	47116	110687	0	0	8189	497752	0	0
2024-09-06 18:46:47			0	39203	0	0	0	28768	27360	149061	27050	1079659	47127	110691	0	0	8188	497796	0	0
2024-09-06 18:47:47			0	39178	0	0	0	28755	27350	149081	26731	1079731	47116	110686	0	0	8187	498737	0	0
2024-09-06 18:48:47			0	39191	0	0	0	28753	27360	149153	27178	1079686	47105	110685	0	0	8188	498234	0	0
2024-09-06 18:49:47			0	39178	0	0	0	28750	27350	149277	26923	1079668	47116	110684	0	0	8187	498737	0	0
2024-09-06 18:50:47			0	39174	0	0	0	28750	27350	149353	27173	1079695	47127	110684	0	0	8187	498883	0	0
2024-09-06 18:51:47			0	39181	0	0	0	28742	27350	149249	26991	1079695	47105	110681	0	0	8188	498628	0	0
2024-09-06 18:52:47			0	39165	0	0	0	28748	27350	149277	27053	1079722	47116	110683	0	0	8187	499212	0	0
2024-09-06 18:53:47			0	39164	0	0	0	28753	27350	149201	27013	1079650	47116	110685	0	0	8186	499248	0	0
2024-09-06 18:54:47			0	39162	0	0	0	28740	27340	149249	27029	1079605	47104	110680	0	0	8187	499350	0	0
2024-09-06 18:55:47			0	39178	0	0	0	28722	27340	149313	27270	1079632	47104	110673	0	0	8188	498766	0	0
2024-09-06 18:56:47			0	39182	0	0	0	28719	27340	149289	27286	1079605	47104	110672	0	0	8188	498620	0	0
2024-09-06 18:57:47			0	39163	0	0	0	28724	27340	149277	27281	1079650	47092	110674	0	0	8187	499314	0	0
2024-09-06 18:58:47			0	39176	0	0	0	28729	27340	149317	27090	1079569	47125	110676	0	0	8188	498839	0	0
2024-09-06 18:59:47			0	39203	0	0	0	28735	27330	149269	26880	1079614	47091	110678	0	0	8189	497882	0	0
2024-09-06 19:00:47			0	39211	0	0	0	28758	27340	149181	27147	1079596	47115	110687	0	0	8189	497562	0	0
2024-09-06 19:01:47			0	39226	0	0	0	28763	27340	149125	26819	1079623	47115	110689	0	0	8190	497015	0	0
2024-09-06 19:02:47			0	39244	0	0	0	28758	27340	149069	27168	1079650	47115	110687	0	0	8191	496359	0	0
2024-09-06 19:03:47			0	39278	0	0	0	28753	27340	149049	27109	1079659	47126	110685	0	0	8193	495122	0	0
2024-09-06 19:04:47			0	39287	0	0	0	28742	27340	148877	26890	1079659	47115	110681	0	0	8194	494795	0	0
2024-09-06 19:05:47			0	39276	0	0	0	28755	27340	148957	27175	1079632	47115	110686	0	0	8193	495195	0	0
2024-09-06 19:06:47			0	39270	0	0	0	28750	27330	148885	27098	1079641	47102	110684	0	0	8192	495441	0	0
2024-09-06 19:07:47			0	39279	0	0	0	28742	27340	148933	27202	1079704	47103	110681	0	0	8193	495086	0	0
2024-09-06 19:08:47			0	39279	0	0	0	28742	27340	148941	27092	1079605	47104	110681	0	0	8193	495086	0	0
2024-09-06 19:09:47			0	39268	0	0	0	28735	27340	148917	27072	1079623	47136	110678	0	0	8193	495486	0	0
2024-09-06 19:10:47			0	39252	0	0	0	28748	27330	148953	26915	1079614	47102	110683	0	0	8191	496096	0	0
2024-09-06 19:11:47			0	39238	0	0	0	28745	27340	148945	27024	1079596	47103	110682	0	0	8191	496578	0	0
2024-09-06 19:12:47			0	39238	0	0	0	28732	27340	149057	27112	1079623	47115	110677	0	0	8191	496578	0	0
2024-09-06 19:13:47			0	39254	0	0	0	28735	27330	149117	27015	1079587	47114	110678	0	0	8192	496024	0	0
2024-09-06 19:14:47			0	39228	0	0	0	28732	27330	149153	26632	1079551	47102	110677	0	0	8190	496970	0	0
2024-09-06 19:15:47			0	39212	0	0	0	28729	27330	149133	27138	1079614	47114	110676	0	0	8190	497554	0	0
2024-09-06 19:16:47			0	39213	0	0	0	28727	27330	149173	26868	1079587	47114	110675	0	0	8190	497517	0	0
2024-09-06 19:17:47			0	39196	0	0	0	28735	27330	149177	26748	1079551	47102	110678	0	0	8189	498137	0	0
2024-09-06 19:18:47			0	39212	0	0	0	28735	27330	149281	26911	1079605	47102	110678	0	0	8189	497554	0	0
2024-09-06 19:19:47			0	39201	0	0	0	28735	27320	149321	27111	1079560	47112	110678	0	0	8189	497984	0	0
2024-09-06 19:20:47			0	39147	0	0	0	28722	27330	149301	27182	1079587	47125	110673	0	0	8186	499927	0	0
2024-09-06 19:21:47			0	39141	0	0	0	28719	27330	149457	26955	1079560	47102	110672	0	0	8186	500147	0	0
2024-09-06 19:22:47			0	39109	0	0	0	28722	27330	149481	26965	1079578	47114	110673	0	0	8184	501318	0	0
2024-09-06 19:23:47			0	39133	0	0	0	28737	27310	149457	26847	1079578	47111	110679	0	0	8185	500497	0	0
2024-09-06 19:24:47			0	39148	0	0	0	28737	27310	149549	26993	1079568	47100	110679	0	0	8186	499948	0	0
2024-09-06 19:25:47			0	39135	0	0	0	28729	27330	149553	27142	1079587	47114	110676	0	0	8185	500366	0	0
2024-09-06 19:26:47			0	39130	0	0	0	28711	27310	149533	27267	1079551	47123	110669	0	0	8185	500607	0	0
2024-09-06 19:27:47			0	39110	0	0	0	28690	27310	149553	27357	1079515	47111	110661	0	0	8184	501339	0	0
2024-09-06 19:28:47			0	39107	0	0	0	28677	27330	149661	27163	1079551	47102	110656	0	0	8184	501391	0	0
2024-09-06 19:29:47			0	39073	0	0	0	28677	27310	149633	26902	1079470	47111	110656	0	0	8182	502695	0	0
2024-09-06 19:30:47			0	39094	0	0	0	28667	27310	149701	27112	1079470	47111	110652	0	0	8184	501925	0	0
2024-09-06 19:31:47			0	39081	0	0	0	28672	27300	149821	27000	1079389	47110	110654	0	0	8183	502431	0	0
2024-09-06 19:32:47			0	39034	0	0	0	28672	27300	149777	26739	1079362	47088	110654	0	0	8180	504156	0	0
2024-09-06 19:33:47			0	39061	0	0	0	28677	27300	149849	26982	1079371	47100	110656	0	0	8182	503164	0	0
2024-09-06 19:34:47			0	39050	0	0	0	28670	27290	149789	26878	1079353	47098	110653	0	0	8181	503597	0	0
2024-09-06 19:35:47			0	39048	0	0	0	28662	27290	149721	26826	1079353	47109	110650	0	0	8181	503671	0	0
2024-09-06 19:36:47			0	39062	0	0	0	28662	27290	149833	26729	1079317	47098	110650	0	0	8182	503157	0	0
2024-09-06 19:37:47			0	39027	0	0	0	28659	27280	149813	26830	1079307	47098	110649	0	0	8180	504471	0	0
2024-09-06 19:38:47			0	39027	0	0	0	28649	27280	149833	26798	1079245	47097	110645	0	0	8180	504471	0	0
2024-09-06 19:39:47			0	39025	0	0	0	28649	27280	149833	26909	1079245	47097	110645	0	0	8180	504545	0	0
2024-09-06 19:40:47			0	39014	0	0	0	28644	27270	150029	27235	1079200	47095	110643	0	0	8179	504979	0	0
2024-09-06 19:41:47			0	38990	0	0	0	28610	27280	150025	27067	1079164	47097	110630	0	0	8179	505833	0	0
2024-09-06 19:42:47			0	38987	0	0	0	28597	27260	150065	27043	1079154	47073	110625	0	0	8179	506002	0	0
2024-09-06 19:43:47			0	38961	0	0	0	28584	27260	150049	27241	1079101	47073	110620	0	0	8177	506960	0	0
2024-09-06 19:44:47			0	38958	0	0	0	28571	27240	150141	27003	1079020	47083	110615	0	0	8177	507129	0	0
2024-09-06 19:45:47			0	38945	0	0	0	28550	27240	150185	27057	1079037	47083	110607	0	0	8177	507608	0	0
2024-09-06 19:46:47			0	38913	0	0	0	28545	27230	150337	27234	1078939	47081	110605	0	0	8175	508819	0	0
2024-09-06 19:47:47			0	38894	0	0	0	28548	27220	150433	26932	1078929	47091	110606	0	0	8174	509551	0	0
2024-09-06 19:48:47			0	38880	0	0	0	28548	27200	150549	27013	1078875	47079	110606	0	0	8173	510128	0	0
2024-09-06 19:49:47			0	38879	0	0	0	28542	27200	150573	26902	1078848	47089	110604	0	0	8173	510165	0	0
2024-09-06 19:50:47			0	38872	0	0	0	28540	27200	150541	27150	1078812	47077	110603	0	0	8173	510424	0	0
2024-09-06 19:51:47			0	38863	0	0	0	28540	27190	150569	26726	1078767	47077	110603	0	0	8172	510787	0	0
2024-09-06 19:52:47			0	38860	0	0	0	28529	27180	150561	26963	1078785	47087	110599	0	0	8172	510927	0	0
2024-09-06 19:53:47			0	38871	0	0	0	28529	27180	150577	27066	1078758	47087	110599	0	0	8173	510519	0	0
2024-09-06 19:54:47			0	38848	0	0	0	28527	27180	150645	27083	1078722	47097	110598	0	0	8172	511372	0	0
2024-09-06 19:55:47			0	38853	0	0	0	28529	27160	150645	26939	1078668	47085	110599	0	0	8172	511245	0	0
2024-09-06 19:56:47			0	38839	0	0	0	28524	27160	150613	26675	1078614	47096	110597	0	0	8171	511764	0	0
2024-09-06 19:57:47			0	38846	0	0	0	28501	27150	150681	27128	1078596	47084	110588	0	0	8172	511534	0	0
2024-09-06 19:58:47			0	38837	0	0	0	28509	27140	150657	27085	1078551	47083	110591	0	0	8171	511897	0	0
2024-09-06 19:59:47			0	38826	0	0	0	28511	27140	150777	26998	1078605	47083	110592	0	0	8170	512305	0	0
2024-09-06 20:00:47			0	38817	0	0	0	28498	27150	150813	27033	1078560	47084	110587	0	0	8170	512610	0	0
2024-09-06 20:01:47			0	38800	0	0	0	28511	27130	150885	26991	1078506	47083	110592	0	0	8169	513300	0	0
2024-09-06 20:02:47			0	38781	0	0	0	28537	27130	150945	26987	1078524	47092	110602	0	0	8167	514007	0	0
2024-09-06 20:03:47			0	38797	0	0	0	28532	27130	150961	26736	1078560	47105	110600	0	0	8168	513412	0	0
2024-09-06 20:04:47			0	38802	0	0	0	28537	27130	150917	27079	1078524	47104	110602	0	0	8168	513226	0	0
2024-09-06 20:05:47			0	38778	0	0	0	28527	27140	150929	26850	1078623	47093	110598	0	0	8167	514089	0	0
2024-09-06 20:06:47			0	38789	0	0	0	28535	27140	150985	27012	1078623	47093	110601	0	0	8168	513680	0	0
2024-09-06 20:07:47			0	38753	0	0	0	28532	27140	151065	26809	1078685	47106	110600	0	0	8166	515019	0	0
2024-09-06 20:08:47			0	38765	0	0	0	28532	27130	151001	26680	1078586	47105	110600	0	0	8166	514602	0	0
2024-09-06 20:09:47			0	38768	0	0	0	28548	27140	150949	26618	1078632	47094	110606	0	0	8166	514461	0	0
2024-09-06 20:10:47			0	38758	0	0	0	28545	27140	150949	27045	1078623	47105	110605	0	0	8166	514833	0	0
2024-09-06 20:11:47			0	38765	0	0	0	28542	27150	151057	27261	1078614	47095	110604	0	0	8166	514543	0	0
2024-09-06 20:12:47			0	38768	0	0	0	28545	27150	151061	27133	1078694	47095	110605	0	0	8167	514431	0	0
2024-09-06 20:13:47			0	38746	0	0	0	28550	27150	150953	27104	1078650	47095	110607	0	0	8165	515250	0	0
2024-09-06 20:14:47			0	38770	0	0	0	28566	27140	151061	27003	1078658	47094	110613	0	0	8166	514386	0	0
2024-09-06 20:15:47			0	38736	0	0	0	28563	27150	151137	26963	1078757	47095	110612	0	0	8164	515623	0	0
2024-09-06 20:16:47			0	38718	0	0	0	28573	27160	151120	27071	1078766	47107	110616	0	0	8163	516264	0	0
2024-09-06 20:17:47			0	38721	0	0	0	28563	27160	151196	26677	1078820	47118	110612	0	0	8164	516152	0	0
2024-09-06 20:18:47			0	38703	0	0	0	28584	27160	151192	26838	1078856	47129	110620	0	0	8162	516824	0	0
2024-09-06 20:19:47			0	38707	0	0	0	28555	27170	151228	27185	1078866	47109	110609	0	0	8163	516645	0	0
2024-09-06 20:20:47			0	38700	0	0	0	28535	27160	151212	26807	1078776	47096	110601	0	0	8163	516935	0	0
2024-09-06 20:21:47			0	38709	0	0	0	28555	27170	151292	27071	1078758	47097	110609	0	0	8163	516570	0	0
2024-09-06 20:22:47			0	38707	0	0	0	28566	27160	151176	27116	1078749	47096	110613	0	0	8163	516674	0	0
2024-09-06 20:23:47			0	38722	0	0	0	28579	27150	151132	27041	1078748	47084	110618	0	0	8163	516144	0	0
2024-09-06 20:24:47			0	38715	0	0	0	28579	27150	151156	26908	1078784	47095	110618	0	0	8163	516405	0	0
2024-09-06 20:25:47			0	38695	0	0	0	28563	27160	151284	26916	1078793	47107	110612	0	0	8162	517122	0	0
2024-09-06 20:26:47			0	38694	0	0	0	28548	27160	151412	27064	1078749	47096	110606	0	0	8162	517159	0	0
2024-09-06 20:27:47			0	38672	0	0	0	28550	27170	151364	27130	1078785	47097	110607	0	0	8161	517951	0	0
2024-09-06 20:28:47			0	38668	0	0	0	28553	27160	151356	26712	1078740	47084	110608	0	0	8161	518130	0	0
2024-09-06 20:29:47			0	38637	0	0	0	28573	27160	151492	27189	1078749	47096	110616	0	0	8159	519290	0	0
2024-09-06 20:30:47			0	38622	0	0	0	28568	27160	151544	27364	1078722	47096	110614	0	0	8158	519851	0	0
2024-09-06 20:31:47			0	38602	0	0	0	28563	27170	151580	27241	1078767	47109	110612	0	0	8157	520570	0	0
2024-09-06 20:32:47			0	38604	0	0	0	28571	27170	151548	27176	1078812	47097	110615	0	0	8157	520495	0	0
2024-09-06 20:33:47			0	38602	0	0	0	28579	27160	151552	27178	1078776	47108	110618	0	0	8156	520600	0	0
2024-09-06 20:34:47			0	38614	0	0	0	28571	27170	151516	26795	1078794	47109	110615	0	0	8157	520121	0	0
2024-09-06 20:35:47			0	38598	0	0	0	28573	27170	151640	27123	1078821	47120	110616	0	0	8156	520720	0	0
2024-09-06 20:36:47			0	38594	0	0	0	28573	27170	151676	27137	1078758	47097	110616	0	0	8156	520870	0	0
2024-09-06 20:37:47			0	38587	0	0	0	28576	27170	151720	26840	1078902	47109	110617	0	0	8156	521133	0	0
2024-09-06 20:38:47			0	38587	0	0	0	28589	27170	151676	27229	1078839	47076	110622	0	0	8156	521133	0	0
2024-09-06 20:39:47			0	38598	0	0	0	28592	27170	151688	26930	1078821	47097	110623	0	0	8156	520720	0	0
2024-09-06 20:40:47			0	38590	0	0	0	28592	27170	151748	27121	1078794	47120	110623	0	0	8156	521020	0	0
2024-09-06 20:41:47			0	38570	0	0	0	28586	27180	151700	27098	1078830	47097	110621	0	0	8155	521740	0	0
2024-09-06 20:42:47			0	38555	0	0	0	28586	27170	151852	27102	1078848	47097	110621	0	0	8154	522333	0	0
2024-09-06 20:43:47			0	38548	0	0	0	28589	27180	151852	27190	1078830	47109	110622	0	0	8153	522566	0	0
2024-09-06 20:44:47			0	38533	0	0	0	28579	27190	151816	26923	1078875	47111	110618	0	0	8153	523100	0	0
2024-09-06 20:45:47			0	38542	0	0	0	28581	27170	151808	27159	1078902	47097	110619	0	0	8153	522822	0	0
2024-09-06 20:46:47			0	38528	0	0	0	28592	27170	151904	26970	1078821	47109	110623	0	0	8152	523348	0	0
2024-09-06 20:47:47			0	38542	0	0	0	28586	27180	151880	27036	1078866	47098	110621	0	0	8153	522792	0	0
2024-09-06 20:48:47			0	38529	0	0	0	28589	27180	151812	26901	1078857	47109	110622	0	0	8152	523280	0	0
2024-09-06 20:49:47			0	38520	0	0	0	28586	27180	151920	26982	1078884	47097	110621	0	0	8152	523619	0	0
2024-09-06 20:50:47			0	38527	0	0	0	28586	27180	151912	26861	1078830	47097	110621	0	0	8152	523355	0	0
2024-09-06 20:51:47			0	38521	0	0	0	28586	27180	151984	27003	1078884	47097	110621	0	0	8152	523581	0	0
2024-09-06 20:52:47			0	38528	0	0	0	28586	27170	151920	26873	1078875	47097	110621	0	0	8152	523348	0	0
2024-09-06 20:53:47			0	38519	0	0	0	28589	27180	151988	27268	1078911	47109	110622	0	0	8152	523656	0	0
2024-09-06 20:54:47			0	38511	0	0	0	28586	27170	151912	27275	1078812	47109	110621	0	0	8151	523987	0	0
2024-09-06 20:55:47			0	38505	0	0	0	28584	27170	151968	26868	1078794	47109	110620	0	0	8151	524213	0	0
2024-09-06 20:56:47			0	38513	0	0	0	28589	27180	151960	27225	1078866	47098	110622	0	0	8151	523882	0	0
2024-09-06 20:57:47			0	38515	0	0	0	28584	27170	152016	27334	1078875	47109	110620	0	0	8151	523837	0	0
2024-09-06 20:58:47			0	38516	0	0	0	28586	27170	152024	27092	1078785	47097	110621	0	0	8151	523799	0	0
2024-09-06 20:59:47			0	38515	0	0	0	28581	27170	152004	27144	1078821	47097	110619	0	0	8152	523837	0	0
2024-09-06 21:00:47			0	38525	0	0	0	28561	27180	151988	27131	1078803	47076	110611	0	0	8152	523431	0	0
2024-09-06 21:01:47			0	38531	0	0	0	28558	27170	151852	27107	1078794	47097	110610	0	0	8153	523235	0	0
2024-09-06 21:02:47			0	38531	0	0	0	28555	27180	151816	27027	1078776	47086	110609	0	0	8153	523205	0	0
2024-09-06 21:03:47			0	38522	0	0	0	28553	27160	151804	26837	1078766	47107	110608	0	0	8152	523604	0	0
2024-09-06 21:04:47			0	38532	0	0	0	28553	27160	151772	26880	1078740	47095	110608	0	0	8153	523228	0	0
2024-09-06 21:05:47			0	38553	0	0	0	28553	27160	151836	27161	1078740	47095	110608	0	0	8154	522439	0	0
2024-09-06 21:06:47			0	38548	0	0	0	28561	27160	151832	27083	1078713	47095	110611	0	0	8154	522626	0	0
2024-09-06 21:07:47			0	38545	0	0	0	28553	27160	151736	27223	1078749	47096	110608	0	0	8154	522739	0	0
2024-09-06 21:08:47			0	38545	0	0	0	28548	27150	151840	26733	1078694	47095	110606	0	0	8154	522769	0	0
2024-09-06 21:09:47			0	38564	0	0	0	28555	27150	151696	26887	1078730	47107	110609	0	0	8155	522055	0	0
2024-09-06 21:10:47			0	38588	0	0	0	28548	27160	151680	27223	1078766	47095	110606	0	0	8156	521125	0	0
2024-09-06 21:11:47			0	38589	0	0	0	28553	27150	151608	27203	1078677	47095	110608	0	0	8156	521117	0	0
2024-09-06 21:12:47			0	38616	0	0	0	28540	27150	151600	27050	1078668	47095	110603	0	0	8158	520106	0	0
2024-09-06 21:13:47			0	38615	0	0	0	28535	27150	151488	27156	1078677	47084	110601	0	0	8158	520143	0	0
2024-09-06 21:14:47			0	38633	0	0	0	28542	27140	151480	27000	1078658	47094	110604	0	0	8159	519499	0	0
2024-09-06 21:15:47			0	38623	0	0	0	28545	27160	151508	27005	1078632	47084	110605	0	0	8158	519814	0	0
2024-09-06 21:16:47			0	38629	0	0	0	28537	27140	151460	27150	1078685	47094	110602	0	0	8159	519649	0	0
2024-09-06 21:17:47			0	38649	0	0	0	28540	27150	151352	27197	1078721	47095	110603	0	0	8160	518871	0	0
2024-09-06 21:18:47			0	38644	0	0	0	28540	27140	151460	26951	1078578	47094	110603	0	0	8159	519087	0	0
2024-09-06 21:19:47			0	38667	0	0	0	28529	27130	151388	26963	1078667	47105	110599	0	0	8161	518257	0	0
2024-09-06 21:20:47			0	38672	0	0	0	28540	27130	151420	27020	1078533	47093	110603	0	0	8161	518070	0	0
2024-09-06 21:21:47			0	38675	0	0	0	28537	27140	151360	26809	1078623	47116	110602	0	0	8161	517928	0	0
2024-09-06 21:22:47			0	38679	0	0	0	28535	27140	151388	26972	1078596	47093	110601	0	0	8162	517779	0	0
2024-09-06 21:23:47			0	38681	0	0	0	28532	27130	151380	26975	1078533	47093	110600	0	0	8162	517734	0	0
2024-09-06 21:24:47			0	38688	0	0	0	28529	27130	151340	26916	1078667	47093	110599	0	0	8162	517472	0	0
2024-09-06 21:25:47			0	38679	0	0	0	28529	27140	151332	26819	1078569	47105	110599	0	0	8162	517779	0	0
2024-09-06 21:26:47			0	38675	0	0	0	28529	27130	151376	26882	1078586	47093	110599	0	0	8161	517958	0	0
2024-09-06 21:27:47			0	38680	0	0	0	28524	27130	151408	27124	1078631	47092	110597	0	0	8162	517771	0	0
2024-09-06 21:28:47			0	38661	0	0	0	28516	27140	151388	27036	1078569	47093	110594	0	0	8161	518452	0	0
2024-09-06 21:29:47			0	38647	0	0	0	28524	27120	151444	27119	1078541	47104	110597	0	0	8160	519035	0	0
2024-09-06 21:30:47			0	38642	0	0	0	28519	27130	151472	27142	1078560	47105	110595	0	0	8160	519192	0	0
2024-09-06 21:31:47			0	38608	0	0	0	28527	27130	151640	26958	1078613	47105	110598	0	0	8158	520465	0	0
2024-09-06 21:32:47			0	38576	0	0	0	28527	27130	151876	27010	1078551	47092	110598	0	0	8156	521665	0	0
2024-09-06 21:33:47			0	38549	0	0	0	28527	27130	151800	27055	1078586	47083	110598	0	0	8154	522679	0	0
2024-09-06 21:34:47			0	38542	0	0	0	28532	27130	151828	26830	1078533	47105	110600	0	0	8154	522942	0	0
2024-09-06 21:35:47			0	38549	0	0	0	28532	27130	151892	26830	1078551	47115	110600	0	0	8154	522679	0	0
2024-09-06 21:36:47			0	38551	0	0	0	28522	27130	152052	27064	1078613	47105	110596	0	0	8154	522604	0	0
2024-09-06 21:37:47			0	38550	0	0	0	28524	27120	151976	26944	1078532	47103	110597	0	0	8154	522671	0	0
2024-09-06 21:38:47			0	38528	0	0	0	28519	27130	151964	26760	1078577	47104	110595	0	0	8153	523468	0	0
2024-09-06 21:39:47			0	38524	0	0	0	28524	27120	152012	26866	1078568	47092	110597	0	0	8153	523649	0	0
2024-09-06 21:40:47			0	38531	0	0	0	28529	27130	151952	26850	1078551	47115	110599	0	0	8153	523355	0	0
2024-09-06 21:41:47			0	38528	0	0	0	28540	27120	152076	26951	1078461	47092	110603	0	0	8153	523498	0	0
2024-09-06 21:42:47			0	38508	0	0	0	28545	27120	152032	26987	1078649	47082	110605	0	0	8151	524251	0	0
2024-09-06 21:43:47			0	38502	0	0	0	28537	27130	152064	26790	1078604	47104	110602	0	0	8151	524446	0	0
2024-09-06 21:44:47			0	38504	0	0	0	28553	27130	152184	26902	1078551	47104	110608	0	0	8151	524371	0	0
2024-09-06 21:45:47			0	38484	0	0	0	28558	27130	152176	27142	1078586	47105	110610	0	0	8150	525124	0	0
2024-09-06 21:46:47			0	38461	0	0	0	28555	27130	152284	26968	1078577	47092	110609	0	0	8149	525991	0	0
2024-09-06 21:47:47			0	38444	0	0	0	28561	27130	152424	27039	1078613	47105	110611	0	0	8148	526633	0	0
2024-09-06 21:48:47			0	38403	0	0	0	28573	27140	152528	27109	1078685	47106	110616	0	0	8145	528151	0	0
2024-09-06 21:49:47			0	38404	0	0	0	28563	27140	152560	27057	1078685	47106	110612	0	0	8145	528113	0	0
2024-09-06 21:50:47			0	38368	0	0	0	28561	27140	152604	27128	1078766	47117	110611	0	0	8143	529476	0	0
2024-09-06 21:51:47			0	38334	0	0	0	28571	27140	152760	26863	1078703	47105	110615	0	0	8141	530764	0	0
2024-09-06 21:52:47			0	38304	0	0	0	28563	27150	152848	27138	1078757	47095	110612	0	0	8140	531872	0	0
2024-09-06 21:53:47			0	38308	0	0	0	28568	27150	152884	27095	1078730	47107	110614	0	0	8140	531720	0	0
2024-09-06 21:54:47			0	38286	0	0	0	28576	27150	152944	27118	1078757	47095	110617	0	0	8138	532556	0	0
2024-09-06 21:55:47			0	38266	0	0	0	28576	27140	152968	26977	1078730	47093	110617	0	0	8137	533347	0	0
2024-09-06 21:56:47			0	38263	0	0	0	28573	27150	153036	27137	1078748	47118	110616	0	0	8137	533430	0	0
2024-09-06 21:57:47			0	38219	0	0	0	28571	27150	153100	27268	1078721	47107	110615	0	0	8135	535106	0	0
2024-09-06 21:58:47			0	38202	0	0	0	28573	27150	153272	27086	1078704	47095	110616	0	0	8134	535754	0	0
2024-09-06 21:59:47			0	38153	0	0	0	28571	27160	153288	27300	1078766	47107	110615	0	0	8131	537594	0	0
2024-09-06 22:00:47			0	38129	0	0	0	28566	27160	153564	26894	1078803	47108	110613	0	0	8130	538512	0	0
2024-09-06 22:01:47			0	38127	0	0	0	28568	27160	153472	27045	1078740	47095	110614	0	0	8129	538589	0	0
2024-09-06 22:02:47			0	38107	0	0	0	28561	27170	153492	26932	1078812	47120	110611	0	0	8128	539324	0	0
2024-09-06 22:03:47			0	38079	0	0	0	28561	27160	153588	27206	1078740	47107	110611	0	0	8127	540428	0	0
2024-09-06 22:04:47			0	38062	0	0	0	28571	27150	153664	27069	1078721	47118	110615	0	0	8126	541111	0	0
2024-09-06 22:05:47			0	38050	0	0	0	28568	27160	153772	27237	1078740	47107	110614	0	0	8125	541541	0	0
2024-09-06 22:06:47			0	38050	0	0	0	28576	27160	153856	27249	1078793	47095	110617	0	0	8125	541541	0	0
2024-09-06 22:07:47			0	38025	0	0	0	28579	27150	153899	27104	1078757	47107	110618	0	0	8123	542532	0	0
2024-09-06 22:08:47			0	38016	0	0	0	28584	27160	153891	27128	1078820	47107	110620	0	0	8123	542847	0	0
2024-09-06 22:09:47			0	38016	0	0	0	28571	27160	154039	27156	1078856	47108	110615	0	0	8123	542847	0	0
2024-09-06 22:10:47			0	37980	0	0	0	28586	27160	153995	27069	1078803	47108	110621	0	0	8121	544233	0	0
2024-09-06 22:11:47			0	37986	0	0	0	28568	27160	154039	27258	1078740	47107	110614	0	0	8121	544002	0	0
2024-09-06 22:12:47			0	37995	0	0	0	28568	27160	154043	27287	1078901	47107	110614	0	0	8122	543655	0	0
2024-09-06 22:13:47			0	37994	0	0	0	28584	27160	154031	27208	1078803	47108	110620	0	0	8121	543694	0	0
2024-09-06 22:14:47			0	37996	0	0	0	28579	27180	153975	26828	1078857	47109	110618	0	0	8122	543554	0	0
2024-09-06 22:15:47			0	38005	0	0	0	28566	27170	153959	27017	1078785	47109	110613	0	0	8122	543239	0	0
2024-09-06 22:16:47			0	38011	0	0	0	28571	27160	153939	27185	1078793	47095	110615	0	0	8123	543039	0	0
2024-09-06 22:17:47			0	37998	0	0	0	28571	27170	153995	26902	1078812	47109	110615	0	0	8122	543508	0	0
2024-09-06 22:18:47			0	38001	0	0	0	28576	27160	154015	27222	1078776	47085	110617	0	0	8122	543424	0	0
2024-09-06 22:19:47			0	37994	0	0	0	28576	27160	154023	27019	1078740	47095	110617	0	0	8122	543694	0	0
2024-09-06 22:20:47			0	38005	0	0	0	28573	27170	153931	27284	1078758	47097	110616	0	0	8122	543239	0	0
2024-09-06 22:21:47			0	38006	0	0	0	28571	27160	153995	27201	1078830	47108	110615	0	0	8122	543232	0	0
2024-09-06 22:22:47			0	38006	0	0	0	28563	27160	153939	27135	1078766	47095	110612	0	0	8123	543232	0	0
2024-09-06 22:23:47			0	38006	0	0	0	28555	27170	153931	26896	1078848	47097	110609	0	0	8123	543201	0	0
2024-09-06 22:24:47			0	38012	0	0	0	28566	27160	153947	27114	1078749	47096	110613	0	0	8123	543001	0	0
2024-09-06 22:25:47			0	38020	0	0	0	28563	27160	153835	27272	1078803	47096	110612	0	0	8123	542693	0	0
2024-09-06 22:26:47			0	38041	0	0	0	28563	27160	153844	26944	1078776	47108	110612	0	0	8125	541886	0	0
2024-09-06 22:27:47			0	38042	0	0	0	28571	27170	153760	26791	1078812	47109	110615	0	0	8125	541817	0	0
2024-09-06 22:28:47			0	38061	0	0	0	28563	27160	153808	26814	1078766	47107	110612	0	0	8126	541118	0	0
2024-09-06 22:29:47			0	38058	0	0	0	28561	27150	153804	27173	1078757	47107	110611	0	0	8126	541264	0	0
2024-09-06 22:30:47			0	38052	0	0	0	28550	27150	153808	27270	1078677	47107	110607	0	0	8125	541495	0	0
2024-09-06 22:31:47			0	38048	0	0	0	28555	27150	153748	27133	1078721	47107	110609	0	0	8125	541648	0	0
2024-09-06 22:32:47			0	38043	0	0	0	28545	27150	153852	26979	1078730	47118	110605	0	0	8125	541840	0	0
2024-09-06 22:33:47			0	38042	0	0	0	28558	27160	153852	27157	1078793	47107	110610	0	0	8125	541848	0	0
2024-09-06 22:34:47			0	38043	0	0	0	28555	27150	153880	27204	1078757	47095	110609	0	0	8125	541840	0	0
2024-09-06 22:35:47			0	38032	0	0	0	28555	27160	153864	27189	1078766	47107	110609	0	0	8124	542232	0	0
2024-09-06 22:36:47			0	38022	0	0	0	28540	27150	153811	26861	1078775	47095	110603	0	0	8124	542648	0	0
2024-09-06 22:37:47			0	38016	0	0	0	28535	27150	153923	27111	1078748	47107	110601	0	0	8124	542878	0	0
2024-09-06 22:38:47			0	38014	0	0	0	28540	27150	153899	27039	1078694	47095	110603	0	0	8123	542955	0	0
2024-09-06 22:39:47			0	37997	0	0	0	28540	27150	153979	27079	1078668	47095	110603	0	0	8122	543609	0	0
2024-09-06 22:40:47			0	38021	0	0	0	28540	27150	153907	27138	1078757	47107	110603	0	0	8124	542686	0	0
2024-09-06 22:41:47			0	38018	0	0	0	28542	27150	153927	27189	1078623	47107	110604	0	0	8124	542801	0	0
2024-09-06 22:42:47			0	38030	0	0	0	28548	27140	153948	27024	1078685	47106	110606	0	0	8124	542371	0	0
2024-09-06 22:43:47			0	38049	0	0	0	28540	27140	153916	27213	1078658	47106	110603	0	0	8125	541641	0	0
2024-09-06 22:44:47			0	38040	0	0	0	28532	27140	153980	27112	1078685	47106	110600	0	0	8125	541987	0	0
2024-09-06 22:45:47			0	38023	0	0	0	28535	27140	153907	26580	1078658	47083	110601	0	0	8124	542640	0	0
2024-09-06 22:46:47			0	38027	0	0	0	28527	27130	153923	27020	1078560	47105	110598	0	0	8124	542518	0	0
2024-09-06 22:47:47			0	38038	0	0	0	28532	27130	154032	26979	1078640	47105	110600	0	0	8125	542095	0	0
2024-09-06 22:48:47			0	38029	0	0	0	28527	27130	154076	26693	1078560	47116	110598	0	0	8124	542441	0	0
2024-09-06 22:49:47			0	38006	0	0	0	28524	27140	154151	27092	1078569	47093	110597	0	0	8123	543294	0	0
2024-09-06 22:50:47			0	37994	0	0	0	28516	27130	154195	27019	1078524	47082	110594	0	0	8122	543787	0	0
2024-09-06 22:51:47			0	37977	0	0	0	28511	27130	154219	26885	1078586	47105	110592	0	0	8122	544442	0	0
2024-09-06 22:52:47			0	37970	0	0	0	28516	27130	154291	27005	1078577	47115	110594	0	0	8121	544712	0	0
2024-09-06 22:53:47			0	37976	0	0	0	28511	27130	154263	27114	1078497	47104	110592	0	0	8122	544481	0	0
2024-09-06 22:54:47			0	37985	0	0	0	28511	27120	154183	27012	1078488	47104	110592	0	0	8122	544165	0	0
2024-09-06 22:55:47			0	38027	0	0	0	28511	27110	154167	27168	1078550	47102	110592	0	0	8124	542580	0	0
2024-09-06 22:56:47			0	38022	0	0	0	28501	27120	154091	26866	1078488	47092	110588	0	0	8124	542741	0	0
2024-09-06 22:57:47			0	38041	0	0	0	28503	27120	154004	26908	1078559	47091	110589	0	0	8125	542011	0	0
2024-09-06 22:58:47			0	38051	0	0	0	28511	27110	153980	27242	1078523	47090	110592	0	0	8126	541658	0	0
2024-09-06 22:59:47			0	38060	0	0	0	28503	27100	153892	26977	1078451	47090	110589	0	0	8126	541343	0	0
2024-09-06 23:00:47			0	38071	0	0	0	28506	27110	153844	26889	1078541	47102	110590	0	0	8127	540890	0	0
2024-09-06 23:01:47			0	38071	0	0	0	28498	27110	153724	27017	1078470	47102	110587	0	0	8127	540890	0	0
2024-09-06 23:02:47			0	38117	0	0	0	28488	27110	153744	26932	1078380	47090	110583	0	0	8130	539126	0	0
2024-09-06 23:03:47			0	38087	0	0	0	28493	27110	153788	26944	1078460	47090	110585	0	0	8128	540276	0	0
2024-09-06 23:04:47			0	38092	0	0	0	28496	27100	153820	26670	1078451	47102	110586	0	0	8128	540115	0	0
2024-09-06 23:05:47			0	38083	0	0	0	28496	27100	153764	26585	1078371	47080	110586	0	0	8128	540460	0	0
2024-09-06 23:06:47			0	38085	0	0	0	28488	27100	153764	26680	1078424	47113	110583	0	0	8128	540384	0	0
2024-09-06 23:07:47			0	38098	0	0	0	28496	27100	153808	27190	1078442	47089	110586	0	0	8129	539885	0	0
2024-09-06 23:08:47			0	38101	0	0	0	28490	27100	153732	27050	1078415	47100	110584	0	0	8129	539770	0	0
2024-09-06 23:09:47			0	38099	0	0	0	28488	27090	153836	27085	1078379	47078	110583	0	0	8129	539878	0	0
2024-09-06 23:10:47			0	38089	0	0	0	28480	27100	153840	26930	1078362	47100	110580	0	0	8128	540230	0	0
2024-09-06 23:11:47			0	38091	0	0	0	28477	27090	153864	26894	1078397	47111	110579	0	0	8129	540184	0	0
2024-09-06 23:12:47			0	38077	0	0	0	28488	27090	153900	26842	1078406	47111	110583	0	0	8128	540721	0	0
2024-09-06 23:13:47			0	38090	0	0	0	28477	27090	153872	26849	1078343	47099	110579	0	0	8128	540223	0	0
2024-09-06 23:14:47			0	38093	0	0	0	28480	27090	153764	26994	1078343	47099	110580	0	0	8129	540108	0	0
2024-09-06 23:15:47			0	38117	0	0	0	28483	27090	153728	26746	1078397	47099	110581	0	0	8130	539188	0	0
2024-09-06 23:16:47			0	38110	0	0	0	28483	27090	153708	26734	1078397	47088	110581	0	0	8130	539456	0	0
2024-09-06 23:17:47			0	38125	0	0	0	28470	27090	153616	26802	1078397	47099	110576	0	0	8131	538882	0	0
2024-09-06 23:18:47			0	38131	0	0	0	28472	27080	153572	27135	1078352	47099	110577	0	0	8131	538683	0	0
2024-09-06 23:19:47			0	38115	0	0	0	28475	27070	153584	26817	1078262	47098	110578	0	0	8130	539326	0	0
2024-09-06 23:20:47			0	38159	0	0	0	28464	27070	153452	27007	1078253	47109	110574	0	0	8133	537643	0	0
2024-09-06 23:21:47			0	38182	0	0	0	28464	27070	153388	27412	1078334	47086	110574	0	0	8134	536764	0	0
2024-09-06 23:22:47			0	38196	0	0	0	28475	27070	153320	27088	1078316	47086	110578	0	0	8135	536229	0	0
2024-09-06 23:23:47			0	38208	0	0	0	28462	27070	153388	26778	1078307	47086	110573	0	0	8135	535771	0	0
2024-09-06 23:24:47			0	38209	0	0	0	28462	27070	153292	26859	1078253	47098	110573	0	0	8136	535733	0	0
2024-09-06 23:25:47			0	38230	0	0	0	28459	27080	153140	26937	1078271	47099	110572	0	0	8137	534901	0	0
2024-09-06 23:26:47			0	38256	0	0	0	28464	27070	153168	26823	1078307	47098	110574	0	0	8138	533942	0	0
2024-09-06 23:27:47			0	38255	0	0	0	28457	27070	153064	27012	1078236	47086	110571	0	0	8138	533980	0	0
2024-09-06 23:28:47			0	38285	0	0	0	28464	27070	152992	26613	1078226	47086	110574	0	0	8140	532838	0	0
2024-09-06 23:29:47			0	38291	0	0	0	28454	27070	153072	26863	1078226	47109	110570	0	0	8140	532610	0	0
2024-09-06 23:30:47			0	38317	0	0	0	28451	27070	152920	26743	1078226	47109	110569	0	0	8142	531623	0	0
2024-09-06 23:31:47			0	38315	0	0	0	28454	27060	152916	26975	1078101	47085	110570	0	0	8142	531729	0	0
2024-09-06 23:32:47			0	38339	0	0	0	28451	27050	152820	26956	1078190	47084	110569	0	0	8143	530849	0	0
2024-09-06 23:33:47			0	38353	0	0	0	28441	27050	152772	26960	1078145	47095	110565	0	0	8144	530318	0	0
2024-09-06 23:34:47			0	38334	0	0	0	28446	27050	152844	26791	1078172	47084	110567	0	0	8143	531038	0	0
2024-09-06 23:35:47			0	38309	0	0	0	28436	27060	152880	27057	1078217	47085	110563	0	0	8142	531957	0	0
2024-09-06 23:36:47			0	38337	0	0	0	28433	27050	152776	26993	1078172	47084	110562	0	0	8143	530924	0	0
2024-09-06 23:37:47			0	38330	0	0	0	28428	27050	152784	26667	1078163	47084	110560	0	0	8143	531190	0	0
2024-09-06 23:38:47			0	38308	0	0	0	28433	27050	152872	26625	1078163	47084	110562	0	0	8142	532025	0	0
2024-09-06 23:39:47			0	38326	0	0	0	28433	27050	152932	26911	1078109	47095	110562	0	0	8143	531342	0	0
2024-09-06 23:40:47			0	38340	0	0	0	28438	27050	152780	26783	1078136	47084	110564	0	0	8143	530811	0	0
2024-09-06 23:41:47			0	38346	0	0	0	28444	27050	152704	26691	1078163	47107	110566	0	0	8144	530583	0	0
2024-09-06 23:42:47			0	38345	0	0	0	28431	27040	152804	26953	1078145	47083	110561	0	0	8144	530651	0	0
2024-09-06 23:43:47			0	38333	0	0	0	28436	27040	152816	27112	1078064	47094	110563	0	0	8143	531107	0	0
2024-09-06 23:44:47			0	38333	0	0	0	28431	27040	152848	26899	1078118	47106	110561	0	0	8143	531107	0	0
2024-09-06 23:45:47			0	38334	0	0	0	28433	27040	152912	27010	1078127	47094	110562	0	0	8143	531069	0	0
2024-09-06 23:46:47			0	38331	0	0	0	28428	27040	152840	26892	1078091	47094	110560	0	0	8143	531183	0	0
2024-09-06 23:47:47			0	38324	0	0	0	28423	27040	152868	27147	1078118	47094	110558	0	0	8143	531448	0	0
2024-09-06 23:48:47			0	38322	0	0	0	28428	27040	152856	26968	1078091	47094	110560	0	0	8142	531524	0	0
2024-09-06 23:49:47			0	38337	0	0	0	28418	27030	152988	26814	1078055	47093	110556	0	0	8143	530985	0	0
2024-09-06 23:50:47			0	38341	0	0	0	28425	27040	152908	27111	1078127	47094	110559	0	0	8144	530803	0	0
2024-09-06 23:51:47			0	38343	0	0	0	28431	27030	152832	27227	1078082	47083	110561	0	0	8144	530758	0	0
2024-09-06 23:52:47			0	38333	0	0	0	28418	27030	152960	26859	1078055	47083	110556	0	0	8143	531137	0	0
2024-09-06 23:53:47			0	38339	0	0	0	28412	27040	152772	26922	1078037	47094	110554	0	0	8144	530879	0	0
2024-09-06 23:54:47			0	38354	0	0	0	28418	27030	152780	26948	1078019	47092	110556	0	0	8144	530341	0	0
2024-09-06 23:55:47			0	38377	0	0	0	28415	27020	152836	26920	1078091	47092	110555	0	0	8146	529499	0	0
2024-09-06 23:56:47			0	38345	0	0	0	28410	27030	152760	26828	1077965	47104	110553	0	0	8144	530682	0	0
2024-09-06 23:57:47			0	38357	0	0	0	28410	27030	152724	26906	1078019	47092	110553	0	0	8145	530227	0	0
2024-09-06 23:58:47			0	38371	0	0	0	28412	27020	152664	27183	1078037	47082	110554	0	0	8145	529727	0	0
2024-09-06 23:59:47			0	38397	0	0	0	28402	27020	152660	27104	1077974	47092	110550	0	0	8147	528742	0	0
2024-09-07 00:00:47			0	38396	0	0	0	28399	27010	152744	26752	1077965	47103	110549	0	0	8147	528810	0	0
2024-09-07 00:01:47			0	38391	0	0	0	28407	27020	152676	27052	1078010	47082	110552	0	0	8147	528969	0	0
2024-09-07 00:02:47			0	38392	0	0	0	28399	27020	152656	26887	1078001	47082	110549	0	0	8147	528931	0	0
2024-09-07 00:03:47			0	38404	0	0	0	28405	27020	152556	26800	1077974	47092	110551	0	0	8147	528477	0	0
2024-09-07 00:04:47			0	38441	0	0	0	28407	27010	152672	26979	1077992	47070	110552	0	0	8149	527109	0	0
2024-09-07 00:05:47			0	38419	0	0	0	28394	27010	152548	27045	1077956	47102	110547	0	0	8148	527940	0	0
2024-09-07 00:06:47			0	38437	0	0	0	28399	27020	152572	27168	1077974	47092	110549	0	0	8149	527230	0	0
2024-09-07 00:07:47			0	38425	0	0	0	28394	27010	152524	26753	1077982	47090	110547	0	0	8149	527713	0	0
2024-09-07 00:08:47			0	38421	0	0	0	28399	27010	152540	26583	1077929	47080	110549	0	0	8148	527864	0	0
2024-09-07 00:09:47			0	38434	0	0	0	28405	27000	152496	26811	1077946	47080	110551	0	0	8149	527403	0	0
2024-09-07 00:10:47			0	38455	0	0	0	28397	27010	152532	27171	1077929	47090	110548	0	0	8150	526580	0	0
2024-09-07 00:11:47			0	38426	0	0	0	28399	27010	152420	27183	1077965	47103	110549	0	0	8149	527676	0	0
2024-09-07 00:12:47			0	38446	0	0	0	28397	27010	152456	26972	1077929	47090	110548	0	0	8150	526920	0	0
2024-09-07 00:13:47			0	38456	0	0	0	28389	27010	152412	26918	1077902	47102	110545	0	0	8151	526542	0	0
2024-09-07 00:14:47			0	38442	0	0	0	28402	26980	152420	27138	1077883	47100	110550	0	0	8149	527162	0	0
2024-09-07 00:15:47			0	38442	0	0	0	28402	26990	152360	26934	1077875	47089	110550	0	0	8150	527131	0	0
2024-09-07 00:16:47			0	38445	0	0	0	28397	27000	152488	27104	1077893	47090	110548	0	0	8150	526988	0	0
2024-09-07 00:17:47			0	38434	0	0	0	28399	26990	152372	27267	1077928	47101	110549	0	0	8149	527434	0	0
2024-09-07 00:18:47			0	38429	0	0	0	28402	26990	152560	26885	1077901	47079	110550	0	0	8149	527623	0	0
2024-09-07 00:19:47			0	38435	0	0	0	28407	26990	152500	26892	1077955	47089	110552	0	0	8149	527396	0	0
2024-09-07 00:20:47			0	38438	0	0	0	28402	26980	152468	27074	1077883	47078	110550	0	0	8149	527313	0	0
2024-09-07 00:21:47			0	38437	0	0	0	28389	27000	152472	26922	1077910	47089	110545	0	0	8150	527290	0	0
2024-09-07 00:22:47			0	38427	0	0	0	28394	27000	152532	26953	1077857	47079	110547	0	0	8149	527668	0	0
2024-09-07 00:23:47			0	38420	0	0	0	28386	27000	152480	26800	1077910	47089	110544	0	0	8149	527933	0	0
2024-09-07 00:24:47			0	38423	0	0	0	28384	27000	152536	27059	1077920	47080	110543	0	0	8149	527819	0	0
2024-09-07 00:25:47			0	38413	0	0	0	28389	27000	152488	27031	1077884	47089	110545	0	0	8148	528197	0	0
2024-09-07 00:26:47			0	38419	0	0	0	28384	26980	152508	26785	1077937	47088	110543	0	0	8148	528031	0	0
2024-09-07 00:27:47			0	38424	0	0	0	28384	26980	152444	27154	1077830	47088	110543	0	0	8149	527842	0	0
2024-09-07 00:28:47			0	38435	0	0	0	28397	27000	152456	26868	1077937	47101	110548	0	0	8149	527366	0	0
2024-09-07 00:29:47			0	38438	0	0	0	28394	27000	152468	27005	1077893	47102	110547	0	0	8149	527252	0	0
2024-09-07 00:30:47			0	38458	0	0	0	28397	26990	152468	26889	1077848	47079	110548	0	0	8151	526527	0	0
2024-09-07 00:31:47			0	38426	0	0	0	28381	26990	152472	27017	1077875	47101	110542	0	0	8149	527736	0	0
2024-09-07 00:32:47			0	38440	0	0	0	28374	26990	152484	27126	1077865	47100	110539	0	0	8150	527207	0	0
2024-09-07 00:33:47			0	38431	0	0	0	28379	26980	152452	26939	1077883	47088	110541	0	0	8149	527577	0	0
2024-09-07 00:34:47			0	38451	0	0	0	28386	26970	152400	26968	1077784	47099	110544	0	0	8150	526852	0	0
2024-09-07 00:35:47			0	38444	0	0	0	28379	26980	152396	27111	1077910	47088	110541	0	0	8150	527086	0	0
2024-09-07 00:36:47			0	38443	0	0	0	28374	26980	152404	27088	1077794	47099	110539	0	0	8150	527124	0	0
2024-09-07 00:37:47			0	38435	0	0	0	28374	26970	152468	26894	1077811	47087	110539	0	0	8150	527456	0	0
2024-09-07 00:38:47			0	38431	0	0	0	28361	26970	152580	26856	1077784	47087	110534	0	0	8150	527608	0	0
2024-09-07 00:39:47			0	38415	0	0	0	28371	26980	152636	27310	1077794	47110	110538	0	0	8148	528182	0	0
2024-09-07 00:40:47			0	38439	0	0	0	28374	26980	152572	27173	1077847	47066	110539	0	0	8150	527275	0	0
2024-09-07 00:41:47			0	38422	0	0	0	28366	26970	152604	27053	1077731	47077	110536	0	0	8149	527948	0	0
2024-09-07 00:42:47			0	38407	0	0	0	28371	26960	152512	27182	1077766	47086	110538	0	0	8148	528545	0	0
2024-09-07 00:43:47			0	38406	0	0	0	28363	26970	152604	26928	1077749	47086	110535	0	0	8148	528553	0	0
2024-09-07 00:44:47			0	38401	0	0	0	28371	26970	152708	26956	1077749	47086	110538	0	0	8148	528742	0	0
2024-09-07 00:45:47			0	38410	0	0	0	28366	26970	152444	26750	1077811	47087	110536	0	0	8148	528402	0	0
2024-09-07 00:46:47			0	38416	0	0	0	28358	26970	152532	26961	1077749	47086	110533	0	0	8149	528175	0	0
2024-09-07 00:47:47			0	38432	0	0	0	28361	26970	152524	27045	1077775	47086	110534	0	0	8150	527570	0	0
2024-09-07 00:48:47			0	38433	0	0	0	28353	26960	152484	27076	1077713	47098	110531	0	0	8150	527562	0	0
2024-09-07 00:49:47			0	38445	0	0	0	28363	26960	152404	26880	1077730	47064	110535	0	0	8150	527109	0	0
2024-09-07 00:50:47			0	38441	0	0	0	28350	26960	152576	27178	1077703	47085	110530	0	0	8150	527260	0	0
2024-09-07 00:51:47			0	38415	0	0	0	28350	26960	152568	27100	1077686	47098	110530	0	0	8149	528243	0	0
2024-09-07 00:52:47			0	38440	0	0	0	28358	26960	152508	26896	1077677	47085	110533	0	0	8150	527298	0	0
2024-09-07 00:53:47			0	38441	0	0	0	28363	26950	152452	27206	1077721	47075	110535	0	0	8150	527290	0	0
2024-09-07 00:54:47			0	38424	0	0	0	28348	26950	152428	26942	1077748	47075	110529	0	0	8149	527933	0	0
2024-09-07 00:55:47			0	38464	0	0	0	28358	26960	152504	27053	1077703	47075	110533	0	0	8151	526391	0	0
2024-09-07 00:56:47			0	38439	0	0	0	28348	26960	152460	27203	1077677	47075	110529	0	0	8150	527336	0	0
2024-09-07 00:57:47			0	38431	0	0	0	28355	26940	152440	27265	1077676	47096	110532	0	0	8149	527698	0	0
2024-09-07 00:58:47			0	38441	0	0	0	28358	26960	152508	27241	1077713	47086	110533	0	0	8150	527260	0	0
2024-09-07 00:59:47			0	38424	0	0	0	28361	26950	152552	27237	1077721	47085	110534	0	0	8149	527933	0	0
2024-09-07 01:00:47			0	38410	0	0	0	28361	26950	152636	27170	1077641	47085	110534	0	0	8148	528462	0	0
2024-09-07 01:01:47			0	38438	0	0	0	28348	26950	152592	27265	1077721	47097	110529	0	0	8150	527404	0	0
2024-09-07 01:02:47			0	38390	0	0	0	28353	26950	152560	26977	1077641	47097	110531	0	0	8147	529219	0	0
2024-09-07 01:03:47			0	38420	0	0	0	28350	26950	152592	27220	1077694	47097	110530	0	0	8149	528084	0	0
2024-09-07 01:04:47			0	38400	0	0	0	28340	26950	152564	27145	1077658	47084	110526	0	0	8148	528841	0	0
2024-09-07 01:05:47			0	38381	0	0	0	28342	26950	152612	26911	1077614	47097	110527	0	0	8147	529560	0	0
2024-09-07 01:06:47			0	38384	0	0	0	28340	26950	152740	27272	1077721	47085	110526	0	0	8147	529447	0	0
2024-09-07 01:07:47			0	38379	0	0	0	28340	26950	152768	26635	1077632	47096	110526	0	0	8147	529636	0	0
2024-09-07 01:08:47			0	38402	0	0	0	28335	26940	152772	27052	1077676	47084	110524	0	0	8148	528795	0	0
2024-09-07 01:09:47			0	38386	0	0	0	28337	26940	152796	26870	1077649	47084	110525	0	0	8147	529401	0	0
2024-09-07 01:10:47			0	38376	0	0	0	28348	26940	152816	27020	1077622	47074	110529	0	0	8146	529780	0	0
2024-09-07 01:11:47			0	38383	0	0	0	28345	26930	152748	26765	1077640	47083	110528	0	0	8147	529545	0	0
2024-09-07 01:12:47			0	38375	0	0	0	28342	26930	152884	26823	1077631	47072	110527	0	0	8146	529848	0	0
2024-09-07 01:13:47			0	38379	0	0	0	28335	26930	152832	27008	1077640	47106	110524	0	0	8147	529697	0	0
2024-09-07 01:14:47			0	38375	0	0	0	28335	26950	152776	26967	1077632	47084	110524	0	0	8147	529788	0	0
2024-09-07 01:15:47			0	38378	0	0	0	28342	26940	152748	26823	1077676	47084	110527	0	0	8147	529704	0	0
2024-09-07 01:16:47			0	38386	0	0	0	28345	26930	152756	26922	1077667	47073	110528	0	0	8147	529432	0	0
2024-09-07 01:17:47			0	38386	0	0	0	28335	26940	152760	26986	1077622	47096	110524	0	0	8147	529401	0	0
2024-09-07 01:18:47			0	38383	0	0	0	28332	26930	152732	27008	1077640	47073	110523	0	0	8147	529545	0	0
2024-09-07 01:19:47			0	38387	0	0	0	28332	26930	152744	26842	1077640	47083	110523	0	0	8147	529394	0	0
2024-09-07 01:20:47			0	38382	0	0	0	28335	26930	152732	27050	1077667	47095	110524	0	0	8147	529583	0	0
2024-09-07 01:21:47			0	38394	0	0	0	28327	26930	152788	27045	1077560	47073	110521	0	0	8148	529129	0	0
2024-09-07 01:22:47			0	38379	0	0	0	28322	26920	152736	27183	1077568	47083	110519	0	0	8147	529727	0	0
2024-09-07 01:23:47			0	38386	0	0	0	28322	26930	152732	27150	1077551	47083	110519	0	0	8147	529432	0	0
2024-09-07 01:24:47			0	38364	0	0	0	28322	26920	152848	26812	1077595	47094	110519	0	0	8146	530296	0	0
2024-09-07 01:25:47			0	38362	0	0	0	28327	26920	152844	26953	1077559	47082	110521	0	0	8146	530372	0	0
2024-09-07 01:26:47			0	38361	0	0	0	28322	26930	152808	26712	1077587	47083	110519	0	0	8146	530379	0	0
2024-09-07 01:27:47			0	38359	0	0	0	28322	26920	152832	27209	1077541	47094	110519	0	0	8146	530485	0	0
2024-09-07 01:28:47			0	38347	0	0	0	28324	26920	152840	27092	1077532	47082	110520	0	0	8145	530941	0	0
2024-09-07 01:29:47			0	38344	0	0	0	28322	26920	152868	26778	1077568	47083	110519	0	0	8145	531055	0	0
2024-09-07 01:30:47			0	38349	0	0	0	28316	26920	152928	26847	1077506	47093	110517	0	0	8145	530865	0	0
2024-09-07 01:31:47			0	38361	0	0	0	28314	26920	152896	26854	1077568	47083	110516	0	0	8146	530410	0	0
2024-09-07 01:32:47			0	38336	0	0	0	28319	26910	152968	26901	1077523	47082	110518	0	0	8144	531389	0	0
2024-09-07 01:33:47			0	38330	0	0	0	28324	26920	152972	27116	1077506	47082	110520	0	0	8144	531586	0	0
2024-09-07 01:34:47			0	38345	0	0	0	28332	26910	152972	26944	1077523	47093	110523	0	0	8145	531047	0	0
2024-09-07 01:35:47			0	38327	0	0	0	28316	26920	153012	27232	1077532	47093	110517	0	0	8144	531700	0	0
2024-09-07 01:36:47			0	38325	0	0	0	28319	26910	153012	26649	1077541	47081	110518	0	0	8144	531807	0	0
2024-09-07 01:37:47			0	38329	0	0	0	28324	26910	153044	26993	1077550	47082	110520	0	0	8144	531655	0	0
2024-09-07 01:38:47			0	38303	0	0	0	28332	26910	153076	27192	1077523	47093	110523	0	0	8142	532643	0	0
2024-09-07 01:39:47			0	38318	0	0	0	28327	26920	153180	26987	1077559	47093	110521	0	0	8143	532042	0	0
2024-09-07 01:40:47			0	38299	0	0	0	28329	26920	153128	26816	1077541	47094	110522	0	0	8142	532764	0	0
2024-09-07 01:41:47			0	38296	0	0	0	28327	26920	153228	26989	1077506	47093	110521	0	0	8142	532878	0	0
2024-09-07 01:42:47			0	38280	0	0	0	28329	26910	153260	27012	1077523	47093	110522	0	0	8141	533518	0	0
2024-09-07 01:43:47			0	38287	0	0	0	28322	26910	153188	26979	1077550	47093	110519	0	0	8142	533251	0	0
2024-09-07 01:44:47			0	38272	0	0	0	28314	26920	153212	27246	1077515	47094	110516	0	0	8141	533792	0	0
2024-09-07 01:45:47			0	38272	0	0	0	28316	26910	153284	27403	1077577	47082	110517	0	0	8141	533822	0	0
2024-09-07 01:46:47			0	38247	0	0	0	28324	26910	153272	27277	1077550	47093	110520	0	0	8139	534775	0	0
2024-09-07 01:47:47			0	38237	0	0	0	28322	26910	153448	27218	1077460	47081	110519	0	0	8139	535156	0	0
2024-09-07 01:48:47			0	38237	0	0	0	28327	26910	153480	27144	1077496	47093	110521	0	0	8139	535156	0	0
2024-09-07 01:49:47			0	38229	0	0	0	28314	26910	153416	27000	1077550	47104	110516	0	0	8138	535461	0	0
2024-09-07 01:50:47			0	38215	0	0	0	28319	26910	153492	26708	1077487	47103	110518	0	0	8138	535996	0	0
2024-09-07 01:51:47			0	38192	0	0	0	28319	26900	153592	27074	1077559	47092	110518	0	0	8136	536905	0	0
2024-09-07 01:52:47			0	38205	0	0	0	28314	26910	153512	26960	1077541	47092	110516	0	0	8137	536377	0	0
2024-09-07 01:53:47			0	38187	0	0	0	28316	26900	153532	27024	1077586	47081	110517	0	0	8136	537096	0	0
2024-09-07 01:54:47			0	38190	0	0	0	28322	26910	153624	27064	1077541	47081	110519	0	0	8136	536951	0	0
2024-09-07 01:55:47			0	38187	0	0	0	28322	26900	153628	27190	1077478	47081	110519	0	0	8136	537096	0	0
2024-09-07 01:56:47			0	38192	0	0	0	28324	26910	153652	26981	1077514	47081	110520	0	0	8136	536874	0	0
2024-09-07 01:57:47			0	38166	0	0	0	28327	26910	153612	27230	1077541	47081	110521	0	0	8135	537868	0	0
2024-09-07 01:58:47			0	38172	0	0	0	28319	26910	153644	27111	1077604	47093	110518	0	0	8135	537639	0	0
2024-09-07 01:59:47			0	38168	0	0	0	28319	26910	153624	27230	1077523	47093	110518	0	0	8135	537792	0	0
2024-09-07 02:00:47			0	38171	0	0	0	28322	26910	153584	26998	1077523	47093	110519	0	0	8135	537677	0	0
2024-09-07 02:01:47			0	38152	0	0	0	28322	26900	153632	27112	1077505	47081	110519	0	0	8134	538435	0	0
2024-09-07 02:02:47			0	38149	0	0	0	28316	26910	153676	26920	1077550	47071	110517	0	0	8134	538519	0	0
2024-09-07 02:03:47			0	38145	0	0	0	28314	26910	153704	27045	1077514	47081	110516	0	0	8134	538672	0	0
2024-09-07 02:04:47			0	38134	0	0	0	28309	26920	153704	26762	1077506	47093	110514	0	0	8133	539063	0	0
2024-09-07 02:05:47			0	38110	0	0	0	28309	26910	153684	27230	1077496	47093	110514	0	0	8132	540013	0	0
2024-09-07 02:06:47			0	38112	0	0	0	28309	26910	153948	26804	1077568	47081	110514	0	0	8132	539937	0	0
2024-09-07 02:07:47			0	38101	0	0	0	28293	26910	153920	26975	1077443	47093	110508	0	0	8131	540359	0	0
2024-09-07 02:08:47			0	38084	0	0	0	28280	26900	153956	26901	1077424	47070	110503	0	0	8131	541042	0	0
2024-09-07 02:09:47			0	38084	0	0	0	28280	26900	153996	27157	1077442	47080	110503	0	0	8131	541042	0	0
2024-09-07 02:10:47			0	38077	0	0	0	28270	26910	153952	27092	1077406	47070	110499	0	0	8130	541280	0	0
2024-09-07 02:11:47			0	38051	0	0	0	28283	26890	153960	27104	1077370	47090	110504	0	0	8129	542341	0	0
2024-09-07 02:12:47			0	38039	0	0	0	28275	26900	154244	26880	1077388	47069	110501	0	0	8128	542772	0	0
2024-09-07 02:13:47			0	38005	0	0	0	28270	26890	154175	27090	1077397	47079	110499	0	0	8126	544112	0	0
2024-09-07 02:14:47			0	38014	0	0	0	28277	26880	154235	26798	1077352	47078	110502	0	0	8127	543797	0	0
2024-09-07 02:15:47			0	37994	0	0	0	28283	26880	154239	26941	1077307	47089	110504	0	0	8125	544568	0	0
2024-09-07 02:16:47			0	37986	0	0	0	28267	26880	154335	27081	1077271	47089	110498	0	0	8125	544876	0	0
2024-09-07 02:17:47			0	37959	0	0	0	28275	26870	154259	26981	1077316	47089	110501	0	0	8123	545949	0	0
2024-09-07 02:18:47			0	37999	0	0	0	28272	26870	154239	27090	1077316	47089	110500	0	0	8126	544406	0	0
2024-09-07 02:19:47			0	38015	0	0	0	28275	26870	154287	27007	1077316	47111	110501	0	0	8127	543789	0	0
2024-09-07 02:20:47			0	38002	0	0	0	28272	26870	154227	27060	1077361	47077	110500	0	0	8126	544290	0	0
2024-09-07 02:21:47			0	38012	0	0	0	28275	26870	154191	27098	1077226	47088	110501	0	0	8126	543905	0	0
2024-09-07 02:22:47			0	38006	0	0	0	28267	26870	154331	26807	1077280	47077	110498	0	0	8126	544136	0	0
2024-09-07 02:23:47			0	37999	0	0	0	28275	26860	154255	26944	1077289	47087	110501	0	0	8126	544437	0	0
2024-09-07 02:24:47			0	38031	0	0	0	28264	26870	154308	26660	1077280	47088	110497	0	0	8128	543173	0	0
2024-09-07 02:25:47			0	38010	0	0	0	28280	26860	154215	27024	1077289	47065	110503	0	0	8126	544013	0	0
2024-09-07 02:26:47			0	38010	0	0	0	28259	26860	154211	27265	1077217	47087	110495	0	0	8127	544013	0	0
2024-09-07 02:27:47			0	38006	0	0	0	28272	26860	154171	26956	1077262	47087	110500	0	0	8126	544167	0	0
2024-09-07 02:28:47			0	38008	0	0	0	28277	26860	154243	26894	1077352	47087	110502	0	0	8126	544090	0	0
2024-09-07 02:29:47			0	37999	0	0	0	28251	26860	154343	27182	1077163	47076	110492	0	0	8126	544437	0	0
2024-09-07 02:30:47			0	38007	0	0	0	28246	26870	154367	26713	1077199	47077	110490	0	0	8127	544098	0	0
2024-09-07 02:31:47			0	37985	0	0	0	28241	26850	154387	26779	1077172	47076	110488	0	0	8125	545008	0	0
2024-09-07 02:32:47			0	37950	0	0	0	28249	26850	154475	26944	1077163	47075	110491	0	0	8123	546360	0	0
2024-09-07 02:33:47			0	37962	0	0	0	28246	26850	154411	26622	1077172	47065	110490	0	0	8124	545896	0	0
2024-09-07 02:34:47			0	37974	0	0	0	28238	26850	154455	27027	1077172	47076	110487	0	0	8125	545433	0	0
2024-09-07 02:35:47			0	37962	0	0	0	28236	26850	154627	27104	1077163	47075	110486	0	0	8124	545896	0	0
2024-09-07 02:36:47			0	37951	0	0	0	28238	26840	154591	26955	1077091	47084	110487	0	0	8123	546352	0	0
2024-09-07 02:37:47			0	37974	0	0	0	28241	26850	154579	27144	1077118	47076	110488	0	0	8125	545433	0	0
2024-09-07 02:38:47			0	37977	0	0	0	28223	26840	154607	27079	1077091	47074	110481	0	0	8125	545348	0	0
2024-09-07 02:39:47			0	37948	0	0	0	28223	26840	154515	26804	1077091	47063	110481	0	0	8123	546468	0	0
2024-09-07 02:40:47			0	37975	0	0	0	28228	26840	154503	26937	1077118	47063	110483	0	0	8125	545426	0	0
2024-09-07 02:41:47			0	37949	0	0	0	28220	26830	154575	27066	1077082	47083	110480	0	0	8124	546461	0	0
2024-09-07 02:42:47			0	37948	0	0	0	28225	26830	154499	27019	1077001	47073	110482	0	0	8123	546499	0	0
2024-09-07 02:43:47			0	37950	0	0	0	28231	26830	154711	26963	1077073	47083	110484	0	0	8123	546422	0	0
2024-09-07 02:44:47			0	37935	0	0	0	28231	26830	154547	27185	1077100	47083	110484	0	0	8123	547002	0	0
2024-09-07 02:45:47			0	37933	0	0	0	28225	26830	154707	27067	1077028	47073	110482	0	0	8122	547080	0	0
2024-09-07 02:46:47			0	37921	0	0	0	28225	26830	154675	27062	1077073	47073	110482	0	0	8122	547544	0	0
2024-09-07 02:47:47			0	37929	0	0	0	28212	26820	154683	27116	1077064	47061	110477	0	0	8122	547266	0	0
2024-09-07 02:48:47			0	37926	0	0	0	28218	26830	154691	26906	1077055	47073	110479	0	0	8122	547350	0	0
2024-09-07 02:49:47			0	37926	0	0	0	28218	26830	154719	26928	1077073	47073	110479	0	0	8122	547350	0	0
2024-09-07 02:50:47			0	37918	0	0	0	28223	26830	154739	27222	1077028	47083	110481	0	0	8122	547660	0	0
2024-09-07 02:51:47			0	37910	0	0	0	28202	26820	154739	27249	1077037	47083	110473	0	0	8122	548001	0	0
2024-09-07 02:52:47			0	37897	0	0	0	28205	26820	154783	27166	1076974	47071	110474	0	0	8121	548504	0	0
2024-09-07 02:53:47			0	37920	0	0	0	28197	26810	154727	27242	1076992	47071	110471	0	0	8122	547645	0	0
2024-09-07 02:54:47			0	37902	0	0	0	28194	26820	154795	26885	1077001	47082	110470	0	0	8121	548311	0	0
2024-09-07 02:55:47			0	37911	0	0	0	28207	26810	154739	26762	1076911	47071	110475	0	0	8121	547994	0	0
2024-09-07 02:56:47			0	37896	0	0	0	28210	26800	154803	26765	1076893	47059	110476	0	0	8120	548606	0	0
2024-09-07 02:57:47			0	37916	0	0	0	28194	26800	154707	26935	1076884	47069	110470	0	0	8122	547831	0	0
2024-09-07 02:58:47			0	37913	0	0	0	28199	26800	154711	27007	1076893	47070	110472	0	0	8122	547948	0	0
2024-09-07 02:59:47			0	37889	0	0	0	28189	26800	154831	26904	1076947	47081	110468	0	0	8120	548877	0	0
2024-09-07 03:00:47			0	37894	0	0	0	28197	26790	154687	26944	1076920	47080	110471	0	0	8121	548715	0	0
2024-09-07 03:01:47			0	37899	0	0	0	28197	26800	154799	27072	1076884	47080	110471	0	0	8121	548490	0	0
2024-09-07 03:02:47			0	37878	0	0	0	28192	26800	154811	26573	1076857	47069	110469	0	0	8120	549304	0	0
2024-09-07 03:03:47			0	37881	0	0	0	28192	26790	154863	27100	1076929	47069	110469	0	0	8120	549219	0	0
2024-09-07 03:04:47			0	37870	0	0	0	28194	26800	154851	26932	1076857	47069	110470	0	0	8119	549614	0	0
2024-09-07 03:05:47			0	37891	0	0	0	28189	26790	154855	26805	1076795	47069	110468	0	0	8120	548831	0	0
2024-09-07 03:06:47			0	37906	0	0	0	28189	26790	154803	26975	1076821	47080	110468	0	0	8121	548250	0	0
2024-09-07 03:07:47			0	37905	0	0	0	28192	26790	154787	26726	1076848	47069	110469	0	0	8121	548289	0	0
2024-09-07 03:08:47			0	37895	0	0	0	28189	26790	154779	26890	1076821	47058	110468	0	0	8121	548676	0	0
2024-09-07 03:09:47			0	37909	0	0	0	28186	26790	154811	26913	1076758	47080	110467	0	0	8122	548134	0	0
2024-09-07 03:10:47			0	37908	0	0	0	28192	26790	154859	26722	1076812	47069	110469	0	0	8121	548173	0	0
2024-09-07 03:11:47			0	37907	0	0	0	28189	26790	154815	26726	1076821	47069	110468	0	0	8121	548211	0	0
2024-09-07 03:12:47			0	37890	0	0	0	28186	26790	154903	26961	1076875	47091	110467	0	0	8120	548870	0	0
2024-09-07 03:13:47			0	37888	0	0	0	28197	26790	154879	27128	1076839	47069	110471	0	0	8120	548947	0	0
2024-09-07 03:14:47			0	37909	0	0	0	28186	26780	154927	26902	1076803	47068	110467	0	0	8122	548165	0	0
2024-09-07 03:15:47			0	37908	0	0	0	28184	26780	154731	27008	1076857	47057	110466	0	0	8122	548204	0	0
2024-09-07 03:16:47			0	37911	0	0	0	28176	26780	154747	26861	1076776	47090	110463	0	0	8122	548088	0	0
2024-09-07 03:17:47			0	37919	0	0	0	28186	26790	154739	26710	1076812	47080	110467	0	0	8122	547747	0	0
2024-09-07 03:18:47			0	37912	0	0	0	28184	26780	154767	26774	1076740	47067	110466	0	0	8122	548049	0	0
2024-09-07 03:19:47			0	37915	0	0	0	28171	26780	154751	27005	1076749	47079	110461	0	0	8122	547933	0	0
2024-09-07 03:20:47			0	37912	0	0	0	28171	26780	154759	26776	1076722	47079	110461	0	0	8122	548049	0	0
2024-09-07 03:21:47			0	37900	0	0	0	28168	26780	154767	26871	1076767	47067	110460	0	0	8121	548514	0	0
2024-09-07 03:22:47			0	37921	0	0	0	28173	26780	154875	27105	1076767	47078	110462	0	0	8122	547701	0	0
2024-09-07 03:23:47			0	37895	0	0	0	28181	26780	154787	26984	1076767	47067	110465	0	0	8121	548708	0	0
2024-09-07 03:24:47			0	37891	0	0	0	28179	26780	154875	26663	1076794	47078	110464	0	0	8121	548863	0	0
2024-09-07 03:25:47			0	37879	0	0	0	28163	26780	154939	26927	1076740	47078	110458	0	0	8120	549328	0	0
2024-09-07 03:26:47			0	37869	0	0	0	28166	26770	154959	26906	1076749	47067	110459	0	0	8120	549747	0	0
2024-09-07 03:27:47			0	37865	0	0	0	28163	26760	155019	26743	1076740	47077	110458	0	0	8119	549934	0	0
2024-09-07 03:28:47			0	37858	0	0	0	28158	26770	155071	26920	1076695	47078	110456	0	0	8119	550174	0	0
2024-09-07 03:29:47			0	37852	0	0	0	28155	26770	155039	26783	1076722	47078	110455	0	0	8119	550407	0	0
2024-09-07 03:30:47			0	37843	0	0	0	28163	26770	155043	27102	1076758	47078	110458	0	0	8118	550757	0	0
2024-09-07 03:31:47			0	37826	0	0	0	28155	26770	155095	26861	1076749	47067	110455	0	0	8117	551417	0	0
2024-09-07 03:32:47			0	37807	0	0	0	28148	26760	155211	27057	1076686	47055	110452	0	0	8116	552188	0	0
2024-09-07 03:33:47			0	37805	0	0	0	28158	26750	155195	26894	1076641	47053	110456	0	0	8116	552297	0	0
2024-09-07 03:34:47			0	37790	0	0	0	28155	26760	155287	27291	1076686	47066	110455	0	0	8115	552849	0	0
2024-09-07 03:35:47			0	37802	0	0	0	28140	26750	155207	26736	1076668	47053	110449	0	0	8116	552414	0	0
2024-09-07 03:36:47			0	37778	0	0	0	28145	26760	155295	26802	1076623	47054	110451	0	0	8115	553317	0	0
2024-09-07 03:37:47			0	37787	0	0	0	28142	26750	155211	27005	1076668	47064	110450	0	0	8115	552998	0	0
2024-09-07 03:38:47			0	37786	0	0	0	28140	26750	155359	26727	1076668	47053	110449	0	0	8115	553037	0	0
2024-09-07 03:39:47			0	37777	0	0	0	28132	26750	155363	26745	1076668	47064	110446	0	0	8115	553388	0	0
2024-09-07 03:40:47			0	37790	0	0	0	28119	26750	155263	26845	1076578	47075	110441	0	0	8116	552881	0	0
2024-09-07 03:41:47			0	37783	0	0	0	28127	26750	155287	26653	1076578	47075	110444	0	0	8115	553154	0	0
2024-09-07 03:42:47			0	37778	0	0	0	28106	26740	155335	26733	1076569	47053	110436	0	0	8115	553380	0	0
2024-09-07 03:43:47			0	37783	0	0	0	28114	26730	155319	26894	1076497	47073	110439	0	0	8115	553217	0	0
2024-09-07 03:44:47			0	37785	0	0	0	28116	26730	155343	26571	1076551	47062	110440	0	0	8115	553139	0	0
2024-09-07 03:45:47			0	37772	0	0	0	28119	26720	155435	26890	1076533	47062	110441	0	0	8114	553678	0	0
2024-09-07 03:46:47			0	37736	0	0	0	28106	26730	155555	26693	1076542	47051	110436	0	0	8113	555050	0	0
2024-09-07 03:47:47			0	37746	0	0	0	28101	26730	155547	26876	1076461	47062	110434	0	0	8113	554660	0	0
2024-09-07 03:48:47			0	37738	0	0	0	28103	26730	155579	27062	1076515	47062	110435	0	0	8113	554972	0	0
2024-09-07 03:49:47			0	37727	0	0	0	28101	26710	155603	27022	1076434	47060	110434	0	0	8112	555465	0	0
2024-09-07 03:50:47			0	37720	0	0	0	28098	26710	155543	27119	1076434	47038	110433	0	0	8112	555739	0	0
2024-09-07 03:51:47			0	37702	0	0	0	28093	26710	155683	27057	1076452	47060	110431	0	0	8111	556442	0	0
2024-09-07 03:52:47			0	37691	0	0	0	28098	26710	155715	27048	1076434	47060	110433	0	0	8110	556873	0	0
2024-09-07 03:53:47			0	37696	0	0	0	28090	26710	155663	26793	1076434	47049	110430	0	0	8110	556677	0	0
2024-09-07 03:54:47			0	37709	0	0	0	28090	26710	155583	26764	1076371	47060	110430	0	0	8111	556169	0	0
2024-09-07 03:55:47			0	37715	0	0	0	28088	26700	155571	26772	1076407	47059	110429	0	0	8112	555966	0	0
2024-09-07 03:56:47			0	37705	0	0	0	28085	26700	155591	26875	1076407	47059	110428	0	0	8111	556357	0	0
2024-09-07 03:57:47			0	37689	0	0	0	28080	26690	155719	26772	1076335	47068	110426	0	0	8110	557015	0	0
2024-09-07 03:58:47			0	37701	0	0	0	28090	26700	155747	26941	1076353	47070	110430	0	0	8111	556513	0	0
2024-09-07 03:59:47			0	37710	0	0	0	28077	26700	155663	26925	1076362	47060	110425	0	0	8111	556161	0	0
2024-09-07 04:00:47			0	37700	0	0	0	28080	26700	155707	27086	1076353	47070	110426	0	0	8111	556552	0	0
2024-09-07 04:01:47			0	37697	0	0	0	28064	26690	155679	26913	1076335	47068	110420	0	0	8111	556702	0	0
2024-09-07 04:02:47			0	37699	0	0	0	28080	26690	155671	26778	1076263	47058	110426	0	0	8111	556623	0	0
2024-09-07 04:03:47			0	37685	0	0	0	28077	26690	155627	26994	1076335	47057	110425	0	0	8110	557171	0	0
2024-09-07 04:04:47			0	37687	0	0	0	28080	26680	155755	26876	1076344	47057	110426	0	0	8110	557125	0	0
2024-09-07 04:05:47			0	37670	0	0	0	28077	26670	155755	26701	1076335	47067	110425	0	0	8109	557822	0	0
2024-09-07 04:06:47			0	37685	0	0	0	28072	26690	155803	26717	1076308	47068	110423	0	0	8110	557171	0	0
2024-09-07 04:07:47			0	37683	0	0	0	28072	26680	155735	26795	1076272	47057	110423	0	0	8110	557281	0	0
2024-09-07 04:08:47			0	37679	0	0	0	28067	26670	155803	26875	1076254	47045	110421	0	0	8110	557470	0	0
2024-09-07 04:09:47			0	37665	0	0	0	28064	26680	155771	26745	1076245	47068	110420	0	0	8109	557986	0	0
2024-09-07 04:10:47			0	37678	0	0	0	28059	26680	155743	26916	1076299	47057	110418	0	0	8110	557477	0	0
2024-09-07 04:11:47			0	37652	0	0	0	28062	26680	155819	27123	1076209	47057	110419	0	0	8108	558496	0	0
2024-09-07 04:12:47			0	37658	0	0	0	28062	26650	155867	26776	1076218	47054	110419	0	0	8108	558357	0	0
2024-09-07 04:13:47			0	37661	0	0	0	28059	26670	155899	27377	1076281	47067	110418	0	0	8109	558175	0	0
2024-09-07 04:14:47			0	37642	0	0	0	28059	26660	155903	26779	1076263	47044	110418	0	0	8108	558952	0	0
2024-09-07 04:15:47			0	37643	0	0	0	28062	26670	155919	26890	1076191	47066	110419	0	0	8108	558881	0	0
2024-09-07 04:16:47			0	37630	0	0	0	28062	26660	156075	27119	1076280	47066	110419	0	0	8107	559423	0	0
2024-09-07 04:17:47			0	37617	0	0	0	28064	26680	156127	26632	1076245	47057	110420	0	0	8106	559869	0	0
2024-09-07 04:18:47			0	37593	0	0	0	28077	26670	156219	26918	1076218	47055	110425	0	0	8105	560844	0	0
2024-09-07 04:19:47			0	37589	0	0	0	28067	26660	156119	26809	1076209	47066	110421	0	0	8104	561033	0	0
2024-09-07 04:20:47			0	37586	0	0	0	28075	26670	156195	27137	1076191	47055	110424	0	0	8104	561119	0	0
2024-09-07 04:21:47			0	37592	0	0	0	28062	26660	156143	26981	1076182	47044	110419	0	0	8105	560915	0	0
2024-09-07 04:22:47			0	37573	0	0	0	28062	26660	156195	27083	1076209	47066	110419	0	0	8104	561662	0	0
2024-09-07 04:23:47			0	37590	0	0	0	28051	26660	156203	26994	1076200	47078	110415	0	0	8105	560994	0	0
2024-09-07 04:24:47			0	37591	0	0	0	28067	26660	156059	26970	1076182	47055	110421	0	0	8105	560955	0	0
2024-09-07 04:25:47			0	37605	0	0	0	28067	26660	156087	26939	1076173	47044	110421	0	0	8105	560404	0	0
2024-09-07 04:26:47			0	37624	0	0	0	28064	26670	156051	27100	1076164	47055	110420	0	0	8107	559626	0	0
2024-09-07 04:27:47			0	37607	0	0	0	28067	26660	155979	26974	1076263	47055	110421	0	0	8105	560326	0	0
2024-09-07 04:28:47			0	37641	0	0	0	28070	26650	155995	26901	1076164	47054	110422	0	0	8107	559023	0	0
2024-09-07 04:29:47			0	37652	0	0	0	28077	26650	155943	27008	1076218	47065	110425	0	0	8108	558592	0	0
2024-09-07 04:30:47			0	37654	0	0	0	28080	26660	155975	26667	1076200	47055	110426	0	0	8108	558481	0	0
2024-09-07 04:31:47			0	37649	0	0	0	28075	26670	155891	27098	1076254	47056	110424	0	0	8108	558645	0	0
2024-09-07 04:32:47			0	37658	0	0	0	28072	26660	155939	27010	1076200	47055	110423	0	0	8108	558324	0	0
2024-09-07 04:33:47			0	37664	0	0	0	28090	26660	155943	26987	1076182	47055	110430	0	0	8108	558089	0	0
2024-09-07 04:34:47			0	37666	0	0	0	28077	26660	155919	27079	1076200	47066	110425	0	0	8109	558011	0	0
2024-09-07 04:35:47			0	37668	0	0	0	28072	26660	155871	27007	1076263	47055	110423	0	0	8109	557933	0	0
2024-09-07 04:36:47			0	37668	0	0	0	28057	26670	155919	27121	1076218	47055	110417	0	0	8109	557901	0	0
2024-09-07 04:37:47			0	37646	0	0	0	28064	26670	155963	27055	1076227	47067	110420	0	0	8108	558763	0	0
2024-09-07 04:38:47			0	37649	0	0	0	28059	26660	156007	27232	1076146	47066	110418	0	0	8108	558677	0	0
2024-09-07 04:39:47			0	37668	0	0	0	28054	26650	156023	27157	1076244	47054	110416	0	0	8109	557965	0	0
2024-09-07 04:40:47			0	37676	0	0	0	28044	26650	155979	27086	1076110	47065	110412	0	0	8110	557651	0	0
2024-09-07 04:41:47			0	37656	0	0	0	28044	26640	156015	26833	1076146	47053	110412	0	0	8109	558467	0	0
2024-09-07 04:42:47			0	37637	0	0	0	28033	26650	156023	26722	1076110	47065	110408	0	0	8108	559180	0	0
2024-09-07 04:43:47			0	37635	0	0	0	28044	26650	155955	26791	1076218	47054	110412	0	0	8107	559258	0	0
2024-09-07 04:44:47			0	37625	0	0	0	28041	26640	156023	27331	1076092	47064	110411	0	0	8107	559683	0	0
2024-09-07 04:45:47			0	37613	0	0	0	28054	26650	156215	26854	1076110	47065	110416	0	0	8106	560122	0	0
2024-09-07 04:46:47			0	37608	0	0	0	28059	26640	156271	27013	1076155	47053	110418	0	0	8106	560351	0	0
2024-09-07 04:47:47			0	37605	0	0	0	28067	26630	156175	27171	1076083	47064	110421	0	0	8105	560501	0	0
2024-09-07 04:48:47			0	37612	0	0	0	28062	26650	156175	27088	1076164	47065	110419	0	0	8106	560161	0	0
2024-09-07 04:49:47			0	37621	0	0	0	28067	26640	156231	27095	1076128	47064	110421	0	0	8106	559840	0	0
2024-09-07 04:50:47			0	37597	0	0	0	28059	26640	156235	27163	1076155	47076	110418	0	0	8105	560783	0	0
2024-09-07 04:51:47			0	37592	0	0	0	28062	26640	156239	26817	1076182	47076	110419	0	0	8105	560979	0	0
2024-09-07 04:52:47			0	37610	0	0	0	28062	26650	156211	27249	1076083	47054	110419	0	0	8106	560240	0	0
2024-09-07 04:53:47			0	37622	0	0	0	28038	26640	156119	27244	1076182	47064	110410	0	0	8107	559801	0	0
2024-09-07 04:54:47			0	37632	0	0	0	28038	26650	156091	27154	1076164	47054	110410	0	0	8107	559376	0	0
2024-09-07 04:55:47			0	37645	0	0	0	28049	26640	156135	26703	1076173	47064	110414	0	0	8108	558898	0	0
2024-09-07 04:56:47			0	37649	0	0	0	28046	26640	156071	26956	1076119	47064	110413	0	0	8108	558741	0	0
2024-09-07 04:57:47			0	37662	0	0	0	28041	26640	155987	26944	1076182	47064	110411	0	0	8109	558232	0	0
2024-09-07 04:58:47			0	37678	0	0	0	28025	26640	155959	27083	1076119	47053	110405	0	0	8110	557605	0	0
2024-09-07 04:59:47			0	37649	0	0	0	28028	26640	156091	26814	1076065	47053	110406	0	0	8108	558741	0	0
2024-09-07 05:00:47			0	37653	0	0	0	28015	26630	156039	26726	1076047	47041	110401	0	0	8109	558616	0	0
2024-09-07 05:01:47			0	37647	0	0	0	28010	26620	155995	27071	1075984	47062	110399	0	0	8109	558884	0	0
2024-09-07 05:02:47			0	37673	0	0	0	28007	26630	156083	27013	1076047	47041	110398	0	0	8110	557833	0	0
2024-09-07 05:03:47			0	37666	0	0	0	28005	26620	155955	26963	1076029	47039	110397	0	0	8110	558139	0	0
2024-09-07 05:04:47			0	37655	0	0	0	28010	26630	155867	26899	1076074	47063	110399	0	0	8109	558538	0	0
2024-09-07 05:05:47			0	37666	0	0	0	28002	26620	155907	27076	1076002	47050	110396	0	0	8110	558139	0	0
2024-09-07 05:06:47			0	37660	0	0	0	28007	26610	156023	27225	1075957	47050	110398	0	0	8109	558406	0	0
2024-09-07 05:07:47			0	37647	0	0	0	27999	26610	156067	26878	1075885	47050	110395	0	0	8109	558916	0	0
2024-09-07 05:08:47			0	37653	0	0	0	28005	26600	156067	27194	1075948	47049	110397	0	0	8109	558712	0	0
2024-09-07 05:09:47			0	37634	0	0	0	27986	26600	156107	27280	1075921	47060	110390	0	0	8108	559458	0	0
2024-09-07 05:10:47			0	37621	0	0	0	27999	26600	156103	26856	1075867	47060	110395	0	0	8107	559968	0	0
2024-09-07 05:11:47			0	37620	0	0	0	27984	26600	156151	27147	1075867	47038	110389	0	0	8107	560008	0	0
2024-09-07 05:12:47			0	37594	0	0	0	27981	26590	156187	26771	1075849	47059	110388	0	0	8106	561061	0	0
2024-09-07 05:13:47			0	37604	0	0	0	27979	26600	156235	26928	1075867	47049	110387	0	0	8107	560636	0	0
2024-09-07 05:14:47			0	37593	0	0	0	28010	26590	156339	27116	1075894	47037	110399	0	0	8105	561101	0	0
2024-09-07 05:15:47			0	37605	0	0	0	28023	26590	156275	27008	1075822	47048	110404	0	0	8106	560629	0	0
2024-09-07 05:16:47			0	37597	0	0	0	28023	26590	156295	27369	1075813	47048	110404	0	0	8105	560943	0	0
2024-09-07 05:17:47			0	37592	0	0	0	28018	26590	156267	27064	1075813	47059	110402	0	0	8105	561140	0	0
2024-09-07 05:18:47			0	37601	0	0	0	27989	26580	156299	27128	1075831	47047	110391	0	0	8106	560818	0	0
2024-09-07 05:19:47			0	37602	0	0	0	27976	26580	156335	26901	1075804	47047	110386	0	0	8106	560779	0	0
2024-09-07 05:20:47			0	37609	0	0	0	27974	26580	156327	27215	1075750	47047	110385	0	0	8107	560504	0	0
2024-09-07 05:21:47			0	37584	0	0	0	27961	26580	156271	27371	1075795	47057	110380	0	0	8106	561487	0	0
2024-09-07 05:22:47			0	37582	0	0	0	28005	26580	156367	27369	1075777	47036	110397	0	0	8105	561566	0	0
2024-09-07 05:23:47			0	37581	0	0	0	28036	26580	156351	27126	1075768	47046	110409	0	0	8104	561605	0	0
2024-09-07 05:24:47			0	37571	0	0	0	27986	26570	156387	27241	1075813	47057	110390	0	0	8104	562031	0	0
2024-09-07 05:25:47			0	37580	0	0	0	27976	26570	156387	27381	1075759	47057	110386	0	0	8105	561676	0	0
2024-09-07 05:26:47			0	37566	0	0	0	27961	26560	156363	27208	1075714	47045	110380	0	0	8104	562260	0	0
2024-09-07 05:27:47			0	37561	0	0	0	27942	26560	156283	27059	1075705	47055	110373	0	0	8104	562457	0	0
2024-09-07 05:28:47			0	37559	0	0	0	27940	26560	156431	27218	1075732	47044	110372	0	0	8104	562535	0	0
2024-09-07 05:29:47			0	37545	0	0	0	27945	26560	156383	27235	1075678	47044	110374	0	0	8103	563087	0	0
2024-09-07 05:30:47			0	37546	0	0	0	28005	26550	156487	26594	1075669	47044	110397	0	0	8102	563080	0	0
2024-09-07 05:31:47			0	37535	0	0	0	28077	26560	156563	26811	1075705	47066	110425	0	0	8101	563481	0	0
2024-09-07 05:32:47			0	37513	0	0	0	28059	26560	156683	26821	1075759	47055	110418	0	0	8100	564349	0	0
2024-09-07 05:33:47			0	37510	0	0	0	28010	26560	156519	26981	1075687	47056	110399	0	0	8100	564468	0	0
2024-09-07 05:34:47			0	37518	0	0	0	27976	26560	156623	27052	1075714	47045	110386	0	0	8101	564152	0	0
2024-09-07 05:35:47			0	37499	0	0	0	27981	26560	156535	27230	1075759	47044	110388	0	0	8100	564902	0	0
2024-09-07 05:36:47			0	37505	0	0	0	27986	26550	156551	26928	1075714	47065	110390	0	0	8100	564697	0	0
2024-09-07 05:37:47			0	37487	0	0	0	27968	26560	156567	27175	1075705	47044	110383	0	0	8100	565376	0	0
2024-09-07 05:38:47			0	37485	0	0	0	27984	26560	156683	27345	1075687	47045	110389	0	0	8099	565455	0	0
2024-09-07 05:39:47			0	37468	0	0	0	27994	26560	156819	27393	1075714	47056	110393	0	0	8098	566128	0	0
2024-09-07 05:40:47			0	37461	0	0	0	27976	26560	156835	26991	1075714	47067	110386	0	0	8098	566405	0	0
2024-09-07 05:41:47			0	37461	0	0	0	27979	26560	156779	27208	1075732	47055	110387	0	0	8098	566405	0	0
2024-09-07 05:42:47			0	37453	0	0	0	27979	26560	156887	27039	1075714	47067	110387	0	0	8098	566721	0	0
2024-09-07 05:43:47			0	37452	0	0	0	28012	26570	156927	26844	1075804	47057	110400	0	0	8097	566728	0	0
2024-09-07 05:44:47			0	37437	0	0	0	28007	26550	156959	27097	1075777	47055	110398	0	0	8096	567387	0	0
2024-09-07 05:45:47			0	37438	0	0	0	28005	26560	156911	27180	1075822	47067	110397	0	0	8096	567315	0	0
2024-09-07 05:46:47			0	37424	0	0	0	27979	26570	156843	26729	1075867	47046	110387	0	0	8096	567837	0	0
2024-09-07 05:47:47			0	37435	0	0	0	27953	26560	156923	27090	1075741	47067	110377	0	0	8097	567434	0	0
2024-09-07 05:48:47			0	37423	0	0	0	27919	26560	156939	26798	1075714	47034	110364	0	0	8097	567910	0	0
2024-09-07 05:49:47			0	37411	0	0	0	27914	26560	156871	26913	1075687	47045	110362	0	0	8096	568385	0	0
2024-09-07 05:50:47			0	37392	0	0	0	27922	26550	156923	27111	1075642	47033	110365	0	0	8095	569172	0	0
2024-09-07 05:51:47			0	37408	0	0	0	27906	26550	157059	27161	1075615	47044	110359	0	0	8096	568537	0	0
2024-09-07 05:52:47			0	37402	0	0	0	27922	26540	157039	27069	1075544	47032	110365	0	0	8095	568807	0	0
2024-09-07 05:53:47			0	37387	0	0	0	27927	26540	157135	27007	1075534	47053	110367	0	0	8094	569403	0	0
2024-09-07 05:54:47			0	37395	0	0	0	27966	26540	157139	27209	1075669	47053	110382	0	0	8094	569085	0	0
2024-09-07 05:55:47			0	37389	0	0	0	27942	26540	157115	27185	1075597	47054	110373	0	0	8094	569323	0	0
2024-09-07 05:56:47			0	37373	0	0	0	27986	26540	157123	27116	1075597	47054	110390	0	0	8093	569959	0	0
2024-09-07 05:57:47			0	37388	0	0	0	27986	26540	157219	27305	1075678	47043	110390	0	0	8094	569363	0	0
2024-09-07 05:58:47			0	37383	0	0	0	27979	26550	157143	27027	1075580	47043	110387	0	0	8093	569529	0	0
2024-09-07 05:59:47			0	37387	0	0	0	28031	26550	157151	27287	1075750	47066	110407	0	0	8093	569370	0	0
2024-09-07 06:00:47			0	37384	0	0	0	27989	26550	157131	27046	1075741	47065	110391	0	0	8093	569489	0	0
2024-09-07 06:01:47			0	37382	0	0	0	27955	26560	157063	26918	1075732	47066	110378	0	0	8094	569536	0	0
2024-09-07 06:02:47			0	37386	0	0	0	27992	26550	157059	26986	1075696	47066	110392	0	0	8093	569410	0	0
2024-09-07 06:03:47			0	37373	0	0	0	27968	26560	157087	27270	1075625	47055	110383	0	0	8093	569894	0	0
2024-09-07 06:04:47			0	37388	0	0	0	27986	26560	157187	27059	1075732	47066	110390	0	0	8094	569298	0	0
2024-09-07 06:05:47			0	37390	0	0	0	28007	26560	157091	27072	1075732	47055	110398	0	0	8093	569219	0	0
2024-09-07 06:06:47			0	37375	0	0	0	27971	26560	157155	27448	1075768	47067	110384	0	0	8093	569814	0	0
2024-09-07 06:07:47			0	37390	0	0	0	27971	26570	157131	26963	1075723	47057	110384	0	0	8094	569186	0	0
2024-09-07 06:08:47			0	37401	0	0	0	27984	26570	157047	27272	1075750	47046	110389	0	0	8094	568749	0	0
2024-09-07 06:09:47			0	37389	0	0	0	27989	26560	157119	27225	1075714	47056	110391	0	0	8094	569258	0	0
2024-09-07 06:10:47			0	37411	0	0	0	27986	26560	157047	26712	1075732	47044	110390	0	0	8095	568385	0	0
2024-09-07 06:11:47			0	37419	0	0	0	27971	26570	156951	27019	1075813	47057	110384	0	0	8096	568036	0	0
2024-09-07 06:12:47			0	37413	0	0	0	27958	26570	156899	27145	1075777	47057	110379	0	0	8096	568274	0	0
2024-09-07 06:13:47			0	37416	0	0	0	27974	26560	156847	26977	1075813	47055	110385	0	0	8095	568187	0	0
2024-09-07 06:14:47			0	37438	0	0	0	27971	26560	156827	27026	1075714	47056	110384	0	0	8097	567315	0	0
2024-09-07 06:15:47			0	37456	0	0	0	27966	26570	156719	27123	1075732	47068	110382	0	0	8098	566570	0	0
2024-09-07 06:16:47			0	37465	0	0	0	27968	26560	156623	26993	1075759	47055	110383	0	0	8098	566246	0	0
2024-09-07 06:17:47			0	37468	0	0	0	27979	26570	156739	26941	1075831	47068	110387	0	0	8098	566095	0	0
2024-09-07 06:18:47			0	37502	0	0	0	27976	26570	156679	27069	1075750	47057	110386	0	0	8100	564751	0	0
2024-09-07 06:19:47			0	37496	0	0	0	27968	26560	156599	27088	1075768	47045	110383	0	0	8100	565021	0	0
2024-09-07 06:20:47			0	37520	0	0	0	27971	26560	156507	26875	1075786	47044	110384	0	0	8102	564073	0	0
2024-09-07 06:21:47			0	37522	0	0	0	27979	26570	156443	26811	1075777	47035	110387	0	0	8102	563962	0	0
2024-09-07 06:22:47			0	37512	0	0	0	27976	26560	156455	26977	1075795	47045	110386	0	0	8101	564389	0	0
2024-09-07 06:23:47			0	37554	0	0	0	27971	26560	156391	26913	1075768	47056	110384	0	0	8104	562732	0	0
2024-09-07 06:24:47			0	37587	0	0	0	27968	26560	156263	26915	1075768	47056	110383	0	0	8106	561433	0	0
2024-09-07 06:25:47			0	37613	0	0	0	27961	26560	156071	26847	1075732	47044	110380	0	0	8107	560411	0	0
2024-09-07 06:26:47			0	37632	0	0	0	27953	26560	155991	27059	1075714	47067	110377	0	0	8108	559664	0	0
2024-09-07 06:27:47			0	37675	0	0	0	27950	26560	155827	26991	1075705	47044	110376	0	0	8111	557978	0	0
2024-09-07 06:28:47			0	37715	0	0	0	27963	26560	155695	27265	1075759	47055	110381	0	0	8113	556412	0	0
2024-09-07 06:29:47			0	37761	0	0	0	27953	26560	155623	27289	1075732	47044	110377	0	0	8116	554614	0	0
2024-09-07 06:30:47			0	37773	0	0	0	27955	26550	155547	27199	1075696	47055	110378	0	0	8116	554177	0	0
2024-09-07 06:31:47			0	37804	0	0	0	27950	26550	155399	26932	1075660	47043	110376	0	0	8118	552969	0	0
2024-09-07 06:32:47			0	37823	0	0	0	27942	26550	155323	27145	1075633	47054	110373	0	0	8120	552229	0	0
2024-09-07 06:33:47			0	37820	0	0	0	27932	26550	155375	27031	1075660	47032	110369	0	0	8120	552346	0	0
2024-09-07 06:34:47			0	37821	0	0	0	27942	26550	155235	27126	1075660	47032	110373	0	0	8119	552307	0	0
2024-09-07 06:35:47			0	37833	0	0	0	27937	26550	155299	27220	1075589	47055	110371	0	0	8120	551840	0	0
2024-09-07 06:36:47			0	37836	0	0	0	27932	26550	155207	26927	1075633	47043	110369	0	0	8121	551723	0	0
2024-09-07 06:37:47			0	37846	0	0	0	27929	26540	155215	26897	1075624	47032	110368	0	0	8121	551365	0	0
2024-09-07 06:38:47			0	37857	0	0	0	27945	26530	155063	26857	1075633	47030	110374	0	0	8121	550969	0	0
2024-09-07 06:39:47			0	37875	0	0	0	27935	26540	155035	27126	1075615	47042	110370	0	0	8123	550238	0	0
2024-09-07 06:40:47			0	37901	0	0	0	27929	26550	154971	27118	1075660	47043	110368	0	0	8124	549198	0	0
2024-09-07 06:41:47			0	37901	0	0	0	27932	26530	155039	27081	1075525	47041	110369	0	0	8124	549260	0	0
2024-09-07 06:42:47			0	37923	0	0	0	27937	26540	154811	27211	1075588	47042	110371	0	0	8125	548376	0	0
2024-09-07 06:43:47			0	37935	0	0	0	27927	26530	154783	27176	1075597	47030	110367	0	0	8126	547942	0	0
2024-09-07 06:44:47			0	37962	0	0	0	27929	26530	154887	27024	1075633	47052	110368	0	0	8128	546897	0	0
2024-09-07 06:45:47			0	37953	0	0	0	27932	26530	154755	27072	1075606	47052	110369	0	0	8127	547245	0	0
2024-09-07 06:46:47			0	37976	0	0	0	27929	26530	154811	27443	1075579	47052	110368	0	0	8129	546356	0	0
2024-09-07 06:47:47			0	37966	0	0	0	27922	26530	154687	27428	1075624	47063	110365	0	0	8128	546742	0	0
2024-09-07 06:48:47			0	37969	0	0	0	27929	26530	154723	27119	1075624	47041	110368	0	0	8128	546626	0	0
2024-09-07 06:49:47			0	37987	0	0	0	27927	26520	154763	27208	1075525	47041	110367	0	0	8129	545962	0	0
2024-09-07 06:50:47			0	37997	0	0	0	27924	26520	154471	27041	1075605	47029	110366	0	0	8130	545575	0	0
2024-09-07 06:51:47			0	38001	0	0	0	27924	26530	154619	26993	1075597	47052	110366	0	0	8130	545389	0	0
2024-09-07 06:52:47			0	38012	0	0	0	27927	26530	154599	27008	1075570	47052	110367	0	0	8131	544965	0	0
2024-09-07 06:53:47			0	38019	0	0	0	27924	26530	154603	27057	1075570	47052	110366	0	0	8131	544694	0	0
2024-09-07 06:54:47			0	38010	0	0	0	27916	26530	154627	26915	1075570	47052	110363	0	0	8131	545042	0	0
2024-09-07 06:55:47			0	38012	0	0	0	27914	26520	154539	26923	1075480	47041	110362	0	0	8131	544996	0	0
2024-09-07 06:56:47			0	38022	0	0	0	27909	26520	154555	26994	1075453	47041	110360	0	0	8132	544610	0	0
2024-09-07 06:57:47			0	38036	0	0	0	27916	26520	154568	26906	1075498	47051	110363	0	0	8132	544070	0	0
2024-09-07 06:58:47			0	38036	0	0	0	27914	26510	154460	27062	1075435	47040	110362	0	0	8132	544101	0	0
2024-09-07 06:59:47			0	38041	0	0	0	27922	26520	154428	27086	1075498	47029	110365	0	0	8132	543877	0	0
2024-09-07 07:00:47			0	38062	0	0	0	27909	26520	154388	26790	1075471	47041	110360	0	0	8134	543068	0	0
2024-09-07 07:01:47			0	38072	0	0	0	27919	26510	154412	27161	1075489	47040	110364	0	0	8134	542714	0	0
2024-09-07 07:02:47			0	38062	0	0	0	27916	26500	154428	27064	1075498	47061	110363	0	0	8134	543130	0	0
2024-09-07 07:03:47			0	38065	0	0	0	27916	26510	154308	26935	1075516	47040	110363	0	0	8134	542983	0	0
2024-09-07 07:04:47			0	38080	0	0	0	27911	26520	154352	27039	1075471	47062	110361	0	0	8135	542374	0	0
2024-09-07 07:05:47			0	38079	0	0	0	27898	26500	154372	27171	1075471	47061	110356	0	0	8135	542475	0	0
2024-09-07 07:06:47			0	38090	0	0	0	27911	26500	154248	27270	1075471	47040	110361	0	0	8135	542052	0	0
2024-09-07 07:07:47			0	38092	0	0	0	27906	26520	154284	27377	1075507	47041	110359	0	0	8136	541913	0	0
2024-09-07 07:08:47			0	38076	0	0	0	27888	26510	154264	27092	1075453	47040	110352	0	0	8135	542559	0	0
2024-09-07 07:09:47			0	38095	0	0	0	27898	26510	154244	27225	1075462	47028	110356	0	0	8136	541828	0	0
2024-09-07 07:10:47			0	38097	0	0	0	27901	26500	154324	27398	1075363	47040	110357	0	0	8136	541782	0	0
2024-09-07 07:11:47			0	38096	0	0	0	27901	26510	154252	27343	1075381	47040	110357	0	0	8136	541790	0	0
2024-09-07 07:12:47			0	38095	0	0	0	27906	26500	154292	27083	1075417	47040	110359	0	0	8136	541859	0	0
2024-09-07 07:13:47			0	38095	0	0	0	27903	26500	154372	27293	1075444	47050	110358	0	0	8136	541859	0	0
2024-09-07 07:14:47			0	38078	0	0	0	27906	26510	154372	27190	1075453	47050	110359	0	0	8135	542483	0	0
2024-09-07 07:15:47			0	38084	0	0	0	27903	26500	154388	27053	1075390	47061	110358	0	0	8135	542283	0	0
2024-09-07 07:16:47			0	38061	0	0	0	27888	26500	154304	27365	1075417	47050	110352	0	0	8134	543168	0	0
2024-09-07 07:17:47			0	38062	0	0	0	27898	26500	154356	27100	1075444	47040	110356	0	0	8134	543130	0	0
2024-09-07 07:18:47			0	38064	0	0	0	27890	26490	154452	27312	1075372	47048	110353	0	0	8134	543084	0	0
2024-09-07 07:19:47			0	38058	0	0	0	27888	26490	154416	27131	1075453	47038	110352	0	0	8134	543315	0	0
2024-09-07 07:20:47			0	38071	0	0	0	27890	26490	154136	27281	1075372	47048	110353	0	0	8135	542814	0	0
2024-09-07 07:21:47			0	38105	0	0	0	27888	26500	154268	27164	1075390	47050	110352	0	0	8137	541475	0	0
2024-09-07 07:22:47			0	38096	0	0	0	27893	26500	154256	27175	1075310	47040	110354	0	0	8136	541821	0	0
2024-09-07 07:23:47			0	38105	0	0	0	27893	26480	154240	27230	1075354	47047	110354	0	0	8136	541537	0	0
2024-09-07 07:24:47			0	38099	0	0	0	27896	26480	154228	27137	1075381	47047	110355	0	0	8136	541767	0	0
2024-09-07 07:25:47			0	38100	0	0	0	27896	26500	154156	27062	1075381	47039	110355	0	0	8136	541667	0	0
2024-09-07 07:26:47			0	38125	0	0	0	27883	26490	154128	26927	1075318	47038	110350	0	0	8138	540737	0	0
2024-09-07 07:27:47			0	38120	0	0	0	27903	26490	154248	27208	1075399	47038	110358	0	0	8137	540929	0	0
2024-09-07 07:28:47			0	38141	0	0	0	27901	26490	154236	27164	1075336	47059	110357	0	0	8138	540122	0	0
2024-09-07 07:29:47			0	38135	0	0	0	27896	26490	154176	27320	1075336	47071	110355	0	0	8138	540353	0	0
2024-09-07 07:30:47			0	38140	0	0	0	27898	26480	154096	27332	1075408	47058	110356	0	0	8138	540192	0	0
2024-09-07 07:31:47			0	38121	0	0	0	27898	26490	154108	27228	1075444	47048	110356	0	0	8137	540891	0	0
2024-09-07 07:32:47			0	38142	0	0	0	27903	26490	154008	27183	1075372	47038	110358	0	0	8138	540084	0	0
2024-09-07 07:33:47			0	38136	0	0	0	27901	26500	154096	27052	1075381	47060	110357	0	0	8138	540283	0	0
2024-09-07 07:34:47			0	38137	0	0	0	27903	26490	154080	26866	1075399	47048	110358	0	0	8138	540276	0	0
2024-09-07 07:35:47			0	38166	0	0	0	27903	26490	154008	27324	1075363	47059	110358	0	0	8140	539163	0	0
2024-09-07 07:36:47			0	38149	0	0	0	27901	26500	153988	27291	1075408	47039	110357	0	0	8139	539785	0	0
2024-09-07 07:37:47			0	38152	0	0	0	27898	26490	154072	26989	1075336	47038	110356	0	0	8139	539700	0	0
2024-09-07 07:38:47			0	38162	0	0	0	27890	26490	154012	26896	1075399	47038	110353	0	0	8140	539317	0	0
2024-09-07 07:39:47			0	38164	0	0	0	27877	26490	153980	27112	1075399	47059	110348	0	0	8140	539240	0	0
2024-09-07 07:40:47			0	38165	0	0	0	27883	26500	154008	26901	1075408	47039	110350	0	0	8140	539171	0	0
2024-09-07 07:41:47			0	38179	0	0	0	27885	26490	153960	26920	1075309	47048	110351	0	0	8141	538665	0	0
2024-09-07 07:42:47			0	38182	0	0	0	27885	26490	153912	27168	1075336	47038	110351	0	0	8141	538550	0	0
2024-09-07 07:43:47			0	38183	0	0	0	27888	26480	153932	27013	1075381	47037	110352	0	0	8141	538542	0	0
2024-09-07 07:44:47			0	38200	0	0	0	27888	26480	153836	27119	1075327	47037	110352	0	0	8142	537891	0	0
2024-09-07 07:45:47			0	38226	0	0	0	27888	26480	153728	27183	1075300	47037	110352	0	0	8143	536896	0	0
2024-09-07 07:46:47			0	38251	0	0	0	27893	26480	153692	26805	1075354	47047	110354	0	0	8145	535940	0	0
2024-09-07 07:47:47			0	38253	0	0	0	27885	26480	153620	27112	1075354	47025	110351	0	0	8145	535864	0	0
2024-09-07 07:48:47			0	38261	0	0	0	27893	26480	153620	27020	1075345	47047	110354	0	0	8145	535558	0	0
2024-09-07 07:49:47			0	38250	0	0	0	27888	26490	153564	27317	1075399	47038	110352	0	0	8145	535948	0	0
2024-09-07 07:50:47			0	38270	0	0	0	27888	26480	153596	26987	1075354	47047	110352	0	0	8146	535215	0	0
2024-09-07 07:51:47			0	38272	0	0	0	27888	26490	153528	27109	1075390	47048	110352	0	0	8146	535108	0	0
2024-09-07 07:52:47			0	38283	0	0	0	27893	26480	153544	27185	1075381	47047	110354	0	0	8147	534718	0	0
2024-09-07 07:53:47			0	38274	0	0	0	27888	26490	153572	27104	1075372	47038	110352	0	0	8146	535031	0	0
2024-09-07 07:54:47			0	38254	0	0	0	27888	26490	153580	27216	1075291	47048	110352	0	0	8145	535795	0	0
2024-09-07 07:55:47			0	38266	0	0	0	27890	26490	153596	26934	1075363	47059	110353	0	0	8146	535337	0	0
2024-09-07 07:56:47			0	38258	0	0	0	27890	26490	153528	26937	1075390	47038	110353	0	0	8145	535642	0	0
2024-09-07 07:57:47			0	38259	0	0	0	27890	26480	153724	27147	1075354	47047	110353	0	0	8145	535635	0	0
2024-09-07 07:58:47			0	38271	0	0	0	27885	26490	153696	27170	1075363	47059	110351	0	0	8146	535146	0	0
2024-09-07 07:59:47			0	38264	0	0	0	27893	26480	153684	27133	1075381	47037	110354	0	0	8146	535444	0	0
2024-09-07 08:00:47			0	38270	0	0	0	27885	26490	153724	27079	1075417	47048	110351	0	0	8146	535184	0	0
2024-09-07 08:01:47			0	38248	0	0	0	27885	26490	153664	26972	1075336	47048	110351	0	0	8145	536024	0	0
2024-09-07 08:02:47			0	38251	0	0	0	27875	26470	153648	26696	1075363	47046	110347	0	0	8145	535971	0	0
2024-09-07 08:03:47			0	38247	0	0	0	27877	26490	153604	27055	1075363	47026	110348	0	0	8145	536062	0	0
2024-09-07 08:04:47			0	38250	0	0	0	27888	26480	153656	27055	1075318	47037	110352	0	0	8145	535978	0	0
2024-09-07 08:05:47			0	38247	0	0	0	27880	26480	153600	26977	1075354	47047	110349	0	0	8145	536093	0	0
2024-09-07 08:06:47			0	38238	0	0	0	27883	26480	153680	26830	1075300	47047	110350	0	0	8144	536437	0	0
2024-09-07 08:07:47			0	38252	0	0	0	27877	26480	153768	27069	1075237	47047	110348	0	0	8145	535902	0	0
2024-09-07 08:08:47			0	38242	0	0	0	27885	26480	153684	26870	1075354	47037	110351	0	0	8144	536284	0	0
2024-09-07 08:09:47			0	38238	0	0	0	27877	26480	153704	27156	1075300	47047	110348	0	0	8144	536437	0	0
2024-09-07 08:10:47			0	38228	0	0	0	27877	26480	153832	27410	1075237	47037	110348	0	0	8144	536819	0	0
2024-09-07 08:11:47			0	38229	0	0	0	27872	26470	153800	27248	1075336	47046	110346	0	0	8144	536812	0	0
2024-09-07 08:12:47			0	38204	0	0	0	27867	26470	153792	27010	1075309	47057	110344	0	0	8143	537769	0	0
2024-09-07 08:13:47			0	38224	0	0	0	27857	26480	153800	27261	1075291	47047	110340	0	0	8144	536972	0	0
2024-09-07 08:14:47			0	38217	0	0	0	27867	26480	153812	26949	1075318	47058	110344	0	0	8143	537240	0	0
2024-09-07 08:15:47			0	38211	0	0	0	27859	26470	153768	27142	1075282	47046	110341	0	0	8143	537501	0	0
2024-09-07 08:16:47			0	38208	0	0	0	27851	26470	153812	26939	1075309	47036	110338	0	0	8143	537615	0	0
2024-09-07 08:17:47			0	38198	0	0	0	27864	26460	153860	26861	1075228	47056	110343	0	0	8142	538029	0	0
2024-09-07 08:18:47			0	38208	0	0	0	27857	26470	153844	27001	1075219	47046	110340	0	0	8143	537615	0	0
2024-09-07 08:19:47			0	38196	0	0	0	27864	26470	153932	26897	1075246	47046	110343	0	0	8142	538075	0	0
2024-09-07 08:20:47			0	38195	0	0	0	27864	26470	153912	26998	1075228	47036	110343	0	0	8142	538113	0	0
2024-09-07 08:21:47			0	38212	0	0	0	27870	26470	153872	27022	1075282	47046	110345	0	0	8143	537462	0	0
2024-09-07 08:22:47			0	38201	0	0	0	27859	26460	153912	26991	1075237	47023	110341	0	0	8142	537914	0	0
2024-09-07 08:23:47			0	38209	0	0	0	27862	26470	153704	26861	1075300	47046	110342	0	0	8143	537577	0	0
2024-09-07 08:24:47			0	38207	0	0	0	27862	26470	153864	26897	1075273	47046	110342	0	0	8143	537654	0	0
2024-09-07 08:25:47			0	38220	0	0	0	27864	26460	153876	27090	1075148	47056	110343	0	0	8143	537187	0	0
2024-09-07 08:26:47			0	38216	0	0	0	27872	26450	153744	26901	1075165	47055	110346	0	0	8143	537371	0	0
2024-09-07 08:27:47			0	38217	0	0	0	27859	26470	153840	27015	1075219	47046	110341	0	0	8143	537271	0	0
2024-09-07 08:28:47			0	38219	0	0	0	27864	26460	153832	27041	1075228	47045	110343	0	0	8143	537225	0	0
2024-09-07 08:29:47			0	38220	0	0	0	27859	26460	153692	27177	1075210	47035	110341	0	0	8144	537187	0	0
2024-09-07 08:30:47			0	38222	0	0	0	27859	26460	153860	27022	1075183	47045	110341	0	0	8144	537110	0	0
2024-09-07 08:31:47			0	38223	0	0	0	27862	26460	153820	27164	1075237	47035	110342	0	0	8144	537072	0	0
2024-09-07 08:32:47			0	38212	0	0	0	27862	26470	153884	26958	1075219	47046	110342	0	0	8143	537462	0	0
2024-09-07 08:33:47			0	38218	0	0	0	27857	26460	153836	27246	1075264	47045	110340	0	0	8143	537263	0	0
2024-09-07 08:34:47			0	38188	0	0	0	27857	26460	153888	27137	1075148	47045	110340	0	0	8142	538412	0	0
2024-09-07 08:35:47			0	38213	0	0	0	27857	26450	154036	27227	1075165	47044	110340	0	0	8143	537485	0	0
2024-09-07 08:36:47			0	38182	0	0	0	27859	26460	153972	27339	1075210	47045	110341	0	0	8141	538642	0	0
2024-09-07 08:37:47			0	38184	0	0	0	27857	26460	154036	27223	1075237	47035	110340	0	0	8141	538566	0	0
2024-09-07 08:38:47			0	38172	0	0	0	27864	26470	154028	27261	1075219	47046	110343	0	0	8141	538995	0	0
2024-09-07 08:39:47			0	38165	0	0	0	27846	26470	154044	27119	1075219	47057	110336	0	0	8141	539263	0	0
2024-09-07 08:40:47			0	38162	0	0	0	27851	26460	154020	27161	1075210	47035	110338	0	0	8140	539409	0	0
2024-09-07 08:41:47			0	38127	0	0	0	27849	26460	154084	27313	1075183	47056	110337	0	0	8138	540753	0	0
2024-09-07 08:42:47			0	38148	0	0	0	27859	26460	154088	26817	1075264	47035	110341	0	0	8139	539946	0	0
2024-09-07 08:43:47			0	38150	0	0	0	27870	26460	154136	26778	1075174	47035	110345	0	0	8139	539869	0	0
2024-09-07 08:44:47			0	38159	0	0	0	27864	26460	154100	27034	1075255	47035	110343	0	0	8140	539524	0	0
2024-09-07 08:45:47			0	38145	0	0	0	27849	26460	154148	26958	1075183	47045	110337	0	0	8139	540061	0	0
2024-09-07 08:46:47			0	38143	0	0	0	27844	26470	154080	27187	1075192	47036	110335	0	0	8139	540107	0	0
2024-09-07 08:47:47			0	38158	0	0	0	27877	26460	154028	26727	1075210	47035	110348	0	0	8140	539563	0	0
2024-09-07 08:48:47			0	38165	0	0	0	27851	26460	154020	26857	1075174	47023	110338	0	0	8141	539294	0	0
2024-09-07 08:49:47			0	38164	0	0	0	27831	26450	154028	27078	1075138	47034	110330	0	0	8141	539363	0	0
2024-09-07 08:50:47			0	38164	0	0	0	27831	26450	154020	27209	1075165	47044	110330	0	0	8141	539363	0	0
2024-09-07 08:51:47			0	38160	0	0	0	27825	26460	154016	26821	1075174	47035	110328	0	0	8141	539486	0	0
2024-09-07 08:52:47			0	38179	0	0	0	27823	26450	154060	27213	1075156	47044	110327	0	0	8142	538788	0	0
2024-09-07 08:53:47			0	38167	0	0	0	27836	26450	153924	27317	1075103	47034	110332	0	0	8141	539248	0	0
2024-09-07 08:54:47			0	38172	0	0	0	27823	26450	154024	27183	1075156	47022	110327	0	0	8141	539056	0	0
2024-09-07 08:55:47			0	38180	0	0	0	27864	26450	154064	27161	1075156	47034	110343	0	0	8141	538750	0	0
2024-09-07 08:56:47			0	38172	0	0	0	27888	26440	154024	27241	1075147	47043	110352	0	0	8140	539087	0	0
2024-09-07 08:57:47			0	38170	0	0	0	27890	26440	154052	27209	1075147	47043	110353	0	0	8140	539164	0	0
2024-09-07 08:58:47			0	38153	0	0	0	27953	26450	154048	27114	1075112	47044	110377	0	0	8138	539785	0	0
2024-09-07 08:59:47			0	38156	0	0	0	27966	26450	154080	27272	1075165	47044	110382	0	0	8138	539670	0	0
2024-09-07 09:00:47			0	38181	0	0	0	27994	26450	154020	27062	1075300	47067	110393	0	0	8139	538711	0	0
2024-09-07 09:01:47			0	38181	0	0	0	27963	26470	154072	27076	1075354	47057	110381	0	0	8140	538650	0	0
2024-09-07 09:02:47			0	38170	0	0	0	27950	26470	153988	27114	1075407	47080	110376	0	0	8139	539071	0	0
2024-09-07 09:03:47			0	38167	0	0	0	27914	26480	153964	27003	1075426	47058	110362	0	0	8140	539156	0	0
2024-09-07 09:04:47			0	38183	0	0	0	27893	26480	153864	27234	1075408	47047	110354	0	0	8141	538542	0	0
2024-09-07 09:05:47			0	38192	0	0	0	27922	26490	153936	27176	1075417	47048	110365	0	0	8141	538167	0	0
2024-09-07 09:06:47			0	38181	0	0	0	27909	26480	153832	27173	1075345	47058	110360	0	0	8141	538619	0	0
2024-09-07 09:07:47			0	38174	0	0	0	27898	26480	153876	27078	1075354	47047	110356	0	0	8140	538887	0	0
2024-09-07 09:08:47			0	38188	0	0	0	27875	26480	153916	27208	1075291	47025	110347	0	0	8142	538351	0	0
2024-09-07 09:09:47			0	38165	0	0	0	27857	26470	153952	27326	1075202	47036	110340	0	0	8140	539263	0	0
2024-09-07 09:10:47			0	38161	0	0	0	27844	26460	153984	27317	1075157	47035	110335	0	0	8140	539447	0	0
2024-09-07 09:11:47			0	38119	0	0	0	27841	26460	154224	27275	1075210	47023	110334	0	0	8138	541060	0	0
2024-09-07 09:12:47			0	38087	0	0	0	27836	26460	154276	27104	1075183	47035	110332	0	0	8136	542291	0	0
2024-09-07 09:13:47			0	38091	0	0	0	27859	26470	154260	27317	1075192	47036	110341	0	0	8136	542106	0	0
2024-09-07 09:14:47			0	38014	0	0	0	27909	26450	154571	27241	1075103	47034	110360	0	0	8131	545137	0	0
2024-09-07 09:15:47			0	38027	0	0	0	27896	26450	154484	26915	1075112	47034	110355	0	0	8132	544635	0	0
2024-09-07 09:16:47			0	38062	0	0	0	27945	26460	154464	27194	1075157	47045	110374	0	0	8133	543254	0	0
2024-09-07 09:17:47			0	38055	0	0	0	27992	26450	154408	26930	1075246	47067	110392	0	0	8132	543555	0	0
2024-09-07 09:18:47			0	38011	0	0	0	28096	26460	154659	26859	1075398	47045	110432	0	0	8127	545221	0	0
2024-09-07 09:19:47			0	37979	0	0	0	28088	26480	154787	27220	1075596	47081	110429	0	0	8126	546396	0	0
2024-09-07 09:20:47			0	37975	0	0	0	28098	26500	154743	27424	1075730	47093	110433	0	0	8126	546488	0	0
2024-09-07 09:21:47			0	37938	0	0	0	28088	26510	154927	27220	1075785	47094	110429	0	0	8124	547889	0	0
2024-09-07 09:22:47			0	37927	0	0	0	28083	26530	155063	27161	1075812	47085	110427	0	0	8123	548252	0	0
2024-09-07 09:23:47			0	37883	0	0	0	28088	26540	155043	27424	1075866	47087	110429	0	0	8121	549928	0	0
2024-09-07 09:24:47			0	37880	0	0	0	28072	26550	155023	27208	1075929	47065	110423	0	0	8121	550013	0	0
2024-09-07 09:25:47			0	37847	0	0	0	28080	26560	155135	27457	1075920	47078	110426	0	0	8119	551263	0	0
2024-09-07 09:26:47			0	37831	0	0	0	28098	26570	155255	27088	1075920	47080	110433	0	0	8118	551854	0	0
2024-09-07 09:27:47			0	37825	0	0	0	28114	26580	155267	27279	1076037	47080	110439	0	0	8117	552056	0	0
2024-09-07 09:28:47			0	37798	0	0	0	28072	26580	155315	27017	1075965	47058	110423	0	0	8116	553108	0	0
2024-09-07 09:29:47			0	37792	0	0	0	27986	26580	155331	27083	1075983	47068	110390	0	0	8117	553341	0	0
2024-09-07 09:30:47			0	37801	0	0	0	27950	26570	155331	27131	1075867	47046	110376	0	0	8118	553022	0	0
2024-09-07 09:31:47			0	37877	0	0	0	27916	26580	155063	27163	1075795	47046	110363	0	0	8123	550035	0	0
2024-09-07 09:32:47			0	37909	0	0	0	27958	26570	154907	26956	1075696	47046	110379	0	0	8124	548825	0	0
2024-09-07 09:33:47			0	37946	0	0	0	28044	26560	154755	27137	1075678	47044	110412	0	0	8125	547422	0	0
2024-09-07 09:34:47			0	37953	0	0	0	28070	26570	154643	26908	1075804	47057	110422	0	0	8125	547120	0	0
2024-09-07 09:35:47			0	37983	0	0	0	28075	26560	154679	27272	1075875	47056	110424	0	0	8127	545991	0	0
2024-09-07 09:36:47			0	37986	0	0	0	28080	26570	154627	27060	1075920	47068	110426	0	0	8127	545844	0	0
2024-09-07 09:37:47			0	38007	0	0	0	28064	26580	154567	27180	1075876	47068	110420	0	0	8128	545002	0	0
2024-09-07 09:38:47			0	37990	0	0	0	28090	26570	154631	27154	1075894	47046	110430	0	0	8127	545689	0	0
2024-09-07 09:39:47			0	38001	0	0	0	28101	26580	154519	27144	1075903	47068	110434	0	0	8127	545233	0	0
2024-09-07 09:40:47			0	37987	0	0	0	28109	26580	154563	27434	1075939	47058	110437	0	0	8126	545774	0	0
2024-09-07 09:41:47			0	37998	0	0	0	28109	26570	154587	27365	1075974	47068	110437	0	0	8127	545380	0	0
2024-09-07 09:42:47			0	38008	0	0	0	28103	26590	154459	27324	1076082	47070	110435	0	0	8128	544932	0	0
2024-09-07 09:43:47			0	37994	0	0	0	28127	26590	154563	27066	1076064	47082	110444	0	0	8127	545473	0	0
2024-09-07 09:44:47			0	37999	0	0	0	28158	26610	154519	27092	1076145	47083	110456	0	0	8126	545217	0	0
2024-09-07 09:45:47			0	37991	0	0	0	28150	26610	154659	26934	1076262	47083	110453	0	0	8126	545526	0	0
2024-09-07 09:46:47			0	37964	0	0	0	28171	26630	154735	27291	1076289	47096	110461	0	0	8124	546507	0	0
2024-09-07 09:47:47			0	37954	0	0	0	28158	26640	154747	27005	1076307	47097	110456	0	0	8124	546862	0	0
2024-09-07 09:48:47			0	37933	0	0	0	28166	26650	154751	27220	1076459	47087	110459	0	0	8123	547644	0	0
2024-09-07 09:49:47			0	37902	0	0	0	28173	26680	154863	27187	1076505	47101	110462	0	0	8121	548750	0	0
2024-09-07 09:50:47			0	37904	0	0	0	28166	26680	154919	27005	1076532	47090	110459	0	0	8121	548673	0	0
2024-09-07 09:51:47			0	37894	0	0	0	28161	26690	154843	27130	1076496	47090	110457	0	0	8121	549029	0	0
2024-09-07 09:52:47			0	37867	0	0	0	28173	26690	155043	27060	1076586	47081	110462	0	0	8119	550077	0	0
2024-09-07 09:53:47			0	37871	0	0	0	28184	26710	154847	27183	1076586	47104	110466	0	0	8119	549859	0	0
2024-09-07 09:54:47			0	37857	0	0	0	28189	26700	155131	27222	1076622	47092	110468	0	0	8118	550434	0	0
2024-09-07 09:55:47			0	37854	0	0	0	28192	26710	154931	27192	1076649	47093	110469	0	0	8118	550519	0	0
2024-09-07 09:56:47			0	37856	0	0	0	28179	26720	155079	26956	1076739	47094	110464	0	0	8118	550409	0	0
2024-09-07 09:57:47			0	37841	0	0	0	28184	26730	154975	26852	1076676	47073	110466	0	0	8117	550960	0	0
2024-09-07 09:58:47			0	37846	0	0	0	28181	26740	155023	27041	1076757	47097	110465	0	0	8118	550735	0	0
2024-09-07 09:59:47			0	37846	0	0	0	28186	26740	155015	27036	1076829	47096	110467	0	0	8118	550735	0	0
2024-09-07 10:00:47			0	37847	0	0	0	28184	26740	155011	26682	1076829	47096	110466	0	0	8118	550696	0	0
2024-09-07 10:01:47			0	37848	0	0	0	28179	26740	154923	27216	1076757	47064	110464	0	0	8118	550657	0	0
2024-09-07 10:02:47			0	37844	0	0	0	28173	26750	154987	27109	1076740	47075	110462	0	0	8118	550781	0	0
2024-09-07 10:03:47			0	37837	0	0	0	28140	26750	155047	27289	1076775	47075	110449	0	0	8118	551053	0	0
2024-09-07 10:04:47			0	37845	0	0	0	28137	26750	154995	27187	1076740	47086	110448	0	0	8119	550742	0	0
2024-09-07 10:05:47			0	37859	0	0	0	28150	26750	154967	27376	1076740	47075	110453	0	0	8119	550198	0	0
2024-09-07 10:06:47			0	37880	0	0	0	28153	26740	155039	27265	1076677	47064	110454	0	0	8120	549415	0	0
2024-09-07 10:07:47			0	37850	0	0	0	28137	26740	154939	27173	1076650	47064	110448	0	0	8119	550579	0	0
2024-09-07 10:08:47			0	37847	0	0	0	28101	26740	154939	27476	1076650	47064	110434	0	0	8119	550696	0	0
2024-09-07 10:09:47			0	37873	0	0	0	28070	26740	154703	26861	1076650	47075	110422	0	0	8121	549686	0	0
2024-09-07 10:10:47			0	37926	0	0	0	28075	26730	154579	27230	1076551	47051	110424	0	0	8124	547664	0	0
2024-09-07 10:11:47			0	37969	0	0	0	28080	26720	154515	27137	1076524	47050	110426	0	0	8127	546032	0	0
2024-09-07 10:12:47			0	37996	0	0	0	28090	26720	154479	27131	1076524	47061	110430	0	0	8128	544990	0	0
2024-09-07 10:13:47			0	37980	0	0	0	28085	26710	154379	26847	1076452	47071	110428	0	0	8127	545639	0	0
2024-09-07 10:14:47			0	38007	0	0	0	28093	26700	154303	27241	1076443	47083	110431	0	0	8128	544628	0	0
2024-09-07 10:15:47			0	38013	0	0	0	28090	26710	154399	27211	1076425	47060	110430	0	0	8129	544365	0	0
2024-09-07 10:16:47			0	38008	0	0	0	28077	26710	154319	26989	1076452	47060	110425	0	0	8129	544558	0	0
2024-09-07 10:17:47			0	38015	0	0	0	28075	26690	154327	27246	1076479	47069	110424	0	0	8129	544350	0	0
2024-09-07 10:18:47			0	38021	0	0	0	28072	26690	154416	27222	1076389	47057	110423	0	0	8130	544119	0	0
2024-09-07 10:19:47			0	38020	0	0	0	28064	26690	154463	26878	1076335	47057	110420	0	0	8130	544157	0	0
2024-09-07 10:20:47			0	38014	0	0	0	28064	26690	154399	27325	1076344	47069	110420	0	0	8129	544389	0	0
2024-09-07 10:21:47			0	38014	0	0	0	28090	26690	154359	27235	1076443	47057	110430	0	0	8129	544389	0	0
2024-09-07 10:22:47			0	38011	0	0	0	28119	26670	154507	26857	1076326	47066	110441	0	0	8128	544567	0	0
2024-09-07 10:23:47			0	38001	0	0	0	28093	26690	154439	27005	1076389	47057	110431	0	0	8128	544890	0	0
2024-09-07 10:24:47			0	38021	0	0	0	28080	26680	154483	27022	1076353	47057	110426	0	0	8129	544150	0	0
2024-09-07 10:25:47			0	38026	0	0	0	28080	26690	154419	26826	1076389	47068	110426	0	0	8130	543926	0	0
2024-09-07 10:26:47			0	38026	0	0	0	28088	26680	154419	26993	1076317	47057	110429	0	0	8129	543957	0	0
2024-09-07 10:27:47			0	38027	0	0	0	28194	26680	154407	27036	1076434	47068	110470	0	0	8128	543919	0	0
2024-09-07 10:28:47			0	38062	0	0	0	28212	26680	154428	27041	1076487	47080	110477	0	0	8129	542571	0	0
2024-09-07 10:29:47			0	38031	0	0	0	28220	26700	154371	27118	1076568	47115	110480	0	0	8128	543702	0	0
2024-09-07 10:30:47			0	38039	0	0	0	28202	26700	154300	27144	1076658	47104	110473	0	0	8128	543394	0	0
2024-09-07 10:31:47			0	38037	0	0	0	28215	26710	154268	27072	1076649	47093	110478	0	0	8128	543440	0	0
2024-09-07 10:32:47			0	38063	0	0	0	28192	26720	154280	26993	1076712	47083	110469	0	0	8130	542408	0	0
2024-09-07 10:33:47			0	38034	0	0	0	28168	26730	154216	26708	1076703	47095	110460	0	0	8129	543493	0	0
2024-09-07 10:34:47			0	38064	0	0	0	28135	26730	154260	27196	1076676	47084	110447	0	0	8131	542338	0	0
2024-09-07 10:35:47			0	38053	0	0	0	28098	26730	154132	27098	1076659	47073	110433	0	0	8131	542762	0	0
2024-09-07 10:36:47			0	38074	0	0	0	28083	26720	154084	27206	1076614	47062	110427	0	0	8133	541985	0	0
2024-09-07 10:37:47			0	38135	0	0	0	28083	26720	153960	27100	1076587	47073	110427	0	0	8136	539642	0	0
2024-09-07 10:38:47			0	38152	0	0	0	28098	26720	153848	27076	1076497	47061	110433	0	0	8137	538990	0	0
2024-09-07 10:39:47			0	38178	0	0	0	28132	26700	153696	27022	1076443	47060	110446	0	0	8138	538056	0	0
2024-09-07 10:40:47			0	38191	0	0	0	28122	26700	153680	27124	1076443	47071	110442	0	0	8139	537559	0	0
2024-09-07 10:41:47			0	38197	0	0	0	28132	26700	153632	27121	1076434	47070	110446	0	0	8139	537329	0	0
2024-09-07 10:42:47			0	38207	0	0	0	28127	26700	153712	26887	1076524	47083	110444	0	0	8139	536947	0	0
2024-09-07 10:43:47			0	38211	0	0	0	28103	26700	153692	27083	1076524	47093	110435	0	0	8140	536794	0	0
2024-09-07 10:44:47			0	38211	0	0	0	28075	26700	153548	27034	1076470	47071	110424	0	0	8140	536794	0	0
2024-09-07 10:45:47			0	38220	0	0	0	28075	26700	153576	27261	1076461	47070	110424	0	0	8141	536450	0	0
2024-09-07 10:46:47			0	38236	0	0	0	28064	26700	153548	27255	1076461	47082	110420	0	0	8142	535839	0	0
2024-09-07 10:47:47			0	38240	0	0	0	28049	26690	153576	27518	1076416	47045	110414	0	0	8143	535716	0	0
2024-09-07 10:48:47			0	38236	0	0	0	28038	26690	153620	27232	1076398	47058	110410	0	0	8142	535869	0	0
2024-09-07 10:49:47			0	38226	0	0	0	28041	26680	153584	27331	1076290	47068	110411	0	0	8142	536282	0	0
2024-09-07 10:50:47			0	38238	0	0	0	28033	26680	153600	27287	1076380	47035	110408	0	0	8143	535824	0	0
2024-09-07 10:51:47			0	38231	0	0	0	28046	26660	153596	27303	1076316	47055	110413	0	0	8142	536152	0	0
2024-09-07 10:52:47			0	38211	0	0	0	28041	26660	153596	27348	1076289	47055	110411	0	0	8141	536917	0	0
2024-09-07 10:53:47			0	38225	0	0	0	28036	26660	153696	27010	1076227	47066	110409	0	0	8142	536382	0	0
2024-09-07 10:54:47			0	38202	0	0	0	28041	26660	153708	26883	1076289	47066	110411	0	0	8140	537261	0	0
2024-09-07 10:55:47			0	38204	0	0	0	28036	26660	153672	27265	1076263	47055	110409	0	0	8141	537184	0	0
2024-09-07 10:56:47			0	38161	0	0	0	28038	26640	153812	27093	1076235	47041	110410	0	0	8138	538892	0	0
2024-09-07 10:57:47			0	38095	0	0	0	28036	26650	154100	27060	1076298	47065	110409	0	0	8134	541394	0	0
2024-09-07 10:58:47			0	38115	0	0	0	28031	26660	154012	27072	1076280	47066	110407	0	0	8135	540595	0	0
2024-09-07 10:59:47			0	38132	0	0	0	28038	26640	154076	27029	1076235	47076	110410	0	0	8136	540004	0	0
2024-09-07 11:00:47			0	38146	0	0	0	28025	26640	154000	27234	1076209	47041	110405	0	0	8137	539467	0	0
2024-09-07 11:01:47			0	38136	0	0	0	28036	26630	153920	27092	1076244	47064	110409	0	0	8136	539882	0	0
2024-09-07 11:02:47			0	38143	0	0	0	28028	26640	153956	27093	1076199	47064	110406	0	0	8137	539582	0	0
2024-09-07 11:03:47			0	38144	0	0	0	28033	26630	153900	27189	1076154	47075	110408	0	0	8137	539575	0	0
2024-09-07 11:04:47			0	38161	0	0	0	28028	26630	153852	27397	1076101	47063	110406	0	0	8138	538923	0	0
2024-09-07 11:05:47			0	38176	0	0	0	28028	26630	153856	27208	1076110	47064	110406	0	0	8139	538348	0	0
2024-09-07 11:06:47			0	38171	0	0	0	28028	26620	153768	27253	1076172	47062	110406	0	0	8139	538571	0	0
2024-09-07 11:07:47			0	38191	0	0	0	28036	26630	153756	27045	1076208	47075	110409	0	0	8140	537774	0	0
2024-09-07 11:08:47			0	38212	0	0	0	28033	26620	153760	27299	1076145	47062	110408	0	0	8141	537001	0	0
2024-09-07 11:09:47			0	38199	0	0	0	28036	26630	153720	27152	1076137	47076	110409	0	0	8140	537468	0	0
2024-09-07 11:10:47			0	38220	0	0	0	28028	26620	153664	27052	1076163	47083	110406	0	0	8141	536695	0	0
2024-09-07 11:11:47			0	38212	0	0	0	28038	26610	153660	27213	1076100	47061	110410	0	0	8141	537032	0	0
2024-09-07 11:12:47			0	38203	0	0	0	28038	26630	153644	27239	1076110	47053	110410	0	0	8140	537315	0	0
2024-09-07 11:13:47			0	38209	0	0	0	28046	26620	153676	27244	1076163	47061	110413	0	0	8140	537116	0	0
2024-09-07 11:14:47			0	38200	0	0	0	28038	26620	153752	27218	1076145	47062	110410	0	0	8140	537460	0	0
2024-09-07 11:15:47			0	38190	0	0	0	28041	26630	153716	27072	1076154	47075	110411	0	0	8140	537812	0	0
2024-09-07 11:16:47			0	38174	0	0	0	28036	26630	153692	26906	1076181	47063	110409	0	0	8139	538425	0	0
2024-09-07 11:17:47			0	38187	0	0	0	28036	26630	153776	27206	1076164	47064	110409	0	0	8139	537927	0	0
2024-09-07 11:18:47			0	38191	0	0	0	28033	26620	153732	27246	1076119	47074	110408	0	0	8140	537805	0	0
2024-09-07 11:19:47			0	38193	0	0	0	28028	26630	153856	26871	1076128	47063	110406	0	0	8140	537697	0	0
2024-09-07 11:20:47			0	38202	0	0	0	28028	26620	153820	27182	1076136	47073	110406	0	0	8140	537384	0	0
2024-09-07 11:21:47			0	38205	0	0	0	28023	26620	153772	27007	1076119	47062	110404	0	0	8141	537269	0	0
2024-09-07 11:22:47			0	38215	0	0	0	28007	26610	153676	27263	1076100	47061	110398	0	0	8141	536917	0	0
2024-09-07 11:23:47			0	38236	0	0	0	28023	26620	153744	26852	1076136	47061	110404	0	0	8142	536084	0	0
2024-09-07 11:24:47			0	38232	0	0	0	28012	26620	153680	27140	1076119	47074	110400	0	0	8142	536237	0	0
2024-09-07 11:25:47			0	38242	0	0	0	28010	26620	153540	27086	1076109	47061	110399	0	0	8143	535855	0	0
2024-09-07 11:26:47			0	38236	0	0	0	28020	26620	153612	27320	1076056	47061	110403	0	0	8142	536084	0	0
2024-09-07 11:27:47			0	38260	0	0	0	28020	26620	153500	27161	1076145	47074	110403	0	0	8144	535168	0	0
2024-09-07 11:28:47			0	38245	0	0	0	28031	26610	153540	27246	1076118	47061	110407	0	0	8143	535771	0	0
2024-09-07 11:29:47			0	38238	0	0	0	28028	26610	153572	27237	1076100	47061	110406	0	0	8142	536038	0	0
2024-09-07 11:30:47			0	38236	0	0	0	28031	26610	153572	27154	1076127	47061	110407	0	0	8142	536115	0	0
2024-09-07 11:31:47			0	38242	0	0	0	28010	26610	153568	27239	1076091	47061	110399	0	0	8143	535885	0	0
2024-09-07 11:32:47			0	38245	0	0	0	28012	26610	153572	27081	1076047	47073	110400	0	0	8143	535771	0	0
2024-09-07 11:33:47			0	38242	0	0	0	28031	26620	153540	26854	1076109	47083	110407	0	0	8143	535855	0	0
2024-09-07 11:34:47			0	38219	0	0	0	28038	26610	153616	27201	1076127	47073	110410	0	0	8141	536764	0	0
2024-09-07 11:35:47			0	38220	0	0	0	28028	26610	153636	27244	1076100	47073	110406	0	0	8141	536726	0	0
2024-09-07 11:36:47			0	38233	0	0	0	28033	26620	153636	27505	1076109	47073	110408	0	0	8142	536199	0	0
2024-09-07 11:37:47			0	38210	0	0	0	28044	26620	153656	27246	1076109	47073	110412	0	0	8141	537078	0	0
2024-09-07 11:38:47			0	38236	0	0	0	28054	26620	153568	27379	1076136	47083	110416	0	0	8142	536084	0	0
2024-09-07 11:39:47			0	38252	0	0	0	28028	26620	153680	27164	1076163	47073	110406	0	0	8143	535473	0	0
2024-09-07 11:40:47			0	38219	0	0	0	28046	26630	153716	27246	1076128	47063	110413	0	0	8141	536703	0	0
2024-09-07 11:41:47			0	38213	0	0	0	28062	26630	153664	27441	1076128	47063	110419	0	0	8140	536932	0	0
2024-09-07 11:42:47			0	38242	0	0	0	28067	26620	153764	27384	1076199	47051	110421	0	0	8142	535855	0	0
2024-09-07 11:43:47			0	38221	0	0	0	28062	26620	153724	27131	1076226	47074	110419	0	0	8141	536657	0	0
2024-09-07 11:44:47			0	38240	0	0	0	28051	26620	153624	27445	1076226	47062	110415	0	0	8142	535931	0	0
2024-09-07 11:45:47			0	38256	0	0	0	28051	26630	153512	27343	1076217	47053	110415	0	0	8143	535290	0	0
2024-09-07 11:46:47			0	38274	0	0	0	28059	26630	153520	27201	1076244	47076	110418	0	0	8144	534603	0	0
2024-09-07 11:47:47			0	38269	0	0	0	28062	26630	153548	27166	1076235	47075	110419	0	0	8144	534794	0	0
2024-09-07 11:48:47			0	38272	0	0	0	28067	26640	153556	27453	1076226	47064	110421	0	0	8144	534649	0	0
2024-09-07 11:49:47			0	38270	0	0	0	28062	26640	153572	26984	1076262	47086	110419	0	0	8144	534725	0	0
2024-09-07 11:50:47			0	38289	0	0	0	28059	26640	153416	27291	1076289	47064	110418	0	0	8145	534000	0	0
2024-09-07 11:51:47			0	38286	0	0	0	28067	26630	153400	26975	1076235	47075	110421	0	0	8145	534145	0	0
2024-09-07 11:52:47			0	38307	0	0	0	28062	26640	153348	27293	1076262	47064	110419	0	0	8146	533315	0	0
2024-09-07 11:53:47			0	38302	0	0	0	28075	26640	153352	27208	1076289	47064	110424	0	0	8145	533505	0	0
2024-09-07 11:54:47			0	38312	0	0	0	28083	26650	153480	27020	1076271	47065	110427	0	0	8146	533094	0	0
2024-09-07 11:55:47			0	38309	0	0	0	28088	26640	153364	27383	1076307	47086	110429	0	0	8146	533239	0	0
2024-09-07 11:56:47			0	38298	0	0	0	28088	26650	153324	27201	1076379	47077	110429	0	0	8145	533627	0	0
2024-09-07 11:57:47			0	38313	0	0	0	28085	26650	153392	27291	1076325	47065	110428	0	0	8146	533056	0	0
2024-09-07 11:58:47			0	38329	0	0	0	28088	26660	153364	27197	1076334	47088	110429	0	0	8147	532417	0	0
2024-09-07 11:59:47			0	38331	0	0	0	28096	26650	153316	27415	1076379	47077	110432	0	0	8147	532371	0	0
2024-09-07 12:00:47			0	38306	0	0	0	28090	26660	153316	27175	1076370	47078	110430	0	0	8145	533292	0	0
2024-09-07 12:01:47			0	38309	0	0	0	28088	26660	153316	27294	1076370	47055	110429	0	0	8146	533178	0	0
2024-09-07 12:02:47			0	38322	0	0	0	28072	26670	153384	27298	1076415	47079	110423	0	0	8147	532652	0	0
2024-09-07 12:03:47			0	38320	0	0	0	28057	26670	153260	27029	1076389	47079	110417	0	0	8147	532728	0	0
2024-09-07 12:04:47			0	38345	0	0	0	28067	26670	153380	27246	1076353	47055	110421	0	0	8148	531778	0	0
2024-09-07 12:05:47			0	38329	0	0	0	28080	26670	153280	27248	1076379	47078	110426	0	0	8147	532386	0	0
2024-09-07 12:06:47			0	38316	0	0	0	28064	26660	153228	27473	1076370	47078	110420	0	0	8147	532911	0	0
2024-09-07 12:07:47			0	38312	0	0	0	28072	26660	153180	27479	1076415	47078	110423	0	0	8146	533063	0	0
2024-09-07 12:08:47			0	38332	0	0	0	28075	26650	153304	27317	1076325	47077	110424	0	0	8147	532333	0	0
2024-09-07 12:09:47			0	38315	0	0	0	28080	26660	153260	27258	1076361	47078	110426	0	0	8146	532949	0	0
2024-09-07 12:10:47			0	38325	0	0	0	28088	26660	153268	27140	1076451	47055	110429	0	0	8147	532569	0	0
2024-09-07 12:11:47			0	38318	0	0	0	28096	26680	153308	26996	1076380	47057	110432	0	0	8146	532774	0	0
2024-09-07 12:12:47			0	38309	0	0	0	28106	26680	153348	27024	1076344	47080	110436	0	0	8145	533117	0	0
2024-09-07 12:13:47			0	38310	0	0	0	28098	26680	153380	27540	1076424	47068	110433	0	0	8146	533078	0	0
2024-09-07 12:14:47			0	38317	0	0	0	28096	26660	153328	27192	1076397	47078	110432	0	0	8146	532873	0	0
2024-09-07 12:15:47			0	38303	0	0	0	28103	26670	153376	27294	1076469	47067	110435	0	0	8145	533375	0	0
2024-09-07 12:16:47			0	38320	0	0	0	28106	26680	153360	27118	1076434	47080	110436	0	0	8146	532698	0	0
2024-09-07 12:17:47			0	38294	0	0	0	28106	26680	153372	27227	1076487	47068	110436	0	0	8145	533688	0	0
2024-09-07 12:18:47			0	38294	0	0	0	28114	26690	153328	27137	1076470	47068	110439	0	0	8145	533657	0	0
2024-09-07 12:19:47			0	38307	0	0	0	28122	26690	153324	27230	1076505	47069	110442	0	0	8145	533162	0	0
2024-09-07 12:20:47			0	38314	0	0	0	28119	26700	153312	27060	1076515	47082	110441	0	0	8146	532865	0	0
2024-09-07 12:21:47			0	38309	0	0	0	28127	26700	153204	27086	1076568	47070	110444	0	0	8145	533056	0	0
2024-09-07 12:22:47			0	38299	0	0	0	28145	26700	153236	27391	1076568	47082	110451	0	0	8144	533436	0	0
2024-09-07 12:23:47			0	38331	0	0	0	28161	26700	153208	27339	1076568	47070	110457	0	0	8146	532218	0	0
2024-09-07 12:24:47			0	38348	0	0	0	28176	26710	153192	27241	1076694	47071	110463	0	0	8147	531542	0	0
2024-09-07 12:25:47			0	38363	0	0	0	28176	26710	153088	27301	1076676	47093	110463	0	0	8148	530972	0	0
2024-09-07 12:26:47			0	38328	0	0	0	28176	26720	153100	26993	1076640	47073	110463	0	0	8146	532272	0	0
2024-09-07 12:27:47			0	38348	0	0	0	28179	26720	153128	27045	1076685	47094	110464	0	0	8147	531511	0	0
2024-09-07 12:28:47			0	38358	0	0	0	28184	26730	152964	27133	1076757	47095	110466	0	0	8147	531101	0	0
2024-09-07 12:29:47			0	38361	0	0	0	28192	26720	152992	27107	1076820	47083	110469	0	0	8147	531018	0	0
2024-09-07 12:30:47			0	38368	0	0	0	28192	26740	153020	27076	1076757	47108	110469	0	0	8148	530691	0	0
2024-09-07 12:31:47			0	38361	0	0	0	28186	26740	153068	26755	1076865	47086	110467	0	0	8147	530957	0	0
2024-09-07 12:32:47			0	38368	0	0	0	28199	26740	152908	27116	1076856	47096	110472	0	0	8148	530691	0	0
2024-09-07 12:33:47			0	38371	0	0	0	28212	26750	152952	27135	1076802	47075	110477	0	0	8148	530547	0	0
2024-09-07 12:34:47			0	38346	0	0	0	28197	26750	152964	27251	1076910	47097	110471	0	0	8146	531496	0	0
2024-09-07 12:35:47			0	38367	0	0	0	28205	26770	153008	27183	1076937	47089	110474	0	0	8148	530638	0	0
2024-09-07 12:36:47			0	38372	0	0	0	28212	26770	152912	27098	1077000	47100	110477	0	0	8148	530448	0	0
2024-09-07 12:37:47			0	38369	0	0	0	28223	26770	152908	27211	1076991	47089	110481	0	0	8147	530562	0	0
2024-09-07 12:38:47			0	38373	0	0	0	28212	26780	152968	26778	1076955	47078	110477	0	0	8148	530380	0	0
2024-09-07 12:39:47			0	38380	0	0	0	28205	26780	152948	27083	1077036	47089	110474	0	0	8148	530114	0	0
2024-09-07 12:40:47			0	38367	0	0	0	28207	26770	152888	27067	1077000	47089	110475	0	0	8148	530638	0	0
2024-09-07 12:41:47			0	38361	0	0	0	28236	26790	152916	26885	1077081	47069	110486	0	0	8147	530805	0	0
2024-09-07 12:42:47			0	38377	0	0	0	28249	26790	152872	27307	1077171	47102	110491	0	0	8147	530198	0	0
2024-09-07 12:43:47			0	38397	0	0	0	28262	26800	152980	26991	1077135	47103	110496	0	0	8148	529409	0	0
2024-09-07 12:44:47			0	38384	0	0	0	28236	26790	152860	27001	1077171	47091	110486	0	0	8148	529932	0	0
2024-09-07 12:45:47			0	38390	0	0	0	28233	26810	152788	27161	1077234	47082	110485	0	0	8149	529644	0	0
2024-09-07 12:46:47			0	38388	0	0	0	28223	26810	152840	27320	1077180	47093	110481	0	0	8149	529720	0	0
2024-09-07 12:47:47			0	38399	0	0	0	28220	26810	152844	27067	1077198	47093	110480	0	0	8149	529303	0	0
2024-09-07 12:48:47			0	38415	0	0	0	28220	26810	152892	27104	1077234	47082	110480	0	0	8150	528697	0	0
2024-09-07 12:49:47			0	38402	0	0	0	28236	26800	152780	26817	1077243	47070	110486	0	0	8149	529220	0	0
2024-09-07 12:50:47			0	38405	0	0	0	28233	26810	152792	27045	1077198	47082	110485	0	0	8149	529076	0	0
2024-09-07 12:51:47			0	38426	0	0	0	28231	26810	152756	27097	1077153	47071	110484	0	0	8151	528281	0	0
2024-09-07 12:52:47			0	38414	0	0	0	28231	26810	152788	26769	1077225	47082	110484	0	0	8150	528735	0	0
2024-09-07 12:53:47			0	38413	0	0	0	28241	26810	152696	27062	1077127	47082	110488	0	0	8150	528773	0	0
2024-09-07 12:54:47			0	38413	0	0	0	28254	26810	152732	27064	1077261	47082	110493	0	0	8150	528773	0	0
2024-09-07 12:55:47			0	38430	0	0	0	28262	26820	152772	27034	1077225	47094	110496	0	0	8150	528099	0	0
2024-09-07 12:56:47			0	38428	0	0	0	28236	26820	152816	27022	1077225	47083	110486	0	0	8151	528175	0	0
2024-09-07 12:57:47			0	38399	0	0	0	28272	26810	152812	26817	1077153	47082	110500	0	0	8148	529303	0	0
2024-09-07 12:58:47			0	38424	0	0	0	28285	26830	152720	27046	1077315	47073	110505	0	0	8150	528296	0	0
2024-09-07 12:59:47			0	38415	0	0	0	28270	26830	152772	26935	1077288	47095	110499	0	0	8149	528637	0	0
2024-09-07 13:00:47			0	38426	0	0	0	28259	26830	152792	26748	1077342	47095	110495	0	0	8150	528220	0	0
2024-09-07 13:01:47			0	38450	0	0	0	28241	26820	152724	27092	1077279	47094	110488	0	0	8152	527343	0	0
2024-09-07 13:02:47			0	38433	0	0	0	28262	26830	152736	27012	1077288	47083	110496	0	0	8151	527956	0	0
2024-09-07 13:03:47			0	38438	0	0	0	28257	26820	152752	27067	1077360	47083	110494	0	0	8151	527797	0	0
2024-09-07 13:04:47			0	38447	0	0	0	28259	26840	152644	27092	1077315	47074	110495	0	0	8152	527396	0	0
2024-09-07 13:05:47			0	38446	0	0	0	28254	26830	152640	26925	1077243	47062	110493	0	0	8152	527464	0	0
2024-09-07 13:06:47			0	38417	0	0	0	28264	26840	152740	27038	1077360	47074	110497	0	0	8150	528531	0	0
2024-09-07 13:07:47			0	38420	0	0	0	28262	26840	152832	26816	1077306	47084	110496	0	0	8150	528417	0	0
2024-09-07 13:08:47			0	38403	0	0	0	28244	26830	152868	27204	1077234	47095	110489	0	0	8149	529091	0	0
2024-09-07 13:09:47			0	38385	0	0	0	28277	26820	152928	26892	1077279	47072	110502	0	0	8148	529803	0	0
2024-09-07 13:10:47			0	38379	0	0	0	28301	26840	152980	26961	1077369	47084	110511	0	0	8147	529970	0	0
2024-09-07 13:11:47			0	38373	0	0	0	28303	26830	153048	26824	1077378	47106	110512	0	0	8147	530228	0	0
2024-09-07 13:12:47			0	38378	0	0	0	28332	26840	153000	27048	1077414	47119	110523	0	0	8146	530008	0	0
2024-09-07 13:13:47			0	38394	0	0	0	28324	26850	152876	26948	1077468	47109	110520	0	0	8147	529371	0	0
2024-09-07 13:14:47			0	38391	0	0	0	28342	26860	152808	26786	1077513	47109	110527	0	0	8147	529455	0	0
2024-09-07 13:15:47			0	38427	0	0	0	28322	26860	152888	27223	1077585	47098	110519	0	0	8149	528092	0	0
2024-09-07 13:16:47			0	38410	0	0	0	28324	26870	152764	26807	1077576	47110	110520	0	0	8148	528705	0	0
2024-09-07 13:17:47			0	38415	0	0	0	28335	26880	152860	26852	1077594	47100	110524	0	0	8149	528485	0	0
2024-09-07 13:18:47			0	38428	0	0	0	28340	26890	152732	27130	1077639	47112	110526	0	0	8149	527963	0	0
2024-09-07 13:19:47			0	38423	0	0	0	28327	26880	152732	27078	1077630	47100	110521	0	0	8149	528182	0	0
2024-09-07 13:20:47			0	38427	0	0	0	28335	26890	152672	26991	1077639	47090	110524	0	0	8149	528001	0	0
2024-09-07 13:21:47			0	38422	0	0	0	28337	26880	152752	26930	1077657	47111	110525	0	0	8149	528220	0	0
2024-09-07 13:22:47			0	38433	0	0	0	28345	26900	152716	27050	1077720	47103	110528	0	0	8150	527744	0	0
2024-09-07 13:23:47			0	38462	0	0	0	28363	26910	152624	27176	1077765	47126	110535	0	0	8151	526618	0	0
2024-09-07 13:24:47			0	38431	0	0	0	28366	26910	152536	27104	1077783	47103	110536	0	0	8149	527789	0	0
2024-09-07 13:25:47			0	38437	0	0	0	28366	26920	152680	27060	1077810	47116	110536	0	0	8150	527532	0	0
2024-09-07 13:26:47			0	38438	0	0	0	28368	26920	152660	27057	1077855	47115	110537	0	0	8150	527494	0	0
2024-09-07 13:27:47			0	38462	0	0	0	28363	26930	152580	27301	1077873	47105	110535	0	0	8151	526557	0	0
2024-09-07 13:28:47			0	38447	0	0	0	28361	26930	152576	26946	1077909	47117	110534	0	0	8150	527124	0	0
2024-09-07 13:29:47			0	38451	0	0	0	28366	26940	152484	27192	1077918	47107	110536	0	0	8150	526942	0	0
2024-09-07 13:30:47			0	38456	0	0	0	28368	26940	152548	27287	1077945	47096	110537	0	0	8151	526754	0	0
2024-09-07 13:31:47			0	38457	0	0	0	28384	26950	152532	27111	1077900	47096	110543	0	0	8151	526686	0	0
2024-09-07 13:32:47			0	38470	0	0	0	28381	26950	152500	27119	1077927	47107	110542	0	0	8151	526195	0	0
2024-09-07 13:33:47			0	38438	0	0	0	28394	26940	152552	27284	1077918	47107	110547	0	0	8149	527434	0	0
2024-09-07 13:34:47			0	38445	0	0	0	28392	26950	152604	27332	1077990	47085	110546	0	0	8150	527139	0	0
2024-09-07 13:35:47			0	38442	0	0	0	28386	26960	152556	26968	1078053	47097	110544	0	0	8150	527222	0	0
2024-09-07 13:36:47			0	38431	0	0	0	28392	26960	152556	27161	1077981	47098	110546	0	0	8149	527638	0	0
2024-09-07 13:37:47			0	38452	0	0	0	28392	26970	152536	27310	1078044	47109	110546	0	0	8150	526814	0	0
2024-09-07 13:38:47			0	38439	0	0	0	28384	26970	152592	27196	1078000	47099	110543	0	0	8150	527305	0	0
2024-09-07 13:39:47			0	38436	0	0	0	28371	26970	152516	26918	1078000	47110	110538	0	0	8150	527419	0	0
2024-09-07 13:40:47			0	38434	0	0	0	28399	26960	152552	27053	1078035	47109	110549	0	0	8149	527524	0	0
2024-09-07 13:41:47			0	38428	0	0	0	28410	26970	152612	27119	1078080	47110	110553	0	0	8149	527721	0	0
2024-09-07 13:42:47			0	38444	0	0	0	28405	26970	152576	27281	1078053	47099	110551	0	0	8150	527116	0	0
2024-09-07 13:43:47			0	38415	0	0	0	28410	26980	152572	26993	1078062	47099	110553	0	0	8148	528182	0	0
2024-09-07 13:44:47			0	38428	0	0	0	28394	26970	152584	26861	1078134	47099	110547	0	0	8149	527721	0	0
2024-09-07 13:45:47			0	38435	0	0	0	28394	26990	152520	27274	1078108	47111	110547	0	0	8149	527396	0	0
2024-09-07 13:46:47			0	38433	0	0	0	28384	26980	152604	27329	1078098	47100	110543	0	0	8149	527502	0	0
2024-09-07 13:47:47			0	38417	0	0	0	28371	26980	152540	27216	1078072	47100	110538	0	0	8149	528107	0	0
2024-09-07 13:48:47			0	38425	0	0	0	28371	26980	152716	27161	1078098	47078	110538	0	0	8149	527804	0	0
2024-09-07 13:49:47			0	38408	0	0	0	28374	27000	152612	27317	1078072	47101	110539	0	0	8148	528386	0	0
2024-09-07 13:50:47			0	38388	0	0	0	28394	26980	152700	27007	1078045	47100	110547	0	0	8147	529204	0	0
2024-09-07 13:51:47			0	38395	0	0	0	28389	26990	152800	27140	1078143	47101	110545	0	0	8147	528909	0	0
2024-09-07 13:52:47			0	38401	0	0	0	28381	26980	152708	27355	1078098	47111	110542	0	0	8147	528712	0	0
2024-09-07 13:53:47			0	38388	0	0	0	28376	27000	152760	26892	1078099	47089	110540	0	0	8147	529143	0	0
2024-09-07 13:54:47			0	38393	0	0	0	28381	26990	152628	27294	1078090	47101	110542	0	0	8147	528984	0	0
2024-09-07 13:55:47			0	38415	0	0	0	28381	26980	152704	27249	1078072	47100	110542	0	0	8148	528182	0	0
2024-09-07 13:56:47			0	38427	0	0	0	28384	26990	152652	27434	1078170	47112	110543	0	0	8149	527698	0	0
2024-09-07 13:57:47			0	38410	0	0	0	28389	27000	152664	27412	1078135	47113	110545	0	0	8148	528311	0	0
2024-09-07 13:58:47			0	38403	0	0	0	28384	27000	152708	27166	1078153	47112	110543	0	0	8148	528576	0	0
2024-09-07 13:59:47			0	38393	0	0	0	28381	27000	152656	27360	1078153	47089	110542	0	0	8147	528954	0	0
2024-09-07 14:00:47			0	38379	0	0	0	28392	26990	152816	27074	1078090	47089	110546	0	0	8146	529515	0	0
2024-09-07 14:01:47			0	38384	0	0	0	28412	27000	152788	27305	1078099	47101	110554	0	0	8146	529295	0	0
2024-09-07 14:02:47			0	38368	0	0	0	28418	27000	152692	27038	1078072	47101	110556	0	0	8145	529901	0	0
2024-09-07 14:03:47			0	38379	0	0	0	28410	27000	152756	27069	1078162	47102	110553	0	0	8146	529484	0	0
2024-09-07 14:04:47			0	38368	0	0	0	28405	26990	152792	26847	1078117	47101	110551	0	0	8145	529931	0	0
2024-09-07 14:05:47			0	38371	0	0	0	28407	27000	152812	26899	1078072	47101	110552	0	0	8145	529787	0	0
2024-09-07 14:06:47			0	38392	0	0	0	28423	26990	152704	27289	1078161	47100	110558	0	0	8146	529022	0	0
2024-09-07 14:07:47			0	38391	0	0	0	28423	27000	152696	27131	1078108	47102	110558	0	0	8146	529030	0	0
2024-09-07 14:08:47			0	38385	0	0	0	28423	27000	152576	27317	1078135	47113	110558	0	0	8146	529257	0	0
2024-09-07 14:09:47			0	38398	0	0	0	28407	27010	152596	26889	1078180	47114	110552	0	0	8147	528735	0	0
2024-09-07 14:10:47			0	38385	0	0	0	28415	27000	152732	27029	1078206	47123	110555	0	0	8146	529257	0	0
2024-09-07 14:11:47			0	38394	0	0	0	28415	27010	152656	26996	1078207	47103	110555	0	0	8147	528886	0	0
2024-09-07 14:12:47			0	38384	0	0	0	28415	27010	152652	27095	1078278	47102	110555	0	0	8146	529265	0	0
2024-09-07 14:13:47			0	38383	0	0	0	28407	27000	152724	27242	1078215	47113	110552	0	0	8146	529333	0	0
2024-09-07 14:14:47			0	38372	0	0	0	28420	27010	152664	27057	1078224	47090	110557	0	0	8145	529719	0	0
2024-09-07 14:15:47			0	38377	0	0	0	28425	27010	152704	27350	1078288	47103	110559	0	0	8146	529530	0	0
2024-09-07 14:16:47			0	38357	0	0	0	28425	27010	152780	27097	1078207	47103	110559	0	0	8144	530288	0	0
2024-09-07 14:17:47			0	38361	0	0	0	28436	27020	152744	27189	1078297	47115	110563	0	0	8144	530106	0	0
2024-09-07 14:18:47			0	38350	0	0	0	28433	27030	152908	27327	1078315	47115	110562	0	0	8144	530492	0	0
2024-09-07 14:19:47			0	38345	0	0	0	28441	27020	152816	27055	1078270	47104	110565	0	0	8143	530712	0	0
2024-09-07 14:20:47			0	38363	0	0	0	28454	27020	152756	27350	1078386	47104	110570	0	0	8144	530030	0	0
2024-09-07 14:21:47			0	38353	0	0	0	28464	27020	152764	27246	1078360	47104	110574	0	0	8144	530409	0	0
2024-09-07 14:22:47			0	38338	0	0	0	28490	27030	152772	27124	1078378	47105	110584	0	0	8142	530947	0	0
2024-09-07 14:23:47			0	38349	0	0	0	28498	27040	152692	27131	1078494	47128	110587	0	0	8143	530500	0	0
2024-09-07 14:24:47			0	38348	0	0	0	28498	27040	152860	27098	1078531	47128	110587	0	0	8143	530538	0	0
2024-09-07 14:25:47			0	38361	0	0	0	28483	27050	152820	27383	1078567	47118	110581	0	0	8144	530014	0	0
2024-09-07 14:26:47			0	38351	0	0	0	28483	27060	152736	27251	1078585	47130	110581	0	0	8143	530363	0	0
2024-09-07 14:27:47			0	38370	0	0	0	28498	27060	152720	27390	1078648	47130	110587	0	0	8144	529643	0	0
2024-09-07 14:28:47			0	38381	0	0	0	28509	27070	152752	27497	1078711	47120	110591	0	0	8145	529196	0	0
2024-09-07 14:29:47			0	38363	0	0	0	28524	27080	152736	27384	1078657	47122	110597	0	0	8143	529847	0	0
2024-09-07 14:30:47			0	38355	0	0	0	28527	27080	152832	27315	1078792	47133	110598	0	0	8143	530151	0	0
2024-09-07 14:31:47			0	38355	0	0	0	28537	27090	152748	27111	1078810	47133	110602	0	0	8143	530120	0	0
2024-09-07 14:32:47			0	38364	0	0	0	28519	27100	152692	27116	1078819	47145	110595	0	0	8144	529749	0	0
2024-09-07 14:33:47			0	38351	0	0	0	28532	27110	152676	26987	1078783	47124	110600	0	0	8143	530211	0	0
2024-09-07 14:34:47			0	38371	0	0	0	28540	27110	152636	27154	1078864	47113	110603	0	0	8144	529453	0	0
2024-09-07 14:35:47			0	38348	0	0	0	28550	27120	152704	27218	1078855	47125	110607	0	0	8142	530294	0	0
2024-09-07 14:36:47			0	38373	0	0	0	28571	27100	152688	26935	1078855	47124	110615	0	0	8143	529408	0	0
2024-09-07 14:37:47			0	38383	0	0	0	28589	27120	152696	27357	1078945	47125	110622	0	0	8144	528968	0	0
2024-09-07 14:38:47			0	38382	0	0	0	28589	27130	152520	27284	1079008	47137	110622	0	0	8144	528976	0	0
2024-09-07 14:39:47			0	38388	0	0	0	28605	27130	152624	27057	1079035	47137	110628	0	0	8144	528749	0	0
2024-09-07 14:40:47			0	38425	0	0	0	28625	27140	152400	27144	1079053	47126	110636	0	0	8145	527320	0	0
2024-09-07 14:41:47			0	38449	0	0	0	28599	27150	152208	27268	1079125	47140	110626	0	0	8147	526383	0	0
2024-09-07 14:42:47			0	38489	0	0	0	28584	27150	152316	27026	1079107	47140	110620	0	0	8150	524876	0	0
2024-09-07 14:43:47			0	38492	0	0	0	28592	27160	152108	27398	1079089	47128	110623	0	0	8150	524733	0	0
2024-09-07 14:44:47			0	38495	0	0	0	28589	27170	152236	27403	1079188	47120	110622	0	0	8150	524590	0	0
2024-09-07 14:45:47			0	38509	0	0	0	28524	27170	152112	27215	1079215	47120	110597	0	0	8152	524063	0	0
2024-09-07 14:46:47			0	38520	0	0	0	28516	27160	151948	27131	1079072	47119	110594	0	0	8153	523679	0	0
2024-09-07 14:47:47			0	38516	0	0	0	28529	27150	151916	27279	1078999	47095	110599	0	0	8152	523859	0	0
2024-09-07 14:48:47			0	38510	0	0	0	28548	27160	152020	27166	1079072	47096	110606	0	0	8152	524055	0	0
2024-09-07 14:49:47			0	38505	0	0	0	28571	27160	152076	27055	1079035	47128	110615	0	0	8151	524243	0	0
2024-09-07 14:50:47			0	38509	0	0	0	28566	27160	152076	27462	1079062	47118	110613	0	0	8151	524093	0	0
2024-09-07 14:51:47			0	38495	0	0	0	28605	27160	152096	27569	1079089	47107	110628	0	0	8150	524620	0	0
2024-09-07 14:52:47			0	38494	0	0	0	28628	27170	152124	27450	1079144	47120	110637	0	0	8150	524627	0	0
2024-09-07 14:53:47			0	38494	0	0	0	28651	27180	152072	26923	1079180	47142	110646	0	0	8149	524597	0	0
2024-09-07 14:54:47			0	38495	0	0	0	28670	27190	152108	27144	1079332	47122	110653	0	0	8149	524529	0	0
2024-09-07 14:55:47			0	38502	0	0	0	28675	27190	152004	27462	1079395	47155	110655	0	0	8149	524266	0	0
2024-09-07 14:56:47			0	38522	0	0	0	28688	27200	152000	27549	1079404	47155	110660	0	0	8150	523483	0	0
2024-09-07 14:57:47			0	38530	0	0	0	28651	27210	152056	27144	1079458	47147	110646	0	0	8151	523153	0	0
2024-09-07 14:58:47			0	38527	0	0	0	28633	27230	151944	27412	1079486	47137	110639	0	0	8152	523205	0	0
2024-09-07 14:59:47			0	38556	0	0	0	28610	27230	151824	27005	1079396	47125	110630	0	0	8154	522116	0	0
2024-09-07 15:00:47			0	38571	0	0	0	28602	27230	151716	27147	1079396	47114	110627	0	0	8155	521553	0	0
2024-09-07 15:01:47			0	38572	0	0	0	28636	27230	151708	26911	1079405	47115	110640	0	0	8154	521516	0	0
2024-09-07 15:02:47			0	38557	0	0	0	28638	27230	151716	26939	1079405	47115	110641	0	0	8153	522079	0	0
2024-09-07 15:03:47			0	38566	0	0	0	28623	27230	151796	27064	1079378	47125	110635	0	0	8154	521741	0	0
2024-09-07 15:04:47			0	38570	0	0	0	28586	27230	151772	26928	1079423	47114	110621	0	0	8155	521591	0	0
2024-09-07 15:05:47			0	38557	0	0	0	28594	27230	151736	27317	1079324	47125	110624	0	0	8154	522079	0	0
2024-09-07 15:06:47			0	38566	0	0	0	28620	27220	151836	26826	1079333	47135	110634	0	0	8154	521771	0	0
2024-09-07 15:07:47			0	38569	0	0	0	28620	27230	151724	26930	1079405	47137	110634	0	0	8154	521628	0	0
2024-09-07 15:08:47			0	38569	0	0	0	28644	27240	151820	27100	1079468	47116	110643	0	0	8154	521598	0	0
2024-09-07 15:09:47			0	38554	0	0	0	28664	27230	151820	26989	1079450	47135	110651	0	0	8153	522191	0	0
2024-09-07 15:10:47			0	38560	0	0	0	28693	27240	151824	26975	1079576	47138	110662	0	0	8153	521936	0	0
2024-09-07 15:11:47			0	38561	0	0	0	28688	27240	151820	27112	1079531	47138	110660	0	0	8153	521898	0	0
2024-09-07 15:12:47			0	38605	0	0	0	28685	27250	151720	26883	1079522	47138	110659	0	0	8155	520219	0	0
2024-09-07 15:13:47			0	38607	0	0	0	28690	27270	151584	27086	1079666	47129	110661	0	0	8155	520084	0	0
2024-09-07 15:14:47			0	38670	0	0	0	28696	27270	151412	26984	1079612	47129	110663	0	0	8159	517729	0	0
2024-09-07 15:15:47			0	38657	0	0	0	28690	27260	151512	26798	1079675	47139	110661	0	0	8158	518244	0	0
2024-09-07 15:16:47			0	38657	0	0	0	28722	27280	151468	27275	1079729	47130	110673	0	0	8158	518184	0	0
2024-09-07 15:17:47			0	38662	0	0	0	28711	27280	151440	27124	1079702	47142	110669	0	0	8158	517998	0	0
2024-09-07 15:18:47			0	38654	0	0	0	28719	27290	151444	27239	1079783	47143	110672	0	0	8158	518267	0	0
2024-09-07 15:19:47			0	38653	0	0	0	28722	27280	151348	27263	1079819	47131	110673	0	0	8158	518334	0	0
2024-09-07 15:20:47			0	38682	0	0	0	28709	27310	151336	27227	1079784	47145	110668	0	0	8160	517162	0	0
2024-09-07 15:21:47			0	38670	0	0	0	28706	27300	151340	27213	1079802	47123	110667	0	0	8159	517639	0	0
2024-09-07 15:22:47			0	38677	0	0	0	28722	27290	151208	26870	1079756	47121	110673	0	0	8159	517408	0	0
2024-09-07 15:23:47			0	38692	0	0	0	28719	27310	151180	27166	1079838	47133	110672	0	0	8160	516789	0	0
2024-09-07 15:24:47			0	38690	0	0	0	28714	27310	151116	27229	1079784	47145	110670	0	0	8160	516863	0	0
2024-09-07 15:25:47			0	38691	0	0	0	28722	27320	151128	26987	1079910	47146	110673	0	0	8160	516796	0	0
2024-09-07 15:26:47			0	38711	0	0	0	28716	27310	151096	27043	1079927	47123	110671	0	0	8161	516080	0	0
2024-09-07 15:27:47			0	38682	0	0	0	28716	27320	151196	27170	1079856	47134	110671	0	0	8159	517132	0	0
2024-09-07 15:28:47			0	38683	0	0	0	28729	27320	151208	27286	1079883	47134	110676	0	0	8159	517095	0	0
2024-09-07 15:29:47			0	38697	0	0	0	28740	27330	151184	27497	1079955	47125	110680	0	0	8160	516543	0	0
2024-09-07 15:30:47			0	38699	0	0	0	28742	27330	151184	27371	1079964	47147	110681	0	0	8160	516468	0	0
2024-09-07 15:31:47			0	38702	0	0	0	28729	27330	151084	27353	1079964	47135	110676	0	0	8160	516356	0	0
2024-09-07 15:32:47			0	38693	0	0	0	28735	27330	151172	27384	1079991	47135	110678	0	0	8160	516692	0	0
2024-09-07 15:33:47			0	38692	0	0	0	28727	27330	151156	26993	1079901	47135	110675	0	0	8160	516729	0	0
2024-09-07 15:34:47			0	38704	0	0	0	28735	27340	151156	27050	1080000	47148	110678	0	0	8160	516252	0	0
2024-09-07 15:35:47			0	38706	0	0	0	28729	27330	151084	26901	1079928	47125	110676	0	0	8161	516207	0	0
2024-09-07 15:36:47			0	38692	0	0	0	28729	27350	151228	27072	1080018	47138	110676	0	0	8160	516670	0	0
2024-09-07 15:37:47			0	38682	0	0	0	28729	27350	151096	27147	1079991	47138	110676	0	0	8159	517043	0	0
2024-09-07 15:38:47			0	38721	0	0	0	28711	27340	151117	27313	1080000	47136	110669	0	0	8162	515619	0	0
2024-09-07 15:39:47			0	38731	0	0	0	28690	27340	151013	26871	1079982	47137	110661	0	0	8163	515247	0	0
2024-09-07 15:40:47			0	38722	0	0	0	28735	27330	151028	27098	1079937	47135	110678	0	0	8161	515611	0	0
2024-09-07 15:41:47			0	38713	0	0	0	28724	27340	151056	27189	1079946	47148	110674	0	0	8161	515917	0	0
2024-09-07 15:42:47			0	38711	0	0	0	28729	27330	151088	27230	1079901	47135	110676	0	0	8161	516021	0	0
2024-09-07 15:43:47			0	38708	0	0	0	28745	27330	151056	27209	1079955	47147	110682	0	0	8161	516133	0	0
2024-09-07 15:44:47			0	38699	0	0	0	28781	27330	151108	27332	1079928	47147	110696	0	0	8159	516468	0	0
2024-09-07 15:45:47			0	38699	0	0	0	28761	27330	151076	27213	1079991	47158	110688	0	0	8160	516468	0	0
2024-09-07 15:46:47			0	38697	0	0	0	28766	27350	151116	27255	1080081	47138	110690	0	0	8160	516483	0	0
2024-09-07 15:47:47			0	38696	0	0	0	28781	27340	151080	27218	1080063	47137	110696	0	0	8159	516550	0	0
2024-09-07 15:48:47			0	38708	0	0	0	28779	27360	151088	27326	1080153	47139	110695	0	0	8160	516044	0	0
2024-09-07 15:49:47			0	38739	0	0	0	28802	27350	151073	27166	1080135	47150	110704	0	0	8161	514919	0	0
2024-09-07 15:50:47			0	38741	0	0	0	28799	27360	150969	27102	1080207	47162	110703	0	0	8162	514815	0	0
2024-09-07 15:51:47			0	38779	0	0	0	28823	27370	150849	27336	1080171	47152	110712	0	0	8163	513373	0	0
2024-09-07 15:52:47			0	38786	0	0	0	28823	27380	150709	27357	1080261	47152	110712	0	0	8164	513083	0	0
2024-09-07 15:53:47			0	38806	0	0	0	28810	27370	150689	27038	1080332	47140	110707	0	0	8165	512371	0	0
2024-09-07 15:54:47			0	38828	0	0	0	28820	27390	150689	27232	1080315	47154	110711	0	0	8166	511496	0	0
2024-09-07 15:55:47			0	38840	0	0	0	28799	27400	150565	26951	1080270	47165	110703	0	0	8167	511022	0	0
2024-09-07 15:56:47			0	38838	0	0	0	28825	27400	150469	26965	1080360	47143	110713	0	0	8167	511096	0	0
2024-09-07 15:57:47			0	38856	0	0	0	28823	27400	150617	27234	1080405	47142	110712	0	0	8168	510430	0	0
2024-09-07 15:58:47			0	38837	0	0	0	28805	27420	150573	27230	1080361	47145	110705	0	0	8167	511074	0	0
2024-09-07 15:59:47			0	38850	0	0	0	28786	27410	150569	27218	1080325	47144	110698	0	0	8168	510622	0	0
2024-09-07 16:00:47			0	38855	0	0	0	28774	27410	150465	27332	1080352	47144	110693	0	0	8169	510437	0	0
2024-09-07 16:01:47			0	38838	0	0	0	28789	27400	150489	27246	1080306	47132	110699	0	0	8168	511096	0	0
2024-09-07 16:02:47			0	38850	0	0	0	28802	27400	150597	27237	1080270	47131	110704	0	0	8168	510652	0	0
2024-09-07 16:03:47			0	38857	0	0	0	28799	27400	150637	27196	1080270	47142	110703	0	0	8168	510393	0	0
2024-09-07 16:04:47			0	38859	0	0	0	28820	27420	150573	27358	1080307	47145	110711	0	0	8168	510260	0	0
2024-09-07 16:05:47			0	38854	0	0	0	28833	27410	150677	26989	1080352	47144	110716	0	0	8168	510474	0	0
2024-09-07 16:06:47			0	38853	0	0	0	28823	27410	150557	27315	1080342	47156	110712	0	0	8168	510511	0	0
2024-09-07 16:07:47			0	38842	0	0	0	28825	27410	150601	27201	1080379	47144	110713	0	0	8167	510919	0	0
2024-09-07 16:08:47			0	38838	0	0	0	28823	27420	150649	27180	1080424	47134	110712	0	0	8167	511037	0	0
2024-09-07 16:09:47			0	38836	0	0	0	28815	27410	150541	27241	1080325	47144	110709	0	0	8167	511141	0	0
2024-09-07 16:10:47			0	38839	0	0	0	28823	27410	150529	27031	1080432	47156	110712	0	0	8167	511030	0	0
2024-09-07 16:11:47			0	38860	0	0	0	28794	27420	150493	27248	1080397	47145	110701	0	0	8169	510223	0	0
2024-09-07 16:12:47			0	38860	0	0	0	28789	27410	150509	27211	1080298	47133	110699	0	0	8169	510252	0	0
2024-09-07 16:13:47			0	38861	0	0	0	28779	27410	150537	27098	1080325	47133	110695	0	0	8169	510215	0	0
2024-09-07 16:14:47			0	38871	0	0	0	28766	27420	150589	27213	1080307	47145	110690	0	0	8170	509816	0	0
2024-09-07 16:15:47			0	38840	0	0	0	28750	27410	150453	27251	1080288	47133	110684	0	0	8168	510993	0	0
2024-09-07 16:16:47			0	38836	0	0	0	28776	27410	150589	27376	1080288	47156	110694	0	0	8168	511141	0	0
2024-09-07 16:17:47			0	38846	0	0	0	28729	27400	150617	27374	1080252	47143	110676	0	0	8169	510800	0	0
2024-09-07 16:18:47			0	38845	0	0	0	28732	27390	150577	27346	1080207	47121	110677	0	0	8169	510866	0	0
2024-09-07 16:19:47			0	38830	0	0	0	28758	27400	150701	27287	1080216	47121	110687	0	0	8168	511392	0	0
2024-09-07 16:20:47			0	38826	0	0	0	28771	27390	150609	27066	1080198	47131	110692	0	0	8167	511570	0	0
2024-09-07 16:21:47			0	38832	0	0	0	28781	27370	150625	27230	1080171	47129	110696	0	0	8167	511407	0	0
2024-09-07 16:22:47			0	38822	0	0	0	28792	27390	150609	27138	1080225	47154	110700	0	0	8167	511718	0	0
2024-09-07 16:23:47			0	38810	0	0	0	28761	27380	150705	26991	1080207	47129	110688	0	0	8166	512193	0	0
2024-09-07 16:24:47			0	38811	0	0	0	28748	27390	150681	27215	1080198	47142	110683	0	0	8167	512126	0	0
2024-09-07 16:25:47			0	38825	0	0	0	28735	27390	150701	27270	1080261	47142	110678	0	0	8168	511607	0	0
2024-09-07 16:26:47			0	38831	0	0	0	28745	27390	150669	27473	1080225	47142	110682	0	0	8168	511385	0	0
2024-09-07 16:27:47			0	38820	0	0	0	28722	27380	150693	27377	1080126	47129	110673	0	0	8168	511822	0	0
2024-09-07 16:28:47			0	38819	0	0	0	28701	27370	150725	27308	1080063	47129	110665	0	0	8168	511888	0	0
2024-09-07 16:29:47			0	38808	0	0	0	28719	27370	150761	26942	1080081	47140	110672	0	0	8167	512296	0	0
2024-09-07 16:30:47			0	38779	0	0	0	28740	27360	150709	27258	1080045	47128	110680	0	0	8165	513402	0	0
2024-09-07 16:31:47			0	38771	0	0	0	28797	27360	150889	27308	1080117	47138	110702	0	0	8163	513700	0	0
2024-09-07 16:32:47			0	38796	0	0	0	28802	27360	150777	27196	1080180	47151	110704	0	0	8165	512771	0	0
2024-09-07 16:33:47			0	38806	0	0	0	28771	27370	150741	27331	1080198	47163	110692	0	0	8166	512371	0	0
2024-09-07 16:34:47			0	38812	0	0	0	28781	27370	150697	27112	1080144	47152	110696	0	0	8166	512148	0	0
2024-09-07 16:35:47			0	38809	0	0	0	28812	27370	150781	26981	1080198	47152	110708	0	0	8165	512259	0	0
2024-09-07 16:36:47			0	38814	0	0	0	28833	27370	150757	27088	1080252	47152	110716	0	0	8165	512074	0	0
2024-09-07 16:37:47			0	38823	0	0	0	28841	27390	150725	26833	1080369	47131	110719	0	0	8166	511681	0	0
2024-09-07 16:38:47			0	38815	0	0	0	28820	27400	150801	26922	1080387	47155	110711	0	0	8166	511949	0	0
2024-09-07 16:39:47			0	38827	0	0	0	28823	27410	150685	26726	1080432	47156	110712	0	0	8166	511474	0	0
2024-09-07 16:40:47			0	38828	0	0	0	28831	27400	150553	26974	1080432	47142	110715	0	0	8166	511467	0	0
2024-09-07 16:41:47			0	38847	0	0	0	28828	27420	150585	27053	1080441	47145	110714	0	0	8167	510704	0	0
2024-09-07 16:42:47			0	38830	0	0	0	28823	27410	150545	26922	1080405	47156	110712	0	0	8167	511363	0	0
2024-09-07 16:43:47			0	38830	0	0	0	28825	27410	150569	26856	1080486	47156	110713	0	0	8166	511363	0	0
2024-09-07 16:44:47			0	38846	0	0	0	28823	27420	150589	27001	1080415	47134	110712	0	0	8167	510741	0	0
2024-09-07 16:45:47			0	38848	0	0	0	28831	27420	150521	27208	1080388	47145	110715	0	0	8167	510667	0	0
2024-09-07 16:46:47			0	38818	0	0	0	28823	27420	150537	27261	1080504	47157	110712	0	0	8166	511778	0	0
2024-09-07 16:47:47			0	38799	0	0	0	28823	27420	150689	27055	1080522	47145	110712	0	0	8165	512483	0	0
2024-09-07 16:48:47			0	38769	0	0	0	28823	27420	150833	27119	1080415	47145	110712	0	0	8163	513597	0	0
2024-09-07 16:49:47			0	38747	0	0	0	28833	27410	150881	26968	1080379	47144	110716	0	0	8162	514444	0	0
2024-09-07 16:50:47			0	38718	0	0	0	28833	27420	150988	27116	1080468	47134	110716	0	0	8160	515494	0	0
2024-09-07 16:51:47			0	38716	0	0	0	28841	27410	151032	26951	1080459	47144	110719	0	0	8160	515598	0	0
2024-09-07 16:52:47			0	38707	0	0	0	28838	27420	151132	27128	1080451	47145	110718	0	0	8159	515903	0	0
2024-09-07 16:53:47			0	38697	0	0	0	28836	27420	151048	27312	1080504	47145	110717	0	0	8159	516276	0	0
2024-09-07 16:54:47			0	38682	0	0	0	28836	27420	151112	27197	1080478	47145	110717	0	0	8158	516835	0	0
2024-09-07 16:55:47			0	38686	0	0	0	28844	27420	151100	27220	1080522	47145	110720	0	0	8158	516686	0	0
2024-09-07 16:56:47			0	38687	0	0	0	28844	27420	151080	27144	1080558	47157	110720	0	0	8158	516649	0	0
2024-09-07 16:57:47			0	38696	0	0	0	28846	27420	151072	27154	1080522	47167	110721	0	0	8159	516313	0	0
2024-09-07 16:58:47			0	38699	0	0	0	28844	27430	151080	27007	1080540	47146	110720	0	0	8159	516171	0	0
2024-09-07 16:59:47			0	38710	0	0	0	28805	27430	151020	27177	1080567	47158	110705	0	0	8160	515762	0	0
2024-09-07 17:00:47			0	38741	0	0	0	28828	27430	150993	27448	1080550	47159	110714	0	0	8161	514608	0	0
2024-09-07 17:01:47			0	38770	0	0	0	28828	27420	150789	26930	1080478	47145	110714	0	0	8163	513560	0	0
2024-09-07 17:02:47			0	38772	0	0	0	28851	27420	150877	26956	1080478	47157	110723	0	0	8163	513485	0	0
2024-09-07 17:03:47			0	38749	0	0	0	28862	27440	150845	27284	1080532	47159	110727	0	0	8161	514281	0	0
2024-09-07 17:04:47			0	38769	0	0	0	28862	27430	150821	27100	1080550	47169	110727	0	0	8162	513567	0	0
2024-09-07 17:05:47			0	38786	0	0	0	28875	27440	150765	27048	1080595	47159	110732	0	0	8163	512907	0	0
2024-09-07 17:06:47			0	38789	0	0	0	28872	27440	150677	27348	1080702	47169	110731	0	0	8163	512795	0	0
2024-09-07 17:07:47			0	38787	0	0	0	28870	27440	150669	27398	1080666	47147	110730	0	0	8163	512869	0	0
2024-09-07 17:08:47			0	38800	0	0	0	28870	27450	150641	27133	1080684	47137	110730	0	0	8164	512358	0	0
2024-09-07 17:09:47			0	38809	0	0	0	28870	27460	150649	27275	1080649	47161	110730	0	0	8165	511994	0	0
2024-09-07 17:10:47			0	38796	0	0	0	28859	27450	150625	27374	1080693	47149	110726	0	0	8164	512506	0	0
2024-09-07 17:11:47			0	38799	0	0	0	28859	27450	150689	26946	1080684	47148	110726	0	0	8164	512395	0	0
2024-09-07 17:12:47			0	38796	0	0	0	28867	27450	150689	27211	1080720	47149	110729	0	0	8164	512506	0	0
2024-09-07 17:13:47			0	38805	0	0	0	28857	27460	150609	27357	1080739	47161	110725	0	0	8165	512143	0	0
2024-09-07 17:14:47			0	38829	0	0	0	28846	27460	150565	27331	1080676	47149	110721	0	0	8166	511253	0	0
2024-09-07 17:15:47			0	38810	0	0	0	28857	27450	150705	27133	1080613	47149	110725	0	0	8165	511987	0	0
2024-09-07 17:16:47			0	38820	0	0	0	28846	27460	150649	27171	1080649	47138	110721	0	0	8166	511587	0	0
2024-09-07 17:17:47			0	38791	0	0	0	28859	27450	150681	26928	1080667	47149	110726	0	0	8164	512691	0	0
2024-09-07 17:18:47			0	38787	0	0	0	28859	27450	150789	26956	1080631	47160	110726	0	0	8164	512840	0	0
2024-09-07 17:19:47			0	38776	0	0	0	28849	27460	150749	27017	1080685	47161	110722	0	0	8163	513219	0	0
2024-09-07 17:20:47			0	38786	0	0	0	28859	27440	150877	27258	1080621	47159	110726	0	0	8164	512907	0	0
2024-09-07 17:21:47			0	38773	0	0	0	28872	27460	150725	27204	1080676	47149	110731	0	0	8163	513330	0	0
2024-09-07 17:22:47			0	38786	0	0	0	28880	27460	150725	27256	1080703	47138	110734	0	0	8163	512848	0	0
2024-09-07 17:23:47			0	38785	0	0	0	28872	27450	150801	27159	1080667	47161	110731	0	0	8163	512914	0	0
2024-09-07 17:24:47			0	38789	0	0	0	28883	27460	150729	27164	1080676	47161	110735	0	0	8163	512736	0	0
2024-09-07 17:25:47			0	38780	0	0	0	28864	27460	150717	27235	1080676	47149	110728	0	0	8163	513070	0	0
2024-09-07 17:26:47			0	38811	0	0	0	28862	27460	150677	27388	1080739	47149	110727	0	0	8165	511920	0	0
2024-09-07 17:27:47			0	38788	0	0	0	28864	27460	150665	27237	1080792	47161	110728	0	0	8164	512773	0	0
2024-09-07 17:28:47			0	38767	0	0	0	28872	27460	150705	27208	1080712	47171	110731	0	0	8162	513553	0	0
2024-09-07 17:29:47			0	38776	0	0	0	28880	27460	150801	27196	1080730	47138	110734	0	0	8163	513219	0	0
2024-09-07 17:30:47			0	38805	0	0	0	28880	27470	150601	27403	1080748	47162	110734	0	0	8164	512113	0	0
2024-09-07 17:31:47			0	38775	0	0	0	28890	27460	150717	27144	1080739	47161	110738	0	0	8162	513256	0	0
2024-09-07 17:32:47			0	38783	0	0	0	28890	27470	150645	27490	1080721	47172	110738	0	0	8163	512929	0	0
2024-09-07 17:33:47			0	38809	0	0	0	28898	27470	150553	27020	1080757	47163	110741	0	0	8164	511965	0	0
2024-09-07 17:34:47			0	38805	0	0	0	28888	27470	150465	26941	1080721	47162	110737	0	0	8164	512113	0	0
2024-09-07 17:35:47			0	38827	0	0	0	28888	27470	150517	26906	1080757	47140	110737	0	0	8166	511298	0	0
2024-09-07 17:36:47			0	38831	0	0	0	28896	27470	150529	27017	1080784	47173	110740	0	0	8166	511150	0	0
2024-09-07 17:37:47			0	38834	0	0	0	28896	27480	150517	27258	1080802	47164	110740	0	0	8166	511009	0	0
2024-09-07 17:38:47			0	38832	0	0	0	28906	27480	150453	27268	1080766	47163	110744	0	0	8166	511083	0	0
2024-09-07 17:39:47			0	38879	0	0	0	28890	27480	150377	27249	1080874	47152	110738	0	0	8169	509344	0	0
2024-09-07 17:40:47			0	38856	0	0	0	28893	27480	150333	27119	1080856	47164	110739	0	0	8167	510195	0	0
2024-09-07 17:41:47			0	38878	0	0	0	28880	27480	150257	27105	1080766	47140	110734	0	0	8169	509381	0	0
2024-09-07 17:42:47			0	38875	0	0	0	28820	27480	150433	26981	1080721	47141	110711	0	0	8169	509492	0	0
2024-09-07 17:43:47			0	38830	0	0	0	28838	27470	150465	27116	1080730	47129	110718	0	0	8167	511187	0	0
2024-09-07 17:44:47			0	38833	0	0	0	28851	27470	150573	27282	1080694	47150	110723	0	0	8166	511076	0	0
2024-09-07 17:45:47			0	38831	0	0	0	28854	27470	150613	27118	1080721	47162	110724	0	0	8166	511150	0	0
2024-09-07 17:46:47			0	38812	0	0	0	28854	27460	150561	27327	1080685	47138	110724	0	0	8165	511883	0	0
2024-09-07 17:47:47			0	38802	0	0	0	28854	27460	150561	27248	1080685	47161	110724	0	0	8165	512254	0	0
2024-09-07 17:48:47			0	38810	0	0	0	28854	27460	150601	26961	1080676	47149	110724	0	0	8165	511957	0	0
2024-09-07 17:49:47			0	38804	0	0	0	28851	27460	150601	27012	1080703	47149	110723	0	0	8165	512180	0	0
2024-09-07 17:50:47			0	38796	0	0	0	28849	27460	150585	27251	1080649	47149	110722	0	0	8164	512476	0	0
2024-09-07 17:51:47			0	38778	0	0	0	28836	27460	150689	26958	1080604	47161	110717	0	0	8164	513144	0	0
2024-09-07 17:52:47			0	38774	0	0	0	28846	27450	150745	27183	1080586	47149	110721	0	0	8163	513323	0	0
2024-09-07 17:53:47			0	38762	0	0	0	28849	27460	150825	27074	1080649	47149	110722	0	0	8162	513739	0	0
2024-09-07 17:54:47			0	38751	0	0	0	28854	27450	150761	27000	1080613	47149	110724	0	0	8162	514177	0	0
2024-09-07 17:55:47			0	38778	0	0	0	28802	27450	150689	27164	1080532	47161	110704	0	0	8164	513174	0	0
2024-09-07 17:56:47			0	38770	0	0	0	28792	27440	150721	27197	1080532	47136	110700	0	0	8164	513501	0	0
2024-09-07 17:57:47			0	38755	0	0	0	28799	27440	150769	26916	1080514	47136	110703	0	0	8163	514058	0	0
2024-09-07 17:58:47			0	38761	0	0	0	28810	27430	150793	26833	1080469	47147	110707	0	0	8163	513864	0	0
2024-09-07 17:59:47			0	38742	0	0	0	28831	27430	150793	27133	1080469	47147	110715	0	0	8161	514571	0	0
2024-09-07 18:00:47			0	38739	0	0	0	28864	27430	150941	27201	1080540	47158	110728	0	0	8161	514682	0	0
2024-09-07 18:01:47			0	38767	0	0	0	28862	27430	150793	27114	1080576	47159	110727	0	0	8162	513642	0	0
2024-09-07 18:02:47			0	38795	0	0	0	28768	27440	150645	27367	1080532	47159	110691	0	0	8166	512573	0	0
2024-09-07 18:03:47			0	38812	0	0	0	28750	27440	150497	27232	1080559	47147	110684	0	0	8167	511942	0	0
2024-09-07 18:04:47			0	38833	0	0	0	28763	27430	150397	27107	1080379	47135	110689	0	0	8168	511193	0	0
2024-09-07 18:05:47			0	38826	0	0	0	28763	27430	150565	27410	1080352	47135	110689	0	0	8167	511453	0	0
2024-09-07 18:06:47			0	38821	0	0	0	28735	27410	150681	27008	1080315	47133	110678	0	0	8168	511697	0	0
2024-09-07 18:07:47			0	38828	0	0	0	28825	27410	150625	27166	1080288	47144	110713	0	0	8166	511437	0	0
2024-09-07 18:08:47			0	38803	0	0	0	28836	27410	150617	27211	1080396	47156	110717	0	0	8165	512364	0	0
2024-09-07 18:09:47			0	38825	0	0	0	28851	27410	150645	27516	1080423	47166	110723	0	0	8166	511548	0	0
2024-09-07 18:10:47			0	38835	0	0	0	28872	27420	150653	27248	1080495	47179	110731	0	0	8166	511148	0	0
2024-09-07 18:11:47			0	38911	0	0	0	28820	27410	150505	27396	1080486	47166	110711	0	0	8171	508367	0	0
2024-09-07 18:12:47			0	38907	0	0	0	28807	27420	150309	27488	1080531	47157	110706	0	0	8171	508486	0	0
2024-09-07 18:13:47			0	38944	0	0	0	28781	27430	150309	27176	1080567	47146	110696	0	0	8174	507091	0	0
2024-09-07 18:14:47			0	38927	0	0	0	28768	27440	150301	26951	1080532	47159	110691	0	0	8173	507689	0	0
2024-09-07 18:15:47			0	38915	0	0	0	28786	27430	150337	27230	1080433	47135	110698	0	0	8172	508161	0	0
2024-09-07 18:16:47			0	38911	0	0	0	28805	27420	150409	26982	1080343	47134	110705	0	0	8171	508338	0	0
2024-09-07 18:17:47			0	38874	0	0	0	28807	27410	150389	26864	1080379	47144	110706	0	0	8169	509734	0	0
2024-09-07 18:18:47			0	38904	0	0	0	28805	27410	150505	27206	1080405	47156	110705	0	0	8171	508626	0	0
2024-09-07 18:19:47			0	38908	0	0	0	28812	27420	150509	26994	1080441	47145	110708	0	0	8171	508449	0	0
2024-09-07 18:20:47			0	38875	0	0	0	28810	27410	150473	27464	1080432	47156	110707	0	0	8169	509697	0	0
2024-09-07 18:21:47			0	38881	0	0	0	28820	27410	150545	27166	1080405	47166	110711	0	0	8169	509476	0	0
2024-09-07 18:22:47			0	38851	0	0	0	28836	27410	150537	26887	1080369	47156	110717	0	0	8168	510585	0	0
2024-09-07 18:23:47			0	38885	0	0	0	28841	27410	150313	27208	1080486	47156	110719	0	0	8169	509328	0	0
2024-09-07 18:24:47			0	38910	0	0	0	28857	27420	150313	27124	1080549	47167	110725	0	0	8171	508375	0	0
2024-09-07 18:25:47			0	38944	0	0	0	28880	27430	150261	27312	1080567	47158	110734	0	0	8172	507091	0	0
2024-09-07 18:26:47			0	38939	0	0	0	28877	27430	150185	27159	1080603	47181	110733	0	0	8172	507276	0	0
2024-09-07 18:27:47			0	38970	0	0	0	28880	27430	150277	26741	1080684	47159	110734	0	0	8174	506133	0	0
2024-09-07 18:28:47			0	38958	0	0	0	28867	27440	150041	27164	1080585	47159	110729	0	0	8173	506546	0	0
2024-09-07 18:29:47			0	38972	0	0	0	28877	27440	150141	27296	1080648	47181	110733	0	0	8174	506030	0	0
2024-09-07 18:30:47			0	38967	0	0	0	28872	27440	150073	26993	1080621	47181	110731	0	0	8174	506215	0	0
2024-09-07 18:31:47			0	38964	0	0	0	28867	27440	150121	27045	1080648	47159	110729	0	0	8174	506325	0	0
2024-09-07 18:32:47			0	38968	0	0	0	28867	27450	150033	27229	1080693	47171	110729	0	0	8174	506149	0	0
2024-09-07 18:33:47			0	38996	0	0	0	28877	27450	149905	27244	1080631	47170	110733	0	0	8175	505118	0	0
2024-09-07 18:34:47			0	39005	0	0	0	28896	27450	149933	27229	1080711	47170	110740	0	0	8175	504787	0	0
2024-09-07 18:35:47			0	39030	0	0	0	28885	27450	149813	26967	1080667	47161	110736	0	0	8177	503869	0	0
2024-09-07 18:36:47			0	39033	0	0	0	28883	27450	149849	27124	1080684	47160	110735	0	0	8177	503758	0	0
2024-09-07 18:37:47			0	39025	0	0	0	28888	27450	149925	27005	1080693	47149	110737	0	0	8177	504052	0	0
2024-09-07 18:38:47			0	38992	0	0	0	28896	27450	149917	27218	1080693	47171	110740	0	0	8175	505265	0	0
2024-09-07 18:39:47			0	38992	0	0	0	28893	27470	149937	26974	1080757	47163	110739	0	0	8175	505207	0	0
2024-09-07 18:40:47			0	38997	0	0	0	28898	27460	149993	27225	1080756	47149	110741	0	0	8175	505052	0	0
2024-09-07 18:41:47			0	38989	0	0	0	28898	27470	150093	27164	1080721	47150	110741	0	0	8175	505318	0	0
2024-09-07 18:42:47			0	39004	0	0	0	28898	27460	149917	27213	1080730	47161	110741	0	0	8175	504795	0	0
2024-09-07 18:43:47			0	39001	0	0	0	28893	27460	149921	27452	1080703	47171	110739	0	0	8175	504905	0	0
2024-09-07 18:44:47			0	38996	0	0	0	28896	27470	149941	27225	1080784	47163	110740	0	0	8175	505060	0	0
2024-09-07 18:45:47			0	39011	0	0	0	28890	27470	149945	27098	1080802	47139	110738	0	0	8176	504509	0	0
2024-09-07 18:46:47			0	39011	0	0	0	28880	27460	149833	27041	1080819	47149	110734	0	0	8176	504538	0	0
2024-09-07 18:47:47			0	38997	0	0	0	28859	27460	149877	27362	1080685	47149	110726	0	0	8176	505052	0	0
2024-09-07 18:48:47			0	39006	0	0	0	28851	27470	149817	27156	1080694	47139	110723	0	0	8176	504692	0	0
2024-09-07 18:49:47			0	38968	0	0	0	28849	27450	150021	26974	1080640	47149	110722	0	0	8174	506149	0	0
2024-09-07 18:50:47			0	38962	0	0	0	28851	27460	149969	27088	1080649	47161	110723	0	0	8174	506340	0	0
2024-09-07 18:51:47			0	38948	0	0	0	28851	27450	150129	27033	1080693	47149	110723	0	0	8173	506885	0	0
2024-09-07 18:52:47			0	38951	0	0	0	28846	27450	150141	27100	1080586	47149	110721	0	0	8173	506775	0	0
2024-09-07 18:53:47			0	38956	0	0	0	28846	27450	150177	26885	1080613	47171	110721	0	0	8174	506591	0	0
2024-09-07 18:54:47			0	38941	0	0	0	28833	27450	150109	26778	1080577	47148	110716	0	0	8173	507143	0	0
2024-09-07 18:55:47			0	38943	0	0	0	28844	27440	150145	26991	1080621	47147	110720	0	0	8173	507099	0	0
2024-09-07 18:56:47			0	38948	0	0	0	28841	27450	150161	27159	1080577	47160	110719	0	0	8173	506885	0	0
2024-09-07 18:57:47			0	38946	0	0	0	28838	27440	150261	26726	1080568	47159	110718	0	0	8173	506988	0	0
2024-09-07 18:58:47			0	38926	0	0	0	28844	27440	150249	26771	1080648	47147	110720	0	0	8172	507726	0	0
2024-09-07 18:59:47			0	38952	0	0	0	28833	27430	150229	27220	1080496	47147	110716	0	0	8173	506796	0	0
2024-09-07 19:00:47			0	38927	0	0	0	28820	27440	150149	26972	1080541	47159	110711	0	0	8172	507689	0	0
2024-09-07 19:01:47			0	38946	0	0	0	28812	27430	150253	26876	1080550	47125	110708	0	0	8173	507017	0	0
2024-09-07 19:02:47			0	38932	0	0	0	28792	27440	150221	26826	1080478	47147	110700	0	0	8173	507505	0	0
2024-09-07 19:03:47			0	38926	0	0	0	28786	27430	150181	26913	1080406	47146	110698	0	0	8173	507755	0	0
2024-09-07 19:04:47			0	38893	0	0	0	28774	27410	150257	27190	1080432	47133	110693	0	0	8171	509032	0	0
2024-09-07 19:05:47			0	38873	0	0	0	28753	27410	150373	27209	1080315	47144	110685	0	0	8170	509771	0	0
2024-09-07 19:06:47			0	38868	0	0	0	28755	27400	150485	27048	1080279	47132	110686	0	0	8170	509986	0	0
2024-09-07 19:07:47			0	38870	0	0	0	28724	27400	150445	26970	1080216	47131	110674	0	0	8170	509912	0	0
2024-09-07 19:08:47			0	38822	0	0	0	28706	27390	150621	27286	1080198	47142	110667	0	0	8168	511718	0	0
2024-09-07 19:09:47			0	38774	0	0	0	28706	27380	150777	27034	1080135	47141	110667	0	0	8165	513529	0	0
2024-09-07 19:10:47			0	38750	0	0	0	28688	27360	150817	27414	1080063	47116	110660	0	0	8164	514480	0	0
2024-09-07 19:11:47			0	38720	0	0	0	28696	27360	151044	26852	1080036	47127	110663	0	0	8162	515597	0	0
2024-09-07 19:12:47			0	38697	0	0	0	28693	27350	150988	27209	1079964	47138	110662	0	0	8161	516483	0	0
2024-09-07 19:13:47			0	38694	0	0	0	28709	27330	151012	27062	1079964	47125	110668	0	0	8160	516655	0	0
2024-09-07 19:14:47			0	38683	0	0	0	28709	27330	151128	27078	1079910	47135	110668	0	0	8160	517065	0	0
2024-09-07 19:15:47			0	38657	0	0	0	28690	27330	151192	27131	1079910	47147	110661	0	0	8159	518035	0	0
2024-09-07 19:16:47			0	38639	0	0	0	28675	27330	151304	27194	1079901	47135	110655	0	0	8158	518708	0	0
2024-09-07 19:17:47			0	38630	0	0	0	28670	27310	151420	27209	1079793	47133	110653	0	0	8157	519104	0	0
2024-09-07 19:18:47			0	38617	0	0	0	28688	27300	151416	26876	1079819	47110	110660	0	0	8156	519620	0	0
2024-09-07 19:19:47			0	38596	0	0	0	28696	27300	151432	26968	1079819	47122	110663	0	0	8155	520407	0	0
2024-09-07 19:20:47			0	38602	0	0	0	28688	27300	151432	27178	1079828	47145	110660	0	0	8155	520182	0	0
2024-09-07 19:21:47			0	38601	0	0	0	28680	27290	151540	27166	1079837	47143	110657	0	0	8155	520249	0	0
2024-09-07 19:22:47			0	38573	0	0	0	28677	27300	151644	27440	1079819	47144	110656	0	0	8154	521268	0	0
2024-09-07 19:23:47			0	38569	0	0	0	28688	27300	151736	26951	1079793	47132	110660	0	0	8153	521418	0	0
2024-09-07 19:24:47			0	38572	0	0	0	28680	27300	151744	26979	1079793	47132	110657	0	0	8154	521306	0	0
2024-09-07 19:25:47			0	38577	0	0	0	28672	27280	151844	27013	1079819	47143	110654	0	0	8154	521178	0	0
2024-09-07 19:26:47			0	38557	0	0	0	28670	27290	151884	27107	1079747	47143	110653	0	0	8153	521899	0	0
2024-09-07 19:27:47			0	38546	0	0	0	28672	27280	151876	27254	1079684	47143	110654	0	0	8152	522341	0	0
2024-09-07 19:28:47			0	38552	0	0	0	28667	27280	151940	27157	1079675	47142	110652	0	0	8153	522116	0	0
2024-09-07 19:29:47			0	38534	0	0	0	28664	27280	151964	27126	1079711	47131	110651	0	0	8152	522792	0	0
2024-09-07 19:30:47			0	38521	0	0	0	28672	27270	151984	26934	1079666	47141	110654	0	0	8151	523311	0	0
2024-09-07 19:31:47			0	38498	0	0	0	28685	27280	152044	27046	1079675	47142	110659	0	0	8149	524145	0	0
2024-09-07 19:32:47			0	38515	0	0	0	28698	27270	151896	27059	1079720	47152	110664	0	0	8150	523536	0	0
2024-09-07 19:33:47			0	38518	0	0	0	28706	27280	152036	27076	1079702	47153	110667	0	0	8150	523393	0	0
2024-09-07 19:34:47			0	38518	0	0	0	28696	27270	152008	26863	1079747	47141	110663	0	0	8150	523423	0	0
2024-09-07 19:35:47			0	38525	0	0	0	28709	27280	152028	26982	1079792	47131	110668	0	0	8150	523130	0	0
2024-09-07 19:36:47			0	38499	0	0	0	28711	27280	152052	27338	1079765	47143	110669	0	0	8149	524108	0	0
2024-09-07 19:37:47			0	38504	0	0	0	28716	27280	152100	27121	1079756	47153	110671	0	0	8149	523920	0	0
2024-09-07 19:38:47			0	38511	0	0	0	28740	27290	151932	27076	1079882	47143	110680	0	0	8149	523626	0	0
2024-09-07 19:39:47			0	38522	0	0	0	28761	27290	152028	27039	1079864	47165	110688	0	0	8149	523213	0	0
2024-09-07 19:40:47			0	38534	0	0	0	28750	27300	151992	27175	1079981	47155	110684	0	0	8150	522732	0	0
2024-09-07 19:41:47			0	38524	0	0	0	28768	27300	152008	27255	1079909	47178	110691	0	0	8149	523108	0	0
2024-09-07 19:42:47			0	38534	0	0	0	28761	27310	151916	27076	1079972	47156	110688	0	0	8150	522702	0	0
2024-09-07 19:43:47			0	38523	0	0	0	28766	27310	152012	27130	1079999	47166	110690	0	0	8149	523115	0	0
2024-09-07 19:44:47			0	38537	0	0	0	28771	27310	152056	27357	1079981	47166	110692	0	0	8150	522589	0	0
2024-09-07 19:45:47			0	38539	0	0	0	28755	27330	152004	27306	1080089	47158	110686	0	0	8151	522454	0	0
2024-09-07 19:46:47			0	38561	0	0	0	28771	27330	151820	26935	1080089	47158	110692	0	0	8152	521629	0	0
2024-09-07 19:47:47			0	38553	0	0	0	28758	27330	151700	27131	1080035	47147	110687	0	0	8151	521929	0	0
2024-09-07 19:48:47			0	38568	0	0	0	28766	27330	151696	27144	1080062	47147	110690	0	0	8152	521366	0	0
2024-09-07 19:49:47			0	38583	0	0	0	28742	27320	151608	26972	1080017	47146	110681	0	0	8153	520834	0	0
2024-09-07 19:50:47			0	38578	0	0	0	28711	27330	151668	27090	1079955	47135	110669	0	0	8154	520991	0	0
2024-09-07 19:51:47			0	38582	0	0	0	28719	27310	151648	26970	1079900	47145	110672	0	0	8154	520901	0	0
2024-09-07 19:52:47			0	38574	0	0	0	28727	27310	151632	27078	1079918	47156	110675	0	0	8153	521201	0	0
2024-09-07 19:53:47			0	38580	0	0	0	28724	27310	151728	26767	1079918	47145	110674	0	0	8153	520976	0	0
2024-09-07 19:54:47			0	38578	0	0	0	28716	27310	151732	26866	1079891	47145	110671	0	0	8153	521051	0	0
2024-09-07 19:55:47			0	38561	0	0	0	28727	27310	151672	26955	1079838	47145	110675	0	0	8152	521689	0	0
2024-09-07 19:56:47			0	38562	0	0	0	28706	27300	151748	27026	1079855	47145	110667	0	0	8153	521681	0	0
2024-09-07 19:57:47			0	38546	0	0	0	28690	27300	151736	26965	1079846	47155	110661	0	0	8152	522281	0	0
2024-09-07 19:58:47			0	38553	0	0	0	28698	27290	151832	26798	1079801	47143	110664	0	0	8152	522049	0	0
2024-09-07 19:59:47			0	38542	0	0	0	28703	27300	151844	27076	1079793	47144	110666	0	0	8152	522432	0	0
2024-09-07 20:00:47			0	38538	0	0	0	28667	27290	151780	27012	1079756	47154	110652	0	0	8152	522612	0	0
2024-09-07 20:01:47			0	38523	0	0	0	28657	27300	151788	26693	1079739	47144	110648	0	0	8151	523145	0	0
2024-09-07 20:02:47			0	38520	0	0	0	28664	27280	151952	26946	1079657	47121	110651	0	0	8151	523318	0	0
2024-09-07 20:03:47			0	38519	0	0	0	28651	27270	151888	26719	1079639	47129	110646	0	0	8151	523386	0	0
2024-09-07 20:04:47			0	38514	0	0	0	28670	27280	151908	26918	1079675	47142	110653	0	0	8150	523544	0	0
2024-09-07 20:05:47			0	38512	0	0	0	28675	27270	151924	27218	1079693	47119	110655	0	0	8150	523649	0	0
2024-09-07 20:06:47			0	38508	0	0	0	28667	27270	151876	27041	1079657	47139	110652	0	0	8150	523799	0	0
2024-09-07 20:07:47			0	38523	0	0	0	28644	27260	151852	27114	1079675	47128	110643	0	0	8151	523265	0	0
2024-09-07 20:08:47			0	38531	0	0	0	28628	27260	151884	27426	1079612	47139	110637	0	0	8152	522965	0	0
2024-09-07 20:09:47			0	38499	0	0	0	28615	27250	151936	27072	1079522	47138	110632	0	0	8150	524198	0	0
2024-09-07 20:10:47			0	38511	0	0	0	28620	27260	151896	27178	1079540	47139	110634	0	0	8151	523716	0	0
2024-09-07 20:11:47			0	38510	0	0	0	28594	27250	151980	27029	1079486	47138	110624	0	0	8151	523784	0	0
2024-09-07 20:12:47			0	38496	0	0	0	28586	27240	151968	27012	1079468	47116	110621	0	0	8151	524341	0	0
2024-09-07 20:13:47			0	38499	0	0	0	28548	27230	151940	27234	1079396	47125	110606	0	0	8151	524258	0	0
2024-09-07 20:14:47			0	38494	0	0	0	28542	27220	151992	27027	1079360	47125	110604	0	0	8151	524477	0	0
2024-09-07 20:15:47			0	38482	0	0	0	28555	27200	152084	27060	1079252	47133	110609	0	0	8150	524989	0	0
2024-09-07 20:16:47			0	38445	0	0	0	28568	27200	152056	27173	1079216	47111	110614	0	0	8148	526383	0	0
2024-09-07 20:17:47			0	38468	0	0	0	28568	27190	152136	27102	1079198	47132	110614	0	0	8149	525546	0	0
2024-09-07 20:18:47			0	38434	0	0	0	28599	27180	152244	27090	1079189	47121	110626	0	0	8147	526859	0	0
2024-09-07 20:19:47			0	38437	0	0	0	28605	27180	152172	26785	1079233	47142	110628	0	0	8147	526746	0	0
2024-09-07 20:20:47			0	38438	0	0	0	28646	27200	152184	26748	1079324	47144	110644	0	0	8146	526648	0	0
2024-09-07 20:21:47			0	38437	0	0	0	28680	27190	152320	26778	1079368	47132	110657	0	0	8145	526715	0	0
2024-09-07 20:22:47			0	38429	0	0	0	28688	27200	152272	27029	1079377	47144	110660	0	0	8145	526987	0	0
2024-09-07 20:23:47			0	38426	0	0	0	28683	27210	152348	26953	1079449	47146	110658	0	0	8145	527070	0	0
2024-09-07 20:24:47			0	38430	0	0	0	28701	27210	152264	26975	1079449	47168	110665	0	0	8145	526919	0	0
2024-09-07 20:25:47			0	38439	0	0	0	28690	27210	152296	27289	1079539	47158	110661	0	0	8145	526580	0	0
2024-09-07 20:26:47			0	38435	0	0	0	28696	27230	152232	27287	1079530	47158	110663	0	0	8145	526670	0	0
2024-09-07 20:27:47			0	38432	0	0	0	28696	27230	152316	27017	1079620	47148	110663	0	0	8145	526783	0	0
2024-09-07 20:28:47			0	38410	0	0	0	28696	27230	152292	27086	1079620	47159	110663	0	0	8144	527614	0	0
2024-09-07 20:29:47			0	38419	0	0	0	28659	27240	152268	27358	1079611	47160	110649	0	0	8145	527244	0	0
2024-09-07 20:30:47			0	38412	0	0	0	28659	27240	152332	27071	1079656	47160	110649	0	0	8145	527508	0	0
2024-09-07 20:31:47			0	38408	0	0	0	28659	27240	152264	27138	1079629	47160	110649	0	0	8144	527659	0	0
2024-09-07 20:32:47			0	38403	0	0	0	28646	27250	152304	27000	1079594	47160	110644	0	0	8144	527818	0	0
2024-09-07 20:33:47			0	38399	0	0	0	28646	27250	152352	27400	1079594	47149	110644	0	0	8144	527969	0	0
2024-09-07 20:34:47			0	38397	0	0	0	28644	27250	152292	27256	1079594	47138	110643	0	0	8144	528045	0	0
2024-09-07 20:35:47			0	38398	0	0	0	28638	27240	152372	26991	1079576	47138	110641	0	0	8144	528037	0	0
2024-09-07 20:36:47			0	38377	0	0	0	28612	27250	152492	27074	1079513	47126	110631	0	0	8143	528801	0	0
2024-09-07 20:37:47			0	38408	0	0	0	28566	27240	152380	26968	1079477	47138	110613	0	0	8146	527659	0	0
2024-09-07 20:38:47			0	38395	0	0	0	28576	27230	152360	27145	1079405	47125	110617	0	0	8145	528181	0	0
2024-09-07 20:39:47			0	38386	0	0	0	28586	27220	152324	26887	1079441	47125	110621	0	0	8144	528551	0	0
2024-09-07 20:40:47			0	38401	0	0	0	28571	27220	152388	26807	1079360	47125	110615	0	0	8145	527984	0	0
2024-09-07 20:41:47			0	38374	0	0	0	28566	27200	152428	27135	1079243	47122	110613	0	0	8144	529066	0	0
2024-09-07 20:42:47			0	38395	0	0	0	28558	27200	152352	27045	1079243	47122	110610	0	0	8145	528272	0	0
2024-09-07 20:43:47			0	38407	0	0	0	28545	27190	152440	26908	1079288	47122	110605	0	0	8146	527848	0	0
2024-09-07 20:44:47			0	38403	0	0	0	28558	27190	152392	26866	1079207	47122	110610	0	0	8146	528000	0	0
2024-09-07 20:45:47			0	38382	0	0	0	28529	27190	152392	27164	1079225	47122	110599	0	0	8145	528794	0	0
2024-09-07 20:46:47			0	38407	0	0	0	28550	27170	152404	26987	1079144	47142	110607	0	0	8146	527909	0	0
2024-09-07 20:47:47			0	38376	0	0	0	28535	27160	152524	27147	1079170	47095	110601	0	0	8144	529112	0	0
2024-09-07 20:48:47			0	38373	0	0	0	28540	27160	152432	27081	1079072	47119	110603	0	0	8144	529225	0	0
2024-09-07 20:49:47			0	38374	0	0	0	28535	27160	152484	27253	1079116	47128	110601	0	0	8144	529188	0	0
2024-09-07 20:50:47			0	38367	0	0	0	28524	27160	152540	27163	1079072	47119	110597	0	0	8144	529453	0	0
2024-09-07 20:51:47			0	38367	0	0	0	28527	27150	152652	27284	1078990	47128	110598	0	0	8144	529483	0	0
2024-09-07 20:52:47			0	38344	0	0	0	28514	27150	152668	27201	1079044	47118	110593	0	0	8143	530354	0	0
2024-09-07 20:53:47			0	38348	0	0	0	28522	27140	152696	27038	1079035	47150	110596	0	0	8143	530233	0	0
2024-09-07 20:54:47			0	38334	0	0	0	28545	27140	152772	26968	1079026	47138	110605	0	0	8142	530764	0	0
2024-09-07 20:55:47			0	38341	0	0	0	28563	27140	152764	27159	1079080	47126	110612	0	0	8142	530499	0	0
2024-09-07 20:56:47			0	38319	0	0	0	28555	27130	152716	26861	1078954	47137	110609	0	0	8141	531364	0	0
2024-09-07 20:57:47			0	38336	0	0	0	28553	27140	152724	27031	1079062	47139	110608	0	0	8142	530688	0	0
2024-09-07 20:58:47			0	38329	0	0	0	28550	27140	152712	27138	1078999	47116	110607	0	0	8141	530954	0	0
2024-09-07 20:59:47			0	38336	0	0	0	28537	27130	152696	27013	1079008	47148	110602	0	0	8142	530719	0	0
2024-09-07 21:00:47			0	38342	0	0	0	28548	27130	152644	26802	1079044	47126	110606	0	0	8142	530491	0	0
2024-09-07 21:01:47			0	38318	0	0	0	28540	27130	152720	26916	1078981	47137	110603	0	0	8141	531402	0	0
2024-09-07 21:02:47			0	38352	0	0	0	28545	27130	152720	26927	1078954	47125	110605	0	0	8143	530112	0	0
2024-09-07 21:03:47			0	38315	0	0	0	28573	27130	152824	27111	1079008	47125	110616	0	0	8140	531515	0	0
2024-09-07 21:04:47			0	38308	0	0	0	28568	27130	152808	27196	1079035	47115	110614	0	0	8140	531781	0	0
2024-09-07 21:05:47			0	38311	0	0	0	28579	27130	152852	27123	1079062	47137	110618	0	0	8140	531667	0	0
2024-09-07 21:06:47			0	38298	0	0	0	28623	27140	152816	27123	1079080	47149	110635	0	0	8138	532130	0	0
2024-09-07 21:07:47			0	38291	0	0	0	28633	27140	152772	27170	1079161	47149	110639	0	0	8138	532396	0	0
2024-09-07 21:08:47			0	38309	0	0	0	28633	27150	152816	27255	1079206	47140	110639	0	0	8139	531682	0	0
2024-09-07 21:09:47			0	38306	0	0	0	28607	27160	152840	27258	1079224	47162	110629	0	0	8139	531766	0	0
2024-09-07 21:10:47			0	38326	0	0	0	28581	27160	152776	27209	1079224	47140	110619	0	0	8141	531007	0	0
2024-09-07 21:11:47			0	38314	0	0	0	28566	27160	152804	26909	1079251	47151	110613	0	0	8140	531462	0	0
2024-09-07 21:12:47			0	38314	0	0	0	28618	27150	152732	26809	1079179	47128	110633	0	0	8139	531492	0	0
2024-09-07 21:13:47			0	38306	0	0	0	28615	27150	152808	27121	1079215	47140	110632	0	0	8139	531796	0	0
2024-09-07 21:14:47			0	38312	0	0	0	28607	27160	152880	26837	1079179	47152	110629	0	0	8139	531538	0	0
2024-09-07 21:15:47			0	38309	0	0	0	28589	27170	152852	26946	1079269	47142	110622	0	0	8140	531621	0	0
2024-09-07 21:16:47			0	38322	0	0	0	28589	27160	152840	27170	1079179	47152	110622	0	0	8140	531158	0	0
2024-09-07 21:17:47			0	38289	0	0	0	28633	27160	152864	27145	1079260	47152	110639	0	0	8138	532411	0	0
2024-09-07 21:18:47			0	38278	0	0	0	28607	27170	152928	26908	1079269	47153	110629	0	0	8137	532799	0	0
2024-09-07 21:19:47			0	38228	0	0	0	28592	27160	153100	27124	1079251	47162	110623	0	0	8135	534732	0	0
2024-09-07 21:20:47			0	38221	0	0	0	28589	27170	153084	26823	1079278	47142	110622	0	0	8135	534968	0	0
2024-09-07 21:21:47			0	38249	0	0	0	28581	27170	153016	27039	1079242	47142	110619	0	0	8136	533902	0	0
2024-09-07 21:22:47			0	38244	0	0	0	28589	27170	153064	27241	1079278	47153	110622	0	0	8136	534092	0	0
2024-09-07 21:23:47			0	38241	0	0	0	28581	27170	152916	27145	1079198	47130	110619	0	0	8136	534206	0	0
2024-09-07 21:24:47			0	38239	0	0	0	28568	27170	153012	27003	1079198	47130	110614	0	0	8136	534282	0	0
2024-09-07 21:25:47			0	38255	0	0	0	28561	27170	153096	27019	1079215	47130	110611	0	0	8137	533673	0	0
2024-09-07 21:26:47			0	38231	0	0	0	28566	27170	153076	26661	1079188	47130	110613	0	0	8135	534587	0	0
2024-09-07 21:27:47			0	38230	0	0	0	28566	27160	153124	27072	1079170	47128	110613	0	0	8135	534656	0	0
2024-09-07 21:28:47			0	38225	0	0	0	28555	27160	153084	26923	1079099	47129	110609	0	0	8135	534846	0	0
2024-09-07 21:29:47			0	38239	0	0	0	28553	27160	153112	26717	1079126	47119	110608	0	0	8136	534313	0	0
2024-09-07 21:30:47			0	38230	0	0	0	28553	27160	153100	26932	1079152	47129	110608	0	0	8136	534656	0	0
2024-09-07 21:31:47			0	38222	0	0	0	28548	27150	153132	27258	1079107	47140	110606	0	0	8135	534991	0	0
2024-09-07 21:32:47			0	38239	0	0	0	28553	27150	153032	27100	1079053	47140	110608	0	0	8136	534344	0	0
2024-09-07 21:33:47			0	38233	0	0	0	28542	27150	153020	26876	1079071	47128	110604	0	0	8136	534572	0	0
2024-09-07 21:34:47			0	38250	0	0	0	28545	27150	153008	26996	1079125	47128	110605	0	0	8137	533925	0	0
2024-09-07 21:35:47			0	38232	0	0	0	28542	27150	153048	27213	1079071	47128	110604	0	0	8136	534610	0	0
2024-09-07 21:36:47			0	38235	0	0	0	28545	27140	153176	27306	1079080	47126	110605	0	0	8136	534527	0	0
2024-09-07 21:37:47			0	38231	0	0	0	28548	27150	153008	26883	1079098	47151	110606	0	0	8136	534649	0	0
2024-09-07 21:38:47			0	38210	0	0	0	28537	27140	153060	27041	1079062	47117	110602	0	0	8135	535480	0	0
2024-09-07 21:39:47			0	38223	0	0	0	28535	27130	153056	27130	1079044	47138	110601	0	0	8135	535015	0	0
2024-09-07 21:40:47			0	38219	0	0	0	28545	27150	153096	27069	1079071	47140	110605	0	0	8135	535106	0	0
2024-09-07 21:41:47			0	38239	0	0	0	28548	27140	153084	27102	1079107	47126	110606	0	0	8136	534375	0	0
2024-09-07 21:42:47			0	38221	0	0	0	28550	27140	153112	27060	1079080	47126	110607	0	0	8135	535060	0	0
2024-09-07 21:43:47			0	38234	0	0	0	28553	27130	153088	27069	1079071	47126	110608	0	0	8136	534596	0	0
2024-09-07 21:44:47			0	38230	0	0	0	28545	27140	153036	27166	1078981	47139	110605	0	0	8136	534717	0	0
2024-09-07 21:45:47			0	38231	0	0	0	28550	27140	153092	26828	1079026	47126	110607	0	0	8136	534679	0	0
2024-09-07 21:46:47			0	38242	0	0	0	28550	27140	153044	27180	1079035	47127	110607	0	0	8136	534260	0	0
2024-09-07 21:47:47			0	38234	0	0	0	28548	27140	152992	26894	1079053	47126	110606	0	0	8136	534565	0	0
2024-09-07 21:48:47			0	38248	0	0	0	28537	27130	153064	27147	1078981	47125	110602	0	0	8137	534062	0	0
2024-09-07 21:49:47			0	38217	0	0	0	28496	27130	153036	27235	1079035	47125	110586	0	0	8136	535243	0	0
2024-09-07 21:50:47			0	38209	0	0	0	28472	27130	153064	27041	1078990	47126	110577	0	0	8136	535548	0	0
2024-09-07 21:51:47			0	38197	0	0	0	28475	27120	153116	26873	1078918	47137	110578	0	0	8135	536037	0	0
2024-09-07 21:52:47			0	38177	0	0	0	28470	27120	153332	27081	1078855	47114	110576	0	0	8134	536801	0	0
2024-09-07 21:53:47			0	38134	0	0	0	28477	27110	153524	26816	1078900	47124	110579	0	0	8131	538475	0	0
2024-09-07 21:54:47			0	38092	0	0	0	28475	27100	153780	27135	1078819	47112	110578	0	0	8129	540115	0	0
2024-09-07 21:55:47			0	38036	0	0	0	28470	27100	153896	27422	1078765	47123	110576	0	0	8126	542265	0	0
2024-09-07 21:56:47			0	38001	0	0	0	28477	27090	154031	27232	1078774	47122	110579	0	0	8123	543642	0	0
2024-09-07 21:57:47			0	37942	0	0	0	28485	27100	154227	27034	1078792	47123	110582	0	0	8120	545886	0	0
2024-09-07 21:58:47			0	37913	0	0	0	28477	27100	154331	27102	1078738	47145	110579	0	0	8118	547006	0	0
2024-09-07 21:59:47			0	37896	0	0	0	28464	27090	154403	27313	1078729	47133	110574	0	0	8118	547695	0	0
2024-09-07 22:00:47			0	37886	0	0	0	28467	27090	154539	27133	1078801	47122	110575	0	0	8117	548081	0	0
2024-09-07 22:01:47			0	37851	0	0	0	28472	27090	154683	27083	1078747	47122	110577	0	0	8115	549437	0	0
2024-09-07 22:02:47			0	37834	0	0	0	28459	27090	154747	26987	1078720	47122	110572	0	0	8114	550096	0	0
2024-09-07 22:03:47			0	37822	0	0	0	28467	27080	154735	27081	1078765	47144	110575	0	0	8113	550593	0	0
2024-09-07 22:04:47			0	37822	0	0	0	28467	27080	154723	27093	1078783	47110	110575	0	0	8113	550593	0	0
2024-09-07 22:05:47			0	37800	0	0	0	28470	27080	154771	27386	1078648	47132	110576	0	0	8112	551448	0	0
2024-09-07 22:06:47			0	37810	0	0	0	28472	27070	154767	27137	1078684	47131	110577	0	0	8112	551091	0	0
2024-09-07 22:07:47			0	37794	0	0	0	28464	27080	154783	27187	1078702	47132	110574	0	0	8112	551681	0	0
2024-09-07 22:08:47			0	37804	0	0	0	28457	27070	154811	26982	1078630	47109	110571	0	0	8112	551324	0	0
2024-09-07 22:09:47			0	37797	0	0	0	28454	27070	154855	27251	1078630	47131	110570	0	0	8112	551596	0	0
2024-09-07 22:10:47			0	37792	0	0	0	28449	27060	154847	26994	1078648	47119	110568	0	0	8112	551822	0	0
2024-09-07 22:11:47			0	37808	0	0	0	28451	27060	154799	26977	1078648	47119	110569	0	0	8113	551200	0	0
2024-09-07 22:12:47			0	37820	0	0	0	28457	27060	154847	27055	1078567	47130	110571	0	0	8113	550734	0	0
2024-09-07 22:13:47			0	37805	0	0	0	28457	27060	154751	27053	1078567	47119	110571	0	0	8112	551317	0	0
2024-09-07 22:14:47			0	37820	0	0	0	28441	27060	154867	26840	1078594	47119	110565	0	0	8113	550734	0	0
2024-09-07 22:15:47			0	37812	0	0	0	28441	27060	154803	26982	1078639	47119	110565	0	0	8113	551045	0	0
2024-09-07 22:16:47			0	37811	0	0	0	28454	27060	154791	26719	1078639	47119	110570	0	0	8113	551084	0	0
2024-09-07 22:17:47			0	37827	0	0	0	28433	27050	154751	26698	1078567	47118	110562	0	0	8114	550494	0	0
2024-09-07 22:18:47			0	37825	0	0	0	28436	27050	154739	27027	1078603	47129	110563	0	0	8114	550572	0	0
2024-09-07 22:19:47			0	37813	0	0	0	28438	27050	154787	27027	1078576	47118	110564	0	0	8113	551038	0	0
2024-09-07 22:20:47			0	37834	0	0	0	28438	27040	154779	27095	1078558	47117	110564	0	0	8114	550254	0	0
2024-09-07 22:21:47			0	37821	0	0	0	28436	27050	154739	26892	1078486	47118	110563	0	0	8113	550727	0	0
2024-09-07 22:22:47			0	37805	0	0	0	28425	27040	154743	26682	1078585	47128	110559	0	0	8113	551380	0	0
2024-09-07 22:23:47			0	37839	0	0	0	28441	27040	154751	26942	1078494	47117	110565	0	0	8114	550060	0	0
2024-09-07 22:24:47			0	37852	0	0	0	28444	27040	154727	27204	1078531	47117	110566	0	0	8115	549556	0	0
2024-09-07 22:25:47			0	37836	0	0	0	28438	27040	154679	26875	1078494	47128	110564	0	0	8114	550177	0	0
2024-09-07 22:26:47			0	37849	0	0	0	28438	27030	154671	26708	1078539	47116	110564	0	0	8115	549704	0	0
2024-09-07 22:27:47			0	37850	0	0	0	28438	27040	154715	27001	1078548	47128	110564	0	0	8115	549634	0	0
2024-09-07 22:28:47			0	37844	0	0	0	28433	27040	154695	27405	1078531	47128	110562	0	0	8115	549866	0	0
2024-09-07 22:29:47			0	37858	0	0	0	28420	27030	154603	26961	1078566	47105	110557	0	0	8116	549355	0	0
2024-09-07 22:30:47			0	37867	0	0	0	28415	27040	154595	27135	1078494	47139	110555	0	0	8116	548975	0	0
2024-09-07 22:31:47			0	37842	0	0	0	28418	27030	154735	27170	1078512	47127	110556	0	0	8115	549975	0	0
2024-09-07 22:32:47			0	37867	0	0	0	28420	27040	154687	26925	1078423	47117	110557	0	0	8116	548975	0	0
2024-09-07 22:33:47			0	37875	0	0	0	28420	27040	154643	27135	1078441	47117	110557	0	0	8117	548665	0	0
2024-09-07 22:34:47			0	37877	0	0	0	28412	27030	154563	27034	1078485	47116	110554	0	0	8117	548619	0	0
2024-09-07 22:35:47			0	37873	0	0	0	28415	27020	154647	27279	1078386	47115	110555	0	0	8117	548805	0	0
2024-09-07 22:36:47			0	37885	0	0	0	28412	27020	154627	27180	1078377	47115	110554	0	0	8117	548340	0	0
2024-09-07 22:37:47			0	37893	0	0	0	28399	27020	154659	27067	1078440	47104	110549	0	0	8118	548031	0	0
2024-09-07 22:38:47			0	37902	0	0	0	28405	27000	154627	27118	1078431	47124	110551	0	0	8118	547745	0	0
2024-09-07 22:39:47			0	37911	0	0	0	28392	27020	154599	26899	1078404	47115	110546	0	0	8119	547334	0	0
2024-09-07 22:40:47			0	37919	0	0	0	28405	27020	154559	26961	1078360	47115	110551	0	0	8120	547025	0	0
2024-09-07 22:41:47			0	37928	0	0	0	28397	27020	154531	27123	1078377	47115	110548	0	0	8120	546677	0	0
2024-09-07 22:42:47			0	37926	0	0	0	28394	27010	154491	26925	1078288	47114	110547	0	0	8120	546786	0	0
2024-09-07 22:43:47			0	37900	0	0	0	28397	27010	154383	27227	1078359	47135	110548	0	0	8119	547791	0	0
2024-09-07 22:44:47			0	37938	0	0	0	28392	27020	154423	27208	1078297	47126	110546	0	0	8121	546291	0	0
2024-09-07 22:45:47			0	37953	0	0	0	28392	27000	154327	27036	1078269	47135	110546	0	0	8122	545774	0	0
2024-09-07 22:46:47			0	37937	0	0	0	28379	27000	154331	27095	1078314	47112	110541	0	0	8121	546392	0	0
2024-09-07 22:47:47			0	37953	0	0	0	28392	27000	154403	27071	1078269	47124	110546	0	0	8122	545774	0	0
2024-09-07 22:48:47			0	37945	0	0	0	28397	27000	154335	27272	1078314	47112	110548	0	0	8121	546083	0	0
2024-09-07 22:49:47			0	37951	0	0	0	28392	26990	154379	27469	1078278	47134	110546	0	0	8121	545883	0	0
2024-09-07 22:50:47			0	37957	0	0	0	28381	27000	154403	27052	1078260	47123	110542	0	0	8122	545620	0	0
2024-09-07 22:51:47			0	37946	0	0	0	28379	27000	154403	26908	1078260	47123	110541	0	0	8121	546045	0	0
2024-09-07 22:52:47			0	37960	0	0	0	28376	26980	154335	27182	1078278	47121	110540	0	0	8122	545567	0	0
2024-09-07 22:53:47			0	37971	0	0	0	28366	26990	154311	27180	1078224	47112	110536	0	0	8123	545111	0	0
2024-09-07 22:54:47			0	37941	0	0	0	28363	27000	154231	27121	1078206	47134	110535	0	0	8121	546238	0	0
2024-09-07 22:55:47			0	37974	0	0	0	28371	26980	154279	27163	1078125	47123	110538	0	0	8123	545026	0	0
2024-09-07 22:56:47			0	37968	0	0	0	28386	26980	154343	26812	1078179	47123	110544	0	0	8122	545258	0	0
2024-09-07 22:57:47			0	37958	0	0	0	28386	26970	154443	27079	1078161	47121	110544	0	0	8122	545675	0	0
2024-09-07 22:58:47			0	37949	0	0	0	28376	26970	154347	26946	1078107	47132	110540	0	0	8122	546023	0	0
2024-09-07 22:59:47			0	37973	0	0	0	28366	26980	154275	26963	1078206	47111	110536	0	0	8123	545065	0	0
2024-09-07 23:00:47			0	37972	0	0	0	28371	26970	154347	26967	1078134	47143	110538	0	0	8123	545135	0	0
2024-09-07 23:01:47			0	37975	0	0	0	28374	26970	154351	27074	1078134	47110	110539	0	0	8123	545019	0	0
2024-09-07 23:02:47			0	37980	0	0	0	28376	26980	154259	26854	1078170	47132	110540	0	0	8123	544795	0	0
2024-09-07 23:03:47			0	37986	0	0	0	28379	26980	154315	26920	1078143	47121	110541	0	0	8124	544564	0	0
2024-09-07 23:04:47			0	37977	0	0	0	28371	26970	154347	27043	1078179	47109	110538	0	0	8123	544942	0	0
2024-09-07 23:05:47			0	37987	0	0	0	28368	26970	154311	27022	1078206	47120	110537	0	0	8124	544556	0	0
2024-09-07 23:06:47			0	37968	0	0	0	28366	26960	154259	27015	1078053	47119	110536	0	0	8123	545320	0	0
2024-09-07 23:07:47			0	37952	0	0	0	28363	26970	154311	26883	1078125	47120	110535	0	0	8122	545907	0	0
2024-09-07 23:08:47			0	37982	0	0	0	28358	26970	154351	27069	1078125	47109	110533	0	0	8124	544749	0	0
2024-09-07 23:09:47			0	37993	0	0	0	28361	26970	154359	27038	1078152	47109	110534	0	0	8124	544325	0	0
2024-09-07 23:10:47			0	37982	0	0	0	28355	26970	154243	27067	1078125	47131	110532	0	0	8124	544749	0	0
2024-09-07 23:11:47			0	37998	0	0	0	28366	26970	154291	27039	1078134	47132	110536	0	0	8125	544132	0	0
2024-09-07 23:12:47			0	37996	0	0	0	28361	26960	154235	26982	1078161	47119	110534	0	0	8124	544241	0	0
2024-09-07 23:13:47			0	37996	0	0	0	28376	26960	154167	26731	1078143	47131	110540	0	0	8124	544241	0	0
2024-09-07 23:14:47			0	38006	0	0	0	28366	26970	154207	26701	1078152	47109	110536	0	0	8125	543824	0	0
2024-09-07 23:15:47			0	38025	0	0	0	28371	26960	154147	26960	1078197	47120	110538	0	0	8126	543124	0	0
2024-09-07 23:16:47			0	38046	0	0	0	28366	26960	154092	27183	1078170	47109	110536	0	0	8127	542316	0	0
2024-09-07 23:17:47			0	38054	0	0	0	28361	26970	153992	26930	1078071	47131	110534	0	0	8128	541977	0	0
2024-09-07 23:18:47			0	38068	0	0	0	28371	26960	153896	27209	1078170	47109	110538	0	0	8128	541470	0	0
2024-09-07 23:19:47			0	38070	0	0	0	28368	26970	153876	27039	1078179	47120	110537	0	0	8129	541363	0	0
2024-09-07 23:20:47			0	38064	0	0	0	28355	26960	153916	26934	1078080	47108	110532	0	0	8128	541624	0	0
2024-09-07 23:21:47			0	38069	0	0	0	28361	26960	153976	27291	1078143	47120	110534	0	0	8129	541432	0	0
2024-09-07 23:22:47			0	38048	0	0	0	28361	26960	154064	26993	1078107	47119	110534	0	0	8127	542239	0	0
2024-09-07 23:23:47			0	38037	0	0	0	28358	26960	154040	27137	1078143	47142	110533	0	0	8127	542662	0	0
2024-09-07 23:24:47			0	38067	0	0	0	28366	26960	154176	27007	1078107	47130	110536	0	0	8128	541509	0	0
2024-09-07 23:25:47			0	38045	0	0	0	28363	26970	154072	26812	1078125	47120	110535	0	0	8127	542323	0	0
2024-09-07 23:26:47			0	38026	0	0	0	28350	26950	154147	26788	1078071	47119	110530	0	0	8126	543116	0	0
2024-09-07 23:27:47			0	38026	0	0	0	28348	26950	154095	27154	1078071	47108	110529	0	0	8126	543116	0	0
2024-09-07 23:28:47			0	38014	0	0	0	28348	26950	154143	27126	1078116	47118	110529	0	0	8126	543578	0	0
2024-09-07 23:29:47			0	38010	0	0	0	28350	26950	154135	26687	1078071	47119	110530	0	0	8125	543733	0	0
2024-09-07 23:30:47			0	38015	0	0	0	28353	26940	154087	26942	1078026	47129	110531	0	0	8126	543571	0	0
2024-09-07 23:31:47			0	37989	0	0	0	28355	26950	154163	27043	1078044	47119	110532	0	0	8124	544542	0	0
2024-09-07 23:32:47			0	37991	0	0	0	28363	26960	154283	27069	1078107	47108	110535	0	0	8124	544433	0	0
2024-09-07 23:33:47			0	38003	0	0	0	28358	26950	154331	27192	1078125	47119	110533	0	0	8125	544002	0	0
2024-09-07 23:34:47			0	38006	0	0	0	28348	26950	154179	27005	1078116	47118	110529	0	0	8125	543887	0	0
2024-09-07 23:35:47			0	38021	0	0	0	28340	26950	154160	26932	1078125	47119	110526	0	0	8126	543309	0	0
2024-09-07 23:36:47			0	38046	0	0	0	28337	26950	154104	26968	1078035	47118	110525	0	0	8128	542347	0	0
2024-09-07 23:37:47			0	38061	0	0	0	28337	26940	154044	26824	1078080	47129	110525	0	0	8129	541801	0	0
2024-09-07 23:38:47			0	38050	0	0	0	28335	26950	154020	26852	1078044	47108	110524	0	0	8128	542193	0	0
2024-09-07 23:39:47			0	38066	0	0	0	28327	26940	154024	26993	1077972	47118	110521	0	0	8129	541609	0	0
2024-09-07 23:40:47			0	38063	0	0	0	28335	26950	154012	26981	1077981	47129	110524	0	0	8129	541694	0	0
2024-09-07 23:41:47			0	38044	0	0	0	28324	26930	154036	27055	1077936	47106	110520	0	0	8128	542486	0	0
2024-09-07 23:42:47			0	38041	0	0	0	28324	26930	154084	26864	1077936	47117	110520	0	0	8128	542602	0	0
2024-09-07 23:43:47			0	38035	0	0	0	28319	26940	154120	26720	1077972	47118	110518	0	0	8127	542801	0	0
2024-09-07 23:44:47			0	38032	0	0	0	28316	26940	154176	26857	1077972	47107	110517	0	0	8127	542917	0	0
2024-09-07 23:45:47			0	38027	0	0	0	28322	26930	154171	27039	1077954	47116	110519	0	0	8127	543140	0	0
2024-09-07 23:46:47			0	38012	0	0	0	28322	26920	154151	26698	1077945	47105	110519	0	0	8126	543749	0	0
2024-09-07 23:47:47			0	37994	0	0	0	28319	26930	154195	27196	1077963	47106	110518	0	0	8125	544411	0	0
2024-09-07 23:48:47			0	37988	0	0	0	28311	26920	154255	27275	1077918	47105	110515	0	0	8125	544674	0	0
2024-09-07 23:49:47			0	37986	0	0	0	28309	26920	154319	27166	1077972	47116	110514	0	0	8125	544751	0	0
2024-09-07 23:50:47			0	38003	0	0	0	28314	26910	154327	26963	1077900	47115	110516	0	0	8125	544127	0	0
2024-09-07 23:51:47			0	37984	0	0	0	28309	26920	154315	26974	1077882	47115	110514	0	0	8124	544828	0	0
2024-09-07 23:52:47			0	37985	0	0	0	28301	26920	154391	26937	1077936	47104	110511	0	0	8125	544790	0	0
2024-09-07 23:53:47			0	37971	0	0	0	28293	26910	154419	27083	1077900	47104	110508	0	0	8124	545361	0	0
2024-09-07 23:54:47			0	37952	0	0	0	28290	26910	154423	26934	1077900	47104	110507	0	0	8123	546095	0	0
2024-09-07 23:55:47			0	37965	0	0	0	28285	26900	154423	26887	1077828	47114	110505	0	0	8124	545624	0	0
2024-09-07 23:56:47			0	37965	0	0	0	28283	26910	154415	27263	1077846	47104	110504	0	0	8124	545593	0	0
2024-09-07 23:57:47			0	37941	0	0	0	28283	26910	154443	27017	1077837	47103	110504	0	0	8122	546519	0	0
2024-09-07 23:58:47			0	37944	0	0	0	28285	26910	154431	27185	1077837	47125	110505	0	0	8122	546404	0	0
2024-09-07 23:59:47			0	37937	0	0	0	28267	26890	154487	26771	1077809	47113	110498	0	0	8122	546737	0	0
2024-09-08 00:00:47			0	37931	0	0	0	28267	26890	154563	27166	1077729	47102	110498	0	0	8122	546969	0	0
2024-09-08 00:01:47			0	37933	0	0	0	28280	26890	154611	27170	1077747	47124	110503	0	0	8122	546891	0	0
2024-09-08 00:02:47			0	37951	0	0	0	28264	26880	154575	26816	1077728	47089	110497	0	0	8123	546227	0	0
2024-09-08 00:03:47			0	37927	0	0	0	28257	26890	154503	27194	1077693	47101	110494	0	0	8122	547123	0	0
2024-09-08 00:04:47			0	37930	0	0	0	28267	26880	154679	27081	1077684	47123	110498	0	0	8122	547039	0	0
2024-09-08 00:05:47			0	37914	0	0	0	28257	26880	154523	27027	1077648	47100	110494	0	0	8121	547658	0	0
2024-09-08 00:06:47			0	37926	0	0	0	28267	26870	154687	27258	1077630	47122	110498	0	0	8122	547225	0	0
2024-09-08 00:07:47			0	37925	0	0	0	28259	26870	154455	27086	1077612	47111	110495	0	0	8122	547264	0	0
2024-09-08 00:08:47			0	37934	0	0	0	28262	26860	154559	26951	1077638	47121	110496	0	0	8122	546947	0	0
2024-09-08 00:09:47			0	37936	0	0	0	28246	26870	154507	27078	1077630	47110	110490	0	0	8123	546838	0	0
2024-09-08 00:10:47			0	37975	0	0	0	28251	26870	154447	27043	1077692	47111	110492	0	0	8125	545332	0	0
2024-09-08 00:11:47			0	37990	0	0	0	28257	26860	154443	26828	1077611	47121	110494	0	0	8125	544784	0	0
2024-09-08 00:12:47			0	37987	0	0	0	28257	26850	154459	26897	1077593	47108	110494	0	0	8125	544931	0	0
2024-09-08 00:13:47			0	37990	0	0	0	28251	26850	154415	26986	1077575	47109	110492	0	0	8125	544815	0	0
2024-09-08 00:14:47			0	37990	0	0	0	28254	26860	154351	27303	1077558	47098	110493	0	0	8125	544784	0	0
2024-09-08 00:15:47			0	38017	0	0	0	28246	26860	154315	27144	1077647	47109	110490	0	0	8127	543743	0	0
2024-09-08 00:16:47			0	38031	0	0	0	28254	26860	154279	27118	1077567	47109	110493	0	0	8128	543204	0	0
2024-09-08 00:17:47			0	38041	0	0	0	28257	26850	154292	27026	1077513	47130	110494	0	0	8128	542850	0	0
2024-09-08 00:18:47			0	38036	0	0	0	28249	26850	154292	27284	1077593	47108	110491	0	0	8128	543043	0	0
2024-09-08 00:19:47			0	38051	0	0	0	28251	26850	154168	27222	1077575	47109	110492	0	0	8129	542466	0	0
2024-09-08 00:20:47			0	38050	0	0	0	28251	26850	154232	27069	1077540	47108	110492	0	0	8129	542504	0	0
2024-09-08 00:21:47			0	38053	0	0	0	28257	26840	154176	27081	1077504	47107	110494	0	0	8129	542420	0	0
2024-09-08 00:22:47			0	38047	0	0	0	28244	26850	154136	27209	1077575	47098	110489	0	0	8129	542620	0	0
2024-09-08 00:23:47			0	38077	0	0	0	28244	26850	154244	26816	1077602	47109	110489	0	0	8131	541466	0	0
2024-09-08 00:24:47			0	38057	0	0	0	28246	26850	154236	27263	1077513	47108	110490	0	0	8129	542235	0	0
2024-09-08 00:25:47			0	38050	0	0	0	28241	26840	154120	27459	1077521	47119	110488	0	0	8129	542535	0	0
2024-09-08 00:26:47			0	38059	0	0	0	28236	26840	154056	27223	1077584	47107	110486	0	0	8130	542189	0	0
2024-09-08 00:27:47			0	38086	0	0	0	28225	26840	154136	27012	1077557	47119	110482	0	0	8131	541151	0	0
2024-09-08 00:28:47			0	38090	0	0	0	28233	26840	154028	27187	1077530	47107	110485	0	0	8131	540998	0	0
2024-09-08 00:29:47			0	38077	0	0	0	28233	26840	154188	26876	1077495	47119	110485	0	0	8131	541497	0	0
2024-09-08 00:30:47			0	38076	0	0	0	28251	26840	154056	26868	1077414	47119	110492	0	0	8130	541536	0	0
2024-09-08 00:31:47			0	38084	0	0	0	28246	26830	154040	27178	1077503	47106	110490	0	0	8131	541259	0	0
2024-09-08 00:32:47			0	38088	0	0	0	28251	26830	154060	26956	1077512	47083	110492	0	0	8131	541105	0	0
2024-09-08 00:33:47			0	38102	0	0	0	28244	26830	154036	26680	1077512	47106	110489	0	0	8132	540568	0	0
2024-09-08 00:34:47			0	38080	0	0	0	28236	26840	153952	27010	1077530	47119	110486	0	0	8131	541382	0	0
2024-09-08 00:35:47			0	38094	0	0	0	28236	26840	153988	26934	1077521	47107	110486	0	0	8132	540844	0	0
2024-09-08 00:36:47			0	38092	0	0	0	28236	26830	153912	27111	1077405	47106	110486	0	0	8131	540952	0	0
2024-09-08 00:37:47			0	38087	0	0	0	28233	26830	153948	27178	1077503	47095	110485	0	0	8131	541144	0	0
2024-09-08 00:38:47			0	38105	0	0	0	28228	26830	154020	26908	1077459	47106	110483	0	0	8132	540453	0	0
2024-09-08 00:39:47			0	38089	0	0	0	28218	26830	153976	26864	1077396	47106	110479	0	0	8132	541067	0	0
2024-09-08 00:40:47			0	38074	0	0	0	28218	26830	153968	26717	1077450	47095	110479	0	0	8131	541643	0	0
2024-09-08 00:41:47			0	38086	0	0	0	28225	26820	154088	26675	1077494	47094	110482	0	0	8131	541213	0	0
2024-09-08 00:42:47			0	38072	0	0	0	28223	26830	153968	26844	1077396	47106	110481	0	0	8131	541720	0	0
2024-09-08 00:43:47			0	38084	0	0	0	28223	26820	154080	26942	1077414	47105	110481	0	0	8131	541290	0	0
2024-09-08 00:44:47			0	38040	0	0	0	28223	26820	154260	27123	1077440	47094	110481	0	0	8129	542982	0	0
2024-09-08 00:45:47			0	38048	0	0	0	28215	26830	154184	27027	1077450	47106	110478	0	0	8129	542643	0	0
2024-09-08 00:46:47			0	38006	0	0	0	28207	26810	154315	27305	1077422	47116	110475	0	0	8127	544323	0	0
2024-09-08 00:47:47			0	38006	0	0	0	28212	26820	154467	26892	1077351	47104	110477	0	0	8127	544292	0	0
2024-09-08 00:48:47			0	37961	0	0	0	28212	26810	154435	26774	1077395	47104	110477	0	0	8124	546060	0	0
2024-09-08 00:49:47			0	37944	0	0	0	28210	26810	154519	26790	1077395	47104	110476	0	0	8123	546717	0	0
2024-09-08 00:50:47			0	37934	0	0	0	28207	26810	154591	27013	1077359	47104	110475	0	0	8123	547104	0	0
2024-09-08 00:51:47			0	37928	0	0	0	28202	26810	154583	27026	1077369	47104	110473	0	0	8123	547336	0	0
2024-09-08 00:52:47			0	37940	0	0	0	28205	26810	154555	27211	1077386	47093	110474	0	0	8123	546872	0	0
2024-09-08 00:53:47			0	37938	0	0	0	28194	26810	154555	26939	1077333	47104	110470	0	0	8123	546949	0	0
2024-09-08 00:54:47			0	37941	0	0	0	28192	26810	154647	27000	1077395	47104	110469	0	0	8123	546833	0	0
2024-09-08 00:55:47			0	37940	0	0	0	28202	26800	154591	27131	1077404	47103	110473	0	0	8123	546903	0	0
2024-09-08 00:56:47			0	37926	0	0	0	28197	26810	154671	26986	1077386	47093	110471	0	0	8122	547413	0	0
2024-09-08 00:57:47			0	37937	0	0	0	28199	26800	154535	26568	1077350	47103	110472	0	0	8123	547019	0	0
2024-09-08 00:58:47			0	37944	0	0	0	28207	26810	154595	26840	1077386	47093	110475	0	0	8123	546717	0	0
2024-09-08 00:59:47			0	37936	0	0	0	28197	26800	154651	27149	1077297	47092	110471	0	0	8123	547057	0	0
2024-09-08 01:00:47			0	37933	0	0	0	28202	26790	154599	27003	1077305	47102	110473	0	0	8123	547205	0	0
2024-09-08 01:01:47			0	37933	0	0	0	28205	26800	154591	27020	1077341	47102	110474	0	0	8123	547174	0	0
2024-09-08 01:02:47			0	37926	0	0	0	28207	26800	154755	27066	1077297	47115	110475	0	0	8122	547444	0	0
2024-09-08 01:03:47			0	37935	0	0	0	28207	26800	154671	27097	1077377	47103	110475	0	0	8123	547096	0	0
2024-09-08 01:04:47			0	37918	0	0	0	28202	26800	154587	27345	1077261	47114	110473	0	0	8122	547754	0	0
2024-09-08 01:05:47			0	37903	0	0	0	28207	26800	154675	27150	1077368	47102	110475	0	0	8121	548335	0	0
2024-09-08 01:06:47			0	37921	0	0	0	28202	26790	154719	27180	1077269	47102	110473	0	0	8122	547669	0	0
2024-09-08 01:07:47			0	37923	0	0	0	28199	26790	154683	27111	1077305	47102	110472	0	0	8122	547592	0	0
2024-09-08 01:08:47			0	37905	0	0	0	28192	26790	154671	26811	1077252	47102	110469	0	0	8121	548289	0	0
2024-09-08 01:09:47			0	37912	0	0	0	28194	26800	154619	26941	1077261	47091	110470	0	0	8122	547986	0	0
2024-09-08 01:10:47			0	37892	0	0	0	28194	26790	154747	27046	1077305	47102	110470	0	0	8120	548792	0	0
2024-09-08 01:11:47			0	37900	0	0	0	28192	26790	154715	26951	1077332	47102	110469	0	0	8121	548482	0	0
2024-09-08 01:12:47			0	37888	0	0	0	28202	26790	154695	26771	1077323	47114	110473	0	0	8120	548947	0	0
2024-09-08 01:13:47			0	37895	0	0	0	28205	26790	154743	26915	1077296	47091	110474	0	0	8120	548676	0	0
2024-09-08 01:14:47			0	37894	0	0	0	28194	26800	154711	26632	1077323	47115	110470	0	0	8121	548683	0	0
2024-09-08 01:15:47			0	37880	0	0	0	28202	26790	154707	27109	1077305	47102	110473	0	0	8120	549257	0	0
2024-09-08 01:16:47			0	37907	0	0	0	28202	26790	154671	26909	1077269	47102	110473	0	0	8121	548211	0	0
2024-09-08 01:17:47			0	37876	0	0	0	28205	26790	154743	26894	1077296	47102	110474	0	0	8119	549413	0	0
2024-09-08 01:18:47			0	37883	0	0	0	28189	26790	154755	26760	1077323	47102	110468	0	0	8120	549141	0	0
2024-09-08 01:19:47			0	37873	0	0	0	28194	26800	154779	27038	1077288	47114	110470	0	0	8119	549498	0	0
2024-09-08 01:20:47			0	37884	0	0	0	28202	26800	154735	26948	1077288	47102	110473	0	0	8120	549071	0	0
2024-09-08 01:21:47			0	37887	0	0	0	28210	26790	154875	26630	1077305	47102	110476	0	0	8120	548986	0	0
2024-09-08 01:22:47			0	37882	0	0	0	28197	26800	154739	26831	1077288	47102	110471	0	0	8120	549149	0	0
2024-09-08 01:23:47			0	37870	0	0	0	28210	26790	154803	27083	1077269	47102	110476	0	0	8119	549645	0	0
2024-09-08 01:24:47			0	37886	0	0	0	28202	26790	154783	26854	1077278	47114	110473	0	0	8120	549025	0	0
2024-09-08 01:25:47			0	37878	0	0	0	28194	26790	154767	26967	1077252	47114	110470	0	0	8120	549335	0	0
2024-09-08 01:26:47			0	37855	0	0	0	28179	26790	154719	27119	1077252	47102	110464	0	0	8119	550227	0	0
2024-09-08 01:27:47			0	37854	0	0	0	28181	26790	154839	27133	1077278	47091	110465	0	0	8118	550266	0	0
2024-09-08 01:28:47			0	37869	0	0	0	28184	26790	154747	26916	1077278	47102	110466	0	0	8119	549684	0	0
2024-09-08 01:29:47			0	37856	0	0	0	28189	26790	154803	27159	1077225	47091	110468	0	0	8118	550189	0	0
2024-09-08 01:30:47			0	37849	0	0	0	28197	26790	154771	26961	1077242	47091	110471	0	0	8118	550460	0	0
2024-09-08 01:31:47			0	37847	0	0	0	28197	26790	154815	27334	1077296	47091	110471	0	0	8118	550538	0	0
2024-09-08 01:32:47			0	37857	0	0	0	28199	26790	154939	26996	1077269	47102	110472	0	0	8118	550150	0	0
2024-09-08 01:33:47			0	37852	0	0	0	28194	26790	154895	27156	1077269	47114	110470	0	0	8118	550344	0	0
2024-09-08 01:34:47			0	37835	0	0	0	28184	26790	154927	26937	1077242	47125	110466	0	0	8117	551004	0	0
2024-09-08 01:35:47			0	37853	0	0	0	28192	26790	154907	26772	1077269	47125	110469	0	0	8118	550305	0	0
2024-09-08 01:36:47			0	37842	0	0	0	28181	26790	154839	27034	1077269	47114	110465	0	0	8118	550732	0	0
2024-09-08 01:37:47			0	37833	0	0	0	28181	26790	154851	26989	1077242	47102	110465	0	0	8117	551082	0	0
2024-09-08 01:38:47			0	37835	0	0	0	28184	26780	154899	26745	1077179	47090	110466	0	0	8117	551036	0	0
2024-09-08 01:39:47			0	37811	0	0	0	28184	26780	155071	26968	1077170	47100	110466	0	0	8116	551969	0	0
2024-09-08 01:40:47			0	37816	0	0	0	28176	26780	154943	26630	1077260	47101	110463	0	0	8116	551774	0	0
2024-09-08 01:41:47			0	37806	0	0	0	28171	26780	155055	26795	1077179	47113	110461	0	0	8116	552163	0	0
2024-09-08 01:42:47			0	37806	0	0	0	28173	26780	155139	27222	1077287	47090	110462	0	0	8116	552163	0	0
2024-09-08 01:43:47			0	37801	0	0	0	28166	26780	155047	27189	1077179	47101	110459	0	0	8116	552358	0	0
2024-09-08 01:44:47			0	37805	0	0	0	28161	26780	155051	27098	1077197	47100	110457	0	0	8116	552202	0	0
2024-09-08 01:45:47			0	37783	0	0	0	28166	26780	155055	27360	1077233	47090	110459	0	0	8115	553059	0	0
2024-09-08 01:46:47			0	37787	0	0	0	28173	26780	155107	27454	1077206	47101	110462	0	0	8115	552903	0	0
2024-09-08 01:47:47			0	37770	0	0	0	28173	26770	155091	26922	1077188	47111	110462	0	0	8114	553597	0	0
2024-09-08 01:48:47			0	37776	0	0	0	28166	26780	155139	27199	1077170	47111	110459	0	0	8114	553331	0	0
2024-09-08 01:49:47			0	37790	0	0	0	28173	26770	155219	26743	1077206	47100	110462	0	0	8115	552818	0	0
2024-09-08 01:50:47			0	37767	0	0	0	28166	26770	155203	26902	1077161	47100	110459	0	0	8114	553714	0	0
2024-09-08 01:51:47			0	37772	0	0	0	28163	26770	155251	26831	1077134	47100	110458	0	0	8114	553519	0	0
2024-09-08 01:52:47			0	37781	0	0	0	28163	26770	155263	26984	1077107	47100	110458	0	0	8114	553168	0	0
2024-09-08 01:53:47			0	37765	0	0	0	28166	26760	155199	26894	1077036	47099	110459	0	0	8113	553824	0	0
2024-09-08 01:54:47			0	37764	0	0	0	28163	26760	155295	27119	1077116	47110	110458	0	0	8113	553863	0	0
2024-09-08 01:55:47			0	37775	0	0	0	28161	26760	155239	27026	1077134	47109	110457	0	0	8114	553434	0	0
2024-09-08 01:56:47			0	37756	0	0	0	28163	26760	155235	27007	1077170	47099	110458	0	0	8113	554174	0	0
2024-09-08 01:57:47			0	37740	0	0	0	28163	26760	155335	26899	1077080	47098	110458	0	0	8112	554799	0	0
2024-09-08 01:58:47			0	37741	0	0	0	28158	26770	155343	26656	1077125	47100	110456	0	0	8112	554728	0	0
2024-09-08 01:59:47			0	37736	0	0	0	28163	26760	155287	27190	1077036	47099	110458	0	0	8112	554955	0	0
2024-09-08 02:00:47			0	37738	0	0	0	28158	26750	155295	26817	1077071	47120	110456	0	0	8112	554909	0	0
2024-09-08 02:01:47			0	37723	0	0	0	28153	26770	155327	26868	1077152	47123	110454	0	0	8111	555431	0	0
2024-09-08 02:02:47			0	37721	0	0	0	28155	26760	155359	27053	1077107	47098	110455	0	0	8111	555541	0	0
2024-09-08 02:03:47			0	37719	0	0	0	28158	26770	155403	26939	1077125	47111	110456	0	0	8111	555587	0	0
2024-09-08 02:04:47			0	37732	0	0	0	28150	26760	155395	27308	1077107	47109	110453	0	0	8112	555111	0	0
2024-09-08 02:05:47			0	37711	0	0	0	28153	26750	155471	27371	1077035	47086	110454	0	0	8110	555963	0	0
2024-09-08 02:06:47			0	37716	0	0	0	28163	26760	155459	26875	1077107	47098	110458	0	0	8111	555736	0	0
2024-09-08 02:07:47			0	37716	0	0	0	28155	26750	155479	27085	1077017	47086	110455	0	0	8111	555768	0	0
2024-09-08 02:08:47			0	37713	0	0	0	28150	26750	155451	26812	1077089	47097	110453	0	0	8111	555885	0	0
2024-09-08 02:09:47			0	37709	0	0	0	28158	26750	155423	26925	1077017	47097	110456	0	0	8110	556041	0	0
2024-09-08 02:10:47			0	37730	0	0	0	28161	26750	155515	27222	1076981	47108	110457	0	0	8111	555221	0	0
2024-09-08 02:11:47			0	37716	0	0	0	28155	26750	155443	27057	1077035	47120	110455	0	0	8111	555768	0	0
2024-09-08 02:12:47			0	37711	0	0	0	28150	26750	155431	26961	1077071	47108	110453	0	0	8111	555963	0	0
2024-09-08 02:13:47			0	37716	0	0	0	28142	26750	155455	27072	1077017	47108	110450	0	0	8111	555768	0	0
2024-09-08 02:14:47			0	37727	0	0	0	28166	26750	155479	27121	1077017	47108	110459	0	0	8111	555338	0	0
2024-09-08 02:15:47			0	37723	0	0	0	28148	26750	155475	27246	1077071	47086	110452	0	0	8111	555494	0	0
2024-09-08 02:16:47			0	37708	0	0	0	28140	26750	155451	27208	1076991	47097	110449	0	0	8111	556080	0	0
2024-09-08 02:17:47			0	37714	0	0	0	28140	26740	155435	27213	1077071	47096	110449	0	0	8111	555878	0	0
2024-09-08 02:18:47			0	37714	0	0	0	28140	26750	155599	27183	1076991	47097	110449	0	0	8111	555846	0	0
2024-09-08 02:19:47			0	37720	0	0	0	28140	26750	155539	26989	1077008	47097	110449	0	0	8111	555611	0	0
2024-09-08 02:20:47			0	37706	0	0	0	28142	26740	155507	27114	1077080	47097	110450	0	0	8110	556190	0	0
2024-09-08 02:21:47			0	37725	0	0	0	28135	26750	155487	26772	1076981	47108	110447	0	0	8112	555416	0	0
2024-09-08 02:22:47			0	37706	0	0	0	28135	26740	155407	27100	1076972	47097	110447	0	0	8110	556190	0	0
2024-09-08 02:23:47			0	37722	0	0	0	28161	26740	155471	27119	1076963	47107	110457	0	0	8111	555565	0	0
2024-09-08 02:24:47			0	37705	0	0	0	28150	26740	155463	27241	1076963	47096	110453	0	0	8110	556229	0	0
2024-09-08 02:25:47			0	37723	0	0	0	28171	26730	155487	27303	1076927	47084	110461	0	0	8111	555558	0	0
2024-09-08 02:26:47			0	37723	0	0	0	28186	26730	155511	27189	1076918	47084	110467	0	0	8111	555558	0	0
2024-09-08 02:27:47			0	37729	0	0	0	28218	26740	155471	27079	1076963	47096	110479	0	0	8110	555292	0	0
2024-09-08 02:28:47			0	37714	0	0	0	28246	26730	155603	27104	1076954	47084	110490	0	0	8109	555909	0	0
2024-09-08 02:29:47			0	37729	0	0	0	28225	26720	155563	27137	1076990	47118	110482	0	0	8110	555355	0	0
2024-09-08 02:30:47			0	37732	0	0	0	28173	26740	155563	27008	1077017	47096	110462	0	0	8111	555175	0	0
2024-09-08 02:31:47			0	37732	0	0	0	28129	26740	155543	27206	1077053	47097	110445	0	0	8112	555175	0	0
2024-09-08 02:32:47			0	37727	0	0	0	28163	26730	155571	26961	1076981	47095	110458	0	0	8111	555402	0	0
2024-09-08 02:33:47			0	37721	0	0	0	28233	26720	155703	27261	1076936	47095	110485	0	0	8110	555668	0	0
2024-09-08 02:34:47			0	37702	0	0	0	28223	26730	155727	26913	1076981	47118	110481	0	0	8109	556379	0	0
2024-09-08 02:35:47			0	37694	0	0	0	28223	26740	155611	27083	1077125	47107	110481	0	0	8108	556660	0	0
2024-09-08 02:36:47			0	37685	0	0	0	28236	26740	155771	27083	1077134	47108	110486	0	0	8108	557012	0	0
2024-09-08 02:37:47			0	37674	0	0	0	28246	26750	155867	27209	1077179	47120	110490	0	0	8107	557410	0	0
2024-09-08 02:38:47			0	37647	0	0	0	28223	26750	155935	26642	1077152	47108	110481	0	0	8106	558468	0	0
2024-09-08 02:39:47			0	37630	0	0	0	28181	26760	155939	26748	1077170	47110	110465	0	0	8105	559102	0	0
2024-09-08 02:40:47			0	37606	0	0	0	28166	26760	155951	27203	1077080	47109	110459	0	0	8104	560044	0	0
2024-09-08 02:41:47			0	37593	0	0	0	28210	26760	156119	26765	1077107	47098	110476	0	0	8103	560555	0	0
2024-09-08 02:42:47			0	37573	0	0	0	28233	26750	156099	26857	1077116	47108	110485	0	0	8101	561373	0	0
2024-09-08 02:43:47			0	37549	0	0	0	28236	26750	156211	27010	1077179	47120	110486	0	0	8100	562317	0	0
2024-09-08 02:44:47			0	37520	0	0	0	28241	26760	156323	27088	1077188	47109	110488	0	0	8098	563428	0	0
2024-09-08 02:45:47			0	37524	0	0	0	28238	26760	156431	27081	1077251	47122	110487	0	0	8098	563270	0	0
2024-09-08 02:46:47			0	37502	0	0	0	28220	26760	156403	27038	1077224	47132	110480	0	0	8097	564138	0	0
2024-09-08 02:47:47			0	37461	0	0	0	28212	26770	156451	27305	1077233	47123	110477	0	0	8095	565724	0	0
2024-09-08 02:48:47			0	37468	0	0	0	28225	26770	156535	27261	1077242	47123	110482	0	0	8095	565448	0	0
2024-09-08 02:49:47			0	37426	0	0	0	28233	26780	156663	27306	1077305	47100	110485	0	0	8093	567076	0	0
2024-09-08 02:50:47			0	37425	0	0	0	28236	26790	156735	27241	1077350	47102	110486	0	0	8093	567083	0	0
2024-09-08 02:51:47			0	37389	0	0	0	28212	26780	156839	27147	1077260	47101	110477	0	0	8091	568542	0	0
2024-09-08 02:52:47			0	37377	0	0	0	28186	26770	156851	27052	1077215	47123	110467	0	0	8091	569050	0	0
2024-09-08 02:53:47			0	37359	0	0	0	28181	26790	157023	27039	1077269	47102	110465	0	0	8090	569700	0	0
2024-09-08 02:54:47			0	37341	0	0	0	28199	26770	157015	27137	1077134	47100	110472	0	0	8088	570480	0	0
2024-09-08 02:55:47			0	37313	0	0	0	28207	26770	157082	27024	1077179	47111	110475	0	0	8086	571593	0	0
2024-09-08 02:56:47			0	37274	0	0	0	28186	26770	157234	27351	1077242	47100	110467	0	0	8085	573146	0	0
2024-09-08 02:57:47			0	37267	0	0	0	28145	26770	157346	27190	1077125	47111	110451	0	0	8085	573426	0	0
2024-09-08 02:58:47			0	37238	0	0	0	28098	26770	157374	27069	1077125	47111	110433	0	0	8084	574583	0	0
2024-09-08 02:59:47			0	37229	0	0	0	28070	26760	157466	27149	1076973	47098	110422	0	0	8084	574975	0	0
2024-09-08 03:00:47			0	37257	0	0	0	28111	26750	157318	27237	1076955	47075	110438	0	0	8085	573890	0	0
2024-09-08 03:01:47			0	37297	0	0	0	28124	26730	157198	26948	1076865	47095	110443	0	0	8087	572361	0	0
2024-09-08 03:02:47			0	37344	0	0	0	28142	26720	157123	27097	1076909	47095	110450	0	0	8089	570524	0	0
2024-09-08 03:03:47			0	37360	0	0	0	28122	26730	156907	27254	1076918	47106	110442	0	0	8090	569856	0	0
2024-09-08 03:04:47			0	37372	0	0	0	28077	26720	156867	27332	1076882	47084	110425	0	0	8092	569412	0	0
2024-09-08 03:05:47			0	37378	0	0	0	28049	26720	156871	27393	1076766	47083	110414	0	0	8093	569174	0	0
2024-09-08 03:06:47			0	37398	0	0	0	28059	26710	156895	26955	1076775	47093	110418	0	0	8094	568413	0	0
2024-09-08 03:07:47			0	37401	0	0	0	28072	26710	156755	27189	1076748	47093	110423	0	0	8094	568294	0	0
2024-09-08 03:08:47			0	37407	0	0	0	28067	26700	156883	26998	1076792	47093	110421	0	0	8094	568089	0	0
2024-09-08 03:09:47			0	37408	0	0	0	28057	26700	156699	27123	1076685	47093	110417	0	0	8094	568049	0	0
2024-09-08 03:10:47			0	37451	0	0	0	28077	26690	156715	27157	1076685	47090	110425	0	0	8096	566379	0	0
2024-09-08 03:11:47			0	37428	0	0	0	28059	26680	156707	27067	1076586	47090	110418	0	0	8095	567322	0	0
2024-09-08 03:12:47			0	37441	0	0	0	28054	26680	156687	26918	1076568	47090	110416	0	0	8096	566807	0	0
2024-09-08 03:13:47			0	37443	0	0	0	28041	26670	156587	27133	1076550	47079	110411	0	0	8096	566760	0	0
2024-09-08 03:14:47			0	37425	0	0	0	28054	26680	156659	27130	1076586	47090	110416	0	0	8095	567440	0	0
2024-09-08 03:15:47			0	37428	0	0	0	28059	26670	156731	26897	1076604	47100	110418	0	0	8095	567354	0	0
2024-09-08 03:16:47			0	37424	0	0	0	28059	26660	156679	26972	1076558	47078	110418	0	0	8095	567545	0	0
2024-09-08 03:17:47			0	37433	0	0	0	28077	26650	156795	26991	1076486	47087	110425	0	0	8095	567221	0	0
2024-09-08 03:18:47			0	37427	0	0	0	28075	26650	156691	26774	1076513	47098	110424	0	0	8095	567459	0	0
2024-09-08 03:19:47			0	37427	0	0	0	28057	26660	156683	26894	1076522	47099	110417	0	0	8095	567426	0	0
2024-09-08 03:20:47			0	37425	0	0	0	28051	26650	156783	27076	1076513	47098	110415	0	0	8095	567538	0	0
2024-09-08 03:21:47			0	37419	0	0	0	28062	26650	156639	27010	1076486	47098	110419	0	0	8095	567776	0	0
2024-09-08 03:22:47			0	37409	0	0	0	28064	26660	156831	27020	1076531	47088	110420	0	0	8094	568139	0	0
2024-09-08 03:23:47			0	37413	0	0	0	28051	26660	156763	26738	1076576	47099	110415	0	0	8094	567981	0	0
2024-09-08 03:24:47			0	37407	0	0	0	28038	26650	156811	27152	1076540	47098	110410	0	0	8094	568251	0	0
2024-09-08 03:25:47			0	37407	0	0	0	28023	26650	156807	27209	1076486	47077	110404	0	0	8095	568251	0	0
2024-09-08 03:26:47			0	37419	0	0	0	28033	26650	156799	26727	1076459	47087	110408	0	0	8095	567776	0	0
2024-09-08 03:27:47			0	37418	0	0	0	28028	26650	156839	26922	1076459	47077	110406	0	0	8095	567815	0	0
2024-09-08 03:28:47			0	37431	0	0	0	28036	26640	156659	26706	1076477	47086	110409	0	0	8096	567333	0	0
2024-09-08 03:29:47			0	37418	0	0	0	28025	26640	156815	26791	1076414	47097	110405	0	0	8095	567848	0	0
2024-09-08 03:30:47			0	37414	0	0	0	28007	26630	156871	26606	1076432	47086	110398	0	0	8095	568039	0	0
2024-09-08 03:31:47			0	37409	0	0	0	28018	26630	156811	26875	1076379	47097	110402	0	0	8095	568237	0	0
2024-09-08 03:32:47			0	37408	0	0	0	28002	26620	156811	26729	1076360	47074	110396	0	0	8095	568309	0	0
2024-09-08 03:33:47			0	37404	0	0	0	27999	26620	156823	27000	1076324	47083	110395	0	0	8095	568468	0	0
2024-09-08 03:34:47			0	37390	0	0	0	27999	26610	156803	26767	1076342	47083	110395	0	0	8094	569056	0	0
2024-09-08 03:35:47			0	37379	0	0	0	27994	26620	156859	26691	1076298	47073	110393	0	0	8093	569460	0	0
2024-09-08 03:36:47			0	37384	0	0	0	27994	26620	156875	26927	1076351	47083	110393	0	0	8094	569261	0	0
2024-09-08 03:37:47			0	37405	0	0	0	27976	26610	156847	27118	1076253	47083	110386	0	0	8095	568461	0	0
2024-09-08 03:38:47			0	37398	0	0	0	27968	26600	156807	26876	1076208	47070	110383	0	0	8095	568771	0	0
2024-09-08 03:39:47			0	37411	0	0	0	27968	26600	156839	27003	1076208	47070	110383	0	0	8095	568255	0	0
2024-09-08 03:40:47			0	37382	0	0	0	27953	26590	156871	27189	1076172	47092	110377	0	0	8094	569438	0	0
2024-09-08 03:41:47			0	37391	0	0	0	27971	26600	156899	27072	1076181	47082	110384	0	0	8094	569049	0	0
2024-09-08 03:42:47			0	37385	0	0	0	27966	26580	157043	27038	1076127	47081	110382	0	0	8094	569352	0	0
2024-09-08 03:43:47			0	37382	0	0	0	27955	26580	157035	27055	1076154	47081	110378	0	0	8094	569471	0	0
2024-09-08 03:44:47			0	37377	0	0	0	27948	26580	156983	26901	1076046	47081	110375	0	0	8094	569670	0	0
2024-09-08 03:45:47			0	37369	0	0	0	27945	26570	157075	26746	1076001	47080	110374	0	0	8093	570020	0	0
2024-09-08 03:46:47			0	37364	0	0	0	27945	26580	157059	27138	1076037	47080	110374	0	0	8093	570186	0	0
2024-09-08 03:47:47			0	37358	0	0	0	27961	26560	157071	26837	1076037	47079	110380	0	0	8092	570490	0	0
2024-09-08 03:48:47			0	37355	0	0	0	27971	26570	157139	27244	1076046	47090	110384	0	0	8092	570577	0	0
2024-09-08 03:49:47			0	37349	0	0	0	27974	26560	157179	27012	1076108	47078	110385	0	0	8092	570848	0	0
2024-09-08 03:50:47			0	37326	0	0	0	27976	26560	157163	26946	1076090	47089	110386	0	0	8090	571763	0	0
2024-09-08 03:51:47			0	37337	0	0	0	27986	26560	157275	26622	1076090	47089	110390	0	0	8091	571325	0	0
2024-09-08 03:52:47			0	37309	0	0	0	28002	26560	157290	27064	1076117	47100	110396	0	0	8089	572440	0	0
2024-09-08 03:53:47			0	37314	0	0	0	27976	26560	157386	26918	1076117	47100	110386	0	0	8089	572241	0	0
2024-09-08 03:54:47			0	37326	0	0	0	27984	26570	157299	27069	1076135	47102	110389	0	0	8090	571730	0	0
2024-09-08 03:55:47			0	37310	0	0	0	28005	26570	157242	27050	1076126	47090	110397	0	0	8089	572367	0	0
2024-09-08 03:56:47			0	37319	0	0	0	28007	26570	157223	27156	1076180	47090	110398	0	0	8089	572009	0	0
2024-09-08 03:57:47			0	37294	0	0	0	27997	26580	157366	27088	1076198	47080	110394	0	0	8088	572973	0	0
2024-09-08 03:58:47			0	37312	0	0	0	27984	26580	157283	27071	1076171	47080	110389	0	0	8089	572255	0	0
2024-09-08 03:59:47			0	37329	0	0	0	27999	26580	157247	26779	1076145	47090	110395	0	0	8090	571578	0	0
2024-09-08 04:00:47			0	37313	0	0	0	27997	26580	157278	26937	1076225	47090	110394	0	0	8089	572215	0	0
2024-09-08 04:01:47			0	37310	0	0	0	28012	26580	157358	26890	1076225	47102	110400	0	0	8089	572335	0	0
2024-09-08 04:02:47			0	37309	0	0	0	28007	26580	157226	27124	1076252	47090	110398	0	0	8089	572375	0	0
2024-09-08 04:03:47			0	37307	0	0	0	28007	26580	157226	27093	1076288	47091	110398	0	0	8089	572454	0	0
2024-09-08 04:04:47			0	37316	0	0	0	28005	26580	157347	26726	1076207	47103	110397	0	0	8089	572096	0	0
2024-09-08 04:05:47			0	37313	0	0	0	27999	26580	157198	26922	1076234	47091	110395	0	0	8089	572215	0	0
2024-09-08 04:06:47			0	37313	0	0	0	27997	26580	157126	26876	1076207	47069	110394	0	0	8089	572215	0	0
2024-09-08 04:07:47			0	37330	0	0	0	28002	26590	157131	27353	1076279	47104	110396	0	0	8090	571506	0	0
2024-09-08 04:08:47			0	37313	0	0	0	27994	26590	157154	27163	1076216	47082	110393	0	0	8089	572183	0	0
2024-09-08 04:09:47			0	37322	0	0	0	28002	26590	157018	26984	1076216	47104	110396	0	0	8090	571824	0	0
2024-09-08 04:10:47			0	37324	0	0	0	27994	26590	157079	27329	1076216	47104	110393	0	0	8090	571744	0	0
2024-09-08 04:11:47			0	37340	0	0	0	27999	26580	156983	27206	1076234	47081	110395	0	0	8091	571140	0	0
2024-09-08 04:12:47			0	37346	0	0	0	27994	26590	157127	27067	1076243	47082	110393	0	0	8091	570869	0	0
2024-09-08 04:13:47			0	37343	0	0	0	27994	26590	157091	26927	1076279	47070	110393	0	0	8091	570989	0	0
2024-09-08 04:14:47			0	37340	0	0	0	27986	26580	157043	27020	1076234	47114	110390	0	0	8091	571140	0	0
2024-09-08 04:15:47			0	37345	0	0	0	27992	26590	157023	27187	1076270	47092	110392	0	0	8091	570909	0	0
2024-09-08 04:16:47			0	37350	0	0	0	27992	26580	157063	27199	1076234	47081	110392	0	0	8091	570743	0	0
2024-09-08 04:17:47			0	37346	0	0	0	27999	26580	157111	27012	1076261	47091	110395	0	0	8091	570902	0	0
2024-09-08 04:18:47			0	37356	0	0	0	27999	26580	157043	27197	1076234	47069	110395	0	0	8092	570504	0	0
2024-09-08 04:19:47			0	37347	0	0	0	27992	26580	157079	26805	1076261	47081	110392	0	0	8091	570862	0	0
2024-09-08 04:20:47			0	37365	0	0	0	27984	26580	157039	26981	1076234	47091	110389	0	0	8092	570146	0	0
2024-09-08 04:21:47			0	37346	0	0	0	27981	26580	157103	27194	1076207	47069	110388	0	0	8091	570902	0	0
2024-09-08 04:22:47			0	37342	0	0	0	27986	26580	157083	27287	1076171	47090	110390	0	0	8091	571061	0	0
2024-09-08 04:23:47			0	37365	0	0	0	27976	26580	156867	27097	1076207	47091	110386	0	0	8093	570146	0	0
2024-09-08 04:24:47			0	37358	0	0	0	27979	26590	156951	27248	1076216	47092	110387	0	0	8092	570392	0	0
2024-09-08 04:25:47			0	37354	0	0	0	27976	26580	157007	27178	1076171	47090	110386	0	0	8092	570584	0	0
2024-09-08 04:26:47			0	37350	0	0	0	27976	26580	156927	26764	1076154	47081	110386	0	0	8092	570743	0	0
2024-09-08 04:27:47			0	37364	0	0	0	27971	26570	157047	27154	1076153	47080	110384	0	0	8093	570219	0	0
2024-09-08 04:28:47			0	37370	0	0	0	27974	26570	157023	27012	1076109	47080	110385	0	0	8093	569980	0	0
2024-09-08 04:29:47			0	37358	0	0	0	27979	26570	156999	27095	1076162	47068	110387	0	0	8092	570457	0	0
2024-09-08 04:30:47			0	37350	0	0	0	27979	26570	156931	26870	1076126	47080	110387	0	0	8092	570775	0	0
2024-09-08 04:31:47			0	37371	0	0	0	27966	26570	157007	27019	1076126	47080	110382	0	0	8093	569941	0	0
2024-09-08 04:32:47			0	37371	0	0	0	27963	26570	156955	27274	1076135	47080	110381	0	0	8093	569941	0	0
2024-09-08 04:33:47			0	37363	0	0	0	27963	26560	157039	27055	1076090	47079	110381	0	0	8093	570291	0	0
2024-09-08 04:34:47			0	37366	0	0	0	27950	26560	156975	27015	1076108	47066	110376	0	0	8093	570172	0	0
2024-09-08 04:35:47			0	37382	0	0	0	27955	26560	156819	26887	1076117	47089	110378	0	0	8094	569536	0	0
2024-09-08 04:36:47			0	37392	0	0	0	28038	26560	156959	26632	1076081	47066	110410	0	0	8093	569139	0	0
2024-09-08 04:37:47			0	37368	0	0	0	27986	26560	156979	26828	1076081	47078	110390	0	0	8092	570092	0	0
2024-09-08 04:38:47			0	37371	0	0	0	27953	26560	156959	27076	1076090	47089	110377	0	0	8093	569973	0	0
2024-09-08 04:39:47			0	37371	0	0	0	27955	26560	157079	26783	1076054	47099	110378	0	0	8093	569973	0	0
2024-09-08 04:40:47			0	37368	0	0	0	27955	26560	156991	27178	1076081	47078	110378	0	0	8093	570092	0	0
2024-09-08 04:41:47			0	37354	0	0	0	27974	26560	157119	26802	1076081	47078	110385	0	0	8092	570649	0	0
2024-09-08 04:42:47			0	37359	0	0	0	27979	26540	157147	26837	1076027	47077	110387	0	0	8092	570515	0	0
2024-09-08 04:43:47			0	37343	0	0	0	27971	26540	157087	26878	1076027	47099	110384	0	0	8091	571152	0	0
2024-09-08 04:44:47			0	37347	0	0	0	27966	26550	157203	27149	1076072	47088	110382	0	0	8092	570960	0	0
2024-09-08 04:45:47			0	37324	0	0	0	27963	26550	157247	26738	1076036	47077	110381	0	0	8090	571875	0	0
2024-09-08 04:46:47			0	37325	0	0	0	27955	26550	157299	27022	1076019	47078	110378	0	0	8090	571836	0	0
2024-09-08 04:47:47			0	37321	0	0	0	27945	26560	157339	27000	1076028	47078	110374	0	0	8090	571962	0	0
2024-09-08 04:48:47			0	37318	0	0	0	27942	26550	157171	26765	1076019	47078	110373	0	0	8090	572114	0	0
2024-09-08 04:49:47			0	37300	0	0	0	27948	26550	157346	27190	1076010	47077	110375	0	0	8089	572832	0	0
2024-09-08 04:50:47			0	37294	0	0	0	27940	26540	157342	26948	1075937	47086	110372	0	0	8089	573104	0	0
2024-09-08 04:51:47			0	37276	0	0	0	27979	26550	157386	27057	1075929	47077	110387	0	0	8087	573789	0	0
2024-09-08 04:52:47			0	37260	0	0	0	27971	26550	157466	27114	1076010	47077	110384	0	0	8086	574428	0	0
2024-09-08 04:53:47			0	37273	0	0	0	27989	26540	157422	26814	1076027	47077	110391	0	0	8087	573941	0	0
2024-09-08 04:54:47			0	37259	0	0	0	28020	26540	157482	27001	1076018	47086	110403	0	0	8085	574500	0	0
2024-09-08 04:55:47			0	37250	0	0	0	27955	26540	157494	26837	1076054	47077	110378	0	0	8086	574860	0	0
2024-09-08 04:56:47			0	37259	0	0	0	27955	26540	157562	27019	1075974	47087	110378	0	0	8086	574500	0	0
2024-09-08 04:57:47			0	37223	0	0	0	27994	26540	157554	26878	1075974	47077	110393	0	0	8084	575940	0	0
2024-09-08 04:58:47			0	37224	0	0	0	28015	26530	157610	27142	1076009	47096	110401	0	0	8083	575932	0	0
2024-09-08 04:59:47			0	37219	0	0	0	28038	26540	157710	26781	1076072	47086	110410	0	0	8083	576099	0	0
2024-09-08 05:00:47			0	37193	0	0	0	28041	26540	157782	27216	1076135	47099	110411	0	0	8081	577141	0	0
2024-09-08 05:01:47			0	37197	0	0	0	27968	26550	157766	26987	1076099	47088	110383	0	0	8083	576947	0	0
2024-09-08 05:02:47			0	37195	0	0	0	27971	26550	157834	26738	1076045	47088	110384	0	0	8083	577027	0	0
2024-09-08 05:03:47			0	37189	0	0	0	28002	26550	157846	27379	1076117	47087	110396	0	0	8082	577268	0	0
2024-09-08 05:04:47			0	37149	0	0	0	27974	26540	157886	26970	1076054	47077	110385	0	0	8080	578905	0	0
2024-09-08 05:05:47			0	37147	0	0	0	27950	26550	157990	26923	1075983	47087	110376	0	0	8080	578952	0	0
2024-09-08 05:06:47			0	37128	0	0	0	27955	26540	158022	27083	1075991	47076	110378	0	0	8079	579749	0	0
2024-09-08 05:07:47			0	37129	0	0	0	27994	26540	158018	26937	1076000	47087	110393	0	0	8078	579708	0	0
2024-09-08 05:08:47			0	37106	0	0	0	28023	26540	158126	26927	1076000	47087	110404	0	0	8076	580633	0	0
2024-09-08 05:09:47			0	37099	0	0	0	28046	26540	158166	26913	1076018	47076	110413	0	0	8076	580915	0	0
2024-09-08 05:10:47			0	37098	0	0	0	28033	26550	158262	27081	1076063	47077	110408	0	0	8076	580922	0	0
2024-09-08 05:11:47			0	37100	0	0	0	28015	26540	158102	26965	1076081	47099	110401	0	0	8076	580874	0	0
2024-09-08 05:12:47			0	37110	0	0	0	28062	26550	158158	27024	1076126	47088	110419	0	0	8076	580439	0	0
2024-09-08 05:13:47			0	37086	0	0	0	28077	26550	158194	27104	1076117	47077	110425	0	0	8074	581405	0	0
2024-09-08 05:14:47			0	37092	0	0	0	28062	26550	158190	26977	1076117	47099	110419	0	0	8075	581163	0	0
2024-09-08 05:15:47			0	37088	0	0	0	28192	26560	158150	26870	1076225	47100	110469	0	0	8073	581291	0	0
2024-09-08 05:16:47			0	37087	0	0	0	28166	26570	158234	26892	1076404	47124	110459	0	0	8073	581298	0	0
2024-09-08 05:17:47			0	37054	0	0	0	28168	26580	158274	26854	1076449	47125	110460	0	0	8071	582594	0	0
2024-09-08 05:18:47			0	37067	0	0	0	28158	26610	158290	27159	1076629	47139	110456	0	0	8072	581970	0	0
2024-09-08 05:19:47			0	37060	0	0	0	28210	26610	158286	27171	1076584	47127	110476	0	0	8071	582252	0	0
2024-09-08 05:20:47			0	37034	0	0	0	28207	26630	158378	26642	1076800	47141	110475	0	0	8069	583234	0	0
2024-09-08 05:21:47			0	37029	0	0	0	28202	26650	158366	26689	1076836	47143	110473	0	0	8069	583369	0	0
2024-09-08 05:22:47			0	37002	0	0	0	28205	26660	158374	27093	1076845	47122	110474	0	0	8068	584425	0	0
2024-09-08 05:23:47			0	36996	0	0	0	28194	26680	158450	26606	1076864	47134	110470	0	0	8068	584600	0	0
2024-09-08 05:24:47			0	36984	0	0	0	28202	26680	158454	26800	1076890	47124	110473	0	0	8067	585085	0	0
2024-09-08 05:25:47			0	36964	0	0	0	28192	26710	158438	26949	1077016	47126	110469	0	0	8066	585793	0	0
2024-09-08 05:26:47			0	36965	0	0	0	28181	26710	158590	26871	1077079	47126	110465	0	0	8066	585753	0	0
2024-09-08 05:27:47			0	36929	0	0	0	28192	26720	158798	27045	1077061	47138	110469	0	0	8064	587177	0	0
2024-09-08 05:28:47			0	36924	0	0	0	28176	26720	158806	27163	1077035	47117	110463	0	0	8064	587379	0	0
2024-09-08 05:29:47			0	36884	0	0	0	28161	26720	158986	27033	1077097	47118	110457	0	0	8062	589002	0	0
2024-09-08 05:30:47			0	36877	0	0	0	28145	26740	159042	26946	1077071	47119	110451	0	0	8062	589219	0	0
2024-09-08 05:31:47			0	36852	0	0	0	28145	26730	158902	27367	1077116	47118	110451	0	0	8060	590268	0	0
2024-09-08 05:32:47			0	36850	0	0	0	28173	26740	159082	27131	1077214	47120	110462	0	0	8060	590316	0	0
2024-09-08 05:33:47			0	36836	0	0	0	28163	26740	159238	27159	1077134	47120	110458	0	0	8059	590885	0	0
2024-09-08 05:34:47			0	36822	0	0	0	28173	26740	159162	27031	1077134	47108	110462	0	0	8058	591455	0	0
2024-09-08 05:35:47			0	36816	0	0	0	28168	26750	159130	26974	1077143	47130	110460	0	0	8058	591665	0	0
2024-09-08 05:36:47			0	36801	0	0	0	28155	26750	159222	27215	1077143	47097	110455	0	0	8057	592276	0	0
2024-09-08 05:37:47			0	36795	0	0	0	28150	26750	159114	27183	1077125	47108	110453	0	0	8057	592521	0	0
2024-09-08 05:38:47			0	36817	0	0	0	28153	26750	159142	27372	1077116	47108	110454	0	0	8058	591624	0	0
2024-09-08 05:39:47			0	36794	0	0	0	28158	26750	159182	27244	1077143	47097	110456	0	0	8057	592561	0	0
2024-09-08 05:40:47			0	36803	0	0	0	28155	26750	159210	27069	1077098	47108	110455	0	0	8057	592195	0	0
2024-09-08 05:41:47			0	36818	0	0	0	28145	26760	159226	27019	1077134	47121	110451	0	0	8058	591550	0	0
2024-09-08 05:42:47			0	36792	0	0	0	28161	26750	159242	27007	1077098	47108	110457	0	0	8056	592643	0	0
2024-09-08 05:43:47			0	36790	0	0	0	28150	26740	159218	27228	1077071	47096	110453	0	0	8057	592758	0	0
2024-09-08 05:44:47			0	36786	0	0	0	28155	26750	159302	26967	1077125	47097	110455	0	0	8056	592888	0	0
2024-09-08 05:45:47			0	36770	0	0	0	28145	26750	159310	27124	1077089	47108	110451	0	0	8055	593540	0	0
2024-09-08 05:46:47			0	36785	0	0	0	28150	26740	159338	26805	1077026	47097	110453	0	0	8056	592962	0	0
2024-09-08 05:47:47			0	36778	0	0	0	28176	26750	159270	26998	1077143	47108	110463	0	0	8055	593214	0	0
2024-09-08 05:48:47			0	36756	0	0	0	28176	26760	159446	26760	1077080	47121	110463	0	0	8054	594078	0	0
2024-09-08 05:49:47			0	36737	0	0	0	28181	26750	159414	26956	1077116	47120	110465	0	0	8053	594888	0	0
2024-09-08 05:50:47			0	36745	0	0	0	28166	26750	159510	27203	1077125	47120	110459	0	0	8054	594561	0	0
2024-09-08 05:51:47			0	36745	0	0	0	28150	26750	159494	27216	1077125	47120	110453	0	0	8054	594561	0	0
2024-09-08 05:52:47			0	36750	0	0	0	28142	26750	159606	26963	1077125	47108	110450	0	0	8054	594357	0	0
2024-09-08 05:53:47			0	36742	0	0	0	28158	26760	159450	27046	1077107	47109	110456	0	0	8054	594649	0	0
2024-09-08 05:54:47			0	36740	0	0	0	28173	26760	159586	27100	1077224	47110	110462	0	0	8053	594731	0	0
2024-09-08 05:55:47			0	36717	0	0	0	28171	26760	159534	27107	1077170	47110	110461	0	0	8052	595672	0	0
2024-09-08 05:56:47			0	36717	0	0	0	28148	26760	159658	27223	1077224	47110	110452	0	0	8052	595672	0	0
2024-09-08 05:57:47			0	36691	0	0	0	28153	26760	159658	27015	1077224	47122	110454	0	0	8051	596736	0	0
2024-09-08 05:58:47			0	36708	0	0	0	28148	26760	159650	26899	1077170	47110	110452	0	0	8052	596040	0	0
2024-09-08 05:59:47			0	36678	0	0	0	28135	26760	159630	27083	1077134	47098	110447	0	0	8050	597268	0	0
2024-09-08 06:00:47			0	36672	0	0	0	28135	26770	159674	26960	1077152	47100	110447	0	0	8050	597480	0	0
2024-09-08 06:01:47			0	36658	0	0	0	28135	26750	159762	27274	1077044	47097	110447	0	0	8049	598123	0	0
2024-09-08 06:02:47			0	36661	0	0	0	28124	26770	159822	27100	1077152	47111	110443	0	0	8049	597931	0	0
2024-09-08 06:03:47			0	36641	0	0	0	28101	26760	159842	27222	1077116	47099	110434	0	0	8049	598786	0	0
2024-09-08 06:04:47			0	36629	0	0	0	28106	26760	159922	27209	1077134	47087	110436	0	0	8048	599279	0	0
2024-09-08 06:05:47			0	36631	0	0	0	28067	26740	159890	26911	1077053	47097	110421	0	0	8048	599265	0	0
2024-09-08 06:06:47			0	36631	0	0	0	28059	26750	159918	27313	1077017	47086	110418	0	0	8049	599231	0	0
2024-09-08 06:07:47			0	36634	0	0	0	28093	26750	159886	27277	1076981	47075	110431	0	0	8048	599108	0	0
2024-09-08 06:08:47			0	36616	0	0	0	28070	26740	160002	27192	1076963	47085	110422	0	0	8048	599882	0	0
2024-09-08 06:09:47			0	36624	0	0	0	28038	26730	159958	27178	1076865	47084	110410	0	0	8049	599587	0	0
2024-09-08 06:10:47			0	36597	0	0	0	28041	26730	160042	26967	1076891	47073	110411	0	0	8047	600697	0	0
2024-09-08 06:11:47			0	36610	0	0	0	28075	26720	160038	26930	1076802	47084	110424	0	0	8047	600197	0	0
2024-09-08 06:12:47			0	36596	0	0	0	28116	26710	160166	26963	1076810	47083	110440	0	0	8045	600807	0	0
2024-09-08 06:13:47			0	36574	0	0	0	28161	26710	160245	26889	1076828	47093	110457	0	0	8043	601713	0	0
2024-09-08 06:14:47			0	36560	0	0	0	28140	26720	160241	26878	1076963	47118	110449	0	0	8043	602255	0	0
2024-09-08 06:15:47			0	36566	0	0	0	28111	26720	160389	26845	1076927	47105	110438	0	0	8044	602008	0	0
2024-09-08 06:16:47			0	36549	0	0	0	28098	26710	160285	27041	1076945	47116	110433	0	0	8043	602743	0	0
2024-09-08 06:17:47			0	36552	0	0	0	28090	26720	160361	26842	1076882	47095	110430	0	0	8043	602585	0	0
2024-09-08 06:18:47			0	36559	0	0	0	28088	26720	160269	26844	1076927	47094	110429	0	0	8044	602297	0	0
2024-09-08 06:19:47			0	36545	0	0	0	28070	26710	160301	26930	1076810	47093	110422	0	0	8043	602908	0	0
2024-09-08 06:20:47			0	36563	0	0	0	28067	26710	160221	26800	1076775	47093	110421	0	0	8044	602166	0	0
2024-09-08 06:21:47			0	36547	0	0	0	28080	26700	160277	27055	1076792	47083	110426	0	0	8043	602860	0	0
2024-09-08 06:22:47			0	36542	0	0	0	28059	26710	160357	27083	1076864	47083	110418	0	0	8043	603032	0	0
2024-09-08 06:23:47			0	36553	0	0	0	28051	26700	160273	26979	1076819	47093	110415	0	0	8044	602613	0	0
2024-09-08 06:24:47			0	36533	0	0	0	28075	26700	160273	27133	1076730	47092	110424	0	0	8042	603438	0	0
2024-09-08 06:25:47			0	36560	0	0	0	28070	26700	160321	27173	1076783	47082	110422	0	0	8044	602324	0	0
2024-09-08 06:26:47			0	36572	0	0	0	28059	26690	160321	26745	1076747	47081	110418	0	0	8045	601864	0	0
2024-09-08 06:27:47			0	36579	0	0	0	28080	26700	160333	27130	1076703	47092	110426	0	0	8045	601542	0	0
2024-09-08 06:28:47			0	36585	0	0	0	28096	26690	160297	27095	1076747	47102	110432	0	0	8045	601329	0	0
2024-09-08 06:29:47			0	36557	0	0	0	28085	26680	160201	26847	1076640	47068	110428	0	0	8043	602517	0	0
2024-09-08 06:30:47			0	36571	0	0	0	28054	26690	160201	27222	1076747	47102	110416	0	0	8045	601906	0	0
2024-09-08 06:31:47			0	36586	0	0	0	28059	26690	160193	26854	1076658	47090	110418	0	0	8046	601288	0	0
2024-09-08 06:32:47			0	36622	0	0	0	28046	26680	160002	27365	1076720	47090	110413	0	0	8048	599841	0	0
2024-09-08 06:33:47			0	36647	0	0	0	28023	26680	159914	27150	1076613	47090	110404	0	0	8050	598814	0	0
2024-09-08 06:34:47			0	36647	0	0	0	28031	26670	159902	26821	1076648	47088	110407	0	0	8050	598848	0	0
2024-09-08 06:35:47			0	36669	0	0	0	28018	26660	159918	26876	1076522	47078	110402	0	0	8051	597980	0	0
2024-09-08 06:36:47			0	36670	0	0	0	27999	26660	159866	26934	1076495	47088	110395	0	0	8052	597939	0	0
2024-09-08 06:37:47			0	36671	0	0	0	27981	26640	159850	26802	1076477	47086	110388	0	0	8052	597966	0	0
2024-09-08 06:38:47			0	36645	0	0	0	27974	26630	159958	27220	1076405	47076	110385	0	0	8050	599067	0	0
2024-09-08 06:39:47			0	36652	0	0	0	27986	26620	160010	27076	1076324	47073	110390	0	0	8051	598814	0	0
2024-09-08 06:40:47			0	36635	0	0	0	27963	26630	159990	27052	1076343	47085	110381	0	0	8050	599478	0	0
2024-09-08 06:41:47			0	36616	0	0	0	27961	26620	159990	27036	1076334	47062	110380	0	0	8049	600294	0	0
2024-09-08 06:42:47			0	36639	0	0	0	27971	26610	160070	27005	1076289	47073	110384	0	0	8050	599383	0	0
2024-09-08 06:43:47			0	36646	0	0	0	27999	26600	159982	26906	1076270	47083	110395	0	0	8050	599129	0	0
2024-09-08 06:44:47			0	36652	0	0	0	27963	26610	159994	26769	1076342	47094	110381	0	0	8051	598848	0	0
2024-09-08 06:45:47			0	36651	0	0	0	27922	26600	159994	26923	1076288	47082	110365	0	0	8051	598924	0	0
2024-09-08 06:46:47			0	36664	0	0	0	27916	26590	159886	26762	1076216	47082	110363	0	0	8052	598424	0	0
2024-09-08 06:47:47			0	36658	0	0	0	27893	26590	159882	26928	1076199	47092	110354	0	0	8052	598671	0	0
2024-09-08 06:48:47			0	36666	0	0	0	27896	26590	159794	26944	1076136	47059	110355	0	0	8053	598342	0	0
2024-09-08 06:49:47			0	36671	0	0	0	27883	26570	159858	27055	1076019	47068	110350	0	0	8053	598205	0	0
2024-09-08 06:50:47			0	36696	0	0	0	27872	26560	159846	26916	1075983	47067	110346	0	0	8055	597214	0	0
2024-09-08 06:51:47			0	36670	0	0	0	27888	26550	159706	26726	1075938	47055	110352	0	0	8053	598315	0	0
2024-09-08 06:52:47			0	36676	0	0	0	27929	26550	159906	26982	1075902	47065	110368	0	0	8053	598069	0	0
2024-09-08 06:53:47			0	36667	0	0	0	27992	26550	159986	26543	1075929	47065	110392	0	0	8051	598438	0	0
2024-09-08 06:54:47			0	36668	0	0	0	27976	26530	159918	26883	1075919	47075	110386	0	0	8051	598465	0	0
2024-09-08 06:55:47			0	36662	0	0	0	27992	26540	160018	26708	1076072	47097	110392	0	0	8051	598678	0	0
2024-09-08 06:56:47			0	36637	0	0	0	27966	26550	160026	26790	1076036	47110	110382	0	0	8050	599671	0	0
2024-09-08 06:57:47			0	36652	0	0	0	27974	26560	159998	27055	1076108	47099	110385	0	0	8050	599020	0	0
2024-09-08 06:58:47			0	36637	0	0	0	27968	26550	160118	26955	1076117	47099	110383	0	0	8050	599671	0	0
2024-09-08 06:59:47			0	36622	0	0	0	27968	26560	160126	26731	1076108	47078	110383	0	0	8049	600253	0	0
2024-09-08 07:00:47			0	36634	0	0	0	27974	26560	160058	26726	1076135	47066	110385	0	0	8049	599760	0	0
2024-09-08 07:01:47			0	36605	0	0	0	27968	26560	160134	26890	1076117	47089	110383	0	0	8048	600953	0	0
2024-09-08 07:02:47			0	36624	0	0	0	27961	26570	160146	26944	1076073	47102	110380	0	0	8049	600136	0	0
2024-09-08 07:03:47			0	36633	0	0	0	27966	26550	160150	26909	1076072	47078	110382	0	0	8049	599835	0	0
2024-09-08 07:04:47			0	36649	0	0	0	27963	26560	160038	27083	1076054	47078	110381	0	0	8050	599143	0	0
2024-09-08 07:05:47			0	36666	0	0	0	27961	26550	160070	27043	1076063	47077	110380	0	0	8051	598479	0	0
2024-09-08 07:06:47			0	36665	0	0	0	27963	26550	159978	26963	1076099	47078	110381	0	0	8051	598520	0	0
2024-09-08 07:07:47			0	36674	0	0	0	27953	26560	159922	26892	1076090	47100	110377	0	0	8052	598117	0	0
2024-09-08 07:08:47			0	36694	0	0	0	27955	26550	159850	26764	1076045	47088	110378	0	0	8053	597330	0	0
2024-09-08 07:09:47			0	36691	0	0	0	27961	26560	159750	26956	1076054	47088	110380	0	0	8053	597419	0	0
2024-09-08 07:10:47			0	36714	0	0	0	27955	26560	159794	27118	1076081	47099	110378	0	0	8054	596477	0	0
2024-09-08 07:11:47			0	36733	0	0	0	27955	26560	159826	26816	1076037	47079	110378	0	0	8056	595699	0	0
2024-09-08 07:12:47			0	36720	0	0	0	27958	26550	159726	26842	1076063	47087	110379	0	0	8055	596265	0	0
2024-09-08 07:13:47			0	36719	0	0	0	27971	26550	159746	26873	1076072	47078	110384	0	0	8054	596306	0	0
2024-09-08 07:14:47			0	36724	0	0	0	27986	26560	159750	26812	1076064	47089	110390	0	0	8055	596067	0	0
2024-09-08 07:15:47			0	36743	0	0	0	27963	26550	159778	26729	1076072	47088	110381	0	0	8056	595324	0	0
2024-09-08 07:16:47			0	36723	0	0	0	27932	26560	159690	26911	1076037	47089	110369	0	0	8055	596108	0	0
2024-09-08 07:17:47			0	36732	0	0	0	27911	26540	159758	26902	1076000	47077	110361	0	0	8056	595808	0	0
2024-09-08 07:18:47			0	36734	0	0	0	27896	26550	159658	26653	1075983	47065	110355	0	0	8057	595692	0	0
2024-09-08 07:19:47			0	36754	0	0	0	27901	26540	159522	26807	1075974	47077	110357	0	0	8058	594908	0	0
2024-09-08 07:20:47			0	36788	0	0	0	27911	26540	159402	26942	1075991	47076	110361	0	0	8059	593519	0	0
2024-09-08 07:21:47			0	36793	0	0	0	27929	26540	159490	27090	1075910	47076	110368	0	0	8059	593315	0	0
2024-09-08 07:22:47			0	36825	0	0	0	27937	26530	159490	27090	1075901	47085	110371	0	0	8061	592044	0	0
2024-09-08 07:23:47			0	36814	0	0	0	27955	26520	159366	27081	1075883	47075	110378	0	0	8060	592526	0	0
2024-09-08 07:24:47			0	36829	0	0	0	27942	26520	159238	26831	1075964	47085	110373	0	0	8061	591915	0	0
2024-09-08 07:25:47			0	36843	0	0	0	27953	26520	159158	27171	1075937	47085	110377	0	0	8062	591344	0	0
2024-09-08 07:26:47			0	36851	0	0	0	27948	26520	159190	27022	1075991	47075	110375	0	0	8062	591018	0	0
2024-09-08 07:27:47			0	36866	0	0	0	27932	26530	159122	26941	1075919	47075	110369	0	0	8064	590374	0	0
2024-09-08 07:28:47			0	36870	0	0	0	27932	26530	159190	27121	1075955	47085	110369	0	0	8064	590212	0	0
2024-09-08 07:29:47			0	36880	0	0	0	27940	26520	159058	27128	1075874	47074	110372	0	0	8064	589839	0	0
2024-09-08 07:30:47			0	36877	0	0	0	27935	26530	159062	27235	1075919	47075	110370	0	0	8064	589927	0	0
2024-09-08 07:31:47			0	36899	0	0	0	27929	26530	158942	26986	1075892	47085	110368	0	0	8066	589033	0	0
2024-09-08 07:32:47			0	36919	0	0	0	27922	26530	159086	27088	1075946	47075	110365	0	0	8067	588221	0	0
2024-09-08 07:33:47			0	36894	0	0	0	27927	26520	158966	27128	1075937	47075	110367	0	0	8065	589270	0	0
2024-09-08 07:34:47			0	36900	0	0	0	27927	26520	159062	27229	1075928	47084	110367	0	0	8066	589026	0	0
2024-09-08 07:35:47			0	36889	0	0	0	27940	26530	159066	27263	1075946	47075	110372	0	0	8065	589439	0	0
2024-09-08 07:36:47			0	36871	0	0	0	27932	26510	159106	27209	1075910	47083	110369	0	0	8064	590238	0	0
2024-09-08 07:37:47			0	36874	0	0	0	27945	26520	159042	27003	1075937	47085	110374	0	0	8064	590083	0	0
2024-09-08 07:38:47			0	36885	0	0	0	27950	26520	159106	27220	1075937	47085	110376	0	0	8064	589636	0	0
2024-09-08 07:39:47			0	36872	0	0	0	27940	26530	159122	27272	1075946	47075	110372	0	0	8064	590130	0	0
2024-09-08 07:40:47			0	36873	0	0	0	27948	26530	159186	26807	1075955	47085	110375	0	0	8064	590090	0	0
2024-09-08 07:41:47			0	36866	0	0	0	27942	26520	159062	27319	1075937	47085	110373	0	0	8063	590408	0	0
2024-09-08 07:42:47			0	36867	0	0	0	27950	26530	159070	26897	1076000	47096	110376	0	0	8063	590334	0	0
2024-09-08 07:43:47			0	36884	0	0	0	27937	26530	159070	27104	1075928	47075	110371	0	0	8065	589643	0	0
2024-09-08 07:44:47			0	36876	0	0	0	27953	26520	159050	27130	1075991	47085	110377	0	0	8064	590001	0	0
2024-09-08 07:45:47			0	36882	0	0	0	27950	26520	159074	27268	1075964	47085	110376	0	0	8064	589757	0	0
2024-09-08 07:46:47			0	36894	0	0	0	27948	26530	159146	26805	1075973	47085	110375	0	0	8065	589236	0	0
2024-09-08 07:47:47			0	36879	0	0	0	27945	26530	159218	26994	1075946	47085	110374	0	0	8064	589846	0	0
2024-09-08 07:48:47			0	36860	0	0	0	27942	26530	159094	27100	1076009	47075	110373	0	0	8063	590618	0	0
2024-09-08 07:49:47			0	36865	0	0	0	27948	26530	159150	26772	1076009	47108	110375	0	0	8063	590415	0	0
2024-09-08 07:50:47			0	36869	0	0	0	27940	26530	159146	27067	1075955	47108	110372	0	0	8064	590252	0	0
2024-09-08 07:51:47			0	36870	0	0	0	27948	26530	159030	26875	1075946	47085	110375	0	0	8064	590212	0	0
2024-09-08 07:52:47			0	36872	0	0	0	27932	26530	159094	26661	1075973	47085	110369	0	0	8064	590130	0	0
2024-09-08 07:53:47			0	36872	0	0	0	27945	26540	159146	27069	1075974	47077	110374	0	0	8064	590096	0	0
2024-09-08 07:54:47			0	36877	0	0	0	27958	26530	159190	26911	1075955	47096	110379	0	0	8064	589927	0	0
2024-09-08 07:55:47			0	36859	0	0	0	27950	26530	159170	26896	1076036	47085	110376	0	0	8063	590659	0	0
2024-09-08 07:56:47			0	36869	0	0	0	27958	26540	159138	26798	1075991	47086	110379	0	0	8063	590219	0	0
2024-09-08 07:57:47			0	36860	0	0	0	27942	26530	159198	27072	1075973	47085	110373	0	0	8063	590618	0	0
2024-09-08 07:58:47			0	36847	0	0	0	27945	26530	159118	26727	1075982	47085	110374	0	0	8062	591147	0	0
2024-09-08 07:59:47			0	36862	0	0	0	27961	26530	159174	26760	1076000	47075	110380	0	0	8063	590537	0	0
2024-09-08 08:00:47			0	36845	0	0	0	27948	26530	159226	27053	1075955	47085	110375	0	0	8062	591229	0	0
2024-09-08 08:01:47			0	36848	0	0	0	27942	26540	159250	26875	1075991	47086	110373	0	0	8063	591073	0	0
2024-09-08 08:02:47			0	36845	0	0	0	27945	26530	159274	27109	1076000	47085	110374	0	0	8062	591229	0	0
2024-09-08 08:03:47			0	36844	0	0	0	27955	26530	159322	27079	1076000	47085	110378	0	0	8062	591270	0	0
2024-09-08 08:04:47			0	36838	0	0	0	27958	26540	159330	26993	1076099	47086	110379	0	0	8062	591480	0	0
2024-09-08 08:05:47			0	36832	0	0	0	27963	26530	159362	26845	1076036	47075	110381	0	0	8061	591758	0	0
2024-09-08 08:06:47			0	36822	0	0	0	27955	26530	159366	27055	1076009	47075	110378	0	0	8061	592166	0	0
2024-09-08 08:07:47			0	36826	0	0	0	27976	26540	159338	27251	1076099	47097	110386	0	0	8061	591969	0	0
2024-09-08 08:08:47			0	36818	0	0	0	27979	26540	159458	26861	1076072	47097	110387	0	0	8060	592295	0	0
2024-09-08 08:09:47			0	36810	0	0	0	27979	26550	159406	27005	1076036	47087	110387	0	0	8060	592587	0	0
2024-09-08 08:10:47			0	36818	0	0	0	27966	26550	159430	27131	1076036	47087	110382	0	0	8060	592261	0	0
2024-09-08 08:11:47			0	36811	0	0	0	27979	26540	159454	26864	1076099	47086	110387	0	0	8060	592580	0	0
2024-09-08 08:12:47			0	36821	0	0	0	27984	26540	159470	27059	1076027	47087	110389	0	0	8060	592173	0	0
2024-09-08 08:13:47			0	36802	0	0	0	27976	26540	159506	26658	1076072	47097	110386	0	0	8059	592948	0	0
2024-09-08 08:14:47			0	36808	0	0	0	27974	26550	159498	26996	1076072	47088	110385	0	0	8060	592669	0	0
2024-09-08 08:15:47			0	36797	0	0	0	27955	26550	159342	26864	1076090	47087	110378	0	0	8059	593118	0	0
2024-09-08 08:16:47			0	36807	0	0	0	27955	26540	159394	27100	1076108	47065	110378	0	0	8060	592744	0	0
2024-09-08 08:17:47			0	36809	0	0	0	27963	26540	159334	27076	1076108	47087	110381	0	0	8060	592662	0	0
2024-09-08 08:18:47			0	36810	0	0	0	27979	26550	159374	26700	1076117	47099	110387	0	0	8060	592587	0	0
2024-09-08 08:19:47			0	36812	0	0	0	27953	26560	159294	27203	1076162	47088	110377	0	0	8060	592472	0	0
2024-09-08 08:20:47			0	36817	0	0	0	27922	26560	159330	26677	1076108	47088	110365	0	0	8061	592268	0	0
2024-09-08 08:21:47			0	36822	0	0	0	27924	26560	159442	27043	1076028	47078	110366	0	0	8061	592064	0	0
2024-09-08 08:22:47			0	36830	0	0	0	27974	26550	159406	27126	1076063	47087	110385	0	0	8061	591772	0	0
2024-09-08 08:23:47			0	36827	0	0	0	27966	26550	159394	27121	1076099	47088	110382	0	0	8061	591894	0	0
2024-09-08 08:24:47			0	36809	0	0	0	27950	26550	159366	27060	1076063	47087	110376	0	0	8060	592628	0	0
2024-09-08 08:25:47			0	36821	0	0	0	27932	26550	159438	26727	1076072	47088	110369	0	0	8061	592139	0	0
2024-09-08 08:26:47			0	36821	0	0	0	27937	26550	159410	27147	1076090	47087	110371	0	0	8061	592139	0	0
2024-09-08 08:27:47			0	36822	0	0	0	27963	26550	159286	27102	1076090	47077	110381	0	0	8061	592098	0	0
2024-09-08 08:28:47			0	36821	0	0	0	27968	26550	159382	26759	1076099	47078	110383	0	0	8061	592139	0	0
2024-09-08 08:29:47			0	36839	0	0	0	27953	26550	159466	27154	1076117	47077	110377	0	0	8062	591406	0	0
2024-09-08 08:30:47			0	36820	0	0	0	27961	26550	159394	26866	1076117	47077	110380	0	0	8061	592180	0	0
2024-09-08 08:31:47			0	36821	0	0	0	27953	26550	159434	26736	1076072	47088	110377	0	0	8061	592139	0	0
2024-09-08 08:32:47			0	36820	0	0	0	27974	26560	159450	27137	1076081	47088	110385	0	0	8060	592146	0	0
2024-09-08 08:33:47			0	36816	0	0	0	27968	26550	159458	26922	1076099	47088	110383	0	0	8060	592343	0	0
2024-09-08 08:34:47			0	36806	0	0	0	27966	26550	159434	26911	1076117	47077	110382	0	0	8060	592750	0	0
2024-09-08 08:35:47			0	36808	0	0	0	27955	26550	159550	27149	1076144	47087	110378	0	0	8060	592669	0	0
2024-09-08 08:36:47			0	36792	0	0	0	27945	26560	159398	26949	1076081	47088	110374	0	0	8059	593288	0	0
2024-09-08 08:37:47			0	36781	0	0	0	27950	26560	159454	27005	1076054	47088	110376	0	0	8058	593737	0	0
2024-09-08 08:38:47			0	36775	0	0	0	27945	26550	159506	27027	1076045	47066	110374	0	0	8058	594016	0	0
2024-09-08 08:39:47			0	36765	0	0	0	27940	26540	159506	27019	1076000	47087	110372	0	0	8058	594458	0	0
2024-09-08 08:40:47			0	36767	0	0	0	27924	26540	159526	27498	1076000	47077	110366	0	0	8058	594377	0	0
2024-09-08 08:41:47			0	36743	0	0	0	27937	26550	159674	27185	1076090	47077	110371	0	0	8056	595324	0	0
2024-09-08 08:42:47			0	36744	0	0	0	27937	26540	159634	27213	1076081	47087	110371	0	0	8056	595317	0	0
2024-09-08 08:43:47			0	36733	0	0	0	27945	26550	159766	27305	1076010	47087	110374	0	0	8056	595733	0	0
2024-09-08 08:44:47			0	36727	0	0	0	27942	26540	159674	27197	1076018	47097	110373	0	0	8055	596013	0	0
2024-09-08 08:45:47			0	36729	0	0	0	27942	26540	159766	27092	1076000	47077	110373	0	0	8055	595931	0	0
2024-09-08 08:46:47			0	36716	0	0	0	27942	26530	159786	27261	1076009	47075	110373	0	0	8055	596497	0	0
2024-09-08 08:47:47			0	36744	0	0	0	27950	26540	159718	27230	1076027	47065	110376	0	0	8056	595317	0	0
2024-09-08 08:48:47			0	36732	0	0	0	27945	26550	159778	27315	1076072	47088	110374	0	0	8056	595774	0	0
2024-09-08 08:49:47			0	36726	0	0	0	27940	26550	159766	27256	1076036	47077	110372	0	0	8055	596019	0	0
2024-09-08 08:50:47			0	36747	0	0	0	27940	26540	159738	27128	1075991	47076	110372	0	0	8057	595194	0	0
2024-09-08 08:51:47			0	36777	0	0	0	27953	26540	159570	26955	1076054	47087	110377	0	0	8058	593968	0	0
2024-09-08 08:52:47			0	36807	0	0	0	27958	26540	159354	27225	1076072	47086	110379	0	0	8060	592744	0	0
2024-09-08 08:53:47			0	36840	0	0	0	27966	26540	159214	26814	1076027	47087	110382	0	0	8062	591399	0	0
2024-09-08 08:54:47			0	36866	0	0	0	27961	26540	159122	26847	1076072	47076	110380	0	0	8063	590340	0	0
2024-09-08 08:55:47			0	36891	0	0	0	27950	26550	158970	27107	1076090	47087	110376	0	0	8065	589291	0	0
2024-09-08 08:56:47			0	36894	0	0	0	27955	26540	158982	26967	1076081	47065	110378	0	0	8065	589202	0	0
2024-09-08 08:57:47			0	36903	0	0	0	27968	26550	158950	26797	1076099	47088	110383	0	0	8065	588803	0	0
2024-09-08 08:58:47			0	36929	0	0	0	27955	26550	158998	27064	1076036	47087	110378	0	0	8067	587748	0	0
2024-09-08 08:59:47			0	36918	0	0	0	27942	26530	158982	26759	1076089	47075	110373	0	0	8067	588262	0	0
2024-09-08 09:00:47			0	36971	0	0	0	27898	26550	158630	26932	1076036	47077	110356	0	0	8071	586047	0	0
2024-09-08 09:01:47			0	37001	0	0	0	27854	26530	158498	27062	1075901	47063	110339	0	0	8073	584900	0	0
2024-09-08 09:02:47			0	37017	0	0	0	27890	26520	158494	26764	1075910	47075	110353	0	0	8073	584287	0	0
2024-09-08 09:03:47			0	37017	0	0	0	27909	26510	158570	27116	1075919	47061	110360	0	0	8073	584321	0	0
2024-09-08 09:04:47			0	37000	0	0	0	27911	26520	158458	27031	1075874	47084	110361	0	0	8072	584974	0	0
2024-09-08 09:05:47			0	37000	0	0	0	27922	26500	158570	26712	1075847	47083	110365	0	0	8072	585041	0	0
2024-09-08 09:06:47			0	36966	0	0	0	27914	26510	158582	26781	1075892	47083	110362	0	0	8070	586383	0	0
2024-09-08 09:07:47			0	36975	0	0	0	27909	26520	158722	27104	1075955	47062	110360	0	0	8070	585985	0	0
2024-09-08 09:08:47			0	36974	0	0	0	27906	26510	158686	27053	1075829	47073	110359	0	0	8070	586059	0	0
2024-09-08 09:09:47			0	36995	0	0	0	27909	26510	158586	26783	1075856	47083	110360	0	0	8072	585210	0	0
2024-09-08 09:10:47			0	36999	0	0	0	27896	26510	158570	26942	1075883	47073	110355	0	0	8072	585048	0	0
2024-09-08 09:11:47			0	37045	0	0	0	27906	26500	158266	26812	1075838	47072	110359	0	0	8075	583224	0	0
2024-09-08 09:12:47			0	37091	0	0	0	27903	26500	158186	26871	1075847	47073	110358	0	0	8077	581370	0	0
2024-09-08 09:13:47			0	37144	0	0	0	27911	26510	157922	27064	1075883	47073	110361	0	0	8080	579205	0	0
2024-09-08 09:14:47			0	37192	0	0	0	27906	26500	157814	26998	1075874	47083	110359	0	0	8083	577313	0	0
2024-09-08 09:15:47			0	37193	0	0	0	27909	26510	157738	26916	1075829	47073	110360	0	0	8083	577240	0	0
2024-09-08 09:16:47			0	37219	0	0	0	27914	26500	157690	27100	1075874	47083	110362	0	0	8085	576231	0	0
2024-09-08 09:17:47			0	37223	0	0	0	27914	26500	157666	27213	1075820	47083	110362	0	0	8085	576071	0	0
2024-09-08 09:18:47			0	37224	0	0	0	27909	26500	157582	26923	1075901	47083	110360	0	0	8085	576031	0	0
2024-09-08 09:19:47			0	37240	0	0	0	27906	26510	157622	27204	1075856	47083	110359	0	0	8086	575358	0	0
2024-09-08 09:20:47			0	37206	0	0	0	27909	26500	157626	26967	1075901	47083	110360	0	0	8084	576752	0	0
2024-09-08 09:21:47			0	37224	0	0	0	27914	26510	157666	27086	1075856	47073	110362	0	0	8085	575998	0	0
2024-09-08 09:22:47			0	37217	0	0	0	27909	26510	157734	26946	1075856	47073	110360	0	0	8085	576278	0	0
2024-09-08 09:23:47			0	37219	0	0	0	27898	26500	157778	27026	1075865	47083	110356	0	0	8085	576231	0	0
2024-09-08 09:24:47			0	37186	0	0	0	27911	26500	157650	26672	1075847	47083	110361	0	0	8083	577553	0	0
2024-09-08 09:25:47			0	37214	0	0	0	27906	26490	157654	26696	1075802	47082	110359	0	0	8084	576464	0	0
2024-09-08 09:26:47			0	37210	0	0	0	27911	26500	157686	26623	1075820	47073	110361	0	0	8084	576592	0	0
2024-09-08 09:27:47			0	37211	0	0	0	27911	26500	157742	27036	1075865	47072	110361	0	0	8084	576552	0	0
2024-09-08 09:28:47			0	37224	0	0	0	27906	26500	157554	26922	1075838	47093	110359	0	0	8085	576031	0	0
2024-09-08 09:29:47			0	37246	0	0	0	27903	26500	157494	26837	1075820	47083	110358	0	0	8086	575151	0	0
2024-09-08 09:30:47			0	37248	0	0	0	27880	26500	157438	27190	1075811	47083	110349	0	0	8087	575071	0	0
2024-09-08 09:31:47			0	37241	0	0	0	27888	26500	157398	26663	1075793	47073	110352	0	0	8086	575351	0	0
2024-09-08 09:32:47			0	37258	0	0	0	27880	26500	157398	27345	1075784	47072	110349	0	0	8088	574672	0	0
2024-09-08 09:33:47			0	37281	0	0	0	27880	26490	157394	26694	1075802	47071	110349	0	0	8089	573786	0	0
2024-09-08 09:34:47			0	37284	0	0	0	27893	26490	157414	27178	1075766	47082	110354	0	0	8089	573666	0	0
2024-09-08 09:35:47			0	37290	0	0	0	27890	26490	157446	27005	1075856	47082	110353	0	0	8089	573427	0	0
2024-09-08 09:36:47			0	37288	0	0	0	27885	26490	157402	27017	1075685	47071	110351	0	0	8089	573507	0	0
2024-09-08 09:37:47			0	37296	0	0	0	27885	26490	157322	26968	1075820	47059	110351	0	0	8090	573188	0	0
2024-09-08 09:38:47			0	37303	0	0	0	27890	26500	157310	27095	1075757	47083	110353	0	0	8090	572876	0	0
2024-09-08 09:39:47			0	37290	0	0	0	27898	26490	157354	27029	1075793	47082	110356	0	0	8089	573427	0	0
2024-09-08 09:40:47			0	37331	0	0	0	27893	26490	157295	27072	1075766	47082	110354	0	0	8092	571793	0	0
2024-09-08 09:41:47			0	37308	0	0	0	27890	26480	157354	26974	1075757	47070	110353	0	0	8090	572742	0	0
2024-09-08 09:42:47			0	37305	0	0	0	27898	26480	157350	26871	1075757	47091	110356	0	0	8090	572862	0	0
2024-09-08 09:43:47			0	37302	0	0	0	27888	26490	157338	26994	1075766	47059	110352	0	0	8090	572949	0	0
2024-09-08 09:44:47			0	37320	0	0	0	27893	26490	157299	26956	1075766	47071	110354	0	0	8091	572231	0	0
2024-09-08 09:45:47			0	37312	0	0	0	27893	26480	157250	27260	1075802	47070	110354	0	0	8090	572583	0	0
2024-09-08 09:46:47			0	37341	0	0	0	27893	26480	157171	26975	1075757	47081	110354	0	0	8092	571427	0	0
2024-09-08 09:47:47			0	37330	0	0	0	27893	26490	157199	27216	1075820	47082	110354	0	0	8091	571833	0	0
2024-09-08 09:48:47			0	37320	0	0	0	27896	26490	157091	27180	1075829	47082	110355	0	0	8091	572231	0	0
2024-09-08 09:49:47			0	37329	0	0	0	27890	26490	157239	27445	1075712	47071	110353	0	0	8091	571873	0	0
2024-09-08 09:50:47			0	37322	0	0	0	27888	26490	157126	27196	1075775	47082	110352	0	0	8091	572151	0	0
2024-09-08 09:51:47			0	37316	0	0	0	27890	26490	157223	27353	1075793	47092	110353	0	0	8091	572390	0	0
2024-09-08 09:52:47			0	37332	0	0	0	27896	26480	157147	27227	1075757	47091	110355	0	0	8091	571786	0	0
2024-09-08 09:53:47			0	37311	0	0	0	27883	26490	157166	27201	1075766	47071	110350	0	0	8091	572590	0	0
2024-09-08 09:54:47			0	37332	0	0	0	27890	26480	157167	27234	1075855	47081	110353	0	0	8092	571786	0	0
2024-09-08 09:55:47			0	37320	0	0	0	27896	26480	157243	27150	1075748	47081	110355	0	0	8091	572264	0	0
2024-09-08 09:56:47			0	37332	0	0	0	27898	26480	157155	27261	1075748	47070	110356	0	0	8091	571786	0	0
2024-09-08 09:57:47			0	37342	0	0	0	27901	26490	157155	27358	1075820	47059	110357	0	0	8092	571355	0	0
2024-09-08 09:58:47			0	37347	0	0	0	27906	26490	157103	27280	1075793	47071	110359	0	0	8092	571156	0	0
2024-09-08 09:59:47			0	37372	0	0	0	27919	26500	157079	27088	1075838	47060	110364	0	0	8094	570129	0	0
2024-09-08 10:00:47			0	37417	0	0	0	27932	26490	156931	27235	1075856	47092	110369	0	0	8096	568375	0	0
2024-09-08 10:01:47			0	37459	0	0	0	27929	26500	156655	27026	1075865	47093	110368	0	0	8098	566678	0	0
2024-09-08 10:02:47			0	37495	0	0	0	27916	26490	156587	27128	1075927	47092	110363	0	0	8101	565287	0	0
2024-09-08 10:03:47			0	37538	0	0	0	27919	26500	156259	27249	1075847	47083	110364	0	0	8103	563556	0	0
2024-09-08 10:04:47			0	37581	0	0	0	27916	26510	156279	27279	1075919	47094	110363	0	0	8106	561830	0	0
2024-09-08 10:05:47			0	37595	0	0	0	27916	26510	156091	27369	1075883	47083	110363	0	0	8107	561279	0	0
2024-09-08 10:06:47			0	37604	0	0	0	27924	26510	156055	27192	1075937	47094	110366	0	0	8107	560925	0	0
2024-09-08 10:07:47			0	37619	0	0	0	27916	26520	155931	27426	1075955	47084	110363	0	0	8108	560303	0	0
2024-09-08 10:08:47			0	37614	0	0	0	27922	26510	155967	27242	1075883	47073	110365	0	0	8108	560532	0	0
2024-09-08 10:09:47			0	37637	0	0	0	27919	26510	156047	27384	1075946	47073	110364	0	0	8109	559628	0	0
2024-09-08 10:10:47			0	37626	0	0	0	27916	26520	156055	27190	1075955	47084	110363	0	0	8108	560028	0	0
2024-09-08 10:11:47			0	37630	0	0	0	27922	26510	155995	27078	1075937	47073	110365	0	0	8109	559903	0	0
2024-09-08 10:12:47			0	37634	0	0	0	27932	26500	155931	27223	1075928	47083	110369	0	0	8109	559778	0	0
2024-09-08 10:13:47			0	37619	0	0	0	27914	26500	156131	26835	1075928	47083	110362	0	0	8108	560367	0	0
2024-09-08 10:14:47			0	37614	0	0	0	27919	26510	156083	27258	1075910	47083	110364	0	0	8108	560532	0	0
2024-09-08 10:15:47			0	37612	0	0	0	27909	26510	156111	27071	1075946	47073	110360	0	0	8108	560610	0	0
2024-09-08 10:16:47			0	37603	0	0	0	27901	26500	156075	27220	1075901	47083	110357	0	0	8107	560996	0	0
2024-09-08 10:17:47			0	37606	0	0	0	27898	26510	156079	27029	1075892	47083	110356	0	0	8108	560846	0	0
2024-09-08 10:18:47			0	37594	0	0	0	27890	26510	156031	27215	1075946	47061	110353	0	0	8107	561318	0	0
2024-09-08 10:19:47			0	37611	0	0	0	27906	26520	156051	26996	1075928	47074	110359	0	0	8108	560617	0	0
2024-09-08 10:20:47			0	37606	0	0	0	27922	26520	156035	27005	1075874	47074	110365	0	0	8107	560814	0	0
2024-09-08 10:21:47			0	37608	0	0	0	27909	26500	156035	26920	1075928	47073	110360	0	0	8107	560800	0	0
2024-09-08 10:22:47			0	37603	0	0	0	27919	26510	156039	26986	1075919	47073	110364	0	0	8107	560964	0	0
2024-09-08 10:23:47			0	37588	0	0	0	27929	26510	156075	26904	1075946	47094	110368	0	0	8106	561554	0	0
2024-09-08 10:24:47			0	37606	0	0	0	27922	26510	156071	26733	1075937	47083	110365	0	0	8107	560846	0	0
2024-09-08 10:25:47			0	37593	0	0	0	27909	26520	156055	27303	1075928	47095	110360	0	0	8107	561325	0	0
2024-09-08 10:26:47			0	37596	0	0	0	27903	26520	156143	27100	1075901	47074	110358	0	0	8107	561207	0	0
2024-09-08 10:27:47			0	37598	0	0	0	27898	26510	156187	26972	1075892	47083	110356	0	0	8107	561161	0	0
2024-09-08 10:28:47			0	37598	0	0	0	27893	26520	156111	27078	1075901	47074	110354	0	0	8107	561129	0	0
2024-09-08 10:29:47			0	37598	0	0	0	27893	26510	156163	26755	1075865	47073	110354	0	0	8107	561161	0	0
2024-09-08 10:30:47			0	37558	0	0	0	27893	26510	156199	27085	1075892	47083	110354	0	0	8105	562736	0	0
2024-09-08 10:31:47			0	37580	0	0	0	27890	26520	156231	26904	1075874	47074	110353	0	0	8106	561837	0	0
2024-09-08 10:32:47			0	37560	0	0	0	27893	26510	156191	27062	1075892	47073	110354	0	0	8105	562657	0	0
2024-09-08 10:33:47			0	37557	0	0	0	27898	26510	156119	26987	1075892	47073	110356	0	0	8105	562775	0	0
2024-09-08 10:34:47			0	37554	0	0	0	27898	26510	156231	27209	1075856	47083	110356	0	0	8105	562893	0	0
2024-09-08 10:35:47			0	37536	0	0	0	27898	26520	156231	27230	1075874	47074	110356	0	0	8104	563571	0	0
2024-09-08 10:36:47			0	37540	0	0	0	27888	26520	156271	27067	1075874	47074	110352	0	0	8104	563413	0	0
2024-09-08 10:37:47			0	37536	0	0	0	27885	26520	156283	27045	1075928	47074	110351	0	0	8104	563571	0	0
2024-09-08 10:38:47			0	37525	0	0	0	27901	26510	156443	27107	1075856	47061	110357	0	0	8103	564037	0	0
2024-09-08 10:39:47			0	37528	0	0	0	27896	26500	156407	26824	1075874	47073	110355	0	0	8103	563951	0	0
2024-09-08 10:40:47			0	37525	0	0	0	27901	26510	156427	27138	1075829	47061	110357	0	0	8103	564037	0	0
2024-09-08 10:41:47			0	37493	0	0	0	27906	26500	156459	27064	1075874	47073	110359	0	0	8101	565333	0	0
2024-09-08 10:42:47			0	37491	0	0	0	27924	26500	156587	27045	1075820	47073	110366	0	0	8100	565412	0	0
2024-09-08 10:43:47			0	37467	0	0	0	27914	26510	156571	27391	1075919	47061	110362	0	0	8099	566329	0	0
2024-09-08 10:44:47			0	37468	0	0	0	27916	26510	156571	27325	1075946	47094	110363	0	0	8099	566290	0	0
2024-09-08 10:45:47			0	37458	0	0	0	27916	26510	156671	27277	1075946	47083	110363	0	0	8099	566685	0	0
2024-09-08 10:46:47			0	37469	0	0	0	27922	26510	156731	27083	1075919	47083	110365	0	0	8099	566250	0	0
2024-09-08 10:47:47			0	37441	0	0	0	27919	26500	156667	27345	1075901	47073	110364	0	0	8098	567391	0	0
2024-09-08 10:48:47			0	37442	0	0	0	27922	26520	156647	27228	1075964	47075	110365	0	0	8098	567286	0	0
2024-09-08 10:49:47			0	37435	0	0	0	27924	26520	156771	27216	1075991	47075	110366	0	0	8097	567564	0	0
2024-09-08 10:50:47			0	37416	0	0	0	27916	26520	156807	27234	1075928	47074	110363	0	0	8096	568317	0	0
2024-09-08 10:51:47			0	37421	0	0	0	27942	26520	156827	27358	1075964	47085	110373	0	0	8096	568119	0	0
2024-09-08 10:52:47			0	37410	0	0	0	27945	26530	156871	27019	1076027	47085	110374	0	0	8095	568523	0	0
2024-09-08 10:53:47			0	37413	0	0	0	27953	26520	156807	27157	1076018	47085	110377	0	0	8095	568436	0	0
2024-09-08 10:54:47			0	37427	0	0	0	27950	26530	156671	27203	1076054	47075	110376	0	0	8096	567849	0	0
2024-09-08 10:55:47			0	37458	0	0	0	27950	26530	156587	27192	1076063	47075	110376	0	0	8098	566621	0	0
2024-09-08 10:56:47			0	37471	0	0	0	27950	26540	156499	26996	1076018	47109	110376	0	0	8099	566074	0	0
2024-09-08 10:57:47			0	37512	0	0	0	27968	26530	156595	26887	1076036	47096	110383	0	0	8101	564486	0	0
2024-09-08 10:58:47			0	37502	0	0	0	27966	26530	156475	27066	1076089	47085	110382	0	0	8100	564881	0	0
2024-09-08 10:59:47			0	37522	0	0	0	27979	26540	156431	27022	1076125	47086	110387	0	0	8101	564059	0	0
2024-09-08 11:00:47			0	37523	0	0	0	27984	26540	156395	27133	1076108	47087	110389	0	0	8101	564019	0	0
2024-09-08 11:01:47			0	37501	0	0	0	27994	26540	156551	27057	1076162	47099	110393	0	0	8100	564888	0	0
2024-09-08 11:02:47			0	37503	0	0	0	28005	26540	156535	27119	1076135	47087	110397	0	0	8100	564809	0	0
2024-09-08 11:03:47			0	37479	0	0	0	27994	26550	156631	27213	1076126	47088	110393	0	0	8099	565725	0	0
2024-09-08 11:04:47			0	37463	0	0	0	28010	26560	156675	26913	1076225	47079	110399	0	0	8098	566325	0	0
2024-09-08 11:05:47			0	37432	0	0	0	28010	26560	156747	27412	1076269	47088	110399	0	0	8096	567553	0	0
2024-09-08 11:06:47			0	37405	0	0	0	28012	26560	156799	27098	1076243	47088	110400	0	0	8094	568623	0	0
2024-09-08 11:07:47			0	37403	0	0	0	28020	26570	156871	26996	1076270	47102	110403	0	0	8094	568670	0	0
2024-09-08 11:08:47			0	37370	0	0	0	28023	26570	156915	27410	1076315	47090	110404	0	0	8092	569980	0	0
2024-09-08 11:09:47			0	37369	0	0	0	28031	26580	157031	27069	1076359	47102	110407	0	0	8092	569987	0	0
2024-09-08 11:10:47			0	37353	0	0	0	28031	26580	156999	27026	1076342	47103	110407	0	0	8091	570623	0	0
2024-09-08 11:11:47			0	37327	0	0	0	28041	26590	157103	27255	1076378	47104	110411	0	0	8089	571625	0	0
2024-09-08 11:12:47			0	37302	0	0	0	28031	26590	157226	27267	1076404	47104	110407	0	0	8088	572621	0	0
2024-09-08 11:13:47			0	37265	0	0	0	28033	26590	157338	27159	1076431	47092	110408	0	0	8086	574097	0	0
2024-09-08 11:14:47			0	37254	0	0	0	28049	26600	157594	26826	1076449	47092	110414	0	0	8085	574503	0	0
2024-09-08 11:15:47			0	37213	0	0	0	28054	26610	157654	26838	1076468	47106	110416	0	0	8082	576109	0	0
2024-09-08 11:16:47			0	37189	0	0	0	28051	26600	157714	27178	1076476	47104	110415	0	0	8081	577103	0	0
2024-09-08 11:17:47			0	37171	0	0	0	28057	26610	157698	27206	1076504	47106	110417	0	0	8080	577791	0	0
2024-09-08 11:18:47			0	37148	0	0	0	28064	26620	157718	27007	1076522	47095	110420	0	0	8079	578680	0	0
2024-09-08 11:19:47			0	37149	0	0	0	28075	26620	157870	27232	1076522	47095	110424	0	0	8078	578640	0	0
2024-09-08 11:20:47			0	37150	0	0	0	28077	26620	157942	27076	1076593	47083	110425	0	0	8078	578600	0	0
2024-09-08 11:21:47			0	37149	0	0	0	28083	26630	157858	26890	1076558	47085	110427	0	0	8078	578607	0	0
2024-09-08 11:22:47			0	37138	0	0	0	28080	26630	157886	27081	1076647	47109	110426	0	0	8078	579049	0	0
2024-09-08 11:23:47			0	37137	0	0	0	28085	26640	157958	27031	1076576	47097	110428	0	0	8078	579056	0	0
2024-09-08 11:24:47			0	37136	0	0	0	28070	26640	157866	26896	1076710	47109	110422	0	0	8078	579096	0	0
2024-09-08 11:25:47			0	37143	0	0	0	28067	26640	157958	27279	1076710	47109	110421	0	0	8078	578815	0	0
2024-09-08 11:26:47			0	37150	0	0	0	28049	26660	157954	27367	1076639	47099	110414	0	0	8079	578468	0	0
2024-09-08 11:27:47			0	37143	0	0	0	28025	26660	157766	27187	1076657	47088	110405	0	0	8079	578748	0	0
2024-09-08 11:28:47			0	37173	0	0	0	28031	26640	157622	26896	1076576	47097	110407	0	0	8081	577612	0	0
2024-09-08 11:29:47			0	37207	0	0	0	28023	26640	157502	27145	1076585	47086	110404	0	0	8083	576250	0	0
2024-09-08 11:30:47			0	37266	0	0	0	28028	26640	157314	27031	1076558	47086	110406	0	0	8086	573892	0	0
2024-09-08 11:31:47			0	37314	0	0	0	28033	26640	157198	27050	1076576	47086	110408	0	0	8089	571979	0	0
2024-09-08 11:32:47			0	37335	0	0	0	28025	26630	156995	26979	1076540	47086	110405	0	0	8090	571176	0	0
2024-09-08 11:33:47			0	37371	0	0	0	28005	26630	156967	27222	1076504	47085	110397	0	0	8093	569745	0	0
2024-09-08 11:34:47			0	37406	0	0	0	28012	26620	156827	27138	1076441	47084	110400	0	0	8095	568389	0	0
2024-09-08 11:35:47			0	37438	0	0	0	28020	26620	156707	26861	1076441	47084	110403	0	0	8096	567120	0	0
2024-09-08 11:36:47			0	37441	0	0	0	27994	26620	156651	27334	1076441	47062	110393	0	0	8097	567002	0	0
2024-09-08 11:37:47			0	37466	0	0	0	27976	26620	156543	27176	1076432	47073	110386	0	0	8099	566012	0	0
2024-09-08 11:38:47			0	37494	0	0	0	27992	26620	156403	27235	1076432	47083	110392	0	0	8100	564906	0	0
2024-09-08 11:39:47			0	37511	0	0	0	28007	26610	156307	26850	1076414	47083	110398	0	0	8101	564267	0	0
2024-09-08 11:40:47			0	37555	0	0	0	28005	26610	156279	27152	1076360	47073	110397	0	0	8103	562532	0	0
2024-09-08 11:41:47			0	37577	0	0	0	27994	26600	156243	27144	1076396	47092	110393	0	0	8105	561698	0	0
2024-09-08 11:42:47			0	37570	0	0	0	27966	26610	156015	27012	1076360	47083	110382	0	0	8105	561941	0	0
2024-09-08 11:43:47			0	37588	0	0	0	27976	26590	156127	27164	1076270	47082	110386	0	0	8106	561297	0	0
2024-09-08 11:44:47			0	37587	0	0	0	27961	26590	156067	27027	1076270	47070	110380	0	0	8106	561337	0	0
2024-09-08 11:45:47			0	37583	0	0	0	27968	26590	156071	26902	1076270	47092	110383	0	0	8105	561494	0	0
2024-09-08 11:46:47			0	37591	0	0	0	27971	26580	156111	26920	1076207	47091	110384	0	0	8106	561211	0	0
2024-09-08 11:47:47			0	37576	0	0	0	27989	26580	156027	26887	1076306	47102	110391	0	0	8105	561802	0	0
2024-09-08 11:48:47			0	37580	0	0	0	27986	26580	156079	27069	1076315	47091	110390	0	0	8105	561644	0	0
2024-09-08 11:49:47			0	37580	0	0	0	28005	26590	156163	26823	1076297	47092	110397	0	0	8105	561612	0	0
2024-09-08 11:50:47			0	37590	0	0	0	28007	26590	156115	26897	1076351	47104	110398	0	0	8105	561219	0	0
2024-09-08 11:51:47			0	37601	0	0	0	28002	26590	156091	27109	1076297	47092	110396	0	0	8106	560786	0	0
2024-09-08 11:52:47			0	37591	0	0	0	27981	26590	156107	27313	1076351	47092	110388	0	0	8106	561179	0	0
2024-09-08 11:53:47			0	37616	0	0	0	27984	26580	156035	26982	1076279	47090	110389	0	0	8107	560229	0	0
2024-09-08 11:54:47			0	37612	0	0	0	28023	26580	155899	27017	1076369	47091	110404	0	0	8106	560386	0	0
2024-09-08 11:55:47			0	37624	0	0	0	27994	26590	155935	27154	1076324	47092	110393	0	0	8107	559882	0	0
2024-09-08 11:56:47			0	37636	0	0	0	27968	26590	155887	26941	1076351	47092	110383	0	0	8109	559411	0	0
2024-09-08 11:57:47			0	37648	0	0	0	27966	26570	155935	27230	1076297	47090	110382	0	0	8109	559004	0	0
2024-09-08 11:58:47			0	37637	0	0	0	27971	26580	155903	26795	1076252	47068	110384	0	0	8108	559404	0	0
2024-09-08 11:59:47			0	37634	0	0	0	27966	26580	155927	27060	1076279	47068	110382	0	0	8108	559522	0	0
2024-09-08 12:00:47			0	37634	0	0	0	27971	26580	155911	27225	1076306	47080	110384	0	0	8108	559522	0	0
2024-09-08 12:01:47			0	37621	0	0	0	27981	26580	156003	27261	1076261	47069	110388	0	0	8107	560032	0	0
2024-09-08 12:02:47			0	37604	0	0	0	27979	26570	156023	27180	1076261	47080	110387	0	0	8106	560732	0	0
2024-09-08 12:03:47			0	37622	0	0	0	27997	26570	155915	27343	1076234	47090	110394	0	0	8107	560025	0	0
2024-09-08 12:04:47			0	37625	0	0	0	28010	26570	155931	26939	1076297	47080	110399	0	0	8107	559907	0	0
2024-09-08 12:05:47			0	37622	0	0	0	28018	26580	155955	27015	1076279	47090	110402	0	0	8107	559993	0	0
2024-09-08 12:06:47			0	37631	0	0	0	28023	26580	155967	26949	1076342	47103	110404	0	0	8107	559640	0	0
2024-09-08 12:07:47			0	37639	0	0	0	27999	26580	156007	27019	1076359	47090	110395	0	0	8108	559326	0	0
2024-09-08 12:08:47			0	37650	0	0	0	27999	26590	155823	27474	1076378	47082	110395	0	0	8109	558862	0	0
2024-09-08 12:09:47			0	37659	0	0	0	28010	26580	155851	27204	1076369	47091	110399	0	0	8109	558541	0	0
2024-09-08 12:10:47			0	37663	0	0	0	28002	26590	155891	26989	1076351	47082	110396	0	0	8110	558352	0	0
2024-09-08 12:11:47			0	37669	0	0	0	28007	26580	155823	27201	1076369	47091	110398	0	0	8110	558149	0	0
2024-09-08 12:12:47			0	37657	0	0	0	27989	26590	155815	27133	1076351	47092	110391	0	0	8109	558587	0	0
2024-09-08 12:13:47			0	37672	0	0	0	27979	26590	155823	27138	1076333	47092	110387	0	0	8110	557999	0	0
2024-09-08 12:14:47			0	37664	0	0	0	27976	26590	155791	27376	1076324	47070	110386	0	0	8110	558313	0	0
2024-09-08 12:15:47			0	37646	0	0	0	27989	26580	155863	27088	1076306	47090	110391	0	0	8109	559051	0	0
2024-09-08 12:16:47			0	37659	0	0	0	27981	26590	155791	27284	1076351	47070	110388	0	0	8110	558509	0	0
2024-09-08 12:17:47			0	37656	0	0	0	27989	26590	155779	27076	1076324	47082	110391	0	0	8109	558627	0	0
2024-09-08 12:18:47			0	37638	0	0	0	27981	26590	155851	27192	1076297	47070	110388	0	0	8108	559333	0	0
2024-09-08 12:19:47			0	37656	0	0	0	27976	26570	155891	27365	1076297	47090	110386	0	0	8109	558691	0	0
2024-09-08 12:20:47			0	37672	0	0	0	27986	26580	155831	27033	1076279	47080	110390	0	0	8110	558031	0	0
2024-09-08 12:21:47			0	37671	0	0	0	27986	26580	155859	27228	1076252	47068	110390	0	0	8110	558070	0	0
2024-09-08 12:22:47			0	37667	0	0	0	27994	26580	155811	27364	1076306	47080	110393	0	0	8110	558227	0	0
2024-09-08 12:23:47			0	37666	0	0	0	28007	26580	155687	27088	1076359	47090	110398	0	0	8110	558267	0	0
2024-09-08 12:24:47			0	37664	0	0	0	28015	26580	155783	27067	1076333	47102	110401	0	0	8109	558345	0	0
2024-09-08 12:25:47			0	37664	0	0	0	28010	26580	155747	27277	1076395	47069	110399	0	0	8109	558345	0	0
2024-09-08 12:26:47			0	37665	0	0	0	28012	26580	155855	27168	1076359	47102	110400	0	0	8109	558306	0	0
2024-09-08 12:27:47			0	37671	0	0	0	28025	26590	155919	27237	1076404	47092	110405	0	0	8110	558039	0	0
2024-09-08 12:28:47			0	37663	0	0	0	28020	26590	155795	27090	1076351	47104	110403	0	0	8109	558352	0	0
2024-09-08 12:29:47			0	37657	0	0	0	28015	26590	155839	26878	1076467	47104	110401	0	0	8109	558587	0	0
2024-09-08 12:30:47			0	37670	0	0	0	28015	26600	155703	27090	1076396	47092	110401	0	0	8110	558046	0	0
2024-09-08 12:31:47			0	37674	0	0	0	28023	26590	155727	27100	1076414	47104	110404	0	0	8110	557921	0	0
2024-09-08 12:32:47			0	37681	0	0	0	28023	26600	155723	27377	1076396	47104	110404	0	0	8110	557615	0	0
2024-09-08 12:33:47			0	37695	0	0	0	28020	26600	155631	27173	1076459	47093	110403	0	0	8111	557067	0	0
2024-09-08 12:34:47			0	37688	0	0	0	28020	26600	155691	27327	1076405	47093	110403	0	0	8111	557341	0	0
2024-09-08 12:35:47			0	37683	0	0	0	28031	26600	155671	27166	1076369	47092	110407	0	0	8110	557537	0	0
2024-09-08 12:36:47			0	37708	0	0	0	28033	26610	155727	27185	1076441	47083	110408	0	0	8112	556526	0	0
2024-09-08 12:37:47			0	37709	0	0	0	28031	26600	155615	26955	1076459	47105	110407	0	0	8112	556519	0	0
2024-09-08 12:38:47			0	37737	0	0	0	28041	26620	155615	27150	1076486	47106	110411	0	0	8113	555361	0	0
2024-09-08 12:39:47			0	37719	0	0	0	28067	26620	155623	27450	1076459	47094	110421	0	0	8112	556064	0	0
2024-09-08 12:40:47			0	37729	0	0	0	28106	26610	155579	26984	1076629	47117	110436	0	0	8112	555705	0	0
2024-09-08 12:41:47			0	37722	0	0	0	28129	26620	155607	27128	1076620	47094	110445	0	0	8111	555947	0	0
2024-09-08 12:42:47			0	37736	0	0	0	28085	26630	155599	26908	1076755	47120	110428	0	0	8113	555368	0	0
2024-09-08 12:43:47			0	37753	0	0	0	28106	26640	155515	27005	1076737	47130	110436	0	0	8113	554673	0	0
2024-09-08 12:44:47			0	37756	0	0	0	28116	26660	155559	27157	1076845	47111	110440	0	0	8113	554492	0	0
2024-09-08 12:45:47			0	37765	0	0	0	28119	26640	155375	27078	1076907	47120	110441	0	0	8114	554204	0	0
2024-09-08 12:46:47			0	37772	0	0	0	28114	26670	155371	27235	1076890	47111	110439	0	0	8114	553836	0	0
2024-09-08 12:47:47			0	37777	0	0	0	28116	26670	155295	27246	1076872	47112	110440	0	0	8115	553641	0	0
2024-09-08 12:48:47			0	37759	0	0	0	28093	26680	155275	26998	1076971	47101	110431	0	0	8114	554311	0	0
2024-09-08 12:49:47			0	37769	0	0	0	28080	26680	155355	27341	1076962	47101	110426	0	0	8115	553921	0	0
2024-09-08 12:50:47			0	37788	0	0	0	28085	26680	155323	27076	1076864	47113	110428	0	0	8116	553181	0	0
2024-09-08 12:51:47			0	37777	0	0	0	28072	26670	155187	27352	1076845	47100	110423	0	0	8115	553641	0	0
2024-09-08 12:52:47			0	37785	0	0	0	28067	26660	155139	27402	1076693	47066	110421	0	0	8116	553361	0	0
2024-09-08 12:53:47			0	37782	0	0	0	28072	26680	155311	27161	1076774	47080	110423	0	0	8116	553414	0	0
2024-09-08 12:54:47			0	37785	0	0	0	28059	26660	155211	27157	1076854	47078	110418	0	0	8116	553361	0	0
2024-09-08 12:55:47			0	37787	0	0	0	28054	26680	155251	27010	1076747	47080	110416	0	0	8116	553220	0	0
2024-09-08 12:56:47			0	37791	0	0	0	28054	26650	155235	27246	1076755	47087	110416	0	0	8116	553159	0	0
2024-09-08 12:57:47			0	37825	0	0	0	28059	26660	155115	27215	1076612	47099	110418	0	0	8118	551803	0	0
2024-09-08 12:58:47			0	37834	0	0	0	28057	26660	154979	27126	1076710	47088	110417	0	0	8119	551454	0	0
2024-09-08 12:59:47			0	37844	0	0	0	28064	26660	155031	26817	1076684	47088	110420	0	0	8119	551065	0	0
2024-09-08 13:00:47			0	37848	0	0	0	28062	26650	155135	27092	1076701	47098	110419	0	0	8119	550941	0	0
2024-09-08 13:01:47			0	37859	0	0	0	28059	26660	154983	27147	1076800	47088	110418	0	0	8120	550482	0	0
2024-09-08 13:02:47			0	37883	0	0	0	28038	26650	154911	27306	1076675	47098	110410	0	0	8122	549582	0	0
2024-09-08 13:03:47			0	37891	0	0	0	28057	26650	154839	27142	1076648	47098	110417	0	0	8122	549271	0	0
2024-09-08 13:04:47			0	37896	0	0	0	28044	26640	154815	27400	1076692	47097	110412	0	0	8123	549109	0	0
2024-09-08 13:05:47			0	37886	0	0	0	28051	26660	154831	27147	1076710	47099	110415	0	0	8122	549434	0	0
2024-09-08 13:06:47			0	37901	0	0	0	28041	26640	154939	26994	1076683	47086	110411	0	0	8123	548915	0	0
2024-09-08 13:07:47			0	37889	0	0	0	28038	26650	154755	27291	1076675	47098	110410	0	0	8122	549349	0	0
2024-09-08 13:08:47			0	37926	0	0	0	28041	26650	154815	27268	1076594	47077	110411	0	0	8124	547915	0	0
2024-09-08 13:09:47			0	37923	0	0	0	28044	26660	154719	27390	1076710	47088	110412	0	0	8124	548000	0	0
2024-09-08 13:10:47			0	37927	0	0	0	28057	26640	154695	27279	1076603	47097	110417	0	0	8124	547907	0	0
2024-09-08 13:11:47			0	37921	0	0	0	28046	26640	154667	27246	1076692	47086	110413	0	0	8124	548140	0	0
2024-09-08 13:12:47			0	37932	0	0	0	28049	26650	154667	27164	1076701	47110	110414	0	0	8125	547682	0	0
2024-09-08 13:13:47			0	37948	0	0	0	28064	26640	154623	27353	1076665	47109	110420	0	0	8125	547094	0	0
2024-09-08 13:14:47			0	37959	0	0	0	28067	26640	154635	27168	1076639	47097	110421	0	0	8126	546669	0	0
2024-09-08 13:15:47			0	37945	0	0	0	28072	26640	154535	27069	1076683	47097	110423	0	0	8125	547211	0	0
2024-09-08 13:16:47			0	37946	0	0	0	28072	26640	154615	27341	1076719	47076	110423	0	0	8125	547172	0	0
2024-09-08 13:17:47			0	37966	0	0	0	28088	26660	154583	26996	1076737	47099	110429	0	0	8126	546336	0	0
2024-09-08 13:18:47			0	37983	0	0	0	28088	26650	154547	27064	1076782	47110	110429	0	0	8127	545710	0	0
2024-09-08 13:19:47			0	38002	0	0	0	28106	26660	154535	27026	1076791	47099	110436	0	0	8128	544945	0	0
2024-09-08 13:20:47			0	37978	0	0	0	28093	26660	154423	27429	1076800	47099	110431	0	0	8127	545872	0	0
2024-09-08 13:21:47			0	37996	0	0	0	28098	26670	154439	27213	1076872	47112	110433	0	0	8128	545146	0	0
2024-09-08 13:22:47			0	38006	0	0	0	28101	26670	154443	27119	1076836	47111	110434	0	0	8128	544760	0	0
2024-09-08 13:23:47			0	38008	0	0	0	28111	26680	154395	27209	1076890	47124	110438	0	0	8128	544651	0	0
2024-09-08 13:24:47			0	37988	0	0	0	28106	26670	154407	27386	1076863	47111	110436	0	0	8127	545455	0	0
2024-09-08 13:25:47			0	38017	0	0	0	28057	26680	154375	26937	1076855	47113	110417	0	0	8129	544304	0	0
2024-09-08 13:26:47			0	38002	0	0	0	28072	26670	154315	27248	1076756	47088	110423	0	0	8128	544914	0	0
2024-09-08 13:27:47			0	38001	0	0	0	28114	26680	154487	27327	1076837	47101	110439	0	0	8128	544921	0	0
2024-09-08 13:28:47			0	37986	0	0	0	28106	26680	154459	27331	1076890	47101	110436	0	0	8127	545501	0	0
2024-09-08 13:29:47			0	38000	0	0	0	28103	26690	154383	27225	1076882	47102	110435	0	0	8128	544929	0	0
2024-09-08 13:30:47			0	37991	0	0	0	28116	26680	154327	27438	1076864	47113	110440	0	0	8127	545307	0	0
2024-09-08 13:31:47			0	38001	0	0	0	28114	26690	154343	27509	1076953	47101	110439	0	0	8128	544890	0	0
2024-09-08 13:32:47			0	37999	0	0	0	28127	26690	154399	27313	1076936	47102	110444	0	0	8127	544967	0	0
2024-09-08 13:33:47			0	37985	0	0	0	28119	26690	154347	27526	1077043	47114	110441	0	0	8127	545508	0	0
2024-09-08 13:34:47			0	38002	0	0	0	28127	26700	154403	27338	1077007	47104	110444	0	0	8128	544821	0	0
2024-09-08 13:35:47			0	37986	0	0	0	28137	26710	154363	27424	1077016	47104	110448	0	0	8126	545407	0	0
2024-09-08 13:36:47			0	38005	0	0	0	28137	26700	154407	27229	1077061	47126	110448	0	0	8128	544705	0	0
2024-09-08 13:37:47			0	37994	0	0	0	28148	26700	154367	27294	1077034	47104	110452	0	0	8127	545129	0	0
2024-09-08 13:38:47			0	37994	0	0	0	28145	26710	154343	27218	1077070	47116	110451	0	0	8127	545098	0	0
2024-09-08 13:39:47			0	38013	0	0	0	28145	26720	154107	27336	1077044	47106	110451	0	0	8128	544334	0	0
2024-09-08 13:40:47			0	38022	0	0	0	28150	26720	154195	27315	1077169	47117	110453	0	0	8128	543987	0	0
2024-09-08 13:41:47			0	38013	0	0	0	28153	26720	154211	27308	1077088	47117	110454	0	0	8128	544334	0	0
2024-09-08 13:42:47			0	38023	0	0	0	28155	26720	154244	27239	1077142	47105	110455	0	0	8128	543948	0	0
2024-09-08 13:43:47			0	38031	0	0	0	28166	26720	154248	27197	1077232	47095	110459	0	0	8129	543640	0	0
2024-09-08 13:44:47			0	38039	0	0	0	28163	26730	154256	27154	1077169	47118	110458	0	0	8129	543301	0	0
2024-09-08 13:45:47			0	38050	0	0	0	28166	26730	154292	27348	1077196	47118	110459	0	0	8130	542877	0	0
2024-09-08 13:46:47			0	38033	0	0	0	28181	26740	154272	27433	1077178	47119	110465	0	0	8129	543501	0	0
2024-09-08 13:47:47			0	38034	0	0	0	28189	26730	154240	27253	1077304	47106	110468	0	0	8128	543493	0	0
2024-09-08 13:48:47			0	38037	0	0	0	28189	26740	154188	27319	1077286	47107	110468	0	0	8129	543347	0	0
2024-09-08 13:49:47			0	38053	0	0	0	28181	26750	154208	27294	1077277	47120	110465	0	0	8130	542699	0	0
2024-09-08 13:50:47			0	38054	0	0	0	28192	26750	154204	27234	1077223	47108	110469	0	0	8130	542661	0	0
2024-09-08 13:51:47			0	38045	0	0	0	28186	26750	154224	27277	1077259	47108	110467	0	0	8129	543008	0	0
2024-09-08 13:52:47			0	38025	0	0	0	28179	26750	154160	26909	1077340	47108	110464	0	0	8128	543778	0	0
2024-09-08 13:53:47			0	38035	0	0	0	28186	26760	154168	26958	1077295	47109	110467	0	0	8129	543361	0	0
2024-09-08 13:54:47			0	38028	0	0	0	28186	26770	154255	27107	1077340	47111	110467	0	0	8128	543600	0	0
2024-09-08 13:55:47			0	38025	0	0	0	28189	26760	154171	27076	1077322	47121	110468	0	0	8128	543747	0	0
2024-09-08 13:56:47			0	38027	0	0	0	28186	26760	154232	27033	1077331	47122	110467	0	0	8128	543670	0	0
2024-09-08 13:57:47			0	38029	0	0	0	28181	26770	154300	27222	1077394	47100	110465	0	0	8129	543561	0	0
2024-09-08 13:58:47			0	38049	0	0	0	28184	26770	154184	27208	1077403	47111	110466	0	0	8130	542791	0	0
2024-09-08 13:59:47			0	38048	0	0	0	28184	26770	154116	27020	1077313	47123	110466	0	0	8130	542830	0	0
2024-09-08 14:00:47			0	38033	0	0	0	28197	26770	154148	27443	1077367	47100	110471	0	0	8128	543407	0	0
2024-09-08 14:01:47			0	38028	0	0	0	28181	26770	154131	27180	1077296	47111	110465	0	0	8128	543600	0	0
2024-09-08 14:02:47			0	38029	0	0	0	28181	26770	154216	27223	1077349	47100	110465	0	0	8129	543561	0	0
2024-09-08 14:03:47			0	38013	0	0	0	28179	26780	154239	26948	1077412	47100	110464	0	0	8128	544147	0	0
2024-09-08 14:04:47			0	38008	0	0	0	28181	26770	154247	27303	1077376	47123	110465	0	0	8127	544371	0	0
2024-09-08 14:05:47			0	37988	0	0	0	28184	26760	154363	27426	1077385	47099	110466	0	0	8126	545174	0	0
2024-09-08 14:06:47			0	37969	0	0	0	28189	26780	154303	27462	1077412	47100	110468	0	0	8125	545845	0	0
2024-09-08 14:07:47			0	37979	0	0	0	28181	26770	154323	27248	1077403	47100	110465	0	0	8126	545490	0	0
2024-09-08 14:08:47			0	37977	0	0	0	28181	26770	154383	27526	1077394	47111	110465	0	0	8126	545567	0	0
2024-09-08 14:09:47			0	37972	0	0	0	28189	26770	154391	27474	1077376	47089	110468	0	0	8125	545760	0	0
2024-09-08 14:10:47			0	37989	0	0	0	28197	26770	154343	27317	1077394	47111	110471	0	0	8126	545104	0	0
2024-09-08 14:11:47			0	37980	0	0	0	28207	26770	154311	27421	1077349	47100	110475	0	0	8125	545451	0	0
2024-09-08 14:12:47			0	37990	0	0	0	28207	26770	154375	27310	1077403	47111	110475	0	0	8126	545065	0	0
2024-09-08 14:13:47			0	38003	0	0	0	28215	26780	154315	27381	1077439	47100	110478	0	0	8126	544532	0	0
2024-09-08 14:14:47			0	38023	0	0	0	28225	26780	154216	27255	1077448	47124	110482	0	0	8127	543762	0	0
2024-09-08 14:15:47			0	38034	0	0	0	28223	26780	154176	27334	1077439	47123	110481	0	0	8128	543338	0	0
2024-09-08 14:16:47			0	38081	0	0	0	28223	26790	154012	27098	1077494	47125	110481	0	0	8131	541499	0	0
2024-09-08 14:17:47			0	38087	0	0	0	28223	26790	153964	27317	1077565	47135	110481	0	0	8131	541268	0	0
2024-09-08 14:18:47			0	38099	0	0	0	28218	26790	153960	27293	1077538	47125	110479	0	0	8132	540807	0	0
2024-09-08 14:19:47			0	38114	0	0	0	28210	26800	153836	26909	1077512	47125	110476	0	0	8133	540200	0	0
2024-09-08 14:20:47			0	38112	0	0	0	28207	26790	153696	27317	1077574	47125	110475	0	0	8133	540308	0	0
2024-09-08 14:21:47			0	38107	0	0	0	28197	26800	153780	27258	1077485	47125	110471	0	0	8133	540469	0	0
2024-09-08 14:22:47			0	38109	0	0	0	28179	26790	153804	27015	1077413	47114	110464	0	0	8133	540423	0	0
2024-09-08 14:23:47			0	38097	0	0	0	28161	26790	153888	26935	1077440	47091	110457	0	0	8133	540884	0	0
2024-09-08 14:24:47			0	38102	0	0	0	28166	26780	153944	27319	1077385	47111	110459	0	0	8133	540723	0	0
2024-09-08 14:25:47			0	38066	0	0	0	28161	26780	153944	26925	1077305	47100	110457	0	0	8131	542106	0	0
2024-09-08 14:26:47			0	38060	0	0	0	28176	26780	154064	27220	1077341	47113	110463	0	0	8130	542337	0	0
2024-09-08 14:27:47			0	38065	0	0	0	28171	26780	154020	27225	1077305	47111	110461	0	0	8131	542145	0	0
2024-09-08 14:28:47			0	38068	0	0	0	28171	26760	154048	26870	1077331	47099	110461	0	0	8131	542091	0	0
2024-09-08 14:29:47			0	38070	0	0	0	28173	26770	153936	27326	1077340	47100	110462	0	0	8131	541983	0	0
2024-09-08 14:30:47			0	38077	0	0	0	28171	26770	154008	27301	1077340	47100	110461	0	0	8131	541714	0	0
2024-09-08 14:31:47			0	38069	0	0	0	28194	26760	154024	27085	1077349	47098	110470	0	0	8131	542053	0	0
2024-09-08 14:32:47			0	38077	0	0	0	28197	26780	154012	27244	1077358	47100	110471	0	0	8131	541683	0	0
2024-09-08 14:33:47			0	38096	0	0	0	28202	26770	153888	27388	1077457	47111	110473	0	0	8132	540984	0	0
2024-09-08 14:34:47			0	38093	0	0	0	28210	26770	153876	27255	1077430	47111	110476	0	0	8132	541099	0	0
2024-09-08 14:35:47			0	38102	0	0	0	28202	26780	153796	27218	1077439	47133	110473	0	0	8132	540723	0	0
2024-09-08 14:36:47			0	38106	0	0	0	28205	26780	153844	27258	1077412	47111	110474	0	0	8133	540569	0	0
2024-09-08 14:37:47			0	38113	0	0	0	28202	26770	153808	27145	1077457	47123	110473	0	0	8133	540332	0	0
2024-09-08 14:38:47			0	38111	0	0	0	28199	26780	153840	27386	1077412	47111	110472	0	0	8133	540377	0	0
2024-09-08 14:39:47			0	38118	0	0	0	28189	26780	153760	27369	1077421	47101	110468	0	0	8134	540109	0	0
2024-09-08 14:40:47			0	38121	0	0	0	28192	26780	153768	27306	1077412	47111	110469	0	0	8134	539994	0	0
2024-09-08 14:41:47			0	38115	0	0	0	28197	26770	153852	27157	1077421	47111	110471	0	0	8133	540255	0	0
2024-09-08 14:42:47			0	38125	0	0	0	28202	26780	153776	27218	1077448	47113	110473	0	0	8134	539840	0	0
2024-09-08 14:43:47			0	38141	0	0	0	28192	26780	153772	26821	1077448	47101	110469	0	0	8135	539227	0	0
2024-09-08 14:44:47			0	38133	0	0	0	28186	26780	153712	27026	1077502	47113	110467	0	0	8134	539533	0	0
2024-09-08 14:45:47			0	38141	0	0	0	28179	26780	153672	27310	1077439	47111	110464	0	0	8135	539227	0	0
2024-09-08 14:46:47			0	38145	0	0	0	28176	26780	153816	27130	1077394	47101	110463	0	0	8135	539073	0	0
2024-09-08 14:47:47			0	38118	0	0	0	28168	26780	153836	27213	1077412	47123	110460	0	0	8134	540109	0	0
2024-09-08 14:48:47			0	38101	0	0	0	28161	26770	153776	27547	1077349	47111	110457	0	0	8133	540792	0	0
2024-09-08 14:49:47			0	38102	0	0	0	28153	26780	153852	27270	1077358	47100	110454	0	0	8133	540723	0	0
2024-09-08 14:50:47			0	38085	0	0	0	28150	26770	153916	27130	1077323	47111	110453	0	0	8132	541407	0	0
2024-09-08 14:51:47			0	38091	0	0	0	28142	26770	154000	27053	1077287	47089	110450	0	0	8133	541176	0	0
2024-09-08 14:52:47			0	38073	0	0	0	28145	26770	154088	27346	1077269	47100	110451	0	0	8132	541868	0	0
2024-09-08 14:53:47			0	38081	0	0	0	28142	26760	154136	27320	1077295	47098	110450	0	0	8132	541592	0	0
2024-09-08 14:54:47			0	38050	0	0	0	28166	26760	154056	27291	1077278	47099	110459	0	0	8130	542784	0	0
2024-09-08 14:55:47			0	38048	0	0	0	28166	26750	154104	27235	1077340	47108	110459	0	0	8130	542892	0	0
2024-09-08 14:56:47			0	38048	0	0	0	28176	26750	154120	27322	1077259	47108	110463	0	0	8130	542892	0	0
2024-09-08 14:57:47			0	38083	0	0	0	28166	26760	153980	27320	1077322	47121	110459	0	0	8132	541515	0	0
2024-09-08 14:58:47			0	38085	0	0	0	28155	26750	153920	27246	1077197	47097	110455	0	0	8132	541469	0	0
2024-09-08 14:59:47			0	38090	0	0	0	28161	26760	153860	27066	1077295	47109	110457	0	0	8132	541246	0	0
2024-09-08 15:00:47			0	38097	0	0	0	28161	26760	154000	27069	1077278	47110	110457	0	0	8133	540977	0	0
2024-09-08 15:01:47			0	38083	0	0	0	28166	26750	154048	27194	1077313	47120	110459	0	0	8132	541546	0	0
2024-09-08 15:02:47			0	38115	0	0	0	28184	26750	153836	27256	1077313	47108	110466	0	0	8133	540317	0	0
2024-09-08 15:03:47			0	38101	0	0	0	28171	26760	153924	27170	1077322	47098	110461	0	0	8133	540823	0	0
2024-09-08 15:04:47			0	38114	0	0	0	28173	26750	153852	27286	1077340	47108	110462	0	0	8133	540355	0	0
2024-09-08 15:05:47			0	38129	0	0	0	28171	26760	153760	27152	1077358	47122	110461	0	0	8134	539749	0	0
2024-09-08 15:06:47			0	38128	0	0	0	28179	26760	153752	27055	1077304	47122	110464	0	0	8134	539787	0	0
2024-09-08 15:07:47			0	38125	0	0	0	28173	26770	153740	26927	1077340	47111	110462	0	0	8134	539871	0	0
2024-09-08 15:08:47			0	38124	0	0	0	28173	26760	153744	27204	1077358	47122	110462	0	0	8134	539940	0	0
2024-09-08 15:09:47			0	38133	0	0	0	28186	26760	153784	27308	1077331	47122	110467	0	0	8134	539595	0	0
2024-09-08 15:10:47			0	38147	0	0	0	28210	26770	153680	27000	1077376	47133	110476	0	0	8135	539028	0	0
2024-09-08 15:11:47			0	38193	0	0	0	28212	26770	153540	27201	1077457	47133	110477	0	0	8137	537267	0	0
2024-09-08 15:12:47			0	38221	0	0	0	28220	26770	153452	27194	1077484	47145	110480	0	0	8139	536197	0	0
2024-09-08 15:13:47			0	38271	0	0	0	28220	26780	153248	27319	1077529	47146	110480	0	0	8142	534258	0	0
2024-09-08 15:14:47			0	38294	0	0	0	28142	26780	153156	26817	1077448	47124	110450	0	0	8144	533382	0	0
2024-09-08 15:15:47			0	38297	0	0	0	28057	26770	153080	26989	1077313	47111	110417	0	0	8146	533298	0	0
2024-09-08 15:16:47			0	38300	0	0	0	28010	26760	153020	27208	1077134	47087	110399	0	0	8147	533215	0	0
2024-09-08 15:17:47			0	38310	0	0	0	28012	26730	153084	27045	1076945	47073	110400	0	0	8147	532926	0	0
2024-09-08 15:18:47			0	38311	0	0	0	28062	26730	152984	26909	1076918	47062	110419	0	0	8147	532888	0	0
2024-09-08 15:19:47			0	38319	0	0	0	28051	26710	153028	26987	1076882	47071	110415	0	0	8147	532644	0	0
2024-09-08 15:20:47			0	38345	0	0	0	28044	26690	152992	27001	1076774	47081	110412	0	0	8149	531717	0	0
2024-09-08 15:21:47			0	38333	0	0	0	28020	26690	152992	27078	1076774	47081	110403	0	0	8148	532173	0	0
2024-09-08 15:22:47			0	38340	0	0	0	28070	26680	153008	26961	1076801	47090	110422	0	0	8148	531937	0	0
2024-09-08 15:23:47			0	38345	0	0	0	28101	26680	153024	27050	1076774	47101	110434	0	0	8148	531747	0	0
2024-09-08 15:24:47			0	38356	0	0	0	28088	26670	152916	27336	1076810	47099	110429	0	0	8148	531360	0	0
2024-09-08 15:25:47			0	38387	0	0	0	28064	26680	152944	27261	1076801	47101	110420	0	0	8151	530152	0	0
2024-09-08 15:26:47			0	38378	0	0	0	28057	26680	152940	26627	1076801	47090	110417	0	0	8150	530494	0	0
2024-09-08 15:27:47			0	38383	0	0	0	28036	26670	152888	27039	1076792	47100	110409	0	0	8151	530335	0	0
2024-09-08 15:28:47			0	38386	0	0	0	28036	26660	152788	27163	1076693	47088	110409	0	0	8151	530251	0	0
2024-09-08 15:29:47			0	38364	0	0	0	28020	26660	153020	27048	1076737	47088	110403	0	0	8150	531086	0	0
2024-09-08 15:30:47			0	38372	0	0	0	28018	26650	152856	26920	1076648	47065	110402	0	0	8150	530813	0	0
2024-09-08 15:31:47			0	38358	0	0	0	27999	26630	153056	27183	1076567	47097	110395	0	0	8150	531405	0	0
2024-09-08 15:32:47			0	38343	0	0	0	28005	26630	152996	26975	1076540	47086	110397	0	0	8149	531976	0	0
2024-09-08 15:33:47			0	38347	0	0	0	28018	26620	153052	26942	1076549	47074	110402	0	0	8149	531854	0	0
2024-09-08 15:34:47			0	38354	0	0	0	28025	26620	153124	27258	1076495	47107	110405	0	0	8149	531588	0	0
2024-09-08 15:35:47			0	38342	0	0	0	28025	26620	153048	27013	1076549	47095	110405	0	0	8148	532044	0	0
2024-09-08 15:36:47			0	38355	0	0	0	28044	26610	153088	27029	1076477	47106	110412	0	0	8149	531580	0	0
2024-09-08 15:37:47			0	38368	0	0	0	28020	26620	152952	27199	1076539	47094	110403	0	0	8150	531056	0	0
2024-09-08 15:38:47			0	38362	0	0	0	28002	26620	152972	27008	1076539	47106	110396	0	0	8150	531284	0	0
2024-09-08 15:39:47			0	38329	0	0	0	28025	26610	152964	27218	1076504	47106	110405	0	0	8148	532569	0	0
2024-09-08 15:40:47			0	38349	0	0	0	28036	26610	152996	27215	1076504	47073	110409	0	0	8149	531808	0	0
2024-09-08 15:41:47			0	38358	0	0	0	28023	26610	153028	27144	1076548	47094	110404	0	0	8149	531466	0	0
2024-09-08 15:42:47			0	38362	0	0	0	28046	26610	153048	26908	1076521	47106	110413	0	0	8149	531314	0	0
2024-09-08 15:43:47			0	38358	0	0	0	28038	26600	153024	26968	1076485	47093	110410	0	0	8149	531497	0	0
2024-09-08 15:44:47			0	38372	0	0	0	27992	26610	152884	27085	1076495	47094	110392	0	0	8151	530934	0	0
2024-09-08 15:45:47			0	38355	0	0	0	27999	26610	153132	26974	1076521	47094	110395	0	0	8150	531580	0	0
2024-09-08 15:46:47			0	38366	0	0	0	28007	26600	153072	27027	1076485	47083	110398	0	0	8150	531193	0	0
2024-09-08 15:47:47			0	38344	0	0	0	28002	26610	153128	27012	1076495	47094	110396	0	0	8149	531998	0	0
2024-09-08 15:48:47			0	38346	0	0	0	28005	26610	153000	26996	1076477	47106	110397	0	0	8149	531922	0	0
2024-09-08 15:49:47			0	38343	0	0	0	28010	26600	153128	26840	1076449	47092	110399	0	0	8149	532067	0	0
2024-09-08 15:50:47			0	38348	0	0	0	28002	26600	153140	27140	1076423	47092	110396	0	0	8149	531877	0	0
2024-09-08 15:51:47			0	38330	0	0	0	28018	26600	153232	27149	1076449	47082	110402	0	0	8148	532561	0	0
2024-09-08 15:52:47			0	38342	0	0	0	28012	26600	153160	27308	1076476	47092	110400	0	0	8149	532105	0	0
2024-09-08 15:53:47			0	38350	0	0	0	28015	26600	153068	27253	1076459	47093	110401	0	0	8149	531801	0	0
2024-09-08 15:54:47			0	38360	0	0	0	27999	26600	153200	27208	1076423	47092	110395	0	0	8150	531421	0	0
2024-09-08 15:55:47			0	38350	0	0	0	27997	26590	153216	27277	1076414	47092	110394	0	0	8149	531831	0	0
2024-09-08 15:56:47			0	38341	0	0	0	28015	26590	153264	27182	1076431	47082	110401	0	0	8148	532173	0	0
2024-09-08 15:57:47			0	38338	0	0	0	27986	26600	153128	27027	1076449	47104	110390	0	0	8149	532257	0	0
2024-09-08 15:58:47			0	38346	0	0	0	27971	26580	153204	27485	1076395	47081	110384	0	0	8149	532014	0	0
2024-09-08 15:59:47			0	38342	0	0	0	27968	26590	153144	27133	1076351	47104	110383	0	0	8149	532135	0	0
2024-09-08 16:00:47			0	38341	0	0	0	27966	26580	153148	27022	1076315	47091	110382	0	0	8149	532204	0	0
2024-09-08 16:01:47			0	38345	0	0	0	27966	26580	153140	27296	1076279	47068	110382	0	0	8149	532052	0	0
2024-09-08 16:02:47			0	38324	0	0	0	27976	26570	153284	27010	1076297	47068	110386	0	0	8148	532881	0	0
2024-09-08 16:03:47			0	38310	0	0	0	27997	26580	153340	27013	1076333	47080	110394	0	0	8147	533384	0	0
2024-09-08 16:04:47			0	38316	0	0	0	27979	26580	153216	27052	1076333	47080	110387	0	0	8148	533155	0	0
2024-09-08 16:05:47			0	38320	0	0	0	27971	26570	153260	27135	1076350	47090	110384	0	0	8148	533033	0	0
2024-09-08 16:06:47			0	38334	0	0	0	27976	26570	153248	27478	1076341	47102	110386	0	0	8149	532500	0	0
2024-09-08 16:07:47			0	38337	0	0	0	27984	26570	153176	27206	1076350	47090	110389	0	0	8149	532386	0	0
2024-09-08 16:08:47			0	38347	0	0	0	27986	26580	153160	27249	1076306	47090	110390	0	0	8149	531976	0	0
2024-09-08 16:09:47			0	38333	0	0	0	27989	26570	153224	27062	1076341	47102	110391	0	0	8148	532539	0	0
2024-09-08 16:10:47			0	38345	0	0	0	27976	26560	153228	27272	1076332	47079	110386	0	0	8149	532112	0	0
2024-09-08 16:11:47			0	38328	0	0	0	27984	26570	153240	27422	1076297	47090	110389	0	0	8148	532729	0	0
2024-09-08 16:12:47			0	38349	0	0	0	27984	26570	153224	27410	1076341	47090	110389	0	0	8149	531930	0	0
2024-09-08 16:13:47			0	38330	0	0	0	27968	26570	153332	27213	1076288	47090	110383	0	0	8149	532653	0	0
2024-09-08 16:14:47			0	38333	0	0	0	27966	26560	153164	27326	1076252	47089	110382	0	0	8149	532569	0	0
2024-09-08 16:15:47			0	38351	0	0	0	27968	26560	153136	26949	1076279	47089	110383	0	0	8150	531884	0	0
2024-09-08 16:16:47			0	38338	0	0	0	27974	26560	153180	27303	1076296	47099	110385	0	0	8149	532379	0	0
2024-09-08 16:17:47			0	38341	0	0	0	27974	26560	153256	27218	1076269	47078	110385	0	0	8149	532265	0	0
2024-09-08 16:18:47			0	38325	0	0	0	27984	26550	153256	27161	1076314	47088	110389	0	0	8148	532904	0	0
2024-09-08 16:19:47			0	38339	0	0	0	27992	26560	153312	27310	1076323	47078	110392	0	0	8149	532341	0	0
2024-09-08 16:20:47			0	38342	0	0	0	27994	26560	153320	27289	1076296	47099	110393	0	0	8149	532227	0	0
2024-09-08 16:21:47			0	38332	0	0	0	27997	26570	153320	27013	1076368	47090	110394	0	0	8148	532577	0	0
2024-09-08 16:22:47			0	38328	0	0	0	27999	26560	153276	27192	1076359	47089	110395	0	0	8148	532759	0	0
2024-09-08 16:23:47			0	38323	0	0	0	27992	26560	153348	27265	1076332	47089	110392	0	0	8148	532950	0	0
2024-09-08 16:24:47			0	38325	0	0	0	27989	26570	153384	27275	1076350	47102	110391	0	0	8148	532843	0	0
2024-09-08 16:25:47			0	38339	0	0	0	27992	26560	153340	27197	1076332	47079	110392	0	0	8149	532341	0	0
2024-09-08 16:26:47			0	38325	0	0	0	27992	26570	153288	26963	1076395	47102	110392	0	0	8148	532843	0	0
2024-09-08 16:27:47			0	38355	0	0	0	27999	26570	153268	27244	1076324	47102	110395	0	0	8149	531702	0	0
2024-09-08 16:28:47			0	38341	0	0	0	28002	26570	153324	27267	1076350	47090	110396	0	0	8149	532234	0	0
2024-09-08 16:29:47			0	38346	0	0	0	27989	26570	153196	27038	1076395	47102	110391	0	0	8149	532044	0	0
2024-09-08 16:30:47			0	38348	0	0	0	27997	26570	153268	26875	1076350	47090	110394	0	0	8149	531968	0	0
2024-09-08 16:31:47			0	38340	0	0	0	28005	26570	153168	27272	1076368	47090	110397	0	0	8148	532272	0	0
2024-09-08 16:32:47			0	38339	0	0	0	27997	26580	153156	27229	1076386	47090	110394	0	0	8149	532280	0	0
2024-09-08 16:33:47			0	38318	0	0	0	27981	26570	153224	27183	1076341	47102	110388	0	0	8148	533109	0	0
2024-09-08 16:34:47			0	38354	0	0	0	27989	26580	153216	27104	1076359	47090	110391	0	0	8150	531710	0	0
2024-09-08 16:35:47			0	38335	0	0	0	27986	26570	153248	27190	1076324	47080	110390	0	0	8149	532463	0	0
2024-09-08 16:36:47			0	38325	0	0	0	27986	26570	153204	27355	1076341	47090	110390	0	0	8148	532843	0	0
2024-09-08 16:37:47			0	38336	0	0	0	27974	26570	153236	27216	1076350	47090	110385	0	0	8149	532424	0	0
2024-09-08 16:38:47			0	38350	0	0	0	27984	26570	153200	27272	1076341	47090	110389	0	0	8149	531892	0	0
2024-09-08 16:39:47			0	38338	0	0	0	27986	26570	153196	27000	1076368	47090	110390	0	0	8149	532348	0	0
2024-09-08 16:40:47			0	38315	0	0	0	27986	26570	153140	26909	1076341	47080	110390	0	0	8147	533224	0	0
2024-09-08 16:41:47			0	38334	0	0	0	27986	26570	153220	27187	1076377	47080	110390	0	0	8148	532500	0	0
2024-09-08 16:42:47			0	38298	0	0	0	27992	26570	153224	27003	1076350	47080	110392	0	0	8146	533871	0	0
2024-09-08 16:43:47			0	38287	0	0	0	27981	26570	153300	26771	1076288	47080	110388	0	0	8146	534291	0	0
2024-09-08 16:44:47			0	38306	0	0	0	27981	26570	153336	27024	1076341	47080	110388	0	0	8147	533567	0	0
2024-09-08 16:45:47			0	38298	0	0	0	27976	26570	153420	26741	1076341	47090	110386	0	0	8147	533871	0	0
2024-09-08 16:46:47			0	38291	0	0	0	27979	26570	153404	26837	1076315	47102	110387	0	0	8146	534138	0	0
2024-09-08 16:47:47			0	38309	0	0	0	27971	26570	153388	26975	1076368	47102	110384	0	0	8147	533452	0	0
2024-09-08 16:48:47			0	38286	0	0	0	27992	26570	153404	27161	1076350	47102	110392	0	0	8146	534329	0	0
2024-09-08 16:49:47			0	38296	0	0	0	27992	26570	153396	26991	1076377	47090	110392	0	0	8146	533948	0	0
2024-09-08 16:50:47			0	38290	0	0	0	28002	26560	153368	26764	1076359	47089	110396	0	0	8146	534207	0	0
2024-09-08 16:51:47			0	38301	0	0	0	27992	26570	153460	27083	1076377	47102	110392	0	0	8146	533757	0	0
2024-09-08 16:52:47			0	38272	0	0	0	27989	26570	153388	26942	1076377	47090	110391	0	0	8145	534863	0	0
2024-09-08 16:53:47			0	38268	0	0	0	27997	26570	153428	27189	1076368	47102	110394	0	0	8144	535015	0	0
2024-09-08 16:54:47			0	38271	0	0	0	27992	26560	153516	27204	1076332	47089	110392	0	0	8145	534932	0	0
2024-09-08 16:55:47			0	38260	0	0	0	27992	26580	153460	27111	1076413	47090	110392	0	0	8144	535290	0	0
2024-09-08 16:56:47			0	38267	0	0	0	27992	26570	153388	27343	1076377	47102	110392	0	0	8144	535054	0	0
2024-09-08 16:57:47			0	38251	0	0	0	27989	26570	153364	27083	1076377	47080	110391	0	0	8144	535664	0	0
2024-09-08 16:58:47			0	38257	0	0	0	27986	26570	153364	27168	1076324	47090	110390	0	0	8144	535435	0	0
2024-09-08 16:59:47			0	38285	0	0	0	27992	26570	153492	27405	1076368	47080	110392	0	0	8146	534367	0	0
2024-09-08 17:00:47			0	38287	0	0	0	27992	26570	153376	27275	1076377	47080	110392	0	0	8146	534291	0	0
2024-09-08 17:01:47			0	38285	0	0	0	27999	26570	153396	26889	1076341	47090	110395	0	0	8145	534367	0	0
2024-09-08 17:02:47			0	38279	0	0	0	27986	26570	153436	27109	1076395	47090	110390	0	0	8145	534596	0	0
2024-09-08 17:03:47			0	38269	0	0	0	27989	26570	153416	27147	1076368	47090	110391	0	0	8145	534977	0	0
2024-09-08 17:04:47			0	38272	0	0	0	27989	26570	153368	27208	1076324	47090	110391	0	0	8145	534863	0	0
2024-09-08 17:05:47			0	38269	0	0	0	27992	26570	153352	27199	1076377	47090	110392	0	0	8145	534977	0	0
2024-09-08 17:06:47			0	38283	0	0	0	27989	26570	153372	27353	1076341	47090	110391	0	0	8145	534443	0	0
2024-09-08 17:07:47			0	38294	0	0	0	27992	26570	153400	27265	1076350	47102	110392	0	0	8146	534024	0	0
2024-09-08 17:08:47			0	38314	0	0	0	27986	26570	153392	27374	1076350	47090	110390	0	0	8147	533262	0	0
2024-09-08 17:09:47			0	38276	0	0	0	27994	26560	153352	27350	1076323	47078	110393	0	0	8145	534741	0	0
2024-09-08 17:10:47			0	38270	0	0	0	27989	26580	153480	27235	1076369	47103	110391	0	0	8145	534909	0	0
2024-09-08 17:11:47			0	38259	0	0	0	27986	26570	153424	27341	1076350	47102	110390	0	0	8144	535359	0	0
2024-09-08 17:12:47			0	38266	0	0	0	27984	26570	153628	27161	1076368	47090	110389	0	0	8145	535092	0	0
2024-09-08 17:13:47			0	38265	0	0	0	27994	26580	153488	26876	1076369	47091	110393	0	0	8144	535099	0	0
2024-09-08 17:14:47			0	38247	0	0	0	27986	26570	153512	27114	1076368	47102	110390	0	0	8143	535817	0	0
2024-09-08 17:15:47			0	38255	0	0	0	27986	26570	153512	27197	1076350	47090	110390	0	0	8144	535512	0	0
2024-09-08 17:16:47			0	38255	0	0	0	27992	26570	153592	27124	1076341	47102	110392	0	0	8144	535512	0	0
2024-09-08 17:17:47			0	38248	0	0	0	27999	26570	153508	26885	1076377	47090	110395	0	0	8143	535779	0	0
2024-09-08 17:18:47			0	38242	0	0	0	27994	26570	153536	27183	1076341	47080	110393	0	0	8143	536008	0	0
2024-09-08 17:19:47			0	38258	0	0	0	28005	26580	153552	27230	1076386	47113	110397	0	0	8144	535366	0	0
2024-09-08 17:20:47			0	38245	0	0	0	27994	26570	153468	27230	1076404	47102	110393	0	0	8143	535894	0	0
2024-09-08 17:21:47			0	38247	0	0	0	28010	26580	153532	27291	1076395	47091	110399	0	0	8143	535786	0	0
2024-09-08 17:22:47			0	38255	0	0	0	28007	26570	153608	27157	1076395	47090	110398	0	0	8144	535512	0	0
2024-09-08 17:23:47			0	38241	0	0	0	27992	26590	153612	27005	1076378	47092	110392	0	0	8143	535985	0	0
2024-09-08 17:24:47			0	38234	0	0	0	27984	26570	153528	26932	1076431	47080	110389	0	0	8143	536314	0	0
2024-09-08 17:25:47			0	38249	0	0	0	27999	26580	153564	26960	1076440	47113	110395	0	0	8143	535710	0	0
2024-09-08 17:26:47			0	38238	0	0	0	27994	26580	153536	27097	1076395	47069	110393	0	0	8143	536130	0	0
2024-09-08 17:27:47			0	38236	0	0	0	27992	26570	153652	26963	1076377	47090	110392	0	0	8143	536237	0	0
2024-09-08 17:28:47			0	38223	0	0	0	27992	26580	153656	27163	1076359	47080	110392	0	0	8142	536704	0	0
2024-09-08 17:29:47			0	38229	0	0	0	27989	26570	153592	27190	1076404	47090	110391	0	0	8142	536505	0	0
2024-09-08 17:30:47			0	38231	0	0	0	27992	26570	153560	27275	1076350	47090	110392	0	0	8142	536428	0	0
2024-09-08 17:31:47			0	38257	0	0	0	27992	26580	153688	26982	1076306	47102	110392	0	0	8144	535405	0	0
2024-09-08 17:32:47			0	38246	0	0	0	27979	26580	153532	27111	1076413	47102	110387	0	0	8144	535825	0	0
2024-09-08 17:33:47			0	38239	0	0	0	27981	26580	153592	27145	1076413	47090	110388	0	0	8143	536092	0	0
2024-09-08 17:34:47			0	38204	0	0	0	27984	26570	153580	27209	1076350	47113	110389	0	0	8141	537461	0	0
2024-09-08 17:35:47			0	38229	0	0	0	27989	26570	153640	27137	1076350	47102	110391	0	0	8142	536505	0	0
2024-09-08 17:36:47			0	38229	0	0	0	27989	26570	153700	27241	1076404	47090	110391	0	0	8142	536505	0	0
2024-09-08 17:37:47			0	38239	0	0	0	27984	26570	153536	26887	1076350	47090	110389	0	0	8143	536123	0	0
2024-09-08 17:38:47			0	38219	0	0	0	27984	26570	153612	27012	1076377	47080	110389	0	0	8142	536887	0	0
2024-09-08 17:39:47			0	38239	0	0	0	27984	26570	153636	26941	1076324	47090	110389	0	0	8143	536123	0	0
2024-09-08 17:40:47			0	38222	0	0	0	27981	26560	153712	27086	1076332	47089	110388	0	0	8142	536803	0	0
2024-09-08 17:41:47			0	38212	0	0	0	27979	26570	153788	27031	1076341	47090	110387	0	0	8142	537155	0	0
2024-09-08 17:42:47			0	38192	0	0	0	27979	26560	153716	27039	1076350	47099	110387	0	0	8140	537951	0	0
2024-09-08 17:43:47			0	38193	0	0	0	27989	26560	153748	27301	1076332	47089	110391	0	0	8140	537913	0	0
2024-09-08 17:44:47			0	38180	0	0	0	27981	26570	153768	27178	1076324	47102	110388	0	0	8140	538380	0	0
2024-09-08 17:45:47			0	38190	0	0	0	27986	26570	153772	27203	1076288	47090	110390	0	0	8140	537997	0	0
2024-09-08 17:46:47			0	38177	0	0	0	27981	26560	153904	27486	1076332	47089	110388	0	0	8139	538526	0	0
2024-09-08 17:47:47			0	38181	0	0	0	27974	26560	153804	27189	1076332	47089	110385	0	0	8140	538372	0	0
2024-09-08 17:48:47			0	38171	0	0	0	27974	26570	153872	27173	1076341	47090	110385	0	0	8139	538725	0	0
2024-09-08 17:49:47			0	38164	0	0	0	27979	26560	153804	27095	1076305	47100	110387	0	0	8139	539024	0	0
2024-09-08 17:50:47			0	38167	0	0	0	27981	26570	153772	27419	1076341	47102	110388	0	0	8139	538878	0	0
2024-09-08 17:51:47			0	38196	0	0	0	27986	26560	153872	27352	1076359	47089	110390	0	0	8140	537798	0	0
2024-09-08 17:52:47			0	38190	0	0	0	27971	26560	153888	27083	1076305	47100	110384	0	0	8140	538028	0	0
2024-09-08 17:53:47			0	38172	0	0	0	27976	26570	153812	27317	1076395	47090	110386	0	0	8139	538686	0	0
2024-09-08 17:54:47			0	38170	0	0	0	27974	26560	153892	27164	1076305	47089	110385	0	0	8139	538794	0	0
2024-09-08 17:55:47			0	38178	0	0	0	27979	26570	153820	27182	1076377	47090	110387	0	0	8140	538457	0	0
2024-09-08 17:56:47			0	38152	0	0	0	27966	26560	153900	26878	1076332	47067	110382	0	0	8138	539484	0	0
2024-09-08 17:57:47			0	38154	0	0	0	27974	26560	153964	27228	1076305	47100	110385	0	0	8138	539407	0	0
2024-09-08 17:58:47			0	38165	0	0	0	27984	26560	153856	27272	1076323	47088	110389	0	0	8139	538986	0	0
2024-09-08 17:59:47			0	38173	0	0	0	27986	26560	153852	26994	1076332	47079	110390	0	0	8139	538679	0	0
2024-09-08 18:00:47			0	38168	0	0	0	27984	26570	153776	26922	1076350	47080	110389	0	0	8139	538840	0	0
2024-09-08 18:01:47			0	38166	0	0	0	27994	26570	153936	27428	1076288	47090	110393	0	0	8139	538916	0	0
2024-09-08 18:02:47			0	38172	0	0	0	27981	26570	153840	27176	1076341	47090	110388	0	0	8139	538686	0	0
2024-09-08 18:03:47			0	38158	0	0	0	27979	26560	153848	26849	1076332	47100	110387	0	0	8138	539254	0	0
2024-09-08 18:04:47			0	38172	0	0	0	27979	26560	153872	27209	1076305	47089	110387	0	0	8139	538717	0	0
2024-09-08 18:05:47			0	38163	0	0	0	27976	26560	153908	27301	1076332	47089	110386	0	0	8139	539062	0	0
2024-09-08 18:06:47			0	38153	0	0	0	27976	26560	153836	27398	1076296	47088	110386	0	0	8138	539446	0	0
2024-09-08 18:07:47			0	38168	0	0	0	27971	26570	153912	27166	1076297	47102	110384	0	0	8139	538840	0	0
2024-09-08 18:08:47			0	38158	0	0	0	27979	26560	153944	26948	1076332	47089	110387	0	0	8138	539254	0	0
2024-09-08 18:09:47			0	38161	0	0	0	27976	26570	153900	27000	1076315	47090	110386	0	0	8139	539108	0	0
2024-09-08 18:10:47			0	38142	0	0	0	27974	26570	153932	27341	1076341	47090	110385	0	0	8138	539837	0	0
2024-09-08 18:11:47			0	38138	0	0	0	27974	26570	153996	27140	1076350	47090	110385	0	0	8137	539990	0	0
2024-09-08 18:12:47			0	38128	0	0	0	27976	26560	153956	27211	1076332	47100	110386	0	0	8137	540405	0	0
2024-09-08 18:13:47			0	38107	0	0	0	27974	26570	153956	27369	1076341	47102	110385	0	0	8136	541181	0	0
2024-09-08 18:14:47			0	38102	0	0	0	27971	26560	154064	27126	1076323	47088	110384	0	0	8135	541404	0	0
2024-09-08 18:15:47			0	38107	0	0	0	27976	26560	154048	27185	1076323	47078	110386	0	0	8136	541212	0	0
2024-09-08 18:16:47			0	38113	0	0	0	27979	26550	154064	27422	1076341	47099	110387	0	0	8136	541012	0	0
2024-09-08 18:17:47			0	38104	0	0	0	27968	26560	154060	27438	1076323	47088	110383	0	0	8135	541327	0	0
2024-09-08 18:18:47			0	38095	0	0	0	27974	26560	154092	27488	1076359	47100	110385	0	0	8135	541673	0	0
2024-09-08 18:19:47			0	38114	0	0	0	27976	26560	154028	27161	1076323	47099	110386	0	0	8136	540943	0	0
2024-09-08 18:20:47			0	38096	0	0	0	27971	26560	154116	26880	1076279	47089	110384	0	0	8135	541635	0	0
2024-09-08 18:21:47			0	38091	0	0	0	27971	26570	154092	27100	1076315	47090	110384	0	0	8135	541796	0	0
2024-09-08 18:22:47			0	38097	0	0	0	27966	26560	154152	27256	1076269	47078	110382	0	0	8135	541597	0	0
2024-09-08 18:23:47			0	38088	0	0	0	27974	26560	154056	27204	1076305	47100	110385	0	0	8134	541943	0	0
2024-09-08 18:24:47			0	38067	0	0	0	27966	26560	154148	27267	1076323	47078	110382	0	0	8133	542751	0	0
2024-09-08 18:25:47			0	38074	0	0	0	27968	26560	154324	27338	1076269	47088	110383	0	0	8134	542481	0	0
2024-09-08 18:26:47			0	38058	0	0	0	27968	26550	154224	27119	1076314	47088	110383	0	0	8133	543129	0	0
2024-09-08 18:27:47			0	38063	0	0	0	27968	26560	154256	27229	1076305	47089	110383	0	0	8133	542905	0	0
2024-09-08 18:28:47			0	38061	0	0	0	27968	26550	154244	27123	1076287	47088	110383	0	0	8133	543013	0	0
2024-09-08 18:29:47			0	38050	0	0	0	27968	26560	154292	27203	1076269	47078	110383	0	0	8132	543406	0	0
2024-09-08 18:30:47			0	38068	0	0	0	27966	26550	154248	27166	1076287	47088	110382	0	0	8133	542743	0	0
2024-09-08 18:31:47			0	38056	0	0	0	27966	26560	154236	26916	1076269	47088	110382	0	0	8133	543174	0	0
2024-09-08 18:32:47			0	38075	0	0	0	27958	26560	154216	27507	1076269	47099	110379	0	0	8134	542443	0	0
2024-09-08 18:33:47			0	38059	0	0	0	27955	26550	154236	27232	1076305	47087	110378	0	0	8133	543090	0	0
2024-09-08 18:34:47			0	38049	0	0	0	27958	26550	154304	27067	1076251	47077	110379	0	0	8132	543475	0	0
2024-09-08 18:35:47			0	38041	0	0	0	27948	26550	154384	26979	1076207	47088	110375	0	0	8132	543784	0	0
2024-09-08 18:36:47			0	38012	0	0	0	27955	26550	154411	26965	1076234	47099	110378	0	0	8130	544902	0	0
2024-09-08 18:37:47			0	38017	0	0	0	27948	26550	154447	26949	1076278	47099	110375	0	0	8131	544709	0	0
2024-09-08 18:38:47			0	38009	0	0	0	27950	26550	154519	27185	1076198	47099	110376	0	0	8130	545018	0	0
2024-09-08 18:39:47			0	38013	0	0	0	27950	26550	154495	27098	1076224	47077	110376	0	0	8130	544864	0	0
2024-09-08 18:40:47			0	38018	0	0	0	27945	26540	154479	27130	1076215	47077	110374	0	0	8131	544702	0	0
2024-09-08 18:41:47			0	38017	0	0	0	27945	26540	154471	26948	1076206	47076	110374	0	0	8131	544741	0	0
2024-09-08 18:42:47			0	38027	0	0	0	27937	26540	154424	27100	1076135	47099	110371	0	0	8131	544355	0	0
2024-09-08 18:43:47			0	38047	0	0	0	27942	26550	154428	26961	1076198	47087	110373	0	0	8133	543552	0	0
2024-09-08 18:44:47			0	38021	0	0	0	27932	26540	154403	27093	1076152	47076	110369	0	0	8131	544586	0	0
2024-09-08 18:45:47			0	38023	0	0	0	27937	26520	154335	27232	1076125	47085	110371	0	0	8131	544571	0	0
2024-09-08 18:46:47			0	38021	0	0	0	27940	26540	154447	27331	1076179	47086	110372	0	0	8131	544586	0	0
2024-09-08 18:47:47			0	38014	0	0	0	27937	26530	154435	27102	1076161	47096	110371	0	0	8131	544887	0	0
2024-09-08 18:48:47			0	37988	0	0	0	27929	26540	154527	27150	1076152	47086	110368	0	0	8129	545861	0	0
2024-09-08 18:49:47			0	37991	0	0	0	27932	26530	154487	27135	1076116	47075	110369	0	0	8129	545776	0	0
2024-09-08 18:50:47			0	38002	0	0	0	27924	26530	154475	27249	1076134	47085	110366	0	0	8130	545351	0	0
2024-09-08 18:51:47			0	37985	0	0	0	27927	26520	154591	27150	1076125	47096	110367	0	0	8129	546039	0	0
2024-09-08 18:52:47			0	38002	0	0	0	27932	26530	154611	27229	1076134	47085	110369	0	0	8130	545351	0	0
2024-09-08 18:53:47			0	38004	0	0	0	27927	26520	154519	27322	1076170	47084	110367	0	0	8130	545305	0	0
2024-09-08 18:54:47			0	38028	0	0	0	27935	26520	154451	27228	1076098	47085	110370	0	0	8131	544378	0	0
2024-09-08 18:55:47			0	38040	0	0	0	27942	26520	154520	27313	1076170	47084	110373	0	0	8132	543915	0	0
2024-09-08 18:56:47			0	38018	0	0	0	27948	26530	154435	26927	1076080	47096	110375	0	0	8131	544733	0	0
2024-09-08 18:57:47			0	37987	0	0	0	27942	26520	154535	27229	1076179	47096	110373	0	0	8129	545962	0	0
2024-09-08 18:58:47			0	37993	0	0	0	27916	26530	154571	27332	1076143	47075	110363	0	0	8130	545698	0	0
2024-09-08 18:59:47			0	37971	0	0	0	27896	26520	154627	27274	1076044	47085	110355	0	0	8129	546580	0	0
2024-09-08 19:00:47			0	37943	0	0	0	27885	26510	154727	27306	1076000	47061	110351	0	0	8127	547695	0	0
2024-09-08 19:01:47			0	37907	0	0	0	27875	26500	154851	27218	1075928	47061	110347	0	0	8125	549122	0	0
2024-09-08 19:02:47			0	37922	0	0	0	27885	26500	154871	27093	1075928	47073	110351	0	0	8126	548540	0	0
2024-09-08 19:03:47			0	37901	0	0	0	27901	26490	154975	26994	1075954	47082	110357	0	0	8125	549386	0	0
2024-09-08 19:04:47			0	37883	0	0	0	27898	26490	154947	27053	1075990	47082	110356	0	0	8124	550085	0	0
2024-09-08 19:05:47			0	37905	0	0	0	27812	26490	154963	27201	1075954	47071	110323	0	0	8126	549231	0	0
2024-09-08 19:06:47			0	37930	0	0	0	27716	26480	154759	26864	1075694	47058	110286	0	0	8129	548293	0	0
2024-09-08 19:07:47			0	37970	0	0	0	27771	26450	154731	27223	1075541	47022	110307	0	0	8131	546838	0	0
2024-09-08 19:08:47			0	37959	0	0	0	27784	26430	154727	27074	1075478	47031	110312	0	0	8130	547326	0	0
2024-09-08 19:09:47			0	37960	0	0	0	27812	26430	154807	27462	1075469	47052	110323	0	0	8129	547287	0	0
2024-09-08 19:10:47			0	37968	0	0	0	27797	26420	154859	27201	1075487	47052	110317	0	0	8130	547009	0	0
2024-09-08 19:11:47			0	37957	0	0	0	27740	26410	154879	27067	1075415	47051	110295	0	0	8130	547466	0	0
2024-09-08 19:12:47			0	37925	0	0	0	27727	26400	154939	27216	1075253	47061	110290	0	0	8128	548738	0	0
2024-09-08 19:13:47			0	38001	0	0	0	27576	26380	154615	27189	1075146	47038	110232	0	0	8135	545857	0	0
2024-09-08 19:14:47			0	38062	0	0	0	27732	26360	154476	26956	1074975	47024	110292	0	0	8136	543565	0	0
2024-09-08 19:15:47			0	38042	0	0	0	27740	26340	154556	27157	1075055	47034	110295	0	0	8135	544398	0	0
2024-09-08 19:16:47			0	38044	0	0	0	27807	26330	154676	27326	1075135	47065	110321	0	0	8134	544352	0	0
2024-09-08 19:17:47			0	37993	0	0	0	27838	26330	154735	27322	1075198	47099	110333	0	0	8130	546323	0	0
2024-09-08 19:18:47			0	37990	0	0	0	27846	26350	154899	27223	1075315	47112	110336	0	0	8130	546376	0	0
2024-09-08 19:19:47			0	37946	0	0	0	27864	26360	155071	26944	1075432	47102	110343	0	0	8127	548049	0	0
2024-09-08 19:20:47			0	37916	0	0	0	27872	26380	155003	27190	1075486	47103	110346	0	0	8125	549149	0	0
2024-09-08 19:21:47			0	37898	0	0	0	27885	26380	155115	27059	1075495	47104	110351	0	0	8124	549848	0	0
2024-09-08 19:22:47			0	37897	0	0	0	27851	26400	155099	27118	1075549	47105	110338	0	0	8125	549824	0	0
2024-09-08 19:23:47			0	37884	0	0	0	27828	26390	155071	27225	1075477	47082	110329	0	0	8124	550361	0	0
2024-09-08 19:24:47			0	37879	0	0	0	27844	26390	155131	27244	1075459	47061	110335	0	0	8124	550555	0	0
2024-09-08 19:25:47			0	37873	0	0	0	27851	26390	155147	27150	1075477	47082	110338	0	0	8123	550788	0	0
2024-09-08 19:26:47			0	37857	0	0	0	27846	26390	155219	27001	1075477	47082	110336	0	0	8122	551410	0	0
2024-09-08 19:27:47			0	37851	0	0	0	27875	26390	155231	26866	1075567	47094	110347	0	0	8122	551644	0	0
2024-09-08 19:28:47			0	37856	0	0	0	27872	26400	155279	27187	1075603	47094	110346	0	0	8122	551418	0	0
2024-09-08 19:29:47			0	37845	0	0	0	27888	26410	155295	27086	1075675	47095	110352	0	0	8121	551814	0	0
2024-09-08 19:30:47			0	37846	0	0	0	27885	26410	155319	26634	1075594	47095	110351	0	0	8121	551775	0	0
2024-09-08 19:31:47			0	37858	0	0	0	27883	26420	155315	26913	1075666	47096	110350	0	0	8122	551277	0	0
2024-09-08 19:32:47			0	37852	0	0	0	27862	26420	155347	27036	1075639	47096	110342	0	0	8122	551510	0	0
2024-09-08 19:33:47			0	37834	0	0	0	27880	26430	155479	27268	1075666	47109	110349	0	0	8121	552179	0	0
2024-09-08 19:34:47			0	37823	0	0	0	27885	26430	155443	27131	1075747	47086	110351	0	0	8120	552608	0	0
2024-09-08 19:35:47			0	37819	0	0	0	27898	26430	155415	27017	1075684	47097	110356	0	0	8120	552764	0	0
2024-09-08 19:36:47			0	37813	0	0	0	27903	26430	155411	26896	1075792	47119	110358	0	0	8119	552998	0	0
2024-09-08 19:37:47			0	37816	0	0	0	27909	26440	155507	26878	1075756	47099	110360	0	0	8119	552849	0	0
2024-09-08 19:38:47			0	37828	0	0	0	27906	26440	155447	27102	1075810	47099	110359	0	0	8120	552382	0	0
2024-09-08 19:39:47			0	37819	0	0	0	27906	26450	155319	26932	1075828	47100	110359	0	0	8120	552700	0	0
2024-09-08 19:40:47			0	37833	0	0	0	27916	26460	155407	27248	1075900	47089	110363	0	0	8120	552124	0	0
2024-09-08 19:41:47			0	37829	0	0	0	27914	26460	155391	26986	1075909	47101	110362	0	0	8120	552280	0	0
2024-09-08 19:42:47			0	37831	0	0	0	27911	26460	155415	27202	1075855	47079	110361	0	0	8120	552201	0	0
2024-09-08 19:43:47			0	37838	0	0	0	27901	26460	155347	27422	1075900	47112	110357	0	0	8121	551929	0	0
2024-09-08 19:44:47			0	37847	0	0	0	27898	26470	155287	26986	1075891	47090	110356	0	0	8121	551547	0	0
2024-09-08 19:45:47			0	37825	0	0	0	27911	26460	155399	27163	1075873	47089	110361	0	0	8120	552435	0	0
2024-09-08 19:46:47			0	37827	0	0	0	27906	26470	155303	27137	1075918	47090	110359	0	0	8120	552326	0	0
2024-09-08 19:47:47			0	37830	0	0	0	27909	26470	155367	26944	1075864	47080	110360	0	0	8120	552209	0	0
2024-09-08 19:48:47			0	37828	0	0	0	27914	26480	155435	27052	1075909	47081	110362	0	0	8120	552255	0	0
2024-09-08 19:49:47			0	37840	0	0	0	27914	26470	155267	26927	1075927	47090	110362	0	0	8121	551820	0	0
2024-09-08 19:50:47			0	37831	0	0	0	27914	26470	155359	26930	1075900	47102	110362	0	0	8120	552170	0	0
2024-09-08 19:51:47			0	37856	0	0	0	27922	26480	155379	27230	1075945	47091	110365	0	0	8122	551166	0	0
2024-09-08 19:52:47			0	37839	0	0	0	27916	26480	155291	27374	1075936	47091	110363	0	0	8121	551827	0	0
2024-09-08 19:53:47			0	37852	0	0	0	27911	26480	155259	27161	1075891	47103	110361	0	0	8121	551321	0	0
2024-09-08 19:54:47			0	37882	0	0	0	27924	26480	155191	27130	1075936	47081	110366	0	0	8123	550155	0	0
2024-09-08 19:55:47			0	37891	0	0	0	27914	26480	155107	27045	1075972	47091	110362	0	0	8124	549806	0	0
2024-09-08 19:56:47			0	37900	0	0	0	27927	26490	155167	26955	1076008	47092	110367	0	0	8124	549425	0	0
2024-09-08 19:57:47			0	37904	0	0	0	27919	26480	155015	27232	1075999	47091	110364	0	0	8124	549301	0	0
2024-09-08 19:58:47			0	37899	0	0	0	27909	26490	155035	27007	1075981	47082	110360	0	0	8124	549464	0	0
2024-09-08 19:59:47			0	37904	0	0	0	27914	26490	154991	27105	1076017	47092	110362	0	0	8125	549270	0	0
2024-09-08 20:00:47			0	37888	0	0	0	27922	26490	155003	27086	1075927	47092	110365	0	0	8123	549891	0	0
2024-09-08 20:01:47			0	37895	0	0	0	27911	26480	154967	27118	1075918	47091	110361	0	0	8124	549650	0	0
2024-09-08 20:02:47			0	37877	0	0	0	27906	26480	155107	27124	1075936	47091	110359	0	0	8123	550350	0	0
2024-09-08 20:03:47			0	37881	0	0	0	27906	26490	155147	27161	1075927	47092	110359	0	0	8123	550163	0	0
2024-09-08 20:04:47			0	37890	0	0	0	27909	26480	155083	27124	1075945	47091	110360	0	0	8124	549845	0	0
2024-09-08 20:05:47			0	37883	0	0	0	27911	26490	155127	26904	1075981	47092	110361	0	0	8123	550085	0	0
2024-09-08 20:06:47			0	37886	0	0	0	27914	26490	155115	26922	1075990	47082	110362	0	0	8123	549968	0	0
2024-09-08 20:07:47			0	37872	0	0	0	27919	26480	155091	27377	1075972	47091	110364	0	0	8123	550544	0	0
2024-09-08 20:08:47			0	37882	0	0	0	27906	26490	155043	27362	1075981	47082	110359	0	0	8123	550124	0	0
2024-09-08 20:09:47			0	37885	0	0	0	27909	26500	155095	26993	1075999	47083	110360	0	0	8124	549976	0	0
2024-09-08 20:10:47			0	37844	0	0	0	27909	26480	155199	27098	1075999	47091	110360	0	0	8121	551632	0	0
2024-09-08 20:11:47			0	37814	0	0	0	27909	26480	155391	26937	1075972	47091	110360	0	0	8119	552801	0	0
2024-09-08 20:12:47			0	37825	0	0	0	27911	26490	155315	27121	1075981	47082	110361	0	0	8120	552340	0	0
2024-09-08 20:13:47			0	37801	0	0	0	27901	26490	155427	27059	1075954	47104	110357	0	0	8119	553276	0	0
2024-09-08 20:14:47			0	37795	0	0	0	27906	26480	155403	27190	1075918	47091	110359	0	0	8118	553541	0	0
2024-09-08 20:15:47			0	37795	0	0	0	27914	26480	155447	26989	1075999	47091	110362	0	0	8118	553541	0	0
2024-09-08 20:16:47			0	37787	0	0	0	27906	26490	155403	27177	1075927	47104	110359	0	0	8118	553821	0	0
2024-09-08 20:17:47			0	37803	0	0	0	27898	26490	155363	27124	1075981	47092	110356	0	0	8119	553197	0	0
2024-09-08 20:18:47			0	37823	0	0	0	27906	26490	155275	26779	1076008	47104	110359	0	0	8120	552418	0	0
2024-09-08 20:19:47			0	37850	0	0	0	27909	26480	155195	27107	1075936	47081	110360	0	0	8121	551399	0	0
2024-09-08 20:20:47			0	37875	0	0	0	27903	26490	155207	27163	1075954	47092	110358	0	0	8123	550396	0	0
2024-09-08 20:21:47			0	37875	0	0	0	27901	26480	155075	26911	1075936	47091	110357	0	0	8123	550427	0	0
2024-09-08 20:22:47			0	37893	0	0	0	27906	26490	155035	26901	1076008	47092	110359	0	0	8124	549697	0	0
2024-09-08 20:23:47			0	37913	0	0	0	27906	26480	154959	26866	1075972	47091	110359	0	0	8125	548952	0	0
2024-09-08 20:24:47			0	37928	0	0	0	27903	26480	154895	27039	1075963	47081	110358	0	0	8126	548370	0	0
2024-09-08 20:25:47			0	37955	0	0	0	27901	26490	154855	27149	1075963	47082	110357	0	0	8128	547293	0	0
2024-09-08 20:26:47			0	37947	0	0	0	27906	26490	154755	27057	1075900	47082	110359	0	0	8127	547603	0	0
2024-09-08 20:27:47			0	37967	0	0	0	27901	26490	154679	27039	1075954	47082	110357	0	0	8128	546829	0	0
2024-09-08 20:28:47			0	37984	0	0	0	27909	26490	154679	26904	1075981	47092	110360	0	0	8129	546171	0	0
2024-09-08 20:29:47			0	37994	0	0	0	27898	26480	154635	27048	1075972	47070	110356	0	0	8130	545816	0	0
2024-09-08 20:30:47			0	37968	0	0	0	27875	26480	154807	26965	1075945	47081	110347	0	0	8129	546821	0	0
2024-09-08 20:31:47			0	37926	0	0	0	27857	26480	154819	27203	1075882	47081	110340	0	0	8127	548448	0	0
2024-09-08 20:32:47			0	37897	0	0	0	27857	26470	155071	27242	1075846	47080	110340	0	0	8125	549604	0	0
2024-09-08 20:33:47			0	37865	0	0	0	27880	26460	155127	27083	1075801	47079	110349	0	0	8123	550879	0	0
2024-09-08 20:34:47			0	37844	0	0	0	27875	26470	155119	27202	1075864	47080	110347	0	0	8122	551664	0	0
2024-09-08 20:35:47			0	37857	0	0	0	27880	26460	155227	27053	1075775	47079	110349	0	0	8122	551190	0	0
2024-09-08 20:36:47			0	37841	0	0	0	27867	26460	155207	27234	1075801	47089	110344	0	0	8122	551812	0	0
2024-09-08 20:37:47			0	37832	0	0	0	27875	26450	155167	27256	1075783	47078	110347	0	0	8121	552194	0	0
2024-09-08 20:38:47			0	37852	0	0	0	27888	26460	155199	27055	1075765	47079	110352	0	0	8122	551384	0	0
2024-09-08 20:39:47			0	37866	0	0	0	27862	26450	155083	26911	1075837	47078	110342	0	0	8123	550871	0	0
2024-09-08 20:40:47			0	37838	0	0	0	27864	26460	155295	26977	1075792	47079	110343	0	0	8121	551929	0	0
2024-09-08 20:41:47			0	37842	0	0	0	27851	26450	155231	27223	1075730	47078	110338	0	0	8122	551805	0	0
2024-09-08 20:42:47			0	37825	0	0	0	27870	26460	155271	27060	1075819	47089	110345	0	0	8121	552435	0	0
2024-09-08 20:43:47			0	37835	0	0	0	27867	26450	155263	27013	1075783	47078	110344	0	0	8121	552077	0	0
2024-09-08 20:44:47			0	37839	0	0	0	27872	26440	155195	27326	1075738	47087	110346	0	0	8121	551953	0	0
2024-09-08 20:45:47			0	37863	0	0	0	27859	26450	155255	27306	1075783	47088	110341	0	0	8123	550988	0	0
2024-09-08 20:46:47			0	37877	0	0	0	27862	26450	155159	27220	1075721	47067	110342	0	0	8124	550444	0	0
2024-09-08 20:47:47			0	37865	0	0	0	27864	26440	155119	26823	1075765	47087	110343	0	0	8123	550942	0	0
2024-09-08 20:48:47			0	37882	0	0	0	27833	26440	155059	27206	1075685	47066	110331	0	0	8124	550281	0	0
2024-09-08 20:49:47			0	37856	0	0	0	27838	26440	155111	27260	1075649	47066	110333	0	0	8123	551292	0	0
2024-09-08 20:50:47			0	37864	0	0	0	27833	26430	155295	27182	1075640	47076	110331	0	0	8123	551012	0	0
2024-09-08 20:51:47			0	37866	0	0	0	27849	26430	155263	27166	1075640	47076	110337	0	0	8123	550934	0	0
2024-09-08 20:52:47			0	37848	0	0	0	27849	26430	155287	27095	1075666	47098	110337	0	0	8122	551635	0	0
2024-09-08 20:53:47			0	37848	0	0	0	27849	26430	155379	26918	1075604	47075	110337	0	0	8122	551635	0	0
2024-09-08 20:54:47			0	37851	0	0	0	27823	26420	155275	26805	1075595	47085	110327	0	0	8123	551549	0	0
2024-09-08 20:55:47			0	37837	0	0	0	27838	26420	155407	27124	1075558	47084	110333	0	0	8122	552094	0	0
2024-09-08 20:56:47			0	37842	0	0	0	27838	26420	155319	27410	1075585	47084	110333	0	0	8122	551900	0	0
2024-09-08 20:57:47			0	37799	0	0	0	27841	26430	155415	26897	1075577	47064	110334	0	0	8119	553543	0	0
2024-09-08 20:58:47			0	37830	0	0	0	27854	26420	155371	26974	1075585	47084	110339	0	0	8121	552367	0	0
2024-09-08 20:59:47			0	37842	0	0	0	27857	26410	155327	26849	1075603	47074	110340	0	0	8122	551931	0	0
2024-09-08 21:00:47			0	37842	0	0	0	27836	26410	155311	26774	1075621	47095	110332	0	0	8122	551931	0	0
2024-09-08 21:01:47			0	37854	0	0	0	27807	26420	155279	27131	1075595	47075	110321	0	0	8123	551433	0	0
2024-09-08 21:02:47			0	37825	0	0	0	27755	26410	155407	26807	1075540	47095	110301	0	0	8122	552593	0	0
2024-09-08 21:03:47			0	37743	0	0	0	27727	26400	155703	26847	1075397	47073	110290	0	0	8118	555825	0	0
2024-09-08 21:04:47			0	37667	0	0	0	27748	26390	156055	27102	1075352	47061	110298	0	0	8113	558834	0	0
2024-09-08 21:05:47			0	37606	0	0	0	27698	26370	156327	26977	1075289	47046	110279	0	0	8110	561295	0	0
2024-09-08 21:06:47			0	37559	0	0	0	27677	26360	156531	27053	1075136	47036	110271	0	0	8108	563179	0	0
2024-09-08 21:07:47			0	37502	0	0	0	27735	26350	156819	27218	1075118	47044	110293	0	0	8104	565462	0	0
2024-09-08 21:08:47			0	37461	0	0	0	27711	26340	156939	27137	1075163	47055	110284	0	0	8101	567117	0	0
2024-09-08 21:09:47			0	37439	0	0	0	27716	26340	157011	26902	1075127	47043	110286	0	0	8100	567990	0	0
2024-09-08 21:10:47			0	37433	0	0	0	27706	26320	156999	26937	1075064	47041	110282	0	0	8100	568292	0	0
2024-09-08 21:11:47			0	37424	0	0	0	27698	26320	157191	27189	1075064	47052	110279	0	0	8099	568650	0	0
2024-09-08 21:12:47			0	37376	0	0	0	27693	26320	157219	26873	1074983	47064	110277	0	0	8097	570557	0	0
2024-09-08 21:13:47			0	37351	0	0	0	27683	26300	157399	27119	1074983	47050	110273	0	0	8095	571617	0	0
2024-09-08 21:14:47			0	37331	0	0	0	27683	26300	157455	27216	1074956	47062	110273	0	0	8094	572414	0	0
2024-09-08 21:15:47			0	37315	0	0	0	27732	26290	157658	27332	1074901	47061	110292	0	0	8092	573085	0	0
2024-09-08 21:16:47			0	37327	0	0	0	27750	26290	157691	27272	1074982	47061	110299	0	0	8093	572606	0	0
2024-09-08 21:17:47			0	37379	0	0	0	27781	26290	157351	27267	1075036	47061	110311	0	0	8095	570535	0	0
2024-09-08 21:18:47			0	37448	0	0	0	27768	26290	157151	27235	1075072	47095	110306	0	0	8100	567795	0	0
2024-09-08 21:19:47			0	37523	0	0	0	27784	26300	156799	27111	1075090	47083	110312	0	0	8104	564794	0	0
2024-09-08 21:20:47			0	37577	0	0	0	27779	26300	156431	26935	1075144	47083	110310	0	0	8107	562662	0	0
2024-09-08 21:21:47			0	37635	0	0	0	27753	26310	156331	26786	1075153	47084	110300	0	0	8111	560347	0	0
2024-09-08 21:22:47			0	37651	0	0	0	27758	26310	156219	26909	1075126	47074	110302	0	0	8112	559718	0	0
2024-09-08 21:23:47			0	37649	0	0	0	27722	26300	156267	27059	1075063	47073	110288	0	0	8112	559829	0	0
2024-09-08 21:24:47			0	37641	0	0	0	27706	26300	156207	26946	1075063	47062	110282	0	0	8112	560143	0	0
2024-09-08 21:25:47			0	37634	0	0	0	27696	26300	156307	26987	1075063	47062	110278	0	0	8112	560418	0	0
2024-09-08 21:26:47			0	37594	0	0	0	27688	26300	156375	27178	1074920	47050	110275	0	0	8109	561992	0	0
2024-09-08 21:27:47			0	37549	0	0	0	27737	26290	156663	27090	1074938	47050	110294	0	0	8106	563799	0	0
2024-09-08 21:28:47			0	37534	0	0	0	27753	26280	156683	26850	1074910	47060	110300	0	0	8105	564423	0	0
2024-09-08 21:29:47			0	37522	0	0	0	27763	26280	156719	26982	1075054	47071	110304	0	0	8104	564898	0	0
2024-09-08 21:30:47			0	37522	0	0	0	27786	26290	156735	27038	1075009	47083	110313	0	0	8104	564865	0	0
2024-09-08 21:31:47			0	37561	0	0	0	27802	26290	156599	27213	1075072	47083	110319	0	0	8106	563325	0	0
2024-09-08 21:32:47			0	37594	0	0	0	27786	26300	156447	27159	1075117	47095	110313	0	0	8108	561992	0	0
2024-09-08 21:33:47			0	37652	0	0	0	27781	26300	156175	26974	1075144	47083	110311	0	0	8111	559711	0	0
2024-09-08 21:34:47			0	37671	0	0	0	27766	26310	156103	27034	1075189	47085	110305	0	0	8113	558933	0	0
2024-09-08 21:35:47			0	37698	0	0	0	27766	26310	156027	27453	1075162	47097	110305	0	0	8114	557873	0	0
2024-09-08 21:36:47			0	37713	0	0	0	27773	26320	155987	27152	1075198	47075	110308	0	0	8115	557254	0	0
2024-09-08 21:37:47			0	37705	0	0	0	27763	26320	155895	27253	1075144	47064	110304	0	0	8115	557567	0	0
2024-09-08 21:38:47			0	37705	0	0	0	27688	26320	155979	26991	1075117	47075	110275	0	0	8116	557567	0	0
2024-09-08 21:39:47			0	37642	0	0	0	27638	26310	156151	27230	1075028	47052	110256	0	0	8113	560072	0	0
2024-09-08 21:40:47			0	37531	0	0	0	27662	26290	156607	27067	1074901	47039	110265	0	0	8106	564510	0	0
2024-09-08 21:41:47			0	37457	0	0	0	27670	26290	157027	27215	1074901	47049	110268	0	0	8102	567438	0	0
2024-09-08 21:42:47			0	37419	0	0	0	27659	26270	157287	27145	1074847	47060	110264	0	0	8100	569011	0	0
2024-09-08 21:43:47			0	37366	0	0	0	27654	26280	157391	27310	1074749	47060	110262	0	0	8097	571085	0	0
2024-09-08 21:44:47			0	37335	0	0	0	27683	26250	157523	27261	1074650	47045	110273	0	0	8094	572418	0	0
2024-09-08 21:45:47			0	37295	0	0	0	27685	26250	157734	27128	1074704	47045	110274	0	0	8092	574014	0	0
2024-09-08 21:46:47			0	37280	0	0	0	27667	26240	157670	27092	1074713	47056	110267	0	0	8091	574646	0	0
2024-09-08 21:47:47			0	37285	0	0	0	27670	26240	157682	26972	1074686	47067	110268	0	0	8091	574447	0	0
2024-09-08 21:48:47			0	37283	0	0	0	27672	26240	157750	27268	1074766	47067	110269	0	0	8091	574526	0	0
2024-09-08 21:49:47			0	37277	0	0	0	27662	26240	157862	27128	1074659	47078	110265	0	0	8091	574766	0	0
2024-09-08 21:50:47			0	37278	0	0	0	27646	26240	157850	27260	1074730	47066	110259	0	0	8091	574726	0	0
2024-09-08 21:51:47			0	37264	0	0	0	27618	26240	157802	27114	1074686	47067	110248	0	0	8091	575286	0	0
2024-09-08 21:52:47			0	37224	0	0	0	27625	26240	158118	27149	1074596	47043	110251	0	0	8089	576888	0	0
2024-09-08 21:53:47			0	37169	0	0	0	27563	26230	158258	27000	1074524	47033	110227	0	0	8086	579128	0	0
2024-09-08 21:54:47			0	37139	0	0	0	27496	26210	158390	27261	1074416	47031	110201	0	0	8086	580400	0	0
2024-09-08 21:55:47			0	37129	0	0	0	27459	26200	158358	27201	1074282	47040	110187	0	0	8086	580836	0	0
2024-09-08 21:56:47			0	37148	0	0	0	27449	26180	158186	27336	1074147	47016	110183	0	0	8087	580137	0	0
2024-09-08 21:57:47			0	37145	0	0	0	27457	26160	158286	27300	1074057	47014	110186	0	0	8086	580324	0	0
2024-09-08 21:58:47			0	37161	0	0	0	27488	26160	158362	27277	1074048	47036	110198	0	0	8087	579681	0	0
2024-09-08 21:59:47			0	37167	0	0	0	27501	26140	158286	27343	1074075	47024	110203	0	0	8087	579506	0	0
2024-09-08 22:00:47			0	37162	0	0	0	27537	26140	158342	27261	1074101	47068	110217	0	0	8086	579707	0	0
2024-09-08 22:01:47			0	37172	0	0	0	27509	26150	158322	26922	1074137	47068	110206	0	0	8087	579272	0	0
2024-09-08 22:02:47			0	37166	0	0	0	27498	26140	158230	27237	1074092	47056	110202	0	0	8087	579546	0	0
2024-09-08 22:03:47			0	37205	0	0	0	27477	26130	158150	27300	1074030	47043	110194	0	0	8089	578012	0	0
2024-09-08 22:04:47			0	37264	0	0	0	27464	26120	157878	27497	1073958	47043	110189	0	0	8093	575680	0	0
2024-09-08 22:05:47			0	37294	0	0	0	27454	26110	157806	27441	1073886	47031	110185	0	0	8095	574513	0	0
2024-09-08 22:06:47			0	37309	0	0	0	27462	26100	157646	26970	1073895	47030	110188	0	0	8096	573947	0	0
2024-09-08 22:07:47			0	37325	0	0	0	27415	26110	157659	26986	1073886	47020	110170	0	0	8097	573275	0	0
2024-09-08 22:08:47			0	37310	0	0	0	27410	26100	157566	27398	1073805	47041	110168	0	0	8097	573906	0	0
2024-09-08 22:09:47			0	37332	0	0	0	27412	26080	157631	27196	1073778	47017	110169	0	0	8098	573093	0	0
2024-09-08 22:10:47			0	37341	0	0	0	27423	26080	157751	27357	1073689	47028	110173	0	0	8098	572734	0	0
2024-09-08 22:11:47			0	37345	0	0	0	27428	26060	157683	27232	1073661	47037	110175	0	0	8098	572640	0	0
2024-09-08 22:12:47			0	37368	0	0	0	27438	26080	157651	27357	1073742	47050	110179	0	0	8099	571658	0	0
2024-09-08 22:13:47			0	37385	0	0	0	27425	26070	157411	27085	1073724	47048	110174	0	0	8101	571013	0	0
2024-09-08 22:14:47			0	37398	0	0	0	27475	26050	157415	27064	1073679	47037	110193	0	0	8100	570561	0	0
2024-09-08 22:15:47			0	37393	0	0	0	27485	26060	157431	26762	1073715	47048	110197	0	0	8100	570727	0	0
2024-09-08 22:16:47			0	37392	0	0	0	27501	26070	157455	27090	1073805	47059	110203	0	0	8100	570735	0	0
2024-09-08 22:17:47			0	37381	0	0	0	27519	26050	157583	27102	1073760	47059	110210	0	0	8099	571238	0	0
2024-09-08 22:18:47			0	37379	0	0	0	27527	26070	157631	27317	1073921	47060	110213	0	0	8099	571252	0	0
2024-09-08 22:19:47			0	37354	0	0	0	27519	26070	157659	26920	1073885	47070	110210	0	0	8097	572248	0	0
2024-09-08 22:20:47			0	37363	0	0	0	27522	26080	157683	27225	1073876	47050	110211	0	0	8098	571857	0	0
2024-09-08 22:21:47			0	37392	0	0	0	27516	26090	157463	27229	1073921	47061	110209	0	0	8100	570670	0	0
2024-09-08 22:22:47			0	37452	0	0	0	27511	26080	157275	27327	1073903	47061	110207	0	0	8103	568317	0	0
2024-09-08 22:23:47			0	37464	0	0	0	27511	26090	157203	27147	1073948	47061	110207	0	0	8104	567808	0	0
2024-09-08 22:24:47			0	37499	0	0	0	27516	26080	157055	27203	1073912	47050	110209	0	0	8106	566453	0	0
2024-09-08 22:25:47			0	37540	0	0	0	27511	26100	156971	27189	1073966	47052	110207	0	0	8108	564766	0	0
2024-09-08 22:26:47			0	37564	0	0	0	27514	26090	156775	26925	1073895	47061	110208	0	0	8110	563850	0	0
2024-09-08 22:27:47			0	37632	0	0	0	27509	26090	156619	27064	1074002	47061	110206	0	0	8114	561169	0	0
2024-09-08 22:28:47			0	37629	0	0	0	27514	26090	156587	27013	1073957	47051	110208	0	0	8113	561287	0	0
2024-09-08 22:29:47			0	37655	0	0	0	27490	26100	156515	27008	1073913	47041	110199	0	0	8115	560232	0	0
2024-09-08 22:30:47			0	37623	0	0	0	27462	26090	156459	26817	1073868	47050	110188	0	0	8114	561523	0	0
2024-09-08 22:31:47			0	37625	0	0	0	27480	26090	156491	27218	1073841	47039	110195	0	0	8114	561445	0	0
2024-09-08 22:32:47			0	37611	0	0	0	27457	26070	156495	27246	1073787	47049	110186	0	0	8113	562060	0	0
2024-09-08 22:33:47			0	37577	0	0	0	27490	26070	156667	27384	1073733	47038	110199	0	0	8111	563401	0	0
2024-09-08 22:34:47			0	37583	0	0	0	27516	26070	156783	26890	1073841	47038	110209	0	0	8111	563165	0	0
2024-09-08 22:35:47			0	37601	0	0	0	27511	26080	156783	26968	1073850	47050	110207	0	0	8112	562422	0	0
2024-09-08 22:36:47			0	37600	0	0	0	27516	26080	156719	26705	1073903	47050	110209	0	0	8112	562462	0	0
2024-09-08 22:37:47			0	37638	0	0	0	27498	26090	156431	27201	1073921	47061	110202	0	0	8114	560933	0	0
2024-09-08 22:38:47			0	37652	0	0	0	27441	26090	156527	27176	1073841	47061	110180	0	0	8116	560382	0	0
2024-09-08 22:39:47			0	37624	0	0	0	27423	26080	156539	26949	1073778	47039	110173	0	0	8115	561516	0	0
2024-09-08 22:40:47			0	37589	0	0	0	27446	26060	156619	27353	1073715	47037	110182	0	0	8112	562960	0	0
2024-09-08 22:41:47			0	37556	0	0	0	27475	26070	156831	27265	1073724	47037	110193	0	0	8110	564231	0	0
2024-09-08 22:42:47			0	37544	0	0	0	27433	26050	157003	27137	1073733	47037	110177	0	0	8110	564769	0	0
2024-09-08 22:43:47			0	37500	0	0	0	27415	26060	157115	27282	1073742	47037	110170	0	0	8107	566478	0	0
2024-09-08 22:44:47			0	37445	0	0	0	27428	26050	157331	27128	1073643	47036	110175	0	0	8104	568692	0	0
2024-09-08 22:45:47			0	37386	0	0	0	27412	26030	157603	27242	1073589	47023	110169	0	0	8101	571104	0	0
2024-09-08 22:46:47			0	37325	0	0	0	27410	26040	157823	27173	1073598	47034	110168	0	0	8097	573504	0	0
2024-09-08 22:47:47			0	37308	0	0	0	27394	26030	157922	27105	1073535	47023	110162	0	0	8096	574216	0	0
2024-09-08 22:48:47			0	37305	0	0	0	27407	26020	157874	27157	1073517	47033	110167	0	0	8096	574368	0	0
2024-09-08 22:49:47			0	37288	0	0	0	27420	26020	157878	27124	1073517	47033	110172	0	0	8095	575048	0	0
2024-09-08 22:50:47			0	37294	0	0	0	27423	26010	158018	26987	1073499	47032	110173	0	0	8095	574841	0	0
2024-09-08 22:51:47			0	37279	0	0	0	27412	26010	158066	27303	1073544	47043	110169	0	0	8094	575441	0	0
2024-09-08 22:52:47			0	37254	0	0	0	27405	26010	157946	27109	1073490	47043	110166	0	0	8093	576442	0	0
2024-09-08 22:53:47			0	37242	0	0	0	27394	26010	158218	26961	1073463	47032	110162	0	0	8092	576923	0	0
2024-09-08 22:54:47			0	37236	0	0	0	27386	26010	158254	26901	1073463	47021	110159	0	0	8092	577164	0	0
2024-09-08 22:55:47			0	37197	0	0	0	27394	26000	158382	27517	1073454	47031	110162	0	0	8090	578763	0	0
2024-09-08 22:56:47			0	37166	0	0	0	27376	26000	158362	27294	1073418	47052	110155	0	0	8088	580009	0	0
2024-09-08 22:57:47			0	37148	0	0	0	27371	26000	158574	27083	1073400	47031	110153	0	0	8087	580734	0	0
2024-09-08 22:58:47			0	37126	0	0	0	27355	25990	158598	27300	1073356	47019	110147	0	0	8086	581653	0	0
2024-09-08 22:59:47			0	37180	0	0	0	27371	25980	158466	27235	1073328	47028	110153	0	0	8089	579512	0	0
2024-09-08 23:00:47			0	37158	0	0	0	27373	25980	158562	27229	1073328	47028	110154	0	0	8088	580397	0	0
2024-09-08 23:01:47			0	37157	0	0	0	27368	25980	158602	27055	1073382	47028	110152	0	0	8088	580437	0	0
2024-09-08 23:02:47			0	37157	0	0	0	27379	25980	158534	27196	1073328	47028	110156	0	0	8088	580437	0	0
2024-09-08 23:03:47			0	37138	0	0	0	27376	25980	158702	27338	1073302	47040	110155	0	0	8087	581203	0	0
2024-09-08 23:04:47			0	37138	0	0	0	27361	25970	158714	27367	1073257	47038	110149	0	0	8087	581236	0	0
2024-09-08 23:05:47			0	37180	0	0	0	27355	25970	158526	27350	1073293	47040	110147	0	0	8089	579545	0	0
2024-09-08 23:06:47			0	37247	0	0	0	27361	25980	158306	27067	1073382	47040	110149	0	0	8093	576822	0	0
2024-09-08 23:07:47			0	37254	0	0	0	27363	25970	158186	26961	1073257	47049	110150	0	0	8093	576574	0	0
2024-09-08 23:08:47			0	37276	0	0	0	27379	25970	158098	27178	1073257	47038	110156	0	0	8095	575693	0	0
2024-09-08 23:09:47			0	37262	0	0	0	27441	25960	158218	27050	1073301	47038	110180	0	0	8093	576286	0	0
2024-09-08 23:10:47			0	37166	0	0	0	27457	25970	158546	27126	1073454	47050	110186	0	0	8087	580108	0	0
2024-09-08 23:11:47			0	37140	0	0	0	27454	25980	158742	27294	1073499	47051	110185	0	0	8085	581122	0	0
2024-09-08 23:12:47			0	37129	0	0	0	27446	26000	158762	27111	1073526	47063	110182	0	0	8085	581499	0	0
2024-09-08 23:13:47			0	37098	0	0	0	27438	26000	158850	27222	1073535	47042	110179	0	0	8083	582749	0	0
2024-09-08 23:14:47			0	37079	0	0	0	27433	26010	158850	27050	1073544	47054	110177	0	0	8082	583483	0	0
2024-09-08 23:15:47			0	37108	0	0	0	27381	26010	158718	27015	1073463	47043	110157	0	0	8085	582312	0	0
2024-09-08 23:16:47			0	37158	0	0	0	27371	26000	158610	27076	1073391	47030	110153	0	0	8088	580331	0	0
2024-09-08 23:17:47			0	37168	0	0	0	27361	26000	158486	27135	1073400	47020	110149	0	0	8089	579928	0	0
2024-09-08 23:18:47			0	37193	0	0	0	27373	25990	158426	27682	1073347	47019	110154	0	0	8090	578956	0	0
2024-09-08 23:19:47			0	37197	0	0	0	27397	25980	158478	27306	1073364	47029	110163	0	0	8090	578829	0	0
2024-09-08 23:20:47			0	37191	0	0	0	27423	25980	158506	27161	1073355	47028	110173	0	0	8089	579070	0	0
2024-09-08 23:21:47			0	37136	0	0	0	27441	25980	158594	27222	1073418	47041	110180	0	0	8085	581283	0	0
2024-09-08 23:22:47			0	37107	0	0	0	27420	25980	158718	26928	1073445	47041	110172	0	0	8084	582453	0	0
2024-09-08 23:23:47			0	37087	0	0	0	27425	25990	158854	26866	1073490	47041	110174	0	0	8083	583227	0	0
2024-09-08 23:24:47			0	37091	0	0	0	27397	25990	158862	27130	1073490	47052	110163	0	0	8083	583065	0	0
2024-09-08 23:25:47			0	37086	0	0	0	27397	26000	158918	27248	1073445	47030	110163	0	0	8083	583234	0	0
2024-09-08 23:26:47			0	37124	0	0	0	27384	25990	158766	27230	1073436	47041	110158	0	0	8086	581734	0	0
2024-09-08 23:27:47			0	37143	0	0	0	27399	25990	158654	27140	1073400	47030	110164	0	0	8086	580968	0	0
2024-09-08 23:28:47			0	37137	0	0	0	27397	25990	158574	27291	1073373	47052	110163	0	0	8086	581210	0	0
2024-09-08 23:29:47			0	37123	0	0	0	27441	25990	158678	27326	1073481	47030	110180	0	0	8085	581774	0	0
2024-09-08 23:30:47			0	37093	0	0	0	27470	25990	158906	26755	1073508	47041	110191	0	0	8082	582984	0	0
2024-09-08 23:31:47			0	37045	0	0	0	27566	25990	159098	27000	1073597	47052	110228	0	0	8078	584925	0	0
2024-09-08 23:32:47			0	37023	0	0	0	27498	26010	159178	27008	1073732	47087	110202	0	0	8078	585748	0	0
2024-09-08 23:33:47			0	36992	0	0	0	27472	26030	159170	26887	1073750	47079	110192	0	0	8077	586938	0	0
2024-09-08 23:34:47			0	36992	0	0	0	27470	26040	159150	26863	1073742	47057	110191	0	0	8077	586904	0	0
2024-09-08 23:35:47			0	37010	0	0	0	27449	26040	159146	27253	1073688	47046	110183	0	0	8078	586175	0	0
2024-09-08 23:36:47			0	37044	0	0	0	27415	26040	159050	27265	1073652	47034	110170	0	0	8081	584798	0	0
2024-09-08 23:37:47			0	37057	0	0	0	27418	26030	158982	27232	1073661	47023	110171	0	0	8081	584306	0	0
2024-09-08 23:38:47			0	37073	0	0	0	27420	26030	158878	27067	1073607	47034	110172	0	0	8082	583659	0	0
2024-09-08 23:39:47			0	37067	0	0	0	27407	26020	158930	27033	1073651	47033	110167	0	0	8082	583935	0	0
2024-09-08 23:40:47			0	37056	0	0	0	27438	26010	158998	26854	1073463	47032	110179	0	0	8081	584413	0	0
2024-09-08 23:41:47			0	37043	0	0	0	27485	26010	159022	27059	1073571	47032	110197	0	0	8079	584939	0	0
2024-09-08 23:42:47			0	37029	0	0	0	27498	26020	159030	27199	1073669	47054	110202	0	0	8078	585472	0	0
2024-09-08 23:43:47			0	37029	0	0	0	27506	26020	159110	27092	1073598	47055	110205	0	0	8078	585472	0	0
2024-09-08 23:44:47			0	37049	0	0	0	27511	26030	159006	26991	1073804	47045	110207	0	0	8079	584629	0	0
2024-09-08 23:45:47			0	37053	0	0	0	27568	26040	158950	27230	1073822	47057	110229	0	0	8079	584434	0	0
2024-09-08 23:46:47			0	37094	0	0	0	27514	26060	158874	27149	1073876	47059	110208	0	0	8082	582711	0	0
2024-09-08 23:47:47			0	37155	0	0	0	27535	26070	158586	27223	1073993	47059	110216	0	0	8085	580220	0	0
2024-09-08 23:48:47			0	37173	0	0	0	27542	26080	158466	27114	1073930	47072	110219	0	0	8086	579463	0	0
2024-09-08 23:49:47			0	37173	0	0	0	27550	26080	158418	27131	1074011	47050	110222	0	0	8086	579463	0	0
2024-09-08 23:50:47			0	37139	0	0	0	27542	26080	158534	27204	1073957	47061	110219	0	0	8084	580831	0	0
2024-09-08 23:51:47			0	37126	0	0	0	27574	26080	158662	27093	1073957	47050	110231	0	0	8083	581355	0	0
2024-09-08 23:52:47			0	37111	0	0	0	27506	26100	158618	26948	1074047	47052	110205	0	0	8083	581893	0	0
2024-09-08 23:53:47			0	37130	0	0	0	27457	26090	158594	27220	1073930	47040	110186	0	0	8085	581160	0	0
2024-09-08 23:54:47			0	37142	0	0	0	27394	26090	158426	26864	1073814	47028	110162	0	0	8087	580677	0	0
2024-09-08 23:55:47			0	37179	0	0	0	27358	26090	158398	26981	1073707	47005	110148	0	0	8090	579189	0	0
2024-09-08 23:56:47			0	37186	0	0	0	27353	26050	158382	27164	1073563	47014	110146	0	0	8090	579039	0	0
2024-09-08 23:57:47			0	37211	0	0	0	27350	26030	158274	27012	1073473	47000	110145	0	0	8091	578101	0	0
2024-09-08 23:58:47			0	37243	0	0	0	27348	26030	158126	27289	1073473	47023	110144	0	0	8093	576817	0	0
2024-09-08 23:59:47			0	37269	0	0	0	27335	26010	157950	26968	1073392	47010	110139	0	0	8095	575841	0	0
2024-09-09 00:00:47			0	37303	0	0	0	27340	26000	157938	26880	1073320	47020	110141	0	0	8097	574514	0	0
2024-09-09 00:01:47			0	37313	0	0	0	27337	25980	157927	26923	1073337	47006	110140	0	0	8097	574180	0	0
2024-09-09 00:02:47			0	37322	0	0	0	27332	25980	157835	27249	1073275	47017	110138	0	0	8098	573820	0	0
2024-09-09 00:03:47			0	37332	0	0	0	27329	25980	157847	27157	1073248	47006	110137	0	0	8099	573420	0	0
2024-09-09 00:04:47			0	37327	0	0	0	27368	25970	157851	27405	1073239	47017	110152	0	0	8098	573653	0	0
2024-09-09 00:05:47			0	37375	0	0	0	27389	25970	157715	27324	1073310	47027	110160	0	0	8100	571737	0	0
2024-09-09 00:06:47			0	37370	0	0	0	27389	25980	157639	26908	1073355	47040	110160	0	0	8100	571904	0	0
2024-09-09 00:07:47			0	37388	0	0	0	27407	25960	157619	27088	1073301	47049	110167	0	0	8101	571252	0	0
2024-09-09 00:08:47			0	37423	0	0	0	27410	25970	157499	27249	1073400	47028	110168	0	0	8103	569826	0	0
2024-09-09 00:09:47			0	37484	0	0	0	27438	25980	157211	26835	1073418	47062	110179	0	0	8106	567371	0	0
2024-09-09 00:10:47			0	37536	0	0	0	27436	25980	157083	26949	1073463	47028	110178	0	0	8109	565311	0	0
2024-09-09 00:11:47			0	37422	0	0	0	27451	25980	157507	27185	1073516	47050	110184	0	0	8102	569834	0	0
2024-09-09 00:12:47			0	37350	0	0	0	27407	26000	157839	27235	1073562	47042	110167	0	0	8099	572637	0	0
2024-09-09 00:13:47			0	37387	0	0	0	27467	26000	157643	27124	1073553	47041	110190	0	0	8100	571161	0	0
2024-09-09 00:14:47			0	37472	0	0	0	27467	26010	157331	27045	1073597	47065	110190	0	0	8105	567750	0	0
2024-09-09 00:15:47			0	37564	0	0	0	27462	26020	156951	26902	1073651	47044	110188	0	0	8110	564076	0	0
2024-09-09 00:16:47			0	37626	0	0	0	27451	26020	156663	27180	1073678	47066	110184	0	0	8114	561630	0	0
2024-09-09 00:17:47			0	37640	0	0	0	27475	26030	156543	27189	1073670	47045	110193	0	0	8114	561046	0	0
2024-09-09 00:18:47			0	37639	0	0	0	27462	26030	156551	27296	1073687	47034	110188	0	0	8115	561086	0	0
2024-09-09 00:19:47			0	37599	0	0	0	27446	26020	156715	27017	1073705	47044	110182	0	0	8113	562694	0	0
2024-09-09 00:20:47			0	37559	0	0	0	27438	26040	156963	27017	1073705	47056	110179	0	0	8110	564209	0	0
2024-09-09 00:21:47			0	37578	0	0	0	27561	26030	156847	27105	1073643	47045	110226	0	0	8109	563490	0	0
2024-09-09 00:22:47			0	37682	0	0	0	27553	26040	156483	27223	1073840	47045	110223	0	0	8116	559362	0	0
2024-09-09 00:23:47			0	37794	0	0	0	27571	26060	156039	27001	1074010	47070	110230	0	0	8122	554910	0	0
2024-09-09 00:24:47			0	37863	0	0	0	27550	26070	155615	27095	1074055	47071	110222	0	0	8126	552185	0	0
2024-09-09 00:25:47			0	37922	0	0	0	27586	26090	155375	27144	1074118	47073	110236	0	0	8129	549826	0	0
2024-09-09 00:26:47			0	37951	0	0	0	27571	26100	155287	27121	1074128	47085	110230	0	0	8131	548669	0	0
2024-09-09 00:27:47			0	37972	0	0	0	27542	26100	155163	26993	1074163	47074	110219	0	0	8133	547854	0	0
2024-09-09 00:28:47			0	38001	0	0	0	27568	26110	155179	27007	1074181	47053	110229	0	0	8134	546700	0	0
2024-09-09 00:29:47			0	38034	0	0	0	27579	26110	155108	27258	1074208	47053	110233	0	0	8136	545423	0	0
2024-09-09 00:30:47			0	38046	0	0	0	27623	26120	154976	27374	1074253	47055	110250	0	0	8136	544928	0	0
2024-09-09 00:31:47			0	38104	0	0	0	27623	26130	154648	27220	1074325	47077	110250	0	0	8139	542659	0	0
2024-09-09 00:32:47			0	38159	0	0	0	27633	26140	154572	27241	1074343	47080	110254	0	0	8142	540511	0	0
2024-09-09 00:33:47			0	38180	0	0	0	27623	26150	154380	27222	1074406	47080	110250	0	0	8144	539674	0	0
2024-09-09 00:34:47			0	38192	0	0	0	27605	26150	154344	27369	1074361	47068	110243	0	0	8145	539213	0	0
2024-09-09 00:35:47			0	38197	0	0	0	27615	26170	154300	27085	1074388	47059	110247	0	0	8145	538960	0	0
2024-09-09 00:36:47			0	38205	0	0	0	27555	26170	154200	27031	1074388	47059	110224	0	0	8146	538653	0	0
2024-09-09 00:37:47			0	38174	0	0	0	27610	26170	154360	27222	1074415	47059	110245	0	0	8144	539842	0	0
2024-09-09 00:38:47			0	38202	0	0	0	27599	26170	154284	27090	1074415	47047	110241	0	0	8146	538768	0	0
2024-09-09 00:39:47			0	38216	0	0	0	27631	26170	154272	27263	1074388	47070	110253	0	0	8146	538231	0	0
2024-09-09 00:40:47			0	38221	0	0	0	27623	26170	154208	27192	1074478	47047	110250	0	0	8146	538039	0	0
2024-09-09 00:41:47			0	38240	0	0	0	27628	26180	154136	26904	1074461	47060	110252	0	0	8147	537281	0	0
2024-09-09 00:42:47			0	38255	0	0	0	27623	26180	154136	27140	1074487	47060	110250	0	0	8148	536706	0	0
2024-09-09 00:43:47			0	38233	0	0	0	27633	26190	154092	26934	1074506	47062	110254	0	0	8147	537518	0	0
2024-09-09 00:44:47			0	38263	0	0	0	27633	26180	154024	27000	1074523	47072	110254	0	0	8149	536400	0	0
2024-09-09 00:45:47			0	38279	0	0	0	27625	26200	153916	27209	1074524	47062	110251	0	0	8150	535727	0	0
2024-09-09 00:46:47			0	38273	0	0	0	27644	26190	153952	27396	1074568	47062	110258	0	0	8149	535987	0	0
2024-09-09 00:47:47			0	38283	0	0	0	27633	26200	153920	27249	1074577	47051	110254	0	0	8150	535574	0	0
2024-09-09 00:48:47			0	38269	0	0	0	27636	26210	154072	26960	1074622	47064	110255	0	0	8149	536079	0	0
2024-09-09 00:49:47			0	38271	0	0	0	27654	26210	154060	27241	1074622	47053	110262	0	0	8149	536003	0	0
2024-09-09 00:50:47			0	38290	0	0	0	27620	26220	153848	27409	1074614	47064	110249	0	0	8151	535246	0	0
2024-09-09 00:51:47			0	38304	0	0	0	27646	26210	153832	27010	1074631	47053	110259	0	0	8151	534742	0	0
2024-09-09 00:52:47			0	38320	0	0	0	27623	26220	153708	27381	1074560	47075	110250	0	0	8152	534101	0	0
2024-09-09 00:53:47			0	38327	0	0	0	27628	26220	153640	27078	1074614	47053	110252	0	0	8153	533834	0	0
2024-09-09 00:54:47			0	38356	0	0	0	27586	26210	153640	27284	1074578	47031	110236	0	0	8155	532759	0	0
2024-09-09 00:55:47			0	38342	0	0	0	27574	26210	153624	27208	1074524	47053	110231	0	0	8154	533292	0	0
2024-09-09 00:56:47			0	38389	0	0	0	27550	26200	153428	27178	1074416	47040	110222	0	0	8157	531533	0	0
2024-09-09 00:57:47			0	38407	0	0	0	27561	26200	153392	26956	1074336	47040	110226	0	0	8158	530849	0	0
2024-09-09 00:58:47			0	38400	0	0	0	27571	26190	153480	27402	1074380	47040	110230	0	0	8158	531145	0	0
2024-09-09 00:59:47			0	38412	0	0	0	27558	26180	153384	26960	1074470	47028	110225	0	0	8158	530719	0	0
2024-09-09 01:00:47			0	38417	0	0	0	27548	26180	153276	27145	1074362	47039	110221	0	0	8159	530529	0	0
2024-09-09 01:01:47			0	38423	0	0	0	27527	26170	153368	26785	1074344	47047	110213	0	0	8160	530332	0	0
2024-09-09 01:02:47			0	38425	0	0	0	27548	26170	153384	27190	1074317	47047	110221	0	0	8159	530256	0	0
2024-09-09 01:03:47			0	38425	0	0	0	27542	26160	153216	26918	1074299	47037	110219	0	0	8159	530286	0	0
2024-09-09 01:04:47			0	38430	0	0	0	27537	26160	153300	27204	1074299	47037	110217	0	0	8160	530096	0	0
2024-09-09 01:05:47			0	38461	0	0	0	27527	26170	153112	27078	1074264	47047	110213	0	0	8162	528889	0	0
2024-09-09 01:06:47			0	38486	0	0	0	27542	26160	153056	27100	1074290	47046	110219	0	0	8163	527972	0	0
2024-09-09 01:07:47			0	38483	0	0	0	27558	26150	153176	27357	1074173	47035	110225	0	0	8162	528116	0	0
2024-09-09 01:08:47			0	38512	0	0	0	27529	26150	153096	27421	1074254	47035	110214	0	0	8165	527018	0	0
2024-09-09 01:09:47			0	38520	0	0	0	27532	26150	153036	27291	1074245	47035	110215	0	0	8165	526715	0	0
2024-09-09 01:10:47			0	38509	0	0	0	27524	26150	153040	26852	1074227	47024	110212	0	0	8164	527131	0	0
2024-09-09 01:11:47			0	38502	0	0	0	27511	26140	152972	27052	1074182	47045	110207	0	0	8164	527426	0	0
2024-09-09 01:12:47			0	38485	0	0	0	27509	26140	153192	26979	1074128	47035	110206	0	0	8163	528070	0	0
2024-09-09 01:13:47			0	38479	0	0	0	27524	26140	153168	27150	1074155	47024	110212	0	0	8163	528298	0	0
2024-09-09 01:14:47			0	38463	0	0	0	27516	26130	153216	27230	1074191	47055	110209	0	0	8162	528934	0	0
2024-09-09 01:15:47			0	38458	0	0	0	27511	26140	153272	27026	1074173	47023	110207	0	0	8162	529094	0	0
2024-09-09 01:16:47			0	38462	0	0	0	27529	26130	153276	27196	1074083	47033	110214	0	0	8162	528972	0	0
2024-09-09 01:17:47			0	38429	0	0	0	27516	26140	153324	26778	1074066	47045	110209	0	0	8160	530194	0	0
2024-09-09 01:18:47			0	38435	0	0	0	27522	26130	153372	26842	1074164	47033	110211	0	0	8160	529997	0	0
2024-09-09 01:19:47			0	38429	0	0	0	27501	26130	153340	27069	1074030	47033	110203	0	0	8160	530225	0	0
2024-09-09 01:20:47			0	38417	0	0	0	27498	26120	153356	27196	1074065	47043	110202	0	0	8159	530711	0	0
2024-09-09 01:21:47			0	38401	0	0	0	27509	26120	153364	26925	1074038	47033	110206	0	0	8158	531319	0	0
2024-09-09 01:22:47			0	38417	0	0	0	27527	26130	153400	27126	1074128	47043	110213	0	0	8159	530681	0	0
2024-09-09 01:23:47			0	38409	0	0	0	27532	26110	153472	27098	1074047	47041	110215	0	0	8158	531045	0	0
2024-09-09 01:24:47			0	38399	0	0	0	27511	26130	153504	27206	1074101	47022	110207	0	0	8158	531365	0	0
2024-09-09 01:25:47			0	38379	0	0	0	27498	26130	153520	27152	1074048	47033	110202	0	0	8157	532126	0	0
2024-09-09 01:26:47			0	38387	0	0	0	27514	26120	153612	27116	1074065	47043	110208	0	0	8157	531852	0	0
2024-09-09 01:27:47			0	38381	0	0	0	27490	26120	153608	27142	1073976	47042	110199	0	0	8157	532080	0	0
2024-09-09 01:28:47			0	38367	0	0	0	27485	26110	153576	27140	1074038	47030	110197	0	0	8157	532644	0	0
2024-09-09 01:29:47			0	38358	0	0	0	27480	26110	153644	27187	1073994	47031	110195	0	0	8156	532987	0	0
2024-09-09 01:30:47			0	38339	0	0	0	27480	26110	153660	27144	1073984	47030	110195	0	0	8155	533711	0	0
2024-09-09 01:31:47			0	38320	0	0	0	27483	26090	153804	27126	1073984	47029	110196	0	0	8154	534497	0	0
2024-09-09 01:32:47			0	38306	0	0	0	27472	26100	153884	27050	1073949	47052	110192	0	0	8153	535001	0	0
2024-09-09 01:33:47			0	38303	0	0	0	27464	26090	153804	27036	1073930	47029	110189	0	0	8153	535146	0	0
2024-09-09 01:34:47			0	38306	0	0	0	27467	26090	153880	27081	1073895	47028	110190	0	0	8153	535032	0	0
2024-09-09 01:35:47			0	38282	0	0	0	27472	26090	153836	27194	1073877	47040	110192	0	0	8152	535949	0	0
2024-09-09 01:36:47			0	38281	0	0	0	27454	26080	153908	27079	1073886	47028	110185	0	0	8152	536018	0	0
2024-09-09 01:37:47			0	38266	0	0	0	27472	26090	154056	27178	1073895	47028	110192	0	0	8151	536561	0	0
2024-09-09 01:38:47			0	38256	0	0	0	27444	26070	154040	27196	1073814	47038	110181	0	0	8151	537005	0	0
2024-09-09 01:39:47			0	38260	0	0	0	27441	26090	154068	26975	1073787	47028	110180	0	0	8151	536791	0	0
2024-09-09 01:40:47			0	38284	0	0	0	27446	26070	154104	27128	1073733	47016	110182	0	0	8152	535934	0	0
2024-09-09 01:41:47			0	38271	0	0	0	27423	26060	154052	27201	1073742	47037	110173	0	0	8152	536462	0	0
2024-09-09 01:42:47			0	38243	0	0	0	27449	26050	154048	26845	1073760	47026	110183	0	0	8150	537564	0	0
2024-09-09 01:43:47			0	38237	0	0	0	27433	26060	154028	26850	1073688	47015	110177	0	0	8150	537764	0	0
2024-09-09 01:44:47			0	38250	0	0	0	27501	26040	154140	26922	1073634	47024	110203	0	0	8149	537327	0	0
2024-09-09 01:45:47			0	38234	0	0	0	27496	26050	154112	27126	1073697	47047	110201	0	0	8149	537909	0	0
2024-09-09 01:46:47			0	38250	0	0	0	27475	26050	154124	27229	1073831	47058	110193	0	0	8150	537296	0	0
2024-09-09 01:47:47			0	38265	0	0	0	27475	26050	154108	26955	1073778	47047	110193	0	0	8151	536722	0	0
2024-09-09 01:48:47			0	38255	0	0	0	27496	26050	154168	27452	1073760	47026	110201	0	0	8150	537105	0	0
2024-09-09 01:49:47			0	38261	0	0	0	27503	26060	153960	27192	1073903	47059	110204	0	0	8150	536844	0	0
2024-09-09 01:50:47			0	38286	0	0	0	27506	26070	154084	26878	1073858	47059	110205	0	0	8152	535857	0	0
2024-09-09 01:51:47			0	38276	0	0	0	27527	26070	154040	27062	1073939	47059	110213	0	0	8151	536240	0	0
2024-09-09 01:52:47			0	38289	0	0	0	27540	26070	153888	26906	1073921	47060	110218	0	0	8151	535742	0	0
2024-09-09 01:53:47			0	38296	0	0	0	27542	26090	153928	26656	1073975	47061	110219	0	0	8152	535414	0	0
2024-09-09 01:54:47			0	38307	0	0	0	27537	26080	153884	26811	1073984	47061	110217	0	0	8152	535024	0	0
2024-09-09 01:55:47			0	38334	0	0	0	27550	26100	153948	26590	1074083	47063	110222	0	0	8154	533932	0	0
2024-09-09 01:56:47			0	38328	0	0	0	27545	26090	153844	26906	1074092	47051	110220	0	0	8153	534192	0	0
2024-09-09 01:57:47			0	38308	0	0	0	27548	26100	153868	26970	1074074	47041	110221	0	0	8152	534925	0	0
2024-09-09 01:58:47			0	38314	0	0	0	27542	26100	153908	27026	1074047	47041	110219	0	0	8153	534696	0	0
2024-09-09 01:59:47			0	38310	0	0	0	27571	26110	153908	27150	1074038	47052	110230	0	0	8152	534818	0	0
2024-09-09 02:00:47			0	38300	0	0	0	27568	26120	153928	27152	1074137	47054	110229	0	0	8152	535169	0	0
2024-09-09 02:01:47			0	38285	0	0	0	27576	26120	154128	27206	1074191	47054	110232	0	0	8151	535743	0	0
2024-09-09 02:02:47			0	38263	0	0	0	27584	26120	154120	26823	1074307	47055	110235	0	0	8149	536584	0	0
2024-09-09 02:03:47			0	38254	0	0	0	27571	26120	153964	27202	1074200	47077	110230	0	0	8149	536928	0	0
2024-09-09 02:04:47			0	38279	0	0	0	27579	26130	154060	27164	1074218	47055	110233	0	0	8150	535941	0	0
2024-09-09 02:05:47			0	38308	0	0	0	27581	26130	153912	27402	1074245	47043	110234	0	0	8152	534833	0	0
2024-09-09 02:06:47			0	38313	0	0	0	27586	26130	153796	27118	1074289	47055	110236	0	0	8152	534642	0	0
2024-09-09 02:07:47			0	38333	0	0	0	27592	26130	153828	26906	1074209	47043	110238	0	0	8153	533879	0	0
2024-09-09 02:08:47			0	38327	0	0	0	27599	26130	153676	27208	1074245	47066	110241	0	0	8153	534108	0	0
2024-09-09 02:09:47			0	38338	0	0	0	27607	26140	153652	27182	1074289	47057	110244	0	0	8153	533658	0	0
2024-09-09 02:10:47			0	38354	0	0	0	27579	26150	153516	27062	1074308	47068	110233	0	0	8155	533018	0	0
2024-09-09 02:11:47			0	38380	0	0	0	27599	26150	153560	27052	1074361	47068	110241	0	0	8156	532027	0	0
2024-09-09 02:12:47			0	38370	0	0	0	27597	26160	153608	26720	1074343	47046	110240	0	0	8155	532378	0	0
2024-09-09 02:13:47			0	38369	0	0	0	27612	26150	153680	27086	1074308	47057	110246	0	0	8155	532446	0	0
2024-09-09 02:14:47			0	38360	0	0	0	27638	26160	153688	26994	1074406	47070	110256	0	0	8154	532759	0	0
2024-09-09 02:15:47			0	38313	0	0	0	27625	26160	153724	26994	1074433	47059	110251	0	0	8151	534551	0	0
2024-09-09 02:16:47			0	38351	0	0	0	27625	26170	153736	27175	1074452	47070	110251	0	0	8154	533071	0	0
2024-09-09 02:17:47			0	38376	0	0	0	27618	26170	153656	27258	1074496	47059	110248	0	0	8155	532119	0	0
2024-09-09 02:18:47			0	38364	0	0	0	27623	26180	153564	27000	1074514	47060	110250	0	0	8155	532545	0	0
2024-09-09 02:19:47			0	38354	0	0	0	27628	26190	153676	27163	1074488	47062	110252	0	0	8154	532896	0	0
2024-09-09 02:20:47			0	38344	0	0	0	27633	26190	153624	27152	1074532	47062	110254	0	0	8153	533277	0	0
2024-09-09 02:21:47			0	38341	0	0	0	27623	26190	153636	27119	1074595	47073	110250	0	0	8153	533391	0	0
2024-09-09 02:22:47			0	38348	0	0	0	27646	26190	153696	27452	1074559	47073	110259	0	0	8153	533124	0	0
2024-09-09 02:23:47			0	38333	0	0	0	27696	26200	153644	27306	1074577	47073	110278	0	0	8152	533666	0	0
2024-09-09 02:24:47			0	38332	0	0	0	27667	26200	153652	27208	1074604	47073	110267	0	0	8152	533704	0	0
2024-09-09 02:25:47			0	38310	0	0	0	27683	26200	153832	27383	1074667	47063	110273	0	0	8151	534543	0	0
2024-09-09 02:26:47			0	38247	0	0	0	27659	26200	154128	26873	1074640	47052	110264	0	0	8147	536951	0	0
2024-09-09 02:27:47			0	38162	0	0	0	27675	26210	154256	27112	1074649	47053	110270	0	0	8142	540180	0	0
2024-09-09 02:28:47			0	38123	0	0	0	27716	26210	154432	27124	1074739	47086	110286	0	0	8139	541680	0	0
2024-09-09 02:29:47			0	38087	0	0	0	27761	26220	154712	27244	1074775	47086	110303	0	0	8136	543035	0	0
2024-09-09 02:30:47			0	37983	0	0	0	27758	26220	155051	27260	1074864	47076	110302	0	0	8130	547053	0	0
2024-09-09 02:31:47			0	37951	0	0	0	27773	26240	155227	27102	1074918	47077	110308	0	0	8128	548231	0	0
2024-09-09 02:32:47			0	37920	0	0	0	27776	26240	155291	26526	1074972	47088	110309	0	0	8127	549434	0	0
2024-09-09 02:33:47			0	37902	0	0	0	27794	26250	155387	27261	1074990	47090	110316	0	0	8125	550101	0	0
2024-09-09 02:34:47			0	37858	0	0	0	27792	26270	155575	26850	1075089	47104	110315	0	0	8123	551750	0	0
2024-09-09 02:35:47			0	37830	0	0	0	27794	26270	155559	27232	1075143	47093	110316	0	0	8121	552840	0	0
2024-09-09 02:36:47			0	37797	0	0	0	27789	26280	155615	27324	1075161	47093	110314	0	0	8119	554096	0	0
2024-09-09 02:37:47			0	37793	0	0	0	27784	26290	155739	27097	1075206	47073	110312	0	0	8119	554221	0	0
2024-09-09 02:38:47			0	37773	0	0	0	27799	26300	155727	27119	1075278	47083	110318	0	0	8118	554970	0	0
2024-09-09 02:39:47			0	37763	0	0	0	27792	26310	155815	26845	1075287	47074	110315	0	0	8118	555329	0	0
2024-09-09 02:40:47			0	37745	0	0	0	27792	26320	155871	27187	1075359	47085	110315	0	0	8117	556001	0	0
2024-09-09 02:41:47			0	37728	0	0	0	27789	26320	156003	27026	1075278	47085	110314	0	0	8116	556666	0	0
2024-09-09 02:42:47			0	37729	0	0	0	27776	26330	155927	27272	1075323	47076	110309	0	0	8116	556595	0	0
2024-09-09 02:43:47			0	37714	0	0	0	27773	26320	155967	27223	1075207	47065	110308	0	0	8115	557215	0	0
2024-09-09 02:44:47			0	37704	0	0	0	27761	26320	155903	27213	1075234	47065	110303	0	0	8115	557607	0	0
2024-09-09 02:45:47			0	37685	0	0	0	27761	26320	156007	27149	1075252	47085	110303	0	0	8114	558351	0	0
2024-09-09 02:46:47			0	37689	0	0	0	27776	26320	156147	27341	1075252	47075	110309	0	0	8114	558195	0	0
2024-09-09 02:47:47			0	37633	0	0	0	27768	26330	156155	26849	1075243	47065	110306	0	0	8110	560361	0	0
2024-09-09 02:48:47			0	37655	0	0	0	27763	26320	156163	27178	1075234	47086	110304	0	0	8112	559529	0	0
2024-09-09 02:49:47			0	37642	0	0	0	27771	26330	156179	27071	1075270	47065	110307	0	0	8111	560008	0	0
2024-09-09 02:50:47			0	37641	0	0	0	27776	26320	156171	27251	1075261	47065	110309	0	0	8111	560079	0	0
2024-09-09 02:51:47			0	37653	0	0	0	27776	26330	156191	27015	1075189	47076	110309	0	0	8112	559576	0	0
2024-09-09 02:52:47			0	37635	0	0	0	27776	26330	156163	27272	1075198	47054	110309	0	0	8110	560283	0	0
2024-09-09 02:53:47			0	37637	0	0	0	27773	26320	156235	27159	1075234	47076	110308	0	0	8111	560236	0	0
2024-09-09 02:54:47			0	37628	0	0	0	27768	26330	156235	26786	1075270	47053	110306	0	0	8110	560558	0	0
2024-09-09 02:55:47			0	37641	0	0	0	27766	26320	156239	27038	1075261	47065	110305	0	0	8111	560079	0	0
2024-09-09 02:56:47			0	37629	0	0	0	27776	26330	156259	27301	1075216	47065	110309	0	0	8110	560519	0	0
2024-09-09 02:57:47			0	37620	0	0	0	27784	26320	156319	27036	1075261	47076	110312	0	0	8109	560905	0	0
2024-09-09 02:58:47			0	37596	0	0	0	27768	26320	156419	26986	1075234	47076	110306	0	0	8108	561849	0	0
2024-09-09 02:59:47			0	37593	0	0	0	27773	26320	156387	27109	1075225	47064	110308	0	0	8108	561968	0	0
2024-09-09 03:00:47			0	37616	0	0	0	27740	26320	156443	27052	1075180	47086	110295	0	0	8110	561062	0	0
2024-09-09 03:01:47			0	37600	0	0	0	27680	26320	156451	26896	1075126	47042	110272	0	0	8110	561692	0	0
2024-09-09 03:02:47			0	37594	0	0	0	27724	26320	156447	27097	1075037	47052	110289	0	0	8109	561928	0	0
2024-09-09 03:03:47			0	37585	0	0	0	27706	26290	156607	26819	1074938	47050	110282	0	0	8109	562379	0	0
2024-09-09 03:04:47			0	37568	0	0	0	27716	26300	156591	26913	1075036	47050	110286	0	0	8107	563017	0	0
2024-09-09 03:05:47			0	37542	0	0	0	27711	26290	156679	27005	1075045	47050	110284	0	0	8106	564075	0	0
2024-09-09 03:06:47			0	37540	0	0	0	27727	26290	156643	27154	1074982	47061	110290	0	0	8106	564154	0	0
2024-09-09 03:07:47			0	37530	0	0	0	27719	26280	156743	26753	1075054	47071	110287	0	0	8105	564581	0	0
2024-09-09 03:08:47			0	37535	0	0	0	27729	26290	156827	27111	1075063	47072	110291	0	0	8105	564352	0	0
2024-09-09 03:09:47			0	37525	0	0	0	27735	26290	156827	27296	1075072	47073	110293	0	0	8105	564747	0	0
2024-09-09 03:10:47			0	37517	0	0	0	27745	26280	156755	27071	1075107	47082	110297	0	0	8104	565095	0	0
2024-09-09 03:11:47			0	37516	0	0	0	27711	26280	156839	27085	1075054	47082	110284	0	0	8104	565135	0	0
2024-09-09 03:12:47			0	37514	0	0	0	27696	26280	156799	27066	1075000	47060	110278	0	0	8105	565214	0	0
2024-09-09 03:13:47			0	37494	0	0	0	27690	26280	156931	27046	1075000	47060	110276	0	0	8103	566005	0	0
2024-09-09 03:14:47			0	37470	0	0	0	27722	26280	156911	27211	1074910	47071	110288	0	0	8102	566955	0	0
2024-09-09 03:15:47			0	37492	0	0	0	27727	26270	157095	27183	1074919	47059	110290	0	0	8103	566116	0	0
2024-09-09 03:16:47			0	37466	0	0	0	27763	26280	156983	26885	1075054	47071	110304	0	0	8101	567114	0	0
2024-09-09 03:17:47			0	37511	0	0	0	27781	26280	156855	27282	1075134	47082	110311	0	0	8103	565332	0	0
2024-09-09 03:18:47			0	37527	0	0	0	27792	26300	156875	27255	1075135	47083	110315	0	0	8104	564635	0	0
2024-09-09 03:19:47			0	37536	0	0	0	27794	26300	156835	27150	1075269	47095	110316	0	0	8104	564280	0	0
2024-09-09 03:20:47			0	37580	0	0	0	27794	26310	156663	27045	1075296	47097	110316	0	0	8107	562512	0	0
2024-09-09 03:21:47			0	37589	0	0	0	27792	26320	156571	27166	1075341	47098	110315	0	0	8107	562125	0	0
2024-09-09 03:22:47			0	37599	0	0	0	27792	26320	156563	27343	1075305	47097	110315	0	0	8108	561731	0	0
2024-09-09 03:23:47			0	37611	0	0	0	27784	26330	156411	27227	1075323	47086	110312	0	0	8109	561227	0	0
2024-09-09 03:24:47			0	37600	0	0	0	27805	26340	156327	26833	1075377	47089	110320	0	0	8108	561628	0	0
2024-09-09 03:25:47			0	37625	0	0	0	27786	26330	156339	27109	1075440	47077	110313	0	0	8110	560676	0	0
2024-09-09 03:26:47			0	37628	0	0	0	27794	26350	156303	27270	1075360	47100	110316	0	0	8110	560494	0	0
2024-09-09 03:27:47			0	37650	0	0	0	27761	26340	156339	27033	1075377	47078	110303	0	0	8112	559661	0	0
2024-09-09 03:28:47			0	37678	0	0	0	27740	26350	156115	27072	1075342	47079	110295	0	0	8114	558530	0	0
2024-09-09 03:29:47			0	37694	0	0	0	27724	26350	156039	27147	1075306	47067	110289	0	0	8115	557903	0	0
2024-09-09 03:30:47			0	37683	0	0	0	27719	26330	156007	27142	1075225	47066	110287	0	0	8114	558398	0	0
2024-09-09 03:31:47			0	37689	0	0	0	27763	26340	156187	27081	1075216	47078	110304	0	0	8114	558131	0	0
2024-09-09 03:32:47			0	37673	0	0	0	27779	26340	156259	27086	1075288	47077	110310	0	0	8113	558758	0	0
2024-09-09 03:33:47			0	37643	0	0	0	27771	26320	156251	27223	1075288	47086	110307	0	0	8111	560000	0	0
2024-09-09 03:34:47			0	37648	0	0	0	27758	26320	156207	27294	1075261	47076	110302	0	0	8111	559804	0	0
2024-09-09 03:35:47			0	37649	0	0	0	27753	26330	156283	26984	1075270	47065	110300	0	0	8112	559733	0	0
2024-09-09 03:36:47			0	37663	0	0	0	27779	26340	156175	27034	1075324	47067	110310	0	0	8112	559151	0	0
2024-09-09 03:37:47			0	37695	0	0	0	27779	26340	156243	27116	1075351	47078	110310	0	0	8114	557895	0	0
2024-09-09 03:38:47			0	37702	0	0	0	27773	26330	156147	27244	1075243	47076	110308	0	0	8114	557653	0	0
2024-09-09 03:39:47			0	37729	0	0	0	27776	26330	156147	27015	1075333	47087	110309	0	0	8116	556595	0	0
2024-09-09 03:40:47			0	37711	0	0	0	27771	26330	156059	27010	1075252	47066	110307	0	0	8115	557300	0	0
2024-09-09 03:41:47			0	37715	0	0	0	27748	26320	156099	26904	1075261	47076	110298	0	0	8116	557175	0	0
2024-09-09 03:42:47			0	37715	0	0	0	27729	26340	156067	26764	1075315	47066	110291	0	0	8116	557112	0	0
2024-09-09 03:43:47			0	37699	0	0	0	27750	26330	156127	27081	1075297	47053	110299	0	0	8115	557771	0	0
2024-09-09 03:44:47			0	37687	0	0	0	27768	26320	156207	27017	1075171	47075	110306	0	0	8114	558273	0	0
2024-09-09 03:45:47			0	37706	0	0	0	27727	26320	156167	26826	1075207	47053	110290	0	0	8115	557528	0	0
2024-09-09 03:46:47			0	37715	0	0	0	27729	26310	156179	27274	1075135	47052	110291	0	0	8116	557207	0	0
2024-09-09 03:47:47			0	37702	0	0	0	27714	26310	156211	27213	1075108	47064	110285	0	0	8115	557717	0	0
2024-09-09 03:48:47			0	37693	0	0	0	27628	26310	156195	27031	1075072	47063	110252	0	0	8116	558069	0	0
2024-09-09 03:49:47			0	37665	0	0	0	27623	26290	156247	27130	1074965	47062	110250	0	0	8115	559232	0	0
2024-09-09 03:50:47			0	37624	0	0	0	27636	26290	156447	27138	1074982	47039	110255	0	0	8112	560843	0	0
2024-09-09 03:51:47			0	37576	0	0	0	27623	26280	156615	27045	1074830	47060	110250	0	0	8109	562766	0	0
2024-09-09 03:52:47			0	37554	0	0	0	27631	26260	156743	27265	1074767	47046	110253	0	0	8108	563698	0	0
2024-09-09 03:53:47			0	37511	0	0	0	27651	26250	156779	26892	1074784	47045	110261	0	0	8105	565429	0	0
2024-09-09 03:54:47			0	37494	0	0	0	27605	26240	156883	27253	1074739	47056	110243	0	0	8105	566134	0	0
2024-09-09 03:55:47			0	37496	0	0	0	27589	26240	157027	27131	1074703	47043	110237	0	0	8105	566055	0	0
2024-09-09 03:56:47			0	37439	0	0	0	27574	26230	157195	27039	1074668	47043	110231	0	0	8102	568346	0	0
2024-09-09 03:57:47			0	37395	0	0	0	27563	26220	157375	26927	1074596	47042	110227	0	0	8100	570127	0	0
2024-09-09 03:58:47			0	37365	0	0	0	27571	26220	157451	26807	1074569	47054	110230	0	0	8098	571321	0	0
2024-09-09 03:59:47			0	37322	0	0	0	27586	26220	157567	26941	1074596	47065	110236	0	0	8095	573035	0	0
2024-09-09 04:00:47			0	37297	0	0	0	27618	26220	157842	26774	1074560	47053	110248	0	0	8093	574033	0	0
2024-09-09 04:01:47			0	37290	0	0	0	27594	26210	157758	27043	1074595	47053	110239	0	0	8093	574345	0	0
2024-09-09 04:02:47			0	37334	0	0	0	27584	26210	157727	27100	1074578	47041	110235	0	0	8096	572589	0	0
2024-09-09 04:03:47			0	37347	0	0	0	27584	26200	157631	26916	1074613	47052	110235	0	0	8096	572103	0	0
2024-09-09 04:04:47			0	37344	0	0	0	27571	26200	157671	26996	1074604	47062	110230	0	0	8096	572223	0	0
2024-09-09 04:05:47			0	37369	0	0	0	27571	26200	157579	27039	1074506	47063	110230	0	0	8098	571227	0	0
2024-09-09 04:06:47			0	37356	0	0	0	27555	26200	157659	26802	1074533	47052	110224	0	0	8097	571744	0	0
2024-09-09 04:07:47			0	37349	0	0	0	27568	26200	157603	27242	1074524	47040	110229	0	0	8097	572023	0	0
2024-09-09 04:08:47			0	37331	0	0	0	27602	26180	157779	26949	1074470	47061	110242	0	0	8095	572806	0	0
2024-09-09 04:09:47			0	37309	0	0	0	27680	26180	157766	27062	1074497	47061	110272	0	0	8092	573685	0	0
2024-09-09 04:10:47			0	37315	0	0	0	27714	26190	157839	27175	1074541	47062	110285	0	0	8092	573412	0	0
2024-09-09 04:11:47			0	37309	0	0	0	27690	26190	157830	27296	1074640	47062	110276	0	0	8092	573652	0	0
2024-09-09 04:12:47			0	37322	0	0	0	27633	26210	157879	26974	1074676	47097	110254	0	0	8094	573067	0	0
2024-09-09 04:13:47			0	37317	0	0	0	27576	26200	157691	27119	1074560	47074	110232	0	0	8095	573300	0	0
2024-09-09 04:14:47			0	37340	0	0	0	27610	26200	157683	26677	1074577	47051	110245	0	0	8095	572382	0	0
2024-09-09 04:15:47			0	37345	0	0	0	27602	26180	157675	26654	1074470	47039	110242	0	0	8096	572248	0	0
2024-09-09 04:16:47			0	37334	0	0	0	27589	26190	157715	26901	1074479	47051	110237	0	0	8095	572654	0	0
2024-09-09 04:17:47			0	37329	0	0	0	27607	26190	157747	26904	1074461	47062	110244	0	0	8095	572854	0	0
2024-09-09 04:18:47			0	37322	0	0	0	27641	26190	157811	27140	1074506	47062	110257	0	0	8094	573133	0	0
2024-09-09 04:19:47			0	37306	0	0	0	27636	26180	157774	27190	1074497	47061	110255	0	0	8093	573804	0	0
2024-09-09 04:20:47			0	37317	0	0	0	27586	26180	157902	27157	1074470	47061	110236	0	0	8094	573365	0	0
2024-09-09 04:21:47			0	37306	0	0	0	27581	26180	157914	26925	1074470	47050	110234	0	0	8094	573804	0	0
2024-09-09 04:22:47			0	37315	0	0	0	27610	26180	157839	26887	1074497	47083	110245	0	0	8094	573445	0	0
2024-09-09 04:23:47			0	37329	0	0	0	27690	26180	157759	26759	1074487	47049	110276	0	0	8093	572886	0	0
2024-09-09 04:24:47			0	37319	0	0	0	27748	26180	157715	26885	1074550	47061	110298	0	0	8092	573285	0	0
2024-09-09 04:25:47			0	37336	0	0	0	27789	26200	157739	26979	1074739	47095	110314	0	0	8092	572542	0	0
2024-09-09 04:26:47			0	37334	0	0	0	27807	26210	157791	26838	1074891	47097	110321	0	0	8092	572589	0	0
2024-09-09 04:27:47			0	37346	0	0	0	27802	26220	157763	27105	1074990	47120	110319	0	0	8093	572078	0	0
2024-09-09 04:28:47			0	37368	0	0	0	27719	26250	157635	26942	1074999	47090	110287	0	0	8095	571103	0	0
2024-09-09 04:29:47			0	37382	0	0	0	27628	26250	157447	27090	1074919	47068	110252	0	0	8098	570546	0	0
2024-09-09 04:30:47			0	37415	0	0	0	27581	26230	157191	27178	1074748	47055	110234	0	0	8100	569299	0	0
2024-09-09 04:31:47			0	37451	0	0	0	27651	26230	157231	26948	1074668	47043	110261	0	0	8101	567870	0	0
2024-09-09 04:32:47			0	37439	0	0	0	27677	26220	157259	27157	1074730	47042	110271	0	0	8100	568379	0	0
2024-09-09 04:33:47			0	37413	0	0	0	27685	26230	157347	27265	1074685	47055	110274	0	0	8099	569379	0	0
2024-09-09 04:34:47			0	37414	0	0	0	27732	26220	157387	27256	1074694	47064	110292	0	0	8098	569372	0	0
2024-09-09 04:35:47			0	37376	0	0	0	27768	26230	157535	27102	1074793	47077	110306	0	0	8095	570850	0	0
2024-09-09 04:36:47			0	37395	0	0	0	27789	26230	157511	27298	1074909	47088	110314	0	0	8096	570094	0	0
2024-09-09 04:37:47			0	37397	0	0	0	27792	26250	157475	27301	1075044	47112	110315	0	0	8096	569950	0	0
2024-09-09 04:38:47			0	37409	0	0	0	27805	26260	157491	27225	1075179	47102	110320	0	0	8096	569440	0	0
2024-09-09 04:39:47			0	37448	0	0	0	27805	26270	157283	27263	1075170	47115	110320	0	0	8099	567860	0	0
2024-09-09 04:40:47			0	37436	0	0	0	27812	26280	157231	26887	1075242	47093	110323	0	0	8098	568303	0	0
2024-09-09 04:41:47			0	37464	0	0	0	27807	26300	157071	27159	1075278	47083	110321	0	0	8100	567128	0	0
2024-09-09 04:42:47			0	37511	0	0	0	27807	26310	156995	27027	1075341	47096	110321	0	0	8103	565235	0	0
2024-09-09 04:43:47			0	37504	0	0	0	27807	26310	156859	27107	1075377	47085	110321	0	0	8102	565512	0	0
2024-09-09 04:44:47			0	37522	0	0	0	27823	26330	156851	26717	1075467	47087	110327	0	0	8103	564736	0	0
2024-09-09 04:45:47			0	37560	0	0	0	27807	26330	156675	27024	1075440	47087	110321	0	0	8106	563236	0	0
2024-09-09 04:46:47			0	37568	0	0	0	27815	26330	156691	26967	1075431	47086	110324	0	0	8106	562920	0	0
2024-09-09 04:47:47			0	37610	0	0	0	27825	26360	156443	27013	1075486	47080	110328	0	0	8108	561170	0	0
2024-09-09 04:48:47			0	37630	0	0	0	27828	26360	156471	26802	1075486	47102	110329	0	0	8109	560383	0	0
2024-09-09 04:49:47			0	37644	0	0	0	27810	26370	156371	26996	1075521	47080	110322	0	0	8111	559801	0	0
2024-09-09 04:50:47			0	37668	0	0	0	27802	26370	156215	27118	1075557	47080	110319	0	0	8112	558859	0	0
2024-09-09 04:51:47			0	37675	0	0	0	27823	26380	156211	27124	1075513	47070	110327	0	0	8112	558552	0	0
2024-09-09 04:52:47			0	37710	0	0	0	27815	26370	155947	26817	1075531	47080	110324	0	0	8114	557212	0	0
2024-09-09 04:53:47			0	37733	0	0	0	27818	26380	155867	26873	1075566	47081	110325	0	0	8116	556280	0	0
2024-09-09 04:54:47			0	37762	0	0	0	27799	26370	155811	26736	1075575	47091	110318	0	0	8118	555178	0	0
2024-09-09 04:55:47			0	37788	0	0	0	27823	26390	155655	26920	1075585	47093	110327	0	0	8119	554099	0	0
2024-09-09 04:56:47			0	37813	0	0	0	27831	26390	155607	26991	1075665	47082	110330	0	0	8120	553124	0	0
2024-09-09 04:57:47			0	37832	0	0	0	27825	26390	155507	26765	1075638	47071	110328	0	0	8121	552384	0	0
2024-09-09 04:58:47			0	37835	0	0	0	27831	26390	155479	26894	1075665	47082	110330	0	0	8121	552267	0	0
2024-09-09 04:59:47			0	37846	0	0	0	27825	26390	155543	26911	1075647	47094	110328	0	0	8122	551838	0	0
2024-09-09 05:00:47			0	37863	0	0	0	27831	26390	155367	27128	1075594	47083	110330	0	0	8123	551177	0	0
2024-09-09 05:01:47			0	37901	0	0	0	27818	26390	155247	27074	1075647	47094	110325	0	0	8125	549700	0	0
2024-09-09 05:02:47			0	37913	0	0	0	27815	26400	155175	26752	1075630	47083	110324	0	0	8126	549203	0	0
2024-09-09 05:03:47			0	37908	0	0	0	27815	26400	155143	26743	1075656	47072	110324	0	0	8126	549397	0	0
2024-09-09 05:04:47			0	37918	0	0	0	27820	26400	155215	26948	1075665	47083	110326	0	0	8126	549009	0	0
2024-09-09 05:05:47			0	37926	0	0	0	27820	26400	155211	27123	1075576	47083	110326	0	0	8127	548699	0	0
2024-09-09 05:06:47			0	37923	0	0	0	27823	26400	155095	26981	1075612	47083	110327	0	0	8127	548815	0	0
2024-09-09 05:07:47			0	37908	0	0	0	27838	26390	155107	27062	1075621	47094	110333	0	0	8126	549428	0	0
2024-09-09 05:08:47			0	37935	0	0	0	27820	26400	155103	26873	1075639	47083	110326	0	0	8127	548350	0	0
2024-09-09 05:09:47			0	37902	0	0	0	27807	26410	155179	27293	1075621	47083	110321	0	0	8126	549599	0	0
2024-09-09 05:10:47			0	37909	0	0	0	27807	26410	155179	27152	1075648	47073	110321	0	0	8126	549327	0	0
2024-09-09 05:11:47			0	37924	0	0	0	27815	26400	155111	27071	1075639	47083	110324	0	0	8127	548776	0	0
2024-09-09 05:12:47			0	37898	0	0	0	27825	26410	155203	27107	1075648	47083	110328	0	0	8125	549754	0	0
2024-09-09 05:13:47			0	37871	0	0	0	27815	26410	155375	27152	1075701	47083	110324	0	0	8124	550803	0	0
2024-09-09 05:14:47			0	37882	0	0	0	27805	26400	155383	27078	1075665	47083	110320	0	0	8125	550407	0	0
2024-09-09 05:15:47			0	37861	0	0	0	27789	26410	155319	26833	1075621	47095	110314	0	0	8124	551192	0	0
2024-09-09 05:16:47			0	37889	0	0	0	27784	26410	155195	26979	1075630	47074	110312	0	0	8125	550103	0	0
2024-09-09 05:17:47			0	37909	0	0	0	27784	26400	155155	26739	1075585	47073	110312	0	0	8127	549358	0	0
2024-09-09 05:18:47			0	37917	0	0	0	27805	26400	155163	27199	1075558	47073	110320	0	0	8127	549048	0	0
2024-09-09 05:19:47			0	37893	0	0	0	27802	26400	155243	26994	1075639	47073	110319	0	0	8125	549979	0	0
2024-09-09 05:20:47			0	37887	0	0	0	27786	26400	155319	26909	1075585	47083	110313	0	0	8125	550213	0	0
2024-09-09 05:21:47			0	37851	0	0	0	27794	26410	155359	27001	1075648	47083	110316	0	0	8123	551581	0	0
2024-09-09 05:22:47			0	37792	0	0	0	27799	26410	155667	27222	1075594	47073	110318	0	0	8120	553880	0	0
2024-09-09 05:23:47			0	37750	0	0	0	27810	26400	155795	27092	1075630	47094	110322	0	0	8117	555552	0	0
2024-09-09 05:24:47			0	37723	0	0	0	27805	26400	155863	27067	1075639	47083	110320	0	0	8115	556608	0	0
2024-09-09 05:25:47			0	37694	0	0	0	27812	26400	155887	27039	1075630	47083	110323	0	0	8114	557743	0	0
2024-09-09 05:26:47			0	37692	0	0	0	27810	26410	155991	27039	1075648	47083	110322	0	0	8114	557790	0	0
2024-09-09 05:27:47			0	37697	0	0	0	27810	26400	155955	26765	1075639	47073	110322	0	0	8114	557626	0	0
2024-09-09 05:28:47			0	37714	0	0	0	27805	26410	155787	27052	1075675	47061	110320	0	0	8115	556928	0	0
2024-09-09 05:29:47			0	37739	0	0	0	27810	26400	155819	26720	1075639	47083	110322	0	0	8116	555982	0	0
2024-09-09 05:30:47			0	37745	0	0	0	27810	26400	155751	27105	1075576	47083	110322	0	0	8117	555747	0	0
2024-09-09 05:31:47			0	37744	0	0	0	27812	26410	155747	27118	1075675	47083	110323	0	0	8117	555754	0	0
2024-09-09 05:32:47			0	37767	0	0	0	27805	26400	155775	27026	1075719	47073	110320	0	0	8118	554887	0	0
2024-09-09 05:33:47			0	37766	0	0	0	27805	26410	155559	27138	1075701	47083	110320	0	0	8118	554895	0	0
2024-09-09 05:34:47			0	37773	0	0	0	27792	26410	155575	26989	1075621	47073	110315	0	0	8119	554621	0	0
2024-09-09 05:35:47			0	37774	0	0	0	27807	26410	155499	27005	1075621	47061	110321	0	0	8118	554582	0	0
2024-09-09 05:36:47			0	37790	0	0	0	27815	26410	155535	26868	1075648	47061	110324	0	0	8119	553958	0	0
2024-09-09 05:37:47			0	37795	0	0	0	27810	26410	155359	26987	1075675	47083	110322	0	0	8120	553763	0	0
2024-09-09 05:38:47			0	37781	0	0	0	27807	26410	155503	27204	1075648	47073	110321	0	0	8119	554309	0	0
2024-09-09 05:39:47			0	37775	0	0	0	27812	26420	155387	26935	1075693	47074	110323	0	0	8118	554511	0	0
2024-09-09 05:40:47			0	37757	0	0	0	27797	26410	155487	26963	1075621	47073	110317	0	0	8118	555246	0	0
2024-09-09 05:41:47			0	37778	0	0	0	27802	26410	155571	26960	1075675	47073	110319	0	0	8119	554426	0	0
2024-09-09 05:42:47			0	37769	0	0	0	27781	26410	155599	26901	1075657	47063	110311	0	0	8119	554777	0	0
2024-09-09 05:43:47			0	37756	0	0	0	27792	26420	155595	27086	1075693	47084	110315	0	0	8118	555254	0	0
2024-09-09 05:44:47			0	37745	0	0	0	27797	26410	155727	26788	1075675	47073	110317	0	0	8117	555715	0	0
2024-09-09 05:45:47			0	37694	0	0	0	27802	26410	155815	27015	1075675	47073	110319	0	0	8114	557712	0	0
2024-09-09 05:46:47			0	37672	0	0	0	27805	26410	155923	26948	1075621	47073	110320	0	0	8113	558574	0	0
2024-09-09 05:47:47			0	37661	0	0	0	27797	26400	155891	27027	1075665	47095	110317	0	0	8112	559038	0	0
2024-09-09 05:48:47			0	37644	0	0	0	27789	26410	156071	26828	1075710	47051	110314	0	0	8111	559673	0	0
2024-09-09 05:49:47			0	37633	0	0	0	27781	26400	156123	27001	1075665	47073	110311	0	0	8111	560137	0	0
2024-09-09 05:50:47			0	37649	0	0	0	27786	26390	156143	26960	1075567	47083	110313	0	0	8111	559541	0	0
2024-09-09 05:51:47			0	37621	0	0	0	27792	26400	156223	26809	1075612	47073	110315	0	0	8110	560609	0	0
2024-09-09 05:52:47			0	37596	0	0	0	27802	26400	156287	26741	1075603	47049	110319	0	0	8108	561593	0	0
2024-09-09 05:53:47			0	37607	0	0	0	27797	26390	156431	26694	1075621	47083	110317	0	0	8109	561192	0	0
2024-09-09 05:54:47			0	37583	0	0	0	27784	26400	156443	26731	1075603	47072	110312	0	0	8108	562104	0	0
2024-09-09 05:55:47			0	37610	0	0	0	27781	26400	156243	27324	1075656	47072	110311	0	0	8109	561042	0	0
2024-09-09 05:56:47			0	37619	0	0	0	27786	26400	156215	26934	1075630	47061	110313	0	0	8110	560688	0	0
2024-09-09 05:57:47			0	37663	0	0	0	27776	26400	156151	26863	1075576	47072	110309	0	0	8112	558959	0	0
2024-09-09 05:58:47			0	37643	0	0	0	27781	26400	156155	27010	1075576	47083	110311	0	0	8111	559744	0	0
2024-09-09 05:59:47			0	37646	0	0	0	27781	26390	156067	26916	1075531	47071	110311	0	0	8111	559659	0	0
2024-09-09 06:00:47			0	37655	0	0	0	27781	26380	156071	26856	1075549	47071	110311	0	0	8112	559337	0	0
2024-09-09 06:01:47			0	37664	0	0	0	27784	26400	156047	26641	1075603	47072	110312	0	0	8112	558920	0	0
2024-09-09 06:02:47			0	37657	0	0	0	27773	26400	156111	27081	1075576	47072	110308	0	0	8112	559195	0	0
2024-09-09 06:03:47			0	37650	0	0	0	27784	26380	156075	26750	1075566	47081	110312	0	0	8111	559533	0	0
2024-09-09 06:04:47			0	37612	0	0	0	27786	26380	156159	26937	1075495	47060	110313	0	0	8109	561027	0	0
2024-09-09 06:05:47			0	37608	0	0	0	27784	26380	156267	26772	1075522	47071	110312	0	0	8109	561184	0	0
2024-09-09 06:06:47			0	37601	0	0	0	27779	26390	156387	27130	1075504	47071	110310	0	0	8109	561428	0	0
2024-09-09 06:07:47			0	37577	0	0	0	27773	26370	156435	27209	1075477	47057	110308	0	0	8107	562437	0	0
2024-09-09 06:08:47			0	37555	0	0	0	27781	26380	156607	27343	1075566	47081	110311	0	0	8106	563272	0	0
2024-09-09 06:09:47			0	37540	0	0	0	27781	26380	156547	27301	1075513	47081	110311	0	0	8105	563864	0	0
2024-09-09 06:10:47			0	37531	0	0	0	27789	26380	156647	27213	1075566	47070	110314	0	0	8104	564220	0	0
2024-09-09 06:11:47			0	37505	0	0	0	27786	26370	156687	27007	1075450	47057	110313	0	0	8103	565279	0	0
2024-09-09 06:12:47			0	37503	0	0	0	27781	26380	156695	27026	1075549	47071	110311	0	0	8103	565326	0	0
2024-09-09 06:13:47			0	37493	0	0	0	27786	26380	156655	27003	1075540	47081	110313	0	0	8102	565721	0	0
2024-09-09 06:14:47			0	37469	0	0	0	27776	26390	156827	26970	1075558	47082	110309	0	0	8101	566639	0	0
2024-09-09 06:15:47			0	37454	0	0	0	27781	26380	156927	27208	1075513	47059	110311	0	0	8100	567265	0	0
2024-09-09 06:16:47			0	37443	0	0	0	27786	26370	156867	27206	1075450	47057	110313	0	0	8099	567734	0	0
2024-09-09 06:17:47			0	37422	0	0	0	27773	26380	157007	26786	1075540	47070	110308	0	0	8098	568534	0	0
2024-09-09 06:18:47			0	37410	0	0	0	27776	26380	157047	27163	1075540	47081	110309	0	0	8098	569010	0	0
2024-09-09 06:19:47			0	37417	0	0	0	27781	26380	157019	27140	1075513	47081	110311	0	0	8098	568732	0	0
2024-09-09 06:20:47			0	37414	0	0	0	27776	26370	157099	27213	1075531	47080	110309	0	0	8098	568884	0	0
2024-09-09 06:21:47			0	37379	0	0	0	27771	26370	157163	27189	1075477	47069	110307	0	0	8096	570274	0	0
2024-09-09 06:22:47			0	37368	0	0	0	27773	26370	157219	27154	1075477	47069	110308	0	0	8095	570712	0	0
2024-09-09 06:23:47			0	37379	0	0	0	27771	26370	157235	27039	1075504	47069	110307	0	0	8096	570274	0	0
2024-09-09 06:24:47			0	37361	0	0	0	27776	26380	157319	26788	1075486	47070	110309	0	0	8095	570958	0	0
2024-09-09 06:25:47			0	37343	0	0	0	27776	26370	157451	26989	1075504	47080	110309	0	0	8094	571707	0	0
2024-09-09 06:26:47			0	37332	0	0	0	27779	26370	157415	26826	1075441	47057	110310	0	0	8093	572145	0	0
2024-09-09 06:27:47			0	37319	0	0	0	27776	26380	157367	27033	1075486	47070	110309	0	0	8092	572631	0	0
2024-09-09 06:28:47			0	37303	0	0	0	27776	26360	157458	27036	1075432	47091	110309	0	0	8091	573334	0	0
2024-09-09 06:29:47			0	37300	0	0	0	27773	26370	157622	27100	1075477	47069	110308	0	0	8091	573421	0	0
2024-09-09 06:30:47			0	37267	0	0	0	27779	26370	157682	26899	1075531	47080	110310	0	0	8089	574739	0	0
2024-09-09 06:31:47			0	37270	0	0	0	27781	26380	157714	27074	1075432	47081	110311	0	0	8089	574586	0	0
2024-09-09 06:32:47			0	37253	0	0	0	27784	26380	157698	27088	1075486	47092	110312	0	0	8088	575266	0	0
2024-09-09 06:33:47			0	37242	0	0	0	27789	26370	157734	27015	1075504	47069	110314	0	0	8087	575739	0	0
2024-09-09 06:34:47			0	37245	0	0	0	27781	26380	157810	27086	1075486	47070	110311	0	0	8088	575586	0	0
2024-09-09 06:35:47			0	37226	0	0	0	27773	26370	157770	27048	1075557	47057	110308	0	0	8087	576379	0	0
2024-09-09 06:36:47			0	37213	0	0	0	27779	26370	157866	27248	1075450	47069	110310	0	0	8086	576900	0	0
2024-09-09 06:37:47			0	37210	0	0	0	27779	26370	157810	27076	1075450	47069	110310	0	0	8086	577020	0	0
2024-09-09 06:38:47			0	37228	0	0	0	27784	26370	157922	27118	1075548	47057	110312	0	0	8087	576299	0	0
2024-09-09 06:39:47			0	37191	0	0	0	27768	26370	157894	27140	1075495	47080	110306	0	0	8085	577782	0	0
2024-09-09 06:40:47			0	37196	0	0	0	27776	26370	157894	27147	1075521	47080	110309	0	0	8085	577581	0	0
2024-09-09 06:41:47			0	37187	0	0	0	27784	26370	157926	26807	1075504	47080	110312	0	0	8084	577942	0	0
2024-09-09 06:42:47			0	37189	0	0	0	27789	26370	158010	27145	1075504	47057	110314	0	0	8084	577862	0	0
2024-09-09 06:43:47			0	37180	0	0	0	27786	26380	157974	26837	1075486	47070	110313	0	0	8084	578190	0	0
2024-09-09 06:44:47			0	37175	0	0	0	27781	26370	158070	26986	1075521	47069	110311	0	0	8084	578424	0	0
2024-09-09 06:45:47			0	37150	0	0	0	27789	26380	158226	27029	1075549	47071	110314	0	0	8082	579395	0	0
2024-09-09 06:46:47			0	37137	0	0	0	27779	26370	158102	27164	1075521	47057	110310	0	0	8081	579950	0	0
2024-09-09 06:47:47			0	37131	0	0	0	27781	26370	158158	26722	1075477	47069	110311	0	0	8081	580192	0	0
2024-09-09 06:48:47			0	37121	0	0	0	27789	26370	158154	26850	1075521	47069	110314	0	0	8080	580594	0	0
2024-09-09 06:49:47			0	37129	0	0	0	27781	26380	158318	27012	1075540	47070	110311	0	0	8081	580239	0	0
2024-09-09 06:50:47			0	37117	0	0	0	27781	26360	158290	26833	1075486	47069	110311	0	0	8080	580788	0	0
2024-09-09 06:51:47			0	37103	0	0	0	27776	26370	158454	27256	1075521	47057	110309	0	0	8080	581318	0	0
2024-09-09 06:52:47			0	37085	0	0	0	27781	26370	158374	26911	1075468	47057	110311	0	0	8078	582044	0	0
2024-09-09 06:53:47			0	37091	0	0	0	27779	26370	158338	27052	1075468	47080	110310	0	0	8079	581802	0	0
2024-09-09 06:54:47			0	37099	0	0	0	27771	26370	158542	26961	1075531	47069	110307	0	0	8079	581479	0	0
2024-09-09 06:55:47			0	37087	0	0	0	27776	26380	158442	26739	1075566	47070	110309	0	0	8079	581930	0	0
2024-09-09 06:56:47			0	37100	0	0	0	27771	26370	158442	26748	1075477	47091	110307	0	0	8079	581439	0	0
2024-09-09 06:57:47			0	37072	0	0	0	27779	26370	158358	27190	1075495	47080	110310	0	0	8078	582568	0	0
2024-09-09 06:58:47			0	37085	0	0	0	27773	26370	158502	26946	1075468	47080	110308	0	0	8079	582044	0	0
2024-09-09 06:59:47			0	37080	0	0	0	27776	26370	158466	27038	1075521	47080	110309	0	0	8078	582245	0	0
2024-09-09 07:00:47			0	37076	0	0	0	27779	26370	158502	26831	1075468	47069	110310	0	0	8078	582406	0	0
2024-09-09 07:01:47			0	37064	0	0	0	27784	26380	158534	27216	1075593	47092	110312	0	0	8077	582857	0	0
2024-09-09 07:02:47			0	37053	0	0	0	27779	26380	158610	27078	1075513	47059	110310	0	0	8077	583301	0	0
2024-09-09 07:03:47			0	37052	0	0	0	27776	26370	158566	26750	1075495	47069	110309	0	0	8077	583375	0	0
2024-09-09 07:04:47			0	37052	0	0	0	27776	26370	158646	27137	1075504	47080	110309	0	0	8077	583375	0	0
2024-09-09 07:05:47			0	37037	0	0	0	27776	26370	158674	26833	1075557	47080	110309	0	0	8076	583980	0	0
2024-09-09 07:06:47			0	37019	0	0	0	27779	26370	158594	26857	1075504	47069	110310	0	0	8075	584708	0	0
2024-09-09 07:07:47			0	37043	0	0	0	27779	26370	158534	27145	1075477	47080	110310	0	0	8076	583738	0	0
2024-09-09 07:08:47			0	37013	0	0	0	27766	26370	158642	26682	1075477	47057	110305	0	0	8074	584950	0	0
2024-09-09 07:09:47			0	37007	0	0	0	27771	26370	158618	27003	1075468	47069	110307	0	0	8074	585193	0	0
2024-09-09 07:10:47			0	36994	0	0	0	27779	26370	158690	27062	1075468	47080	110310	0	0	8073	585719	0	0
2024-09-09 07:11:47			0	36985	0	0	0	27779	26350	158842	26911	1075530	47068	110310	0	0	8072	586150	0	0
2024-09-09 07:12:47			0	36984	0	0	0	27781	26370	158938	27017	1075495	47069	110311	0	0	8072	586124	0	0
2024-09-09 07:13:47			0	36971	0	0	0	27781	26370	158914	27079	1075495	47091	110311	0	0	8072	586650	0	0
2024-09-09 07:14:47			0	36941	0	0	0	27773	26370	158862	26975	1075531	47069	110308	0	0	8070	587866	0	0
2024-09-09 07:15:47			0	36943	0	0	0	27771	26380	158998	27020	1075540	47081	110307	0	0	8070	587752	0	0
2024-09-09 07:16:47			0	36929	0	0	0	27761	26380	158998	27194	1075513	47059	110303	0	0	8070	588320	0	0
2024-09-09 07:17:47			0	36950	0	0	0	27750	26370	159094	27185	1075468	47069	110299	0	0	8071	587501	0	0
2024-09-09 07:18:47			0	36930	0	0	0	27761	26370	158978	26715	1075450	47069	110303	0	0	8070	588313	0	0
2024-09-09 07:19:47			0	36929	0	0	0	27784	26370	159126	26876	1075495	47057	110312	0	0	8069	588353	0	0
2024-09-09 07:20:47			0	36933	0	0	0	27792	26370	159026	26981	1075531	47069	110315	0	0	8069	588191	0	0
2024-09-09 07:21:47			0	36930	0	0	0	27784	26370	159050	27116	1075477	47080	110312	0	0	8069	588313	0	0
2024-09-09 07:22:47			0	36911	0	0	0	27786	26370	159018	26786	1075468	47069	110313	0	0	8068	589084	0	0
2024-09-09 07:23:47			0	36931	0	0	0	27792	26360	159122	27020	1075512	47080	110315	0	0	8069	588306	0	0
2024-09-09 07:24:47			0	36937	0	0	0	27779	26370	159006	26778	1075504	47069	110310	0	0	8070	588029	0	0
2024-09-09 07:25:47			0	36941	0	0	0	27753	26390	159066	26899	1075558	47071	110300	0	0	8070	587799	0	0
2024-09-09 07:26:47			0	36951	0	0	0	27758	26370	159058	27124	1075521	47069	110302	0	0	8071	587461	0	0
2024-09-09 07:27:47			0	36946	0	0	0	27740	26370	159006	27190	1075504	47069	110295	0	0	8071	587664	0	0
2024-09-09 07:28:47			0	36944	0	0	0	27729	26370	159078	27164	1075495	47080	110291	0	0	8071	587745	0	0
2024-09-09 07:29:47			0	36944	0	0	0	27737	26370	158978	26949	1075468	47080	110294	0	0	8071	587745	0	0
2024-09-09 07:30:47			0	36956	0	0	0	27724	26370	159030	26778	1075423	47069	110289	0	0	8072	587258	0	0
2024-09-09 07:31:47			0	36960	0	0	0	27709	26370	158942	27144	1075423	47069	110283	0	0	8072	587096	0	0
2024-09-09 07:32:47			0	36977	0	0	0	27683	26360	158882	27123	1075405	47057	110273	0	0	8074	586440	0	0
2024-09-09 07:33:47			0	37001	0	0	0	27657	26350	158854	26925	1075288	47068	110263	0	0	8075	585502	0	0
2024-09-09 07:34:47			0	36980	0	0	0	27649	26330	158842	26828	1075225	47043	110260	0	0	8074	586420	0	0
2024-09-09 07:35:47			0	36982	0	0	0	27638	26330	158862	26927	1075189	47053	110256	0	0	8075	586339	0	0
2024-09-09 07:36:47			0	36984	0	0	0	27649	26320	158866	26802	1075090	47052	110260	0	0	8074	586291	0	0
2024-09-09 07:37:47			0	37003	0	0	0	27659	26320	158846	26774	1075171	47052	110264	0	0	8075	585522	0	0
2024-09-09 07:38:47			0	36980	0	0	0	27659	26310	158830	27005	1075135	47064	110264	0	0	8074	586487	0	0
2024-09-09 07:39:47			0	36984	0	0	0	27664	26300	158970	26967	1075117	47073	110266	0	0	8074	586358	0	0
2024-09-09 07:40:47			0	36992	0	0	0	27664	26300	158846	26804	1075054	47050	110266	0	0	8075	586034	0	0
2024-09-09 07:41:47			0	36989	0	0	0	27672	26300	158798	27076	1075063	47062	110269	0	0	8074	586156	0	0
2024-09-09 07:42:47			0	36998	0	0	0	27657	26290	158834	27027	1075116	47061	110263	0	0	8075	585825	0	0
2024-09-09 07:43:47			0	37004	0	0	0	27649	26280	158890	27149	1074973	47060	110260	0	0	8075	585615	0	0
2024-09-09 07:44:47			0	37008	0	0	0	27662	26290	158806	27062	1075009	47061	110265	0	0	8075	585420	0	0
2024-09-09 07:45:47			0	37018	0	0	0	27654	26280	158714	26961	1074973	47048	110262	0	0	8076	585049	0	0
2024-09-09 07:46:47			0	37023	0	0	0	27646	26270	158714	26819	1074982	47038	110259	0	0	8077	584880	0	0
2024-09-09 07:47:47			0	37032	0	0	0	27659	26270	158750	26975	1074982	47048	110264	0	0	8077	584516	0	0
2024-09-09 07:48:47			0	37060	0	0	0	27654	26280	158674	27168	1074964	47048	110262	0	0	8079	583352	0	0
2024-09-09 07:49:47			0	37070	0	0	0	27654	26270	158602	27097	1075000	47047	110262	0	0	8079	582981	0	0
2024-09-09 07:50:47			0	37078	0	0	0	27662	26270	158582	26736	1074973	47059	110265	0	0	8080	582659	0	0
2024-09-09 07:51:47			0	37103	0	0	0	27664	26260	158454	26824	1074856	47058	110266	0	0	8081	581684	0	0
2024-09-09 07:52:47			0	37123	0	0	0	27664	26260	158294	27352	1074990	47069	110266	0	0	8082	580878	0	0
2024-09-09 07:53:47			0	37149	0	0	0	27670	26260	158306	27131	1074981	47069	110268	0	0	8084	579832	0	0
2024-09-09 07:54:47			0	37150	0	0	0	27664	26260	158326	26719	1074990	47058	110266	0	0	8084	579792	0	0
2024-09-09 07:55:47			0	37174	0	0	0	27675	26260	158286	27072	1075008	47058	110270	0	0	8085	578828	0	0
2024-09-09 07:56:47			0	37158	0	0	0	27675	26270	158086	26868	1074973	47070	110270	0	0	8084	579437	0	0
2024-09-09 07:57:47			0	37208	0	0	0	27683	26270	158090	27163	1074955	47060	110273	0	0	8087	577430	0	0
2024-09-09 07:58:47			0	37203	0	0	0	27677	26260	158046	26878	1075071	47069	110271	0	0	8087	577664	0	0
2024-09-09 07:59:47			0	37224	0	0	0	27683	26260	157978	26948	1074981	47058	110273	0	0	8088	576822	0	0
2024-09-09 08:00:47			0	37238	0	0	0	27683	26270	157942	26781	1074973	47059	110273	0	0	8089	576228	0	0
2024-09-09 08:01:47			0	37253	0	0	0	27675	26260	157906	27223	1074964	47058	110270	0	0	8090	575661	0	0
2024-09-09 08:02:47			0	37261	0	0	0	27683	26260	157898	26935	1075017	47058	110273	0	0	8090	575340	0	0
2024-09-09 08:03:47			0	37277	0	0	0	27690	26270	157686	27241	1075026	47059	110276	0	0	8091	574668	0	0
2024-09-09 08:04:47			0	37298	0	0	0	27696	26260	157706	27118	1074964	47058	110278	0	0	8092	573862	0	0
2024-09-09 08:05:47			0	37290	0	0	0	27698	26270	157642	26975	1075026	47059	110279	0	0	8091	574148	0	0
2024-09-09 08:06:47			0	37315	0	0	0	27675	26280	157791	26934	1075071	47071	110270	0	0	8093	573118	0	0
2024-09-09 08:07:47			0	37321	0	0	0	27680	26270	157747	27048	1074955	47060	110272	0	0	8093	572911	0	0
2024-09-09 08:08:47			0	37346	0	0	0	27667	26270	157615	27135	1075062	47060	110267	0	0	8095	571914	0	0
2024-09-09 08:09:47			0	37362	0	0	0	27664	26270	157423	26856	1075062	47082	110266	0	0	8096	571277	0	0
2024-09-09 08:10:47			0	37385	0	0	0	27654	26270	157335	26840	1074982	47060	110262	0	0	8098	570362	0	0
2024-09-09 08:11:47			0	37403	0	0	0	27638	26270	157287	27225	1074982	47048	110256	0	0	8099	569646	0	0
2024-09-09 08:12:47			0	37420	0	0	0	27654	26270	157167	27019	1074946	47070	110262	0	0	8100	568971	0	0
2024-09-09 08:13:47			0	37447	0	0	0	27646	26260	157047	27289	1074937	47058	110259	0	0	8101	567932	0	0
2024-09-09 08:14:47			0	37454	0	0	0	27646	26260	156991	27294	1074937	47058	110259	0	0	8102	567654	0	0
2024-09-09 08:15:47			0	37478	0	0	0	27638	26260	156847	27192	1074856	47058	110256	0	0	8103	566703	0	0
2024-09-09 08:16:47			0	37501	0	0	0	27636	26260	156751	27034	1075008	47046	110255	0	0	8105	565793	0	0
2024-09-09 08:17:47			0	37513	0	0	0	27641	26250	156699	27114	1074919	47045	110257	0	0	8105	565350	0	0
2024-09-09 08:18:47			0	37528	0	0	0	27636	26240	156571	26972	1074874	47067	110255	0	0	8106	564789	0	0
2024-09-09 08:19:47			0	37540	0	0	0	27636	26250	156747	27175	1074919	47057	110255	0	0	8107	564283	0	0
2024-09-09 08:20:47			0	37574	0	0	0	27633	26250	156627	27161	1074892	47045	110254	0	0	8109	562941	0	0
2024-09-09 08:21:47			0	37553	0	0	0	27636	26240	156515	27039	1074874	47034	110255	0	0	8108	563802	0	0
2024-09-09 08:22:47			0	37577	0	0	0	27651	26240	156479	26826	1074901	47056	110261	0	0	8109	562855	0	0
2024-09-09 08:23:47			0	37574	0	0	0	27651	26250	156483	26875	1074936	47068	110261	0	0	8109	562941	0	0
2024-09-09 08:24:47			0	37609	0	0	0	27644	26250	156371	27017	1074883	47057	110258	0	0	8111	561562	0	0
2024-09-09 08:25:47			0	37607	0	0	0	27623	26250	156403	26717	1074838	47057	110250	0	0	8111	561641	0	0
2024-09-09 08:26:47			0	37623	0	0	0	27620	26240	156275	27085	1074838	47055	110249	0	0	8112	561043	0	0
2024-09-09 08:27:47			0	37661	0	0	0	27618	26250	156239	26942	1074910	47045	110248	0	0	8114	559517	0	0
2024-09-09 08:28:47			0	37664	0	0	0	27610	26240	156223	27107	1074820	47067	110245	0	0	8115	559431	0	0
2024-09-09 08:29:47			0	37676	0	0	0	27618	26240	156059	26726	1074757	47055	110248	0	0	8115	558960	0	0
2024-09-09 08:30:47			0	37708	0	0	0	27618	26230	155971	27107	1074775	47043	110248	0	0	8117	557736	0	0
2024-09-09 08:31:47			0	37723	0	0	0	27623	26230	155935	27083	1074766	47043	110250	0	0	8118	557149	0	0
2024-09-09 08:32:47			0	37746	0	0	0	27641	26230	155887	27189	1074766	47055	110257	0	0	8119	556248	0	0
2024-09-09 08:33:47			0	37778	0	0	0	27641	26230	155735	27154	1074793	47066	110257	0	0	8121	554996	0	0
2024-09-09 08:34:47			0	37801	0	0	0	27631	26230	155703	27083	1074766	47055	110253	0	0	8122	554098	0	0
2024-09-09 08:35:47			0	37775	0	0	0	27649	26230	155791	26767	1074793	47077	110260	0	0	8120	555114	0	0
2024-09-09 08:36:47			0	37756	0	0	0	27654	26230	155819	27026	1074721	47055	110262	0	0	8119	555857	0	0
2024-09-09 08:37:47			0	37729	0	0	0	27618	26230	155919	27017	1074856	47077	110248	0	0	8118	556913	0	0
2024-09-09 08:38:47			0	37734	0	0	0	27625	26230	155983	27350	1074802	47066	110251	0	0	8118	556718	0	0
2024-09-09 08:39:47			0	37743	0	0	0	27633	26230	155843	27000	1074766	47055	110254	0	0	8119	556365	0	0
2024-09-09 08:40:47			0	37764	0	0	0	27610	26230	155691	27215	1074820	47055	110245	0	0	8120	555544	0	0
2024-09-09 08:41:47			0	37787	0	0	0	27610	26230	155807	27152	1074793	47043	110245	0	0	8122	554645	0	0
2024-09-09 08:42:47			0	37829	0	0	0	27610	26230	155535	27261	1074766	47043	110245	0	0	8124	553006	0	0
2024-09-09 08:43:47			0	37850	0	0	0	27607	26230	155475	27100	1074748	47055	110244	0	0	8125	552187	0	0
2024-09-09 08:44:47			0	37843	0	0	0	27607	26220	155407	27131	1074721	47041	110244	0	0	8125	552492	0	0
2024-09-09 08:45:47			0	37841	0	0	0	27602	26230	155479	27033	1074739	47055	110242	0	0	8125	552538	0	0
2024-09-09 08:46:47			0	37859	0	0	0	27605	26220	155547	27474	1074694	47031	110243	0	0	8126	551868	0	0
2024-09-09 08:47:47			0	37861	0	0	0	27599	26220	155363	27291	1074640	47053	110241	0	0	8126	551790	0	0
2024-09-09 08:48:47			0	37890	0	0	0	27607	26220	155319	27237	1074748	47053	110244	0	0	8128	550662	0	0
2024-09-09 08:49:47			0	37896	0	0	0	27610	26210	155323	27074	1074676	47041	110245	0	0	8128	550460	0	0
2024-09-09 08:50:47			0	37896	0	0	0	27618	26210	155231	27277	1074676	47053	110248	0	0	8128	550460	0	0
2024-09-09 08:51:47			0	37902	0	0	0	27623	26210	155311	27369	1074712	47041	110250	0	0	8128	550227	0	0
2024-09-09 08:52:47			0	37911	0	0	0	27615	26210	155335	27142	1074685	47064	110247	0	0	8129	549877	0	0
2024-09-09 08:53:47			0	37886	0	0	0	27607	26210	155247	27015	1074766	47041	110244	0	0	8127	550849	0	0
2024-09-09 08:54:47			0	37901	0	0	0	27605	26200	155335	27097	1074667	47063	110243	0	0	8128	550297	0	0
2024-09-09 08:55:47			0	37872	0	0	0	27605	26210	155367	27206	1074658	47075	110243	0	0	8127	551394	0	0
2024-09-09 08:56:47			0	37845	0	0	0	27599	26210	155415	26778	1074649	47041	110241	0	0	8125	552445	0	0
2024-09-09 08:57:47			0	37819	0	0	0	27589	26210	155547	27010	1074712	47053	110237	0	0	8124	553459	0	0
2024-09-09 08:58:47			0	37811	0	0	0	27594	26200	155691	26949	1074640	47052	110239	0	0	8123	553803	0	0
2024-09-09 08:59:47			0	37801	0	0	0	27607	26210	155583	27147	1074595	47041	110244	0	0	8122	554161	0	0
2024-09-09 09:00:47			0	37819	0	0	0	27597	26200	155715	26830	1074613	47052	110240	0	0	8124	553490	0	0
2024-09-09 09:01:47			0	37781	0	0	0	27594	26200	155763	27277	1074631	47051	110239	0	0	8121	554974	0	0
2024-09-09 09:02:47			0	37802	0	0	0	27610	26210	155871	27293	1074649	47053	110245	0	0	8122	554122	0	0
2024-09-09 09:03:47			0	37784	0	0	0	27602	26200	155739	26830	1074551	47051	110242	0	0	8121	554857	0	0
2024-09-09 09:04:47			0	37778	0	0	0	27607	26200	155867	26956	1074640	47063	110244	0	0	8121	555092	0	0
2024-09-09 09:05:47			0	37768	0	0	0	27605	26200	155987	26800	1074640	47052	110243	0	0	8120	555482	0	0
2024-09-09 09:06:47			0	37731	0	0	0	27599	26200	155943	26986	1074658	47051	110241	0	0	8118	556931	0	0
2024-09-09 09:07:47			0	37732	0	0	0	27615	26200	155899	26996	1074667	47052	110247	0	0	8118	556891	0	0
2024-09-09 09:08:47			0	37723	0	0	0	27599	26200	155999	26942	1074613	47052	110241	0	0	8118	557244	0	0
2024-09-09 09:09:47			0	37687	0	0	0	27612	26200	156083	27079	1074604	47051	110246	0	0	8116	558656	0	0
2024-09-09 09:10:47			0	37677	0	0	0	27625	26210	156215	27144	1074730	47053	110251	0	0	8115	559016	0	0
2024-09-09 09:11:47			0	37669	0	0	0	27615	26200	156131	27189	1074721	47063	110247	0	0	8115	559362	0	0
2024-09-09 09:12:47			0	37667	0	0	0	27618	26210	156259	27133	1074676	47053	110248	0	0	8114	559409	0	0
2024-09-09 09:13:47			0	37632	0	0	0	27605	26210	156303	27313	1074712	47053	110243	0	0	8113	560785	0	0
2024-09-09 09:14:47			0	37651	0	0	0	27602	26200	156375	27150	1074640	47052	110242	0	0	8114	560070	0	0
2024-09-09 09:15:47			0	37610	0	0	0	27592	26210	156427	27232	1074649	47064	110238	0	0	8112	561651	0	0
2024-09-09 09:16:47			0	37608	0	0	0	27586	26190	156475	27242	1074568	47051	110236	0	0	8111	561794	0	0
2024-09-09 09:17:47			0	37576	0	0	0	27612	26200	156579	27116	1074604	47051	110246	0	0	8109	563023	0	0
2024-09-09 09:18:47			0	37559	0	0	0	27605	26190	156691	26986	1074676	47040	110243	0	0	8108	563726	0	0
2024-09-09 09:19:47			0	37596	0	0	0	27602	26200	156651	27289	1074631	47040	110242	0	0	8111	562234	0	0
2024-09-09 09:20:47			0	37576	0	0	0	27602	26200	156635	26854	1074604	47051	110242	0	0	8109	563023	0	0
2024-09-09 09:21:47			0	37576	0	0	0	27602	26200	156563	27194	1074577	47073	110242	0	0	8109	563023	0	0
2024-09-09 09:22:47			0	37574	0	0	0	27599	26200	156663	26618	1074604	47051	110241	0	0	8109	563102	0	0
2024-09-09 09:23:47			0	37567	0	0	0	27584	26200	156607	27001	1074604	47051	110235	0	0	8109	563378	0	0
2024-09-09 09:24:47			0	37571	0	0	0	27589	26190	156663	27060	1074649	47029	110237	0	0	8109	563252	0	0
2024-09-09 09:25:47			0	37567	0	0	0	27589	26200	156635	27133	1074577	47051	110237	0	0	8109	563378	0	0
2024-09-09 09:26:47			0	37556	0	0	0	27589	26190	156719	27213	1074586	47051	110237	0	0	8108	563844	0	0
2024-09-09 09:27:47			0	37538	0	0	0	27579	26190	156747	27159	1074541	47040	110233	0	0	8108	564556	0	0
2024-09-09 09:28:47			0	37525	0	0	0	27579	26190	156899	27067	1074595	47051	110233	0	0	8107	565069	0	0
2024-09-09 09:29:47			0	37515	0	0	0	27571	26200	156903	27111	1074551	47051	110230	0	0	8106	565433	0	0
2024-09-09 09:30:47			0	37505	0	0	0	27579	26180	156895	27185	1074577	47050	110233	0	0	8106	565893	0	0
2024-09-09 09:31:47			0	37498	0	0	0	27558	26190	156919	27417	1074586	47051	110225	0	0	8106	566137	0	0
2024-09-09 09:32:47			0	37515	0	0	0	27568	26180	157019	27317	1074487	47038	110229	0	0	8106	565497	0	0
2024-09-09 09:33:47			0	37513	0	0	0	27579	26180	156999	27235	1074550	47039	110233	0	0	8106	565576	0	0
2024-09-09 09:34:47			0	37506	0	0	0	27514	26170	156843	27216	1074523	47037	110208	0	0	8107	565885	0	0
2024-09-09 09:35:47			0	37432	0	0	0	27459	26160	157167	27204	1074326	47037	110187	0	0	8103	568852	0	0
2024-09-09 09:36:47			0	37372	0	0	0	27446	26150	157411	27272	1074200	47012	110182	0	0	8100	571270	0	0
2024-09-09 09:37:47			0	37342	0	0	0	27467	26130	157611	27376	1074155	47000	110190	0	0	8098	572531	0	0
2024-09-09 09:38:47			0	37339	0	0	0	27438	26130	157611	27241	1074128	47010	110179	0	0	8098	572651	0	0
2024-09-09 09:39:47			0	37302	0	0	0	27459	26120	157870	27239	1074083	47009	110187	0	0	8095	574161	0	0
2024-09-09 09:40:47			0	37303	0	0	0	27454	26120	157938	27232	1074056	47032	110185	0	0	8096	574121	0	0
2024-09-09 09:41:47			0	37260	0	0	0	27457	26100	158062	26805	1073975	47030	110186	0	0	8093	575906	0	0
2024-09-09 09:42:47			0	37260	0	0	0	27446	26100	157990	27281	1074047	47030	110182	0	0	8093	575906	0	0
2024-09-09 09:43:47			0	37270	0	0	0	27431	26090	158094	27234	1073957	47029	110176	0	0	8094	575539	0	0
2024-09-09 09:44:47			0	37250	0	0	0	27446	26090	158078	27059	1073975	47028	110182	0	0	8092	576340	0	0
2024-09-09 09:45:47			0	37254	0	0	0	27449	26080	158058	27317	1073966	47028	110183	0	0	8093	576212	0	0
2024-09-09 09:46:47			0	37237	0	0	0	27446	26080	158066	27081	1073912	47017	110182	0	0	8092	576893	0	0
2024-09-09 09:47:47			0	37255	0	0	0	27459	26070	158114	26975	1073885	47026	110187	0	0	8092	576205	0	0
2024-09-09 09:48:47			0	37264	0	0	0	27433	26070	158106	26939	1073975	47038	110177	0	0	8093	575845	0	0
2024-09-09 09:49:47			0	37257	0	0	0	27410	26070	158162	27085	1073832	47026	110168	0	0	8093	576125	0	0
2024-09-09 09:50:47			0	37270	0	0	0	27438	26060	158142	26887	1073796	47037	110179	0	0	8094	575637	0	0
2024-09-09 09:51:47			0	37271	0	0	0	27436	26050	158082	27270	1073840	47037	110178	0	0	8094	575630	0	0
2024-09-09 09:52:47			0	37269	0	0	0	27433	26030	158042	27241	1073831	47034	110177	0	0	8093	575776	0	0
2024-09-09 09:53:47			0	37266	0	0	0	27402	26050	158006	27005	1073885	47036	110165	0	0	8094	575830	0	0
2024-09-09 09:54:47			0	37275	0	0	0	27438	26040	158078	27319	1073795	47035	110179	0	0	8094	575503	0	0
2024-09-09 09:55:47			0	37283	0	0	0	27425	26040	157974	26981	1073840	47034	110174	0	0	8094	575183	0	0
2024-09-09 09:56:47			0	37298	0	0	0	27418	26040	157890	27355	1073813	47045	110171	0	0	8095	574583	0	0
2024-09-09 09:57:47			0	37297	0	0	0	27446	26040	157930	27267	1073840	47034	110182	0	0	8095	574623	0	0
2024-09-09 09:58:47			0	37310	0	0	0	27462	26030	157918	27012	1073822	47034	110188	0	0	8095	574136	0	0
2024-09-09 09:59:47			0	37306	0	0	0	27451	26040	157894	27248	1073813	47045	110184	0	0	8095	574263	0	0
2024-09-09 10:00:47			0	37328	0	0	0	27449	26040	157775	27031	1073813	47045	110183	0	0	8097	573384	0	0
2024-09-09 10:01:47			0	37334	0	0	0	27436	26040	157735	27306	1073813	47045	110178	0	0	8097	573144	0	0
2024-09-09 10:02:47			0	37363	0	0	0	27449	26030	157763	27310	1073750	47045	110183	0	0	8099	572020	0	0
2024-09-09 10:03:47			0	37369	0	0	0	27433	26030	157531	26847	1073884	47034	110177	0	0	8099	571781	0	0
2024-09-09 10:04:47			0	37407	0	0	0	27438	26040	157539	27050	1073759	47034	110179	0	0	8102	570235	0	0
2024-09-09 10:05:47			0	37424	0	0	0	27446	26040	157427	27242	1073759	47034	110182	0	0	8102	569559	0	0
2024-09-09 10:06:47			0	37439	0	0	0	27459	26040	157323	27168	1073867	47023	110187	0	0	8103	568963	0	0
2024-09-09 10:07:47			0	37476	0	0	0	27451	26050	157227	26989	1073912	47036	110184	0	0	8105	567462	0	0
2024-09-09 10:08:47			0	37488	0	0	0	27459	26040	157215	27246	1073876	47046	110187	0	0	8106	567019	0	0
2024-09-09 10:09:47			0	37516	0	0	0	27462	26040	157051	27229	1073867	47034	110188	0	0	8107	565909	0	0
2024-09-09 10:10:47			0	37553	0	0	0	27459	26040	156943	27260	1073956	47024	110187	0	0	8110	564446	0	0
2024-09-09 10:11:47			0	37583	0	0	0	27454	26030	156855	27303	1073831	47045	110185	0	0	8111	563293	0	0
2024-09-09 10:12:47			0	37567	0	0	0	27464	26040	156807	27118	1073840	47023	110189	0	0	8110	563893	0	0
2024-09-09 10:13:47			0	37605	0	0	0	27454	26040	156767	27199	1073786	47045	110185	0	0	8113	562393	0	0
2024-09-09 10:14:47			0	37622	0	0	0	27446	26040	156655	27267	1073876	47035	110182	0	0	8114	561723	0	0
2024-09-09 10:15:47			0	37631	0	0	0	27451	26050	156555	27345	1073858	47047	110184	0	0	8114	561337	0	0
2024-09-09 10:16:47			0	37674	0	0	0	27451	26030	156367	27208	1073857	47034	110184	0	0	8117	559709	0	0
2024-09-09 10:17:47			0	37689	0	0	0	27444	26040	156351	26948	1073795	47024	110181	0	0	8118	559087	0	0
2024-09-09 10:18:47			0	37692	0	0	0	27446	26050	156339	27248	1073831	47036	110182	0	0	8118	558938	0	0
2024-09-09 10:19:47			0	37698	0	0	0	27459	26040	156263	27308	1073867	47045	110187	0	0	8118	558734	0	0
2024-09-09 10:20:47			0	37698	0	0	0	27462	26040	156247	27416	1073849	47046	110188	0	0	8118	558734	0	0
2024-09-09 10:21:47			0	37713	0	0	0	27449	26030	156259	27301	1073884	47045	110183	0	0	8119	558177	0	0
2024-09-09 10:22:47			0	37731	0	0	0	27444	26040	156103	27353	1073867	47023	110181	0	0	8120	557439	0	0
2024-09-09 10:23:47			0	37741	0	0	0	27449	26040	156099	27083	1073795	47046	110183	0	0	8121	557047	0	0
2024-09-09 10:24:47			0	37751	0	0	0	27449	26040	156047	27140	1073876	47046	110183	0	0	8121	556656	0	0
2024-09-09 10:25:47			0	37761	0	0	0	27449	26040	156047	27241	1073795	47035	110183	0	0	8122	556264	0	0
2024-09-09 10:26:47			0	37754	0	0	0	27446	26030	156083	27213	1073884	47045	110182	0	0	8122	556570	0	0
2024-09-09 10:27:47			0	37760	0	0	0	27449	26040	156067	27251	1073840	47034	110183	0	0	8122	556303	0	0
2024-09-09 10:28:47			0	37753	0	0	0	27451	26040	156199	27114	1073876	47046	110184	0	0	8121	556577	0	0
2024-09-09 10:29:47			0	37794	0	0	0	27438	26040	156035	27071	1073786	47045	110179	0	0	8124	554973	0	0
2024-09-09 10:30:47			0	37788	0	0	0	27446	26040	155959	27377	1073849	47035	110182	0	0	8124	555207	0	0
2024-09-09 10:31:47			0	37790	0	0	0	27451	26050	155931	27320	1073858	47047	110184	0	0	8124	555097	0	0
2024-09-09 10:32:47			0	37792	0	0	0	27446	26040	155863	27322	1073822	47035	110182	0	0	8124	555051	0	0
2024-09-09 10:33:47			0	37817	0	0	0	27441	26040	155871	27505	1073849	47024	110180	0	0	8125	554074	0	0
2024-09-09 10:34:47			0	37807	0	0	0	27449	26040	155871	27152	1073813	47045	110183	0	0	8125	554465	0	0
2024-09-09 10:35:47			0	37817	0	0	0	27451	26040	155839	27008	1073786	47012	110184	0	0	8125	554074	0	0
2024-09-09 10:36:47			0	37839	0	0	0	27446	26040	155819	27327	1073840	47045	110182	0	0	8127	553215	0	0
2024-09-09 10:37:47			0	37840	0	0	0	27441	26040	155775	27310	1073876	47024	110180	0	0	8127	553176	0	0
2024-09-09 10:38:47			0	37848	0	0	0	27451	26040	155775	27343	1073903	47035	110184	0	0	8127	552864	0	0
2024-09-09 10:39:47			0	37862	0	0	0	27446	26040	155731	27469	1073822	47035	110182	0	0	8128	552319	0	0
2024-09-09 10:40:47			0	37858	0	0	0	27446	26040	155747	27381	1073876	47046	110182	0	0	8128	552474	0	0
2024-09-09 10:41:47			0	37875	0	0	0	27446	26030	155695	27298	1073831	47034	110182	0	0	8129	551844	0	0
2024-09-09 10:42:47			0	37885	0	0	0	27457	26040	155659	27199	1073867	47034	110186	0	0	8129	551423	0	0
2024-09-09 10:43:47			0	37899	0	0	0	27459	26040	155579	27362	1073822	47024	110187	0	0	8130	550878	0	0
2024-09-09 10:44:47			0	37907	0	0	0	27457	26050	155587	27472	1073885	47047	110186	0	0	8130	550535	0	0
2024-09-09 10:45:47			0	37919	0	0	0	27454	26040	155587	27322	1073849	47024	110185	0	0	8131	550100	0	0
2024-09-09 10:46:47			0	37955	0	0	0	27457	26040	155327	27424	1073822	47035	110186	0	0	8133	548701	0	0
2024-09-09 10:47:47			0	37970	0	0	0	27459	26040	155255	27364	1073867	47045	110187	0	0	8134	548119	0	0
2024-09-09 10:48:47			0	37994	0	0	0	27464	26050	155171	27279	1073975	47048	110189	0	0	8135	547158	0	0
2024-09-09 10:49:47			0	38016	0	0	0	27472	26050	155055	27109	1073831	47047	110192	0	0	8136	546306	0	0
2024-09-09 10:50:47			0	38015	0	0	0	27472	26050	155063	27395	1073992	47047	110192	0	0	8136	546345	0	0
2024-09-09 10:51:47			0	38026	0	0	0	27470	26050	155007	27357	1073966	47047	110191	0	0	8137	545919	0	0
2024-09-09 10:52:47			0	38028	0	0	0	27470	26050	155011	27438	1073921	47026	110191	0	0	8137	545842	0	0
2024-09-09 10:53:47			0	38038	0	0	0	27472	26050	155004	27339	1073975	47048	110192	0	0	8138	545455	0	0
2024-09-09 10:54:47			0	38053	0	0	0	27477	26040	154936	27478	1073983	47046	110194	0	0	8138	544906	0	0
2024-09-09 10:55:47			0	38084	0	0	0	27480	26060	154812	27294	1073957	47048	110195	0	0	8140	543647	0	0
2024-09-09 10:56:47			0	38098	0	0	0	27480	26070	154772	27050	1073993	47059	110195	0	0	8141	543076	0	0
2024-09-09 10:57:47			0	38096	0	0	0	27477	26070	154732	27220	1074020	47059	110194	0	0	8141	543153	0	0
2024-09-09 10:58:47			0	38095	0	0	0	27493	26070	154692	27208	1073939	47037	110200	0	0	8141	543192	0	0
2024-09-09 10:59:47			0	38115	0	0	0	27480	26070	154684	27305	1074046	47037	110195	0	0	8142	542421	0	0
2024-09-09 11:00:47			0	38122	0	0	0	27490	26070	154648	27215	1074055	47049	110199	0	0	8142	542151	0	0
2024-09-09 11:01:47			0	38130	0	0	0	27490	26080	154768	27608	1074118	47050	110199	0	0	8143	541812	0	0
2024-09-09 11:02:47			0	38141	0	0	0	27485	26070	154556	27580	1074055	47049	110197	0	0	8144	541420	0	0
2024-09-09 11:03:47			0	38157	0	0	0	27485	26080	154544	27381	1074038	47039	110197	0	0	8144	540773	0	0
2024-09-09 11:04:47			0	38162	0	0	0	27485	26080	154468	27403	1074011	47050	110197	0	0	8145	540581	0	0
2024-09-09 11:05:47			0	38152	0	0	0	27490	26100	154452	27270	1074074	47030	110199	0	0	8144	540904	0	0
2024-09-09 11:06:47			0	38193	0	0	0	27485	26080	154440	27431	1074064	47039	110197	0	0	8147	539390	0	0
2024-09-09 11:07:47			0	38184	0	0	0	27490	26090	154456	27277	1074083	47028	110199	0	0	8146	539705	0	0
2024-09-09 11:08:47			0	38190	0	0	0	27480	26080	154332	27145	1074074	47050	110195	0	0	8146	539505	0	0
2024-09-09 11:09:47			0	38204	0	0	0	27488	26090	154536	27371	1074136	47039	110198	0	0	8147	538937	0	0
2024-09-09 11:10:47			0	38215	0	0	0	27485	26080	154392	27516	1074038	47017	110197	0	0	8148	538546	0	0
2024-09-09 11:11:47			0	38205	0	0	0	27475	26090	154172	27469	1074083	47050	110193	0	0	8147	538899	0	0
2024-09-09 11:12:47			0	38242	0	0	0	27477	26090	154156	27531	1074083	47050	110194	0	0	8150	537480	0	0
2024-09-09 11:13:47			0	38244	0	0	0	27480	26080	154164	27067	1074100	47039	110195	0	0	8150	537434	0	0
2024-09-09 11:14:47			0	38256	0	0	0	27480	26080	154144	27367	1074011	47050	110195	0	0	8150	536974	0	0
2024-09-09 11:15:47			0	38254	0	0	0	27483	26080	154100	27079	1074064	47017	110196	0	0	8150	537051	0	0
2024-09-09 11:16:47			0	38255	0	0	0	27475	26080	154084	27326	1074064	47028	110193	0	0	8150	537013	0	0
2024-09-09 11:17:47			0	38255	0	0	0	27475	26080	154024	27417	1074038	47050	110193	0	0	8150	537013	0	0
2024-09-09 11:18:47			0	38254	0	0	0	27483	26080	154120	27154	1074074	47028	110196	0	0	8150	537051	0	0
2024-09-09 11:19:47			0	38294	0	0	0	27483	26080	154028	27561	1074038	47039	110196	0	0	8152	535521	0	0
2024-09-09 11:20:47			0	38282	0	0	0	27480	26080	154000	27403	1074020	47039	110195	0	0	8152	535980	0	0
2024-09-09 11:21:47			0	38287	0	0	0	27496	26070	154012	27393	1074073	47037	110201	0	0	8152	535819	0	0
2024-09-09 11:22:47			0	38304	0	0	0	27485	26090	153940	27358	1074109	47039	110197	0	0	8153	535108	0	0
2024-09-09 11:23:47			0	38311	0	0	0	27493	26090	153864	26998	1074083	47039	110200	0	0	8153	534841	0	0
2024-09-09 11:24:47			0	38299	0	0	0	27485	26090	153888	27154	1074109	47039	110197	0	0	8153	535299	0	0
2024-09-09 11:25:47			0	38303	0	0	0	27477	26080	153904	27241	1074038	47050	110194	0	0	8153	535177	0	0
2024-09-09 11:26:47			0	38301	0	0	0	27475	26090	153836	27265	1074029	47050	110193	0	0	8153	535223	0	0
2024-09-09 11:27:47			0	38313	0	0	0	27470	26080	153884	27074	1073984	47039	110191	0	0	8154	534795	0	0
2024-09-09 11:28:47			0	38332	0	0	0	27493	26080	153752	27154	1074074	47028	110200	0	0	8154	534070	0	0
2024-09-09 11:29:47			0	38340	0	0	0	27480	26080	153808	26994	1074038	47039	110195	0	0	8155	533764	0	0
2024-09-09 11:30:47			0	38349	0	0	0	27475	26080	153668	27223	1074047	47028	110193	0	0	8156	533421	0	0
2024-09-09 11:31:47			0	38335	0	0	0	27475	26070	153764	27216	1074002	47038	110193	0	0	8155	533986	0	0
2024-09-09 11:32:47			0	38345	0	0	0	27475	26070	153772	27651	1074002	47038	110193	0	0	8155	533604	0	0
2024-09-09 11:33:47			0	38338	0	0	0	27483	26060	153824	27332	1074037	47037	110196	0	0	8155	533902	0	0
2024-09-09 11:34:47			0	38322	0	0	0	27472	26070	153808	27357	1074136	47038	110192	0	0	8154	534482	0	0
2024-09-09 11:35:47			0	38335	0	0	0	27477	26080	153952	26920	1074091	47039	110194	0	0	8155	533955	0	0
2024-09-09 11:36:47			0	38336	0	0	0	27470	26070	153856	27114	1074020	47037	110191	0	0	8155	533947	0	0
2024-09-09 11:37:47			0	38299	0	0	0	27470	26070	153848	27310	1074002	47038	110191	0	0	8153	535360	0	0
2024-09-09 11:38:47			0	38300	0	0	0	27467	26080	153856	27274	1074011	47028	110190	0	0	8153	535292	0	0
2024-09-09 11:39:47			0	38315	0	0	0	27472	26070	153860	27409	1074002	47038	110192	0	0	8154	534749	0	0
2024-09-09 11:40:47			0	38323	0	0	0	27467	26070	153924	27362	1074020	47037	110190	0	0	8154	534443	0	0
2024-09-09 11:41:47			0	38323	0	0	0	27470	26070	153804	27282	1074029	47049	110191	0	0	8154	534443	0	0
2024-09-09 11:42:47			0	38320	0	0	0	27472	26060	153828	27393	1073957	47037	110192	0	0	8154	534589	0	0
2024-09-09 11:43:47			0	38333	0	0	0	27472	26070	153848	27258	1074002	47038	110192	0	0	8155	534062	0	0
2024-09-09 11:44:47			0	38322	0	0	0	27485	26080	153824	27298	1073984	47039	110197	0	0	8154	534451	0	0
2024-09-09 11:45:47			0	38320	0	0	0	27483	26070	153844	27144	1073975	47038	110196	0	0	8154	534558	0	0
2024-09-09 11:46:47			0	38332	0	0	0	27483	26070	153772	27284	1074029	47038	110196	0	0	8155	534100	0	0
2024-09-09 11:47:47			0	38339	0	0	0	27490	26080	153780	27199	1074074	47039	110199	0	0	8155	533802	0	0
2024-09-09 11:48:47			0	38350	0	0	0	27493	26080	153904	27516	1074118	47039	110200	0	0	8155	533383	0	0
2024-09-09 11:49:47			0	38329	0	0	0	27483	26080	153736	27119	1074038	47050	110196	0	0	8154	534184	0	0
2024-09-09 11:50:47			0	38336	0	0	0	27475	26090	153904	26979	1074109	47028	110193	0	0	8155	533887	0	0
2024-09-09 11:51:47			0	38327	0	0	0	27485	26070	153992	27116	1074082	47038	110197	0	0	8154	534291	0	0
2024-09-09 11:52:47			0	38335	0	0	0	27488	26070	153892	27164	1074055	47038	110198	0	0	8155	533986	0	0
2024-09-09 11:53:47			0	38362	0	0	0	27503	26070	153688	27338	1074082	47038	110204	0	0	8156	532956	0	0
2024-09-09 11:54:47			0	38361	0	0	0	27488	26080	153636	27206	1074127	47050	110198	0	0	8156	532964	0	0
2024-09-09 11:55:47			0	38364	0	0	0	27496	26080	153660	27429	1074091	47039	110201	0	0	8156	532849	0	0
2024-09-09 11:56:47			0	38361	0	0	0	27490	26080	153756	27176	1074100	47039	110199	0	0	8156	532964	0	0
2024-09-09 11:57:47			0	38352	0	0	0	27498	26090	153788	27358	1074109	47050	110202	0	0	8156	533276	0	0
2024-09-09 11:58:47			0	38351	0	0	0	27511	26080	153704	27460	1074118	47039	110207	0	0	8155	533345	0	0
2024-09-09 11:59:47			0	38376	0	0	0	27511	26090	153672	27246	1074172	47051	110207	0	0	8157	532362	0	0
2024-09-09 12:00:47			0	38360	0	0	0	27519	26090	153728	27350	1074172	47040	110210	0	0	8156	532971	0	0
2024-09-09 12:01:47			0	38360	0	0	0	27524	26090	153764	27485	1074145	47062	110212	0	0	8156	532971	0	0
2024-09-09 12:02:47			0	38373	0	0	0	27535	26100	153560	27097	1074271	47041	110216	0	0	8156	532446	0	0
2024-09-09 12:03:47			0	38385	0	0	0	27529	26110	153600	27341	1074253	47052	110214	0	0	8157	531958	0	0
2024-09-09 12:04:47			0	38376	0	0	0	27527	26100	153628	27518	1074217	47041	110213	0	0	8156	532332	0	0
2024-09-09 12:05:47			0	38399	0	0	0	27548	26110	153624	26838	1074253	47063	110221	0	0	8158	531426	0	0
2024-09-09 12:06:47			0	38388	0	0	0	27545	26120	153580	27338	1074352	47054	110220	0	0	8157	531814	0	0
2024-09-09 12:07:47			0	38381	0	0	0	27540	26110	153544	27338	1074280	47041	110218	0	0	8157	532111	0	0
2024-09-09 12:08:47			0	38354	0	0	0	27553	26120	153736	27194	1074307	47043	110223	0	0	8155	533109	0	0
2024-09-09 12:09:47			0	38370	0	0	0	27561	26120	153656	27220	1074352	47042	110226	0	0	8156	532499	0	0
2024-09-09 12:10:47			0	38396	0	0	0	27561	26130	153536	27351	1074397	47055	110226	0	0	8157	531479	0	0
2024-09-09 12:11:47			0	38426	0	0	0	27566	26130	153464	27317	1074370	47043	110228	0	0	8159	530339	0	0
2024-09-09 12:12:47			0	38391	0	0	0	27571	26130	153652	27310	1074459	47043	110230	0	0	8157	531669	0	0
2024-09-09 12:13:47			0	38383	0	0	0	27571	26130	153528	27256	1074433	47055	110230	0	0	8156	531974	0	0
2024-09-09 12:14:47			0	38368	0	0	0	27563	26130	153636	27365	1074423	47055	110227	0	0	8156	532545	0	0
2024-09-09 12:15:47			0	38347	0	0	0	27574	26130	153664	27367	1074433	47055	110231	0	0	8154	533345	0	0
2024-09-09 12:16:47			0	38392	0	0	0	27586	26140	153736	27192	1074451	47057	110236	0	0	8157	531601	0	0
2024-09-09 12:17:47			0	38383	0	0	0	27589	26150	153740	27232	1074469	47057	110237	0	0	8156	531913	0	0
2024-09-09 12:18:47			0	38364	0	0	0	27592	26160	153700	27531	1074594	47070	110238	0	0	8155	532606	0	0
2024-09-09 12:19:47			0	38337	0	0	0	27599	26160	153720	27170	1074541	47070	110241	0	0	8153	533635	0	0
2024-09-09 12:20:47			0	38392	0	0	0	27605	26170	153748	27182	1074603	47059	110243	0	0	8156	531510	0	0
2024-09-09 12:21:47			0	38364	0	0	0	27602	26160	153580	27478	1074594	47059	110242	0	0	8155	532606	0	0
2024-09-09 12:22:47			0	38358	0	0	0	27597	26170	153616	27144	1074576	47059	110240	0	0	8155	532804	0	0
2024-09-09 12:23:47			0	38386	0	0	0	27620	26180	153616	27341	1074604	47061	110249	0	0	8156	531708	0	0
2024-09-09 12:24:47			0	38393	0	0	0	27620	26170	153520	27502	1074693	47047	110249	0	0	8156	531472	0	0
2024-09-09 12:25:47			0	38387	0	0	0	27615	26180	153540	27256	1074685	47050	110247	0	0	8156	531670	0	0
2024-09-09 12:26:47			0	38352	0	0	0	27612	26180	153744	27336	1074658	47061	110246	0	0	8154	533002	0	0
2024-09-09 12:27:47			0	38334	0	0	0	27620	26190	153600	27067	1074774	47073	110249	0	0	8153	533658	0	0
2024-09-09 12:28:47			0	38342	0	0	0	27633	26190	153808	27471	1074729	47062	110254	0	0	8153	533353	0	0
2024-09-09 12:29:47			0	38293	0	0	0	27625	26190	153812	27390	1074729	47062	110251	0	0	8150	535223	0	0
2024-09-09 12:30:47			0	38320	0	0	0	27631	26200	153812	27305	1074792	47051	110253	0	0	8152	534162	0	0
2024-09-09 12:31:47			0	38328	0	0	0	27636	26200	153796	27298	1074774	47052	110255	0	0	8152	533856	0	0
2024-09-09 12:32:47			0	38299	0	0	0	27646	26210	153892	27502	1074793	47075	110259	0	0	8151	534933	0	0
2024-09-09 12:33:47			0	38306	0	0	0	27646	26200	153852	27554	1074801	47052	110259	0	0	8151	534696	0	0
2024-09-09 12:34:47			0	38297	0	0	0	27651	26220	153816	27407	1074855	47064	110261	0	0	8150	534978	0	0
2024-09-09 12:35:47			0	38263	0	0	0	27651	26210	154060	27339	1074864	47053	110261	0	0	8148	536308	0	0
2024-09-09 12:36:47			0	38267	0	0	0	27649	26220	153972	27543	1074802	47064	110260	0	0	8149	536125	0	0
2024-09-09 12:37:47			0	38292	0	0	0	27646	26230	153900	27390	1074847	47066	110259	0	0	8150	535139	0	0
2024-09-09 12:38:47			0	38272	0	0	0	27651	26220	153932	27320	1074864	47065	110261	0	0	8149	535934	0	0
2024-09-09 12:39:47			0	38294	0	0	0	27644	26220	154012	27469	1074891	47054	110258	0	0	8150	535093	0	0
2024-09-09 12:40:47			0	38314	0	0	0	27649	26220	153888	27189	1074891	47054	110260	0	0	8151	534330	0	0
2024-09-09 12:41:47			0	38313	0	0	0	27664	26230	153832	27436	1074909	47066	110266	0	0	8151	534337	0	0
2024-09-09 12:42:47			0	38290	0	0	0	27654	26230	153808	26975	1074927	47066	110262	0	0	8150	535215	0	0
2024-09-09 12:43:47			0	38289	0	0	0	27667	26230	153888	27495	1074900	47066	110267	0	0	8150	535253	0	0
2024-09-09 12:44:47			0	38270	0	0	0	27667	26230	153896	27190	1074909	47055	110267	0	0	8149	535980	0	0
2024-09-09 12:45:47			0	38300	0	0	0	27667	26240	153908	27377	1074954	47067	110267	0	0	8150	534803	0	0
2024-09-09 12:46:47			0	38314	0	0	0	27659	26230	153792	27364	1074936	47055	110264	0	0	8151	534299	0	0
2024-09-09 12:47:47			0	38293	0	0	0	27662	26240	153932	27552	1074918	47043	110265	0	0	8150	535070	0	0
2024-09-09 12:48:47			0	38274	0	0	0	27670	26240	153944	27391	1074945	47055	110268	0	0	8149	535796	0	0
2024-09-09 12:49:47			0	38286	0	0	0	27670	26230	153844	27216	1074936	47066	110268	0	0	8149	535368	0	0
2024-09-09 12:50:47			0	38255	0	0	0	27680	26240	153904	27371	1075026	47055	110272	0	0	8148	536523	0	0
2024-09-09 12:51:47			0	38247	0	0	0	27685	26240	153932	27208	1075035	47067	110274	0	0	8147	536829	0	0
2024-09-09 12:52:47			0	38243	0	0	0	27677	26260	154000	27327	1075062	47069	110271	0	0	8147	536920	0	0
2024-09-09 12:53:47			0	38275	0	0	0	27680	26240	154152	27234	1075115	47056	110272	0	0	8149	535758	0	0
2024-09-09 12:54:47			0	38279	0	0	0	27680	26250	153848	27464	1075026	47068	110272	0	0	8149	535574	0	0
2024-09-09 12:55:47			0	38298	0	0	0	27688	26250	153788	27364	1075098	47068	110275	0	0	8150	534849	0	0
2024-09-09 12:56:47			0	38296	0	0	0	27701	26240	153820	27568	1075062	47056	110280	0	0	8150	534956	0	0
2024-09-09 12:57:47			0	38237	0	0	0	27706	26260	154032	27386	1075152	47069	110282	0	0	8146	537150	0	0
2024-09-09 12:58:47			0	38212	0	0	0	27703	26260	154100	27272	1075152	47058	110281	0	0	8145	538108	0	0
2024-09-09 12:59:47			0	38228	0	0	0	27706	26260	154088	27632	1075179	47069	110282	0	0	8146	537495	0	0
2024-09-09 13:00:47			0	38267	0	0	0	27709	26270	153948	27538	1075197	47082	110283	0	0	8148	535972	0	0
2024-09-09 13:01:47			0	38285	0	0	0	27716	26270	153940	27294	1075170	47071	110286	0	0	8149	535284	0	0
2024-09-09 13:02:47			0	38282	0	0	0	27727	26280	153916	27326	1075188	47071	110290	0	0	8149	535368	0	0
2024-09-09 13:03:47			0	38269	0	0	0	27727	26280	153968	27422	1075179	47082	110290	0	0	8148	535865	0	0
2024-09-09 13:04:47			0	38289	0	0	0	27714	26280	153720	27588	1075268	47071	110285	0	0	8149	535101	0	0
2024-09-09 13:05:47			0	38289	0	0	0	27724	26280	153800	27294	1075215	47048	110289	0	0	8149	535101	0	0
2024-09-09 13:06:47			0	38261	0	0	0	27719	26290	153940	27284	1075278	47061	110287	0	0	8147	536140	0	0
2024-09-09 13:07:47			0	38292	0	0	0	27729	26290	153712	27633	1075278	47072	110291	0	0	8149	534956	0	0
2024-09-09 13:08:47			0	38299	0	0	0	27732	26300	153788	27386	1075377	47073	110292	0	0	8150	534658	0	0
2024-09-09 13:09:47			0	38300	0	0	0	27732	26290	153728	27355	1075260	47073	110292	0	0	8150	534650	0	0
2024-09-09 13:10:47			0	38307	0	0	0	27732	26310	153772	27119	1075314	47074	110292	0	0	8150	534322	0	0
2024-09-09 13:11:47			0	38338	0	0	0	27737	26300	153708	27279	1075386	47050	110294	0	0	8152	533171	0	0
2024-09-09 13:12:47			0	38372	0	0	0	27735	26290	153604	27196	1075287	47062	110293	0	0	8154	531907	0	0
2024-09-09 13:13:47			0	38370	0	0	0	27737	26310	153552	27083	1075368	47051	110294	0	0	8154	531922	0	0
2024-09-09 13:14:47			0	38369	0	0	0	27740	26310	153500	26968	1075395	47051	110295	0	0	8153	531960	0	0
2024-09-09 13:15:47			0	38348	0	0	0	27742	26300	153632	27183	1075269	47062	110296	0	0	8152	532790	0	0
2024-09-09 13:16:47			0	38380	0	0	0	27732	26310	153448	27053	1075350	47085	110292	0	0	8154	531542	0	0
2024-09-09 13:17:47			0	38378	0	0	0	27719	26300	153436	27301	1075278	47073	110287	0	0	8154	531648	0	0
2024-09-09 13:18:47			0	38384	0	0	0	27727	26300	153492	27199	1075305	47062	110290	0	0	8154	531420	0	0
2024-09-09 13:19:47			0	38404	0	0	0	27724	26310	153376	27124	1075287	47051	110289	0	0	8156	530629	0	0
2024-09-09 13:20:47			0	38410	0	0	0	27719	26300	153388	27230	1075332	47062	110287	0	0	8156	530432	0	0
2024-09-09 13:21:47			0	38388	0	0	0	27709	26310	153472	26994	1075314	47051	110283	0	0	8155	531237	0	0
2024-09-09 13:22:47			0	38410	0	0	0	27719	26310	153452	27312	1075323	47075	110287	0	0	8156	530401	0	0
2024-09-09 13:23:47			0	38384	0	0	0	27719	26300	153484	27048	1075278	47073	110287	0	0	8155	531420	0	0
2024-09-09 13:24:47			0	38404	0	0	0	27716	26300	153372	27279	1075305	47062	110286	0	0	8156	530660	0	0
2024-09-09 13:25:47			0	38385	0	0	0	27729	26310	153432	27317	1075260	47051	110291	0	0	8155	531351	0	0
2024-09-09 13:26:47			0	38389	0	0	0	27727	26310	153528	27319	1075287	47051	110290	0	0	8155	531199	0	0
2024-09-09 13:27:47			0	38397	0	0	0	27724	26310	153424	27265	1075296	47064	110289	0	0	8155	530895	0	0
2024-09-09 13:28:47			0	38370	0	0	0	27732	26310	153616	27057	1075323	47064	110292	0	0	8154	531922	0	0
2024-09-09 13:29:47			0	38390	0	0	0	27719	26300	153460	27107	1075359	47073	110287	0	0	8155	531192	0	0
2024-09-09 13:30:47			0	38417	0	0	0	27732	26310	153288	27365	1075350	47052	110292	0	0	8156	530136	0	0
2024-09-09 13:31:47			0	38419	0	0	0	27722	26310	153348	27085	1075341	47063	110288	0	0	8157	530060	0	0
2024-09-09 13:32:47			0	38407	0	0	0	27724	26300	153380	27100	1075305	47073	110289	0	0	8156	530546	0	0
2024-09-09 13:33:47			0	38362	0	0	0	27737	26310	153440	27161	1075422	47051	110294	0	0	8153	532226	0	0
2024-09-09 13:34:47			0	38365	0	0	0	27735	26310	153440	27105	1075341	47074	110293	0	0	8153	532112	0	0
2024-09-09 13:35:47			0	38373	0	0	0	27719	26310	153472	27072	1075350	47075	110287	0	0	8154	531808	0	0
2024-09-09 13:36:47			0	38377	0	0	0	27719	26310	153408	26920	1075341	47074	110287	0	0	8154	531656	0	0
2024-09-09 13:37:47			0	38363	0	0	0	27732	26310	153420	27102	1075296	47064	110292	0	0	8153	532188	0	0
2024-09-09 13:38:47			0	38385	0	0	0	27727	26310	153604	27256	1075323	47052	110290	0	0	8155	531351	0	0
2024-09-09 13:39:47			0	38353	0	0	0	27724	26310	153532	27279	1075323	47064	110289	0	0	8153	532569	0	0
2024-09-09 13:40:47			0	38326	0	0	0	27740	26310	153744	27123	1075323	47064	110295	0	0	8151	533597	0	0
2024-09-09 13:41:47			0	38304	0	0	0	27719	26320	153736	27455	1075386	47064	110287	0	0	8150	534406	0	0
2024-09-09 13:42:47			0	38339	0	0	0	27727	26310	153664	27227	1075377	47064	110290	0	0	8152	533102	0	0
2024-09-09 13:43:47			0	38344	0	0	0	27732	26310	153592	27085	1075350	47052	110292	0	0	8152	532912	0	0
2024-09-09 13:44:47			0	38368	0	0	0	27727	26310	153528	27223	1075377	47075	110290	0	0	8154	531998	0	0
2024-09-09 13:45:47			0	38381	0	0	0	27732	26310	153524	27201	1075350	47064	110292	0	0	8154	531504	0	0
2024-09-09 13:46:47			0	38379	0	0	0	27732	26310	153392	27466	1075377	47075	110292	0	0	8154	531580	0	0
2024-09-09 13:47:47			0	38370	0	0	0	27729	26310	153480	27509	1075377	47075	110291	0	0	8154	531922	0	0
2024-09-09 13:48:47			0	38344	0	0	0	27727	26310	153644	27227	1075350	47075	110290	0	0	8152	532912	0	0
2024-09-09 13:49:47			0	38350	0	0	0	27727	26310	153564	27104	1075377	47064	110290	0	0	8153	532683	0	0
2024-09-09 13:50:47			0	38367	0	0	0	27727	26310	153528	27305	1075350	47075	110290	0	0	8154	532036	0	0
2024-09-09 13:51:47			0	38317	0	0	0	27742	26310	153716	26977	1075323	47064	110296	0	0	8150	533941	0	0
2024-09-09 13:52:47			0	38343	0	0	0	27735	26310	153716	27046	1075422	47051	110293	0	0	8152	532950	0	0
2024-09-09 13:53:47			0	38322	0	0	0	27735	26320	153696	27107	1075413	47075	110293	0	0	8151	533720	0	0
2024-09-09 13:54:47			0	38332	0	0	0	27740	26310	153760	26798	1075368	47074	110295	0	0	8151	533369	0	0
2024-09-09 13:55:47			0	38337	0	0	0	27742	26320	153692	27026	1075386	47064	110296	0	0	8152	533148	0	0
2024-09-09 13:56:47			0	38285	0	0	0	27755	26320	153740	27376	1075413	47075	110301	0	0	8148	535131	0	0
2024-09-09 13:57:47			0	38327	0	0	0	27755	26320	153668	27286	1075440	47064	110301	0	0	8151	533529	0	0
2024-09-09 13:58:47			0	38313	0	0	0	27758	26320	153756	27093	1075449	47076	110302	0	0	8150	534063	0	0
2024-09-09 13:59:47			0	38327	0	0	0	27758	26330	153744	27114	1075431	47076	110302	0	0	8151	533498	0	0
2024-09-09 14:00:47			0	38337	0	0	0	27753	26330	153624	26873	1075485	47076	110300	0	0	8151	533117	0	0
2024-09-09 14:01:47			0	38334	0	0	0	27758	26330	153680	27218	1075521	47066	110302	0	0	8151	533232	0	0
2024-09-09 14:02:47			0	38295	0	0	0	27766	26320	153832	27140	1075449	47065	110305	0	0	8149	534749	0	0
2024-09-09 14:03:47			0	38315	0	0	0	27755	26340	153824	26849	1075476	47077	110301	0	0	8150	533925	0	0
2024-09-09 14:04:47			0	38317	0	0	0	27755	26330	153676	27209	1075467	47066	110301	0	0	8150	533880	0	0
2024-09-09 14:05:47			0	38350	0	0	0	27755	26340	153652	27164	1075530	47077	110301	0	0	8152	532592	0	0
2024-09-09 14:06:47			0	38322	0	0	0	27758	26340	153688	27173	1075449	47054	110302	0	0	8151	533659	0	0
2024-09-09 14:07:47			0	38340	0	0	0	27755	26330	153732	26989	1075521	47054	110301	0	0	8152	533003	0	0
2024-09-09 14:08:47			0	38326	0	0	0	27761	26330	153660	26864	1075511	47065	110303	0	0	8151	533536	0	0
2024-09-09 14:09:47			0	38309	0	0	0	27745	26330	153660	27190	1075458	47042	110297	0	0	8150	534185	0	0
2024-09-09 14:10:47			0	38296	0	0	0	27766	26330	153748	27161	1075467	47066	110305	0	0	8149	534681	0	0
2024-09-09 14:11:47			0	38274	0	0	0	27763	26340	153804	27081	1075476	47054	110304	0	0	8148	535490	0	0
2024-09-09 14:12:47			0	38280	0	0	0	27758	26340	153876	27353	1075503	47066	110302	0	0	8148	535261	0	0
2024-09-09 14:13:47			0	38290	0	0	0	27755	26340	153752	27362	1075485	47078	110301	0	0	8149	534879	0	0
2024-09-09 14:14:47			0	38293	0	0	0	27755	26340	153716	26958	1075476	47077	110301	0	0	8149	534765	0	0
2024-09-09 14:15:47			0	38311	0	0	0	27763	26340	153664	27282	1075512	47078	110304	0	0	8150	534078	0	0
2024-09-09 14:16:47			0	38319	0	0	0	27761	26330	153688	27298	1075521	47054	110303	0	0	8150	533803	0	0
2024-09-09 14:17:47			0	38317	0	0	0	27755	26350	153684	27105	1075548	47067	110301	0	0	8150	533819	0	0
2024-09-09 14:18:47			0	38326	0	0	0	27766	26350	153644	27185	1075521	47067	110305	0	0	8151	533475	0	0
2024-09-09 14:19:47			0	38330	0	0	0	27758	26340	153660	27272	1075458	47078	110302	0	0	8151	533353	0	0
2024-09-09 14:20:47			0	38338	0	0	0	27768	26350	153508	27315	1075557	47068	110306	0	0	8151	533018	0	0
2024-09-09 14:21:47			0	38347	0	0	0	27766	26360	153640	27201	1075539	47080	110305	0	0	8152	532645	0	0
2024-09-09 14:22:47			0	38359	0	0	0	27786	26340	153420	27308	1075512	47067	110313	0	0	8152	532249	0	0
2024-09-09 14:23:47			0	38377	0	0	0	27773	26360	153420	27076	1075566	47080	110308	0	0	8154	531504	0	0
2024-09-09 14:24:47			0	38374	0	0	0	27784	26350	153360	27201	1075601	47055	110312	0	0	8153	531648	0	0
2024-09-09 14:25:47			0	38391	0	0	0	27792	26370	153488	27078	1075602	47069	110315	0	0	8154	530941	0	0
2024-09-09 14:26:47			0	38390	0	0	0	27792	26360	153380	27263	1075620	47069	110315	0	0	8154	531010	0	0
2024-09-09 14:27:47			0	38390	0	0	0	27786	26360	153448	27287	1075647	47080	110313	0	0	8154	531010	0	0
2024-09-09 14:28:47			0	38384	0	0	0	27784	26360	153420	27206	1075674	47080	110312	0	0	8154	531238	0	0
2024-09-09 14:29:47			0	38409	0	0	0	27784	26360	153320	27371	1075647	47057	110312	0	0	8155	530288	0	0
2024-09-09 14:30:47			0	38409	0	0	0	27784	26380	153352	27319	1075737	47071	110312	0	0	8155	530227	0	0
2024-09-09 14:31:47			0	38414	0	0	0	27781	26370	153348	27374	1075602	47057	110311	0	0	8156	530068	0	0
2024-09-09 14:32:47			0	38403	0	0	0	27776	26370	153244	27206	1075665	47057	110309	0	0	8155	530485	0	0
2024-09-09 14:33:47			0	38400	0	0	0	27779	26370	153292	27289	1075602	47080	110310	0	0	8155	530599	0	0
2024-09-09 14:34:47			0	38403	0	0	0	27789	26380	153216	27026	1075620	47070	110314	0	0	8155	530455	0	0
2024-09-09 14:35:47			0	38400	0	0	0	27789	26370	153212	27239	1075692	47069	110314	0	0	8155	530599	0	0
2024-09-09 14:36:47			0	38446	0	0	0	27797	26380	153176	27154	1075647	47070	110317	0	0	8157	528824	0	0
2024-09-09 14:37:47			0	38443	0	0	0	27799	26380	153212	27168	1075647	47059	110318	0	0	8157	528937	0	0
2024-09-09 14:38:47			0	38425	0	0	0	27786	26380	153120	27360	1075674	47070	110313	0	0	8156	529620	0	0
2024-09-09 14:39:47			0	38426	0	0	0	27799	26380	153188	27393	1075683	47060	110318	0	0	8156	529582	0	0
2024-09-09 14:40:47			0	38443	0	0	0	27799	26380	153120	27421	1075674	47081	110318	0	0	8157	528937	0	0
2024-09-09 14:41:47			0	38407	0	0	0	27797	26390	153264	27429	1075746	47071	110317	0	0	8155	530273	0	0
2024-09-09 14:42:47			0	38445	0	0	0	27786	26390	153104	27540	1075719	47071	110313	0	0	8157	528831	0	0
2024-09-09 14:43:47			0	38438	0	0	0	27807	26390	153116	27452	1075719	47071	110321	0	0	8157	529097	0	0
2024-09-09 14:44:47			0	38442	0	0	0	27810	26390	153092	27260	1075665	47082	110322	0	0	8157	528945	0	0
2024-09-09 14:45:47			0	38451	0	0	0	27799	26380	153092	27436	1075683	47060	110318	0	0	8157	528634	0	0
2024-09-09 14:46:47			0	38458	0	0	0	27799	26390	153028	27467	1075719	47060	110318	0	0	8158	528339	0	0
2024-09-09 14:47:47			0	38485	0	0	0	27794	26390	152960	27504	1075728	47083	110316	0	0	8160	527317	0	0
2024-09-09 14:48:47			0	38478	0	0	0	27799	26400	152888	27431	1075737	47083	110318	0	0	8159	527551	0	0
2024-09-09 14:49:47			0	38461	0	0	0	27789	26390	153032	27400	1075773	47071	110314	0	0	8158	528225	0	0
2024-09-09 14:50:47			0	38439	0	0	0	27799	26380	153136	27530	1075683	47071	110318	0	0	8157	529089	0	0
2024-09-09 14:51:47			0	38419	0	0	0	27802	26380	153068	27464	1075710	47082	110319	0	0	8156	529848	0	0
2024-09-09 14:52:47			0	38431	0	0	0	27792	26390	153176	27440	1075728	47083	110315	0	0	8156	529362	0	0
2024-09-09 14:53:47			0	38391	0	0	0	27805	26390	153164	27488	1075701	47083	110320	0	0	8154	530881	0	0
2024-09-09 14:54:47			0	38432	0	0	0	27805	26380	153152	27795	1075737	47071	110320	0	0	8156	529355	0	0
2024-09-09 14:55:47			0	38413	0	0	0	27805	26390	153168	27362	1075719	47071	110320	0	0	8155	530045	0	0
2024-09-09 14:56:47			0	38421	0	0	0	27805	26390	153156	27384	1075800	47082	110320	0	0	8156	529742	0	0
2024-09-09 14:57:47			0	38434	0	0	0	27802	26380	153032	27308	1075764	47082	110319	0	0	8156	529279	0	0
2024-09-09 14:58:47			0	38444	0	0	0	27802	26400	153052	27642	1075800	47083	110319	0	0	8157	528839	0	0
2024-09-09 14:59:47			0	38454	0	0	0	27794	26390	153084	27453	1075773	47082	110316	0	0	8158	528491	0	0
2024-09-09 15:00:47			0	38413	0	0	0	27807	26380	153148	27526	1075737	47060	110321	0	0	8155	530076	0	0
2024-09-09 15:01:47			0	38399	0	0	0	27794	26390	153220	27223	1075674	47072	110316	0	0	8155	530577	0	0
2024-09-09 15:02:47			0	38413	0	0	0	27792	26390	153212	27435	1075782	47072	110315	0	0	8155	530045	0	0
2024-09-09 15:03:47			0	38421	0	0	0	27799	26390	153148	27204	1075719	47060	110318	0	0	8156	529742	0	0
2024-09-09 15:04:47			0	38409	0	0	0	27789	26380	153096	27300	1075710	47060	110314	0	0	8155	530227	0	0
2024-09-09 15:05:47			0	38441	0	0	0	27802	26380	153052	27599	1075737	47071	110319	0	0	8157	529013	0	0
2024-09-09 15:06:47			0	38452	0	0	0	27802	26390	153188	27215	1075665	47071	110319	0	0	8158	528566	0	0
2024-09-09 15:07:47			0	38425	0	0	0	27805	26390	153148	27447	1075746	47071	110320	0	0	8156	529590	0	0
2024-09-09 15:08:47			0	38430	0	0	0	27799	26390	153124	27334	1075728	47061	110318	0	0	8156	529400	0	0
2024-09-09 15:09:47			0	38432	0	0	0	27805	26390	153120	27291	1075728	47072	110320	0	0	8156	529324	0	0
2024-09-09 15:10:47			0	38425	0	0	0	27807	26380	153220	27431	1075764	47071	110321	0	0	8156	529620	0	0
2024-09-09 15:11:47			0	38445	0	0	0	27812	26400	153288	27526	1075764	47094	110323	0	0	8157	528801	0	0
2024-09-09 15:12:47			0	38411	0	0	0	27820	26400	153220	27431	1075791	47072	110326	0	0	8155	530091	0	0
2024-09-09 15:13:47			0	38412	0	0	0	27815	26390	153188	27183	1075862	47083	110324	0	0	8155	530083	0	0
2024-09-09 15:14:47			0	38423	0	0	0	27812	26400	153080	27457	1075871	47083	110323	0	0	8156	529635	0	0
2024-09-09 15:15:47			0	38432	0	0	0	27815	26400	153080	27384	1075827	47073	110324	0	0	8156	529294	0	0
2024-09-09 15:16:47			0	38441	0	0	0	27815	26400	153008	27409	1075764	47061	110324	0	0	8157	528953	0	0
2024-09-09 15:17:47			0	38463	0	0	0	27815	26400	152988	27369	1075746	47083	110324	0	0	8158	528119	0	0
2024-09-09 15:18:47			0	38504	0	0	0	27828	26400	152932	27334	1075827	47073	110329	0	0	8160	526568	0	0
2024-09-09 15:19:47			0	38512	0	0	0	27818	26400	152800	27166	1075827	47061	110325	0	0	8161	526266	0	0
2024-09-09 15:20:47			0	38510	0	0	0	27846	26400	152884	27138	1075880	47073	110336	0	0	8160	526341	0	0
2024-09-09 15:21:47			0	38489	0	0	0	27838	26410	152760	27071	1075899	47074	110333	0	0	8159	527105	0	0
2024-09-09 15:22:47			0	38498	0	0	0	27833	26400	152784	27097	1075827	47083	110331	0	0	8160	526795	0	0
2024-09-09 15:23:47			0	38525	0	0	0	27818	26410	152784	27241	1075899	47074	110325	0	0	8162	525745	0	0
2024-09-09 15:24:47			0	38550	0	0	0	27812	26410	152672	27438	1075836	47083	110323	0	0	8163	524801	0	0
2024-09-09 15:25:47			0	38527	0	0	0	27828	26410	152776	27055	1075890	47083	110329	0	0	8161	525669	0	0
2024-09-09 15:26:47			0	38522	0	0	0	27812	26410	152728	27333	1075809	47083	110323	0	0	8161	525858	0	0
2024-09-09 15:27:47			0	38473	0	0	0	27849	26420	152860	27197	1075881	47084	110337	0	0	8158	527680	0	0
2024-09-09 15:28:47			0	38477	0	0	0	27854	26410	152940	27227	1075872	47074	110339	0	0	8158	527559	0	0
2024-09-09 15:29:47			0	38488	0	0	0	27844	26420	152872	27248	1075971	47075	110335	0	0	8159	527113	0	0
2024-09-09 15:30:47			0	38502	0	0	0	27838	26420	152852	27666	1075971	47064	110333	0	0	8160	526583	0	0
2024-09-09 15:31:47			0	38534	0	0	0	27841	26410	152756	27575	1075925	47074	110334	0	0	8162	525405	0	0
2024-09-09 15:32:47			0	38536	0	0	0	27851	26420	152676	27433	1075917	47075	110338	0	0	8162	525299	0	0
2024-09-09 15:33:47			0	38519	0	0	0	27846	26420	152832	27505	1075971	47085	110336	0	0	8161	525941	0	0
2024-09-09 15:34:47			0	38530	0	0	0	27831	26430	152720	27166	1075953	47064	110330	0	0	8162	525496	0	0
2024-09-09 15:35:47			0	38525	0	0	0	27836	26430	152704	27334	1075962	47086	110332	0	0	8161	525684	0	0
2024-09-09 15:36:47			0	38535	0	0	0	27870	26440	152616	27246	1075971	47066	110345	0	0	8161	525277	0	0
2024-09-09 15:37:47			0	38561	0	0	0	27849	26430	152588	27124	1075953	47075	110337	0	0	8163	524326	0	0
2024-09-09 15:38:47			0	38620	0	0	0	27838	26430	152412	27133	1075953	47075	110333	0	0	8167	522105	0	0
2024-09-09 15:39:47			0	38633	0	0	0	27846	26430	152248	27130	1075980	47085	110336	0	0	8167	521616	0	0
2024-09-09 15:40:47			0	38556	0	0	0	27880	26430	152524	27428	1075989	47098	110349	0	0	8162	524515	0	0
2024-09-09 15:41:47			0	38576	0	0	0	27844	26440	152472	27275	1076025	47087	110335	0	0	8164	523731	0	0
2024-09-09 15:42:47			0	38595	0	0	0	27857	26450	152372	27701	1076097	47078	110340	0	0	8165	522985	0	0
2024-09-09 15:43:47			0	38539	0	0	0	27877	26440	152572	27319	1076079	47077	110348	0	0	8161	525126	0	0
2024-09-09 15:44:47			0	38571	0	0	0	27867	26450	152492	27781	1076070	47088	110344	0	0	8164	523889	0	0
2024-09-09 15:45:47			0	38583	0	0	0	27867	26440	152520	27581	1076114	47099	110344	0	0	8164	523467	0	0
2024-09-09 15:46:47			0	38561	0	0	0	27916	26450	152532	27355	1076186	47100	110363	0	0	8162	524266	0	0
2024-09-09 15:47:47			0	38497	0	0	0	27927	26450	152756	27403	1076213	47100	110367	0	0	8158	526682	0	0
2024-09-09 15:48:47			0	38520	0	0	0	27885	26470	152784	27639	1076214	47102	110351	0	0	8160	525753	0	0
2024-09-09 15:49:47			0	38495	0	0	0	27903	26470	152784	27414	1076240	47080	110358	0	0	8159	526698	0	0
2024-09-09 15:50:47			0	38502	0	0	0	27885	26470	152808	27237	1076276	47080	110351	0	0	8159	526433	0	0
2024-09-09 15:51:47			0	38480	0	0	0	27906	26470	152852	27390	1076160	47102	110359	0	0	8158	527265	0	0
2024-09-09 15:52:47			0	38550	0	0	0	27885	26470	152564	27526	1076223	47090	110351	0	0	8162	524621	0	0
2024-09-09 15:53:47			0	38609	0	0	0	27872	26480	152388	27523	1076160	47081	110346	0	0	8166	522369	0	0
2024-09-09 15:54:47			0	38597	0	0	0	27890	26470	152340	27509	1076196	47080	110353	0	0	8165	522850	0	0
2024-09-09 15:55:47			0	38617	0	0	0	27901	26470	152320	27459	1076196	47080	110357	0	0	8166	522098	0	0
2024-09-09 15:56:47			0	38600	0	0	0	27880	26470	152304	27440	1076196	47080	110349	0	0	8165	522738	0	0
2024-09-09 15:57:47			0	38619	0	0	0	27890	26470	152268	27653	1076169	47069	110353	0	0	8166	522023	0	0
2024-09-09 15:58:47			0	38641	0	0	0	27898	26460	152188	27336	1076195	47079	110356	0	0	8167	521226	0	0
2024-09-09 15:59:47			0	38633	0	0	0	27922	26470	152304	27327	1076187	47090	110365	0	0	8166	521497	0	0
2024-09-09 16:00:47			0	38614	0	0	0	27885	26480	152308	27339	1076232	47091	110351	0	0	8166	522181	0	0
2024-09-09 16:01:47			0	38629	0	0	0	27901	26480	152328	27275	1076232	47081	110357	0	0	8166	521617	0	0
2024-09-09 16:02:47			0	38603	0	0	0	27922	26490	152432	27326	1076277	47071	110365	0	0	8165	522565	0	0
2024-09-09 16:03:47			0	38589	0	0	0	27903	26480	152460	27516	1076294	47081	110358	0	0	8164	523122	0	0
2024-09-09 16:04:47			0	38622	0	0	0	27880	26480	152252	27473	1076348	47081	110349	0	0	8166	521880	0	0
2024-09-09 16:05:47			0	38632	0	0	0	27888	26480	152296	27454	1076268	47091	110352	0	0	8167	521504	0	0
2024-09-09 16:06:47			0	38653	0	0	0	27896	26500	152192	27462	1076241	47083	110355	0	0	8168	520656	0	0
2024-09-09 16:07:47			0	38653	0	0	0	27885	26480	152080	27498	1076205	47070	110351	0	0	8168	520716	0	0
2024-09-09 16:08:47			0	38678	0	0	0	27880	26490	152124	27594	1076250	47071	110349	0	0	8170	519748	0	0
2024-09-09 16:09:47			0	38690	0	0	0	27890	26480	152072	27372	1076258	47081	110353	0	0	8170	519328	0	0
2024-09-09 16:10:47			0	38688	0	0	0	27893	26480	152096	27602	1076232	47081	110354	0	0	8170	519403	0	0
2024-09-09 16:11:47			0	38731	0	0	0	27888	26480	152048	27293	1076205	47091	110352	0	0	8172	517793	0	0
2024-09-09 16:12:47			0	38679	0	0	0	27924	26480	152032	27895	1076268	47081	110366	0	0	8169	519740	0	0
2024-09-09 16:13:47			0	38652	0	0	0	27911	26480	152092	27471	1076375	47091	110361	0	0	8168	520753	0	0
2024-09-09 16:14:47			0	38669	0	0	0	27919	26480	152064	27450	1076285	47091	110364	0	0	8168	520115	0	0
2024-09-09 16:15:47			0	38655	0	0	0	27914	26490	152136	27131	1076330	47082	110362	0	0	8168	520611	0	0
2024-09-09 16:16:47			0	38685	0	0	0	27919	26490	152100	27583	1076393	47092	110364	0	0	8169	519486	0	0
2024-09-09 16:17:47			0	38682	0	0	0	27929	26500	152152	27698	1076349	47083	110368	0	0	8169	519568	0	0
2024-09-09 16:18:47			0	38672	0	0	0	27940	26500	152032	27549	1076358	47083	110372	0	0	8168	519943	0	0
2024-09-09 16:19:47			0	38680	0	0	0	27937	26510	152144	27234	1076420	47083	110371	0	0	8169	519614	0	0
2024-09-09 16:20:47			0	38659	0	0	0	27945	26510	152088	27448	1076483	47094	110374	0	0	8168	520401	0	0
2024-09-09 16:21:47			0	38659	0	0	0	27950	26500	152216	27391	1076465	47094	110376	0	0	8167	520431	0	0
2024-09-09 16:22:47			0	38702	0	0	0	27932	26510	152024	27246	1076456	47094	110369	0	0	8170	518789	0	0
2024-09-09 16:23:47			0	38725	0	0	0	27945	26520	151920	27407	1076492	47084	110374	0	0	8171	517899	0	0
2024-09-09 16:24:47			0	38717	0	0	0	27953	26520	151940	27282	1076519	47107	110377	0	0	8171	518198	0	0
2024-09-09 16:25:47			0	38755	0	0	0	27948	26510	151781	27228	1076537	47094	110375	0	0	8173	516807	0	0
2024-09-09 16:26:47			0	38759	0	0	0	27958	26530	151765	27168	1076537	47085	110379	0	0	8173	516598	0	0
2024-09-09 16:27:47			0	38796	0	0	0	27963	26520	151733	27621	1076519	47084	110381	0	0	8175	515246	0	0
2024-09-09 16:28:47			0	38767	0	0	0	27955	26520	151765	27483	1076528	47108	110378	0	0	8174	516329	0	0
2024-09-09 16:29:47			0	38760	0	0	0	27961	26530	151845	27633	1076600	47096	110380	0	0	8173	516561	0	0
2024-09-09 16:30:47			0	38756	0	0	0	27968	26530	151697	27509	1076627	47096	110383	0	0	8173	516710	0	0
2024-09-09 16:31:47			0	38760	0	0	0	27968	26530	151717	27403	1076573	47096	110383	0	0	8173	516561	0	0
2024-09-09 16:32:47			0	38731	0	0	0	27966	26540	151857	27379	1076645	47087	110382	0	0	8171	517615	0	0
2024-09-09 16:33:47			0	38732	0	0	0	27976	26540	151885	27441	1076636	47086	110386	0	0	8171	517578	0	0
2024-09-09 16:34:47			0	38731	0	0	0	27979	26540	151973	27235	1076609	47097	110387	0	0	8171	517615	0	0
2024-09-09 16:35:47			0	38744	0	0	0	27968	26550	151957	27112	1076654	47099	110383	0	0	8172	517099	0	0
2024-09-09 16:36:47			0	38768	0	0	0	27979	26540	151813	27287	1076672	47099	110387	0	0	8173	516232	0	0
2024-09-09 16:37:47			0	38774	0	0	0	27981	26540	151765	27523	1076726	47077	110388	0	0	8174	516009	0	0
2024-09-09 16:38:47			0	38776	0	0	0	27984	26550	151701	27511	1076735	47077	110389	0	0	8174	515904	0	0
2024-09-09 16:39:47			0	38770	0	0	0	27999	26550	151785	27301	1076744	47099	110395	0	0	8173	516128	0	0
2024-09-09 16:40:47			0	38745	0	0	0	27997	26560	151789	27201	1076780	47088	110394	0	0	8172	517033	0	0
2024-09-09 16:41:47			0	38751	0	0	0	28002	26560	151829	27114	1076843	47100	110396	0	0	8172	516808	0	0
2024-09-09 16:42:47			0	38762	0	0	0	27999	26560	151693	27386	1076861	47111	110395	0	0	8173	516397	0	0
2024-09-09 16:43:47			0	38795	0	0	0	28002	26560	151573	27254	1076816	47100	110396	0	0	8175	515166	0	0
2024-09-09 16:44:47			0	38808	0	0	0	28005	26560	151625	26814	1076789	47089	110397	0	0	8175	514681	0	0
2024-09-09 16:45:47			0	38753	0	0	0	28018	26580	151729	27097	1076870	47090	110402	0	0	8172	516674	0	0
2024-09-09 16:46:47			0	38718	0	0	0	28018	26580	151888	27204	1076924	47090	110402	0	0	8170	517983	0	0
2024-09-09 16:47:47			0	38693	0	0	0	28015	26580	151936	27327	1076933	47091	110401	0	0	8169	518919	0	0
2024-09-09 16:48:47			0	38671	0	0	0	28020	26580	152084	27575	1076906	47103	110403	0	0	8167	519743	0	0
2024-09-09 16:49:47			0	38650	0	0	0	28025	26590	152172	27052	1076969	47115	110405	0	0	8166	520501	0	0
2024-09-09 16:50:47			0	38613	0	0	0	28028	26590	152272	27268	1076951	47115	110406	0	0	8164	521890	0	0
2024-09-09 16:51:47			0	38604	0	0	0	28025	26590	152288	27505	1076897	47104	110405	0	0	8163	522228	0	0
2024-09-09 16:52:47			0	38622	0	0	0	28023	26600	152200	27486	1076942	47116	110404	0	0	8164	521522	0	0
2024-09-09 16:53:47			0	38681	0	0	0	28031	26600	152120	27289	1077023	47105	110407	0	0	8168	519309	0	0
2024-09-09 16:54:47			0	38669	0	0	0	28033	26600	151948	27424	1076933	47104	110408	0	0	8167	519758	0	0
2024-09-09 16:55:47			0	38665	0	0	0	28036	26610	152120	27351	1077005	47094	110409	0	0	8167	519879	0	0
2024-09-09 16:56:47			0	38679	0	0	0	28041	26610	152064	27346	1076978	47117	110411	0	0	8168	519354	0	0
2024-09-09 16:57:47			0	38661	0	0	0	28033	26590	152076	27211	1077059	47104	110408	0	0	8167	520088	0	0
2024-09-09 16:58:47			0	38633	0	0	0	28046	26600	152104	27183	1077023	47105	110413	0	0	8165	521109	0	0
2024-09-09 16:59:47			0	38617	0	0	0	28051	26610	152240	27034	1077014	47117	110415	0	0	8164	521680	0	0
2024-09-09 17:00:47			0	38588	0	0	0	28051	26610	152368	27601	1077032	47094	110415	0	0	8162	522770	0	0
2024-09-09 17:01:47			0	38583	0	0	0	28059	26620	152476	27282	1077077	47117	110418	0	0	8162	522929	0	0
2024-09-09 17:02:47			0	38532	0	0	0	28067	26610	152528	27029	1077122	47106	110421	0	0	8159	524879	0	0
2024-09-09 17:03:47			0	38497	0	0	0	28067	26620	152632	27048	1077104	47117	110421	0	0	8157	526170	0	0
2024-09-09 17:04:47			0	38555	0	0	0	28028	26630	152376	27107	1077095	47108	110406	0	0	8161	523953	0	0
2024-09-09 17:05:47			0	38559	0	0	0	28051	26630	152344	26984	1077122	47096	110415	0	0	8161	523802	0	0
2024-09-09 17:06:47			0	38561	0	0	0	28051	26630	152364	27407	1077122	47096	110415	0	0	8161	523727	0	0
2024-09-09 17:07:47			0	38548	0	0	0	28054	26620	152476	27163	1077059	47095	110416	0	0	8160	524246	0	0
2024-09-09 17:08:47			0	38551	0	0	0	28049	26620	152388	27343	1077140	47107	110414	0	0	8160	524133	0	0
2024-09-09 17:09:47			0	38594	0	0	0	28041	26630	152232	27343	1077122	47108	110411	0	0	8163	522485	0	0
2024-09-09 17:10:47			0	38600	0	0	0	28044	26630	152280	26948	1077068	47108	110412	0	0	8163	522259	0	0
2024-09-09 17:11:47			0	38618	0	0	0	28038	26620	152140	27267	1077059	47107	110410	0	0	8164	521613	0	0
2024-09-09 17:12:47			0	38639	0	0	0	28036	26630	152028	27464	1077041	47096	110409	0	0	8165	520794	0	0
2024-09-09 17:13:47			0	38648	0	0	0	28036	26620	152048	27272	1077104	47094	110409	0	0	8166	520487	0	0
2024-09-09 17:14:47			0	38641	0	0	0	28038	26620	152048	27255	1077059	47084	110410	0	0	8165	520749	0	0
2024-09-09 17:15:47			0	38668	0	0	0	28036	26610	151976	27230	1076987	47106	110409	0	0	8167	519766	0	0
2024-09-09 17:16:47			0	38664	0	0	0	28033	26620	151952	27471	1077077	47083	110408	0	0	8167	519886	0	0
2024-09-09 17:17:47			0	38630	0	0	0	28025	26620	152088	27400	1077005	47107	110405	0	0	8165	521162	0	0
2024-09-09 17:18:47			0	38617	0	0	0	28033	26620	152120	27386	1077050	47094	110408	0	0	8164	521650	0	0
2024-09-09 17:19:47			0	38600	0	0	0	28036	26620	152156	27130	1077023	47094	110409	0	0	8163	522289	0	0
2024-09-09 17:20:47			0	38626	0	0	0	28028	26620	152120	27267	1077050	47094	110406	0	0	8165	521312	0	0
2024-09-09 17:21:47			0	38643	0	0	0	28038	26620	152108	27518	1077086	47095	110410	0	0	8166	520674	0	0
2024-09-09 17:22:47			0	38647	0	0	0	28023	26630	151992	27364	1077041	47096	110404	0	0	8166	520494	0	0
2024-09-09 17:23:47			0	38681	0	0	0	28031	26620	152072	27227	1077059	47107	110407	0	0	8168	519249	0	0
2024-09-09 17:24:47			0	38674	0	0	0	28036	26630	151948	27287	1077068	47096	110409	0	0	8167	519482	0	0
2024-09-09 17:25:47			0	38691	0	0	0	28033	26610	151852	27296	1076960	47106	110408	0	0	8168	518904	0	0
2024-09-09 17:26:47			0	38668	0	0	0	28036	26620	151984	27459	1077050	47094	110409	0	0	8167	519737	0	0
2024-09-09 17:27:47			0	38672	0	0	0	28038	26620	152052	27429	1077059	47095	110410	0	0	8167	519587	0	0
2024-09-09 17:28:47			0	38649	0	0	0	28031	26610	152060	27116	1077005	47094	110407	0	0	8166	520479	0	0
2024-09-09 17:29:47			0	38609	0	0	0	28041	26620	152236	27289	1076996	47106	110411	0	0	8164	521951	0	0
2024-09-09 17:30:47			0	38601	0	0	0	28028	26610	152140	27402	1077059	47094	110406	0	0	8163	522281	0	0
2024-09-09 17:31:47			0	38619	0	0	0	28036	26620	152232	27157	1077050	47094	110409	0	0	8164	521575	0	0
2024-09-09 17:32:47			0	38631	0	0	0	28036	26620	152148	27175	1077077	47094	110409	0	0	8165	521125	0	0
2024-09-09 17:33:47			0	38621	0	0	0	28041	26620	152116	27310	1077005	47107	110411	0	0	8164	521500	0	0
2024-09-09 17:34:47			0	38626	0	0	0	28041	26620	152112	27263	1077077	47106	110411	0	0	8165	521312	0	0
2024-09-09 17:35:47			0	38640	0	0	0	28038	26620	152160	27149	1077077	47106	110410	0	0	8165	520787	0	0
2024-09-09 17:36:47			0	38632	0	0	0	28038	26620	152140	27390	1077032	47118	110410	0	0	8165	521087	0	0
2024-09-09 17:37:47			0	38616	0	0	0	28041	26610	152120	27265	1077095	47106	110411	0	0	8164	521718	0	0
2024-09-09 17:38:47			0	38623	0	0	0	28041	26620	152092	27343	1077032	47118	110411	0	0	8164	521425	0	0
2024-09-09 17:39:47			0	38663	0	0	0	28025	26620	151972	27180	1077023	47094	110405	0	0	8167	519924	0	0
2024-09-09 17:40:47			0	38710	0	0	0	28031	26620	151932	27390	1076979	47107	110407	0	0	8169	518164	0	0
2024-09-09 17:41:47			0	38711	0	0	0	28031	26610	151932	27289	1077068	47094	110407	0	0	8170	518156	0	0
2024-09-09 17:42:47			0	38705	0	0	0	28031	26610	151832	27187	1077041	47106	110407	0	0	8169	518380	0	0
2024-09-09 17:43:47			0	38729	0	0	0	28033	26620	151705	27190	1077032	47095	110408	0	0	8171	517453	0	0
2024-09-09 17:44:47			0	38742	0	0	0	28031	26620	151781	27145	1077104	47106	110407	0	0	8171	516967	0	0
2024-09-09 17:45:47			0	38718	0	0	0	28036	26620	151776	27268	1077131	47094	110409	0	0	8170	517864	0	0
2024-09-09 17:46:47			0	38719	0	0	0	28033	26610	151808	27319	1076987	47094	110408	0	0	8170	517856	0	0
2024-09-09 17:47:47			0	38713	0	0	0	28028	26620	151904	27365	1077077	47094	110406	0	0	8170	518051	0	0
2024-09-09 17:48:47			0	38718	0	0	0	28038	26620	151840	27286	1077104	47106	110410	0	0	8170	517864	0	0
2024-09-09 17:49:47			0	38693	0	0	0	28044	26630	151736	27187	1077068	47119	110412	0	0	8168	518770	0	0
2024-09-09 17:50:47			0	38690	0	0	0	28041	26620	151908	27383	1077050	47106	110411	0	0	8168	518912	0	0
2024-09-09 17:51:47			0	38690	0	0	0	28033	26620	151924	27138	1077113	47095	110408	0	0	8168	518912	0	0
2024-09-09 17:52:47			0	38691	0	0	0	28041	26620	151976	27355	1077050	47106	110411	0	0	8168	518875	0	0
2024-09-09 17:53:47			0	38709	0	0	0	28044	26620	151868	27258	1077077	47094	110412	0	0	8169	518201	0	0
2024-09-09 17:54:47			0	38681	0	0	0	28041	26620	151944	27474	1077032	47107	110411	0	0	8168	519249	0	0
2024-09-09 17:55:47			0	38698	0	0	0	28031	26620	151792	27409	1077059	47084	110407	0	0	8169	518613	0	0
2024-09-09 17:56:47			0	38696	0	0	0	28031	26620	151920	27429	1077086	47107	110407	0	0	8169	518688	0	0
2024-09-09 17:57:47			0	38673	0	0	0	28038	26630	151948	27242	1077095	47096	110410	0	0	8167	519519	0	0
2024-09-09 17:58:47			0	38673	0	0	0	28033	26610	151992	27204	1077068	47073	110408	0	0	8167	519579	0	0
2024-09-09 17:59:47			0	38676	0	0	0	28041	26630	152036	27485	1077095	47108	110411	0	0	8167	519407	0	0
2024-09-09 18:00:47			0	38679	0	0	0	28031	26620	151956	27185	1077059	47107	110407	0	0	8168	519324	0	0
2024-09-09 18:01:47			0	38690	0	0	0	28031	26630	151956	27322	1077122	47108	110407	0	0	8168	518883	0	0
2024-09-09 18:02:47			0	38695	0	0	0	28041	26620	152008	27220	1077086	47095	110411	0	0	8168	518725	0	0
2024-09-09 18:03:47			0	38658	0	0	0	28038	26620	152084	27455	1077050	47094	110410	0	0	8166	520111	0	0
2024-09-09 18:04:47			0	38673	0	0	0	28044	26610	152048	27150	1077041	47094	110412	0	0	8167	519579	0	0
2024-09-09 18:05:47			0	38684	0	0	0	28031	26620	151912	27395	1077059	47095	110407	0	0	8168	519137	0	0
2024-09-09 18:06:47			0	38697	0	0	0	28023	26620	152012	27339	1077059	47107	110404	0	0	8169	518650	0	0
2024-09-09 18:07:47			0	38690	0	0	0	28031	26620	151884	27218	1077077	47106	110407	0	0	8168	518912	0	0
2024-09-09 18:08:47			0	38693	0	0	0	28033	26620	151816	27443	1077023	47094	110408	0	0	8168	518800	0	0
2024-09-09 18:09:47			0	38718	0	0	0	28033	26620	151904	27313	1077032	47107	110408	0	0	8170	517864	0	0
2024-09-09 18:10:47			0	38704	0	0	0	28023	26630	151940	27234	1077041	47096	110404	0	0	8169	518359	0	0
2024-09-09 18:11:47			0	38675	0	0	0	28015	26620	151996	27357	1077104	47083	110401	0	0	8168	519474	0	0
2024-09-09 18:12:47			0	38660	0	0	0	28031	26610	151992	27412	1077014	47094	110407	0	0	8167	520066	0	0
2024-09-09 18:13:47			0	38675	0	0	0	28028	26610	152180	27360	1077005	47083	110406	0	0	8167	519504	0	0
2024-09-09 18:14:47			0	38649	0	0	0	28020	26620	152140	27374	1077077	47106	110403	0	0	8166	520449	0	0
2024-09-09 18:15:47			0	38650	0	0	0	28025	26620	152176	27329	1077032	47107	110405	0	0	8166	520411	0	0
2024-09-09 18:16:47			0	38637	0	0	0	28023	26610	152092	27298	1077041	47117	110404	0	0	8165	520929	0	0
2024-09-09 18:17:47			0	38643	0	0	0	28023	26620	152068	27339	1077050	47094	110404	0	0	8166	520674	0	0
2024-09-09 18:18:47			0	38661	0	0	0	28031	26600	152124	27341	1077023	47105	110407	0	0	8167	520058	0	0
2024-09-09 18:19:47			0	38662	0	0	0	28028	26610	152188	27256	1077032	47094	110406	0	0	8167	519991	0	0
2024-09-09 18:20:47			0	38635	0	0	0	28012	26600	152096	27114	1077104	47083	110400	0	0	8165	521034	0	0
2024-09-09 18:21:47			0	38625	0	0	0	28007	26610	152208	27357	1077005	47083	110398	0	0	8165	521380	0	0
2024-09-09 18:22:47			0	38621	0	0	0	28020	26610	152212	27447	1077005	47094	110403	0	0	8165	521530	0	0
2024-09-09 18:23:47			0	38630	0	0	0	28025	26600	152200	27194	1076996	47116	110405	0	0	8165	521222	0	0
2024-09-09 18:24:47			0	38635	0	0	0	28020	26600	152072	27362	1077023	47105	110403	0	0	8165	521034	0	0
2024-09-09 18:25:47			0	38632	0	0	0	28025	26610	152204	27064	1077005	47083	110405	0	0	8165	521117	0	0
2024-09-09 18:26:47			0	38629	0	0	0	28028	26610	152184	27223	1077059	47094	110406	0	0	8165	521229	0	0
2024-09-09 18:27:47			0	38638	0	0	0	28020	26620	152196	27189	1077077	47094	110403	0	0	8166	520862	0	0
2024-09-09 18:28:47			0	38637	0	0	0	28015	26610	152232	27343	1077005	47083	110401	0	0	8166	520929	0	0
2024-09-09 18:29:47			0	38625	0	0	0	28023	26600	152204	27034	1076996	47083	110404	0	0	8165	521409	0	0
2024-09-09 18:30:47			0	38611	0	0	0	28023	26600	152356	27170	1077023	47116	110404	0	0	8164	521935	0	0
2024-09-09 18:31:47			0	38612	0	0	0	28028	26600	152192	27118	1077023	47093	110406	0	0	8164	521898	0	0
2024-09-09 18:32:47			0	38618	0	0	0	28015	26600	152268	27005	1077095	47104	110401	0	0	8164	521672	0	0
2024-09-09 18:33:47			0	38630	0	0	0	28025	26600	152316	27192	1076969	47116	110405	0	0	8165	521222	0	0
2024-09-09 18:34:47			0	38603	0	0	0	28012	26600	152340	27440	1076969	47093	110400	0	0	8164	522236	0	0
2024-09-09 18:35:47			0	38595	0	0	0	28002	26610	152292	26774	1077014	47094	110396	0	0	8163	522507	0	0
2024-09-09 18:36:47			0	38576	0	0	0	27994	26620	152348	27137	1077023	47094	110393	0	0	8162	523192	0	0
2024-09-09 18:37:47			0	38569	0	0	0	27999	26600	152404	26953	1077050	47105	110395	0	0	8162	523515	0	0
2024-09-09 18:38:47			0	38545	0	0	0	28002	26600	152492	27026	1076915	47093	110396	0	0	8160	524419	0	0
2024-09-09 18:39:47			0	38559	0	0	0	27999	26590	152460	27150	1076951	47104	110395	0	0	8161	523922	0	0
2024-09-09 18:40:47			0	38555	0	0	0	28005	26600	152568	27180	1076969	47093	110397	0	0	8161	524043	0	0
2024-09-09 18:41:47			0	38547	0	0	0	27981	26600	152456	27471	1076960	47092	110388	0	0	8161	524344	0	0
2024-09-09 18:42:47			0	38537	0	0	0	27992	26600	152516	27319	1076960	47092	110392	0	0	8160	524721	0	0
2024-09-09 18:43:47			0	38523	0	0	0	27986	26580	152520	27407	1076906	47103	110390	0	0	8159	525309	0	0
2024-09-09 18:44:47			0	38551	0	0	0	27994	26590	152432	27013	1076915	47092	110393	0	0	8161	524223	0	0
2024-09-09 18:45:47			0	38558	0	0	0	28002	26590	152504	27202	1076888	47092	110396	0	0	8161	523960	0	0
2024-09-09 18:46:47			0	38534	0	0	0	27992	26580	152592	26901	1076879	47103	110392	0	0	8160	524894	0	0
2024-09-09 18:47:47			0	38555	0	0	0	27997	26590	152660	27150	1076897	47092	110394	0	0	8161	524073	0	0
2024-09-09 18:48:47			0	38533	0	0	0	27994	26590	152540	27150	1076888	47082	110393	0	0	8160	524902	0	0
2024-09-09 18:49:47			0	38542	0	0	0	27994	26590	152552	27085	1076942	47104	110393	0	0	8160	524563	0	0
2024-09-09 18:50:47			0	38521	0	0	0	27989	26580	152596	27227	1076906	47091	110391	0	0	8159	525385	0	0
2024-09-09 18:51:47			0	38535	0	0	0	27997	26590	152572	27256	1076888	47104	110394	0	0	8160	524826	0	0
2024-09-09 18:52:47			0	38530	0	0	0	27999	26580	152672	27346	1076906	47103	110395	0	0	8160	525045	0	0
2024-09-09 18:53:47			0	38527	0	0	0	27994	26580	152680	27239	1076879	47114	110393	0	0	8159	525158	0	0
2024-09-09 18:54:47			0	38511	0	0	0	27989	26590	152748	26894	1076915	47092	110391	0	0	8159	525732	0	0
2024-09-09 18:55:47			0	38511	0	0	0	27989	26590	152712	27246	1076861	47092	110391	0	0	8159	525732	0	0
2024-09-09 18:56:47			0	38498	0	0	0	27986	26590	152744	27239	1076861	47104	110390	0	0	8158	526223	0	0
2024-09-09 18:57:47			0	38480	0	0	0	27979	26570	152732	27150	1076780	47102	110387	0	0	8157	526963	0	0
2024-09-09 18:58:47			0	38511	0	0	0	27984	26570	152780	27329	1076861	47090	110389	0	0	8159	525792	0	0
2024-09-09 18:59:47			0	38489	0	0	0	27976	26580	152732	27152	1076825	47103	110386	0	0	8158	526593	0	0
2024-09-09 19:00:47			0	38477	0	0	0	27981	26580	152896	27362	1076843	47090	110388	0	0	8157	527047	0	0
2024-09-09 19:01:47			0	38469	0	0	0	27979	26580	152892	27119	1076879	47091	110387	0	0	8156	527349	0	0
2024-09-09 19:02:47			0	38455	0	0	0	27976	26580	152884	27346	1076789	47102	110386	0	0	8156	527879	0	0
2024-09-09 19:03:47			0	38459	0	0	0	27974	26570	152904	27435	1076807	47080	110385	0	0	8156	527758	0	0
2024-09-09 19:04:47			0	38445	0	0	0	27981	26570	152992	27213	1076780	47090	110388	0	0	8155	528287	0	0
2024-09-09 19:05:47			0	38460	0	0	0	27963	26580	152940	27196	1076870	47090	110381	0	0	8156	527690	0	0
2024-09-09 19:06:47			0	38451	0	0	0	27966	26580	153048	27376	1076843	47090	110382	0	0	8156	528030	0	0
2024-09-09 19:07:47			0	38432	0	0	0	27963	26570	152960	27395	1076771	47102	110381	0	0	8154	528780	0	0
2024-09-09 19:08:47			0	38449	0	0	0	27958	26570	152960	27199	1076825	47080	110379	0	0	8156	528136	0	0
2024-09-09 19:09:47			0	38459	0	0	0	27963	26560	152960	27005	1076789	47079	110381	0	0	8156	527788	0	0
2024-09-09 19:10:47			0	38430	0	0	0	27968	26560	153076	27100	1076762	47089	110383	0	0	8154	528886	0	0
2024-09-09 19:11:47			0	38431	0	0	0	27966	26560	153120	27093	1076780	47088	110382	0	0	8154	528848	0	0
2024-09-09 19:12:47			0	38432	0	0	0	27968	26550	153132	27365	1076717	47088	110383	0	0	8154	528840	0	0
2024-09-09 19:13:47			0	38414	0	0	0	27961	26560	153172	27241	1076753	47088	110380	0	0	8153	529492	0	0
2024-09-09 19:14:47			0	38394	0	0	0	27961	26560	153232	27307	1076682	47089	110380	0	0	8152	530251	0	0
2024-09-09 19:15:47			0	38388	0	0	0	27961	26550	153252	27088	1076690	47099	110380	0	0	8152	530509	0	0
2024-09-09 19:16:47			0	38387	0	0	0	27968	26560	153288	27331	1076709	47089	110383	0	0	8152	530517	0	0
2024-09-09 19:17:47			0	38371	0	0	0	27961	26550	153264	27253	1076744	47078	110380	0	0	8151	531155	0	0
2024-09-09 19:18:47			0	38362	0	0	0	27948	26550	153384	27211	1076735	47099	110375	0	0	8151	531497	0	0
2024-09-09 19:19:47			0	38355	0	0	0	27953	26550	153384	27059	1076664	47099	110377	0	0	8150	531763	0	0
2024-09-09 19:20:47			0	38358	0	0	0	27958	26550	153332	27445	1076852	47078	110379	0	0	8150	531649	0	0
2024-09-09 19:21:47			0	38356	0	0	0	27961	26550	153408	27124	1076681	47077	110380	0	0	8150	531725	0	0
2024-09-09 19:22:47			0	38344	0	0	0	27955	26550	153456	27097	1076735	47087	110378	0	0	8149	532181	0	0
2024-09-09 19:23:47			0	38349	0	0	0	27950	26540	153464	26984	1076726	47087	110376	0	0	8150	532021	0	0
2024-09-09 19:24:47			0	38316	0	0	0	27950	26540	153480	27066	1076619	47099	110376	0	0	8148	533277	0	0
2024-09-09 19:25:47			0	38329	0	0	0	27942	26540	153528	27156	1076609	47086	110373	0	0	8149	532782	0	0
2024-09-09 19:26:47			0	38305	0	0	0	27945	26540	153572	27216	1076636	47086	110374	0	0	8147	533696	0	0
2024-09-09 19:27:47			0	38321	0	0	0	27950	26540	153636	27150	1076645	47087	110376	0	0	8148	533087	0	0
2024-09-09 19:28:47			0	38310	0	0	0	27948	26540	153548	27305	1076672	47077	110375	0	0	8148	533506	0	0
2024-09-09 19:29:47			0	38306	0	0	0	27953	26540	153568	27493	1076619	47087	110377	0	0	8147	533658	0	0
2024-09-09 19:30:47			0	38287	0	0	0	27945	26540	153692	27189	1076555	47097	110374	0	0	8146	534382	0	0
2024-09-09 19:31:47			0	38292	0	0	0	27937	26540	153596	27124	1076609	47086	110371	0	0	8147	534192	0	0
2024-09-09 19:32:47			0	38267	0	0	0	27937	26530	153864	27479	1076564	47085	110371	0	0	8145	535176	0	0
2024-09-09 19:33:47			0	38257	0	0	0	27935	26540	153784	27036	1076609	47086	110370	0	0	8145	535527	0	0
2024-09-09 19:34:47			0	38258	0	0	0	27940	26530	153724	27019	1076600	47085	110372	0	0	8145	535520	0	0
2024-09-09 19:35:47			0	38263	0	0	0	27937	26520	153828	26996	1076609	47075	110371	0	0	8145	535359	0	0
2024-09-09 19:36:47			0	38223	0	0	0	27929	26530	153848	27202	1076537	47096	110368	0	0	8143	536857	0	0
2024-09-09 19:37:47			0	38231	0	0	0	27937	26530	153880	27059	1076600	47085	110371	0	0	8143	536551	0	0
2024-09-09 19:38:47			0	38216	0	0	0	27950	26530	153988	27286	1076591	47085	110376	0	0	8142	537125	0	0
2024-09-09 19:39:47			0	38233	0	0	0	27932	26530	153988	27419	1076573	47085	110369	0	0	8143	536475	0	0
2024-09-09 19:40:47			0	38195	0	0	0	27929	26520	154100	27310	1076546	47095	110368	0	0	8141	537959	0	0
2024-09-09 19:41:47			0	38195	0	0	0	27935	26520	153972	26994	1076582	47085	110370	0	0	8141	537959	0	0
2024-09-09 19:42:47			0	38202	0	0	0	27924	26520	153972	27045	1076582	47096	110366	0	0	8142	537691	0	0
2024-09-09 19:43:47			0	38189	0	0	0	27922	26520	153908	27306	1076528	47085	110365	0	0	8141	538189	0	0
2024-09-09 19:44:47			0	38184	0	0	0	27916	26520	154088	26937	1076519	47074	110363	0	0	8141	538381	0	0
2024-09-09 19:45:47			0	38151	0	0	0	27919	26520	154096	27100	1076528	47096	110364	0	0	8139	539646	0	0
2024-09-09 19:46:47			0	38164	0	0	0	27919	26510	154140	27293	1076474	47106	110364	0	0	8140	539178	0	0
2024-09-09 19:47:47			0	38134	0	0	0	27914	26510	154112	27277	1076447	47083	110362	0	0	8138	540329	0	0
2024-09-09 19:48:47			0	38155	0	0	0	27929	26520	154240	27197	1076438	47084	110368	0	0	8139	539493	0	0
2024-09-09 19:49:47			0	38169	0	0	0	27919	26510	154124	27126	1076510	47083	110364	0	0	8140	538987	0	0
2024-09-09 19:50:47			0	38164	0	0	0	27916	26520	154024	27166	1076465	47095	110363	0	0	8140	539147	0	0
2024-09-09 19:51:47			0	38155	0	0	0	27914	26510	154116	27228	1076501	47094	110362	0	0	8139	539523	0	0
2024-09-09 19:52:47			0	38154	0	0	0	27903	26500	154168	27329	1076411	47083	110358	0	0	8139	539593	0	0
2024-09-09 19:53:47			0	38128	0	0	0	27898	26510	154228	27339	1076429	47083	110356	0	0	8138	540560	0	0
2024-09-09 19:54:47			0	38127	0	0	0	27898	26500	154356	27095	1076438	47073	110356	0	0	8138	540629	0	0
2024-09-09 19:55:47			0	38126	0	0	0	27898	26500	154320	26994	1076411	47083	110356	0	0	8138	540668	0	0
2024-09-09 19:56:47			0	38075	0	0	0	27888	26500	154448	27211	1076384	47083	110352	0	0	8135	542629	0	0
2024-09-09 19:57:47			0	38074	0	0	0	27898	26500	154404	27287	1076322	47083	110356	0	0	8135	542667	0	0
2024-09-09 19:58:47			0	38080	0	0	0	27888	26490	154508	27137	1076366	47082	110352	0	0	8135	542467	0	0
2024-09-09 19:59:47			0	38056	0	0	0	27906	26490	154452	27095	1076366	47092	110359	0	0	8133	543392	0	0
2024-09-09 20:00:47			0	38048	0	0	0	27888	26490	154572	27187	1076277	47082	110352	0	0	8133	543700	0	0
2024-09-09 20:01:47			0	38055	0	0	0	27896	26490	154536	27308	1076259	47092	110355	0	0	8134	543430	0	0
2024-09-09 20:02:47			0	38034	0	0	0	27885	26490	154564	27013	1076313	47082	110351	0	0	8133	544240	0	0
2024-09-09 20:03:47			0	38023	0	0	0	27864	26490	154675	27059	1076303	47092	110343	0	0	8132	544665	0	0
2024-09-09 20:04:47			0	38032	0	0	0	27880	26490	154616	27157	1076250	47092	110349	0	0	8132	544317	0	0
2024-09-09 20:05:47			0	38037	0	0	0	27883	26480	154632	27171	1076268	47070	110350	0	0	8133	544156	0	0
2024-09-09 20:06:47			0	38026	0	0	0	27883	26490	154695	27114	1076277	47082	110350	0	0	8132	544549	0	0
2024-09-09 20:07:47			0	38035	0	0	0	27880	26480	154572	27131	1076258	47091	110349	0	0	8133	544233	0	0
2024-09-09 20:08:47			0	38009	0	0	0	27883	26480	154695	27112	1076232	47081	110350	0	0	8131	545236	0	0
2024-09-09 20:09:47			0	38031	0	0	0	27880	26480	154668	26817	1076285	47081	110349	0	0	8132	544387	0	0
2024-09-09 20:10:47			0	38041	0	0	0	27888	26470	154708	27173	1076249	47090	110352	0	0	8133	544032	0	0
2024-09-09 20:11:47			0	38007	0	0	0	27885	26480	154723	27464	1076232	47091	110351	0	0	8131	545314	0	0
2024-09-09 20:12:47			0	38019	0	0	0	27888	26470	154667	27173	1076223	47069	110352	0	0	8131	544881	0	0
2024-09-09 20:13:47			0	38002	0	0	0	27883	26460	154691	27176	1076231	47089	110350	0	0	8131	545569	0	0
2024-09-09 20:14:47			0	38014	0	0	0	27875	26470	154675	27263	1076249	47080	110347	0	0	8131	545074	0	0
2024-09-09 20:15:47			0	38018	0	0	0	27872	26470	154651	27272	1076187	47080	110346	0	0	8132	544920	0	0
2024-09-09 20:16:47			0	38008	0	0	0	27880	26470	154743	27223	1076249	47090	110349	0	0	8131	545306	0	0
2024-09-09 20:17:47			0	38003	0	0	0	27880	26470	154711	27365	1076267	47080	110349	0	0	8131	545499	0	0
2024-09-09 20:18:47			0	38013	0	0	0	27877	26470	154683	26960	1076249	47069	110348	0	0	8131	545113	0	0
2024-09-09 20:19:47			0	38002	0	0	0	27877	26470	154687	26798	1076214	47090	110348	0	0	8131	545538	0	0
2024-09-09 20:20:47			0	38001	0	0	0	27888	26470	154751	27102	1076223	47090	110352	0	0	8130	545577	0	0
2024-09-09 20:21:47			0	37988	0	0	0	27875	26470	154823	26894	1076276	47090	110347	0	0	8130	546079	0	0
2024-09-09 20:22:47			0	37995	0	0	0	27870	26470	154783	26960	1076276	47080	110345	0	0	8130	545808	0	0
2024-09-09 20:23:47			0	37981	0	0	0	27890	26460	154803	27128	1076231	47089	110353	0	0	8129	546381	0	0
2024-09-09 20:24:47			0	37982	0	0	0	27877	26470	154859	26795	1076214	47090	110348	0	0	8130	546311	0	0
2024-09-09 20:25:47			0	38002	0	0	0	27875	26460	154843	27192	1076231	47079	110347	0	0	8131	545569	0	0
2024-09-09 20:26:47			0	37997	0	0	0	27875	26470	154799	26906	1076249	47090	110347	0	0	8130	545731	0	0
2024-09-09 20:27:47			0	38001	0	0	0	27877	26470	154831	27098	1076223	47080	110348	0	0	8131	545577	0	0
2024-09-09 20:28:47			0	38000	0	0	0	27883	26470	154779	26979	1076294	47090	110350	0	0	8130	545615	0	0
2024-09-09 20:29:47			0	38008	0	0	0	27875	26470	154799	27003	1076214	47090	110347	0	0	8131	545306	0	0
2024-09-09 20:30:47			0	38008	0	0	0	27880	26460	154755	27154	1076249	47079	110349	0	0	8131	545337	0	0
2024-09-09 20:31:47			0	38018	0	0	0	27880	26470	154815	27053	1076240	47090	110349	0	0	8132	544920	0	0
2024-09-09 20:32:47			0	38013	0	0	0	27875	26460	154747	26927	1076204	47101	110347	0	0	8131	545144	0	0
2024-09-09 20:33:47			0	38030	0	0	0	27888	26470	154752	27116	1076214	47080	110352	0	0	8132	544457	0	0
2024-09-09 20:34:47			0	38015	0	0	0	27880	26470	154751	26998	1076249	47090	110349	0	0	8131	545036	0	0
2024-09-09 20:35:47			0	38017	0	0	0	27888	26470	154831	26906	1076214	47090	110352	0	0	8131	544959	0	0
2024-09-09 20:36:47			0	38010	0	0	0	27883	26470	154723	27093	1076330	47080	110350	0	0	8131	545229	0	0
2024-09-09 20:37:47			0	38027	0	0	0	27885	26470	154800	27104	1076214	47069	110351	0	0	8132	544573	0	0
2024-09-09 20:38:47			0	38020	0	0	0	27888	26470	154767	26805	1076267	47080	110352	0	0	8132	544843	0	0
2024-09-09 20:39:47			0	38026	0	0	0	27877	26470	154751	26935	1076169	47090	110348	0	0	8132	544611	0	0
2024-09-09 20:40:47			0	38045	0	0	0	27864	26470	154728	27144	1076223	47080	110343	0	0	8133	543878	0	0
2024-09-09 20:41:47			0	38028	0	0	0	27864	26460	154655	26925	1076258	47079	110343	0	0	8132	544565	0	0
2024-09-09 20:42:47			0	38048	0	0	0	27859	26460	154504	27185	1076222	47079	110341	0	0	8134	543794	0	0
2024-09-09 20:43:47			0	38066	0	0	0	27864	26460	154480	26897	1076204	47089	110343	0	0	8135	543100	0	0
2024-09-09 20:44:47			0	38071	0	0	0	27854	26460	154408	27100	1076204	47079	110339	0	0	8135	542907	0	0
2024-09-09 20:45:47			0	38099	0	0	0	27854	26460	154308	26944	1076151	47079	110339	0	0	8137	541829	0	0
2024-09-09 20:46:47			0	38108	0	0	0	27849	26450	154400	27003	1076106	47078	110337	0	0	8137	541514	0	0
2024-09-09 20:47:47			0	38128	0	0	0	27833	26450	154264	26845	1076133	47078	110331	0	0	8139	540745	0	0
2024-09-09 20:48:47			0	38142	0	0	0	27831	26440	154084	27249	1076061	47066	110330	0	0	8139	540239	0	0
2024-09-09 20:49:47			0	38188	0	0	0	27831	26440	154048	26807	1076088	47077	110330	0	0	8142	538474	0	0
2024-09-09 20:50:47			0	38216	0	0	0	27833	26440	153964	27097	1076025	47066	110331	0	0	8144	537401	0	0
2024-09-09 20:51:47			0	38242	0	0	0	27841	26440	153948	27164	1076034	47066	110334	0	0	8145	536407	0	0
2024-09-09 20:52:47			0	38224	0	0	0	27836	26440	153952	27362	1076105	47077	110332	0	0	8144	537095	0	0
2024-09-09 20:53:47			0	38224	0	0	0	27838	26430	153904	27253	1076007	47075	110333	0	0	8144	537126	0	0
2024-09-09 20:54:47			0	38238	0	0	0	27836	26440	153916	27339	1075998	47077	110332	0	0	8145	536560	0	0
2024-09-09 20:55:47			0	38264	0	0	0	27841	26440	153776	27230	1076079	47087	110334	0	0	8146	535566	0	0
2024-09-09 20:56:47			0	38281	0	0	0	27833	26430	153768	27157	1076034	47064	110331	0	0	8147	534948	0	0
2024-09-09 20:57:47			0	38262	0	0	0	27818	26430	153824	27031	1076043	47065	110325	0	0	8147	535673	0	0
2024-09-09 20:58:47			0	38251	0	0	0	27828	26430	153844	27029	1076007	47075	110329	0	0	8146	536093	0	0
2024-09-09 20:59:47			0	38245	0	0	0	27823	26430	153924	26861	1075953	47064	110327	0	0	8145	536323	0	0
2024-09-09 21:00:47			0	38265	0	0	0	27815	26420	153860	27282	1075998	47085	110324	0	0	8147	535589	0	0
2024-09-09 21:01:47			0	38271	0	0	0	27820	26420	153764	27107	1075971	47075	110326	0	0	8147	535360	0	0
2024-09-09 21:02:47			0	38260	0	0	0	27812	26410	153840	26993	1075979	47063	110323	0	0	8146	535811	0	0
2024-09-09 21:03:47			0	38241	0	0	0	27820	26420	153908	27017	1075998	47075	110326	0	0	8145	536506	0	0
2024-09-09 21:04:47			0	38203	0	0	0	27815	26410	154124	26918	1075925	47074	110324	0	0	8143	537991	0	0
2024-09-09 21:05:47			0	38154	0	0	0	27815	26410	154220	26889	1075925	47084	110324	0	0	8140	539870	0	0
2024-09-09 21:06:47			0	38150	0	0	0	27818	26410	154296	27251	1075997	47083	110325	0	0	8140	540024	0	0
2024-09-09 21:07:47			0	38151	0	0	0	27807	26420	154236	26830	1075961	47096	110321	0	0	8140	539955	0	0
2024-09-09 21:08:47			0	38186	0	0	0	27805	26420	154168	27010	1075961	47084	110320	0	0	8142	538612	0	0
2024-09-09 21:09:47			0	38202	0	0	0	27784	26410	154020	27213	1075836	47083	110312	0	0	8144	538030	0	0
2024-09-09 21:10:47			0	38230	0	0	0	27794	26400	153844	27067	1075818	47072	110316	0	0	8145	536988	0	0
2024-09-09 21:11:47			0	38258	0	0	0	27799	26410	153920	27130	1075916	47073	110318	0	0	8147	535887	0	0
2024-09-09 21:12:47			0	38256	0	0	0	27789	26400	153844	26989	1075818	47061	110314	0	0	8147	535994	0	0
2024-09-09 21:13:47			0	38236	0	0	0	27786	26390	153812	27013	1075862	47083	110313	0	0	8145	536790	0	0
2024-09-09 21:14:47			0	38209	0	0	0	27792	26400	153928	27007	1075845	47083	110315	0	0	8144	537792	0	0
2024-09-09 21:15:47			0	38183	0	0	0	27794	26390	154016	26979	1075800	47071	110316	0	0	8142	538819	0	0
2024-09-09 21:16:47			0	38161	0	0	0	27784	26400	154080	26842	1075845	47061	110312	0	0	8141	539632	0	0
2024-09-09 21:17:47			0	38148	0	0	0	27776	26390	154308	26817	1075853	47082	110309	0	0	8140	540162	0	0
2024-09-09 21:18:47			0	38096	0	0	0	27781	26390	154352	26824	1075800	47071	110311	0	0	8137	542162	0	0
2024-09-09 21:19:47			0	38077	0	0	0	27768	26380	154512	27060	1075790	47060	110306	0	0	8136	542924	0	0
2024-09-09 21:20:47			0	38057	0	0	0	27779	26390	154560	27119	1075800	47082	110310	0	0	8135	543664	0	0
2024-09-09 21:21:47			0	38021	0	0	0	27784	26380	154651	27237	1075755	47081	110312	0	0	8133	545085	0	0
2024-09-09 21:22:47			0	38060	0	0	0	27776	26380	154628	26788	1075764	47082	110309	0	0	8135	543579	0	0
2024-09-09 21:23:47			0	38069	0	0	0	27779	26370	154640	26861	1075772	47069	110310	0	0	8136	543264	0	0
2024-09-09 21:24:47			0	38062	0	0	0	27786	26380	154496	26776	1075764	47071	110313	0	0	8135	543502	0	0
2024-09-09 21:25:47			0	38096	0	0	0	27771	26390	154580	26800	1075773	47082	110307	0	0	8138	542162	0	0
2024-09-09 21:26:47			0	38083	0	0	0	27771	26380	154620	26994	1075781	47059	110307	0	0	8137	542693	0	0
2024-09-09 21:27:47			0	38064	0	0	0	27768	26380	154720	27159	1075781	47081	110306	0	0	8136	543425	0	0
2024-09-09 21:28:47			0	38108	0	0	0	27781	26380	154496	27227	1075755	47081	110311	0	0	8138	541731	0	0
2024-09-09 21:29:47			0	38137	0	0	0	27792	26380	154328	26840	1075781	47081	110315	0	0	8140	540616	0	0
2024-09-09 21:30:47			0	38166	0	0	0	27781	26380	154256	27144	1075781	47081	110311	0	0	8141	539502	0	0
2024-09-09 21:31:47			0	38151	0	0	0	27771	26380	154308	27083	1075737	47071	110307	0	0	8141	540078	0	0
2024-09-09 21:32:47			0	38139	0	0	0	27766	26380	154340	27241	1075781	47092	110305	0	0	8140	540539	0	0
2024-09-09 21:33:47			0	38114	0	0	0	27768	26380	154336	27388	1075728	47070	110306	0	0	8139	541500	0	0
2024-09-09 21:34:47			0	38116	0	0	0	27761	26370	154312	27398	1075683	47091	110303	0	0	8139	541454	0	0
2024-09-09 21:35:47			0	38112	0	0	0	27761	26370	154520	27164	1075683	47069	110303	0	0	8139	541608	0	0
2024-09-09 21:36:47			0	38097	0	0	0	27761	26350	154480	27159	1075637	47079	110303	0	0	8138	542247	0	0
2024-09-09 21:37:47			0	38075	0	0	0	27750	26370	154568	27048	1075683	47080	110299	0	0	8137	543032	0	0
2024-09-09 21:38:47			0	38049	0	0	0	27748	26360	154652	27086	1075647	47069	110298	0	0	8135	544066	0	0
2024-09-09 21:39:47			0	38068	0	0	0	27748	26370	154688	26817	1075656	47091	110298	0	0	8136	543302	0	0
2024-09-09 21:40:47			0	38041	0	0	0	27745	26370	154720	27291	1075629	47069	110297	0	0	8135	544344	0	0
2024-09-09 21:41:47			0	38017	0	0	0	27737	26350	154803	27326	1075655	47067	110294	0	0	8133	545333	0	0
2024-09-09 21:42:47			0	37995	0	0	0	27735	26360	154851	27183	1075647	47069	110293	0	0	8132	546152	0	0
2024-09-09 21:43:47			0	38002	0	0	0	27724	26350	154799	27265	1075601	47078	110289	0	0	8133	545912	0	0
2024-09-09 21:44:47			0	38009	0	0	0	27727	26350	154707	27197	1075575	47078	110290	0	0	8133	545642	0	0
2024-09-09 21:45:47			0	38034	0	0	0	27729	26340	154752	27090	1075556	47077	110291	0	0	8134	544707	0	0
2024-09-09 21:46:47			0	38015	0	0	0	27745	26340	154655	27161	1075619	47055	110297	0	0	8133	545441	0	0
2024-09-09 21:47:47			0	38025	0	0	0	27729	26320	154787	27052	1075556	47065	110291	0	0	8134	545117	0	0
2024-09-09 21:48:47			0	37998	0	0	0	27732	26340	154867	27171	1075583	47077	110292	0	0	8132	546098	0	0
2024-09-09 21:49:47			0	38002	0	0	0	27745	26320	154771	27194	1075556	47065	110297	0	0	8132	546006	0	0
2024-09-09 21:50:47			0	38007	0	0	0	27740	26320	154871	27308	1075583	47076	110295	0	0	8133	545813	0	0
2024-09-09 21:51:47			0	38006	0	0	0	27732	26330	154739	26953	1075574	47087	110292	0	0	8133	545820	0	0
2024-09-09 21:52:47			0	38015	0	0	0	27732	26320	154827	27428	1075520	47064	110292	0	0	8133	545503	0	0
2024-09-09 21:53:47			0	38014	0	0	0	27750	26320	154715	27078	1075529	47065	110299	0	0	8133	545542	0	0
2024-09-09 21:54:47			0	38039	0	0	0	27740	26320	154684	27182	1075574	47075	110295	0	0	8134	544576	0	0
2024-09-09 21:55:47			0	38064	0	0	0	27763	26330	154728	27081	1075592	47086	110304	0	0	8136	543581	0	0
2024-09-09 21:56:47			0	38066	0	0	0	27755	26330	154476	27419	1075619	47076	110301	0	0	8136	543503	0	0
2024-09-09 21:57:47			0	38111	0	0	0	27779	26320	154404	27118	1075583	47076	110310	0	0	8138	541801	0	0
2024-09-09 21:58:47			0	38082	0	0	0	27753	26350	154464	27223	1075628	47089	110300	0	0	8137	542825	0	0
2024-09-09 21:59:47			0	38076	0	0	0	27753	26340	154560	27078	1075610	47077	110300	0	0	8136	543087	0	0
2024-09-09 22:00:47			0	38045	0	0	0	27742	26340	154652	27163	1075566	47067	110296	0	0	8135	544283	0	0
2024-09-09 22:01:47			0	38047	0	0	0	27737	26320	154684	27211	1075583	47053	110294	0	0	8135	544267	0	0
2024-09-09 22:02:47			0	38033	0	0	0	27753	26340	154744	27126	1075637	47087	110300	0	0	8134	544746	0	0
2024-09-09 22:03:47			0	38055	0	0	0	27755	26330	154664	27062	1075646	47076	110301	0	0	8135	543928	0	0
2024-09-09 22:04:47			0	38059	0	0	0	27737	26320	154732	27083	1075556	47076	110294	0	0	8136	543805	0	0
2024-09-09 22:05:47			0	38045	0	0	0	27737	26340	154668	26878	1075619	47067	110294	0	0	8135	544283	0	0
2024-09-09 22:06:47			0	38056	0	0	0	27758	26330	154648	27055	1075592	47065	110302	0	0	8135	543889	0	0
2024-09-09 22:07:47			0	38087	0	0	0	27740	26330	154616	27138	1075592	47076	110295	0	0	8137	542694	0	0
2024-09-09 22:08:47			0	38086	0	0	0	27732	26330	154512	27260	1075574	47066	110292	0	0	8137	542733	0	0
2024-09-09 22:09:47			0	38046	0	0	0	27735	26340	154600	27182	1075610	47066	110293	0	0	8135	544244	0	0
2024-09-09 22:10:47			0	38031	0	0	0	27729	26340	154616	26746	1075610	47066	110291	0	0	8134	544823	0	0
2024-09-09 22:11:47			0	38043	0	0	0	27724	26330	154664	27008	1075565	47076	110289	0	0	8135	544391	0	0
2024-09-09 22:12:47			0	38037	0	0	0	27737	26340	154748	27267	1075556	47077	110294	0	0	8134	544591	0	0
2024-09-09 22:13:47			0	38034	0	0	0	27740	26340	154804	27358	1075556	47077	110295	0	0	8134	544707	0	0
2024-09-09 22:14:47			0	38031	0	0	0	27745	26330	154716	27279	1075565	47076	110297	0	0	8134	544854	0	0
2024-09-09 22:15:47			0	38024	0	0	0	27740	26330	154823	27237	1075565	47076	110295	0	0	8134	545124	0	0
2024-09-09 22:16:47			0	38018	0	0	0	27727	26320	154827	27239	1075520	47075	110290	0	0	8133	545387	0	0
2024-09-09 22:17:47			0	38019	0	0	0	27727	26340	154804	26946	1075583	47077	110290	0	0	8134	545286	0	0
2024-09-09 22:18:47			0	38005	0	0	0	27732	26330	154859	26809	1075485	47076	110292	0	0	8133	545859	0	0
2024-09-09 22:19:47			0	38032	0	0	0	27750	26330	154696	26930	1075565	47076	110299	0	0	8134	544815	0	0
2024-09-09 22:20:47			0	38053	0	0	0	27750	26330	154652	27041	1075547	47087	110299	0	0	8135	544005	0	0
2024-09-09 22:21:47			0	38052	0	0	0	27753	26320	154624	27008	1075583	47065	110300	0	0	8135	544075	0	0
2024-09-09 22:22:47			0	38055	0	0	0	27753	26320	154656	27336	1075574	47064	110300	0	0	8135	543959	0	0
2024-09-09 22:23:47			0	38050	0	0	0	27745	26330	154672	27090	1075565	47086	110297	0	0	8135	544121	0	0
2024-09-09 22:24:47			0	38052	0	0	0	27758	26330	154644	27196	1075601	47077	110302	0	0	8135	544043	0	0
2024-09-09 22:25:47			0	38055	0	0	0	27750	26330	154652	26916	1075646	47086	110299	0	0	8135	543928	0	0
2024-09-09 22:26:47			0	38038	0	0	0	27758	26340	154560	26856	1075646	47089	110302	0	0	8134	544553	0	0
2024-09-09 22:27:47			0	38057	0	0	0	27748	26330	154616	27074	1075619	47065	110298	0	0	8135	543851	0	0
2024-09-09 22:28:47			0	38042	0	0	0	27737	26330	154660	27170	1075592	47076	110294	0	0	8135	544429	0	0
2024-09-09 22:29:47			0	38016	0	0	0	27724	26330	154743	26913	1075565	47076	110289	0	0	8133	545433	0	0
2024-09-09 22:30:47			0	38014	0	0	0	27716	26330	154823	27050	1075619	47065	110286	0	0	8133	545511	0	0
2024-09-09 22:31:47			0	37988	0	0	0	27724	26340	154915	27274	1075476	47077	110289	0	0	8132	546485	0	0
2024-09-09 22:32:47			0	37991	0	0	0	27727	26330	154971	27092	1075511	47053	110290	0	0	8132	546400	0	0
2024-09-09 22:33:47			0	37977	0	0	0	27727	26320	154999	27041	1075493	47064	110290	0	0	8131	546973	0	0
2024-09-09 22:34:47			0	37968	0	0	0	27722	26330	155075	26857	1075511	47065	110288	0	0	8131	547290	0	0
2024-09-09 22:35:47			0	37974	0	0	0	27719	26330	154975	26880	1075538	47065	110287	0	0	8131	547058	0	0
2024-09-09 22:36:47			0	37936	0	0	0	27698	26320	155123	27187	1075466	47064	110279	0	0	8129	548562	0	0
2024-09-09 22:37:47			0	37914	0	0	0	27706	26310	155111	26805	1075457	47064	110282	0	0	8128	549447	0	0
2024-09-09 22:38:47			0	37904	0	0	0	27709	26320	155159	27118	1075493	47085	110283	0	0	8127	549804	0	0
2024-09-09 22:39:47			0	37913	0	0	0	27714	26310	155231	26911	1075502	47084	110285	0	0	8128	549486	0	0
2024-09-09 22:40:47			0	37913	0	0	0	27709	26320	155187	27201	1075493	47075	110283	0	0	8128	549454	0	0
2024-09-09 22:41:47			0	37925	0	0	0	27711	26310	155151	27074	1075457	47075	110284	0	0	8128	549020	0	0
2024-09-09 22:42:47			0	37945	0	0	0	27711	26310	155163	27048	1075475	47063	110284	0	0	8129	548244	0	0
2024-09-09 22:43:47			0	37926	0	0	0	27696	26310	155051	27284	1075484	47064	110278	0	0	8129	548981	0	0
2024-09-09 22:44:47			0	37920	0	0	0	27703	26300	155203	26759	1075439	47062	110281	0	0	8128	549245	0	0
2024-09-09 22:45:47			0	37890	0	0	0	27706	26300	155315	27208	1075350	47073	110282	0	0	8126	550410	0	0
2024-09-09 22:46:47			0	37921	0	0	0	27706	26310	155247	27060	1075457	47052	110282	0	0	8128	549175	0	0
2024-09-09 22:47:47			0	37928	0	0	0	27714	26300	155131	27064	1075484	47062	110285	0	0	8128	548935	0	0
2024-09-09 22:48:47			0	37924	0	0	0	27696	26300	155159	26741	1075430	47062	110278	0	0	8128	549090	0	0
2024-09-09 22:49:47			0	37922	0	0	0	27696	26300	155111	27038	1075403	47073	110278	0	0	8128	549168	0	0
2024-09-09 22:50:47			0	37913	0	0	0	27690	26300	155339	27201	1075386	47062	110276	0	0	8128	549517	0	0
2024-09-09 22:51:47			0	37900	0	0	0	27685	26300	155207	27078	1075403	47062	110274	0	0	8127	550022	0	0
2024-09-09 22:52:47			0	37902	0	0	0	27683	26290	155323	27067	1075368	47073	110273	0	0	8127	549976	0	0
2024-09-09 22:53:47			0	37883	0	0	0	27680	26280	155335	27092	1075403	47071	110272	0	0	8126	550746	0	0
2024-09-09 22:54:47			0	37875	0	0	0	27680	26290	155399	26960	1075358	47072	110272	0	0	8126	551025	0	0
2024-09-09 22:55:47			0	37865	0	0	0	27670	26290	155511	27033	1075341	47073	110268	0	0	8125	551414	0	0
2024-09-09 22:56:47			0	37862	0	0	0	27659	26280	155439	27199	1075313	47060	110264	0	0	8125	551562	0	0
2024-09-09 22:57:47			0	37852	0	0	0	27670	26280	155391	27130	1075242	47048	110268	0	0	8125	551952	0	0
2024-09-09 22:58:47			0	37866	0	0	0	27677	26290	155415	27163	1075304	47061	110271	0	0	8125	551375	0	0
2024-09-09 22:59:47			0	37849	0	0	0	27662	26280	155435	27254	1075313	47060	110265	0	0	8125	552069	0	0
2024-09-09 23:00:47			0	37862	0	0	0	27664	26270	155547	27147	1075304	47060	110266	0	0	8125	551594	0	0
2024-09-09 23:01:47			0	37853	0	0	0	27677	26270	155451	26920	1075250	47060	110271	0	0	8125	551944	0	0
2024-09-09 23:02:47			0	37867	0	0	0	27680	26280	155387	27059	1075295	47071	110272	0	0	8125	551368	0	0
2024-09-09 23:03:47			0	37894	0	0	0	27667	26270	155379	26767	1075250	47071	110267	0	0	8127	550349	0	0
2024-09-09 23:04:47			0	37884	0	0	0	27667	26280	155311	27005	1075313	47071	110267	0	0	8127	550707	0	0
2024-09-09 23:05:47			0	37885	0	0	0	27664	26270	155331	26908	1075223	47060	110266	0	0	8127	550699	0	0
2024-09-09 23:06:47			0	37900	0	0	0	27662	26270	155275	26687	1075250	47071	110265	0	0	8128	550116	0	0
2024-09-09 23:07:47			0	37895	0	0	0	27664	26270	155399	26785	1075223	47071	110266	0	0	8127	550310	0	0
2024-09-09 23:08:47			0	37870	0	0	0	27657	26270	155531	27161	1075250	47071	110263	0	0	8126	551283	0	0
2024-09-09 23:09:47			0	37855	0	0	0	27638	26270	155499	26892	1075214	47070	110256	0	0	8125	551866	0	0
2024-09-09 23:10:47			0	37837	0	0	0	27659	26270	155627	27258	1075188	47059	110264	0	0	8124	552567	0	0
2024-09-09 23:11:47			0	37844	0	0	0	27659	26270	155587	27128	1075214	47037	110264	0	0	8124	552295	0	0
2024-09-09 23:12:47			0	37859	0	0	0	27662	26270	155535	27308	1075188	47059	110265	0	0	8125	551711	0	0
2024-09-09 23:13:47			0	37854	0	0	0	27651	26260	155555	27007	1075232	47069	110261	0	0	8125	551937	0	0
2024-09-09 23:14:47			0	37833	0	0	0	27636	26260	155679	27034	1075205	47058	110255	0	0	8124	552755	0	0
2024-09-09 23:15:47			0	37788	0	0	0	27641	26270	155823	26696	1075188	47047	110257	0	0	8121	554479	0	0
2024-09-09 23:16:47			0	37789	0	0	0	27636	26260	155799	26902	1075205	47058	110255	0	0	8121	554472	0	0
2024-09-09 23:17:47			0	37780	0	0	0	27651	26250	155855	27098	1075125	47045	110261	0	0	8121	554855	0	0
2024-09-09 23:18:47			0	37774	0	0	0	27633	26250	155931	27111	1075178	47057	110254	0	0	8121	555089	0	0
2024-09-09 23:19:47			0	37774	0	0	0	27633	26250	155907	27128	1075125	47068	110254	0	0	8121	555089	0	0
2024-09-09 23:20:47			0	37777	0	0	0	27636	26250	155923	26871	1075205	47057	110255	0	0	8121	554972	0	0
2024-09-09 23:21:47			0	37780	0	0	0	27651	26240	155891	27178	1075115	47078	110261	0	0	8121	554887	0	0
2024-09-09 23:22:47			0	37805	0	0	0	27649	26250	155731	27201	1075151	47068	110260	0	0	8122	553879	0	0
2024-09-09 23:23:47			0	37853	0	0	0	27651	26250	155647	27041	1075160	47057	110261	0	0	8125	552007	0	0
2024-09-09 23:24:47			0	37879	0	0	0	27654	26250	155491	27093	1075205	47057	110262	0	0	8126	550995	0	0
2024-09-09 23:25:47			0	37874	0	0	0	27659	26240	155555	27317	1075133	47055	110264	0	0	8126	551221	0	0
2024-09-09 23:26:47			0	37899	0	0	0	27659	26240	155503	27310	1075196	47067	110264	0	0	8127	550249	0	0
2024-09-09 23:27:47			0	37883	0	0	0	27662	26250	155439	27033	1075232	47068	110265	0	0	8126	550840	0	0
2024-09-09 23:28:47			0	37898	0	0	0	27662	26250	155395	27038	1075214	47068	110265	0	0	8127	550257	0	0
2024-09-09 23:29:47			0	37911	0	0	0	27664	26260	155511	27182	1075169	47069	110266	0	0	8128	549720	0	0
2024-09-09 23:30:47			0	37912	0	0	0	27667	26250	155347	27008	1075178	47068	110267	0	0	8128	549713	0	0
2024-09-09 23:31:47			0	37908	0	0	0	27651	26240	155451	27013	1075169	47067	110261	0	0	8128	549900	0	0
2024-09-09 23:32:47			0	37884	0	0	0	27649	26250	155459	27156	1075214	47057	110260	0	0	8127	550801	0	0
2024-09-09 23:33:47			0	37872	0	0	0	27633	26240	155507	27324	1075142	47056	110254	0	0	8126	551299	0	0
2024-09-09 23:34:47			0	37863	0	0	0	27638	26250	155459	27298	1075187	47057	110256	0	0	8126	551618	0	0
2024-09-09 23:35:47			0	37846	0	0	0	27649	26250	155627	26915	1075160	47079	110260	0	0	8125	552280	0	0
2024-09-09 23:36:47			0	37834	0	0	0	27641	26240	155683	27483	1075115	47044	110257	0	0	8124	552779	0	0
2024-09-09 23:37:47			0	37844	0	0	0	27636	26250	155731	27140	1075125	47057	110255	0	0	8125	552358	0	0
2024-09-09 23:38:47			0	37850	0	0	0	27633	26240	155639	27168	1075187	47066	110254	0	0	8125	552156	0	0
2024-09-09 23:39:47			0	37826	0	0	0	27618	26230	155723	27322	1075097	47066	110248	0	0	8124	553123	0	0
2024-09-09 23:40:47			0	37827	0	0	0	27610	26240	155755	27171	1075089	47067	110245	0	0	8124	553052	0	0
2024-09-09 23:41:47			0	37782	0	0	0	27618	26240	155799	27140	1075062	47078	110248	0	0	8121	554808	0	0
2024-09-09 23:42:47			0	37767	0	0	0	27615	26230	155867	27000	1075044	47055	110247	0	0	8120	555426	0	0
2024-09-09 23:43:47			0	37769	0	0	0	27620	26230	156011	26998	1075097	47055	110249	0	0	8120	555348	0	0
2024-09-09 23:44:47			0	37776	0	0	0	27623	26230	155923	26880	1075017	47066	110250	0	0	8121	555075	0	0
2024-09-09 23:45:47			0	37767	0	0	0	27623	26220	155915	27331	1075026	47065	110250	0	0	8120	555458	0	0
2024-09-09 23:46:47			0	37783	0	0	0	27615	26230	155939	26748	1075061	47066	110247	0	0	8121	554801	0	0
2024-09-09 23:47:47			0	37751	0	0	0	27607	26220	155931	27088	1074999	47054	110244	0	0	8120	556084	0	0
2024-09-09 23:48:47			0	37771	0	0	0	27618	26230	155935	27175	1075061	47055	110248	0	0	8121	555270	0	0
2024-09-09 23:49:47			0	37753	0	0	0	27612	26220	155927	27112	1074999	47054	110246	0	0	8120	556006	0	0
2024-09-09 23:50:47			0	37739	0	0	0	27602	26230	155999	27279	1075088	47043	110242	0	0	8119	556522	0	0
2024-09-09 23:51:47			0	37748	0	0	0	27625	26220	156107	26859	1075016	47075	110251	0	0	8119	556201	0	0
2024-09-09 23:52:47			0	37751	0	0	0	27623	26220	155971	27199	1075026	47054	110250	0	0	8119	556084	0	0
2024-09-09 23:53:47			0	37749	0	0	0	27641	26220	156043	27343	1075026	47054	110257	0	0	8119	556162	0	0
2024-09-09 23:54:47			0	37746	0	0	0	27625	26220	155963	27362	1075016	47064	110251	0	0	8119	556280	0	0
2024-09-09 23:55:47			0	37749	0	0	0	27618	26230	156011	27343	1075097	47055	110248	0	0	8119	556130	0	0
2024-09-09 23:56:47			0	37702	0	0	0	27610	26220	156115	27322	1074999	47054	110245	0	0	8117	558003	0	0
2024-09-09 23:57:47			0	37705	0	0	0	27615	26220	156159	27114	1074972	47054	110247	0	0	8117	557886	0	0
2024-09-09 23:58:47			0	37688	0	0	0	27623	26220	156207	27194	1075052	47065	110250	0	0	8116	558553	0	0
2024-09-09 23:59:47			0	37688	0	0	0	27615	26220	156251	27338	1074999	47065	110247	0	0	8116	558553	0	0
2024-09-10 00:00:47			0	37680	0	0	0	27623	26230	156327	27296	1075061	47066	110250	0	0	8115	558835	0	0
2024-09-10 00:01:47			0	37685	0	0	0	27628	26220	156239	27072	1075016	47064	110252	0	0	8115	558670	0	0
2024-09-10 00:02:47			0	37723	0	0	0	27633	26220	156223	27124	1075052	47054	110254	0	0	8118	557180	0	0
2024-09-10 00:03:47			0	37720	0	0	0	27625	26230	156223	27319	1075061	47066	110251	0	0	8118	557266	0	0
2024-09-10 00:04:47			0	37694	0	0	0	27620	26220	156331	27050	1075043	47075	110249	0	0	8116	558317	0	0
2024-09-10 00:05:47			0	37681	0	0	0	27628	26220	156235	27286	1075052	47065	110252	0	0	8115	558827	0	0
2024-09-10 00:06:47			0	37677	0	0	0	27620	26220	156279	27300	1075052	47054	110249	0	0	8115	558984	0	0
2024-09-10 00:07:47			0	37662	0	0	0	27610	26210	156335	27171	1075007	47053	110245	0	0	8114	559605	0	0
2024-09-10 00:08:47			0	37649	0	0	0	27602	26220	156403	27287	1075016	47064	110242	0	0	8114	560084	0	0
2024-09-10 00:09:47			0	37623	0	0	0	27602	26220	156463	27017	1074963	47064	110242	0	0	8112	561107	0	0
2024-09-10 00:10:47			0	37615	0	0	0	27592	26220	156507	26882	1075016	47053	110238	0	0	8112	561422	0	0
2024-09-10 00:11:47			0	37612	0	0	0	27605	26220	156627	27064	1074990	47053	110243	0	0	8112	561540	0	0
2024-09-10 00:12:47			0	37598	0	0	0	27597	26200	156647	26908	1074989	47041	110240	0	0	8111	562156	0	0
2024-09-10 00:13:47			0	37593	0	0	0	27612	26210	156651	26918	1074981	47053	110246	0	0	8110	562321	0	0
2024-09-10 00:14:47			0	37592	0	0	0	27610	26210	156587	27064	1074971	47053	110245	0	0	8110	562360	0	0
2024-09-10 00:15:47			0	37594	0	0	0	27610	26220	156607	27095	1074990	47053	110245	0	0	8110	562249	0	0
2024-09-10 00:16:47			0	37587	0	0	0	27602	26210	156507	27126	1074981	47064	110242	0	0	8110	562557	0	0
2024-09-10 00:17:47			0	37599	0	0	0	27594	26210	156627	27039	1074954	47053	110239	0	0	8111	562084	0	0
2024-09-10 00:18:47			0	37599	0	0	0	27586	26210	156635	27348	1074918	47041	110236	0	0	8111	562084	0	0
2024-09-10 00:19:47			0	37579	0	0	0	27592	26210	156723	27213	1074918	47053	110238	0	0	8110	562873	0	0
2024-09-10 00:20:47			0	37595	0	0	0	27594	26210	156715	26878	1074927	47053	110239	0	0	8111	562242	0	0
2024-09-10 00:21:47			0	37560	0	0	0	27584	26200	156675	26873	1074909	47041	110235	0	0	8109	563654	0	0
2024-09-10 00:22:47			0	37579	0	0	0	27579	26200	156727	27142	1074909	47074	110233	0	0	8110	562905	0	0
2024-09-10 00:23:47			0	37562	0	0	0	27597	26200	156735	27228	1074873	47051	110240	0	0	8109	563575	0	0
2024-09-10 00:24:47			0	37575	0	0	0	27594	26200	156643	27249	1074882	47063	110239	0	0	8109	563062	0	0
2024-09-10 00:25:47			0	37569	0	0	0	27592	26190	156799	27020	1074810	47062	110238	0	0	8109	563331	0	0
2024-09-10 00:26:47			0	37545	0	0	0	27592	26190	156903	27144	1074864	47040	110238	0	0	8108	564279	0	0
2024-09-10 00:27:47			0	37548	0	0	0	27594	26190	156811	27034	1074864	47051	110239	0	0	8108	564160	0	0
2024-09-10 00:28:47			0	37536	0	0	0	27594	26200	156831	27177	1074873	47073	110239	0	0	8107	564602	0	0
2024-09-10 00:29:47			0	37550	0	0	0	27594	26190	156795	27076	1074855	47062	110239	0	0	8108	564081	0	0
2024-09-10 00:30:47			0	37556	0	0	0	27586	26200	156755	27118	1074926	47040	110236	0	0	8108	563812	0	0
2024-09-10 00:31:47			0	37543	0	0	0	27586	26190	156767	27255	1074837	47051	110236	0	0	8108	564358	0	0
2024-09-10 00:32:47			0	37542	0	0	0	27586	26190	156811	27353	1074855	47051	110236	0	0	8108	564397	0	0
2024-09-10 00:33:47			0	37540	0	0	0	27594	26190	156831	27050	1074837	47051	110239	0	0	8107	564476	0	0
2024-09-10 00:34:47			0	37525	0	0	0	27579	26190	156795	27227	1074810	47051	110233	0	0	8107	565069	0	0
2024-09-10 00:35:47			0	37525	0	0	0	27576	26190	156855	27383	1074837	47051	110232	0	0	8107	565069	0	0
2024-09-10 00:36:47			0	37501	0	0	0	27584	26180	156991	27287	1074819	47061	110235	0	0	8105	566051	0	0
2024-09-10 00:37:47			0	37503	0	0	0	27584	26190	157099	27300	1074864	47040	110235	0	0	8105	565940	0	0
2024-09-10 00:38:47			0	37490	0	0	0	27568	26180	157095	27156	1074819	47050	110229	0	0	8105	566486	0	0
2024-09-10 00:39:47			0	37461	0	0	0	27579	26180	157143	27145	1074765	47050	110233	0	0	8103	567636	0	0
2024-09-10 00:40:47			0	37470	0	0	0	27571	26180	157171	27341	1074846	47061	110230	0	0	8104	567279	0	0
2024-09-10 00:41:47			0	37450	0	0	0	27563	26190	157159	27194	1074828	47051	110227	0	0	8103	568040	0	0
2024-09-10 00:42:47			0	37452	0	0	0	27558	26190	157295	27052	1074801	47062	110225	0	0	8103	567960	0	0
2024-09-10 00:43:47			0	37437	0	0	0	27550	26170	157359	27267	1074774	47047	110222	0	0	8102	568621	0	0
2024-09-10 00:44:47			0	37415	0	0	0	27542	26180	157435	27065	1074729	47049	110219	0	0	8101	569462	0	0
2024-09-10 00:45:47			0	37406	0	0	0	27553	26170	157507	27119	1074684	47059	110223	0	0	8100	569852	0	0
2024-09-10 00:46:47			0	37380	0	0	0	27553	26170	157523	27041	1074684	47047	110223	0	0	8099	570886	0	0
2024-09-10 00:47:47			0	37370	0	0	0	27550	26160	157515	27060	1074648	47037	110222	0	0	8098	571317	0	0
2024-09-10 00:48:47			0	37397	0	0	0	27545	26160	157623	27189	1074729	47047	110220	0	0	8100	570243	0	0
2024-09-10 00:49:47			0	37396	0	0	0	27545	26160	157535	26852	1074639	47046	110220	0	0	8100	570282	0	0
2024-09-10 00:50:47			0	37391	0	0	0	27537	26150	157419	27093	1074657	47045	110217	0	0	8099	570514	0	0
2024-09-10 00:51:47			0	37401	0	0	0	27537	26150	157499	27230	1074657	47035	110217	0	0	8100	570116	0	0
2024-09-10 00:52:47			0	37390	0	0	0	27537	26160	157491	27012	1074639	47058	110217	0	0	8099	570521	0	0
2024-09-10 00:53:47			0	37394	0	0	0	27540	26150	157459	27159	1074648	47057	110218	0	0	8100	570394	0	0
2024-09-10 00:54:47			0	37393	0	0	0	27542	26150	157591	27150	1074621	47057	110219	0	0	8099	570434	0	0
2024-09-10 00:55:47			0	37399	0	0	0	27537	26150	157475	27183	1074576	47057	110217	0	0	8100	570196	0	0
2024-09-10 00:56:47			0	37414	0	0	0	27548	26150	157483	27530	1074603	47057	110221	0	0	8101	569599	0	0
2024-09-10 00:57:47			0	37428	0	0	0	27537	26140	157303	27338	1074639	47068	110217	0	0	8102	569075	0	0
2024-09-10 00:58:47			0	37434	0	0	0	27548	26150	157371	27161	1074567	47057	110221	0	0	8102	568805	0	0
2024-09-10 00:59:47			0	37419	0	0	0	27545	26150	157407	27341	1074621	47045	110220	0	0	8101	569401	0	0
2024-09-10 01:00:47			0	37423	0	0	0	27553	26140	157399	26838	1074522	47045	110223	0	0	8101	569274	0	0
2024-09-10 01:01:47			0	37413	0	0	0	27553	26150	157339	26864	1074675	47045	110223	0	0	8100	569639	0	0
2024-09-10 01:02:47			0	37434	0	0	0	27529	26150	157371	26987	1074567	47057	110214	0	0	8102	568805	0	0
2024-09-10 01:03:47			0	37423	0	0	0	27545	26140	157287	26915	1074585	47045	110220	0	0	8101	569274	0	0
2024-09-10 01:04:47			0	37443	0	0	0	27553	26150	157327	26838	1074567	47068	110223	0	0	8102	568447	0	0
2024-09-10 01:05:47			0	37424	0	0	0	27548	26150	157335	27157	1074603	47057	110221	0	0	8101	569202	0	0
2024-09-10 01:06:47			0	37428	0	0	0	27553	26150	157379	27064	1074701	47057	110223	0	0	8101	569043	0	0
2024-09-10 01:07:47			0	37405	0	0	0	27548	26140	157515	27109	1074558	47045	110221	0	0	8100	569990	0	0
2024-09-10 01:08:47			0	37407	0	0	0	27558	26140	157387	27275	1074612	47068	110225	0	0	8100	569910	0	0
2024-09-10 01:09:47			0	37421	0	0	0	27563	26160	157503	26906	1074666	47058	110227	0	0	8101	569288	0	0
2024-09-10 01:10:47			0	37410	0	0	0	27561	26140	157467	27374	1074603	47056	110226	0	0	8100	569791	0	0
2024-09-10 01:11:47			0	37411	0	0	0	27553	26150	157475	27346	1074621	47057	110223	0	0	8100	569719	0	0
2024-09-10 01:12:47			0	37390	0	0	0	27555	26140	157447	27306	1074665	47068	110224	0	0	8099	570586	0	0
2024-09-10 01:13:47			0	37378	0	0	0	27555	26140	157547	27381	1074612	47068	110224	0	0	8098	571064	0	0
2024-09-10 01:14:47			0	37390	0	0	0	27545	26160	157595	26901	1074639	47046	110220	0	0	8099	570521	0	0
2024-09-10 01:15:47			0	37359	0	0	0	27532	26130	157607	27203	1074540	47043	110215	0	0	8098	571853	0	0
2024-09-10 01:16:47			0	37362	0	0	0	27524	26150	157707	27163	1074567	47057	110212	0	0	8098	571668	0	0
2024-09-10 01:17:47			0	37375	0	0	0	27540	26150	157595	27488	1074621	47045	110218	0	0	8098	571151	0	0
2024-09-10 01:18:47			0	37361	0	0	0	27527	26130	157711	27287	1074540	47043	110213	0	0	8098	571774	0	0
2024-09-10 01:19:47			0	37363	0	0	0	27542	26140	157707	27429	1074585	47035	110219	0	0	8098	571661	0	0
2024-09-10 01:20:47			0	37350	0	0	0	27524	26140	157679	27128	1074585	47045	110212	0	0	8097	572179	0	0
2024-09-10 01:21:47			0	37361	0	0	0	27529	26140	157835	27119	1074495	47045	110214	0	0	8098	571741	0	0
2024-09-10 01:22:47			0	37353	0	0	0	27537	26130	157703	26795	1074540	47033	110217	0	0	8097	572092	0	0
2024-09-10 01:23:47			0	37353	0	0	0	27522	26130	157715	26850	1074540	47043	110211	0	0	8097	572092	0	0
2024-09-10 01:24:47			0	37321	0	0	0	27514	26120	157902	27317	1074549	47043	110208	0	0	8096	573402	0	0
2024-09-10 01:25:47			0	37307	0	0	0	27506	26130	157946	27177	1074486	47055	110205	0	0	8095	573928	0	0
2024-09-10 01:26:47			0	37274	0	0	0	27483	26120	157978	27164	1074468	47055	110196	0	0	8093	575280	0	0
2024-09-10 01:27:47			0	37256	0	0	0	27485	26130	158106	27033	1074504	47043	110197	0	0	8092	575968	0	0
2024-09-10 01:28:47			0	37232	0	0	0	27493	26120	158190	27130	1074432	47032	110200	0	0	8091	576962	0	0
2024-09-10 01:29:47			0	37225	0	0	0	27485	26110	158146	27326	1074450	47041	110197	0	0	8090	577276	0	0
2024-09-10 01:30:47			0	37245	0	0	0	27485	26120	158222	26837	1074432	47042	110197	0	0	8092	576441	0	0
2024-09-10 01:31:47			0	37240	0	0	0	27485	26110	158166	27274	1074387	47041	110197	0	0	8091	576674	0	0
2024-09-10 01:32:47			0	37233	0	0	0	27483	26100	158246	27124	1074351	47041	110196	0	0	8091	576988	0	0
2024-09-10 01:33:47			0	37230	0	0	0	27480	26110	158202	27303	1074414	47041	110195	0	0	8091	577075	0	0
2024-09-10 01:34:47			0	37221	0	0	0	27472	26100	158250	27043	1074289	47041	110192	0	0	8090	577469	0	0
2024-09-10 01:35:47			0	37239	0	0	0	27485	26090	158190	26890	1074271	47039	110197	0	0	8091	576780	0	0
2024-09-10 01:36:47			0	37251	0	0	0	27477	26100	158138	26736	1074351	47041	110194	0	0	8092	576267	0	0
2024-09-10 01:37:47			0	37283	0	0	0	27472	26100	158186	27180	1074315	47041	110192	0	0	8094	574986	0	0
2024-09-10 01:38:47			0	37266	0	0	0	27475	26090	158134	26958	1074324	47039	110193	0	0	8093	575699	0	0
2024-09-10 01:39:47			0	37267	0	0	0	27459	26090	158102	27149	1074378	47039	110187	0	0	8093	575659	0	0
2024-09-10 01:40:47			0	37270	0	0	0	27464	26090	158082	27170	1074324	47050	110189	0	0	8093	575539	0	0
2024-09-10 01:41:47			0	37263	0	0	0	27454	26070	158114	26963	1074190	47038	110185	0	0	8093	575885	0	0
2024-09-10 01:42:47			0	37252	0	0	0	27451	26080	158154	26915	1074288	47050	110184	0	0	8092	576292	0	0
2024-09-10 01:43:47			0	37234	0	0	0	27464	26090	158230	27133	1074271	47039	110189	0	0	8091	576981	0	0
2024-09-10 01:44:47			0	37230	0	0	0	27470	26090	158218	27007	1074217	47050	110191	0	0	8091	577141	0	0
2024-09-10 01:45:47			0	37266	0	0	0	27459	26080	158154	26715	1074252	47039	110187	0	0	8093	575732	0	0
2024-09-10 01:46:47			0	37239	0	0	0	27462	26080	158134	26755	1074154	47050	110188	0	0	8091	576813	0	0
2024-09-10 01:47:47			0	37250	0	0	0	27451	26080	158214	27232	1074252	47050	110184	0	0	8092	576372	0	0
2024-09-10 01:48:47			0	37257	0	0	0	27449	26070	158114	26916	1074190	47038	110183	0	0	8093	576125	0	0
2024-09-10 01:49:47			0	37244	0	0	0	27449	26050	158190	27003	1074163	47048	110183	0	0	8092	576712	0	0
2024-09-10 01:50:47			0	37211	0	0	0	27444	26070	158378	27241	1074163	47038	110181	0	0	8090	577969	0	0
2024-09-10 01:51:47			0	37220	0	0	0	27436	26070	158370	26948	1074181	47048	110178	0	0	8091	577608	0	0
2024-09-10 01:52:47			0	37213	0	0	0	27441	26060	158442	27161	1074198	47037	110180	0	0	8090	577922	0	0
2024-09-10 01:53:47			0	37179	0	0	0	27433	26050	158478	27105	1074153	47036	110177	0	0	8088	579321	0	0
2024-09-10 01:54:47			0	37136	0	0	0	27428	26050	158670	27287	1074109	47037	110175	0	0	8086	581051	0	0
2024-09-10 01:55:47			0	37086	0	0	0	27423	26050	158822	27081	1074100	47036	110173	0	0	8083	583068	0	0
2024-09-10 01:56:47			0	37069	0	0	0	27420	26040	158790	27124	1074055	47034	110172	0	0	8082	583787	0	0
2024-09-10 01:57:47			0	37076	0	0	0	27423	26030	158890	27150	1074019	47023	110173	0	0	8082	583538	0	0
2024-09-10 01:58:47			0	37110	0	0	0	27433	26040	158798	27118	1074108	47045	110177	0	0	8084	582132	0	0
2024-09-10 01:59:47			0	37179	0	0	0	27454	26030	158546	27012	1074036	47045	110185	0	0	8088	579387	0	0
2024-09-10 02:00:47			0	37254	0	0	0	27436	26030	158250	27102	1074072	47045	110178	0	0	8093	576377	0	0
2024-09-10 02:01:47			0	37299	0	0	0	27438	26040	158026	27053	1074055	47045	110179	0	0	8095	574543	0	0
2024-09-10 02:02:47			0	37346	0	0	0	27436	26040	157931	26927	1074081	47045	110178	0	0	8098	572665	0	0
2024-09-10 02:03:47			0	37320	0	0	0	27436	26030	157927	26793	1074099	47034	110178	0	0	8096	573736	0	0
2024-09-10 02:04:47			0	37327	0	0	0	27431	26030	157895	26916	1074072	47045	110176	0	0	8097	573457	0	0
2024-09-10 02:05:47			0	37309	0	0	0	27428	26030	157890	26875	1074072	47045	110175	0	0	8096	574176	0	0
2024-09-10 02:06:47			0	37333	0	0	0	27433	26040	157827	26953	1074028	47045	110177	0	0	8097	573184	0	0
2024-09-10 02:07:47			0	37301	0	0	0	27431	26030	157930	26897	1073992	47034	110176	0	0	8095	574496	0	0
2024-09-10 02:08:47			0	37323	0	0	0	27425	26020	157995	27159	1074072	47032	110174	0	0	8097	573649	0	0
2024-09-10 02:09:47			0	37307	0	0	0	27423	26030	158022	27176	1074036	47056	110173	0	0	8096	574256	0	0
2024-09-10 02:10:47			0	37300	0	0	0	27420	26030	158054	27211	1074036	47034	110172	0	0	8096	574536	0	0
2024-09-10 02:11:47			0	37289	0	0	0	27420	26030	158014	26634	1073983	47034	110172	0	0	8095	574975	0	0
2024-09-10 02:12:47			0	37281	0	0	0	27415	26030	158134	27284	1073983	47034	110170	0	0	8094	575296	0	0
2024-09-10 02:13:47			0	37267	0	0	0	27425	26010	158150	27268	1073946	47043	110174	0	0	8093	575922	0	0
2024-09-10 02:14:47			0	37253	0	0	0	27418	26020	158226	26925	1074001	47044	110171	0	0	8093	576450	0	0
2024-09-10 02:15:47			0	37244	0	0	0	27420	26030	158298	26941	1074036	47045	110172	0	0	8092	576777	0	0
2024-09-10 02:16:47			0	37249	0	0	0	27407	26010	158350	27093	1073920	47032	110167	0	0	8093	576643	0	0
2024-09-10 02:17:47			0	37238	0	0	0	27407	26020	158338	27057	1074018	47032	110167	0	0	8092	577051	0	0
2024-09-10 02:18:47			0	37244	0	0	0	27389	26010	158402	27267	1073956	47043	110160	0	0	8093	576843	0	0
2024-09-10 02:19:47			0	37243	0	0	0	27381	26020	158382	27015	1073911	47032	110157	0	0	8093	576850	0	0
2024-09-10 02:20:47			0	37237	0	0	0	27373	26000	158374	27060	1073937	47042	110154	0	0	8092	577157	0	0
2024-09-10 02:21:47			0	37196	0	0	0	27389	26000	158426	27274	1073884	47031	110160	0	0	8090	578803	0	0
2024-09-10 02:22:47			0	37171	0	0	0	27392	26000	158562	27369	1073928	47030	110161	0	0	8088	579808	0	0
2024-09-10 02:23:47			0	37153	0	0	0	27379	25990	158630	27100	1073866	47019	110156	0	0	8087	580565	0	0
2024-09-10 02:24:47			0	37131	0	0	0	27376	25990	158758	27281	1073803	47030	110155	0	0	8086	581451	0	0
2024-09-10 02:25:47			0	37132	0	0	0	27386	25980	158686	27135	1073848	47018	110159	0	0	8086	581444	0	0
2024-09-10 02:26:47			0	37137	0	0	0	27368	25990	158742	27365	1073803	47030	110152	0	0	8087	581210	0	0
2024-09-10 02:27:47			0	37153	0	0	0	27371	25990	158722	27220	1073749	47041	110153	0	0	8088	580565	0	0
2024-09-10 02:28:47			0	37132	0	0	0	27366	25990	158746	27157	1073696	47030	110151	0	0	8086	581411	0	0
2024-09-10 02:29:47			0	37150	0	0	0	27366	25970	158770	27275	1073722	47028	110151	0	0	8087	580752	0	0
2024-09-10 02:30:47			0	37163	0	0	0	27363	25970	158726	27192	1073749	47028	110150	0	0	8088	580229	0	0
2024-09-10 02:31:47			0	37169	0	0	0	27366	25970	158650	27279	1073767	47016	110151	0	0	8088	579987	0	0
2024-09-10 02:32:47			0	37207	0	0	0	27368	25970	158546	27085	1073749	47028	110152	0	0	8091	578460	0	0
2024-09-10 02:33:47			0	37225	0	0	0	27371	25960	158510	27190	1073758	47027	110153	0	0	8092	577770	0	0
2024-09-10 02:34:47			0	37208	0	0	0	27376	25970	158474	27227	1073722	47040	110155	0	0	8091	578420	0	0
2024-09-10 02:35:47			0	37211	0	0	0	27379	25970	158478	26989	1073713	47038	110156	0	0	8091	578299	0	0
2024-09-10 02:36:47			0	37193	0	0	0	27376	25970	158490	27112	1073776	47028	110155	0	0	8090	579022	0	0
2024-09-10 02:37:47			0	37215	0	0	0	27371	25970	158458	27213	1073767	47038	110153	0	0	8091	578138	0	0
2024-09-10 02:38:47			0	37220	0	0	0	27358	25970	158418	27133	1073740	47049	110148	0	0	8092	577938	0	0
2024-09-10 02:39:47			0	37231	0	0	0	27345	25970	158306	26889	1073713	47038	110143	0	0	8092	577496	0	0
2024-09-10 02:40:47			0	37260	0	0	0	27348	25970	158330	26958	1073659	47038	110144	0	0	8094	576333	0	0
2024-09-10 02:41:47			0	37263	0	0	0	27348	25950	158190	27022	1073686	47025	110144	0	0	8094	576279	0	0
2024-09-10 02:42:47			0	37267	0	0	0	27342	25950	158174	27171	1073605	47037	110142	0	0	8095	576119	0	0
2024-09-10 02:43:47			0	37287	0	0	0	27342	25960	158234	27128	1073641	47038	110142	0	0	8096	575285	0	0
2024-09-10 02:44:47			0	37257	0	0	0	27335	25950	158314	27267	1073632	47025	110139	0	0	8094	576519	0	0
2024-09-10 02:45:47			0	37265	0	0	0	27327	25950	158114	27329	1073543	47037	110136	0	0	8095	576199	0	0
2024-09-10 02:46:47			0	37260	0	0	0	27329	25940	158302	27019	1073534	47037	110137	0	0	8094	576432	0	0
2024-09-10 02:47:47			0	37269	0	0	0	27329	25950	158310	27412	1073552	47025	110137	0	0	8095	576039	0	0
2024-09-10 02:48:47			0	37270	0	0	0	27324	25940	158314	27229	1073525	47024	110135	0	0	8095	576031	0	0
2024-09-10 02:49:47			0	37250	0	0	0	27324	25940	158322	27255	1073587	47025	110135	0	0	8094	576833	0	0
2024-09-10 02:50:47			0	37258	0	0	0	27322	25940	158322	27112	1073525	47013	110134	0	0	8094	576512	0	0
2024-09-10 02:51:47			0	37243	0	0	0	27324	25940	158334	27258	1073551	47024	110135	0	0	8093	577113	0	0
2024-09-10 02:52:47			0	37256	0	0	0	27319	25940	158378	27412	1073551	47035	110133	0	0	8094	576592	0	0
2024-09-10 02:53:47			0	37248	0	0	0	27319	25940	158426	27450	1073525	47035	110133	0	0	8094	576913	0	0
2024-09-10 02:54:47			0	37213	0	0	0	27324	25930	158422	27138	1073506	47034	110135	0	0	8092	578351	0	0
2024-09-10 02:55:47			0	37211	0	0	0	27316	25920	158466	27258	1073471	47034	110132	0	0	8092	578464	0	0
2024-09-10 02:56:47			0	37199	0	0	0	27316	25920	158450	27156	1073497	47023	110132	0	0	8091	578946	0	0
2024-09-10 02:57:47			0	37164	0	0	0	27314	25930	158654	27118	1073506	47034	110131	0	0	8089	580321	0	0
2024-09-10 02:58:47			0	37161	0	0	0	27324	25920	158734	27048	1073497	47023	110135	0	0	8088	580475	0	0
2024-09-10 02:59:47			0	37168	0	0	0	27327	25920	158630	27144	1073497	47034	110136	0	0	8089	580193	0	0
2024-09-10 03:00:47			0	37171	0	0	0	27322	25920	158706	27166	1073471	47023	110134	0	0	8089	580072	0	0
2024-09-10 03:01:47			0	37148	0	0	0	27332	25920	158694	27142	1073471	47034	110138	0	0	8088	580999	0	0
2024-09-10 03:02:47			0	37156	0	0	0	27329	25920	158778	27069	1073461	47044	110137	0	0	8088	580676	0	0
2024-09-10 03:03:47			0	37142	0	0	0	27329	25930	158882	27294	1073533	47034	110137	0	0	8087	581207	0	0
2024-09-10 03:04:47			0	37144	0	0	0	27353	25920	158842	26897	1073542	47033	110146	0	0	8087	581160	0	0
2024-09-10 03:05:47			0	37159	0	0	0	27345	25930	158682	27163	1073533	47045	110143	0	0	8088	580522	0	0
2024-09-10 03:06:47			0	37178	0	0	0	27345	25920	158622	27182	1073524	47023	110143	0	0	8089	579791	0	0
2024-09-10 03:07:47			0	37177	0	0	0	27350	25940	158590	27164	1073551	47035	110145	0	0	8089	579765	0	0
2024-09-10 03:08:47			0	37213	0	0	0	27340	25930	158642	27242	1073614	47023	110141	0	0	8091	578351	0	0
2024-09-10 03:09:47			0	37176	0	0	0	27342	25930	158570	27230	1073587	47045	110142	0	0	8089	579838	0	0
2024-09-10 03:10:47			0	37182	0	0	0	27340	25930	158602	27137	1073569	47034	110141	0	0	8089	579597	0	0
2024-09-10 03:11:47			0	37175	0	0	0	27345	25920	158650	27176	1073605	47023	110143	0	0	8089	579911	0	0
2024-09-10 03:12:47			0	37184	0	0	0	27335	25940	158606	27279	1073551	47024	110139	0	0	8090	579483	0	0
2024-09-10 03:13:47			0	37187	0	0	0	27324	25930	158554	27248	1073480	47023	110135	0	0	8090	579396	0	0
2024-09-10 03:14:47			0	37207	0	0	0	27303	25930	158502	27294	1073489	47034	110127	0	0	8092	578592	0	0
2024-09-10 03:15:47			0	37227	0	0	0	27306	25930	158434	27123	1073453	47023	110128	0	0	8093	577788	0	0
2024-09-10 03:16:47			0	37237	0	0	0	27329	25930	158478	27403	1073480	47023	110137	0	0	8093	577387	0	0
2024-09-10 03:17:47			0	37260	0	0	0	27324	25920	158386	27277	1073471	47012	110135	0	0	8094	576498	0	0
2024-09-10 03:18:47			0	37266	0	0	0	27324	25920	158386	27232	1073461	47022	110135	0	0	8095	576257	0	0
2024-09-10 03:19:47			0	37279	0	0	0	27350	25920	158322	27317	1073488	47033	110145	0	0	8095	575737	0	0
2024-09-10 03:20:47			0	37296	0	0	0	27348	25920	158250	27371	1073515	47011	110144	0	0	8096	575056	0	0
2024-09-10 03:21:47			0	37297	0	0	0	27350	25920	158122	27189	1073515	47033	110145	0	0	8096	575016	0	0
2024-09-10 03:22:47			0	37317	0	0	0	27358	25920	158083	27358	1073524	47034	110148	0	0	8097	574216	0	0
2024-09-10 03:23:47			0	37340	0	0	0	27348	25920	158035	27332	1073551	47045	110144	0	0	8099	573297	0	0
2024-09-10 03:24:47			0	37319	0	0	0	27348	25920	158074	27294	1073542	47044	110144	0	0	8097	574136	0	0
2024-09-10 03:25:47			0	37301	0	0	0	27342	25920	158062	27130	1073569	47022	110142	0	0	8096	574856	0	0
2024-09-10 03:26:47			0	37309	0	0	0	27340	25930	158170	27358	1073569	47034	110141	0	0	8097	574503	0	0
2024-09-10 03:27:47			0	37297	0	0	0	27337	25930	158162	27019	1073506	47034	110140	0	0	8096	574983	0	0
2024-09-10 03:28:47			0	37305	0	0	0	27345	25920	158130	27121	1073542	47033	110143	0	0	8097	574696	0	0
2024-09-10 03:29:47			0	37323	0	0	0	27337	25940	158095	27322	1073605	47046	110140	0	0	8098	573911	0	0
2024-09-10 03:30:47			0	37316	0	0	0	27345	25930	158087	26991	1073569	47045	110143	0	0	8097	574223	0	0
2024-09-10 03:31:47			0	37336	0	0	0	27366	25930	158187	27412	1073614	47034	110151	0	0	8098	573424	0	0
2024-09-10 03:32:47			0	37341	0	0	0	27363	25930	158059	27376	1073596	47034	110150	0	0	8098	573225	0	0
2024-09-10 03:33:47			0	37358	0	0	0	27350	25940	157983	27173	1073659	47024	110145	0	0	8100	572513	0	0
2024-09-10 03:34:47			0	37336	0	0	0	27363	25940	158047	27256	1073632	47035	110150	0	0	8098	573391	0	0
2024-09-10 03:35:47			0	37340	0	0	0	27363	25940	158015	27175	1073578	47013	110150	0	0	8098	573232	0	0
2024-09-10 03:36:47			0	37358	0	0	0	27350	25940	158035	26880	1073659	47035	110145	0	0	8100	572513	0	0
2024-09-10 03:37:47			0	37328	0	0	0	27350	25940	158046	26987	1073641	47037	110145	0	0	8098	573711	0	0
2024-09-10 03:38:47			0	37357	0	0	0	27337	25940	158063	26934	1073614	47047	110140	0	0	8100	572553	0	0
2024-09-10 03:39:47			0	37340	0	0	0	27335	25940	158031	27230	1073614	47037	110139	0	0	8099	573232	0	0
2024-09-10 03:40:47			0	37357	0	0	0	27345	25940	158051	27053	1073614	47037	110143	0	0	8100	572553	0	0
2024-09-10 03:41:47			0	37342	0	0	0	27340	25940	158131	27355	1073587	47025	110141	0	0	8099	573152	0	0
2024-09-10 03:42:47			0	37335	0	0	0	27340	25940	158011	26863	1073605	47035	110141	0	0	8098	573431	0	0
2024-09-10 03:43:47			0	37330	0	0	0	27353	25940	158135	27287	1073605	47024	110146	0	0	8098	573631	0	0
2024-09-10 03:44:47			0	37391	0	0	0	27363	25940	157831	27046	1073587	47047	110150	0	0	8101	571198	0	0
2024-09-10 03:45:47			0	37399	0	0	0	27368	25940	157835	27199	1073686	47035	110152	0	0	8102	570879	0	0
2024-09-10 03:46:47			0	37396	0	0	0	27358	25940	157783	27173	1073668	47037	110148	0	0	8102	570998	0	0
2024-09-10 03:47:47			0	37434	0	0	0	27358	25950	157675	27130	1073650	47025	110148	0	0	8104	569454	0	0
2024-09-10 03:48:47			0	37429	0	0	0	27342	25950	157679	27256	1073570	47037	110142	0	0	8104	569653	0	0
2024-09-10 03:49:47			0	37412	0	0	0	27342	25940	157763	26965	1073560	47037	110142	0	0	8103	570362	0	0
2024-09-10 03:50:47			0	37389	0	0	0	27345	25940	157799	27041	1073686	47035	110143	0	0	8102	571277	0	0
2024-09-10 03:51:47			0	37401	0	0	0	27345	25950	157751	27107	1073623	47037	110143	0	0	8102	570767	0	0
2024-09-10 03:52:47			0	37393	0	0	0	27332	25940	157715	27029	1073614	47058	110138	0	0	8102	571118	0	0
2024-09-10 03:53:47			0	37395	0	0	0	27319	25940	157791	27180	1073659	47024	110133	0	0	8102	571038	0	0
2024-09-10 03:54:47			0	37361	0	0	0	27314	25940	157875	26850	1073560	47037	110131	0	0	8100	572394	0	0
2024-09-10 03:55:47			0	37347	0	0	0	27324	25930	157871	26956	1073596	47012	110135	0	0	8099	572985	0	0
2024-09-10 03:56:47			0	37346	0	0	0	27316	25940	157931	27294	1073498	47024	110132	0	0	8100	572992	0	0
2024-09-10 03:57:47			0	37349	0	0	0	27329	25930	157919	27203	1073542	47034	110137	0	0	8099	572905	0	0
2024-09-10 03:58:47			0	37381	0	0	0	27324	25930	157779	27197	1073569	47023	110135	0	0	8101	571629	0	0
2024-09-10 03:59:47			0	37399	0	0	0	27316	25930	157783	27142	1073542	47034	110132	0	0	8103	570912	0	0
2024-09-10 04:00:47			0	37401	0	0	0	27316	25940	157763	27386	1073525	47035	110132	0	0	8103	570799	0	0
2024-09-10 04:01:47			0	37387	0	0	0	27324	25940	157819	27053	1073551	47035	110135	0	0	8102	571357	0	0
2024-09-10 04:02:47			0	37415	0	0	0	27322	25930	157679	27235	1073560	47012	110134	0	0	8103	570275	0	0
2024-09-10 04:03:47			0	37416	0	0	0	27327	25930	157711	27192	1073533	47034	110136	0	0	8103	570235	0	0
2024-09-10 04:04:47			0	37416	0	0	0	27340	25920	157615	26942	1073515	47033	110141	0	0	8103	570267	0	0
2024-09-10 04:05:47			0	37472	0	0	0	27342	25940	157419	27173	1073578	47013	110142	0	0	8106	567977	0	0
2024-09-10 04:06:47			0	37499	0	0	0	27340	25930	157319	27227	1073569	47023	110141	0	0	8108	566938	0	0
2024-09-10 04:07:47			0	37535	0	0	0	27342	25920	157139	26977	1073605	47034	110142	0	0	8110	565544	0	0
2024-09-10 04:08:47			0	37610	0	0	0	27371	25930	157063	26899	1073623	47034	110153	0	0	8114	562549	0	0
2024-09-10 04:09:47			0	37679	0	0	0	27348	25930	156667	27098	1073668	47034	110144	0	0	8118	559831	0	0
2024-09-10 04:10:47			0	37707	0	0	0	27358	25930	156475	27208	1073650	47045	110148	0	0	8120	558731	0	0
2024-09-10 04:11:47			0	37725	0	0	0	27348	25940	156447	27189	1073632	47035	110144	0	0	8121	557993	0	0
2024-09-10 04:12:47			0	37690	0	0	0	27335	25930	156575	27229	1073587	47023	110139	0	0	8119	559399	0	0
2024-09-10 04:13:47			0	37712	0	0	0	27342	25940	156527	26923	1073578	47024	110142	0	0	8120	558503	0	0
2024-09-10 04:14:47			0	37725	0	0	0	27340	25930	156391	27353	1073623	47023	110141	0	0	8121	558024	0	0
2024-09-10 04:15:47			0	37766	0	0	0	27350	25940	156383	26991	1073605	47035	110145	0	0	8123	556385	0	0
2024-09-10 04:16:47			0	37800	0	0	0	27348	25940	156219	27164	1073686	47024	110144	0	0	8125	555055	0	0
2024-09-10 04:17:47			0	37817	0	0	0	27342	25930	156123	27182	1073650	47034	110142	0	0	8127	554422	0	0
2024-09-10 04:18:47			0	37811	0	0	0	27335	25940	156103	27248	1073605	47024	110139	0	0	8126	554625	0	0
2024-09-10 04:19:47			0	37811	0	0	0	27335	25940	156143	27157	1073578	47024	110139	0	0	8126	554625	0	0
2024-09-10 04:20:47			0	37775	0	0	0	27327	25930	156255	27249	1073587	47034	110136	0	0	8124	556065	0	0
2024-09-10 04:21:47			0	37776	0	0	0	27324	25930	156223	27398	1073533	47023	110135	0	0	8124	556025	0	0
2024-09-10 04:22:47			0	37768	0	0	0	27332	25940	156267	27053	1073578	47035	110138	0	0	8124	556307	0	0
2024-09-10 04:23:47			0	37774	0	0	0	27335	25940	156307	27045	1073498	47035	110139	0	0	8124	556072	0	0
2024-09-10 04:24:47			0	37759	0	0	0	27340	25940	156407	27135	1073614	47037	110141	0	0	8123	556660	0	0
2024-09-10 04:25:47			0	37766	0	0	0	27335	25930	156339	27281	1073560	47034	110139	0	0	8124	556417	0	0
2024-09-10 04:26:47			0	37775	0	0	0	27329	25940	156323	27159	1073605	47024	110137	0	0	8124	556033	0	0
2024-09-10 04:27:47			0	37788	0	0	0	27335	25930	156303	27033	1073623	47034	110139	0	0	8125	555556	0	0
2024-09-10 04:28:47			0	37797	0	0	0	27342	25930	156263	27112	1073569	47023	110142	0	0	8125	555204	0	0
2024-09-10 04:29:47			0	37804	0	0	0	27345	25930	156059	27308	1073569	47023	110143	0	0	8126	554930	0	0
2024-09-10 04:30:47			0	37812	0	0	0	27342	25930	156055	27149	1073677	47034	110142	0	0	8126	554617	0	0
2024-09-10 04:31:47			0	37818	0	0	0	27335	25930	156127	27281	1073560	47023	110139	0	0	8127	554383	0	0
2024-09-10 04:32:47			0	37836	0	0	0	27340	25930	155927	27249	1073542	47034	110141	0	0	8128	553680	0	0
2024-09-10 04:33:47			0	37834	0	0	0	27337	25930	156059	27152	1073569	47034	110140	0	0	8128	553758	0	0
2024-09-10 04:34:47			0	37854	0	0	0	27337	25930	155915	27020	1073596	47034	110140	0	0	8129	552977	0	0
2024-09-10 04:35:47			0	37827	0	0	0	27329	25930	155947	27046	1073533	47034	110137	0	0	8127	554031	0	0
2024-09-10 04:36:47			0	37839	0	0	0	27316	25930	156043	27074	1073533	47045	110132	0	0	8128	553562	0	0
2024-09-10 04:37:47			0	37826	0	0	0	27324	25920	156031	27286	1073497	47023	110135	0	0	8127	554102	0	0
2024-09-10 04:38:47			0	37803	0	0	0	27319	25930	156047	27046	1073614	47023	110133	0	0	8126	554969	0	0
2024-09-10 04:39:47			0	37810	0	0	0	27319	25920	156095	26922	1073524	47034	110133	0	0	8126	554727	0	0
2024-09-10 04:40:47			0	37793	0	0	0	27319	25920	156019	26883	1073578	47023	110133	0	0	8125	555392	0	0
2024-09-10 04:41:47			0	37798	0	0	0	27311	25920	156187	27104	1073488	47033	110130	0	0	8126	555196	0	0
2024-09-10 04:42:47			0	37779	0	0	0	27309	25920	156227	27196	1073542	47044	110129	0	0	8125	555940	0	0
2024-09-10 04:43:47			0	37775	0	0	0	27309	25920	156175	27022	1073497	47034	110129	0	0	8125	556096	0	0
2024-09-10 04:44:47			0	37767	0	0	0	27306	25920	156211	27088	1073524	47034	110128	0	0	8124	556410	0	0
2024-09-10 04:45:47			0	37742	0	0	0	27298	25910	156335	27185	1073506	47032	110125	0	0	8123	557421	0	0
2024-09-10 04:46:47			0	37767	0	0	0	27309	25910	156295	26779	1073470	47021	110129	0	0	8124	556441	0	0
2024-09-10 04:47:47			0	37736	0	0	0	27309	25910	156371	26989	1073398	47021	110129	0	0	8122	557656	0	0
2024-09-10 04:48:47			0	37726	0	0	0	27311	25910	156387	27256	1073452	47021	110130	0	0	8122	558049	0	0
2024-09-10 04:49:47			0	37730	0	0	0	27303	25910	156431	27001	1073425	47032	110127	0	0	8122	557892	0	0
2024-09-10 04:50:47			0	37694	0	0	0	27296	25920	156623	27171	1073515	47033	110124	0	0	8120	559274	0	0
2024-09-10 04:51:47			0	37691	0	0	0	27296	25910	156611	27130	1073443	47021	110124	0	0	8120	559423	0	0
2024-09-10 04:52:47			0	37705	0	0	0	27301	25910	156639	27031	1073443	47010	110126	0	0	8121	558873	0	0
2024-09-10 04:53:47			0	37696	0	0	0	27306	25910	156647	26840	1073470	47032	110128	0	0	8120	559227	0	0
2024-09-10 04:54:47			0	37686	0	0	0	27293	25910	156571	27161	1073443	47021	110123	0	0	8120	559620	0	0
2024-09-10 04:55:47			0	37702	0	0	0	27290	25900	156583	27201	1073461	47031	110122	0	0	8121	559023	0	0
2024-09-10 04:56:47			0	37704	0	0	0	27319	25900	156603	27177	1073479	47031	110133	0	0	8120	558944	0	0
2024-09-10 04:57:47			0	37707	0	0	0	27314	25910	156515	27083	1073389	47032	110131	0	0	8121	558795	0	0
2024-09-10 04:58:47			0	37701	0	0	0	27303	25910	156631	27365	1073443	47032	110127	0	0	8120	559030	0	0
2024-09-10 04:59:47			0	37702	0	0	0	27309	25900	156679	27147	1073407	47031	110129	0	0	8120	559023	0	0
2024-09-10 05:00:47			0	37694	0	0	0	27293	25900	156691	27131	1073407	47031	110123	0	0	8120	559337	0	0
2024-09-10 05:01:47			0	37666	0	0	0	27298	25900	156747	27248	1073407	47020	110125	0	0	8118	560438	0	0
2024-09-10 05:02:47			0	37652	0	0	0	27288	25900	156779	27248	1073425	47020	110121	0	0	8118	560989	0	0
2024-09-10 05:03:47			0	37661	0	0	0	27293	25900	156707	26961	1073345	47031	110123	0	0	8118	560635	0	0
2024-09-10 05:04:47			0	37663	0	0	0	27303	25900	156751	27086	1073425	47031	110127	0	0	8118	560557	0	0
2024-09-10 05:05:47			0	37681	0	0	0	27309	25900	156859	26909	1073371	47031	110129	0	0	8119	559848	0	0
2024-09-10 05:06:47			0	37676	0	0	0	27293	25890	156675	27166	1073389	47030	110123	0	0	8119	560077	0	0
2024-09-10 05:07:47			0	37677	0	0	0	27301	25900	156719	27322	1073380	47020	110126	0	0	8119	560006	0	0
2024-09-10 05:08:47			0	37678	0	0	0	27306	25900	156863	27086	1073407	47031	110128	0	0	8119	559966	0	0
2024-09-10 05:09:47			0	37687	0	0	0	27288	25900	156683	27315	1073452	47020	110121	0	0	8120	559612	0	0
2024-09-10 05:10:47			0	37655	0	0	0	27296	25900	156799	27208	1073407	47020	110124	0	0	8118	560871	0	0
2024-09-10 05:11:47			0	37659	0	0	0	27309	25890	156919	27093	1073416	47030	110129	0	0	8118	560746	0	0
2024-09-10 05:12:47			0	37658	0	0	0	27301	25900	156787	27048	1073380	47031	110126	0	0	8118	560753	0	0
2024-09-10 05:13:47			0	37668	0	0	0	27319	25900	156871	26975	1073371	47020	110133	0	0	8118	560360	0	0
2024-09-10 05:14:47			0	37677	0	0	0	27322	25900	156831	27128	1073425	47031	110134	0	0	8119	560006	0	0
2024-09-10 05:15:47			0	37680	0	0	0	27311	25900	156823	27346	1073461	47042	110130	0	0	8119	559888	0	0
2024-09-10 05:16:47			0	37668	0	0	0	27301	25900	156803	26797	1073461	47031	110126	0	0	8118	560360	0	0
2024-09-10 05:17:47			0	37676	0	0	0	27303	25900	156759	27022	1073434	47042	110127	0	0	8119	560045	0	0
2024-09-10 05:18:47			0	37670	0	0	0	27311	25900	156907	26783	1073425	47009	110130	0	0	8118	560281	0	0
2024-09-10 05:19:47			0	37678	0	0	0	27296	25900	156851	27275	1073380	47020	110124	0	0	8119	559966	0	0
2024-09-10 05:20:47			0	37670	0	0	0	27309	25900	156967	26821	1073398	47031	110129	0	0	8118	560281	0	0
2024-09-10 05:21:47			0	37640	0	0	0	27301	25900	156895	27038	1073425	47031	110126	0	0	8117	561462	0	0
2024-09-10 05:22:47			0	37646	0	0	0	27290	25900	156799	27383	1073407	47031	110122	0	0	8117	561226	0	0
2024-09-10 05:23:47			0	37626	0	0	0	27290	25900	156855	27171	1073407	47020	110122	0	0	8116	562014	0	0
2024-09-10 05:24:47			0	37639	0	0	0	27285	25900	156891	27275	1073371	47031	110120	0	0	8117	561502	0	0
2024-09-10 05:25:47			0	37616	0	0	0	27293	25890	156843	27130	1073362	47030	110123	0	0	8115	562440	0	0
2024-09-10 05:26:47			0	37611	0	0	0	27288	25890	156991	27171	1073362	47030	110121	0	0	8115	562637	0	0
2024-09-10 05:27:47			0	37623	0	0	0	27272	25890	156867	27327	1073326	47030	110115	0	0	8116	562164	0	0
2024-09-10 05:28:47			0	37607	0	0	0	27298	25890	156887	27059	1073335	47030	110125	0	0	8115	562795	0	0
2024-09-10 05:29:47			0	37625	0	0	0	27298	25890	156911	27001	1073389	47030	110125	0	0	8116	562085	0	0
2024-09-10 05:30:47			0	37628	0	0	0	27301	25900	156819	27060	1073345	47031	110126	0	0	8116	561935	0	0
2024-09-10 05:31:47			0	37651	0	0	0	27285	25890	156911	26904	1073389	47041	110120	0	0	8118	561061	0	0
2024-09-10 05:32:47			0	37638	0	0	0	27290	25890	156735	27088	1073380	47019	110122	0	0	8117	561573	0	0
2024-09-10 05:33:47			0	37644	0	0	0	27303	25890	156751	26788	1073434	47030	110127	0	0	8117	561336	0	0
2024-09-10 05:34:47			0	37655	0	0	0	27293	25890	156799	26906	1073380	47030	110123	0	0	8118	560903	0	0
2024-09-10 05:35:47			0	37649	0	0	0	27298	25900	156743	27137	1073345	47020	110125	0	0	8117	561108	0	0
2024-09-10 05:36:47			0	37644	0	0	0	27293	25900	156751	27242	1073345	47042	110123	0	0	8117	561305	0	0
2024-09-10 05:37:47			0	37666	0	0	0	27288	25890	156787	27095	1073407	47030	110121	0	0	8118	560470	0	0
2024-09-10 05:38:47			0	37685	0	0	0	27280	25890	156743	26885	1073380	47019	110118	0	0	8120	559723	0	0
2024-09-10 05:39:47			0	37643	0	0	0	27283	25890	156799	26755	1073326	47019	110119	0	0	8117	561376	0	0
2024-09-10 05:40:47			0	37643	0	0	0	27283	25880	156815	26951	1073344	47018	110119	0	0	8117	561408	0	0
2024-09-10 05:41:47			0	37644	0	0	0	27275	25890	156795	27111	1073407	47030	110116	0	0	8117	561336	0	0
2024-09-10 05:42:47			0	37632	0	0	0	27277	25880	156891	27093	1073344	47018	110117	0	0	8117	561841	0	0
2024-09-10 05:43:47			0	37629	0	0	0	27283	25890	156899	27112	1073380	47019	110119	0	0	8116	561928	0	0
2024-09-10 05:44:47			0	37625	0	0	0	27280	25880	156979	27116	1073281	47007	110118	0	0	8116	562117	0	0
2024-09-10 05:45:47			0	37631	0	0	0	27288	25880	156899	27059	1073344	47029	110121	0	0	8116	561881	0	0
2024-09-10 05:46:47			0	37635	0	0	0	27283	25880	156871	27180	1073335	47029	110119	0	0	8117	561723	0	0
2024-09-10 05:47:47			0	37644	0	0	0	27277	25880	156827	27319	1073291	47029	110117	0	0	8117	561369	0	0
2024-09-10 05:48:47			0	37628	0	0	0	27283	25880	156887	27182	1073344	47018	110119	0	0	8116	561999	0	0
2024-09-10 05:49:47			0	37637	0	0	0	27283	25870	156867	26838	1073299	47028	110119	0	0	8117	561676	0	0
2024-09-10 05:50:47			0	37626	0	0	0	27285	25880	156923	27187	1073308	47029	110120	0	0	8116	562078	0	0
2024-09-10 05:51:47			0	37648	0	0	0	27293	25880	156943	27164	1073317	47018	110123	0	0	8117	561211	0	0
2024-09-10 05:52:47			0	37645	0	0	0	27290	25880	156903	27175	1073371	47029	110122	0	0	8117	561329	0	0
2024-09-10 05:53:47			0	37639	0	0	0	27288	25880	156855	26785	1073291	47041	110121	0	0	8117	561566	0	0
2024-09-10 05:54:47			0	37633	0	0	0	27272	25880	156819	26970	1073362	47029	110115	0	0	8117	561802	0	0
2024-09-10 05:55:47			0	37643	0	0	0	27275	25880	157015	27313	1073344	47029	110116	0	0	8117	561408	0	0
2024-09-10 05:56:47			0	37631	0	0	0	27275	25870	156983	27256	1073326	47040	110116	0	0	8117	561913	0	0
2024-09-10 05:57:47			0	37615	0	0	0	27277	25890	157047	27182	1073273	47019	110117	0	0	8116	562480	0	0
2024-09-10 05:58:47			0	37615	0	0	0	27262	25880	157087	27229	1073389	47029	110111	0	0	8116	562512	0	0
2024-09-10 05:59:47			0	37591	0	0	0	27280	25880	156955	27312	1073291	47007	110118	0	0	8114	563459	0	0
2024-09-10 06:00:47			0	37587	0	0	0	27296	25870	157011	27097	1073353	47017	110124	0	0	8114	563649	0	0
2024-09-10 06:01:47			0	37623	0	0	0	27293	25870	157047	27367	1073272	47028	110123	0	0	8116	562228	0	0
2024-09-10 06:02:47			0	37624	0	0	0	27283	25880	156983	27086	1073281	47029	110119	0	0	8116	562157	0	0
2024-09-10 06:03:47			0	37629	0	0	0	27275	25880	156991	27145	1073344	47029	110116	0	0	8116	561960	0	0
2024-09-10 06:04:47			0	37606	0	0	0	27270	25880	156935	26927	1073308	47018	110114	0	0	8115	562867	0	0
2024-09-10 06:05:47			0	37613	0	0	0	27270	25870	157059	27338	1073326	47028	110114	0	0	8116	562623	0	0
2024-09-10 06:06:47			0	37577	0	0	0	27272	25880	156987	27050	1073255	47029	110115	0	0	8114	564012	0	0
2024-09-10 06:07:47			0	37595	0	0	0	27275	25880	157023	27338	1073281	47007	110116	0	0	8115	563301	0	0
2024-09-10 06:08:47			0	37590	0	0	0	27288	25870	157171	27299	1073326	47017	110121	0	0	8114	563531	0	0
2024-09-10 06:09:47			0	37582	0	0	0	27288	25880	157175	26935	1073308	47041	110121	0	0	8114	563815	0	0
2024-09-10 06:10:47			0	37565	0	0	0	27293	25870	157203	27248	1073326	47028	110123	0	0	8112	564519	0	0
2024-09-10 06:11:47			0	37562	0	0	0	27288	25870	157231	27414	1073353	47050	110121	0	0	8112	564637	0	0
2024-09-10 06:12:47			0	37574	0	0	0	27277	25880	157303	27159	1073281	47029	110117	0	0	8113	564131	0	0
2024-09-10 06:13:47			0	37592	0	0	0	27296	25880	157115	27268	1073371	47029	110124	0	0	8114	563420	0	0
2024-09-10 06:14:47			0	37593	0	0	0	27296	25880	157111	27263	1073308	47041	110124	0	0	8114	563380	0	0
2024-09-10 06:15:47			0	37586	0	0	0	27290	25880	157051	27306	1073344	47029	110122	0	0	8114	563657	0	0
2024-09-10 06:16:47			0	37605	0	0	0	27298	25880	157051	27258	1073308	47029	110125	0	0	8115	562906	0	0
2024-09-10 06:17:47			0	37595	0	0	0	27298	25890	156979	27098	1073380	47030	110125	0	0	8114	563269	0	0
2024-09-10 06:18:47			0	37590	0	0	0	27293	25890	157019	27190	1073389	47030	110123	0	0	8114	563466	0	0
2024-09-10 06:19:47			0	37595	0	0	0	27280	25890	157059	27346	1073380	47019	110118	0	0	8114	563269	0	0
2024-09-10 06:20:47			0	37602	0	0	0	27280	25880	156999	27000	1073335	47018	110118	0	0	8115	563025	0	0
2024-09-10 06:21:47			0	37595	0	0	0	27280	25880	157051	27156	1073335	47018	110118	0	0	8114	563301	0	0
2024-09-10 06:22:47			0	37603	0	0	0	27290	25890	157039	27294	1073335	47041	110122	0	0	8115	562953	0	0
2024-09-10 06:23:47			0	37600	0	0	0	27288	25880	157115	27190	1073255	47041	110121	0	0	8115	563104	0	0
2024-09-10 06:24:47			0	37580	0	0	0	27298	25890	157139	27119	1073407	47030	110125	0	0	8113	563861	0	0
2024-09-10 06:25:47			0	37587	0	0	0	27314	25890	157035	26987	1073353	47019	110131	0	0	8113	563585	0	0
2024-09-10 06:26:47			0	37601	0	0	0	27306	25880	156991	27244	1073416	47029	110128	0	0	8114	563064	0	0
2024-09-10 06:27:47			0	37620	0	0	0	27301	25890	156883	26902	1073353	47019	110126	0	0	8116	562283	0	0
2024-09-10 06:28:47			0	37622	0	0	0	27285	25890	156931	27312	1073407	47019	110120	0	0	8116	562204	0	0
2024-09-10 06:29:47			0	37618	0	0	0	27280	25880	156891	27059	1073317	47029	110118	0	0	8116	562393	0	0
2024-09-10 06:30:47			0	37627	0	0	0	27270	25880	156919	27085	1073362	47029	110114	0	0	8116	562039	0	0
2024-09-10 06:31:47			0	37618	0	0	0	27275	25880	156947	27258	1073398	47018	110116	0	0	8116	562393	0	0
2024-09-10 06:32:47			0	37625	0	0	0	27283	25890	156871	27135	1073326	47019	110119	0	0	8116	562085	0	0
2024-09-10 06:33:47			0	37622	0	0	0	27288	25880	157011	27504	1073398	47029	110121	0	0	8116	562236	0	0
2024-09-10 06:34:47			0	37617	0	0	0	27288	25890	156987	27071	1073300	47019	110121	0	0	8116	562401	0	0
2024-09-10 06:35:47			0	37610	0	0	0	27280	25890	156999	26811	1073326	47030	110118	0	0	8115	562677	0	0
2024-09-10 06:36:47			0	37612	0	0	0	27280	25890	157011	27211	1073326	47030	110118	0	0	8115	562598	0	0
2024-09-10 06:37:47			0	37613	0	0	0	27283	25870	156999	27083	1073299	47017	110119	0	0	8115	562623	0	0
2024-09-10 06:38:47			0	37609	0	0	0	27275	25870	156995	27138	1073326	47028	110116	0	0	8115	562780	0	0
2024-09-10 06:39:47			0	37594	0	0	0	27283	25880	156923	27255	1073335	47029	110119	0	0	8114	563341	0	0
2024-09-10 06:40:47			0	37606	0	0	0	27275	25880	156987	27345	1073291	47029	110116	0	0	8115	562867	0	0
2024-09-10 06:41:47			0	37601	0	0	0	27275	25870	156959	27156	1073299	47028	110116	0	0	8115	563096	0	0
2024-09-10 06:42:47			0	37604	0	0	0	27272	25870	156923	27144	1073317	47016	110115	0	0	8115	562978	0	0
2024-09-10 06:43:47			0	37593	0	0	0	27270	25880	157039	27020	1073335	47018	110114	0	0	8114	563380	0	0
2024-09-10 06:44:47			0	37600	0	0	0	27288	25880	157135	27306	1073281	47029	110121	0	0	8115	563104	0	0
2024-09-10 06:45:47			0	37582	0	0	0	27275	25870	157111	27022	1073326	47017	110116	0	0	8114	563847	0	0
2024-09-10 06:46:47			0	37589	0	0	0	27262	25870	157051	27170	1073317	47016	110111	0	0	8114	563570	0	0
2024-09-10 06:47:47			0	37578	0	0	0	27275	25880	157059	27244	1073308	47029	110116	0	0	8114	563973	0	0
2024-09-10 06:48:47			0	37576	0	0	0	27270	25880	157031	27057	1073335	47018	110114	0	0	8113	564052	0	0
2024-09-10 06:49:47			0	37579	0	0	0	27264	25870	157183	27111	1073246	47028	110112	0	0	8114	563965	0	0
2024-09-10 06:50:47			0	37581	0	0	0	27270	25870	157099	27180	1073246	47028	110114	0	0	8114	563886	0	0
2024-09-10 06:51:47			0	37571	0	0	0	27264	25870	157083	26965	1073272	47017	110112	0	0	8113	564281	0	0
2024-09-10 06:52:47			0	37586	0	0	0	27262	25860	157091	26953	1073254	47027	110111	0	0	8114	563721	0	0
2024-09-10 06:53:47			0	37556	0	0	0	27262	25860	157163	27163	1073228	47016	110111	0	0	8112	564907	0	0
2024-09-10 06:54:47			0	37547	0	0	0	27257	25860	157147	27140	1073245	47027	110109	0	0	8112	565263	0	0
2024-09-10 06:55:47			0	37547	0	0	0	27249	25860	157323	27156	1073254	47016	110106	0	0	8112	565263	0	0
2024-09-10 06:56:47			0	37539	0	0	0	27249	25860	157203	27059	1073245	47027	110106	0	0	8112	565579	0	0
2024-09-10 06:57:47			0	37527	0	0	0	27251	25870	157291	27034	1073237	47027	110107	0	0	8111	566022	0	0
2024-09-10 06:58:47			0	37521	0	0	0	27251	25860	157255	27194	1073228	47039	110107	0	0	8111	566292	0	0
2024-09-10 06:59:47			0	37533	0	0	0	27259	25860	157211	27177	1073192	47016	110110	0	0	8111	565817	0	0
2024-09-10 07:00:47			0	37542	0	0	0	27254	25850	157351	27164	1073209	47015	110108	0	0	8112	565493	0	0
2024-09-10 07:01:47			0	37519	0	0	0	27251	25860	157267	27232	1073228	47016	110107	0	0	8110	566371	0	0
2024-09-10 07:02:47			0	37528	0	0	0	27249	25860	157319	26866	1073245	47005	110106	0	0	8111	566015	0	0
2024-09-10 07:03:47			0	37554	0	0	0	27246	25860	157323	27126	1073245	47039	110105	0	0	8113	564986	0	0
2024-09-10 07:04:47			0	37535	0	0	0	27246	25860	157371	27078	1073192	47039	110105	0	0	8111	565738	0	0
2024-09-10 07:05:47			0	37530	0	0	0	27259	25850	157175	26972	1073183	47015	110110	0	0	8111	565968	0	0
2024-09-10 07:06:47			0	37528	0	0	0	27249	25850	157231	27194	1073236	47026	110106	0	0	8111	566047	0	0
2024-09-10 07:07:47			0	37519	0	0	0	27257	25850	157287	27223	1073200	47014	110109	0	0	8110	566404	0	0
2024-09-10 07:08:47			0	37516	0	0	0	27244	25850	157227	27185	1073129	47026	110104	0	0	8110	566523	0	0
2024-09-10 07:09:47			0	37532	0	0	0	27241	25860	157235	27178	1073165	47005	110103	0	0	8111	565856	0	0
2024-09-10 07:10:47			0	37521	0	0	0	27236	25840	157311	27022	1073075	47024	110101	0	0	8111	566357	0	0
2024-09-10 07:11:47			0	37519	0	0	0	27246	25850	157363	26786	1073156	47038	110105	0	0	8110	566404	0	0
2024-09-10 07:12:47			0	37535	0	0	0	27241	25840	157439	27104	1073165	47003	110103	0	0	8111	565802	0	0
2024-09-10 07:13:47			0	37525	0	0	0	27236	25840	157331	27026	1073165	47025	110101	0	0	8111	566198	0	0
2024-09-10 07:14:47			0	37516	0	0	0	27236	25840	157367	27203	1073191	47025	110101	0	0	8110	566555	0	0
2024-09-10 07:15:47			0	37507	0	0	0	27238	25840	157423	26864	1073138	47025	110102	0	0	8110	566912	0	0
2024-09-10 07:16:47			0	37521	0	0	0	27233	25840	157351	27216	1073111	47025	110100	0	0	8111	566357	0	0
2024-09-10 07:17:47			0	37524	0	0	0	27238	25840	157419	26968	1073165	47025	110102	0	0	8111	566238	0	0
2024-09-10 07:18:47			0	37524	0	0	0	27231	25840	157395	27105	1073165	47037	110099	0	0	8111	566238	0	0
2024-09-10 07:19:47			0	37500	0	0	0	27233	25840	157451	26948	1073129	47024	110100	0	0	8109	567189	0	0
2024-09-10 07:20:47			0	37506	0	0	0	27223	25840	157447	27253	1073111	47003	110096	0	0	8110	566951	0	0
2024-09-10 07:21:47			0	37485	0	0	0	27233	25850	157499	27019	1073147	47037	110100	0	0	8109	567752	0	0
2024-09-10 07:22:47			0	37482	0	0	0	27233	25840	157595	27066	1073075	47024	110100	0	0	8108	567904	0	0
2024-09-10 07:23:47			0	37493	0	0	0	27236	25840	157591	27237	1073129	47024	110101	0	0	8109	567467	0	0
2024-09-10 07:24:47			0	37468	0	0	0	27231	25840	157639	27176	1073075	47024	110099	0	0	8108	568459	0	0
2024-09-10 07:25:47			0	37476	0	0	0	27231	25840	157487	26863	1073075	47024	110099	0	0	8108	568142	0	0
2024-09-10 07:26:47			0	37475	0	0	0	27223	25840	157523	27102	1073084	47025	110096	0	0	8108	568181	0	0
2024-09-10 07:27:47			0	37457	0	0	0	27238	25840	157543	27263	1073075	47013	110102	0	0	8107	568896	0	0
2024-09-10 07:28:47			0	37452	0	0	0	27233	25840	157555	27114	1073075	47024	110100	0	0	8107	569095	0	0
2024-09-10 07:29:47			0	37464	0	0	0	27220	25840	157587	27345	1073102	47013	110095	0	0	8108	568618	0	0
2024-09-10 07:30:47			0	37456	0	0	0	27233	25840	157519	27211	1073048	47024	110100	0	0	8107	568936	0	0
2024-09-10 07:31:47			0	37474	0	0	0	27233	25830	157575	27046	1073066	47013	110100	0	0	8108	568254	0	0
2024-09-10 07:32:47			0	37467	0	0	0	27233	25840	157655	27244	1073084	47025	110100	0	0	8108	568499	0	0
2024-09-10 07:33:47			0	37462	0	0	0	27231	25840	157627	27296	1073102	47024	110099	0	0	8107	568698	0	0
2024-09-10 07:34:47			0	37442	0	0	0	27231	25830	157679	27177	1073066	47013	110099	0	0	8106	569525	0	0
2024-09-10 07:35:47			0	37456	0	0	0	27238	25820	157631	27331	1073048	47023	110102	0	0	8107	569001	0	0
2024-09-10 07:36:47			0	37450	0	0	0	27225	25830	157619	26951	1073057	47012	110097	0	0	8107	569207	0	0
2024-09-10 07:37:47			0	37444	0	0	0	27238	25830	157631	27066	1073137	47012	110102	0	0	8106	569446	0	0
2024-09-10 07:38:47			0	37435	0	0	0	27238	25830	157595	27083	1073084	47012	110102	0	0	8106	569804	0	0
2024-09-10 07:39:47			0	37438	0	0	0	27231	25820	157691	27001	1073075	47023	110099	0	0	8106	569717	0	0
2024-09-10 07:40:47			0	37432	0	0	0	27238	25830	157679	27088	1073093	47024	110102	0	0	8105	569923	0	0
2024-09-10 07:41:47			0	37446	0	0	0	27231	25830	157707	27121	1073084	47023	110099	0	0	8106	569366	0	0
2024-09-10 07:42:47			0	37438	0	0	0	27225	25830	157627	27118	1073093	47036	110097	0	0	8106	569684	0	0
2024-09-10 07:43:47			0	37437	0	0	0	27223	25830	157787	27157	1073057	47012	110096	0	0	8106	569724	0	0
2024-09-10 07:44:47			0	37435	0	0	0	27236	25830	157751	27435	1073120	47024	110101	0	0	8106	569804	0	0
2024-09-10 07:45:47			0	37421	0	0	0	27233	25840	157803	27090	1073102	47036	110100	0	0	8105	570328	0	0
2024-09-10 07:46:47			0	37414	0	0	0	27233	25830	157883	27414	1073146	47036	110100	0	0	8104	570639	0	0
2024-09-10 07:47:47			0	37414	0	0	0	27225	25840	157823	27012	1073102	47013	110097	0	0	8105	570607	0	0
2024-09-10 07:48:47			0	37417	0	0	0	27233	25840	157871	27320	1073182	47013	110100	0	0	8105	570488	0	0
2024-09-10 07:49:47			0	37413	0	0	0	27238	25830	157863	27107	1073120	47024	110102	0	0	8104	570679	0	0
2024-09-10 07:50:47			0	37409	0	0	0	27231	25830	157867	26974	1073084	47023	110099	0	0	8104	570839	0	0
2024-09-10 07:51:47			0	37407	0	0	0	27233	25830	157839	26861	1073084	47012	110100	0	0	8104	570918	0	0
2024-09-10 07:52:47			0	37399	0	0	0	27225	25830	158015	27166	1073093	47024	110097	0	0	8104	571237	0	0
2024-09-10 07:53:47			0	37395	0	0	0	27231	25830	157875	26982	1073120	47024	110099	0	0	8103	571396	0	0
2024-09-10 07:54:47			0	37403	0	0	0	27225	25830	157915	27479	1073111	47001	110097	0	0	8104	571078	0	0
2024-09-10 07:55:47			0	37406	0	0	0	27238	25830	157967	27237	1073137	47001	110102	0	0	8104	570958	0	0
2024-09-10 07:56:47			0	37407	0	0	0	27241	25830	158003	27069	1073084	47023	110103	0	0	8104	570918	0	0
2024-09-10 07:57:47			0	37391	0	0	0	27231	25830	158015	26987	1073093	47024	110099	0	0	8103	571556	0	0
2024-09-10 07:58:47			0	37383	0	0	0	27231	25830	158015	27237	1073093	47036	110099	0	0	8103	571875	0	0
2024-09-10 07:59:47			0	37391	0	0	0	27231	25830	158147	26949	1073120	47013	110099	0	0	8103	571556	0	0
2024-09-10 08:00:47			0	37398	0	0	0	27228	25830	158067	27197	1073111	47012	110098	0	0	8104	571277	0	0
2024-09-10 08:01:47			0	37384	0	0	0	27225	25830	158011	27144	1073146	47024	110097	0	0	8103	571835	0	0
2024-09-10 08:02:47			0	37386	0	0	0	27233	25840	158063	26994	1073129	47024	110100	0	0	8103	571722	0	0
2024-09-10 08:03:47			0	37395	0	0	0	27228	25840	158075	27209	1073075	47036	110098	0	0	8103	571364	0	0
2024-09-10 08:04:47			0	37379	0	0	0	27231	25820	158127	26967	1073075	47023	110099	0	0	8102	572067	0	0
2024-09-10 08:05:47			0	37369	0	0	0	27238	25830	158063	27199	1073146	47024	110102	0	0	8102	572433	0	0
2024-09-10 08:06:47			0	37376	0	0	0	27238	25820	158083	27230	1073075	47001	110102	0	0	8102	572187	0	0
2024-09-10 08:07:47			0	37370	0	0	0	27238	25840	158075	27355	1073075	47024	110102	0	0	8102	572361	0	0
2024-09-10 08:08:47			0	37372	0	0	0	27241	25830	158071	27031	1073137	47023	110103	0	0	8102	572313	0	0
2024-09-10 08:09:47			0	37386	0	0	0	27246	25830	158075	27192	1073120	47024	110105	0	0	8103	571755	0	0
2024-09-10 08:10:47			0	37386	0	0	0	27241	25840	158055	27109	1073155	47013	110103	0	0	8103	571722	0	0
2024-09-10 08:11:47			0	37372	0	0	0	27244	25840	158067	27083	1073182	47036	110104	0	0	8102	572281	0	0
2024-09-10 08:12:47			0	37386	0	0	0	27241	25830	157995	27176	1073146	47013	110103	0	0	8103	571755	0	0
2024-09-10 08:13:47			0	37372	0	0	0	27236	25830	157851	27301	1073111	47023	110101	0	0	8102	572313	0	0
2024-09-10 08:14:47			0	37388	0	0	0	27246	25840	157883	27223	1073155	47013	110105	0	0	8103	571643	0	0
2024-09-10 08:15:47			0	37387	0	0	0	27233	25830	157879	26946	1073066	47002	110100	0	0	8103	571715	0	0
2024-09-10 08:16:47			0	37403	0	0	0	27236	25830	157899	27130	1073120	47013	110101	0	0	8104	571078	0	0
2024-09-10 08:17:47			0	37395	0	0	0	27233	25830	157955	27232	1073120	47013	110100	0	0	8103	571396	0	0
2024-09-10 08:18:47			0	37392	0	0	0	27231	25840	157807	27289	1073138	47025	110099	0	0	8103	571483	0	0
2024-09-10 08:19:47			0	37404	0	0	0	27228	25840	157883	27301	1073155	47024	110098	0	0	8104	571005	0	0
2024-09-10 08:20:47			0	37386	0	0	0	27225	25830	157919	27034	1073066	47024	110097	0	0	8103	571755	0	0
2024-09-10 08:21:47			0	37391	0	0	0	27220	25830	157839	27064	1073093	47002	110095	0	0	8103	571556	0	0
2024-09-10 08:22:47			0	37381	0	0	0	27225	25840	157891	27024	1073102	47013	110097	0	0	8103	571922	0	0
2024-09-10 08:23:47			0	37380	0	0	0	27220	25830	157939	27164	1073120	47013	110095	0	0	8103	571994	0	0
2024-09-10 08:24:47			0	37380	0	0	0	27223	25820	157891	27097	1073048	47012	110096	0	0	8103	572027	0	0
2024-09-10 08:25:47			0	37372	0	0	0	27220	25820	157919	27071	1073048	47023	110095	0	0	8102	572346	0	0
2024-09-10 08:26:47			0	37378	0	0	0	27223	25820	158003	27119	1073075	47035	110096	0	0	8102	572107	0	0
2024-09-10 08:27:47			0	37365	0	0	0	27228	25820	157983	27118	1073075	47023	110098	0	0	8102	572625	0	0
2024-09-10 08:28:47			0	37374	0	0	0	27210	25820	157995	26918	1073075	47023	110091	0	0	8102	572266	0	0
2024-09-10 08:29:47			0	37368	0	0	0	27233	25830	157923	27118	1073111	47012	110100	0	0	8102	572473	0	0
2024-09-10 08:30:47			0	37378	0	0	0	27238	25830	158031	27213	1073093	47013	110102	0	0	8102	572074	0	0
2024-09-10 08:31:47			0	37374	0	0	0	27238	25830	158031	26882	1073084	47012	110102	0	0	8102	572234	0	0
2024-09-10 08:32:47			0	37371	0	0	0	27225	25830	157887	27024	1073120	47024	110097	0	0	8102	572353	0	0
2024-09-10 08:33:47			0	37366	0	0	0	27233	25840	157951	27053	1073075	47013	110100	0	0	8102	572520	0	0
2024-09-10 08:34:47			0	37364	0	0	0	27228	25840	157939	26989	1073075	47024	110098	0	0	8102	572600	0	0
2024-09-10 08:35:47			0	37378	0	0	0	27225	25830	157843	26963	1073120	47024	110097	0	0	8102	572074	0	0
2024-09-10 08:36:47			0	37378	0	0	0	27220	25840	157963	26935	1073129	47013	110095	0	0	8103	572042	0	0
2024-09-10 08:37:47			0	37396	0	0	0	27228	25820	157927	26982	1073048	47023	110098	0	0	8103	571389	0	0
2024-09-10 08:38:47			0	37397	0	0	0	27225	25830	157847	27102	1073093	47024	110097	0	0	8104	571317	0	0
2024-09-10 08:39:47			0	37389	0	0	0	27220	25830	157999	27154	1073084	47023	110095	0	0	8103	571636	0	0
2024-09-10 08:40:47			0	37376	0	0	0	27231	25820	158007	27559	1073021	47035	110099	0	0	8102	572187	0	0
2024-09-10 08:41:47			0	37399	0	0	0	27225	25830	157983	27308	1073084	47023	110097	0	0	8104	571237	0	0
2024-09-10 08:42:47			0	37397	0	0	0	27215	25830	158015	27222	1073057	47012	110093	0	0	8104	571317	0	0
2024-09-10 08:43:47			0	37390	0	0	0	27215	25830	157971	27357	1073066	47013	110093	0	0	8103	571596	0	0
2024-09-10 08:44:47			0	37398	0	0	0	27244	25820	157915	27157	1073048	47035	110104	0	0	8103	571309	0	0
2024-09-10 08:45:47			0	37394	0	0	0	27236	25820	157895	27206	1073066	47022	110101	0	0	8103	571469	0	0
2024-09-10 08:46:47			0	37403	0	0	0	27225	25820	157923	27033	1073075	47012	110097	0	0	8104	571110	0	0
2024-09-10 08:47:47			0	37405	0	0	0	27202	25840	157855	27161	1073075	47024	110088	0	0	8104	570965	0	0
2024-09-10 08:48:47			0	37422	0	0	0	27223	25820	157871	27086	1073021	47035	110096	0	0	8105	570353	0	0
2024-09-10 08:49:47			0	37429	0	0	0	27228	25820	157827	27152	1073092	47022	110098	0	0	8105	570075	0	0
2024-09-10 08:50:47			0	37417	0	0	0	27249	25830	157827	26984	1073084	47012	110106	0	0	8104	570520	0	0
2024-09-10 08:51:47			0	37425	0	0	0	27254	25830	157787	27471	1073120	47024	110108	0	0	8105	570202	0	0
2024-09-10 08:52:47			0	37420	0	0	0	27264	25830	157815	27071	1073146	47024	110112	0	0	8104	570401	0	0
2024-09-10 08:53:47			0	37436	0	0	0	27262	25850	157811	27301	1073174	47037	110111	0	0	8105	569699	0	0
2024-09-10 08:54:47			0	37445	0	0	0	27259	25830	157835	27216	1073218	47045	110110	0	0	8106	569406	0	0
2024-09-10 08:55:47			0	37478	0	0	0	27264	25850	157655	27033	1073227	47025	110112	0	0	8108	568030	0	0
2024-09-10 08:56:47			0	37499	0	0	0	27231	25840	157507	27147	1073165	47025	110099	0	0	8109	567229	0	0
2024-09-10 08:57:47			0	37514	0	0	0	27264	25850	157487	26991	1073236	47026	110112	0	0	8110	566602	0	0
2024-09-10 08:58:47			0	37516	0	0	0	27262	25840	157503	26974	1073165	47014	110111	0	0	8110	566555	0	0
2024-09-10 08:59:47			0	37523	0	0	0	27288	25840	157327	27128	1073218	47037	110121	0	0	8110	566278	0	0
2024-09-10 09:00:47			0	37522	0	0	0	27303	25850	157423	27145	1073227	47025	110127	0	0	8110	566285	0	0
2024-09-10 09:01:47			0	37542	0	0	0	27303	25850	157391	27079	1073263	47038	110127	0	0	8111	565493	0	0
2024-09-10 09:02:47			0	37554	0	0	0	27303	25870	157235	26771	1073290	47027	110127	0	0	8112	564954	0	0
2024-09-10 09:03:47			0	37599	0	0	0	27316	25860	157115	27272	1073335	47027	110132	0	0	8114	563207	0	0
2024-09-10 09:04:47			0	37617	0	0	0	27329	25870	157127	27216	1073398	47039	110137	0	0	8115	562465	0	0
2024-09-10 09:05:47			0	37638	0	0	0	27329	25880	156911	26807	1073496	47041	110137	0	0	8116	561605	0	0
2024-09-10 09:06:47			0	37665	0	0	0	27335	25880	156903	26961	1073496	47051	110139	0	0	8118	560542	0	0
2024-09-10 09:07:47			0	37688	0	0	0	27332	25890	156719	27218	1073514	47030	110138	0	0	8119	559605	0	0
2024-09-10 09:08:47			0	37708	0	0	0	27342	25890	156615	26911	1073550	47041	110142	0	0	8120	558819	0	0
2024-09-10 09:09:47			0	37750	0	0	0	27340	25900	156519	27261	1073506	47042	110141	0	0	8123	557139	0	0
2024-09-10 09:10:47			0	37787	0	0	0	27337	25890	156407	27176	1073523	47019	110140	0	0	8125	555722	0	0
2024-09-10 09:11:47			0	37818	0	0	0	27353	25900	156223	27135	1073568	47031	110146	0	0	8126	554477	0	0
2024-09-10 09:12:47			0	37836	0	0	0	27350	25910	156119	27248	1073586	47021	110145	0	0	8127	553743	0	0
2024-09-10 09:13:47			0	37859	0	0	0	27353	25910	156051	27152	1073577	47032	110146	0	0	8129	552845	0	0
2024-09-10 09:14:47			0	37881	0	0	0	27332	25920	155915	27296	1073649	47033	110138	0	0	8130	551956	0	0
2024-09-10 09:15:47			0	37893	0	0	0	27329	25920	155823	27067	1073658	47045	110137	0	0	8131	551488	0	0
2024-09-10 09:16:47			0	37891	0	0	0	27324	25920	155723	27192	1073605	47023	110135	0	0	8131	551566	0	0
2024-09-10 09:17:47			0	37920	0	0	0	27348	25920	155735	27488	1073569	47022	110144	0	0	8132	550438	0	0
2024-09-10 09:18:47			0	37905	0	0	0	27342	25920	155803	27336	1073515	47044	110142	0	0	8132	551021	0	0
2024-09-10 09:19:47			0	37916	0	0	0	27350	25920	155779	27261	1073595	47033	110145	0	0	8132	550593	0	0
2024-09-10 09:20:47			0	37895	0	0	0	27340	25920	155751	27175	1073622	47033	110141	0	0	8131	551410	0	0
2024-09-10 09:21:47			0	37896	0	0	0	27342	25930	155747	27279	1073677	47045	110142	0	0	8131	551340	0	0
2024-09-10 09:22:47			0	37906	0	0	0	27335	25930	155707	27126	1073587	47023	110139	0	0	8132	550951	0	0
2024-09-10 09:23:47			0	37911	0	0	0	27324	25930	155811	27190	1073596	47023	110135	0	0	8132	550756	0	0
2024-09-10 09:24:47			0	37932	0	0	0	27329	25920	155823	27083	1073632	47034	110137	0	0	8133	549971	0	0
2024-09-10 09:25:47			0	37908	0	0	0	27340	25930	155751	26998	1073614	47012	110141	0	0	8132	550873	0	0
2024-09-10 09:26:47			0	37906	0	0	0	27337	25930	155763	27024	1073623	47023	110140	0	0	8132	550951	0	0
2024-09-10 09:27:47			0	37904	0	0	0	27345	25930	155647	27069	1073650	47023	110143	0	0	8132	551029	0	0
2024-09-10 09:28:47			0	37911	0	0	0	27337	25920	155727	26918	1073605	47034	110140	0	0	8132	550788	0	0
2024-09-10 09:29:47			0	37915	0	0	0	27340	25920	155611	27003	1073685	47023	110141	0	0	8132	550632	0	0
2024-09-10 09:30:47			0	37930	0	0	0	27348	25940	155667	27313	1073632	47024	110144	0	0	8133	549986	0	0
2024-09-10 09:31:47			0	37929	0	0	0	27340	25930	155663	27204	1073623	47012	110141	0	0	8133	550056	0	0
2024-09-10 09:32:47			0	37930	0	0	0	27345	25930	155635	27602	1073650	47023	110143	0	0	8133	550017	0	0
2024-09-10 09:33:47			0	37941	0	0	0	27340	25940	155651	27222	1073659	47035	110141	0	0	8134	549558	0	0
2024-09-10 09:34:47			0	37953	0	0	0	27335	25920	155647	27419	1073658	47034	110139	0	0	8134	549155	0	0
2024-09-10 09:35:47			0	37949	0	0	0	27340	25940	155627	27322	1073659	47035	110141	0	0	8134	549247	0	0
2024-09-10 09:36:47			0	37944	0	0	0	27350	25940	155675	27371	1073686	47035	110145	0	0	8134	549442	0	0
2024-09-10 09:37:47			0	37946	0	0	0	27348	25940	155615	27493	1073632	47057	110144	0	0	8134	549364	0	0
2024-09-10 09:38:47			0	37947	0	0	0	27348	25940	155599	27229	1073659	47046	110144	0	0	8134	549325	0	0
2024-09-10 09:39:47			0	37940	0	0	0	27353	25950	155623	27216	1073632	47025	110146	0	0	8134	549566	0	0
2024-09-10 09:40:47			0	37938	0	0	0	27363	25940	155731	27440	1073686	47035	110150	0	0	8133	549675	0	0
2024-09-10 09:41:47			0	37943	0	0	0	27376	25940	155691	27613	1073793	47046	110155	0	0	8133	549481	0	0
2024-09-10 09:42:47			0	37936	0	0	0	27371	25940	155635	27274	1073712	47046	110153	0	0	8133	549753	0	0
2024-09-10 09:43:47			0	37922	0	0	0	27379	25950	155759	27027	1073731	47037	110156	0	0	8132	550265	0	0
2024-09-10 09:44:47			0	37947	0	0	0	27379	25950	155691	27220	1073740	47047	110156	0	0	8134	549294	0	0
2024-09-10 09:45:47			0	37950	0	0	0	27386	25950	155751	27260	1073740	47037	110159	0	0	8134	549177	0	0
2024-09-10 09:46:47			0	37931	0	0	0	27386	25950	155595	27013	1073793	47037	110159	0	0	8132	549916	0	0
2024-09-10 09:47:47			0	37942	0	0	0	27384	25960	155659	27352	1073838	47049	110158	0	0	8133	549457	0	0
2024-09-10 09:48:47			0	37970	0	0	0	27384	25950	155571	27235	1073847	47037	110158	0	0	8135	548401	0	0
2024-09-10 09:49:47			0	37979	0	0	0	27384	25960	155491	27112	1073829	47038	110158	0	0	8135	548020	0	0
2024-09-10 09:50:47			0	37978	0	0	0	27386	25970	155479	27388	1073928	47049	110159	0	0	8135	548028	0	0
2024-09-10 09:51:47			0	37990	0	0	0	27389	25960	155531	26849	1073865	47038	110160	0	0	8136	547594	0	0
2024-09-10 09:52:47			0	37980	0	0	0	27397	25960	155419	27253	1073892	47049	110163	0	0	8135	547982	0	0
2024-09-10 09:53:47			0	37977	0	0	0	27397	25970	155435	27072	1073937	47040	110163	0	0	8135	548067	0	0
2024-09-10 09:54:47			0	37988	0	0	0	27397	25970	155503	27027	1073901	47038	110163	0	0	8136	547640	0	0
2024-09-10 09:55:47			0	37997	0	0	0	27405	25970	155419	27024	1073937	47050	110166	0	0	8136	547291	0	0
2024-09-10 09:56:47			0	38000	0	0	0	27402	25980	155427	27239	1073946	47040	110165	0	0	8136	547144	0	0
2024-09-10 09:57:47			0	37999	0	0	0	27397	25970	155363	27355	1073901	47049	110163	0	0	8136	547214	0	0
2024-09-10 09:58:47			0	38008	0	0	0	27394	25980	155359	27118	1073901	47029	110162	0	0	8137	546834	0	0
2024-09-10 09:59:47			0	37996	0	0	0	27402	25980	155339	27157	1073955	47041	110165	0	0	8136	547299	0	0
2024-09-10 10:00:47			0	38010	0	0	0	27399	25980	155299	27372	1073955	47041	110164	0	0	8137	546757	0	0
2024-09-10 10:01:47			0	38028	0	0	0	27410	25980	155264	27228	1074000	47040	110168	0	0	8138	546060	0	0
2024-09-10 10:02:47			0	38006	0	0	0	27394	25980	155359	27279	1073946	47040	110162	0	0	8137	546911	0	0
2024-09-10 10:03:47			0	38018	0	0	0	27407	25980	155223	27312	1074009	47041	110167	0	0	8137	546447	0	0
2024-09-10 10:04:47			0	38027	0	0	0	27402	25990	155231	27157	1073964	47052	110165	0	0	8138	546067	0	0
2024-09-10 10:05:47			0	38025	0	0	0	27392	25980	155223	27246	1074009	47029	110161	0	0	8138	546176	0	0
2024-09-10 10:06:47			0	38011	0	0	0	27397	25990	155279	27235	1073973	47041	110163	0	0	8137	546687	0	0
2024-09-10 10:07:47			0	38038	0	0	0	27397	25980	155160	27326	1074036	47041	110163	0	0	8139	545673	0	0
2024-09-10 10:08:47			0	38038	0	0	0	27397	25980	155184	27346	1073955	47041	110163	0	0	8139	545673	0	0
2024-09-10 10:09:47			0	38045	0	0	0	27399	25980	155164	27218	1073973	47040	110164	0	0	8139	545402	0	0
2024-09-10 10:10:47			0	38035	0	0	0	27402	25990	155148	27196	1073991	47041	110165	0	0	8138	545758	0	0
2024-09-10 10:11:47			0	38046	0	0	0	27399	25980	155120	27192	1073955	47041	110164	0	0	8139	545363	0	0
2024-09-10 10:12:47			0	38045	0	0	0	27389	25980	155184	27234	1074009	47041	110160	0	0	8139	545402	0	0
2024-09-10 10:13:47			0	38043	0	0	0	27394	25980	155020	27071	1073982	47041	110162	0	0	8139	545479	0	0
2024-09-10 10:14:47			0	38070	0	0	0	27392	25990	155204	27334	1073991	47041	110161	0	0	8141	544405	0	0
2024-09-10 10:15:47			0	38046	0	0	0	27384	25990	155120	27031	1074018	47030	110158	0	0	8139	545332	0	0
2024-09-10 10:16:47			0	38053	0	0	0	27397	25970	155096	26996	1073964	47017	110163	0	0	8139	545124	0	0
2024-09-10 10:17:47			0	38059	0	0	0	27402	25980	155064	27060	1073982	47018	110165	0	0	8140	544861	0	0
2024-09-10 10:18:47			0	38053	0	0	0	27402	25990	155016	27206	1074000	47041	110165	0	0	8139	545062	0	0
2024-09-10 10:19:47			0	38037	0	0	0	27392	25980	155024	27197	1074036	47041	110161	0	0	8139	545711	0	0
2024-09-10 10:20:47			0	38071	0	0	0	27399	25980	155020	27319	1073946	47028	110164	0	0	8141	544397	0	0
2024-09-10 10:21:47			0	38036	0	0	0	27389	25980	155036	27338	1074009	47051	110160	0	0	8139	545750	0	0
2024-09-10 10:22:47			0	38050	0	0	0	27405	25990	155048	26809	1073964	47030	110166	0	0	8139	545178	0	0
2024-09-10 10:23:47			0	38051	0	0	0	27399	26000	155016	27104	1074036	47041	110164	0	0	8139	545108	0	0
2024-09-10 10:24:47			0	38044	0	0	0	27402	25990	155104	27171	1073973	47041	110165	0	0	8139	545410	0	0
2024-09-10 10:25:47			0	38069	0	0	0	27402	25980	154948	27046	1074009	47029	110165	0	0	8140	544474	0	0
2024-09-10 10:26:47			0	38052	0	0	0	27392	25990	155000	27213	1073964	47041	110161	0	0	8140	545100	0	0
2024-09-10 10:27:47			0	38059	0	0	0	27407	25980	155008	27248	1073946	47040	110167	0	0	8140	544861	0	0
2024-09-10 10:28:47			0	38069	0	0	0	27410	26000	154916	27428	1073982	47041	110168	0	0	8140	544412	0	0
2024-09-10 10:29:47			0	38058	0	0	0	27428	25990	155008	27490	1074045	47041	110175	0	0	8139	544868	0	0
2024-09-10 10:30:47			0	38071	0	0	0	27425	25990	155012	27426	1074027	47041	110174	0	0	8140	544366	0	0
2024-09-10 10:31:47			0	38071	0	0	0	27425	25990	154976	27471	1073991	47041	110174	0	0	8140	544366	0	0
2024-09-10 10:32:47			0	38061	0	0	0	27431	25990	155032	27154	1074054	47030	110176	0	0	8139	544752	0	0
2024-09-10 10:33:47			0	38087	0	0	0	27431	26000	154928	27324	1074036	47030	110176	0	0	8141	543717	0	0
2024-09-10 10:34:47			0	38070	0	0	0	27438	25990	154840	27421	1074054	47052	110179	0	0	8140	544405	0	0
2024-09-10 10:35:47			0	38092	0	0	0	27433	26000	154896	27183	1074125	47042	110177	0	0	8141	543524	0	0
2024-09-10 10:36:47			0	38105	0	0	0	27431	25990	154884	27095	1074080	47041	110176	0	0	8142	543054	0	0
2024-09-10 10:37:47			0	38107	0	0	0	27436	26000	154900	27097	1074090	47052	110178	0	0	8142	542946	0	0
2024-09-10 10:38:47			0	38102	0	0	0	27431	26000	154852	27460	1074099	47042	110176	0	0	8142	543139	0	0
2024-09-10 10:39:47			0	38116	0	0	0	27436	26000	154824	27173	1074072	47042	110178	0	0	8143	542599	0	0
2024-09-10 10:40:47			0	38121	0	0	0	27431	26010	154820	27293	1074090	47065	110176	0	0	8143	542375	0	0
2024-09-10 10:41:47			0	38113	0	0	0	27431	26010	154856	27421	1074144	47043	110176	0	0	8143	542684	0	0
2024-09-10 10:42:47			0	38103	0	0	0	27428	26020	154788	27419	1074126	47032	110175	0	0	8142	543038	0	0
2024-09-10 10:43:47			0	38104	0	0	0	27436	26010	154876	27216	1074161	47032	110178	0	0	8142	543030	0	0
2024-09-10 10:44:47			0	38113	0	0	0	27441	26020	154776	27242	1074153	47043	110180	0	0	8142	542653	0	0
2024-09-10 10:45:47			0	38107	0	0	0	27441	26020	154836	27580	1074188	47066	110180	0	0	8142	542884	0	0
2024-09-10 10:46:47			0	38104	0	0	0	27438	26020	154868	27287	1074126	47043	110179	0	0	8142	543000	0	0
2024-09-10 10:47:47			0	38107	0	0	0	27449	26010	154800	27289	1074161	47043	110183	0	0	8142	542915	0	0
2024-09-10 10:48:47			0	38086	0	0	0	27436	26030	154912	27443	1074171	47045	110178	0	0	8141	543663	0	0
2024-09-10 10:49:47			0	38101	0	0	0	27451	26020	154820	27433	1074188	47033	110184	0	0	8142	543115	0	0
2024-09-10 10:50:47			0	38108	0	0	0	27454	26020	154812	27705	1074206	47054	110185	0	0	8142	542845	0	0
2024-09-10 10:51:47			0	38110	0	0	0	27454	26020	154828	27279	1074233	47032	110185	0	0	8142	542768	0	0
2024-09-10 10:52:47			0	38099	0	0	0	27459	26040	154796	27187	1074242	47045	110187	0	0	8141	543130	0	0
2024-09-10 10:53:47			0	38114	0	0	0	27467	26030	154828	27336	1074171	47056	110190	0	0	8142	542583	0	0
2024-09-10 10:54:47			0	38098	0	0	0	27467	26030	154932	27182	1074314	47045	110190	0	0	8141	543200	0	0
2024-09-10 10:55:47			0	38110	0	0	0	27467	26040	154836	27206	1074296	47056	110190	0	0	8142	542706	0	0
2024-09-10 10:56:47			0	38124	0	0	0	27464	26040	154740	27562	1074252	47068	110189	0	0	8143	542167	0	0
2024-09-10 10:57:47			0	38135	0	0	0	27472	26040	154792	27301	1074269	47045	110192	0	0	8143	541743	0	0
2024-09-10 10:58:47			0	38135	0	0	0	27470	26050	154736	27440	1074315	47047	110191	0	0	8143	541712	0	0
2024-09-10 10:59:47			0	38143	0	0	0	27472	26040	154604	27279	1074306	47046	110192	0	0	8144	541435	0	0
2024-09-10 11:00:47			0	38169	0	0	0	27472	26040	154696	27498	1074306	47057	110192	0	0	8145	540435	0	0
2024-09-10 11:01:47			0	38180	0	0	0	27472	26050	154608	27306	1074288	47047	110192	0	0	8146	539982	0	0
2024-09-10 11:02:47			0	38165	0	0	0	27475	26050	154596	27409	1074341	47047	110193	0	0	8145	540558	0	0
2024-09-10 11:03:47			0	38182	0	0	0	27472	26050	154528	27469	1074350	47048	110192	0	0	8146	539905	0	0
2024-09-10 11:04:47			0	38164	0	0	0	27477	26070	154572	27388	1074342	47048	110194	0	0	8145	540535	0	0
2024-09-10 11:05:47			0	38170	0	0	0	27485	26060	154608	27227	1074386	47037	110197	0	0	8145	540335	0	0
2024-09-10 11:06:47			0	38171	0	0	0	27485	26050	154668	27272	1074324	47048	110197	0	0	8145	540327	0	0
2024-09-10 11:07:47			0	38177	0	0	0	27467	26070	154568	27287	1074395	47037	110190	0	0	8146	540035	0	0
2024-09-10 11:08:47			0	38149	0	0	0	27477	26060	154544	27396	1074360	47059	110194	0	0	8144	541143	0	0
2024-09-10 11:09:47			0	38169	0	0	0	27472	26060	154484	27388	1074386	47026	110192	0	0	8145	540374	0	0
2024-09-10 11:10:47			0	38174	0	0	0	27454	26070	154556	27258	1074324	47049	110185	0	0	8146	540151	0	0
2024-09-10 11:11:47			0	38175	0	0	0	27480	26070	154552	27260	1074315	47037	110195	0	0	8146	540112	0	0
2024-09-10 11:12:47			0	38159	0	0	0	27477	26070	154568	27102	1074395	47048	110194	0	0	8145	540727	0	0
2024-09-10 11:13:47			0	38139	0	0	0	27493	26060	154732	27126	1074413	47059	110200	0	0	8143	541527	0	0
2024-09-10 11:14:47			0	38113	0	0	0	27483	26080	154840	27471	1074414	47039	110196	0	0	8142	542467	0	0
2024-09-10 11:15:47			0	38124	0	0	0	27483	26070	154728	27213	1074422	47059	110196	0	0	8143	542074	0	0
2024-09-10 11:16:47			0	38117	0	0	0	27467	26070	154724	27497	1074378	47038	110190	0	0	8142	542344	0	0
2024-09-10 11:17:47			0	38119	0	0	0	27464	26070	154752	27287	1074378	47038	110189	0	0	8143	542267	0	0
2024-09-10 11:18:47			0	38113	0	0	0	27483	26070	154788	27483	1074351	47049	110196	0	0	8142	542498	0	0
2024-09-10 11:19:47			0	38100	0	0	0	27490	26060	154752	27071	1074360	47048	110199	0	0	8141	543030	0	0
2024-09-10 11:20:47			0	38107	0	0	0	27488	26080	154792	27336	1074440	47050	110198	0	0	8142	542698	0	0
2024-09-10 11:21:47			0	38081	0	0	0	27488	26070	154796	27371	1074449	47048	110198	0	0	8140	543732	0	0
2024-09-10 11:22:47			0	38096	0	0	0	27490	26070	154848	27322	1074431	47049	110199	0	0	8141	543153	0	0
2024-09-10 11:23:47			0	38102	0	0	0	27488	26070	154844	27429	1074378	47049	110198	0	0	8141	542922	0	0
2024-09-10 11:24:47			0	38106	0	0	0	27501	26070	154808	27668	1074431	47038	110203	0	0	8141	542768	0	0
2024-09-10 11:25:47			0	38094	0	0	0	27488	26080	154792	27201	1074414	47050	110198	0	0	8141	543199	0	0
2024-09-10 11:26:47			0	38087	0	0	0	27498	26100	154800	27377	1074503	47052	110202	0	0	8140	543407	0	0
2024-09-10 11:27:47			0	38102	0	0	0	27511	26100	154824	27395	1074477	47041	110207	0	0	8141	542829	0	0
2024-09-10 11:28:47			0	38092	0	0	0	27511	26090	154764	27163	1074548	47062	110207	0	0	8140	543245	0	0
2024-09-10 11:29:47			0	38115	0	0	0	27509	26090	154776	27460	1074485	47050	110206	0	0	8142	542359	0	0
2024-09-10 11:30:47			0	38129	0	0	0	27509	26100	154748	27473	1074503	47041	110206	0	0	8143	541789	0	0
2024-09-10 11:31:47			0	38123	0	0	0	27490	26080	154680	27519	1074503	47050	110199	0	0	8142	542082	0	0
2024-09-10 11:32:47			0	38144	0	0	0	27506	26100	154556	27251	1074513	47041	110205	0	0	8143	541212	0	0
2024-09-10 11:33:47			0	38136	0	0	0	27529	26100	154636	27417	1074620	47041	110214	0	0	8143	541519	0	0
2024-09-10 11:34:47			0	38150	0	0	0	27532	26100	154820	27279	1074530	47041	110215	0	0	8143	540981	0	0
2024-09-10 11:35:47			0	38115	0	0	0	27529	26090	154620	27279	1074602	47073	110214	0	0	8141	542359	0	0
2024-09-10 11:36:47			0	38150	0	0	0	27529	26100	154504	27303	1074611	47030	110214	0	0	8143	540981	0	0
2024-09-10 11:37:47			0	38163	0	0	0	27529	26110	154524	27317	1074683	47052	110214	0	0	8144	540450	0	0
2024-09-10 11:38:47			0	38172	0	0	0	27542	26110	154588	27324	1074692	47053	110219	0	0	8145	540104	0	0
2024-09-10 11:39:47			0	38191	0	0	0	27548	26110	154448	27395	1074656	47052	110221	0	0	8146	539374	0	0
2024-09-10 11:40:47			0	38196	0	0	0	27553	26120	154356	27569	1074674	47054	110223	0	0	8146	539152	0	0
2024-09-10 11:41:47			0	38217	0	0	0	27558	26120	154376	27393	1074656	47055	110225	0	0	8147	538346	0	0
2024-09-10 11:42:47			0	38205	0	0	0	27545	26120	154376	27483	1074683	47055	110220	0	0	8146	538806	0	0
2024-09-10 11:43:47			0	38215	0	0	0	27545	26130	154380	27355	1074692	47055	110220	0	0	8147	538392	0	0
2024-09-10 11:44:47			0	38231	0	0	0	27537	26130	154252	27327	1074728	47055	110217	0	0	8148	537779	0	0
2024-09-10 11:45:47			0	38255	0	0	0	27542	26130	154148	27163	1074701	47077	110219	0	0	8149	536860	0	0
2024-09-10 11:46:47			0	38258	0	0	0	27548	26130	154200	27351	1074746	47055	110221	0	0	8149	536745	0	0
2024-09-10 11:47:47			0	38250	0	0	0	27558	26140	154180	27443	1074764	47056	110225	0	0	8149	537020	0	0
2024-09-10 11:48:47			0	38266	0	0	0	27558	26130	154176	27388	1074755	47055	110225	0	0	8150	536439	0	0
2024-09-10 11:49:47			0	38259	0	0	0	27555	26140	154264	27374	1074737	47045	110224	0	0	8149	536676	0	0
2024-09-10 11:50:47			0	38269	0	0	0	27550	26130	154096	27538	1074755	47055	110222	0	0	8150	536324	0	0
2024-09-10 11:51:47			0	38274	0	0	0	27555	26140	154156	27331	1074800	47057	110224	0	0	8150	536102	0	0
2024-09-10 11:52:47			0	38266	0	0	0	27561	26140	154100	27372	1074827	47057	110226	0	0	8150	536408	0	0
2024-09-10 11:53:47			0	38283	0	0	0	27558	26140	154044	27635	1074800	47057	110225	0	0	8151	535758	0	0
2024-09-10 11:54:47			0	38297	0	0	0	27555	26140	154032	27588	1074818	47056	110224	0	0	8152	535223	0	0
2024-09-10 11:55:47			0	38291	0	0	0	27545	26150	154012	27443	1074782	47057	110220	0	0	8152	535422	0	0
2024-09-10 11:56:47			0	38287	0	0	0	27550	26150	153996	27523	1074764	47045	110222	0	0	8151	535574	0	0
2024-09-10 11:57:47			0	38288	0	0	0	27550	26140	154020	27786	1074773	47045	110222	0	0	8151	535567	0	0
2024-09-10 11:58:47			0	38293	0	0	0	27563	26140	154044	27371	1074773	47045	110227	0	0	8151	535376	0	0
2024-09-10 11:59:47			0	38280	0	0	0	27561	26140	153932	27329	1074764	47067	110226	0	0	8151	535873	0	0
2024-09-10 12:00:47			0	38274	0	0	0	27574	26140	154028	27462	1074844	47034	110231	0	0	8150	536102	0	0
2024-09-10 12:01:47			0	38270	0	0	0	27586	26150	154064	27220	1074845	47057	110236	0	0	8150	536224	0	0
2024-09-10 12:02:47			0	38283	0	0	0	27584	26150	154100	27512	1074863	47057	110235	0	0	8150	535727	0	0
2024-09-10 12:03:47			0	38274	0	0	0	27581	26150	154080	27499	1074898	47057	110234	0	0	8150	536071	0	0
2024-09-10 12:04:47			0	38285	0	0	0	27571	26160	153944	27486	1074916	47059	110230	0	0	8151	535620	0	0
2024-09-10 12:05:47			0	38307	0	0	0	27574	26160	153800	27509	1074827	47058	110231	0	0	8152	534780	0	0
2024-09-10 12:06:47			0	38308	0	0	0	27597	26160	153972	27552	1074890	47070	110240	0	0	8152	534742	0	0
2024-09-10 12:07:47			0	38323	0	0	0	27594	26160	153884	27353	1074970	47082	110239	0	0	8153	534169	0	0
2024-09-10 12:08:47			0	38328	0	0	0	27579	26160	153792	27580	1074961	47058	110233	0	0	8153	533978	0	0
2024-09-10 12:09:47			0	38322	0	0	0	27555	26170	153820	27300	1074935	47059	110224	0	0	8153	534177	0	0
2024-09-10 12:10:47			0	38344	0	0	0	27555	26170	153796	27466	1074899	47047	110224	0	0	8154	533338	0	0
2024-09-10 12:11:47			0	38319	0	0	0	27568	26170	153860	27370	1074899	47059	110229	0	0	8153	534291	0	0
2024-09-10 12:12:47			0	38280	0	0	0	27579	26170	154064	27512	1074872	47059	110233	0	0	8150	535781	0	0
2024-09-10 12:13:47			0	38248	0	0	0	27602	26160	154120	27313	1074916	47070	110242	0	0	8148	537036	0	0
2024-09-10 12:14:47			0	38234	0	0	0	27579	26170	154180	27441	1074952	47059	110233	0	0	8148	537541	0	0
2024-09-10 12:15:47			0	38227	0	0	0	27581	26170	154144	27383	1074952	47082	110234	0	0	8147	537809	0	0
2024-09-10 12:16:47			0	38224	0	0	0	27597	26170	154264	27303	1074952	47059	110240	0	0	8147	537924	0	0
2024-09-10 12:17:47			0	38229	0	0	0	27594	26170	154260	27317	1074935	47070	110239	0	0	8147	537733	0	0
2024-09-10 12:18:47			0	38232	0	0	0	27586	26170	154272	27150	1074989	47047	110236	0	0	8148	537618	0	0
2024-09-10 12:19:47			0	38210	0	0	0	27610	26180	154288	27001	1075025	47060	110245	0	0	8146	538430	0	0
2024-09-10 12:20:47			0	38211	0	0	0	27597	26170	154272	27445	1074979	47070	110240	0	0	8146	538423	0	0
2024-09-10 12:21:47			0	38198	0	0	0	27592	26180	154376	27137	1075007	47061	110238	0	0	8146	538890	0	0
2024-09-10 12:22:47			0	38193	0	0	0	27602	26170	154460	27552	1075069	47059	110242	0	0	8145	539113	0	0
2024-09-10 12:23:47			0	38172	0	0	0	27607	26190	154436	27412	1075025	47062	110244	0	0	8144	539858	0	0
2024-09-10 12:24:47			0	38179	0	0	0	27618	26180	154408	27412	1075025	47083	110248	0	0	8144	539620	0	0
2024-09-10 12:25:47			0	38177	0	0	0	27610	26190	154520	27173	1075052	47062	110245	0	0	8144	539666	0	0
2024-09-10 12:26:47			0	38175	0	0	0	27610	26200	154424	27637	1075115	47062	110245	0	0	8144	539712	0	0
2024-09-10 12:27:47			0	38203	0	0	0	27612	26190	154312	27393	1075132	47062	110246	0	0	8145	538668	0	0
2024-09-10 12:28:47			0	38205	0	0	0	27607	26190	154288	27072	1075096	47073	110244	0	0	8146	538591	0	0
2024-09-10 12:29:47			0	38216	0	0	0	27623	26200	154236	27628	1075097	47074	110250	0	0	8146	538139	0	0
2024-09-10 12:30:47			0	38208	0	0	0	27628	26200	154284	27391	1075097	47063	110252	0	0	8146	538445	0	0
2024-09-10 12:31:47			0	38224	0	0	0	27623	26200	154288	26989	1075124	47063	110250	0	0	8147	537832	0	0
2024-09-10 12:32:47			0	38222	0	0	0	27631	26190	154272	27435	1075105	47073	110253	0	0	8146	537939	0	0
2024-09-10 12:33:47			0	38224	0	0	0	27631	26200	154180	27131	1075168	47062	110253	0	0	8146	537832	0	0
2024-09-10 12:34:47			0	38227	0	0	0	27631	26210	154180	27317	1075186	47064	110253	0	0	8147	537686	0	0
2024-09-10 12:35:47			0	38234	0	0	0	27633	26210	154128	27161	1075133	47075	110254	0	0	8147	537418	0	0
2024-09-10 12:36:47			0	38259	0	0	0	27644	26200	154084	27379	1075285	47063	110258	0	0	8148	536492	0	0
2024-09-10 12:37:47			0	38257	0	0	0	27646	26220	153948	27545	1075187	47065	110259	0	0	8148	536507	0	0
2024-09-10 12:38:47			0	38261	0	0	0	27636	26200	154104	27632	1075231	47052	110255	0	0	8148	536416	0	0
2024-09-10 12:39:47			0	38269	0	0	0	27657	26220	154116	27170	1075285	47075	110263	0	0	8149	536048	0	0
2024-09-10 12:40:47			0	38262	0	0	0	27657	26220	154128	27338	1075240	47076	110263	0	0	8148	536316	0	0
2024-09-10 12:41:47			0	38263	0	0	0	27664	26220	153996	27533	1075267	47065	110266	0	0	8148	536278	0	0
2024-09-10 12:42:47			0	38280	0	0	0	27667	26230	154100	27204	1075303	47066	110267	0	0	8149	535597	0	0
2024-09-10 12:43:47			0	38276	0	0	0	27659	26220	153948	27428	1075348	47087	110264	0	0	8149	535781	0	0
2024-09-10 12:44:47			0	38279	0	0	0	27664	26230	153956	27459	1075285	47055	110266	0	0	8149	535636	0	0
2024-09-10 12:45:47			0	38299	0	0	0	27664	26240	153984	27384	1075384	47067	110266	0	0	8150	534841	0	0
2024-09-10 12:46:47			0	38297	0	0	0	27667	26240	154012	27332	1075429	47066	110267	0	0	8150	534917	0	0
2024-09-10 12:47:47			0	38293	0	0	0	27690	26240	153976	27305	1075375	47077	110276	0	0	8150	535070	0	0
2024-09-10 12:48:47			0	38297	0	0	0	27680	26230	153932	27116	1075393	47066	110272	0	0	8150	534948	0	0
2024-09-10 12:49:47			0	38306	0	0	0	27693	26240	153916	27336	1075429	47077	110277	0	0	8150	534574	0	0
2024-09-10 12:50:47			0	38325	0	0	0	27690	26240	153812	27308	1075357	47078	110276	0	0	8151	533849	0	0
2024-09-10 12:51:47			0	38327	0	0	0	27690	26240	153820	27171	1075518	47078	110276	0	0	8152	533773	0	0
2024-09-10 12:52:47			0	38345	0	0	0	27683	26250	153748	27480	1075429	47068	110273	0	0	8153	533056	0	0
2024-09-10 12:53:47			0	38349	0	0	0	27677	26260	153688	27355	1075465	47058	110271	0	0	8153	532873	0	0
2024-09-10 12:54:47			0	38350	0	0	0	27672	26250	153708	27409	1075420	47068	110269	0	0	8153	532866	0	0
2024-09-10 12:55:47			0	38351	0	0	0	27672	26260	153764	27402	1075438	47069	110269	0	0	8153	532797	0	0
2024-09-10 12:56:47			0	38355	0	0	0	27664	26260	153696	27595	1075420	47069	110266	0	0	8154	532645	0	0
2024-09-10 12:57:47			0	38353	0	0	0	27698	26260	153744	27322	1075474	47069	110279	0	0	8153	532721	0	0
2024-09-10 12:58:47			0	38352	0	0	0	27709	26270	153672	27220	1075537	47070	110283	0	0	8153	532729	0	0
2024-09-10 12:59:47			0	38391	0	0	0	27714	26260	153636	27284	1075501	47080	110285	0	0	8155	531275	0	0
2024-09-10 13:00:47			0	38400	0	0	0	27722	26260	153448	27300	1075555	47080	110288	0	0	8155	530933	0	0
2024-09-10 13:01:47			0	38414	0	0	0	27711	26260	153532	27472	1075528	47080	110284	0	0	8156	530401	0	0
2024-09-10 13:02:47			0	38432	0	0	0	27727	26280	153392	27604	1075555	47071	110290	0	0	8157	529657	0	0
2024-09-10 13:03:47			0	38437	0	0	0	27729	26280	153376	27156	1075591	47071	110291	0	0	8157	529467	0	0
2024-09-10 13:04:47			0	38449	0	0	0	27735	26280	153308	27481	1075591	47071	110293	0	0	8158	529012	0	0
2024-09-10 13:05:47			0	38466	0	0	0	27732	26290	153332	27312	1075636	47083	110292	0	0	8159	528338	0	0
2024-09-10 13:06:47			0	38488	0	0	0	27732	26290	153256	27348	1075663	47095	110292	0	0	8160	527505	0	0
2024-09-10 13:07:47			0	38483	0	0	0	27724	26290	153204	27154	1075663	47073	110289	0	0	8160	527694	0	0
2024-09-10 13:08:47			0	38483	0	0	0	27719	26300	153176	27339	1075699	47083	110287	0	0	8160	527664	0	0
2024-09-10 13:09:47			0	38489	0	0	0	27729	26300	153216	27315	1075681	47073	110291	0	0	8160	527437	0	0
2024-09-10 13:10:47			0	38498	0	0	0	27716	26300	153288	27275	1075618	47073	110286	0	0	8161	527096	0	0
2024-09-10 13:11:47			0	38463	0	0	0	27706	26300	153240	27310	1075681	47083	110282	0	0	8159	528421	0	0
2024-09-10 13:12:47			0	38473	0	0	0	27722	26300	153284	27452	1075654	47073	110288	0	0	8160	528042	0	0
2024-09-10 13:13:47			0	38462	0	0	0	27724	26300	153248	27454	1075672	47073	110289	0	0	8159	528459	0	0
2024-09-10 13:14:47			0	38488	0	0	0	27724	26300	153120	27301	1075699	47073	110289	0	0	8161	527474	0	0
2024-09-10 13:15:47			0	38487	0	0	0	27722	26310	153080	27384	1075690	47084	110288	0	0	8161	527482	0	0
2024-09-10 13:16:47			0	38493	0	0	0	27722	26310	153148	27239	1075699	47052	110288	0	0	8161	527255	0	0
2024-09-10 13:17:47			0	38496	0	0	0	27709	26310	153168	27485	1075717	47074	110283	0	0	8161	527142	0	0
2024-09-10 13:18:47			0	38494	0	0	0	27716	26300	153136	27371	1075726	47073	110286	0	0	8161	527247	0	0
2024-09-10 13:19:47			0	38490	0	0	0	27716	26300	153084	27414	1075708	47073	110286	0	0	8161	527399	0	0
2024-09-10 13:20:47			0	38496	0	0	0	27693	26310	153216	27275	1075726	47075	110277	0	0	8162	527142	0	0
2024-09-10 13:21:47			0	38488	0	0	0	27690	26300	153136	27788	1075681	47062	110276	0	0	8161	527474	0	0
2024-09-10 13:22:47			0	38497	0	0	0	27706	26300	153052	27751	1075654	47073	110282	0	0	8161	527134	0	0
2024-09-10 13:23:47			0	38500	0	0	0	27735	26300	153180	27644	1075654	47062	110293	0	0	8161	527020	0	0
2024-09-10 13:24:47			0	38498	0	0	0	27724	26300	153168	27415	1075708	47083	110289	0	0	8161	527096	0	0
2024-09-10 13:25:47			0	38500	0	0	0	27745	26310	153092	27147	1075717	47063	110297	0	0	8161	526990	0	0
2024-09-10 13:26:47			0	38511	0	0	0	27750	26300	153132	27270	1075708	47073	110299	0	0	8161	526604	0	0
2024-09-10 13:27:47			0	38534	0	0	0	27748	26310	153100	27265	1075717	47096	110298	0	0	8163	525705	0	0
2024-09-10 13:28:47			0	38538	0	0	0	27740	26310	153072	27267	1075726	47075	110295	0	0	8163	525554	0	0
2024-09-10 13:29:47			0	38551	0	0	0	27750	26320	152856	27384	1075762	47085	110299	0	0	8164	525033	0	0
2024-09-10 13:30:47			0	38576	0	0	0	27753	26320	152888	27687	1075798	47076	110300	0	0	8165	524090	0	0
2024-09-10 13:31:47			0	38563	0	0	0	27771	26330	152848	27471	1075861	47086	110307	0	0	8164	524550	0	0
2024-09-10 13:32:47			0	38559	0	0	0	27763	26320	152996	27171	1075816	47085	110304	0	0	8164	524731	0	0
2024-09-10 13:33:47			0	38563	0	0	0	27771	26330	152864	27357	1075888	47098	110307	0	0	8164	524550	0	0
2024-09-10 13:34:47			0	38574	0	0	0	27771	26340	152848	27526	1075959	47077	110307	0	0	8165	524106	0	0
2024-09-10 13:35:47			0	38583	0	0	0	27768	26340	152884	27478	1075933	47077	110306	0	0	8165	523766	0	0
2024-09-10 13:36:47			0	38579	0	0	0	27745	26340	152796	27204	1075861	47078	110297	0	0	8166	523917	0	0
2024-09-10 13:37:47			0	38564	0	0	0	27748	26340	152908	27595	1075888	47067	110298	0	0	8165	524483	0	0
2024-09-10 13:38:47			0	38561	0	0	0	27742	26340	152852	27455	1075888	47078	110296	0	0	8165	524596	0	0
2024-09-10 13:39:47			0	38555	0	0	0	27732	26340	152848	27258	1075825	47077	110292	0	0	8164	524822	0	0
2024-09-10 13:40:47			0	38547	0	0	0	27742	26330	152804	27319	1075762	47066	110296	0	0	8164	525154	0	0
2024-09-10 13:41:47			0	38531	0	0	0	27750	26330	152932	27320	1075789	47054	110299	0	0	8163	525758	0	0
2024-09-10 13:42:47			0	38547	0	0	0	27761	26330	152924	27445	1075870	47077	110303	0	0	8163	525154	0	0
2024-09-10 13:43:47			0	38547	0	0	0	27758	26340	152948	27435	1075906	47077	110302	0	0	8164	525124	0	0
2024-09-10 13:44:47			0	38583	0	0	0	27750	26340	152748	27410	1075879	47087	110299	0	0	8166	523766	0	0
2024-09-10 13:45:47			0	38577	0	0	0	27753	26340	152816	27531	1075861	47089	110300	0	0	8165	523993	0	0
2024-09-10 13:46:47			0	38568	0	0	0	27786	26340	152820	27583	1075861	47078	110313	0	0	8164	524332	0	0
2024-09-10 13:47:47			0	38606	0	0	0	27761	26340	152708	27336	1075852	47087	110303	0	0	8167	522900	0	0
2024-09-10 13:48:47			0	38620	0	0	0	27779	26350	152612	27414	1075951	47089	110310	0	0	8167	522343	0	0
2024-09-10 13:49:47			0	38626	0	0	0	27766	26350	152584	27424	1075879	47090	110305	0	0	8168	522118	0	0
2024-09-10 13:50:47			0	38632	0	0	0	27758	26350	152592	27218	1075924	47089	110302	0	0	8168	521892	0	0
2024-09-10 13:51:47			0	38633	0	0	0	27758	26350	152648	27279	1075933	47090	110302	0	0	8168	521855	0	0
2024-09-10 13:52:47			0	38611	0	0	0	27771	26340	152676	27524	1075798	47087	110307	0	0	8167	522712	0	0
2024-09-10 13:53:47			0	38623	0	0	0	27761	26350	152652	27263	1075951	47089	110303	0	0	8168	522231	0	0
2024-09-10 13:54:47			0	38599	0	0	0	27768	26350	152628	27762	1075924	47078	110306	0	0	8166	523134	0	0
2024-09-10 13:55:47			0	38588	0	0	0	27773	26340	152792	27682	1075915	47078	110308	0	0	8166	523578	0	0
2024-09-10 13:56:47			0	38593	0	0	0	27755	26370	152728	27253	1075951	47069	110301	0	0	8166	523300	0	0
2024-09-10 13:57:47			0	38614	0	0	0	27729	26360	152708	27469	1075942	47080	110291	0	0	8168	522539	0	0
2024-09-10 13:58:47			0	38608	0	0	0	27722	26380	152704	27578	1075889	47081	110288	0	0	8168	522705	0	0
2024-09-10 13:59:47			0	38603	0	0	0	27732	26360	152716	27651	1075889	47080	110292	0	0	8167	522953	0	0
2024-09-10 14:00:47			0	38582	0	0	0	27711	26340	152668	27353	1075861	47055	110284	0	0	8166	523804	0	0
2024-09-10 14:01:47			0	38592	0	0	0	27722	26340	152800	27448	1075825	47077	110288	0	0	8167	523427	0	0
2024-09-10 14:02:47			0	38571	0	0	0	27709	26340	152876	27332	1075798	47054	110283	0	0	8166	524219	0	0
2024-09-10 14:03:47			0	38551	0	0	0	27735	26330	152996	27623	1075753	47053	110293	0	0	8164	525003	0	0
2024-09-10 14:04:47			0	38579	0	0	0	27729	26330	152948	27505	1075807	47065	110291	0	0	8166	523947	0	0
2024-09-10 14:05:47			0	38557	0	0	0	27735	26330	152912	27595	1075726	47076	110293	0	0	8164	524777	0	0
2024-09-10 14:06:47			0	38553	0	0	0	27745	26330	152940	27564	1075807	47065	110297	0	0	8164	524928	0	0
2024-09-10 14:07:47			0	38563	0	0	0	27735	26330	152888	27390	1075780	47076	110293	0	0	8165	524550	0	0
2024-09-10 14:08:47			0	38577	0	0	0	27716	26330	152868	27279	1075780	47065	110286	0	0	8166	524023	0	0
2024-09-10 14:09:47			0	38567	0	0	0	27735	26330	152880	27391	1075870	47077	110293	0	0	8165	524399	0	0
2024-09-10 14:10:47			0	38562	0	0	0	27740	26330	152828	27222	1075816	47077	110295	0	0	8165	524588	0	0
2024-09-10 14:11:47			0	38568	0	0	0	27722	26340	152840	27765	1075825	47087	110288	0	0	8165	524332	0	0
2024-09-10 14:12:47			0	38564	0	0	0	27745	26340	153000	27741	1075771	47066	110297	0	0	8165	524483	0	0
2024-09-10 14:13:47			0	38576	0	0	0	27724	26320	152848	27445	1075878	47076	110289	0	0	8166	524090	0	0
2024-09-10 14:14:47			0	38565	0	0	0	27732	26330	152868	27497	1075780	47086	110292	0	0	8165	524475	0	0
2024-09-10 14:15:47			0	38565	0	0	0	27724	26330	152848	27490	1075807	47065	110289	0	0	8165	524475	0	0
2024-09-10 14:16:47			0	38571	0	0	0	27768	26320	152872	27362	1075852	47076	110306	0	0	8165	524279	0	0
2024-09-10 14:17:47			0	38614	0	0	0	27735	26340	152700	27374	1075888	47089	110293	0	0	8168	522599	0	0
2024-09-10 14:18:47			0	38593	0	0	0	27781	26340	152804	27346	1075879	47087	110311	0	0	8166	523390	0	0
2024-09-10 14:19:47			0	38609	0	0	0	27758	26340	152700	27248	1075915	47078	110302	0	0	8167	522787	0	0
2024-09-10 14:20:47			0	38616	0	0	0	27776	26340	152768	27402	1075942	47089	110309	0	0	8167	522524	0	0
2024-09-10 14:21:47			0	38617	0	0	0	27745	26350	152740	27360	1075897	47078	110297	0	0	8168	522456	0	0
2024-09-10 14:22:47			0	38621	0	0	0	27748	26350	152648	27588	1075951	47078	110298	0	0	8168	522306	0	0
2024-09-10 14:23:47			0	38615	0	0	0	27737	26350	152608	27450	1075933	47079	110294	0	0	8168	522531	0	0
2024-09-10 14:24:47			0	38611	0	0	0	27703	26350	152640	27305	1075897	47078	110281	0	0	8168	522682	0	0
2024-09-10 14:25:47			0	38591	0	0	0	27683	26340	152744	27545	1075834	47067	110273	0	0	8167	523465	0	0
2024-09-10 14:26:47			0	38571	0	0	0	27670	26340	152832	27395	1075798	47054	110268	0	0	8166	524219	0	0
2024-09-10 14:27:47			0	38547	0	0	0	27709	26340	152892	27358	1075771	47066	110283	0	0	8164	525124	0	0
2024-09-10 14:28:47			0	38540	0	0	0	27685	26320	153104	27419	1075771	47076	110274	0	0	8164	525448	0	0
2024-09-10 14:29:47			0	38527	0	0	0	27688	26320	152932	27518	1075771	47053	110275	0	0	8163	525939	0	0
2024-09-10 14:30:47			0	38514	0	0	0	27670	26310	153204	27571	1075699	47064	110268	0	0	8163	526461	0	0
2024-09-10 14:31:47			0	38493	0	0	0	27683	26310	153136	27590	1075717	47051	110273	0	0	8162	527255	0	0
2024-09-10 14:32:47			0	38479	0	0	0	27688	26310	153160	27203	1075690	47051	110275	0	0	8161	527785	0	0
2024-09-10 14:33:47			0	38487	0	0	0	27680	26300	153156	27545	1075654	47062	110272	0	0	8161	527512	0	0
2024-09-10 14:34:47			0	38489	0	0	0	27683	26300	153096	27554	1075565	47062	110273	0	0	8161	527437	0	0
2024-09-10 14:35:47			0	38489	0	0	0	27683	26300	153112	27306	1075654	47050	110273	0	0	8161	527437	0	0
2024-09-10 14:36:47			0	38486	0	0	0	27685	26290	153032	27646	1075582	47073	110274	0	0	8161	527580	0	0
2024-09-10 14:37:47			0	38480	0	0	0	27672	26290	153148	27422	1075600	47072	110269	0	0	8161	527807	0	0
2024-09-10 14:38:47			0	38481	0	0	0	27672	26290	153028	27296	1075609	47073	110269	0	0	8161	527770	0	0
2024-09-10 14:39:47			0	38457	0	0	0	27688	26300	153132	27524	1075547	47062	110275	0	0	8159	528649	0	0
2024-09-10 14:40:47			0	38469	0	0	0	27685	26290	153108	27457	1075573	47083	110274	0	0	8160	528224	0	0
2024-09-10 14:41:47			0	38454	0	0	0	27698	26290	153212	27300	1075636	47073	110279	0	0	8159	528793	0	0
2024-09-10 14:42:47			0	38460	0	0	0	27690	26290	153092	27069	1075680	47072	110276	0	0	8159	528565	0	0
2024-09-10 14:43:47			0	38504	0	0	0	27711	26290	153164	27163	1075627	47072	110284	0	0	8162	526899	0	0
2024-09-10 14:44:47			0	38501	0	0	0	27711	26300	153000	27412	1075699	47095	110284	0	0	8161	526983	0	0
2024-09-10 14:45:47			0	38506	0	0	0	27706	26290	152984	27190	1075770	47083	110282	0	0	8162	526823	0	0
2024-09-10 14:46:47			0	38506	0	0	0	27698	26290	152988	27391	1075636	47083	110279	0	0	8162	526823	0	0
2024-09-10 14:47:47			0	38517	0	0	0	27722	26300	152848	27403	1075672	47083	110288	0	0	8162	526378	0	0
2024-09-10 14:48:47			0	38544	0	0	0	27696	26310	152948	27343	1075717	47074	110278	0	0	8164	525327	0	0
2024-09-10 14:49:47			0	38547	0	0	0	27711	26310	152916	27364	1075717	47074	110284	0	0	8164	525214	0	0
2024-09-10 14:50:47			0	38537	0	0	0	27711	26310	152880	27521	1075744	47096	110284	0	0	8164	525592	0	0
2024-09-10 14:51:47			0	38537	0	0	0	27748	26310	152900	27443	1075780	47075	110298	0	0	8163	525592	0	0
2024-09-10 14:52:47			0	38561	0	0	0	27802	26310	152864	27275	1075834	47085	110319	0	0	8163	524686	0	0
2024-09-10 14:53:47			0	38595	0	0	0	27838	26330	152660	27239	1075923	47087	110333	0	0	8165	523344	0	0
2024-09-10 14:54:47			0	38670	0	0	0	27846	26330	152408	27234	1075941	47098	110336	0	0	8169	520524	0	0
2024-09-10 14:55:47			0	38736	0	0	0	27859	26340	152236	27388	1076022	47100	110341	0	0	8173	518020	0	0
2024-09-10 14:56:47			0	38783	0	0	0	27875	26360	151989	27293	1076077	47091	110347	0	0	8175	516203	0	0
2024-09-10 14:57:47			0	38830	0	0	0	27880	26370	151709	27393	1076202	47113	110349	0	0	8178	514420	0	0
2024-09-10 14:58:47			0	38859	0	0	0	27854	26390	151693	27310	1076203	47104	110339	0	0	8180	513281	0	0
2024-09-10 14:59:47			0	38888	0	0	0	27851	26390	151665	27256	1076212	47094	110338	0	0	8182	512203	0	0
2024-09-10 15:00:47			0	38905	0	0	0	27854	26390	151461	27118	1076265	47105	110339	0	0	8183	511571	0	0
2024-09-10 15:01:47			0	38916	0	0	0	27849	26410	151513	27360	1076319	47106	110337	0	0	8183	511104	0	0
2024-09-10 15:02:47			0	38904	0	0	0	27828	26410	151445	27185	1076355	47096	110329	0	0	8183	511550	0	0
2024-09-10 15:03:47			0	38894	0	0	0	27784	26410	151509	27478	1076302	47084	110312	0	0	8183	511921	0	0
2024-09-10 15:04:47			0	38830	0	0	0	27761	26420	151685	27336	1076257	47084	110303	0	0	8180	514273	0	0
2024-09-10 15:05:47			0	38794	0	0	0	27724	26420	151689	27341	1076123	47074	110289	0	0	8179	515616	0	0
2024-09-10 15:06:47			0	38741	0	0	0	27703	26400	152025	27331	1076068	47073	110281	0	0	8176	517655	0	0
2024-09-10 15:07:47			0	38675	0	0	0	27701	26390	152272	27516	1075997	47049	110280	0	0	8172	520158	0	0
2024-09-10 15:08:47			0	38629	0	0	0	27703	26390	152412	27124	1075988	47048	110281	0	0	8169	521886	0	0
2024-09-10 15:09:47			0	38605	0	0	0	27696	26380	152440	27320	1075889	47059	110278	0	0	8168	522818	0	0
2024-09-10 15:10:47			0	38590	0	0	0	27683	26370	152644	27369	1075907	47057	110273	0	0	8167	523413	0	0
2024-09-10 15:11:47			0	38563	0	0	0	27696	26350	152704	27222	1075879	47056	110278	0	0	8166	524491	0	0
2024-09-10 15:12:47			0	38528	0	0	0	27706	26360	152804	27398	1075835	47069	110282	0	0	8163	525781	0	0
2024-09-10 15:13:47			0	38522	0	0	0	27709	26340	152964	27237	1075834	47067	110283	0	0	8163	526068	0	0
2024-09-10 15:14:47			0	38534	0	0	0	27748	26350	152976	27293	1075897	47078	110298	0	0	8163	525585	0	0
2024-09-10 15:15:47			0	38549	0	0	0	27755	26340	152948	27542	1075906	47087	110301	0	0	8164	525049	0	0
2024-09-10 15:16:47			0	38581	0	0	0	27768	26350	152748	27248	1075960	47079	110306	0	0	8165	523812	0	0
2024-09-10 15:17:47			0	38613	0	0	0	27784	26350	152640	27163	1075960	47090	110312	0	0	8167	522607	0	0
2024-09-10 15:18:47			0	38657	0	0	0	27815	26370	152400	27424	1076032	47102	110324	0	0	8169	520893	0	0
2024-09-10 15:19:47			0	38719	0	0	0	27854	26370	152108	27438	1076095	47091	110339	0	0	8172	518568	0	0
2024-09-10 15:20:47			0	38783	0	0	0	27849	26390	151921	27237	1076256	47115	110337	0	0	8176	516115	0	0
2024-09-10 15:21:47			0	38819	0	0	0	27828	26390	151861	27029	1076212	47094	110329	0	0	8178	514772	0	0
2024-09-10 15:22:47			0	38810	0	0	0	27807	26400	151749	27315	1076283	47095	110321	0	0	8178	515078	0	0
2024-09-10 15:23:47			0	38794	0	0	0	27779	26400	151773	27185	1076283	47083	110310	0	0	8178	515675	0	0
2024-09-10 15:24:47			0	38758	0	0	0	27789	26400	152045	27100	1076221	47083	110314	0	0	8175	517020	0	0
2024-09-10 15:25:47			0	38734	0	0	0	27805	26400	152001	27556	1076176	47073	110320	0	0	8174	517917	0	0
2024-09-10 15:26:47			0	38738	0	0	0	27799	26400	152033	27147	1076176	47083	110318	0	0	8174	517768	0	0
2024-09-10 15:27:47			0	38729	0	0	0	27761	26400	152097	27348	1076203	47083	110303	0	0	8174	518104	0	0
2024-09-10 15:28:47			0	38677	0	0	0	27755	26400	152220	27203	1076122	47073	110301	0	0	8171	520053	0	0
2024-09-10 15:29:47			0	38654	0	0	0	27758	26400	152336	27500	1076176	47061	110302	0	0	8170	520916	0	0
2024-09-10 15:30:47			0	38639	0	0	0	27794	26400	152484	27448	1076086	47061	110316	0	0	8168	521480	0	0
2024-09-10 15:31:47			0	38702	0	0	0	27828	26390	152352	27303	1076122	47071	110329	0	0	8171	519145	0	0
2024-09-10 15:32:47			0	38735	0	0	0	27815	26400	152149	27497	1076194	47083	110324	0	0	8174	517880	0	0
2024-09-10 15:33:47			0	38727	0	0	0	27823	26400	152048	27562	1076203	47095	110327	0	0	8173	518179	0	0
2024-09-10 15:34:47			0	38729	0	0	0	27841	26410	152097	27519	1076355	47096	110334	0	0	8173	518075	0	0
2024-09-10 15:35:47			0	38774	0	0	0	27854	26420	151989	27296	1076347	47085	110339	0	0	8175	516363	0	0
2024-09-10 15:36:47			0	38785	0	0	0	27815	26420	151821	27308	1076401	47097	110324	0	0	8177	515952	0	0
2024-09-10 15:37:47			0	38761	0	0	0	27781	26430	151969	27715	1076356	47085	110311	0	0	8176	516819	0	0
2024-09-10 15:38:47			0	38712	0	0	0	27799	26430	152192	27495	1076338	47076	110318	0	0	8173	518652	0	0
2024-09-10 15:39:47			0	38721	0	0	0	27810	26420	152128	27391	1076284	47084	110322	0	0	8173	518345	0	0
2024-09-10 15:40:47			0	38705	0	0	0	27773	26420	152188	27360	1076293	47075	110308	0	0	8173	518944	0	0
2024-09-10 15:41:47			0	38693	0	0	0	27792	26420	152180	27157	1076284	47063	110315	0	0	8172	519394	0	0
2024-09-10 15:42:47			0	38740	0	0	0	27831	26410	152161	27277	1076293	47083	110330	0	0	8174	517663	0	0
2024-09-10 15:43:47			0	38756	0	0	0	27805	26420	152005	27249	1076230	47096	110320	0	0	8175	517035	0	0
2024-09-10 15:44:47			0	38730	0	0	0	27838	26430	151977	27381	1076329	47075	110333	0	0	8173	517978	0	0
2024-09-10 15:45:47			0	38804	0	0	0	27875	26430	151789	27512	1076419	47086	110347	0	0	8177	515213	0	0
2024-09-10 15:46:47			0	38884	0	0	0	27888	26430	151513	27209	1076392	47086	110352	0	0	8181	512234	0	0
2024-09-10 15:47:47			0	38945	0	0	0	27875	26440	151325	27573	1076455	47099	110347	0	0	8185	509940	0	0
2024-09-10 15:48:47			0	38985	0	0	0	27888	26440	151169	27244	1076482	47099	110352	0	0	8187	508459	0	0
2024-09-10 15:49:47			0	39024	0	0	0	27885	26450	150993	27443	1076553	47088	110351	0	0	8189	506988	0	0
2024-09-10 15:50:47			0	39052	0	0	0	27888	26440	150881	27431	1076544	47099	110352	0	0	8191	505983	0	0
2024-09-10 15:51:47			0	39060	0	0	0	27870	26450	150837	27526	1076589	47100	110345	0	0	8191	505658	0	0
2024-09-10 15:52:47			0	39000	0	0	0	27820	26450	150989	27222	1076473	47088	110326	0	0	8189	507875	0	0
2024-09-10 15:53:47			0	38977	0	0	0	27854	26460	151125	27521	1076545	47089	110339	0	0	8187	508697	0	0
2024-09-10 15:54:47			0	38999	0	0	0	27870	26450	151065	27372	1076482	47088	110345	0	0	8188	507912	0	0
2024-09-10 15:55:47			0	39004	0	0	0	27857	26460	151029	27550	1076473	47089	110340	0	0	8189	507698	0	0
2024-09-10 15:56:47			0	38997	0	0	0	27854	26470	151021	27578	1076509	47090	110339	0	0	8188	507928	0	0
2024-09-10 15:57:47			0	39016	0	0	0	27875	26460	151069	27583	1076572	47101	110347	0	0	8189	507254	0	0
2024-09-10 15:58:47			0	39028	0	0	0	27875	26460	150977	27279	1076554	47089	110347	0	0	8190	506811	0	0
2024-09-10 15:59:47			0	39045	0	0	0	27870	26470	150889	27164	1076590	47090	110345	0	0	8191	506154	0	0
2024-09-10 16:00:47			0	39049	0	0	0	27857	26450	150937	27443	1076563	47088	110340	0	0	8191	506064	0	0
2024-09-10 16:01:47			0	39013	0	0	0	27872	26470	150965	27666	1076536	47090	110346	0	0	8189	507336	0	0
2024-09-10 16:02:47			0	39040	0	0	0	27872	26460	150901	27362	1076572	47089	110346	0	0	8190	506368	0	0
2024-09-10 16:03:47			0	39052	0	0	0	27877	26470	150809	27396	1076536	47080	110348	0	0	8191	505896	0	0
2024-09-10 16:04:47			0	39077	0	0	0	27870	26460	150845	27287	1076527	47089	110345	0	0	8192	505003	0	0
2024-09-10 16:05:47			0	39022	0	0	0	27864	26460	150869	27391	1076607	47079	110343	0	0	8189	507032	0	0
2024-09-10 16:06:47			0	39018	0	0	0	27851	26470	150953	27204	1076536	47080	110338	0	0	8189	507151	0	0
2024-09-10 16:07:47			0	39004	0	0	0	27870	26460	151073	27223	1076607	47079	110345	0	0	8188	507698	0	0
2024-09-10 16:08:47			0	39044	0	0	0	27877	26460	150957	27341	1076527	47089	110348	0	0	8190	506220	0	0
2024-09-10 16:09:47			0	39064	0	0	0	27885	26460	150921	27298	1076518	47089	110351	0	0	8191	505482	0	0
2024-09-10 16:10:47			0	39089	0	0	0	27867	26470	150797	27225	1076590	47090	110344	0	0	8193	504532	0	0
2024-09-10 16:11:47			0	39071	0	0	0	27854	26470	150769	27197	1076590	47102	110339	0	0	8192	505195	0	0
2024-09-10 16:12:47			0	39032	0	0	0	27841	26460	150953	27365	1076473	47079	110334	0	0	8190	506663	0	0
2024-09-10 16:13:47			0	38989	0	0	0	27849	26470	151025	27402	1076563	47069	110337	0	0	8188	508224	0	0
2024-09-10 16:14:47			0	38986	0	0	0	27857	26460	151121	27789	1076500	47079	110340	0	0	8188	508364	0	0
2024-09-10 16:15:47			0	39008	0	0	0	27838	26470	151085	27268	1076626	47090	110333	0	0	8189	507521	0	0
2024-09-10 16:16:47			0	38996	0	0	0	27844	26460	151229	27502	1076554	47101	110335	0	0	8188	507994	0	0
2024-09-10 16:17:47			0	39016	0	0	0	27859	26460	151013	27434	1076518	47101	110341	0	0	8189	507254	0	0
2024-09-10 16:18:47			0	39024	0	0	0	27870	26460	150973	27424	1076607	47079	110345	0	0	8189	506959	0	0
2024-09-10 16:19:47			0	39071	0	0	0	27875	26460	150725	27505	1076500	47089	110347	0	0	8192	505224	0	0
2024-09-10 16:20:47			0	39089	0	0	0	27857	26470	150781	27402	1076590	47113	110340	0	0	8193	504532	0	0
2024-09-10 16:21:47			0	39014	0	0	0	27836	26470	150917	27176	1076590	47080	110332	0	0	8190	507299	0	0
2024-09-10 16:22:47			0	38999	0	0	0	27849	26470	151093	27033	1076599	47090	110337	0	0	8188	507854	0	0
2024-09-10 16:23:47			0	38997	0	0	0	27823	26470	151049	27341	1076518	47080	110327	0	0	8189	507928	0	0
2024-09-10 16:24:47			0	38965	0	0	0	27851	26470	151193	27145	1076509	47080	110338	0	0	8186	509112	0	0
2024-09-10 16:25:47			0	39000	0	0	0	27859	26460	151029	27244	1076500	47079	110341	0	0	8188	507846	0	0
2024-09-10 16:26:47			0	39022	0	0	0	27862	26460	150957	27369	1076527	47089	110342	0	0	8189	507032	0	0
2024-09-10 16:27:47			0	39024	0	0	0	27872	26460	150901	27424	1076572	47089	110346	0	0	8189	506959	0	0
2024-09-10 16:28:47			0	39044	0	0	0	27883	26460	150913	27152	1076572	47101	110350	0	0	8190	506220	0	0
2024-09-10 16:29:47			0	39029	0	0	0	27849	26480	150789	27421	1076500	47103	110337	0	0	8190	506716	0	0
2024-09-10 16:30:47			0	39042	0	0	0	27864	26470	150893	27369	1076590	47090	110343	0	0	8191	506265	0	0
2024-09-10 16:31:47			0	39022	0	0	0	27851	26470	150925	27055	1076617	47102	110338	0	0	8190	507003	0	0
2024-09-10 16:32:47			0	39035	0	0	0	27877	26460	151097	27237	1076581	47089	110348	0	0	8190	506552	0	0
2024-09-10 16:33:47			0	39012	0	0	0	27867	26470	151041	27364	1076617	47090	110344	0	0	8189	507373	0	0
2024-09-10 16:34:47			0	39050	0	0	0	27872	26470	151017	26772	1076617	47090	110346	0	0	8191	505970	0	0
2024-09-10 16:35:47			0	39034	0	0	0	27864	26480	150933	27138	1076662	47091	110343	0	0	8190	506531	0	0
2024-09-10 16:36:47			0	39053	0	0	0	27849	26470	150773	27410	1076599	47080	110337	0	0	8192	505859	0	0
2024-09-10 16:37:47			0	39028	0	0	0	27872	26460	150949	27331	1076581	47089	110346	0	0	8190	506811	0	0
2024-09-10 16:38:47			0	39060	0	0	0	27854	26470	150921	27027	1076563	47080	110339	0	0	8192	505601	0	0
2024-09-10 16:39:47			0	39052	0	0	0	27849	26460	150861	27396	1076581	47089	110337	0	0	8191	505925	0	0
2024-09-10 16:40:47			0	39035	0	0	0	27849	26460	150901	27317	1076581	47089	110337	0	0	8190	506552	0	0
2024-09-10 16:41:47			0	39033	0	0	0	27823	26470	150969	27138	1076563	47080	110327	0	0	8191	506597	0	0
2024-09-10 16:42:47			0	39014	0	0	0	27838	26470	151053	27206	1076536	47069	110333	0	0	8189	507299	0	0
2024-09-10 16:43:47			0	39032	0	0	0	27854	26470	151025	27358	1076536	47080	110339	0	0	8190	506634	0	0
2024-09-10 16:44:47			0	39063	0	0	0	27851	26450	150933	27145	1076455	47100	110338	0	0	8192	505548	0	0
2024-09-10 16:45:47			0	39060	0	0	0	27849	26460	150801	27592	1076473	47101	110337	0	0	8192	505630	0	0
2024-09-10 16:46:47			0	39075	0	0	0	27846	26460	150773	27438	1076518	47089	110336	0	0	8193	505076	0	0
2024-09-10 16:47:47			0	39080	0	0	0	27849	26450	150693	27088	1076563	47078	110337	0	0	8193	504921	0	0
2024-09-10 16:48:47			0	39108	0	0	0	27851	26450	150757	27512	1076553	47078	110338	0	0	8195	503890	0	0
2024-09-10 16:49:47			0	39118	0	0	0	27849	26450	150681	27111	1076419	47078	110337	0	0	8195	503522	0	0
2024-09-10 16:50:47			0	39111	0	0	0	27854	26450	150705	27320	1076482	47088	110339	0	0	8195	503779	0	0
2024-09-10 16:51:47			0	39128	0	0	0	27867	26460	150537	27317	1076598	47089	110344	0	0	8195	503125	0	0
2024-09-10 16:52:47			0	39140	0	0	0	27851	26460	150569	27452	1076500	47101	110338	0	0	8196	502684	0	0
2024-09-10 16:53:47			0	39156	0	0	0	27851	26460	150529	27149	1076500	47089	110338	0	0	8197	502096	0	0
2024-09-10 16:54:47			0	39159	0	0	0	27841	26460	150533	27053	1076491	47089	110334	0	0	8198	501986	0	0
2024-09-10 16:55:47			0	39124	0	0	0	27841	26470	150617	26935	1076482	47090	110334	0	0	8196	503243	0	0
2024-09-10 16:56:47			0	39107	0	0	0	27836	26450	150621	27350	1076428	47088	110332	0	0	8195	503926	0	0
2024-09-10 16:57:47			0	39103	0	0	0	27851	26450	150685	27367	1076455	47067	110338	0	0	8194	504074	0	0
2024-09-10 16:58:47			0	39090	0	0	0	27849	26450	150773	27251	1076473	47078	110337	0	0	8194	504552	0	0
2024-09-10 16:59:47			0	39110	0	0	0	27849	26460	150685	27348	1076419	47089	110337	0	0	8195	503787	0	0
2024-09-10 17:00:47			0	39086	0	0	0	27844	26450	150757	27455	1076401	47088	110335	0	0	8193	504700	0	0
2024-09-10 17:01:47			0	39096	0	0	0	27831	26450	150885	27377	1076473	47078	110330	0	0	8194	504331	0	0
2024-09-10 17:02:47			0	39065	0	0	0	27844	26440	150949	27249	1076383	47077	110335	0	0	8192	505503	0	0
2024-09-10 17:03:47			0	39027	0	0	0	27844	26440	151029	27358	1076428	47077	110335	0	0	8190	506906	0	0
2024-09-10 17:04:47			0	39049	0	0	0	27838	26450	150921	27286	1076428	47088	110333	0	0	8191	506064	0	0
2024-09-10 17:05:47			0	39059	0	0	0	27841	26440	150937	27234	1076401	47077	110334	0	0	8192	505724	0	0
2024-09-10 17:06:47			0	39042	0	0	0	27849	26440	150945	27569	1076410	47099	110337	0	0	8191	506352	0	0
2024-09-10 17:07:47			0	39052	0	0	0	27841	26440	151025	27346	1076329	47077	110334	0	0	8191	505983	0	0
2024-09-10 17:08:47			0	39057	0	0	0	27841	26440	150933	27438	1076401	47087	110334	0	0	8192	505798	0	0
2024-09-10 17:09:47			0	39054	0	0	0	27841	26440	151017	27265	1076464	47087	110334	0	0	8192	505909	0	0
2024-09-10 17:10:47			0	39075	0	0	0	27841	26440	150973	27254	1076428	47077	110334	0	0	8193	505134	0	0
2024-09-10 17:11:47			0	39051	0	0	0	27836	26440	150901	27438	1076437	47087	110332	0	0	8191	506020	0	0
2024-09-10 17:12:47			0	39051	0	0	0	27825	26440	150921	27268	1076401	47087	110328	0	0	8192	506020	0	0
2024-09-10 17:13:47			0	39038	0	0	0	27823	26440	150997	27563	1076401	47087	110327	0	0	8191	506499	0	0
2024-09-10 17:14:47			0	39030	0	0	0	27815	26440	151041	27438	1076374	47087	110324	0	0	8191	506795	0	0
2024-09-10 17:15:47			0	39049	0	0	0	27825	26440	150997	27274	1076320	47077	110328	0	0	8192	506093	0	0
2024-09-10 17:16:47			0	39036	0	0	0	27815	26430	151077	26927	1076338	47076	110324	0	0	8191	506602	0	0
2024-09-10 17:17:47			0	39011	0	0	0	27823	26440	151069	27415	1076347	47099	110327	0	0	8189	507497	0	0
2024-09-10 17:18:47			0	39010	0	0	0	27823	26430	151089	27064	1076284	47076	110327	0	0	8189	507563	0	0
2024-09-10 17:19:47			0	39003	0	0	0	27812	26430	151097	27298	1076329	47085	110323	0	0	8189	507822	0	0
2024-09-10 17:20:47			0	39019	0	0	0	27815	26430	150997	27246	1076329	47085	110324	0	0	8190	507230	0	0
2024-09-10 17:21:47			0	39012	0	0	0	27812	26430	151125	27419	1076338	47086	110323	0	0	8190	507489	0	0
2024-09-10 17:22:47			0	39005	0	0	0	27820	26420	151033	27396	1076320	47108	110326	0	0	8189	507777	0	0
2024-09-10 17:23:47			0	39015	0	0	0	27825	26420	151041	27370	1076284	47074	110328	0	0	8190	507407	0	0
2024-09-10 17:24:47			0	39027	0	0	0	27825	26420	151045	27435	1076239	47075	110328	0	0	8190	506964	0	0
2024-09-10 17:25:47			0	39015	0	0	0	27818	26410	151117	27149	1076302	47084	110325	0	0	8190	507436	0	0
2024-09-10 17:26:47			0	39001	0	0	0	27823	26420	151049	27074	1076284	47096	110327	0	0	8189	507925	0	0
2024-09-10 17:27:47			0	39007	0	0	0	27828	26420	151109	27320	1076230	47084	110329	0	0	8189	507703	0	0
2024-09-10 17:28:47			0	38995	0	0	0	27828	26410	151121	27386	1076275	47107	110329	0	0	8188	508176	0	0
2024-09-10 17:29:47			0	38992	0	0	0	27820	26420	151129	26955	1076311	47107	110326	0	0	8188	508258	0	0
2024-09-10 17:30:47			0	38990	0	0	0	27825	26420	151225	27301	1076266	47108	110328	0	0	8188	508332	0	0
2024-09-10 17:31:47			0	38981	0	0	0	27833	26420	151149	27492	1076364	47084	110331	0	0	8187	508665	0	0
2024-09-10 17:32:47			0	38987	0	0	0	27831	26410	151209	27213	1076328	47107	110330	0	0	8188	508472	0	0
2024-09-10 17:33:47			0	38961	0	0	0	27825	26430	151285	27287	1076302	47085	110328	0	0	8186	509377	0	0
2024-09-10 17:34:47			0	38951	0	0	0	27825	26420	151257	27062	1076311	47084	110328	0	0	8186	509776	0	0
2024-09-10 17:35:47			0	38938	0	0	0	27805	26420	151269	27215	1076338	47084	110320	0	0	8185	510258	0	0
2024-09-10 17:36:47			0	38942	0	0	0	27812	26420	151337	26961	1076311	47084	110323	0	0	8186	510110	0	0
2024-09-10 17:37:47			0	38933	0	0	0	27812	26410	151385	27310	1076275	47074	110323	0	0	8185	510473	0	0
2024-09-10 17:38:47			0	38913	0	0	0	27805	26410	151409	27059	1076275	47084	110320	0	0	8184	511215	0	0
2024-09-10 17:39:47			0	38912	0	0	0	27805	26420	151461	27504	1076284	47074	110320	0	0	8184	511223	0	0
2024-09-10 17:40:47			0	38907	0	0	0	27805	26410	151425	27093	1076194	47084	110320	0	0	8184	511438	0	0
2024-09-10 17:41:47			0	38890	0	0	0	27799	26410	151433	27034	1076248	47063	110318	0	0	8183	512070	0	0
2024-09-10 17:42:47			0	38914	0	0	0	27805	26420	151389	27258	1076230	47074	110320	0	0	8184	511149	0	0
2024-09-10 17:43:47			0	38927	0	0	0	27802	26400	151329	27000	1076176	47073	110319	0	0	8185	510725	0	0
2024-09-10 17:44:47			0	38931	0	0	0	27792	26400	151293	27220	1076203	47083	110315	0	0	8185	510576	0	0
2024-09-10 17:45:47			0	38935	0	0	0	27792	26400	151317	26762	1076176	47083	110315	0	0	8185	510428	0	0
2024-09-10 17:46:47			0	38933	0	0	0	27789	26400	151369	27230	1076257	47073	110314	0	0	8185	510502	0	0
2024-09-10 17:47:47			0	38920	0	0	0	27789	26400	151353	26746	1076203	47073	110314	0	0	8185	510985	0	0
2024-09-10 17:48:47			0	38923	0	0	0	27779	26400	151269	27313	1076167	47083	110310	0	0	8185	510873	0	0
2024-09-10 17:49:47			0	38901	0	0	0	27786	26390	151381	26953	1076131	47072	110313	0	0	8184	511719	0	0
2024-09-10 17:50:47			0	38902	0	0	0	27789	26390	151345	26852	1076077	47083	110314	0	0	8184	511682	0	0
2024-09-10 17:51:47			0	38910	0	0	0	27781	26400	151369	27157	1076140	47083	110311	0	0	8184	511356	0	0
2024-09-10 17:52:47			0	38902	0	0	0	27773	26390	151465	27253	1076203	47082	110308	0	0	8184	511682	0	0
2024-09-10 17:53:47			0	38903	0	0	0	27776	26390	151473	27216	1076122	47082	110309	0	0	8184	511645	0	0
2024-09-10 17:54:47			0	38903	0	0	0	27771	26390	151561	27232	1076068	47082	110307	0	0	8184	511645	0	0
2024-09-10 17:55:47			0	38879	0	0	0	27768	26380	151589	27339	1076086	47082	110306	0	0	8183	512566	0	0
2024-09-10 17:56:47			0	38881	0	0	0	27758	26380	151549	27161	1076059	47082	110302	0	0	8183	512492	0	0
2024-09-10 17:57:47			0	38844	0	0	0	27766	26380	151613	27345	1076032	47071	110305	0	0	8181	513869	0	0
2024-09-10 17:58:47			0	38847	0	0	0	27755	26380	151641	27357	1075996	47081	110301	0	0	8181	513758	0	0
2024-09-10 17:59:47			0	38851	0	0	0	27773	26380	151701	27341	1076059	47071	110308	0	0	8181	513608	0	0
2024-09-10 18:00:47			0	38868	0	0	0	27781	26370	151649	27116	1076113	47080	110311	0	0	8182	513005	0	0
2024-09-10 18:01:47			0	38846	0	0	0	27768	26380	151649	27060	1076050	47070	110306	0	0	8181	513795	0	0
2024-09-10 18:02:47			0	38883	0	0	0	27773	26370	151645	27336	1076068	47080	110308	0	0	8183	512447	0	0
2024-09-10 18:03:47			0	38842	0	0	0	27758	26370	151693	27140	1076059	47069	110302	0	0	8181	513973	0	0
2024-09-10 18:04:47			0	38832	0	0	0	27758	26360	151797	27116	1075996	47080	110302	0	0	8180	514375	0	0
2024-09-10 18:05:47			0	38857	0	0	0	27763	26370	151753	27227	1075951	47080	110304	0	0	8181	513415	0	0
2024-09-10 18:06:47			0	38836	0	0	0	27771	26370	151825	27204	1076005	47069	110307	0	0	8180	514197	0	0
2024-09-10 18:07:47			0	38824	0	0	0	27755	26360	151797	27403	1075969	47080	110301	0	0	8180	514673	0	0
2024-09-10 18:08:47			0	38807	0	0	0	27761	26350	151853	27176	1075960	47079	110303	0	0	8178	515337	0	0
2024-09-10 18:09:47			0	38803	0	0	0	27758	26370	151809	27348	1076005	47080	110302	0	0	8178	515427	0	0
2024-09-10 18:10:47			0	38798	0	0	0	27740	26360	151885	27242	1075969	47091	110295	0	0	8178	515643	0	0
2024-09-10 18:11:47			0	38801	0	0	0	27740	26350	151865	27268	1075933	47068	110295	0	0	8178	515561	0	0
2024-09-10 18:12:47			0	38780	0	0	0	27732	26350	151989	27043	1075960	47079	110292	0	0	8177	516345	0	0
2024-09-10 18:13:47			0	38791	0	0	0	27727	26330	151909	27144	1075923	47054	110290	0	0	8178	515993	0	0
2024-09-10 18:14:47			0	38780	0	0	0	27727	26350	152005	27235	1075924	47078	110290	0	0	8177	516345	0	0
2024-09-10 18:15:47			0	38780	0	0	0	27724	26330	152001	27474	1075816	47077	110289	0	0	8177	516404	0	0
2024-09-10 18:16:47			0	38776	0	0	0	27735	26340	152013	26875	1075861	47067	110293	0	0	8177	516524	0	0
2024-09-10 18:17:47			0	38787	0	0	0	27732	26330	151965	27218	1075897	47077	110292	0	0	8178	516143	0	0
2024-09-10 18:18:47			0	38785	0	0	0	27722	26340	152025	27215	1075852	47066	110288	0	0	8178	516188	0	0
2024-09-10 18:19:47			0	38767	0	0	0	27703	26330	152065	27274	1075807	47076	110281	0	0	8177	516890	0	0
2024-09-10 18:20:47			0	38757	0	0	0	27706	26320	151945	27232	1075735	47064	110282	0	0	8176	517293	0	0
2024-09-10 18:21:47			0	38764	0	0	0	27696	26320	152077	27173	1075843	47064	110278	0	0	8177	517032	0	0
2024-09-10 18:22:47			0	38744	0	0	0	27701	26320	152105	27175	1075735	47052	110280	0	0	8176	517780	0	0
2024-09-10 18:23:47			0	38729	0	0	0	27709	26310	152169	27241	1075753	47064	110283	0	0	8175	518371	0	0
2024-09-10 18:24:47			0	38737	0	0	0	27706	26310	152197	27218	1075771	47051	110282	0	0	8175	518071	0	0
2024-09-10 18:25:47			0	38745	0	0	0	27709	26300	152049	27353	1075762	47062	110283	0	0	8176	517802	0	0
2024-09-10 18:26:47			0	38740	0	0	0	27701	26300	152093	27206	1075735	47062	110280	0	0	8175	517989	0	0
2024-09-10 18:27:47			0	38733	0	0	0	27714	26310	152225	27150	1075771	47063	110285	0	0	8175	518221	0	0
2024-09-10 18:28:47			0	38734	0	0	0	27719	26300	152180	27176	1075735	47083	110287	0	0	8175	518213	0	0
2024-09-10 18:29:47			0	38727	0	0	0	27709	26300	152224	27104	1075672	47073	110283	0	0	8174	518475	0	0
2024-09-10 18:30:47			0	38709	0	0	0	27698	26300	152216	27294	1075735	47073	110279	0	0	8174	519150	0	0
2024-09-10 18:31:47			0	38724	0	0	0	27688	26300	152277	26970	1075654	47073	110275	0	0	8175	518588	0	0
2024-09-10 18:32:47			0	38727	0	0	0	27698	26310	152184	27242	1075726	47075	110279	0	0	8175	518446	0	0
2024-09-10 18:33:47			0	38712	0	0	0	27690	26300	152212	27078	1075654	47062	110276	0	0	8174	519037	0	0
2024-09-10 18:34:47			0	38714	0	0	0	27683	26290	152200	26944	1075690	47062	110273	0	0	8174	518992	0	0
2024-09-10 18:35:47			0	38720	0	0	0	27690	26290	152260	27078	1075654	47072	110276	0	0	8174	518767	0	0
2024-09-10 18:36:47			0	38704	0	0	0	27688	26280	152252	27085	1075645	47082	110275	0	0	8173	519397	0	0
2024-09-10 18:37:47			0	38720	0	0	0	27690	26280	152348	27216	1075618	47071	110276	0	0	8174	518797	0	0
2024-09-10 18:38:47			0	38715	0	0	0	27698	26280	152268	27076	1075645	47060	110279	0	0	8174	518984	0	0
2024-09-10 18:39:47			0	38708	0	0	0	27709	26290	152264	27069	1075663	47095	110283	0	0	8173	519217	0	0
2024-09-10 18:40:47			0	38698	0	0	0	27698	26290	152396	26856	1075690	47073	110279	0	0	8173	519592	0	0
2024-09-10 18:41:47			0	38699	0	0	0	27696	26280	152416	27317	1075671	47071	110278	0	0	8173	519584	0	0
2024-09-10 18:42:47			0	38681	0	0	0	27696	26280	152420	26939	1075618	47060	110278	0	0	8172	520260	0	0
2024-09-10 18:43:47			0	38690	0	0	0	27698	26290	152432	27177	1075663	47073	110279	0	0	8172	519892	0	0
2024-09-10 18:44:47			0	38684	0	0	0	27696	26290	152444	27159	1075654	47083	110278	0	0	8172	520117	0	0
2024-09-10 18:45:47			0	38687	0	0	0	27677	26280	152412	27400	1075635	47082	110271	0	0	8173	520034	0	0
2024-09-10 18:46:47			0	38688	0	0	0	27675	26280	152364	27324	1075609	47082	110270	0	0	8173	519997	0	0
2024-09-10 18:47:47			0	38686	0	0	0	27677	26280	152328	27064	1075609	47071	110271	0	0	8173	520072	0	0
2024-09-10 18:48:47			0	38695	0	0	0	27688	26270	152344	27069	1075519	47071	110275	0	0	8173	519764	0	0
2024-09-10 18:49:47			0	38676	0	0	0	27688	26270	152296	27157	1075546	47071	110275	0	0	8172	520477	0	0
2024-09-10 18:50:47			0	38689	0	0	0	27696	26280	152384	27208	1075582	47071	110278	0	0	8172	519959	0	0
2024-09-10 18:51:47			0	38677	0	0	0	27690	26280	152516	27305	1075662	47071	110276	0	0	8172	520410	0	0
2024-09-10 18:52:47			0	38664	0	0	0	27680	26280	152396	27237	1075609	47082	110272	0	0	8171	520898	0	0
2024-09-10 18:53:47			0	38662	0	0	0	27685	26270	152460	27241	1075537	47092	110274	0	0	8171	521003	0	0
2024-09-10 18:54:47			0	38650	0	0	0	27670	26270	152524	27052	1075600	47071	110268	0	0	8171	521454	0	0
2024-09-10 18:55:47			0	38657	0	0	0	27646	26280	152496	27666	1075582	47082	110259	0	0	8171	521161	0	0
2024-09-10 18:56:47			0	38661	0	0	0	27662	26260	152500	26986	1075519	47036	110265	0	0	8171	521070	0	0
2024-09-10 18:57:47			0	38650	0	0	0	27657	26270	152548	27296	1075537	47070	110263	0	0	8171	521454	0	0
2024-09-10 18:58:47			0	38638	0	0	0	27649	26260	152600	26956	1075492	47069	110260	0	0	8170	521935	0	0
2024-09-10 18:59:47			0	38653	0	0	0	27646	26260	152596	27059	1075492	47058	110259	0	0	8171	521371	0	0
2024-09-10 19:00:47			0	38634	0	0	0	27644	26260	152640	26968	1075447	47069	110258	0	0	8170	522085	0	0
2024-09-10 19:01:47			0	38635	0	0	0	27649	26260	152696	27130	1075465	47080	110260	0	0	8170	522048	0	0
2024-09-10 19:02:47			0	38609	0	0	0	27633	26250	152652	26946	1075429	47057	110254	0	0	8169	523056	0	0
2024-09-10 19:03:47			0	38634	0	0	0	27654	26250	152608	27255	1075366	47057	110262	0	0	8170	522115	0	0
2024-09-10 19:04:47			0	38621	0	0	0	27641	26240	152800	26850	1075438	47056	110257	0	0	8169	522634	0	0
2024-09-10 19:05:47			0	38612	0	0	0	27659	26250	152840	27076	1075447	47090	110264	0	0	8168	522943	0	0
2024-09-10 19:06:47			0	38609	0	0	0	27664	26240	152772	27093	1075384	47078	110266	0	0	8168	523086	0	0
2024-09-10 19:07:47			0	38610	0	0	0	27683	26250	152708	26989	1075447	47079	110273	0	0	8168	523018	0	0
2024-09-10 19:08:47			0	38608	0	0	0	27662	26240	152776	27149	1075402	47066	110265	0	0	8168	523123	0	0
2024-09-10 19:09:47			0	38610	0	0	0	27654	26240	152768	27069	1075429	47066	110262	0	0	8168	523048	0	0
2024-09-10 19:10:47			0	38617	0	0	0	27651	26240	152804	27199	1075465	47067	110261	0	0	8169	522785	0	0
2024-09-10 19:11:47			0	38594	0	0	0	27651	26250	152852	26968	1075393	47079	110261	0	0	8168	523621	0	0
2024-09-10 19:12:47			0	38594	0	0	0	27649	26240	152840	27131	1075491	47067	110260	0	0	8168	523651	0	0
2024-09-10 19:13:47			0	38579	0	0	0	27649	26240	152788	27072	1075438	47078	110260	0	0	8167	524217	0	0
2024-09-10 19:14:47			0	38584	0	0	0	27641	26240	152832	27000	1075384	47078	110257	0	0	8167	524028	0	0
2024-09-10 19:15:47			0	38569	0	0	0	27649	26240	152860	27206	1075402	47066	110260	0	0	8166	524594	0	0
2024-09-10 19:16:47			0	38557	0	0	0	27654	26240	152912	26939	1075438	47078	110262	0	0	8165	525047	0	0
2024-09-10 19:17:47			0	38559	0	0	0	27646	26240	152996	27324	1075348	47077	110259	0	0	8166	524971	0	0
2024-09-10 19:18:47			0	38586	0	0	0	27641	26240	153000	26878	1075411	47067	110257	0	0	8167	523953	0	0
2024-09-10 19:19:47			0	38562	0	0	0	27649	26240	152976	27081	1075411	47067	110260	0	0	8166	524858	0	0
2024-09-10 19:20:47			0	38557	0	0	0	27649	26240	152964	27029	1075411	47067	110260	0	0	8165	525047	0	0
2024-09-10 19:21:47			0	38549	0	0	0	27646	26240	153016	26981	1075402	47088	110259	0	0	8165	525349	0	0
2024-09-10 19:22:47			0	38555	0	0	0	27654	26240	153044	27027	1075402	47066	110262	0	0	8165	525122	0	0
2024-09-10 19:23:47			0	38553	0	0	0	27646	26230	153060	27066	1075366	47055	110259	0	0	8165	525228	0	0
2024-09-10 19:24:47			0	38555	0	0	0	27646	26240	153060	27000	1075429	47055	110259	0	0	8165	525122	0	0
2024-09-10 19:25:47			0	38540	0	0	0	27651	26240	153008	27085	1075411	47056	110261	0	0	8164	525689	0	0
2024-09-10 19:26:47			0	38545	0	0	0	27659	26240	153028	27140	1075456	47055	110264	0	0	8165	525500	0	0
2024-09-10 19:27:47			0	38553	0	0	0	27657	26240	152972	27325	1075438	47089	110263	0	0	8165	525198	0	0
2024-09-10 19:28:47			0	38529	0	0	0	27651	26240	152936	27156	1075456	47077	110261	0	0	8164	526104	0	0
2024-09-10 19:29:47			0	38535	0	0	0	27646	26230	152972	27249	1075420	47055	110259	0	0	8164	525907	0	0
2024-09-10 19:30:47			0	38534	0	0	0	27646	26230	153152	27573	1075393	47066	110259	0	0	8164	525945	0	0
2024-09-10 19:31:47			0	38517	0	0	0	27649	26240	153064	26927	1075438	47067	110260	0	0	8163	526558	0	0
2024-09-10 19:32:47			0	38512	0	0	0	27644	26230	153036	26863	1075473	47066	110258	0	0	8163	526777	0	0
2024-09-10 19:33:47			0	38529	0	0	0	27641	26240	152996	27291	1075402	47077	110257	0	0	8164	526104	0	0
2024-09-10 19:34:47			0	38531	0	0	0	27638	26230	153028	27274	1075420	47055	110256	0	0	8164	526059	0	0
2024-09-10 19:35:47			0	38531	0	0	0	27644	26230	153004	27234	1075393	47066	110258	0	0	8164	526059	0	0
2024-09-10 19:36:47			0	38535	0	0	0	27638	26230	152972	27095	1075393	47066	110256	0	0	8164	525907	0	0
2024-09-10 19:37:47			0	38520	0	0	0	27644	26240	153164	27220	1075348	47077	110258	0	0	8163	526444	0	0
2024-09-10 19:38:47			0	38496	0	0	0	27641	26230	153024	27131	1075393	47077	110257	0	0	8162	527382	0	0
2024-09-10 19:39:47			0	38490	0	0	0	27649	26230	153132	27128	1075384	47077	110260	0	0	8162	527610	0	0
2024-09-10 19:40:47			0	38494	0	0	0	27644	26230	153304	26934	1075393	47066	110258	0	0	8162	527458	0	0
2024-09-10 19:41:47			0	38471	0	0	0	27631	26230	153272	26824	1075393	47055	110253	0	0	8161	528329	0	0
2024-09-10 19:42:47			0	38449	0	0	0	27633	26230	153324	26967	1075420	47066	110254	0	0	8159	529163	0	0
2024-09-10 19:43:47			0	38460	0	0	0	27631	26230	153260	27287	1075366	47066	110253	0	0	8160	528746	0	0
2024-09-10 19:44:47			0	38482	0	0	0	27631	26220	153276	27097	1075348	47076	110253	0	0	8161	527943	0	0
2024-09-10 19:45:47			0	38478	0	0	0	27633	26230	153252	27350	1075384	47077	110254	0	0	8161	528064	0	0
2024-09-10 19:46:47			0	38462	0	0	0	27631	26220	153212	27088	1075321	47076	110253	0	0	8160	528700	0	0
2024-09-10 19:47:47			0	38468	0	0	0	27633	26230	153232	26939	1075330	47066	110254	0	0	8161	528443	0	0
2024-09-10 19:48:47			0	38462	0	0	0	27612	26220	153272	27296	1075375	47065	110246	0	0	8161	528700	0	0
2024-09-10 19:49:47			0	38451	0	0	0	27620	26230	153272	26897	1075366	47066	110249	0	0	8160	529087	0	0
2024-09-10 19:50:47			0	38431	0	0	0	27612	26220	153384	27128	1075339	47075	110246	0	0	8159	529877	0	0
2024-09-10 19:51:47			0	38409	0	0	0	27615	26220	153388	27053	1075321	47054	110247	0	0	8157	530712	0	0
2024-09-10 19:52:47			0	38389	0	0	0	27607	26210	153444	27196	1075222	47075	110244	0	0	8156	531503	0	0
2024-09-10 19:53:47			0	38387	0	0	0	27602	26220	153588	26887	1075285	47041	110242	0	0	8156	531549	0	0
2024-09-10 19:54:47			0	38385	0	0	0	27607	26210	153652	27022	1075249	47064	110244	0	0	8156	531655	0	0
2024-09-10 19:55:47			0	38360	0	0	0	27612	26220	153636	27306	1075267	47076	110246	0	0	8155	532576	0	0
2024-09-10 19:56:47			0	38373	0	0	0	27594	26210	153556	27232	1075249	47075	110239	0	0	8156	532112	0	0
2024-09-10 19:57:47			0	38357	0	0	0	27599	26210	153652	27149	1075240	47075	110241	0	0	8155	532721	0	0
2024-09-10 19:58:47			0	38364	0	0	0	27589	26200	153668	27020	1075177	47063	110237	0	0	8155	532485	0	0
2024-09-10 19:59:47			0	38365	0	0	0	27589	26210	153712	26814	1075186	47064	110237	0	0	8155	532416	0	0
2024-09-10 20:00:47			0	38350	0	0	0	27597	26210	153680	27119	1075240	47075	110240	0	0	8154	532987	0	0
2024-09-10 20:01:47			0	38352	0	0	0	27579	26210	153732	26826	1075159	47064	110233	0	0	8155	532911	0	0
2024-09-10 20:02:47			0	38326	0	0	0	27581	26200	153840	27093	1075141	47062	110234	0	0	8153	533933	0	0
2024-09-10 20:03:47			0	38311	0	0	0	27589	26210	153908	27033	1075186	47064	110237	0	0	8152	534475	0	0
2024-09-10 20:04:47			0	38300	0	0	0	27576	26200	153824	27095	1075168	47062	110232	0	0	8152	534925	0	0
2024-09-10 20:05:47			0	38293	0	0	0	27576	26190	153892	27130	1075132	47051	110232	0	0	8151	535223	0	0
2024-09-10 20:06:47			0	38289	0	0	0	27566	26200	153904	27062	1075141	47073	110228	0	0	8151	535345	0	0
2024-09-10 20:07:47			0	38263	0	0	0	27571	26180	154012	27175	1075105	47060	110230	0	0	8150	536400	0	0
2024-09-10 20:08:47			0	38243	0	0	0	27561	26180	154064	27239	1075087	47072	110226	0	0	8149	537166	0	0
2024-09-10 20:09:47			0	38257	0	0	0	27566	26180	154048	27076	1075025	47071	110228	0	0	8149	536630	0	0
2024-09-10 20:10:47			0	38231	0	0	0	27566	26170	154124	27041	1075069	47070	110228	0	0	8148	537656	0	0
2024-09-10 20:11:47			0	38236	0	0	0	27571	26180	154164	27019	1075078	47049	110230	0	0	8148	537434	0	0
2024-09-10 20:12:47			0	38230	0	0	0	27574	26180	154156	27164	1075114	47072	110231	0	0	8148	537664	0	0
2024-09-10 20:13:47			0	38219	0	0	0	27563	26170	154328	26977	1075006	47059	110227	0	0	8147	538116	0	0
2024-09-10 20:14:47			0	38201	0	0	0	27568	26170	154272	27098	1075060	47082	110229	0	0	8146	538806	0	0
2024-09-10 20:15:47			0	38200	0	0	0	27568	26180	154332	26935	1075051	47060	110229	0	0	8146	538814	0	0
2024-09-10 20:16:47			0	38193	0	0	0	27553	26180	154320	27346	1075051	47060	110223	0	0	8146	539082	0	0
2024-09-10 20:17:47			0	38166	0	0	0	27548	26170	154412	27183	1074979	47059	110221	0	0	8144	540150	0	0
2024-09-10 20:18:47			0	38199	0	0	0	27555	26170	154428	27254	1074989	47059	110224	0	0	8146	538883	0	0
2024-09-10 20:19:47			0	38198	0	0	0	27550	26170	154412	27022	1075006	47059	110222	0	0	8146	538921	0	0
2024-09-10 20:20:47			0	38198	0	0	0	27555	26150	154268	27163	1074979	47035	110224	0	0	8146	538983	0	0
2024-09-10 20:21:47			0	38201	0	0	0	27550	26150	154316	26975	1075006	47045	110222	0	0	8146	538868	0	0
2024-09-10 20:22:47			0	38199	0	0	0	27553	26160	154320	27326	1074997	47059	110223	0	0	8146	538913	0	0
2024-09-10 20:23:47			0	38196	0	0	0	27548	26160	154420	26986	1074970	47059	110221	0	0	8146	539029	0	0
2024-09-10 20:24:47			0	38191	0	0	0	27535	26150	154336	26963	1074943	47057	110216	0	0	8146	539251	0	0
2024-09-10 20:25:47			0	38164	0	0	0	27532	26150	154372	27173	1074925	47057	110215	0	0	8144	540288	0	0
2024-09-10 20:26:47			0	38138	0	0	0	27532	26150	154544	27130	1074943	47068	110215	0	0	8143	541288	0	0
2024-09-10 20:27:47			0	38146	0	0	0	27540	26150	154500	27197	1074916	47068	110218	0	0	8143	540980	0	0
2024-09-10 20:28:47			0	38154	0	0	0	27524	26140	154536	26656	1074934	47045	110212	0	0	8144	540704	0	0
2024-09-10 20:29:47			0	38153	0	0	0	27524	26150	154536	26928	1074970	47057	110212	0	0	8144	540711	0	0
2024-09-10 20:30:47			0	38145	0	0	0	27522	26140	154580	27026	1074880	47045	110211	0	0	8143	541050	0	0
2024-09-10 20:31:47			0	38133	0	0	0	27511	26150	154536	26972	1074889	47057	110207	0	0	8143	541480	0	0
2024-09-10 20:32:47			0	38120	0	0	0	27519	26140	154612	26826	1074871	47045	110210	0	0	8142	542012	0	0
2024-09-10 20:33:47			0	38079	0	0	0	27522	26130	154748	27254	1074835	47043	110211	0	0	8140	543623	0	0
2024-09-10 20:34:47			0	38093	0	0	0	27524	26140	154876	26955	1074871	47067	110212	0	0	8140	543052	0	0
2024-09-10 20:35:47			0	38080	0	0	0	27524	26140	154808	26821	1074925	47056	110212	0	0	8140	543553	0	0
2024-09-10 20:36:47			0	38096	0	0	0	27522	26120	154932	27007	1074871	47055	110211	0	0	8141	542998	0	0
2024-09-10 20:37:47			0	38079	0	0	0	27522	26130	154956	26963	1074826	47077	110211	0	0	8140	543623	0	0
2024-09-10 20:38:47			0	38086	0	0	0	27519	26130	154952	26968	1074799	47077	110210	0	0	8140	543353	0	0
2024-09-10 20:39:47			0	38068	0	0	0	27519	26130	155128	27152	1074799	47043	110210	0	0	8139	544047	0	0
2024-09-10 20:40:47			0	38060	0	0	0	27511	26130	155056	27341	1074799	47055	110207	0	0	8139	544356	0	0
2024-09-10 20:41:47			0	38023	0	0	0	27522	26120	155175	27343	1074790	47066	110211	0	0	8136	545817	0	0
2024-09-10 20:42:47			0	38025	0	0	0	27509	26110	155220	27059	1074772	47053	110206	0	0	8137	545771	0	0
2024-09-10 20:43:47			0	38003	0	0	0	27519	26120	155319	27249	1074808	47065	110210	0	0	8135	546591	0	0
2024-09-10 20:44:47			0	37958	0	0	0	27522	26120	155367	26823	1074835	47054	110211	0	0	8133	548335	0	0
2024-09-10 20:45:47			0	37949	0	0	0	27509	26120	155431	27029	1074790	47055	110206	0	0	8132	548684	0	0
2024-09-10 20:46:47			0	37959	0	0	0	27511	26120	155487	26972	1074817	47033	110207	0	0	8133	548296	0	0
2024-09-10 20:47:47			0	37921	0	0	0	27506	26110	155587	26935	1074763	47041	110205	0	0	8131	549802	0	0
2024-09-10 20:48:47			0	37912	0	0	0	27511	26120	155683	27227	1074817	47055	110207	0	0	8130	550121	0	0
2024-09-10 20:49:47			0	37906	0	0	0	27511	26110	155723	27144	1074799	47064	110207	0	0	8130	550386	0	0
2024-09-10 20:50:47			0	37921	0	0	0	27516	26130	155563	27263	1074799	47055	110209	0	0	8131	549740	0	0
2024-09-10 20:51:47			0	37891	0	0	0	27506	26120	155631	27170	1074755	47054	110205	0	0	8129	550938	0	0
2024-09-10 20:52:47			0	37890	0	0	0	27493	26110	155691	27097	1074772	47064	110200	0	0	8129	551008	0	0
2024-09-10 20:53:47			0	37892	0	0	0	27506	26110	155687	26880	1074745	47053	110205	0	0	8129	550930	0	0
2024-09-10 20:54:47			0	37887	0	0	0	27480	26110	155659	27079	1074745	47064	110195	0	0	8129	551125	0	0
2024-09-10 20:55:47			0	37878	0	0	0	27483	26110	155787	26847	1074692	47053	110196	0	0	8129	551475	0	0
2024-09-10 20:56:47			0	37872	0	0	0	27477	26100	155699	27211	1074691	47052	110194	0	0	8128	551740	0	0
2024-09-10 20:57:47			0	37861	0	0	0	27470	26100	155835	27170	1074674	47052	110191	0	0	8128	552169	0	0
2024-09-10 20:58:47			0	37859	0	0	0	27462	26100	155879	27123	1074620	47052	110188	0	0	8128	552246	0	0
2024-09-10 20:59:47			0	37821	0	0	0	27457	26100	155999	27086	1074638	47041	110186	0	0	8126	553728	0	0
2024-09-10 21:00:47			0	37796	0	0	0	27467	26090	156099	27187	1074593	47039	110190	0	0	8124	554736	0	0
2024-09-10 21:01:47			0	37774	0	0	0	27457	26090	156067	27173	1074521	47051	110186	0	0	8123	555597	0	0
2024-09-10 21:02:47			0	37771	0	0	0	27457	26080	156287	27109	1074575	47050	110186	0	0	8123	555746	0	0
2024-09-10 21:03:47			0	37756	0	0	0	27451	26070	156355	26757	1074485	47049	110184	0	0	8122	556364	0	0
2024-09-10 21:04:47			0	37741	0	0	0	27451	26070	156295	26923	1074449	47048	110184	0	0	8121	556952	0	0
2024-09-10 21:05:47			0	37741	0	0	0	27459	26070	156259	27022	1074512	47049	110187	0	0	8121	556952	0	0
2024-09-10 21:06:47			0	37759	0	0	0	27467	26060	156275	26889	1074521	47037	110190	0	0	8122	556279	0	0
2024-09-10 21:07:47			0	37747	0	0	0	27470	26070	156331	27067	1074557	47048	110191	0	0	8121	556717	0	0
2024-09-10 21:08:47			0	37745	0	0	0	27449	26070	156399	26837	1074503	47048	110183	0	0	8121	556795	0	0
2024-09-10 21:09:47			0	37744	0	0	0	27451	26060	156275	26710	1074547	47048	110184	0	0	8121	556866	0	0
2024-09-10 21:10:47			0	37766	0	0	0	27433	26050	156283	26991	1074503	47036	110177	0	0	8123	556037	0	0
2024-09-10 21:11:47			0	37737	0	0	0	27431	26040	156291	27114	1074520	47035	110176	0	0	8121	557204	0	0
2024-09-10 21:12:47			0	37731	0	0	0	27431	26050	156243	27095	1074395	47036	110176	0	0	8121	557407	0	0
2024-09-10 21:13:47			0	37699	0	0	0	27431	26050	156307	26755	1074395	47036	110176	0	0	8119	558663	0	0
2024-09-10 21:14:47			0	37723	0	0	0	27423	26040	156343	26986	1074359	47046	110173	0	0	8120	557753	0	0
2024-09-10 21:15:47			0	37736	0	0	0	27415	26030	156363	26965	1074368	47034	110170	0	0	8121	557275	0	0
2024-09-10 21:16:47			0	37731	0	0	0	27418	26030	156307	26899	1074359	47045	110171	0	0	8121	557471	0	0
2024-09-10 21:17:47			0	37746	0	0	0	27410	26030	156303	27201	1074314	47056	110168	0	0	8122	556883	0	0
2024-09-10 21:18:47			0	37757	0	0	0	27420	26030	156215	26783	1074314	47034	110172	0	0	8122	556452	0	0
2024-09-10 21:19:47			0	37774	0	0	0	27444	26030	156191	26599	1074341	47045	110181	0	0	8123	555787	0	0
2024-09-10 21:20:47			0	37794	0	0	0	27425	26020	156115	27005	1074323	47044	110174	0	0	8124	555036	0	0
2024-09-10 21:21:47			0	37791	0	0	0	27431	26010	156091	27199	1074305	47032	110176	0	0	8124	555185	0	0
2024-09-10 21:22:47			0	37774	0	0	0	27444	26020	156055	26654	1074287	47054	110181	0	0	8123	555819	0	0
2024-09-10 21:23:47			0	37806	0	0	0	27436	26020	156071	27227	1074340	47054	110178	0	0	8125	554567	0	0
2024-09-10 21:24:47			0	37808	0	0	0	27441	26030	156099	27277	1074305	47056	110180	0	0	8125	554457	0	0
2024-09-10 21:25:47			0	37812	0	0	0	27446	26020	156123	27123	1074340	47043	110182	0	0	8125	554333	0	0
2024-09-10 21:26:47			0	37801	0	0	0	27425	26030	156115	27036	1074332	47056	110174	0	0	8125	554731	0	0
2024-09-10 21:27:47			0	37785	0	0	0	27420	26030	156191	27057	1074305	47056	110172	0	0	8124	555356	0	0
2024-09-10 21:28:47			0	37791	0	0	0	27428	26020	156107	27312	1074314	47043	110175	0	0	8124	555153	0	0
2024-09-10 21:29:47			0	37773	0	0	0	27420	26000	156183	27109	1074286	47042	110172	0	0	8123	555921	0	0
2024-09-10 21:30:47			0	37756	0	0	0	27423	26010	156203	27053	1074296	47043	110173	0	0	8122	556555	0	0
2024-09-10 21:31:47			0	37768	0	0	0	27433	26010	156275	26916	1074269	47043	110177	0	0	8123	556085	0	0
2024-09-10 21:32:47			0	37773	0	0	0	27425	26020	156191	27124	1074287	47043	110174	0	0	8123	555858	0	0
2024-09-10 21:33:47			0	37746	0	0	0	27425	26000	156319	27410	1074286	47053	110174	0	0	8121	556978	0	0
2024-09-10 21:34:47			0	37735	0	0	0	27431	26020	156299	27263	1074350	47044	110176	0	0	8121	557346	0	0
2024-09-10 21:35:47			0	37747	0	0	0	27444	26020	156263	27102	1074314	47054	110181	0	0	8121	556876	0	0
2024-09-10 21:36:47			0	37768	0	0	0	27444	26030	156307	27281	1074368	47056	110181	0	0	8122	556021	0	0
2024-09-10 21:37:47			0	37750	0	0	0	27433	26020	156351	27244	1074314	47054	110177	0	0	8122	556758	0	0
2024-09-10 21:38:47			0	37742	0	0	0	27436	26020	156267	26885	1074376	47066	110178	0	0	8121	557072	0	0
2024-09-10 21:39:47			0	37750	0	0	0	27425	26010	156299	26713	1074331	47043	110174	0	0	8122	556790	0	0
2024-09-10 21:40:47			0	37732	0	0	0	27415	26020	156351	26880	1074340	47065	110170	0	0	8121	557464	0	0
2024-09-10 21:41:47			0	37700	0	0	0	27410	26030	156395	27008	1074359	47056	110168	0	0	8119	558687	0	0
2024-09-10 21:42:47			0	37667	0	0	0	27397	26020	156687	26779	1074242	47055	110163	0	0	8117	560016	0	0
2024-09-10 21:43:47			0	37630	0	0	0	27399	26020	156683	26897	1074287	47043	110164	0	0	8115	561472	0	0
2024-09-10 21:44:47			0	37611	0	0	0	27389	26000	156815	26816	1074260	47031	110160	0	0	8114	562285	0	0
2024-09-10 21:45:47			0	37595	0	0	0	27376	26000	156919	26955	1074206	47042	110155	0	0	8113	562916	0	0
2024-09-10 21:46:47			0	37570	0	0	0	27368	26000	156983	26896	1074206	47031	110152	0	0	8112	563903	0	0
2024-09-10 21:47:47			0	37552	0	0	0	27381	26000	157031	27220	1074170	47019	110157	0	0	8111	564614	0	0
2024-09-10 21:48:47			0	37527	0	0	0	27381	26000	157199	26857	1074170	47041	110157	0	0	8109	565603	0	0
2024-09-10 21:49:47			0	37527	0	0	0	27366	25990	157255	27249	1074125	47041	110151	0	0	8110	565635	0	0
2024-09-10 21:50:47			0	37541	0	0	0	27379	25990	157231	27232	1074107	47052	110156	0	0	8110	565081	0	0
2024-09-10 21:51:47			0	37556	0	0	0	27376	25980	157195	27149	1074026	47028	110155	0	0	8111	564520	0	0
2024-09-10 21:52:47			0	37535	0	0	0	27379	25970	157107	27088	1074089	47038	110156	0	0	8110	565383	0	0
2024-09-10 21:53:47			0	37560	0	0	0	27381	25970	157155	27114	1074089	47038	110157	0	0	8111	564394	0	0
2024-09-10 21:54:47			0	37576	0	0	0	27384	25980	156947	26984	1074107	47050	110158	0	0	8112	563730	0	0
2024-09-10 21:55:47			0	37594	0	0	0	27379	25980	156979	27168	1074134	47040	110156	0	0	8113	563019	0	0
2024-09-10 21:56:47			0	37606	0	0	0	27368	25980	156831	26979	1074089	47041	110152	0	0	8114	562546	0	0
2024-09-10 21:57:47			0	37619	0	0	0	27371	25980	156747	27052	1074080	47050	110153	0	0	8115	562034	0	0
2024-09-10 21:58:47			0	37616	0	0	0	27371	25970	156827	27152	1074116	47049	110153	0	0	8115	562184	0	0
2024-09-10 21:59:47			0	37605	0	0	0	27376	25970	156791	26677	1074089	47049	110155	0	0	8114	562618	0	0
2024-09-10 22:00:47			0	37603	0	0	0	27381	25970	156863	27072	1074116	47038	110157	0	0	8114	562696	0	0
2024-09-10 22:01:47			0	37611	0	0	0	27373	25970	156815	26830	1074098	47028	110154	0	0	8114	562381	0	0
2024-09-10 22:02:47			0	37630	0	0	0	27373	25970	156855	27112	1074089	47049	110154	0	0	8115	561632	0	0
2024-09-10 22:03:47			0	37614	0	0	0	27371	25980	156827	26993	1074026	47040	110153	0	0	8114	562231	0	0
2024-09-10 22:04:47			0	37607	0	0	0	27363	25970	156815	27168	1074044	47040	110150	0	0	8114	562539	0	0
2024-09-10 22:05:47			0	37614	0	0	0	27361	25970	156871	27204	1074071	47040	110149	0	0	8115	562263	0	0
2024-09-10 22:06:47			0	37605	0	0	0	27355	25970	156847	27293	1074035	47027	110147	0	0	8114	562618	0	0
2024-09-10 22:07:47			0	37613	0	0	0	27358	25970	156971	27317	1074071	47040	110148	0	0	8115	562302	0	0
2024-09-10 22:08:47			0	37592	0	0	0	27350	25950	156947	27289	1073954	47037	110145	0	0	8113	563195	0	0
2024-09-10 22:09:47			0	37592	0	0	0	27358	25960	156943	26861	1073990	47026	110148	0	0	8113	563163	0	0
2024-09-10 22:10:47			0	37576	0	0	0	27350	25960	157011	27346	1073999	47060	110145	0	0	8113	563794	0	0
2024-09-10 22:11:47			0	37567	0	0	0	27355	25950	156851	27150	1073981	47025	110147	0	0	8112	564182	0	0
2024-09-10 22:12:47			0	37556	0	0	0	27348	25960	157007	27067	1074044	47048	110144	0	0	8111	564585	0	0
2024-09-10 22:13:47			0	37563	0	0	0	27353	25960	157091	27428	1073973	47038	110146	0	0	8112	564308	0	0
2024-09-10 22:14:47			0	37561	0	0	0	27355	25950	157039	26866	1074035	47047	110147	0	0	8112	564419	0	0
2024-09-10 22:15:47			0	37562	0	0	0	27361	25960	157047	27367	1073973	47038	110149	0	0	8112	564348	0	0
2024-09-10 22:16:47			0	37566	0	0	0	27355	25960	157071	27074	1074017	47038	110147	0	0	8112	564189	0	0
2024-09-10 22:17:47			0	37571	0	0	0	27337	25950	156959	27320	1073954	47037	110140	0	0	8112	564024	0	0
2024-09-10 22:18:47			0	37584	0	0	0	27348	25950	157003	27270	1074008	47047	110144	0	0	8113	563511	0	0
2024-09-10 22:19:47			0	37587	0	0	0	27353	25960	156991	27033	1073963	47038	110146	0	0	8113	563360	0	0
2024-09-10 22:20:47			0	37597	0	0	0	27355	25950	156959	27163	1073981	47025	110147	0	0	8114	562997	0	0
2024-09-10 22:21:47			0	37596	0	0	0	27350	25940	157007	27415	1073954	47046	110145	0	0	8114	563069	0	0
2024-09-10 22:22:47			0	37588	0	0	0	27363	25950	157031	27334	1073954	47047	110150	0	0	8113	563353	0	0
2024-09-10 22:23:47			0	37606	0	0	0	27363	25940	156979	27265	1073936	47047	110150	0	0	8114	562674	0	0
2024-09-10 22:24:47			0	37614	0	0	0	27348	25950	156979	27046	1073999	47037	110144	0	0	8115	562327	0	0
2024-09-10 22:25:47			0	37610	0	0	0	27350	25950	156927	27265	1073945	47037	110145	0	0	8114	562485	0	0
2024-09-10 22:26:47			0	37592	0	0	0	27348	25940	157047	27222	1074008	47035	110144	0	0	8113	563227	0	0
2024-09-10 22:27:47			0	37590	0	0	0	27368	25960	157107	27118	1073990	47048	110152	0	0	8113	563242	0	0
2024-09-10 22:28:47			0	37534	0	0	0	27363	25950	157219	27150	1073954	47058	110150	0	0	8110	565487	0	0
2024-09-10 22:29:47			0	37542	0	0	0	27361	25950	157315	27227	1073999	47058	110149	0	0	8110	565171	0	0
2024-09-10 22:30:47			0	37547	0	0	0	27379	25950	157211	27041	1073999	47037	110156	0	0	8110	564973	0	0
2024-09-10 22:31:47			0	37558	0	0	0	27371	25940	157191	27168	1074017	47037	110153	0	0	8111	564570	0	0
2024-09-10 22:32:47			0	37569	0	0	0	27368	25950	157027	27235	1074008	47037	110152	0	0	8112	564103	0	0
2024-09-10 22:33:47			0	37593	0	0	0	27363	25950	157011	26878	1073981	47047	110150	0	0	8113	563155	0	0
2024-09-10 22:34:47			0	37571	0	0	0	27363	25940	157043	26920	1074044	47047	110150	0	0	8112	564056	0	0
2024-09-10 22:35:47			0	37577	0	0	0	27358	25950	157079	27254	1073999	47047	110148	0	0	8112	563787	0	0
2024-09-10 22:36:47			0	37546	0	0	0	27350	25950	157163	27086	1073981	47047	110145	0	0	8111	565012	0	0
2024-09-10 22:37:47			0	37520	0	0	0	27358	25950	157243	27173	1073981	47037	110148	0	0	8109	566041	0	0
2024-09-10 22:38:47			0	37520	0	0	0	27353	25950	157347	26994	1073999	47058	110146	0	0	8109	566041	0	0
2024-09-10 22:39:47			0	37506	0	0	0	27342	25940	157407	27062	1073936	47058	110142	0	0	8108	566628	0	0
2024-09-10 22:40:47			0	37491	0	0	0	27345	25950	157387	27241	1073918	47047	110143	0	0	8108	567191	0	0
2024-09-10 22:41:47			0	37484	0	0	0	27340	25950	157371	27152	1073892	47047	110141	0	0	8107	567468	0	0
2024-09-10 22:42:47			0	37501	0	0	0	27348	25930	157307	26908	1073891	47034	110144	0	0	8108	566859	0	0
2024-09-10 22:43:47			0	37515	0	0	0	27337	25940	157367	27142	1073909	47037	110140	0	0	8109	566272	0	0
2024-09-10 22:44:47			0	37498	0	0	0	27342	25950	157347	26844	1073918	47047	110142	0	0	8108	566913	0	0
2024-09-10 22:45:47			0	37522	0	0	0	27368	25950	157323	27232	1073918	47037	110152	0	0	8109	565962	0	0
2024-09-10 22:46:47			0	37514	0	0	0	27379	25940	157343	26993	1073954	47035	110156	0	0	8108	566311	0	0
2024-09-10 22:47:47			0	37518	0	0	0	27379	25950	157295	27161	1073972	47047	110156	0	0	8109	566121	0	0
2024-09-10 22:48:47			0	37504	0	0	0	27368	25940	157243	27114	1073963	47037	110152	0	0	8108	566708	0	0
2024-09-10 22:49:47			0	37518	0	0	0	27361	25950	157351	27189	1073999	47037	110149	0	0	8109	566121	0	0
2024-09-10 22:50:47			0	37515	0	0	0	27355	25950	157283	27010	1073981	47047	110147	0	0	8109	566240	0	0
2024-09-10 22:51:47			0	37519	0	0	0	27348	25950	157319	27119	1073918	47047	110144	0	0	8109	566081	0	0
2024-09-10 22:52:47			0	37483	0	0	0	27348	25950	157351	26814	1073945	47047	110144	0	0	8107	567508	0	0
2024-09-10 22:53:47			0	37495	0	0	0	27348	25950	157359	27258	1073981	47025	110144	0	0	8108	567032	0	0
2024-09-10 22:54:47			0	37509	0	0	0	27324	25940	157279	26809	1073936	47037	110135	0	0	8109	566510	0	0
2024-09-10 22:55:47			0	37475	0	0	0	27350	25950	157343	27105	1073901	47037	110145	0	0	8107	567825	0	0
2024-09-10 22:56:47			0	37474	0	0	0	27329	25940	157379	26696	1073874	47035	110137	0	0	8107	567897	0	0
2024-09-10 22:57:47			0	37462	0	0	0	27342	25940	157463	27026	1073900	47024	110142	0	0	8106	568374	0	0
2024-09-10 22:58:47			0	37469	0	0	0	27335	25940	157499	27036	1073927	47035	110139	0	0	8106	568096	0	0
2024-09-10 22:59:47			0	37465	0	0	0	27329	25930	157527	26958	1073865	47045	110137	0	0	8106	568287	0	0
2024-09-10 23:00:47			0	37444	0	0	0	27350	25940	157655	27060	1073847	47057	110145	0	0	8105	569089	0	0
2024-09-10 23:01:47			0	37459	0	0	0	27332	25940	157551	26854	1073883	47037	110138	0	0	8106	568493	0	0
2024-09-10 23:02:47			0	37457	0	0	0	27332	25940	157575	26696	1073820	47057	110138	0	0	8106	568572	0	0
2024-09-10 23:03:47			0	37464	0	0	0	27337	25940	157499	26953	1073847	47046	110140	0	0	8106	568294	0	0
2024-09-10 23:04:47			0	37455	0	0	0	27337	25930	157499	27213	1073865	47023	110140	0	0	8106	568684	0	0
2024-09-10 23:05:47			0	37445	0	0	0	27327	25930	157555	26726	1073838	47056	110136	0	0	8105	569082	0	0
2024-09-10 23:06:47			0	37443	0	0	0	27322	25930	157611	27128	1073865	47023	110134	0	0	8105	569161	0	0
2024-09-10 23:07:47			0	37443	0	0	0	27335	25930	157623	27131	1073891	47034	110139	0	0	8105	569161	0	0
2024-09-10 23:08:47			0	37420	0	0	0	27332	25920	157703	26927	1073873	47034	110138	0	0	8104	570108	0	0
2024-09-10 23:09:47			0	37428	0	0	0	27327	25930	157623	27374	1073829	47034	110136	0	0	8104	569757	0	0
2024-09-10 23:10:47			0	37408	0	0	0	27324	25920	157675	27100	1073820	47034	110135	0	0	8103	570586	0	0
2024-09-10 23:11:47			0	37401	0	0	0	27332	25910	157707	27256	1073774	47032	110138	0	0	8102	570897	0	0
2024-09-10 23:12:47			0	37397	0	0	0	27329	25920	157811	27206	1073810	47033	110137	0	0	8102	571024	0	0
2024-09-10 23:13:47			0	37401	0	0	0	27337	25930	157847	26906	1073909	47034	110140	0	0	8102	570832	0	0
2024-09-10 23:14:47			0	37377	0	0	0	27322	25930	157891	27026	1073882	47045	110134	0	0	8101	571788	0	0
2024-09-10 23:15:47			0	37386	0	0	0	27324	25930	158059	26960	1073855	47045	110135	0	0	8102	571429	0	0
2024-09-10 23:16:47			0	37378	0	0	0	27322	25920	157915	27261	1073766	47034	110134	0	0	8101	571781	0	0
2024-09-10 23:17:47			0	37368	0	0	0	27319	25930	157995	27355	1073882	47023	110133	0	0	8101	572147	0	0
2024-09-10 23:18:47			0	37374	0	0	0	27322	25920	157967	27173	1073783	47044	110134	0	0	8101	571940	0	0
2024-09-10 23:19:47			0	37359	0	0	0	27319	25910	157891	27017	1073801	47032	110133	0	0	8100	572571	0	0
2024-09-10 23:20:47			0	37360	0	0	0	27327	25920	157979	27059	1073739	47034	110136	0	0	8100	572499	0	0
2024-09-10 23:21:47			0	37341	0	0	0	27319	25920	158051	27033	1073846	47056	110133	0	0	8099	573257	0	0
2024-09-10 23:22:47			0	37350	0	0	0	27322	25920	157983	27034	1073730	47044	110134	0	0	8100	572898	0	0
2024-09-10 23:23:47			0	37341	0	0	0	27314	25920	158067	27020	1073837	47055	110131	0	0	8099	573257	0	0
2024-09-10 23:24:47			0	37339	0	0	0	27314	25920	158067	27013	1073810	47033	110131	0	0	8099	573337	0	0
2024-09-10 23:25:47			0	37312	0	0	0	27314	25920	158123	27282	1073810	47033	110131	0	0	8097	574416	0	0
2024-09-10 23:26:47			0	37320	0	0	0	27319	25920	158119	27137	1073810	47044	110133	0	0	8098	574096	0	0
2024-09-10 23:27:47			0	37306	0	0	0	27309	25920	158266	27350	1073810	47033	110129	0	0	8097	574656	0	0
2024-09-10 23:28:47			0	37301	0	0	0	27316	25910	158170	27104	1073855	47032	110132	0	0	8097	574889	0	0
2024-09-10 23:29:47			0	37312	0	0	0	27309	25910	158230	27213	1073801	47021	110129	0	0	8098	574449	0	0
2024-09-10 23:30:47			0	37311	0	0	0	27314	25910	158202	27171	1073819	47043	110131	0	0	8097	574489	0	0
2024-09-10 23:31:47			0	37317	0	0	0	27309	25920	158199	27036	1073846	47023	110129	0	0	8098	574216	0	0
2024-09-10 23:32:47			0	37318	0	0	0	27306	25910	158235	27156	1073765	47043	110128	0	0	8098	574209	0	0
2024-09-10 23:33:47			0	37323	0	0	0	27311	25910	158175	27319	1073774	47032	110130	0	0	8098	574009	0	0
2024-09-10 23:34:47			0	37326	0	0	0	27303	25900	158203	27123	1073783	47031	110127	0	0	8098	573922	0	0
2024-09-10 23:35:47			0	37325	0	0	0	27296	25910	158095	26833	1073738	47032	110124	0	0	8099	573929	0	0
2024-09-10 23:36:47			0	37313	0	0	0	27301	25900	158139	26889	1073729	47042	110126	0	0	8098	574441	0	0
2024-09-10 23:37:47			0	37323	0	0	0	27298	25900	158143	27241	1073676	47042	110125	0	0	8098	574042	0	0
2024-09-10 23:38:47			0	37325	0	0	0	27296	25910	158074	27038	1073712	47032	110124	0	0	8099	573929	0	0
2024-09-10 23:39:47			0	37308	0	0	0	27288	25900	158082	26892	1073703	47031	110121	0	0	8098	574642	0	0
2024-09-10 23:40:47			0	37290	0	0	0	27296	25900	158194	27171	1073756	47031	110124	0	0	8096	575362	0	0
2024-09-10 23:41:47			0	37314	0	0	0	27285	25900	158199	27234	1073720	47031	110120	0	0	8098	574402	0	0
2024-09-10 23:42:47			0	37299	0	0	0	27285	25900	158254	26977	1073693	47031	110120	0	0	8097	575001	0	0
2024-09-10 23:43:47			0	37321	0	0	0	27272	25900	158171	26892	1073640	47031	110115	0	0	8099	574122	0	0
2024-09-10 23:44:47			0	37309	0	0	0	27262	25890	158150	27164	1073711	47030	110111	0	0	8098	574634	0	0
2024-09-10 23:45:47			0	37328	0	0	0	27267	25880	158175	27123	1073604	47041	110113	0	0	8099	573907	0	0
2024-09-10 23:46:47			0	37342	0	0	0	27262	25880	158207	27319	1073639	47041	110111	0	0	8100	573348	0	0
2024-09-10 23:47:47			0	37329	0	0	0	27267	25890	158143	27289	1073568	47030	110113	0	0	8099	573835	0	0
2024-09-10 23:48:47			0	37328	0	0	0	27259	25870	158179	27081	1073568	47040	110110	0	0	8099	573940	0	0
2024-09-10 23:49:47			0	37331	0	0	0	27259	25870	158095	27403	1073514	47028	110110	0	0	8099	573820	0	0
2024-09-10 23:50:47			0	37330	0	0	0	27264	25870	158115	27282	1073532	47027	110112	0	0	8099	573860	0	0
2024-09-10 23:51:47			0	37328	0	0	0	27259	25870	158123	27168	1073559	47016	110110	0	0	8099	573940	0	0
2024-09-10 23:52:47			0	37336	0	0	0	27270	25870	158087	27287	1073541	47040	110114	0	0	8099	573620	0	0
2024-09-10 23:53:47			0	37364	0	0	0	27270	25870	158147	26982	1073505	47027	110114	0	0	8101	572502	0	0
2024-09-10 23:54:47			0	37362	0	0	0	27264	25870	158099	27164	1073514	47028	110112	0	0	8101	572582	0	0
2024-09-10 23:55:47			0	37353	0	0	0	27257	25870	158147	27126	1073478	47016	110109	0	0	8101	572941	0	0
2024-09-10 23:56:47			0	37379	0	0	0	27259	25860	158139	27055	1073433	47039	110110	0	0	8102	571936	0	0
2024-09-10 23:57:47			0	37358	0	0	0	27262	25860	158043	27371	1073469	47039	110111	0	0	8101	572774	0	0
2024-09-10 23:58:47			0	37351	0	0	0	27272	25860	158023	27249	1073576	47027	110115	0	0	8100	573054	0	0
2024-09-10 23:59:47			0	37355	0	0	0	27262	25860	158103	27131	1073496	47027	110111	0	0	8101	572894	0	0
2024-09-11 00:00:47			0	37379	0	0	0	27270	25860	158075	26979	1073541	47039	110114	0	0	8102	571936	0	0
2024-09-11 00:01:47			0	37396	0	0	0	27254	25860	157899	26935	1073523	47027	110108	0	0	8103	571259	0	0
2024-09-11 00:02:47			0	37394	0	0	0	27254	25860	157927	26831	1073442	47027	110108	0	0	8103	571339	0	0
2024-09-11 00:03:47			0	37403	0	0	0	27257	25860	157935	26965	1073460	47039	110109	0	0	8104	570980	0	0
2024-09-11 00:04:47			0	37382	0	0	0	27254	25860	158035	27171	1073433	47016	110108	0	0	8102	571817	0	0
2024-09-11 00:05:47			0	37393	0	0	0	27251	25860	158007	27097	1073487	47039	110107	0	0	8103	571378	0	0
2024-09-11 00:06:47			0	37391	0	0	0	27246	25850	157911	27254	1073451	47026	110105	0	0	8103	571491	0	0
2024-09-11 00:07:47			0	37388	0	0	0	27246	25860	157943	27072	1073460	47016	110105	0	0	8103	571578	0	0
2024-09-11 00:08:47			0	37384	0	0	0	27246	25850	158039	27140	1073532	47026	110105	0	0	8103	571770	0	0
2024-09-11 00:09:47			0	37403	0	0	0	27238	25860	157935	27176	1073460	47027	110102	0	0	8104	570980	0	0
2024-09-11 00:10:47			0	37374	0	0	0	27238	25840	158047	27128	1073379	47025	110102	0	0	8102	572201	0	0
2024-09-11 00:11:47			0	37361	0	0	0	27233	25850	158011	27069	1073442	47037	110100	0	0	8101	572687	0	0
2024-09-11 00:12:47			0	37381	0	0	0	27241	25840	158131	27227	1073406	47025	110103	0	0	8102	571922	0	0
2024-09-11 00:13:47			0	37343	0	0	0	27241	25850	158023	27152	1073388	47037	110103	0	0	8100	573406	0	0
2024-09-11 00:14:47			0	37352	0	0	0	27241	25840	158035	26791	1073370	47024	110103	0	0	8101	573079	0	0
2024-09-11 00:15:47			0	37348	0	0	0	27254	25840	158035	27012	1073406	47025	110108	0	0	8100	573239	0	0
2024-09-11 00:16:47			0	37343	0	0	0	27251	25850	158083	27178	1073397	47038	110107	0	0	8100	573406	0	0
2024-09-11 00:17:47			0	37341	0	0	0	27254	25850	158175	27038	1073361	47037	110108	0	0	8100	573486	0	0
2024-09-11 00:18:47			0	37315	0	0	0	27249	25840	158255	27098	1073433	47037	110106	0	0	8098	574558	0	0
2024-09-11 00:19:47			0	37304	0	0	0	27241	25840	158174	26925	1073433	47025	110103	0	0	8098	574998	0	0
2024-09-11 00:20:47			0	37282	0	0	0	27264	25840	158306	27119	1073451	47036	110112	0	0	8096	575879	0	0
2024-09-11 00:21:47			0	37263	0	0	0	27254	25850	158406	26861	1073469	47014	110108	0	0	8095	576607	0	0
2024-09-11 00:22:47			0	37245	0	0	0	27254	25840	158462	27196	1073424	47036	110108	0	0	8094	577362	0	0
2024-09-11 00:23:47			0	37211	0	0	0	27249	25840	158590	27090	1073478	47013	110106	0	0	8092	578728	0	0
2024-09-11 00:24:47			0	37200	0	0	0	27259	25850	158686	27157	1073442	47047	110110	0	0	8092	579137	0	0
2024-09-11 00:25:47			0	37174	0	0	0	27259	25850	158702	27194	1073415	47025	110110	0	0	8090	580183	0	0
2024-09-11 00:26:47			0	37174	0	0	0	27264	25850	158810	27067	1073451	47026	110112	0	0	8090	580183	0	0
2024-09-11 00:27:47			0	37159	0	0	0	27259	25850	158902	27267	1073505	47048	110110	0	0	8089	580787	0	0
2024-09-11 00:28:47			0	37142	0	0	0	27259	25860	158802	27242	1073567	47027	110110	0	0	8088	581439	0	0
2024-09-11 00:29:47			0	37149	0	0	0	27264	25860	158938	27334	1073487	47027	110112	0	0	8088	581157	0	0
2024-09-11 00:30:47			0	37135	0	0	0	27264	25850	158898	27267	1073496	47037	110112	0	0	8088	581754	0	0
2024-09-11 00:31:47			0	37136	0	0	0	27259	25850	158986	27123	1073469	47047	110110	0	0	8088	581714	0	0
2024-09-11 00:32:47			0	37122	0	0	0	27262	25870	159010	27197	1073532	47039	110111	0	0	8087	582212	0	0
2024-09-11 00:33:47			0	37137	0	0	0	27254	25860	159006	27334	1073523	47039	110108	0	0	8088	581640	0	0
2024-09-11 00:34:47			0	37136	0	0	0	27254	25860	158970	27222	1073514	47049	110108	0	0	8088	581681	0	0
2024-09-11 00:35:47			0	37118	0	0	0	27262	25860	159106	27060	1073514	47016	110111	0	0	8087	582407	0	0
2024-09-11 00:36:47			0	37130	0	0	0	27262	25850	159046	27005	1073451	47026	110111	0	0	8087	581956	0	0
2024-09-11 00:37:47			0	37126	0	0	0	27275	25850	159118	27256	1073496	47025	110116	0	0	8087	582117	0	0
2024-09-11 00:38:47			0	37121	0	0	0	27270	25860	158990	27119	1073487	47027	110114	0	0	8087	582286	0	0
2024-09-11 00:39:47			0	37130	0	0	0	27270	25850	159018	27133	1073522	47014	110114	0	0	8087	581956	0	0
2024-09-11 00:40:47			0	37118	0	0	0	27275	25850	159038	27223	1073522	47047	110116	0	0	8086	582440	0	0
2024-09-11 00:41:47			0	37122	0	0	0	27264	25860	159066	27289	1073487	47027	110112	0	0	8087	582246	0	0
2024-09-11 00:42:47			0	37133	0	0	0	27262	25860	158990	26949	1073550	47027	110111	0	0	8088	581802	0	0
2024-09-11 00:43:47			0	37119	0	0	0	27267	25850	159098	27085	1073505	47026	110113	0	0	8087	582400	0	0
2024-09-11 00:44:47			0	37135	0	0	0	27257	25860	158970	27313	1073523	47027	110109	0	0	8088	581721	0	0
2024-09-11 00:45:47			0	37138	0	0	0	27257	25850	159038	27022	1073496	47025	110109	0	0	8088	581633	0	0
2024-09-11 00:46:47			0	37112	0	0	0	27264	25860	158986	27182	1073460	47027	110112	0	0	8086	582649	0	0
2024-09-11 00:47:47			0	37128	0	0	0	27270	25850	158962	27201	1073505	47015	110114	0	0	8087	582037	0	0
2024-09-11 00:48:47			0	37126	0	0	0	27270	25860	158958	27119	1073514	47039	110114	0	0	8087	582084	0	0
2024-09-11 00:49:47			0	37143	0	0	0	27275	25860	158978	27383	1073541	47039	110116	0	0	8088	581399	0	0
2024-09-11 00:50:47			0	37149	0	0	0	27272	25850	159022	27157	1073558	47038	110115	0	0	8088	581190	0	0
2024-09-11 00:51:47			0	37145	0	0	0	27272	25860	158962	27041	1073541	47049	110115	0	0	8088	581318	0	0
2024-09-11 00:52:47			0	37138	0	0	0	27272	25860	158898	27090	1073514	47049	110115	0	0	8088	581600	0	0
2024-09-11 00:53:47			0	37167	0	0	0	27262	25860	158898	27159	1073487	47039	110111	0	0	8090	580432	0	0
2024-09-11 00:54:47			0	37181	0	0	0	27254	25850	158794	27109	1073505	47038	110108	0	0	8090	579901	0	0
2024-09-11 00:55:47			0	37193	0	0	0	27257	25850	158694	27196	1073585	47038	110109	0	0	8091	579418	0	0
2024-09-11 00:56:47			0	37239	0	0	0	27262	25860	158610	26960	1073496	47027	110111	0	0	8094	577537	0	0
2024-09-11 00:57:47			0	37232	0	0	0	27262	25860	158510	27142	1073541	47027	110111	0	0	8093	577818	0	0
2024-09-11 00:58:47			0	37255	0	0	0	27254	25840	158462	26996	1073513	47037	110108	0	0	8095	576961	0	0
2024-09-11 00:59:47			0	37255	0	0	0	27249	25860	158430	27055	1073523	47016	110106	0	0	8095	576895	0	0
2024-09-11 01:00:47			0	37264	0	0	0	27246	25860	158414	27097	1073460	47039	110105	0	0	8096	576534	0	0
2024-09-11 01:01:47			0	37266	0	0	0	27238	25850	158334	27208	1073451	47026	110102	0	0	8096	576487	0	0
2024-09-11 01:02:47			0	37285	0	0	0	27241	25850	158430	27400	1073478	47038	110103	0	0	8097	575726	0	0
2024-09-11 01:03:47			0	37290	0	0	0	27220	25850	158422	27124	1073451	47015	110095	0	0	8097	575526	0	0
2024-09-11 01:04:47			0	37298	0	0	0	27225	25850	158358	27123	1073442	47025	110097	0	0	8098	575205	0	0
2024-09-11 01:05:47			0	37289	0	0	0	27231	25850	158366	27190	1073424	47015	110099	0	0	8097	575566	0	0
2024-09-11 01:06:47			0	37264	0	0	0	27233	25850	158262	27085	1073415	47025	110100	0	0	8096	576567	0	0
2024-09-11 01:07:47			0	37288	0	0	0	27241	25850	158334	27350	1073415	47025	110103	0	0	8097	575606	0	0
2024-09-11 01:08:47			0	37274	0	0	0	27236	25840	158314	27170	1073343	47024	110101	0	0	8096	576199	0	0
2024-09-11 01:09:47			0	37260	0	0	0	27225	25840	158446	27332	1073433	47037	110097	0	0	8096	576761	0	0
2024-09-11 01:10:47			0	37267	0	0	0	27228	25840	158406	27232	1073370	47036	110098	0	0	8096	576480	0	0
2024-09-11 01:11:47			0	37266	0	0	0	27225	25840	158450	27157	1073397	47046	110097	0	0	8096	576520	0	0
2024-09-11 01:12:47			0	37243	0	0	0	27236	25840	158470	27204	1073397	47036	110101	0	0	8094	577443	0	0
2024-09-11 01:13:47			0	37254	0	0	0	27228	25830	158474	27227	1073379	47035	110098	0	0	8095	577034	0	0
2024-09-11 01:14:47			0	37261	0	0	0	27236	25830	158490	27183	1073415	47024	110101	0	0	8095	576753	0	0
2024-09-11 01:15:47			0	37258	0	0	0	27228	25840	158450	27083	1073379	47037	110098	0	0	8095	576841	0	0
2024-09-11 01:16:47			0	37260	0	0	0	27225	25840	158502	27223	1073343	47036	110097	0	0	8096	576761	0	0
2024-09-11 01:17:47			0	37257	0	0	0	27231	25840	158422	27199	1073397	47024	110099	0	0	8095	576881	0	0
2024-09-11 01:18:47			0	37284	0	0	0	27228	25830	158374	26930	1073361	47036	110098	0	0	8097	575832	0	0
2024-09-11 01:19:47			0	37255	0	0	0	27218	25840	158526	27381	1073352	47014	110094	0	0	8095	576961	0	0
2024-09-11 01:20:47			0	37275	0	0	0	27220	25820	158470	27081	1073334	47034	110095	0	0	8096	576225	0	0
2024-09-11 01:21:47			0	37280	0	0	0	27215	25830	158422	27204	1073388	47024	110093	0	0	8097	575992	0	0
2024-09-11 01:22:47			0	37283	0	0	0	27199	25830	158414	26760	1073298	47023	110087	0	0	8097	575872	0	0
2024-09-11 01:23:47			0	37291	0	0	0	27189	25820	158386	27150	1073289	47023	110083	0	0	8098	575584	0	0
2024-09-11 01:24:47			0	37309	0	0	0	27197	25810	158246	27255	1073271	47022	110086	0	0	8099	574896	0	0
2024-09-11 01:25:47			0	37332	0	0	0	27194	25820	158259	27008	1073280	47022	110085	0	0	8100	573943	0	0
2024-09-11 01:26:47			0	37352	0	0	0	27202	25810	158075	27293	1073298	47022	110088	0	0	8101	573177	0	0
2024-09-11 01:27:47			0	37366	0	0	0	27210	25810	157999	27126	1073271	47022	110091	0	0	8102	572618	0	0
2024-09-11 01:28:47			0	37366	0	0	0	27210	25810	158043	26982	1073218	47034	110091	0	0	8102	572618	0	0
2024-09-11 01:29:47			0	37383	0	0	0	27215	25820	157991	27147	1073254	47022	110093	0	0	8103	571907	0	0
2024-09-11 01:30:47			0	37400	0	0	0	27210	25810	157979	27274	1073298	47022	110091	0	0	8104	571262	0	0
2024-09-11 01:31:47			0	37394	0	0	0	27210	25810	157907	27005	1073289	47021	110091	0	0	8104	571501	0	0
2024-09-11 01:32:47			0	37389	0	0	0	27210	25810	157963	27159	1073289	47033	110091	0	0	8103	571701	0	0
2024-09-11 01:33:47			0	37409	0	0	0	27215	25820	157887	27039	1073227	47011	110093	0	0	8104	570871	0	0
2024-09-11 01:34:47			0	37409	0	0	0	27207	25810	157851	26904	1073235	47021	110090	0	0	8104	570904	0	0
2024-09-11 01:35:47			0	37418	0	0	0	27210	25810	157795	27130	1073271	47022	110091	0	0	8105	570545	0	0
2024-09-11 01:36:47			0	37421	0	0	0	27218	25810	157827	27098	1073262	47021	110094	0	0	8105	570426	0	0
2024-09-11 01:37:47			0	37435	0	0	0	27225	25820	157855	27275	1073334	47044	110097	0	0	8106	569836	0	0
2024-09-11 01:38:47			0	37433	0	0	0	27225	25810	157803	27234	1073298	47034	110097	0	0	8106	569948	0	0
2024-09-11 01:39:47			0	37444	0	0	0	27218	25810	157831	27211	1073325	47034	110094	0	0	8106	569511	0	0
2024-09-11 01:40:47			0	37427	0	0	0	27210	25810	157747	27161	1073235	47033	110091	0	0	8105	570187	0	0
2024-09-11 01:41:47			0	37444	0	0	0	27223	25810	157799	27215	1073325	47034	110096	0	0	8106	569511	0	0
2024-09-11 01:42:47			0	37429	0	0	0	27212	25800	157879	27017	1073280	47033	110092	0	0	8106	570140	0	0
2024-09-11 01:43:47			0	37418	0	0	0	27212	25820	157831	27066	1073280	47034	110092	0	0	8105	570513	0	0
2024-09-11 01:44:47			0	37417	0	0	0	27197	25810	157803	27443	1073271	47022	110086	0	0	8105	570585	0	0
2024-09-11 01:45:47			0	37408	0	0	0	27194	25810	157847	27291	1073235	47021	110085	0	0	8105	570943	0	0
2024-09-11 01:46:47			0	37398	0	0	0	27184	25800	157867	27098	1073163	47020	110081	0	0	8104	571375	0	0
2024-09-11 01:47:47			0	37408	0	0	0	27174	25810	157803	27249	1073182	47010	110077	0	0	8105	570943	0	0
2024-09-11 01:48:47			0	37402	0	0	0	27166	25810	158011	27339	1073182	47010	110074	0	0	8105	571182	0	0
2024-09-11 01:49:47			0	37380	0	0	0	27155	25800	158023	27424	1073200	47010	110070	0	0	8104	572092	0	0
2024-09-11 01:50:47			0	37370	0	0	0	27155	25800	158067	27192	1073136	47009	110070	0	0	8103	572491	0	0
2024-09-11 01:51:47			0	37341	0	0	0	27135	25790	158263	27178	1073101	47008	110062	0	0	8102	573682	0	0
2024-09-11 01:52:47			0	37326	0	0	0	27132	25780	158311	27112	1073056	47008	110061	0	0	8101	574314	0	0
2024-09-11 01:53:47			0	37300	0	0	0	27129	25780	158330	26915	1072993	47018	110060	0	0	8099	575355	0	0
2024-09-11 01:54:47			0	37286	0	0	0	27122	25770	158434	27149	1073011	47017	110057	0	0	8099	575948	0	0
2024-09-11 01:55:47			0	37271	0	0	0	27124	25760	158402	27102	1073029	46996	110058	0	0	8098	576582	0	0
2024-09-11 01:56:47			0	37284	0	0	0	27127	25770	158406	27043	1072957	47006	110059	0	0	8098	576028	0	0
2024-09-11 01:57:47			0	37272	0	0	0	27127	25750	158586	27303	1072957	47016	110059	0	0	8098	576575	0	0
2024-09-11 01:58:47			0	37279	0	0	0	27137	25750	158450	27142	1072957	47016	110063	0	0	8098	576294	0	0
2024-09-11 01:59:47			0	37261	0	0	0	27135	25750	158530	27216	1072984	47005	110062	0	0	8097	577016	0	0
2024-09-11 02:00:47			0	37278	0	0	0	27132	25750	158566	27163	1072930	47028	110061	0	0	8098	576334	0	0
2024-09-11 02:01:47			0	37275	0	0	0	27135	25750	158482	27246	1072894	47027	110062	0	0	8098	576455	0	0
2024-09-11 02:02:47			0	37278	0	0	0	27129	25750	158486	27284	1072894	47004	110060	0	0	8098	576334	0	0
2024-09-11 02:03:47			0	37292	0	0	0	27137	25750	158442	27123	1072921	47027	110063	0	0	8099	575773	0	0
2024-09-11 02:04:47			0	37276	0	0	0	27137	25740	158434	27371	1072912	47027	110063	0	0	8098	576447	0	0
2024-09-11 02:05:47			0	37290	0	0	0	27137	25730	158494	27072	1072867	47014	110063	0	0	8098	575919	0	0
2024-09-11 02:06:47			0	37285	0	0	0	27127	25740	158562	27218	1072930	47025	110059	0	0	8098	576087	0	0
2024-09-11 02:07:47			0	37270	0	0	0	27132	25740	158418	27178	1072876	47014	110061	0	0	8097	576688	0	0
2024-09-11 02:08:47			0	37295	0	0	0	27135	25740	158526	26859	1072885	47027	110062	0	0	8099	575686	0	0
2024-09-11 02:09:47			0	37273	0	0	0	27135	25730	158446	27109	1072921	47025	110062	0	0	8097	576601	0	0
2024-09-11 02:10:47			0	37271	0	0	0	27132	25740	158354	26864	1072930	47014	110061	0	0	8097	576648	0	0
2024-09-11 02:11:47			0	37309	0	0	0	27137	25740	158450	27185	1072930	47025	110063	0	0	8099	575125	0	0
2024-09-11 02:12:47			0	37299	0	0	0	27137	25730	158398	26994	1072912	47013	110063	0	0	8099	575559	0	0
2024-09-11 02:13:47			0	37298	0	0	0	27148	25730	158374	26958	1072921	47037	110067	0	0	8099	575599	0	0
2024-09-11 02:14:47			0	37309	0	0	0	27142	25730	158362	27100	1072921	47025	110065	0	0	8099	575158	0	0
2024-09-11 02:15:47			0	37301	0	0	0	27155	25730	158326	27415	1072921	47025	110070	0	0	8099	575478	0	0
2024-09-11 02:16:47			0	37311	0	0	0	27161	25740	158398	27466	1072966	47027	110072	0	0	8099	575045	0	0
2024-09-11 02:17:47			0	37326	0	0	0	27155	25730	158387	27575	1073001	47025	110070	0	0	8100	574478	0	0
2024-09-11 02:18:47			0	37339	0	0	0	27161	25730	158359	27206	1072947	47025	110072	0	0	8101	573958	0	0
2024-09-11 02:19:47			0	37312	0	0	0	27158	25740	158335	26897	1072966	47038	110071	0	0	8099	575005	0	0
2024-09-11 02:20:47			0	37329	0	0	0	27150	25750	158455	27102	1072975	47015	110068	0	0	8100	574292	0	0
2024-09-11 02:21:47			0	37343	0	0	0	27148	25740	158223	27232	1072992	47015	110067	0	0	8101	573765	0	0
2024-09-11 02:22:47			0	37341	0	0	0	27137	25750	158283	27189	1072948	47015	110063	0	0	8101	573813	0	0
2024-09-11 02:23:47			0	37361	0	0	0	27142	25750	158211	27319	1072894	47027	110065	0	0	8102	573014	0	0
2024-09-11 02:24:47			0	37365	0	0	0	27145	25740	158179	27234	1072939	47015	110066	0	0	8103	572886	0	0
2024-09-11 02:25:47			0	37384	0	0	0	27163	25740	158191	27230	1072876	47025	110073	0	0	8103	572128	0	0
2024-09-11 02:26:47			0	37375	0	0	0	27148	25750	158115	27142	1073001	47027	110067	0	0	8103	572455	0	0
2024-09-11 02:27:47			0	37381	0	0	0	27148	25740	158075	27414	1072912	47015	110067	0	0	8103	572248	0	0
2024-09-11 02:28:47			0	37377	0	0	0	27148	25740	158123	27038	1072992	47027	110067	0	0	8103	572407	0	0
2024-09-11 02:29:47			0	37408	0	0	0	27161	25740	158079	27388	1072912	47015	110072	0	0	8105	571171	0	0
2024-09-11 02:30:47			0	37394	0	0	0	27153	25740	158015	27298	1072992	47038	110069	0	0	8104	571729	0	0
2024-09-11 02:31:47			0	37407	0	0	0	27148	25750	158099	27133	1072984	47016	110067	0	0	8105	571178	0	0
2024-09-11 02:32:47			0	37414	0	0	0	27158	25750	158027	27126	1072975	47038	110071	0	0	8105	570899	0	0
2024-09-11 02:33:47			0	37401	0	0	0	27148	25750	157987	27244	1073001	47027	110067	0	0	8105	571418	0	0
2024-09-11 02:34:47			0	37405	0	0	0	27153	25750	158087	27112	1073037	47016	110069	0	0	8105	571258	0	0
2024-09-11 02:35:47			0	37411	0	0	0	27148	25740	157927	27216	1072939	47027	110067	0	0	8105	571052	0	0
2024-09-11 02:36:47			0	37415	0	0	0	27153	25740	157895	27085	1072939	47015	110069	0	0	8105	570892	0	0
2024-09-11 02:37:47			0	37406	0	0	0	27158	25750	157903	27229	1073001	47027	110071	0	0	8105	571218	0	0
2024-09-11 02:38:47			0	37423	0	0	0	27158	25750	157923	27293	1073001	47015	110071	0	0	8106	570541	0	0
2024-09-11 02:39:47			0	37426	0	0	0	27155	25730	157903	27156	1072921	47025	110070	0	0	8106	570487	0	0
2024-09-11 02:40:47			0	37433	0	0	0	27153	25740	157951	27291	1073010	47025	110069	0	0	8106	570175	0	0
2024-09-11 02:41:47			0	37428	0	0	0	27150	25730	157951	27177	1072921	47025	110068	0	0	8106	570407	0	0
2024-09-11 02:42:47			0	37434	0	0	0	27153	25750	157847	27074	1072948	47015	110069	0	0	8107	570103	0	0
2024-09-11 02:43:47			0	37423	0	0	0	27155	25750	157891	26746	1072984	47016	110070	0	0	8106	570541	0	0
2024-09-11 02:44:47			0	37445	0	0	0	27161	25750	157991	27171	1072957	47028	110072	0	0	8107	569665	0	0
2024-09-11 02:45:47			0	37442	0	0	0	27181	25750	157907	27079	1072984	47028	110080	0	0	8107	569785	0	0
2024-09-11 02:46:47			0	37432	0	0	0	27161	25750	157851	27199	1073064	47016	110072	0	0	8106	570183	0	0
2024-09-11 02:47:47			0	37442	0	0	0	27166	25750	157907	27039	1072957	47039	110074	0	0	8107	569785	0	0
2024-09-11 02:48:47			0	37439	0	0	0	27153	25750	157839	27203	1072975	47027	110069	0	0	8107	569904	0	0
2024-09-11 02:49:47			0	37453	0	0	0	27176	25760	157899	27150	1073020	47039	110078	0	0	8107	569315	0	0
2024-09-11 02:50:47			0	37456	0	0	0	27176	25760	157823	27052	1073020	47028	110078	0	0	8108	569195	0	0
2024-09-11 02:51:47			0	37449	0	0	0	27166	25750	157775	27083	1073028	47027	110074	0	0	8107	569506	0	0
2024-09-11 02:52:47			0	37486	0	0	0	27163	25760	157767	27022	1073046	47039	110073	0	0	8109	568004	0	0
2024-09-11 02:53:47			0	37498	0	0	0	27158	25760	157647	26811	1073020	47016	110071	0	0	8110	567527	0	0
2024-09-11 02:54:47			0	37512	0	0	0	27158	25750	157639	27166	1073028	47027	110071	0	0	8111	567004	0	0
2024-09-11 02:55:47			0	37510	0	0	0	27150	25750	157571	27066	1072984	47028	110068	0	0	8111	567083	0	0
2024-09-11 02:56:47			0	37507	0	0	0	27150	25760	157619	27296	1072993	47028	110068	0	0	8111	567170	0	0
2024-09-11 02:57:47			0	37493	0	0	0	27137	25750	157599	27374	1073001	47015	110063	0	0	8110	567758	0	0
2024-09-11 02:58:47			0	37522	0	0	0	27145	25750	157595	27062	1073028	47004	110066	0	0	8112	566608	0	0
2024-09-11 02:59:47			0	37507	0	0	0	27140	25750	157543	27163	1073010	47016	110064	0	0	8111	567202	0	0
2024-09-11 03:00:47			0	37543	0	0	0	27132	25750	157611	27220	1072948	47015	110061	0	0	8113	565775	0	0
2024-09-11 03:01:47			0	37517	0	0	0	27129	25750	157551	27105	1072957	47016	110060	0	0	8112	566806	0	0
2024-09-11 03:02:47			0	37519	0	0	0	27137	25740	157539	27119	1072956	47014	110063	0	0	8112	566759	0	0
2024-09-11 03:03:47			0	37495	0	0	0	27140	25750	157635	27308	1072975	47027	110064	0	0	8110	567679	0	0
2024-09-11 03:04:47			0	37525	0	0	0	27142	25740	157571	27251	1072939	47027	110065	0	0	8112	566521	0	0
2024-09-11 03:05:47			0	37530	0	0	0	27140	25740	157655	27057	1072903	47025	110064	0	0	8112	566323	0	0
2024-09-11 03:06:47			0	37504	0	0	0	27135	25740	157547	27138	1072930	47014	110062	0	0	8111	567354	0	0
2024-09-11 03:07:47			0	37512	0	0	0	27129	25740	157559	27326	1072939	47015	110060	0	0	8111	567036	0	0
2024-09-11 03:08:47			0	37498	0	0	0	27132	25730	157587	27050	1072840	47025	110061	0	0	8111	567624	0	0
2024-09-11 03:09:47			0	37491	0	0	0	27127	25740	157755	27324	1072903	47014	110059	0	0	8110	567870	0	0
2024-09-11 03:10:47			0	37498	0	0	0	27135	25730	157643	27352	1072858	47024	110062	0	0	8111	567624	0	0
2024-09-11 03:11:47			0	37490	0	0	0	27127	25730	157643	27086	1072894	47014	110059	0	0	8110	567942	0	0
2024-09-11 03:12:47			0	37478	0	0	0	27135	25730	157663	27000	1072867	47003	110062	0	0	8109	568418	0	0
2024-09-11 03:13:47			0	37484	0	0	0	27132	25730	157727	27235	1072858	47024	110061	0	0	8110	568180	0	0
2024-09-11 03:14:47			0	37495	0	0	0	27132	25730	157699	27287	1072867	47003	110061	0	0	8110	567743	0	0
2024-09-11 03:15:47			0	37475	0	0	0	27132	25720	157759	26790	1072849	47023	110061	0	0	8109	568570	0	0
2024-09-11 03:16:47			0	37474	0	0	0	27124	25730	157687	27026	1072885	47002	110058	0	0	8109	568577	0	0
2024-09-11 03:17:47			0	37482	0	0	0	27122	25730	157807	27072	1072858	47024	110057	0	0	8110	568259	0	0
2024-09-11 03:18:47			0	37479	0	0	0	27142	25730	157731	27178	1072831	47024	110065	0	0	8109	568379	0	0
2024-09-11 03:19:47			0	37456	0	0	0	27163	25730	157731	26993	1072921	47025	110073	0	0	8108	569293	0	0
2024-09-11 03:20:47			0	37464	0	0	0	27179	25730	157783	27175	1072974	47037	110079	0	0	8108	568975	0	0
2024-09-11 03:21:47			0	37451	0	0	0	27192	25730	157859	27367	1072992	47046	110084	0	0	8107	569492	0	0
2024-09-11 03:22:47			0	37453	0	0	0	27192	25730	157815	26736	1073082	47037	110084	0	0	8107	569412	0	0
2024-09-11 03:23:47			0	37445	0	0	0	27194	25740	157847	27001	1073019	47038	110085	0	0	8106	569698	0	0
2024-09-11 03:24:47			0	37461	0	0	0	27192	25740	157719	26975	1073046	47038	110084	0	0	8107	569062	0	0
2024-09-11 03:25:47			0	37445	0	0	0	27194	25740	157899	26961	1073073	47015	110085	0	0	8106	569698	0	0
2024-09-11 03:26:47			0	37455	0	0	0	27194	25750	157711	27067	1073064	47039	110085	0	0	8107	569268	0	0
2024-09-11 03:27:47			0	37455	0	0	0	27202	25760	157691	27216	1073020	47028	110088	0	0	8107	569235	0	0
2024-09-11 03:28:47			0	37463	0	0	0	27181	25750	157751	26927	1073064	47028	110080	0	0	8108	568950	0	0
2024-09-11 03:29:47			0	37468	0	0	0	27192	25770	157811	26734	1073118	47040	110084	0	0	8108	568686	0	0
2024-09-11 03:30:47			0	37466	0	0	0	27192	25760	157739	27145	1073100	47028	110084	0	0	8108	568798	0	0
2024-09-11 03:31:47			0	37475	0	0	0	27194	25770	157783	27242	1073118	47029	110085	0	0	8108	568408	0	0
2024-09-11 03:32:47			0	37477	0	0	0	27189	25760	157731	26833	1073082	47029	110083	0	0	8109	568361	0	0
2024-09-11 03:33:47			0	37468	0	0	0	27189	25770	157691	26828	1073091	47040	110083	0	0	8108	568686	0	0
2024-09-11 03:34:47			0	37467	0	0	0	27186	25760	157751	27260	1073100	47028	110082	0	0	8108	568758	0	0
2024-09-11 03:35:47			0	37461	0	0	0	27186	25770	157763	27036	1073118	47029	110082	0	0	8108	568964	0	0
2024-09-11 03:36:47			0	37458	0	0	0	27189	25770	157595	27118	1073145	47029	110083	0	0	8107	569084	0	0
2024-09-11 03:37:47			0	37469	0	0	0	27186	25760	157703	27098	1073136	47029	110082	0	0	8108	568679	0	0
2024-09-11 03:38:47			0	37463	0	0	0	27171	25770	157695	27097	1073118	47029	110076	0	0	8108	568885	0	0
2024-09-11 03:39:47			0	37496	0	0	0	27171	25780	157679	27126	1073073	47030	110076	0	0	8110	567542	0	0
2024-09-11 03:40:47			0	37485	0	0	0	27168	25770	157579	27150	1073091	47017	110075	0	0	8109	568011	0	0
2024-09-11 03:41:47			0	37507	0	0	0	27158	25790	157607	27175	1073145	47019	110071	0	0	8111	567073	0	0
2024-09-11 03:42:47			0	37501	0	0	0	27153	25780	157555	27246	1073154	47041	110069	0	0	8111	567344	0	0
2024-09-11 03:43:47			0	37506	0	0	0	27155	25780	157571	27088	1073073	47018	110070	0	0	8111	567145	0	0
2024-09-11 03:44:47			0	37520	0	0	0	27150	25770	157467	27026	1073064	47029	110068	0	0	8112	566622	0	0
2024-09-11 03:45:47			0	37519	0	0	0	27155	25750	157499	26857	1073064	47028	110070	0	0	8111	566726	0	0
2024-09-11 03:46:47			0	37519	0	0	0	27161	25760	157399	26970	1073002	47017	110072	0	0	8111	566694	0	0
2024-09-11 03:47:47			0	37520	0	0	0	27161	25770	157387	27003	1073091	47017	110072	0	0	8112	566622	0	0
2024-09-11 03:48:47			0	37544	0	0	0	27161	25760	157383	27034	1073082	47017	110072	0	0	8113	565704	0	0
2024-09-11 03:49:47			0	37542	0	0	0	27166	25770	157391	27144	1073064	47029	110074	0	0	8113	565751	0	0
2024-09-11 03:50:47			0	37537	0	0	0	27168	25770	157383	27088	1073038	47029	110075	0	0	8112	565949	0	0
2024-09-11 03:51:47			0	37534	0	0	0	27168	25750	157335	27105	1073010	47028	110075	0	0	8112	566132	0	0
2024-09-11 03:52:47			0	37538	0	0	0	27166	25760	157303	27196	1072966	47016	110074	0	0	8112	565941	0	0
2024-09-11 03:53:47			0	37513	0	0	0	27168	25760	157507	27260	1073020	47039	110075	0	0	8111	566932	0	0
2024-09-11 03:54:47			0	37539	0	0	0	27155	25760	157375	26876	1073055	47029	110070	0	0	8113	565902	0	0
2024-09-11 03:55:47			0	37526	0	0	0	27155	25760	157443	27216	1073046	47016	110070	0	0	8112	566417	0	0
2024-09-11 03:56:47			0	37525	0	0	0	27161	25750	157347	27189	1073037	47028	110072	0	0	8112	566489	0	0
2024-09-11 03:57:47			0	37537	0	0	0	27161	25750	157403	27192	1072948	47027	110072	0	0	8112	566013	0	0
2024-09-11 03:58:47			0	37541	0	0	0	27158	25750	157403	27391	1073010	47028	110071	0	0	8113	565855	0	0
2024-09-11 03:59:47			0	37545	0	0	0	27158	25750	157411	26923	1073037	47028	110071	0	0	8113	565696	0	0
2024-09-11 04:00:47			0	37547	0	0	0	27150	25750	157339	27034	1073010	47016	110068	0	0	8113	565617	0	0
2024-09-11 04:01:47			0	37532	0	0	0	27155	25750	157455	27102	1073037	47016	110070	0	0	8112	566211	0	0
2024-09-11 04:02:47			0	37560	0	0	0	27150	25750	157435	26934	1073028	47015	110068	0	0	8114	565102	0	0
2024-09-11 04:03:47			0	37548	0	0	0	27150	25750	157399	27076	1073001	47027	110068	0	0	8113	565577	0	0
2024-09-11 04:04:47			0	37538	0	0	0	27158	25750	157291	27310	1073010	47028	110071	0	0	8113	565974	0	0
2024-09-11 04:05:47			0	37575	0	0	0	27150	25750	157315	26883	1073010	47039	110068	0	0	8115	564509	0	0
2024-09-11 04:06:47			0	37568	0	0	0	27132	25740	157303	26961	1072992	47027	110061	0	0	8115	564818	0	0
2024-09-11 04:07:47			0	37589	0	0	0	27119	25740	157283	27046	1072939	47015	110056	0	0	8116	563988	0	0
2024-09-11 04:08:47			0	37601	0	0	0	27119	25730	157259	27308	1072921	47014	110056	0	0	8117	563545	0	0
2024-09-11 04:09:47			0	37605	0	0	0	27135	25730	157251	27194	1072947	47014	110062	0	0	8117	563387	0	0
2024-09-11 04:10:47			0	37614	0	0	0	27132	25740	157179	27182	1072876	47003	110061	0	0	8117	563000	0	0
2024-09-11 04:11:47			0	37615	0	0	0	27135	25740	157151	27150	1072956	47014	110062	0	0	8117	562961	0	0
2024-09-11 04:12:47			0	37625	0	0	0	27142	25730	157191	27001	1072885	47013	110065	0	0	8118	562598	0	0
2024-09-11 04:13:47			0	37633	0	0	0	27135	25730	157127	27142	1072921	47014	110062	0	0	8118	562282	0	0
2024-09-11 04:14:47			0	37622	0	0	0	27148	25720	157163	26934	1072956	47012	110067	0	0	8117	562748	0	0
2024-09-11 04:15:47			0	37606	0	0	0	27132	25720	157171	27078	1072929	47001	110061	0	0	8117	563380	0	0
2024-09-11 04:16:47			0	37594	0	0	0	27114	25730	157079	27177	1072894	47014	110054	0	0	8116	563822	0	0
2024-09-11 04:17:47			0	37568	0	0	0	27103	25720	157255	26998	1072849	47012	110050	0	0	8115	564882	0	0
2024-09-11 04:18:47			0	37575	0	0	0	27109	25720	157199	26705	1072813	47023	110052	0	0	8115	564605	0	0
2024-09-11 04:19:47			0	37612	0	0	0	27122	25720	157151	27066	1072903	47012	110057	0	0	8117	563143	0	0
2024-09-11 04:20:47			0	37619	0	0	0	27127	25720	157227	26816	1072759	47023	110059	0	0	8118	562867	0	0
2024-09-11 04:21:47			0	37633	0	0	0	27124	25720	157199	27180	1072813	47012	110058	0	0	8119	562314	0	0
2024-09-11 04:22:47			0	37609	0	0	0	27132	25720	157203	27206	1072867	47023	110061	0	0	8117	563261	0	0
2024-09-11 04:23:47			0	37641	0	0	0	27122	25720	157139	27156	1072867	47012	110057	0	0	8119	561999	0	0
2024-09-11 04:24:47			0	37624	0	0	0	27132	25720	157163	26854	1072867	47012	110061	0	0	8118	562669	0	0
2024-09-11 04:25:47			0	37636	0	0	0	27129	25710	157055	27066	1072831	47012	110060	0	0	8119	562228	0	0
2024-09-11 04:26:47			0	37651	0	0	0	27127	25710	157087	26778	1072884	47023	110059	0	0	8119	561636	0	0
2024-09-11 04:27:47			0	37645	0	0	0	27122	25710	157047	27326	1072831	47023	110057	0	0	8119	561873	0	0
2024-09-11 04:28:47			0	37649	0	0	0	27122	25710	157023	27248	1072875	47022	110057	0	0	8119	561715	0	0
2024-09-11 04:29:47			0	37656	0	0	0	27119	25720	157083	27175	1072867	47012	110056	0	0	8120	561407	0	0
2024-09-11 04:30:47			0	37655	0	0	0	27109	25720	156935	27024	1072867	47023	110052	0	0	8120	561447	0	0
2024-09-11 04:31:47			0	37689	0	0	0	27098	25710	156915	27038	1072822	47022	110048	0	0	8122	560140	0	0
2024-09-11 04:32:47			0	37668	0	0	0	27093	25710	156895	27391	1072804	47035	110046	0	0	8121	560966	0	0
2024-09-11 04:33:47			0	37694	0	0	0	27088	25710	156815	27235	1072741	47000	110044	0	0	8123	559943	0	0
2024-09-11 04:34:47			0	37701	0	0	0	27085	25710	156799	27104	1072795	47022	110043	0	0	8123	559668	0	0
2024-09-11 04:35:47			0	37699	0	0	0	27075	25710	156823	27116	1072768	47000	110039	0	0	8123	559746	0	0
2024-09-11 04:36:47			0	37731	0	0	0	27085	25700	156679	26918	1072732	47010	110043	0	0	8125	558520	0	0
2024-09-11 04:37:47			0	37733	0	0	0	27085	25700	156679	27041	1072750	47021	110043	0	0	8125	558442	0	0
2024-09-11 04:38:47			0	37719	0	0	0	27077	25700	156711	26951	1072759	47021	110040	0	0	8124	558992	0	0
2024-09-11 04:39:47			0	37721	0	0	0	27083	25700	156631	26928	1072732	47010	110042	0	0	8124	558913	0	0
2024-09-11 04:40:47			0	37736	0	0	0	27072	25690	156623	27067	1072705	47009	110038	0	0	8125	558356	0	0
2024-09-11 04:41:47			0	37740	0	0	0	27088	25680	156579	27237	1072553	47008	110044	0	0	8125	558230	0	0
2024-09-11 04:42:47			0	37744	0	0	0	27075	25690	156543	27232	1072598	46999	110039	0	0	8126	558042	0	0
2024-09-11 04:43:47			0	37746	0	0	0	27070	25690	156535	27183	1072634	47021	110037	0	0	8126	557963	0	0
2024-09-11 04:44:47			0	37732	0	0	0	27067	25680	156623	26885	1072642	47008	110036	0	0	8125	558545	0	0
2024-09-11 04:45:47			0	37745	0	0	0	27062	25690	156607	26868	1072651	46999	110034	0	0	8126	558002	0	0
2024-09-11 04:46:47			0	37741	0	0	0	27072	25690	156519	27043	1072651	47020	110038	0	0	8126	558159	0	0
2024-09-11 04:47:47			0	37773	0	0	0	27077	25670	156639	27185	1072570	47018	110040	0	0	8127	556967	0	0
2024-09-11 04:48:47			0	37763	0	0	0	27080	25680	156511	27130	1072553	47019	110041	0	0	8127	557328	0	0
2024-09-11 04:49:47			0	37747	0	0	0	27080	25670	156551	27355	1072570	47030	110041	0	0	8126	557987	0	0
2024-09-11 04:50:47			0	37747	0	0	0	27075	25680	156595	27071	1072660	47019	110039	0	0	8126	557955	0	0
2024-09-11 04:51:47			0	37756	0	0	0	27077	25660	156479	27017	1072606	47017	110040	0	0	8126	557666	0	0
2024-09-11 04:52:47			0	37750	0	0	0	27062	25670	156567	27232	1072624	47030	110034	0	0	8126	557870	0	0
2024-09-11 04:53:47			0	37766	0	0	0	27064	25670	156507	27280	1072561	46997	110035	0	0	8127	557242	0	0
2024-09-11 04:54:47			0	37747	0	0	0	27062	25660	156651	27098	1072525	47017	110034	0	0	8126	558019	0	0
2024-09-11 04:55:47			0	37756	0	0	0	27054	25660	156503	27242	1072606	47006	110031	0	0	8127	557666	0	0
2024-09-11 04:56:47			0	37749	0	0	0	27057	25670	156431	27012	1072641	47007	110032	0	0	8126	557909	0	0
2024-09-11 04:57:47			0	37764	0	0	0	27059	25670	156415	27531	1072588	47007	110033	0	0	8127	557320	0	0
2024-09-11 04:58:47			0	37750	0	0	0	27057	25670	156479	27137	1072615	47007	110032	0	0	8126	557870	0	0
2024-09-11 04:59:47			0	37761	0	0	0	27059	25660	156471	27300	1072525	47017	110033	0	0	8127	557469	0	0
2024-09-11 05:00:47			0	37762	0	0	0	27064	25660	156487	26942	1072516	47016	110035	0	0	8127	557430	0	0
2024-09-11 05:01:47			0	37758	0	0	0	27062	25660	156447	26967	1072516	47005	110034	0	0	8127	557587	0	0
2024-09-11 05:02:47			0	37751	0	0	0	27057	25650	156611	26913	1072534	47016	110032	0	0	8126	557894	0	0
2024-09-11 05:03:47			0	37753	0	0	0	27051	25660	156435	26953	1072606	47029	110030	0	0	8126	557784	0	0
2024-09-11 05:04:47			0	37772	0	0	0	27059	25660	156431	26897	1072596	46995	110033	0	0	8127	557038	0	0
2024-09-11 05:05:47			0	37744	0	0	0	27064	25660	156479	27365	1072516	47016	110035	0	0	8126	558137	0	0
2024-09-11 05:06:47			0	37765	0	0	0	27057	25660	156439	27104	1072489	47016	110032	0	0	8127	557313	0	0
2024-09-11 05:07:47			0	37749	0	0	0	27057	25660	156495	26970	1072596	46995	110032	0	0	8126	557940	0	0
2024-09-11 05:08:47			0	37757	0	0	0	27054	25650	156451	26778	1072480	47028	110031	0	0	8127	557658	0	0
2024-09-11 05:09:47			0	37763	0	0	0	27054	25660	156507	26823	1072543	47016	110031	0	0	8127	557391	0	0
2024-09-11 05:10:47			0	37756	0	0	0	27054	25650	156467	27197	1072471	47016	110031	0	0	8127	557697	0	0
2024-09-11 05:11:47			0	37760	0	0	0	27044	25650	156599	27156	1072426	47016	110027	0	0	8127	557541	0	0
2024-09-11 05:12:47			0	37763	0	0	0	27046	25660	156491	27000	1072489	47005	110028	0	0	8127	557391	0	0
2024-09-11 05:13:47			0	37765	0	0	0	27033	25650	156455	27144	1072507	47005	110023	0	0	8127	557344	0	0
2024-09-11 05:14:47			0	37759	0	0	0	27020	25660	156475	27010	1072435	47005	110018	0	0	8127	557548	0	0
2024-09-11 05:15:47			0	37764	0	0	0	27012	25640	156483	26897	1072399	46993	110015	0	0	8128	557415	0	0
2024-09-11 05:16:47			0	37757	0	0	0	27020	25640	156387	27249	1072426	47014	110018	0	0	8127	557690	0	0
2024-09-11 05:17:47			0	37783	0	0	0	27025	25630	156399	27126	1072390	47014	110020	0	0	8129	556702	0	0
2024-09-11 05:18:47			0	37760	0	0	0	27023	25640	156587	27166	1072399	47003	110019	0	0	8127	557572	0	0
2024-09-11 05:19:47			0	37780	0	0	0	27015	25620	156495	27206	1072399	47002	110016	0	0	8128	556851	0	0
2024-09-11 05:20:47			0	37763	0	0	0	27028	25620	156483	26831	1072372	47002	110021	0	0	8127	557518	0	0
2024-09-11 05:21:47			0	37770	0	0	0	27023	25630	156551	27176	1072363	47003	110019	0	0	8128	557212	0	0
2024-09-11 05:22:47			0	37761	0	0	0	27010	25630	156563	27123	1072381	47003	110014	0	0	8127	557565	0	0
2024-09-11 05:23:47			0	37762	0	0	0	27005	25620	156511	27043	1072345	47002	110012	0	0	8128	557557	0	0
2024-09-11 05:24:47			0	37782	0	0	0	27002	25620	156487	27213	1072345	47002	110011	0	0	8129	556773	0	0
2024-09-11 05:25:47			0	37770	0	0	0	27005	25620	156527	27109	1072363	47001	110012	0	0	8128	557243	0	0
2024-09-11 05:26:47			0	37771	0	0	0	26992	25620	156515	27083	1072283	47001	110007	0	0	8128	557204	0	0
2024-09-11 05:27:47			0	37763	0	0	0	26992	25620	156367	26925	1072310	46991	110007	0	0	8128	557518	0	0
2024-09-11 05:28:47			0	37762	0	0	0	26986	25620	156475	27069	1072310	47012	110005	0	0	8128	557557	0	0
2024-09-11 05:29:47			0	37766	0	0	0	26979	25610	156483	26889	1072274	47001	110002	0	0	8128	557432	0	0
2024-09-11 05:30:47			0	37763	0	0	0	26984	25610	156459	27249	1072220	47001	110004	0	0	8128	557550	0	0
2024-09-11 05:31:47			0	37773	0	0	0	26989	25600	156343	26939	1072229	47011	110006	0	0	8128	557189	0	0
2024-09-11 05:32:47			0	37787	0	0	0	26979	25600	156475	27133	1072220	47010	110002	0	0	8129	556640	0	0
2024-09-11 05:33:47			0	37754	0	0	0	26979	25600	156419	26960	1072247	46989	110002	0	0	8127	557935	0	0
2024-09-11 05:34:47			0	37779	0	0	0	26981	25610	156459	27078	1072157	47001	110003	0	0	8129	556922	0	0
2024-09-11 05:35:47			0	37762	0	0	0	26981	25600	156455	27204	1072193	47022	110003	0	0	8128	557621	0	0
2024-09-11 05:36:47			0	37751	0	0	0	26976	25600	156523	26828	1072166	47000	110001	0	0	8127	558052	0	0
2024-09-11 05:37:47			0	37765	0	0	0	26953	25590	156471	27105	1072211	46999	109992	0	0	8129	557535	0	0
2024-09-11 05:38:47			0	37759	0	0	0	26961	25590	156463	27121	1072103	47009	109995	0	0	8128	557770	0	0
2024-09-11 05:39:47			0	37763	0	0	0	26958	25580	156491	27057	1072103	46987	109994	0	0	8128	557645	0	0
2024-09-11 05:40:47			0	37778	0	0	0	26961	25580	156415	26941	1072076	46998	109995	0	0	8129	557056	0	0
2024-09-11 05:41:47			0	37764	0	0	0	26958	25580	156503	27208	1072130	46998	109994	0	0	8128	557606	0	0
2024-09-11 05:42:47			0	37763	0	0	0	26966	25590	156563	26823	1072121	46999	109997	0	0	8128	557613	0	0
2024-09-11 05:43:47			0	37778	0	0	0	26955	25570	156455	27055	1072067	46997	109993	0	0	8129	557088	0	0
2024-09-11 05:44:47			0	37774	0	0	0	26955	25570	156503	26967	1072014	46997	109993	0	0	8129	557245	0	0
2024-09-11 05:45:47			0	37768	0	0	0	26950	25570	156447	27208	1072094	46997	109991	0	0	8129	557480	0	0
2024-09-11 05:46:47			0	37774	0	0	0	26945	25560	156463	27137	1072013	46996	109989	0	0	8129	557277	0	0
2024-09-11 05:47:47			0	37763	0	0	0	26945	25560	156507	27079	1072022	47007	109989	0	0	8128	557708	0	0
2024-09-11 05:48:47			0	37765	0	0	0	26945	25560	156411	27220	1072040	46984	109989	0	0	8129	557630	0	0
2024-09-11 05:49:47			0	37774	0	0	0	26940	25550	156415	26644	1071977	46995	109987	0	0	8129	557308	0	0
2024-09-11 05:50:47			0	37762	0	0	0	26942	25560	156547	26833	1071996	47007	109988	0	0	8128	557748	0	0
2024-09-11 05:51:47			0	37758	0	0	0	26935	25560	156539	26844	1071906	47006	109985	0	0	8128	557905	0	0
2024-09-11 05:52:47			0	37746	0	0	0	26932	25550	156539	26918	1071914	47005	109984	0	0	8128	558408	0	0
2024-09-11 05:53:47			0	37750	0	0	0	26927	25550	156583	27048	1071941	46995	109982	0	0	8128	558251	0	0
2024-09-11 05:54:47			0	37760	0	0	0	26927	25530	156559	27104	1071914	46993	109982	0	0	8128	557921	0	0
2024-09-11 05:55:47			0	37761	0	0	0	26924	25550	156551	26968	1071941	46984	109981	0	0	8129	557818	0	0
2024-09-11 05:56:47			0	37761	0	0	0	26924	25540	156539	27090	1071905	46995	109981	0	0	8129	557850	0	0
2024-09-11 05:57:47			0	37775	0	0	0	26932	25530	156527	27067	1071941	46993	109984	0	0	8129	557332	0	0
2024-09-11 05:58:47			0	37762	0	0	0	26924	25530	156599	26870	1071860	47003	109981	0	0	8129	557843	0	0
2024-09-11 05:59:47			0	37745	0	0	0	26932	25530	156659	27013	1071834	46981	109984	0	0	8127	558511	0	0
2024-09-11 06:00:47			0	37757	0	0	0	26937	25530	156683	26706	1071914	46993	109986	0	0	8128	558039	0	0
2024-09-11 06:01:47			0	37747	0	0	0	26937	25530	156635	27118	1071887	47003	109986	0	0	8127	558432	0	0
2024-09-11 06:02:47			0	37755	0	0	0	26929	25530	156631	27140	1071825	46992	109983	0	0	8128	558118	0	0
2024-09-11 06:03:47			0	37737	0	0	0	26935	25530	156711	27123	1071941	46993	109985	0	0	8127	558825	0	0
2024-09-11 06:04:47			0	37743	0	0	0	26932	25540	156607	27062	1071923	46994	109984	0	0	8127	558557	0	0
2024-09-11 06:05:47			0	37735	0	0	0	26916	25530	156663	27196	1071905	47014	109978	0	0	8127	558903	0	0
2024-09-11 06:06:47			0	37725	0	0	0	26922	25530	156619	27183	1071851	47014	109980	0	0	8126	559297	0	0
2024-09-11 06:07:47			0	37745	0	0	0	26919	25540	156675	26946	1071923	47004	109979	0	0	8128	558479	0	0
2024-09-11 06:08:47			0	37727	0	0	0	26911	25530	156647	27131	1071905	47002	109976	0	0	8127	559218	0	0
2024-09-11 06:09:47			0	37743	0	0	0	26903	25520	156743	27333	1071816	46992	109973	0	0	8128	558621	0	0
2024-09-11 06:10:47			0	37723	0	0	0	26890	25520	156715	27171	1071833	47002	109968	0	0	8127	559407	0	0
2024-09-11 06:11:47			0	37742	0	0	0	26888	25520	156747	27348	1071816	46980	109967	0	0	8128	558660	0	0
2024-09-11 06:12:47			0	37743	0	0	0	26890	25520	156767	27561	1071753	46992	109968	0	0	8128	558621	0	0
2024-09-11 06:13:47			0	37720	0	0	0	26890	25510	156683	27066	1071771	47001	109968	0	0	8127	559557	0	0
2024-09-11 06:14:47			0	37715	0	0	0	26890	25510	156759	27109	1071735	46990	109968	0	0	8126	559754	0	0
2024-09-11 06:15:47			0	37718	0	0	0	26890	25510	156775	27138	1071708	47000	109968	0	0	8126	559636	0	0
2024-09-11 06:16:47			0	37705	0	0	0	26890	25500	156799	27130	1071699	46990	109968	0	0	8126	560179	0	0
2024-09-11 06:17:47			0	37689	0	0	0	26880	25500	156859	27013	1071726	46990	109964	0	0	8125	560809	0	0
2024-09-11 06:18:47			0	37698	0	0	0	26883	25490	156831	26996	1071681	46989	109965	0	0	8125	560487	0	0
2024-09-11 06:19:47			0	37693	0	0	0	26883	25500	156895	26909	1071717	46990	109965	0	0	8125	560652	0	0
2024-09-11 06:20:47			0	37687	0	0	0	26875	25480	156963	26769	1071663	46999	109962	0	0	8125	560952	0	0
2024-09-11 06:21:47			0	37694	0	0	0	26888	25490	156943	26840	1071708	47000	109967	0	0	8125	560644	0	0
2024-09-11 06:22:47			0	37683	0	0	0	26877	25490	156967	26977	1071681	47000	109963	0	0	8125	561078	0	0
2024-09-11 06:23:47			0	37683	0	0	0	26875	25470	156971	27024	1071681	46988	109962	0	0	8124	561142	0	0
2024-09-11 06:24:47			0	37672	0	0	0	26875	25480	157035	27298	1071618	46988	109962	0	0	8124	561543	0	0
2024-09-11 06:25:47			0	37676	0	0	0	26877	25480	157071	27182	1071699	46988	109963	0	0	8124	561386	0	0
2024-09-11 06:26:47			0	37670	0	0	0	26872	25480	157027	26800	1071672	46999	109961	0	0	8124	561622	0	0
2024-09-11 06:27:47			0	37664	0	0	0	26880	25490	157011	26941	1071627	46989	109964	0	0	8123	561827	0	0
2024-09-11 06:28:47			0	37673	0	0	0	26875	25480	157107	27138	1071618	46999	109962	0	0	8124	561504	0	0
2024-09-11 06:29:47			0	37660	0	0	0	26880	25470	157071	27178	1071618	46975	109964	0	0	8123	562049	0	0
2024-09-11 06:30:47			0	37646	0	0	0	26872	25470	157043	27168	1071600	46988	109961	0	0	8122	562601	0	0
2024-09-11 06:31:47			0	37673	0	0	0	26870	25470	157123	27114	1071654	46999	109960	0	0	8124	561536	0	0
2024-09-11 06:32:47			0	37660	0	0	0	26857	25480	157107	26991	1071609	46999	109955	0	0	8124	562017	0	0
2024-09-11 06:33:47			0	37649	0	0	0	26857	25470	157055	26953	1071591	46998	109955	0	0	8123	562483	0	0
2024-09-11 06:34:47			0	37637	0	0	0	26859	25460	157067	27078	1071636	46997	109956	0	0	8122	562989	0	0
2024-09-11 06:35:47			0	37642	0	0	0	26862	25470	157131	27067	1071573	46999	109957	0	0	8122	562759	0	0
2024-09-11 06:36:47			0	37622	0	0	0	26862	25460	157175	26941	1071546	46985	109957	0	0	8121	563581	0	0
2024-09-11 06:37:47			0	37630	0	0	0	26851	25470	157231	26890	1071591	46987	109953	0	0	8122	563233	0	0
2024-09-11 06:38:47			0	37643	0	0	0	26831	25470	157255	26850	1071591	46975	109945	0	0	8123	562720	0	0
2024-09-11 06:39:47			0	37620	0	0	0	26820	25450	157215	27046	1071537	46985	109941	0	0	8122	563692	0	0
2024-09-11 06:40:47			0	37636	0	0	0	26823	25450	157247	27083	1071484	46996	109942	0	0	8123	563060	0	0
2024-09-11 06:41:47			0	37620	0	0	0	26818	25450	157223	27071	1071457	46985	109940	0	0	8122	563692	0	0
2024-09-11 06:42:47			0	37618	0	0	0	26831	25460	157115	26764	1071412	46985	109945	0	0	8121	563739	0	0
2024-09-11 06:43:47			0	37605	0	0	0	26828	25440	157167	27229	1071385	46984	109944	0	0	8121	564318	0	0
2024-09-11 06:44:47			0	37612	0	0	0	26836	25450	157367	27114	1071457	46973	109947	0	0	8121	564009	0	0
2024-09-11 06:45:47			0	37631	0	0	0	26828	25440	157251	27055	1071412	46995	109944	0	0	8122	563290	0	0
2024-09-11 06:46:47			0	37593	0	0	0	26831	25440	157411	27010	1071430	46983	109945	0	0	8120	564793	0	0
2024-09-11 06:47:47			0	37582	0	0	0	26823	25430	157303	27067	1071447	46994	109942	0	0	8119	565260	0	0
2024-09-11 06:48:47			0	37595	0	0	0	26818	25440	157271	27114	1071385	46984	109940	0	0	8120	564713	0	0
2024-09-11 06:49:47			0	37606	0	0	0	26823	25440	157415	26942	1071456	46983	109942	0	0	8121	564278	0	0
2024-09-11 06:50:47			0	37596	0	0	0	26812	25420	157299	27086	1071375	46982	109938	0	0	8120	564738	0	0
2024-09-11 06:51:47			0	37598	0	0	0	26823	25430	157439	26993	1071331	46983	109942	0	0	8120	564627	0	0
2024-09-11 06:52:47			0	37575	0	0	0	26805	25420	157435	26996	1071349	46982	109935	0	0	8119	565570	0	0
2024-09-11 06:53:47			0	37593	0	0	0	26815	25420	157411	26909	1071393	46981	109939	0	0	8120	564857	0	0
2024-09-11 06:54:47			0	37582	0	0	0	26810	25430	157387	27209	1071358	46994	109937	0	0	8120	565260	0	0
2024-09-11 06:55:47			0	37582	0	0	0	26815	25420	157483	26955	1071366	46992	109939	0	0	8119	565292	0	0
2024-09-11 06:56:47			0	37577	0	0	0	26818	25420	157559	27289	1071349	46993	109940	0	0	8119	565491	0	0
2024-09-11 06:57:47			0	37561	0	0	0	26815	25410	157475	27043	1071357	46992	109939	0	0	8118	566157	0	0
2024-09-11 06:58:47			0	37561	0	0	0	26823	25420	157527	27182	1071366	46981	109942	0	0	8118	566125	0	0
2024-09-11 06:59:47			0	37552	0	0	0	26823	25410	157491	26925	1071331	46981	109942	0	0	8117	566514	0	0
2024-09-11 07:00:47			0	37561	0	0	0	26820	25410	157595	26987	1071411	46992	109941	0	0	8118	566157	0	0
2024-09-11 07:01:47			0	37538	0	0	0	26820	25420	157563	27261	1071366	46992	109941	0	0	8117	567037	0	0
2024-09-11 07:02:47			0	37540	0	0	0	26823	25420	157559	26932	1071340	47002	109942	0	0	8117	566958	0	0
2024-09-11 07:03:47			0	37534	0	0	0	26815	25420	157655	26984	1071366	46992	109939	0	0	8117	567196	0	0
2024-09-11 07:04:47			0	37538	0	0	0	26818	25420	157643	27341	1071375	46993	109940	0	0	8117	567037	0	0
2024-09-11 07:05:47			0	37523	0	0	0	26815	25410	157675	26804	1071357	46981	109939	0	0	8116	567665	0	0
2024-09-11 07:06:47			0	37542	0	0	0	26820	25410	157691	27098	1071304	46992	109941	0	0	8117	566910	0	0
2024-09-11 07:07:47			0	37531	0	0	0	26820	25410	157759	27161	1071357	46992	109941	0	0	8116	567347	0	0
2024-09-11 07:08:47			0	37536	0	0	0	26807	25410	157679	26970	1071331	46981	109936	0	0	8117	567149	0	0
2024-09-11 07:09:47			0	37531	0	0	0	26810	25410	157763	26899	1071304	46992	109937	0	0	8116	567347	0	0
2024-09-11 07:10:47			0	37530	0	0	0	26799	25420	157755	27137	1071340	47002	109933	0	0	8117	567355	0	0
2024-09-11 07:11:47			0	37509	0	0	0	26807	25400	157667	27164	1071312	46991	109936	0	0	8115	568253	0	0
2024-09-11 07:12:47			0	37523	0	0	0	26799	25410	157839	26899	1071321	46992	109933	0	0	8116	567665	0	0
2024-09-11 07:13:47			0	37502	0	0	0	26799	25400	157831	27166	1071277	46979	109933	0	0	8115	568532	0	0
2024-09-11 07:14:47			0	37520	0	0	0	26807	25400	157723	27033	1071259	46991	109936	0	0	8116	567816	0	0
2024-09-11 07:15:47			0	37519	0	0	0	26802	25410	157715	27048	1071241	46992	109934	0	0	8116	567824	0	0
2024-09-11 07:16:47			0	37518	0	0	0	26797	25400	157735	26951	1071312	46991	109932	0	0	8116	567896	0	0
2024-09-11 07:17:47			0	37479	0	0	0	26802	25410	157647	27133	1071214	46992	109934	0	0	8114	569414	0	0
2024-09-11 07:18:47			0	37508	0	0	0	26786	25400	157751	27268	1071312	46991	109928	0	0	8115	568293	0	0
2024-09-11 07:19:47			0	37502	0	0	0	26794	25400	157735	27371	1071250	46979	109931	0	0	8115	568532	0	0
2024-09-11 07:20:47			0	37491	0	0	0	26786	25390	157791	27104	1071268	46967	109928	0	0	8114	569001	0	0
2024-09-11 07:21:47			0	37506	0	0	0	26794	25410	157775	26996	1071187	46981	109931	0	0	8115	568340	0	0
2024-09-11 07:22:47			0	37473	0	0	0	26797	25400	157767	27220	1071223	46979	109932	0	0	8113	569685	0	0
2024-09-11 07:23:47			0	37487	0	0	0	26789	25390	157819	27027	1071232	46989	109929	0	0	8114	569161	0	0
2024-09-11 07:24:47			0	37495	0	0	0	26773	25400	157787	27135	1071116	46979	109923	0	0	8115	568810	0	0
2024-09-11 07:25:47			0	37495	0	0	0	26794	25390	157787	27310	1071241	46990	109931	0	0	8115	568842	0	0
2024-09-11 07:26:47			0	37484	0	0	0	26792	25390	157879	27177	1071205	46989	109930	0	0	8114	569280	0	0
2024-09-11 07:27:47			0	37489	0	0	0	26786	25390	157827	27225	1071205	46978	109928	0	0	8114	569081	0	0
2024-09-11 07:28:47			0	37477	0	0	0	26786	25370	157835	27412	1071178	46976	109928	0	0	8113	569623	0	0
2024-09-11 07:29:47			0	37484	0	0	0	26779	25380	157899	27353	1071250	46978	109925	0	0	8114	569312	0	0
2024-09-11 07:30:47			0	37483	0	0	0	26771	25380	157947	27345	1071142	46978	109922	0	0	8114	569352	0	0
2024-09-11 07:31:47			0	37488	0	0	0	26768	25390	157899	27090	1071151	46989	109921	0	0	8115	569121	0	0
2024-09-11 07:32:47			0	37495	0	0	0	26771	25380	157899	27376	1071133	46988	109922	0	0	8115	568875	0	0
2024-09-11 07:33:47			0	37486	0	0	0	26776	25380	157887	27185	1071089	46966	109924	0	0	8114	569233	0	0
2024-09-11 07:34:47			0	37470	0	0	0	26768	25380	157927	27176	1071115	46978	109921	0	0	8113	569869	0	0
2024-09-11 07:35:47			0	37480	0	0	0	26773	25380	157923	27296	1071106	46977	109923	0	0	8114	569471	0	0
2024-09-11 07:36:47			0	37499	0	0	0	26776	25370	157863	27067	1071088	46998	109924	0	0	8115	568748	0	0
2024-09-11 07:37:47			0	37483	0	0	0	26776	25380	157939	27395	1071106	46977	109924	0	0	8114	569352	0	0
2024-09-11 07:38:47			0	37477	0	0	0	26771	25370	157987	27203	1071017	46976	109922	0	0	8114	569623	0	0
2024-09-11 07:39:47			0	37486	0	0	0	26776	25370	157959	27268	1071097	46976	109924	0	0	8114	569265	0	0
2024-09-11 07:40:47			0	37475	0	0	0	26776	25380	157895	27034	1071106	46977	109924	0	0	8114	569670	0	0
2024-09-11 07:41:47			0	37472	0	0	0	26786	25360	158019	27005	1071070	46986	109928	0	0	8113	569855	0	0
2024-09-11 07:42:47			0	37477	0	0	0	26779	25370	157943	27280	1071097	46987	109925	0	0	8114	569623	0	0
2024-09-11 07:43:47			0	37488	0	0	0	26781	25380	157943	27062	1071133	46977	109926	0	0	8114	569153	0	0
2024-09-11 07:44:47			0	37476	0	0	0	26779	25370	158007	27182	1071124	46976	109925	0	0	8114	569663	0	0
2024-09-11 07:45:47			0	37486	0	0	0	26761	25370	157943	27313	1071115	46976	109918	0	0	8114	569265	0	0
2024-09-11 07:46:47			0	37463	0	0	0	26768	25370	158015	27190	1071115	46976	109921	0	0	8113	570181	0	0
2024-09-11 07:47:47			0	37466	0	0	0	26755	25370	157987	27265	1071142	46976	109916	0	0	8113	570061	0	0
2024-09-11 07:48:47			0	37471	0	0	0	26763	25370	157999	27123	1071097	46998	109919	0	0	8114	569862	0	0
2024-09-11 07:49:47			0	37452	0	0	0	26758	25360	158027	27267	1070936	46963	109917	0	0	8112	570651	0	0
2024-09-11 07:50:47			0	37467	0	0	0	26755	25360	158019	27246	1071017	46963	109916	0	0	8113	570054	0	0
2024-09-11 07:51:47			0	37476	0	0	0	26755	25370	157919	27334	1071088	46976	109916	0	0	8114	569663	0	0
2024-09-11 07:52:47			0	37466	0	0	0	26748	25350	157959	27213	1071034	46974	109913	0	0	8113	570126	0	0
2024-09-11 07:53:47			0	37459	0	0	0	26750	25370	157971	27332	1071035	46987	109914	0	0	8113	570340	0	0
2024-09-11 07:54:47			0	37460	0	0	0	26745	25350	158095	27308	1070981	46974	109912	0	0	8113	570365	0	0
2024-09-11 07:55:47			0	37474	0	0	0	26755	25350	157879	27241	1071034	46962	109916	0	0	8114	569807	0	0
2024-09-11 07:56:47			0	37443	0	0	0	26763	25350	157971	27353	1070945	46974	109919	0	0	8112	571043	0	0
2024-09-11 07:57:47			0	37458	0	0	0	26755	25350	157975	27001	1071025	46985	109916	0	0	8113	570445	0	0
2024-09-11 07:58:47			0	37465	0	0	0	26758	25350	157983	27388	1070954	46974	109917	0	0	8113	570166	0	0
2024-09-11 07:59:47			0	37450	0	0	0	26753	25350	157995	27107	1070972	46962	109915	0	0	8112	570764	0	0
2024-09-11 08:00:47			0	37469	0	0	0	26755	25350	158027	27164	1070999	46952	109916	0	0	8113	570006	0	0
2024-09-11 08:01:47			0	37463	0	0	0	26755	25350	157951	27142	1071008	46974	109916	0	0	8113	570245	0	0
2024-09-11 08:02:47			0	37456	0	0	0	26748	25350	157967	27315	1070954	46974	109913	0	0	8113	570524	0	0
2024-09-11 08:03:47			0	37465	0	0	0	26750	25350	158035	27334	1070999	46974	109914	0	0	8113	570166	0	0
2024-09-11 08:04:47			0	37464	0	0	0	26748	25350	157971	27242	1070981	46985	109913	0	0	8113	570206	0	0
2024-09-11 08:05:47			0	37479	0	0	0	26745	25350	157983	27144	1070972	46974	109912	0	0	8114	569608	0	0
2024-09-11 08:06:47			0	37483	0	0	0	26750	25340	157951	27268	1070909	46974	109914	0	0	8114	569481	0	0
2024-09-11 08:07:47			0	37469	0	0	0	26758	25350	157951	27213	1070918	46974	109917	0	0	8113	570006	0	0
2024-09-11 08:08:47			0	37465	0	0	0	26753	25340	157939	27256	1070963	46974	109915	0	0	8113	570198	0	0
2024-09-11 08:09:47			0	37473	0	0	0	26748	25350	157931	27275	1070954	46974	109913	0	0	8114	569847	0	0
2024-09-11 08:10:47			0	37491	0	0	0	26737	25340	157911	27137	1071007	46973	109909	0	0	8115	569163	0	0
2024-09-11 08:11:47			0	37470	0	0	0	26740	25340	157903	27183	1070990	46985	109910	0	0	8114	569999	0	0
2024-09-11 08:12:47			0	37469	0	0	0	26745	25350	157947	27055	1070954	46974	109912	0	0	8114	570006	0	0
2024-09-11 08:13:47			0	37486	0	0	0	26729	25340	157895	27201	1070936	46974	109906	0	0	8115	569362	0	0
2024-09-11 08:14:47			0	37483	0	0	0	26742	25340	157971	27287	1070963	46974	109911	0	0	8114	569481	0	0
2024-09-11 08:15:47			0	37486	0	0	0	26737	25340	157959	26745	1070963	46974	109909	0	0	8115	569362	0	0
2024-09-11 08:16:47			0	37487	0	0	0	26735	25340	157871	26870	1070963	46985	109908	0	0	8115	569322	0	0
2024-09-11 08:17:47			0	37482	0	0	0	26742	25340	157915	26913	1070954	46973	109911	0	0	8114	569521	0	0
2024-09-11 08:18:47			0	37482	0	0	0	26735	25340	157883	27190	1070909	46974	109908	0	0	8115	569521	0	0
2024-09-11 08:19:47			0	37481	0	0	0	26729	25340	157951	27163	1070927	46973	109906	0	0	8115	569561	0	0
2024-09-11 08:20:47			0	37491	0	0	0	26732	25340	157887	27116	1070882	46985	109907	0	0	8115	569163	0	0
2024-09-11 08:21:47			0	37476	0	0	0	26735	25330	157923	27150	1070918	46983	109908	0	0	8114	569792	0	0
2024-09-11 08:22:47			0	37483	0	0	0	26735	25330	157987	27215	1070909	46971	109908	0	0	8115	569514	0	0
2024-09-11 08:23:47			0	37481	0	0	0	26737	25340	158027	27166	1070927	46961	109909	0	0	8114	569561	0	0
2024-09-11 08:24:47			0	37470	0	0	0	26737	25330	157987	27294	1070891	46983	109909	0	0	8114	570031	0	0
2024-09-11 08:25:47			0	37464	0	0	0	26737	25330	157919	27039	1070945	46971	109909	0	0	8113	570270	0	0
2024-09-11 08:26:47			0	37465	0	0	0	26742	25330	157963	27234	1070945	46960	109911	0	0	8113	570231	0	0
2024-09-11 08:27:47			0	37470	0	0	0	26745	25330	158035	27287	1070918	46983	109912	0	0	8114	570031	0	0
2024-09-11 08:28:47			0	37480	0	0	0	26737	25340	157871	27157	1070981	46973	109909	0	0	8114	569601	0	0
2024-09-11 08:29:47			0	37475	0	0	0	26737	25340	157887	27175	1070927	46973	109909	0	0	8114	569800	0	0
2024-09-11 08:30:47			0	37489	0	0	0	26735	25340	158003	27123	1070873	46984	109908	0	0	8115	569243	0	0
2024-09-11 08:31:47			0	37478	0	0	0	26745	25340	157979	27410	1070900	46973	109912	0	0	8114	569680	0	0
2024-09-11 08:32:47			0	37483	0	0	0	26724	25330	157915	27085	1070945	46971	109904	0	0	8115	569514	0	0
2024-09-11 08:33:47			0	37474	0	0	0	26729	25330	157975	27256	1070936	46983	109906	0	0	8114	569872	0	0
2024-09-11 08:34:47			0	37476	0	0	0	26727	25330	158023	27228	1070864	46960	109905	0	0	8114	569792	0	0
2024-09-11 08:35:47			0	37497	0	0	0	26727	25320	157967	27043	1070873	46970	109905	0	0	8115	568989	0	0
2024-09-11 08:36:47			0	37467	0	0	0	26727	25320	157943	26826	1070873	46970	109905	0	0	8114	570183	0	0
2024-09-11 08:37:47			0	37493	0	0	0	26722	25310	157955	27279	1070828	46958	109903	0	0	8115	569180	0	0
2024-09-11 08:38:47			0	37483	0	0	0	26716	25310	157979	27334	1070828	46969	109901	0	0	8115	569578	0	0
2024-09-11 08:39:47			0	37480	0	0	0	26724	25320	157883	27234	1070846	46970	109904	0	0	8114	569666	0	0
2024-09-11 08:40:47			0	37495	0	0	0	26727	25330	157895	27159	1070802	46971	109905	0	0	8115	569036	0	0
2024-09-11 08:41:47			0	37503	0	0	0	26732	25330	157875	27209	1070909	46971	109907	0	0	8116	568718	0	0
2024-09-11 08:42:47			0	37503	0	0	0	26724	25310	157799	27326	1070801	46969	109904	0	0	8116	568783	0	0
2024-09-11 08:43:47			0	37503	0	0	0	26716	25310	157707	27043	1070775	46958	109901	0	0	8116	568783	0	0
2024-09-11 08:44:47			0	37513	0	0	0	26711	25320	157647	27357	1070810	46970	109899	0	0	8117	568353	0	0
2024-09-11 08:45:47			0	37537	0	0	0	26711	25310	157747	27293	1070792	46958	109899	0	0	8118	567431	0	0
2024-09-11 08:46:47			0	37524	0	0	0	26716	25320	157647	27293	1070873	46970	109901	0	0	8117	567915	0	0
2024-09-11 08:47:47			0	37552	0	0	0	26716	25320	157695	27166	1070784	46959	109901	0	0	8119	566804	0	0
2024-09-11 08:48:47			0	37531	0	0	0	26706	25320	157763	27229	1070837	46970	109897	0	0	8118	567637	0	0
2024-09-11 08:49:47			0	37540	0	0	0	26709	25310	157731	27407	1070775	46958	109898	0	0	8118	567312	0	0
2024-09-11 08:50:47			0	37543	0	0	0	26703	25310	157627	27133	1070828	46969	109896	0	0	8118	567193	0	0
2024-09-11 08:51:47			0	37543	0	0	0	26701	25310	157591	27324	1070792	46981	109895	0	0	8119	567193	0	0
2024-09-11 08:52:47			0	37556	0	0	0	26696	25310	157619	27239	1070801	46969	109893	0	0	8119	566677	0	0
2024-09-11 08:53:47			0	37558	0	0	0	26701	25310	157607	26975	1070765	46958	109895	0	0	8119	566598	0	0
2024-09-11 08:54:47			0	37564	0	0	0	26696	25310	157663	27067	1070765	46958	109893	0	0	8120	566360	0	0
2024-09-11 08:55:47			0	37531	0	0	0	26701	25310	157787	27549	1070765	46981	109895	0	0	8118	567670	0	0
2024-09-11 08:56:47			0	37556	0	0	0	26706	25300	157643	27230	1070676	46968	109897	0	0	8119	566709	0	0
2024-09-11 08:57:47			0	37532	0	0	0	26711	25300	157659	27395	1070730	46968	109899	0	0	8118	567662	0	0
2024-09-11 08:58:47			0	37515	0	0	0	26706	25300	157751	27471	1070774	46958	109897	0	0	8117	568338	0	0
2024-09-11 08:59:47			0	37534	0	0	0	26709	25300	157811	27086	1070720	46968	109898	0	0	8118	567583	0	0
2024-09-11 09:00:47			0	37523	0	0	0	26706	25300	157711	26967	1070747	46968	109897	0	0	8117	568020	0	0
2024-09-11 09:01:47			0	37524	0	0	0	26714	25300	157731	27107	1070801	46980	109900	0	0	8117	567980	0	0
2024-09-11 09:02:47			0	37545	0	0	0	26701	25290	157739	26965	1070765	46979	109895	0	0	8119	567178	0	0
2024-09-11 09:03:47			0	37527	0	0	0	26709	25300	157903	27008	1070756	46958	109898	0	0	8117	567861	0	0
2024-09-11 09:04:47			0	37527	0	0	0	26706	25300	157891	26885	1070747	46958	109897	0	0	8117	567861	0	0
2024-09-11 09:05:47			0	37534	0	0	0	26701	25290	157807	27097	1070711	46957	109895	0	0	8118	567615	0	0
2024-09-11 09:06:47			0	37535	0	0	0	26703	25300	157831	26795	1070801	46968	109896	0	0	8118	567543	0	0
2024-09-11 09:07:47			0	37519	0	0	0	26711	25300	157863	27187	1070774	46958	109899	0	0	8117	568179	0	0
2024-09-11 09:08:47			0	37515	0	0	0	26703	25300	157843	27476	1070774	46991	109896	0	0	8117	568338	0	0
2024-09-11 09:09:47			0	37528	0	0	0	26703	25300	157787	27206	1070810	46968	109896	0	0	8118	567821	0	0
2024-09-11 09:10:47			0	37537	0	0	0	26709	25300	157883	27351	1070747	46958	109898	0	0	8118	567463	0	0
2024-09-11 09:11:47			0	37541	0	0	0	26703	25300	157831	27350	1070693	46968	109896	0	0	8118	567305	0	0
2024-09-11 09:12:47			0	37548	0	0	0	26706	25300	157863	27310	1070756	46968	109897	0	0	8119	567027	0	0
2024-09-11 09:13:47			0	37504	0	0	0	26716	25290	157871	27294	1070836	46989	109901	0	0	8116	568807	0	0
2024-09-11 09:14:47			0	37520	0	0	0	26703	25290	157831	27124	1070765	46990	109896	0	0	8117	568171	0	0
2024-09-11 09:15:47			0	37527	0	0	0	26706	25300	157743	27310	1070720	46958	109897	0	0	8117	567861	0	0
2024-09-11 09:16:47			0	37534	0	0	0	26698	25290	157895	27100	1070738	46957	109894	0	0	8118	567615	0	0
2024-09-11 09:17:47			0	37528	0	0	0	26701	25300	157851	27502	1070730	46968	109895	0	0	8118	567821	0	0
2024-09-11 09:18:47			0	37524	0	0	0	26709	25300	157839	27263	1070747	46980	109898	0	0	8117	567980	0	0
2024-09-11 09:19:47			0	37527	0	0	0	26714	25300	157835	27013	1070747	46980	109900	0	0	8117	567861	0	0
2024-09-11 09:20:47			0	37515	0	0	0	26722	25300	157835	26979	1070747	46980	109903	0	0	8116	568338	0	0
2024-09-11 09:21:47			0	37526	0	0	0	26711	25300	157911	27060	1070756	46968	109899	0	0	8117	567900	0	0
2024-09-11 09:22:47			0	37540	0	0	0	26714	25300	157895	27185	1070801	46968	109900	0	0	8118	567344	0	0
2024-09-11 09:23:47			0	37517	0	0	0	26722	25300	157951	27254	1070747	46980	109903	0	0	8117	568258	0	0
2024-09-11 09:24:47			0	37538	0	0	0	26716	25300	157863	27204	1070801	46968	109901	0	0	8118	567424	0	0
2024-09-11 09:25:47			0	37518	0	0	0	26716	25310	157675	27215	1070712	46992	109901	0	0	8117	568186	0	0
2024-09-11 09:26:47			0	37543	0	0	0	26716	25300	157735	27261	1070774	46980	109901	0	0	8118	567225	0	0
2024-09-11 09:27:47			0	37525	0	0	0	26719	25310	157803	27312	1070819	46969	109902	0	0	8117	567908	0	0
2024-09-11 09:28:47			0	37550	0	0	0	26716	25310	157707	26941	1070739	46981	109901	0	0	8119	566915	0	0
2024-09-11 09:29:47			0	37548	0	0	0	26719	25310	157791	27284	1070792	46981	109902	0	0	8119	566994	0	0
2024-09-11 09:30:47			0	37570	0	0	0	26724	25310	157751	27227	1070846	46969	109904	0	0	8120	566122	0	0
2024-09-11 09:31:47			0	37589	0	0	0	26719	25300	157703	27092	1070837	46968	109902	0	0	8121	565401	0	0
2024-09-11 09:32:47			0	37563	0	0	0	26727	25310	157647	27069	1070828	46969	109905	0	0	8119	566399	0	0
2024-09-11 09:33:47			0	37556	0	0	0	26729	25310	157639	27055	1070846	46981	109906	0	0	8119	566677	0	0
2024-09-11 09:34:47			0	37562	0	0	0	26727	25310	157603	26991	1070801	46981	109905	0	0	8119	566439	0	0
2024-09-11 09:35:47			0	37579	0	0	0	26727	25310	157639	26918	1070819	46969	109905	0	0	8120	565765	0	0
2024-09-11 09:36:47			0	37574	0	0	0	26729	25310	157607	27317	1070855	46969	109906	0	0	8120	565963	0	0
2024-09-11 09:37:47			0	37577	0	0	0	26727	25310	157607	27209	1070846	46958	109905	0	0	8120	565844	0	0
2024-09-11 09:38:47			0	37587	0	0	0	26724	25310	157599	27326	1070882	46969	109904	0	0	8121	565448	0	0
2024-09-11 09:39:47			0	37587	0	0	0	26732	25310	157591	27329	1070828	46969	109907	0	0	8121	565448	0	0
2024-09-11 09:40:47			0	37591	0	0	0	26753	25320	157603	27365	1070891	46982	109915	0	0	8120	565257	0	0
2024-09-11 09:41:47			0	37589	0	0	0	26735	25310	157567	27036	1070828	46981	109908	0	0	8121	565368	0	0
2024-09-11 09:42:47			0	37605	0	0	0	26727	25320	157503	27220	1070873	46970	109905	0	0	8122	564703	0	0
2024-09-11 09:43:47			0	37595	0	0	0	26732	25320	157427	27059	1070891	46970	109907	0	0	8121	565099	0	0
2024-09-11 09:44:47			0	37618	0	0	0	26737	25320	157399	27168	1070918	46982	109909	0	0	8122	564188	0	0
2024-09-11 09:45:47			0	37602	0	0	0	26740	25320	157391	26956	1070900	46970	109910	0	0	8121	564821	0	0
2024-09-11 09:46:47			0	37624	0	0	0	26727	25320	157363	26759	1070900	46993	109905	0	0	8123	563951	0	0
2024-09-11 09:47:47			0	37605	0	0	0	26724	25320	157423	27100	1070900	46959	109904	0	0	8122	564703	0	0
2024-09-11 09:48:47			0	37626	0	0	0	26732	25320	157459	27251	1070864	46982	109907	0	0	8123	563872	0	0
2024-09-11 09:49:47			0	37628	0	0	0	26732	25320	157375	27126	1070837	46970	109907	0	0	8123	563793	0	0
2024-09-11 09:50:47			0	37624	0	0	0	26729	25330	157327	27218	1070909	46971	109906	0	0	8123	563919	0	0
2024-09-11 09:51:47			0	37622	0	0	0	26735	25330	157399	26977	1070882	46983	109908	0	0	8123	563998	0	0
2024-09-11 09:52:47			0	37638	0	0	0	26727	25330	157315	26821	1070882	46971	109905	0	0	8124	563365	0	0
2024-09-11 09:53:47			0	37644	0	0	0	26732	25320	157383	27177	1070900	46970	109907	0	0	8124	563160	0	0
2024-09-11 09:54:47			0	37654	0	0	0	26732	25320	157331	26922	1070846	46982	109907	0	0	8125	562765	0	0
2024-09-11 09:55:47			0	37637	0	0	0	26724	25330	157323	27187	1070936	46960	109904	0	0	8124	563405	0	0
2024-09-11 09:56:47			0	37644	0	0	0	26729	25320	157235	26930	1070819	46982	109906	0	0	8124	563160	0	0
2024-09-11 09:57:47			0	37640	0	0	0	26735	25340	157291	26982	1070927	46961	109908	0	0	8124	563254	0	0
2024-09-11 09:58:47			0	37648	0	0	0	26745	25330	157355	27145	1070909	46983	109912	0	0	8124	562970	0	0
2024-09-11 09:59:47			0	37648	0	0	0	26729	25320	157343	26994	1070873	46970	109906	0	0	8124	563002	0	0
2024-09-11 10:00:47			0	37646	0	0	0	26742	25320	157363	27138	1070873	46970	109911	0	0	8124	563081	0	0
2024-09-11 10:01:47			0	37639	0	0	0	26740	25330	157295	27008	1070936	46971	109910	0	0	8124	563326	0	0
2024-09-11 10:02:47			0	37670	0	0	0	26735	25330	157303	26961	1070909	46971	109908	0	0	8125	562101	0	0
2024-09-11 10:03:47			0	37648	0	0	0	26735	25320	157243	27225	1070837	46982	109908	0	0	8124	563002	0	0
2024-09-11 10:04:47			0	37666	0	0	0	26745	25310	157227	26996	1070828	46981	109912	0	0	8125	562323	0	0
2024-09-11 10:05:47			0	37676	0	0	0	26742	25330	157227	27118	1070882	46971	109911	0	0	8126	561864	0	0
2024-09-11 10:06:47			0	37686	0	0	0	26740	25330	157243	27223	1070945	46971	109910	0	0	8126	561470	0	0
2024-09-11 10:07:47			0	37695	0	0	0	26740	25330	157247	27076	1070909	46971	109910	0	0	8127	561115	0	0
2024-09-11 10:08:47			0	37679	0	0	0	26740	25320	157223	27036	1070927	46970	109910	0	0	8126	561778	0	0
2024-09-11 10:09:47			0	37700	0	0	0	26732	25330	157079	26963	1070936	46971	109907	0	0	8127	560918	0	0
2024-09-11 10:10:47			0	37707	0	0	0	26735	25330	157107	27249	1070891	46983	109908	0	0	8128	560642	0	0
2024-09-11 10:11:47			0	37700	0	0	0	26740	25340	157119	27159	1070954	46961	109910	0	0	8127	560886	0	0
2024-09-11 10:12:47			0	37702	0	0	0	26745	25330	157303	27020	1070909	46971	109912	0	0	8127	560839	0	0
2024-09-11 10:13:47			0	37696	0	0	0	26742	25330	157199	27157	1070909	46983	109911	0	0	8127	561075	0	0
2024-09-11 10:14:47			0	37675	0	0	0	26748	25340	157159	26967	1070927	46973	109913	0	0	8126	561872	0	0
2024-09-11 10:15:47			0	37687	0	0	0	26748	25340	157207	27078	1071007	46973	109913	0	0	8126	561398	0	0
2024-09-11 10:16:47			0	37682	0	0	0	26755	25330	157259	27102	1070971	46971	109916	0	0	8126	561628	0	0
2024-09-11 10:17:47			0	37667	0	0	0	26755	25330	157235	27085	1070998	46971	109916	0	0	8125	562220	0	0
2024-09-11 10:18:47			0	37686	0	0	0	26758	25330	157151	27133	1070971	46971	109917	0	0	8126	561470	0	0
2024-09-11 10:19:47			0	37689	0	0	0	26750	25340	157271	27255	1071016	46985	109914	0	0	8126	561320	0	0
2024-09-11 10:20:47			0	37680	0	0	0	26763	25340	157159	27190	1071016	46974	109919	0	0	8126	561675	0	0
2024-09-11 10:21:47			0	37675	0	0	0	26763	25340	157187	26739	1071007	46984	109919	0	0	8125	561872	0	0
2024-09-11 10:22:47			0	37685	0	0	0	26750	25350	157127	27086	1071052	46974	109914	0	0	8126	561445	0	0
2024-09-11 10:23:47			0	37685	0	0	0	26753	25350	157239	27152	1071079	46985	109915	0	0	8126	561445	0	0
2024-09-11 10:24:47			0	37690	0	0	0	26766	25350	157079	26746	1071088	47006	109920	0	0	8126	561248	0	0
2024-09-11 10:25:47			0	37685	0	0	0	26776	25340	157171	27180	1071043	46974	109924	0	0	8126	561477	0	0
2024-09-11 10:26:47			0	37700	0	0	0	26773	25340	157139	27369	1071043	46974	109923	0	0	8127	560886	0	0
2024-09-11 10:27:47			0	37708	0	0	0	26773	25350	157179	27277	1071025	46974	109923	0	0	8127	560539	0	0
2024-09-11 10:28:47			0	37707	0	0	0	26789	25340	157063	27119	1071070	46974	109929	0	0	8127	560610	0	0
2024-09-11 10:29:47			0	37700	0	0	0	26786	25350	157095	26885	1071133	46985	109928	0	0	8126	560854	0	0
2024-09-11 10:30:47			0	37714	0	0	0	26781	25350	157043	27088	1071142	46962	109926	0	0	8127	560302	0	0
2024-09-11 10:31:47			0	37716	0	0	0	26781	25370	157151	27100	1071088	46976	109926	0	0	8128	560160	0	0
2024-09-11 10:32:47			0	37714	0	0	0	26789	25360	157059	27130	1071097	46986	109929	0	0	8127	560271	0	0
2024-09-11 10:33:47			0	37706	0	0	0	26802	25370	157139	27133	1071205	46987	109934	0	0	8127	560554	0	0
2024-09-11 10:34:47			0	37721	0	0	0	26807	25350	156975	27166	1071169	46985	109936	0	0	8127	560027	0	0
2024-09-11 10:35:47			0	37715	0	0	0	26812	25370	156931	26887	1071196	46976	109938	0	0	8127	560199	0	0
2024-09-11 10:36:47			0	37742	0	0	0	26812	25370	156951	27066	1071196	46976	109938	0	0	8129	559137	0	0
2024-09-11 10:37:47			0	37744	0	0	0	26820	25370	156935	26816	1071231	46987	109941	0	0	8129	559058	0	0
2024-09-11 10:38:47			0	37739	0	0	0	26815	25370	156915	27123	1071285	46976	109939	0	0	8128	559255	0	0
2024-09-11 10:39:47			0	37755	0	0	0	26807	25370	156859	27307	1071258	46987	109936	0	0	8129	558625	0	0
2024-09-11 10:40:47			0	37781	0	0	0	26818	25380	156755	27168	1071276	46989	109940	0	0	8131	557572	0	0
2024-09-11 10:41:47			0	37787	0	0	0	26815	25390	156779	27026	1071312	46989	109939	0	0	8131	557305	0	0
2024-09-11 10:42:47			0	37793	0	0	0	26820	25390	156759	27183	1071312	46989	109941	0	0	8131	557070	0	0
2024-09-11 10:43:47			0	37803	0	0	0	26838	25400	156731	27131	1071357	46979	109948	0	0	8132	556646	0	0
2024-09-11 10:44:47			0	37808	0	0	0	26833	25390	156751	27235	1071321	46990	109946	0	0	8132	556481	0	0
2024-09-11 10:45:47			0	37808	0	0	0	26841	25390	156715	27034	1071375	46967	109949	0	0	8132	556481	0	0
2024-09-11 10:46:47			0	37807	0	0	0	26844	25400	156583	27298	1071393	46991	109950	0	0	8132	556489	0	0
2024-09-11 10:47:47			0	37838	0	0	0	26849	25410	156499	26981	1071438	47002	109952	0	0	8134	555242	0	0
2024-09-11 10:48:47			0	37869	0	0	0	26857	25410	156407	27067	1071429	46981	109955	0	0	8135	554029	0	0
2024-09-11 10:49:47			0	37901	0	0	0	26849	25410	156319	27332	1071518	46992	109952	0	0	8137	552779	0	0
2024-09-11 10:50:47			0	37920	0	0	0	26846	25410	156179	27227	1071438	46992	109951	0	0	8138	552038	0	0
2024-09-11 10:51:47			0	37903	0	0	0	26859	25430	156123	27126	1071447	46983	109956	0	0	8137	552638	0	0
2024-09-11 10:52:47			0	37922	0	0	0	26846	25430	156115	27327	1071438	46994	109951	0	0	8139	551897	0	0
2024-09-11 10:53:47			0	37922	0	0	0	26833	25420	156031	27355	1071483	46993	109946	0	0	8139	551928	0	0
2024-09-11 10:54:47			0	37930	0	0	0	26833	25420	156095	27128	1071510	46993	109946	0	0	8139	551616	0	0
2024-09-11 10:55:47			0	37942	0	0	0	26828	25420	156091	27277	1071456	46970	109944	0	0	8140	551148	0	0
2024-09-11 10:56:47			0	37932	0	0	0	26841	25430	156019	27183	1071474	46971	109949	0	0	8139	551507	0	0
2024-09-11 10:57:47			0	37924	0	0	0	26833	25430	156071	27294	1071519	46994	109946	0	0	8139	551819	0	0
2024-09-11 10:58:47			0	37933	0	0	0	26833	25430	156043	26925	1071465	46983	109946	0	0	8140	551468	0	0
2024-09-11 10:59:47			0	37905	0	0	0	26836	25430	156247	27286	1071474	46994	109947	0	0	8138	552560	0	0
2024-09-11 11:00:47			0	37900	0	0	0	26825	25430	156207	27043	1071474	46971	109943	0	0	8138	552755	0	0
2024-09-11 11:01:47			0	37915	0	0	0	26825	25430	156179	27131	1071474	46983	109943	0	0	8139	552170	0	0
2024-09-11 11:02:47			0	37908	0	0	0	26820	25430	156227	27272	1071465	46971	109941	0	0	8138	552443	0	0
2024-09-11 11:03:47			0	37896	0	0	0	26820	25440	156339	27379	1071456	46994	109941	0	0	8138	552880	0	0
2024-09-11 11:04:47			0	37872	0	0	0	26828	25420	156311	27097	1071483	46993	109944	0	0	8136	553880	0	0
2024-09-11 11:05:47			0	37894	0	0	0	26836	25440	156355	27098	1071483	46994	109947	0	0	8137	552958	0	0
2024-09-11 11:06:47			0	37871	0	0	0	26838	25420	156447	27192	1071447	46969	109948	0	0	8136	553920	0	0
2024-09-11 11:07:47			0	37862	0	0	0	26833	25430	156387	26984	1071447	46994	109946	0	0	8135	554240	0	0
2024-09-11 11:08:47			0	37874	0	0	0	26841	25420	156403	27265	1071456	46982	109949	0	0	8136	553802	0	0
2024-09-11 11:09:47			0	37870	0	0	0	26833	25420	156499	27414	1071429	46982	109946	0	0	8136	553959	0	0
2024-09-11 11:10:47			0	37860	0	0	0	26844	25430	156403	27293	1071465	46983	109950	0	0	8135	554318	0	0
2024-09-11 11:11:47			0	37856	0	0	0	26844	25440	156319	27272	1071456	46971	109950	0	0	8135	554443	0	0
2024-09-11 11:12:47			0	37864	0	0	0	26846	25440	156411	27222	1071483	46971	109951	0	0	8135	554131	0	0
2024-09-11 11:13:47			0	37851	0	0	0	26864	25430	156435	27190	1071492	46994	109958	0	0	8134	554670	0	0
2024-09-11 11:14:47			0	37849	0	0	0	26857	25440	156447	27130	1071492	46984	109955	0	0	8134	554717	0	0
2024-09-11 11:15:47			0	37863	0	0	0	26867	25440	156451	27215	1071510	46994	109959	0	0	8135	554170	0	0
2024-09-11 11:16:47			0	37867	0	0	0	26877	25440	156431	27414	1071546	47005	109963	0	0	8135	554013	0	0
2024-09-11 11:17:47			0	37852	0	0	0	26859	25430	156343	27265	1071573	46983	109956	0	0	8134	554631	0	0
2024-09-11 11:18:47			0	37868	0	0	0	26875	25440	156315	27261	1071492	47005	109962	0	0	8135	553974	0	0
2024-09-11 11:19:47			0	37843	0	0	0	26849	25440	156367	27448	1071573	46972	109952	0	0	8134	554952	0	0
2024-09-11 11:20:47			0	37872	0	0	0	26844	25440	156375	26981	1071519	46984	109950	0	0	8136	553818	0	0
2024-09-11 11:21:47			0	37859	0	0	0	26854	25440	156387	27131	1071573	46984	109954	0	0	8135	554326	0	0
2024-09-11 11:22:47			0	37853	0	0	0	26859	25450	156463	27086	1071555	46996	109956	0	0	8135	554529	0	0
2024-09-11 11:23:47			0	37850	0	0	0	26862	25440	156419	27239	1071510	46983	109957	0	0	8134	554678	0	0
2024-09-11 11:24:47			0	37827	0	0	0	26872	25460	156455	26935	1071600	46985	109961	0	0	8133	555515	0	0
2024-09-11 11:25:47			0	37827	0	0	0	26896	25450	156531	26994	1071609	46973	109970	0	0	8132	555547	0	0
2024-09-11 11:26:47			0	37848	0	0	0	26893	25450	156519	27157	1071689	46996	109969	0	0	8134	554725	0	0
2024-09-11 11:27:47			0	37814	0	0	0	26893	25460	156483	27358	1071707	46996	109969	0	0	8132	556025	0	0
2024-09-11 11:28:47			0	37847	0	0	0	26893	25470	156599	27215	1071645	46987	109969	0	0	8134	554701	0	0
2024-09-11 11:29:47			0	37847	0	0	0	26890	25450	156407	27171	1071671	46996	109968	0	0	8134	554764	0	0
2024-09-11 11:30:47			0	37832	0	0	0	26898	25470	156415	27128	1071681	46999	109971	0	0	8133	555288	0	0
2024-09-11 11:31:47			0	37852	0	0	0	26890	25470	156387	27312	1071752	46998	109968	0	0	8134	554505	0	0
2024-09-11 11:32:47			0	37840	0	0	0	26890	25470	156371	27431	1071734	47009	109968	0	0	8133	554975	0	0
2024-09-11 11:33:47			0	37857	0	0	0	26898	25470	156339	27459	1071725	46998	109971	0	0	8134	554310	0	0
2024-09-11 11:34:47			0	37867	0	0	0	26890	25480	156319	27478	1071770	46976	109968	0	0	8135	553887	0	0
2024-09-11 11:35:47			0	37874	0	0	0	26885	25480	156311	27267	1071770	46999	109966	0	0	8135	553614	0	0
2024-09-11 11:36:47			0	37865	0	0	0	26901	25480	156271	27256	1071743	46999	109972	0	0	8135	553965	0	0
2024-09-11 11:37:47			0	37864	0	0	0	26898	25470	156371	27038	1071761	46988	109971	0	0	8135	554036	0	0
2024-09-11 11:38:47			0	37864	0	0	0	26888	25480	156327	27550	1071806	47009	109967	0	0	8135	554005	0	0
2024-09-11 11:39:47			0	37868	0	0	0	26896	25480	156263	27459	1071716	46988	109970	0	0	8135	553848	0	0
2024-09-11 11:40:47			0	37880	0	0	0	26896	25480	156259	27275	1071806	46976	109970	0	0	8136	553379	0	0
2024-09-11 11:41:47			0	37880	0	0	0	26893	25490	156207	27391	1071815	46989	109969	0	0	8136	553348	0	0
2024-09-11 11:42:47			0	37876	0	0	0	26890	25470	156243	27422	1071707	46988	109968	0	0	8135	553567	0	0
2024-09-11 11:43:47			0	37879	0	0	0	26914	25480	156211	27192	1071770	46976	109977	0	0	8135	553418	0	0
2024-09-11 11:44:47			0	37892	0	0	0	26896	25490	156303	27322	1071788	47000	109970	0	0	8136	552879	0	0
2024-09-11 11:45:47			0	37893	0	0	0	26896	25500	156271	27300	1071797	47000	109970	0	0	8136	552809	0	0
2024-09-11 11:46:47			0	37885	0	0	0	26911	25490	156231	27303	1071869	46989	109976	0	0	8136	553152	0	0
2024-09-11 11:47:47			0	37897	0	0	0	26911	25490	156243	26870	1071815	46977	109976	0	0	8136	552684	0	0
2024-09-11 11:48:47			0	37904	0	0	0	26909	25500	156131	27281	1071824	47000	109975	0	0	8137	552379	0	0
2024-09-11 11:49:47			0	37910	0	0	0	26898	25490	156107	27268	1071896	47000	109971	0	0	8137	552177	0	0
2024-09-11 11:50:47			0	37922	0	0	0	26896	25490	156099	27343	1071869	46989	109970	0	0	8138	551708	0	0
2024-09-11 11:51:47			0	37919	0	0	0	26898	25500	155991	27190	1071851	46990	109971	0	0	8138	551794	0	0
2024-09-11 11:52:47			0	37939	0	0	0	26901	25500	155955	27301	1071860	46990	109972	0	0	8139	551015	0	0
2024-09-11 11:53:47			0	37945	0	0	0	26898	25490	155951	27289	1071815	46977	109971	0	0	8139	550812	0	0
2024-09-11 11:54:47			0	37958	0	0	0	26898	25490	155843	27315	1071815	47010	109971	0	0	8140	550306	0	0
2024-09-11 11:55:47			0	37967	0	0	0	26896	25500	155967	27145	1071806	46990	109970	0	0	8141	549924	0	0
2024-09-11 11:56:47			0	37952	0	0	0	26890	25500	155911	27279	1071824	46978	109968	0	0	8140	550508	0	0
2024-09-11 11:57:47			0	37967	0	0	0	26890	25500	155851	27502	1071851	46990	109968	0	0	8141	549924	0	0
2024-09-11 11:58:47			0	37956	0	0	0	26890	25490	155911	27131	1071788	46989	109968	0	0	8140	550384	0	0
2024-09-11 11:59:47			0	37960	0	0	0	26890	25480	155843	27270	1071752	46976	109968	0	0	8140	550259	0	0
2024-09-11 12:00:47			0	37979	0	0	0	26883	25490	155963	27185	1071708	46977	109965	0	0	8142	549489	0	0
2024-09-11 12:01:47			0	37970	0	0	0	26896	25480	155847	27270	1071752	46976	109970	0	0	8141	549870	0	0
2024-09-11 12:02:47			0	37980	0	0	0	26901	25480	155891	27267	1071770	46976	109972	0	0	8141	549481	0	0
2024-09-11 12:03:47			0	37966	0	0	0	26893	25500	155855	27284	1071851	46990	109969	0	0	8141	549963	0	0
2024-09-11 12:04:47			0	37968	0	0	0	26896	25500	155775	26852	1071833	46978	109970	0	0	8141	549885	0	0
2024-09-11 12:05:47			0	38011	0	0	0	26909	25480	155831	27067	1071806	46988	109975	0	0	8143	548276	0	0
2024-09-11 12:06:47			0	38005	0	0	0	26919	25500	155655	27315	1071851	46990	109979	0	0	8143	548447	0	0
2024-09-11 12:07:47			0	38034	0	0	0	26916	25490	155712	27543	1071735	46989	109978	0	0	8144	547352	0	0
2024-09-11 12:08:47			0	38037	0	0	0	26922	25480	155616	27374	1071833	46999	109980	0	0	8144	547267	0	0
2024-09-11 12:09:47			0	38047	0	0	0	26924	25500	155568	27384	1071887	47000	109981	0	0	8145	546817	0	0
2024-09-11 12:10:47			0	38044	0	0	0	26929	25510	155512	27199	1071869	47000	109983	0	0	8145	546902	0	0
2024-09-11 12:11:47			0	38039	0	0	0	26935	25500	155416	27312	1071860	46978	109985	0	0	8144	547127	0	0
2024-09-11 12:12:47			0	38063	0	0	0	26937	25510	155524	27147	1071923	47000	109986	0	0	8146	546166	0	0
2024-09-11 12:13:47			0	38058	0	0	0	26945	25510	155508	27320	1071932	46991	109989	0	0	8145	546360	0	0
2024-09-11 12:14:47			0	38066	0	0	0	26940	25520	155436	27220	1071994	47014	109987	0	0	8146	546019	0	0
2024-09-11 12:15:47			0	38080	0	0	0	26937	25510	155456	27500	1071985	47001	109986	0	0	8147	545507	0	0
2024-09-11 12:16:47			0	38090	0	0	0	26935	25520	155364	27248	1071887	46992	109985	0	0	8147	545089	0	0
2024-09-11 12:17:47			0	38108	0	0	0	26935	25520	155464	27417	1071968	47025	109985	0	0	8148	544393	0	0
2024-09-11 12:18:47			0	38104	0	0	0	26937	25520	155308	27202	1072003	46980	109986	0	0	8148	544548	0	0
2024-09-11 12:19:47			0	38118	0	0	0	26942	25530	155256	27274	1071995	47003	109988	0	0	8149	543976	0	0
2024-09-11 12:20:47			0	38142	0	0	0	26945	25530	155256	27334	1072048	46993	109989	0	0	8150	543049	0	0
2024-09-11 12:21:47			0	38126	0	0	0	26950	25530	155164	27417	1071995	46993	109991	0	0	8149	543667	0	0
2024-09-11 12:22:47			0	38132	0	0	0	26942	25530	155172	27281	1071986	47002	109988	0	0	8150	543435	0	0
2024-09-11 12:23:47			0	38142	0	0	0	26940	25530	155184	27346	1072021	47014	109987	0	0	8150	543049	0	0
2024-09-11 12:24:47			0	38151	0	0	0	26937	25520	155072	27436	1071923	46980	109986	0	0	8151	542732	0	0
2024-09-11 12:25:47			0	38154	0	0	0	26940	25530	155160	27133	1072021	47003	109987	0	0	8151	542586	0	0
2024-09-11 12:26:47			0	38161	0	0	0	26961	25530	155216	27152	1072021	46993	109995	0	0	8151	542316	0	0
2024-09-11 12:27:47			0	38153	0	0	0	26968	25530	155120	27485	1071995	46993	109998	0	0	8150	542624	0	0
2024-09-11 12:28:47			0	38150	0	0	0	26950	25530	155140	27305	1072021	46993	109991	0	0	8151	542740	0	0
2024-09-11 12:29:47			0	38148	0	0	0	26974	25540	155200	27118	1072138	46983	110000	0	0	8150	542786	0	0
2024-09-11 12:30:47			0	38137	0	0	0	26971	25550	155332	27497	1072049	46995	109999	0	0	8150	543180	0	0
2024-09-11 12:31:47			0	38132	0	0	0	26981	25540	155328	27407	1072057	47004	110003	0	0	8149	543404	0	0
2024-09-11 12:32:47			0	38117	0	0	0	26963	25550	155408	27402	1072102	46995	109996	0	0	8149	543953	0	0
2024-09-11 12:33:47			0	38117	0	0	0	26966	25550	155288	27182	1072085	47005	109997	0	0	8149	543953	0	0
2024-09-11 12:34:47			0	38104	0	0	0	26955	25550	155368	27237	1072138	46995	109993	0	0	8148	544455	0	0
2024-09-11 12:35:47			0	38111	0	0	0	26958	25550	155332	27100	1072102	46995	109994	0	0	8148	544184	0	0
2024-09-11 12:36:47			0	38111	0	0	0	26948	25550	155276	27422	1072129	46995	109990	0	0	8148	544184	0	0
2024-09-11 12:37:47			0	38102	0	0	0	26958	25550	155384	27435	1072085	46995	109994	0	0	8148	544532	0	0
2024-09-11 12:38:47			0	38094	0	0	0	26955	25550	155240	27274	1072138	46995	109993	0	0	8147	544842	0	0
2024-09-11 12:39:47			0	38107	0	0	0	26961	25550	155384	27206	1072112	47005	109995	0	0	8148	544339	0	0
2024-09-11 12:40:47			0	38122	0	0	0	26963	25560	155268	27381	1072147	46996	109996	0	0	8149	543728	0	0
2024-09-11 12:41:47			0	38126	0	0	0	26958	25550	155224	27166	1072085	47005	109994	0	0	8149	543605	0	0
2024-09-11 12:42:47			0	38139	0	0	0	26961	25550	155180	27473	1072165	47016	109995	0	0	8150	543103	0	0
2024-09-11 12:43:47			0	38154	0	0	0	26958	25550	155256	27161	1072129	46984	109994	0	0	8151	542524	0	0
2024-09-11 12:44:47			0	38168	0	0	0	26961	25560	155088	27457	1072156	47019	109995	0	0	8152	541953	0	0
2024-09-11 12:45:47			0	38178	0	0	0	26958	25550	154980	27246	1072138	47016	109994	0	0	8152	541599	0	0
2024-09-11 12:46:47			0	38195	0	0	0	26953	25550	155000	27312	1072085	46984	109992	0	0	8153	540944	0	0
2024-09-11 12:47:47			0	38220	0	0	0	26963	25560	154860	27454	1072147	47006	109996	0	0	8155	539951	0	0
2024-09-11 12:48:47			0	38263	0	0	0	26971	25550	154736	27519	1072085	47005	109999	0	0	8157	538329	0	0
2024-09-11 12:49:47			0	38274	0	0	0	26979	25550	154664	27159	1072058	47005	110002	0	0	8157	537907	0	0
2024-09-11 12:50:47			0	38282	0	0	0	26989	25550	154656	27239	1072219	46995	110006	0	0	8158	537600	0	0
2024-09-11 12:51:47			0	38281	0	0	0	26958	25560	154580	27225	1072147	47006	109994	0	0	8158	537608	0	0
2024-09-11 12:52:47			0	38291	0	0	0	26963	25560	154640	27209	1072174	46996	109996	0	0	8159	537224	0	0
2024-09-11 12:53:47			0	38304	0	0	0	26953	25560	154568	27445	1072156	46997	109992	0	0	8160	536726	0	0
2024-09-11 12:54:47			0	38318	0	0	0	26974	25560	154580	27152	1072174	47006	110000	0	0	8160	536190	0	0
2024-09-11 12:55:47			0	38334	0	0	0	26979	25560	154372	27256	1072237	47007	110002	0	0	8161	535577	0	0
2024-09-11 12:56:47			0	38354	0	0	0	26968	25570	154356	27079	1072192	47007	109998	0	0	8162	534782	0	0
2024-09-11 12:57:47			0	38374	0	0	0	26992	25570	154324	26871	1072228	46997	110007	0	0	8163	534018	0	0
2024-09-11 12:58:47			0	38376	0	0	0	26992	25570	154424	26974	1072192	47007	110007	0	0	8163	533941	0	0
2024-09-11 12:59:47			0	38374	0	0	0	27005	25570	154388	27024	1072273	47007	110012	0	0	8163	534018	0	0
2024-09-11 13:00:47			0	38365	0	0	0	27012	25580	154356	27485	1072291	47008	110015	0	0	8162	534331	0	0
2024-09-11 13:01:47			0	38404	0	0	0	27010	25580	154252	26993	1072291	47008	110014	0	0	8164	532842	0	0
2024-09-11 13:02:47			0	38401	0	0	0	27002	25580	154324	27192	1072291	47008	110011	0	0	8164	532957	0	0
2024-09-11 13:03:47			0	38389	0	0	0	26994	25580	154340	27066	1072237	47008	110008	0	0	8164	533415	0	0
2024-09-11 13:04:47			0	38384	0	0	0	27007	25570	154288	27098	1072255	47019	110013	0	0	8163	533636	0	0
2024-09-11 13:05:47			0	38396	0	0	0	26994	25590	154268	27102	1072318	47009	110008	0	0	8164	533117	0	0
2024-09-11 13:06:47			0	38408	0	0	0	26994	25580	154204	27235	1072300	47021	110008	0	0	8165	532689	0	0
2024-09-11 13:07:47			0	38396	0	0	0	26989	25600	154232	27074	1072327	47000	110006	0	0	8164	533087	0	0
2024-09-11 13:08:47			0	38388	0	0	0	26986	25600	154224	27415	1072390	47000	110005	0	0	8164	533392	0	0
2024-09-11 13:09:47			0	38410	0	0	0	26979	25590	154204	27211	1072318	47009	110002	0	0	8165	532583	0	0
2024-09-11 13:10:47			0	38418	0	0	0	26981	25600	154132	27126	1072300	47000	110003	0	0	8166	532248	0	0
2024-09-11 13:11:47			0	38410	0	0	0	26976	25580	154192	26981	1072273	46988	110001	0	0	8165	532613	0	0
2024-09-11 13:12:47			0	38420	0	0	0	26976	25600	154116	26975	1072354	47010	110001	0	0	8166	532171	0	0
2024-09-11 13:13:47			0	38402	0	0	0	26989	25590	154180	26989	1072291	46999	110006	0	0	8165	532888	0	0
2024-09-11 13:14:47			0	38428	0	0	0	26989	25600	154168	27216	1072390	47000	110006	0	0	8166	531867	0	0
2024-09-11 13:15:47			0	38429	0	0	0	27015	25590	154112	27204	1072291	46988	110016	0	0	8166	531859	0	0
2024-09-11 13:16:47			0	38428	0	0	0	27033	25600	154032	27145	1072381	47000	110023	0	0	8166	531867	0	0
2024-09-11 13:17:47			0	38437	0	0	0	27031	25600	154168	27265	1072417	47011	110022	0	0	8166	531524	0	0
2024-09-11 13:18:47			0	38438	0	0	0	27036	25600	154144	26857	1072408	47022	110024	0	0	8166	531486	0	0
2024-09-11 13:19:47			0	38443	0	0	0	27025	25610	154056	27196	1072488	47012	110020	0	0	8167	531265	0	0
2024-09-11 13:20:47			0	38445	0	0	0	27012	25610	154140	27258	1072426	47001	110015	0	0	8167	531189	0	0
2024-09-11 13:21:47			0	38455	0	0	0	26989	25610	154072	27362	1072435	47001	110006	0	0	8168	530808	0	0
2024-09-11 13:22:47			0	38446	0	0	0	26974	25610	154080	27326	1072327	47001	110000	0	0	8168	531151	0	0
2024-09-11 13:23:47			0	38454	0	0	0	26981	25610	154076	27338	1072408	47012	110003	0	0	8168	530846	0	0
2024-09-11 13:24:47			0	38439	0	0	0	26992	25600	154096	27450	1072336	47011	110007	0	0	8167	531448	0	0
2024-09-11 13:25:47			0	38479	0	0	0	26961	25600	153920	27345	1072309	47011	109995	0	0	8170	529926	0	0
2024-09-11 13:26:47			0	38470	0	0	0	26958	25600	153976	27313	1072309	46990	109994	0	0	8169	530268	0	0
2024-09-11 13:27:47			0	38456	0	0	0	26963	25600	153928	27114	1072336	47000	109996	0	0	8168	530800	0	0
2024-09-11 13:28:47			0	38465	0	0	0	26976	25590	153976	27609	1072291	46988	110001	0	0	8169	530488	0	0
2024-09-11 13:29:47			0	38477	0	0	0	26981	25600	153992	27336	1072273	46989	110003	0	0	8169	530002	0	0
2024-09-11 13:30:47			0	38503	0	0	0	26984	25590	153988	27345	1072282	47009	110004	0	0	8171	529044	0	0
2024-09-11 13:31:47			0	38487	0	0	0	26974	25600	153884	27379	1072309	47000	110000	0	0	8170	529622	0	0
2024-09-11 13:32:47			0	38497	0	0	0	26974	25590	153932	27296	1072318	46999	110000	0	0	8170	529272	0	0
2024-09-11 13:33:47			0	38517	0	0	0	26968	25590	153828	27230	1072318	46999	109998	0	0	8172	528512	0	0
2024-09-11 13:34:47			0	38487	0	0	0	26976	25590	153856	27175	1072291	46999	110001	0	0	8170	529652	0	0
2024-09-11 13:35:47			0	38492	0	0	0	26979	25590	153932	27260	1072238	46988	110002	0	0	8170	529462	0	0
2024-09-11 13:36:47			0	38496	0	0	0	26976	25580	153980	27213	1072210	46987	110001	0	0	8170	529340	0	0
2024-09-11 13:37:47			0	38508	0	0	0	26981	25580	153868	27216	1072237	46987	110003	0	0	8171	528884	0	0
2024-09-11 13:38:47			0	38523	0	0	0	26976	25590	153864	27159	1072282	47009	110001	0	0	8172	528285	0	0
2024-09-11 13:39:47			0	38528	0	0	0	27005	25590	153796	27443	1072282	47009	110012	0	0	8172	528095	0	0
2024-09-11 13:40:47			0	38563	0	0	0	26994	25590	153772	26923	1072309	46999	110008	0	0	8174	526768	0	0
2024-09-11 13:41:47			0	38560	0	0	0	27002	25590	153708	27327	1072264	47009	110011	0	0	8174	526882	0	0
2024-09-11 13:42:47			0	38574	0	0	0	26971	25590	153620	27095	1072318	47009	109999	0	0	8175	526351	0	0
2024-09-11 13:43:47			0	38571	0	0	0	26968	25600	153564	27325	1072327	47000	109998	0	0	8175	526435	0	0
2024-09-11 13:44:47			0	38573	0	0	0	26971	25580	153652	27268	1072246	46999	109999	0	0	8175	526419	0	0
2024-09-11 13:45:47			0	38582	0	0	0	26974	25590	153516	27128	1072291	46988	110000	0	0	8175	526049	0	0
2024-09-11 13:46:47			0	38583	0	0	0	26976	25590	153584	27583	1072309	46988	110001	0	0	8175	526011	0	0
2024-09-11 13:47:47			0	38592	0	0	0	26976	25590	153508	27190	1072282	46999	110001	0	0	8176	525670	0	0
2024-09-11 13:48:47			0	38593	0	0	0	26976	25580	153596	27443	1072237	46998	110001	0	0	8176	525662	0	0
2024-09-11 13:49:47			0	38597	0	0	0	26981	25600	153600	27324	1072273	47000	110003	0	0	8176	525451	0	0
2024-09-11 13:50:47			0	38604	0	0	0	26979	25580	153592	27249	1072246	47009	110002	0	0	8177	525246	0	0
2024-09-11 13:51:47			0	38601	0	0	0	27023	25590	153600	27301	1072318	47009	110019	0	0	8176	525330	0	0
2024-09-11 13:52:47			0	38616	0	0	0	26997	25580	153484	27398	1072354	47009	110009	0	0	8177	524793	0	0
2024-09-11 13:53:47			0	38599	0	0	0	27015	25590	153428	27277	1072309	47009	110016	0	0	8176	525406	0	0
2024-09-11 13:54:47			0	38614	0	0	0	26999	25600	153508	27204	1072336	47000	110010	0	0	8177	524809	0	0
2024-09-11 13:55:47			0	38612	0	0	0	27007	25600	153368	27499	1072354	46989	110013	0	0	8177	524884	0	0
2024-09-11 13:56:47			0	38631	0	0	0	27018	25600	153272	27357	1072470	47000	110017	0	0	8177	524166	0	0
2024-09-11 13:57:47			0	38646	0	0	0	27028	25610	153372	27203	1072452	47001	110021	0	0	8178	523570	0	0
2024-09-11 13:58:47			0	38623	0	0	0	27028	25600	153272	27206	1072434	47010	110021	0	0	8177	524468	0	0
2024-09-11 13:59:47			0	38647	0	0	0	27036	25610	153376	27022	1072452	46991	110024	0	0	8178	523533	0	0
2024-09-11 14:00:47			0	38651	0	0	0	27046	25620	153264	26989	1072587	47002	110028	0	0	8178	523352	0	0
2024-09-11 14:01:47			0	38653	0	0	0	27051	25610	153196	27223	1072569	47001	110030	0	0	8178	523306	0	0
2024-09-11 14:02:47			0	38655	0	0	0	27033	25620	153264	27374	1072587	47025	110023	0	0	8179	523201	0	0
2024-09-11 14:03:47			0	38678	0	0	0	27023	25620	153176	27031	1072533	47013	110019	0	0	8180	522334	0	0
2024-09-11 14:04:47			0	38687	0	0	0	27007	25630	153136	27300	1072471	47003	110013	0	0	8181	521965	0	0
2024-09-11 14:05:47			0	38698	0	0	0	27020	25630	153168	27232	1072551	47003	110018	0	0	8181	521551	0	0
2024-09-11 14:06:47			0	38659	0	0	0	27012	25630	153160	27383	1072551	46993	110015	0	0	8179	523020	0	0
2024-09-11 14:07:47			0	38671	0	0	0	27018	25620	153160	27327	1072560	47002	110017	0	0	8180	522598	0	0
2024-09-11 14:08:47			0	38667	0	0	0	27028	25620	153168	27140	1072551	47012	110021	0	0	8179	522748	0	0
2024-09-11 14:09:47			0	38679	0	0	0	27036	25630	153136	27248	1072578	46993	110024	0	0	8180	522266	0	0
2024-09-11 14:10:47			0	38667	0	0	0	27033	25640	153100	27154	1072614	47003	110023	0	0	8179	522689	0	0
2024-09-11 14:11:47			0	38683	0	0	0	27015	25630	153196	27301	1072524	47003	110016	0	0	8181	522116	0	0
2024-09-11 14:12:47			0	38658	0	0	0	27018	25630	153168	27467	1072542	46993	110017	0	0	8179	523058	0	0
2024-09-11 14:13:47			0	38662	0	0	0	27005	25630	153152	27306	1072578	46993	110012	0	0	8180	522907	0	0
2024-09-11 14:14:47			0	38649	0	0	0	27005	25620	153192	27138	1072560	46992	110012	0	0	8179	523427	0	0
2024-09-11 14:15:47			0	38668	0	0	0	27010	25630	153248	27189	1072471	47003	110014	0	0	8180	522681	0	0
2024-09-11 14:16:47			0	38665	0	0	0	27005	25620	153240	27123	1072506	47002	110012	0	0	8180	522824	0	0
2024-09-11 14:17:47			0	38651	0	0	0	27002	25620	153272	27308	1072426	47002	110011	0	0	8179	523352	0	0
2024-09-11 14:18:47			0	38655	0	0	0	27007	25630	153296	27393	1072462	47003	110013	0	0	8179	523171	0	0
2024-09-11 14:19:47			0	38654	0	0	0	26994	25620	153264	27530	1072506	46992	110008	0	0	8179	523239	0	0
2024-09-11 14:20:47			0	38637	0	0	0	26997	25620	153260	27419	1072417	46979	110009	0	0	8178	523880	0	0
2024-09-11 14:21:47			0	38658	0	0	0	27002	25620	153304	27564	1072426	47002	110011	0	0	8179	523088	0	0
2024-09-11 14:22:47			0	38674	0	0	0	27002	25620	153320	27419	1072444	46991	110011	0	0	8180	522485	0	0
2024-09-11 14:23:47			0	38641	0	0	0	27007	25610	153152	27213	1072435	47001	110013	0	0	8178	523759	0	0
2024-09-11 14:24:47			0	38649	0	0	0	27002	25610	153292	27086	1072426	46991	110011	0	0	8179	523457	0	0
2024-09-11 14:25:47			0	38681	0	0	0	27007	25610	153164	27121	1072372	46991	110013	0	0	8181	522250	0	0
2024-09-11 14:26:47			0	38665	0	0	0	27015	25610	153180	27189	1072399	46991	110016	0	0	8180	522853	0	0
2024-09-11 14:27:47			0	38695	0	0	0	27025	25610	153136	27414	1072435	46991	110020	0	0	8181	521723	0	0
2024-09-11 14:28:47			0	38676	0	0	0	27025	25610	153268	27168	1072435	46991	110020	0	0	8180	522439	0	0
2024-09-11 14:29:47			0	38659	0	0	0	27007	25610	153168	26960	1072515	47012	110013	0	0	8179	523080	0	0
2024-09-11 14:30:47			0	38686	0	0	0	27012	25610	153224	27170	1072452	47001	110015	0	0	8181	522062	0	0
2024-09-11 14:31:47			0	38653	0	0	0	27020	25610	153280	27308	1072435	47001	110018	0	0	8179	523306	0	0
2024-09-11 14:32:47			0	38683	0	0	0	27015	25610	153216	27377	1072435	46991	110016	0	0	8181	522175	0	0
2024-09-11 14:33:47			0	38660	0	0	0	27023	25610	153112	27306	1072461	47001	110019	0	0	8179	523042	0	0
2024-09-11 14:34:47			0	38665	0	0	0	27012	25610	153272	27190	1072435	46991	110015	0	0	8180	522853	0	0
2024-09-11 14:35:47			0	38683	0	0	0	27020	25620	153156	27124	1072497	46991	110018	0	0	8181	522145	0	0
2024-09-11 14:36:47			0	38678	0	0	0	26994	25610	153228	27019	1072515	47001	110008	0	0	8181	522363	0	0
2024-09-11 14:37:47			0	38653	0	0	0	27002	25620	153200	27218	1072444	46991	110011	0	0	8179	523276	0	0
2024-09-11 14:38:47			0	38672	0	0	0	27007	25610	153188	27067	1072435	47012	110013	0	0	8180	522590	0	0
2024-09-11 14:39:47			0	38684	0	0	0	26989	25610	153152	27083	1072408	47012	110006	0	0	8181	522138	0	0
2024-09-11 14:40:47			0	38677	0	0	0	26999	25610	153268	27119	1072408	46979	110010	0	0	8181	522401	0	0
2024-09-11 14:41:47			0	38663	0	0	0	26976	25610	153252	27402	1072372	47012	110001	0	0	8180	522929	0	0
2024-09-11 14:42:47			0	38645	0	0	0	26976	25620	153324	27235	1072497	47012	110001	0	0	8179	523578	0	0
2024-09-11 14:43:47			0	38644	0	0	0	26974	25600	153308	27512	1072363	46990	110000	0	0	8179	523676	0	0
2024-09-11 14:44:47			0	38640	0	0	0	26976	25600	153264	27448	1072309	47000	110001	0	0	8179	523827	0	0
2024-09-11 14:45:47			0	38633	0	0	0	26976	25600	153392	27274	1072390	46990	110001	0	0	8178	524091	0	0
2024-09-11 14:46:47			0	38639	0	0	0	26986	25590	153420	27256	1072336	46999	110005	0	0	8178	523894	0	0
2024-09-11 14:47:47			0	38633	0	0	0	26979	25590	153308	27076	1072291	46999	110002	0	0	8178	524121	0	0
2024-09-11 14:48:47			0	38650	0	0	0	26968	25590	153320	27332	1072372	46988	109998	0	0	8179	523479	0	0
2024-09-11 14:49:47			0	38640	0	0	0	26976	25590	153400	27613	1072336	46999	110001	0	0	8179	523856	0	0
2024-09-11 14:50:47			0	38619	0	0	0	26979	25580	153352	27377	1072300	46976	110002	0	0	8177	524679	0	0
2024-09-11 14:51:47			0	38635	0	0	0	26984	25580	153416	27329	1072291	46975	110004	0	0	8178	524075	0	0
2024-09-11 14:52:47			0	38626	0	0	0	26981	25590	153328	27429	1072282	46999	110003	0	0	8178	524385	0	0
2024-09-11 14:53:47			0	38636	0	0	0	26979	25590	153496	27332	1072318	46988	110002	0	0	8178	524007	0	0
2024-09-11 14:54:47			0	38635	0	0	0	26992	25590	153384	27279	1072336	47009	110007	0	0	8178	524045	0	0
2024-09-11 14:55:47			0	38622	0	0	0	27002	25570	153468	27537	1072300	46997	110011	0	0	8177	524596	0	0
2024-09-11 14:56:47			0	38632	0	0	0	26999	25590	153388	27566	1072363	46999	110010	0	0	8178	524158	0	0
2024-09-11 14:57:47			0	38629	0	0	0	27010	25580	153456	27225	1072327	47009	110014	0	0	8177	524301	0	0
2024-09-11 14:58:47			0	38645	0	0	0	27012	25600	153420	27343	1072327	47010	110015	0	0	8178	523638	0	0
2024-09-11 14:59:47			0	38659	0	0	0	27007	25590	153200	27372	1072372	46999	110013	0	0	8179	523139	0	0
2024-09-11 15:00:47			0	38667	0	0	0	27059	25600	153252	27362	1072390	47023	110033	0	0	8179	522808	0	0
2024-09-11 15:01:47			0	38652	0	0	0	27135	25600	153420	27398	1072515	47010	110062	0	0	8177	523374	0	0
2024-09-11 15:02:47			0	38711	0	0	0	27127	25610	153184	27267	1072596	47024	110059	0	0	8180	521121	0	0
2024-09-11 15:03:47			0	38761	0	0	0	27155	25630	153073	27112	1072730	47037	110070	0	0	8183	519182	0	0
2024-09-11 15:04:47			0	38791	0	0	0	27155	25630	152773	27588	1072793	47026	110070	0	0	8184	518057	0	0
2024-09-11 15:05:47			0	38824	0	0	0	27158	25650	152677	27383	1072874	47028	110071	0	0	8186	516761	0	0
2024-09-11 15:06:47			0	38838	0	0	0	27163	25670	152561	27261	1072910	47030	110073	0	0	8187	516179	0	0
2024-09-11 15:07:47			0	38851	0	0	0	27153	25670	152473	27428	1072910	47030	110069	0	0	8188	515692	0	0
2024-09-11 15:08:47			0	38863	0	0	0	27158	25680	152513	27338	1072982	47019	110071	0	0	8189	515215	0	0
2024-09-11 15:09:47			0	38861	0	0	0	27135	25690	152425	27367	1073036	47021	110062	0	0	8189	515260	0	0
2024-09-11 15:10:47			0	38869	0	0	0	27142	25700	152481	27379	1073027	47033	110065	0	0	8190	514932	0	0
2024-09-11 15:11:47			0	38858	0	0	0	27145	25700	152429	27421	1072974	47021	110066	0	0	8189	515343	0	0
2024-09-11 15:12:47			0	38858	0	0	0	27142	25700	152385	27556	1073027	47021	110065	0	0	8189	515343	0	0
2024-09-11 15:13:47			0	38848	0	0	0	27145	25710	152409	27395	1073036	47000	110066	0	0	8188	515687	0	0
2024-09-11 15:14:47			0	38855	0	0	0	27140	25700	152441	27628	1073054	47010	110064	0	0	8189	515455	0	0
2024-09-11 15:15:47			0	38862	0	0	0	27129	25720	152405	27388	1073055	47023	110060	0	0	8189	515135	0	0
2024-09-11 15:16:47			0	38862	0	0	0	27129	25720	152389	27282	1073081	47012	110060	0	0	8189	515135	0	0
2024-09-11 15:17:47			0	38877	0	0	0	27129	25720	152517	27301	1073064	47012	110060	0	0	8190	514575	0	0
2024-09-11 15:18:47			0	38844	0	0	0	27129	25710	152577	27355	1073099	47001	110060	0	0	8188	515837	0	0
2024-09-11 15:19:47			0	38831	0	0	0	27140	25730	152525	27157	1073073	47002	110064	0	0	8187	516264	0	0
2024-09-11 15:20:47			0	38817	0	0	0	27155	25720	152565	27253	1073055	47023	110070	0	0	8186	516817	0	0
2024-09-11 15:21:47			0	38824	0	0	0	27158	25730	152525	27310	1073126	47013	110071	0	0	8187	516526	0	0
2024-09-11 15:22:47			0	38844	0	0	0	27153	25730	152577	27434	1073135	47014	110069	0	0	8188	515778	0	0
2024-09-11 15:23:47			0	38829	0	0	0	27140	25730	152429	27440	1073135	47014	110064	0	0	8187	516339	0	0
2024-09-11 15:24:47			0	38845	0	0	0	27142	25740	152541	27329	1073144	47003	110065	0	0	8188	515711	0	0
2024-09-11 15:25:47			0	38848	0	0	0	27142	25740	152453	27313	1073144	47003	110065	0	0	8188	515599	0	0
2024-09-11 15:26:47			0	38837	0	0	0	27153	25750	152577	27407	1073198	47005	110069	0	0	8188	515981	0	0
2024-09-11 15:27:47			0	38838	0	0	0	27153	25750	152457	27415	1073162	47015	110069	0	0	8188	515944	0	0
2024-09-11 15:28:47			0	38836	0	0	0	27171	25740	152513	27374	1073180	47015	110076	0	0	8187	516048	0	0
2024-09-11 15:29:47			0	38885	0	0	0	27192	25750	152297	27421	1073225	47016	110084	0	0	8190	514188	0	0
2024-09-11 15:30:47			0	38907	0	0	0	27233	25760	152181	27597	1073234	47028	110100	0	0	8190	513338	0	0
2024-09-11 15:31:47			0	38914	0	0	0	27205	25760	152189	27805	1073342	47028	110089	0	0	8191	513077	0	0
2024-09-11 15:32:47			0	38919	0	0	0	27215	25780	152113	27402	1073449	47030	110093	0	0	8191	512832	0	0
2024-09-11 15:33:47			0	38947	0	0	0	27192	25790	152081	27471	1073387	47031	110084	0	0	8194	511761	0	0
2024-09-11 15:34:47			0	38927	0	0	0	27192	25780	152137	27183	1073405	47031	110084	0	0	8192	512535	0	0
2024-09-11 15:35:47			0	38923	0	0	0	27218	25800	152085	27528	1073432	47020	110094	0	0	8192	512625	0	0
2024-09-11 15:36:47			0	38933	0	0	0	27202	25810	152093	27320	1073450	47033	110088	0	0	8193	512224	0	0
2024-09-11 15:37:47			0	38959	0	0	0	27244	25810	151961	27189	1073477	47033	110104	0	0	8193	511256	0	0
2024-09-11 15:38:47			0	39017	0	0	0	27264	25810	151877	27317	1073557	47033	110112	0	0	8196	509102	0	0
2024-09-11 15:39:47			0	39013	0	0	0	27267	25810	151885	27157	1073647	47034	110113	0	0	8196	509250	0	0
2024-09-11 15:40:47			0	39047	0	0	0	27262	25820	151733	27355	1073629	47044	110111	0	0	8198	507961	0	0
2024-09-11 15:41:47			0	39041	0	0	0	27298	25820	151689	27478	1073683	47011	110125	0	0	8197	508183	0	0
2024-09-11 15:42:47			0	39069	0	0	0	27280	25840	151537	27402	1073755	47037	110118	0	0	8199	507089	0	0
2024-09-11 15:43:47			0	39086	0	0	0	27296	25840	151429	27007	1073809	47047	110124	0	0	8200	506460	0	0
2024-09-11 15:44:47			0	39112	0	0	0	27298	25850	151389	27434	1073800	47026	110125	0	0	8201	505470	0	0
2024-09-11 15:45:47			0	39096	0	0	0	27293	25850	151349	27542	1073818	47037	110123	0	0	8201	506061	0	0
2024-09-11 15:46:47			0	39090	0	0	0	27306	25860	151265	27222	1073782	47016	110128	0	0	8200	506254	0	0
2024-09-11 15:47:47			0	39135	0	0	0	27301	25870	151209	27433	1073863	47028	110126	0	0	8203	504564	0	0
2024-09-11 15:48:47			0	39147	0	0	0	27288	25880	151273	27611	1073926	47041	110121	0	0	8204	504092	0	0
2024-09-11 15:49:47			0	39145	0	0	0	27280	25880	151141	27705	1073872	47029	110118	0	0	8204	504166	0	0
2024-09-11 15:50:47			0	39152	0	0	0	27272	25870	151185	27443	1073809	47017	110115	0	0	8204	503937	0	0
2024-09-11 15:51:47			0	39126	0	0	0	27277	25880	151217	27592	1073926	47018	110117	0	0	8203	504867	0	0
2024-09-11 15:52:47			0	39116	0	0	0	27277	25880	151253	27602	1073765	47018	110117	0	0	8202	505236	0	0
2024-09-11 15:53:47			0	39105	0	0	0	27298	25880	151269	27486	1073791	47029	110125	0	0	8201	505642	0	0
2024-09-11 15:54:47			0	39113	0	0	0	27332	25870	151353	27606	1073782	47028	110138	0	0	8201	505376	0	0
2024-09-11 15:55:47			0	39115	0	0	0	27309	25880	151345	27244	1073908	47018	110129	0	0	8202	505273	0	0
2024-09-11 15:56:47			0	39142	0	0	0	27306	25870	151145	27452	1073800	47039	110128	0	0	8203	504306	0	0
2024-09-11 15:57:47			0	39161	0	0	0	27296	25870	151185	27282	1073890	46995	110124	0	0	8204	503605	0	0
2024-09-11 15:58:47			0	39160	0	0	0	27280	25880	151073	27265	1073845	47029	110118	0	0	8205	503613	0	0
2024-09-11 15:59:47			0	39158	0	0	0	27290	25880	151125	26993	1073872	47041	110122	0	0	8204	503687	0	0
2024-09-11 16:00:47			0	39140	0	0	0	27288	25880	151133	27178	1073845	47018	110121	0	0	8203	504351	0	0
2024-09-11 16:01:47			0	39135	0	0	0	27301	25880	151201	27277	1073899	47041	110126	0	0	8203	504535	0	0
2024-09-11 16:02:47			0	39145	0	0	0	27293	25880	151221	27376	1073845	47029	110123	0	0	8204	504166	0	0
2024-09-11 16:03:47			0	39133	0	0	0	27298	25880	151165	27046	1073872	47029	110125	0	0	8203	504609	0	0
2024-09-11 16:04:47			0	39125	0	0	0	27298	25880	151201	27407	1073872	47041	110125	0	0	8202	504904	0	0
2024-09-11 16:05:47			0	39121	0	0	0	27293	25880	151205	27320	1073881	47018	110123	0	0	8202	505052	0	0
2024-09-11 16:06:47			0	39156	0	0	0	27303	25890	151153	27015	1073917	47041	110127	0	0	8204	503732	0	0
2024-09-11 16:07:47			0	39139	0	0	0	27303	25880	151153	27447	1073908	47018	110127	0	0	8203	504387	0	0
2024-09-11 16:08:47			0	39152	0	0	0	27311	25900	151093	27379	1073989	47042	110130	0	0	8204	503851	0	0
2024-09-11 16:09:47			0	39144	0	0	0	27327	25890	151157	27204	1073890	47041	110136	0	0	8203	504174	0	0
2024-09-11 16:10:47			0	39150	0	0	0	27335	25890	151117	27414	1073998	47019	110139	0	0	8203	503953	0	0
2024-09-11 16:11:47			0	39191	0	0	0	27332	25900	151025	27150	1074051	47042	110138	0	0	8206	502414	0	0
2024-09-11 16:12:47			0	39201	0	0	0	27319	25900	150873	27043	1073998	47042	110133	0	0	8206	502046	0	0
2024-09-11 16:13:47			0	39184	0	0	0	27329	25910	150913	26850	1074007	47032	110137	0	0	8205	502643	0	0
2024-09-11 16:14:47			0	39207	0	0	0	27345	25900	150777	27031	1074025	47031	110143	0	0	8206	501826	0	0
2024-09-11 16:15:47			0	39224	0	0	0	27355	25910	150685	27187	1074061	47032	110147	0	0	8207	501172	0	0
2024-09-11 16:16:47			0	39256	0	0	0	27350	25910	150681	27168	1074096	47032	110145	0	0	8209	499997	0	0
2024-09-11 16:17:47			0	39281	0	0	0	27366	25930	150637	27128	1074178	47034	110151	0	0	8210	499024	0	0
2024-09-11 16:18:47			0	39266	0	0	0	27358	25920	150585	27157	1074213	47033	110148	0	0	8210	499602	0	0
2024-09-11 16:19:47			0	39281	0	0	0	27342	25920	150445	27043	1074195	47045	110142	0	0	8211	499052	0	0
2024-09-11 16:20:47			0	39273	0	0	0	27350	25930	150477	27334	1074160	47056	110145	0	0	8210	499317	0	0
2024-09-11 16:21:47			0	39273	0	0	0	27298	25920	150525	27161	1074142	47045	110125	0	0	8211	499345	0	0
2024-09-11 16:22:47			0	39237	0	0	0	27296	25920	150629	27156	1074034	47034	110124	0	0	8209	500666	0	0
2024-09-11 16:23:47			0	39221	0	0	0	27319	25930	150773	27033	1074124	47034	110133	0	0	8208	501226	0	0
2024-09-11 16:24:47			0	39201	0	0	0	27345	25920	150741	27471	1074088	47045	110143	0	0	8206	501989	0	0
2024-09-11 16:25:47			0	39210	0	0	0	27285	25930	150769	27086	1074097	47034	110120	0	0	8208	501630	0	0
2024-09-11 16:26:47			0	39184	0	0	0	27301	25930	150829	27287	1074070	47012	110126	0	0	8206	502586	0	0
2024-09-11 16:27:47			0	39190	0	0	0	27316	25930	150973	27168	1074070	47034	110132	0	0	8206	502365	0	0
2024-09-11 16:28:47			0	39186	0	0	0	27277	25940	150865	27230	1074088	47024	110117	0	0	8206	502484	0	0
2024-09-11 16:29:47			0	39155	0	0	0	27264	25920	150905	27386	1074008	47034	110112	0	0	8205	503683	0	0
2024-09-11 16:30:47			0	39132	0	0	0	27283	25910	151025	27064	1073989	47010	110119	0	0	8203	504559	0	0
2024-09-11 16:31:47			0	39115	0	0	0	27249	25910	151125	27189	1073926	47021	110106	0	0	8203	505187	0	0
2024-09-11 16:32:47			0	39109	0	0	0	27314	25910	151209	27050	1073962	47032	110131	0	0	8201	505408	0	0
2024-09-11 16:33:47			0	39080	0	0	0	27314	25900	151285	27415	1073971	47020	110131	0	0	8200	506509	0	0
2024-09-11 16:34:47			0	39092	0	0	0	27296	25900	151093	27336	1073998	47031	110124	0	0	8201	506065	0	0
2024-09-11 16:35:47			0	39114	0	0	0	27267	25910	151085	27343	1073953	47043	110113	0	0	8202	505224	0	0
2024-09-11 16:36:47			0	39111	0	0	0	27259	25910	151125	27480	1074007	47021	110110	0	0	8202	505334	0	0
2024-09-11 16:37:47			0	39107	0	0	0	27246	25910	151093	27147	1073953	47032	110105	0	0	8202	505482	0	0
2024-09-11 16:38:47			0	39058	0	0	0	27244	25900	151193	27348	1073908	47009	110104	0	0	8199	507323	0	0
2024-09-11 16:39:47			0	39048	0	0	0	27251	25880	151337	27164	1073854	47018	110107	0	0	8199	507750	0	0
2024-09-11 16:40:47			0	39034	0	0	0	27262	25890	151473	27277	1073863	47030	110111	0	0	8198	508240	0	0
2024-09-11 16:41:47			0	39058	0	0	0	27262	25890	151397	27402	1073872	47019	110111	0	0	8199	507351	0	0
2024-09-11 16:42:47			0	39039	0	0	0	27267	25900	151413	27085	1073935	47020	110113	0	0	8198	508026	0	0
2024-09-11 16:43:47			0	39047	0	0	0	27249	25880	151445	27362	1073801	47018	110106	0	0	8199	507787	0	0
2024-09-11 16:44:47			0	39041	0	0	0	27262	25880	151505	27371	1073818	47007	110111	0	0	8198	508010	0	0
2024-09-11 16:45:47			0	39047	0	0	0	27241	25880	151529	27024	1073845	47018	110103	0	0	8199	507787	0	0
2024-09-11 16:46:47			0	39025	0	0	0	27246	25880	151521	26847	1073818	47018	110105	0	0	8197	508602	0	0
2024-09-11 16:47:47			0	39038	0	0	0	27236	25870	151461	26977	1073756	47017	110101	0	0	8198	508150	0	0
2024-09-11 16:48:47			0	39036	0	0	0	27238	25870	151481	26939	1073809	47028	110102	0	0	8198	508224	0	0
2024-09-11 16:49:47			0	39026	0	0	0	27272	25860	151493	26786	1073755	47016	110115	0	0	8197	508623	0	0
2024-09-11 16:50:47			0	39023	0	0	0	27251	25870	151461	27218	1073747	47027	110107	0	0	8197	508706	0	0
2024-09-11 16:51:47			0	39021	0	0	0	27251	25870	151449	27229	1073809	47028	110107	0	0	8197	508780	0	0
2024-09-11 16:52:47			0	39034	0	0	0	27264	25870	151509	26892	1073782	47040	110112	0	0	8198	508298	0	0
2024-09-11 16:53:47			0	39039	0	0	0	27257	25860	151469	27370	1073702	47039	110109	0	0	8198	508142	0	0
2024-09-11 16:54:47			0	39046	0	0	0	27244	25870	151401	26909	1073800	47016	110104	0	0	8199	507853	0	0
2024-09-11 16:55:47			0	39035	0	0	0	27241	25870	151489	27358	1073827	47027	110103	0	0	8198	508261	0	0
2024-09-11 16:56:47			0	39039	0	0	0	27249	25870	151541	27034	1073747	47016	110106	0	0	8198	508113	0	0
2024-09-11 16:57:47			0	39039	0	0	0	27272	25860	151417	27211	1073791	47027	110115	0	0	8198	508142	0	0
2024-09-11 16:58:47			0	39074	0	0	0	27290	25860	151473	27291	1073809	47039	110122	0	0	8199	506846	0	0
2024-09-11 16:59:47			0	39080	0	0	0	27309	25870	151229	27168	1073863	47040	110129	0	0	8200	506595	0	0
2024-09-11 17:00:47			0	39112	0	0	0	27267	25870	151229	27187	1073908	47027	110113	0	0	8202	505413	0	0
2024-09-11 17:01:47			0	39101	0	0	0	27301	25880	151225	27642	1073899	47041	110126	0	0	8201	505790	0	0
2024-09-11 17:02:47			0	39132	0	0	0	27311	25870	151161	27154	1073917	47040	110130	0	0	8202	504674	0	0
2024-09-11 17:03:47			0	39158	0	0	0	27283	25870	151005	26871	1073890	47040	110119	0	0	8204	503716	0	0
2024-09-11 17:04:47			0	39146	0	0	0	27259	25880	151069	27265	1073899	47041	110110	0	0	8204	504129	0	0
2024-09-11 17:05:47			0	39122	0	0	0	27262	25880	151245	27251	1073881	47029	110111	0	0	8203	505015	0	0
2024-09-11 17:06:47			0	39095	0	0	0	27254	25880	151157	27140	1073827	47029	110108	0	0	8201	506012	0	0
2024-09-11 17:07:47			0	39093	0	0	0	27264	25870	151325	27428	1073836	47017	110112	0	0	8201	506115	0	0
2024-09-11 17:08:47			0	39107	0	0	0	27290	25870	151281	27319	1073863	47028	110122	0	0	8201	505597	0	0
2024-09-11 17:09:47			0	39105	0	0	0	27298	25870	151161	27234	1073809	47028	110125	0	0	8201	505671	0	0
2024-09-11 17:10:47			0	39124	0	0	0	27306	25880	151169	27232	1073899	47041	110128	0	0	8202	504941	0	0
2024-09-11 17:11:47			0	39127	0	0	0	27316	25880	151073	27412	1073962	47029	110132	0	0	8202	504830	0	0
2024-09-11 17:12:47			0	39177	0	0	0	27342	25880	150933	27263	1074015	47029	110142	0	0	8205	502987	0	0
2024-09-11 17:13:47			0	39216	0	0	0	27353	25900	150741	27166	1074105	47053	110146	0	0	8207	501495	0	0
2024-09-11 17:14:47			0	39283	0	0	0	27368	25890	150653	27402	1074007	47041	110152	0	0	8210	499064	0	0
2024-09-11 17:15:47			0	39311	0	0	0	27386	25910	150565	27459	1074168	47065	110159	0	0	8212	497982	0	0
2024-09-11 17:16:47			0	39361	0	0	0	27386	25910	150269	27474	1074177	47043	110159	0	0	8214	496153	0	0
2024-09-11 17:17:47			0	39394	0	0	0	27384	25910	150165	27473	1074231	47065	110158	0	0	8216	494949	0	0
2024-09-11 17:18:47			0	39425	0	0	0	27384	25930	150094	27156	1074240	47056	110158	0	0	8218	493762	0	0
2024-09-11 17:19:47			0	39422	0	0	0	27353	25930	150078	27345	1074213	47045	110146	0	0	8219	493871	0	0
2024-09-11 17:20:47			0	39401	0	0	0	27376	25940	150133	27223	1074249	47046	110155	0	0	8217	494609	0	0
2024-09-11 17:21:47			0	39407	0	0	0	27368	25940	150110	27282	1074249	47046	110152	0	0	8218	494390	0	0
2024-09-11 17:22:47			0	39425	0	0	0	27376	25940	150078	26859	1074258	47047	110155	0	0	8218	493734	0	0
2024-09-11 17:23:47			0	39430	0	0	0	27379	25940	149946	27242	1074232	47037	110156	0	0	8219	493552	0	0
2024-09-11 17:24:47			0	39454	0	0	0	27379	25940	149966	26963	1074258	47047	110156	0	0	8220	492678	0	0
2024-09-11 17:25:47			0	39448	0	0	0	27381	25950	149986	27192	1074268	47037	110157	0	0	8220	492869	0	0
2024-09-11 17:26:47			0	39450	0	0	0	27373	25950	149970	27060	1074277	47037	110154	0	0	8220	492796	0	0
2024-09-11 17:27:47			0	39451	0	0	0	27358	25950	150054	26991	1074303	47037	110148	0	0	8220	492760	0	0
2024-09-11 17:28:47			0	39444	0	0	0	27371	25950	149990	27261	1074277	47025	110153	0	0	8220	493014	0	0
2024-09-11 17:29:47			0	39436	0	0	0	27355	25950	149942	27095	1074250	47037	110147	0	0	8219	493305	0	0
2024-09-11 17:30:47			0	39428	0	0	0	27348	25940	150002	27183	1074258	47025	110144	0	0	8219	493625	0	0
2024-09-11 17:31:47			0	39417	0	0	0	27329	25940	149877	27251	1074151	47037	110137	0	0	8219	494026	0	0
2024-09-11 17:32:47			0	39394	0	0	0	27311	25950	150001	27284	1074196	47025	110130	0	0	8218	494836	0	0
2024-09-11 17:33:47			0	39385	0	0	0	27293	25940	150165	27229	1074115	47024	110123	0	0	8218	495192	0	0
2024-09-11 17:34:47			0	39316	0	0	0	27303	25940	150349	27173	1074088	47013	110127	0	0	8213	497713	0	0
2024-09-11 17:35:47			0	39307	0	0	0	27270	25930	150365	27246	1074133	47034	110114	0	0	8213	498071	0	0
2024-09-11 17:36:47			0	39287	0	0	0	27272	25930	150381	27317	1074043	47023	110115	0	0	8212	498804	0	0
2024-09-11 17:37:47			0	39268	0	0	0	27285	25920	150613	27187	1073944	47011	110120	0	0	8211	499529	0	0
2024-09-11 17:38:47			0	39238	0	0	0	27309	25920	150645	27170	1073971	47011	110129	0	0	8209	500630	0	0
2024-09-11 17:39:47			0	39247	0	0	0	27309	25920	150617	27431	1074052	47033	110129	0	0	8209	500299	0	0
2024-09-11 17:40:47			0	39280	0	0	0	27311	25910	150717	26934	1074007	47032	110130	0	0	8211	499117	0	0
2024-09-11 17:41:47			0	39278	0	0	0	27306	25910	150529	27154	1073989	47021	110128	0	0	8211	499191	0	0
2024-09-11 17:42:47			0	39259	0	0	0	27311	25910	150669	27156	1074070	47032	110130	0	0	8210	499887	0	0
2024-09-11 17:43:47			0	39264	0	0	0	27306	25910	150533	27287	1074034	47032	110128	0	0	8210	499704	0	0
2024-09-11 17:44:47			0	39277	0	0	0	27298	25910	150593	26817	1074034	47021	110125	0	0	8211	499227	0	0
2024-09-11 17:45:47			0	39276	0	0	0	27288	25910	150565	26805	1074034	47032	110121	0	0	8211	499264	0	0
2024-09-11 17:46:47			0	39240	0	0	0	27309	25900	150809	27093	1073962	47020	110129	0	0	8209	500613	0	0
2024-09-11 17:47:47			0	39237	0	0	0	27322	25900	150637	27150	1074016	47042	110134	0	0	8208	500723	0	0
2024-09-11 17:48:47			0	39248	0	0	0	27296	25890	150661	27194	1073953	47030	110124	0	0	8209	500348	0	0
2024-09-11 17:49:47			0	39252	0	0	0	27277	25900	150685	27277	1073944	47031	110117	0	0	8210	500173	0	0
2024-09-11 17:50:47			0	39189	0	0	0	27280	25890	150901	27130	1073980	47019	110118	0	0	8206	502517	0	0
2024-09-11 17:51:47			0	39165	0	0	0	27257	25890	150873	27249	1073899	47019	110109	0	0	8205	503400	0	0
2024-09-11 17:52:47			0	39145	0	0	0	27254	25890	151029	27280	1073890	47019	110108	0	0	8204	504137	0	0
2024-09-11 17:53:47			0	39128	0	0	0	27241	25880	151049	27287	1073827	47018	110103	0	0	8203	504793	0	0
2024-09-11 17:54:47			0	39095	0	0	0	27223	25870	151217	27445	1073747	47016	110096	0	0	8202	506041	0	0
2024-09-11 17:55:47			0	39073	0	0	0	27207	25860	151281	27003	1073684	46994	110090	0	0	8201	506883	0	0
2024-09-11 17:56:47			0	39021	0	0	0	27205	25860	151381	27345	1073711	47027	110089	0	0	8198	508809	0	0
2024-09-11 17:57:47			0	39000	0	0	0	27192	25860	151525	27197	1073594	47016	110084	0	0	8197	509588	0	0
2024-09-11 17:58:47			0	38991	0	0	0	27202	25840	151561	27185	1073594	47003	110088	0	0	8196	509980	0	0
2024-09-11 17:59:47			0	38972	0	0	0	27225	25850	151641	27419	1073657	47014	110097	0	0	8195	510657	0	0
2024-09-11 18:00:47			0	38996	0	0	0	27218	25850	151605	26889	1073657	47014	110094	0	0	8196	509765	0	0
2024-09-11 18:01:47			0	38963	0	0	0	27228	25850	151609	27133	1073710	47014	110098	0	0	8194	510991	0	0
2024-09-11 18:02:47			0	38969	0	0	0	27241	25830	151621	27026	1073710	47024	110103	0	0	8194	510826	0	0
2024-09-11 18:03:47			0	38981	0	0	0	27254	25830	151689	26998	1073630	47024	110108	0	0	8195	510380	0	0
2024-09-11 18:04:47			0	38974	0	0	0	27257	25830	151729	27261	1073683	47036	110109	0	0	8194	510640	0	0
2024-09-11 18:05:47			0	38983	0	0	0	27277	25840	151689	27239	1073701	47037	110117	0	0	8194	510277	0	0
2024-09-11 18:06:47			0	38980	0	0	0	27283	25850	151657	27229	1073800	47038	110119	0	0	8194	510359	0	0
2024-09-11 18:07:47			0	38990	0	0	0	27275	25850	151845	26873	1073764	47037	110116	0	0	8195	509988	0	0
2024-09-11 18:08:47			0	38985	0	0	0	27285	25850	151721	27083	1073773	47038	110120	0	0	8194	510174	0	0
2024-09-11 18:09:47			0	38969	0	0	0	27296	25860	151741	27315	1073836	47039	110124	0	0	8193	510739	0	0
2024-09-11 18:10:47			0	38967	0	0	0	27311	25860	151749	27118	1073890	47027	110130	0	0	8193	510813	0	0
2024-09-11 18:11:47			0	38985	0	0	0	27309	25860	151709	27197	1073899	47027	110129	0	0	8194	510145	0	0
2024-09-11 18:12:47			0	38974	0	0	0	27314	25870	151709	27424	1073881	47049	110131	0	0	8193	510524	0	0
2024-09-11 18:13:47			0	38982	0	0	0	27311	25870	151737	26963	1073881	47049	110130	0	0	8194	510227	0	0
2024-09-11 18:14:47			0	38973	0	0	0	27324	25870	151713	27145	1073917	47040	110135	0	0	8193	510561	0	0
2024-09-11 18:15:47			0	38976	0	0	0	27322	25880	151661	27229	1073926	47051	110134	0	0	8193	510421	0	0
2024-09-11 18:16:47			0	38955	0	0	0	27335	25880	151769	27093	1073988	47051	110139	0	0	8192	511201	0	0
2024-09-11 18:17:47			0	38964	0	0	0	27335	25890	151709	26830	1074024	47063	110139	0	0	8193	510837	0	0
2024-09-11 18:18:47			0	38981	0	0	0	27342	25890	151793	26765	1074078	47041	110142	0	0	8193	510206	0	0
2024-09-11 18:19:47			0	38975	0	0	0	27342	25900	151801	27107	1074105	47042	110142	0	0	8193	510400	0	0
2024-09-11 18:20:47			0	38966	0	0	0	27345	25900	151633	26961	1074051	47031	110143	0	0	8193	510734	0	0
2024-09-11 18:21:47			0	38943	0	0	0	27348	25900	151713	27263	1074105	47042	110144	0	0	8191	511589	0	0
2024-09-11 18:22:47			0	38958	0	0	0	27363	25900	151865	26830	1074150	47031	110150	0	0	8192	511031	0	0
2024-09-11 18:23:47			0	38956	0	0	0	27355	25910	151761	26856	1074150	47043	110147	0	0	8192	511076	0	0
2024-09-11 18:24:47			0	38964	0	0	0	27363	25920	151733	27140	1074132	47033	110150	0	0	8192	510750	0	0
2024-09-11 18:25:47			0	38955	0	0	0	27384	25920	151733	27131	1074213	47055	110158	0	0	8191	511084	0	0
2024-09-11 18:26:47			0	38961	0	0	0	27389	25930	151793	26916	1074213	47045	110160	0	0	8192	510832	0	0
2024-09-11 18:27:47			0	38952	0	0	0	27386	25920	151809	27059	1074249	47034	110159	0	0	8191	511196	0	0
2024-09-11 18:28:47			0	38956	0	0	0	27392	25930	151769	27222	1074187	47034	110161	0	0	8191	511018	0	0
2024-09-11 18:29:47			0	38961	0	0	0	27379	25940	151729	26982	1074303	47046	110156	0	0	8192	510803	0	0
2024-09-11 18:30:47			0	38964	0	0	0	27389	25930	151829	27282	1074321	47045	110160	0	0	8192	510721	0	0
2024-09-11 18:31:47			0	38950	0	0	0	27399	25950	151785	27255	1074268	47047	110164	0	0	8191	511183	0	0
2024-09-11 18:32:47			0	38964	0	0	0	27394	25950	151853	27249	1074303	47058	110162	0	0	8192	510663	0	0
2024-09-11 18:33:47			0	38962	0	0	0	27392	25960	151801	26859	1074393	47038	110161	0	0	8192	510708	0	0
2024-09-11 18:34:47			0	38966	0	0	0	27389	25950	151821	26984	1074268	47037	110160	0	0	8192	510588	0	0
2024-09-11 18:35:47			0	38962	0	0	0	27397	25950	151805	27403	1074348	47037	110163	0	0	8192	510737	0	0
2024-09-11 18:36:47			0	38959	0	0	0	27405	25960	151821	27230	1074402	47049	110166	0	0	8191	510819	0	0
2024-09-11 18:37:47			0	38949	0	0	0	27399	25960	151833	27060	1074474	47048	110164	0	0	8191	511191	0	0
2024-09-11 18:38:47			0	38963	0	0	0	27397	25960	151857	27071	1074429	47038	110163	0	0	8192	510671	0	0
2024-09-11 18:39:47			0	38960	0	0	0	27407	25970	151917	27000	1074411	47027	110167	0	0	8191	510753	0	0
2024-09-11 18:40:47			0	38957	0	0	0	27407	25970	151721	26861	1074447	47050	110167	0	0	8191	510864	0	0
2024-09-11 18:41:47			0	38963	0	0	0	27392	25970	151757	27272	1074465	47038	110161	0	0	8192	510642	0	0
2024-09-11 18:42:47			0	38959	0	0	0	27389	25970	151817	27019	1074420	47050	110160	0	0	8192	510790	0	0
2024-09-11 18:43:47			0	38944	0	0	0	27397	25980	151777	27241	1074376	47028	110163	0	0	8191	511318	0	0
2024-09-11 18:44:47			0	38945	0	0	0	27412	25970	151893	27173	1074411	47038	110169	0	0	8190	511310	0	0
2024-09-11 18:45:47			0	38932	0	0	0	27410	25970	151809	27168	1074420	47050	110168	0	0	8190	511794	0	0
2024-09-11 18:46:47			0	38956	0	0	0	27399	25980	151841	27196	1074537	47040	110164	0	0	8191	510873	0	0
2024-09-11 18:47:47			0	38949	0	0	0	27412	25980	151781	26996	1074456	47061	110169	0	0	8191	511133	0	0
2024-09-11 18:48:47			0	38940	0	0	0	27423	25980	151721	27036	1074492	47051	110173	0	0	8190	511467	0	0
2024-09-11 18:49:47			0	38950	0	0	0	27425	25990	151749	27034	1074501	47063	110174	0	0	8191	511066	0	0
2024-09-11 18:50:47			0	38946	0	0	0	27412	25990	151785	27319	1074528	47041	110169	0	0	8191	511215	0	0
2024-09-11 18:51:47			0	38957	0	0	0	27410	25990	151693	27038	1074510	47052	110168	0	0	8191	510806	0	0
2024-09-11 18:52:47			0	38944	0	0	0	27407	25980	151769	27268	1074546	47029	110167	0	0	8191	511318	0	0
2024-09-11 18:53:47			0	38958	0	0	0	27407	25990	151765	26930	1074510	47052	110167	0	0	8191	510769	0	0
2024-09-11 18:54:47			0	38949	0	0	0	27410	25990	151785	26942	1074537	47041	110168	0	0	8191	511103	0	0
2024-09-11 18:55:47			0	38940	0	0	0	27407	25990	151769	27149	1074474	47052	110167	0	0	8190	511438	0	0
2024-09-11 18:56:47			0	38949	0	0	0	27412	25990	151769	27072	1074555	47041	110169	0	0	8191	511103	0	0
2024-09-11 18:57:47			0	38933	0	0	0	27405	25990	151857	26783	1074537	47041	110166	0	0	8190	511698	0	0
2024-09-11 18:58:47			0	38939	0	0	0	27399	25990	151785	26963	1074537	47030	110164	0	0	8190	511475	0	0
2024-09-11 18:59:47			0	38927	0	0	0	27402	25980	151805	27150	1074492	47041	110165	0	0	8190	511951	0	0
2024-09-11 19:00:47			0	38933	0	0	0	27412	25990	151905	27270	1074528	47052	110169	0	0	8190	511698	0	0
2024-09-11 19:01:47			0	38926	0	0	0	27405	25990	151837	27163	1074430	47041	110166	0	0	8190	511959	0	0
2024-09-11 19:02:47			0	38912	0	0	0	27415	25990	151917	26963	1074510	47041	110170	0	0	8189	512480	0	0
2024-09-11 19:03:47			0	38915	0	0	0	27407	25990	151921	27027	1074564	47041	110167	0	0	8189	512368	0	0
2024-09-11 19:04:47			0	38894	0	0	0	27402	26000	151829	27272	1074465	47052	110165	0	0	8188	513121	0	0
2024-09-11 19:05:47			0	38913	0	0	0	27402	25980	151945	27076	1074492	47041	110165	0	0	8189	512472	0	0
2024-09-11 19:06:47			0	38904	0	0	0	27402	25990	151865	27178	1074447	47041	110165	0	0	8188	512778	0	0
2024-09-11 19:07:47			0	38894	0	0	0	27402	25990	151973	27206	1074483	47052	110165	0	0	8188	513150	0	0
2024-09-11 19:08:47			0	38915	0	0	0	27402	25990	152025	27135	1074447	47063	110165	0	0	8189	512368	0	0
2024-09-11 19:09:47			0	38896	0	0	0	27399	25990	152017	26611	1074501	47052	110164	0	0	8188	513075	0	0
2024-09-11 19:10:47			0	38910	0	0	0	27394	25990	151937	27163	1074564	47041	110162	0	0	8189	512554	0	0
2024-09-11 19:11:47			0	38902	0	0	0	27394	25990	151945	27272	1074555	47052	110162	0	0	8188	512852	0	0
2024-09-11 19:12:47			0	38898	0	0	0	27397	25990	151953	27043	1074528	47030	110163	0	0	8188	513001	0	0
2024-09-11 19:13:47			0	38908	0	0	0	27397	25990	151929	27365	1074501	47030	110163	0	0	8189	512629	0	0
2024-09-11 19:14:47			0	38890	0	0	0	27384	25980	152041	26871	1074510	47040	110158	0	0	8188	513328	0	0
2024-09-11 19:15:47			0	38887	0	0	0	27397	25990	152009	27277	1074510	47041	110163	0	0	8188	513411	0	0
2024-09-11 19:16:47			0	38878	0	0	0	27397	25990	152001	27112	1074456	47041	110163	0	0	8187	513746	0	0
2024-09-11 19:17:47			0	38877	0	0	0	27389	25990	152069	27204	1074501	47041	110160	0	0	8187	513783	0	0
2024-09-11 19:18:47			0	38877	0	0	0	27397	25980	152017	27100	1074438	47041	110163	0	0	8187	513813	0	0
2024-09-11 19:19:47			0	38874	0	0	0	27389	25980	152001	26838	1074492	47051	110160	0	0	8187	513925	0	0
2024-09-11 19:20:47			0	38849	0	0	0	27389	25990	152033	26902	1074447	47030	110160	0	0	8185	514828	0	0
2024-09-11 19:21:47			0	38860	0	0	0	27394	25980	152065	27043	1074465	47029	110162	0	0	8186	514447	0	0
2024-09-11 19:22:47			0	38850	0	0	0	27394	25980	152085	27039	1074429	47028	110162	0	0	8185	514820	0	0
2024-09-11 19:23:47			0	38854	0	0	0	27394	25990	152097	27046	1074474	47030	110162	0	0	8186	514641	0	0
2024-09-11 19:24:47			0	38861	0	0	0	27386	25980	152133	27078	1074483	47050	110159	0	0	8186	514409	0	0
2024-09-11 19:25:47			0	38839	0	0	0	27384	25980	152161	27033	1074510	47040	110158	0	0	8185	515231	0	0
2024-09-11 19:26:47			0	38845	0	0	0	27386	25980	152149	27185	1074411	47051	110159	0	0	8185	515007	0	0
2024-09-11 19:27:47			0	38846	0	0	0	27386	25970	152197	27069	1074501	47028	110159	0	0	8185	514999	0	0
2024-09-11 19:28:47			0	38845	0	0	0	27386	25980	152201	26802	1074429	47050	110159	0	0	8185	515007	0	0
2024-09-11 19:29:47			0	38849	0	0	0	27386	25970	152221	26769	1074474	47040	110159	0	0	8185	514887	0	0
2024-09-11 19:30:47			0	38834	0	0	0	27389	25980	152349	26958	1074429	47040	110160	0	0	8185	515417	0	0
2024-09-11 19:31:47			0	38850	0	0	0	27384	25980	152209	26724	1074456	47040	110158	0	0	8186	514820	0	0
2024-09-11 19:32:47			0	38838	0	0	0	27381	25980	152133	26779	1074456	47050	110157	0	0	8185	515268	0	0
2024-09-11 19:33:47			0	38828	0	0	0	27389	25970	152317	26956	1074420	47040	110160	0	0	8184	515671	0	0
2024-09-11 19:34:47			0	38846	0	0	0	27386	25970	152297	27003	1074384	47038	110159	0	0	8185	514999	0	0
2024-09-11 19:35:47			0	38813	0	0	0	27381	25970	152269	27178	1074438	47038	110157	0	0	8183	516232	0	0
2024-09-11 19:36:47			0	38825	0	0	0	27384	25980	152329	27086	1074358	47029	110158	0	0	8184	515753	0	0
2024-09-11 19:37:47			0	38834	0	0	0	27379	25970	152297	27244	1074366	47028	110156	0	0	8185	515447	0	0
2024-09-11 19:38:47			0	38827	0	0	0	27386	25970	152321	27118	1074447	47040	110159	0	0	8184	515708	0	0
2024-09-11 19:39:47			0	38833	0	0	0	27381	25970	152241	27074	1074393	47028	110157	0	0	8185	515484	0	0
2024-09-11 19:40:47			0	38821	0	0	0	27379	25970	152349	27180	1074384	47038	110156	0	0	8184	515932	0	0
2024-09-11 19:41:47			0	38818	0	0	0	27366	25960	152317	27249	1074375	47027	110151	0	0	8184	516074	0	0
2024-09-11 19:42:47			0	38817	0	0	0	27371	25970	152297	27019	1074340	47040	110153	0	0	8184	516082	0	0
2024-09-11 19:43:47			0	38809	0	0	0	27368	25960	152297	26771	1074375	47038	110152	0	0	8183	516411	0	0
2024-09-11 19:44:47			0	38813	0	0	0	27368	25960	152305	27043	1074402	47049	110152	0	0	8184	516261	0	0
2024-09-11 19:45:47			0	38804	0	0	0	27368	25970	152281	26896	1074384	47038	110152	0	0	8183	516568	0	0
2024-09-11 19:46:47			0	38798	0	0	0	27368	25960	152309	27156	1074321	47049	110152	0	0	8183	516822	0	0
2024-09-11 19:47:47			0	38825	0	0	0	27363	25960	152381	27293	1074286	47048	110150	0	0	8184	515812	0	0
2024-09-11 19:48:47			0	38809	0	0	0	27361	25960	152297	27168	1074321	47027	110149	0	0	8184	516411	0	0
2024-09-11 19:49:47			0	38809	0	0	0	27355	25960	152369	27036	1074286	47038	110147	0	0	8184	516411	0	0
2024-09-11 19:50:47			0	38810	0	0	0	27353	25960	152397	27130	1074259	47048	110146	0	0	8184	516373	0	0
2024-09-11 19:51:47			0	38815	0	0	0	27353	25950	152301	27395	1074294	47037	110146	0	0	8184	516216	0	0
2024-09-11 19:52:47			0	38820	0	0	0	27345	25950	152377	27038	1074330	47025	110143	0	0	8184	516029	0	0
2024-09-11 19:53:47			0	38826	0	0	0	27348	25950	152237	26974	1074268	47037	110144	0	0	8185	515804	0	0
2024-09-11 19:54:47			0	38801	0	0	0	27342	25960	152277	27180	1074366	47038	110142	0	0	8183	516710	0	0
2024-09-11 19:55:47			0	38797	0	0	0	27335	25950	152249	27256	1074241	47037	110139	0	0	8183	516889	0	0
2024-09-11 19:56:47			0	38804	0	0	0	27340	25950	152333	27177	1074214	47037	110141	0	0	8184	516627	0	0
2024-09-11 19:57:47			0	38798	0	0	0	27348	25940	152397	27346	1074232	47025	110144	0	0	8183	516881	0	0
2024-09-11 19:58:47			0	38795	0	0	0	27350	25950	152325	27098	1074268	47025	110145	0	0	8183	516964	0	0
2024-09-11 19:59:47			0	38797	0	0	0	27345	25940	152409	27204	1074249	47035	110143	0	0	8183	516918	0	0
2024-09-11 20:00:47			0	38775	0	0	0	27342	25930	152457	27199	1074240	47034	110142	0	0	8182	517771	0	0
2024-09-11 20:01:47			0	38784	0	0	0	27345	25940	152393	27485	1074276	47024	110143	0	0	8182	517405	0	0
2024-09-11 20:02:47			0	38791	0	0	0	27332	25940	152397	27284	1074232	47047	110138	0	0	8183	517143	0	0
2024-09-11 20:03:47			0	38810	0	0	0	27329	25940	152373	27140	1074169	47035	110137	0	0	8184	516432	0	0
2024-09-11 20:04:47			0	38788	0	0	0	27319	25920	152413	27279	1074115	47023	110133	0	0	8183	517314	0	0
2024-09-11 20:05:47			0	38776	0	0	0	27322	25920	152405	27218	1074169	47045	110134	0	0	8182	517763	0	0
2024-09-11 20:06:47			0	38774	0	0	0	27309	25930	152465	27246	1074178	47023	110129	0	0	8182	517809	0	0
2024-09-11 20:07:47			0	38757	0	0	0	27306	25920	152529	27227	1074169	47034	110128	0	0	8181	518475	0	0
2024-09-11 20:08:47			0	38760	0	0	0	27311	25920	152613	27206	1074105	47022	110130	0	0	8181	518363	0	0
2024-09-11 20:09:47			0	38756	0	0	0	27324	25920	152517	27445	1074088	47034	110135	0	0	8181	518513	0	0
2024-09-11 20:10:47			0	38733	0	0	0	27311	25910	152613	26981	1074123	47032	110130	0	0	8180	519405	0	0
2024-09-11 20:11:47			0	38739	0	0	0	27303	25900	152565	27173	1074078	47042	110127	0	0	8180	519210	0	0
2024-09-11 20:12:47			0	38761	0	0	0	27306	25910	152553	27483	1074016	47032	110128	0	0	8181	518355	0	0
2024-09-11 20:13:47			0	38711	0	0	0	27311	25900	152580	27388	1074025	47031	110130	0	0	8178	520261	0	0
2024-09-11 20:14:47			0	38735	0	0	0	27306	25910	152585	27251	1074070	47032	110128	0	0	8180	519330	0	0
2024-09-11 20:15:47			0	38725	0	0	0	27306	25900	152764	27133	1074025	47009	110128	0	0	8179	519735	0	0
2024-09-11 20:16:47			0	38717	0	0	0	27311	25900	152664	27230	1074105	47031	110130	0	0	8179	520036	0	0
2024-09-11 20:17:47			0	38749	0	0	0	27309	25900	152701	27204	1074025	47020	110129	0	0	8181	518835	0	0
2024-09-11 20:18:47			0	38735	0	0	0	27324	25910	152729	27142	1074034	47043	110135	0	0	8180	519330	0	0
2024-09-11 20:19:47			0	38747	0	0	0	27314	25900	152673	27307	1074051	47042	110131	0	0	8180	518909	0	0
2024-09-11 20:20:47			0	38740	0	0	0	27309	25910	152541	26811	1074070	47043	110129	0	0	8180	519143	0	0
2024-09-11 20:21:47			0	38751	0	0	0	27309	25910	152541	27268	1074061	47043	110129	0	0	8181	518730	0	0
2024-09-11 20:22:47			0	38744	0	0	0	27303	25900	152589	26963	1074016	47042	110127	0	0	8181	519022	0	0
2024-09-11 20:23:47			0	38752	0	0	0	27288	25900	152561	26854	1074096	47031	110121	0	0	8181	518722	0	0
2024-09-11 20:24:47			0	38741	0	0	0	27301	25900	152609	27173	1074051	47020	110126	0	0	8180	519135	0	0
2024-09-11 20:25:47			0	38742	0	0	0	27296	25890	152625	26948	1073971	47041	110124	0	0	8180	519127	0	0
2024-09-11 20:26:47			0	38742	0	0	0	27298	25900	152645	27045	1073989	47042	110125	0	0	8180	519097	0	0
2024-09-11 20:27:47			0	38738	0	0	0	27296	25890	152673	27118	1074007	47030	110124	0	0	8180	519277	0	0
2024-09-11 20:28:47			0	38731	0	0	0	27303	25890	152721	27036	1073980	47052	110127	0	0	8180	519540	0	0
2024-09-11 20:29:47			0	38727	0	0	0	27306	25890	152689	27192	1074033	47041	110128	0	0	8179	519690	0	0
2024-09-11 20:30:47			0	38746	0	0	0	27288	25880	152669	27339	1073935	47051	110121	0	0	8181	519006	0	0
2024-09-11 20:31:47			0	38728	0	0	0	27306	25870	152705	27258	1073944	47028	110128	0	0	8179	519711	0	0
2024-09-11 20:32:47			0	38712	0	0	0	27290	25890	152744	26946	1074007	47041	110122	0	0	8179	520253	0	0
2024-09-11 20:33:47			0	38707	0	0	0	27280	25890	152736	27258	1073953	47041	110118	0	0	8179	520441	0	0
2024-09-11 20:34:47			0	38712	0	0	0	27275	25880	152732	27377	1073979	47018	110116	0	0	8179	520283	0	0
2024-09-11 20:35:47			0	38692	0	0	0	27288	25880	152832	27076	1073979	47029	110121	0	0	8178	521034	0	0
2024-09-11 20:36:47			0	38711	0	0	0	27306	25880	152740	27017	1073908	47051	110128	0	0	8178	520320	0	0
2024-09-11 20:37:47			0	38697	0	0	0	27298	25880	152876	27218	1074015	47041	110125	0	0	8178	520846	0	0
2024-09-11 20:38:47			0	38699	0	0	0	27303	25880	152840	27008	1073962	47041	110127	0	0	8178	520771	0	0
2024-09-11 20:39:47			0	38698	0	0	0	27309	25880	152888	27013	1074042	47029	110129	0	0	8178	520809	0	0
2024-09-11 20:40:47			0	38693	0	0	0	27314	25880	152888	27201	1073988	47029	110131	0	0	8177	520997	0	0
2024-09-11 20:41:47			0	38681	0	0	0	27309	25890	152776	27140	1074024	47041	110129	0	0	8177	521418	0	0
2024-09-11 20:42:47			0	38709	0	0	0	27306	25890	152864	27147	1073980	47030	110128	0	0	8178	520366	0	0
2024-09-11 20:43:47			0	38682	0	0	0	27301	25880	152936	27060	1073988	47051	110126	0	0	8177	521411	0	0
2024-09-11 20:44:47			0	38679	0	0	0	27298	25890	152848	27168	1074007	47030	110125	0	0	8177	521494	0	0
2024-09-11 20:45:47			0	38647	0	0	0	27288	25890	152968	26994	1073971	47041	110121	0	0	8175	522698	0	0
2024-09-11 20:46:47			0	38650	0	0	0	27296	25890	153028	27244	1073998	47041	110124	0	0	8175	522585	0	0
2024-09-11 20:47:47			0	38616	0	0	0	27280	25880	153080	26994	1074069	47018	110118	0	0	8173	523897	0	0
2024-09-11 20:48:47			0	38613	0	0	0	27277	25880	153168	27192	1073988	47029	110117	0	0	8173	524010	0	0
2024-09-11 20:49:47			0	38612	0	0	0	27262	25890	153184	27149	1073917	47030	110111	0	0	8174	524018	0	0
2024-09-11 20:50:47			0	38619	0	0	0	27259	25890	153084	27284	1073917	47019	110110	0	0	8174	523754	0	0
2024-09-11 20:51:47			0	38628	0	0	0	27249	25870	153076	27239	1073836	47017	110106	0	0	8175	523474	0	0
2024-09-11 20:52:47			0	38618	0	0	0	27257	25870	153096	27256	1073863	47028	110109	0	0	8174	523851	0	0
2024-09-11 20:53:47			0	38635	0	0	0	27249	25870	153076	27133	1073800	47016	110106	0	0	8175	523210	0	0
2024-09-11 20:54:47			0	38638	0	0	0	27259	25860	153072	27137	1073836	47049	110110	0	0	8175	523127	0	0
2024-09-11 20:55:47			0	38630	0	0	0	27259	25870	153024	27142	1073827	47039	110110	0	0	8175	523399	0	0
2024-09-11 20:56:47			0	38664	0	0	0	27254	25860	153104	27208	1073845	47039	110108	0	0	8177	522147	0	0
2024-09-11 20:57:47			0	38669	0	0	0	27254	25860	153128	26956	1073836	47039	110108	0	0	8177	521959	0	0
2024-09-11 20:58:47			0	38660	0	0	0	27267	25850	153052	27213	1073773	47026	110113	0	0	8176	522328	0	0
2024-09-11 20:59:47			0	38648	0	0	0	27262	25850	153144	27017	1073800	47038	110111	0	0	8175	522780	0	0
2024-09-11 21:00:47			0	38670	0	0	0	27254	25860	153040	27116	1073809	47049	110108	0	0	8177	521922	0	0
2024-09-11 21:01:47			0	38669	0	0	0	27272	25860	153004	27001	1073845	47027	110115	0	0	8177	521959	0	0
2024-09-11 21:02:47			0	38675	0	0	0	27267	25860	152940	27012	1073782	47039	110113	0	0	8177	521733	0	0
2024-09-11 21:03:47			0	38704	0	0	0	27277	25860	152984	26951	1073863	47049	110117	0	0	8178	520643	0	0
2024-09-11 21:04:47			0	38691	0	0	0	27270	25860	152944	26889	1073809	47039	110114	0	0	8178	521131	0	0
2024-09-11 21:05:47			0	38723	0	0	0	27259	25860	152868	27137	1073845	47027	110110	0	0	8180	519929	0	0
2024-09-11 21:06:47			0	38731	0	0	0	27264	25850	152885	27067	1073854	47048	110112	0	0	8180	519658	0	0
2024-09-11 21:07:47			0	38715	0	0	0	27259	25870	152820	26861	1073881	47039	110110	0	0	8179	520200	0	0
2024-09-11 21:08:47			0	38713	0	0	0	27272	25850	152808	27097	1073854	47038	110115	0	0	8179	520334	0	0
2024-09-11 21:09:47			0	38718	0	0	0	27259	25850	152772	26963	1073800	47038	110110	0	0	8180	520146	0	0
2024-09-11 21:10:47			0	38731	0	0	0	27267	25860	152801	27230	1073836	47027	110113	0	0	8180	519628	0	0
2024-09-11 21:11:47			0	38714	0	0	0	27270	25840	152804	27118	1073836	47025	110114	0	0	8179	520326	0	0
2024-09-11 21:12:47			0	38719	0	0	0	27270	25860	152816	26833	1073863	47027	110114	0	0	8179	520079	0	0
2024-09-11 21:13:47			0	38700	0	0	0	27272	25860	152848	26859	1073890	47039	110115	0	0	8178	520793	0	0
2024-09-11 21:14:47			0	38718	0	0	0	27264	25860	152816	26790	1073809	47039	110112	0	0	8180	520117	0	0
2024-09-11 21:15:47			0	38719	0	0	0	27262	25860	152900	27088	1073845	47039	110111	0	0	8180	520079	0	0
2024-09-11 21:16:47			0	38708	0	0	0	27270	25860	152784	27206	1073809	47039	110114	0	0	8179	520492	0	0
2024-09-11 21:17:47			0	38694	0	0	0	27264	25850	152944	27088	1073827	47015	110112	0	0	8178	521048	0	0
2024-09-11 21:18:47			0	38727	0	0	0	27267	25860	152833	26854	1073809	47027	110113	0	0	8180	519778	0	0
2024-09-11 21:19:47			0	38730	0	0	0	27257	25860	152848	27027	1073836	47039	110109	0	0	8180	519666	0	0
2024-09-11 21:20:47			0	38730	0	0	0	27259	25850	152745	27095	1073827	47038	110110	0	0	8180	519695	0	0
2024-09-11 21:21:47			0	38752	0	0	0	27254	25860	152689	27036	1073890	47027	110108	0	0	8182	518840	0	0
2024-09-11 21:22:47			0	38752	0	0	0	27259	25850	152757	26927	1073827	47038	110110	0	0	8181	518870	0	0
2024-09-11 21:23:47			0	38745	0	0	0	27244	25860	152701	27116	1073755	47027	110104	0	0	8181	519103	0	0
2024-09-11 21:24:47			0	38761	0	0	0	27254	25850	152725	26804	1073818	47014	110108	0	0	8182	518532	0	0
2024-09-11 21:25:47			0	38755	0	0	0	27249	25850	152609	27203	1073764	47025	110106	0	0	8182	518757	0	0
2024-09-11 21:26:47			0	38760	0	0	0	27251	25850	152785	27033	1073773	47026	110107	0	0	8182	518570	0	0
2024-09-11 21:27:47			0	38754	0	0	0	27251	25840	152677	27147	1073755	47037	110107	0	0	8182	518824	0	0
2024-09-11 21:28:47			0	38757	0	0	0	27259	25850	152801	27190	1073773	47015	110110	0	0	8182	518682	0	0
2024-09-11 21:29:47			0	38766	0	0	0	27251	25840	152733	27133	1073755	47037	110107	0	0	8182	518374	0	0
2024-09-11 21:30:47			0	38780	0	0	0	27241	25850	152689	26968	1073764	47037	110103	0	0	8183	517820	0	0
2024-09-11 21:31:47			0	38764	0	0	0	27236	25840	152661	26781	1073728	47025	110101	0	0	8183	518449	0	0
2024-09-11 21:32:47			0	38781	0	0	0	27244	25840	152589	26785	1073746	47024	110104	0	0	8183	517812	0	0
2024-09-11 21:33:47			0	38775	0	0	0	27238	25840	152541	27043	1073728	47025	110102	0	0	8183	518037	0	0
2024-09-11 21:34:47			0	38803	0	0	0	27244	25840	152509	27071	1073746	47013	110104	0	0	8185	516988	0	0
2024-09-11 21:35:47			0	38779	0	0	0	27238	25840	152641	27072	1073728	47025	110102	0	0	8183	517887	0	0
2024-09-11 21:36:47			0	38788	0	0	0	27241	25840	152549	27275	1073746	47024	110103	0	0	8184	517550	0	0
2024-09-11 21:37:47			0	38791	0	0	0	27236	25840	152497	26961	1073675	47037	110101	0	0	8184	517438	0	0
2024-09-11 21:38:47			0	38796	0	0	0	27236	25840	152621	26609	1073701	47025	110101	0	0	8184	517250	0	0
2024-09-11 21:39:47			0	38813	0	0	0	27228	25840	152637	27066	1073701	47025	110098	0	0	8185	516614	0	0
2024-09-11 21:40:47			0	38820	0	0	0	27228	25830	152477	27027	1073647	47023	110098	0	0	8186	516382	0	0
2024-09-11 21:41:47			0	38819	0	0	0	27225	25830	152561	27102	1073647	47012	110097	0	0	8186	516419	0	0
2024-09-11 21:42:47			0	38805	0	0	0	27233	25830	152497	26745	1073674	47023	110100	0	0	8185	516943	0	0
2024-09-11 21:43:47			0	38815	0	0	0	27223	25830	152457	27105	1073683	47024	110096	0	0	8186	516569	0	0
2024-09-11 21:44:47			0	38815	0	0	0	27225	25830	152573	27170	1073630	47036	110097	0	0	8186	516569	0	0
2024-09-11 21:45:47			0	38811	0	0	0	27215	25830	152521	27041	1073621	47012	110093	0	0	8186	516718	0	0
2024-09-11 21:46:47			0	38797	0	0	0	27223	25820	152545	26998	1073656	47034	110096	0	0	8185	517272	0	0
2024-09-11 21:47:47			0	38801	0	0	0	27223	25830	152597	27130	1073630	47024	110096	0	0	8185	517093	0	0
2024-09-11 21:48:47			0	38799	0	0	0	27207	25830	152545	27286	1073540	47012	110090	0	0	8185	517168	0	0
2024-09-11 21:49:47			0	38787	0	0	0	27218	25820	152641	26876	1073611	47035	110094	0	0	8184	517646	0	0
2024-09-11 21:50:47			0	38769	0	0	0	27207	25820	152609	26849	1073576	47022	110090	0	0	8183	518321	0	0
2024-09-11 21:51:47			0	38772	0	0	0	27212	25820	152769	27055	1073656	47011	110092	0	0	8183	518209	0	0
2024-09-11 21:52:47			0	38768	0	0	0	27215	25810	152661	26911	1073620	47034	110093	0	0	8183	518388	0	0
2024-09-11 21:53:47			0	38742	0	0	0	27215	25820	152773	27012	1073602	47022	110093	0	0	8182	519334	0	0
2024-09-11 21:54:47			0	38752	0	0	0	27215	25820	152845	27178	1073602	47034	110093	0	0	8182	518959	0	0
2024-09-11 21:55:47			0	38727	0	0	0	27215	25810	152833	27060	1073540	47044	110093	0	0	8181	519927	0	0
2024-09-11 21:56:47			0	38732	0	0	0	27215	25810	152876	27126	1073557	47043	110093	0	0	8181	519739	0	0
2024-09-11 21:57:47			0	38712	0	0	0	27218	25810	152848	26987	1073584	47021	110094	0	0	8180	520490	0	0
2024-09-11 21:58:47			0	38693	0	0	0	27220	25810	152876	26821	1073557	47021	110095	0	0	8179	521205	0	0
2024-09-11 21:59:47			0	38691	0	0	0	27215	25810	153016	26868	1073540	47034	110093	0	0	8179	521280	0	0
2024-09-11 22:00:47			0	38651	0	0	0	27215	25810	153092	26970	1073557	47021	110093	0	0	8176	522786	0	0
2024-09-11 22:01:47			0	38638	0	0	0	27207	25810	153168	26700	1073557	47033	110090	0	0	8176	523276	0	0
2024-09-11 22:02:47			0	38642	0	0	0	27210	25810	153208	26949	1073584	47033	110091	0	0	8176	523125	0	0
2024-09-11 22:03:47			0	38622	0	0	0	27212	25800	153184	27185	1073575	47033	110092	0	0	8175	523909	0	0
2024-09-11 22:04:47			0	38631	0	0	0	27202	25810	153232	26925	1073531	47033	110088	0	0	8175	523540	0	0
2024-09-11 22:05:47			0	38580	0	0	0	27194	25810	153216	26733	1073593	47022	110085	0	0	8173	525466	0	0
2024-09-11 22:06:47			0	38611	0	0	0	27205	25800	153332	26994	1073495	47033	110089	0	0	8174	524325	0	0
2024-09-11 22:07:47			0	38599	0	0	0	27194	25800	153312	26831	1073548	47021	110085	0	0	8174	524778	0	0
2024-09-11 22:08:47			0	38601	0	0	0	27197	25810	153308	26922	1073486	47034	110086	0	0	8174	524672	0	0
2024-09-11 22:09:47			0	38584	0	0	0	27194	25810	153356	27007	1073450	47021	110085	0	0	8173	525315	0	0
2024-09-11 22:10:47			0	38578	0	0	0	27192	25800	153380	26961	1073485	47042	110084	0	0	8172	525571	0	0
2024-09-11 22:11:47			0	38595	0	0	0	27179	25800	153316	26916	1073432	47020	110079	0	0	8174	524929	0	0
2024-09-11 22:12:47			0	38575	0	0	0	27186	25800	153440	27145	1073405	47020	110082	0	0	8172	525685	0	0
2024-09-11 22:13:47			0	38572	0	0	0	27181	25790	153424	27196	1073414	47008	110080	0	0	8172	525828	0	0
2024-09-11 22:14:47			0	38565	0	0	0	27181	25790	153564	27052	1073476	47031	110080	0	0	8172	526093	0	0
2024-09-11 22:15:47			0	38561	0	0	0	27184	25790	153548	26902	1073449	47041	110081	0	0	8172	526244	0	0
2024-09-11 22:16:47			0	38551	0	0	0	27176	25790	153552	27048	1073423	47019	110078	0	0	8171	526623	0	0
2024-09-11 22:17:47			0	38542	0	0	0	27176	25790	153464	27107	1073414	47008	110078	0	0	8171	526964	0	0
2024-09-11 22:18:47			0	38509	0	0	0	27161	25790	153516	27235	1073333	47031	110072	0	0	8169	528214	0	0
2024-09-11 22:19:47			0	38530	0	0	0	27158	25780	153788	27111	1073369	47007	110071	0	0	8170	527448	0	0
2024-09-11 22:20:47			0	38543	0	0	0	27171	25780	153552	26844	1073396	47018	110076	0	0	8171	526956	0	0
2024-09-11 22:21:47			0	38527	0	0	0	27174	25780	153624	27124	1073396	47030	110077	0	0	8170	527562	0	0
2024-09-11 22:22:47			0	38536	0	0	0	27166	25780	153568	26878	1073378	47019	110074	0	0	8170	527221	0	0
2024-09-11 22:23:47			0	38526	0	0	0	27161	25770	153596	27007	1073386	47029	110072	0	0	8170	527630	0	0
2024-09-11 22:24:47			0	38520	0	0	0	27161	25760	153572	26975	1073377	47029	110072	0	0	8169	527887	0	0
2024-09-11 22:25:47			0	38542	0	0	0	27171	25780	153712	27020	1073378	47041	110076	0	0	8171	526994	0	0
2024-09-11 22:26:47			0	38529	0	0	0	27168	25770	153632	26953	1073333	47029	110075	0	0	8170	527516	0	0
2024-09-11 22:27:47			0	38536	0	0	0	27163	25760	153692	27017	1073351	47029	110073	0	0	8170	527281	0	0
2024-09-11 22:28:47			0	38534	0	0	0	27163	25760	153764	27029	1073342	47016	110073	0	0	8170	527357	0	0
2024-09-11 22:29:47			0	38521	0	0	0	27166	25770	153652	27175	1073386	47006	110074	0	0	8169	527819	0	0
2024-09-11 22:30:47			0	38510	0	0	0	27166	25750	153696	27086	1073279	47016	110074	0	0	8169	528297	0	0
2024-09-11 22:31:47			0	38515	0	0	0	27163	25760	153588	27187	1073288	47016	110073	0	0	8169	528077	0	0
2024-09-11 22:32:47			0	38514	0	0	0	27166	25770	153672	27020	1073306	47006	110074	0	0	8169	528085	0	0
2024-09-11 22:33:47			0	38507	0	0	0	27171	25760	153708	27225	1073324	47017	110076	0	0	8169	528380	0	0
2024-09-11 22:34:47			0	38497	0	0	0	27168	25760	153852	27199	1073315	47016	110075	0	0	8168	528760	0	0
2024-09-11 22:35:47			0	38495	0	0	0	27163	25760	153752	27069	1073324	47017	110073	0	0	8168	528836	0	0
2024-09-11 22:36:47			0	38499	0	0	0	27166	25760	153784	26778	1073261	47028	110074	0	0	8168	528684	0	0
2024-09-11 22:37:47			0	38485	0	0	0	27163	25760	153872	26991	1073377	47029	110073	0	0	8167	529215	0	0
2024-09-11 22:38:47			0	38487	0	0	0	27168	25770	153788	27237	1073306	47029	110075	0	0	8167	529109	0	0
2024-09-11 22:39:47			0	38463	0	0	0	27166	25750	153848	26845	1073279	47028	110074	0	0	8166	530081	0	0
2024-09-11 22:40:47			0	38451	0	0	0	27166	25760	153920	26949	1073342	47028	110074	0	0	8165	530507	0	0
2024-09-11 22:41:47			0	38457	0	0	0	27163	25760	153840	26772	1073404	47029	110073	0	0	8166	530279	0	0
2024-09-11 22:42:47			0	38449	0	0	0	27168	25760	153868	27088	1073351	47006	110075	0	0	8165	530583	0	0
2024-09-11 22:43:47			0	38429	0	0	0	27166	25760	153928	26930	1073324	47029	110074	0	0	8164	531344	0	0
2024-09-11 22:44:47			0	38453	0	0	0	27161	25750	154056	27197	1073279	47028	110072	0	0	8166	530461	0	0
2024-09-11 22:45:47			0	38433	0	0	0	27161	25760	153908	27057	1073261	47028	110072	0	0	8164	531192	0	0
2024-09-11 22:46:47			0	38434	0	0	0	27148	25760	153988	27024	1073288	47016	110067	0	0	8165	531154	0	0
2024-09-11 22:47:47			0	38447	0	0	0	27158	25750	153992	27196	1073243	47027	110071	0	0	8165	530690	0	0
2024-09-11 22:48:47			0	38439	0	0	0	27155	25750	154108	27126	1073279	47016	110070	0	0	8165	530994	0	0
2024-09-11 22:49:47			0	38406	0	0	0	27181	25760	154112	27274	1073342	47016	110080	0	0	8163	532220	0	0
2024-09-11 22:50:47			0	38395	0	0	0	27184	25750	154172	27144	1073333	47039	110081	0	0	8162	532670	0	0
2024-09-11 22:51:47			0	38384	0	0	0	27186	25750	154208	27275	1073386	47039	110082	0	0	8161	533089	0	0
2024-09-11 22:52:47			0	38373	0	0	0	27202	25750	154280	27124	1073297	47027	110088	0	0	8160	533509	0	0
2024-09-11 22:53:47			0	38352	0	0	0	27199	25760	154312	27187	1073324	47040	110087	0	0	8159	534280	0	0
2024-09-11 22:54:47			0	38360	0	0	0	27202	25750	154360	27140	1073413	47039	110088	0	0	8159	534005	0	0
2024-09-11 22:55:47			0	38357	0	0	0	27210	25760	154316	26859	1073342	47028	110091	0	0	8159	534089	0	0
2024-09-11 22:56:47			0	38343	0	0	0	27186	25780	154332	27336	1073369	47030	110082	0	0	8159	534563	0	0
2024-09-11 22:57:47			0	38328	0	0	0	27202	25760	154436	27298	1073404	47029	110088	0	0	8158	535198	0	0
2024-09-11 22:58:47			0	38345	0	0	0	27194	25770	154348	26909	1073360	47029	110085	0	0	8159	534517	0	0
2024-09-11 22:59:47			0	38348	0	0	0	27176	25780	154368	27123	1073405	47041	110078	0	0	8159	534372	0	0
2024-09-11 23:00:47			0	38357	0	0	0	27179	25760	154264	27196	1073458	47029	110079	0	0	8160	534089	0	0
2024-09-11 23:01:47			0	38347	0	0	0	27181	25780	154336	27222	1073449	47030	110080	0	0	8159	534410	0	0
2024-09-11 23:02:47			0	38360	0	0	0	27176	25770	154268	27248	1073360	47017	110078	0	0	8160	533944	0	0
2024-09-11 23:03:47			0	38347	0	0	0	27176	25760	154272	27208	1073404	47040	110078	0	0	8159	534471	0	0
2024-09-11 23:04:47			0	38374	0	0	0	27171	25780	154164	26786	1073396	47041	110076	0	0	8161	533380	0	0
2024-09-11 23:05:47			0	38375	0	0	0	27174	25780	154164	27135	1073396	47030	110077	0	0	8161	533342	0	0
2024-09-11 23:06:47			0	38412	0	0	0	27176	25760	154180	27341	1073368	47028	110078	0	0	8163	531992	0	0
2024-09-11 23:07:47			0	38413	0	0	0	27181	25770	154092	27003	1073360	47040	110080	0	0	8163	531923	0	0
2024-09-11 23:08:47			0	38414	0	0	0	27184	25760	154084	26883	1073368	47016	110081	0	0	8163	531916	0	0
2024-09-11 23:09:47			0	38428	0	0	0	27174	25780	154024	27182	1073458	47031	110077	0	0	8164	531322	0	0
2024-09-11 23:10:47			0	38430	0	0	0	27150	25760	154056	27007	1073404	47017	110068	0	0	8164	531306	0	0
2024-09-11 23:11:47			0	38414	0	0	0	27150	25770	153992	26866	1073306	47006	110068	0	0	8164	531885	0	0
2024-09-11 23:12:47			0	38430	0	0	0	27142	25760	153948	26816	1073377	47017	110065	0	0	8165	531306	0	0
2024-09-11 23:13:47			0	38400	0	0	0	27150	25760	154068	27190	1073288	47016	110068	0	0	8163	532449	0	0
2024-09-11 23:14:47			0	38403	0	0	0	27163	25760	154072	27187	1073297	47017	110073	0	0	8163	532335	0	0
2024-09-11 23:15:47			0	38407	0	0	0	27158	25760	154012	27140	1073315	47005	110071	0	0	8163	532182	0	0
2024-09-11 23:16:47			0	38415	0	0	0	27153	25750	153968	27116	1073189	47004	110069	0	0	8163	531908	0	0
2024-09-11 23:17:47			0	38414	0	0	0	27155	25760	153936	27078	1073288	47016	110070	0	0	8163	531916	0	0
2024-09-11 23:18:47			0	38415	0	0	0	27150	25760	154048	26979	1073288	47039	110068	0	0	8164	531877	0	0
2024-09-11 23:19:47			0	38412	0	0	0	27150	25760	154000	26975	1073342	47028	110068	0	0	8163	531992	0	0
2024-09-11 23:20:47			0	38416	0	0	0	27153	25750	154020	27229	1073243	47015	110069	0	0	8164	531870	0	0
2024-09-11 23:21:47			0	38430	0	0	0	27158	25750	153992	27263	1073252	47039	110071	0	0	8164	531337	0	0
2024-09-11 23:22:47			0	38447	0	0	0	27150	25750	153932	27109	1073306	47028	110068	0	0	8165	530690	0	0
2024-09-11 23:23:47			0	38474	0	0	0	27161	25740	153776	27180	1073288	47027	110072	0	0	8167	529693	0	0
2024-09-11 23:24:47			0	38513	0	0	0	27161	25750	153652	27046	1073270	47015	110072	0	0	8169	528183	0	0
2024-09-11 23:25:47			0	38509	0	0	0	27161	25750	153592	27024	1073270	47015	110072	0	0	8169	528335	0	0
2024-09-11 23:26:47			0	38513	0	0	0	27150	25750	153540	26984	1073279	47028	110068	0	0	8169	528183	0	0
2024-09-11 23:27:47			0	38497	0	0	0	27155	25750	153608	27098	1073270	47027	110070	0	0	8168	528790	0	0
2024-09-11 23:28:47			0	38498	0	0	0	27163	25760	153732	27185	1073342	47016	110073	0	0	8168	528722	0	0
2024-09-11 23:29:47			0	38504	0	0	0	27158	25740	153676	26993	1073234	47038	110071	0	0	8168	528554	0	0
2024-09-11 23:30:47			0	38483	0	0	0	27168	25740	153756	26868	1073288	47027	110075	0	0	8167	529352	0	0
2024-09-11 23:31:47			0	38482	0	0	0	27161	25740	153712	26963	1073207	47027	110072	0	0	8167	529390	0	0
2024-09-11 23:32:47			0	38510	0	0	0	27150	25750	153588	27215	1073297	47027	110068	0	0	8169	528297	0	0
2024-09-11 23:33:47			0	38515	0	0	0	27155	25740	153636	27121	1073207	47027	110070	0	0	8169	528137	0	0
2024-09-11 23:34:47			0	38497	0	0	0	27148	25750	153672	27059	1073306	47039	110067	0	0	8168	528790	0	0
2024-09-11 23:35:47			0	38514	0	0	0	27148	25740	153588	27150	1073234	47027	110067	0	0	8169	528175	0	0
2024-09-11 23:36:47			0	38511	0	0	0	27140	25740	153484	26923	1073234	47027	110064	0	0	8169	528289	0	0
2024-09-11 23:37:47			0	38522	0	0	0	27148	25730	153612	26776	1073243	47025	110067	0	0	8170	527902	0	0
2024-09-11 23:38:47			0	38528	0	0	0	27140	25750	153620	26975	1073225	47028	110064	0	0	8170	527614	0	0
2024-09-11 23:39:47			0	38524	0	0	0	27153	25740	153544	26922	1073279	47003	110069	0	0	8170	527796	0	0
2024-09-11 23:40:47			0	38515	0	0	0	27145	25740	153648	27027	1073261	47015	110066	0	0	8169	528137	0	0
2024-09-11 23:41:47			0	38515	0	0	0	27148	25740	153676	26994	1073261	47015	110067	0	0	8169	528137	0	0
2024-09-11 23:42:47			0	38502	0	0	0	27150	25740	153664	26873	1073234	47015	110068	0	0	8168	528630	0	0
2024-09-11 23:43:47			0	38520	0	0	0	27148	25740	153584	27038	1073207	47015	110067	0	0	8170	527947	0	0
2024-09-11 23:44:47			0	38509	0	0	0	27150	25740	153536	26889	1073234	47027	110068	0	0	8169	528365	0	0
2024-09-11 23:45:47			0	38526	0	0	0	27161	25740	153604	26807	1073261	47038	110072	0	0	8170	527720	0	0
2024-09-11 23:46:47			0	38526	0	0	0	27153	25740	153560	27083	1073252	47025	110069	0	0	8170	527720	0	0
2024-09-11 23:47:47			0	38527	0	0	0	27153	25740	153592	26911	1073305	47014	110069	0	0	8170	527682	0	0
2024-09-11 23:48:47			0	38519	0	0	0	27150	25740	153600	26870	1073261	47015	110068	0	0	8169	527985	0	0
2024-09-11 23:49:47			0	38515	0	0	0	27153	25730	153632	26811	1073243	47025	110069	0	0	8169	528167	0	0
2024-09-11 23:50:47			0	38515	0	0	0	27155	25740	153628	27154	1073261	47027	110070	0	0	8169	528137	0	0
2024-09-11 23:51:47			0	38531	0	0	0	27148	25750	153652	26928	1073216	47015	110067	0	0	8170	527500	0	0
2024-09-11 23:52:47			0	38513	0	0	0	27161	25740	153572	27053	1073207	47015	110072	0	0	8169	528213	0	0
2024-09-11 23:53:47			0	38530	0	0	0	27148	25740	153612	27043	1073252	47025	110067	0	0	8170	527568	0	0
2024-09-11 23:54:47			0	38521	0	0	0	27135	25740	153684	27156	1073252	47014	110062	0	0	8170	527909	0	0
2024-09-11 23:55:47			0	38489	0	0	0	27153	25750	153732	26838	1073270	47015	110069	0	0	8168	529094	0	0
2024-09-11 23:56:47			0	38507	0	0	0	27148	25730	153640	26778	1073216	47014	110067	0	0	8169	528471	0	0
2024-09-11 23:57:47			0	38499	0	0	0	27145	25740	153736	26996	1073279	47014	110066	0	0	8168	528744	0	0
2024-09-11 23:58:47			0	38489	0	0	0	27142	25750	153796	26772	1073270	47027	110065	0	0	8168	529094	0	0
2024-09-11 23:59:47			0	38460	0	0	0	27145	25740	153872	26857	1073225	47014	110066	0	0	8166	530226	0	0
2024-09-12 00:00:47			0	38457	0	0	0	27132	25750	153872	27007	1073270	47015	110061	0	0	8166	530309	0	0
2024-09-12 00:01:47			0	38452	0	0	0	27142	25740	153848	26953	1073198	47014	110065	0	0	8166	530530	0	0
2024-09-12 00:02:47			0	38452	0	0	0	27137	25730	153876	27227	1073216	47025	110063	0	0	8166	530560	0	0
2024-09-12 00:03:47			0	38437	0	0	0	27137	25750	153924	27105	1073216	47015	110063	0	0	8165	531070	0	0
2024-09-12 00:04:47			0	38434	0	0	0	27135	25730	153964	26904	1073162	47014	110062	0	0	8165	531245	0	0
2024-09-12 00:05:47			0	38434	0	0	0	27135	25730	153980	27192	1073189	47025	110062	0	0	8165	531245	0	0
2024-09-12 00:06:47			0	38419	0	0	0	27124	25730	153956	26660	1073207	47013	110058	0	0	8164	531816	0	0
2024-09-12 00:07:47			0	38434	0	0	0	27127	25740	153936	26993	1073171	47014	110059	0	0	8165	531215	0	0
2024-09-12 00:08:47			0	38430	0	0	0	27122	25720	153884	27081	1073198	47012	110057	0	0	8165	531427	0	0
2024-09-12 00:09:47			0	38414	0	0	0	27122	25720	154000	26948	1073144	47012	110057	0	0	8164	532037	0	0
2024-09-12 00:10:47			0	38425	0	0	0	27116	25720	153984	27067	1073171	47012	110055	0	0	8165	531618	0	0
2024-09-12 00:11:47			0	38413	0	0	0	27119	25720	154048	27071	1073135	47012	110056	0	0	8164	532075	0	0
2024-09-12 00:12:47			0	38400	0	0	0	27127	25720	154132	26823	1073171	47012	110059	0	0	8163	532570	0	0
2024-09-12 00:13:47			0	38411	0	0	0	27127	25720	154060	26564	1073117	47023	110059	0	0	8164	532151	0	0
2024-09-12 00:14:47			0	38407	0	0	0	27127	25720	154120	27098	1073108	47023	110059	0	0	8163	532303	0	0
2024-09-12 00:15:47			0	38408	0	0	0	27116	25720	154056	27015	1073216	47012	110055	0	0	8164	532265	0	0
2024-09-12 00:16:47			0	38407	0	0	0	27122	25720	154084	26786	1073108	47023	110057	0	0	8163	532303	0	0
2024-09-12 00:17:47			0	38411	0	0	0	27119	25720	154028	26944	1073108	47023	110056	0	0	8164	532151	0	0
2024-09-12 00:18:47			0	38400	0	0	0	27114	25710	154064	26748	1073153	47023	110054	0	0	8163	532600	0	0
2024-09-12 00:19:47			0	38406	0	0	0	27114	25710	154052	27003	1073063	47022	110054	0	0	8163	532372	0	0
2024-09-12 00:20:47			0	38412	0	0	0	27111	25710	154084	26899	1073090	47011	110053	0	0	8164	532143	0	0
2024-09-12 00:21:47			0	38388	0	0	0	27119	25710	154032	26963	1073099	47023	110056	0	0	8162	533058	0	0
2024-09-12 00:22:47			0	38406	0	0	0	27114	25710	154124	27050	1073063	47011	110054	0	0	8163	532372	0	0
2024-09-12 00:23:47			0	38404	0	0	0	27103	25720	154148	26960	1073108	47012	110050	0	0	8164	532418	0	0
2024-09-12 00:24:47			0	38396	0	0	0	27106	25700	154124	27097	1073081	47010	110051	0	0	8163	532783	0	0
2024-09-12 00:25:47			0	38387	0	0	0	27114	25710	154112	26968	1073090	47011	110054	0	0	8162	533096	0	0
2024-09-12 00:26:47			0	38402	0	0	0	27119	25710	154108	27244	1073117	47011	110056	0	0	8163	532524	0	0
2024-09-12 00:27:47			0	38370	0	0	0	27122	25710	154088	27355	1073063	47011	110057	0	0	8161	533745	0	0
2024-09-12 00:28:47			0	38387	0	0	0	27114	25710	154212	27225	1073126	47023	110054	0	0	8162	533096	0	0
2024-09-12 00:29:47			0	38376	0	0	0	27122	25710	154180	27194	1073090	47000	110057	0	0	8162	533516	0	0
2024-09-12 00:30:47			0	38374	0	0	0	27122	25710	154240	27211	1073126	47023	110057	0	0	8161	533592	0	0
2024-09-12 00:31:47			0	38399	0	0	0	27119	25710	154224	27180	1073144	47011	110056	0	0	8163	532639	0	0
2024-09-12 00:32:47			0	38393	0	0	0	27111	25710	154316	27131	1073090	47034	110053	0	0	8163	532867	0	0
2024-09-12 00:33:47			0	38395	0	0	0	27119	25710	154224	27013	1073126	47012	110056	0	0	8163	532791	0	0
2024-09-12 00:34:47			0	38402	0	0	0	27119	25700	154248	27055	1073108	47021	110056	0	0	8163	532555	0	0
2024-09-12 00:35:47			0	38415	0	0	0	27114	25700	154212	27313	1073135	47021	110054	0	0	8164	532059	0	0
2024-09-12 00:36:47			0	38400	0	0	0	27116	25700	154248	27048	1073108	47010	110055	0	0	8163	532631	0	0
2024-09-12 00:37:47			0	38395	0	0	0	27124	25710	154280	26889	1073090	47011	110058	0	0	8163	532791	0	0
2024-09-12 00:38:47			0	38372	0	0	0	27109	25700	154324	27131	1073072	47021	110052	0	0	8162	533699	0	0
2024-09-12 00:39:47			0	38375	0	0	0	27119	25700	154292	27017	1073081	47010	110056	0	0	8162	533585	0	0
2024-09-12 00:40:47			0	38369	0	0	0	27109	25700	154320	27095	1073081	47010	110052	0	0	8161	533814	0	0
2024-09-12 00:41:47			0	38365	0	0	0	27103	25710	154228	27138	1073090	47034	110050	0	0	8161	533936	0	0
2024-09-12 00:42:47			0	38362	0	0	0	27098	25700	154272	26913	1073108	47010	110048	0	0	8161	534081	0	0
2024-09-12 00:43:47			0	38375	0	0	0	27103	25700	154316	27105	1073027	47010	110050	0	0	8162	533585	0	0
2024-09-12 00:44:47			0	38366	0	0	0	27103	25700	154236	26979	1073081	47010	110050	0	0	8161	533928	0	0
2024-09-12 00:45:47			0	38371	0	0	0	27096	25700	154252	26925	1073018	47000	110047	0	0	8162	533737	0	0
2024-09-12 00:46:47			0	38369	0	0	0	27106	25690	154344	27156	1073063	47021	110051	0	0	8161	533844	0	0
2024-09-12 00:47:47			0	38366	0	0	0	27098	25700	154352	27124	1073072	47021	110048	0	0	8161	533928	0	0
2024-09-12 00:48:47			0	38338	0	0	0	27101	25690	154464	26705	1073063	47010	110049	0	0	8160	535028	0	0
2024-09-12 00:49:47			0	38338	0	0	0	27101	25690	154292	27147	1073063	47010	110049	0	0	8160	535028	0	0
2024-09-12 00:50:47			0	38357	0	0	0	27098	25710	154408	26922	1073063	47022	110048	0	0	8161	534242	0	0
2024-09-12 00:51:47			0	38330	0	0	0	27101	25700	154424	26819	1073045	47021	110049	0	0	8159	535304	0	0
2024-09-12 00:52:47			0	38317	0	0	0	27103	25690	154416	26812	1073090	47033	110050	0	0	8158	535832	0	0
2024-09-12 00:53:47			0	38313	0	0	0	27109	25690	154448	26934	1073000	47020	110052	0	0	8158	535985	0	0
2024-09-12 00:54:47			0	38307	0	0	0	27101	25700	154452	27183	1073045	47010	110049	0	0	8158	536184	0	0
2024-09-12 00:55:47			0	38300	0	0	0	27116	25690	154580	26927	1073090	47010	110055	0	0	8157	536483	0	0
2024-09-12 00:56:47			0	38304	0	0	0	27122	25700	154584	26753	1073081	47021	110057	0	0	8157	536299	0	0
2024-09-12 00:57:47			0	38293	0	0	0	27111	25690	154656	26955	1073036	47021	110053	0	0	8157	536751	0	0
2024-09-12 00:58:47			0	38290	0	0	0	27114	25690	154596	27300	1073063	47021	110054	0	0	8157	536866	0	0
2024-09-12 00:59:47			0	38286	0	0	0	27096	25690	154696	26764	1073090	47021	110047	0	0	8157	537019	0	0
2024-09-12 01:00:47			0	38284	0	0	0	27114	25690	154584	26753	1073063	47033	110054	0	0	8156	537095	0	0
2024-09-12 01:01:47			0	38291	0	0	0	27111	25700	154612	27216	1073027	47033	110053	0	0	8157	536797	0	0
2024-09-12 01:02:47			0	38277	0	0	0	27101	25700	154644	27128	1073054	47021	110049	0	0	8156	537333	0	0
2024-09-12 01:03:47			0	38291	0	0	0	27088	25700	154728	26967	1073054	47021	110044	0	0	8157	536797	0	0
2024-09-12 01:04:47			0	38272	0	0	0	27090	25690	154680	27111	1073000	47009	110045	0	0	8156	537555	0	0
2024-09-12 01:05:47			0	38262	0	0	0	27085	25690	154756	27282	1073009	47021	110043	0	0	8156	537939	0	0
2024-09-12 01:06:47			0	38278	0	0	0	27090	25700	154672	26772	1073018	47021	110045	0	0	8156	537295	0	0
2024-09-12 01:07:47			0	38261	0	0	0	27090	25690	154640	27232	1073027	47020	110045	0	0	8155	537977	0	0
2024-09-12 01:08:47			0	38272	0	0	0	27083	25680	154768	27192	1073036	47008	110042	0	0	8156	537586	0	0
2024-09-12 01:09:47			0	38275	0	0	0	27070	25690	154756	27088	1072982	47033	110037	0	0	8157	537440	0	0
2024-09-12 01:10:47			0	38242	0	0	0	27083	25680	154724	26838	1073036	46998	110042	0	0	8154	538737	0	0
2024-09-12 01:11:47			0	38233	0	0	0	27067	25670	154748	26887	1072963	47018	110036	0	0	8154	539114	0	0
2024-09-12 01:12:47			0	38245	0	0	0	27064	25680	154760	26722	1072928	47019	110035	0	0	8155	538622	0	0
2024-09-12 01:13:47			0	38260	0	0	0	27046	25670	154792	26856	1072865	47018	110028	0	0	8156	538077	0	0
2024-09-12 01:14:47			0	38255	0	0	0	27031	25670	154684	26937	1072839	47007	110022	0	0	8156	538269	0	0
2024-09-12 01:15:47			0	38234	0	0	0	27031	25660	154828	26902	1072784	47005	110022	0	0	8155	539106	0	0
2024-09-12 01:16:47			0	38235	0	0	0	27046	25650	154736	26847	1072766	47005	110028	0	0	8154	539098	0	0
2024-09-12 01:17:47			0	38230	0	0	0	27036	25650	154884	27098	1072802	47016	110024	0	0	8154	539290	0	0
2024-09-12 01:18:47			0	38203	0	0	0	27046	25660	154872	26854	1072838	47005	110028	0	0	8153	540298	0	0
2024-09-12 01:19:47			0	38197	0	0	0	27036	25650	154912	27149	1072820	47005	110024	0	0	8152	540559	0	0
2024-09-12 01:20:47			0	38190	0	0	0	27038	25650	154984	27185	1072802	47005	110025	0	0	8152	540829	0	0
2024-09-12 01:21:47			0	38221	0	0	0	27046	25650	154892	26925	1072766	47005	110028	0	0	8154	539636	0	0
2024-09-12 01:22:47			0	38232	0	0	0	27049	25650	154940	27076	1072766	47005	110029	0	0	8154	539213	0	0
2024-09-12 01:23:47			0	38207	0	0	0	27059	25650	154948	27001	1072793	47016	110033	0	0	8153	540174	0	0
2024-09-12 01:24:47			0	38205	0	0	0	27075	25640	154972	27194	1072811	47004	110039	0	0	8152	540282	0	0
2024-09-12 01:25:47			0	38194	0	0	0	27077	25640	155016	26965	1072811	47015	110040	0	0	8152	540705	0	0
2024-09-12 01:26:47			0	38211	0	0	0	27085	25650	154984	27357	1072856	47028	110043	0	0	8152	540021	0	0
2024-09-12 01:27:47			0	38206	0	0	0	27075	25650	154964	27095	1072856	47016	110039	0	0	8152	540213	0	0
2024-09-12 01:28:47			0	38227	0	0	0	27075	25640	154940	27086	1072891	47015	110039	0	0	8153	539436	0	0
2024-09-12 01:29:47			0	38236	0	0	0	27083	25660	155004	27265	1072865	47016	110042	0	0	8154	539029	0	0
2024-09-12 01:30:47			0	38230	0	0	0	27075	25660	154860	26996	1072901	47017	110039	0	0	8154	539260	0	0
2024-09-12 01:31:47			0	38242	0	0	0	27062	25660	154936	27313	1072820	47029	110034	0	0	8155	538799	0	0
2024-09-12 01:32:47			0	38204	0	0	0	27080	25650	154984	27118	1072856	47005	110041	0	0	8152	540290	0	0
2024-09-12 01:33:47			0	38197	0	0	0	27077	25660	154952	27001	1072892	47005	110040	0	0	8152	540529	0	0
2024-09-12 01:34:47			0	38198	0	0	0	27070	25660	155012	27085	1072865	47028	110037	0	0	8152	540490	0	0
2024-09-12 01:35:47			0	38234	0	0	0	27064	25660	154816	27020	1072892	47005	110035	0	0	8154	539106	0	0
2024-09-12 01:36:47			0	38278	0	0	0	27064	25660	154624	26885	1072892	47016	110035	0	0	8157	537417	0	0
2024-09-12 01:37:47			0	38301	0	0	0	27067	25660	154552	27282	1072874	47006	110036	0	0	8158	536536	0	0
2024-09-12 01:38:47			0	38293	0	0	0	27070	25650	154620	27234	1072883	47005	110037	0	0	8157	536873	0	0
2024-09-12 01:39:47			0	38314	0	0	0	27064	25660	154544	26885	1072892	47005	110035	0	0	8159	536038	0	0
2024-09-12 01:40:47			0	38320	0	0	0	27059	25660	154536	27159	1072892	47016	110033	0	0	8159	535808	0	0
2024-09-12 01:41:47			0	38330	0	0	0	27057	25650	154552	26727	1072820	47005	110032	0	0	8160	535456	0	0
2024-09-12 01:42:47			0	38368	0	0	0	27051	25650	154260	26955	1072874	47005	110030	0	0	8162	534004	0	0
2024-09-12 01:43:47			0	38410	0	0	0	27051	25650	154228	27277	1072793	47005	110030	0	0	8164	532401	0	0
2024-09-12 01:44:47			0	38416	0	0	0	27046	25640	154064	26975	1072757	47015	110028	0	0	8165	532203	0	0
2024-09-12 01:45:47			0	38451	0	0	0	27041	25640	154012	27133	1072730	47015	110026	0	0	8167	530870	0	0
2024-09-12 01:46:47			0	38484	0	0	0	27044	25650	153900	27029	1072748	47016	110027	0	0	8169	529585	0	0
2024-09-12 01:47:47			0	38507	0	0	0	27046	25640	153860	26882	1072811	47004	110028	0	0	8170	528741	0	0
2024-09-12 01:48:47			0	38544	0	0	0	27059	25650	153756	26918	1072793	47016	110033	0	0	8172	527308	0	0
2024-09-12 01:49:47			0	38537	0	0	0	27064	25640	153632	26866	1072811	47015	110035	0	0	8171	527603	0	0
2024-09-12 01:50:47			0	38564	0	0	0	27067	25660	153600	27157	1072865	47016	110036	0	0	8173	526520	0	0
2024-09-12 01:51:47			0	38567	0	0	0	27054	25650	153576	27187	1072829	47016	110031	0	0	8173	526437	0	0
2024-09-12 01:52:47			0	38546	0	0	0	27059	25650	153728	27034	1072856	47016	110033	0	0	8172	527232	0	0
2024-09-12 01:53:47			0	38557	0	0	0	27070	25650	153640	27235	1072766	47028	110037	0	0	8173	526816	0	0
2024-09-12 01:54:47			0	38535	0	0	0	27075	25650	153732	27287	1072820	47016	110039	0	0	8171	527649	0	0
2024-09-12 01:55:47			0	38516	0	0	0	27072	25640	153840	27208	1072811	47004	110038	0	0	8170	528400	0	0
2024-09-12 01:56:47			0	38488	0	0	0	27059	25650	153888	26981	1072883	47005	110033	0	0	8169	529433	0	0
2024-09-12 01:57:47			0	38480	0	0	0	27064	25640	154112	27291	1072838	47015	110035	0	0	8168	529767	0	0
2024-09-12 01:58:47			0	38470	0	0	0	27072	25650	154092	26963	1072829	47016	110038	0	0	8168	530117	0	0
2024-09-12 01:59:47			0	38457	0	0	0	27070	25650	154160	26883	1072820	47016	110037	0	0	8167	530611	0	0
2024-09-12 02:00:47			0	38397	0	0	0	27038	25650	154372	26951	1072820	47005	110025	0	0	8164	532897	0	0
2024-09-12 02:01:47			0	38317	0	0	0	26994	25650	154712	27118	1072793	47005	110008	0	0	8160	535954	0	0
2024-09-12 02:02:47			0	38218	0	0	0	26979	25640	154980	26708	1072668	46993	110002	0	0	8155	539782	0	0
2024-09-12 02:03:47			0	38122	0	0	0	26999	25640	155384	27036	1072668	46981	110010	0	0	8149	543481	0	0
2024-09-12 02:04:47			0	38041	0	0	0	27007	25610	155532	27152	1072569	46991	110013	0	0	8144	546708	0	0
2024-09-12 02:05:47			0	38016	0	0	0	26999	25620	155779	27112	1072632	46991	110010	0	0	8142	547646	0	0
2024-09-12 02:06:47			0	38008	0	0	0	26989	25610	155823	27185	1072623	46991	110006	0	0	8142	547988	0	0
2024-09-12 02:07:47			0	37946	0	0	0	26989	25620	155991	26901	1072551	47001	110006	0	0	8139	550366	0	0
2024-09-12 02:08:47			0	37927	0	0	0	27002	25610	156179	27364	1072560	46991	110011	0	0	8137	551137	0	0
2024-09-12 02:09:47			0	37865	0	0	0	26994	25600	156287	26878	1072524	47000	110008	0	0	8134	553587	0	0
2024-09-12 02:10:47			0	37847	0	0	0	26974	25600	156475	26935	1072542	47022	110000	0	0	8133	554291	0	0
2024-09-12 02:11:47			0	37829	0	0	0	27007	25600	156575	27090	1072569	47010	110013	0	0	8131	554995	0	0
2024-09-12 02:12:47			0	37821	0	0	0	26999	25600	156643	26920	1072569	47000	110010	0	0	8131	555308	0	0
2024-09-12 02:13:47			0	37804	0	0	0	26994	25600	156775	26901	1072578	47023	110008	0	0	8130	555974	0	0
2024-09-12 02:14:47			0	37757	0	0	0	26992	25610	156871	27161	1072533	47012	110007	0	0	8127	557785	0	0
2024-09-12 02:15:47			0	37747	0	0	0	26999	25600	156939	27312	1072551	47000	110010	0	0	8127	558209	0	0
2024-09-12 02:16:47			0	37719	0	0	0	26999	25590	157063	27239	1072533	47009	110010	0	0	8125	559342	0	0
2024-09-12 02:17:47			0	37697	0	0	0	26986	25600	157111	27229	1072488	47010	110005	0	0	8124	560176	0	0
2024-09-12 02:18:47			0	37688	0	0	0	26989	25600	157219	26994	1072497	47000	110006	0	0	8123	560530	0	0
2024-09-12 02:19:47			0	37626	0	0	0	26953	25580	157295	26769	1072461	47009	109992	0	0	8120	563039	0	0
2024-09-12 02:20:47			0	37600	0	0	0	26955	25590	157479	26885	1072443	46976	109993	0	0	8119	564034	0	0
2024-09-12 02:21:47			0	37591	0	0	0	26986	25570	157539	26876	1072389	47007	110005	0	0	8118	564454	0	0
2024-09-12 02:22:47			0	37571	0	0	0	26968	25570	157519	26998	1072443	46997	109998	0	0	8117	565246	0	0
2024-09-12 02:23:47			0	37575	0	0	0	26963	25570	157639	27204	1072362	46986	109996	0	0	8117	565088	0	0
2024-09-12 02:24:47			0	37546	0	0	0	26955	25570	157699	27275	1072461	46997	109993	0	0	8116	566236	0	0
2024-09-12 02:25:47			0	37506	0	0	0	26942	25570	157859	27246	1072389	46997	109988	0	0	8113	567823	0	0
2024-09-12 02:26:47			0	37467	0	0	0	26940	25560	157899	26906	1072264	46997	109987	0	0	8111	569406	0	0
2024-09-12 02:27:47			0	37473	0	0	0	26966	25560	158027	27274	1072344	46997	109997	0	0	8111	569167	0	0
2024-09-12 02:28:47			0	37469	0	0	0	26945	25550	158051	27133	1072246	46995	109989	0	0	8111	569359	0	0
2024-09-12 02:29:47			0	37421	0	0	0	26927	25560	158143	26960	1072308	46996	109982	0	0	8109	571238	0	0
2024-09-12 02:30:47			0	37420	0	0	0	26948	25550	158195	27248	1072236	46984	109990	0	0	8108	571310	0	0
2024-09-12 02:31:47			0	37432	0	0	0	26953	25550	158219	27033	1072290	46995	109992	0	0	8109	570832	0	0
2024-09-12 02:32:47			0	37434	0	0	0	26950	25550	158211	27357	1072219	47005	109991	0	0	8109	570752	0	0
2024-09-12 02:33:47			0	37444	0	0	0	26976	25550	158147	27281	1072263	47005	110001	0	0	8109	570354	0	0
2024-09-12 02:34:47			0	37475	0	0	0	26979	25550	158039	27228	1072317	47016	110002	0	0	8111	569120	0	0
2024-09-12 02:35:47			0	37485	0	0	0	26955	25550	157987	27168	1072290	47016	109993	0	0	8112	568723	0	0
2024-09-12 02:36:47			0	37471	0	0	0	26979	25540	158047	27192	1072361	47016	110002	0	0	8111	569312	0	0
2024-09-12 02:37:47			0	37525	0	0	0	26984	25550	157919	27277	1072370	47005	110004	0	0	8114	567134	0	0
2024-09-12 02:38:47			0	37540	0	0	0	26955	25560	157967	27204	1072308	47006	109993	0	0	8115	566506	0	0
2024-09-12 02:39:47			0	37531	0	0	0	26955	25550	157875	27131	1072317	46995	109993	0	0	8115	566896	0	0
2024-09-12 02:40:47			0	37544	0	0	0	26950	25550	157859	27154	1072380	47005	109991	0	0	8115	566380	0	0
2024-09-12 02:41:47			0	37541	0	0	0	26966	25540	157823	27095	1072335	47005	109997	0	0	8115	566531	0	0
2024-09-12 02:42:47			0	37562	0	0	0	26953	25550	157751	27100	1072317	47005	109992	0	0	8116	565667	0	0
2024-09-12 02:43:47			0	37545	0	0	0	26932	25540	157739	26942	1072254	47005	109984	0	0	8116	566373	0	0
2024-09-12 02:44:47			0	37558	0	0	0	26914	25540	157611	27320	1072165	46994	109977	0	0	8117	565857	0	0
2024-09-12 02:45:47			0	37609	0	0	0	26953	25540	157595	27232	1072227	46995	109992	0	0	8119	563839	0	0
2024-09-12 02:46:47			0	37613	0	0	0	26958	25540	157483	27209	1072299	47004	109994	0	0	8119	563681	0	0
2024-09-12 02:47:47			0	37621	0	0	0	26937	25540	157339	27298	1072254	47005	109986	0	0	8120	563365	0	0
2024-09-12 02:48:47			0	37658	0	0	0	26950	25540	157415	27182	1072254	47005	109991	0	0	8122	561904	0	0
2024-09-12 02:49:47			0	37641	0	0	0	26924	25540	157243	27305	1072218	47004	109981	0	0	8122	562575	0	0
2024-09-12 02:50:47			0	37643	0	0	0	26916	25540	157279	27043	1072138	47004	109978	0	0	8122	562496	0	0
2024-09-12 02:51:47			0	37621	0	0	0	26914	25540	157395	27164	1072191	47004	109977	0	0	8121	563365	0	0
2024-09-12 02:52:47			0	37624	0	0	0	26875	25520	157395	27107	1072138	46992	109962	0	0	8121	563310	0	0
2024-09-12 02:53:47			0	37596	0	0	0	26906	25520	157519	27405	1072084	46980	109974	0	0	8119	564417	0	0
2024-09-12 02:54:47			0	37621	0	0	0	26890	25510	157451	27102	1072066	46991	109968	0	0	8121	563461	0	0
2024-09-12 02:55:47			0	37594	0	0	0	26885	25520	157607	26956	1071994	46992	109966	0	0	8119	564496	0	0
2024-09-12 02:56:47			0	37592	0	0	0	26875	25500	157603	27244	1071994	46990	109962	0	0	8119	564640	0	0
2024-09-12 02:57:47			0	37596	0	0	0	26903	25500	157643	27078	1072021	46990	109973	0	0	8119	564481	0	0
2024-09-12 02:58:47			0	37615	0	0	0	26911	25500	157535	27133	1072048	47011	109976	0	0	8120	563730	0	0
2024-09-12 02:59:47			0	37645	0	0	0	26906	25510	157355	27300	1072084	47000	109974	0	0	8122	562513	0	0
2024-09-12 03:00:47			0	37679	0	0	0	26906	25500	157195	27126	1072066	47000	109974	0	0	8124	561203	0	0
2024-09-12 03:01:47			0	37667	0	0	0	26914	25500	157187	27457	1072101	46990	109977	0	0	8123	561677	0	0
2024-09-12 03:02:47			0	37687	0	0	0	26916	25510	157119	27138	1072030	47000	109978	0	0	8124	560856	0	0
2024-09-12 03:03:47			0	37691	0	0	0	26901	25510	157215	27254	1072066	46991	109972	0	0	8125	560699	0	0
2024-09-12 03:04:47			0	37720	0	0	0	26922	25500	157031	27260	1072066	47000	109980	0	0	8126	559589	0	0
2024-09-12 03:05:47			0	37718	0	0	0	26885	25510	157043	27396	1072084	47011	109966	0	0	8127	559636	0	0
2024-09-12 03:06:47			0	37703	0	0	0	26883	25500	157111	27466	1071985	46990	109965	0	0	8126	560258	0	0
2024-09-12 03:07:47			0	37703	0	0	0	26896	25500	157139	27324	1072021	47000	109970	0	0	8125	560258	0	0
2024-09-12 03:08:47			0	37746	0	0	0	26919	25500	157039	27334	1072066	46990	109979	0	0	8128	558566	0	0
2024-09-12 03:09:47			0	37779	0	0	0	26916	25500	156795	26994	1072048	46990	109978	0	0	8130	557271	0	0
2024-09-12 03:10:47			0	37764	0	0	0	26870	25490	156899	27123	1072003	47010	109960	0	0	8129	557891	0	0
2024-09-12 03:11:47			0	37738	0	0	0	26919	25500	156931	27357	1072021	46990	109979	0	0	8127	558881	0	0
2024-09-12 03:12:47			0	37721	0	0	0	26890	25500	157015	27255	1072012	46990	109968	0	0	8127	559549	0	0
2024-09-12 03:13:47			0	37761	0	0	0	26909	25490	156919	27057	1072003	46977	109975	0	0	8129	558009	0	0
2024-09-12 03:14:47			0	37758	0	0	0	26890	25480	156863	27227	1072074	46999	109968	0	0	8129	558158	0	0
2024-09-12 03:15:47			0	37786	0	0	0	26896	25480	156835	27274	1071958	46988	109970	0	0	8130	557059	0	0
2024-09-12 03:16:47			0	37804	0	0	0	26901	25480	156731	27415	1071958	46988	109972	0	0	8131	556353	0	0
2024-09-12 03:17:47			0	37810	0	0	0	26888	25500	156699	27196	1072012	47000	109967	0	0	8132	556055	0	0
2024-09-12 03:18:47			0	37818	0	0	0	26901	25490	156691	27300	1072003	46989	109972	0	0	8132	555773	0	0
2024-09-12 03:19:47			0	37836	0	0	0	26877	25490	156683	27189	1072030	47000	109963	0	0	8133	555068	0	0
2024-09-12 03:20:47			0	37809	0	0	0	26885	25480	156767	27126	1071940	46999	109966	0	0	8132	556157	0	0
2024-09-12 03:21:47			0	37793	0	0	0	26890	25480	156879	27326	1071994	46988	109968	0	0	8131	556785	0	0
2024-09-12 03:22:47			0	37796	0	0	0	26883	25470	156839	27064	1071922	47009	109965	0	0	8131	556699	0	0
2024-09-12 03:23:47			0	37812	0	0	0	26880	25470	156683	26932	1071940	46987	109964	0	0	8132	556071	0	0
2024-09-12 03:24:47			0	37800	0	0	0	26880	25480	156755	27339	1071985	46988	109964	0	0	8131	556510	0	0
2024-09-12 03:25:47			0	37803	0	0	0	26875	25470	156687	27327	1071976	46999	109962	0	0	8131	556424	0	0
2024-09-12 03:26:47			0	37844	0	0	0	26911	25470	156663	27180	1072003	46999	109976	0	0	8133	554818	0	0
2024-09-12 03:27:47			0	37867	0	0	0	26885	25480	156527	27067	1071931	47009	109966	0	0	8135	553887	0	0
2024-09-12 03:28:47			0	37871	0	0	0	26909	25480	156463	27194	1071967	46999	109975	0	0	8135	553731	0	0
2024-09-12 03:29:47			0	37872	0	0	0	26883	25480	156447	27067	1071985	46999	109965	0	0	8135	553692	0	0
2024-09-12 03:30:47			0	37855	0	0	0	26893	25480	156507	27272	1071958	46999	109969	0	0	8134	554356	0	0
2024-09-12 03:31:47			0	37865	0	0	0	26909	25480	156475	26752	1071958	46988	109975	0	0	8135	553965	0	0
2024-09-12 03:32:47			0	37896	0	0	0	26896	25470	156403	27277	1072003	47009	109970	0	0	8137	552786	0	0
2024-09-12 03:33:47			0	37850	0	0	0	26885	25480	156615	27244	1071967	46999	109966	0	0	8134	554552	0	0
2024-09-12 03:34:47			0	37873	0	0	0	26888	25470	156571	27235	1071976	46988	109967	0	0	8135	553684	0	0
2024-09-12 03:35:47			0	37883	0	0	0	26893	25470	156495	26887	1071994	46998	109969	0	0	8136	553293	0	0
2024-09-12 03:36:47			0	37916	0	0	0	26893	25490	156203	26883	1072003	47010	109969	0	0	8138	551943	0	0
2024-09-12 03:37:47			0	37926	0	0	0	26893	25470	156251	26987	1072074	46998	109969	0	0	8138	551615	0	0
2024-09-12 03:38:47			0	37956	0	0	0	26898	25470	156083	26908	1071976	46999	109971	0	0	8140	550446	0	0
2024-09-12 03:39:47			0	37925	0	0	0	26896	25480	156191	27079	1072065	46999	109970	0	0	8138	551623	0	0
2024-09-12 03:40:47			0	37947	0	0	0	26880	25480	156139	27015	1071985	46988	109964	0	0	8140	550766	0	0
2024-09-12 03:41:47			0	37934	0	0	0	26896	25470	156167	27157	1071895	46988	109970	0	0	8139	551303	0	0
2024-09-12 03:42:47			0	37940	0	0	0	26885	25470	156075	26802	1071913	46987	109966	0	0	8139	551070	0	0
2024-09-12 03:43:47			0	37947	0	0	0	26896	25470	156203	27277	1072003	46976	109970	0	0	8139	550797	0	0
2024-09-12 03:44:47			0	37983	0	0	0	26890	25470	155979	27353	1072003	46999	109968	0	0	8142	549396	0	0
2024-09-12 03:45:47			0	37982	0	0	0	26885	25480	156131	26972	1071994	46999	109966	0	0	8142	549403	0	0
2024-09-12 03:46:47			0	37989	0	0	0	26883	25480	156039	27244	1071994	46988	109965	0	0	8142	549131	0	0
2024-09-12 03:47:47			0	37963	0	0	0	26870	25470	156071	27083	1071994	46987	109960	0	0	8141	550174	0	0
2024-09-12 03:48:47			0	37934	0	0	0	26885	25470	156215	27187	1071949	46988	109966	0	0	8139	551303	0	0
2024-09-12 03:49:47			0	37941	0	0	0	26883	25480	156179	26863	1071931	46988	109965	0	0	8139	550999	0	0
2024-09-12 03:50:47			0	37948	0	0	0	26880	25480	156071	27060	1071931	46988	109964	0	0	8140	550727	0	0
2024-09-12 03:51:47			0	37938	0	0	0	26870	25480	156119	27067	1071985	46999	109960	0	0	8139	551116	0	0
2024-09-12 03:52:47			0	37925	0	0	0	26872	25460	156295	27142	1071931	46997	109961	0	0	8139	551686	0	0
2024-09-12 03:53:47			0	37916	0	0	0	26867	25470	156307	27050	1071913	46987	109959	0	0	8138	552005	0	0
2024-09-12 03:54:47			0	37933	0	0	0	26875	25460	156203	27199	1071904	46986	109962	0	0	8139	551374	0	0
2024-09-12 03:55:47			0	37965	0	0	0	26885	25460	156231	27107	1071904	47007	109966	0	0	8141	550127	0	0
2024-09-12 03:56:47			0	37954	0	0	0	26867	25460	156159	26873	1071895	46996	109959	0	0	8140	550556	0	0
2024-09-12 03:57:47			0	37968	0	0	0	26867	25460	156119	26868	1071904	46986	109959	0	0	8141	550011	0	0
2024-09-12 03:58:47			0	37961	0	0	0	26864	25460	156103	27402	1071868	46985	109958	0	0	8141	550283	0	0
2024-09-12 03:59:47			0	37948	0	0	0	26885	25460	156139	26889	1071850	46986	109966	0	0	8140	550789	0	0
2024-09-12 04:00:47			0	38005	0	0	0	26885	25460	155995	27294	1071895	47006	109966	0	0	8143	548572	0	0
2024-09-12 04:01:47			0	38073	0	0	0	26890	25470	155660	27085	1071949	47009	109968	0	0	8147	545903	0	0
2024-09-12 04:02:47			0	38116	0	0	0	26893	25460	155640	27161	1071895	46996	109969	0	0	8149	544270	0	0
2024-09-12 04:03:47			0	38111	0	0	0	26883	25470	155516	27156	1071949	46999	109965	0	0	8149	544432	0	0
2024-09-12 04:04:47			0	38077	0	0	0	26880	25460	155700	26896	1071868	46985	109964	0	0	8147	545779	0	0
2024-09-12 04:05:47			0	38081	0	0	0	26888	25480	155684	27057	1071931	46999	109967	0	0	8147	545562	0	0
2024-09-12 04:06:47			0	38084	0	0	0	26888	25470	155744	27175	1071940	46998	109967	0	0	8148	545477	0	0
2024-09-12 04:07:47			0	38085	0	0	0	26890	25470	155676	26838	1071940	46987	109968	0	0	8148	545438	0	0
2024-09-12 04:08:47			0	38100	0	0	0	26896	25470	155712	26986	1071886	46987	109970	0	0	8148	544858	0	0
2024-09-12 04:09:47			0	38072	0	0	0	26898	25470	155708	26967	1071949	46999	109971	0	0	8147	545942	0	0
2024-09-12 04:10:47			0	38070	0	0	0	26890	25480	155728	27459	1071985	46988	109968	0	0	8147	545988	0	0
2024-09-12 04:11:47			0	38079	0	0	0	26893	25470	155780	27090	1071913	46987	109969	0	0	8147	545670	0	0
2024-09-12 04:12:47			0	38058	0	0	0	26870	25470	155888	27209	1071922	46999	109960	0	0	8146	546484	0	0
2024-09-12 04:13:47			0	38025	0	0	0	26875	25470	155923	27020	1071895	46999	109962	0	0	8144	547764	0	0
2024-09-12 04:14:47			0	38038	0	0	0	26893	25470	155868	27159	1071922	46999	109969	0	0	8145	547259	0	0
2024-09-12 04:15:47			0	38014	0	0	0	26880	25460	155975	27156	1071904	46997	109964	0	0	8144	548222	0	0
2024-09-12 04:16:47			0	37990	0	0	0	26864	25460	156031	27307	1071931	46997	109958	0	0	8142	549155	0	0
2024-09-12 04:17:47			0	37966	0	0	0	26846	25470	156151	26859	1071895	46988	109951	0	0	8141	550057	0	0
2024-09-12 04:18:47			0	37975	0	0	0	26890	25460	156059	27206	1071904	46997	109968	0	0	8141	549738	0	0
2024-09-12 04:19:47			0	38017	0	0	0	26893	25460	155871	27209	1071984	46997	109969	0	0	8144	548106	0	0
2024-09-12 04:20:47			0	38028	0	0	0	26893	25470	155856	27036	1071976	47009	109969	0	0	8144	547647	0	0
2024-09-12 04:21:47			0	38035	0	0	0	26877	25470	155928	27147	1071940	47008	109963	0	0	8145	547376	0	0
2024-09-12 04:22:47			0	37992	0	0	0	26872	25470	155919	27138	1071913	46998	109961	0	0	8143	549046	0	0
2024-09-12 04:23:47			0	37989	0	0	0	26864	25460	155923	27303	1071931	46986	109958	0	0	8142	549194	0	0
2024-09-12 04:24:47			0	37994	0	0	0	26893	25460	156007	27362	1071868	46996	109969	0	0	8142	548999	0	0
2024-09-12 04:25:47			0	38015	0	0	0	26888	25470	156019	27249	1071922	46999	109967	0	0	8144	548152	0	0
2024-09-12 04:26:47			0	37936	0	0	0	26872	25470	156207	27343	1071922	46988	109961	0	0	8139	551225	0	0
2024-09-12 04:27:47			0	37935	0	0	0	26896	25460	156203	27535	1071850	46986	109970	0	0	8139	551296	0	0
2024-09-12 04:28:47			0	37940	0	0	0	26875	25460	156163	27048	1071922	46985	109962	0	0	8139	551101	0	0
2024-09-12 04:29:47			0	37933	0	0	0	26888	25460	156283	27239	1071984	46986	109967	0	0	8139	551374	0	0
2024-09-12 04:30:47			0	37937	0	0	0	26896	25470	156151	27293	1071859	46998	109970	0	0	8139	551187	0	0
2024-09-12 04:31:47			0	37954	0	0	0	26890	25470	156015	27393	1071940	46998	109968	0	0	8140	550524	0	0
2024-09-12 04:32:47			0	37964	0	0	0	26883	25470	156159	27400	1071895	46999	109965	0	0	8141	550135	0	0
2024-09-12 04:33:47			0	37942	0	0	0	26846	25470	156079	27324	1071886	46998	109951	0	0	8140	550992	0	0
2024-09-12 04:34:47			0	37926	0	0	0	26833	25460	156295	27256	1071824	46997	109946	0	0	8139	551647	0	0
2024-09-12 04:35:47			0	37892	0	0	0	26831	25460	156407	27379	1071797	46974	109945	0	0	8137	552973	0	0
2024-09-12 04:36:47			0	37903	0	0	0	26872	25450	156327	27178	1071832	46973	109961	0	0	8137	552575	0	0
2024-09-12 04:37:47			0	37927	0	0	0	26854	25460	156343	27145	1071904	46986	109954	0	0	8139	551608	0	0
2024-09-12 04:38:47			0	37910	0	0	0	26859	25450	156375	27015	1071877	47006	109956	0	0	8138	552302	0	0
2024-09-12 04:39:47			0	37935	0	0	0	26846	25450	156163	27303	1071832	46996	109951	0	0	8140	551327	0	0
2024-09-12 04:40:47			0	37935	0	0	0	26851	25440	156231	27246	1071841	46995	109953	0	0	8139	551358	0	0
2024-09-12 04:41:47			0	37956	0	0	0	26864	25440	156219	27194	1071841	46995	109958	0	0	8140	550540	0	0
2024-09-12 04:42:47			0	37973	0	0	0	26854	25450	156139	27287	1071877	46985	109954	0	0	8142	549847	0	0
2024-09-12 04:43:47			0	37995	0	0	0	26846	25450	156075	27105	1071859	46985	109951	0	0	8143	548992	0	0
2024-09-12 04:44:47			0	37987	0	0	0	26857	25440	156163	27130	1071814	46984	109955	0	0	8142	549334	0	0
2024-09-12 04:45:47			0	37989	0	0	0	26833	25440	156031	27119	1071752	46994	109946	0	0	8143	549256	0	0
2024-09-12 04:46:47			0	37972	0	0	0	26820	25450	156039	27253	1071796	46996	109941	0	0	8142	549886	0	0
2024-09-12 04:47:47			0	37975	0	0	0	26857	25440	156015	27512	1071778	46971	109955	0	0	8142	549801	0	0
2024-09-12 04:48:47			0	37988	0	0	0	26820	25430	155943	27027	1071796	46983	109941	0	0	8143	549326	0	0
2024-09-12 04:49:47			0	37999	0	0	0	26823	25430	155931	27220	1071716	46983	109942	0	0	8144	548898	0	0
2024-09-12 04:50:47			0	37996	0	0	0	26828	25440	155975	27338	1071832	46994	109944	0	0	8143	548984	0	0
2024-09-12 04:51:47			0	38003	0	0	0	26857	25440	155899	27422	1071778	46983	109955	0	0	8143	548712	0	0
2024-09-12 04:52:47			0	38027	0	0	0	26867	25430	155944	27412	1071814	46994	109959	0	0	8144	547811	0	0
2024-09-12 04:53:47			0	38020	0	0	0	26820	25440	155847	27509	1071725	46994	109941	0	0	8145	548051	0	0
2024-09-12 04:54:47			0	38027	0	0	0	26820	25430	155847	27319	1071716	46971	109941	0	0	8145	547811	0	0
2024-09-12 04:55:47			0	38029	0	0	0	26854	25420	155916	27118	1071724	46982	109954	0	0	8145	547764	0	0
2024-09-12 04:56:47			0	38016	0	0	0	26802	25420	155751	27371	1071715	46981	109934	0	0	8145	548269	0	0
2024-09-12 04:57:47			0	38005	0	0	0	26833	25430	155927	27246	1071662	46983	109946	0	0	8144	548665	0	0
2024-09-12 04:58:47			0	38015	0	0	0	26802	25420	155907	27104	1071661	46981	109934	0	0	8145	548308	0	0
2024-09-12 04:59:47			0	37986	0	0	0	26825	25420	156043	27492	1071688	46981	109943	0	0	8143	549435	0	0
2024-09-12 05:00:47			0	38006	0	0	0	26818	25420	155991	27402	1071635	46992	109940	0	0	8144	548658	0	0
2024-09-12 05:01:47			0	37974	0	0	0	26836	25420	156011	27450	1071688	46992	109947	0	0	8142	549902	0	0
2024-09-12 05:02:47			0	38013	0	0	0	26841	25420	155891	27390	1071742	46992	109949	0	0	8144	548386	0	0
2024-09-12 05:03:47			0	38011	0	0	0	26807	25420	155923	27213	1071688	47002	109936	0	0	8144	548463	0	0
2024-09-12 05:04:47			0	37962	0	0	0	26802	25420	156087	27246	1071608	47002	109934	0	0	8142	550369	0	0
2024-09-12 05:05:47			0	37976	0	0	0	26823	25410	156147	27599	1071590	46969	109942	0	0	8142	549855	0	0
2024-09-12 05:06:47			0	37948	0	0	0	26805	25400	156151	27157	1071607	46980	109935	0	0	8141	550977	0	0
2024-09-12 05:07:47			0	37945	0	0	0	26805	25400	156151	27367	1071607	46980	109935	0	0	8141	551094	0	0
2024-09-12 05:08:47			0	37895	0	0	0	26810	25410	156423	26941	1071545	46992	109937	0	0	8138	553013	0	0
2024-09-12 05:09:47			0	37901	0	0	0	26802	25400	156267	27261	1071527	46991	109934	0	0	8138	552810	0	0
2024-09-12 05:10:47			0	37866	0	0	0	26771	25400	156523	27241	1071527	46968	109922	0	0	8137	554178	0	0
2024-09-12 05:11:47			0	37825	0	0	0	26761	25400	156507	27445	1071464	46979	109918	0	0	8134	555783	0	0
2024-09-12 05:12:47			0	37829	0	0	0	26797	25390	156695	27074	1071473	46989	109932	0	0	8134	555658	0	0
2024-09-12 05:13:47			0	37838	0	0	0	26773	25390	156699	27319	1071419	46989	109923	0	0	8135	555305	0	0
2024-09-12 05:14:47			0	37799	0	0	0	26732	25390	156715	27038	1071500	46989	109907	0	0	8133	556834	0	0
2024-09-12 05:15:47			0	37770	0	0	0	26737	25370	156955	27086	1071366	46943	109909	0	0	8131	558036	0	0
2024-09-12 05:16:47			0	37726	0	0	0	26742	25370	157031	27211	1071357	46954	109911	0	0	8129	559766	0	0
2024-09-12 05:17:47			0	37742	0	0	0	26773	25370	157107	27253	1071410	46987	109923	0	0	8129	559137	0	0
2024-09-12 05:18:47			0	37729	0	0	0	26727	25360	157039	26977	1071392	46975	109905	0	0	8129	559680	0	0
2024-09-12 05:19:47			0	37723	0	0	0	26716	25350	157071	27107	1071276	46962	109901	0	0	8129	559948	0	0
2024-09-12 05:20:47			0	37719	0	0	0	26761	25350	157187	27293	1071303	46974	109918	0	0	8128	560105	0	0
2024-09-12 05:21:47			0	37731	0	0	0	26740	25340	157155	27112	1071302	46973	109910	0	0	8129	559665	0	0
2024-09-12 05:22:47			0	37697	0	0	0	26742	25350	157267	27178	1071294	46962	109911	0	0	8127	560972	0	0
2024-09-12 05:23:47			0	37693	0	0	0	26724	25330	157291	27124	1071177	46971	109904	0	0	8127	561194	0	0
2024-09-12 05:24:47			0	37667	0	0	0	26698	25340	157391	27173	1071222	46973	109894	0	0	8126	562188	0	0
2024-09-12 05:25:47			0	37668	0	0	0	26724	25320	157355	27261	1071114	46970	109904	0	0	8125	562212	0	0
2024-09-12 05:26:47			0	37675	0	0	0	26737	25320	157339	27455	1071141	46970	109909	0	0	8126	561936	0	0
2024-09-12 05:27:47			0	37660	0	0	0	26703	25330	157359	27135	1071177	46960	109896	0	0	8125	562496	0	0
2024-09-12 05:28:47			0	37681	0	0	0	26706	25320	157351	27223	1071195	46970	109897	0	0	8127	561699	0	0
2024-09-12 05:29:47			0	37669	0	0	0	26729	25310	157347	27183	1071096	46969	109906	0	0	8125	562205	0	0
2024-09-12 05:30:47			0	37681	0	0	0	26706	25310	157451	27348	1071150	46969	109897	0	0	8126	561731	0	0
2024-09-12 05:31:47			0	37677	0	0	0	26729	25300	157387	27237	1071105	46958	109906	0	0	8126	561921	0	0
2024-09-12 05:32:47			0	37686	0	0	0	26696	25310	157371	27235	1071150	46981	109893	0	0	8127	561534	0	0
2024-09-12 05:33:47			0	37673	0	0	0	26690	25310	157379	27334	1071087	46981	109891	0	0	8126	562047	0	0
2024-09-12 05:34:47			0	37675	0	0	0	26693	25310	157403	27209	1071141	46981	109892	0	0	8126	561968	0	0
2024-09-12 05:35:47			0	37683	0	0	0	26701	25300	157499	27098	1071122	46968	109895	0	0	8127	561684	0	0
2024-09-12 05:36:47			0	37668	0	0	0	26714	25300	157379	27029	1070998	46968	109900	0	0	8126	562276	0	0
2024-09-12 05:37:47			0	37690	0	0	0	26659	25310	157343	27346	1071087	46981	109879	0	0	8128	561376	0	0
2024-09-12 05:38:47			0	37680	0	0	0	26709	25290	157351	27036	1071051	46978	109898	0	0	8126	561834	0	0
2024-09-12 05:39:47			0	37697	0	0	0	26711	25300	157279	27232	1071069	46968	109899	0	0	8127	561132	0	0
2024-09-12 05:40:47			0	37709	0	0	0	26703	25290	157179	26974	1071060	46979	109896	0	0	8128	560690	0	0
2024-09-12 05:41:47			0	37720	0	0	0	26683	25290	157339	27159	1071024	46966	109888	0	0	8129	560257	0	0
2024-09-12 05:42:47			0	37686	0	0	0	26664	25290	157355	26941	1071024	46956	109881	0	0	8127	561597	0	0
2024-09-12 05:43:47			0	37706	0	0	0	26688	25290	157363	27007	1070944	46966	109890	0	0	8128	560809	0	0
2024-09-12 05:44:47			0	37710	0	0	0	26698	25280	157431	26920	1070961	46989	109894	0	0	8128	560683	0	0
2024-09-12 05:45:47			0	37728	0	0	0	26672	25280	157275	26873	1071033	46966	109884	0	0	8130	559974	0	0
2024-09-12 05:46:47			0	37707	0	0	0	26688	25290	157323	27100	1070917	46978	109890	0	0	8128	560769	0	0
2024-09-12 05:47:47			0	37756	0	0	0	26701	25280	157099	26798	1071033	46978	109895	0	0	8131	558872	0	0
2024-09-12 05:48:47			0	37745	0	0	0	26654	25280	157199	27095	1071042	46978	109877	0	0	8131	559305	0	0
2024-09-12 05:49:47			0	37725	0	0	0	26659	25280	157183	27102	1070925	46966	109879	0	0	8130	560092	0	0
2024-09-12 05:50:47			0	37737	0	0	0	26651	25270	157159	26944	1070890	46977	109876	0	0	8130	559651	0	0
2024-09-12 05:51:47			0	37782	0	0	0	26688	25270	157035	26909	1070890	46955	109890	0	0	8132	557881	0	0
2024-09-12 05:52:47			0	37796	0	0	0	26680	25270	157019	27015	1070854	46964	109887	0	0	8133	557332	0	0
2024-09-12 05:53:47			0	37825	0	0	0	26716	25280	156851	27033	1070979	46989	109901	0	0	8135	556162	0	0
2024-09-12 05:54:47			0	37856	0	0	0	26724	25280	156739	27277	1071033	47011	109904	0	0	8136	554948	0	0
2024-09-12 05:55:47			0	37905	0	0	0	26714	25280	156415	26911	1071042	46989	109900	0	0	8139	553031	0	0
2024-09-12 05:56:47			0	37936	0	0	0	26683	25290	156395	27003	1070979	46979	109888	0	0	8142	551789	0	0
2024-09-12 05:57:47			0	37928	0	0	0	26719	25280	156411	26991	1071006	46978	109902	0	0	8140	552133	0	0
2024-09-12 05:58:47			0	37970	0	0	0	26690	25280	156247	27107	1071042	46978	109891	0	0	8143	550495	0	0
2024-09-12 05:59:47			0	37967	0	0	0	26714	25280	156179	26932	1070979	46966	109900	0	0	8143	550612	0	0
2024-09-12 06:00:47			0	38012	0	0	0	26701	25280	156015	27086	1071015	46978	109895	0	0	8146	548861	0	0
2024-09-12 06:01:47			0	38042	0	0	0	26701	25280	155960	26956	1071069	46989	109895	0	0	8147	547695	0	0
2024-09-12 06:02:47			0	38061	0	0	0	26722	25290	155852	27074	1071051	46978	109903	0	0	8148	546927	0	0
2024-09-12 06:03:47			0	38092	0	0	0	26711	25290	155852	26927	1071104	46989	109899	0	0	8150	545725	0	0
2024-09-12 06:04:47			0	38087	0	0	0	26753	25300	155704	27059	1071122	47001	109915	0	0	8149	545888	0	0
2024-09-12 06:05:47			0	38131	0	0	0	26748	25290	155644	26928	1071113	46979	109913	0	0	8152	544215	0	0
2024-09-12 06:06:47			0	38173	0	0	0	26737	25300	155508	27135	1071176	46991	109909	0	0	8154	542562	0	0
2024-09-12 06:07:47			0	38192	0	0	0	26773	25300	155416	27039	1071212	46980	109923	0	0	8155	541829	0	0
2024-09-12 06:08:47			0	38228	0	0	0	26763	25320	155212	26897	1071320	46993	109919	0	0	8157	540380	0	0
2024-09-12 06:09:47			0	38247	0	0	0	26784	25310	155092	27111	1071284	46981	109927	0	0	8158	539679	0	0
2024-09-12 06:10:47			0	38271	0	0	0	26776	25320	155040	27293	1071383	46993	109924	0	0	8160	538726	0	0
2024-09-12 06:11:47			0	38310	0	0	0	26784	25320	154952	26987	1071329	46993	109927	0	0	8162	537229	0	0
2024-09-12 06:12:47			0	38326	0	0	0	26797	25330	154924	27209	1071427	47004	109932	0	0	8162	536585	0	0
2024-09-12 06:13:47			0	38339	0	0	0	26792	25330	154768	27026	1071401	46994	109930	0	0	8163	536086	0	0
2024-09-12 06:14:47			0	38345	0	0	0	26807	25340	154708	26864	1071356	47006	109936	0	0	8163	535826	0	0
2024-09-12 06:15:47			0	38357	0	0	0	26797	25340	154628	26772	1071445	46985	109932	0	0	8164	535367	0	0
2024-09-12 06:16:47			0	38383	0	0	0	26799	25350	154508	26746	1071455	46985	109933	0	0	8166	534342	0	0
2024-09-12 06:17:47			0	38438	0	0	0	26823	25350	154432	27074	1071428	46996	109942	0	0	8169	532242	0	0
2024-09-12 06:18:47			0	38434	0	0	0	26799	25350	154364	27017	1071455	46985	109933	0	0	8169	532394	0	0
2024-09-12 06:19:47			0	38467	0	0	0	26815	25370	154292	27215	1071544	47009	109939	0	0	8170	531076	0	0
2024-09-12 06:20:47			0	38464	0	0	0	26823	25370	154276	27275	1071580	46998	109942	0	0	8170	531190	0	0
2024-09-12 06:21:47			0	38492	0	0	0	26825	25370	154180	27107	1071571	46987	109943	0	0	8172	530124	0	0
2024-09-12 06:22:47			0	38519	0	0	0	26841	25380	154012	27223	1071589	46999	109949	0	0	8173	529068	0	0
2024-09-12 06:23:47			0	38532	0	0	0	26857	25380	153992	26767	1071643	47010	109955	0	0	8174	528574	0	0
2024-09-12 06:24:47			0	38545	0	0	0	26838	25390	153952	27182	1071661	46989	109948	0	0	8175	528050	0	0
2024-09-12 06:25:47			0	38546	0	0	0	26849	25390	153836	26984	1071697	47000	109952	0	0	8175	528012	0	0
2024-09-12 06:26:47			0	38563	0	0	0	26859	25400	153892	27433	1071688	46991	109956	0	0	8175	527337	0	0
2024-09-12 06:27:47			0	38562	0	0	0	26883	25410	153700	27357	1071724	47002	109965	0	0	8175	527345	0	0
2024-09-12 06:28:47			0	38575	0	0	0	26885	25410	153740	27050	1071777	47014	109966	0	0	8176	526853	0	0
2024-09-12 06:29:47			0	38594	0	0	0	26857	25410	153660	27393	1071786	47002	109955	0	0	8177	526133	0	0
2024-09-12 06:30:47			0	38572	0	0	0	26857	25420	153748	27227	1071796	46992	109955	0	0	8176	526936	0	0
2024-09-12 06:31:47			0	38599	0	0	0	26870	25420	153676	27123	1071796	46992	109960	0	0	8177	525914	0	0
2024-09-12 06:32:47			0	38604	0	0	0	26885	25420	153640	27135	1071796	47002	109966	0	0	8177	525724	0	0
2024-09-12 06:33:47			0	38641	0	0	0	26893	25440	153552	27015	1071912	46994	109969	0	0	8179	524266	0	0
2024-09-12 06:34:47			0	38637	0	0	0	26896	25430	153496	27215	1071877	47027	109970	0	0	8179	524446	0	0
2024-09-12 06:35:47			0	38641	0	0	0	26911	25440	153460	26972	1071948	47005	109976	0	0	8179	524266	0	0
2024-09-12 06:36:47			0	38660	0	0	0	26916	25450	153464	26927	1071966	46996	109978	0	0	8180	523518	0	0
2024-09-12 06:37:47			0	38653	0	0	0	26922	25460	153472	27019	1071975	47018	109980	0	0	8180	523753	0	0
2024-09-12 06:38:47			0	38659	0	0	0	26898	25470	153460	27137	1071967	47008	109971	0	0	8181	523496	0	0
2024-09-12 06:39:47			0	38680	0	0	0	26893	25460	153412	26857	1071984	46986	109969	0	0	8182	522734	0	0
2024-09-12 06:40:47			0	38664	0	0	0	26896	25460	153256	27152	1072002	46985	109970	0	0	8181	523337	0	0
2024-09-12 06:41:47			0	38659	0	0	0	26888	25470	153432	27164	1072020	46998	109967	0	0	8181	523496	0	0
2024-09-12 06:42:47			0	38656	0	0	0	26888	25460	153420	26734	1072038	46997	109967	0	0	8180	523640	0	0
2024-09-12 06:43:47			0	38652	0	0	0	26898	25460	153448	26894	1072002	47006	109971	0	0	8180	523791	0	0
2024-09-12 06:44:47			0	38657	0	0	0	26929	25480	153324	27059	1072065	47009	109983	0	0	8180	523542	0	0
2024-09-12 06:45:47			0	38679	0	0	0	26903	25460	153344	26842	1071975	47006	109973	0	0	8182	522772	0	0
2024-09-12 06:46:47			0	38676	0	0	0	26911	25470	153320	27095	1072101	46998	109976	0	0	8181	522855	0	0
2024-09-12 06:47:47			0	38692	0	0	0	26916	25470	153260	27105	1071967	46998	109978	0	0	8182	522252	0	0
2024-09-12 06:48:47			0	38674	0	0	0	26914	25480	153272	27114	1072065	46999	109977	0	0	8181	522901	0	0
2024-09-12 06:49:47			0	38679	0	0	0	26909	25470	153252	27017	1072083	46988	109975	0	0	8182	522742	0	0
2024-09-12 06:50:47			0	38655	0	0	0	26903	25480	153324	26968	1072074	46999	109973	0	0	8180	523618	0	0
2024-09-12 06:51:47			0	38700	0	0	0	26914	25480	153324	27209	1072155	46999	109977	0	0	8183	521921	0	0
2024-09-12 06:52:47			0	38683	0	0	0	26916	25490	153164	27064	1072137	47000	109978	0	0	8182	522532	0	0
2024-09-12 06:53:47			0	38684	0	0	0	26893	25490	153328	26909	1072110	47010	109969	0	0	8182	522494	0	0
2024-09-12 06:54:47			0	38671	0	0	0	26906	25480	153308	27270	1072038	46976	109974	0	0	8181	523014	0	0
2024-09-12 06:55:47			0	38676	0	0	0	26896	25480	153276	27034	1072021	46976	109970	0	0	8182	522825	0	0
2024-09-12 06:56:47			0	38652	0	0	0	26872	25480	153288	27140	1072074	46988	109961	0	0	8181	523731	0	0
2024-09-12 06:57:47			0	38651	0	0	0	26883	25480	153496	27199	1071958	46988	109965	0	0	8180	523769	0	0
2024-09-12 06:58:47			0	38638	0	0	0	26862	25480	153500	27093	1072047	46999	109957	0	0	8180	524260	0	0
2024-09-12 06:59:47			0	38633	0	0	0	26864	25470	153584	27161	1071976	46976	109958	0	0	8180	524478	0	0
2024-09-12 07:00:47			0	38624	0	0	0	26854	25480	153496	27093	1071958	46988	109954	0	0	8179	524789	0	0
2024-09-12 07:01:47			0	38605	0	0	0	26875	25470	153644	26993	1071994	46987	109962	0	0	8178	525537	0	0
2024-09-12 07:02:47			0	38616	0	0	0	26890	25460	153600	26986	1071958	46986	109968	0	0	8178	525151	0	0
2024-09-12 07:03:47			0	38617	0	0	0	26906	25470	153576	27154	1071922	46999	109974	0	0	8178	525083	0	0
2024-09-12 07:04:47			0	38626	0	0	0	26903	25470	153536	27206	1071976	46988	109973	0	0	8179	524743	0	0
2024-09-12 07:05:47			0	38636	0	0	0	26862	25470	153512	27095	1071949	47009	109957	0	0	8180	524365	0	0
2024-09-12 07:06:47			0	38629	0	0	0	26870	25470	153636	27256	1071967	46998	109960	0	0	8179	524630	0	0
2024-09-12 07:07:47			0	38653	0	0	0	26870	25460	153404	27156	1071904	46997	109960	0	0	8181	523753	0	0
2024-09-12 07:08:47			0	38632	0	0	0	26867	25460	153400	26838	1071958	46997	109959	0	0	8179	524546	0	0
2024-09-12 07:09:47			0	38656	0	0	0	26896	25460	153464	27078	1071958	46974	109970	0	0	8180	523640	0	0
2024-09-12 07:10:47			0	38655	0	0	0	26898	25470	153376	27194	1071967	46998	109971	0	0	8180	523648	0	0
2024-09-12 07:11:47			0	38659	0	0	0	26867	25470	153348	27241	1072020	46998	109959	0	0	8181	523496	0	0
2024-09-12 07:12:47			0	38665	0	0	0	26877	25470	153428	27197	1071940	46998	109963	0	0	8181	523270	0	0
2024-09-12 07:13:47			0	38645	0	0	0	26883	25470	153532	27060	1072003	46999	109965	0	0	8180	524025	0	0
2024-09-12 07:14:47			0	38631	0	0	0	26844	25470	153408	27248	1071949	46999	109950	0	0	8180	524554	0	0
2024-09-12 07:15:47			0	38657	0	0	0	26875	25470	153472	26743	1071967	46998	109962	0	0	8181	523572	0	0
2024-09-12 07:16:47			0	38649	0	0	0	26862	25470	153420	26993	1071940	46975	109957	0	0	8181	523874	0	0
2024-09-12 07:17:47			0	38643	0	0	0	26870	25460	153472	27039	1071877	46997	109960	0	0	8180	524130	0	0
2024-09-12 07:18:47			0	38654	0	0	0	26885	25460	153436	27488	1071958	46997	109966	0	0	8180	523715	0	0
2024-09-12 07:19:47			0	38667	0	0	0	26880	25470	153352	27282	1071967	46998	109964	0	0	8181	523195	0	0
2024-09-12 07:20:47			0	38674	0	0	0	26867	25470	153416	27350	1071994	46987	109959	0	0	8182	522931	0	0
2024-09-12 07:21:47			0	38650	0	0	0	26877	25470	153404	27176	1071967	46975	109963	0	0	8180	523836	0	0
2024-09-12 07:22:47			0	38662	0	0	0	26903	25470	153396	27256	1071940	46998	109973	0	0	8181	523383	0	0
2024-09-12 07:23:47			0	38658	0	0	0	26851	25460	153312	26987	1071931	46974	109953	0	0	8181	523564	0	0
2024-09-12 07:24:47			0	38656	0	0	0	26838	25470	153440	27256	1071940	46975	109948	0	0	8181	523610	0	0
2024-09-12 07:25:47			0	38649	0	0	0	26870	25450	153428	27244	1071913	46973	109960	0	0	8180	523934	0	0
2024-09-12 07:26:47			0	38659	0	0	0	26877	25450	153496	27166	1071886	46985	109963	0	0	8181	523556	0	0
2024-09-12 07:27:47			0	38670	0	0	0	26903	25460	153388	27241	1071931	46986	109973	0	0	8181	523111	0	0
2024-09-12 07:28:47			0	38681	0	0	0	26880	25460	153328	27293	1071931	46997	109964	0	0	8182	522696	0	0
2024-09-12 07:29:47			0	38688	0	0	0	26877	25450	153284	27284	1071993	46996	109963	0	0	8182	522462	0	0
2024-09-12 07:30:47			0	38695	0	0	0	26896	25460	153284	27045	1071949	46996	109970	0	0	8183	522168	0	0
2024-09-12 07:31:47			0	38691	0	0	0	26890	25460	153272	27095	1071949	47006	109968	0	0	8182	522319	0	0
2024-09-12 07:32:47			0	38678	0	0	0	26903	25460	153284	26989	1071958	46986	109973	0	0	8182	522809	0	0
2024-09-12 07:33:47			0	38699	0	0	0	26906	25460	153188	27161	1072011	46997	109974	0	0	8183	522018	0	0
2024-09-12 07:34:47			0	38724	0	0	0	26932	25470	153152	27331	1072056	46999	109984	0	0	8184	521046	0	0
2024-09-12 07:35:47			0	38719	0	0	0	26909	25470	153236	27235	1072056	47009	109975	0	0	8184	521235	0	0
2024-09-12 07:36:47			0	38746	0	0	0	26916	25480	153121	27244	1072092	46999	109978	0	0	8185	520189	0	0
2024-09-12 07:37:47			0	38723	0	0	0	26916	25480	153161	27454	1072101	46999	109978	0	0	8184	521055	0	0
2024-09-12 07:38:47			0	38743	0	0	0	26937	25490	153097	27012	1072137	47010	109986	0	0	8185	520272	0	0
2024-09-12 07:39:47			0	38731	0	0	0	26929	25480	153081	27104	1072038	47009	109983	0	0	8184	520753	0	0
2024-09-12 07:40:47			0	38736	0	0	0	26924	25480	153109	27431	1072065	47009	109981	0	0	8185	520565	0	0
2024-09-12 07:41:47			0	38724	0	0	0	26893	25490	153156	27142	1072083	47000	109969	0	0	8184	520987	0	0
2024-09-12 07:42:47			0	38742	0	0	0	26906	25500	153101	27234	1072119	47011	109974	0	0	8185	520281	0	0
2024-09-12 07:43:47			0	38748	0	0	0	26916	25480	153089	27280	1072155	46999	109978	0	0	8185	520114	0	0
2024-09-12 07:44:47			0	38749	0	0	0	26927	25500	153093	27616	1072182	47000	109982	0	0	8185	520017	0	0
2024-09-12 07:45:47			0	38737	0	0	0	26924	25500	153161	27320	1072119	47011	109981	0	0	8185	520469	0	0
2024-09-12 07:46:47			0	38745	0	0	0	26906	25500	153021	27355	1072101	47000	109974	0	0	8185	520168	0	0
2024-09-12 07:47:47			0	38737	0	0	0	26922	25490	153189	27102	1072110	47000	109980	0	0	8185	520498	0	0
2024-09-12 07:48:47			0	38753	0	0	0	26932	25500	153129	27098	1072173	47000	109984	0	0	8186	519867	0	0
2024-09-12 07:49:47			0	38752	0	0	0	26942	25510	153073	27189	1072191	47011	109988	0	0	8185	519875	0	0
2024-09-12 07:50:47			0	38731	0	0	0	26867	25510	153117	27104	1072146	47012	109959	0	0	8185	520665	0	0
2024-09-12 07:51:47			0	38724	0	0	0	26906	25510	153088	27225	1072084	47000	109974	0	0	8184	520928	0	0
2024-09-12 07:52:47			0	38720	0	0	0	26940	25500	153140	26852	1072182	47011	109987	0	0	8183	521108	0	0
2024-09-12 07:53:47			0	38732	0	0	0	26932	25500	153201	27360	1072155	47000	109984	0	0	8184	520657	0	0
2024-09-12 07:54:47			0	38752	0	0	0	26932	25500	152997	27187	1072119	46990	109984	0	0	8185	519905	0	0
2024-09-12 07:55:47			0	38753	0	0	0	26929	25500	152997	27079	1072262	47011	109983	0	0	8186	519867	0	0
2024-09-12 07:56:47			0	38749	0	0	0	26955	25500	152953	27429	1072209	46990	109993	0	0	8185	520017	0	0
2024-09-12 07:57:47			0	38756	0	0	0	26916	25510	152969	26994	1072227	47012	109978	0	0	8186	519725	0	0
2024-09-12 07:58:47			0	38769	0	0	0	26942	25510	152953	26870	1072227	47012	109988	0	0	8186	519236	0	0
2024-09-12 07:59:47			0	38766	0	0	0	26940	25510	152933	27033	1072334	47001	109987	0	0	8186	519349	0	0
2024-09-12 08:00:47			0	38764	0	0	0	26940	25510	152989	27341	1072254	47001	109987	0	0	8186	519424	0	0
2024-09-12 08:01:47			0	38763	0	0	0	26932	25510	152925	27039	1072173	46991	109984	0	0	8186	519462	0	0
2024-09-12 08:02:47			0	38759	0	0	0	26924	25510	153025	27092	1072245	46990	109981	0	0	8186	519612	0	0
2024-09-12 08:03:47			0	38772	0	0	0	26942	25510	152905	27183	1072254	47012	109988	0	0	8186	519124	0	0
2024-09-12 08:04:47			0	38769	0	0	0	26955	25520	152929	26922	1072343	47002	109993	0	0	8186	519207	0	0
2024-09-12 08:05:47			0	38781	0	0	0	26958	25520	153005	27059	1072379	47002	109994	0	0	8187	518756	0	0
2024-09-12 08:06:47			0	38788	0	0	0	26948	25520	152917	26870	1072325	47002	109990	0	0	8187	518494	0	0
2024-09-12 08:07:47			0	38782	0	0	0	26948	25530	152969	26987	1072308	47002	109990	0	0	8187	518689	0	0
2024-09-12 08:08:47			0	38783	0	0	0	26968	25520	152961	27140	1072379	46992	109998	0	0	8187	518681	0	0
2024-09-12 08:09:47			0	38773	0	0	0	26940	25520	152977	27020	1072272	47002	109987	0	0	8187	519057	0	0
2024-09-12 08:10:47			0	38782	0	0	0	26945	25530	152973	27126	1072290	46993	109989	0	0	8187	518689	0	0
2024-09-12 08:11:47			0	38782	0	0	0	26940	25530	152977	27128	1072263	47003	109987	0	0	8187	518689	0	0
2024-09-12 08:12:47			0	38773	0	0	0	26945	25530	152985	26816	1072281	47014	109989	0	0	8187	519027	0	0
2024-09-12 08:13:47			0	38789	0	0	0	26924	25530	152925	26809	1072254	47002	109981	0	0	8188	518426	0	0
2024-09-12 08:14:47			0	38771	0	0	0	26961	25530	152993	26986	1072343	46993	109995	0	0	8186	519102	0	0
2024-09-12 08:15:47			0	38758	0	0	0	26922	25520	152941	27213	1072236	46992	109980	0	0	8186	519620	0	0
2024-09-12 08:16:47			0	38763	0	0	0	26961	25520	152993	27170	1072218	46992	109995	0	0	8186	519432	0	0
2024-09-12 08:17:47			0	38777	0	0	0	26953	25530	153025	27166	1072227	46992	109992	0	0	8187	518877	0	0
2024-09-12 08:18:47			0	38780	0	0	0	26966	25530	152977	27114	1072361	47014	109997	0	0	8187	518764	0	0
2024-09-12 08:19:47			0	38773	0	0	0	26948	25530	152981	27336	1072370	46993	109990	0	0	8187	519027	0	0
2024-09-12 08:20:47			0	38772	0	0	0	26961	25530	152969	27105	1072290	46993	109995	0	0	8186	519065	0	0
2024-09-12 08:21:47			0	38793	0	0	0	26955	25530	152961	26861	1072343	47003	109993	0	0	8188	518276	0	0
2024-09-12 08:22:47			0	38779	0	0	0	26958	25530	153037	26935	1072370	46993	109994	0	0	8187	518802	0	0
2024-09-12 08:23:47			0	38775	0	0	0	26968	25540	152949	26960	1072379	47004	109998	0	0	8186	518922	0	0
2024-09-12 08:24:47			0	38782	0	0	0	26932	25540	152981	26928	1072379	46994	109984	0	0	8187	518660	0	0
2024-09-12 08:25:47			0	38787	0	0	0	26968	25540	152797	27128	1072379	46994	109998	0	0	8187	518472	0	0
2024-09-12 08:26:47			0	38772	0	0	0	26963	25540	152857	27410	1072326	46994	109996	0	0	8186	519035	0	0
2024-09-12 08:27:47			0	38789	0	0	0	26927	25530	152749	27066	1072308	46992	109982	0	0	8188	518426	0	0
2024-09-12 08:28:47			0	38778	0	0	0	26966	25540	152897	27286	1072299	46994	109997	0	0	8187	518810	0	0
2024-09-12 08:29:47			0	38779	0	0	0	26950	25530	152905	27244	1072361	47014	109991	0	0	8187	518802	0	0
2024-09-12 08:30:47			0	38778	0	0	0	26953	25530	152889	27298	1072227	46992	109992	0	0	8187	518839	0	0
2024-09-12 08:31:47			0	38789	0	0	0	26968	25540	152777	27222	1072415	47005	109998	0	0	8187	518397	0	0
2024-09-12 08:32:47			0	38782	0	0	0	26942	25540	152905	27414	1072406	47004	109988	0	0	8187	518660	0	0
2024-09-12 08:33:47			0	38780	0	0	0	26945	25540	152865	27512	1072388	46995	109989	0	0	8187	518735	0	0
2024-09-12 08:34:47			0	38769	0	0	0	26935	25540	152877	27244	1072326	47004	109985	0	0	8187	519148	0	0
2024-09-12 08:35:47			0	38780	0	0	0	26958	25530	152881	27421	1072290	47003	109994	0	0	8187	518764	0	0
2024-09-12 08:36:47			0	38804	0	0	0	26955	25520	152809	27471	1072352	46992	109993	0	0	8188	517893	0	0
2024-09-12 08:37:47			0	38784	0	0	0	26932	25530	152877	27256	1072290	47003	109984	0	0	8187	518614	0	0
2024-09-12 08:38:47			0	38778	0	0	0	26968	25530	152961	27620	1072263	46993	109998	0	0	8186	518839	0	0
2024-09-12 08:39:47			0	38788	0	0	0	26948	25530	152953	27474	1072263	47003	109990	0	0	8187	518464	0	0
2024-09-12 08:40:47			0	38768	0	0	0	26932	25530	152881	27310	1072317	47003	109984	0	0	8187	519215	0	0
2024-09-12 08:41:47			0	38761	0	0	0	26914	25530	152885	27230	1072263	46981	109977	0	0	8186	519478	0	0
2024-09-12 08:42:47			0	38770	0	0	0	26961	25530	152933	27300	1072361	46992	109995	0	0	8186	519140	0	0
2024-09-12 08:43:47			0	38775	0	0	0	26922	25530	152849	27696	1072343	46993	109980	0	0	8187	518952	0	0
2024-09-12 08:44:47			0	38781	0	0	0	26948	25520	152945	27402	1072289	46992	109990	0	0	8187	518756	0	0
2024-09-12 08:45:47			0	38780	0	0	0	26953	25530	152945	27298	1072343	47014	109992	0	0	8187	518764	0	0
2024-09-12 08:46:47			0	38772	0	0	0	26932	25530	152969	27360	1072361	47002	109984	0	0	8187	519065	0	0
2024-09-12 08:47:47			0	38783	0	0	0	26948	25530	152877	27192	1072281	46992	109990	0	0	8187	518652	0	0
2024-09-12 08:48:47			0	38784	0	0	0	26971	25530	152949	27241	1072343	47003	109999	0	0	8187	518614	0	0
2024-09-12 08:49:47			0	38775	0	0	0	26937	25520	152881	27048	1072272	46992	109986	0	0	8187	518981	0	0
2024-09-12 08:50:47			0	38769	0	0	0	26937	25530	152881	27478	1072361	46992	109986	0	0	8186	519177	0	0
2024-09-12 08:51:47			0	38789	0	0	0	26919	25530	152813	27157	1072281	47002	109979	0	0	8188	518426	0	0
2024-09-12 08:52:47			0	38773	0	0	0	26940	25520	152925	27320	1072209	47002	109987	0	0	8187	519057	0	0
2024-09-12 08:53:47			0	38803	0	0	0	26924	25520	152793	27128	1072316	47002	109981	0	0	8189	517931	0	0
2024-09-12 08:54:47			0	38783	0	0	0	26922	25520	152849	27426	1072316	46992	109980	0	0	8187	518681	0	0
2024-09-12 08:55:47			0	38779	0	0	0	26937	25520	152957	27384	1072236	46992	109986	0	0	8187	518831	0	0
2024-09-12 08:56:47			0	38783	0	0	0	26935	25520	152825	27331	1072370	46992	109985	0	0	8187	518681	0	0
2024-09-12 08:57:47			0	38797	0	0	0	26953	25530	152857	26958	1072281	47002	109992	0	0	8188	518126	0	0
2024-09-12 08:58:47			0	38800	0	0	0	26919	25510	152965	27124	1072280	47001	109979	0	0	8188	518073	0	0
2024-09-12 08:59:47			0	38796	0	0	0	26937	25520	152817	27215	1072272	46980	109986	0	0	8188	518193	0	0
2024-09-12 09:00:47			0	38788	0	0	0	26935	25530	152849	27100	1072308	47002	109985	0	0	8188	518464	0	0
2024-09-12 09:01:47			0	38790	0	0	0	26919	25520	152789	27059	1072272	47002	109979	0	0	8188	518418	0	0
2024-09-12 09:02:47			0	38787	0	0	0	26927	25520	152781	27199	1072263	47002	109982	0	0	8188	518531	0	0
2024-09-12 09:03:47			0	38795	0	0	0	26945	25510	152825	27403	1072245	47011	109989	0	0	8188	518260	0	0
2024-09-12 09:04:47			0	38805	0	0	0	26914	25520	152921	27324	1072236	47014	109977	0	0	8189	517856	0	0
2024-09-12 09:05:47			0	38785	0	0	0	26932	25520	152873	27310	1072182	46992	109984	0	0	8187	518606	0	0
2024-09-12 09:06:47			0	38790	0	0	0	26883	25520	152873	26764	1072236	47014	109965	0	0	8189	518418	0	0
2024-09-12 09:07:47			0	38796	0	0	0	26916	25510	152897	27173	1072146	46979	109978	0	0	8188	518223	0	0
2024-09-12 09:08:47			0	38785	0	0	0	26927	25510	152973	27144	1072191	47000	109982	0	0	8187	518636	0	0
2024-09-12 09:09:47			0	38775	0	0	0	26896	25510	152913	27208	1072137	46990	109970	0	0	8187	519011	0	0
2024-09-12 09:10:47			0	38770	0	0	0	26888	25510	152941	27319	1072137	46990	109967	0	0	8187	519199	0	0
2024-09-12 09:11:47			0	38767	0	0	0	26885	25510	152985	26939	1072137	47000	109966	0	0	8187	519311	0	0
2024-09-12 09:12:47			0	38766	0	0	0	26880	25490	152865	27208	1072056	46977	109964	0	0	8187	519408	0	0
2024-09-12 09:13:47			0	38742	0	0	0	26849	25480	153049	27253	1071967	46976	109952	0	0	8186	520340	0	0
2024-09-12 09:14:47			0	38749	0	0	0	26844	25480	153053	26984	1071994	46976	109950	0	0	8187	520076	0	0
2024-09-12 09:15:47			0	38746	0	0	0	26906	25470	153073	27282	1072003	46976	109974	0	0	8185	520219	0	0
2024-09-12 09:16:47			0	38741	0	0	0	26833	25470	152945	27149	1071976	46999	109946	0	0	8186	520407	0	0
2024-09-12 09:17:47			0	38748	0	0	0	26849	25470	153093	27397	1071976	46988	109952	0	0	8186	520144	0	0
2024-09-12 09:18:47			0	38755	0	0	0	26883	25460	153065	27029	1071931	46986	109965	0	0	8186	519910	0	0
2024-09-12 09:19:47			0	38721	0	0	0	26880	25470	153184	27048	1071895	46988	109964	0	0	8184	521159	0	0
2024-09-12 09:20:47			0	38726	0	0	0	26818	25460	153053	27029	1071895	46996	109940	0	0	8186	521001	0	0
2024-09-12 09:21:47			0	38733	0	0	0	26851	25460	153285	27300	1071949	46962	109953	0	0	8186	520737	0	0
2024-09-12 09:22:47			0	38712	0	0	0	26851	25450	153232	27267	1071886	46973	109953	0	0	8184	521558	0	0
2024-09-12 09:23:47			0	38720	0	0	0	26862	25450	153228	27003	1071904	46985	109957	0	0	8185	521256	0	0
2024-09-12 09:24:47			0	38718	0	0	0	26857	25450	153188	27064	1071904	46996	109955	0	0	8185	521332	0	0
2024-09-12 09:25:47			0	38732	0	0	0	26846	25460	153285	27331	1071949	46985	109951	0	0	8186	520775	0	0
2024-09-12 09:26:47			0	38710	0	0	0	26833	25450	153260	27008	1071886	46996	109946	0	0	8184	521633	0	0
2024-09-12 09:27:47			0	38697	0	0	0	26833	25440	153392	27045	1071841	46995	109946	0	0	8184	522152	0	0
2024-09-12 09:28:47			0	38720	0	0	0	26859	25450	153345	27196	1071877	47006	109956	0	0	8185	521256	0	0
2024-09-12 09:29:47			0	38707	0	0	0	26857	25440	153456	27039	1071912	46994	109955	0	0	8184	521776	0	0
2024-09-12 09:30:47			0	38702	0	0	0	26841	25440	153344	26845	1071841	46995	109949	0	0	8184	521964	0	0
2024-09-12 09:31:47			0	38690	0	0	0	26831	25440	153288	27331	1071832	46983	109945	0	0	8183	522416	0	0
2024-09-12 09:32:47			0	38684	0	0	0	26864	25440	153440	27092	1071832	46971	109958	0	0	8182	522643	0	0
2024-09-12 09:33:47			0	38685	0	0	0	26823	25430	153340	27291	1071787	46983	109942	0	0	8183	522634	0	0
2024-09-12 09:34:47			0	38667	0	0	0	26815	25440	153484	27083	1071752	46994	109939	0	0	8182	523284	0	0
2024-09-12 09:35:47			0	38667	0	0	0	26836	25430	153544	27310	1071787	46983	109947	0	0	8182	523314	0	0
2024-09-12 09:36:47			0	38678	0	0	0	26807	25420	153352	27350	1071742	46992	109936	0	0	8183	522928	0	0
2024-09-12 09:37:47			0	38656	0	0	0	26810	25420	153428	27201	1071769	46992	109937	0	0	8182	523759	0	0
2024-09-12 09:38:47			0	38652	0	0	0	26807	25410	153552	27272	1071706	46992	109936	0	0	8181	523939	0	0
2024-09-12 09:39:47			0	38656	0	0	0	26825	25410	153516	27133	1071724	46981	109943	0	0	8181	523788	0	0
2024-09-12 09:40:47			0	38653	0	0	0	26799	25410	153516	27445	1071679	46969	109933	0	0	8182	523902	0	0
2024-09-12 09:41:47			0	38658	0	0	0	26771	25410	153480	27313	1071733	46981	109922	0	0	8182	523713	0	0
2024-09-12 09:42:47			0	38643	0	0	0	26812	25410	153612	27013	1071590	46981	109938	0	0	8181	524279	0	0
2024-09-12 09:43:47			0	38647	0	0	0	26792	25410	153648	27412	1071652	46981	109930	0	0	8181	524128	0	0
2024-09-12 09:44:47			0	38630	0	0	0	26776	25390	153740	26987	1071563	46979	109924	0	0	8181	524830	0	0
2024-09-12 09:45:47			0	38629	0	0	0	26805	25400	153656	27239	1071625	46967	109935	0	0	8180	524838	0	0
2024-09-12 09:46:47			0	38616	0	0	0	26766	25400	153652	27313	1071572	46967	109920	0	0	8180	525330	0	0
2024-09-12 09:47:47			0	38646	0	0	0	26776	25380	153720	27043	1071589	46977	109924	0	0	8181	524255	0	0
2024-09-12 09:48:47			0	38627	0	0	0	26792	25390	153644	27175	1071580	46966	109930	0	0	8180	524944	0	0
2024-09-12 09:49:47			0	38641	0	0	0	26786	25380	153668	27228	1071598	46989	109928	0	0	8181	524444	0	0
2024-09-12 09:50:47			0	38619	0	0	0	26784	25390	153816	27391	1071563	46990	109927	0	0	8180	525246	0	0
2024-09-12 09:51:47			0	38627	0	0	0	26771	25380	153700	27452	1071562	46977	109922	0	0	8180	524974	0	0
2024-09-12 09:52:47			0	38608	0	0	0	26771	25390	153744	26925	1071500	46978	109922	0	0	8179	525663	0	0
2024-09-12 09:53:47			0	38610	0	0	0	26807	25380	153704	27005	1071536	46988	109936	0	0	8179	525617	0	0
2024-09-12 09:54:47			0	38615	0	0	0	26818	25390	153676	27092	1071554	46989	109940	0	0	8179	525398	0	0
2024-09-12 09:55:47			0	38629	0	0	0	26812	25380	153700	27177	1071625	46989	109938	0	0	8180	524898	0	0
2024-09-12 09:56:47			0	38643	0	0	0	26802	25380	153680	27015	1071545	47000	109934	0	0	8181	524369	0	0
2024-09-12 09:57:47			0	38655	0	0	0	26779	25390	153640	27234	1071634	46978	109925	0	0	8182	523886	0	0
2024-09-12 09:58:47			0	38614	0	0	0	26761	25380	153692	27277	1071571	46989	109918	0	0	8180	525466	0	0
2024-09-12 09:59:47			0	38611	0	0	0	26773	25380	153720	27123	1071562	46977	109923	0	0	8179	525579	0	0
2024-09-12 10:00:47			0	38613	0	0	0	26779	25370	153708	27286	1071464	46987	109925	0	0	8179	525533	0	0
2024-09-12 10:01:47			0	38608	0	0	0	26745	25370	153788	27046	1071526	46976	109912	0	0	8180	525722	0	0
2024-09-12 10:02:47			0	38591	0	0	0	26758	25380	153832	26868	1071482	46977	109917	0	0	8179	526336	0	0
2024-09-12 10:03:47			0	38610	0	0	0	26792	25370	153748	27206	1071500	46987	109930	0	0	8179	525647	0	0
2024-09-12 10:04:47			0	38583	0	0	0	26755	25370	153804	27178	1071491	46998	109916	0	0	8178	526669	0	0
2024-09-12 10:05:47			0	38597	0	0	0	26789	25360	153840	27163	1071446	46975	109929	0	0	8178	526169	0	0
2024-09-12 10:06:47			0	38582	0	0	0	26755	25370	153824	27237	1071473	46987	109916	0	0	8178	526707	0	0
2024-09-12 10:07:47			0	38552	0	0	0	26745	25350	153920	27067	1071410	46974	109912	0	0	8176	527905	0	0
2024-09-12 10:08:47			0	38533	0	0	0	26729	25370	154000	27234	1071383	46976	109906	0	0	8176	528566	0	0
2024-09-12 10:09:47			0	38561	0	0	0	26773	25350	153920	27092	1071401	46974	109923	0	0	8176	527563	0	0
2024-09-12 10:10:47			0	38570	0	0	0	26740	25350	154012	27182	1071455	46996	109910	0	0	8178	527222	0	0
2024-09-12 10:11:47			0	38564	0	0	0	26735	25350	153996	27270	1071437	46962	109908	0	0	8177	527449	0	0
2024-09-12 10:12:47			0	38564	0	0	0	26761	25340	154036	27230	1071419	46974	109918	0	0	8177	527479	0	0
2024-09-12 10:13:47			0	38585	0	0	0	26758	25350	153972	26987	1071410	46962	109917	0	0	8178	526653	0	0
2024-09-12 10:14:47			0	38566	0	0	0	26735	25350	153976	26899	1071347	46985	109908	0	0	8177	527373	0	0
2024-09-12 10:15:47			0	38556	0	0	0	26766	25350	154004	27182	1071401	46985	109920	0	0	8176	527753	0	0
2024-09-12 10:16:47			0	38573	0	0	0	26737	25340	153976	27022	1071419	46985	109909	0	0	8178	527138	0	0
2024-09-12 10:17:47			0	38547	0	0	0	26742	25340	153980	27059	1071365	46974	109911	0	0	8176	528124	0	0
2024-09-12 10:18:47			0	38559	0	0	0	26753	25340	154040	27440	1071329	46984	109915	0	0	8177	527669	0	0
2024-09-12 10:19:47			0	38537	0	0	0	26745	25340	154108	27241	1071383	46973	109912	0	0	8176	528504	0	0
2024-09-12 10:20:47			0	38550	0	0	0	26729	25340	154052	27267	1071329	46973	109906	0	0	8177	528011	0	0
2024-09-12 10:21:47			0	38560	0	0	0	26768	25330	154112	27244	1071374	46971	109921	0	0	8176	527661	0	0
2024-09-12 10:22:47			0	38542	0	0	0	26779	25330	154016	27173	1071374	46983	109925	0	0	8175	528344	0	0
2024-09-12 10:23:47			0	38552	0	0	0	26763	25340	154180	27105	1071419	46985	109919	0	0	8176	527935	0	0
2024-09-12 10:24:47			0	38571	0	0	0	26737	25330	154120	27372	1071401	46971	109909	0	0	8178	527244	0	0
2024-09-12 10:25:47			0	38563	0	0	0	26766	25330	154076	27249	1071338	46971	109920	0	0	8177	527547	0	0
2024-09-12 10:26:47			0	38564	0	0	0	26771	25330	153964	27133	1071418	46971	109922	0	0	8177	527509	0	0
2024-09-12 10:27:47			0	38579	0	0	0	26761	25340	153980	27199	1071383	46984	109918	0	0	8178	526911	0	0
2024-09-12 10:28:47			0	38599	0	0	0	26761	25340	153872	27121	1071365	46974	109918	0	0	8179	526153	0	0
2024-09-12 10:29:47			0	38593	0	0	0	26773	25330	153980	27400	1071481	46983	109923	0	0	8178	526410	0	0
2024-09-12 10:30:47			0	38596	0	0	0	26755	25340	153960	27223	1071410	46984	109916	0	0	8179	526266	0	0
2024-09-12 10:31:47			0	38583	0	0	0	26750	25340	153880	26847	1071410	46984	109914	0	0	8178	526759	0	0
2024-09-12 10:32:47			0	38586	0	0	0	26758	25340	153976	27092	1071419	46985	109917	0	0	8178	526645	0	0
2024-09-12 10:33:47			0	38596	0	0	0	26763	25340	153900	27312	1071365	46985	109919	0	0	8179	526266	0	0
2024-09-12 10:34:47			0	38611	0	0	0	26750	25340	153992	27069	1071410	46995	109914	0	0	8180	525698	0	0
2024-09-12 10:35:47			0	38605	0	0	0	26768	25340	153928	27289	1071392	46996	109921	0	0	8179	525926	0	0
2024-09-12 10:36:47			0	38614	0	0	0	26758	25340	153928	27126	1071383	46995	109917	0	0	8180	525585	0	0
2024-09-12 10:37:47			0	38599	0	0	0	26761	25340	153884	27072	1071338	46996	109918	0	0	8179	526153	0	0
2024-09-12 10:38:47			0	38606	0	0	0	26786	25340	153836	27346	1071410	46973	109928	0	0	8179	525888	0	0
2024-09-12 10:39:47			0	38596	0	0	0	26763	25350	153900	27112	1071437	46974	109919	0	0	8179	526237	0	0
2024-09-12 10:40:47			0	38606	0	0	0	26761	25340	153908	27246	1071419	46985	109918	0	0	8179	525888	0	0
2024-09-12 10:41:47			0	38600	0	0	0	26763	25340	153960	27280	1071365	46985	109919	0	0	8179	526115	0	0
2024-09-12 10:42:47			0	38611	0	0	0	26768	25350	153928	27384	1071410	46974	109921	0	0	8179	525668	0	0
2024-09-12 10:43:47			0	38605	0	0	0	26763	25350	153956	27019	1071428	46996	109919	0	0	8179	525896	0	0
2024-09-12 10:44:47			0	38591	0	0	0	26761	25340	153908	27041	1071365	46996	109918	0	0	8178	526456	0	0
2024-09-12 10:45:47			0	38599	0	0	0	26773	25350	153856	27435	1071437	46996	109923	0	0	8179	526123	0	0
2024-09-12 10:46:47			0	38597	0	0	0	26763	25340	153856	27223	1071463	46984	109919	0	0	8179	526228	0	0
2024-09-12 10:47:47			0	38603	0	0	0	26766	25340	153940	27081	1071419	46962	109920	0	0	8179	526001	0	0
2024-09-12 10:48:47			0	38609	0	0	0	26781	25350	153872	27322	1071455	46985	109926	0	0	8179	525744	0	0
2024-09-12 10:49:47			0	38587	0	0	0	26748	25350	153928	26923	1071428	46985	109913	0	0	8178	526577	0	0
2024-09-12 10:50:47			0	38605	0	0	0	26753	25350	154036	27093	1071481	46974	109915	0	0	8179	525896	0	0
2024-09-12 10:51:47			0	38596	0	0	0	26753	25340	153932	27281	1071365	46974	109915	0	0	8179	526266	0	0
2024-09-12 10:52:47			0	38573	0	0	0	26771	25350	153968	27230	1071428	46962	109922	0	0	8177	527108	0	0
2024-09-12 10:53:47			0	38572	0	0	0	26753	25330	154032	26864	1071374	46983	109915	0	0	8177	527206	0	0
2024-09-12 10:54:47			0	38585	0	0	0	26753	25350	154012	27043	1071347	46985	109915	0	0	8178	526653	0	0
2024-09-12 10:55:47			0	38570	0	0	0	26761	25340	154084	27128	1071383	46984	109918	0	0	8177	527252	0	0
2024-09-12 10:56:47			0	38573	0	0	0	26758	25330	154100	27481	1071374	46983	109917	0	0	8177	527168	0	0
2024-09-12 10:57:47			0	38571	0	0	0	26755	25340	154136	27329	1071383	46973	109916	0	0	8177	527214	0	0
2024-09-12 10:58:47			0	38563	0	0	0	26748	25330	154020	27421	1071418	46971	109913	0	0	8177	527547	0	0
2024-09-12 10:59:47			0	38544	0	0	0	26753	25340	154096	27223	1071383	46984	109915	0	0	8176	528238	0	0
2024-09-12 11:00:47			0	38550	0	0	0	26753	25340	154104	27202	1071356	46984	109915	0	0	8176	528011	0	0
2024-09-12 11:01:47			0	38563	0	0	0	26742	25330	154156	27381	1071347	46971	109911	0	0	8177	527547	0	0
2024-09-12 11:02:47			0	38565	0	0	0	26737	25330	154112	27324	1071365	46971	109909	0	0	8177	527471	0	0
2024-09-12 11:03:47			0	38540	0	0	0	26761	25320	154128	27211	1071275	46959	109918	0	0	8175	528450	0	0
2024-09-12 11:04:47			0	38548	0	0	0	26758	25320	154188	27286	1071329	46982	109917	0	0	8176	528146	0	0
2024-09-12 11:05:47			0	38547	0	0	0	26727	25340	154108	27454	1071356	46995	109905	0	0	8176	528124	0	0
2024-09-12 11:06:47			0	38558	0	0	0	26740	25320	154100	27092	1071275	46982	109910	0	0	8177	527767	0	0
2024-09-12 11:07:47			0	38559	0	0	0	26742	25330	154100	26994	1071320	46971	109911	0	0	8177	527699	0	0
2024-09-12 11:08:47			0	38545	0	0	0	26742	25330	154136	27157	1071311	46971	109911	0	0	8176	528230	0	0
2024-09-12 11:09:47			0	38558	0	0	0	26761	25330	154068	26967	1071338	46983	109918	0	0	8176	527737	0	0
2024-09-12 11:10:47			0	38578	0	0	0	26761	25330	154004	27071	1071338	46971	109918	0	0	8178	526978	0	0
2024-09-12 11:11:47			0	38564	0	0	0	26735	25320	153984	27284	1071329	46970	109908	0	0	8177	527539	0	0
2024-09-12 11:12:47			0	38559	0	0	0	26722	25330	154008	27171	1071347	46983	109903	0	0	8177	527699	0	0
2024-09-12 11:13:47			0	38555	0	0	0	26745	25330	154008	27144	1071293	46983	109912	0	0	8177	527851	0	0
2024-09-12 11:14:47			0	38556	0	0	0	26729	25320	154024	27296	1071302	46970	109906	0	0	8177	527843	0	0
2024-09-12 11:15:47			0	38561	0	0	0	26750	25320	153984	27317	1071302	46959	109914	0	0	8177	527653	0	0
2024-09-12 11:16:47			0	38566	0	0	0	26750	25320	153996	27024	1071293	46982	109914	0	0	8177	527463	0	0
2024-09-12 11:17:47			0	38582	0	0	0	26771	25320	154016	27199	1071383	46970	109922	0	0	8178	526857	0	0
2024-09-12 11:18:47			0	38605	0	0	0	26773	25320	154012	27064	1071302	46982	109923	0	0	8179	525985	0	0
2024-09-12 11:19:47			0	38601	0	0	0	26750	25340	154012	27237	1071365	46985	109914	0	0	8179	526077	0	0
2024-09-12 11:20:47			0	38570	0	0	0	26742	25330	154020	27197	1071311	46971	109911	0	0	8177	527282	0	0
2024-09-12 11:21:47			0	38607	0	0	0	26761	25340	154028	27265	1071445	46974	109918	0	0	8179	525850	0	0
2024-09-12 11:22:47			0	38604	0	0	0	26768	25330	153932	27303	1071392	46971	109921	0	0	8179	525993	0	0
2024-09-12 11:23:47			0	38612	0	0	0	26758	25330	154052	27291	1071454	46983	109917	0	0	8180	525690	0	0
2024-09-12 11:24:47			0	38611	0	0	0	26771	25330	153864	27260	1071365	46983	109922	0	0	8179	525728	0	0
2024-09-12 11:25:47			0	38626	0	0	0	26794	25330	153900	27038	1071401	46994	109931	0	0	8180	525161	0	0
2024-09-12 11:26:47			0	38642	0	0	0	26792	25340	153848	27329	1071472	46996	109930	0	0	8181	524526	0	0
2024-09-12 11:27:47			0	38645	0	0	0	26789	25340	153664	27095	1071419	47018	109929	0	0	8181	524412	0	0
2024-09-12 11:28:47			0	38683	0	0	0	26818	25350	153656	27345	1071490	46985	109940	0	0	8183	522948	0	0
2024-09-12 11:29:47			0	38679	0	0	0	26779	25350	153656	27225	1071544	46996	109925	0	0	8183	523098	0	0
2024-09-12 11:30:47			0	38667	0	0	0	26781	25350	153652	27180	1071517	46996	109926	0	0	8182	523552	0	0
2024-09-12 11:31:47			0	38673	0	0	0	26784	25360	153668	27161	1071499	46997	109927	0	0	8183	523295	0	0
2024-09-12 11:32:47			0	38668	0	0	0	26812	25350	153572	27291	1071544	46985	109938	0	0	8182	523514	0	0
2024-09-12 11:33:47			0	38668	0	0	0	26815	25360	153536	27147	1071633	46997	109939	0	0	8182	523484	0	0
2024-09-12 11:34:47			0	38707	0	0	0	26812	25370	153564	26927	1071526	46976	109938	0	0	8184	521983	0	0
2024-09-12 11:35:47			0	38713	0	0	0	26810	25370	153496	27150	1071634	46987	109937	0	0	8185	521757	0	0
2024-09-12 11:36:47			0	38734	0	0	0	26812	25370	153585	27135	1071634	46987	109938	0	0	8186	520966	0	0
2024-09-12 11:37:47			0	38712	0	0	0	26802	25380	153520	27128	1071643	46988	109934	0	0	8185	521765	0	0
2024-09-12 11:38:47			0	38694	0	0	0	26771	25380	153524	26878	1071589	46977	109922	0	0	8184	522444	0	0
2024-09-12 11:39:47			0	38691	0	0	0	26802	25380	153628	27386	1071536	46977	109934	0	0	8184	522557	0	0
2024-09-12 11:40:47			0	38683	0	0	0	26815	25380	153556	27026	1071589	46988	109939	0	0	8183	522858	0	0
2024-09-12 11:41:47			0	38700	0	0	0	26781	25370	153428	27428	1071598	46998	109926	0	0	8184	522247	0	0
2024-09-12 11:42:47			0	38684	0	0	0	26768	25380	153504	27111	1071545	46989	109921	0	0	8184	522821	0	0
2024-09-12 11:43:47			0	38684	0	0	0	26773	25370	153604	27093	1071553	46964	109923	0	0	8184	522851	0	0
2024-09-12 11:44:47			0	38678	0	0	0	26784	25370	153648	26996	1071544	46976	109927	0	0	8183	523077	0	0
2024-09-12 11:45:47			0	38690	0	0	0	26789	25370	153568	27123	1071544	46976	109929	0	0	8184	522624	0	0
2024-09-12 11:46:47			0	38685	0	0	0	26799	25380	153556	27126	1071509	46999	109933	0	0	8183	522783	0	0
2024-09-12 11:47:47			0	38679	0	0	0	26792	25380	153592	27015	1071625	46966	109930	0	0	8183	523009	0	0
2024-09-12 11:48:47			0	38681	0	0	0	26792	25370	153528	27367	1071553	46987	109930	0	0	8183	522964	0	0
2024-09-12 11:49:47			0	38693	0	0	0	26805	25370	153580	27190	1071607	46987	109935	0	0	8184	522511	0	0
2024-09-12 11:50:47			0	38690	0	0	0	26797	25380	153480	27034	1071562	46988	109932	0	0	8184	522594	0	0
2024-09-12 11:51:47			0	38702	0	0	0	26799	25370	153484	27022	1071598	46987	109933	0	0	8184	522172	0	0
2024-09-12 11:52:47			0	38699	0	0	0	26781	25370	153408	26993	1071607	46998	109926	0	0	8184	522285	0	0
2024-09-12 11:53:47			0	38707	0	0	0	26802	25370	153464	27253	1071634	46976	109934	0	0	8184	521983	0	0
2024-09-12 11:54:47			0	38717	0	0	0	26799	25380	153480	27218	1071625	46989	109933	0	0	8185	521577	0	0
2024-09-12 11:55:47			0	38711	0	0	0	26818	25380	153492	27263	1071589	46977	109940	0	0	8184	521803	0	0
2024-09-12 11:56:47			0	38720	0	0	0	26812	25380	153352	27280	1071643	46999	109938	0	0	8185	521464	0	0
2024-09-12 11:57:47			0	38730	0	0	0	26807	25390	153373	27204	1071634	46989	109936	0	0	8186	521058	0	0
2024-09-12 11:58:47			0	38735	0	0	0	26797	25380	153297	27173	1071652	46989	109932	0	0	8186	520899	0	0
2024-09-12 11:59:47			0	38719	0	0	0	26810	25390	153332	27085	1071634	46978	109937	0	0	8185	521472	0	0
2024-09-12 12:00:47			0	38722	0	0	0	26818	25380	153361	27398	1071679	46989	109940	0	0	8185	521388	0	0
2024-09-12 12:01:47			0	38720	0	0	0	26781	25390	153264	27253	1071661	46978	109926	0	0	8186	521434	0	0
2024-09-12 12:02:47			0	38719	0	0	0	26797	25380	153280	27386	1071598	46989	109932	0	0	8185	521501	0	0
2024-09-12 12:03:47			0	38721	0	0	0	26820	25390	153481	27339	1071607	46978	109941	0	0	8185	521396	0	0
2024-09-12 12:04:47			0	38738	0	0	0	26807	25390	153413	27137	1071616	46990	109936	0	0	8186	520757	0	0
2024-09-12 12:05:47			0	38734	0	0	0	26799	25380	153333	26987	1071705	46978	109933	0	0	8186	520937	0	0
2024-09-12 12:06:47			0	38743	0	0	0	26805	25380	153345	27182	1071625	47000	109935	0	0	8187	520598	0	0
2024-09-12 12:07:47			0	38732	0	0	0	26784	25390	153301	27069	1071670	46990	109927	0	0	8186	520982	0	0
2024-09-12 12:08:47			0	38733	0	0	0	26828	25390	153269	27029	1071688	46989	109944	0	0	8186	520945	0	0
2024-09-12 12:09:47			0	38743	0	0	0	26815	25390	153261	27085	1071661	46978	109939	0	0	8186	520568	0	0
2024-09-12 12:10:47			0	38751	0	0	0	26833	25400	153313	26923	1071706	46990	109946	0	0	8187	520238	0	0
2024-09-12 12:11:47			0	38771	0	0	0	26823	25390	153233	27324	1071661	46978	109942	0	0	8188	519515	0	0
2024-09-12 12:12:47			0	38777	0	0	0	26841	25390	153265	26854	1071724	46990	109949	0	0	8188	519290	0	0
2024-09-12 12:13:47			0	38771	0	0	0	26836	25400	153117	27249	1071679	46990	109947	0	0	8188	519486	0	0
2024-09-12 12:14:47			0	38795	0	0	0	26841	25390	153045	27175	1071697	47000	109949	0	0	8189	518614	0	0
2024-09-12 12:15:47			0	38794	0	0	0	26857	25400	153053	27150	1071768	47001	109955	0	0	8189	518622	0	0
2024-09-12 12:16:47			0	38794	0	0	0	26833	25410	152981	27013	1071840	47002	109946	0	0	8189	518593	0	0
2024-09-12 12:17:47			0	38801	0	0	0	26844	25410	153065	26951	1071831	46981	109950	0	0	8189	518330	0	0
2024-09-12 12:18:47			0	38812	0	0	0	26846	25410	152969	27280	1071867	46992	109951	0	0	8190	517917	0	0
2024-09-12 12:19:47			0	38789	0	0	0	26875	25420	152925	27034	1071822	46992	109962	0	0	8188	518751	0	0
2024-09-12 12:20:47			0	38800	0	0	0	26833	25420	152797	27107	1071858	47003	109946	0	0	8190	518338	0	0
2024-09-12 12:21:47			0	38808	0	0	0	26846	25420	152905	27209	1071805	46982	109951	0	0	8190	518038	0	0
2024-09-12 12:22:47			0	38819	0	0	0	26844	25420	152861	27306	1071849	46981	109950	0	0	8190	517625	0	0
2024-09-12 12:23:47			0	38811	0	0	0	26864	25420	153025	27208	1071876	46992	109958	0	0	8190	517925	0	0
2024-09-12 12:24:47			0	38808	0	0	0	26836	25420	152945	27216	1071831	47003	109947	0	0	8190	518038	0	0
2024-09-12 12:25:47			0	38810	0	0	0	26885	25440	152905	27175	1071859	46994	109966	0	0	8189	517904	0	0
2024-09-12 12:26:47			0	38815	0	0	0	26867	25420	152981	27457	1071885	46982	109959	0	0	8190	517775	0	0
2024-09-12 12:27:47			0	38823	0	0	0	26846	25420	152909	27260	1071858	46993	109951	0	0	8191	517475	0	0
2024-09-12 12:28:47			0	38822	0	0	0	26841	25430	152933	27429	1071850	46983	109949	0	0	8191	517483	0	0
2024-09-12 12:29:47			0	38793	0	0	0	26846	25430	152937	27272	1071823	46971	109951	0	0	8189	518571	0	0
2024-09-12 12:30:47			0	38791	0	0	0	26825	25430	153045	27102	1071823	46983	109943	0	0	8189	518646	0	0
2024-09-12 12:31:47			0	38784	0	0	0	26844	25410	153069	27206	1071840	46981	109950	0	0	8188	518968	0	0
2024-09-12 12:32:47			0	38793	0	0	0	26836	25430	153065	27485	1071841	46971	109947	0	0	8189	518571	0	0
2024-09-12 12:33:47			0	38789	0	0	0	26844	25430	153005	27341	1071787	46971	109950	0	0	8189	518721	0	0
2024-09-12 12:34:47			0	38775	0	0	0	26831	25420	152965	27457	1071831	46982	109945	0	0	8188	519277	0	0
2024-09-12 12:35:47			0	38801	0	0	0	26828	25410	152985	27374	1071733	46969	109944	0	0	8190	518330	0	0
2024-09-12 12:36:47			0	38791	0	0	0	26859	25410	152945	27493	1071786	46992	109956	0	0	8189	518705	0	0
2024-09-12 12:37:47			0	38809	0	0	0	26851	25420	152961	27225	1071831	46993	109953	0	0	8190	518000	0	0
2024-09-12 12:38:47			0	38815	0	0	0	26862	25420	152933	27317	1071885	46982	109957	0	0	8190	517775	0	0
2024-09-12 12:39:47			0	38815	0	0	0	26854	25420	152925	27012	1071885	47003	109954	0	0	8190	517775	0	0
2024-09-12 12:40:47			0	38807	0	0	0	26857	25430	152933	27124	1071894	47004	109955	0	0	8190	518046	0	0
2024-09-12 12:41:47			0	38809	0	0	0	26859	25420	152905	27256	1071885	46993	109956	0	0	8190	518000	0	0
2024-09-12 12:42:47			0	38828	0	0	0	26870	25420	152985	27581	1071858	46982	109960	0	0	8190	517288	0	0
2024-09-12 12:43:47			0	38847	0	0	0	26857	25430	152905	27013	1071903	46983	109955	0	0	8192	516547	0	0
2024-09-12 12:44:47			0	38821	0	0	0	26846	25440	152921	27085	1071939	46983	109951	0	0	8191	517491	0	0
2024-09-12 12:45:47			0	38814	0	0	0	26846	25440	152969	27334	1071966	47004	109951	0	0	8190	517754	0	0
2024-09-12 12:46:47			0	38817	0	0	0	26870	25430	152893	27173	1071877	46994	109960	0	0	8190	517671	0	0
2024-09-12 12:47:47			0	38811	0	0	0	26844	25430	152877	27020	1071903	46983	109950	0	0	8190	517896	0	0
2024-09-12 12:48:47			0	38810	0	0	0	26864	25430	152973	27495	1071823	46994	109958	0	0	8190	517933	0	0
2024-09-12 12:49:47			0	38805	0	0	0	26844	25440	152941	27244	1071886	46971	109950	0	0	8190	518091	0	0
2024-09-12 12:50:47			0	38834	0	0	0	26864	25430	152969	27407	1071903	46994	109958	0	0	8191	517034	0	0
2024-09-12 12:51:47			0	38822	0	0	0	26880	25430	152953	27235	1071930	46994	109964	0	0	8190	517483	0	0
2024-09-12 12:52:47			0	38835	0	0	0	26849	25430	152833	27223	1071984	46994	109952	0	0	8191	516996	0	0
2024-09-12 12:53:47			0	38843	0	0	0	26867	25430	152873	27332	1071903	46994	109959	0	0	8191	516696	0	0
2024-09-12 12:54:47			0	38830	0	0	0	26854	25430	152757	27355	1071921	47004	109954	0	0	8191	517183	0	0
2024-09-12 12:55:47			0	38832	0	0	0	26859	25440	152801	27284	1071895	46984	109956	0	0	8191	517079	0	0
2024-09-12 12:56:47			0	38822	0	0	0	26867	25430	152913	27467	1071877	46983	109959	0	0	8190	517483	0	0
2024-09-12 12:57:47			0	38839	0	0	0	26864	25440	152921	27229	1071948	46984	109958	0	0	8191	516817	0	0
2024-09-12 12:58:47			0	38829	0	0	0	26841	25430	152841	27305	1071903	46994	109949	0	0	8191	517221	0	0
2024-09-12 12:59:47			0	38832	0	0	0	26854	25440	152837	27554	1071939	46983	109954	0	0	8191	517079	0	0
2024-09-12 13:00:47			0	38848	0	0	0	26862	25440	152881	27436	1071966	46983	109957	0	0	8192	516480	0	0
2024-09-12 13:01:47			0	38835	0	0	0	26875	25440	152901	27332	1071948	46995	109962	0	0	8191	516967	0	0
2024-09-12 13:02:47			0	38843	0	0	0	26885	25450	152833	27218	1071984	46985	109966	0	0	8191	516638	0	0
2024-09-12 13:03:47			0	38859	0	0	0	26877	25440	152829	27216	1072002	46995	109963	0	0	8192	516068	0	0
2024-09-12 13:04:47			0	38855	0	0	0	26862	25450	152749	27144	1072011	47006	109957	0	0	8192	516189	0	0
2024-09-12 13:05:47			0	38850	0	0	0	26870	25450	152737	27384	1071993	46996	109960	0	0	8192	516376	0	0
2024-09-12 13:06:47			0	38844	0	0	0	26875	25450	152857	26996	1071957	46996	109962	0	0	8191	516600	0	0
2024-09-12 13:07:47			0	38851	0	0	0	26883	25450	152797	27369	1072038	46996	109965	0	0	8192	516338	0	0
2024-09-12 13:08:47			0	38855	0	0	0	26864	25460	152789	27492	1072056	46985	109958	0	0	8192	516159	0	0
2024-09-12 13:09:47			0	38844	0	0	0	26846	25460	152797	27242	1071975	46985	109951	0	0	8192	516571	0	0
2024-09-12 13:10:47			0	38847	0	0	0	26851	25440	152925	27057	1071975	46995	109953	0	0	8192	516517	0	0
2024-09-12 13:11:47			0	38839	0	0	0	26844	25440	152913	27149	1072002	47005	109950	0	0	8192	516817	0	0
2024-09-12 13:12:47			0	38828	0	0	0	26872	25450	152949	27100	1071984	46985	109961	0	0	8191	517200	0	0
2024-09-12 13:13:47			0	38819	0	0	0	26857	25440	152977	27223	1071939	46983	109955	0	0	8190	517566	0	0
2024-09-12 13:14:47			0	38854	0	0	0	26872	25450	152809	27105	1071984	46973	109961	0	0	8192	516226	0	0
2024-09-12 13:15:47			0	38830	0	0	0	26831	25450	152809	27072	1071993	46996	109945	0	0	8191	517125	0	0
2024-09-12 13:16:47			0	38829	0	0	0	26872	25450	152885	27097	1071931	46996	109961	0	0	8191	517162	0	0
2024-09-12 13:17:47			0	38833	0	0	0	26864	25440	152885	27479	1071975	46995	109958	0	0	8191	517042	0	0
2024-09-12 13:18:47			0	38815	0	0	0	26849	25460	152845	27333	1072002	46996	109952	0	0	8190	517658	0	0
2024-09-12 13:19:47			0	38808	0	0	0	26857	25450	152785	27281	1071966	46985	109955	0	0	8190	517949	0	0
2024-09-12 13:20:47			0	38819	0	0	0	26851	25440	152897	27440	1071975	46961	109953	0	0	8190	517566	0	0
2024-09-12 13:21:47			0	38809	0	0	0	26841	25440	152877	27178	1071912	46983	109949	0	0	8190	517942	0	0
2024-09-12 13:22:47			0	38817	0	0	0	26844	25440	152877	27234	1071966	47016	109950	0	0	8190	517641	0	0
2024-09-12 13:23:47			0	38832	0	0	0	26841	25440	152889	27376	1071966	46983	109949	0	0	8191	517079	0	0
2024-09-12 13:24:47			0	38827	0	0	0	26846	25440	152917	27303	1071912	46994	109951	0	0	8191	517267	0	0
2024-09-12 13:25:47			0	38824	0	0	0	26859	25440	152853	27305	1071966	46994	109956	0	0	8191	517379	0	0
2024-09-12 13:26:47			0	38848	0	0	0	26859	25440	152889	27118	1071993	47004	109956	0	0	8192	516480	0	0
2024-09-12 13:27:47			0	38839	0	0	0	26872	25440	152917	27327	1071939	46994	109961	0	0	8191	516817	0	0
2024-09-12 13:28:47			0	38844	0	0	0	26880	25450	152837	27199	1072047	46985	109964	0	0	8191	516600	0	0
2024-09-12 13:29:47			0	38850	0	0	0	26875	25450	152805	27144	1072011	46985	109962	0	0	8192	516376	0	0
2024-09-12 13:30:47			0	38846	0	0	0	26880	25440	152753	27332	1072056	46972	109964	0	0	8191	516555	0	0
2024-09-12 13:31:47			0	38861	0	0	0	26877	25460	152781	27502	1072092	46997	109963	0	0	8192	515935	0	0
2024-09-12 13:32:47			0	38878	0	0	0	26901	25460	152809	27327	1072110	47006	109972	0	0	8193	515299	0	0
2024-09-12 13:33:47			0	38881	0	0	0	26909	25450	152909	27409	1072074	46996	109975	0	0	8193	515216	0	0
2024-09-12 13:34:47			0	38867	0	0	0	26890	25460	152765	27336	1072092	46997	109968	0	0	8193	515710	0	0
2024-09-12 13:35:47			0	38859	0	0	0	26890	25460	152793	27300	1072110	46996	109968	0	0	8192	516009	0	0
2024-09-12 13:36:47			0	38875	0	0	0	26883	25470	152713	27216	1072128	46998	109965	0	0	8193	515382	0	0
2024-09-12 13:37:47			0	38856	0	0	0	26877	25470	152725	26974	1072128	46987	109963	0	0	8192	516092	0	0
2024-09-12 13:38:47			0	38877	0	0	0	26890	25470	152781	27244	1072154	46998	109968	0	0	8193	515307	0	0
2024-09-12 13:39:47			0	38872	0	0	0	26880	25470	152825	27057	1072020	46998	109964	0	0	8193	515494	0	0
2024-09-12 13:40:47			0	38888	0	0	0	26901	25470	152829	27331	1072101	46998	109972	0	0	8194	514896	0	0
2024-09-12 13:41:47			0	38882	0	0	0	26867	25460	152757	27374	1072092	46974	109959	0	0	8194	515149	0	0
2024-09-12 13:42:47			0	38867	0	0	0	26906	25470	152821	27274	1072128	46987	109974	0	0	8192	515681	0	0
2024-09-12 13:43:47			0	38850	0	0	0	26872	25460	152805	27313	1072119	46997	109961	0	0	8192	516346	0	0
2024-09-12 13:44:47			0	38874	0	0	0	26885	25470	152757	27109	1072074	46987	109966	0	0	8193	515419	0	0
2024-09-12 13:45:47			0	38876	0	0	0	26896	25470	152769	27320	1072083	46988	109970	0	0	8193	515344	0	0
2024-09-12 13:46:47			0	38880	0	0	0	26890	25480	152757	27312	1072199	46999	109968	0	0	8193	515165	0	0
2024-09-12 13:47:47			0	38863	0	0	0	26880	25470	152745	27244	1072190	46999	109964	0	0	8193	515830	0	0
2024-09-12 13:48:47			0	38855	0	0	0	26893	25480	152829	27159	1072146	46999	109969	0	0	8192	516101	0	0
2024-09-12 13:49:47			0	38869	0	0	0	26888	25470	152989	27547	1072083	46999	109967	0	0	8193	515606	0	0
2024-09-12 13:50:47			0	38857	0	0	0	26867	25470	152869	27322	1072137	46988	109959	0	0	8192	516055	0	0
2024-09-12 13:51:47			0	38850	0	0	0	26870	25460	152841	27367	1072119	46986	109960	0	0	8192	516346	0	0
2024-09-12 13:52:47			0	38856	0	0	0	26867	25470	152809	26946	1072110	46999	109959	0	0	8192	516092	0	0
2024-09-12 13:53:47			0	38854	0	0	0	26880	25470	152865	27206	1072128	46975	109964	0	0	8192	516167	0	0
2024-09-12 13:54:47			0	38842	0	0	0	26896	25460	152869	27301	1072011	46986	109970	0	0	8191	516646	0	0
2024-09-12 13:55:47			0	38846	0	0	0	26870	25460	152789	27135	1072092	46986	109960	0	0	8192	516496	0	0
2024-09-12 13:56:47			0	38844	0	0	0	26896	25470	152913	26920	1072083	46999	109970	0	0	8191	516542	0	0
2024-09-12 13:57:47			0	38829	0	0	0	26896	25460	152837	27249	1072038	46986	109970	0	0	8190	517133	0	0
2024-09-12 13:58:47			0	38820	0	0	0	26875	25460	152965	27100	1072092	46974	109962	0	0	8190	517470	0	0
2024-09-12 13:59:47			0	38813	0	0	0	26877	25460	152933	27267	1072029	46985	109963	0	0	8190	517733	0	0
2024-09-12 14:00:47			0	38831	0	0	0	26883	25460	153121	27066	1072065	46997	109965	0	0	8191	517058	0	0
2024-09-12 14:01:47			0	38817	0	0	0	26888	25460	153069	27384	1072065	46986	109967	0	0	8190	517582	0	0
2024-09-12 14:02:47			0	38838	0	0	0	26890	25460	153001	27033	1072092	47007	109968	0	0	8191	516796	0	0
2024-09-12 14:03:47			0	38823	0	0	0	26864	25470	152969	27015	1072074	46998	109958	0	0	8191	517328	0	0
2024-09-12 14:04:47			0	38821	0	0	0	26859	25460	153037	27241	1072029	47006	109956	0	0	8190	517433	0	0
2024-09-12 14:05:47			0	38802	0	0	0	26867	25470	153125	27118	1072074	46998	109959	0	0	8189	518116	0	0
2024-09-12 14:06:47			0	38818	0	0	0	26859	25460	153065	27284	1072002	46973	109956	0	0	8190	517545	0	0
2024-09-12 14:07:47			0	38809	0	0	0	26864	25460	153121	27144	1072056	46985	109958	0	0	8190	517883	0	0
2024-09-12 14:08:47			0	38791	0	0	0	26875	25460	153149	27301	1072038	47007	109962	0	0	8188	518558	0	0
2024-09-12 14:09:47			0	38796	0	0	0	26828	25450	153109	27053	1071993	46973	109944	0	0	8190	518400	0	0
2024-09-12 14:10:47			0	38798	0	0	0	26844	25450	153189	27230	1071993	46985	109950	0	0	8189	518325	0	0
2024-09-12 14:11:47			0	38799	0	0	0	26877	25450	153265	26916	1071993	46973	109963	0	0	8189	518287	0	0
2024-09-12 14:12:47			0	38776	0	0	0	26799	25440	153093	27248	1071886	46971	109933	0	0	8189	519180	0	0
2024-09-12 14:13:47			0	38776	0	0	0	26844	25440	153177	27324	1071859	46971	109950	0	0	8188	519180	0	0
2024-09-12 14:14:47			0	38787	0	0	0	26867	25440	153197	27242	1071966	46983	109959	0	0	8188	518767	0	0
2024-09-12 14:15:47			0	38793	0	0	0	26849	25440	153217	27223	1071975	46995	109952	0	0	8189	518542	0	0
2024-09-12 14:16:47			0	38791	0	0	0	26854	25440	153253	27064	1072020	46994	109954	0	0	8189	518617	0	0
2024-09-12 14:17:47			0	38776	0	0	0	26812	25440	153285	27303	1071948	46995	109938	0	0	8189	519180	0	0
2024-09-12 14:18:47			0	38779	0	0	0	26849	25420	153281	26793	1071912	46970	109952	0	0	8188	519126	0	0
2024-09-12 14:19:47			0	38772	0	0	0	26802	25420	153321	26811	1071885	46982	109934	0	0	8188	519389	0	0
2024-09-12 14:20:47			0	38759	0	0	0	26844	25420	153309	27152	1071876	46981	109950	0	0	8187	519878	0	0
2024-09-12 14:21:47			0	38751	0	0	0	26820	25430	153285	27102	1071841	46983	109941	0	0	8187	520149	0	0
2024-09-12 14:22:47			0	38749	0	0	0	26805	25420	153313	27334	1071822	46981	109935	0	0	8187	520254	0	0
2024-09-12 14:23:47			0	38754	0	0	0	26836	25420	153305	26968	1071822	46992	109947	0	0	8187	520066	0	0
2024-09-12 14:24:47			0	38772	0	0	0	26818	25410	153373	27216	1071840	46969	109940	0	0	8188	519419	0	0
2024-09-12 14:25:47			0	38738	0	0	0	26812	25400	153441	27027	1071742	46980	109938	0	0	8186	520727	0	0
2024-09-12 14:26:47			0	38730	0	0	0	26836	25410	153509	27346	1071804	46992	109947	0	0	8185	520998	0	0
2024-09-12 14:27:47			0	38760	0	0	0	26823	25420	153353	27138	1071849	46981	109942	0	0	8187	519840	0	0
2024-09-12 14:28:47			0	38752	0	0	0	26815	25410	153465	27355	1071751	46981	109939	0	0	8187	520171	0	0
2024-09-12 14:29:47			0	38729	0	0	0	26784	25410	153425	27038	1071751	46981	109927	0	0	8186	521036	0	0
2024-09-12 14:30:47			0	38743	0	0	0	26831	25410	153349	27095	1071777	46969	109945	0	0	8186	520509	0	0
2024-09-12 14:31:47			0	38750	0	0	0	26794	25410	153405	27225	1071751	46992	109931	0	0	8187	520246	0	0
2024-09-12 14:32:47			0	38726	0	0	0	26820	25410	153413	26908	1071751	46981	109941	0	0	8185	521149	0	0
2024-09-12 14:33:47			0	38730	0	0	0	26794	25400	153537	27216	1071742	46968	109931	0	0	8186	521028	0	0
2024-09-12 14:34:47			0	38729	0	0	0	26773	25400	153408	27234	1071733	46979	109923	0	0	8186	521066	0	0
2024-09-12 14:35:47			0	38728	0	0	0	26818	25410	153609	27124	1071724	46992	109940	0	0	8186	521074	0	0
2024-09-12 14:36:47			0	38724	0	0	0	26807	25390	153421	27020	1071768	46978	109936	0	0	8185	521283	0	0
2024-09-12 14:37:47			0	38737	0	0	0	26810	25390	153353	27327	1071697	46990	109937	0	0	8186	520794	0	0
2024-09-12 14:38:47			0	38732	0	0	0	26807	25400	153481	27031	1071733	47000	109936	0	0	8186	520953	0	0
2024-09-12 14:39:47			0	38749	0	0	0	26799	25390	153445	27147	1071634	46966	109933	0	0	8187	520343	0	0
2024-09-12 14:40:47			0	38744	0	0	0	26802	25390	153433	27351	1071688	46989	109934	0	0	8187	520531	0	0
2024-09-12 14:41:47			0	38742	0	0	0	26810	25400	153477	26993	1071759	47000	109937	0	0	8186	520576	0	0
2024-09-12 14:42:47			0	38750	0	0	0	26799	25400	153481	27329	1071786	47000	109933	0	0	8187	520275	0	0
2024-09-12 14:43:47			0	38748	0	0	0	26833	25400	153461	27124	1071759	46990	109946	0	0	8186	520351	0	0
2024-09-12 14:44:47			0	38752	0	0	0	26825	25390	153309	27107	1071697	46979	109943	0	0	8187	520230	0	0
2024-09-12 14:45:47			0	38766	0	0	0	26799	25400	153321	27046	1071742	46991	109933	0	0	8188	519674	0	0
2024-09-12 14:46:47			0	38766	0	0	0	26818	25390	153281	26986	1071741	46978	109940	0	0	8188	519703	0	0
2024-09-12 14:47:47			0	38781	0	0	0	26820	25400	153273	27293	1071733	46967	109941	0	0	8189	519110	0	0
2024-09-12 14:48:47			0	38772	0	0	0	26828	25400	153321	27161	1071786	46979	109944	0	0	8188	519448	0	0
2024-09-12 14:49:47			0	38778	0	0	0	26820	25410	153221	27175	1071804	46981	109941	0	0	8188	519193	0	0
2024-09-12 14:50:47			0	38791	0	0	0	26812	25390	153201	26772	1071777	46990	109938	0	0	8189	518764	0	0
2024-09-12 14:51:47			0	38796	0	0	0	26815	25400	153181	27112	1071786	46990	109939	0	0	8190	518547	0	0
2024-09-12 14:52:47			0	38793	0	0	0	26794	25410	153205	27244	1071724	46992	109931	0	0	8190	518630	0	0
2024-09-12 14:53:47			0	38780	0	0	0	26812	25400	153217	27229	1071786	46979	109938	0	0	8189	519148	0	0
2024-09-12 14:54:47			0	38797	0	0	0	26828	25400	153121	27107	1071813	46967	109944	0	0	8189	518509	0	0
2024-09-12 14:55:47			0	38806	0	0	0	26849	25400	153157	27419	1071759	47000	109952	0	0	8190	518172	0	0
2024-09-12 14:56:47			0	38806	0	0	0	26799	25410	153113	27267	1071804	46992	109933	0	0	8190	518142	0	0
2024-09-12 14:57:47			0	38798	0	0	0	26820	25410	153025	27197	1071777	46981	109941	0	0	8190	518442	0	0
2024-09-12 14:58:47			0	38806	0	0	0	26836	25410	153093	27364	1071804	46981	109947	0	0	8190	518142	0	0
2024-09-12 14:59:47			0	38802	0	0	0	26833	25410	153125	27092	1071804	46992	109946	0	0	8190	518292	0	0
2024-09-12 15:00:47			0	38816	0	0	0	26825	25400	153221	27249	1071768	46991	109943	0	0	8190	517797	0	0
2024-09-12 15:01:47			0	38820	0	0	0	26810	25410	153085	27322	1071804	46992	109937	0	0	8191	517617	0	0
2024-09-12 15:02:47			0	38804	0	0	0	26857	25390	153005	27282	1071831	46967	109955	0	0	8189	518276	0	0
2024-09-12 15:03:47			0	38818	0	0	0	26812	25410	152989	27265	1071840	46992	109938	0	0	8191	517692	0	0
2024-09-12 15:04:47			0	38814	0	0	0	26833	25400	153129	27267	1071795	46991	109946	0	0	8190	517872	0	0
2024-09-12 15:05:47			0	38809	0	0	0	26849	25410	153137	27345	1071777	46992	109952	0	0	8190	518030	0	0
2024-09-12 15:06:47			0	38818	0	0	0	26831	25400	153121	27305	1071822	46980	109945	0	0	8190	517722	0	0
2024-09-12 15:07:47			0	38828	0	0	0	26831	25400	153101	27642	1071822	46968	109945	0	0	8191	517347	0	0
2024-09-12 15:08:47			0	38830	0	0	0	26828	25410	153145	27279	1071831	46992	109944	0	0	8191	517242	0	0
2024-09-12 15:09:47			0	38829	0	0	0	26805	25410	153121	27187	1071777	46981	109935	0	0	8192	517280	0	0
2024-09-12 15:10:47			0	38793	0	0	0	26833	25410	153029	27239	1071777	46992	109946	0	0	8189	518630	0	0
2024-09-12 15:11:47			0	38834	0	0	0	26823	25410	153053	27524	1071813	47002	109942	0	0	8192	517092	0	0
2024-09-12 15:12:47			0	38830	0	0	0	26825	25410	152957	27502	1071760	46981	109943	0	0	8191	517242	0	0
2024-09-12 15:13:47			0	38831	0	0	0	26828	25410	153073	27478	1071804	46981	109944	0	0	8191	517205	0	0
2024-09-12 15:14:47			0	38847	0	0	0	26825	25410	152997	27183	1071840	46981	109943	0	0	8192	516605	0	0
2024-09-12 15:15:47			0	38817	0	0	0	26825	25410	152897	27332	1071804	46992	109943	0	0	8191	517730	0	0
2024-09-12 15:16:47			0	38843	0	0	0	26823	25400	152929	27267	1071768	46980	109942	0	0	8192	516785	0	0
2024-09-12 15:17:47			0	38831	0	0	0	26818	25410	153053	27114	1071840	46992	109940	0	0	8192	517205	0	0
2024-09-12 15:18:47			0	38833	0	0	0	26828	25410	152913	27105	1071858	46992	109944	0	0	8191	517130	0	0
2024-09-12 15:19:47			0	38852	0	0	0	26828	25410	152917	27223	1071840	46992	109944	0	0	8193	516418	0	0
2024-09-12 15:20:47			0	38847	0	0	0	26854	25410	152893	27156	1071777	46992	109954	0	0	8192	516605	0	0
2024-09-12 15:21:47			0	38848	0	0	0	26833	25400	152985	26927	1071795	46991	109946	0	0	8192	516597	0	0
2024-09-12 15:22:47			0	38868	0	0	0	26831	25410	152821	27426	1071858	46981	109945	0	0	8193	515819	0	0
2024-09-12 15:23:47			0	38861	0	0	0	26841	25410	152913	27178	1071813	46992	109949	0	0	8193	516081	0	0
2024-09-12 15:24:47			0	38862	0	0	0	26849	25410	152957	27196	1071867	46981	109952	0	0	8193	516044	0	0
2024-09-12 15:25:47			0	38862	0	0	0	26833	25420	152921	27460	1071903	46981	109946	0	0	8193	516014	0	0
2024-09-12 15:26:47			0	38868	0	0	0	26815	25410	152777	27185	1071840	46992	109939	0	0	8194	515819	0	0
2024-09-12 15:27:47			0	38877	0	0	0	26841	25400	152953	27459	1071768	46980	109949	0	0	8194	515512	0	0
2024-09-12 15:28:47			0	38869	0	0	0	26846	25420	152853	27751	1071876	46992	109951	0	0	8193	515753	0	0
2024-09-12 15:29:47			0	38878	0	0	0	26825	25420	152841	27511	1071930	47002	109943	0	0	8194	515416	0	0
2024-09-12 15:30:47			0	38864	0	0	0	26849	25420	152829	27448	1071876	47002	109952	0	0	8193	515940	0	0
2024-09-12 15:31:47			0	38874	0	0	0	26841	25420	152733	27360	1071939	46993	109949	0	0	8194	515565	0	0
2024-09-12 15:32:47			0	38898	0	0	0	26831	25420	152685	27215	1071903	46992	109945	0	0	8195	514668	0	0
2024-09-12 15:33:47			0	38895	0	0	0	26833	25420	152741	27133	1071876	46981	109946	0	0	8195	514780	0	0
2024-09-12 15:34:47			0	38883	0	0	0	26846	25420	152749	27201	1071876	46981	109951	0	0	8194	515229	0	0
2024-09-12 15:35:47			0	38899	0	0	0	26849	25420	152829	26835	1071796	46992	109952	0	0	8195	514631	0	0
2024-09-12 15:36:47			0	38912	0	0	0	26851	25420	152745	27144	1071831	46993	109953	0	0	8196	514145	0	0
2024-09-12 15:37:47			0	38919	0	0	0	26838	25430	152749	26868	1071921	46994	109948	0	0	8196	513855	0	0
2024-09-12 15:38:47			0	38895	0	0	0	26851	25420	152821	27138	1071903	47002	109953	0	0	8195	514780	0	0
2024-09-12 15:39:47			0	38910	0	0	0	26859	25430	152657	27260	1071921	46983	109956	0	0	8195	514191	0	0
2024-09-12 15:40:47			0	38905	0	0	0	26859	25440	152705	27144	1071966	46971	109956	0	0	8195	514348	0	0
2024-09-12 15:41:47			0	38916	0	0	0	26864	25420	152593	27300	1071939	47003	109958	0	0	8196	513996	0	0
2024-09-12 15:42:47			0	38928	0	0	0	26859	25420	152697	26899	1071912	46993	109956	0	0	8196	513548	0	0
2024-09-12 15:43:47			0	38924	0	0	0	26872	25440	152693	27308	1071993	46983	109961	0	0	8196	513639	0	0
2024-09-12 15:44:47			0	38908	0	0	0	26862	25430	152649	27178	1071921	47004	109957	0	0	8195	514265	0	0
2024-09-12 15:45:47			0	38933	0	0	0	26867	25440	152701	27466	1071975	47005	109959	0	0	8197	513303	0	0
2024-09-12 15:46:47			0	38914	0	0	0	26880	25440	152693	27313	1072020	46994	109964	0	0	8195	514012	0	0
2024-09-12 15:47:47			0	38894	0	0	0	26849	25440	152677	27364	1071993	46994	109952	0	0	8195	514759	0	0
2024-09-12 15:48:47			0	38928	0	0	0	26836	25440	152761	27074	1072029	46995	109947	0	0	8197	513490	0	0
2024-09-12 15:49:47			0	38907	0	0	0	26838	25440	152717	27239	1071975	46984	109948	0	0	8196	514274	0	0
2024-09-12 15:50:47			0	38928	0	0	0	26867	25430	152689	27481	1071903	46983	109959	0	0	8196	513519	0	0
2024-09-12 15:51:47			0	38897	0	0	0	26872	25430	152713	27298	1071984	46983	109961	0	0	8194	514676	0	0
2024-09-12 15:52:47			0	38891	0	0	0	26854	25430	152697	27301	1071957	46983	109954	0	0	8194	514901	0	0
2024-09-12 15:53:47			0	38906	0	0	0	26846	25420	152673	27218	1071966	46993	109951	0	0	8195	514369	0	0
2024-09-12 15:54:47			0	38895	0	0	0	26841	25430	152765	27182	1071921	46983	109949	0	0	8195	514751	0	0
2024-09-12 15:55:47			0	38886	0	0	0	26867	25430	152829	27265	1071957	46983	109959	0	0	8194	515087	0	0
2024-09-12 15:56:47			0	38876	0	0	0	26833	25430	152701	27327	1071930	46994	109946	0	0	8194	515461	0	0
2024-09-12 15:57:47			0	38867	0	0	0	26838	25430	152861	27371	1071894	46983	109948	0	0	8193	515798	0	0
2024-09-12 15:58:47			0	38869	0	0	0	26833	25430	152777	27256	1071921	46983	109946	0	0	8194	515723	0	0
2024-09-12 15:59:47			0	38878	0	0	0	26859	25430	153013	27341	1071921	46994	109956	0	0	8194	515387	0	0
2024-09-12 16:00:47			0	38859	0	0	0	26828	25430	152813	27405	1071930	46994	109944	0	0	8193	516097	0	0
2024-09-12 16:01:47			0	38854	0	0	0	26851	25430	152845	27313	1071877	46971	109953	0	0	8192	516285	0	0
2024-09-12 16:02:47			0	38839	0	0	0	26789	25440	152977	27078	1071832	46983	109929	0	0	8193	516817	0	0
2024-09-12 16:03:47			0	38837	0	0	0	26797	25420	152953	27124	1071885	46959	109932	0	0	8192	516951	0	0
2024-09-12 16:04:47			0	38830	0	0	0	26810	25410	153033	27310	1071813	46969	109937	0	0	8192	517242	0	0
2024-09-12 16:05:47			0	38827	0	0	0	26818	25410	153173	27164	1071777	46981	109940	0	0	8191	517355	0	0
2024-09-12 16:06:47			0	38830	0	0	0	26805	25420	153073	27545	1071822	46981	109935	0	0	8192	517213	0	0
2024-09-12 16:07:47			0	38820	0	0	0	26818	25410	153049	27107	1071733	46992	109940	0	0	8191	517617	0	0
2024-09-12 16:08:47			0	38813	0	0	0	26799	25410	153049	27093	1071751	46992	109933	0	0	8191	517880	0	0
2024-09-12 16:09:47			0	38824	0	0	0	26820	25410	153145	27235	1071777	46981	109941	0	0	8191	517467	0	0
2024-09-12 16:10:47			0	38816	0	0	0	26820	25410	153065	27282	1071777	46981	109941	0	0	8191	517767	0	0
2024-09-12 16:11:47			0	38841	0	0	0	26828	25410	153121	27301	1071777	46981	109944	0	0	8192	516830	0	0
2024-09-12 16:12:47			0	38827	0	0	0	26823	25410	153089	27320	1071804	46992	109942	0	0	8191	517355	0	0
2024-09-12 16:13:47			0	38818	0	0	0	26833	25410	153117	27220	1071777	46981	109946	0	0	8191	517692	0	0
2024-09-12 16:14:47			0	38830	0	0	0	26810	25410	153113	27500	1071804	46992	109937	0	0	8192	517242	0	0
2024-09-12 16:15:47			0	38823	0	0	0	26807	25410	153009	27105	1071751	46981	109936	0	0	8191	517505	0	0
2024-09-12 16:16:47			0	38845	0	0	0	26831	25400	153093	27234	1071795	46980	109945	0	0	8192	516710	0	0
2024-09-12 16:17:47			0	38850	0	0	0	26820	25390	153169	27270	1071750	46990	109941	0	0	8192	516552	0	0
2024-09-12 16:18:47			0	38837	0	0	0	26812	25410	153085	27374	1071840	46981	109938	0	0	8192	516980	0	0
2024-09-12 16:19:47			0	38830	0	0	0	26815	25410	153045	27216	1071831	46992	109939	0	0	8192	517242	0	0
2024-09-12 16:20:47			0	38849	0	0	0	26838	25410	153021	27223	1071858	46992	109948	0	0	8192	516530	0	0
2024-09-12 16:21:47			0	38836	0	0	0	26820	25410	153001	27320	1071840	46981	109941	0	0	8192	517018	0	0
2024-09-12 16:22:47			0	38846	0	0	0	26797	25400	153017	27469	1071795	47001	109932	0	0	8193	516672	0	0
2024-09-12 16:23:47			0	38839	0	0	0	26807	25400	153025	27412	1071768	46991	109936	0	0	8192	516934	0	0
2024-09-12 16:24:47			0	38844	0	0	0	26828	25400	153045	27289	1071786	46990	109944	0	0	8192	516747	0	0
2024-09-12 16:25:47			0	38840	0	0	0	26823	25400	153041	27235	1071795	46991	109942	0	0	8192	516897	0	0
2024-09-12 16:26:47			0	38851	0	0	0	26810	25400	153077	27211	1071795	47001	109937	0	0	8193	516485	0	0
2024-09-12 16:27:47			0	38832	0	0	0	26841	25400	153025	27270	1071849	47001	109949	0	0	8191	517197	0	0
2024-09-12 16:28:47			0	38868	0	0	0	26812	25410	153005	27187	1071813	46981	109938	0	0	8194	515819	0	0
2024-09-12 16:29:47			0	38846	0	0	0	26849	25410	152905	27317	1071831	46981	109952	0	0	8192	516643	0	0
2024-09-12 16:30:47			0	38855	0	0	0	26831	25420	152929	27524	1071876	46992	109945	0	0	8193	516277	0	0
2024-09-12 16:31:47			0	38838	0	0	0	26831	25410	153041	27135	1071840	46981	109945	0	0	8192	516942	0	0
2024-09-12 16:32:47			0	38857	0	0	0	26833	25410	152901	27369	1071831	47002	109946	0	0	8193	516231	0	0
2024-09-12 16:33:47			0	38867	0	0	0	26841	25420	152889	27263	1071849	46981	109949	0	0	8193	515827	0	0
2024-09-12 16:34:47			0	38861	0	0	0	26836	25410	152985	27159	1071947	46969	109947	0	0	8193	516081	0	0
2024-09-12 16:35:47			0	38852	0	0	0	26841	25410	152953	27374	1071894	47002	109949	0	0	8192	516418	0	0
2024-09-12 16:36:47			0	38860	0	0	0	26851	25420	152961	27348	1071885	46993	109953	0	0	8193	516089	0	0
2024-09-12 16:37:47			0	38868	0	0	0	26849	25420	152917	27163	1071912	46993	109952	0	0	8193	515790	0	0
2024-09-12 16:38:47			0	38871	0	0	0	26849	25420	152789	27345	1071876	46992	109952	0	0	8193	515678	0	0
2024-09-12 16:39:47			0	38871	0	0	0	26844	25420	152957	26918	1071966	46982	109950	0	0	8193	515678	0	0
2024-09-12 16:40:47			0	38865	0	0	0	26815	25430	152921	27081	1071894	46994	109939	0	0	8194	515873	0	0
2024-09-12 16:41:47			0	38857	0	0	0	26841	25420	152941	27246	1071858	46970	109949	0	0	8193	516202	0	0
2024-09-12 16:42:47			0	38865	0	0	0	26838	25420	152913	27081	1071956	46992	109948	0	0	8193	515902	0	0
2024-09-12 16:43:47			0	38866	0	0	0	26844	25420	152985	26757	1071930	46981	109950	0	0	8193	515865	0	0
2024-09-12 16:44:47			0	38865	0	0	0	26862	25410	152917	27085	1071947	47002	109957	0	0	8193	515932	0	0
2024-09-12 16:45:47			0	38889	0	0	0	26872	25430	152909	27208	1071948	47004	109961	0	0	8194	514975	0	0
2024-09-12 16:46:47			0	38884	0	0	0	26825	25420	152905	27092	1071885	46970	109943	0	0	8194	515192	0	0
2024-09-12 16:47:47			0	38892	0	0	0	26844	25420	152869	27081	1071885	46993	109950	0	0	8195	514892	0	0
2024-09-12 16:48:47			0	38878	0	0	0	26836	25430	152981	27209	1071903	46983	109947	0	0	8194	515387	0	0
2024-09-12 16:49:47			0	38879	0	0	0	26854	25430	153045	27031	1071957	46994	109954	0	0	8194	515349	0	0
2024-09-12 16:50:47			0	38891	0	0	0	26849	25430	152993	27312	1071948	46994	109952	0	0	8195	514901	0	0
2024-09-12 16:51:47			0	38895	0	0	0	26857	25430	152833	27351	1071921	46994	109955	0	0	8195	514751	0	0
2024-09-12 16:52:47			0	38865	0	0	0	26880	25430	152861	26967	1072011	46994	109964	0	0	8192	515873	0	0
2024-09-12 16:53:47			0	38880	0	0	0	26859	25420	152877	27204	1071983	47002	109956	0	0	8194	515341	0	0
2024-09-12 16:54:47			0	38873	0	0	0	26836	25440	152993	27199	1071939	46994	109947	0	0	8194	515544	0	0
2024-09-12 16:55:47			0	38873	0	0	0	26844	25430	152933	27405	1071921	46983	109950	0	0	8194	515574	0	0
2024-09-12 16:56:47			0	38878	0	0	0	26859	25430	152881	27190	1071957	46994	109956	0	0	8194	515387	0	0
2024-09-12 16:57:47			0	38875	0	0	0	26849	25420	152865	27303	1071939	46982	109952	0	0	8194	515528	0	0
2024-09-12 16:58:47			0	38863	0	0	0	26838	25430	152865	27441	1071894	46994	109948	0	0	8193	515948	0	0
2024-09-12 16:59:47			0	38870	0	0	0	26828	25420	152893	27189	1071912	46982	109944	0	0	8194	515715	0	0
2024-09-12 17:00:47			0	38864	0	0	0	26812	25420	152937	27069	1071885	46993	109938	0	0	8194	515940	0	0
2024-09-12 17:01:47			0	38868	0	0	0	26854	25420	152917	26994	1071885	46970	109954	0	0	8193	515790	0	0
2024-09-12 17:02:47			0	38854	0	0	0	26836	25410	152965	27244	1071867	46981	109947	0	0	8193	516343	0	0
2024-09-12 17:03:47			0	38864	0	0	0	26820	25420	152949	27428	1071912	46982	109941	0	0	8193	515940	0	0
2024-09-12 17:04:47			0	38863	0	0	0	26846	25410	153037	26977	1071921	46981	109951	0	0	8193	516006	0	0
2024-09-12 17:05:47			0	38867	0	0	0	26831	25430	152897	26873	1072002	46983	109945	0	0	8193	515798	0	0
2024-09-12 17:06:47			0	38853	0	0	0	26828	25410	153021	27131	1071858	46981	109944	0	0	8193	516381	0	0
2024-09-12 17:07:47			0	38839	0	0	0	26828	25410	152945	26991	1071885	46981	109944	0	0	8192	516905	0	0
2024-09-12 17:08:47			0	38821	0	0	0	26828	25420	152925	27242	1071849	46992	109944	0	0	8191	517550	0	0
2024-09-12 17:09:47			0	38830	0	0	0	26831	25420	152909	27206	1071930	46981	109945	0	0	8191	517213	0	0
2024-09-12 17:10:47			0	38850	0	0	0	26828	25420	153021	27196	1071849	46981	109944	0	0	8192	516464	0	0
2024-09-12 17:11:47			0	38827	0	0	0	26841	25420	152965	27379	1071876	46981	109949	0	0	8191	517325	0	0
2024-09-12 17:12:47			0	38827	0	0	0	26825	25410	152941	27185	1071867	46981	109943	0	0	8191	517355	0	0
2024-09-12 17:13:47			0	38842	0	0	0	26820	25410	152989	27111	1071867	46992	109941	0	0	8192	516793	0	0
2024-09-12 17:14:47			0	38812	0	0	0	26825	25410	152981	27254	1071885	46992	109943	0	0	8190	517917	0	0
2024-09-12 17:15:47			0	38804	0	0	0	26807	25400	152989	27098	1071876	46980	109936	0	0	8190	518247	0	0
2024-09-12 17:16:47			0	38811	0	0	0	26823	25410	152993	27246	1071831	46992	109942	0	0	8190	517955	0	0
2024-09-12 17:17:47			0	38821	0	0	0	26833	25410	153053	27196	1071858	46981	109946	0	0	8191	517580	0	0
2024-09-12 17:18:47			0	38819	0	0	0	26818	25410	153073	26823	1071813	46992	109940	0	0	8191	517655	0	0
2024-09-12 17:19:47			0	38809	0	0	0	26815	25410	152993	27175	1071813	46969	109939	0	0	8190	518030	0	0
2024-09-12 17:20:47			0	38817	0	0	0	26789	25400	152961	27339	1071759	46979	109929	0	0	8191	517759	0	0
2024-09-12 17:21:47			0	38789	0	0	0	26799	25410	153033	27419	1071858	46981	109933	0	0	8189	518780	0	0
2024-09-12 17:22:47			0	38786	0	0	0	26802	25400	153049	27183	1071786	46979	109934	0	0	8189	518922	0	0
2024-09-12 17:23:47			0	38816	0	0	0	26833	25400	153045	27180	1071813	46979	109946	0	0	8190	517797	0	0
2024-09-12 17:24:47			0	38789	0	0	0	26823	25400	153209	27209	1071786	46990	109942	0	0	8189	518810	0	0
2024-09-12 17:25:47			0	38797	0	0	0	26815	25400	153041	26949	1071742	46991	109939	0	0	8190	518509	0	0
2024-09-12 17:26:47			0	38801	0	0	0	26810	25400	153069	27317	1071822	46991	109937	0	0	8190	518359	0	0
2024-09-12 17:27:47			0	38778	0	0	0	26805	25400	153157	26934	1071742	46968	109935	0	0	8189	519223	0	0
2024-09-12 17:28:47			0	38819	0	0	0	26797	25400	153109	26970	1071840	46979	109932	0	0	8191	517684	0	0
2024-09-12 17:29:47			0	38803	0	0	0	26797	25400	153121	27286	1071822	46980	109932	0	0	8190	518284	0	0
2024-09-12 17:30:47			0	38797	0	0	0	26802	25400	153189	27178	1071759	46990	109934	0	0	8190	518509	0	0
2024-09-12 17:31:47			0	38791	0	0	0	26823	25390	153097	27083	1071804	46979	109942	0	0	8189	518764	0	0
2024-09-12 17:32:47			0	38815	0	0	0	26812	25400	153129	27381	1071822	47001	109938	0	0	8191	517834	0	0
2024-09-12 17:33:47			0	38815	0	0	0	26820	25400	153057	27034	1071813	46979	109941	0	0	8191	517834	0	0
2024-09-12 17:34:47			0	38786	0	0	0	26802	25390	153133	26837	1071750	46990	109934	0	0	8189	518952	0	0
2024-09-12 17:35:47			0	38796	0	0	0	26784	25390	153173	26996	1071750	46967	109927	0	0	8190	518576	0	0
2024-09-12 17:36:47			0	38807	0	0	0	26810	25390	153117	27138	1071741	46966	109937	0	0	8190	518164	0	0
2024-09-12 17:37:47			0	38795	0	0	0	26825	25390	153081	27060	1071724	46979	109943	0	0	8189	518614	0	0
2024-09-12 17:38:47			0	38803	0	0	0	26833	25390	153033	27196	1071831	46990	109946	0	0	8190	518314	0	0
2024-09-12 17:39:47			0	38797	0	0	0	26799	25400	153041	26958	1071786	46990	109933	0	0	8190	518509	0	0
2024-09-12 17:40:47			0	38806	0	0	0	26799	25400	153085	27251	1071813	46990	109933	0	0	8190	518172	0	0
2024-09-12 17:41:47			0	38793	0	0	0	26792	25400	153117	27471	1071813	46967	109930	0	0	8190	518660	0	0
2024-09-12 17:42:47			0	38827	0	0	0	26836	25400	153061	26805	1071759	46979	109947	0	0	8191	517384	0	0
2024-09-12 17:43:47			0	38814	0	0	0	26812	25390	152933	26998	1071795	46978	109938	0	0	8191	517901	0	0
2024-09-12 17:44:47			0	38805	0	0	0	26810	25390	153057	26901	1071804	46979	109937	0	0	8190	518239	0	0
2024-09-12 17:45:47			0	38813	0	0	0	26825	25400	153081	26750	1071768	46968	109943	0	0	8190	517909	0	0
2024-09-12 17:46:47			0	38819	0	0	0	26794	25400	153005	27031	1071759	46990	109931	0	0	8191	517684	0	0
2024-09-12 17:47:47			0	38797	0	0	0	26823	25400	153021	26847	1071759	46967	109942	0	0	8189	518509	0	0
2024-09-12 17:48:47			0	38807	0	0	0	26844	25400	153077	26798	1071759	46990	109950	0	0	8190	518134	0	0
2024-09-12 17:49:47			0	38809	0	0	0	26805	25400	153113	26791	1071795	46968	109935	0	0	8190	518059	0	0
2024-09-12 17:50:47			0	38802	0	0	0	26797	25400	153069	27055	1071733	46990	109932	0	0	8190	518322	0	0
2024-09-12 17:51:47			0	38814	0	0	0	26812	25400	153001	26868	1071840	46990	109938	0	0	8191	517872	0	0
2024-09-12 17:52:47			0	38802	0	0	0	26833	25400	153061	27067	1071867	46990	109946	0	0	8190	518322	0	0
2024-09-12 17:53:47			0	38792	0	0	0	26825	25390	153097	27422	1071804	46990	109943	0	0	8189	518727	0	0
2024-09-12 17:54:47			0	38801	0	0	0	26841	25400	153081	27209	1071903	46991	109949	0	0	8189	518359	0	0
2024-09-12 17:55:47			0	38810	0	0	0	26815	25390	153097	27230	1071750	46990	109939	0	0	8190	518051	0	0
2024-09-12 17:56:47			0	38791	0	0	0	26828	25400	153001	27409	1071813	46979	109944	0	0	8189	518735	0	0
2024-09-12 17:57:47			0	38788	0	0	0	26828	25410	153149	26948	1071831	47002	109944	0	0	8189	518818	0	0
2024-09-12 17:58:47			0	38805	0	0	0	26849	25400	153133	26953	1071822	46991	109952	0	0	8189	518209	0	0
2024-09-12 17:59:47			0	38829	0	0	0	26828	25400	153117	27208	1071903	46980	109944	0	0	8191	517309	0	0
2024-09-12 18:00:47			0	38798	0	0	0	26799	25410	153157	27386	1071858	46981	109933	0	0	8190	518442	0	0
2024-09-12 18:01:47			0	38779	0	0	0	26781	25410	153073	27176	1071858	46969	109926	0	0	8189	519156	0	0
2024-09-12 18:02:47			0	38788	0	0	0	26820	25400	153149	27334	1071759	46979	109941	0	0	8189	518847	0	0
2024-09-12 18:03:47			0	38798	0	0	0	26792	25400	153121	27039	1071795	46980	109930	0	0	8190	518472	0	0
2024-09-12 18:04:47			0	38773	0	0	0	26820	25400	153197	27029	1071733	46967	109941	0	0	8188	519411	0	0
2024-09-12 18:05:47			0	38768	0	0	0	26755	25390	153109	27298	1071715	46989	109916	0	0	8189	519628	0	0
2024-09-12 18:06:47			0	38763	0	0	0	26802	25390	153157	27249	1071697	46967	109934	0	0	8188	519816	0	0
2024-09-12 18:07:47			0	38764	0	0	0	26802	25390	153153	27294	1071768	46978	109934	0	0	8188	519779	0	0
2024-09-12 18:08:47			0	38767	0	0	0	26794	25390	153161	27012	1071768	46989	109931	0	0	8188	519666	0	0
2024-09-12 18:09:47			0	38752	0	0	0	26805	25390	153189	27253	1071750	46990	109935	0	0	8187	520230	0	0
2024-09-12 18:10:47			0	38749	0	0	0	26797	25390	153145	27338	1071688	46989	109932	0	0	8187	520343	0	0
2024-09-12 18:11:47			0	38756	0	0	0	26784	25380	153209	27369	1071705	46989	109927	0	0	8188	520109	0	0
2024-09-12 18:12:47			0	38737	0	0	0	26794	25380	153357	26923	1071696	46965	109931	0	0	8186	520824	0	0
2024-09-12 18:13:47			0	38737	0	0	0	26773	25380	153421	27154	1071643	46977	109923	0	0	8187	520824	0	0
2024-09-12 18:14:47			0	38744	0	0	0	26763	25380	153425	27007	1071670	46988	109919	0	0	8187	520560	0	0
2024-09-12 18:15:47			0	38727	0	0	0	26792	25370	153380	27171	1071634	46987	109930	0	0	8186	521230	0	0
2024-09-12 18:16:47			0	38743	0	0	0	26781	25380	153377	27254	1071705	46989	109926	0	0	8187	520598	0	0
2024-09-12 18:17:47			0	38734	0	0	0	26753	25380	153436	27138	1071643	46977	109915	0	0	8187	520937	0	0
2024-09-12 18:18:47			0	38728	0	0	0	26763	25370	153380	27069	1071634	46976	109919	0	0	8186	521192	0	0
2024-09-12 18:19:47			0	38722	0	0	0	26794	25370	153477	27057	1071687	46964	109931	0	0	8185	521418	0	0
2024-09-12 18:20:47			0	38723	0	0	0	26776	25380	153468	27429	1071643	46988	109924	0	0	8186	521351	0	0
2024-09-12 18:21:47			0	38717	0	0	0	26750	25370	153360	26918	1071571	46987	109914	0	0	8186	521606	0	0
2024-09-12 18:22:47			0	38711	0	0	0	26755	25370	153476	27371	1071625	46976	109916	0	0	8186	521833	0	0
2024-09-12 18:23:47			0	38711	0	0	0	26745	25350	153444	27090	1071544	46996	109912	0	0	8186	521892	0	0
2024-09-12 18:24:47			0	38706	0	0	0	26768	25360	153540	27343	1071633	46986	109921	0	0	8185	522050	0	0
2024-09-12 18:25:47			0	38708	0	0	0	26750	25350	153468	27168	1071624	46974	109914	0	0	8185	522005	0	0
2024-09-12 18:26:47			0	38704	0	0	0	26727	25340	153488	27156	1071499	46974	109905	0	0	8185	522185	0	0
2024-09-12 18:27:47			0	38693	0	0	0	26753	25340	153472	27441	1071526	46962	109915	0	0	8184	522600	0	0
2024-09-12 18:28:47			0	38711	0	0	0	26719	25350	153396	27173	1071508	46974	109902	0	0	8186	521892	0	0
2024-09-12 18:29:47			0	38683	0	0	0	26727	25340	153484	27282	1071463	46961	109905	0	0	8184	522977	0	0
2024-09-12 18:30:47			0	38698	0	0	0	26750	25340	153508	27007	1071490	46973	109914	0	0	8185	522411	0	0
2024-09-12 18:31:47			0	38690	0	0	0	26755	25330	153436	27196	1071481	46971	109916	0	0	8184	522743	0	0
2024-09-12 18:32:47			0	38717	0	0	0	26737	25340	153496	27164	1071490	46973	109909	0	0	8186	521695	0	0
2024-09-12 18:33:47			0	38706	0	0	0	26750	25330	153512	26970	1071481	46960	109914	0	0	8185	522139	0	0
2024-09-12 18:34:47			0	38713	0	0	0	26755	25340	153472	27502	1071463	46973	109916	0	0	8185	521846	0	0
2024-09-12 18:35:47			0	38718	0	0	0	26740	25330	153360	27223	1071481	46971	109910	0	0	8186	521687	0	0
2024-09-12 18:36:47			0	38724	0	0	0	26753	25340	153397	27284	1071490	46984	109915	0	0	8186	521432	0	0
2024-09-12 18:37:47			0	38714	0	0	0	26745	25340	153364	27436	1071517	46984	109912	0	0	8186	521808	0	0
2024-09-12 18:38:47			0	38706	0	0	0	26758	25320	153360	27312	1071436	46982	109917	0	0	8185	522169	0	0
2024-09-12 18:39:47			0	38717	0	0	0	26755	25330	153588	26979	1071499	46971	109916	0	0	8186	521725	0	0
2024-09-12 18:40:47			0	38721	0	0	0	26740	25330	153428	27142	1071499	46971	109910	0	0	8186	521574	0	0
2024-09-12 18:41:47			0	38722	0	0	0	26719	25320	153385	27118	1071383	46982	109902	0	0	8187	521566	0	0
2024-09-12 18:42:47			0	38725	0	0	0	26732	25330	153516	27020	1071445	46971	109907	0	0	8187	521424	0	0
2024-09-12 18:43:47			0	38715	0	0	0	26729	25330	153384	27154	1071427	46983	109906	0	0	8186	521800	0	0
2024-09-12 18:44:47			0	38724	0	0	0	26719	25330	153389	27242	1071445	46983	109902	0	0	8187	521461	0	0
2024-09-12 18:45:47			0	38727	0	0	0	26735	25330	153472	27270	1071445	46960	109908	0	0	8187	521348	0	0
2024-09-12 18:46:47			0	38717	0	0	0	26737	25320	153452	27393	1071374	46982	109909	0	0	8186	521755	0	0
2024-09-12 18:47:47			0	38724	0	0	0	26753	25330	153509	27435	1071445	46971	109915	0	0	8186	521461	0	0
2024-09-12 18:48:47			0	38724	0	0	0	26768	25340	153500	27332	1071490	46995	109921	0	0	8186	521432	0	0
2024-09-12 18:49:47			0	38726	0	0	0	26755	25320	153473	27287	1071534	46982	109916	0	0	8186	521415	0	0
2024-09-12 18:50:47			0	38709	0	0	0	26763	25330	153468	27133	1071535	46983	109919	0	0	8185	522026	0	0
2024-09-12 18:51:47			0	38744	0	0	0	26786	25330	153433	27034	1071535	46983	109928	0	0	8187	520708	0	0
2024-09-12 18:52:47			0	38735	0	0	0	26761	25330	153377	27163	1071561	46971	109918	0	0	8187	521047	0	0
2024-09-12 18:53:47			0	38757	0	0	0	26784	25330	153469	27194	1071588	46994	109927	0	0	8187	520219	0	0
2024-09-12 18:54:47			0	38741	0	0	0	26773	25340	153473	27251	1071490	46995	109923	0	0	8187	520791	0	0
2024-09-12 18:55:47			0	38755	0	0	0	26807	25350	153413	27244	1071615	46985	109936	0	0	8187	520235	0	0
2024-09-12 18:56:47			0	38781	0	0	0	26794	25340	153273	27519	1071580	46996	109931	0	0	8189	519287	0	0
2024-09-12 18:57:47			0	38797	0	0	0	26818	25350	153201	27157	1071678	46996	109940	0	0	8189	518657	0	0
2024-09-12 18:58:47			0	38807	0	0	0	26812	25360	153165	27090	1071714	46986	109938	0	0	8190	518252	0	0
2024-09-12 18:59:47			0	38798	0	0	0	26786	25370	153113	27121	1071678	46976	109928	0	0	8190	518560	0	0
2024-09-12 19:00:47			0	38792	0	0	0	26789	25370	153145	27260	1071741	46998	109929	0	0	8190	518786	0	0
2024-09-12 19:01:47			0	38798	0	0	0	26828	25370	153113	27374	1071741	46976	109944	0	0	8189	518560	0	0
2024-09-12 19:02:47			0	38790	0	0	0	26828	25370	153133	27287	1071687	46987	109944	0	0	8189	518861	0	0
2024-09-12 19:03:47			0	38804	0	0	0	26812	25380	153009	27277	1071777	46988	109938	0	0	8190	518306	0	0
2024-09-12 19:04:47			0	38778	0	0	0	26784	25370	153133	27369	1071634	46987	109927	0	0	8189	519311	0	0
2024-09-12 19:05:47			0	38785	0	0	0	26820	25370	153065	26993	1071714	46987	109941	0	0	8189	519048	0	0
2024-09-12 19:06:47			0	38798	0	0	0	26818	25380	153141	27324	1071696	46977	109940	0	0	8189	518531	0	0
2024-09-12 19:07:47			0	38807	0	0	0	26844	25380	153125	27436	1071857	46999	109950	0	0	8190	518193	0	0
2024-09-12 19:08:47			0	38814	0	0	0	26836	25400	153089	27012	1071759	46990	109947	0	0	8190	517872	0	0
2024-09-12 19:09:47			0	38809	0	0	0	26849	25400	153073	27235	1071894	46990	109952	0	0	8190	518059	0	0
2024-09-12 19:10:47			0	38819	0	0	0	26818	25390	153045	27336	1071831	47000	109940	0	0	8191	517713	0	0
2024-09-12 19:11:47			0	38805	0	0	0	26818	25400	153061	27367	1071867	46990	109940	0	0	8190	518209	0	0
2024-09-12 19:12:47			0	38816	0	0	0	26851	25400	153069	27403	1071903	46980	109953	0	0	8190	517797	0	0
2024-09-12 19:13:47			0	38814	0	0	0	26838	25400	153045	26974	1071876	46980	109948	0	0	8190	517872	0	0
2024-09-12 19:14:47			0	38820	0	0	0	26841	25400	152913	27128	1071947	46979	109949	0	0	8190	517647	0	0
2024-09-12 19:15:47			0	38821	0	0	0	26851	25410	152921	27258	1071912	47002	109953	0	0	8190	517580	0	0
2024-09-12 19:16:47			0	38826	0	0	0	26857	25420	152921	27187	1072010	46969	109955	0	0	8191	517363	0	0
2024-09-12 19:17:47			0	38812	0	0	0	26870	25410	152973	27175	1071992	46992	109960	0	0	8190	517917	0	0
2024-09-12 19:18:47			0	38817	0	0	0	26859	25410	152957	27034	1071947	46981	109956	0	0	8190	517730	0	0
2024-09-12 19:19:47			0	38855	0	0	0	26870	25420	152965	26876	1072064	46992	109960	0	0	8192	516277	0	0
2024-09-12 19:20:47			0	38826	0	0	0	26883	25420	152897	27024	1072010	46992	109965	0	0	8190	517363	0	0
2024-09-12 19:21:47			0	38839	0	0	0	26859	25420	152929	27159	1071966	46982	109956	0	0	8191	516876	0	0
2024-09-12 19:22:47			0	38818	0	0	0	26838	25430	152857	27059	1071984	47004	109948	0	0	8191	517633	0	0
2024-09-12 19:23:47			0	38822	0	0	0	26883	25430	152881	27098	1072029	46971	109965	0	0	8190	517483	0	0
2024-09-12 19:24:47			0	38831	0	0	0	26880	25430	152989	26883	1072029	46983	109964	0	0	8191	517146	0	0
2024-09-12 19:25:47			0	38809	0	0	0	26836	25430	153061	27173	1072002	46994	109947	0	0	8190	517971	0	0
2024-09-12 19:26:47			0	38785	0	0	0	26841	25420	153069	27263	1071966	46982	109949	0	0	8189	518901	0	0
2024-09-12 19:27:47			0	38785	0	0	0	26818	25430	153041	27076	1072002	46983	109940	0	0	8189	518872	0	0
2024-09-12 19:28:47			0	38779	0	0	0	26831	25430	153049	26880	1071975	46971	109945	0	0	8188	519097	0	0
2024-09-12 19:29:47			0	38781	0	0	0	26833	25420	153157	27111	1071876	46981	109946	0	0	8188	519051	0	0
2024-09-12 19:30:47			0	38779	0	0	0	26825	25420	153209	27203	1071939	46982	109943	0	0	8188	519126	0	0
2024-09-12 19:31:47			0	38767	0	0	0	26807	25420	153157	27137	1071876	46981	109936	0	0	8188	519577	0	0
2024-09-12 19:32:47			0	38768	0	0	0	26815	25410	153241	27339	1071867	46981	109939	0	0	8188	519569	0	0
2024-09-12 19:33:47			0	38755	0	0	0	26807	25410	153273	27218	1071858	46981	109936	0	0	8187	520058	0	0
2024-09-12 19:34:47			0	38758	0	0	0	26802	25410	153253	27083	1071831	46981	109934	0	0	8188	519945	0	0
2024-09-12 19:35:47			0	38784	0	0	0	26831	25400	153277	27152	1071894	46979	109945	0	0	8189	518998	0	0
2024-09-12 19:36:47			0	38766	0	0	0	26805	25410	153121	26873	1071786	46992	109935	0	0	8188	519644	0	0
2024-09-12 19:37:47			0	38766	0	0	0	26810	25400	153301	27203	1071822	46991	109937	0	0	8188	519674	0	0
2024-09-12 19:38:47			0	38758	0	0	0	26761	25400	153261	27154	1071786	46979	109918	0	0	8188	519975	0	0
2024-09-12 19:39:47			0	38733	0	0	0	26815	25390	153365	27086	1071777	46957	109939	0	0	8186	520945	0	0
2024-09-12 19:40:47			0	38757	0	0	0	26771	25390	153361	27154	1071822	46978	109922	0	0	8188	520042	0	0
2024-09-12 19:41:47			0	38739	0	0	0	26773	25390	153429	27228	1071795	46978	109923	0	0	8187	520719	0	0
2024-09-12 19:42:47			0	38740	0	0	0	26776	25390	153441	26911	1071777	46979	109924	0	0	8187	520681	0	0
2024-09-12 19:43:47			0	38758	0	0	0	26807	25390	153333	27260	1071795	46978	109936	0	0	8187	520004	0	0
2024-09-12 19:44:47			0	38748	0	0	0	26792	25390	153325	27268	1071822	46978	109930	0	0	8187	520380	0	0
2024-09-12 19:45:47			0	38757	0	0	0	26815	25390	153441	26972	1071768	46978	109939	0	0	8187	520042	0	0
2024-09-12 19:46:47			0	38770	0	0	0	26815	25390	153293	27324	1071804	46990	109939	0	0	8188	519553	0	0
2024-09-12 19:47:47			0	38768	0	0	0	26812	25390	153205	27116	1071804	46957	109938	0	0	8188	519628	0	0
2024-09-12 19:48:47			0	38768	0	0	0	26815	25400	153277	27260	1071759	46990	109939	0	0	8188	519599	0	0
2024-09-12 19:49:47			0	38788	0	0	0	26831	25400	153281	26902	1071813	46990	109945	0	0	8189	518847	0	0
2024-09-12 19:50:47			0	38793	0	0	0	26825	25400	153197	27279	1071849	46991	109943	0	0	8189	518660	0	0
2024-09-12 19:51:47			0	38793	0	0	0	26831	25400	153221	27338	1071867	46990	109945	0	0	8189	518660	0	0
2024-09-12 19:52:47			0	38783	0	0	0	26812	25400	153185	27185	1071903	47001	109938	0	0	8189	519035	0	0
2024-09-12 19:53:47			0	38780	0	0	0	26810	25410	153289	27230	1071858	46981	109937	0	0	8189	519118	0	0
2024-09-12 19:54:47			0	38772	0	0	0	26810	25390	153301	27421	1071768	46978	109937	0	0	8188	519478	0	0
2024-09-12 19:55:47			0	38791	0	0	0	26836	25400	153165	27284	1071867	46979	109947	0	0	8189	518735	0	0
2024-09-12 19:56:47			0	38792	0	0	0	26818	25410	153109	27274	1071885	46969	109940	0	0	8189	518668	0	0
2024-09-12 19:57:47			0	38793	0	0	0	26831	25400	153153	27220	1071867	46990	109945	0	0	8189	518660	0	0
2024-09-12 19:58:47			0	38769	0	0	0	26818	25400	153293	27130	1071894	46979	109940	0	0	8188	519561	0	0
2024-09-12 19:59:47			0	38786	0	0	0	26820	25390	153205	27317	1071831	46967	109941	0	0	8189	518952	0	0
2024-09-12 20:00:47			0	38772	0	0	0	26815	25410	153213	27161	1071858	46992	109939	0	0	8188	519419	0	0
2024-09-12 20:01:47			0	38778	0	0	0	26849	25410	153261	27398	1071912	46992	109952	0	0	8188	519193	0	0
2024-09-12 20:02:47			0	38797	0	0	0	26828	25410	153121	27453	1071947	47002	109944	0	0	8189	518480	0	0
2024-09-12 20:03:47			0	38781	0	0	0	26810	25410	153245	27287	1071858	46981	109937	0	0	8189	519081	0	0
2024-09-12 20:04:47			0	38729	0	0	0	26815	25410	153236	27182	1071858	46969	109939	0	0	8186	521036	0	0
2024-09-12 20:05:47			0	38752	0	0	0	26810	25400	153277	27076	1071795	46980	109937	0	0	8187	520200	0	0
2024-09-12 20:06:47			0	38755	0	0	0	26797	25400	153373	27412	1071840	46990	109932	0	0	8187	520087	0	0
2024-09-12 20:07:47			0	38734	0	0	0	26763	25390	153341	27333	1071777	46979	109919	0	0	8187	520907	0	0
2024-09-12 20:08:47			0	38705	0	0	0	26799	25390	153440	27324	1071750	46967	109933	0	0	8185	521999	0	0
2024-09-12 20:09:47			0	38707	0	0	0	26794	25390	153456	27260	1071777	46979	109931	0	0	8185	521924	0	0
2024-09-12 20:10:47			0	38690	0	0	0	26815	25390	153492	27310	1071750	46979	109939	0	0	8183	522565	0	0
2024-09-12 20:11:47			0	38707	0	0	0	26794	25390	153496	27364	1071804	46979	109931	0	0	8185	521924	0	0
2024-09-12 20:12:47			0	38709	0	0	0	26799	25400	153504	26996	1071813	46990	109933	0	0	8185	521819	0	0
2024-09-12 20:13:47			0	38693	0	0	0	26807	25380	153532	27211	1071732	46989	109936	0	0	8184	522481	0	0
2024-09-12 20:14:47			0	38703	0	0	0	26773	25380	153504	27076	1071732	46978	109923	0	0	8185	522104	0	0
2024-09-12 20:15:47			0	38690	0	0	0	26779	25390	153616	27050	1071795	46966	109925	0	0	8184	522565	0	0
2024-09-12 20:16:47			0	38705	0	0	0	26802	25380	153644	27469	1071643	46977	109934	0	0	8184	522029	0	0
2024-09-12 20:17:47			0	38692	0	0	0	26797	25380	153616	27253	1071723	46977	109932	0	0	8184	522519	0	0
2024-09-12 20:18:47			0	38703	0	0	0	26779	25380	153652	27345	1071723	46977	109925	0	0	8185	522104	0	0
2024-09-12 20:19:47			0	38692	0	0	0	26786	25370	153640	27182	1071687	46976	109928	0	0	8184	522549	0	0
2024-09-12 20:20:47			0	38698	0	0	0	26766	25380	153644	27072	1071723	46977	109920	0	0	8185	522293	0	0
2024-09-12 20:21:47			0	38685	0	0	0	26755	25370	153592	27274	1071705	46976	109916	0	0	8184	522813	0	0
2024-09-12 20:22:47			0	38673	0	0	0	26773	25370	153748	27085	1071705	46964	109923	0	0	8183	523265	0	0
2024-09-12 20:23:47			0	38686	0	0	0	26797	25370	153620	27246	1071678	46998	109932	0	0	8183	522775	0	0
2024-09-12 20:24:47			0	38691	0	0	0	26773	25380	153624	27071	1071732	46989	109923	0	0	8184	522557	0	0
2024-09-12 20:25:47			0	38698	0	0	0	26768	25370	153612	27428	1071687	46976	109921	0	0	8185	522322	0	0
2024-09-12 20:26:47			0	38684	0	0	0	26799	25360	153568	27355	1071607	46975	109933	0	0	8183	522880	0	0
2024-09-12 20:27:47			0	38702	0	0	0	26789	25360	153620	27296	1071687	46963	109929	0	0	8184	522201	0	0
2024-09-12 20:28:47			0	38713	0	0	0	26792	25370	153572	27298	1071678	46976	109930	0	0	8185	521757	0	0
2024-09-12 20:29:47			0	38683	0	0	0	26763	25370	153696	27104	1071678	46964	109919	0	0	8184	522888	0	0
2024-09-12 20:30:47			0	38677	0	0	0	26761	25370	153656	27046	1071661	46976	109918	0	0	8183	523115	0	0
2024-09-12 20:31:47			0	38695	0	0	0	26792	25380	153608	27067	1071696	46988	109930	0	0	8184	522406	0	0
2024-09-12 20:32:47			0	38685	0	0	0	26742	25370	153664	27253	1071705	46987	109911	0	0	8184	522813	0	0
2024-09-12 20:33:47			0	38677	0	0	0	26761	25360	153664	27036	1071633	46986	109918	0	0	8183	523144	0	0
2024-09-12 20:34:47			0	38706	0	0	0	26771	25350	153576	27078	1071624	46985	109922	0	0	8185	522080	0	0
2024-09-12 20:35:47			0	38678	0	0	0	26771	25350	153700	27072	1071669	46962	109922	0	0	8183	523136	0	0
2024-09-12 20:36:47			0	38680	0	0	0	26771	25350	153636	26977	1071624	46974	109922	0	0	8183	523061	0	0
2024-09-12 20:37:47			0	38705	0	0	0	26766	25370	153656	26703	1071705	46987	109920	0	0	8185	522058	0	0
2024-09-12 20:38:47			0	38664	0	0	0	26753	25350	153568	27274	1071598	46974	109915	0	0	8183	523665	0	0
2024-09-12 20:39:47			0	38677	0	0	0	26773	25360	153676	27183	1071607	46963	109923	0	0	8183	523144	0	0
2024-09-12 20:40:47			0	38667	0	0	0	26776	25350	153672	27319	1071589	46974	109924	0	0	8183	523552	0	0
2024-09-12 20:41:47			0	38657	0	0	0	26755	25350	153648	26861	1071544	46974	109916	0	0	8182	523929	0	0
2024-09-12 20:42:47			0	38680	0	0	0	26792	25360	153704	26765	1071633	46975	109930	0	0	8183	523031	0	0
2024-09-12 20:43:47			0	38677	0	0	0	26761	25360	153708	26826	1071607	46975	109918	0	0	8183	523144	0	0
2024-09-12 20:44:47			0	38678	0	0	0	26789	25350	153664	27300	1071624	46985	109929	0	0	8183	523136	0	0
2024-09-12 20:45:47			0	38688	0	0	0	26797	25350	153608	26953	1071642	46985	109932	0	0	8183	522759	0	0
2024-09-12 20:46:47			0	38685	0	0	0	26766	25360	153652	27222	1071687	46986	109920	0	0	8184	522842	0	0
2024-09-12 20:47:47			0	38672	0	0	0	26771	25360	153612	27270	1071633	46986	109922	0	0	8183	523333	0	0
2024-09-12 20:48:47			0	38701	0	0	0	26784	25350	153672	27253	1071624	46974	109927	0	0	8184	522269	0	0
2024-09-12 20:49:47			0	38704	0	0	0	26763	25350	153600	27197	1071589	46996	109919	0	0	8185	522156	0	0
2024-09-12 20:50:47			0	38692	0	0	0	26779	25350	153636	27157	1071678	46974	109925	0	0	8184	522608	0	0
2024-09-12 20:51:47			0	38679	0	0	0	26745	25340	153620	26981	1071606	46974	109912	0	0	8184	523128	0	0
2024-09-12 20:52:47			0	38684	0	0	0	26761	25340	153676	27322	1071633	46974	109918	0	0	8184	522940	0	0
2024-09-12 20:53:47			0	38680	0	0	0	26771	25350	153720	27253	1071615	46985	109922	0	0	8183	523061	0	0
2024-09-12 20:54:47			0	38668	0	0	0	26773	25350	153720	27383	1071615	46974	109923	0	0	8183	523514	0	0
2024-09-12 20:55:47			0	38672	0	0	0	26768	25350	153712	27199	1071624	46985	109921	0	0	8183	523363	0	0
2024-09-12 20:56:47			0	38693	0	0	0	26784	25350	153660	27100	1071598	46985	109927	0	0	8184	522570	0	0
2024-09-12 20:57:47			0	38672	0	0	0	26766	25350	153644	26982	1071624	46962	109920	0	0	8183	523363	0	0
2024-09-12 20:58:47			0	38663	0	0	0	26761	25350	153624	27208	1071589	46974	109918	0	0	8183	523703	0	0
2024-09-12 20:59:47			0	38671	0	0	0	26773	25360	153752	27416	1071580	46986	109923	0	0	8183	523371	0	0
2024-09-12 21:00:47			0	38670	0	0	0	26761	25340	153748	27201	1071580	46974	109918	0	0	8183	523468	0	0
2024-09-12 21:01:47			0	38671	0	0	0	26779	25350	153704	27256	1071615	46985	109925	0	0	8183	523400	0	0
2024-09-12 21:02:47			0	38674	0	0	0	26776	25350	153684	27232	1071615	46962	109924	0	0	8183	523287	0	0
2024-09-12 21:03:47			0	38688	0	0	0	26766	25350	153808	27280	1071651	46974	109920	0	0	8184	522759	0	0
2024-09-12 21:04:47			0	38665	0	0	0	26768	25350	153700	27145	1071669	46962	109921	0	0	8183	523627	0	0
2024-09-12 21:05:47			0	38661	0	0	0	26745	25340	153688	27447	1071606	46974	109912	0	0	8183	523808	0	0
2024-09-12 21:06:47			0	38643	0	0	0	26761	25340	153712	27286	1071526	46974	109918	0	0	8181	524488	0	0
2024-09-12 21:07:47			0	38654	0	0	0	26776	25340	153748	27249	1071606	46974	109924	0	0	8182	524072	0	0
2024-09-12 21:08:47			0	38645	0	0	0	26735	25340	153844	27364	1071606	46974	109908	0	0	8182	524412	0	0
2024-09-12 21:09:47			0	38644	0	0	0	26742	25340	153768	26935	1071580	46974	109911	0	0	8182	524450	0	0
2024-09-12 21:10:47			0	38607	0	0	0	26722	25340	153988	26918	1071553	46962	109903	0	0	8180	525850	0	0
2024-09-12 21:11:47			0	38633	0	0	0	26748	25330	153912	27227	1071499	46971	109913	0	0	8181	524896	0	0
2024-09-12 21:12:47			0	38608	0	0	0	26750	25340	153904	27267	1071490	46973	109914	0	0	8180	525812	0	0
2024-09-12 21:13:47			0	38618	0	0	0	26755	25340	153912	26927	1071517	46984	109916	0	0	8180	525433	0	0
2024-09-12 21:14:47			0	38636	0	0	0	26768	25340	153868	27088	1071544	46973	109921	0	0	8181	524752	0	0
2024-09-12 21:15:47			0	38597	0	0	0	26719	25340	153936	26915	1071544	46961	109902	0	0	8179	526228	0	0
2024-09-12 21:16:47			0	38594	0	0	0	26763	25340	153980	26927	1071445	46974	109919	0	0	8179	526342	0	0
2024-09-12 21:17:47			0	38604	0	0	0	26771	25330	153860	26809	1071561	46971	109922	0	0	8179	525993	0	0
2024-09-12 21:18:47			0	38610	0	0	0	26771	25330	153952	27272	1071606	46994	109922	0	0	8179	525766	0	0
2024-09-12 21:19:47			0	38597	0	0	0	26722	25340	153956	26767	1071499	46985	109903	0	0	8179	526228	0	0
2024-09-12 21:20:47			0	38598	0	0	0	26761	25330	153948	27107	1071579	46971	109918	0	0	8179	526221	0	0
2024-09-12 21:21:47			0	38597	0	0	0	26773	25330	153952	26708	1071552	46971	109923	0	0	8178	526258	0	0
2024-09-12 21:22:47			0	38630	0	0	0	26789	25340	153828	26890	1071624	46995	109929	0	0	8180	524979	0	0
2024-09-12 21:23:47			0	38639	0	0	0	26776	25350	153856	26960	1071642	46996	109924	0	0	8181	524609	0	0
2024-09-12 21:24:47			0	38648	0	0	0	26742	25340	153900	27055	1071553	46985	109911	0	0	8182	524299	0	0
2024-09-12 21:25:47			0	38616	0	0	0	26737	25340	153952	26627	1071580	46974	109909	0	0	8180	525509	0	0
2024-09-12 21:26:47			0	38607	0	0	0	26735	25340	153920	26774	1071544	46984	109908	0	0	8180	525850	0	0
2024-09-12 21:27:47			0	38591	0	0	0	26766	25330	154092	27088	1071561	46983	109920	0	0	8178	526486	0	0
2024-09-12 21:28:47			0	38601	0	0	0	26742	25330	153920	27315	1071579	46971	109911	0	0	8179	526107	0	0
2024-09-12 21:29:47			0	38630	0	0	0	26753	25330	153848	27007	1071472	46971	109915	0	0	8181	525009	0	0
2024-09-12 21:30:47			0	38627	0	0	0	26742	25340	153868	27137	1071544	46984	109911	0	0	8181	525093	0	0
2024-09-12 21:31:47			0	38621	0	0	0	26784	25330	153908	26956	1071526	46983	109927	0	0	8180	525350	0	0
2024-09-12 21:32:47			0	38631	0	0	0	26784	25340	153804	26922	1071571	46984	109927	0	0	8180	524942	0	0
2024-09-12 21:33:47			0	38652	0	0	0	26812	25340	153872	27003	1071633	46985	109938	0	0	8181	524148	0	0
2024-09-12 21:34:47			0	38667	0	0	0	26786	25350	153744	26982	1071678	46974	109928	0	0	8182	523552	0	0
2024-09-12 21:35:47			0	38651	0	0	0	26748	25350	153716	26871	1071642	46985	109913	0	0	8182	524156	0	0
2024-09-12 21:36:47			0	38624	0	0	0	26766	25350	153816	27102	1071624	46974	109920	0	0	8180	525177	0	0
2024-09-12 21:37:47			0	38651	0	0	0	26773	25350	153872	27041	1071642	46974	109923	0	0	8182	524156	0	0
2024-09-12 21:38:47			0	38634	0	0	0	26740	25340	153868	26986	1071606	46974	109910	0	0	8181	524828	0	0
2024-09-12 21:39:47			0	38628	0	0	0	26766	25340	153912	27121	1071580	46974	109920	0	0	8180	525055	0	0
2024-09-12 21:40:47			0	38627	0	0	0	26729	25340	153872	27168	1071633	46974	109906	0	0	8181	525093	0	0
2024-09-12 21:41:47			0	38600	0	0	0	26716	25340	153900	26814	1071526	46974	109901	0	0	8180	526115	0	0
2024-09-12 21:42:47			0	38594	0	0	0	26724	25330	153892	27133	1071481	46960	109904	0	0	8179	526372	0	0
2024-09-12 21:43:47			0	38594	0	0	0	26763	25330	153964	27131	1071472	46960	109919	0	0	8178	526372	0	0
2024-09-12 21:44:47			0	38625	0	0	0	26794	25330	153940	27348	1071615	46983	109931	0	0	8180	525198	0	0
2024-09-12 21:45:47			0	38649	0	0	0	26807	25330	153864	27202	1071615	46994	109936	0	0	8181	524291	0	0
2024-09-12 21:46:47			0	38660	0	0	0	26766	25350	153624	27072	1071642	46985	109920	0	0	8182	523816	0	0
2024-09-12 21:47:47			0	38665	0	0	0	26755	25350	153736	27319	1071598	46974	109916	0	0	8183	523627	0	0
2024-09-12 21:48:47			0	38643	0	0	0	26779	25340	153736	26861	1071633	46985	109925	0	0	8181	524488	0	0
2024-09-12 21:49:47			0	38637	0	0	0	26735	25340	153864	26844	1071553	46974	109908	0	0	8181	524715	0	0
2024-09-12 21:50:47			0	38633	0	0	0	26748	25330	153876	27111	1071526	46960	109913	0	0	8181	524896	0	0
2024-09-12 21:51:47			0	38657	0	0	0	26761	25340	153876	27173	1071597	46973	109918	0	0	8182	523959	0	0
2024-09-12 21:52:47			0	38639	0	0	0	26766	25330	153844	27239	1071588	46983	109920	0	0	8181	524669	0	0
2024-09-12 21:53:47			0	38630	0	0	0	26727	25330	153752	27317	1071526	46971	109905	0	0	8181	525009	0	0
2024-09-12 21:54:47			0	38666	0	0	0	26797	25330	153944	27268	1071552	46983	109932	0	0	8182	523649	0	0
2024-09-12 21:55:47			0	38623	0	0	0	26763	25320	153820	27093	1071490	46970	109919	0	0	8180	525304	0	0
2024-09-12 21:56:47			0	38657	0	0	0	26735	25340	153640	26975	1071606	46962	109908	0	0	8183	523959	0	0
2024-09-12 21:57:47			0	38637	0	0	0	26716	25340	153812	27034	1071580	46985	109901	0	0	8182	524715	0	0
2024-09-12 21:58:47			0	38627	0	0	0	26745	25340	153884	27010	1071490	46995	109912	0	0	8181	525093	0	0
2024-09-12 21:59:47			0	38621	0	0	0	26719	25330	153864	27095	1071535	46971	109902	0	0	8181	525350	0	0
2024-09-12 22:00:47			0	38614	0	0	0	26742	25320	153912	27196	1071463	46959	109911	0	0	8180	525645	0	0
2024-09-12 22:01:47			0	38597	0	0	0	26742	25320	154012	27001	1071436	46959	109911	0	0	8179	526288	0	0
2024-09-12 22:02:47			0	38603	0	0	0	26722	25320	153888	27159	1071427	46993	109903	0	0	8180	526061	0	0
2024-09-12 22:03:47			0	38618	0	0	0	26776	25330	154004	27053	1071526	46971	109924	0	0	8180	525463	0	0
2024-09-12 22:04:47			0	38611	0	0	0	26753	25320	153880	26859	1071454	46982	109915	0	0	8180	525758	0	0
2024-09-12 22:05:47			0	38609	0	0	0	26755	25330	153992	27107	1071561	46971	109916	0	0	8179	525804	0	0
2024-09-12 22:06:47			0	38604	0	0	0	26729	25340	153884	27197	1071490	46973	109906	0	0	8180	525963	0	0
2024-09-12 22:07:47			0	38599	0	0	0	26716	25320	153932	27476	1071463	46970	109901	0	0	8180	526213	0	0
2024-09-12 22:08:47			0	38581	0	0	0	26732	25320	154112	27005	1071383	46970	109907	0	0	8178	526895	0	0
2024-09-12 22:09:47			0	38602	0	0	0	26763	25320	154000	26953	1071508	46982	109919	0	0	8179	526099	0	0
2024-09-12 22:10:47			0	38603	0	0	0	26745	25320	153952	27166	1071543	46982	109912	0	0	8179	526061	0	0
2024-09-12 22:11:47			0	38614	0	0	0	26740	25320	154048	26814	1071534	46982	109910	0	0	8180	525645	0	0
2024-09-12 22:12:47			0	38601	0	0	0	26742	25320	153984	27235	1071534	46970	109911	0	0	8179	526137	0	0
2024-09-12 22:13:47			0	38605	0	0	0	26753	25320	153976	27033	1071463	46982	109915	0	0	8179	525985	0	0
2024-09-12 22:14:47			0	38612	0	0	0	26742	25320	153944	27171	1071517	46970	109911	0	0	8180	525720	0	0
2024-09-12 22:15:47			0	38580	0	0	0	26745	25320	153988	27017	1071534	46982	109912	0	0	8178	526932	0	0
2024-09-12 22:16:47			0	38587	0	0	0	26745	25330	153968	27019	1071445	46960	109912	0	0	8178	526637	0	0
2024-09-12 22:17:47			0	38605	0	0	0	26761	25310	153976	27067	1071472	46981	109918	0	0	8179	526015	0	0
2024-09-12 22:18:47			0	38630	0	0	0	26805	25320	153972	27322	1071543	46959	109935	0	0	8180	525039	0	0
2024-09-12 22:19:47			0	38644	0	0	0	26768	25330	153884	27260	1071606	46983	109921	0	0	8181	524480	0	0
2024-09-12 22:20:47			0	38625	0	0	0	26753	25330	153820	27104	1071552	46983	109915	0	0	8180	525198	0	0
2024-09-12 22:21:47			0	38617	0	0	0	26750	25330	153844	27102	1071606	46983	109914	0	0	8180	525501	0	0
2024-09-12 22:22:47			0	38616	0	0	0	26766	25330	153896	26897	1071588	46994	109920	0	0	8180	525539	0	0
2024-09-12 22:23:47			0	38611	0	0	0	26753	25330	153876	27161	1071588	46971	109915	0	0	8180	525728	0	0
2024-09-12 22:24:47			0	38607	0	0	0	26709	25340	153860	26920	1071544	46961	109898	0	0	8180	525850	0	0
2024-09-12 22:25:47			0	38570	0	0	0	26724	25330	153968	26986	1071472	46971	109904	0	0	8178	527282	0	0
2024-09-12 22:26:47			0	38576	0	0	0	26706	25320	154120	27000	1071490	46970	109897	0	0	8178	527084	0	0
2024-09-12 22:27:47			0	38569	0	0	0	26706	25320	154040	27161	1071383	46949	109897	0	0	8178	527350	0	0
2024-09-12 22:28:47			0	38581	0	0	0	26709	25320	154104	27190	1071400	46970	109898	0	0	8179	526895	0	0
2024-09-12 22:29:47			0	38554	0	0	0	26696	25320	154188	27258	1071374	46959	109893	0	0	8177	527919	0	0
2024-09-12 22:30:47			0	38545	0	0	0	26735	25310	154196	27159	1071355	46969	109908	0	0	8176	528290	0	0
2024-09-12 22:31:47			0	38541	0	0	0	26690	25310	154116	27284	1071355	46958	109891	0	0	8177	528442	0	0
2024-09-12 22:32:47			0	38515	0	0	0	26675	25310	154116	27083	1071329	46969	109885	0	0	8175	529430	0	0
2024-09-12 22:33:47			0	38527	0	0	0	26680	25300	154224	27031	1071320	46958	109887	0	0	8176	529004	0	0
2024-09-12 22:34:47			0	38484	0	0	0	26677	25300	154208	27010	1071257	46947	109886	0	0	8173	530640	0	0
2024-09-12 22:35:47			0	38508	0	0	0	26680	25280	154336	26866	1071256	46966	109887	0	0	8175	529787	0	0
2024-09-12 22:36:47			0	38505	0	0	0	26685	25290	154332	26857	1071212	46945	109889	0	0	8174	529871	0	0
2024-09-12 22:37:47			0	38488	0	0	0	26654	25290	154356	27185	1071239	46956	109877	0	0	8174	530518	0	0
2024-09-12 22:38:47			0	38471	0	0	0	26641	25280	154412	26967	1071194	46966	109872	0	0	8173	531195	0	0
2024-09-12 22:39:47			0	38468	0	0	0	26664	25270	154448	27121	1071158	46944	109881	0	0	8173	531340	0	0
2024-09-12 22:40:47			0	38480	0	0	0	26636	25270	154340	26961	1071185	46955	109870	0	0	8174	530882	0	0
2024-09-12 22:41:47			0	38478	0	0	0	26636	25260	154500	27022	1071077	46942	109870	0	0	8174	530989	0	0
2024-09-12 22:42:47			0	38481	0	0	0	26636	25260	154468	27150	1071032	46964	109870	0	0	8174	530875	0	0
2024-09-12 22:43:47			0	38469	0	0	0	26615	25250	154468	27220	1071068	46942	109862	0	0	8173	531362	0	0
2024-09-12 22:44:47			0	38458	0	0	0	26620	25250	154524	26998	1071032	46974	109864	0	0	8173	531781	0	0
2024-09-12 22:45:47			0	38454	0	0	0	26615	25250	154560	27410	1070979	46952	109862	0	0	8173	531934	0	0
2024-09-12 22:46:47			0	38444	0	0	0	26625	25240	154644	26904	1070996	46952	109866	0	0	8172	532345	0	0
2024-09-12 22:47:47			0	38444	0	0	0	26631	25240	154664	26665	1071050	46962	109868	0	0	8172	532345	0	0
2024-09-12 22:48:47			0	38455	0	0	0	26631	25230	154580	27268	1070916	46950	109868	0	0	8172	531956	0	0
2024-09-12 22:49:47			0	38448	0	0	0	26633	25230	154664	27339	1071023	46950	109869	0	0	8172	532223	0	0
2024-09-12 22:50:47			0	38431	0	0	0	26620	25230	154692	27164	1070942	46960	109864	0	0	8171	532872	0	0
2024-09-12 22:51:47			0	38429	0	0	0	26623	25220	154660	27126	1070960	46950	109865	0	0	8171	532978	0	0
2024-09-12 22:52:47			0	38436	0	0	0	26594	25230	154796	26856	1070898	46961	109854	0	0	8172	532681	0	0
2024-09-12 22:53:47			0	38426	0	0	0	26599	25220	154752	27048	1070924	46949	109856	0	0	8171	533093	0	0
2024-09-12 22:54:47			0	38415	0	0	0	26586	25220	154828	27390	1070987	46950	109851	0	0	8171	533513	0	0
2024-09-12 22:55:47			0	38418	0	0	0	26602	25220	154796	27306	1070826	46960	109857	0	0	8171	533398	0	0
2024-09-12 22:56:47			0	38398	0	0	0	26599	25200	154764	27142	1070861	46936	109856	0	0	8169	534223	0	0
2024-09-12 22:57:47			0	38399	0	0	0	26579	25200	154804	26930	1070871	46970	109848	0	0	8170	534185	0	0
2024-09-12 22:58:47			0	38392	0	0	0	26553	25200	154868	26870	1070808	46947	109838	0	0	8170	534453	0	0
2024-09-12 22:59:47			0	38400	0	0	0	26555	25180	154888	27100	1070656	46946	109839	0	0	8170	534207	0	0
2024-09-12 23:00:47			0	38392	0	0	0	26563	25190	154868	27227	1070718	46957	109842	0	0	8170	534483	0	0
2024-09-12 23:01:47			0	38391	0	0	0	26550	25170	154812	27329	1070718	46956	109837	0	0	8170	534582	0	0
2024-09-12 23:02:47			0	38369	0	0	0	26561	25170	154856	27036	1070628	46955	109841	0	0	8168	535424	0	0
2024-09-12 23:03:47			0	38400	0	0	0	26581	25170	154812	26918	1070637	46945	109849	0	0	8170	534238	0	0
2024-09-12 23:04:47			0	38380	0	0	0	26574	25170	154920	27216	1070628	46955	109846	0	0	8169	535003	0	0
2024-09-12 23:05:47			0	38405	0	0	0	26561	25180	154924	27306	1070727	46967	109841	0	0	8170	534016	0	0
2024-09-12 23:06:47			0	38409	0	0	0	26571	25160	154888	27220	1070700	46944	109845	0	0	8170	533924	0	0
2024-09-12 23:07:47			0	38398	0	0	0	26589	25170	154940	27026	1070718	46945	109852	0	0	8169	534314	0	0
2024-09-12 23:08:47			0	38383	0	0	0	26597	25180	154952	26956	1070727	46956	109855	0	0	8168	534858	0	0
2024-09-12 23:09:47			0	38384	0	0	0	26592	25160	154968	26729	1070700	46977	109853	0	0	8168	534880	0	0
2024-09-12 23:10:47			0	38383	0	0	0	26599	25170	154920	26790	1070771	46956	109856	0	0	8168	534888	0	0
2024-09-12 23:11:47			0	38386	0	0	0	26610	25160	154932	27090	1070727	46977	109860	0	0	8168	534804	0	0
2024-09-12 23:12:47			0	38385	0	0	0	26602	25180	154952	26873	1070727	46967	109857	0	0	8168	534781	0	0
2024-09-12 23:13:47			0	38363	0	0	0	26592	25170	154872	27071	1070745	46967	109853	0	0	8167	535654	0	0
2024-09-12 23:14:47			0	38371	0	0	0	26589	25180	154936	26944	1070736	46968	109852	0	0	8168	535317	0	0
2024-09-12 23:15:47			0	38365	0	0	0	26594	25180	154920	27031	1070781	46956	109854	0	0	8167	535547	0	0
2024-09-12 23:16:47			0	38374	0	0	0	26597	25170	155000	26996	1070745	46956	109855	0	0	8168	535233	0	0
2024-09-12 23:17:47			0	38375	0	0	0	26592	25170	155024	27178	1070718	46967	109853	0	0	8168	535194	0	0
2024-09-12 23:18:47			0	38374	0	0	0	26599	25180	155032	27157	1070781	46967	109856	0	0	8168	535202	0	0
2024-09-12 23:19:47			0	38390	0	0	0	26597	25180	154944	27338	1070781	46956	109855	0	0	8169	534590	0	0
2024-09-12 23:20:47			0	38361	0	0	0	26594	25170	154984	27377	1070745	46967	109854	0	0	8167	535731	0	0
2024-09-12 23:21:47			0	38367	0	0	0	26602	25180	154984	27324	1070781	46967	109857	0	0	8167	535470	0	0
2024-09-12 23:22:47			0	38356	0	0	0	26620	25180	155020	27215	1070763	46968	109864	0	0	8166	535892	0	0
2024-09-12 23:23:47			0	38359	0	0	0	26618	25180	155056	27213	1070843	46968	109863	0	0	8167	535777	0	0
2024-09-12 23:24:47			0	38374	0	0	0	26618	25180	155056	27027	1070790	46957	109863	0	0	8168	535202	0	0
2024-09-12 23:25:47			0	38356	0	0	0	26618	25190	155000	26996	1070852	46979	109863	0	0	8167	535861	0	0
2024-09-12 23:26:47			0	38362	0	0	0	26628	25190	155040	26994	1070799	46968	109867	0	0	8167	535632	0	0
2024-09-12 23:27:47			0	38370	0	0	0	26615	25200	155056	26981	1070781	46980	109862	0	0	8167	535295	0	0
2024-09-12 23:28:47			0	38368	0	0	0	26589	25200	155024	27241	1070861	46958	109852	0	0	8168	535371	0	0
2024-09-12 23:29:47			0	38363	0	0	0	26615	25200	154964	27222	1070888	46958	109862	0	0	8167	535563	0	0
2024-09-12 23:30:47			0	38378	0	0	0	26623	25200	155016	27090	1070871	46970	109865	0	0	8168	534989	0	0
2024-09-12 23:31:47			0	38368	0	0	0	26620	25190	155032	27339	1070852	46946	109864	0	0	8167	535402	0	0
2024-09-12 23:32:47			0	38356	0	0	0	26636	25200	155116	26909	1070924	46958	109870	0	0	8166	535831	0	0
2024-09-12 23:33:47			0	38360	0	0	0	26657	25200	154968	27062	1070888	46958	109878	0	0	8166	535678	0	0
2024-09-12 23:34:47			0	38367	0	0	0	26672	25200	155044	27170	1070951	46992	109884	0	0	8166	535409	0	0
2024-09-12 23:35:47			0	38382	0	0	0	26670	25210	154904	27175	1070987	46970	109883	0	0	8167	534805	0	0
2024-09-12 23:36:47			0	38398	0	0	0	26688	25210	154872	27261	1071014	46981	109890	0	0	8168	534193	0	0
2024-09-12 23:37:47			0	38399	0	0	0	26677	25220	154780	26960	1071005	46971	109886	0	0	8168	534124	0	0
2024-09-12 23:38:47			0	38425	0	0	0	26685	25230	154720	27052	1071103	46972	109889	0	0	8170	533101	0	0
2024-09-12 23:39:47			0	38449	0	0	0	26677	25230	154628	27164	1071103	46972	109886	0	0	8171	532185	0	0
2024-09-12 23:40:47			0	38441	0	0	0	26693	25240	154624	27319	1071121	46984	109892	0	0	8170	532460	0	0
2024-09-12 23:41:47			0	38442	0	0	0	26722	25240	154660	27431	1071104	46985	109903	0	0	8170	532422	0	0
2024-09-12 23:42:47			0	38481	0	0	0	26737	25240	154532	27372	1071238	46985	109909	0	0	8172	530935	0	0
2024-09-12 23:43:47			0	38473	0	0	0	26703	25260	154604	27256	1071292	46986	109896	0	0	8172	531179	0	0
2024-09-12 23:44:47			0	38479	0	0	0	26711	25270	154528	26875	1071256	46976	109899	0	0	8172	530921	0	0
2024-09-12 23:45:47			0	38487	0	0	0	26729	25270	154484	27114	1071292	46988	109906	0	0	8173	530616	0	0
2024-09-12 23:46:47			0	38493	0	0	0	26768	25270	154464	27027	1071372	46977	109921	0	0	8172	530387	0	0
2024-09-12 23:47:47			0	38521	0	0	0	26771	25270	154412	27400	1071390	46987	109922	0	0	8174	529322	0	0
2024-09-12 23:48:47			0	38492	0	0	0	26753	25280	154432	26994	1071390	47000	109915	0	0	8173	530395	0	0
2024-09-12 23:49:47			0	38471	0	0	0	26745	25290	154516	27081	1071399	46978	109912	0	0	8172	531165	0	0
2024-09-12 23:50:47			0	38468	0	0	0	26758	25300	154436	27310	1071391	46980	109917	0	0	8171	531249	0	0
2024-09-12 23:51:47			0	38465	0	0	0	26745	25300	154520	27460	1071480	46968	109912	0	0	8171	531363	0	0
2024-09-12 23:52:47			0	38478	0	0	0	26750	25310	154520	27429	1071463	46992	109914	0	0	8172	530838	0	0
2024-09-12 23:53:47			0	38478	0	0	0	26761	25310	154440	27467	1071516	46992	109918	0	0	8172	530838	0	0
2024-09-12 23:54:47			0	38481	0	0	0	26748	25310	154440	27164	1071436	46958	109913	0	0	8172	530724	0	0
2024-09-12 23:55:47			0	38487	0	0	0	26784	25310	154480	27614	1071499	46981	109927	0	0	8172	530495	0	0
2024-09-12 23:56:47			0	38473	0	0	0	26794	25320	154560	27161	1071534	46993	109931	0	0	8171	530998	0	0
2024-09-12 23:57:47			0	38460	0	0	0	26794	25320	154572	27461	1071570	46982	109931	0	0	8170	531494	0	0
2024-09-12 23:58:47			0	38484	0	0	0	26781	25330	154484	27251	1071579	46983	109926	0	0	8172	530549	0	0
2024-09-12 23:59:47			0	38484	0	0	0	26766	25330	154408	27353	1071561	46983	109920	0	0	8172	530549	0	0
2024-09-13 00:00:47			0	38478	0	0	0	26784	25340	154552	27227	1071597	46973	109927	0	0	8171	530747	0	0
2024-09-13 00:01:47			0	38517	0	0	0	26792	25330	154436	27355	1071579	46994	109930	0	0	8174	529294	0	0
2024-09-13 00:02:47			0	38531	0	0	0	26781	25340	154300	27163	1071651	46984	109926	0	0	8175	528732	0	0
2024-09-13 00:03:47			0	38545	0	0	0	26784	25340	154168	27154	1071606	46985	109927	0	0	8175	528200	0	0
2024-09-13 00:04:47			0	38555	0	0	0	26789	25340	154220	27360	1071660	46996	109929	0	0	8176	527821	0	0
2024-09-13 00:05:47			0	38546	0	0	0	26789	25340	154248	27665	1071633	46974	109929	0	0	8175	528162	0	0
2024-09-13 00:06:47			0	38531	0	0	0	26786	25350	154252	27358	1071598	46974	109928	0	0	8175	528702	0	0
2024-09-13 00:07:47			0	38530	0	0	0	26773	25340	154332	27353	1071660	46974	109923	0	0	8175	528770	0	0
2024-09-13 00:08:47			0	38506	0	0	0	26732	25350	154412	27398	1071562	46962	109907	0	0	8174	529652	0	0
2024-09-13 00:09:47			0	38481	0	0	0	26729	25340	154364	27429	1071571	46961	109906	0	0	8173	530633	0	0
2024-09-13 00:10:47			0	38483	0	0	0	26740	25340	154412	27523	1071499	46974	109910	0	0	8173	530557	0	0
2024-09-13 00:11:47			0	38468	0	0	0	26737	25330	154480	27041	1071481	46960	109909	0	0	8172	531159	0	0
2024-09-13 00:12:47			0	38481	0	0	0	26732	25330	154368	26902	1071526	46983	109907	0	0	8172	530664	0	0
2024-09-13 00:13:47			0	38469	0	0	0	26711	25330	154332	27024	1071526	46971	109899	0	0	8172	531120	0	0
2024-09-13 00:14:47			0	38468	0	0	0	26664	25320	154384	27066	1071436	46959	109881	0	0	8173	531189	0	0
2024-09-13 00:15:47			0	38454	0	0	0	26651	25310	154448	27045	1071302	46948	109876	0	0	8172	531753	0	0
2024-09-13 00:16:47			0	38432	0	0	0	26657	25300	154492	27017	1071266	46935	109878	0	0	8171	532622	0	0
2024-09-13 00:17:47			0	38432	0	0	0	26646	25290	154568	27045	1071239	46933	109874	0	0	8171	532652	0	0
2024-09-13 00:18:47			0	38391	0	0	0	26659	25290	154680	27215	1071265	46945	109879	0	0	8168	534218	0	0
2024-09-13 00:19:47			0	38418	0	0	0	26638	25280	154660	26934	1071203	46945	109871	0	0	8170	533217	0	0
2024-09-13 00:20:47			0	38396	0	0	0	26649	25280	154752	27322	1071176	46956	109875	0	0	8169	534057	0	0
2024-09-13 00:21:47			0	38409	0	0	0	26651	25270	154644	27150	1071104	46965	109876	0	0	8169	533591	0	0
2024-09-13 00:22:47			0	38390	0	0	0	26628	25260	154720	27348	1071167	46964	109867	0	0	8169	534347	0	0
2024-09-13 00:23:47			0	38378	0	0	0	26654	25260	154752	27256	1071131	46963	109877	0	0	8168	534806	0	0
2024-09-13 00:24:47			0	38391	0	0	0	26662	25270	154868	27286	1071176	46954	109880	0	0	8168	534279	0	0
2024-09-13 00:25:47			0	38371	0	0	0	26649	25260	154964	26901	1071140	46964	109875	0	0	8167	535074	0	0
2024-09-13 00:26:47			0	38362	0	0	0	26644	25250	155048	27391	1071139	46974	109873	0	0	8167	535449	0	0
2024-09-13 00:27:47			0	38372	0	0	0	26646	25260	154916	27270	1071113	46964	109874	0	0	8167	535036	0	0
2024-09-13 00:28:47			0	38392	0	0	0	26633	25250	154808	27173	1071113	46952	109869	0	0	8169	534301	0	0
2024-09-13 00:29:47			0	38405	0	0	0	26644	25250	154824	27267	1071113	46962	109873	0	0	8169	533804	0	0
2024-09-13 00:30:47			0	38410	0	0	0	26638	25250	154828	27159	1071095	46963	109871	0	0	8170	533613	0	0
2024-09-13 00:31:47			0	38426	0	0	0	26654	25260	154764	26923	1071050	46963	109877	0	0	8170	532972	0	0
2024-09-13 00:32:47			0	38422	0	0	0	26646	25250	154748	27282	1071086	46952	109874	0	0	8170	533155	0	0
2024-09-13 00:33:47			0	38429	0	0	0	26646	25250	154832	27258	1071059	46974	109874	0	0	8171	532887	0	0
2024-09-13 00:34:47			0	38438	0	0	0	26605	25250	154784	27300	1071059	46962	109858	0	0	8172	532544	0	0
2024-09-13 00:35:47			0	38402	0	0	0	26638	25240	154840	27163	1070961	46951	109871	0	0	8169	533949	0	0
2024-09-13 00:36:47			0	38415	0	0	0	26623	25230	154900	27064	1071032	46961	109865	0	0	8170	533483	0	0
2024-09-13 00:37:47			0	38423	0	0	0	26625	25230	154796	27381	1071023	46950	109866	0	0	8170	533177	0	0
2024-09-13 00:38:47			0	38404	0	0	0	26646	25230	154688	27192	1070996	46950	109874	0	0	8169	533903	0	0
2024-09-13 00:39:47			0	38419	0	0	0	26657	25230	154784	27372	1071005	46961	109878	0	0	8170	533330	0	0
2024-09-13 00:40:47			0	38416	0	0	0	26638	25230	154832	27071	1070996	46972	109871	0	0	8170	533444	0	0
2024-09-13 00:41:47			0	38405	0	0	0	26631	25220	154876	26889	1071005	46982	109868	0	0	8169	533895	0	0
2024-09-13 00:42:47			0	38420	0	0	0	26649	25220	154808	27092	1071014	46960	109875	0	0	8170	533322	0	0
2024-09-13 00:43:47			0	38424	0	0	0	26623	25230	154784	26955	1071077	46972	109865	0	0	8171	533139	0	0
2024-09-13 00:44:47			0	38411	0	0	0	26605	25220	154876	27041	1071014	46983	109858	0	0	8170	533666	0	0
2024-09-13 00:45:47			0	38414	0	0	0	26633	25230	154936	26899	1070942	46972	109869	0	0	8170	533521	0	0
2024-09-13 00:46:47			0	38397	0	0	0	26646	25230	154808	27180	1071023	46972	109874	0	0	8169	534171	0	0
2024-09-13 00:47:47			0	38398	0	0	0	26605	25230	154768	27005	1071023	46972	109858	0	0	8169	534132	0	0
2024-09-13 00:48:47			0	38400	0	0	0	26586	25220	154856	26942	1070960	46972	109851	0	0	8170	534086	0	0
2024-09-13 00:49:47			0	38411	0	0	0	26558	25220	154828	26979	1070951	46949	109840	0	0	8171	533666	0	0
2024-09-13 00:50:47			0	38412	0	0	0	26542	25210	154832	26984	1070772	46948	109834	0	0	8171	533658	0	0
2024-09-13 00:51:47			0	38397	0	0	0	26574	25200	154872	27105	1070790	46958	109846	0	0	8170	534262	0	0
2024-09-13 00:52:47			0	38405	0	0	0	26586	25190	154824	27377	1070799	46957	109851	0	0	8170	533986	0	0
2024-09-13 00:53:47			0	38410	0	0	0	26607	25200	154824	27079	1070808	46958	109859	0	0	8170	533765	0	0
2024-09-13 00:54:47			0	38414	0	0	0	26628	25190	154780	27296	1070852	46946	109867	0	0	8170	533642	0	0
2024-09-13 00:55:47			0	38428	0	0	0	26620	25190	154684	27417	1070879	46968	109864	0	0	8171	533107	0	0
2024-09-13 00:56:47			0	38434	0	0	0	26636	25200	154808	27246	1070915	46980	109870	0	0	8171	532848	0	0
2024-09-13 00:57:47			0	38448	0	0	0	26646	25200	154912	27284	1070942	46969	109874	0	0	8171	532313	0	0
2024-09-13 00:58:47			0	38437	0	0	0	26667	25210	154856	27208	1070960	46970	109882	0	0	8171	532703	0	0
2024-09-13 00:59:47			0	38454	0	0	0	26662	25210	154708	26875	1071014	46970	109880	0	0	8172	532055	0	0
2024-09-13 01:00:47			0	38492	0	0	0	26664	25220	154652	27114	1071085	46982	109881	0	0	8174	530576	0	0
2024-09-13 01:01:47			0	38477	0	0	0	26677	25220	154524	26970	1071085	46971	109886	0	0	8173	531147	0	0
2024-09-13 01:02:47			0	38512	0	0	0	26657	25220	154452	26937	1071032	46971	109878	0	0	8175	529815	0	0
2024-09-13 01:03:47			0	38493	0	0	0	26644	25230	154492	27178	1071059	46973	109873	0	0	8174	530508	0	0
2024-09-13 01:04:47			0	38503	0	0	0	26615	25230	154516	26913	1071023	46960	109862	0	0	8175	530127	0	0
2024-09-13 01:05:47			0	38468	0	0	0	26641	25230	154580	27220	1071032	46961	109872	0	0	8173	531460	0	0
2024-09-13 01:06:47			0	38468	0	0	0	26662	25220	154640	26786	1071067	46960	109880	0	0	8172	531490	0	0
2024-09-13 01:07:47			0	38487	0	0	0	26675	25220	154536	27138	1071067	46960	109885	0	0	8173	530767	0	0
2024-09-13 01:08:47			0	38497	0	0	0	26706	25220	154588	27147	1071148	46972	109897	0	0	8173	530386	0	0
2024-09-13 01:09:47			0	38499	0	0	0	26693	25230	154432	27161	1071130	46972	109892	0	0	8174	530279	0	0
2024-09-13 01:10:47			0	38509	0	0	0	26670	25230	154400	27175	1071166	46973	109883	0	0	8175	529899	0	0
2024-09-13 01:11:47			0	38516	0	0	0	26680	25240	154304	27081	1071130	46974	109887	0	0	8175	529603	0	0
2024-09-13 01:12:47			0	38524	0	0	0	26729	25240	154360	27230	1071157	46962	109906	0	0	8175	529299	0	0
2024-09-13 01:13:47			0	38544	0	0	0	26732	25240	154404	27150	1071184	46985	109907	0	0	8176	528538	0	0
2024-09-13 01:14:47			0	38571	0	0	0	26722	25250	154244	27034	1071193	46996	109903	0	0	8177	527483	0	0
2024-09-13 01:15:47			0	38580	0	0	0	26698	25250	154236	27123	1071309	46975	109894	0	0	8178	527142	0	0
2024-09-13 01:16:47			0	38566	0	0	0	26711	25260	154176	26887	1071274	46987	109899	0	0	8177	527643	0	0
2024-09-13 01:17:47			0	38573	0	0	0	26714	25250	154280	27218	1071274	46974	109900	0	0	8178	527407	0	0
2024-09-13 01:18:47			0	38557	0	0	0	26722	25260	154148	27079	1071318	46975	109903	0	0	8177	527985	0	0
2024-09-13 01:19:47			0	38576	0	0	0	26719	25260	154196	27145	1071274	46976	109902	0	0	8178	527264	0	0
2024-09-13 01:20:47			0	38568	0	0	0	26698	25270	154220	27161	1071372	46977	109894	0	0	8178	527537	0	0
2024-09-13 01:21:47			0	38574	0	0	0	26685	25260	154256	27279	1071247	46976	109889	0	0	8178	527340	0	0
2024-09-13 01:22:47			0	38549	0	0	0	26620	25260	154228	26814	1071247	46943	109864	0	0	8178	528289	0	0
2024-09-13 01:23:47			0	38538	0	0	0	26654	25260	154356	26812	1071158	46963	109877	0	0	8177	528706	0	0
2024-09-13 01:24:47			0	38552	0	0	0	26672	25270	154268	27053	1071122	46954	109884	0	0	8177	528145	0	0
2024-09-13 01:25:47			0	38536	0	0	0	26662	25250	154244	26868	1071095	46942	109880	0	0	8176	528812	0	0
2024-09-13 01:26:47			0	38540	0	0	0	26610	25240	154248	27046	1071050	46941	109860	0	0	8178	528690	0	0
2024-09-13 01:27:47			0	38532	0	0	0	26659	25230	154408	27381	1071059	46951	109879	0	0	8176	529024	0	0
2024-09-13 01:28:47			0	38546	0	0	0	26620	25230	154296	27312	1071023	46939	109864	0	0	8178	528492	0	0
2024-09-13 01:29:47			0	38535	0	0	0	26584	25220	154264	27074	1071014	46960	109850	0	0	8178	528940	0	0
2024-09-13 01:30:47			0	38531	0	0	0	26688	25220	154440	27253	1070987	46960	109890	0	0	8176	529092	0	0
2024-09-13 01:31:47			0	38528	0	0	0	26711	25220	154484	27284	1071032	46959	109899	0	0	8175	529206	0	0
2024-09-13 01:32:47			0	38546	0	0	0	26636	25230	154340	27372	1071077	46972	109870	0	0	8177	528492	0	0
2024-09-13 01:33:47			0	38541	0	0	0	26548	25230	154292	27095	1071050	46960	109836	0	0	8179	528682	0	0
2024-09-13 01:34:47			0	38498	0	0	0	26516	25210	154456	27050	1070942	46958	109824	0	0	8177	530378	0	0
2024-09-13 01:35:47			0	38460	0	0	0	26498	25210	154580	27230	1070862	46937	109817	0	0	8175	531826	0	0
2024-09-13 01:36:47			0	38425	0	0	0	26524	25200	154704	27227	1070763	46937	109827	0	0	8172	533192	0	0
2024-09-13 01:37:47			0	38388	0	0	0	26537	25190	154912	27097	1070638	46935	109832	0	0	8170	534636	0	0
2024-09-13 01:38:47			0	38387	0	0	0	26558	25170	154864	27128	1070628	46944	109840	0	0	8169	534735	0	0
2024-09-13 01:39:47			0	38368	0	0	0	26561	25170	154904	27192	1070637	46934	109841	0	0	8168	535462	0	0
2024-09-13 01:40:47			0	38368	0	0	0	26586	25160	154996	27029	1070619	46933	109851	0	0	8168	535493	0	0
2024-09-13 01:41:47			0	38393	0	0	0	26561	25160	155000	27024	1070619	46955	109841	0	0	8170	534536	0	0
2024-09-13 01:42:47			0	38419	0	0	0	26623	25160	154956	27043	1070619	46966	109865	0	0	8170	533542	0	0
2024-09-13 01:43:47			0	38440	0	0	0	26667	25170	154932	26942	1070736	46977	109882	0	0	8170	532710	0	0
2024-09-13 01:44:47			0	38457	0	0	0	26628	25170	154704	26987	1070852	46967	109867	0	0	8172	532061	0	0
2024-09-13 01:45:47			0	38470	0	0	0	26688	25180	154640	26965	1070834	46978	109890	0	0	8172	531535	0	0
2024-09-13 01:46:47			0	38484	0	0	0	26727	25170	154660	27706	1070905	46989	109905	0	0	8172	531031	0	0
2024-09-13 01:47:47			0	38518	0	0	0	26753	25200	154500	27156	1070978	46992	109915	0	0	8174	529647	0	0
2024-09-13 01:48:47			0	38543	0	0	0	26753	25200	154392	27540	1071031	47003	109915	0	0	8175	528696	0	0
2024-09-13 01:49:47			0	38564	0	0	0	26696	25210	154216	27234	1071049	46981	109893	0	0	8177	527869	0	0
2024-09-13 01:50:47			0	38570	0	0	0	26735	25220	154336	27345	1071112	46982	109908	0	0	8177	527611	0	0
2024-09-13 01:51:47			0	38579	0	0	0	26742	25230	154232	26958	1071237	46994	109911	0	0	8178	527240	0	0
2024-09-13 01:52:47			0	38587	0	0	0	26761	25230	154236	26958	1071193	46984	109918	0	0	8178	526936	0	0
2024-09-13 01:53:47			0	38569	0	0	0	26628	25240	154184	27445	1071184	46974	109867	0	0	8179	527589	0	0
2024-09-13 01:54:47			0	38559	0	0	0	26701	25230	154268	27339	1071059	46973	109895	0	0	8177	527999	0	0
2024-09-13 01:55:47			0	38560	0	0	0	26761	25230	154360	27280	1071130	46960	109918	0	0	8176	527961	0	0
2024-09-13 01:56:47			0	38592	0	0	0	26792	25240	154252	27320	1071211	46974	109930	0	0	8177	526717	0	0
2024-09-13 01:57:47			0	38623	0	0	0	26807	25240	154176	27471	1071291	47007	109936	0	0	8179	525543	0	0
2024-09-13 01:58:47			0	38625	0	0	0	26805	25260	153996	27203	1071354	47009	109935	0	0	8179	525407	0	0
2024-09-13 01:59:47			0	38651	0	0	0	26805	25280	154032	27355	1071569	47000	109935	0	0	8181	524364	0	0
2024-09-13 02:00:47			0	38640	0	0	0	26693	25290	153916	27216	1071587	47000	109892	0	0	8182	524750	0	0
2024-09-13 02:01:47			0	38635	0	0	0	26654	25290	153936	27308	1071399	46978	109877	0	0	8182	524940	0	0
2024-09-13 02:02:47			0	38594	0	0	0	26709	25280	154100	27229	1071274	46966	109898	0	0	8179	526521	0	0
2024-09-13 02:03:47			0	38601	0	0	0	26703	25290	154264	27334	1071319	46966	109896	0	0	8180	526226	0	0
2024-09-13 02:04:47			0	38580	0	0	0	26698	25280	154144	27220	1071337	46966	109894	0	0	8179	527052	0	0
2024-09-13 02:05:47			0	38566	0	0	0	26703	25280	154112	27216	1071328	46966	109896	0	0	8178	527583	0	0
2024-09-13 02:06:47			0	38562	0	0	0	26636	25280	154160	26896	1071283	46966	109870	0	0	8179	527735	0	0
2024-09-13 02:07:47			0	38549	0	0	0	26638	25270	154316	27022	1071202	46964	109871	0	0	8178	528258	0	0
2024-09-13 02:08:47			0	38531	0	0	0	26758	25270	154492	27041	1071202	46964	109917	0	0	8175	528942	0	0
2024-09-13 02:09:47			0	38529	0	0	0	26709	25270	154352	27007	1071256	46976	109898	0	0	8175	529018	0	0
2024-09-13 02:10:47			0	38544	0	0	0	26737	25260	154300	27178	1071211	46963	109909	0	0	8176	528478	0	0
2024-09-13 02:11:47			0	38533	0	0	0	26748	25260	154244	27303	1071274	46964	109913	0	0	8175	528896	0	0
2024-09-13 02:12:47			0	38564	0	0	0	26737	25260	154300	27170	1071327	46976	109909	0	0	8177	527719	0	0
2024-09-13 02:13:47			0	38574	0	0	0	26761	25270	154288	26896	1071265	46977	109918	0	0	8177	527310	0	0
2024-09-13 02:14:47			0	38575	0	0	0	26696	25270	154172	26889	1071319	46988	109893	0	0	8178	527272	0	0
2024-09-13 02:15:47			0	38583	0	0	0	26657	25280	154104	27097	1071247	46989	109878	0	0	8179	526938	0	0
2024-09-13 02:16:47			0	38566	0	0	0	26620	25270	154132	26949	1071256	46976	109864	0	0	8179	527613	0	0
2024-09-13 02:17:47			0	38559	0	0	0	26644	25260	154260	27331	1071184	46953	109873	0	0	8178	527909	0	0
2024-09-13 02:18:47			0	38550	0	0	0	26714	25260	154236	26804	1071184	46975	109900	0	0	8176	528250	0	0
2024-09-13 02:19:47			0	38547	0	0	0	26654	25250	154192	27152	1071202	46963	109877	0	0	8177	528394	0	0
2024-09-13 02:20:47			0	38546	0	0	0	26664	25260	154212	26963	1071184	46975	109881	0	0	8177	528402	0	0
2024-09-13 02:21:47			0	38535	0	0	0	26651	25250	154216	27270	1071148	46963	109876	0	0	8177	528850	0	0
2024-09-13 02:22:47			0	38539	0	0	0	26716	25260	154300	26979	1071158	46953	109901	0	0	8176	528668	0	0
2024-09-13 02:23:47			0	38537	0	0	0	26693	25250	154348	27253	1071202	46975	109892	0	0	8176	528774	0	0
2024-09-13 02:24:47			0	38526	0	0	0	26724	25250	154272	26847	1071175	46953	109904	0	0	8175	529192	0	0
2024-09-13 02:25:47			0	38525	0	0	0	26698	25250	154428	26828	1071193	46974	109894	0	0	8175	529230	0	0
2024-09-13 02:26:47			0	38513	0	0	0	26753	25260	154404	27161	1071238	46997	109915	0	0	8174	529657	0	0
2024-09-13 02:27:47			0	38555	0	0	0	26750	25260	154292	27029	1071292	46986	109914	0	0	8176	528061	0	0
2024-09-13 02:28:47			0	38562	0	0	0	26740	25270	154172	27041	1071363	46998	109910	0	0	8177	527765	0	0
2024-09-13 02:29:47			0	38563	0	0	0	26755	25270	154096	26772	1071390	46976	109916	0	0	8177	527727	0	0
2024-09-13 02:30:47			0	38539	0	0	0	26768	25280	154300	27008	1071381	46978	109921	0	0	8175	528608	0	0
2024-09-13 02:31:47			0	38551	0	0	0	26776	25270	154196	27202	1071453	46999	109924	0	0	8175	528183	0	0
2024-09-13 02:32:47			0	38565	0	0	0	26810	25290	154216	27036	1071480	47000	109937	0	0	8176	527591	0	0
2024-09-13 02:33:47			0	38578	0	0	0	26784	25290	154100	27102	1071569	46979	109927	0	0	8177	527098	0	0
2024-09-13 02:34:47			0	38575	0	0	0	26784	25290	154172	27222	1071516	46990	109927	0	0	8177	527212	0	0
2024-09-13 02:35:47			0	38583	0	0	0	26786	25300	154092	27248	1071615	46980	109928	0	0	8177	526879	0	0
2024-09-13 02:36:47			0	38577	0	0	0	26742	25310	154068	27121	1071606	47002	109911	0	0	8178	527076	0	0
2024-09-13 02:37:47			0	38563	0	0	0	26755	25310	153960	26994	1071597	47002	109916	0	0	8177	527607	0	0
2024-09-13 02:38:47			0	38551	0	0	0	26792	25320	154032	27248	1071543	46982	109930	0	0	8175	528033	0	0
2024-09-13 02:39:47			0	38585	0	0	0	26766	25320	154096	26861	1071588	46993	109920	0	0	8178	526743	0	0
2024-09-13 02:40:47			0	38570	0	0	0	26727	25320	154076	27312	1071588	46982	109905	0	0	8178	527312	0	0
2024-09-13 02:41:47			0	38556	0	0	0	26763	25320	154028	26963	1071543	46982	109919	0	0	8176	527843	0	0
2024-09-13 02:42:47			0	38573	0	0	0	26784	25330	154128	26996	1071606	46960	109927	0	0	8177	527168	0	0
2024-09-13 02:43:47			0	38585	0	0	0	26786	25330	154084	26970	1071660	46983	109928	0	0	8178	526713	0	0
2024-09-13 02:44:47			0	38573	0	0	0	26802	25330	154172	26922	1071713	46971	109934	0	0	8177	527168	0	0
2024-09-13 02:45:47			0	38587	0	0	0	26792	25320	154040	27168	1071624	46982	109930	0	0	8178	526667	0	0
2024-09-13 02:46:47			0	38578	0	0	0	26779	25350	153968	26904	1071750	46985	109925	0	0	8177	526919	0	0
2024-09-13 02:47:47			0	38576	0	0	0	26758	25330	154088	27137	1071722	46983	109917	0	0	8178	527054	0	0
2024-09-13 02:48:47			0	38576	0	0	0	26735	25330	154044	26942	1071669	46983	109908	0	0	8178	527054	0	0
2024-09-13 02:49:47			0	38543	0	0	0	26706	25330	154148	27118	1071588	46971	109897	0	0	8176	528306	0	0
2024-09-13 02:50:47			0	38541	0	0	0	26745	25330	154144	27119	1071535	46971	109912	0	0	8176	528382	0	0
2024-09-13 02:51:47			0	38539	0	0	0	26763	25330	154136	27133	1071579	46983	109919	0	0	8175	528458	0	0
2024-09-13 02:52:47			0	38540	0	0	0	26768	25330	154160	27107	1071615	46983	109921	0	0	8175	528420	0	0
2024-09-13 02:53:47			0	38547	0	0	0	26742	25340	153944	27076	1071597	46995	109911	0	0	8176	528124	0	0
2024-09-13 02:54:47			0	38552	0	0	0	26732	25330	154088	27059	1071615	46983	109907	0	0	8177	527965	0	0
2024-09-13 02:55:47			0	38563	0	0	0	26737	25340	154172	26883	1071597	46973	109909	0	0	8177	527517	0	0
2024-09-13 02:56:47			0	38532	0	0	0	26763	25330	154276	26882	1071552	46971	109919	0	0	8175	528724	0	0
2024-09-13 02:57:47			0	38555	0	0	0	26753	25330	154156	26993	1071615	46983	109915	0	0	8176	527851	0	0
2024-09-13 02:58:47			0	38539	0	0	0	26638	25330	154056	27140	1071526	46971	109871	0	0	8177	528458	0	0
2024-09-13 02:59:47			0	38517	0	0	0	26623	25330	154204	26667	1071526	46938	109865	0	0	8176	529294	0	0
2024-09-13 03:00:47			0	38486	0	0	0	26657	25310	154392	27294	1071409	46948	109878	0	0	8174	530533	0	0
2024-09-13 03:01:47			0	38446	0	0	0	26675	25310	154424	26883	1071382	46958	109885	0	0	8171	532058	0	0
2024-09-13 03:02:47			0	38449	0	0	0	26633	25300	154436	26941	1071391	46958	109869	0	0	8172	531973	0	0
2024-09-13 03:03:47			0	38450	0	0	0	26607	25290	154444	26986	1071328	46957	109859	0	0	8173	531965	0	0
2024-09-13 03:04:47			0	38441	0	0	0	26558	25290	154448	27085	1071319	46956	109840	0	0	8173	532308	0	0
2024-09-13 03:05:47			0	38402	0	0	0	26602	25280	154620	27024	1071167	46933	109857	0	0	8170	533828	0	0
2024-09-13 03:06:47			0	38409	0	0	0	26638	25270	154660	27327	1071122	46954	109871	0	0	8170	533591	0	0
2024-09-13 03:07:47			0	38422	0	0	0	26631	25260	154700	26982	1071140	46964	109868	0	0	8170	533124	0	0
2024-09-13 03:08:47			0	38408	0	0	0	26644	25260	154644	27138	1071184	46986	109873	0	0	8169	533659	0	0
2024-09-13 03:09:47			0	38439	0	0	0	26680	25250	154564	26823	1071175	46963	109887	0	0	8171	532506	0	0
2024-09-13 03:10:47			0	38451	0	0	0	26693	25250	154600	27007	1071202	46975	109892	0	0	8171	532048	0	0
2024-09-13 03:11:47			0	38468	0	0	0	26646	25260	154576	26809	1071238	46986	109874	0	0	8173	531370	0	0
2024-09-13 03:12:47			0	38467	0	0	0	26649	25250	154576	26955	1071202	46963	109875	0	0	8173	531438	0	0
2024-09-13 03:13:47			0	38456	0	0	0	26633	25260	154480	26838	1071158	46975	109869	0	0	8172	531827	0	0
2024-09-13 03:14:47			0	38446	0	0	0	26605	25250	154484	27067	1071148	46963	109858	0	0	8172	532239	0	0
2024-09-13 03:15:47			0	38443	0	0	0	26597	25250	154376	27081	1071113	46974	109855	0	0	8172	532353	0	0
2024-09-13 03:16:47			0	38428	0	0	0	26672	25240	154532	26804	1071130	46962	109884	0	0	8170	532956	0	0
2024-09-13 03:17:47			0	38436	0	0	0	26709	25250	154616	27289	1071113	46962	109898	0	0	8170	532620	0	0
2024-09-13 03:18:47			0	38463	0	0	0	26711	25240	154484	27093	1071184	46962	109899	0	0	8171	531621	0	0
2024-09-13 03:19:47			0	38486	0	0	0	26677	25230	154388	27265	1071139	46995	109886	0	0	8173	530774	0	0
2024-09-13 03:20:47			0	38499	0	0	0	26716	25250	154372	27256	1071220	46974	109901	0	0	8173	530219	0	0
2024-09-13 03:21:47			0	38508	0	0	0	26719	25250	154196	27303	1071274	46985	109902	0	0	8174	529877	0	0
2024-09-13 03:22:47			0	38503	0	0	0	26737	25250	154228	26844	1071283	46997	109909	0	0	8173	530067	0	0
2024-09-13 03:23:47			0	38511	0	0	0	26745	25270	154308	27202	1071417	46987	109912	0	0	8174	529702	0	0
2024-09-13 03:24:47			0	38530	0	0	0	26763	25270	154308	27326	1071417	46987	109919	0	0	8175	528980	0	0
2024-09-13 03:25:47			0	38545	0	0	0	26773	25280	154156	27057	1071435	46989	109923	0	0	8175	528380	0	0
2024-09-13 03:26:47			0	38585	0	0	0	26758	25290	153904	27137	1071534	47000	109917	0	0	8178	526833	0	0
2024-09-13 03:27:47			0	38595	0	0	0	26750	25290	153940	27066	1071516	46990	109914	0	0	8179	526454	0	0
2024-09-13 03:28:47			0	38583	0	0	0	26745	25290	153868	27351	1071560	46978	109912	0	0	8178	526909	0	0
2024-09-13 03:29:47			0	38639	0	0	0	26724	25290	153868	27409	1071543	47000	109904	0	0	8182	524788	0	0
2024-09-13 03:30:47			0	38614	0	0	0	26709	25300	154004	27291	1071525	46991	109898	0	0	8180	525704	0	0
2024-09-13 03:31:47			0	38579	0	0	0	26703	25300	154036	27291	1071454	46980	109896	0	0	8178	527030	0	0
2024-09-13 03:32:47			0	38553	0	0	0	26675	25300	154076	27525	1071444	46968	109885	0	0	8177	528017	0	0
2024-09-13 03:33:47			0	38550	0	0	0	26662	25300	154144	26781	1071391	46968	109880	0	0	8178	528131	0	0
2024-09-13 03:34:47			0	38511	0	0	0	26690	25290	154252	27196	1071382	46957	109891	0	0	8175	529642	0	0
2024-09-13 03:35:47			0	38514	0	0	0	26667	25300	154156	26741	1071391	46947	109882	0	0	8175	529498	0	0
2024-09-13 03:36:47			0	38539	0	0	0	26667	25290	154092	27447	1071346	46956	109882	0	0	8177	528578	0	0
2024-09-13 03:37:47			0	38536	0	0	0	26662	25290	154136	26838	1071319	46956	109880	0	0	8177	528692	0	0
2024-09-13 03:38:47			0	38531	0	0	0	26690	25270	154216	26864	1071265	46944	109891	0	0	8176	528942	0	0
2024-09-13 03:39:47			0	38523	0	0	0	26683	25280	154108	26856	1071301	46978	109888	0	0	8176	529216	0	0
2024-09-13 03:40:47			0	38533	0	0	0	26701	25280	154308	26998	1071355	46966	109895	0	0	8176	528836	0	0
2024-09-13 03:41:47			0	38541	0	0	0	26701	25280	154228	27150	1071364	46978	109895	0	0	8176	528532	0	0
2024-09-13 03:42:47			0	38539	0	0	0	26703	25280	154264	26906	1071364	46978	109896	0	0	8176	528608	0	0
2024-09-13 03:43:47			0	38537	0	0	0	26696	25270	154252	26979	1071399	46965	109893	0	0	8176	528714	0	0
2024-09-13 03:44:47			0	38539	0	0	0	26677	25280	154220	27017	1071381	46966	109886	0	0	8177	528608	0	0
2024-09-13 03:45:47			0	38530	0	0	0	26703	25280	154276	27171	1071390	46966	109896	0	0	8176	528950	0	0
2024-09-13 03:46:47			0	38512	0	0	0	26701	25280	154296	26987	1071381	46978	109895	0	0	8175	529634	0	0
2024-09-13 03:47:47			0	38510	0	0	0	26698	25290	154320	26790	1071480	46966	109894	0	0	8175	529680	0	0
2024-09-13 03:48:47			0	38535	0	0	0	26701	25280	154312	26949	1071364	46966	109895	0	0	8176	528760	0	0
2024-09-13 03:49:47			0	38509	0	0	0	26696	25290	154264	26904	1071426	46978	109893	0	0	8175	529718	0	0
2024-09-13 03:50:47			0	38517	0	0	0	26696	25280	154348	26974	1071337	46966	109893	0	0	8175	529444	0	0
2024-09-13 03:51:47			0	38518	0	0	0	26693	25280	154208	26955	1071364	46978	109892	0	0	8175	529406	0	0
2024-09-13 03:52:47			0	38494	0	0	0	26662	25280	154292	26928	1071417	46966	109880	0	0	8174	530319	0	0
2024-09-13 03:53:47			0	38489	0	0	0	26651	25290	154316	27350	1071373	46966	109876	0	0	8174	530480	0	0
2024-09-13 03:54:47			0	38476	0	0	0	26646	25280	154456	27078	1071301	46966	109874	0	0	8173	531005	0	0
2024-09-13 03:55:47			0	38455	0	0	0	26646	25270	154532	26892	1071292	46965	109874	0	0	8172	531835	0	0
2024-09-13 03:56:47			0	38432	0	0	0	26646	25280	154624	26946	1071301	46966	109874	0	0	8171	532682	0	0
2024-09-13 03:57:47			0	38411	0	0	0	26667	25270	154708	27377	1071292	46944	109882	0	0	8169	533514	0	0
2024-09-13 03:58:47			0	38412	0	0	0	26670	25270	154636	27107	1071229	46964	109883	0	0	8169	533476	0	0
2024-09-13 03:59:47			0	38423	0	0	0	26703	25270	154668	26996	1071292	46965	109896	0	0	8169	533056	0	0
2024-09-13 04:00:47			0	38472	0	0	0	26703	25280	154536	27098	1071301	46966	109896	0	0	8172	531157	0	0
2024-09-13 04:01:47			0	38481	0	0	0	26711	25260	154416	26890	1071301	46987	109899	0	0	8173	530875	0	0
2024-09-13 04:02:47			0	38483	0	0	0	26706	25270	154396	27074	1071292	46977	109897	0	0	8173	530768	0	0
2024-09-13 04:03:47			0	38525	0	0	0	26693	25270	154348	27144	1071345	46977	109892	0	0	8175	529170	0	0
2024-09-13 04:04:47			0	38503	0	0	0	26701	25280	154344	27071	1071337	46978	109895	0	0	8174	529977	0	0
2024-09-13 04:05:47			0	38505	0	0	0	26680	25270	154396	27218	1071372	46965	109887	0	0	8174	529931	0	0
2024-09-13 04:06:47			0	38497	0	0	0	26683	25280	154372	27239	1071381	46978	109888	0	0	8174	530205	0	0
2024-09-13 04:07:47			0	38511	0	0	0	26677	25280	154332	26892	1071355	46956	109886	0	0	8175	529672	0	0
2024-09-13 04:08:47			0	38500	0	0	0	26680	25280	154392	26864	1071301	46966	109887	0	0	8174	530091	0	0
2024-09-13 04:09:47			0	38488	0	0	0	26667	25280	154360	26819	1071328	46966	109882	0	0	8174	530548	0	0
2024-09-13 04:10:47			0	38471	0	0	0	26662	25270	154496	26871	1071283	46964	109880	0	0	8173	531225	0	0
2024-09-13 04:11:47			0	38480	0	0	0	26670	25280	154552	27218	1071328	46956	109883	0	0	8173	530852	0	0
2024-09-13 04:12:47			0	38451	0	0	0	26638	25270	154668	26870	1071292	46988	109871	0	0	8172	531988	0	0
2024-09-13 04:13:47			0	38444	0	0	0	26607	25270	154568	27177	1071229	46976	109859	0	0	8172	532255	0	0
2024-09-13 04:14:47			0	38428	0	0	0	26628	25270	154660	26968	1071229	46964	109867	0	0	8171	532865	0	0
2024-09-13 04:15:47			0	38387	0	0	0	26625	25260	154796	27104	1071167	46954	109866	0	0	8169	534462	0	0
2024-09-13 04:16:47			0	38372	0	0	0	26631	25260	154872	27053	1071184	46963	109868	0	0	8168	535036	0	0
2024-09-13 04:17:47			0	38383	0	0	0	26657	25250	154900	26960	1071175	46942	109878	0	0	8168	534645	0	0
2024-09-13 04:18:47			0	38411	0	0	0	26677	25250	154784	26948	1071148	46963	109886	0	0	8169	533575	0	0
2024-09-13 04:19:47			0	38406	0	0	0	26680	25260	154772	27138	1071238	46986	109887	0	0	8169	533736	0	0
2024-09-13 04:20:47			0	38425	0	0	0	26672	25250	154688	26928	1071166	46962	109884	0	0	8170	533040	0	0
2024-09-13 04:21:47			0	38447	0	0	0	26651	25250	154648	27114	1071229	46975	109876	0	0	8172	532201	0	0
2024-09-13 04:22:47			0	38424	0	0	0	26628	25250	154736	27031	1071202	46963	109867	0	0	8171	533078	0	0
2024-09-13 04:23:47			0	38417	0	0	0	26612	25250	154752	27164	1071139	46962	109861	0	0	8170	533346	0	0
2024-09-13 04:24:47			0	38377	0	0	0	26618	25240	154856	27039	1071130	46962	109863	0	0	8168	534905	0	0
2024-09-13 04:25:47			0	38355	0	0	0	26615	25240	154920	27147	1071023	46962	109862	0	0	8167	535748	0	0
2024-09-13 04:26:47			0	38353	0	0	0	26620	25240	155004	27355	1071104	46974	109864	0	0	8167	535824	0	0
2024-09-13 04:27:47			0	38323	0	0	0	26625	25240	155040	27397	1070987	46951	109866	0	0	8165	536974	0	0
2024-09-13 04:28:47			0	38348	0	0	0	26612	25230	155092	27454	1071086	46961	109861	0	0	8166	536046	0	0
2024-09-13 04:29:47			0	38330	0	0	0	26623	25230	155028	27542	1071050	46950	109865	0	0	8165	536736	0	0
2024-09-13 04:30:47			0	38332	0	0	0	26628	25220	155000	27281	1071041	46960	109867	0	0	8165	536690	0	0
2024-09-13 04:31:47			0	38320	0	0	0	26605	25230	155040	27218	1071112	46973	109858	0	0	8165	537120	0	0
2024-09-13 04:32:47			0	38295	0	0	0	26607	25220	155188	27031	1071067	46960	109859	0	0	8163	538110	0	0
2024-09-13 04:33:47			0	38296	0	0	0	26615	25230	155296	27045	1070969	46960	109862	0	0	8163	538041	0	0
2024-09-13 04:34:47			0	38280	0	0	0	26631	25230	155168	27053	1071023	46960	109868	0	0	8162	538656	0	0
2024-09-13 04:35:47			0	38277	0	0	0	26615	25220	155212	27072	1071014	46972	109862	0	0	8162	538801	0	0
2024-09-13 04:36:47			0	38318	0	0	0	26610	25210	155192	27284	1070969	46958	109860	0	0	8165	537257	0	0
2024-09-13 04:37:47			0	38286	0	0	0	26610	25220	155144	27199	1071005	46959	109860	0	0	8163	538456	0	0
2024-09-13 04:38:47			0	38308	0	0	0	26602	25220	155068	27190	1070978	46959	109857	0	0	8164	537611	0	0
2024-09-13 04:39:47			0	38315	0	0	0	26597	25210	155032	27209	1070933	46970	109855	0	0	8165	537373	0	0
2024-09-13 04:40:47			0	38328	0	0	0	26607	25210	155108	27260	1070906	46948	109859	0	0	8165	536874	0	0
2024-09-13 04:41:47			0	38321	0	0	0	26615	25200	155188	27161	1070951	46958	109862	0	0	8165	537173	0	0
2024-09-13 04:42:47			0	38335	0	0	0	26597	25200	155032	27415	1070951	46948	109855	0	0	8166	536636	0	0
2024-09-13 04:43:47			0	38346	0	0	0	26592	25210	155048	27256	1070906	46970	109853	0	0	8167	536184	0	0
2024-09-13 04:44:47			0	38342	0	0	0	26602	25210	155036	27274	1070942	46958	109857	0	0	8166	536337	0	0
2024-09-13 04:45:47			0	38343	0	0	0	26597	25200	155028	27128	1070942	46958	109855	0	0	8166	536329	0	0
2024-09-13 04:46:47			0	38379	0	0	0	26610	25200	155008	26894	1070924	46958	109860	0	0	8168	534950	0	0
2024-09-13 04:47:47			0	38361	0	0	0	26607	25200	154888	26956	1070942	46958	109859	0	0	8167	535639	0	0
2024-09-13 04:48:47			0	38369	0	0	0	26623	25200	154860	27116	1070951	46970	109865	0	0	8167	535333	0	0
2024-09-13 04:49:47			0	38391	0	0	0	26618	25210	154872	27253	1070960	46970	109863	0	0	8169	534461	0	0
2024-09-13 04:50:47			0	38401	0	0	0	26618	25210	154716	27093	1071040	46958	109863	0	0	8169	534078	0	0
2024-09-13 04:51:47			0	38422	0	0	0	26605	25210	154672	27197	1070987	46970	109858	0	0	8171	533276	0	0
2024-09-13 04:52:47			0	38414	0	0	0	26618	25200	154776	27185	1070942	46947	109863	0	0	8170	533612	0	0
2024-09-13 04:53:47			0	38442	0	0	0	26646	25210	154648	27258	1070960	46970	109874	0	0	8171	532512	0	0
2024-09-13 04:54:47			0	38469	0	0	0	26638	25200	154456	26979	1071005	46981	109871	0	0	8173	531513	0	0
2024-09-13 04:55:47			0	38484	0	0	0	26633	25210	154384	27213	1071014	46981	109869	0	0	8174	530911	0	0
2024-09-13 04:56:47			0	38507	0	0	0	26633	25210	154336	27303	1071049	46970	109869	0	0	8175	530035	0	0
2024-09-13 04:57:47			0	38525	0	0	0	26631	25200	154368	26844	1071031	46958	109868	0	0	8176	529381	0	0
2024-09-13 04:58:47			0	38542	0	0	0	26605	25220	154252	26953	1071032	46971	109858	0	0	8178	528674	0	0
2024-09-13 04:59:47			0	38530	0	0	0	26633	25220	154292	27272	1071005	46959	109869	0	0	8176	529130	0	0
2024-09-13 05:00:47			0	38530	0	0	0	26623	25220	154300	27048	1071058	46971	109865	0	0	8177	529130	0	0
2024-09-13 05:01:47			0	38518	0	0	0	26638	25220	154332	27107	1071058	46971	109871	0	0	8176	529587	0	0
2024-09-13 05:02:47			0	38545	0	0	0	26644	25210	154292	27121	1070996	46981	109873	0	0	8177	528590	0	0
2024-09-13 05:03:47			0	38557	0	0	0	26672	25220	154132	27246	1071032	46971	109884	0	0	8177	528105	0	0
2024-09-13 05:04:47			0	38601	0	0	0	26672	25220	154128	27216	1071121	46983	109884	0	0	8180	526436	0	0
2024-09-13 05:05:47			0	38613	0	0	0	26654	25230	154036	27097	1071130	46972	109877	0	0	8181	525951	0	0
2024-09-13 05:06:47			0	38608	0	0	0	26644	25230	154020	27308	1071130	46960	109873	0	0	8181	526140	0	0
2024-09-13 05:07:47			0	38589	0	0	0	26657	25220	154012	26958	1071094	46960	109878	0	0	8179	526890	0	0
2024-09-13 05:08:47			0	38595	0	0	0	26644	25230	154148	27249	1071157	46983	109873	0	0	8180	526633	0	0
2024-09-13 05:09:47			0	38600	0	0	0	26623	25230	154076	27189	1071103	46960	109865	0	0	8181	526444	0	0
2024-09-13 05:10:47			0	38582	0	0	0	26605	25230	153952	27010	1071112	46951	109858	0	0	8180	527126	0	0
2024-09-13 05:11:47			0	38569	0	0	0	26592	25220	154108	27220	1071094	46960	109853	0	0	8179	527649	0	0
2024-09-13 05:12:47			0	38558	0	0	0	26586	25230	154184	26994	1070996	46972	109851	0	0	8179	528037	0	0
2024-09-13 05:13:47			0	38559	0	0	0	26599	25220	154232	27196	1071032	46949	109856	0	0	8179	528029	0	0
2024-09-13 05:14:47			0	38545	0	0	0	26586	25220	154196	26991	1070853	46960	109851	0	0	8178	528560	0	0
2024-09-13 05:15:47			0	38539	0	0	0	26581	25210	154276	27083	1070933	46948	109849	0	0	8178	528818	0	0
2024-09-13 05:16:47			0	38538	0	0	0	26607	25220	154308	27100	1070978	46949	109859	0	0	8177	528826	0	0
2024-09-13 05:17:47			0	38544	0	0	0	26602	25210	154180	27100	1070853	46948	109857	0	0	8178	528628	0	0
2024-09-13 05:18:47			0	38546	0	0	0	26592	25200	154200	27059	1070951	46948	109853	0	0	8178	528582	0	0
2024-09-13 05:19:47			0	38557	0	0	0	26586	25210	154220	27062	1070960	46948	109851	0	0	8179	528135	0	0
2024-09-13 05:20:47			0	38590	0	0	0	26579	25200	154228	26951	1070915	46947	109848	0	0	8181	526912	0	0
2024-09-13 05:21:47			0	38586	0	0	0	26584	25200	154188	26970	1070888	46947	109850	0	0	8180	527064	0	0
2024-09-13 05:22:47			0	38606	0	0	0	26574	25190	154136	27168	1070933	46946	109846	0	0	8182	526336	0	0
2024-09-13 05:23:47			0	38619	0	0	0	26571	25200	154120	27159	1070951	46970	109845	0	0	8183	525814	0	0
2024-09-13 05:24:47			0	38627	0	0	0	26566	25180	154000	27164	1070834	46956	109843	0	0	8183	525570	0	0
2024-09-13 05:25:47			0	38632	0	0	0	26545	25170	154104	27216	1070852	46967	109835	0	0	8184	525411	0	0
2024-09-13 05:26:47			0	38607	0	0	0	26553	25180	154096	27305	1070861	46956	109838	0	0	8182	526328	0	0
2024-09-13 05:27:47			0	38611	0	0	0	26558	25170	154088	27246	1070691	46956	109840	0	0	8182	526206	0	0
2024-09-13 05:28:47			0	38612	0	0	0	26553	25170	154152	27104	1070682	46944	109838	0	0	8182	526168	0	0
2024-09-13 05:29:47			0	38618	0	0	0	26527	25170	154016	27396	1070718	46934	109828	0	0	8183	525941	0	0
2024-09-13 05:30:47			0	38615	0	0	0	26532	25170	154052	27114	1070691	46934	109830	0	0	8183	526055	0	0
2024-09-13 05:31:47			0	38605	0	0	0	26537	25160	154084	27100	1070691	46932	109832	0	0	8182	526463	0	0
2024-09-13 05:32:47			0	38602	0	0	0	26553	25160	154120	27196	1070664	46932	109838	0	0	8182	526577	0	0
2024-09-13 05:33:47			0	38607	0	0	0	26574	25150	154144	27284	1070655	46943	109846	0	0	8182	526417	0	0
2024-09-13 05:34:47			0	38627	0	0	0	26584	25160	154040	27353	1070744	46965	109850	0	0	8183	525630	0	0
2024-09-13 05:35:47			0	38629	0	0	0	26568	25170	153996	27291	1070682	46966	109844	0	0	8183	525524	0	0
2024-09-13 05:36:47			0	38651	0	0	0	26563	25160	153984	27118	1070727	46966	109842	0	0	8184	524722	0	0
2024-09-13 05:37:47			0	38651	0	0	0	26568	25160	153892	27222	1070825	46965	109844	0	0	8184	524722	0	0
2024-09-13 05:38:47			0	38658	0	0	0	26574	25160	153964	27102	1070691	46943	109846	0	0	8185	524457	0	0
2024-09-13 05:39:47			0	38660	0	0	0	26586	25150	153960	27228	1070708	46954	109851	0	0	8184	524411	0	0
2024-09-13 05:40:47			0	38649	0	0	0	26563	25170	153936	27405	1070745	46956	109842	0	0	8184	524768	0	0
2024-09-13 05:41:47			0	38647	0	0	0	26542	25160	153948	27097	1070780	46944	109834	0	0	8184	524873	0	0
2024-09-13 05:42:47			0	38621	0	0	0	26535	25160	154068	27185	1070691	46965	109831	0	0	8183	525857	0	0
2024-09-13 05:43:47			0	38622	0	0	0	26555	25160	154048	27012	1070700	46966	109839	0	0	8183	525819	0	0
2024-09-13 05:44:47			0	38631	0	0	0	26548	25160	153996	27038	1070691	46965	109836	0	0	8183	525478	0	0
2024-09-13 05:45:47			0	38636	0	0	0	26548	25160	154100	27194	1070718	46954	109836	0	0	8184	525289	0	0
2024-09-13 05:46:47			0	38616	0	0	0	26537	25150	154148	26830	1070655	46954	109832	0	0	8183	526076	0	0
2024-09-13 05:47:47			0	38620	0	0	0	26516	25140	154048	26812	1070610	46952	109824	0	0	8183	525955	0	0
2024-09-13 05:48:47			0	38625	0	0	0	26527	25150	154108	27124	1070601	46943	109828	0	0	8183	525736	0	0
2024-09-13 05:49:47			0	38612	0	0	0	26532	25150	154072	27163	1070592	46953	109830	0	0	8183	526228	0	0
2024-09-13 05:50:47			0	38575	0	0	0	26519	25140	154356	27204	1070637	46941	109825	0	0	8181	527661	0	0
2024-09-13 05:51:47			0	38584	0	0	0	26522	25140	154220	27152	1070530	46941	109826	0	0	8181	527320	0	0
2024-09-13 05:52:47			0	38578	0	0	0	26506	25130	154184	27322	1070529	46951	109820	0	0	8181	527577	0	0
2024-09-13 05:53:47			0	38545	0	0	0	26498	25130	154428	26958	1070503	46940	109817	0	0	8179	528831	0	0
2024-09-13 05:54:47			0	38536	0	0	0	26496	25130	154564	27171	1070556	46940	109816	0	0	8179	529173	0	0
2024-09-13 05:55:47			0	38549	0	0	0	26509	25120	154444	27175	1070493	46950	109821	0	0	8179	528708	0	0
2024-09-13 05:56:47			0	38555	0	0	0	26522	25130	154348	27379	1070476	46951	109826	0	0	8179	528450	0	0
2024-09-13 05:57:47			0	38552	0	0	0	26522	25110	154348	27255	1070529	46939	109826	0	0	8179	528625	0	0
2024-09-13 05:58:47			0	38581	0	0	0	26524	25120	154336	27173	1070467	46960	109827	0	0	8181	527493	0	0
2024-09-13 05:59:47			0	38570	0	0	0	26524	25110	154444	27123	1070475	46950	109827	0	0	8180	527941	0	0
2024-09-13 06:00:47			0	38573	0	0	0	26535	25110	154324	27190	1070529	46960	109831	0	0	8180	527827	0	0
2024-09-13 06:01:47			0	38587	0	0	0	26527	25120	154204	27286	1070520	46960	109828	0	0	8181	527265	0	0
2024-09-13 06:02:47			0	38585	0	0	0	26542	25120	154288	27431	1070493	46950	109834	0	0	8181	527341	0	0
2024-09-13 06:03:47			0	38573	0	0	0	26537	25120	154268	27123	1070511	46960	109832	0	0	8180	527797	0	0
2024-09-13 06:04:47			0	38581	0	0	0	26524	25120	154316	27215	1070592	46950	109827	0	0	8181	527493	0	0
2024-09-13 06:05:47			0	38569	0	0	0	26532	25120	154316	26958	1070520	46939	109830	0	0	8180	527949	0	0
2024-09-13 06:06:47			0	38579	0	0	0	26524	25120	154308	27435	1070601	46950	109827	0	0	8181	527569	0	0
2024-09-13 06:07:47			0	38593	0	0	0	26522	25120	154320	27293	1070574	46960	109826	0	0	8182	527038	0	0
2024-09-13 06:08:47			0	38572	0	0	0	26522	25120	154276	27414	1070493	46950	109826	0	0	8180	527835	0	0
2024-09-13 06:09:47			0	38566	0	0	0	26509	25120	154308	26882	1070484	46972	109821	0	0	8180	528063	0	0
2024-09-13 06:10:47			0	38544	0	0	0	26506	25120	154344	27234	1070484	46950	109820	0	0	8179	528899	0	0
2024-09-13 06:11:47			0	38551	0	0	0	26503	25120	154388	27007	1070538	46939	109819	0	0	8179	528632	0	0
2024-09-13 06:12:47			0	38556	0	0	0	26514	25110	154376	27213	1070413	46926	109823	0	0	8179	528472	0	0
2024-09-13 06:13:47			0	38528	0	0	0	26511	25120	154456	27293	1070458	46960	109822	0	0	8178	529507	0	0
2024-09-13 06:14:47			0	38523	0	0	0	26506	25110	154516	27201	1070466	46949	109820	0	0	8178	529727	0	0
2024-09-13 06:15:47			0	38521	0	0	0	26511	25110	154500	27358	1070475	46960	109822	0	0	8178	529803	0	0
2024-09-13 06:16:47			0	38524	0	0	0	26524	25110	154580	27121	1070475	46950	109827	0	0	8177	529689	0	0
2024-09-13 06:17:47			0	38537	0	0	0	26537	25110	154520	27367	1070475	46960	109832	0	0	8178	529195	0	0
2024-09-13 06:18:47			0	38547	0	0	0	26548	25110	154492	26864	1070449	46950	109836	0	0	8178	528814	0	0
2024-09-13 06:19:47			0	38576	0	0	0	26535	25110	154420	27116	1070529	46950	109831	0	0	8180	527713	0	0
2024-09-13 06:20:47			0	38572	0	0	0	26522	25120	154252	27138	1070547	46972	109826	0	0	8180	527835	0	0
2024-09-13 06:21:47			0	38559	0	0	0	26506	25120	154320	27249	1070547	46972	109820	0	0	8180	528329	0	0
2024-09-13 06:22:47			0	38551	0	0	0	26514	25110	154520	27062	1070502	46939	109823	0	0	8179	528663	0	0
2024-09-13 06:23:47			0	38575	0	0	0	26524	25120	154460	27173	1070493	46950	109827	0	0	8180	527721	0	0
2024-09-13 06:24:47			0	38547	0	0	0	26529	25110	154420	26816	1070520	46959	109829	0	0	8179	528814	0	0
2024-09-13 06:25:47			0	38527	0	0	0	26527	25110	154564	26767	1070547	46959	109828	0	0	8178	529575	0	0
2024-09-13 06:26:47			0	38519	0	0	0	26535	25120	154564	26844	1070484	46960	109831	0	0	8177	529849	0	0
2024-09-13 06:27:47			0	38540	0	0	0	26519	25110	154540	26941	1070529	46950	109825	0	0	8178	529080	0	0
2024-09-13 06:28:47			0	38511	0	0	0	26532	25120	154580	26991	1070511	46950	109830	0	0	8177	530154	0	0
2024-09-13 06:29:47			0	38523	0	0	0	26519	25110	154508	27097	1070556	46960	109825	0	0	8178	529727	0	0
2024-09-13 06:30:47			0	38549	0	0	0	26509	25110	154484	26778	1070475	46950	109821	0	0	8179	528738	0	0
2024-09-13 06:31:47			0	38533	0	0	0	26503	25110	154500	27060	1070502	46960	109819	0	0	8178	529347	0	0
2024-09-13 06:32:47			0	38533	0	0	0	26511	25110	154548	27220	1070502	46950	109822	0	0	8178	529347	0	0
2024-09-13 06:33:47			0	38532	0	0	0	26503	25110	154500	26741	1070529	46950	109819	0	0	8178	529385	0	0
2024-09-13 06:34:47			0	38534	0	0	0	26519	25110	154608	27069	1070493	46938	109825	0	0	8178	529309	0	0
2024-09-13 06:35:47			0	38529	0	0	0	26516	25110	154628	27218	1070449	46950	109824	0	0	8178	529499	0	0
2024-09-13 06:36:47			0	38536	0	0	0	26511	25110	154544	26885	1070493	46959	109822	0	0	8178	529233	0	0
2024-09-13 06:37:47			0	38535	0	0	0	26524	25110	154552	27017	1070466	46959	109827	0	0	8178	529271	0	0
2024-09-13 06:38:47			0	38540	0	0	0	26503	25120	154488	27111	1070484	46939	109819	0	0	8179	529051	0	0
2024-09-13 06:39:47			0	38517	0	0	0	26493	25100	154668	27043	1070457	46958	109815	0	0	8178	529986	0	0
2024-09-13 06:40:47			0	38507	0	0	0	26490	25110	154628	27086	1070466	46949	109814	0	0	8177	530336	0	0
2024-09-13 06:41:47			0	38508	0	0	0	26503	25100	154628	26741	1070431	46948	109819	0	0	8177	530328	0	0
2024-09-13 06:42:47			0	38504	0	0	0	26493	25100	154580	26840	1070448	46948	109815	0	0	8177	530480	0	0
2024-09-13 06:43:47			0	38512	0	0	0	26496	25100	154636	26930	1070395	46948	109816	0	0	8177	530176	0	0
2024-09-13 06:44:47			0	38511	0	0	0	26490	25110	154652	27112	1070440	46959	109814	0	0	8177	530184	0	0
2024-09-13 06:45:47			0	38503	0	0	0	26488	25090	154724	26876	1070386	46948	109813	0	0	8177	530549	0	0
2024-09-13 06:46:47			0	38480	0	0	0	26472	25110	154756	27038	1070413	46959	109807	0	0	8176	531365	0	0
2024-09-13 06:47:47			0	38485	0	0	0	26467	25100	154748	26939	1070341	46937	109805	0	0	8176	531204	0	0
2024-09-13 06:48:47			0	38447	0	0	0	26449	25090	154872	27019	1070332	46937	109798	0	0	8174	532684	0	0
2024-09-13 06:49:47			0	38449	0	0	0	26410	25080	154820	26955	1070305	46934	109783	0	0	8175	532638	0	0
2024-09-13 06:50:47			0	38430	0	0	0	26407	25080	154964	26786	1070260	46935	109782	0	0	8174	533364	0	0
2024-09-13 06:51:47			0	38400	0	0	0	26412	25080	155112	26748	1070225	46912	109784	0	0	8172	534511	0	0
2024-09-13 06:52:47			0	38398	0	0	0	26405	25060	155148	27175	1070171	46944	109781	0	0	8172	534648	0	0
2024-09-13 06:53:47			0	38390	0	0	0	26410	25060	155020	27022	1070090	46921	109783	0	0	8171	534954	0	0
2024-09-13 06:54:47			0	38415	0	0	0	26381	25050	154968	27209	1070099	46932	109772	0	0	8173	534028	0	0
2024-09-13 06:55:47			0	38424	0	0	0	26376	25050	154932	27140	1070045	46943	109770	0	0	8174	533684	0	0
2024-09-13 06:56:47			0	38408	0	0	0	26355	25050	155028	26783	1070063	46920	109762	0	0	8173	534296	0	0
2024-09-13 06:57:47			0	38395	0	0	0	26373	25020	155180	27001	1069955	46928	109769	0	0	8172	534884	0	0
2024-09-13 06:58:47			0	38395	0	0	0	26371	25020	155076	26916	1069902	46916	109768	0	0	8172	534884	0	0
2024-09-13 06:59:47			0	38391	0	0	0	26337	25010	155144	27074	1069937	46916	109755	0	0	8173	535068	0	0
2024-09-13 07:00:47			0	38370	0	0	0	26379	25000	155268	26835	1069865	46915	109771	0	0	8171	535902	0	0
2024-09-13 07:01:47			0	38388	0	0	0	26397	25010	155220	27317	1069883	46938	109778	0	0	8171	535182	0	0
2024-09-13 07:02:47			0	38405	0	0	0	26368	24990	155176	27248	1069883	46925	109767	0	0	8173	534592	0	0
2024-09-13 07:03:47			0	38397	0	0	0	26358	25000	155068	27365	1069892	46937	109763	0	0	8172	534868	0	0
2024-09-13 07:04:47			0	38397	0	0	0	26415	24990	155124	26942	1069901	46936	109785	0	0	8171	534899	0	0
2024-09-13 07:05:47			0	38407	0	0	0	26412	24990	155040	26899	1069936	46936	109784	0	0	8172	534516	0	0
2024-09-13 07:06:47			0	38431	0	0	0	26373	24990	155000	26797	1069910	46936	109769	0	0	8174	533598	0	0
2024-09-13 07:07:47			0	38432	0	0	0	26386	24990	155056	27211	1069901	46925	109774	0	0	8174	533560	0	0
2024-09-13 07:08:47			0	38438	0	0	0	26386	24990	154988	26989	1069847	46947	109774	0	0	8174	533330	0	0
2024-09-13 07:09:47			0	38433	0	0	0	26366	24990	155036	26778	1069874	46936	109766	0	0	8174	533521	0	0
2024-09-13 07:10:47			0	38434	0	0	0	26381	24990	155080	26743	1069883	46936	109772	0	0	8174	533483	0	0
2024-09-13 07:11:47			0	38435	0	0	0	26373	24980	155088	26982	1069865	46936	109769	0	0	8174	533475	0	0
2024-09-13 07:12:47			0	38426	0	0	0	26368	24990	155032	26986	1069820	46914	109767	0	0	8174	533789	0	0
2024-09-13 07:13:47			0	38388	0	0	0	26361	24970	155252	27001	1069793	46923	109764	0	0	8172	535304	0	0
2024-09-13 07:14:47			0	38388	0	0	0	26350	24980	155192	27267	1069838	46936	109760	0	0	8172	535273	0	0
2024-09-13 07:15:47			0	38378	0	0	0	26340	24980	155248	27105	1069802	46924	109756	0	0	8172	535657	0	0
2024-09-13 07:16:47			0	38369	0	0	0	26355	24970	155216	27249	1069731	46923	109762	0	0	8171	536032	0	0
2024-09-13 07:17:47			0	38370	0	0	0	26353	24970	155204	26875	1069757	46934	109761	0	0	8171	535994	0	0
2024-09-13 07:18:47			0	38364	0	0	0	26368	24960	155296	26868	1069748	46923	109767	0	0	8170	536254	0	0
2024-09-13 07:19:47			0	38389	0	0	0	26350	24970	155208	26968	1069740	46934	109760	0	0	8172	535266	0	0
2024-09-13 07:20:47			0	38359	0	0	0	26353	24960	155292	26729	1069802	46923	109761	0	0	8170	536446	0	0
2024-09-13 07:21:47			0	38340	0	0	0	26353	24960	155304	26809	1069775	46934	109761	0	0	8169	537175	0	0
2024-09-13 07:22:47			0	38329	0	0	0	26355	24960	155476	27036	1069695	46934	109762	0	0	8168	537597	0	0
2024-09-13 07:23:47			0	38338	0	0	0	26353	24960	155440	26790	1069722	46923	109761	0	0	8169	537252	0	0
2024-09-13 07:24:47			0	38310	0	0	0	26355	24950	155488	26989	1069748	46920	109762	0	0	8167	538358	0	0
2024-09-13 07:25:47			0	38316	0	0	0	26371	24960	155492	27118	1069748	46923	109768	0	0	8167	538097	0	0
2024-09-13 07:26:47			0	38307	0	0	0	26366	24950	155548	27182	1069704	46921	109766	0	0	8167	538473	0	0
2024-09-13 07:27:47			0	38318	0	0	0	26361	24960	155548	26953	1069686	46933	109764	0	0	8168	538020	0	0
2024-09-13 07:28:47			0	38335	0	0	0	26361	24950	155444	27038	1069704	46932	109764	0	0	8169	537397	0	0
2024-09-13 07:29:47			0	38325	0	0	0	26355	24960	155408	26937	1069722	46934	109762	0	0	8168	537751	0	0
2024-09-13 07:30:47			0	38346	0	0	0	26358	24960	155428	27190	1069748	46934	109763	0	0	8169	536945	0	0
2024-09-13 07:31:47			0	38334	0	0	0	26350	24960	155396	26975	1069722	46945	109760	0	0	8169	537405	0	0
2024-09-13 07:32:47			0	38326	0	0	0	26358	24960	155420	26635	1069739	46933	109763	0	0	8168	537712	0	0
2024-09-13 07:33:47			0	38335	0	0	0	26371	24950	155480	26970	1069775	46942	109768	0	0	8168	537397	0	0
2024-09-13 07:34:47			0	38343	0	0	0	26363	24950	155452	27119	1069668	46931	109765	0	0	8169	537090	0	0
2024-09-13 07:35:47			0	38359	0	0	0	26342	24950	155300	27166	1069668	46931	109757	0	0	8170	536476	0	0
2024-09-13 07:36:47			0	38358	0	0	0	26345	24950	155364	27206	1069677	46943	109758	0	0	8170	536514	0	0
2024-09-13 07:37:47			0	38357	0	0	0	26340	24950	155348	27339	1069704	46921	109756	0	0	8170	536553	0	0
2024-09-13 07:38:47			0	38351	0	0	0	26340	24950	155324	27156	1069730	46932	109756	0	0	8170	536783	0	0
2024-09-13 07:39:47			0	38363	0	0	0	26358	24950	155392	26894	1069668	46931	109763	0	0	8170	536323	0	0
2024-09-13 07:40:47			0	38366	0	0	0	26332	24940	155372	27111	1069685	46931	109753	0	0	8171	536238	0	0
2024-09-13 07:41:47			0	38393	0	0	0	26335	24950	155392	27156	1069695	46920	109754	0	0	8172	535173	0	0
2024-09-13 07:42:47			0	38373	0	0	0	26340	24940	155324	27144	1069685	46931	109756	0	0	8171	535970	0	0
2024-09-13 07:43:47			0	38386	0	0	0	26348	24950	155292	27053	1069641	46920	109759	0	0	8172	535441	0	0
2024-09-13 07:44:47			0	38395	0	0	0	26332	24940	155236	27076	1069650	46920	109753	0	0	8173	535127	0	0
2024-09-13 07:45:47			0	38387	0	0	0	26340	24950	155300	27027	1069695	46920	109756	0	0	8172	535403	0	0
2024-09-13 07:46:47			0	38413	0	0	0	26327	24950	155132	27026	1069668	46931	109751	0	0	8174	534407	0	0
2024-09-13 07:47:47			0	38409	0	0	0	26337	24940	155120	27294	1069605	46931	109755	0	0	8173	534591	0	0
2024-09-13 07:48:47			0	38435	0	0	0	26335	24940	155148	27013	1069650	46931	109754	0	0	8175	533596	0	0
2024-09-13 07:49:47			0	38434	0	0	0	26335	24940	155128	27026	1069623	46942	109754	0	0	8175	533634	0	0
2024-09-13 07:50:47			0	38444	0	0	0	26335	24930	155016	27031	1069667	46930	109754	0	0	8175	533282	0	0
2024-09-13 07:51:47			0	38434	0	0	0	26332	24940	155080	26942	1069685	46920	109753	0	0	8175	533634	0	0
2024-09-13 07:52:47			0	38458	0	0	0	26329	24940	154992	27086	1069623	46931	109752	0	0	8176	532717	0	0
2024-09-13 07:53:47			0	38481	0	0	0	26324	24940	155020	27020	1069623	46931	109750	0	0	8178	531839	0	0
2024-09-13 07:54:47			0	38489	0	0	0	26319	24930	154948	26908	1069604	46929	109748	0	0	8178	531564	0	0
2024-09-13 07:55:47			0	38476	0	0	0	26290	24950	154856	27209	1069614	46920	109737	0	0	8178	532000	0	0
2024-09-13 07:56:47			0	38478	0	0	0	26316	24930	154856	26687	1069551	46917	109747	0	0	8178	531984	0	0
2024-09-13 07:57:47			0	38506	0	0	0	26301	24920	154844	27189	1069515	46929	109741	0	0	8179	530946	0	0
2024-09-13 07:58:47			0	38485	0	0	0	26288	24920	154900	26658	1069515	46940	109736	0	0	8178	531747	0	0
2024-09-13 07:59:47			0	38456	0	0	0	26306	24930	154964	27066	1069470	46907	109743	0	0	8176	532824	0	0
2024-09-13 08:00:47			0	38475	0	0	0	26301	24920	154900	27282	1069515	46929	109741	0	0	8178	532128	0	0
2024-09-13 08:01:47			0	38481	0	0	0	26280	24920	154924	27339	1069515	46940	109733	0	0	8178	531899	0	0
2024-09-13 08:02:47			0	38460	0	0	0	26264	24900	155028	27059	1069381	46927	109727	0	0	8177	532762	0	0
2024-09-13 08:03:47			0	38414	0	0	0	26272	24900	155068	27346	1069399	46894	109730	0	0	8174	534520	0	0
2024-09-13 08:04:47			0	38414	0	0	0	26280	24900	155076	27154	1069425	46916	109733	0	0	8174	534520	0	0
2024-09-13 08:05:47			0	38440	0	0	0	26280	24900	155092	27019	1069381	46916	109733	0	0	8176	533526	0	0
2024-09-13 08:06:47			0	38455	0	0	0	26311	24890	154976	26977	1069416	46916	109745	0	0	8176	532983	0	0
2024-09-13 08:07:47			0	38459	0	0	0	26303	24890	155052	27260	1069434	46926	109742	0	0	8176	532830	0	0
2024-09-13 08:08:47			0	38481	0	0	0	26303	24890	154944	27060	1069336	46938	109742	0	0	8178	531990	0	0
2024-09-13 08:09:47			0	38501	0	0	0	26296	24900	154900	27322	1069425	46916	109739	0	0	8179	531197	0	0
2024-09-13 08:10:47			0	38481	0	0	0	26293	24890	154856	27230	1069390	46927	109738	0	0	8178	531990	0	0
2024-09-13 08:11:47			0	38483	0	0	0	26303	24890	154900	27067	1069416	46916	109742	0	0	8178	531913	0	0
2024-09-13 08:12:47			0	38504	0	0	0	26316	24900	154844	26972	1069452	46938	109747	0	0	8179	531082	0	0
2024-09-13 08:13:47			0	38507	0	0	0	26311	24890	154772	27109	1069434	46915	109745	0	0	8179	530998	0	0
2024-09-13 08:14:47			0	38504	0	0	0	26301	24900	154828	27251	1069452	46916	109741	0	0	8179	531082	0	0
2024-09-13 08:15:47			0	38515	0	0	0	26296	24890	154800	27289	1069416	46927	109739	0	0	8180	530693	0	0
2024-09-13 08:16:47			0	38516	0	0	0	26290	24900	154796	27161	1069434	46916	109737	0	0	8180	530625	0	0
2024-09-13 08:17:47			0	38493	0	0	0	26283	24890	154908	27171	1069416	46905	109734	0	0	8179	531532	0	0
2024-09-13 08:18:47			0	38494	0	0	0	26283	24890	154916	27109	1069390	46938	109734	0	0	8179	531494	0	0
2024-09-13 08:19:47			0	38478	0	0	0	26285	24900	154988	26979	1069372	46916	109735	0	0	8178	532074	0	0
2024-09-13 08:20:47			0	38461	0	0	0	26275	24890	154992	27128	1069390	46927	109731	0	0	8177	532754	0	0
2024-09-13 08:21:47			0	38468	0	0	0	26277	24900	154932	27370	1069372	46916	109732	0	0	8177	532456	0	0
2024-09-13 08:22:47			0	38460	0	0	0	26275	24890	154960	26908	1069381	46926	109731	0	0	8177	532792	0	0
2024-09-13 08:23:47			0	38459	0	0	0	26262	24880	154864	27213	1069318	46903	109726	0	0	8177	532860	0	0
2024-09-13 08:24:47			0	38447	0	0	0	26249	24880	154976	27045	1069345	46914	109721	0	0	8177	533319	0	0
2024-09-13 08:25:47			0	38447	0	0	0	26220	24880	154932	27256	1069309	46902	109710	0	0	8177	533319	0	0
2024-09-13 08:26:47			0	38447	0	0	0	26238	24870	155048	27013	1069291	46902	109717	0	0	8177	533349	0	0
2024-09-13 08:27:47			0	38455	0	0	0	26231	24880	154936	27182	1069282	46913	109714	0	0	8177	533013	0	0
2024-09-13 08:28:47			0	38442	0	0	0	26236	24860	155124	27279	1069246	46911	109716	0	0	8176	533570	0	0
2024-09-13 08:29:47			0	38435	0	0	0	26236	24860	155012	27124	1069246	46911	109716	0	0	8176	533838	0	0
2024-09-13 08:30:47			0	38446	0	0	0	26218	24860	155004	27220	1069201	46901	109709	0	0	8177	533417	0	0
2024-09-13 08:31:47			0	38446	0	0	0	26218	24860	154996	27398	1069192	46911	109709	0	0	8177	533417	0	0
2024-09-13 08:32:47			0	38459	0	0	0	26197	24860	154984	27313	1069166	46911	109701	0	0	8178	532920	0	0
2024-09-13 08:33:47			0	38458	0	0	0	26220	24850	154988	27305	1069157	46922	109710	0	0	8178	532989	0	0
2024-09-13 08:34:47			0	38469	0	0	0	26228	24850	154980	27267	1069121	46900	109713	0	0	8178	532569	0	0
2024-09-13 08:35:47			0	38464	0	0	0	26205	24840	154956	27234	1069103	46920	109704	0	0	8178	532790	0	0
2024-09-13 08:36:47			0	38460	0	0	0	26150	24830	154988	27294	1069031	46920	109683	0	0	8179	532973	0	0
2024-09-13 08:37:47			0	38432	0	0	0	26135	24830	154996	27590	1068978	46909	109677	0	0	8177	534044	0	0
2024-09-13 08:38:47			0	38412	0	0	0	26103	24810	155080	27270	1068924	46885	109665	0	0	8177	534870	0	0
2024-09-13 08:39:47			0	38424	0	0	0	26132	24810	155128	26958	1068861	46895	109676	0	0	8177	534410	0	0
2024-09-13 08:40:47			0	38430	0	0	0	26174	24810	155152	27241	1068915	46895	109692	0	0	8177	534181	0	0
2024-09-13 08:41:47			0	38440	0	0	0	26184	24810	155084	27020	1068897	46896	109696	0	0	8177	533798	0	0
2024-09-13 08:42:47			0	38453	0	0	0	26176	24790	155120	27197	1068834	46926	109693	0	0	8178	533361	0	0
2024-09-13 08:43:47			0	38420	0	0	0	26137	24800	155136	26915	1068950	46905	109678	0	0	8177	534594	0	0
2024-09-13 08:44:47			0	38425	0	0	0	26088	24790	155184	27232	1068887	46904	109659	0	0	8178	534433	0	0
2024-09-13 08:45:47			0	38387	0	0	0	26062	24780	155280	27178	1068762	46893	109649	0	0	8176	535919	0	0
2024-09-13 08:46:47			0	38363	0	0	0	26077	24770	155372	27147	1068637	46880	109655	0	0	8174	536870	0	0
2024-09-13 08:47:47			0	38367	0	0	0	26124	24770	155492	27204	1068655	46902	109673	0	0	8174	536716	0	0
2024-09-13 08:48:47			0	38372	0	0	0	26140	24760	155452	27071	1068646	46902	109679	0	0	8174	536555	0	0
2024-09-13 08:49:47			0	38394	0	0	0	26140	24760	155352	27213	1068663	46901	109679	0	0	8175	535711	0	0
2024-09-13 08:50:47			0	38414	0	0	0	26145	24750	155312	27424	1068699	46912	109681	0	0	8176	534975	0	0
2024-09-13 08:51:47			0	38409	0	0	0	26132	24750	155300	27142	1068654	46900	109676	0	0	8176	535166	0	0
2024-09-13 08:52:47			0	38435	0	0	0	26127	24750	155300	27178	1068708	46912	109674	0	0	8177	534171	0	0
2024-09-13 08:53:47			0	38413	0	0	0	26124	24750	155340	27033	1068672	46922	109673	0	0	8176	535013	0	0
2024-09-13 08:54:47			0	38413	0	0	0	26096	24750	155312	27156	1068619	46900	109662	0	0	8177	535013	0	0
2024-09-13 08:55:47			0	38427	0	0	0	26054	24750	155384	27391	1068565	46889	109646	0	0	8178	534477	0	0
2024-09-13 08:56:47			0	38417	0	0	0	26090	24730	155348	27052	1068645	46898	109660	0	0	8177	534920	0	0
2024-09-13 08:57:47			0	38423	0	0	0	26119	24740	155380	27357	1068574	46888	109671	0	0	8177	534660	0	0
2024-09-13 08:58:47			0	38434	0	0	0	26109	24740	155312	26857	1068601	46899	109667	0	0	8178	534239	0	0
2024-09-13 08:59:47			0	38446	0	0	0	26090	24740	155220	26913	1068574	46921	109660	0	0	8179	533780	0	0
2024-09-13 09:00:47			0	38436	0	0	0	26059	24720	155292	27055	1068520	46897	109648	0	0	8179	534223	0	0
2024-09-13 09:01:47			0	38426	0	0	0	26064	24720	155304	27351	1068520	46886	109650	0	0	8178	534606	0	0
2024-09-13 09:02:47			0	38420	0	0	0	26067	24700	155280	27196	1068457	46884	109651	0	0	8177	534896	0	0
2024-09-13 09:03:47			0	38438	0	0	0	26049	24710	155392	26890	1068493	46884	109644	0	0	8179	534177	0	0
2024-09-13 09:04:47			0	38427	0	0	0	26098	24710	155364	27332	1068422	46885	109663	0	0	8177	534598	0	0
2024-09-13 09:05:47			0	38421	0	0	0	26020	24710	155360	27429	1068413	46906	109633	0	0	8178	534828	0	0
2024-09-13 09:06:47			0	38399	0	0	0	26054	24700	155444	27133	1068287	46895	109646	0	0	8176	535701	0	0
2024-09-13 09:07:47			0	38405	0	0	0	26072	24680	155532	26861	1068314	46882	109653	0	0	8176	535532	0	0
2024-09-13 09:08:47			0	38405	0	0	0	26088	24680	155420	27412	1068331	46892	109659	0	0	8176	535532	0	0
2024-09-13 09:09:47			0	38441	0	0	0	26085	24680	155428	27365	1068358	46892	109658	0	0	8178	534153	0	0
2024-09-13 09:10:47			0	38444	0	0	0	26075	24690	155276	27391	1068377	46893	109654	0	0	8179	534008	0	0
2024-09-13 09:11:47			0	38421	0	0	0	26085	24680	155292	26937	1068331	46892	109658	0	0	8177	534919	0	0
2024-09-13 09:12:47			0	38453	0	0	0	26080	24690	155268	26934	1068386	46916	109656	0	0	8179	533663	0	0
2024-09-13 09:13:47			0	38437	0	0	0	26064	24680	155292	27126	1068358	46892	109650	0	0	8178	534306	0	0
2024-09-13 09:14:47			0	38442	0	0	0	26020	24680	155316	27097	1068341	46893	109633	0	0	8179	534114	0	0
2024-09-13 09:15:47			0	38442	0	0	0	26054	24670	155192	27241	1068296	46892	109646	0	0	8179	534145	0	0
2024-09-13 09:16:47			0	38446	0	0	0	26049	24670	155200	26982	1068296	46892	109644	0	0	8179	533992	0	0
2024-09-13 09:17:47			0	38456	0	0	0	26031	24670	155212	27300	1068269	46870	109637	0	0	8180	533609	0	0
2024-09-13 09:18:47			0	38466	0	0	0	25976	24660	155144	27281	1068224	46891	109616	0	0	8181	533257	0	0
2024-09-13 09:19:47			0	38430	0	0	0	25986	24650	155328	27194	1068072	46868	109620	0	0	8179	534665	0	0
2024-09-13 09:20:47			0	38388	0	0	0	25994	24650	155556	27163	1068090	46878	109623	0	0	8177	536275	0	0
2024-09-13 09:21:47			0	38398	0	0	0	26015	24650	155504	27326	1068126	46868	109631	0	0	8177	535891	0	0
2024-09-13 09:22:47			0	38405	0	0	0	26002	24640	155476	27201	1068081	46878	109626	0	0	8177	535653	0	0
2024-09-13 09:23:47			0	38366	0	0	0	26020	24640	155644	27039	1068072	46888	109633	0	0	8175	537150	0	0
2024-09-13 09:24:47			0	38387	0	0	0	26020	24640	155564	27412	1068045	46888	109633	0	0	8176	536344	0	0
2024-09-13 09:25:47			0	38391	0	0	0	26007	24640	155552	27235	1068018	46888	109628	0	0	8176	536190	0	0
2024-09-13 09:26:47			0	38356	0	0	0	26005	24630	155688	27358	1068000	46898	109627	0	0	8174	537565	0	0
2024-09-13 09:27:47			0	38343	0	0	0	25963	24630	155676	27379	1068063	46876	109611	0	0	8174	538064	0	0
2024-09-13 09:28:47			0	38380	0	0	0	25968	24620	155620	27251	1067955	46886	109613	0	0	8176	536673	0	0
2024-09-13 09:29:47			0	38398	0	0	0	25958	24610	155568	27348	1067920	46863	109609	0	0	8178	536013	0	0
2024-09-13 09:30:47			0	38413	0	0	0	25945	24620	155484	27310	1067929	46875	109604	0	0	8179	535407	0	0
2024-09-13 09:31:47			0	38392	0	0	0	25919	24600	155564	27085	1067857	46885	109594	0	0	8178	536273	0	0
2024-09-13 09:32:47			0	38391	0	0	0	25927	24590	155660	27327	1067785	46862	109597	0	0	8178	536342	0	0
2024-09-13 09:33:47			0	38404	0	0	0	25932	24580	155552	27189	1067767	46873	109599	0	0	8178	535873	0	0
2024-09-13 09:34:47			0	38406	0	0	0	25994	24580	155640	27253	1067794	46873	109623	0	0	8177	535797	0	0
2024-09-13 09:35:47			0	38365	0	0	0	26028	24570	155736	27296	1067803	46882	109636	0	0	8174	537401	0	0
2024-09-13 09:36:47			0	38356	0	0	0	26005	24560	155860	27168	1067758	46891	109627	0	0	8174	537778	0	0
2024-09-13 09:37:47			0	38352	0	0	0	26036	24570	155844	27242	1067803	46893	109639	0	0	8173	537901	0	0
2024-09-13 09:38:47			0	38311	0	0	0	26012	24570	155948	27166	1067883	46893	109630	0	0	8171	539479	0	0
2024-09-13 09:39:47			0	38353	0	0	0	25953	24580	155852	27313	1067892	46882	109607	0	0	8175	537832	0	0
2024-09-13 09:40:47			0	38365	0	0	0	25945	24590	155844	27060	1067884	46883	109604	0	0	8176	537340	0	0
2024-09-13 09:41:47			0	38349	0	0	0	25963	24570	155752	27249	1067803	46893	109611	0	0	8174	538016	0	0
2024-09-13 09:42:47			0	38356	0	0	0	25945	24560	155788	27062	1067749	46880	109604	0	0	8175	537778	0	0
2024-09-13 09:43:47			0	38338	0	0	0	26062	24580	155892	27275	1067812	46872	109649	0	0	8172	538409	0	0
2024-09-13 09:44:47			0	38297	0	0	0	26098	24560	156076	27346	1067839	46903	109663	0	0	8169	540049	0	0
2024-09-13 09:45:47			0	38282	0	0	0	26044	24570	156080	27112	1067937	46905	109642	0	0	8169	540597	0	0
2024-09-13 09:46:47			0	38273	0	0	0	26051	24580	156068	27072	1067892	46893	109645	0	0	8169	540913	0	0
2024-09-13 09:47:47			0	38286	0	0	0	26033	24580	156016	27319	1067955	46906	109638	0	0	8170	540412	0	0
2024-09-13 09:48:47			0	38295	0	0	0	26005	24590	156024	27235	1067910	46906	109627	0	0	8171	540034	0	0
2024-09-13 09:49:47			0	38294	0	0	0	26077	24590	155968	27130	1067884	46883	109655	0	0	8169	540073	0	0
2024-09-13 09:50:47			0	38273	0	0	0	26054	24590	156088	27287	1068000	46895	109646	0	0	8169	540883	0	0
2024-09-13 09:51:47			0	38251	0	0	0	26005	24600	155988	26942	1067955	46895	109627	0	0	8168	541701	0	0
2024-09-13 09:52:47			0	38301	0	0	0	25911	24590	155816	27203	1067839	46884	109591	0	0	8173	539803	0	0
2024-09-13 09:53:47			0	38326	0	0	0	25992	24590	155768	27081	1067803	46883	109622	0	0	8173	538840	0	0
2024-09-13 09:54:47			0	38326	0	0	0	25890	24570	155684	27111	1067803	46882	109583	0	0	8174	538901	0	0
2024-09-13 09:55:47			0	38325	0	0	0	25903	24570	155808	27324	1067669	46860	109588	0	0	8174	538940	0	0
2024-09-13 09:56:47			0	38323	0	0	0	25857	24560	155752	27102	1067705	46870	109570	0	0	8175	539047	0	0
2024-09-13 09:57:47			0	38337	0	0	0	25880	24550	155828	27208	1067597	46857	109579	0	0	8175	538539	0	0
2024-09-13 09:58:47			0	38345	0	0	0	25929	24550	155824	27159	1067579	46870	109598	0	0	8175	538231	0	0
2024-09-13 09:59:47			0	38352	0	0	0	25979	24530	155764	27173	1067650	46868	109617	0	0	8174	538023	0	0
2024-09-13 10:00:47			0	38375	0	0	0	25976	24540	155632	27097	1067633	46878	109616	0	0	8176	537108	0	0
2024-09-13 10:01:47			0	38388	0	0	0	25968	24550	155648	27072	1067740	46891	109613	0	0	8177	536578	0	0
2024-09-13 10:02:47			0	38405	0	0	0	25963	24550	155480	27403	1067731	46890	109611	0	0	8178	535926	0	0
2024-09-13 10:03:47			0	38416	0	0	0	25955	24550	155520	27081	1067758	46890	109608	0	0	8178	535504	0	0
2024-09-13 10:04:47			0	38454	0	0	0	25948	24550	155348	27282	1067731	46890	109605	0	0	8181	534048	0	0
2024-09-13 10:05:47			0	38448	0	0	0	25922	24550	155264	27036	1067713	46880	109595	0	0	8181	534278	0	0
2024-09-13 10:06:47			0	38469	0	0	0	25919	24550	155332	27003	1067677	46879	109594	0	0	8182	533474	0	0
2024-09-13 10:07:47			0	38464	0	0	0	25916	24540	155284	27081	1067588	46868	109593	0	0	8182	533695	0	0
2024-09-13 10:08:47			0	38472	0	0	0	25927	24550	155216	27260	1067650	46879	109597	0	0	8182	533359	0	0
2024-09-13 10:09:47			0	38479	0	0	0	25945	24540	155228	27159	1067579	46889	109604	0	0	8182	533121	0	0
2024-09-13 10:10:47			0	38483	0	0	0	25927	24540	155200	26930	1067641	46912	109597	0	0	8183	532968	0	0
2024-09-13 10:11:47			0	38480	0	0	0	25906	24530	155160	27118	1067641	46888	109589	0	0	8183	533113	0	0
2024-09-13 10:12:47			0	38500	0	0	0	25901	24540	155140	27026	1067588	46889	109587	0	0	8184	532319	0	0
2024-09-13 10:13:47			0	38482	0	0	0	25903	24530	155228	26993	1067588	46877	109588	0	0	8183	533037	0	0
2024-09-13 10:14:47			0	38489	0	0	0	25883	24540	155244	27033	1067668	46878	109580	0	0	8184	532739	0	0
2024-09-13 10:15:47			0	38492	0	0	0	25859	24530	155172	27287	1067597	46878	109571	0	0	8184	532654	0	0
2024-09-13 10:16:47			0	38487	0	0	0	25867	24520	155260	26993	1067525	46843	109574	0	0	8184	532876	0	0
2024-09-13 10:17:47			0	38492	0	0	0	25851	24520	155212	27152	1067472	46887	109568	0	0	8184	532685	0	0
2024-09-13 10:18:47			0	38482	0	0	0	25828	24510	155216	26776	1067454	46865	109559	0	0	8184	533097	0	0
2024-09-13 10:19:47			0	38489	0	0	0	25846	24510	155144	27331	1067337	46875	109566	0	0	8184	532829	0	0
2024-09-13 10:20:47			0	38498	0	0	0	25844	24500	155216	27203	1067400	46862	109565	0	0	8185	532515	0	0
2024-09-13 10:21:47			0	38496	0	0	0	25851	24490	155120	27019	1067310	46862	109568	0	0	8184	532622	0	0
2024-09-13 10:22:47			0	38496	0	0	0	25831	24500	155124	27222	1067373	46874	109560	0	0	8185	532592	0	0
2024-09-13 10:23:47			0	38496	0	0	0	25831	24480	155236	26986	1067310	46872	109560	0	0	8185	532652	0	0
2024-09-13 10:24:47			0	38500	0	0	0	25864	24480	155180	27229	1067239	46873	109573	0	0	8184	532499	0	0
2024-09-13 10:25:47			0	38511	0	0	0	25875	24490	155236	27293	1067328	46862	109577	0	0	8185	532049	0	0
2024-09-13 10:26:47			0	38484	0	0	0	25862	24470	155288	26986	1067274	46882	109572	0	0	8183	533141	0	0
2024-09-13 10:27:47			0	38494	0	0	0	25927	24470	155296	27300	1067328	46872	109597	0	0	8183	532759	0	0
2024-09-13 10:28:47			0	38473	0	0	0	25984	24470	155360	27230	1067328	46872	109619	0	0	8181	533562	0	0
2024-09-13 10:29:47			0	38444	0	0	0	26096	24480	155516	26967	1067444	46893	109662	0	0	8177	534642	0	0
2024-09-13 10:30:47			0	38424	0	0	0	26254	24490	155672	27438	1067623	46917	109723	0	0	8173	535379	0	0
2024-09-13 10:31:47			0	38451	0	0	0	26314	24510	155600	27156	1067936	46963	109746	0	0	8174	534283	0	0
2024-09-13 10:32:47			0	38495	0	0	0	26283	24560	155412	27391	1068240	46991	109734	0	0	8177	532450	0	0
2024-09-13 10:33:47			0	38504	0	0	0	26262	24590	155336	27409	1068366	46971	109726	0	0	8178	532015	0	0
2024-09-13 10:34:47			0	38520	0	0	0	26246	24620	155240	27352	1068420	46976	109720	0	0	8180	531314	0	0
2024-09-13 10:35:47			0	38488	0	0	0	26215	24640	155124	26956	1068500	46965	109708	0	0	8179	532476	0	0
2024-09-13 10:36:47			0	38492	0	0	0	26155	24660	155208	27301	1068519	46947	109685	0	0	8180	532263	0	0
2024-09-13 10:37:47			0	38477	0	0	0	26233	24660	155216	27126	1068438	46924	109715	0	0	8178	532836	0	0
2024-09-13 10:38:47			0	38468	0	0	0	26199	24670	155172	27123	1068501	46924	109702	0	0	8178	533150	0	0
2024-09-13 10:39:47			0	38455	0	0	0	26218	24680	155176	27386	1068573	46948	109709	0	0	8177	533617	0	0
2024-09-13 10:40:47			0	38467	0	0	0	26220	24690	155168	27085	1068653	46927	109710	0	0	8177	533128	0	0
2024-09-13 10:41:47			0	38463	0	0	0	26220	24690	155220	27500	1068627	46916	109710	0	0	8177	533281	0	0
2024-09-13 10:42:47			0	38432	0	0	0	26246	24720	155368	27386	1068752	46919	109720	0	0	8175	534376	0	0
2024-09-13 10:43:47			0	38423	0	0	0	26228	24730	155292	27249	1068797	46942	109713	0	0	8175	534691	0	0
2024-09-13 10:44:47			0	38411	0	0	0	26244	24730	155316	27189	1068860	46920	109719	0	0	8174	535150	0	0
2024-09-13 10:45:47			0	38416	0	0	0	26259	24750	155372	27299	1068869	46933	109725	0	0	8174	534898	0	0
2024-09-13 10:46:47			0	38408	0	0	0	26210	24750	155364	27315	1068976	46945	109706	0	0	8174	535205	0	0
2024-09-13 10:47:47			0	38401	0	0	0	26174	24770	155316	27211	1068949	46924	109692	0	0	8175	535412	0	0
2024-09-13 10:48:47			0	38358	0	0	0	26176	24770	155508	27071	1068878	46924	109693	0	0	8172	537062	0	0
2024-09-13 10:49:47			0	38343	0	0	0	26176	24770	155552	27377	1068896	46924	109693	0	0	8171	537638	0	0
2024-09-13 10:50:47			0	38322	0	0	0	26179	24770	155604	27095	1068896	46914	109694	0	0	8170	538446	0	0
2024-09-13 10:51:47			0	38321	0	0	0	26158	24770	155732	27229	1068878	46902	109686	0	0	8170	538484	0	0
2024-09-13 10:52:47			0	38290	0	0	0	26153	24780	155716	27157	1068941	46915	109684	0	0	8169	539646	0	0
2024-09-13 10:53:47			0	38280	0	0	0	26153	24770	155616	27360	1068825	46914	109684	0	0	8168	540062	0	0
2024-09-13 10:54:47			0	38304	0	0	0	26176	24770	155724	27220	1068878	46880	109693	0	0	8169	539138	0	0
2024-09-13 10:55:47			0	38295	0	0	0	26176	24770	155708	27161	1068825	46914	109693	0	0	8169	539485	0	0
2024-09-13 10:56:47			0	38306	0	0	0	26119	24770	155676	27149	1068708	46902	109671	0	0	8170	539061	0	0
2024-09-13 10:57:47			0	38341	0	0	0	26145	24760	155624	26840	1068699	46891	109681	0	0	8172	537745	0	0
2024-09-13 10:58:47			0	38348	0	0	0	26174	24750	155496	27176	1068672	46889	109692	0	0	8172	537507	0	0
2024-09-13 10:59:47			0	38355	0	0	0	26215	24750	155488	27201	1068708	46878	109708	0	0	8171	537238	0	0
2024-09-13 11:00:47			0	38374	0	0	0	26205	24750	155452	27050	1068779	46900	109704	0	0	8173	536509	0	0
2024-09-13 11:01:47			0	38383	0	0	0	26046	24760	155308	27256	1068726	46902	109643	0	0	8176	536133	0	0
2024-09-13 11:02:47			0	38405	0	0	0	25986	24750	155352	27060	1068574	46889	109620	0	0	8178	535320	0	0
2024-09-13 11:03:47			0	38411	0	0	0	26002	24740	155268	27222	1068467	46866	109626	0	0	8178	535120	0	0
2024-09-13 11:04:47			0	38389	0	0	0	26046	24720	155404	27112	1068350	46864	109643	0	0	8176	536024	0	0
2024-09-13 11:05:47			0	38386	0	0	0	25937	24690	155340	26993	1068171	46850	109601	0	0	8178	536230	0	0
2024-09-13 11:06:47			0	38422	0	0	0	25862	24670	155200	26963	1068081	46848	109572	0	0	8181	534911	0	0
2024-09-13 11:07:47			0	38439	0	0	0	25838	24660	155144	26991	1067974	46835	109563	0	0	8182	534290	0	0
2024-09-13 11:08:47			0	38444	0	0	0	25831	24630	155072	27133	1067822	46821	109560	0	0	8182	534189	0	0
2024-09-13 11:09:47			0	38449	0	0	0	25846	24600	155104	27289	1067670	46830	109566	0	0	8182	534088	0	0
2024-09-13 11:10:47			0	38454	0	0	0	25841	24590	155056	27069	1067589	46850	109564	0	0	8183	533927	0	0
2024-09-13 11:11:47			0	38446	0	0	0	25807	24580	155116	27336	1067571	46838	109551	0	0	8183	534264	0	0
2024-09-13 11:12:47			0	38462	0	0	0	25781	24550	155172	27034	1067499	46836	109541	0	0	8184	533742	0	0
2024-09-13 11:13:47			0	38459	0	0	0	25776	24540	155276	27216	1067418	46845	109539	0	0	8184	533887	0	0
2024-09-13 11:14:47			0	38448	0	0	0	25841	24510	155340	27074	1067293	46832	109564	0	0	8182	534398	0	0
2024-09-13 11:15:47			0	38444	0	0	0	25906	24510	155424	26594	1067418	46865	109589	0	0	8181	534552	0	0
2024-09-13 11:16:47			0	38434	0	0	0	25994	24500	155520	27083	1067462	46875	109623	0	0	8178	534965	0	0
2024-09-13 11:17:47			0	38413	0	0	0	25945	24510	155544	27093	1067561	46897	109604	0	0	8178	535740	0	0
2024-09-13 11:18:47			0	38409	0	0	0	25911	24510	155576	27105	1067605	46897	109591	0	0	8179	535894	0	0
2024-09-13 11:19:47			0	38390	0	0	0	25927	24510	155528	27019	1067552	46875	109597	0	0	8177	536623	0	0
2024-09-13 11:20:47			0	38396	0	0	0	25877	24510	155584	26987	1067480	46875	109578	0	0	8178	536393	0	0
2024-09-13 11:21:47			0	38407	0	0	0	25864	24510	155428	27109	1067445	46875	109573	0	0	8179	535970	0	0
2024-09-13 11:22:47			0	38389	0	0	0	25893	24500	155524	26994	1067436	46875	109584	0	0	8178	536692	0	0
2024-09-13 11:23:47			0	38401	0	0	0	25867	24500	155596	27293	1067453	46874	109574	0	0	8179	536231	0	0
2024-09-13 11:24:47			0	38404	0	0	0	25896	24500	155520	27098	1067346	46874	109585	0	0	8178	536116	0	0
2024-09-13 11:25:47			0	38381	0	0	0	25979	24490	155588	27339	1067391	46884	109617	0	0	8176	537029	0	0
2024-09-13 11:26:47			0	38394	0	0	0	25906	24500	155680	27157	1067400	46884	109589	0	0	8178	536500	0	0
2024-09-13 11:27:47			0	38393	0	0	0	25903	24500	155572	26956	1067427	46884	109588	0	0	8178	536538	0	0
2024-09-13 11:28:47			0	38391	0	0	0	25833	24490	155520	27137	1067382	46874	109561	0	0	8179	536645	0	0
2024-09-13 11:29:47			0	38407	0	0	0	25802	24480	155584	26987	1067310	46872	109549	0	0	8180	536061	0	0
2024-09-13 11:30:47			0	38398	0	0	0	25885	24480	155520	27100	1067292	46883	109581	0	0	8178	536407	0	0
2024-09-13 11:31:47			0	38397	0	0	0	25942	24470	155548	26776	1067274	46872	109603	0	0	8177	536476	0	0
2024-09-13 11:32:47			0	38396	0	0	0	25935	24470	155592	26817	1067319	46872	109600	0	0	8177	536514	0	0
2024-09-13 11:33:47			0	38387	0	0	0	25906	24480	155612	27137	1067391	46882	109589	0	0	8177	536829	0	0
2024-09-13 11:34:47			0	38394	0	0	0	25885	24470	155564	27173	1067408	46882	109581	0	0	8178	536591	0	0
2024-09-13 11:35:47			0	38418	0	0	0	25838	24480	155500	27211	1067310	46882	109563	0	0	8180	535639	0	0
2024-09-13 11:36:47			0	38411	0	0	0	25885	24470	155624	27332	1067301	46872	109581	0	0	8179	535938	0	0
2024-09-13 11:37:47			0	38401	0	0	0	25919	24470	155532	27338	1067292	46872	109594	0	0	8178	536322	0	0
2024-09-13 11:38:47			0	38400	0	0	0	26010	24470	155604	26892	1067346	46893	109629	0	0	8176	536360	0	0
2024-09-13 11:39:47			0	38399	0	0	0	26070	24460	155604	27249	1067444	46904	109652	0	0	8175	536429	0	0
2024-09-13 11:40:47			0	38411	0	0	0	26038	24480	155620	27176	1067551	46905	109640	0	0	8176	535908	0	0
2024-09-13 11:41:47			0	38399	0	0	0	26010	24490	155556	26814	1067569	46907	109629	0	0	8176	536338	0	0
2024-09-13 11:42:47			0	38404	0	0	0	25903	24500	155520	26864	1067596	46918	109588	0	0	8178	536116	0	0
2024-09-13 11:43:47			0	38408	0	0	0	25823	24500	155572	26927	1067507	46895	109557	0	0	8180	535962	0	0
2024-09-13 11:44:47			0	38411	0	0	0	25838	24490	155496	27220	1067391	46874	109563	0	0	8180	535878	0	0
2024-09-13 11:45:47			0	38406	0	0	0	25961	24480	155472	27268	1067292	46861	109610	0	0	8177	536100	0	0
2024-09-13 11:46:47			0	38394	0	0	0	26018	24480	155484	27180	1067337	46849	109632	0	0	8176	536560	0	0
2024-09-13 11:47:47			0	38390	0	0	0	26049	24470	155596	26941	1067426	46882	109644	0	0	8175	536744	0	0
2024-09-13 11:48:47			0	38386	0	0	0	26072	24490	155656	27357	1067542	46895	109653	0	0	8174	536837	0	0
2024-09-13 11:49:47			0	38396	0	0	0	25989	24500	155628	27012	1067587	46907	109621	0	0	8176	536423	0	0
2024-09-13 11:50:47			0	38389	0	0	0	25961	24500	155620	27171	1067596	46908	109610	0	0	8176	536692	0	0
2024-09-13 11:51:47			0	38401	0	0	0	25903	24510	155620	27322	1067578	46909	109588	0	0	8178	536201	0	0
2024-09-13 11:52:47			0	38394	0	0	0	25986	24500	155604	26948	1067569	46908	109620	0	0	8176	536500	0	0
2024-09-13 11:53:47			0	38395	0	0	0	25870	24500	155476	26819	1067507	46884	109575	0	0	8178	536461	0	0
2024-09-13 11:54:47			0	38397	0	0	0	25893	24520	155456	26802	1067516	46876	109584	0	0	8178	536324	0	0
2024-09-13 11:55:47			0	38378	0	0	0	25877	24500	155572	26772	1067480	46862	109578	0	0	8177	537114	0	0
2024-09-13 11:56:47			0	38378	0	0	0	25823	24490	155592	26750	1067489	46862	109557	0	0	8178	537145	0	0
2024-09-13 11:57:47			0	38389	0	0	0	25854	24500	155484	26739	1067266	46874	109569	0	0	8178	536692	0	0
2024-09-13 11:58:47			0	38398	0	0	0	25799	24480	155488	27157	1067319	46850	109548	0	0	8180	536407	0	0
2024-09-13 11:59:47			0	38402	0	0	0	25789	24470	155432	27098	1067301	46872	109544	0	0	8180	536283	0	0
2024-09-13 12:00:47			0	38422	0	0	0	25810	24460	155412	27249	1067176	46871	109552	0	0	8181	535546	0	0
2024-09-13 12:01:47			0	38412	0	0	0	25828	24460	155420	27310	1067194	46858	109559	0	0	8180	535930	0	0
2024-09-13 12:02:47			0	38404	0	0	0	25768	24450	155444	27204	1067158	46870	109536	0	0	8180	536267	0	0
2024-09-13 12:03:47			0	38433	0	0	0	25768	24440	155424	27022	1067086	46869	109536	0	0	8182	535185	0	0
2024-09-13 12:04:47			0	38405	0	0	0	25776	24440	155420	27057	1067104	46856	109539	0	0	8180	536259	0	0
2024-09-13 12:05:47			0	38445	0	0	0	25776	24430	155408	27343	1067015	46855	109539	0	0	8183	534755	0	0
2024-09-13 12:06:47			0	38439	0	0	0	25810	24420	155436	27265	1066970	46855	109552	0	0	8182	535015	0	0
2024-09-13 12:07:47			0	38437	0	0	0	25870	24430	155480	26847	1067113	46877	109575	0	0	8180	535062	0	0
2024-09-13 12:08:47			0	38449	0	0	0	25854	24430	155420	27199	1067122	46877	109569	0	0	8181	534602	0	0
2024-09-13 12:09:47			0	38441	0	0	0	25841	24430	155400	27362	1067202	46877	109564	0	0	8181	534908	0	0
2024-09-13 12:10:47			0	38432	0	0	0	25828	24440	155396	27334	1067185	46878	109559	0	0	8181	535223	0	0
2024-09-13 12:11:47			0	38438	0	0	0	25844	24440	155360	27168	1067185	46878	109565	0	0	8181	534993	0	0
2024-09-13 12:12:47			0	38450	0	0	0	25825	24440	155408	27390	1067220	46869	109558	0	0	8182	534533	0	0
2024-09-13 12:13:47			0	38435	0	0	0	25854	24440	155396	27393	1067185	46856	109569	0	0	8181	535108	0	0
2024-09-13 12:14:47			0	38427	0	0	0	25885	24440	155408	27249	1067211	46889	109581	0	0	8180	535415	0	0
2024-09-13 12:15:47			0	38467	0	0	0	25859	24440	155348	27206	1067292	46889	109571	0	0	8182	533882	0	0
2024-09-13 12:16:47			0	38451	0	0	0	25864	24440	155384	27362	1067220	46890	109573	0	0	8181	534495	0	0
2024-09-13 12:17:47			0	38464	0	0	0	25888	24450	155324	26998	1067256	46880	109582	0	0	8182	533967	0	0
2024-09-13 12:18:47			0	38466	0	0	0	25896	24450	155384	27296	1067283	46891	109585	0	0	8182	533890	0	0
2024-09-13 12:19:47			0	38462	0	0	0	25898	24450	155364	27289	1067319	46914	109586	0	0	8182	534043	0	0
2024-09-13 12:20:47			0	38482	0	0	0	25864	24460	155240	27280	1067337	46904	109573	0	0	8183	533248	0	0
2024-09-13 12:21:47			0	38494	0	0	0	25849	24470	155256	27339	1067373	46905	109567	0	0	8184	532759	0	0
2024-09-13 12:22:47			0	38486	0	0	0	25880	24460	155264	27448	1067337	46892	109579	0	0	8183	533095	0	0
2024-09-13 12:23:47			0	38499	0	0	0	25909	24460	155224	27459	1067310	46881	109590	0	0	8184	532598	0	0
2024-09-13 12:24:47			0	38488	0	0	0	25919	24470	155156	27256	1067355	46882	109594	0	0	8183	532988	0	0
2024-09-13 12:25:47			0	38503	0	0	0	25919	24480	155232	27123	1067426	46873	109594	0	0	8184	532385	0	0
2024-09-13 12:26:47			0	38495	0	0	0	25932	24470	155200	27275	1067426	46905	109599	0	0	8183	532721	0	0
2024-09-13 12:27:47			0	38519	0	0	0	25937	24490	155212	27123	1067542	46884	109601	0	0	8184	531743	0	0
2024-09-13 12:28:47			0	38511	0	0	0	25945	24480	155168	27448	1067480	46883	109604	0	0	8184	532079	0	0
2024-09-13 12:29:47			0	38514	0	0	0	25953	24500	155200	27492	1067534	46907	109607	0	0	8184	531904	0	0
2024-09-13 12:30:47			0	38533	0	0	0	25945	24500	155160	27556	1067650	46896	109604	0	0	8185	531179	0	0
2024-09-13 12:31:47			0	38521	0	0	0	25945	24510	155080	27474	1067632	46909	109604	0	0	8184	531607	0	0
2024-09-13 12:32:47			0	38530	0	0	0	25945	24510	155064	27272	1067641	46897	109604	0	0	8185	531263	0	0
2024-09-13 12:33:47			0	38526	0	0	0	25948	24510	155028	27230	1067605	46886	109605	0	0	8185	531416	0	0
2024-09-13 12:34:47			0	38533	0	0	0	25953	24510	154996	27166	1067659	46886	109607	0	0	8185	531149	0	0
2024-09-13 12:35:47			0	38531	0	0	0	25909	24520	154964	27272	1067659	46899	109590	0	0	8186	531195	0	0
2024-09-13 12:36:47			0	38535	0	0	0	25924	24520	154880	27190	1067623	46876	109596	0	0	8186	531042	0	0
2024-09-13 12:37:47			0	38555	0	0	0	25935	24520	154884	27357	1067650	46876	109600	0	0	8187	530280	0	0
2024-09-13 12:38:47			0	38553	0	0	0	25929	24520	154972	27057	1067623	46876	109598	0	0	8187	530356	0	0
2024-09-13 12:39:47			0	38549	0	0	0	25929	24520	155048	27398	1067659	46876	109598	0	0	8186	530508	0	0
2024-09-13 12:40:47			0	38562	0	0	0	25922	24530	154896	27345	1067641	46867	109595	0	0	8187	529983	0	0
2024-09-13 12:41:47			0	38554	0	0	0	25935	24520	154968	27310	1067659	46876	109600	0	0	8187	530318	0	0
2024-09-13 12:42:47			0	38545	0	0	0	25919	24520	155016	27280	1067623	46876	109594	0	0	8186	530661	0	0
2024-09-13 12:43:47			0	38561	0	0	0	25924	24510	154936	27220	1067605	46875	109596	0	0	8187	530081	0	0
2024-09-13 12:44:47			0	38543	0	0	0	25932	24520	155060	27495	1067650	46866	109599	0	0	8186	530737	0	0
2024-09-13 12:45:47			0	38546	0	0	0	25903	24520	154960	27424	1067570	46887	109588	0	0	8187	530623	0	0
2024-09-13 12:46:47			0	38553	0	0	0	25877	24520	154984	27310	1067552	46866	109578	0	0	8187	530356	0	0
2024-09-13 12:47:47			0	38535	0	0	0	25890	24510	155036	27397	1067507	46865	109583	0	0	8186	531072	0	0
2024-09-13 12:48:47			0	38543	0	0	0	25898	24520	155044	27232	1067543	46876	109586	0	0	8187	530737	0	0
2024-09-13 12:49:47			0	38533	0	0	0	25916	24510	155028	27150	1067534	46875	109593	0	0	8186	531149	0	0
2024-09-13 12:50:47			0	38531	0	0	0	25906	24500	154972	27334	1067569	46863	109589	0	0	8186	531255	0	0
2024-09-13 12:51:47			0	38538	0	0	0	25914	24510	155032	27209	1067605	46875	109592	0	0	8186	530958	0	0
2024-09-13 12:52:47			0	38531	0	0	0	25919	24510	155048	27059	1067641	46886	109594	0	0	8185	531225	0	0
2024-09-13 12:53:47			0	38542	0	0	0	25929	24510	155024	27166	1067552	46886	109598	0	0	8186	530805	0	0
2024-09-13 12:54:47			0	38549	0	0	0	25942	24510	154968	27248	1067552	46886	109603	0	0	8186	530538	0	0
2024-09-13 12:55:47			0	38543	0	0	0	25924	24510	154920	27027	1067561	46875	109596	0	0	8186	530767	0	0
2024-09-13 12:56:47			0	38552	0	0	0	25924	24530	154936	27050	1067615	46899	109596	0	0	8187	530364	0	0
2024-09-13 12:57:47			0	38551	0	0	0	25937	24510	154972	27199	1067587	46886	109601	0	0	8186	530462	0	0
2024-09-13 12:58:47			0	38549	0	0	0	25940	24520	154944	27076	1067605	46887	109602	0	0	8186	530508	0	0
2024-09-13 12:59:47			0	38590	0	0	0	25937	24530	154916	27256	1067650	46878	109601	0	0	8189	528916	0	0
2024-09-13 13:00:47			0	38584	0	0	0	25922	24530	154916	27118	1067588	46877	109595	0	0	8189	529145	0	0
2024-09-13 13:01:47			0	38578	0	0	0	25916	24530	154840	26892	1067615	46899	109593	0	0	8188	529373	0	0
2024-09-13 13:02:47			0	38568	0	0	0	25906	24520	154880	27185	1067632	46876	109589	0	0	8188	529784	0	0
2024-09-13 13:03:47			0	38582	0	0	0	25919	24520	154896	27367	1067650	46887	109594	0	0	8188	529251	0	0
2024-09-13 13:04:47			0	38580	0	0	0	25916	24520	154788	27045	1067632	46887	109593	0	0	8188	529327	0	0
2024-09-13 13:05:47			0	38586	0	0	0	25914	24520	154828	27348	1067596	46876	109592	0	0	8189	529099	0	0
2024-09-13 13:06:47			0	38581	0	0	0	25911	24520	154828	27512	1067623	46876	109591	0	0	8188	529289	0	0
2024-09-13 13:07:47			0	38596	0	0	0	25906	24520	154856	27313	1067632	46866	109589	0	0	8189	528718	0	0
2024-09-13 13:08:47			0	38602	0	0	0	25924	24520	154788	27204	1067605	46866	109596	0	0	8189	528490	0	0
2024-09-13 13:09:47			0	38593	0	0	0	25924	24520	154796	27196	1067596	46866	109596	0	0	8189	528832	0	0
2024-09-13 13:10:47			0	38605	0	0	0	25911	24520	154816	27140	1067632	46887	109591	0	0	8190	528375	0	0
2024-09-13 13:11:47			0	38597	0	0	0	25906	24520	154792	27190	1067623	46876	109589	0	0	8189	528680	0	0
2024-09-13 13:12:47			0	38597	0	0	0	25909	24520	154784	27251	1067605	46866	109590	0	0	8189	528680	0	0
2024-09-13 13:13:47			0	38618	0	0	0	25911	24520	154764	27074	1067525	46866	109591	0	0	8191	527881	0	0
2024-09-13 13:14:47			0	38640	0	0	0	25916	24520	154736	27220	1067605	46866	109593	0	0	8192	527045	0	0
2024-09-13 13:15:47			0	38617	0	0	0	25919	24510	154716	27287	1067632	46875	109594	0	0	8190	527949	0	0
2024-09-13 13:16:47			0	38639	0	0	0	25919	24520	154732	27118	1067552	46876	109594	0	0	8192	527083	0	0
2024-09-13 13:17:47			0	38628	0	0	0	25919	24520	154720	27026	1067632	46887	109594	0	0	8191	527501	0	0
2024-09-13 13:18:47			0	38606	0	0	0	25901	24520	154788	27140	1067650	46876	109587	0	0	8190	528338	0	0
2024-09-13 13:19:47			0	38634	0	0	0	25906	24520	154696	27055	1067623	46866	109589	0	0	8192	527273	0	0
2024-09-13 13:20:47			0	38634	0	0	0	25909	24510	154760	27338	1067578	46865	109590	0	0	8192	527303	0	0
2024-09-13 13:21:47			0	38619	0	0	0	25909	24520	154588	27020	1067605	46887	109590	0	0	8191	527843	0	0
2024-09-13 13:22:47			0	38625	0	0	0	25901	24520	154676	27306	1067623	46866	109587	0	0	8191	527615	0	0
2024-09-13 13:23:47			0	38642	0	0	0	25901	24520	154644	27060	1067623	46876	109587	0	0	8192	526969	0	0
2024-09-13 13:24:47			0	38647	0	0	0	25896	24510	154676	27086	1067587	46897	109585	0	0	8192	526809	0	0
2024-09-13 13:25:47			0	38622	0	0	0	25893	24510	154648	27272	1067534	46875	109584	0	0	8191	527759	0	0
2024-09-13 13:26:47			0	38652	0	0	0	25893	24510	154756	27225	1067561	46865	109584	0	0	8193	526619	0	0
2024-09-13 13:27:47			0	38644	0	0	0	25888	24500	154592	26987	1067516	46863	109582	0	0	8192	526953	0	0
2024-09-13 13:28:47			0	38645	0	0	0	25885	24500	154504	27166	1067543	46875	109581	0	0	8193	526915	0	0
2024-09-13 13:29:47			0	38639	0	0	0	25880	24500	154708	27369	1067569	46875	109579	0	0	8192	527143	0	0
2024-09-13 13:30:47			0	38645	0	0	0	25885	24500	154648	27301	1067516	46885	109581	0	0	8193	526915	0	0
2024-09-13 13:31:47			0	38650	0	0	0	25883	24500	154596	27350	1067516	46885	109580	0	0	8193	526725	0	0
2024-09-13 13:32:47			0	38641	0	0	0	25885	24490	154584	27422	1067418	46874	109581	0	0	8192	527097	0	0
2024-09-13 13:33:47			0	38644	0	0	0	25880	24500	154540	27504	1067507	46874	109579	0	0	8193	526953	0	0
2024-09-13 13:34:47			0	38649	0	0	0	25893	24500	154684	27390	1067507	46874	109584	0	0	8193	526763	0	0
2024-09-13 13:35:47			0	38663	0	0	0	25896	24490	154640	26913	1067551	46874	109585	0	0	8193	526261	0	0
2024-09-13 13:36:47			0	38650	0	0	0	25877	24490	154600	27576	1067435	46874	109578	0	0	8193	526755	0	0
2024-09-13 13:37:47			0	38665	0	0	0	25885	24490	154764	27274	1067444	46874	109581	0	0	8194	526185	0	0
2024-09-13 13:38:47			0	38649	0	0	0	25888	24490	154644	27345	1067498	46874	109582	0	0	8193	526793	0	0
2024-09-13 13:39:47			0	38642	0	0	0	25883	24490	154648	27365	1067409	46884	109580	0	0	8192	527059	0	0
2024-09-13 13:40:47			0	38665	0	0	0	25880	24490	154604	27036	1067435	46884	109579	0	0	8194	526185	0	0
2024-09-13 13:41:47			0	38671	0	0	0	25888	24500	154616	27317	1067453	46884	109582	0	0	8194	525928	0	0
2024-09-13 13:42:47			0	38668	0	0	0	25867	24490	154536	27187	1067471	46884	109574	0	0	8194	526072	0	0
2024-09-13 13:43:47			0	38674	0	0	0	25844	24490	154580	27274	1067409	46874	109565	0	0	8195	525844	0	0
2024-09-13 13:44:47			0	38686	0	0	0	25875	24480	154532	27007	1067400	46873	109577	0	0	8195	525419	0	0
2024-09-13 13:45:47			0	38686	0	0	0	25885	24490	154492	27303	1067489	46862	109581	0	0	8195	525389	0	0
2024-09-13 13:46:47			0	38676	0	0	0	25875	24490	154440	26963	1067391	46874	109577	0	0	8194	525768	0	0
2024-09-13 13:47:47			0	38691	0	0	0	25885	24480	154584	27175	1067453	46861	109581	0	0	8195	525229	0	0
2024-09-13 13:48:47			0	38711	0	0	0	25885	24480	154484	27227	1067426	46873	109581	0	0	8196	524471	0	0
2024-09-13 13:49:47			0	38693	0	0	0	25896	24490	154408	27142	1067471	46884	109585	0	0	8195	525124	0	0
2024-09-13 13:50:47			0	38693	0	0	0	25875	24480	154344	27268	1067444	46872	109577	0	0	8195	525153	0	0
2024-09-13 13:51:47			0	38700	0	0	0	25883	24480	154360	27255	1067471	46872	109580	0	0	8196	524888	0	0
2024-09-13 13:52:47			0	38706	0	0	0	25867	24480	154416	27379	1067471	46861	109574	0	0	8196	524661	0	0
2024-09-13 13:53:47			0	38707	0	0	0	25896	24480	154396	27516	1067507	46894	109585	0	0	8196	524623	0	0
2024-09-13 13:54:47			0	38717	0	0	0	25888	24480	154408	27111	1067453	46873	109582	0	0	8197	524244	0	0
2024-09-13 13:55:47			0	38721	0	0	0	25898	24480	154336	27055	1067507	46883	109586	0	0	8197	524093	0	0
2024-09-13 13:56:47			0	38710	0	0	0	25862	24480	154344	27260	1067400	46873	109572	0	0	8197	524509	0	0
2024-09-13 13:57:47			0	38714	0	0	0	25883	24490	154272	27069	1067498	46862	109580	0	0	8196	524328	0	0
2024-09-13 13:58:47			0	38727	0	0	0	25885	24490	154376	27246	1067444	46874	109581	0	0	8197	523836	0	0
2024-09-13 13:59:47			0	38737	0	0	0	25896	24490	154341	27154	1067435	46862	109585	0	0	8198	523458	0	0
2024-09-13 14:00:47			0	38724	0	0	0	25888	24490	154221	27329	1067471	46884	109582	0	0	8197	523949	0	0
2024-09-13 14:01:47			0	38720	0	0	0	25893	24490	154208	27326	1067542	46862	109584	0	0	8197	524101	0	0
2024-09-13 14:02:47			0	38724	0	0	0	25883	24490	154257	27388	1067471	46874	109580	0	0	8197	523949	0	0
2024-09-13 14:03:47			0	38728	0	0	0	25885	24490	154277	27277	1067489	46884	109581	0	0	8197	523798	0	0
2024-09-13 14:04:47			0	38739	0	0	0	25883	24480	154213	27126	1067453	46883	109580	0	0	8198	523412	0	0
2024-09-13 14:05:47			0	38736	0	0	0	25888	24490	154233	27448	1067409	46874	109582	0	0	8198	523495	0	0
2024-09-13 14:06:47			0	38734	0	0	0	25877	24490	154309	27502	1067471	46884	109578	0	0	8198	523571	0	0
2024-09-13 14:07:47			0	38750	0	0	0	25888	24480	154309	27604	1067426	46883	109582	0	0	8198	522996	0	0
2024-09-13 14:08:47			0	38764	0	0	0	25875	24490	154245	27059	1067435	46874	109577	0	0	8199	522437	0	0
2024-09-13 14:09:47			0	38744	0	0	0	25862	24490	154257	27315	1067444	46862	109572	0	0	8199	523193	0	0
2024-09-13 14:10:47			0	38751	0	0	0	25880	24490	154261	27251	1067418	46874	109579	0	0	8199	522928	0	0
2024-09-13 14:11:47			0	38761	0	0	0	25885	24480	154237	27225	1067400	46883	109581	0	0	8199	522580	0	0
2024-09-13 14:12:47			0	38765	0	0	0	25875	24490	154305	27268	1067435	46862	109577	0	0	8200	522399	0	0
2024-09-13 14:13:47			0	38769	0	0	0	25867	24490	154181	27362	1067391	46884	109574	0	0	8200	522248	0	0
2024-09-13 14:14:47			0	38761	0	0	0	25867	24480	154209	26826	1067417	46872	109574	0	0	8199	522580	0	0
2024-09-13 14:15:47			0	38754	0	0	0	25870	24480	154273	27005	1067417	46872	109575	0	0	8199	522844	0	0
2024-09-13 14:16:47			0	38775	0	0	0	25864	24480	154277	27177	1067400	46861	109573	0	0	8200	522051	0	0
2024-09-13 14:17:47			0	38757	0	0	0	25872	24480	154221	27171	1067400	46873	109576	0	0	8199	522731	0	0
2024-09-13 14:18:47			0	38760	0	0	0	25864	24480	154185	27197	1067373	46861	109573	0	0	8199	522618	0	0
2024-09-13 14:19:47			0	38790	0	0	0	25875	24470	154165	27298	1067408	46872	109577	0	0	8201	521514	0	0
2024-09-13 14:20:47			0	38785	0	0	0	25872	24470	154137	27350	1067382	46882	109576	0	0	8201	521703	0	0
2024-09-13 14:21:47			0	38790	0	0	0	25870	24470	154265	27412	1067328	46861	109575	0	0	8201	521514	0	0
2024-09-13 14:22:47			0	38781	0	0	0	25867	24490	154241	27234	1067435	46874	109574	0	0	8201	521795	0	0
2024-09-13 14:23:47			0	38784	0	0	0	25872	24470	154321	27286	1067373	46861	109576	0	0	8201	521740	0	0
2024-09-13 14:24:47			0	38776	0	0	0	25870	24480	154265	26804	1067426	46873	109575	0	0	8200	522013	0	0
2024-09-13 14:25:47			0	38789	0	0	0	25870	24470	154249	27343	1067373	46872	109575	0	0	8201	521552	0	0
2024-09-13 14:26:47			0	38770	0	0	0	25872	24480	154109	27215	1067426	46873	109576	0	0	8200	522240	0	0
2024-09-13 14:27:47			0	38775	0	0	0	25864	24470	154205	27164	1067408	46872	109573	0	0	8200	522080	0	0
2024-09-13 14:28:47			0	38764	0	0	0	25872	24480	154273	27384	1067417	46882	109576	0	0	8199	522466	0	0
2024-09-13 14:29:47			0	38766	0	0	0	25864	24470	154225	27434	1067399	46872	109573	0	0	8200	522420	0	0
2024-09-13 14:30:47			0	38762	0	0	0	25872	24470	154121	27260	1067408	46861	109576	0	0	8199	522571	0	0
2024-09-13 14:31:47			0	38773	0	0	0	25877	24460	154357	27098	1067337	46871	109578	0	0	8200	522185	0	0
2024-09-13 14:32:47			0	38780	0	0	0	25880	24470	154125	27322	1067382	46872	109579	0	0	8200	521892	0	0
2024-09-13 14:33:47			0	38800	0	0	0	25870	24460	154265	27046	1067363	46871	109575	0	0	8202	521166	0	0
2024-09-13 14:34:47			0	38797	0	0	0	25857	24470	154169	27294	1067346	46861	109570	0	0	8202	521250	0	0
2024-09-13 14:35:47			0	38777	0	0	0	25857	24470	154241	27161	1067399	46872	109570	0	0	8200	522005	0	0
2024-09-13 14:36:47			0	38788	0	0	0	25854	24470	154197	27455	1067408	46872	109569	0	0	8201	521590	0	0
2024-09-13 14:37:47			0	38778	0	0	0	25862	24460	154221	27504	1067328	46880	109572	0	0	8200	521997	0	0
2024-09-13 14:38:47			0	38789	0	0	0	25870	24460	154193	27029	1067337	46881	109575	0	0	8201	521581	0	0
2024-09-13 14:39:47			0	38789	0	0	0	25862	24470	154229	27223	1067355	46861	109572	0	0	8201	521552	0	0
2024-09-13 14:40:47			0	38786	0	0	0	25870	24470	154177	27665	1067426	46849	109575	0	0	8201	521665	0	0
2024-09-13 14:41:47			0	38787	0	0	0	25859	24460	154121	27291	1067390	46859	109571	0	0	8201	521657	0	0
2024-09-13 14:42:47			0	38786	0	0	0	25846	24460	154105	27100	1067355	46847	109566	0	0	8201	521695	0	0
2024-09-13 14:43:47			0	38803	0	0	0	25862	24460	154185	27367	1067355	46870	109572	0	0	8202	521053	0	0
2024-09-13 14:44:47			0	38786	0	0	0	25867	24470	154117	27500	1067346	46849	109574	0	0	8201	521665	0	0
2024-09-13 14:45:47			0	38790	0	0	0	25864	24460	154061	27017	1067390	46881	109573	0	0	8201	521543	0	0
2024-09-13 14:46:47			0	38808	0	0	0	25859	24470	154101	27287	1067355	46861	109571	0	0	8202	520835	0	0
2024-09-13 14:47:47			0	38814	0	0	0	25857	24460	154093	26960	1067310	46859	109570	0	0	8203	520638	0	0
2024-09-13 14:48:47			0	38799	0	0	0	25849	24460	154121	27267	1067328	46870	109567	0	0	8202	521204	0	0
2024-09-13 14:49:47			0	38785	0	0	0	25828	24460	154073	27222	1067247	46858	109559	0	0	8201	521732	0	0
2024-09-13 14:50:47			0	38795	0	0	0	25820	24460	154113	27012	1067310	46859	109556	0	0	8202	521355	0	0
2024-09-13 14:51:47			0	38810	0	0	0	25828	24470	154061	27173	1067265	46872	109559	0	0	8203	520759	0	0
2024-09-13 14:52:47			0	38805	0	0	0	25820	24460	154117	27235	1067194	46870	109556	0	0	8203	520977	0	0
2024-09-13 14:53:47			0	38805	0	0	0	25844	24440	154085	27183	1067247	46879	109565	0	0	8202	521036	0	0
2024-09-13 14:54:47			0	38815	0	0	0	25846	24450	154093	27234	1067238	46870	109566	0	0	8203	520630	0	0
2024-09-13 14:55:47			0	38811	0	0	0	25836	24460	154145	27161	1067221	46870	109562	0	0	8203	520751	0	0
2024-09-13 14:56:47			0	38805	0	0	0	25838	24440	154097	27396	1067194	46846	109563	0	0	8202	521036	0	0
2024-09-13 14:57:47			0	38792	0	0	0	25836	24440	154149	27029	1067274	46879	109562	0	0	8202	521527	0	0
2024-09-13 14:58:47			0	38809	0	0	0	25849	24460	154213	27119	1067328	46847	109567	0	0	8202	520827	0	0
2024-09-13 14:59:47			0	38795	0	0	0	25825	24450	154157	27225	1067283	46870	109558	0	0	8202	521384	0	0
2024-09-13 15:00:47			0	38814	0	0	0	25836	24450	154101	27180	1067229	46870	109562	0	0	8203	520668	0	0
2024-09-13 15:01:47			0	38783	0	0	0	25849	24440	154129	27374	1067167	46869	109567	0	0	8201	521867	0	0
2024-09-13 15:02:47			0	38798	0	0	0	25828	24450	154193	27187	1067203	46858	109559	0	0	8202	521271	0	0
2024-09-13 15:03:47			0	38789	0	0	0	25825	24450	154141	27052	1067256	46858	109558	0	0	8202	521611	0	0
2024-09-13 15:04:47			0	38820	0	0	0	25805	24440	154057	27317	1067211	46868	109550	0	0	8204	520471	0	0
2024-09-13 15:05:47			0	38798	0	0	0	25799	24450	154113	26783	1067203	46847	109548	0	0	8203	521271	0	0
2024-09-13 15:06:47			0	38820	0	0	0	25823	24440	154089	26923	1067247	46869	109557	0	0	8203	520471	0	0
2024-09-13 15:07:47			0	38813	0	0	0	25815	24430	154065	27483	1067202	46855	109554	0	0	8203	520764	0	0
2024-09-13 15:08:47			0	38788	0	0	0	25792	24440	154133	27424	1067167	46857	109545	0	0	8202	521678	0	0
2024-09-13 15:09:47			0	38813	0	0	0	25825	24430	154009	27412	1067202	46855	109558	0	0	8203	520764	0	0
2024-09-13 15:10:47			0	38794	0	0	0	25825	24440	154141	27213	1067185	46878	109558	0	0	8202	521452	0	0
2024-09-13 15:11:47			0	38797	0	0	0	25823	24440	154149	27126	1067140	46869	109557	0	0	8202	521338	0	0
2024-09-13 15:12:47			0	38800	0	0	0	25831	24430	154173	27041	1067139	46867	109560	0	0	8202	521254	0	0
2024-09-13 15:13:47			0	38807	0	0	0	25818	24430	154085	27178	1067229	46844	109555	0	0	8203	520990	0	0
2024-09-13 15:14:47			0	38799	0	0	0	25810	24430	154157	27185	1067148	46855	109552	0	0	8202	521292	0	0
2024-09-13 15:15:47			0	38804	0	0	0	25794	24430	154117	27033	1067148	46855	109546	0	0	8203	521104	0	0
2024-09-13 15:16:47			0	38795	0	0	0	25812	24430	154089	27128	1067113	46867	109553	0	0	8202	521443	0	0
2024-09-13 15:17:47			0	38786	0	0	0	25825	24430	154145	27088	1067139	46855	109558	0	0	8201	521783	0	0
2024-09-13 15:18:47			0	38805	0	0	0	25810	24430	154149	27170	1067059	46877	109552	0	0	8203	521066	0	0
2024-09-13 15:19:47			0	38804	0	0	0	25807	24420	154189	27260	1067184	46855	109551	0	0	8203	521133	0	0
2024-09-13 15:20:47			0	38780	0	0	0	25792	24420	154149	27249	1067095	46854	109545	0	0	8202	522039	0	0
2024-09-13 15:21:47			0	38794	0	0	0	25805	24430	154177	27362	1067059	46855	109550	0	0	8202	521481	0	0
2024-09-13 15:22:47			0	38802	0	0	0	25771	24420	154049	27078	1067095	46854	109537	0	0	8203	521209	0	0
2024-09-13 15:23:47			0	38793	0	0	0	25805	24420	154197	26849	1067104	46867	109550	0	0	8202	521548	0	0
2024-09-13 15:24:47			0	38790	0	0	0	25797	24420	154141	27059	1067095	46843	109547	0	0	8202	521661	0	0
2024-09-13 15:25:47			0	38779	0	0	0	25810	24420	154133	27170	1067050	46855	109552	0	0	8201	522077	0	0
2024-09-13 15:26:47			0	38797	0	0	0	25810	24420	154165	27102	1067041	46854	109552	0	0	8202	521397	0	0
2024-09-13 15:27:47			0	38791	0	0	0	25818	24420	154117	27338	1067041	46866	109555	0	0	8202	521624	0	0
2024-09-13 15:28:47			0	38793	0	0	0	25831	24410	154173	27270	1067032	46853	109560	0	0	8202	521578	0	0
2024-09-13 15:29:47			0	38795	0	0	0	25836	24420	154221	27362	1067041	46866	109562	0	0	8202	521473	0	0
2024-09-13 15:30:47			0	38805	0	0	0	25831	24410	154149	27102	1067086	46875	109560	0	0	8202	521125	0	0
2024-09-13 15:31:47			0	38806	0	0	0	25825	24420	154257	27111	1067148	46866	109558	0	0	8202	521058	0	0
2024-09-13 15:32:47			0	38810	0	0	0	25823	24420	154161	27429	1067157	46867	109557	0	0	8203	520907	0	0
2024-09-13 15:33:47			0	38788	0	0	0	25810	24420	154193	27112	1067095	46876	109552	0	0	8202	521737	0	0
2024-09-13 15:34:47			0	38816	0	0	0	25805	24420	154129	27312	1067148	46866	109550	0	0	8203	520680	0	0
2024-09-13 15:35:47			0	38814	0	0	0	25807	24420	154125	27201	1067121	46866	109551	0	0	8203	520756	0	0
2024-09-13 15:36:47			0	38818	0	0	0	25797	24420	154141	27499	1067121	46854	109547	0	0	8204	520605	0	0
2024-09-13 15:37:47			0	38798	0	0	0	25781	24420	154137	27407	1067068	46843	109541	0	0	8203	521359	0	0
2024-09-13 15:38:47			0	38804	0	0	0	25755	24410	154125	27256	1067059	46853	109531	0	0	8203	521162	0	0
2024-09-13 15:39:47			0	38798	0	0	0	25766	24410	154029	27263	1067032	46842	109535	0	0	8203	521389	0	0
2024-09-13 15:40:47			0	38800	0	0	0	25797	24410	154081	27320	1067005	46865	109547	0	0	8203	521313	0	0
2024-09-13 15:41:47			0	38817	0	0	0	25797	24410	154085	27104	1067023	46853	109547	0	0	8204	520672	0	0
2024-09-13 15:42:47			0	38808	0	0	0	25820	24410	154113	27039	1067050	46875	109556	0	0	8203	521012	0	0
2024-09-13 15:43:47			0	38810	0	0	0	25820	24400	154129	27067	1067112	46852	109556	0	0	8203	520965	0	0
2024-09-13 15:44:47			0	38798	0	0	0	25818	24410	154097	27215	1067086	46886	109555	0	0	8202	521389	0	0
2024-09-13 15:45:47			0	38785	0	0	0	25810	24410	154097	27105	1067086	46865	109552	0	0	8201	521880	0	0
2024-09-13 15:46:47			0	38797	0	0	0	25802	24410	154181	27027	1067050	46875	109549	0	0	8202	521427	0	0
2024-09-13 15:47:47			0	38813	0	0	0	25823	24410	154153	27327	1067086	46865	109557	0	0	8203	520823	0	0
2024-09-13 15:48:47			0	38806	0	0	0	25825	24420	154161	27007	1067068	46866	109558	0	0	8202	521058	0	0
2024-09-13 15:49:47			0	38799	0	0	0	25810	24420	154157	27386	1067157	46844	109552	0	0	8202	521322	0	0
2024-09-13 15:50:47			0	38797	0	0	0	25812	24410	154045	26937	1067086	46865	109553	0	0	8202	521427	0	0
2024-09-13 15:51:47			0	38795	0	0	0	25820	24410	154113	26934	1067130	46875	109556	0	0	8202	521502	0	0
2024-09-13 15:52:47			0	38803	0	0	0	25820	24420	154169	27192	1067104	46855	109556	0	0	8202	521171	0	0
2024-09-13 15:53:47			0	38819	0	0	0	25812	24430	154101	27274	1067166	46877	109553	0	0	8203	520538	0	0
2024-09-13 15:54:47			0	38798	0	0	0	25797	24430	154133	27312	1067139	46867	109547	0	0	8202	521330	0	0
2024-09-13 15:55:47			0	38798	0	0	0	25794	24410	154113	27121	1067139	46853	109546	0	0	8202	521389	0	0
2024-09-13 15:56:47			0	38822	0	0	0	25799	24420	154173	27105	1067148	46866	109548	0	0	8204	520454	0	0
2024-09-13 15:57:47			0	38808	0	0	0	25792	24420	154193	27190	1067068	46843	109545	0	0	8203	520982	0	0
2024-09-13 15:58:47			0	38809	0	0	0	25786	24410	154069	27126	1067059	46865	109543	0	0	8203	520974	0	0
2024-09-13 15:59:47			0	38801	0	0	0	25789	24420	154153	27175	1067068	46854	109544	0	0	8203	521246	0	0
2024-09-13 16:00:47			0	38822	0	0	0	25802	24410	154089	27170	1067077	46853	109549	0	0	8204	520484	0	0
2024-09-13 16:01:47			0	38808	0	0	0	25810	24410	154137	27090	1067059	46865	109552	0	0	8203	521012	0	0
2024-09-13 16:02:47			0	38793	0	0	0	25805	24410	154165	27346	1067112	46853	109550	0	0	8202	521578	0	0
2024-09-13 16:03:47			0	38773	0	0	0	25818	24410	154293	27376	1067059	46865	109555	0	0	8201	522333	0	0
2024-09-13 16:04:47			0	38774	0	0	0	25797	24410	154233	27306	1067059	46853	109547	0	0	8201	522295	0	0
2024-09-13 16:05:47			0	38783	0	0	0	25799	24410	154189	27164	1067050	46865	109548	0	0	8202	521955	0	0
2024-09-13 16:06:47			0	38806	0	0	0	25799	24400	154165	27303	1067041	46865	109548	0	0	8203	521116	0	0
2024-09-13 16:07:47			0	38792	0	0	0	25805	24420	154189	27398	1067095	46866	109550	0	0	8202	521586	0	0
2024-09-13 16:08:47			0	38807	0	0	0	25799	24410	154129	27053	1067086	46865	109548	0	0	8203	521049	0	0
2024-09-13 16:09:47			0	38810	0	0	0	25789	24400	154033	27280	1067121	46865	109544	0	0	8203	520965	0	0
2024-09-13 16:10:47			0	38802	0	0	0	25799	24410	154133	27013	1067023	46842	109548	0	0	8203	521238	0	0
2024-09-13 16:11:47			0	38820	0	0	0	25797	24400	154125	27161	1067068	46865	109547	0	0	8204	520588	0	0
2024-09-13 16:12:47			0	38803	0	0	0	25799	24400	154121	27145	1067014	46865	109548	0	0	8203	521230	0	0
2024-09-13 16:13:47			0	38814	0	0	0	25799	24410	154081	27022	1067032	46842	109548	0	0	8203	520785	0	0
2024-09-13 16:14:47			0	38810	0	0	0	25802	24400	154081	26970	1067041	46865	109549	0	0	8203	520965	0	0
2024-09-13 16:15:47			0	38821	0	0	0	25792	24410	154077	26994	1067086	46853	109545	0	0	8204	520521	0	0
2024-09-13 16:16:47			0	38814	0	0	0	25784	24410	154109	26909	1067086	46865	109542	0	0	8204	520785	0	0
2024-09-13 16:17:47			0	38802	0	0	0	25794	24410	154069	27175	1067050	46865	109546	0	0	8203	521238	0	0
2024-09-13 16:18:47			0	38811	0	0	0	25799	24410	154105	27090	1067050	46853	109548	0	0	8203	520898	0	0
2024-09-13 16:19:47			0	38816	0	0	0	25805	24410	154145	26972	1067059	46865	109550	0	0	8203	520710	0	0
2024-09-13 16:20:47			0	38804	0	0	0	25802	24400	154149	27053	1067041	46865	109549	0	0	8203	521192	0	0
2024-09-13 16:21:47			0	38805	0	0	0	25789	24410	154097	27157	1067103	46865	109544	0	0	8203	521125	0	0
2024-09-13 16:22:47			0	38808	0	0	0	25789	24400	154077	27050	1067068	46853	109544	0	0	8203	521041	0	0
2024-09-13 16:23:47			0	38815	0	0	0	25784	24400	154233	27029	1067014	46842	109542	0	0	8204	520777	0	0
2024-09-13 16:24:47			0	38803	0	0	0	25812	24400	154229	26854	1067005	46864	109553	0	0	8202	521230	0	0
2024-09-13 16:25:47			0	38805	0	0	0	25786	24400	154333	27178	1067068	46865	109543	0	0	8203	521154	0	0
2024-09-13 16:26:47			0	38815	0	0	0	25807	24400	154129	27135	1067014	46853	109551	0	0	8203	520777	0	0
2024-09-13 16:27:47			0	38801	0	0	0	25812	24400	154269	26901	1067068	46853	109553	0	0	8202	521305	0	0
2024-09-13 16:28:47			0	38809	0	0	0	25818	24410	154129	27050	1067086	46865	109555	0	0	8203	520974	0	0
2024-09-13 16:29:47			0	38803	0	0	0	25810	24410	154157	27293	1067103	46886	109552	0	0	8202	521200	0	0
2024-09-13 16:30:47			0	38779	0	0	0	25820	24410	154249	27185	1067077	46853	109556	0	0	8201	522106	0	0
2024-09-13 16:31:47			0	38767	0	0	0	25781	24410	154185	27157	1067086	46853	109541	0	0	8201	522560	0	0
2024-09-13 16:32:47			0	38766	0	0	0	25786	24420	154165	27211	1067068	46854	109543	0	0	8201	522568	0	0
2024-09-13 16:33:47			0	38775	0	0	0	25807	24410	154169	27225	1067050	46853	109551	0	0	8201	522257	0	0
2024-09-13 16:34:47			0	38774	0	0	0	25802	24400	154209	27109	1067014	46842	109549	0	0	8201	522325	0	0
2024-09-13 16:35:47			0	38769	0	0	0	25812	24410	154213	27067	1067086	46865	109553	0	0	8200	522484	0	0
2024-09-13 16:36:47			0	38766	0	0	0	25812	24410	154273	27204	1067050	46853	109553	0	0	8200	522598	0	0
2024-09-13 16:37:47			0	38766	0	0	0	25805	24410	154249	27372	1067059	46865	109550	0	0	8200	522598	0	0
2024-09-13 16:38:47			0	38768	0	0	0	25797	24410	154201	27071	1067077	46853	109547	0	0	8201	522522	0	0
2024-09-13 16:39:47			0	38783	0	0	0	25799	24410	154153	27213	1067112	46853	109548	0	0	8202	521955	0	0
2024-09-13 16:40:47			0	38787	0	0	0	25815	24410	154181	27024	1067086	46875	109554	0	0	8201	521804	0	0
2024-09-13 16:41:47			0	38766	0	0	0	25818	24410	154225	27300	1067077	46853	109555	0	0	8200	522598	0	0
2024-09-13 16:42:47			0	38766	0	0	0	25812	24410	154181	26953	1067086	46865	109553	0	0	8200	522598	0	0
2024-09-13 16:43:47			0	38763	0	0	0	25805	24410	154217	27274	1067139	46875	109550	0	0	8200	522711	0	0
2024-09-13 16:44:47			0	38791	0	0	0	25799	24410	154193	27282	1067077	46865	109548	0	0	8202	521653	0	0
2024-09-13 16:45:47			0	38769	0	0	0	25794	24410	154137	27105	1067077	46842	109546	0	0	8201	522484	0	0
2024-09-13 16:46:47			0	38791	0	0	0	25792	24420	154105	26824	1067095	46866	109545	0	0	8202	521624	0	0
2024-09-13 16:47:47			0	38790	0	0	0	25797	24390	154177	27046	1066996	46863	109547	0	0	8202	521750	0	0
2024-09-13 16:48:47			0	38779	0	0	0	25815	24410	154201	27474	1067103	46853	109554	0	0	8201	522106	0	0
2024-09-13 16:49:47			0	38788	0	0	0	25815	24400	154189	27176	1067014	46875	109554	0	0	8201	521796	0	0
2024-09-13 16:50:47			0	38800	0	0	0	25828	24420	154049	27138	1067095	46854	109559	0	0	8202	521284	0	0
2024-09-13 16:51:47			0	38797	0	0	0	25833	24420	154141	27440	1067148	46876	109561	0	0	8202	521397	0	0
2024-09-13 16:52:47			0	38805	0	0	0	25838	24420	154145	27381	1067121	46854	109563	0	0	8202	521095	0	0
2024-09-13 16:53:47			0	38803	0	0	0	25831	24420	154049	27339	1067184	46867	109560	0	0	8202	521171	0	0
2024-09-13 16:54:47			0	38813	0	0	0	25828	24430	153997	27334	1067193	46867	109559	0	0	8203	520764	0	0
2024-09-13 16:55:47			0	38816	0	0	0	25812	24420	154157	27123	1067121	46854	109553	0	0	8203	520680	0	0
2024-09-13 16:56:47			0	38795	0	0	0	25812	24420	154129	27294	1067202	46854	109553	0	0	8202	521473	0	0
2024-09-13 16:57:47			0	38779	0	0	0	25836	24420	154181	27431	1067121	46866	109562	0	0	8201	522077	0	0
2024-09-13 16:58:47			0	38788	0	0	0	25836	24420	154129	27391	1067148	46854	109562	0	0	8201	521737	0	0
2024-09-13 16:59:47			0	38794	0	0	0	25823	24420	154033	27346	1067175	46866	109557	0	0	8202	521510	0	0
2024-09-13 17:00:47			0	38781	0	0	0	25833	24420	154205	27031	1067130	46867	109561	0	0	8201	522001	0	0
2024-09-13 17:01:47			0	38788	0	0	0	25825	24430	154117	27592	1067220	46855	109558	0	0	8201	521708	0	0
2024-09-13 17:02:47			0	38789	0	0	0	25820	24430	154121	27334	1067202	46867	109556	0	0	8202	521670	0	0
2024-09-13 17:03:47			0	38777	0	0	0	25815	24430	154105	27422	1067166	46867	109554	0	0	8201	522123	0	0
2024-09-13 17:04:47			0	38788	0	0	0	25807	24420	154105	27280	1067184	46877	109551	0	0	8202	521737	0	0
2024-09-13 17:05:47			0	38794	0	0	0	25812	24420	154157	27251	1067130	46867	109553	0	0	8202	521510	0	0
2024-09-13 17:06:47			0	38793	0	0	0	25815	24420	154145	27135	1067157	46855	109554	0	0	8202	521548	0	0
2024-09-13 17:07:47			0	38806	0	0	0	25815	24420	154057	27512	1067121	46854	109554	0	0	8203	521058	0	0
2024-09-13 17:08:47			0	38815	0	0	0	25823	24420	154149	27253	1067148	46843	109557	0	0	8203	520718	0	0
2024-09-13 17:09:47			0	38801	0	0	0	25807	24420	154125	27303	1067184	46867	109551	0	0	8202	521246	0	0
2024-09-13 17:10:47			0	38810	0	0	0	25799	24420	154169	27216	1067121	46854	109548	0	0	8203	520907	0	0
2024-09-13 17:11:47			0	38786	0	0	0	25805	24420	154133	26849	1067211	46855	109550	0	0	8202	521812	0	0
2024-09-13 17:12:47			0	38819	0	0	0	25815	24420	154149	27244	1067130	46855	109554	0	0	8203	520567	0	0
2024-09-13 17:13:47			0	38806	0	0	0	25818	24410	154085	27294	1067112	46865	109555	0	0	8203	521087	0	0
2024-09-13 17:14:47			0	38784	0	0	0	25810	24410	154093	27189	1067139	46853	109552	0	0	8201	521917	0	0
2024-09-13 17:15:47			0	38801	0	0	0	25812	24420	154161	27327	1067148	46854	109553	0	0	8202	521246	0	0
2024-09-13 17:16:47			0	38772	0	0	0	25802	24410	154321	27284	1067139	46865	109549	0	0	8201	522371	0	0
2024-09-13 17:17:47			0	38759	0	0	0	25818	24420	154241	27320	1067121	46843	109555	0	0	8200	522833	0	0
2024-09-13 17:18:47			0	38769	0	0	0	25807	24410	154153	27350	1067112	46853	109551	0	0	8201	522484	0	0
2024-09-13 17:19:47			0	38796	0	0	0	25818	24420	154169	27473	1067121	46843	109555	0	0	8202	521435	0	0
2024-09-13 17:20:47			0	38805	0	0	0	25815	24420	154145	27092	1067104	46855	109554	0	0	8203	521095	0	0
2024-09-13 17:21:47			0	38789	0	0	0	25820	24410	154149	27267	1067139	46853	109556	0	0	8201	521729	0	0
2024-09-13 17:22:47			0	38808	0	0	0	25815	24410	154053	27263	1067166	46875	109554	0	0	8203	521012	0	0
2024-09-13 17:23:47			0	38795	0	0	0	25820	24430	154217	26987	1067139	46867	109556	0	0	8202	521443	0	0
2024-09-13 17:24:47			0	38803	0	0	0	25828	24420	154121	27242	1067095	46854	109559	0	0	8202	521171	0	0
2024-09-13 17:25:47			0	38788	0	0	0	25828	24420	154057	27414	1067104	46855	109559	0	0	8201	521737	0	0
2024-09-13 17:26:47			0	38799	0	0	0	25825	24420	154093	27208	1067130	46877	109558	0	0	8202	521322	0	0
2024-09-13 17:27:47			0	38789	0	0	0	25836	24420	154049	27201	1067104	46855	109562	0	0	8201	521699	0	0
2024-09-13 17:28:47			0	38792	0	0	0	25831	24420	154057	27334	1067130	46867	109560	0	0	8202	521586	0	0
2024-09-13 17:29:47			0	38809	0	0	0	25805	24420	154065	26994	1067157	46867	109550	0	0	8203	520944	0	0
2024-09-13 17:30:47			0	38811	0	0	0	25815	24430	154117	27137	1067139	46855	109554	0	0	8203	520839	0	0
2024-09-13 17:31:47			0	38788	0	0	0	25802	24420	154113	27270	1067157	46867	109549	0	0	8202	521737	0	0
2024-09-13 17:32:47			0	38811	0	0	0	25815	24430	154093	26831	1067139	46855	109554	0	0	8203	520839	0	0
2024-09-13 17:33:47			0	38782	0	0	0	25812	24420	154057	26809	1067157	46867	109553	0	0	8201	521963	0	0
2024-09-13 17:34:47			0	38797	0	0	0	25820	24420	154065	27149	1067175	46866	109556	0	0	8202	521397	0	0
2024-09-13 17:35:47			0	38783	0	0	0	25815	24420	154189	27256	1067211	46855	109554	0	0	8201	521926	0	0
2024-09-13 17:36:47			0	38799	0	0	0	25815	24420	154145	26920	1067184	46855	109554	0	0	8202	521322	0	0
2024-09-13 17:37:47			0	38803	0	0	0	25807	24430	154097	27147	1067166	46855	109551	0	0	8203	521141	0	0
2024-09-13 17:38:47			0	38788	0	0	0	25812	24420	154085	27097	1067157	46855	109553	0	0	8202	521737	0	0
2024-09-13 17:39:47			0	38798	0	0	0	25812	24420	154165	27372	1067202	46854	109553	0	0	8202	521359	0	0
2024-09-13 17:40:47			0	38800	0	0	0	25820	24420	154057	26968	1067121	46866	109556	0	0	8202	521284	0	0
2024-09-13 17:41:47			0	38788	0	0	0	25820	24420	154125	27166	1067068	46854	109556	0	0	8201	521737	0	0
2024-09-13 17:42:47			0	38805	0	0	0	25805	24420	154165	26984	1067095	46866	109550	0	0	8203	521095	0	0
2024-09-13 17:43:47			0	38782	0	0	0	25815	24410	154033	27348	1067077	46853	109554	0	0	8201	521993	0	0
2024-09-13 17:44:47			0	38816	0	0	0	25815	24420	154145	26955	1067148	46866	109554	0	0	8203	520680	0	0
2024-09-13 17:45:47			0	38802	0	0	0	25805	24420	154041	27242	1067157	46855	109550	0	0	8203	521209	0	0
2024-09-13 17:46:47			0	38813	0	0	0	25797	24420	154013	26915	1067157	46855	109547	0	0	8203	520793	0	0
2024-09-13 17:47:47			0	38810	0	0	0	25802	24420	154045	27242	1067104	46855	109549	0	0	8203	520907	0	0
2024-09-13 17:48:47			0	38798	0	0	0	25802	24410	154097	27201	1067139	46865	109549	0	0	8202	521389	0	0
2024-09-13 17:49:47			0	38798	0	0	0	25812	24410	154097	27175	1067112	46853	109553	0	0	8202	521389	0	0
2024-09-13 17:50:47			0	38801	0	0	0	25784	24420	154157	27177	1067121	46854	109542	0	0	8203	521246	0	0
2024-09-13 17:51:47			0	38789	0	0	0	25784	24410	154081	27182	1067086	46853	109542	0	0	8202	521729	0	0
2024-09-13 17:52:47			0	38784	0	0	0	25779	24410	154189	26996	1067086	46865	109540	0	0	8202	521917	0	0
2024-09-13 17:53:47			0	38796	0	0	0	25784	24410	154089	26868	1067023	46865	109542	0	0	8203	521464	0	0
2024-09-13 17:54:47			0	38786	0	0	0	25802	24400	154157	27157	1066961	46842	109549	0	0	8202	521871	0	0
2024-09-13 17:55:47			0	38799	0	0	0	25805	24400	154085	26798	1067085	46852	109550	0	0	8202	521381	0	0
2024-09-13 17:56:47			0	38800	0	0	0	25784	24410	154221	27145	1067077	46865	109542	0	0	8203	521313	0	0
2024-09-13 17:57:47			0	38790	0	0	0	25799	24400	154121	27185	1067014	46865	109548	0	0	8202	521720	0	0
2024-09-13 17:58:47			0	38788	0	0	0	25812	24400	154073	27109	1067068	46853	109553	0	0	8202	521796	0	0
2024-09-13 17:59:47			0	38784	0	0	0	25812	24400	154201	26987	1067068	46865	109553	0	0	8201	521947	0	0
2024-09-13 18:00:47			0	38788	0	0	0	25794	24410	154101	27059	1067103	46865	109546	0	0	8202	521766	0	0
2024-09-13 18:01:47			0	38792	0	0	0	25784	24410	154117	26989	1067103	46865	109542	0	0	8202	521615	0	0
2024-09-13 18:02:47			0	38780	0	0	0	25745	24410	154073	26814	1066996	46842	109527	0	0	8202	522069	0	0
2024-09-13 18:03:47			0	38826	0	0	0	25748	24400	154013	26778	1066952	46852	109528	0	0	8205	520362	0	0
2024-09-13 18:04:47			0	38822	0	0	0	25766	24400	154073	27175	1067005	46841	109535	0	0	8204	520513	0	0
2024-09-13 18:05:47			0	38816	0	0	0	25761	24390	154137	26880	1066969	46840	109533	0	0	8204	520769	0	0
2024-09-13 18:06:47			0	38827	0	0	0	25774	24390	154017	27215	1066969	46840	109538	0	0	8204	520354	0	0
2024-09-13 18:07:47			0	38821	0	0	0	25779	24390	153989	27177	1066943	46851	109540	0	0	8204	520580	0	0
2024-09-13 18:08:47			0	38814	0	0	0	25771	24370	154113	27187	1066933	46849	109537	0	0	8204	520903	0	0
2024-09-13 18:09:47			0	38809	0	0	0	25774	24380	154105	27074	1066951	46851	109538	0	0	8203	521062	0	0
2024-09-13 18:10:47			0	38817	0	0	0	25776	24390	154169	27088	1066987	46851	109539	0	0	8204	520731	0	0
2024-09-13 18:11:47			0	38817	0	0	0	25774	24390	154057	26918	1066969	46851	109538	0	0	8204	520731	0	0
2024-09-13 18:12:47			0	38802	0	0	0	25784	24380	154261	27171	1066978	46863	109542	0	0	8203	521326	0	0
2024-09-13 18:13:47			0	38821	0	0	0	25776	24380	154121	27241	1066969	46850	109539	0	0	8204	520609	0	0
2024-09-13 18:14:47			0	38804	0	0	0	25763	24380	154133	27312	1066969	46850	109534	0	0	8203	521251	0	0
2024-09-13 18:15:47			0	38812	0	0	0	25768	24380	154241	27272	1066889	46850	109536	0	0	8204	520949	0	0
2024-09-13 18:16:47			0	38807	0	0	0	25763	24380	154157	27187	1066916	46850	109534	0	0	8203	521138	0	0
2024-09-13 18:17:47			0	38820	0	0	0	25763	24380	154145	26779	1066942	46839	109534	0	0	8204	520647	0	0
2024-09-13 18:18:47			0	38820	0	0	0	25761	24370	154221	27315	1066907	46838	109533	0	0	8204	520677	0	0
2024-09-13 18:19:47			0	38802	0	0	0	25758	24380	154209	27130	1066916	46850	109532	0	0	8203	521326	0	0
2024-09-13 18:20:47			0	38806	0	0	0	25761	24370	154229	27013	1066907	46849	109533	0	0	8203	521205	0	0
2024-09-13 18:21:47			0	38801	0	0	0	25742	24370	154193	27098	1066907	46849	109526	0	0	8203	521394	0	0
2024-09-13 18:22:47			0	38793	0	0	0	25745	24360	154117	27369	1066915	46860	109527	0	0	8203	521725	0	0
2024-09-13 18:23:47			0	38789	0	0	0	25753	24360	154205	27154	1066835	46860	109530	0	0	8202	521876	0	0
2024-09-13 18:24:47			0	38800	0	0	0	25753	24360	154141	27180	1066781	46860	109530	0	0	8203	521461	0	0
2024-09-13 18:25:47			0	38812	0	0	0	25771	24370	154249	26760	1066898	46848	109537	0	0	8203	520978	0	0
2024-09-13 18:26:47			0	38804	0	0	0	25761	24360	154229	26800	1066889	46860	109533	0	0	8203	521310	0	0
2024-09-13 18:27:47			0	38794	0	0	0	25750	24350	154149	26866	1066844	46836	109529	0	0	8203	521717	0	0
2024-09-13 18:28:47			0	38776	0	0	0	25766	24370	154241	27190	1066898	46837	109535	0	0	8201	522338	0	0
2024-09-13 18:29:47			0	38777	0	0	0	25771	24360	154257	27156	1066755	46848	109537	0	0	8201	522329	0	0
2024-09-13 18:30:47			0	38774	0	0	0	25766	24350	154185	26927	1066844	46847	109535	0	0	8201	522472	0	0
2024-09-13 18:31:47			0	38780	0	0	0	25766	24370	154301	27194	1066898	46848	109535	0	0	8202	522187	0	0
2024-09-13 18:32:47			0	38782	0	0	0	25758	24360	154209	27159	1066862	46848	109532	0	0	8202	522140	0	0
2024-09-13 18:33:47			0	38763	0	0	0	25755	24370	154273	26941	1066871	46860	109531	0	0	8201	522829	0	0
2024-09-13 18:34:47			0	38769	0	0	0	25776	24370	154373	26892	1066898	46860	109539	0	0	8201	522602	0	0
2024-09-13 18:35:47			0	38767	0	0	0	25768	24370	154217	26975	1066844	46837	109536	0	0	8201	522678	0	0
2024-09-13 18:36:47			0	38773	0	0	0	25776	24350	154341	27071	1066871	46859	109539	0	0	8201	522510	0	0
2024-09-13 18:37:47			0	38782	0	0	0	25805	24370	154397	26883	1066951	46848	109550	0	0	8201	522111	0	0
2024-09-13 18:38:47			0	38778	0	0	0	25784	24370	154329	26977	1066960	46861	109542	0	0	8201	522262	0	0
2024-09-13 18:39:47			0	38772	0	0	0	25768	24370	154357	27209	1066898	46860	109536	0	0	8201	522489	0	0
2024-09-13 18:40:47			0	38771	0	0	0	25779	24370	154293	26956	1066933	46849	109540	0	0	8201	522527	0	0
2024-09-13 18:41:47			0	38755	0	0	0	25763	24370	154221	26687	1066933	46861	109534	0	0	8200	523132	0	0
2024-09-13 18:42:47			0	38765	0	0	0	25758	24390	154189	26689	1066916	46851	109532	0	0	8201	522694	0	0
2024-09-13 18:43:47			0	38773	0	0	0	25737	24370	154329	26838	1066933	46849	109524	0	0	8202	522451	0	0
2024-09-13 18:44:47			0	38762	0	0	0	25745	24360	154269	26955	1066862	46848	109527	0	0	8201	522896	0	0
2024-09-13 18:45:47			0	38769	0	0	0	25742	24370	154321	27059	1066871	46837	109526	0	0	8201	522602	0	0
2024-09-13 18:46:47			0	38763	0	0	0	25742	24370	154305	26925	1066844	46848	109526	0	0	8201	522829	0	0
2024-09-13 18:47:47			0	38747	0	0	0	25758	24360	154357	27055	1066853	46837	109532	0	0	8200	523464	0	0
2024-09-13 18:48:47			0	38741	0	0	0	25755	24360	154381	26844	1066772	46848	109531	0	0	8200	523691	0	0
2024-09-13 18:49:47			0	38746	0	0	0	25755	24360	154377	26840	1066853	46860	109531	0	0	8200	523502	0	0
2024-09-13 18:50:47			0	38759	0	0	0	25740	24360	154393	26620	1066880	46837	109525	0	0	8201	523010	0	0
2024-09-13 18:51:47			0	38759	0	0	0	25737	24350	154457	26922	1066844	46836	109524	0	0	8201	523039	0	0
2024-09-13 18:52:47			0	38771	0	0	0	25745	24350	154317	27022	1066844	46859	109527	0	0	8201	522586	0	0
2024-09-13 18:53:47			0	38764	0	0	0	25729	24360	154397	26989	1066826	46837	109521	0	0	8201	522821	0	0
2024-09-13 18:54:47			0	38758	0	0	0	25748	24350	154501	27138	1066844	46836	109528	0	0	8201	523077	0	0
2024-09-13 18:55:47			0	38758	0	0	0	25776	24350	154453	26802	1066862	46846	109539	0	0	8200	523077	0	0
2024-09-13 18:56:47			0	38738	0	0	0	25763	24360	154469	26788	1066853	46848	109534	0	0	8199	523805	0	0
2024-09-13 18:57:47			0	38753	0	0	0	25768	24360	154469	27152	1066889	46860	109536	0	0	8200	523237	0	0
2024-09-13 18:58:47			0	38744	0	0	0	25771	24350	154481	26727	1066897	46847	109537	0	0	8199	523607	0	0
2024-09-13 18:59:47			0	38742	0	0	0	25776	24360	154385	26824	1066960	46871	109539	0	0	8199	523653	0	0
2024-09-13 19:00:47			0	38741	0	0	0	25784	24360	154505	26920	1066906	46860	109542	0	0	8199	523691	0	0
2024-09-13 19:01:47			0	38748	0	0	0	25781	24360	154509	27019	1066826	46848	109541	0	0	8200	523426	0	0
2024-09-13 19:02:47			0	38744	0	0	0	25789	24360	154513	26911	1066996	46860	109544	0	0	8199	523577	0	0
2024-09-13 19:03:47			0	38740	0	0	0	25784	24360	154437	27227	1066915	46848	109542	0	0	8199	523729	0	0
2024-09-13 19:04:47			0	38762	0	0	0	25784	24370	154329	27126	1066924	46860	109542	0	0	8200	522867	0	0
2024-09-13 19:05:47			0	38745	0	0	0	25786	24370	154373	26809	1066978	46871	109543	0	0	8199	523510	0	0
2024-09-13 19:06:47			0	38770	0	0	0	25774	24360	154417	27144	1066942	46860	109538	0	0	8201	522594	0	0
2024-09-13 19:07:47			0	38754	0	0	0	25766	24370	154417	27355	1066871	46827	109535	0	0	8200	523169	0	0
2024-09-13 19:08:47			0	38739	0	0	0	25768	24370	154405	26849	1066978	46848	109536	0	0	8199	523737	0	0
2024-09-13 19:09:47			0	38749	0	0	0	25761	24370	154493	26986	1066907	46849	109533	0	0	8200	523359	0	0
2024-09-13 19:10:47			0	38730	0	0	0	25771	24370	154520	26776	1066898	46860	109537	0	0	8199	524078	0	0
2024-09-13 19:11:47			0	38716	0	0	0	25748	24370	154608	27119	1066933	46849	109528	0	0	8198	524608	0	0
2024-09-13 19:12:47			0	38691	0	0	0	25755	24370	154668	27069	1066826	46861	109531	0	0	8197	525556	0	0
2024-09-13 19:13:47			0	38652	0	0	0	25737	24370	154772	27053	1066880	46849	109524	0	0	8195	527036	0	0
2024-09-13 19:14:47			0	38625	0	0	0	25745	24370	154928	27092	1066853	46849	109527	0	0	8193	528063	0	0
2024-09-13 19:15:47			0	38603	0	0	0	25748	24360	154964	27020	1066862	46848	109528	0	0	8192	528930	0	0
2024-09-13 19:16:47			0	38608	0	0	0	25742	24370	155048	27154	1066790	46848	109526	0	0	8192	528709	0	0
2024-09-13 19:17:47			0	38592	0	0	0	25750	24360	155136	26727	1066889	46848	109529	0	0	8191	529349	0	0
2024-09-13 19:18:47			0	38575	0	0	0	25755	24360	155200	27277	1066826	46837	109531	0	0	8190	529996	0	0
2024-09-13 19:19:47			0	38568	0	0	0	25771	24350	155172	27289	1066897	46859	109537	0	0	8189	530293	0	0
2024-09-13 19:20:47			0	38600	0	0	0	25737	24360	155028	26922	1066880	46848	109524	0	0	8192	529044	0	0
2024-09-13 19:21:47			0	38556	0	0	0	25742	24350	155168	27114	1066835	46858	109526	0	0	8189	530751	0	0
2024-09-13 19:22:47			0	38510	0	0	0	25748	24360	155324	27005	1066889	46848	109528	0	0	8186	532478	0	0
2024-09-13 19:23:47			0	38515	0	0	0	25729	24350	155328	27267	1066737	46836	109521	0	0	8187	532317	0	0
2024-09-13 19:24:47			0	38524	0	0	0	25758	24350	155376	27332	1066763	46847	109532	0	0	8187	531973	0	0
2024-09-13 19:25:47			0	38525	0	0	0	25758	24360	155208	26965	1066862	46860	109532	0	0	8187	531905	0	0
2024-09-13 19:26:47			0	38538	0	0	0	25748	24350	155272	27168	1066844	46836	109528	0	0	8188	531438	0	0
2024-09-13 19:27:47			0	38553	0	0	0	25745	24360	155268	26982	1066880	46871	109527	0	0	8189	530836	0	0
2024-09-13 19:28:47			0	38559	0	0	0	25750	24350	155180	26981	1066862	46846	109529	0	0	8189	530637	0	0
2024-09-13 19:29:47			0	38554	0	0	0	25729	24350	155140	27107	1066754	46846	109521	0	0	8189	530827	0	0
2024-09-13 19:30:47			0	38564	0	0	0	25742	24360	155156	27419	1066853	46848	109526	0	0	8190	530416	0	0
2024-09-13 19:31:47			0	38553	0	0	0	25748	24350	155128	26930	1066871	46847	109528	0	0	8189	530866	0	0
2024-09-13 19:32:47			0	38552	0	0	0	25740	24350	155100	27294	1066844	46836	109525	0	0	8189	530904	0	0
2024-09-13 19:33:47			0	38516	0	0	0	25742	24350	155216	27350	1066817	46847	109526	0	0	8187	532279	0	0
2024-09-13 19:34:47			0	38550	0	0	0	25745	24360	155236	27301	1066826	46848	109527	0	0	8189	530950	0	0
2024-09-13 19:35:47			0	38546	0	0	0	25732	24350	155216	27147	1066737	46847	109522	0	0	8189	531133	0	0
2024-09-13 19:36:47			0	38548	0	0	0	25732	24350	155252	27150	1066763	46859	109522	0	0	8189	531056	0	0
2024-09-13 19:37:47			0	38537	0	0	0	25732	24350	155140	27069	1066754	46835	109522	0	0	8188	531476	0	0
2024-09-13 19:38:47			0	38540	0	0	0	25724	24340	155188	27352	1066799	46869	109519	0	0	8188	531392	0	0
2024-09-13 19:39:47			0	38538	0	0	0	25722	24340	155292	27313	1066772	46846	109518	0	0	8188	531468	0	0
2024-09-13 19:40:47			0	38547	0	0	0	25724	24340	155244	27140	1066719	46846	109519	0	0	8189	531125	0	0
2024-09-13 19:41:47			0	38552	0	0	0	25735	24340	155312	26984	1066719	46846	109523	0	0	8189	530934	0	0
2024-09-13 19:42:47			0	38539	0	0	0	25732	24340	155280	26942	1066692	46858	109522	0	0	8188	531430	0	0
2024-09-13 19:43:47			0	38533	0	0	0	25729	24340	155352	27263	1066736	46858	109521	0	0	8188	531659	0	0
2024-09-13 19:44:47			0	38549	0	0	0	25732	24340	155328	27097	1066790	46846	109522	0	0	8189	531048	0	0
2024-09-13 19:45:47			0	38536	0	0	0	25742	24330	155364	27085	1066781	46834	109526	0	0	8188	531575	0	0
2024-09-13 19:46:47			0	38523	0	0	0	25748	24330	155456	27065	1066727	46857	109528	0	0	8187	532071	0	0
2024-09-13 19:47:47			0	38488	0	0	0	25729	24340	155384	26896	1066683	46858	109521	0	0	8185	533380	0	0
2024-09-13 19:48:47			0	38510	0	0	0	25740	24330	155384	27112	1066727	46845	109525	0	0	8186	532568	0	0
2024-09-13 19:49:47			0	38504	0	0	0	25735	24340	155428	27055	1066692	46858	109523	0	0	8186	532768	0	0
2024-09-13 19:50:47			0	38505	0	0	0	25729	24340	155508	27251	1066683	46846	109521	0	0	8186	532729	0	0
2024-09-13 19:51:47			0	38505	0	0	0	25750	24340	155380	27223	1066683	46858	109529	0	0	8186	532729	0	0
2024-09-13 19:52:47			0	38494	0	0	0	25737	24340	155380	26901	1066683	46835	109524	0	0	8186	533150	0	0
2024-09-13 19:53:47			0	38509	0	0	0	25732	24340	155340	26785	1066710	46835	109522	0	0	8187	532577	0	0
2024-09-13 19:54:47			0	38522	0	0	0	25735	24340	155364	27107	1066710	46846	109523	0	0	8187	532080	0	0
2024-09-13 19:55:47			0	38493	0	0	0	25724	24340	155392	27062	1066710	46846	109519	0	0	8186	533188	0	0
2024-09-13 19:56:47			0	38513	0	0	0	25698	24340	155344	26970	1066710	46835	109509	0	0	8187	532424	0	0
2024-09-13 19:57:47			0	38514	0	0	0	25711	24330	155276	26906	1066585	46844	109514	0	0	8187	532415	0	0
2024-09-13 19:58:47			0	38514	0	0	0	25724	24320	155336	26901	1066683	46833	109519	0	0	8187	532445	0	0
2024-09-13 19:59:47			0	38526	0	0	0	25714	24330	155300	26916	1066674	46845	109515	0	0	8188	531957	0	0
2024-09-13 20:00:47			0	38505	0	0	0	25737	24320	155376	26948	1066790	46833	109524	0	0	8186	532790	0	0
2024-09-13 20:01:47			0	38498	0	0	0	25735	24320	155352	27019	1066674	46833	109523	0	0	8186	533057	0	0
2024-09-13 20:02:47			0	38503	0	0	0	25729	24330	155320	27270	1066727	46845	109521	0	0	8186	532836	0	0
2024-09-13 20:03:47			0	38499	0	0	0	25724	24330	155416	26913	1066701	46857	109519	0	0	8186	532989	0	0
2024-09-13 20:04:47			0	38470	0	0	0	25724	24320	155496	27185	1066656	46833	109519	0	0	8184	534129	0	0
2024-09-13 20:05:47			0	38477	0	0	0	25716	24320	155504	27081	1066656	46844	109516	0	0	8185	533861	0	0
2024-09-13 20:06:47			0	38464	0	0	0	25714	24320	155556	27204	1066683	46844	109515	0	0	8184	534359	0	0
2024-09-13 20:07:47			0	38473	0	0	0	25690	24320	155492	27066	1066647	46856	109506	0	0	8185	534015	0	0
2024-09-13 20:08:47			0	38504	0	0	0	25693	24330	155432	26949	1066638	46833	109507	0	0	8187	532798	0	0
2024-09-13 20:09:47			0	38478	0	0	0	25703	24320	155356	27204	1066602	46844	109511	0	0	8185	533823	0	0
2024-09-13 20:10:47			0	38484	0	0	0	25737	24320	155480	27022	1066647	46844	109524	0	0	8185	533593	0	0
2024-09-13 20:11:47			0	38480	0	0	0	25742	24310	155384	26873	1066611	46843	109526	0	0	8185	533777	0	0
2024-09-13 20:12:47			0	38513	0	0	0	25735	24320	155532	27033	1066602	46856	109523	0	0	8187	532484	0	0
2024-09-13 20:13:47			0	38505	0	0	0	25732	24320	155368	27376	1066656	46856	109522	0	0	8186	532790	0	0
2024-09-13 20:14:47			0	38512	0	0	0	25735	24320	155368	26974	1066683	46856	109523	0	0	8187	532522	0	0
2024-09-13 20:15:47			0	38500	0	0	0	25727	24330	155344	26941	1066754	46857	109520	0	0	8186	532951	0	0
2024-09-13 20:16:47			0	38499	0	0	0	25714	24320	155376	26797	1066629	46856	109515	0	0	8186	533019	0	0
2024-09-13 20:17:47			0	38517	0	0	0	25709	24330	155512	26941	1066718	46856	109513	0	0	8187	532301	0	0
2024-09-13 20:18:47			0	38500	0	0	0	25711	24330	155296	26906	1066638	46844	109514	0	0	8186	532951	0	0
2024-09-13 20:19:47			0	38518	0	0	0	25701	24330	155296	27196	1066692	46844	109510	0	0	8188	532262	0	0
2024-09-13 20:20:47			0	38502	0	0	0	25716	24320	155292	26946	1066709	46856	109516	0	0	8186	532904	0	0
2024-09-13 20:21:47			0	38515	0	0	0	25737	24330	155300	27164	1066638	46856	109524	0	0	8187	532377	0	0
2024-09-13 20:22:47			0	38490	0	0	0	25737	24330	155392	27251	1066692	46844	109524	0	0	8185	533333	0	0
2024-09-13 20:23:47			0	38497	0	0	0	25745	24320	155460	26883	1066709	46867	109527	0	0	8186	533096	0	0
2024-09-13 20:24:47			0	38502	0	0	0	25737	24330	155284	27211	1066692	46867	109524	0	0	8186	532874	0	0
2024-09-13 20:25:47			0	38499	0	0	0	25724	24330	155360	26989	1066701	46845	109519	0	0	8186	532989	0	0
2024-09-13 20:26:47			0	38500	0	0	0	25729	24320	155360	26928	1066683	46856	109521	0	0	8186	532981	0	0
2024-09-13 20:27:47			0	38505	0	0	0	25737	24330	155444	27265	1066692	46833	109524	0	0	8186	532759	0	0
2024-09-13 20:28:47			0	38506	0	0	0	25745	24320	155364	27026	1066647	46856	109527	0	0	8186	532751	0	0
2024-09-13 20:29:47			0	38517	0	0	0	25727	24330	155416	27253	1066781	46845	109520	0	0	8187	532301	0	0
2024-09-13 20:30:47			0	38496	0	0	0	25724	24330	155392	26993	1066701	46857	109519	0	0	8186	533104	0	0
2024-09-13 20:31:47			0	38517	0	0	0	25711	24330	155340	27307	1066674	46845	109514	0	0	8187	532301	0	0
2024-09-13 20:32:47			0	38513	0	0	0	25696	24340	155340	27317	1066683	46846	109508	0	0	8187	532424	0	0
2024-09-13 20:33:47			0	38505	0	0	0	25690	24320	155476	27400	1066656	46844	109506	0	0	8187	532790	0	0
2024-09-13 20:34:47			0	38502	0	0	0	25701	24320	155400	27043	1066629	46844	109510	0	0	8187	532904	0	0
2024-09-13 20:35:47			0	38497	0	0	0	25719	24320	155464	27138	1066602	46844	109517	0	0	8186	533096	0	0
2024-09-13 20:36:47			0	38506	0	0	0	25709	24320	155424	27182	1066620	46844	109513	0	0	8187	532751	0	0
2024-09-13 20:37:47			0	38491	0	0	0	25706	24320	155404	26908	1066629	46844	109512	0	0	8186	533325	0	0
2024-09-13 20:38:47			0	38497	0	0	0	25693	24320	155372	27154	1066567	46833	109507	0	0	8186	533096	0	0
2024-09-13 20:39:47			0	38495	0	0	0	25688	24330	155456	27279	1066674	46845	109505	0	0	8186	533142	0	0
2024-09-13 20:40:47			0	38487	0	0	0	25706	24300	155512	26961	1066655	46842	109512	0	0	8186	533539	0	0
2024-09-13 20:41:47			0	38482	0	0	0	25703	24320	155424	26802	1066593	46844	109511	0	0	8185	533670	0	0
2024-09-13 20:42:47			0	38484	0	0	0	25714	24300	155444	27142	1066575	46842	109515	0	0	8185	533653	0	0
2024-09-13 20:43:47			0	38482	0	0	0	25714	24320	155528	27034	1066647	46856	109515	0	0	8185	533670	0	0
2024-09-13 20:44:47			0	38467	0	0	0	25714	24300	155616	27306	1066575	46853	109515	0	0	8184	534305	0	0
2024-09-13 20:45:47			0	38452	0	0	0	25701	24310	155640	27064	1066638	46843	109510	0	0	8184	534849	0	0
2024-09-13 20:46:47			0	38467	0	0	0	25698	24320	155688	27331	1066567	46844	109509	0	0	8185	534244	0	0
2024-09-13 20:47:47			0	38455	0	0	0	25698	24310	155596	27121	1066558	46843	109509	0	0	8184	534734	0	0
2024-09-13 20:48:47			0	38440	0	0	0	25693	24300	155688	27144	1066521	46853	109507	0	0	8183	535340	0	0
2024-09-13 20:49:47			0	38446	0	0	0	25703	24310	155624	27152	1066558	46833	109511	0	0	8183	535080	0	0
2024-09-13 20:50:47			0	38451	0	0	0	25716	24310	155620	26911	1066611	46854	109516	0	0	8183	534888	0	0
2024-09-13 20:51:47			0	38455	0	0	0	25719	24300	155600	26824	1066593	46841	109517	0	0	8183	534765	0	0
2024-09-13 20:52:47			0	38460	0	0	0	25711	24300	155572	26797	1066566	46841	109514	0	0	8184	534573	0	0
2024-09-13 20:53:47			0	38457	0	0	0	25703	24310	155608	27124	1066611	46866	109511	0	0	8184	534658	0	0
2024-09-13 20:54:47			0	38418	0	0	0	25693	24300	155520	27185	1066548	46842	109507	0	0	8182	536184	0	0
2024-09-13 20:55:47			0	38439	0	0	0	25685	24300	155628	27253	1066602	46842	109504	0	0	8183	535378	0	0
2024-09-13 20:56:47			0	38417	0	0	0	25698	24310	155664	26897	1066584	46843	109509	0	0	8182	536192	0	0
2024-09-13 20:57:47			0	38415	0	0	0	25693	24300	155684	27012	1066602	46832	109507	0	0	8182	536299	0	0
2024-09-13 20:58:47			0	38403	0	0	0	25698	24300	155716	27015	1066575	46832	109509	0	0	8181	536760	0	0
2024-09-13 20:59:47			0	38402	0	0	0	25703	24300	155756	26764	1066575	46842	109511	0	0	8181	536799	0	0
2024-09-13 21:00:47			0	38401	0	0	0	25701	24300	155872	27097	1066539	46841	109510	0	0	8181	536837	0	0
2024-09-13 21:01:47			0	38380	0	0	0	25685	24310	155832	27131	1066584	46843	109504	0	0	8180	537614	0	0
2024-09-13 21:02:47			0	38368	0	0	0	25683	24290	155936	26845	1066530	46841	109503	0	0	8179	538137	0	0
2024-09-13 21:03:47			0	38349	0	0	0	25677	24300	155996	27260	1066539	46841	109501	0	0	8178	538838	0	0
2024-09-13 21:04:47			0	38327	0	0	0	25693	24290	156048	26791	1066548	46831	109507	0	0	8176	539716	0	0
2024-09-13 21:05:47			0	38308	0	0	0	25690	24290	156132	27031	1066548	46831	109506	0	0	8175	540449	0	0
2024-09-13 21:06:47			0	38312	0	0	0	25680	24290	156144	26996	1066557	46841	109502	0	0	8176	540295	0	0
2024-09-13 21:07:47			0	38312	0	0	0	25685	24290	156132	27076	1066530	46831	109504	0	0	8176	540295	0	0
2024-09-13 21:08:47			0	38311	0	0	0	25690	24290	156152	27131	1066503	46841	109506	0	0	8176	540333	0	0
2024-09-13 21:09:47			0	38287	0	0	0	25677	24290	156108	27448	1066548	46831	109501	0	0	8174	541260	0	0
2024-09-13 21:10:47			0	38284	0	0	0	25685	24290	156240	27020	1066494	46831	109504	0	0	8174	541376	0	0
2024-09-13 21:11:47			0	38309	0	0	0	25696	24290	156132	27320	1066450	46841	109508	0	0	8175	540410	0	0
2024-09-13 21:12:47			0	38324	0	0	0	25688	24280	156180	27098	1066512	46840	109505	0	0	8176	539862	0	0
2024-09-13 21:13:47			0	38321	0	0	0	25693	24290	156108	26991	1066494	46841	109507	0	0	8176	539948	0	0
2024-09-13 21:14:47			0	38307	0	0	0	25690	24280	156072	27090	1066512	46840	109506	0	0	8175	540518	0	0
2024-09-13 21:15:47			0	38311	0	0	0	25675	24290	156172	27291	1066521	46841	109500	0	0	8176	540333	0	0
2024-09-13 21:16:47			0	38316	0	0	0	25675	24290	156088	27140	1066467	46841	109500	0	0	8176	540140	0	0
2024-09-13 21:17:47			0	38296	0	0	0	25680	24270	156172	27180	1066431	46839	109502	0	0	8175	540973	0	0
2024-09-13 21:18:47			0	38340	0	0	0	25677	24280	156088	27452	1066432	46830	109501	0	0	8177	539245	0	0
2024-09-13 21:19:47			0	38347	0	0	0	25675	24280	156028	27071	1066485	46840	109500	0	0	8178	538976	0	0
2024-09-13 21:20:47			0	38354	0	0	0	25672	24280	155872	27216	1066458	46840	109499	0	0	8178	538706	0	0
2024-09-13 21:21:47			0	38343	0	0	0	25672	24280	155920	26899	1066449	46829	109499	0	0	8178	539130	0	0
2024-09-13 21:22:47			0	38353	0	0	0	25672	24270	155928	27189	1066467	46839	109499	0	0	8178	538775	0	0
2024-09-13 21:23:47			0	38380	0	0	0	25670	24280	155912	27227	1066458	46840	109498	0	0	8180	537705	0	0
2024-09-13 21:24:47			0	38368	0	0	0	25667	24260	156032	27001	1066449	46828	109497	0	0	8179	538228	0	0
2024-09-13 21:25:47			0	38370	0	0	0	25667	24280	155888	26663	1066423	46850	109497	0	0	8179	538090	0	0
2024-09-13 21:26:47			0	38367	0	0	0	25651	24260	155860	26720	1066396	46838	109491	0	0	8179	538266	0	0
2024-09-13 21:27:47			0	38381	0	0	0	25662	24270	156000	26974	1066387	46850	109495	0	0	8180	537697	0	0
2024-09-13 21:28:47			0	38350	0	0	0	25662	24270	155964	27137	1066431	46829	109495	0	0	8178	538891	0	0
2024-09-13 21:29:47			0	38344	0	0	0	25667	24260	156092	27142	1066333	46837	109497	0	0	8178	539152	0	0
2024-09-13 21:30:47			0	38362	0	0	0	25672	24260	156024	27046	1066360	46837	109499	0	0	8179	538459	0	0
2024-09-13 21:31:47			0	38368	0	0	0	25667	24260	156012	27033	1066413	46848	109497	0	0	8179	538228	0	0
2024-09-13 21:32:47			0	38368	0	0	0	25657	24250	155928	27163	1066404	46848	109493	0	0	8179	538258	0	0
2024-09-13 21:33:47			0	38362	0	0	0	25662	24260	156080	27088	1066387	46848	109495	0	0	8179	538459	0	0
2024-09-13 21:34:47			0	38355	0	0	0	25649	24260	155988	27175	1066387	46827	109490	0	0	8179	538729	0	0
2024-09-13 21:35:47			0	38321	0	0	0	25649	24260	156060	27060	1066396	46838	109490	0	0	8177	540039	0	0
2024-09-13 21:36:47			0	38316	0	0	0	25657	24260	156112	27043	1066315	46849	109493	0	0	8176	540232	0	0
2024-09-13 21:37:47			0	38290	0	0	0	25662	24260	156176	26993	1066360	46837	109495	0	0	8175	541236	0	0
2024-09-13 21:38:47			0	38289	0	0	0	25657	24260	156204	27182	1066387	46837	109493	0	0	8175	541274	0	0
2024-09-13 21:39:47			0	38285	0	0	0	25659	24250	156268	27118	1066324	46848	109494	0	0	8174	541459	0	0
2024-09-13 21:40:47			0	38297	0	0	0	25644	24250	156188	27095	1066369	46837	109488	0	0	8175	540996	0	0
2024-09-13 21:41:47			0	38275	0	0	0	25662	24250	156268	26958	1066315	46827	109495	0	0	8174	541846	0	0
2024-09-13 21:42:47			0	38291	0	0	0	25651	24250	156224	27156	1066288	46837	109491	0	0	8175	541227	0	0
2024-09-13 21:43:47			0	38283	0	0	0	25641	24250	156256	27400	1066288	46837	109487	0	0	8175	541537	0	0
2024-09-13 21:44:47			0	38297	0	0	0	25649	24240	156180	27020	1066360	46836	109490	0	0	8175	541026	0	0
2024-09-13 21:45:47			0	38282	0	0	0	25651	24240	156164	26996	1066333	46826	109491	0	0	8174	541606	0	0
2024-09-13 21:46:47			0	38289	0	0	0	25649	24250	156148	26887	1066351	46848	109490	0	0	8175	541305	0	0
2024-09-13 21:47:47			0	38285	0	0	0	25644	24250	156156	26890	1066324	46827	109488	0	0	8175	541459	0	0
2024-09-13 21:48:47			0	38292	0	0	0	25662	24240	156140	27053	1066306	46814	109495	0	0	8175	541220	0	0
2024-09-13 21:49:47			0	38295	0	0	0	25672	24240	156152	26729	1066333	46847	109499	0	0	8175	541104	0	0
2024-09-13 21:50:47			0	38288	0	0	0	25659	24250	156196	27119	1066315	46848	109494	0	0	8175	541344	0	0
2024-09-13 21:51:47			0	38286	0	0	0	25649	24250	156256	26982	1066315	46827	109490	0	0	8175	541421	0	0
2024-09-13 21:52:47			0	38272	0	0	0	25633	24240	156244	27001	1066306	46826	109484	0	0	8174	541992	0	0
2024-09-13 21:53:47			0	38264	0	0	0	25628	24240	156264	26857	1066306	46836	109482	0	0	8174	542302	0	0
2024-09-13 21:54:47			0	38271	0	0	0	25633	24240	156348	27093	1066244	46825	109484	0	0	8174	542031	0	0
2024-09-13 21:55:47			0	38256	0	0	0	25638	24240	156284	26939	1066279	46836	109486	0	0	8173	542611	0	0
2024-09-13 21:56:47			0	38263	0	0	0	25644	24220	156372	27154	1066270	46834	109488	0	0	8173	542402	0	0
2024-09-13 21:57:47			0	38256	0	0	0	25641	24230	156396	26991	1066235	46835	109487	0	0	8173	542642	0	0
2024-09-13 21:58:47			0	38249	0	0	0	25633	24230	156240	26727	1066288	46825	109484	0	0	8173	542913	0	0
2024-09-13 21:59:47			0	38261	0	0	0	25644	24230	156324	27095	1066306	46834	109488	0	0	8173	542448	0	0
2024-09-13 22:00:47			0	38265	0	0	0	25633	24230	156324	27062	1066252	46824	109484	0	0	8174	542294	0	0
2024-09-13 22:01:47			0	38261	0	0	0	25628	24240	156332	27258	1066324	46835	109482	0	0	8174	542418	0	0
2024-09-13 22:02:47			0	38262	0	0	0	25618	24230	156296	26946	1066288	46825	109478	0	0	8174	542410	0	0
2024-09-13 22:03:47			0	38244	0	0	0	25623	24230	156360	27102	1066145	46834	109480	0	0	8173	543106	0	0
2024-09-13 22:04:47			0	38243	0	0	0	25623	24230	156364	26897	1066226	46834	109480	0	0	8172	543145	0	0
2024-09-13 22:05:47			0	38243	0	0	0	25633	24230	156364	27027	1066252	46824	109484	0	0	8172	543145	0	0
2024-09-13 22:06:47			0	38241	0	0	0	25628	24230	156316	27220	1066226	46834	109482	0	0	8172	543222	0	0
2024-09-13 22:07:47			0	38261	0	0	0	25636	24210	156304	27029	1066252	46833	109485	0	0	8173	542510	0	0
2024-09-13 22:08:47			0	38237	0	0	0	25636	24220	156332	27045	1066234	46833	109485	0	0	8172	543408	0	0
2024-09-13 22:09:47			0	38235	0	0	0	25631	24220	156420	26677	1066190	46824	109483	0	0	8172	543485	0	0
2024-09-13 22:10:47			0	38235	0	0	0	25636	24210	156412	26880	1066216	46843	109485	0	0	8172	543516	0	0
2024-09-13 22:11:47			0	38224	0	0	0	25631	24210	156416	26946	1066243	46833	109483	0	0	8171	543942	0	0
2024-09-13 22:12:47			0	38229	0	0	0	25636	24210	156476	26993	1066252	46822	109485	0	0	8171	543748	0	0
2024-09-13 22:13:47			0	38246	0	0	0	25641	24220	156336	27171	1066243	46834	109487	0	0	8172	543060	0	0
2024-09-13 22:14:47			0	38214	0	0	0	25638	24210	156372	26677	1066225	46822	109486	0	0	8170	544330	0	0
2024-09-13 22:15:47			0	38230	0	0	0	25631	24210	156380	26951	1066225	46833	109483	0	0	8172	543710	0	0
2024-09-13 22:16:47			0	38239	0	0	0	25618	24230	156380	26981	1066208	46835	109478	0	0	8172	543300	0	0
2024-09-13 22:17:47			0	38227	0	0	0	25615	24210	156524	26826	1066199	46833	109477	0	0	8172	543826	0	0
2024-09-13 22:18:47			0	38215	0	0	0	25586	24210	156468	26842	1066109	46833	109466	0	0	8171	544291	0	0
2024-09-13 22:19:47			0	38230	0	0	0	25579	24220	156424	26951	1066154	46811	109463	0	0	8172	543679	0	0
2024-09-13 22:20:47			0	38229	0	0	0	25597	24210	156460	26757	1066118	46833	109470	0	0	8172	543748	0	0
2024-09-13 22:21:47			0	38210	0	0	0	25597	24190	156472	26844	1066109	46820	109470	0	0	8171	544546	0	0
2024-09-13 22:22:47			0	38201	0	0	0	25615	24210	156508	26670	1066083	46833	109477	0	0	8170	544834	0	0
2024-09-13 22:23:47			0	38196	0	0	0	25625	24210	156536	26894	1066109	46822	109481	0	0	8170	545028	0	0
2024-09-13 22:24:47			0	38200	0	0	0	25612	24200	156520	26896	1066127	46822	109476	0	0	8170	544903	0	0
2024-09-13 22:25:47			0	38208	0	0	0	25586	24220	156604	26802	1066154	46833	109466	0	0	8171	544532	0	0
2024-09-13 22:26:47			0	38206	0	0	0	25584	24200	156504	26899	1065984	46821	109465	0	0	8171	544671	0	0
2024-09-13 22:27:47			0	38221	0	0	0	25584	24190	156556	27046	1066109	46831	109465	0	0	8172	544120	0	0
2024-09-13 22:28:47			0	38211	0	0	0	25584	24190	156560	27001	1066046	46820	109465	0	0	8171	544508	0	0
2024-09-13 22:29:47			0	38188	0	0	0	25599	24200	156652	27156	1066065	46821	109471	0	0	8170	545369	0	0
2024-09-13 22:30:47			0	38168	0	0	0	25607	24190	156664	27074	1066082	46841	109474	0	0	8168	546177	0	0
2024-09-13 22:31:47			0	38172	0	0	0	25599	24200	156704	27083	1066118	46832	109471	0	0	8169	545990	0	0
2024-09-13 22:32:47			0	38180	0	0	0	25586	24200	156672	26811	1066118	46832	109466	0	0	8169	545680	0	0
2024-09-13 22:33:47			0	38193	0	0	0	25602	24190	156808	26970	1066109	46820	109472	0	0	8170	545206	0	0
2024-09-13 22:34:47			0	38179	0	0	0	25607	24180	156772	27095	1066064	46820	109474	0	0	8169	545780	0	0
2024-09-13 22:35:47			0	38176	0	0	0	25615	24200	156732	26826	1066091	46832	109477	0	0	8169	545835	0	0
2024-09-13 22:36:47			0	38189	0	0	0	25607	24190	156740	26916	1066100	46841	109474	0	0	8169	545361	0	0
2024-09-13 22:37:47			0	38184	0	0	0	25589	24180	156680	27145	1066135	46830	109467	0	0	8169	545586	0	0
2024-09-13 22:38:47			0	38179	0	0	0	25584	24190	156652	27114	1066073	46831	109465	0	0	8169	545749	0	0
2024-09-13 22:39:47			0	38177	0	0	0	25586	24190	156780	27088	1066082	46831	109466	0	0	8169	545827	0	0
2024-09-13 22:40:47			0	38164	0	0	0	25586	24190	156756	27232	1066046	46820	109466	0	0	8168	546332	0	0
2024-09-13 22:41:47			0	38155	0	0	0	25579	24190	156768	26791	1066046	46820	109463	0	0	8168	546682	0	0
2024-09-13 22:42:47			0	38152	0	0	0	25586	24190	156748	27052	1065993	46808	109466	0	0	8168	546798	0	0
2024-09-13 22:43:47			0	38149	0	0	0	25592	24190	156736	27194	1066046	46831	109468	0	0	8167	546915	0	0
2024-09-13 22:44:47			0	38156	0	0	0	25581	24190	156852	26918	1066046	46820	109464	0	0	8168	546643	0	0
2024-09-13 22:45:47			0	38161	0	0	0	25573	24180	156792	27041	1065984	46820	109461	0	0	8168	546479	0	0
2024-09-13 22:46:47			0	38147	0	0	0	25584	24180	156832	27223	1066055	46830	109465	0	0	8167	547024	0	0
2024-09-13 22:47:47			0	38133	0	0	0	25573	24180	156832	26972	1066001	46830	109461	0	0	8167	547568	0	0
2024-09-13 22:48:47			0	38146	0	0	0	25576	24180	156920	26694	1065975	46830	109462	0	0	8167	547063	0	0
2024-09-13 22:49:47			0	38135	0	0	0	25576	24170	156896	27059	1065939	46818	109462	0	0	8167	547521	0	0
2024-09-13 22:50:47			0	38136	0	0	0	25563	24170	156888	27118	1065966	46829	109457	0	0	8167	547482	0	0
2024-09-13 22:51:47			0	38121	0	0	0	25566	24160	156844	27137	1066001	46828	109458	0	0	8166	548097	0	0
2024-09-13 22:52:47			0	38134	0	0	0	25584	24160	156860	27256	1065974	46817	109465	0	0	8167	547591	0	0
2024-09-13 22:53:47			0	38158	0	0	0	25586	24170	156920	27043	1065966	46829	109466	0	0	8168	546627	0	0
2024-09-13 22:54:47			0	38126	0	0	0	25568	24170	156820	27043	1065966	46829	109459	0	0	8166	547872	0	0
2024-09-13 22:55:47			0	38145	0	0	0	25563	24170	156792	27000	1065957	46818	109457	0	0	8168	547132	0	0
2024-09-13 22:56:47			0	38145	0	0	0	25568	24160	156888	27090	1065965	46817	109459	0	0	8167	547163	0	0
2024-09-13 22:57:47			0	38152	0	0	0	25553	24160	156808	27254	1065894	46817	109453	0	0	8168	546891	0	0
2024-09-13 22:58:47			0	38139	0	0	0	25555	24160	156892	27116	1065867	46817	109454	0	0	8167	547397	0	0
2024-09-13 22:59:47			0	38144	0	0	0	25558	24160	156880	27144	1065912	46828	109455	0	0	8168	547202	0	0
2024-09-13 23:00:47			0	38140	0	0	0	25550	24160	156896	27154	1065912	46817	109452	0	0	8167	547358	0	0
2024-09-13 23:01:47			0	38136	0	0	0	25550	24160	156852	26972	1065858	46817	109452	0	0	8167	547513	0	0
2024-09-13 23:02:47			0	38137	0	0	0	25548	24150	156844	26970	1065894	46793	109451	0	0	8167	547505	0	0
2024-09-13 23:03:47			0	38136	0	0	0	25537	24150	156844	26741	1065849	46827	109447	0	0	8167	547544	0	0
2024-09-13 23:04:47			0	38143	0	0	0	25542	24140	156840	26961	1065805	46815	109449	0	0	8168	547303	0	0
2024-09-13 23:05:47			0	38139	0	0	0	25529	24150	156764	26875	1065814	46816	109444	0	0	8168	547428	0	0
2024-09-13 23:06:47			0	38134	0	0	0	25535	24140	156900	27341	1065805	46826	109446	0	0	8167	547653	0	0
2024-09-13 23:07:47			0	38139	0	0	0	25529	24150	156828	27145	1065814	46804	109444	0	0	8168	547428	0	0
2024-09-13 23:08:47			0	38159	0	0	0	25548	24140	156876	27164	1065778	46815	109451	0	0	8168	546681	0	0
2024-09-13 23:09:47			0	38159	0	0	0	25548	24140	156768	26948	1065796	46826	109451	0	0	8168	546681	0	0
2024-09-13 23:10:47			0	38152	0	0	0	25527	24140	156820	27059	1065778	46815	109443	0	0	8168	546953	0	0
2024-09-13 23:11:47			0	38167	0	0	0	25532	24140	156668	27052	1065822	46815	109445	0	0	8169	546370	0	0
2024-09-13 23:12:47			0	38161	0	0	0	25529	24140	156768	27185	1065751	46826	109444	0	0	8169	546603	0	0
2024-09-13 23:13:47			0	38184	0	0	0	25527	24130	156688	26987	1065760	46814	109443	0	0	8170	545740	0	0
2024-09-13 23:14:47			0	38156	0	0	0	25535	24140	156764	27206	1065769	46815	109446	0	0	8169	546797	0	0
2024-09-13 23:15:47			0	38181	0	0	0	25537	24150	156584	26915	1065787	46827	109447	0	0	8170	545795	0	0
2024-09-13 23:16:47			0	38175	0	0	0	25535	24140	156748	27059	1065831	46836	109446	0	0	8170	546059	0	0
2024-09-13 23:17:47			0	38197	0	0	0	25542	24130	156724	26915	1065751	46813	109449	0	0	8171	545235	0	0
2024-09-13 23:18:47			0	38195	0	0	0	25524	24130	156652	26902	1065733	46814	109442	0	0	8171	545313	0	0
2024-09-13 23:19:47			0	38194	0	0	0	25529	24130	156628	26752	1065733	46825	109444	0	0	8171	545352	0	0
2024-09-13 23:20:47			0	38174	0	0	0	25519	24120	156588	26887	1065786	46824	109440	0	0	8170	546159	0	0
2024-09-13 23:21:47			0	38188	0	0	0	25550	24120	156704	27133	1065715	46824	109452	0	0	8170	545615	0	0
2024-09-13 23:22:47			0	38178	0	0	0	25542	24120	156728	27083	1065742	46801	109449	0	0	8170	546004	0	0
2024-09-13 23:23:47			0	38191	0	0	0	25550	24130	156752	27239	1065778	46813	109452	0	0	8170	545468	0	0
2024-09-13 23:24:47			0	38172	0	0	0	25524	24130	156704	27083	1065778	46834	109442	0	0	8170	546206	0	0
2024-09-13 23:25:47			0	38179	0	0	0	25522	24130	156736	27086	1065751	46824	109441	0	0	8170	545934	0	0
2024-09-13 23:26:47			0	38190	0	0	0	25529	24120	156832	27010	1065742	46813	109444	0	0	8171	545538	0	0
2024-09-13 23:27:47			0	38137	0	0	0	25535	24120	156800	27197	1065769	46813	109446	0	0	8167	547598	0	0
2024-09-13 23:28:47			0	38139	0	0	0	25545	24120	156808	27223	1065769	46813	109450	0	0	8167	547520	0	0
2024-09-13 23:29:47			0	38151	0	0	0	25532	24120	156756	27010	1065795	46813	109445	0	0	8168	547053	0	0
2024-09-13 23:30:47			0	38165	0	0	0	25537	24120	156832	27114	1065760	46824	109447	0	0	8169	546509	0	0
2024-09-13 23:31:47			0	38149	0	0	0	25550	24120	156756	27092	1065742	46834	109452	0	0	8168	547131	0	0
2024-09-13 23:32:47			0	38124	0	0	0	25563	24120	156836	27079	1065813	46834	109457	0	0	8166	548104	0	0
2024-09-13 23:33:47			0	38159	0	0	0	25563	24130	156768	27313	1065858	46824	109457	0	0	8168	546711	0	0
2024-09-13 23:34:47			0	38147	0	0	0	25568	24130	156832	26948	1065787	46835	109459	0	0	8167	547178	0	0
2024-09-13 23:35:47			0	38168	0	0	0	25563	24130	156828	26785	1065787	46825	109457	0	0	8169	546362	0	0
2024-09-13 23:36:47			0	38153	0	0	0	25542	24140	156748	27102	1065849	46826	109449	0	0	8168	546914	0	0
2024-09-13 23:37:47			0	38149	0	0	0	25522	24130	156796	26672	1065804	46813	109441	0	0	8168	547100	0	0
2024-09-13 23:38:47			0	38120	0	0	0	25506	24130	156872	26918	1065724	46801	109435	0	0	8167	548229	0	0
2024-09-13 23:39:47			0	38075	0	0	0	25514	24130	157076	27057	1065697	46813	109438	0	0	8164	549983	0	0
2024-09-13 23:40:47			0	38080	0	0	0	25522	24130	157092	27255	1065671	46801	109441	0	0	8164	549788	0	0
2024-09-13 23:41:47			0	38061	0	0	0	25516	24120	157128	27019	1065715	46801	109439	0	0	8163	550561	0	0
2024-09-13 23:42:47			0	38065	0	0	0	25522	24120	157092	27013	1065653	46801	109441	0	0	8163	550405	0	0
2024-09-13 23:43:47			0	38070	0	0	0	25519	24120	157204	26930	1065653	46801	109440	0	0	8164	550210	0	0
2024-09-13 23:44:47			0	38059	0	0	0	25516	24110	157120	26811	1065697	46823	109439	0	0	8163	550670	0	0
2024-09-13 23:45:47			0	38045	0	0	0	25509	24110	157124	27118	1065617	46823	109436	0	0	8162	551217	0	0
2024-09-13 23:46:47			0	38039	0	0	0	25488	24110	157292	27135	1065581	46811	109428	0	0	8162	551452	0	0
2024-09-13 23:47:47			0	38016	0	0	0	25483	24110	157379	26755	1065608	46799	109426	0	0	8161	552351	0	0
2024-09-13 23:48:47			0	37991	0	0	0	25498	24110	157403	26868	1065554	46822	109432	0	0	8159	553330	0	0
2024-09-13 23:49:47			0	38016	0	0	0	25496	24100	157367	26977	1065617	46810	109431	0	0	8161	552382	0	0
2024-09-13 23:50:47			0	38026	0	0	0	25501	24100	157388	27291	1065572	46799	109433	0	0	8161	551991	0	0
2024-09-13 23:51:47			0	37986	0	0	0	25464	24090	157435	27085	1065625	46797	109419	0	0	8160	553588	0	0
2024-09-13 23:52:47			0	37987	0	0	0	25485	24100	157495	27268	1065545	46822	109427	0	0	8159	553518	0	0
2024-09-13 23:53:47			0	37986	0	0	0	25498	24100	157463	27112	1065563	46810	109432	0	0	8159	553557	0	0
2024-09-13 23:54:47			0	37982	0	0	0	25480	24090	157427	26844	1065554	46810	109425	0	0	8159	553745	0	0
2024-09-13 23:55:47			0	37990	0	0	0	25459	24090	157495	27074	1065545	46797	109417	0	0	8160	553432	0	0
2024-09-13 23:56:47			0	37966	0	0	0	25470	24090	157471	27069	1065572	46820	109421	0	0	8158	554373	0	0
2024-09-13 23:57:47			0	37974	0	0	0	25470	24080	157579	27229	1065483	46809	109421	0	0	8159	554090	0	0
2024-09-13 23:58:47			0	37969	0	0	0	25485	24080	157627	26932	1065483	46820	109427	0	0	8158	554286	0	0
2024-09-13 23:59:47			0	37970	0	0	0	25470	24080	157563	26866	1065447	46807	109421	0	0	8159	554247	0	0
2024-09-14 00:00:47			0	38000	0	0	0	25480	24080	157515	26814	1065483	46809	109425	0	0	8160	553071	0	0
2024-09-14 00:01:47			0	38003	0	0	0	25467	24080	157547	27033	1065447	46807	109420	0	0	8161	552954	0	0
2024-09-14 00:02:47			0	37975	0	0	0	25464	24080	157539	27429	1065483	46820	109419	0	0	8159	554051	0	0
2024-09-14 00:03:47			0	37983	0	0	0	25457	24080	157687	27296	1065474	46807	109416	0	0	8160	553737	0	0
2024-09-14 00:04:47			0	37944	0	0	0	25405	24070	157695	27168	1065429	46806	109396	0	0	8158	555299	0	0
2024-09-14 00:05:47			0	37933	0	0	0	25433	24070	157739	27286	1065438	46819	109407	0	0	8157	555731	0	0
2024-09-14 00:06:47			0	37905	0	0	0	25371	24070	157747	27126	1065331	46807	109383	0	0	8156	556831	0	0
2024-09-14 00:07:47			0	37890	0	0	0	25371	24050	157975	27260	1065259	46793	109383	0	0	8155	557484	0	0
2024-09-14 00:08:47			0	37836	0	0	0	25363	24040	158075	27291	1065196	46793	109380	0	0	8152	559645	0	0
2024-09-14 00:09:47			0	37831	0	0	0	25405	24040	158219	27111	1065250	46783	109396	0	0	8151	559842	0	0
2024-09-14 00:10:47			0	37833	0	0	0	25386	24040	158271	27038	1065250	46793	109389	0	0	8152	559763	0	0
2024-09-14 00:11:47			0	37825	0	0	0	25358	24020	158247	27199	1065160	46813	109378	0	0	8152	560142	0	0
2024-09-14 00:12:47			0	37780	0	0	0	25293	24020	158287	27076	1065080	46780	109353	0	0	8150	561921	0	0
2024-09-14 00:13:47			0	37739	0	0	0	25306	24000	158495	27081	1064973	46779	109358	0	0	8147	563608	0	0
2024-09-14 00:14:47			0	37694	0	0	0	25277	23990	158667	27079	1064875	46778	109347	0	0	8145	565426	0	0
2024-09-14 00:15:47			0	37682	0	0	0	25311	23980	158715	27189	1064874	46765	109360	0	0	8144	565935	0	0
2024-09-14 00:16:47			0	37637	0	0	0	25236	23970	158955	27300	1064749	46775	109331	0	0	8143	567757	0	0
2024-09-14 00:17:47			0	37593	0	0	0	25259	23960	159131	27138	1064714	46762	109340	0	0	8140	569544	0	0
2024-09-14 00:18:47			0	37584	0	0	0	25270	23940	159179	27041	1064651	46760	109344	0	0	8139	569968	0	0
2024-09-14 00:19:47			0	37580	0	0	0	25220	23940	159179	27211	1064588	46772	109325	0	0	8139	570127	0	0
2024-09-14 00:20:47			0	37555	0	0	0	25220	23930	159403	27048	1064472	46759	109325	0	0	8138	571159	0	0
2024-09-14 00:21:47			0	37526	0	0	0	25210	23920	159531	27144	1064418	46757	109321	0	0	8136	572352	0	0
2024-09-14 00:22:47			0	37476	0	0	0	25155	23910	159603	27275	1064400	46747	109300	0	0	8134	574389	0	0
2024-09-14 00:23:47			0	37451	0	0	0	25150	23880	159815	27062	1064275	46754	109298	0	0	8133	575490	0	0
2024-09-14 00:24:47			0	37399	0	0	0	25124	23880	159867	27027	1064159	46743	109288	0	0	8130	577583	0	0
2024-09-14 00:25:47			0	37364	0	0	0	25129	23840	160159	27357	1064007	46728	109290	0	0	8128	579125	0	0
2024-09-14 00:26:47			0	37367	0	0	0	25186	23830	160227	27310	1064052	46760	109312	0	0	8127	579036	0	0
2024-09-14 00:27:47			0	37383	0	0	0	25155	23830	160167	27149	1064069	46782	109300	0	0	8128	578391	0	0
2024-09-14 00:28:47			0	37380	0	0	0	25192	23820	160191	27391	1064105	46759	109314	0	0	8127	578544	0	0
2024-09-14 00:29:47			0	37385	0	0	0	25181	23820	160243	27098	1064114	46782	109310	0	0	8128	578342	0	0
2024-09-14 00:30:47			0	37390	0	0	0	25173	23810	160227	26972	1064060	46780	109307	0	0	8128	578173	0	0
2024-09-14 00:31:47			0	37378	0	0	0	25166	23810	160323	26850	1063935	46780	109304	0	0	8128	578657	0	0
2024-09-14 00:32:47			0	37356	0	0	0	25181	23810	160375	27403	1064033	46769	109310	0	0	8126	579545	0	0
2024-09-14 00:33:47			0	37367	0	0	0	25184	23800	160295	27334	1063988	46768	109311	0	0	8127	579134	0	0
2024-09-14 00:34:47			0	37381	0	0	0	25194	23800	160167	27254	1064069	46779	109315	0	0	8127	578569	0	0
2024-09-14 00:35:47			0	37405	0	0	0	25210	23790	160187	27331	1063979	46778	109321	0	0	8128	577634	0	0
2024-09-14 00:36:47			0	37413	0	0	0	25197	23800	160167	27287	1064078	46780	109316	0	0	8129	577279	0	0
2024-09-14 00:37:47			0	37370	0	0	0	25171	23800	160247	27119	1064024	46780	109306	0	0	8127	579013	0	0
2024-09-14 00:38:47			0	37342	0	0	0	25114	23790	160327	27235	1063953	46767	109284	0	0	8126	580176	0	0
2024-09-14 00:39:47			0	37376	0	0	0	25184	23780	160267	27159	1063952	46766	109311	0	0	8127	578836	0	0
2024-09-14 00:40:47			0	37396	0	0	0	25186	23780	160239	27334	1063961	46777	109312	0	0	8128	578029	0	0
2024-09-14 00:41:47			0	37372	0	0	0	25184	23780	160303	27251	1063988	46777	109311	0	0	8127	578997	0	0
2024-09-14 00:42:47			0	37400	0	0	0	25176	23780	160171	27213	1063952	46766	109308	0	0	8129	577868	0	0
2024-09-14 00:43:47			0	37388	0	0	0	25166	23780	160339	27267	1063988	46777	109304	0	0	8128	578352	0	0
2024-09-14 00:44:47			0	37390	0	0	0	25194	23780	160247	27033	1063988	46777	109315	0	0	8128	578271	0	0
2024-09-14 00:45:47			0	37413	0	0	0	25223	23780	160167	27053	1063979	46799	109326	0	0	8129	577344	0	0
2024-09-14 00:46:47			0	37429	0	0	0	25228	23780	160063	26785	1064068	46788	109328	0	0	8130	576700	0	0
2024-09-14 00:47:47			0	37461	0	0	0	25220	23790	159979	26991	1064104	46788	109325	0	0	8132	575380	0	0
2024-09-14 00:48:47			0	37469	0	0	0	25218	23800	159991	27232	1064095	46790	109324	0	0	8132	575026	0	0
2024-09-14 00:49:47			0	37468	0	0	0	25215	23790	159999	27171	1064140	46800	109323	0	0	8132	575099	0	0
2024-09-14 00:50:47			0	37455	0	0	0	25189	23790	159971	27078	1064077	46777	109313	0	0	8132	575621	0	0
2024-09-14 00:51:47			0	37452	0	0	0	25181	23790	160055	27074	1064024	46777	109310	0	0	8132	575742	0	0
2024-09-14 00:52:47			0	37415	0	0	0	25163	23780	160099	27135	1063988	46766	109303	0	0	8130	577263	0	0
2024-09-14 00:53:47			0	37435	0	0	0	25166	23790	160135	27013	1064051	46766	109304	0	0	8131	576426	0	0
2024-09-14 00:54:47			0	37443	0	0	0	25181	23790	159991	26880	1064024	46777	109310	0	0	8131	576104	0	0
2024-09-14 00:55:47			0	37445	0	0	0	25176	23780	160011	26691	1063961	46777	109308	0	0	8131	576056	0	0
2024-09-14 00:56:47			0	37475	0	0	0	25218	23790	160031	26703	1064006	46778	109324	0	0	8132	574817	0	0
2024-09-14 00:57:47			0	37474	0	0	0	25202	23790	159959	26932	1064051	46777	109318	0	0	8133	574858	0	0
2024-09-14 00:58:47			0	37469	0	0	0	25199	23780	159943	27223	1064015	46799	109317	0	0	8132	575091	0	0
2024-09-14 00:59:47			0	37468	0	0	0	25199	23780	159959	26779	1064068	46788	109317	0	0	8132	575131	0	0
2024-09-14 01:00:47			0	37474	0	0	0	25210	23790	159975	27026	1064033	46789	109321	0	0	8133	574858	0	0
2024-09-14 01:01:47			0	37485	0	0	0	25205	23790	160003	27166	1064006	46789	109319	0	0	8133	574416	0	0
2024-09-14 01:02:47			0	37482	0	0	0	25199	23790	159883	26946	1064060	46789	109317	0	0	8133	574536	0	0
2024-09-14 01:03:47			0	37504	0	0	0	25168	23790	159979	26998	1064033	46778	109305	0	0	8135	573653	0	0
2024-09-14 01:04:47			0	37473	0	0	0	25179	23790	159967	27105	1063970	46777	109309	0	0	8133	574898	0	0
2024-09-14 01:05:47			0	37463	0	0	0	25171	23790	160015	27078	1063997	46766	109306	0	0	8133	575299	0	0
2024-09-14 01:06:47			0	37444	0	0	0	25168	23780	160067	27170	1063908	46777	109305	0	0	8131	576096	0	0
2024-09-14 01:07:47			0	37452	0	0	0	25179	23770	160015	26658	1063970	46753	109309	0	0	8132	575807	0	0
2024-09-14 01:08:47			0	37467	0	0	0	25161	23770	159975	26741	1063997	46776	109302	0	0	8133	575204	0	0
2024-09-14 01:09:47			0	37430	0	0	0	25155	23770	160091	26876	1063917	46765	109300	0	0	8131	576692	0	0
2024-09-14 01:10:47			0	37432	0	0	0	25173	23780	160111	26970	1063899	46766	109307	0	0	8131	576579	0	0
2024-09-14 01:11:47			0	37436	0	0	0	25142	23760	160091	27060	1063872	46764	109295	0	0	8131	576483	0	0
2024-09-14 01:12:47			0	37431	0	0	0	25145	23760	160103	27069	1063845	46764	109296	0	0	8131	576684	0	0
2024-09-14 01:13:47			0	37446	0	0	0	25166	23760	160071	27176	1063899	46764	109304	0	0	8132	576080	0	0
2024-09-14 01:14:47			0	37481	0	0	0	25192	23760	159971	27012	1063925	46786	109314	0	0	8133	574673	0	0
2024-09-14 01:15:47			0	37481	0	0	0	25189	23760	159895	27145	1063925	46786	109313	0	0	8133	574673	0	0
2024-09-14 01:16:47			0	37469	0	0	0	25173	23770	159935	27168	1063854	46764	109307	0	0	8133	575123	0	0
2024-09-14 01:17:47			0	37483	0	0	0	25186	23780	159967	27071	1063899	46777	109312	0	0	8133	574528	0	0
2024-09-14 01:18:47			0	37495	0	0	0	25215	23760	159919	27020	1063899	46775	109323	0	0	8134	574111	0	0
2024-09-14 01:19:47			0	37519	0	0	0	25233	23770	159779	27277	1063997	46787	109330	0	0	8135	573116	0	0
2024-09-14 01:20:47			0	37537	0	0	0	25238	23780	159735	27303	1064059	46788	109332	0	0	8136	572362	0	0
2024-09-14 01:21:47			0	37570	0	0	0	25259	23790	159579	27234	1064077	46799	109340	0	0	8137	571009	0	0
2024-09-14 01:22:47			0	37581	0	0	0	25231	23780	159507	27396	1064095	46799	109329	0	0	8138	570601	0	0
2024-09-14 01:23:47			0	37585	0	0	0	25231	23790	159371	27204	1064086	46789	109329	0	0	8139	570410	0	0
2024-09-14 01:24:47			0	37606	0	0	0	25218	23790	159403	27239	1064113	46789	109324	0	0	8140	569571	0	0
2024-09-14 01:25:47			0	37580	0	0	0	25218	23790	159411	27204	1064006	46767	109324	0	0	8139	570609	0	0
2024-09-14 01:26:47			0	37595	0	0	0	25186	23800	159459	26927	1064104	46791	109312	0	0	8140	569978	0	0
2024-09-14 01:27:47			0	37582	0	0	0	25186	23800	159475	27149	1064051	46747	109312	0	0	8139	570497	0	0
2024-09-14 01:28:47			0	37553	0	0	0	25173	23790	159639	27031	1063997	46766	109307	0	0	8138	571689	0	0
2024-09-14 01:29:47			0	37551	0	0	0	25186	23790	159627	27083	1063970	46766	109312	0	0	8137	571770	0	0
2024-09-14 01:30:47			0	37534	0	0	0	25181	23790	159599	27189	1063953	46778	109310	0	0	8137	572450	0	0
2024-09-14 01:31:47			0	37531	0	0	0	25189	23790	159611	27223	1063997	46766	109313	0	0	8136	572571	0	0
2024-09-14 01:32:47			0	37543	0	0	0	25192	23790	159619	27201	1063979	46778	109314	0	0	8137	572090	0	0
2024-09-14 01:33:47			0	37544	0	0	0	25171	23780	159715	27287	1063961	46766	109306	0	0	8137	572082	0	0
2024-09-14 01:34:47			0	37547	0	0	0	25184	23780	159611	27301	1063988	46788	109311	0	0	8137	571962	0	0
2024-09-14 01:35:47			0	37520	0	0	0	25184	23780	159711	27208	1063935	46777	109311	0	0	8136	573044	0	0
2024-09-14 01:36:47			0	37542	0	0	0	25194	23780	159751	26847	1064033	46777	109315	0	0	8137	572162	0	0
2024-09-14 01:37:47			0	37516	0	0	0	25171	23780	159703	27320	1064015	46777	109306	0	0	8136	573204	0	0
2024-09-14 01:38:47			0	37521	0	0	0	25181	23780	159779	27270	1064006	46777	109310	0	0	8136	573004	0	0
2024-09-14 01:39:47			0	37511	0	0	0	25199	23780	159763	26956	1063961	46766	109317	0	0	8135	573405	0	0
2024-09-14 01:40:47			0	37537	0	0	0	25199	23790	159715	27213	1063944	46777	109317	0	0	8136	572330	0	0
2024-09-14 01:41:47			0	37529	0	0	0	25210	23780	159707	27242	1064006	46777	109321	0	0	8136	572683	0	0
2024-09-14 01:42:47			0	37521	0	0	0	25215	23790	159687	27215	1064104	46777	109323	0	0	8135	572971	0	0
2024-09-14 01:43:47			0	37538	0	0	0	25215	23780	159747	26965	1064068	46788	109323	0	0	8136	572322	0	0
2024-09-14 01:44:47			0	37520	0	0	0	25212	23790	159579	27074	1064131	46766	109322	0	0	8135	573011	0	0
2024-09-14 01:45:47			0	37543	0	0	0	25238	23790	159615	26864	1064024	46799	109332	0	0	8136	572090	0	0
2024-09-14 01:46:47			0	37534	0	0	0	25225	23790	159615	27241	1064113	46789	109327	0	0	8136	572450	0	0
2024-09-14 01:47:47			0	37526	0	0	0	25205	23800	159679	26850	1064122	46779	109319	0	0	8136	572739	0	0
2024-09-14 01:48:47			0	37524	0	0	0	25197	23800	159639	27182	1064069	46779	109316	0	0	8136	572819	0	0
2024-09-14 01:49:47			0	37533	0	0	0	25220	23800	159751	27253	1064069	46779	109325	0	0	8136	572458	0	0
2024-09-14 01:50:47			0	37558	0	0	0	25241	23790	159703	27341	1064140	46789	109333	0	0	8137	571489	0	0
2024-09-14 01:51:47			0	37561	0	0	0	25225	23800	159503	27268	1064158	46780	109327	0	0	8137	571337	0	0
2024-09-14 01:52:47			0	37550	0	0	0	25179	23810	159611	27319	1064113	46791	109309	0	0	8138	571745	0	0
2024-09-14 01:53:47			0	37535	0	0	0	25181	23800	159675	27253	1064104	46780	109310	0	0	8137	572378	0	0
2024-09-14 01:54:47			0	37519	0	0	0	25189	23800	159779	27123	1064042	46779	109313	0	0	8136	573019	0	0
2024-09-14 01:55:47			0	37507	0	0	0	25161	23800	159887	27218	1064078	46780	109302	0	0	8135	573500	0	0
2024-09-14 01:56:47			0	37471	0	0	0	25155	23790	159855	27095	1064006	46767	109300	0	0	8133	574978	0	0
2024-09-14 01:57:47			0	37471	0	0	0	25148	23780	159987	26842	1063935	46744	109297	0	0	8133	575010	0	0
2024-09-14 01:58:47			0	37457	0	0	0	25140	23780	160003	26972	1063872	46766	109294	0	0	8133	575573	0	0
2024-09-14 01:59:47			0	37450	0	0	0	25155	23770	160067	27033	1063917	46753	109300	0	0	8132	575887	0	0
2024-09-14 02:00:47			0	37451	0	0	0	25179	23760	160143	27173	1063872	46764	109309	0	0	8132	575879	0	0
2024-09-14 02:01:47			0	37452	0	0	0	25197	23770	160075	27256	1063908	46764	109316	0	0	8131	575807	0	0
2024-09-14 02:02:47			0	37482	0	0	0	25207	23760	160055	27001	1063979	46775	109320	0	0	8133	574633	0	0
2024-09-14 02:03:47			0	37477	0	0	0	25205	23770	159995	27057	1064024	46798	109319	0	0	8133	574802	0	0
2024-09-14 02:04:47			0	37472	0	0	0	25207	23780	159947	27131	1063979	46788	109320	0	0	8132	574970	0	0
2024-09-14 02:05:47			0	37483	0	0	0	25184	23780	159911	27071	1063961	46788	109311	0	0	8133	574528	0	0
2024-09-14 02:06:47			0	37493	0	0	0	25223	23780	159959	27102	1063988	46777	109326	0	0	8133	574127	0	0
2024-09-14 02:07:47			0	37495	0	0	0	25223	23790	159903	27372	1064051	46766	109326	0	0	8134	574014	0	0
2024-09-14 02:08:47			0	37515	0	0	0	25241	23790	159755	27116	1064140	46778	109333	0	0	8134	573212	0	0
2024-09-14 02:09:47			0	37544	0	0	0	25225	23790	159695	26975	1064140	46778	109327	0	0	8136	572050	0	0
2024-09-14 02:10:47			0	37542	0	0	0	25246	23800	159655	27177	1064095	46790	109335	0	0	8136	572098	0	0
2024-09-14 02:11:47			0	37566	0	0	0	25249	23800	159699	27024	1064122	46779	109336	0	0	8137	571137	0	0
2024-09-14 02:12:47			0	37551	0	0	0	25231	23810	159571	27213	1064167	46780	109329	0	0	8137	571705	0	0
2024-09-14 02:13:47			0	37578	0	0	0	25231	23810	159551	26896	1064203	46780	109329	0	0	8138	570625	0	0
2024-09-14 02:14:47			0	37543	0	0	0	25223	23810	159583	27267	1064194	46780	109326	0	0	8136	572025	0	0
2024-09-14 02:15:47			0	37562	0	0	0	25228	23810	159663	26953	1064176	46780	109328	0	0	8138	571265	0	0
2024-09-14 02:16:47			0	37574	0	0	0	25215	23800	159575	26911	1064158	46769	109323	0	0	8138	570817	0	0
2024-09-14 02:17:47			0	37560	0	0	0	25199	23810	159539	26805	1064140	46769	109317	0	0	8138	571345	0	0
2024-09-14 02:18:47			0	37540	0	0	0	25189	23810	159695	26970	1064087	46769	109313	0	0	8137	572145	0	0
2024-09-14 02:19:47			0	37543	0	0	0	25225	23810	159715	26951	1064096	46780	109327	0	0	8136	572025	0	0
2024-09-14 02:20:47			0	37544	0	0	0	25215	23810	159639	27294	1064122	46758	109323	0	0	8137	571985	0	0
2024-09-14 02:21:47			0	37556	0	0	0	25210	23810	159575	26972	1064140	46769	109321	0	0	8137	571505	0	0
2024-09-14 02:22:47			0	37542	0	0	0	25197	23800	159563	26821	1064078	46769	109316	0	0	8137	572098	0	0
2024-09-14 02:23:47			0	37532	0	0	0	25212	23800	159635	27083	1064069	46768	109322	0	0	8136	572498	0	0
2024-09-14 02:24:47			0	37562	0	0	0	25207	23800	159671	26750	1064104	46769	109320	0	0	8138	571297	0	0
2024-09-14 02:25:47			0	37549	0	0	0	25202	23790	159759	27180	1064033	46767	109318	0	0	8137	571850	0	0
2024-09-14 02:26:47			0	37529	0	0	0	25218	23790	159639	27203	1064113	46778	109324	0	0	8136	572651	0	0
2024-09-14 02:27:47			0	37543	0	0	0	25228	23790	159655	27175	1064086	46778	109328	0	0	8136	572090	0	0
2024-09-14 02:28:47			0	37564	0	0	0	25225	23800	159619	27000	1064104	46791	109327	0	0	8138	571217	0	0
2024-09-14 02:29:47			0	37543	0	0	0	25225	23800	159755	26899	1064095	46768	109327	0	0	8136	572058	0	0
2024-09-14 02:30:47			0	37543	0	0	0	25218	23810	159671	27137	1064140	46780	109324	0	0	8137	572025	0	0
2024-09-14 02:31:47			0	37527	0	0	0	25207	23800	159735	27076	1064069	46779	109320	0	0	8136	572699	0	0
2024-09-14 02:32:47			0	37541	0	0	0	25173	23790	159715	26871	1064060	46767	109307	0	0	8137	572170	0	0
2024-09-14 02:33:47			0	37537	0	0	0	25186	23810	159667	26935	1064060	46769	109312	0	0	8137	572266	0	0
2024-09-14 02:34:47			0	37517	0	0	0	25199	23800	159887	26882	1064051	46780	109317	0	0	8135	573100	0	0
2024-09-14 02:35:47			0	37522	0	0	0	25207	23800	159891	27072	1063988	46779	109320	0	0	8135	572899	0	0
2024-09-14 02:36:47			0	37508	0	0	0	25210	23790	159847	26968	1064033	46767	109321	0	0	8135	573493	0	0
2024-09-14 02:37:47			0	37532	0	0	0	25194	23800	159731	26939	1064042	46757	109315	0	0	8136	572498	0	0
2024-09-14 02:38:47			0	37543	0	0	0	25199	23800	159715	27053	1064069	46779	109317	0	0	8137	572058	0	0
2024-09-14 02:39:47			0	37530	0	0	0	25223	23800	159783	27286	1064095	46757	109326	0	0	8136	572578	0	0
2024-09-14 02:40:47			0	37546	0	0	0	25225	23800	159775	26894	1064069	46757	109327	0	0	8137	571937	0	0
2024-09-14 02:41:47			0	37546	0	0	0	25197	23800	159775	27062	1064104	46769	109316	0	0	8137	571937	0	0
2024-09-14 02:42:47			0	37538	0	0	0	25231	23790	159779	27133	1064086	46778	109329	0	0	8136	572290	0	0
2024-09-14 02:43:47			0	37543	0	0	0	25233	23790	159703	26970	1064140	46778	109330	0	0	8136	572090	0	0
2024-09-14 02:44:47			0	37561	0	0	0	25215	23800	159731	27147	1064104	46780	109323	0	0	8138	571337	0	0
2024-09-14 02:45:47			0	37543	0	0	0	25184	23800	159831	27334	1064158	46780	109311	0	0	8137	572058	0	0
2024-09-14 02:46:47			0	37537	0	0	0	25223	23800	159767	27360	1064131	46780	109326	0	0	8136	572298	0	0
2024-09-14 02:47:47			0	37569	0	0	0	25231	23800	159755	27322	1064185	46769	109329	0	0	8138	571017	0	0
2024-09-14 02:48:47			0	37564	0	0	0	25231	23810	159635	27215	1064149	46769	109329	0	0	8138	571185	0	0
2024-09-14 02:49:47			0	37582	0	0	0	25228	23810	159727	27249	1064140	46780	109328	0	0	8139	570465	0	0
2024-09-14 02:50:47			0	37571	0	0	0	25231	23800	159667	27119	1064158	46791	109329	0	0	8138	570937	0	0
2024-09-14 02:51:47			0	37585	0	0	0	25228	23810	159639	26779	1064167	46769	109328	0	0	8139	570345	0	0
2024-09-14 02:52:47			0	37569	0	0	0	25225	23810	159695	27222	1064149	46780	109327	0	0	8138	570985	0	0
2024-09-14 02:53:47			0	37548	0	0	0	25215	23810	159691	26960	1064167	46780	109323	0	0	8137	571825	0	0
2024-09-14 02:54:47			0	37539	0	0	0	25228	23800	159695	27249	1064158	46769	109328	0	0	8136	572218	0	0
2024-09-14 02:55:47			0	37543	0	0	0	25236	23810	159719	27144	1064194	46780	109331	0	0	8136	572025	0	0
2024-09-14 02:56:47			0	37567	0	0	0	25241	23820	159715	27034	1064185	46781	109333	0	0	8138	571033	0	0
2024-09-14 02:57:47			0	37547	0	0	0	25223	23810	159671	27066	1064149	46780	109326	0	0	8137	571865	0	0
2024-09-14 02:58:47			0	37537	0	0	0	25220	23810	159759	27222	1064096	46769	109325	0	0	8136	572266	0	0
2024-09-14 02:59:47			0	37503	0	0	0	25202	23810	159831	26972	1064140	46780	109318	0	0	8134	573629	0	0
2024-09-14 03:00:47			0	37491	0	0	0	25197	23810	159971	27144	1064122	46758	109316	0	0	8134	574110	0	0
2024-09-14 03:01:47			0	37502	0	0	0	25186	23810	159939	26955	1064087	46769	109312	0	0	8135	573669	0	0
2024-09-14 03:02:47			0	37474	0	0	0	25192	23800	159967	27170	1064131	46747	109314	0	0	8133	574825	0	0
2024-09-14 03:03:47			0	37462	0	0	0	25181	23800	160143	26955	1064024	46780	109310	0	0	8132	575307	0	0
2024-09-14 03:04:47			0	37448	0	0	0	25173	23800	160019	27277	1064078	46758	109307	0	0	8132	575870	0	0
2024-09-14 03:05:47			0	37435	0	0	0	25194	23800	160183	27183	1064015	46779	109315	0	0	8131	576393	0	0
2024-09-14 03:06:47			0	37454	0	0	0	25212	23800	160155	27374	1064069	46768	109322	0	0	8131	575629	0	0
2024-09-14 03:07:47			0	37457	0	0	0	25218	23800	160143	26861	1064042	46790	109324	0	0	8131	575508	0	0
2024-09-14 03:08:47			0	37461	0	0	0	25215	23780	160107	27085	1064042	46766	109323	0	0	8132	575412	0	0
2024-09-14 03:09:47			0	37469	0	0	0	25228	23800	160043	27097	1064104	46780	109328	0	0	8132	575026	0	0
2024-09-14 03:10:47			0	37488	0	0	0	25220	23800	160023	27300	1064095	46779	109325	0	0	8133	574263	0	0
2024-09-14 03:11:47			0	37489	0	0	0	25236	23800	159967	27111	1064185	46791	109331	0	0	8133	574223	0	0
2024-09-14 03:12:47			0	37452	0	0	0	25215	23800	159971	27336	1064158	46780	109323	0	0	8131	575709	0	0
2024-09-14 03:13:47			0	37460	0	0	0	25236	23810	160163	26937	1064194	46780	109331	0	0	8131	575355	0	0
2024-09-14 03:14:47			0	37452	0	0	0	25241	23800	160011	27102	1064149	46779	109333	0	0	8131	575709	0	0
2024-09-14 03:15:47			0	37463	0	0	0	25259	23810	160115	27081	1064229	46769	109340	0	0	8131	575235	0	0
2024-09-14 03:16:47			0	37481	0	0	0	25267	23810	159895	27202	1064229	46780	109343	0	0	8132	574512	0	0
2024-09-14 03:17:47			0	37509	0	0	0	25314	23820	159855	26731	1064319	46781	109361	0	0	8133	573356	0	0
2024-09-14 03:18:47			0	37552	0	0	0	25303	23830	159739	26939	1064373	46782	109357	0	0	8136	571601	0	0
2024-09-14 03:19:47			0	37563	0	0	0	25288	23840	159659	27046	1064382	46805	109351	0	0	8137	571128	0	0
2024-09-14 03:20:47			0	37556	0	0	0	25306	23840	159655	27201	1064471	46806	109358	0	0	8136	571408	0	0
2024-09-14 03:21:47			0	37577	0	0	0	25327	23860	159571	27305	1064480	46797	109366	0	0	8137	570504	0	0
2024-09-14 03:22:47			0	37599	0	0	0	25348	23860	159463	27227	1064525	46807	109374	0	0	8138	569625	0	0
2024-09-14 03:23:47			0	37614	0	0	0	25329	23870	159443	27114	1064569	46809	109367	0	0	8139	568995	0	0
2024-09-14 03:24:47			0	37627	0	0	0	25327	23880	159303	26897	1064560	46787	109366	0	0	8140	568444	0	0
2024-09-14 03:25:47			0	37619	0	0	0	25314	23880	159387	27178	1064569	46810	109361	0	0	8140	568763	0	0
2024-09-14 03:26:47			0	37621	0	0	0	25337	23870	159395	27045	1064596	46787	109370	0	0	8139	568715	0	0
2024-09-14 03:27:47			0	37646	0	0	0	25340	23880	159239	27386	1064596	46798	109371	0	0	8141	567687	0	0
2024-09-14 03:28:47			0	37639	0	0	0	25319	23880	159291	27041	1064623	46777	109363	0	0	8141	567966	0	0
2024-09-14 03:29:47			0	37637	0	0	0	25306	23870	159355	27095	1064578	46776	109358	0	0	8141	568077	0	0
2024-09-14 03:30:47			0	37614	0	0	0	25288	23890	159359	27251	1064605	46778	109351	0	0	8140	568931	0	0
2024-09-14 03:31:47			0	37605	0	0	0	25306	23900	159439	26911	1064623	46789	109358	0	0	8139	569258	0	0
2024-09-14 03:32:47			0	37620	0	0	0	25319	23890	159411	27303	1064561	46778	109363	0	0	8140	568691	0	0
2024-09-14 03:33:47			0	37614	0	0	0	25337	23900	159351	27241	1064623	46789	109370	0	0	8139	568899	0	0
2024-09-14 03:34:47			0	37650	0	0	0	25319	23890	159255	27300	1064587	46799	109363	0	0	8142	567495	0	0
2024-09-14 03:35:47			0	37623	0	0	0	25335	23900	159263	27197	1064659	46790	109369	0	0	8140	568539	0	0
2024-09-14 03:36:47			0	37624	0	0	0	25329	23900	159315	27149	1064659	46801	109367	0	0	8140	568500	0	0
2024-09-14 03:37:47			0	37623	0	0	0	25306	23900	159207	27395	1064712	46790	109358	0	0	8140	568539	0	0
2024-09-14 03:38:47			0	37603	0	0	0	25309	23910	159319	27357	1064677	46791	109359	0	0	8139	569305	0	0
2024-09-14 03:39:47			0	37605	0	0	0	25316	23910	159383	27329	1064704	46791	109362	0	0	8139	569225	0	0
2024-09-14 03:40:47			0	37606	0	0	0	25319	23910	159339	27092	1064695	46780	109363	0	0	8139	569186	0	0
2024-09-14 03:41:47			0	37618	0	0	0	25319	23910	159419	27232	1064677	46802	109363	0	0	8140	568707	0	0
2024-09-14 03:42:47			0	37609	0	0	0	25309	23910	159331	27010	1064614	46791	109359	0	0	8139	569066	0	0
2024-09-14 03:43:47			0	37625	0	0	0	25327	23910	159379	27001	1064721	46791	109366	0	0	8140	568428	0	0
2024-09-14 03:44:47			0	37582	0	0	0	25322	23900	159495	27201	1064712	46790	109364	0	0	8138	570176	0	0
2024-09-14 03:45:47			0	37602	0	0	0	25306	23910	159375	27308	1064704	46802	109358	0	0	8139	569345	0	0
2024-09-14 03:46:47			0	37605	0	0	0	25327	23900	159359	26802	1064659	46790	109366	0	0	8139	569258	0	0
2024-09-14 03:47:47			0	37608	0	0	0	25324	23910	159363	26948	1064668	46802	109365	0	0	8139	569106	0	0
2024-09-14 03:48:47			0	37609	0	0	0	25327	23910	159335	27196	1064668	46791	109366	0	0	8139	569066	0	0
2024-09-14 03:49:47			0	37615	0	0	0	25311	23910	159383	27220	1064677	46780	109360	0	0	8140	568826	0	0
2024-09-14 03:50:47			0	37602	0	0	0	25301	23910	159435	27111	1064614	46780	109356	0	0	8139	569345	0	0
2024-09-14 03:51:47			0	37585	0	0	0	25303	23900	159391	27196	1064650	46789	109357	0	0	8138	570056	0	0
2024-09-14 03:52:47			0	37565	0	0	0	25303	23910	159475	27242	1064614	46780	109357	0	0	8137	570823	0	0
2024-09-14 03:53:47			0	37578	0	0	0	25298	23910	159511	27064	1064695	46780	109355	0	0	8138	570304	0	0
2024-09-14 03:54:47			0	37582	0	0	0	25290	23900	159515	27086	1064596	46789	109352	0	0	8138	570176	0	0
2024-09-14 03:55:47			0	37574	0	0	0	25293	23900	159391	27364	1064623	46789	109353	0	0	8138	570496	0	0
2024-09-14 03:56:47			0	37570	0	0	0	25283	23900	159523	27391	1064605	46779	109349	0	0	8137	570656	0	0
2024-09-14 03:57:47			0	37568	0	0	0	25293	23890	159543	27124	1064507	46778	109353	0	0	8137	570768	0	0
2024-09-14 03:58:47			0	37579	0	0	0	25288	23890	159647	27066	1064534	46778	109351	0	0	8138	570328	0	0
2024-09-14 03:59:47			0	37572	0	0	0	25311	23880	159559	26894	1064596	46788	109360	0	0	8137	570640	0	0
2024-09-14 04:00:47			0	37590	0	0	0	25303	23890	159531	27308	1064578	46799	109357	0	0	8138	569889	0	0
2024-09-14 04:01:47			0	37606	0	0	0	25290	23890	159395	27286	1064614	46789	109352	0	0	8139	569250	0	0
2024-09-14 04:02:47			0	37568	0	0	0	25301	23900	159483	27034	1064632	46790	109356	0	0	8137	570735	0	0
2024-09-14 04:03:47			0	37599	0	0	0	25298	23890	159367	26994	1064578	46789	109355	0	0	8139	569529	0	0
2024-09-14 04:04:47			0	37602	0	0	0	25301	23900	159379	27298	1064623	46778	109356	0	0	8139	569377	0	0
2024-09-14 04:05:47			0	37605	0	0	0	25296	23890	159407	27159	1064578	46778	109354	0	0	8139	569290	0	0
2024-09-14 04:06:47			0	37625	0	0	0	25277	23890	159259	26968	1064578	46778	109347	0	0	8141	568492	0	0
2024-09-14 04:07:47			0	37576	0	0	0	25301	23890	159423	27039	1064605	46778	109356	0	0	8137	570448	0	0
2024-09-14 04:08:47			0	37611	0	0	0	25288	23900	159363	27119	1064623	46789	109351	0	0	8140	569018	0	0
2024-09-14 04:09:47			0	37592	0	0	0	25288	23890	159463	26870	1064578	46789	109351	0	0	8139	569809	0	0
2024-09-14 04:10:47			0	37587	0	0	0	25296	23890	159455	26974	1064552	46789	109354	0	0	8138	570008	0	0
2024-09-14 04:11:47			0	37599	0	0	0	25283	23890	159399	27064	1064498	46767	109349	0	0	8139	569529	0	0
2024-09-14 04:12:47			0	37559	0	0	0	25275	23890	159463	27429	1064561	46789	109346	0	0	8137	571128	0	0
2024-09-14 04:13:47			0	37581	0	0	0	25259	23880	159475	26972	1064543	46766	109340	0	0	8138	570280	0	0
2024-09-14 04:14:47			0	37576	0	0	0	25272	23880	159467	27192	1064516	46788	109345	0	0	8138	570480	0	0
2024-09-14 04:15:47			0	37567	0	0	0	25275	23880	159491	27140	1064453	46765	109346	0	0	8137	570840	0	0
2024-09-14 04:16:47			0	37584	0	0	0	25280	23880	159435	27215	1064507	46787	109348	0	0	8138	570160	0	0
2024-09-14 04:17:47			0	37568	0	0	0	25288	23870	159499	26984	1064498	46787	109351	0	0	8137	570832	0	0
2024-09-14 04:18:47			0	37574	0	0	0	25277	23870	159375	27237	1064498	46765	109347	0	0	8138	570592	0	0
2024-09-14 04:19:47			0	37582	0	0	0	25272	23870	159475	27412	1064498	46776	109345	0	0	8138	570272	0	0
2024-09-14 04:20:47			0	37580	0	0	0	25272	23880	159579	27022	1064480	46787	109345	0	0	8138	570320	0	0
2024-09-14 04:21:47			0	37588	0	0	0	25280	23880	159491	27045	1064489	46798	109348	0	0	8138	570001	0	0
2024-09-14 04:22:47			0	37568	0	0	0	25267	23870	159591	26934	1064471	46776	109343	0	0	8137	570832	0	0
2024-09-14 04:23:47			0	37557	0	0	0	25264	23870	159683	27216	1064471	46776	109342	0	0	8137	571272	0	0
2024-09-14 04:24:47			0	37554	0	0	0	25267	23880	159599	27105	1064427	46776	109343	0	0	8137	571360	0	0
2024-09-14 04:25:47			0	37530	0	0	0	25246	23870	159671	26807	1064471	46787	109335	0	0	8136	572353	0	0
2024-09-14 04:26:47			0	37547	0	0	0	25254	23860	159671	27229	1064453	46764	109338	0	0	8136	571704	0	0
2024-09-14 04:27:47			0	37540	0	0	0	25254	23860	159627	26847	1064400	46775	109338	0	0	8136	571984	0	0
2024-09-14 04:28:47			0	37532	0	0	0	25249	23860	159647	27076	1064418	46763	109336	0	0	8136	572305	0	0
2024-09-14 04:29:47			0	37522	0	0	0	25251	23860	159691	26958	1064373	46764	109337	0	0	8135	572705	0	0
2024-09-14 04:30:47			0	37529	0	0	0	25249	23850	159727	26982	1064382	46762	109336	0	0	8135	572457	0	0
2024-09-14 04:31:47			0	37530	0	0	0	25246	23860	159591	27289	1064391	46785	109335	0	0	8136	572385	0	0
2024-09-14 04:32:47			0	37525	0	0	0	25254	23850	159707	26800	1064409	46773	109338	0	0	8135	572617	0	0
2024-09-14 04:33:47			0	37543	0	0	0	25249	23850	159723	27192	1064409	46773	109336	0	0	8136	571897	0	0
2024-09-14 04:34:47			0	37507	0	0	0	25244	23850	159699	26996	1064382	46773	109334	0	0	8134	573339	0	0
2024-09-14 04:35:47			0	37526	0	0	0	25241	23860	159871	26776	1064337	46763	109333	0	0	8135	572545	0	0
2024-09-14 04:36:47			0	37516	0	0	0	25223	23850	159747	27150	1064302	46773	109326	0	0	8135	572978	0	0
2024-09-14 04:37:47			0	37486	0	0	0	25212	23840	159779	26785	1064310	46784	109322	0	0	8133	574214	0	0
2024-09-14 04:38:47			0	37492	0	0	0	25225	23830	159887	26788	1064292	46782	109327	0	0	8134	574005	0	0
2024-09-14 04:39:47			0	37474	0	0	0	25225	23830	159931	26580	1064292	46771	109327	0	0	8132	574728	0	0
2024-09-14 04:40:47			0	37473	0	0	0	25228	23840	159927	26993	1064301	46772	109328	0	0	8132	574736	0	0
2024-09-14 04:41:47			0	37477	0	0	0	25233	23840	159959	26896	1064337	46773	109330	0	0	8133	574575	0	0
2024-09-14 04:42:47			0	37481	0	0	0	25238	23840	159899	27218	1064301	46783	109332	0	0	8133	574415	0	0
2024-09-14 04:43:47			0	37464	0	0	0	25223	23830	159879	27253	1064239	46771	109326	0	0	8132	575130	0	0
2024-09-14 04:44:47			0	37436	0	0	0	25225	23830	160019	27225	1064239	46782	109327	0	0	8130	576256	0	0
2024-09-14 04:45:47			0	37450	0	0	0	25249	23830	159951	27242	1064364	46771	109336	0	0	8131	575692	0	0
2024-09-14 04:46:47			0	37461	0	0	0	25223	23840	160027	26824	1064301	46772	109326	0	0	8132	575218	0	0
2024-09-14 04:47:47			0	37471	0	0	0	25215	23830	160055	27111	1064292	46771	109323	0	0	8132	574849	0	0
2024-09-14 04:48:47			0	37463	0	0	0	25199	23820	160163	26767	1064274	46760	109317	0	0	8132	575202	0	0
2024-09-14 04:49:47			0	37449	0	0	0	25218	23820	160115	27150	1064239	46759	109324	0	0	8131	575765	0	0
2024-09-14 04:50:47			0	37461	0	0	0	25223	23830	160043	27372	1064266	46782	109326	0	0	8132	575250	0	0
2024-09-14 04:51:47			0	37447	0	0	0	25220	23840	160023	26842	1064275	46772	109325	0	0	8131	575781	0	0
2024-09-14 04:52:47			0	37467	0	0	0	25220	23820	160027	26939	1064212	46770	109325	0	0	8132	575042	0	0
2024-09-14 04:53:47			0	37441	0	0	0	25202	23820	160079	27067	1064158	46781	109318	0	0	8131	576087	0	0
2024-09-14 04:54:47			0	37435	0	0	0	25212	23820	160115	27263	1064274	46771	109322	0	0	8130	576328	0	0
2024-09-14 04:55:47			0	37435	0	0	0	25207	23820	160295	27218	1064212	46759	109320	0	0	8130	576328	0	0
2024-09-14 04:56:47			0	37433	0	0	0	25228	23820	160243	26883	1064274	46771	109328	0	0	8130	576409	0	0
2024-09-14 04:57:47			0	37429	0	0	0	25225	23820	160199	26781	1064158	46770	109327	0	0	8130	576570	0	0
2024-09-14 04:58:47			0	37420	0	0	0	25225	23820	160255	26972	1064221	46782	109327	0	0	8129	576932	0	0
2024-09-14 04:59:47			0	37424	0	0	0	25228	23820	160155	26800	1064301	46782	109328	0	0	8129	576771	0	0
2024-09-14 05:00:47			0	37416	0	0	0	25233	23820	160311	27300	1064221	46771	109330	0	0	8129	577093	0	0
2024-09-14 05:01:47			0	37431	0	0	0	25233	23820	160175	26948	1064265	46770	109330	0	0	8130	576489	0	0
2024-09-14 05:02:47			0	37423	0	0	0	25228	23810	160267	26937	1064176	46780	109328	0	0	8129	576844	0	0
2024-09-14 05:03:47			0	37403	0	0	0	25212	23810	160239	26823	1064176	46780	109322	0	0	8128	577649	0	0
2024-09-14 05:04:47			0	37396	0	0	0	25202	23820	160215	26863	1064221	46782	109318	0	0	8128	577899	0	0
2024-09-14 05:05:47			0	37378	0	0	0	25205	23820	160259	26738	1064194	46760	109319	0	0	8127	578625	0	0
2024-09-14 05:06:47			0	37396	0	0	0	25207	23810	160299	26734	1064122	46769	109320	0	0	8128	577931	0	0
2024-09-14 05:07:47			0	37391	0	0	0	25205	23810	160363	27029	1064149	46758	109319	0	0	8128	578133	0	0
2024-09-14 05:08:47			0	37372	0	0	0	25173	23820	160359	26861	1064212	46770	109307	0	0	8127	578867	0	0
2024-09-14 05:09:47			0	37363	0	0	0	25192	23810	160359	27246	1064220	46780	109314	0	0	8126	579263	0	0
2024-09-14 05:10:47			0	37378	0	0	0	25207	23810	160383	27066	1064167	46769	109320	0	0	8127	578657	0	0
2024-09-14 05:11:47			0	37374	0	0	0	25186	23810	160351	27229	1064167	46758	109312	0	0	8127	578819	0	0
2024-09-14 05:12:47			0	37382	0	0	0	25199	23800	160315	27039	1064131	46769	109317	0	0	8127	578529	0	0
2024-09-14 05:13:47			0	37385	0	0	0	25194	23800	160371	27372	1064095	46768	109315	0	0	8128	578408	0	0
2024-09-14 05:14:47			0	37386	0	0	0	25207	23800	160303	27156	1064158	46780	109320	0	0	8127	578367	0	0
2024-09-14 05:15:47			0	37380	0	0	0	25205	23800	160375	26909	1064104	46769	109319	0	0	8127	578609	0	0
2024-09-14 05:16:47			0	37379	0	0	0	25207	23800	160335	27074	1064149	46779	109320	0	0	8127	578649	0	0
2024-09-14 05:17:47			0	37384	0	0	0	25202	23790	160351	27107	1064140	46778	109318	0	0	8127	578481	0	0
2024-09-14 05:18:47			0	37380	0	0	0	25179	23820	160447	27131	1064158	46781	109309	0	0	8128	578544	0	0
2024-09-14 05:19:47			0	37369	0	0	0	25189	23800	160443	26970	1064122	46768	109313	0	0	8127	579053	0	0
2024-09-14 05:20:47			0	37369	0	0	0	25202	23800	160387	26942	1064042	46768	109318	0	0	8127	579053	0	0
2024-09-14 05:21:47			0	37364	0	0	0	25205	23790	160375	27067	1064140	46767	109319	0	0	8126	579288	0	0
2024-09-14 05:22:47			0	37389	0	0	0	25205	23790	160375	27175	1064086	46767	109319	0	0	8128	578279	0	0
2024-09-14 05:23:47			0	37372	0	0	0	25199	23800	160367	26909	1064149	46779	109317	0	0	8127	578932	0	0
2024-09-14 05:24:47			0	37391	0	0	0	25231	23800	160343	27159	1064158	46758	109329	0	0	8127	578166	0	0
2024-09-14 05:25:47			0	37421	0	0	0	25241	23800	160351	27142	1064131	46769	109333	0	0	8129	576957	0	0
2024-09-14 05:26:47			0	37421	0	0	0	25233	23800	160147	26873	1064238	46791	109330	0	0	8129	576957	0	0
2024-09-14 05:27:47			0	37413	0	0	0	25236	23810	160179	27123	1064247	46780	109331	0	0	8129	577247	0	0
2024-09-14 05:28:47			0	37433	0	0	0	25238	23810	160167	26984	1064220	46769	109332	0	0	8130	576441	0	0
2024-09-14 05:29:47			0	37429	0	0	0	25236	23820	160103	27403	1064265	46770	109331	0	0	8130	576570	0	0
2024-09-14 05:30:47			0	37444	0	0	0	25218	23820	160167	27052	1064265	46770	109324	0	0	8131	575966	0	0
2024-09-14 05:31:47			0	37433	0	0	0	25236	23820	160223	27390	1064239	46791	109331	0	0	8130	576409	0	0
2024-09-14 05:32:47			0	37455	0	0	0	25267	23820	160187	27149	1064265	46781	109343	0	0	8131	575524	0	0
2024-09-14 05:33:47			0	37474	0	0	0	25264	23820	159935	27057	1064292	46781	109342	0	0	8132	574760	0	0
2024-09-14 05:34:47			0	37473	0	0	0	25267	23830	159883	26882	1064283	46782	109343	0	0	8132	574768	0	0
2024-09-14 05:35:47			0	37473	0	0	0	25272	23830	160131	26698	1064346	46792	109345	0	0	8132	574768	0	0
2024-09-14 05:36:47			0	37503	0	0	0	25262	23830	159983	27239	1064399	46771	109341	0	0	8134	573564	0	0
2024-09-14 05:37:47			0	37491	0	0	0	25277	23840	159855	27163	1064391	46784	109347	0	0	8133	574013	0	0
2024-09-14 05:38:47			0	37497	0	0	0	25262	23840	160027	27280	1064391	46784	109341	0	0	8133	573772	0	0
2024-09-14 05:39:47			0	37494	0	0	0	25285	23850	159903	26845	1064400	46784	109350	0	0	8133	573860	0	0
2024-09-14 05:40:47			0	37499	0	0	0	25277	23850	159911	26963	1064426	46773	109347	0	0	8133	573660	0	0
2024-09-14 05:41:47			0	37525	0	0	0	25264	23850	159919	27012	1064462	46784	109342	0	0	8135	572617	0	0
2024-09-14 05:42:47			0	37505	0	0	0	25301	23850	159843	26998	1064409	46773	109356	0	0	8133	573419	0	0
2024-09-14 05:43:47			0	37517	0	0	0	25298	23850	159743	26991	1064426	46794	109355	0	0	8134	572938	0	0
2024-09-14 05:44:47			0	37524	0	0	0	25293	23860	159847	27003	1064471	46785	109353	0	0	8134	572625	0	0
2024-09-14 05:45:47			0	37548	0	0	0	25306	23870	159683	27232	1064489	46787	109358	0	0	8136	571632	0	0
2024-09-14 05:46:47			0	37540	0	0	0	25296	23860	159707	26890	1064498	46785	109354	0	0	8135	571984	0	0
2024-09-14 05:47:47			0	37556	0	0	0	25311	23860	159691	26816	1064507	46775	109360	0	0	8136	571344	0	0
2024-09-14 05:48:47			0	37571	0	0	0	25293	23860	159603	27034	1064533	46786	109353	0	0	8137	570744	0	0
2024-09-14 05:49:47			0	37600	0	0	0	25303	23870	159651	27467	1064596	46787	109357	0	0	8139	569554	0	0
2024-09-14 05:50:47			0	37578	0	0	0	25303	23870	159463	26890	1064551	46776	109357	0	0	8137	570432	0	0
2024-09-14 05:51:47			0	37582	0	0	0	25298	23870	159447	27010	1064578	46787	109355	0	0	8138	570272	0	0
2024-09-14 05:52:47			0	37620	0	0	0	25319	23870	159307	26717	1064578	46776	109363	0	0	8140	568755	0	0
2024-09-14 05:53:47			0	37628	0	0	0	25322	23870	159363	26949	1064605	46753	109364	0	0	8140	568436	0	0
2024-09-14 05:54:47			0	37638	0	0	0	25332	23880	159207	26819	1064623	46788	109368	0	0	8141	568005	0	0
2024-09-14 05:55:47			0	37666	0	0	0	25332	23890	159063	26724	1064614	46767	109368	0	0	8142	566858	0	0
2024-09-14 05:56:47			0	37682	0	0	0	25335	23890	159151	27083	1064632	46811	109369	0	0	8143	566222	0	0
2024-09-14 05:57:47			0	37723	0	0	0	25345	23890	159043	26776	1064694	46811	109373	0	0	8145	564593	0	0
2024-09-14 05:58:47			0	37746	0	0	0	25348	23910	158967	26842	1064748	46780	109374	0	0	8147	563616	0	0
2024-09-14 05:59:47			0	37727	0	0	0	25348	23890	158907	26651	1064668	46789	109374	0	0	8146	564434	0	0
2024-09-14 06:00:47			0	37757	0	0	0	25353	23910	158747	26961	1064748	46791	109376	0	0	8147	563180	0	0
2024-09-14 06:01:47			0	37779	0	0	0	25358	23900	158607	27078	1064730	46799	109378	0	0	8148	562340	0	0
2024-09-14 06:02:47			0	37773	0	0	0	25361	23910	158599	26939	1064802	46791	109379	0	0	8148	562546	0	0
2024-09-14 06:03:47			0	37793	0	0	0	25366	23920	158627	27026	1064793	46791	109381	0	0	8149	561723	0	0
2024-09-14 06:04:47			0	37806	0	0	0	25374	23930	158535	26948	1064811	46782	109384	0	0	8150	561177	0	0
2024-09-14 06:05:47			0	37791	0	0	0	25376	23920	158511	26875	1064829	46791	109385	0	0	8149	561802	0	0
2024-09-14 06:06:47			0	37819	0	0	0	25379	23930	158535	27131	1064873	46792	109386	0	0	8151	560663	0	0
2024-09-14 06:07:47			0	37862	0	0	0	25379	23930	158391	26923	1064864	46782	109386	0	0	8153	558965	0	0
2024-09-14 06:08:47			0	37863	0	0	0	25381	23930	158359	27008	1064873	46792	109387	0	0	8153	558926	0	0
2024-09-14 06:09:47			0	37879	0	0	0	25371	23940	158299	26901	1064883	46783	109383	0	0	8154	558264	0	0
2024-09-14 06:10:47			0	37869	0	0	0	25381	23950	158295	27182	1064927	46784	109387	0	0	8154	558627	0	0
2024-09-14 06:11:47			0	37873	0	0	0	25363	23940	158335	27039	1064856	46783	109380	0	0	8154	558500	0	0
2024-09-14 06:12:47			0	37850	0	0	0	25379	23940	158279	27097	1064865	46783	109386	0	0	8152	559408	0	0
2024-09-14 06:13:47			0	37835	0	0	0	25371	23940	158323	26987	1064883	46793	109383	0	0	8152	560000	0	0
2024-09-14 06:14:47			0	37858	0	0	0	25366	23940	158267	27216	1064945	46793	109381	0	0	8153	559092	0	0
2024-09-14 06:15:47			0	37861	0	0	0	25371	23940	158363	27105	1064999	46783	109383	0	0	8153	558973	0	0
2024-09-14 06:16:47			0	37863	0	0	0	25371	23950	158243	27234	1064990	46795	109383	0	0	8153	558863	0	0
2024-09-14 06:17:47			0	37885	0	0	0	25379	23940	158307	27253	1064945	46772	109386	0	0	8154	558027	0	0
2024-09-14 06:18:47			0	37875	0	0	0	25379	23930	158267	27064	1064873	46804	109386	0	0	8154	558453	0	0
2024-09-14 06:19:47			0	37882	0	0	0	25368	23960	158223	27274	1064901	46795	109382	0	0	8155	558083	0	0
2024-09-14 06:20:47			0	37890	0	0	0	25379	23950	158163	26911	1064910	46774	109386	0	0	8155	557799	0	0
2024-09-14 06:21:47			0	37896	0	0	0	25374	23950	158119	27396	1064981	46794	109384	0	0	8155	557563	0	0
2024-09-14 06:22:47			0	37903	0	0	0	25363	23950	158095	26882	1064954	46794	109380	0	0	8156	557287	0	0
2024-09-14 06:23:47			0	37911	0	0	0	25368	23950	158183	27076	1064910	46785	109382	0	0	8156	556972	0	0
2024-09-14 06:24:47			0	37911	0	0	0	25358	23960	158143	27118	1064928	46795	109378	0	0	8156	556941	0	0
2024-09-14 06:25:47			0	37906	0	0	0	25361	23960	158087	27215	1064945	46785	109379	0	0	8156	557138	0	0
2024-09-14 06:26:47			0	37919	0	0	0	25366	23960	158075	27268	1064945	46774	109381	0	0	8157	556626	0	0
2024-09-14 06:27:47			0	37922	0	0	0	25361	23950	158059	27182	1064936	46774	109379	0	0	8157	556539	0	0
2024-09-14 06:28:47			0	37927	0	0	0	25366	23940	158039	27325	1064856	46783	109381	0	0	8157	556374	0	0
2024-09-14 06:29:47			0	37924	0	0	0	25371	23940	158027	27033	1064892	46772	109383	0	0	8157	556492	0	0
2024-09-14 06:30:47			0	37915	0	0	0	25355	23960	158103	26991	1064945	46785	109377	0	0	8157	556783	0	0
2024-09-14 06:31:47			0	37899	0	0	0	25353	23950	157971	27253	1064927	46784	109376	0	0	8156	557445	0	0
2024-09-14 06:32:47			0	37932	0	0	0	25340	23950	157983	27319	1064883	46774	109371	0	0	8158	556146	0	0
2024-09-14 06:33:47			0	37937	0	0	0	25348	23940	158083	27279	1064865	46772	109374	0	0	8158	555981	0	0
2024-09-14 06:34:47			0	37938	0	0	0	25342	23940	158015	27175	1064802	46783	109372	0	0	8158	555942	0	0
2024-09-14 06:35:47			0	37901	0	0	0	25342	23940	157955	27289	1064865	46783	109372	0	0	8156	557397	0	0
2024-09-14 06:36:47			0	37889	0	0	0	25371	23940	158063	27052	1064802	46783	109383	0	0	8155	557870	0	0
2024-09-14 06:37:47			0	37948	0	0	0	25374	23940	157971	27039	1064865	46793	109384	0	0	8158	555548	0	0
2024-09-14 06:38:47			0	37972	0	0	0	25358	23930	157803	26804	1064900	46792	109378	0	0	8160	554637	0	0
2024-09-14 06:39:47			0	37981	0	0	0	25355	23940	157787	27196	1064892	46793	109377	0	0	8160	554253	0	0
2024-09-14 06:40:47			0	37972	0	0	0	25348	23950	157859	27085	1064901	46794	109374	0	0	8160	554575	0	0
2024-09-14 06:41:47			0	37986	0	0	0	25350	23950	157763	27253	1064874	46794	109375	0	0	8161	554026	0	0
2024-09-14 06:42:47			0	37982	0	0	0	25355	23940	157827	27057	1064865	46793	109377	0	0	8161	554214	0	0
2024-09-14 06:43:47			0	37978	0	0	0	25361	23950	157759	27038	1064901	46773	109379	0	0	8160	554339	0	0
2024-09-14 06:44:47			0	37993	0	0	0	25363	23950	157699	27203	1064874	46773	109380	0	0	8161	553751	0	0
2024-09-14 06:45:47			0	37991	0	0	0	25363	23940	157811	26987	1064892	46772	109380	0	0	8161	553861	0	0
2024-09-14 06:46:47			0	37982	0	0	0	25350	23950	157731	27111	1064856	46774	109375	0	0	8161	554183	0	0
2024-09-14 06:47:47			0	37964	0	0	0	25361	23940	157867	27100	1064856	46783	109379	0	0	8159	554920	0	0
2024-09-14 06:48:47			0	37990	0	0	0	25366	23930	157771	27208	1064873	46792	109381	0	0	8161	553931	0	0
2024-09-14 06:49:47			0	37973	0	0	0	25368	23950	157783	26984	1064927	46784	109382	0	0	8160	554536	0	0
2024-09-14 06:50:47			0	37974	0	0	0	25358	23930	157787	27239	1064847	46771	109378	0	0	8160	554559	0	0
2024-09-14 06:51:47			0	37983	0	0	0	25363	23950	157823	27020	1064874	46784	109380	0	0	8161	554143	0	0
2024-09-14 06:52:47			0	37987	0	0	0	25363	23950	157759	27315	1064936	46785	109380	0	0	8161	553986	0	0
2024-09-14 06:53:47			0	37992	0	0	0	25355	23950	157731	26932	1064820	46784	109377	0	0	8161	553790	0	0
2024-09-14 06:54:47			0	37964	0	0	0	25345	23950	157791	27095	1064874	46784	109373	0	0	8160	554889	0	0
2024-09-14 06:55:47			0	37994	0	0	0	25371	23950	157811	27166	1064963	46774	109383	0	0	8161	553712	0	0
2024-09-14 06:56:47			0	38023	0	0	0	25358	23940	157675	27313	1064918	46783	109378	0	0	8163	552607	0	0
2024-09-14 06:57:47			0	38021	0	0	0	25376	23940	157643	27201	1064918	46793	109385	0	0	8162	552685	0	0
2024-09-14 06:58:47			0	38031	0	0	0	25371	23950	157604	27171	1064901	46794	109383	0	0	8163	552263	0	0
2024-09-14 06:59:47			0	38051	0	0	0	25379	23950	157532	26961	1064910	46795	109386	0	0	8164	551480	0	0
2024-09-14 07:00:47			0	38077	0	0	0	25379	23940	157412	27086	1064892	46783	109386	0	0	8166	550495	0	0
2024-09-14 07:01:47			0	38098	0	0	0	25381	23960	157376	27223	1064972	46785	109387	0	0	8167	549613	0	0
2024-09-14 07:02:47			0	38083	0	0	0	25371	23950	157444	26932	1064963	46785	109383	0	0	8166	550230	0	0
2024-09-14 07:03:47			0	38068	0	0	0	25358	23960	157364	27336	1064919	46795	109378	0	0	8166	550784	0	0
2024-09-14 07:04:47			0	38076	0	0	0	25366	23950	157360	26896	1064927	46794	109381	0	0	8166	550503	0	0
2024-09-14 07:05:47			0	38052	0	0	0	25358	23960	157448	27039	1064972	46795	109378	0	0	8165	551410	0	0
2024-09-14 07:06:47			0	38060	0	0	0	25355	23960	157424	27104	1064892	46774	109377	0	0	8165	551097	0	0
2024-09-14 07:07:47			0	38069	0	0	0	25363	23950	157408	27369	1064990	46774	109380	0	0	8166	550776	0	0
2024-09-14 07:08:47			0	38076	0	0	0	25361	23940	157376	27481	1064945	46783	109379	0	0	8166	550534	0	0
2024-09-14 07:09:47			0	38084	0	0	0	25342	23950	157344	27286	1064910	46774	109372	0	0	8167	550190	0	0
2024-09-14 07:10:47			0	38049	0	0	0	25350	23950	157424	27512	1064901	46773	109375	0	0	8165	551558	0	0
2024-09-14 07:11:47			0	38059	0	0	0	25337	23950	157488	27149	1064874	46794	109370	0	0	8165	551167	0	0
2024-09-14 07:12:47			0	38046	0	0	0	25348	23950	157644	26882	1064847	46794	109374	0	0	8164	551676	0	0
2024-09-14 07:13:47			0	38021	0	0	0	25345	23950	157555	27114	1064927	46784	109373	0	0	8163	552654	0	0
2024-09-14 07:14:47			0	38037	0	0	0	25350	23950	157604	26932	1064820	46761	109375	0	0	8164	552028	0	0
2024-09-14 07:15:47			0	38021	0	0	0	25345	23940	157583	26981	1064856	46772	109373	0	0	8163	552685	0	0
2024-09-14 07:16:47			0	38015	0	0	0	25327	23940	157559	27338	1064909	46783	109366	0	0	8163	552920	0	0
2024-09-14 07:17:47			0	38024	0	0	0	25335	23930	157627	26994	1064811	46782	109369	0	0	8163	552599	0	0
2024-09-14 07:18:47			0	38022	0	0	0	25345	23930	157619	26968	1064847	46771	109373	0	0	8163	552677	0	0
2024-09-14 07:19:47			0	38031	0	0	0	25361	23930	157600	27013	1064838	46792	109379	0	0	8163	552325	0	0
2024-09-14 07:20:47			0	38014	0	0	0	25350	23940	157619	27275	1064865	46783	109375	0	0	8162	552959	0	0
2024-09-14 07:21:47			0	38012	0	0	0	25355	23940	157559	26963	1064829	46793	109377	0	0	8162	553038	0	0
2024-09-14 07:22:47			0	38011	0	0	0	25348	23940	157675	26981	1064865	46783	109374	0	0	8162	553077	0	0
2024-09-14 07:23:47			0	38007	0	0	0	25337	23940	157703	27163	1064811	46783	109370	0	0	8162	553234	0	0
2024-09-14 07:24:47			0	38015	0	0	0	25350	23940	157667	27145	1064892	46793	109375	0	0	8163	552920	0	0
2024-09-14 07:25:47			0	38009	0	0	0	25348	23940	157615	27379	1064829	46783	109374	0	0	8162	553155	0	0
2024-09-14 07:26:47			0	37998	0	0	0	25358	23930	157631	27284	1064820	46792	109378	0	0	8161	553617	0	0
2024-09-14 07:27:47			0	38014	0	0	0	25353	23940	157671	27395	1064811	46783	109376	0	0	8162	552959	0	0
2024-09-14 07:28:47			0	38014	0	0	0	25337	23930	157719	27272	1064847	46782	109370	0	0	8163	552990	0	0
2024-09-14 07:29:47			0	38002	0	0	0	25327	23940	157687	27034	1064829	46783	109366	0	0	8162	553430	0	0
2024-09-14 07:30:47			0	37983	0	0	0	25340	23930	157875	27150	1064820	46771	109371	0	0	8161	554206	0	0
2024-09-14 07:31:47			0	37970	0	0	0	25322	23940	157843	27289	1064802	46793	109364	0	0	8160	554685	0	0
2024-09-14 07:32:47			0	37954	0	0	0	25324	23930	157907	27183	1064757	46759	109365	0	0	8159	555344	0	0
2024-09-14 07:33:47			0	37953	0	0	0	25311	23930	158023	26974	1064784	46782	109360	0	0	8160	555384	0	0
2024-09-14 07:34:47			0	37936	0	0	0	25309	23930	157883	27325	1064784	46771	109359	0	0	8159	556051	0	0
2024-09-14 07:35:47			0	37944	0	0	0	25314	23920	157895	27296	1064748	46781	109361	0	0	8159	555768	0	0
2024-09-14 07:36:47			0	37932	0	0	0	25314	23910	158003	27358	1064757	46780	109361	0	0	8158	556272	0	0
2024-09-14 07:37:47			0	37924	0	0	0	25316	23920	157971	27083	1064722	46770	109362	0	0	8158	556555	0	0
2024-09-14 07:38:47			0	37931	0	0	0	25298	23920	158027	27398	1064793	46769	109355	0	0	8158	556280	0	0
2024-09-14 07:39:47			0	37926	0	0	0	25288	23920	158015	27312	1064686	46769	109351	0	0	8158	556476	0	0
2024-09-14 07:40:47			0	37913	0	0	0	25262	23900	158151	27469	1064605	46768	109341	0	0	8158	557050	0	0
2024-09-14 07:41:47			0	37882	0	0	0	25277	23900	158043	27168	1064605	46779	109347	0	0	8156	558271	0	0
2024-09-14 07:42:47			0	37890	0	0	0	25280	23900	158067	27476	1064659	46768	109348	0	0	8156	557956	0	0
2024-09-14 07:43:47			0	37893	0	0	0	25277	23890	158235	27133	1064614	46767	109347	0	0	8156	557869	0	0
2024-09-14 07:44:47			0	37886	0	0	0	25283	23890	158179	27225	1064587	46778	109349	0	0	8156	558145	0	0
2024-09-14 07:45:47			0	37895	0	0	0	25277	23890	158263	27076	1064668	46778	109347	0	0	8157	557790	0	0
2024-09-14 07:46:47			0	37867	0	0	0	25288	23890	158379	27235	1064561	46755	109351	0	0	8155	558894	0	0
2024-09-14 07:47:47			0	37884	0	0	0	25288	23890	158359	27343	1064614	46778	109351	0	0	8156	558224	0	0
2024-09-14 07:48:47			0	37872	0	0	0	25288	23890	158387	27249	1064587	46778	109351	0	0	8155	558697	0	0
2024-09-14 07:49:47			0	37845	0	0	0	25277	23890	158423	27294	1064561	46778	109347	0	0	8154	559762	0	0
2024-09-14 07:50:47			0	37861	0	0	0	25280	23890	158459	27287	1064587	46778	109348	0	0	8155	559131	0	0
2024-09-14 07:51:47			0	37867	0	0	0	25264	23880	158411	26939	1064543	46788	109342	0	0	8155	558926	0	0
2024-09-14 07:52:47			0	37844	0	0	0	25259	23890	158303	27043	1064525	46778	109340	0	0	8154	559802	0	0
2024-09-14 07:53:47			0	37849	0	0	0	25264	23880	158471	27027	1064614	46765	109342	0	0	8154	559636	0	0
2024-09-14 07:54:47			0	37837	0	0	0	25267	23880	158435	27196	1064534	46753	109343	0	0	8153	560110	0	0
2024-09-14 07:55:47			0	37828	0	0	0	25254	23860	158395	27256	1064480	46775	109338	0	0	8153	560529	0	0
2024-09-14 07:56:47			0	37817	0	0	0	25264	23870	158399	26833	1064525	46776	109342	0	0	8152	560932	0	0
2024-09-14 07:57:47			0	37830	0	0	0	25251	23870	158551	26960	1064498	46765	109337	0	0	8153	560418	0	0
2024-09-14 07:58:47			0	37799	0	0	0	25267	23870	158495	27161	1064489	46776	109343	0	0	8151	561644	0	0
2024-09-14 07:59:47			0	37810	0	0	0	25249	23860	158527	27098	1064507	46764	109336	0	0	8152	561240	0	0
2024-09-14 08:00:47			0	37801	0	0	0	25220	23850	158483	27161	1064435	46762	109325	0	0	8152	561628	0	0
2024-09-14 08:01:47			0	37804	0	0	0	25251	23860	158615	27348	1064444	46751	109337	0	0	8152	561478	0	0
2024-09-14 08:02:47			0	37800	0	0	0	25246	23850	158591	27383	1064426	46762	109335	0	0	8151	561668	0	0
2024-09-14 08:03:47			0	37774	0	0	0	25241	23860	158719	27223	1064418	46763	109333	0	0	8150	562665	0	0
2024-09-14 08:04:47			0	37786	0	0	0	25244	23850	158663	27140	1064373	46773	109334	0	0	8151	562222	0	0
2024-09-14 08:05:47			0	37783	0	0	0	25228	23850	158639	26984	1064453	46762	109328	0	0	8151	562340	0	0
2024-09-14 08:06:47			0	37772	0	0	0	25233	23850	158695	27121	1064400	46750	109330	0	0	8150	562776	0	0
2024-09-14 08:07:47			0	37761	0	0	0	25254	23840	158811	26927	1064355	46750	109338	0	0	8149	563244	0	0
2024-09-14 08:08:47			0	37775	0	0	0	25233	23840	158783	26776	1064417	46750	109330	0	0	8150	562689	0	0
2024-09-14 08:09:47			0	37768	0	0	0	25249	23840	158795	26750	1064417	46773	109336	0	0	8149	562966	0	0
2024-09-14 08:10:47			0	37762	0	0	0	25251	23840	158815	27050	1064444	46773	109337	0	0	8149	563204	0	0
2024-09-14 08:11:47			0	37759	0	0	0	25280	23840	158767	27164	1064417	46773	109348	0	0	8148	563323	0	0
2024-09-14 08:12:47			0	37779	0	0	0	25270	23840	158787	27234	1064435	46783	109344	0	0	8150	562531	0	0
2024-09-14 08:13:47			0	37761	0	0	0	25277	23850	158815	27326	1064507	46784	109347	0	0	8149	563212	0	0
2024-09-14 08:14:47			0	37768	0	0	0	25283	23850	158747	27057	1064489	46784	109349	0	0	8149	562935	0	0
2024-09-14 08:15:47			0	37781	0	0	0	25257	23860	158771	27045	1064507	46786	109339	0	0	8150	562388	0	0
2024-09-14 08:16:47			0	37770	0	0	0	25288	23850	158707	27121	1064489	46773	109351	0	0	8149	562855	0	0
2024-09-14 08:17:47			0	37752	0	0	0	25288	23850	158731	27033	1064489	46784	109351	0	0	8148	563569	0	0
2024-09-14 08:18:47			0	37760	0	0	0	25303	23860	158747	27130	1064560	46786	109357	0	0	8148	563220	0	0
2024-09-14 08:19:47			0	37765	0	0	0	25311	23870	158731	27119	1064569	46776	109360	0	0	8148	562990	0	0
2024-09-14 08:20:47			0	37763	0	0	0	25311	23870	158839	27164	1064569	46787	109360	0	0	8148	563069	0	0
2024-09-14 08:21:47			0	37777	0	0	0	25301	23880	158735	26989	1064587	46787	109356	0	0	8149	562483	0	0
2024-09-14 08:22:47			0	37766	0	0	0	25270	23870	158747	27013	1064605	46776	109344	0	0	8149	562951	0	0
2024-09-14 08:23:47			0	37762	0	0	0	25257	23880	158691	27381	1064569	46777	109339	0	0	8149	563077	0	0
2024-09-14 08:24:47			0	37757	0	0	0	25303	23870	158747	27360	1064578	46776	109357	0	0	8148	563307	0	0
2024-09-14 08:25:47			0	37752	0	0	0	25296	23870	158727	27050	1064605	46787	109354	0	0	8148	563506	0	0
2024-09-14 08:26:47			0	37767	0	0	0	25267	23870	158759	27331	1064596	46776	109343	0	0	8149	562911	0	0
2024-09-14 08:27:47			0	37754	0	0	0	25293	23880	158759	27064	1064560	46776	109353	0	0	8148	563394	0	0
2024-09-14 08:28:47			0	37756	0	0	0	25288	23880	158847	27256	1064623	46766	109351	0	0	8148	563315	0	0
2024-09-14 08:29:47			0	37753	0	0	0	25301	23870	158787	27308	1064578	46765	109356	0	0	8148	563466	0	0
2024-09-14 08:30:47			0	37757	0	0	0	25306	23890	158751	27635	1064587	46767	109358	0	0	8148	563244	0	0
2024-09-14 08:31:47			0	37761	0	0	0	25285	23880	158827	27159	1064650	46788	109350	0	0	8149	563117	0	0
2024-09-14 08:32:47			0	37755	0	0	0	25303	23880	158783	27298	1064614	46776	109357	0	0	8148	563355	0	0
2024-09-14 08:33:47			0	37768	0	0	0	25296	23880	158699	27249	1064614	46776	109354	0	0	8149	562839	0	0
2024-09-14 08:34:47			0	37759	0	0	0	25306	23890	158723	27204	1064659	46767	109358	0	0	8148	563165	0	0
2024-09-14 08:35:47			0	37775	0	0	0	25280	23880	158759	27173	1064596	46788	109348	0	0	8149	562562	0	0
2024-09-14 08:36:47			0	37760	0	0	0	25283	23890	158839	27391	1064605	46778	109349	0	0	8149	563125	0	0
2024-09-14 08:37:47			0	37773	0	0	0	25262	23890	158799	27450	1064641	46767	109341	0	0	8150	562610	0	0
2024-09-14 08:38:47			0	37763	0	0	0	25296	23880	158783	27405	1064650	46777	109354	0	0	8148	563038	0	0
2024-09-14 08:39:47			0	37773	0	0	0	25290	23890	158727	27371	1064632	46767	109352	0	0	8149	562610	0	0
2024-09-14 08:40:47			0	37777	0	0	0	25290	23880	158795	27500	1064650	46777	109352	0	0	8149	562483	0	0
2024-09-14 08:41:47			0	37755	0	0	0	25296	23890	158707	27633	1064605	46778	109354	0	0	8148	563323	0	0
2024-09-14 08:42:47			0	37788	0	0	0	25293	23890	158755	27204	1064659	46778	109353	0	0	8150	562016	0	0
2024-09-14 08:43:47			0	37779	0	0	0	25293	23880	158775	27400	1064641	46787	109353	0	0	8149	562404	0	0
2024-09-14 08:44:47			0	37787	0	0	0	25264	23890	158723	27294	1064605	46778	109342	0	0	8150	562055	0	0
2024-09-14 08:45:47			0	37773	0	0	0	25298	23880	158807	27294	1064587	46753	109355	0	0	8149	562641	0	0
2024-09-14 08:46:47			0	37770	0	0	0	25306	23870	158759	27093	1064551	46776	109358	0	0	8149	562792	0	0
2024-09-14 08:47:47			0	37782	0	0	0	25275	23880	158695	27320	1064596	46777	109346	0	0	8150	562285	0	0
2024-09-14 08:48:47			0	37784	0	0	0	25283	23880	158591	27265	1064560	46765	109349	0	0	8150	562206	0	0
2024-09-14 08:49:47			0	37771	0	0	0	25246	23880	158639	27353	1064560	46776	109335	0	0	8150	562721	0	0
2024-09-14 08:50:47			0	37781	0	0	0	25251	23880	158723	27086	1064507	46776	109337	0	0	8150	562325	0	0
2024-09-14 08:51:47			0	37777	0	0	0	25244	23880	158615	27315	1064453	46765	109334	0	0	8150	562483	0	0
2024-09-14 08:52:47			0	37790	0	0	0	25228	23860	158771	27364	1064480	46764	109328	0	0	8151	562032	0	0
2024-09-14 08:53:47			0	37758	0	0	0	25257	23850	158651	27168	1064382	46750	109339	0	0	8149	563331	0	0
2024-09-14 08:54:47			0	37779	0	0	0	25246	23860	158731	27215	1064453	46764	109335	0	0	8150	562467	0	0
2024-09-14 08:55:47			0	37779	0	0	0	25259	23850	158623	27183	1064516	46762	109340	0	0	8150	562499	0	0
2024-09-14 08:56:47			0	37792	0	0	0	25280	23850	158627	27258	1064435	46762	109348	0	0	8150	561984	0	0
2024-09-14 08:57:47			0	37782	0	0	0	25293	23860	158691	27166	1064533	46786	109353	0	0	8150	562348	0	0
2024-09-14 08:58:47			0	37810	0	0	0	25296	23860	158651	27467	1064507	46775	109354	0	0	8151	561240	0	0
2024-09-14 08:59:47			0	37805	0	0	0	25293	23860	158623	27398	1064551	46763	109353	0	0	8151	561438	0	0
2024-09-14 09:00:47			0	37824	0	0	0	25296	23870	158487	27268	1064551	46787	109354	0	0	8152	560655	0	0
2024-09-14 09:01:47			0	37807	0	0	0	25280	23870	158535	27203	1064525	46787	109348	0	0	8151	561327	0	0
2024-09-14 09:02:47			0	37822	0	0	0	25259	23870	158399	27414	1064516	46765	109340	0	0	8153	560734	0	0
2024-09-14 09:03:47			0	37796	0	0	0	25267	23870	158555	27298	1064498	46753	109343	0	0	8151	561762	0	0
2024-09-14 09:04:47			0	37802	0	0	0	25277	23860	158531	27107	1064533	46775	109347	0	0	8151	561557	0	0
2024-09-14 09:05:47			0	37805	0	0	0	25254	23860	158587	27211	1064507	46775	109338	0	0	8152	561438	0	0
2024-09-14 09:06:47			0	37815	0	0	0	25293	23870	158583	27182	1064516	46753	109353	0	0	8152	561011	0	0
2024-09-14 09:07:47			0	37820	0	0	0	25264	23870	158535	27320	1064498	46765	109342	0	0	8152	560813	0	0
2024-09-14 09:08:47			0	37828	0	0	0	25262	23870	158563	27372	1064489	46787	109341	0	0	8153	560497	0	0
2024-09-14 09:09:47			0	37821	0	0	0	25236	23870	158575	27350	1064489	46765	109331	0	0	8153	560774	0	0
2024-09-14 09:10:47			0	37828	0	0	0	25262	23880	158459	27187	1064507	46753	109341	0	0	8153	560466	0	0
2024-09-14 09:11:47			0	37816	0	0	0	25197	23870	158451	27013	1064489	46776	109316	0	0	8153	560971	0	0
2024-09-14 09:12:47			0	37818	0	0	0	25179	23860	158515	27348	1064391	46751	109309	0	0	8154	560924	0	0
2024-09-14 09:13:47			0	37787	0	0	0	25251	23840	158627	27369	1064364	46750	109337	0	0	8150	562214	0	0
2024-09-14 09:14:47			0	37837	0	0	0	25264	23840	158451	27126	1064364	46773	109342	0	0	8153	560236	0	0
2024-09-14 09:15:47			0	37843	0	0	0	25254	23850	158579	27360	1064426	46762	109338	0	0	8154	559968	0	0
2024-09-14 09:16:47			0	37850	0	0	0	25257	23850	158507	27003	1064382	46773	109339	0	0	8154	559691	0	0
2024-09-14 09:17:47			0	37859	0	0	0	25257	23840	158415	27400	1064444	46762	109339	0	0	8155	559367	0	0
2024-09-14 09:18:47			0	37864	0	0	0	25262	23850	158427	27348	1064462	46773	109341	0	0	8155	559139	0	0
2024-09-14 09:19:47			0	37873	0	0	0	25267	23840	158419	27294	1064444	46773	109343	0	0	8155	558815	0	0
2024-09-14 09:20:47			0	37874	0	0	0	25244	23850	158351	27371	1064453	46784	109334	0	0	8156	558744	0	0
2024-09-14 09:21:47			0	37876	0	0	0	25212	23850	158307	27166	1064400	46773	109322	0	0	8156	558665	0	0
2024-09-14 09:22:47			0	37863	0	0	0	25197	23840	158279	27530	1064391	46762	109316	0	0	8156	559210	0	0
2024-09-14 09:23:47			0	37859	0	0	0	25186	23840	158307	27466	1064310	46750	109312	0	0	8156	559367	0	0
2024-09-14 09:24:47			0	37885	0	0	0	25186	23830	158279	27190	1064292	46760	109312	0	0	8157	558373	0	0
2024-09-14 09:25:47			0	37889	0	0	0	25199	23830	158347	27497	1064266	46760	109317	0	0	8157	558216	0	0
2024-09-14 09:26:47			0	37892	0	0	0	25184	23830	158219	27046	1064257	46738	109311	0	0	8158	558097	0	0
2024-09-14 09:27:47			0	37870	0	0	0	25194	23820	158227	27183	1064221	46760	109315	0	0	8156	558996	0	0
2024-09-14 09:28:47			0	37884	0	0	0	25173	23820	158291	27414	1064221	46749	109307	0	0	8157	558444	0	0
2024-09-14 09:29:47			0	37887	0	0	0	25192	23810	158183	27495	1064149	46769	109314	0	0	8157	558357	0	0
2024-09-14 09:30:47			0	37891	0	0	0	25155	23810	158239	27530	1064167	46736	109300	0	0	8158	558200	0	0
2024-09-14 09:31:47			0	37885	0	0	0	25158	23810	158239	27353	1064167	46736	109301	0	0	8158	558436	0	0
2024-09-14 09:32:47			0	37892	0	0	0	25202	23800	158275	27345	1064095	46757	109318	0	0	8157	558192	0	0
2024-09-14 09:33:47			0	37907	0	0	0	25161	23800	158255	27190	1064176	46757	109302	0	0	8159	557600	0	0
2024-09-14 09:34:47			0	37886	0	0	0	25166	23790	158215	27339	1064033	46745	109304	0	0	8157	558460	0	0
2024-09-14 09:35:47			0	37903	0	0	0	25225	23790	158275	27060	1064131	46754	109327	0	0	8157	557790	0	0
2024-09-14 09:36:47			0	37898	0	0	0	25228	23800	158295	27287	1064158	46769	109328	0	0	8157	557955	0	0
2024-09-14 09:37:47			0	37909	0	0	0	25148	23800	158159	26944	1064238	46769	109297	0	0	8159	557522	0	0
2024-09-14 09:38:47			0	37912	0	0	0	25155	23790	158183	26949	1064113	46745	109300	0	0	8159	557435	0	0
2024-09-14 09:39:47			0	37916	0	0	0	25114	23790	158187	26970	1064077	46754	109284	0	0	8160	557277	0	0
2024-09-14 09:40:47			0	37907	0	0	0	25186	23780	158247	27078	1064086	46744	109312	0	0	8158	557663	0	0
2024-09-14 09:41:47			0	37925	0	0	0	25272	23780	158223	27350	1064140	46754	109345	0	0	8158	556954	0	0
2024-09-14 09:42:47			0	37936	0	0	0	25340	23780	158239	27166	1064282	46777	109371	0	0	8157	556522	0	0
2024-09-14 09:43:47			0	37971	0	0	0	25386	23800	158119	27029	1064425	46791	109389	0	0	8159	555083	0	0
2024-09-14 09:44:47			0	37982	0	0	0	25205	23820	157939	27360	1064453	46803	109319	0	0	8163	554589	0	0
2024-09-14 09:45:47			0	37990	0	0	0	25288	23820	157875	27043	1064399	46770	109351	0	0	8162	554275	0	0
2024-09-14 09:46:47			0	37984	0	0	0	25285	23830	157875	27171	1064390	46782	109350	0	0	8161	554479	0	0
2024-09-14 09:47:47			0	37999	0	0	0	25246	23830	157811	27338	1064399	46771	109335	0	0	8163	553890	0	0
2024-09-14 09:48:47			0	38028	0	0	0	25223	23840	157823	27242	1064408	46772	109326	0	0	8165	552722	0	0
2024-09-14 09:49:47			0	38011	0	0	0	25223	23840	157827	27086	1064382	46761	109326	0	0	8164	553389	0	0
2024-09-14 09:50:47			0	38005	0	0	0	25228	23840	157791	27293	1064355	46761	109328	0	0	8164	553624	0	0
2024-09-14 09:51:47			0	38005	0	0	0	25228	23830	157691	27476	1064337	46760	109328	0	0	8164	553655	0	0
2024-09-14 09:52:47			0	38002	0	0	0	25231	23820	157859	27371	1064346	46759	109329	0	0	8163	553804	0	0
2024-09-14 09:53:47			0	38007	0	0	0	25251	23820	157811	27685	1064301	46771	109337	0	0	8163	553608	0	0
2024-09-14 09:54:47			0	38015	0	0	0	25254	23830	157871	27159	1064346	46760	109338	0	0	8164	553263	0	0
2024-09-14 09:55:47			0	38019	0	0	0	25241	23830	157815	27144	1064373	46782	109333	0	0	8164	553106	0	0
2024-09-14 09:56:47			0	38019	0	0	0	25220	23830	157795	27312	1064399	46771	109325	0	0	8164	553106	0	0
2024-09-14 09:57:47			0	38035	0	0	0	25228	23830	157744	27367	1064292	46749	109328	0	0	8165	552479	0	0
2024-09-14 09:58:47			0	38020	0	0	0	25202	23830	157647	27332	1064346	46749	109318	0	0	8165	553067	0	0
2024-09-14 09:59:47			0	38042	0	0	0	25197	23830	157672	27350	1064283	46760	109316	0	0	8166	552205	0	0
2024-09-14 10:00:47			0	38029	0	0	0	25171	23810	157667	27711	1064122	46758	109306	0	0	8166	552777	0	0
2024-09-14 10:01:47			0	38035	0	0	0	25173	23820	157688	27460	1064158	46759	109307	0	0	8166	552510	0	0
2024-09-14 10:02:47			0	38034	0	0	0	25210	23810	157672	27069	1064176	46758	109321	0	0	8165	552581	0	0
2024-09-14 10:03:47			0	38038	0	0	0	25231	23810	157620	27150	1064220	46747	109329	0	0	8165	552424	0	0
2024-09-14 10:04:47			0	38048	0	0	0	25181	23800	157644	27381	1064211	46758	109310	0	0	8167	552064	0	0
2024-09-14 10:05:47			0	38086	0	0	0	25275	23800	157488	27260	1064211	46769	109346	0	0	8167	550577	0	0
2024-09-14 10:06:47			0	38085	0	0	0	25254	23820	157564	27623	1064426	46781	109338	0	0	8168	550554	0	0
2024-09-14 10:07:47			0	38078	0	0	0	25275	23820	157448	27353	1064355	46782	109346	0	0	8167	550828	0	0
2024-09-14 10:08:47			0	38084	0	0	0	25272	23820	157488	27376	1064355	46782	109345	0	0	8167	550594	0	0
2024-09-14 10:09:47			0	38082	0	0	0	25264	23830	157496	27301	1064337	46782	109342	0	0	8167	550641	0	0
2024-09-14 10:10:47			0	38107	0	0	0	25272	23840	157428	27317	1064471	46794	109345	0	0	8169	549633	0	0
2024-09-14 10:11:47			0	38115	0	0	0	25316	23830	157548	27166	1064426	46771	109362	0	0	8168	549352	0	0
2024-09-14 10:12:47			0	38085	0	0	0	25309	23850	157512	27403	1064507	46773	109359	0	0	8167	550461	0	0
2024-09-14 10:13:47			0	38095	0	0	0	25329	23850	157464	27414	1064587	46784	109367	0	0	8167	550071	0	0
2024-09-14 10:14:47			0	38118	0	0	0	25345	23860	157396	27474	1064578	46785	109373	0	0	8168	549142	0	0
2024-09-14 10:15:47			0	38107	0	0	0	25363	23870	157468	27417	1064703	46787	109380	0	0	8167	549540	0	0
2024-09-14 10:16:47			0	38119	0	0	0	25329	23870	157532	27379	1064765	46798	109367	0	0	8169	549072	0	0
2024-09-14 10:17:47			0	38087	0	0	0	25350	23880	157416	27189	1064694	46787	109375	0	0	8166	550290	0	0
2024-09-14 10:18:47			0	38118	0	0	0	25348	23890	157476	27130	1064775	46789	109374	0	0	8168	549049	0	0
2024-09-14 10:19:47			0	38090	0	0	0	25353	23890	157392	27137	1064739	46799	109376	0	0	8167	550142	0	0
2024-09-14 10:20:47			0	38096	0	0	0	25329	23890	157292	27161	1064801	46799	109367	0	0	8167	549908	0	0
2024-09-14 10:21:47			0	38113	0	0	0	25355	23910	157392	27225	1064757	46780	109377	0	0	8168	549183	0	0
2024-09-14 10:22:47			0	38106	0	0	0	25337	23910	157284	27251	1064775	46791	109370	0	0	8168	549456	0	0
2024-09-14 10:23:47			0	38097	0	0	0	25342	23910	157356	27183	1064811	46780	109372	0	0	8167	549807	0	0
2024-09-14 10:24:47			0	38126	0	0	0	25350	23910	157276	27422	1064837	46769	109375	0	0	8169	548676	0	0
2024-09-14 10:25:47			0	38129	0	0	0	25322	23910	157240	27573	1064828	46780	109364	0	0	8170	548559	0	0
2024-09-14 10:26:47			0	38126	0	0	0	25322	23910	157304	27175	1064811	46791	109364	0	0	8169	548676	0	0
2024-09-14 10:27:47			0	38132	0	0	0	25293	23910	157192	27511	1064757	46769	109353	0	0	8170	548442	0	0
2024-09-14 10:28:47			0	38128	0	0	0	25311	23920	157144	27324	1064739	46769	109360	0	0	8170	548567	0	0
2024-09-14 10:29:47			0	38144	0	0	0	25301	23920	157144	27239	1064766	46769	109356	0	0	8171	547943	0	0
2024-09-14 10:30:47			0	38150	0	0	0	25322	23910	157252	27483	1064775	46757	109364	0	0	8171	547740	0	0
2024-09-14 10:31:47			0	38147	0	0	0	25298	23910	157180	27326	1064721	46769	109355	0	0	8171	547857	0	0
2024-09-14 10:32:47			0	38130	0	0	0	25272	23910	157140	27530	1064730	46780	109345	0	0	8170	548520	0	0
2024-09-14 10:33:47			0	38147	0	0	0	25280	23910	157196	27261	1064748	46757	109348	0	0	8171	547857	0	0
2024-09-14 10:34:47			0	38170	0	0	0	25270	23900	157164	27383	1064650	46755	109344	0	0	8173	546993	0	0
2024-09-14 10:35:47			0	38151	0	0	0	25275	23900	157056	27372	1064677	46755	109346	0	0	8172	547732	0	0
2024-09-14 10:36:47			0	38167	0	0	0	25309	23900	157172	27580	1064650	46778	109359	0	0	8172	547110	0	0
2024-09-14 10:37:47			0	38168	0	0	0	25296	23890	157176	27346	1064641	46755	109354	0	0	8172	547101	0	0
2024-09-14 10:38:47			0	38165	0	0	0	25246	23890	157188	27086	1064641	46767	109335	0	0	8173	547218	0	0
2024-09-14 10:39:47			0	38193	0	0	0	25251	23890	156980	27486	1064614	46755	109337	0	0	8174	546129	0	0
2024-09-14 10:40:47			0	38218	0	0	0	25257	23880	157008	27326	1064534	46765	109339	0	0	8176	545188	0	0
2024-09-14 10:41:47			0	38207	0	0	0	25262	23880	156892	27398	1064543	46754	109341	0	0	8175	545616	0	0
2024-09-14 10:42:47			0	38216	0	0	0	25257	23880	156856	27319	1064569	46766	109339	0	0	8176	545266	0	0
2024-09-14 10:43:47			0	38225	0	0	0	25241	23880	156928	27102	1064516	46766	109333	0	0	8176	544917	0	0
2024-09-14 10:44:47			0	38218	0	0	0	25231	23860	156788	27131	1064480	46742	109329	0	0	8176	545250	0	0
2024-09-14 10:45:47			0	38226	0	0	0	25223	23870	156796	27568	1064462	46753	109326	0	0	8177	544908	0	0
2024-09-14 10:46:47			0	38226	0	0	0	25205	23850	156808	27355	1064382	46750	109319	0	0	8177	544970	0	0
2024-09-14 10:47:47			0	38252	0	0	0	25262	23840	156848	27270	1064337	46740	109341	0	0	8177	543992	0	0
2024-09-14 10:48:47			0	38221	0	0	0	25272	23850	156884	27227	1064400	46784	109345	0	0	8175	545164	0	0
2024-09-14 10:49:47			0	38231	0	0	0	25267	23850	156860	27138	1064480	46773	109343	0	0	8176	544776	0	0
2024-09-14 10:50:47			0	38226	0	0	0	25241	23860	156916	27300	1064525	46774	109333	0	0	8176	544939	0	0
2024-09-14 10:51:47			0	38247	0	0	0	25225	23860	156752	27092	1064480	46764	109327	0	0	8178	544124	0	0
2024-09-14 10:52:47			0	38247	0	0	0	25228	23850	156864	27078	1064409	46762	109328	0	0	8178	544155	0	0
2024-09-14 10:53:47			0	38231	0	0	0	25277	23850	156908	27426	1064462	46773	109347	0	0	8176	544776	0	0
2024-09-14 10:54:47			0	38237	0	0	0	25293	23850	156952	27499	1064542	46762	109353	0	0	8176	544543	0	0
2024-09-14 10:55:47			0	38217	0	0	0	25280	23850	156984	27268	1064507	46784	109348	0	0	8175	545319	0	0
2024-09-14 10:56:47			0	38227	0	0	0	25277	23860	157004	26864	1064533	46775	109347	0	0	8176	544900	0	0
2024-09-14 10:57:47			0	38225	0	0	0	25249	23860	156972	26941	1064471	46774	109336	0	0	8176	544978	0	0
2024-09-14 10:58:47			0	38240	0	0	0	25233	23850	156984	27365	1064462	46750	109330	0	0	8177	544426	0	0
2024-09-14 10:59:47			0	38227	0	0	0	25210	23860	156944	27352	1064444	46741	109321	0	0	8177	544900	0	0
2024-09-14 11:00:47			0	38238	0	0	0	25233	23840	156896	27403	1064355	46750	109330	0	0	8177	544535	0	0
2024-09-14 11:01:47			0	38249	0	0	0	25225	23830	156800	27215	1064346	46749	109327	0	0	8178	544139	0	0
2024-09-14 11:02:47			0	38249	0	0	0	25238	23840	156908	26953	1064364	46750	109332	0	0	8178	544108	0	0
2024-09-14 11:03:47			0	38255	0	0	0	25251	23830	156872	27062	1064319	46771	109337	0	0	8178	543906	0	0
2024-09-14 11:04:47			0	38234	0	0	0	25262	23840	156984	26948	1064382	46750	109341	0	0	8176	544690	0	0
2024-09-14 11:05:47			0	38234	0	0	0	25264	23850	156852	27268	1064453	46762	109342	0	0	8176	544659	0	0
2024-09-14 11:06:47			0	38239	0	0	0	25228	23840	156852	26981	1064444	46750	109328	0	0	8177	544496	0	0
2024-09-14 11:07:47			0	38233	0	0	0	25316	23840	156960	27005	1064435	46761	109362	0	0	8175	544729	0	0
2024-09-14 11:08:47			0	38221	0	0	0	25337	23840	157052	27248	1064489	46772	109370	0	0	8174	545195	0	0
2024-09-14 11:09:47			0	38219	0	0	0	25314	23850	157100	27187	1064596	46784	109361	0	0	8175	545242	0	0
2024-09-14 11:10:47			0	38212	0	0	0	25280	23870	157088	27386	1064649	46798	109348	0	0	8175	545452	0	0
2024-09-14 11:11:47			0	38210	0	0	0	25280	23860	156996	27270	1064551	46774	109348	0	0	8175	545561	0	0
2024-09-14 11:12:47			0	38199	0	0	0	25270	23860	156888	27124	1064525	46763	109344	0	0	8174	545988	0	0
2024-09-14 11:13:47			0	38214	0	0	0	25283	23860	156840	27086	1064551	46763	109349	0	0	8175	545405	0	0
2024-09-14 11:14:47			0	38216	0	0	0	25290	23860	156992	27246	1064533	46764	109352	0	0	8175	545328	0	0
2024-09-14 11:15:47			0	38232	0	0	0	25246	23860	156812	27197	1064533	46786	109335	0	0	8177	544706	0	0
2024-09-14 11:16:47			0	38210	0	0	0	25246	23860	156924	27104	1064480	46764	109335	0	0	8175	545561	0	0
2024-09-14 11:17:47			0	38255	0	0	0	25238	23860	156840	27435	1064444	46751	109332	0	0	8178	543814	0	0
2024-09-14 11:18:47			0	38263	0	0	0	25231	23860	156812	27332	1064471	46741	109329	0	0	8179	543504	0	0
2024-09-14 11:19:47			0	38256	0	0	0	25244	23850	156816	27102	1064400	46750	109334	0	0	8178	543806	0	0
2024-09-14 11:20:47			0	38253	0	0	0	25249	23840	156948	27379	1064391	46762	109336	0	0	8178	543953	0	0
2024-09-14 11:21:47			0	38263	0	0	0	25236	23850	156804	27227	1064435	46762	109331	0	0	8178	543534	0	0
2024-09-14 11:22:47			0	38267	0	0	0	25244	23840	156700	27244	1064417	46750	109334	0	0	8179	543410	0	0
2024-09-14 11:23:47			0	38269	0	0	0	25277	23840	156812	27246	1064435	46772	109347	0	0	8178	543333	0	0
2024-09-14 11:24:47			0	38262	0	0	0	25277	23840	156796	27341	1064462	46750	109347	0	0	8178	543604	0	0
2024-09-14 11:25:47			0	38256	0	0	0	25251	23840	156916	27154	1064444	46773	109337	0	0	8178	543836	0	0
2024-09-14 11:26:47			0	38270	0	0	0	25241	23840	156784	27223	1064364	46773	109333	0	0	8179	543294	0	0
2024-09-14 11:27:47			0	38251	0	0	0	25249	23840	156740	26935	1064417	46762	109336	0	0	8178	544030	0	0
2024-09-14 11:28:47			0	38273	0	0	0	25270	23850	156812	27376	1064426	46762	109344	0	0	8178	543147	0	0
2024-09-14 11:29:47			0	38266	0	0	0	25280	23830	156848	26989	1064444	46760	109348	0	0	8178	543479	0	0
2024-09-14 11:30:47			0	38274	0	0	0	25293	23850	156888	27012	1064480	46773	109353	0	0	8178	543108	0	0
2024-09-14 11:31:47			0	38276	0	0	0	25283	23840	156820	26953	1064471	46762	109349	0	0	8178	543061	0	0
2024-09-14 11:32:47			0	38282	0	0	0	25272	23840	156896	27093	1064471	46784	109345	0	0	8179	542829	0	0
2024-09-14 11:33:47			0	38285	0	0	0	25259	23850	156788	27232	1064516	46762	109340	0	0	8179	542682	0	0
2024-09-14 11:34:47			0	38270	0	0	0	25288	23840	156840	27171	1064444	46784	109351	0	0	8178	543294	0	0
2024-09-14 11:35:47			0	38262	0	0	0	25301	23840	156956	27384	1064498	46762	109356	0	0	8177	543604	0	0
2024-09-14 11:36:47			0	38288	0	0	0	25277	23850	156756	27241	1064507	46773	109347	0	0	8179	542566	0	0
2024-09-14 11:37:47			0	38278	0	0	0	25296	23850	156756	27216	1064560	46750	109354	0	0	8178	542953	0	0
2024-09-14 11:38:47			0	38294	0	0	0	25288	23870	156724	27182	1064542	46776	109351	0	0	8179	542273	0	0
2024-09-14 11:39:47			0	38306	0	0	0	25259	23870	156688	27192	1064516	46765	109340	0	0	8181	541808	0	0
2024-09-14 11:40:47			0	38290	0	0	0	25298	23870	156696	27277	1064596	46753	109355	0	0	8179	542427	0	0
2024-09-14 11:41:47			0	38311	0	0	0	25324	23860	156708	27294	1064587	46775	109365	0	0	8180	541645	0	0
2024-09-14 11:42:47			0	38305	0	0	0	25301	23870	156588	27196	1064623	46787	109356	0	0	8180	541847	0	0
2024-09-14 11:43:47			0	38313	0	0	0	25314	23870	156632	27268	1064596	46776	109361	0	0	8180	541538	0	0
2024-09-14 11:44:47			0	38301	0	0	0	25290	23870	156620	27246	1064632	46776	109352	0	0	8180	542002	0	0
2024-09-14 11:45:47			0	38297	0	0	0	25285	23870	156540	27386	1064658	46776	109350	0	0	8180	542156	0	0
2024-09-14 11:46:47			0	38298	0	0	0	25324	23880	156656	27220	1064614	46765	109365	0	0	8179	542087	0	0
2024-09-14 11:47:47			0	38292	0	0	0	25329	23870	156708	27280	1064685	46765	109367	0	0	8179	542350	0	0
2024-09-14 11:48:47			0	38296	0	0	0	25293	23870	156736	27239	1064685	46753	109353	0	0	8180	542195	0	0
2024-09-14 11:49:47			0	38275	0	0	0	25314	23880	156720	27308	1064623	46788	109361	0	0	8178	542978	0	0
2024-09-14 11:50:47			0	38286	0	0	0	25329	23880	156688	27265	1064721	46776	109367	0	0	8178	542552	0	0
2024-09-14 11:51:47			0	38305	0	0	0	25296	23890	156584	27331	1064721	46778	109354	0	0	8180	541786	0	0
2024-09-14 11:52:47			0	38322	0	0	0	25270	23880	156532	26949	1064623	46777	109344	0	0	8181	541159	0	0
2024-09-14 11:53:47			0	38349	0	0	0	25272	23890	156436	27244	1064605	46767	109345	0	0	8183	540086	0	0
2024-09-14 11:54:47			0	38359	0	0	0	25280	23880	156420	27090	1064596	46754	109348	0	0	8183	539730	0	0
2024-09-14 11:55:47			0	38354	0	0	0	25296	23880	156336	27175	1064650	46766	109354	0	0	8183	539923	0	0
2024-09-14 11:56:47			0	38363	0	0	0	25280	23880	156404	27260	1064587	46765	109348	0	0	8184	539576	0	0
2024-09-14 11:57:47			0	38385	0	0	0	25298	23880	156344	27213	1064596	46777	109355	0	0	8185	538727	0	0
2024-09-14 11:58:47			0	38366	0	0	0	25285	23880	156340	27234	1064641	46765	109350	0	0	8184	539460	0	0
2024-09-14 11:59:47			0	38374	0	0	0	25303	23880	156340	27069	1064641	46765	109357	0	0	8184	539151	0	0
2024-09-14 12:00:47			0	38375	0	0	0	25309	23890	156292	27173	1064632	46767	109359	0	0	8184	539082	0	0
2024-09-14 12:01:47			0	38381	0	0	0	25303	23880	156304	26890	1064587	46787	109357	0	0	8184	538881	0	0
2024-09-14 12:02:47			0	38385	0	0	0	25293	23880	156300	27076	1064650	46777	109353	0	0	8185	538727	0	0
2024-09-14 12:03:47			0	38408	0	0	0	25296	23880	156364	27135	1064676	46777	109354	0	0	8186	537841	0	0
2024-09-14 12:04:47			0	38383	0	0	0	25306	23870	156224	27152	1064649	46765	109358	0	0	8184	538835	0	0
2024-09-14 12:05:47			0	38378	0	0	0	25353	23870	156392	27258	1064685	46776	109376	0	0	8183	539028	0	0
2024-09-14 12:06:47			0	38357	0	0	0	25366	23880	156408	27377	1064783	46777	109381	0	0	8182	539807	0	0
2024-09-14 12:07:47			0	38372	0	0	0	25348	23900	156356	27218	1064810	46799	109374	0	0	8183	539168	0	0
2024-09-14 12:08:47			0	38363	0	0	0	25345	23900	156420	27157	1064757	46778	109373	0	0	8183	539515	0	0
2024-09-14 12:09:47			0	38366	0	0	0	25311	23900	156248	27319	1064793	46768	109360	0	0	8183	539399	0	0
2024-09-14 12:10:47			0	38360	0	0	0	25350	23900	156312	27163	1064766	46779	109375	0	0	8182	539631	0	0
2024-09-14 12:11:47			0	38368	0	0	0	25363	23900	156292	27279	1064739	46790	109380	0	0	8183	539322	0	0
2024-09-14 12:12:47			0	38338	0	0	0	25379	23910	156364	27020	1064855	46780	109386	0	0	8181	540449	0	0
2024-09-14 12:13:47			0	38340	0	0	0	25394	23910	156436	27005	1064882	46791	109392	0	0	8181	540372	0	0
2024-09-14 12:14:47			0	38337	0	0	0	25389	23920	156540	27376	1064989	46791	109390	0	0	8180	540458	0	0
2024-09-14 12:15:47			0	38328	0	0	0	25376	23930	156440	26998	1065007	46792	109385	0	0	8180	540775	0	0
2024-09-14 12:16:47			0	38316	0	0	0	25399	23940	156496	27350	1065043	46783	109394	0	0	8179	541208	0	0
2024-09-14 12:17:47			0	38312	0	0	0	25394	23940	156512	27086	1065079	46772	109392	0	0	8179	541363	0	0
2024-09-14 12:18:47			0	38321	0	0	0	25381	23940	156476	27213	1065052	46793	109387	0	0	8180	541015	0	0
2024-09-14 12:19:47			0	38313	0	0	0	25376	23940	156476	27512	1065079	46783	109385	0	0	8179	541324	0	0
2024-09-14 12:20:47			0	38314	0	0	0	25366	23950	156452	27308	1065043	46795	109381	0	0	8180	541255	0	0
2024-09-14 12:21:47			0	38321	0	0	0	25366	23940	156440	27436	1064972	46760	109381	0	0	8180	541015	0	0
2024-09-14 12:22:47			0	38360	0	0	0	25366	23950	156432	27208	1065008	46761	109381	0	0	8182	539479	0	0
2024-09-14 12:23:47			0	38372	0	0	0	25368	23950	156356	27223	1064936	46785	109382	0	0	8183	539016	0	0
2024-09-14 12:24:47			0	38361	0	0	0	25363	23950	156260	27296	1064990	46785	109380	0	0	8182	539440	0	0
2024-09-14 12:25:47			0	38344	0	0	0	25376	23950	156352	26961	1064963	46774	109385	0	0	8181	540096	0	0
2024-09-14 12:26:47			0	38355	0	0	0	25371	23940	156340	27441	1064999	46772	109383	0	0	8182	539702	0	0
2024-09-14 12:27:47			0	38368	0	0	0	25381	23960	156196	27336	1065026	46774	109387	0	0	8183	539140	0	0
2024-09-14 12:28:47			0	38361	0	0	0	25379	23940	156384	26956	1065106	46783	109386	0	0	8182	539470	0	0
2024-09-14 12:29:47			0	38358	0	0	0	25384	23950	156340	27204	1065017	46774	109388	0	0	8182	539556	0	0
2024-09-14 12:30:47			0	38353	0	0	0	25376	23950	156304	27015	1065070	46774	109385	0	0	8182	539749	0	0
2024-09-14 12:31:47			0	38341	0	0	0	25371	23950	156404	27216	1065043	46785	109383	0	0	8181	540212	0	0
2024-09-14 12:32:47			0	38371	0	0	0	25379	23950	156344	27157	1065088	46773	109386	0	0	8183	539054	0	0
2024-09-14 12:33:47			0	38353	0	0	0	25376	23950	156356	27156	1065061	46773	109385	0	0	8182	539749	0	0
2024-09-14 12:34:47			0	38326	0	0	0	25361	23960	156448	27274	1065088	46785	109379	0	0	8181	540761	0	0
2024-09-14 12:35:47			0	38335	0	0	0	25363	23960	156432	27293	1065052	46785	109380	0	0	8181	540413	0	0
2024-09-14 12:36:47			0	38320	0	0	0	25371	23950	156388	27164	1065043	46774	109383	0	0	8180	541023	0	0
2024-09-14 12:37:47			0	38303	0	0	0	25368	23960	156404	27085	1065052	46762	109382	0	0	8179	541650	0	0
2024-09-14 12:38:47			0	38327	0	0	0	25374	23960	156508	27048	1065052	46785	109384	0	0	8180	540722	0	0
2024-09-14 12:39:47			0	38337	0	0	0	25374	23960	156396	27175	1065052	46795	109384	0	0	8181	540336	0	0
2024-09-14 12:40:47			0	38332	0	0	0	25376	23950	156428	27131	1065043	46785	109385	0	0	8181	540559	0	0
2024-09-14 12:41:47			0	38349	0	0	0	25371	23960	156432	27383	1065026	46785	109383	0	0	8182	539873	0	0
2024-09-14 12:42:47			0	38335	0	0	0	25374	23960	156412	27237	1065079	46774	109384	0	0	8181	540413	0	0
2024-09-14 12:43:47			0	38347	0	0	0	25379	23950	156472	27241	1065061	46794	109386	0	0	8181	539980	0	0
2024-09-14 12:44:47			0	38342	0	0	0	25381	23960	156440	27474	1065079	46774	109387	0	0	8181	540143	0	0
2024-09-14 12:45:47			0	38361	0	0	0	25386	23960	156372	26930	1065079	46762	109389	0	0	8182	539410	0	0
2024-09-14 12:46:47			0	38340	0	0	0	25402	23960	156368	27234	1065106	46785	109395	0	0	8181	540220	0	0
2024-09-14 12:47:47			0	38368	0	0	0	25397	23960	156464	27265	1065088	46785	109393	0	0	8182	539140	0	0
2024-09-14 12:48:47			0	38361	0	0	0	25386	23970	156324	27260	1065177	46786	109389	0	0	8182	539379	0	0
2024-09-14 12:49:47			0	38380	0	0	0	25392	23960	156284	27230	1065142	46774	109391	0	0	8183	538677	0	0
2024-09-14 12:50:47			0	38386	0	0	0	25405	23970	156212	27274	1065097	46775	109396	0	0	8183	538415	0	0
2024-09-14 12:51:47			0	38381	0	0	0	25402	23970	156076	27381	1065097	46786	109395	0	0	8183	538608	0	0
2024-09-14 12:52:47			0	38399	0	0	0	25392	23970	156272	27310	1065133	46765	109391	0	0	8184	537915	0	0
2024-09-14 12:53:47			0	38391	0	0	0	25392	23970	156236	27275	1065124	46775	109391	0	0	8184	538223	0	0
2024-09-14 12:54:47			0	38395	0	0	0	25394	23970	156192	27109	1065124	46786	109392	0	0	8184	538069	0	0
2024-09-14 12:55:47			0	38387	0	0	0	25407	23970	156128	27582	1065151	46763	109397	0	0	8183	538377	0	0
2024-09-14 12:56:47			0	38376	0	0	0	25410	23970	156328	27390	1065186	46776	109398	0	0	8183	538801	0	0
2024-09-14 12:57:47			0	38375	0	0	0	25412	23970	156284	27192	1065213	46787	109399	0	0	8183	538839	0	0
2024-09-14 12:58:47			0	38369	0	0	0	25407	23970	156400	27067	1065160	46787	109397	0	0	8182	539071	0	0
2024-09-14 12:59:47			0	38380	0	0	0	25405	23970	156248	27268	1065258	46775	109396	0	0	8183	538647	0	0
2024-09-14 13:00:47			0	38396	0	0	0	25412	23970	156244	27286	1065213	46776	109399	0	0	8184	538030	0	0
2024-09-14 13:01:47			0	38386	0	0	0	25412	23980	156344	26984	1065204	46776	109399	0	0	8183	538385	0	0
2024-09-14 13:02:47			0	38398	0	0	0	25412	23980	156252	27098	1065302	46787	109399	0	0	8184	537923	0	0
2024-09-14 13:03:47			0	38394	0	0	0	25418	23980	156196	27147	1065285	46787	109401	0	0	8184	538077	0	0
2024-09-14 13:04:47			0	38411	0	0	0	25410	23980	156088	26896	1065285	46787	109398	0	0	8185	537423	0	0
2024-09-14 13:05:47			0	38404	0	0	0	25412	23980	156088	26885	1065285	46787	109399	0	0	8184	537692	0	0
2024-09-14 13:06:47			0	38427	0	0	0	25423	23990	156016	27050	1065320	46777	109403	0	0	8185	536777	0	0
2024-09-14 13:07:47			0	38399	0	0	0	25418	23990	156188	27472	1065294	46766	109401	0	0	8184	537854	0	0
2024-09-14 13:08:47			0	38405	0	0	0	25423	24000	156192	27145	1065338	46789	109403	0	0	8184	537593	0	0
2024-09-14 13:09:47			0	38408	0	0	0	25423	23990	156060	27694	1065347	46788	109403	0	0	8184	537508	0	0
2024-09-14 13:10:47			0	38407	0	0	0	25420	23980	156036	27121	1065231	46787	109402	0	0	8184	537576	0	0
2024-09-14 13:11:47			0	38389	0	0	0	25431	23990	156024	27048	1065356	46789	109406	0	0	8183	538239	0	0
2024-09-14 13:12:47			0	38386	0	0	0	25428	24000	156240	27192	1065347	46790	109405	0	0	8183	538324	0	0
2024-09-14 13:13:47			0	38393	0	0	0	25428	23990	156176	27076	1065329	46778	109405	0	0	8183	538085	0	0
2024-09-14 13:14:47			0	38417	0	0	0	25431	24000	156084	27339	1065347	46779	109406	0	0	8185	537131	0	0
2024-09-14 13:15:47			0	38434	0	0	0	25428	24010	156032	27421	1065356	46779	109405	0	0	8186	536447	0	0
2024-09-14 13:16:47			0	38441	0	0	0	25428	24000	155876	26993	1065365	46778	109405	0	0	8186	536208	0	0
2024-09-14 13:17:47			0	38523	0	0	0	25438	24000	155596	27287	1065365	46778	109409	0	0	8191	533063	0	0
2024-09-14 13:18:47			0	38551	0	0	0	25433	24000	155524	27485	1065347	46800	109407	0	0	8192	531992	0	0
2024-09-14 13:19:47			0	38566	0	0	0	25444	24010	155440	27249	1065437	46779	109411	0	0	8193	531388	0	0
2024-09-14 13:20:47			0	38571	0	0	0	25436	24000	155392	26998	1065374	46790	109408	0	0	8194	531227	0	0
2024-09-14 13:21:47			0	38561	0	0	0	25431	24000	155496	27308	1065428	46779	109406	0	0	8193	531609	0	0
2024-09-14 13:22:47			0	38560	0	0	0	25425	24000	155524	27190	1065347	46790	109404	0	0	8193	531648	0	0
2024-09-14 13:23:47			0	38577	0	0	0	25431	24000	155472	27164	1065347	46779	109406	0	0	8194	530998	0	0
2024-09-14 13:24:47			0	38585	0	0	0	25441	24000	155420	27150	1065312	46789	109410	0	0	8194	530693	0	0
2024-09-14 13:25:47			0	38579	0	0	0	25438	24010	155280	27159	1065410	46779	109409	0	0	8194	530892	0	0
2024-09-14 13:26:47			0	38606	0	0	0	25436	24010	155420	27462	1065365	46791	109408	0	0	8196	529861	0	0
2024-09-14 13:27:47			0	38596	0	0	0	25438	24020	155324	27268	1065401	46769	109409	0	0	8195	530213	0	0
2024-09-14 13:28:47			0	38565	0	0	0	25444	24010	155388	27131	1065410	46768	109411	0	0	8193	531427	0	0
2024-09-14 13:29:47			0	38579	0	0	0	25441	24010	155464	27384	1065392	46791	109410	0	0	8194	530892	0	0
2024-09-14 13:30:47			0	38594	0	0	0	25446	24010	155444	27272	1065410	46790	109412	0	0	8195	530319	0	0
2024-09-14 13:31:47			0	38634	0	0	0	25444	24010	155312	27128	1065437	46779	109411	0	0	8197	528794	0	0
2024-09-14 13:32:47			0	38619	0	0	0	25444	24010	155332	27197	1065419	46780	109411	0	0	8196	529365	0	0
2024-09-14 13:33:47			0	38615	0	0	0	25444	24010	155304	27203	1065339	46791	109411	0	0	8196	529518	0	0
2024-09-14 13:34:47			0	38617	0	0	0	25438	24020	155236	27625	1065481	46791	109409	0	0	8196	529412	0	0
2024-09-14 13:35:47			0	38666	0	0	0	25441	24010	155156	27358	1065446	46780	109410	0	0	8199	527575	0	0
2024-09-14 13:36:47			0	38651	0	0	0	25444	24010	155004	27320	1065419	46780	109411	0	0	8198	528146	0	0
2024-09-14 13:37:47			0	38688	0	0	0	25438	24000	155056	27343	1065374	46790	109409	0	0	8200	526768	0	0
2024-09-14 13:38:47			0	38717	0	0	0	25438	24010	154940	27027	1065392	46780	109409	0	0	8202	525637	0	0
2024-09-14 13:39:47			0	38708	0	0	0	25431	24010	154868	27164	1065383	46779	109406	0	0	8202	525979	0	0
2024-09-14 13:40:47			0	38699	0	0	0	25433	24010	154932	27473	1065419	46769	109407	0	0	8201	526321	0	0
2024-09-14 13:41:47			0	38676	0	0	0	25428	24010	154920	27326	1065437	46779	109405	0	0	8200	527195	0	0
2024-09-14 13:42:47			0	38657	0	0	0	25402	24010	155060	27308	1065356	46779	109395	0	0	8199	527918	0	0
2024-09-14 13:43:47			0	38602	0	0	0	25402	24010	155188	27121	1065356	46756	109395	0	0	8196	530014	0	0
2024-09-14 13:44:47			0	38577	0	0	0	25405	24000	155368	27116	1065374	46779	109396	0	0	8194	530998	0	0
2024-09-14 13:45:47			0	38575	0	0	0	25412	24000	155460	27001	1065321	46768	109399	0	0	8194	531074	0	0
2024-09-14 13:46:47			0	38543	0	0	0	25410	24000	155520	27305	1065347	46768	109398	0	0	8192	532298	0	0
2024-09-14 13:47:47			0	38560	0	0	0	25415	23990	155432	27450	1065329	46767	109400	0	0	8193	531678	0	0
2024-09-14 13:48:47			0	38577	0	0	0	25412	24000	155372	27339	1065321	46779	109399	0	0	8194	530998	0	0
2024-09-14 13:49:47			0	38551	0	0	0	25399	24000	155472	27367	1065321	46779	109394	0	0	8193	531992	0	0
2024-09-14 13:50:47			0	38538	0	0	0	25405	23990	155460	27209	1065320	46766	109396	0	0	8192	532519	0	0
2024-09-14 13:51:47			0	38521	0	0	0	25402	23990	155576	26975	1065249	46767	109395	0	0	8191	533170	0	0
2024-09-14 13:52:47			0	38536	0	0	0	25410	23990	155588	27445	1065222	46767	109398	0	0	8192	532596	0	0
2024-09-14 13:53:47			0	38570	0	0	0	25418	23990	155440	27116	1065213	46766	109401	0	0	8194	531295	0	0
2024-09-14 13:54:47			0	38581	0	0	0	25410	23990	155440	27402	1065240	46788	109398	0	0	8195	530875	0	0
2024-09-14 13:55:47			0	38545	0	0	0	25399	23990	155480	27216	1065249	46778	109394	0	0	8193	532251	0	0
2024-09-14 13:56:47			0	38570	0	0	0	25397	23990	155580	27060	1065222	46778	109393	0	0	8194	531295	0	0
2024-09-14 13:57:47			0	38563	0	0	0	25405	23980	155500	27150	1065204	46776	109396	0	0	8194	531593	0	0
2024-09-14 13:58:47			0	38568	0	0	0	25412	23980	155516	27431	1065285	46776	109399	0	0	8194	531402	0	0
2024-09-14 13:59:47			0	38596	0	0	0	25402	23980	155328	27376	1065249	46776	109395	0	0	8196	530332	0	0
2024-09-14 14:00:47			0	38592	0	0	0	25407	23990	155336	27114	1065303	46778	109397	0	0	8195	530455	0	0
2024-09-14 14:01:47			0	38604	0	0	0	25410	23980	155296	27277	1065204	46776	109398	0	0	8196	530027	0	0
2024-09-14 14:02:47			0	38614	0	0	0	25405	23980	155328	27390	1065204	46787	109396	0	0	8197	529646	0	0
2024-09-14 14:03:47			0	38615	0	0	0	25412	23990	155208	27046	1065249	46767	109399	0	0	8196	529578	0	0
2024-09-14 14:04:47			0	38623	0	0	0	25405	23990	155260	27310	1065240	46788	109396	0	0	8197	529273	0	0
2024-09-14 14:05:47			0	38634	0	0	0	25402	23990	155352	27305	1065240	46777	109395	0	0	8198	528853	0	0
2024-09-14 14:06:47			0	38638	0	0	0	25402	23990	155208	27218	1065240	46766	109395	0	0	8198	528701	0	0
2024-09-14 14:07:47			0	38655	0	0	0	25402	23980	155184	27157	1065285	46776	109395	0	0	8199	528083	0	0
2024-09-14 14:08:47			0	38653	0	0	0	25402	23980	155136	27557	1065231	46787	109395	0	0	8199	528159	0	0
2024-09-14 14:09:47			0	38651	0	0	0	25410	23990	155144	27381	1065294	46766	109398	0	0	8199	528206	0	0
2024-09-14 14:10:47			0	38617	0	0	0	25405	23990	155132	27409	1065213	46788	109396	0	0	8197	529501	0	0
2024-09-14 14:11:47			0	38635	0	0	0	25402	23980	155112	27393	1065169	46765	109395	0	0	8198	528845	0	0
2024-09-14 14:12:47			0	38631	0	0	0	25428	23990	155180	27329	1065294	46766	109405	0	0	8197	528968	0	0
2024-09-14 14:13:47			0	38654	0	0	0	25415	23990	155104	27119	1065329	46778	109400	0	0	8199	528092	0	0
2024-09-14 14:14:47			0	38647	0	0	0	25415	23990	155124	27308	1065240	46788	109400	0	0	8198	528358	0	0
2024-09-14 14:15:47			0	38636	0	0	0	25415	23990	155160	27635	1065294	46766	109400	0	0	8198	528777	0	0
2024-09-14 14:16:47			0	38647	0	0	0	25412	23990	155012	27414	1065329	46789	109399	0	0	8198	528358	0	0
2024-09-14 14:17:47			0	38678	0	0	0	25407	23990	155012	27440	1065240	46777	109397	0	0	8200	527178	0	0
2024-09-14 14:18:47			0	38661	0	0	0	25407	23990	154948	27673	1065320	46766	109397	0	0	8199	527825	0	0
2024-09-14 14:19:47			0	38662	0	0	0	25405	23990	155064	27190	1065303	46778	109396	0	0	8199	527787	0	0
2024-09-14 14:20:47			0	38673	0	0	0	25399	23980	154920	27407	1065231	46776	109394	0	0	8200	527398	0	0
2024-09-14 14:21:47			0	38673	0	0	0	25418	23990	155020	27086	1065213	46777	109401	0	0	8200	527368	0	0
2024-09-14 14:22:47			0	38699	0	0	0	25418	23990	155052	27164	1065294	46788	109401	0	0	8201	526380	0	0
2024-09-14 14:23:47			0	38696	0	0	0	25410	23990	154992	27116	1065320	46777	109398	0	0	8201	526494	0	0
2024-09-14 14:24:47			0	38692	0	0	0	25410	23990	154972	26958	1065303	46789	109398	0	0	8201	526646	0	0
2024-09-14 14:25:47			0	38687	0	0	0	25412	23990	154936	27338	1065329	46778	109399	0	0	8201	526836	0	0
2024-09-14 14:26:47			0	38687	0	0	0	25407	23990	155032	27066	1065213	46777	109397	0	0	8201	526836	0	0
2024-09-14 14:27:47			0	38696	0	0	0	25405	23980	155120	27104	1065231	46776	109396	0	0	8201	526524	0	0
2024-09-14 14:28:47			0	38709	0	0	0	25420	23980	155024	26986	1065285	46776	109402	0	0	8202	526030	0	0
2024-09-14 14:29:47			0	38713	0	0	0	25397	23990	154972	27177	1065320	46777	109393	0	0	8202	525848	0	0
2024-09-14 14:30:47			0	38715	0	0	0	25394	23990	154900	27275	1065329	46789	109392	0	0	8203	525772	0	0
2024-09-14 14:31:47			0	38732	0	0	0	25402	23990	154861	27043	1065303	46789	109395	0	0	8203	525127	0	0
2024-09-14 14:32:47			0	38748	0	0	0	25399	23980	154941	27163	1065311	46787	109394	0	0	8204	524550	0	0
2024-09-14 14:33:47			0	38738	0	0	0	25394	23980	154865	27161	1065204	46776	109392	0	0	8204	524929	0	0
2024-09-14 14:34:47			0	38728	0	0	0	25405	23990	154932	27381	1065213	46777	109396	0	0	8203	525279	0	0
2024-09-14 14:35:47			0	38725	0	0	0	25415	23990	154957	27156	1065249	46789	109400	0	0	8203	525393	0	0
2024-09-14 14:36:47			0	38712	0	0	0	25410	23990	155000	26889	1065329	46778	109398	0	0	8202	525886	0	0
2024-09-14 14:37:47			0	38720	0	0	0	25402	23980	154888	26920	1065285	46776	109395	0	0	8203	525612	0	0
2024-09-14 14:38:47			0	38722	0	0	0	25397	23980	154936	27126	1065231	46776	109393	0	0	8203	525536	0	0
2024-09-14 14:39:47			0	38714	0	0	0	25384	23980	154984	27329	1065178	46753	109388	0	0	8203	525840	0	0
2024-09-14 14:40:47			0	38704	0	0	0	25371	23980	154996	27249	1065178	46776	109383	0	0	8202	526220	0	0
2024-09-14 14:41:47			0	38719	0	0	0	25368	23980	155100	27265	1065195	46765	109382	0	0	8203	525650	0	0
2024-09-14 14:42:47			0	38695	0	0	0	25379	23980	155068	27161	1065195	46776	109386	0	0	8202	526562	0	0
2024-09-14 14:43:47			0	38703	0	0	0	25376	23980	155008	27182	1065142	46765	109385	0	0	8202	526258	0	0
2024-09-14 14:44:47			0	38691	0	0	0	25384	23980	155120	27086	1065195	46787	109388	0	0	8201	526714	0	0
2024-09-14 14:45:47			0	38722	0	0	0	25384	23970	154924	27187	1065133	46797	109388	0	0	8203	525566	0	0
2024-09-14 14:46:47			0	38723	0	0	0	25379	23970	154976	27138	1065124	46763	109386	0	0	8203	525528	0	0
2024-09-14 14:47:47			0	38712	0	0	0	25376	23970	155040	27199	1065151	46775	109385	0	0	8203	525945	0	0
2024-09-14 14:48:47			0	38705	0	0	0	25371	23960	154948	27281	1065088	46751	109383	0	0	8202	526241	0	0
2024-09-14 14:49:47			0	38697	0	0	0	25363	23970	154984	27239	1065124	46786	109380	0	0	8202	526515	0	0
2024-09-14 14:50:47			0	38702	0	0	0	25358	23960	155012	27175	1065061	46751	109378	0	0	8202	526355	0	0
2024-09-14 14:51:47			0	38709	0	0	0	25361	23960	155008	27364	1065115	46774	109379	0	0	8203	526089	0	0
2024-09-14 14:52:47			0	38714	0	0	0	25374	23950	155008	27267	1065097	46774	109384	0	0	8203	525929	0	0
2024-09-14 14:53:47			0	38697	0	0	0	25366	23950	154944	27803	1065124	46774	109381	0	0	8202	526575	0	0
2024-09-14 14:54:47			0	38708	0	0	0	25368	23950	155028	27291	1065070	46762	109382	0	0	8202	526157	0	0
2024-09-14 14:55:47			0	38721	0	0	0	25379	23960	155024	27595	1065142	46762	109386	0	0	8203	525633	0	0
2024-09-14 14:56:47			0	38708	0	0	0	25371	23960	155000	27367	1065106	46774	109383	0	0	8202	526127	0	0
2024-09-14 14:57:47			0	38732	0	0	0	25374	23960	154925	27407	1065026	46785	109384	0	0	8204	525216	0	0
2024-09-14 14:58:47			0	38732	0	0	0	25371	23950	154917	27216	1065043	46774	109383	0	0	8204	525245	0	0
2024-09-14 14:59:47			0	38729	0	0	0	25366	23960	154921	27346	1065106	46785	109381	0	0	8204	525330	0	0
2024-09-14 15:00:47			0	38733	0	0	0	25363	23950	154993	27331	1065097	46762	109380	0	0	8204	525207	0	0
2024-09-14 15:01:47			0	38738	0	0	0	25374	23950	154913	27142	1064981	46773	109384	0	0	8204	525018	0	0
2024-09-14 15:02:47			0	38731	0	0	0	25368	23950	154941	27149	1065070	46774	109382	0	0	8204	525283	0	0
2024-09-14 15:03:47			0	38744	0	0	0	25374	23960	154817	27308	1065052	46762	109384	0	0	8204	524761	0	0
2024-09-14 15:04:47			0	38735	0	0	0	25379	23950	154925	27215	1065097	46751	109386	0	0	8204	525132	0	0
2024-09-14 15:05:47			0	38751	0	0	0	25376	23960	154849	27282	1065133	46774	109385	0	0	8205	524495	0	0
2024-09-14 15:06:47			0	38769	0	0	0	25376	23960	154821	27182	1065106	46785	109385	0	0	8206	523813	0	0
2024-09-14 15:07:47			0	38777	0	0	0	25363	23950	154757	27220	1065088	46773	109380	0	0	8206	523539	0	0
2024-09-14 15:08:47			0	38774	0	0	0	25363	23950	154729	27303	1065017	46774	109380	0	0	8206	523653	0	0
2024-09-14 15:09:47			0	38781	0	0	0	25361	23960	154737	27109	1065088	46774	109379	0	0	8207	523358	0	0
2024-09-14 15:10:47			0	38789	0	0	0	25361	23960	154701	27326	1065079	46774	109379	0	0	8207	523055	0	0
2024-09-14 15:11:47			0	38788	0	0	0	25374	23950	154729	27128	1065070	46785	109384	0	0	8207	523123	0	0
2024-09-14 15:12:47			0	38792	0	0	0	25358	23950	154721	27208	1065034	46761	109378	0	0	8207	522971	0	0
2024-09-14 15:13:47			0	38786	0	0	0	25358	23950	154709	27071	1065088	46773	109378	0	0	8207	523198	0	0
2024-09-14 15:14:47			0	38767	0	0	0	25374	23960	154725	27319	1065088	46774	109384	0	0	8206	523889	0	0
2024-09-14 15:15:47			0	38774	0	0	0	25386	23960	154745	27121	1065052	46774	109389	0	0	8206	523624	0	0
2024-09-14 15:16:47			0	38787	0	0	0	25389	23960	154713	26882	1065115	46785	109390	0	0	8207	523131	0	0
2024-09-14 15:17:47			0	38791	0	0	0	25386	23960	154745	26975	1065133	46774	109389	0	0	8207	522980	0	0
2024-09-14 15:18:47			0	38789	0	0	0	25389	23950	154697	27405	1065150	46774	109390	0	0	8207	523085	0	0
2024-09-14 15:19:47			0	38784	0	0	0	25386	23960	154841	27076	1065142	46785	109389	0	0	8207	523245	0	0
2024-09-14 15:20:47			0	38785	0	0	0	25392	23960	154801	27194	1065133	46785	109391	0	0	8206	523207	0	0
2024-09-14 15:21:47			0	38782	0	0	0	25386	23970	154837	27124	1065177	46775	109389	0	0	8206	523291	0	0
2024-09-14 15:22:47			0	38778	0	0	0	25412	23960	154877	27249	1065195	46774	109399	0	0	8206	523472	0	0
2024-09-14 15:23:47			0	38758	0	0	0	25425	23970	154817	27170	1065284	46786	109404	0	0	8204	524200	0	0
2024-09-14 15:24:47			0	38790	0	0	0	25428	23980	154773	27355	1065222	46787	109405	0	0	8206	522958	0	0
2024-09-14 15:25:47			0	38778	0	0	0	25420	23970	154657	27267	1065293	46776	109402	0	0	8206	523442	0	0
2024-09-14 15:26:47			0	38793	0	0	0	25402	23980	154629	27201	1065338	46776	109395	0	0	8207	522845	0	0
2024-09-14 15:27:47			0	38806	0	0	0	25397	23980	154593	27265	1065276	46765	109393	0	0	8208	522353	0	0
2024-09-14 15:28:47			0	38787	0	0	0	25397	23980	154673	27289	1065195	46776	109393	0	0	8207	523072	0	0
2024-09-14 15:29:47			0	38785	0	0	0	25379	23980	154613	27379	1065329	46776	109386	0	0	8207	523148	0	0
2024-09-14 15:30:47			0	38794	0	0	0	25399	23980	154617	27189	1065276	46776	109394	0	0	8207	522807	0	0
2024-09-14 15:31:47			0	38809	0	0	0	25392	23970	154605	27197	1065293	46765	109391	0	0	8208	522269	0	0
2024-09-14 15:32:47			0	38818	0	0	0	25381	23970	154541	27545	1065320	46776	109387	0	0	8209	521929	0	0
2024-09-14 15:33:47			0	38808	0	0	0	25386	23970	154541	27580	1065160	46765	109389	0	0	8208	522307	0	0
2024-09-14 15:34:47			0	38798	0	0	0	25405	23970	154613	27802	1065213	46765	109396	0	0	8207	522685	0	0
2024-09-14 15:35:47			0	38820	0	0	0	25405	23970	154525	27142	1065267	46765	109396	0	0	8208	521853	0	0
2024-09-14 15:36:47			0	38808	0	0	0	25394	23980	154637	27540	1065222	46765	109392	0	0	8208	522278	0	0
2024-09-14 15:37:47			0	38805	0	0	0	25389	23980	154565	27372	1065276	46776	109390	0	0	8208	522391	0	0
2024-09-14 15:38:47			0	38799	0	0	0	25394	23970	154553	27092	1065267	46765	109392	0	0	8207	522647	0	0
2024-09-14 15:39:47			0	38797	0	0	0	25399	23980	154621	27274	1065231	46776	109394	0	0	8207	522694	0	0
2024-09-14 15:40:47			0	38802	0	0	0	25420	23980	154617	27199	1065169	46776	109402	0	0	8207	522505	0	0
2024-09-14 15:41:47			0	38824	0	0	0	25407	23980	154489	27365	1065329	46787	109397	0	0	8209	521673	0	0
2024-09-14 15:42:47			0	38823	0	0	0	25418	23980	154465	27154	1065329	46765	109401	0	0	8208	521710	0	0
2024-09-14 15:43:47			0	38835	0	0	0	25407	23970	154341	27230	1065213	46787	109397	0	0	8209	521286	0	0
2024-09-14 15:44:47			0	38817	0	0	0	25436	23980	154493	26866	1065311	46753	109408	0	0	8208	521937	0	0
2024-09-14 15:45:47			0	38833	0	0	0	25436	23980	154477	27237	1065311	46809	109408	0	0	8209	521333	0	0
2024-09-14 15:46:47			0	38859	0	0	0	25407	23990	154377	27163	1065347	46798	109397	0	0	8211	520322	0	0
2024-09-14 15:47:47			0	38885	0	0	0	25418	23990	154405	27329	1065320	46798	109401	0	0	8212	519341	0	0
2024-09-14 15:48:47			0	38877	0	0	0	25428	24000	154345	27057	1065365	46778	109405	0	0	8211	519613	0	0
2024-09-14 15:49:47			0	38873	0	0	0	25441	23990	154297	27229	1065320	46777	109410	0	0	8211	519793	0	0
2024-09-14 15:50:47			0	38874	0	0	0	25436	23990	154329	27052	1065410	46789	109408	0	0	8211	519756	0	0
2024-09-14 15:51:47			0	38885	0	0	0	25436	24000	154285	27112	1065428	46790	109408	0	0	8212	519312	0	0
2024-09-14 15:52:47			0	38878	0	0	0	25428	24000	154285	27289	1065419	46799	109405	0	0	8211	519576	0	0
2024-09-14 15:53:47			0	38876	0	0	0	25446	23990	154397	27241	1065383	46778	109412	0	0	8211	519680	0	0
2024-09-14 15:54:47			0	38867	0	0	0	25436	24000	154293	27390	1065401	46768	109408	0	0	8211	519990	0	0
2024-09-14 15:55:47			0	38874	0	0	0	25433	24000	154241	27474	1065365	46778	109407	0	0	8211	519726	0	0
2024-09-14 15:56:47			0	38885	0	0	0	25438	24010	154317	26894	1065437	46790	109409	0	0	8212	519283	0	0
2024-09-14 15:57:47			0	38886	0	0	0	25428	24000	154257	27076	1065401	46779	109405	0	0	8212	519274	0	0
2024-09-14 15:58:47			0	38890	0	0	0	25444	24000	154253	27291	1065365	46789	109411	0	0	8212	519123	0	0
2024-09-14 15:59:47			0	38878	0	0	0	25431	24010	154289	27319	1065437	46779	109406	0	0	8211	519546	0	0
2024-09-14 16:00:47			0	38881	0	0	0	25436	24000	154409	27393	1065401	46800	109408	0	0	8211	519463	0	0
2024-09-14 16:01:47			0	38865	0	0	0	25438	24000	154225	27256	1065392	46778	109409	0	0	8211	520066	0	0
2024-09-14 16:02:47			0	38885	0	0	0	25441	24020	154285	26977	1065428	46757	109410	0	0	8212	519253	0	0
2024-09-14 16:03:47			0	38854	0	0	0	25446	24010	154325	27213	1065410	46779	109412	0	0	8210	520452	0	0
2024-09-14 16:04:47			0	38867	0	0	0	25451	24010	154345	27312	1065419	46791	109414	0	0	8210	519961	0	0
2024-09-14 16:05:47			0	38876	0	0	0	25462	24010	154269	27076	1065472	46780	109418	0	0	8211	519622	0	0
2024-09-14 16:06:47			0	38867	0	0	0	25475	24010	154429	27220	1065472	46780	109423	0	0	8210	519961	0	0
2024-09-14 16:07:47			0	38858	0	0	0	25480	24010	154341	27372	1065472	46780	109425	0	0	8209	520301	0	0
2024-09-14 16:08:47			0	38879	0	0	0	25475	24030	154337	27107	1065535	46792	109423	0	0	8211	519450	0	0
2024-09-14 16:09:47			0	38899	0	0	0	25457	24030	154217	27201	1065499	46781	109416	0	0	8212	518697	0	0
2024-09-14 16:10:47			0	38892	0	0	0	25444	24020	154201	27149	1065490	46791	109411	0	0	8212	518989	0	0
2024-09-14 16:11:47			0	38912	0	0	0	25444	24040	154085	27220	1065571	46783	109411	0	0	8213	518178	0	0
2024-09-14 16:12:47			0	38916	0	0	0	25444	24030	154145	27171	1065499	46781	109411	0	0	8213	518057	0	0
2024-09-14 16:13:47			0	38898	0	0	0	25464	24030	154141	27282	1065446	46781	109419	0	0	8212	518734	0	0
2024-09-14 16:14:47			0	38911	0	0	0	25449	24020	154153	27251	1065455	46780	109413	0	0	8213	518274	0	0
2024-09-14 16:15:47			0	38907	0	0	0	25451	24020	154149	27325	1065481	46780	109414	0	0	8213	518425	0	0
2024-09-14 16:16:47			0	38910	0	0	0	25457	24030	154233	27178	1065419	46770	109416	0	0	8213	518282	0	0
2024-09-14 16:17:47			0	38917	0	0	0	25451	24030	154141	27628	1065508	46782	109414	0	0	8213	518019	0	0
2024-09-14 16:18:47			0	38899	0	0	0	25462	24020	154257	27507	1065455	46769	109418	0	0	8212	518726	0	0
2024-09-14 16:19:47			0	38888	0	0	0	25462	24030	154309	27138	1065499	46802	109418	0	0	8212	519111	0	0
2024-09-14 16:20:47			0	38864	0	0	0	25457	24030	154369	27440	1065553	46770	109416	0	0	8210	520016	0	0
2024-09-14 16:21:47			0	38836	0	0	0	25464	24030	154393	27312	1065562	46792	109419	0	0	8209	521072	0	0
2024-09-14 16:22:47			0	38842	0	0	0	25464	24040	154429	27528	1065571	46783	109419	0	0	8209	520816	0	0
2024-09-14 16:23:47			0	38816	0	0	0	25475	24030	154449	26987	1065562	46782	109423	0	0	8207	521828	0	0
2024-09-14 16:24:47			0	38810	0	0	0	25467	24030	154529	27255	1065589	46792	109420	0	0	8207	522055	0	0
2024-09-14 16:25:47			0	38811	0	0	0	25451	24040	154477	27060	1065624	46793	109414	0	0	8207	521987	0	0
2024-09-14 16:26:47			0	38810	0	0	0	25457	24030	154441	27310	1065589	46782	109416	0	0	8207	522055	0	0
2024-09-14 16:27:47			0	38812	0	0	0	25454	24040	154525	27324	1065544	46783	109415	0	0	8207	521950	0	0
2024-09-14 16:28:47			0	38805	0	0	0	25467	24030	154597	27176	1065553	46781	109420	0	0	8207	522244	0	0
2024-09-14 16:29:47			0	38789	0	0	0	25462	24030	154605	27178	1065455	46792	109418	0	0	8206	522849	0	0
2024-09-14 16:30:47			0	38778	0	0	0	25451	24030	154605	27119	1065535	46782	109414	0	0	8205	523265	0	0
2024-09-14 16:31:47			0	38779	0	0	0	25459	24030	154633	27130	1065562	46782	109417	0	0	8205	523228	0	0
2024-09-14 16:32:47			0	38782	0	0	0	25449	24030	154789	27154	1065526	46791	109413	0	0	8206	523114	0	0
2024-09-14 16:33:47			0	38763	0	0	0	25420	24030	154625	27301	1065508	46782	109402	0	0	8205	523833	0	0
2024-09-14 16:34:47			0	38769	0	0	0	25446	24030	154665	27353	1065482	46782	109412	0	0	8205	523606	0	0
2024-09-14 16:35:47			0	38776	0	0	0	25425	24020	154597	27454	1065428	46780	109404	0	0	8206	523371	0	0
2024-09-14 16:36:47			0	38782	0	0	0	25431	24030	154585	27194	1065446	46791	109406	0	0	8206	523114	0	0
2024-09-14 16:37:47			0	38797	0	0	0	25412	24010	154645	27066	1065419	46780	109399	0	0	8207	522605	0	0
2024-09-14 16:38:47			0	38799	0	0	0	25405	24010	154537	27026	1065365	46769	109396	0	0	8207	522530	0	0
2024-09-14 16:39:47			0	38770	0	0	0	25412	24010	154537	27128	1065419	46757	109399	0	0	8206	523627	0	0
2024-09-14 16:40:47			0	38789	0	0	0	25399	24000	154597	26890	1065401	46779	109394	0	0	8207	522937	0	0
2024-09-14 16:41:47			0	38766	0	0	0	25423	24000	154677	27267	1065347	46790	109403	0	0	8205	523808	0	0
2024-09-14 16:42:47			0	38751	0	0	0	25431	24010	154805	27498	1065356	46768	109406	0	0	8204	524347	0	0
2024-09-14 16:43:47			0	38745	0	0	0	25431	24010	154893	27196	1065446	46780	109406	0	0	8204	524575	0	0
2024-09-14 16:44:47			0	38716	0	0	0	25438	24010	155052	27377	1065410	46779	109409	0	0	8202	525675	0	0
2024-09-14 16:45:47			0	38697	0	0	0	25433	24000	155052	27072	1065401	46779	109407	0	0	8201	526426	0	0
2024-09-14 16:46:47			0	38695	0	0	0	25444	24020	155040	27196	1065428	46780	109411	0	0	8201	526443	0	0
2024-09-14 16:47:47			0	38674	0	0	0	25451	24020	155076	27313	1065455	46780	109414	0	0	8199	527241	0	0
2024-09-14 16:48:47			0	38648	0	0	0	25451	24010	155180	27291	1065472	46780	109414	0	0	8198	528260	0	0
2024-09-14 16:49:47			0	38640	0	0	0	25444	24020	155256	27154	1065481	46791	109411	0	0	8198	528535	0	0
2024-09-14 16:50:47			0	38644	0	0	0	25438	24020	155256	27362	1065490	46781	109409	0	0	8198	528383	0	0
2024-09-14 16:51:47			0	38624	0	0	0	25431	24020	155332	26859	1065490	46802	109406	0	0	8197	529145	0	0
2024-09-14 16:52:47			0	38652	0	0	0	25425	24010	155232	27052	1065472	46791	109404	0	0	8198	528108	0	0
2024-09-14 16:53:47			0	38644	0	0	0	25415	24010	155136	27296	1065419	46780	109400	0	0	8198	528413	0	0
2024-09-14 16:54:47			0	38654	0	0	0	25397	24020	155068	27369	1065374	46769	109393	0	0	8199	528002	0	0
2024-09-14 16:55:47			0	38650	0	0	0	25397	24000	155084	27241	1065374	46768	109393	0	0	8199	528214	0	0
2024-09-14 16:56:47			0	38665	0	0	0	25392	24000	155108	27272	1065374	46779	109391	0	0	8200	527643	0	0
2024-09-14 16:57:47			0	38652	0	0	0	25394	24000	155132	26852	1065338	46755	109392	0	0	8199	528138	0	0
2024-09-14 16:58:47			0	38657	0	0	0	25384	23990	155200	26974	1065329	46767	109388	0	0	8199	527977	0	0
2024-09-14 16:59:47			0	38653	0	0	0	25384	23990	155192	27197	1065222	46767	109388	0	0	8199	528130	0	0
2024-09-14 17:00:47			0	38637	0	0	0	25397	23990	155372	27156	1065222	46778	109393	0	0	8198	528739	0	0
2024-09-14 17:01:47			0	38626	0	0	0	25410	23980	155296	27074	1065285	46787	109398	0	0	8197	529188	0	0
2024-09-14 17:02:47			0	38646	0	0	0	25405	24000	155356	27168	1065312	46799	109396	0	0	8198	528366	0	0
2024-09-14 17:03:47			0	38618	0	0	0	25397	23990	155328	27183	1065374	46777	109393	0	0	8197	529463	0	0
2024-09-14 17:04:47			0	38614	0	0	0	25410	23980	155328	27274	1065311	46776	109398	0	0	8196	529646	0	0
2024-09-14 17:05:47			0	38613	0	0	0	25412	23980	155472	27209	1065311	46787	109399	0	0	8196	529684	0	0
2024-09-14 17:06:47			0	38593	0	0	0	25420	23990	155436	27059	1065294	46777	109402	0	0	8195	530417	0	0
2024-09-14 17:07:47			0	38606	0	0	0	25412	23990	155444	26991	1065356	46767	109399	0	0	8196	529921	0	0
2024-09-14 17:08:47			0	38603	0	0	0	25402	23980	155488	27144	1065311	46787	109395	0	0	8196	530065	0	0
2024-09-14 17:09:47			0	38612	0	0	0	25386	23990	155372	27057	1065240	46766	109389	0	0	8197	529692	0	0
2024-09-14 17:10:47			0	38613	0	0	0	25389	23990	155336	26908	1065240	46766	109390	0	0	8197	529654	0	0
2024-09-14 17:11:47			0	38604	0	0	0	25381	23990	155380	26948	1065294	46766	109387	0	0	8196	529997	0	0
2024-09-14 17:12:47			0	38629	0	0	0	25350	23980	155448	27203	1065231	46776	109375	0	0	8198	529074	0	0
2024-09-14 17:13:47			0	38630	0	0	0	25358	23980	155348	27334	1065178	46765	109378	0	0	8198	529035	0	0
2024-09-14 17:14:47			0	38643	0	0	0	25350	23970	155380	27326	1065160	46765	109375	0	0	8199	528570	0	0
2024-09-14 17:15:47			0	38635	0	0	0	25340	23970	155296	27175	1065177	46763	109371	0	0	8199	528875	0	0
2024-09-14 17:16:47			0	38626	0	0	0	25350	23970	155380	26915	1065044	46763	109375	0	0	8198	529218	0	0
2024-09-14 17:17:47			0	38651	0	0	0	25342	23960	155240	27090	1065026	46762	109372	0	0	8200	528295	0	0
2024-09-14 17:18:47			0	38628	0	0	0	25337	23950	155332	27156	1065017	46762	109370	0	0	8198	529201	0	0
2024-09-14 17:19:47			0	38646	0	0	0	25327	23950	155204	27001	1065008	46773	109366	0	0	8200	528515	0	0
2024-09-14 17:20:47			0	38630	0	0	0	25322	23950	155312	27258	1065008	46750	109364	0	0	8199	529125	0	0
2024-09-14 17:21:47			0	38634	0	0	0	25324	23940	155236	27050	1065052	46750	109365	0	0	8199	529002	0	0
2024-09-14 17:22:47			0	38649	0	0	0	25327	23930	155392	27190	1065034	46759	109366	0	0	8200	528461	0	0
2024-09-14 17:23:47			0	38633	0	0	0	25319	23930	155392	26967	1064900	46759	109363	0	0	8199	529070	0	0
2024-09-14 17:24:47			0	38620	0	0	0	25319	23940	155408	27206	1064856	46772	109363	0	0	8198	529536	0	0
2024-09-14 17:25:47			0	38633	0	0	0	25319	23930	155396	27319	1064927	46782	109363	0	0	8199	529070	0	0
2024-09-14 17:26:47			0	38639	0	0	0	25319	23930	155356	27282	1064900	46759	109363	0	0	8199	528842	0	0
2024-09-14 17:27:47			0	38629	0	0	0	25324	23930	155392	27024	1064918	46759	109365	0	0	8199	529223	0	0
2024-09-14 17:28:47			0	38625	0	0	0	25314	23920	155336	27365	1064989	46770	109361	0	0	8198	529405	0	0
2024-09-14 17:29:47			0	38649	0	0	0	25316	23930	155388	27144	1064864	46771	109362	0	0	8200	528461	0	0
2024-09-14 17:30:47			0	38636	0	0	0	25314	23920	155388	27320	1064873	46769	109361	0	0	8199	528986	0	0
2024-09-14 17:31:47			0	38628	0	0	0	25314	23920	155320	26935	1064846	46780	109361	0	0	8199	529291	0	0
2024-09-14 17:32:47			0	38631	0	0	0	25309	23910	155372	26958	1064811	46769	109359	0	0	8199	529206	0	0
2024-09-14 17:33:47			0	38633	0	0	0	25319	23910	155372	27296	1064864	46769	109363	0	0	8199	529130	0	0
2024-09-14 17:34:47			0	38635	0	0	0	25335	23910	155372	27246	1064828	46757	109369	0	0	8199	529054	0	0
2024-09-14 17:35:47			0	38621	0	0	0	25329	23910	155324	26963	1064811	46769	109367	0	0	8198	529588	0	0
2024-09-14 17:36:47			0	38624	0	0	0	25319	23910	155376	27147	1064828	46757	109363	0	0	8198	529473	0	0
2024-09-14 17:37:47			0	38625	0	0	0	25298	23900	155420	27064	1064819	46768	109355	0	0	8199	529465	0	0
2024-09-14 17:38:47			0	38611	0	0	0	25296	23910	155360	27138	1064837	46769	109354	0	0	8198	529969	0	0
2024-09-14 17:39:47			0	38603	0	0	0	25303	23900	155436	27234	1064793	46746	109357	0	0	8197	530304	0	0
2024-09-14 17:40:47			0	38596	0	0	0	25293	23900	155392	27232	1064784	46767	109353	0	0	8197	530572	0	0
2024-09-14 17:41:47			0	38600	0	0	0	25288	23900	155384	27345	1064784	46755	109351	0	0	8197	530419	0	0
2024-09-14 17:42:47			0	38589	0	0	0	25285	23910	155316	26948	1064802	46757	109350	0	0	8197	530809	0	0
2024-09-14 17:43:47			0	38591	0	0	0	25306	23900	155532	27147	1064784	46767	109358	0	0	8196	530763	0	0
2024-09-14 17:44:47			0	38590	0	0	0	25288	23880	155500	27355	1064730	46754	109351	0	0	8197	530861	0	0
2024-09-14 17:45:47			0	38572	0	0	0	25285	23890	155540	27102	1064775	46778	109350	0	0	8196	531518	0	0
2024-09-14 17:46:47			0	38570	0	0	0	25306	23880	155528	27421	1064757	46766	109358	0	0	8195	531625	0	0
2024-09-14 17:47:47			0	38569	0	0	0	25311	23900	155572	27199	1064810	46755	109360	0	0	8195	531603	0	0
2024-09-14 17:48:47			0	38591	0	0	0	25311	23890	155516	27417	1064748	46767	109360	0	0	8196	530792	0	0
2024-09-14 17:49:47			0	38569	0	0	0	25306	23890	155560	27229	1064792	46778	109358	0	0	8195	531633	0	0
2024-09-14 17:50:47			0	38555	0	0	0	25303	23890	155604	27178	1064775	46767	109357	0	0	8194	532169	0	0
2024-09-14 17:51:47			0	38548	0	0	0	25298	23890	155596	27227	1064766	46767	109355	0	0	8194	532436	0	0
2024-09-14 17:52:47			0	38536	0	0	0	25290	23890	155648	27201	1064712	46767	109352	0	0	8194	532896	0	0
2024-09-14 17:53:47			0	38546	0	0	0	25293	23890	155676	27166	1064739	46755	109353	0	0	8194	532513	0	0
2024-09-14 17:54:47			0	38536	0	0	0	25306	23880	155724	27369	1064721	46776	109358	0	0	8193	532926	0	0
2024-09-14 17:55:47			0	38535	0	0	0	25290	23890	155712	26934	1064739	46767	109352	0	0	8193	532934	0	0
2024-09-14 17:56:47			0	38528	0	0	0	25301	23890	155784	27180	1064739	46755	109356	0	0	8193	533202	0	0
2024-09-14 17:57:47			0	38532	0	0	0	25335	23890	155776	26944	1064828	46767	109369	0	0	8193	533049	0	0
2024-09-14 17:58:47			0	38535	0	0	0	25324	23890	155704	26918	1064775	46767	109365	0	0	8193	532934	0	0
2024-09-14 17:59:47			0	38542	0	0	0	25311	23900	155728	27275	1064837	46767	109360	0	0	8194	532636	0	0
2024-09-14 18:00:47			0	38548	0	0	0	25335	23900	155728	27296	1064793	46768	109369	0	0	8194	532406	0	0
2024-09-14 18:01:47			0	38532	0	0	0	25327	23900	155736	27204	1064784	46778	109366	0	0	8193	533019	0	0
2024-09-14 18:02:47			0	38521	0	0	0	25322	23900	155752	27249	1064864	46778	109364	0	0	8192	533440	0	0
2024-09-14 18:03:47			0	38525	0	0	0	25306	23900	155712	27057	1064837	46767	109358	0	0	8193	533287	0	0
2024-09-14 18:04:47			0	38503	0	0	0	25301	23900	155756	26998	1064757	46767	109356	0	0	8191	534130	0	0
2024-09-14 18:05:47			0	38518	0	0	0	25316	23900	155888	27171	1064873	46756	109362	0	0	8192	533555	0	0
2024-09-14 18:06:47			0	38503	0	0	0	25327	23900	155744	27261	1064810	46755	109366	0	0	8191	534130	0	0
2024-09-14 18:07:47			0	38495	0	0	0	25306	23890	155772	26863	1064801	46767	109358	0	0	8191	534467	0	0
2024-09-14 18:08:47			0	38490	0	0	0	25301	23900	155884	27289	1064793	46756	109356	0	0	8191	534629	0	0
2024-09-14 18:09:47			0	38482	0	0	0	25306	23900	155924	26812	1064810	46755	109358	0	0	8190	534936	0	0
2024-09-14 18:10:47			0	38479	0	0	0	25327	23900	155936	27156	1064846	46756	109366	0	0	8190	535051	0	0
2024-09-14 18:11:47			0	38473	0	0	0	25345	23890	155952	27215	1064801	46767	109373	0	0	8189	535311	0	0
2024-09-14 18:12:47			0	38464	0	0	0	25324	23890	155916	27152	1064828	46778	109365	0	0	8189	535657	0	0
2024-09-14 18:13:47			0	38456	0	0	0	25327	23900	156008	27196	1064810	46755	109366	0	0	8188	535934	0	0
2024-09-14 18:14:47			0	38462	0	0	0	25327	23900	156004	27116	1064819	46768	109366	0	0	8189	535704	0	0
2024-09-14 18:15:47			0	38468	0	0	0	25348	23900	156040	26967	1064873	46779	109374	0	0	8189	535473	0	0
2024-09-14 18:16:47			0	38443	0	0	0	25332	23910	155992	27192	1064935	46757	109368	0	0	8188	536404	0	0
2024-09-14 18:17:47			0	38432	0	0	0	25348	23910	156068	27107	1064971	46769	109374	0	0	8187	536827	0	0
2024-09-14 18:18:47			0	38421	0	0	0	25332	23910	156016	27140	1064998	46769	109368	0	0	8186	537250	0	0
2024-09-14 18:19:47			0	38442	0	0	0	25306	23910	156088	27164	1064882	46780	109358	0	0	8188	536442	0	0
2024-09-14 18:20:47			0	38432	0	0	0	25301	23920	156120	27026	1064989	46758	109356	0	0	8187	536796	0	0
2024-09-14 18:21:47			0	38417	0	0	0	25301	23910	156032	27010	1064828	46757	109356	0	0	8187	537404	0	0
2024-09-14 18:22:47			0	38413	0	0	0	25298	23900	156164	27284	1064846	46735	109355	0	0	8186	537588	0	0
2024-09-14 18:23:47			0	38413	0	0	0	25251	23900	156112	26830	1064766	46756	109337	0	0	8187	537588	0	0
2024-09-14 18:24:47			0	38398	0	0	0	25272	23900	156208	26953	1064739	46746	109345	0	0	8186	538166	0	0
2024-09-14 18:25:47			0	38381	0	0	0	25262	23900	156256	26785	1064677	46745	109341	0	0	8185	538821	0	0
2024-09-14 18:26:47			0	38355	0	0	0	25309	23890	156316	26965	1064694	46734	109359	0	0	8183	539854	0	0
2024-09-14 18:27:47			0	38359	0	0	0	25353	23890	156396	27107	1064694	46745	109376	0	0	8182	539700	0	0
2024-09-14 18:28:47			0	38362	0	0	0	25392	23880	156392	27253	1064783	46777	109391	0	0	8182	539614	0	0
2024-09-14 18:29:47			0	38351	0	0	0	25379	23910	156304	26878	1064962	46780	109386	0	0	8181	539947	0	0
2024-09-14 18:30:47			0	38348	0	0	0	25363	23910	156400	27317	1065051	46791	109380	0	0	8182	540063	0	0
2024-09-14 18:31:47			0	38354	0	0	0	25379	23920	156440	27140	1065034	46791	109386	0	0	8182	539801	0	0
2024-09-14 18:32:47			0	38345	0	0	0	25368	23920	156416	26852	1065043	46781	109382	0	0	8181	540149	0	0
2024-09-14 18:33:47			0	38348	0	0	0	25366	23940	156468	27234	1065043	46783	109381	0	0	8182	539972	0	0
2024-09-14 18:34:47			0	38337	0	0	0	25363	23930	156356	27260	1065114	46782	109380	0	0	8181	540427	0	0
2024-09-14 18:35:47			0	38341	0	0	0	25402	23930	156492	27088	1065034	46771	109395	0	0	8181	540273	0	0
2024-09-14 18:36:47			0	38326	0	0	0	25399	23940	156452	27325	1065150	46783	109394	0	0	8180	540822	0	0
2024-09-14 18:37:47			0	38361	0	0	0	25379	23950	156452	27168	1065088	46784	109386	0	0	8182	539440	0	0
2024-09-14 18:38:47			0	38343	0	0	0	25381	23940	156480	27272	1065132	46772	109387	0	0	8181	540165	0	0
2024-09-14 18:39:47			0	38331	0	0	0	25415	23950	156492	27020	1065141	46773	109400	0	0	8180	540598	0	0
2024-09-14 18:40:47			0	38337	0	0	0	25358	23940	156420	27145	1065106	46772	109378	0	0	8181	540397	0	0
2024-09-14 18:41:47			0	38324	0	0	0	25366	23950	156392	27112	1065168	46761	109381	0	0	8180	540868	0	0
2024-09-14 18:42:47			0	38329	0	0	0	25397	23960	156492	27059	1065159	46751	109393	0	0	8180	540645	0	0
2024-09-14 18:43:47			0	38332	0	0	0	25438	23950	156456	27339	1065141	46784	109409	0	0	8180	540559	0	0
2024-09-14 18:44:47			0	38330	0	0	0	25410	23950	156416	27294	1065284	46774	109398	0	0	8180	540636	0	0
2024-09-14 18:45:47			0	38328	0	0	0	25389	23960	156464	27039	1065275	46795	109390	0	0	8180	540683	0	0
2024-09-14 18:46:47			0	38294	0	0	0	25384	23970	156428	26911	1065311	46786	109388	0	0	8178	541967	0	0
2024-09-14 18:47:47			0	38302	0	0	0	25410	23960	156388	27152	1065275	46774	109398	0	0	8178	541688	0	0
2024-09-14 18:48:47			0	38319	0	0	0	25410	23970	156608	27027	1065320	46765	109398	0	0	8179	541001	0	0
2024-09-14 18:49:47			0	38317	0	0	0	25438	23970	156544	26722	1065267	46776	109409	0	0	8179	541078	0	0
2024-09-14 18:50:47			0	38327	0	0	0	25457	23980	156520	27064	1065356	46776	109416	0	0	8179	540661	0	0
2024-09-14 18:51:47			0	38297	0	0	0	25425	23980	156508	26986	1065418	46797	109404	0	0	8178	541820	0	0
2024-09-14 18:52:47			0	38311	0	0	0	25394	23980	156492	27298	1065338	46797	109392	0	0	8179	541279	0	0
2024-09-14 18:53:47			0	38294	0	0	0	25389	23980	156576	27140	1065365	46787	109390	0	0	8178	541937	0	0
2024-09-14 18:54:47			0	38293	0	0	0	25397	23990	156460	26963	1065356	46767	109393	0	0	8178	541945	0	0
2024-09-14 18:55:47			0	38283	0	0	0	25399	23980	156548	27398	1065311	46776	109394	0	0	8177	542362	0	0
2024-09-14 18:56:47			0	38291	0	0	0	25423	23990	156688	27069	1065347	46766	109403	0	0	8178	542022	0	0
2024-09-14 18:57:47			0	38295	0	0	0	25410	23980	156504	27133	1065302	46776	109398	0	0	8178	541898	0	0
2024-09-14 18:58:47			0	38280	0	0	0	25407	23980	156536	26705	1065338	46776	109397	0	0	8177	542478	0	0
2024-09-14 18:59:47			0	38275	0	0	0	25402	23990	156640	26791	1065383	46778	109395	0	0	8177	542641	0	0
2024-09-14 19:00:47			0	38264	0	0	0	25399	23980	156592	27036	1065222	46776	109394	0	0	8176	543098	0	0
2024-09-14 19:01:47			0	38263	0	0	0	25412	23990	156564	27062	1065303	46778	109399	0	0	8176	543106	0	0
2024-09-14 19:02:47			0	38274	0	0	0	25392	23980	156628	27229	1065338	46765	109391	0	0	8177	542711	0	0
2024-09-14 19:03:47			0	38261	0	0	0	25379	23980	156624	26854	1065285	46765	109386	0	0	8177	543214	0	0
2024-09-14 19:04:47			0	38262	0	0	0	25394	23980	156740	27182	1065204	46765	109392	0	0	8176	543175	0	0
2024-09-14 19:05:47			0	38268	0	0	0	25394	23980	156668	27055	1065276	46765	109392	0	0	8177	542943	0	0
2024-09-14 19:06:47			0	38257	0	0	0	25381	23980	156704	27052	1065329	46765	109387	0	0	8176	543369	0	0
2024-09-14 19:07:47			0	38250	0	0	0	25389	23980	156644	26892	1065276	46776	109390	0	0	8176	543640	0	0
2024-09-14 19:08:47			0	38255	0	0	0	25389	23980	156668	27140	1065311	46765	109390	0	0	8176	543446	0	0
2024-09-14 19:09:47			0	38256	0	0	0	25353	23980	156700	26987	1065302	46776	109376	0	0	8177	543408	0	0
2024-09-14 19:10:47			0	38236	0	0	0	25384	23980	156804	26850	1065178	46797	109388	0	0	8175	544183	0	0
2024-09-14 19:11:47			0	38243	0	0	0	25386	23980	156832	27072	1065231	46776	109389	0	0	8175	543911	0	0
2024-09-14 19:12:47			0	38249	0	0	0	25405	23970	156756	27239	1065293	46765	109396	0	0	8175	543710	0	0
2024-09-14 19:13:47			0	38255	0	0	0	25397	23970	156772	26854	1065240	46765	109393	0	0	8176	543477	0	0
2024-09-14 19:14:47			0	38225	0	0	0	25353	23970	156816	27308	1065311	46786	109376	0	0	8175	544640	0	0
2024-09-14 19:15:47			0	38227	0	0	0	25361	23970	156760	27289	1065213	46765	109379	0	0	8175	544563	0	0
2024-09-14 19:16:47			0	38215	0	0	0	25361	23960	156816	27232	1065240	46774	109379	0	0	8174	545059	0	0
2024-09-14 19:17:47			0	38211	0	0	0	25316	23970	156836	27088	1065124	46763	109362	0	0	8175	545184	0	0
2024-09-14 19:18:47			0	38220	0	0	0	25358	23960	156816	27036	1065168	46762	109378	0	0	8174	544865	0	0
2024-09-14 19:19:47			0	38202	0	0	0	25350	23950	156844	27138	1065124	46762	109375	0	0	8173	545595	0	0
2024-09-14 19:20:47			0	38204	0	0	0	25376	23960	156880	27081	1065186	46774	109385	0	0	8173	545486	0	0
2024-09-14 19:21:47			0	38226	0	0	0	25355	23960	156872	27182	1065186	46774	109377	0	0	8175	544632	0	0
2024-09-14 19:22:47			0	38211	0	0	0	25361	23960	156788	27222	1065159	46774	109379	0	0	8174	545214	0	0
2024-09-14 19:23:47			0	38184	0	0	0	25342	23950	156908	26838	1065204	46774	109372	0	0	8173	546294	0	0
2024-09-14 19:24:47			0	38219	0	0	0	25363	23960	157032	27149	1065159	46762	109380	0	0	8174	544904	0	0
2024-09-14 19:25:47			0	38188	0	0	0	25384	23960	156984	27081	1065133	46762	109388	0	0	8172	546108	0	0
2024-09-14 19:26:47			0	38199	0	0	0	25361	23960	156864	26993	1065266	46762	109379	0	0	8173	545680	0	0
2024-09-14 19:27:47			0	38209	0	0	0	25358	23960	156880	27074	1065159	46774	109378	0	0	8174	545292	0	0
2024-09-14 19:28:47			0	38191	0	0	0	25324	23960	156948	27227	1065106	46762	109365	0	0	8173	545991	0	0
2024-09-14 19:29:47			0	38196	0	0	0	25355	23960	156948	27324	1065106	46751	109377	0	0	8173	545797	0	0
2024-09-14 19:30:47			0	38192	0	0	0	25337	23950	157012	27145	1065097	46785	109370	0	0	8173	545983	0	0
2024-09-14 19:31:47			0	38184	0	0	0	25386	23950	156984	27001	1065115	46773	109389	0	0	8172	546294	0	0
2024-09-14 19:32:47			0	38189	0	0	0	25389	23950	156968	27013	1065097	46785	109390	0	0	8172	546100	0	0
2024-09-14 19:33:47			0	38198	0	0	0	25407	23940	156976	27175	1065159	46760	109397	0	0	8172	545781	0	0
2024-09-14 19:34:47			0	38233	0	0	0	25405	23960	156924	27319	1065240	46774	109396	0	0	8174	544361	0	0
2024-09-14 19:35:47			0	38216	0	0	0	25386	23970	156916	27230	1065258	46786	109389	0	0	8174	544990	0	0
2024-09-14 19:36:47			0	38195	0	0	0	25384	23960	156968	26909	1065275	46774	109388	0	0	8173	545836	0	0
2024-09-14 19:37:47			0	38199	0	0	0	25405	23960	156944	27111	1065249	46762	109396	0	0	8172	545680	0	0
2024-09-14 19:38:47			0	38199	0	0	0	25392	23970	156896	27128	1065204	46775	109391	0	0	8173	545650	0	0
2024-09-14 19:39:47			0	38207	0	0	0	25379	23960	156928	27156	1065249	46774	109386	0	0	8173	545370	0	0
2024-09-14 19:40:47			0	38198	0	0	0	25379	23970	156908	26948	1065311	46752	109386	0	0	8173	545688	0	0
2024-09-14 19:41:47			0	38183	0	0	0	25386	23960	157092	27001	1065249	46774	109389	0	0	8172	546302	0	0
2024-09-14 19:42:47			0	38208	0	0	0	25374	23970	156984	27097	1065160	46765	109384	0	0	8173	545300	0	0
2024-09-14 19:43:47			0	38181	0	0	0	25311	23960	156932	27294	1065168	46774	109360	0	0	8173	546380	0	0
2024-09-14 19:44:47			0	38187	0	0	0	25381	23960	156916	26989	1065186	46762	109387	0	0	8172	546147	0	0
2024-09-14 19:45:47			0	38187	0	0	0	25389	23960	157016	27055	1065142	46762	109390	0	0	8172	546147	0	0
2024-09-14 19:46:47			0	38182	0	0	0	25368	23960	156980	26928	1065133	46762	109382	0	0	8172	546341	0	0
2024-09-14 19:47:47			0	38192	0	0	0	25386	23960	157068	26797	1065195	46751	109389	0	0	8172	545952	0	0
2024-09-14 19:48:47			0	38169	0	0	0	25405	23960	157044	27218	1065240	46762	109396	0	0	8171	546847	0	0
2024-09-14 19:49:47			0	38189	0	0	0	25412	23960	157016	27287	1065213	46774	109399	0	0	8172	546069	0	0
2024-09-14 19:50:47			0	38178	0	0	0	25376	23960	157040	27156	1065302	46774	109385	0	0	8172	546497	0	0
2024-09-14 19:51:47			0	38168	0	0	0	25379	23970	157044	27253	1065284	46763	109386	0	0	8171	546855	0	0
2024-09-14 19:52:47			0	38177	0	0	0	25392	23970	157040	27027	1065204	46775	109391	0	0	8171	546505	0	0
2024-09-14 19:53:47			0	38172	0	0	0	25394	23970	157064	26915	1065258	46763	109392	0	0	8171	546699	0	0
2024-09-14 19:54:47			0	38181	0	0	0	25366	23960	157044	27192	1065195	46762	109381	0	0	8172	546380	0	0
2024-09-14 19:55:47			0	38155	0	0	0	25402	23970	157024	27066	1065213	46765	109395	0	0	8170	547361	0	0
2024-09-14 19:56:47			0	38181	0	0	0	25405	23960	157148	27170	1065240	46774	109396	0	0	8171	546380	0	0
2024-09-14 19:57:47			0	38170	0	0	0	25381	23970	157124	26791	1065204	46775	109387	0	0	8171	546777	0	0
2024-09-14 19:58:47			0	38157	0	0	0	25386	23970	157096	27131	1065258	46763	109389	0	0	8170	547283	0	0
2024-09-14 19:59:47			0	38162	0	0	0	25386	23960	157040	27097	1065275	46785	109389	0	0	8171	547119	0	0
2024-09-14 20:00:47			0	38147	0	0	0	25392	23970	157096	27248	1065293	46765	109391	0	0	8170	547672	0	0
2024-09-14 20:01:47			0	38166	0	0	0	25374	23970	157064	26819	1065293	46765	109384	0	0	8171	546932	0	0
2024-09-14 20:02:47			0	38157	0	0	0	25376	23970	157128	27258	1065293	46765	109385	0	0	8170	547283	0	0
2024-09-14 20:03:47			0	38151	0	0	0	25392	23970	157104	27090	1065258	46752	109391	0	0	8170	547516	0	0
2024-09-14 20:04:47			0	38164	0	0	0	25407	23970	157104	27320	1065293	46765	109397	0	0	8170	547010	0	0
2024-09-14 20:05:47			0	38177	0	0	0	25392	23970	157144	27173	1065267	46776	109391	0	0	8171	546505	0	0
2024-09-14 20:06:47			0	38171	0	0	0	25397	23970	157080	27079	1065311	46786	109393	0	0	8171	546738	0	0
2024-09-14 20:07:47			0	38172	0	0	0	25394	23970	157100	27071	1065293	46776	109392	0	0	8171	546699	0	0
2024-09-14 20:08:47			0	38174	0	0	0	25397	23970	157136	27152	1065347	46765	109393	0	0	8171	546621	0	0
2024-09-14 20:09:47			0	38152	0	0	0	25402	23980	157076	27159	1065302	46776	109395	0	0	8170	547446	0	0
2024-09-14 20:10:47			0	38162	0	0	0	25381	23980	157076	27180	1065311	46765	109387	0	0	8171	547057	0	0
2024-09-14 20:11:47			0	38144	0	0	0	25342	23970	157112	27152	1065213	46765	109372	0	0	8170	547789	0	0
2024-09-14 20:12:47			0	38138	0	0	0	25361	23980	157220	27254	1065195	46787	109379	0	0	8170	547992	0	0
2024-09-14 20:13:47			0	38120	0	0	0	25381	23970	157156	27241	1065177	46763	109387	0	0	8168	548724	0	0
2024-09-14 20:14:47			0	38146	0	0	0	25389	23960	157256	27434	1065195	46774	109390	0	0	8170	547742	0	0
2024-09-14 20:15:47			0	38131	0	0	0	25384	23960	157236	27147	1065186	46774	109388	0	0	8169	548326	0	0
2024-09-14 20:16:47			0	38140	0	0	0	25345	23960	157220	27164	1065195	46762	109373	0	0	8170	547976	0	0
2024-09-14 20:17:47			0	38128	0	0	0	25376	23960	157288	27147	1065168	46762	109385	0	0	8169	548443	0	0
2024-09-14 20:18:47			0	38131	0	0	0	25363	23960	157224	27149	1065142	46762	109380	0	0	8169	548326	0	0
2024-09-14 20:19:47			0	38135	0	0	0	25350	23960	157244	27093	1065142	46785	109375	0	0	8170	548170	0	0
2024-09-14 20:20:47			0	38124	0	0	0	25350	23950	157336	26961	1065150	46762	109375	0	0	8169	548630	0	0
2024-09-14 20:21:47			0	38134	0	0	0	25368	23950	157328	27000	1065124	46774	109382	0	0	8169	548240	0	0
2024-09-14 20:22:47			0	38145	0	0	0	25358	23950	157356	26949	1065177	46774	109378	0	0	8170	547812	0	0
2024-09-14 20:23:47			0	38126	0	0	0	25355	23950	157308	27235	1065150	46774	109377	0	0	8169	548552	0	0
2024-09-14 20:24:47			0	38139	0	0	0	25358	23960	157328	26951	1065133	46785	109378	0	0	8170	548014	0	0
2024-09-14 20:25:47			0	38134	0	0	0	25363	23950	157448	27268	1065222	46761	109380	0	0	8169	548240	0	0
2024-09-14 20:26:47			0	38132	0	0	0	25350	23950	157396	27357	1065168	46761	109375	0	0	8169	548318	0	0
2024-09-14 20:27:47			0	38122	0	0	0	25355	23960	157428	27282	1065159	46762	109377	0	0	8169	548677	0	0
2024-09-14 20:28:47			0	38128	0	0	0	25374	23940	157320	27097	1065106	46772	109384	0	0	8169	548505	0	0
2024-09-14 20:29:47			0	38123	0	0	0	25366	23950	157376	26889	1065231	46785	109381	0	0	8169	548669	0	0
2024-09-14 20:30:47			0	38124	0	0	0	25366	23950	157468	27222	1065124	46762	109381	0	0	8169	548630	0	0
2024-09-14 20:31:47			0	38114	0	0	0	25363	23950	157292	27175	1065097	46774	109380	0	0	8168	549020	0	0
2024-09-14 20:32:47			0	38122	0	0	0	25368	23950	157276	26972	1065150	46774	109382	0	0	8169	548708	0	0
2024-09-14 20:33:47			0	38120	0	0	0	25358	23940	157308	27220	1065132	46772	109378	0	0	8169	548817	0	0
2024-09-14 20:34:47			0	38118	0	0	0	25358	23960	157428	27265	1065159	46762	109378	0	0	8168	548833	0	0
2024-09-14 20:35:47			0	38092	0	0	0	25371	23960	157544	27128	1065159	46762	109383	0	0	8167	549847	0	0
2024-09-14 20:36:47			0	38104	0	0	0	25366	23950	157428	27246	1065088	46761	109381	0	0	8167	549410	0	0
2024-09-14 20:37:47			0	38111	0	0	0	25371	23950	157500	27171	1065097	46762	109383	0	0	8168	549137	0	0
2024-09-14 20:38:47			0	38103	0	0	0	25363	23950	157432	26866	1065115	46773	109380	0	0	8167	549449	0	0
2024-09-14 20:39:47			0	38092	0	0	0	25363	23950	157508	27199	1065097	46751	109380	0	0	8167	549878	0	0
2024-09-14 20:40:47			0	38109	0	0	0	25366	23950	157480	26939	1065177	46774	109381	0	0	8168	549215	0	0
2024-09-14 20:41:47			0	38087	0	0	0	25355	23940	157460	27079	1065132	46760	109377	0	0	8167	550104	0	0
2024-09-14 20:42:47			0	38107	0	0	0	25350	23950	157496	27272	1065097	46774	109375	0	0	8168	549293	0	0
2024-09-14 20:43:47			0	38086	0	0	0	25355	23950	157500	27227	1065124	46762	109377	0	0	8167	550112	0	0
2024-09-14 20:44:47			0	38085	0	0	0	25348	23940	157436	26956	1065079	46772	109374	0	0	8167	550182	0	0
2024-09-14 20:45:47			0	38086	0	0	0	25350	23950	157520	27218	1065097	46785	109375	0	0	8167	550112	0	0
2024-09-14 20:46:47			0	38097	0	0	0	25366	23940	157468	27052	1065106	46772	109381	0	0	8167	549714	0	0
2024-09-14 20:47:47			0	38087	0	0	0	25368	23950	157464	27305	1065115	46773	109382	0	0	8166	550073	0	0
2024-09-14 20:48:47			0	38083	0	0	0	25361	23950	157528	26922	1065124	46762	109379	0	0	8166	550230	0	0
2024-09-14 20:49:47			0	38055	0	0	0	25368	23950	157640	27215	1065061	46773	109382	0	0	8165	551324	0	0
2024-09-14 20:50:47			0	38068	0	0	0	25366	23950	157520	27261	1065115	46773	109381	0	0	8165	550815	0	0
2024-09-14 20:51:47			0	38072	0	0	0	25374	23950	157472	26968	1065150	46762	109384	0	0	8166	550659	0	0
2024-09-14 20:52:47			0	38090	0	0	0	25376	23940	157448	26791	1065132	46772	109385	0	0	8166	549987	0	0
2024-09-14 20:53:47			0	38089	0	0	0	25363	23950	157472	27124	1065150	46774	109380	0	0	8167	549995	0	0
2024-09-14 20:54:47			0	38087	0	0	0	25374	23950	157544	27104	1065150	46762	109384	0	0	8166	550073	0	0
2024-09-14 20:55:47			0	38087	0	0	0	25358	23950	157504	27105	1065124	46762	109378	0	0	8167	550073	0	0
2024-09-14 20:56:47			0	38092	0	0	0	25358	23950	157500	27076	1065115	46784	109378	0	0	8167	549878	0	0
2024-09-14 20:57:47			0	38062	0	0	0	25345	23950	157564	27272	1065115	46761	109373	0	0	8165	551050	0	0
2024-09-14 20:58:47			0	38074	0	0	0	25342	23950	157556	27183	1065088	46750	109372	0	0	8166	550581	0	0
2024-09-14 20:59:47			0	38067	0	0	0	25337	23950	157488	27201	1065168	46773	109370	0	0	8166	550854	0	0
2024-09-14 21:00:47			0	38071	0	0	0	25342	23950	157540	27215	1065088	46761	109372	0	0	8166	550698	0	0
2024-09-14 21:01:47			0	38053	0	0	0	25342	23950	157616	27072	1065008	46740	109372	0	0	8165	551402	0	0
2024-09-14 21:02:47			0	38047	0	0	0	25345	23940	157572	27090	1065052	46772	109373	0	0	8164	551667	0	0
2024-09-14 21:03:47			0	38064	0	0	0	25340	23940	157572	27331	1065079	46750	109371	0	0	8166	551003	0	0
2024-09-14 21:04:47			0	38051	0	0	0	25332	23930	157624	27199	1065025	46749	109368	0	0	8165	551542	0	0
2024-09-14 21:05:47			0	38044	0	0	0	25322	23930	157628	27379	1065061	46749	109364	0	0	8165	551816	0	0
2024-09-14 21:06:47			0	38033	0	0	0	25324	23930	157724	27206	1065007	46759	109365	0	0	8164	552246	0	0
2024-09-14 21:07:47			0	38051	0	0	0	25332	23920	157576	27017	1065043	46748	109368	0	0	8165	551573	0	0
2024-09-14 21:08:47			0	38049	0	0	0	25340	23930	157648	27036	1065034	46782	109371	0	0	8165	551620	0	0
2024-09-14 21:09:47			0	38055	0	0	0	25329	23940	157640	27168	1065070	46760	109367	0	0	8165	551355	0	0
2024-09-14 21:10:47			0	38061	0	0	0	25345	23920	157648	27097	1064989	46748	109373	0	0	8165	551182	0	0
2024-09-14 21:11:47			0	38048	0	0	0	25327	23920	157716	26897	1065016	46758	109366	0	0	8165	551691	0	0
2024-09-14 21:12:47			0	38056	0	0	0	25335	23920	157704	27135	1065016	46748	109369	0	0	8165	551378	0	0
2024-09-14 21:13:47			0	38055	0	0	0	25342	23920	157684	27150	1065016	46758	109372	0	0	8165	551417	0	0
2024-09-14 21:14:47			0	38040	0	0	0	25337	23920	157624	27242	1065043	46770	109370	0	0	8164	552004	0	0
2024-09-14 21:15:47			0	38044	0	0	0	25332	23920	157656	27109	1064962	46770	109368	0	0	8164	551847	0	0
2024-09-14 21:16:47			0	38055	0	0	0	25342	23920	157624	27187	1064989	46758	109372	0	0	8165	551417	0	0
2024-09-14 21:17:47			0	38041	0	0	0	25335	23920	157684	27090	1064962	46770	109369	0	0	8164	551964	0	0
2024-09-14 21:18:47			0	38035	0	0	0	25316	23910	157696	27107	1064971	46769	109362	0	0	8164	552230	0	0
2024-09-14 21:19:47			0	38048	0	0	0	25345	23920	157736	26923	1064980	46747	109373	0	0	8164	551691	0	0
2024-09-14 21:20:47			0	38029	0	0	0	25340	23910	157667	27300	1064918	46769	109371	0	0	8163	552465	0	0
2024-09-14 21:21:47			0	38032	0	0	0	25335	23910	157744	27074	1064971	46780	109369	0	0	8164	552348	0	0
2024-09-14 21:22:47			0	38029	0	0	0	25329	23920	157720	27209	1065016	46758	109367	0	0	8164	552434	0	0
2024-09-14 21:23:47			0	38016	0	0	0	25337	23920	157776	26920	1064989	46758	109370	0	0	8163	552943	0	0
2024-09-14 21:24:47			0	38037	0	0	0	25309	23920	157816	27222	1064900	46757	109359	0	0	8164	552121	0	0
2024-09-14 21:25:47			0	38025	0	0	0	25319	23910	157744	27097	1064891	46757	109363	0	0	8164	552622	0	0
2024-09-14 21:26:47			0	38036	0	0	0	25314	23920	157780	26781	1064953	46757	109361	0	0	8164	552160	0	0
2024-09-14 21:27:47			0	38018	0	0	0	25329	23910	157719	26974	1064882	46757	109367	0	0	8163	552896	0	0
2024-09-14 21:28:47			0	38020	0	0	0	25319	23920	157819	27175	1064927	46747	109363	0	0	8163	552787	0	0
2024-09-14 21:29:47			0	38023	0	0	0	25335	23920	157811	26930	1064953	46769	109369	0	0	8163	552669	0	0
2024-09-14 21:30:47			0	38022	0	0	0	25329	23910	157751	27121	1064918	46769	109367	0	0	8163	552739	0	0
2024-09-14 21:31:47			0	38006	0	0	0	25324	23910	157811	26876	1064989	46757	109365	0	0	8162	553366	0	0
2024-09-14 21:32:47			0	38007	0	0	0	25316	23910	157819	27218	1064935	46769	109362	0	0	8163	553327	0	0
2024-09-14 21:33:47			0	38013	0	0	0	25329	23920	157819	27383	1065007	46757	109367	0	0	8163	553061	0	0
2024-09-14 21:34:47			0	37997	0	0	0	25332	23910	157863	27163	1064864	46757	109368	0	0	8162	553719	0	0
2024-09-14 21:35:47			0	37999	0	0	0	25316	23900	157851	27163	1064873	46768	109362	0	0	8162	553672	0	0
2024-09-14 21:36:47			0	38013	0	0	0	25327	23910	157863	27270	1064918	46757	109366	0	0	8163	553092	0	0
2024-09-14 21:37:47			0	38003	0	0	0	25311	23910	157839	27279	1064971	46747	109360	0	0	8162	553484	0	0
2024-09-14 21:38:47			0	38009	0	0	0	25322	23910	157883	27234	1064864	46747	109364	0	0	8163	553249	0	0
2024-09-14 21:39:47			0	38000	0	0	0	25316	23910	157843	27445	1064935	46769	109362	0	0	8162	553601	0	0
2024-09-14 21:40:47			0	37989	0	0	0	25319	23910	157903	27178	1064971	46769	109363	0	0	8161	554033	0	0
2024-09-14 21:41:47			0	37979	0	0	0	25322	23910	157819	27220	1064944	46757	109364	0	0	8161	554425	0	0
2024-09-14 21:42:47			0	37994	0	0	0	25337	23910	157927	27230	1064944	46769	109370	0	0	8161	553837	0	0
2024-09-14 21:43:47			0	38006	0	0	0	25332	23910	157895	27168	1064971	46769	109368	0	0	8162	553366	0	0
2024-09-14 21:44:47			0	38000	0	0	0	25324	23910	157895	27182	1064918	46757	109365	0	0	8162	553601	0	0
2024-09-14 21:45:47			0	37999	0	0	0	25322	23910	157915	27402	1064944	46757	109364	0	0	8162	553641	0	0
2024-09-14 21:46:47			0	37996	0	0	0	25314	23910	157955	27071	1064918	46757	109361	0	0	8162	553758	0	0
2024-09-14 21:47:47			0	37984	0	0	0	25332	23910	157815	27315	1064855	46757	109368	0	0	8161	554229	0	0
2024-09-14 21:48:47			0	38003	0	0	0	25319	23910	157799	27078	1064909	46736	109363	0	0	8162	553484	0	0
2024-09-14 21:49:47			0	37990	0	0	0	25327	23910	157855	27364	1064909	46769	109366	0	0	8161	553994	0	0
2024-09-14 21:50:47			0	37988	0	0	0	25322	23910	157883	27227	1064909	46757	109364	0	0	8161	554072	0	0
2024-09-14 21:51:47			0	37989	0	0	0	25316	23910	157939	27306	1064971	46747	109362	0	0	8161	554033	0	0
2024-09-14 21:52:47			0	37995	0	0	0	25322	23910	157875	27001	1064891	46769	109364	0	0	8162	553798	0	0
2024-09-14 21:53:47			0	37986	0	0	0	25324	23910	157983	27098	1064882	46769	109365	0	0	8161	554151	0	0
2024-09-14 21:54:47			0	37980	0	0	0	25311	23900	157879	27015	1064891	46755	109360	0	0	8161	554417	0	0
2024-09-14 21:55:47			0	37956	0	0	0	25322	23900	157983	27041	1064846	46768	109364	0	0	8159	555360	0	0
2024-09-14 21:56:47			0	37980	0	0	0	25319	23900	157871	26706	1064873	46756	109363	0	0	8161	554417	0	0
2024-09-14 21:57:47			0	37982	0	0	0	25314	23900	158019	27164	1064900	46756	109361	0	0	8161	554339	0	0
2024-09-14 21:58:47			0	37964	0	0	0	25319	23900	158027	26939	1064926	46746	109363	0	0	8160	555045	0	0
2024-09-14 21:59:47			0	37974	0	0	0	25309	23900	158083	27348	1064926	46756	109359	0	0	8161	554653	0	0
2024-09-14 22:00:47			0	37955	0	0	0	25298	23900	158071	27105	1064873	46768	109355	0	0	8160	555399	0	0
2024-09-14 22:01:47			0	37954	0	0	0	25311	23920	158147	27072	1064900	46769	109360	0	0	8160	555375	0	0
2024-09-14 22:02:47			0	37958	0	0	0	25309	23900	158079	27175	1064891	46755	109359	0	0	8160	555281	0	0
2024-09-14 22:03:47			0	37960	0	0	0	25319	23900	158107	26883	1064846	46746	109363	0	0	8160	555202	0	0
2024-09-14 22:04:47			0	37967	0	0	0	25319	23900	158035	27088	1064900	46756	109363	0	0	8160	554928	0	0
2024-09-14 22:05:47			0	37965	0	0	0	25309	23910	157983	27287	1064855	46769	109359	0	0	8160	554975	0	0
2024-09-14 22:06:47			0	37955	0	0	0	25319	23900	157987	27244	1064846	46756	109363	0	0	8159	555399	0	0
2024-09-14 22:07:47			0	37975	0	0	0	25322	23900	158011	27135	1064873	46779	109364	0	0	8161	554614	0	0
2024-09-14 22:08:47			0	37955	0	0	0	25301	23900	157891	27308	1064926	46756	109356	0	0	8160	555399	0	0
2024-09-14 22:09:47			0	37988	0	0	0	25309	23890	158015	26939	1064828	46755	109359	0	0	8161	554135	0	0
2024-09-14 22:10:47			0	37997	0	0	0	25306	23890	157999	26902	1064828	46755	109358	0	0	8162	553781	0	0
2024-09-14 22:11:47			0	37986	0	0	0	25306	23900	157827	27123	1064864	46755	109358	0	0	8161	554182	0	0
2024-09-14 22:12:47			0	38013	0	0	0	25311	23890	157903	27251	1064908	46767	109360	0	0	8163	553154	0	0
2024-09-14 22:13:47			0	38010	0	0	0	25319	23900	157943	27248	1064953	46768	109363	0	0	8163	553241	0	0
2024-09-14 22:14:47			0	38025	0	0	0	25316	23890	157839	27033	1064855	46755	109362	0	0	8163	552684	0	0
2024-09-14 22:15:47			0	38009	0	0	0	25319	23900	157715	26975	1064900	46756	109363	0	0	8163	553280	0	0
2024-09-14 22:16:47			0	38036	0	0	0	25309	23900	157744	27152	1064784	46755	109359	0	0	8164	552222	0	0
2024-09-14 22:17:47			0	38039	0	0	0	25298	23900	157668	27268	1064917	46745	109355	0	0	8165	552105	0	0
2024-09-14 22:18:47			0	38037	0	0	0	25311	23890	157800	27142	1064801	46755	109360	0	0	8164	552214	0	0
2024-09-14 22:19:47			0	38037	0	0	0	25303	23900	157656	27053	1064837	46755	109357	0	0	8164	552183	0	0
2024-09-14 22:20:47			0	38045	0	0	0	25301	23900	157736	27466	1064846	46768	109356	0	0	8165	551870	0	0
2024-09-14 22:21:47			0	38016	0	0	0	25298	23900	157731	27133	1064810	46755	109355	0	0	8163	553006	0	0
2024-09-14 22:22:47			0	38030	0	0	0	25293	23900	157776	27249	1064864	46755	109353	0	0	8164	552457	0	0
2024-09-14 22:23:47			0	38017	0	0	0	25290	23900	157807	27206	1064837	46767	109352	0	0	8163	552966	0	0
2024-09-14 22:24:47			0	38021	0	0	0	25277	23890	157675	26882	1064775	46745	109347	0	0	8164	552841	0	0
2024-09-14 22:25:47			0	38032	0	0	0	25277	23890	157692	27296	1064855	46745	109347	0	0	8165	552410	0	0
2024-09-14 22:26:47			0	38052	0	0	0	25270	23880	157784	27296	1064730	46744	109344	0	0	8166	551658	0	0
2024-09-14 22:27:47			0	38036	0	0	0	25296	23890	157760	27478	1064766	46745	109354	0	0	8164	552254	0	0
2024-09-14 22:28:47			0	38048	0	0	0	25301	23880	157792	27300	1064748	46753	109356	0	0	8165	551815	0	0
2024-09-14 22:29:47			0	38057	0	0	0	25293	23880	157716	27003	1064810	46754	109353	0	0	8166	551463	0	0
2024-09-14 22:30:47			0	38045	0	0	0	25290	23890	157704	27471	1064766	46755	109352	0	0	8165	551901	0	0
2024-09-14 22:31:47			0	38061	0	0	0	25309	23880	157708	27580	1064774	46765	109359	0	0	8166	551306	0	0
2024-09-14 22:32:47			0	38066	0	0	0	25303	23880	157700	27119	1064748	46753	109357	0	0	8166	551111	0	0
2024-09-14 22:33:47			0	38068	0	0	0	25306	23880	157560	27126	1064890	46766	109358	0	0	8166	551033	0	0
2024-09-14 22:34:47			0	38061	0	0	0	25314	23890	157584	27038	1064855	46755	109361	0	0	8166	551275	0	0
2024-09-14 22:35:47			0	38067	0	0	0	25301	23880	157604	27000	1064774	46765	109356	0	0	8166	551072	0	0
2024-09-14 22:36:47			0	38070	0	0	0	25316	23890	157588	27253	1064828	46755	109362	0	0	8166	550924	0	0
2024-09-14 22:37:47			0	38059	0	0	0	25311	23890	157596	27152	1064801	46767	109360	0	0	8166	551354	0	0
2024-09-14 22:38:47			0	38073	0	0	0	25316	23900	157612	27358	1064837	46767	109362	0	0	8166	550775	0	0
2024-09-14 22:39:47			0	38080	0	0	0	25311	23890	157612	27189	1064855	46755	109360	0	0	8167	550533	0	0
2024-09-14 22:40:47			0	38083	0	0	0	25316	23890	157632	27338	1064855	46767	109362	0	0	8167	550416	0	0
2024-09-14 22:41:47			0	38078	0	0	0	25303	23890	157616	27116	1064846	46755	109357	0	0	8167	550611	0	0
2024-09-14 22:42:47			0	38062	0	0	0	25301	23890	157548	27308	1064855	46767	109356	0	0	8166	551236	0	0
2024-09-14 22:43:47			0	38083	0	0	0	25298	23890	157632	27281	1064775	46755	109355	0	0	8167	550416	0	0
2024-09-14 22:44:47			0	38098	0	0	0	25296	23890	157580	27177	1064801	46745	109354	0	0	8168	549830	0	0
2024-09-14 22:45:47			0	38071	0	0	0	25311	23890	157656	27105	1064882	46745	109360	0	0	8166	550884	0	0
2024-09-14 22:46:47			0	38071	0	0	0	25311	23900	157596	27230	1064864	46767	109360	0	0	8166	550853	0	0
2024-09-14 22:47:47			0	38069	0	0	0	25290	23890	157588	27275	1064801	46755	109352	0	0	8166	550963	0	0
2024-09-14 22:48:47			0	38084	0	0	0	25306	23890	157608	27291	1064819	46767	109358	0	0	8167	550377	0	0
2024-09-14 22:49:47			0	38085	0	0	0	25309	23880	157588	27402	1064837	46766	109359	0	0	8167	550368	0	0
2024-09-14 22:50:47			0	38097	0	0	0	25296	23890	157484	26849	1064792	46767	109354	0	0	8168	549869	0	0
2024-09-14 22:51:47			0	38085	0	0	0	25296	23890	157592	27166	1064792	46755	109354	0	0	8167	550337	0	0
2024-09-14 22:52:47			0	38079	0	0	0	25283	23890	157604	27255	1064766	46755	109349	0	0	8167	550572	0	0
2024-09-14 22:53:47			0	38067	0	0	0	25288	23880	157584	27222	1064783	46754	109351	0	0	8166	551072	0	0
2024-09-14 22:54:47			0	38084	0	0	0	25293	23880	157624	27152	1064748	46732	109353	0	0	8167	550408	0	0
2024-09-14 22:55:47			0	38081	0	0	0	25298	23880	157596	26918	1064801	46753	109355	0	0	8167	550525	0	0
2024-09-14 22:56:47			0	38078	0	0	0	25298	23890	157540	26923	1064792	46755	109355	0	0	8167	550611	0	0
2024-09-14 22:57:47			0	38067	0	0	0	25303	23880	157608	27194	1064774	46743	109357	0	0	8166	551072	0	0
2024-09-14 22:58:47			0	38075	0	0	0	25293	23880	157520	27133	1064801	46753	109353	0	0	8167	550759	0	0
2024-09-14 22:59:47			0	38061	0	0	0	25283	23880	157628	27183	1064748	46765	109349	0	0	8166	551306	0	0
2024-09-14 23:00:47			0	38051	0	0	0	25296	23880	157764	27197	1064801	46753	109354	0	0	8165	551698	0	0
2024-09-14 23:01:47			0	38065	0	0	0	25293	23890	157676	27067	1064766	46755	109353	0	0	8166	551119	0	0
2024-09-14 23:02:47			0	38038	0	0	0	25288	23880	157640	26984	1064810	46744	109351	0	0	8165	552206	0	0
2024-09-14 23:03:47			0	38050	0	0	0	25285	23880	157660	27019	1064783	46754	109350	0	0	8165	551737	0	0
2024-09-14 23:04:47			0	38030	0	0	0	25293	23870	157728	27171	1064712	46753	109353	0	0	8164	552551	0	0
2024-09-14 23:05:47			0	38033	0	0	0	25285	23890	157760	27348	1064739	46755	109350	0	0	8164	552371	0	0
2024-09-14 23:06:47			0	38029	0	0	0	25290	23880	157739	26967	1064757	46766	109352	0	0	8164	552559	0	0
2024-09-14 23:07:47			0	38053	0	0	0	25285	23880	157684	27145	1064810	46754	109350	0	0	8166	551619	0	0
2024-09-14 23:08:47			0	38026	0	0	0	25288	23890	157720	27145	1064766	46755	109351	0	0	8164	552645	0	0
2024-09-14 23:09:47			0	38023	0	0	0	25296	23880	157711	26941	1064748	46753	109354	0	0	8164	552794	0	0
2024-09-14 23:10:47			0	38017	0	0	0	25283	23880	157735	27279	1064801	46753	109349	0	0	8164	553029	0	0
2024-09-14 23:11:47			0	38027	0	0	0	25285	23880	157783	27144	1064801	46743	109350	0	0	8164	552637	0	0
2024-09-14 23:12:47			0	38029	0	0	0	25272	23870	157720	27088	1064739	46765	109345	0	0	8164	552590	0	0
2024-09-14 23:13:47			0	38002	0	0	0	25262	23870	157843	27249	1064712	46753	109341	0	0	8163	553648	0	0
2024-09-14 23:14:47			0	38007	0	0	0	25267	23870	157771	27220	1064739	46765	109343	0	0	8163	553452	0	0
2024-09-14 23:15:47			0	37997	0	0	0	25262	23870	157815	27201	1064703	46753	109341	0	0	8163	553844	0	0
2024-09-14 23:16:47			0	38008	0	0	0	25262	23860	157819	27241	1064667	46742	109341	0	0	8163	553444	0	0
2024-09-14 23:17:47			0	38008	0	0	0	25262	23860	157819	27130	1064694	46731	109341	0	0	8163	553444	0	0
2024-09-14 23:18:47			0	37990	0	0	0	25251	23870	157851	26920	1064703	46743	109337	0	0	8162	554118	0	0
2024-09-14 23:19:47			0	37970	0	0	0	25251	23870	157851	27272	1064649	46765	109337	0	0	8161	554903	0	0
2024-09-14 23:20:47			0	38008	0	0	0	25257	23860	157831	27445	1064578	46741	109339	0	0	8163	553444	0	0
2024-09-14 23:21:47			0	37999	0	0	0	25259	23860	157767	27109	1064578	46751	109340	0	0	8163	553797	0	0
2024-09-14 23:22:47			0	37999	0	0	0	25254	23860	157895	27284	1064605	46751	109338	0	0	8163	553797	0	0
2024-09-14 23:23:47			0	38005	0	0	0	25262	23850	157795	26960	1064649	46762	109341	0	0	8163	553593	0	0
2024-09-14 23:24:47			0	38007	0	0	0	25251	23860	157903	27008	1064667	46742	109337	0	0	8163	553483	0	0
2024-09-14 23:25:47			0	38002	0	0	0	25254	23850	157791	27435	1064676	46740	109338	0	0	8163	553710	0	0
2024-09-14 23:26:47			0	37977	0	0	0	25233	23850	157863	27313	1064596	46750	109330	0	0	8162	554691	0	0
2024-09-14 23:27:47			0	37979	0	0	0	25241	23850	157915	27452	1064560	46740	109333	0	0	8162	554613	0	0
2024-09-14 23:28:47			0	37978	0	0	0	25249	23850	157931	27095	1064640	46740	109336	0	0	8162	554652	0	0
2024-09-14 23:29:47			0	37980	0	0	0	25264	23850	157951	27303	1064560	46750	109342	0	0	8162	554573	0	0
2024-09-14 23:30:47			0	37975	0	0	0	25254	23840	157923	27260	1064578	46740	109338	0	0	8161	554801	0	0
2024-09-14 23:31:47			0	37969	0	0	0	25257	23840	157999	27152	1064578	46750	109339	0	0	8161	555036	0	0
2024-09-14 23:32:47			0	37967	0	0	0	25251	23850	158035	27031	1064587	46750	109337	0	0	8161	555084	0	0
2024-09-14 23:33:47			0	37963	0	0	0	25244	23840	157907	27038	1064605	46750	109334	0	0	8161	555272	0	0
2024-09-14 23:34:47			0	37963	0	0	0	25241	23850	157975	26968	1064614	46750	109333	0	0	8161	555241	0	0
2024-09-14 23:35:47			0	37934	0	0	0	25241	23850	157987	27138	1064587	46750	109333	0	0	8159	556381	0	0
2024-09-14 23:36:47			0	37944	0	0	0	25246	23850	158015	27216	1064623	46762	109335	0	0	8160	555988	0	0
2024-09-14 23:37:47			0	37926	0	0	0	25251	23840	158151	27213	1064622	46739	109337	0	0	8159	556727	0	0
2024-09-14 23:38:47			0	37948	0	0	0	25231	23840	158151	27242	1064596	46739	109329	0	0	8160	555862	0	0
2024-09-14 23:39:47			0	37940	0	0	0	25225	23840	158159	27185	1064542	46761	109327	0	0	8160	556176	0	0
2024-09-14 23:40:47			0	37931	0	0	0	25225	23840	158179	27161	1064515	46739	109327	0	0	8159	556530	0	0
2024-09-14 23:41:47			0	37914	0	0	0	25210	23850	158163	27239	1064533	46740	109321	0	0	8159	557168	0	0
2024-09-14 23:42:47			0	37902	0	0	0	25225	23840	158243	27305	1064542	46750	109327	0	0	8158	557672	0	0
2024-09-14 23:43:47			0	37882	0	0	0	25207	23830	158347	27298	1064497	46749	109320	0	0	8157	558492	0	0
2024-09-14 23:44:47			0	37885	0	0	0	25186	23820	158307	26774	1064435	46760	109312	0	0	8157	558405	0	0
2024-09-14 23:45:47			0	37875	0	0	0	25176	23820	158379	27152	1064435	46738	109308	0	0	8157	558799	0	0
2024-09-14 23:46:47			0	37846	0	0	0	25176	23810	158359	27038	1064417	46736	109308	0	0	8155	559975	0	0
2024-09-14 23:47:47			0	37837	0	0	0	25179	23810	158615	27267	1064434	46747	109309	0	0	8154	560331	0	0
2024-09-14 23:48:47			0	37808	0	0	0	25171	23810	158679	27046	1064336	46736	109306	0	0	8153	561478	0	0
2024-09-14 23:49:47			0	37801	0	0	0	25181	23800	158687	27227	1064336	46746	109310	0	0	8152	561786	0	0
2024-09-14 23:50:47			0	37802	0	0	0	25179	23800	158763	26968	1064363	46735	109309	0	0	8152	561747	0	0
2024-09-14 23:51:47			0	37794	0	0	0	25186	23800	158779	26748	1064309	46735	109312	0	0	8152	562063	0	0
2024-09-14 23:52:47			0	37801	0	0	0	25186	23800	158739	27053	1064336	46735	109312	0	0	8152	561786	0	0
2024-09-14 23:53:47			0	37794	0	0	0	25192	23790	158771	27036	1064318	46733	109314	0	0	8152	562095	0	0
2024-09-14 23:54:47			0	37802	0	0	0	25194	23790	158711	27237	1064327	46745	109315	0	0	8152	561778	0	0
2024-09-14 23:55:47			0	37815	0	0	0	25197	23790	158627	26866	1064354	46734	109316	0	0	8153	561264	0	0
2024-09-14 23:56:47			0	37793	0	0	0	25192	23790	158663	27071	1064318	46744	109314	0	0	8152	562135	0	0
2024-09-14 23:57:47			0	37788	0	0	0	25179	23790	158671	27086	1064398	46733	109309	0	0	8152	562333	0	0
2024-09-14 23:58:47			0	37805	0	0	0	25189	23790	158631	26956	1064327	46745	109313	0	0	8152	561659	0	0
2024-09-14 23:59:47			0	37827	0	0	0	25181	23790	158787	27069	1064265	46754	109310	0	0	8154	560789	0	0
2024-09-15 00:00:47			0	37804	0	0	0	25181	23790	158735	26916	1064300	46767	109310	0	0	8152	561699	0	0
2024-09-15 00:01:47			0	37782	0	0	0	25176	23790	158679	26982	1064327	46755	109308	0	0	8151	562570	0	0
2024-09-15 00:02:47			0	37785	0	0	0	25173	23780	158719	27173	1064327	46733	109307	0	0	8151	562483	0	0
2024-09-15 00:03:47			0	37759	0	0	0	25179	23780	158807	27253	1064282	46722	109309	0	0	8150	563514	0	0
2024-09-15 00:04:47			0	37754	0	0	0	25189	23780	158915	27225	1064247	46733	109313	0	0	8149	563712	0	0
2024-09-15 00:05:47			0	37763	0	0	0	25189	23780	158835	27388	1064256	46744	109313	0	0	8150	563355	0	0
2024-09-15 00:06:47			0	37767	0	0	0	25173	23780	158891	26840	1064282	46744	109307	0	0	8150	563196	0	0
2024-09-15 00:07:47			0	37766	0	0	0	25184	23780	158751	26996	1064282	46733	109311	0	0	8150	563236	0	0
2024-09-15 00:08:47			0	37745	0	0	0	25179	23780	158867	27258	1064282	46744	109309	0	0	8149	564069	0	0
2024-09-15 00:09:47			0	37757	0	0	0	25179	23770	158875	27086	1064282	46731	109309	0	0	8150	563625	0	0
2024-09-15 00:10:47			0	37761	0	0	0	25186	23780	158775	27232	1064336	46744	109312	0	0	8150	563434	0	0
2024-09-15 00:11:47			0	37735	0	0	0	25184	23780	158987	26788	1064273	46744	109311	0	0	8148	564466	0	0
2024-09-15 00:12:47			0	37757	0	0	0	25176	23780	159027	26927	1064273	46744	109308	0	0	8150	563593	0	0
2024-09-15 00:13:47			0	37717	0	0	0	25181	23780	159035	27007	1064273	46754	109310	0	0	8147	565181	0	0
2024-09-15 00:14:47			0	37708	0	0	0	25181	23770	159007	26852	1064291	46732	109310	0	0	8147	565570	0	0
2024-09-15 00:15:47			0	37718	0	0	0	25194	23770	159063	27183	1064291	46743	109315	0	0	8147	565173	0	0
2024-09-15 00:16:47			0	37722	0	0	0	25199	23780	158995	27118	1064247	46744	109317	0	0	8147	564982	0	0
2024-09-15 00:17:47			0	37745	0	0	0	25189	23770	158987	26906	1064291	46743	109313	0	0	8149	564101	0	0
2024-09-15 00:18:47			0	37737	0	0	0	25194	23790	158899	26998	1064238	46744	109315	0	0	8148	564355	0	0
2024-09-15 00:19:47			0	37731	0	0	0	25184	23770	158979	27235	1064264	46743	109311	0	0	8148	564657	0	0
2024-09-15 00:20:47			0	37733	0	0	0	25194	23780	158907	27284	1064309	46754	109315	0	0	8148	564545	0	0
2024-09-15 00:21:47			0	37748	0	0	0	25184	23780	158951	27150	1064256	46733	109311	0	0	8149	563950	0	0
2024-09-15 00:22:47			0	37717	0	0	0	25192	23770	159003	27516	1064291	46732	109314	0	0	8147	565213	0	0
2024-09-15 00:23:47			0	37717	0	0	0	25197	23770	158971	27242	1064282	46752	109316	0	0	8147	565213	0	0
2024-09-15 00:24:47			0	37700	0	0	0	25184	23770	159031	27033	1064291	46743	109311	0	0	8146	565888	0	0
2024-09-15 00:25:47			0	37675	0	0	0	25186	23780	159175	27183	1064282	46744	109312	0	0	8145	566851	0	0
2024-09-15 00:26:47			0	37681	0	0	0	25179	23780	159159	27000	1064309	46744	109309	0	0	8145	566612	0	0
2024-09-15 00:27:47			0	37667	0	0	0	25194	23780	159275	27315	1064220	46733	109315	0	0	8144	567170	0	0
2024-09-15 00:28:47			0	37667	0	0	0	25192	23780	159151	27114	1064282	46744	109314	0	0	8144	567170	0	0
2024-09-15 00:29:47			0	37674	0	0	0	25199	23770	159139	27218	1064309	46731	109317	0	0	8144	566923	0	0
2024-09-15 00:30:47			0	37672	0	0	0	25181	23780	159143	26932	1064282	46754	109310	0	0	8145	566971	0	0
2024-09-15 00:31:47			0	37661	0	0	0	25186	23780	159183	26944	1064300	46733	109312	0	0	8144	567409	0	0
2024-09-15 00:32:47			0	37649	0	0	0	25171	23780	159315	27029	1064282	46744	109306	0	0	8143	567887	0	0
2024-09-15 00:33:47			0	37657	0	0	0	25184	23780	159287	27260	1064247	46733	109311	0	0	8144	567568	0	0
2024-09-15 00:34:47			0	37641	0	0	0	25186	23780	159219	27062	1064273	46733	109312	0	0	8143	568206	0	0
2024-09-15 00:35:47			0	37644	0	0	0	25192	23770	159247	27100	1064318	46743	109314	0	0	8143	568118	0	0
2024-09-15 00:36:47			0	37645	0	0	0	25189	23780	159315	26915	1064256	46754	109313	0	0	8143	568046	0	0
2024-09-15 00:37:47			0	37659	0	0	0	25184	23770	159175	27462	1064291	46743	109311	0	0	8144	567520	0	0
2024-09-15 00:38:47			0	37672	0	0	0	25181	23770	159211	27154	1064291	46732	109310	0	0	8145	567003	0	0
2024-09-15 00:39:47			0	37680	0	0	0	25192	23770	159135	27152	1064264	46732	109314	0	0	8145	566684	0	0
2024-09-15 00:40:47			0	37670	0	0	0	25192	23770	159115	27182	1064345	46753	109314	0	0	8144	567082	0	0
2024-09-15 00:41:47			0	37694	0	0	0	25179	23770	159199	27124	1064238	46743	109309	0	0	8146	566127	0	0
2024-09-15 00:42:47			0	37670	0	0	0	25184	23770	159167	27211	1064282	46731	109311	0	0	8144	567082	0	0
2024-09-15 00:43:47			0	37663	0	0	0	25168	23770	159215	27187	1064291	46743	109305	0	0	8144	567361	0	0
2024-09-15 00:44:47			0	37637	0	0	0	25171	23770	159247	27105	1064229	46731	109306	0	0	8143	568397	0	0
2024-09-15 00:45:47			0	37645	0	0	0	25168	23770	159315	27343	1064255	46752	109305	0	0	8143	568078	0	0
2024-09-15 00:46:47			0	37608	0	0	0	25163	23770	159355	27248	1064255	46742	109303	0	0	8141	569555	0	0
2024-09-15 00:47:47			0	37600	0	0	0	25168	23760	159439	26856	1064220	46742	109305	0	0	8141	569907	0	0
2024-09-15 00:48:47			0	37591	0	0	0	25168	23760	159527	27092	1064246	46731	109305	0	0	8140	570266	0	0
2024-09-15 00:49:47			0	37587	0	0	0	25166	23770	159459	27008	1064175	46720	109304	0	0	8140	570394	0	0
2024-09-15 00:50:47			0	37607	0	0	0	25171	23760	159471	27071	1064211	46742	109306	0	0	8141	569627	0	0
2024-09-15 00:51:47			0	37618	0	0	0	25168	23770	159447	26974	1064229	46742	109305	0	0	8142	569155	0	0
2024-09-15 00:52:47			0	37619	0	0	0	25168	23760	159407	27222	1064220	46742	109305	0	0	8142	569148	0	0
2024-09-15 00:53:47			0	37603	0	0	0	25184	23770	159463	26911	1064175	46742	109311	0	0	8140	569754	0	0
2024-09-15 00:54:47			0	37626	0	0	0	25179	23770	159455	27066	1064229	46731	109309	0	0	8142	568836	0	0
2024-09-15 00:55:47			0	37612	0	0	0	25192	23760	159503	27095	1064220	46742	109314	0	0	8141	569427	0	0
2024-09-15 00:56:47			0	37634	0	0	0	25186	23760	159379	27142	1064246	46731	109312	0	0	8142	568549	0	0
2024-09-15 00:57:47			0	37633	0	0	0	25181	23770	159463	27088	1064282	46742	109310	0	0	8142	568557	0	0
2024-09-15 00:58:47			0	37634	0	0	0	25181	23760	159343	26894	1064300	46752	109310	0	0	8142	568549	0	0
2024-09-15 00:59:47			0	37645	0	0	0	25184	23770	159319	27235	1064255	46742	109311	0	0	8143	568078	0	0
2024-09-15 01:00:47			0	37651	0	0	0	25176	23770	159243	26911	1064238	46743	109308	0	0	8143	567839	0	0
2024-09-15 01:01:47			0	37655	0	0	0	25176	23760	159267	27258	1064246	46742	109308	0	0	8144	567712	0	0
2024-09-15 01:02:47			0	37666	0	0	0	25171	23770	159239	27364	1064255	46731	109306	0	0	8144	567242	0	0
2024-09-15 01:03:47			0	37674	0	0	0	25179	23760	159147	27310	1064273	46752	109309	0	0	8145	566955	0	0
2024-09-15 01:04:47			0	37709	0	0	0	25194	23770	159071	27267	1064264	46765	109315	0	0	8147	565531	0	0
2024-09-15 01:05:47			0	37712	0	0	0	25181	23760	159115	27509	1064220	46742	109310	0	0	8147	565443	0	0
2024-09-15 01:06:47			0	37710	0	0	0	25179	23760	159059	27391	1064246	46742	109309	0	0	8147	565523	0	0
2024-09-15 01:07:47			0	37731	0	0	0	25173	23760	159055	27261	1064193	46752	109307	0	0	8148	564688	0	0
2024-09-15 01:08:47			0	37707	0	0	0	25163	23770	159011	27275	1064282	46742	109303	0	0	8147	565610	0	0
2024-09-15 01:09:47			0	37698	0	0	0	25163	23760	159063	27166	1064166	46742	109303	0	0	8146	566000	0	0
2024-09-15 01:10:47			0	37692	0	0	0	25161	23770	159163	27013	1064229	46742	109302	0	0	8146	566207	0	0
2024-09-15 01:11:47			0	37676	0	0	0	25155	23770	159171	27175	1064211	46743	109300	0	0	8145	566844	0	0
2024-09-15 01:12:47			0	37669	0	0	0	25158	23750	159291	27189	1064202	46741	109301	0	0	8145	567186	0	0
2024-09-15 01:13:47			0	37656	0	0	0	25155	23760	159335	27092	1064130	46742	109300	0	0	8144	567672	0	0
2024-09-15 01:14:47			0	37651	0	0	0	25168	23760	159395	27163	1064130	46731	109305	0	0	8144	567871	0	0
2024-09-15 01:15:47			0	37625	0	0	0	25158	23770	159419	27235	1064202	46742	109301	0	0	8142	568876	0	0
2024-09-15 01:16:47			0	37620	0	0	0	25171	23760	159499	27168	1064193	46752	109306	0	0	8142	569108	0	0
2024-09-15 01:17:47			0	37622	0	0	0	25163	23750	159451	27253	1064202	46741	109303	0	0	8142	569060	0	0
2024-09-15 01:18:47			0	37633	0	0	0	25161	23750	159487	27017	1064175	46741	109302	0	0	8143	568621	0	0
2024-09-15 01:19:47			0	37637	0	0	0	25161	23760	159443	27097	1064130	46731	109302	0	0	8143	568429	0	0
2024-09-15 01:20:47			0	37642	0	0	0	25161	23760	159411	27303	1064237	46731	109302	0	0	8143	568230	0	0
2024-09-15 01:21:47			0	37607	0	0	0	25161	23750	159407	27211	1064139	46740	109302	0	0	8141	569659	0	0
2024-09-15 01:22:47			0	37604	0	0	0	25158	23750	159635	27015	1064148	46741	109301	0	0	8141	569779	0	0
2024-09-15 01:23:47			0	37607	0	0	0	25163	23750	159487	27230	1064166	46740	109303	0	0	8141	569659	0	0
2024-09-15 01:24:47			0	37600	0	0	0	25153	23750	159499	27296	1064095	46741	109299	0	0	8141	569939	0	0
2024-09-15 01:25:47			0	37602	0	0	0	25153	23750	159571	26741	1064148	46741	109299	0	0	8141	569859	0	0
2024-09-15 01:26:47			0	37597	0	0	0	25148	23750	159591	27267	1064148	46730	109297	0	0	8141	570058	0	0
2024-09-15 01:27:47			0	37596	0	0	0	25142	23750	159635	26847	1064068	46730	109295	0	0	8141	570098	0	0
2024-09-15 01:28:47			0	37586	0	0	0	25140	23740	159627	26963	1064077	46740	109294	0	0	8140	570530	0	0
2024-09-15 01:29:47			0	37590	0	0	0	25132	23750	159703	26916	1064086	46740	109291	0	0	8141	570338	0	0
2024-09-15 01:30:47			0	37585	0	0	0	25140	23750	159735	26955	1064139	46729	109294	0	0	8140	570538	0	0
2024-09-15 01:31:47			0	37573	0	0	0	25140	23730	159763	26852	1064059	46750	109294	0	0	8139	571082	0	0
2024-09-15 01:32:47			0	37566	0	0	0	25132	23730	159783	26963	1064068	46740	109291	0	0	8139	571362	0	0
2024-09-15 01:33:47			0	37563	0	0	0	25119	23730	159731	26764	1064139	46728	109286	0	0	8139	571482	0	0
2024-09-15 01:34:47			0	37550	0	0	0	25127	23730	159851	26998	1064086	46728	109289	0	0	8138	572003	0	0
2024-09-15 01:35:47			0	37565	0	0	0	25135	23720	159795	26925	1064068	46704	109292	0	0	8139	571435	0	0
2024-09-15 01:36:47			0	37552	0	0	0	25124	23740	159759	27192	1064104	46729	109288	0	0	8138	571891	0	0
2024-09-15 01:37:47			0	37524	0	0	0	25114	23720	160067	27159	1063961	46726	109284	0	0	8137	573077	0	0
2024-09-15 01:38:47			0	37503	0	0	0	25106	23720	160023	27177	1064014	46714	109281	0	0	8136	573919	0	0
2024-09-15 01:39:47			0	37509	0	0	0	25101	23710	159983	26975	1063978	46726	109279	0	0	8136	573711	0	0
2024-09-15 01:40:47			0	37503	0	0	0	25096	23710	159995	26686	1063978	46737	109277	0	0	8136	573952	0	0
2024-09-15 01:41:47			0	37485	0	0	0	25109	23710	160095	27043	1063916	46737	109282	0	0	8135	574674	0	0
2024-09-15 01:42:47			0	37485	0	0	0	25096	23700	160075	27282	1063987	46736	109277	0	0	8135	574707	0	0
2024-09-15 01:43:47			0	37484	0	0	0	25093	23710	160107	27199	1063978	46726	109276	0	0	8135	574715	0	0
2024-09-15 01:44:47			0	37468	0	0	0	25103	23700	160171	27187	1063960	46714	109280	0	0	8134	575390	0	0
2024-09-15 01:45:47			0	37471	0	0	0	25116	23690	160275	26890	1063889	46724	109285	0	0	8134	575302	0	0
2024-09-15 01:46:47			0	37492	0	0	0	25122	23710	160179	27228	1063916	46726	109287	0	0	8135	574393	0	0
2024-09-15 01:47:47			0	37511	0	0	0	25106	23700	159991	26909	1063907	46725	109281	0	0	8136	573663	0	0
2024-09-15 01:48:47			0	37513	0	0	0	25103	23710	160047	27098	1063916	46726	109280	0	0	8136	573550	0	0
2024-09-15 01:49:47			0	37529	0	0	0	25085	23700	160067	26911	1063871	46735	109273	0	0	8137	572941	0	0
2024-09-15 01:50:47			0	37520	0	0	0	25085	23700	160011	27086	1063934	46725	109273	0	0	8137	573302	0	0
2024-09-15 01:51:47			0	37526	0	0	0	25083	23700	160067	27393	1063934	46736	109272	0	0	8137	573061	0	0
2024-09-15 01:52:47			0	37523	0	0	0	25077	23700	159955	27298	1063871	46735	109270	0	0	8137	573182	0	0
2024-09-15 01:53:47			0	37519	0	0	0	25080	23690	159967	26981	1063853	46724	109271	0	0	8137	573374	0	0
2024-09-15 01:54:47			0	37515	0	0	0	25077	23690	159959	27085	1063853	46724	109270	0	0	8137	573535	0	0
2024-09-15 01:55:47			0	37514	0	0	0	25072	23690	159987	27085	1063826	46724	109268	0	0	8137	573575	0	0
2024-09-15 01:56:47			0	37507	0	0	0	25072	23670	160155	27007	1063772	46722	109268	0	0	8136	573920	0	0
2024-09-15 01:57:47			0	37490	0	0	0	25067	23680	159987	26996	1063764	46723	109266	0	0	8135	574571	0	0
2024-09-15 01:58:47			0	37488	0	0	0	25064	23680	160043	27001	1063781	46722	109265	0	0	8135	574651	0	0
2024-09-15 01:59:47			0	37488	0	0	0	25070	23680	160143	27121	1063755	46733	109267	0	0	8135	574651	0	0
2024-09-15 02:00:47			0	37464	0	0	0	25059	23670	160235	27249	1063817	46733	109263	0	0	8134	575648	0	0
2024-09-15 02:01:47			0	37460	0	0	0	25041	23670	160259	27287	1063737	46733	109256	0	0	8134	575809	0	0
2024-09-15 02:02:47			0	37451	0	0	0	25044	23670	160235	27383	1063710	46733	109257	0	0	8133	576171	0	0
2024-09-15 02:03:47			0	37426	0	0	0	25049	23660	160231	26949	1063674	46732	109259	0	0	8132	577210	0	0
2024-09-15 02:04:47			0	37446	0	0	0	25064	23660	160335	26902	1063674	46721	109265	0	0	8133	576405	0	0
2024-09-15 02:05:47			0	37462	0	0	0	25062	23660	160311	26765	1063746	46720	109264	0	0	8134	575761	0	0
2024-09-15 02:06:47			0	37463	0	0	0	25059	23660	160211	26951	1063719	46742	109263	0	0	8134	575721	0	0
2024-09-15 02:07:47			0	37498	0	0	0	25054	23660	160159	27296	1063692	46731	109261	0	0	8136	574314	0	0
2024-09-15 02:08:47			0	37490	0	0	0	25064	23650	160131	26797	1063683	46720	109265	0	0	8135	574668	0	0
2024-09-15 02:09:47			0	37494	0	0	0	25051	23640	160087	27074	1063638	46719	109260	0	0	8136	574539	0	0
2024-09-15 02:10:47			0	37514	0	0	0	25085	23660	160031	27201	1063772	46731	109273	0	0	8136	573672	0	0
2024-09-15 02:11:47			0	37551	0	0	0	25116	23660	159879	27436	1063719	46742	109285	0	0	8138	572188	0	0
2024-09-15 02:12:47			0	37597	0	0	0	25129	23660	159691	27263	1063835	46743	109290	0	0	8141	570347	0	0
2024-09-15 02:13:47			0	37643	0	0	0	25096	23660	159543	27072	1063826	46742	109277	0	0	8144	568510	0	0
2024-09-15 02:14:47			0	37674	0	0	0	25116	23660	159379	27208	1063861	46743	109285	0	0	8145	567274	0	0
2024-09-15 02:15:47			0	37688	0	0	0	25135	23670	159347	27286	1063879	46744	109292	0	0	8146	566685	0	0
2024-09-15 02:16:47			0	37706	0	0	0	25127	23670	159243	27029	1063853	46722	109289	0	0	8147	565968	0	0
2024-09-15 02:17:47			0	37732	0	0	0	25132	23680	159175	27149	1063871	46745	109291	0	0	8149	564903	0	0
2024-09-15 02:18:47			0	37722	0	0	0	25158	23690	159199	27358	1063907	46735	109301	0	0	8148	565268	0	0
2024-09-15 02:19:47			0	37776	0	0	0	25161	23690	159039	27275	1063880	46735	109302	0	0	8151	563125	0	0
2024-09-15 02:20:47			0	37807	0	0	0	25173	23700	158875	27150	1063960	46758	109307	0	0	8152	561865	0	0
2024-09-15 02:21:47			0	37837	0	0	0	25168	23700	158795	26847	1064005	46735	109305	0	0	8154	560678	0	0
2024-09-15 02:22:47			0	37829	0	0	0	25168	23700	158687	26864	1064005	46746	109305	0	0	8154	560994	0	0
2024-09-15 02:23:47			0	37833	0	0	0	25173	23710	158619	26975	1064103	46737	109307	0	0	8154	560805	0	0
2024-09-15 02:24:47			0	37834	0	0	0	25158	23710	158731	27338	1064130	46759	109301	0	0	8154	560765	0	0
2024-09-15 02:25:47			0	37840	0	0	0	25161	23720	158751	27159	1064077	46727	109302	0	0	8155	560496	0	0
2024-09-15 02:26:47			0	37854	0	0	0	25150	23720	158635	27001	1064077	46749	109298	0	0	8156	559943	0	0
2024-09-15 02:27:47			0	37860	0	0	0	25145	23720	158475	27308	1064094	46726	109296	0	0	8156	559706	0	0
2024-09-15 02:28:47			0	37837	0	0	0	25135	23720	158667	27144	1064050	46749	109292	0	0	8155	560615	0	0
2024-09-15 02:29:47			0	37796	0	0	0	25140	23710	158703	27130	1064085	46737	109294	0	0	8152	562269	0	0
2024-09-15 02:30:47			0	37792	0	0	0	25142	23720	158771	27246	1064050	46727	109295	0	0	8152	562396	0	0
2024-09-15 02:31:47			0	37794	0	0	0	25181	23710	158787	26928	1064059	46737	109310	0	0	8151	562348	0	0
2024-09-15 02:32:47			0	37824	0	0	0	25171	23730	158691	27124	1064086	46739	109306	0	0	8153	561097	0	0
2024-09-15 02:33:47			0	37849	0	0	0	25163	23720	158747	27135	1064103	46738	109303	0	0	8155	560141	0	0
2024-09-15 02:34:47			0	37842	0	0	0	25163	23740	158703	26928	1064104	46740	109303	0	0	8155	560354	0	0
2024-09-15 02:35:47			0	37827	0	0	0	25153	23740	158607	27043	1064130	46740	109299	0	0	8154	560947	0	0
2024-09-15 02:36:47			0	37832	0	0	0	25148	23730	158623	26651	1064175	46729	109297	0	0	8154	560781	0	0
2024-09-15 02:37:47			0	37803	0	0	0	25150	23730	158671	27152	1064148	46750	109298	0	0	8153	561928	0	0
2024-09-15 02:38:47			0	37826	0	0	0	25148	23740	158687	27112	1064077	46729	109297	0	0	8154	560987	0	0
2024-09-15 02:39:47			0	37829	0	0	0	25140	23740	158607	27159	1064077	46729	109294	0	0	8154	560868	0	0
2024-09-15 02:40:47			0	37798	0	0	0	25140	23740	158679	26949	1064104	46729	109294	0	0	8153	562095	0	0
2024-09-15 02:41:47			0	37808	0	0	0	25148	23740	158703	26873	1064104	46750	109297	0	0	8153	561699	0	0
2024-09-15 02:42:47			0	37800	0	0	0	25155	23740	158767	26906	1064104	46740	109300	0	0	8152	562016	0	0
2024-09-15 02:43:47			0	37810	0	0	0	25155	23740	158751	27168	1064104	46750	109300	0	0	8153	561620	0	0
2024-09-15 02:44:47			0	37788	0	0	0	25153	23730	158751	27310	1064121	46750	109299	0	0	8152	562523	0	0
2024-09-15 02:45:47			0	37798	0	0	0	25173	23730	158719	27072	1064121	46740	109307	0	0	8152	562126	0	0
2024-09-15 02:46:47			0	37811	0	0	0	25189	23740	158659	27196	1064184	46740	109313	0	0	8152	561580	0	0
2024-09-15 02:47:47			0	37816	0	0	0	25168	23750	158639	27118	1064175	46741	109305	0	0	8153	561351	0	0
2024-09-15 02:48:47			0	37836	0	0	0	25166	23750	158591	26934	1064193	46750	109304	0	0	8154	560560	0	0
2024-09-15 02:49:47			0	37839	0	0	0	25161	23750	158535	27144	1064175	46741	109302	0	0	8155	560441	0	0
2024-09-15 02:50:47			0	37812	0	0	0	25150	23750	158567	27329	1064166	46740	109298	0	0	8153	561509	0	0
2024-09-15 02:51:47			0	37817	0	0	0	25153	23760	158639	27550	1064184	46742	109299	0	0	8154	561279	0	0
2024-09-15 02:52:47			0	37798	0	0	0	25150	23730	158599	27331	1064095	46750	109298	0	0	8152	562126	0	0
2024-09-15 02:53:47			0	37796	0	0	0	25155	23750	158719	27360	1064166	46729	109300	0	0	8152	562142	0	0
2024-09-15 02:54:47			0	37797	0	0	0	25150	23750	158631	27192	1064086	46750	109298	0	0	8152	562103	0	0
2024-09-15 02:55:47			0	37806	0	0	0	25161	23750	158599	27105	1064193	46750	109302	0	0	8153	561746	0	0
2024-09-15 02:56:47			0	37810	0	0	0	25163	23750	158563	27428	1064202	46741	109303	0	0	8153	561588	0	0
2024-09-15 02:57:47			0	37824	0	0	0	25140	23750	158599	27352	1064202	46730	109294	0	0	8154	561034	0	0
2024-09-15 02:58:47			0	37815	0	0	0	25142	23750	158567	27367	1064202	46730	109295	0	0	8154	561390	0	0
2024-09-15 02:59:47			0	37790	0	0	0	25155	23750	158699	27268	1064220	46729	109300	0	0	8152	562380	0	0
2024-09-15 03:00:47			0	37816	0	0	0	25153	23750	158627	27209	1064166	46740	109299	0	0	8153	561351	0	0
2024-09-15 03:01:47			0	37823	0	0	0	25176	23750	158511	27066	1064175	46751	109308	0	0	8153	561074	0	0
2024-09-15 03:02:47			0	37843	0	0	0	25168	23750	158483	27168	1064121	46730	109305	0	0	8155	560283	0	0
2024-09-15 03:03:47			0	37830	0	0	0	25179	23760	158423	27372	1064273	46752	109309	0	0	8154	560765	0	0
2024-09-15 03:04:47			0	37849	0	0	0	25166	23750	158363	27104	1064193	46750	109304	0	0	8155	560046	0	0
2024-09-15 03:05:47			0	37867	0	0	0	25153	23760	158415	27178	1064211	46731	109299	0	0	8156	559304	0	0
2024-09-15 03:06:47			0	37862	0	0	0	25166	23750	158455	26930	1064139	46729	109304	0	0	8156	559533	0	0
2024-09-15 03:07:47			0	37847	0	0	0	25163	23760	158515	27331	1064184	46731	109303	0	0	8155	560093	0	0
2024-09-15 03:08:47			0	37863	0	0	0	25158	23750	158479	27121	1064175	46730	109301	0	0	8156	559493	0	0
2024-09-15 03:09:47			0	37852	0	0	0	25166	23750	158451	27500	1064193	46740	109304	0	0	8155	559927	0	0
2024-09-15 03:10:47			0	37855	0	0	0	25158	23750	158491	27086	1064148	46730	109301	0	0	8156	559809	0	0
2024-09-15 03:11:47			0	37844	0	0	0	25155	23750	158543	27100	1064202	46751	109300	0	0	8155	560243	0	0
2024-09-15 03:12:47			0	37821	0	0	0	25119	23750	158519	27272	1064175	46741	109286	0	0	8154	561153	0	0
2024-09-15 03:13:47			0	37813	0	0	0	25135	23750	158595	27123	1064113	46750	109292	0	0	8154	561469	0	0
2024-09-15 03:14:47			0	37802	0	0	0	25140	23750	158635	27164	1064202	46730	109294	0	0	8153	561905	0	0
2024-09-15 03:15:47			0	37813	0	0	0	25163	23750	158751	27644	1064148	46741	109303	0	0	8153	561469	0	0
2024-09-15 03:16:47			0	37787	0	0	0	25145	23740	158679	27098	1064237	46718	109296	0	0	8152	562530	0	0
2024-09-15 03:17:47			0	37797	0	0	0	25155	23750	158723	27010	1064166	46750	109300	0	0	8152	562103	0	0
2024-09-15 03:18:47			0	37802	0	0	0	25137	23750	158747	27145	1064113	46729	109293	0	0	8153	561905	0	0
2024-09-15 03:19:47			0	37779	0	0	0	25135	23750	158691	27260	1064121	46741	109292	0	0	8152	562816	0	0
2024-09-15 03:20:47			0	37771	0	0	0	25140	23740	158747	27367	1064157	46718	109294	0	0	8151	563165	0	0
2024-09-15 03:21:47			0	37773	0	0	0	25145	23730	158739	27255	1064095	46750	109296	0	0	8151	563117	0	0
2024-09-15 03:22:47			0	37785	0	0	0	25132	23730	158783	27107	1064121	46740	109291	0	0	8152	562641	0	0
2024-09-15 03:23:47			0	37802	0	0	0	25150	23740	158631	27208	1064104	46740	109298	0	0	8153	561936	0	0
2024-09-15 03:24:47			0	37801	0	0	0	25137	23730	158751	27145	1064121	46750	109293	0	0	8153	562008	0	0
2024-09-15 03:25:47			0	37800	0	0	0	25142	23720	158703	27244	1064103	46738	109295	0	0	8153	562079	0	0
2024-09-15 03:26:47			0	37796	0	0	0	25135	23730	158591	26847	1064086	46728	109292	0	0	8152	562206	0	0
2024-09-15 03:27:47			0	37783	0	0	0	25140	23720	158651	27055	1064103	46738	109294	0	0	8152	562752	0	0
2024-09-15 03:28:47			0	37802	0	0	0	25150	23730	158823	27095	1064068	46740	109298	0	0	8153	561968	0	0
2024-09-15 03:29:47			0	37788	0	0	0	25145	23720	158759	27043	1064068	46726	109296	0	0	8152	562554	0	0
2024-09-15 03:30:47			0	37793	0	0	0	25137	23730	158683	27332	1064059	46750	109293	0	0	8152	562325	0	0
2024-09-15 03:31:47			0	37784	0	0	0	25142	23720	158743	27216	1064077	46738	109295	0	0	8152	562713	0	0
2024-09-15 03:32:47			0	37781	0	0	0	25148	23740	158751	27177	1064104	46740	109297	0	0	8151	562768	0	0
2024-09-15 03:33:47			0	37781	0	0	0	25137	23720	158755	27154	1064050	46727	109293	0	0	8151	562832	0	0
2024-09-15 03:34:47			0	37773	0	0	0	25124	23730	158783	27090	1064041	46729	109288	0	0	8151	563117	0	0
2024-09-15 03:35:47			0	37787	0	0	0	25116	23720	158679	27196	1064077	46727	109285	0	0	8152	562594	0	0
2024-09-15 03:36:47			0	37779	0	0	0	25132	23720	158699	27331	1064103	46738	109291	0	0	8151	562911	0	0
2024-09-15 03:37:47			0	37789	0	0	0	25145	23740	158607	27142	1064077	46729	109296	0	0	8152	562451	0	0
2024-09-15 03:38:47			0	37794	0	0	0	25137	23710	158571	27121	1064032	46737	109293	0	0	8152	562348	0	0
2024-09-15 03:39:47			0	37826	0	0	0	25166	23720	158567	27140	1064041	46737	109304	0	0	8154	561050	0	0
2024-09-15 03:40:47			0	37852	0	0	0	25171	23720	158563	26840	1064050	46727	109306	0	0	8155	560022	0	0
2024-09-15 03:41:47			0	37879	0	0	0	25163	23720	158423	27093	1064103	46738	109303	0	0	8157	558956	0	0
2024-09-15 03:42:47			0	37877	0	0	0	25168	23730	158379	27057	1064148	46740	109305	0	0	8157	559004	0	0
2024-09-15 03:43:47			0	37895	0	0	0	25168	23720	158343	27119	1064157	46749	109305	0	0	8158	558325	0	0
2024-09-15 03:44:47			0	37881	0	0	0	25158	23730	158375	27216	1064148	46740	109301	0	0	8157	558846	0	0
2024-09-15 03:45:47			0	37898	0	0	0	25158	23740	158343	27270	1064130	46740	109301	0	0	8158	558144	0	0
2024-09-15 03:46:47			0	37914	0	0	0	25168	23740	158367	26956	1064077	46740	109305	0	0	8159	557513	0	0
2024-09-15 03:47:47			0	37911	0	0	0	25171	23740	158327	27280	1064184	46740	109306	0	0	8159	557631	0	0
2024-09-15 03:48:47			0	37908	0	0	0	25166	23720	158319	26819	1064157	46749	109304	0	0	8158	557812	0	0
2024-09-15 03:49:47			0	37909	0	0	0	25155	23750	158335	27267	1064139	46740	109300	0	0	8159	557679	0	0
2024-09-15 03:50:47			0	37906	0	0	0	25142	23750	158343	27131	1064202	46741	109295	0	0	8159	557797	0	0
2024-09-15 03:51:47			0	37894	0	0	0	25135	23740	158355	27046	1064130	46750	109292	0	0	8158	558301	0	0
2024-09-15 03:52:47			0	37895	0	0	0	25150	23730	158343	26979	1064175	46729	109298	0	0	8158	558293	0	0
2024-09-15 03:53:47			0	37885	0	0	0	25135	23730	158351	27147	1064148	46729	109292	0	0	8158	558688	0	0
2024-09-15 03:54:47			0	37886	0	0	0	25129	23750	158371	27332	1064139	46740	109290	0	0	8158	558585	0	0
2024-09-15 03:55:47			0	37867	0	0	0	25140	23740	158407	27441	1064184	46718	109294	0	0	8157	559367	0	0
2024-09-15 03:56:47			0	37876	0	0	0	25140	23730	158431	27300	1064095	46707	109294	0	0	8157	559043	0	0
2024-09-15 03:57:47			0	37882	0	0	0	25129	23740	158411	27043	1064077	46729	109290	0	0	8158	558775	0	0
2024-09-15 03:58:47			0	37858	0	0	0	25137	23720	158491	27209	1064184	46727	109293	0	0	8156	559785	0	0
2024-09-15 03:59:47			0	37841	0	0	0	25127	23720	158315	27185	1064077	46738	109289	0	0	8155	560457	0	0
2024-09-15 04:00:47			0	37849	0	0	0	25140	23720	158491	26981	1064068	46726	109294	0	0	8155	560141	0	0
2024-09-15 04:01:47			0	37853	0	0	0	25140	23720	158483	27178	1064068	46737	109294	0	0	8156	559983	0	0
2024-09-15 04:02:47			0	37854	0	0	0	25150	23720	158475	27064	1064094	46748	109298	0	0	8156	559943	0	0
2024-09-15 04:03:47			0	37873	0	0	0	25148	23730	158527	27029	1064068	46740	109297	0	0	8157	559161	0	0
2024-09-15 04:04:47			0	37861	0	0	0	25132	23710	158535	26937	1064085	46737	109291	0	0	8156	559698	0	0
2024-09-15 04:05:47			0	37862	0	0	0	25135	23720	158531	27053	1064121	46726	109292	0	0	8156	559627	0	0
2024-09-15 04:06:47			0	37863	0	0	0	25127	23710	158471	27104	1064085	46726	109289	0	0	8156	559619	0	0
2024-09-15 04:07:47			0	37858	0	0	0	25124	23720	158463	27320	1064077	46727	109288	0	0	8156	559785	0	0
2024-09-15 04:08:47			0	37873	0	0	0	25129	23720	158519	27171	1064103	46727	109290	0	0	8157	559193	0	0
2024-09-15 04:09:47			0	37846	0	0	0	25129	23720	158507	26890	1064068	46737	109290	0	0	8155	560259	0	0
2024-09-15 04:10:47			0	37828	0	0	0	25129	23720	158611	27178	1064068	46714	109290	0	0	8154	560971	0	0
2024-09-15 04:11:47			0	37825	0	0	0	25122	23710	158671	27001	1064085	46737	109287	0	0	8154	561121	0	0
2024-09-15 04:12:47			0	37833	0	0	0	25119	23710	158647	27246	1064032	46737	109286	0	0	8155	560805	0	0
2024-09-15 04:13:47			0	37835	0	0	0	25124	23720	158571	27065	1064077	46716	109288	0	0	8155	560694	0	0
2024-09-15 04:14:47			0	37834	0	0	0	25119	23710	158583	27086	1064059	46726	109286	0	0	8155	560765	0	0
2024-09-15 04:15:47			0	37854	0	0	0	25127	23710	158531	27327	1064050	46748	109289	0	0	8156	559975	0	0
2024-09-15 04:16:47			0	37850	0	0	0	25116	23720	158451	27041	1064014	46726	109285	0	0	8156	560101	0	0
2024-09-15 04:17:47			0	37852	0	0	0	25116	23710	158387	27052	1063978	46714	109285	0	0	8156	560054	0	0
2024-09-15 04:18:47			0	37850	0	0	0	25111	23710	158351	26998	1064023	46737	109283	0	0	8156	560133	0	0
2024-09-15 04:19:47			0	37837	0	0	0	25109	23720	158451	27398	1064041	46737	109282	0	0	8155	560615	0	0
2024-09-15 04:20:47			0	37824	0	0	0	25109	23710	158563	26845	1064023	46714	109282	0	0	8154	561160	0	0
2024-09-15 04:21:47			0	37820	0	0	0	25109	23700	158579	27107	1063907	46736	109282	0	0	8154	561350	0	0
2024-09-15 04:22:47			0	37807	0	0	0	25106	23700	158615	26762	1063951	46713	109281	0	0	8153	561865	0	0
2024-09-15 04:23:47			0	37794	0	0	0	25103	23700	158575	27196	1063987	46736	109280	0	0	8153	562380	0	0
2024-09-15 04:24:47			0	37795	0	0	0	25103	23710	158815	26989	1063943	46726	109280	0	0	8153	562309	0	0
2024-09-15 04:25:47			0	37785	0	0	0	25093	23710	158611	26941	1063969	46726	109276	0	0	8152	562705	0	0
2024-09-15 04:26:47			0	37797	0	0	0	25098	23700	158627	26986	1063960	46725	109278	0	0	8153	562261	0	0
2024-09-15 04:27:47			0	37776	0	0	0	25103	23700	158707	27078	1063978	46724	109280	0	0	8152	563093	0	0
2024-09-15 04:28:47			0	37787	0	0	0	25096	23690	158707	27265	1063889	46713	109277	0	0	8152	562689	0	0
2024-09-15 04:29:47			0	37787	0	0	0	25090	23700	158659	27102	1063880	46725	109275	0	0	8153	562657	0	0
2024-09-15 04:30:47			0	37772	0	0	0	25093	23690	158703	26986	1063960	46735	109276	0	0	8152	563283	0	0
2024-09-15 04:31:47			0	37778	0	0	0	25085	23680	158727	27182	1063897	46723	109273	0	0	8152	563077	0	0
2024-09-15 04:32:47			0	37768	0	0	0	25085	23690	158859	27088	1063835	46735	109273	0	0	8151	563442	0	0
2024-09-15 04:33:47			0	37770	0	0	0	25085	23690	158815	27145	1063826	46735	109273	0	0	8152	563363	0	0
2024-09-15 04:34:47			0	37720	0	0	0	25085	23690	159007	27050	1063880	46724	109273	0	0	8149	565348	0	0
2024-09-15 04:35:47			0	37693	0	0	0	25083	23690	159119	27170	1063889	46735	109272	0	0	8147	566422	0	0
2024-09-15 04:36:47			0	37702	0	0	0	25075	23690	159203	27616	1063880	46713	109269	0	0	8148	566064	0	0
2024-09-15 04:37:47			0	37670	0	0	0	25080	23680	159067	27331	1063817	46734	109271	0	0	8146	567370	0	0
2024-09-15 04:38:47			0	37679	0	0	0	25085	23690	159151	27131	1063862	46735	109273	0	0	8146	566979	0	0
2024-09-15 04:39:47			0	37666	0	0	0	25072	23680	159179	26925	1063817	46723	109268	0	0	8146	567529	0	0
2024-09-15 04:40:47			0	37637	0	0	0	25075	23670	159323	27222	1063879	46722	109269	0	0	8144	568717	0	0
2024-09-15 04:41:47			0	37608	0	0	0	25067	23670	159455	27092	1063772	46733	109266	0	0	8142	569875	0	0
2024-09-15 04:42:47			0	37623	0	0	0	25067	23670	159419	27142	1063826	46733	109266	0	0	8143	569276	0	0
2024-09-15 04:43:47			0	37629	0	0	0	25070	23670	159455	27462	1063772	46733	109267	0	0	8143	569037	0	0
2024-09-15 04:44:47			0	37625	0	0	0	25072	23670	159451	27088	1063844	46733	109268	0	0	8143	569196	0	0
2024-09-15 04:45:47			0	37618	0	0	0	25067	23660	159479	27220	1063772	46720	109266	0	0	8143	569508	0	0
2024-09-15 04:46:47			0	37599	0	0	0	25070	23660	159539	27131	1063728	46721	109267	0	0	8142	570267	0	0
2024-09-15 04:47:47			0	37589	0	0	0	25067	23660	159543	27199	1063781	46721	109266	0	0	8141	570667	0	0
2024-09-15 04:48:47			0	37590	0	0	0	25080	23670	159627	26934	1063817	46733	109271	0	0	8141	570595	0	0
2024-09-15 04:49:47			0	37556	0	0	0	25080	23670	159663	27315	1063763	46722	109271	0	0	8139	571956	0	0
2024-09-15 04:50:47			0	37532	0	0	0	25075	23660	159915	26958	1063852	46742	109269	0	0	8138	572950	0	0
2024-09-15 04:51:47			0	37544	0	0	0	25070	23660	159875	27161	1063728	46709	109267	0	0	8138	572469	0	0
2024-09-15 04:52:47			0	37511	0	0	0	25067	23650	159867	27034	1063737	46731	109266	0	0	8137	573824	0	0
2024-09-15 04:53:47			0	37495	0	0	0	25070	23660	160035	27339	1063781	46709	109267	0	0	8136	574434	0	0
2024-09-15 04:54:47			0	37507	0	0	0	25070	23670	159919	27298	1063790	46733	109267	0	0	8136	573920	0	0
2024-09-15 04:55:47			0	37515	0	0	0	25064	23660	159863	27088	1063808	46743	109265	0	0	8137	573632	0	0
2024-09-15 04:56:47			0	37515	0	0	0	25064	23670	159931	27029	1063737	46733	109265	0	0	8137	573599	0	0
2024-09-15 04:57:47			0	37521	0	0	0	25077	23660	159839	27222	1063746	46731	109270	0	0	8137	573391	0	0
2024-09-15 04:58:47			0	37532	0	0	0	25059	23650	159827	27062	1063683	46720	109263	0	0	8138	572982	0	0
2024-09-15 04:59:47			0	37541	0	0	0	25062	23660	159815	26844	1063674	46732	109264	0	0	8138	572589	0	0
2024-09-15 05:00:47			0	37562	0	0	0	25059	23650	159703	26771	1063737	46720	109263	0	0	8140	571780	0	0
2024-09-15 05:01:47			0	37568	0	0	0	25059	23650	159751	26819	1063737	46731	109263	0	0	8140	571539	0	0
2024-09-15 05:02:47			0	37565	0	0	0	25064	23660	159707	27150	1063728	46721	109265	0	0	8140	571628	0	0
2024-09-15 05:03:47			0	37588	0	0	0	25064	23660	159675	27320	1063719	46731	109265	0	0	8141	570707	0	0
2024-09-15 05:04:47			0	37579	0	0	0	25062	23650	159627	27435	1063728	46719	109264	0	0	8141	571099	0	0
2024-09-15 05:05:47			0	37590	0	0	0	25062	23640	159595	27220	1063710	46729	109264	0	0	8141	570691	0	0
2024-09-15 05:06:47			0	37614	0	0	0	25072	23650	159563	27085	1063728	46708	109268	0	0	8142	569700	0	0
2024-09-15 05:07:47			0	37620	0	0	0	25059	23660	159479	26845	1063781	46732	109263	0	0	8143	569428	0	0
2024-09-15 05:08:47			0	37626	0	0	0	25064	23650	159543	27003	1063710	46720	109265	0	0	8143	569221	0	0
2024-09-15 05:09:47			0	37631	0	0	0	25054	23650	159395	26972	1063710	46720	109261	0	0	8144	569021	0	0
2024-09-15 05:10:47			0	37658	0	0	0	25054	23650	159427	27192	1063763	46731	109261	0	0	8145	567944	0	0
2024-09-15 05:11:47			0	37645	0	0	0	25059	23650	159383	27142	1063683	46753	109263	0	0	8145	568462	0	0
2024-09-15 05:12:47			0	37672	0	0	0	25057	23640	159379	27216	1063719	46719	109262	0	0	8146	567418	0	0
2024-09-15 05:13:47			0	37660	0	0	0	25051	23650	159379	26939	1063701	46719	109260	0	0	8146	567864	0	0
2024-09-15 05:14:47			0	37663	0	0	0	25059	23650	159303	27246	1063710	46720	109263	0	0	8146	567745	0	0
2024-09-15 05:15:47			0	37669	0	0	0	25067	23640	159447	26987	1063665	46741	109266	0	0	8146	567537	0	0
2024-09-15 05:16:47			0	37676	0	0	0	25059	23650	159323	27067	1063647	46730	109263	0	0	8146	567227	0	0
2024-09-15 05:17:47			0	37657	0	0	0	25064	23650	159387	26883	1063710	46720	109265	0	0	8145	567984	0	0
2024-09-15 05:18:47			0	37691	0	0	0	25062	23650	159295	27178	1063674	46730	109264	0	0	8147	566629	0	0
2024-09-15 05:19:47			0	37683	0	0	0	25075	23650	159339	27039	1063683	46720	109269	0	0	8146	566948	0	0
2024-09-15 05:20:47			0	37675	0	0	0	25077	23650	159343	27093	1063737	46720	109270	0	0	8146	567266	0	0
2024-09-15 05:21:47			0	37688	0	0	0	25083	23650	159347	26743	1063701	46730	109272	0	0	8147	566749	0	0
2024-09-15 05:22:47			0	37682	0	0	0	25077	23650	159259	26767	1063737	46731	109270	0	0	8146	566987	0	0
2024-09-15 05:23:47			0	37691	0	0	0	25085	23650	159259	26974	1063728	46730	109273	0	0	8147	566629	0	0
2024-09-15 05:24:47			0	37694	0	0	0	25080	23650	159259	26769	1063817	46731	109271	0	0	8147	566510	0	0
2024-09-15 05:25:47			0	37690	0	0	0	25083	23650	159267	26994	1063763	46731	109272	0	0	8147	566669	0	0
2024-09-15 05:26:47			0	37685	0	0	0	25090	23660	159127	27057	1063808	46732	109275	0	0	8146	566836	0	0
2024-09-15 05:27:47			0	37697	0	0	0	25088	23650	159271	27074	1063817	46720	109274	0	0	8147	566390	0	0
2024-09-15 05:28:47			0	37707	0	0	0	25075	23660	159159	27232	1063826	46742	109269	0	0	8148	565961	0	0
2024-09-15 05:29:47			0	37719	0	0	0	25085	23660	159203	27123	1063826	46731	109273	0	0	8148	565483	0	0
2024-09-15 05:30:47			0	37722	0	0	0	25088	23670	159183	27154	1063799	46733	109274	0	0	8149	565332	0	0
2024-09-15 05:31:47			0	37724	0	0	0	25096	23660	159147	27183	1063781	46732	109277	0	0	8149	565284	0	0
2024-09-15 05:32:47			0	37726	0	0	0	25085	23660	159179	27128	1063852	46708	109273	0	0	8149	565205	0	0
2024-09-15 05:33:47			0	37737	0	0	0	25096	23670	159135	27135	1063817	46733	109277	0	0	8149	564736	0	0
2024-09-15 05:34:47			0	37724	0	0	0	25098	23660	159071	27215	1063861	46732	109278	0	0	8149	565284	0	0
2024-09-15 05:35:47			0	37732	0	0	0	25093	23670	159079	27244	1063844	46733	109276	0	0	8149	564935	0	0
2024-09-15 05:36:47			0	37726	0	0	0	25093	23670	159079	27197	1063853	46722	109276	0	0	8149	565173	0	0
2024-09-15 05:37:47			0	37759	0	0	0	25093	23660	158939	27272	1063808	46721	109276	0	0	8151	563894	0	0
2024-09-15 05:38:47			0	37762	0	0	0	25088	23670	158939	27057	1063844	46733	109274	0	0	8151	563744	0	0
2024-09-15 05:39:47			0	37754	0	0	0	25090	23670	158827	27251	1063870	46710	109275	0	0	8150	564061	0	0
2024-09-15 05:40:47			0	37772	0	0	0	25096	23680	158947	26975	1063835	46733	109277	0	0	8151	563315	0	0
2024-09-15 05:41:47			0	37739	0	0	0	25088	23670	158963	26859	1063826	46744	109274	0	0	8150	564657	0	0
2024-09-15 05:42:47			0	37752	0	0	0	25096	23670	158907	27313	1063853	46722	109277	0	0	8150	564141	0	0
2024-09-15 05:43:47			0	37756	0	0	0	25096	23680	158967	27159	1063835	46722	109277	0	0	8151	563950	0	0
2024-09-15 05:44:47			0	37755	0	0	0	25090	23670	158971	27083	1063826	46722	109275	0	0	8151	564021	0	0
2024-09-15 05:45:47			0	37762	0	0	0	25085	23670	158963	26876	1063853	46722	109273	0	0	8151	563744	0	0
2024-09-15 05:46:47			0	37761	0	0	0	25080	23670	158915	27107	1063879	46733	109271	0	0	8151	563783	0	0
2024-09-15 05:47:47			0	37749	0	0	0	25080	23670	158895	26809	1063799	46722	109271	0	0	8150	564260	0	0
2024-09-15 05:48:47			0	37752	0	0	0	25080	23680	158887	26974	1063862	46722	109271	0	0	8151	564109	0	0
2024-09-15 05:49:47			0	37749	0	0	0	25077	23670	158991	27232	1063853	46722	109270	0	0	8150	564260	0	0
2024-09-15 05:50:47			0	37745	0	0	0	25072	23670	158851	27034	1063826	46722	109268	0	0	8150	564418	0	0
2024-09-15 05:51:47			0	37727	0	0	0	25077	23680	159031	27076	1063862	46733	109270	0	0	8149	565102	0	0
2024-09-15 05:52:47			0	37736	0	0	0	25088	23670	158975	27138	1063817	46722	109274	0	0	8149	564776	0	0
2024-09-15 05:53:47			0	37725	0	0	0	25085	23670	159015	26955	1063817	46722	109273	0	0	8149	565213	0	0
2024-09-15 05:54:47			0	37721	0	0	0	25080	23670	159059	27033	1063799	46733	109271	0	0	8149	565372	0	0
2024-09-15 05:55:47			0	37737	0	0	0	25080	23670	159023	27229	1063817	46710	109271	0	0	8150	564736	0	0
2024-09-15 05:56:47			0	37738	0	0	0	25072	23660	159019	27239	1063808	46721	109268	0	0	8150	564728	0	0
2024-09-15 05:57:47			0	37743	0	0	0	25075	23660	159027	27298	1063835	46732	109269	0	0	8150	564530	0	0
2024-09-15 05:58:47			0	37744	0	0	0	25083	23670	158983	27126	1063844	46733	109272	0	0	8150	564458	0	0
2024-09-15 05:59:47			0	37731	0	0	0	25072	23670	158967	27163	1063817	46733	109268	0	0	8149	564975	0	0
2024-09-15 06:00:47			0	37722	0	0	0	25077	23670	159059	26809	1063799	46733	109270	0	0	8149	565332	0	0
2024-09-15 06:01:47			0	37746	0	0	0	25085	23660	158931	27183	1063808	46743	109273	0	0	8150	564410	0	0
2024-09-15 06:02:47			0	37749	0	0	0	25067	23660	158955	27066	1063754	46721	109266	0	0	8151	564291	0	0
2024-09-15 06:03:47			0	37737	0	0	0	25075	23660	158851	27251	1063826	46720	109269	0	0	8150	564768	0	0
2024-09-15 06:04:47			0	37776	0	0	0	25077	23660	158831	27130	1063799	46731	109270	0	0	8152	563220	0	0
2024-09-15 06:05:47			0	37753	0	0	0	25077	23670	158915	26961	1063817	46722	109270	0	0	8151	564101	0	0
2024-09-15 06:06:47			0	37759	0	0	0	25077	23670	158931	26878	1063817	46710	109270	0	0	8151	563863	0	0
2024-09-15 06:07:47			0	37747	0	0	0	25075	23670	158891	27144	1063817	46733	109269	0	0	8150	564339	0	0
2024-09-15 06:08:47			0	37742	0	0	0	25075	23670	158951	27196	1063870	46722	109269	0	0	8150	564538	0	0
2024-09-15 06:09:47			0	37728	0	0	0	25067	23660	159055	26925	1063808	46721	109266	0	0	8149	565125	0	0
2024-09-15 06:10:47			0	37721	0	0	0	25080	23650	159079	27189	1063817	46720	109271	0	0	8149	565436	0	0
2024-09-15 06:11:47			0	37739	0	0	0	25077	23660	159067	27201	1063835	46732	109270	0	0	8150	564689	0	0
2024-09-15 06:12:47			0	37725	0	0	0	25070	23670	158975	27105	1063844	46722	109267	0	0	8149	565213	0	0
2024-09-15 06:13:47			0	37741	0	0	0	25075	23660	158943	27254	1063826	46742	109269	0	0	8150	564609	0	0
2024-09-15 06:14:47			0	37722	0	0	0	25064	23650	158951	27248	1063817	46731	109265	0	0	8149	565396	0	0
2024-09-15 06:15:47			0	37719	0	0	0	25070	23660	158923	27131	1063728	46721	109267	0	0	8149	565483	0	0
2024-09-15 06:16:47			0	37718	0	0	0	25064	23650	159015	26889	1063817	46708	109265	0	0	8149	565555	0	0
2024-09-15 06:17:47			0	37717	0	0	0	25064	23650	159015	27024	1063737	46720	109265	0	0	8149	565595	0	0
2024-09-15 06:18:47			0	37715	0	0	0	25064	23650	159047	27029	1063728	46719	109265	0	0	8149	565674	0	0
2024-09-15 06:19:47			0	37709	0	0	0	25062	23650	159051	27138	1063754	46719	109264	0	0	8148	565913	0	0
2024-09-15 06:20:47			0	37703	0	0	0	25049	23660	159143	27327	1063808	46732	109259	0	0	8148	566120	0	0
2024-09-15 06:21:47			0	37704	0	0	0	25049	23660	159143	27171	1063692	46720	109259	0	0	8148	566080	0	0
2024-09-15 06:22:47			0	37725	0	0	0	25062	23650	159055	26937	1063674	46719	109264	0	0	8149	565277	0	0
2024-09-15 06:23:47			0	37710	0	0	0	25057	23650	159063	27187	1063763	46720	109262	0	0	8148	565873	0	0
2024-09-15 06:24:47			0	37702	0	0	0	25062	23650	159103	26876	1063728	46708	109264	0	0	8148	566191	0	0
2024-09-15 06:25:47			0	37679	0	0	0	25059	23650	159099	27322	1063647	46730	109263	0	0	8147	567107	0	0
2024-09-15 06:26:47			0	37698	0	0	0	25059	23650	159111	27020	1063701	46719	109263	0	0	8148	566350	0	0
2024-09-15 06:27:47			0	37694	0	0	0	25062	23650	159275	27291	1063647	46730	109264	0	0	8147	566510	0	0
2024-09-15 06:28:47			0	37701	0	0	0	25046	23650	159191	27279	1063647	46719	109258	0	0	8148	566231	0	0
2024-09-15 06:29:47			0	37685	0	0	0	25049	23650	159139	27258	1063647	46719	109259	0	0	8147	566868	0	0
2024-09-15 06:30:47			0	37687	0	0	0	25044	23650	159067	27095	1063701	46719	109257	0	0	8147	566788	0	0
2024-09-15 06:31:47			0	37701	0	0	0	25038	23650	159199	26875	1063728	46719	109255	0	0	8148	566231	0	0
2024-09-15 06:32:47			0	37668	0	0	0	25031	23640	159179	27012	1063638	46719	109252	0	0	8146	567577	0	0
2024-09-15 06:33:47			0	37679	0	0	0	25033	23640	159267	27293	1063656	46729	109253	0	0	8147	567139	0	0
2024-09-15 06:34:47			0	37664	0	0	0	25054	23640	159183	27052	1063683	46718	109261	0	0	8146	567737	0	0
2024-09-15 06:35:47			0	37681	0	0	0	25044	23640	159255	27159	1063665	46730	109257	0	0	8147	567059	0	0
2024-09-15 06:36:47			0	37659	0	0	0	25051	23630	159279	27043	1063638	46717	109260	0	0	8145	567968	0	0
2024-09-15 06:37:47			0	37660	0	0	0	25038	23640	159311	27064	1063629	46729	109255	0	0	8146	567896	0	0
2024-09-15 06:38:47			0	37633	0	0	0	25033	23630	159367	26922	1063674	46717	109253	0	0	8144	569005	0	0
2024-09-15 06:39:47			0	37625	0	0	0	25028	23630	159335	27048	1063540	46728	109251	0	0	8144	569325	0	0
2024-09-15 06:40:47			0	37637	0	0	0	25036	23620	159339	27095	1063576	46706	109254	0	0	8144	568877	0	0
2024-09-15 06:41:47			0	37617	0	0	0	25033	23630	159375	26913	1063558	46717	109253	0	0	8143	569644	0	0
2024-09-15 06:42:47			0	37609	0	0	0	25015	23640	159503	26771	1063603	46729	109246	0	0	8143	569932	0	0
2024-09-15 06:43:47			0	37602	0	0	0	25025	23620	159559	26987	1063576	46728	109250	0	0	8142	570276	0	0
2024-09-15 06:44:47			0	37592	0	0	0	25020	23630	159667	26769	1063638	46728	109248	0	0	8142	570643	0	0
2024-09-15 06:45:47			0	37584	0	0	0	25018	23630	159511	27194	1063638	46717	109247	0	0	8142	570963	0	0
2024-09-15 06:46:47			0	37568	0	0	0	25012	23630	159695	26878	1063585	46717	109245	0	0	8141	571604	0	0
2024-09-15 06:47:47			0	37571	0	0	0	25005	23620	159723	27059	1063540	46705	109242	0	0	8141	571516	0	0
2024-09-15 06:48:47			0	37553	0	0	0	25002	23620	159683	27019	1063540	46705	109241	0	0	8140	572237	0	0
2024-09-15 06:49:47			0	37549	0	0	0	24989	23620	159711	27242	1063522	46717	109236	0	0	8140	572397	0	0
2024-09-15 06:50:47			0	37542	0	0	0	25012	23620	159835	27246	1063540	46716	109245	0	0	8139	572678	0	0
2024-09-15 06:51:47			0	37551	0	0	0	24979	23620	159819	27222	1063540	46716	109232	0	0	8140	572317	0	0
2024-09-15 06:52:47			0	37548	0	0	0	25005	23610	159879	27381	1063478	46737	109242	0	0	8140	572469	0	0
2024-09-15 06:53:47			0	37566	0	0	0	25007	23600	159755	27105	1063451	46725	109243	0	0	8141	571780	0	0
2024-09-15 06:54:47			0	37554	0	0	0	24994	23600	159827	27268	1063504	46703	109238	0	0	8140	572261	0	0
2024-09-15 06:55:47			0	37564	0	0	0	24992	23610	159767	26911	1063469	46726	109237	0	0	8141	571828	0	0
2024-09-15 06:56:47			0	37553	0	0	0	24989	23610	159731	27261	1063469	46715	109236	0	0	8140	572269	0	0
2024-09-15 06:57:47			0	37533	0	0	0	24984	23610	159879	27232	1063469	46715	109234	0	0	8139	573071	0	0
2024-09-15 06:58:47			0	37549	0	0	0	24976	23600	159775	27109	1063433	46715	109231	0	0	8140	572461	0	0
2024-09-15 06:59:47			0	37533	0	0	0	24968	23590	159863	27377	1063406	46713	109228	0	0	8139	573135	0	0
2024-09-15 07:00:47			0	37514	0	0	0	24932	23590	159811	27388	1063379	46691	109214	0	0	8139	573898	0	0
2024-09-15 07:01:47			0	37508	0	0	0	24950	23580	159947	27417	1063317	46712	109221	0	0	8138	574171	0	0
2024-09-15 07:02:47			0	37516	0	0	0	24950	23580	159947	27118	1063343	46690	109221	0	0	8138	573850	0	0
2024-09-15 07:03:47			0	37500	0	0	0	24922	23570	160055	26996	1063272	46722	109210	0	0	8138	574524	0	0
2024-09-15 07:04:47			0	37470	0	0	0	24883	23560	160099	26764	1063253	46699	109195	0	0	8137	575763	0	0
2024-09-15 07:05:47			0	37483	0	0	0	24924	23570	160199	27194	1063129	46689	109211	0	0	8137	575208	0	0
2024-09-15 07:06:47			0	37489	0	0	0	24945	23550	160131	26937	1063155	46698	109219	0	0	8137	575031	0	0
2024-09-15 07:07:47			0	37486	0	0	0	24950	23560	159979	27275	1063218	46699	109221	0	0	8137	575119	0	0
2024-09-15 07:08:47			0	37488	0	0	0	24929	23550	160143	27010	1063182	46720	109213	0	0	8137	575071	0	0
2024-09-15 07:09:47			0	37483	0	0	0	24901	23540	160119	27137	1063191	46708	109202	0	0	8137	575305	0	0
2024-09-15 07:10:47			0	37474	0	0	0	24888	23540	160147	27173	1063137	46708	109197	0	0	8137	575667	0	0
2024-09-15 07:11:47			0	37487	0	0	0	24961	23540	160027	26786	1063110	46708	109225	0	0	8136	575144	0	0
2024-09-15 07:12:47			0	37478	0	0	0	24922	23540	160231	27197	1063217	46708	109210	0	0	8136	575506	0	0
2024-09-15 07:13:47			0	37477	0	0	0	24958	23550	160271	26856	1063182	46720	109224	0	0	8136	575514	0	0
2024-09-15 07:14:47			0	37485	0	0	0	24953	23540	160207	26972	1063182	46719	109222	0	0	8136	575224	0	0
2024-09-15 07:15:47			0	37491	0	0	0	24955	23550	160151	26883	1063200	46708	109223	0	0	8137	574951	0	0
2024-09-15 07:16:47			0	37500	0	0	0	24963	23540	160151	26741	1063244	46708	109226	0	0	8137	574621	0	0
2024-09-15 07:17:47			0	37499	0	0	0	24903	23530	160163	26963	1063226	46718	109203	0	0	8138	574694	0	0
2024-09-15 07:18:47			0	37503	0	0	0	24932	23550	160167	26840	1063173	46719	109214	0	0	8138	574469	0	0
2024-09-15 07:19:47			0	37528	0	0	0	24922	23550	160095	26960	1063146	46708	109210	0	0	8139	573465	0	0
2024-09-15 07:20:47			0	37503	0	0	0	24950	23550	160159	26819	1063253	46697	109221	0	0	8138	574469	0	0
2024-09-15 07:21:47			0	37518	0	0	0	24963	23550	160199	26935	1063119	46708	109226	0	0	8138	573866	0	0
2024-09-15 07:22:47			0	37512	0	0	0	24958	23540	160143	27130	1063271	46708	109224	0	0	8138	574139	0	0
2024-09-15 07:23:47			0	37514	0	0	0	24927	23550	160175	27334	1063173	46730	109212	0	0	8139	574027	0	0
2024-09-15 07:24:47			0	37500	0	0	0	24890	23550	160135	26911	1063182	46720	109198	0	0	8138	574589	0	0
2024-09-15 07:25:47			0	37483	0	0	0	24849	23540	160171	26953	1063137	46697	109182	0	0	8138	575305	0	0
2024-09-15 07:26:47			0	37467	0	0	0	24901	23530	160299	26859	1063066	46685	109202	0	0	8136	575981	0	0
2024-09-15 07:27:47			0	37463	0	0	0	24932	23530	160387	26672	1063003	46684	109214	0	0	8135	576142	0	0
2024-09-15 07:28:47			0	37454	0	0	0	24914	23530	160315	26757	1063110	46695	109207	0	0	8135	576504	0	0
2024-09-15 07:29:47			0	37486	0	0	0	24885	23520	160283	26977	1063101	46695	109196	0	0	8138	575249	0	0
2024-09-15 07:30:47			0	37467	0	0	0	24838	23520	160267	27097	1063048	46707	109178	0	0	8137	576013	0	0
2024-09-15 07:31:47			0	37462	0	0	0	24922	23520	160335	26955	1063066	46694	109210	0	0	8135	576214	0	0
2024-09-15 07:32:47			0	37459	0	0	0	24922	23530	160427	26937	1063093	46707	109210	0	0	8135	576303	0	0
2024-09-15 07:33:47			0	37481	0	0	0	24948	23520	160315	27024	1063048	46707	109220	0	0	8136	575450	0	0
2024-09-15 07:34:47			0	37475	0	0	0	24932	23520	160327	27274	1063128	46717	109214	0	0	8136	575691	0	0
2024-09-15 07:35:47			0	37488	0	0	0	24898	23510	160319	27017	1063110	46716	109201	0	0	8137	575201	0	0
2024-09-15 07:36:47			0	37485	0	0	0	24924	23530	160255	26960	1063137	46707	109211	0	0	8137	575257	0	0
2024-09-15 07:37:47			0	37498	0	0	0	24903	23520	160183	27057	1063075	46707	109203	0	0	8138	574766	0	0
2024-09-15 07:38:47			0	37485	0	0	0	24901	23530	160339	26868	1063084	46684	109202	0	0	8137	575257	0	0
2024-09-15 07:39:47			0	37492	0	0	0	24911	23520	160295	26771	1063039	46706	109206	0	0	8137	575008	0	0
2024-09-15 07:40:47			0	37493	0	0	0	24903	23520	160275	27124	1063101	46684	109203	0	0	8138	574967	0	0
2024-09-15 07:41:47			0	37486	0	0	0	24877	23520	160219	27126	1063075	46695	109193	0	0	8138	575249	0	0
2024-09-15 07:42:47			0	37482	0	0	0	24857	23510	160291	27005	1063003	46694	109185	0	0	8138	575442	0	0
2024-09-15 07:43:47			0	37458	0	0	0	24896	23510	160331	26842	1062967	46715	109200	0	0	8136	576408	0	0
2024-09-15 07:44:47			0	37477	0	0	0	24872	23510	160351	27067	1062994	46693	109191	0	0	8137	575643	0	0
2024-09-15 07:45:47			0	37483	0	0	0	24864	23510	160315	26724	1062967	46693	109188	0	0	8138	575402	0	0
2024-09-15 07:46:47			0	37456	0	0	0	24890	23500	160503	26757	1062976	46703	109198	0	0	8136	576521	0	0
2024-09-15 07:47:47			0	37477	0	0	0	24888	23500	160359	26795	1062958	46682	109197	0	0	8137	575676	0	0
2024-09-15 07:48:47			0	37486	0	0	0	24857	23500	160395	26876	1062958	46693	109185	0	0	8138	575313	0	0
2024-09-15 07:49:47			0	37469	0	0	0	24836	23500	160375	26856	1062905	46682	109177	0	0	8137	575997	0	0
2024-09-15 07:50:47			0	37474	0	0	0	24810	23490	160387	26883	1062807	46692	109167	0	0	8138	575829	0	0
2024-09-15 07:51:47			0	37461	0	0	0	24859	23470	160435	26974	1062771	46678	109186	0	0	8136	576417	0	0
2024-09-15 07:52:47			0	37488	0	0	0	24906	23480	160427	27208	1062896	46702	109204	0	0	8137	575298	0	0
2024-09-15 07:53:47			0	37492	0	0	0	24909	23470	160403	27229	1062905	46700	109205	0	0	8137	575169	0	0
2024-09-15 07:54:47			0	37510	0	0	0	24875	23490	160291	27064	1062932	46702	109192	0	0	8139	574381	0	0
2024-09-15 07:55:47			0	37519	0	0	0	24841	23490	160211	26927	1062905	46713	109179	0	0	8140	574020	0	0
2024-09-15 07:56:47			0	37503	0	0	0	24841	23480	160231	27031	1062816	46691	109179	0	0	8139	574695	0	0
2024-09-15 07:57:47			0	37533	0	0	0	24883	23480	160251	27008	1062833	46701	109195	0	0	8140	573490	0	0
2024-09-15 07:58:47			0	37524	0	0	0	24844	23480	160195	26909	1062869	46702	109180	0	0	8140	573851	0	0
2024-09-15 07:59:47			0	37533	0	0	0	24859	23470	160131	27093	1062771	46700	109186	0	0	8140	573522	0	0
2024-09-15 08:00:47			0	37528	0	0	0	24836	23470	160139	26816	1062798	46711	109177	0	0	8141	573723	0	0
2024-09-15 08:01:47			0	37554	0	0	0	24872	23460	160151	27046	1062833	46689	109191	0	0	8141	572712	0	0
2024-09-15 08:02:47			0	37559	0	0	0	24844	23470	160131	26925	1062798	46689	109180	0	0	8142	572479	0	0
2024-09-15 08:03:47			0	37551	0	0	0	24851	23470	159975	27067	1062771	46689	109183	0	0	8142	572800	0	0
2024-09-15 08:04:47			0	37558	0	0	0	24862	23470	160055	26828	1062789	46700	109187	0	0	8142	572519	0	0
2024-09-15 08:05:47			0	37566	0	0	0	24851	23470	160039	26752	1062789	46700	109183	0	0	8143	572198	0	0
2024-09-15 08:06:47			0	37562	0	0	0	24771	23460	159915	26868	1062691	46699	109152	0	0	8144	572391	0	0
2024-09-15 08:07:47			0	37547	0	0	0	24776	23450	160107	27196	1062628	46676	109154	0	0	8143	573025	0	0
2024-09-15 08:08:47			0	37563	0	0	0	24742	23440	160039	26906	1062610	46686	109141	0	0	8144	572415	0	0
2024-09-15 08:09:47			0	37552	0	0	0	24732	23430	160091	27093	1062512	46674	109137	0	0	8144	572889	0	0
2024-09-15 08:10:47			0	37549	0	0	0	24841	23410	160067	27029	1062503	46650	109179	0	0	8141	573073	0	0
2024-09-15 08:11:47			0	37581	0	0	0	24844	23410	160059	26963	1062565	46695	109180	0	0	8143	571790	0	0
2024-09-15 08:12:47			0	37608	0	0	0	24831	23420	160019	26781	1062574	46707	109175	0	0	8145	570677	0	0
2024-09-15 08:13:47			0	37591	0	0	0	24828	23420	159991	27128	1062636	46696	109174	0	0	8144	571358	0	0
2024-09-15 08:14:47			0	37601	0	0	0	24849	23420	159879	27175	1062556	46708	109182	0	0	8144	570957	0	0
2024-09-15 08:15:47			0	37626	0	0	0	24838	23420	159899	27358	1062663	46708	109178	0	0	8146	569957	0	0
2024-09-15 08:16:47			0	37624	0	0	0	24802	23420	159891	27119	1062610	46696	109164	0	0	8147	570037	0	0
2024-09-15 08:17:47			0	37619	0	0	0	24781	23420	159663	26942	1062574	46684	109156	0	0	8147	570237	0	0
2024-09-15 08:18:47			0	37628	0	0	0	24807	23420	159851	26949	1062529	46674	109166	0	0	8147	569877	0	0
2024-09-15 08:19:47			0	37637	0	0	0	24825	23410	159747	27237	1062529	46694	109173	0	0	8147	569550	0	0
2024-09-15 08:20:47			0	37625	0	0	0	24805	23420	159747	26970	1062520	46684	109165	0	0	8147	569997	0	0
2024-09-15 08:21:47			0	37634	0	0	0	24812	23410	159671	27111	1062565	46684	109168	0	0	8147	569670	0	0
2024-09-15 08:22:47			0	37655	0	0	0	24823	23410	159703	27095	1062583	46706	109172	0	0	8148	568831	0	0
2024-09-15 08:23:47			0	37661	0	0	0	24820	23420	159583	27053	1062574	46707	109171	0	0	8148	568559	0	0
2024-09-15 08:24:47			0	37668	0	0	0	24815	23410	159555	26965	1062592	46684	109169	0	0	8149	568312	0	0
2024-09-15 08:25:47			0	37673	0	0	0	24823	23410	159579	27325	1062476	46683	109172	0	0	8149	568112	0	0
2024-09-15 08:26:47			0	37686	0	0	0	24838	23420	159523	26850	1062601	46695	109178	0	0	8150	567562	0	0
2024-09-15 08:27:47			0	37673	0	0	0	24846	23420	159579	27128	1062601	46684	109181	0	0	8149	568080	0	0
2024-09-15 08:28:47			0	37679	0	0	0	24854	23420	159463	27239	1062654	46717	109184	0	0	8149	567841	0	0
2024-09-15 08:29:47			0	37710	0	0	0	24862	23420	159483	27062	1062690	46708	109187	0	0	8151	566605	0	0
2024-09-15 08:30:47			0	37696	0	0	0	24875	23420	159439	26960	1062663	46708	109192	0	0	8150	567163	0	0
2024-09-15 08:31:47			0	37732	0	0	0	24838	23430	159451	27069	1062735	46708	109178	0	0	8152	565698	0	0
2024-09-15 08:32:47			0	37719	0	0	0	24851	23440	159339	26996	1062690	46708	109183	0	0	8151	566183	0	0
2024-09-15 08:33:47			0	37729	0	0	0	24825	23430	159275	26840	1062619	46696	109173	0	0	8152	565817	0	0
2024-09-15 08:34:47			0	37730	0	0	0	24831	23440	159275	26873	1062664	46697	109175	0	0	8152	565746	0	0
2024-09-15 08:35:47			0	37739	0	0	0	24844	23420	159275	26762	1062610	46696	109180	0	0	8153	565451	0	0
2024-09-15 08:36:47			0	37751	0	0	0	24833	23430	159143	27140	1062681	46686	109176	0	0	8154	564942	0	0
2024-09-15 08:37:47			0	37742	0	0	0	24870	23430	159111	27039	1062645	46708	109190	0	0	8152	565300	0	0
2024-09-15 08:38:47			0	37758	0	0	0	24872	23430	159191	27223	1062699	46696	109191	0	0	8153	564664	0	0
2024-09-15 08:39:47			0	37776	0	0	0	24935	23430	159251	27291	1062761	46697	109215	0	0	8153	563949	0	0
2024-09-15 08:40:47			0	37787	0	0	0	24888	23440	159023	26930	1062806	46720	109197	0	0	8155	563481	0	0
2024-09-15 08:41:47			0	37783	0	0	0	24903	23450	159043	27161	1062815	46720	109203	0	0	8154	563608	0	0
2024-09-15 08:42:47			0	37812	0	0	0	24937	23460	158951	26991	1062851	46710	109216	0	0	8155	562426	0	0
2024-09-15 08:43:47			0	37827	0	0	0	24929	23460	158963	27322	1062833	46722	109213	0	0	8156	561831	0	0
2024-09-15 08:44:47			0	37829	0	0	0	24906	23470	158959	27088	1062931	46700	109204	0	0	8157	561721	0	0
2024-09-15 08:45:47			0	37826	0	0	0	24976	23480	158947	27062	1063003	46735	109231	0	0	8156	561808	0	0
2024-09-15 08:46:47			0	37847	0	0	0	24963	23490	158795	27041	1063012	46713	109226	0	0	8157	560945	0	0
2024-09-15 08:47:47			0	37857	0	0	0	24927	23500	158759	27066	1063137	46748	109212	0	0	8158	560518	0	0
2024-09-15 08:48:47			0	37863	0	0	0	24875	23500	158667	26989	1063003	46714	109192	0	0	8160	560281	0	0
2024-09-15 08:49:47			0	37875	0	0	0	24948	23500	158659	27296	1062976	46703	109220	0	0	8159	559806	0	0
2024-09-15 08:50:47			0	37853	0	0	0	24929	23500	158675	27209	1063003	46714	109213	0	0	8158	560676	0	0
2024-09-15 08:51:47			0	37856	0	0	0	24932	23500	158643	27001	1063092	46715	109214	0	0	8158	560557	0	0
2024-09-15 08:52:47			0	37877	0	0	0	24898	23500	158667	27249	1063065	46705	109201	0	0	8160	559727	0	0
2024-09-15 08:53:47			0	37884	0	0	0	24896	23500	158559	26932	1062923	46692	109200	0	0	8161	559451	0	0
2024-09-15 08:54:47			0	37885	0	0	0	24916	23500	158515	27105	1062950	46703	109208	0	0	8160	559411	0	0
2024-09-15 08:55:47			0	37898	0	0	0	24922	23500	158531	26831	1063039	46705	109210	0	0	8161	558898	0	0
2024-09-15 08:56:47			0	37906	0	0	0	24935	23510	158619	27081	1063101	46705	109215	0	0	8161	558551	0	0
2024-09-15 08:57:47			0	37908	0	0	0	24961	23510	158503	26904	1063137	46706	109225	0	0	8161	558472	0	0
2024-09-15 08:58:47			0	37894	0	0	0	24979	23520	158599	27282	1063146	46716	109232	0	0	8160	558993	0	0
2024-09-15 08:59:47			0	37890	0	0	0	24963	23530	158511	27104	1063110	46728	109226	0	0	8160	559119	0	0
2024-09-15 09:00:47			0	37909	0	0	0	25002	23540	158491	27197	1063208	46730	109241	0	0	8160	558338	0	0
2024-09-15 09:01:47			0	37921	0	0	0	24997	23530	158475	27268	1063253	46729	109239	0	0	8161	557896	0	0
2024-09-15 09:02:47			0	37935	0	0	0	25025	23540	158479	27107	1063378	46719	109250	0	0	8162	557313	0	0
2024-09-15 09:03:47			0	37944	0	0	0	25041	23550	158359	27041	1063342	46731	109256	0	0	8162	556927	0	0
2024-09-15 09:04:47			0	37948	0	0	0	24989	23560	158359	27085	1063414	46721	109236	0	0	8163	556738	0	0
2024-09-15 09:05:47			0	37934	0	0	0	24986	23560	158303	27360	1063325	46710	109235	0	0	8162	557290	0	0
2024-09-15 09:06:47			0	37941	0	0	0	25020	23560	158367	27289	1063360	46732	109248	0	0	8162	557014	0	0
2024-09-15 09:07:47			0	37927	0	0	0	24997	23580	158315	27410	1063334	46723	109239	0	0	8162	557503	0	0
2024-09-15 09:08:47			0	37934	0	0	0	24994	23560	158343	26961	1063387	46710	109238	0	0	8162	557290	0	0
2024-09-15 09:09:47			0	37953	0	0	0	24927	23560	158195	27358	1063414	46710	109212	0	0	8164	556542	0	0
2024-09-15 09:10:47			0	37969	0	0	0	24955	23560	158223	26915	1063307	46688	109223	0	0	8165	555912	0	0
2024-09-15 09:11:47			0	37971	0	0	0	24981	23570	158235	27187	1063289	46700	109233	0	0	8165	555802	0	0
2024-09-15 09:12:47			0	37959	0	0	0	24997	23560	158339	27159	1063387	46699	109239	0	0	8164	556305	0	0
2024-09-15 09:13:47			0	37952	0	0	0	24984	23560	158203	27189	1063360	46710	109234	0	0	8163	556581	0	0
2024-09-15 09:14:47			0	37983	0	0	0	24984	23570	158155	27204	1063370	46700	109234	0	0	8165	555330	0	0
2024-09-15 09:15:47			0	37980	0	0	0	24986	23570	158119	27152	1063343	46700	109235	0	0	8165	555448	0	0
2024-09-15 09:16:47			0	37983	0	0	0	24976	23570	158111	26868	1063352	46700	109231	0	0	8165	555330	0	0
2024-09-15 09:17:47			0	37988	0	0	0	24961	23570	158163	26885	1063370	46700	109225	0	0	8166	555134	0	0
2024-09-15 09:18:47			0	37981	0	0	0	24979	23570	158183	26896	1063352	46711	109232	0	0	8165	555409	0	0
2024-09-15 09:19:47			0	37980	0	0	0	24999	23570	158119	27019	1063379	46700	109240	0	0	8165	555448	0	0
2024-09-15 09:20:47			0	37977	0	0	0	25018	23560	158211	26939	1063414	46732	109247	0	0	8164	555597	0	0
2024-09-15 09:21:47			0	38011	0	0	0	24986	23570	158007	27027	1063459	46733	109235	0	0	8167	554230	0	0
2024-09-15 09:22:47			0	38001	0	0	0	25025	23590	158167	27124	1063486	46724	109250	0	0	8166	554561	0	0
2024-09-15 09:23:47			0	38033	0	0	0	24963	23590	158072	27118	1063486	46724	109226	0	0	8169	553305	0	0
2024-09-15 09:24:47			0	38028	0	0	0	24986	23590	157884	27412	1063433	46713	109235	0	0	8168	553501	0	0
2024-09-15 09:25:47			0	38043	0	0	0	24994	23590	157936	27135	1063406	46713	109238	0	0	8169	552913	0	0
2024-09-15 09:26:47			0	38049	0	0	0	25005	23580	157944	26968	1063477	46701	109242	0	0	8169	552708	0	0
2024-09-15 09:27:47			0	38063	0	0	0	24958	23580	157840	27067	1063388	46712	109224	0	0	8170	552160	0	0
2024-09-15 09:28:47			0	38062	0	0	0	24981	23570	157864	27562	1063405	46689	109233	0	0	8170	552230	0	0
2024-09-15 09:29:47			0	38048	0	0	0	24963	23570	157828	26979	1063396	46711	109226	0	0	8169	552779	0	0
2024-09-15 09:30:47			0	38049	0	0	0	25002	23580	157852	26840	1063388	46723	109241	0	0	8169	552708	0	0
2024-09-15 09:31:47			0	38054	0	0	0	24997	23570	157756	26918	1063459	46711	109239	0	0	8169	552544	0	0
2024-09-15 09:32:47			0	38082	0	0	0	24974	23580	157772	27012	1063415	46723	109230	0	0	8171	551416	0	0
2024-09-15 09:33:47			0	38080	0	0	0	24963	23570	157808	27431	1063379	46722	109226	0	0	8171	551525	0	0
2024-09-15 09:34:47			0	38075	0	0	0	24999	23580	157804	26941	1063415	46712	109240	0	0	8170	551690	0	0
2024-09-15 09:35:47			0	38071	0	0	0	25002	23580	157812	27293	1063441	46723	109241	0	0	8170	551847	0	0
2024-09-15 09:36:47			0	38081	0	0	0	24994	23580	157752	26977	1063415	46712	109238	0	0	8171	551455	0	0
2024-09-15 09:37:47			0	38076	0	0	0	24976	23590	157844	27159	1063433	46713	109231	0	0	8171	551620	0	0
2024-09-15 09:38:47			0	38089	0	0	0	24986	23580	157860	27246	1063424	46701	109235	0	0	8171	551142	0	0
2024-09-15 09:39:47			0	38083	0	0	0	24981	23580	157780	27360	1063477	46723	109233	0	0	8171	551377	0	0
2024-09-15 09:40:47			0	38080	0	0	0	24979	23580	157700	26960	1063450	46701	109232	0	0	8171	551494	0	0
2024-09-15 09:41:47			0	38092	0	0	0	24968	23580	157764	27218	1063361	46701	109228	0	0	8172	551025	0	0
2024-09-15 09:42:47			0	38103	0	0	0	24966	23580	157640	27043	1063370	46712	109227	0	0	8173	550595	0	0
2024-09-15 09:43:47			0	38122	0	0	0	24979	23580	157644	27381	1063334	46712	109232	0	0	8173	549852	0	0
2024-09-15 09:44:47			0	38119	0	0	0	24984	23570	157544	26802	1063343	46711	109234	0	0	8173	550000	0	0
2024-09-15 09:45:47			0	38140	0	0	0	24984	23580	157680	27237	1063388	46712	109234	0	0	8174	549149	0	0
2024-09-15 09:46:47			0	38156	0	0	0	24979	23580	157592	27235	1063415	46701	109232	0	0	8175	548525	0	0
2024-09-15 09:47:47			0	38135	0	0	0	24974	23570	157564	27251	1063352	46711	109230	0	0	8174	549375	0	0
2024-09-15 09:48:47			0	38154	0	0	0	24976	23570	157560	27163	1063352	46711	109231	0	0	8175	548634	0	0
2024-09-15 09:49:47			0	38156	0	0	0	24966	23580	157528	27253	1063388	46712	109227	0	0	8176	548525	0	0
2024-09-15 09:50:47			0	38171	0	0	0	24966	23570	157500	27156	1063405	46711	109227	0	0	8176	547971	0	0
2024-09-15 09:51:47			0	38168	0	0	0	24984	23560	157424	27218	1063440	46699	109234	0	0	8176	548119	0	0
2024-09-15 09:52:47			0	38161	0	0	0	25010	23570	157500	27474	1063379	46700	109244	0	0	8175	548361	0	0
2024-09-15 09:53:47			0	38170	0	0	0	25012	23580	157504	27409	1063415	46734	109245	0	0	8176	547979	0	0
2024-09-15 09:54:47			0	38187	0	0	0	25007	23590	157368	27403	1063513	46713	109243	0	0	8177	547286	0	0
2024-09-15 09:55:47			0	38189	0	0	0	24994	23580	157516	27156	1063415	46712	109238	0	0	8177	547239	0	0
2024-09-15 09:56:47			0	38186	0	0	0	24984	23560	157384	27126	1063414	46710	109234	0	0	8177	547417	0	0
2024-09-15 09:57:47			0	38231	0	0	0	24989	23590	157320	27197	1063459	46702	109236	0	0	8180	545574	0	0
2024-09-15 09:58:47			0	38223	0	0	0	24992	23580	157264	27105	1063415	46712	109237	0	0	8179	545915	0	0
2024-09-15 09:59:47			0	38213	0	0	0	25012	23590	157312	27381	1063406	46724	109245	0	0	8178	546274	0	0
2024-09-15 10:00:47			0	38218	0	0	0	25012	23580	157196	27272	1063468	46734	109245	0	0	8178	546110	0	0
2024-09-15 10:01:47			0	38235	0	0	0	25012	23570	157208	27300	1063486	46722	109245	0	0	8179	545480	0	0
2024-09-15 10:02:47			0	38236	0	0	0	25023	23590	157184	27400	1063486	46724	109249	0	0	8179	545379	0	0
2024-09-15 10:03:47			0	38236	0	0	0	25023	23590	157244	26928	1063495	46735	109249	0	0	8179	545379	0	0
2024-09-15 10:04:47			0	38242	0	0	0	25025	23600	157220	27360	1063566	46726	109250	0	0	8180	545115	0	0
2024-09-15 10:05:47			0	38259	0	0	0	25018	23590	157156	27057	1063549	46713	109247	0	0	8181	544486	0	0
2024-09-15 10:06:47			0	38278	0	0	0	25005	23590	157160	27343	1063522	46702	109242	0	0	8182	543749	0	0
2024-09-15 10:07:47			0	38258	0	0	0	25023	23610	157064	27528	1063549	46715	109249	0	0	8181	544463	0	0
2024-09-15 10:08:47			0	38276	0	0	0	25010	23600	157028	27170	1063566	46726	109244	0	0	8182	543796	0	0
2024-09-15 10:09:47			0	38300	0	0	0	25010	23600	156976	27098	1063531	46714	109244	0	0	8183	542865	0	0
2024-09-15 10:10:47			0	38302	0	0	0	25020	23590	156896	27441	1063495	46702	109248	0	0	8183	542818	0	0
2024-09-15 10:11:47			0	38309	0	0	0	25028	23600	156916	27320	1063477	46725	109251	0	0	8184	542516	0	0
2024-09-15 10:12:47			0	38323	0	0	0	25020	23600	156920	27419	1063531	46714	109248	0	0	8184	541974	0	0
2024-09-15 10:13:47			0	38341	0	0	0	25038	23600	156880	27319	1063540	46715	109255	0	0	8185	541278	0	0
2024-09-15 10:14:47			0	38344	0	0	0	25028	23610	156736	27447	1063575	46715	109251	0	0	8186	541131	0	0
2024-09-15 10:15:47			0	38334	0	0	0	25028	23610	156808	27104	1063584	46726	109251	0	0	8185	541518	0	0
2024-09-15 10:16:47			0	38362	0	0	0	25028	23600	156740	27107	1063620	46715	109251	0	0	8187	540466	0	0
2024-09-15 10:17:47			0	38360	0	0	0	25038	23600	156644	27152	1063620	46715	109255	0	0	8186	540543	0	0
2024-09-15 10:18:47			0	38375	0	0	0	25033	23600	156704	27178	1063593	46726	109253	0	0	8187	539963	0	0
2024-09-15 10:19:47			0	38395	0	0	0	25041	23600	156604	27211	1063647	46715	109256	0	0	8188	539191	0	0
2024-09-15 10:20:47			0	38401	0	0	0	25023	23600	156604	27163	1063593	46715	109249	0	0	8189	538960	0	0
2024-09-15 10:21:47			0	38407	0	0	0	25010	23620	156508	27154	1063620	46727	109244	0	0	8190	538667	0	0
2024-09-15 10:22:47			0	38402	0	0	0	25036	23610	156552	27116	1063575	46704	109254	0	0	8189	538891	0	0
2024-09-15 10:23:47			0	38380	0	0	0	25070	23610	156652	27180	1063665	46726	109267	0	0	8187	539740	0	0
2024-09-15 10:24:47			0	38385	0	0	0	25070	23620	156736	27003	1063656	46739	109267	0	0	8187	539516	0	0
2024-09-15 10:25:47			0	38367	0	0	0	25051	23620	156692	27244	1063700	46727	109260	0	0	8187	540211	0	0
2024-09-15 10:26:47			0	38377	0	0	0	25046	23620	156668	27305	1063683	46717	109258	0	0	8187	539825	0	0
2024-09-15 10:27:47			0	38393	0	0	0	25044	23620	156572	27046	1063656	46728	109257	0	0	8188	539208	0	0
2024-09-15 10:28:47			0	38393	0	0	0	25036	23630	156424	27402	1063638	46728	109254	0	0	8188	539177	0	0
2024-09-15 10:29:47			0	38397	0	0	0	25028	23620	156508	27327	1063656	46717	109251	0	0	8189	539053	0	0
2024-09-15 10:30:47			0	38395	0	0	0	25038	23620	156488	27131	1063629	46717	109255	0	0	8188	539130	0	0
2024-09-15 10:31:47			0	38412	0	0	0	25054	23630	156584	27374	1063638	46728	109261	0	0	8189	538444	0	0
2024-09-15 10:32:47			0	38409	0	0	0	25057	23620	156528	27326	1063656	46717	109262	0	0	8189	538590	0	0
2024-09-15 10:33:47			0	38430	0	0	0	25062	23630	156432	27308	1063674	46706	109264	0	0	8190	537751	0	0
2024-09-15 10:34:47			0	38436	0	0	0	25054	23630	156420	27289	1063754	46728	109261	0	0	8191	537520	0	0
2024-09-15 10:35:47			0	38452	0	0	0	25031	23630	156444	26974	1063674	46728	109252	0	0	8192	536904	0	0
2024-09-15 10:36:47			0	38445	0	0	0	25025	23630	156376	27123	1063692	46717	109250	0	0	8192	537173	0	0
2024-09-15 10:37:47			0	38444	0	0	0	25018	23630	156332	27312	1063611	46728	109247	0	0	8192	537212	0	0
2024-09-15 10:38:47			0	38465	0	0	0	25025	23630	156272	26849	1063638	46695	109250	0	0	8193	536403	0	0
2024-09-15 10:39:47			0	38449	0	0	0	25028	23620	156320	27431	1063656	46706	109251	0	0	8192	537049	0	0
2024-09-15 10:40:47			0	38445	0	0	0	25044	23630	156308	27457	1063674	46706	109257	0	0	8191	537173	0	0
2024-09-15 10:41:47			0	38468	0	0	0	25038	23630	156268	27443	1063674	46717	109255	0	0	8193	536288	0	0
2024-09-15 10:42:47			0	38497	0	0	0	25020	23620	156244	27407	1063656	46717	109248	0	0	8195	535203	0	0
2024-09-15 10:43:47			0	38495	0	0	0	25031	23620	156200	27258	1063700	46705	109252	0	0	8194	535280	0	0
2024-09-15 10:44:47			0	38515	0	0	0	25028	23620	156116	27272	1063620	46705	109251	0	0	8196	534512	0	0
2024-09-15 10:45:47			0	38515	0	0	0	25038	23620	156008	27034	1063656	46695	109255	0	0	8195	534512	0	0
2024-09-15 10:46:47			0	38539	0	0	0	25036	23630	156068	27220	1063638	46706	109254	0	0	8197	533561	0	0
2024-09-15 10:47:47			0	38535	0	0	0	25059	23620	156048	27317	1063709	46717	109263	0	0	8196	533745	0	0
2024-09-15 10:48:47			0	38540	0	0	0	25062	23620	156064	27199	1063647	46727	109264	0	0	8196	533553	0	0
2024-09-15 10:49:47			0	38549	0	0	0	25057	23630	155992	27397	1063692	46717	109262	0	0	8197	533178	0	0
2024-09-15 10:50:47			0	38540	0	0	0	25059	23630	156004	27284	1063727	46728	109263	0	0	8197	533523	0	0
2024-09-15 10:51:47			0	38517	0	0	0	25031	23630	156252	27343	1063781	46728	109252	0	0	8196	534405	0	0
2024-09-15 10:52:47			0	38499	0	0	0	25031	23640	156168	27258	1063736	46718	109252	0	0	8195	535066	0	0
2024-09-15 10:53:47			0	38500	0	0	0	25018	23620	156144	27235	1063629	46717	109247	0	0	8195	535088	0	0
2024-09-15 10:54:47			0	38512	0	0	0	25018	23630	156084	26960	1063674	46706	109247	0	0	8196	534597	0	0
2024-09-15 10:55:47			0	38475	0	0	0	25012	23620	156240	27371	1063656	46706	109245	0	0	8194	536049	0	0
2024-09-15 10:56:47			0	38459	0	0	0	25025	23620	156360	27372	1063656	46717	109250	0	0	8192	536664	0	0
2024-09-15 10:57:47			0	38457	0	0	0	25028	23620	156256	27357	1063656	46706	109251	0	0	8192	536741	0	0
2024-09-15 10:58:47			0	38465	0	0	0	25028	23620	156268	27415	1063602	46706	109251	0	0	8193	536434	0	0
2024-09-15 10:59:47			0	38459	0	0	0	25028	23620	156380	27481	1063656	46706	109251	0	0	8192	536664	0	0
2024-09-15 11:00:47			0	38472	0	0	0	25033	23610	156192	27429	1063611	46715	109253	0	0	8193	536194	0	0
2024-09-15 11:01:47			0	38504	0	0	0	25038	23610	156000	27033	1063665	46715	109255	0	0	8195	534965	0	0
2024-09-15 11:02:47			0	38528	0	0	0	25012	23620	156124	27157	1063629	46728	109245	0	0	8197	534013	0	0
2024-09-15 11:03:47			0	38469	0	0	0	25007	23620	156076	27377	1063629	46717	109243	0	0	8193	536280	0	0
2024-09-15 11:04:47			0	38524	0	0	0	25023	23620	156036	27280	1063620	46727	109249	0	0	8196	534167	0	0
2024-09-15 11:05:47			0	38520	0	0	0	25020	23620	155964	27474	1063656	46706	109248	0	0	8196	534320	0	0
2024-09-15 11:06:47			0	38525	0	0	0	25028	23620	156080	27209	1063683	46717	109251	0	0	8196	534128	0	0
2024-09-15 11:07:47			0	38538	0	0	0	25025	23620	156048	27296	1063647	46716	109250	0	0	8197	533630	0	0
2024-09-15 11:08:47			0	38509	0	0	0	25023	23620	156032	27239	1063593	46705	109249	0	0	8195	534743	0	0
2024-09-15 11:09:47			0	38529	0	0	0	25031	23610	156004	27301	1063611	46693	109252	0	0	8196	534005	0	0
2024-09-15 11:10:47			0	38538	0	0	0	25033	23630	155916	27479	1063665	46717	109253	0	0	8197	533600	0	0
2024-09-15 11:11:47			0	38578	0	0	0	25036	23620	155888	27163	1063647	46738	109254	0	0	8199	532097	0	0
2024-09-15 11:12:47			0	38552	0	0	0	25028	23620	155940	27209	1063683	46717	109251	0	0	8198	533093	0	0
2024-09-15 11:13:47			0	38527	0	0	0	25018	23610	156012	27008	1063611	46715	109247	0	0	8196	534082	0	0
2024-09-15 11:14:47			0	38511	0	0	0	25033	23620	156072	27485	1063700	46705	109253	0	0	8195	534666	0	0
2024-09-15 11:15:47			0	38493	0	0	0	25049	23620	156012	27138	1063629	46717	109259	0	0	8194	535357	0	0
2024-09-15 11:16:47			0	38498	0	0	0	25033	23620	156104	27289	1063674	46705	109253	0	0	8194	535165	0	0
2024-09-15 11:17:47			0	38518	0	0	0	25057	23630	155996	27071	1063718	46717	109262	0	0	8195	534367	0	0
2024-09-15 11:18:47			0	38573	0	0	0	25067	23620	155852	27201	1063709	46739	109266	0	0	8198	532289	0	0
2024-09-15 11:19:47			0	38614	0	0	0	25059	23620	155740	27300	1063683	46739	109263	0	0	8201	530721	0	0
2024-09-15 11:20:47			0	38619	0	0	0	25057	23630	155640	27223	1063745	46706	109262	0	0	8201	530500	0	0
2024-09-15 11:21:47			0	38639	0	0	0	25051	23630	155644	27289	1063727	46728	109260	0	0	8202	529736	0	0
2024-09-15 11:22:47			0	38654	0	0	0	25044	23630	155528	27033	1063718	46717	109257	0	0	8203	529163	0	0
2024-09-15 11:23:47			0	38657	0	0	0	25036	23630	155596	27265	1063701	46717	109254	0	0	8204	529049	0	0
2024-09-15 11:24:47			0	38617	0	0	0	25023	23630	155692	27178	1063638	46717	109249	0	0	8202	530576	0	0
2024-09-15 11:25:47			0	38605	0	0	0	25049	23630	155736	27116	1063674	46717	109259	0	0	8200	531035	0	0
2024-09-15 11:26:47			0	38620	0	0	0	25064	23630	155724	27287	1063692	46706	109265	0	0	8201	530461	0	0
2024-09-15 11:27:47			0	38636	0	0	0	25059	23620	155476	27315	1063709	46739	109263	0	0	8202	529880	0	0
2024-09-15 11:28:47			0	38678	0	0	0	25059	23640	155544	27225	1063736	46718	109263	0	0	8205	528218	0	0
2024-09-15 11:29:47			0	38627	0	0	0	25020	23630	155796	27396	1063692	46706	109248	0	0	8202	530194	0	0
2024-09-15 11:30:47			0	38620	0	0	0	25044	23630	155736	27111	1063701	46739	109257	0	0	8201	530461	0	0
2024-09-15 11:31:47			0	38590	0	0	0	25023	23630	155900	27350	1063701	46717	109249	0	0	8200	531608	0	0
2024-09-15 11:32:47			0	38528	0	0	0	25028	23630	156096	27388	1063665	46717	109251	0	0	8196	533983	0	0
2024-09-15 11:33:47			0	38472	0	0	0	25025	23630	156212	27296	1063718	46706	109250	0	0	8193	536134	0	0
2024-09-15 11:34:47			0	38482	0	0	0	25028	23620	156164	27417	1063656	46717	109251	0	0	8194	535780	0	0
2024-09-15 11:35:47			0	38472	0	0	0	25023	23630	156256	27381	1063665	46706	109249	0	0	8193	536134	0	0
2024-09-15 11:36:47			0	38482	0	0	0	25038	23630	156228	27473	1063665	46706	109255	0	0	8194	535750	0	0
2024-09-15 11:37:47			0	38526	0	0	0	25046	23620	156068	27161	1063763	46717	109258	0	0	8196	534090	0	0
2024-09-15 11:38:47			0	38528	0	0	0	25057	23630	156016	27088	1063701	46717	109262	0	0	8196	533983	0	0
2024-09-15 11:39:47			0	38562	0	0	0	25064	23620	156008	27147	1063736	46706	109265	0	0	8198	532710	0	0
2024-09-15 11:40:47			0	38595	0	0	0	25064	23630	155852	27402	1063745	46706	109265	0	0	8200	531417	0	0
2024-09-15 11:41:47			0	38609	0	0	0	25064	23640	155792	27379	1063736	46718	109265	0	0	8200	530852	0	0
2024-09-15 11:42:47			0	38605	0	0	0	25067	23630	155656	27232	1063808	46717	109266	0	0	8200	531035	0	0
2024-09-15 11:43:47			0	38625	0	0	0	25054	23640	155724	27448	1063790	46718	109261	0	0	8202	530241	0	0
2024-09-15 11:44:47			0	38607	0	0	0	25038	23640	155712	27407	1063772	46719	109255	0	0	8201	530928	0	0
2024-09-15 11:45:47			0	38568	0	0	0	25025	23630	155912	27381	1063727	46717	109250	0	0	8199	532450	0	0
2024-09-15 11:46:47			0	38551	0	0	0	25018	23640	155908	27121	1063683	46696	109247	0	0	8198	533072	0	0
2024-09-15 11:47:47			0	38575	0	0	0	25044	23630	155988	27071	1063665	46706	109257	0	0	8199	532182	0	0
2024-09-15 11:48:47			0	38602	0	0	0	25041	23630	155784	27320	1063772	46706	109256	0	0	8200	531149	0	0
2024-09-15 11:49:47			0	38609	0	0	0	25046	23630	155692	27239	1063727	46717	109258	0	0	8201	530882	0	0
2024-09-15 11:50:47			0	38593	0	0	0	25033	23630	155844	27209	1063692	46706	109253	0	0	8200	531494	0	0
2024-09-15 11:51:47			0	38560	0	0	0	25036	23630	156016	27196	1063745	46717	109254	0	0	8198	532757	0	0
2024-09-15 11:52:47			0	38456	0	0	0	25031	23630	156264	27008	1063745	46717	109252	0	0	8192	536750	0	0
2024-09-15 11:53:47			0	38402	0	0	0	25031	23630	156516	27293	1063692	46717	109252	0	0	8189	538830	0	0
2024-09-15 11:54:47			0	38362	0	0	0	25033	23630	156644	27428	1063692	46695	109253	0	0	8187	540374	0	0
2024-09-15 11:55:47			0	38335	0	0	0	25038	23630	156636	27826	1063692	46706	109255	0	0	8185	541418	0	0
2024-09-15 11:56:47			0	38341	0	0	0	25038	23630	156832	27365	1063718	46728	109255	0	0	8185	541186	0	0
2024-09-15 11:57:47			0	38326	0	0	0	25062	23630	156764	27447	1063754	46706	109264	0	0	8184	541766	0	0
2024-09-15 11:58:47			0	38365	0	0	0	25064	23620	156724	27348	1063736	46728	109265	0	0	8186	540289	0	0
2024-09-15 11:59:47			0	38369	0	0	0	25054	23640	156588	27360	1063736	46718	109261	0	0	8187	540073	0	0
2024-09-15 12:00:47			0	38403	0	0	0	25057	23640	156536	27336	1063790	46729	109262	0	0	8189	538761	0	0
2024-09-15 12:01:47			0	38412	0	0	0	25062	23630	156484	27071	1063781	46695	109264	0	0	8189	538444	0	0
2024-09-15 12:02:47			0	38416	0	0	0	25070	23640	156440	27291	1063799	46708	109267	0	0	8189	538260	0	0
2024-09-15 12:03:47			0	38413	0	0	0	25064	23640	156416	27557	1063817	46707	109265	0	0	8189	538376	0	0
2024-09-15 12:04:47			0	38388	0	0	0	25062	23650	156524	27611	1063808	46719	109264	0	0	8188	539310	0	0
2024-09-15 12:05:47			0	38366	0	0	0	25072	23640	156596	27424	1063826	46719	109268	0	0	8186	540189	0	0
2024-09-15 12:06:47			0	38361	0	0	0	25077	23650	156580	27646	1063808	46730	109270	0	0	8186	540352	0	0
2024-09-15 12:07:47			0	38368	0	0	0	25085	23650	156568	27417	1063843	46720	109273	0	0	8186	540082	0	0
2024-09-15 12:08:47			0	38389	0	0	0	25085	23650	156444	27646	1063888	46730	109273	0	0	8187	539271	0	0
2024-09-15 12:09:47			0	38385	0	0	0	25098	23650	156520	27516	1063870	46720	109278	0	0	8187	539425	0	0
2024-09-15 12:10:47			0	38383	0	0	0	25109	23650	156536	27440	1063924	46742	109282	0	0	8187	539503	0	0
2024-09-15 12:11:47			0	38372	0	0	0	25109	23670	156476	27533	1063870	46733	109282	0	0	8186	539866	0	0
2024-09-15 12:12:47			0	38382	0	0	0	25114	23660	156512	27755	1063959	46731	109284	0	0	8187	539511	0	0
2024-09-15 12:13:47			0	38369	0	0	0	25119	23660	156556	27371	1063986	46731	109286	0	0	8186	540013	0	0
2024-09-15 12:14:47			0	38340	0	0	0	25124	23680	156704	27403	1064076	46733	109288	0	0	8184	541073	0	0
2024-09-15 12:15:47			0	38308	0	0	0	25148	23670	156796	27523	1064031	46744	109297	0	0	8182	542341	0	0
2024-09-15 12:16:47			0	38315	0	0	0	25145	23690	156868	27260	1064076	46746	109296	0	0	8182	542009	0	0
2024-09-15 12:17:47			0	38312	0	0	0	25153	23690	156816	27287	1064130	46724	109299	0	0	8182	542125	0	0
2024-09-15 12:18:47			0	38343	0	0	0	25153	23700	156656	27405	1064165	46724	109299	0	0	8184	540896	0	0
2024-09-15 12:19:47			0	38371	0	0	0	25150	23700	156648	27043	1064148	46747	109298	0	0	8186	539814	0	0
2024-09-15 12:20:47			0	38397	0	0	0	25166	23700	156624	27034	1064192	46735	109304	0	0	8187	538811	0	0
2024-09-15 12:21:47			0	38399	0	0	0	25179	23720	156464	27409	1064255	46726	109309	0	0	8187	538673	0	0
2024-09-15 12:22:47			0	38381	0	0	0	25215	23720	156536	27369	1064255	46748	109323	0	0	8185	539367	0	0
2024-09-15 12:23:47			0	38397	0	0	0	25199	23720	156432	27298	1064282	46737	109317	0	0	8186	538750	0	0
2024-09-15 12:24:47			0	38448	0	0	0	25223	23730	156300	27317	1064282	46740	109326	0	0	8189	536755	0	0
2024-09-15 12:25:47			0	38464	0	0	0	25225	23750	156220	27388	1064353	46750	109327	0	0	8190	536080	0	0
2024-09-15 12:26:47			0	38499	0	0	0	25231	23750	156092	27246	1064460	46740	109329	0	0	8192	534735	0	0
2024-09-15 12:27:47			0	38501	0	0	0	25249	23770	156108	27338	1064505	46743	109336	0	0	8192	534598	0	0
2024-09-15 12:28:47			0	38454	0	0	0	25249	23770	156272	27291	1064523	46752	109336	0	0	8189	536404	0	0
2024-09-15 12:29:47			0	38473	0	0	0	25257	23790	156120	27069	1064586	46744	109339	0	0	8190	535613	0	0
2024-09-15 12:30:47			0	38504	0	0	0	25251	23790	156220	27353	1064532	46754	109337	0	0	8192	534423	0	0
2024-09-15 12:31:47			0	38501	0	0	0	25246	23790	156012	27289	1064595	46745	109335	0	0	8192	534538	0	0
2024-09-15 12:32:47			0	38530	0	0	0	25249	23790	155900	27412	1064621	46734	109336	0	0	8193	533426	0	0
2024-09-15 12:33:47			0	38553	0	0	0	25246	23800	155848	27320	1064559	46736	109335	0	0	8195	532515	0	0
2024-09-15 12:34:47			0	38560	0	0	0	25238	23810	155756	27481	1064568	46736	109332	0	0	8195	532217	0	0
2024-09-15 12:35:47			0	38548	0	0	0	25236	23800	155816	27379	1064613	46747	109331	0	0	8195	532706	0	0
2024-09-15 12:36:47			0	38515	0	0	0	25223	23810	155988	27197	1064648	46725	109326	0	0	8193	533941	0	0
2024-09-15 12:37:47			0	38491	0	0	0	25231	23800	156020	27545	1064559	46736	109329	0	0	8192	534892	0	0
2024-09-15 12:38:47			0	38482	0	0	0	25231	23810	156176	27263	1064604	46736	109329	0	0	8191	535207	0	0
2024-09-15 12:39:47			0	38451	0	0	0	25223	23810	156208	27481	1064595	46725	109326	0	0	8189	536398	0	0
2024-09-15 12:40:47			0	38408	0	0	0	25238	23810	156312	27071	1064577	46747	109332	0	0	8187	538053	0	0
2024-09-15 12:41:47			0	38403	0	0	0	25231	23820	156388	27270	1064613	46748	109329	0	0	8187	538216	0	0
2024-09-15 12:42:47			0	38410	0	0	0	25231	23810	156404	27286	1064622	46736	109329	0	0	8187	537976	0	0
2024-09-15 12:43:47			0	38408	0	0	0	25233	23810	156288	27183	1064595	46747	109330	0	0	8187	538053	0	0
2024-09-15 12:44:47			0	38424	0	0	0	25223	23810	156296	27137	1064657	46747	109326	0	0	8188	537437	0	0
2024-09-15 12:45:47			0	38440	0	0	0	25231	23820	156220	27372	1064649	46727	109329	0	0	8189	536791	0	0
2024-09-15 12:46:47			0	38466	0	0	0	25231	23820	156168	27130	1064640	46737	109329	0	0	8190	535792	0	0
2024-09-15 12:47:47			0	38461	0	0	0	25225	23810	156148	27339	1064622	46736	109327	0	0	8190	536014	0	0
2024-09-15 12:48:47			0	38468	0	0	0	25228	23810	156132	27268	1064595	46736	109328	0	0	8190	535745	0	0
2024-09-15 12:49:47			0	38494	0	0	0	25233	23810	156132	27365	1064595	46747	109330	0	0	8192	534746	0	0
2024-09-15 12:50:47			0	38505	0	0	0	25231	23810	156004	27213	1064604	46736	109329	0	0	8192	534324	0	0
2024-09-15 12:51:47			0	38513	0	0	0	25228	23810	155996	27088	1064595	46747	109328	0	0	8193	534018	0	0
2024-09-15 12:52:47			0	38514	0	0	0	25228	23820	155892	27535	1064613	46737	109328	0	0	8193	533949	0	0
2024-09-15 12:53:47			0	38558	0	0	0	25223	23810	155844	27261	1064568	46747	109326	0	0	8196	532294	0	0
2024-09-15 12:54:47			0	38594	0	0	0	25220	23820	155724	27362	1064613	46737	109325	0	0	8198	530887	0	0
2024-09-15 12:55:47			0	38658	0	0	0	25212	23820	155436	27332	1064515	46727	109322	0	0	8202	528445	0	0
2024-09-15 12:56:47			0	38673	0	0	0	25220	23820	155372	27601	1064586	46737	109325	0	0	8202	527874	0	0
2024-09-15 12:57:47			0	38680	0	0	0	25218	23810	155236	27739	1064550	46736	109324	0	0	8203	527637	0	0
2024-09-15 12:58:47			0	38691	0	0	0	25220	23810	155180	27388	1064568	46736	109325	0	0	8203	527218	0	0
2024-09-15 12:59:47			0	38683	0	0	0	25212	23810	155200	27414	1064622	46736	109322	0	0	8203	527523	0	0
2024-09-15 13:00:47			0	38709	0	0	0	25215	23810	155148	27377	1064524	46713	109323	0	0	8204	526534	0	0
2024-09-15 13:01:47			0	38682	0	0	0	25207	23800	155216	27519	1064506	46736	109320	0	0	8203	527591	0	0
2024-09-15 13:02:47			0	38651	0	0	0	25207	23810	155368	27549	1064568	46725	109320	0	0	8201	528742	0	0
2024-09-15 13:03:47			0	38613	0	0	0	25205	23800	155516	27204	1064532	46725	109319	0	0	8199	530221	0	0
2024-09-15 13:04:47			0	38561	0	0	0	25197	23810	155776	27431	1064541	46725	109316	0	0	8196	532179	0	0
2024-09-15 13:05:47			0	38532	0	0	0	25207	23800	155840	27374	1064523	46724	109320	0	0	8194	533319	0	0
2024-09-15 13:06:47			0	38536	0	0	0	25205	23810	155792	27343	1064470	46725	109319	0	0	8195	533136	0	0
2024-09-15 13:07:47			0	38528	0	0	0	25210	23800	155860	27407	1064532	46725	109321	0	0	8194	533473	0	0
2024-09-15 13:08:47			0	38584	0	0	0	25199	23800	155716	27440	1064559	46725	109317	0	0	8197	531329	0	0
2024-09-15 13:09:47			0	38584	0	0	0	25207	23800	155756	27471	1064532	46736	109320	0	0	8197	531329	0	0
2024-09-15 13:10:47			0	38553	0	0	0	25210	23800	155704	27313	1064523	46735	109321	0	0	8195	532515	0	0
2024-09-15 13:11:47			0	38550	0	0	0	25207	23790	155696	27369	1064461	46734	109320	0	0	8195	532660	0	0
2024-09-15 13:12:47			0	38549	0	0	0	25205	23790	155704	27467	1064514	46711	109319	0	0	8195	532698	0	0
2024-09-15 13:13:47			0	38547	0	0	0	25207	23790	155796	27623	1064541	46734	109320	0	0	8195	532775	0	0
2024-09-15 13:14:47			0	38549	0	0	0	25207	23800	155772	27471	1064523	46735	109320	0	0	8195	532668	0	0
2024-09-15 13:15:47			0	38523	0	0	0	25210	23800	155952	27201	1064586	46736	109321	0	0	8194	533664	0	0
2024-09-15 13:16:47			0	38518	0	0	0	25218	23800	155916	27088	1064523	46724	109324	0	0	8193	533856	0	0
2024-09-15 13:17:47			0	38524	0	0	0	25205	23800	155848	27434	1064550	46724	109319	0	0	8194	533626	0	0
2024-09-15 13:18:47			0	38530	0	0	0	25212	23800	155856	27261	1064559	46736	109322	0	0	8194	533396	0	0
2024-09-15 13:19:47			0	38525	0	0	0	25210	23800	155812	27530	1064506	46736	109321	0	0	8194	533588	0	0
2024-09-15 13:20:47			0	38528	0	0	0	25218	23800	155928	27514	1064550	46746	109324	0	0	8194	533473	0	0
2024-09-15 13:21:47			0	38526	0	0	0	25207	23790	155832	27665	1064541	46734	109320	0	0	8194	533579	0	0
2024-09-15 13:22:47			0	38537	0	0	0	25215	23800	155768	27599	1064577	46735	109323	0	0	8194	533128	0	0
2024-09-15 13:23:47			0	38544	0	0	0	25210	23800	155808	27507	1064506	46736	109321	0	0	8195	532860	0	0
2024-09-15 13:24:47			0	38555	0	0	0	25194	23800	155808	27554	1064613	46736	109315	0	0	8196	532438	0	0
2024-09-15 13:25:47			0	38554	0	0	0	25210	23790	155716	27569	1064541	46734	109321	0	0	8195	532507	0	0
2024-09-15 13:26:47			0	38559	0	0	0	25207	23800	155836	27379	1064559	46725	109320	0	0	8196	532286	0	0
2024-09-15 13:27:47			0	38561	0	0	0	25218	23790	155684	27833	1064541	46745	109324	0	0	8196	532239	0	0
2024-09-15 13:28:47			0	38570	0	0	0	25210	23800	155708	27421	1064577	46735	109321	0	0	8196	531865	0	0
2024-09-15 13:29:47			0	38580	0	0	0	25212	23800	155676	27369	1064559	46736	109322	0	0	8197	531482	0	0
2024-09-15 13:30:47			0	38592	0	0	0	25218	23800	155664	27362	1064532	46747	109324	0	0	8198	531023	0	0
2024-09-15 13:31:47			0	38642	0	0	0	25223	23790	155520	27369	1064541	46723	109326	0	0	8200	529145	0	0
2024-09-15 13:32:47			0	38671	0	0	0	25212	23790	155268	27587	1064568	46745	109322	0	0	8202	528039	0	0
2024-09-15 13:33:47			0	38679	0	0	0	25215	23790	155332	27384	1064568	46734	109323	0	0	8203	527735	0	0
2024-09-15 13:34:47			0	38695	0	0	0	25223	23800	155192	27280	1064559	46736	109326	0	0	8203	527096	0	0
2024-09-15 13:35:47			0	38729	0	0	0	25220	23800	155161	27642	1064577	46735	109325	0	0	8205	525803	0	0
2024-09-15 13:36:47			0	38717	0	0	0	25218	23800	155156	27137	1064586	46747	109324	0	0	8205	526259	0	0
2024-09-15 13:37:47			0	38731	0	0	0	25212	23800	155201	27332	1064550	46735	109322	0	0	8206	525728	0	0
2024-09-15 13:38:47			0	38747	0	0	0	25218	23800	155061	27606	1064559	46713	109324	0	0	8207	525120	0	0
2024-09-15 13:39:47			0	38771	0	0	0	25218	23810	155017	27230	1064568	46725	109324	0	0	8208	524180	0	0
2024-09-15 13:40:47			0	38730	0	0	0	25215	23810	155013	27500	1064568	46736	109323	0	0	8206	525736	0	0
2024-09-15 13:41:47			0	38691	0	0	0	25210	23810	155152	27673	1064541	46736	109321	0	0	8203	527218	0	0
2024-09-15 13:42:47			0	38682	0	0	0	25210	23800	155328	27237	1064559	46736	109321	0	0	8203	527591	0	0
2024-09-15 13:43:47			0	38665	0	0	0	25205	23800	155404	27196	1064532	46736	109319	0	0	8202	528238	0	0
2024-09-15 13:44:47			0	38692	0	0	0	25207	23800	155292	27479	1064586	46736	109320	0	0	8204	527210	0	0
2024-09-15 13:45:47			0	38702	0	0	0	25215	23810	155100	27329	1064568	46725	109323	0	0	8204	526800	0	0
2024-09-15 13:46:47			0	38705	0	0	0	25215	23800	155180	27507	1064586	46736	109323	0	0	8204	526716	0	0
2024-09-15 13:47:47			0	38695	0	0	0	25228	23810	155148	27556	1064595	46736	109328	0	0	8203	527066	0	0
2024-09-15 13:48:47			0	38706	0	0	0	25215	23810	155112	27275	1064568	46736	109323	0	0	8204	526648	0	0
2024-09-15 13:49:47			0	38680	0	0	0	25199	23800	155156	27275	1064523	46724	109317	0	0	8203	527667	0	0
2024-09-15 13:50:47			0	38668	0	0	0	25202	23810	155368	27235	1064524	46725	109318	0	0	8202	528094	0	0
2024-09-15 13:51:47			0	38659	0	0	0	25207	23810	155284	27203	1064515	46725	109320	0	0	8202	528437	0	0
2024-09-15 13:52:47			0	38647	0	0	0	25197	23800	155408	27786	1064523	46735	109316	0	0	8201	528924	0	0
2024-09-15 13:53:47			0	38627	0	0	0	25192	23800	155516	27066	1064523	46724	109314	0	0	8200	529687	0	0
2024-09-15 13:54:47			0	38617	0	0	0	25199	23790	155596	27407	1064505	46733	109317	0	0	8199	530098	0	0
2024-09-15 13:55:47			0	38615	0	0	0	25212	23800	155508	27324	1064559	46736	109322	0	0	8199	530145	0	0
2024-09-15 13:56:47			0	38636	0	0	0	25207	23790	155504	26961	1064488	46723	109320	0	0	8200	529373	0	0
2024-09-15 13:57:47			0	38615	0	0	0	25210	23790	155452	27339	1064541	46734	109321	0	0	8199	530175	0	0
2024-09-15 13:58:47			0	38652	0	0	0	25220	23790	155620	27303	1064559	46733	109325	0	0	8201	528763	0	0
2024-09-15 13:59:47			0	38677	0	0	0	25220	23800	155292	27421	1064550	46735	109325	0	0	8202	527781	0	0
2024-09-15 14:00:47			0	38738	0	0	0	25212	23800	155201	27246	1064586	46747	109322	0	0	8206	525462	0	0
2024-09-15 14:01:47			0	38737	0	0	0	25218	23800	155101	27436	1064613	46736	109324	0	0	8206	525500	0	0
2024-09-15 14:02:47			0	38814	0	0	0	25236	23810	154813	26892	1064568	46747	109331	0	0	8210	522551	0	0
2024-09-15 14:03:47			0	38847	0	0	0	25236	23800	154685	27618	1064559	46736	109331	0	0	8212	521332	0	0
2024-09-15 14:04:47			0	38894	0	0	0	25238	23800	154525	27703	1064639	46736	109332	0	0	8215	519558	0	0
2024-09-15 14:05:47			0	38887	0	0	0	25236	23810	154505	27589	1064729	46736	109331	0	0	8214	519793	0	0
2024-09-15 14:06:47			0	38885	0	0	0	25238	23810	154537	27564	1064711	46736	109332	0	0	8214	519868	0	0
2024-09-15 14:07:47			0	38921	0	0	0	25241	23800	154337	27623	1064666	46747	109333	0	0	8216	518540	0	0
2024-09-15 14:08:47			0	38915	0	0	0	25251	23820	154333	27528	1064667	46748	109337	0	0	8216	518708	0	0
2024-09-15 14:09:47			0	38938	0	0	0	25249	23820	154317	27433	1064747	46748	109336	0	0	8217	517842	0	0
2024-09-15 14:10:47			0	38953	0	0	0	25251	23820	154253	27743	1064747	46748	109337	0	0	8218	517277	0	0
2024-09-15 14:11:47			0	38964	0	0	0	25254	23820	154169	27015	1064783	46749	109338	0	0	8219	516863	0	0
2024-09-15 14:12:47			0	38945	0	0	0	25249	23830	154253	27403	1064747	46738	109336	0	0	8218	517549	0	0
2024-09-15 14:13:47			0	38944	0	0	0	25259	23830	154201	27376	1064738	46738	109340	0	0	8217	517587	0	0
2024-09-15 14:14:47			0	38955	0	0	0	25257	23830	154165	27474	1064801	46738	109339	0	0	8218	517173	0	0
2024-09-15 14:15:47			0	38923	0	0	0	25257	23830	154333	27544	1064774	46749	109339	0	0	8216	518377	0	0
2024-09-15 14:16:47			0	38888	0	0	0	25251	23830	154381	27258	1064827	46749	109337	0	0	8214	519696	0	0
2024-09-15 14:17:47			0	38874	0	0	0	25254	23840	154449	27367	1064756	46750	109338	0	0	8213	520195	0	0
2024-09-15 14:18:47			0	38855	0	0	0	25259	23820	154609	27303	1064809	46738	109340	0	0	8212	520971	0	0
2024-09-15 14:19:47			0	38831	0	0	0	25249	23820	154545	27627	1064702	46738	109336	0	0	8211	521878	0	0
2024-09-15 14:20:47			0	38826	0	0	0	25259	23830	154605	27209	1064774	46738	109340	0	0	8211	522038	0	0
2024-09-15 14:21:47			0	38841	0	0	0	25257	23830	154665	27422	1064774	46738	109339	0	0	8211	521471	0	0
2024-09-15 14:22:47			0	38833	0	0	0	25254	23830	154689	27412	1064801	46727	109338	0	0	8211	521773	0	0
2024-09-15 14:23:47			0	38824	0	0	0	25264	23840	154713	27026	1064845	46729	109342	0	0	8210	522084	0	0
2024-09-15 14:24:47			0	38812	0	0	0	25251	23840	154737	27218	1064792	46740	109337	0	0	8210	522538	0	0
2024-09-15 14:25:47			0	38826	0	0	0	25251	23840	154665	27255	1064756	46739	109337	0	0	8211	522009	0	0
2024-09-15 14:26:47			0	38804	0	0	0	25257	23840	154777	27419	1064845	46740	109339	0	0	8209	522841	0	0
2024-09-15 14:27:47			0	38823	0	0	0	25254	23830	154629	27211	1064801	46749	109338	0	0	8210	522152	0	0
2024-09-15 14:28:47			0	38811	0	0	0	25244	23840	154725	27274	1064783	46739	109334	0	0	8210	522576	0	0
2024-09-15 14:29:47			0	38804	0	0	0	25259	23840	154705	27348	1064810	46716	109340	0	0	8209	522841	0	0
2024-09-15 14:30:47			0	38798	0	0	0	25259	23850	154781	27599	1064828	46740	109340	0	0	8209	523039	0	0
2024-09-15 14:31:47			0	38780	0	0	0	25262	23840	154833	27308	1064756	46728	109341	0	0	8208	523750	0	0
2024-09-15 14:32:47			0	38766	0	0	0	25262	23850	154901	27412	1064801	46729	109341	0	0	8207	524251	0	0
2024-09-15 14:33:47			0	38797	0	0	0	25264	23830	154813	27327	1064720	46727	109342	0	0	8209	523136	0	0
2024-09-15 14:34:47			0	38807	0	0	0	25257	23830	154785	27441	1064854	46749	109339	0	0	8209	522757	0	0
2024-09-15 14:35:47			0	38826	0	0	0	25257	23830	154833	27227	1064827	46738	109339	0	0	8211	522038	0	0
2024-09-15 14:36:47			0	38816	0	0	0	25264	23840	154717	27213	1064756	46750	109342	0	0	8210	522387	0	0
2024-09-15 14:37:47			0	38808	0	0	0	25257	23850	154733	27421	1064881	46729	109339	0	0	8210	522660	0	0
2024-09-15 14:38:47			0	38810	0	0	0	25262	23850	154845	27601	1064890	46729	109341	0	0	8210	522585	0	0
2024-09-15 14:39:47			0	38788	0	0	0	25257	23840	154805	27595	1064836	46750	109339	0	0	8208	523447	0	0
2024-09-15 14:40:47			0	38797	0	0	0	25262	23840	154861	27776	1064845	46729	109341	0	0	8209	523106	0	0
2024-09-15 14:41:47			0	38794	0	0	0	25259	23840	154757	27467	1064819	46740	109340	0	0	8209	523220	0	0
2024-09-15 14:42:47			0	38789	0	0	0	25249	23840	154781	27540	1064738	46740	109336	0	0	8209	523409	0	0
2024-09-15 14:43:47			0	38784	0	0	0	25241	23840	154761	27400	1064845	46750	109333	0	0	8208	523599	0	0
2024-09-15 14:44:47			0	38771	0	0	0	25249	23850	154781	27490	1064774	46729	109336	0	0	8208	524062	0	0
2024-09-15 14:45:47			0	38786	0	0	0	25259	23840	154861	27222	1064738	46740	109340	0	0	8208	523523	0	0
2024-09-15 14:46:47			0	38780	0	0	0	25251	23840	154841	27305	1064738	46729	109337	0	0	8208	523750	0	0
2024-09-15 14:47:47			0	38777	0	0	0	25251	23850	154741	27543	1064747	46729	109337	0	0	8208	523834	0	0
2024-09-15 14:48:47			0	38814	0	0	0	25249	23840	154909	27351	1064810	46728	109336	0	0	8210	522463	0	0
2024-09-15 14:49:47			0	38787	0	0	0	25249	23840	154765	27383	1064810	46750	109336	0	0	8208	523485	0	0
2024-09-15 14:50:47			0	38783	0	0	0	25246	23840	154721	27112	1064792	46729	109335	0	0	8208	523636	0	0
2024-09-15 14:51:47			0	38785	0	0	0	25249	23840	154781	27284	1064819	46729	109336	0	0	8208	523561	0	0
2024-09-15 14:52:47			0	38802	0	0	0	25244	23840	154777	27419	1064792	46729	109334	0	0	8209	522917	0	0
2024-09-15 14:53:47			0	38784	0	0	0	25246	23840	154729	27422	1064810	46739	109335	0	0	8208	523599	0	0
2024-09-15 14:54:47			0	38793	0	0	0	25241	23840	154777	27575	1064738	46729	109333	0	0	8209	523258	0	0
2024-09-15 14:55:47			0	38768	0	0	0	25254	23840	154813	27464	1064783	46739	109338	0	0	8207	524205	0	0
2024-09-15 14:56:47			0	38797	0	0	0	25254	23840	154905	27365	1064810	46739	109338	0	0	8209	523106	0	0
2024-09-15 14:57:47			0	38785	0	0	0	25254	23830	154853	27609	1064801	46738	109338	0	0	8208	523590	0	0
2024-09-15 14:58:47			0	38793	0	0	0	25244	23830	154761	27208	1064801	46738	109334	0	0	8209	523287	0	0
2024-09-15 14:59:47			0	38764	0	0	0	25238	23840	154841	27741	1064738	46740	109332	0	0	8207	524357	0	0
2024-09-15 15:00:47			0	38768	0	0	0	25257	23850	154897	27286	1064747	46729	109339	0	0	8207	524175	0	0
2024-09-15 15:01:47			0	38778	0	0	0	25251	23840	154917	27357	1064836	46728	109337	0	0	8208	523826	0	0
2024-09-15 15:02:47			0	38776	0	0	0	25257	23840	154833	27419	1064756	46728	109339	0	0	8208	523902	0	0
2024-09-15 15:03:47			0	38798	0	0	0	25251	23840	154757	27374	1064783	46739	109337	0	0	8209	523068	0	0
2024-09-15 15:04:47			0	38781	0	0	0	25254	23840	154765	27460	1064845	46729	109338	0	0	8208	523712	0	0
2024-09-15 15:05:47			0	38801	0	0	0	25249	23840	154805	27454	1064712	46740	109336	0	0	8209	522955	0	0
2024-09-15 15:06:47			0	38784	0	0	0	25244	23840	154809	27008	1064810	46728	109334	0	0	8208	523599	0	0
2024-09-15 15:07:47			0	38793	0	0	0	25246	23830	154785	27426	1064801	46727	109335	0	0	8209	523287	0	0
2024-09-15 15:08:47			0	38799	0	0	0	25246	23840	154785	27569	1064756	46739	109335	0	0	8209	523030	0	0
2024-09-15 15:09:47			0	38782	0	0	0	25246	23840	154685	27275	1064765	46750	109335	0	0	8208	523674	0	0
2024-09-15 15:10:47			0	38786	0	0	0	25254	23840	154761	27332	1064729	46728	109338	0	0	8208	523523	0	0
2024-09-15 15:11:47			0	38775	0	0	0	25254	23830	154833	27312	1064747	46738	109338	0	0	8208	523969	0	0
2024-09-15 15:12:47			0	38809	0	0	0	25244	23840	154741	27190	1064712	46750	109334	0	0	8210	522652	0	0
2024-09-15 15:13:47			0	38782	0	0	0	25257	23830	154777	27440	1064720	46715	109339	0	0	8208	523704	0	0
2024-09-15 15:14:47			0	38783	0	0	0	25259	23840	154745	27537	1064765	46740	109340	0	0	8208	523636	0	0
2024-09-15 15:15:47			0	38809	0	0	0	25257	23850	154761	27611	1064747	46762	109339	0	0	8210	522623	0	0
2024-09-15 15:16:47			0	38818	0	0	0	25262	23840	154821	27492	1064863	46750	109341	0	0	8210	522311	0	0
2024-09-15 15:17:47			0	38797	0	0	0	25259	23850	154733	27246	1064890	46729	109340	0	0	8209	523077	0	0
2024-09-15 15:18:47			0	38794	0	0	0	25264	23840	154677	27293	1064836	46739	109342	0	0	8209	523220	0	0
2024-09-15 15:19:47			0	38797	0	0	0	25262	23840	154729	27486	1064792	46729	109341	0	0	8209	523106	0	0
2024-09-15 15:20:47			0	38811	0	0	0	25270	23850	154669	27332	1064801	46740	109344	0	0	8210	522547	0	0
2024-09-15 15:21:47			0	38821	0	0	0	25262	23850	154673	27109	1064854	46740	109341	0	0	8210	522168	0	0
2024-09-15 15:22:47			0	38817	0	0	0	25267	23850	154721	27331	1064810	46750	109343	0	0	8210	522320	0	0
2024-09-15 15:23:47			0	38820	0	0	0	25275	23850	154793	27336	1064828	46740	109346	0	0	8210	522206	0	0
2024-09-15 15:24:47			0	38823	0	0	0	25275	23850	154721	27620	1064854	46740	109346	0	0	8210	522093	0	0
2024-09-15 15:25:47			0	38825	0	0	0	25267	23840	154733	27424	1064792	46740	109343	0	0	8210	522046	0	0
2024-09-15 15:26:47			0	38821	0	0	0	25267	23850	154677	27620	1064854	46740	109343	0	0	8210	522168	0	0
2024-09-15 15:27:47			0	38833	0	0	0	25262	23850	154709	27550	1064863	46740	109341	0	0	8211	521715	0	0
2024-09-15 15:28:47			0	38830	0	0	0	25267	23850	154765	27519	1064890	46729	109343	0	0	8211	521828	0	0
2024-09-15 15:29:47			0	38831	0	0	0	25264	23850	154853	27400	1064828	46740	109342	0	0	8211	521790	0	0
2024-09-15 15:30:47			0	38819	0	0	0	25270	23850	154897	27417	1064863	46740	109344	0	0	8210	522244	0	0
2024-09-15 15:31:47			0	38836	0	0	0	25270	23850	154713	27268	1064863	46729	109344	0	0	8211	521601	0	0
2024-09-15 15:32:47			0	38821	0	0	0	25270	23850	154769	27345	1064881	46729	109344	0	0	8210	522168	0	0
2024-09-15 15:33:47			0	38811	0	0	0	25270	23840	154697	27150	1064872	46729	109344	0	0	8210	522576	0	0
2024-09-15 15:34:47			0	38830	0	0	0	25277	23840	154633	27377	1064872	46750	109347	0	0	8211	521857	0	0
2024-09-15 15:35:47			0	38863	0	0	0	25277	23860	154545	27241	1064899	46741	109347	0	0	8212	520552	0	0
2024-09-15 15:36:47			0	38889	0	0	0	25280	23860	154557	27183	1064872	46751	109348	0	0	8214	519571	0	0
2024-09-15 15:37:47			0	38896	0	0	0	25283	23860	154453	27402	1064926	46741	109349	0	0	8214	519307	0	0
2024-09-15 15:38:47			0	38879	0	0	0	25264	23850	154493	27331	1064944	46740	109342	0	0	8214	519977	0	0
2024-09-15 15:39:47			0	38869	0	0	0	25270	23850	154525	27081	1064863	46740	109344	0	0	8213	520355	0	0
2024-09-15 15:40:47			0	38865	0	0	0	25275	23860	154449	26984	1064899	46730	109346	0	0	8213	520476	0	0
2024-09-15 15:41:47			0	38867	0	0	0	25267	23850	154533	27246	1064890	46740	109343	0	0	8213	520430	0	0
2024-09-15 15:42:47			0	38857	0	0	0	25267	23850	154613	27041	1064890	46729	109343	0	0	8212	520808	0	0
2024-09-15 15:43:47			0	38842	0	0	0	25270	23870	154561	27357	1064944	46720	109344	0	0	8211	521316	0	0
2024-09-15 15:44:47			0	38880	0	0	0	25259	23850	154501	27334	1064863	46729	109340	0	0	8214	519940	0	0
2024-09-15 15:45:47			0	38874	0	0	0	25272	23860	154429	27483	1064872	46730	109345	0	0	8213	520137	0	0
2024-09-15 15:46:47			0	38894	0	0	0	25270	23850	154465	27241	1064783	46729	109344	0	0	8214	519412	0	0
2024-09-15 15:47:47			0	38890	0	0	0	25259	23850	154497	27438	1064917	46729	109340	0	0	8214	519562	0	0
2024-09-15 15:48:47			0	38898	0	0	0	25264	23850	154413	27280	1064837	46729	109342	0	0	8215	519261	0	0
2024-09-15 15:49:47			0	38886	0	0	0	25264	23860	154413	26942	1064926	46741	109342	0	0	8214	519684	0	0
2024-09-15 15:50:47			0	38905	0	0	0	25259	23860	154405	27246	1064846	46741	109340	0	0	8215	518968	0	0
2024-09-15 15:51:47			0	38900	0	0	0	25254	23850	154325	27102	1064908	46750	109338	0	0	8215	519185	0	0
2024-09-15 15:52:47			0	38904	0	0	0	25267	23850	154361	27336	1064801	46750	109343	0	0	8215	519035	0	0
2024-09-15 15:53:47			0	38904	0	0	0	25270	23850	154429	27256	1064783	46729	109344	0	0	8215	519035	0	0
2024-09-15 15:54:47			0	38902	0	0	0	25262	23840	154361	27234	1064845	46740	109341	0	0	8215	519139	0	0
2024-09-15 15:55:47			0	38903	0	0	0	25259	23850	154413	27254	1064801	46740	109340	0	0	8215	519072	0	0
2024-09-15 15:56:47			0	38908	0	0	0	25254	23850	154329	27440	1064908	46740	109338	0	0	8215	518884	0	0
2024-09-15 15:57:47			0	38904	0	0	0	25251	23850	154377	27124	1064863	46740	109337	0	0	8215	519035	0	0
2024-09-15 15:58:47			0	38906	0	0	0	25251	23850	154361	27137	1064774	46729	109337	0	0	8215	518959	0	0
2024-09-15 15:59:47			0	38902	0	0	0	25254	23840	154317	27514	1064819	46729	109338	0	0	8215	519139	0	0
2024-09-15 16:00:47			0	38948	0	0	0	25246	23840	154281	27416	1064819	46740	109335	0	0	8218	517407	0	0
2024-09-15 16:01:47			0	38954	0	0	0	25246	23840	154269	27066	1064845	46717	109335	0	0	8218	517181	0	0
2024-09-15 16:02:47			0	38961	0	0	0	25244	23850	154173	27443	1064854	46740	109334	0	0	8219	516889	0	0
2024-09-15 16:03:47			0	38974	0	0	0	25246	23850	154153	27395	1064854	46740	109335	0	0	8219	516400	0	0
2024-09-15 16:04:47			0	39006	0	0	0	25238	23840	154029	27287	1064845	46740	109332	0	0	8221	515228	0	0
2024-09-15 16:05:47			0	38985	0	0	0	25241	23850	153949	26961	1064828	46729	109333	0	0	8220	515987	0	0
2024-09-15 16:06:47			0	38999	0	0	0	25244	23840	154137	27112	1064729	46728	109334	0	0	8221	515490	0	0
2024-09-15 16:07:47			0	38990	0	0	0	25241	23840	154061	27346	1064738	46729	109333	0	0	8220	515828	0	0
2024-09-15 16:08:47			0	39004	0	0	0	25246	23830	153957	27218	1064774	46738	109335	0	0	8221	515332	0	0
2024-09-15 16:09:47			0	39012	0	0	0	25244	23840	153977	27159	1064756	46728	109334	0	0	8222	515002	0	0
2024-09-15 16:10:47			0	39014	0	0	0	25246	23840	153985	27256	1064703	46739	109335	0	0	8222	514927	0	0
2024-09-15 16:11:47			0	39012	0	0	0	25241	23830	153925	27039	1064774	46738	109333	0	0	8222	515031	0	0
2024-09-15 16:12:47			0	39005	0	0	0	25244	23830	154049	27041	1064747	46738	109334	0	0	8221	515294	0	0
2024-09-15 16:13:47			0	39009	0	0	0	25236	23840	154129	27081	1064738	46740	109331	0	0	8221	515115	0	0
2024-09-15 16:14:47			0	39005	0	0	0	25241	23820	154065	26993	1064809	46749	109333	0	0	8221	515323	0	0
2024-09-15 16:15:47			0	39014	0	0	0	25244	23840	153953	26908	1064783	46728	109334	0	0	8222	514927	0	0
2024-09-15 16:16:47			0	39003	0	0	0	25233	23830	153969	27367	1064738	46727	109330	0	0	8221	515369	0	0
2024-09-15 16:17:47			0	39026	0	0	0	25231	23830	153913	27319	1064711	46738	109329	0	0	8223	514506	0	0
2024-09-15 16:18:47			0	39011	0	0	0	25238	23830	154017	27124	1064694	46727	109332	0	0	8222	515069	0	0
2024-09-15 16:19:47			0	39043	0	0	0	25241	23830	154061	27248	1064711	46738	109333	0	0	8223	513869	0	0
2024-09-15 16:20:47			0	39024	0	0	0	25238	23830	153969	27182	1064720	46738	109332	0	0	8222	514581	0	0
2024-09-15 16:21:47			0	39020	0	0	0	25233	23830	153873	27244	1064711	46727	109330	0	0	8222	514731	0	0
2024-09-15 16:22:47			0	39023	0	0	0	25223	23830	153965	26953	1064685	46727	109326	0	0	8222	514619	0	0
2024-09-15 16:23:47			0	39028	0	0	0	25225	23820	153853	26923	1064720	46726	109327	0	0	8223	514460	0	0
2024-09-15 16:24:47			0	39028	0	0	0	25228	23820	153977	27237	1064774	46737	109328	0	0	8223	514460	0	0
2024-09-15 16:25:47			0	39033	0	0	0	25220	23820	153953	26979	1064702	46727	109325	0	0	8223	514273	0	0
2024-09-15 16:26:47			0	39036	0	0	0	25220	23810	153965	27246	1064657	46725	109325	0	0	8223	514189	0	0
2024-09-15 16:27:47			0	39029	0	0	0	25236	23820	153957	27555	1064693	46726	109331	0	0	8223	514423	0	0
2024-09-15 16:28:47			0	39031	0	0	0	25228	23820	153937	27364	1064667	46737	109328	0	0	8223	514348	0	0
2024-09-15 16:29:47			0	39000	0	0	0	25223	23810	154041	27064	1064648	46725	109326	0	0	8221	515540	0	0
2024-09-15 16:30:47			0	39014	0	0	0	25218	23820	154093	27142	1064676	46727	109324	0	0	8222	514985	0	0
2024-09-15 16:31:47			0	39028	0	0	0	25218	23810	153965	27390	1064631	46736	109324	0	0	8223	514489	0	0
2024-09-15 16:32:47			0	39030	0	0	0	25220	23810	153861	27147	1064622	46725	109325	0	0	8223	514414	0	0
2024-09-15 16:33:47			0	39038	0	0	0	25215	23810	153957	27350	1064657	46736	109323	0	0	8223	514115	0	0
2024-09-15 16:34:47			0	39012	0	0	0	25218	23810	154093	27298	1064631	46725	109324	0	0	8222	515089	0	0
2024-09-15 16:35:47			0	39037	0	0	0	25220	23800	154029	27095	1064693	46725	109325	0	0	8223	514181	0	0
2024-09-15 16:36:47			0	39010	0	0	0	25223	23810	154017	27308	1064622	46736	109326	0	0	8222	515165	0	0
2024-09-15 16:37:47			0	39024	0	0	0	25223	23810	154025	27059	1064675	46736	109326	0	0	8222	514639	0	0
2024-09-15 16:38:47			0	39003	0	0	0	25228	23810	154033	27409	1064657	46758	109328	0	0	8221	515427	0	0
2024-09-15 16:39:47			0	39021	0	0	0	25225	23810	154001	27286	1064675	46725	109327	0	0	8222	514752	0	0
2024-09-15 16:40:47			0	39023	0	0	0	25215	23820	153997	27175	1064667	46737	109323	0	0	8223	514648	0	0
2024-09-15 16:41:47			0	39012	0	0	0	25225	23810	153949	27102	1064657	46736	109327	0	0	8222	515089	0	0
2024-09-15 16:42:47			0	39023	0	0	0	25212	23810	153981	27168	1064684	46713	109322	0	0	8223	514677	0	0
2024-09-15 16:43:47			0	38992	0	0	0	25220	23800	154109	27133	1064693	46725	109325	0	0	8221	515869	0	0
2024-09-15 16:44:47			0	38998	0	0	0	25233	23810	154029	27111	1064657	46736	109330	0	0	8221	515615	0	0
2024-09-15 16:45:47			0	39006	0	0	0	25231	23810	154041	27313	1064631	46725	109329	0	0	8221	515315	0	0
2024-09-15 16:46:47			0	38999	0	0	0	25225	23810	154165	27157	1064657	46747	109327	0	0	8221	515578	0	0
2024-09-15 16:47:47			0	39015	0	0	0	25218	23810	154077	27334	1064657	46713	109324	0	0	8222	514977	0	0
2024-09-15 16:48:47			0	39015	0	0	0	25220	23820	153993	27173	1064667	46726	109325	0	0	8222	514948	0	0
2024-09-15 16:49:47			0	39006	0	0	0	25225	23800	154105	27350	1064639	46736	109327	0	0	8221	515344	0	0
2024-09-15 16:50:47			0	39004	0	0	0	25220	23810	154021	27163	1064648	46736	109325	0	0	8221	515390	0	0
2024-09-15 16:51:47			0	39012	0	0	0	25215	23810	154073	27150	1064675	46725	109323	0	0	8222	515089	0	0
2024-09-15 16:52:47			0	39011	0	0	0	25212	23810	154097	26960	1064631	46725	109322	0	0	8222	515127	0	0
2024-09-15 16:53:47			0	39011	0	0	0	25199	23810	154009	26982	1064631	46736	109317	0	0	8222	515127	0	0
2024-09-15 16:54:47			0	39018	0	0	0	25207	23810	154049	27402	1064631	46736	109320	0	0	8222	514864	0	0
2024-09-15 16:55:47			0	39011	0	0	0	25205	23800	153949	27232	1064559	46736	109319	0	0	8222	515156	0	0
2024-09-15 16:56:47			0	39027	0	0	0	25189	23810	153929	27310	1064622	46725	109313	0	0	8223	514527	0	0
2024-09-15 16:57:47			0	39026	0	0	0	25194	23800	153905	26866	1064613	46725	109315	0	0	8223	514593	0	0
2024-09-15 16:58:47			0	39017	0	0	0	25210	23800	153921	26918	1064604	46712	109321	0	0	8222	514931	0	0
2024-09-15 16:59:47			0	39004	0	0	0	25215	23800	154065	27196	1064604	46735	109323	0	0	8221	515419	0	0
2024-09-15 17:00:47			0	38983	0	0	0	25215	23800	154037	26986	1064577	46724	109323	0	0	8220	516207	0	0
2024-09-15 17:01:47			0	38997	0	0	0	25212	23800	154093	26935	1064657	46724	109322	0	0	8221	515682	0	0
2024-09-15 17:02:47			0	38982	0	0	0	25215	23800	154209	26915	1064604	46735	109323	0	0	8220	516245	0	0
2024-09-15 17:03:47			0	38960	0	0	0	25218	23790	154181	27317	1064621	46734	109324	0	0	8219	517101	0	0
2024-09-15 17:04:47			0	38968	0	0	0	25212	23800	154173	27159	1064577	46735	109322	0	0	8219	516771	0	0
2024-09-15 17:05:47			0	38947	0	0	0	25207	23790	154217	27275	1064621	46745	109320	0	0	8218	517590	0	0
2024-09-15 17:06:47			0	38926	0	0	0	25210	23800	154197	26972	1064604	46724	109321	0	0	8217	518352	0	0
2024-09-15 17:07:47			0	38951	0	0	0	25210	23800	154313	27208	1064577	46735	109321	0	0	8218	517411	0	0
2024-09-15 17:08:47			0	38913	0	0	0	25207	23800	154265	27072	1064586	46736	109320	0	0	8216	518842	0	0
2024-09-15 17:09:47			0	38944	0	0	0	25205	23790	154201	27100	1064568	46734	109319	0	0	8218	517703	0	0
2024-09-15 17:10:47			0	38951	0	0	0	25207	23790	154193	27215	1064595	46723	109320	0	0	8218	517440	0	0
2024-09-15 17:11:47			0	38957	0	0	0	25197	23800	154253	27152	1064577	46712	109316	0	0	8219	517185	0	0
2024-09-15 17:12:47			0	38952	0	0	0	25186	23790	154213	27170	1064559	46733	109312	0	0	8219	517402	0	0
2024-09-15 17:13:47			0	38954	0	0	0	25192	23800	154237	27203	1064550	46724	109314	0	0	8219	517298	0	0
2024-09-15 17:14:47			0	38952	0	0	0	25194	23790	154181	27452	1064559	46733	109315	0	0	8219	517402	0	0
2024-09-15 17:15:47			0	38930	0	0	0	25199	23800	154333	27053	1064523	46724	109317	0	0	8217	518201	0	0
2024-09-15 17:16:47			0	38928	0	0	0	25210	23790	154321	26986	1064541	46734	109321	0	0	8217	518306	0	0
2024-09-15 17:17:47			0	38889	0	0	0	25223	23780	154473	27203	1064550	46733	109326	0	0	8215	519805	0	0
2024-09-15 17:18:47			0	38876	0	0	0	25215	23790	154577	27203	1064532	46744	109323	0	0	8214	520266	0	0
2024-09-15 17:19:47			0	38857	0	0	0	25220	23790	154569	27166	1064568	46734	109325	0	0	8213	520984	0	0
2024-09-15 17:20:47			0	38853	0	0	0	25199	23800	154565	27090	1064577	46724	109317	0	0	8213	521106	0	0
2024-09-15 17:21:47			0	38851	0	0	0	25189	23800	154597	27138	1064550	46724	109313	0	0	8213	521181	0	0
2024-09-15 17:22:47			0	38842	0	0	0	25202	23780	154609	27152	1064577	46722	109318	0	0	8212	521580	0	0
2024-09-15 17:23:47			0	38850	0	0	0	25192	23790	154517	26902	1064541	46734	109314	0	0	8213	521248	0	0
2024-09-15 17:24:47			0	38850	0	0	0	25199	23790	154517	27235	1064532	46744	109317	0	0	8213	521248	0	0
2024-09-15 17:25:47			0	38853	0	0	0	25199	23780	154581	27390	1064523	46722	109317	0	0	8213	521164	0	0
2024-09-15 17:26:47			0	38865	0	0	0	25184	23790	154533	27112	1064586	46722	109311	0	0	8214	520682	0	0
2024-09-15 17:27:47			0	38861	0	0	0	25192	23790	154481	27192	1064532	46733	109314	0	0	8214	520833	0	0
2024-09-15 17:28:47			0	38879	0	0	0	25210	23790	154465	27287	1064532	46733	109321	0	0	8214	520153	0	0
2024-09-15 17:29:47			0	38847	0	0	0	25202	23790	154625	27274	1064559	46744	109318	0	0	8213	521362	0	0
2024-09-15 17:30:47			0	38850	0	0	0	25197	23790	154541	27300	1064586	46744	109316	0	0	8213	521248	0	0
2024-09-15 17:31:47			0	38837	0	0	0	25184	23790	154589	26965	1064541	46745	109311	0	0	8212	521740	0	0
2024-09-15 17:32:47			0	38865	0	0	0	25176	23790	154589	26982	1064532	46722	109308	0	0	8214	520682	0	0
2024-09-15 17:33:47			0	38882	0	0	0	25173	23790	154401	27251	1064479	46722	109307	0	0	8215	520040	0	0
2024-09-15 17:34:47			0	38909	0	0	0	25181	23780	154413	27445	1064461	46722	109310	0	0	8216	519051	0	0
2024-09-15 17:35:47			0	38897	0	0	0	25171	23780	154501	27495	1064416	46733	109306	0	0	8216	519503	0	0
2024-09-15 17:36:47			0	38896	0	0	0	25181	23790	154429	27189	1064505	46722	109310	0	0	8216	519512	0	0
2024-09-15 17:37:47			0	38888	0	0	0	25184	23770	154369	27234	1064452	46743	109311	0	0	8215	519872	0	0
2024-09-15 17:38:47			0	38921	0	0	0	25186	23780	154393	27185	1064470	46733	109312	0	0	8217	518598	0	0
2024-09-15 17:39:47			0	38882	0	0	0	25186	23780	154429	27633	1064514	46722	109312	0	0	8215	520069	0	0
2024-09-15 17:40:47			0	38893	0	0	0	25176	23780	154417	27142	1064461	46733	109308	0	0	8216	519654	0	0
2024-09-15 17:41:47			0	38888	0	0	0	25186	23770	154505	27286	1064478	46732	109312	0	0	8215	519872	0	0
2024-09-15 17:42:47			0	38894	0	0	0	25186	23770	154477	27123	1064496	46720	109312	0	0	8215	519646	0	0
2024-09-15 17:43:47			0	38886	0	0	0	25179	23780	154521	27220	1064487	46744	109309	0	0	8215	519918	0	0
2024-09-15 17:44:47			0	38888	0	0	0	25173	23780	154489	27071	1064487	46722	109307	0	0	8215	519843	0	0
2024-09-15 17:45:47			0	38895	0	0	0	25171	23770	154441	27126	1064425	46721	109306	0	0	8216	519608	0	0
2024-09-15 17:46:47			0	38883	0	0	0	25168	23770	154481	27362	1064443	46708	109305	0	0	8215	520061	0	0
2024-09-15 17:47:47			0	38877	0	0	0	25168	23770	154529	27083	1064443	46720	109305	0	0	8215	520287	0	0
2024-09-15 17:48:47			0	38879	0	0	0	25186	23760	154465	27371	1064371	46720	109312	0	0	8215	520241	0	0
2024-09-15 17:49:47			0	38888	0	0	0	25176	23770	154577	27111	1064469	46720	109308	0	0	8215	519872	0	0
2024-09-15 17:50:47			0	38883	0	0	0	25171	23750	154417	27353	1064416	46719	109306	0	0	8215	520119	0	0
2024-09-15 17:51:47			0	38874	0	0	0	25171	23770	154533	26953	1064452	46732	109306	0	0	8215	520400	0	0
2024-09-15 17:52:47			0	38902	0	0	0	25179	23770	154529	27293	1064452	46732	109309	0	0	8216	519344	0	0
2024-09-15 17:53:47			0	38872	0	0	0	25161	23770	154541	27362	1064416	46742	109302	0	0	8215	520476	0	0
2024-09-15 17:54:47			0	38869	0	0	0	25166	23770	154513	27114	1064496	46708	109304	0	0	8214	520589	0	0
2024-09-15 17:55:47			0	38883	0	0	0	25173	23760	154521	27170	1064425	46731	109307	0	0	8215	520090	0	0
2024-09-15 17:56:47			0	38876	0	0	0	25163	23770	154465	27225	1064443	46742	109303	0	0	8215	520325	0	0
2024-09-15 17:57:47			0	38861	0	0	0	25166	23770	154569	27405	1064389	46731	109304	0	0	8214	520891	0	0
2024-09-15 17:58:47			0	38874	0	0	0	25179	23760	154637	27123	1064344	46720	109309	0	0	8214	520430	0	0
2024-09-15 17:59:47			0	38859	0	0	0	25171	23760	154657	26941	1064434	46731	109306	0	0	8214	520996	0	0
2024-09-15 18:00:47			0	38862	0	0	0	25168	23770	154661	27187	1064496	46731	109305	0	0	8214	520854	0	0
2024-09-15 18:01:47			0	38846	0	0	0	25173	23760	154705	27353	1064451	46731	109307	0	0	8213	521488	0	0
2024-09-15 18:02:47			0	38833	0	0	0	25171	23760	154645	27053	1064434	46720	109306	0	0	8212	521979	0	0
2024-09-15 18:03:47			0	38811	0	0	0	25163	23770	154753	27403	1064443	46731	109303	0	0	8211	522782	0	0
2024-09-15 18:04:47			0	38819	0	0	0	25163	23760	154777	27107	1064460	46720	109303	0	0	8211	522509	0	0
2024-09-15 18:05:47			0	38812	0	0	0	25168	23750	154841	27208	1064442	46730	109305	0	0	8211	522803	0	0
2024-09-15 18:06:47			0	38801	0	0	0	25166	23750	154841	27568	1064416	46730	109304	0	0	8210	523220	0	0
2024-09-15 18:07:47			0	38814	0	0	0	25158	23760	154773	27372	1064425	46720	109301	0	0	8211	522698	0	0
2024-09-15 18:08:47			0	38775	0	0	0	25155	23760	154809	27281	1064398	46708	109300	0	0	8209	524176	0	0
2024-09-15 18:09:47			0	38790	0	0	0	25171	23760	154861	27137	1064398	46731	109306	0	0	8210	523607	0	0
2024-09-15 18:10:47			0	38776	0	0	0	25173	23770	154749	27197	1064389	46731	109307	0	0	8209	524108	0	0
2024-09-15 18:11:47			0	38782	0	0	0	25171	23750	154853	27336	1064442	46730	109306	0	0	8209	523940	0	0
2024-09-15 18:12:47			0	38785	0	0	0	25163	23750	154897	27345	1064416	46741	109303	0	0	8209	523826	0	0
2024-09-15 18:13:47			0	38787	0	0	0	25168	23750	154997	27383	1064389	46741	109305	0	0	8209	523750	0	0
2024-09-15 18:14:47			0	38776	0	0	0	25181	23750	154969	27097	1064389	46730	109310	0	0	8209	524167	0	0
2024-09-15 18:15:47			0	38764	0	0	0	25176	23760	154937	27402	1064460	46708	109308	0	0	8208	524593	0	0
2024-09-15 18:16:47			0	38781	0	0	0	25176	23760	154893	27131	1064398	46742	109308	0	0	8209	523948	0	0
2024-09-15 18:17:47			0	38760	0	0	0	25176	23760	154929	27079	1064460	46731	109308	0	0	8208	524745	0	0
2024-09-15 18:18:47			0	38760	0	0	0	25173	23760	154917	27182	1064434	46720	109307	0	0	8208	524745	0	0
2024-09-15 18:19:47			0	38768	0	0	0	25181	23760	155057	27559	1064425	46731	109310	0	0	8208	524441	0	0
2024-09-15 18:20:47			0	38775	0	0	0	25173	23760	155001	27305	1064460	46731	109307	0	0	8209	524176	0	0
2024-09-15 18:21:47			0	38763	0	0	0	25166	23760	154921	27036	1064434	46742	109304	0	0	8208	524631	0	0
2024-09-15 18:22:47			0	38753	0	0	0	25161	23770	155041	27237	1064443	46731	109302	0	0	8208	524981	0	0
2024-09-15 18:23:47			0	38770	0	0	0	25168	23760	155033	27237	1064451	46731	109305	0	0	8209	524365	0	0
2024-09-15 18:24:47			0	38751	0	0	0	25155	23760	155037	27452	1064398	46731	109300	0	0	8208	525086	0	0
2024-09-15 18:25:47			0	38750	0	0	0	25161	23760	155153	27424	1064398	46720	109302	0	0	8207	525124	0	0
2024-09-15 18:26:47			0	38739	0	0	0	25155	23750	155177	27504	1064416	46719	109300	0	0	8207	525572	0	0
2024-09-15 18:27:47			0	38725	0	0	0	25155	23750	155184	27140	1064326	46729	109300	0	0	8206	526104	0	0
2024-09-15 18:28:47			0	38733	0	0	0	25163	23750	155117	27251	1064416	46730	109303	0	0	8206	525799	0	0
2024-09-15 18:29:47			0	38726	0	0	0	25161	23750	155201	27213	1064407	46718	109302	0	0	8206	526065	0	0
2024-09-15 18:30:47			0	38708	0	0	0	25158	23750	155192	27085	1064326	46729	109301	0	0	8205	526750	0	0
2024-09-15 18:31:47			0	38732	0	0	0	25148	23760	155205	26968	1064380	46720	109297	0	0	8207	525808	0	0
2024-09-15 18:32:47			0	38707	0	0	0	25161	23740	155240	27003	1064371	46729	109302	0	0	8205	526818	0	0
2024-09-15 18:33:47			0	38718	0	0	0	25150	23750	155276	27282	1064353	46729	109298	0	0	8206	526370	0	0
2024-09-15 18:34:47			0	38693	0	0	0	25153	23750	155288	27225	1064407	46718	109299	0	0	8204	527321	0	0
2024-09-15 18:35:47			0	38681	0	0	0	25142	23750	155372	26946	1064326	46707	109295	0	0	8204	527777	0	0
2024-09-15 18:36:47			0	38658	0	0	0	25137	23740	155296	27142	1064318	46707	109293	0	0	8203	528683	0	0
2024-09-15 18:37:47			0	38656	0	0	0	25142	23740	155380	27092	1064398	46718	109295	0	0	8202	528760	0	0
2024-09-15 18:38:47			0	38667	0	0	0	25150	23730	155436	27046	1064335	46729	109298	0	0	8203	528370	0	0
2024-09-15 18:39:47			0	38675	0	0	0	25155	23750	155368	27180	1064335	46719	109300	0	0	8203	528006	0	0
2024-09-15 18:40:47			0	38675	0	0	0	25158	23740	155348	27251	1064344	46729	109301	0	0	8203	528036	0	0
2024-09-15 18:41:47			0	38674	0	0	0	25155	23740	155444	27102	1064344	46718	109300	0	0	8203	528074	0	0
2024-09-15 18:42:47			0	38673	0	0	0	25158	23740	155332	27360	1064344	46718	109301	0	0	8203	528112	0	0
2024-09-15 18:43:47			0	38672	0	0	0	25140	23740	155388	27081	1064318	46718	109294	0	0	8203	528150	0	0
2024-09-15 18:44:47			0	38665	0	0	0	25148	23740	155460	27046	1064318	46729	109297	0	0	8203	528416	0	0
2024-09-15 18:45:47			0	38642	0	0	0	25150	23740	155500	27371	1064264	46740	109298	0	0	8201	529294	0	0
2024-09-15 18:46:47			0	38643	0	0	0	25124	23730	155504	26922	1064326	46717	109288	0	0	8202	529285	0	0
2024-09-15 18:47:47			0	38649	0	0	0	25140	23720	155480	27507	1064291	46727	109294	0	0	8202	529086	0	0
2024-09-15 18:48:47			0	38629	0	0	0	25137	23730	155584	27095	1064255	46729	109293	0	0	8201	529819	0	0
2024-09-15 18:49:47			0	38624	0	0	0	25148	23730	155612	27128	1064273	46728	109297	0	0	8200	530010	0	0
2024-09-15 18:50:47			0	38648	0	0	0	25168	23720	155544	27279	1064282	46714	109305	0	0	8201	529124	0	0
2024-09-15 18:51:47			0	38648	0	0	0	25161	23720	155424	27229	1064317	46727	109302	0	0	8201	529124	0	0
2024-09-15 18:52:47			0	38665	0	0	0	25161	23720	155360	27046	1064317	46727	109302	0	0	8202	528476	0	0
2024-09-15 18:53:47			0	38671	0	0	0	25158	23740	155352	27052	1064344	46740	109301	0	0	8203	528188	0	0
2024-09-15 18:54:47			0	38670	0	0	0	25150	23740	155460	27137	1064371	46729	109298	0	0	8203	528226	0	0
2024-09-15 18:55:47			0	38680	0	0	0	25145	23720	155468	27069	1064317	46738	109296	0	0	8204	527905	0	0
2024-09-15 18:56:47			0	38651	0	0	0	25137	23730	155360	27027	1064309	46707	109293	0	0	8202	528980	0	0
2024-09-15 18:57:47			0	38661	0	0	0	25145	23720	155452	26996	1064291	46716	109296	0	0	8202	528629	0	0
2024-09-15 18:58:47			0	38638	0	0	0	25150	23720	155476	27211	1064317	46727	109298	0	0	8201	529506	0	0
2024-09-15 18:59:47			0	38653	0	0	0	25145	23720	155388	26913	1064317	46716	109296	0	0	8202	528934	0	0
2024-09-15 19:00:47			0	38657	0	0	0	25155	23720	155372	27163	1064264	46716	109300	0	0	8202	528781	0	0
2024-09-15 19:01:47			0	38655	0	0	0	25153	23720	155312	27029	1064291	46716	109299	0	0	8202	528857	0	0
2024-09-15 19:02:47			0	38645	0	0	0	25150	23720	155336	26915	1064317	46716	109298	0	0	8201	529239	0	0
2024-09-15 19:03:47			0	38658	0	0	0	25150	23730	155372	27267	1064362	46729	109298	0	0	8202	528713	0	0
2024-09-15 19:04:47			0	38658	0	0	0	25158	23730	155412	27234	1064335	46718	109301	0	0	8202	528713	0	0
2024-09-15 19:05:47			0	38639	0	0	0	25148	23730	155480	26963	1064300	46717	109297	0	0	8201	529438	0	0
2024-09-15 19:06:47			0	38661	0	0	0	25142	23720	155444	27046	1064362	46714	109295	0	0	8203	528629	0	0
2024-09-15 19:07:47			0	38643	0	0	0	25148	23720	155528	27005	1064264	46716	109297	0	0	8201	529315	0	0
2024-09-15 19:08:47			0	38620	0	0	0	25129	23730	155544	26712	1064282	46718	109290	0	0	8200	530163	0	0
2024-09-15 19:09:47			0	38620	0	0	0	25127	23720	155496	27227	1064317	46727	109289	0	0	8200	530193	0	0
2024-09-15 19:10:47			0	38597	0	0	0	25142	23720	155516	26845	1064255	46726	109295	0	0	8199	531071	0	0
2024-09-15 19:11:47			0	38603	0	0	0	25127	23720	155552	26909	1064291	46716	109289	0	0	8199	530842	0	0
2024-09-15 19:12:47			0	38591	0	0	0	25129	23720	155664	27029	1064317	46727	109290	0	0	8199	531301	0	0
2024-09-15 19:13:47			0	38598	0	0	0	25127	23720	155704	26797	1064335	46726	109289	0	0	8199	531033	0	0
2024-09-15 19:14:47			0	38576	0	0	0	25127	23720	155680	27104	1064264	46738	109289	0	0	8198	531875	0	0
2024-09-15 19:15:47			0	38586	0	0	0	25132	23720	155716	26913	1064264	46727	109291	0	0	8198	531492	0	0
2024-09-15 19:16:47			0	38608	0	0	0	25150	23720	155696	26963	1064255	46714	109298	0	0	8199	530651	0	0
2024-09-15 19:17:47			0	38593	0	0	0	25137	23720	155564	27263	1064255	46714	109293	0	0	8199	531224	0	0
2024-09-15 19:18:47			0	38596	0	0	0	25140	23710	155628	27046	1064210	46726	109294	0	0	8199	531140	0	0
2024-09-15 19:19:47			0	38584	0	0	0	25135	23720	155640	27307	1064344	46716	109292	0	0	8198	531569	0	0
2024-09-15 19:20:47			0	38596	0	0	0	25129	23720	155580	27215	1064282	46704	109290	0	0	8199	531110	0	0
2024-09-15 19:21:47			0	38597	0	0	0	25135	23720	155688	27114	1064291	46716	109292	0	0	8199	531071	0	0
2024-09-15 19:22:47			0	38593	0	0	0	25137	23720	155608	27376	1064282	46726	109293	0	0	8199	531224	0	0
2024-09-15 19:23:47			0	38589	0	0	0	25140	23720	155636	27142	1064308	46714	109294	0	0	8198	531377	0	0
2024-09-15 19:24:47			0	38575	0	0	0	25124	23720	155708	27019	1064264	46705	109288	0	0	8198	531913	0	0
2024-09-15 19:25:47			0	38567	0	0	0	25119	23720	155720	27353	1064264	46727	109286	0	0	8197	532219	0	0
2024-09-15 19:26:47			0	38566	0	0	0	25114	23720	155812	27242	1064255	46714	109284	0	0	8197	532257	0	0
2024-09-15 19:27:47			0	38573	0	0	0	25140	23710	155856	27443	1064246	46726	109294	0	0	8197	532019	0	0
2024-09-15 19:28:47			0	38575	0	0	0	25142	23710	155680	27192	1064237	46704	109295	0	0	8197	531943	0	0
2024-09-15 19:29:47			0	38584	0	0	0	25137	23710	155680	27121	1064210	46714	109293	0	0	8198	531598	0	0
2024-09-15 19:30:47			0	38613	0	0	0	25132	23710	155680	27076	1064299	46726	109291	0	0	8200	530490	0	0
2024-09-15 19:31:47			0	38583	0	0	0	25124	23710	155704	27145	1064273	46726	109288	0	0	8198	531637	0	0
2024-09-15 19:32:47			0	38575	0	0	0	25111	23710	155764	26916	1064246	46714	109283	0	0	8198	531943	0	0
2024-09-15 19:33:47			0	38561	0	0	0	25103	23710	155788	27197	1064273	46714	109280	0	0	8197	532479	0	0
2024-09-15 19:34:47			0	38548	0	0	0	25116	23710	155848	27275	1064183	46704	109285	0	0	8196	532976	0	0
2024-09-15 19:35:47			0	38533	0	0	0	25119	23700	155932	27176	1064228	46703	109286	0	0	8195	533581	0	0
2024-09-15 19:36:47			0	38550	0	0	0	25119	23710	155824	27261	1064210	46714	109286	0	0	8196	532900	0	0
2024-09-15 19:37:47			0	38524	0	0	0	25106	23700	155888	26989	1064228	46703	109281	0	0	8195	533927	0	0
2024-09-15 19:38:47			0	38516	0	0	0	25106	23710	155996	27064	1064183	46714	109281	0	0	8195	534203	0	0
2024-09-15 19:39:47			0	38506	0	0	0	25103	23700	155984	27183	1064174	46714	109280	0	0	8194	534617	0	0
2024-09-15 19:40:47			0	38489	0	0	0	25109	23710	156044	27093	1064210	46704	109282	0	0	8193	535240	0	0
2024-09-15 19:41:47			0	38499	0	0	0	25114	23700	156044	27343	1064192	46724	109284	0	0	8194	534886	0	0
2024-09-15 19:42:47			0	38518	0	0	0	25122	23700	155996	27372	1064148	46725	109287	0	0	8194	534157	0	0
2024-09-15 19:43:47			0	38490	0	0	0	25114	23700	156040	27175	1064165	46724	109284	0	0	8193	535231	0	0
2024-09-15 19:44:47			0	38508	0	0	0	25114	23700	155948	27140	1064165	46724	109284	0	0	8194	534540	0	0
2024-09-15 19:45:47			0	38509	0	0	0	25119	23700	155980	27249	1064219	46724	109286	0	0	8194	534502	0	0
2024-09-15 19:46:47			0	38522	0	0	0	25116	23700	156008	27057	1064165	46724	109285	0	0	8195	534003	0	0
2024-09-15 19:47:47			0	38522	0	0	0	25114	23700	156020	27267	1064228	46703	109284	0	0	8195	534003	0	0
2024-09-15 19:48:47			0	38510	0	0	0	25109	23700	155992	27225	1064272	46735	109282	0	0	8194	534464	0	0
2024-09-15 19:49:47			0	38516	0	0	0	25101	23700	155880	27092	1064174	46714	109279	0	0	8195	534233	0	0
2024-09-15 19:50:47			0	38500	0	0	0	25101	23690	155924	27196	1064103	46702	109279	0	0	8194	534878	0	0
2024-09-15 19:51:47			0	38521	0	0	0	25106	23690	156016	27197	1064156	46713	109281	0	0	8195	534072	0	0
2024-09-15 19:52:47			0	38498	0	0	0	25098	23690	156084	26932	1064174	46724	109278	0	0	8194	534954	0	0
2024-09-15 19:53:47			0	38488	0	0	0	25101	23680	156072	26876	1064111	46701	109279	0	0	8193	535368	0	0
2024-09-15 19:54:47			0	38490	0	0	0	25098	23690	156004	27067	1064103	46724	109278	0	0	8193	535261	0	0
2024-09-15 19:55:47			0	38497	0	0	0	25080	23690	156076	27351	1064076	46713	109271	0	0	8194	534993	0	0
2024-09-15 19:56:47			0	38495	0	0	0	25070	23680	156016	27284	1064085	46712	109267	0	0	8194	535100	0	0
2024-09-15 19:57:47			0	38499	0	0	0	25072	23680	156004	27161	1064111	46712	109268	0	0	8194	534946	0	0
2024-09-15 19:58:47			0	38496	0	0	0	25072	23680	156048	27003	1064058	46712	109268	0	0	8194	535061	0	0
2024-09-15 19:59:47			0	38478	0	0	0	25070	23670	156036	27164	1064031	46710	109267	0	0	8193	535783	0	0
2024-09-15 20:00:47			0	38469	0	0	0	25070	23680	156220	26948	1064022	46722	109267	0	0	8192	536099	0	0
2024-09-15 20:01:47			0	38454	0	0	0	25064	23670	156188	27003	1063951	46710	109265	0	0	8192	536706	0	0
2024-09-15 20:02:47			0	38462	0	0	0	25054	23670	156236	27416	1064004	46700	109261	0	0	8192	536398	0	0
2024-09-15 20:03:47			0	38450	0	0	0	25067	23670	156140	27218	1063986	46710	109266	0	0	8191	536860	0	0
2024-09-15 20:04:47			0	38472	0	0	0	25075	23660	156228	27268	1063995	46721	109269	0	0	8192	536044	0	0
2024-09-15 20:05:47			0	38463	0	0	0	25075	23670	156164	27111	1063951	46710	109269	0	0	8192	536360	0	0
2024-09-15 20:06:47			0	38453	0	0	0	25085	23660	156284	27267	1063906	46698	109273	0	0	8191	536774	0	0
2024-09-15 20:07:47			0	38470	0	0	0	25067	23660	156204	27369	1063959	46708	109266	0	0	8192	536120	0	0
2024-09-15 20:08:47			0	38441	0	0	0	25064	23660	156304	27109	1063986	46720	109265	0	0	8191	537236	0	0
2024-09-15 20:09:47			0	38463	0	0	0	25072	23650	156240	26934	1063950	46720	109268	0	0	8192	536420	0	0
2024-09-15 20:10:47			0	38480	0	0	0	25098	23660	156320	27251	1063986	46698	109278	0	0	8193	535736	0	0
2024-09-15 20:11:47			0	38467	0	0	0	25098	23660	156316	27331	1063959	46731	109278	0	0	8192	536236	0	0
2024-09-15 20:12:47			0	38473	0	0	0	25072	23660	156232	27012	1064013	46720	109268	0	0	8193	536005	0	0
2024-09-15 20:13:47			0	38445	0	0	0	25062	23660	156312	27102	1064022	46709	109264	0	0	8191	537082	0	0
2024-09-15 20:14:47			0	38442	0	0	0	25075	23670	156360	27352	1064058	46710	109269	0	0	8191	537168	0	0
2024-09-15 20:15:47			0	38444	0	0	0	25080	23660	156316	27138	1063959	46708	109271	0	0	8191	537121	0	0
2024-09-15 20:16:47			0	38443	0	0	0	25067	23660	156248	27066	1063933	46708	109266	0	0	8191	537159	0	0
2024-09-15 20:17:47			0	38429	0	0	0	25070	23660	156240	26968	1063968	46709	109267	0	0	8190	537698	0	0
2024-09-15 20:18:47			0	38438	0	0	0	25070	23660	156456	26935	1063968	46721	109267	0	0	8191	537352	0	0
2024-09-15 20:19:47			0	38434	0	0	0	25070	23650	156316	26842	1063924	46720	109267	0	0	8190	537536	0	0
2024-09-15 20:20:47			0	38435	0	0	0	25062	23650	156392	26923	1063924	46708	109264	0	0	8190	537497	0	0
2024-09-15 20:21:47			0	38420	0	0	0	25080	23660	156336	27147	1063959	46720	109271	0	0	8189	538045	0	0
2024-09-15 20:22:47			0	38413	0	0	0	25067	23660	156448	27046	1063968	46721	109266	0	0	8189	538315	0	0
2024-09-15 20:23:47			0	38402	0	0	0	25072	23650	156452	27050	1063924	46698	109268	0	0	8188	538769	0	0
2024-09-15 20:24:47			0	38405	0	0	0	25083	23660	156488	27074	1063933	46720	109272	0	0	8188	538623	0	0
2024-09-15 20:25:47			0	38415	0	0	0	25072	23650	156488	26948	1063977	46731	109268	0	0	8189	538268	0	0
2024-09-15 20:26:47			0	38389	0	0	0	25062	23650	156588	27128	1063968	46708	109264	0	0	8188	539271	0	0
2024-09-15 20:27:47			0	38392	0	0	0	25080	23650	156500	27270	1063977	46708	109271	0	0	8188	539155	0	0
2024-09-15 20:28:47			0	38385	0	0	0	25064	23660	156476	27239	1063986	46720	109265	0	0	8188	539395	0	0
2024-09-15 20:29:47			0	38369	0	0	0	25049	23660	156656	27126	1063986	46720	109259	0	0	8187	540013	0	0
2024-09-15 20:30:47			0	38358	0	0	0	25033	23650	156616	27045	1063924	46708	109253	0	0	8187	540468	0	0
2024-09-15 20:31:47			0	38326	0	0	0	25018	23650	156816	27052	1063888	46697	109247	0	0	8185	541706	0	0
2024-09-15 20:32:47			0	38307	0	0	0	25036	23640	156780	27294	1063826	46708	109254	0	0	8183	542472	0	0
2024-09-15 20:33:47			0	38313	0	0	0	25057	23640	156896	27256	1063906	46697	109262	0	0	8183	542239	0	0
2024-09-15 20:34:47			0	38312	0	0	0	25049	23640	156860	27402	1063924	46707	109259	0	0	8184	542278	0	0
2024-09-15 20:35:47			0	38309	0	0	0	25067	23650	156816	27218	1063915	46719	109266	0	0	8183	542364	0	0
2024-09-15 20:36:47			0	38332	0	0	0	25059	23640	156700	27126	1063897	46718	109263	0	0	8185	541504	0	0
2024-09-15 20:37:47			0	38346	0	0	0	25051	23640	156672	27338	1063950	46707	109260	0	0	8185	540962	0	0
2024-09-15 20:38:47			0	38339	0	0	0	25057	23640	156688	27161	1063906	46697	109262	0	0	8185	541233	0	0
2024-09-15 20:39:47			0	38339	0	0	0	25064	23640	156692	27031	1063870	46707	109265	0	0	8185	541233	0	0
2024-09-15 20:40:47			0	38360	0	0	0	25062	23650	156840	27107	1063897	46720	109264	0	0	8186	540391	0	0
2024-09-15 20:41:47			0	38360	0	0	0	25067	23650	156840	27036	1063924	46720	109266	0	0	8186	540391	0	0
2024-09-15 20:42:47			0	38338	0	0	0	25059	23640	156748	27353	1063843	46707	109263	0	0	8185	541272	0	0
2024-09-15 20:43:47			0	38364	0	0	0	25080	23650	156684	27046	1063941	46708	109271	0	0	8186	540236	0	0
2024-09-15 20:44:47			0	38351	0	0	0	25075	23660	156756	27152	1063906	46720	109269	0	0	8185	540708	0	0
2024-09-15 20:45:47			0	38372	0	0	0	25072	23650	156768	27055	1063968	46708	109268	0	0	8187	539927	0	0
2024-09-15 20:46:47			0	38345	0	0	0	25080	23650	156680	26790	1063941	46730	109271	0	0	8185	540971	0	0
2024-09-15 20:47:47			0	38357	0	0	0	25067	23660	156788	26873	1063986	46720	109266	0	0	8186	540476	0	0
2024-09-15 20:48:47			0	38354	0	0	0	25080	23650	156696	27007	1063950	46708	109271	0	0	8185	540623	0	0
2024-09-15 20:49:47			0	38378	0	0	0	25070	23650	156692	27086	1064022	46708	109267	0	0	8187	539696	0	0
2024-09-15 20:50:47			0	38335	0	0	0	25067	23650	156788	27265	1063950	46708	109266	0	0	8185	541357	0	0
2024-09-15 20:51:47			0	38332	0	0	0	25059	23660	156836	26797	1063968	46721	109263	0	0	8185	541443	0	0
2024-09-15 20:52:47			0	38323	0	0	0	25049	23660	156812	27310	1063959	46708	109259	0	0	8184	541791	0	0
2024-09-15 20:53:47			0	38302	0	0	0	25041	23650	156788	27164	1063950	46698	109256	0	0	8183	542635	0	0
2024-09-15 20:54:47			0	38313	0	0	0	25049	23650	156876	27409	1063977	46698	109259	0	0	8184	542209	0	0
2024-09-15 20:55:47			0	38290	0	0	0	25044	23640	156960	26948	1063906	46719	109257	0	0	8182	543130	0	0
2024-09-15 20:56:47			0	38301	0	0	0	25038	23640	156908	27033	1063879	46719	109255	0	0	8183	542704	0	0
2024-09-15 20:57:47			0	38279	0	0	0	25044	23650	157000	27164	1063861	46708	109257	0	0	8182	543526	0	0
2024-09-15 20:58:47			0	38285	0	0	0	25054	23650	157056	27137	1063915	46697	109261	0	0	8182	543294	0	0
2024-09-15 20:59:47			0	38276	0	0	0	25072	23640	156992	27249	1063933	46719	109268	0	0	8181	543673	0	0
2024-09-15 21:00:47			0	38269	0	0	0	25067	23640	157064	27194	1063897	46707	109266	0	0	8181	543945	0	0
2024-09-15 21:01:47			0	38249	0	0	0	25049	23650	156988	26951	1063915	46697	109259	0	0	8180	544690	0	0
2024-09-15 21:02:47			0	38245	0	0	0	25070	23650	157088	26951	1063915	46708	109267	0	0	8179	544846	0	0
2024-09-15 21:03:47			0	38267	0	0	0	25070	23640	156976	27260	1063933	46708	109267	0	0	8181	544022	0	0
2024-09-15 21:04:47			0	38271	0	0	0	25054	23650	157036	27255	1063968	46708	109261	0	0	8181	543837	0	0
2024-09-15 21:05:47			0	38271	0	0	0	25088	23650	157120	27452	1063941	46708	109274	0	0	8181	543837	0	0
2024-09-15 21:06:47			0	38269	0	0	0	25096	23650	157004	27495	1063995	46719	109277	0	0	8180	543914	0	0
2024-09-15 21:07:47			0	38273	0	0	0	25072	23650	156964	27272	1063968	46708	109268	0	0	8181	543759	0	0
2024-09-15 21:08:47			0	38242	0	0	0	25054	23650	156952	26875	1063968	46730	109261	0	0	8179	544962	0	0
2024-09-15 21:09:47			0	38243	0	0	0	25057	23640	157224	26845	1063906	46708	109262	0	0	8179	544954	0	0
2024-09-15 21:10:47			0	38229	0	0	0	25044	23660	157184	27114	1063959	46708	109257	0	0	8179	545437	0	0
2024-09-15 21:11:47			0	38216	0	0	0	25049	23650	157208	27197	1063897	46698	109259	0	0	8178	545973	0	0
2024-09-15 21:12:47			0	38227	0	0	0	25067	23650	157240	27062	1063915	46708	109266	0	0	8178	545545	0	0
2024-09-15 21:13:47			0	38224	0	0	0	25077	23650	157188	26930	1063941	46708	109270	0	0	8178	545662	0	0
2024-09-15 21:14:47			0	38235	0	0	0	25072	23650	157076	27105	1063977	46720	109268	0	0	8179	545234	0	0
2024-09-15 21:15:47			0	38243	0	0	0	25070	23640	157252	27107	1063977	46707	109267	0	0	8179	544954	0	0
2024-09-15 21:16:47			0	38231	0	0	0	25075	23650	157152	27119	1063941	46697	109269	0	0	8178	545390	0	0
2024-09-15 21:17:47			0	38232	0	0	0	25075	23640	157156	27100	1063959	46708	109269	0	0	8178	545381	0	0
2024-09-15 21:18:47			0	38219	0	0	0	25077	23650	157268	27216	1063995	46697	109270	0	0	8178	545856	0	0
2024-09-15 21:19:47			0	38223	0	0	0	25070	23650	157180	27190	1063950	46720	109267	0	0	8178	545700	0	0
2024-09-15 21:20:47			0	38219	0	0	0	25059	23660	157288	27027	1063986	46708	109263	0	0	8178	545825	0	0
2024-09-15 21:21:47			0	38197	0	0	0	25067	23660	157376	27119	1063986	46708	109266	0	0	8177	546681	0	0
2024-09-15 21:22:47			0	38182	0	0	0	25064	23660	157348	26963	1063986	46708	109265	0	0	8176	547265	0	0
2024-09-15 21:23:47			0	38171	0	0	0	25049	23650	157352	27164	1063915	46719	109259	0	0	8175	547724	0	0
2024-09-15 21:24:47			0	38173	0	0	0	25044	23650	157316	27064	1063941	46708	109257	0	0	8176	547646	0	0
2024-09-15 21:25:47			0	38168	0	0	0	25038	23640	157460	27046	1063906	46708	109255	0	0	8175	547872	0	0
2024-09-15 21:26:47			0	38159	0	0	0	25036	23650	157576	27017	1063888	46697	109254	0	0	8175	548192	0	0
2024-09-15 21:27:47			0	38146	0	0	0	25062	23640	157452	27130	1063906	46697	109264	0	0	8174	548730	0	0
2024-09-15 21:28:47			0	38139	0	0	0	25062	23640	157516	26863	1063897	46718	109264	0	0	8173	549003	0	0
2024-09-15 21:29:47			0	38158	0	0	0	25067	23650	157572	27052	1063888	46697	109266	0	0	8174	548231	0	0
2024-09-15 21:30:47			0	38163	0	0	0	25070	23640	157532	27022	1063933	46719	109267	0	0	8175	548067	0	0
2024-09-15 21:31:47			0	38145	0	0	0	25062	23650	157500	26847	1063968	46708	109264	0	0	8174	548738	0	0
2024-09-15 21:32:47			0	38159	0	0	0	25059	23640	157556	27199	1063933	46708	109263	0	0	8174	548223	0	0
2024-09-15 21:33:47			0	38153	0	0	0	25044	23640	157444	27052	1063879	46708	109257	0	0	8174	548457	0	0
2024-09-15 21:34:47			0	38145	0	0	0	25038	23650	157584	27312	1063968	46708	109255	0	0	8174	548738	0	0
2024-09-15 21:35:47			0	38110	0	0	0	25033	23640	157656	26994	1063870	46718	109253	0	0	8172	550135	0	0
2024-09-15 21:36:47			0	38116	0	0	0	25054	23640	157676	26883	1063879	46708	109261	0	0	8172	549901	0	0
2024-09-15 21:37:47			0	38111	0	0	0	25067	23650	157680	26937	1063897	46708	109266	0	0	8172	550065	0	0
2024-09-15 21:38:47			0	38127	0	0	0	25067	23640	157756	27090	1063852	46708	109266	0	0	8172	549471	0	0
2024-09-15 21:39:47			0	38116	0	0	0	25057	23640	157640	26878	1063906	46708	109262	0	0	8172	549901	0	0
2024-09-15 21:40:47			0	38098	0	0	0	25044	23640	157636	26772	1063879	46708	109257	0	0	8171	550604	0	0
2024-09-15 21:41:47			0	38106	0	0	0	25046	23640	157760	26800	1063870	46707	109258	0	0	8172	550292	0	0
2024-09-15 21:42:47			0	38079	0	0	0	25046	23640	157796	26739	1063870	46707	109258	0	0	8170	551347	0	0
2024-09-15 21:43:47			0	38078	0	0	0	25046	23640	157824	26830	1063870	46696	109258	0	0	8170	551387	0	0
2024-09-15 21:44:47			0	38092	0	0	0	25044	23640	157948	27074	1063906	46719	109257	0	0	8171	550839	0	0
2024-09-15 21:45:47			0	38093	0	0	0	25041	23640	157848	26838	1063870	46707	109256	0	0	8171	550800	0	0
2024-09-15 21:46:47			0	38065	0	0	0	25038	23630	157828	27088	1063906	46706	109255	0	0	8169	551926	0	0
2024-09-15 21:47:47			0	38067	0	0	0	25036	23640	157972	27015	1063870	46707	109254	0	0	8170	551817	0	0
2024-09-15 21:48:47			0	38052	0	0	0	25031	23630	157872	26928	1063861	46695	109252	0	0	8169	552436	0	0
2024-09-15 21:49:47			0	38070	0	0	0	25049	23630	157956	26883	1063861	46695	109259	0	0	8169	551731	0	0
2024-09-15 21:50:47			0	38071	0	0	0	25059	23630	158028	27052	1063861	46695	109263	0	0	8169	551692	0	0
2024-09-15 21:51:47			0	38067	0	0	0	25049	23630	157952	27298	1063834	46706	109259	0	0	8169	551848	0	0
2024-09-15 21:52:47			0	38043	0	0	0	25049	23630	157964	26979	1063825	46695	109259	0	0	8168	552788	0	0
2024-09-15 21:53:47			0	38080	0	0	0	25038	23640	157936	26885	1063870	46707	109255	0	0	8170	551308	0	0
2024-09-15 21:54:47			0	38060	0	0	0	25038	23630	157988	27074	1063834	46706	109255	0	0	8169	552122	0	0
2024-09-15 21:55:47			0	38065	0	0	0	25051	23630	157916	27097	1063799	46717	109260	0	0	8169	551926	0	0
2024-09-15 21:56:47			0	38079	0	0	0	25049	23630	157924	26597	1063861	46706	109259	0	0	8170	551378	0	0
2024-09-15 21:57:47			0	38077	0	0	0	25033	23630	157996	26759	1063852	46706	109253	0	0	8170	551457	0	0
2024-09-15 21:58:47			0	38091	0	0	0	25031	23630	157920	27083	1063834	46706	109252	0	0	8171	550909	0	0
2024-09-15 21:59:47			0	38075	0	0	0	25033	23640	157900	27145	1063870	46707	109253	0	0	8170	551504	0	0
2024-09-15 22:00:47			0	38066	0	0	0	25020	23630	157980	27086	1063754	46706	109248	0	0	8170	551887	0	0
2024-09-15 22:01:47			0	38069	0	0	0	25023	23630	157896	27182	1063781	46695	109249	0	0	8170	551770	0	0
2024-09-15 22:02:47			0	38069	0	0	0	25038	23620	158008	27005	1063727	46705	109255	0	0	8170	551801	0	0
2024-09-15 22:03:47			0	38097	0	0	0	25025	23620	157868	27251	1063736	46706	109250	0	0	8171	550705	0	0
2024-09-15 22:04:47			0	38083	0	0	0	25023	23620	157904	27173	1063781	46694	109249	0	0	8171	551253	0	0
2024-09-15 22:05:47			0	38077	0	0	0	25028	23620	157908	27173	1063816	46706	109251	0	0	8170	551488	0	0
2024-09-15 22:06:47			0	38077	0	0	0	25015	23630	157964	27185	1063772	46717	109246	0	0	8170	551457	0	0
2024-09-15 22:07:47			0	38091	0	0	0	25020	23620	157896	26634	1063736	46695	109248	0	0	8171	550940	0	0
2024-09-15 22:08:47			0	38061	0	0	0	25015	23620	157932	27293	1063843	46706	109246	0	0	8169	552114	0	0
2024-09-15 22:09:47			0	38072	0	0	0	25007	23620	157836	26927	1063807	46694	109243	0	0	8170	551683	0	0
2024-09-15 22:10:47			0	38069	0	0	0	25007	23620	157924	27239	1063736	46706	109243	0	0	8170	551801	0	0
2024-09-15 22:11:47			0	38083	0	0	0	25038	23610	157872	26955	1063825	46704	109255	0	0	8170	551284	0	0
2024-09-15 22:12:47			0	38091	0	0	0	25020	23610	157936	27256	1063825	46726	109248	0	0	8171	550971	0	0
2024-09-15 22:13:47			0	38088	0	0	0	25025	23610	157844	27135	1063772	46704	109250	0	0	8171	551088	0	0
2024-09-15 22:14:47			0	38079	0	0	0	25033	23620	157896	26949	1063834	46705	109253	0	0	8170	551409	0	0
2024-09-15 22:15:47			0	38116	0	0	0	25033	23620	157772	26977	1063754	46727	109253	0	0	8172	549963	0	0
2024-09-15 22:16:47			0	38098	0	0	0	25031	23610	157784	27041	1063825	46693	109252	0	0	8171	550697	0	0
2024-09-15 22:17:47			0	38098	0	0	0	25033	23620	157816	27244	1063807	46705	109253	0	0	8171	550666	0	0
2024-09-15 22:18:47			0	38090	0	0	0	25036	23630	157856	27116	1063772	46706	109254	0	0	8171	550948	0	0
2024-09-15 22:19:47			0	38070	0	0	0	25023	23610	157764	26897	1063745	46704	109249	0	0	8170	551793	0	0
2024-09-15 22:20:47			0	38096	0	0	0	25023	23630	157752	27010	1063772	46706	109249	0	0	8171	550713	0	0
2024-09-15 22:21:47			0	38073	0	0	0	25028	23620	157748	26864	1063834	46705	109251	0	0	8170	551644	0	0
2024-09-15 22:22:47			0	38076	0	0	0	25007	23620	157684	27076	1063816	46717	109243	0	0	8170	551527	0	0
2024-09-15 22:23:47			0	38077	0	0	0	25007	23610	157800	27128	1063745	46704	109243	0	0	8170	551519	0	0
2024-09-15 22:24:47			0	38036	0	0	0	24997	23630	157968	26932	1063745	46695	109239	0	0	8168	553063	0	0
2024-09-15 22:25:47			0	38043	0	0	0	25005	23610	157784	27235	1063763	46715	109242	0	0	8168	552850	0	0
2024-09-15 22:26:47			0	38056	0	0	0	25012	23610	157832	27183	1063798	46693	109245	0	0	8169	552341	0	0
2024-09-15 22:27:47			0	38078	0	0	0	25007	23610	157876	27013	1063736	46704	109243	0	0	8171	551480	0	0
2024-09-15 22:28:47			0	38080	0	0	0	25002	23610	157768	27157	1063682	46693	109241	0	0	8171	551401	0	0
2024-09-15 22:29:47			0	38101	0	0	0	25002	23610	157712	26883	1063718	46693	109241	0	0	8172	550580	0	0
2024-09-15 22:30:47			0	38112	0	0	0	25007	23610	157776	26821	1063638	46693	109243	0	0	8172	550150	0	0
2024-09-15 22:31:47			0	38110	0	0	0	25015	23610	157768	27168	1063682	46715	109246	0	0	8172	550228	0	0
2024-09-15 22:32:47			0	38099	0	0	0	24999	23610	157708	27052	1063745	46693	109240	0	0	8172	550658	0	0
2024-09-15 22:33:47			0	38119	0	0	0	25018	23610	157740	27031	1063709	46704	109247	0	0	8173	549877	0	0
2024-09-15 22:34:47			0	38108	0	0	0	25007	23600	157628	26986	1063727	46704	109243	0	0	8172	550337	0	0
2024-09-15 22:35:47			0	38120	0	0	0	25005	23600	157684	26824	1063700	46726	109242	0	0	8173	549868	0	0
2024-09-15 22:36:47			0	38114	0	0	0	25015	23590	157656	26953	1063709	46702	109246	0	0	8172	550134	0	0
2024-09-15 22:37:47			0	38109	0	0	0	25010	23610	157732	27170	1063763	46704	109244	0	0	8172	550267	0	0
2024-09-15 22:38:47			0	38115	0	0	0	25018	23600	157716	26986	1063700	46715	109247	0	0	8172	550064	0	0
2024-09-15 22:39:47			0	38118	0	0	0	25012	23600	157664	27433	1063727	46704	109245	0	0	8173	549946	0	0
2024-09-15 22:40:47			0	38115	0	0	0	25023	23600	157584	27258	1063691	46692	109249	0	0	8172	550064	0	0
2024-09-15 22:41:47			0	38129	0	0	0	25012	23600	157588	27121	1063754	46715	109245	0	0	8173	549517	0	0
2024-09-15 22:42:47			0	38127	0	0	0	25002	23610	157720	27246	1063736	46704	109241	0	0	8173	549564	0	0
2024-09-15 22:43:47			0	38112	0	0	0	24999	23600	157676	26956	1063691	46692	109240	0	0	8173	550181	0	0
2024-09-15 22:44:47			0	38126	0	0	0	24994	23600	157664	27249	1063727	46704	109238	0	0	8173	549634	0	0
2024-09-15 22:45:47			0	38112	0	0	0	25007	23610	157656	27171	1063736	46693	109243	0	0	8172	550150	0	0
2024-09-15 22:46:47			0	38134	0	0	0	25015	23600	157628	27194	1063665	46692	109246	0	0	8174	549322	0	0
2024-09-15 22:47:47			0	38124	0	0	0	25007	23610	157616	26934	1063736	46704	109243	0	0	8173	549681	0	0
2024-09-15 22:48:47			0	38130	0	0	0	25020	23600	157592	27128	1063727	46704	109248	0	0	8173	549478	0	0
2024-09-15 22:49:47			0	38147	0	0	0	25015	23610	157556	26958	1063736	46693	109246	0	0	8174	548783	0	0
2024-09-15 22:50:47			0	38148	0	0	0	25007	23600	157652	27060	1063691	46703	109243	0	0	8175	548775	0	0
2024-09-15 22:51:47			0	38128	0	0	0	25028	23600	157616	27183	1063745	46703	109251	0	0	8173	549556	0	0
2024-09-15 22:52:47			0	38137	0	0	0	25031	23610	157648	26876	1063745	46704	109252	0	0	8174	549174	0	0
2024-09-15 22:53:47			0	38144	0	0	0	25023	23600	157584	27034	1063718	46714	109249	0	0	8174	548931	0	0
2024-09-15 22:54:47			0	38131	0	0	0	25020	23610	157636	27270	1063798	46704	109248	0	0	8173	549408	0	0
2024-09-15 22:55:47			0	38154	0	0	0	25023	23610	157716	27010	1063736	46726	109249	0	0	8175	548510	0	0
2024-09-15 22:56:47			0	38158	0	0	0	25025	23600	157660	26967	1063834	46715	109250	0	0	8175	548385	0	0
2024-09-15 22:57:47			0	38129	0	0	0	25025	23610	157596	27222	1063736	46704	109250	0	0	8173	549486	0	0
2024-09-15 22:58:47			0	38129	0	0	0	25025	23600	157560	27043	1063727	46704	109250	0	0	8173	549517	0	0
2024-09-15 22:59:47			0	38148	0	0	0	25028	23610	157620	27178	1063763	46715	109251	0	0	8174	548744	0	0
2024-09-15 23:00:47			0	38161	0	0	0	25012	23600	157556	27317	1063780	46704	109245	0	0	8175	548268	0	0
2024-09-15 23:01:47			0	38137	0	0	0	25015	23610	157620	27272	1063691	46704	109246	0	0	8174	549174	0	0
2024-09-15 23:02:47			0	38127	0	0	0	25012	23610	157664	27211	1063736	46704	109245	0	0	8173	549564	0	0
2024-09-15 23:03:47			0	38122	0	0	0	25015	23600	157572	27170	1063700	46704	109246	0	0	8173	549790	0	0
2024-09-15 23:04:47			0	38116	0	0	0	25020	23600	157664	26989	1063727	46693	109248	0	0	8172	550025	0	0
2024-09-15 23:05:47			0	38115	0	0	0	25023	23600	157556	27201	1063771	46681	109249	0	0	8172	550064	0	0
2024-09-15 23:06:47			0	38136	0	0	0	25023	23600	157552	27130	1063754	46693	109249	0	0	8174	549244	0	0
2024-09-15 23:07:47			0	38124	0	0	0	25015	23620	157696	27194	1063754	46705	109246	0	0	8173	549650	0	0
2024-09-15 23:08:47			0	38129	0	0	0	25002	23610	157624	27493	1063709	46704	109241	0	0	8174	549486	0	0
2024-09-15 23:09:47			0	38123	0	0	0	25005	23610	157716	27189	1063745	46715	109242	0	0	8173	549720	0	0
2024-09-15 23:10:47			0	38120	0	0	0	25002	23610	157788	27218	1063745	46704	109241	0	0	8173	549837	0	0
2024-09-15 23:11:47			0	38117	0	0	0	25010	23610	157748	27223	1063709	46693	109244	0	0	8173	549955	0	0
2024-09-15 23:12:47			0	38110	0	0	0	24997	23610	157648	27223	1063736	46704	109239	0	0	8173	550228	0	0
2024-09-15 23:13:47			0	38110	0	0	0	25005	23600	157780	27052	1063745	46703	109242	0	0	8172	550259	0	0
2024-09-15 23:14:47			0	38094	0	0	0	24997	23600	157808	27253	1063718	46703	109239	0	0	8172	550885	0	0
2024-09-15 23:15:47			0	38097	0	0	0	24999	23610	157920	27119	1063745	46704	109240	0	0	8172	550736	0	0
2024-09-15 23:16:47			0	38121	0	0	0	24999	23610	157860	27213	1063745	46704	109240	0	0	8173	549798	0	0
2024-09-15 23:17:47			0	38097	0	0	0	24999	23590	157940	27216	1063709	46691	109240	0	0	8172	550798	0	0
2024-09-15 23:18:47			0	38093	0	0	0	24997	23600	157864	27229	1063727	46704	109239	0	0	8171	550924	0	0
2024-09-15 23:19:47			0	38099	0	0	0	24999	23600	157688	27348	1063665	46692	109240	0	0	8172	550689	0	0
2024-09-15 23:20:47			0	38117	0	0	0	24994	23600	157844	26953	1063745	46703	109238	0	0	8173	549986	0	0
2024-09-15 23:21:47			0	38113	0	0	0	25002	23590	157708	26958	1063682	46713	109241	0	0	8173	550173	0	0
2024-09-15 23:22:47			0	38122	0	0	0	25012	23600	157744	27345	1063691	46714	109245	0	0	8173	549790	0	0
2024-09-15 23:23:47			0	38124	0	0	0	24997	23590	157772	26982	1063762	46702	109239	0	0	8173	549743	0	0
2024-09-15 23:24:47			0	38124	0	0	0	25010	23600	157748	26949	1063700	46693	109244	0	0	8173	549712	0	0
2024-09-15 23:25:47			0	38120	0	0	0	24997	23600	157712	27256	1063691	46714	109239	0	0	8173	549868	0	0
2024-09-15 23:26:47			0	38132	0	0	0	25002	23590	157680	27197	1063656	46713	109241	0	0	8174	549431	0	0
2024-09-15 23:27:47			0	38132	0	0	0	25005	23590	157676	27308	1063602	46702	109242	0	0	8174	549431	0	0
2024-09-15 23:28:47			0	38146	0	0	0	24999	23600	157660	27422	1063718	46692	109240	0	0	8175	548853	0	0
2024-09-15 23:29:47			0	38152	0	0	0	24997	23590	157672	27279	1063736	46702	109239	0	0	8175	548650	0	0
2024-09-15 23:30:47			0	38158	0	0	0	24989	23600	157748	27046	1063718	46703	109236	0	0	8175	548385	0	0
2024-09-15 23:31:47			0	38128	0	0	0	24994	23600	157704	27230	1063718	46714	109238	0	0	8174	549556	0	0
2024-09-15 23:32:47			0	38125	0	0	0	24997	23590	157720	26965	1063709	46702	109239	0	0	8173	549704	0	0
2024-09-15 23:33:47			0	38121	0	0	0	24997	23600	157776	27109	1063745	46703	109239	0	0	8173	549829	0	0
2024-09-15 23:34:47			0	38122	0	0	0	25015	23590	157784	27351	1063682	46702	109246	0	0	8173	549821	0	0
2024-09-15 23:35:47			0	38138	0	0	0	25028	23590	157768	27156	1063620	46691	109251	0	0	8174	549196	0	0
2024-09-15 23:36:47			0	38143	0	0	0	25012	23590	157712	27031	1063709	46702	109245	0	0	8174	549001	0	0
2024-09-15 23:37:47			0	38126	0	0	0	25002	23590	157732	26790	1063682	46713	109241	0	0	8173	549665	0	0
2024-09-15 23:38:47			0	38140	0	0	0	25002	23600	157608	26939	1063673	46715	109241	0	0	8174	549088	0	0
2024-09-15 23:39:47			0	38147	0	0	0	25007	23600	157764	27085	1063665	46692	109243	0	0	8174	548814	0	0
2024-09-15 23:40:47			0	38127	0	0	0	24994	23600	157860	27137	1063638	46703	109238	0	0	8174	549595	0	0
2024-09-15 23:41:47			0	38140	0	0	0	24999	23600	157784	26953	1063665	46692	109240	0	0	8174	549088	0	0
2024-09-15 23:42:47			0	38117	0	0	0	24984	23590	157844	27242	1063656	46702	109234	0	0	8173	550016	0	0
2024-09-15 23:43:47			0	38123	0	0	0	24981	23590	157836	27274	1063682	46702	109233	0	0	8173	549782	0	0
2024-09-15 23:44:47			0	38114	0	0	0	24968	23590	157872	27045	1063620	46702	109228	0	0	8173	550134	0	0
2024-09-15 23:45:47			0	38101	0	0	0	24986	23590	157856	26982	1063656	46691	109235	0	0	8172	550642	0	0
2024-09-15 23:46:47			0	38099	0	0	0	24979	23590	157876	27175	1063566	46691	109232	0	0	8172	550720	0	0
2024-09-15 23:47:47			0	38101	0	0	0	24981	23590	157896	27369	1063593	46691	109233	0	0	8172	550642	0	0
2024-09-15 23:48:47			0	38102	0	0	0	24974	23580	157828	27393	1063611	46701	109230	0	0	8172	550634	0	0
2024-09-15 23:49:47			0	38104	0	0	0	24979	23580	157908	27260	1063584	46712	109232	0	0	8172	550556	0	0
2024-09-15 23:50:47			0	38104	0	0	0	24974	23580	157860	27111	1063602	46701	109230	0	0	8172	550556	0	0
2024-09-15 23:51:47			0	38092	0	0	0	24974	23580	157948	27339	1063602	46690	109230	0	0	8172	551025	0	0
2024-09-15 23:52:47			0	38106	0	0	0	24974	23580	157916	27118	1063575	46701	109230	0	0	8173	550477	0	0
2024-09-15 23:53:47			0	38092	0	0	0	24968	23570	157964	27007	1063593	46689	109228	0	0	8172	551056	0	0
2024-09-15 23:54:47			0	38092	0	0	0	24963	23570	157912	26837	1063610	46711	109226	0	0	8172	551056	0	0
2024-09-15 23:55:47			0	38072	0	0	0	24953	23570	157944	27189	1063584	46711	109222	0	0	8171	551839	0	0
2024-09-15 23:56:47			0	38059	0	0	0	24961	23570	158072	27033	1063593	46700	109225	0	0	8170	552348	0	0
2024-09-15 23:57:47			0	38083	0	0	0	24976	23560	158060	27370	1063547	46699	109231	0	0	8171	551439	0	0
2024-09-15 23:58:47			0	38075	0	0	0	24979	23560	157932	26974	1063494	46699	109232	0	0	8171	551752	0	0
2024-09-15 23:59:47			0	38076	0	0	0	24971	23570	158084	27177	1063584	46722	109229	0	0	8171	551682	0	0
2024-09-16 00:00:47			0	38059	0	0	0	24963	23570	158064	26852	1063539	46700	109226	0	0	8170	552348	0	0
2024-09-16 00:01:47			0	38062	0	0	0	24961	23560	158100	27187	1063538	46699	109225	0	0	8170	552261	0	0
2024-09-16 00:02:47			0	38073	0	0	0	24953	23560	158188	26968	1063485	46688	109222	0	0	8171	551830	0	0
2024-09-16 00:03:47			0	38032	0	0	0	24961	23560	158232	26996	1063574	46699	109225	0	0	8168	553437	0	0
2024-09-16 00:04:47			0	38035	0	0	0	24950	23560	158104	27157	1063458	46688	109221	0	0	8169	553320	0	0
2024-09-16 00:05:47			0	38046	0	0	0	24976	23560	158080	26975	1063521	46688	109231	0	0	8169	552888	0	0
2024-09-16 00:06:47			0	38036	0	0	0	24971	23570	158076	27064	1063530	46689	109229	0	0	8168	553249	0	0
2024-09-16 00:07:47			0	38065	0	0	0	24989	23550	158136	27109	1063530	46698	109236	0	0	8170	552175	0	0
2024-09-16 00:08:47			0	38069	0	0	0	24994	23560	158060	27362	1063521	46710	109238	0	0	8170	551987	0	0
2024-09-16 00:09:47			0	38055	0	0	0	24986	23570	157976	27357	1063610	46700	109235	0	0	8169	552504	0	0
2024-09-16 00:10:47			0	38072	0	0	0	24981	23560	158004	27277	1063601	46710	109233	0	0	8170	551870	0	0
2024-09-16 00:11:47			0	38065	0	0	0	24968	23560	158044	27322	1063512	46699	109228	0	0	8170	552144	0	0
2024-09-16 00:12:47			0	38092	0	0	0	24974	23570	157972	27178	1063530	46700	109230	0	0	8172	551056	0	0
2024-09-16 00:13:47			0	38091	0	0	0	24958	23560	157852	27161	1063592	46688	109224	0	0	8172	551126	0	0
2024-09-16 00:14:47			0	38086	0	0	0	24950	23560	157980	27300	1063512	46699	109221	0	0	8172	551322	0	0
2024-09-16 00:15:47			0	38087	0	0	0	24958	23560	157972	27537	1063440	46699	109224	0	0	8172	551282	0	0
2024-09-16 00:16:47			0	38084	0	0	0	24948	23550	158040	27123	1063530	46687	109220	0	0	8172	551431	0	0
2024-09-16 00:17:47			0	38070	0	0	0	24937	23550	158012	27196	1063530	46698	109216	0	0	8171	551979	0	0
2024-09-16 00:18:47			0	38045	0	0	0	24945	23560	158068	27576	1063458	46699	109219	0	0	8169	552928	0	0
2024-09-16 00:19:47			0	38040	0	0	0	24940	23550	158156	27409	1063503	46698	109217	0	0	8169	553155	0	0
2024-09-16 00:20:47			0	38011	0	0	0	24955	23550	158231	27369	1063387	46686	109223	0	0	8167	554293	0	0
2024-09-16 00:21:47			0	38007	0	0	0	24963	23550	158427	27547	1063494	46686	109226	0	0	8167	554450	0	0
2024-09-16 00:22:47			0	37980	0	0	0	24958	23550	158439	27078	1063423	46698	109224	0	0	8165	555511	0	0
2024-09-16 00:23:47			0	37988	0	0	0	24955	23540	158443	27469	1063431	46697	109223	0	0	8166	555227	0	0
2024-09-16 00:24:47			0	38022	0	0	0	24966	23550	158335	27237	1063449	46687	109227	0	0	8168	553861	0	0
2024-09-16 00:25:47			0	38052	0	0	0	24955	23540	158200	27182	1063476	46686	109223	0	0	8170	552715	0	0
2024-09-16 00:26:47			0	38047	0	0	0	24961	23550	157992	27142	1063414	46697	109225	0	0	8169	552880	0	0
2024-09-16 00:27:47			0	38063	0	0	0	24958	23550	158020	27301	1063449	46709	109224	0	0	8170	552253	0	0
2024-09-16 00:28:47			0	38076	0	0	0	24950	23550	158044	27228	1063467	46719	109221	0	0	8171	551744	0	0
2024-09-16 00:29:47			0	38076	0	0	0	24948	23550	157988	27312	1063440	46686	109220	0	0	8171	551744	0	0
2024-09-16 00:30:47			0	38063	0	0	0	24940	23550	157984	27234	1063467	46697	109217	0	0	8170	552253	0	0
2024-09-16 00:31:47			0	38066	0	0	0	24942	23540	158100	27183	1063422	46697	109218	0	0	8171	552167	0	0
2024-09-16 00:32:47			0	38064	0	0	0	24942	23540	158084	27270	1063378	46697	109218	0	0	8170	552245	0	0
2024-09-16 00:33:47			0	38040	0	0	0	24953	23540	158072	26894	1063458	46697	109222	0	0	8169	553186	0	0
2024-09-16 00:34:47			0	38057	0	0	0	24935	23540	158184	27140	1063485	46686	109215	0	0	8170	552519	0	0
2024-09-16 00:35:47			0	38037	0	0	0	24940	23540	158108	27298	1063476	46697	109217	0	0	8169	553303	0	0
2024-09-16 00:36:47			0	38039	0	0	0	24924	23530	158132	27208	1063351	46695	109211	0	0	8169	553256	0	0
2024-09-16 00:37:47			0	38021	0	0	0	24911	23540	158239	27223	1063342	46697	109206	0	0	8168	553931	0	0
2024-09-16 00:38:47			0	38022	0	0	0	24916	23530	158127	27170	1063387	46696	109208	0	0	8168	553923	0	0
2024-09-16 00:39:47			0	38033	0	0	0	24909	23530	158224	27083	1063351	46684	109205	0	0	8169	553491	0	0
2024-09-16 00:40:47			0	38023	0	0	0	24914	23530	158192	27194	1063324	46695	109207	0	0	8169	553884	0	0
2024-09-16 00:41:47			0	38027	0	0	0	24914	23530	158251	27374	1063306	46685	109207	0	0	8169	553727	0	0
2024-09-16 00:42:47			0	38023	0	0	0	24901	23520	158207	27185	1063288	46695	109202	0	0	8169	553915	0	0
2024-09-16 00:43:47			0	38019	0	0	0	24903	23520	158255	27254	1063262	46673	109203	0	0	8168	554072	0	0
2024-09-16 00:44:47			0	38018	0	0	0	24906	23520	158248	27161	1063262	46695	109204	0	0	8168	554111	0	0
2024-09-16 00:45:47			0	37997	0	0	0	24896	23520	158367	27057	1063253	46672	109200	0	0	8167	554936	0	0
2024-09-16 00:46:47			0	37987	0	0	0	24901	23510	158407	27497	1063208	46693	109202	0	0	8167	555360	0	0
2024-09-16 00:47:47			0	37962	0	0	0	24898	23510	158455	27253	1063235	46682	109201	0	0	8165	556344	0	0
2024-09-16 00:48:47			0	37960	0	0	0	24885	23510	158395	27085	1063208	46693	109196	0	0	8165	556423	0	0
2024-09-16 00:49:47			0	37958	0	0	0	24919	23510	158567	27379	1063235	46682	109209	0	0	8165	556501	0	0
2024-09-16 00:50:47			0	37964	0	0	0	24929	23510	158607	27428	1063244	46672	109213	0	0	8165	556265	0	0
2024-09-16 00:51:47			0	37964	0	0	0	24914	23510	158423	27435	1063297	46694	109207	0	0	8165	556265	0	0
2024-09-16 00:52:47			0	37974	0	0	0	24914	23510	158387	27241	1063244	46694	109207	0	0	8166	555872	0	0
2024-09-16 00:53:47			0	37972	0	0	0	24901	23510	158403	27177	1063271	46706	109202	0	0	8166	555950	0	0
2024-09-16 00:54:47			0	37989	0	0	0	24896	23500	158347	27265	1063217	46692	109200	0	0	8167	555313	0	0
2024-09-16 00:55:47			0	37985	0	0	0	24922	23500	158359	27325	1063217	46681	109210	0	0	8166	555470	0	0
2024-09-16 00:56:47			0	37986	0	0	0	24911	23500	158415	27294	1063226	46693	109206	0	0	8166	555431	0	0
2024-09-16 00:57:47			0	37979	0	0	0	24919	23500	158487	27206	1063279	46693	109209	0	0	8166	555706	0	0
2024-09-16 00:58:47			0	37973	0	0	0	24922	23500	158455	27163	1063226	46693	109210	0	0	8165	555942	0	0
2024-09-16 00:59:47			0	37971	0	0	0	24911	23500	158351	27246	1063253	46693	109206	0	0	8165	556021	0	0
2024-09-16 01:00:47			0	37966	0	0	0	24909	23500	158543	27149	1063306	46715	109205	0	0	8165	556218	0	0
2024-09-16 01:01:47			0	37977	0	0	0	24898	23500	158451	27050	1063253	46705	109201	0	0	8166	555785	0	0
2024-09-16 01:02:47			0	37972	0	0	0	24885	23500	158343	27027	1063279	46693	109196	0	0	8166	555982	0	0
2024-09-16 01:03:47			0	37984	0	0	0	24880	23500	158347	27144	1063253	46682	109194	0	0	8167	555509	0	0
2024-09-16 01:04:47			0	37961	0	0	0	24885	23500	158403	27090	1063253	46682	109196	0	0	8165	556414	0	0
2024-09-16 01:05:47			0	37971	0	0	0	24880	23500	158383	27339	1063226	46671	109194	0	0	8166	556021	0	0
2024-09-16 01:06:47			0	37957	0	0	0	24875	23500	158515	27180	1063190	46692	109192	0	0	8165	556572	0	0
2024-09-16 01:07:47			0	37941	0	0	0	24877	23500	158595	27242	1063163	46681	109193	0	0	8164	557202	0	0
2024-09-16 01:08:47			0	37932	0	0	0	24898	23490	158675	27526	1063172	46680	109201	0	0	8163	557588	0	0
2024-09-16 01:09:47			0	37918	0	0	0	24914	23480	158607	27277	1063136	46691	109207	0	0	8162	558171	0	0
2024-09-16 01:10:47			0	37910	0	0	0	24916	23490	158655	27152	1063181	46692	109208	0	0	8162	558456	0	0
2024-09-16 01:11:47			0	37908	0	0	0	24922	23490	158619	27150	1063261	46692	109210	0	0	8161	558535	0	0
2024-09-16 01:12:47			0	37913	0	0	0	24911	23500	158707	27173	1063163	46681	109206	0	0	8162	558306	0	0
2024-09-16 01:13:47			0	37916	0	0	0	24906	23490	158703	27306	1063235	46692	109204	0	0	8162	558219	0	0
2024-09-16 01:14:47			0	37935	0	0	0	24883	23500	158595	27301	1063244	46703	109195	0	0	8164	557438	0	0
2024-09-16 01:15:47			0	37925	0	0	0	24893	23500	158603	27486	1063226	46693	109199	0	0	8163	557833	0	0
2024-09-16 01:16:47			0	37944	0	0	0	24883	23490	158567	27241	1063226	46680	109195	0	0	8164	557115	0	0
2024-09-16 01:17:47			0	37949	0	0	0	24877	23500	158515	27348	1063190	46692	109193	0	0	8165	556887	0	0
2024-09-16 01:18:47			0	37938	0	0	0	24880	23490	158535	27274	1063145	46691	109194	0	0	8164	557352	0	0
2024-09-16 01:19:47			0	37940	0	0	0	24870	23490	158679	27450	1063154	46681	109190	0	0	8164	557273	0	0
2024-09-16 01:20:47			0	37932	0	0	0	24851	23490	158575	27114	1063145	46680	109183	0	0	8164	557588	0	0
2024-09-16 01:21:47			0	37916	0	0	0	24854	23490	158707	27466	1063172	46691	109184	0	0	8163	558219	0	0
2024-09-16 01:22:47			0	37904	0	0	0	24846	23470	158711	27293	1063092	46678	109181	0	0	8162	558755	0	0
2024-09-16 01:23:47			0	37889	0	0	0	24864	23480	158735	27405	1063021	46668	109188	0	0	8161	559316	0	0
2024-09-16 01:24:47			0	37878	0	0	0	24880	23470	158887	27345	1063083	46689	109194	0	0	8160	559782	0	0
2024-09-16 01:25:47			0	37851	0	0	0	24870	23470	158871	27483	1063110	46678	109190	0	0	8159	560850	0	0
2024-09-16 01:26:47			0	37847	0	0	0	24867	23470	158975	27331	1063056	46689	109189	0	0	8159	561008	0	0
2024-09-16 01:27:47			0	37843	0	0	0	24859	23470	158943	27325	1063056	46700	109186	0	0	8159	561166	0	0
2024-09-16 01:28:47			0	37863	0	0	0	24867	23460	158855	27010	1063011	46677	109189	0	0	8160	560407	0	0
2024-09-16 01:29:47			0	37843	0	0	0	24870	23470	158895	27346	1063029	46689	109190	0	0	8158	561166	0	0
2024-09-16 01:30:47			0	37860	0	0	0	24875	23470	158879	27277	1063118	46678	109192	0	0	8159	560494	0	0
2024-09-16 01:31:47			0	37853	0	0	0	24862	23470	158875	27201	1063083	46678	109187	0	0	8159	560771	0	0
2024-09-16 01:32:47			0	37860	0	0	0	24862	23460	158791	27126	1063038	46699	109187	0	0	8160	560525	0	0
2024-09-16 01:33:47			0	37865	0	0	0	24857	23460	158895	27511	1062994	46678	109185	0	0	8160	560327	0	0
2024-09-16 01:34:47			0	37856	0	0	0	24862	23470	158931	27317	1063029	46667	109187	0	0	8159	560652	0	0
2024-09-16 01:35:47			0	37869	0	0	0	24864	23450	158815	27097	1062976	46687	109188	0	0	8160	560201	0	0
2024-09-16 01:36:47			0	37867	0	0	0	24859	23470	158835	27379	1063056	46678	109186	0	0	8160	560217	0	0
2024-09-16 01:37:47			0	37866	0	0	0	24851	23460	158851	27360	1063038	46699	109183	0	0	8160	560288	0	0
2024-09-16 01:38:47			0	37866	0	0	0	24859	23470	158855	27145	1063029	46700	109186	0	0	8160	560256	0	0
2024-09-16 01:39:47			0	37853	0	0	0	24849	23460	158911	27213	1063038	46677	109182	0	0	8159	560802	0	0
2024-09-16 01:40:47			0	37863	0	0	0	24854	23460	158831	27293	1062994	46689	109184	0	0	8160	560407	0	0
2024-09-16 01:41:47			0	37856	0	0	0	24867	23460	158919	27282	1063011	46699	109189	0	0	8159	560683	0	0
2024-09-16 01:42:47			0	37849	0	0	0	24859	23450	158895	27559	1063002	46676	109186	0	0	8159	560992	0	0
2024-09-16 01:43:47			0	37845	0	0	0	24880	23460	158975	27493	1063065	46688	109194	0	0	8158	561119	0	0
2024-09-16 01:44:47			0	37845	0	0	0	24864	23460	158931	27135	1063011	46699	109188	0	0	8159	561119	0	0
2024-09-16 01:45:47			0	37832	0	0	0	24864	23450	158911	27197	1063029	46676	109188	0	0	8158	561665	0	0
2024-09-16 01:46:47			0	37859	0	0	0	24872	23460	158887	27137	1063011	46688	109191	0	0	8159	560565	0	0
2024-09-16 01:47:47			0	37866	0	0	0	24864	23460	158903	27272	1063011	46688	109188	0	0	8160	560288	0	0
2024-09-16 01:48:47			0	37847	0	0	0	24864	23450	158895	27064	1063083	46676	109188	0	0	8159	561071	0	0
2024-09-16 01:49:47			0	37857	0	0	0	24854	23460	158843	27454	1063092	46688	109184	0	0	8160	560644	0	0
2024-09-16 01:50:47			0	37872	0	0	0	24838	23450	158807	27261	1063002	46698	109178	0	0	8161	560082	0	0
2024-09-16 01:51:47			0	37883	0	0	0	24844	23450	158835	26902	1063002	46676	109180	0	0	8161	559647	0	0
2024-09-16 01:52:47			0	37867	0	0	0	24846	23450	158891	27218	1063056	46676	109181	0	0	8160	560280	0	0
2024-09-16 01:53:47			0	37851	0	0	0	24836	23450	158931	27379	1062895	46676	109177	0	0	8159	560913	0	0
2024-09-16 01:54:47			0	37846	0	0	0	24844	23440	158903	27249	1062860	46698	109180	0	0	8159	561142	0	0
2024-09-16 01:55:47			0	37827	0	0	0	24838	23460	158879	27223	1062931	46688	109178	0	0	8158	561831	0	0
2024-09-16 01:56:47			0	37820	0	0	0	24846	23450	159091	26953	1062949	46687	109181	0	0	8157	562140	0	0
2024-09-16 01:57:47			0	37832	0	0	0	24828	23440	159011	27171	1062984	46686	109174	0	0	8158	561696	0	0
2024-09-16 01:58:47			0	37817	0	0	0	24828	23440	159119	27429	1062940	46687	109174	0	0	8158	562291	0	0
2024-09-16 01:59:47			0	37825	0	0	0	24828	23420	159119	27163	1062868	46695	109174	0	0	8158	562037	0	0
2024-09-16 02:00:47			0	37818	0	0	0	24828	23440	159099	27277	1062931	46697	109174	0	0	8158	562251	0	0
2024-09-16 02:01:47			0	37803	0	0	0	24831	23440	159063	27313	1062931	46686	109175	0	0	8157	562846	0	0
2024-09-16 02:02:47			0	37804	0	0	0	24825	23440	159087	27253	1062878	46697	109173	0	0	8157	562806	0	0
2024-09-16 02:03:47			0	37811	0	0	0	24828	23430	159187	27281	1062841	46675	109174	0	0	8157	562560	0	0
2024-09-16 02:04:47			0	37791	0	0	0	24823	23420	159195	27274	1062823	46685	109172	0	0	8156	563385	0	0
2024-09-16 02:05:47			0	37786	0	0	0	24823	23430	159143	27324	1062815	46686	109172	0	0	8156	563552	0	0
2024-09-16 02:06:47			0	37787	0	0	0	24818	23430	159243	27171	1062815	46675	109170	0	0	8156	563512	0	0
2024-09-16 02:07:47			0	37792	0	0	0	24815	23420	159175	27229	1062823	46674	109169	0	0	8156	563345	0	0
2024-09-16 02:08:47			0	37794	0	0	0	24794	23420	159211	27279	1062761	46684	109161	0	0	8157	563266	0	0
2024-09-16 02:09:47			0	37793	0	0	0	24799	23420	159167	27213	1062815	46695	109163	0	0	8157	563306	0	0
2024-09-16 02:10:47			0	37776	0	0	0	24805	23400	159251	27585	1062707	46682	109165	0	0	8155	564044	0	0
2024-09-16 02:11:47			0	37803	0	0	0	24818	23410	159335	27500	1062806	46695	109170	0	0	8157	562941	0	0
2024-09-16 02:12:47			0	37782	0	0	0	24831	23410	159303	27367	1062779	46663	109175	0	0	8155	563774	0	0
2024-09-16 02:13:47			0	37772	0	0	0	24836	23410	159243	27630	1062797	46683	109177	0	0	8155	564171	0	0
2024-09-16 02:14:47			0	37785	0	0	0	24828	23410	159303	27410	1062779	46673	109174	0	0	8156	563655	0	0
2024-09-16 02:15:47			0	37766	0	0	0	24828	23410	159263	27362	1062823	46683	109174	0	0	8154	564410	0	0
2024-09-16 02:16:47			0	37773	0	0	0	24805	23400	159187	27173	1062779	46693	109165	0	0	8155	564163	0	0
2024-09-16 02:17:47			0	37784	0	0	0	24805	23410	159247	27230	1062743	46683	109165	0	0	8156	563695	0	0
2024-09-16 02:18:47			0	37781	0	0	0	24805	23400	159323	27372	1062805	46693	109165	0	0	8156	563845	0	0
2024-09-16 02:19:47			0	37768	0	0	0	24799	23390	159347	26946	1062716	46682	109163	0	0	8155	564393	0	0
2024-09-16 02:20:47			0	37773	0	0	0	24812	23410	159403	27327	1062779	46663	109168	0	0	8155	564131	0	0
2024-09-16 02:21:47			0	37773	0	0	0	24802	23390	159315	27436	1062770	46682	109164	0	0	8155	564195	0	0
2024-09-16 02:22:47			0	37762	0	0	0	24799	23400	159463	27424	1062779	46682	109163	0	0	8155	564600	0	0
2024-09-16 02:23:47			0	37764	0	0	0	24776	23390	159423	27381	1062716	46682	109154	0	0	8155	564552	0	0
2024-09-16 02:24:47			0	37762	0	0	0	24799	23390	159443	27550	1062796	46660	109163	0	0	8155	564632	0	0
2024-09-16 02:25:47			0	37758	0	0	0	24797	23380	159375	27409	1062671	46680	109162	0	0	8154	564823	0	0
2024-09-16 02:26:47			0	37756	0	0	0	24805	23390	159547	27383	1062761	46670	109165	0	0	8154	564870	0	0
2024-09-16 02:27:47			0	37753	0	0	0	24810	23380	159499	27538	1062663	46659	109167	0	0	8154	565021	0	0
2024-09-16 02:28:47			0	37772	0	0	0	24797	23390	159539	27625	1062761	46660	109162	0	0	8155	564235	0	0
2024-09-16 02:29:47			0	37774	0	0	0	24797	23380	159411	27343	1062752	46680	109162	0	0	8155	564187	0	0
2024-09-16 02:30:47			0	37752	0	0	0	24797	23380	159487	27383	1062752	46669	109162	0	0	8154	565061	0	0
2024-09-16 02:31:47			0	37749	0	0	0	24786	23400	159435	27218	1062725	46682	109158	0	0	8154	565117	0	0
2024-09-16 02:32:47			0	37748	0	0	0	24792	23390	159475	27616	1062734	46670	109160	0	0	8154	565188	0	0
2024-09-16 02:33:47			0	37755	0	0	0	24797	23390	159515	27639	1062734	46681	109162	0	0	8154	564910	0	0
2024-09-16 02:34:47			0	37738	0	0	0	24799	23380	159447	27646	1062698	46680	109163	0	0	8153	565618	0	0
2024-09-16 02:35:47			0	37751	0	0	0	24789	23380	159503	27230	1062671	46669	109159	0	0	8154	565101	0	0
2024-09-16 02:36:47			0	37733	0	0	0	24794	23380	159487	27459	1062725	46669	109161	0	0	8153	565817	0	0
2024-09-16 02:37:47			0	37728	0	0	0	24799	23390	159503	27209	1062707	46670	109163	0	0	8153	565984	0	0
2024-09-16 02:38:47			0	37725	0	0	0	24792	23390	159447	27353	1062707	46670	109160	0	0	8153	566104	0	0
2024-09-16 02:39:47			0	37733	0	0	0	24797	23380	159543	27402	1062752	46680	109162	0	0	8153	565817	0	0
2024-09-16 02:40:47			0	37732	0	0	0	24805	23390	159519	27436	1062707	46681	109165	0	0	8153	565825	0	0
2024-09-16 02:41:47			0	37725	0	0	0	24797	23380	159563	27585	1062725	46680	109162	0	0	8152	566135	0	0
2024-09-16 02:42:47			0	37716	0	0	0	24799	23380	159615	27464	1062689	46680	109163	0	0	8152	566494	0	0
2024-09-16 02:43:47			0	37724	0	0	0	24805	23370	159599	27530	1062680	46669	109165	0	0	8152	566207	0	0
2024-09-16 02:44:47			0	37718	0	0	0	24802	23380	159691	27331	1062663	46669	109164	0	0	8152	566414	0	0
2024-09-16 02:45:47			0	37729	0	0	0	24805	23380	159655	27319	1062725	46669	109165	0	0	8152	565976	0	0
2024-09-16 02:46:47			0	37724	0	0	0	24805	23380	159651	27554	1062671	46691	109165	0	0	8152	566175	0	0
2024-09-16 02:47:47			0	37718	0	0	0	24812	23380	159643	27351	1062716	46691	109168	0	0	8152	566414	0	0
2024-09-16 02:48:47			0	37723	0	0	0	24810	23380	159547	27386	1062698	46680	109167	0	0	8152	566215	0	0
2024-09-16 02:49:47			0	37705	0	0	0	24802	23380	159675	27253	1062725	46680	109164	0	0	8151	566932	0	0
2024-09-16 02:50:47			0	37712	0	0	0	24812	23390	159591	27069	1062707	46681	109168	0	0	8151	566621	0	0
2024-09-16 02:51:47			0	37723	0	0	0	24810	23390	159635	27152	1062796	46682	109167	0	0	8152	566183	0	0
2024-09-16 02:52:47			0	37728	0	0	0	24797	23390	159475	27223	1062734	46670	109162	0	0	8153	565984	0	0
2024-09-16 02:53:47			0	37742	0	0	0	24802	23390	159471	27358	1062761	46670	109164	0	0	8153	565427	0	0
2024-09-16 02:54:47			0	37752	0	0	0	24797	23390	159471	27144	1062734	46670	109162	0	0	8154	565029	0	0
2024-09-16 02:55:47			0	37758	0	0	0	24805	23380	159375	27296	1062671	46669	109165	0	0	8154	564823	0	0
2024-09-16 02:56:47			0	37747	0	0	0	24807	23390	159379	27203	1062734	46681	109166	0	0	8154	565228	0	0
2024-09-16 02:57:47			0	37752	0	0	0	24810	23380	159395	27036	1062698	46680	109167	0	0	8154	565061	0	0
2024-09-16 02:58:47			0	37762	0	0	0	24805	23390	159363	27307	1062734	46660	109165	0	0	8154	564632	0	0
2024-09-16 02:59:47			0	37766	0	0	0	24812	23380	159483	27279	1062752	46680	109168	0	0	8155	564505	0	0
2024-09-16 03:00:47			0	37768	0	0	0	24812	23380	159363	27417	1062716	46680	109168	0	0	8155	564425	0	0
2024-09-16 03:01:47			0	37751	0	0	0	24818	23380	159459	27377	1062778	46680	109170	0	0	8154	565101	0	0
2024-09-16 03:02:47			0	37763	0	0	0	24815	23390	159295	27329	1062716	46671	109169	0	0	8154	564592	0	0
2024-09-16 03:03:47			0	37749	0	0	0	24799	23380	159383	27320	1062752	46680	109163	0	0	8154	565180	0	0
2024-09-16 03:04:47			0	37767	0	0	0	24807	23390	159467	27017	1062761	46681	109166	0	0	8155	564433	0	0
2024-09-16 03:05:47			0	37738	0	0	0	24802	23390	159451	27357	1062743	46682	109164	0	0	8153	565586	0	0
2024-09-16 03:06:47			0	37767	0	0	0	24799	23390	159471	27112	1062743	46671	109163	0	0	8155	564433	0	0
2024-09-16 03:07:47			0	37752	0	0	0	24792	23390	159359	27225	1062770	46671	109160	0	0	8154	565029	0	0
2024-09-16 03:08:47			0	37755	0	0	0	24792	23390	159447	27294	1062707	46692	109160	0	0	8154	564910	0	0
2024-09-16 03:09:47			0	37762	0	0	0	24776	23390	159427	27118	1062680	46681	109154	0	0	8155	564632	0	0
2024-09-16 03:10:47			0	37761	0	0	0	24779	23390	159367	27497	1062707	46681	109155	0	0	8155	564671	0	0
2024-09-16 03:11:47			0	37752	0	0	0	24779	23380	159371	27433	1062698	46669	109155	0	0	8154	565061	0	0
2024-09-16 03:12:47			0	37774	0	0	0	24781	23380	159307	27666	1062671	46659	109156	0	0	8156	564187	0	0
2024-09-16 03:13:47			0	37780	0	0	0	24781	23380	159339	27410	1062716	46669	109156	0	0	8156	563949	0	0
2024-09-16 03:14:47			0	37755	0	0	0	24774	23380	159347	27081	1062671	46659	109153	0	0	8155	564942	0	0
2024-09-16 03:15:47			0	37755	0	0	0	24771	23380	159407	27357	1062645	46669	109152	0	0	8155	564942	0	0
2024-09-16 03:16:47			0	37761	0	0	0	24771	23370	159451	27128	1062627	46669	109152	0	0	8155	564735	0	0
2024-09-16 03:17:47			0	37745	0	0	0	24774	23380	159591	27246	1062636	46680	109153	0	0	8154	565340	0	0
2024-09-16 03:18:47			0	37754	0	0	0	24768	23370	159475	27284	1062591	46657	109151	0	0	8155	565013	0	0
2024-09-16 03:19:47			0	37749	0	0	0	24763	23370	159559	27305	1062573	46669	109149	0	0	8154	565212	0	0
2024-09-16 03:20:47			0	37739	0	0	0	24750	23360	159707	27197	1062546	46667	109144	0	0	8154	565642	0	0
2024-09-16 03:21:47			0	37730	0	0	0	24753	23360	159551	27398	1062582	46678	109145	0	0	8153	566000	0	0
2024-09-16 03:22:47			0	37724	0	0	0	24750	23360	159547	27274	1062609	46667	109144	0	0	8153	566239	0	0
2024-09-16 03:23:47			0	37727	0	0	0	24745	23360	159547	27038	1062573	46656	109142	0	0	8153	566119	0	0
2024-09-16 03:24:47			0	37734	0	0	0	24748	23360	159647	27294	1062546	46678	109143	0	0	8154	565841	0	0
2024-09-16 03:25:47			0	37728	0	0	0	24742	23360	159587	27251	1062529	46645	109141	0	0	8153	566079	0	0
2024-09-16 03:26:47			0	37702	0	0	0	24742	23350	159595	27286	1062591	46666	109141	0	0	8152	567147	0	0
2024-09-16 03:27:47			0	37727	0	0	0	24745	23350	159659	27175	1062502	46666	109142	0	0	8153	566151	0	0
2024-09-16 03:28:47			0	37721	0	0	0	24750	23350	159771	27216	1062475	46666	109144	0	0	8153	566390	0	0
2024-09-16 03:29:47			0	37737	0	0	0	24727	23350	159667	27573	1062475	46655	109135	0	0	8154	565753	0	0
2024-09-16 03:30:47			0	37727	0	0	0	24729	23350	159687	27234	1062475	46677	109136	0	0	8154	566151	0	0
2024-09-16 03:31:47			0	37698	0	0	0	24735	23330	159703	27498	1062395	46665	109138	0	0	8152	567370	0	0
2024-09-16 03:32:47			0	37713	0	0	0	24742	23330	159727	27364	1062421	46665	109141	0	0	8152	566772	0	0
2024-09-16 03:33:47			0	37695	0	0	0	24737	23330	159787	27244	1062395	46675	109139	0	0	8151	567490	0	0
2024-09-16 03:34:47			0	37709	0	0	0	24732	23330	159875	27189	1062421	46675	109137	0	0	8152	566932	0	0
2024-09-16 03:35:47			0	37688	0	0	0	24716	23330	159951	27128	1062439	46665	109131	0	0	8151	567769	0	0
2024-09-16 03:36:47			0	37683	0	0	0	24722	23340	159891	27242	1062430	46675	109133	0	0	8151	567937	0	0
2024-09-16 03:37:47			0	37689	0	0	0	24724	23330	159915	26920	1062395	46665	109134	0	0	8151	567729	0	0
2024-09-16 03:38:47			0	37668	0	0	0	24716	23330	159871	27149	1062359	46642	109131	0	0	8150	568567	0	0
2024-09-16 03:39:47			0	37677	0	0	0	24722	23320	159927	27460	1062394	46651	109133	0	0	8151	568240	0	0
2024-09-16 03:40:47			0	37677	0	0	0	24711	23310	159963	27173	1062332	46663	109129	0	0	8151	568272	0	0
2024-09-16 03:41:47			0	37642	0	0	0	24703	23320	159919	27362	1062314	46663	109126	0	0	8149	569638	0	0
2024-09-16 03:42:47			0	37663	0	0	0	24693	23320	160011	27150	1062341	46663	109122	0	0	8150	568799	0	0
2024-09-16 03:43:47			0	37672	0	0	0	24693	23320	159947	27015	1062288	46663	109122	0	0	8151	568439	0	0
2024-09-16 03:44:47			0	37651	0	0	0	24709	23310	160027	27388	1062269	46663	109128	0	0	8149	569310	0	0
2024-09-16 03:45:47			0	37666	0	0	0	24693	23300	160067	27241	1062251	46671	109122	0	0	8150	568743	0	0
2024-09-16 03:46:47			0	37644	0	0	0	24696	23310	160055	27443	1062296	46663	109123	0	0	8149	569590	0	0
2024-09-16 03:47:47			0	37639	0	0	0	24701	23300	159999	27483	1062287	46672	109125	0	0	8149	569822	0	0
2024-09-16 03:48:47			0	37646	0	0	0	24690	23310	160123	27251	1062296	46663	109121	0	0	8149	569510	0	0
2024-09-16 03:49:47			0	37659	0	0	0	24693	23310	160035	27248	1062296	46663	109122	0	0	8150	568990	0	0
2024-09-16 03:50:47			0	37653	0	0	0	24685	23310	160055	27248	1062296	46663	109119	0	0	8150	569230	0	0
2024-09-16 03:51:47			0	37654	0	0	0	24688	23300	159991	27402	1062225	46671	109120	0	0	8150	569222	0	0
2024-09-16 03:52:47			0	37652	0	0	0	24677	23290	159971	27443	1062216	46661	109116	0	0	8150	569334	0	0
2024-09-16 03:53:47			0	37650	0	0	0	24683	23290	160051	27549	1062162	46671	109118	0	0	8149	569414	0	0
2024-09-16 03:54:47			0	37644	0	0	0	24680	23290	159923	27209	1062242	46661	109117	0	0	8149	569654	0	0
2024-09-16 03:55:47			0	37653	0	0	0	24677	23290	159991	27098	1062216	46661	109116	0	0	8150	569294	0	0
2024-09-16 03:56:47			0	37649	0	0	0	24675	23290	160007	27298	1062233	46671	109115	0	0	8150	569454	0	0
2024-09-16 03:57:47			0	37652	0	0	0	24680	23280	159967	27202	1062198	46660	109117	0	0	8150	569366	0	0
2024-09-16 03:58:47			0	37648	0	0	0	24672	23290	159895	27225	1062233	46671	109114	0	0	8150	569494	0	0
2024-09-16 03:59:47			0	37642	0	0	0	24680	23290	159883	27395	1062207	46661	109117	0	0	8149	569734	0	0
2024-09-16 04:00:47			0	37646	0	0	0	24680	23280	159887	26944	1062109	46647	109117	0	0	8149	569606	0	0
2024-09-16 04:01:47			0	37654	0	0	0	24690	23280	159955	27365	1062162	46659	109121	0	0	8150	569286	0	0
2024-09-16 04:02:47			0	37647	0	0	0	24690	23280	159931	27170	1062171	46681	109121	0	0	8149	569566	0	0
2024-09-16 04:03:47			0	37644	0	0	0	24688	23280	159923	27083	1062215	46669	109120	0	0	8149	569686	0	0
2024-09-16 04:04:47			0	37666	0	0	0	24677	23280	159883	27324	1062171	46670	109116	0	0	8150	568807	0	0
2024-09-16 04:05:47			0	37670	0	0	0	24670	23270	159823	27190	1062153	46658	109113	0	0	8151	568679	0	0
2024-09-16 04:06:47			0	37656	0	0	0	24667	23270	159859	27381	1062100	46668	109112	0	0	8150	569238	0	0
2024-09-16 04:07:47			0	37665	0	0	0	24657	23280	159851	27405	1062135	46659	109108	0	0	8151	568847	0	0
2024-09-16 04:08:47			0	37666	0	0	0	24667	23280	159911	27265	1062109	46659	109112	0	0	8151	568807	0	0
2024-09-16 04:09:47			0	37671	0	0	0	24654	23280	159779	27168	1062135	46659	109107	0	0	8151	568607	0	0
2024-09-16 04:10:47			0	37675	0	0	0	24664	23260	159871	27298	1062001	46668	109111	0	0	8151	568511	0	0
2024-09-16 04:11:47			0	37670	0	0	0	24675	23260	159755	27367	1062108	46658	109115	0	0	8151	568711	0	0
2024-09-16 04:12:47			0	37705	0	0	0	24672	23270	159671	27554	1062117	46658	109114	0	0	8153	567282	0	0
2024-09-16 04:13:47			0	37716	0	0	0	24680	23270	159655	27133	1062100	46679	109117	0	0	8153	566844	0	0
2024-09-16 04:14:47			0	37735	0	0	0	24693	23270	159531	27407	1062144	46668	109122	0	0	8154	566087	0	0
2024-09-16 04:15:47			0	37744	0	0	0	24693	23270	159599	26993	1062198	46658	109122	0	0	8155	565729	0	0
2024-09-16 04:16:47			0	37773	0	0	0	24685	23270	159455	27651	1062117	46668	109119	0	0	8157	564575	0	0
2024-09-16 04:17:47			0	37761	0	0	0	24690	23280	159427	27500	1062135	46669	109121	0	0	8156	565020	0	0
2024-09-16 04:18:47			0	37775	0	0	0	24696	23260	159519	27585	1062135	46668	109123	0	0	8156	564527	0	0
2024-09-16 04:19:47			0	37780	0	0	0	24685	23270	159571	27769	1062233	46658	109119	0	0	8157	564297	0	0
2024-09-16 04:20:47			0	37768	0	0	0	24677	23280	159475	27576	1062162	46680	109116	0	0	8156	564742	0	0
2024-09-16 04:21:47			0	37770	0	0	0	24677	23270	159487	27197	1062180	46668	109116	0	0	8157	564694	0	0
2024-09-16 04:22:47			0	37768	0	0	0	24675	23280	159507	27287	1062162	46659	109115	0	0	8157	564742	0	0
2024-09-16 04:23:47			0	37749	0	0	0	24670	23270	159459	27343	1062100	46668	109113	0	0	8155	565530	0	0
2024-09-16 04:24:47			0	37736	0	0	0	24672	23270	159587	26979	1062126	46668	109114	0	0	8155	566047	0	0
2024-09-16 04:25:47			0	37732	0	0	0	24667	23270	159651	27239	1062144	46646	109112	0	0	8154	566206	0	0
2024-09-16 04:26:47			0	37715	0	0	0	24675	23270	159683	27486	1062064	46658	109115	0	0	8153	566884	0	0
2024-09-16 04:27:47			0	37721	0	0	0	24667	23280	159655	27171	1062135	46680	109112	0	0	8154	566613	0	0
2024-09-16 04:28:47			0	37711	0	0	0	24670	23270	159579	27717	1062091	46658	109113	0	0	8153	567043	0	0
2024-09-16 04:29:47			0	37732	0	0	0	24672	23260	159691	27322	1062135	46679	109114	0	0	8154	566238	0	0
2024-09-16 04:30:47			0	37723	0	0	0	24680	23260	159683	27402	1062108	46668	109117	0	0	8154	566597	0	0
2024-09-16 04:31:47			0	37741	0	0	0	24667	23260	159691	27218	1062126	46678	109112	0	0	8155	565880	0	0
2024-09-16 04:32:47			0	37758	0	0	0	24675	23270	159475	27421	1062117	46658	109115	0	0	8156	565172	0	0
2024-09-16 04:33:47			0	37759	0	0	0	24664	23270	159427	27360	1062091	46668	109111	0	0	8156	565132	0	0
2024-09-16 04:34:47			0	37747	0	0	0	24675	23270	159443	27365	1062064	46668	109115	0	0	8155	565609	0	0
2024-09-16 04:35:47			0	37736	0	0	0	24654	23260	159491	27220	1062073	46667	109107	0	0	8155	566079	0	0
2024-09-16 04:36:47			0	37749	0	0	0	24654	23260	159499	27352	1062028	46679	109107	0	0	8156	565561	0	0
2024-09-16 04:37:47			0	37731	0	0	0	24646	23250	159559	27407	1062037	46656	109104	0	0	8155	566310	0	0
2024-09-16 04:38:47			0	37745	0	0	0	24633	23250	159515	27493	1062037	46656	109099	0	0	8156	565752	0	0
2024-09-16 04:39:47			0	37747	0	0	0	24654	23250	159467	27222	1062064	46666	109107	0	0	8155	565673	0	0
2024-09-16 04:40:47			0	37750	0	0	0	24644	23250	159407	27348	1062028	46644	109103	0	0	8156	565553	0	0
2024-09-16 04:41:47			0	37739	0	0	0	24646	23250	159499	27329	1062001	46666	109104	0	0	8155	565991	0	0
2024-09-16 04:42:47			0	37726	0	0	0	24646	23250	159543	27071	1061984	46656	109104	0	0	8154	566509	0	0
2024-09-16 04:43:47			0	37751	0	0	0	24654	23260	159535	27088	1062046	46667	109107	0	0	8156	565482	0	0
2024-09-16 04:44:47			0	37741	0	0	0	24654	23250	159487	27479	1061975	46666	109107	0	0	8155	565912	0	0
2024-09-16 04:45:47			0	37731	0	0	0	24654	23250	159595	27353	1062055	46666	109107	0	0	8155	566310	0	0
2024-09-16 04:46:47			0	37744	0	0	0	24646	23240	159587	27152	1062046	46644	109104	0	0	8155	565824	0	0
2024-09-16 04:47:47			0	37726	0	0	0	24649	23250	159651	27341	1062001	46656	109105	0	0	8154	566509	0	0
2024-09-16 04:48:47			0	37734	0	0	0	24654	23250	159539	27322	1062028	46656	109107	0	0	8155	566190	0	0
2024-09-16 04:49:47			0	37736	0	0	0	24649	23240	159575	27358	1061957	46655	109105	0	0	8155	566142	0	0
2024-09-16 04:50:47			0	37724	0	0	0	24651	23240	159627	27400	1061992	46644	109106	0	0	8154	566621	0	0
2024-09-16 04:51:47			0	37745	0	0	0	24664	23250	159551	27265	1062028	46666	109111	0	0	8155	565752	0	0
2024-09-16 04:52:47			0	37765	0	0	0	24662	23240	159519	27215	1062072	46656	109110	0	0	8156	564988	0	0
2024-09-16 04:53:47			0	37739	0	0	0	24657	23250	159543	27436	1062028	46656	109108	0	0	8155	565991	0	0
2024-09-16 04:54:47			0	37765	0	0	0	24654	23250	159519	27580	1062037	46666	109107	0	0	8157	564957	0	0
2024-09-16 04:55:47			0	37759	0	0	0	24654	23240	159491	27213	1062046	46656	109107	0	0	8156	565227	0	0
2024-09-16 04:56:47			0	37779	0	0	0	24659	23250	159491	27355	1062064	46666	109109	0	0	8157	564400	0	0
2024-09-16 04:57:47			0	37753	0	0	0	24659	23250	159499	27088	1062028	46656	109109	0	0	8156	565434	0	0
2024-09-16 04:58:47			0	37769	0	0	0	24662	23250	159427	27183	1062001	46656	109110	0	0	8157	564798	0	0
2024-09-16 04:59:47			0	37754	0	0	0	24670	23250	159463	27012	1062090	46666	109113	0	0	8156	565394	0	0
2024-09-16 05:00:47			0	37775	0	0	0	24659	23240	159479	27085	1062010	46666	109109	0	0	8157	564591	0	0
2024-09-16 05:01:47			0	37751	0	0	0	24667	23250	159539	27216	1062037	46666	109112	0	0	8156	565514	0	0
2024-09-16 05:02:47			0	37766	0	0	0	24667	23250	159503	27324	1062108	46677	109112	0	0	8156	564917	0	0
2024-09-16 05:03:47			0	37741	0	0	0	24664	23250	159471	27547	1062037	46666	109111	0	0	8155	565912	0	0
2024-09-16 05:04:47			0	37761	0	0	0	24672	23250	159575	27332	1062064	46656	109114	0	0	8156	565116	0	0
2024-09-16 05:05:47			0	37742	0	0	0	24649	23250	159491	27332	1062037	46666	109105	0	0	8155	565872	0	0
2024-09-16 05:06:47			0	37725	0	0	0	24659	23260	159567	27322	1062019	46667	109109	0	0	8154	566517	0	0
2024-09-16 05:07:47			0	37735	0	0	0	24659	23250	159523	27187	1062064	46656	109109	0	0	8155	566151	0	0
2024-09-16 05:08:47			0	37749	0	0	0	24662	23260	159619	27492	1062073	46667	109110	0	0	8156	565561	0	0
2024-09-16 05:09:47			0	37730	0	0	0	24659	23250	159611	27364	1062064	46666	109109	0	0	8154	566350	0	0
2024-09-16 05:10:47			0	37750	0	0	0	24657	23260	159599	27396	1062126	46645	109108	0	0	8156	565522	0	0
2024-09-16 05:11:47			0	37737	0	0	0	24659	23250	159615	27215	1062064	46666	109109	0	0	8155	566071	0	0
2024-09-16 05:12:47			0	37731	0	0	0	24651	23250	159587	27239	1062001	46656	109106	0	0	8155	566310	0	0
2024-09-16 05:13:47			0	37732	0	0	0	24654	23250	159635	27090	1062010	46677	109107	0	0	8155	566270	0	0
2024-09-16 05:14:47			0	37726	0	0	0	24657	23240	159703	26967	1062010	46666	109108	0	0	8154	566541	0	0
2024-09-16 05:15:47			0	37714	0	0	0	24654	23240	159691	27391	1062046	46656	109107	0	0	8154	567019	0	0
2024-09-16 05:16:47			0	37721	0	0	0	24664	23250	159591	27157	1062037	46677	109111	0	0	8154	566708	0	0
2024-09-16 05:17:47			0	37714	0	0	0	24657	23250	159723	27227	1061975	46666	109108	0	0	8154	566987	0	0
2024-09-16 05:18:47			0	37718	0	0	0	24667	23250	159751	27045	1061975	46677	109112	0	0	8154	566828	0	0
2024-09-16 05:19:47			0	37724	0	0	0	24657	23240	159711	27138	1062072	46644	109108	0	0	8154	566621	0	0
2024-09-16 05:20:47			0	37717	0	0	0	24654	23250	159667	27225	1061921	46666	109107	0	0	8154	566868	0	0
2024-09-16 05:21:47			0	37701	0	0	0	24636	23240	159683	27156	1062046	46666	109100	0	0	8153	567537	0	0
2024-09-16 05:22:47			0	37711	0	0	0	24641	23240	159747	27152	1061957	46666	109102	0	0	8154	567139	0	0
2024-09-16 05:23:47			0	37686	0	0	0	24636	23240	159755	26986	1061912	46656	109100	0	0	8152	568136	0	0
2024-09-16 05:24:47			0	37704	0	0	0	24631	23240	159727	27281	1061939	46666	109098	0	0	8153	567418	0	0
2024-09-16 05:25:47			0	37729	0	0	0	24636	23240	159687	27031	1061957	46643	109100	0	0	8155	566421	0	0
2024-09-16 05:26:47			0	37735	0	0	0	24625	23240	159583	26934	1061957	46666	109096	0	0	8155	566182	0	0
2024-09-16 05:27:47			0	37750	0	0	0	24628	23240	159543	26890	1061939	46644	109097	0	0	8156	565585	0	0
2024-09-16 05:28:47			0	37772	0	0	0	24628	23240	159435	27086	1061957	46643	109097	0	0	8157	564710	0	0
2024-09-16 05:29:47			0	37783	0	0	0	24633	23240	159543	27301	1061983	46666	109099	0	0	8158	564273	0	0
2024-09-16 05:30:47			0	37790	0	0	0	24636	23230	159359	27123	1061948	46653	109100	0	0	8158	564026	0	0
2024-09-16 05:31:47			0	37789	0	0	0	24623	23230	159383	27131	1061912	46665	109095	0	0	8158	564066	0	0
2024-09-16 05:32:47			0	37812	0	0	0	24631	23240	159403	27232	1061983	46655	109098	0	0	8160	563121	0	0
2024-09-16 05:33:47			0	37814	0	0	0	24628	23230	159379	27121	1061912	46642	109097	0	0	8160	563073	0	0
2024-09-16 05:34:47			0	37814	0	0	0	24644	23230	159339	27253	1061894	46653	109103	0	0	8159	563073	0	0
2024-09-16 05:35:47			0	37813	0	0	0	24638	23230	159327	26868	1061948	46665	109101	0	0	8160	563113	0	0
2024-09-16 05:36:47			0	37814	0	0	0	24631	23230	159363	27289	1061939	46665	109098	0	0	8160	563073	0	0
2024-09-16 05:37:47			0	37808	0	0	0	24631	23230	159359	27166	1061885	46642	109098	0	0	8159	563312	0	0
2024-09-16 05:38:47			0	37804	0	0	0	24641	23220	159379	27230	1061983	46653	109102	0	0	8159	563502	0	0
2024-09-16 05:39:47			0	37805	0	0	0	24636	23230	159347	27116	1061974	46653	109100	0	0	8159	563431	0	0
2024-09-16 05:40:47			0	37804	0	0	0	24651	23220	159371	27144	1061956	46665	109106	0	0	8159	563502	0	0
2024-09-16 05:41:47			0	37808	0	0	0	24649	23220	159279	27222	1061983	46665	109105	0	0	8159	563343	0	0
2024-09-16 05:42:47			0	37794	0	0	0	24651	23230	159299	27310	1061965	46665	109106	0	0	8158	563868	0	0
2024-09-16 05:43:47			0	37814	0	0	0	24659	23230	159331	27100	1062028	46653	109109	0	0	8159	563073	0	0
2024-09-16 05:44:47			0	37791	0	0	0	24657	23230	159447	27093	1061948	46653	109108	0	0	8158	563987	0	0
2024-09-16 05:45:47			0	37792	0	0	0	24657	23230	159391	27320	1062028	46653	109108	0	0	8158	563947	0	0
2024-09-16 05:46:47			0	37787	0	0	0	24646	23230	159331	27192	1061974	46665	109104	0	0	8158	564146	0	0
2024-09-16 05:47:47			0	37783	0	0	0	24641	23240	159299	27379	1062046	46656	109102	0	0	8158	564273	0	0
2024-09-16 05:48:47			0	37798	0	0	0	24638	23240	159367	27353	1062010	46666	109101	0	0	8159	563677	0	0
2024-09-16 05:49:47			0	37779	0	0	0	24651	23240	159383	26883	1062010	46666	109106	0	0	8157	564432	0	0
2024-09-16 05:50:47			0	37757	0	0	0	24649	23240	159355	27218	1061957	46666	109105	0	0	8156	565307	0	0
2024-09-16 05:51:47			0	37777	0	0	0	24651	23240	159483	27261	1062037	46666	109106	0	0	8157	564511	0	0
2024-09-16 05:52:47			0	37761	0	0	0	24662	23230	159491	26994	1062028	46675	109110	0	0	8156	565179	0	0
2024-09-16 05:53:47			0	37745	0	0	0	24664	23230	159571	26902	1061974	46653	109111	0	0	8155	565816	0	0
2024-09-16 05:54:47			0	37752	0	0	0	24651	23240	159507	26972	1062010	46666	109106	0	0	8156	565506	0	0
2024-09-16 05:55:47			0	37754	0	0	0	24646	23230	159499	27144	1062055	46665	109104	0	0	8156	565458	0	0
2024-09-16 05:56:47			0	37736	0	0	0	24659	23240	159471	27260	1062010	46666	109109	0	0	8155	566142	0	0
2024-09-16 05:57:47			0	37745	0	0	0	24659	23250	159539	27230	1062010	46666	109109	0	0	8155	565752	0	0
2024-09-16 05:58:47			0	37743	0	0	0	24651	23240	159583	27036	1062046	46656	109106	0	0	8155	565864	0	0
2024-09-16 05:59:47			0	37728	0	0	0	24638	23240	159631	27015	1061983	46666	109101	0	0	8155	566461	0	0
2024-09-16 06:00:47			0	37717	0	0	0	24638	23230	159527	26904	1062001	46653	109101	0	0	8154	566931	0	0
2024-09-16 06:01:47			0	37748	0	0	0	24659	23240	159515	27085	1062037	46666	109109	0	0	8155	565665	0	0
2024-09-16 06:02:47			0	37714	0	0	0	24659	23240	159655	27150	1061992	46666	109109	0	0	8153	567019	0	0
2024-09-16 06:03:47			0	37721	0	0	0	24644	23240	159619	27327	1062046	46644	109103	0	0	8154	566740	0	0
2024-09-16 06:04:47			0	37733	0	0	0	24641	23240	159503	27161	1062010	46666	109102	0	0	8155	566262	0	0
2024-09-16 06:05:47			0	37715	0	0	0	24651	23250	159559	27022	1061975	46656	109106	0	0	8154	566947	0	0
2024-09-16 06:06:47			0	37712	0	0	0	24646	23230	159679	26963	1062001	46665	109104	0	0	8153	567130	0	0
2024-09-16 06:07:47			0	37722	0	0	0	24651	23250	159691	27228	1062055	46656	109106	0	0	8154	566668	0	0
2024-09-16 06:08:47			0	37709	0	0	0	24657	23250	159667	27265	1062028	46644	109108	0	0	8153	567187	0	0
2024-09-16 06:09:47			0	37704	0	0	0	24644	23230	159679	27059	1061974	46665	109103	0	0	8153	567450	0	0
2024-09-16 06:10:47			0	37696	0	0	0	24646	23240	159691	26896	1061992	46656	109104	0	0	8153	567737	0	0
2024-09-16 06:11:47			0	37726	0	0	0	24646	23240	159667	27178	1062037	46655	109104	0	0	8154	566541	0	0
2024-09-16 06:12:47			0	37705	0	0	0	24654	23250	159707	27145	1062055	46666	109107	0	0	8153	567346	0	0
2024-09-16 06:13:47			0	37718	0	0	0	24657	23250	159791	27225	1062028	46666	109108	0	0	8154	566828	0	0
2024-09-16 06:14:47			0	37729	0	0	0	24651	23240	159671	26831	1062072	46666	109106	0	0	8154	566421	0	0
2024-09-16 06:15:47			0	37734	0	0	0	24649	23240	159631	27294	1062046	46666	109105	0	0	8155	566222	0	0
2024-09-16 06:16:47			0	37721	0	0	0	24649	23240	159691	26911	1062010	46655	109105	0	0	8154	566740	0	0
2024-09-16 06:17:47			0	37721	0	0	0	24644	23240	159603	26979	1062019	46666	109103	0	0	8154	566740	0	0
2024-09-16 06:18:47			0	37729	0	0	0	24649	23240	159611	27052	1061992	46666	109105	0	0	8154	566421	0	0
2024-09-16 06:19:47			0	37704	0	0	0	24649	23250	159711	27079	1062028	46656	109105	0	0	8153	567386	0	0
2024-09-16 06:20:47			0	37704	0	0	0	24646	23240	159667	27171	1062037	46643	109104	0	0	8153	567418	0	0
2024-09-16 06:21:47			0	37721	0	0	0	24644	23240	159675	26873	1062046	46656	109103	0	0	8154	566740	0	0
2024-09-16 06:22:47			0	37713	0	0	0	24644	23240	159663	27197	1062010	46666	109103	0	0	8154	567059	0	0
2024-09-16 06:23:47			0	37715	0	0	0	24644	23240	159575	27105	1062010	46655	109103	0	0	8154	566979	0	0
2024-09-16 06:24:47			0	37719	0	0	0	24644	23230	159607	27178	1061965	46665	109103	0	0	8154	566851	0	0
2024-09-16 06:25:47			0	37720	0	0	0	24636	23240	159691	27261	1061957	46643	109100	0	0	8154	566780	0	0
2024-09-16 06:26:47			0	37706	0	0	0	24641	23240	159639	27124	1061966	46656	109102	0	0	8153	567338	0	0
2024-09-16 06:27:47			0	37707	0	0	0	24646	23240	159711	27067	1062063	46655	109104	0	0	8153	567298	0	0
2024-09-16 06:28:47			0	37700	0	0	0	24646	23240	159623	26875	1061957	46655	109104	0	0	8153	567577	0	0
2024-09-16 06:29:47			0	37710	0	0	0	24638	23240	159687	27053	1061903	46666	109101	0	0	8154	567179	0	0
2024-09-16 06:30:47			0	37695	0	0	0	24646	23230	159743	27085	1061974	46665	109104	0	0	8152	567809	0	0
2024-09-16 06:31:47			0	37693	0	0	0	24651	23240	159803	26750	1061983	46666	109106	0	0	8152	567856	0	0
2024-09-16 06:32:47			0	37703	0	0	0	24651	23230	159727	27010	1062001	46665	109106	0	0	8153	567489	0	0
2024-09-16 06:33:47			0	37698	0	0	0	24644	23240	159739	27064	1062019	46656	109103	0	0	8153	567657	0	0
2024-09-16 06:34:47			0	37719	0	0	0	24636	23240	159747	27027	1061992	46666	109100	0	0	8154	566820	0	0
2024-09-16 06:35:47			0	37684	0	0	0	24646	23240	159807	26934	1061903	46666	109104	0	0	8152	568216	0	0
2024-09-16 06:36:47			0	37685	0	0	0	24646	23230	159695	27230	1061948	46653	109104	0	0	8152	568208	0	0
2024-09-16 06:37:47			0	37687	0	0	0	24636	23230	159743	26859	1062001	46653	109100	0	0	8152	568128	0	0
2024-09-16 06:38:47			0	37707	0	0	0	24641	23230	159619	26871	1062028	46665	109102	0	0	8153	567330	0	0
2024-09-16 06:39:47			0	37708	0	0	0	24636	23240	159703	27001	1061957	46655	109100	0	0	8153	567258	0	0
2024-09-16 06:40:47			0	37696	0	0	0	24638	23230	159667	26968	1062001	46653	109101	0	0	8153	567769	0	0
2024-09-16 06:41:47			0	37704	0	0	0	24628	23230	159671	26920	1061965	46642	109097	0	0	8153	567450	0	0
2024-09-16 06:42:47			0	37685	0	0	0	24651	23230	159731	26845	1061974	46653	109106	0	0	8152	568208	0	0
2024-09-16 06:43:47			0	37702	0	0	0	24638	23240	159735	26993	1062010	46666	109101	0	0	8153	567498	0	0
2024-09-16 06:44:47			0	37683	0	0	0	24641	23230	159751	27109	1061974	46653	109102	0	0	8152	568288	0	0
2024-09-16 06:45:47			0	37673	0	0	0	24631	23230	159823	27019	1061965	46653	109098	0	0	8151	568687	0	0
2024-09-16 06:46:47			0	37687	0	0	0	24628	23240	159759	27203	1061957	46666	109097	0	0	8152	568096	0	0
2024-09-16 06:47:47			0	37699	0	0	0	24628	23240	159831	26972	1061957	46643	109097	0	0	8153	567617	0	0
2024-09-16 06:48:47			0	37682	0	0	0	24625	23230	159667	27488	1061948	46653	109096	0	0	8152	568327	0	0
2024-09-16 06:49:47			0	37675	0	0	0	24633	23220	159695	27150	1061903	46642	109099	0	0	8151	568639	0	0
2024-09-16 06:50:47			0	37687	0	0	0	24633	23230	159835	27079	1061939	46653	109099	0	0	8152	568128	0	0
2024-09-16 06:51:47			0	37673	0	0	0	24631	23220	159715	27043	1061956	46653	109098	0	0	8151	568719	0	0
2024-09-16 06:52:47			0	37666	0	0	0	24631	23230	159775	27301	1061992	46653	109098	0	0	8151	568966	0	0
2024-09-16 06:53:47			0	37651	0	0	0	24620	23230	159779	27305	1061965	46653	109094	0	0	8150	569566	0	0
2024-09-16 06:54:47			0	37683	0	0	0	24631	23230	159759	27225	1061912	46653	109098	0	0	8152	568288	0	0
2024-09-16 06:55:47			0	37660	0	0	0	24625	23220	159807	27055	1061930	46675	109096	0	0	8151	569238	0	0
2024-09-16 06:56:47			0	37656	0	0	0	24633	23230	159791	27239	1061921	46665	109099	0	0	8150	569366	0	0
2024-09-16 06:57:47			0	37670	0	0	0	24618	23220	159803	27274	1061956	46653	109093	0	0	8151	568839	0	0
2024-09-16 06:58:47			0	37670	0	0	0	24623	23220	159875	27083	1061956	46653	109095	0	0	8151	568839	0	0
2024-09-16 06:59:47			0	37667	0	0	0	24623	23220	159799	27020	1061867	46641	109095	0	0	8151	568958	0	0
2024-09-16 07:00:47			0	37671	0	0	0	24618	23220	159879	27000	1061903	46653	109093	0	0	8151	568799	0	0
2024-09-16 07:01:47			0	37651	0	0	0	24625	23230	159819	27409	1061939	46665	109096	0	0	8150	569566	0	0
2024-09-16 07:02:47			0	37661	0	0	0	24618	23210	159815	27313	1061885	46652	109093	0	0	8151	569230	0	0
2024-09-16 07:03:47			0	37653	0	0	0	24623	23220	159911	27268	1061903	46642	109095	0	0	8150	569518	0	0
2024-09-16 07:04:47			0	37676	0	0	0	24615	23220	159831	27071	1061921	46664	109092	0	0	8152	568599	0	0
2024-09-16 07:05:47			0	37655	0	0	0	24623	23200	159915	27074	1061867	46662	109095	0	0	8150	569502	0	0
2024-09-16 07:06:47			0	37660	0	0	0	24623	23210	159895	27528	1061885	46673	109095	0	0	8151	569270	0	0
2024-09-16 07:07:47			0	37640	0	0	0	24628	23220	159867	27395	1061921	46664	109097	0	0	8150	570038	0	0
2024-09-16 07:08:47			0	37643	0	0	0	24623	23210	159971	27173	1061805	46663	109095	0	0	8150	569950	0	0
2024-09-16 07:09:47			0	37624	0	0	0	24623	23220	159959	27310	1061903	46653	109095	0	0	8149	570678	0	0
2024-09-16 07:10:47			0	37647	0	0	0	24607	23230	159931	27310	1061885	46665	109089	0	0	8150	569726	0	0
2024-09-16 07:11:47			0	37641	0	0	0	24612	23220	159927	27149	1061894	46652	109091	0	0	8150	569998	0	0
2024-09-16 07:12:47			0	37647	0	0	0	24618	23210	159903	27123	1061885	46640	109093	0	0	8150	569790	0	0
2024-09-16 07:13:47			0	37660	0	0	0	24618	23210	159919	27336	1061912	46663	109093	0	0	8151	569270	0	0
2024-09-16 07:14:47			0	37643	0	0	0	24618	23210	159887	27059	1061849	46662	109093	0	0	8150	569950	0	0
2024-09-16 07:15:47			0	37650	0	0	0	24615	23210	159919	27298	1061903	46662	109092	0	0	8150	569670	0	0
2024-09-16 07:16:47			0	37642	0	0	0	24618	23220	159895	27289	1061956	46653	109093	0	0	8150	569958	0	0
2024-09-16 07:17:47			0	37642	0	0	0	24615	23220	159947	27111	1061867	46652	109092	0	0	8150	569958	0	0
2024-09-16 07:18:47			0	37648	0	0	0	24612	23220	159955	27310	1061894	46652	109091	0	0	8150	569718	0	0
2024-09-16 07:19:47			0	37635	0	0	0	24615	23210	159875	27436	1061912	46663	109092	0	0	8149	570270	0	0
2024-09-16 07:20:47			0	37625	0	0	0	24623	23210	159975	27187	1061965	46652	109095	0	0	8149	570670	0	0
2024-09-16 07:21:47			0	37644	0	0	0	24610	23210	159943	27414	1061912	46663	109090	0	0	8150	569910	0	0
2024-09-16 07:22:47			0	37639	0	0	0	24610	23200	159959	27320	1061867	46662	109090	0	0	8150	570142	0	0
2024-09-16 07:23:47			0	37637	0	0	0	24620	23220	160019	27319	1061894	46641	109094	0	0	8149	570158	0	0
2024-09-16 07:24:47			0	37642	0	0	0	24610	23220	160007	27076	1061814	46652	109090	0	0	8150	569958	0	0
2024-09-16 07:25:47			0	37621	0	0	0	24610	23220	159979	27178	1061921	46674	109090	0	0	8149	570798	0	0
2024-09-16 07:26:47			0	37633	0	0	0	24605	23210	160031	27130	1061858	46663	109088	0	0	8149	570350	0	0
2024-09-16 07:27:47			0	37617	0	0	0	24615	23200	160091	27320	1061805	46651	109092	0	0	8148	571022	0	0
2024-09-16 07:28:47			0	37636	0	0	0	24610	23210	160055	27249	1061912	46652	109090	0	0	8150	570230	0	0
2024-09-16 07:29:47			0	37613	0	0	0	24615	23210	160075	27189	1061778	46640	109092	0	0	8148	571150	0	0
2024-09-16 07:30:47			0	37602	0	0	0	24602	23210	160067	27100	1061849	46639	109087	0	0	8148	571591	0	0
2024-09-16 07:31:47			0	37610	0	0	0	24607	23210	160103	27241	1061805	46640	109089	0	0	8148	571271	0	0
2024-09-16 07:32:47			0	37620	0	0	0	24602	23200	160067	27343	1061894	46662	109087	0	0	8149	570902	0	0
2024-09-16 07:33:47			0	37620	0	0	0	24592	23210	160055	27178	1061849	46651	109083	0	0	8149	570870	0	0
2024-09-16 07:34:47			0	37611	0	0	0	24597	23210	160039	27078	1061849	46662	109085	0	0	8148	571231	0	0
2024-09-16 07:35:47			0	37612	0	0	0	24599	23210	160055	27161	1061858	46663	109086	0	0	8148	571191	0	0
2024-09-16 07:36:47			0	37618	0	0	0	24597	23210	160043	26967	1061885	46663	109085	0	0	8149	570950	0	0
2024-09-16 07:37:47			0	37607	0	0	0	24592	23220	160167	27218	1061841	46652	109083	0	0	8148	571359	0	0
2024-09-16 07:38:47			0	37608	0	0	0	24599	23200	160103	27180	1061814	46651	109086	0	0	8148	571383	0	0
2024-09-16 07:39:47			0	37602	0	0	0	24597	23200	160171	27062	1061814	46639	109085	0	0	8148	571623	0	0
2024-09-16 07:40:47			0	37595	0	0	0	24597	23210	160087	27265	1061769	46662	109085	0	0	8147	571872	0	0
2024-09-16 07:41:47			0	37595	0	0	0	24599	23200	160179	27213	1061805	46651	109086	0	0	8147	571904	0	0
2024-09-16 07:42:47			0	37603	0	0	0	24594	23200	160223	27144	1061814	46651	109084	0	0	8148	571583	0	0
2024-09-16 07:43:47			0	37609	0	0	0	24599	23200	160127	27270	1061831	46651	109086	0	0	8148	571343	0	0
2024-09-16 07:44:47			0	37596	0	0	0	24589	23200	160199	27268	1061778	46662	109082	0	0	8147	571864	0	0
2024-09-16 07:45:47			0	37586	0	0	0	24584	23190	160111	27313	1061795	46649	109080	0	0	8147	572297	0	0
2024-09-16 07:46:47			0	37597	0	0	0	24597	23190	160191	27034	1061795	46649	109085	0	0	8147	571856	0	0
2024-09-16 07:47:47			0	37577	0	0	0	24581	23200	160175	27093	1061778	46628	109079	0	0	8147	572626	0	0
2024-09-16 07:48:47			0	37583	0	0	0	24592	23190	160331	27092	1061822	46649	109083	0	0	8147	572417	0	0
2024-09-16 07:49:47			0	37576	0	0	0	24592	23190	160223	27114	1061795	46649	109083	0	0	8146	572698	0	0
2024-09-16 07:50:47			0	37586	0	0	0	24589	23190	160219	26998	1061795	46649	109082	0	0	8147	572297	0	0
2024-09-16 07:51:47			0	37584	0	0	0	24589	23190	160303	27052	1061786	46648	109082	0	0	8147	572377	0	0
2024-09-16 07:52:47			0	37588	0	0	0	24599	23190	160283	27324	1061795	46649	109086	0	0	8147	572216	0	0
2024-09-16 07:53:47			0	37577	0	0	0	24584	23190	160315	27204	1061760	46648	109080	0	0	8146	572658	0	0
2024-09-16 07:54:47			0	37578	0	0	0	24592	23190	160327	27277	1061769	46638	109083	0	0	8146	572618	0	0
2024-09-16 07:55:47			0	37581	0	0	0	24597	23190	160227	27405	1061769	46649	109085	0	0	8146	572497	0	0
2024-09-16 07:56:47			0	37579	0	0	0	24594	23190	160323	27013	1061769	46649	109084	0	0	8146	572578	0	0
2024-09-16 07:57:47			0	37561	0	0	0	24610	23180	160151	27339	1061804	46637	109090	0	0	8145	573332	0	0
2024-09-16 07:58:47			0	37582	0	0	0	24592	23190	160247	27331	1061733	46660	109083	0	0	8147	572457	0	0
2024-09-16 07:59:47			0	37596	0	0	0	24586	23190	160191	27332	1061795	46649	109081	0	0	8147	571896	0	0
2024-09-16 08:00:47			0	37595	0	0	0	24584	23190	160203	27039	1061813	46660	109080	0	0	8147	571936	0	0
2024-09-16 08:01:47			0	37587	0	0	0	24597	23190	160271	27351	1061742	46638	109085	0	0	8147	572256	0	0
2024-09-16 08:02:47			0	37573	0	0	0	24584	23190	160179	27208	1061786	46637	109080	0	0	8146	572818	0	0
2024-09-16 08:03:47			0	37580	0	0	0	24584	23190	160223	27445	1061733	46660	109080	0	0	8147	572537	0	0
2024-09-16 08:04:47			0	37588	0	0	0	24594	23180	160215	27284	1061724	46648	109084	0	0	8147	572249	0	0
2024-09-16 08:05:47			0	37597	0	0	0	24589	23190	160211	27199	1061760	46648	109082	0	0	8148	571856	0	0
2024-09-16 08:06:47			0	37600	0	0	0	24589	23190	160135	27441	1061733	46648	109082	0	0	8148	571735	0	0
2024-09-16 08:07:47			0	37588	0	0	0	24589	23190	160203	27277	1061786	46626	109082	0	0	8147	572216	0	0
2024-09-16 08:08:47			0	37599	0	0	0	24581	23180	160179	27228	1061715	46637	109079	0	0	8148	571808	0	0
2024-09-16 08:09:47			0	37585	0	0	0	24579	23180	160227	27013	1061751	46660	109078	0	0	8147	572369	0	0
2024-09-16 08:10:47			0	37600	0	0	0	24589	23180	160211	27074	1061751	46660	109082	0	0	8148	571768	0	0
2024-09-16 08:11:47			0	37600	0	0	0	24589	23180	160091	27286	1061751	46648	109082	0	0	8148	571768	0	0
2024-09-16 08:12:47			0	37585	0	0	0	24594	23190	160279	27492	1061786	46660	109084	0	0	8147	572337	0	0
2024-09-16 08:13:47			0	37591	0	0	0	24586	23190	160175	27306	1061786	46648	109081	0	0	8147	572096	0	0
2024-09-16 08:14:47			0	37606	0	0	0	24607	23190	160171	27435	1061786	46648	109089	0	0	8148	571495	0	0
2024-09-16 08:15:47			0	37593	0	0	0	24615	23180	160227	27078	1061751	46637	109092	0	0	8147	572048	0	0
2024-09-16 08:16:47			0	37606	0	0	0	24602	23190	160203	27359	1061795	46649	109087	0	0	8148	571495	0	0
2024-09-16 08:17:47			0	37591	0	0	0	24610	23180	160211	27215	1061777	46670	109090	0	0	8147	572128	0	0
2024-09-16 08:18:47			0	37596	0	0	0	24597	23190	160119	27322	1061813	46648	109085	0	0	8147	571896	0	0
2024-09-16 08:19:47			0	37605	0	0	0	24599	23200	160131	26908	1061858	46651	109086	0	0	8148	571503	0	0
2024-09-16 08:20:47			0	37618	0	0	0	24599	23200	160219	27196	1061885	46662	109086	0	0	8149	570982	0	0
2024-09-16 08:21:47			0	37625	0	0	0	24599	23190	160167	27280	1061769	46649	109086	0	0	8149	570734	0	0
2024-09-16 08:22:47			0	37608	0	0	0	24605	23200	160127	26896	1061831	46651	109088	0	0	8148	571383	0	0
2024-09-16 08:23:47			0	37610	0	0	0	24610	23200	160175	27353	1061805	46672	109090	0	0	8148	571303	0	0
2024-09-16 08:24:47			0	37616	0	0	0	24602	23200	160155	27015	1061805	46651	109087	0	0	8148	571062	0	0
2024-09-16 08:25:47			0	37618	0	0	0	24602	23190	160155	27254	1061786	46648	109087	0	0	8149	571014	0	0
2024-09-16 08:26:47			0	37630	0	0	0	24605	23190	160055	27107	1061876	46661	109088	0	0	8149	570534	0	0
2024-09-16 08:27:47			0	37624	0	0	0	24605	23200	160143	27431	1061778	46651	109088	0	0	8149	570742	0	0
2024-09-16 08:28:47			0	37621	0	0	0	24597	23190	160127	27303	1061849	46649	109085	0	0	8149	570894	0	0
2024-09-16 08:29:47			0	37621	0	0	0	24607	23190	160091	27211	1061876	46649	109089	0	0	8149	570894	0	0
2024-09-16 08:30:47			0	37629	0	0	0	24594	23200	160107	27447	1061867	46651	109084	0	0	8149	570542	0	0
2024-09-16 08:31:47			0	37634	0	0	0	24607	23200	160039	27126	1061840	46651	109089	0	0	8149	570342	0	0
2024-09-16 08:32:47			0	37634	0	0	0	24618	23200	160127	27150	1061885	46651	109093	0	0	8149	570342	0	0
2024-09-16 08:33:47			0	37618	0	0	0	24618	23200	160099	27085	1061831	46672	109093	0	0	8148	570982	0	0
2024-09-16 08:34:47			0	37618	0	0	0	24618	23200	160123	27201	1061814	46672	109093	0	0	8148	570982	0	0
2024-09-16 08:35:47			0	37613	0	0	0	24615	23190	160119	27116	1061867	46660	109092	0	0	8148	571215	0	0
2024-09-16 08:36:47			0	37624	0	0	0	24618	23210	160103	27315	1061832	46663	109093	0	0	8149	570710	0	0
2024-09-16 08:37:47			0	37625	0	0	0	24628	23210	160123	27474	1061903	46662	109097	0	0	8149	570670	0	0
2024-09-16 08:38:47			0	37616	0	0	0	24618	23210	160107	27175	1061849	46651	109093	0	0	8148	571030	0	0
2024-09-16 08:39:47			0	37634	0	0	0	24620	23210	160103	27313	1061823	46651	109094	0	0	8149	570310	0	0
2024-09-16 08:40:47			0	37617	0	0	0	24615	23210	160091	27320	1061858	46673	109092	0	0	8148	570990	0	0
2024-09-16 08:41:47			0	37611	0	0	0	24612	23210	160155	27511	1061912	46652	109091	0	0	8148	571231	0	0
2024-09-16 08:42:47			0	37597	0	0	0	24625	23210	160183	27371	1061912	46652	109096	0	0	8147	571791	0	0
2024-09-16 08:43:47			0	37618	0	0	0	24631	23220	160195	27275	1061894	46641	109098	0	0	8148	570918	0	0
2024-09-16 08:44:47			0	37610	0	0	0	24625	23220	160179	27118	1061894	46664	109096	0	0	8148	571238	0	0
2024-09-16 08:45:47			0	37621	0	0	0	24644	23210	160255	26691	1061912	46652	109103	0	0	8148	570830	0	0
2024-09-16 08:46:47			0	37610	0	0	0	24641	23220	160167	27282	1061894	46664	109102	0	0	8148	571238	0	0
2024-09-16 08:47:47			0	37610	0	0	0	24646	23220	160207	27175	1061947	46652	109104	0	0	8147	571238	0	0
2024-09-16 08:48:47			0	37598	0	0	0	24646	23230	160099	27429	1061912	46653	109104	0	0	8147	571687	0	0
2024-09-16 08:49:47			0	37603	0	0	0	24651	23230	160111	27291	1061965	46642	109106	0	0	8147	571487	0	0
2024-09-16 08:50:47			0	37625	0	0	0	24651	23220	160015	26994	1061956	46665	109106	0	0	8148	570638	0	0
2024-09-16 08:51:47			0	37639	0	0	0	24657	23220	160031	27192	1061956	46665	109108	0	0	8149	570078	0	0
2024-09-16 08:52:47			0	37644	0	0	0	24659	23230	159979	27126	1062028	46665	109109	0	0	8149	569846	0	0
2024-09-16 08:53:47			0	37673	0	0	0	24662	23230	159867	27164	1062055	46665	109110	0	0	8151	568687	0	0
2024-09-16 08:54:47			0	37661	0	0	0	24651	23240	159919	27039	1062090	46666	109106	0	0	8150	569134	0	0
2024-09-16 08:55:47			0	37663	0	0	0	24672	23230	159919	27111	1062001	46653	109114	0	0	8150	569086	0	0
2024-09-16 08:56:47			0	37679	0	0	0	24672	23230	159827	27124	1062028	46653	109114	0	0	8151	568447	0	0
2024-09-16 08:57:47			0	37666	0	0	0	24672	23230	159959	27185	1062072	46665	109114	0	0	8150	568966	0	0
2024-09-16 08:58:47			0	37664	0	0	0	24680	23240	159863	27059	1062126	46644	109117	0	0	8150	569014	0	0
2024-09-16 08:59:47			0	37672	0	0	0	24667	23240	159955	27066	1062126	46666	109112	0	0	8151	568695	0	0
2024-09-16 09:00:47			0	37683	0	0	0	24685	23250	159867	27090	1062037	46677	109119	0	0	8151	568224	0	0
2024-09-16 09:01:47			0	37677	0	0	0	24683	23240	159851	26809	1062153	46656	109118	0	0	8151	568495	0	0
2024-09-16 09:02:47			0	37683	0	0	0	24696	23240	159907	27284	1062153	46677	109123	0	0	8151	568256	0	0
2024-09-16 09:03:47			0	37697	0	0	0	24696	23250	159771	26981	1062144	46666	109123	0	0	8152	567665	0	0
2024-09-16 09:04:47			0	37699	0	0	0	24698	23260	159707	27298	1062180	46657	109124	0	0	8152	567553	0	0
2024-09-16 09:05:47			0	37715	0	0	0	24706	23260	159803	26965	1062233	46657	109127	0	0	8153	566916	0	0
2024-09-16 09:06:47			0	37725	0	0	0	24714	23260	159587	27079	1062206	46667	109130	0	0	8153	566517	0	0
2024-09-16 09:07:47			0	37733	0	0	0	24716	23270	159615	26927	1062233	46679	109131	0	0	8154	566166	0	0
2024-09-16 09:08:47			0	37759	0	0	0	24711	23270	159495	26654	1062278	46668	109129	0	0	8155	565132	0	0
2024-09-16 09:09:47			0	37771	0	0	0	24716	23260	159463	26949	1062242	46668	109131	0	0	8156	564686	0	0
2024-09-16 09:10:47			0	37775	0	0	0	24711	23280	159331	27185	1062242	46669	109129	0	0	8156	564464	0	0
2024-09-16 09:11:47			0	37832	0	0	0	24732	23280	159223	27312	1062322	46659	109137	0	0	8159	562202	0	0
2024-09-16 09:12:47			0	37827	0	0	0	24729	23280	159299	27053	1062349	46669	109136	0	0	8159	562400	0	0
2024-09-16 09:13:47			0	37823	0	0	0	24722	23290	159207	27060	1062349	46661	109133	0	0	8159	562527	0	0
2024-09-16 09:14:47			0	37847	0	0	0	24732	23290	159031	26987	1062340	46682	109137	0	0	8160	561576	0	0
2024-09-16 09:15:47			0	37858	0	0	0	24745	23300	159039	26977	1062412	46661	109142	0	0	8161	561108	0	0
2024-09-16 09:16:47			0	37869	0	0	0	24742	23300	159011	27043	1062412	46671	109141	0	0	8161	560673	0	0
2024-09-16 09:17:47			0	37892	0	0	0	24745	23300	159003	27585	1062412	46661	109142	0	0	8163	559763	0	0
2024-09-16 09:18:47			0	37878	0	0	0	24732	23300	159035	27066	1062438	46661	109137	0	0	8162	560317	0	0
2024-09-16 09:19:47			0	37882	0	0	0	24745	23300	159007	27241	1062340	46662	109142	0	0	8162	560159	0	0
2024-09-16 09:20:47			0	37891	0	0	0	24748	23300	158951	27400	1062421	46672	109143	0	0	8163	559803	0	0
2024-09-16 09:21:47			0	37891	0	0	0	24758	23300	158839	27393	1062394	46672	109147	0	0	8162	559803	0	0
2024-09-16 09:22:47			0	37869	0	0	0	24763	23310	158971	27307	1062439	46673	109149	0	0	8161	560642	0	0
2024-09-16 09:23:47			0	37820	0	0	0	24774	23310	159207	27454	1062519	46651	109153	0	0	8158	562583	0	0
2024-09-16 09:24:47			0	37794	0	0	0	24771	23310	159355	27157	1062519	46673	109152	0	0	8157	563614	0	0
2024-09-16 09:25:47			0	37800	0	0	0	24771	23320	159279	26795	1062528	46684	109152	0	0	8157	563344	0	0
2024-09-16 09:26:47			0	37824	0	0	0	24761	23330	159203	27074	1062546	46686	109148	0	0	8159	562361	0	0
2024-09-16 09:27:47			0	37867	0	0	0	24776	23330	159039	26876	1062555	46675	109154	0	0	8161	560658	0	0
2024-09-16 09:28:47			0	37897	0	0	0	24781	23330	158915	27145	1062528	46665	109156	0	0	8162	559472	0	0
2024-09-16 09:29:47			0	37936	0	0	0	24771	23340	158707	27237	1062564	46675	109152	0	0	8165	557900	0	0
2024-09-16 09:30:47			0	37945	0	0	0	24761	23340	158635	27289	1062617	46686	109148	0	0	8166	557546	0	0
2024-09-16 09:31:47			0	37965	0	0	0	24758	23350	158563	27104	1062635	46666	109147	0	0	8167	556726	0	0
2024-09-16 09:32:47			0	37977	0	0	0	24784	23350	158531	27019	1062609	46666	109157	0	0	8167	556253	0	0
2024-09-16 09:33:47			0	37973	0	0	0	24797	23340	158483	27372	1062626	46676	109162	0	0	8167	556442	0	0
2024-09-16 09:34:47			0	37990	0	0	0	24792	23340	158483	27083	1062626	46676	109160	0	0	8168	555773	0	0
2024-09-16 09:35:47			0	37977	0	0	0	24786	23350	158427	27332	1062698	46666	109158	0	0	8167	556253	0	0
2024-09-16 09:36:47			0	37980	0	0	0	24771	23360	158435	27137	1062707	46701	109152	0	0	8168	556104	0	0
2024-09-16 09:37:47			0	38000	0	0	0	24784	23350	158407	27386	1062689	46688	109157	0	0	8169	555348	0	0
2024-09-16 09:38:47			0	38015	0	0	0	24786	23350	158331	27486	1062662	46677	109158	0	0	8169	554759	0	0
2024-09-16 09:39:47			0	38023	0	0	0	24789	23350	158248	27270	1062618	46677	109159	0	0	8170	554444	0	0
2024-09-16 09:40:47			0	38035	0	0	0	24797	23360	158192	27171	1062600	46678	109162	0	0	8170	553942	0	0
2024-09-16 09:41:47			0	38055	0	0	0	24792	23360	158168	27090	1062653	46689	109160	0	0	8172	553157	0	0
2024-09-16 09:42:47			0	38064	0	0	0	24784	23360	158084	27265	1062689	46678	109157	0	0	8172	552804	0	0
2024-09-16 09:43:47			0	38082	0	0	0	24789	23370	158112	27161	1062751	46668	109159	0	0	8173	552067	0	0
2024-09-16 09:44:47			0	38093	0	0	0	24807	23360	158072	27048	1062742	46678	109166	0	0	8174	551668	0	0
2024-09-16 09:45:47			0	38088	0	0	0	24802	23370	157952	27012	1062778	46679	109164	0	0	8173	551832	0	0
2024-09-16 09:46:47			0	38109	0	0	0	24792	23370	158060	27222	1062725	46668	109160	0	0	8175	551010	0	0
2024-09-16 09:47:47			0	38120	0	0	0	24799	23370	158032	27052	1062760	46680	109163	0	0	8175	550580	0	0
2024-09-16 09:48:47			0	38118	0	0	0	24802	23380	157964	27114	1062689	46669	109164	0	0	8175	550627	0	0
2024-09-16 09:49:47			0	38125	0	0	0	24784	23380	157824	27353	1062796	46669	109157	0	0	8176	550353	0	0
2024-09-16 09:50:47			0	38109	0	0	0	24786	23370	157848	26904	1062725	46679	109158	0	0	8175	551010	0	0
2024-09-16 09:51:47			0	38120	0	0	0	24794	23370	157836	27308	1062787	46680	109161	0	0	8175	550580	0	0
2024-09-16 09:52:47			0	38115	0	0	0	24794	23370	157916	27517	1062787	46659	109161	0	0	8175	550775	0	0
2024-09-16 09:53:47			0	38110	0	0	0	24805	23370	157928	27286	1062751	46668	109165	0	0	8175	550971	0	0
2024-09-16 09:54:47			0	38104	0	0	0	24797	23370	157916	27083	1062751	46668	109162	0	0	8174	551206	0	0
2024-09-16 09:55:47			0	38117	0	0	0	24792	23380	157952	27336	1062796	46659	109160	0	0	8175	550666	0	0
2024-09-16 09:56:47			0	38125	0	0	0	24797	23370	157884	27355	1062814	46669	109162	0	0	8176	550384	0	0
2024-09-16 09:57:47			0	38112	0	0	0	24807	23370	157936	27187	1062787	46669	109166	0	0	8175	550893	0	0
2024-09-16 09:58:47			0	38132	0	0	0	24794	23380	157892	27102	1062796	46669	109161	0	0	8176	550080	0	0
2024-09-16 09:59:47			0	38137	0	0	0	24797	23380	157964	27419	1062850	46680	109162	0	0	8176	549884	0	0
2024-09-16 10:00:47			0	38123	0	0	0	24784	23380	157856	27000	1062832	46659	109157	0	0	8176	550432	0	0
2024-09-16 10:01:47			0	38143	0	0	0	24779	23380	157776	26968	1062805	46669	109155	0	0	8177	549650	0	0
2024-09-16 10:02:47			0	38118	0	0	0	24784	23380	157892	27074	1062796	46659	109157	0	0	8176	550627	0	0
2024-09-16 10:03:47			0	38150	0	0	0	24792	23380	157916	27220	1062778	46659	109160	0	0	8177	549376	0	0
2024-09-16 10:04:47			0	38125	0	0	0	24792	23380	157836	27150	1062743	46680	109160	0	0	8176	550353	0	0
2024-09-16 10:05:47			0	38126	0	0	0	24786	23380	157852	27067	1062769	46669	109158	0	0	8176	550314	0	0
2024-09-16 10:06:47			0	38125	0	0	0	24781	23380	157864	27104	1062769	46680	109156	0	0	8176	550353	0	0
2024-09-16 10:07:47			0	38145	0	0	0	24781	23380	157828	27341	1062743	46669	109156	0	0	8177	549572	0	0
2024-09-16 10:08:47			0	38142	0	0	0	24789	23380	157728	27343	1062769	46669	109159	0	0	8177	549689	0	0
2024-09-16 10:09:47			0	38138	0	0	0	24794	23380	157912	26883	1062769	46691	109161	0	0	8177	549845	0	0
2024-09-16 10:10:47			0	38137	0	0	0	24797	23370	157928	27234	1062734	46680	109162	0	0	8176	549915	0	0
2024-09-16 10:11:47			0	38127	0	0	0	24799	23380	157888	27144	1062716	46659	109163	0	0	8176	550275	0	0
2024-09-16 10:12:47			0	38122	0	0	0	24797	23380	157864	27225	1062823	46669	109162	0	0	8176	550471	0	0
2024-09-16 10:13:47			0	38134	0	0	0	24812	23380	157948	26974	1062778	46691	109168	0	0	8176	550002	0	0
2024-09-16 10:14:47			0	38119	0	0	0	24799	23380	157904	27163	1062823	46669	109163	0	0	8175	550588	0	0
2024-09-16 10:15:47			0	38112	0	0	0	24805	23380	157996	27383	1062796	46680	109165	0	0	8175	550862	0	0
2024-09-16 10:16:47			0	38115	0	0	0	24797	23380	157940	27377	1062769	46669	109162	0	0	8175	550744	0	0
2024-09-16 10:17:47			0	38171	0	0	0	24797	23380	157736	27296	1062832	46669	109162	0	0	8178	548556	0	0
2024-09-16 10:18:47			0	38187	0	0	0	24802	23390	157720	27343	1062868	46681	109164	0	0	8179	547901	0	0
2024-09-16 10:19:47			0	38173	0	0	0	24802	23380	157752	27215	1062859	46669	109164	0	0	8178	548478	0	0
2024-09-16 10:20:47			0	38193	0	0	0	24799	23390	157756	27034	1062841	46681	109163	0	0	8180	547668	0	0
2024-09-16 10:21:47			0	38193	0	0	0	24810	23380	157740	27367	1062805	46659	109167	0	0	8179	547698	0	0
2024-09-16 10:22:47			0	38190	0	0	0	24812	23390	157652	27336	1062877	46671	109168	0	0	8179	547785	0	0
2024-09-16 10:23:47			0	38175	0	0	0	24815	23380	157636	27029	1062859	46680	109169	0	0	8178	548400	0	0
2024-09-16 10:24:47			0	38187	0	0	0	24802	23390	157652	26965	1062823	46682	109164	0	0	8179	547901	0	0
2024-09-16 10:25:47			0	38180	0	0	0	24805	23380	157572	27034	1062859	46669	109165	0	0	8179	548205	0	0
2024-09-16 10:26:47			0	38177	0	0	0	24810	23400	157604	26955	1062859	46671	109167	0	0	8179	548261	0	0
2024-09-16 10:27:47			0	38187	0	0	0	24818	23380	157692	27300	1062832	46669	109170	0	0	8179	547932	0	0
2024-09-16 10:28:47			0	38188	0	0	0	24815	23390	157668	26975	1062903	46682	109169	0	0	8179	547863	0	0
2024-09-16 10:29:47			0	38184	0	0	0	24823	23390	157728	27543	1062850	46660	109172	0	0	8179	548019	0	0
2024-09-16 10:30:47			0	38188	0	0	0	24820	23390	157680	27064	1062903	46682	109171	0	0	8179	547863	0	0
2024-09-16 10:31:47			0	38189	0	0	0	24825	23390	157704	27175	1062850	46682	109173	0	0	8179	547824	0	0
2024-09-16 10:32:47			0	38180	0	0	0	24828	23390	157600	27123	1062850	46671	109174	0	0	8178	548174	0	0
2024-09-16 10:33:47			0	38178	0	0	0	24825	23410	157724	27268	1062984	46683	109173	0	0	8178	548191	0	0
2024-09-16 10:34:47			0	38159	0	0	0	24828	23400	157652	27256	1062912	46682	109174	0	0	8177	548963	0	0
2024-09-16 10:35:47			0	38154	0	0	0	24833	23400	157816	27267	1062886	46693	109176	0	0	8177	549158	0	0
2024-09-16 10:36:47			0	38171	0	0	0	24828	23390	157744	27039	1062850	46682	109174	0	0	8178	548526	0	0
2024-09-16 10:37:47			0	38166	0	0	0	24828	23410	157624	27307	1063019	46684	109174	0	0	8178	548659	0	0
2024-09-16 10:38:47			0	38165	0	0	0	24823	23420	157732	27478	1062895	46673	109172	0	0	8178	548667	0	0
2024-09-16 10:39:47			0	38192	0	0	0	24831	23400	157680	26986	1062886	46671	109175	0	0	8179	547676	0	0
2024-09-16 10:40:47			0	38192	0	0	0	24833	23400	157712	27369	1062939	46671	109176	0	0	8179	547676	0	0
2024-09-16 10:41:47			0	38196	0	0	0	24831	23410	157692	27206	1062886	46673	109175	0	0	8179	547489	0	0
2024-09-16 10:42:47			0	38182	0	0	0	24831	23400	157580	27187	1062886	46671	109175	0	0	8179	548066	0	0
2024-09-16 10:43:47			0	38175	0	0	0	24836	23410	157588	27024	1062903	46683	109177	0	0	8178	548308	0	0
2024-09-16 10:44:47			0	38214	0	0	0	24841	23400	157600	27034	1062886	46682	109179	0	0	8180	546819	0	0
2024-09-16 10:45:47			0	38209	0	0	0	24841	23410	157548	27322	1062939	46673	109179	0	0	8180	546983	0	0
2024-09-16 10:46:47			0	38212	0	0	0	24844	23410	157564	27261	1062939	46673	109180	0	0	8180	546866	0	0
2024-09-16 10:47:47			0	38204	0	0	0	24844	23410	157664	27287	1063046	46673	109180	0	0	8180	547177	0	0
2024-09-16 10:48:47			0	38207	0	0	0	24846	23410	157716	27265	1062984	46672	109181	0	0	8180	547060	0	0
2024-09-16 10:49:47			0	38218	0	0	0	24846	23410	157556	27300	1062966	46673	109181	0	0	8180	546632	0	0
2024-09-16 10:50:47			0	38201	0	0	0	24851	23420	157596	27241	1062948	46684	109183	0	0	8179	547263	0	0
2024-09-16 10:51:47			0	38220	0	0	0	24846	23420	157596	27346	1062975	46673	109181	0	0	8181	546523	0	0
2024-09-16 10:52:47			0	38196	0	0	0	24841	23420	157556	27244	1063011	46685	109179	0	0	8179	547458	0	0
2024-09-16 10:53:47			0	38198	0	0	0	24851	23420	157576	26963	1063037	46674	109183	0	0	8179	547380	0	0
2024-09-16 10:54:47			0	38219	0	0	0	24846	23420	157532	27315	1063028	46673	109181	0	0	8181	546562	0	0
2024-09-16 10:55:47			0	38193	0	0	0	24846	23430	157548	27493	1063100	46696	109181	0	0	8179	547544	0	0
2024-09-16 10:56:47			0	38231	0	0	0	24846	23430	157508	27154	1063073	46685	109181	0	0	8181	546065	0	0
2024-09-16 10:57:47			0	38232	0	0	0	24851	23430	157556	27338	1063046	46685	109183	0	0	8181	546026	0	0
2024-09-16 10:58:47			0	38231	0	0	0	24862	23420	157452	27209	1063028	46684	109187	0	0	8181	546095	0	0
2024-09-16 10:59:47			0	38242	0	0	0	24851	23430	157440	27098	1063082	46675	109183	0	0	8182	545637	0	0
2024-09-16 11:00:47			0	38252	0	0	0	24859	23430	157552	27085	1063109	46675	109186	0	0	8182	545248	0	0
2024-09-16 11:01:47			0	38248	0	0	0	24857	23430	157436	27114	1063073	46685	109185	0	0	8182	545403	0	0
2024-09-16 11:02:47			0	38238	0	0	0	24851	23430	157476	26928	1063127	46674	109183	0	0	8182	545792	0	0
2024-09-16 11:03:47			0	38229	0	0	0	24851	23430	157352	26975	1063055	46675	109183	0	0	8181	546142	0	0
2024-09-16 11:04:47			0	38229	0	0	0	24857	23430	157492	27093	1063100	46685	109185	0	0	8181	546142	0	0
2024-09-16 11:05:47			0	38236	0	0	0	24857	23440	157396	27092	1063100	46698	109185	0	0	8181	545840	0	0
2024-09-16 11:06:47			0	38234	0	0	0	24862	23430	157368	26897	1063082	46675	109187	0	0	8181	545948	0	0
2024-09-16 11:07:47			0	38227	0	0	0	24867	23430	157468	27093	1063109	46675	109189	0	0	8181	546220	0	0
2024-09-16 11:08:47			0	38218	0	0	0	24864	23440	157436	27171	1063181	46687	109188	0	0	8180	546540	0	0
2024-09-16 11:09:47			0	38229	0	0	0	24857	23440	157388	27008	1063154	46687	109185	0	0	8181	546112	0	0
2024-09-16 11:10:47			0	38230	0	0	0	24862	23440	157376	27215	1063154	46687	109187	0	0	8181	546073	0	0
2024-09-16 11:11:47			0	38223	0	0	0	24859	23440	157460	27334	1063065	46675	109186	0	0	8181	546345	0	0
2024-09-16 11:12:47			0	38229	0	0	0	24859	23440	157412	27170	1063145	46686	109186	0	0	8181	546112	0	0
2024-09-16 11:13:47			0	38228	0	0	0	24864	23450	157420	27085	1063216	46666	109188	0	0	8181	546120	0	0
2024-09-16 11:14:47			0	38249	0	0	0	24864	23440	157424	27305	1063118	46686	109188	0	0	8182	545334	0	0
2024-09-16 11:15:47			0	38239	0	0	0	24870	23440	157288	27429	1063154	46676	109190	0	0	8181	545723	0	0
2024-09-16 11:16:47			0	38260	0	0	0	24872	23440	157368	27248	1063145	46665	109191	0	0	8183	544906	0	0
2024-09-16 11:17:47			0	38240	0	0	0	24880	23440	157376	27015	1063172	46686	109194	0	0	8181	545684	0	0
2024-09-16 11:18:47			0	38257	0	0	0	24880	23450	157396	27369	1063163	46687	109194	0	0	8182	544992	0	0
2024-09-16 11:19:47			0	38257	0	0	0	24880	23460	157296	27239	1063145	46688	109194	0	0	8182	544962	0	0
2024-09-16 11:20:47			0	38256	0	0	0	24880	23460	157336	27107	1063172	46688	109194	0	0	8182	545001	0	0
2024-09-16 11:21:47			0	38259	0	0	0	24890	23440	157336	27145	1063181	46687	109198	0	0	8182	544945	0	0
2024-09-16 11:22:47			0	38245	0	0	0	24890	23450	157444	27197	1063243	46676	109198	0	0	8181	545459	0	0
2024-09-16 11:23:47			0	38241	0	0	0	24877	23460	157348	27431	1063207	46689	109193	0	0	8181	545584	0	0
2024-09-16 11:24:47			0	38238	0	0	0	24893	23450	157460	27234	1063216	46687	109199	0	0	8181	545731	0	0
2024-09-16 11:25:47			0	38251	0	0	0	24888	23460	157352	27343	1063225	46688	109197	0	0	8182	545195	0	0
2024-09-16 11:26:47			0	38259	0	0	0	24888	23470	157384	27450	1063270	46689	109197	0	0	8182	544853	0	0
2024-09-16 11:27:47			0	38260	0	0	0	24890	23470	157336	27076	1063323	46689	109198	0	0	8182	544815	0	0
2024-09-16 11:28:47			0	38280	0	0	0	24896	23480	157252	27176	1063208	46690	109200	0	0	8184	544007	0	0
2024-09-16 11:29:47			0	38280	0	0	0	24890	23480	157252	27315	1063261	46690	109198	0	0	8184	544007	0	0
2024-09-16 11:30:47			0	38289	0	0	0	24896	23470	157268	27455	1063243	46689	109200	0	0	8184	543689	0	0
2024-09-16 11:31:47			0	38266	0	0	0	24888	23470	157204	27308	1063199	46678	109197	0	0	8183	544582	0	0
2024-09-16 11:32:47			0	38275	0	0	0	24888	23470	157272	26939	1063252	46700	109197	0	0	8183	544232	0	0
2024-09-16 11:33:47			0	38263	0	0	0	24893	23480	157252	27253	1063261	46690	109199	0	0	8183	544667	0	0
2024-09-16 11:34:47			0	38276	0	0	0	24888	23480	157320	27322	1063270	46680	109197	0	0	8183	544163	0	0
2024-09-16 11:35:47			0	38262	0	0	0	24890	23480	157320	27149	1063315	46690	109198	0	0	8183	544706	0	0
2024-09-16 11:36:47			0	38260	0	0	0	24888	23490	157364	27022	1063333	46691	109197	0	0	8183	544753	0	0
2024-09-16 11:37:47			0	38248	0	0	0	24896	23470	157356	26955	1063252	46678	109200	0	0	8182	545281	0	0
2024-09-16 11:38:47			0	38264	0	0	0	24890	23480	157272	27071	1063234	46679	109198	0	0	8183	544629	0	0
2024-09-16 11:39:47			0	38240	0	0	0	24909	23480	157308	27338	1063261	46668	109205	0	0	8181	545561	0	0
2024-09-16 11:40:47			0	38253	0	0	0	24901	23480	157352	27230	1063324	46691	109202	0	0	8182	545056	0	0
2024-09-16 11:41:47			0	38256	0	0	0	24903	23480	157320	27319	1063288	46679	109203	0	0	8182	544939	0	0
2024-09-16 11:42:47			0	38263	0	0	0	24898	23490	157384	27156	1063208	46692	109201	0	0	8183	544637	0	0
2024-09-16 11:43:47			0	38258	0	0	0	24901	23490	157376	27093	1063252	46691	109202	0	0	8182	544831	0	0
2024-09-16 11:44:47			0	38231	0	0	0	24896	23490	157420	27078	1063315	46681	109200	0	0	8181	545881	0	0
2024-09-16 11:45:47			0	38249	0	0	0	24901	23480	157360	27384	1063297	46669	109202	0	0	8182	545211	0	0
2024-09-16 11:46:47			0	38243	0	0	0	24906	23480	157324	27357	1063270	46680	109204	0	0	8181	545445	0	0
2024-09-16 11:47:47			0	38244	0	0	0	24901	23500	157328	27429	1063350	46692	109202	0	0	8181	545344	0	0
2024-09-16 11:48:47			0	38265	0	0	0	24911	23480	157384	27466	1063350	46691	109206	0	0	8182	544590	0	0
2024-09-16 11:49:47			0	38255	0	0	0	24911	23490	157264	27300	1063368	46692	109206	0	0	8182	544948	0	0
2024-09-16 11:50:47			0	38244	0	0	0	24919	23490	157248	27244	1063359	46702	109209	0	0	8181	545375	0	0
2024-09-16 11:51:47			0	38265	0	0	0	24914	23490	157224	27499	1063359	46702	109207	0	0	8182	544559	0	0
2024-09-16 11:52:47			0	38267	0	0	0	24911	23490	157236	27246	1063315	46692	109206	0	0	8183	544482	0	0
2024-09-16 11:53:47			0	38276	0	0	0	24922	23500	157216	27206	1063377	46681	109210	0	0	8183	544101	0	0
2024-09-16 11:54:47			0	38284	0	0	0	24922	23490	157196	27204	1063422	46681	109210	0	0	8183	543822	0	0
2024-09-16 11:55:47			0	38285	0	0	0	24916	23500	157152	27119	1063350	46681	109208	0	0	8184	543752	0	0
2024-09-16 11:56:47			0	38286	0	0	0	24919	23500	157120	26993	1063413	46693	109209	0	0	8184	543713	0	0
2024-09-16 11:57:47			0	38288	0	0	0	24924	23490	157192	27163	1063413	46680	109211	0	0	8184	543666	0	0
2024-09-16 11:58:47			0	38295	0	0	0	24927	23500	157104	27312	1063440	46693	109212	0	0	8184	543364	0	0
2024-09-16 11:59:47			0	38328	0	0	0	24932	23510	157088	27095	1063395	46693	109214	0	0	8186	542055	0	0
2024-09-16 12:00:47			0	38327	0	0	0	24929	23510	156956	27312	1063422	46671	109213	0	0	8186	542094	0	0
2024-09-16 12:01:47			0	38327	0	0	0	24929	23500	157040	27128	1063440	46693	109213	0	0	8186	542124	0	0
2024-09-16 12:02:47			0	38324	0	0	0	24935	23500	156908	27443	1063413	46682	109215	0	0	8186	542240	0	0
2024-09-16 12:03:47			0	38352	0	0	0	24935	23510	156940	27185	1063458	46694	109215	0	0	8187	541126	0	0
2024-09-16 12:04:47			0	38368	0	0	0	24948	23510	156928	27289	1063422	46705	109220	0	0	8188	540507	0	0
2024-09-16 12:05:47			0	38345	0	0	0	24958	23510	156888	27440	1063449	46705	109224	0	0	8186	541397	0	0
2024-09-16 12:06:47			0	38368	0	0	0	24955	23520	156928	27410	1063493	46683	109223	0	0	8188	540477	0	0
2024-09-16 12:07:47			0	38383	0	0	0	24953	23520	156820	27362	1063493	46694	109222	0	0	8189	539897	0	0
2024-09-16 12:08:47			0	38404	0	0	0	24953	23530	156760	27287	1063538	46673	109222	0	0	8190	539056	0	0
2024-09-16 12:09:47			0	38395	0	0	0	24966	23520	156788	27071	1063556	46684	109227	0	0	8189	539434	0	0
2024-09-16 12:10:47			0	38401	0	0	0	24971	23530	156708	27441	1063592	46707	109229	0	0	8190	539172	0	0
2024-09-16 12:11:47			0	38400	0	0	0	24971	23530	156768	27135	1063601	46685	109229	0	0	8189	539210	0	0
2024-09-16 12:12:47			0	38424	0	0	0	24984	23530	156632	27088	1063618	46707	109234	0	0	8191	538285	0	0
2024-09-16 12:13:47			0	38421	0	0	0	24986	23540	156568	27267	1063690	46708	109235	0	0	8190	538370	0	0
2024-09-16 12:14:47			0	38444	0	0	0	24999	23550	156668	27286	1063708	46697	109240	0	0	8192	537453	0	0
2024-09-16 12:15:47			0	38494	0	0	0	25002	23550	156492	27267	1063627	46719	109241	0	0	8194	535529	0	0
2024-09-16 12:16:47			0	38512	0	0	0	25005	23550	156388	26821	1063743	46709	109242	0	0	8195	534838	0	0
2024-09-16 12:17:47			0	38514	0	0	0	25012	23550	156288	27175	1063734	46719	109245	0	0	8195	534761	0	0
2024-09-16 12:18:47			0	38532	0	0	0	25010	23560	156268	27189	1063761	46688	109244	0	0	8197	534040	0	0
2024-09-16 12:19:47			0	38538	0	0	0	25020	23580	156236	27490	1063869	46712	109248	0	0	8197	533750	0	0
2024-09-16 12:20:47			0	38538	0	0	0	25025	23580	156220	27478	1063842	46712	109250	0	0	8197	533750	0	0
2024-09-16 12:21:47			0	38531	0	0	0	25018	23570	156072	27078	1063860	46700	109247	0	0	8196	534049	0	0
2024-09-16 12:22:47			0	38529	0	0	0	25031	23580	156148	27282	1063905	46690	109252	0	0	8196	534095	0	0
2024-09-16 12:23:47			0	38540	0	0	0	25031	23580	156108	27306	1063842	46701	109252	0	0	8197	533673	0	0
2024-09-16 12:24:47			0	38545	0	0	0	25023	23580	156192	27329	1063878	46712	109249	0	0	8197	533482	0	0
2024-09-16 12:25:47			0	38537	0	0	0	25036	23590	156176	27457	1063860	46713	109254	0	0	8197	533758	0	0
2024-09-16 12:26:47			0	38530	0	0	0	25033	23590	156240	27383	1063896	46702	109253	0	0	8196	534027	0	0
2024-09-16 12:27:47			0	38514	0	0	0	25041	23600	156184	27166	1063905	46703	109256	0	0	8195	534611	0	0
2024-09-16 12:28:47			0	38498	0	0	0	25041	23590	156280	27355	1063967	46702	109256	0	0	8194	535255	0	0
2024-09-16 12:29:47			0	38510	0	0	0	25044	23600	156348	27046	1063887	46704	109257	0	0	8195	534764	0	0
2024-09-16 12:30:47			0	38508	0	0	0	25041	23610	156460	27315	1064003	46704	109256	0	0	8195	534811	0	0
2024-09-16 12:31:47			0	38481	0	0	0	25046	23610	156440	27336	1063986	46693	109258	0	0	8193	535848	0	0
2024-09-16 12:32:47			0	38474	0	0	0	25051	23610	156364	27249	1064003	46704	109260	0	0	8193	536118	0	0
2024-09-16 12:33:47			0	38467	0	0	0	25054	23610	156408	27509	1063950	46715	109261	0	0	8192	536387	0	0
2024-09-16 12:34:47			0	38480	0	0	0	25054	23610	156516	27438	1063959	46693	109261	0	0	8193	535887	0	0
2024-09-16 12:35:47			0	38479	0	0	0	25051	23620	156440	27126	1064030	46695	109260	0	0	8193	535895	0	0
2024-09-16 12:36:47			0	38474	0	0	0	25051	23610	156432	27156	1063959	46704	109260	0	0	8193	536118	0	0
2024-09-16 12:37:47			0	38479	0	0	0	25057	23620	156356	27320	1064110	46695	109262	0	0	8193	535895	0	0
2024-09-16 12:38:47			0	38488	0	0	0	25067	23620	156304	27074	1064075	46716	109266	0	0	8193	535549	0	0
2024-09-16 12:39:47			0	38503	0	0	0	25062	23630	156344	27294	1064093	46717	109264	0	0	8194	534943	0	0
2024-09-16 12:40:47			0	38480	0	0	0	25057	23620	156284	27192	1064057	46706	109262	0	0	8193	535857	0	0
2024-09-16 12:41:47			0	38486	0	0	0	25054	23630	156324	27388	1064039	46695	109261	0	0	8193	535596	0	0
2024-09-16 12:42:47			0	38476	0	0	0	25057	23630	156312	27480	1064066	46695	109262	0	0	8193	535980	0	0
2024-09-16 12:43:47			0	38479	0	0	0	25064	23620	156304	27428	1064057	46706	109265	0	0	8193	535895	0	0
2024-09-16 12:44:47			0	38478	0	0	0	25064	23630	156448	27220	1064039	46717	109265	0	0	8193	535903	0	0
2024-09-16 12:45:47			0	38482	0	0	0	25057	23640	156312	27279	1064111	46685	109262	0	0	8193	535720	0	0
2024-09-16 12:46:47			0	38472	0	0	0	25064	23640	156376	27279	1064137	46707	109265	0	0	8193	536104	0	0
2024-09-16 12:47:47			0	38472	0	0	0	25062	23640	156332	27348	1064057	46685	109264	0	0	8193	536104	0	0
2024-09-16 12:48:47			0	38469	0	0	0	25059	23640	156388	27486	1064120	46697	109263	0	0	8192	536219	0	0
2024-09-16 12:49:47			0	38479	0	0	0	25072	23640	156400	27215	1064191	46696	109268	0	0	8193	535835	0	0
2024-09-16 12:50:47			0	38468	0	0	0	25070	23640	156464	27171	1064111	46707	109267	0	0	8192	536258	0	0
2024-09-16 12:51:47			0	38446	0	0	0	25075	23650	156504	27369	1064155	46708	109269	0	0	8191	537074	0	0
2024-09-16 12:52:47			0	38460	0	0	0	25083	23640	156436	27293	1064093	46697	109272	0	0	8192	536566	0	0
2024-09-16 12:53:47			0	38450	0	0	0	25093	23650	156384	27575	1064129	46697	109276	0	0	8191	536920	0	0
2024-09-16 12:54:47			0	38457	0	0	0	25096	23650	156472	27265	1064182	46708	109277	0	0	8191	536651	0	0
2024-09-16 12:55:47			0	38467	0	0	0	25101	23650	156480	27521	1064164	46708	109279	0	0	8192	536266	0	0
2024-09-16 12:56:47			0	38498	0	0	0	25103	23650	156352	27383	1064271	46698	109280	0	0	8193	535075	0	0
2024-09-16 12:57:47			0	38497	0	0	0	25114	23670	156376	27561	1064218	46722	109284	0	0	8193	535053	0	0
2024-09-16 12:58:47			0	38490	0	0	0	25124	23670	156312	27699	1064218	46700	109288	0	0	8193	535322	0	0
2024-09-16 12:59:47			0	38538	0	0	0	25129	23660	156164	27635	1064289	46709	109290	0	0	8195	533510	0	0
2024-09-16 13:00:47			0	38572	0	0	0	25127	23680	156088	27407	1064343	46710	109289	0	0	8197	532147	0	0
2024-09-16 13:01:47			0	38585	0	0	0	25114	23680	155892	27502	1064370	46722	109284	0	0	8198	531650	0	0
2024-09-16 13:02:47			0	38582	0	0	0	25127	23670	155852	27422	1064281	46722	109289	0	0	8198	531795	0	0
2024-09-16 13:03:47			0	38597	0	0	0	25129	23670	155768	27504	1064334	46710	109290	0	0	8199	531221	0	0
2024-09-16 13:04:47			0	38627	0	0	0	25114	23690	155780	27431	1064335	46724	109284	0	0	8201	530015	0	0
2024-09-16 13:05:47			0	38622	0	0	0	25124	23690	155748	27594	1064361	46713	109288	0	0	8200	530206	0	0
2024-09-16 13:06:47			0	38617	0	0	0	25111	23690	155816	27483	1064335	46702	109283	0	0	8200	530397	0	0
2024-09-16 13:07:47			0	38609	0	0	0	25116	23690	155788	27232	1064370	46713	109285	0	0	8200	530703	0	0
2024-09-16 13:08:47			0	38639	0	0	0	25142	23690	155732	27748	1064361	46713	109295	0	0	8201	529557	0	0
2024-09-16 13:09:47			0	38649	0	0	0	25150	23690	155648	27327	1064424	46724	109298	0	0	8202	529175	0	0
2024-09-16 13:10:47			0	38702	0	0	0	25145	23700	155576	27696	1064486	46724	109296	0	0	8205	527126	0	0
2024-09-16 13:11:47			0	38721	0	0	0	25140	23690	155412	27788	1064370	46713	109294	0	0	8206	526433	0	0
2024-09-16 13:12:47			0	38718	0	0	0	25140	23710	155384	27327	1064451	46704	109294	0	0	8206	526488	0	0
2024-09-16 13:13:47			0	38716	0	0	0	25137	23710	155244	27405	1064487	46714	109293	0	0	8206	526564	0	0
2024-09-16 13:14:47			0	38733	0	0	0	25142	23710	155333	27431	1064424	46714	109295	0	0	8207	525918	0	0
2024-09-16 13:15:47			0	38718	0	0	0	25137	23720	155340	27263	1064469	46726	109293	0	0	8206	526459	0	0
2024-09-16 13:16:47			0	38717	0	0	0	25142	23700	155380	27450	1064495	46703	109295	0	0	8206	526556	0	0
2024-09-16 13:17:47			0	38731	0	0	0	25150	23710	155221	27315	1064487	46693	109298	0	0	8206	525994	0	0
2024-09-16 13:18:47			0	38741	0	0	0	25161	23720	155273	27395	1064496	46704	109302	0	0	8207	525584	0	0
2024-09-16 13:19:47			0	38745	0	0	0	25163	23710	155265	27355	1064540	46714	109303	0	0	8207	525462	0	0
2024-09-16 13:20:47			0	38772	0	0	0	25163	23710	155137	27476	1064540	46714	109303	0	0	8209	524437	0	0
2024-09-16 13:21:47			0	38778	0	0	0	25171	23720	155157	27218	1064611	46716	109306	0	0	8209	524180	0	0
2024-09-16 13:22:47			0	38787	0	0	0	25173	23730	155001	27114	1064647	46728	109307	0	0	8209	523809	0	0
2024-09-16 13:23:47			0	38789	0	0	0	25173	23730	154981	27390	1064736	46729	109307	0	0	8209	523733	0	0
2024-09-16 13:24:47			0	38792	0	0	0	25173	23730	154989	27538	1064674	46717	109307	0	0	8210	523620	0	0
2024-09-16 13:25:47			0	38793	0	0	0	25168	23750	155041	27639	1064647	46718	109305	0	0	8210	523523	0	0
2024-09-16 13:26:47			0	38813	0	0	0	25171	23750	155057	27213	1064701	46707	109306	0	0	8211	522765	0	0
2024-09-16 13:27:47			0	38799	0	0	0	25166	23750	154973	27327	1064621	46707	109304	0	0	8210	523296	0	0
2024-09-16 13:28:47			0	38789	0	0	0	25163	23750	155097	27303	1064674	46707	109303	0	0	8210	523675	0	0
2024-09-16 13:29:47			0	38798	0	0	0	25161	23750	155149	27410	1064647	46707	109302	0	0	8210	523333	0	0
2024-09-16 13:30:47			0	38780	0	0	0	25158	23750	155053	27319	1064728	46707	109301	0	0	8209	524016	0	0
2024-09-16 13:31:47			0	38763	0	0	0	25168	23750	155177	27438	1064656	46719	109305	0	0	8208	524661	0	0
2024-09-16 13:32:47			0	38766	0	0	0	25171	23750	155173	27291	1064567	46718	109306	0	0	8208	524547	0	0
2024-09-16 13:33:47			0	38774	0	0	0	25173	23760	155141	27339	1064701	46720	109307	0	0	8209	524214	0	0
2024-09-16 13:34:47			0	38773	0	0	0	25179	23760	155145	27298	1064746	46720	109309	0	0	8209	524252	0	0
2024-09-16 13:35:47			0	38769	0	0	0	25194	23760	155121	27633	1064755	46720	109315	0	0	8208	524403	0	0
2024-09-16 13:36:47			0	38779	0	0	0	25192	23760	155105	27395	1064772	46742	109314	0	0	8209	524024	0	0
2024-09-16 13:37:47			0	38794	0	0	0	25215	23760	155125	27384	1064781	46708	109323	0	0	8209	523456	0	0
2024-09-16 13:38:47			0	38789	0	0	0	25220	23770	155001	27343	1064826	46721	109325	0	0	8209	523616	0	0
2024-09-16 13:39:47			0	38799	0	0	0	25223	23770	155005	27111	1064826	46732	109326	0	0	8209	523237	0	0
2024-09-16 13:40:47			0	38821	0	0	0	25233	23790	155005	27428	1064853	46722	109330	0	0	8211	522345	0	0
2024-09-16 13:41:47			0	38820	0	0	0	25233	23780	154845	27597	1064969	46744	109330	0	0	8210	522412	0	0
2024-09-16 13:42:47			0	38835	0	0	0	25236	23790	154805	27235	1064942	46723	109331	0	0	8211	521815	0	0
2024-09-16 13:43:47			0	38851	0	0	0	25223	23790	154813	27563	1064996	46723	109326	0	0	8212	521210	0	0
2024-09-16 13:44:47			0	38845	0	0	0	25220	23800	154753	27488	1065005	46735	109325	0	0	8212	521408	0	0
2024-09-16 13:45:47			0	38863	0	0	0	25212	23800	154701	27651	1065014	46725	109322	0	0	8213	520728	0	0
2024-09-16 13:46:47			0	38845	0	0	0	25225	23810	154721	27559	1065023	46736	109327	0	0	8212	521379	0	0
2024-09-16 13:47:47			0	38838	0	0	0	25233	23810	154841	27428	1064978	46725	109330	0	0	8212	521643	0	0
2024-09-16 13:48:47			0	38848	0	0	0	25231	23810	154773	27559	1065059	46713	109329	0	0	8212	521265	0	0
2024-09-16 13:49:47			0	38857	0	0	0	25244	23810	154781	27682	1065032	46725	109334	0	0	8212	520925	0	0
2024-09-16 13:50:47			0	38862	0	0	0	25241	23810	154797	27416	1064996	46725	109333	0	0	8213	520736	0	0
2024-09-16 13:51:47			0	38843	0	0	0	25233	23820	154797	27628	1065041	46714	109330	0	0	8212	521425	0	0
2024-09-16 13:52:47			0	38824	0	0	0	25236	23810	154789	27403	1065050	46713	109331	0	0	8211	522173	0	0
2024-09-16 13:53:47			0	38840	0	0	0	25241	23810	154657	27334	1065032	46725	109333	0	0	8212	521568	0	0
2024-09-16 13:54:47			0	38845	0	0	0	25246	23820	154761	27436	1065041	46714	109335	0	0	8212	521349	0	0
2024-09-16 13:55:47			0	38843	0	0	0	25246	23820	154781	27507	1065095	46714	109335	0	0	8212	521425	0	0
2024-09-16 13:56:47			0	38820	0	0	0	25257	23820	154725	27607	1065077	46715	109339	0	0	8210	522295	0	0
2024-09-16 13:57:47			0	38840	0	0	0	25264	23830	154717	27303	1065122	46705	109342	0	0	8211	521509	0	0
2024-09-16 13:58:47			0	38862	0	0	0	25272	23840	154721	27384	1065211	46716	109345	0	0	8212	520648	0	0
2024-09-16 13:59:47			0	38853	0	0	0	25275	23840	154653	27573	1065193	46717	109346	0	0	8212	520988	0	0
2024-09-16 14:00:47			0	38876	0	0	0	25270	23840	154573	27415	1065211	46728	109344	0	0	8213	520120	0	0
2024-09-16 14:01:47			0	38914	0	0	0	25267	23850	154553	27351	1065229	46717	109343	0	0	8216	518658	0	0
2024-09-16 14:02:47			0	38896	0	0	0	25283	23860	154561	27086	1065274	46718	109349	0	0	8214	519307	0	0
2024-09-16 14:03:47			0	38905	0	0	0	25280	23850	154509	27296	1065229	46729	109348	0	0	8215	518997	0	0
2024-09-16 14:04:47			0	38887	0	0	0	25285	23860	154517	27168	1065229	46742	109350	0	0	8214	519646	0	0
2024-09-16 14:05:47			0	38901	0	0	0	25285	23850	154565	27753	1065318	46729	109350	0	0	8214	519148	0	0
2024-09-16 14:06:47			0	38884	0	0	0	25298	23850	154597	27248	1065318	46729	109355	0	0	8213	519789	0	0
2024-09-16 14:07:47			0	38910	0	0	0	25301	23860	154553	27542	1065274	46718	109356	0	0	8215	518779	0	0
2024-09-16 14:08:47			0	38914	0	0	0	25301	23870	154465	27689	1065318	46720	109356	0	0	8215	518599	0	0
2024-09-16 14:09:47			0	38931	0	0	0	25319	23860	154293	27393	1065354	46718	109363	0	0	8216	517988	0	0
2024-09-16 14:10:47			0	38944	0	0	0	25319	23870	154349	27434	1065381	46732	109363	0	0	8216	517470	0	0
2024-09-16 14:11:47			0	38939	0	0	0	25311	23870	154289	27104	1065408	46720	109360	0	0	8216	517658	0	0
2024-09-16 14:12:47			0	38957	0	0	0	25319	23880	154277	27384	1065390	46743	109363	0	0	8217	516952	0	0
2024-09-16 14:13:47			0	38938	0	0	0	25337	23880	154365	26955	1065452	46733	109370	0	0	8216	517667	0	0
2024-09-16 14:14:47			0	38994	0	0	0	25340	23880	154165	27488	1065345	46721	109371	0	0	8219	515562	0	0
2024-09-16 14:15:47			0	39003	0	0	0	25332	23890	154093	27008	1065488	46745	109368	0	0	8220	515195	0	0
2024-09-16 14:16:47			0	39032	0	0	0	25335	23890	153997	27514	1065470	46734	109369	0	0	8221	514108	0	0
2024-09-16 14:17:47			0	38997	0	0	0	25277	23890	154021	27176	1065417	46722	109347	0	0	8220	515420	0	0
2024-09-16 14:18:47			0	38985	0	0	0	25280	23900	154249	27298	1065452	46722	109348	0	0	8220	515842	0	0
2024-09-16 14:19:47			0	38936	0	0	0	25303	23890	154301	27267	1065408	46711	109357	0	0	8216	517713	0	0
2024-09-16 14:20:47			0	38915	0	0	0	25306	23890	154333	27119	1065408	46722	109358	0	0	8215	518503	0	0
2024-09-16 14:21:47			0	38925	0	0	0	25316	23890	154393	27360	1065354	46711	109362	0	0	8216	518127	0	0
2024-09-16 14:22:47			0	38909	0	0	0	25316	23890	154529	27381	1065443	46711	109362	0	0	8215	518729	0	0
2024-09-16 14:23:47			0	38906	0	0	0	25296	23890	154465	27416	1065408	46722	109354	0	0	8215	518842	0	0
2024-09-16 14:24:47			0	38906	0	0	0	25290	23890	154609	27466	1065470	46711	109352	0	0	8215	518842	0	0
2024-09-16 14:25:47			0	38862	0	0	0	25306	23890	154653	27526	1065417	46734	109358	0	0	8212	520502	0	0
2024-09-16 14:26:47			0	38852	0	0	0	25311	23880	154753	27499	1065399	46733	109360	0	0	8211	520909	0	0
2024-09-16 14:27:47			0	38847	0	0	0	25303	23880	154649	27317	1065426	46710	109357	0	0	8211	521098	0	0
2024-09-16 14:28:47			0	38839	0	0	0	25303	23880	154813	27433	1065443	46720	109357	0	0	8211	521400	0	0
2024-09-16 14:29:47			0	38823	0	0	0	25324	23890	154681	27486	1065435	46722	109365	0	0	8210	521975	0	0
2024-09-16 14:30:47			0	38820	0	0	0	25319	23880	154713	27542	1065399	46733	109363	0	0	8209	522118	0	0
2024-09-16 14:31:47			0	38817	0	0	0	25322	23880	154765	27244	1065426	46710	109364	0	0	8209	522231	0	0
2024-09-16 14:32:47			0	38822	0	0	0	25327	23890	154769	27291	1065488	46734	109366	0	0	8209	522013	0	0
2024-09-16 14:33:47			0	38814	0	0	0	25311	23890	154769	27376	1065443	46734	109360	0	0	8209	522316	0	0
2024-09-16 14:34:47			0	38829	0	0	0	25319	23900	154865	27519	1065560	46734	109363	0	0	8210	521719	0	0
2024-09-16 14:35:47			0	38829	0	0	0	25329	23890	154733	27137	1065488	46734	109367	0	0	8210	521748	0	0
2024-09-16 14:36:47			0	38820	0	0	0	25329	23890	154753	27267	1065443	46722	109367	0	0	8209	522089	0	0
2024-09-16 14:37:47			0	38823	0	0	0	25322	23890	154721	27097	1065488	46722	109364	0	0	8210	521975	0	0
2024-09-16 14:38:47			0	38822	0	0	0	25319	23900	154705	27185	1065452	46722	109363	0	0	8210	521984	0	0
2024-09-16 14:39:47			0	38813	0	0	0	25324	23890	154813	27360	1065497	46734	109365	0	0	8209	522353	0	0
2024-09-16 14:40:47			0	38805	0	0	0	25322	23910	154829	27403	1065533	46736	109364	0	0	8209	522597	0	0
2024-09-16 14:41:47			0	38825	0	0	0	25324	23910	154797	26842	1065470	46736	109365	0	0	8210	521841	0	0
2024-09-16 14:42:47			0	38811	0	0	0	25329	23900	154785	27241	1065479	46734	109367	0	0	8209	522400	0	0
2024-09-16 14:43:47			0	38826	0	0	0	25329	23900	154693	27020	1065435	46746	109367	0	0	8210	521832	0	0
2024-09-16 14:44:47			0	38815	0	0	0	25327	23900	154705	27369	1065560	46722	109366	0	0	8209	522248	0	0
2024-09-16 14:45:47			0	38830	0	0	0	25319	23910	154773	27274	1065497	46724	109363	0	0	8210	521652	0	0
2024-09-16 14:46:47			0	38846	0	0	0	25314	23900	154645	27197	1065461	46723	109361	0	0	8211	521076	0	0
2024-09-16 14:47:47			0	38856	0	0	0	25327	23900	154625	27415	1065488	46712	109366	0	0	8211	520699	0	0
2024-09-16 14:48:47			0	38864	0	0	0	25335	23910	154649	27371	1065417	46736	109369	0	0	8212	520368	0	0
2024-09-16 14:49:47			0	38863	0	0	0	25335	23900	154449	27360	1065479	46722	109369	0	0	8212	520435	0	0
2024-09-16 14:50:47			0	38889	0	0	0	25345	23900	154541	27331	1065461	46723	109373	0	0	8213	519454	0	0
2024-09-16 14:51:47			0	38881	0	0	0	25361	23920	154401	27109	1065595	46736	109379	0	0	8212	519697	0	0
2024-09-16 14:52:47			0	38910	0	0	0	25350	23910	154457	27280	1065613	46757	109375	0	0	8214	518633	0	0
2024-09-16 14:53:47			0	38910	0	0	0	25348	23920	154477	27175	1065578	46748	109374	0	0	8214	518604	0	0
2024-09-16 14:54:47			0	38926	0	0	0	25353	23920	154365	26998	1065515	46747	109376	0	0	8215	518001	0	0
2024-09-16 14:55:47			0	38911	0	0	0	25350	23930	154337	27038	1065640	46738	109375	0	0	8214	518537	0	0
2024-09-16 14:56:47			0	38922	0	0	0	25368	23930	154269	27180	1065587	46749	109382	0	0	8215	518123	0	0
2024-09-16 14:57:47			0	38936	0	0	0	25374	23930	154313	27486	1065667	46749	109384	0	0	8215	517596	0	0
2024-09-16 14:58:47			0	38956	0	0	0	25371	23930	154213	27462	1065720	46749	109383	0	0	8217	516844	0	0
2024-09-16 14:59:47			0	38936	0	0	0	25374	23930	154201	27393	1065703	46759	109384	0	0	8215	517596	0	0
2024-09-16 15:00:47			0	38965	0	0	0	25371	23940	154217	27419	1065685	46750	109383	0	0	8217	516476	0	0
2024-09-16 15:01:47			0	38950	0	0	0	25379	23930	154237	27490	1065676	46738	109386	0	0	8216	517069	0	0
2024-09-16 15:02:47			0	38959	0	0	0	25386	23940	154125	27185	1065792	46739	109389	0	0	8217	516702	0	0
2024-09-16 15:03:47			0	38976	0	0	0	25379	23950	154141	27590	1065730	46729	109386	0	0	8218	516034	0	0
2024-09-16 15:04:47			0	38964	0	0	0	25386	23930	154205	27300	1065729	46738	109389	0	0	8217	516543	0	0
2024-09-16 15:05:47			0	38950	0	0	0	25381	23930	154149	27261	1065667	46738	109387	0	0	8216	517069	0	0
2024-09-16 15:06:47			0	38950	0	0	0	25386	23940	154197	27521	1065748	46739	109389	0	0	8216	517040	0	0
2024-09-16 15:07:47			0	38923	0	0	0	25384	23950	154181	27384	1065703	46750	109388	0	0	8215	518027	0	0
2024-09-16 15:08:47			0	38912	0	0	0	25384	23940	154329	27327	1065775	46739	109388	0	0	8214	518470	0	0
2024-09-16 15:09:47			0	38916	0	0	0	25384	23950	154337	27386	1065730	46740	109388	0	0	8214	518290	0	0
2024-09-16 15:10:47			0	38898	0	0	0	25389	23960	154345	27222	1065828	46730	109390	0	0	8213	518939	0	0
2024-09-16 15:11:47			0	38910	0	0	0	25389	23950	154349	27412	1065757	46717	109390	0	0	8214	518516	0	0
2024-09-16 15:12:47			0	38910	0	0	0	25381	23950	154353	27452	1065730	46740	109387	0	0	8214	518516	0	0
2024-09-16 15:13:47			0	38914	0	0	0	25379	23950	154345	27447	1065766	46730	109386	0	0	8214	518365	0	0
2024-09-16 15:14:47			0	38923	0	0	0	25368	23960	154269	27578	1065748	46741	109382	0	0	8215	517998	0	0
2024-09-16 15:15:47			0	38926	0	0	0	25366	23960	154229	27338	1065802	46730	109381	0	0	8215	517885	0	0
2024-09-16 15:16:47			0	38907	0	0	0	25376	23950	154269	27374	1065686	46718	109385	0	0	8214	518629	0	0
2024-09-16 15:17:47			0	38929	0	0	0	25366	23960	154321	27405	1065837	46741	109381	0	0	8215	517772	0	0
2024-09-16 15:18:47			0	38926	0	0	0	25363	23950	154425	27317	1065712	46741	109380	0	0	8215	517914	0	0
2024-09-16 15:19:47			0	38914	0	0	0	25366	23950	154345	27464	1065730	46729	109381	0	0	8214	518365	0	0
2024-09-16 15:20:47			0	38892	0	0	0	25368	23950	154385	27632	1065712	46741	109382	0	0	8213	519194	0	0
2024-09-16 15:21:47			0	38885	0	0	0	25358	23950	154425	27386	1065757	46740	109378	0	0	8213	519458	0	0
2024-09-16 15:22:47			0	38907	0	0	0	25363	23950	154345	27543	1065659	46718	109380	0	0	8214	518629	0	0
2024-09-16 15:23:47			0	38914	0	0	0	25366	23940	154317	27402	1065694	46728	109381	0	0	8214	518395	0	0
2024-09-16 15:24:47			0	38909	0	0	0	25358	23940	154333	27412	1065668	46739	109378	0	0	8214	518583	0	0
2024-09-16 15:25:47			0	38913	0	0	0	25348	23940	154297	27100	1065632	46728	109374	0	0	8215	518432	0	0
2024-09-16 15:26:47			0	38905	0	0	0	25355	23940	154261	27225	1065668	46728	109377	0	0	8214	518734	0	0
2024-09-16 15:27:47			0	38933	0	0	0	25363	23940	154209	27329	1065721	46728	109380	0	0	8215	517680	0	0
2024-09-16 15:28:47			0	38921	0	0	0	25350	23940	154349	27265	1065748	46739	109375	0	0	8215	518131	0	0
2024-09-16 15:29:47			0	38895	0	0	0	25353	23950	154425	27457	1065712	46730	109376	0	0	8213	519081	0	0
2024-09-16 15:30:47			0	38856	0	0	0	25363	23950	154525	27263	1065703	46717	109380	0	0	8211	520552	0	0
2024-09-16 15:31:47			0	38852	0	0	0	25337	23940	154609	27222	1065685	46728	109370	0	0	8211	520732	0	0
2024-09-16 15:32:47			0	38834	0	0	0	25335	23940	154717	27180	1065668	46728	109369	0	0	8210	521412	0	0
2024-09-16 15:33:47			0	38795	0	0	0	25337	23930	154657	27353	1065622	46738	109370	0	0	8208	522917	0	0
2024-09-16 15:34:47			0	38800	0	0	0	25342	23930	154773	26977	1065703	46738	109372	0	0	8208	522727	0	0
2024-09-16 15:35:47			0	38800	0	0	0	25337	23930	154741	27300	1065613	46738	109370	0	0	8208	522727	0	0
2024-09-16 15:36:47			0	38788	0	0	0	25342	23930	154633	27244	1065676	46738	109372	0	0	8207	523182	0	0
2024-09-16 15:37:47			0	38812	0	0	0	25332	23920	154793	27307	1065604	46737	109368	0	0	8209	522303	0	0
2024-09-16 15:38:47			0	38797	0	0	0	25337	23930	154681	27320	1065613	46727	109370	0	0	8208	522841	0	0
2024-09-16 15:39:47			0	38796	0	0	0	25332	23930	154681	27225	1065640	46727	109368	0	0	8208	522879	0	0
2024-09-16 15:40:47			0	38803	0	0	0	25342	23920	154697	27097	1065578	46737	109372	0	0	8208	522643	0	0
2024-09-16 15:41:47			0	38825	0	0	0	25350	23930	154753	27253	1065587	46749	109375	0	0	8209	521782	0	0
2024-09-16 15:42:47			0	38835	0	0	0	25345	23920	154637	27267	1065569	46724	109373	0	0	8210	521433	0	0
2024-09-16 15:43:47			0	38846	0	0	0	25332	23930	154541	27280	1065622	46738	109368	0	0	8211	520988	0	0
2024-09-16 15:44:47			0	38873	0	0	0	25342	23920	154625	27369	1065631	46737	109372	0	0	8212	519999	0	0
2024-09-16 15:45:47			0	38870	0	0	0	25332	23920	154493	27192	1065578	46737	109368	0	0	8212	520112	0	0
2024-09-16 15:46:47			0	38903	0	0	0	25327	23920	154477	27131	1065569	46736	109366	0	0	8214	518868	0	0
2024-09-16 15:47:47			0	38892	0	0	0	25322	23920	154457	27261	1065542	46724	109364	0	0	8214	519282	0	0
2024-09-16 15:48:47			0	38909	0	0	0	25332	23910	154289	27168	1065560	46736	109368	0	0	8214	518671	0	0
2024-09-16 15:49:47			0	38911	0	0	0	25309	23920	154301	27391	1065578	46737	109359	0	0	8215	518566	0	0
2024-09-16 15:50:47			0	38934	0	0	0	25316	23920	154201	27426	1065578	46726	109362	0	0	8216	517700	0	0
2024-09-16 15:51:47			0	38936	0	0	0	25322	23910	154185	27405	1065613	46736	109364	0	0	8216	517654	0	0
2024-09-16 15:52:47			0	38935	0	0	0	25316	23910	154341	27371	1065506	46736	109362	0	0	8216	517692	0	0
2024-09-16 15:53:47			0	38923	0	0	0	25306	23900	154209	27209	1065515	46735	109358	0	0	8216	518173	0	0
2024-09-16 15:54:47			0	38913	0	0	0	25277	23900	154297	27161	1065479	46734	109347	0	0	8216	518549	0	0
2024-09-16 15:55:47			0	38895	0	0	0	25285	23900	154341	27159	1065435	46712	109350	0	0	8214	519227	0	0
2024-09-16 15:56:47			0	38893	0	0	0	25290	23900	154401	27284	1065506	46711	109352	0	0	8214	519303	0	0
2024-09-16 15:57:47			0	38893	0	0	0	25290	23890	154441	27206	1065443	46711	109352	0	0	8214	519332	0	0
2024-09-16 15:58:47			0	38899	0	0	0	25293	23900	154361	26986	1065426	46734	109353	0	0	8214	519077	0	0
2024-09-16 15:59:47			0	38898	0	0	0	25280	23890	154425	26885	1065443	46711	109348	0	0	8215	519144	0	0
2024-09-16 16:00:47			0	38894	0	0	0	25275	23890	154373	27019	1065354	46722	109346	0	0	8214	519294	0	0
2024-09-16 16:01:47			0	38905	0	0	0	25270	23880	154417	27412	1065319	46710	109344	0	0	8215	518909	0	0
2024-09-16 16:02:47			0	38877	0	0	0	25259	23890	154577	27320	1065354	46722	109340	0	0	8214	519936	0	0
2024-09-16 16:03:47			0	38858	0	0	0	25270	23880	154605	27274	1065336	46720	109344	0	0	8212	520682	0	0
2024-09-16 16:04:47			0	38859	0	0	0	25262	23870	154497	27261	1065247	46732	109341	0	0	8213	520674	0	0
2024-09-16 16:05:47			0	38820	0	0	0	25166	23880	154725	27402	1065229	46709	109304	0	0	8212	522118	0	0
2024-09-16 16:06:47			0	38698	0	0	0	25119	23860	155148	27140	1064979	46686	109286	0	0	8206	526804	0	0
2024-09-16 16:07:47			0	38674	0	0	0	25137	23840	155220	27319	1064890	46683	109293	0	0	8204	527776	0	0
2024-09-16 16:08:47			0	38633	0	0	0	25083	23810	155400	27329	1064791	46681	109272	0	0	8202	529428	0	0
2024-09-16 16:09:47			0	38555	0	0	0	25088	23800	155872	27121	1064666	46681	109274	0	0	8198	532438	0	0
2024-09-16 16:10:47			0	38529	0	0	0	25005	23780	155800	27535	1064603	46677	109242	0	0	8197	533494	0	0
2024-09-16 16:11:47			0	38423	0	0	0	25020	23760	156332	27307	1064425	46654	109248	0	0	8191	537627	0	0
2024-09-16 16:12:47			0	38383	0	0	0	25046	23740	156556	27208	1064451	46663	109258	0	0	8188	539229	0	0
2024-09-16 16:13:47			0	38380	0	0	0	25054	23720	156604	27116	1064344	46683	109261	0	0	8188	539406	0	0
2024-09-16 16:14:47			0	38343	0	0	0	25054	23710	156624	27270	1064380	46682	109261	0	0	8186	540865	0	0
2024-09-16 16:15:47			0	38370	0	0	0	25062	23700	156656	27062	1064335	46692	109264	0	0	8187	539853	0	0
2024-09-16 16:16:47			0	38385	0	0	0	25067	23690	156596	27310	1064344	46680	109266	0	0	8188	539304	0	0
2024-09-16 16:17:47			0	38394	0	0	0	25033	23680	156552	27059	1064299	46701	109253	0	0	8189	538987	0	0
2024-09-16 16:18:47			0	38353	0	0	0	25036	23690	156664	27383	1064263	46668	109254	0	0	8186	540540	0	0
2024-09-16 16:19:47			0	38352	0	0	0	25018	23680	156732	27630	1064236	46710	109247	0	0	8187	540609	0	0
2024-09-16 16:20:47			0	38309	0	0	0	24992	23670	156828	27403	1064138	46700	109237	0	0	8184	542303	0	0
2024-09-16 16:21:47			0	38258	0	0	0	24986	23650	157084	27123	1064138	46676	109235	0	0	8182	544341	0	0
2024-09-16 16:22:47			0	38243	0	0	0	24989	23660	157124	27376	1064120	46687	109236	0	0	8181	544893	0	0
2024-09-16 16:23:47			0	38239	0	0	0	24999	23640	157200	27220	1064066	46675	109240	0	0	8180	545109	0	0
2024-09-16 16:24:47			0	38219	0	0	0	24994	23630	157264	27440	1064039	46695	109238	0	0	8179	545917	0	0
2024-09-16 16:25:47			0	38221	0	0	0	24994	23620	157276	26849	1064030	46695	109238	0	0	8179	545870	0	0
2024-09-16 16:26:47			0	38199	0	0	0	24989	23630	157220	27218	1064013	46695	109236	0	0	8178	546695	0	0
2024-09-16 16:27:47			0	38222	0	0	0	24997	23620	157348	27386	1063968	46694	109239	0	0	8179	545831	0	0
2024-09-16 16:28:47			0	38221	0	0	0	25007	23620	157312	27173	1064030	46673	109243	0	0	8179	545870	0	0
2024-09-16 16:29:47			0	38207	0	0	0	24979	23600	157316	27199	1063887	46682	109232	0	0	8178	546476	0	0
2024-09-16 16:30:47			0	38197	0	0	0	24986	23600	157408	27069	1063887	46682	109235	0	0	8178	546866	0	0
2024-09-16 16:31:47			0	38210	0	0	0	24992	23600	157356	27039	1063861	46693	109237	0	0	8178	546360	0	0
2024-09-16 16:32:47			0	38194	0	0	0	24976	23600	157348	27319	1063878	46681	109231	0	0	8178	546982	0	0
2024-09-16 16:33:47			0	38203	0	0	0	24976	23600	157428	27201	1063825	46692	109231	0	0	8178	546632	0	0
2024-09-16 16:34:47			0	38210	0	0	0	24966	23590	157432	27339	1063834	46691	109227	0	0	8179	546391	0	0
2024-09-16 16:35:47			0	38172	0	0	0	24927	23590	157632	27150	1063789	46691	109212	0	0	8177	547870	0	0
2024-09-16 16:36:47			0	38149	0	0	0	24942	23580	157568	27384	1063771	46679	109218	0	0	8176	548798	0	0
2024-09-16 16:37:47			0	38173	0	0	0	24945	23570	157624	27362	1063780	46678	109219	0	0	8177	547893	0	0
2024-09-16 16:38:47			0	38136	0	0	0	24953	23570	157592	26998	1063717	46678	109222	0	0	8175	549336	0	0
2024-09-16 16:39:47			0	38143	0	0	0	24953	23580	157624	27085	1063736	46679	109222	0	0	8175	549032	0	0
2024-09-16 16:40:47			0	38158	0	0	0	24953	23560	157600	27209	1063752	46699	109222	0	0	8176	548509	0	0
2024-09-16 16:41:47			0	38164	0	0	0	24958	23560	157648	27180	1063761	46699	109224	0	0	8176	548275	0	0
2024-09-16 16:42:47			0	38170	0	0	0	24955	23550	157608	27048	1063743	46709	109223	0	0	8176	548072	0	0
2024-09-16 16:43:47			0	38169	0	0	0	24948	23560	157660	26984	1063726	46688	109220	0	0	8177	548080	0	0
2024-09-16 16:44:47			0	38172	0	0	0	24942	23550	157656	27206	1063654	46686	109218	0	0	8177	547993	0	0
2024-09-16 16:45:47			0	38163	0	0	0	24945	23550	157584	27235	1063681	46686	109219	0	0	8176	548344	0	0
2024-09-16 16:46:47			0	38156	0	0	0	24950	23550	157656	27145	1063681	46686	109221	0	0	8176	548618	0	0
2024-09-16 16:47:47			0	38153	0	0	0	24932	23540	157592	27182	1063672	46708	109214	0	0	8176	548765	0	0
2024-09-16 16:48:47			0	38161	0	0	0	24935	23560	157704	27128	1063752	46688	109215	0	0	8176	548392	0	0
2024-09-16 16:49:47			0	38140	0	0	0	24927	23550	157708	27222	1063663	46687	109212	0	0	8175	549242	0	0
2024-09-16 16:50:47			0	38149	0	0	0	24924	23530	157780	27227	1063601	46685	109211	0	0	8176	548952	0	0
2024-09-16 16:51:47			0	38153	0	0	0	24924	23550	157776	27466	1063708	46686	109211	0	0	8176	548735	0	0
2024-09-16 16:52:47			0	38144	0	0	0	24916	23530	157816	27183	1063654	46685	109208	0	0	8176	549147	0	0
2024-09-16 16:53:47			0	38147	0	0	0	24916	23540	157824	27039	1063636	46675	109208	0	0	8176	549000	0	0
2024-09-16 16:54:47			0	38138	0	0	0	24927	23530	157768	27005	1063592	46695	109212	0	0	8175	549382	0	0
2024-09-16 16:55:47			0	38145	0	0	0	24924	23520	157732	27336	1063556	46673	109211	0	0	8175	549139	0	0
2024-09-16 16:56:47			0	38143	0	0	0	24927	23530	157736	27060	1063592	46695	109212	0	0	8175	549186	0	0
2024-09-16 16:57:47			0	38156	0	0	0	24935	23520	157656	27377	1063529	46695	109215	0	0	8176	548710	0	0
2024-09-16 16:58:47			0	38186	0	0	0	24942	23530	157780	27156	1063574	46685	109218	0	0	8178	547509	0	0
2024-09-16 16:59:47			0	38160	0	0	0	24937	23530	157732	27261	1063565	46673	109216	0	0	8176	548523	0	0
2024-09-16 17:00:47			0	38167	0	0	0	24937	23530	157668	27201	1063601	46696	109216	0	0	8176	548250	0	0
2024-09-16 17:01:47			0	38162	0	0	0	24929	23520	157636	27027	1063520	46694	109213	0	0	8176	548476	0	0
2024-09-16 17:02:47			0	38156	0	0	0	24922	23520	157676	27175	1063574	46694	109210	0	0	8176	548710	0	0
2024-09-16 17:03:47			0	38167	0	0	0	24914	23520	157644	26979	1063547	46683	109207	0	0	8177	548281	0	0
2024-09-16 17:04:47			0	38160	0	0	0	24906	23530	157628	27048	1063565	46684	109204	0	0	8177	548523	0	0
2024-09-16 17:05:47			0	38149	0	0	0	24919	23520	157704	27076	1063547	46672	109209	0	0	8176	548983	0	0
2024-09-16 17:06:47			0	38155	0	0	0	24914	23520	157680	27078	1063529	46673	109207	0	0	8176	548749	0	0
2024-09-16 17:07:47			0	38152	0	0	0	24916	23520	157764	27223	1063547	46683	109208	0	0	8176	548866	0	0
2024-09-16 17:08:47			0	38149	0	0	0	24919	23520	157764	26906	1063493	46683	109209	0	0	8176	548983	0	0
2024-09-16 17:09:47			0	38176	0	0	0	24919	23510	157684	27249	1063502	46671	109209	0	0	8177	547961	0	0
2024-09-16 17:10:47			0	38173	0	0	0	24909	23510	157564	27230	1063502	46682	109205	0	0	8177	548078	0	0
2024-09-16 17:11:47			0	38172	0	0	0	24937	23520	157636	27199	1063520	46661	109216	0	0	8177	548086	0	0
2024-09-16 17:12:47			0	38209	0	0	0	24953	23510	157468	27046	1063502	46671	109222	0	0	8179	546675	0	0
2024-09-16 17:13:47			0	38214	0	0	0	24932	23510	157508	26953	1063529	46671	109214	0	0	8179	546481	0	0
2024-09-16 17:14:47			0	38253	0	0	0	24992	23510	157396	27182	1063538	46683	109237	0	0	8180	544964	0	0
2024-09-16 17:15:47			0	38241	0	0	0	24958	23500	157404	27334	1063520	46682	109224	0	0	8180	545461	0	0
2024-09-16 17:16:47			0	38223	0	0	0	24940	23510	157392	27443	1063582	46693	109217	0	0	8180	546130	0	0
2024-09-16 17:17:47			0	38261	0	0	0	25007	23510	157404	27261	1063582	46693	109243	0	0	8181	544653	0	0
2024-09-16 17:18:47			0	38255	0	0	0	24966	23510	157288	27341	1063556	46693	109227	0	0	8181	544886	0	0
2024-09-16 17:19:47			0	38256	0	0	0	24968	23510	157312	27301	1063565	46694	109228	0	0	8181	544847	0	0
2024-09-16 17:20:47			0	38304	0	0	0	25007	23510	157152	27282	1063618	46694	109243	0	0	8183	542985	0	0
2024-09-16 17:21:47			0	38275	0	0	0	24966	23520	157252	27291	1063627	46706	109227	0	0	8182	544079	0	0
2024-09-16 17:22:47			0	38304	0	0	0	25002	23510	157136	27033	1063582	46705	109241	0	0	8183	542985	0	0
2024-09-16 17:23:47			0	38290	0	0	0	25005	23510	157108	27383	1063618	46706	109242	0	0	8182	543528	0	0
2024-09-16 17:24:47			0	38348	0	0	0	24992	23520	156968	27379	1063609	46695	109237	0	0	8186	541250	0	0
2024-09-16 17:25:47			0	38323	0	0	0	24968	23530	157124	27164	1063645	46707	109228	0	0	8185	542187	0	0
2024-09-16 17:26:47			0	38294	0	0	0	24963	23520	157104	27447	1063636	46684	109226	0	0	8183	543342	0	0
2024-09-16 17:27:47			0	38256	0	0	0	24945	23530	157248	27149	1063672	46695	109219	0	0	8182	544786	0	0
2024-09-16 17:28:47			0	38248	0	0	0	24922	23520	157292	27381	1063583	46707	109210	0	0	8181	545128	0	0
2024-09-16 17:29:47			0	38216	0	0	0	24942	23520	157396	27365	1063583	46695	109218	0	0	8179	546372	0	0
2024-09-16 17:30:47			0	38292	0	0	0	25028	23520	157276	27317	1063609	46673	109251	0	0	8182	543420	0	0
2024-09-16 17:31:47			0	38312	0	0	0	24989	23530	157128	26880	1063592	46695	109236	0	0	8184	542614	0	0
2024-09-16 17:32:47			0	38302	0	0	0	24989	23520	157088	27166	1063636	46684	109236	0	0	8183	543032	0	0
2024-09-16 17:33:47			0	38298	0	0	0	24968	23530	157148	27019	1063645	46684	109228	0	0	8184	543156	0	0
2024-09-16 17:34:47			0	38255	0	0	0	24927	23530	157236	27211	1063645	46684	109212	0	0	8182	544825	0	0
2024-09-16 17:35:47			0	38249	0	0	0	24927	23530	157336	27059	1063592	46684	109212	0	0	8181	545058	0	0
2024-09-16 17:36:47			0	38251	0	0	0	24914	23540	157288	27142	1063556	46697	109207	0	0	8182	544950	0	0
2024-09-16 17:37:47			0	38250	0	0	0	24937	23530	157328	27251	1063494	46685	109216	0	0	8181	545019	0	0
2024-09-16 17:38:47			0	38281	0	0	0	24942	23510	157324	27187	1063556	46682	109218	0	0	8183	543877	0	0
2024-09-16 17:39:47			0	38241	0	0	0	24927	23520	157356	27357	1063556	46684	109212	0	0	8181	545400	0	0
2024-09-16 17:40:47			0	38265	0	0	0	24953	23520	157460	27059	1063583	46684	109222	0	0	8182	544467	0	0
2024-09-16 17:41:47			0	38275	0	0	0	24950	23510	157428	27372	1063565	46672	109221	0	0	8182	544110	0	0
2024-09-16 17:42:47			0	38265	0	0	0	24940	23510	157308	27015	1063556	46682	109217	0	0	8182	544498	0	0
2024-09-16 17:43:47			0	38249	0	0	0	24929	23520	157400	27223	1063609	46684	109213	0	0	8181	545089	0	0
2024-09-16 17:44:47			0	38258	0	0	0	24909	23510	157276	27154	1063475	46705	109205	0	0	8182	544770	0	0
2024-09-16 17:45:47			0	38261	0	0	0	24919	23520	157304	26828	1063529	46684	109209	0	0	8182	544623	0	0
2024-09-16 17:46:47			0	38256	0	0	0	24903	23500	157280	27464	1063520	46671	109203	0	0	8182	544878	0	0
2024-09-16 17:47:47			0	38259	0	0	0	24922	23510	157280	27310	1063502	46682	109210	0	0	8182	544731	0	0
2024-09-16 17:48:47			0	38253	0	0	0	24906	23510	157288	27183	1063475	46693	109204	0	0	8182	544964	0	0
2024-09-16 17:49:47			0	38267	0	0	0	24898	23500	157288	27152	1063484	46681	109201	0	0	8183	544451	0	0
2024-09-16 17:50:47			0	38286	0	0	0	24916	23500	157264	27343	1063520	46671	109208	0	0	8184	543713	0	0
2024-09-16 17:51:47			0	38304	0	0	0	24903	23500	157224	27140	1063457	46681	109203	0	0	8185	543015	0	0
2024-09-16 17:52:47			0	38307	0	0	0	24901	23500	157192	27222	1063431	46681	109202	0	0	8185	542899	0	0
2024-09-16 17:53:47			0	38307	0	0	0	24890	23510	157144	27183	1063449	46671	109198	0	0	8185	542868	0	0
2024-09-16 17:54:47			0	38322	0	0	0	24906	23500	157144	26977	1063431	46681	109204	0	0	8186	542318	0	0
2024-09-16 17:55:47			0	38324	0	0	0	24883	23500	157156	27343	1063440	46682	109195	0	0	8186	542240	0	0
2024-09-16 17:56:47			0	38317	0	0	0	24872	23490	157132	26965	1063395	46692	109191	0	0	8186	542542	0	0
2024-09-16 17:57:47			0	38299	0	0	0	24875	23490	157060	27081	1063413	46680	109192	0	0	8185	543240	0	0
2024-09-16 17:58:47			0	38305	0	0	0	24893	23490	157056	27358	1063368	46670	109199	0	0	8185	543007	0	0
2024-09-16 17:59:47			0	38297	0	0	0	24903	23480	157180	27043	1063395	46679	109203	0	0	8184	543348	0	0
2024-09-16 18:00:47			0	38317	0	0	0	24922	23490	157096	27332	1063422	46692	109210	0	0	8185	542542	0	0
2024-09-16 18:01:47			0	38317	0	0	0	24927	23490	157056	27060	1063493	46691	109212	0	0	8185	542542	0	0
2024-09-16 18:02:47			0	38324	0	0	0	24937	23480	157084	27405	1063502	46690	109216	0	0	8185	542301	0	0
2024-09-16 18:03:47			0	38328	0	0	0	24937	23490	157064	27272	1063448	46681	109216	0	0	8186	542116	0	0
2024-09-16 18:04:47			0	38354	0	0	0	24924	23490	156952	27267	1063493	46691	109211	0	0	8187	541109	0	0
2024-09-16 18:05:47			0	38361	0	0	0	24935	23500	157084	27388	1063511	46692	109215	0	0	8188	540808	0	0
2024-09-16 18:06:47			0	38365	0	0	0	24945	23500	157128	27360	1063484	46703	109219	0	0	8188	540653	0	0
2024-09-16 18:07:47			0	38361	0	0	0	24955	23510	157188	27176	1063582	46705	109223	0	0	8187	540778	0	0
2024-09-16 18:08:47			0	38379	0	0	0	24961	23510	157120	27170	1063636	46682	109225	0	0	8188	540082	0	0
2024-09-16 18:09:47			0	38377	0	0	0	24961	23510	156984	27203	1063609	46682	109225	0	0	8188	540159	0	0
2024-09-16 18:10:47			0	38366	0	0	0	24963	23500	157000	27367	1063547	46693	109226	0	0	8187	540615	0	0
2024-09-16 18:11:47			0	38367	0	0	0	24953	23520	157012	27147	1063627	46683	109222	0	0	8188	540515	0	0
2024-09-16 18:12:47			0	38360	0	0	0	24950	23520	156988	27067	1063636	46695	109221	0	0	8187	540786	0	0
2024-09-16 18:13:47			0	38370	0	0	0	24966	23520	157040	27242	1063636	46695	109227	0	0	8188	540400	0	0
2024-09-16 18:14:47			0	38356	0	0	0	24968	23520	156948	27457	1063707	46694	109228	0	0	8187	540941	0	0
2024-09-16 18:15:47			0	38376	0	0	0	24979	23520	157024	27201	1063654	46694	109232	0	0	8188	540168	0	0
2024-09-16 18:16:47			0	38365	0	0	0	24971	23540	157032	27441	1063663	46708	109229	0	0	8187	540532	0	0
2024-09-16 18:17:47			0	38382	0	0	0	24963	23530	156984	27370	1063707	46696	109226	0	0	8189	539905	0	0
2024-09-16 18:18:47			0	38356	0	0	0	24976	23530	156928	27547	1063698	46707	109231	0	0	8187	540910	0	0
2024-09-16 18:19:47			0	38362	0	0	0	24958	23530	156968	27289	1063654	46696	109224	0	0	8187	540678	0	0
2024-09-16 18:20:47			0	38363	0	0	0	24966	23530	156932	27182	1063645	46684	109227	0	0	8187	540640	0	0
2024-09-16 18:21:47			0	38362	0	0	0	24971	23530	157052	27459	1063654	46696	109229	0	0	8187	540678	0	0
2024-09-16 18:22:47			0	38364	0	0	0	24961	23530	156976	27370	1063681	46696	109225	0	0	8188	540601	0	0
2024-09-16 18:23:47			0	38368	0	0	0	24966	23530	156944	27183	1063618	46695	109227	0	0	8188	540446	0	0
2024-09-16 18:24:47			0	38360	0	0	0	24958	23530	156948	26979	1063707	46696	109224	0	0	8187	540756	0	0
2024-09-16 18:25:47			0	38370	0	0	0	24976	23530	157044	27229	1063707	46696	109231	0	0	8188	540369	0	0
2024-09-16 18:26:47			0	38362	0	0	0	25015	23530	156968	26991	1063681	46696	109246	0	0	8186	540678	0	0
2024-09-16 18:27:47			0	38376	0	0	0	25020	23540	156872	26981	1063725	46697	109248	0	0	8187	540107	0	0
2024-09-16 18:28:47			0	38392	0	0	0	25046	23530	156960	27391	1063734	46685	109258	0	0	8188	539519	0	0
2024-09-16 18:29:47			0	38419	0	0	0	25093	23540	156848	27315	1063797	46697	109276	0	0	8189	538447	0	0
2024-09-16 18:30:47			0	38436	0	0	0	25106	23540	156788	26920	1063859	46686	109281	0	0	8189	537792	0	0
2024-09-16 18:31:47			0	38455	0	0	0	25109	23550	156672	27015	1063957	46720	109282	0	0	8190	537030	0	0
2024-09-16 18:32:47			0	38460	0	0	0	25106	23570	156596	26935	1064011	46733	109281	0	0	8191	536777	0	0
2024-09-16 18:33:47			0	38471	0	0	0	25096	23580	156604	26970	1064092	46734	109277	0	0	8192	536323	0	0
2024-09-16 18:34:47			0	38471	0	0	0	25083	23590	156628	27163	1064128	46735	109272	0	0	8192	536293	0	0
2024-09-16 18:35:47			0	38453	0	0	0	25085	23610	156568	27197	1064164	46726	109273	0	0	8191	536925	0	0
2024-09-16 18:36:47			0	38469	0	0	0	25096	23610	156520	27249	1064173	46737	109277	0	0	8192	536310	0	0
2024-09-16 18:37:47			0	38486	0	0	0	25096	23620	156420	27197	1064217	46728	109277	0	0	8193	535626	0	0
2024-09-16 18:38:47			0	38466	0	0	0	25093	23630	156516	26883	1064253	46717	109276	0	0	8192	536365	0	0
2024-09-16 18:39:47			0	38473	0	0	0	25098	23630	156488	26902	1064280	46706	109278	0	0	8192	536096	0	0
2024-09-16 18:40:47			0	38477	0	0	0	25106	23630	156440	27095	1064253	46717	109281	0	0	8192	535942	0	0
2024-09-16 18:41:47			0	38463	0	0	0	25088	23640	156412	27343	1064325	46696	109274	0	0	8192	536450	0	0
2024-09-16 18:42:47			0	38457	0	0	0	25109	23640	156604	26909	1064271	46718	109282	0	0	8191	536681	0	0
2024-09-16 18:43:47			0	38445	0	0	0	25124	23640	156500	26930	1064280	46719	109288	0	0	8190	537143	0	0
2024-09-16 18:44:47			0	38443	0	0	0	25119	23660	156692	27196	1064334	46708	109286	0	0	8190	537159	0	0
2024-09-16 18:45:47			0	38446	0	0	0	25111	23640	156572	26920	1064307	46708	109283	0	0	8190	537104	0	0
2024-09-16 18:46:47			0	38422	0	0	0	25119	23650	156688	26902	1064298	46708	109286	0	0	8189	537998	0	0
2024-09-16 18:47:47			0	38398	0	0	0	25114	23660	156676	26875	1064387	46708	109284	0	0	8187	538893	0	0
2024-09-16 18:48:47			0	38398	0	0	0	25111	23660	156792	26873	1064307	46720	109283	0	0	8188	538893	0	0
2024-09-16 18:49:47			0	38387	0	0	0	25109	23670	156700	27026	1064361	46710	109282	0	0	8187	539287	0	0
2024-09-16 18:50:47			0	38396	0	0	0	25103	23660	156700	27518	1064334	46720	109280	0	0	8188	538971	0	0
2024-09-16 18:51:47			0	38395	0	0	0	25103	23660	156700	27270	1064370	46721	109280	0	0	8188	539009	0	0
2024-09-16 18:52:47			0	38411	0	0	0	25096	23660	156648	27078	1064370	46709	109277	0	0	8189	538392	0	0
2024-09-16 18:53:47			0	38419	0	0	0	25103	23670	156640	27287	1064432	46710	109280	0	0	8189	538054	0	0
2024-09-16 18:54:47			0	38401	0	0	0	25103	23660	156608	27140	1064370	46709	109280	0	0	8188	538778	0	0
2024-09-16 18:55:47			0	38395	0	0	0	25111	23680	156648	27012	1064370	46710	109283	0	0	8187	538948	0	0
2024-09-16 18:56:47			0	38400	0	0	0	25132	23670	156692	26949	1064379	46722	109291	0	0	8187	538786	0	0
2024-09-16 18:57:47			0	38382	0	0	0	25137	23670	156764	27232	1064361	46700	109293	0	0	8186	539480	0	0
2024-09-16 18:58:47			0	38388	0	0	0	25155	23670	156744	27225	1064379	46722	109300	0	0	8186	539249	0	0
2024-09-16 18:59:47			0	38385	0	0	0	25145	23680	156792	26824	1064423	46722	109296	0	0	8186	539334	0	0
2024-09-16 19:00:47			0	38371	0	0	0	25148	23680	156888	27078	1064503	46722	109297	0	0	8185	539875	0	0
2024-09-16 19:01:47			0	38365	0	0	0	25145	23680	156788	26847	1064423	46733	109296	0	0	8185	540106	0	0
2024-09-16 19:02:47			0	38367	0	0	0	25127	23690	156832	27303	1064442	46713	109289	0	0	8186	539999	0	0
2024-09-16 19:03:47			0	38333	0	0	0	25122	23680	156980	27095	1064432	46712	109287	0	0	8184	541343	0	0
2024-09-16 19:04:47			0	38348	0	0	0	25111	23680	156964	27076	1064423	46710	109283	0	0	8185	540763	0	0
2024-09-16 19:05:47			0	38313	0	0	0	25096	23680	156924	27095	1064370	46689	109277	0	0	8183	542117	0	0
2024-09-16 19:06:47			0	38304	0	0	0	25124	23680	156912	26987	1064379	46701	109288	0	0	8182	542466	0	0
2024-09-16 19:07:47			0	38321	0	0	0	25114	23670	156860	26842	1064334	46710	109284	0	0	8183	541838	0	0
2024-09-16 19:08:47			0	38287	0	0	0	25007	23670	157064	27081	1064254	46689	109243	0	0	8183	543155	0	0
2024-09-16 19:09:47			0	38243	0	0	0	24992	23660	157300	27227	1064156	46688	109237	0	0	8181	544893	0	0
2024-09-16 19:10:47			0	38197	0	0	0	25064	23650	157496	27104	1064164	46687	109265	0	0	8177	546712	0	0
2024-09-16 19:11:47			0	38209	0	0	0	25075	23650	157428	27338	1064182	46686	109269	0	0	8177	546245	0	0
2024-09-16 19:12:47			0	38180	0	0	0	25057	23640	157544	27043	1064137	46674	109262	0	0	8176	547404	0	0
2024-09-16 19:13:47			0	38169	0	0	0	25051	23630	157644	27213	1064102	46695	109260	0	0	8175	547864	0	0
2024-09-16 19:14:47			0	38141	0	0	0	25051	23630	157652	27333	1064119	46684	109260	0	0	8174	548956	0	0
2024-09-16 19:15:47			0	38142	0	0	0	25036	23640	157760	26909	1064191	46707	109254	0	0	8174	548886	0	0
2024-09-16 19:16:47			0	38115	0	0	0	24999	23630	157872	27220	1064093	46684	109240	0	0	8173	549971	0	0
2024-09-16 19:17:47			0	38070	0	0	0	25038	23620	158072	26882	1064057	46684	109255	0	0	8170	551762	0	0
2024-09-16 19:18:47			0	38096	0	0	0	25111	23620	157972	27286	1064084	46706	109283	0	0	8170	550744	0	0
2024-09-16 19:19:47			0	38107	0	0	0	25101	23630	157904	27175	1064173	46706	109279	0	0	8171	550284	0	0
2024-09-16 19:20:47			0	38128	0	0	0	25090	23620	157840	27228	1064208	46716	109275	0	0	8172	549494	0	0
2024-09-16 19:21:47			0	38148	0	0	0	25096	23630	157860	27343	1064155	46717	109277	0	0	8173	548683	0	0
2024-09-16 19:22:47			0	38127	0	0	0	25070	23630	157816	26920	1064200	46706	109267	0	0	8172	549502	0	0
2024-09-16 19:23:47			0	38127	0	0	0	25036	23630	157792	27235	1064146	46717	109254	0	0	8173	549502	0	0
2024-09-16 19:24:47			0	38116	0	0	0	25067	23630	157944	27353	1064066	46706	109266	0	0	8172	549932	0	0
2024-09-16 19:25:47			0	38138	0	0	0	25093	23620	157796	27352	1064137	46695	109276	0	0	8173	549104	0	0
2024-09-16 19:26:47			0	38157	0	0	0	25054	23630	157700	27526	1064146	46695	109261	0	0	8174	548332	0	0
2024-09-16 19:27:47			0	38169	0	0	0	25041	23630	157616	27422	1064128	46695	109256	0	0	8175	547864	0	0
2024-09-16 19:28:47			0	38129	0	0	0	25018	23630	157824	26994	1064155	46695	109247	0	0	8173	549424	0	0
2024-09-16 19:29:47			0	38094	0	0	0	25041	23610	157856	27050	1064039	46682	109256	0	0	8171	550854	0	0
2024-09-16 19:30:47			0	38086	0	0	0	25054	23610	157932	27092	1064066	46682	109261	0	0	8170	551167	0	0
2024-09-16 19:31:47			0	38117	0	0	0	25044	23610	157860	27138	1064093	46704	109257	0	0	8172	549955	0	0
2024-09-16 19:32:47			0	38108	0	0	0	25044	23610	157868	27211	1064039	46693	109257	0	0	8172	550306	0	0
2024-09-16 19:33:47			0	38107	0	0	0	24999	23610	157772	27274	1064039	46704	109240	0	0	8172	550346	0	0
2024-09-16 19:34:47			0	38083	0	0	0	25028	23610	157932	27192	1064003	46682	109251	0	0	8170	551284	0	0
2024-09-16 19:35:47			0	38074	0	0	0	25023	23600	157988	26896	1063985	46692	109249	0	0	8170	551667	0	0
2024-09-16 19:36:47			0	38066	0	0	0	25062	23610	157944	27105	1064039	46704	109264	0	0	8169	551949	0	0
2024-09-16 19:37:47			0	38120	0	0	0	25077	23600	157828	27213	1064021	46693	109270	0	0	8172	549868	0	0
2024-09-16 19:38:47			0	38163	0	0	0	25012	23610	157548	27225	1064030	46704	109245	0	0	8175	548159	0	0
2024-09-16 19:39:47			0	38133	0	0	0	24974	23600	157668	27027	1063941	46693	109230	0	0	8174	549361	0	0
2024-09-16 19:40:47			0	38095	0	0	0	25007	23600	157864	27377	1063968	46693	109243	0	0	8171	550845	0	0
2024-09-16 19:41:47			0	38091	0	0	0	25005	23600	157900	27270	1063905	46681	109242	0	0	8171	551002	0	0
2024-09-16 19:42:47			0	38058	0	0	0	24976	23600	158004	27336	1063932	46681	109231	0	0	8170	552294	0	0
2024-09-16 19:43:47			0	38050	0	0	0	24984	23590	158104	27242	1063869	46691	109234	0	0	8169	552638	0	0
2024-09-16 19:44:47			0	38029	0	0	0	24979	23580	158075	27126	1063905	46690	109232	0	0	8168	553493	0	0
2024-09-16 19:45:47			0	38027	0	0	0	24961	23590	158192	27050	1063860	46691	109225	0	0	8168	553540	0	0
2024-09-16 19:46:47			0	37993	0	0	0	24950	23570	158287	27111	1063780	46689	109221	0	0	8166	554937	0	0
2024-09-16 19:47:47			0	37967	0	0	0	24950	23570	158311	27222	1063744	46678	109221	0	0	8165	555959	0	0
2024-09-16 19:48:47			0	37963	0	0	0	24981	23560	158439	27033	1063761	46677	109233	0	0	8164	556148	0	0
2024-09-16 19:49:47			0	37973	0	0	0	24984	23560	158335	27199	1063735	46688	109234	0	0	8165	555755	0	0
2024-09-16 19:50:47			0	37979	0	0	0	24974	23560	158195	27348	1063833	46688	109230	0	0	8165	555519	0	0
2024-09-16 19:51:47			0	37979	0	0	0	24976	23570	158327	26928	1063744	46700	109231	0	0	8165	555487	0	0
2024-09-16 19:52:47			0	38008	0	0	0	24963	23550	158279	27208	1063797	46687	109226	0	0	8167	554410	0	0
2024-09-16 19:53:47			0	37960	0	0	0	24966	23560	158275	27398	1063726	46688	109227	0	0	8164	556266	0	0
2024-09-16 19:54:47			0	37960	0	0	0	24981	23560	158295	27145	1063752	46688	109233	0	0	8164	556266	0	0
2024-09-16 19:55:47			0	37968	0	0	0	24981	23560	158391	27015	1063806	46688	109233	0	0	8164	555951	0	0
2024-09-16 19:56:47			0	37956	0	0	0	24989	23550	158511	26944	1063824	46709	109236	0	0	8163	556455	0	0
2024-09-16 19:57:47			0	37952	0	0	0	24974	23550	158451	26797	1063770	46709	109230	0	0	8163	556612	0	0
2024-09-16 19:58:47			0	37953	0	0	0	24958	23560	158371	26755	1063806	46710	109224	0	0	8164	556542	0	0
2024-09-16 19:59:47			0	37945	0	0	0	24942	23550	158419	27031	1063815	46708	109218	0	0	8164	556888	0	0
2024-09-16 20:00:47			0	37911	0	0	0	24911	23550	158531	27338	1063743	46698	109206	0	0	8162	558228	0	0
2024-09-16 20:01:47			0	37895	0	0	0	24916	23540	158611	27180	1063672	46686	109208	0	0	8161	558890	0	0
2024-09-16 20:02:47			0	37873	0	0	0	24919	23550	158659	27436	1063636	46665	109209	0	0	8160	559728	0	0
2024-09-16 20:03:47			0	37871	0	0	0	24922	23540	158711	26821	1063636	46686	109210	0	0	8160	559839	0	0
2024-09-16 20:04:47			0	37881	0	0	0	24948	23530	158791	27300	1063654	46707	109220	0	0	8160	559475	0	0
2024-09-16 20:05:47			0	37920	0	0	0	25023	23530	158743	26896	1063654	46685	109249	0	0	8161	557936	0	0
2024-09-16 20:06:47			0	37945	0	0	0	25057	23530	158591	27121	1063761	46696	109262	0	0	8162	556951	0	0
2024-09-16 20:07:47			0	37950	0	0	0	25083	23540	158611	26975	1063832	46708	109272	0	0	8161	556722	0	0
2024-09-16 20:08:47			0	37997	0	0	0	25090	23540	158395	26920	1063832	46708	109275	0	0	8164	554874	0	0
2024-09-16 20:09:47			0	38055	0	0	0	25044	23550	158108	26915	1063904	46709	109257	0	0	8168	552567	0	0
2024-09-16 20:10:47			0	38062	0	0	0	25025	23570	158060	27313	1063931	46722	109250	0	0	8169	552230	0	0
2024-09-16 20:11:47			0	38043	0	0	0	25018	23570	158124	27469	1063931	46711	109247	0	0	8168	552975	0	0
2024-09-16 20:12:47			0	38031	0	0	0	25020	23570	158264	26857	1063887	46700	109248	0	0	8167	553445	0	0
2024-09-16 20:13:47			0	38003	0	0	0	25023	23580	158299	27270	1063949	46701	109249	0	0	8166	554513	0	0
2024-09-16 20:14:47			0	37995	0	0	0	25010	23570	158303	26948	1063940	46711	109244	0	0	8165	554859	0	0
2024-09-16 20:15:47			0	37990	0	0	0	24979	23580	158339	27272	1063923	46712	109232	0	0	8166	555024	0	0
2024-09-16 20:16:47			0	37952	0	0	0	24971	23570	158383	26941	1063913	46700	109229	0	0	8164	556550	0	0
2024-09-16 20:17:47			0	37933	0	0	0	24966	23580	158503	27277	1063878	46701	109227	0	0	8163	557267	0	0
2024-09-16 20:18:47			0	37931	0	0	0	24976	23580	158555	27242	1063869	46701	109231	0	0	8162	557345	0	0
2024-09-16 20:19:47			0	37907	0	0	0	24963	23570	158587	27131	1063860	46689	109226	0	0	8161	558323	0	0
2024-09-16 20:20:47			0	37902	0	0	0	24953	23570	158643	26979	1063824	46689	109222	0	0	8161	558520	0	0
2024-09-16 20:21:47			0	37880	0	0	0	24961	23570	158727	27123	1063744	46689	109225	0	0	8160	559388	0	0
2024-09-16 20:22:47			0	37872	0	0	0	24976	23560	158743	27145	1063779	46688	109231	0	0	8159	559736	0	0
2024-09-16 20:23:47			0	37852	0	0	0	24953	23560	158779	27526	1063761	46688	109222	0	0	8158	560526	0	0
2024-09-16 20:24:47			0	37851	0	0	0	24927	23560	158831	27360	1063779	46677	109212	0	0	8158	560566	0	0
2024-09-16 20:25:47			0	37833	0	0	0	24924	23540	158955	27159	1063645	46697	109211	0	0	8157	561341	0	0
2024-09-16 20:26:47			0	37833	0	0	0	24935	23540	158907	27281	1063636	46675	109215	0	0	8157	561341	0	0
2024-09-16 20:27:47			0	37822	0	0	0	24942	23550	158967	27216	1063708	46697	109218	0	0	8156	561745	0	0
2024-09-16 20:28:47			0	37836	0	0	0	24948	23540	158835	27081	1063699	46697	109220	0	0	8157	561223	0	0
2024-09-16 20:29:47			0	37866	0	0	0	24948	23540	158763	27305	1063725	46697	109220	0	0	8159	560036	0	0
2024-09-16 20:30:47			0	37874	0	0	0	24955	23540	158819	27012	1063663	46675	109223	0	0	8159	559720	0	0
2024-09-16 20:31:47			0	37852	0	0	0	24979	23540	158835	27145	1063752	46686	109232	0	0	8157	560589	0	0
2024-09-16 20:32:47			0	37881	0	0	0	24974	23540	158787	27027	1063823	46697	109230	0	0	8159	559443	0	0
2024-09-16 20:33:47			0	37885	0	0	0	24974	23540	158635	26928	1063859	46708	109230	0	0	8159	559285	0	0
2024-09-16 20:34:47			0	37933	0	0	0	24979	23540	158531	26927	1063797	46697	109232	0	0	8162	557392	0	0
2024-09-16 20:35:47			0	37972	0	0	0	24986	23550	158255	27298	1063788	46708	109235	0	0	8164	555825	0	0
2024-09-16 20:36:47			0	38005	0	0	0	24979	23540	158275	26963	1063823	46686	109232	0	0	8166	554559	0	0
2024-09-16 20:37:47			0	38018	0	0	0	24992	23550	158207	27024	1063797	46698	109237	0	0	8167	554018	0	0
2024-09-16 20:38:47			0	38034	0	0	0	25002	23560	158204	26937	1063833	46710	109241	0	0	8168	553359	0	0
2024-09-16 20:39:47			0	38034	0	0	0	25002	23550	158168	27370	1063824	46709	109241	0	0	8168	553390	0	0
2024-09-16 20:40:47			0	38023	0	0	0	25007	23560	158244	27282	1063806	46710	109243	0	0	8167	553790	0	0
2024-09-16 20:41:47			0	38011	0	0	0	25020	23560	158183	27112	1063868	46699	109248	0	0	8166	554261	0	0
2024-09-16 20:42:47			0	38018	0	0	0	25015	23560	158248	27043	1063895	46721	109246	0	0	8167	553986	0	0
2024-09-16 20:43:47			0	38030	0	0	0	24986	23560	158192	27282	1063868	46710	109235	0	0	8168	553516	0	0
2024-09-16 20:44:47			0	38037	0	0	0	25023	23570	158208	27164	1063904	46700	109249	0	0	8168	553210	0	0
2024-09-16 20:45:47			0	38037	0	0	0	25059	23570	158156	27260	1063931	46711	109263	0	0	8167	553210	0	0
2024-09-16 20:46:47			0	38053	0	0	0	25085	23580	158152	27137	1064003	46712	109273	0	0	8168	552552	0	0
2024-09-16 20:47:47			0	38082	0	0	0	25012	23580	157908	27383	1064003	46712	109245	0	0	8171	551416	0	0
2024-09-16 20:48:47			0	38104	0	0	0	24989	23580	157636	27381	1063976	46712	109236	0	0	8172	550556	0	0
2024-09-16 20:49:47			0	38134	0	0	0	24997	23590	157652	27024	1063967	46691	109239	0	0	8174	549353	0	0
2024-09-16 20:50:47			0	38128	0	0	0	24999	23580	157604	27019	1063985	46690	109240	0	0	8173	549618	0	0
2024-09-16 20:51:47			0	38145	0	0	0	25041	23590	157660	27104	1063923	46691	109256	0	0	8174	548923	0	0
2024-09-16 20:52:47			0	38126	0	0	0	25059	23590	157788	27450	1064021	46702	109263	0	0	8172	549665	0	0
2024-09-16 20:53:47			0	38120	0	0	0	25018	23600	157840	27223	1064092	46714	109247	0	0	8173	549868	0	0
2024-09-16 20:54:47			0	38100	0	0	0	25002	23600	157832	27187	1064012	46692	109241	0	0	8172	550650	0	0
2024-09-16 20:55:47			0	38068	0	0	0	24999	23580	157860	27488	1063985	46712	109240	0	0	8170	551964	0	0
2024-09-16 20:56:47			0	38100	0	0	0	25059	23590	157896	27013	1063967	46691	109263	0	0	8171	550681	0	0
2024-09-16 20:57:47			0	38028	0	0	0	25098	23590	158000	27171	1064030	46691	109278	0	0	8166	553501	0	0
2024-09-16 20:58:47			0	38027	0	0	0	25090	23590	158096	26989	1064048	46724	109275	0	0	8166	553540	0	0
2024-09-16 20:59:47			0	38014	0	0	0	25023	23600	158263	27171	1064075	46704	109249	0	0	8166	554019	0	0
2024-09-16 21:00:47			0	38007	0	0	0	25031	23600	158319	27133	1064039	46725	109252	0	0	8166	554294	0	0
2024-09-16 21:01:47			0	38012	0	0	0	25067	23610	158235	26968	1064119	46715	109266	0	0	8166	554066	0	0
2024-09-16 21:02:47			0	38000	0	0	0	25083	23610	158203	27204	1064164	46704	109272	0	0	8165	554537	0	0
2024-09-16 21:03:47			0	38003	0	0	0	25085	23610	158311	27059	1064119	46726	109273	0	0	8165	554420	0	0
2024-09-16 21:04:47			0	38024	0	0	0	25033	23610	158143	26991	1064200	46704	109253	0	0	8167	553595	0	0
2024-09-16 21:05:47			0	38022	0	0	0	25020	23620	158188	27218	1064155	46694	109248	0	0	8167	553643	0	0
2024-09-16 21:06:47			0	38014	0	0	0	25018	23620	158127	27261	1064128	46694	109247	0	0	8167	553957	0	0
2024-09-16 21:07:47			0	38031	0	0	0	25018	23610	158064	27126	1064066	46693	109247	0	0	8168	553321	0	0
2024-09-16 21:08:47			0	38038	0	0	0	25015	23610	158068	27242	1064066	46693	109246	0	0	8168	553046	0	0
2024-09-16 21:09:47			0	38051	0	0	0	25005	23610	158016	26927	1064057	46682	109242	0	0	8169	552537	0	0
2024-09-16 21:10:47			0	38034	0	0	0	25002	23610	158088	27372	1064030	46682	109241	0	0	8168	553203	0	0
2024-09-16 21:11:47			0	38052	0	0	0	24986	23600	158108	27270	1064021	46693	109235	0	0	8169	552529	0	0
2024-09-16 21:12:47			0	38044	0	0	0	24989	23600	158152	27329	1063959	46692	109236	0	0	8169	552842	0	0
2024-09-16 21:13:47			0	38046	0	0	0	24986	23590	158020	27289	1063976	46691	109235	0	0	8169	552795	0	0
2024-09-16 21:14:47			0	38049	0	0	0	24986	23580	158056	27251	1063985	46690	109235	0	0	8169	552708	0	0
2024-09-16 21:15:47			0	38026	0	0	0	24958	23590	158115	27293	1063941	46691	109224	0	0	8168	553579	0	0
2024-09-16 21:16:47			0	38039	0	0	0	24961	23580	158100	27531	1063932	46690	109225	0	0	8169	553100	0	0
2024-09-16 21:17:47			0	38038	0	0	0	24997	23600	158120	27357	1063932	46692	109239	0	0	8168	553077	0	0
2024-09-16 21:18:47			0	38017	0	0	0	24997	23580	158183	27253	1063932	46679	109239	0	0	8167	553964	0	0
2024-09-16 21:19:47			0	38016	0	0	0	25012	23590	158303	27391	1063941	46702	109245	0	0	8167	553972	0	0
2024-09-16 21:20:47			0	37987	0	0	0	24986	23580	158231	27479	1063932	46701	109235	0	0	8165	555142	0	0
2024-09-16 21:21:47			0	37993	0	0	0	24961	23590	158211	27000	1063887	46691	109225	0	0	8166	554875	0	0
2024-09-16 21:22:47			0	38006	0	0	0	24963	23590	158255	27353	1063914	46691	109226	0	0	8167	554364	0	0
2024-09-16 21:23:47			0	37992	0	0	0	24958	23570	158267	27182	1063833	46689	109224	0	0	8166	554976	0	0
2024-09-16 21:24:47			0	37984	0	0	0	24966	23570	158407	27466	1063833	46678	109227	0	0	8166	555291	0	0
2024-09-16 21:25:47			0	37974	0	0	0	24974	23570	158403	27105	1063780	46689	109230	0	0	8165	555684	0	0
2024-09-16 21:26:47			0	37981	0	0	0	24953	23560	158415	27012	1063815	46699	109222	0	0	8166	555440	0	0
2024-09-16 21:27:47			0	37953	0	0	0	25002	23570	158615	27246	1063797	46678	109241	0	0	8163	556510	0	0
2024-09-16 21:28:47			0	37929	0	0	0	25007	23570	158607	26890	1063878	46700	109243	0	0	8162	557456	0	0
2024-09-16 21:29:47			0	37911	0	0	0	24999	23560	158499	27215	1063761	46699	109240	0	0	8161	558196	0	0
2024-09-16 21:30:47			0	37937	0	0	0	24927	23560	158619	27441	1063815	46699	109212	0	0	8163	557172	0	0
2024-09-16 21:31:47			0	37915	0	0	0	24929	23560	158583	27384	1063779	46688	109213	0	0	8162	558039	0	0
2024-09-16 21:32:47			0	37920	0	0	0	24893	23560	158603	27355	1063735	46677	109199	0	0	8163	557842	0	0
2024-09-16 21:33:47			0	37895	0	0	0	24898	23550	158667	27298	1063654	46675	109201	0	0	8161	558859	0	0
2024-09-16 21:34:47			0	37888	0	0	0	24901	23550	158743	26748	1063654	46675	109202	0	0	8161	559135	0	0
2024-09-16 21:35:47			0	37881	0	0	0	24914	23540	158791	26948	1063636	46675	109207	0	0	8160	559443	0	0
2024-09-16 21:36:47			0	37877	0	0	0	24948	23530	158851	27204	1063681	46685	109220	0	0	8159	559633	0	0
2024-09-16 21:37:47			0	37866	0	0	0	24916	23530	158787	27111	1063592	46673	109208	0	0	8159	560067	0	0
2024-09-16 21:38:47			0	37852	0	0	0	24903	23530	158923	26965	1063565	46695	109203	0	0	8159	560621	0	0
2024-09-16 21:39:47			0	37854	0	0	0	24893	23520	158827	27202	1063556	46684	109199	0	0	8159	560573	0	0
2024-09-16 21:40:47			0	37853	0	0	0	24885	23520	158931	27338	1063520	46661	109196	0	0	8159	560613	0	0
2024-09-16 21:41:47			0	37851	0	0	0	24898	23520	158819	27306	1063574	46683	109201	0	0	8159	560692	0	0
2024-09-16 21:42:47			0	37837	0	0	0	24893	23520	158831	27123	1063467	46672	109199	0	0	8158	561246	0	0
2024-09-16 21:43:47			0	37832	0	0	0	24883	23510	158927	27168	1063511	46694	109195	0	0	8158	561475	0	0
2024-09-16 21:44:47			0	37840	0	0	0	24877	23510	158931	27464	1063484	46683	109193	0	0	8158	561159	0	0
2024-09-16 21:45:47			0	37826	0	0	0	24883	23510	158987	27026	1063502	46682	109195	0	0	8157	561713	0	0
2024-09-16 21:46:47			0	37827	0	0	0	24862	23500	159023	27222	1063457	46670	109187	0	0	8158	561705	0	0
2024-09-16 21:47:47			0	37829	0	0	0	24875	23500	159007	27090	1063404	46681	109192	0	0	8158	561626	0	0
2024-09-16 21:48:47			0	37823	0	0	0	24877	23490	159031	27313	1063439	46691	109193	0	0	8157	561895	0	0
2024-09-16 21:49:47			0	37820	0	0	0	24880	23490	159083	27062	1063413	46680	109194	0	0	8157	562014	0	0
2024-09-16 21:50:47			0	37812	0	0	0	24890	23490	159103	27194	1063413	46680	109198	0	0	8156	562331	0	0
2024-09-16 21:51:47			0	37806	0	0	0	24950	23480	159135	27291	1063431	46680	109221	0	0	8155	562600	0	0
2024-09-16 21:52:47			0	37805	0	0	0	24883	23500	159175	27230	1063404	46703	109195	0	0	8156	562577	0	0
2024-09-16 21:53:47			0	37813	0	0	0	24870	23490	159183	27602	1063439	46680	109190	0	0	8157	562291	0	0
2024-09-16 21:54:47			0	37811	0	0	0	24867	23490	159135	27471	1063386	46680	109189	0	0	8157	562370	0	0
2024-09-16 21:55:47			0	37809	0	0	0	24864	23480	159191	27017	1063422	46690	109188	0	0	8157	562481	0	0
2024-09-16 21:56:47			0	37807	0	0	0	24859	23470	159099	27592	1063386	46678	109186	0	0	8157	562592	0	0
2024-09-16 21:57:47			0	37805	0	0	0	24862	23480	159111	27130	1063368	46679	109187	0	0	8156	562640	0	0
2024-09-16 21:58:47			0	37798	0	0	0	24914	23470	159135	27609	1063350	46667	109207	0	0	8155	562949	0	0
2024-09-16 21:59:47			0	37802	0	0	0	24893	23470	159191	27517	1063484	46689	109199	0	0	8156	562791	0	0
2024-09-16 22:00:47			0	37811	0	0	0	24851	23480	159203	27789	1063404	46702	109183	0	0	8157	562402	0	0
2024-09-16 22:01:47			0	37811	0	0	0	24867	23470	159143	27504	1063359	46667	109189	0	0	8157	562434	0	0
2024-09-16 22:02:47			0	37806	0	0	0	24818	23460	159131	27414	1063359	46666	109170	0	0	8157	562664	0	0
2024-09-16 22:03:47			0	37815	0	0	0	24794	23460	159087	27575	1063261	46689	109161	0	0	8158	562307	0	0
2024-09-16 22:04:47			0	37800	0	0	0	24781	23450	159175	27403	1063190	46654	109156	0	0	8157	562933	0	0
2024-09-16 22:05:47			0	37793	0	0	0	24802	23450	159123	27706	1063216	46676	109164	0	0	8157	563211	0	0
2024-09-16 22:06:47			0	37792	0	0	0	24820	23440	159131	27462	1063118	46665	109171	0	0	8156	563282	0	0
2024-09-16 22:07:47			0	37800	0	0	0	24825	23440	159175	27635	1063198	46665	109173	0	0	8157	562965	0	0
2024-09-16 22:08:47			0	37772	0	0	0	24825	23430	159139	27265	1063189	46665	109173	0	0	8155	564108	0	0
2024-09-16 22:09:47			0	37789	0	0	0	24825	23430	159147	27400	1063127	46674	109173	0	0	8156	563433	0	0
2024-09-16 22:10:47			0	37797	0	0	0	24828	23430	159283	27552	1063180	46674	109174	0	0	8156	563115	0	0
2024-09-16 22:11:47			0	37778	0	0	0	24862	23420	159259	27391	1063224	46674	109187	0	0	8155	563901	0	0
2024-09-16 22:12:47			0	37782	0	0	0	24872	23430	159387	27351	1063180	46664	109191	0	0	8155	563711	0	0
2024-09-16 22:13:47			0	37775	0	0	0	24885	23420	159335	27376	1063224	46685	109196	0	0	8154	564020	0	0
2024-09-16 22:14:47			0	37772	0	0	0	24929	23420	159451	27369	1063198	46664	109213	0	0	8153	564139	0	0
2024-09-16 22:15:47			0	37766	0	0	0	24880	23430	159399	27519	1063269	46686	109194	0	0	8154	564346	0	0
2024-09-16 22:16:47			0	37769	0	0	0	24823	23430	159243	27249	1063349	46697	109172	0	0	8155	564227	0	0
2024-09-16 22:17:47			0	37779	0	0	0	24838	23440	159247	27251	1063261	46676	109178	0	0	8155	563798	0	0
2024-09-16 22:18:47			0	37772	0	0	0	24836	23430	159307	27367	1063216	46675	109177	0	0	8155	564108	0	0
2024-09-16 22:19:47			0	37780	0	0	0	24828	23430	159339	27345	1063242	46675	109174	0	0	8155	563790	0	0
2024-09-16 22:20:47			0	37765	0	0	0	24828	23430	159399	27556	1063207	46664	109174	0	0	8154	564386	0	0
2024-09-16 22:21:47			0	37764	0	0	0	24838	23430	159427	27260	1063189	46675	109178	0	0	8154	564426	0	0
2024-09-16 22:22:47			0	37769	0	0	0	24838	23430	159423	27599	1063189	46665	109178	0	0	8154	564227	0	0
2024-09-16 22:23:47			0	37753	0	0	0	24836	23430	159343	27255	1063242	46686	109177	0	0	8154	564863	0	0
2024-09-16 22:24:47			0	37759	0	0	0	24833	23430	159315	27274	1063189	46675	109176	0	0	8154	564624	0	0
2024-09-16 22:25:47			0	37759	0	0	0	24825	23410	159303	27225	1063126	46673	109173	0	0	8154	564688	0	0
2024-09-16 22:26:47			0	37746	0	0	0	24846	23420	159403	27183	1063189	46673	109181	0	0	8153	565173	0	0
2024-09-16 22:27:47			0	37745	0	0	0	24844	23420	159407	27409	1063162	46663	109180	0	0	8153	565212	0	0
2024-09-16 22:28:47			0	37760	0	0	0	24833	23430	159383	27152	1063162	46675	109176	0	0	8154	564585	0	0
2024-09-16 22:29:47			0	37765	0	0	0	24849	23430	159403	27388	1063180	46674	109182	0	0	8154	564386	0	0
2024-09-16 22:30:47			0	37753	0	0	0	24849	23420	159359	27405	1063162	46684	109182	0	0	8153	564894	0	0
2024-09-16 22:31:47			0	37748	0	0	0	24849	23420	159411	27407	1063198	46685	109182	0	0	8153	565093	0	0
2024-09-16 22:32:47			0	37762	0	0	0	24851	23420	159335	27327	1063198	46685	109183	0	0	8154	564537	0	0
2024-09-16 22:33:47			0	37775	0	0	0	24896	23420	159339	27265	1063251	46674	109200	0	0	8154	564020	0	0
2024-09-16 22:34:47			0	37760	0	0	0	24906	23440	159435	27589	1063305	46697	109204	0	0	8153	564553	0	0
2024-09-16 22:35:47			0	37749	0	0	0	24916	23430	159395	27185	1063269	46697	109208	0	0	8152	565022	0	0
2024-09-16 22:36:47			0	37763	0	0	0	24890	23430	159415	27355	1063296	46697	109198	0	0	8153	564465	0	0
2024-09-16 22:37:47			0	37754	0	0	0	24849	23440	159339	27377	1063341	46687	109182	0	0	8153	564791	0	0
2024-09-16 22:38:47			0	37757	0	0	0	24833	23440	159403	27481	1063234	46676	109176	0	0	8154	564672	0	0
2024-09-16 22:39:47			0	37769	0	0	0	24836	23440	159331	27426	1063234	46687	109177	0	0	8155	564195	0	0
2024-09-16 22:40:47			0	37768	0	0	0	24833	23440	159351	27393	1063234	46676	109176	0	0	8155	564235	0	0
2024-09-16 22:41:47			0	37781	0	0	0	24833	23430	159307	27355	1063189	46665	109176	0	0	8155	563750	0	0
2024-09-16 22:42:47			0	37759	0	0	0	24820	23430	159375	27336	1063242	46665	109171	0	0	8154	564624	0	0
2024-09-16 22:43:47			0	37760	0	0	0	24911	23430	159431	27138	1063127	46664	109206	0	0	8153	564585	0	0
2024-09-16 22:44:47			0	37766	0	0	0	24922	23420	159515	27372	1063171	46674	109210	0	0	8153	564378	0	0
2024-09-16 22:45:47			0	37745	0	0	0	24901	23420	159483	27274	1063251	46674	109202	0	0	8152	565212	0	0
2024-09-16 22:46:47			0	37758	0	0	0	24836	23420	159327	27346	1063251	46685	109177	0	0	8154	564696	0	0
2024-09-16 22:47:47			0	37788	0	0	0	24838	23430	159327	27275	1063233	46664	109178	0	0	8156	563473	0	0
2024-09-16 22:48:47			0	37803	0	0	0	24854	23430	159323	27223	1063180	46674	109184	0	0	8156	562877	0	0
2024-09-16 22:49:47			0	37778	0	0	0	24833	23420	159227	27215	1063171	46685	109176	0	0	8155	563901	0	0
2024-09-16 22:50:47			0	37798	0	0	0	24836	23420	159235	27410	1063171	46674	109177	0	0	8156	563107	0	0
2024-09-16 22:51:47			0	37783	0	0	0	24864	23420	159143	27275	1063198	46685	109188	0	0	8155	563703	0	0
2024-09-16 22:52:47			0	37798	0	0	0	24896	23430	159391	26963	1063207	46674	109200	0	0	8155	563076	0	0
2024-09-16 22:53:47			0	37794	0	0	0	24911	23420	159287	27201	1063189	46684	109206	0	0	8155	563266	0	0
2024-09-16 22:54:47			0	37777	0	0	0	24901	23420	159307	27204	1063305	46685	109202	0	0	8154	563941	0	0
2024-09-16 22:55:47			0	37785	0	0	0	24898	23440	159243	27279	1063332	46697	109201	0	0	8154	563560	0	0
2024-09-16 22:56:47			0	37780	0	0	0	24890	23440	159183	27175	1063394	46698	109198	0	0	8154	563758	0	0
2024-09-16 22:57:47			0	37776	0	0	0	24898	23440	159211	26998	1063305	46686	109201	0	0	8154	563917	0	0
2024-09-16 22:58:47			0	37796	0	0	0	24903	23450	159215	27327	1063323	46676	109203	0	0	8155	563092	0	0
2024-09-16 22:59:47			0	37790	0	0	0	24890	23440	159163	27332	1063368	46687	109198	0	0	8155	563361	0	0
2024-09-16 23:00:47			0	37797	0	0	0	24893	23460	159251	27369	1063359	46699	109199	0	0	8155	563020	0	0
2024-09-16 23:01:47			0	37806	0	0	0	24898	23460	159259	27133	1063386	46688	109201	0	0	8156	562664	0	0
2024-09-16 23:02:47			0	37815	0	0	0	24903	23450	159215	27275	1063403	46666	109203	0	0	8156	562339	0	0
2024-09-16 23:03:47			0	37811	0	0	0	24909	23460	159179	27350	1063386	46688	109205	0	0	8156	562465	0	0
2024-09-16 23:04:47			0	37798	0	0	0	24963	23460	159243	27232	1063421	46678	109226	0	0	8154	562981	0	0
2024-09-16 23:05:47			0	37784	0	0	0	24950	23460	159147	27528	1063493	46699	109221	0	0	8154	563536	0	0
2024-09-16 23:06:47			0	37798	0	0	0	24950	23480	159251	27374	1063502	46712	109221	0	0	8155	562917	0	0
2024-09-16 23:07:47			0	37784	0	0	0	24870	23490	159191	27386	1063466	46702	109190	0	0	8155	563441	0	0
2024-09-16 23:08:47			0	37818	0	0	0	24833	23480	159063	27227	1063475	46679	109176	0	0	8158	562125	0	0
2024-09-16 23:09:47			0	37814	0	0	0	24812	23470	159083	27305	1063413	46656	109168	0	0	8158	562315	0	0
2024-09-16 23:10:47			0	37824	0	0	0	24807	23480	158975	27176	1063315	46679	109166	0	0	8158	561887	0	0
2024-09-16 23:11:47			0	37815	0	0	0	24799	23460	158991	27175	1063207	46645	109163	0	0	8158	562307	0	0
2024-09-16 23:12:47			0	37814	0	0	0	24794	23440	158999	27421	1063234	46654	109161	0	0	8158	562410	0	0
2024-09-16 23:13:47			0	37803	0	0	0	24802	23440	159083	27204	1063172	46653	109164	0	0	8157	562846	0	0
2024-09-16 23:14:47			0	37784	0	0	0	24815	23440	159163	27211	1063252	46686	109169	0	0	8156	563600	0	0
2024-09-16 23:15:47			0	37781	0	0	0	24812	23440	159223	27502	1063145	46665	109168	0	0	8156	563719	0	0
2024-09-16 23:16:47			0	37778	0	0	0	24805	23420	159187	27046	1063144	46674	109165	0	0	8156	563901	0	0
2024-09-16 23:17:47			0	37772	0	0	0	24805	23420	159275	27144	1063109	46663	109165	0	0	8155	564139	0	0
2024-09-16 23:18:47			0	37772	0	0	0	24797	23420	159279	27249	1063082	46651	109162	0	0	8155	564139	0	0
2024-09-16 23:19:47			0	37766	0	0	0	24802	23410	159343	27090	1063073	46673	109164	0	0	8155	564410	0	0
2024-09-16 23:20:47			0	37760	0	0	0	24807	23410	159403	27187	1063019	46673	109166	0	0	8154	564648	0	0
2024-09-16 23:21:47			0	37732	0	0	0	24805	23410	159383	27242	1063064	46661	109165	0	0	8153	565761	0	0
2024-09-16 23:22:47			0	37735	0	0	0	24794	23420	159367	27410	1063109	46673	109161	0	0	8153	565610	0	0
2024-09-16 23:23:47			0	37749	0	0	0	24797	23410	159515	27376	1063046	46673	109162	0	0	8154	565085	0	0
2024-09-16 23:24:47			0	37733	0	0	0	24786	23400	159543	27208	1063001	46671	109158	0	0	8153	565753	0	0
2024-09-16 23:25:47			0	37712	0	0	0	24781	23400	159631	27180	1063073	46682	109156	0	0	8152	566589	0	0
2024-09-16 23:26:47			0	37714	0	0	0	24810	23390	159575	27168	1063064	46682	109167	0	0	8152	566541	0	0
2024-09-16 23:27:47			0	37699	0	0	0	24836	23380	159643	27105	1062992	46680	109177	0	0	8150	567171	0	0
2024-09-16 23:28:47			0	37703	0	0	0	24828	23390	159767	27320	1063090	46682	109174	0	0	8151	566980	0	0
2024-09-16 23:29:47			0	37680	0	0	0	24836	23400	159683	27414	1063073	46682	109177	0	0	8149	567865	0	0
2024-09-16 23:30:47			0	37688	0	0	0	24836	23400	159783	27310	1063099	46682	109177	0	0	8150	567546	0	0
2024-09-16 23:31:47			0	37669	0	0	0	24841	23410	159751	27270	1063117	46672	109179	0	0	8148	568272	0	0
2024-09-16 23:32:47			0	37669	0	0	0	24846	23400	159687	27097	1063162	46671	109181	0	0	8148	568304	0	0
2024-09-16 23:33:47			0	37699	0	0	0	24844	23410	159743	27066	1063206	46673	109180	0	0	8150	567075	0	0
2024-09-16 23:34:47			0	37693	0	0	0	24854	23410	159619	27281	1063153	46684	109184	0	0	8150	567314	0	0
2024-09-16 23:35:47			0	37695	0	0	0	24818	23410	159707	27334	1063171	46683	109170	0	0	8150	567235	0	0
2024-09-16 23:36:47			0	37699	0	0	0	24807	23420	159559	27483	1063189	46695	109166	0	0	8151	567044	0	0
2024-09-16 23:37:47			0	37697	0	0	0	24818	23410	159487	27189	1063117	46672	109170	0	0	8151	567155	0	0
2024-09-16 23:38:47			0	37698	0	0	0	24823	23420	159467	27441	1063135	46673	109172	0	0	8151	567083	0	0
2024-09-16 23:39:47			0	37716	0	0	0	24820	23420	159711	27561	1063215	46673	109171	0	0	8152	566366	0	0
2024-09-16 23:40:47			0	37709	0	0	0	24818	23410	159507	27360	1063117	46672	109170	0	0	8151	566677	0	0
2024-09-16 23:41:47			0	37711	0	0	0	24807	23410	159531	27281	1063153	46663	109166	0	0	8152	566597	0	0
2024-09-16 23:42:47			0	37725	0	0	0	24825	23410	159543	27526	1063091	46683	109173	0	0	8152	566040	0	0
2024-09-16 23:43:47			0	37708	0	0	0	24815	23390	159495	27274	1063064	46671	109169	0	0	8151	566781	0	0
2024-09-16 23:44:47			0	37710	0	0	0	24820	23400	159595	27123	1063135	46671	109171	0	0	8151	566669	0	0
2024-09-16 23:45:47			0	37691	0	0	0	24805	23400	159639	26890	1063073	46671	109165	0	0	8150	567426	0	0
2024-09-16 23:46:47			0	37708	0	0	0	24802	23410	159679	27145	1063117	46661	109164	0	0	8151	566717	0	0
2024-09-16 23:47:47			0	37686	0	0	0	24802	23400	159623	27237	1063082	46660	109164	0	0	8150	567625	0	0
2024-09-16 23:48:47			0	37702	0	0	0	24797	23410	159703	27251	1063117	46672	109162	0	0	8151	566956	0	0
2024-09-16 23:49:47			0	37684	0	0	0	24799	23400	159635	27277	1063126	46660	109163	0	0	8150	567705	0	0
2024-09-16 23:50:47			0	37694	0	0	0	24797	23400	159795	27564	1063046	46682	109162	0	0	8151	567307	0	0
2024-09-16 23:51:47			0	37674	0	0	0	24794	23400	159683	27395	1063073	46660	109161	0	0	8150	568104	0	0
2024-09-16 23:52:47			0	37688	0	0	0	24792	23390	159763	27159	1063064	46660	109160	0	0	8150	567578	0	0
2024-09-16 23:53:47			0	37672	0	0	0	24766	23390	159691	27237	1063037	46671	109150	0	0	8150	568216	0	0
2024-09-16 23:54:47			0	37682	0	0	0	24776	23380	159751	27277	1062966	46659	109154	0	0	8150	567849	0	0
2024-09-16 23:55:47			0	37661	0	0	0	24758	23390	159799	27365	1062975	46660	109147	0	0	8149	568655	0	0
2024-09-16 23:56:47			0	37658	0	0	0	24745	23370	159711	27041	1062867	46659	109142	0	0	8149	568839	0	0
2024-09-16 23:57:47			0	37682	0	0	0	24729	23370	159727	27024	1062867	46659	109136	0	0	8151	567881	0	0
2024-09-16 23:58:47			0	37656	0	0	0	24722	23370	159643	27469	1062858	46646	109133	0	0	8150	568919	0	0
2024-09-16 23:59:47			0	37648	0	0	0	24732	23360	159787	27345	1062823	46656	109137	0	0	8149	569270	0	0
2024-09-17 00:00:47			0	37644	0	0	0	24748	23360	159887	27197	1062814	46656	109143	0	0	8148	569430	0	0
2024-09-17 00:01:47			0	37635	0	0	0	24748	23360	159895	27218	1062787	46656	109143	0	0	8148	569790	0	0
2024-09-17 00:02:47			0	37614	0	0	0	24745	23360	160023	27319	1062760	46656	109142	0	0	8147	570630	0	0
2024-09-17 00:03:47			0	37603	0	0	0	24742	23350	160023	27277	1062796	46644	109141	0	0	8146	571102	0	0
2024-09-17 00:04:47			0	37602	0	0	0	24755	23340	160035	27164	1062787	46654	109146	0	0	8146	571174	0	0
2024-09-17 00:05:47			0	37578	0	0	0	24776	23350	160119	27595	1062716	46666	109154	0	0	8144	572103	0	0
2024-09-17 00:06:47			0	37586	0	0	0	24776	23350	160099	27393	1062796	46666	109154	0	0	8144	571783	0	0
2024-09-17 00:07:47			0	37577	0	0	0	24753	23350	160255	27538	1062849	46666	109145	0	0	8144	572143	0	0
2024-09-17 00:08:47			0	37572	0	0	0	24761	23350	160219	27874	1062805	46677	109148	0	0	8144	572344	0	0
2024-09-17 00:09:47			0	37572	0	0	0	24766	23350	160295	27234	1062796	46666	109150	0	0	8144	572344	0	0
2024-09-17 00:10:47			0	37582	0	0	0	24753	23350	160203	27410	1062778	46666	109145	0	0	8145	571943	0	0
2024-09-17 00:11:47			0	37577	0	0	0	24761	23350	160219	27379	1062796	46655	109148	0	0	8144	572143	0	0
2024-09-17 00:12:47			0	37578	0	0	0	24792	23350	160195	27310	1062849	46677	109160	0	0	8144	572103	0	0
2024-09-17 00:13:47			0	37578	0	0	0	24781	23350	160259	27289	1062822	46688	109156	0	0	8144	572103	0	0
2024-09-17 00:14:47			0	37588	0	0	0	24763	23350	160239	27265	1062849	46677	109149	0	0	8145	571703	0	0
2024-09-17 00:15:47			0	37575	0	0	0	24786	23360	160207	27540	1062921	46667	109158	0	0	8144	572191	0	0
2024-09-17 00:16:47			0	37587	0	0	0	24792	23350	160191	27744	1062849	46677	109160	0	0	8144	571743	0	0
2024-09-17 00:17:47			0	37585	0	0	0	24789	23350	160235	27500	1062822	46677	109159	0	0	8144	571823	0	0
2024-09-17 00:18:47			0	37581	0	0	0	24786	23350	160167	27291	1062858	46666	109158	0	0	8144	571983	0	0
2024-09-17 00:19:47			0	37607	0	0	0	24786	23360	160187	27517	1062947	46667	109158	0	0	8146	570910	0	0
2024-09-17 00:20:47			0	37605	0	0	0	24766	23350	160119	27672	1062885	46677	109150	0	0	8146	571022	0	0
2024-09-17 00:21:47			0	37583	0	0	0	24766	23360	160147	27478	1062903	46667	109150	0	0	8144	571871	0	0
2024-09-17 00:22:47			0	37589	0	0	0	24768	23360	160191	27282	1062930	46667	109151	0	0	8145	571630	0	0
2024-09-17 00:23:47			0	37620	0	0	0	24776	23360	160043	27476	1062921	46656	109154	0	0	8146	570389	0	0
2024-09-17 00:24:47			0	37614	0	0	0	24774	23350	160071	27398	1062938	46677	109153	0	0	8146	570662	0	0
2024-09-17 00:25:47			0	37606	0	0	0	24781	23360	160095	27305	1062921	46656	109156	0	0	8146	570950	0	0
2024-09-17 00:26:47			0	37625	0	0	0	24779	23360	160055	27364	1062840	46656	109155	0	0	8147	570190	0	0
2024-09-17 00:27:47			0	37613	0	0	0	24774	23370	159959	27076	1062939	46668	109153	0	0	8146	570638	0	0
2024-09-17 00:28:47			0	37610	0	0	0	24781	23360	160075	27185	1062930	46667	109156	0	0	8146	570790	0	0
2024-09-17 00:29:47			0	37616	0	0	0	24774	23360	160087	27166	1062947	46678	109153	0	0	8146	570549	0	0
2024-09-17 00:30:47			0	37613	0	0	0	24763	23350	160071	27429	1062912	46666	109149	0	0	8146	570702	0	0
2024-09-17 00:31:47			0	37607	0	0	0	24771	23360	160143	27149	1062921	46667	109152	0	0	8146	570910	0	0
2024-09-17 00:32:47			0	37598	0	0	0	24786	23360	160131	27329	1062796	46667	109158	0	0	8145	571270	0	0
2024-09-17 00:33:47			0	37601	0	0	0	24797	23360	160147	27386	1062947	46667	109162	0	0	8145	571150	0	0
2024-09-17 00:34:47			0	37591	0	0	0	24792	23360	160099	27242	1062921	46667	109160	0	0	8145	571550	0	0
2024-09-17 00:35:47			0	37578	0	0	0	24784	23360	160187	27072	1062956	46656	109157	0	0	8144	572071	0	0
2024-09-17 00:36:47			0	37572	0	0	0	24781	23360	160247	27199	1062930	46667	109156	0	0	8144	572312	0	0
2024-09-17 00:37:47			0	37575	0	0	0	24797	23370	160119	27255	1062939	46668	109162	0	0	8144	572159	0	0
2024-09-17 00:38:47			0	37567	0	0	0	24799	23370	160219	27189	1062912	46668	109163	0	0	8143	572480	0	0
2024-09-17 00:39:47			0	37574	0	0	0	24799	23370	160215	26944	1062948	46680	109163	0	0	8143	572199	0	0
2024-09-17 00:40:47			0	37579	0	0	0	24797	23360	160199	27300	1062930	46656	109162	0	0	8144	572031	0	0
2024-09-17 00:41:47			0	37574	0	0	0	24802	23360	160151	27320	1063010	46678	109164	0	0	8143	572231	0	0
2024-09-17 00:42:47			0	37587	0	0	0	24799	23360	160211	27130	1062894	46656	109163	0	0	8144	571711	0	0
2024-09-17 00:43:47			0	37572	0	0	0	24799	23370	160139	27234	1062974	46669	109163	0	0	8143	572280	0	0
2024-09-17 00:44:47			0	37581	0	0	0	24794	23370	160143	27277	1062992	46668	109161	0	0	8144	571919	0	0
2024-09-17 00:45:47			0	37587	0	0	0	24786	23380	160179	27005	1063010	46680	109158	0	0	8144	571646	0	0
2024-09-17 00:46:47			0	37580	0	0	0	24779	23370	160131	26967	1062974	46680	109155	0	0	8144	571959	0	0
2024-09-17 00:47:47			0	37586	0	0	0	24784	23370	160159	27074	1062965	46646	109157	0	0	8144	571719	0	0
2024-09-17 00:48:47			0	37594	0	0	0	24781	23370	160095	27140	1062912	46668	109156	0	0	8145	571398	0	0
2024-09-17 00:49:47			0	37565	0	0	0	24784	23380	160127	27464	1062903	46659	109157	0	0	8143	572528	0	0
2024-09-17 00:50:47			0	37575	0	0	0	24789	23370	159947	27476	1062939	46668	109159	0	0	8144	572159	0	0
2024-09-17 00:51:47			0	37596	0	0	0	24779	23360	160063	27268	1062876	46656	109155	0	0	8145	571350	0	0
2024-09-17 00:52:47			0	37589	0	0	0	24784	23370	160111	27353	1062948	46659	109157	0	0	8145	571598	0	0
2024-09-17 00:53:47			0	37583	0	0	0	24794	23360	160123	27296	1062947	46667	109161	0	0	8144	571871	0	0
2024-09-17 00:54:47			0	37587	0	0	0	24794	23370	160087	27067	1062965	46657	109161	0	0	8144	571678	0	0
2024-09-17 00:55:47			0	37593	0	0	0	24792	23370	160135	27034	1062948	46680	109160	0	0	8145	571438	0	0
2024-09-17 00:56:47			0	37595	0	0	0	24812	23360	160071	27260	1062956	46667	109168	0	0	8144	571390	0	0
2024-09-17 00:57:47			0	37589	0	0	0	24792	23360	160175	27189	1063010	46667	109160	0	0	8144	571630	0	0
2024-09-17 00:58:47			0	37583	0	0	0	24802	23370	160147	27196	1063028	46659	109164	0	0	8144	571839	0	0
2024-09-17 00:59:47			0	37598	0	0	0	24807	23370	160191	27144	1062965	46690	109166	0	0	8145	571238	0	0
2024-09-17 01:00:47			0	37594	0	0	0	24797	23380	160099	27161	1063010	46669	109162	0	0	8145	571366	0	0
2024-09-17 01:01:47			0	37575	0	0	0	24815	23380	160039	27312	1062992	46669	109169	0	0	8143	572127	0	0
2024-09-17 01:02:47			0	37599	0	0	0	24812	23370	160099	27059	1063001	46669	109168	0	0	8145	571198	0	0
2024-09-17 01:03:47			0	37610	0	0	0	24799	23370	160035	27114	1063028	46669	109163	0	0	8146	570757	0	0
2024-09-17 01:04:47			0	37608	0	0	0	24805	23380	159983	27213	1063010	46659	109165	0	0	8145	570805	0	0
2024-09-17 01:05:47			0	37610	0	0	0	24792	23380	160015	27372	1063046	46669	109160	0	0	8146	570725	0	0
2024-09-17 01:06:47			0	37618	0	0	0	24784	23380	159999	27279	1062966	46659	109157	0	0	8146	570405	0	0
2024-09-17 01:07:47			0	37637	0	0	0	24776	23370	159991	27225	1062974	46680	109154	0	0	8148	569678	0	0
2024-09-17 01:08:47			0	37640	0	0	0	24786	23380	160023	27324	1062983	46680	109158	0	0	8148	569526	0	0
2024-09-17 01:09:47			0	37626	0	0	0	24781	23370	160055	27150	1062965	46657	109156	0	0	8147	570117	0	0
2024-09-17 01:10:47			0	37627	0	0	0	24786	23370	160023	27286	1062948	46669	109158	0	0	8147	570077	0	0
2024-09-17 01:11:47			0	37625	0	0	0	24779	23370	159979	27131	1062948	46659	109155	0	0	8147	570157	0	0
2024-09-17 01:12:47			0	37622	0	0	0	24776	23370	160071	27310	1062921	46669	109154	0	0	8147	570277	0	0
2024-09-17 01:13:47			0	37629	0	0	0	24784	23380	159987	27121	1062930	46669	109157	0	0	8147	569965	0	0
2024-09-17 01:14:47			0	37637	0	0	0	24807	23370	159983	27400	1063028	46669	109166	0	0	8147	569678	0	0
2024-09-17 01:15:47			0	37626	0	0	0	24802	23380	160059	27433	1062966	46659	109164	0	0	8146	570085	0	0
2024-09-17 01:16:47			0	37646	0	0	0	24779	23370	160043	27372	1062939	46668	109155	0	0	8148	569318	0	0
2024-09-17 01:17:47			0	37621	0	0	0	24768	23380	160063	27355	1063037	46669	109151	0	0	8147	570285	0	0
2024-09-17 01:18:47			0	37646	0	0	0	24776	23370	159963	27284	1062948	46669	109154	0	0	8148	569318	0	0
2024-09-17 01:19:47			0	37653	0	0	0	24781	23370	159971	27012	1062948	46659	109156	0	0	8148	569038	0	0
2024-09-17 01:20:47			0	37635	0	0	0	24771	23370	160055	27034	1062965	46668	109152	0	0	8147	569758	0	0
2024-09-17 01:21:47			0	37632	0	0	0	24776	23360	159999	27008	1062983	46667	109154	0	0	8147	569910	0	0
2024-09-17 01:22:47			0	37639	0	0	0	24794	23360	160051	27263	1062930	46678	109161	0	0	8147	569630	0	0
2024-09-17 01:23:47			0	37647	0	0	0	24781	23380	159951	27296	1062983	46659	109156	0	0	8148	569246	0	0
2024-09-17 01:24:47			0	37631	0	0	0	24771	23360	159999	27171	1062947	46667	109152	0	0	8147	569950	0	0
2024-09-17 01:25:47			0	37646	0	0	0	24768	23360	159975	27469	1062903	46667	109151	0	0	8148	569350	0	0
2024-09-17 01:26:47			0	37639	0	0	0	24774	23360	160079	27275	1062956	46667	109153	0	0	8148	569630	0	0
2024-09-17 01:27:47			0	37636	0	0	0	24766	23350	160055	27395	1062912	46644	109150	0	0	8148	569782	0	0
2024-09-17 01:28:47			0	37630	0	0	0	24761	23360	159959	27173	1062814	46667	109148	0	0	8147	569989	0	0
2024-09-17 01:29:47			0	37632	0	0	0	24755	23360	160007	27488	1062930	46678	109146	0	0	8148	569910	0	0
2024-09-17 01:30:47			0	37652	0	0	0	24748	23360	159979	27362	1062876	46667	109143	0	0	8149	569110	0	0
2024-09-17 01:31:47			0	37652	0	0	0	24753	23360	159971	27083	1062849	46667	109145	0	0	8149	569110	0	0
2024-09-17 01:32:47			0	37642	0	0	0	24735	23350	159891	27393	1062796	46666	109138	0	0	8148	569542	0	0
2024-09-17 01:33:47			0	37631	0	0	0	24737	23340	159919	27171	1062814	46666	109139	0	0	8148	570014	0	0
2024-09-17 01:34:47			0	37651	0	0	0	24742	23350	159915	27488	1062778	46655	109141	0	0	8149	569182	0	0
2024-09-17 01:35:47			0	37642	0	0	0	24706	23350	159963	27286	1062822	46666	109127	0	0	8149	569542	0	0
2024-09-17 01:36:47			0	37654	0	0	0	24711	23340	159955	27116	1062760	46654	109129	0	0	8149	569094	0	0
2024-09-17 01:37:47			0	37631	0	0	0	24711	23340	159999	27428	1062751	46653	109129	0	0	8148	570014	0	0
2024-09-17 01:38:47			0	37629	0	0	0	24706	23330	160107	27443	1062715	46653	109127	0	0	8148	570125	0	0
2024-09-17 01:39:47			0	37613	0	0	0	24706	23330	160031	26953	1062689	46653	109127	0	0	8147	570766	0	0
2024-09-17 01:40:47			0	37596	0	0	0	24701	23320	160055	27170	1062724	46664	109125	0	0	8146	571478	0	0
2024-09-17 01:41:47			0	37607	0	0	0	24703	23330	160171	27341	1062706	46665	109126	0	0	8147	571006	0	0
2024-09-17 01:42:47			0	37595	0	0	0	24706	23330	160127	27434	1062653	46665	109127	0	0	8146	571486	0	0
2024-09-17 01:43:47			0	37598	0	0	0	24698	23320	160187	27253	1062671	46641	109124	0	0	8146	571398	0	0
2024-09-17 01:44:47			0	37593	0	0	0	24683	23310	160183	27272	1062626	46651	109118	0	0	8146	571631	0	0
2024-09-17 01:45:47			0	37584	0	0	0	24683	23310	160235	27145	1062572	46663	109118	0	0	8146	571991	0	0
2024-09-17 01:46:47			0	37571	0	0	0	24683	23310	160159	27237	1062563	46663	109118	0	0	8145	572513	0	0
2024-09-17 01:47:47			0	37555	0	0	0	24651	23310	160231	27095	1062563	46651	109106	0	0	8145	573155	0	0
2024-09-17 01:48:47			0	37577	0	0	0	24646	23300	160303	27156	1062554	46662	109104	0	0	8146	572304	0	0
2024-09-17 01:49:47			0	37583	0	0	0	24644	23300	160347	27374	1062465	46638	109103	0	0	8146	572064	0	0
2024-09-17 01:50:47			0	37566	0	0	0	24615	23290	160283	27109	1062429	46638	109092	0	0	8146	572777	0	0
2024-09-17 01:51:47			0	37575	0	0	0	24623	23270	160235	27350	1062340	46646	109095	0	0	8146	572481	0	0
2024-09-17 01:52:47			0	37568	0	0	0	24615	23280	160287	27166	1062385	46637	109092	0	0	8146	572729	0	0
2024-09-17 01:53:47			0	37551	0	0	0	24615	23280	160327	27130	1062322	46636	109092	0	0	8145	573412	0	0
2024-09-17 01:54:47			0	37562	0	0	0	24615	23260	160339	27407	1062349	46635	109092	0	0	8145	573034	0	0
2024-09-17 01:55:47			0	37550	0	0	0	24615	23260	160379	27196	1062349	46635	109092	0	0	8145	573516	0	0
2024-09-17 01:56:47			0	37533	0	0	0	24612	23250	160515	27562	1062197	46633	109091	0	0	8144	574231	0	0
2024-09-17 01:57:47			0	37538	0	0	0	24610	23250	160527	27145	1062268	46633	109090	0	0	8144	574030	0	0
2024-09-17 01:58:47			0	37547	0	0	0	24610	23240	160463	27208	1062206	46644	109090	0	0	8144	573701	0	0
2024-09-17 01:59:47			0	37533	0	0	0	24615	23240	160575	27306	1062179	46656	109092	0	0	8144	574263	0	0
2024-09-17 02:00:47			0	37517	0	0	0	24610	23230	160591	27178	1062215	46642	109090	0	0	8143	574939	0	0
2024-09-17 02:01:47			0	37520	0	0	0	24605	23220	160579	27261	1062197	46642	109088	0	0	8143	574851	0	0
2024-09-17 02:02:47			0	37513	0	0	0	24592	23230	160679	27282	1062188	46642	109083	0	0	8143	575100	0	0
2024-09-17 02:03:47			0	37500	0	0	0	24594	23230	160595	27412	1062188	46642	109084	0	0	8142	575623	0	0
2024-09-17 02:04:47			0	37505	0	0	0	24602	23220	160763	27296	1062143	46631	109087	0	0	8142	575454	0	0
2024-09-17 02:05:47			0	37511	0	0	0	24602	23220	160731	27391	1062135	46641	109087	0	0	8142	575213	0	0
2024-09-17 02:06:47			0	37488	0	0	0	24615	23220	160723	27161	1062108	46641	109092	0	0	8141	576139	0	0
2024-09-17 02:07:47			0	37483	0	0	0	24610	23220	160799	27222	1062135	46652	109090	0	0	8141	576340	0	0
2024-09-17 02:08:47			0	37480	0	0	0	24594	23220	160751	27102	1062108	46652	109084	0	0	8141	576461	0	0
2024-09-17 02:09:47			0	37471	0	0	0	24594	23210	160835	27298	1062063	46639	109084	0	0	8140	576856	0	0
2024-09-17 02:10:47			0	37478	0	0	0	24589	23210	160759	27338	1062117	46639	109082	0	0	8141	576574	0	0
2024-09-17 02:11:47			0	37466	0	0	0	24579	23210	160863	27090	1062072	46640	109078	0	0	8140	577058	0	0
2024-09-17 02:12:47			0	37476	0	0	0	24589	23200	160819	27237	1062027	46651	109082	0	0	8140	576687	0	0
2024-09-17 02:13:47			0	37467	0	0	0	24573	23200	160847	27350	1062045	46639	109076	0	0	8140	577050	0	0
2024-09-17 02:14:47			0	37481	0	0	0	24586	23200	160811	27308	1062045	46651	109081	0	0	8141	576485	0	0
2024-09-17 02:15:47			0	37483	0	0	0	24584	23190	160803	27045	1062009	46649	109080	0	0	8141	576437	0	0
2024-09-17 02:16:47			0	37497	0	0	0	24594	23190	160775	27371	1062009	46649	109084	0	0	8142	575873	0	0
2024-09-17 02:17:47			0	37483	0	0	0	24581	23190	160739	27428	1062063	46638	109079	0	0	8141	576437	0	0
2024-09-17 02:18:47			0	37482	0	0	0	24584	23190	160891	27258	1062009	46649	109080	0	0	8141	576477	0	0
2024-09-17 02:19:47			0	37497	0	0	0	24576	23180	160875	27460	1062018	46626	109077	0	0	8142	575905	0	0
2024-09-17 02:20:47			0	37487	0	0	0	24573	23190	160951	27235	1062027	46648	109076	0	0	8141	576276	0	0
2024-09-17 02:21:47			0	37484	0	0	0	24555	23190	160815	27450	1062009	46638	109069	0	0	8141	576397	0	0
2024-09-17 02:22:47			0	37474	0	0	0	24553	23170	160891	27504	1061973	46647	109068	0	0	8141	576865	0	0
2024-09-17 02:23:47			0	37491	0	0	0	24566	23180	160923	27239	1061956	46637	109073	0	0	8142	576147	0	0
2024-09-17 02:24:47			0	37474	0	0	0	24555	23170	160871	27095	1062000	46659	109069	0	0	8141	576865	0	0
2024-09-17 02:25:47			0	37466	0	0	0	24563	23170	160987	27339	1061911	46635	109072	0	0	8140	577187	0	0
2024-09-17 02:26:47			0	37469	0	0	0	24558	23180	160979	27225	1061956	46648	109070	0	0	8140	577034	0	0
2024-09-17 02:27:47			0	37451	0	0	0	24553	23150	161007	27426	1061866	46635	109068	0	0	8139	577857	0	0
2024-09-17 02:28:47			0	37461	0	0	0	24548	23160	160859	27819	1061902	46635	109066	0	0	8140	577421	0	0
2024-09-17 02:29:47			0	37441	0	0	0	24548	23170	160915	27455	1061884	46635	109066	0	0	8139	578196	0	0
2024-09-17 02:30:47			0	37441	0	0	0	24548	23160	160975	27228	1061848	46646	109066	0	0	8139	578228	0	0
2024-09-17 02:31:47			0	37446	0	0	0	24540	23150	160907	27208	1061839	46635	109063	0	0	8139	578059	0	0
2024-09-17 02:32:47			0	37421	0	0	0	24529	23150	161083	27164	1061866	46625	109059	0	0	8138	579069	0	0
2024-09-17 02:33:47			0	37422	0	0	0	24537	23150	161095	26927	1061804	46634	109062	0	0	8138	579028	0	0
2024-09-17 02:34:47			0	37399	0	0	0	24527	23140	161147	27324	1061768	46633	109058	0	0	8137	579991	0	0
2024-09-17 02:35:47			0	37384	0	0	0	24522	23140	161239	27222	1061795	46633	109056	0	0	8136	580598	0	0
2024-09-17 02:36:47			0	37381	0	0	0	24522	23150	161239	27369	1061884	46634	109056	0	0	8136	580687	0	0
2024-09-17 02:37:47			0	37366	0	0	0	24535	23130	161375	27178	1061804	46632	109061	0	0	8135	581360	0	0
2024-09-17 02:38:47			0	37339	0	0	0	24542	23140	161403	27085	1061759	46632	109064	0	0	8133	582422	0	0
2024-09-17 02:39:47			0	37335	0	0	0	24561	23130	161323	26970	1061777	46632	109071	0	0	8132	582617	0	0
2024-09-17 02:40:47			0	37352	0	0	0	24566	23140	161451	27116	1061813	46643	109073	0	0	8133	581894	0	0
2024-09-17 02:41:47			0	37340	0	0	0	24553	23140	161347	27177	1061822	46644	109068	0	0	8133	582381	0	0
2024-09-17 02:42:47			0	37351	0	0	0	24558	23140	161383	27538	1061813	46643	109070	0	0	8133	581935	0	0
2024-09-17 02:43:47			0	37372	0	0	0	24566	23150	161435	27225	1061777	46667	109073	0	0	8134	581051	0	0
2024-09-17 02:44:47			0	37372	0	0	0	24542	23140	161227	27607	1061795	46656	109064	0	0	8135	581084	0	0
2024-09-17 02:45:47			0	37377	0	0	0	24522	23140	161179	27393	1061822	46656	109056	0	0	8135	580881	0	0
2024-09-17 02:46:47			0	37393	0	0	0	24509	23130	161107	27211	1061777	46632	109051	0	0	8137	580266	0	0
2024-09-17 02:47:47			0	37389	0	0	0	24537	23140	161079	27305	1061795	46633	109062	0	0	8136	580395	0	0
2024-09-17 02:48:47			0	37405	0	0	0	24571	23140	161175	27298	1061786	46632	109075	0	0	8136	579748	0	0
2024-09-17 02:49:47			0	37387	0	0	0	24602	23150	161203	27355	1061857	46667	109087	0	0	8135	580444	0	0
2024-09-17 02:50:47			0	37383	0	0	0	24599	23150	161275	26880	1061884	46667	109086	0	0	8135	580606	0	0
2024-09-17 02:51:47			0	37354	0	0	0	24594	23150	161219	27287	1061937	46657	109084	0	0	8133	581781	0	0
2024-09-17 02:52:47			0	37378	0	0	0	24558	23150	161271	27466	1061937	46667	109070	0	0	8135	580808	0	0
2024-09-17 02:53:47			0	37399	0	0	0	24610	23170	161083	27557	1061938	46658	109090	0	0	8135	579893	0	0
2024-09-17 02:54:47			0	37445	0	0	0	24599	23170	161043	27251	1061938	46658	109086	0	0	8138	578034	0	0
2024-09-17 02:55:47			0	37441	0	0	0	24599	23170	160911	27403	1061991	46646	109086	0	0	8138	578196	0	0
2024-09-17 02:56:47			0	37450	0	0	0	24586	23170	160807	27237	1061973	46659	109081	0	0	8139	577833	0	0
2024-09-17 02:57:47			0	37470	0	0	0	24576	23170	160691	27511	1061964	46635	109077	0	0	8140	577026	0	0
2024-09-17 02:58:47			0	37493	0	0	0	24594	23170	160643	27312	1061964	46646	109084	0	0	8141	576099	0	0
2024-09-17 02:59:47			0	37504	0	0	0	24599	23170	160603	27121	1062000	46647	109086	0	0	8142	575656	0	0
2024-09-17 03:00:47			0	37524	0	0	0	24618	23180	160531	27531	1062009	46648	109093	0	0	8143	574819	0	0
2024-09-17 03:01:47			0	37528	0	0	0	24628	23190	160471	27166	1062054	46637	109097	0	0	8143	574626	0	0
2024-09-17 03:02:47			0	37510	0	0	0	24628	23180	160491	27346	1062036	46637	109097	0	0	8142	575382	0	0
2024-09-17 03:03:47			0	37552	0	0	0	24607	23180	160379	27436	1062062	46660	109089	0	0	8145	573694	0	0
2024-09-17 03:04:47			0	37587	0	0	0	24631	23190	160319	27308	1062054	46670	109098	0	0	8146	572256	0	0
2024-09-17 03:05:47			0	37593	0	0	0	24644	23190	160195	27547	1062116	46649	109103	0	0	8146	572016	0	0
2024-09-17 03:06:47			0	37615	0	0	0	24628	23190	160127	27441	1062089	46649	109097	0	0	8148	571134	0	0
2024-09-17 03:07:47			0	37637	0	0	0	24610	23200	160095	27428	1062152	46662	109090	0	0	8150	570222	0	0
2024-09-17 03:08:47			0	37665	0	0	0	24633	23200	160155	27592	1062152	46651	109099	0	0	8151	569102	0	0
2024-09-17 03:09:47			0	37670	0	0	0	24623	23200	160011	27313	1062241	46662	109095	0	0	8151	568902	0	0
2024-09-17 03:10:47			0	37684	0	0	0	24638	23200	159939	27433	1062134	46662	109101	0	0	8152	568343	0	0
2024-09-17 03:11:47			0	37707	0	0	0	24641	23200	159887	27429	1062161	46662	109102	0	0	8153	567425	0	0
2024-09-17 03:12:47			0	37705	0	0	0	24636	23210	159859	27545	1062170	46662	109100	0	0	8153	567473	0	0
2024-09-17 03:13:47			0	37725	0	0	0	24641	23210	159775	27331	1062143	46662	109102	0	0	8154	566676	0	0
2024-09-17 03:14:47			0	37725	0	0	0	24628	23210	159707	27412	1062179	46652	109097	0	0	8154	566676	0	0
2024-09-17 03:15:47			0	37733	0	0	0	24636	23210	159723	27222	1062223	46662	109100	0	0	8155	566357	0	0
2024-09-17 03:16:47			0	37765	0	0	0	24620	23220	159647	27360	1062170	46653	109094	0	0	8157	565052	0	0
2024-09-17 03:17:47			0	37746	0	0	0	24631	23210	159603	27105	1062179	46640	109098	0	0	8156	565840	0	0
2024-09-17 03:18:47			0	37750	0	0	0	24649	23220	159599	27109	1062215	46652	109105	0	0	8156	565649	0	0
2024-09-17 03:19:47			0	37730	0	0	0	24657	23210	159719	27003	1062232	46652	109108	0	0	8154	566477	0	0
2024-09-17 03:20:47			0	37737	0	0	0	24662	23220	159727	27185	1062268	46652	109110	0	0	8155	566166	0	0
2024-09-17 03:21:47			0	37742	0	0	0	24646	23230	159683	27133	1062233	46665	109104	0	0	8155	565935	0	0
2024-09-17 03:22:47			0	37734	0	0	0	24631	23220	159607	27320	1062224	46653	109098	0	0	8155	566286	0	0
2024-09-17 03:23:47			0	37756	0	0	0	24641	23230	159599	26958	1062259	46653	109102	0	0	8156	565378	0	0
2024-09-17 03:24:47			0	37753	0	0	0	24677	23220	159671	27367	1062215	46652	109116	0	0	8155	565529	0	0
2024-09-17 03:25:47			0	37764	0	0	0	24651	23230	159535	27293	1062268	46642	109106	0	0	8156	565060	0	0
2024-09-17 03:26:47			0	37770	0	0	0	24649	23230	159619	26911	1062313	46653	109105	0	0	8157	564821	0	0
2024-09-17 03:27:47			0	37801	0	0	0	24644	23240	159439	27320	1062251	46643	109103	0	0	8159	563558	0	0
2024-09-17 03:28:47			0	37800	0	0	0	24644	23230	159375	27331	1062259	46665	109103	0	0	8159	563629	0	0
2024-09-17 03:29:47			0	37806	0	0	0	24644	23240	159407	27616	1062331	46655	109103	0	0	8159	563359	0	0
2024-09-17 03:30:47			0	37803	0	0	0	24651	23230	159455	27244	1062322	46653	109106	0	0	8159	563510	0	0
2024-09-17 03:31:47			0	37815	0	0	0	24651	23220	159455	27140	1062277	46665	109106	0	0	8159	563065	0	0
2024-09-17 03:32:47			0	37800	0	0	0	24631	23230	159503	27419	1062295	46653	109098	0	0	8159	563629	0	0
2024-09-17 03:33:47			0	37789	0	0	0	24644	23240	159415	27111	1062304	46655	109103	0	0	8158	564034	0	0
2024-09-17 03:34:47			0	37797	0	0	0	24641	23230	159467	27497	1062295	46653	109102	0	0	8159	563748	0	0
2024-09-17 03:35:47			0	37785	0	0	0	24628	23230	159431	27346	1062233	46642	109097	0	0	8158	564225	0	0
2024-09-17 03:36:47			0	37815	0	0	0	24615	23230	159335	27369	1062295	46642	109092	0	0	8160	563034	0	0
2024-09-17 03:37:47			0	37814	0	0	0	24618	23230	159339	26863	1062242	46653	109093	0	0	8160	563073	0	0
2024-09-17 03:38:47			0	37817	0	0	0	24618	23230	159319	27324	1062233	46665	109093	0	0	8160	562954	0	0
2024-09-17 03:39:47			0	37795	0	0	0	24628	23220	159463	27326	1062117	46642	109097	0	0	8159	563860	0	0
2024-09-17 03:40:47			0	37792	0	0	0	24625	23230	159463	27170	1062215	46642	109096	0	0	8159	563947	0	0
2024-09-17 03:41:47			0	37780	0	0	0	24636	23230	159539	27131	1062259	46642	109100	0	0	8158	564424	0	0
2024-09-17 03:42:47			0	37798	0	0	0	24638	23220	159531	27206	1062215	46652	109101	0	0	8159	563740	0	0
2024-09-17 03:43:47			0	37788	0	0	0	24644	23220	159483	27481	1062224	46665	109103	0	0	8158	564138	0	0
2024-09-17 03:44:47			0	37785	0	0	0	24649	23220	159531	27388	1062197	46631	109105	0	0	8158	564257	0	0
2024-09-17 03:45:47			0	37797	0	0	0	24631	23220	159499	26911	1062250	46653	109098	0	0	8159	563780	0	0
2024-09-17 03:46:47			0	37817	0	0	0	24641	23230	159491	27220	1062286	46642	109102	0	0	8160	562954	0	0
2024-09-17 03:47:47			0	37805	0	0	0	24631	23230	159339	26821	1062313	46642	109098	0	0	8159	563431	0	0
2024-09-17 03:48:47			0	37823	0	0	0	24641	23230	159235	27090	1062179	46642	109102	0	0	8160	562716	0	0
2024-09-17 03:49:47			0	37808	0	0	0	24649	23230	159283	27150	1062259	46642	109105	0	0	8159	563312	0	0
2024-09-17 03:50:47			0	37833	0	0	0	24646	23220	159327	27244	1062250	46653	109104	0	0	8161	562351	0	0
2024-09-17 03:51:47			0	37815	0	0	0	24651	23220	159291	27272	1062197	46653	109106	0	0	8159	563065	0	0
2024-09-17 03:52:47			0	37815	0	0	0	24649	23240	159343	27213	1062224	46643	109105	0	0	8160	563002	0	0
2024-09-17 03:53:47			0	37824	0	0	0	24644	23230	159423	27173	1062295	46653	109103	0	0	8160	562677	0	0
2024-09-17 03:54:47			0	37831	0	0	0	24628	23240	159363	26894	1062224	46643	109097	0	0	8161	562367	0	0
2024-09-17 03:55:47			0	37815	0	0	0	24612	23230	159331	27178	1062242	46642	109091	0	0	8160	563034	0	0
2024-09-17 03:56:47			0	37815	0	0	0	24605	23230	159323	27246	1062233	46642	109088	0	0	8160	563034	0	0
2024-09-17 03:57:47			0	37830	0	0	0	24620	23220	159183	27135	1062197	46642	109094	0	0	8161	562470	0	0
2024-09-17 03:58:47			0	37823	0	0	0	24633	23220	159255	27365	1062224	46642	109099	0	0	8160	562748	0	0
2024-09-17 03:59:47			0	37815	0	0	0	24641	23230	159187	27183	1062233	46642	109102	0	0	8160	563034	0	0
2024-09-17 04:00:47			0	37819	0	0	0	24636	23220	159303	26930	1062241	46664	109100	0	0	8160	562907	0	0
2024-09-17 04:01:47			0	37828	0	0	0	24644	23220	159215	27436	1062197	46653	109103	0	0	8160	562550	0	0
2024-09-17 04:02:47			0	37840	0	0	0	24636	23220	159275	27251	1062241	46641	109100	0	0	8161	562074	0	0
2024-09-17 04:03:47			0	37829	0	0	0	24623	23220	159127	26981	1062215	46652	109095	0	0	8161	562510	0	0
2024-09-17 04:04:47			0	37833	0	0	0	24620	23220	159195	27260	1062224	46653	109094	0	0	8161	562351	0	0
2024-09-17 04:05:47			0	37835	0	0	0	24633	23220	159139	26902	1062161	46641	109099	0	0	8161	562272	0	0
2024-09-17 04:06:47			0	37834	0	0	0	24628	23230	159151	27050	1062233	46642	109097	0	0	8161	562280	0	0
2024-09-17 04:07:47			0	37842	0	0	0	24625	23220	159175	27215	1062250	46665	109096	0	0	8161	561995	0	0
2024-09-17 04:08:47			0	37829	0	0	0	24623	23210	159251	27339	1062206	46652	109095	0	0	8161	562542	0	0
2024-09-17 04:09:47			0	37833	0	0	0	24618	23220	159299	27268	1062170	46653	109093	0	0	8161	562351	0	0
2024-09-17 04:10:47			0	37823	0	0	0	24615	23220	159259	27341	1062224	46653	109092	0	0	8160	562748	0	0
2024-09-17 04:11:47			0	37818	0	0	0	24623	23220	159299	27258	1062161	46652	109095	0	0	8160	562946	0	0
2024-09-17 04:12:47			0	37834	0	0	0	24649	23220	159395	27272	1062241	46652	109105	0	0	8161	562312	0	0
2024-09-17 04:13:47			0	37834	0	0	0	24654	23210	159287	27391	1062206	46652	109107	0	0	8160	562343	0	0
2024-09-17 04:14:47			0	37807	0	0	0	24641	23220	159351	27222	1062170	46653	109102	0	0	8159	563383	0	0
2024-09-17 04:15:47			0	37812	0	0	0	24649	23230	159287	27128	1062179	46653	109105	0	0	8159	563153	0	0
2024-09-17 04:16:47			0	37819	0	0	0	24646	23230	159307	26986	1062268	46653	109104	0	0	8160	562875	0	0
2024-09-17 04:17:47			0	37814	0	0	0	24636	23230	159279	26894	1062233	46665	109100	0	0	8160	563073	0	0
2024-09-17 04:18:47			0	37818	0	0	0	24638	23230	159191	27085	1062313	46653	109101	0	0	8160	562915	0	0
2024-09-17 04:19:47			0	37804	0	0	0	24649	23220	159167	27386	1062224	46653	109105	0	0	8159	563502	0	0
2024-09-17 04:20:47			0	37823	0	0	0	24638	23230	159215	27409	1062286	46653	109101	0	0	8160	562716	0	0
2024-09-17 04:21:47			0	37837	0	0	0	24641	23220	159167	27150	1062188	46664	109102	0	0	8161	562193	0	0
2024-09-17 04:22:47			0	37835	0	0	0	24631	23220	159171	26821	1062304	46642	109098	0	0	8161	562272	0	0
2024-09-17 04:23:47			0	37823	0	0	0	24633	23220	159223	27223	1062250	46653	109099	0	0	8160	562748	0	0
2024-09-17 04:24:47			0	37816	0	0	0	24641	23220	159135	27131	1062250	46665	109102	0	0	8160	563026	0	0
2024-09-17 04:25:47			0	37812	0	0	0	24631	23220	159223	27630	1062250	46653	109098	0	0	8160	563184	0	0
2024-09-17 04:26:47			0	37831	0	0	0	24641	23230	159231	27274	1062242	46653	109102	0	0	8161	562399	0	0
2024-09-17 04:27:47			0	37825	0	0	0	24646	23230	159195	27450	1062215	46642	109104	0	0	8160	562637	0	0
2024-09-17 04:28:47			0	37825	0	0	0	24638	23230	159243	27353	1062259	46642	109101	0	0	8160	562637	0	0
2024-09-17 04:29:47			0	37820	0	0	0	24654	23230	159247	27317	1062259	46653	109107	0	0	8160	562835	0	0
2024-09-17 04:30:47			0	37804	0	0	0	24638	23240	159299	27034	1062304	46655	109101	0	0	8159	563439	0	0
2024-09-17 04:31:47			0	37809	0	0	0	24651	23230	159207	26949	1062295	46653	109106	0	0	8159	563272	0	0
2024-09-17 04:32:47			0	37797	0	0	0	24651	23230	159291	27282	1062206	46665	109106	0	0	8158	563748	0	0
2024-09-17 04:33:47			0	37790	0	0	0	24644	23230	159287	27294	1062242	46653	109103	0	0	8158	564026	0	0
2024-09-17 04:34:47			0	37796	0	0	0	24641	23230	159307	27478	1062313	46653	109102	0	0	8158	563788	0	0
2024-09-17 04:35:47			0	37808	0	0	0	24641	23230	159399	27130	1062259	46642	109102	0	0	8159	563312	0	0
2024-09-17 04:36:47			0	37787	0	0	0	24641	23230	159303	27490	1062233	46642	109102	0	0	8158	564146	0	0
2024-09-17 04:37:47			0	37787	0	0	0	24641	23240	159319	27493	1062170	46643	109102	0	0	8158	564114	0	0
2024-09-17 04:38:47			0	37801	0	0	0	24636	23230	159303	27216	1062259	46631	109100	0	0	8159	563590	0	0
2024-09-17 04:39:47			0	37794	0	0	0	24636	23230	159311	27104	1062313	46631	109100	0	0	8158	563868	0	0
2024-09-17 04:40:47			0	37800	0	0	0	24646	23230	159359	26956	1062313	46642	109104	0	0	8159	563629	0	0
2024-09-17 04:41:47			0	37803	0	0	0	24651	23230	159283	27355	1062259	46665	109106	0	0	8159	563510	0	0
2024-09-17 04:42:47			0	37809	0	0	0	24641	23230	159407	26816	1062366	46665	109102	0	0	8159	563272	0	0
2024-09-17 04:43:47			0	37820	0	0	0	24651	23230	159371	26951	1062286	46653	109106	0	0	8160	562835	0	0
2024-09-17 04:44:47			0	37791	0	0	0	24649	23230	159259	27357	1062295	46653	109105	0	0	8158	563987	0	0
2024-09-17 04:45:47			0	37798	0	0	0	24644	23220	159287	27296	1062277	46642	109103	0	0	8159	563740	0	0
2024-09-17 04:46:47			0	37802	0	0	0	24638	23230	159431	27149	1062313	46642	109101	0	0	8159	563550	0	0
2024-09-17 04:47:47			0	37789	0	0	0	24628	23240	159363	27235	1062304	46632	109097	0	0	8158	564034	0	0
2024-09-17 04:48:47			0	37799	0	0	0	24628	23230	159395	27213	1062268	46653	109097	0	0	8159	563669	0	0
2024-09-17 04:49:47			0	37794	0	0	0	24631	23230	159383	27130	1062268	46653	109098	0	0	8159	563868	0	0
2024-09-17 04:50:47			0	37793	0	0	0	24631	23230	159367	27415	1062233	46642	109098	0	0	8158	563907	0	0
2024-09-17 04:51:47			0	37792	0	0	0	24633	23240	159339	27097	1062197	46643	109099	0	0	8158	563915	0	0
2024-09-17 04:52:47			0	37801	0	0	0	24631	23220	159263	27296	1062250	46653	109098	0	0	8159	563621	0	0
2024-09-17 04:53:47			0	37784	0	0	0	24638	23220	159431	27078	1062215	46641	109101	0	0	8158	564296	0	0
2024-09-17 04:54:47			0	37780	0	0	0	24628	23220	159431	26974	1062224	46642	109097	0	0	8158	564455	0	0
2024-09-17 04:55:47			0	37776	0	0	0	24628	23230	159447	27322	1062233	46653	109097	0	0	8158	564583	0	0
2024-09-17 04:56:47			0	37789	0	0	0	24620	23220	159407	27176	1062170	46653	109094	0	0	8158	564098	0	0
2024-09-17 04:57:47			0	37762	0	0	0	24618	23220	159347	26811	1062250	46631	109093	0	0	8157	565171	0	0
2024-09-17 04:58:47			0	37794	0	0	0	24631	23230	159471	27147	1062259	46653	109098	0	0	8159	563868	0	0
2024-09-17 04:59:47			0	37772	0	0	0	24646	23230	159439	27131	1062233	46642	109104	0	0	8157	564742	0	0
2024-09-17 05:00:47			0	37786	0	0	0	24628	23220	159471	27268	1062224	46653	109097	0	0	8158	564217	0	0
2024-09-17 05:01:47			0	37761	0	0	0	24631	23220	159507	27048	1062277	46665	109098	0	0	8157	565211	0	0
2024-09-17 05:02:47			0	37770	0	0	0	24631	23220	159471	27093	1062268	46652	109098	0	0	8157	564853	0	0
2024-09-17 05:03:47			0	37772	0	0	0	24628	23230	159451	27300	1062206	46631	109097	0	0	8157	564742	0	0
2024-09-17 05:04:47			0	37791	0	0	0	24618	23230	159323	27334	1062215	46653	109093	0	0	8159	563987	0	0
2024-09-17 05:05:47			0	37768	0	0	0	24620	23220	159383	27293	1062197	46642	109094	0	0	8157	564933	0	0
2024-09-17 05:06:47			0	37789	0	0	0	24605	23220	159311	27027	1062250	46665	109088	0	0	8159	564098	0	0
2024-09-17 05:07:47			0	37800	0	0	0	24607	23230	159399	27267	1062179	46642	109089	0	0	8159	563629	0	0
2024-09-17 05:08:47			0	37790	0	0	0	24607	23220	159315	27265	1062170	46621	109089	0	0	8159	564058	0	0
2024-09-17 05:09:47			0	37792	0	0	0	24607	23200	159411	27102	1062161	46639	109089	0	0	8159	564042	0	0
2024-09-17 05:10:47			0	37797	0	0	0	24605	23220	159359	27171	1062188	46652	109088	0	0	8159	563780	0	0
2024-09-17 05:11:47			0	37800	0	0	0	24592	23210	159367	27197	1062152	46640	109083	0	0	8159	563692	0	0
2024-09-17 05:12:47			0	37815	0	0	0	24605	23210	159339	27036	1062170	46651	109088	0	0	8160	563097	0	0
2024-09-17 05:13:47			0	37815	0	0	0	24615	23210	159287	27067	1062126	46640	109092	0	0	8160	563097	0	0
2024-09-17 05:14:47			0	37841	0	0	0	24623	23210	159259	27294	1062143	46639	109095	0	0	8161	562066	0	0
2024-09-17 05:15:47			0	37833	0	0	0	24612	23200	159283	26875	1062099	46639	109091	0	0	8161	562414	0	0
2024-09-17 05:16:47			0	37814	0	0	0	24612	23210	159263	27071	1062170	46628	109091	0	0	8160	563137	0	0
2024-09-17 05:17:47			0	37837	0	0	0	24605	23200	159183	27154	1062161	46662	109088	0	0	8161	562256	0	0
2024-09-17 05:18:47			0	37831	0	0	0	24607	23210	159287	27509	1062179	46652	109089	0	0	8161	562462	0	0
2024-09-17 05:19:47			0	37834	0	0	0	24625	23200	159199	27400	1062161	46639	109096	0	0	8161	562375	0	0
2024-09-17 05:20:47			0	37851	0	0	0	24618	23190	159187	27281	1062169	46649	109093	0	0	8162	561732	0	0
2024-09-17 05:21:47			0	37838	0	0	0	24607	23210	159227	27175	1062197	46651	109089	0	0	8161	562185	0	0
2024-09-17 05:22:47			0	37842	0	0	0	24620	23200	159243	27483	1062054	46651	109094	0	0	8161	562058	0	0
2024-09-17 05:23:47			0	37846	0	0	0	24620	23200	159215	27118	1062134	46651	109094	0	0	8162	561899	0	0
2024-09-17 05:24:47			0	37823	0	0	0	24618	23210	159167	27088	1062170	46639	109093	0	0	8160	562779	0	0
2024-09-17 05:25:47			0	37821	0	0	0	24607	23210	159175	27277	1062179	46640	109089	0	0	8160	562859	0	0
2024-09-17 05:26:47			0	37843	0	0	0	24612	23200	159131	26942	1062108	46662	109091	0	0	8162	562018	0	0
2024-09-17 05:27:47			0	37829	0	0	0	24610	23210	159307	27102	1062170	46639	109090	0	0	8161	562542	0	0
2024-09-17 05:28:47			0	37851	0	0	0	24620	23210	159227	27150	1062170	46639	109094	0	0	8162	561669	0	0
2024-09-17 05:29:47			0	37838	0	0	0	24628	23200	159295	27152	1062188	46628	109097	0	0	8161	562216	0	0
2024-09-17 05:30:47			0	37829	0	0	0	24625	23210	159311	27293	1062143	46639	109096	0	0	8161	562542	0	0
2024-09-17 05:31:47			0	37839	0	0	0	24625	23210	159191	26994	1062206	46640	109096	0	0	8161	562145	0	0
2024-09-17 05:32:47			0	37828	0	0	0	24631	23210	159251	27060	1062223	46651	109098	0	0	8160	562581	0	0
2024-09-17 05:33:47			0	37834	0	0	0	24631	23210	159179	27211	1062223	46651	109098	0	0	8161	562343	0	0
2024-09-17 05:34:47			0	37835	0	0	0	24615	23210	159207	27222	1062179	46640	109092	0	0	8161	562304	0	0
2024-09-17 05:35:47			0	37838	0	0	0	24612	23210	159127	27137	1062206	46640	109091	0	0	8161	562185	0	0
2024-09-17 05:36:47			0	37824	0	0	0	24615	23200	159211	26986	1062188	46639	109092	0	0	8160	562771	0	0
2024-09-17 05:37:47			0	37831	0	0	0	24612	23210	159439	27229	1062126	46640	109091	0	0	8161	562462	0	0
2024-09-17 05:38:47			0	37833	0	0	0	24612	23210	159259	27126	1062197	46651	109091	0	0	8161	562383	0	0
2024-09-17 05:39:47			0	37825	0	0	0	24615	23200	159283	27081	1062161	46639	109092	0	0	8160	562732	0	0
2024-09-17 05:40:47			0	37816	0	0	0	24610	23200	159303	27274	1062134	46639	109090	0	0	8160	563089	0	0
2024-09-17 05:41:47			0	37815	0	0	0	24605	23210	159367	27218	1062126	46640	109088	0	0	8160	563097	0	0
2024-09-17 05:42:47			0	37812	0	0	0	24599	23200	159327	27308	1062134	46628	109086	0	0	8160	563248	0	0
2024-09-17 05:43:47			0	37806	0	0	0	24607	23200	159295	27331	1062108	46639	109089	0	0	8160	563486	0	0
2024-09-17 05:44:47			0	37811	0	0	0	24620	23200	159331	27345	1062134	46628	109094	0	0	8160	563287	0	0
2024-09-17 05:45:47			0	37810	0	0	0	24623	23200	159251	27130	1062161	46651	109095	0	0	8159	563327	0	0
2024-09-17 05:46:47			0	37811	0	0	0	24618	23210	159311	27104	1062170	46639	109093	0	0	8160	563256	0	0
2024-09-17 05:47:47			0	37809	0	0	0	24618	23210	159343	27417	1062170	46651	109093	0	0	8160	563335	0	0
2024-09-17 05:48:47			0	37823	0	0	0	24638	23200	159339	27384	1062161	46651	109101	0	0	8160	562811	0	0
2024-09-17 05:49:47			0	37809	0	0	0	24620	23210	159271	27097	1062206	46629	109094	0	0	8160	563335	0	0
2024-09-17 05:50:47			0	37810	0	0	0	24620	23210	159383	27001	1062170	46651	109094	0	0	8160	563295	0	0
2024-09-17 05:51:47			0	37813	0	0	0	24607	23210	159295	27064	1062143	46651	109089	0	0	8160	563176	0	0
2024-09-17 05:52:47			0	37817	0	0	0	24615	23200	159239	27306	1062188	46651	109092	0	0	8160	563049	0	0
2024-09-17 05:53:47			0	37821	0	0	0	24605	23200	159399	27083	1062125	46639	109088	0	0	8160	562891	0	0
2024-09-17 05:54:47			0	37802	0	0	0	24605	23210	159359	27098	1062117	46639	109088	0	0	8159	563613	0	0
2024-09-17 05:55:47			0	37807	0	0	0	24610	23200	159343	27067	1062161	46651	109090	0	0	8160	563446	0	0
2024-09-17 05:56:47			0	37798	0	0	0	24605	23200	159275	27022	1062134	46639	109088	0	0	8159	563804	0	0
2024-09-17 05:57:47			0	37780	0	0	0	24610	23200	159495	27286	1062081	46651	109090	0	0	8158	564519	0	0
2024-09-17 05:58:47			0	37790	0	0	0	24594	23200	159339	27505	1062214	46651	109084	0	0	8159	564121	0	0
2024-09-17 05:59:47			0	37796	0	0	0	24594	23200	159367	27072	1062161	46651	109084	0	0	8159	563883	0	0
2024-09-17 06:00:47			0	37767	0	0	0	24599	23200	159487	27109	1062072	46639	109086	0	0	8157	565036	0	0
2024-09-17 06:01:47			0	37784	0	0	0	24594	23200	159451	27083	1062134	46639	109084	0	0	8158	564360	0	0
2024-09-17 06:02:47			0	37785	0	0	0	24599	23210	159475	27580	1062117	46651	109086	0	0	8158	564288	0	0
2024-09-17 06:03:47			0	37790	0	0	0	24597	23200	159443	27277	1062125	46651	109085	0	0	8159	564121	0	0
2024-09-17 06:04:47			0	37776	0	0	0	24602	23200	159443	27003	1062134	46639	109087	0	0	8158	564678	0	0
2024-09-17 06:05:47			0	37779	0	0	0	24602	23200	159475	27317	1062045	46651	109087	0	0	8158	564559	0	0
2024-09-17 06:06:47			0	37794	0	0	0	24592	23200	159411	27130	1062134	46651	109083	0	0	8159	563962	0	0
2024-09-17 06:07:47			0	37797	0	0	0	24597	23200	159391	27417	1062099	46651	109085	0	0	8159	563843	0	0
2024-09-17 06:08:47			0	37800	0	0	0	24597	23200	159347	27185	1062072	46651	109085	0	0	8159	563724	0	0
2024-09-17 06:09:47			0	37794	0	0	0	24597	23190	159335	27248	1062063	46649	109085	0	0	8159	563994	0	0
2024-09-17 06:10:47			0	37803	0	0	0	24589	23200	159339	27287	1062054	46639	109082	0	0	8160	563605	0	0
2024-09-17 06:11:47			0	37807	0	0	0	24594	23190	159303	27253	1062089	46649	109084	0	0	8160	563478	0	0
2024-09-17 06:12:47			0	37799	0	0	0	24592	23190	159291	27088	1062036	46638	109083	0	0	8159	563796	0	0
2024-09-17 06:13:47			0	37818	0	0	0	24589	23190	159331	26994	1062000	46637	109082	0	0	8160	563041	0	0
2024-09-17 06:14:47			0	37807	0	0	0	24599	23190	159339	27206	1062054	46637	109086	0	0	8160	563478	0	0
2024-09-17 06:15:47			0	37818	0	0	0	24599	23190	159299	27050	1062160	46660	109086	0	0	8160	563041	0	0
2024-09-17 06:16:47			0	37814	0	0	0	24599	23180	159343	26960	1062071	46637	109086	0	0	8160	563232	0	0
2024-09-17 06:17:47			0	37826	0	0	0	24592	23180	159383	27057	1062018	46626	109083	0	0	8161	562755	0	0
2024-09-17 06:18:47			0	37820	0	0	0	24592	23190	159367	26814	1062054	46648	109083	0	0	8161	562962	0	0
2024-09-17 06:19:47			0	37827	0	0	0	24597	23190	159207	27118	1062009	46638	109085	0	0	8161	562684	0	0
2024-09-17 06:20:47			0	37826	0	0	0	24597	23190	159251	26812	1062054	46648	109085	0	0	8161	562724	0	0
2024-09-17 06:21:47			0	37826	0	0	0	24594	23190	159259	27116	1062063	46638	109084	0	0	8161	562724	0	0
2024-09-17 06:22:47			0	37832	0	0	0	24597	23190	159259	27086	1062000	46648	109085	0	0	8161	562486	0	0
2024-09-17 06:23:47			0	37825	0	0	0	24597	23190	159167	27332	1062063	46638	109085	0	0	8161	562763	0	0
2024-09-17 06:24:47			0	37848	0	0	0	24602	23190	159215	27123	1062080	46648	109087	0	0	8162	561851	0	0
2024-09-17 06:25:47			0	37849	0	0	0	24610	23180	159171	27062	1062071	46648	109090	0	0	8162	561843	0	0
2024-09-17 06:26:47			0	37831	0	0	0	24599	23190	159171	27107	1062080	46637	109086	0	0	8161	562525	0	0
2024-09-17 06:27:47			0	37833	0	0	0	24597	23180	159259	27338	1062098	46648	109085	0	0	8161	562478	0	0
2024-09-17 06:28:47			0	37835	0	0	0	24589	23190	159275	27319	1062063	46649	109082	0	0	8161	562367	0	0
2024-09-17 06:29:47			0	37832	0	0	0	24579	23190	159247	27279	1062063	46649	109078	0	0	8161	562486	0	0
2024-09-17 06:30:47			0	37829	0	0	0	24594	23190	159151	27111	1062080	46626	109084	0	0	8161	562605	0	0
2024-09-17 06:31:47			0	37826	0	0	0	24592	23200	159311	27197	1062072	46628	109083	0	0	8161	562692	0	0
2024-09-17 06:32:47			0	37806	0	0	0	24594	23190	159303	27469	1062107	46648	109084	0	0	8160	563517	0	0
2024-09-17 06:33:47			0	37829	0	0	0	24602	23180	159267	26998	1062062	46637	109087	0	0	8161	562636	0	0
2024-09-17 06:34:47			0	37824	0	0	0	24597	23190	159267	26986	1062080	46660	109085	0	0	8161	562803	0	0
2024-09-17 06:35:47			0	37820	0	0	0	24597	23180	159291	27222	1062018	46648	109085	0	0	8160	562993	0	0
2024-09-17 06:36:47			0	37811	0	0	0	24586	23190	159343	27055	1062027	46648	109081	0	0	8160	563319	0	0
2024-09-17 06:37:47			0	37803	0	0	0	24586	23190	159283	26882	1062089	46649	109081	0	0	8160	563637	0	0
2024-09-17 06:38:47			0	37817	0	0	0	24581	23180	159391	27263	1062071	46637	109079	0	0	8160	563112	0	0
2024-09-17 06:39:47			0	37805	0	0	0	24579	23190	159303	27303	1062080	46648	109078	0	0	8160	563557	0	0
2024-09-17 06:40:47			0	37816	0	0	0	24581	23190	159243	27338	1062080	46616	109079	0	0	8160	563120	0	0
2024-09-17 06:41:47			0	37821	0	0	0	24571	23180	159267	27197	1062062	46637	109075	0	0	8161	562954	0	0
2024-09-17 06:42:47			0	37826	0	0	0	24576	23180	159351	27237	1062018	46637	109077	0	0	8161	562755	0	0
2024-09-17 06:43:47			0	37817	0	0	0	24584	23190	159307	27253	1062027	46637	109080	0	0	8160	563081	0	0
2024-09-17 06:44:47			0	37834	0	0	0	24584	23180	159351	27157	1062045	46637	109080	0	0	8161	562438	0	0
2024-09-17 06:45:47			0	37815	0	0	0	24576	23190	159315	26974	1062054	46637	109077	0	0	8161	563160	0	0
2024-09-17 06:46:47			0	37827	0	0	0	24579	23180	159367	27055	1062009	46648	109078	0	0	8161	562716	0	0
2024-09-17 06:47:47			0	37818	0	0	0	24581	23180	159391	27149	1062089	46626	109079	0	0	8161	563073	0	0
2024-09-17 06:48:47			0	37813	0	0	0	24566	23180	159295	27185	1062009	46637	109073	0	0	8161	563271	0	0
2024-09-17 06:49:47			0	37808	0	0	0	24566	23170	159367	27161	1062000	46647	109073	0	0	8160	563501	0	0
2024-09-17 06:50:47			0	37808	0	0	0	24563	23170	159319	27183	1062000	46636	109072	0	0	8160	563501	0	0
2024-09-17 06:51:47			0	37830	0	0	0	24571	23170	159387	27081	1062000	46647	109075	0	0	8161	562628	0	0
2024-09-17 06:52:47			0	37821	0	0	0	24568	23150	159319	27053	1061973	46635	109074	0	0	8161	563049	0	0
2024-09-17 06:53:47			0	37833	0	0	0	24576	23180	159359	27281	1062009	46626	109077	0	0	8162	562478	0	0
2024-09-17 06:54:47			0	37836	0	0	0	24573	23170	159283	27076	1062018	46635	109076	0	0	8162	562390	0	0
2024-09-17 06:55:47			0	37828	0	0	0	24576	23170	159251	27157	1062000	46659	109077	0	0	8161	562708	0	0
2024-09-17 06:56:47			0	37851	0	0	0	24584	23170	159187	27294	1061991	46635	109080	0	0	8162	561795	0	0
2024-09-17 06:57:47			0	37849	0	0	0	24594	23160	159215	27071	1061955	46658	109084	0	0	8162	561906	0	0
2024-09-17 06:58:47			0	37864	0	0	0	24586	23180	159163	27135	1062036	46648	109081	0	0	8163	561249	0	0
2024-09-17 06:59:47			0	37885	0	0	0	24599	23170	159115	27327	1062000	46647	109086	0	0	8164	560449	0	0
2024-09-17 07:00:47			0	37867	0	0	0	24581	23180	159035	27135	1062036	46648	109079	0	0	8163	561130	0	0
2024-09-17 07:01:47			0	37855	0	0	0	24581	23160	159031	27142	1062009	46625	109079	0	0	8163	561668	0	0
2024-09-17 07:02:47			0	37884	0	0	0	24571	23170	159027	27213	1062053	46659	109075	0	0	8165	560489	0	0
2024-09-17 07:03:47			0	37894	0	0	0	24573	23170	159055	26819	1062000	46636	109076	0	0	8165	560093	0	0
2024-09-17 07:04:47			0	37885	0	0	0	24563	23170	158999	26776	1061964	46646	109072	0	0	8165	560449	0	0
2024-09-17 07:05:47			0	37901	0	0	0	24568	23170	158879	27159	1061973	46647	109074	0	0	8166	559816	0	0
2024-09-17 07:06:47			0	37910	0	0	0	24550	23170	158931	27046	1061991	46625	109067	0	0	8166	559460	0	0
2024-09-17 07:07:47			0	37897	0	0	0	24573	23170	158991	27339	1061947	46647	109076	0	0	8165	559974	0	0
2024-09-17 07:08:47			0	37890	0	0	0	24586	23170	158999	27280	1061911	46635	109081	0	0	8165	560251	0	0
2024-09-17 07:09:47			0	37909	0	0	0	24579	23160	159075	27163	1062035	46658	109078	0	0	8166	559531	0	0
2024-09-17 07:10:47			0	37912	0	0	0	24584	23170	159027	27104	1061938	46646	109080	0	0	8166	559381	0	0
2024-09-17 07:11:47			0	37893	0	0	0	24584	23170	158995	26951	1061964	46635	109080	0	0	8165	560132	0	0
2024-09-17 07:12:47			0	37905	0	0	0	24586	23170	158983	27060	1061964	46635	109081	0	0	8166	559658	0	0
2024-09-17 07:13:47			0	37920	0	0	0	24584	23180	158935	26909	1062009	46648	109080	0	0	8166	559034	0	0
2024-09-17 07:14:47			0	37909	0	0	0	24589	23170	158907	27060	1062027	46659	109082	0	0	8166	559500	0	0
2024-09-17 07:15:47			0	37934	0	0	0	24581	23170	158703	27296	1062080	46647	109079	0	0	8167	558512	0	0
2024-09-17 07:16:47			0	37927	0	0	0	24594	23170	158947	27222	1062053	46647	109084	0	0	8167	558789	0	0
2024-09-17 07:17:47			0	37936	0	0	0	24584	23180	158779	26949	1062036	46637	109080	0	0	8167	558402	0	0
2024-09-17 07:18:47			0	37953	0	0	0	24594	23170	158795	27194	1062018	46646	109084	0	0	8168	557762	0	0
2024-09-17 07:19:47			0	37951	0	0	0	24592	23180	158855	27112	1061982	46660	109083	0	0	8168	557810	0	0
2024-09-17 07:20:47			0	37966	0	0	0	24594	23170	158731	27298	1062080	46647	109084	0	0	8169	557250	0	0
2024-09-17 07:21:47			0	37954	0	0	0	24589	23180	158727	27227	1062045	46637	109082	0	0	8168	557692	0	0
2024-09-17 07:22:47			0	37959	0	0	0	24599	23170	158759	27357	1062053	46636	109086	0	0	8168	557526	0	0
2024-09-17 07:23:47			0	37960	0	0	0	24602	23180	158755	27452	1062116	46648	109087	0	0	8169	557455	0	0
2024-09-17 07:24:47			0	37968	0	0	0	24594	23180	158819	27256	1062089	46648	109084	0	0	8169	557139	0	0
2024-09-17 07:25:47			0	37965	0	0	0	24592	23170	158759	26951	1062053	46636	109083	0	0	8169	557289	0	0
2024-09-17 07:26:47			0	37965	0	0	0	24579	23170	158771	27329	1062000	46647	109078	0	0	8169	557289	0	0
2024-09-17 07:27:47			0	37982	0	0	0	24584	23180	158731	27190	1062036	46660	109080	0	0	8170	556588	0	0
2024-09-17 07:28:47			0	37980	0	0	0	24597	23180	158719	27185	1062071	46637	109085	0	0	8170	556667	0	0
2024-09-17 07:29:47			0	37974	0	0	0	24597	23180	158663	27206	1062036	46648	109085	0	0	8169	556903	0	0
2024-09-17 07:30:47			0	37978	0	0	0	24584	23170	158743	27116	1062027	46625	109080	0	0	8170	556777	0	0
2024-09-17 07:31:47			0	37972	0	0	0	24594	23190	158639	27090	1062027	46637	109084	0	0	8169	556951	0	0
2024-09-17 07:32:47			0	37974	0	0	0	24597	23180	158671	27020	1062071	46648	109085	0	0	8169	556903	0	0
2024-09-17 07:33:47			0	37984	0	0	0	24592	23190	158551	27410	1062107	46660	109083	0	0	8170	556478	0	0
2024-09-17 07:34:47			0	37994	0	0	0	24597	23190	158723	27322	1062107	46637	109085	0	0	8171	556084	0	0
2024-09-17 07:35:47			0	37987	0	0	0	24594	23180	158627	27242	1062098	46637	109084	0	0	8170	556391	0	0
2024-09-17 07:36:47			0	37994	0	0	0	24579	23180	158563	26880	1062098	46648	109078	0	0	8171	556115	0	0
2024-09-17 07:37:47			0	37990	0	0	0	24584	23180	158547	27351	1062098	46660	109080	0	0	8171	556273	0	0
2024-09-17 07:38:47			0	37981	0	0	0	24610	23180	158579	27253	1062125	46648	109090	0	0	8170	556627	0	0
2024-09-17 07:39:47			0	37992	0	0	0	24599	23180	158627	26979	1062071	46648	109086	0	0	8170	556194	0	0
2024-09-17 07:40:47			0	38018	0	0	0	24594	23180	158479	27462	1062098	46648	109084	0	0	8172	555170	0	0
2024-09-17 07:41:47			0	38001	0	0	0	24592	23180	158475	27287	1062062	46648	109083	0	0	8171	555839	0	0
2024-09-17 07:42:47			0	38005	0	0	0	24597	23180	158583	26923	1062098	46637	109085	0	0	8171	555682	0	0
2024-09-17 07:43:47			0	37994	0	0	0	24597	23180	158619	27383	1062071	46637	109085	0	0	8171	556115	0	0
2024-09-17 07:44:47			0	38009	0	0	0	24589	23190	158511	27197	1062143	46649	109082	0	0	8172	555493	0	0
2024-09-17 07:45:47			0	37999	0	0	0	24592	23180	158615	27031	1062071	46648	109083	0	0	8171	555918	0	0
2024-09-17 07:46:47			0	37998	0	0	0	24599	23190	158567	27360	1062080	46637	109086	0	0	8171	555926	0	0
2024-09-17 07:47:47			0	37999	0	0	0	24589	23190	158479	27504	1062054	46648	109082	0	0	8171	555887	0	0
2024-09-17 07:48:47			0	38003	0	0	0	24599	23180	158567	27543	1062018	46648	109086	0	0	8171	555761	0	0
2024-09-17 07:49:47			0	38013	0	0	0	24594	23190	158587	27329	1062169	46649	109084	0	0	8172	555336	0	0
2024-09-17 07:50:47			0	38010	0	0	0	24602	23190	158483	27225	1062036	46649	109087	0	0	8171	555454	0	0
2024-09-17 07:51:47			0	38019	0	0	0	24607	23190	158511	27182	1062107	46648	109089	0	0	8172	555100	0	0
2024-09-17 07:52:47			0	38042	0	0	0	24594	23190	158452	27059	1062143	46649	109084	0	0	8173	554196	0	0
2024-09-17 07:53:47			0	38064	0	0	0	24597	23190	158348	27071	1062107	46637	109085	0	0	8175	553332	0	0
2024-09-17 07:54:47			0	38046	0	0	0	24592	23190	158436	27383	1062027	46648	109083	0	0	8174	554039	0	0
2024-09-17 07:55:47			0	38049	0	0	0	24597	23190	158348	27239	1062080	46637	109085	0	0	8174	553921	0	0
2024-09-17 07:56:47			0	38063	0	0	0	24592	23200	158420	27097	1062045	46639	109083	0	0	8175	553340	0	0
2024-09-17 07:57:47			0	38047	0	0	0	24592	23190	158400	27083	1062143	46649	109083	0	0	8174	553999	0	0
2024-09-17 07:58:47			0	38042	0	0	0	24597	23190	158424	27223	1062116	46638	109085	0	0	8173	554196	0	0
2024-09-17 07:59:47			0	38045	0	0	0	24615	23190	158404	27234	1062089	46638	109092	0	0	8173	554078	0	0
2024-09-17 08:00:47			0	38039	0	0	0	24605	23200	158420	27116	1062152	46651	109088	0	0	8173	554283	0	0
2024-09-17 08:01:47			0	38067	0	0	0	24599	23190	158508	27301	1062089	46627	109086	0	0	8175	553214	0	0
2024-09-17 08:02:47			0	38062	0	0	0	24607	23190	158396	27019	1062116	46649	109089	0	0	8174	553410	0	0
2024-09-17 08:03:47			0	38063	0	0	0	24599	23190	158396	27098	1062107	46648	109086	0	0	8175	553371	0	0
2024-09-17 08:04:47			0	38052	0	0	0	24610	23200	158360	26908	1062125	46639	109090	0	0	8174	553772	0	0
2024-09-17 08:05:47			0	38044	0	0	0	24605	23190	158452	27138	1062107	46648	109088	0	0	8173	554117	0	0
2024-09-17 08:06:47			0	38062	0	0	0	24597	23190	158508	27137	1062143	46649	109085	0	0	8175	553410	0	0
2024-09-17 08:07:47			0	38060	0	0	0	24607	23190	158404	27053	1062143	46649	109089	0	0	8174	553489	0	0
2024-09-17 08:08:47			0	38049	0	0	0	24602	23190	158500	27090	1062089	46627	109087	0	0	8174	553921	0	0
2024-09-17 08:09:47			0	38033	0	0	0	24605	23190	158424	27150	1062143	46649	109088	0	0	8173	554550	0	0
2024-09-17 08:10:47			0	38039	0	0	0	24605	23190	158384	26927	1062169	46649	109088	0	0	8173	554314	0	0
2024-09-17 08:11:47			0	38046	0	0	0	24602	23200	158524	26896	1062161	46639	109087	0	0	8174	554008	0	0
2024-09-17 08:12:47			0	38036	0	0	0	24602	23190	158460	27441	1062196	46638	109087	0	0	8173	554432	0	0
2024-09-17 08:13:47			0	38039	0	0	0	24607	23190	158516	27429	1062169	46638	109089	0	0	8173	554314	0	0
2024-09-17 08:14:47			0	38032	0	0	0	24594	23190	158460	27441	1062116	46661	109084	0	0	8173	554589	0	0
2024-09-17 08:15:47			0	38033	0	0	0	24607	23200	158420	27400	1062099	46639	109089	0	0	8173	554518	0	0
2024-09-17 08:16:47			0	38017	0	0	0	24605	23200	158475	27588	1062161	46651	109088	0	0	8172	555148	0	0
2024-09-17 08:17:47			0	38020	0	0	0	24612	23200	158475	27293	1062161	46651	109091	0	0	8172	555030	0	0
2024-09-17 08:18:47			0	38032	0	0	0	24605	23190	158408	27327	1062089	46627	109088	0	0	8173	554589	0	0
2024-09-17 08:19:47			0	38016	0	0	0	24623	23200	158475	27157	1062125	46639	109095	0	0	8172	555187	0	0
2024-09-17 08:20:47			0	38032	0	0	0	24610	23200	158456	27383	1062125	46651	109090	0	0	8173	554558	0	0
2024-09-17 08:21:47			0	38031	0	0	0	24612	23200	158448	27345	1062152	46651	109091	0	0	8173	554597	0	0
2024-09-17 08:22:47			0	38044	0	0	0	24612	23200	158400	27386	1062152	46651	109091	0	0	8173	554086	0	0
2024-09-17 08:23:47			0	38045	0	0	0	24618	23200	158420	27490	1062125	46651	109093	0	0	8173	554047	0	0
2024-09-17 08:24:47			0	38043	0	0	0	24612	23200	158484	27053	1062108	46639	109091	0	0	8173	554126	0	0
2024-09-17 08:25:47			0	38028	0	0	0	24615	23210	158435	26987	1062117	46662	109092	0	0	8172	554684	0	0
2024-09-17 08:26:47			0	38027	0	0	0	24615	23200	158444	27279	1062188	46639	109092	0	0	8172	554754	0	0
2024-09-17 08:27:47			0	38030	0	0	0	24623	23200	158404	26948	1062134	46651	109095	0	0	8172	554636	0	0
2024-09-17 08:28:47			0	38054	0	0	0	24612	23200	158520	27180	1062152	46662	109091	0	0	8174	553693	0	0
2024-09-17 08:29:47			0	38043	0	0	0	24610	23210	158448	27279	1062143	46651	109090	0	0	8173	554094	0	0
2024-09-17 08:30:47			0	38047	0	0	0	24602	23200	158460	27019	1062214	46651	109087	0	0	8174	553968	0	0
2024-09-17 08:31:47			0	38037	0	0	0	24605	23210	158372	26878	1062197	46651	109088	0	0	8173	554330	0	0
2024-09-17 08:32:47			0	38046	0	0	0	24610	23200	158356	26974	1062161	46639	109090	0	0	8173	554008	0	0
2024-09-17 08:33:47			0	38041	0	0	0	24620	23210	158352	27156	1062170	46651	109094	0	0	8173	554173	0	0
2024-09-17 08:34:47			0	38029	0	0	0	24618	23200	158388	27092	1062214	46639	109093	0	0	8172	554676	0	0
2024-09-17 08:35:47			0	38037	0	0	0	24605	23200	158328	27315	1062241	46639	109088	0	0	8173	554361	0	0
2024-09-17 08:36:47			0	38035	0	0	0	24605	23210	158316	26953	1062197	46639	109088	0	0	8173	554409	0	0
2024-09-17 08:37:47			0	38053	0	0	0	24625	23200	158316	27545	1062188	46651	109096	0	0	8174	553733	0	0
2024-09-17 08:38:47			0	38030	0	0	0	24615	23200	158272	27320	1062188	46639	109092	0	0	8172	554636	0	0
2024-09-17 08:39:47			0	38041	0	0	0	24620	23210	158328	27211	1062170	46662	109094	0	0	8173	554173	0	0
2024-09-17 08:40:47			0	38029	0	0	0	24618	23210	158468	27301	1062250	46651	109093	0	0	8172	554645	0	0
2024-09-17 08:41:47			0	38051	0	0	0	24620	23210	158460	27213	1062250	46639	109094	0	0	8174	553780	0	0
2024-09-17 08:42:47			0	38053	0	0	0	24623	23200	158348	27189	1062152	46651	109095	0	0	8174	553733	0	0
2024-09-17 08:43:47			0	38052	0	0	0	24610	23200	158332	26937	1062108	46651	109090	0	0	8174	553772	0	0
2024-09-17 08:44:47			0	38057	0	0	0	24610	23200	158248	27105	1062241	46639	109090	0	0	8174	553576	0	0
2024-09-17 08:45:47			0	38054	0	0	0	24620	23200	158344	27256	1062214	46639	109094	0	0	8174	553693	0	0
2024-09-17 08:46:47			0	38061	0	0	0	24623	23210	158344	27293	1062170	46651	109095	0	0	8174	553388	0	0
2024-09-17 08:47:47			0	38042	0	0	0	24631	23210	158304	26892	1062197	46662	109098	0	0	8173	554134	0	0
2024-09-17 08:48:47			0	38063	0	0	0	24628	23220	158316	27178	1062241	46641	109097	0	0	8174	553278	0	0
2024-09-17 08:49:47			0	38051	0	0	0	24623	23210	158288	27013	1062259	46640	109095	0	0	8174	553780	0	0
2024-09-17 08:50:47			0	38058	0	0	0	24618	23210	158320	27159	1062223	46651	109093	0	0	8174	553505	0	0
2024-09-17 08:51:47			0	38056	0	0	0	24623	23210	158304	27261	1062250	46651	109095	0	0	8174	553584	0	0
2024-09-17 08:52:47			0	38066	0	0	0	24628	23210	158240	27341	1062259	46640	109097	0	0	8174	553191	0	0
2024-09-17 08:53:47			0	38079	0	0	0	24631	23210	158256	27324	1062259	46663	109098	0	0	8175	552681	0	0
2024-09-17 08:54:47			0	38053	0	0	0	24618	23220	158220	27164	1062241	46641	109093	0	0	8174	553671	0	0
2024-09-17 08:55:47			0	38067	0	0	0	24631	23210	158228	27189	1062286	46673	109098	0	0	8174	553152	0	0
2024-09-17 08:56:47			0	38071	0	0	0	24620	23220	158180	27339	1062277	46642	109094	0	0	8175	552964	0	0
2024-09-17 08:57:47			0	38069	0	0	0	24623	23210	158248	27043	1062206	46640	109095	0	0	8175	553074	0	0
2024-09-17 08:58:47			0	38060	0	0	0	24644	23210	158272	27203	1062232	46652	109103	0	0	8174	553427	0	0
2024-09-17 08:59:47			0	38062	0	0	0	24628	23210	158200	27192	1062232	46640	109097	0	0	8174	553348	0	0
2024-09-17 09:00:47			0	38065	0	0	0	24628	23230	158208	27093	1062259	46653	109097	0	0	8174	553169	0	0
2024-09-17 09:01:47			0	38091	0	0	0	24620	23210	158324	27258	1062259	46652	109094	0	0	8176	552211	0	0
2024-09-17 09:02:47			0	38076	0	0	0	24633	23210	158232	26922	1062259	46640	109099	0	0	8175	552799	0	0
2024-09-17 09:03:47			0	38092	0	0	0	24620	23220	158176	27159	1062224	46653	109094	0	0	8176	552141	0	0
2024-09-17 09:04:47			0	38075	0	0	0	24625	23210	158212	27102	1062232	46673	109096	0	0	8175	552838	0	0
2024-09-17 09:05:47			0	38082	0	0	0	24623	23220	158300	26941	1062277	46653	109095	0	0	8175	552533	0	0
2024-09-17 09:06:47			0	38091	0	0	0	24631	23220	158256	27079	1062241	46641	109098	0	0	8176	552180	0	0
2024-09-17 09:07:47			0	38076	0	0	0	24623	23210	158296	26849	1062170	46628	109095	0	0	8175	552799	0	0
2024-09-17 09:08:47			0	38062	0	0	0	24625	23210	158276	27183	1062277	46639	109096	0	0	8174	553348	0	0
2024-09-17 09:09:47			0	38088	0	0	0	24625	23220	158168	27220	1062241	46641	109096	0	0	8176	552297	0	0
2024-09-17 09:10:47			0	38083	0	0	0	24628	23210	158200	26870	1062304	46651	109097	0	0	8175	552524	0	0
2024-09-17 09:11:47			0	38087	0	0	0	24623	23210	158192	26974	1062232	46640	109095	0	0	8176	552368	0	0
2024-09-17 09:12:47			0	38084	0	0	0	24625	23210	158228	27012	1062259	46640	109096	0	0	8175	552485	0	0
2024-09-17 09:13:47			0	38099	0	0	0	24631	23210	158204	26915	1062206	46652	109098	0	0	8176	551897	0	0
2024-09-17 09:14:47			0	38087	0	0	0	24628	23210	158152	27118	1062232	46652	109097	0	0	8176	552368	0	0
2024-09-17 09:15:47			0	38099	0	0	0	24623	23220	158184	27189	1062250	46642	109095	0	0	8176	551866	0	0
2024-09-17 09:16:47			0	38084	0	0	0	24633	23220	158184	26935	1062250	46653	109099	0	0	8175	552454	0	0
2024-09-17 09:17:47			0	38097	0	0	0	24638	23220	158192	26837	1062331	46665	109101	0	0	8176	551945	0	0
2024-09-17 09:18:47			0	38125	0	0	0	24644	23220	158132	27111	1062241	46630	109103	0	0	8178	550848	0	0
2024-09-17 09:19:47			0	38093	0	0	0	24633	23220	158192	26920	1062295	46664	109099	0	0	8176	552101	0	0
2024-09-17 09:20:47			0	38092	0	0	0	24625	23220	158172	27341	1062241	46652	109096	0	0	8176	552141	0	0
2024-09-17 09:21:47			0	38107	0	0	0	24610	23210	158116	27100	1062286	46663	109090	0	0	8177	551584	0	0
2024-09-17 09:22:47			0	38092	0	0	0	24623	23220	158212	27365	1062304	46665	109095	0	0	8176	552141	0	0
2024-09-17 09:23:47			0	38099	0	0	0	24636	23210	158152	27159	1062223	46651	109100	0	0	8176	551897	0	0
2024-09-17 09:24:47			0	38129	0	0	0	24631	23220	158116	27069	1062277	46642	109098	0	0	8178	550691	0	0
2024-09-17 09:25:47			0	38101	0	0	0	24625	23210	158136	27234	1062259	46640	109096	0	0	8176	551819	0	0
2024-09-17 09:26:47			0	38111	0	0	0	24618	23220	158168	27255	1062268	46652	109093	0	0	8177	551396	0	0
2024-09-17 09:27:47			0	38113	0	0	0	24625	23220	158164	26932	1062304	46631	109096	0	0	8177	551318	0	0
2024-09-17 09:28:47			0	38123	0	0	0	24625	23230	158088	26890	1062259	46653	109096	0	0	8178	550895	0	0
2024-09-17 09:29:47			0	38103	0	0	0	24631	23210	158200	27152	1062259	46640	109098	0	0	8176	551741	0	0
2024-09-17 09:30:47			0	38109	0	0	0	24641	23220	158116	27272	1062331	46653	109102	0	0	8177	551474	0	0
2024-09-17 09:31:47			0	38107	0	0	0	24620	23220	158216	27083	1062250	46642	109094	0	0	8177	551553	0	0
2024-09-17 09:32:47			0	38118	0	0	0	24618	23220	158152	27154	1062241	46630	109093	0	0	8178	551122	0	0
2024-09-17 09:33:47			0	38101	0	0	0	24633	23220	158096	27362	1062268	46641	109099	0	0	8176	551788	0	0
2024-09-17 09:34:47			0	38099	0	0	0	24620	23230	158176	27079	1062313	46653	109094	0	0	8177	551835	0	0
2024-09-17 09:35:47			0	38113	0	0	0	24612	23220	158124	27100	1062241	46641	109091	0	0	8177	551318	0	0
2024-09-17 09:36:47			0	38125	0	0	0	24633	23220	158116	26786	1062277	46642	109099	0	0	8178	550848	0	0
2024-09-17 09:37:47			0	38097	0	0	0	24623	23220	158064	27268	1062295	46641	109095	0	0	8176	551945	0	0
2024-09-17 09:38:47			0	38104	0	0	0	24615	23210	158148	27180	1062232	46629	109092	0	0	8177	551701	0	0
2024-09-17 09:39:47			0	38124	0	0	0	24599	23220	158180	27001	1062304	46653	109086	0	0	8178	550887	0	0
2024-09-17 09:40:47			0	38121	0	0	0	24607	23210	158164	26994	1062286	46629	109089	0	0	8178	551036	0	0
2024-09-17 09:41:47			0	38115	0	0	0	24620	23220	158112	27161	1062250	46653	109094	0	0	8177	551239	0	0
2024-09-17 09:42:47			0	38115	0	0	0	24586	23210	158204	27161	1062206	46629	109081	0	0	8178	551270	0	0
2024-09-17 09:43:47			0	38121	0	0	0	24602	23210	158104	27244	1062170	46651	109087	0	0	8178	551036	0	0
2024-09-17 09:44:47			0	38103	0	0	0	24612	23220	158292	27249	1062241	46641	109091	0	0	8177	551710	0	0
2024-09-17 09:45:47			0	38096	0	0	0	24605	23210	158148	27199	1062259	46640	109088	0	0	8177	552015	0	0
2024-09-17 09:46:47			0	38094	0	0	0	24602	23210	158268	27152	1062223	46651	109087	0	0	8176	552093	0	0
2024-09-17 09:47:47			0	38116	0	0	0	24610	23210	158164	27043	1062170	46628	109090	0	0	8178	551231	0	0
2024-09-17 09:48:47			0	38101	0	0	0	24615	23210	158316	27074	1062232	46629	109092	0	0	8177	551819	0	0
2024-09-17 09:49:47			0	38116	0	0	0	24615	23210	158200	26925	1062152	46629	109092	0	0	8178	551231	0	0
2024-09-17 09:50:47			0	38119	0	0	0	24618	23210	158236	27235	1062170	46651	109093	0	0	8178	551114	0	0
2024-09-17 09:51:47			0	38107	0	0	0	24625	23210	158236	26946	1062277	46639	109096	0	0	8177	551584	0	0
2024-09-17 09:52:47			0	38089	0	0	0	24625	23210	158264	27365	1062232	46640	109096	0	0	8176	552289	0	0
2024-09-17 09:53:47			0	38093	0	0	0	24615	23200	158248	27455	1062268	46639	109092	0	0	8176	552163	0	0
2024-09-17 09:54:47			0	38105	0	0	0	24592	23200	158160	26916	1062188	46628	109083	0	0	8177	551693	0	0
2024-09-17 09:55:47			0	38088	0	0	0	24592	23200	158296	26883	1062179	46639	109083	0	0	8176	552359	0	0
2024-09-17 09:56:47			0	38122	0	0	0	24589	23190	158220	26824	1062169	46638	109082	0	0	8178	551058	0	0
2024-09-17 09:57:47			0	38105	0	0	0	24602	23200	158296	26972	1062161	46639	109087	0	0	8177	551693	0	0
2024-09-17 09:58:47			0	38089	0	0	0	24597	23190	158232	27253	1062196	46638	109085	0	0	8176	552351	0	0
2024-09-17 09:59:47			0	38095	0	0	0	24605	23190	158196	27065	1062169	46627	109088	0	0	8176	552116	0	0
2024-09-17 10:00:47			0	38090	0	0	0	24592	23190	158288	27074	1062169	46649	109083	0	0	8176	552312	0	0
2024-09-17 10:01:47			0	38097	0	0	0	24599	23200	158240	27067	1062241	46639	109086	0	0	8177	552007	0	0
2024-09-17 10:02:47			0	38095	0	0	0	24581	23200	158156	27067	1062161	46639	109079	0	0	8177	552085	0	0
2024-09-17 10:03:47			0	38094	0	0	0	24586	23200	158248	27039	1062179	46628	109081	0	0	8177	552124	0	0
2024-09-17 10:04:47			0	38087	0	0	0	24602	23210	158300	27159	1062170	46628	109087	0	0	8176	552368	0	0
2024-09-17 10:05:47			0	38084	0	0	0	24610	23190	158276	26779	1062143	46638	109090	0	0	8176	552547	0	0
2024-09-17 10:06:47			0	38084	0	0	0	24610	23200	158200	27046	1062179	46639	109090	0	0	8176	552516	0	0
2024-09-17 10:07:47			0	38084	0	0	0	24605	23200	158240	27159	1062206	46639	109088	0	0	8176	552516	0	0
2024-09-17 10:08:47			0	38071	0	0	0	24599	23200	158240	27296	1062188	46639	109086	0	0	8175	553026	0	0
2024-09-17 10:09:47			0	38093	0	0	0	24599	23200	158204	27204	1062206	46639	109086	0	0	8176	552163	0	0
2024-09-17 10:10:47			0	38088	0	0	0	24597	23200	158172	26949	1062179	46639	109085	0	0	8176	552359	0	0
2024-09-17 10:11:47			0	38091	0	0	0	24594	23200	158164	27135	1062161	46639	109084	0	0	8176	552242	0	0
2024-09-17 10:12:47			0	38081	0	0	0	24579	23200	158220	27092	1062161	46651	109078	0	0	8176	552634	0	0
2024-09-17 10:13:47			0	38091	0	0	0	24584	23190	158232	27416	1062116	46638	109080	0	0	8176	552273	0	0
2024-09-17 10:14:47			0	38113	0	0	0	24576	23200	158236	27339	1062152	46628	109077	0	0	8178	551380	0	0
2024-09-17 10:15:47			0	38088	0	0	0	24592	23200	158224	27249	1062099	46651	109083	0	0	8176	552359	0	0
2024-09-17 10:16:47			0	38079	0	0	0	24592	23190	158180	26991	1062107	46660	109083	0	0	8176	552743	0	0
2024-09-17 10:17:47			0	38073	0	0	0	24602	23190	158320	27029	1062116	46638	109087	0	0	8175	552979	0	0
2024-09-17 10:18:47			0	38090	0	0	0	24581	23200	158192	27126	1062134	46639	109079	0	0	8177	552281	0	0
2024-09-17 10:19:47			0	38078	0	0	0	24586	23190	158348	27400	1062107	46648	109081	0	0	8176	552783	0	0
2024-09-17 10:20:47			0	38093	0	0	0	24576	23190	158168	26930	1062134	46648	109077	0	0	8177	552194	0	0
2024-09-17 10:21:47			0	38086	0	0	0	24561	23180	158096	26885	1062098	46637	109071	0	0	8177	552500	0	0
2024-09-17 10:22:47			0	38082	0	0	0	24566	23180	158148	27114	1062125	46626	109073	0	0	8176	552657	0	0
2024-09-17 10:23:47			0	38082	0	0	0	24563	23190	158204	27074	1062089	46638	109072	0	0	8176	552626	0	0
2024-09-17 10:24:47			0	38086	0	0	0	24571	23190	158192	27241	1062134	46626	109075	0	0	8176	552469	0	0
2024-09-17 10:25:47			0	38073	0	0	0	24592	23180	158164	27315	1062125	46648	109083	0	0	8175	553010	0	0
2024-09-17 10:26:47			0	38078	0	0	0	24597	23170	158256	26975	1062053	46625	109085	0	0	8175	552845	0	0
2024-09-17 10:27:47			0	38086	0	0	0	24607	23190	158224	27031	1062107	46626	109089	0	0	8176	552469	0	0
2024-09-17 10:28:47			0	38089	0	0	0	24610	23190	158192	27119	1062169	46627	109090	0	0	8176	552351	0	0
2024-09-17 10:29:47			0	38098	0	0	0	24615	23190	158036	27003	1062089	46638	109092	0	0	8176	551998	0	0
2024-09-17 10:30:47			0	38100	0	0	0	24597	23190	158096	27001	1062169	46638	109085	0	0	8177	551920	0	0
2024-09-17 10:31:47			0	38117	0	0	0	24599	23190	158132	27183	1062143	46649	109086	0	0	8178	551254	0	0
2024-09-17 10:32:47			0	38094	0	0	0	24594	23190	158092	27260	1062160	46637	109084	0	0	8177	552155	0	0
2024-09-17 10:33:47			0	38099	0	0	0	24605	23200	158092	27216	1062125	46651	109088	0	0	8177	551928	0	0
2024-09-17 10:34:47			0	38093	0	0	0	24592	23190	158100	27118	1062169	46638	109083	0	0	8176	552194	0	0
2024-09-17 10:35:47			0	38114	0	0	0	24594	23190	158084	26989	1062134	46648	109084	0	0	8178	551372	0	0
2024-09-17 10:36:47			0	38089	0	0	0	24607	23190	158096	27239	1062160	46637	109089	0	0	8176	552351	0	0
2024-09-17 10:37:47			0	38113	0	0	0	24618	23180	158172	27239	1062152	46637	109093	0	0	8177	551442	0	0
2024-09-17 10:38:47			0	38108	0	0	0	24620	23200	158060	27190	1062179	46639	109094	0	0	8177	551576	0	0
2024-09-17 10:39:47			0	38105	0	0	0	24620	23190	158140	26941	1062196	46649	109094	0	0	8177	551724	0	0
2024-09-17 10:40:47			0	38098	0	0	0	24618	23190	158096	27313	1062169	46638	109093	0	0	8176	551998	0	0
2024-09-17 10:41:47			0	38118	0	0	0	24605	23200	158152	27235	1062241	46639	109088	0	0	8178	551184	0	0
2024-09-17 10:42:47			0	38112	0	0	0	24602	23210	158072	26975	1062250	46618	109087	0	0	8178	551388	0	0
2024-09-17 10:43:47			0	38115	0	0	0	24597	23190	158092	27066	1062143	46661	109085	0	0	8178	551332	0	0
2024-09-17 10:44:47			0	38110	0	0	0	24579	23200	158132	27369	1062179	46651	109078	0	0	8178	551497	0	0
2024-09-17 10:45:47			0	38100	0	0	0	24566	23200	158176	26908	1062099	46628	109073	0	0	8177	551889	0	0
2024-09-17 10:46:47			0	38102	0	0	0	24558	23190	158088	26892	1062063	46638	109070	0	0	8178	551842	0	0
2024-09-17 10:47:47			0	38094	0	0	0	24563	23180	158068	26958	1062125	46637	109072	0	0	8177	552186	0	0
2024-09-17 10:48:47			0	38110	0	0	0	24555	23190	158092	27189	1062107	46626	109069	0	0	8178	551528	0	0
2024-09-17 10:49:47			0	38133	0	0	0	24571	23180	158028	27294	1062098	46648	109075	0	0	8179	550659	0	0
2024-09-17 10:50:47			0	38125	0	0	0	24576	23180	157984	27052	1062071	46648	109077	0	0	8179	550972	0	0
2024-09-17 10:51:47			0	38139	0	0	0	24576	23180	157984	27064	1062036	46626	109077	0	0	8179	550424	0	0
2024-09-17 10:52:47			0	38142	0	0	0	24576	23170	158036	27119	1062080	46647	109077	0	0	8180	550338	0	0
2024-09-17 10:53:47			0	38126	0	0	0	24581	23180	157984	27109	1062098	46637	109079	0	0	8179	550933	0	0
2024-09-17 10:54:47			0	38131	0	0	0	24576	23170	157936	27086	1062098	46635	109077	0	0	8179	550768	0	0
2024-09-17 10:55:47			0	38143	0	0	0	24581	23180	157992	27331	1062089	46616	109079	0	0	8180	550267	0	0
2024-09-17 10:56:47			0	38143	0	0	0	24579	23170	157872	27303	1062027	46636	109078	0	0	8180	550298	0	0
2024-09-17 10:57:47			0	38135	0	0	0	24576	23180	157956	27441	1062036	46626	109077	0	0	8179	550580	0	0
2024-09-17 10:58:47			0	38120	0	0	0	24579	23180	157932	27421	1062098	46648	109078	0	0	8178	551168	0	0
2024-09-17 10:59:47			0	38127	0	0	0	24573	23170	157976	27303	1062018	46646	109076	0	0	8179	550924	0	0
2024-09-17 11:00:47			0	38144	0	0	0	24581	23180	158032	27178	1062125	46637	109079	0	0	8180	550228	0	0
2024-09-17 11:01:47			0	38139	0	0	0	24586	23170	158016	27601	1062134	46636	109081	0	0	8179	550455	0	0
2024-09-17 11:02:47			0	38143	0	0	0	24581	23180	157976	27312	1062089	46648	109079	0	0	8180	550267	0	0
2024-09-17 11:03:47			0	38145	0	0	0	24573	23190	158072	27346	1062134	46637	109076	0	0	8180	550158	0	0
2024-09-17 11:04:47			0	38149	0	0	0	24576	23180	158052	26996	1062143	46637	109077	0	0	8180	550033	0	0
2024-09-17 11:05:47			0	38129	0	0	0	24576	23170	157992	27116	1062053	46659	109077	0	0	8179	550846	0	0
2024-09-17 11:06:47			0	38147	0	0	0	24579	23180	158008	27488	1062089	46626	109078	0	0	8180	550111	0	0
2024-09-17 11:07:47			0	38129	0	0	0	24586	23170	157888	27407	1062053	46647	109081	0	0	8179	550846	0	0
2024-09-17 11:08:47			0	38156	0	0	0	24589	23170	157936	27409	1062080	46636	109082	0	0	8180	549790	0	0
2024-09-17 11:09:47			0	38145	0	0	0	24581	23170	157948	27098	1062071	46646	109079	0	0	8180	550220	0	0
2024-09-17 11:10:47			0	38148	0	0	0	24581	23170	157996	27381	1062160	46636	109079	0	0	8180	550103	0	0
2024-09-17 11:11:47			0	38145	0	0	0	24579	23170	157936	27357	1062027	46647	109078	0	0	8180	550220	0	0
2024-09-17 11:12:47			0	38149	0	0	0	24576	23170	157944	27440	1062000	46636	109077	0	0	8180	550064	0	0
2024-09-17 11:13:47			0	38161	0	0	0	24579	23170	157924	27402	1062080	46625	109078	0	0	8181	549594	0	0
2024-09-17 11:14:47			0	38161	0	0	0	24584	23180	157876	26906	1062036	46626	109080	0	0	8181	549564	0	0
2024-09-17 11:15:47			0	38156	0	0	0	24579	23180	157856	27274	1062036	46637	109078	0	0	8180	549759	0	0
2024-09-17 11:16:47			0	38165	0	0	0	24581	23180	157872	27152	1062125	46637	109079	0	0	8181	549407	0	0
2024-09-17 11:17:47			0	38156	0	0	0	24586	23170	157812	27538	1062053	46647	109081	0	0	8180	549790	0	0
2024-09-17 11:18:47			0	38168	0	0	0	24586	23180	157856	27284	1062045	46637	109081	0	0	8181	549290	0	0
2024-09-17 11:19:47			0	38195	0	0	0	24581	23170	157728	27462	1062080	46636	109079	0	0	8183	548267	0	0
2024-09-17 11:20:47			0	38179	0	0	0	24581	23180	157776	27227	1062116	46637	109079	0	0	8182	548860	0	0
2024-09-17 11:21:47			0	38187	0	0	0	24581	23180	157788	27187	1062071	46637	109079	0	0	8182	548548	0	0
2024-09-17 11:22:47			0	38200	0	0	0	24586	23180	157680	27244	1062098	46637	109081	0	0	8183	548041	0	0
2024-09-17 11:23:47			0	38184	0	0	0	24586	23180	157724	27351	1062062	46637	109081	0	0	8182	548665	0	0
2024-09-17 11:24:47			0	38187	0	0	0	24592	23170	157664	27319	1062053	46625	109083	0	0	8182	548579	0	0
2024-09-17 11:25:47			0	38199	0	0	0	24584	23180	157620	27313	1062125	46648	109080	0	0	8183	548080	0	0
2024-09-17 11:26:47			0	38212	0	0	0	24594	23180	157644	27272	1062071	46626	109084	0	0	8183	547572	0	0
2024-09-17 11:27:47			0	38213	0	0	0	24589	23180	157720	27239	1062143	46637	109082	0	0	8183	547533	0	0
2024-09-17 11:28:47			0	38210	0	0	0	24607	23190	157656	27163	1062107	46648	109089	0	0	8183	547620	0	0
2024-09-17 11:29:47			0	38206	0	0	0	24597	23180	157888	27371	1062169	46637	109085	0	0	8183	547807	0	0
2024-09-17 11:30:47			0	38207	0	0	0	24592	23180	157672	27535	1062169	46637	109083	0	0	8183	547767	0	0
2024-09-17 11:31:47			0	38205	0	0	0	24602	23170	157748	27679	1062098	46625	109087	0	0	8183	547876	0	0
2024-09-17 11:32:47			0	38207	0	0	0	24607	23190	157724	27626	1062187	46637	109089	0	0	8183	547737	0	0
2024-09-17 11:33:47			0	38211	0	0	0	24607	23180	157800	27492	1062143	46626	109089	0	0	8183	547612	0	0
2024-09-17 11:34:47			0	38208	0	0	0	24610	23180	157716	27386	1062178	46637	109090	0	0	8183	547729	0	0
2024-09-17 11:35:47			0	38198	0	0	0	24612	23190	157788	27438	1062134	46648	109091	0	0	8182	548088	0	0
2024-09-17 11:36:47			0	38199	0	0	0	24615	23190	157764	27313	1062250	46649	109092	0	0	8182	548049	0	0
2024-09-17 11:37:47			0	38196	0	0	0	24618	23190	157724	27530	1062169	46649	109093	0	0	8182	548166	0	0
2024-09-17 11:38:47			0	38220	0	0	0	24620	23200	157728	27376	1062206	46651	109094	0	0	8183	547199	0	0
2024-09-17 11:39:47			0	38211	0	0	0	24625	23190	157848	27473	1062250	46649	109096	0	0	8183	547581	0	0
2024-09-17 11:40:47			0	38232	0	0	0	24628	23200	157624	27268	1062232	46651	109097	0	0	8184	546732	0	0
2024-09-17 11:41:47			0	38233	0	0	0	24625	23200	157640	27364	1062214	46651	109096	0	0	8184	546693	0	0
2024-09-17 11:42:47			0	38248	0	0	0	24638	23200	157576	27261	1062268	46639	109101	0	0	8185	546108	0	0
2024-09-17 11:43:47			0	38243	0	0	0	24636	23210	157484	27479	1062250	46662	109100	0	0	8185	546273	0	0
2024-09-17 11:44:47			0	38260	0	0	0	24641	23200	157460	27230	1062295	46651	109102	0	0	8185	545642	0	0
2024-09-17 11:45:47			0	38254	0	0	0	24644	23210	157492	27355	1062250	46662	109103	0	0	8185	545844	0	0
2024-09-17 11:46:47			0	38278	0	0	0	24631	23210	157456	27386	1062286	46640	109098	0	0	8187	544911	0	0
2024-09-17 11:47:47			0	38276	0	0	0	24631	23220	157420	27341	1062304	46631	109098	0	0	8187	544958	0	0
2024-09-17 11:48:47			0	38289	0	0	0	24641	23210	157428	27050	1062250	46628	109102	0	0	8187	544483	0	0
2024-09-17 11:49:47			0	38289	0	0	0	24644	23220	157372	27307	1062322	46652	109103	0	0	8187	544453	0	0
2024-09-17 11:50:47			0	38292	0	0	0	24651	23210	157308	27326	1062304	46672	109106	0	0	8187	544367	0	0
2024-09-17 11:51:47			0	38292	0	0	0	24651	23220	157360	27512	1062322	46652	109106	0	0	8187	544336	0	0
2024-09-17 11:52:47			0	38292	0	0	0	24657	23230	157312	27230	1062366	46642	109108	0	0	8187	544306	0	0
2024-09-17 11:53:47			0	38316	0	0	0	24657	23230	157336	27187	1062366	46653	109108	0	0	8189	543374	0	0
2024-09-17 11:54:47			0	38291	0	0	0	24662	23220	157308	27390	1062384	46642	109110	0	0	8187	544375	0	0
2024-09-17 11:55:47			0	38314	0	0	0	24662	23220	157288	27301	1062375	46664	109110	0	0	8188	543482	0	0
2024-09-17 11:56:47			0	38323	0	0	0	24662	23230	157232	27521	1062420	46665	109110	0	0	8189	543102	0	0
2024-09-17 11:57:47			0	38311	0	0	0	24667	23230	157252	27410	1062429	46653	109112	0	0	8188	543568	0	0
2024-09-17 11:58:47			0	38327	0	0	0	24659	23240	157320	27142	1062357	46655	109109	0	0	8189	542917	0	0
2024-09-17 11:59:47			0	38323	0	0	0	24662	23240	157148	27286	1062500	46656	109110	0	0	8189	543072	0	0
2024-09-17 12:00:47			0	38323	0	0	0	24667	23250	157212	27390	1062509	46656	109112	0	0	8189	543041	0	0
2024-09-17 12:01:47			0	38311	0	0	0	24675	23240	157284	27281	1062500	46633	109115	0	0	8188	543537	0	0
2024-09-17 12:02:47			0	38325	0	0	0	24675	23250	157256	27248	1062429	46644	109115	0	0	8189	542964	0	0
2024-09-17 12:03:47			0	38332	0	0	0	24685	23250	157292	27388	1062482	46656	109119	0	0	8189	542692	0	0
2024-09-17 12:04:47			0	38322	0	0	0	24680	23250	157240	27281	1062536	46666	109117	0	0	8189	543080	0	0
2024-09-17 12:05:47			0	38318	0	0	0	24675	23250	157192	27112	1062491	46644	109115	0	0	8188	543235	0	0
2024-09-17 12:06:47			0	38315	0	0	0	24683	23250	157296	27190	1062509	46656	109118	0	0	8188	543352	0	0
2024-09-17 12:07:47			0	38314	0	0	0	24683	23250	157300	27157	1062491	46633	109118	0	0	8188	543390	0	0
2024-09-17 12:08:47			0	38321	0	0	0	24680	23260	157204	27305	1062527	46667	109117	0	0	8189	543088	0	0
2024-09-17 12:09:47			0	38336	0	0	0	24683	23260	157192	26939	1062536	46646	109118	0	0	8189	542507	0	0
2024-09-17 12:10:47			0	38331	0	0	0	24685	23260	157132	27140	1062536	46646	109119	0	0	8189	542700	0	0
2024-09-17 12:11:47			0	38343	0	0	0	24688	23260	157184	27244	1062563	46635	109120	0	0	8190	542235	0	0
2024-09-17 12:12:47			0	38338	0	0	0	24680	23260	157096	27052	1062527	46645	109117	0	0	8190	542429	0	0
2024-09-17 12:13:47			0	38349	0	0	0	24683	23270	157116	27196	1062518	46646	109118	0	0	8190	541972	0	0
2024-09-17 12:14:47			0	38354	0	0	0	24690	23260	157132	27163	1062536	46658	109121	0	0	8190	541809	0	0
2024-09-17 12:15:47			0	38346	0	0	0	24685	23260	157088	27152	1062563	46658	109119	0	0	8190	542119	0	0
2024-09-17 12:16:47			0	38349	0	0	0	24693	23270	157196	27119	1062545	46646	109122	0	0	8190	541972	0	0
2024-09-17 12:17:47			0	38349	0	0	0	24690	23260	157104	27176	1062509	46646	109121	0	0	8190	542003	0	0
2024-09-17 12:18:47			0	38337	0	0	0	24693	23260	157188	27145	1062554	46634	109122	0	0	8189	542468	0	0
2024-09-17 12:19:47			0	38343	0	0	0	24659	23250	157144	27166	1062491	46644	109109	0	0	8190	542266	0	0
2024-09-17 12:20:47			0	38343	0	0	0	24654	23270	157208	27255	1062518	46658	109107	0	0	8190	542205	0	0
2024-09-17 12:21:47			0	38350	0	0	0	24654	23260	157220	27190	1062527	46634	109107	0	0	8191	541964	0	0
2024-09-17 12:22:47			0	38373	0	0	0	24654	23270	157244	27180	1062438	46635	109107	0	0	8192	541043	0	0
2024-09-17 12:23:47			0	38375	0	0	0	24670	23250	157128	26989	1062465	46656	109113	0	0	8192	541026	0	0
2024-09-17 12:24:47			0	38361	0	0	0	24664	23260	157064	27372	1062474	46657	109111	0	0	8191	541538	0	0
2024-09-17 12:25:47			0	38367	0	0	0	24667	23260	157080	26844	1062456	46646	109112	0	0	8191	541306	0	0
2024-09-17 12:26:47			0	38382	0	0	0	24659	23250	157036	27119	1062465	46656	109109	0	0	8192	540756	0	0
2024-09-17 12:27:47			0	38375	0	0	0	24670	23250	157036	26920	1062491	46644	109113	0	0	8192	541026	0	0
2024-09-17 12:28:47			0	38384	0	0	0	24664	23260	157044	27095	1062420	46645	109111	0	0	8192	540648	0	0
2024-09-17 12:29:47			0	38391	0	0	0	24670	23260	157080	27365	1062509	46646	109113	0	0	8193	540377	0	0
2024-09-17 12:30:47			0	38388	0	0	0	24672	23260	156992	27319	1062474	46645	109114	0	0	8193	540493	0	0
2024-09-17 12:31:47			0	38376	0	0	0	24685	23260	156988	27223	1062474	46657	109119	0	0	8192	540957	0	0
2024-09-17 12:32:47			0	38378	0	0	0	24685	23250	156984	26975	1062509	46656	109119	0	0	8192	540910	0	0
2024-09-17 12:33:47			0	38369	0	0	0	24664	23260	156992	27315	1062509	46658	109111	0	0	8192	541228	0	0
2024-09-17 12:34:47			0	38402	0	0	0	24659	23260	156984	27256	1062483	46646	109109	0	0	8194	539952	0	0
2024-09-17 12:35:47			0	38392	0	0	0	24672	23250	156916	27189	1062438	46633	109114	0	0	8193	540369	0	0
2024-09-17 12:36:47			0	38406	0	0	0	24703	23260	156912	27126	1062474	46645	109126	0	0	8193	539797	0	0
2024-09-17 12:37:47			0	38388	0	0	0	24701	23260	156984	26923	1062580	46645	109125	0	0	8192	540493	0	0
2024-09-17 12:38:47			0	38362	0	0	0	24698	23260	156968	27215	1062554	46645	109124	0	0	8191	541499	0	0
2024-09-17 12:39:47			0	38356	0	0	0	24701	23260	157148	27332	1062563	46646	109125	0	0	8190	541732	0	0
2024-09-17 12:40:47			0	38345	0	0	0	24690	23270	157152	27031	1062545	46646	109121	0	0	8190	542127	0	0
2024-09-17 12:41:47			0	38332	0	0	0	24696	23270	157068	26949	1062572	46658	109123	0	0	8189	542631	0	0
2024-09-17 12:42:47			0	38337	0	0	0	24696	23270	157144	26852	1062518	46646	109123	0	0	8189	542437	0	0
2024-09-17 12:43:47			0	38344	0	0	0	24711	23270	157152	26982	1062572	46646	109129	0	0	8189	542166	0	0
2024-09-17 12:44:47			0	38366	0	0	0	24696	23260	157104	27509	1062563	46668	109123	0	0	8191	541344	0	0
2024-09-17 12:45:47			0	38374	0	0	0	24688	23280	157104	27429	1062616	46647	109120	0	0	8192	540974	0	0
2024-09-17 12:46:47			0	38386	0	0	0	24685	23270	157040	27319	1062634	46646	109119	0	0	8192	540540	0	0
2024-09-17 12:47:47			0	38393	0	0	0	24701	23270	156912	27448	1062545	46658	109125	0	0	8192	540269	0	0
2024-09-17 12:48:47			0	38406	0	0	0	24716	23270	156856	27481	1062581	46668	109131	0	0	8193	539767	0	0
2024-09-17 12:49:47			0	38394	0	0	0	24722	23280	156956	27123	1062679	46648	109133	0	0	8192	540200	0	0
2024-09-17 12:50:47			0	38392	0	0	0	24729	23280	156928	27339	1062705	46660	109136	0	0	8192	540278	0	0
2024-09-17 12:51:47			0	38382	0	0	0	24719	23290	156884	27242	1062661	46661	109132	0	0	8192	540634	0	0
2024-09-17 12:52:47			0	38364	0	0	0	24716	23280	157024	27249	1062616	46669	109131	0	0	8191	541361	0	0
2024-09-17 12:53:47			0	38362	0	0	0	24714	23290	157100	27428	1062750	46649	109130	0	0	8191	541408	0	0
2024-09-17 12:54:47			0	38375	0	0	0	24719	23280	157116	27301	1062723	46647	109132	0	0	8191	540935	0	0
2024-09-17 12:55:47			0	38364	0	0	0	24688	23290	157068	27559	1062670	46661	109120	0	0	8191	541331	0	0
2024-09-17 12:56:47			0	38372	0	0	0	24698	23280	157040	27623	1062652	46648	109124	0	0	8191	541051	0	0
2024-09-17 12:57:47			0	38379	0	0	0	24735	23280	156976	27620	1062679	46660	109138	0	0	8191	540780	0	0
2024-09-17 12:58:47			0	38377	0	0	0	24727	23290	157016	27472	1062750	46649	109135	0	0	8191	540828	0	0
2024-09-17 12:59:47			0	38388	0	0	0	24745	23290	157008	27654	1062714	46661	109142	0	0	8191	540402	0	0
2024-09-17 13:00:47			0	38386	0	0	0	24724	23290	156996	27564	1062688	46649	109134	0	0	8192	540479	0	0
2024-09-17 13:01:47			0	38378	0	0	0	24735	23300	157032	27613	1062839	46661	109138	0	0	8191	540759	0	0
2024-09-17 13:02:47			0	38377	0	0	0	24719	23290	156944	27769	1062804	46671	109132	0	0	8191	540828	0	0
2024-09-17 13:03:47			0	38387	0	0	0	24732	23300	156916	27455	1062741	46662	109137	0	0	8192	540410	0	0
2024-09-17 13:04:47			0	38400	0	0	0	24732	23300	156920	27578	1062732	46649	109137	0	0	8192	539908	0	0
2024-09-17 13:05:47			0	38396	0	0	0	24727	23310	157036	27272	1062857	46663	109135	0	0	8192	540032	0	0
2024-09-17 13:06:47			0	38376	0	0	0	24737	23310	157004	27469	1062786	46651	109139	0	0	8191	540805	0	0
2024-09-17 13:07:47			0	38386	0	0	0	24727	23310	156992	27481	1062893	46651	109135	0	0	8192	540419	0	0
2024-09-17 13:08:47			0	38386	0	0	0	24732	23310	156936	27338	1062813	46663	109137	0	0	8192	540419	0	0
2024-09-17 13:09:47			0	38398	0	0	0	24729	23310	156956	27315	1062759	46663	109136	0	0	8192	539955	0	0
2024-09-17 13:10:47			0	38399	0	0	0	24716	23310	156892	27379	1062786	46663	109131	0	0	8193	539916	0	0
2024-09-17 13:11:47			0	38396	0	0	0	24714	23310	156928	27255	1062831	46640	109130	0	0	8193	540032	0	0
2024-09-17 13:12:47			0	38397	0	0	0	24727	23320	157080	27481	1062876	46663	109135	0	0	8192	539963	0	0
2024-09-17 13:13:47			0	38383	0	0	0	24735	23320	157044	27135	1062742	46663	109138	0	0	8192	540504	0	0
2024-09-17 13:14:47			0	38377	0	0	0	24724	23310	157036	27185	1062813	46651	109134	0	0	8191	540767	0	0
2024-09-17 13:15:47			0	38394	0	0	0	24729	23310	156944	27414	1062759	46651	109136	0	0	8192	540109	0	0
2024-09-17 13:16:47			0	38381	0	0	0	24732	23320	157024	27383	1062795	46651	109137	0	0	8191	540582	0	0
2024-09-17 13:17:47			0	38384	0	0	0	24732	23310	156996	27216	1062840	46663	109137	0	0	8192	540496	0	0
2024-09-17 13:18:47			0	38402	0	0	0	24729	23320	156940	27241	1062911	46652	109136	0	0	8193	539770	0	0
2024-09-17 13:19:47			0	38418	0	0	0	24732	23320	156784	27208	1062822	46651	109137	0	0	8194	539152	0	0
2024-09-17 13:20:47			0	38427	0	0	0	24724	23310	156840	27499	1062786	46651	109134	0	0	8194	538835	0	0
2024-09-17 13:21:47			0	38414	0	0	0	24732	23310	156796	27310	1062813	46651	109137	0	0	8193	539337	0	0
2024-09-17 13:22:47			0	38447	0	0	0	24732	23320	156852	27293	1062795	46651	109137	0	0	8195	538033	0	0
2024-09-17 13:23:47			0	38420	0	0	0	24735	23320	156708	27284	1062822	46651	109138	0	0	8194	539075	0	0
2024-09-17 13:24:47			0	38438	0	0	0	24735	23320	156760	27227	1062769	46651	109138	0	0	8195	538380	0	0
2024-09-17 13:25:47			0	38456	0	0	0	24742	23320	156688	27637	1062858	46664	109141	0	0	8196	537686	0	0
2024-09-17 13:26:47			0	38463	0	0	0	24755	23320	156716	27493	1062858	46641	109146	0	0	8196	537416	0	0
2024-09-17 13:27:47			0	38473	0	0	0	24753	23330	156604	27374	1062867	46642	109145	0	0	8196	537001	0	0
2024-09-17 13:28:47			0	38491	0	0	0	24774	23320	156564	27441	1062885	46674	109153	0	0	8197	536338	0	0
2024-09-17 13:29:47			0	38514	0	0	0	24776	23330	156560	27573	1062956	46665	109154	0	0	8198	535423	0	0
2024-09-17 13:30:47			0	38531	0	0	0	24779	23320	156528	27447	1062965	46664	109155	0	0	8199	534799	0	0
2024-09-17 13:31:47			0	38528	0	0	0	24789	23330	156368	27511	1062956	46665	109159	0	0	8199	534885	0	0
2024-09-17 13:32:47			0	38535	0	0	0	24792	23340	156356	27812	1062965	46675	109160	0	0	8199	534586	0	0
2024-09-17 13:33:47			0	38550	0	0	0	24799	23340	156376	27287	1063054	46687	109163	0	0	8200	534010	0	0
2024-09-17 13:34:47			0	38561	0	0	0	24802	23350	156192	27485	1063010	46666	109164	0	0	8201	533558	0	0
2024-09-17 13:35:47			0	38579	0	0	0	24807	23360	156236	27277	1063161	46678	109166	0	0	8202	532837	0	0
2024-09-17 13:36:47			0	38575	0	0	0	24812	23350	156176	27242	1063019	46666	109168	0	0	8201	533021	0	0
2024-09-17 13:37:47			0	38593	0	0	0	24812	23360	156228	27286	1063108	46667	109168	0	0	8203	532301	0	0
2024-09-17 13:38:47			0	38592	0	0	0	24815	23360	156176	27364	1063117	46667	109169	0	0	8202	532339	0	0
2024-09-17 13:39:47			0	38580	0	0	0	24812	23360	156128	27362	1063090	46678	109168	0	0	8202	532799	0	0
2024-09-17 13:40:47			0	38582	0	0	0	24820	23360	156160	27409	1063143	46667	109171	0	0	8202	532722	0	0
2024-09-17 13:41:47			0	38610	0	0	0	24828	23370	156084	27402	1063161	46680	109174	0	0	8203	531620	0	0
2024-09-17 13:42:47			0	38589	0	0	0	24818	23380	156100	27371	1063224	46669	109170	0	0	8202	532394	0	0
2024-09-17 13:43:47			0	38601	0	0	0	24823	23390	156152	27237	1063251	46682	109172	0	0	8203	531905	0	0
2024-09-17 13:44:47			0	38603	0	0	0	24831	23380	156124	27277	1063206	46669	109175	0	0	8203	531858	0	0
2024-09-17 13:45:47			0	38584	0	0	0	24836	23380	156108	27559	1063260	46691	109177	0	0	8202	532586	0	0
2024-09-17 13:46:47			0	38597	0	0	0	24820	23390	156056	27396	1063322	46660	109171	0	0	8203	532058	0	0
2024-09-17 13:47:47			0	38630	0	0	0	24828	23380	155984	27254	1063286	46659	109174	0	0	8204	530825	0	0
2024-09-17 13:48:47			0	38632	0	0	0	24828	23390	155944	27235	1063269	46670	109174	0	0	8205	530719	0	0
2024-09-17 13:49:47			0	38655	0	0	0	24841	23390	155740	27230	1063304	46649	109179	0	0	8206	529840	0	0
2024-09-17 13:50:47			0	38652	0	0	0	24838	23400	155912	27452	1063340	46671	109178	0	0	8206	529925	0	0
2024-09-17 13:51:47			0	38647	0	0	0	24844	23390	155964	27587	1063242	46660	109180	0	0	8205	530145	0	0
2024-09-17 13:52:47			0	38652	0	0	0	24844	23400	155828	27595	1063233	46671	109180	0	0	8206	529925	0	0
2024-09-17 13:53:47			0	38655	0	0	0	24849	23400	155816	27538	1063340	46671	109182	0	0	8206	529810	0	0
2024-09-17 13:54:47			0	38659	0	0	0	24833	23410	155852	27391	1063313	46651	109176	0	0	8206	529627	0	0
2024-09-17 13:55:47			0	38654	0	0	0	24836	23420	155848	27332	1063376	46663	109177	0	0	8206	529789	0	0
2024-09-17 13:56:47			0	38640	0	0	0	24836	23410	155864	27305	1063367	46673	109177	0	0	8205	530353	0	0
2024-09-17 13:57:47			0	38649	0	0	0	24841	23410	155840	26986	1063313	46673	109179	0	0	8206	530009	0	0
2024-09-17 13:58:47			0	38648	0	0	0	24836	23410	155804	27379	1063367	46673	109177	0	0	8206	530048	0	0
2024-09-17 13:59:47			0	38643	0	0	0	24831	23410	155804	27251	1063313	46663	109175	0	0	8205	530239	0	0
2024-09-17 14:00:47			0	38653	0	0	0	24823	23420	155804	27239	1063296	46673	109172	0	0	8206	529827	0	0
2024-09-17 14:01:47			0	38634	0	0	0	24825	23410	155868	27315	1063340	46651	109173	0	0	8205	530583	0	0
2024-09-17 14:02:47			0	38639	0	0	0	24838	23410	155772	27526	1063287	46673	109178	0	0	8205	530391	0	0
2024-09-17 14:03:47			0	38646	0	0	0	24833	23410	155964	27713	1063358	46672	109176	0	0	8205	530124	0	0
2024-09-17 14:04:47			0	38642	0	0	0	24833	23410	155840	27582	1063394	46663	109176	0	0	8205	530277	0	0
2024-09-17 14:05:47			0	38644	0	0	0	24838	23420	155868	27142	1063349	46673	109178	0	0	8205	530171	0	0
2024-09-17 14:06:47			0	38662	0	0	0	24844	23420	155876	27176	1063429	46663	109180	0	0	8206	529483	0	0
2024-09-17 14:07:47			0	38640	0	0	0	24836	23420	155884	27592	1063385	46664	109177	0	0	8205	530323	0	0
2024-09-17 14:08:47			0	38655	0	0	0	24825	23410	155880	27504	1063394	46663	109173	0	0	8206	529780	0	0
2024-09-17 14:09:47			0	38654	0	0	0	24828	23420	155852	27502	1063349	46663	109174	0	0	8206	529789	0	0
2024-09-17 14:10:47			0	38642	0	0	0	24833	23410	155856	27575	1063340	46673	109176	0	0	8205	530277	0	0
2024-09-17 14:11:47			0	38667	0	0	0	24833	23420	155872	27578	1063349	46663	109176	0	0	8207	529292	0	0
2024-09-17 14:12:47			0	38662	0	0	0	24831	23420	155812	27566	1063322	46673	109175	0	0	8206	529483	0	0
2024-09-17 14:13:47			0	38673	0	0	0	24841	23410	155784	27379	1063358	46661	109179	0	0	8207	529093	0	0
2024-09-17 14:14:47			0	38684	0	0	0	24846	23420	155816	27488	1063349	46663	109181	0	0	8207	528644	0	0
2024-09-17 14:15:47			0	38671	0	0	0	24831	23420	155760	27393	1063376	46673	109175	0	0	8207	529139	0	0
2024-09-17 14:16:47			0	38673	0	0	0	24838	23430	155728	27481	1063367	46664	109178	0	0	8207	529033	0	0
2024-09-17 14:17:47			0	38670	0	0	0	24836	23420	155780	27614	1063376	46663	109177	0	0	8207	529178	0	0
2024-09-17 14:18:47			0	38668	0	0	0	24825	23420	155688	27424	1063376	46663	109173	0	0	8207	529254	0	0
2024-09-17 14:19:47			0	38682	0	0	0	24833	23420	155688	27599	1063349	46663	109176	0	0	8208	528720	0	0
2024-09-17 14:20:47			0	38694	0	0	0	24841	23410	155756	27597	1063394	46651	109179	0	0	8208	528292	0	0
2024-09-17 14:21:47			0	38688	0	0	0	24831	23420	155736	27523	1063376	46663	109175	0	0	8208	528491	0	0
2024-09-17 14:22:47			0	38690	0	0	0	24833	23420	155704	27646	1063412	46664	109176	0	0	8208	528415	0	0
2024-09-17 14:23:47			0	38695	0	0	0	24820	23410	155724	27744	1063367	46673	109171	0	0	8209	528254	0	0
2024-09-17 14:24:47			0	38687	0	0	0	24818	23420	155792	27353	1063322	46663	109170	0	0	8208	528529	0	0
2024-09-17 14:25:47			0	38702	0	0	0	24825	23420	155592	27530	1063349	46663	109173	0	0	8209	527957	0	0
2024-09-17 14:26:47			0	38692	0	0	0	24828	23410	155688	27715	1063367	46663	109174	0	0	8208	528368	0	0
2024-09-17 14:27:47			0	38693	0	0	0	24823	23420	155680	27549	1063349	46673	109172	0	0	8208	528300	0	0
2024-09-17 14:28:47			0	38696	0	0	0	24820	23410	155796	27355	1063340	46663	109171	0	0	8209	528216	0	0
2024-09-17 14:29:47			0	38694	0	0	0	24833	23420	155792	27343	1063296	46663	109176	0	0	8208	528262	0	0
2024-09-17 14:30:47			0	38680	0	0	0	24831	23420	155852	27490	1063296	46684	109175	0	0	8208	528796	0	0
2024-09-17 14:31:47			0	38686	0	0	0	24831	23410	155776	27486	1063313	46651	109175	0	0	8208	528597	0	0
2024-09-17 14:32:47			0	38684	0	0	0	24838	23430	155744	27166	1063340	46664	109178	0	0	8208	528614	0	0
2024-09-17 14:33:47			0	38687	0	0	0	24810	23410	155768	27685	1063394	46673	109167	0	0	8208	528559	0	0
2024-09-17 14:34:47			0	38672	0	0	0	24784	23420	155684	27566	1063322	46663	109157	0	0	8208	529101	0	0
2024-09-17 14:35:47			0	38640	0	0	0	24797	23430	155888	27400	1063314	46674	109162	0	0	8206	530294	0	0
2024-09-17 14:36:47			0	38628	0	0	0	24794	23400	155996	27386	1063260	46649	109161	0	0	8205	530842	0	0
2024-09-17 14:37:47			0	38604	0	0	0	24828	23410	156112	27483	1063313	46651	109174	0	0	8203	531730	0	0
2024-09-17 14:38:47			0	38582	0	0	0	24807	23410	156056	27319	1063331	46672	109166	0	0	8202	532573	0	0
2024-09-17 14:39:47			0	38606	0	0	0	24820	23420	156032	27412	1063349	46663	109171	0	0	8203	531624	0	0
2024-09-17 14:40:47			0	38593	0	0	0	24823	23420	156104	27336	1063349	46651	109172	0	0	8203	532122	0	0
2024-09-17 14:41:47			0	38592	0	0	0	24820	23410	156008	27507	1063313	46663	109171	0	0	8203	532190	0	0
2024-09-17 14:42:47			0	38606	0	0	0	24807	23420	156072	27303	1063322	46673	109166	0	0	8204	531624	0	0
2024-09-17 14:43:47			0	38581	0	0	0	24810	23420	156188	27300	1063358	46664	109167	0	0	8202	532581	0	0
2024-09-17 14:44:47			0	38587	0	0	0	24807	23410	156100	27381	1063313	46673	109166	0	0	8203	532381	0	0
2024-09-17 14:45:47			0	38592	0	0	0	24818	23410	156092	27284	1063358	46661	109170	0	0	8203	532190	0	0
2024-09-17 14:46:47			0	38582	0	0	0	24805	23420	156176	27497	1063349	46673	109165	0	0	8202	532543	0	0
2024-09-17 14:47:47			0	38593	0	0	0	24797	23420	156232	27379	1063349	46673	109162	0	0	8203	532122	0	0
2024-09-17 14:48:47			0	38578	0	0	0	24805	23410	156196	27013	1063340	46673	109165	0	0	8202	532726	0	0
2024-09-17 14:49:47			0	38590	0	0	0	24797	23400	156160	27163	1063260	46649	109162	0	0	8203	532296	0	0
2024-09-17 14:50:47			0	38569	0	0	0	24799	23410	156164	27448	1063313	46673	109163	0	0	8202	533071	0	0
2024-09-17 14:51:47			0	38564	0	0	0	24797	23400	156116	27249	1063340	46638	109162	0	0	8201	533293	0	0
2024-09-17 14:52:47			0	38584	0	0	0	24807	23400	156184	27260	1063260	46660	109166	0	0	8202	532526	0	0
2024-09-17 14:53:47			0	38579	0	0	0	24807	23400	156176	27424	1063260	46649	109166	0	0	8202	532718	0	0
2024-09-17 14:54:47			0	38580	0	0	0	24818	23400	156144	27620	1063269	46660	109170	0	0	8202	532679	0	0
2024-09-17 14:55:47			0	38578	0	0	0	24807	23410	156068	27473	1063313	46673	109166	0	0	8202	532726	0	0
2024-09-17 14:56:47			0	38584	0	0	0	24810	23390	156088	27301	1063304	46649	109167	0	0	8202	532556	0	0
2024-09-17 14:57:47			0	38608	0	0	0	24820	23410	156096	27462	1063340	46673	109171	0	0	8203	531577	0	0
2024-09-17 14:58:47			0	38613	0	0	0	24820	23400	156024	27559	1063349	46671	109171	0	0	8204	531416	0	0
2024-09-17 14:59:47			0	38624	0	0	0	24815	23400	155988	27460	1063286	46671	109169	0	0	8204	530995	0	0
2024-09-17 15:00:47			0	38621	0	0	0	24818	23410	156000	27473	1063331	46661	109170	0	0	8204	531080	0	0
2024-09-17 15:01:47			0	38640	0	0	0	24818	23410	155928	27409	1063278	46672	109170	0	0	8205	530353	0	0
2024-09-17 15:02:47			0	38640	0	0	0	24823	23410	155968	27142	1063278	46661	109172	0	0	8205	530353	0	0
2024-09-17 15:03:47			0	38640	0	0	0	24805	23400	155956	27547	1063313	46671	109165	0	0	8206	530383	0	0
2024-09-17 15:04:47			0	38631	0	0	0	24812	23400	155872	27350	1063286	46671	109168	0	0	8205	530727	0	0
2024-09-17 15:05:47			0	38619	0	0	0	24812	23400	155920	27405	1063322	46671	109168	0	0	8204	531186	0	0
2024-09-17 15:06:47			0	38628	0	0	0	24810	23410	155864	27317	1063287	46684	109167	0	0	8205	530812	0	0
2024-09-17 15:07:47			0	38630	0	0	0	24807	23410	155928	27751	1063394	46663	109166	0	0	8205	530735	0	0
2024-09-17 15:08:47			0	38608	0	0	0	24810	23410	155956	27727	1063331	46661	109167	0	0	8204	531577	0	0
2024-09-17 15:09:47			0	38634	0	0	0	24820	23400	155936	27511	1063313	46660	109171	0	0	8205	530612	0	0
2024-09-17 15:10:47			0	38629	0	0	0	24818	23410	155904	27649	1063340	46673	109170	0	0	8205	530774	0	0
2024-09-17 15:11:47			0	38649	0	0	0	24812	23400	155860	27410	1063340	46660	109168	0	0	8206	530039	0	0
2024-09-17 15:12:47			0	38625	0	0	0	24812	23400	155784	27731	1063313	46671	109168	0	0	8205	530957	0	0
2024-09-17 15:13:47			0	38641	0	0	0	24815	23410	155912	27718	1063340	46663	109169	0	0	8205	530315	0	0
2024-09-17 15:14:47			0	38620	0	0	0	24810	23410	155884	27495	1063278	46650	109167	0	0	8204	531118	0	0
2024-09-17 15:15:47			0	38620	0	0	0	24802	23410	155920	27521	1063358	46661	109164	0	0	8204	531118	0	0
2024-09-17 15:16:47			0	38604	0	0	0	24810	23410	155908	27710	1063331	46661	109167	0	0	8203	531730	0	0
2024-09-17 15:17:47			0	38618	0	0	0	24805	23400	155920	27488	1063233	46671	109165	0	0	8204	531224	0	0
2024-09-17 15:18:47			0	38623	0	0	0	24807	23390	155884	27448	1063304	46660	109166	0	0	8204	531063	0	0
2024-09-17 15:19:47			0	38633	0	0	0	24805	23400	155912	27227	1063286	46660	109165	0	0	8205	530651	0	0
2024-09-17 15:20:47			0	38631	0	0	0	24805	23400	155848	27367	1063286	46649	109165	0	0	8205	530727	0	0
2024-09-17 15:21:47			0	38635	0	0	0	24797	23400	155768	27357	1063313	46660	109162	0	0	8205	530574	0	0
2024-09-17 15:22:47			0	38636	0	0	0	24797	23400	155844	27178	1063286	46660	109162	0	0	8205	530536	0	0
2024-09-17 15:23:47			0	38641	0	0	0	24794	23390	155880	27258	1063277	46671	109161	0	0	8206	530375	0	0
2024-09-17 15:24:47			0	38640	0	0	0	24807	23410	155860	27483	1063278	46661	109166	0	0	8206	530353	0	0
2024-09-17 15:25:47			0	38648	0	0	0	24797	23380	155792	27493	1063286	46659	109162	0	0	8206	530137	0	0
2024-09-17 15:26:47			0	38657	0	0	0	24799	23380	155892	27237	1063260	46659	109163	0	0	8207	529793	0	0
2024-09-17 15:27:47			0	38639	0	0	0	24792	23390	155776	27502	1063331	46660	109160	0	0	8206	530451	0	0
2024-09-17 15:28:47			0	38648	0	0	0	24792	23390	155824	27438	1063251	46649	109160	0	0	8206	530107	0	0
2024-09-17 15:29:47			0	38644	0	0	0	24776	23390	155760	27338	1063188	46670	109154	0	0	8206	530260	0	0
2024-09-17 15:30:47			0	38620	0	0	0	24776	23380	155820	27388	1063233	46669	109154	0	0	8205	531208	0	0
2024-09-17 15:31:47			0	38631	0	0	0	24784	23380	155868	27479	1063126	46659	109157	0	0	8205	530787	0	0
2024-09-17 15:32:47			0	38617	0	0	0	24774	23380	155976	27374	1063170	46647	109153	0	0	8205	531322	0	0
2024-09-17 15:33:47			0	38613	0	0	0	24776	23380	156036	27750	1063206	46647	109154	0	0	8204	531475	0	0
2024-09-17 15:34:47			0	38600	0	0	0	24779	23380	155988	27692	1063179	46659	109155	0	0	8204	531973	0	0
2024-09-17 15:35:47			0	38623	0	0	0	24771	23380	155948	27447	1063179	46669	109152	0	0	8205	531093	0	0
2024-09-17 15:36:47			0	38607	0	0	0	24761	23380	155932	27492	1063170	46647	109148	0	0	8204	531705	0	0
2024-09-17 15:37:47			0	38610	0	0	0	24761	23360	156020	27533	1063090	46656	109148	0	0	8204	531650	0	0
2024-09-17 15:38:47			0	38603	0	0	0	24755	23370	156024	27398	1063108	46659	109146	0	0	8204	531888	0	0
2024-09-17 15:39:47			0	38591	0	0	0	24758	23370	156000	27519	1063126	46657	109147	0	0	8203	532348	0	0
2024-09-17 15:40:47			0	38597	0	0	0	24761	23370	155960	27383	1063072	46657	109148	0	0	8204	532118	0	0
2024-09-17 15:41:47			0	38606	0	0	0	24763	23360	155920	27312	1063081	46656	109149	0	0	8204	531803	0	0
2024-09-17 15:42:47			0	38612	0	0	0	24771	23370	156008	27590	1063072	46646	109152	0	0	8204	531544	0	0
2024-09-17 15:43:47			0	38611	0	0	0	24784	23370	155944	27620	1063108	46659	109157	0	0	8204	531582	0	0
2024-09-17 15:44:47			0	38619	0	0	0	24774	23370	155912	27713	1063099	46668	109153	0	0	8205	531276	0	0
2024-09-17 15:45:47			0	38629	0	0	0	24781	23360	155920	27640	1063117	46656	109156	0	0	8205	530923	0	0
2024-09-17 15:46:47			0	38632	0	0	0	24774	23370	155896	27769	1063099	46657	109153	0	0	8205	530778	0	0
2024-09-17 15:47:47			0	38611	0	0	0	24779	23370	155920	27831	1063152	46657	109155	0	0	8204	531582	0	0
2024-09-17 15:48:47			0	38648	0	0	0	24771	23370	155972	27566	1063179	46657	109152	0	0	8206	530167	0	0
2024-09-17 15:49:47			0	38646	0	0	0	24758	23370	155868	27448	1063099	46668	109147	0	0	8207	530243	0	0
2024-09-17 15:50:47			0	38637	0	0	0	24771	23370	155852	27530	1063126	46657	109152	0	0	8206	530587	0	0
2024-09-17 15:51:47			0	38656	0	0	0	24766	23360	155852	27777	1063117	46645	109150	0	0	8207	529891	0	0
2024-09-17 15:52:47			0	38639	0	0	0	24761	23360	155856	27812	1063134	46645	109148	0	0	8206	530541	0	0
2024-09-17 15:53:47			0	38636	0	0	0	24761	23360	155900	27713	1063090	46667	109148	0	0	8206	530655	0	0
2024-09-17 15:54:47			0	38662	0	0	0	24753	23350	155812	27684	1063099	46655	109145	0	0	8207	529691	0	0
2024-09-17 15:55:47			0	38639	0	0	0	24740	23350	155888	27415	1063072	46655	109140	0	0	8206	530570	0	0
2024-09-17 15:56:47			0	38650	0	0	0	24745	23360	155840	27441	1063054	46656	109142	0	0	8207	530120	0	0
2024-09-17 15:57:47			0	38652	0	0	0	24745	23340	155860	27621	1063054	46643	109142	0	0	8207	530103	0	0
2024-09-17 15:58:47			0	38660	0	0	0	24737	23350	155760	27543	1063019	46644	109139	0	0	8208	529768	0	0
2024-09-17 15:59:47			0	38653	0	0	0	24742	23350	155788	27706	1063045	46655	109141	0	0	8207	530035	0	0
2024-09-17 16:00:47			0	38668	0	0	0	24737	23340	155752	27854	1062974	46654	109139	0	0	8208	529492	0	0
2024-09-17 16:01:47			0	38660	0	0	0	24745	23340	155892	27642	1062992	46642	109142	0	0	8207	529798	0	0
2024-09-17 16:02:47			0	38651	0	0	0	24748	23340	155912	27843	1063045	46653	109143	0	0	8207	530141	0	0
2024-09-17 16:03:47			0	38643	0	0	0	24750	23340	155928	27685	1063001	46654	109144	0	0	8206	530447	0	0
2024-09-17 16:04:47			0	38662	0	0	0	24748	23350	155788	27358	1063036	46666	109143	0	0	8208	529691	0	0
2024-09-17 16:05:47			0	38671	0	0	0	24748	23340	155756	27339	1063027	46654	109143	0	0	8208	529377	0	0
2024-09-17 16:06:47			0	38676	0	0	0	24742	23340	155784	27424	1063001	46654	109141	0	0	8208	529187	0	0
2024-09-17 16:07:47			0	38693	0	0	0	24732	23330	155684	27691	1062956	46665	109137	0	0	8210	528567	0	0
2024-09-17 16:08:47			0	38683	0	0	0	24737	23340	155772	27833	1063001	46666	109139	0	0	8209	528919	0	0
2024-09-17 16:09:47			0	38704	0	0	0	24737	23340	155700	27679	1062965	46665	109139	0	0	8210	528118	0	0
2024-09-17 16:10:47			0	38686	0	0	0	24735	23330	155756	27260	1062974	46653	109138	0	0	8209	528834	0	0
2024-09-17 16:11:47			0	38692	0	0	0	24735	23330	155616	27913	1062902	46665	109138	0	0	8209	528606	0	0
2024-09-17 16:12:47			0	38702	0	0	0	24737	23330	155520	27772	1062956	46653	109139	0	0	8210	528224	0	0
2024-09-17 16:13:47			0	38713	0	0	0	24727	23330	155640	27743	1062920	46665	109135	0	0	8211	527805	0	0
2024-09-17 16:14:47			0	38713	0	0	0	24714	23330	155672	27876	1062974	46665	109130	0	0	8211	527805	0	0
2024-09-17 16:15:47			0	38714	0	0	0	24735	23330	155660	27422	1062920	46653	109138	0	0	8211	527767	0	0
2024-09-17 16:16:47			0	38714	0	0	0	24732	23330	155692	27559	1062947	46653	109137	0	0	8211	527767	0	0
2024-09-17 16:17:47			0	38692	0	0	0	24732	23320	155804	27400	1062956	46651	109137	0	0	8209	528635	0	0
2024-09-17 16:18:47			0	38669	0	0	0	24740	23330	155872	27426	1062974	46665	109140	0	0	8208	529484	0	0
2024-09-17 16:19:47			0	38684	0	0	0	24727	23330	155740	27666	1062947	46642	109135	0	0	8209	528911	0	0
2024-09-17 16:20:47			0	38703	0	0	0	24735	23320	155768	27677	1062911	46630	109138	0	0	8210	528216	0	0
2024-09-17 16:21:47			0	38687	0	0	0	24742	23320	155800	27485	1062911	46641	109141	0	0	8209	528826	0	0
2024-09-17 16:22:47			0	38693	0	0	0	24742	23330	155772	27291	1062920	46665	109141	0	0	8209	528567	0	0
2024-09-17 16:23:47			0	38702	0	0	0	24742	23330	155768	27765	1062974	46653	109141	0	0	8210	528224	0	0
2024-09-17 16:24:47			0	38707	0	0	0	24745	23320	155752	27524	1062965	46652	109142	0	0	8210	528063	0	0
2024-09-17 16:25:47			0	38715	0	0	0	24750	23320	155668	27779	1062911	46641	109144	0	0	8210	527758	0	0
2024-09-17 16:26:47			0	38699	0	0	0	24740	23330	155664	27757	1062983	46653	109140	0	0	8210	528339	0	0
2024-09-17 16:27:47			0	38696	0	0	0	24745	23330	155632	27973	1063000	46653	109142	0	0	8209	528453	0	0
2024-09-17 16:28:47			0	38713	0	0	0	24735	23330	155776	27398	1062920	46665	109138	0	0	8211	527805	0	0
2024-09-17 16:29:47			0	38713	0	0	0	24740	23330	155708	27628	1062947	46653	109140	0	0	8211	527805	0	0
2024-09-17 16:30:47			0	38698	0	0	0	24755	23330	155748	27611	1062929	46653	109146	0	0	8209	528377	0	0
2024-09-17 16:31:47			0	38710	0	0	0	24750	23340	155744	27267	1062965	46653	109144	0	0	8210	527890	0	0
2024-09-17 16:32:47			0	38717	0	0	0	24729	23330	155824	27493	1062983	46653	109136	0	0	8211	527652	0	0
2024-09-17 16:33:47			0	38729	0	0	0	24735	23330	155581	27249	1063000	46653	109138	0	0	8212	527195	0	0
2024-09-17 16:34:47			0	38722	0	0	0	24748	23330	155660	27554	1062947	46653	109143	0	0	8211	527462	0	0
2024-09-17 16:35:47			0	38729	0	0	0	24737	23330	155589	27350	1062929	46665	109139	0	0	8212	527195	0	0
2024-09-17 16:36:47			0	38728	0	0	0	24709	23330	155641	27623	1062956	46653	109128	0	0	8212	527233	0	0
2024-09-17 16:37:47			0	38723	0	0	0	24740	23330	155589	27492	1062902	46653	109140	0	0	8211	527424	0	0
2024-09-17 16:38:47			0	38734	0	0	0	24729	23330	155628	27289	1062929	46642	109136	0	0	8212	527005	0	0
2024-09-17 16:39:47			0	38707	0	0	0	24724	23330	155528	27573	1062929	46653	109134	0	0	8210	528034	0	0
2024-09-17 16:40:47			0	38725	0	0	0	24737	23330	155604	27481	1062974	46642	109139	0	0	8211	527348	0	0
2024-09-17 16:41:47			0	38708	0	0	0	24735	23330	155644	27656	1063009	46642	109138	0	0	8210	527995	0	0
2024-09-17 16:42:47			0	38731	0	0	0	24742	23330	155544	27355	1062956	46653	109141	0	0	8212	527119	0	0
2024-09-17 16:43:47			0	38741	0	0	0	24729	23330	155509	27710	1062974	46653	109136	0	0	8212	526738	0	0
2024-09-17 16:44:47			0	38735	0	0	0	24729	23320	155501	27531	1062911	46641	109136	0	0	8212	526996	0	0
2024-09-17 16:45:47			0	38736	0	0	0	24737	23330	155605	27396	1063000	46665	109139	0	0	8212	526929	0	0
2024-09-17 16:46:47			0	38755	0	0	0	24737	23330	155529	27568	1062974	46653	109139	0	0	8213	526205	0	0
2024-09-17 16:47:47			0	38751	0	0	0	24740	23330	155461	27462	1062920	46665	109140	0	0	8213	526358	0	0
2024-09-17 16:48:47			0	38767	0	0	0	24729	23330	155449	27345	1063027	46665	109136	0	0	8214	525749	0	0
2024-09-17 16:49:47			0	38776	0	0	0	24732	23320	155385	27345	1062938	46652	109137	0	0	8214	525436	0	0
2024-09-17 16:50:47			0	38779	0	0	0	24719	23310	155517	27627	1062893	46640	109132	0	0	8215	525352	0	0
2024-09-17 16:51:47			0	38777	0	0	0	24709	23320	155361	27597	1062938	46641	109128	0	0	8215	525398	0	0
2024-09-17 16:52:47			0	38782	0	0	0	24711	23330	155377	27675	1062929	46653	109129	0	0	8215	525179	0	0
2024-09-17 16:53:47			0	38740	0	0	0	24716	23330	155401	27672	1062902	46642	109131	0	0	8213	526776	0	0
2024-09-17 16:54:47			0	38751	0	0	0	24732	23320	155525	27779	1062885	46641	109137	0	0	8213	526387	0	0
2024-09-17 16:55:47			0	38757	0	0	0	24737	23320	155605	27595	1062831	46641	109139	0	0	8213	526159	0	0
2024-09-17 16:56:47			0	38752	0	0	0	24729	23320	155617	27460	1062938	46630	109136	0	0	8213	526349	0	0
2024-09-17 16:57:47			0	38764	0	0	0	24735	23320	155457	27402	1062965	46664	109138	0	0	8214	525893	0	0
2024-09-17 16:58:47			0	38791	0	0	0	24735	23320	155457	27395	1062938	46652	109138	0	0	8215	524866	0	0
2024-09-17 16:59:47			0	38781	0	0	0	24740	23330	155413	27613	1062920	46675	109140	0	0	8214	525217	0	0
2024-09-17 17:00:47			0	38782	0	0	0	24748	23330	155377	27838	1062929	46665	109143	0	0	8214	525179	0	0
2024-09-17 17:01:47			0	38785	0	0	0	24732	23330	155357	27493	1062974	46653	109137	0	0	8215	525065	0	0
2024-09-17 17:02:47			0	38791	0	0	0	24735	23330	155261	27741	1062983	46665	109138	0	0	8215	524837	0	0
2024-09-17 17:03:47			0	38793	0	0	0	24740	23330	155317	27564	1062929	46653	109140	0	0	8215	524761	0	0
2024-09-17 17:04:47			0	38793	0	0	0	24742	23320	155377	27789	1062965	46641	109141	0	0	8215	524790	0	0
2024-09-17 17:05:47			0	38796	0	0	0	24740	23330	155309	27731	1062920	46653	109140	0	0	8215	524647	0	0
2024-09-17 17:06:47			0	38787	0	0	0	24740	23330	155381	27706	1063009	46653	109140	0	0	8215	524989	0	0
2024-09-17 17:07:47			0	38781	0	0	0	24732	23330	155441	27507	1062956	46653	109137	0	0	8215	525217	0	0
2024-09-17 17:08:47			0	38783	0	0	0	24735	23330	155381	27798	1062974	46642	109138	0	0	8215	525141	0	0
2024-09-17 17:09:47			0	38782	0	0	0	24737	23330	155413	27540	1062893	46653	109139	0	0	8215	525179	0	0
2024-09-17 17:10:47			0	38794	0	0	0	24737	23320	155345	27592	1062991	46652	109139	0	0	8215	524752	0	0
2024-09-17 17:11:47			0	38785	0	0	0	24727	23330	155365	27665	1062929	46653	109135	0	0	8215	525065	0	0
2024-09-17 17:12:47			0	38787	0	0	0	24716	23320	155313	27673	1062938	46641	109131	0	0	8215	525018	0	0
2024-09-17 17:13:47			0	38793	0	0	0	24716	23330	155397	27677	1062902	46653	109131	0	0	8216	524761	0	0
2024-09-17 17:14:47			0	38786	0	0	0	24709	23320	155413	27452	1062885	46641	109128	0	0	8215	525056	0	0
2024-09-17 17:15:47			0	38789	0	0	0	24719	23320	155417	27627	1062938	46652	109132	0	0	8215	524942	0	0
2024-09-17 17:16:47			0	38777	0	0	0	24724	23320	155385	27687	1062911	46641	109134	0	0	8214	525398	0	0
2024-09-17 17:17:47			0	38799	0	0	0	24719	23320	155417	27644	1062902	46651	109132	0	0	8216	524563	0	0
2024-09-17 17:18:47			0	38795	0	0	0	24722	23320	155453	27814	1062885	46641	109133	0	0	8216	524715	0	0
2024-09-17 17:19:47			0	38789	0	0	0	24732	23310	155345	27450	1062893	46651	109137	0	0	8215	524972	0	0
2024-09-17 17:20:47			0	38789	0	0	0	24719	23330	155389	27438	1062893	46642	109132	0	0	8215	524913	0	0
2024-09-17 17:21:47			0	38793	0	0	0	24716	23310	155377	27239	1062884	46640	109131	0	0	8215	524820	0	0
2024-09-17 17:22:47			0	38786	0	0	0	24709	23310	155377	27353	1062920	46640	109128	0	0	8215	525086	0	0
2024-09-17 17:23:47			0	38795	0	0	0	24711	23320	155405	27644	1062902	46651	109129	0	0	8216	524715	0	0
2024-09-17 17:24:47			0	38810	0	0	0	24696	23300	155277	27386	1062875	46650	109123	0	0	8217	524204	0	0
2024-09-17 17:25:47			0	38813	0	0	0	24690	23320	155313	27377	1062876	46663	109121	0	0	8217	524031	0	0
2024-09-17 17:26:47			0	38795	0	0	0	24662	23310	155309	27776	1062786	46663	109110	0	0	8217	524744	0	0
2024-09-17 17:27:47			0	38790	0	0	0	24631	23300	155369	27421	1062768	46639	109098	0	0	8217	524963	0	0
2024-09-17 17:28:47			0	38776	0	0	0	24628	23310	155393	27384	1062750	46651	109097	0	0	8216	525466	0	0
2024-09-17 17:29:47			0	38753	0	0	0	24646	23300	155609	27223	1062759	46638	109104	0	0	8214	526370	0	0
2024-09-17 17:30:47			0	38689	0	0	0	24654	23300	155692	27646	1062741	46628	109107	0	0	8210	528809	0	0
2024-09-17 17:31:47			0	38691	0	0	0	24644	23290	155716	27725	1062688	46638	109103	0	0	8211	528762	0	0
2024-09-17 17:32:47			0	38678	0	0	0	24636	23290	155860	27524	1062697	46649	109100	0	0	8210	529259	0	0
2024-09-17 17:33:47			0	38660	0	0	0	24610	23290	155828	27331	1062634	46638	109090	0	0	8210	529946	0	0
2024-09-17 17:34:47			0	38668	0	0	0	24602	23280	156008	27516	1062616	46636	109087	0	0	8210	529670	0	0
2024-09-17 17:35:47			0	38638	0	0	0	24610	23280	156044	27621	1062590	46636	109090	0	0	8208	530817	0	0
2024-09-17 17:36:47			0	38633	0	0	0	24615	23260	156012	27372	1062536	46635	109092	0	0	8208	531068	0	0
2024-09-17 17:37:47			0	38598	0	0	0	24612	23260	156088	27275	1062483	46646	109091	0	0	8206	532408	0	0
2024-09-17 17:38:47			0	38597	0	0	0	24612	23260	156120	27564	1062554	46634	109091	0	0	8206	532447	0	0
2024-09-17 17:39:47			0	38580	0	0	0	24620	23260	156156	27621	1062509	46635	109094	0	0	8205	533098	0	0
2024-09-17 17:40:47			0	38578	0	0	0	24618	23260	156140	27791	1062527	46634	109093	0	0	8205	533175	0	0
2024-09-17 17:41:47			0	38575	0	0	0	24584	23250	156216	27504	1062438	46623	109080	0	0	8205	533320	0	0
2024-09-17 17:42:47			0	38585	0	0	0	24581	23240	156180	27478	1062420	46623	109079	0	0	8205	532967	0	0
2024-09-17 17:43:47			0	38564	0	0	0	24584	23250	156204	27550	1062429	46623	109080	0	0	8204	533742	0	0
2024-09-17 17:44:47			0	38563	0	0	0	24553	23230	156320	27263	1062348	46631	109068	0	0	8205	533841	0	0
2024-09-17 17:45:47			0	38552	0	0	0	24524	23240	156284	27689	1062384	46622	109057	0	0	8205	534233	0	0
2024-09-17 17:46:47			0	38550	0	0	0	24550	23220	156340	27528	1062277	46621	109067	0	0	8204	534370	0	0
2024-09-17 17:47:47			0	38520	0	0	0	24516	23220	156444	27504	1062250	46621	109054	0	0	8203	535523	0	0
2024-09-17 17:48:47			0	38504	0	0	0	24496	23210	156452	27460	1062232	46640	109046	0	0	8202	536168	0	0
2024-09-17 17:49:47			0	38494	0	0	0	24496	23200	156512	27561	1062161	46606	109046	0	0	8201	536584	0	0
2024-09-17 17:50:47			0	38500	0	0	0	24490	23200	156700	27483	1062161	46618	109044	0	0	8202	536353	0	0
2024-09-17 17:51:47			0	38464	0	0	0	24485	23180	156704	27435	1062071	46604	109042	0	0	8200	537800	0	0
2024-09-17 17:52:47			0	38457	0	0	0	24483	23180	156816	27602	1062036	46604	109041	0	0	8199	538070	0	0
2024-09-17 17:53:47			0	38432	0	0	0	24501	23160	156816	27649	1062009	46614	109048	0	0	8198	539095	0	0
2024-09-17 17:54:47			0	38427	0	0	0	24490	23160	156920	27438	1061982	46614	109044	0	0	8197	539289	0	0
2024-09-17 17:55:47			0	38411	0	0	0	24477	23150	156916	27727	1061946	46614	109039	0	0	8197	539937	0	0
2024-09-17 17:56:47			0	38421	0	0	0	24483	23150	156968	27426	1061991	46613	109041	0	0	8197	539551	0	0
2024-09-17 17:57:47			0	38384	0	0	0	24480	23140	157024	27414	1062000	46611	109040	0	0	8195	541012	0	0
2024-09-17 17:58:47			0	38399	0	0	0	24483	23130	156976	27633	1061928	46611	109041	0	0	8196	540462	0	0
2024-09-17 17:59:47			0	38386	0	0	0	24459	23140	157100	27732	1061866	46632	109032	0	0	8196	540935	0	0
2024-09-17 18:00:47			0	38381	0	0	0	24462	23120	157132	27334	1061777	46620	109033	0	0	8195	541189	0	0
2024-09-17 18:01:47			0	38365	0	0	0	24467	23110	157160	27588	1061732	46609	109035	0	0	8194	541839	0	0
2024-09-17 18:02:47			0	38382	0	0	0	24459	23100	157172	27381	1061803	46608	109032	0	0	8195	541211	0	0
2024-09-17 18:03:47			0	38370	0	0	0	24464	23100	157236	27341	1061741	46595	109034	0	0	8194	541676	0	0
2024-09-17 18:04:47			0	38362	0	0	0	24454	23100	157272	27326	1061714	46618	109030	0	0	8194	541986	0	0
2024-09-17 18:05:47			0	38350	0	0	0	24464	23090	157284	27483	1061723	46606	109034	0	0	8193	542481	0	0
2024-09-17 18:06:47			0	38346	0	0	0	24449	23090	157324	27646	1061705	46618	109028	0	0	8193	542636	0	0
2024-09-17 18:07:47			0	38354	0	0	0	24451	23090	157340	27588	1061643	46618	109029	0	0	8194	542326	0	0
2024-09-17 18:08:47			0	38330	0	0	0	24457	23090	157312	27481	1061678	46618	109031	0	0	8192	543257	0	0
2024-09-17 18:09:47			0	38339	0	0	0	24459	23080	157316	27595	1061634	46627	109032	0	0	8193	542938	0	0
2024-09-17 18:10:47			0	38349	0	0	0	24451	23070	157400	27215	1061714	46604	109029	0	0	8193	542581	0	0
2024-09-17 18:11:47			0	38337	0	0	0	24462	23070	157424	27493	1061696	46626	109033	0	0	8192	543046	0	0
2024-09-17 18:12:47			0	38336	0	0	0	24457	23060	157464	27393	1061651	46636	109031	0	0	8192	543116	0	0
2024-09-17 18:13:47			0	38352	0	0	0	24459	23060	157392	27258	1061615	46614	109032	0	0	8193	542495	0	0
2024-09-17 18:14:47			0	38321	0	0	0	24451	23070	157368	27421	1061634	46625	109029	0	0	8192	543668	0	0
2024-09-17 18:15:47			0	38314	0	0	0	24438	23060	157436	27705	1061651	46625	109024	0	0	8191	543970	0	0
2024-09-17 18:16:47			0	38318	0	0	0	24433	23060	157448	27301	1061624	46625	109022	0	0	8192	543815	0	0
2024-09-17 18:17:47			0	38307	0	0	0	24436	23060	157488	27552	1061589	46602	109023	0	0	8191	544242	0	0
2024-09-17 18:18:47			0	38302	0	0	0	24431	23050	157492	27500	1061580	46624	109021	0	0	8191	544467	0	0
2024-09-17 18:19:47			0	38299	0	0	0	24423	23060	157452	27301	1061535	46614	109018	0	0	8191	544553	0	0
2024-09-17 18:20:47			0	38294	0	0	0	24425	23050	157488	27457	1061553	46613	109019	0	0	8190	544778	0	0
2024-09-17 18:21:47			0	38283	0	0	0	24436	23040	157488	27346	1061508	46613	109023	0	0	8189	545236	0	0
2024-09-17 18:22:47			0	38296	0	0	0	24436	23050	157524	27445	1061517	46590	109023	0	0	8190	544700	0	0
2024-09-17 18:23:47			0	38274	0	0	0	24428	23050	157596	27336	1061544	46624	109020	0	0	8189	545556	0	0
2024-09-17 18:24:47			0	38273	0	0	0	24433	23050	157596	27284	1061517	46624	109022	0	0	8189	545595	0	0
2024-09-17 18:25:47			0	38282	0	0	0	24425	23040	157556	27306	1061508	46601	109019	0	0	8190	545275	0	0
2024-09-17 18:26:47			0	38261	0	0	0	24431	23040	157676	27194	1061508	46613	109021	0	0	8188	546092	0	0
2024-09-17 18:27:47			0	38258	0	0	0	24433	23040	157704	27389	1061473	46612	109022	0	0	8188	546209	0	0
2024-09-17 18:28:47			0	38259	0	0	0	24438	23040	157676	27443	1061508	46613	109024	0	0	8188	546170	0	0
2024-09-17 18:29:47			0	38254	0	0	0	24436	23040	157728	27225	1061499	46623	109023	0	0	8188	546365	0	0
2024-09-17 18:30:47			0	38259	0	0	0	24436	23040	157612	27390	1061588	46634	109023	0	0	8188	546170	0	0
2024-09-17 18:31:47			0	38261	0	0	0	24438	23040	157640	27218	1061526	46612	109024	0	0	8188	546092	0	0
2024-09-17 18:32:47			0	38278	0	0	0	24428	23040	157628	27319	1061499	46612	109020	0	0	8189	545431	0	0
2024-09-17 18:33:47			0	38259	0	0	0	24418	23040	157664	27182	1061473	46612	109016	0	0	8188	546170	0	0
2024-09-17 18:34:47			0	38296	0	0	0	24410	23030	157696	27220	1061464	46599	109013	0	0	8191	544761	0	0
2024-09-17 18:35:47			0	38272	0	0	0	24405	23030	157584	26961	1061464	46611	109011	0	0	8189	545695	0	0
2024-09-17 18:36:47			0	38284	0	0	0	24410	23020	157664	27343	1061463	46598	109013	0	0	8190	545258	0	0
2024-09-17 18:37:47			0	38272	0	0	0	24402	23030	157712	27251	1061481	46622	109010	0	0	8189	545695	0	0
2024-09-17 18:38:47			0	38280	0	0	0	24405	23030	157668	27360	1061464	46611	109011	0	0	8190	545383	0	0
2024-09-17 18:39:47			0	38283	0	0	0	24392	23030	157640	27197	1061401	46611	109006	0	0	8190	545267	0	0
2024-09-17 18:40:47			0	38280	0	0	0	24392	23010	157608	27307	1061348	46609	109006	0	0	8190	545445	0	0
2024-09-17 18:41:47			0	38269	0	0	0	24392	23020	157672	27005	1061330	46610	109006	0	0	8189	545842	0	0
2024-09-17 18:42:47			0	38255	0	0	0	24386	23010	157752	27377	1061365	46609	109004	0	0	8189	546418	0	0
2024-09-17 18:43:47			0	38240	0	0	0	24386	23010	157784	27459	1061348	46609	109004	0	0	8188	547003	0	0
2024-09-17 18:44:47			0	38251	0	0	0	24394	23010	157724	27244	1061365	46609	109007	0	0	8188	546574	0	0
2024-09-17 18:45:47			0	38231	0	0	0	24379	23000	157768	27223	1061330	46596	109001	0	0	8187	547384	0	0
2024-09-17 18:46:47			0	38243	0	0	0	24386	22990	157740	27357	1061329	46607	109004	0	0	8188	546947	0	0
2024-09-17 18:47:47			0	38219	0	0	0	24379	23000	157792	27535	1061303	46608	109001	0	0	8187	547852	0	0
2024-09-17 18:48:47			0	38216	0	0	0	24376	22990	157944	27428	1061258	46618	109000	0	0	8186	548000	0	0
2024-09-17 18:49:47			0	38233	0	0	0	24379	22990	157944	27071	1061258	46607	109001	0	0	8187	547337	0	0
2024-09-17 18:50:47			0	38193	0	0	0	24368	22990	157892	27384	1061232	46607	108997	0	0	8185	548898	0	0
2024-09-17 18:51:47			0	38190	0	0	0	24366	23000	157904	27566	1061267	46608	108996	0	0	8185	548985	0	0
2024-09-17 18:52:47			0	38207	0	0	0	24366	22980	157944	27161	1061187	46617	108996	0	0	8186	548382	0	0
2024-09-17 18:53:47			0	38189	0	0	0	24358	22990	157916	27599	1061223	46607	108993	0	0	8185	549055	0	0
2024-09-17 18:54:47			0	38207	0	0	0	24363	22980	157932	27152	1061285	46594	108995	0	0	8186	548382	0	0
2024-09-17 18:55:47			0	38211	0	0	0	24358	22970	157972	27384	1061196	46605	108993	0	0	8186	548257	0	0
2024-09-17 18:56:47			0	38210	0	0	0	24348	22980	157900	27256	1061187	46606	108989	0	0	8186	548265	0	0
2024-09-17 18:57:47			0	38206	0	0	0	24348	22980	157836	27497	1061178	46606	108989	0	0	8186	548421	0	0
2024-09-17 18:58:47			0	38220	0	0	0	24348	22970	157896	27391	1061107	46605	108989	0	0	8187	547906	0	0
2024-09-17 18:59:47			0	38214	0	0	0	24348	22960	157928	27105	1061071	46592	108989	0	0	8187	548170	0	0
2024-09-17 19:00:47			0	38233	0	0	0	24340	22960	157932	27514	1061142	46614	108986	0	0	8188	547429	0	0
2024-09-17 19:01:47			0	38232	0	0	0	24348	22950	157840	27246	1061080	46603	108989	0	0	8188	547499	0	0
2024-09-17 19:02:47			0	38233	0	0	0	24337	22940	157812	27543	1061008	46590	108985	0	0	8188	547490	0	0
2024-09-17 19:03:47			0	38233	0	0	0	24329	22940	157944	27230	1061061	46590	108982	0	0	8188	547490	0	0
2024-09-17 19:04:47			0	38234	0	0	0	24340	22940	157816	27334	1061026	46589	108986	0	0	8188	547451	0	0
2024-09-17 19:05:47			0	38211	0	0	0	24337	22940	157972	27312	1061052	46589	108985	0	0	8187	548349	0	0
2024-09-17 19:06:47			0	38204	0	0	0	24324	22940	157908	27620	1061026	46589	108980	0	0	8186	548623	0	0
2024-09-17 19:07:47			0	38204	0	0	0	24324	22930	157924	27582	1061008	46600	108980	0	0	8186	548653	0	0
2024-09-17 19:08:47			0	38189	0	0	0	24322	22930	158036	27345	1061008	46600	108979	0	0	8185	549239	0	0
2024-09-17 19:09:47			0	38185	0	0	0	24319	22930	158032	27371	1060954	46611	108978	0	0	8185	549396	0	0
2024-09-17 19:10:47			0	38180	0	0	0	24311	22920	158012	27246	1060945	46588	108975	0	0	8185	549622	0	0
2024-09-17 19:11:47			0	38173	0	0	0	24311	22930	158156	27379	1060981	46588	108975	0	0	8185	549865	0	0
2024-09-17 19:12:47			0	38184	0	0	0	24311	22920	158068	27076	1060972	46588	108975	0	0	8185	549466	0	0
2024-09-17 19:13:47			0	38182	0	0	0	24311	22920	158052	27353	1060990	46599	108975	0	0	8185	549544	0	0
2024-09-17 19:14:47			0	38201	0	0	0	24306	22920	158048	27346	1060963	46610	108973	0	0	8186	548801	0	0
2024-09-17 19:15:47			0	38179	0	0	0	24288	22910	158060	26896	1060901	46610	108966	0	0	8185	549692	0	0
2024-09-17 19:16:47			0	38191	0	0	0	24280	22910	158068	27263	1060901	46587	108963	0	0	8186	549223	0	0
2024-09-17 19:17:47			0	38179	0	0	0	24280	22910	158064	27171	1060838	46598	108963	0	0	8185	549692	0	0
2024-09-17 19:18:47			0	38199	0	0	0	24285	22910	157944	26955	1060785	46586	108965	0	0	8187	548910	0	0
2024-09-17 19:19:47			0	38198	0	0	0	24288	22900	158080	27327	1060847	46597	108966	0	0	8186	548980	0	0
2024-09-17 19:20:47			0	38222	0	0	0	24293	22900	157964	27431	1060749	46598	108968	0	0	8188	548043	0	0
2024-09-17 19:21:47			0	38201	0	0	0	24280	22900	158000	27168	1060847	46585	108963	0	0	8187	548863	0	0
2024-09-17 19:22:47			0	38216	0	0	0	24285	22890	158036	27426	1060749	46607	108965	0	0	8187	548308	0	0
2024-09-17 19:23:47			0	38215	0	0	0	24280	22890	158048	27175	1060722	46584	108963	0	0	8187	548346	0	0
2024-09-17 19:24:47			0	38210	0	0	0	24293	22880	158120	27249	1060705	46595	108968	0	0	8187	548573	0	0
2024-09-17 19:25:47			0	38193	0	0	0	24280	22880	158228	27339	1060740	46607	108963	0	0	8186	549237	0	0
2024-09-17 19:26:47			0	38170	0	0	0	24285	22890	158140	27486	1060758	46596	108965	0	0	8185	550106	0	0
2024-09-17 19:27:47			0	38185	0	0	0	24280	22880	158160	27109	1060740	46607	108963	0	0	8186	549550	0	0
2024-09-17 19:28:47			0	38184	0	0	0	24272	22880	158232	27329	1060660	46596	108960	0	0	8186	549589	0	0
2024-09-17 19:29:47			0	38176	0	0	0	24236	22880	158104	26894	1060731	46617	108946	0	0	8186	549902	0	0
2024-09-17 19:30:47			0	38162	0	0	0	24215	22880	158184	27182	1060651	46583	108938	0	0	8185	550450	0	0
2024-09-17 19:31:47			0	38118	0	0	0	24225	22870	158316	27312	1060535	46593	108942	0	0	8183	552205	0	0
2024-09-17 19:32:47			0	38157	0	0	0	24244	22860	158256	27549	1060624	46582	108949	0	0	8185	550707	0	0
2024-09-17 19:33:47			0	38171	0	0	0	24233	22850	158132	27282	1060589	46604	108945	0	0	8186	550190	0	0
2024-09-17 19:34:47			0	38198	0	0	0	24215	22850	158176	27429	1060589	46592	108938	0	0	8187	549134	0	0
2024-09-17 19:35:47			0	38190	0	0	0	24197	22840	158052	27239	1060464	46591	108931	0	0	8187	549477	0	0
2024-09-17 19:36:47			0	38188	0	0	0	24197	22830	157996	27476	1060446	46580	108931	0	0	8187	549586	0	0
2024-09-17 19:37:47			0	38214	0	0	0	24189	22830	157976	27209	1060446	46580	108928	0	0	8189	548570	0	0
2024-09-17 19:38:47			0	38228	0	0	0	24181	22820	157916	27319	1060374	46567	108925	0	0	8190	548054	0	0
2024-09-17 19:39:47			0	38240	0	0	0	24186	22820	157852	27384	1060348	46578	108927	0	0	8190	547585	0	0
2024-09-17 19:40:47			0	38251	0	0	0	24184	22810	157996	27180	1060347	46577	108926	0	0	8191	547187	0	0
2024-09-17 19:41:47			0	38203	0	0	0	24166	22810	158020	26920	1060294	46587	108919	0	0	8188	549061	0	0
2024-09-17 19:42:47			0	38138	0	0	0	24179	22790	158344	27100	1060267	46576	108924	0	0	8184	551668	0	0
2024-09-17 19:43:47			0	38087	0	0	0	24176	22800	158540	27486	1060302	46586	108923	0	0	8181	553639	0	0
2024-09-17 19:44:47			0	38119	0	0	0	24171	22790	158332	27419	1060258	46585	108921	0	0	8183	552413	0	0
2024-09-17 19:45:47			0	38091	0	0	0	24176	22780	158496	27215	1060276	46584	108923	0	0	8182	553544	0	0
2024-09-17 19:46:47			0	38058	0	0	0	24181	22790	158632	27384	1060267	46598	108925	0	0	8180	554810	0	0
2024-09-17 19:47:47			0	38058	0	0	0	24176	22780	158612	27173	1060222	46596	108923	0	0	8180	554841	0	0
2024-09-17 19:48:47			0	38078	0	0	0	24186	22780	158616	27237	1060267	46584	108927	0	0	8181	554055	0	0
2024-09-17 19:49:47			0	38078	0	0	0	24192	22780	158612	27046	1060249	46596	108929	0	0	8180	554055	0	0
2024-09-17 19:50:47			0	38060	0	0	0	24197	22770	158604	27171	1060204	46583	108931	0	0	8179	554794	0	0
2024-09-17 19:51:47			0	38069	0	0	0	24194	22790	158628	27327	1060285	46608	108930	0	0	8180	554377	0	0
2024-09-17 19:52:47			0	38064	0	0	0	24202	22780	158664	27371	1060267	46584	108933	0	0	8180	554605	0	0
2024-09-17 19:53:47			0	38075	0	0	0	24194	22780	158616	27405	1060267	46584	108930	0	0	8180	554173	0	0
2024-09-17 19:54:47			0	38078	0	0	0	24194	22780	158620	27211	1060320	46596	108930	0	0	8180	554055	0	0
2024-09-17 19:55:47			0	38075	0	0	0	24197	22780	158456	27516	1060276	46584	108931	0	0	8180	554173	0	0
2024-09-17 19:56:47			0	38069	0	0	0	24205	22780	158608	27372	1060276	46607	108934	0	0	8180	554408	0	0
2024-09-17 19:57:47			0	38034	0	0	0	24192	22780	158804	26932	1060293	46607	108929	0	0	8178	555786	0	0
2024-09-17 19:58:47			0	38009	0	0	0	24189	22780	158823	27348	1060276	46584	108928	0	0	8177	556772	0	0
2024-09-17 19:59:47			0	37944	0	0	0	24186	22780	158959	26885	1060276	46596	108927	0	0	8173	559339	0	0
2024-09-17 20:00:47			0	37962	0	0	0	24184	22780	159059	27213	1060213	46584	108926	0	0	8174	558627	0	0
2024-09-17 20:01:47			0	37941	0	0	0	24186	22780	159147	27488	1060293	46584	108927	0	0	8173	559458	0	0
2024-09-17 20:02:47			0	37925	0	0	0	24181	22780	159175	27282	1060240	46596	108925	0	0	8172	560091	0	0
2024-09-17 20:03:47			0	37919	0	0	0	24171	22770	159183	27201	1060249	46583	108921	0	0	8172	560360	0	0
2024-09-17 20:04:47			0	37940	0	0	0	24173	22780	158979	27197	1060320	46574	108922	0	0	8173	559497	0	0
2024-09-17 20:05:47			0	37951	0	0	0	24171	22770	159095	27443	1060231	46583	108921	0	0	8173	559093	0	0
2024-09-17 20:06:47			0	37951	0	0	0	24163	22770	159031	27138	1060249	46573	108918	0	0	8174	559093	0	0
2024-09-17 20:07:47			0	37961	0	0	0	24163	22770	159055	27241	1060258	46562	108918	0	0	8174	558698	0	0
2024-09-17 20:08:47			0	37961	0	0	0	24158	22770	158975	27170	1060169	46573	108916	0	0	8174	558698	0	0
2024-09-17 20:09:47			0	37958	0	0	0	24163	22760	158915	27237	1060133	46583	108918	0	0	8174	558848	0	0
2024-09-17 20:10:47			0	37967	0	0	0	24145	22760	158947	27202	1060151	46593	108911	0	0	8175	558492	0	0
2024-09-17 20:11:47			0	37958	0	0	0	24142	22750	158895	27038	1060026	46571	108910	0	0	8174	558879	0	0
2024-09-17 20:12:47			0	37985	0	0	0	24124	22750	158851	27114	1060106	46582	108903	0	0	8176	557812	0	0
2024-09-17 20:13:47			0	38008	0	0	0	24114	22740	158791	27147	1060044	46581	108899	0	0	8178	556936	0	0
2024-09-17 20:14:47			0	38012	0	0	0	24106	22740	158819	26998	1060017	46570	108896	0	0	8178	556778	0	0
2024-09-17 20:15:47			0	38051	0	0	0	24106	22740	158708	26974	1060008	46580	108896	0	0	8180	555241	0	0
2024-09-17 20:16:47			0	38073	0	0	0	24103	22730	158568	27039	1059937	46569	108895	0	0	8181	554406	0	0
2024-09-17 20:17:47			0	38075	0	0	0	24103	22730	158576	27180	1059990	46569	108895	0	0	8182	554328	0	0
2024-09-17 20:18:47			0	38093	0	0	0	24103	22720	158512	27308	1059919	46567	108895	0	0	8183	553651	0	0
2024-09-17 20:19:47			0	38095	0	0	0	24109	22720	158520	27213	1059892	46578	108897	0	0	8183	553572	0	0
2024-09-17 20:20:47			0	38106	0	0	0	24093	22710	158516	27286	1059910	46567	108891	0	0	8183	553171	0	0
2024-09-17 20:21:47			0	38115	0	0	0	24098	22720	158448	27365	1059919	46556	108893	0	0	8184	552787	0	0
2024-09-17 20:22:47			0	38131	0	0	0	24090	22710	158284	27322	1059936	46578	108890	0	0	8185	552190	0	0
2024-09-17 20:23:47			0	38157	0	0	0	24103	22700	158316	27435	1059856	46576	108895	0	0	8186	551201	0	0
2024-09-17 20:24:47			0	38165	0	0	0	24101	22700	158260	27270	1059945	46577	108894	0	0	8187	550887	0	0
2024-09-17 20:25:47			0	38174	0	0	0	24093	22710	158252	27218	1059874	46578	108891	0	0	8187	550504	0	0
2024-09-17 20:26:47			0	38186	0	0	0	24090	22700	158228	27152	1059883	46576	108890	0	0	8188	550065	0	0
2024-09-17 20:27:47			0	38169	0	0	0	24085	22690	158216	27343	1059794	46564	108888	0	0	8187	550761	0	0
2024-09-17 20:28:47			0	38156	0	0	0	24093	22700	158228	27199	1059856	46576	108891	0	0	8186	551240	0	0
2024-09-17 20:29:47			0	38171	0	0	0	24085	22690	158332	27097	1059811	46575	108888	0	0	8187	550683	0	0
2024-09-17 20:30:47			0	38163	0	0	0	24077	22690	158372	27220	1059820	46564	108885	0	0	8187	550997	0	0
2024-09-17 20:31:47			0	38158	0	0	0	24085	22680	158256	27386	1059776	46575	108888	0	0	8187	551223	0	0
2024-09-17 20:32:47			0	38162	0	0	0	24075	22690	158328	26897	1059767	46564	108884	0	0	8187	551036	0	0
2024-09-17 20:33:47			0	38167	0	0	0	24080	22690	158296	27083	1059785	46564	108886	0	0	8187	550840	0	0
2024-09-17 20:34:47			0	38176	0	0	0	24077	22690	158328	27149	1059758	46564	108885	0	0	8188	550487	0	0
2024-09-17 20:35:47			0	38161	0	0	0	24080	22680	158308	27303	1059722	46575	108886	0	0	8187	551106	0	0
2024-09-17 20:36:47			0	38151	0	0	0	24080	22680	158196	27225	1059749	46575	108886	0	0	8186	551498	0	0
2024-09-17 20:37:47			0	38172	0	0	0	24064	22670	158176	27088	1059784	46562	108880	0	0	8188	550705	0	0
2024-09-17 20:38:47			0	38175	0	0	0	24057	22670	158308	27253	1059704	46583	108877	0	0	8188	550588	0	0
2024-09-17 20:39:47			0	38159	0	0	0	24054	22670	158300	26932	1059642	46573	108876	0	0	8187	551215	0	0
2024-09-17 20:40:47			0	38151	0	0	0	24049	22660	158220	27364	1059704	46561	108874	0	0	8187	551559	0	0
2024-09-17 20:41:47			0	38145	0	0	0	24041	22670	158380	27260	1059651	46583	108871	0	0	8186	551764	0	0
2024-09-17 20:42:47			0	38133	0	0	0	24054	22670	158420	26972	1059695	46573	108876	0	0	8186	552235	0	0
2024-09-17 20:43:47			0	38144	0	0	0	24044	22670	158376	27410	1059731	46562	108872	0	0	8186	551803	0	0
2024-09-17 20:44:47			0	38138	0	0	0	24036	22660	158340	27187	1059597	46572	108869	0	0	8186	552069	0	0
2024-09-17 20:45:47			0	38126	0	0	0	24012	22660	158424	27131	1059606	46573	108860	0	0	8186	552540	0	0
2024-09-17 20:46:47			0	38132	0	0	0	24018	22650	158456	27350	1059526	46549	108862	0	0	8186	552336	0	0
2024-09-17 20:47:47			0	38121	0	0	0	24020	22650	158548	27324	1059508	46571	108863	0	0	8185	552768	0	0
2024-09-17 20:48:47			0	38106	0	0	0	24028	22640	158576	27064	1059517	46571	108866	0	0	8184	553388	0	0
2024-09-17 20:49:47			0	38104	0	0	0	24012	22630	158704	27230	1059499	46558	108860	0	0	8184	553497	0	0
2024-09-17 20:50:47			0	38104	0	0	0	24023	22630	158692	27220	1059517	46579	108864	0	0	8184	553497	0	0
2024-09-17 20:51:47			0	38089	0	0	0	24018	22640	158716	27537	1059562	46570	108862	0	0	8183	554056	0	0
2024-09-17 20:52:47			0	38066	0	0	0	24023	22640	158784	27213	1059490	46582	108864	0	0	8182	554961	0	0
2024-09-17 20:53:47			0	38091	0	0	0	24031	22630	158768	27334	1059526	46558	108867	0	0	8183	554009	0	0
2024-09-17 20:54:47			0	38044	0	0	0	24023	22630	158948	27159	1059526	46558	108864	0	0	8181	555859	0	0
2024-09-17 20:55:47			0	38062	0	0	0	23997	22620	158856	27317	1059508	46557	108854	0	0	8182	555181	0	0
2024-09-17 20:56:47			0	38074	0	0	0	24005	22630	158736	27220	1059464	46557	108857	0	0	8183	554677	0	0
2024-09-17 20:57:47			0	38097	0	0	0	24023	22630	158800	27166	1059464	46568	108864	0	0	8184	553773	0	0
2024-09-17 20:58:47			0	38073	0	0	0	24020	22620	158692	26982	1059481	46568	108863	0	0	8182	554748	0	0
2024-09-17 20:59:47			0	38087	0	0	0	24023	22620	158780	27256	1059419	46557	108864	0	0	8183	554197	0	0
2024-09-17 21:00:47			0	38102	0	0	0	24015	22620	158720	27107	1059472	46568	108861	0	0	8184	553607	0	0
2024-09-17 21:01:47			0	38119	0	0	0	24012	22630	158676	27218	1059499	46558	108860	0	0	8185	552908	0	0
2024-09-17 21:02:47			0	38126	0	0	0	24007	22620	158736	27093	1059535	46579	108858	0	0	8186	552664	0	0
2024-09-17 21:03:47			0	38032	0	0	0	24002	22610	158996	27251	1059357	46567	108856	0	0	8180	556394	0	0
2024-09-17 21:04:47			0	38083	0	0	0	23999	22610	158988	27098	1059437	46567	108855	0	0	8183	554385	0	0
2024-09-17 21:05:47			0	38067	0	0	0	23994	22620	158768	27334	1059366	46568	108853	0	0	8182	554984	0	0
2024-09-17 21:06:47			0	38080	0	0	0	23992	22610	158848	27022	1059374	46566	108852	0	0	8183	554503	0	0
2024-09-17 21:07:47			0	38102	0	0	0	23992	22610	158832	27196	1059294	46555	108852	0	0	8185	553638	0	0
2024-09-17 21:08:47			0	38085	0	0	0	23989	22600	158832	27248	1059312	46566	108851	0	0	8184	554338	0	0
2024-09-17 21:09:47			0	38106	0	0	0	23984	22600	158768	27265	1059330	46566	108849	0	0	8185	553512	0	0
2024-09-17 21:10:47			0	38116	0	0	0	23984	22600	158700	27370	1059276	46566	108849	0	0	8185	553119	0	0
2024-09-17 21:11:47			0	38118	0	0	0	23979	22590	158704	27689	1059321	46554	108847	0	0	8186	553071	0	0
2024-09-17 21:12:47			0	38128	0	0	0	23976	22600	158660	27331	1059312	46555	108846	0	0	8186	552647	0	0
2024-09-17 21:13:47			0	38122	0	0	0	23963	22590	158688	27144	1059294	46576	108841	0	0	8186	552914	0	0
2024-09-17 21:14:47			0	38122	0	0	0	23968	22590	158688	27235	1059312	46564	108843	0	0	8186	552914	0	0
2024-09-17 21:15:47			0	38124	0	0	0	23979	22570	158620	27185	1059205	46541	108847	0	0	8186	552897	0	0
2024-09-17 21:16:47			0	38148	0	0	0	23974	22580	158748	27441	1059267	46564	108845	0	0	8187	551924	0	0
2024-09-17 21:17:47			0	38131	0	0	0	23976	22570	158676	27481	1059258	46563	108846	0	0	8186	552622	0	0
2024-09-17 21:18:47			0	38153	0	0	0	23963	22570	158600	27414	1059178	46563	108841	0	0	8188	551759	0	0
2024-09-17 21:19:47			0	38139	0	0	0	23974	22580	158552	27353	1059267	46542	108845	0	0	8187	552277	0	0
2024-09-17 21:20:47			0	38146	0	0	0	23971	22570	158652	27495	1059258	46563	108844	0	0	8187	552033	0	0
2024-09-17 21:21:47			0	38156	0	0	0	23971	22570	158592	27246	1059178	46563	108844	0	0	8188	551641	0	0
2024-09-17 21:22:47			0	38149	0	0	0	23984	22580	158620	27585	1059276	46564	108849	0	0	8187	551885	0	0
2024-09-17 21:23:47			0	38137	0	0	0	23971	22580	158652	27672	1059223	46564	108844	0	0	8187	552356	0	0
2024-09-17 21:24:47			0	38154	0	0	0	23971	22560	158612	27327	1059169	46551	108844	0	0	8188	551750	0	0
2024-09-17 21:25:47			0	38143	0	0	0	23971	22570	158496	27718	1059231	46574	108844	0	0	8187	552151	0	0
2024-09-17 21:26:47			0	38150	0	0	0	23955	22560	158520	27474	1059142	46562	108838	0	0	8188	551907	0	0
2024-09-17 21:27:47			0	38166	0	0	0	23961	22560	158572	27298	1059142	46562	108840	0	0	8189	551280	0	0
2024-09-17 21:28:47			0	38154	0	0	0	23950	22560	158588	27211	1059160	46561	108836	0	0	8188	551750	0	0
2024-09-17 21:29:47			0	38145	0	0	0	23958	22560	158576	27547	1059222	46562	108839	0	0	8187	552103	0	0
2024-09-17 21:30:47			0	38144	0	0	0	23953	22560	158564	27085	1059169	46551	108837	0	0	8187	552143	0	0
2024-09-17 21:31:47			0	38152	0	0	0	23937	22560	158600	27517	1059107	46550	108831	0	0	8188	551829	0	0
2024-09-17 21:32:47			0	38147	0	0	0	23929	22560	158560	27443	1059133	46550	108828	0	0	8188	552025	0	0
2024-09-17 21:33:47			0	38122	0	0	0	23916	22550	158664	27244	1059089	46550	108823	0	0	8187	553038	0	0
2024-09-17 21:34:47			0	38118	0	0	0	23914	22550	158672	27279	1059098	46550	108822	0	0	8186	553195	0	0
2024-09-17 21:35:47			0	38127	0	0	0	23935	22540	158628	27398	1059053	46549	108830	0	0	8187	552872	0	0
2024-09-17 21:36:47			0	38112	0	0	0	23935	22550	158704	27602	1059062	46561	108830	0	0	8186	553431	0	0
2024-09-17 21:37:47			0	38130	0	0	0	23945	22540	158736	27753	1059106	46549	108834	0	0	8187	552754	0	0
2024-09-17 21:38:47			0	38118	0	0	0	23955	22540	158664	27020	1059106	46571	108838	0	0	8186	553226	0	0
2024-09-17 21:39:47			0	38135	0	0	0	23948	22540	158716	27355	1059106	46560	108835	0	0	8187	552558	0	0
2024-09-17 21:40:47			0	38131	0	0	0	23942	22530	158728	27284	1059062	46559	108833	0	0	8187	552746	0	0
2024-09-17 21:41:47			0	38116	0	0	0	23932	22540	158692	27315	1059071	46559	108829	0	0	8186	553304	0	0
2024-09-17 21:42:47			0	38137	0	0	0	23942	22540	158584	27306	1059053	46571	108833	0	0	8187	552479	0	0
2024-09-17 21:43:47			0	38131	0	0	0	23935	22540	158708	27519	1059071	46570	108830	0	0	8187	552715	0	0
2024-09-17 21:44:47			0	38126	0	0	0	23945	22530	158680	27239	1059053	46570	108834	0	0	8186	552942	0	0
2024-09-17 21:45:47			0	38128	0	0	0	23935	22540	158720	27395	1059044	46559	108830	0	0	8187	552833	0	0
2024-09-17 21:46:47			0	38124	0	0	0	23953	22540	158856	27466	1059017	46570	108837	0	0	8186	552990	0	0
2024-09-17 21:47:47			0	38117	0	0	0	23961	22540	158920	27580	1059026	46560	108840	0	0	8186	553265	0	0
2024-09-17 21:48:47			0	38112	0	0	0	23945	22540	158884	27471	1059071	46548	108834	0	0	8186	553462	0	0
2024-09-17 21:49:47			0	38117	0	0	0	23937	22530	158852	27972	1059062	46548	108831	0	0	8186	553296	0	0
2024-09-17 21:50:47			0	38107	0	0	0	23953	22540	158784	27481	1059053	46549	108837	0	0	8185	553658	0	0
2024-09-17 21:51:47			0	38098	0	0	0	23927	22530	158808	27561	1059026	46570	108827	0	0	8185	554043	0	0
2024-09-17 21:52:47			0	38114	0	0	0	23932	22540	158828	27562	1058991	46548	108829	0	0	8186	553383	0	0
2024-09-17 21:53:47			0	38109	0	0	0	23932	22530	158768	27485	1059035	46559	108829	0	0	8186	553610	0	0
2024-09-17 21:54:47			0	38088	0	0	0	23929	22530	158868	27072	1059000	46559	108828	0	0	8184	554436	0	0
2024-09-17 21:55:47			0	38097	0	0	0	23927	22530	158940	27564	1059000	46526	108827	0	0	8185	554082	0	0
2024-09-17 21:56:47			0	38083	0	0	0	23922	22520	158948	27185	1058964	46547	108825	0	0	8184	554664	0	0
2024-09-17 21:57:47			0	38078	0	0	0	23911	22520	158980	27569	1058964	46558	108821	0	0	8184	554861	0	0
2024-09-17 21:58:47			0	38060	0	0	0	23911	22520	158912	27428	1058937	46547	108821	0	0	8183	555570	0	0
2024-09-17 21:59:47			0	38066	0	0	0	23919	22530	158936	27443	1058955	46570	108824	0	0	8183	555303	0	0
2024-09-17 22:00:47			0	38077	0	0	0	23916	22520	159080	27500	1058937	46547	108823	0	0	8184	554901	0	0
2024-09-17 22:01:47			0	38055	0	0	0	23898	22530	159012	27289	1058893	46548	108816	0	0	8183	555736	0	0
2024-09-17 22:02:47			0	38050	0	0	0	23911	22520	159064	27296	1058937	46558	108821	0	0	8182	555965	0	0
2024-09-17 22:03:47			0	38055	0	0	0	23919	22510	159108	27254	1058919	46557	108824	0	0	8183	555798	0	0
2024-09-17 22:04:47			0	38056	0	0	0	23901	22510	158980	27053	1058910	46546	108817	0	0	8183	555759	0	0
2024-09-17 22:05:47			0	38025	0	0	0	23911	22520	159188	26937	1058955	46546	108821	0	0	8181	556950	0	0
2024-09-17 22:06:47			0	38039	0	0	0	23922	22510	159104	27568	1058910	46557	108825	0	0	8182	556429	0	0
2024-09-17 22:07:47			0	38009	0	0	0	23914	22510	159211	27126	1058919	46557	108822	0	0	8180	557613	0	0
2024-09-17 22:08:47			0	37986	0	0	0	23916	22510	159403	27071	1058893	46546	108823	0	0	8179	558522	0	0
2024-09-17 22:09:47			0	37999	0	0	0	23924	22510	159311	27255	1058973	46536	108826	0	0	8179	558008	0	0
2024-09-17 22:10:47			0	38002	0	0	0	23909	22510	159235	27234	1058919	46557	108820	0	0	8180	557890	0	0
2024-09-17 22:11:47			0	37965	0	0	0	23901	22510	159379	27339	1058946	46568	108817	0	0	8178	559353	0	0
2024-09-17 22:12:47			0	37977	0	0	0	23903	22520	159451	27196	1058955	46557	108818	0	0	8178	558847	0	0
2024-09-17 22:13:47			0	37973	0	0	0	23888	22510	159339	27265	1058919	46557	108812	0	0	8178	559037	0	0
2024-09-17 22:14:47			0	37994	0	0	0	23896	22510	159319	27377	1058884	46536	108815	0	0	8179	558206	0	0
2024-09-17 22:15:47			0	37998	0	0	0	23896	22510	159243	27291	1058937	46546	108815	0	0	8180	558048	0	0
2024-09-17 22:16:47			0	38001	0	0	0	23903	22510	159395	27260	1058830	46557	108818	0	0	8180	557929	0	0
2024-09-17 22:17:47			0	37996	0	0	0	23898	22500	159323	27254	1058839	46533	108816	0	0	8179	558158	0	0
2024-09-17 22:18:47			0	38017	0	0	0	23911	22500	159328	27315	1058892	46555	108821	0	0	8180	557329	0	0
2024-09-17 22:19:47			0	37989	0	0	0	23914	22490	159203	27235	1058883	46555	108822	0	0	8179	558466	0	0
2024-09-17 22:20:47			0	37997	0	0	0	23896	22500	159311	27319	1058892	46533	108815	0	0	8179	558119	0	0
2024-09-17 22:21:47			0	37984	0	0	0	23901	22500	159363	27144	1058919	46555	108817	0	0	8179	558633	0	0
2024-09-17 22:22:47			0	37976	0	0	0	23901	22500	159335	27234	1058866	46555	108817	0	0	8178	558949	0	0
2024-09-17 22:23:47			0	37985	0	0	0	23893	22490	159411	27201	1058830	46555	108814	0	0	8179	558624	0	0
2024-09-17 22:24:47			0	37995	0	0	0	23888	22500	159235	27313	1058892	46555	108812	0	0	8180	558198	0	0
2024-09-17 22:25:47			0	37985	0	0	0	23872	22490	159283	27187	1058875	46543	108806	0	0	8179	558624	0	0
2024-09-17 22:26:47			0	37973	0	0	0	23867	22490	159311	27331	1058803	46544	108804	0	0	8179	559099	0	0
2024-09-17 22:27:47			0	37964	0	0	0	23857	22490	159359	27345	1058794	46532	108800	0	0	8178	559455	0	0
2024-09-17 22:28:47			0	37970	0	0	0	23849	22480	159451	26994	1058750	46542	108797	0	0	8179	559249	0	0
2024-09-17 22:29:47			0	37953	0	0	0	23846	22480	159467	27242	1058750	46542	108796	0	0	8178	559922	0	0
2024-09-17 22:30:47			0	37952	0	0	0	23833	22480	159447	26927	1058723	46520	108791	0	0	8178	559962	0	0
2024-09-17 22:31:47			0	37932	0	0	0	23846	22470	159587	27100	1058741	46552	108796	0	0	8176	560785	0	0
2024-09-17 22:32:47			0	37925	0	0	0	23849	22470	159615	27452	1058705	46530	108797	0	0	8176	561063	0	0
2024-09-17 22:33:47			0	37916	0	0	0	23859	22470	159547	27211	1058679	46552	108801	0	0	8175	561420	0	0
2024-09-17 22:34:47			0	37927	0	0	0	23872	22460	159659	26979	1058723	46563	108806	0	0	8176	561015	0	0
2024-09-17 22:35:47			0	37932	0	0	0	23857	22460	159647	27124	1058696	46552	108800	0	0	8176	560817	0	0
2024-09-17 22:36:47			0	37921	0	0	0	23851	22460	159683	27010	1058643	46552	108798	0	0	8176	561253	0	0
2024-09-17 22:37:47			0	37929	0	0	0	23854	22470	159647	26981	1058732	46552	108799	0	0	8176	560904	0	0
2024-09-17 22:38:47			0	37919	0	0	0	23836	22460	159715	27029	1058661	46562	108792	0	0	8176	561332	0	0
2024-09-17 22:39:47			0	37910	0	0	0	23844	22460	159707	27144	1058661	46541	108795	0	0	8175	561689	0	0
2024-09-17 22:40:47			0	37907	0	0	0	23831	22450	159759	27325	1058616	46550	108790	0	0	8175	561840	0	0
2024-09-17 22:41:47			0	37925	0	0	0	23836	22450	159599	27048	1058652	46540	108792	0	0	8176	561126	0	0
2024-09-17 22:42:47			0	37897	0	0	0	23831	22450	159759	27275	1058589	46517	108790	0	0	8175	562237	0	0
2024-09-17 22:43:47			0	37887	0	0	0	23833	22450	159807	27176	1058563	46550	108791	0	0	8174	562634	0	0
2024-09-17 22:44:47			0	37890	0	0	0	23831	22440	159803	27383	1058571	46539	108790	0	0	8174	562546	0	0
2024-09-17 22:45:47			0	37889	0	0	0	23846	22450	159735	27369	1058652	46550	108796	0	0	8174	562555	0	0
2024-09-17 22:46:47			0	37912	0	0	0	23838	22450	159847	27133	1058643	46540	108793	0	0	8175	561641	0	0
2024-09-17 22:47:47			0	37877	0	0	0	23828	22440	159771	27395	1058625	46539	108789	0	0	8173	563063	0	0
2024-09-17 22:48:47			0	37868	0	0	0	23841	22440	159947	27414	1058633	46550	108794	0	0	8173	563421	0	0
2024-09-17 22:49:47			0	37878	0	0	0	23844	22440	159895	27215	1058571	46539	108795	0	0	8173	563023	0	0
2024-09-17 22:50:47			0	37883	0	0	0	23846	22440	159979	27543	1058607	46550	108796	0	0	8173	562824	0	0
2024-09-17 22:51:47			0	37865	0	0	0	23854	22450	159907	27310	1058616	46561	108799	0	0	8172	563508	0	0
2024-09-17 22:52:47			0	37856	0	0	0	23854	22440	159915	27422	1058607	46550	108799	0	0	8172	563898	0	0
2024-09-17 22:53:47			0	37878	0	0	0	23854	22450	159915	27386	1058589	46550	108799	0	0	8173	562992	0	0
2024-09-17 22:54:47			0	37866	0	0	0	23854	22440	159951	27215	1058660	46540	108799	0	0	8172	563500	0	0
2024-09-17 22:55:47			0	37852	0	0	0	23844	22440	159883	27225	1058607	46550	108795	0	0	8172	564057	0	0
2024-09-17 22:56:47			0	37841	0	0	0	23846	22440	159967	27161	1058633	46550	108796	0	0	8171	564495	0	0
2024-09-17 22:57:47			0	37832	0	0	0	23844	22440	159883	27265	1058518	46539	108795	0	0	8170	564853	0	0
2024-09-17 22:58:47			0	37846	0	0	0	23854	22440	159863	27409	1058633	46540	108799	0	0	8171	564296	0	0
2024-09-17 22:59:47			0	37850	0	0	0	23846	22440	159979	27358	1058580	46540	108796	0	0	8171	564137	0	0
2024-09-17 23:00:47			0	37840	0	0	0	23828	22430	159927	27362	1058580	46538	108789	0	0	8171	564566	0	0
2024-09-17 23:01:47			0	37854	0	0	0	23828	22440	160043	27450	1058598	46539	108789	0	0	8172	563978	0	0
2024-09-17 23:02:47			0	37850	0	0	0	23812	22430	159899	27362	1058553	46548	108783	0	0	8172	564168	0	0
2024-09-17 23:03:47			0	37865	0	0	0	23810	22430	159843	27419	1058473	46538	108782	0	0	8173	563571	0	0
2024-09-17 23:04:47			0	37875	0	0	0	23815	22420	159839	27272	1058482	46537	108784	0	0	8173	563205	0	0
2024-09-17 23:05:47			0	37883	0	0	0	23799	22420	159763	27576	1058402	46525	108778	0	0	8174	562887	0	0
2024-09-17 23:06:47			0	37927	0	0	0	23786	22410	159523	27180	1058473	46536	108773	0	0	8177	561172	0	0
2024-09-17 23:07:47			0	37917	0	0	0	23797	22410	159611	27781	1058491	46536	108777	0	0	8176	561569	0	0
2024-09-17 23:08:47			0	37939	0	0	0	23807	22420	159587	27462	1058438	46537	108781	0	0	8177	560665	0	0
2024-09-17 23:09:47			0	37969	0	0	0	23805	22410	159487	27550	1058446	46524	108780	0	0	8179	559507	0	0
2024-09-17 23:10:47			0	37958	0	0	0	23805	22410	159567	27481	1058437	46546	108780	0	0	8178	559943	0	0
2024-09-17 23:11:47			0	37958	0	0	0	23805	22400	159519	27364	1058446	46535	108780	0	0	8178	559974	0	0
2024-09-17 23:12:47			0	37969	0	0	0	23773	22400	159427	27183	1058455	46545	108768	0	0	8179	559539	0	0
2024-09-17 23:13:47			0	37965	0	0	0	23763	22400	159455	27202	1058402	46545	108764	0	0	8179	559697	0	0
2024-09-17 23:14:47			0	37981	0	0	0	23792	22400	159423	27280	1058348	46535	108775	0	0	8180	559064	0	0
2024-09-17 23:15:47			0	37985	0	0	0	23786	22410	159479	27500	1058357	46524	108773	0	0	8180	558874	0	0
2024-09-17 23:16:47			0	37964	0	0	0	23781	22390	159563	27398	1058322	46534	108771	0	0	8179	559768	0	0
2024-09-17 23:17:47			0	37975	0	0	0	23784	22390	159483	27098	1058375	46555	108772	0	0	8180	559332	0	0
2024-09-17 23:18:47			0	37974	0	0	0	23771	22380	159503	27156	1058313	46533	108767	0	0	8180	559403	0	0
2024-09-17 23:19:47			0	37980	0	0	0	23771	22390	159431	27279	1058348	46544	108767	0	0	8180	559135	0	0
2024-09-17 23:20:47			0	37989	0	0	0	23753	22390	159471	27371	1058348	46544	108760	0	0	8181	558778	0	0
2024-09-17 23:21:47			0	37974	0	0	0	23763	22380	159463	27341	1058277	46520	108764	0	0	8180	559403	0	0
2024-09-17 23:22:47			0	37982	0	0	0	23779	22380	159439	27438	1058339	46543	108770	0	0	8180	559087	0	0
2024-09-17 23:23:47			0	37994	0	0	0	23748	22370	159487	27286	1058241	46520	108758	0	0	8181	558643	0	0
2024-09-17 23:24:47			0	37997	0	0	0	23753	22370	159379	27272	1058268	46532	108760	0	0	8181	558524	0	0
2024-09-17 23:25:47			0	37998	0	0	0	23753	22370	159367	27069	1058312	46531	108760	0	0	8181	558485	0	0
2024-09-17 23:26:47			0	37991	0	0	0	23779	22370	159495	27542	1058206	46531	108770	0	0	8181	558762	0	0
2024-09-17 23:27:47			0	37994	0	0	0	23771	22380	159339	27407	1058224	46542	108767	0	0	8181	558612	0	0
2024-09-17 23:28:47			0	38006	0	0	0	23755	22360	159407	27685	1058188	46529	108761	0	0	8182	558200	0	0
2024-09-17 23:29:47			0	37998	0	0	0	23763	22370	159459	27433	1058259	46519	108764	0	0	8181	558485	0	0
2024-09-17 23:30:47			0	37973	0	0	0	23750	22370	159459	27310	1058232	46531	108759	0	0	8180	559474	0	0
2024-09-17 23:31:47			0	37990	0	0	0	23761	22370	159451	27242	1058179	46541	108763	0	0	8181	558801	0	0
2024-09-17 23:32:47			0	37975	0	0	0	23776	22360	159479	27391	1058277	46519	108769	0	0	8180	559426	0	0
2024-09-17 23:33:47			0	37977	0	0	0	23763	22360	159531	27498	1058215	46529	108764	0	0	8180	559347	0	0
2024-09-17 23:34:47			0	37973	0	0	0	23773	22360	159551	27300	1058215	46529	108768	0	0	8180	559505	0	0
2024-09-17 23:35:47			0	37953	0	0	0	23773	22360	159551	27022	1058277	46552	108768	0	0	8178	560298	0	0
2024-09-17 23:36:47			0	37947	0	0	0	23773	22370	159647	27371	1058259	46531	108768	0	0	8178	560504	0	0
2024-09-17 23:37:47			0	37952	0	0	0	23763	22350	159511	27504	1058259	46529	108764	0	0	8178	560369	0	0
2024-09-17 23:38:47			0	37942	0	0	0	23768	22360	159619	27187	1058215	46541	108766	0	0	8178	560734	0	0
2024-09-17 23:39:47			0	37937	0	0	0	23773	22370	159699	27109	1058206	46531	108768	0	0	8177	560901	0	0
2024-09-17 23:40:47			0	37939	0	0	0	23755	22360	159523	27274	1058161	46529	108761	0	0	8178	560853	0	0
2024-09-17 23:41:47			0	37957	0	0	0	23766	22360	159555	27307	1058241	46541	108765	0	0	8179	560139	0	0
2024-09-17 23:42:47			0	37947	0	0	0	23771	22350	159575	27121	1058126	46529	108767	0	0	8178	560567	0	0
2024-09-17 23:43:47			0	37964	0	0	0	23761	22360	159591	27267	1058241	46529	108763	0	0	8179	559862	0	0
2024-09-17 23:44:47			0	37960	0	0	0	23766	22350	159583	26904	1058206	46529	108765	0	0	8179	560052	0	0
2024-09-17 23:45:47			0	37963	0	0	0	23768	22370	159647	27279	1058232	46541	108766	0	0	8179	559870	0	0
2024-09-17 23:46:47			0	37954	0	0	0	23755	22340	159547	27280	1058134	46529	108761	0	0	8179	560321	0	0
2024-09-17 23:47:47			0	37956	0	0	0	23761	22350	159623	27185	1058206	46529	108763	0	0	8179	560210	0	0
2024-09-17 23:48:47			0	37963	0	0	0	23763	22360	159595	26826	1058215	46529	108764	0	0	8179	559901	0	0
2024-09-17 23:49:47			0	37966	0	0	0	23776	22350	159619	26994	1058206	46529	108769	0	0	8179	559814	0	0
2024-09-17 23:50:47			0	37957	0	0	0	23761	22350	159607	27253	1058206	46518	108763	0	0	8179	560170	0	0
2024-09-17 23:51:47			0	37951	0	0	0	23768	22360	159579	27079	1058215	46541	108766	0	0	8178	560377	0	0
2024-09-17 23:52:47			0	37955	0	0	0	23768	22360	159567	27230	1058215	46541	108766	0	0	8179	560218	0	0
2024-09-17 23:53:47			0	37954	0	0	0	23771	22360	159559	26941	1058295	46541	108767	0	0	8178	560258	0	0
2024-09-17 23:54:47			0	37933	0	0	0	23781	22360	159707	27395	1058268	46541	108771	0	0	8177	561091	0	0
2024-09-17 23:55:47			0	37938	0	0	0	23771	22360	159711	27248	1058188	46529	108767	0	0	8178	560892	0	0
2024-09-17 23:56:47			0	37930	0	0	0	23758	22360	159763	27229	1058215	46529	108762	0	0	8177	561210	0	0
2024-09-17 23:57:47			0	37913	0	0	0	23753	22350	159695	27445	1058197	46529	108760	0	0	8176	561916	0	0
2024-09-17 23:58:47			0	37922	0	0	0	23766	22350	159811	27152	1058197	46517	108765	0	0	8177	561558	0	0
2024-09-17 23:59:47			0	37908	0	0	0	23750	22350	159819	27107	1058232	46529	108759	0	0	8176	562114	0	0
2024-09-18 00:00:47			0	37915	0	0	0	23771	22350	159835	27410	1058206	46529	108767	0	0	8176	561836	0	0
2024-09-18 00:01:47			0	37904	0	0	0	23766	22360	159827	27390	1058161	46529	108765	0	0	8176	562242	0	0
2024-09-18 00:02:47			0	37896	0	0	0	23755	22350	159891	27177	1058232	46518	108761	0	0	8175	562591	0	0
2024-09-18 00:03:47			0	37896	0	0	0	23753	22340	159851	27201	1058214	46540	108760	0	0	8175	562622	0	0
2024-09-18 00:04:47			0	37890	0	0	0	23740	22350	159887	27180	1058152	46541	108755	0	0	8175	562829	0	0
2024-09-18 00:05:47			0	37883	0	0	0	23737	22350	159887	27147	1058170	46506	108754	0	0	8175	563108	0	0
2024-09-18 00:06:47			0	37887	0	0	0	23748	22350	159835	27086	1058143	46529	108758	0	0	8175	562949	0	0
2024-09-18 00:07:47			0	37888	0	0	0	23748	22340	159839	27149	1058134	46517	108758	0	0	8175	562940	0	0
2024-09-18 00:08:47			0	37890	0	0	0	23742	22350	159839	27152	1058170	46529	108756	0	0	8175	562829	0	0
2024-09-18 00:09:47			0	37895	0	0	0	23737	22340	159815	27060	1058134	46540	108754	0	0	8175	562662	0	0
2024-09-18 00:10:47			0	37895	0	0	0	23735	22330	159847	27043	1058143	46528	108753	0	0	8175	562693	0	0
2024-09-18 00:11:47			0	37904	0	0	0	23740	22340	159823	27374	1058188	46529	108755	0	0	8176	562305	0	0
2024-09-18 00:12:47			0	37909	0	0	0	23735	22330	159795	27192	1058143	46516	108753	0	0	8176	562137	0	0
2024-09-18 00:13:47			0	37902	0	0	0	23735	22340	159795	27391	1058152	46539	108753	0	0	8176	562384	0	0
2024-09-18 00:14:47			0	37911	0	0	0	23745	22340	159843	26965	1058125	46528	108757	0	0	8176	562026	0	0
2024-09-18 00:15:47			0	37915	0	0	0	23748	22340	159823	27384	1058152	46528	108758	0	0	8176	561868	0	0
2024-09-18 00:16:47			0	37916	0	0	0	23722	22340	159767	27107	1058108	46529	108748	0	0	8177	561828	0	0
2024-09-18 00:17:47			0	37926	0	0	0	23750	22340	159799	27429	1058072	46539	108759	0	0	8177	561431	0	0
2024-09-18 00:18:47			0	37937	0	0	0	23745	22340	159611	27150	1058152	46528	108757	0	0	8178	560995	0	0
2024-09-18 00:19:47			0	37927	0	0	0	23750	22340	159783	27171	1058125	46528	108759	0	0	8177	561391	0	0
2024-09-18 00:20:47			0	37929	0	0	0	23737	22330	159703	27019	1058116	46528	108754	0	0	8177	561343	0	0
2024-09-18 00:21:47			0	37934	0	0	0	23750	22340	159671	27275	1058125	46516	108759	0	0	8178	561114	0	0
2024-09-18 00:22:47			0	37953	0	0	0	23753	22340	159791	27144	1058179	46539	108760	0	0	8179	560360	0	0
2024-09-18 00:23:47			0	37934	0	0	0	23761	22330	159739	27249	1058116	46505	108763	0	0	8177	561145	0	0
2024-09-18 00:24:47			0	37924	0	0	0	23742	22330	159735	27223	1058134	46538	108756	0	0	8177	561542	0	0
2024-09-18 00:25:47			0	37953	0	0	0	23745	22340	159631	27282	1058152	46528	108757	0	0	8179	560360	0	0
2024-09-18 00:26:47			0	37936	0	0	0	23750	22330	159627	27187	1058116	46516	108759	0	0	8178	561066	0	0
2024-09-18 00:27:47			0	37935	0	0	0	23750	22340	159559	27339	1058072	46528	108759	0	0	8178	561074	0	0
2024-09-18 00:28:47			0	37943	0	0	0	23750	22330	159711	27296	1058170	46539	108759	0	0	8178	560788	0	0
2024-09-18 00:29:47			0	37934	0	0	0	23750	22330	159743	26953	1058108	46538	108759	0	0	8177	561145	0	0
2024-09-18 00:30:47			0	37935	0	0	0	23750	22330	159643	27235	1058143	46539	108759	0	0	8178	561105	0	0
2024-09-18 00:31:47			0	37926	0	0	0	23755	22330	159779	27296	1058134	46538	108761	0	0	8177	561462	0	0
2024-09-18 00:32:47			0	37915	0	0	0	23745	22340	159835	27263	1058161	46550	108757	0	0	8177	561868	0	0
2024-09-18 00:33:47			0	37930	0	0	0	23740	22340	159659	27306	1058188	46540	108755	0	0	8177	561272	0	0
2024-09-18 00:34:47			0	37904	0	0	0	23737	22340	159863	27190	1058072	46539	108754	0	0	8176	562305	0	0
2024-09-18 00:35:47			0	37909	0	0	0	23748	22340	159751	27036	1058099	46539	108758	0	0	8176	562106	0	0
2024-09-18 00:36:47			0	37910	0	0	0	23753	22340	159843	27390	1058152	46539	108760	0	0	8176	562066	0	0
2024-09-18 00:37:47			0	37907	0	0	0	23745	22330	159811	27204	1058196	46516	108757	0	0	8176	562217	0	0
2024-09-18 00:38:47			0	37924	0	0	0	23753	22340	159771	27294	1058179	46539	108760	0	0	8177	561510	0	0
2024-09-18 00:39:47			0	37925	0	0	0	23740	22330	159731	26998	1058143	46528	108755	0	0	8177	561502	0	0
2024-09-18 00:40:47			0	37918	0	0	0	23753	22340	159743	27092	1058134	46517	108760	0	0	8177	561749	0	0
2024-09-18 00:41:47			0	37908	0	0	0	23737	22330	159803	27315	1058116	46528	108754	0	0	8176	562177	0	0
2024-09-18 00:42:47			0	37916	0	0	0	23745	22330	159831	27412	1058143	46505	108757	0	0	8177	561859	0	0
2024-09-18 00:43:47			0	37916	0	0	0	23740	22340	159699	27305	1058152	46539	108755	0	0	8177	561828	0	0
2024-09-18 00:44:47			0	37901	0	0	0	23748	22340	159839	27326	1058152	46539	108758	0	0	8176	562424	0	0
2024-09-18 00:45:47			0	37911	0	0	0	23732	22340	159823	27287	1058152	46539	108752	0	0	8177	562026	0	0
2024-09-18 00:46:47			0	37898	0	0	0	23727	22330	159795	26953	1058134	46538	108750	0	0	8176	562574	0	0
2024-09-18 00:47:47			0	37912	0	0	0	23735	22340	159823	27156	1058125	46549	108753	0	0	8177	561987	0	0
2024-09-18 00:48:47			0	37889	0	0	0	23727	22330	159851	27114	1058108	46538	108750	0	0	8175	562932	0	0
2024-09-18 00:49:47			0	37892	0	0	0	23735	22330	159867	27013	1058134	46527	108753	0	0	8175	562813	0	0
2024-09-18 00:50:47			0	37891	0	0	0	23727	22330	159899	26781	1058081	46515	108750	0	0	8175	562852	0	0
2024-09-18 00:51:47			0	37903	0	0	0	23716	22330	159947	27078	1058108	46538	108746	0	0	8176	562376	0	0
2024-09-18 00:52:47			0	37885	0	0	0	23724	22330	159919	27083	1058063	46528	108749	0	0	8175	563091	0	0
2024-09-18 00:53:47			0	37870	0	0	0	23719	22320	159987	26833	1058063	46514	108747	0	0	8174	563719	0	0
2024-09-18 00:54:47			0	37879	0	0	0	23709	22320	159999	27185	1058018	46515	108743	0	0	8175	563361	0	0
2024-09-18 00:55:47			0	37875	0	0	0	23714	22320	159967	27137	1058045	46504	108745	0	0	8175	563520	0	0
2024-09-18 00:56:47			0	37857	0	0	0	23709	22330	160031	27343	1058001	46527	108743	0	0	8174	564205	0	0
2024-09-18 00:57:47			0	37867	0	0	0	23706	22330	160051	26809	1058001	46515	108742	0	0	8174	563807	0	0
2024-09-18 00:58:47			0	37868	0	0	0	23709	22320	159983	27176	1058009	46525	108743	0	0	8174	563799	0	0
2024-09-18 00:59:47			0	37866	0	0	0	23709	22320	160063	27078	1058018	46504	108743	0	0	8174	563878	0	0
2024-09-18 01:00:47			0	37850	0	0	0	23701	22320	160023	26975	1058063	46514	108740	0	0	8173	564515	0	0
2024-09-18 01:01:47			0	37875	0	0	0	23724	22320	159939	27005	1058063	46514	108749	0	0	8174	563520	0	0
2024-09-18 01:02:47			0	37883	0	0	0	23693	22310	159991	27312	1057947	46513	108737	0	0	8175	563233	0	0
2024-09-18 01:03:47			0	37879	0	0	0	23696	22320	159955	27178	1057991	46538	108738	0	0	8175	563361	0	0
2024-09-18 01:04:47			0	37863	0	0	0	23709	22310	159907	27642	1058027	46536	108743	0	0	8174	564029	0	0
2024-09-18 01:05:47			0	37870	0	0	0	23693	22310	159923	27727	1057947	46524	108737	0	0	8175	563751	0	0
2024-09-18 01:06:47			0	37876	0	0	0	23703	22300	159959	27339	1057929	46524	108741	0	0	8175	563543	0	0
2024-09-18 01:07:47			0	37869	0	0	0	23714	22320	159991	27230	1057983	46514	108745	0	0	8174	563759	0	0
2024-09-18 01:08:47			0	37885	0	0	0	23698	22300	159999	27230	1057902	46536	108739	0	0	8175	563185	0	0
2024-09-18 01:09:47			0	37890	0	0	0	23703	22300	159851	27576	1057929	46524	108741	0	0	8176	562986	0	0
2024-09-18 01:10:47			0	37889	0	0	0	23698	22300	159887	26967	1057982	46513	108739	0	0	8176	563026	0	0
2024-09-18 01:11:47			0	37901	0	0	0	23703	22310	159839	27320	1057920	46536	108741	0	0	8176	562518	0	0
2024-09-18 01:12:47			0	37910	0	0	0	23703	22300	159851	27206	1057929	46524	108741	0	0	8177	562192	0	0
2024-09-18 01:13:47			0	37907	0	0	0	23701	22300	159723	27300	1057973	46512	108740	0	0	8177	562311	0	0
2024-09-18 01:14:47			0	37917	0	0	0	23703	22300	159783	27166	1057920	46523	108741	0	0	8177	561914	0	0
2024-09-18 01:15:47			0	37914	0	0	0	23698	22300	159807	27319	1057956	46524	108739	0	0	8177	562033	0	0
2024-09-18 01:16:47			0	37919	0	0	0	23675	22310	159803	27163	1057938	46524	108730	0	0	8178	561803	0	0
2024-09-18 01:17:47			0	37910	0	0	0	23685	22300	159759	27291	1057947	46512	108734	0	0	8177	562192	0	0
2024-09-18 01:18:47			0	37895	0	0	0	23703	22290	159847	27495	1057911	46544	108741	0	0	8176	562819	0	0
2024-09-18 01:19:47			0	37912	0	0	0	23711	22300	159755	27471	1057956	46536	108744	0	0	8177	562112	0	0
2024-09-18 01:20:47			0	37917	0	0	0	23719	22300	159875	27315	1057947	46512	108747	0	0	8177	561914	0	0
2024-09-18 01:21:47			0	37937	0	0	0	23709	22300	159811	27317	1058009	46524	108743	0	0	8178	561120	0	0
2024-09-18 01:22:47			0	37923	0	0	0	23696	22300	159763	27182	1057947	46535	108738	0	0	8178	561675	0	0
2024-09-18 01:23:47			0	37913	0	0	0	23675	22300	159695	27298	1057947	46523	108730	0	0	8177	562073	0	0
2024-09-18 01:24:47			0	37900	0	0	0	23696	22300	159839	27213	1057893	46523	108738	0	0	8176	562589	0	0
2024-09-18 01:25:47			0	37912	0	0	0	23701	22290	159743	27336	1057938	46534	108740	0	0	8177	562144	0	0
2024-09-18 01:26:47			0	37906	0	0	0	23711	22290	159843	27225	1057884	46500	108744	0	0	8176	562382	0	0
2024-09-18 01:27:47			0	37913	0	0	0	23709	22290	159827	27352	1057884	46522	108743	0	0	8177	562104	0	0
2024-09-18 01:28:47			0	37928	0	0	0	23696	22310	159835	27015	1057991	46524	108738	0	0	8178	561446	0	0
2024-09-18 01:29:47			0	37903	0	0	0	23706	22300	159807	27279	1057973	46545	108742	0	0	8176	562470	0	0
2024-09-18 01:30:47			0	37900	0	0	0	23714	22300	159735	27288	1057947	46523	108745	0	0	8176	562589	0	0
2024-09-18 01:31:47			0	37912	0	0	0	23690	22300	159755	27275	1057947	46523	108736	0	0	8177	562112	0	0
2024-09-18 01:32:47			0	37892	0	0	0	23685	22300	159767	27046	1057973	46512	108734	0	0	8176	562907	0	0
2024-09-18 01:33:47			0	37894	0	0	0	23675	22290	159743	27098	1057965	46511	108730	0	0	8176	562859	0	0
2024-09-18 01:34:47			0	37892	0	0	0	23683	22290	159787	27365	1057911	46511	108733	0	0	8176	562938	0	0
2024-09-18 01:35:47			0	37865	0	0	0	23706	22280	159867	27436	1057840	46521	108742	0	0	8174	564044	0	0
2024-09-18 01:36:47			0	37877	0	0	0	23722	22300	159855	27138	1057893	46501	108748	0	0	8174	563504	0	0
2024-09-18 01:37:47			0	37875	0	0	0	23698	22280	159823	27228	1058009	46511	108739	0	0	8175	563646	0	0
2024-09-18 01:38:47			0	37867	0	0	0	23703	22300	159939	27436	1057920	46535	108741	0	0	8174	563901	0	0
2024-09-18 01:39:47			0	37891	0	0	0	23693	22300	159855	27483	1057947	46523	108737	0	0	8176	562947	0	0
2024-09-18 01:40:47			0	37878	0	0	0	23685	22300	159879	27390	1057947	46523	108734	0	0	8175	563464	0	0
2024-09-18 01:41:47			0	37877	0	0	0	23688	22300	159959	27355	1057920	46523	108735	0	0	8175	563504	0	0
2024-09-18 01:42:47			0	37872	0	0	0	23675	22300	159935	27469	1057893	46523	108730	0	0	8175	563702	0	0
2024-09-18 01:43:47			0	37848	0	0	0	23672	22280	160051	27150	1057902	46500	108729	0	0	8174	564721	0	0
2024-09-18 01:44:47			0	37829	0	0	0	23688	22280	160139	27102	1057867	46521	108735	0	0	8172	565478	0	0
2024-09-18 01:45:47			0	37829	0	0	0	23677	22280	160147	27265	1057929	46511	108731	0	0	8172	565478	0	0
2024-09-18 01:46:47			0	37823	0	0	0	23683	22280	160019	27230	1057947	46500	108733	0	0	8172	565717	0	0
2024-09-18 01:47:47			0	37849	0	0	0	23664	22280	160119	27095	1057867	46510	108726	0	0	8174	564681	0	0
2024-09-18 01:48:47			0	37840	0	0	0	23654	22280	160039	27244	1057840	46521	108722	0	0	8173	565040	0	0
2024-09-18 01:49:47			0	37841	0	0	0	23672	22270	160115	26896	1057804	46510	108729	0	0	8173	565031	0	0
2024-09-18 01:50:47			0	37840	0	0	0	23680	22270	160075	26993	1057858	46510	108732	0	0	8173	565071	0	0
2024-09-18 01:51:47			0	37868	0	0	0	23672	22270	159963	27412	1057831	46521	108729	0	0	8175	563956	0	0
2024-09-18 01:52:47			0	37853	0	0	0	23677	22260	160027	27057	1057831	46519	108731	0	0	8174	564585	0	0
2024-09-18 01:53:47			0	37869	0	0	0	23677	22270	160047	27338	1057875	46520	108731	0	0	8175	563916	0	0
2024-09-18 01:54:47			0	37866	0	0	0	23651	22280	159971	27010	1057920	46500	108721	0	0	8175	564004	0	0
2024-09-18 01:55:47			0	37867	0	0	0	23657	22270	160035	27031	1057804	46521	108723	0	0	8175	563996	0	0
2024-09-18 01:56:47			0	37830	0	0	0	23644	22270	160059	27118	1057804	46521	108718	0	0	8173	565470	0	0
2024-09-18 01:57:47			0	37826	0	0	0	23667	22260	160027	26632	1057733	46509	108727	0	0	8172	565661	0	0
2024-09-18 01:58:47			0	37845	0	0	0	23672	22270	160095	26986	1057804	46510	108729	0	0	8173	564872	0	0
2024-09-18 01:59:47			0	37840	0	0	0	23690	22260	160095	26975	1057777	46519	108736	0	0	8173	565103	0	0
2024-09-18 02:00:47			0	37865	0	0	0	23670	22270	160007	26958	1057884	46543	108728	0	0	8175	564075	0	0
2024-09-18 02:01:47			0	37854	0	0	0	23675	22260	160139	27249	1057840	46520	108730	0	0	8174	564545	0	0
2024-09-18 02:02:47			0	37862	0	0	0	23667	22260	160063	27157	1057760	46520	108727	0	0	8174	564226	0	0
2024-09-18 02:03:47			0	37861	0	0	0	23651	22270	159999	27249	1057795	46520	108721	0	0	8175	564235	0	0
2024-09-18 02:04:47			0	37844	0	0	0	23657	22260	159995	26961	1057813	46520	108723	0	0	8173	564943	0	0
2024-09-18 02:05:47			0	37840	0	0	0	23677	22260	160095	27183	1057786	46509	108731	0	0	8173	565103	0	0
2024-09-18 02:06:47			0	37850	0	0	0	23670	22270	160063	27277	1057849	46520	108728	0	0	8174	564673	0	0
2024-09-18 02:07:47			0	37846	0	0	0	23670	22260	160147	27064	1057760	46520	108728	0	0	8173	564864	0	0
2024-09-18 02:08:47			0	37837	0	0	0	23675	22270	160047	27194	1057831	46510	108730	0	0	8173	565191	0	0
2024-09-18 02:09:47			0	37853	0	0	0	23688	22270	160031	27232	1057795	46532	108735	0	0	8174	564553	0	0
2024-09-18 02:10:47			0	37851	0	0	0	23680	22260	160107	27270	1057840	46520	108732	0	0	8173	564664	0	0
2024-09-18 02:11:47			0	37848	0	0	0	23677	22260	160035	27333	1057777	46531	108731	0	0	8173	564784	0	0
2024-09-18 02:12:47			0	37836	0	0	0	23664	22260	160099	27034	1057866	46499	108726	0	0	8173	565262	0	0
2024-09-18 02:13:47			0	37848	0	0	0	23664	22270	160039	26974	1057849	46520	108726	0	0	8174	564752	0	0
2024-09-18 02:14:47			0	37853	0	0	0	23667	22270	160035	26800	1057795	46509	108727	0	0	8174	564553	0	0
2024-09-18 02:15:47			0	37840	0	0	0	23651	22260	160067	27097	1057786	46520	108721	0	0	8173	565103	0	0
2024-09-18 02:16:47			0	37830	0	0	0	23662	22260	160103	27286	1057733	46509	108725	0	0	8173	565501	0	0
2024-09-18 02:17:47			0	37840	0	0	0	23651	22250	160075	27055	1057795	46508	108721	0	0	8173	565134	0	0
2024-09-18 02:18:47			0	37859	0	0	0	23657	22250	159955	26876	1057715	46519	108723	0	0	8174	564377	0	0
2024-09-18 02:19:47			0	37839	0	0	0	23646	22250	160095	27286	1057769	46508	108719	0	0	8173	565174	0	0
2024-09-18 02:20:47			0	37820	0	0	0	23651	22260	160103	27298	1057760	46509	108721	0	0	8172	565900	0	0
2024-09-18 02:21:47			0	37812	0	0	0	23662	22260	160083	27235	1057724	46519	108725	0	0	8172	566219	0	0
2024-09-18 02:22:47			0	37835	0	0	0	23651	22250	160195	27287	1057715	46508	108721	0	0	8173	565334	0	0
2024-09-18 02:23:47			0	37846	0	0	0	23623	22250	160071	26928	1057715	46508	108710	0	0	8174	564895	0	0
2024-09-18 02:24:47			0	37834	0	0	0	23641	22240	160223	26809	1057697	46517	108717	0	0	8173	565405	0	0
2024-09-18 02:25:47			0	37809	0	0	0	23641	22240	160211	26902	1057724	46517	108717	0	0	8172	566402	0	0
2024-09-18 02:26:47			0	37809	0	0	0	23644	22250	160195	27173	1057715	46508	108718	0	0	8172	566371	0	0
2024-09-18 02:27:47			0	37831	0	0	0	23662	22250	160163	27209	1057706	46507	108725	0	0	8173	565493	0	0
2024-09-18 02:28:47			0	37835	0	0	0	23667	22240	160235	26878	1057724	46506	108727	0	0	8173	565365	0	0
2024-09-18 02:29:47			0	37820	0	0	0	23649	22250	160195	27020	1057733	46518	108720	0	0	8172	565932	0	0
2024-09-18 02:30:47			0	37815	0	0	0	23638	22250	160183	27258	1057742	46508	108716	0	0	8172	566131	0	0
2024-09-18 02:31:47			0	37797	0	0	0	23662	22250	160231	26998	1057680	46518	108725	0	0	8171	566850	0	0
2024-09-18 02:32:47			0	37816	0	0	0	23641	22250	160223	27270	1057706	46518	108717	0	0	8172	566091	0	0
2024-09-18 02:33:47			0	37798	0	0	0	23633	22240	160107	27197	1057697	46485	108714	0	0	8171	566841	0	0
2024-09-18 02:34:47			0	37803	0	0	0	23610	22240	160231	26972	1057662	46529	108705	0	0	8172	566642	0	0
2024-09-18 02:35:47			0	37783	0	0	0	23618	22240	160335	27313	1057635	46517	108708	0	0	8170	567441	0	0
2024-09-18 02:36:47			0	37783	0	0	0	23628	22240	160419	27092	1057662	46517	108712	0	0	8170	567441	0	0
2024-09-18 02:37:47			0	37757	0	0	0	23628	22240	160363	27398	1057662	46517	108712	0	0	8169	568480	0	0
2024-09-18 02:38:47			0	37760	0	0	0	23631	22240	160443	27383	1057635	46506	108713	0	0	8169	568360	0	0
2024-09-18 02:39:47			0	37761	0	0	0	23633	22230	160323	27345	1057599	46517	108714	0	0	8169	568352	0	0
2024-09-18 02:40:47			0	37766	0	0	0	23631	22230	160479	27376	1057670	46516	108713	0	0	8169	568152	0	0
2024-09-18 02:41:47			0	37765	0	0	0	23644	22230	160515	27289	1057590	46516	108718	0	0	8169	568192	0	0
2024-09-18 02:42:47			0	37773	0	0	0	23633	22240	160375	27211	1057688	46506	108714	0	0	8170	567840	0	0
2024-09-18 02:43:47			0	37756	0	0	0	23638	22240	160383	27119	1057688	46529	108716	0	0	8169	568520	0	0
2024-09-18 02:44:47			0	37762	0	0	0	23638	22230	160423	27157	1057653	46506	108716	0	0	8169	568312	0	0
2024-09-18 02:45:47			0	37780	0	0	0	23636	22230	160419	27197	1057590	46505	108715	0	0	8170	567592	0	0
2024-09-18 02:46:47			0	37776	0	0	0	23633	22230	160387	27164	1057644	46516	108714	0	0	8170	567752	0	0
2024-09-18 02:47:47			0	37789	0	0	0	23641	22230	160359	27441	1057626	46529	108717	0	0	8170	567233	0	0
2024-09-18 02:48:47			0	37781	0	0	0	23651	22230	160423	27358	1057626	46517	108721	0	0	8170	567552	0	0
2024-09-18 02:49:47			0	37779	0	0	0	23651	22230	160339	27225	1057653	46517	108721	0	0	8170	567632	0	0
2024-09-18 02:50:47			0	37800	0	0	0	23651	22230	160295	27092	1057679	46529	108721	0	0	8171	566793	0	0
2024-09-18 02:51:47			0	37789	0	0	0	23657	22230	160323	27296	1057697	46516	108723	0	0	8170	567233	0	0
2024-09-18 02:52:47			0	37776	0	0	0	23638	22230	160299	27260	1057653	46529	108716	0	0	8170	567752	0	0
2024-09-18 02:53:47			0	37781	0	0	0	23641	22230	160287	27395	1057653	46517	108717	0	0	8170	567552	0	0
2024-09-18 02:54:47			0	37782	0	0	0	23641	22230	160331	27138	1057670	46505	108717	0	0	8170	567512	0	0
2024-09-18 02:55:47			0	37773	0	0	0	23638	22230	160395	27333	1057679	46517	108716	0	0	8169	567872	0	0
2024-09-18 02:56:47			0	37776	0	0	0	23636	22230	160407	27351	1057653	46506	108715	0	0	8170	567752	0	0
2024-09-18 02:57:47			0	37757	0	0	0	23636	22230	160443	27111	1057670	46505	108715	0	0	8169	568512	0	0
2024-09-18 02:58:47			0	37754	0	0	0	23623	22230	160419	27341	1057626	46506	108710	0	0	8169	568632	0	0
2024-09-18 02:59:47			0	37760	0	0	0	23625	22220	160443	27235	1057635	46483	108711	0	0	8169	568424	0	0
2024-09-18 03:00:47			0	37756	0	0	0	23633	22230	160423	27249	1057617	46516	108714	0	0	8169	568552	0	0
2024-09-18 03:01:47			0	37737	0	0	0	23625	22230	160491	27377	1057626	46517	108711	0	0	8168	569313	0	0
2024-09-18 03:02:47			0	37752	0	0	0	23625	22230	160371	26970	1057626	46517	108711	0	0	8168	568712	0	0
2024-09-18 03:03:47			0	37770	0	0	0	23628	22220	160359	27209	1057581	46527	108712	0	0	8169	568024	0	0
2024-09-18 03:04:47			0	37762	0	0	0	23623	22230	160355	27312	1057644	46505	108710	0	0	8169	568312	0	0
2024-09-18 03:05:47			0	37770	0	0	0	23631	22230	160419	27317	1057590	46528	108713	0	0	8169	567992	0	0
2024-09-18 03:06:47			0	37757	0	0	0	23631	22220	160387	27085	1057608	46515	108713	0	0	8169	568544	0	0
2024-09-18 03:07:47			0	37749	0	0	0	23620	22220	160511	27248	1057555	46504	108709	0	0	8168	568864	0	0
2024-09-18 03:08:47			0	37772	0	0	0	23625	22220	160411	26998	1057608	46527	108711	0	0	8170	567944	0	0
2024-09-18 03:09:47			0	37755	0	0	0	23620	22230	160523	27241	1057590	46495	108709	0	0	8169	568592	0	0
2024-09-18 03:10:47			0	37762	0	0	0	23623	22220	160523	27258	1057635	46515	108710	0	0	8169	568344	0	0
2024-09-18 03:11:47			0	37753	0	0	0	23623	22220	160403	27069	1057573	46515	108710	0	0	8169	568704	0	0
2024-09-18 03:12:47			0	37741	0	0	0	23615	22210	160535	27092	1057564	46515	108707	0	0	8168	569216	0	0
2024-09-18 03:13:47			0	37751	0	0	0	23612	22220	160619	27428	1057519	46504	108706	0	0	8169	568784	0	0
2024-09-18 03:14:47			0	37730	0	0	0	23597	22220	160547	27270	1057599	46504	108700	0	0	8168	569625	0	0
2024-09-18 03:15:47			0	37722	0	0	0	23610	22220	160647	27319	1057573	46494	108705	0	0	8167	569945	0	0
2024-09-18 03:16:47			0	37706	0	0	0	23615	22210	160635	27557	1057475	46514	108707	0	0	8166	570618	0	0
2024-09-18 03:17:47			0	37705	0	0	0	23610	22220	160579	27152	1057573	46504	108705	0	0	8166	570627	0	0
2024-09-18 03:18:47			0	37705	0	0	0	23602	22200	160631	27069	1057510	46502	108702	0	0	8166	570690	0	0
2024-09-18 03:19:47			0	37703	0	0	0	23605	22210	160775	27350	1057590	46504	108703	0	0	8166	570739	0	0
2024-09-18 03:20:47			0	37703	0	0	0	23605	22210	160843	26804	1057564	46504	108703	0	0	8166	570739	0	0
2024-09-18 03:21:47			0	37688	0	0	0	23607	22200	160831	27142	1057572	46513	108704	0	0	8165	571373	0	0
2024-09-18 03:22:47			0	37706	0	0	0	23599	22200	160779	27203	1057519	46492	108701	0	0	8166	570650	0	0
2024-09-18 03:23:47			0	37680	0	0	0	23607	22200	160799	27114	1057519	46513	108704	0	0	8164	571694	0	0
2024-09-18 03:24:47			0	37680	0	0	0	23607	22190	160735	27045	1057501	46513	108704	0	0	8164	571726	0	0
2024-09-18 03:25:47			0	37681	0	0	0	23607	22200	160731	27173	1057519	46513	108704	0	0	8164	571654	0	0
2024-09-18 03:26:47			0	37691	0	0	0	23607	22200	160799	27194	1057466	46502	108704	0	0	8165	571252	0	0
2024-09-18 03:27:47			0	37702	0	0	0	23594	22200	160847	27419	1057456	46513	108699	0	0	8166	570811	0	0
2024-09-18 03:28:47			0	37681	0	0	0	23592	22190	160807	27277	1057439	46501	108698	0	0	8165	571686	0	0
2024-09-18 03:29:47			0	37689	0	0	0	23599	22190	160687	27001	1057447	46513	108701	0	0	8165	571364	0	0
2024-09-18 03:30:47			0	37671	0	0	0	23584	22200	160839	27066	1057492	46502	108695	0	0	8164	572055	0	0
2024-09-18 03:31:47			0	37659	0	0	0	23586	22200	160927	27201	1057456	46513	108696	0	0	8164	572538	0	0
2024-09-18 03:32:47			0	37668	0	0	0	23584	22190	160859	26979	1057439	46501	108695	0	0	8164	572208	0	0
2024-09-18 03:33:47			0	37662	0	0	0	23597	22180	160731	26866	1057403	46500	108700	0	0	8163	572481	0	0
2024-09-18 03:34:47			0	37664	0	0	0	23589	22190	160827	26932	1057447	46513	108697	0	0	8164	572368	0	0
2024-09-18 03:35:47			0	37667	0	0	0	23592	22190	160943	27220	1057465	46512	108698	0	0	8164	572248	0	0
2024-09-18 03:36:47			0	37677	0	0	0	23574	22200	160999	26880	1057466	46525	108691	0	0	8165	571814	0	0
2024-09-18 03:37:47			0	37656	0	0	0	23579	22190	160891	27384	1057385	46512	108693	0	0	8163	572690	0	0
2024-09-18 03:38:47			0	37651	0	0	0	23563	22180	161003	26986	1057341	46521	108687	0	0	8163	572923	0	0
2024-09-18 03:39:47			0	37627	0	0	0	23566	22190	161071	26746	1057385	46524	108688	0	0	8162	573857	0	0
2024-09-18 03:40:47			0	37628	0	0	0	23566	22190	160995	27176	1057358	46512	108688	0	0	8162	573817	0	0
2024-09-18 03:41:47			0	37627	0	0	0	23581	22190	161087	27275	1057385	46524	108694	0	0	8162	573857	0	0
2024-09-18 03:42:47			0	37626	0	0	0	23579	22180	161083	27003	1057394	46521	108693	0	0	8162	573929	0	0
2024-09-18 03:43:47			0	37608	0	0	0	23566	22180	161039	27176	1057394	46489	108688	0	0	8161	574654	0	0
2024-09-18 03:44:47			0	37609	0	0	0	23574	22170	161067	27059	1057376	46489	108691	0	0	8161	574646	0	0
2024-09-18 03:45:47			0	37614	0	0	0	23576	22180	161107	27138	1057421	46510	108692	0	0	8161	574412	0	0
2024-09-18 03:46:47			0	37603	0	0	0	23589	22180	161219	27102	1057421	46521	108697	0	0	8160	574855	0	0
2024-09-18 03:47:47			0	37600	0	0	0	23571	22180	161159	27324	1057350	46511	108690	0	0	8160	574976	0	0
2024-09-18 03:48:47			0	37607	0	0	0	23571	22170	161207	27175	1057349	46489	108690	0	0	8161	574726	0	0
2024-09-18 03:49:47			0	37605	0	0	0	23566	22180	161135	27379	1057394	46500	108688	0	0	8161	574775	0	0
2024-09-18 03:50:47			0	37614	0	0	0	23558	22170	161127	27057	1057349	46489	108685	0	0	8161	574444	0	0
2024-09-18 03:51:47			0	37608	0	0	0	23548	22160	161155	27275	1057260	46499	108681	0	0	8161	574718	0	0
2024-09-18 03:52:47			0	37599	0	0	0	23558	22170	161223	27081	1057376	46510	108685	0	0	8160	575049	0	0
2024-09-18 03:53:47			0	37585	0	0	0	23555	22160	161075	27234	1057260	46499	108684	0	0	8159	575645	0	0
2024-09-18 03:54:47			0	37592	0	0	0	23566	22170	161195	27414	1057323	46500	108688	0	0	8160	575331	0	0
2024-09-18 03:55:47			0	37591	0	0	0	23579	22150	161231	27251	1057323	46487	108693	0	0	8159	575435	0	0
2024-09-18 03:56:47			0	37603	0	0	0	23584	22160	161215	27492	1057340	46509	108695	0	0	8160	574919	0	0
2024-09-18 03:57:47			0	37614	0	0	0	23579	22160	161143	27258	1057358	46508	108693	0	0	8161	574476	0	0
2024-09-18 03:58:47			0	37624	0	0	0	23568	22180	160995	27112	1057314	46510	108689	0	0	8162	574009	0	0
2024-09-18 03:59:47			0	37611	0	0	0	23581	22170	161039	27059	1057403	46510	108694	0	0	8161	574565	0	0
2024-09-18 04:00:47			0	37607	0	0	0	23592	22160	161119	27426	1057340	46521	108698	0	0	8160	574758	0	0
2024-09-18 04:01:47			0	37625	0	0	0	23589	22160	161091	27239	1057367	46509	108697	0	0	8161	574033	0	0
2024-09-18 04:02:47			0	37607	0	0	0	23579	22170	161059	27301	1057412	46510	108693	0	0	8160	574726	0	0
2024-09-18 04:03:47			0	37632	0	0	0	23589	22180	160979	27289	1057350	46500	108697	0	0	8162	573687	0	0
2024-09-18 04:04:47			0	37604	0	0	0	23571	22160	161003	27112	1057340	46499	108690	0	0	8160	574879	0	0
2024-09-18 04:05:47			0	37633	0	0	0	23584	22170	161063	26953	1057305	46510	108695	0	0	8162	573679	0	0
2024-09-18 04:06:47			0	37623	0	0	0	23576	22160	161031	27296	1057260	46499	108692	0	0	8161	574114	0	0
2024-09-18 04:07:47			0	37627	0	0	0	23566	22160	160975	26901	1057394	46499	108688	0	0	8162	573953	0	0
2024-09-18 04:08:47			0	37618	0	0	0	23566	22170	161055	27098	1057332	46510	108688	0	0	8161	574283	0	0
2024-09-18 04:09:47			0	37621	0	0	0	23568	22160	161035	27234	1057287	46509	108689	0	0	8161	574194	0	0
2024-09-18 04:10:47			0	37621	0	0	0	23581	22170	161051	27005	1057349	46489	108694	0	0	8161	574162	0	0
2024-09-18 04:11:47			0	37620	0	0	0	23586	22180	160999	27230	1057367	46510	108696	0	0	8161	574171	0	0
2024-09-18 04:12:47			0	37622	0	0	0	23579	22160	161027	27046	1057314	46499	108693	0	0	8161	574154	0	0
2024-09-18 04:13:47			0	37623	0	0	0	23576	22170	161123	27234	1057349	46500	108692	0	0	8161	574082	0	0
2024-09-18 04:14:47			0	37598	0	0	0	23571	22190	161103	27138	1057412	46501	108690	0	0	8160	575025	0	0
2024-09-18 04:15:47			0	37612	0	0	0	23561	22180	161027	26873	1057341	46510	108686	0	0	8161	574493	0	0
2024-09-18 04:16:47			0	37602	0	0	0	23576	22180	161083	27341	1057447	46510	108692	0	0	8160	574896	0	0
2024-09-18 04:17:47			0	37598	0	0	0	23589	22170	161167	27492	1057385	46500	108697	0	0	8160	575089	0	0
2024-09-18 04:18:47			0	37595	0	0	0	23576	22170	161151	27050	1057305	46510	108692	0	0	8160	575210	0	0
2024-09-18 04:19:47			0	37608	0	0	0	23586	22170	161235	26953	1057376	46510	108696	0	0	8160	574686	0	0
2024-09-18 04:20:47			0	37616	0	0	0	23568	22170	161143	27171	1057349	46510	108689	0	0	8161	574364	0	0
2024-09-18 04:21:47			0	37623	0	0	0	23586	22180	161107	27126	1057421	46500	108696	0	0	8161	574050	0	0
2024-09-18 04:22:47			0	37626	0	0	0	23586	22170	161183	27255	1057429	46510	108696	0	0	8161	573961	0	0
2024-09-18 04:23:47			0	37623	0	0	0	23581	22170	161027	27093	1057412	46500	108694	0	0	8161	574082	0	0
2024-09-18 04:24:47			0	37638	0	0	0	23586	22170	160991	27272	1057412	46510	108696	0	0	8162	573478	0	0
2024-09-18 04:25:47			0	37641	0	0	0	23589	22170	160919	27142	1057403	46510	108697	0	0	8162	573357	0	0
2024-09-18 04:26:47			0	37635	0	0	0	23602	22170	161007	27107	1057429	46500	108702	0	0	8162	573599	0	0
2024-09-18 04:27:47			0	37649	0	0	0	23586	22180	160991	27107	1057483	46500	108696	0	0	8163	573004	0	0
2024-09-18 04:28:47			0	37657	0	0	0	23602	22180	160931	27327	1057403	46511	108702	0	0	8163	572682	0	0
2024-09-18 04:29:47			0	37650	0	0	0	23584	22180	161015	27445	1057474	46510	108695	0	0	8163	572963	0	0
2024-09-18 04:30:47			0	37658	0	0	0	23597	22180	160975	27194	1057421	46521	108700	0	0	8163	572642	0	0
2024-09-18 04:31:47			0	37654	0	0	0	23605	22180	160987	27100	1057421	46510	108703	0	0	8163	572802	0	0
2024-09-18 04:32:47			0	37648	0	0	0	23615	22190	160935	27374	1057492	46512	108707	0	0	8162	573012	0	0
2024-09-18 04:33:47			0	37687	0	0	0	23620	22190	160835	27072	1057439	46512	108709	0	0	8165	571445	0	0
2024-09-18 04:34:47			0	37667	0	0	0	23631	22180	160799	27294	1057456	46500	108713	0	0	8163	572280	0	0
2024-09-18 04:35:47			0	37674	0	0	0	23625	22190	160835	27246	1057527	46525	108711	0	0	8164	571967	0	0
2024-09-18 04:36:47			0	37682	0	0	0	23625	22190	160867	27215	1057501	46513	108711	0	0	8164	571645	0	0
2024-09-18 04:37:47			0	37673	0	0	0	23636	22200	160883	27440	1057616	46513	108715	0	0	8163	571975	0	0
2024-09-18 04:38:47			0	37670	0	0	0	23638	22200	160999	27223	1057572	46513	108716	0	0	8163	572095	0	0
2024-09-18 04:39:47			0	37660	0	0	0	23628	22210	160875	27386	1057608	46503	108712	0	0	8163	572465	0	0
2024-09-18 04:40:47			0	37691	0	0	0	23618	22210	160899	27445	1057555	46503	108708	0	0	8165	571220	0	0
2024-09-18 04:41:47			0	37691	0	0	0	23618	22210	160843	27286	1057581	46514	108708	0	0	8165	571220	0	0
2024-09-18 04:42:47			0	37687	0	0	0	23628	22210	160823	27502	1057617	46515	108712	0	0	8165	571381	0	0
2024-09-18 04:43:47			0	37663	0	0	0	23615	22210	160867	27154	1057644	46527	108707	0	0	8163	572345	0	0
2024-09-18 04:44:47			0	37669	0	0	0	23631	22220	160783	27313	1057626	46515	108713	0	0	8163	572072	0	0
2024-09-18 04:45:47			0	37674	0	0	0	23615	22200	160935	27339	1057572	46513	108707	0	0	8164	571935	0	0
2024-09-18 04:46:47			0	37682	0	0	0	23636	22220	160831	27204	1057599	46494	108715	0	0	8164	571550	0	0
2024-09-18 04:47:47			0	37669	0	0	0	23636	22220	160839	27405	1057608	46515	108715	0	0	8163	572072	0	0
2024-09-18 04:48:47			0	37675	0	0	0	23636	22220	160947	27144	1057653	46515	108715	0	0	8164	571831	0	0
2024-09-18 04:49:47			0	37645	0	0	0	23636	22220	160947	27301	1057679	46527	108715	0	0	8162	573036	0	0
2024-09-18 04:50:47			0	37634	0	0	0	23641	22220	161079	27241	1057653	46504	108717	0	0	8161	573479	0	0
2024-09-18 04:51:47			0	37626	0	0	0	23638	22210	161159	27114	1057617	46504	108716	0	0	8161	573833	0	0
2024-09-18 04:52:47			0	37622	0	0	0	23646	22220	161015	27135	1057599	46494	108719	0	0	8160	573962	0	0
2024-09-18 04:53:47			0	37639	0	0	0	23633	22220	160943	27289	1057608	46504	108714	0	0	8162	573278	0	0
2024-09-18 04:54:47			0	37641	0	0	0	23641	22220	160807	27300	1057635	46504	108717	0	0	8162	573197	0	0
2024-09-18 04:55:47			0	37664	0	0	0	23641	22220	160827	27209	1057679	46504	108717	0	0	8163	572273	0	0
2024-09-18 04:56:47			0	37669	0	0	0	23664	22220	160979	27185	1057608	46504	108726	0	0	8163	572072	0	0
2024-09-18 04:57:47			0	37666	0	0	0	23638	22220	160943	27066	1057635	46515	108716	0	0	8163	572192	0	0
2024-09-18 04:58:47			0	37658	0	0	0	23649	22220	160803	26724	1057661	46515	108720	0	0	8162	572514	0	0
2024-09-18 04:59:47			0	37657	0	0	0	23657	22230	160823	26876	1057617	46505	108723	0	0	8162	572522	0	0
2024-09-18 05:00:47			0	37679	0	0	0	23649	22230	160779	27157	1057706	46496	108720	0	0	8164	571638	0	0
2024-09-18 05:01:47			0	37679	0	0	0	23641	22220	160807	27036	1057653	46515	108717	0	0	8164	571670	0	0
2024-09-18 05:02:47			0	37670	0	0	0	23657	22220	160795	27154	1057742	46504	108723	0	0	8163	572032	0	0
2024-09-18 05:03:47			0	37684	0	0	0	23657	22240	160787	26935	1057742	46496	108723	0	0	8164	571406	0	0
2024-09-18 05:04:47			0	37685	0	0	0	23662	22230	160771	26852	1057679	46506	108725	0	0	8164	571397	0	0
2024-09-18 05:05:47			0	37706	0	0	0	23654	22230	160615	27215	1057653	46517	108722	0	0	8165	570555	0	0
2024-09-18 05:06:47			0	37703	0	0	0	23662	22230	160667	26857	1057724	46516	108725	0	0	8165	570675	0	0
2024-09-18 05:07:47			0	37700	0	0	0	23654	22240	160663	27029	1057724	46506	108722	0	0	8165	570764	0	0
2024-09-18 05:08:47			0	37695	0	0	0	23664	22240	160639	26967	1057724	46506	108726	0	0	8165	570964	0	0
2024-09-18 05:09:47			0	37701	0	0	0	23657	22230	160623	27396	1057759	46529	108723	0	0	8165	570755	0	0
2024-09-18 05:10:47			0	37716	0	0	0	23659	22250	160771	27031	1057760	46518	108724	0	0	8166	570090	0	0
2024-09-18 05:11:47			0	37712	0	0	0	23667	22240	160723	27145	1057715	46517	108727	0	0	8165	570282	0	0
2024-09-18 05:12:47			0	37718	0	0	0	23677	22240	160639	27365	1057777	46529	108731	0	0	8166	570042	0	0
2024-09-18 05:13:47			0	37716	0	0	0	23675	22250	160635	27164	1057813	46518	108730	0	0	8166	570090	0	0
2024-09-18 05:14:47			0	37729	0	0	0	23672	22240	160515	26890	1057777	46506	108729	0	0	8166	569601	0	0
2024-09-18 05:15:47			0	37751	0	0	0	23667	22250	160579	27159	1057760	46518	108727	0	0	8168	568689	0	0
2024-09-18 05:16:47			0	37747	0	0	0	23672	22260	160543	26824	1057804	46498	108729	0	0	8168	568817	0	0
2024-09-18 05:17:47			0	37745	0	0	0	23680	22250	160575	27060	1057840	46530	108732	0	0	8167	568929	0	0
2024-09-18 05:18:47			0	37755	0	0	0	23683	22260	160495	27495	1057831	46498	108733	0	0	8168	568497	0	0
2024-09-18 05:19:47			0	37746	0	0	0	23685	22260	160471	27272	1057831	46508	108734	0	0	8167	568857	0	0
2024-09-18 05:20:47			0	37752	0	0	0	23683	22260	160543	26889	1057804	46519	108733	0	0	8168	568617	0	0
2024-09-18 05:21:47			0	37765	0	0	0	23683	22250	160459	27332	1057769	46519	108733	0	0	8168	568129	0	0
2024-09-18 05:22:47			0	37762	0	0	0	23667	22260	160411	27322	1057840	46520	108727	0	0	8168	568217	0	0
2024-09-18 05:23:47			0	37763	0	0	0	23667	22260	160499	27204	1057840	46509	108727	0	0	8169	568177	0	0
2024-09-18 05:24:47			0	37740	0	0	0	23672	22260	160451	26970	1057831	46519	108729	0	0	8167	569097	0	0
2024-09-18 05:25:47			0	37774	0	0	0	23688	22260	160399	27307	1057857	46508	108735	0	0	8169	567737	0	0
2024-09-18 05:26:47			0	37761	0	0	0	23680	22260	160503	27419	1057946	46532	108732	0	0	8168	568257	0	0
2024-09-18 05:27:47			0	37763	0	0	0	23672	22260	160499	27338	1057786	46520	108729	0	0	8168	568177	0	0
2024-09-18 05:28:47			0	37772	0	0	0	23680	22260	160395	27367	1057831	46498	108732	0	0	8169	567817	0	0
2024-09-18 05:29:47			0	37774	0	0	0	23690	22270	160439	27396	1057822	46509	108736	0	0	8169	567705	0	0
2024-09-18 05:30:47			0	37751	0	0	0	23675	22260	160491	27428	1057866	46520	108730	0	0	8168	568657	0	0
2024-09-18 05:31:47			0	37761	0	0	0	23657	22260	160431	27438	1057804	46498	108723	0	0	8169	568257	0	0
2024-09-18 05:32:47			0	37755	0	0	0	23654	22270	160491	27246	1057849	46499	108722	0	0	8168	568465	0	0
2024-09-18 05:33:47			0	37742	0	0	0	23677	22250	160627	27057	1057822	46487	108731	0	0	8167	569049	0	0
2024-09-18 05:34:47			0	37747	0	0	0	23664	22260	160571	27227	1057804	46498	108726	0	0	8168	568817	0	0
2024-09-18 05:35:47			0	37734	0	0	0	23651	22260	160511	27020	1057804	46519	108721	0	0	8167	569337	0	0
2024-09-18 05:36:47			0	37729	0	0	0	23675	22270	160547	27182	1057849	46520	108730	0	0	8166	569506	0	0
2024-09-18 05:37:47			0	37721	0	0	0	23677	22250	160643	27545	1057822	46498	108731	0	0	8166	569890	0	0
2024-09-18 05:38:47			0	37729	0	0	0	23693	22260	160523	27291	1057857	46508	108737	0	0	8166	569538	0	0
2024-09-18 05:39:47			0	37740	0	0	0	23688	22260	160599	27123	1057884	46498	108735	0	0	8167	569097	0	0
2024-09-18 05:40:47			0	37727	0	0	0	23677	22260	160603	27379	1057893	46509	108731	0	0	8166	569618	0	0
2024-09-18 05:41:47			0	37723	0	0	0	23685	22260	160599	27007	1057884	46508	108734	0	0	8166	569778	0	0
2024-09-18 05:42:47			0	37697	0	0	0	23690	22270	160675	27029	1057875	46509	108736	0	0	8164	570788	0	0
2024-09-18 05:43:47			0	37711	0	0	0	23680	22260	160611	27197	1057884	46508	108732	0	0	8165	570259	0	0
2024-09-18 05:44:47			0	37720	0	0	0	23654	22260	160543	27284	1057804	46498	108722	0	0	8166	569898	0	0
2024-09-18 05:45:47			0	37721	0	0	0	23677	22260	160523	27253	1057893	46520	108731	0	0	8166	569858	0	0
2024-09-18 05:46:47			0	37738	0	0	0	23675	22260	160567	27034	1057866	46488	108730	0	0	8167	569177	0	0
2024-09-18 05:47:47			0	37710	0	0	0	23672	22260	160607	26991	1057866	46499	108729	0	0	8165	570299	0	0
2024-09-18 05:48:47			0	37730	0	0	0	23677	22260	160619	27326	1057893	46520	108731	0	0	8166	569498	0	0
2024-09-18 05:49:47			0	37732	0	0	0	23675	22260	160539	26859	1057893	46520	108730	0	0	8167	569417	0	0
2024-09-18 05:50:47			0	37737	0	0	0	23670	22260	160555	27164	1057884	46531	108728	0	0	8167	569217	0	0
2024-09-18 05:51:47			0	37729	0	0	0	23670	22270	160631	27071	1057875	46499	108728	0	0	8167	569506	0	0
2024-09-18 05:52:47			0	37717	0	0	0	23670	22260	160491	27296	1057866	46520	108728	0	0	8166	570018	0	0
2024-09-18 05:53:47			0	37724	0	0	0	23667	22260	160623	27426	1057804	46508	108727	0	0	8166	569738	0	0
2024-09-18 05:54:47			0	37720	0	0	0	23670	22260	160607	27242	1057786	46509	108728	0	0	8166	569898	0	0
2024-09-18 05:55:47			0	37728	0	0	0	23680	22270	160583	27114	1057849	46499	108732	0	0	8166	569546	0	0
2024-09-18 05:56:47			0	37728	0	0	0	23677	22260	160539	27364	1057813	46520	108731	0	0	8166	569578	0	0
2024-09-18 05:57:47			0	37728	0	0	0	23672	22240	160507	27208	1057777	46517	108729	0	0	8166	569641	0	0
2024-09-18 05:58:47			0	37731	0	0	0	23677	22270	160539	27072	1057875	46520	108731	0	0	8167	569426	0	0
2024-09-18 05:59:47			0	37744	0	0	0	23675	22260	160471	27000	1057813	46509	108730	0	0	8167	568937	0	0
2024-09-18 06:00:47			0	37756	0	0	0	23693	22260	160399	27433	1057831	46519	108737	0	0	8168	568457	0	0
2024-09-18 06:01:47			0	37752	0	0	0	23690	22250	160475	27239	1057849	46519	108736	0	0	8167	568649	0	0
2024-09-18 06:02:47			0	37742	0	0	0	23683	22260	160403	27095	1057893	46520	108733	0	0	8167	569017	0	0
2024-09-18 06:03:47			0	37747	0	0	0	23675	22260	160443	27457	1057893	46509	108730	0	0	8167	568817	0	0
2024-09-18 06:04:47			0	37762	0	0	0	23670	22260	160399	27246	1057804	46519	108728	0	0	8168	568217	0	0
2024-09-18 06:05:47			0	37758	0	0	0	23680	22260	160375	27362	1057866	46520	108732	0	0	8168	568377	0	0
2024-09-18 06:06:47			0	37753	0	0	0	23685	22270	160451	27267	1057902	46509	108734	0	0	8168	568545	0	0
2024-09-18 06:07:47			0	37746	0	0	0	23698	22270	160451	27168	1057831	46510	108739	0	0	8167	568825	0	0
2024-09-18 06:08:47			0	37735	0	0	0	23677	22270	160451	27239	1057884	46521	108731	0	0	8167	569265	0	0
2024-09-18 06:09:47			0	37764	0	0	0	23677	22270	160347	27362	1057902	46499	108731	0	0	8168	568105	0	0
2024-09-18 06:10:47			0	37738	0	0	0	23680	22280	160379	27173	1057893	46510	108732	0	0	8167	569114	0	0
2024-09-18 06:11:47			0	37732	0	0	0	23677	22270	160471	27251	1057858	46521	108731	0	0	8167	569386	0	0
2024-09-18 06:12:47			0	37741	0	0	0	23664	22260	160475	26916	1057920	46488	108726	0	0	8167	569057	0	0
2024-09-18 06:13:47			0	37746	0	0	0	23680	22270	160415	27253	1057884	46521	108732	0	0	8167	568825	0	0
2024-09-18 06:14:47			0	37764	0	0	0	23651	22270	160399	27303	1057875	46520	108721	0	0	8169	568105	0	0
2024-09-18 06:15:47			0	37745	0	0	0	23675	22260	160467	26993	1057786	46499	108730	0	0	8167	568897	0	0
2024-09-18 06:16:47			0	37757	0	0	0	23677	22260	160487	27229	1057804	46519	108731	0	0	8168	568417	0	0
2024-09-18 06:17:47			0	37771	0	0	0	23690	22270	160375	27166	1057875	46509	108736	0	0	8169	567825	0	0
2024-09-18 06:18:47			0	37762	0	0	0	23672	22250	160423	27263	1057795	46508	108729	0	0	8168	568248	0	0
2024-09-18 06:19:47			0	37771	0	0	0	23680	22250	160391	27074	1057849	46519	108732	0	0	8169	567889	0	0
2024-09-18 06:20:47			0	37813	0	0	0	23701	22270	160363	27291	1057884	46510	108740	0	0	8171	566148	0	0
2024-09-18 06:21:47			0	37809	0	0	0	23706	22250	160259	27194	1057893	46518	108742	0	0	8171	566371	0	0
2024-09-18 06:22:47			0	37823	0	0	0	23688	22270	160251	27081	1057964	46521	108735	0	0	8172	565749	0	0
2024-09-18 06:23:47			0	37831	0	0	0	23690	22260	160207	27277	1057911	46498	108736	0	0	8172	565461	0	0
2024-09-18 06:24:47			0	37817	0	0	0	23698	22270	160259	27256	1057911	46510	108739	0	0	8171	565988	0	0
2024-09-18 06:25:47			0	37830	0	0	0	23680	22280	160211	27351	1057947	46510	108732	0	0	8172	565438	0	0
2024-09-18 06:26:47			0	37817	0	0	0	23680	22270	160179	27112	1057911	46521	108732	0	0	8172	565988	0	0
2024-09-18 06:27:47			0	37827	0	0	0	23675	22280	160151	26949	1057982	46522	108730	0	0	8172	565558	0	0
2024-09-18 06:28:47			0	37823	0	0	0	23664	22270	160155	27476	1057849	46488	108726	0	0	8172	565749	0	0
2024-09-18 06:29:47			0	37818	0	0	0	23690	22270	160163	27112	1057849	46499	108736	0	0	8171	565948	0	0
2024-09-18 06:30:47			0	37825	0	0	0	23675	22260	160131	27409	1057840	46520	108730	0	0	8172	565701	0	0
2024-09-18 06:31:47			0	37821	0	0	0	23683	22260	160183	27123	1057884	46519	108733	0	0	8172	565860	0	0
2024-09-18 06:32:47			0	37815	0	0	0	23675	22270	160183	27329	1057911	46533	108730	0	0	8172	566068	0	0
2024-09-18 06:33:47			0	37800	0	0	0	23672	22270	160159	27265	1057902	46520	108729	0	0	8171	566667	0	0
2024-09-18 06:34:47			0	37804	0	0	0	23677	22260	160083	27326	1057920	46509	108731	0	0	8171	566539	0	0
2024-09-18 06:35:47			0	37823	0	0	0	23680	22270	160191	27201	1057884	46521	108732	0	0	8172	565749	0	0
2024-09-18 06:36:47			0	37816	0	0	0	23677	22270	160135	27293	1057929	46509	108731	0	0	8172	566028	0	0
2024-09-18 06:37:47			0	37835	0	0	0	23683	22270	160027	26937	1057875	46520	108733	0	0	8173	565270	0	0
2024-09-18 06:38:47			0	37819	0	0	0	23675	22270	160187	27149	1057858	46521	108730	0	0	8172	565908	0	0
2024-09-18 06:39:47			0	37837	0	0	0	23672	22270	160271	27364	1057911	46500	108729	0	0	8173	565191	0	0
2024-09-18 06:40:47			0	37825	0	0	0	23672	22270	160143	27379	1057884	46500	108729	0	0	8172	565669	0	0
2024-09-18 06:41:47			0	37814	0	0	0	23672	22270	160131	27355	1057858	46510	108729	0	0	8172	566108	0	0
2024-09-18 06:42:47			0	37817	0	0	0	23688	22260	160231	27208	1057840	46509	108735	0	0	8171	566020	0	0
2024-09-18 06:43:47			0	37842	0	0	0	23680	22270	160187	27201	1057929	46499	108732	0	0	8173	564992	0	0
2024-09-18 06:44:47			0	37843	0	0	0	23683	22270	160151	27618	1057911	46510	108733	0	0	8173	564952	0	0
2024-09-18 06:45:47			0	37826	0	0	0	23675	22260	160095	27377	1057857	46508	108730	0	0	8172	565661	0	0
2024-09-18 06:46:47			0	37835	0	0	0	23654	22270	160127	27203	1057875	46520	108722	0	0	8173	565270	0	0
2024-09-18 06:47:47			0	37804	0	0	0	23662	22270	160159	27107	1057858	46510	108725	0	0	8171	566507	0	0
2024-09-18 06:48:47			0	37823	0	0	0	23667	22270	160119	26824	1057902	46509	108727	0	0	8172	565749	0	0
2024-09-18 06:49:47			0	37803	0	0	0	23664	22270	160211	27282	1057875	46499	108726	0	0	8171	566547	0	0
2024-09-18 06:50:47			0	37811	0	0	0	23670	22260	160203	27189	1057831	46519	108728	0	0	8171	566259	0	0
2024-09-18 06:51:47			0	37819	0	0	0	23664	22250	160203	27263	1057795	46508	108726	0	0	8172	565972	0	0
2024-09-18 06:52:47			0	37801	0	0	0	23672	22260	160227	27012	1057813	46520	108729	0	0	8171	566658	0	0
2024-09-18 06:53:47			0	37808	0	0	0	23662	22270	160219	27218	1057902	46520	108725	0	0	8171	566347	0	0
2024-09-18 06:54:47			0	37811	0	0	0	23662	22260	160155	27353	1057786	46520	108725	0	0	8171	566259	0	0
2024-09-18 06:55:47			0	37800	0	0	0	23651	22260	160139	27033	1057804	46498	108721	0	0	8171	566698	0	0
2024-09-18 06:56:47			0	37825	0	0	0	23657	22260	160227	27183	1057804	46519	108723	0	0	8172	565701	0	0
2024-09-18 06:57:47			0	37801	0	0	0	23641	22260	160215	27251	1057831	46519	108717	0	0	8171	566658	0	0
2024-09-18 06:58:47			0	37810	0	0	0	23664	22260	160155	27313	1057760	46509	108726	0	0	8171	566299	0	0
2024-09-18 06:59:47			0	37791	0	0	0	23649	22240	160227	26920	1057777	46517	108720	0	0	8170	567121	0	0
2024-09-18 07:00:47			0	37801	0	0	0	23657	22240	160167	27280	1057751	46506	108723	0	0	8171	566722	0	0
2024-09-18 07:01:47			0	37798	0	0	0	23654	22240	160243	27074	1057751	46506	108722	0	0	8171	566841	0	0
2024-09-18 07:02:47			0	37802	0	0	0	23641	22250	160139	27086	1057795	46498	108717	0	0	8171	566650	0	0
2024-09-18 07:03:47			0	37809	0	0	0	23670	22250	160235	27365	1057786	46497	108728	0	0	8171	566371	0	0
2024-09-18 07:04:47			0	37821	0	0	0	23662	22240	160163	27010	1057724	46517	108725	0	0	8172	565923	0	0
2024-09-18 07:05:47			0	37790	0	0	0	23664	22240	160143	27111	1057804	46506	108726	0	0	8170	567161	0	0
2024-09-18 07:06:47			0	37806	0	0	0	23657	22250	160251	27303	1057760	46507	108723	0	0	8171	566490	0	0
2024-09-18 07:07:47			0	37816	0	0	0	23664	22250	160207	27428	1057822	46498	108726	0	0	8172	566091	0	0
2024-09-18 07:08:47			0	37817	0	0	0	23649	22250	160167	27204	1057840	46507	108720	0	0	8172	566051	0	0
2024-09-18 07:09:47			0	37803	0	0	0	23651	22250	160171	27305	1057849	46519	108721	0	0	8171	566610	0	0
2024-09-18 07:10:47			0	37810	0	0	0	23651	22230	160255	27306	1057839	46506	108721	0	0	8171	566394	0	0
2024-09-18 07:11:47			0	37793	0	0	0	23646	22250	160195	27286	1057795	46508	108719	0	0	8171	567010	0	0
2024-09-18 07:12:47			0	37821	0	0	0	23670	22250	160343	26996	1057822	46508	108728	0	0	8172	565892	0	0
2024-09-18 07:13:47			0	37801	0	0	0	23651	22240	160199	26769	1057795	46506	108721	0	0	8171	566722	0	0
2024-09-18 07:14:47			0	37818	0	0	0	23659	22250	160183	27026	1057769	46508	108724	0	0	8172	566012	0	0
2024-09-18 07:15:47			0	37816	0	0	0	23659	22250	160191	27230	1057786	46507	108724	0	0	8172	566091	0	0
2024-09-18 07:16:47			0	37809	0	0	0	23670	22250	160171	27163	1057786	46507	108728	0	0	8171	566371	0	0
2024-09-18 07:17:47			0	37808	0	0	0	23654	22240	160095	27386	1057804	46506	108722	0	0	8171	566442	0	0
2024-09-18 07:18:47			0	37798	0	0	0	23649	22250	160143	27294	1057822	46508	108720	0	0	8171	566810	0	0
2024-09-18 07:19:47			0	37813	0	0	0	23649	22250	160155	27338	1057786	46497	108720	0	0	8172	566211	0	0
2024-09-18 07:20:47			0	37804	0	0	0	23657	22250	160171	27038	1057733	46497	108723	0	0	8171	566570	0	0
2024-09-18 07:21:47			0	37806	0	0	0	23649	22250	160095	27251	1057840	46486	108720	0	0	8171	566490	0	0
2024-09-18 07:22:47			0	37815	0	0	0	23670	22240	160179	27405	1057831	46485	108728	0	0	8171	566163	0	0
2024-09-18 07:23:47			0	37814	0	0	0	23657	22250	160199	27294	1057813	46497	108723	0	0	8172	566171	0	0
2024-09-18 07:24:47			0	37799	0	0	0	23651	22250	160163	27377	1057769	46508	108721	0	0	8171	566770	0	0
2024-09-18 07:25:47			0	37814	0	0	0	23646	22250	160175	27218	1057795	46498	108719	0	0	8172	566171	0	0
2024-09-18 07:26:47			0	37792	0	0	0	23649	22250	160139	27182	1057760	46507	108720	0	0	8171	567049	0	0
2024-09-18 07:27:47			0	37814	0	0	0	23636	22250	160235	27429	1057822	46498	108715	0	0	8172	566171	0	0
2024-09-18 07:28:47			0	37812	0	0	0	23646	22240	160243	27332	1057751	46496	108719	0	0	8172	566282	0	0
2024-09-18 07:29:47			0	37808	0	0	0	23641	22240	160107	27145	1057777	46496	108717	0	0	8172	566442	0	0
2024-09-18 07:30:47			0	37802	0	0	0	23662	22250	160187	27001	1057733	46507	108725	0	0	8171	566650	0	0
2024-09-18 07:31:47			0	37805	0	0	0	23651	22240	160207	27557	1057724	46517	108721	0	0	8171	566562	0	0
2024-09-18 07:32:47			0	37797	0	0	0	23651	22240	160143	27281	1057777	46485	108721	0	0	8171	566881	0	0
2024-09-18 07:33:47			0	37805	0	0	0	23641	22230	160063	27041	1057759	46506	108717	0	0	8171	566594	0	0
2024-09-18 07:34:47			0	37800	0	0	0	23631	22240	160143	27390	1057768	46496	108713	0	0	8171	566762	0	0
2024-09-18 07:35:47			0	37787	0	0	0	23651	22240	160259	27371	1057742	46496	108721	0	0	8170	567281	0	0
2024-09-18 07:36:47			0	37801	0	0	0	23646	22240	160215	27187	1057715	46506	108719	0	0	8171	566722	0	0
2024-09-18 07:37:47			0	37796	0	0	0	23631	22240	160187	27419	1057724	46496	108713	0	0	8171	566921	0	0
2024-09-18 07:38:47			0	37776	0	0	0	23631	22230	160187	27274	1057733	46485	108713	0	0	8170	567752	0	0
2024-09-18 07:39:47			0	37808	0	0	0	23623	22220	160227	27279	1057661	46504	108710	0	0	8172	566505	0	0
2024-09-18 07:40:47			0	37791	0	0	0	23631	22240	160155	27218	1057662	46506	108713	0	0	8171	567121	0	0
2024-09-18 07:41:47			0	37790	0	0	0	23625	22230	160271	27338	1057759	46529	108711	0	0	8171	567193	0	0
2024-09-18 07:42:47			0	37782	0	0	0	23633	22230	160275	27296	1057759	46506	108714	0	0	8170	567512	0	0
2024-09-18 07:43:47			0	37795	0	0	0	23631	22240	160239	27383	1057608	46496	108713	0	0	8171	566961	0	0
2024-09-18 07:44:47			0	37781	0	0	0	23631	22230	160219	27312	1057670	46505	108713	0	0	8170	567552	0	0
2024-09-18 07:45:47			0	37789	0	0	0	23631	22230	160271	27121	1057670	46505	108713	0	0	8171	567233	0	0
2024-09-18 07:46:47			0	37776	0	0	0	23631	22230	160247	27476	1057724	46505	108713	0	0	8170	567752	0	0
2024-09-18 07:47:47			0	37794	0	0	0	23636	22230	160247	27346	1057644	46516	108715	0	0	8171	567033	0	0
2024-09-18 07:48:47			0	37807	0	0	0	23623	22230	160303	27272	1057697	46495	108710	0	0	8172	566514	0	0
2024-09-18 07:49:47			0	37787	0	0	0	23620	22240	160231	27196	1057688	46517	108709	0	0	8171	567281	0	0
2024-09-18 07:50:47			0	37774	0	0	0	23623	22220	160251	27339	1057635	46504	108710	0	0	8170	567864	0	0
2024-09-18 07:51:47			0	37789	0	0	0	23625	22220	160391	27201	1057715	46504	108711	0	0	8171	567264	0	0
2024-09-18 07:52:47			0	37784	0	0	0	23618	22220	160271	27199	1057688	46504	108708	0	0	8170	567464	0	0
2024-09-18 07:53:47			0	37783	0	0	0	23620	22220	160271	27256	1057688	46504	108709	0	0	8170	567504	0	0
2024-09-18 07:54:47			0	37785	0	0	0	23628	22220	160367	26942	1057653	46504	108712	0	0	8170	567424	0	0
2024-09-18 07:55:47			0	37791	0	0	0	23631	22220	160375	27476	1057679	46515	108713	0	0	8171	567184	0	0
2024-09-18 07:56:47			0	37786	0	0	0	23612	22210	160339	27313	1057644	46494	108706	0	0	8171	567416	0	0
2024-09-18 07:57:47			0	37778	0	0	0	23620	22210	160311	27128	1057617	46504	108709	0	0	8170	567736	0	0
2024-09-18 07:58:47			0	37796	0	0	0	23618	22220	160275	27317	1057581	46515	108708	0	0	8171	566985	0	0
2024-09-18 07:59:47			0	37752	0	0	0	23623	22220	160331	26993	1057688	46515	108710	0	0	8168	568744	0	0
2024-09-18 08:00:47			0	37765	0	0	0	23625	22210	160403	27244	1057617	46494	108711	0	0	8169	568255	0	0
2024-09-18 08:01:47			0	37770	0	0	0	23623	22220	160519	27064	1057635	46504	108710	0	0	8170	568024	0	0
2024-09-18 08:02:47			0	37777	0	0	0	23620	22220	160411	27057	1057661	46515	108709	0	0	8170	567744	0	0
2024-09-18 08:03:47			0	37778	0	0	0	23612	22210	160419	27137	1057644	46483	108706	0	0	8170	567736	0	0
2024-09-18 08:04:47			0	37774	0	0	0	23618	22210	160443	27121	1057608	46503	108708	0	0	8170	567896	0	0
2024-09-18 08:05:47			0	37777	0	0	0	23618	22210	160447	27216	1057635	46514	108708	0	0	8170	567776	0	0
2024-09-18 08:06:47			0	37781	0	0	0	23615	22210	160411	26866	1057608	46503	108707	0	0	8170	567616	0	0
2024-09-18 08:07:47			0	37779	0	0	0	23628	22220	160487	27274	1057626	46494	108712	0	0	8170	567664	0	0
2024-09-18 08:08:47			0	37783	0	0	0	23615	22210	160419	27547	1057617	46494	108707	0	0	8170	567536	0	0
2024-09-18 08:09:47			0	37769	0	0	0	23615	22220	160603	27071	1057626	46504	108707	0	0	8170	568064	0	0
2024-09-18 08:10:47			0	37785	0	0	0	23607	22210	160479	27308	1057617	46504	108704	0	0	8171	567456	0	0
2024-09-18 08:11:47			0	37774	0	0	0	23610	22220	160475	27462	1057626	46515	108705	0	0	8170	567864	0	0
2024-09-18 08:12:47			0	37770	0	0	0	23615	22210	160447	27455	1057617	46504	108707	0	0	8170	568055	0	0
2024-09-18 08:13:47			0	37780	0	0	0	23615	22210	160299	27213	1057608	46493	108707	0	0	8170	567656	0	0
2024-09-18 08:14:47			0	37796	0	0	0	23602	22200	160299	27350	1057546	46502	108702	0	0	8171	567048	0	0
2024-09-18 08:15:47			0	37797	0	0	0	23615	22210	160351	27365	1057590	46515	108707	0	0	8171	566976	0	0
2024-09-18 08:16:47			0	37791	0	0	0	23602	22200	160367	27543	1057599	46502	108702	0	0	8171	567248	0	0
2024-09-18 08:17:47			0	37791	0	0	0	23576	22210	160331	27528	1057608	46493	108692	0	0	8172	567216	0	0
2024-09-18 08:18:47			0	37779	0	0	0	23563	22210	160459	27176	1057555	46503	108687	0	0	8171	567696	0	0
2024-09-18 08:19:47			0	37764	0	0	0	23540	22200	160515	27137	1057510	46481	108678	0	0	8170	568327	0	0
2024-09-18 08:20:47			0	37768	0	0	0	23576	22200	160459	27090	1057492	46502	108692	0	0	8170	568167	0	0
2024-09-18 08:21:47			0	37751	0	0	0	23594	22200	160395	27445	1057546	46492	108699	0	0	8169	568847	0	0
2024-09-18 08:22:47			0	37760	0	0	0	23592	22180	160499	27090	1057510	46490	108698	0	0	8169	568551	0	0
2024-09-18 08:23:47			0	37771	0	0	0	23597	22180	160495	27142	1057501	46500	108700	0	0	8170	568111	0	0
2024-09-18 08:24:47			0	37770	0	0	0	23607	22180	160447	27109	1057536	46490	108704	0	0	8170	568151	0	0
2024-09-18 08:25:47			0	37760	0	0	0	23594	22190	160335	27237	1057501	46492	108699	0	0	8169	568519	0	0
2024-09-18 08:26:47			0	37767	0	0	0	23589	22180	160483	27286	1057536	46500	108697	0	0	8170	568271	0	0
2024-09-18 08:27:47			0	37781	0	0	0	23592	22190	160419	27201	1057527	46502	108698	0	0	8171	567679	0	0
2024-09-18 08:28:47			0	37783	0	0	0	23589	22190	160479	27225	1057572	46491	108697	0	0	8171	567599	0	0
2024-09-18 08:29:47			0	37764	0	0	0	23594	22190	160539	27104	1057492	46491	108699	0	0	8170	568359	0	0
2024-09-18 08:30:47			0	37775	0	0	0	23597	22180	160479	27256	1057536	46500	108700	0	0	8170	567951	0	0
2024-09-18 08:31:47			0	37772	0	0	0	23605	22190	160439	27163	1057545	46491	108703	0	0	8170	568039	0	0
2024-09-18 08:32:47			0	37790	0	0	0	23597	22190	160431	27225	1057519	46501	108700	0	0	8171	567319	0	0
2024-09-18 08:33:47			0	37771	0	0	0	23602	22190	160431	27138	1057572	46501	108702	0	0	8170	568079	0	0
2024-09-18 08:34:47			0	37766	0	0	0	23589	22190	160407	27159	1057545	46512	108697	0	0	8170	568279	0	0
2024-09-18 08:35:47			0	37769	0	0	0	23584	22180	160327	27166	1057483	46479	108695	0	0	8170	568191	0	0
2024-09-18 08:36:47			0	37764	0	0	0	23566	22190	160383	27241	1057501	46502	108688	0	0	8170	568359	0	0
2024-09-18 08:37:47			0	37763	0	0	0	23566	22200	160467	27140	1057536	46492	108688	0	0	8170	568367	0	0
2024-09-18 08:38:47			0	37761	0	0	0	23568	22190	160535	27180	1057545	46480	108689	0	0	8170	568479	0	0
2024-09-18 08:39:47			0	37754	0	0	0	23571	22180	160459	27607	1057456	46479	108690	0	0	8169	568791	0	0
2024-09-18 08:40:47			0	37749	0	0	0	23574	22180	160531	27332	1057536	46490	108691	0	0	8169	568991	0	0
2024-09-18 08:41:47			0	37755	0	0	0	23584	22180	160515	27137	1057474	46489	108695	0	0	8169	568751	0	0
2024-09-18 08:42:47			0	37766	0	0	0	23592	22180	160515	27331	1057563	46490	108698	0	0	8170	568311	0	0
2024-09-18 08:43:47			0	37754	0	0	0	23594	22180	160519	27260	1057510	46500	108699	0	0	8169	568791	0	0
2024-09-18 08:44:47			0	37762	0	0	0	23586	22180	160543	27171	1057474	46500	108696	0	0	8169	568471	0	0
2024-09-18 08:45:47			0	37749	0	0	0	23581	22190	160471	27126	1057519	46501	108694	0	0	8169	568959	0	0
2024-09-18 08:46:47			0	37751	0	0	0	23574	22160	160495	27365	1057447	46488	108691	0	0	8169	568974	0	0
2024-09-18 08:47:47			0	37747	0	0	0	23581	22180	160551	27161	1057483	46479	108694	0	0	8169	569071	0	0
2024-09-18 08:48:47			0	37746	0	0	0	23586	22170	160567	27246	1057509	46510	108696	0	0	8169	569143	0	0
2024-09-18 08:49:47			0	37753	0	0	0	23584	22180	160487	27194	1057456	46500	108695	0	0	8169	568831	0	0
2024-09-18 08:50:47			0	37738	0	0	0	23586	22180	160471	27218	1057510	46500	108696	0	0	8168	569431	0	0
2024-09-18 08:51:47			0	37749	0	0	0	23586	22180	160535	27088	1057510	46511	108696	0	0	8169	568991	0	0
2024-09-18 08:52:47			0	37755	0	0	0	23581	22180	160543	27078	1057501	46478	108694	0	0	8169	568751	0	0
2024-09-18 08:53:47			0	37737	0	0	0	23571	22170	160595	27343	1057403	46500	108690	0	0	8168	569503	0	0
2024-09-18 08:54:47			0	37720	0	0	0	23571	22180	160603	27128	1057447	46489	108690	0	0	8167	570153	0	0
2024-09-18 08:55:47			0	37738	0	0	0	23558	22180	160587	27071	1057394	46478	108685	0	0	8169	569431	0	0
2024-09-18 08:56:47			0	37730	0	0	0	23571	22170	160643	27286	1057376	46478	108690	0	0	8168	569784	0	0
2024-09-18 08:57:47			0	37741	0	0	0	23561	22170	160607	27222	1057323	46478	108686	0	0	8169	569343	0	0
2024-09-18 08:58:47			0	37737	0	0	0	23555	22160	160603	27400	1057340	46499	108684	0	0	8168	569535	0	0
2024-09-18 08:59:47			0	37731	0	0	0	23558	22160	160619	27441	1057367	46465	108685	0	0	8168	569775	0	0
2024-09-18 09:00:47			0	37749	0	0	0	23568	22160	160639	27189	1057358	46475	108689	0	0	8169	569054	0	0
2024-09-18 09:01:47			0	37735	0	0	0	23563	22160	160627	27279	1057394	46488	108687	0	0	8168	569615	0	0
2024-09-18 09:02:47			0	37745	0	0	0	23558	22160	160567	27034	1057394	46476	108685	0	0	8169	569215	0	0
2024-09-18 09:03:47			0	37742	0	0	0	23558	22160	160563	27111	1057314	46465	108685	0	0	8169	569335	0	0
2024-09-18 09:04:47			0	37735	0	0	0	23561	22160	160623	26928	1057332	46498	108686	0	0	8168	569615	0	0
2024-09-18 09:05:47			0	37737	0	0	0	23558	22150	160643	27582	1057323	46487	108685	0	0	8168	569567	0	0
2024-09-18 09:06:47			0	37739	0	0	0	23566	22160	160471	27455	1057358	46487	108688	0	0	8168	569455	0	0
2024-09-18 09:07:47			0	37745	0	0	0	23563	22160	160507	27436	1057367	46488	108687	0	0	8169	569215	0	0
2024-09-18 09:08:47			0	37744	0	0	0	23553	22150	160475	27258	1057296	46498	108683	0	0	8169	569286	0	0
2024-09-18 09:09:47			0	37746	0	0	0	23553	22150	160575	27322	1057367	46487	108683	0	0	8169	569206	0	0
2024-09-18 09:10:47			0	37754	0	0	0	23540	22160	160479	27301	1057314	46488	108678	0	0	8170	568854	0	0
2024-09-18 09:11:47			0	37766	0	0	0	23535	22150	160579	27327	1057349	46475	108676	0	0	8170	568406	0	0
2024-09-18 09:12:47			0	37751	0	0	0	23542	22150	160499	27128	1057340	46487	108679	0	0	8169	569006	0	0
2024-09-18 09:13:47			0	37757	0	0	0	23540	22140	160551	27378	1057358	46497	108678	0	0	8170	568798	0	0
2024-09-18 09:14:47			0	37744	0	0	0	23537	22140	160451	27275	1057322	46462	108677	0	0	8169	569318	0	0
2024-09-18 09:15:47			0	37757	0	0	0	23535	22150	160515	27334	1057216	46498	108676	0	0	8170	568766	0	0
2024-09-18 09:16:47			0	37751	0	0	0	23542	22130	160515	27081	1057260	46496	108679	0	0	8169	569070	0	0
2024-09-18 09:17:47			0	37756	0	0	0	23535	22130	160463	27100	1057287	46496	108676	0	0	8170	568869	0	0
2024-09-18 09:18:47			0	37755	0	0	0	23532	22140	160575	27395	1057305	46475	108675	0	0	8170	568878	0	0
2024-09-18 09:19:47			0	37766	0	0	0	23514	22130	160595	27194	1057233	46485	108668	0	0	8171	568469	0	0
2024-09-18 09:20:47			0	37784	0	0	0	23524	22130	160591	27263	1057260	46485	108672	0	0	8172	567749	0	0
2024-09-18 09:21:47			0	37776	0	0	0	23524	22130	160475	27301	1057180	46474	108672	0	0	8171	568069	0	0
2024-09-18 09:22:47			0	37788	0	0	0	23511	22130	160571	27239	1057207	46474	108667	0	0	8172	567589	0	0
2024-09-18 09:23:47			0	37764	0	0	0	23522	22120	160575	27130	1057162	46472	108671	0	0	8170	568581	0	0
2024-09-18 09:24:47			0	37779	0	0	0	23524	22120	160491	27201	1057127	46471	108672	0	0	8171	567981	0	0
2024-09-18 09:25:47			0	37785	0	0	0	23535	22120	160523	27031	1057162	46484	108676	0	0	8171	567741	0	0
2024-09-18 09:26:47			0	37779	0	0	0	23519	22120	160375	27355	1057180	46483	108670	0	0	8171	567981	0	0
2024-09-18 09:27:47			0	37783	0	0	0	23527	22120	160487	27190	1057162	46495	108673	0	0	8171	567821	0	0
2024-09-18 09:28:47			0	37788	0	0	0	23524	22130	160479	27208	1057198	46506	108672	0	0	8172	567589	0	0
2024-09-18 09:29:47			0	37784	0	0	0	23519	22130	160451	27516	1057171	46506	108670	0	0	8172	567749	0	0
2024-09-18 09:30:47			0	37767	0	0	0	23506	22130	160479	27152	1057171	46474	108665	0	0	8171	568429	0	0
2024-09-18 09:31:47			0	37792	0	0	0	23496	22120	160471	27242	1057136	46472	108661	0	0	8173	567461	0	0
2024-09-18 09:32:47			0	37776	0	0	0	23485	22110	160427	27365	1057144	46482	108657	0	0	8172	568132	0	0
2024-09-18 09:33:47			0	37760	0	0	0	23451	22120	160495	27137	1057056	46495	108644	0	0	8171	568741	0	0
2024-09-18 09:34:47			0	37759	0	0	0	23459	22110	160591	27144	1057082	46459	108647	0	0	8171	568813	0	0
2024-09-18 09:35:47			0	37771	0	0	0	23509	22110	160639	27052	1057055	46482	108666	0	0	8171	568332	0	0
2024-09-18 09:36:47			0	37763	0	0	0	23485	22090	160603	27317	1057029	46468	108657	0	0	8171	568716	0	0
2024-09-18 09:37:47			0	37757	0	0	0	23493	22110	160595	27189	1057029	46493	108660	0	0	8170	568893	0	0
2024-09-18 09:38:47			0	37755	0	0	0	23485	22080	160655	26826	1057064	46468	108657	0	0	8170	569068	0	0
2024-09-18 09:39:47			0	37754	0	0	0	23509	22090	160679	27338	1057002	46491	108666	0	0	8170	569076	0	0
2024-09-18 09:40:47			0	37760	0	0	0	23493	22090	160583	27209	1057029	46491	108660	0	0	8171	568836	0	0
2024-09-18 09:41:47			0	37767	0	0	0	23464	22090	160543	27343	1057109	46468	108649	0	0	8171	568556	0	0
2024-09-18 09:42:47			0	37765	0	0	0	23493	22090	160611	27384	1057055	46491	108660	0	0	8171	568636	0	0
2024-09-18 09:43:47			0	37765	0	0	0	23519	22100	160603	27312	1057118	46492	108670	0	0	8170	568604	0	0
2024-09-18 09:44:47			0	37761	0	0	0	23511	22100	160611	27561	1057091	46492	108667	0	0	8170	568764	0	0
2024-09-18 09:45:47			0	37777	0	0	0	23506	22100	160535	27526	1057064	46481	108665	0	0	8171	568124	0	0
2024-09-18 09:46:47			0	37783	0	0	0	23501	22100	160563	27407	1057144	46502	108663	0	0	8172	567884	0	0
2024-09-18 09:47:47			0	37775	0	0	0	23503	22110	160523	27440	1057082	46482	108664	0	0	8171	568172	0	0
2024-09-18 09:48:47			0	37782	0	0	0	23496	22110	160567	27336	1057109	46482	108661	0	0	8172	567892	0	0
2024-09-18 09:49:47			0	37781	0	0	0	23483	22110	160487	27389	1057082	46493	108656	0	0	8172	567933	0	0
2024-09-18 09:50:47			0	37784	0	0	0	23496	22110	160495	27329	1057082	46482	108661	0	0	8172	567812	0	0
2024-09-18 09:51:47			0	37786	0	0	0	23496	22090	160487	27518	1057082	46468	108661	0	0	8172	567796	0	0
2024-09-18 09:52:47			0	37791	0	0	0	23485	22100	160439	27211	1057011	46469	108657	0	0	8173	567564	0	0
2024-09-18 09:53:47			0	37799	0	0	0	23464	22100	160423	27348	1057091	46469	108649	0	0	8173	567245	0	0
2024-09-18 09:54:47			0	37789	0	0	0	23496	22080	160475	27291	1057037	46480	108661	0	0	8172	567708	0	0
2024-09-18 09:55:47			0	37787	0	0	0	23433	22100	160435	27206	1057064	46502	108637	0	0	8173	567724	0	0
2024-09-18 09:56:47			0	37779	0	0	0	23470	22090	160423	27164	1057029	46491	108651	0	0	8172	568076	0	0
2024-09-18 09:57:47			0	37787	0	0	0	23483	22080	160495	27251	1056984	46491	108656	0	0	8172	567788	0	0
2024-09-18 09:58:47			0	37781	0	0	0	23451	22090	160411	27365	1057020	46458	108644	0	0	8172	567996	0	0
2024-09-18 09:59:47			0	37779	0	0	0	23493	22080	160559	27223	1056957	46468	108660	0	0	8172	568108	0	0
2024-09-18 10:00:47			0	37773	0	0	0	23493	22080	160475	27078	1056984	46480	108660	0	0	8171	568348	0	0
2024-09-18 10:01:47			0	37786	0	0	0	23454	22080	160399	27275	1056984	46491	108645	0	0	8173	567828	0	0
2024-09-18 10:02:47			0	37789	0	0	0	23509	22080	160523	27332	1057011	46491	108666	0	0	8172	567708	0	0
2024-09-18 10:03:47			0	37785	0	0	0	23493	22090	160515	27762	1056993	46501	108660	0	0	8172	567836	0	0
2024-09-18 10:04:47			0	37782	0	0	0	23472	22090	160439	27251	1056993	46480	108652	0	0	8172	567956	0	0
2024-09-18 10:05:47			0	37790	0	0	0	23457	22090	160523	27216	1056975	46491	108646	0	0	8173	567636	0	0
2024-09-18 10:06:47			0	37777	0	0	0	23425	22080	160543	27327	1056957	46458	108634	0	0	8173	568188	0	0
2024-09-18 10:07:47			0	37751	0	0	0	23436	22070	160523	27428	1056966	46466	108638	0	0	8171	569260	0	0
2024-09-18 10:08:47			0	37770	0	0	0	23446	22070	160583	27211	1056913	46456	108642	0	0	8172	568499	0	0
2024-09-18 10:09:47			0	37772	0	0	0	23402	22070	160567	27339	1056913	46466	108625	0	0	8173	568419	0	0
2024-09-18 10:10:47			0	37766	0	0	0	23407	22060	160603	27428	1056841	46445	108627	0	0	8172	568691	0	0
2024-09-18 10:11:47			0	37768	0	0	0	23483	22060	160543	27460	1056868	46466	108656	0	0	8171	568611	0	0
2024-09-18 10:12:47			0	37760	0	0	0	23498	22050	160651	27275	1056850	46476	108662	0	0	8170	568963	0	0
2024-09-18 10:13:47			0	37764	0	0	0	23485	22060	160675	27241	1056912	46488	108657	0	0	8171	568771	0	0
2024-09-18 10:14:47			0	37776	0	0	0	23470	22070	160567	27059	1056957	46489	108651	0	0	8172	568259	0	0
2024-09-18 10:15:47			0	37775	0	0	0	23457	22070	160471	27329	1056930	46489	108646	0	0	8172	568299	0	0
2024-09-18 10:16:47			0	37772	0	0	0	23483	22060	160663	27353	1056921	46478	108656	0	0	8171	568451	0	0
2024-09-18 10:17:47			0	37770	0	0	0	23496	22060	160647	27206	1056921	46489	108661	0	0	8171	568531	0	0
2024-09-18 10:18:47			0	37769	0	0	0	23472	22080	160671	27312	1056948	46479	108652	0	0	8171	568508	0	0
2024-09-18 10:19:47			0	37770	0	0	0	23446	22070	160539	27514	1056984	46489	108642	0	0	8172	568499	0	0
2024-09-18 10:20:47			0	37765	0	0	0	23477	22070	160615	27303	1056966	46478	108654	0	0	8171	568699	0	0
2024-09-18 10:21:47			0	37774	0	0	0	23514	22080	160663	27060	1057011	46480	108668	0	0	8171	568308	0	0
2024-09-18 10:22:47			0	37779	0	0	0	23503	22080	160571	27220	1057028	46479	108664	0	0	8171	568108	0	0
2024-09-18 10:23:47			0	37799	0	0	0	23477	22070	160531	27488	1057019	46489	108654	0	0	8173	567339	0	0
2024-09-18 10:24:47			0	37776	0	0	0	23480	22060	160587	27384	1056975	46489	108655	0	0	8172	568291	0	0
2024-09-18 10:25:47			0	37771	0	0	0	23493	22080	160571	27372	1057002	46479	108660	0	0	8171	568428	0	0
2024-09-18 10:26:47			0	37790	0	0	0	23490	22080	160527	27428	1056975	46467	108659	0	0	8172	567668	0	0
2024-09-18 10:27:47			0	37782	0	0	0	23503	22080	160463	27433	1057064	46468	108664	0	0	8172	567987	0	0
2024-09-18 10:28:47			0	37782	0	0	0	23511	22090	160471	27303	1057029	46480	108667	0	0	8172	567956	0	0
2024-09-18 10:29:47			0	37803	0	0	0	23514	22070	160535	27130	1057010	46489	108668	0	0	8173	567180	0	0
2024-09-18 10:30:47			0	37798	0	0	0	23490	22090	160423	27511	1057046	46501	108659	0	0	8173	567316	0	0
2024-09-18 10:31:47			0	37809	0	0	0	23485	22080	160455	27043	1057055	46500	108657	0	0	8174	566908	0	0
2024-09-18 10:32:47			0	37796	0	0	0	23475	22090	160451	27364	1057055	46480	108653	0	0	8173	567396	0	0
2024-09-18 10:33:47			0	37804	0	0	0	23498	22090	160451	26934	1057046	46468	108662	0	0	8173	567076	0	0
2024-09-18 10:34:47			0	37807	0	0	0	23454	22090	160511	27293	1057020	46491	108645	0	0	8174	566957	0	0
2024-09-18 10:35:47			0	37801	0	0	0	23490	22080	160435	27234	1057082	46490	108659	0	0	8173	567228	0	0
2024-09-18 10:36:47			0	37796	0	0	0	23438	22080	160283	27300	1057028	46479	108639	0	0	8174	567428	0	0
2024-09-18 10:37:47			0	37804	0	0	0	23451	22080	160439	27277	1057011	46480	108644	0	0	8174	567108	0	0
2024-09-18 10:38:47			0	37803	0	0	0	23490	22080	160535	27329	1056948	46490	108659	0	0	8173	567148	0	0
2024-09-18 10:39:47			0	37794	0	0	0	23470	22080	160583	27079	1057002	46467	108651	0	0	8173	567508	0	0
2024-09-18 10:40:47			0	37794	0	0	0	23501	22080	160491	26894	1057011	46468	108663	0	0	8172	567508	0	0
2024-09-18 10:41:47			0	37801	0	0	0	23399	22080	160439	27029	1056975	46457	108624	0	0	8174	567228	0	0
2024-09-18 10:42:47			0	37779	0	0	0	23410	22070	160543	27204	1056850	46466	108628	0	0	8173	568139	0	0
2024-09-18 10:43:47			0	37791	0	0	0	23441	22060	160539	27398	1056841	46456	108640	0	0	8173	567691	0	0
2024-09-18 10:44:47			0	37781	0	0	0	23472	22060	160551	27260	1056832	46477	108652	0	0	8172	568091	0	0
2024-09-18 10:45:47			0	37780	0	0	0	23496	22050	160639	27405	1056930	46454	108661	0	0	8171	568163	0	0
2024-09-18 10:46:47			0	37795	0	0	0	23516	22070	160523	27286	1056930	46489	108669	0	0	8172	567499	0	0
2024-09-18 10:47:47			0	37794	0	0	0	23501	22060	160667	27130	1057046	46488	108663	0	0	8172	567571	0	0
2024-09-18 10:48:47			0	37800	0	0	0	23519	22080	160563	27351	1057028	46511	108670	0	0	8172	567268	0	0
2024-09-18 10:49:47			0	37796	0	0	0	23501	22080	160431	27441	1057091	46480	108663	0	0	8172	567428	0	0
2024-09-18 10:50:47			0	37816	0	0	0	23496	22080	160515	27253	1057055	46500	108661	0	0	8174	566629	0	0
2024-09-18 10:51:47			0	37821	0	0	0	23470	22090	160463	27062	1057020	46501	108651	0	0	8175	566397	0	0
2024-09-18 10:52:47			0	37823	0	0	0	23485	22080	160375	27599	1057037	46468	108657	0	0	8174	566349	0	0
2024-09-18 10:53:47			0	37828	0	0	0	23483	22080	160411	27564	1057011	46468	108656	0	0	8175	566150	0	0
2024-09-18 10:54:47			0	37829	0	0	0	23511	22080	160383	27312	1057011	46458	108667	0	0	8174	566110	0	0
2024-09-18 10:55:47			0	37817	0	0	0	23516	22080	160447	27351	1057064	46480	108669	0	0	8173	566589	0	0
2024-09-18 10:56:47			0	37837	0	0	0	23535	22080	160463	27391	1057091	46491	108676	0	0	8174	565790	0	0
2024-09-18 10:57:47			0	37839	0	0	0	23503	22100	160503	27131	1057091	46502	108664	0	0	8175	565647	0	0
2024-09-18 10:58:47			0	37837	0	0	0	23535	22110	160395	27104	1057109	46503	108676	0	0	8174	565696	0	0
2024-09-18 10:59:47			0	37833	0	0	0	23519	22100	160423	27251	1057126	46482	108670	0	0	8174	565887	0	0
2024-09-18 11:00:47			0	37825	0	0	0	23485	22110	160387	27507	1057118	46493	108657	0	0	8175	566174	0	0
2024-09-18 11:01:47			0	37835	0	0	0	23464	22110	160347	27251	1057109	46503	108649	0	0	8176	565775	0	0
2024-09-18 11:02:47			0	37825	0	0	0	23446	22120	160239	27150	1057047	46471	108642	0	0	8175	566143	0	0
2024-09-18 11:03:47			0	37825	0	0	0	23477	22090	160291	27100	1057055	46458	108654	0	0	8175	566238	0	0
2024-09-18 11:04:47			0	37831	0	0	0	23511	22100	160319	27131	1057011	46469	108667	0	0	8174	565967	0	0
2024-09-18 11:05:47			0	37819	0	0	0	23527	22090	160363	27190	1057100	46468	108673	0	0	8173	566477	0	0
2024-09-18 11:06:47			0	37849	0	0	0	23516	22100	160387	27180	1057038	46481	108669	0	0	8175	565249	0	0
2024-09-18 11:07:47			0	37845	0	0	0	23522	22110	160319	27317	1057135	46482	108671	0	0	8175	565377	0	0
2024-09-18 11:08:47			0	37848	0	0	0	23532	22100	160267	27254	1057144	46492	108675	0	0	8175	565289	0	0
2024-09-18 11:09:47			0	37855	0	0	0	23545	22090	160359	27352	1057082	46491	108680	0	0	8175	565041	0	0
2024-09-18 11:10:47			0	37841	0	0	0	23553	22100	160375	27187	1057153	46493	108683	0	0	8174	565568	0	0
2024-09-18 11:11:47			0	37847	0	0	0	23540	22110	160291	27556	1057198	46493	108678	0	0	8175	565297	0	0
2024-09-18 11:12:47			0	37843	0	0	0	23545	22120	160235	27367	1057233	46494	108680	0	0	8175	565425	0	0
2024-09-18 11:13:47			0	37843	0	0	0	23532	22110	160219	27260	1057198	46482	108675	0	0	8175	565456	0	0
2024-09-18 11:14:47			0	37852	0	0	0	23550	22110	160307	26868	1057198	46493	108682	0	0	8175	565097	0	0
2024-09-18 11:15:47			0	37856	0	0	0	23522	22130	160319	27274	1057225	46485	108671	0	0	8176	564875	0	0
2024-09-18 11:16:47			0	37850	0	0	0	23454	22120	160059	27261	1057242	46472	108645	0	0	8177	565146	0	0
2024-09-18 11:17:47			0	37859	0	0	0	23477	22110	160307	27348	1057118	46482	108654	0	0	8177	564818	0	0
2024-09-18 11:18:47			0	37859	0	0	0	23464	22120	160227	27227	1057100	46471	108649	0	0	8177	564787	0	0
2024-09-18 11:19:47			0	37866	0	0	0	23506	22110	160243	26909	1057118	46470	108665	0	0	8177	564539	0	0
2024-09-18 11:20:47			0	37854	0	0	0	23501	22110	160351	27261	1057171	46482	108663	0	0	8176	565018	0	0
2024-09-18 11:21:47			0	37860	0	0	0	23470	22110	160167	27322	1057162	46493	108651	0	0	8177	564779	0	0
2024-09-18 11:22:47			0	37846	0	0	0	23488	22100	160207	27588	1057118	46458	108658	0	0	8176	565368	0	0
2024-09-18 11:23:47			0	37869	0	0	0	23501	22100	160179	27547	1057073	46470	108663	0	0	8177	564452	0	0
2024-09-18 11:24:47			0	37864	0	0	0	23490	22100	160219	27327	1057091	46458	108659	0	0	8177	564651	0	0
2024-09-18 11:25:47			0	37866	0	0	0	23516	22100	160279	27462	1057038	46481	108669	0	0	8176	564571	0	0
2024-09-18 11:26:47			0	37861	0	0	0	23532	22100	160319	27192	1057091	46492	108675	0	0	8176	564770	0	0
2024-09-18 11:27:47			0	37876	0	0	0	23522	22100	160155	27218	1057118	46481	108671	0	0	8177	564173	0	0
2024-09-18 11:28:47			0	37882	0	0	0	23524	22120	160119	27362	1057153	46494	108672	0	0	8177	563871	0	0
2024-09-18 11:29:47			0	37878	0	0	0	23509	22110	160095	26887	1057109	46459	108666	0	0	8177	564062	0	0
2024-09-18 11:30:47			0	37869	0	0	0	23524	22110	160187	27289	1057135	46470	108672	0	0	8177	564420	0	0
2024-09-18 11:31:47			0	37879	0	0	0	23480	22110	160127	27147	1057162	46493	108655	0	0	8178	564022	0	0
2024-09-18 11:32:47			0	37883	0	0	0	23488	22110	160143	27429	1057198	46493	108658	0	0	8178	563863	0	0
2024-09-18 11:33:47			0	37890	0	0	0	23433	22110	160159	27085	1057029	46493	108637	0	0	8179	563584	0	0
2024-09-18 11:34:47			0	37901	0	0	0	23410	22090	160007	27533	1057002	46447	108628	0	0	8180	563209	0	0
2024-09-18 11:35:47			0	37889	0	0	0	23444	22090	160047	27414	1057002	46458	108641	0	0	8179	563687	0	0
2024-09-18 11:36:47			0	37872	0	0	0	23444	22080	160099	27168	1056948	46457	108641	0	0	8178	564395	0	0
2024-09-18 11:37:47			0	37889	0	0	0	23462	22070	160035	27196	1056939	46456	108648	0	0	8179	563749	0	0
2024-09-18 11:38:47			0	37867	0	0	0	23423	22070	160119	27003	1056966	46445	108633	0	0	8178	564626	0	0
2024-09-18 11:39:47			0	37906	0	0	0	23407	22070	160123	27602	1056904	46466	108627	0	0	8180	563073	0	0
2024-09-18 11:40:47			0	37911	0	0	0	23477	22060	160083	27123	1056859	46455	108654	0	0	8180	562905	0	0
2024-09-18 11:41:47			0	37900	0	0	0	23446	22060	160075	27415	1056912	46465	108642	0	0	8179	563343	0	0
2024-09-18 11:42:47			0	37911	0	0	0	23423	22070	159983	27128	1056877	46478	108633	0	0	8180	562874	0	0
2024-09-18 11:43:47			0	37909	0	0	0	23464	22060	160119	27145	1056886	46477	108649	0	0	8180	562985	0	0
2024-09-18 11:44:47			0	37905	0	0	0	23480	22060	160115	27528	1056868	46489	108655	0	0	8179	563144	0	0
2024-09-18 11:45:47			0	37912	0	0	0	23464	22060	160115	27490	1056895	46478	108649	0	0	8180	562866	0	0
2024-09-18 11:46:47			0	37897	0	0	0	23470	22060	160175	27161	1056859	46477	108651	0	0	8179	563462	0	0
2024-09-18 11:47:47			0	37891	0	0	0	23493	22060	160111	27206	1056912	46477	108660	0	0	8178	563701	0	0
2024-09-18 11:48:47			0	37900	0	0	0	23488	22060	160059	27388	1056912	46477	108658	0	0	8179	563343	0	0
2024-09-18 11:49:47			0	37911	0	0	0	23496	22050	160151	27493	1056947	46475	108661	0	0	8179	562937	0	0
2024-09-18 11:50:47			0	37901	0	0	0	23516	22060	160079	27307	1056975	46489	108669	0	0	8178	563303	0	0
2024-09-18 11:51:47			0	37880	0	0	0	23509	22070	160047	27180	1056984	46466	108666	0	0	8177	564108	0	0
2024-09-18 11:52:47			0	37906	0	0	0	23514	22080	160079	27713	1057002	46479	108668	0	0	8179	563042	0	0
2024-09-18 11:53:47			0	37902	0	0	0	23516	22080	160019	27050	1057055	46500	108669	0	0	8178	563201	0	0
2024-09-18 11:54:47			0	37890	0	0	0	23524	22080	160043	27338	1057091	46480	108672	0	0	8178	563678	0	0
2024-09-18 11:55:47			0	37909	0	0	0	23511	22080	160047	27213	1057091	46491	108667	0	0	8179	562922	0	0
2024-09-18 11:56:47			0	37910	0	0	0	23503	22090	159967	27241	1057109	46491	108664	0	0	8179	562851	0	0
2024-09-18 11:57:47			0	37900	0	0	0	23496	22080	160011	27322	1057064	46501	108661	0	0	8179	563280	0	0
2024-09-18 11:58:47			0	37888	0	0	0	23503	22080	159959	27286	1057037	46480	108664	0	0	8178	563758	0	0
2024-09-18 11:59:47			0	37897	0	0	0	23519	22090	160007	27350	1057073	46468	108670	0	0	8178	563368	0	0
2024-09-18 12:00:47			0	37899	0	0	0	23506	22090	160035	27164	1057135	46501	108665	0	0	8178	563289	0	0
2024-09-18 12:01:47			0	37897	0	0	0	23498	22090	160027	27376	1057020	46468	108662	0	0	8178	563368	0	0
2024-09-18 12:02:47			0	37893	0	0	0	23519	22090	159951	27621	1057055	46491	108670	0	0	8178	563527	0	0
2024-09-18 12:03:47			0	37904	0	0	0	23509	22100	160063	27118	1057038	46469	108666	0	0	8179	563058	0	0
2024-09-18 12:04:47			0	37913	0	0	0	23509	22100	160035	26899	1057144	46502	108666	0	0	8179	562700	0	0
2024-09-18 12:05:47			0	37897	0	0	0	23516	22100	160055	27353	1057126	46470	108669	0	0	8178	563337	0	0
2024-09-18 12:06:47			0	37898	0	0	0	23529	22100	160007	26986	1057144	46502	108674	0	0	8178	563297	0	0
2024-09-18 12:07:47			0	37898	0	0	0	23540	22100	159991	27209	1057126	46482	108678	0	0	8178	563297	0	0
2024-09-18 12:08:47			0	37912	0	0	0	23535	22120	159955	27237	1057180	46494	108676	0	0	8179	562677	0	0
2024-09-18 12:09:47			0	37919	0	0	0	23524	22110	159939	27208	1057162	46470	108672	0	0	8179	562430	0	0
2024-09-18 12:10:47			0	37915	0	0	0	23527	22110	159983	27206	1057144	46470	108673	0	0	8179	562589	0	0
2024-09-18 12:11:47			0	37907	0	0	0	23532	22110	159995	27324	1057144	46493	108675	0	0	8179	562907	0	0
2024-09-18 12:12:47			0	37894	0	0	0	23527	22110	160067	27157	1057118	46482	108673	0	0	8178	563425	0	0
2024-09-18 12:13:47			0	37903	0	0	0	23529	22110	159939	27142	1057171	46493	108674	0	0	8178	563067	0	0
2024-09-18 12:14:47			0	37921	0	0	0	23545	22110	160083	27097	1057171	46493	108680	0	0	8179	562351	0	0
2024-09-18 12:15:47			0	37907	0	0	0	23529	22110	159939	27391	1057171	46482	108674	0	0	8179	562907	0	0
2024-09-18 12:16:47			0	37908	0	0	0	23537	22110	160039	27374	1057224	46470	108677	0	0	8179	562868	0	0
2024-09-18 12:17:47			0	37911	0	0	0	23548	22120	159975	27447	1057233	46483	108681	0	0	8179	562717	0	0
2024-09-18 12:18:47			0	37916	0	0	0	23545	22120	159979	27275	1057322	46472	108680	0	0	8179	562518	0	0
2024-09-18 12:19:47			0	37915	0	0	0	23550	22110	159943	27258	1057224	46493	108682	0	0	8179	562589	0	0
2024-09-18 12:20:47			0	37909	0	0	0	23550	22120	160003	27450	1057269	46461	108682	0	0	8178	562797	0	0
2024-09-18 12:21:47			0	37903	0	0	0	23545	22120	160007	27124	1057207	46483	108680	0	0	8178	563035	0	0
2024-09-18 12:22:47			0	37926	0	0	0	23550	22120	159967	27251	1057269	46484	108682	0	0	8179	562121	0	0
2024-09-18 12:23:47			0	37921	0	0	0	23535	22130	159931	27376	1057278	46496	108676	0	0	8179	562288	0	0
2024-09-18 12:24:47			0	37933	0	0	0	23545	22130	159983	27248	1057331	46474	108680	0	0	8180	561812	0	0
2024-09-18 12:25:47			0	37932	0	0	0	23548	22130	159887	27362	1057251	46474	108681	0	0	8180	561851	0	0
2024-09-18 12:26:47			0	37949	0	0	0	23545	22130	159795	26977	1057287	46474	108680	0	0	8181	561176	0	0
2024-09-18 12:27:47			0	37956	0	0	0	23542	22130	159855	27409	1057260	46485	108679	0	0	8181	560899	0	0
2024-09-18 12:28:47			0	37943	0	0	0	23545	22130	159791	27121	1057313	46485	108680	0	0	8181	561414	0	0
2024-09-18 12:29:47			0	37952	0	0	0	23537	22130	159811	27130	1057331	46496	108677	0	0	8181	561057	0	0
2024-09-18 12:30:47			0	37960	0	0	0	23535	22130	159823	27033	1057278	46485	108676	0	0	8182	560740	0	0
2024-09-18 12:31:47			0	37947	0	0	0	23553	22130	159827	27085	1057233	46485	108683	0	0	8181	561256	0	0
2024-09-18 12:32:47			0	37961	0	0	0	23545	22130	159895	27402	1057340	46474	108680	0	0	8182	560700	0	0
2024-09-18 12:33:47			0	37942	0	0	0	23537	22130	159767	27512	1057251	46474	108677	0	0	8181	561454	0	0
2024-09-18 12:34:47			0	37960	0	0	0	23548	22130	159799	27317	1057340	46474	108681	0	0	8182	560740	0	0
2024-09-18 12:35:47			0	37958	0	0	0	23540	22130	159819	27293	1057287	46485	108678	0	0	8182	560819	0	0
2024-09-18 12:36:47			0	37948	0	0	0	23548	22130	159887	27357	1057340	46485	108681	0	0	8181	561216	0	0
2024-09-18 12:37:47			0	37958	0	0	0	23542	22140	159795	26913	1057242	46474	108679	0	0	8182	560788	0	0
2024-09-18 12:38:47			0	37954	0	0	0	23545	22130	159851	26786	1057358	46496	108680	0	0	8181	560978	0	0
2024-09-18 12:39:47			0	37954	0	0	0	23553	22130	159823	27118	1057358	46496	108683	0	0	8181	560978	0	0
2024-09-18 12:40:47			0	37940	0	0	0	23568	22130	159839	27386	1057305	46485	108689	0	0	8180	561534	0	0
2024-09-18 12:41:47			0	37950	0	0	0	23555	22130	159891	26935	1057313	46496	108684	0	0	8181	561137	0	0
2024-09-18 12:42:47			0	37953	0	0	0	23561	22130	159991	27460	1057340	46474	108686	0	0	8181	561018	0	0
2024-09-18 12:43:47			0	37968	0	0	0	23563	22140	159871	27459	1057376	46485	108687	0	0	8182	560391	0	0
2024-09-18 12:44:47			0	37945	0	0	0	23553	22140	159791	27369	1057358	46475	108683	0	0	8181	561304	0	0
2024-09-18 12:45:47			0	37954	0	0	0	23568	22140	159839	27481	1057376	46462	108689	0	0	8181	560947	0	0
2024-09-18 12:46:47			0	37956	0	0	0	23563	22130	159811	27192	1057287	46485	108687	0	0	8181	560899	0	0
2024-09-18 12:47:47			0	37962	0	0	0	23571	22140	159803	27376	1057305	46486	108690	0	0	8181	560629	0	0
2024-09-18 12:48:47			0	37954	0	0	0	23563	22150	159883	27251	1057349	46475	108687	0	0	8181	560915	0	0
2024-09-18 12:49:47			0	37939	0	0	0	23566	22140	159847	27346	1057358	46497	108688	0	0	8180	561542	0	0
2024-09-18 12:50:47			0	37944	0	0	0	23561	22150	159847	27518	1057367	46487	108686	0	0	8180	561312	0	0
2024-09-18 12:51:47			0	37962	0	0	0	23558	22150	159807	27220	1057394	46475	108685	0	0	8182	560598	0	0
2024-09-18 12:52:47			0	37950	0	0	0	23555	22140	159843	27424	1057385	46475	108684	0	0	8181	561105	0	0
2024-09-18 12:53:47			0	37965	0	0	0	23540	22150	159827	27246	1057323	46498	108678	0	0	8182	560479	0	0
2024-09-18 12:54:47			0	37968	0	0	0	23568	22140	159787	26847	1057358	46497	108689	0	0	8182	560391	0	0
2024-09-18 12:55:47			0	37957	0	0	0	23568	22140	159855	27315	1057331	46486	108689	0	0	8181	560828	0	0
2024-09-18 12:56:47			0	37961	0	0	0	23568	22150	159863	27265	1057340	46475	108689	0	0	8181	560638	0	0
2024-09-18 12:57:47			0	37959	0	0	0	23574	22140	159723	26989	1057296	46506	108691	0	0	8181	560748	0	0
2024-09-18 12:58:47			0	37956	0	0	0	23561	22140	159707	27128	1057376	46485	108686	0	0	8181	560867	0	0
2024-09-18 12:59:47			0	37974	0	0	0	23558	22150	159683	26960	1057420	46487	108685	0	0	8182	560122	0	0
2024-09-18 13:00:47			0	37963	0	0	0	23568	22140	159807	27223	1057331	46497	108689	0	0	8181	560589	0	0
2024-09-18 13:01:47			0	37984	0	0	0	23563	22150	159783	27149	1057420	46454	108687	0	0	8183	559726	0	0
2024-09-18 13:02:47			0	37962	0	0	0	23574	22150	159791	27227	1057420	46498	108691	0	0	8181	560598	0	0
2024-09-18 13:03:47			0	37945	0	0	0	23561	22150	159803	27059	1057367	46487	108686	0	0	8181	561272	0	0
2024-09-18 13:04:47			0	37968	0	0	0	23568	22140	159759	27102	1057385	46486	108689	0	0	8182	560391	0	0
2024-09-18 13:05:47			0	37953	0	0	0	23563	22160	159831	27326	1057492	46487	108687	0	0	8181	560924	0	0
2024-09-18 13:06:47			0	37966	0	0	0	23566	22150	159735	27246	1057403	46475	108688	0	0	8182	560439	0	0
2024-09-18 13:07:47			0	37976	0	0	0	23579	22150	159791	27351	1057483	46487	108693	0	0	8182	560043	0	0
2024-09-18 13:08:47			0	37974	0	0	0	23571	22140	159803	27213	1057465	46475	108690	0	0	8182	560153	0	0
2024-09-18 13:09:47			0	37972	0	0	0	23574	22150	159803	27041	1057429	46487	108691	0	0	8182	560201	0	0
2024-09-18 13:10:47			0	37971	0	0	0	23576	22160	159803	27078	1057438	46498	108692	0	0	8182	560210	0	0
2024-09-18 13:11:47			0	37986	0	0	0	23574	22150	159803	27270	1057376	46475	108691	0	0	8183	559647	0	0
2024-09-18 13:12:47			0	37972	0	0	0	23571	22150	159843	27135	1057509	46487	108690	0	0	8182	560201	0	0
2024-09-18 13:13:47			0	37950	0	0	0	23558	22150	159863	27211	1057403	46475	108685	0	0	8181	561074	0	0
2024-09-18 13:14:47			0	37963	0	0	0	23558	22150	159811	27076	1057403	46487	108685	0	0	8182	560558	0	0
2024-09-18 13:15:47			0	37971	0	0	0	23571	22160	159855	27239	1057438	46487	108690	0	0	8182	560210	0	0
2024-09-18 13:16:47			0	37968	0	0	0	23563	22160	159839	27112	1057465	46475	108687	0	0	8182	560329	0	0
2024-09-18 13:17:47			0	37976	0	0	0	23574	22160	159707	27152	1057385	46475	108691	0	0	8182	560012	0	0
2024-09-18 13:18:47			0	37970	0	0	0	23568	22160	159771	27059	1057412	46454	108689	0	0	8182	560249	0	0
2024-09-18 13:19:47			0	37977	0	0	0	23555	22160	159759	27029	1057412	46475	108684	0	0	8183	559972	0	0
2024-09-18 13:20:47			0	37986	0	0	0	23563	22160	159755	27332	1057385	46475	108687	0	0	8183	559615	0	0
2024-09-18 13:21:47			0	37993	0	0	0	23561	22150	159707	27109	1057403	46475	108686	0	0	8183	559369	0	0
2024-09-18 13:22:47			0	37976	0	0	0	23566	22160	159763	27445	1057438	46475	108688	0	0	8182	560012	0	0
2024-09-18 13:23:47			0	37961	0	0	0	23571	22160	159755	27244	1057438	46475	108690	0	0	8181	560606	0	0
2024-09-18 13:24:47			0	37978	0	0	0	23571	22150	159727	27452	1057403	46475	108690	0	0	8182	559964	0	0
2024-09-18 13:25:47			0	37965	0	0	0	23576	22160	159727	27119	1057420	46509	108692	0	0	8181	560448	0	0
2024-09-18 13:26:47			0	37998	0	0	0	23568	22150	159727	27163	1057429	46487	108689	0	0	8184	559171	0	0
2024-09-18 13:27:47			0	37973	0	0	0	23568	22160	159639	27357	1057438	46475	108689	0	0	8182	560131	0	0
2024-09-18 13:28:47			0	37978	0	0	0	23568	22140	159731	27395	1057385	46475	108689	0	0	8182	559995	0	0
2024-09-18 13:29:47			0	37987	0	0	0	23568	22150	159759	27235	1057403	46464	108689	0	0	8183	559607	0	0
2024-09-18 13:30:47			0	37988	0	0	0	23571	22160	159703	27379	1057465	46475	108690	0	0	8183	559536	0	0
2024-09-18 13:31:47			0	38003	0	0	0	23566	22170	159623	27310	1057483	46466	108688	0	0	8184	558911	0	0
2024-09-18 13:32:47			0	37981	0	0	0	23568	22150	159699	27196	1057376	46475	108689	0	0	8183	559845	0	0
2024-09-18 13:33:47			0	37978	0	0	0	23563	22160	159695	27098	1057412	46475	108687	0	0	8182	559932	0	0
2024-09-18 13:34:47			0	37980	0	0	0	23561	22160	159703	27185	1057394	46465	108686	0	0	8183	559853	0	0
2024-09-18 13:35:47			0	37980	0	0	0	23561	22150	159719	26956	1057403	46475	108686	0	0	8183	559884	0	0
2024-09-18 13:36:47			0	37974	0	0	0	23550	22160	159543	27358	1057420	46499	108682	0	0	8182	560091	0	0
2024-09-18 13:37:47			0	38006	0	0	0	23566	22160	159623	27409	1057474	46465	108688	0	0	8184	558823	0	0
2024-09-18 13:38:47			0	37986	0	0	0	23558	22160	159667	27348	1057412	46475	108685	0	0	8183	559615	0	0
2024-09-18 13:39:47			0	37999	0	0	0	23553	22160	159687	27114	1057394	46488	108683	0	0	8184	559100	0	0
2024-09-18 13:40:47			0	38014	0	0	0	23550	22160	159603	27364	1057385	46464	108682	0	0	8185	558507	0	0
2024-09-18 13:41:47			0	37988	0	0	0	23540	22150	159503	27241	1057403	46475	108678	0	0	8183	559567	0	0
2024-09-18 13:42:47			0	38016	0	0	0	23550	22150	159559	27157	1057314	46475	108682	0	0	8185	558459	0	0
2024-09-18 13:43:47			0	37998	0	0	0	23548	22140	159623	27376	1057411	46486	108681	0	0	8184	559202	0	0
2024-09-18 13:44:47			0	38005	0	0	0	23550	22150	159723	27022	1057394	46475	108682	0	0	8184	558894	0	0
2024-09-18 13:45:47			0	37997	0	0	0	23558	22150	159599	27613	1057376	46487	108685	0	0	8184	559211	0	0
2024-09-18 13:46:47			0	38009	0	0	0	23548	22160	159603	27431	1057385	46487	108681	0	0	8185	558705	0	0
2024-09-18 13:47:47			0	37988	0	0	0	23555	22160	159591	27249	1057438	46498	108684	0	0	8183	559536	0	0
2024-09-18 13:48:47			0	37982	0	0	0	23558	22150	159595	27312	1057394	46487	108685	0	0	8183	559805	0	0
2024-09-18 13:49:47			0	38015	0	0	0	23566	22150	159655	27326	1057403	46487	108688	0	0	8185	558498	0	0
2024-09-18 13:50:47			0	37997	0	0	0	23548	22140	159563	27371	1057385	46475	108681	0	0	8184	559242	0	0
2024-09-18 13:51:47			0	38015	0	0	0	23553	22150	159575	27303	1057403	46498	108683	0	0	8185	558498	0	0
2024-09-18 13:52:47			0	37993	0	0	0	23555	22150	159611	27275	1057376	46475	108684	0	0	8183	559369	0	0
2024-09-18 13:53:47			0	37997	0	0	0	23558	22160	159575	27296	1057438	46464	108685	0	0	8184	559180	0	0
2024-09-18 13:54:47			0	38012	0	0	0	23548	22150	159615	27367	1057367	46487	108681	0	0	8185	558617	0	0
2024-09-18 13:55:47			0	37987	0	0	0	23545	22160	159471	27142	1057358	46498	108680	0	0	8183	559576	0	0
2024-09-18 13:56:47			0	37987	0	0	0	23550	22140	159431	27071	1057358	46497	108682	0	0	8183	559638	0	0
2024-09-18 13:57:47			0	37996	0	0	0	23553	22150	159499	27428	1057376	46498	108683	0	0	8184	559251	0	0
2024-09-18 13:58:47			0	37997	0	0	0	23553	22140	159579	27003	1057322	46485	108683	0	0	8184	559242	0	0
2024-09-18 13:59:47			0	37994	0	0	0	23542	22130	159491	27414	1057340	46485	108679	0	0	8184	559392	0	0
2024-09-18 14:00:47			0	38003	0	0	0	23545	22150	159507	27405	1057394	46464	108680	0	0	8184	558973	0	0
2024-09-18 14:01:47			0	38000	0	0	0	23540	22150	159599	27298	1057314	46498	108678	0	0	8184	559092	0	0
2024-09-18 14:02:47			0	38011	0	0	0	23550	22140	159535	27378	1057358	46486	108682	0	0	8185	558688	0	0
2024-09-18 14:03:47			0	38013	0	0	0	23553	22140	159483	27126	1057278	46486	108683	0	0	8185	558609	0	0
2024-09-18 14:04:47			0	38008	0	0	0	23555	22140	159475	27336	1057358	46486	108684	0	0	8184	558807	0	0
2024-09-18 14:05:47			0	38009	0	0	0	23553	22140	159583	27272	1057331	46475	108683	0	0	8184	558767	0	0
2024-09-18 14:06:47			0	38037	0	0	0	23542	22140	159520	27074	1057411	46475	108679	0	0	8186	557659	0	0
2024-09-18 14:07:47			0	38014	0	0	0	23555	22150	159603	27256	1057314	46487	108684	0	0	8185	558538	0	0
2024-09-18 14:08:47			0	38039	0	0	0	23558	22150	159456	27109	1057367	46475	108685	0	0	8186	557549	0	0
2024-09-18 14:09:47			0	38012	0	0	0	23555	22140	159567	27275	1057322	46496	108684	0	0	8184	558648	0	0
2024-09-18 14:10:47			0	38011	0	0	0	23558	22140	159411	27364	1057358	46475	108685	0	0	8184	558688	0	0
2024-09-18 14:11:47			0	38018	0	0	0	23561	22150	159496	27391	1057314	46475	108686	0	0	8185	558380	0	0
2024-09-18 14:12:47			0	38017	0	0	0	23561	22150	159552	27628	1057349	46498	108686	0	0	8185	558419	0	0
2024-09-18 14:13:47			0	38013	0	0	0	23563	22150	159567	27376	1057394	46464	108687	0	0	8184	558578	0	0
2024-09-18 14:14:47			0	38024	0	0	0	23563	22150	159547	27090	1057340	46487	108687	0	0	8185	558142	0	0
2024-09-18 14:15:47			0	38019	0	0	0	23563	22160	159563	27298	1057438	46498	108687	0	0	8185	558309	0	0
2024-09-18 14:16:47			0	38012	0	0	0	23561	22150	159539	27112	1057394	46475	108686	0	0	8184	558617	0	0
2024-09-18 14:17:47			0	38014	0	0	0	23553	22150	159559	27076	1057394	46475	108683	0	0	8185	558538	0	0
2024-09-18 14:18:47			0	38010	0	0	0	23563	22140	159543	27329	1057385	46486	108687	0	0	8184	558727	0	0
2024-09-18 14:19:47			0	38007	0	0	0	23561	22150	159607	27436	1057447	46475	108686	0	0	8184	558815	0	0
2024-09-18 14:20:47			0	38016	0	0	0	23563	22160	159539	27448	1057438	46487	108687	0	0	8185	558428	0	0
2024-09-18 14:21:47			0	38026	0	0	0	23558	22150	159539	27190	1057429	46498	108685	0	0	8185	558063	0	0
2024-09-18 14:22:47			0	38019	0	0	0	23561	22150	159511	27237	1057376	46464	108686	0	0	8185	558340	0	0
2024-09-18 14:23:47			0	38013	0	0	0	23553	22140	159535	27159	1057411	46475	108683	0	0	8185	558609	0	0
2024-09-18 14:24:47			0	38016	0	0	0	23558	22150	159611	27013	1057447	46475	108685	0	0	8185	558459	0	0
2024-09-18 14:25:47			0	37993	0	0	0	23550	22150	159551	27015	1057420	46475	108682	0	0	8184	559369	0	0
2024-09-18 14:26:47			0	37997	0	0	0	23550	22140	159531	27345	1057411	46475	108682	0	0	8184	559242	0	0
2024-09-18 14:27:47			0	38011	0	0	0	23542	22140	159495	27369	1057411	46486	108679	0	0	8185	558688	0	0
2024-09-18 14:28:47			0	38013	0	0	0	23553	22150	159555	27215	1057403	46475	108683	0	0	8185	558578	0	0
2024-09-18 14:29:47			0	38008	0	0	0	23550	22140	159659	27462	1057385	46475	108682	0	0	8184	558807	0	0
2024-09-18 14:30:47			0	37997	0	0	0	23558	22150	159487	27166	1057340	46475	108685	0	0	8184	559211	0	0
2024-09-18 14:31:47			0	38006	0	0	0	23550	22150	159551	27384	1057394	46487	108682	0	0	8184	558854	0	0
2024-09-18 14:32:47			0	38010	0	0	0	23553	22150	159679	27395	1057367	46475	108683	0	0	8184	558696	0	0
2024-09-18 14:33:47			0	38013	0	0	0	23553	22140	159483	27173	1057429	46474	108683	0	0	8185	558609	0	0
2024-09-18 14:34:47			0	38014	0	0	0	23550	22150	159491	27414	1057367	46475	108682	0	0	8185	558538	0	0
2024-09-18 14:35:47			0	38011	0	0	0	23550	22150	159571	27384	1057403	46475	108682	0	0	8185	558657	0	0
2024-09-18 14:36:47			0	38018	0	0	0	23550	22140	159615	26955	1057349	46462	108682	0	0	8185	558411	0	0
2024-09-18 14:37:47			0	38010	0	0	0	23555	22140	159687	27227	1057385	46463	108684	0	0	8184	558727	0	0
2024-09-18 14:38:47			0	38013	0	0	0	23553	22150	159587	27185	1057420	46475	108683	0	0	8185	558578	0	0
2024-09-18 14:39:47			0	38002	0	0	0	23561	22150	159487	27173	1057340	46487	108686	0	0	8184	559013	0	0
2024-09-18 14:40:47			0	37984	0	0	0	23561	22140	159571	27419	1057376	46496	108686	0	0	8183	559757	0	0
2024-09-18 14:41:47			0	38012	0	0	0	23553	22150	159635	27232	1057403	46487	108683	0	0	8185	558617	0	0
2024-09-18 14:42:47			0	38006	0	0	0	23558	22140	159535	27185	1057358	46475	108685	0	0	8184	558886	0	0
2024-09-18 14:43:47			0	37991	0	0	0	23553	22140	159507	27183	1057358	46486	108683	0	0	8183	559480	0	0
2024-09-18 14:44:47			0	38011	0	0	0	23542	22150	159539	27239	1057483	46487	108679	0	0	8185	558657	0	0
2024-09-18 14:45:47			0	38012	0	0	0	23535	22140	159575	27296	1057331	46475	108676	0	0	8185	558648	0	0
2024-09-18 14:46:47			0	38004	0	0	0	23516	22140	159531	27409	1057331	46486	108669	0	0	8185	558965	0	0
2024-09-18 14:47:47			0	38011	0	0	0	23532	22150	159475	27185	1057287	46475	108675	0	0	8185	558657	0	0
2024-09-18 14:48:47			0	38019	0	0	0	23527	22150	159523	27303	1057287	46475	108673	0	0	8185	558340	0	0
2024-09-18 14:49:47			0	38036	0	0	0	23527	22140	159456	27300	1057305	46463	108673	0	0	8186	557699	0	0
2024-09-18 14:50:47			0	38017	0	0	0	23535	22140	159419	27303	1057331	46463	108676	0	0	8185	558450	0	0
2024-09-18 14:51:47			0	38030	0	0	0	23522	22140	159500	27265	1057242	46462	108671	0	0	8186	557936	0	0
2024-09-18 14:52:47			0	38031	0	0	0	23509	22140	159451	27341	1057305	46486	108666	0	0	8186	557897	0	0
2024-09-18 14:53:47			0	38030	0	0	0	23506	22140	159388	27516	1057269	46462	108665	0	0	8186	557936	0	0
2024-09-18 14:54:47			0	38058	0	0	0	23527	22130	159448	27114	1057278	46485	108673	0	0	8188	556861	0	0
2024-09-18 14:55:47			0	38035	0	0	0	23511	22130	159408	27104	1057313	46462	108667	0	0	8187	557770	0	0
2024-09-18 14:56:47			0	38042	0	0	0	23527	22120	159440	27390	1057296	46472	108673	0	0	8187	557524	0	0
2024-09-18 14:57:47			0	38050	0	0	0	23535	22130	159388	27182	1057225	46496	108676	0	0	8187	557177	0	0
2024-09-18 14:58:47			0	38038	0	0	0	23542	22130	159392	27128	1057340	46485	108679	0	0	8186	557651	0	0
2024-09-18 14:59:47			0	38022	0	0	0	23540	22130	159463	27126	1057305	46485	108678	0	0	8185	558284	0	0
2024-09-18 15:00:47			0	38030	0	0	0	23550	22130	159491	27215	1057287	46485	108682	0	0	8186	557967	0	0
2024-09-18 15:01:47			0	38031	0	0	0	23558	22130	159444	27126	1057260	46485	108685	0	0	8186	557928	0	0
2024-09-18 15:02:47			0	38023	0	0	0	23553	22130	159511	27249	1057367	46485	108683	0	0	8185	558244	0	0
2024-09-18 15:03:47			0	38031	0	0	0	23555	22140	159503	27081	1057411	46497	108684	0	0	8186	557897	0	0
2024-09-18 15:04:47			0	38012	0	0	0	23550	22140	159527	27519	1057322	46474	108682	0	0	8185	558648	0	0
2024-09-18 15:05:47			0	38044	0	0	0	23545	22140	159468	27383	1057385	46475	108680	0	0	8187	557383	0	0
2024-09-18 15:06:47			0	38025	0	0	0	23540	22140	159483	27415	1057429	46474	108678	0	0	8186	558134	0	0
2024-09-18 15:07:47			0	38019	0	0	0	23553	22140	159475	27594	1057349	46496	108683	0	0	8185	558371	0	0
2024-09-18 15:08:47			0	38039	0	0	0	23550	22140	159480	27324	1057322	46496	108682	0	0	8186	557580	0	0
2024-09-18 15:09:47			0	38035	0	0	0	23540	22140	159596	27559	1057376	46485	108678	0	0	8186	557739	0	0
2024-09-18 15:10:47			0	38051	0	0	0	23540	22150	159400	27706	1057420	46475	108678	0	0	8187	557075	0	0
2024-09-18 15:11:47			0	38057	0	0	0	23550	22130	159440	27232	1057394	46485	108682	0	0	8187	556900	0	0
2024-09-18 15:12:47			0	38038	0	0	0	23566	22150	159436	27633	1057420	46475	108688	0	0	8186	557589	0	0
2024-09-18 15:13:47			0	38034	0	0	0	23563	22140	159524	27549	1057411	46475	108687	0	0	8186	557778	0	0
2024-09-18 15:14:47			0	38038	0	0	0	23553	22140	159468	27319	1057385	46486	108683	0	0	8186	557620	0	0
2024-09-18 15:15:47			0	38053	0	0	0	23550	22150	159436	27419	1057403	46487	108682	0	0	8187	556996	0	0
2024-09-18 15:16:47			0	38045	0	0	0	23561	22150	159496	27384	1057447	46487	108686	0	0	8186	557312	0	0
2024-09-18 15:17:47			0	38042	0	0	0	23566	22140	159472	27493	1057491	46486	108688	0	0	8186	557462	0	0
2024-09-18 15:18:47			0	38064	0	0	0	23558	22150	159316	27580	1057429	46475	108685	0	0	8188	556562	0	0
2024-09-18 15:19:47			0	38052	0	0	0	23571	22140	159380	27331	1057385	46497	108690	0	0	8187	557067	0	0
2024-09-18 15:20:47			0	38052	0	0	0	23568	22160	159348	27568	1057492	46487	108689	0	0	8187	557005	0	0
2024-09-18 15:21:47			0	38055	0	0	0	23586	22150	159364	27699	1057456	46475	108696	0	0	8187	556917	0	0
2024-09-18 15:22:47			0	38042	0	0	0	23581	22160	159256	27599	1057492	46487	108694	0	0	8186	557400	0	0
2024-09-18 15:23:47			0	38044	0	0	0	23579	22160	159356	27718	1057545	46475	108693	0	0	8186	557321	0	0
2024-09-18 15:24:47			0	38045	0	0	0	23589	22160	159356	27531	1057527	46476	108697	0	0	8186	557281	0	0
2024-09-18 15:25:47			0	38054	0	0	0	23584	22170	159320	27606	1057536	46500	108695	0	0	8187	556894	0	0
2024-09-18 15:26:47			0	38069	0	0	0	23597	22170	159264	27384	1057563	46478	108700	0	0	8187	556302	0	0
2024-09-18 15:27:47			0	38058	0	0	0	23597	22180	159384	27390	1057581	46478	108700	0	0	8187	556706	0	0
2024-09-18 15:28:47			0	38053	0	0	0	23602	22180	159348	27192	1057563	46490	108702	0	0	8186	556903	0	0
2024-09-18 15:29:47			0	38069	0	0	0	23602	22180	159272	27334	1057581	46466	108702	0	0	8187	556271	0	0
2024-09-18 15:30:47			0	38076	0	0	0	23618	22180	159356	27647	1057607	46500	108708	0	0	8187	555995	0	0
2024-09-18 15:31:47			0	38082	0	0	0	23620	22180	159340	27609	1057554	46500	108709	0	0	8188	555758	0	0
2024-09-18 15:32:47			0	38069	0	0	0	23631	22190	159264	26998	1057661	46502	108713	0	0	8187	556240	0	0
2024-09-18 15:33:47			0	38088	0	0	0	23620	22180	159228	27237	1057643	46500	108709	0	0	8188	555522	0	0
2024-09-18 15:34:47			0	38105	0	0	0	23628	22190	159164	27100	1057688	46492	108712	0	0	8189	554821	0	0
2024-09-18 15:35:47			0	38088	0	0	0	23623	22210	159152	27383	1057688	46503	108710	0	0	8188	555429	0	0
2024-09-18 15:36:47			0	38096	0	0	0	23615	22200	159072	27583	1057679	46492	108707	0	0	8189	555144	0	0
2024-09-18 15:37:47			0	38107	0	0	0	23615	22210	159120	27241	1057688	46503	108707	0	0	8189	554680	0	0
2024-09-18 15:38:47			0	38101	0	0	0	23628	22200	159204	27026	1057732	46492	108712	0	0	8189	554947	0	0
2024-09-18 15:39:47			0	38100	0	0	0	23633	22200	159196	27573	1057723	46481	108714	0	0	8189	554987	0	0
2024-09-18 15:40:47			0	38112	0	0	0	23605	22200	159044	27455	1057732	46481	108703	0	0	8190	554514	0	0
2024-09-18 15:41:47			0	38126	0	0	0	23597	22220	159064	27305	1057786	46504	108700	0	0	8191	553901	0	0
2024-09-18 15:42:47			0	38133	0	0	0	23594	22210	159008	27422	1057697	46483	108699	0	0	8191	553656	0	0
2024-09-18 15:43:47			0	38133	0	0	0	23607	22210	159020	27542	1057741	46493	108704	0	0	8191	553656	0	0
2024-09-18 15:44:47			0	38144	0	0	0	23605	22210	159052	27208	1057750	46494	108703	0	0	8192	553224	0	0
2024-09-18 15:45:47			0	38147	0	0	0	23594	22210	158948	27298	1057661	46482	108699	0	0	8192	553106	0	0
2024-09-18 15:46:47			0	38163	0	0	0	23592	22200	158956	27376	1057643	46502	108698	0	0	8193	552508	0	0
2024-09-18 15:47:47			0	38169	0	0	0	23597	22210	158932	27692	1057661	46482	108700	0	0	8193	552241	0	0
2024-09-18 15:48:47			0	38157	0	0	0	23605	22200	158908	27268	1057732	46469	108703	0	0	8192	552743	0	0
2024-09-18 15:49:47			0	38175	0	0	0	23594	22210	158808	27597	1057688	46470	108699	0	0	8194	552005	0	0
2024-09-18 15:50:47			0	38177	0	0	0	23602	22210	158844	27443	1057715	46459	108702	0	0	8194	551927	0	0
2024-09-18 15:51:47			0	38193	0	0	0	23597	22200	158840	27614	1057670	46469	108700	0	0	8195	551329	0	0
2024-09-18 15:52:47			0	38192	0	0	0	23610	22200	158864	27561	1057706	46481	108705	0	0	8194	551369	0	0
2024-09-18 15:53:47			0	38177	0	0	0	23605	22200	158884	27450	1057679	46502	108703	0	0	8194	551958	0	0
2024-09-18 15:54:47			0	38186	0	0	0	23620	22200	158824	27402	1057643	46481	108709	0	0	8194	551604	0	0
2024-09-18 15:55:47			0	38191	0	0	0	23605	22200	158836	27431	1057679	46481	108703	0	0	8194	551408	0	0
2024-09-18 15:56:47			0	38169	0	0	0	23602	22200	158816	27476	1057643	46481	108702	0	0	8193	552272	0	0
2024-09-18 15:57:47			0	38198	0	0	0	23594	22210	158856	27390	1057715	46470	108699	0	0	8195	551102	0	0
2024-09-18 15:58:47			0	38193	0	0	0	23602	22200	158740	27287	1057679	46492	108702	0	0	8195	551329	0	0
2024-09-18 15:59:47			0	38182	0	0	0	23607	22200	158740	27405	1057616	46502	108704	0	0	8194	551761	0	0
2024-09-18 16:00:47			0	38190	0	0	0	23607	22200	158772	27595	1057643	46469	108704	0	0	8194	551447	0	0
2024-09-18 16:01:47			0	38194	0	0	0	23615	22200	158904	27746	1057590	46481	108707	0	0	8194	551290	0	0
2024-09-18 16:02:47			0	38184	0	0	0	23615	22200	158780	27587	1057616	46469	108707	0	0	8194	551683	0	0
2024-09-18 16:03:47			0	38211	0	0	0	23610	22200	158860	27580	1057652	46469	108705	0	0	8195	550623	0	0
2024-09-18 16:04:47			0	38194	0	0	0	23610	22200	158768	27601	1057679	46481	108705	0	0	8194	551290	0	0
2024-09-18 16:05:47			0	38178	0	0	0	23605	22210	158780	27454	1057635	46503	108703	0	0	8194	551887	0	0
2024-09-18 16:06:47			0	38206	0	0	0	23610	22200	158776	27429	1057616	46469	108705	0	0	8195	550819	0	0
2024-09-18 16:07:47			0	38209	0	0	0	23607	22200	158692	27493	1057732	46481	108704	0	0	8195	550702	0	0
2024-09-18 16:08:47			0	38207	0	0	0	23615	22200	158784	27307	1057670	46481	108707	0	0	8195	550780	0	0
2024-09-18 16:09:47			0	38193	0	0	0	23612	22200	158756	27286	1057626	46481	108706	0	0	8194	551329	0	0
2024-09-18 16:10:47			0	38211	0	0	0	23615	22200	158648	27308	1057679	46481	108707	0	0	8195	550623	0	0
2024-09-18 16:11:47			0	38208	0	0	0	23607	22200	158740	27339	1057652	46481	108704	0	0	8195	550741	0	0
2024-09-18 16:12:47			0	38216	0	0	0	23602	22200	158668	27369	1057679	46469	108702	0	0	8196	550427	0	0
2024-09-18 16:13:47			0	38218	0	0	0	23612	22200	158704	27588	1057732	46492	108706	0	0	8196	550349	0	0
2024-09-18 16:14:47			0	38225	0	0	0	23610	22200	158728	27317	1057652	46492	108705	0	0	8196	550075	0	0
2024-09-18 16:15:47			0	38219	0	0	0	23602	22210	158712	27466	1057661	46493	108702	0	0	8196	550279	0	0
2024-09-18 16:16:47			0	38226	0	0	0	23605	22190	158572	27391	1057634	46492	108703	0	0	8196	550066	0	0
2024-09-18 16:17:47			0	38214	0	0	0	23592	22190	158696	27246	1057661	46481	108698	0	0	8196	550536	0	0
2024-09-18 16:18:47			0	38204	0	0	0	23610	22200	158596	27235	1057626	46481	108705	0	0	8195	550898	0	0
2024-09-18 16:19:47			0	38225	0	0	0	23589	22200	158612	27459	1057652	46502	108697	0	0	8197	550075	0	0
2024-09-18 16:20:47			0	38229	0	0	0	23605	22200	158696	27492	1057626	46469	108703	0	0	8197	549918	0	0
2024-09-18 16:21:47			0	38227	0	0	0	23599	22190	158528	27438	1057608	46481	108701	0	0	8197	550027	0	0
2024-09-18 16:22:47			0	38243	0	0	0	23610	22200	158528	27197	1057670	46502	108705	0	0	8197	549369	0	0
2024-09-18 16:23:47			0	38247	0	0	0	23605	22200	158632	27381	1057616	46481	108703	0	0	8198	549213	0	0
2024-09-18 16:24:47			0	38227	0	0	0	23612	22190	158636	27514	1057608	46492	108706	0	0	8196	550027	0	0
2024-09-18 16:25:47			0	38248	0	0	0	23605	22200	158572	27538	1057616	46492	108703	0	0	8198	549174	0	0
2024-09-18 16:26:47			0	38230	0	0	0	23599	22200	158648	27592	1057616	46492	108701	0	0	8197	549879	0	0
2024-09-18 16:27:47			0	38247	0	0	0	23610	22190	158668	27284	1057625	46480	108705	0	0	8198	549243	0	0
2024-09-18 16:28:47			0	38240	0	0	0	23599	22190	158560	27440	1057661	46481	108701	0	0	8197	549517	0	0
2024-09-18 16:29:47			0	38251	0	0	0	23607	22200	158540	27371	1057679	46481	108704	0	0	8198	549056	0	0
2024-09-18 16:30:47			0	38225	0	0	0	23599	22190	158468	27455	1057688	46469	108701	0	0	8196	550105	0	0
2024-09-18 16:31:47			0	38235	0	0	0	23594	22190	158616	27391	1057608	46481	108699	0	0	8197	549713	0	0
2024-09-18 16:32:47			0	38227	0	0	0	23592	22200	158632	27672	1057599	46502	108698	0	0	8197	549996	0	0
2024-09-18 16:33:47			0	38235	0	0	0	23602	22200	158616	27277	1057616	46492	108702	0	0	8197	549683	0	0
2024-09-18 16:34:47			0	38230	0	0	0	23599	22190	158580	27609	1057714	46469	108701	0	0	8197	549909	0	0
2024-09-18 16:35:47			0	38244	0	0	0	23599	22200	158608	27201	1057670	46481	108701	0	0	8198	549330	0	0
2024-09-18 16:36:47			0	38242	0	0	0	23602	22200	158592	27384	1057670	46481	108702	0	0	8197	549409	0	0
2024-09-18 16:37:47			0	38231	0	0	0	23602	22200	158536	27175	1057643	46469	108702	0	0	8197	549839	0	0
2024-09-18 16:38:47			0	38232	0	0	0	23597	22200	158628	27313	1057679	46492	108700	0	0	8197	549800	0	0
2024-09-18 16:39:47			0	38241	0	0	0	23597	22200	158552	27569	1057626	46492	108700	0	0	8197	549448	0	0
2024-09-18 16:40:47			0	38248	0	0	0	23602	22190	158632	27194	1057608	46481	108702	0	0	8198	549204	0	0
2024-09-18 16:41:47			0	38249	0	0	0	23602	22190	158512	27197	1057625	46468	108702	0	0	8198	549165	0	0
2024-09-18 16:42:47			0	38232	0	0	0	23597	22190	158584	27438	1057652	46480	108700	0	0	8197	549831	0	0
2024-09-18 16:43:47			0	38241	0	0	0	23605	22190	158604	27123	1057634	46502	108703	0	0	8197	549478	0	0
2024-09-18 16:44:47			0	38219	0	0	0	23610	22190	158548	27216	1057599	46480	108705	0	0	8196	550340	0	0
2024-09-18 16:45:47			0	38237	0	0	0	23612	22190	158708	27396	1057661	46469	108706	0	0	8197	549635	0	0
2024-09-18 16:46:47			0	38227	0	0	0	23620	22200	158600	27268	1057670	46492	108709	0	0	8196	549996	0	0
2024-09-18 16:47:47			0	38229	0	0	0	23615	22190	158696	27521	1057661	46492	108707	0	0	8196	549948	0	0
2024-09-18 16:48:47			0	38216	0	0	0	23620	22200	158624	27396	1057616	46481	108709	0	0	8196	550427	0	0
2024-09-18 16:49:47			0	38205	0	0	0	23612	22200	158684	27498	1057696	46481	108706	0	0	8195	550859	0	0
2024-09-18 16:50:47			0	38219	0	0	0	23618	22190	158664	27260	1057634	46469	108708	0	0	8196	550340	0	0
2024-09-18 16:51:47			0	38215	0	0	0	23612	22200	158744	27241	1057759	46492	108706	0	0	8196	550466	0	0
2024-09-18 16:52:47			0	38213	0	0	0	23615	22190	158764	27319	1057714	46492	108707	0	0	8195	550576	0	0
2024-09-18 16:53:47			0	38229	0	0	0	23615	22200	158636	27298	1057670	46492	108707	0	0	8196	549918	0	0
2024-09-18 16:54:47			0	38200	0	0	0	23602	22200	158648	27192	1057652	46481	108702	0	0	8195	551055	0	0
2024-09-18 16:55:47			0	38230	0	0	0	23602	22200	158632	27384	1057652	46481	108702	0	0	8197	549879	0	0
2024-09-18 16:56:47			0	38222	0	0	0	23599	22200	158668	27152	1057652	46481	108701	0	0	8196	550192	0	0
2024-09-18 16:57:47			0	38235	0	0	0	23620	22190	158640	27369	1057661	46481	108709	0	0	8197	549713	0	0
2024-09-18 16:58:47			0	38211	0	0	0	23615	22200	158684	26961	1057706	46481	108707	0	0	8195	550623	0	0
2024-09-18 16:59:47			0	38229	0	0	0	23602	22200	158668	27241	1057696	46481	108702	0	0	8197	549918	0	0
2024-09-18 17:00:47			0	38208	0	0	0	23605	22200	158652	27341	1057696	46469	108703	0	0	8195	550741	0	0
2024-09-18 17:01:47			0	38236	0	0	0	23605	22190	158584	27552	1057634	46469	108703	0	0	8197	549674	0	0
2024-09-18 17:02:47			0	38240	0	0	0	23597	22190	158644	27020	1057634	46492	108700	0	0	8197	549517	0	0
2024-09-18 17:03:47			0	38246	0	0	0	23599	22200	158616	27305	1057679	46502	108701	0	0	8198	549252	0	0
2024-09-18 17:04:47			0	38232	0	0	0	23597	22200	158452	27175	1057723	46481	108700	0	0	8197	549800	0	0
2024-09-18 17:05:47			0	38234	0	0	0	23605	22190	158604	27294	1057688	46469	108703	0	0	8197	549753	0	0
2024-09-18 17:06:47			0	38245	0	0	0	23612	22200	158600	27260	1057599	46492	108706	0	0	8197	549291	0	0
2024-09-18 17:07:47			0	38242	0	0	0	23605	22200	158616	27033	1057759	46481	108703	0	0	8197	549409	0	0
2024-09-18 17:08:47			0	38246	0	0	0	23599	22200	158688	27001	1057723	46481	108701	0	0	8198	549252	0	0
2024-09-18 17:09:47			0	38223	0	0	0	23597	22190	158688	27305	1057688	46458	108700	0	0	8196	550184	0	0
2024-09-18 17:10:47			0	38239	0	0	0	23605	22190	158648	27499	1057661	46492	108703	0	0	8197	549557	0	0
2024-09-18 17:11:47			0	38224	0	0	0	23599	22180	158652	27469	1057643	46479	108701	0	0	8196	550175	0	0
2024-09-18 17:12:47			0	38248	0	0	0	23607	22200	158728	27270	1057670	46481	108704	0	0	8198	549174	0	0
2024-09-18 17:13:47			0	38239	0	0	0	23607	22190	158696	27140	1057652	46468	108704	0	0	8197	549557	0	0
2024-09-18 17:14:47			0	38235	0	0	0	23607	22200	158656	27215	1057670	46458	108704	0	0	8197	549683	0	0
2024-09-18 17:15:47			0	38220	0	0	0	23610	22200	158580	27163	1057643	46481	108705	0	0	8196	550270	0	0
2024-09-18 17:16:47			0	38219	0	0	0	23597	22190	158756	27251	1057652	46491	108700	0	0	8196	550340	0	0
2024-09-18 17:17:47			0	38204	0	0	0	23602	22190	158824	27083	1057661	46492	108702	0	0	8195	550929	0	0
2024-09-18 17:18:47			0	38220	0	0	0	23605	22200	158800	27251	1057643	46481	108703	0	0	8196	550270	0	0
2024-09-18 17:19:47			0	38216	0	0	0	23605	22190	158736	27273	1057661	46469	108703	0	0	8196	550458	0	0
2024-09-18 17:20:47			0	38201	0	0	0	23602	22190	158776	27731	1057661	46492	108702	0	0	8195	551046	0	0
2024-09-18 17:21:47			0	38199	0	0	0	23597	22190	158684	27170	1057652	46480	108700	0	0	8195	551125	0	0
2024-09-18 17:22:47			0	38209	0	0	0	23597	22190	158760	27204	1057661	46492	108700	0	0	8196	550732	0	0
2024-09-18 17:23:47			0	38196	0	0	0	23602	22200	158664	27322	1057670	46492	108702	0	0	8195	551212	0	0
2024-09-18 17:24:47			0	38209	0	0	0	23597	22190	158748	27364	1057634	46502	108700	0	0	8196	550732	0	0
2024-09-18 17:25:47			0	38208	0	0	0	23610	22190	158812	27310	1057625	46480	108705	0	0	8195	550772	0	0
2024-09-18 17:26:47			0	38182	0	0	0	23615	22190	158772	27433	1057652	46491	108707	0	0	8194	551792	0	0
2024-09-18 17:27:47			0	38184	0	0	0	23610	22190	158932	27242	1057688	46469	108705	0	0	8194	551714	0	0
2024-09-18 17:28:47			0	38177	0	0	0	23607	22190	158872	27433	1057634	46481	108704	0	0	8193	551988	0	0
2024-09-18 17:29:47			0	38186	0	0	0	23607	22190	158896	27291	1057661	46492	108704	0	0	8194	551635	0	0
2024-09-18 17:30:47			0	38177	0	0	0	23607	22200	158836	27319	1057679	46469	108704	0	0	8194	551958	0	0
2024-09-18 17:31:47			0	38179	0	0	0	23610	22190	158800	27353	1057688	46481	108705	0	0	8194	551910	0	0
2024-09-18 17:32:47			0	38180	0	0	0	23620	22190	158808	27281	1057741	46481	108709	0	0	8193	551871	0	0
2024-09-18 17:33:47			0	38167	0	0	0	23618	22200	158828	27199	1057643	46492	108708	0	0	8193	552350	0	0
2024-09-18 17:34:47			0	38170	0	0	0	23623	22200	158840	27187	1057723	46502	108710	0	0	8193	552233	0	0
2024-09-18 17:35:47			0	38178	0	0	0	23618	22200	158844	27308	1057759	46481	108708	0	0	8193	551918	0	0
2024-09-18 17:36:47			0	38161	0	0	0	23620	22200	158844	27472	1057750	46469	108709	0	0	8192	552586	0	0
2024-09-18 17:37:47			0	38167	0	0	0	23620	22210	158856	27097	1057741	46470	108709	0	0	8193	552320	0	0
2024-09-18 17:38:47			0	38174	0	0	0	23625	22200	158812	27308	1057679	46481	108711	0	0	8193	552075	0	0
2024-09-18 17:39:47			0	38177	0	0	0	23615	22210	158864	27334	1057741	46482	108707	0	0	8193	551927	0	0
2024-09-18 17:40:47			0	38176	0	0	0	23612	22200	158868	27022	1057679	46492	108706	0	0	8193	551997	0	0
2024-09-18 17:41:47			0	38166	0	0	0	23620	22200	158896	27422	1057732	46481	108709	0	0	8193	552390	0	0
2024-09-18 17:42:47			0	38181	0	0	0	23628	22210	158784	27296	1057741	46470	108712	0	0	8193	551770	0	0
2024-09-18 17:43:47			0	38148	0	0	0	23628	22200	158744	27454	1057759	46502	108712	0	0	8191	553097	0	0
2024-09-18 17:44:47			0	38153	0	0	0	23636	22220	158892	27284	1057759	46483	108715	0	0	8192	552839	0	0
2024-09-18 17:45:47			0	38143	0	0	0	23633	22210	158940	27526	1057777	46504	108714	0	0	8191	553263	0	0
2024-09-18 17:46:47			0	38169	0	0	0	23633	22210	158820	27293	1057777	46483	108714	0	0	8193	552241	0	0
2024-09-18 17:47:47			0	38145	0	0	0	23633	22210	158984	27597	1057795	46503	108714	0	0	8191	553184	0	0
2024-09-18 17:48:47			0	38155	0	0	0	23633	22220	158944	27282	1057813	46494	108714	0	0	8192	552760	0	0
2024-09-18 17:49:47			0	38152	0	0	0	23625	22210	158988	27455	1057768	46470	108711	0	0	8192	552909	0	0
2024-09-18 17:50:47			0	38165	0	0	0	23625	22220	158932	27220	1057848	46471	108711	0	0	8193	552367	0	0
2024-09-18 17:51:47			0	38163	0	0	0	23633	22210	159052	27395	1057750	46494	108714	0	0	8192	552477	0	0
2024-09-18 17:52:47			0	38150	0	0	0	23631	22220	158880	27350	1057875	46483	108713	0	0	8192	552957	0	0
2024-09-18 17:53:47			0	38150	0	0	0	23631	22220	158896	27327	1057786	46471	108713	0	0	8192	552957	0	0
2024-09-18 17:54:47			0	38157	0	0	0	23638	22230	158928	27317	1057830	46484	108716	0	0	8192	552651	0	0
2024-09-18 17:55:47			0	38152	0	0	0	23649	22220	158816	27001	1057786	46483	108720	0	0	8191	552878	0	0
2024-09-18 17:56:47			0	38153	0	0	0	23659	22220	158888	27232	1057848	46494	108724	0	0	8191	552839	0	0
2024-09-18 17:57:47			0	38156	0	0	0	23654	22220	158956	27104	1057848	46483	108722	0	0	8192	552721	0	0
2024-09-18 17:58:47			0	38146	0	0	0	23651	22220	159016	27164	1057848	46515	108721	0	0	8191	553114	0	0
2024-09-18 17:59:47			0	38135	0	0	0	23654	22240	158932	27209	1057875	46496	108722	0	0	8190	553485	0	0
2024-09-18 18:00:47			0	38147	0	0	0	23646	22230	158980	27609	1057857	46495	108719	0	0	8191	553044	0	0
2024-09-18 18:01:47			0	38138	0	0	0	23649	22230	158972	27171	1057866	46485	108720	0	0	8191	553398	0	0
2024-09-18 18:02:47			0	38149	0	0	0	23638	22230	158956	27168	1057866	46473	108716	0	0	8192	552965	0	0
2024-09-18 18:03:47			0	38143	0	0	0	23641	22220	158948	26890	1057928	46483	108717	0	0	8191	553232	0	0
2024-09-18 18:04:47			0	38131	0	0	0	23641	22230	158964	27312	1057813	46485	108717	0	0	8190	553673	0	0
2024-09-18 18:05:47			0	38148	0	0	0	23628	22230	159032	27381	1057830	46472	108712	0	0	8192	553005	0	0
2024-09-18 18:06:47			0	38154	0	0	0	23628	22230	158944	27390	1057777	46472	108712	0	0	8192	552769	0	0
2024-09-18 18:07:47			0	38159	0	0	0	23625	22220	158976	27265	1057866	46483	108711	0	0	8192	552603	0	0
2024-09-18 18:08:47			0	38163	0	0	0	23605	22220	158892	27348	1057813	46471	108703	0	0	8193	552446	0	0
2024-09-18 18:09:47			0	38161	0	0	0	23589	22220	158932	27422	1057759	46471	108697	0	0	8193	552524	0	0
2024-09-18 18:10:47			0	38167	0	0	0	23602	22210	158820	27248	1057750	46460	108702	0	0	8193	552320	0	0
2024-09-18 18:11:47			0	38193	0	0	0	23579	22210	158752	27364	1057635	46482	108693	0	0	8195	551299	0	0
2024-09-18 18:12:47			0	38196	0	0	0	23589	22200	158728	27126	1057626	46481	108697	0	0	8195	551212	0	0
2024-09-18 18:13:47			0	38213	0	0	0	23586	22200	158724	27190	1057643	46481	108696	0	0	8196	550545	0	0
2024-09-18 18:14:47			0	38222	0	0	0	23586	22200	158724	26885	1057616	46469	108696	0	0	8197	550192	0	0
2024-09-18 18:15:47			0	38229	0	0	0	23576	22190	158640	27234	1057599	46468	108692	0	0	8197	549948	0	0
2024-09-18 18:16:47			0	38247	0	0	0	23586	22200	158608	27358	1057643	46469	108696	0	0	8198	549213	0	0
2024-09-18 18:17:47			0	38264	0	0	0	23589	22190	158624	27604	1057652	46468	108697	0	0	8199	548578	0	0
2024-09-18 18:18:47			0	38258	0	0	0	23579	22190	158504	27185	1057634	46481	108693	0	0	8199	548813	0	0
2024-09-18 18:19:47			0	38271	0	0	0	23586	22180	158480	27211	1057616	46479	108696	0	0	8199	548335	0	0
2024-09-18 18:20:47			0	38270	0	0	0	23579	22180	158412	27223	1057607	46478	108693	0	0	8199	548374	0	0
2024-09-18 18:21:47			0	38277	0	0	0	23584	22180	158524	27059	1057581	46478	108695	0	0	8200	548100	0	0
2024-09-18 18:22:47			0	38284	0	0	0	23568	22190	158340	27105	1057572	46491	108689	0	0	8200	547796	0	0
2024-09-18 18:23:47			0	38301	0	0	0	23574	22180	158244	27138	1057527	46456	108691	0	0	8201	547162	0	0
2024-09-18 18:24:47			0	38301	0	0	0	23579	22180	158380	27107	1057634	46500	108693	0	0	8201	547162	0	0
2024-09-18 18:25:47			0	38322	0	0	0	23579	22180	158232	27144	1057581	46466	108693	0	0	8202	546342	0	0
2024-09-18 18:26:47			0	38313	0	0	0	23589	22180	158264	27033	1057581	46500	108697	0	0	8202	546694	0	0
2024-09-18 18:27:47			0	38334	0	0	0	23586	22180	158292	27287	1057616	46467	108696	0	0	8203	545874	0	0
2024-09-18 18:28:47			0	38323	0	0	0	23586	22170	158252	27372	1057563	46500	108696	0	0	8202	546334	0	0
2024-09-18 18:29:47			0	38342	0	0	0	23594	22170	158232	27097	1057598	46466	108699	0	0	8203	545593	0	0
2024-09-18 18:30:47			0	38344	0	0	0	23592	22170	158208	27258	1057598	46500	108698	0	0	8203	545515	0	0
2024-09-18 18:31:47			0	38347	0	0	0	23597	22180	158172	27500	1057527	46478	108700	0	0	8204	545367	0	0
2024-09-18 18:32:47			0	38355	0	0	0	23597	22170	158188	27362	1057545	46489	108700	0	0	8204	545086	0	0
2024-09-18 18:33:47			0	38356	0	0	0	23592	22180	158144	26963	1057581	46500	108698	0	0	8204	545017	0	0
2024-09-18 18:34:47			0	38353	0	0	0	23586	22180	158140	26849	1057607	46478	108696	0	0	8204	545133	0	0
2024-09-18 18:35:47			0	38346	0	0	0	23584	22180	158120	27194	1057643	46467	108695	0	0	8204	545406	0	0
2024-09-18 18:36:47			0	38361	0	0	0	23576	22180	158184	27026	1057616	46479	108692	0	0	8205	544822	0	0
2024-09-18 18:37:47			0	38350	0	0	0	23579	22180	158172	26972	1057581	46456	108693	0	0	8204	545250	0	0
2024-09-18 18:38:47			0	38350	0	0	0	23592	22180	158184	26941	1057607	46478	108698	0	0	8204	545250	0	0
2024-09-18 18:39:47			0	38357	0	0	0	23589	22170	158192	27138	1057616	46478	108697	0	0	8204	545008	0	0
2024-09-18 18:40:47			0	38350	0	0	0	23584	22180	158064	27180	1057607	46478	108695	0	0	8204	545250	0	0
2024-09-18 18:41:47			0	38330	0	0	0	23584	22180	158164	26942	1057616	46490	108695	0	0	8203	546030	0	0
2024-09-18 18:42:47			0	38361	0	0	0	23584	22180	158100	27164	1057581	46500	108695	0	0	8205	544822	0	0
2024-09-18 18:43:47			0	38367	0	0	0	23592	22180	158200	27048	1057661	46489	108698	0	0	8205	544588	0	0
2024-09-18 18:44:47			0	38378	0	0	0	23576	22180	158136	27326	1057563	46479	108692	0	0	8206	544160	0	0
2024-09-18 18:45:47			0	38364	0	0	0	23592	22180	158104	27206	1057643	46479	108698	0	0	8205	544705	0	0
2024-09-18 18:46:47			0	38363	0	0	0	23584	22180	158100	27149	1057616	46479	108695	0	0	8205	544744	0	0
2024-09-18 18:47:47			0	38348	0	0	0	23592	22180	158160	27279	1057554	46489	108698	0	0	8204	545328	0	0
2024-09-18 18:48:47			0	38362	0	0	0	23584	22180	158260	27007	1057554	46489	108695	0	0	8205	544783	0	0
2024-09-18 18:49:47			0	38359	0	0	0	23589	22180	158180	27201	1057554	46478	108697	0	0	8204	544900	0	0
2024-09-18 18:50:47			0	38338	0	0	0	23584	22170	158208	27078	1057563	46478	108695	0	0	8203	545749	0	0
2024-09-18 18:51:47			0	38344	0	0	0	23579	22170	158208	27364	1057572	46466	108693	0	0	8204	545515	0	0
2024-09-18 18:52:47			0	38332	0	0	0	23581	22170	158336	27156	1057589	46466	108694	0	0	8203	545983	0	0
2024-09-18 18:53:47			0	38317	0	0	0	23581	22180	158340	27086	1057581	46489	108694	0	0	8202	546537	0	0
2024-09-18 18:54:47			0	38304	0	0	0	23571	22170	158360	27279	1057652	46466	108690	0	0	8201	547076	0	0
2024-09-18 18:55:47			0	38322	0	0	0	23581	22170	158328	27039	1057616	46489	108694	0	0	8202	546373	0	0
2024-09-18 18:56:47			0	38306	0	0	0	23581	22180	158304	27038	1057634	46478	108694	0	0	8201	546967	0	0
2024-09-18 18:57:47			0	38313	0	0	0	23566	22180	158416	27307	1057527	46489	108688	0	0	8202	546694	0	0
2024-09-18 18:58:47			0	38308	0	0	0	23568	22170	158392	27171	1057563	46478	108689	0	0	8202	546920	0	0
2024-09-18 18:59:47			0	38309	0	0	0	23576	22170	158344	27239	1057536	46478	108692	0	0	8202	546880	0	0
2024-09-18 19:00:47			0	38312	0	0	0	23537	22170	158304	27371	1057518	46456	108677	0	0	8202	546763	0	0
2024-09-18 19:01:47			0	38317	0	0	0	23553	22160	158472	27088	1057501	46476	108683	0	0	8202	546599	0	0
2024-09-18 19:02:47			0	38312	0	0	0	23553	22160	158420	27012	1057501	46465	108683	0	0	8202	546794	0	0
2024-09-18 19:03:47			0	38277	0	0	0	23561	22150	158512	27495	1057456	46464	108686	0	0	8200	548192	0	0
2024-09-18 19:04:47			0	38270	0	0	0	23563	22170	158568	27350	1057483	46466	108687	0	0	8200	548405	0	0
2024-09-18 19:05:47			0	38254	0	0	0	23568	22160	158472	27334	1057438	46475	108689	0	0	8199	549061	0	0
2024-09-18 19:06:47			0	38264	0	0	0	23574	22160	158516	27239	1057518	46475	108691	0	0	8199	548670	0	0
2024-09-18 19:07:47			0	38257	0	0	0	23581	22170	158508	27109	1057563	46466	108694	0	0	8199	548913	0	0
2024-09-18 19:08:47			0	38252	0	0	0	23576	22160	158612	27222	1057527	46499	108692	0	0	8198	549140	0	0
2024-09-18 19:09:47			0	38271	0	0	0	23566	22160	158536	27322	1057527	46499	108688	0	0	8200	548396	0	0
2024-09-18 19:10:47			0	38286	0	0	0	23566	22160	158464	27308	1057518	46487	108688	0	0	8200	547810	0	0
2024-09-18 19:11:47			0	38262	0	0	0	23589	22160	158476	27313	1057554	46465	108697	0	0	8199	548748	0	0
2024-09-18 19:12:47			0	38261	0	0	0	23584	22170	158524	27104	1057536	46456	108695	0	0	8199	548757	0	0
2024-09-18 19:13:47			0	38263	0	0	0	23574	22160	158524	27190	1057492	46475	108691	0	0	8199	548709	0	0
2024-09-18 19:14:47			0	38261	0	0	0	23581	22160	158512	27261	1057518	46475	108694	0	0	8199	548787	0	0
2024-09-18 19:15:47			0	38278	0	0	0	23561	22150	158604	27039	1057536	46475	108686	0	0	8200	548153	0	0
2024-09-18 19:16:47			0	38264	0	0	0	23574	22160	158644	27358	1057518	46487	108691	0	0	8199	548670	0	0
2024-09-18 19:17:47			0	38255	0	0	0	23568	22150	158552	27114	1057483	46475	108689	0	0	8199	549053	0	0
2024-09-18 19:18:47			0	38266	0	0	0	23574	22170	158568	27402	1057536	46478	108691	0	0	8199	548561	0	0
2024-09-18 19:19:47			0	38256	0	0	0	23571	22170	158552	27350	1057589	46478	108690	0	0	8199	548952	0	0
2024-09-18 19:20:47			0	38265	0	0	0	23584	22160	158556	27282	1057572	46498	108695	0	0	8199	548631	0	0
2024-09-18 19:21:47			0	38262	0	0	0	23581	22160	158540	27275	1057474	46476	108694	0	0	8199	548748	0	0
2024-09-18 19:22:47			0	38256	0	0	0	23568	22160	158632	27495	1057474	46465	108689	0	0	8199	548983	0	0
2024-09-18 19:23:47			0	38230	0	0	0	23574	22160	158684	27260	1057554	46465	108691	0	0	8197	550001	0	0
2024-09-18 19:24:47			0	38240	0	0	0	23581	22170	158612	27131	1057536	46478	108694	0	0	8198	549579	0	0
2024-09-18 19:25:47			0	38254	0	0	0	23574	22160	158620	27166	1057518	46464	108691	0	0	8198	549061	0	0
2024-09-18 19:26:47			0	38250	0	0	0	23581	22170	158520	27296	1057563	46466	108694	0	0	8198	549187	0	0
2024-09-18 19:27:47			0	38271	0	0	0	23579	22170	158456	27208	1057536	46466	108693	0	0	8199	548366	0	0
2024-09-18 19:28:47			0	38258	0	0	0	23568	22170	158536	27074	1057563	46478	108689	0	0	8199	548874	0	0
2024-09-18 19:29:47			0	38239	0	0	0	23568	22160	158588	26963	1057501	46476	108689	0	0	8198	549649	0	0
2024-09-18 19:30:47			0	38238	0	0	0	23566	22160	158568	27007	1057581	46465	108688	0	0	8198	549688	0	0
2024-09-18 19:31:47			0	38238	0	0	0	23574	22160	158664	27137	1057501	46465	108691	0	0	8197	549688	0	0
2024-09-18 19:32:47			0	38229	0	0	0	23576	22170	158688	27383	1057536	46466	108692	0	0	8197	550010	0	0
2024-09-18 19:33:47			0	38221	0	0	0	23561	22150	158724	27395	1057563	46475	108686	0	0	8197	550385	0	0
2024-09-18 19:34:47			0	38220	0	0	0	23550	22160	158736	27178	1057501	46476	108682	0	0	8197	550393	0	0
2024-09-18 19:35:47			0	38219	0	0	0	23545	22150	158680	27213	1057500	46464	108680	0	0	8197	550463	0	0
2024-09-18 19:36:47			0	38233	0	0	0	23548	22150	158728	27274	1057456	46454	108681	0	0	8198	549914	0	0
2024-09-18 19:37:47			0	38210	0	0	0	23542	22150	158704	27242	1057509	46454	108679	0	0	8196	550816	0	0
2024-09-18 19:38:47			0	38213	0	0	0	23537	22150	158684	27284	1057429	46475	108677	0	0	8197	550698	0	0
2024-09-18 19:39:47			0	38220	0	0	0	23545	22140	158588	27398	1057438	46442	108680	0	0	8197	550455	0	0
2024-09-18 19:40:47			0	38234	0	0	0	23529	22140	158612	27185	1057465	46475	108674	0	0	8198	549906	0	0
2024-09-18 19:41:47			0	38218	0	0	0	23540	22140	158708	27400	1057411	46463	108678	0	0	8197	550533	0	0
2024-09-18 19:42:47			0	38220	0	0	0	23545	22150	158696	27140	1057367	46475	108680	0	0	8197	550424	0	0
2024-09-18 19:43:47			0	38230	0	0	0	23542	22140	158728	27282	1057402	46462	108679	0	0	8197	550063	0	0
2024-09-18 19:44:47			0	38231	0	0	0	23545	22140	158732	27384	1057456	46485	108680	0	0	8197	550024	0	0
2024-09-18 19:45:47			0	38206	0	0	0	23540	22140	158700	27161	1057376	46462	108678	0	0	8196	551004	0	0
2024-09-18 19:46:47			0	38215	0	0	0	23548	22140	158692	27182	1057411	46486	108681	0	0	8196	550651	0	0
2024-09-18 19:47:47			0	38235	0	0	0	23545	22140	158644	27157	1057376	46474	108680	0	0	8198	549867	0	0
2024-09-18 19:48:47			0	38205	0	0	0	23542	22150	158784	27074	1057447	46464	108679	0	0	8196	551012	0	0
2024-09-18 19:49:47			0	38205	0	0	0	23532	22140	158764	27156	1057429	46474	108675	0	0	8196	551043	0	0
2024-09-18 19:50:47			0	38211	0	0	0	23532	22140	158820	27000	1057376	46462	108675	0	0	8197	550808	0	0
2024-09-18 19:51:47			0	38197	0	0	0	23548	22130	158776	27277	1057367	46474	108681	0	0	8195	551388	0	0
2024-09-18 19:52:47			0	38226	0	0	0	23537	22150	158816	27164	1057420	46464	108677	0	0	8197	550189	0	0
2024-09-18 19:53:47			0	38205	0	0	0	23545	22130	158828	27126	1057367	46474	108680	0	0	8196	551074	0	0
2024-09-18 19:54:47			0	38207	0	0	0	23545	22130	158836	27196	1057358	46462	108680	0	0	8196	550995	0	0
2024-09-18 19:55:47			0	38210	0	0	0	23553	22140	158696	27182	1057385	46475	108683	0	0	8196	550847	0	0
2024-09-18 19:56:47			0	38200	0	0	0	23540	22130	158800	27085	1057367	46496	108678	0	0	8196	551270	0	0
2024-09-18 19:57:47			0	38203	0	0	0	23545	22130	158816	27329	1057394	46474	108680	0	0	8196	551152	0	0
2024-09-18 19:58:47			0	38211	0	0	0	23542	22130	158792	27417	1057367	46474	108679	0	0	8196	550839	0	0
2024-09-18 19:59:47			0	38208	0	0	0	23548	22130	158808	26977	1057394	46485	108681	0	0	8196	550956	0	0
2024-09-18 20:00:47			0	38200	0	0	0	23540	22130	158772	27211	1057367	46462	108678	0	0	8196	551270	0	0
2024-09-18 20:01:47			0	38192	0	0	0	23540	22140	158812	27013	1057349	46474	108678	0	0	8195	551553	0	0
2024-09-18 20:02:47			0	38187	0	0	0	23558	22130	158852	27265	1057367	46474	108685	0	0	8195	551780	0	0
2024-09-18 20:03:47			0	38183	0	0	0	23548	22130	158900	27268	1057394	46474	108681	0	0	8195	551938	0	0
2024-09-18 20:04:47			0	38217	0	0	0	23555	22130	158888	27256	1057438	46474	108684	0	0	8196	550603	0	0
2024-09-18 20:05:47			0	38206	0	0	0	23548	22140	158812	27170	1057429	46462	108681	0	0	8196	551004	0	0
2024-09-18 20:06:47			0	38190	0	0	0	23553	22140	158832	27241	1057438	46475	108683	0	0	8195	551632	0	0
2024-09-18 20:07:47			0	38203	0	0	0	23545	22140	158844	27144	1057429	46485	108680	0	0	8196	551122	0	0
2024-09-18 20:08:47			0	38184	0	0	0	23540	22140	158848	27253	1057438	46486	108678	0	0	8195	551868	0	0
2024-09-18 20:09:47			0	38184	0	0	0	23548	22140	158876	27281	1057411	46463	108681	0	0	8195	551868	0	0
2024-09-18 20:10:47			0	38179	0	0	0	23548	22140	158868	27135	1057411	46497	108681	0	0	8194	552064	0	0
2024-09-18 20:11:47			0	38168	0	0	0	23542	22130	158944	27248	1057420	46462	108679	0	0	8194	552527	0	0
2024-09-18 20:12:47			0	38174	0	0	0	23545	22150	158836	27144	1057394	46464	108680	0	0	8194	552229	0	0
2024-09-18 20:13:47			0	38170	0	0	0	23550	22140	159008	27083	1057456	46485	108682	0	0	8194	552417	0	0
2024-09-18 20:14:47			0	38170	0	0	0	23535	22140	158932	27239	1057402	46474	108676	0	0	8194	552417	0	0
2024-09-18 20:15:47			0	38155	0	0	0	23548	22140	159036	27152	1057456	46485	108681	0	0	8193	553007	0	0
2024-09-18 20:16:47			0	38165	0	0	0	23553	22140	158976	27268	1057438	46486	108683	0	0	8193	552614	0	0
2024-09-18 20:17:47			0	38174	0	0	0	23537	22130	158976	27005	1057385	46474	108677	0	0	8194	552291	0	0
2024-09-18 20:18:47			0	38144	0	0	0	23545	22140	159064	27443	1057456	46462	108680	0	0	8192	553440	0	0
2024-09-18 20:19:47			0	38141	0	0	0	23532	22140	158964	27144	1057402	46485	108675	0	0	8192	553558	0	0
2024-09-18 20:20:47			0	38147	0	0	0	23535	22120	159056	27227	1057322	46472	108676	0	0	8193	553383	0	0
2024-09-18 20:21:47			0	38142	0	0	0	23537	22140	158980	26987	1057429	46462	108677	0	0	8192	553519	0	0
2024-09-18 20:22:47			0	38132	0	0	0	23535	22130	159084	27241	1057331	46462	108676	0	0	8192	553943	0	0
2024-09-18 20:23:47			0	38119	0	0	0	23542	22130	159104	27239	1057385	46462	108679	0	0	8191	554455	0	0
2024-09-18 20:24:47			0	38124	0	0	0	23553	22120	159152	27223	1057402	46472	108683	0	0	8191	554289	0	0
2024-09-18 20:25:47			0	38118	0	0	0	23545	22130	159032	27509	1057367	46462	108680	0	0	8191	554494	0	0
2024-09-18 20:26:47			0	38128	0	0	0	23555	22140	159132	27168	1057429	46462	108684	0	0	8191	554069	0	0
2024-09-18 20:27:47			0	38113	0	0	0	23555	22130	159084	27301	1057394	46485	108684	0	0	8190	554691	0	0
2024-09-18 20:28:47			0	38125	0	0	0	23550	22140	159128	27208	1057411	46486	108682	0	0	8191	554188	0	0
2024-09-18 20:29:47			0	38137	0	0	0	23550	22130	159216	27218	1057367	46485	108682	0	0	8192	553746	0	0
2024-09-18 20:30:47			0	38125	0	0	0	23550	22140	159084	27131	1057429	46485	108682	0	0	8191	554188	0	0
2024-09-18 20:31:47			0	38119	0	0	0	23553	22140	159080	27218	1057438	46463	108683	0	0	8191	554424	0	0
2024-09-18 20:32:47			0	38108	0	0	0	23558	22140	159184	27071	1057456	46474	108685	0	0	8190	554857	0	0
2024-09-18 20:33:47			0	38125	0	0	0	23558	22130	159144	26986	1057447	46474	108685	0	0	8191	554219	0	0
2024-09-18 20:34:47			0	38108	0	0	0	23553	22150	159064	27012	1057474	46487	108683	0	0	8190	554826	0	0
2024-09-18 20:35:47			0	38094	0	0	0	23548	22140	159136	26916	1057385	46463	108681	0	0	8189	555409	0	0
2024-09-18 20:36:47			0	38107	0	0	0	23548	22140	159196	26994	1057385	46463	108681	0	0	8190	554897	0	0
2024-09-18 20:37:47			0	38104	0	0	0	23548	22140	159184	27052	1057402	46462	108681	0	0	8190	555015	0	0
2024-09-18 20:38:47			0	38118	0	0	0	23550	22150	159208	27107	1057394	46475	108682	0	0	8191	554432	0	0
2024-09-18 20:39:47			0	38087	0	0	0	23542	22140	159276	27400	1057385	46486	108679	0	0	8189	555685	0	0
2024-09-18 20:40:47			0	38090	0	0	0	23545	22140	159204	27216	1057429	46474	108680	0	0	8189	555567	0	0
2024-09-18 20:41:47			0	38092	0	0	0	23553	22130	159240	26979	1057394	46474	108683	0	0	8189	555519	0	0
2024-09-18 20:42:47			0	38089	0	0	0	23542	22140	159232	27315	1057429	46452	108679	0	0	8189	555606	0	0
2024-09-18 20:43:47			0	38099	0	0	0	23542	22140	159312	27034	1057429	46452	108679	0	0	8190	555212	0	0
2024-09-18 20:44:47			0	38086	0	0	0	23545	22130	159308	27275	1057358	46462	108680	0	0	8189	555756	0	0
2024-09-18 20:45:47			0	38087	0	0	0	23553	22140	159364	27154	1057429	46474	108683	0	0	8189	555685	0	0
2024-09-18 20:46:47			0	38063	0	0	0	23553	22140	159320	27142	1057411	46463	108683	0	0	8188	556632	0	0
2024-09-18 20:47:47			0	38073	0	0	0	23550	22140	159300	27232	1057402	46485	108682	0	0	8188	556237	0	0
2024-09-18 20:48:47			0	38084	0	0	0	23542	22130	159288	27241	1057394	46474	108679	0	0	8189	555834	0	0
2024-09-18 20:49:47			0	38064	0	0	0	23558	22140	159224	27322	1057429	46474	108685	0	0	8187	556593	0	0
2024-09-18 20:50:47			0	38058	0	0	0	23548	22130	159276	27345	1057420	46474	108681	0	0	8187	556861	0	0
2024-09-18 20:51:47			0	38076	0	0	0	23561	22140	159316	27312	1057465	46463	108686	0	0	8188	556119	0	0
2024-09-18 20:52:47			0	38062	0	0	0	23553	22130	159304	27322	1057438	46474	108683	0	0	8187	556703	0	0
2024-09-18 20:53:47			0	38067	0	0	0	23553	22140	159344	27466	1057491	46486	108683	0	0	8188	556474	0	0
2024-09-18 20:54:47			0	38061	0	0	0	23545	22140	159340	27422	1057402	46474	108680	0	0	8188	556711	0	0
2024-09-18 20:55:47			0	38057	0	0	0	23555	22150	159376	27500	1057527	46464	108684	0	0	8187	556838	0	0
2024-09-18 20:56:47			0	38054	0	0	0	23558	22140	159372	27203	1057456	46462	108685	0	0	8187	556988	0	0
2024-09-18 20:57:47			0	38048	0	0	0	23555	22150	159372	27135	1057456	46475	108684	0	0	8187	557194	0	0
2024-09-18 20:58:47			0	38064	0	0	0	23550	22140	159368	27137	1057518	46463	108682	0	0	8188	556593	0	0
2024-09-18 20:59:47			0	38073	0	0	0	23548	22140	159308	27048	1057482	46474	108681	0	0	8188	556237	0	0
2024-09-18 21:00:47			0	38055	0	0	0	23563	22140	159356	27272	1057465	46463	108687	0	0	8187	556948	0	0
2024-09-18 21:01:47			0	38079	0	0	0	23566	22140	159360	27336	1057509	46485	108688	0	0	8188	556001	0	0
2024-09-18 21:02:47			0	38059	0	0	0	23563	22140	159376	27478	1057509	46462	108687	0	0	8187	556790	0	0
2024-09-18 21:03:47			0	38059	0	0	0	23584	22140	159420	27209	1057491	46463	108695	0	0	8187	556790	0	0
2024-09-18 21:04:47			0	38073	0	0	0	23563	22140	159400	27673	1057518	46497	108687	0	0	8188	556237	0	0
2024-09-18 21:05:47			0	38064	0	0	0	23566	22140	159448	27537	1057465	46463	108688	0	0	8187	556593	0	0
2024-09-18 21:06:47			0	38058	0	0	0	23579	22150	159396	27490	1057456	46498	108693	0	0	8187	556799	0	0
2024-09-18 21:07:47			0	38051	0	0	0	23568	22150	159460	26889	1057509	46475	108689	0	0	8187	557075	0	0
2024-09-18 21:08:47			0	38047	0	0	0	23563	22150	159484	27467	1057509	46464	108687	0	0	8186	557233	0	0
2024-09-18 21:09:47			0	38057	0	0	0	23571	22150	159460	27402	1057500	46464	108690	0	0	8187	556838	0	0
2024-09-18 21:10:47			0	38055	0	0	0	23566	22150	159456	27013	1057509	46464	108688	0	0	8187	556917	0	0
2024-09-18 21:11:47			0	38033	0	0	0	23563	22150	159536	27163	1057509	46487	108687	0	0	8186	557786	0	0
2024-09-18 21:12:47			0	38036	0	0	0	23561	22160	159512	27338	1057438	46464	108686	0	0	8186	557637	0	0
2024-09-18 21:13:47			0	38034	0	0	0	23579	22140	159584	27412	1057438	46453	108693	0	0	8185	557778	0	0
2024-09-18 21:14:47			0	38035	0	0	0	23574	22150	159572	27507	1057500	46464	108691	0	0	8186	557707	0	0
2024-09-18 21:15:47			0	38021	0	0	0	23576	22150	159503	26979	1057536	46464	108692	0	0	8185	558261	0	0
2024-09-18 21:16:47			0	38040	0	0	0	23568	22150	159512	27059	1057500	46464	108689	0	0	8186	557510	0	0
2024-09-18 21:17:47			0	38037	0	0	0	23574	22160	159464	27360	1057474	46465	108691	0	0	8186	557597	0	0
2024-09-18 21:18:47			0	38031	0	0	0	23563	22150	159528	27209	1057563	46464	108687	0	0	8186	557866	0	0
2024-09-18 21:19:47			0	38030	0	0	0	23561	22160	159384	27459	1057465	46454	108686	0	0	8186	557874	0	0
2024-09-18 21:20:47			0	38030	0	0	0	23566	22150	159460	27218	1057527	46475	108688	0	0	8185	557905	0	0
2024-09-18 21:21:47			0	38025	0	0	0	23563	22150	159455	27279	1057509	46498	108687	0	0	8185	558103	0	0
2024-09-18 21:22:47			0	38035	0	0	0	23558	22150	159496	27305	1057483	46498	108685	0	0	8186	557707	0	0
2024-09-18 21:23:47			0	38024	0	0	0	23563	22150	159451	27230	1057509	46464	108687	0	0	8185	558142	0	0
2024-09-18 21:24:47			0	38037	0	0	0	23571	22150	159524	26946	1057483	46464	108690	0	0	8186	557628	0	0
2024-09-18 21:25:47			0	38041	0	0	0	23563	22150	159536	27384	1057589	46475	108687	0	0	8186	557470	0	0
2024-09-18 21:26:47			0	38023	0	0	0	23563	22150	159479	27422	1057509	46464	108687	0	0	8185	558182	0	0
2024-09-18 21:27:47			0	38025	0	0	0	23558	22150	159384	27324	1057536	46475	108685	0	0	8185	558103	0	0
2024-09-18 21:28:47			0	38030	0	0	0	23563	22140	159404	27149	1057429	46485	108687	0	0	8185	557936	0	0
2024-09-18 21:29:47			0	38048	0	0	0	23555	22160	159364	27310	1057492	46464	108684	0	0	8187	557163	0	0
2024-09-18 21:30:47			0	38039	0	0	0	23555	22150	159540	27211	1057554	46498	108684	0	0	8186	557549	0	0
2024-09-18 21:31:47			0	38032	0	0	0	23555	22140	159412	27303	1057518	46463	108684	0	0	8186	557857	0	0
2024-09-18 21:32:47			0	38030	0	0	0	23550	22160	159460	27357	1057518	46454	108682	0	0	8186	557874	0	0
2024-09-18 21:33:47			0	38000	0	0	0	23550	22150	159391	27341	1057447	46464	108682	0	0	8184	559092	0	0
2024-09-18 21:34:47			0	38015	0	0	0	23548	22150	159495	27142	1057456	46475	108681	0	0	8185	558498	0	0
2024-09-18 21:35:47			0	38021	0	0	0	23550	22150	159511	27213	1057474	46464	108682	0	0	8185	558261	0	0
2024-09-18 21:36:47			0	38004	0	0	0	23542	22150	159503	27220	1057500	46443	108679	0	0	8184	558934	0	0
2024-09-18 21:37:47			0	38020	0	0	0	23542	22140	159483	27481	1057438	46486	108679	0	0	8185	558332	0	0
2024-09-18 21:38:47			0	38013	0	0	0	23540	22150	159535	27403	1057527	46454	108678	0	0	8185	558578	0	0
2024-09-18 21:39:47			0	38014	0	0	0	23550	22140	159563	27327	1057456	46474	108682	0	0	8185	558569	0	0
2024-09-18 21:40:47			0	38006	0	0	0	23555	22140	159531	27431	1057509	46462	108684	0	0	8184	558886	0	0
2024-09-18 21:41:47			0	38030	0	0	0	23542	22150	159484	27319	1057589	46464	108679	0	0	8186	557905	0	0
2024-09-18 21:42:47			0	38015	0	0	0	23537	22150	159623	27031	1057509	46464	108677	0	0	8185	558498	0	0
2024-09-18 21:43:47			0	38023	0	0	0	23548	22140	159475	27196	1057491	46453	108681	0	0	8185	558213	0	0
2024-09-18 21:44:47			0	38016	0	0	0	23545	22140	159523	27505	1057402	46485	108680	0	0	8185	558490	0	0
2024-09-18 21:45:47			0	38014	0	0	0	23540	22140	159435	27338	1057456	46462	108678	0	0	8185	558569	0	0
2024-09-18 21:46:47			0	38012	0	0	0	23535	22140	159491	27452	1057465	46453	108676	0	0	8185	558648	0	0
2024-09-18 21:47:47			0	38005	0	0	0	23540	22150	159507	26902	1057500	46464	108678	0	0	8184	558894	0	0
2024-09-18 21:48:47			0	38017	0	0	0	23548	22130	159563	27293	1057394	46462	108681	0	0	8185	558482	0	0
2024-09-18 21:49:47			0	38018	0	0	0	23540	22140	159423	27220	1057465	46475	108678	0	0	8185	558411	0	0
2024-09-18 21:50:47			0	38001	0	0	0	23553	22130	159491	27235	1057420	46474	108683	0	0	8184	559115	0	0
2024-09-18 21:51:47			0	38013	0	0	0	23545	22130	159599	27301	1057447	46462	108680	0	0	8185	558640	0	0
2024-09-18 21:52:47			0	37997	0	0	0	23545	22140	159515	27156	1057491	46475	108680	0	0	8184	559242	0	0
2024-09-18 21:53:47			0	38023	0	0	0	23545	22140	159552	27504	1057402	46474	108680	0	0	8185	558213	0	0
2024-09-18 21:54:47			0	37988	0	0	0	23550	22130	159611	27284	1057420	46462	108682	0	0	8183	559630	0	0
2024-09-18 21:55:47			0	37975	0	0	0	23545	22130	159611	27182	1057420	46485	108680	0	0	8182	560145	0	0
2024-09-18 21:56:47			0	37973	0	0	0	23558	22130	159763	27294	1057491	46485	108685	0	0	8182	560224	0	0
2024-09-18 21:57:47			0	37955	0	0	0	23553	22140	159679	27265	1057438	46475	108683	0	0	8181	560907	0	0
2024-09-18 21:58:47			0	37950	0	0	0	23553	22140	159759	27324	1057482	46474	108683	0	0	8181	561105	0	0
2024-09-18 21:59:47			0	37955	0	0	0	23563	22140	159791	27045	1057465	46475	108687	0	0	8181	560907	0	0
2024-09-18 22:00:47			0	37939	0	0	0	23561	22140	159887	27196	1057456	46462	108686	0	0	8180	561542	0	0
2024-09-18 22:01:47			0	37954	0	0	0	23558	22140	159811	27218	1057429	46462	108685	0	0	8181	560947	0	0
2024-09-18 22:02:47			0	37965	0	0	0	23553	22140	159847	27126	1057545	46475	108683	0	0	8182	560510	0	0
2024-09-18 22:03:47			0	37951	0	0	0	23558	22150	159831	27062	1057474	46475	108685	0	0	8181	561034	0	0
2024-09-18 22:04:47			0	37964	0	0	0	23558	22130	159787	27580	1057474	46474	108685	0	0	8182	560581	0	0
2024-09-18 22:05:47			0	37984	0	0	0	23550	22140	159743	27353	1057491	46475	108682	0	0	8183	559757	0	0
2024-09-18 22:06:47			0	37973	0	0	0	23553	22140	159679	27255	1057518	46475	108683	0	0	8182	560193	0	0
2024-09-18 22:07:47			0	37984	0	0	0	23558	22140	159763	27298	1057465	46463	108685	0	0	8183	559757	0	0
2024-09-18 22:08:47			0	37996	0	0	0	23550	22150	159683	27229	1057509	46464	108682	0	0	8184	559251	0	0
2024-09-18 22:09:47			0	37981	0	0	0	23548	22140	159759	27282	1057429	46474	108681	0	0	8183	559876	0	0
2024-09-18 22:10:47			0	37989	0	0	0	23550	22140	159759	27280	1057482	46474	108682	0	0	8183	559559	0	0
2024-09-18 22:11:47			0	37987	0	0	0	23540	22140	159663	27391	1057376	46452	108678	0	0	8183	559638	0	0
2024-09-18 22:12:47			0	37986	0	0	0	23540	22130	159663	27166	1057527	46462	108678	0	0	8183	559709	0	0
2024-09-18 22:13:47			0	37977	0	0	0	23537	22130	159747	27067	1057447	46474	108677	0	0	8183	560066	0	0
2024-09-18 22:14:47			0	37955	0	0	0	23540	22140	159751	27097	1057429	46462	108678	0	0	8181	560907	0	0
2024-09-18 22:15:47			0	37974	0	0	0	23535	22140	159719	27395	1057411	46463	108676	0	0	8183	560153	0	0
2024-09-18 22:16:47			0	37976	0	0	0	23550	22140	159731	27372	1057429	46462	108682	0	0	8182	560074	0	0
2024-09-18 22:17:47			0	37982	0	0	0	23550	22130	159751	27381	1057411	46462	108682	0	0	8183	559868	0	0
2024-09-18 22:18:47			0	37983	0	0	0	23545	22140	159743	27109	1057438	46463	108680	0	0	8183	559797	0	0
2024-09-18 22:19:47			0	37997	0	0	0	23550	22130	159643	27621	1057438	46462	108682	0	0	8184	559273	0	0
2024-09-18 22:20:47			0	38003	0	0	0	23537	22130	159543	27263	1057420	46452	108677	0	0	8184	559036	0	0
2024-09-18 22:21:47			0	37999	0	0	0	23540	22140	159551	27039	1057456	46474	108678	0	0	8184	559163	0	0
2024-09-18 22:22:47			0	38012	0	0	0	23529	22130	159591	27543	1057447	46474	108674	0	0	8185	558679	0	0
2024-09-18 22:23:47			0	38002	0	0	0	23532	22140	159579	27119	1057456	46462	108675	0	0	8184	559044	0	0
2024-09-18 22:24:47			0	38009	0	0	0	23540	22140	159531	27379	1057456	46462	108678	0	0	8185	558767	0	0
2024-09-18 22:25:47			0	38028	0	0	0	23540	22130	159496	27469	1057394	46452	108678	0	0	8186	558046	0	0
2024-09-18 22:26:47			0	38014	0	0	0	23542	22140	159575	27147	1057456	46474	108679	0	0	8185	558569	0	0
2024-09-18 22:27:47			0	38007	0	0	0	23527	22140	159527	27481	1057429	46474	108673	0	0	8185	558846	0	0
2024-09-18 22:28:47			0	38027	0	0	0	23532	22130	159500	27417	1057367	46452	108675	0	0	8186	558086	0	0
2024-09-18 22:29:47			0	38011	0	0	0	23537	22120	159599	27190	1057402	46461	108677	0	0	8185	558750	0	0
2024-09-18 22:30:47			0	38002	0	0	0	23542	22120	159587	27668	1057376	46461	108679	0	0	8184	559107	0	0
2024-09-18 22:31:47			0	38007	0	0	0	23540	22130	159531	27514	1057500	46452	108678	0	0	8184	558877	0	0
2024-09-18 22:32:47			0	38004	0	0	0	23532	22130	159611	27388	1057411	46474	108675	0	0	8184	558996	0	0
2024-09-18 22:33:47			0	38014	0	0	0	23532	22120	159615	27327	1057402	46484	108675	0	0	8185	558631	0	0
2024-09-18 22:34:47			0	38013	0	0	0	23535	22130	159575	27319	1057385	46452	108676	0	0	8185	558640	0	0
2024-09-18 22:35:47			0	38010	0	0	0	23529	22130	159575	27284	1057385	46474	108674	0	0	8185	558759	0	0
2024-09-18 22:36:47			0	38000	0	0	0	23532	22130	159515	27412	1057385	46462	108675	0	0	8184	559154	0	0
2024-09-18 22:37:47			0	37998	0	0	0	23529	22130	159571	27708	1057411	46452	108674	0	0	8184	559234	0	0
2024-09-18 22:38:47			0	37996	0	0	0	23532	22120	159643	27552	1057402	46472	108675	0	0	8184	559344	0	0
2024-09-18 22:39:47			0	37993	0	0	0	23532	22140	159631	27287	1057429	46485	108675	0	0	8184	559400	0	0
2024-09-18 22:40:47			0	37991	0	0	0	23542	22140	159675	27307	1057349	46462	108679	0	0	8183	559480	0	0
2024-09-18 22:41:47			0	37981	0	0	0	23548	22130	159655	27171	1057367	46462	108681	0	0	8183	559907	0	0
2024-09-18 22:42:47			0	37988	0	0	0	23553	22140	159591	27467	1057456	46474	108683	0	0	8183	559599	0	0
2024-09-18 22:43:47			0	37984	0	0	0	23542	22120	159471	27459	1057429	46484	108679	0	0	8183	559819	0	0
2024-09-18 22:44:47			0	37995	0	0	0	23548	22130	159567	27305	1057447	46474	108681	0	0	8184	559352	0	0
2024-09-18 22:45:47			0	38001	0	0	0	23548	22130	159671	27429	1057411	46462	108681	0	0	8184	559115	0	0
2024-09-18 22:46:47			0	37986	0	0	0	23545	22130	159759	27689	1057420	46452	108680	0	0	8183	559709	0	0
2024-09-18 22:47:47			0	37993	0	0	0	23548	22120	159599	27438	1057376	46461	108681	0	0	8183	559463	0	0
2024-09-18 22:48:47			0	37999	0	0	0	23540	22130	159603	27450	1057420	46462	108678	0	0	8184	559194	0	0
2024-09-18 22:49:47			0	37994	0	0	0	23540	22130	159579	27490	1057447	46462	108678	0	0	8184	559392	0	0
2024-09-18 22:50:47			0	38004	0	0	0	23548	22130	159599	27447	1057447	46474	108681	0	0	8184	558996	0	0
2024-09-18 22:51:47			0	37989	0	0	0	23548	22140	159731	27223	1057456	46462	108681	0	0	8183	559559	0	0
2024-09-18 22:52:47			0	38015	0	0	0	23553	22140	159711	27197	1057438	46463	108683	0	0	8185	558530	0	0
2024-09-18 22:53:47			0	37989	0	0	0	23545	22140	159723	27209	1057402	46485	108680	0	0	8183	559559	0	0
2024-09-18 22:54:47			0	38007	0	0	0	23553	22140	159811	27303	1057482	46485	108683	0	0	8184	558846	0	0
2024-09-18 22:55:47			0	38000	0	0	0	23542	22130	159783	27313	1057474	46462	108679	0	0	8184	559154	0	0
2024-09-18 22:56:47			0	38002	0	0	0	23553	22130	159755	27176	1057420	46474	108683	0	0	8184	559075	0	0
2024-09-18 22:57:47			0	38007	0	0	0	23535	22140	159743	27137	1057482	46452	108676	0	0	8185	558846	0	0
2024-09-18 22:58:47			0	37996	0	0	0	23555	22140	159731	27119	1057456	46452	108684	0	0	8184	559282	0	0
2024-09-18 22:59:47			0	38001	0	0	0	23540	22130	159767	27249	1057500	46474	108678	0	0	8184	559115	0	0
2024-09-18 23:00:47			0	37990	0	0	0	23542	22130	159763	27126	1057474	46462	108679	0	0	8183	559550	0	0
2024-09-18 23:01:47			0	37988	0	0	0	23537	22130	159787	27514	1057518	46462	108677	0	0	8183	559630	0	0
2024-09-18 23:02:47			0	37986	0	0	0	23535	22130	159755	26987	1057420	46474	108676	0	0	8183	559709	0	0
2024-09-18 23:03:47			0	37994	0	0	0	23529	22130	159795	27358	1057411	46452	108674	0	0	8184	559392	0	0
2024-09-18 23:04:47			0	37993	0	0	0	23545	22130	159811	27376	1057465	46485	108680	0	0	8184	559432	0	0
2024-09-18 23:05:47			0	37990	0	0	0	23540	22140	159851	27505	1057491	46463	108678	0	0	8183	559519	0	0
2024-09-18 23:06:47			0	37969	0	0	0	23537	22140	159699	27239	1057429	46462	108677	0	0	8182	560352	0	0
2024-09-18 23:07:47			0	37993	0	0	0	23540	22130	159879	27440	1057474	46474	108678	0	0	8184	559432	0	0
2024-09-18 23:08:47			0	37975	0	0	0	23535	22130	159823	27268	1057411	46474	108676	0	0	8183	560145	0	0
2024-09-18 23:09:47			0	37984	0	0	0	23537	22140	159787	27505	1057456	46452	108677	0	0	8183	559757	0	0
2024-09-18 23:10:47			0	37974	0	0	0	23529	22120	159811	27296	1057393	46483	108674	0	0	8183	560216	0	0
2024-09-18 23:11:47			0	37966	0	0	0	23519	22130	159779	27545	1057367	46462	108670	0	0	8182	560502	0	0
2024-09-18 23:12:47			0	37986	0	0	0	23516	22130	159811	27322	1057340	46474	108669	0	0	8184	559709	0	0
2024-09-18 23:13:47			0	37974	0	0	0	23519	22130	159783	27220	1057465	46474	108670	0	0	8183	560185	0	0
2024-09-18 23:14:47			0	37973	0	0	0	23511	22120	159843	27332	1057313	46450	108667	0	0	8183	560256	0	0
2024-09-18 23:15:47			0	37996	0	0	0	23514	22130	159799	27755	1057358	46462	108668	0	0	8184	559313	0	0
2024-09-18 23:16:47			0	37985	0	0	0	23519	22110	159939	27436	1057331	46449	108670	0	0	8183	559811	0	0
2024-09-18 23:17:47			0	37974	0	0	0	23516	22120	159839	27400	1057340	46460	108669	0	0	8183	560216	0	0
2024-09-18 23:18:47			0	37963	0	0	0	23529	22110	159791	27296	1057331	46449	108674	0	0	8182	560683	0	0
2024-09-18 23:19:47			0	37987	0	0	0	23524	22120	159751	27170	1057313	46460	108672	0	0	8183	559701	0	0
2024-09-18 23:20:47			0	37980	0	0	0	23524	22110	159747	27364	1057384	46470	108672	0	0	8183	560009	0	0
2024-09-18 23:21:47			0	37972	0	0	0	23522	22120	159727	27183	1057376	46472	108671	0	0	8183	560295	0	0
2024-09-18 23:22:47			0	37984	0	0	0	23532	22120	159771	27301	1057376	46472	108675	0	0	8183	559819	0	0
2024-09-18 23:23:47			0	37976	0	0	0	23542	22110	159751	27183	1057358	46470	108679	0	0	8182	560168	0	0
2024-09-18 23:24:47			0	37985	0	0	0	23532	22110	159767	27769	1057411	46459	108675	0	0	8183	559811	0	0
2024-09-18 23:25:47			0	37980	0	0	0	23527	22120	159675	27322	1057340	46460	108673	0	0	8183	559978	0	0
2024-09-18 23:26:47			0	37993	0	0	0	23529	22110	159715	27552	1057438	46459	108674	0	0	8184	559494	0	0
2024-09-18 23:27:47			0	37987	0	0	0	23529	22110	159751	27524	1057304	46470	108674	0	0	8183	559732	0	0
2024-09-18 23:28:47			0	37987	0	0	0	23519	22120	159759	27748	1057367	46471	108670	0	0	8184	559701	0	0
2024-09-18 23:29:47			0	37979	0	0	0	23522	22120	159687	27395	1057393	46483	108671	0	0	8183	560018	0	0
2024-09-18 23:30:47			0	37979	0	0	0	23519	22120	159767	27296	1057367	46450	108670	0	0	8183	560018	0	0
2024-09-18 23:31:47			0	37993	0	0	0	23516	22120	159743	27341	1057340	46460	108669	0	0	8184	559463	0	0
2024-09-18 23:32:47			0	37984	0	0	0	23516	22120	159707	27066	1057393	46471	108669	0	0	8183	559819	0	0
2024-09-18 23:33:47			0	37971	0	0	0	23527	22120	159823	27177	1057313	46460	108673	0	0	8182	560335	0	0
2024-09-18 23:34:47			0	37974	0	0	0	23522	22110	159771	27175	1057375	46459	108671	0	0	8183	560247	0	0
2024-09-18 23:35:47			0	37975	0	0	0	23509	22120	159779	27339	1057340	46460	108666	0	0	8183	560176	0	0
2024-09-18 23:36:47			0	37979	0	0	0	23511	22100	159803	27128	1057278	46458	108667	0	0	8183	560080	0	0
2024-09-18 23:37:47			0	37974	0	0	0	23509	22100	159775	27317	1057304	46458	108666	0	0	8183	560278	0	0
2024-09-18 23:38:47			0	37956	0	0	0	23506	22110	159775	27079	1057304	46459	108665	0	0	8182	560961	0	0
2024-09-18 23:39:47			0	37981	0	0	0	23503	22120	159791	27033	1057402	46461	108664	0	0	8183	559938	0	0
2024-09-18 23:40:47			0	37981	0	0	0	23501	22120	159795	27213	1057340	46471	108663	0	0	8184	559938	0	0
2024-09-18 23:41:47			0	37963	0	0	0	23498	22100	159771	27369	1057331	46458	108662	0	0	8182	560715	0	0
2024-09-18 23:42:47			0	37956	0	0	0	23506	22110	159927	27234	1057322	46459	108665	0	0	8182	560961	0	0
2024-09-18 23:43:47			0	37940	0	0	0	23509	22100	159887	27144	1057331	46458	108666	0	0	8181	561628	0	0
2024-09-18 23:44:47			0	37937	0	0	0	23511	22110	159803	27163	1057349	46459	108667	0	0	8181	561715	0	0
2024-09-18 23:45:47			0	37955	0	0	0	23509	22100	159823	27124	1057340	46459	108666	0	0	8182	561032	0	0
2024-09-18 23:46:47			0	37950	0	0	0	23509	22100	159927	27364	1057313	46459	108666	0	0	8181	561230	0	0
2024-09-18 23:47:47			0	37952	0	0	0	23509	22100	159763	27452	1057304	46469	108666	0	0	8182	561151	0	0
2024-09-18 23:48:47			0	37943	0	0	0	23503	22100	159919	27343	1057313	46449	108664	0	0	8181	561508	0	0
2024-09-18 23:49:47			0	37962	0	0	0	23514	22090	159719	27461	1057269	46458	108668	0	0	8182	560786	0	0
2024-09-18 23:50:47			0	37935	0	0	0	23511	22110	159795	27412	1057295	46470	108667	0	0	8181	561795	0	0
2024-09-18 23:51:47			0	37945	0	0	0	23511	22090	159891	27402	1057322	46468	108667	0	0	8181	561460	0	0
2024-09-18 23:52:47			0	37952	0	0	0	23509	22110	159935	27350	1057322	46482	108666	0	0	8182	561120	0	0
2024-09-18 23:53:47			0	37934	0	0	0	23503	22090	159859	27563	1057295	46458	108664	0	0	8181	561897	0	0
2024-09-18 23:54:47			0	37929	0	0	0	23503	22100	159859	27360	1057287	46459	108664	0	0	8180	562064	0	0
2024-09-18 23:55:47			0	37937	0	0	0	23514	22090	159943	27182	1057260	46468	108668	0	0	8181	561778	0	0
2024-09-18 23:56:47			0	37943	0	0	0	23511	22100	159799	27348	1057331	46448	108667	0	0	8181	561508	0	0
2024-09-18 23:57:47			0	37945	0	0	0	23509	22110	159851	27303	1057322	46470	108666	0	0	8181	561398	0	0
2024-09-18 23:58:47			0	37941	0	0	0	23514	22090	159951	27609	1057206	46458	108668	0	0	8181	561619	0	0
2024-09-18 23:59:47			0	37942	0	0	0	23519	22100	159871	27253	1057224	46458	108670	0	0	8181	561548	0	0
2024-09-19 00:00:47			0	37930	0	0	0	23514	22100	159927	27280	1057251	46469	108668	0	0	8180	562025	0	0
2024-09-19 00:01:47			0	37943	0	0	0	23506	22110	159959	27429	1057295	46459	108665	0	0	8181	561477	0	0
2024-09-19 00:02:47			0	37930	0	0	0	23506	22100	159979	27659	1057331	46458	108665	0	0	8180	562025	0	0
2024-09-19 00:03:47			0	37939	0	0	0	23498	22090	159839	27360	1057295	46458	108662	0	0	8181	561699	0	0
2024-09-19 00:04:47			0	37942	0	0	0	23511	22110	159887	27307	1057349	46449	108667	0	0	8181	561517	0	0
2024-09-19 00:05:47			0	37935	0	0	0	23514	22090	159763	27479	1057269	46447	108668	0	0	8180	561857	0	0
2024-09-19 00:06:47			0	37929	0	0	0	23503	22090	159855	27168	1057269	46458	108664	0	0	8180	562096	0	0
2024-09-19 00:07:47			0	37940	0	0	0	23506	22090	159983	27244	1057269	46436	108665	0	0	8181	561659	0	0
2024-09-19 00:08:47			0	37940	0	0	0	23503	22090	159895	27654	1057269	46458	108664	0	0	8181	561659	0	0
2024-09-19 00:09:47			0	37931	0	0	0	23509	22090	159831	27554	1057322	46468	108666	0	0	8180	562016	0	0
2024-09-19 00:10:47			0	37925	0	0	0	23509	22090	159919	27621	1057215	46458	108666	0	0	8180	562255	0	0
2024-09-19 00:11:47			0	37922	0	0	0	23501	22100	159903	27367	1057251	46458	108663	0	0	8180	562343	0	0
2024-09-19 00:12:47			0	37941	0	0	0	23503	22110	159927	27495	1057322	46449	108664	0	0	8181	561556	0	0
2024-09-19 00:13:47			0	37932	0	0	0	23509	22090	159919	27123	1057269	46468	108666	0	0	8180	561977	0	0
2024-09-19 00:14:47			0	37955	0	0	0	23511	22100	159847	27367	1057224	46469	108667	0	0	8182	561032	0	0
2024-09-19 00:15:47			0	37933	0	0	0	23501	22090	159823	27343	1057295	46468	108663	0	0	8181	561937	0	0
2024-09-19 00:16:47			0	37932	0	0	0	23506	22100	159879	27431	1057304	46448	108665	0	0	8180	561945	0	0
2024-09-19 00:17:47			0	37924	0	0	0	23511	22090	159739	27573	1057242	46447	108667	0	0	8180	562295	0	0
2024-09-19 00:18:47			0	37932	0	0	0	23498	22100	159911	27421	1057278	46458	108662	0	0	8181	561945	0	0
2024-09-19 00:19:47			0	37925	0	0	0	23493	22090	159931	27640	1057206	46458	108660	0	0	8180	562255	0	0
2024-09-19 00:20:47			0	37927	0	0	0	23496	22100	159895	27164	1057278	46458	108661	0	0	8180	562144	0	0
2024-09-19 00:21:47			0	37927	0	0	0	23493	22100	159899	26878	1057198	46469	108660	0	0	8180	562144	0	0
2024-09-19 00:22:47			0	37918	0	0	0	23501	22110	159975	27317	1057269	46459	108663	0	0	8180	562470	0	0
2024-09-19 00:23:47			0	37897	0	0	0	23496	22100	160019	27036	1057278	46458	108661	0	0	8179	563337	0	0
2024-09-19 00:24:47			0	37917	0	0	0	23501	22090	160007	27114	1057189	46436	108663	0	0	8180	562573	0	0
2024-09-19 00:25:47			0	37911	0	0	0	23496	22090	159875	27426	1057233	46468	108661	0	0	8179	562811	0	0
2024-09-19 00:26:47			0	37913	0	0	0	23501	22090	159867	27412	1057295	46458	108663	0	0	8179	562732	0	0
2024-09-19 00:27:47			0	37917	0	0	0	23498	22080	159943	27616	1057277	46458	108662	0	0	8180	562604	0	0
2024-09-19 00:28:47			0	37898	0	0	0	23501	22090	159963	27296	1057269	46468	108663	0	0	8179	563328	0	0
2024-09-19 00:29:47			0	37922	0	0	0	23506	22080	160023	27381	1057144	46468	108665	0	0	8180	562405	0	0
2024-09-19 00:30:47			0	37906	0	0	0	23490	22090	160023	27646	1057242	46468	108659	0	0	8179	563010	0	0
2024-09-19 00:31:47			0	37909	0	0	0	23496	22090	160067	27326	1057295	46458	108661	0	0	8179	562891	0	0
2024-09-19 00:32:47			0	37917	0	0	0	23490	22090	159967	27150	1057242	46447	108659	0	0	8180	562573	0	0
2024-09-19 00:33:47			0	37912	0	0	0	23485	22090	159995	27183	1057242	46458	108657	0	0	8180	562772	0	0
2024-09-19 00:34:47			0	37904	0	0	0	23477	22080	160031	27286	1057197	46458	108654	0	0	8179	563121	0	0
2024-09-19 00:35:47			0	37901	0	0	0	23485	22080	160047	27307	1057197	46468	108657	0	0	8179	563240	0	0
2024-09-19 00:36:47			0	37904	0	0	0	23485	22080	160023	27270	1057188	46446	108657	0	0	8179	563121	0	0
2024-09-19 00:37:47			0	37895	0	0	0	23485	22080	160015	27300	1057162	46467	108657	0	0	8179	563479	0	0
2024-09-19 00:38:47			0	37898	0	0	0	23493	22080	160123	27187	1057144	46468	108660	0	0	8179	563360	0	0
2024-09-19 00:39:47			0	37894	0	0	0	23477	22070	160027	27173	1057126	46466	108654	0	0	8179	563550	0	0
2024-09-19 00:40:47			0	37901	0	0	0	23485	22080	160087	27109	1057224	46447	108657	0	0	8179	563240	0	0
2024-09-19 00:41:47			0	37903	0	0	0	23483	22080	159895	27157	1057188	46446	108656	0	0	8179	563161	0	0
2024-09-19 00:42:47			0	37895	0	0	0	23480	22080	159987	27050	1057171	46458	108655	0	0	8179	563479	0	0
2024-09-19 00:43:47			0	37901	0	0	0	23488	22080	159983	27060	1057224	46468	108658	0	0	8179	563240	0	0
2024-09-19 00:44:47			0	37905	0	0	0	23490	22080	160043	27039	1057162	46457	108659	0	0	8179	563081	0	0
2024-09-19 00:45:47			0	37896	0	0	0	23488	22070	160023	27152	1057170	46445	108658	0	0	8179	563471	0	0
2024-09-19 00:46:47			0	37909	0	0	0	23485	22070	160015	27270	1057233	46466	108657	0	0	8179	562954	0	0
2024-09-19 00:47:47			0	37898	0	0	0	23483	22070	160103	27121	1057179	46456	108656	0	0	8179	563391	0	0
2024-09-19 00:48:47			0	37895	0	0	0	23480	22070	159995	27391	1057170	46456	108655	0	0	8179	563511	0	0
2024-09-19 00:49:47			0	37881	0	0	0	23480	22080	160015	27159	1057091	46458	108655	0	0	8178	564036	0	0
2024-09-19 00:50:47			0	37875	0	0	0	23483	22080	160095	27279	1057162	46457	108656	0	0	8177	564275	0	0
2024-09-19 00:51:47			0	37877	0	0	0	23483	22080	160135	27573	1057197	46458	108656	0	0	8178	564196	0	0
2024-09-19 00:52:47			0	37897	0	0	0	23483	22070	160055	27118	1057117	46445	108656	0	0	8179	563431	0	0
2024-09-19 00:53:47			0	37885	0	0	0	23490	22060	160187	27379	1057108	46466	108659	0	0	8178	563940	0	0
2024-09-19 00:54:47			0	37886	0	0	0	23485	22070	160107	27533	1057099	46445	108657	0	0	8178	563869	0	0
2024-09-19 00:55:47			0	37879	0	0	0	23490	22070	160067	27476	1057117	46456	108659	0	0	8177	564148	0	0
2024-09-19 00:56:47			0	37881	0	0	0	23490	22070	160023	27199	1057153	46456	108659	0	0	8178	564068	0	0
2024-09-19 00:57:47			0	37884	0	0	0	23488	22080	160123	27371	1057188	46467	108658	0	0	8178	563917	0	0
2024-09-19 00:58:47			0	37883	0	0	0	23485	22070	160135	27062	1057197	46456	108657	0	0	8178	563988	0	0
2024-09-19 00:59:47			0	37891	0	0	0	23485	22070	160143	27211	1057153	46478	108657	0	0	8178	563670	0	0
2024-09-19 01:00:47			0	37894	0	0	0	23477	22070	160075	27199	1057197	46466	108654	0	0	8179	563550	0	0
2024-09-19 01:01:47			0	37892	0	0	0	23490	22080	160007	27147	1057135	46457	108659	0	0	8178	563599	0	0
2024-09-19 01:02:47			0	37906	0	0	0	23488	22080	159979	27149	1057135	46457	108658	0	0	8179	563042	0	0
2024-09-19 01:03:47			0	37907	0	0	0	23490	22070	160019	27152	1057170	46445	108659	0	0	8179	563033	0	0
2024-09-19 01:04:47			0	37911	0	0	0	23485	22070	160007	27130	1057206	46456	108657	0	0	8179	562874	0	0
2024-09-19 01:05:47			0	37909	0	0	0	23483	22060	159983	27286	1057161	46456	108656	0	0	8179	562985	0	0
2024-09-19 01:06:47			0	37890	0	0	0	23488	22070	159971	27071	1057153	46456	108658	0	0	8178	563710	0	0
2024-09-19 01:07:47			0	37914	0	0	0	23493	22070	159995	27509	1057153	46456	108660	0	0	8179	562755	0	0
2024-09-19 01:08:47			0	37910	0	0	0	23498	22070	159951	27587	1057153	46456	108662	0	0	8179	562914	0	0
2024-09-19 01:09:47			0	37884	0	0	0	23483	22070	160087	27144	1057197	46445	108656	0	0	8178	563948	0	0
2024-09-19 01:10:47			0	37902	0	0	0	23490	22070	160107	27459	1057233	46466	108659	0	0	8179	563232	0	0
2024-09-19 01:11:47			0	37894	0	0	0	23485	22070	160035	27372	1057144	46466	108657	0	0	8178	563550	0	0
2024-09-19 01:12:47			0	37899	0	0	0	23483	22070	160115	27390	1057179	46445	108656	0	0	8179	563351	0	0
2024-09-19 01:13:47			0	37905	0	0	0	23485	22080	160043	27159	1057188	46446	108657	0	0	8179	563081	0	0
2024-09-19 01:14:47			0	37911	0	0	0	23488	22070	159971	27400	1057126	46478	108658	0	0	8179	562874	0	0
2024-09-19 01:15:47			0	37924	0	0	0	23490	22070	160007	27355	1057153	46456	108659	0	0	8180	562357	0	0
2024-09-19 01:16:47			0	37926	0	0	0	23488	22060	160079	27092	1057135	46466	108658	0	0	8180	562309	0	0
2024-09-19 01:17:47			0	37921	0	0	0	23493	22070	160031	27538	1057144	46445	108660	0	0	8180	562476	0	0
2024-09-19 01:18:47			0	37927	0	0	0	23485	22070	160051	27310	1057179	46466	108657	0	0	8180	562238	0	0
2024-09-19 01:19:47			0	37913	0	0	0	23493	22080	159923	27203	1057215	46467	108660	0	0	8179	562763	0	0
2024-09-19 01:20:47			0	37910	0	0	0	23496	22070	160091	27287	1057153	46489	108661	0	0	8179	562914	0	0
2024-09-19 01:21:47			0	37914	0	0	0	23475	22070	160023	27313	1057153	46466	108653	0	0	8180	562755	0	0
2024-09-19 01:22:47			0	37895	0	0	0	23483	22070	160099	27386	1057206	46466	108656	0	0	8179	563511	0	0
2024-09-19 01:23:47			0	37871	0	0	0	23477	22080	160099	27225	1057162	46479	108654	0	0	8177	564435	0	0
2024-09-19 01:24:47			0	37861	0	0	0	23477	22070	160171	27474	1057179	46456	108654	0	0	8177	564865	0	0
2024-09-19 01:25:47			0	37884	0	0	0	23467	22070	160239	27441	1057126	46445	108650	0	0	8178	563948	0	0
2024-09-19 01:26:47			0	37857	0	0	0	23470	22060	160255	27291	1057108	46456	108651	0	0	8176	565056	0	0
2024-09-19 01:27:47			0	37855	0	0	0	23475	22070	160219	27322	1057090	46456	108653	0	0	8176	565104	0	0
2024-09-19 01:28:47			0	37850	0	0	0	23464	22070	160183	27376	1057144	46445	108649	0	0	8176	565303	0	0
2024-09-19 01:29:47			0	37832	0	0	0	23462	22070	160327	27144	1057090	46456	108648	0	0	8175	566021	0	0
2024-09-19 01:30:47			0	37828	0	0	0	23462	22060	160231	27159	1057126	46444	108648	0	0	8175	566213	0	0
2024-09-19 01:31:47			0	37831	0	0	0	23467	22060	160387	27083	1057135	46456	108650	0	0	8175	566093	0	0
2024-09-19 01:32:47			0	37819	0	0	0	23464	22060	160435	27274	1057081	46456	108649	0	0	8174	566572	0	0
2024-09-19 01:33:47			0	37811	0	0	0	23464	22050	160411	27319	1057143	46454	108649	0	0	8174	566923	0	0
2024-09-19 01:34:47			0	37798	0	0	0	23467	22060	160439	27635	1057179	46444	108650	0	0	8173	567411	0	0
2024-09-19 01:35:47			0	37821	0	0	0	23464	22060	160415	27398	1057072	46444	108649	0	0	8174	566492	0	0
2024-09-19 01:36:47			0	37797	0	0	0	23475	22060	160463	27060	1057126	46465	108653	0	0	8173	567451	0	0
2024-09-19 01:37:47			0	37802	0	0	0	23467	22050	160443	27248	1057063	46454	108650	0	0	8173	567283	0	0
2024-09-19 01:38:47			0	37804	0	0	0	23467	22050	160535	27455	1057063	46443	108650	0	0	8173	567203	0	0
2024-09-19 01:39:47			0	37786	0	0	0	23459	22060	160499	27203	1057108	46445	108647	0	0	8172	567891	0	0
2024-09-19 01:40:47			0	37793	0	0	0	23462	22050	160491	27223	1057143	46432	108648	0	0	8173	567643	0	0
2024-09-19 01:41:47			0	37793	0	0	0	23459	22050	160519	27426	1057054	46453	108647	0	0	8173	567643	0	0
2024-09-19 01:42:47			0	37792	0	0	0	23459	22060	160471	27260	1057072	46455	108647	0	0	8173	567651	0	0
2024-09-19 01:43:47			0	37789	0	0	0	23464	22060	160515	27310	1057072	46444	108649	0	0	8173	567771	0	0
2024-09-19 01:44:47			0	37804	0	0	0	23464	22050	160447	27213	1057036	46454	108649	0	0	8173	567203	0	0
2024-09-19 01:45:47			0	37793	0	0	0	23454	22050	160531	27192	1057081	46442	108645	0	0	8173	567643	0	0
2024-09-19 01:46:47			0	37804	0	0	0	23457	22050	160411	27490	1057027	46463	108646	0	0	8174	567203	0	0
2024-09-19 01:47:47			0	37803	0	0	0	23454	22050	160359	27161	1057081	46463	108645	0	0	8174	567243	0	0
2024-09-19 01:48:47			0	37796	0	0	0	23462	22060	160407	27440	1057072	46444	108648	0	0	8173	567491	0	0
2024-09-19 01:49:47			0	37800	0	0	0	23457	22050	160419	27242	1057036	46454	108646	0	0	8173	567363	0	0
2024-09-19 01:50:47			0	37804	0	0	0	23454	22050	160387	27518	1057090	46454	108645	0	0	8174	567203	0	0
2024-09-19 01:51:47			0	37794	0	0	0	23457	22050	160367	27343	1057036	46454	108646	0	0	8173	567603	0	0
2024-09-19 01:52:47			0	37802	0	0	0	23457	22040	160467	27060	1057010	46453	108646	0	0	8173	567315	0	0
2024-09-19 01:53:47			0	37796	0	0	0	23449	22040	160515	27187	1057019	46453	108643	0	0	8173	567554	0	0
2024-09-19 01:54:47			0	37770	0	0	0	23446	22040	160567	26885	1056992	46453	108642	0	0	8172	568594	0	0
2024-09-19 01:55:47			0	37767	0	0	0	23441	22050	160615	27280	1057036	46454	108640	0	0	8172	568683	0	0
2024-09-19 01:56:47			0	37743	0	0	0	23451	22040	160647	27384	1057019	46442	108644	0	0	8170	569676	0	0
2024-09-19 01:57:47			0	37749	0	0	0	23444	22040	160735	27180	1056983	46453	108641	0	0	8170	569435	0	0
2024-09-19 01:58:47			0	37737	0	0	0	23449	22040	160775	27130	1056992	46442	108643	0	0	8170	569916	0	0
2024-09-19 01:59:47			0	37753	0	0	0	23446	22040	160699	26981	1057036	46453	108642	0	0	8171	569275	0	0
2024-09-19 02:00:47			0	37731	0	0	0	23449	22040	160671	27071	1057010	46463	108643	0	0	8169	570157	0	0
2024-09-19 02:01:47			0	37732	0	0	0	23444	22040	160787	26951	1057010	46442	108641	0	0	8169	570117	0	0
2024-09-19 02:02:47			0	37727	0	0	0	23441	22030	160823	27293	1057001	46441	108640	0	0	8169	570349	0	0
2024-09-19 02:03:47			0	37712	0	0	0	23438	22040	160851	27173	1056965	46442	108639	0	0	8168	570919	0	0
2024-09-19 02:04:47			0	37702	0	0	0	23438	22040	160795	27119	1056930	46442	108639	0	0	8168	571321	0	0
2024-09-19 02:05:47			0	37700	0	0	0	23438	22040	160915	27008	1056983	46453	108639	0	0	8168	571401	0	0
2024-09-19 02:06:47			0	37692	0	0	0	23436	22040	160951	27409	1056939	46453	108638	0	0	8167	571722	0	0
2024-09-19 02:07:47			0	37676	0	0	0	23451	22030	160987	27161	1057001	46462	108644	0	0	8166	572397	0	0
2024-09-19 02:08:47			0	37691	0	0	0	23446	22030	160939	27507	1056974	46452	108642	0	0	8167	571794	0	0
2024-09-19 02:09:47			0	37694	0	0	0	23449	22040	160971	27178	1056956	46453	108643	0	0	8167	571642	0	0
2024-09-19 02:10:47			0	37684	0	0	0	23449	22030	160979	27377	1056974	46452	108643	0	0	8167	572076	0	0
2024-09-19 02:11:47			0	37685	0	0	0	23454	22040	161063	27310	1057036	46453	108645	0	0	8167	572003	0	0
2024-09-19 02:12:47			0	37706	0	0	0	23449	22040	160907	27547	1057019	46463	108643	0	0	8168	571160	0	0
2024-09-19 02:13:47			0	37711	0	0	0	23449	22030	160887	27187	1057001	46441	108643	0	0	8168	570991	0	0
2024-09-19 02:14:47			0	37699	0	0	0	23449	22040	160951	27364	1056983	46442	108643	0	0	8167	571441	0	0
2024-09-19 02:15:47			0	37702	0	0	0	23446	22030	160959	27287	1057001	46452	108642	0	0	8168	571352	0	0
2024-09-19 02:16:47			0	37707	0	0	0	23446	22030	160931	27429	1057001	46474	108642	0	0	8168	571152	0	0
2024-09-19 02:17:47			0	37699	0	0	0	23444	22030	160823	27364	1056992	46451	108641	0	0	8167	571473	0	0
2024-09-19 02:18:47			0	37675	0	0	0	23449	22030	160799	27377	1056965	46440	108643	0	0	8166	572437	0	0
2024-09-19 02:19:47			0	37710	0	0	0	23444	22030	160911	27573	1056965	46461	108641	0	0	8168	571031	0	0
2024-09-19 02:20:47			0	37662	0	0	0	23449	22030	161047	27313	1056974	46462	108643	0	0	8165	572960	0	0
2024-09-19 02:21:47			0	37658	0	0	0	23446	22030	160971	27372	1056965	46451	108642	0	0	8165	573121	0	0
2024-09-19 02:22:47			0	37687	0	0	0	23441	22030	161119	27175	1056947	46441	108640	0	0	8167	571955	0	0
2024-09-19 02:23:47			0	37665	0	0	0	23436	22030	161091	27312	1056974	46452	108638	0	0	8166	572839	0	0
2024-09-19 02:24:47			0	37659	0	0	0	23433	22030	161079	27154	1057001	46441	108637	0	0	8165	573081	0	0
2024-09-19 02:25:47			0	37665	0	0	0	23438	22030	161103	27111	1056921	46452	108639	0	0	8166	572839	0	0
2024-09-19 02:26:47			0	37647	0	0	0	23438	22030	161163	27325	1057018	46451	108639	0	0	8165	573564	0	0
2024-09-19 02:27:47			0	37658	0	0	0	23444	22030	161111	27085	1056992	46429	108641	0	0	8165	573121	0	0
2024-09-19 02:28:47			0	37653	0	0	0	23444	22040	161131	27618	1057010	46453	108641	0	0	8165	573290	0	0
2024-09-19 02:29:47			0	37658	0	0	0	23438	22030	161131	27296	1056974	46441	108639	0	0	8165	573121	0	0
2024-09-19 02:30:47			0	37660	0	0	0	23438	22030	161143	27376	1056974	46441	108639	0	0	8165	573040	0	0
2024-09-19 02:31:47			0	37663	0	0	0	23433	22030	161123	27076	1056992	46440	108637	0	0	8166	572920	0	0
2024-09-19 02:32:47			0	37663	0	0	0	23444	22030	161123	27320	1056965	46440	108641	0	0	8165	572920	0	0
2024-09-19 02:33:47			0	37669	0	0	0	23438	22030	161059	27253	1056885	46461	108639	0	0	8166	572679	0	0
2024-09-19 02:34:47			0	37662	0	0	0	23436	22030	161151	27403	1056947	46452	108638	0	0	8165	572960	0	0
2024-09-19 02:35:47			0	37668	0	0	0	23436	22030	161151	27531	1057001	46441	108638	0	0	8166	572719	0	0
2024-09-19 02:36:47			0	37655	0	0	0	23446	22030	161143	27505	1057001	46441	108642	0	0	8165	573242	0	0
2024-09-19 02:37:47			0	37650	0	0	0	23433	22020	161207	27402	1056929	46451	108637	0	0	8165	573475	0	0
2024-09-19 02:38:47			0	37647	0	0	0	23444	22030	161147	27416	1056938	46451	108641	0	0	8164	573564	0	0
2024-09-19 02:39:47			0	37647	0	0	0	23438	22030	161123	27069	1056992	46451	108639	0	0	8165	573564	0	0
2024-09-19 02:40:47			0	37641	0	0	0	23444	22030	161183	27230	1056965	46451	108641	0	0	8164	573805	0	0
2024-09-19 02:41:47			0	37635	0	0	0	23436	22020	161259	27267	1056929	46451	108638	0	0	8164	574079	0	0
2024-09-19 02:42:47			0	37612	0	0	0	23441	22030	161259	27109	1056965	46451	108640	0	0	8162	574974	0	0
2024-09-19 02:43:47			0	37621	0	0	0	23431	22020	161303	27249	1056903	46440	108636	0	0	8163	574643	0	0
2024-09-19 02:44:47			0	37633	0	0	0	23431	22030	161363	27038	1056947	46452	108636	0	0	8164	574127	0	0
2024-09-19 02:45:47			0	37611	0	0	0	23423	22020	161327	27358	1056956	46440	108633	0	0	8163	575046	0	0
2024-09-19 02:46:47			0	37615	0	0	0	23431	22020	161311	27298	1056929	46473	108636	0	0	8163	574885	0	0
2024-09-19 02:47:47			0	37588	0	0	0	23431	22020	161463	27524	1056929	46451	108636	0	0	8161	575974	0	0
2024-09-19 02:48:47			0	37585	0	0	0	23425	22010	161387	27204	1056912	46450	108634	0	0	8161	576127	0	0
2024-09-19 02:49:47			0	37580	0	0	0	23433	22020	161447	27365	1056894	46440	108637	0	0	8161	576297	0	0
2024-09-19 02:50:47			0	37577	0	0	0	23420	22020	161499	27235	1056921	46451	108632	0	0	8161	576418	0	0
2024-09-19 02:51:47			0	37567	0	0	0	23425	22010	161467	27109	1056903	46416	108634	0	0	8160	576854	0	0
2024-09-19 02:52:47			0	37556	0	0	0	23425	22020	161451	27225	1056841	46461	108634	0	0	8159	577267	0	0
2024-09-19 02:53:47			0	37561	0	0	0	23423	22020	161527	27112	1056894	46451	108633	0	0	8160	577064	0	0
2024-09-19 02:54:47			0	37544	0	0	0	23418	22010	161523	27381	1056849	46438	108631	0	0	8159	577784	0	0
2024-09-19 02:55:47			0	37568	0	0	0	23415	22000	161543	27443	1056947	46449	108630	0	0	8160	576846	0	0
2024-09-19 02:56:47			0	37543	0	0	0	23415	22010	161539	27429	1056938	46450	108630	0	0	8159	577824	0	0
2024-09-19 02:57:47			0	37543	0	0	0	23420	22010	161511	27234	1056885	46439	108632	0	0	8159	577824	0	0
2024-09-19 02:58:47			0	37551	0	0	0	23415	22000	161679	27334	1056787	46449	108630	0	0	8159	577533	0	0
2024-09-19 02:59:47			0	37524	0	0	0	23420	22010	161663	27326	1056876	46438	108632	0	0	8157	578593	0	0
2024-09-19 03:00:47			0	37521	0	0	0	23418	22010	161735	27187	1056938	46428	108631	0	0	8157	578715	0	0
2024-09-19 03:01:47			0	37511	0	0	0	23415	22010	161823	27171	1056769	46438	108630	0	0	8157	579120	0	0
2024-09-19 03:02:47			0	37508	0	0	0	23410	22010	161839	27194	1056823	46438	108628	0	0	8157	579241	0	0
2024-09-19 03:03:47			0	37478	0	0	0	23405	22010	161855	27050	1056849	46427	108626	0	0	8155	580457	0	0
2024-09-19 03:04:47			0	37502	0	0	0	23405	22010	161887	27291	1056885	46439	108626	0	0	8156	579484	0	0
2024-09-19 03:05:47			0	37499	0	0	0	23397	22010	161747	26981	1056849	46438	108623	0	0	8156	579606	0	0
2024-09-19 03:06:47			0	37486	0	0	0	23407	21990	161839	27081	1056831	46449	108627	0	0	8155	580198	0	0
2024-09-19 03:07:47			0	37492	0	0	0	23405	22010	161835	27118	1056796	46449	108626	0	0	8156	579890	0	0
2024-09-19 03:08:47			0	37481	0	0	0	23397	22020	162023	27282	1056894	46451	108623	0	0	8155	580303	0	0
2024-09-19 03:09:47			0	37469	0	0	0	23389	21990	162047	27462	1056769	46448	108620	0	0	8155	580887	0	0
2024-09-19 03:10:47			0	37452	0	0	0	23402	22000	162031	27360	1056840	46438	108625	0	0	8153	581545	0	0
2024-09-19 03:11:47			0	37444	0	0	0	23399	21990	161967	27118	1056725	46438	108624	0	0	8153	581903	0	0
2024-09-19 03:12:47			0	37457	0	0	0	23392	21990	161955	27107	1056805	46449	108621	0	0	8154	581375	0	0
2024-09-19 03:13:47			0	37442	0	0	0	23394	21990	162051	26958	1056831	46438	108622	0	0	8153	581984	0	0
2024-09-19 03:14:47			0	37430	0	0	0	23397	21990	162059	27251	1056751	46427	108623	0	0	8152	582472	0	0
2024-09-19 03:15:47			0	37444	0	0	0	23407	21990	162111	27159	1056743	46437	108627	0	0	8153	581903	0	0
2024-09-19 03:16:47			0	37433	0	0	0	23386	22000	162251	27332	1056814	46449	108619	0	0	8153	582317	0	0
2024-09-19 03:17:47			0	37444	0	0	0	23399	21980	162119	26993	1056707	46436	108624	0	0	8153	581935	0	0
2024-09-19 03:18:47			0	37433	0	0	0	23392	21990	162139	27130	1056796	46437	108621	0	0	8152	582350	0	0
2024-09-19 03:19:47			0	37427	0	0	0	23392	21990	162143	27119	1056769	46437	108621	0	0	8152	582594	0	0
2024-09-19 03:20:47			0	37430	0	0	0	23389	21990	162211	27405	1056769	46448	108620	0	0	8152	582472	0	0
2024-09-19 03:21:47			0	37423	0	0	0	23392	21980	162115	27255	1056760	46436	108621	0	0	8152	582789	0	0
2024-09-19 03:22:47			0	37424	0	0	0	23392	21970	162143	27203	1056689	46435	108621	0	0	8152	582781	0	0
2024-09-19 03:23:47			0	37434	0	0	0	23389	21980	162179	27248	1056778	46424	108620	0	0	8153	582342	0	0
2024-09-19 03:24:47			0	37416	0	0	0	23389	21970	162175	27419	1056769	46435	108620	0	0	8151	583106	0	0
2024-09-19 03:25:47			0	37407	0	0	0	23392	21980	162115	27241	1056671	46446	108621	0	0	8151	583440	0	0
2024-09-19 03:26:47			0	37400	0	0	0	23392	21980	162083	27251	1056760	46447	108621	0	0	8150	583725	0	0
2024-09-19 03:27:47			0	37415	0	0	0	23392	21980	162155	27012	1056725	46435	108621	0	0	8151	583114	0	0
2024-09-19 03:28:47			0	37404	0	0	0	23389	21980	162239	27147	1056698	46435	108620	0	0	8151	583562	0	0
2024-09-19 03:29:47			0	37408	0	0	0	23402	21980	162239	27338	1056778	46435	108625	0	0	8151	583399	0	0
2024-09-19 03:30:47			0	37404	0	0	0	23389	21980	162295	26873	1056734	46447	108620	0	0	8151	583562	0	0
2024-09-19 03:31:47			0	37403	0	0	0	23381	21980	162371	27218	1056734	46447	108617	0	0	8151	583603	0	0
2024-09-19 03:32:47			0	37401	0	0	0	23379	21970	162259	27336	1056742	46446	108616	0	0	8151	583717	0	0
2024-09-19 03:33:47			0	37378	0	0	0	23386	21980	162335	27398	1056778	46446	108619	0	0	8149	584621	0	0
2024-09-19 03:34:47			0	37365	0	0	0	23384	21970	162399	27358	1056733	46435	108618	0	0	8148	585184	0	0
2024-09-19 03:35:47			0	37359	0	0	0	23386	21980	162467	26991	1056698	46435	108619	0	0	8148	585396	0	0
2024-09-19 03:36:47			0	37369	0	0	0	23389	21970	162455	27088	1056742	46446	108620	0	0	8149	585021	0	0
2024-09-19 03:37:47			0	37347	0	0	0	23389	21970	162507	27291	1056742	46435	108620	0	0	8147	585918	0	0
2024-09-19 03:38:47			0	37358	0	0	0	23384	21980	162431	27386	1056751	46446	108618	0	0	8148	585437	0	0
2024-09-19 03:39:47			0	37346	0	0	0	23389	21970	162451	27102	1056733	46446	108620	0	0	8147	585959	0	0
2024-09-19 03:40:47			0	37331	0	0	0	23376	21970	162523	27331	1056716	46424	108615	0	0	8147	586572	0	0
2024-09-19 03:41:47			0	37321	0	0	0	23373	21970	162507	27445	1056707	46435	108614	0	0	8146	586980	0	0
2024-09-19 03:42:47			0	37304	0	0	0	23373	21970	162638	27168	1056707	46457	108614	0	0	8145	587675	0	0
2024-09-19 03:43:47			0	37327	0	0	0	23373	21970	162691	27164	1056653	46435	108614	0	0	8146	586735	0	0
2024-09-19 03:44:47			0	37291	0	0	0	23368	21960	162678	27265	1056724	46423	108612	0	0	8144	588240	0	0
2024-09-19 03:45:47			0	37303	0	0	0	23386	21970	162702	27140	1056716	46457	108619	0	0	8145	587716	0	0
2024-09-19 03:46:47			0	37286	0	0	0	23381	21970	162842	27045	1056680	46457	108617	0	0	8144	588412	0	0
2024-09-19 03:47:47			0	37312	0	0	0	23379	21970	162714	27097	1056689	46446	108616	0	0	8145	587348	0	0
2024-09-19 03:48:47			0	37301	0	0	0	23386	21970	162698	26970	1056716	46446	108619	0	0	8145	587798	0	0
2024-09-19 03:49:47			0	37301	0	0	0	23381	21960	162778	27085	1056716	46433	108617	0	0	8145	587831	0	0
2024-09-19 03:50:47			0	37306	0	0	0	23397	21970	162610	27265	1056742	46457	108623	0	0	8145	587594	0	0
2024-09-19 03:51:47			0	37325	0	0	0	23394	21980	162535	27315	1056725	46457	108622	0	0	8146	586784	0	0
2024-09-19 03:52:47			0	37341	0	0	0	23381	21980	162519	27102	1056725	46457	108617	0	0	8147	586131	0	0
2024-09-19 03:53:47			0	37334	0	0	0	23379	21980	162503	27282	1056751	46435	108616	0	0	8147	586417	0	0
2024-09-19 03:54:47			0	37322	0	0	0	23386	21960	162567	27350	1056751	46445	108619	0	0	8146	586972	0	0
2024-09-19 03:55:47			0	37317	0	0	0	23392	21970	162539	27371	1056787	46424	108621	0	0	8145	587144	0	0
2024-09-19 03:56:47			0	37336	0	0	0	23386	21970	162623	27133	1056742	46435	108619	0	0	8147	586368	0	0
2024-09-19 03:57:47			0	37314	0	0	0	23394	21970	162687	27171	1056787	46435	108622	0	0	8145	587267	0	0
2024-09-19 03:58:47			0	37339	0	0	0	23405	21970	162559	27242	1056796	46435	108626	0	0	8147	586245	0	0
2024-09-19 03:59:47			0	37377	0	0	0	23405	21980	162379	27296	1056778	46435	108626	0	0	8149	584662	0	0
2024-09-19 04:00:47			0	37368	0	0	0	23402	21970	162375	27352	1056769	46457	108625	0	0	8148	585062	0	0
2024-09-19 04:01:47			0	37398	0	0	0	23399	21990	162275	27445	1056823	46437	108624	0	0	8150	583774	0	0
2024-09-19 04:02:47			0	37398	0	0	0	23415	21980	162187	27476	1056778	46446	108630	0	0	8150	583807	0	0
2024-09-19 04:03:47			0	37439	0	0	0	23405	21980	162303	27255	1056751	46446	108626	0	0	8153	582138	0	0
2024-09-19 04:04:47			0	37419	0	0	0	23407	21980	162167	27119	1056734	46447	108627	0	0	8151	582952	0	0
2024-09-19 04:05:47			0	37422	0	0	0	23405	21980	162091	27367	1056751	46457	108626	0	0	8152	582830	0	0
2024-09-19 04:06:47			0	37407	0	0	0	23402	21980	162183	27329	1056734	46436	108625	0	0	8151	583440	0	0
2024-09-19 04:07:47			0	37396	0	0	0	23394	21980	162155	27455	1056787	46458	108622	0	0	8150	583888	0	0
2024-09-19 04:08:47			0	37392	0	0	0	23407	21990	162391	27293	1056823	46437	108627	0	0	8150	584018	0	0
2024-09-19 04:09:47			0	37414	0	0	0	23405	21980	162295	27698	1056760	46458	108626	0	0	8151	583155	0	0
2024-09-19 04:10:47			0	37406	0	0	0	23415	21980	162307	27531	1056725	46435	108630	0	0	8150	583481	0	0
2024-09-19 04:11:47			0	37429	0	0	0	23428	21990	162151	27471	1056796	46448	108635	0	0	8152	582512	0	0
2024-09-19 04:12:47			0	37436	0	0	0	23415	21980	162035	27308	1056840	46458	108630	0	0	8152	582260	0	0
2024-09-19 04:13:47			0	37463	0	0	0	23412	21990	162059	27554	1056831	46427	108629	0	0	8154	581131	0	0
2024-09-19 04:14:47			0	37436	0	0	0	23415	21980	162167	27071	1056814	46436	108630	0	0	8152	582260	0	0
2024-09-19 04:15:47			0	37434	0	0	0	23407	21990	162087	27234	1056823	46448	108627	0	0	8152	582309	0	0
2024-09-19 04:16:47			0	37415	0	0	0	23412	21990	162139	26967	1056831	46427	108629	0	0	8151	583082	0	0
2024-09-19 04:17:47			0	37428	0	0	0	23412	21990	162131	27114	1056831	46459	108629	0	0	8152	582553	0	0
2024-09-19 04:18:47			0	37425	0	0	0	23415	21990	162159	27435	1056796	46448	108630	0	0	8152	582675	0	0
2024-09-19 04:19:47			0	37437	0	0	0	23428	22000	162075	27095	1056840	46438	108635	0	0	8152	582155	0	0
2024-09-19 04:20:47			0	37456	0	0	0	23423	22000	162091	27284	1056840	46438	108633	0	0	8153	581383	0	0
2024-09-19 04:21:47			0	37460	0	0	0	23425	21990	161963	27100	1056858	46438	108634	0	0	8154	581253	0	0
2024-09-19 04:22:47			0	37454	0	0	0	23418	21990	161983	27367	1056885	46438	108631	0	0	8153	581497	0	0
2024-09-19 04:23:47			0	37461	0	0	0	23410	21990	161971	27381	1056849	46448	108628	0	0	8154	581212	0	0
2024-09-19 04:24:47			0	37463	0	0	0	23423	22000	161987	27144	1056894	46449	108633	0	0	8154	581099	0	0
2024-09-19 04:25:47			0	37453	0	0	0	23412	22010	161979	26868	1056849	46438	108629	0	0	8153	581472	0	0
2024-09-19 04:26:47			0	37436	0	0	0	23412	22000	162023	27237	1056814	46459	108629	0	0	8152	582195	0	0
2024-09-19 04:27:47			0	37435	0	0	0	23412	22010	162007	27466	1056903	46438	108629	0	0	8152	582204	0	0
2024-09-19 04:28:47			0	37435	0	0	0	23402	22000	162091	27421	1056840	46438	108625	0	0	8152	582236	0	0
2024-09-19 04:29:47			0	37397	0	0	0	23412	22010	162187	27230	1056876	46449	108629	0	0	8150	583750	0	0
2024-09-19 04:30:47			0	37403	0	0	0	23423	22000	162219	27523	1056840	46438	108633	0	0	8150	583538	0	0
2024-09-19 04:31:47			0	37392	0	0	0	23415	21990	162299	27180	1056885	46459	108630	0	0	8150	584018	0	0
2024-09-19 04:32:47			0	37390	0	0	0	23415	22010	162223	27402	1056823	46449	108630	0	0	8150	584035	0	0
2024-09-19 04:33:47			0	37403	0	0	0	23415	22010	162171	27324	1056903	46449	108630	0	0	8150	583505	0	0
2024-09-19 04:34:47			0	37420	0	0	0	23420	21990	162247	27033	1056831	46438	108632	0	0	8151	582879	0	0
2024-09-19 04:35:47			0	37400	0	0	0	23431	21990	162251	27305	1056831	46438	108636	0	0	8150	583692	0	0
2024-09-19 04:36:47			0	37426	0	0	0	23433	22000	162147	27353	1056894	46459	108637	0	0	8151	582602	0	0
2024-09-19 04:37:47			0	37448	0	0	0	23433	21990	162007	27199	1056849	46448	108637	0	0	8153	581740	0	0
2024-09-19 04:38:47			0	37457	0	0	0	23438	22010	162011	27230	1056885	46439	108639	0	0	8153	581310	0	0
2024-09-19 04:39:47			0	37478	0	0	0	23423	22010	161983	26960	1056858	46450	108633	0	0	8155	580457	0	0
2024-09-19 04:40:47			0	37472	0	0	0	23433	22000	161947	26963	1056894	46438	108637	0	0	8154	580733	0	0
2024-09-19 04:41:47			0	37458	0	0	0	23425	22000	161891	27164	1056867	46438	108634	0	0	8153	581302	0	0
2024-09-19 04:42:47			0	37465	0	0	0	23431	22010	161959	27126	1056903	46449	108636	0	0	8154	580985	0	0
2024-09-19 04:43:47			0	37452	0	0	0	23425	22020	161959	27282	1056894	46461	108634	0	0	8153	581480	0	0
2024-09-19 04:44:47			0	37449	0	0	0	23433	22020	162051	27069	1056894	46484	108637	0	0	8153	581602	0	0
2024-09-19 04:45:47			0	37449	0	0	0	23436	22020	161979	27038	1056974	46451	108638	0	0	8153	581602	0	0
2024-09-19 04:46:47			0	37464	0	0	0	23423	22020	161995	26939	1056894	46451	108633	0	0	8154	580993	0	0
2024-09-19 04:47:47			0	37449	0	0	0	23418	22020	162067	27079	1056894	46451	108631	0	0	8153	581602	0	0
2024-09-19 04:48:47			0	37454	0	0	0	23425	22010	162079	27483	1056912	46450	108634	0	0	8153	581432	0	0
2024-09-19 04:49:47			0	37442	0	0	0	23420	22010	162023	27443	1056912	46428	108632	0	0	8153	581919	0	0
2024-09-19 04:50:47			0	37433	0	0	0	23399	22010	162075	27350	1056885	46428	108624	0	0	8152	582285	0	0
2024-09-19 04:51:47			0	37423	0	0	0	23412	22020	162191	27393	1056867	46417	108629	0	0	8152	582659	0	0
2024-09-19 04:52:47			0	37425	0	0	0	23412	22010	162127	27352	1056912	46428	108629	0	0	8152	582610	0	0
2024-09-19 04:53:47			0	37428	0	0	0	23405	22020	162263	27140	1056841	46451	108626	0	0	8152	582456	0	0
2024-09-19 04:54:47			0	37410	0	0	0	23402	22010	162199	27338	1056929	46438	108625	0	0	8151	583220	0	0
2024-09-19 04:55:47			0	37396	0	0	0	23407	22000	162183	27066	1056840	46427	108627	0	0	8150	583823	0	0
2024-09-19 04:56:47			0	37400	0	0	0	23405	22010	162203	27284	1056876	46438	108626	0	0	8150	583627	0	0
2024-09-19 04:57:47			0	37381	0	0	0	23402	22000	162331	27133	1056867	46438	108625	0	0	8149	584434	0	0
2024-09-19 04:58:47			0	37377	0	0	0	23402	22010	162175	27263	1056876	46427	108625	0	0	8149	584564	0	0
2024-09-19 04:59:47			0	37374	0	0	0	23407	22010	162359	27422	1056885	46439	108627	0	0	8149	584687	0	0
2024-09-19 05:00:47			0	37366	0	0	0	23407	22010	162343	27067	1056823	46438	108627	0	0	8148	585013	0	0
2024-09-19 05:01:47			0	37377	0	0	0	23402	21990	162303	26986	1056778	46438	108625	0	0	8149	584630	0	0
2024-09-19 05:02:47			0	37369	0	0	0	23407	22010	162315	26948	1056832	46439	108627	0	0	8149	584890	0	0
2024-09-19 05:03:47			0	37379	0	0	0	23405	21990	162283	27246	1056823	46437	108626	0	0	8149	584548	0	0
2024-09-19 05:04:47			0	37383	0	0	0	23412	21990	162295	27215	1056885	46438	108629	0	0	8149	584385	0	0
2024-09-19 05:05:47			0	37342	0	0	0	23410	21990	162367	27300	1056805	46438	108628	0	0	8147	586057	0	0
2024-09-19 05:06:47			0	37348	0	0	0	23402	21990	162387	27488	1056805	46427	108625	0	0	8147	585812	0	0
2024-09-19 05:07:47			0	37341	0	0	0	23394	21990	162367	27370	1056858	46449	108622	0	0	8147	586098	0	0
2024-09-19 05:08:47			0	37350	0	0	0	23399	22000	162395	27008	1056814	46438	108624	0	0	8147	585698	0	0
2024-09-19 05:09:47			0	37349	0	0	0	23399	22000	162463	26922	1056867	46438	108624	0	0	8147	585739	0	0
2024-09-19 05:10:47			0	37352	0	0	0	23405	21990	162467	27396	1056805	46449	108626	0	0	8147	585649	0	0
2024-09-19 05:11:47			0	37348	0	0	0	23405	21990	162451	26913	1056831	46449	108626	0	0	8147	585812	0	0
2024-09-19 05:12:47			0	37358	0	0	0	23402	21990	162371	27163	1056858	46438	108625	0	0	8148	585404	0	0
2024-09-19 05:13:47			0	37337	0	0	0	23397	22000	162491	26928	1056840	46449	108623	0	0	8147	586229	0	0
2024-09-19 05:14:47			0	37316	0	0	0	23399	21990	162550	27048	1056805	46459	108624	0	0	8145	587119	0	0
2024-09-19 05:15:47			0	37307	0	0	0	23397	21990	162562	27078	1056849	46448	108623	0	0	8145	587487	0	0
2024-09-19 05:16:47			0	37302	0	0	0	23394	21980	162594	26934	1056840	46447	108622	0	0	8145	587725	0	0
2024-09-19 05:17:47			0	37302	0	0	0	23397	21990	162590	26882	1056796	46448	108623	0	0	8145	587692	0	0
2024-09-19 05:18:47			0	37297	0	0	0	23392	22000	162702	27170	1056840	46438	108621	0	0	8144	587863	0	0
2024-09-19 05:19:47			0	37286	0	0	0	23386	21990	162674	26778	1056743	46448	108619	0	0	8144	588346	0	0
2024-09-19 05:20:47			0	37263	0	0	0	23394	21990	162750	27196	1056796	46426	108622	0	0	8142	589288	0	0
2024-09-19 05:21:47			0	37261	0	0	0	23386	21990	162870	27424	1056796	46448	108619	0	0	8142	589370	0	0
2024-09-19 05:22:47			0	37229	0	0	0	23371	21980	162890	27043	1056751	46424	108613	0	0	8141	590715	0	0
2024-09-19 05:23:47			0	37226	0	0	0	23371	21980	162950	27045	1056725	46424	108613	0	0	8140	590838	0	0
2024-09-19 05:24:47			0	37218	0	0	0	23371	21980	163026	26991	1056760	46436	108613	0	0	8140	591167	0	0
2024-09-19 05:25:47			0	37190	0	0	0	23379	21980	163078	27254	1056751	46424	108616	0	0	8138	592317	0	0
2024-09-19 05:26:47			0	37190	0	0	0	23379	21980	163090	27168	1056805	46424	108616	0	0	8138	592317	0	0
2024-09-19 05:27:47			0	37201	0	0	0	23376	21980	162978	27064	1056734	46425	108615	0	0	8139	591865	0	0
2024-09-19 05:28:47			0	37208	0	0	0	23384	21970	163034	27284	1056716	46435	108618	0	0	8139	591611	0	0
2024-09-19 05:29:47			0	37204	0	0	0	23371	21980	163070	26987	1056751	46446	108613	0	0	8139	591742	0	0
2024-09-19 05:30:47			0	37226	0	0	0	23376	21970	163082	27287	1056707	46446	108615	0	0	8140	590871	0	0
2024-09-19 05:31:47			0	37209	0	0	0	23379	21960	163014	27268	1056724	46423	108616	0	0	8139	591603	0	0
2024-09-19 05:32:47			0	37214	0	0	0	23384	21960	163010	27377	1056689	46455	108618	0	0	8139	591397	0	0
2024-09-19 05:33:47			0	37210	0	0	0	23376	21970	163010	27013	1056760	46435	108615	0	0	8139	591529	0	0
2024-09-19 05:34:47			0	37209	0	0	0	23386	21970	163026	27105	1056680	46424	108619	0	0	8139	591570	0	0
2024-09-19 05:35:47			0	37214	0	0	0	23368	21970	163066	27216	1056742	46446	108612	0	0	8140	591364	0	0
2024-09-19 05:36:47			0	37212	0	0	0	23371	21970	162990	27294	1056689	46424	108613	0	0	8140	591446	0	0
2024-09-19 05:37:47			0	37222	0	0	0	23384	21970	162966	26805	1056760	46424	108618	0	0	8140	591036	0	0
2024-09-19 05:38:47			0	37230	0	0	0	23392	21970	162962	27111	1056707	46435	108621	0	0	8140	590707	0	0
2024-09-19 05:39:47			0	37255	0	0	0	23392	21970	162906	27287	1056733	46446	108621	0	0	8142	589682	0	0
2024-09-19 05:40:47			0	37260	0	0	0	23384	21950	162794	27365	1056653	46444	108618	0	0	8142	589543	0	0
2024-09-19 05:41:47			0	37275	0	0	0	23376	21960	162770	27464	1056724	46434	108615	0	0	8143	588895	0	0
2024-09-19 05:42:47			0	37265	0	0	0	23386	21970	162870	27485	1056733	46446	108619	0	0	8143	589272	0	0
2024-09-19 05:43:47			0	37257	0	0	0	23379	21960	162886	27478	1056716	46444	108616	0	0	8142	589633	0	0
2024-09-19 05:44:47			0	37264	0	0	0	23379	21970	162846	27400	1056760	46435	108616	0	0	8143	589313	0	0
2024-09-19 05:45:47			0	37244	0	0	0	23384	21980	162890	27039	1056734	46447	108618	0	0	8141	590100	0	0
2024-09-19 05:46:47			0	37269	0	0	0	23420	21970	162882	27493	1056760	46446	108632	0	0	8142	589108	0	0
2024-09-19 05:47:47			0	37314	0	0	0	23399	21970	162675	27227	1056769	46446	108624	0	0	8145	587267	0	0
2024-09-19 05:48:47			0	37369	0	0	0	23405	21980	162503	27109	1056751	46446	108626	0	0	8148	584988	0	0
2024-09-19 05:49:47			0	37406	0	0	0	23410	21980	162419	27104	1056840	46458	108628	0	0	8151	583481	0	0
2024-09-19 05:50:47			0	37410	0	0	0	23399	21980	162287	27059	1056885	46446	108624	0	0	8151	583318	0	0
2024-09-19 05:51:47			0	37406	0	0	0	23399	21980	162263	27308	1056805	46446	108624	0	0	8151	583481	0	0
2024-09-19 05:52:47			0	37423	0	0	0	23394	21990	162247	27277	1056743	46448	108622	0	0	8152	582756	0	0
2024-09-19 05:53:47			0	37412	0	0	0	23397	21990	162235	27211	1056858	46459	108623	0	0	8151	583204	0	0
2024-09-19 05:54:47			0	37426	0	0	0	23410	21980	162263	27199	1056787	46447	108628	0	0	8152	582667	0	0
2024-09-19 05:55:47			0	37433	0	0	0	23412	21980	162187	27381	1056858	46424	108629	0	0	8152	582382	0	0
2024-09-19 05:56:47			0	37461	0	0	0	23418	21980	162119	27206	1056778	46424	108631	0	0	8154	581245	0	0
2024-09-19 05:57:47			0	37479	0	0	0	23420	21990	162031	27209	1056769	46437	108632	0	0	8155	580482	0	0
2024-09-19 05:58:47			0	37497	0	0	0	23418	21990	161983	27490	1056885	46427	108631	0	0	8156	579752	0	0
2024-09-19 05:59:47			0	37523	0	0	0	23423	22000	161919	27384	1056867	46449	108633	0	0	8157	578666	0	0
2024-09-19 06:00:47			0	37514	0	0	0	23420	21990	161899	27185	1056911	46449	108632	0	0	8157	579063	0	0
2024-09-19 06:01:47			0	37518	0	0	0	23428	21990	161747	27176	1056849	46458	108635	0	0	8157	578901	0	0
2024-09-19 06:02:47			0	37570	0	0	0	23428	22010	161683	27170	1056956	46438	108635	0	0	8160	576733	0	0
2024-09-19 06:03:47			0	37558	0	0	0	23428	21990	161731	27163	1056858	46427	108635	0	0	8159	577282	0	0
2024-09-19 06:04:47			0	37584	0	0	0	23431	22000	161615	27156	1056867	46449	108636	0	0	8161	576200	0	0
2024-09-19 06:05:47			0	37571	0	0	0	23428	22010	161611	27312	1056876	46459	108635	0	0	8160	576693	0	0
2024-09-19 06:06:47			0	37577	0	0	0	23428	22010	161579	27431	1056903	46438	108635	0	0	8160	576450	0	0
2024-09-19 06:07:47			0	37563	0	0	0	23433	22000	161675	27192	1056947	46438	108637	0	0	8160	577048	0	0
2024-09-19 06:08:47			0	37581	0	0	0	23431	22010	161635	27346	1056876	46459	108636	0	0	8161	576289	0	0
2024-09-19 06:09:47			0	37567	0	0	0	23431	22010	161607	27500	1056938	46439	108636	0	0	8160	576854	0	0
2024-09-19 06:10:47			0	37562	0	0	0	23428	22010	161563	27656	1056929	46449	108635	0	0	8160	577056	0	0
2024-09-19 06:11:47			0	37569	0	0	0	23433	22010	161687	27083	1056912	46439	108637	0	0	8160	576773	0	0
2024-09-19 06:12:47			0	37565	0	0	0	23431	22010	161579	27566	1056929	46449	108636	0	0	8160	576935	0	0
2024-09-19 06:13:47			0	37564	0	0	0	23423	22010	161635	27291	1056965	46439	108633	0	0	8160	576975	0	0
2024-09-19 06:14:47			0	37558	0	0	0	23423	22010	161671	27197	1056912	46439	108633	0	0	8159	577218	0	0
2024-09-19 06:15:47			0	37547	0	0	0	23420	22010	161699	27341	1056885	46428	108632	0	0	8159	577663	0	0
2024-09-19 06:16:47			0	37562	0	0	0	23420	22020	161671	27121	1056921	46440	108632	0	0	8160	577024	0	0
2024-09-19 06:17:47			0	37565	0	0	0	23428	22010	161679	27190	1056965	46450	108635	0	0	8160	576935	0	0
2024-09-19 06:18:47			0	37547	0	0	0	23431	22010	161619	27272	1056965	46439	108636	0	0	8159	577663	0	0
2024-09-19 06:19:47			0	37560	0	0	0	23418	22010	161559	27308	1056938	46450	108631	0	0	8160	577137	0	0
2024-09-19 06:20:47			0	37550	0	0	0	23428	22010	161575	27524	1056912	46428	108635	0	0	8159	577541	0	0
2024-09-19 06:21:47			0	37558	0	0	0	23423	22010	161607	27419	1056938	46460	108633	0	0	8159	577218	0	0
2024-09-19 06:22:47			0	37546	0	0	0	23423	22010	161595	27281	1056965	46439	108633	0	0	8159	577703	0	0
2024-09-19 06:23:47			0	37546	0	0	0	23428	22010	161695	27329	1056912	46439	108635	0	0	8159	577703	0	0
2024-09-19 06:24:47			0	37535	0	0	0	23428	22010	161647	27531	1056912	46450	108635	0	0	8158	578148	0	0
2024-09-19 06:25:47			0	37543	0	0	0	23431	22020	161543	27074	1056947	46440	108636	0	0	8158	577792	0	0
2024-09-19 06:26:47			0	37549	0	0	0	23423	22010	161595	27633	1056912	46439	108633	0	0	8159	577582	0	0
2024-09-19 06:27:47			0	37530	0	0	0	23428	22020	161731	27166	1056947	46451	108635	0	0	8158	578318	0	0
2024-09-19 06:28:47			0	37532	0	0	0	23420	22020	161687	27435	1057036	46440	108632	0	0	8158	578237	0	0
2024-09-19 06:29:47			0	37539	0	0	0	23425	22010	161631	27038	1056938	46428	108634	0	0	8158	577986	0	0
2024-09-19 06:30:47			0	37554	0	0	0	23428	22010	161575	27490	1056885	46450	108635	0	0	8159	577380	0	0
2024-09-19 06:31:47			0	37539	0	0	0	23431	22020	161599	27666	1056956	46429	108636	0	0	8158	577954	0	0
2024-09-19 06:32:47			0	37541	0	0	0	23428	22010	161535	27685	1056938	46450	108635	0	0	8158	577905	0	0
2024-09-19 06:33:47			0	37541	0	0	0	23428	22010	161619	27230	1056965	46450	108635	0	0	8158	577905	0	0
2024-09-19 06:34:47			0	37555	0	0	0	23433	22010	161659	27246	1056912	46450	108637	0	0	8159	577339	0	0
2024-09-19 06:35:47			0	37560	0	0	0	23436	22010	161667	27298	1056965	46450	108638	0	0	8159	577137	0	0
2024-09-19 06:36:47			0	37544	0	0	0	23433	22020	161643	27066	1056947	46440	108637	0	0	8158	577752	0	0
2024-09-19 06:37:47			0	37551	0	0	0	23428	22020	161671	27334	1056947	46451	108635	0	0	8159	577469	0	0
2024-09-19 06:38:47			0	37559	0	0	0	23423	22020	161723	27320	1056947	46440	108633	0	0	8160	577145	0	0
2024-09-19 06:39:47			0	37539	0	0	0	23425	22020	161763	27443	1056947	46440	108634	0	0	8158	577954	0	0
2024-09-19 06:40:47			0	37550	0	0	0	23431	22020	161791	27339	1056894	46451	108636	0	0	8159	577509	0	0
2024-09-19 06:41:47			0	37541	0	0	0	23423	22010	161771	27202	1056965	46439	108633	0	0	8158	577905	0	0
2024-09-19 06:42:47			0	37553	0	0	0	23425	22010	161823	27483	1056938	46439	108634	0	0	8159	577420	0	0
2024-09-19 06:43:47			0	37549	0	0	0	23431	22010	161783	27519	1056992	46450	108636	0	0	8159	577582	0	0
2024-09-19 06:44:47			0	37540	0	0	0	23441	22010	161735	27272	1057009	46438	108640	0	0	8158	577946	0	0
2024-09-19 06:45:47			0	37552	0	0	0	23425	22020	161791	27308	1056983	46440	108634	0	0	8159	577428	0	0
2024-09-19 06:46:47			0	37553	0	0	0	23431	22010	161707	27241	1056938	46439	108636	0	0	8159	577420	0	0
2024-09-19 06:47:47			0	37560	0	0	0	23433	22020	161819	27046	1057001	46461	108637	0	0	8159	577105	0	0
2024-09-19 06:48:47			0	37550	0	0	0	23433	22020	161819	27516	1056947	46429	108637	0	0	8159	577509	0	0
2024-09-19 06:49:47			0	37555	0	0	0	23436	22020	161739	27319	1056947	46451	108638	0	0	8159	577307	0	0
2024-09-19 06:50:47			0	37540	0	0	0	23431	22020	161699	27364	1056956	46440	108636	0	0	8158	577913	0	0
2024-09-19 06:51:47			0	37556	0	0	0	23431	22020	161767	27296	1057009	46451	108636	0	0	8159	577267	0	0
2024-09-19 06:52:47			0	37563	0	0	0	23433	22030	161699	27334	1056938	46429	108637	0	0	8160	576951	0	0
2024-09-19 06:53:47			0	37547	0	0	0	23428	22010	161775	27400	1056992	46450	108635	0	0	8159	577663	0	0
2024-09-19 06:54:47			0	37560	0	0	0	23428	22030	161707	26956	1056965	46451	108635	0	0	8160	577073	0	0
2024-09-19 06:55:47			0	37559	0	0	0	23438	22020	161791	27481	1056974	46429	108639	0	0	8159	577145	0	0
2024-09-19 06:56:47			0	37567	0	0	0	23425	22020	161731	27530	1057009	46451	108634	0	0	8160	576822	0	0
2024-09-19 06:57:47			0	37552	0	0	0	23425	22010	161735	27267	1056992	46450	108634	0	0	8159	577461	0	0
2024-09-19 06:58:47			0	37567	0	0	0	23433	22020	161787	27235	1057001	46429	108637	0	0	8160	576822	0	0
2024-09-19 06:59:47			0	37557	0	0	0	23436	22020	161699	27052	1057009	46429	108638	0	0	8159	577226	0	0
2024-09-19 07:00:47			0	37567	0	0	0	23441	22010	161703	27284	1056992	46428	108640	0	0	8160	576854	0	0
2024-09-19 07:01:47			0	37569	0	0	0	23436	22030	161751	27265	1057001	46430	108638	0	0	8160	576709	0	0
2024-09-19 07:02:47			0	37571	0	0	0	23441	22010	161671	27429	1056965	46439	108640	0	0	8160	576693	0	0
2024-09-19 07:03:47			0	37588	0	0	0	23438	22020	161663	27185	1056983	46440	108639	0	0	8161	575974	0	0
2024-09-19 07:04:47			0	37581	0	0	0	23441	22020	161663	27440	1057009	46451	108640	0	0	8161	576256	0	0
2024-09-19 07:05:47			0	37582	0	0	0	23438	22020	161575	27235	1056947	46440	108639	0	0	8161	576216	0	0
2024-09-19 07:06:47			0	37602	0	0	0	23441	22020	161615	26998	1056974	46451	108640	0	0	8162	575409	0	0
2024-09-19 07:07:47			0	37583	0	0	0	23438	22020	161611	27332	1057036	46440	108639	0	0	8161	576176	0	0
2024-09-19 07:08:47			0	37599	0	0	0	23428	22020	161475	27220	1057001	46451	108635	0	0	8162	575530	0	0
2024-09-19 07:09:47			0	37581	0	0	0	23418	22020	161587	27381	1056983	46440	108631	0	0	8161	576256	0	0
2024-09-19 07:10:47			0	37594	0	0	0	23425	22030	161575	27315	1056992	46429	108634	0	0	8162	575700	0	0
2024-09-19 07:11:47			0	37577	0	0	0	23433	22030	161671	27538	1057001	46441	108637	0	0	8160	576386	0	0
2024-09-19 07:12:47			0	37565	0	0	0	23423	22020	161635	27320	1057001	46440	108633	0	0	8160	576903	0	0
2024-09-19 07:13:47			0	37576	0	0	0	23438	22010	161535	27287	1056965	46439	108639	0	0	8160	576491	0	0
2024-09-19 07:14:47			0	37607	0	0	0	23431	22030	161591	27225	1056992	46451	108636	0	0	8162	575175	0	0
2024-09-19 07:15:47			0	37609	0	0	0	23436	22030	161555	27336	1056965	46473	108638	0	0	8162	575095	0	0
2024-09-19 07:16:47			0	37608	0	0	0	23433	22020	161591	27422	1057009	46440	108637	0	0	8162	575167	0	0
2024-09-19 07:17:47			0	37602	0	0	0	23433	22020	161515	27180	1056983	46440	108637	0	0	8162	575409	0	0
2024-09-19 07:18:47			0	37608	0	0	0	23457	22020	161527	27176	1056983	46440	108646	0	0	8162	575167	0	0
2024-09-19 07:19:47			0	37602	0	0	0	23446	22030	161487	27284	1056992	46461	108642	0	0	8162	575377	0	0
2024-09-19 07:20:47			0	37621	0	0	0	23449	22020	161403	27405	1057089	46461	108643	0	0	8163	574643	0	0
2024-09-19 07:21:47			0	37616	0	0	0	23438	22030	161455	27268	1057054	46430	108639	0	0	8163	574812	0	0
2024-09-19 07:22:47			0	37629	0	0	0	23436	22030	161487	27313	1057018	46417	108638	0	0	8164	574288	0	0
2024-09-19 07:23:47			0	37620	0	0	0	23425	22020	161435	27079	1057036	46451	108634	0	0	8163	574683	0	0
2024-09-19 07:24:47			0	37613	0	0	0	23438	22030	161491	27424	1057072	46429	108639	0	0	8163	574933	0	0
2024-09-19 07:25:47			0	37615	0	0	0	23444	22030	161395	27085	1057054	46452	108641	0	0	8163	574853	0	0
2024-09-19 07:26:47			0	37635	0	0	0	23431	22030	161279	27490	1056974	46441	108636	0	0	8164	574047	0	0
2024-09-19 07:27:47			0	37620	0	0	0	23431	22030	161307	27289	1057045	46451	108636	0	0	8163	574651	0	0
2024-09-19 07:28:47			0	37627	0	0	0	23436	22020	161363	27384	1057036	46451	108638	0	0	8163	574401	0	0
2024-09-19 07:29:47			0	37625	0	0	0	23436	22010	161331	27542	1056965	46428	108638	0	0	8163	574514	0	0
2024-09-19 07:30:47			0	37625	0	0	0	23428	22030	161331	27211	1057018	46440	108635	0	0	8163	574450	0	0
2024-09-19 07:31:47			0	37625	0	0	0	23436	22030	161383	27190	1057018	46473	108638	0	0	8163	574450	0	0
2024-09-19 07:32:47			0	37623	0	0	0	23433	22020	161331	27422	1056983	46429	108637	0	0	8163	574562	0	0
2024-09-19 07:33:47			0	37617	0	0	0	23438	22030	161367	27045	1057027	46452	108639	0	0	8163	574772	0	0
2024-09-19 07:34:47			0	37636	0	0	0	23438	22020	161303	27362	1056974	46440	108639	0	0	8164	574038	0	0
2024-09-19 07:35:47			0	37633	0	0	0	23436	22030	161283	27255	1056965	46440	108638	0	0	8164	574127	0	0
2024-09-19 07:36:47			0	37650	0	0	0	23431	22020	161319	27234	1057036	46451	108636	0	0	8165	573475	0	0
2024-09-19 07:37:47			0	37634	0	0	0	23446	22030	161315	27176	1057027	46452	108642	0	0	8164	574087	0	0
2024-09-19 07:38:47			0	37639	0	0	0	23444	22020	161335	27329	1056956	46451	108641	0	0	8164	573918	0	0
2024-09-19 07:39:47			0	37637	0	0	0	23449	22030	161295	27559	1056974	46441	108643	0	0	8164	573966	0	0
2024-09-19 07:40:47			0	37641	0	0	0	23431	22020	161295	27015	1057009	46451	108636	0	0	8164	573837	0	0
2024-09-19 07:41:47			0	37646	0	0	0	23441	22030	161287	27291	1056992	46440	108640	0	0	8164	573604	0	0
2024-09-19 07:42:47			0	37649	0	0	0	23436	22030	161235	27331	1056992	46451	108638	0	0	8165	573483	0	0
2024-09-19 07:43:47			0	37651	0	0	0	23446	22030	161299	27067	1057018	46429	108642	0	0	8165	573403	0	0
2024-09-19 07:44:47			0	37658	0	0	0	23438	22030	161219	27171	1057027	46441	108639	0	0	8165	573121	0	0
2024-09-19 07:45:47			0	37644	0	0	0	23436	22040	161263	27124	1057036	46453	108638	0	0	8164	573652	0	0
2024-09-19 07:46:47			0	37657	0	0	0	23444	22030	161219	27190	1056965	46440	108641	0	0	8165	573161	0	0
2024-09-19 07:47:47			0	37663	0	0	0	23444	22020	161195	27348	1056983	46451	108641	0	0	8165	572952	0	0
2024-09-19 07:48:47			0	37651	0	0	0	23444	22020	161203	27216	1057054	46440	108641	0	0	8165	573435	0	0
2024-09-19 07:49:47			0	37663	0	0	0	23449	22030	161215	27270	1057045	46440	108643	0	0	8165	572920	0	0
2024-09-19 07:50:47			0	37666	0	0	0	23441	22030	161207	27216	1056992	46440	108640	0	0	8166	572799	0	0
2024-09-19 07:51:47			0	37663	0	0	0	23433	22030	161307	27170	1057054	46441	108637	0	0	8166	572920	0	0
2024-09-19 07:52:47			0	37673	0	0	0	23438	22030	161195	26951	1057045	46451	108639	0	0	8166	572518	0	0
2024-09-19 07:53:47			0	37683	0	0	0	23436	22030	161347	27026	1057018	46451	108638	0	0	8167	572116	0	0
2024-09-19 07:54:47			0	37674	0	0	0	23433	22030	161191	27029	1056992	46440	108637	0	0	8166	572477	0	0
2024-09-19 07:55:47			0	37673	0	0	0	23436	22030	161247	27109	1057027	46452	108638	0	0	8166	572518	0	0
2024-09-19 07:56:47			0	37684	0	0	0	23441	22020	161091	27008	1057009	46429	108640	0	0	8167	572108	0	0
2024-09-19 07:57:47			0	37685	0	0	0	23436	22020	161115	27180	1057036	46440	108638	0	0	8167	572067	0	0
2024-09-19 07:58:47			0	37694	0	0	0	23441	22030	161079	27281	1057027	46441	108640	0	0	8167	571674	0	0
2024-09-19 07:59:47			0	37685	0	0	0	23454	22030	161115	27034	1057081	46418	108645	0	0	8166	572035	0	0
2024-09-19 08:00:47			0	37688	0	0	0	23444	22030	161155	27261	1056992	46440	108641	0	0	8167	571915	0	0
2024-09-19 08:01:47			0	37696	0	0	0	23451	22020	161247	27194	1057063	46451	108644	0	0	8167	571625	0	0
2024-09-19 08:02:47			0	37702	0	0	0	23446	22030	161167	27135	1057018	46451	108642	0	0	8168	571352	0	0
2024-09-19 08:03:47			0	37741	0	0	0	23444	22030	161023	27008	1056965	46440	108641	0	0	8170	569788	0	0
2024-09-19 08:04:47			0	37704	0	0	0	23444	22030	160995	27381	1057018	46440	108641	0	0	8168	571272	0	0
2024-09-19 08:05:47			0	37716	0	0	0	23446	22030	160991	27055	1057054	46430	108642	0	0	8168	570790	0	0
2024-09-19 08:06:47			0	37714	0	0	0	23441	22030	161095	26852	1056974	46441	108640	0	0	8168	570871	0	0
2024-09-19 08:07:47			0	37735	0	0	0	23449	22030	160907	27183	1057001	46430	108643	0	0	8170	570028	0	0
2024-09-19 08:08:47			0	37727	0	0	0	23451	22040	160975	27053	1057036	46442	108644	0	0	8169	570317	0	0
2024-09-19 08:09:47			0	37722	0	0	0	23444	22030	161047	26986	1057081	46430	108641	0	0	8169	570550	0	0
2024-09-19 08:10:47			0	37714	0	0	0	23449	22030	160983	26963	1057054	46452	108643	0	0	8168	570871	0	0
2024-09-19 08:11:47			0	37735	0	0	0	23444	22030	161075	26948	1057054	46430	108641	0	0	8170	570028	0	0
2024-09-19 08:12:47			0	37726	0	0	0	23454	22040	161043	27045	1057125	46442	108645	0	0	8169	570357	0	0
2024-09-19 08:13:47			0	37737	0	0	0	23451	22040	160999	27109	1057063	46475	108644	0	0	8170	569916	0	0
2024-09-19 08:14:47			0	37717	0	0	0	23446	22030	161087	26960	1057054	46441	108642	0	0	8169	570750	0	0
2024-09-19 08:15:47			0	37754	0	0	0	23459	22030	160991	27201	1057081	46441	108647	0	0	8170	569267	0	0
2024-09-19 08:16:47			0	37724	0	0	0	23444	22040	161011	27504	1057143	46453	108641	0	0	8169	570438	0	0
2024-09-19 08:17:47			0	37731	0	0	0	23449	22030	161031	27284	1057054	46441	108643	0	0	8169	570189	0	0
2024-09-19 08:18:47			0	37752	0	0	0	23449	22030	161035	27020	1057081	46462	108643	0	0	8171	569347	0	0
2024-09-19 08:19:47			0	37737	0	0	0	23451	22040	161011	27015	1057090	46442	108644	0	0	8170	569916	0	0
2024-09-19 08:20:47			0	37749	0	0	0	23449	22030	160999	26979	1057045	46429	108643	0	0	8170	569467	0	0
2024-09-19 08:21:47			0	37745	0	0	0	23457	22030	160903	27116	1057134	46441	108646	0	0	8170	569628	0	0
2024-09-19 08:22:47			0	37752	0	0	0	23451	22040	160871	27147	1057125	46442	108644	0	0	8171	569315	0	0
2024-09-19 08:23:47			0	37770	0	0	0	23451	22040	160839	27059	1057143	46431	108644	0	0	8172	568594	0	0
2024-09-19 08:24:47			0	37758	0	0	0	23459	22040	160783	27220	1057099	46453	108647	0	0	8171	569075	0	0
2024-09-19 08:25:47			0	37754	0	0	0	23446	22030	160847	27235	1057161	46430	108642	0	0	8171	569267	0	0
2024-09-19 08:26:47			0	37765	0	0	0	23454	22030	160799	27149	1057054	46462	108645	0	0	8171	568826	0	0
2024-09-19 08:27:47			0	37776	0	0	0	23459	22040	160879	27424	1057152	46453	108647	0	0	8172	568354	0	0
2024-09-19 08:28:47			0	37774	0	0	0	23462	22040	160847	26911	1057036	46442	108648	0	0	8172	568434	0	0
2024-09-19 08:29:47			0	37792	0	0	0	23462	22040	160759	27154	1057072	46431	108648	0	0	8173	567714	0	0
2024-09-19 08:30:47			0	37783	0	0	0	23459	22030	160803	27147	1057107	46441	108647	0	0	8172	568106	0	0
2024-09-19 08:31:47			0	37759	0	0	0	23464	22040	160859	27265	1057099	46442	108649	0	0	8171	569035	0	0
2024-09-19 08:32:47			0	37772	0	0	0	23451	22040	160815	27069	1057090	46442	108644	0	0	8172	568514	0	0
2024-09-19 08:33:47			0	37764	0	0	0	23457	22040	160855	27272	1057090	46431	108646	0	0	8171	568835	0	0
2024-09-19 08:34:47			0	37767	0	0	0	23462	22040	160811	27398	1057152	46442	108648	0	0	8171	568715	0	0
2024-09-19 08:35:47			0	37774	0	0	0	23457	22040	160787	27161	1057099	46442	108646	0	0	8172	568434	0	0
2024-09-19 08:36:47			0	37788	0	0	0	23462	22040	160851	27440	1057152	46442	108648	0	0	8172	567874	0	0
2024-09-19 08:37:47			0	37778	0	0	0	23467	22040	160871	27017	1057125	46442	108650	0	0	8172	568274	0	0
2024-09-19 08:38:47			0	37777	0	0	0	23467	22040	160855	27327	1057116	46442	108650	0	0	8172	568314	0	0
2024-09-19 08:39:47			0	37764	0	0	0	23467	22050	160815	27352	1057187	46453	108650	0	0	8171	568803	0	0
2024-09-19 08:40:47			0	37793	0	0	0	23457	22050	160743	27431	1057161	46442	108646	0	0	8173	567643	0	0
2024-09-19 08:41:47			0	37794	0	0	0	23457	22040	160811	27244	1057205	46431	108646	0	0	8173	567634	0	0
2024-09-19 08:42:47			0	37804	0	0	0	23451	22040	160735	27031	1057125	46442	108644	0	0	8174	567234	0	0
2024-09-19 08:43:47			0	37804	0	0	0	23457	22050	160755	27307	1057161	46442	108646	0	0	8174	567203	0	0
2024-09-19 08:44:47			0	37801	0	0	0	23459	22040	160675	27422	1057179	46431	108647	0	0	8173	567355	0	0
2024-09-19 08:45:47			0	37797	0	0	0	23462	22040	160723	27235	1057099	46442	108648	0	0	8173	567514	0	0
2024-09-19 08:46:47			0	37815	0	0	0	23446	22040	160615	27713	1057170	46431	108642	0	0	8174	566795	0	0
2024-09-19 08:47:47			0	37804	0	0	0	23454	22050	160623	27454	1057196	46432	108645	0	0	8174	567203	0	0
2024-09-19 08:48:47			0	37809	0	0	0	23451	22040	160647	27171	1057179	46442	108644	0	0	8174	567035	0	0
2024-09-19 08:49:47			0	37824	0	0	0	23457	22040	160595	27088	1057143	46453	108646	0	0	8175	566435	0	0
2024-09-19 08:50:47			0	37802	0	0	0	23457	22040	160651	27152	1057179	46453	108646	0	0	8173	567315	0	0
2024-09-19 08:51:47			0	37811	0	0	0	23459	22040	160587	27348	1057152	46442	108647	0	0	8174	566955	0	0
2024-09-19 08:52:47			0	37820	0	0	0	23457	22030	160491	27242	1057107	46441	108646	0	0	8174	566627	0	0
2024-09-19 08:53:47			0	37836	0	0	0	23459	22050	160571	27189	1057081	46453	108647	0	0	8175	565925	0	0
2024-09-19 08:54:47			0	37847	0	0	0	23454	22040	160459	27098	1057090	46453	108645	0	0	8176	565518	0	0
2024-09-19 08:55:47			0	37856	0	0	0	23464	22050	160491	27341	1057161	46442	108649	0	0	8176	565127	0	0
2024-09-19 08:56:47			0	37859	0	0	0	23462	22050	160587	27211	1057187	46453	108648	0	0	8177	565007	0	0
2024-09-19 08:57:47			0	37838	0	0	0	23464	22040	160427	27178	1057152	46442	108649	0	0	8175	565877	0	0
2024-09-19 08:58:47			0	37863	0	0	0	23462	22050	160459	26941	1057196	46443	108648	0	0	8177	564848	0	0
2024-09-19 08:59:47			0	37853	0	0	0	23459	22040	160507	26975	1057179	46442	108647	0	0	8176	565278	0	0
2024-09-19 09:00:47			0	37849	0	0	0	23462	22050	160499	27173	1057134	46442	108648	0	0	8176	565406	0	0
2024-09-19 09:01:47			0	37858	0	0	0	23475	22040	160531	27256	1057152	46442	108653	0	0	8176	565079	0	0
2024-09-19 09:02:47			0	37849	0	0	0	23464	22040	160511	27355	1057179	46453	108649	0	0	8176	565438	0	0
2024-09-19 09:03:47			0	37849	0	0	0	23464	22060	160551	27312	1057206	46455	108649	0	0	8176	565375	0	0
2024-09-19 09:04:47			0	37848	0	0	0	23472	22050	160543	27365	1057196	46432	108652	0	0	8176	565446	0	0
2024-09-19 09:05:47			0	37859	0	0	0	23472	22050	160455	27367	1057214	46442	108652	0	0	8177	565007	0	0
2024-09-19 09:06:47			0	37838	0	0	0	23467	22050	160483	27495	1057170	46454	108650	0	0	8175	565845	0	0
2024-09-19 09:07:47			0	37830	0	0	0	23477	22050	160523	27260	1057134	46442	108654	0	0	8175	566164	0	0
2024-09-19 09:08:47			0	37854	0	0	0	23475	22050	160567	26994	1057170	46443	108653	0	0	8176	565207	0	0
2024-09-19 09:09:47			0	37848	0	0	0	23472	22050	160371	27319	1057196	46443	108652	0	0	8176	565446	0	0
2024-09-19 09:10:47			0	37851	0	0	0	23475	22050	160443	27100	1057187	46442	108653	0	0	8176	565326	0	0
2024-09-19 09:11:47			0	37843	0	0	0	23457	22040	160535	27034	1057116	46442	108646	0	0	8176	565677	0	0
2024-09-19 09:12:47			0	37845	0	0	0	23459	22060	160543	27232	1057215	46434	108647	0	0	8176	565534	0	0
2024-09-19 09:13:47			0	37859	0	0	0	23462	22050	160511	27281	1057187	46442	108648	0	0	8177	565007	0	0
2024-09-19 09:14:47			0	37855	0	0	0	23470	22060	160471	27443	1057152	46444	108651	0	0	8176	565135	0	0
2024-09-19 09:15:47			0	37845	0	0	0	23477	22040	160563	27098	1057205	46442	108654	0	0	8176	565597	0	0
2024-09-19 09:16:47			0	37865	0	0	0	23470	22050	160427	27334	1057214	46442	108651	0	0	8177	564768	0	0
2024-09-19 09:17:47			0	37857	0	0	0	23472	22040	160435	27360	1057152	46431	108652	0	0	8176	565119	0	0
2024-09-19 09:18:47			0	37858	0	0	0	23472	22050	160455	27140	1057223	46464	108652	0	0	8176	565047	0	0
2024-09-19 09:19:47			0	37861	0	0	0	23464	22050	160347	27249	1057223	46464	108649	0	0	8177	564928	0	0
2024-09-19 09:20:47			0	37886	0	0	0	23467	22060	160411	26994	1057152	46465	108650	0	0	8178	563900	0	0
2024-09-19 09:21:47			0	37850	0	0	0	23464	22060	160383	26930	1057259	46433	108649	0	0	8176	565335	0	0
2024-09-19 09:22:47			0	37881	0	0	0	23464	22060	160311	27020	1057232	46444	108649	0	0	8178	564099	0	0
2024-09-19 09:23:47			0	37886	0	0	0	23467	22050	160363	27062	1057170	46443	108650	0	0	8178	563932	0	0
2024-09-19 09:24:47			0	37882	0	0	0	23470	22050	160403	27338	1057187	46431	108651	0	0	8178	564091	0	0
2024-09-19 09:25:47			0	37888	0	0	0	23470	22050	160387	26908	1057134	46442	108651	0	0	8178	563852	0	0
2024-09-19 09:26:47			0	37876	0	0	0	23467	22050	160423	26963	1057250	46443	108650	0	0	8178	564330	0	0
2024-09-19 09:27:47			0	37884	0	0	0	23470	22050	160431	27228	1057214	46453	108651	0	0	8178	564011	0	0
2024-09-19 09:28:47			0	37884	0	0	0	23464	22060	160459	27521	1057179	46444	108649	0	0	8178	563980	0	0
2024-09-19 09:29:47			0	37886	0	0	0	23464	22050	160327	27294	1057170	46443	108649	0	0	8178	563932	0	0
2024-09-19 09:30:47			0	37870	0	0	0	23462	22060	160407	27121	1057126	46455	108648	0	0	8177	564538	0	0
2024-09-19 09:31:47			0	37877	0	0	0	23467	22060	160315	27092	1057206	46421	108650	0	0	8178	564259	0	0
2024-09-19 09:32:47			0	37892	0	0	0	23459	22050	160347	27267	1057187	46442	108647	0	0	8179	563693	0	0
2024-09-19 09:33:47			0	37891	0	0	0	23477	22050	160355	27097	1057196	46443	108654	0	0	8178	563733	0	0
2024-09-19 09:34:47			0	37891	0	0	0	23462	22050	160347	26972	1057196	46432	108648	0	0	8179	563733	0	0
2024-09-19 09:35:47			0	37897	0	0	0	23462	22060	160387	27450	1057232	46444	108648	0	0	8179	563462	0	0
2024-09-19 09:36:47			0	37890	0	0	0	23459	22050	160391	26878	1057170	46443	108647	0	0	8179	563772	0	0
2024-09-19 09:37:47			0	37902	0	0	0	23462	22050	160251	27260	1057143	46443	108648	0	0	8179	563295	0	0
2024-09-19 09:38:47			0	37895	0	0	0	23467	22050	160427	27216	1057196	46454	108650	0	0	8179	563573	0	0
2024-09-19 09:39:47			0	37913	0	0	0	23464	22050	160279	27199	1057161	46442	108649	0	0	8180	562857	0	0
2024-09-19 09:40:47			0	37908	0	0	0	23470	22060	160319	26982	1057206	46444	108651	0	0	8179	563025	0	0
2024-09-19 09:41:47			0	37916	0	0	0	23464	22050	160259	27336	1057161	46442	108649	0	0	8180	562738	0	0
2024-09-19 09:42:47			0	37928	0	0	0	23462	22050	160255	27182	1057250	46454	108648	0	0	8181	562261	0	0
2024-09-19 09:43:47			0	37952	0	0	0	23467	22060	160135	27027	1057179	46444	108650	0	0	8182	561276	0	0
2024-09-19 09:44:47			0	37931	0	0	0	23472	22050	160107	27239	1057196	46454	108652	0	0	8181	562142	0	0
2024-09-19 09:45:47			0	37934	0	0	0	23475	22070	160051	27258	1057224	46456	108653	0	0	8181	561960	0	0
2024-09-19 09:46:47			0	37944	0	0	0	23470	22060	160091	27327	1057241	46445	108651	0	0	8182	561594	0	0
2024-09-19 09:47:47			0	37929	0	0	0	23464	22050	160123	27492	1057196	46432	108649	0	0	8181	562221	0	0
2024-09-19 09:48:47			0	37944	0	0	0	23477	22050	160199	27537	1057196	46432	108654	0	0	8181	561625	0	0
2024-09-19 09:49:47			0	37931	0	0	0	23490	22060	160179	27374	1057232	46444	108659	0	0	8180	562110	0	0
2024-09-19 09:50:47			0	37950	0	0	0	23490	22060	160123	27495	1057215	46456	108659	0	0	8182	561356	0	0
2024-09-19 09:51:47			0	37950	0	0	0	23483	22070	160115	27409	1057277	46456	108656	0	0	8182	561324	0	0
2024-09-19 09:52:47			0	37946	0	0	0	23488	22070	160127	27241	1057250	46456	108658	0	0	8181	561483	0	0
2024-09-19 09:53:47			0	37964	0	0	0	23490	22070	160059	27296	1057277	46445	108659	0	0	8182	560769	0	0
2024-09-19 09:54:47			0	37941	0	0	0	23467	22060	160055	27168	1057268	46434	108650	0	0	8181	561713	0	0
2024-09-19 09:55:47			0	37961	0	0	0	23459	22060	160079	27419	1057286	46421	108647	0	0	8183	560919	0	0
2024-09-19 09:56:47			0	37961	0	0	0	23472	22070	160039	27573	1057224	46445	108652	0	0	8183	560888	0	0
2024-09-19 09:57:47			0	37968	0	0	0	23462	22060	160035	27360	1057268	46445	108648	0	0	8183	560641	0	0
2024-09-19 09:58:47			0	37966	0	0	0	23472	22060	160103	27312	1057268	46456	108652	0	0	8183	560721	0	0
2024-09-19 09:59:47			0	37958	0	0	0	23477	22060	160119	27248	1057268	46445	108654	0	0	8182	561038	0	0
2024-09-19 10:00:47			0	37968	0	0	0	23483	22060	160119	27426	1057241	46456	108656	0	0	8183	560641	0	0
2024-09-19 10:01:47			0	37986	0	0	0	23488	22060	160067	27322	1057215	46456	108658	0	0	8184	559928	0	0
2024-09-19 10:02:47			0	37989	0	0	0	23483	22060	159967	27086	1057206	46433	108656	0	0	8184	559809	0	0
2024-09-19 10:03:47			0	37987	0	0	0	23480	22070	159935	27229	1057286	46456	108655	0	0	8184	559857	0	0
2024-09-19 10:04:47			0	37987	0	0	0	23477	22070	159923	27329	1057304	46456	108654	0	0	8184	559857	0	0
2024-09-19 10:05:47			0	37993	0	0	0	23472	22070	159975	27436	1057224	46434	108652	0	0	8184	559619	0	0
2024-09-19 10:06:47			0	37983	0	0	0	23475	22060	159847	27272	1057232	46455	108653	0	0	8184	560046	0	0
2024-09-19 10:07:47			0	38014	0	0	0	23485	22060	159943	27242	1057286	46455	108657	0	0	8185	558818	0	0
2024-09-19 10:08:47			0	38010	0	0	0	23488	22070	159819	27649	1057259	46445	108658	0	0	8185	558946	0	0
2024-09-19 10:09:47			0	38024	0	0	0	23493	22070	159819	27632	1057339	46434	108660	0	0	8186	558392	0	0
2024-09-19 10:10:47			0	38012	0	0	0	23488	22070	159887	27474	1057286	46445	108658	0	0	8185	558866	0	0
2024-09-19 10:11:47			0	38015	0	0	0	23485	22060	159795	27625	1057241	46445	108657	0	0	8185	558779	0	0
2024-09-19 10:12:47			0	38030	0	0	0	23496	22070	159723	27211	1057339	46445	108661	0	0	8186	558154	0	0
2024-09-19 10:13:47			0	38027	0	0	0	23496	22080	159807	27267	1057348	46446	108661	0	0	8186	558242	0	0
2024-09-19 10:14:47			0	38006	0	0	0	23498	22070	159811	27173	1057313	46456	108662	0	0	8185	559104	0	0
2024-09-19 10:15:47			0	38021	0	0	0	23496	22070	159895	27379	1057330	46445	108661	0	0	8186	558510	0	0
2024-09-19 10:16:47			0	38031	0	0	0	23490	22080	159888	27497	1057295	46446	108659	0	0	8186	558084	0	0
2024-09-19 10:17:47			0	38029	0	0	0	23493	22080	159903	27270	1057268	46467	108660	0	0	8186	558163	0	0
2024-09-19 10:18:47			0	38016	0	0	0	23506	22070	159775	27126	1057313	46466	108665	0	0	8185	558708	0	0
2024-09-19 10:19:47			0	38028	0	0	0	23493	22070	159736	27497	1057286	46456	108660	0	0	8186	558233	0	0
2024-09-19 10:20:47			0	38027	0	0	0	23488	22070	159751	27360	1057339	46445	108658	0	0	8186	558273	0	0
2024-09-19 10:21:47			0	38041	0	0	0	23488	22080	159672	27402	1057375	46457	108658	0	0	8187	557688	0	0
2024-09-19 10:22:47			0	38040	0	0	0	23488	22080	159656	27171	1057304	46447	108658	0	0	8187	557727	0	0
2024-09-19 10:23:47			0	38045	0	0	0	23488	22090	159816	27540	1057313	46447	108658	0	0	8187	557499	0	0
2024-09-19 10:24:47			0	38052	0	0	0	23490	22080	159720	27575	1057242	46446	108659	0	0	8188	557253	0	0
2024-09-19 10:25:47			0	38080	0	0	0	23485	22090	159704	27364	1057340	46436	108657	0	0	8189	556116	0	0
2024-09-19 10:26:47			0	38064	0	0	0	23490	22080	159604	27293	1057384	46458	108659	0	0	8188	556779	0	0
2024-09-19 10:27:47			0	38083	0	0	0	23490	22080	159652	27718	1057331	46436	108659	0	0	8189	556029	0	0
2024-09-19 10:28:47			0	38073	0	0	0	23498	22080	159680	27372	1057357	46447	108662	0	0	8189	556424	0	0
2024-09-19 10:29:47			0	38078	0	0	0	23496	22090	159656	27384	1057366	46468	108661	0	0	8189	556195	0	0
2024-09-19 10:30:47			0	38085	0	0	0	23498	22080	159668	27031	1057331	46458	108662	0	0	8189	555950	0	0
2024-09-19 10:31:47			0	38079	0	0	0	23501	22080	159600	26977	1057384	46458	108663	0	0	8189	556187	0	0
2024-09-19 10:32:47			0	38081	0	0	0	23498	22080	159580	27376	1057411	46458	108662	0	0	8189	556108	0	0
2024-09-19 10:33:47			0	38078	0	0	0	23490	22080	159560	27627	1057322	46423	108659	0	0	8189	556226	0	0
2024-09-19 10:34:47			0	38082	0	0	0	23485	22090	159516	27348	1057366	46447	108657	0	0	8190	556037	0	0
2024-09-19 10:35:47			0	38103	0	0	0	23490	22080	159560	27260	1057375	46457	108659	0	0	8191	555240	0	0
2024-09-19 10:36:47			0	38095	0	0	0	23493	22080	159576	27450	1057375	46457	108660	0	0	8190	555555	0	0
2024-09-19 10:37:47			0	38105	0	0	0	23490	22080	159500	27147	1057331	46424	108659	0	0	8191	555161	0	0
2024-09-19 10:38:47			0	38100	0	0	0	23485	22080	159492	27341	1057295	46446	108657	0	0	8191	555358	0	0
2024-09-19 10:39:47			0	38107	0	0	0	23480	22080	159380	27241	1057322	46446	108655	0	0	8191	555082	0	0
2024-09-19 10:40:47			0	38117	0	0	0	23485	22080	159420	27713	1057304	46447	108657	0	0	8192	554688	0	0
2024-09-19 10:41:47			0	38114	0	0	0	23480	22080	159436	27587	1057322	46457	108655	0	0	8191	554807	0	0
2024-09-19 10:42:47			0	38107	0	0	0	23488	22090	159400	27244	1057340	46447	108658	0	0	8191	555052	0	0
2024-09-19 10:43:47			0	38107	0	0	0	23493	22070	159440	27341	1057313	46445	108660	0	0	8191	555113	0	0
2024-09-19 10:44:47			0	38115	0	0	0	23490	22080	159472	27441	1057357	46424	108659	0	0	8191	554767	0	0
2024-09-19 10:45:47			0	38108	0	0	0	23498	22080	159424	27305	1057375	46435	108662	0	0	8191	555043	0	0
2024-09-19 10:46:47			0	38121	0	0	0	23490	22080	159472	27381	1057375	46446	108659	0	0	8192	554531	0	0
2024-09-19 10:47:47			0	38118	0	0	0	23509	22080	159380	27384	1057402	46446	108666	0	0	8191	554649	0	0
2024-09-19 10:48:47			0	38101	0	0	0	23477	22080	159376	27116	1057348	46446	108654	0	0	8191	555319	0	0
2024-09-19 10:49:47			0	38105	0	0	0	23493	22080	159404	27478	1057411	46447	108660	0	0	8191	555161	0	0
2024-09-19 10:50:47			0	38122	0	0	0	23503	22080	159228	27410	1057322	46423	108664	0	0	8192	554491	0	0
2024-09-19 10:51:47			0	38114	0	0	0	23506	22080	159360	27357	1057375	46446	108665	0	0	8191	554807	0	0
2024-09-19 10:52:47			0	38109	0	0	0	23514	22080	159380	27062	1057464	46436	108668	0	0	8191	555004	0	0
2024-09-19 10:53:47			0	38116	0	0	0	23511	22080	159220	27010	1057411	46424	108667	0	0	8191	554728	0	0
2024-09-19 10:54:47			0	38109	0	0	0	23503	22100	159248	27171	1057411	46448	108664	0	0	8191	554942	0	0
2024-09-19 10:55:47			0	38118	0	0	0	23511	22080	159272	27606	1057384	46436	108667	0	0	8191	554649	0	0
2024-09-19 10:56:47			0	38121	0	0	0	23498	22080	159224	27227	1057402	46446	108662	0	0	8192	554531	0	0
2024-09-19 10:57:47			0	38051	0	0	0	23506	22080	159348	27022	1057375	46446	108665	0	0	8187	557293	0	0
2024-09-19 10:58:47			0	38045	0	0	0	23498	22090	159428	27286	1057455	46458	108662	0	0	8187	557499	0	0
2024-09-19 10:59:47			0	38017	0	0	0	23503	22080	159623	27192	1057331	46447	108664	0	0	8185	558637	0	0
2024-09-19 11:00:47			0	37982	0	0	0	23506	22090	159707	27149	1057402	46447	108665	0	0	8183	559993	0	0
2024-09-19 11:01:47			0	38011	0	0	0	23514	22080	159747	27308	1057411	46447	108668	0	0	8185	558875	0	0
2024-09-19 11:02:47			0	38022	0	0	0	23501	22090	159671	27211	1057429	46447	108663	0	0	8186	558408	0	0
2024-09-19 11:03:47			0	38043	0	0	0	23509	22090	159500	27189	1057393	46447	108666	0	0	8187	557578	0	0
2024-09-19 11:04:47			0	38083	0	0	0	23511	22090	159496	27178	1057402	46458	108667	0	0	8189	555998	0	0
2024-09-19 11:05:47			0	38090	0	0	0	23506	22090	159284	27050	1057535	46436	108665	0	0	8190	555722	0	0
2024-09-19 11:06:47			0	38125	0	0	0	23524	22110	159308	27161	1057429	46449	108672	0	0	8191	554280	0	0
2024-09-19 11:07:47			0	38131	0	0	0	23524	22090	159252	27429	1057402	46458	108672	0	0	8192	554106	0	0
2024-09-19 11:08:47			0	38119	0	0	0	23516	22110	159160	27313	1057509	46449	108669	0	0	8191	554517	0	0
2024-09-19 11:09:47			0	38129	0	0	0	23527	22110	159152	27305	1057482	46449	108673	0	0	8192	554123	0	0
2024-09-19 11:10:47			0	38108	0	0	0	23511	22090	159148	27457	1057455	46447	108667	0	0	8191	555012	0	0
2024-09-19 11:11:47			0	38159	0	0	0	23483	22100	159016	27164	1057438	46448	108656	0	0	8194	552973	0	0
2024-09-19 11:12:47			0	38169	0	0	0	23506	22090	159048	27166	1057429	46436	108665	0	0	8194	552611	0	0
2024-09-19 11:13:47			0	38182	0	0	0	23496	22100	158996	27289	1057411	46437	108661	0	0	8195	552069	0	0
2024-09-19 11:14:47			0	38177	0	0	0	23496	22090	158984	27166	1057420	46447	108661	0	0	8195	552297	0	0
2024-09-19 11:15:47			0	38197	0	0	0	23490	22100	159060	27279	1057420	46438	108659	0	0	8196	551480	0	0
2024-09-19 11:16:47			0	38199	0	0	0	23490	22090	158968	27178	1057402	46447	108659	0	0	8196	551432	0	0
2024-09-19 11:17:47			0	38188	0	0	0	23503	22100	159032	26873	1057464	46425	108664	0	0	8195	551833	0	0
2024-09-19 11:18:47			0	38190	0	0	0	23506	22100	158936	27571	1057438	46437	108665	0	0	8196	551755	0	0
2024-09-19 11:19:47			0	38182	0	0	0	23514	22090	158984	27433	1057482	46436	108668	0	0	8195	552100	0	0
2024-09-19 11:20:47			0	38200	0	0	0	23511	22090	158916	27310	1057446	46447	108667	0	0	8196	551393	0	0
2024-09-19 11:21:47			0	38205	0	0	0	23519	22080	158956	27253	1057402	46446	108670	0	0	8196	551227	0	0
2024-09-19 11:22:47			0	38198	0	0	0	23529	22100	158952	27067	1057464	46458	108674	0	0	8196	551441	0	0
2024-09-19 11:23:47			0	38190	0	0	0	23535	22100	158964	27166	1057473	46449	108676	0	0	8195	551755	0	0
2024-09-19 11:24:47			0	38171	0	0	0	23532	22110	159020	27194	1057491	46459	108675	0	0	8194	552471	0	0
2024-09-19 11:25:47			0	38185	0	0	0	23514	22090	158984	27230	1057455	46436	108668	0	0	8195	551982	0	0
2024-09-19 11:26:47			0	38211	0	0	0	23514	22110	158976	26833	1057482	46449	108668	0	0	8197	550900	0	0
2024-09-19 11:27:47			0	38191	0	0	0	23527	22100	158936	27218	1057491	46437	108673	0	0	8195	551716	0	0
2024-09-19 11:28:47			0	38198	0	0	0	23509	22110	158968	27237	1057455	46449	108666	0	0	8196	551410	0	0
2024-09-19 11:29:47			0	38211	0	0	0	23496	22100	158820	27209	1057438	46437	108661	0	0	8197	550931	0	0
2024-09-19 11:30:47			0	38221	0	0	0	23477	22090	158804	27497	1057429	46436	108654	0	0	8198	550569	0	0
2024-09-19 11:31:47			0	38247	0	0	0	23480	22090	158704	27150	1057375	46436	108655	0	0	8199	549550	0	0
2024-09-19 11:32:47			0	38259	0	0	0	23483	22090	158716	27255	1057393	46424	108656	0	0	8200	549080	0	0
2024-09-19 11:33:47			0	38257	0	0	0	23498	22110	158748	27019	1057402	46449	108662	0	0	8200	549097	0	0
2024-09-19 11:34:47			0	38249	0	0	0	23501	22100	158692	27412	1057411	46437	108663	0	0	8199	549441	0	0
2024-09-19 11:35:47			0	38233	0	0	0	23509	22080	158692	26963	1057357	46436	108666	0	0	8198	550129	0	0
2024-09-19 11:36:47			0	38226	0	0	0	23516	22090	158748	26986	1057429	46447	108669	0	0	8197	550373	0	0
2024-09-19 11:37:47			0	38237	0	0	0	23509	22090	158856	27135	1057429	46468	108666	0	0	8198	549942	0	0
2024-09-19 11:38:47			0	38238	0	0	0	23519	22100	158764	27043	1057491	46437	108670	0	0	8198	549872	0	0
2024-09-19 11:39:47			0	38229	0	0	0	23509	22090	158876	27000	1057429	46436	108666	0	0	8198	550255	0	0
2024-09-19 11:40:47			0	38237	0	0	0	23493	22110	158832	27027	1057464	46449	108660	0	0	8199	549881	0	0
2024-09-19 11:41:47			0	38252	0	0	0	23488	22090	158820	27306	1057455	46458	108658	0	0	8199	549354	0	0
2024-09-19 11:42:47			0	38255	0	0	0	23477	22100	158728	27138	1057411	46425	108654	0	0	8200	549206	0	0
2024-09-19 11:43:47			0	38264	0	0	0	23483	22090	158664	27088	1057375	46447	108656	0	0	8200	548884	0	0
2024-09-19 11:44:47			0	38272	0	0	0	23493	22090	158672	27312	1057366	46447	108660	0	0	8201	548571	0	0
2024-09-19 11:45:47			0	38267	0	0	0	23503	22090	158800	27324	1057402	46436	108664	0	0	8200	548767	0	0
2024-09-19 11:46:47			0	38251	0	0	0	23514	22090	158828	27450	1057420	46436	108668	0	0	8199	549393	0	0
2024-09-19 11:47:47			0	38225	0	0	0	23516	22090	158796	27026	1057420	46458	108669	0	0	8197	550412	0	0
2024-09-19 11:48:47			0	38202	0	0	0	23522	22090	158984	27196	1057455	46436	108671	0	0	8196	551315	0	0
2024-09-19 11:49:47			0	38186	0	0	0	23519	22100	158900	27222	1057438	46448	108670	0	0	8195	551912	0	0
2024-09-19 11:50:47			0	38188	0	0	0	23524	22100	159092	27455	1057411	46437	108672	0	0	8195	551833	0	0
2024-09-19 11:51:47			0	38144	0	0	0	23524	22090	159148	27355	1057446	46447	108672	0	0	8193	553594	0	0
2024-09-19 11:52:47			0	38148	0	0	0	23527	22090	159188	27538	1057429	46447	108673	0	0	8193	553437	0	0
2024-09-19 11:53:47			0	38124	0	0	0	23529	22090	159196	27471	1057455	46447	108674	0	0	8191	554382	0	0
2024-09-19 11:54:47			0	38137	0	0	0	23532	22110	159140	27161	1057544	46449	108675	0	0	8192	553808	0	0
2024-09-19 11:55:47			0	38156	0	0	0	23519	22110	159200	27039	1057518	46449	108670	0	0	8193	553060	0	0
2024-09-19 11:56:47			0	38141	0	0	0	23511	22110	159120	27206	1057536	46449	108667	0	0	8193	553650	0	0
2024-09-19 11:57:47			0	38165	0	0	0	23511	22110	159128	27319	1057518	46449	108667	0	0	8194	552706	0	0
2024-09-19 11:58:47			0	38170	0	0	0	23501	22110	159000	27279	1057518	46449	108663	0	0	8195	552510	0	0
2024-09-19 11:59:47			0	38198	0	0	0	23496	22100	159084	27175	1057491	46448	108661	0	0	8196	551441	0	0
2024-09-19 12:00:47			0	38204	0	0	0	23514	22100	158940	27258	1057491	46458	108668	0	0	8196	551205	0	0
2024-09-19 12:01:47			0	38210	0	0	0	23509	22110	158952	27434	1057482	46449	108666	0	0	8197	550939	0	0
2024-09-19 12:02:47			0	38227	0	0	0	23514	22110	158884	26889	1057482	46449	108668	0	0	8198	550272	0	0
2024-09-19 12:03:47			0	38220	0	0	0	23522	22100	158868	27036	1057500	46482	108671	0	0	8197	550578	0	0
2024-09-19 12:04:47			0	38242	0	0	0	23516	22100	158916	27294	1057553	46426	108669	0	0	8198	549715	0	0
2024-09-19 12:05:47			0	38231	0	0	0	23516	22120	158908	27156	1057527	46450	108669	0	0	8198	550085	0	0
2024-09-19 12:06:47			0	38216	0	0	0	23516	22100	158816	27476	1057500	46459	108669	0	0	8197	550735	0	0
2024-09-19 12:07:47			0	38235	0	0	0	23527	22110	158864	27379	1057509	46449	108673	0	0	8198	549959	0	0
2024-09-19 12:08:47			0	38230	0	0	0	23532	22120	158864	27635	1057527	46450	108675	0	0	8198	550124	0	0
2024-09-19 12:09:47			0	38235	0	0	0	23535	22120	158896	27272	1057562	46440	108676	0	0	8198	549928	0	0
2024-09-19 12:10:47			0	38233	0	0	0	23527	22110	158804	27291	1057571	46438	108673	0	0	8198	550037	0	0
2024-09-19 12:11:47			0	38241	0	0	0	23537	22120	158744	27027	1057553	46450	108677	0	0	8198	549693	0	0
2024-09-19 12:12:47			0	38259	0	0	0	23540	22120	158768	27223	1057607	46439	108678	0	0	8199	548988	0	0
2024-09-19 12:13:47			0	38264	0	0	0	23535	22120	158692	27227	1057589	46451	108676	0	0	8199	548792	0	0
2024-09-19 12:14:47			0	38254	0	0	0	23540	22110	158644	27211	1057589	46459	108678	0	0	8199	549214	0	0
2024-09-19 12:15:47			0	38258	0	0	0	23537	22120	158656	27443	1057607	46460	108677	0	0	8199	549027	0	0
2024-09-19 12:16:47			0	38278	0	0	0	23532	22120	158624	27391	1057527	46450	108675	0	0	8200	548245	0	0
2024-09-19 12:17:47			0	38278	0	0	0	23537	22120	158676	27447	1057616	46451	108677	0	0	8200	548245	0	0
2024-09-19 12:18:47			0	38307	0	0	0	23529	22120	158564	27371	1057536	46451	108674	0	0	8202	547111	0	0
2024-09-19 12:19:47			0	38303	0	0	0	23537	22110	158612	27568	1057571	46449	108677	0	0	8202	547298	0	0
2024-09-19 12:20:47			0	38319	0	0	0	23532	22120	158584	27445	1057527	46450	108675	0	0	8203	546642	0	0
2024-09-19 12:21:47			0	38338	0	0	0	23535	22120	158520	27313	1057562	46440	108676	0	0	8204	545901	0	0
2024-09-19 12:22:47			0	38315	0	0	0	23535	22120	158460	27436	1057562	46451	108676	0	0	8202	546799	0	0
2024-09-19 12:23:47			0	38340	0	0	0	23519	22110	158488	27336	1057518	46449	108670	0	0	8204	545853	0	0
2024-09-19 12:24:47			0	38338	0	0	0	23527	22120	158352	27235	1057589	46440	108673	0	0	8204	545901	0	0
2024-09-19 12:25:47			0	38356	0	0	0	23529	22120	158284	27190	1057562	46461	108674	0	0	8205	545199	0	0
2024-09-19 12:26:47			0	38359	0	0	0	23535	22120	158156	27019	1057580	46450	108676	0	0	8205	545082	0	0
2024-09-19 12:27:47			0	38384	0	0	0	23535	22130	158180	27149	1057625	46452	108676	0	0	8206	544078	0	0
2024-09-19 12:28:47			0	38379	0	0	0	23537	22120	158172	27213	1057580	46439	108677	0	0	8206	544303	0	0
2024-09-19 12:29:47			0	38375	0	0	0	23545	22120	158176	27204	1057580	46439	108680	0	0	8206	544459	0	0
2024-09-19 12:30:47			0	38369	0	0	0	23548	22130	158168	26908	1057598	46462	108681	0	0	8205	544662	0	0
2024-09-19 12:31:47			0	38367	0	0	0	23545	22120	158108	27268	1057616	46451	108680	0	0	8205	544770	0	0
2024-09-19 12:32:47			0	38345	0	0	0	23550	22130	158312	27260	1057651	46452	108682	0	0	8204	545597	0	0
2024-09-19 12:33:47			0	38347	0	0	0	23542	22140	158412	27296	1057616	46462	108679	0	0	8204	545489	0	0
2024-09-19 12:34:47			0	38341	0	0	0	23545	22130	158240	27485	1057651	46462	108680	0	0	8204	545754	0	0
2024-09-19 12:35:47			0	38317	0	0	0	23548	22130	158464	27282	1057571	46452	108681	0	0	8202	546690	0	0
2024-09-19 12:36:47			0	38308	0	0	0	23542	22130	158480	27415	1057518	46462	108679	0	0	8202	547042	0	0
2024-09-19 12:37:47			0	38306	0	0	0	23553	22130	158536	27130	1057607	46441	108683	0	0	8202	547120	0	0
2024-09-19 12:38:47			0	38327	0	0	0	23563	22140	158408	27185	1057678	46442	108687	0	0	8203	546269	0	0
2024-09-19 12:39:47			0	38334	0	0	0	23566	22140	158384	27147	1057669	46452	108688	0	0	8203	545996	0	0
2024-09-19 12:40:47			0	38347	0	0	0	23550	22130	158232	27412	1057687	46462	108682	0	0	8204	545520	0	0
2024-09-19 12:41:47			0	38349	0	0	0	23542	22130	158328	27414	1057651	46452	108679	0	0	8204	545442	0	0
2024-09-19 12:42:47			0	38336	0	0	0	23555	22130	158384	27502	1057580	46441	108684	0	0	8203	545949	0	0
2024-09-19 12:43:47			0	38338	0	0	0	23555	22140	158472	27606	1057678	46442	108684	0	0	8204	545840	0	0
2024-09-19 12:44:47			0	38327	0	0	0	23563	22140	158404	27201	1057625	46453	108687	0	0	8203	546269	0	0
2024-09-19 12:45:47			0	38315	0	0	0	23561	22140	158512	27587	1057651	46453	108686	0	0	8202	546738	0	0
2024-09-19 12:46:47			0	38300	0	0	0	23566	22140	158480	27445	1057696	46462	108688	0	0	8201	547324	0	0
2024-09-19 12:47:47			0	38318	0	0	0	23563	22140	158396	27492	1057705	46453	108687	0	0	8202	546620	0	0
2024-09-19 12:48:47			0	38312	0	0	0	23563	22150	158400	27469	1057687	46454	108687	0	0	8202	546824	0	0
2024-09-19 12:49:47			0	38305	0	0	0	23568	22150	158532	27344	1057714	46443	108689	0	0	8201	547098	0	0
2024-09-19 12:50:47			0	38326	0	0	0	23568	22150	158496	27464	1057687	46454	108689	0	0	8203	546278	0	0
2024-09-19 12:51:47			0	38319	0	0	0	23566	22140	158532	27516	1057696	46441	108688	0	0	8202	546581	0	0
2024-09-19 12:52:47			0	38319	0	0	0	23566	22150	158432	27416	1057687	46454	108688	0	0	8202	546551	0	0
2024-09-19 12:53:47			0	38347	0	0	0	23568	22150	158280	27307	1057696	46454	108689	0	0	8204	545459	0	0
2024-09-19 12:54:47			0	38339	0	0	0	23574	22160	158336	27592	1057732	46464	108691	0	0	8203	545740	0	0
2024-09-19 12:55:47			0	38363	0	0	0	23574	22160	158244	27421	1057785	46454	108691	0	0	8205	544805	0	0
2024-09-19 12:56:47			0	38380	0	0	0	23563	22150	158296	27462	1057803	46454	108687	0	0	8206	544173	0	0
2024-09-19 12:57:47			0	38363	0	0	0	23561	22160	158292	27320	1057705	46443	108686	0	0	8205	544805	0	0
2024-09-19 12:58:47			0	38360	0	0	0	23571	22150	158364	27447	1057740	46443	108690	0	0	8205	544952	0	0
2024-09-19 12:59:47			0	38346	0	0	0	23566	22150	158320	27260	1057687	46454	108688	0	0	8204	545498	0	0
2024-09-19 13:00:47			0	38355	0	0	0	23566	22160	158172	27206	1057732	46454	108688	0	0	8204	545116	0	0
2024-09-19 13:01:47			0	38372	0	0	0	23563	22150	158260	27147	1057687	46443	108687	0	0	8205	544484	0	0
2024-09-19 13:02:47			0	38346	0	0	0	23576	22150	158276	27298	1057696	46454	108692	0	0	8204	545498	0	0
2024-09-19 13:03:47			0	38350	0	0	0	23566	22150	158252	27320	1057669	46443	108688	0	0	8204	545342	0	0
2024-09-19 13:04:47			0	38361	0	0	0	23571	22150	158316	27256	1057794	46454	108690	0	0	8205	544913	0	0
2024-09-19 13:05:47			0	38329	0	0	0	23568	22150	158380	27272	1057749	46454	108689	0	0	8203	546161	0	0
2024-09-19 13:06:47			0	38344	0	0	0	23568	22150	158400	27471	1057714	46454	108689	0	0	8204	545576	0	0
2024-09-19 13:07:47			0	38352	0	0	0	23571	22150	158360	27672	1057749	46464	108690	0	0	8204	545264	0	0
2024-09-19 13:08:47			0	38340	0	0	0	23571	22140	158308	27170	1057731	46463	108690	0	0	8203	545762	0	0
2024-09-19 13:09:47			0	38365	0	0	0	23566	22160	158264	27369	1057687	46455	108688	0	0	8205	544727	0	0
2024-09-19 13:10:47			0	38365	0	0	0	23563	22160	158316	27320	1057741	46465	108687	0	0	8205	544727	0	0
2024-09-19 13:11:47			0	38346	0	0	0	23555	22160	158216	27253	1057705	46454	108684	0	0	8204	545467	0	0
2024-09-19 13:12:47			0	38329	0	0	0	23568	22160	158316	27194	1057758	46431	108689	0	0	8203	546130	0	0
2024-09-19 13:13:47			0	38334	0	0	0	23568	22150	158288	27421	1057723	46454	108689	0	0	8203	545966	0	0
2024-09-19 13:14:47			0	38333	0	0	0	23555	22160	158260	27538	1057767	46444	108684	0	0	8203	545974	0	0
2024-09-19 13:15:47			0	38341	0	0	0	23566	22150	158404	27556	1057714	46475	108688	0	0	8204	545693	0	0
2024-09-19 13:16:47			0	38331	0	0	0	23558	22150	158380	27414	1057714	46431	108685	0	0	8203	546083	0	0
2024-09-19 13:17:47			0	38333	0	0	0	23566	22160	158528	27559	1057687	46476	108688	0	0	8203	545974	0	0
2024-09-19 13:18:47			0	38322	0	0	0	23558	22160	158460	27651	1057794	46476	108685	0	0	8203	546403	0	0
2024-09-19 13:19:47			0	38335	0	0	0	23555	22150	158372	27261	1057687	46464	108684	0	0	8203	545927	0	0
2024-09-19 13:20:47			0	38332	0	0	0	23566	22150	158276	27379	1057696	46464	108688	0	0	8203	546044	0	0
2024-09-19 13:21:47			0	38369	0	0	0	23558	22140	158340	27485	1057705	46463	108685	0	0	8205	544632	0	0
2024-09-19 13:22:47			0	38352	0	0	0	23555	22160	158236	27320	1057732	46443	108684	0	0	8204	545233	0	0
2024-09-19 13:23:47			0	38374	0	0	0	23566	22150	158252	27343	1057696	46443	108688	0	0	8205	544407	0	0
2024-09-19 13:24:47			0	38359	0	0	0	23563	22150	158268	27251	1057714	46443	108687	0	0	8205	544991	0	0
2024-09-19 13:25:47			0	38369	0	0	0	23568	22160	158284	27059	1057678	46443	108689	0	0	8205	544571	0	0
2024-09-19 13:26:47			0	38379	0	0	0	23568	22150	158236	27242	1057740	46475	108689	0	0	8206	544212	0	0
2024-09-19 13:27:47			0	38367	0	0	0	23568	22150	158252	27199	1057696	46454	108689	0	0	8205	544679	0	0
2024-09-19 13:28:47			0	38376	0	0	0	23568	22160	158152	27408	1057758	46464	108689	0	0	8206	544298	0	0
2024-09-19 13:29:47			0	38393	0	0	0	23568	22150	158208	27419	1057749	46443	108689	0	0	8207	543667	0	0
2024-09-19 13:30:47			0	38395	0	0	0	23576	22150	158196	27008	1057696	46464	108692	0	0	8207	543589	0	0
2024-09-19 13:31:47			0	38395	0	0	0	23581	22160	158116	27194	1057714	46455	108694	0	0	8206	543559	0	0
2024-09-19 13:32:47			0	38383	0	0	0	23586	22160	158196	27046	1057812	46454	108696	0	0	8206	544026	0	0
2024-09-19 13:33:47			0	38375	0	0	0	23584	22160	158088	27376	1057785	46454	108695	0	0	8205	544337	0	0
2024-09-19 13:34:47			0	38383	0	0	0	23589	22160	158176	27178	1057767	46455	108697	0	0	8206	544026	0	0
2024-09-19 13:35:47			0	38382	0	0	0	23579	22170	158272	27336	1057776	46445	108693	0	0	8206	544034	0	0
2024-09-19 13:36:47			0	38385	0	0	0	23584	22160	158188	27289	1057821	46444	108695	0	0	8206	543948	0	0
2024-09-19 13:37:47			0	38379	0	0	0	23594	22170	158192	27194	1057830	46456	108699	0	0	8205	544151	0	0
2024-09-19 13:38:47			0	38402	0	0	0	23586	22170	158036	27111	1057830	46466	108696	0	0	8207	543256	0	0
2024-09-19 13:39:47			0	38442	0	0	0	23599	22160	157916	27078	1057767	46455	108701	0	0	8209	541732	0	0
2024-09-19 13:40:47			0	38449	0	0	0	23592	22180	157828	27093	1057821	46456	108698	0	0	8210	541400	0	0
2024-09-19 13:41:47			0	38477	0	0	0	23594	22160	157812	27417	1057821	46455	108699	0	0	8211	540374	0	0
2024-09-19 13:42:47			0	38496	0	0	0	23597	22160	157760	27376	1057847	46455	108700	0	0	8212	539638	0	0
2024-09-19 13:43:47			0	38517	0	0	0	23599	22170	157592	27383	1057812	46466	108701	0	0	8213	538795	0	0
2024-09-19 13:44:47			0	38523	0	0	0	23597	22180	157636	27457	1057910	46446	108700	0	0	8214	538533	0	0
2024-09-19 13:45:47			0	38524	0	0	0	23586	22170	157740	27123	1057856	46456	108696	0	0	8214	538525	0	0
2024-09-19 13:46:47			0	38528	0	0	0	23586	22180	157532	27549	1057856	46457	108696	0	0	8214	538340	0	0
2024-09-19 13:47:47			0	38531	0	0	0	23597	22180	157604	27364	1057874	46456	108700	0	0	8214	538224	0	0
2024-09-19 13:48:47			0	38548	0	0	0	23589	22180	157528	27275	1057874	46466	108697	0	0	8215	537567	0	0
2024-09-19 13:49:47			0	38567	0	0	0	23594	22180	157544	27215	1057883	46457	108699	0	0	8216	536833	0	0
2024-09-19 13:50:47			0	38567	0	0	0	23599	22180	157512	27471	1057901	46466	108701	0	0	8216	536833	0	0
2024-09-19 13:51:47			0	38537	0	0	0	23597	22180	157532	27267	1057883	46457	108700	0	0	8215	537992	0	0
2024-09-19 13:52:47			0	38526	0	0	0	23597	22180	157528	27116	1057883	46435	108700	0	0	8214	538417	0	0
2024-09-19 13:53:47			0	38510	0	0	0	23599	22180	157616	27182	1057847	46445	108701	0	0	8213	539036	0	0
2024-09-19 13:54:47			0	38505	0	0	0	23597	22180	157652	27524	1057883	46457	108700	0	0	8213	539229	0	0
2024-09-19 13:55:47			0	38521	0	0	0	23594	22180	157564	27378	1057847	46466	108699	0	0	8214	538610	0	0
2024-09-19 13:56:47			0	38519	0	0	0	23605	22180	157500	27424	1057883	46435	108703	0	0	8213	538688	0	0
2024-09-19 13:57:47			0	38524	0	0	0	23599	22190	157580	27777	1057892	46447	108701	0	0	8214	538464	0	0
2024-09-19 13:58:47			0	38522	0	0	0	23599	22180	157536	27498	1057883	46457	108701	0	0	8214	538572	0	0
2024-09-19 13:59:47			0	38513	0	0	0	23605	22180	157576	27390	1057883	46467	108703	0	0	8213	538920	0	0
2024-09-19 14:00:47			0	38521	0	0	0	23602	22190	157512	27105	1057839	46468	108702	0	0	8214	538580	0	0
2024-09-19 14:01:47			0	38529	0	0	0	23607	22180	157636	27286	1057936	46457	108704	0	0	8214	538301	0	0
2024-09-19 14:02:47			0	38514	0	0	0	23607	22200	157596	27407	1057937	46469	108704	0	0	8213	538821	0	0
2024-09-19 14:03:47			0	38530	0	0	0	23607	22190	157616	27293	1057865	46480	108704	0	0	8214	538232	0	0
2024-09-19 14:04:47			0	38532	0	0	0	23607	22180	157584	27573	1057883	46457	108704	0	0	8214	538185	0	0
2024-09-19 14:05:47			0	38513	0	0	0	23605	22180	157512	27196	1057883	46457	108703	0	0	8213	538920	0	0
2024-09-19 14:06:47			0	38527	0	0	0	23618	22180	157576	27554	1057936	46446	108708	0	0	8214	538378	0	0
2024-09-19 14:07:47			0	38516	0	0	0	23607	22190	157568	27531	1057874	46458	108704	0	0	8213	538774	0	0
2024-09-19 14:08:47			0	38530	0	0	0	23605	22190	157508	27256	1057892	46447	108703	0	0	8214	538232	0	0
2024-09-19 14:09:47			0	38535	0	0	0	23610	22190	157580	27197	1057954	46458	108705	0	0	8214	538039	0	0
2024-09-19 14:10:47			0	38540	0	0	0	23605	22190	157460	27329	1057901	46448	108703	0	0	8215	537846	0	0
2024-09-19 14:11:47			0	38531	0	0	0	23602	22190	157416	27350	1057892	46458	108702	0	0	8214	538194	0	0
2024-09-19 14:12:47			0	38533	0	0	0	23605	22190	157484	27626	1057954	46448	108703	0	0	8214	538116	0	0
2024-09-19 14:13:47			0	38525	0	0	0	23602	22190	157608	27547	1057945	46458	108702	0	0	8214	538426	0	0
2024-09-19 14:14:47			0	38547	0	0	0	23605	22180	157572	27476	1057856	46467	108703	0	0	8215	537605	0	0
2024-09-19 14:15:47			0	38540	0	0	0	23607	22190	157456	27331	1057928	46458	108704	0	0	8215	537846	0	0
2024-09-19 14:16:47			0	38543	0	0	0	23612	22200	157476	27241	1057937	46458	108706	0	0	8215	537700	0	0
2024-09-19 14:17:47			0	38555	0	0	0	23607	22190	157504	27348	1057874	46458	108704	0	0	8215	537266	0	0
2024-09-19 14:18:47			0	38565	0	0	0	23612	22200	157456	27410	1057910	46458	108706	0	0	8216	536850	0	0
2024-09-19 14:19:47			0	38571	0	0	0	23602	22200	157424	27128	1057963	46458	108702	0	0	8217	536618	0	0
2024-09-19 14:20:47			0	38560	0	0	0	23618	22200	157464	27377	1057910	46448	108708	0	0	8216	537043	0	0
2024-09-19 14:21:47			0	38565	0	0	0	23599	22190	157288	27256	1058008	46448	108701	0	0	8216	536880	0	0
2024-09-19 14:22:47			0	38583	0	0	0	23612	22200	157404	27455	1057990	46458	108706	0	0	8217	536155	0	0
2024-09-19 14:23:47			0	38566	0	0	0	23607	22200	157324	27334	1057963	46458	108704	0	0	8216	536811	0	0
2024-09-19 14:24:47			0	38567	0	0	0	23610	22200	157408	27256	1057999	46458	108705	0	0	8216	536773	0	0
2024-09-19 14:25:47			0	38581	0	0	0	23612	22200	157328	27331	1057963	46469	108706	0	0	8217	536232	0	0
2024-09-19 14:26:47			0	38584	0	0	0	23607	22200	157296	27371	1057919	46469	108704	0	0	8217	536117	0	0
2024-09-19 14:27:47			0	38587	0	0	0	23615	22200	157316	27156	1057919	46469	108707	0	0	8217	536001	0	0
2024-09-19 14:28:47			0	38588	0	0	0	23615	22200	157300	27322	1057973	46448	108707	0	0	8217	535962	0	0
2024-09-19 14:29:47			0	38593	0	0	0	23612	22200	157256	27209	1057973	46458	108706	0	0	8218	535770	0	0
2024-09-19 14:30:47			0	38581	0	0	0	23605	22190	157212	27171	1058008	46458	108703	0	0	8217	536262	0	0
2024-09-19 14:31:47			0	38603	0	0	0	23607	22190	157124	27665	1057874	46481	108704	0	0	8218	535414	0	0
2024-09-19 14:32:47			0	38597	0	0	0	23610	22200	157152	27313	1057963	46437	108705	0	0	8218	535615	0	0
2024-09-19 14:33:47			0	38597	0	0	0	23602	22200	157224	27614	1057963	46458	108702	0	0	8218	535615	0	0
2024-09-19 14:34:47			0	38613	0	0	0	23586	22200	157124	27234	1057963	46458	108696	0	0	8219	534999	0	0
2024-09-19 14:35:47			0	38615	0	0	0	23586	22200	157128	27203	1057910	46458	108696	0	0	8219	534922	0	0
2024-09-19 14:36:47			0	38603	0	0	0	23589	22200	157116	27568	1057883	46448	108697	0	0	8219	535384	0	0
2024-09-19 14:37:47			0	38625	0	0	0	23594	22190	157056	27230	1057901	46448	108699	0	0	8220	534567	0	0
2024-09-19 14:38:47			0	38606	0	0	0	23589	22190	157208	27374	1057928	46458	108697	0	0	8219	535299	0	0
2024-09-19 14:39:47			0	38623	0	0	0	23597	22190	157168	27351	1057865	46458	108700	0	0	8220	534644	0	0
2024-09-19 14:40:47			0	38611	0	0	0	23597	22190	157224	27133	1057919	46447	108700	0	0	8219	535106	0	0
2024-09-19 14:41:47			0	38633	0	0	0	23594	22190	157200	27540	1057892	46447	108699	0	0	8220	534259	0	0
2024-09-19 14:42:47			0	38606	0	0	0	23602	22180	157248	27227	1057883	46446	108702	0	0	8218	535328	0	0
2024-09-19 14:43:47			0	38622	0	0	0	23589	22180	157244	27206	1057901	46466	108697	0	0	8220	534712	0	0
2024-09-19 14:44:47			0	38610	0	0	0	23605	22180	157212	27500	1057936	46446	108703	0	0	8219	535174	0	0
2024-09-19 14:45:47			0	38606	0	0	0	23599	22190	157208	27223	1057865	46458	108701	0	0	8219	535299	0	0
2024-09-19 14:46:47			0	38588	0	0	0	23599	22190	157232	27386	1057892	46447	108701	0	0	8218	535992	0	0
2024-09-19 14:47:47			0	38618	0	0	0	23605	22190	157184	27327	1057919	46447	108703	0	0	8219	534836	0	0
2024-09-19 14:48:47			0	38605	0	0	0	23594	22190	157200	27421	1057901	46458	108699	0	0	8219	535337	0	0
2024-09-19 14:49:47			0	38608	0	0	0	23597	22190	157200	26880	1057945	46447	108700	0	0	8219	535221	0	0
2024-09-19 14:50:47			0	38595	0	0	0	23592	22190	157268	27180	1057865	46458	108698	0	0	8218	535722	0	0
2024-09-19 14:51:47			0	38614	0	0	0	23599	22180	157300	27345	1057927	46456	108701	0	0	8219	535020	0	0
2024-09-19 14:52:47			0	38596	0	0	0	23597	22180	157184	27265	1057883	46457	108700	0	0	8218	535714	0	0
2024-09-19 14:53:47			0	38608	0	0	0	23599	22190	157224	27397	1057954	46448	108701	0	0	8219	535221	0	0
2024-09-19 14:54:47			0	38593	0	0	0	23592	22190	157232	27312	1057954	46437	108698	0	0	8218	535800	0	0
2024-09-19 14:55:47			0	38603	0	0	0	23599	22190	157312	27438	1057919	46458	108701	0	0	8218	535414	0	0
2024-09-19 14:56:47			0	38593	0	0	0	23597	22180	157200	27498	1057927	46456	108700	0	0	8218	535830	0	0
2024-09-19 14:57:47			0	38587	0	0	0	23597	22180	157256	27476	1057883	46446	108700	0	0	8217	536061	0	0
2024-09-19 14:58:47			0	38582	0	0	0	23592	22190	157304	27237	1057945	46458	108698	0	0	8217	536224	0	0
2024-09-19 14:59:47			0	38601	0	0	0	23592	22180	157316	27253	1057910	46467	108698	0	0	8218	535521	0	0
2024-09-19 15:00:47			0	38590	0	0	0	23586	22180	157292	27640	1057883	46446	108696	0	0	8218	535945	0	0
2024-09-19 15:01:47			0	38582	0	0	0	23592	22180	157296	27516	1057883	46446	108698	0	0	8217	536254	0	0
2024-09-19 15:02:47			0	38578	0	0	0	23602	22180	157324	27447	1057910	46446	108702	0	0	8217	536408	0	0
2024-09-19 15:03:47			0	38570	0	0	0	23592	22180	157328	27760	1057963	46457	108698	0	0	8217	536717	0	0
2024-09-19 15:04:47			0	38574	0	0	0	23579	22190	157344	27350	1057839	46468	108693	0	0	8217	536533	0	0
2024-09-19 15:05:47			0	38578	0	0	0	23589	22180	157404	27287	1057936	46457	108697	0	0	8217	536408	0	0
2024-09-19 15:06:47			0	38578	0	0	0	23589	22180	157364	27455	1057910	46467	108697	0	0	8217	536408	0	0
2024-09-19 15:07:47			0	38573	0	0	0	23586	22180	157344	27680	1057883	46457	108696	0	0	8217	536601	0	0
2024-09-19 15:08:47			0	38597	0	0	0	23592	22180	157352	27455	1057910	46446	108698	0	0	8218	535675	0	0
2024-09-19 15:09:47			0	38588	0	0	0	23584	22180	157248	27613	1057936	46467	108695	0	0	8218	536022	0	0
2024-09-19 15:10:47			0	38571	0	0	0	23592	22180	157272	27225	1057883	46467	108698	0	0	8217	536678	0	0
2024-09-19 15:11:47			0	38563	0	0	0	23599	22180	157320	27400	1057856	46457	108701	0	0	8216	536987	0	0
2024-09-19 15:12:47			0	38581	0	0	0	23594	22190	157400	27313	1057945	46468	108699	0	0	8217	536262	0	0
2024-09-19 15:13:47			0	38564	0	0	0	23602	22180	157444	27374	1057927	46466	108702	0	0	8216	536949	0	0
2024-09-19 15:14:47			0	38567	0	0	0	23605	22180	157388	27658	1057936	46467	108703	0	0	8216	536833	0	0
2024-09-19 15:15:47			0	38575	0	0	0	23599	22180	157388	27428	1058016	46457	108701	0	0	8217	536524	0	0
2024-09-19 15:16:47			0	38554	0	0	0	23602	22190	157448	27064	1057954	46469	108702	0	0	8216	537305	0	0
2024-09-19 15:17:47			0	38566	0	0	0	23605	22190	157492	27374	1057928	46458	108703	0	0	8216	536841	0	0
2024-09-19 15:18:47			0	38555	0	0	0	23597	22190	157412	27294	1057919	46458	108700	0	0	8216	537266	0	0
2024-09-19 15:19:47			0	38553	0	0	0	23597	22180	157444	27197	1057910	46457	108700	0	0	8215	537373	0	0
2024-09-19 15:20:47			0	38567	0	0	0	23599	22190	157384	27043	1057901	46469	108701	0	0	8216	536803	0	0
2024-09-19 15:21:47			0	38564	0	0	0	23597	22190	157320	27168	1057945	46447	108700	0	0	8216	536919	0	0
2024-09-19 15:22:47			0	38564	0	0	0	23592	22200	157380	27107	1057937	46448	108698	0	0	8216	536889	0	0
2024-09-19 15:23:47			0	38585	0	0	0	23597	22180	157380	27393	1057963	46457	108700	0	0	8217	536138	0	0
2024-09-19 15:24:47			0	38573	0	0	0	23599	22190	157372	27315	1057945	46458	108701	0	0	8217	536571	0	0
2024-09-19 15:25:47			0	38560	0	0	0	23594	22190	157416	27159	1057928	46458	108699	0	0	8216	537073	0	0
2024-09-19 15:26:47			0	38560	0	0	0	23597	22190	157300	27088	1057901	46469	108700	0	0	8216	537073	0	0
2024-09-19 15:27:47			0	38559	0	0	0	23599	22190	157312	27459	1057892	46458	108701	0	0	8216	537112	0	0
2024-09-19 15:28:47			0	38556	0	0	0	23602	22180	157380	27637	1057936	46446	108702	0	0	8216	537257	0	0
2024-09-19 15:29:47			0	38573	0	0	0	23602	22190	157392	27268	1057981	46458	108702	0	0	8217	536571	0	0
2024-09-19 15:30:47			0	38570	0	0	0	23599	22190	157400	27460	1057981	46458	108701	0	0	8216	536687	0	0
2024-09-19 15:31:47			0	38585	0	0	0	23607	22190	157308	27156	1057954	46448	108704	0	0	8217	536108	0	0
2024-09-19 15:32:47			0	38586	0	0	0	23602	22190	157324	27474	1057928	46448	108702	0	0	8217	536070	0	0
2024-09-19 15:33:47			0	38586	0	0	0	23607	22190	157376	27199	1057954	46458	108704	0	0	8217	536070	0	0
2024-09-19 15:34:47			0	38579	0	0	0	23607	22190	157356	27568	1057981	46458	108704	0	0	8217	536340	0	0
2024-09-19 15:35:47			0	38601	0	0	0	23602	22190	157168	27530	1057928	46458	108702	0	0	8218	535491	0	0
2024-09-19 15:36:47			0	38596	0	0	0	23602	22200	157220	27109	1058017	46437	108702	0	0	8218	535654	0	0
2024-09-19 15:37:47			0	38596	0	0	0	23594	22190	157152	27760	1058008	46458	108699	0	0	8218	535684	0	0
2024-09-19 15:38:47			0	38575	0	0	0	23594	22190	157332	27642	1057874	46458	108699	0	0	8217	536494	0	0
2024-09-19 15:39:47			0	38571	0	0	0	23599	22190	157332	27194	1057919	46447	108701	0	0	8217	536648	0	0
2024-09-19 15:40:47			0	38584	0	0	0	23602	22190	157216	27585	1057928	46458	108702	0	0	8217	536147	0	0
2024-09-19 15:41:47			0	38581	0	0	0	23597	22190	157388	27300	1057919	46458	108700	0	0	8217	536262	0	0
2024-09-19 15:42:47			0	38562	0	0	0	23586	22180	157356	27500	1057883	46457	108696	0	0	8216	537026	0	0
2024-09-19 15:43:47			0	38562	0	0	0	23599	22190	157468	27128	1057972	46458	108701	0	0	8216	536996	0	0
2024-09-19 15:44:47			0	38541	0	0	0	23602	22190	157476	27185	1057892	46458	108702	0	0	8215	537807	0	0
2024-09-19 15:45:47			0	38529	0	0	0	23599	22190	157364	27249	1057945	46447	108701	0	0	8214	538271	0	0
2024-09-19 15:46:47			0	38504	0	0	0	23597	22190	157692	27473	1057981	46458	108700	0	0	8213	539238	0	0
2024-09-19 15:47:47			0	38500	0	0	0	23592	22190	157584	27298	1057954	46437	108698	0	0	8213	539393	0	0
2024-09-19 15:48:47			0	38493	0	0	0	23607	22190	157704	27364	1057919	46458	108704	0	0	8212	539664	0	0
2024-09-19 15:49:47			0	38485	0	0	0	23605	22190	157700	27400	1057981	46458	108703	0	0	8211	539974	0	0
2024-09-19 15:50:47			0	38479	0	0	0	23597	22180	157620	27064	1057856	46446	108700	0	0	8211	540237	0	0
2024-09-19 15:51:47			0	38498	0	0	0	23594	22190	157580	27213	1057945	46468	108699	0	0	8212	539470	0	0
2024-09-19 15:52:47			0	38484	0	0	0	23589	22180	157596	27322	1057954	46445	108697	0	0	8212	540043	0	0
2024-09-19 15:53:47			0	38504	0	0	0	23602	22190	157568	27282	1057928	46469	108702	0	0	8213	539238	0	0
2024-09-19 15:54:47			0	38517	0	0	0	23592	22190	157520	27291	1057919	46458	108698	0	0	8214	538735	0	0
2024-09-19 15:55:47			0	38520	0	0	0	23607	22180	157388	27691	1057883	46446	108704	0	0	8213	538649	0	0
2024-09-19 15:56:47			0	38536	0	0	0	23586	22190	157580	27537	1057892	46458	108696	0	0	8215	538000	0	0
2024-09-19 15:57:47			0	38534	0	0	0	23581	22190	157460	27351	1057865	46447	108694	0	0	8215	538078	0	0
2024-09-19 15:58:47			0	38544	0	0	0	23581	22180	157528	27486	1057910	46446	108694	0	0	8215	537721	0	0
2024-09-19 15:59:47			0	38558	0	0	0	23586	22190	157460	27229	1057892	46436	108696	0	0	8216	537150	0	0
2024-09-19 16:00:47			0	38544	0	0	0	23594	22190	157432	27630	1057919	46458	108699	0	0	8215	537691	0	0
2024-09-19 16:01:47			0	38571	0	0	0	23592	22190	157464	27213	1057919	46436	108698	0	0	8217	536648	0	0
2024-09-19 16:02:47			0	38566	0	0	0	23586	22170	157444	27843	1057918	46466	108696	0	0	8216	536901	0	0
2024-09-19 16:03:47			0	38552	0	0	0	23581	22180	157456	27578	1057874	46456	108694	0	0	8216	537412	0	0
2024-09-19 16:04:47			0	38570	0	0	0	23574	22180	157368	27300	1057883	46457	108691	0	0	8217	536717	0	0
2024-09-19 16:05:47			0	38560	0	0	0	23584	22180	157368	27062	1057883	46446	108695	0	0	8216	537103	0	0
2024-09-19 16:06:47			0	38564	0	0	0	23576	22180	157380	27135	1057910	46457	108692	0	0	8216	536949	0	0
2024-09-19 16:07:47			0	38583	0	0	0	23579	22180	157344	27367	1057830	46446	108693	0	0	8218	536215	0	0
2024-09-19 16:08:47			0	38571	0	0	0	23576	22180	157416	27275	1057883	46446	108692	0	0	8217	536678	0	0
2024-09-19 16:09:47			0	38564	0	0	0	23579	22190	157448	27281	1057919	46447	108693	0	0	8216	536919	0	0
2024-09-19 16:10:47			0	38546	0	0	0	23584	22180	157492	27647	1057874	46478	108695	0	0	8215	537644	0	0
2024-09-19 16:11:47			0	38551	0	0	0	23581	22180	157472	27379	1057856	46457	108694	0	0	8216	537451	0	0
2024-09-19 16:12:47			0	38554	0	0	0	23586	22180	157496	27263	1057901	46466	108696	0	0	8216	537335	0	0
2024-09-19 16:13:47			0	38565	0	0	0	23579	22180	157492	27258	1057856	46457	108693	0	0	8216	536910	0	0
2024-09-19 16:14:47			0	38544	0	0	0	23584	22180	157408	27526	1057910	46457	108695	0	0	8215	537721	0	0
2024-09-19 16:15:47			0	38557	0	0	0	23581	22180	157472	27156	1057954	46466	108694	0	0	8216	537219	0	0
2024-09-19 16:16:47			0	38549	0	0	0	23586	22170	157580	27189	1057803	46456	108696	0	0	8215	537558	0	0
2024-09-19 16:17:47			0	38569	0	0	0	23581	22180	157440	27232	1057927	46434	108694	0	0	8217	536755	0	0
2024-09-19 16:18:47			0	38566	0	0	0	23584	22170	157392	27076	1057830	46445	108695	0	0	8216	536901	0	0
2024-09-19 16:19:47			0	38573	0	0	0	23589	22180	157456	27177	1057901	46456	108697	0	0	8217	536601	0	0
2024-09-19 16:20:47			0	38559	0	0	0	23586	22170	157448	27438	1057883	46445	108696	0	0	8216	537172	0	0
2024-09-19 16:21:47			0	38543	0	0	0	23586	22180	157524	27383	1057901	46434	108696	0	0	8215	537760	0	0
2024-09-19 16:22:47			0	38547	0	0	0	23589	22170	157324	27334	1057856	46445	108697	0	0	8215	537635	0	0
2024-09-19 16:23:47			0	38547	0	0	0	23584	22170	157416	27303	1057865	46434	108695	0	0	8215	537635	0	0
2024-09-19 16:24:47			0	38542	0	0	0	23584	22180	157452	26939	1057901	46466	108695	0	0	8215	537798	0	0
2024-09-19 16:25:47			0	38540	0	0	0	23589	22180	157484	27407	1057927	46445	108697	0	0	8215	537876	0	0
2024-09-19 16:26:47			0	38533	0	0	0	23584	22170	157488	27189	1057856	46456	108695	0	0	8215	538176	0	0
2024-09-19 16:27:47			0	38528	0	0	0	23586	22180	157576	27339	1057767	46456	108696	0	0	8214	538340	0	0
2024-09-19 16:28:47			0	38497	0	0	0	23589	22170	157624	27220	1057856	46466	108697	0	0	8212	539569	0	0
2024-09-19 16:29:47			0	38512	0	0	0	23584	22170	157564	27133	1057918	46445	108695	0	0	8213	538989	0	0
2024-09-19 16:30:47			0	38480	0	0	0	23579	22170	157740	27829	1057830	46445	108693	0	0	8212	540228	0	0
2024-09-19 16:31:47			0	38487	0	0	0	23561	22160	157700	27504	1057847	46444	108686	0	0	8212	539987	0	0
2024-09-19 16:32:47			0	38492	0	0	0	23550	22160	157684	27457	1057758	46443	108682	0	0	8213	539793	0	0
2024-09-19 16:33:47			0	38504	0	0	0	23558	22160	157684	27479	1057794	46433	108685	0	0	8213	539328	0	0
2024-09-19 16:34:47			0	38497	0	0	0	23553	22160	157728	27502	1057794	46444	108683	0	0	8213	539599	0	0
2024-09-19 16:35:47			0	38487	0	0	0	23555	22160	157764	27497	1057838	46443	108684	0	0	8212	539987	0	0
2024-09-19 16:36:47			0	38489	0	0	0	23550	22150	157728	27161	1057696	46443	108682	0	0	8212	539940	0	0
2024-09-19 16:37:47			0	38514	0	0	0	23548	22150	157644	27488	1057767	46443	108681	0	0	8214	538972	0	0
2024-09-19 16:38:47			0	38495	0	0	0	23553	22160	157596	27497	1057705	46443	108683	0	0	8213	539677	0	0
2024-09-19 16:39:47			0	38490	0	0	0	23555	22140	157668	27552	1057723	46441	108684	0	0	8212	539931	0	0
2024-09-19 16:40:47			0	38492	0	0	0	23558	22150	157668	27045	1057687	46454	108685	0	0	8212	539823	0	0
2024-09-19 16:41:47			0	38499	0	0	0	23561	22150	157580	27294	1057767	46443	108686	0	0	8213	539552	0	0
2024-09-19 16:42:47			0	38500	0	0	0	23561	22150	157708	27289	1057767	46443	108686	0	0	8213	539514	0	0
2024-09-19 16:43:47			0	38498	0	0	0	23566	22140	157628	27327	1057731	46453	108688	0	0	8213	539621	0	0
2024-09-19 16:44:47			0	38504	0	0	0	23563	22150	157632	27367	1057749	46443	108687	0	0	8213	539359	0	0
2024-09-19 16:45:47			0	38473	0	0	0	23563	22150	157864	27566	1057803	46454	108687	0	0	8211	540560	0	0
2024-09-19 16:46:47			0	38479	0	0	0	23553	22140	157800	27022	1057705	46442	108683	0	0	8212	540357	0	0
2024-09-19 16:47:47			0	38484	0	0	0	23558	22150	157696	27246	1057749	46443	108685	0	0	8212	540133	0	0
2024-09-19 16:48:47			0	38478	0	0	0	23561	22140	157832	27279	1057731	46442	108686	0	0	8212	540396	0	0
2024-09-19 16:49:47			0	38489	0	0	0	23561	22150	157768	27594	1057714	46443	108686	0	0	8212	539940	0	0
2024-09-19 16:50:47			0	38484	0	0	0	23553	22150	157836	27358	1057749	46443	108683	0	0	8212	540133	0	0
2024-09-19 16:51:47			0	38473	0	0	0	23550	22150	157708	27499	1057749	46464	108682	0	0	8212	540560	0	0
2024-09-19 16:52:47			0	38474	0	0	0	23537	22150	157808	27504	1057696	46443	108677	0	0	8212	540521	0	0
2024-09-19 16:53:47			0	38477	0	0	0	23550	22140	157752	27595	1057731	46442	108682	0	0	8212	540435	0	0
2024-09-19 16:54:47			0	38489	0	0	0	23537	22150	157756	27545	1057714	46443	108677	0	0	8213	539940	0	0
2024-09-19 16:55:47			0	38461	0	0	0	23553	22140	157852	27241	1057723	46441	108683	0	0	8211	541055	0	0
2024-09-19 16:56:47			0	38472	0	0	0	23553	22140	157880	27343	1057731	46430	108683	0	0	8211	540629	0	0
2024-09-19 16:57:47			0	38473	0	0	0	23553	22150	157840	27352	1057714	46454	108683	0	0	8211	540560	0	0
2024-09-19 16:58:47			0	38450	0	0	0	23555	22140	157836	27364	1057731	46442	108684	0	0	8210	541482	0	0
2024-09-19 16:59:47			0	38449	0	0	0	23550	22140	157724	27209	1057811	46453	108682	0	0	8210	541521	0	0
2024-09-19 17:00:47			0	38443	0	0	0	23545	22140	157900	27274	1057678	46453	108680	0	0	8210	541754	0	0
2024-09-19 17:01:47			0	38458	0	0	0	23550	22150	157952	27199	1057740	46454	108682	0	0	8211	541141	0	0
2024-09-19 17:02:47			0	38452	0	0	0	23558	22140	157888	27345	1057723	46441	108685	0	0	8210	541405	0	0
2024-09-19 17:03:47			0	38437	0	0	0	23558	22140	157984	27353	1057776	46462	108685	0	0	8209	541987	0	0
2024-09-19 17:04:47			0	38441	0	0	0	23553	22140	157984	27360	1057731	46463	108683	0	0	8210	541831	0	0
2024-09-19 17:05:47			0	38421	0	0	0	23550	22140	157984	27346	1057723	46452	108682	0	0	8208	542608	0	0
2024-09-19 17:06:47			0	38427	0	0	0	23563	22140	158004	27263	1057723	46452	108687	0	0	8209	542375	0	0
2024-09-19 17:07:47			0	38423	0	0	0	23555	22130	158124	27433	1057740	46462	108684	0	0	8208	542561	0	0
2024-09-19 17:08:47			0	38432	0	0	0	23561	22140	158020	27255	1057785	46442	108686	0	0	8209	542181	0	0
2024-09-19 17:09:47			0	38423	0	0	0	23561	22140	158096	27602	1057723	46462	108686	0	0	8208	542531	0	0
2024-09-19 17:10:47			0	38418	0	0	0	23561	22140	158028	27289	1057758	46453	108686	0	0	8208	542725	0	0
2024-09-19 17:11:47			0	38424	0	0	0	23545	22150	158068	27410	1057767	46443	108680	0	0	8209	542462	0	0
2024-09-19 17:12:47			0	38417	0	0	0	23527	22150	158096	27502	1057767	46454	108673	0	0	8209	542734	0	0
2024-09-19 17:13:47			0	38409	0	0	0	23529	22140	158092	27459	1057669	46441	108674	0	0	8208	543075	0	0
2024-09-19 17:14:47			0	38406	0	0	0	23537	22130	158152	27422	1057678	46441	108677	0	0	8208	543222	0	0
2024-09-19 17:15:47			0	38392	0	0	0	23553	22120	158128	27486	1057669	46440	108683	0	0	8207	543797	0	0
2024-09-19 17:16:47			0	38424	0	0	0	23550	22140	158148	27469	1057643	46441	108682	0	0	8209	542492	0	0
2024-09-19 17:17:47			0	38406	0	0	0	23550	22130	158136	27300	1057687	46429	108682	0	0	8208	543222	0	0
2024-09-19 17:18:47			0	38384	0	0	0	23555	22140	158100	27632	1057669	46441	108684	0	0	8206	544048	0	0
2024-09-19 17:19:47			0	38385	0	0	0	23555	22140	158176	27346	1057723	46452	108684	0	0	8206	544009	0	0
2024-09-19 17:20:47			0	38373	0	0	0	23558	22130	158076	27372	1057714	46441	108685	0	0	8205	544506	0	0
2024-09-19 17:21:47			0	38387	0	0	0	23545	22130	158164	27362	1057740	46452	108680	0	0	8206	543961	0	0
2024-09-19 17:22:47			0	38374	0	0	0	23550	22130	158136	27261	1057714	46441	108682	0	0	8206	544467	0	0
2024-09-19 17:23:47			0	38375	0	0	0	23558	22150	158252	27229	1057740	46443	108685	0	0	8206	544368	0	0
2024-09-19 17:24:47			0	38387	0	0	0	23561	22130	158192	27393	1057678	46452	108686	0	0	8206	543961	0	0
2024-09-19 17:25:47			0	38366	0	0	0	23555	22130	158160	27367	1057687	46462	108684	0	0	8205	544779	0	0
2024-09-19 17:26:47			0	38360	0	0	0	23553	22130	158096	27355	1057767	46452	108683	0	0	8205	545013	0	0
2024-09-19 17:27:47			0	38358	0	0	0	23568	22140	158328	27313	1057731	46453	108689	0	0	8204	545060	0	0
2024-09-19 17:28:47			0	38356	0	0	0	23555	22140	158236	27071	1057776	46441	108684	0	0	8205	545138	0	0
2024-09-19 17:29:47			0	38363	0	0	0	23550	22140	158280	27166	1057749	46441	108682	0	0	8205	544865	0	0
2024-09-19 17:30:47			0	38358	0	0	0	23555	22140	158284	27128	1057705	46453	108684	0	0	8205	545060	0	0
2024-09-19 17:31:47			0	38342	0	0	0	23545	22130	158232	27336	1057740	46452	108680	0	0	8204	545714	0	0
2024-09-19 17:32:47			0	38353	0	0	0	23558	22130	158228	27540	1057714	46441	108685	0	0	8204	545285	0	0
2024-09-19 17:33:47			0	38348	0	0	0	23553	22140	158368	27310	1057723	46452	108683	0	0	8204	545450	0	0
2024-09-19 17:34:47			0	38328	0	0	0	23568	22130	158356	27365	1057687	46441	108689	0	0	8203	546261	0	0
2024-09-19 17:35:47			0	38335	0	0	0	23561	22140	158316	27270	1057696	46452	108686	0	0	8203	545957	0	0
2024-09-19 17:36:47			0	38361	0	0	0	23555	22150	158364	27485	1057767	46454	108684	0	0	8205	544913	0	0
2024-09-19 17:37:47			0	38336	0	0	0	23550	22130	158352	27459	1057687	46441	108682	0	0	8203	545949	0	0
2024-09-19 17:38:47			0	38340	0	0	0	23553	22130	158332	27293	1057740	46441	108683	0	0	8204	545792	0	0
2024-09-19 17:39:47			0	38340	0	0	0	23550	22140	158280	27216	1057669	46452	108682	0	0	8204	545762	0	0
2024-09-19 17:40:47			0	38314	0	0	0	23545	22140	158364	27270	1057723	46441	108680	0	0	8202	546777	0	0
2024-09-19 17:41:47			0	38317	0	0	0	23535	22140	158420	27291	1057776	46452	108676	0	0	8203	546660	0	0
2024-09-19 17:42:47			0	38325	0	0	0	23527	22130	158356	27395	1057660	46452	108673	0	0	8203	546378	0	0
2024-09-19 17:43:47			0	38323	0	0	0	23527	22130	158256	27523	1057660	46429	108673	0	0	8203	546456	0	0
2024-09-19 17:44:47			0	38323	0	0	0	23535	22130	158296	27455	1057625	46441	108676	0	0	8203	546456	0	0
2024-09-19 17:45:47			0	38323	0	0	0	23542	22130	158360	27701	1057607	46441	108679	0	0	8203	546456	0	0
2024-09-19 17:46:47			0	38319	0	0	0	23540	22120	158348	27433	1057633	46439	108678	0	0	8203	546642	0	0
2024-09-19 17:47:47			0	38301	0	0	0	23532	22130	158368	27365	1057678	46441	108675	0	0	8202	547315	0	0
2024-09-19 17:48:47			0	38322	0	0	0	23532	22130	158260	27414	1057634	46441	108675	0	0	8203	546495	0	0
2024-09-19 17:49:47			0	38329	0	0	0	23524	22130	158284	27234	1057651	46452	108672	0	0	8203	546222	0	0
2024-09-19 17:50:47			0	38325	0	0	0	23527	22120	158392	27033	1057669	46451	108673	0	0	8203	546408	0	0
2024-09-19 17:51:47			0	38317	0	0	0	23514	22120	158448	27576	1057616	46451	108668	0	0	8203	546720	0	0
2024-09-19 17:52:47			0	38303	0	0	0	23522	22130	158484	27453	1057651	46441	108671	0	0	8202	547237	0	0
2024-09-19 17:53:47			0	38295	0	0	0	23514	22120	158472	27187	1057589	46451	108668	0	0	8202	547580	0	0
2024-09-19 17:54:47			0	38286	0	0	0	23519	22110	158564	27403	1057624	46449	108670	0	0	8201	547962	0	0
2024-09-19 17:55:47			0	38289	0	0	0	23522	22110	158632	27185	1057544	46449	108671	0	0	8201	547845	0	0
2024-09-19 17:56:47			0	38287	0	0	0	23514	22120	158600	27391	1057580	46450	108668	0	0	8201	547893	0	0
2024-09-19 17:57:47			0	38275	0	0	0	23522	22110	158540	27367	1057589	46449	108671	0	0	8200	548393	0	0
2024-09-19 17:58:47			0	38285	0	0	0	23514	22110	158636	27069	1057616	46426	108668	0	0	8201	548001	0	0
2024-09-19 17:59:47			0	38279	0	0	0	23522	22120	158676	27105	1057607	46450	108671	0	0	8201	548206	0	0
2024-09-19 18:00:47			0	38265	0	0	0	23527	22120	158692	27338	1057607	46450	108673	0	0	8200	548753	0	0
2024-09-19 18:01:47			0	38264	0	0	0	23516	22110	158616	27275	1057598	46449	108669	0	0	8200	548823	0	0
2024-09-19 18:02:47			0	38273	0	0	0	23522	22110	158624	27175	1057536	46449	108671	0	0	8200	548471	0	0
2024-09-19 18:03:47			0	38253	0	0	0	23529	22120	158680	27578	1057580	46450	108674	0	0	8199	549223	0	0
2024-09-19 18:04:47			0	38250	0	0	0	23516	22110	158720	27533	1057598	46449	108669	0	0	8199	549371	0	0
2024-09-19 18:05:47			0	38257	0	0	0	23522	22110	158732	27351	1057598	46449	108671	0	0	8199	549097	0	0
2024-09-19 18:06:47			0	38257	0	0	0	23519	22110	158672	27417	1057589	46449	108670	0	0	8199	549097	0	0
2024-09-19 18:07:47			0	38253	0	0	0	23522	22110	158748	27462	1057589	46438	108671	0	0	8199	549254	0	0
2024-09-19 18:08:47			0	38253	0	0	0	23524	22110	158696	27367	1057598	46449	108672	0	0	8199	549254	0	0
2024-09-19 18:09:47			0	38262	0	0	0	23519	22110	158768	27078	1057536	46438	108670	0	0	8200	548901	0	0
2024-09-19 18:10:47			0	38233	0	0	0	23522	22110	158688	27443	1057562	46438	108671	0	0	8198	550037	0	0
2024-09-19 18:11:47			0	38234	0	0	0	23522	22110	158708	27045	1057562	46449	108671	0	0	8198	549998	0	0
2024-09-19 18:12:47			0	38261	0	0	0	23514	22110	158772	27348	1057598	46459	108668	0	0	8200	548940	0	0
2024-09-19 18:13:47			0	38250	0	0	0	23524	22110	158772	26844	1057562	46449	108672	0	0	8199	549371	0	0
2024-09-19 18:14:47			0	38241	0	0	0	23514	22100	158848	27057	1057607	46449	108668	0	0	8198	549754	0	0
2024-09-19 18:15:47			0	38239	0	0	0	23514	22110	158824	27254	1057598	46449	108668	0	0	8198	549802	0	0
2024-09-19 18:16:47			0	38242	0	0	0	23524	22110	158772	27358	1057616	46438	108672	0	0	8198	549685	0	0
2024-09-19 18:17:47			0	38240	0	0	0	23511	22110	158744	27407	1057509	46438	108667	0	0	8198	549763	0	0
2024-09-19 18:18:47			0	38236	0	0	0	23511	22110	158676	27364	1057509	46438	108667	0	0	8198	549920	0	0
2024-09-19 18:19:47			0	38221	0	0	0	23509	22100	158784	27402	1057544	46437	108666	0	0	8197	550538	0	0
2024-09-19 18:20:47			0	38212	0	0	0	23519	22110	158848	27391	1057536	46449	108670	0	0	8197	550861	0	0
2024-09-19 18:21:47			0	38203	0	0	0	23514	22110	158924	27159	1057589	46438	108668	0	0	8196	551214	0	0
2024-09-19 18:22:47			0	38205	0	0	0	23522	22090	158992	27299	1057482	46447	108671	0	0	8196	551197	0	0
2024-09-19 18:23:47			0	38196	0	0	0	23516	22090	158864	27381	1057509	46436	108669	0	0	8196	551550	0	0
2024-09-19 18:24:47			0	38211	0	0	0	23527	22100	158920	27338	1057607	46449	108673	0	0	8196	550931	0	0
2024-09-19 18:25:47			0	38200	0	0	0	23524	22090	158884	27088	1057526	46436	108672	0	0	8196	551393	0	0
2024-09-19 18:26:47			0	38218	0	0	0	23522	22090	158940	27433	1057535	46424	108671	0	0	8197	550687	0	0
2024-09-19 18:27:47			0	38204	0	0	0	23519	22110	158860	27183	1057589	46449	108670	0	0	8196	551175	0	0
2024-09-19 18:28:47			0	38200	0	0	0	23522	22110	158996	27230	1057589	46426	108671	0	0	8196	551332	0	0
2024-09-19 18:29:47			0	38214	0	0	0	23503	22100	158972	27199	1057571	46448	108664	0	0	8197	550813	0	0
2024-09-19 18:30:47			0	38202	0	0	0	23514	22100	158940	27038	1057571	46448	108668	0	0	8196	551284	0	0
2024-09-19 18:31:47			0	38189	0	0	0	23509	22090	158772	27255	1057589	46436	108666	0	0	8195	551825	0	0
2024-09-19 18:32:47			0	38208	0	0	0	23503	22100	158848	27268	1057518	46458	108664	0	0	8197	551048	0	0
2024-09-19 18:33:47			0	38216	0	0	0	23509	22100	158888	27310	1057491	46448	108666	0	0	8197	550735	0	0
2024-09-19 18:34:47			0	38203	0	0	0	23506	22100	158812	27549	1057527	46426	108665	0	0	8196	551245	0	0
2024-09-19 18:35:47			0	38215	0	0	0	23501	22110	158820	27341	1057536	46449	108663	0	0	8197	550743	0	0
2024-09-19 18:36:47			0	38198	0	0	0	23503	22090	158860	27549	1057535	46436	108664	0	0	8196	551472	0	0
2024-09-19 18:37:47			0	38207	0	0	0	23501	22090	158832	27341	1057473	46447	108663	0	0	8197	551118	0	0
2024-09-19 18:38:47			0	38209	0	0	0	23498	22090	158852	27215	1057562	46436	108662	0	0	8197	551040	0	0
2024-09-19 18:39:47			0	38201	0	0	0	23509	22090	158820	27402	1057526	46447	108666	0	0	8196	551354	0	0
2024-09-19 18:40:47			0	38192	0	0	0	23493	22090	158868	27360	1057482	46447	108660	0	0	8196	551707	0	0
2024-09-19 18:41:47			0	38210	0	0	0	23506	22100	158816	27332	1057518	46425	108665	0	0	8197	550970	0	0
2024-09-19 18:42:47			0	38215	0	0	0	23503	22090	158880	27253	1057500	46447	108664	0	0	8197	550804	0	0
2024-09-19 18:43:47			0	38196	0	0	0	23506	22090	158968	27403	1057482	46436	108665	0	0	8196	551550	0	0
2024-09-19 18:44:47			0	38202	0	0	0	23501	22080	158948	27298	1057464	46447	108663	0	0	8196	551345	0	0
2024-09-19 18:45:47			0	38206	0	0	0	23496	22090	158980	27393	1057535	46424	108661	0	0	8197	551158	0	0
2024-09-19 18:46:47			0	38196	0	0	0	23496	22090	158904	27711	1057455	46447	108661	0	0	8196	551550	0	0
2024-09-19 18:47:47			0	38189	0	0	0	23496	22090	158968	27616	1057509	46436	108661	0	0	8196	551825	0	0
2024-09-19 18:48:47			0	38197	0	0	0	23498	22090	158896	27327	1057473	46436	108662	0	0	8196	551511	0	0
2024-09-19 18:49:47			0	38202	0	0	0	23496	22090	158976	27460	1057446	46447	108661	0	0	8196	551315	0	0
2024-09-19 18:50:47			0	38207	0	0	0	23501	22080	158980	27609	1057429	46435	108663	0	0	8197	551149	0	0
2024-09-19 18:51:47			0	38194	0	0	0	23496	22080	158916	27474	1057464	46458	108661	0	0	8196	551659	0	0
2024-09-19 18:52:47			0	38192	0	0	0	23498	22080	158920	27464	1057464	46436	108662	0	0	8196	551738	0	0
2024-09-19 18:53:47			0	38190	0	0	0	23496	22080	159004	26993	1057437	46436	108661	0	0	8196	551817	0	0
2024-09-19 18:54:47			0	38177	0	0	0	23503	22090	158984	27246	1057526	46436	108664	0	0	8195	552297	0	0
2024-09-19 18:55:47			0	38182	0	0	0	23490	22090	159044	27371	1057482	46447	108659	0	0	8195	552100	0	0
2024-09-19 18:56:47			0	38178	0	0	0	23496	22080	158968	27473	1057429	46446	108661	0	0	8195	552288	0	0
2024-09-19 18:57:47			0	38173	0	0	0	23498	22080	158948	27039	1057464	46447	108662	0	0	8195	552484	0	0
2024-09-19 18:58:47			0	38166	0	0	0	23490	22080	158924	27112	1057437	46436	108659	0	0	8194	552760	0	0
2024-09-19 18:59:47			0	38171	0	0	0	23496	22070	159056	27102	1057499	46434	108661	0	0	8194	552594	0	0
2024-09-19 19:00:47			0	38177	0	0	0	23501	22070	158972	27388	1057446	46434	108663	0	0	8195	552358	0	0
2024-09-19 19:01:47			0	38170	0	0	0	23493	22080	158988	27575	1057437	46447	108660	0	0	8195	552602	0	0
2024-09-19 19:02:47			0	38157	0	0	0	23503	22080	159064	27192	1057491	46447	108664	0	0	8194	553113	0	0
2024-09-19 19:03:47			0	38160	0	0	0	23496	22080	159128	27326	1057491	46447	108661	0	0	8194	552996	0	0
2024-09-19 19:04:47			0	38151	0	0	0	23493	22080	159124	27284	1057402	46435	108660	0	0	8193	553350	0	0
2024-09-19 19:05:47			0	38146	0	0	0	23496	22080	159120	27524	1057429	46435	108661	0	0	8193	553546	0	0
2024-09-19 19:06:47			0	38165	0	0	0	23496	22080	159100	27639	1057464	46436	108661	0	0	8194	552799	0	0
2024-09-19 19:07:47			0	38160	0	0	0	23498	22080	158972	27474	1057455	46446	108662	0	0	8194	552996	0	0
2024-09-19 19:08:47			0	38177	0	0	0	23498	22080	158980	27498	1057482	46435	108662	0	0	8195	552327	0	0
2024-09-19 19:09:47			0	38179	0	0	0	23493	22080	158884	27246	1057437	46458	108660	0	0	8195	552249	0	0
2024-09-19 19:10:47			0	38184	0	0	0	23490	22080	159036	27407	1057455	46446	108659	0	0	8195	552052	0	0
2024-09-19 19:11:47			0	38174	0	0	0	23488	22080	158864	27575	1057464	46424	108658	0	0	8195	552445	0	0
2024-09-19 19:12:47			0	38182	0	0	0	23493	22090	158996	27346	1057473	46447	108660	0	0	8195	552100	0	0
2024-09-19 19:13:47			0	38178	0	0	0	23488	22080	158944	27246	1057429	46446	108658	0	0	8195	552288	0	0
2024-09-19 19:14:47			0	38174	0	0	0	23488	22070	158880	27294	1057446	46434	108658	0	0	8195	552476	0	0
2024-09-19 19:15:47			0	38161	0	0	0	23490	22080	158940	27476	1057429	46435	108659	0	0	8194	552956	0	0
2024-09-19 19:16:47			0	38170	0	0	0	23483	22070	158920	27606	1057393	46445	108656	0	0	8195	552633	0	0
2024-09-19 19:17:47			0	38166	0	0	0	23485	22080	158984	27345	1057544	46447	108657	0	0	8194	552760	0	0
2024-09-19 19:18:47			0	38169	0	0	0	23488	22080	158972	27227	1057429	46435	108658	0	0	8195	552642	0	0
2024-09-19 19:19:47			0	38170	0	0	0	23485	22070	159108	27402	1057446	46434	108657	0	0	8195	552633	0	0
2024-09-19 19:20:47			0	38169	0	0	0	23488	22080	159072	27367	1057375	46446	108658	0	0	8195	552642	0	0
2024-09-19 19:21:47			0	38166	0	0	0	23483	22070	159064	27282	1057410	46422	108656	0	0	8194	552790	0	0
2024-09-19 19:22:47			0	38157	0	0	0	23485	22070	159104	27242	1057410	46445	108657	0	0	8194	553144	0	0
2024-09-19 19:23:47			0	38148	0	0	0	23488	22070	159168	27171	1057419	46445	108658	0	0	8193	553499	0	0
2024-09-19 19:24:47			0	38161	0	0	0	23480	22080	159228	27338	1057429	46435	108655	0	0	8194	552956	0	0
2024-09-19 19:25:47			0	38169	0	0	0	23477	22070	159240	27067	1057384	46422	108654	0	0	8195	552673	0	0
2024-09-19 19:26:47			0	38165	0	0	0	23488	22070	159132	27253	1057384	46434	108658	0	0	8194	552830	0	0
2024-09-19 19:27:47			0	38166	0	0	0	23480	22070	159136	27524	1057393	46434	108655	0	0	8194	552790	0	0
2024-09-19 19:28:47			0	38155	0	0	0	23477	22070	159164	27524	1057366	46445	108654	0	0	8194	553223	0	0
2024-09-19 19:29:47			0	38159	0	0	0	23477	22070	159160	27659	1057384	46434	108654	0	0	8194	553066	0	0
2024-09-19 19:30:47			0	38164	0	0	0	23480	22070	159132	27672	1057366	46434	108655	0	0	8194	552869	0	0
2024-09-19 19:31:47			0	38165	0	0	0	23483	22070	159156	27268	1057410	46434	108656	0	0	8194	552830	0	0
2024-09-19 19:32:47			0	38139	0	0	0	23483	22060	159192	27384	1057375	46445	108656	0	0	8193	553884	0	0
2024-09-19 19:33:47			0	38154	0	0	0	23483	22070	159208	27462	1057419	46456	108656	0	0	8194	553262	0	0
2024-09-19 19:34:47			0	38148	0	0	0	23483	22070	159216	27365	1057419	46434	108656	0	0	8193	553499	0	0
2024-09-19 19:35:47			0	38162	0	0	0	23488	22070	159320	27336	1057437	46434	108658	0	0	8194	552948	0	0
2024-09-19 19:36:47			0	38154	0	0	0	23480	22080	159352	27171	1057322	46423	108655	0	0	8194	553232	0	0
2024-09-19 19:37:47			0	38145	0	0	0	23483	22070	159296	27189	1057384	46445	108656	0	0	8193	553617	0	0
2024-09-19 19:38:47			0	38140	0	0	0	23485	22070	159392	27045	1057410	46434	108657	0	0	8193	553813	0	0
2024-09-19 19:39:47			0	38142	0	0	0	23477	22060	159224	27291	1057375	46434	108654	0	0	8193	553766	0	0
2024-09-19 19:40:47			0	38133	0	0	0	23480	22070	159324	27114	1057384	46434	108655	0	0	8193	554089	0	0
2024-09-19 19:41:47			0	38143	0	0	0	23477	22070	159296	27123	1057366	46445	108654	0	0	8193	553695	0	0
2024-09-19 19:42:47			0	38135	0	0	0	23477	22070	159288	27144	1057357	46445	108654	0	0	8193	554010	0	0
2024-09-19 19:43:47			0	38135	0	0	0	23477	22060	159428	27239	1057401	46434	108654	0	0	8193	554041	0	0
2024-09-19 19:44:47			0	38147	0	0	0	23488	22070	159420	27234	1057357	46434	108658	0	0	8193	553538	0	0
2024-09-19 19:45:47			0	38136	0	0	0	23475	22060	159360	27201	1057348	46434	108653	0	0	8193	554002	0	0
2024-09-19 19:46:47			0	38118	0	0	0	23475	22070	159276	27443	1057357	46445	108653	0	0	8192	554680	0	0
2024-09-19 19:47:47			0	38140	0	0	0	23475	22060	159408	27118	1057401	46434	108653	0	0	8193	553844	0	0
2024-09-19 19:48:47			0	38116	0	0	0	23477	22070	159320	27197	1057437	46434	108654	0	0	8192	554759	0	0
2024-09-19 19:49:47			0	38103	0	0	0	23470	22060	159400	27241	1057339	46433	108651	0	0	8191	555302	0	0
2024-09-19 19:50:47			0	38108	0	0	0	23475	22050	159468	27274	1057383	46443	108653	0	0	8191	555136	0	0
2024-09-19 19:51:47			0	38120	0	0	0	23472	22070	159360	26982	1057384	46412	108652	0	0	8192	554601	0	0
2024-09-19 19:52:47			0	38122	0	0	0	23477	22070	159420	27027	1057393	46445	108654	0	0	8192	554522	0	0
2024-09-19 19:53:47			0	38112	0	0	0	23477	22070	159364	27428	1057410	46422	108654	0	0	8191	554916	0	0
2024-09-19 19:54:47			0	38127	0	0	0	23477	22060	159420	27338	1057348	46434	108654	0	0	8192	554356	0	0
2024-09-19 19:55:47			0	38116	0	0	0	23472	22060	159452	27306	1057375	46434	108652	0	0	8192	554790	0	0
2024-09-19 19:56:47			0	38130	0	0	0	23472	22060	159352	27364	1057392	46433	108652	0	0	8192	554238	0	0
2024-09-19 19:57:47			0	38124	0	0	0	23475	22060	159336	27235	1057312	46421	108653	0	0	8192	554474	0	0
2024-09-19 19:58:47			0	38113	0	0	0	23467	22060	159376	27372	1057312	46444	108650	0	0	8192	554908	0	0
2024-09-19 19:59:47			0	38115	0	0	0	23475	22060	159364	27090	1057348	46445	108653	0	0	8192	554829	0	0
2024-09-19 20:00:47			0	38117	0	0	0	23472	22060	159344	27857	1057366	46421	108652	0	0	8192	554750	0	0
2024-09-19 20:01:47			0	38120	0	0	0	23485	22060	159304	27732	1057339	46433	108657	0	0	8192	554632	0	0
2024-09-19 20:02:47			0	38125	0	0	0	23462	22070	159272	27621	1057393	46434	108648	0	0	8192	554404	0	0
2024-09-19 20:03:47			0	38105	0	0	0	23472	22060	159356	27263	1057375	46434	108652	0	0	8191	555223	0	0
2024-09-19 20:04:47			0	38119	0	0	0	23467	22060	159408	27164	1057312	46421	108650	0	0	8192	554671	0	0
2024-09-19 20:05:47			0	38098	0	0	0	23464	22050	159392	27305	1057356	46443	108649	0	0	8191	555530	0	0
2024-09-19 20:06:47			0	38089	0	0	0	23475	22050	159500	27336	1057383	46432	108653	0	0	8190	555885	0	0
2024-09-19 20:07:47			0	38078	0	0	0	23462	22060	159476	27338	1057348	46445	108648	0	0	8190	556288	0	0
2024-09-19 20:08:47			0	38054	0	0	0	23462	22060	159616	27150	1057419	46444	108648	0	0	8188	557236	0	0
2024-09-19 20:09:47			0	38040	0	0	0	23472	22050	159576	27173	1057303	46443	108652	0	0	8187	557821	0	0
2024-09-19 20:10:47			0	38027	0	0	0	23464	22070	159692	27478	1057357	46445	108649	0	0	8187	558273	0	0
2024-09-19 20:11:47			0	38021	0	0	0	23467	22050	159755	27222	1057348	46442	108650	0	0	8186	558573	0	0
2024-09-19 20:12:47			0	38016	0	0	0	23467	22060	159851	27369	1057339	46421	108650	0	0	8186	558739	0	0
2024-09-19 20:13:47			0	37995	0	0	0	23454	22050	159795	27348	1057374	46431	108645	0	0	8185	559602	0	0
2024-09-19 20:14:47			0	37998	0	0	0	23467	22050	159911	27533	1057294	46431	108650	0	0	8185	559483	0	0
2024-09-19 20:15:47			0	37977	0	0	0	23449	22060	159871	27052	1057366	46433	108643	0	0	8184	560284	0	0
2024-09-19 20:16:47			0	37985	0	0	0	23457	22050	159963	27234	1057294	46431	108646	0	0	8184	559998	0	0
2024-09-19 20:17:47			0	37973	0	0	0	23449	22060	159871	27083	1057366	46433	108643	0	0	8184	560443	0	0
2024-09-19 20:18:47			0	37980	0	0	0	23464	22050	159919	27154	1057321	46442	108649	0	0	8184	560197	0	0
2024-09-19 20:19:47			0	37963	0	0	0	23459	22040	159967	27253	1057285	46431	108647	0	0	8183	560902	0	0
2024-09-19 20:20:47			0	37983	0	0	0	23451	22050	160015	27171	1057303	46443	108644	0	0	8184	560078	0	0
2024-09-19 20:21:47			0	37963	0	0	0	23454	22050	159931	27497	1057348	46431	108645	0	0	8183	560871	0	0
2024-09-19 20:22:47			0	37963	0	0	0	23451	22060	160007	27074	1057312	46433	108644	0	0	8183	560840	0	0
2024-09-19 20:23:47			0	37959	0	0	0	23444	22040	160011	27338	1057339	46419	108641	0	0	8183	561061	0	0
2024-09-19 20:24:47			0	37959	0	0	0	23441	22040	160031	27313	1057259	46431	108640	0	0	8183	561061	0	0
2024-09-19 20:25:47			0	37949	0	0	0	23428	22040	159939	27118	1057312	46431	108635	0	0	8182	561458	0	0
2024-09-19 20:26:47			0	37940	0	0	0	23436	22050	160055	27209	1057294	46431	108638	0	0	8182	561784	0	0
2024-09-19 20:27:47			0	37934	0	0	0	23446	22050	160131	27431	1057268	46442	108642	0	0	8181	562023	0	0
2024-09-19 20:28:47			0	37940	0	0	0	23446	22040	160135	27272	1057285	46419	108642	0	0	8182	561816	0	0
2024-09-19 20:29:47			0	37954	0	0	0	23446	22040	159967	27322	1057259	46431	108642	0	0	8182	561260	0	0
2024-09-19 20:30:47			0	37960	0	0	0	23446	22040	160023	27222	1057205	46442	108642	0	0	8183	561021	0	0
2024-09-19 20:31:47			0	37959	0	0	0	23444	22030	160031	27166	1057214	46430	108641	0	0	8183	561092	0	0
2024-09-19 20:32:47			0	37944	0	0	0	23431	22030	160087	27100	1057187	46430	108636	0	0	8182	561688	0	0
2024-09-19 20:33:47			0	37937	0	0	0	23431	22050	160023	27020	1057268	46409	108636	0	0	8182	561903	0	0
2024-09-19 20:34:47			0	37909	0	0	0	23436	22030	160087	27092	1057214	46441	108638	0	0	8180	563079	0	0
2024-09-19 20:35:47			0	37915	0	0	0	23431	22030	160187	27263	1057214	46430	108636	0	0	8180	562840	0	0
2024-09-19 20:36:47			0	37908	0	0	0	23428	22030	160175	27296	1057258	46429	108635	0	0	8180	563119	0	0
2024-09-19 20:37:47			0	37911	0	0	0	23436	22040	160179	27081	1057276	46431	108638	0	0	8180	562968	0	0
2024-09-19 20:38:47			0	37913	0	0	0	23438	22030	160103	27249	1057258	46440	108639	0	0	8180	562920	0	0
2024-09-19 20:39:47			0	37926	0	0	0	23433	22040	160119	27192	1057170	46419	108637	0	0	8181	562372	0	0
2024-09-19 20:40:47			0	37928	0	0	0	23436	22030	160039	27220	1057241	46430	108638	0	0	8181	562324	0	0
2024-09-19 20:41:47			0	37934	0	0	0	23436	22030	159999	27284	1057214	46441	108638	0	0	8181	562085	0	0
2024-09-19 20:42:47			0	37954	0	0	0	23433	22020	159915	27050	1057196	46451	108637	0	0	8183	561322	0	0
2024-09-19 20:43:47			0	37941	0	0	0	23436	22030	159799	27256	1057187	46430	108638	0	0	8182	561807	0	0
2024-09-19 20:44:47			0	37948	0	0	0	23436	22030	159887	27248	1057258	46429	108638	0	0	8182	561529	0	0
2024-09-19 20:45:47			0	37960	0	0	0	23436	22030	159871	27100	1057258	46429	108638	0	0	8183	561053	0	0
2024-09-19 20:46:47			0	37951	0	0	0	23444	22020	159919	26944	1057169	46429	108641	0	0	8182	561441	0	0
2024-09-19 20:47:47			0	37961	0	0	0	23449	22030	159959	27156	1057205	46440	108643	0	0	8183	561013	0	0
2024-09-19 20:48:47			0	37936	0	0	0	23441	22030	159883	27157	1057232	46429	108640	0	0	8181	562006	0	0
2024-09-19 20:49:47			0	37941	0	0	0	23449	22040	159847	27265	1057223	46442	108643	0	0	8182	561776	0	0
2024-09-19 20:50:47			0	37925	0	0	0	23446	22020	160075	27196	1057196	46429	108642	0	0	8181	562474	0	0
2024-09-19 20:51:47			0	37930	0	0	0	23438	22020	159851	27303	1057169	46429	108639	0	0	8181	562276	0	0
2024-09-19 20:52:47			0	37928	0	0	0	23436	22030	159971	27530	1057285	46440	108638	0	0	8181	562324	0	0
2024-09-19 20:53:47			0	37935	0	0	0	23438	22030	160007	27267	1057232	46440	108639	0	0	8181	562045	0	0
2024-09-19 20:54:47			0	37913	0	0	0	23431	22020	160019	27435	1057223	46417	108636	0	0	8180	562952	0	0
2024-09-19 20:55:47			0	37914	0	0	0	23431	22020	160043	27320	1057214	46440	108636	0	0	8180	562912	0	0
2024-09-19 20:56:47			0	37904	0	0	0	23428	22030	160119	27263	1057232	46429	108635	0	0	8180	563278	0	0
2024-09-19 20:57:47			0	37895	0	0	0	23438	22030	160023	27362	1057152	46429	108639	0	0	8179	563636	0	0
2024-09-19 20:58:47			0	37895	0	0	0	23444	22020	160259	27417	1057214	46417	108641	0	0	8179	563668	0	0
2024-09-19 20:59:47			0	37890	0	0	0	23438	22020	160171	27448	1057223	46440	108639	0	0	8179	563867	0	0
2024-09-19 21:00:47			0	37885	0	0	0	23436	22020	160279	27381	1057249	46429	108638	0	0	8179	564066	0	0
2024-09-19 21:01:47			0	37885	0	0	0	23436	22020	160279	27450	1057187	46440	108638	0	0	8179	564066	0	0
2024-09-19 21:02:47			0	37899	0	0	0	23433	22030	160255	27556	1057258	46440	108637	0	0	8179	563477	0	0
2024-09-19 21:03:47			0	37878	0	0	0	23433	22020	160263	27557	1057169	46429	108637	0	0	8178	564345	0	0
2024-09-19 21:04:47			0	37877	0	0	0	23436	22020	160231	27414	1057214	46440	108638	0	0	8178	564385	0	0
2024-09-19 21:05:47			0	37872	0	0	0	23441	22010	160275	27294	1057178	46428	108640	0	0	8178	564615	0	0
2024-09-19 21:06:47			0	37866	0	0	0	23438	22030	160235	27220	1057214	46441	108639	0	0	8177	564791	0	0
2024-09-19 21:07:47			0	37865	0	0	0	23436	22020	160227	27305	1057169	46429	108638	0	0	8177	564863	0	0
2024-09-19 21:08:47			0	37864	0	0	0	23425	22020	160279	27332	1057187	46440	108634	0	0	8177	564903	0	0
2024-09-19 21:09:47			0	37857	0	0	0	23428	22020	160295	26948	1057169	46429	108635	0	0	8177	565182	0	0
2024-09-19 21:10:47			0	37851	0	0	0	23425	22010	160307	27547	1057116	46427	108634	0	0	8177	565453	0	0
2024-09-19 21:11:47			0	37853	0	0	0	23431	22020	160399	27227	1057134	46429	108636	0	0	8177	565341	0	0
2024-09-19 21:12:47			0	37850	0	0	0	23418	22020	160339	27085	1057169	46417	108631	0	0	8177	565461	0	0
2024-09-19 21:13:47			0	37850	0	0	0	23418	22020	160367	27336	1057134	46429	108631	0	0	8177	565461	0	0
2024-09-19 21:14:47			0	37826	0	0	0	23423	22020	160415	27215	1057187	46440	108633	0	0	8175	566419	0	0
2024-09-19 21:15:47			0	37840	0	0	0	23420	22010	160487	27563	1057125	46416	108632	0	0	8176	565891	0	0
2024-09-19 21:16:47			0	37816	0	0	0	23412	22020	160459	27419	1057143	46429	108629	0	0	8175	566818	0	0
2024-09-19 21:17:47			0	37822	0	0	0	23415	22010	160367	27445	1057178	46416	108630	0	0	8175	566610	0	0
2024-09-19 21:18:47			0	37819	0	0	0	23412	22010	160563	27339	1057125	46416	108629	0	0	8175	566730	0	0
2024-09-19 21:19:47			0	37800	0	0	0	23415	22010	160439	27079	1057089	46427	108630	0	0	8174	567489	0	0
2024-09-19 21:20:47			0	37808	0	0	0	23420	22000	160583	27092	1057107	46416	108632	0	0	8174	567201	0	0
2024-09-19 21:21:47			0	37812	0	0	0	23418	22010	160423	27281	1057125	46439	108631	0	0	8174	567010	0	0
2024-09-19 21:22:47			0	37820	0	0	0	23415	22010	160499	27559	1057089	46438	108630	0	0	8175	566690	0	0
2024-09-19 21:23:47			0	37787	0	0	0	23407	22010	160519	27535	1057098	46416	108627	0	0	8173	568009	0	0
2024-09-19 21:24:47			0	37799	0	0	0	23412	22010	160527	27161	1057116	46427	108629	0	0	8174	567529	0	0
2024-09-19 21:25:47			0	37818	0	0	0	23405	22010	160567	26923	1057125	46428	108626	0	0	8175	566770	0	0
2024-09-19 21:26:47			0	37790	0	0	0	23412	22020	160563	26975	1057134	46417	108629	0	0	8173	567857	0	0
2024-09-19 21:27:47			0	37797	0	0	0	23415	22010	160539	27492	1057089	46416	108630	0	0	8174	567609	0	0
2024-09-19 21:28:47			0	37784	0	0	0	23407	22000	160615	27239	1057054	46427	108627	0	0	8173	568161	0	0
2024-09-19 21:29:47			0	37781	0	0	0	23402	21990	160575	27474	1057071	46427	108625	0	0	8173	568313	0	0
2024-09-19 21:30:47			0	37785	0	0	0	23410	22010	160611	27306	1057045	46450	108628	0	0	8173	568089	0	0
2024-09-19 21:31:47			0	37754	0	0	0	23399	22000	160579	27131	1057080	46427	108624	0	0	8171	569362	0	0
2024-09-19 21:32:47			0	37751	0	0	0	23418	22010	160663	27417	1057063	46427	108631	0	0	8171	569451	0	0
2024-09-19 21:33:47			0	37769	0	0	0	23402	21990	160539	27409	1057071	46427	108625	0	0	8172	568793	0	0
2024-09-19 21:34:47			0	37766	0	0	0	23410	22000	160603	27008	1057027	46416	108628	0	0	8172	568882	0	0
2024-09-19 21:35:47			0	37766	0	0	0	23405	22000	160611	27111	1057080	46427	108626	0	0	8172	568882	0	0
2024-09-19 21:36:47			0	37774	0	0	0	23405	21990	160723	27175	1057045	46416	108626	0	0	8172	568593	0	0
2024-09-19 21:37:47			0	37774	0	0	0	23394	22010	160795	27431	1057036	46427	108622	0	0	8173	568530	0	0
2024-09-19 21:38:47			0	37767	0	0	0	23399	21990	160783	27253	1057009	46426	108624	0	0	8172	568873	0	0
2024-09-19 21:39:47			0	37770	0	0	0	23397	22000	160663	27282	1057107	46427	108623	0	0	8172	568721	0	0
2024-09-19 21:40:47			0	37764	0	0	0	23407	21990	160759	27552	1057018	46438	108627	0	0	8172	568993	0	0
2024-09-19 21:41:47			0	37751	0	0	0	23405	21990	160775	27395	1057063	46426	108626	0	0	8171	569514	0	0
2024-09-19 21:42:47			0	37766	0	0	0	23397	21990	160751	27386	1057009	46426	108623	0	0	8172	568913	0	0
2024-09-19 21:43:47			0	37775	0	0	0	23405	21980	160703	27362	1056974	46436	108626	0	0	8172	568584	0	0
2024-09-19 21:44:47			0	37790	0	0	0	23407	21990	160639	27229	1057045	46427	108627	0	0	8173	567952	0	0
2024-09-19 21:45:47			0	37787	0	0	0	23397	21990	160631	27403	1056991	46416	108623	0	0	8173	568073	0	0
2024-09-19 21:46:47			0	37794	0	0	0	23394	21990	160559	27194	1057098	46438	108622	0	0	8174	567793	0	0
2024-09-19 21:47:47			0	37796	0	0	0	23402	21980	160627	27324	1057027	46425	108625	0	0	8174	567744	0	0
2024-09-19 21:48:47			0	37838	0	0	0	23405	21990	160567	27452	1057045	46449	108626	0	0	8176	566034	0	0
2024-09-19 21:49:47			0	37837	0	0	0	23397	21990	160499	27322	1057009	46415	108623	0	0	8176	566074	0	0
2024-09-19 21:50:47			0	37868	0	0	0	23410	21990	160443	27300	1056929	46426	108628	0	0	8178	564838	0	0
2024-09-19 21:51:47			0	37875	0	0	0	23405	21980	160463	27358	1057000	46414	108626	0	0	8178	564590	0	0
2024-09-19 21:52:47			0	37863	0	0	0	23402	21980	160379	27057	1057054	46425	108625	0	0	8178	565069	0	0
2024-09-19 21:53:47			0	37857	0	0	0	23399	21980	160435	27199	1057018	46424	108624	0	0	8177	565308	0	0
2024-09-19 21:54:47			0	37834	0	0	0	23402	21980	160491	27284	1056974	46425	108625	0	0	8176	566226	0	0
2024-09-19 21:55:47			0	37853	0	0	0	23402	22000	160411	27083	1057080	46416	108625	0	0	8177	565404	0	0
2024-09-19 21:56:47			0	37858	0	0	0	23402	21980	160323	27182	1057027	46425	108625	0	0	8177	565268	0	0
2024-09-19 21:57:47			0	37872	0	0	0	23399	21990	160323	27261	1057063	46437	108624	0	0	8178	564678	0	0
2024-09-19 21:58:47			0	37869	0	0	0	23399	21980	160279	27228	1057000	46425	108624	0	0	8178	564829	0	0
2024-09-19 21:59:47			0	37865	0	0	0	23394	21990	160291	26901	1057089	46426	108622	0	0	8178	564957	0	0
2024-09-19 22:00:47			0	37854	0	0	0	23399	21990	160231	27168	1057071	46427	108624	0	0	8177	565396	0	0
2024-09-19 22:01:47			0	37883	0	0	0	23407	21990	160327	27261	1056982	46437	108627	0	0	8179	564240	0	0
2024-09-19 22:02:47			0	37876	0	0	0	23402	21980	160367	27409	1056965	46446	108625	0	0	8178	564550	0	0
2024-09-19 22:03:47			0	37877	0	0	0	23402	21990	160339	27144	1057009	46448	108625	0	0	8178	564479	0	0
2024-09-19 22:04:47			0	37894	0	0	0	23407	21990	160359	27102	1057098	46427	108627	0	0	8179	563802	0	0
2024-09-19 22:05:47			0	37865	0	0	0	23407	21980	160331	27258	1057018	46435	108627	0	0	8178	564989	0	0
2024-09-19 22:06:47			0	37875	0	0	0	23405	21990	160235	27244	1057063	46426	108626	0	0	8178	564559	0	0
2024-09-19 22:07:47			0	37892	0	0	0	23397	21990	160391	27436	1057036	46426	108623	0	0	8179	563882	0	0
2024-09-19 22:08:47			0	37886	0	0	0	23407	21990	160343	27637	1057009	46426	108627	0	0	8179	564120	0	0
2024-09-19 22:09:47			0	37899	0	0	0	23394	21990	160335	27358	1057063	46426	108622	0	0	8180	563603	0	0
2024-09-19 22:10:47			0	37901	0	0	0	23402	21990	160251	27156	1057009	46437	108625	0	0	8180	563523	0	0
2024-09-19 22:11:47			0	37911	0	0	0	23397	21990	160227	27213	1057036	46426	108623	0	0	8181	563125	0	0
2024-09-19 22:12:47			0	37920	0	0	0	23402	21990	160287	27353	1057063	46437	108625	0	0	8181	562767	0	0
2024-09-19 22:13:47			0	37877	0	0	0	23402	21980	160247	27350	1057027	46414	108625	0	0	8178	564511	0	0
2024-09-19 22:14:47			0	37898	0	0	0	23405	21990	160303	27189	1057036	46415	108626	0	0	8180	563643	0	0
2024-09-19 22:15:47			0	37891	0	0	0	23399	21980	160299	27206	1057027	46414	108624	0	0	8179	563953	0	0
2024-09-19 22:16:47			0	37898	0	0	0	23405	21980	160307	27493	1057027	46425	108626	0	0	8180	563674	0	0
2024-09-19 22:17:47			0	37888	0	0	0	23410	21980	160211	27166	1057045	46435	108628	0	0	8179	564072	0	0
2024-09-19 22:18:47			0	37898	0	0	0	23405	21980	160235	27343	1057027	46425	108626	0	0	8180	563674	0	0
2024-09-19 22:19:47			0	37911	0	0	0	23394	21990	160215	27334	1057018	46427	108622	0	0	8181	563125	0	0
2024-09-19 22:20:47			0	37919	0	0	0	23405	21990	160291	27351	1056982	46426	108626	0	0	8181	562807	0	0
2024-09-19 22:21:47			0	37919	0	0	0	23397	21990	160231	27272	1057009	46415	108623	0	0	8181	562807	0	0
2024-09-19 22:22:47			0	37913	0	0	0	23405	21990	160279	27398	1057036	46415	108626	0	0	8181	563046	0	0
2024-09-19 22:23:47			0	37907	0	0	0	23399	21980	160287	27369	1056947	46425	108624	0	0	8180	563316	0	0
2024-09-19 22:24:47			0	37909	0	0	0	23397	21990	160327	27341	1057036	46437	108623	0	0	8180	563205	0	0
2024-09-19 22:25:47			0	37895	0	0	0	23399	21980	160179	27346	1057018	46424	108624	0	0	8180	563793	0	0
2024-09-19 22:26:47			0	37893	0	0	0	23399	21990	160275	27251	1057036	46437	108624	0	0	8179	563842	0	0
2024-09-19 22:27:47			0	37887	0	0	0	23386	21980	160267	27497	1057080	46414	108619	0	0	8179	564112	0	0
2024-09-19 22:28:47			0	37873	0	0	0	23394	21980	160239	27228	1057080	46436	108622	0	0	8178	564670	0	0
2024-09-19 22:29:47			0	37882	0	0	0	23394	21990	160291	27632	1056982	46437	108622	0	0	8179	564280	0	0
2024-09-19 22:30:47			0	37846	0	0	0	23397	21990	160387	27365	1057071	46427	108623	0	0	8177	565715	0	0
2024-09-19 22:31:47			0	37824	0	0	0	23399	21980	160503	27640	1057000	46436	108624	0	0	8175	566625	0	0
2024-09-19 22:32:47			0	37811	0	0	0	23405	21980	160475	27168	1057054	46436	108626	0	0	8175	567144	0	0
2024-09-19 22:33:47			0	37829	0	0	0	23397	21990	160455	27381	1057018	46416	108623	0	0	8176	566394	0	0
2024-09-19 22:34:47			0	37798	0	0	0	23397	21990	160639	27453	1057063	46437	108623	0	0	8174	567633	0	0
2024-09-19 22:35:47			0	37795	0	0	0	23397	21980	160727	27547	1057045	46435	108623	0	0	8174	567784	0	0
2024-09-19 22:36:47			0	37782	0	0	0	23392	21980	160715	27178	1056974	46436	108621	0	0	8173	568304	0	0
2024-09-19 22:37:47			0	37774	0	0	0	23392	21980	160811	27440	1057000	46414	108621	0	0	8173	568625	0	0
2024-09-19 22:38:47			0	37785	0	0	0	23389	21990	160755	27253	1057036	46437	108620	0	0	8173	568153	0	0
2024-09-19 22:39:47			0	37796	0	0	0	23392	21980	160711	27204	1057134	46436	108621	0	0	8174	567744	0	0
2024-09-19 22:40:47			0	37826	0	0	0	23397	21980	160699	27275	1056974	46414	108623	0	0	8176	566545	0	0
2024-09-19 22:41:47			0	37828	0	0	0	23402	21990	160607	27403	1057009	46415	108625	0	0	8176	566434	0	0
2024-09-19 22:42:47			0	37826	0	0	0	23397	21980	160491	27485	1057000	46436	108623	0	0	8176	566545	0	0
2024-09-19 22:43:47			0	37827	0	0	0	23392	21990	160599	27343	1057071	46438	108621	0	0	8176	566474	0	0
2024-09-19 22:44:47			0	37824	0	0	0	23399	21980	160607	27478	1056991	46435	108624	0	0	8175	566625	0	0
2024-09-19 22:45:47			0	37847	0	0	0	23397	21980	160555	27575	1057045	46424	108623	0	0	8177	565707	0	0
2024-09-19 22:46:47			0	37844	0	0	0	23394	21980	160567	27258	1056991	46424	108622	0	0	8177	565826	0	0
2024-09-19 22:47:47			0	37832	0	0	0	23399	21980	160503	27095	1056965	46435	108624	0	0	8176	566306	0	0
2024-09-19 22:48:47			0	37825	0	0	0	23399	21990	160551	27246	1057036	46415	108624	0	0	8175	566553	0	0
2024-09-19 22:49:47			0	37826	0	0	0	23389	21980	160507	27133	1057027	46436	108620	0	0	8176	566545	0	0
2024-09-19 22:50:47			0	37830	0	0	0	23405	21990	160563	26961	1056991	46438	108626	0	0	8176	566354	0	0
2024-09-19 22:51:47			0	37847	0	0	0	23397	21970	160575	27367	1057009	46424	108623	0	0	8177	565738	0	0
2024-09-19 22:52:47			0	37825	0	0	0	23397	21980	160559	27128	1057018	46424	108623	0	0	8175	566585	0	0
2024-09-19 22:53:47			0	37828	0	0	0	23399	21980	160587	27104	1057018	46424	108624	0	0	8176	566465	0	0
2024-09-19 22:54:47			0	37824	0	0	0	23392	21980	160687	27301	1057018	46446	108621	0	0	8175	566625	0	0
2024-09-19 22:55:47			0	37802	0	0	0	23402	21970	160619	27435	1057009	46413	108625	0	0	8174	567536	0	0
2024-09-19 22:56:47			0	37798	0	0	0	23394	21980	160683	27298	1057027	46425	108622	0	0	8174	567664	0	0
2024-09-19 22:57:47			0	37812	0	0	0	23399	21980	160683	26753	1056938	46413	108624	0	0	8175	567104	0	0
2024-09-19 22:58:47			0	37804	0	0	0	23397	21980	160735	27237	1057054	46414	108623	0	0	8174	567424	0	0
2024-09-19 22:59:47			0	37813	0	0	0	23386	21980	160815	27234	1057000	46425	108619	0	0	8175	567065	0	0
2024-09-19 23:00:47			0	37794	0	0	0	23386	21980	160731	27213	1056974	46414	108619	0	0	8174	567824	0	0
2024-09-19 23:01:47			0	37786	0	0	0	23389	21970	160731	27131	1057036	46413	108620	0	0	8173	568176	0	0
2024-09-19 23:02:47			0	37777	0	0	0	23376	21980	160879	27059	1056965	46424	108615	0	0	8173	568504	0	0
2024-09-19 23:03:47			0	37770	0	0	0	23384	21970	160947	27041	1056956	46413	108618	0	0	8172	568816	0	0
2024-09-19 23:04:47			0	37749	0	0	0	23379	21970	160847	27223	1056982	46424	108616	0	0	8171	569658	0	0
2024-09-19 23:05:47			0	37755	0	0	0	23389	21980	160931	27438	1057018	46424	108620	0	0	8171	569385	0	0
2024-09-19 23:06:47			0	37749	0	0	0	23384	21960	160979	27324	1056938	46434	108618	0	0	8171	569689	0	0
2024-09-19 23:07:47			0	37754	0	0	0	23379	21970	160935	27298	1056956	46424	108616	0	0	8172	569457	0	0
2024-09-19 23:08:47			0	37755	0	0	0	23392	21970	160951	27395	1056956	46424	108621	0	0	8171	569417	0	0
2024-09-19 23:09:47			0	37759	0	0	0	23381	21960	160991	26949	1056991	46423	108617	0	0	8172	569289	0	0
2024-09-19 23:10:47			0	37760	0	0	0	23379	21970	160947	27062	1056947	46424	108616	0	0	8172	569217	0	0
2024-09-19 23:11:47			0	37743	0	0	0	23368	21980	160891	27390	1056974	46425	108612	0	0	8171	569867	0	0
2024-09-19 23:12:47			0	37750	0	0	0	23366	21970	160919	27242	1056956	46435	108611	0	0	8172	569618	0	0
2024-09-19 23:13:47			0	37736	0	0	0	23376	21980	161015	26901	1056965	46424	108615	0	0	8171	570147	0	0
2024-09-19 23:14:47			0	37734	0	0	0	23371	21970	161079	27445	1056867	46413	108613	0	0	8171	570259	0	0
2024-09-19 23:15:47			0	37749	0	0	0	23384	21970	161027	26981	1056929	46424	108618	0	0	8171	569658	0	0
2024-09-19 23:16:47			0	37720	0	0	0	23386	21970	161071	27064	1056929	46424	108619	0	0	8169	570821	0	0
2024-09-19 23:17:47			0	37729	0	0	0	23384	21970	161015	27272	1056973	46413	108618	0	0	8170	570460	0	0
2024-09-19 23:18:47			0	37743	0	0	0	23381	21970	161079	27112	1056929	46402	108617	0	0	8171	569898	0	0
2024-09-19 23:19:47			0	37725	0	0	0	23376	21980	161095	27388	1056991	46424	108615	0	0	8170	570589	0	0
2024-09-19 23:20:47			0	37714	0	0	0	23376	21970	161123	27561	1056956	46413	108615	0	0	8169	571062	0	0
2024-09-19 23:21:47			0	37731	0	0	0	23379	21960	160987	27298	1056964	46423	108616	0	0	8170	570411	0	0
2024-09-19 23:22:47			0	37711	0	0	0	23368	21960	161031	27319	1056938	46423	108612	0	0	8169	571214	0	0
2024-09-19 23:23:47			0	37703	0	0	0	23379	21970	161191	27253	1056947	46413	108616	0	0	8169	571503	0	0
2024-09-19 23:24:47			0	37704	0	0	0	23373	21970	161115	27317	1056982	46435	108614	0	0	8169	571463	0	0
2024-09-19 23:25:47			0	37694	0	0	0	23376	21960	161227	27128	1056956	46421	108615	0	0	8168	571897	0	0
2024-09-19 23:26:47			0	37709	0	0	0	23376	21960	161219	27493	1056884	46434	108615	0	0	8169	571294	0	0
2024-09-19 23:27:47			0	37682	0	0	0	23368	21970	161159	27689	1056893	46413	108612	0	0	8168	572347	0	0
2024-09-19 23:28:47			0	37695	0	0	0	23368	21970	161083	27355	1056956	46424	108612	0	0	8168	571825	0	0
2024-09-19 23:29:47			0	37677	0	0	0	23371	21960	161219	27261	1056911	46434	108613	0	0	8167	572580	0	0
2024-09-19 23:30:47			0	37673	0	0	0	23373	21960	161243	27255	1056938	46423	108614	0	0	8167	572741	0	0
2024-09-19 23:31:47			0	37694	0	0	0	23371	21950	161195	27516	1056867	46421	108613	0	0	8168	571929	0	0
2024-09-19 23:32:47			0	37670	0	0	0	23376	21960	161219	27308	1056929	46411	108615	0	0	8167	572862	0	0
2024-09-19 23:33:47			0	37686	0	0	0	23373	21950	161363	27303	1056911	46421	108614	0	0	8168	572250	0	0
2024-09-19 23:34:47			0	37686	0	0	0	23373	21960	161443	27606	1056911	46423	108614	0	0	8168	572218	0	0
2024-09-19 23:35:47			0	37657	0	0	0	23376	21950	161375	27505	1056893	46411	108615	0	0	8166	573417	0	0
2024-09-19 23:36:47			0	37653	0	0	0	23376	21950	161331	27152	1056840	46421	108615	0	0	8166	573578	0	0
2024-09-19 23:37:47			0	37670	0	0	0	23371	21960	161379	27338	1056964	46401	108613	0	0	8167	572862	0	0
2024-09-19 23:38:47			0	37652	0	0	0	23371	21960	161407	27474	1056876	46433	108613	0	0	8166	573586	0	0
2024-09-19 23:39:47			0	37655	0	0	0	23371	21950	161391	27190	1056947	46421	108613	0	0	8166	573498	0	0
2024-09-19 23:40:47			0	37662	0	0	0	23355	21960	161363	27530	1056911	46423	108607	0	0	8166	573184	0	0
2024-09-19 23:41:47			0	37643	0	0	0	23355	21960	161335	27440	1056902	46421	108607	0	0	8165	573949	0	0
2024-09-19 23:42:47			0	37636	0	0	0	23368	21970	161467	27154	1056973	46435	108612	0	0	8165	574199	0	0
2024-09-19 23:43:47			0	37639	0	0	0	23368	21960	161531	27287	1056876	46411	108612	0	0	8165	574110	0	0
2024-09-19 23:44:47			0	37638	0	0	0	23358	21950	161455	27118	1056867	46421	108608	0	0	8165	574182	0	0
2024-09-19 23:45:47			0	37628	0	0	0	23358	21960	161551	27237	1056849	46421	108608	0	0	8164	574553	0	0
2024-09-19 23:46:47			0	37608	0	0	0	23361	21950	161587	27268	1056813	46433	108609	0	0	8163	575391	0	0
2024-09-19 23:47:47			0	37606	0	0	0	23371	21960	161579	27424	1056849	46421	108613	0	0	8163	575440	0	0
2024-09-19 23:48:47			0	37607	0	0	0	23355	21950	161547	27220	1056884	46433	108607	0	0	8163	575432	0	0
2024-09-19 23:49:47			0	37607	0	0	0	23350	21960	161579	27415	1056884	46423	108605	0	0	8163	575400	0	0
2024-09-19 23:50:47			0	37612	0	0	0	23361	21950	161487	27562	1056867	46421	108609	0	0	8163	575230	0	0
2024-09-19 23:51:47			0	37613	0	0	0	23358	21960	161535	27661	1056876	46421	108608	0	0	8164	575158	0	0
2024-09-19 23:52:47			0	37608	0	0	0	23371	21950	161515	27216	1056893	46421	108613	0	0	8163	575391	0	0
2024-09-19 23:53:47			0	37610	0	0	0	23373	21950	161439	27512	1056893	46400	108614	0	0	8163	575311	0	0
2024-09-19 23:54:47			0	37615	0	0	0	23366	21960	161531	27462	1056929	46411	108611	0	0	8164	575077	0	0
2024-09-19 23:55:47			0	37610	0	0	0	23368	21950	161527	27104	1056947	46411	108612	0	0	8163	575311	0	0
2024-09-19 23:56:47			0	37616	0	0	0	23373	21950	161487	27339	1056893	46433	108614	0	0	8163	575069	0	0
2024-09-19 23:57:47			0	37615	0	0	0	23368	21950	161503	27329	1056867	46411	108612	0	0	8163	575109	0	0
2024-09-19 23:58:47			0	37616	0	0	0	23371	21960	161487	27514	1056902	46433	108613	0	0	8164	575037	0	0
2024-09-19 23:59:47			0	37620	0	0	0	23368	21950	161423	27649	1056867	46421	108612	0	0	8164	574908	0	0
2024-09-20 00:00:47			0	37602	0	0	0	23363	21950	161495	27554	1056947	46411	108610	0	0	8163	575634	0	0
2024-09-20 00:01:47			0	37600	0	0	0	23366	21950	161567	27459	1056920	46411	108611	0	0	8163	575714	0	0
2024-09-20 00:02:47			0	37584	0	0	0	23366	21960	161475	27524	1056956	46411	108611	0	0	8162	576328	0	0
2024-09-20 00:03:47			0	37600	0	0	0	23371	21950	161491	27514	1056867	46421	108613	0	0	8163	575714	0	0
2024-09-20 00:04:47			0	37608	0	0	0	23368	21950	161603	27682	1056884	46421	108612	0	0	8163	575391	0	0
2024-09-20 00:05:47			0	37602	0	0	0	23376	21960	161607	27466	1056876	46421	108615	0	0	8163	575601	0	0
2024-09-20 00:06:47			0	37597	0	0	0	23368	21950	161583	27419	1056893	46421	108612	0	0	8162	575835	0	0
2024-09-20 00:07:47			0	37575	0	0	0	23363	21960	161627	27479	1056876	46444	108610	0	0	8161	576692	0	0
2024-09-20 00:08:47			0	37593	0	0	0	23358	21950	161671	27713	1056937	46433	108608	0	0	8162	575997	0	0
2024-09-20 00:09:47			0	37572	0	0	0	23355	21960	161623	27175	1056929	46421	108607	0	0	8161	576813	0	0
2024-09-20 00:10:47			0	37571	0	0	0	23366	21960	161615	27362	1056902	46411	108611	0	0	8161	576853	0	0
2024-09-20 00:11:47			0	37564	0	0	0	23366	21950	161627	27530	1056947	46421	108611	0	0	8160	577168	0	0
2024-09-20 00:12:47			0	37574	0	0	0	23358	21950	161659	27175	1056884	46421	108608	0	0	8161	576764	0	0
2024-09-20 00:13:47			0	37577	0	0	0	23358	21950	161711	27435	1056867	46421	108608	0	0	8161	576643	0	0
2024-09-20 00:14:47			0	37594	0	0	0	23361	21950	161651	27303	1056937	46421	108609	0	0	8162	575956	0	0
2024-09-20 00:15:47			0	37602	0	0	0	23358	21950	161523	27196	1056893	46421	108608	0	0	8163	575634	0	0
2024-09-20 00:16:47			0	37597	0	0	0	23363	21950	161575	27479	1056857	46433	108610	0	0	8162	575835	0	0
2024-09-20 00:17:47			0	37596	0	0	0	23350	21950	161575	27417	1056893	46411	108605	0	0	8163	575876	0	0
2024-09-20 00:18:47			0	37587	0	0	0	23373	21950	161619	27500	1056884	46411	108614	0	0	8162	576239	0	0
2024-09-20 00:19:47			0	37591	0	0	0	23363	21940	161603	27298	1056902	46399	108610	0	0	8162	576110	0	0
2024-09-20 00:20:47			0	37598	0	0	0	23371	21940	161559	27473	1056875	46410	108613	0	0	8162	575827	0	0
2024-09-20 00:21:47			0	37590	0	0	0	23368	21950	161567	27322	1056920	46421	108612	0	0	8162	576118	0	0
2024-09-20 00:22:47			0	37617	0	0	0	23368	21940	161647	27079	1056848	46410	108612	0	0	8164	575060	0	0
2024-09-20 00:23:47			0	37601	0	0	0	23368	21950	161551	26998	1056857	46400	108612	0	0	8163	575674	0	0
2024-09-20 00:24:47			0	37604	0	0	0	23373	21950	161571	27140	1056884	46411	108614	0	0	8163	575553	0	0
2024-09-20 00:25:47			0	37624	0	0	0	23366	21940	161543	27308	1056822	46410	108611	0	0	8164	574778	0	0
2024-09-20 00:26:47			0	37604	0	0	0	23363	21950	161503	27329	1056884	46411	108610	0	0	8163	575553	0	0
2024-09-20 00:27:47			0	37590	0	0	0	23371	21950	161547	27315	1056840	46421	108613	0	0	8162	576118	0	0
2024-09-20 00:28:47			0	37605	0	0	0	23363	21950	161691	27523	1056831	46433	108610	0	0	8163	575513	0	0
2024-09-20 00:29:47			0	37568	0	0	0	23366	21950	161767	27255	1056867	46433	108611	0	0	8161	577007	0	0
2024-09-20 00:30:47			0	37569	0	0	0	23368	21950	161647	27287	1056920	46411	108612	0	0	8161	576966	0	0
2024-09-20 00:31:47			0	37562	0	0	0	23366	21950	161763	27097	1056911	46421	108611	0	0	8160	577249	0	0
2024-09-20 00:32:47			0	37567	0	0	0	23368	21940	161767	27052	1056875	46421	108612	0	0	8161	577079	0	0
2024-09-20 00:33:47			0	37547	0	0	0	23358	21950	161715	27390	1056893	46433	108608	0	0	8160	577856	0	0
2024-09-20 00:34:47			0	37552	0	0	0	23355	21960	161739	27057	1056902	46421	108607	0	0	8160	577621	0	0
2024-09-20 00:35:47			0	37556	0	0	0	23358	21960	161755	26972	1056884	46434	108608	0	0	8160	577460	0	0
2024-09-20 00:36:47			0	37545	0	0	0	23355	21950	161739	27137	1056884	46421	108607	0	0	8160	577937	0	0
2024-09-20 00:37:47			0	37526	0	0	0	23353	21950	161787	27324	1056884	46411	108606	0	0	8158	578706	0	0
2024-09-20 00:38:47			0	37538	0	0	0	23353	21950	161883	27222	1056867	46421	108606	0	0	8159	578220	0	0
2024-09-20 00:39:47			0	37508	0	0	0	23350	21940	161995	27365	1056795	46410	108605	0	0	8157	579467	0	0
2024-09-20 00:40:47			0	37502	0	0	0	23353	21940	161859	27251	1056822	46421	108606	0	0	8157	579711	0	0
2024-09-20 00:41:47			0	37502	0	0	0	23348	21940	161867	27409	1056848	46421	108604	0	0	8157	579711	0	0
2024-09-20 00:42:47			0	37508	0	0	0	23355	21940	161923	27509	1056822	46432	108607	0	0	8157	579467	0	0
2024-09-20 00:43:47			0	37501	0	0	0	23345	21940	161883	27332	1056822	46421	108603	0	0	8157	579751	0	0
2024-09-20 00:44:47			0	37507	0	0	0	23350	21940	161923	27481	1056822	46410	108605	0	0	8157	579508	0	0
2024-09-20 00:45:47			0	37495	0	0	0	23345	21940	161995	27201	1056866	46409	108603	0	0	8157	579994	0	0
2024-09-20 00:46:47			0	37482	0	0	0	23345	21950	162107	27393	1056804	46411	108603	0	0	8156	580489	0	0
2024-09-20 00:47:47			0	37484	0	0	0	23327	21940	161931	27364	1056813	46398	108596	0	0	8156	580440	0	0
2024-09-20 00:48:47			0	37490	0	0	0	23342	21940	161999	27474	1056813	46409	108602	0	0	8156	580197	0	0
2024-09-20 00:49:47			0	37498	0	0	0	23342	21940	161863	27445	1056786	46431	108602	0	0	8157	579873	0	0
2024-09-20 00:50:47			0	37527	0	0	0	23335	21930	161835	27505	1056697	46420	108599	0	0	8159	578730	0	0
2024-09-20 00:51:47			0	37523	0	0	0	23342	21930	161787	27407	1056751	46420	108602	0	0	8158	578892	0	0
2024-09-20 00:52:47			0	37536	0	0	0	23327	21940	161815	27476	1056759	46420	108596	0	0	8159	578333	0	0
2024-09-20 00:53:47			0	37532	0	0	0	23332	21930	161803	27157	1056768	46398	108598	0	0	8159	578527	0	0
2024-09-20 00:54:47			0	37557	0	0	0	23342	21930	161671	27549	1056830	46420	108602	0	0	8160	577516	0	0
2024-09-20 00:55:47			0	37580	0	0	0	23337	21930	161479	27492	1056804	46409	108600	0	0	8162	576586	0	0
2024-09-20 00:56:47			0	37629	0	0	0	23335	21940	161347	27495	1056759	46420	108599	0	0	8165	574577	0	0
2024-09-20 00:57:47			0	37645	0	0	0	23345	21930	161311	27381	1056795	46409	108603	0	0	8166	573964	0	0
2024-09-20 00:58:47			0	37659	0	0	0	23345	21920	161335	27448	1056733	46419	108603	0	0	8166	573432	0	0
2024-09-20 00:59:47			0	37682	0	0	0	23335	21920	161151	27514	1056733	46408	108599	0	0	8168	572507	0	0
2024-09-20 01:00:47			0	37694	0	0	0	23329	21920	161123	27457	1056706	46419	108597	0	0	8169	572024	0	0
2024-09-20 01:01:47			0	37701	0	0	0	23332	21930	161163	27339	1056751	46409	108598	0	0	8169	571711	0	0
2024-09-20 01:02:47			0	37673	0	0	0	23327	21930	161115	27324	1056830	46409	108596	0	0	8167	572837	0	0
2024-09-20 01:03:47			0	37698	0	0	0	23327	21920	161103	27616	1056750	46417	108596	0	0	8169	571864	0	0
2024-09-20 01:04:47			0	37696	0	0	0	23340	21910	161187	27471	1056795	46407	108601	0	0	8169	571976	0	0
2024-09-20 01:05:47			0	37695	0	0	0	23342	21920	161179	27414	1056706	46419	108602	0	0	8168	571984	0	0
2024-09-20 01:06:47			0	37720	0	0	0	23332	21920	161111	27346	1056759	46408	108598	0	0	8170	570980	0	0
2024-09-20 01:07:47			0	37726	0	0	0	23342	21920	160971	27357	1056759	46408	108602	0	0	8170	570739	0	0
2024-09-20 01:08:47			0	37754	0	0	0	23332	21920	160875	27331	1056706	46419	108598	0	0	8172	569616	0	0
2024-09-20 01:09:47			0	37774	0	0	0	23335	21930	160903	27386	1056768	46420	108599	0	0	8173	568783	0	0
2024-09-20 01:10:47			0	37752	0	0	0	23348	21920	160819	27447	1056786	46419	108604	0	0	8172	569696	0	0
2024-09-20 01:11:47			0	37760	0	0	0	23340	21930	160819	27234	1056777	46420	108601	0	0	8172	569344	0	0
2024-09-20 01:12:47			0	37756	0	0	0	23329	21930	160819	27473	1056795	46431	108597	0	0	8172	569504	0	0
2024-09-20 01:13:47			0	37760	0	0	0	23332	21920	160827	27317	1056759	46408	108598	0	0	8172	569376	0	0
2024-09-20 01:14:47			0	37759	0	0	0	23327	21930	160859	27498	1056742	46420	108596	0	0	8173	569384	0	0
2024-09-20 01:15:47			0	37752	0	0	0	23322	21930	160951	27559	1056688	46420	108594	0	0	8172	569665	0	0
2024-09-20 01:16:47			0	37736	0	0	0	23327	21920	160931	27708	1056786	46419	108596	0	0	8171	570338	0	0
2024-09-20 01:17:47			0	37752	0	0	0	23319	21920	161043	27435	1056670	46407	108593	0	0	8172	569696	0	0
2024-09-20 01:18:47			0	37744	0	0	0	23316	21920	160975	27614	1056724	46417	108592	0	0	8172	570017	0	0
2024-09-20 01:19:47			0	37735	0	0	0	23329	21910	161019	27327	1056715	46407	108597	0	0	8171	570410	0	0
2024-09-20 01:20:47			0	37736	0	0	0	23335	21910	161015	27300	1056741	46407	108599	0	0	8171	570370	0	0
2024-09-20 01:21:47			0	37716	0	0	0	23324	21920	161047	27618	1056697	46407	108595	0	0	8170	571141	0	0
2024-09-20 01:22:47			0	37728	0	0	0	23322	21910	160995	27393	1056688	46417	108594	0	0	8171	570691	0	0
2024-09-20 01:23:47			0	37721	0	0	0	23329	21920	161011	27211	1056697	46407	108597	0	0	8170	570940	0	0
2024-09-20 01:24:47			0	37715	0	0	0	23322	21910	161107	27171	1056626	46406	108594	0	0	8170	571213	0	0
2024-09-20 01:25:47			0	37737	0	0	0	23319	21920	160991	27533	1056724	46417	108593	0	0	8171	570298	0	0
2024-09-20 01:26:47			0	37726	0	0	0	23327	21910	161083	27476	1056661	46417	108596	0	0	8171	570771	0	0
2024-09-20 01:27:47			0	37710	0	0	0	23322	21910	161135	27713	1056661	46417	108594	0	0	8170	571413	0	0
2024-09-20 01:28:47			0	37738	0	0	0	23332	21920	161235	27161	1056724	46417	108598	0	0	8171	570258	0	0
2024-09-20 01:29:47			0	37720	0	0	0	23335	21910	161075	27454	1056706	46428	108599	0	0	8170	571012	0	0
2024-09-20 01:30:47			0	37717	0	0	0	23322	21920	161051	27258	1056697	46429	108594	0	0	8170	571101	0	0
2024-09-20 01:31:47			0	37729	0	0	0	23322	21910	161103	27305	1056733	46416	108594	0	0	8171	570651	0	0
2024-09-20 01:32:47			0	37711	0	0	0	23324	21920	161087	27098	1056724	46407	108595	0	0	8170	571341	0	0
2024-09-20 01:33:47			0	37725	0	0	0	23327	21900	161123	27445	1056697	46416	108596	0	0	8170	570843	0	0
2024-09-20 01:34:47			0	37719	0	0	0	23324	21920	161111	27386	1056697	46429	108595	0	0	8170	571020	0	0
2024-09-20 01:35:47			0	37731	0	0	0	23335	21920	161139	27183	1056670	46407	108599	0	0	8171	570539	0	0
2024-09-20 01:36:47			0	37697	0	0	0	23332	21900	161079	27455	1056697	46406	108598	0	0	8169	571968	0	0
2024-09-20 01:37:47			0	37708	0	0	0	23329	21920	161003	27398	1056759	46419	108597	0	0	8169	571462	0	0
2024-09-20 01:38:47			0	37707	0	0	0	23332	21910	161111	27512	1056768	46417	108598	0	0	8169	571534	0	0
2024-09-20 01:39:47			0	37705	0	0	0	23327	21910	161115	27088	1056715	46407	108596	0	0	8169	571614	0	0
2024-09-20 01:40:47			0	37708	0	0	0	23324	21920	161135	27182	1056750	46417	108595	0	0	8170	571462	0	0
2024-09-20 01:41:47			0	37710	0	0	0	23324	21910	161091	27410	1056688	46417	108595	0	0	8170	571413	0	0
2024-09-20 01:42:47			0	37710	0	0	0	23332	21910	161119	27253	1056706	46406	108598	0	0	8169	571413	0	0
2024-09-20 01:43:47			0	37711	0	0	0	23327	21920	161087	27462	1056697	46417	108596	0	0	8170	571341	0	0
2024-09-20 01:44:47			0	37689	0	0	0	23311	21920	161115	27131	1056750	46417	108590	0	0	8169	572225	0	0
2024-09-20 01:45:47			0	37701	0	0	0	23324	21910	161227	27500	1056759	46406	108595	0	0	8169	571775	0	0
2024-09-20 01:46:47			0	37701	0	0	0	23329	21920	161187	27133	1056750	46407	108597	0	0	8169	571743	0	0
2024-09-20 01:47:47			0	37678	0	0	0	23314	21910	161179	27343	1056679	46428	108591	0	0	8168	572700	0	0
2024-09-20 01:48:47			0	37680	0	0	0	23309	21900	161267	27221	1056644	46416	108589	0	0	8168	572651	0	0
2024-09-20 01:49:47			0	37693	0	0	0	23309	21910	161183	27341	1056688	46407	108589	0	0	8169	572096	0	0
2024-09-20 01:50:47			0	37694	0	0	0	23316	21900	161155	27334	1056697	46406	108592	0	0	8169	572088	0	0
2024-09-20 01:51:47			0	37685	0	0	0	23322	21910	161259	27376	1056679	46416	108594	0	0	8168	572418	0	0
2024-09-20 01:52:47			0	37691	0	0	0	23311	21910	161215	27343	1056661	46407	108590	0	0	8169	572177	0	0
2024-09-20 01:53:47			0	37671	0	0	0	23322	21910	161323	27750	1056741	46396	108594	0	0	8167	572981	0	0
2024-09-20 01:54:47			0	37684	0	0	0	23322	21910	161275	27653	1056706	46416	108594	0	0	8168	572458	0	0
2024-09-20 01:55:47			0	37683	0	0	0	23316	21910	161339	27476	1056626	46416	108592	0	0	8168	572499	0	0
2024-09-20 01:56:47			0	37679	0	0	0	23314	21900	161175	27164	1056670	46416	108591	0	0	8168	572691	0	0
2024-09-20 01:57:47			0	37659	0	0	0	23311	21900	161311	27223	1056697	46406	108590	0	0	8167	573496	0	0
2024-09-20 01:58:47			0	37693	0	0	0	23316	21920	161283	27422	1056644	46417	108592	0	0	8169	572064	0	0
2024-09-20 01:59:47			0	37681	0	0	0	23319	21910	161299	27258	1056653	46416	108593	0	0	8168	572579	0	0
2024-09-20 02:00:47			0	37670	0	0	0	23309	21910	161339	27504	1056679	46406	108589	0	0	8168	573022	0	0
2024-09-20 02:01:47			0	37684	0	0	0	23319	21900	161311	27348	1056670	46406	108593	0	0	8168	572490	0	0
2024-09-20 02:02:47			0	37669	0	0	0	23319	21890	161343	27478	1056679	46415	108593	0	0	8167	573126	0	0
2024-09-20 02:03:47			0	37679	0	0	0	23309	21900	161199	27289	1056670	46416	108589	0	0	8168	572691	0	0
2024-09-20 02:04:47			0	37664	0	0	0	23314	21910	161235	27320	1056679	46416	108591	0	0	8167	573263	0	0
2024-09-20 02:05:47			0	37668	0	0	0	23311	21900	161311	27364	1056581	46405	108590	0	0	8167	573134	0	0
2024-09-20 02:06:47			0	37656	0	0	0	23314	21910	161371	27216	1056688	46396	108591	0	0	8167	573585	0	0
2024-09-20 02:07:47			0	37663	0	0	0	23314	21910	161263	27275	1056741	46417	108591	0	0	8167	573303	0	0
2024-09-20 02:08:47			0	37648	0	0	0	23306	21900	161363	27135	1056590	46406	108588	0	0	8166	573939	0	0
2024-09-20 02:09:47			0	37652	0	0	0	23309	21900	161307	27140	1056670	46406	108589	0	0	8166	573778	0	0
2024-09-20 02:10:47			0	37651	0	0	0	23316	21910	161339	27303	1056653	46416	108592	0	0	8166	573786	0	0
2024-09-20 02:11:47			0	37633	0	0	0	23327	21900	161379	27431	1056644	46416	108596	0	0	8165	574544	0	0
2024-09-20 02:12:47			0	37654	0	0	0	23324	21900	161359	27176	1056644	46406	108595	0	0	8166	573697	0	0
2024-09-20 02:13:47			0	37631	0	0	0	23319	21900	161379	27350	1056697	46416	108593	0	0	8165	574624	0	0
2024-09-20 02:14:47			0	37636	0	0	0	23327	21910	161407	27365	1056706	46395	108596	0	0	8165	574391	0	0
2024-09-20 02:15:47			0	37633	0	0	0	23311	21900	161367	27528	1056670	46428	108590	0	0	8165	574544	0	0
2024-09-20 02:16:47			0	37645	0	0	0	23314	21910	161451	26989	1056661	46417	108591	0	0	8166	574028	0	0
2024-09-20 02:17:47			0	37629	0	0	0	23309	21910	161487	27396	1056715	46417	108589	0	0	8165	574673	0	0
2024-09-20 02:18:47			0	37630	0	0	0	23309	21900	161483	27241	1056644	46416	108589	0	0	8165	574664	0	0
2024-09-20 02:19:47			0	37618	0	0	0	23314	21900	161451	27310	1056617	46416	108591	0	0	8164	575148	0	0
2024-09-20 02:20:47			0	37630	0	0	0	23311	21900	161527	27371	1056644	46395	108590	0	0	8165	574664	0	0
2024-09-20 02:21:47			0	37613	0	0	0	23314	21890	161515	27398	1056706	46404	108591	0	0	8164	575382	0	0
2024-09-20 02:22:47			0	37623	0	0	0	23316	21900	161495	27239	1056661	46405	108592	0	0	8165	574947	0	0
2024-09-20 02:23:47			0	37626	0	0	0	23309	21910	161483	27234	1056661	46417	108589	0	0	8165	574794	0	0
2024-09-20 02:24:47			0	37619	0	0	0	23309	21900	161467	27239	1056635	46405	108589	0	0	8164	575108	0	0
2024-09-20 02:25:47			0	37637	0	0	0	23309	21900	161539	27317	1056661	46416	108589	0	0	8166	574382	0	0
2024-09-20 02:26:47			0	37624	0	0	0	23314	21900	161435	27578	1056661	46405	108591	0	0	8165	574906	0	0
2024-09-20 02:27:47			0	37633	0	0	0	23316	21890	161491	27422	1056643	46393	108592	0	0	8165	574576	0	0
2024-09-20 02:28:47			0	37662	0	0	0	23319	21900	161423	27602	1056670	46395	108593	0	0	8167	573375	0	0
2024-09-20 02:29:47			0	37676	0	0	0	23309	21910	161351	27272	1056653	46416	108589	0	0	8168	572780	0	0
2024-09-20 02:30:47			0	37682	0	0	0	23309	21900	161279	27362	1056724	46416	108589	0	0	8168	572571	0	0
2024-09-20 02:31:47			0	37699	0	0	0	23303	21900	161155	27704	1056608	46405	108587	0	0	8169	571887	0	0
2024-09-20 02:32:47			0	37696	0	0	0	23303	21900	161079	27556	1056661	46405	108587	0	0	8169	572008	0	0
2024-09-20 02:33:47			0	37696	0	0	0	23296	21900	161263	27258	1056724	46406	108584	0	0	8169	572008	0	0
2024-09-20 02:34:47			0	37692	0	0	0	23301	21890	161163	27031	1056617	46415	108586	0	0	8169	572200	0	0
2024-09-20 02:35:47			0	37689	0	0	0	23303	21900	161255	27369	1056608	46416	108587	0	0	8169	572289	0	0
2024-09-20 02:36:47			0	37691	0	0	0	23283	21890	161231	27379	1056626	46415	108579	0	0	8169	572241	0	0
2024-09-20 02:37:47			0	37682	0	0	0	23301	21900	161351	27381	1056644	46406	108586	0	0	8168	572571	0	0
2024-09-20 02:38:47			0	37660	0	0	0	23311	21880	161355	27434	1056635	46393	108590	0	0	8167	573520	0	0
2024-09-20 02:39:47			0	37659	0	0	0	23298	21890	161271	27435	1056590	46415	108585	0	0	8167	573528	0	0
2024-09-20 02:40:47			0	37674	0	0	0	23301	21890	161339	27369	1056546	46415	108586	0	0	8168	572924	0	0
2024-09-20 02:41:47			0	37681	0	0	0	23288	21900	161243	27400	1056608	46405	108581	0	0	8168	572611	0	0
2024-09-20 02:42:47			0	37690	0	0	0	23293	21900	161239	27038	1056608	46405	108583	0	0	8169	572249	0	0
2024-09-20 02:43:47			0	37686	0	0	0	23301	21900	161267	27351	1056581	46416	108586	0	0	8169	572410	0	0
2024-09-20 02:44:47			0	37690	0	0	0	23303	21890	161163	27147	1056590	46426	108587	0	0	8169	572281	0	0
2024-09-20 02:45:47			0	37707	0	0	0	23301	21890	161211	27301	1056626	46415	108586	0	0	8170	571598	0	0
2024-09-20 02:46:47			0	37692	0	0	0	23301	21890	161155	27519	1056599	46404	108586	0	0	8169	572200	0	0
2024-09-20 02:47:47			0	37708	0	0	0	23303	21900	161115	27658	1056581	46416	108587	0	0	8170	571526	0	0
2024-09-20 02:48:47			0	37723	0	0	0	23293	21890	161091	27623	1056617	46426	108583	0	0	8171	570955	0	0
2024-09-20 02:49:47			0	37743	0	0	0	23283	21890	161023	27438	1056652	46415	108579	0	0	8172	570152	0	0
2024-09-20 02:50:47			0	37750	0	0	0	23275	21890	160987	27514	1056537	46404	108576	0	0	8173	569872	0	0
2024-09-20 02:51:47			0	37761	0	0	0	23288	21890	160883	27381	1056590	46415	108581	0	0	8173	569431	0	0
2024-09-20 02:52:47			0	37743	0	0	0	23285	21890	160975	27613	1056643	46404	108580	0	0	8172	570152	0	0
2024-09-20 02:53:47			0	37738	0	0	0	23277	21870	160915	27620	1056608	46402	108577	0	0	8172	570417	0	0
2024-09-20 02:54:47			0	37735	0	0	0	23288	21890	160991	27512	1056537	46415	108581	0	0	8172	570473	0	0
2024-09-20 02:55:47			0	37751	0	0	0	23280	21880	160951	27365	1056528	46404	108578	0	0	8173	569863	0	0
2024-09-20 02:56:47			0	37744	0	0	0	23285	21870	160983	27144	1056483	46413	108580	0	0	8172	570176	0	0
2024-09-20 02:57:47			0	37721	0	0	0	23270	21880	160991	27208	1056519	46392	108574	0	0	8171	571067	0	0
2024-09-20 02:58:47			0	37731	0	0	0	23272	21870	161023	27202	1056474	46413	108575	0	0	8172	570698	0	0
2024-09-20 02:59:47			0	37724	0	0	0	23283	21870	160935	27244	1056474	46413	108579	0	0	8171	570978	0	0
2024-09-20 03:00:47			0	37724	0	0	0	23283	21880	160939	27374	1056501	46415	108579	0	0	8171	570947	0	0
2024-09-20 03:01:47			0	37735	0	0	0	23272	21880	161003	27526	1056555	46415	108575	0	0	8172	570505	0	0
2024-09-20 03:02:47			0	37723	0	0	0	23262	21880	161075	27180	1056519	46403	108571	0	0	8171	570987	0	0
2024-09-20 03:03:47			0	37722	0	0	0	23275	21870	161051	27396	1056457	46402	108576	0	0	8171	571059	0	0
2024-09-20 03:04:47			0	37725	0	0	0	23270	21870	161171	27388	1056448	46402	108574	0	0	8171	570938	0	0
2024-09-20 03:05:47			0	37702	0	0	0	23277	21870	161047	27393	1056563	46402	108577	0	0	8170	571862	0	0
2024-09-20 03:06:47			0	37682	0	0	0	23270	21870	161099	27150	1056474	46402	108574	0	0	8169	572666	0	0
2024-09-20 03:07:47			0	37694	0	0	0	23272	21880	161227	27661	1056519	46414	108575	0	0	8169	572152	0	0
2024-09-20 03:08:47			0	37661	0	0	0	23270	21870	161327	27466	1056421	46402	108574	0	0	8167	573512	0	0
2024-09-20 03:09:47			0	37646	0	0	0	23280	21870	161347	27441	1056501	46402	108578	0	0	8166	574116	0	0
2024-09-20 03:10:47			0	37645	0	0	0	23275	21870	161307	27142	1056457	46413	108576	0	0	8166	574156	0	0
2024-09-20 03:11:47			0	37632	0	0	0	23267	21870	161391	27502	1056501	46413	108573	0	0	8166	574680	0	0
2024-09-20 03:12:47			0	37640	0	0	0	23272	21860	161479	27237	1056492	46413	108575	0	0	8166	574389	0	0
2024-09-20 03:13:47			0	37641	0	0	0	23264	21860	161555	27459	1056412	46402	108572	0	0	8166	574349	0	0
2024-09-20 03:14:47			0	37621	0	0	0	23272	21860	161423	27360	1056492	46402	108575	0	0	8165	575156	0	0
2024-09-20 03:15:47			0	37641	0	0	0	23262	21860	161359	27265	1056456	46412	108571	0	0	8166	574349	0	0
2024-09-20 03:16:47			0	37637	0	0	0	23262	21870	161423	27296	1056448	46402	108571	0	0	8166	574478	0	0
2024-09-20 03:17:47			0	37634	0	0	0	23244	21860	161323	27367	1056439	46402	108564	0	0	8166	574631	0	0
2024-09-20 03:18:47			0	37628	0	0	0	23254	21860	161515	27424	1056430	46401	108568	0	0	8166	574873	0	0
2024-09-20 03:19:47			0	37613	0	0	0	23257	21860	161623	27372	1056430	46401	108569	0	0	8165	575478	0	0
2024-09-20 03:20:47			0	37570	0	0	0	23264	21860	161531	27419	1056465	46402	108572	0	0	8162	577215	0	0
2024-09-20 03:21:47			0	37590	0	0	0	23262	21860	161615	27327	1056456	46412	108571	0	0	8163	576407	0	0
2024-09-20 03:22:47			0	37576	0	0	0	23259	21860	161675	27180	1056456	46401	108570	0	0	8163	576973	0	0
2024-09-20 03:23:47			0	37585	0	0	0	23262	21850	161643	27483	1056394	46389	108571	0	0	8163	576641	0	0
2024-09-20 03:24:47			0	37569	0	0	0	23262	21850	161635	27235	1056421	46422	108571	0	0	8162	577288	0	0
2024-09-20 03:25:47			0	37587	0	0	0	23264	21850	161743	27346	1056421	46411	108572	0	0	8163	576560	0	0
2024-09-20 03:26:47			0	37606	0	0	0	23257	21850	161659	27308	1056394	46389	108569	0	0	8164	575793	0	0
2024-09-20 03:27:47			0	37603	0	0	0	23264	21850	161475	27390	1056421	46411	108572	0	0	8164	575914	0	0
2024-09-20 03:28:47			0	37624	0	0	0	23267	21850	161431	27440	1056448	46411	108573	0	0	8165	575067	0	0
2024-09-20 03:29:47			0	37629	0	0	0	23254	21860	161503	27145	1056430	46412	108568	0	0	8166	574833	0	0
2024-09-20 03:30:47			0	37606	0	0	0	23264	21850	161615	27324	1056385	46411	108572	0	0	8164	575793	0	0
2024-09-20 03:31:47			0	37619	0	0	0	23264	21840	161379	27441	1056403	46399	108572	0	0	8165	575300	0	0
2024-09-20 03:32:47			0	37616	0	0	0	23272	21850	161439	27227	1056421	46411	108575	0	0	8165	575389	0	0
2024-09-20 03:33:47			0	37627	0	0	0	23259	21850	161435	27192	1056412	46411	108570	0	0	8166	574946	0	0
2024-09-20 03:34:47			0	37627	0	0	0	23259	21850	161399	27244	1056421	46422	108570	0	0	8166	574946	0	0
2024-09-20 03:35:47			0	37641	0	0	0	23249	21850	161431	27405	1056474	46422	108566	0	0	8167	574381	0	0
2024-09-20 03:36:47			0	37619	0	0	0	23244	21850	161391	27232	1056412	46400	108564	0	0	8165	575268	0	0
2024-09-20 03:37:47			0	37626	0	0	0	23246	21850	161467	27171	1056421	46422	108565	0	0	8166	574986	0	0
2024-09-20 03:38:47			0	37575	0	0	0	23254	21860	161599	27395	1056456	46401	108568	0	0	8163	577013	0	0
2024-09-20 03:39:47			0	37584	0	0	0	23251	21850	161611	27509	1056385	46411	108567	0	0	8163	576681	0	0
2024-09-20 03:40:47			0	37589	0	0	0	23270	21850	161543	27428	1056385	46400	108574	0	0	8163	576479	0	0
2024-09-20 03:41:47			0	37605	0	0	0	23270	21850	161647	27144	1056412	46400	108574	0	0	8164	575833	0	0
2024-09-20 03:42:47			0	37593	0	0	0	23264	21840	161531	27223	1056403	46388	108572	0	0	8163	576350	0	0
2024-09-20 03:43:47			0	37602	0	0	0	23254	21850	161587	27149	1056412	46422	108568	0	0	8164	575954	0	0
2024-09-20 03:44:47			0	37614	0	0	0	23259	21860	161507	27573	1056456	46401	108570	0	0	8165	575438	0	0
2024-09-20 03:45:47			0	37621	0	0	0	23249	21850	161503	27213	1056412	46400	108566	0	0	8165	575188	0	0
2024-09-20 03:46:47			0	37610	0	0	0	23244	21850	161539	27135	1056412	46389	108564	0	0	8165	575631	0	0
2024-09-20 03:47:47			0	37592	0	0	0	23254	21850	161507	27415	1056412	46411	108568	0	0	8164	576358	0	0
2024-09-20 03:48:47			0	37581	0	0	0	23238	21860	161639	27397	1056430	46412	108562	0	0	8163	576771	0	0
2024-09-20 03:49:47			0	37583	0	0	0	23249	21850	161799	27377	1056385	46400	108566	0	0	8163	576722	0	0
2024-09-20 03:50:47			0	37556	0	0	0	23244	21840	161751	27390	1056376	46399	108564	0	0	8162	577846	0	0
2024-09-20 03:51:47			0	37541	0	0	0	23241	21850	161847	27357	1056332	46411	108563	0	0	8161	578421	0	0
2024-09-20 03:52:47			0	37540	0	0	0	23254	21850	161863	27249	1056385	46411	108568	0	0	8160	578461	0	0
2024-09-20 03:53:47			0	37550	0	0	0	23257	21830	161895	27371	1056358	46387	108569	0	0	8161	578121	0	0
2024-09-20 03:54:47			0	37528	0	0	0	23270	21850	161851	27435	1056385	46422	108574	0	0	8160	578947	0	0
2024-09-20 03:55:47			0	37522	0	0	0	23275	21840	161807	27517	1056394	46410	108576	0	0	8159	579223	0	0
2024-09-20 03:56:47			0	37560	0	0	0	23257	21850	161787	27216	1056385	46411	108569	0	0	8162	577652	0	0
2024-09-20 03:57:47			0	37573	0	0	0	23254	21840	161687	27467	1056394	46410	108568	0	0	8162	577158	0	0
2024-09-20 03:58:47			0	37569	0	0	0	23246	21840	161791	27128	1056350	46410	108565	0	0	8162	577320	0	0
2024-09-20 03:59:47			0	37583	0	0	0	23244	21850	161563	27171	1056412	46411	108564	0	0	8163	576722	0	0
2024-09-20 04:00:47			0	37557	0	0	0	23241	21840	161691	27053	1056376	46410	108563	0	0	8162	577805	0	0
2024-09-20 04:01:47			0	37528	0	0	0	23259	21850	161787	27538	1056412	46400	108570	0	0	8160	578947	0	0
2024-09-20 04:02:47			0	37553	0	0	0	23244	21840	161747	27526	1056376	46410	108564	0	0	8161	577967	0	0
2024-09-20 04:03:47			0	37525	0	0	0	23249	21850	161783	27386	1056385	46389	108566	0	0	8160	579069	0	0
2024-09-20 04:04:47			0	37529	0	0	0	23246	21840	161843	27270	1056403	46410	108565	0	0	8160	578939	0	0
2024-09-20 04:05:47			0	37520	0	0	0	23241	21840	161871	27244	1056350	46399	108563	0	0	8159	579304	0	0
2024-09-20 04:06:47			0	37515	0	0	0	23241	21840	161879	27248	1056341	46399	108563	0	0	8159	579506	0	0
2024-09-20 04:07:47			0	37504	0	0	0	23181	21850	161771	27071	1056359	46389	108540	0	0	8160	579920	0	0
2024-09-20 04:08:47			0	37520	0	0	0	23171	21830	161859	26849	1056225	46387	108536	0	0	8161	579336	0	0
2024-09-20 04:09:47			0	37531	0	0	0	23166	21820	161739	27327	1056207	46386	108534	0	0	8161	578923	0	0
2024-09-20 04:10:47			0	37569	0	0	0	23186	21810	161763	27416	1056154	46384	108542	0	0	8163	577417	0	0
2024-09-20 04:11:47			0	37587	0	0	0	23184	21810	161671	27417	1056109	46385	108541	0	0	8164	576689	0	0
2024-09-20 04:12:47			0	37617	0	0	0	23184	21810	161611	27246	1056127	46384	108541	0	0	8166	575477	0	0
2024-09-20 04:13:47			0	37609	0	0	0	23202	21810	161511	27157	1056216	46385	108548	0	0	8165	575800	0	0
2024-09-20 04:14:47			0	37625	0	0	0	23192	21800	161407	27429	1056091	46406	108544	0	0	8166	575186	0	0
2024-09-20 04:15:47			0	37663	0	0	0	23122	21800	161335	27332	1056118	46395	108517	0	0	8170	573655	0	0
2024-09-20 04:16:47			0	37686	0	0	0	23111	21800	161243	27296	1056082	46373	108513	0	0	8171	572729	0	0
2024-09-20 04:17:47			0	37697	0	0	0	23111	21770	161207	27194	1055922	46370	108513	0	0	8172	572382	0	0
2024-09-20 04:18:47			0	37688	0	0	0	23142	21760	161123	27000	1055878	46390	108525	0	0	8171	572776	0	0
2024-09-20 04:19:47			0	37697	0	0	0	23168	21760	161119	27272	1055931	46379	108535	0	0	8171	572414	0	0
2024-09-20 04:20:47			0	37698	0	0	0	23171	21750	161159	27284	1055922	46390	108536	0	0	8171	572405	0	0
2024-09-20 04:21:47			0	37710	0	0	0	23161	21760	161163	27410	1055904	46379	108532	0	0	8172	571891	0	0
2024-09-20 04:22:47			0	37719	0	0	0	23158	21750	161231	27348	1055922	46401	108531	0	0	8172	571561	0	0
2024-09-20 04:23:47			0	37750	0	0	0	23163	21750	161175	27197	1056029	46401	108533	0	0	8174	570316	0	0
2024-09-20 04:24:47			0	37729	0	0	0	23168	21760	161095	27293	1055958	46379	108535	0	0	8173	571128	0	0
2024-09-20 04:25:47			0	37721	0	0	0	23161	21750	161127	27625	1055922	46379	108532	0	0	8172	571481	0	0
2024-09-20 04:26:47			0	37736	0	0	0	23158	21750	160939	27331	1055975	46390	108531	0	0	8173	570878	0	0
2024-09-20 04:27:47			0	37745	0	0	0	23171	21740	160935	27462	1055949	46388	108536	0	0	8173	570549	0	0
2024-09-20 04:28:47			0	37736	0	0	0	23179	21750	161059	27447	1056002	46390	108539	0	0	8173	570878	0	0
2024-09-20 04:29:47			0	37756	0	0	0	23186	21740	160975	27315	1055984	46400	108542	0	0	8174	570107	0	0
2024-09-20 04:30:47			0	37759	0	0	0	23205	21760	161051	27090	1056011	46401	108549	0	0	8174	569923	0	0
2024-09-20 04:31:47			0	37745	0	0	0	23194	21750	161023	27005	1056029	46413	108545	0	0	8173	570517	0	0
2024-09-20 04:32:47			0	37756	0	0	0	23202	21770	161051	27313	1056029	46391	108548	0	0	8174	570012	0	0
2024-09-20 04:33:47			0	37768	0	0	0	23194	21770	160935	27092	1056029	46424	108545	0	0	8175	569531	0	0
2024-09-20 04:34:47			0	37791	0	0	0	23194	21760	160959	27552	1056038	46413	108545	0	0	8176	568641	0	0
2024-09-20 04:35:47			0	37794	0	0	0	23215	21760	160991	27090	1055993	46414	108553	0	0	8176	568521	0	0
2024-09-20 04:36:47			0	37799	0	0	0	23220	21770	160923	27190	1056109	46424	108555	0	0	8176	568289	0	0
2024-09-20 04:37:47			0	37811	0	0	0	23215	21770	160783	27124	1056109	46424	108553	0	0	8177	567808	0	0
2024-09-20 04:38:47			0	37811	0	0	0	23210	21770	160755	27255	1056091	46414	108551	0	0	8177	567808	0	0
2024-09-20 04:39:47			0	37819	0	0	0	23205	21780	160679	27388	1056189	46404	108549	0	0	8177	567457	0	0
2024-09-20 04:40:47			0	37819	0	0	0	23207	21790	160683	27360	1056153	46394	108550	0	0	8177	567425	0	0
2024-09-20 04:41:47			0	37843	0	0	0	23215	21790	160595	27282	1056153	46394	108553	0	0	8179	566466	0	0
2024-09-20 04:42:47			0	37829	0	0	0	23220	21800	160635	27048	1056162	46416	108555	0	0	8178	566994	0	0
2024-09-20 04:43:47			0	37834	0	0	0	23225	21790	160559	27312	1056153	46405	108557	0	0	8178	566825	0	0
2024-09-20 04:44:47			0	37830	0	0	0	23228	21790	160643	27116	1056180	46405	108558	0	0	8178	566985	0	0
2024-09-20 04:45:47			0	37856	0	0	0	23218	21800	160515	27105	1056162	46416	108554	0	0	8179	565915	0	0
2024-09-20 04:46:47			0	37849	0	0	0	23225	21790	160587	27345	1056180	46416	108557	0	0	8179	566226	0	0
2024-09-20 04:47:47			0	37824	0	0	0	23220	21800	160567	27391	1056225	46406	108555	0	0	8178	567194	0	0
2024-09-20 04:48:47			0	37842	0	0	0	23218	21810	160587	27225	1056180	46395	108554	0	0	8179	566443	0	0
2024-09-20 04:49:47			0	37837	0	0	0	23218	21800	160571	27301	1056198	46406	108554	0	0	8178	566674	0	0
2024-09-20 04:50:47			0	37831	0	0	0	23218	21800	160683	27241	1056145	46406	108554	0	0	8178	566914	0	0
2024-09-20 04:51:47			0	37808	0	0	0	23228	21810	160695	27208	1056154	46406	108558	0	0	8177	567802	0	0
2024-09-20 04:52:47			0	37821	0	0	0	23225	21810	160643	27237	1056260	46395	108557	0	0	8177	567282	0	0
2024-09-20 04:53:47			0	37813	0	0	0	23210	21810	160655	27332	1056207	46406	108551	0	0	8177	567602	0	0
2024-09-20 04:54:47			0	37804	0	0	0	23207	21810	160735	27367	1056162	46396	108550	0	0	8177	567962	0	0
2024-09-20 04:55:47			0	37809	0	0	0	23223	21800	160715	27760	1056198	46395	108556	0	0	8177	567794	0	0
2024-09-20 04:56:47			0	37817	0	0	0	23236	21800	160731	27064	1056216	46416	108561	0	0	8177	567474	0	0
2024-09-20 04:57:47			0	37809	0	0	0	23231	21800	160715	27298	1056198	46395	108559	0	0	8177	567794	0	0
2024-09-20 04:58:47			0	37818	0	0	0	23238	21810	160739	27469	1056216	46396	108562	0	0	8177	567402	0	0
2024-09-20 04:59:47			0	37825	0	0	0	23246	21810	160623	27242	1056269	46407	108565	0	0	8177	567122	0	0
2024-09-20 05:00:47			0	37821	0	0	0	23241	21820	160727	27204	1056260	46419	108563	0	0	8177	567250	0	0
2024-09-20 05:01:47			0	37832	0	0	0	23241	21820	160695	27000	1056278	46408	108563	0	0	8178	566811	0	0
2024-09-20 05:02:47			0	37832	0	0	0	23244	21830	160723	27246	1056269	46398	108564	0	0	8178	566779	0	0
2024-09-20 05:03:47			0	37828	0	0	0	23251	21820	160635	26970	1056278	46408	108567	0	0	8177	566971	0	0
2024-09-20 05:04:47			0	37814	0	0	0	23251	21820	160679	27137	1056305	46419	108567	0	0	8177	567530	0	0
2024-09-20 05:05:47			0	37825	0	0	0	23254	21830	160623	27001	1056349	46398	108568	0	0	8177	567059	0	0
2024-09-20 05:06:47			0	37823	0	0	0	23249	21820	160719	27429	1056278	46408	108566	0	0	8177	567170	0	0
2024-09-20 05:07:47			0	37812	0	0	0	23257	21830	160759	27281	1056349	46387	108569	0	0	8176	567579	0	0
2024-09-20 05:08:47			0	37798	0	0	0	23257	21830	160771	27222	1056376	46398	108569	0	0	8176	568139	0	0
2024-09-20 05:09:47			0	37805	0	0	0	23238	21830	160663	27062	1056332	46409	108562	0	0	8176	567859	0	0
2024-09-20 05:10:47			0	37818	0	0	0	23249	21830	160871	26982	1056349	46409	108566	0	0	8177	567339	0	0
2024-09-20 05:11:47			0	37810	0	0	0	23251	21830	160743	27507	1056296	46398	108567	0	0	8176	567659	0	0
2024-09-20 05:12:47			0	37765	0	0	0	23251	21830	160883	27086	1056296	46409	108567	0	0	8174	569461	0	0
2024-09-20 05:13:47			0	37767	0	0	0	23249	21830	160911	26994	1056385	46409	108566	0	0	8174	569381	0	0
2024-09-20 05:14:47			0	37771	0	0	0	23249	21830	160975	27005	1056323	46409	108566	0	0	8174	569220	0	0
2024-09-20 05:15:47			0	37757	0	0	0	23233	21830	160939	27177	1056323	46420	108560	0	0	8174	569781	0	0
2024-09-20 05:16:47			0	37755	0	0	0	23231	21830	160955	27275	1056332	46398	108559	0	0	8173	569862	0	0
2024-09-20 05:17:47			0	37744	0	0	0	23225	21830	161003	27215	1056332	46398	108557	0	0	8173	570303	0	0
2024-09-20 05:18:47			0	37733	0	0	0	23231	21830	161115	27301	1056323	46398	108559	0	0	8172	570744	0	0
2024-09-20 05:19:47			0	37723	0	0	0	23246	21820	161123	27164	1056340	46397	108565	0	0	8171	571178	0	0
2024-09-20 05:20:47			0	37706	0	0	0	23251	21830	161087	27020	1056296	46398	108567	0	0	8170	571829	0	0
2024-09-20 05:21:47			0	37719	0	0	0	23249	21830	161023	27092	1056305	46409	108566	0	0	8171	571306	0	0
2024-09-20 05:22:47			0	37727	0	0	0	23259	21830	161023	26974	1056332	46398	108570	0	0	8171	570985	0	0
2024-09-20 05:23:47			0	37733	0	0	0	23259	21830	161075	27218	1056358	46398	108570	0	0	8172	570744	0	0
2024-09-20 05:24:47			0	37721	0	0	0	23251	21830	160963	27105	1056376	46409	108567	0	0	8171	571226	0	0
2024-09-20 05:25:47			0	37708	0	0	0	23249	21830	161143	27192	1056438	46398	108566	0	0	8170	571748	0	0
2024-09-20 05:26:47			0	37712	0	0	0	23251	21830	161167	27064	1056376	46420	108567	0	0	8171	571588	0	0
2024-09-20 05:27:47			0	37720	0	0	0	23251	21840	161047	27270	1056421	46410	108567	0	0	8171	571234	0	0
2024-09-20 05:28:47			0	37727	0	0	0	23259	21830	161055	27098	1056332	46398	108570	0	0	8171	570985	0	0
2024-09-20 05:29:47			0	37717	0	0	0	23246	21840	161107	26880	1056394	46410	108565	0	0	8171	571355	0	0
2024-09-20 05:30:47			0	37728	0	0	0	23254	21840	161215	26935	1056430	46410	108568	0	0	8172	570913	0	0
2024-09-20 05:31:47			0	37696	0	0	0	23264	21850	161103	26911	1056385	46411	108572	0	0	8170	572167	0	0
2024-09-20 05:32:47			0	37721	0	0	0	23262	21840	161199	27003	1056430	46410	108571	0	0	8171	571194	0	0
2024-09-20 05:33:47			0	37709	0	0	0	23259	21840	161243	26904	1056403	46399	108570	0	0	8170	571677	0	0
2024-09-20 05:34:47			0	37694	0	0	0	23264	21840	161191	27163	1056394	46410	108572	0	0	8169	572279	0	0
2024-09-20 05:35:47			0	37709	0	0	0	23251	21840	161215	27564	1056456	46388	108567	0	0	8170	571677	0	0
2024-09-20 05:36:47			0	37692	0	0	0	23254	21840	161155	27081	1056430	46421	108568	0	0	8169	572360	0	0
2024-09-20 05:37:47			0	37700	0	0	0	23251	21840	161371	27154	1056403	46399	108567	0	0	8170	572038	0	0
2024-09-20 05:38:47			0	37683	0	0	0	23251	21840	161243	26830	1056394	46399	108567	0	0	8169	572722	0	0
2024-09-20 05:39:47			0	37676	0	0	0	23259	21840	161339	26967	1056367	46399	108570	0	0	8168	573004	0	0
2024-09-20 05:40:47			0	37685	0	0	0	23251	21850	161407	27098	1056412	46400	108567	0	0	8169	572609	0	0
2024-09-20 05:41:47			0	37678	0	0	0	23246	21840	161431	26967	1056483	46410	108565	0	0	8169	572923	0	0
2024-09-20 05:42:47			0	37665	0	0	0	23251	21840	161411	27216	1056403	46399	108567	0	0	8168	573446	0	0
2024-09-20 05:43:47			0	37663	0	0	0	23259	21850	161411	27057	1056412	46389	108570	0	0	8168	573495	0	0
2024-09-20 05:44:47			0	37654	0	0	0	23262	21840	161427	27161	1056367	46410	108571	0	0	8167	573889	0	0
2024-09-20 05:45:47			0	37665	0	0	0	23259	21840	161351	27176	1056350	46410	108570	0	0	8168	573446	0	0
2024-09-20 05:46:47			0	37677	0	0	0	23254	21840	161439	27334	1056456	46399	108568	0	0	8169	572963	0	0
2024-09-20 05:47:47			0	37674	0	0	0	23262	21850	161399	27339	1056385	46400	108571	0	0	8168	573052	0	0
2024-09-20 05:48:47			0	37662	0	0	0	23264	21830	161383	27267	1056412	46409	108572	0	0	8167	573599	0	0
2024-09-20 05:49:47			0	37668	0	0	0	23259	21850	161419	27284	1056394	46400	108570	0	0	8168	573294	0	0
2024-09-20 05:50:47			0	37670	0	0	0	23262	21850	161391	27258	1056385	46422	108571	0	0	8168	573213	0	0
2024-09-20 05:51:47			0	37658	0	0	0	23259	21850	161455	27322	1056448	46411	108570	0	0	8167	573696	0	0
2024-09-20 05:52:47			0	37663	0	0	0	23249	21850	161427	27251	1056448	46411	108566	0	0	8168	573495	0	0
2024-09-20 05:53:47			0	37663	0	0	0	23249	21840	161499	27206	1056430	46410	108566	0	0	8168	573527	0	0
2024-09-20 05:54:47			0	37656	0	0	0	23251	21840	161455	27064	1056341	46410	108567	0	0	8167	573809	0	0
2024-09-20 05:55:47			0	37648	0	0	0	23257	21840	161463	27017	1056376	46399	108569	0	0	8167	574131	0	0
2024-09-20 05:56:47			0	37639	0	0	0	23249	21850	161447	27235	1056421	46389	108566	0	0	8166	574462	0	0
2024-09-20 05:57:47			0	37650	0	0	0	23244	21840	161455	27135	1056403	46410	108564	0	0	8167	574050	0	0
2024-09-20 05:58:47			0	37631	0	0	0	23241	21840	161543	27059	1056403	46399	108563	0	0	8166	574816	0	0
2024-09-20 05:59:47			0	37616	0	0	0	23236	21850	161567	27157	1056412	46389	108561	0	0	8165	575389	0	0
2024-09-20 06:00:47			0	37630	0	0	0	23238	21840	161655	27026	1056394	46399	108562	0	0	8166	574857	0	0
2024-09-20 06:01:47			0	37629	0	0	0	23254	21840	161695	27206	1056323	46399	108568	0	0	8166	574897	0	0
2024-09-20 06:02:47			0	37643	0	0	0	23254	21840	161755	27183	1056367	46399	108568	0	0	8167	574332	0	0
2024-09-20 06:03:47			0	37626	0	0	0	23251	21840	161683	27196	1056376	46399	108567	0	0	8166	575018	0	0
2024-09-20 06:04:47			0	37614	0	0	0	23249	21840	161615	27457	1056376	46399	108566	0	0	8165	575502	0	0
2024-09-20 06:05:47			0	37629	0	0	0	23249	21840	161503	27440	1056430	46421	108566	0	0	8166	574897	0	0
2024-09-20 06:06:47			0	37624	0	0	0	23246	21840	161627	27248	1056430	46410	108565	0	0	8166	575099	0	0
2024-09-20 06:07:47			0	37613	0	0	0	23251	21850	161567	27296	1056332	46400	108567	0	0	8165	575510	0	0
2024-09-20 06:08:47			0	37616	0	0	0	23249	21840	161647	27338	1056350	46388	108566	0	0	8165	575421	0	0
2024-09-20 06:09:47			0	37611	0	0	0	23249	21830	161615	26892	1056385	46398	108566	0	0	8165	575655	0	0
2024-09-20 06:10:47			0	37612	0	0	0	23254	21850	161599	27235	1056385	46411	108568	0	0	8165	575551	0	0
2024-09-20 06:11:47			0	37624	0	0	0	23249	21840	161643	27145	1056367	46388	108566	0	0	8165	575099	0	0
2024-09-20 06:12:47			0	37614	0	0	0	23267	21830	161655	27142	1056358	46409	108573	0	0	8165	575534	0	0
2024-09-20 06:13:47			0	37629	0	0	0	23267	21850	161627	27324	1056385	46411	108573	0	0	8166	574865	0	0
2024-09-20 06:14:47			0	37614	0	0	0	23262	21840	161691	27287	1056430	46410	108571	0	0	8165	575502	0	0
2024-09-20 06:15:47			0	37623	0	0	0	23262	21840	161467	27092	1056456	46410	108571	0	0	8165	575139	0	0
2024-09-20 06:16:47			0	37624	0	0	0	23259	21840	161651	27064	1056456	46399	108570	0	0	8165	575099	0	0
2024-09-20 06:17:47			0	37633	0	0	0	23257	21850	161559	27538	1056474	46400	108569	0	0	8166	574704	0	0
2024-09-20 06:18:47			0	37630	0	0	0	23264	21850	161515	27326	1056385	46400	108572	0	0	8166	574825	0	0
2024-09-20 06:19:47			0	37622	0	0	0	23251	21840	161579	27305	1056430	46410	108567	0	0	8165	575179	0	0
2024-09-20 06:20:47			0	37628	0	0	0	23254	21850	161587	27301	1056412	46389	108568	0	0	8166	574905	0	0
2024-09-20 06:21:47			0	37619	0	0	0	23246	21850	161611	27104	1056412	46400	108565	0	0	8165	575268	0	0
2024-09-20 06:22:47			0	37611	0	0	0	23241	21850	161695	27296	1056385	46411	108563	0	0	8165	575591	0	0
2024-09-20 06:23:47			0	37599	0	0	0	23228	21840	161563	27488	1056376	46399	108558	0	0	8164	576108	0	0
2024-09-20 06:24:47			0	37580	0	0	0	23241	21850	161727	27308	1056385	46389	108563	0	0	8163	576843	0	0
2024-09-20 06:25:47			0	37571	0	0	0	23238	21840	161751	27542	1056394	46410	108562	0	0	8163	577239	0	0
2024-09-20 06:26:47			0	37580	0	0	0	23236	21840	161771	27306	1056341	46399	108561	0	0	8163	576875	0	0
2024-09-20 06:27:47			0	37575	0	0	0	23244	21830	161667	27147	1056332	46387	108564	0	0	8163	577110	0	0
2024-09-20 06:28:47			0	37576	0	0	0	23244	21840	161759	27296	1056403	46410	108564	0	0	8163	577037	0	0
2024-09-20 06:29:47			0	37593	0	0	0	23244	21840	161711	27334	1056367	46410	108564	0	0	8164	576350	0	0
2024-09-20 06:30:47			0	37577	0	0	0	23238	21840	161723	27175	1056403	46399	108562	0	0	8163	576997	0	0
2024-09-20 06:31:47			0	37601	0	0	0	23249	21840	161679	27253	1056367	46399	108566	0	0	8164	576027	0	0
2024-09-20 06:32:47			0	37591	0	0	0	23249	21830	161715	27417	1056412	46398	108566	0	0	8163	576463	0	0
2024-09-20 06:33:47			0	37583	0	0	0	23251	21840	161699	27345	1056447	46410	108567	0	0	8163	576754	0	0
2024-09-20 06:34:47			0	37597	0	0	0	23249	21840	161663	27098	1056447	46399	108566	0	0	8164	576188	0	0
2024-09-20 06:35:47			0	37604	0	0	0	23249	21840	161611	27517	1056367	46399	108566	0	0	8164	575906	0	0
2024-09-20 06:36:47			0	37605	0	0	0	23254	21830	161487	27531	1056403	46409	108568	0	0	8164	575897	0	0
2024-09-20 06:37:47			0	37608	0	0	0	23241	21840	161631	27426	1056403	46399	108563	0	0	8165	575744	0	0
2024-09-20 06:38:47			0	37616	0	0	0	23244	21830	161607	27150	1056438	46398	108564	0	0	8165	575453	0	0
2024-09-20 06:39:47			0	37584	0	0	0	23238	21840	161567	27331	1056367	46410	108562	0	0	8163	576714	0	0
2024-09-20 06:40:47			0	37599	0	0	0	23246	21830	161699	27412	1056376	46398	108565	0	0	8164	576140	0	0
2024-09-20 06:41:47			0	37589	0	0	0	23251	21840	161703	27218	1056367	46399	108567	0	0	8163	576512	0	0
2024-09-20 06:42:47			0	37599	0	0	0	23246	21840	161623	27390	1056394	46399	108565	0	0	8164	576108	0	0
2024-09-20 06:43:47			0	37594	0	0	0	23249	21840	161635	27229	1056376	46388	108566	0	0	8164	576310	0	0
2024-09-20 06:44:47			0	37592	0	0	0	23246	21850	161647	27246	1056385	46411	108565	0	0	8164	576358	0	0
2024-09-20 06:45:47			0	37591	0	0	0	23244	21840	161575	27313	1056501	46399	108564	0	0	8164	576431	0	0
2024-09-20 06:46:47			0	37592	0	0	0	23249	21840	161675	27312	1056447	46410	108566	0	0	8164	576390	0	0
2024-09-20 06:47:47			0	37605	0	0	0	23246	21850	161615	27024	1056385	46389	108565	0	0	8164	575833	0	0
2024-09-20 06:48:47			0	37584	0	0	0	23249	21830	161663	27282	1056385	46409	108566	0	0	8163	576746	0	0
2024-09-20 06:49:47			0	37598	0	0	0	23249	21840	161699	27163	1056430	46421	108566	0	0	8164	576148	0	0
2024-09-20 06:50:47			0	37600	0	0	0	23249	21830	161651	27079	1056385	46398	108566	0	0	8164	576099	0	0
2024-09-20 06:51:47			0	37610	0	0	0	23246	21830	161503	27287	1056438	46409	108565	0	0	8165	575696	0	0
2024-09-20 06:52:47			0	37613	0	0	0	23246	21840	161623	27248	1056421	46399	108565	0	0	8165	575542	0	0
2024-09-20 06:53:47			0	37621	0	0	0	23262	21840	161715	27312	1056430	46410	108571	0	0	8165	575220	0	0
2024-09-20 06:54:47			0	37622	0	0	0	23257	21840	161643	27242	1056394	46410	108569	0	0	8165	575179	0	0
2024-09-20 06:55:47			0	37606	0	0	0	23249	21840	161619	27352	1056403	46399	108566	0	0	8164	575825	0	0
2024-09-20 06:56:47			0	37619	0	0	0	23257	21840	161691	27267	1056430	46421	108569	0	0	8165	575300	0	0
2024-09-20 06:57:47			0	37630	0	0	0	23244	21830	161659	27386	1056385	46398	108564	0	0	8166	574889	0	0
2024-09-20 06:58:47			0	37601	0	0	0	23241	21840	161655	27538	1056483	46410	108563	0	0	8164	576027	0	0
2024-09-20 06:59:47			0	37606	0	0	0	23238	21840	161659	27192	1056421	46410	108562	0	0	8165	575825	0	0
2024-09-20 07:00:47			0	37571	0	0	0	23249	21840	161803	27331	1056350	46399	108566	0	0	8162	577239	0	0
2024-09-20 07:01:47			0	37572	0	0	0	23241	21840	161823	27350	1056403	46399	108563	0	0	8163	577199	0	0
2024-09-20 07:02:47			0	37563	0	0	0	23246	21840	161827	27393	1056403	46399	108565	0	0	8162	577563	0	0
2024-09-20 07:03:47			0	37572	0	0	0	23249	21840	161907	27228	1056403	46388	108566	0	0	8162	577199	0	0
2024-09-20 07:04:47			0	37585	0	0	0	23254	21840	161859	27034	1056394	46399	108568	0	0	8163	576673	0	0
2024-09-20 07:05:47			0	37592	0	0	0	23251	21840	161767	27287	1056421	46421	108567	0	0	8164	576390	0	0
2024-09-20 07:06:47			0	37597	0	0	0	23257	21830	161763	27376	1056385	46398	108569	0	0	8164	576221	0	0
2024-09-20 07:07:47			0	37608	0	0	0	23257	21850	161679	27443	1056385	46400	108569	0	0	8164	575712	0	0
2024-09-20 07:08:47			0	37625	0	0	0	23251	21840	161679	27248	1056483	46410	108567	0	0	8166	575058	0	0
2024-09-20 07:09:47			0	37614	0	0	0	23238	21840	161691	27606	1056447	46388	108562	0	0	8165	575502	0	0
2024-09-20 07:10:47			0	37612	0	0	0	23246	21840	161699	27504	1056430	46399	108565	0	0	8165	575583	0	0
2024-09-20 07:11:47			0	37613	0	0	0	23262	21840	161619	27390	1056456	46399	108571	0	0	8165	575542	0	0
2024-09-20 07:12:47			0	37601	0	0	0	23251	21840	161635	27350	1056421	46388	108567	0	0	8164	576027	0	0
2024-09-20 07:13:47			0	37656	0	0	0	23264	21830	161575	27228	1056465	46420	108572	0	0	8167	573841	0	0
2024-09-20 07:14:47			0	37646	0	0	0	23254	21840	161511	27133	1056456	46410	108568	0	0	8167	574212	0	0
2024-09-20 07:15:47			0	37644	0	0	0	23259	21840	161443	27479	1056430	46410	108570	0	0	8167	574292	0	0
2024-09-20 07:16:47			0	37655	0	0	0	23262	21840	161499	27296	1056421	46410	108571	0	0	8167	573849	0	0
2024-09-20 07:17:47			0	37656	0	0	0	23270	21840	161431	27177	1056430	46410	108574	0	0	8167	573809	0	0
2024-09-20 07:18:47			0	37650	0	0	0	23262	21850	161419	27097	1056385	46400	108571	0	0	8167	574018	0	0
2024-09-20 07:19:47			0	37678	0	0	0	23264	21850	161387	27183	1056465	46400	108572	0	0	8168	572891	0	0
2024-09-20 07:20:47			0	37674	0	0	0	23257	21850	161355	27242	1056421	46389	108569	0	0	8168	573052	0	0
2024-09-20 07:21:47			0	37671	0	0	0	23262	21840	161379	27215	1056456	46410	108571	0	0	8168	573205	0	0
2024-09-20 07:22:47			0	37693	0	0	0	23257	21840	161475	27104	1056456	46399	108569	0	0	8169	572320	0	0
2024-09-20 07:23:47			0	37656	0	0	0	23251	21850	161495	26989	1056474	46422	108567	0	0	8167	573777	0	0
2024-09-20 07:24:47			0	37649	0	0	0	23270	21850	161527	27071	1056465	46411	108574	0	0	8167	574059	0	0
2024-09-20 07:25:47			0	37670	0	0	0	23272	21850	161395	27443	1056492	46411	108575	0	0	8168	573213	0	0
2024-09-20 07:26:47			0	37650	0	0	0	23259	21850	161439	27402	1056474	46411	108570	0	0	8167	574018	0	0
2024-09-20 07:27:47			0	37684	0	0	0	23257	21850	161439	27104	1056465	46400	108569	0	0	8169	572650	0	0
2024-09-20 07:28:47			0	37658	0	0	0	23241	21850	161487	27287	1056474	46400	108563	0	0	8168	573696	0	0
2024-09-20 07:29:47			0	37645	0	0	0	23251	21850	161479	27248	1056474	46389	108567	0	0	8167	574220	0	0
2024-09-20 07:30:47			0	37641	0	0	0	23249	21850	161511	27211	1056465	46389	108566	0	0	8167	574381	0	0
2024-09-20 07:31:47			0	37645	0	0	0	23244	21850	161411	27085	1056439	46389	108564	0	0	8167	574220	0	0
2024-09-20 07:32:47			0	37636	0	0	0	23251	21840	161567	27178	1056456	46399	108567	0	0	8166	574615	0	0
2024-09-20 07:33:47			0	37617	0	0	0	23249	21840	161471	26920	1056403	46388	108566	0	0	8165	575381	0	0
2024-09-20 07:34:47			0	37634	0	0	0	23251	21840	161479	27308	1056456	46410	108567	0	0	8166	574695	0	0
2024-09-20 07:35:47			0	37620	0	0	0	23251	21850	161507	27255	1056359	46400	108567	0	0	8165	575228	0	0
2024-09-20 07:36:47			0	37612	0	0	0	23251	21840	161419	27405	1056456	46421	108567	0	0	8165	575583	0	0
2024-09-20 07:37:47			0	37620	0	0	0	23233	21840	161507	27388	1056394	46399	108560	0	0	8166	575260	0	0
2024-09-20 07:38:47			0	37618	0	0	0	23228	21840	161535	27222	1056403	46399	108558	0	0	8165	575341	0	0
2024-09-20 07:39:47			0	37616	0	0	0	23236	21830	161535	27201	1056385	46398	108561	0	0	8165	575453	0	0
2024-09-20 07:40:47			0	37615	0	0	0	23233	21840	161543	27154	1056376	46399	108560	0	0	8165	575462	0	0
2024-09-20 07:41:47			0	37607	0	0	0	23238	21830	161583	27391	1056385	46398	108562	0	0	8165	575817	0	0
2024-09-20 07:42:47			0	37633	0	0	0	23251	21840	161547	27001	1056367	46399	108567	0	0	8166	574736	0	0
2024-09-20 07:43:47			0	37626	0	0	0	23244	21830	161443	27505	1056332	46409	108564	0	0	8166	575050	0	0
2024-09-20 07:44:47			0	37625	0	0	0	23238	21840	161415	27543	1056367	46410	108562	0	0	8166	575058	0	0
2024-09-20 07:45:47			0	37637	0	0	0	23238	21840	161531	27265	1056421	46410	108562	0	0	8166	574574	0	0
2024-09-20 07:46:47			0	37606	0	0	0	23241	21830	161499	27317	1056358	46398	108563	0	0	8165	575857	0	0
2024-09-20 07:47:47			0	37646	0	0	0	23238	21840	161451	27196	1056367	46399	108562	0	0	8167	574212	0	0
2024-09-20 07:48:47			0	37653	0	0	0	23241	21840	161495	27187	1056367	46399	108563	0	0	8167	573930	0	0
2024-09-20 07:49:47			0	37647	0	0	0	23241	21840	161475	27412	1056376	46399	108563	0	0	8167	574171	0	0
2024-09-20 07:50:47			0	37649	0	0	0	23233	21840	161487	27282	1056376	46421	108560	0	0	8167	574091	0	0
2024-09-20 07:51:47			0	37651	0	0	0	23238	21840	161495	27036	1056394	46399	108562	0	0	8167	574010	0	0
2024-09-20 07:52:47			0	37658	0	0	0	23251	21830	161411	27343	1056429	46387	108567	0	0	8167	573760	0	0
2024-09-20 07:53:47			0	37663	0	0	0	23251	21830	161427	27322	1056412	46398	108567	0	0	8168	573559	0	0
2024-09-20 07:54:47			0	37656	0	0	0	23241	21830	161331	27187	1056385	46398	108563	0	0	8167	573841	0	0
2024-09-20 07:55:47			0	37686	0	0	0	23249	21840	161491	27260	1056394	46399	108566	0	0	8169	572601	0	0
2024-09-20 07:56:47			0	37673	0	0	0	23246	21830	161331	27488	1056403	46409	108565	0	0	8168	573156	0	0
2024-09-20 07:57:47			0	37680	0	0	0	23244	21820	161283	27362	1056420	46408	108564	0	0	8169	572906	0	0
2024-09-20 07:58:47			0	37664	0	0	0	23244	21830	161419	27303	1056403	46409	108564	0	0	8168	573518	0	0
2024-09-20 07:59:47			0	37676	0	0	0	23241	21840	161331	27618	1056367	46388	108563	0	0	8169	573004	0	0
2024-09-20 08:00:47			0	37667	0	0	0	23244	21830	161335	27547	1056429	46398	108564	0	0	8168	573398	0	0
2024-09-20 08:01:47			0	37686	0	0	0	23244	21840	161323	27447	1056367	46399	108564	0	0	8169	572601	0	0
2024-09-20 08:02:47			0	37667	0	0	0	23251	21830	161291	27388	1056403	46398	108567	0	0	8168	573398	0	0
2024-09-20 08:03:47			0	37660	0	0	0	23249	21830	161375	27448	1056456	46409	108566	0	0	8168	573680	0	0
2024-09-20 08:04:47			0	37670	0	0	0	23254	21820	161347	27244	1056420	46397	108568	0	0	8168	573309	0	0
2024-09-20 08:05:47			0	37674	0	0	0	23246	21830	161187	27159	1056438	46409	108565	0	0	8168	573116	0	0
2024-09-20 08:06:47			0	37684	0	0	0	23251	21830	161279	27327	1056412	46398	108567	0	0	8169	572714	0	0
2024-09-20 08:07:47			0	37687	0	0	0	23249	21840	161227	27144	1056474	46399	108566	0	0	8169	572561	0	0
2024-09-20 08:08:47			0	37698	0	0	0	23267	21830	161243	27305	1056438	46409	108573	0	0	8170	572150	0	0
2024-09-20 08:09:47			0	37698	0	0	0	23257	21840	161235	27111	1056421	46410	108569	0	0	8170	572118	0	0
2024-09-20 08:10:47			0	37705	0	0	0	23257	21850	161211	27409	1056439	46411	108569	0	0	8170	571805	0	0
2024-09-20 08:11:47			0	37698	0	0	0	23257	21840	161211	27135	1056456	46410	108569	0	0	8170	572118	0	0
2024-09-20 08:12:47			0	37699	0	0	0	23267	21840	161295	27334	1056430	46410	108573	0	0	8170	572078	0	0
2024-09-20 08:13:47			0	37688	0	0	0	23262	21850	161279	27104	1056439	46389	108571	0	0	8169	572489	0	0
2024-09-20 08:14:47			0	37700	0	0	0	23259	21840	161187	27357	1056456	46388	108570	0	0	8170	572038	0	0
2024-09-20 08:15:47			0	37690	0	0	0	23257	21850	161203	27256	1056519	46411	108569	0	0	8169	572408	0	0
2024-09-20 08:16:47			0	37693	0	0	0	23262	21840	161291	27317	1056456	46399	108571	0	0	8169	572320	0	0
2024-09-20 08:17:47			0	37691	0	0	0	23270	21830	161123	27386	1056492	46409	108574	0	0	8169	572432	0	0
2024-09-20 08:18:47			0	37692	0	0	0	23259	21840	161119	27008	1056447	46399	108570	0	0	8169	572360	0	0
2024-09-20 08:19:47			0	37709	0	0	0	23257	21840	161227	27104	1056456	46399	108569	0	0	8170	571677	0	0
2024-09-20 08:20:47			0	37700	0	0	0	23251	21840	161179	27493	1056430	46410	108567	0	0	8170	572038	0	0
2024-09-20 08:21:47			0	37710	0	0	0	23259	21840	161179	27201	1056447	46399	108570	0	0	8170	571636	0	0
2024-09-20 08:22:47			0	37715	0	0	0	23251	21840	161103	27379	1056447	46410	108567	0	0	8171	571435	0	0
2024-09-20 08:23:47			0	37695	0	0	0	23251	21850	161203	27249	1056501	46400	108567	0	0	8170	572207	0	0
2024-09-20 08:24:47			0	37698	0	0	0	23259	21850	161155	27161	1056465	46400	108570	0	0	8170	572087	0	0
2024-09-20 08:25:47			0	37699	0	0	0	23254	21850	161167	27595	1056448	46400	108568	0	0	8170	572046	0	0
2024-09-20 08:26:47			0	37683	0	0	0	23249	21850	161115	27294	1056492	46400	108566	0	0	8169	572690	0	0
2024-09-20 08:27:47			0	37685	0	0	0	23251	21850	161119	27254	1056439	46389	108567	0	0	8169	572609	0	0
2024-09-20 08:28:47			0	37706	0	0	0	23254	21840	161223	27343	1056483	46388	108568	0	0	8170	571797	0	0
2024-09-20 08:29:47			0	37713	0	0	0	23254	21840	161155	27307	1056474	46399	108568	0	0	8171	571516	0	0
2024-09-20 08:30:47			0	37692	0	0	0	23259	21850	161203	27147	1056465	46400	108570	0	0	8169	572328	0	0
2024-09-20 08:31:47			0	37689	0	0	0	23257	21850	161223	27677	1056474	46411	108569	0	0	8169	572449	0	0
2024-09-20 08:32:47			0	37695	0	0	0	23254	21850	161219	27407	1056439	46411	108568	0	0	8170	572207	0	0
2024-09-20 08:33:47			0	37694	0	0	0	23251	21840	161199	27170	1056510	46399	108567	0	0	8170	572279	0	0
2024-09-20 08:34:47			0	37697	0	0	0	23254	21840	161099	27100	1056456	46399	108568	0	0	8170	572159	0	0
2024-09-20 08:35:47			0	37690	0	0	0	23251	21850	161035	27267	1056412	46378	108567	0	0	8169	572408	0	0
2024-09-20 08:36:47			0	37712	0	0	0	23257	21840	161283	27258	1056527	46399	108569	0	0	8171	571556	0	0
2024-09-20 08:37:47			0	37710	0	0	0	23259	21840	161283	27300	1056483	46399	108570	0	0	8170	571636	0	0
2024-09-20 08:38:47			0	37718	0	0	0	23254	21850	161171	27168	1056465	46422	108568	0	0	8171	571283	0	0
2024-09-20 08:39:47			0	37710	0	0	0	23262	21840	161183	27157	1056456	46388	108571	0	0	8170	571636	0	0
2024-09-20 08:40:47			0	37715	0	0	0	23264	21850	161151	27185	1056519	46411	108572	0	0	8171	571404	0	0
2024-09-20 08:41:47			0	37716	0	0	0	23259	21850	161199	27447	1056465	46422	108570	0	0	8171	571363	0	0
2024-09-20 08:42:47			0	37722	0	0	0	23254	21850	161099	26986	1056474	46400	108568	0	0	8171	571122	0	0
2024-09-20 08:43:47			0	37721	0	0	0	23262	21840	161179	27597	1056563	46399	108571	0	0	8171	571194	0	0
2024-09-20 08:44:47			0	37730	0	0	0	23259	21850	161095	27255	1056474	46411	108570	0	0	8172	570801	0	0
2024-09-20 08:45:47			0	37720	0	0	0	23262	21850	161067	27291	1056519	46411	108571	0	0	8171	571203	0	0
2024-09-20 08:46:47			0	37755	0	0	0	23272	21860	161015	27445	1056510	46412	108575	0	0	8173	569766	0	0
2024-09-20 08:47:47			0	37750	0	0	0	23259	21850	160919	27279	1056554	46400	108570	0	0	8173	569999	0	0
2024-09-20 08:48:47			0	37758	0	0	0	23270	21850	160887	27241	1056465	46400	108574	0	0	8173	569678	0	0
2024-09-20 08:49:47			0	37737	0	0	0	23272	21850	161031	27405	1056545	46411	108575	0	0	8172	570520	0	0
2024-09-20 08:50:47			0	37757	0	0	0	23277	21840	160955	27324	1056483	46410	108577	0	0	8173	569750	0	0
2024-09-20 08:51:47			0	37751	0	0	0	23270	21850	160903	27114	1056492	46389	108574	0	0	8173	569959	0	0
2024-09-20 08:52:47			0	37757	0	0	0	23272	21850	160891	27324	1056528	46400	108575	0	0	8173	569718	0	0
2024-09-20 08:53:47			0	37764	0	0	0	23277	21860	160911	27398	1056563	46412	108577	0	0	8173	569406	0	0
2024-09-20 08:54:47			0	37790	0	0	0	23272	21860	160959	27294	1056510	46412	108575	0	0	8175	568364	0	0
2024-09-20 08:55:47			0	37778	0	0	0	23283	21860	160875	27485	1056510	46423	108579	0	0	8174	568845	0	0
2024-09-20 08:56:47			0	37782	0	0	0	23270	21850	160907	27272	1056572	46411	108574	0	0	8174	568716	0	0
2024-09-20 08:57:47			0	37787	0	0	0	23280	21860	160843	27486	1056563	46401	108578	0	0	8175	568484	0	0
2024-09-20 08:58:47			0	37780	0	0	0	23277	21860	160911	27398	1056510	46390	108577	0	0	8174	568765	0	0
2024-09-20 08:59:47			0	37789	0	0	0	23277	21850	160915	27112	1056599	46400	108577	0	0	8175	568436	0	0
2024-09-20 09:00:47			0	37780	0	0	0	23275	21860	160915	27319	1056599	46402	108576	0	0	8174	568765	0	0
2024-09-20 09:01:47			0	37775	0	0	0	23277	21860	160991	27445	1056510	46412	108577	0	0	8174	568965	0	0
2024-09-20 09:02:47			0	37788	0	0	0	23277	21860	161015	27249	1056572	46402	108577	0	0	8175	568444	0	0
2024-09-20 09:03:47			0	37768	0	0	0	23288	21860	160999	27131	1056563	46401	108581	0	0	8173	569245	0	0
2024-09-20 09:04:47			0	37783	0	0	0	23270	21860	160919	26899	1056572	46402	108574	0	0	8175	568644	0	0
2024-09-20 09:05:47			0	37769	0	0	0	23272	21860	160923	27237	1056599	46413	108575	0	0	8174	569205	0	0
2024-09-20 09:06:47			0	37777	0	0	0	23298	21860	160943	27100	1056625	46413	108585	0	0	8174	568885	0	0
2024-09-20 09:07:47			0	37795	0	0	0	23275	21860	160847	27187	1056599	46402	108576	0	0	8175	568164	0	0
2024-09-20 09:08:47			0	37824	0	0	0	23264	21870	160891	27403	1056581	46402	108572	0	0	8177	566972	0	0
2024-09-20 09:09:47			0	37796	0	0	0	23270	21870	160839	27248	1056554	46413	108574	0	0	8175	568092	0	0
2024-09-20 09:10:47			0	37807	0	0	0	23272	21860	160827	26989	1056545	46413	108575	0	0	8176	567684	0	0
2024-09-20 09:11:47			0	37796	0	0	0	23275	21870	160791	27119	1056608	46413	108576	0	0	8175	568092	0	0
2024-09-20 09:12:47			0	37799	0	0	0	23280	21860	160747	27338	1056536	46401	108578	0	0	8175	568004	0	0
2024-09-20 09:13:47			0	37809	0	0	0	23288	21860	160847	27455	1056563	46401	108581	0	0	8176	567604	0	0
2024-09-20 09:14:47			0	37819	0	0	0	23309	21870	160747	27079	1056608	46402	108589	0	0	8176	567172	0	0
2024-09-20 09:15:47			0	37835	0	0	0	23311	21870	160667	27538	1056554	46402	108590	0	0	8177	566533	0	0
2024-09-20 09:16:47			0	37841	0	0	0	23301	21860	160599	27488	1056625	46402	108586	0	0	8177	566325	0	0
2024-09-20 09:17:47			0	37861	0	0	0	23298	21870	160531	27351	1056617	46413	108585	0	0	8179	565495	0	0
2024-09-20 09:18:47			0	37869	0	0	0	23301	21870	160515	27255	1056697	46402	108586	0	0	8179	565176	0	0
2024-09-20 09:19:47			0	37864	0	0	0	23306	21870	160535	27339	1056608	46424	108588	0	0	8179	565375	0	0
2024-09-20 09:20:47			0	37874	0	0	0	23314	21870	160487	27606	1056643	46424	108591	0	0	8179	564976	0	0
2024-09-20 09:21:47			0	37871	0	0	0	23306	21880	160443	27202	1056652	46414	108588	0	0	8179	565065	0	0
2024-09-20 09:22:47			0	37879	0	0	0	23290	21870	160459	27204	1056643	46413	108582	0	0	8180	564777	0	0
2024-09-20 09:23:47			0	37885	0	0	0	23293	21870	160475	27199	1056670	46391	108583	0	0	8180	564538	0	0
2024-09-20 09:24:47			0	37886	0	0	0	23306	21880	160371	27457	1056679	46414	108588	0	0	8180	564466	0	0
2024-09-20 09:25:47			0	37873	0	0	0	23306	21880	160511	27284	1056652	46414	108588	0	0	8179	564985	0	0
2024-09-20 09:26:47			0	37867	0	0	0	23311	21880	160391	27329	1056661	46404	108590	0	0	8179	565224	0	0
2024-09-20 09:27:47			0	37881	0	0	0	23311	21880	160283	27448	1056688	46404	108590	0	0	8180	564666	0	0
2024-09-20 09:28:47			0	37874	0	0	0	23306	21880	160407	27840	1056635	46404	108588	0	0	8179	564945	0	0
2024-09-20 09:29:47			0	37891	0	0	0	23311	21890	160311	27396	1056723	46393	108590	0	0	8180	564236	0	0
2024-09-20 09:30:47			0	37924	0	0	0	23309	21880	160391	27332	1056714	46415	108589	0	0	8182	562953	0	0
2024-09-20 09:31:47			0	37916	0	0	0	23306	21890	160179	27647	1056723	46415	108588	0	0	8182	563240	0	0
2024-09-20 09:32:47			0	37907	0	0	0	23303	21890	160195	27495	1056750	46404	108587	0	0	8181	563598	0	0
2024-09-20 09:33:47			0	37903	0	0	0	23311	21890	160263	27457	1056679	46404	108590	0	0	8181	563758	0	0
2024-09-20 09:34:47			0	37920	0	0	0	23319	21890	160179	27358	1056697	46404	108593	0	0	8182	563081	0	0
2024-09-20 09:35:47			0	37926	0	0	0	23277	21890	160179	27367	1056723	46415	108577	0	0	8183	562842	0	0
2024-09-20 09:36:47			0	37902	0	0	0	23288	21890	160283	27104	1056697	46404	108581	0	0	8181	563798	0	0
2024-09-20 09:37:47			0	37913	0	0	0	23288	21900	160323	27173	1056688	46394	108581	0	0	8182	563328	0	0
2024-09-20 09:38:47			0	37914	0	0	0	23298	21880	160227	27268	1056679	46403	108585	0	0	8182	563351	0	0
2024-09-20 09:39:47			0	37887	0	0	0	23283	21880	160371	26956	1056661	46404	108579	0	0	8181	564427	0	0
2024-09-20 09:40:47			0	37871	0	0	0	23285	21880	160319	27237	1056635	46404	108580	0	0	8180	565065	0	0
2024-09-20 09:41:47			0	37895	0	0	0	23288	21880	160375	27118	1056661	46393	108581	0	0	8181	564108	0	0
2024-09-20 09:42:47			0	37869	0	0	0	23290	21880	160483	27339	1056635	46393	108582	0	0	8179	565144	0	0
2024-09-20 09:43:47			0	37892	0	0	0	23290	21880	160415	27357	1056688	46426	108582	0	0	8181	564227	0	0
2024-09-20 09:44:47			0	37888	0	0	0	23293	21880	160395	27265	1056661	46415	108583	0	0	8180	564387	0	0
2024-09-20 09:45:47			0	37876	0	0	0	23293	21880	160459	27137	1056714	46404	108583	0	0	8180	564865	0	0
2024-09-20 09:46:47			0	37882	0	0	0	23303	21880	160447	27457	1056652	46414	108587	0	0	8180	564626	0	0
2024-09-20 09:47:47			0	37871	0	0	0	23306	21880	160419	27164	1056652	46403	108588	0	0	8179	565065	0	0
2024-09-20 09:48:47			0	37897	0	0	0	23306	21880	160435	27119	1056688	46415	108588	0	0	8181	564028	0	0
2024-09-20 09:49:47			0	37889	0	0	0	23306	21890	160327	27455	1056697	46415	108588	0	0	8180	564315	0	0
2024-09-20 09:50:47			0	37877	0	0	0	23303	21890	160355	27220	1056706	46393	108587	0	0	8180	564794	0	0
2024-09-20 09:51:47			0	37867	0	0	0	23290	21880	160487	27085	1056714	46415	108582	0	0	8179	565224	0	0
2024-09-20 09:52:47			0	37886	0	0	0	23301	21880	160483	27098	1056714	46404	108586	0	0	8180	564466	0	0
2024-09-20 09:53:47			0	37874	0	0	0	23301	21880	160387	27218	1056688	46415	108586	0	0	8180	564945	0	0
2024-09-20 09:54:47			0	37888	0	0	0	23311	21880	160435	27215	1056635	46404	108590	0	0	8180	564387	0	0
2024-09-20 09:55:47			0	37894	0	0	0	23303	21890	160415	27407	1056697	46393	108587	0	0	8181	564116	0	0
2024-09-20 09:56:47			0	37868	0	0	0	23303	21890	160479	27405	1056643	46415	108587	0	0	8179	565153	0	0
2024-09-20 09:57:47			0	37860	0	0	0	23306	21890	160443	27708	1056697	46404	108588	0	0	8179	565472	0	0
2024-09-20 09:58:47			0	37858	0	0	0	23314	21890	160495	27372	1056652	46415	108591	0	0	8178	565551	0	0
2024-09-20 09:59:47			0	37827	0	0	0	23306	21890	160503	27142	1056723	46404	108588	0	0	8177	566789	0	0
2024-09-20 10:00:47			0	37831	0	0	0	23306	21890	160555	27725	1056706	46415	108588	0	0	8177	566630	0	0
2024-09-20 10:01:47			0	37836	0	0	0	23306	21900	160647	27812	1056688	46405	108588	0	0	8177	566398	0	0
2024-09-20 10:02:47			0	37820	0	0	0	23309	21890	160655	27540	1056759	46415	108589	0	0	8176	567069	0	0
2024-09-20 10:03:47			0	37821	0	0	0	23296	21890	160771	27189	1056723	46404	108584	0	0	8177	567029	0	0
2024-09-20 10:04:47			0	37811	0	0	0	23301	21900	160683	27154	1056715	46405	108586	0	0	8176	567397	0	0
2024-09-20 10:05:47			0	37816	0	0	0	23309	21890	160623	27284	1056750	46404	108589	0	0	8176	567229	0	0
2024-09-20 10:06:47			0	37829	0	0	0	23309	21890	160639	27402	1056803	46404	108589	0	0	8177	566710	0	0
2024-09-20 10:07:47			0	37826	0	0	0	23319	21890	160579	27365	1056750	46404	108593	0	0	8176	566829	0	0
2024-09-20 10:08:47			0	37833	0	0	0	23322	21890	160607	27313	1056723	46415	108594	0	0	8177	566550	0	0
2024-09-20 10:09:47			0	37815	0	0	0	23322	21900	160627	27483	1056768	46416	108594	0	0	8176	567238	0	0
2024-09-20 10:10:47			0	37821	0	0	0	23322	21900	160719	27490	1056804	46428	108594	0	0	8176	566998	0	0
2024-09-20 10:11:47			0	37821	0	0	0	23340	21890	160623	27660	1056759	46426	108601	0	0	8176	567029	0	0
2024-09-20 10:12:47			0	37858	0	0	0	23332	21910	160591	27343	1056733	46416	108598	0	0	8178	565488	0	0
2024-09-20 10:13:47			0	37870	0	0	0	23332	21900	160459	27419	1056804	46428	108598	0	0	8179	565041	0	0
2024-09-20 10:14:47			0	37887	0	0	0	23332	21900	160371	27255	1056777	46406	108598	0	0	8180	564364	0	0
2024-09-20 10:15:47			0	37895	0	0	0	23335	21910	160363	27450	1056839	46416	108599	0	0	8180	564013	0	0
2024-09-20 10:16:47			0	37895	0	0	0	23329	21910	160267	27424	1056795	46417	108597	0	0	8180	564013	0	0
2024-09-20 10:17:47			0	37917	0	0	0	23342	21910	160271	27313	1056875	46417	108602	0	0	8181	563138	0	0
2024-09-20 10:18:47			0	37904	0	0	0	23335	21910	160275	27493	1056875	46407	108599	0	0	8181	563655	0	0
2024-09-20 10:19:47			0	37901	0	0	0	23348	21910	160291	27673	1056812	46416	108604	0	0	8180	563774	0	0
2024-09-20 10:20:47			0	37913	0	0	0	23345	21920	160327	27365	1056866	46408	108603	0	0	8181	563265	0	0
2024-09-20 10:21:47			0	37914	0	0	0	23345	21920	160347	27542	1056893	46408	108603	0	0	8181	563226	0	0
2024-09-20 10:22:47			0	37930	0	0	0	23342	21930	160315	27433	1056910	46409	108602	0	0	8182	562558	0	0
2024-09-20 10:23:47			0	37922	0	0	0	23348	21920	160303	27287	1056919	46430	108604	0	0	8182	562907	0	0
2024-09-20 10:24:47			0	37941	0	0	0	23345	21930	160223	27597	1056902	46431	108603	0	0	8183	562120	0	0
2024-09-20 10:25:47			0	37925	0	0	0	23335	21920	160195	27260	1056919	46430	108599	0	0	8182	562788	0	0
2024-09-20 10:26:47			0	37942	0	0	0	23340	21920	160123	27516	1056893	46419	108601	0	0	8183	562112	0	0
2024-09-20 10:27:47			0	37956	0	0	0	23337	21910	160119	27779	1056821	46429	108600	0	0	8184	561587	0	0
2024-09-20 10:28:47			0	37947	0	0	0	23329	21930	160059	27362	1056857	46420	108597	0	0	8184	561882	0	0
2024-09-20 10:29:47			0	37964	0	0	0	23324	21920	159923	27352	1056884	46417	108595	0	0	8185	561238	0	0
2024-09-20 10:30:47			0	37994	0	0	0	23319	21920	159947	27216	1056919	46408	108593	0	0	8186	560048	0	0
2024-09-20 10:31:47			0	38000	0	0	0	23327	21920	159915	27258	1056857	46407	108596	0	0	8187	559810	0	0
2024-09-20 10:32:47			0	38013	0	0	0	23324	21930	159887	27346	1056822	46409	108595	0	0	8188	559263	0	0
2024-09-20 10:33:47			0	37999	0	0	0	23329	21930	159923	27275	1056848	46409	108597	0	0	8187	559818	0	0
2024-09-20 10:34:47			0	38020	0	0	0	23332	21930	159940	27343	1056848	46409	108598	0	0	8188	558986	0	0
2024-09-20 10:35:47			0	38010	0	0	0	23335	21920	159951	27300	1056830	46407	108599	0	0	8187	559413	0	0
2024-09-20 10:36:47			0	38026	0	0	0	23332	21930	159899	27372	1056875	46398	108598	0	0	8188	558748	0	0
2024-09-20 10:37:47			0	38016	0	0	0	23335	21930	159884	27367	1056884	46420	108599	0	0	8187	559144	0	0
2024-09-20 10:38:47			0	38008	0	0	0	23342	21920	159967	27582	1056893	46408	108602	0	0	8187	559493	0	0
2024-09-20 10:39:47			0	37977	0	0	0	23348	21930	160023	27576	1056955	46409	108604	0	0	8185	560691	0	0
2024-09-20 10:40:47			0	37979	0	0	0	23353	21920	160071	27407	1056964	46417	108606	0	0	8185	560643	0	0
2024-09-20 10:41:47			0	37964	0	0	0	23342	21920	160167	27473	1056946	46419	108602	0	0	8184	561238	0	0
2024-09-20 10:42:47			0	37964	0	0	0	23350	21920	160287	27381	1056999	46408	108605	0	0	8184	561238	0	0
2024-09-20 10:43:47			0	37974	0	0	0	23353	21930	160195	27403	1056937	46420	108606	0	0	8185	560810	0	0
2024-09-20 10:44:47			0	37957	0	0	0	23373	21930	160167	27303	1056937	46420	108614	0	0	8183	561485	0	0
2024-09-20 10:45:47			0	37961	0	0	0	23392	21930	160083	27441	1057017	46420	108621	0	0	8183	561326	0	0
2024-09-20 10:46:47			0	37961	0	0	0	23389	21940	159963	27145	1057062	46410	108620	0	0	8183	561295	0	0
2024-09-20 10:47:47			0	37983	0	0	0	23394	21950	159927	27277	1057124	46411	108622	0	0	8185	560390	0	0
2024-09-20 10:48:47			0	37993	0	0	0	23381	21940	159975	27414	1057008	46421	108617	0	0	8185	560025	0	0
2024-09-20 10:49:47			0	38001	0	0	0	23371	21950	159895	27563	1057071	46411	108613	0	0	8186	559676	0	0
2024-09-20 10:50:47			0	38028	0	0	0	23376	21950	159856	27521	1057017	46400	108615	0	0	8188	558607	0	0
2024-09-20 10:51:47			0	38015	0	0	0	23358	21950	159887	27679	1057044	46411	108608	0	0	8187	559122	0	0
2024-09-20 10:52:47			0	38008	0	0	0	23353	21950	159851	27376	1057080	46421	108606	0	0	8187	559399	0	0
2024-09-20 10:53:47			0	38020	0	0	0	23342	21950	159835	27201	1056937	46421	108602	0	0	8188	558924	0	0
2024-09-20 10:54:47			0	38036	0	0	0	23337	21930	159808	27582	1056937	46398	108600	0	0	8189	558352	0	0
2024-09-20 10:55:47			0	38037	0	0	0	23340	21950	159716	27263	1057017	46400	108601	0	0	8189	558251	0	0
2024-09-20 10:56:47			0	38080	0	0	0	23353	21950	159628	27649	1056911	46411	108606	0	0	8191	556551	0	0
2024-09-20 10:57:47			0	38080	0	0	0	23358	21940	159544	27796	1057008	46410	108608	0	0	8191	556582	0	0
2024-09-20 10:58:47			0	38091	0	0	0	23376	21940	159492	27467	1057008	46410	108615	0	0	8191	556147	0	0
2024-09-20 10:59:47			0	38095	0	0	0	23366	21940	159496	27673	1056955	46410	108611	0	0	8192	555989	0	0
2024-09-20 11:00:47			0	38098	0	0	0	23373	21940	159512	27329	1057053	46409	108614	0	0	8192	555871	0	0
2024-09-20 11:01:47			0	38099	0	0	0	23371	21950	159496	27355	1057071	46400	108613	0	0	8192	555801	0	0
2024-09-20 11:02:47			0	38094	0	0	0	23371	21950	159520	27393	1057017	46389	108613	0	0	8192	555998	0	0
2024-09-20 11:03:47			0	38091	0	0	0	23368	21950	159440	27708	1057071	46411	108612	0	0	8191	556116	0	0
2024-09-20 11:04:47			0	38110	0	0	0	23368	21940	159580	27653	1057035	46432	108612	0	0	8192	555397	0	0
2024-09-20 11:05:47			0	38117	0	0	0	23379	21940	159540	27196	1057035	46410	108616	0	0	8193	555121	0	0
2024-09-20 11:06:47			0	38111	0	0	0	23373	21950	159520	27320	1057053	46411	108614	0	0	8192	555327	0	0
2024-09-20 11:07:47			0	38107	0	0	0	23373	21960	159440	27478	1057062	46433	108614	0	0	8192	555454	0	0
2024-09-20 11:08:47			0	38112	0	0	0	23371	21960	159440	27531	1057089	46411	108613	0	0	8193	555257	0	0
2024-09-20 11:09:47			0	38118	0	0	0	23376	21960	159380	27471	1057089	46411	108615	0	0	8193	555020	0	0
2024-09-20 11:10:47			0	38127	0	0	0	23379	21950	159320	27338	1057080	46411	108616	0	0	8193	554696	0	0
2024-09-20 11:11:47			0	38151	0	0	0	23371	21950	159444	27150	1057080	46411	108613	0	0	8195	553751	0	0
2024-09-20 11:12:47			0	38137	0	0	0	23381	21960	159344	27156	1057098	46423	108617	0	0	8194	554271	0	0
2024-09-20 11:13:47			0	38152	0	0	0	23373	21960	159272	27144	1057062	46421	108614	0	0	8195	553681	0	0
2024-09-20 11:14:47			0	38171	0	0	0	23373	21960	159192	27206	1057036	46433	108614	0	0	8196	552933	0	0
2024-09-20 11:15:47			0	38171	0	0	0	23379	21960	159180	27043	1057089	46400	108616	0	0	8196	552933	0	0
2024-09-20 11:16:47			0	38183	0	0	0	23373	21960	159220	27405	1057062	46411	108614	0	0	8197	552461	0	0
2024-09-20 11:17:47			0	38196	0	0	0	23373	21960	159152	27455	1057142	46400	108614	0	0	8198	551950	0	0
2024-09-20 11:18:47			0	38189	0	0	0	23368	21970	159084	27315	1057080	46413	108612	0	0	8197	552194	0	0
2024-09-20 11:19:47			0	38223	0	0	0	23379	21960	158988	27343	1057116	46411	108616	0	0	8199	550890	0	0
2024-09-20 11:20:47			0	38247	0	0	0	23392	21960	158972	27360	1057062	46411	108621	0	0	8200	549948	0	0
2024-09-20 11:21:47			0	38231	0	0	0	23405	21950	159028	27390	1057080	46421	108626	0	0	8199	550607	0	0
2024-09-20 11:22:47			0	38211	0	0	0	23412	21970	159092	27282	1057133	46424	108629	0	0	8198	551330	0	0
2024-09-20 11:23:47			0	38197	0	0	0	23402	21970	159164	27201	1057107	46424	108625	0	0	8197	551880	0	0
2024-09-20 11:24:47			0	38196	0	0	0	23389	21960	159060	27419	1057178	46423	108620	0	0	8197	551950	0	0
2024-09-20 11:25:47			0	38229	0	0	0	23386	21970	159068	27521	1057160	46413	108619	0	0	8199	550624	0	0
2024-09-20 11:26:47			0	38236	0	0	0	23379	21980	158972	27492	1057125	46413	108616	0	0	8200	550318	0	0
2024-09-20 11:27:47			0	38260	0	0	0	23384	21970	158888	27628	1057196	46413	108618	0	0	8201	549408	0	0
2024-09-20 11:28:47			0	38257	0	0	0	23392	21970	158920	27561	1057133	46413	108621	0	0	8201	549526	0	0
2024-09-20 11:29:47			0	38277	0	0	0	23389	21970	158876	27519	1057169	46424	108620	0	0	8202	548743	0	0
2024-09-20 11:30:47			0	38270	0	0	0	23394	21970	158784	27365	1057169	46402	108622	0	0	8202	549017	0	0
2024-09-20 11:31:47			0	38268	0	0	0	23399	21970	158736	27293	1057133	46413	108624	0	0	8201	549095	0	0
2024-09-20 11:32:47			0	38293	0	0	0	23412	21970	158840	27460	1057213	46424	108629	0	0	8203	548116	0	0
2024-09-20 11:33:47			0	38291	0	0	0	23436	21980	158768	27149	1057231	46424	108638	0	0	8202	548164	0	0
2024-09-20 11:34:47			0	38308	0	0	0	23412	21980	158812	27531	1057285	46446	108629	0	0	8203	547499	0	0
2024-09-20 11:35:47			0	38303	0	0	0	23418	21980	158724	27215	1057231	46424	108631	0	0	8203	547695	0	0
2024-09-20 11:36:47			0	38313	0	0	0	23436	21990	158848	27708	1057276	46426	108638	0	0	8203	547273	0	0
2024-09-20 11:37:47			0	38301	0	0	0	23446	21980	158824	27459	1057285	46424	108642	0	0	8202	547773	0	0
2024-09-20 11:38:47			0	38293	0	0	0	23431	21990	158684	27701	1057338	46427	108636	0	0	8202	548055	0	0
2024-09-20 11:39:47			0	38319	0	0	0	23425	22000	158652	27485	1057320	46427	108634	0	0	8204	547008	0	0
2024-09-20 11:40:47			0	38341	0	0	0	23412	21990	158596	27616	1057285	46438	108629	0	0	8205	546180	0	0
2024-09-20 11:41:47			0	38351	0	0	0	23423	22000	158484	27230	1057320	46416	108633	0	0	8206	545759	0	0
2024-09-20 11:42:47			0	38363	0	0	0	23433	22010	158496	27232	1057276	46416	108637	0	0	8206	545261	0	0
2024-09-20 11:43:47			0	38358	0	0	0	23436	22020	158424	27350	1057347	46429	108638	0	0	8206	545425	0	0
2024-09-20 11:44:47			0	38371	0	0	0	23444	22000	158460	27677	1057320	46427	108641	0	0	8207	544979	0	0
2024-09-20 11:45:47			0	38384	0	0	0	23449	22000	158400	27462	1057374	46416	108643	0	0	8207	544473	0	0
2024-09-20 11:46:47			0	38386	0	0	0	23454	22020	158388	27473	1057401	46417	108645	0	0	8207	544334	0	0
2024-09-20 11:47:47			0	38385	0	0	0	23464	22010	158424	27640	1057338	46428	108649	0	0	8207	544403	0	0
2024-09-20 11:48:47			0	38380	0	0	0	23467	22020	158408	27493	1057383	46440	108650	0	0	8207	544568	0	0
2024-09-20 11:49:47			0	38371	0	0	0	23483	22030	158332	27419	1057498	46440	108656	0	0	8206	544888	0	0
2024-09-20 11:50:47			0	38359	0	0	0	23496	22020	158512	27326	1057481	46451	108661	0	0	8205	545386	0	0
2024-09-20 11:51:47			0	38335	0	0	0	23501	22030	158692	27457	1057498	46429	108663	0	0	8204	546292	0	0
2024-09-20 11:52:47			0	38290	0	0	0	23490	22030	158660	27258	1057507	46430	108659	0	0	8201	548050	0	0
2024-09-20 11:53:47			0	38287	0	0	0	23501	22050	158724	27107	1057588	46431	108663	0	0	8201	548107	0	0
2024-09-20 11:54:47			0	38271	0	0	0	23519	22060	158788	27105	1057579	46433	108670	0	0	8200	548702	0	0
2024-09-20 11:55:47			0	38280	0	0	0	23514	22050	158836	27613	1057543	46443	108668	0	0	8200	548381	0	0
2024-09-20 11:56:47			0	38283	0	0	0	23519	22050	158736	27235	1057596	46443	108670	0	0	8201	548263	0	0
2024-09-20 11:57:47			0	38271	0	0	0	23509	22050	158816	27050	1057570	46443	108666	0	0	8200	548733	0	0
2024-09-20 11:58:47			0	38253	0	0	0	23503	22060	158936	27067	1057632	46433	108664	0	0	8199	549407	0	0
2024-09-20 11:59:47			0	38224	0	0	0	23498	22060	158912	26949	1057668	46422	108662	0	0	8197	550544	0	0
2024-09-20 12:00:47			0	38217	0	0	0	23503	22070	159048	27305	1057597	46434	108664	0	0	8197	550787	0	0
2024-09-20 12:01:47			0	38228	0	0	0	23511	22080	158968	27543	1057642	46446	108667	0	0	8198	550325	0	0
2024-09-20 12:02:47			0	38203	0	0	0	23511	22070	159124	27225	1057686	46422	108667	0	0	8196	551337	0	0
2024-09-20 12:03:47			0	38217	0	0	0	23514	22080	159052	27279	1057695	46446	108668	0	0	8197	550757	0	0
2024-09-20 12:04:47			0	38196	0	0	0	23511	22070	159036	27424	1057659	46422	108667	0	0	8196	551612	0	0
2024-09-20 12:05:47			0	38217	0	0	0	23511	22070	159000	27360	1057713	46422	108667	0	0	8197	550787	0	0
2024-09-20 12:06:47			0	38196	0	0	0	23506	22080	159076	27296	1057651	46436	108665	0	0	8196	551581	0	0
2024-09-20 12:07:47			0	38190	0	0	0	23509	22080	159012	27384	1057695	46423	108666	0	0	8195	551817	0	0
2024-09-20 12:08:47			0	38192	0	0	0	23503	22080	159060	27616	1057677	46436	108664	0	0	8196	551738	0	0
2024-09-20 12:09:47			0	38209	0	0	0	23506	22080	159064	27294	1057704	46414	108665	0	0	8197	551071	0	0
2024-09-20 12:10:47			0	38212	0	0	0	23498	22080	158976	27557	1057731	46436	108662	0	0	8197	550953	0	0
2024-09-20 12:11:47			0	38222	0	0	0	23509	22080	159024	27140	1057624	46424	108666	0	0	8197	550561	0	0
2024-09-20 12:12:47			0	38215	0	0	0	23506	22080	158984	27255	1057704	46458	108665	0	0	8197	550835	0	0
2024-09-20 12:13:47			0	38205	0	0	0	23503	22090	159052	27360	1057686	46414	108664	0	0	8196	551197	0	0
2024-09-20 12:14:47			0	38233	0	0	0	23503	22080	158924	27419	1057758	46436	108664	0	0	8198	550129	0	0
2024-09-20 12:15:47			0	38219	0	0	0	23506	22090	158888	27455	1057713	46436	108665	0	0	8197	550648	0	0
2024-09-20 12:16:47			0	38233	0	0	0	23506	22080	158908	27588	1057677	46436	108665	0	0	8198	550129	0	0
2024-09-20 12:17:47			0	38221	0	0	0	23511	22080	158940	27431	1057704	46424	108667	0	0	8197	550600	0	0
2024-09-20 12:18:47			0	38227	0	0	0	23509	22090	158932	27305	1057749	46424	108666	0	0	8198	550334	0	0
2024-09-20 12:19:47			0	38231	0	0	0	23503	22080	158908	27563	1057758	46424	108664	0	0	8198	550208	0	0
2024-09-20 12:20:47			0	38237	0	0	0	23509	22090	158812	27466	1057740	46424	108666	0	0	8198	549942	0	0
2024-09-20 12:21:47			0	38245	0	0	0	23511	22080	158852	27279	1057704	46424	108667	0	0	8199	549659	0	0
2024-09-20 12:22:47			0	38242	0	0	0	23514	22090	158828	27237	1057722	46436	108668	0	0	8198	549746	0	0
2024-09-20 12:23:47			0	38250	0	0	0	23511	22090	158864	27163	1057740	46436	108667	0	0	8199	549432	0	0
2024-09-20 12:24:47			0	38246	0	0	0	23522	22080	158880	27296	1057704	46424	108671	0	0	8198	549620	0	0
2024-09-20 12:25:47			0	38247	0	0	0	23514	22090	158836	27267	1057793	46414	108668	0	0	8199	549550	0	0
2024-09-20 12:26:47			0	38242	0	0	0	23524	22080	158920	27256	1057731	46436	108672	0	0	8198	549777	0	0
2024-09-20 12:27:47			0	38249	0	0	0	23522	22080	158912	27000	1057758	46424	108671	0	0	8199	549502	0	0
2024-09-20 12:28:47			0	38245	0	0	0	23529	22090	158860	27345	1057775	46436	108674	0	0	8198	549628	0	0
2024-09-20 12:29:47			0	38263	0	0	0	23524	22090	158804	27178	1057686	46424	108672	0	0	8199	548923	0	0
2024-09-20 12:30:47			0	38252	0	0	0	23537	22110	158856	27208	1057829	46426	108677	0	0	8199	549293	0	0
2024-09-20 12:31:47			0	38266	0	0	0	23553	22090	158768	27062	1057749	46447	108683	0	0	8199	548806	0	0
2024-09-20 12:32:47			0	38275	0	0	0	23542	22100	158776	27343	1057838	46448	108679	0	0	8200	548423	0	0
2024-09-20 12:33:47			0	38267	0	0	0	23555	22110	158724	27149	1057838	46438	108684	0	0	8199	548706	0	0
2024-09-20 12:34:47			0	38266	0	0	0	23555	22110	158656	27156	1057865	46426	108684	0	0	8199	548745	0	0
2024-09-20 12:35:47			0	38289	0	0	0	23550	22110	158600	27419	1057838	46426	108682	0	0	8201	547845	0	0
2024-09-20 12:36:47			0	38295	0	0	0	23555	22110	158596	27653	1057838	46449	108684	0	0	8201	547611	0	0
2024-09-20 12:37:47			0	38300	0	0	0	23566	22130	158728	27431	1057891	46452	108688	0	0	8201	547354	0	0
2024-09-20 12:38:47			0	38308	0	0	0	23576	22130	158556	27192	1057918	46429	108692	0	0	8201	547042	0	0
2024-09-20 12:39:47			0	38313	0	0	0	23586	22120	158444	27568	1057962	46451	108696	0	0	8201	546877	0	0
2024-09-20 12:40:47			0	38338	0	0	0	23594	22140	158448	27528	1058069	46441	108699	0	0	8203	545840	0	0
2024-09-20 12:41:47			0	38346	0	0	0	23605	22130	158404	27585	1058007	46441	108703	0	0	8203	545558	0	0
2024-09-20 12:42:47			0	38380	0	0	0	23605	22140	158288	27440	1058025	46453	108703	0	0	8205	544203	0	0
2024-09-20 12:43:47			0	38398	0	0	0	23602	22150	158188	27161	1058123	46454	108702	0	0	8206	543473	0	0
2024-09-20 12:44:47			0	38405	0	0	0	23602	22150	158036	27331	1058149	46454	108702	0	0	8207	543200	0	0
2024-09-20 12:45:47			0	38411	0	0	0	23602	22160	158040	27315	1058114	46444	108702	0	0	8207	542937	0	0
2024-09-20 12:46:47			0	38430	0	0	0	23607	22160	158004	27248	1058105	46454	108704	0	0	8208	542198	0	0
2024-09-20 12:47:47			0	38450	0	0	0	23602	22160	157928	27294	1058114	46433	108702	0	0	8209	541422	0	0
2024-09-20 12:48:47			0	38433	0	0	0	23607	22170	157880	27677	1058185	46456	108704	0	0	8208	542052	0	0
2024-09-20 12:49:47			0	38439	0	0	0	23615	22160	157980	27433	1058167	46433	108707	0	0	8208	541849	0	0
2024-09-20 12:50:47			0	38448	0	0	0	23615	22180	157828	27545	1058168	46456	108707	0	0	8209	541439	0	0
2024-09-20 12:51:47			0	38468	0	0	0	23625	22180	157880	27523	1058114	46466	108711	0	0	8210	540663	0	0
2024-09-20 12:52:47			0	38463	0	0	0	23620	22180	157828	27386	1058221	46456	108709	0	0	8210	540857	0	0
2024-09-20 12:53:47			0	38479	0	0	0	23625	22180	157776	27512	1058203	46446	108711	0	0	8211	540237	0	0
2024-09-20 12:54:47			0	38482	0	0	0	23636	22180	157708	27396	1058230	46457	108715	0	0	8211	540120	0	0
2024-09-20 12:55:47			0	38507	0	0	0	23644	22190	157748	27341	1058265	46458	108718	0	0	8212	539122	0	0
2024-09-20 12:56:47			0	38493	0	0	0	23664	22200	157768	27383	1058293	46437	108726	0	0	8211	539634	0	0
2024-09-20 12:57:47			0	38491	0	0	0	23670	22200	157800	27467	1058319	46448	108728	0	0	8211	539711	0	0
2024-09-20 12:58:47			0	38493	0	0	0	23664	22200	157748	27332	1058390	46458	108726	0	0	8211	539634	0	0
2024-09-20 12:59:47			0	38511	0	0	0	23662	22210	157692	27346	1058444	46460	108725	0	0	8212	538907	0	0
2024-09-20 13:00:47			0	38478	0	0	0	23670	22220	157816	27215	1058400	46460	108728	0	0	8210	540155	0	0
2024-09-20 13:01:47			0	38488	0	0	0	23675	22210	157664	27284	1058417	46460	108730	0	0	8211	539798	0	0
2024-09-20 13:02:47			0	38468	0	0	0	23680	22230	157800	27234	1058444	46472	108732	0	0	8209	540512	0	0
2024-09-20 13:03:47			0	38464	0	0	0	23701	22230	157620	27390	1058480	46462	108740	0	0	8209	540667	0	0
2024-09-20 13:04:47			0	38453	0	0	0	23696	22250	157716	27440	1058587	46474	108738	0	0	8208	541033	0	0
2024-09-20 13:05:47			0	38442	0	0	0	23638	22240	157964	27336	1058551	46462	108716	0	0	8209	541490	0	0
2024-09-20 13:06:47			0	38412	0	0	0	23654	22240	157968	27312	1058498	46452	108722	0	0	8207	542655	0	0
2024-09-20 13:07:47			0	38414	0	0	0	23649	22240	158016	27147	1058498	46429	108720	0	0	8207	542578	0	0
2024-09-20 13:08:47			0	38422	0	0	0	23646	22250	157904	27492	1058480	46453	108719	0	0	8207	542237	0	0
2024-09-20 13:09:47			0	38410	0	0	0	23649	22250	157992	27320	1058400	46453	108720	0	0	8207	542703	0	0
2024-09-20 13:10:47			0	38400	0	0	0	23664	22240	158056	27407	1058471	46452	108726	0	0	8206	543122	0	0
2024-09-20 13:11:47			0	38381	0	0	0	23659	22240	158064	27358	1058409	46441	108724	0	0	8205	543861	0	0
2024-09-20 13:12:47			0	38369	0	0	0	23664	22250	158176	27441	1058489	46454	108726	0	0	8204	544297	0	0
2024-09-20 13:13:47			0	38368	0	0	0	23649	22250	158208	27412	1058507	46442	108720	0	0	8204	544336	0	0
2024-09-20 13:14:47			0	38361	0	0	0	23662	22240	158140	27431	1058435	46462	108725	0	0	8204	544639	0	0
2024-09-20 13:15:47			0	38362	0	0	0	23662	22240	158140	27443	1058489	46452	108725	0	0	8204	544600	0	0
2024-09-20 13:16:47			0	38364	0	0	0	23654	22250	158104	27725	1058507	46453	108722	0	0	8204	544492	0	0
2024-09-20 13:17:47			0	38360	0	0	0	23670	22240	158220	27540	1058489	46441	108728	0	0	8203	544678	0	0
2024-09-20 13:18:47			0	38364	0	0	0	23664	22250	158212	27495	1058507	46453	108726	0	0	8204	544492	0	0
2024-09-20 13:19:47			0	38380	0	0	0	23672	22240	158076	27618	1058498	46452	108729	0	0	8204	543900	0	0
2024-09-20 13:20:47			0	38373	0	0	0	23667	22250	158052	27658	1058489	46464	108727	0	0	8204	544142	0	0
2024-09-20 13:21:47			0	38385	0	0	0	23654	22250	158076	27433	1058507	46453	108722	0	0	8205	543675	0	0
2024-09-20 13:22:47			0	38378	0	0	0	23649	22250	158064	27717	1058507	46442	108720	0	0	8205	543947	0	0
2024-09-20 13:23:47			0	38380	0	0	0	23649	22240	158020	27556	1058515	46452	108720	0	0	8205	543900	0	0
2024-09-20 13:24:47			0	38384	0	0	0	23659	22250	157996	27294	1058533	46453	108724	0	0	8205	543714	0	0
2024-09-20 13:25:47			0	38401	0	0	0	23675	22250	158080	27441	1058569	46443	108730	0	0	8206	543053	0	0
2024-09-20 13:26:47			0	38411	0	0	0	23680	22250	158068	27332	1058515	46464	108732	0	0	8206	542664	0	0
2024-09-20 13:27:47			0	38411	0	0	0	23680	22250	157992	27232	1058542	46454	108732	0	0	8206	542664	0	0
2024-09-20 13:28:47			0	38389	0	0	0	23677	22260	157924	27568	1058560	46455	108731	0	0	8205	543489	0	0
2024-09-20 13:29:47			0	38411	0	0	0	23690	22260	157996	27467	1058578	46454	108736	0	0	8206	542634	0	0
2024-09-20 13:30:47			0	38406	0	0	0	23696	22260	157944	27154	1058587	46465	108738	0	0	8206	542828	0	0
2024-09-20 13:31:47			0	38423	0	0	0	23701	22260	157872	27459	1058605	46454	108740	0	0	8207	542167	0	0
2024-09-20 13:32:47			0	38415	0	0	0	23696	22260	157800	27357	1058667	46455	108738	0	0	8206	542478	0	0
2024-09-20 13:33:47			0	38407	0	0	0	23670	22280	157792	27637	1058667	46456	108728	0	0	8206	542728	0	0
2024-09-20 13:34:47			0	38437	0	0	0	23680	22260	157848	27492	1058693	46455	108732	0	0	8208	541624	0	0
2024-09-20 13:35:47			0	38406	0	0	0	23677	22280	157800	27663	1058667	46445	108731	0	0	8206	542767	0	0
2024-09-20 13:36:47			0	38402	0	0	0	23688	22280	157964	27568	1058614	46456	108735	0	0	8206	542923	0	0
2024-09-20 13:37:47			0	38414	0	0	0	23714	22280	157892	27379	1058640	46466	108745	0	0	8206	542456	0	0
2024-09-20 13:38:47			0	38432	0	0	0	23732	22290	158032	27542	1058712	46467	108752	0	0	8207	541727	0	0
2024-09-20 13:39:47			0	38443	0	0	0	23709	22300	157800	27663	1058720	46458	108743	0	0	8208	541270	0	0
2024-09-20 13:40:47			0	38442	0	0	0	23677	22290	157856	27180	1058765	46467	108731	0	0	8208	541339	0	0
2024-09-20 13:41:47			0	38435	0	0	0	23693	22290	157808	27416	1058738	46467	108737	0	0	8208	541611	0	0
2024-09-20 13:42:47			0	38449	0	0	0	23693	22290	157772	27696	1058765	46446	108737	0	0	8208	541068	0	0
2024-09-20 13:43:47			0	38455	0	0	0	23693	22300	157764	27400	1058676	46448	108737	0	0	8209	540805	0	0
2024-09-20 13:44:47			0	38444	0	0	0	23709	22300	157820	27441	1058747	46468	108743	0	0	8208	541231	0	0
2024-09-20 13:45:47			0	38452	0	0	0	23724	22310	157780	27275	1058765	46458	108749	0	0	8208	540891	0	0
2024-09-20 13:46:47			0	38445	0	0	0	23703	22310	157824	27601	1058792	46469	108741	0	0	8208	541162	0	0
2024-09-20 13:47:47			0	38445	0	0	0	23698	22300	157800	27568	1058729	46469	108739	0	0	8208	541193	0	0
2024-09-20 13:48:47			0	38462	0	0	0	23685	22300	157824	27485	1058756	46448	108734	0	0	8209	540533	0	0
2024-09-20 13:49:47			0	38449	0	0	0	23706	22300	157860	27457	1058783	46458	108742	0	0	8208	541037	0	0
2024-09-20 13:50:47			0	38456	0	0	0	23727	22310	157864	27545	1058774	46458	108750	0	0	8208	540736	0	0
2024-09-20 13:51:47			0	38456	0	0	0	23737	22310	157860	27621	1058792	46458	108754	0	0	8208	540736	0	0
2024-09-20 13:52:47			0	38479	0	0	0	23748	22310	157696	27509	1058818	46458	108758	0	0	8209	539845	0	0
2024-09-20 13:53:47			0	38481	0	0	0	23729	22310	157724	27753	1058827	46458	108751	0	0	8210	539767	0	0
2024-09-20 13:54:47			0	38496	0	0	0	23693	22310	157680	27731	1058792	46458	108737	0	0	8211	539187	0	0
2024-09-20 13:55:47			0	38492	0	0	0	23701	22310	157648	27358	1058774	46448	108740	0	0	8211	539341	0	0
2024-09-20 13:56:47			0	38502	0	0	0	23701	22310	157668	27362	1058721	46448	108740	0	0	8211	538954	0	0
2024-09-20 13:57:47			0	38475	0	0	0	23690	22310	157600	27213	1058765	46448	108736	0	0	8210	540000	0	0
2024-09-20 13:58:47			0	38488	0	0	0	23664	22310	157736	27426	1058738	46436	108726	0	0	8211	539496	0	0
2024-09-20 13:59:47			0	38468	0	0	0	23677	22310	157736	27479	1058765	46436	108731	0	0	8210	540271	0	0
2024-09-20 14:00:47			0	38461	0	0	0	23688	22300	157712	27440	1058729	46448	108735	0	0	8209	540572	0	0
2024-09-20 14:01:47			0	38476	0	0	0	23693	22300	157612	27422	1058720	46447	108737	0	0	8210	539991	0	0
2024-09-20 14:02:47			0	38478	0	0	0	23693	22290	157672	27346	1058712	46446	108737	0	0	8210	539944	0	0
2024-09-20 14:03:47			0	38486	0	0	0	23685	22280	157696	27346	1058649	46457	108734	0	0	8211	539664	0	0
2024-09-20 14:04:47			0	38482	0	0	0	23696	22290	157680	27391	1058738	46457	108738	0	0	8210	539789	0	0
2024-09-20 14:05:47			0	38480	0	0	0	23722	22290	157644	27343	1058738	46446	108748	0	0	8210	539866	0	0
2024-09-20 14:06:47			0	38498	0	0	0	23729	22300	157608	27642	1058783	46448	108751	0	0	8211	539139	0	0
2024-09-20 14:07:47			0	38505	0	0	0	23740	22300	157664	27606	1058747	46468	108755	0	0	8211	538868	0	0
2024-09-20 14:08:47			0	38513	0	0	0	23748	22310	157560	27203	1058801	46458	108758	0	0	8211	538529	0	0
2024-09-20 14:09:47			0	38519	0	0	0	23745	22300	157592	27784	1058810	46458	108757	0	0	8212	538327	0	0
2024-09-20 14:10:47			0	38530	0	0	0	23753	22310	157480	27578	1058898	46458	108760	0	0	8212	537872	0	0
2024-09-20 14:11:47			0	38547	0	0	0	23753	22320	157420	27459	1058916	46459	108760	0	0	8213	537185	0	0
2024-09-20 14:12:47			0	38544	0	0	0	23758	22320	157376	27372	1058979	46450	108762	0	0	8213	537301	0	0
2024-09-20 14:13:47			0	38540	0	0	0	23753	22320	157384	27265	1058970	46459	108760	0	0	8213	537455	0	0
2024-09-20 14:14:47			0	38564	0	0	0	23755	22320	157420	27436	1058916	46449	108761	0	0	8214	536529	0	0
2024-09-20 14:15:47			0	38578	0	0	0	23745	22330	157340	27431	1058961	46460	108757	0	0	8215	535959	0	0
2024-09-20 14:16:47			0	38566	0	0	0	23753	22330	157276	27535	1058961	46460	108760	0	0	8214	536422	0	0
2024-09-20 14:17:47			0	38567	0	0	0	23771	22320	157356	27407	1058996	46470	108767	0	0	8214	536413	0	0
2024-09-20 14:18:47			0	38573	0	0	0	23773	22330	157236	27628	1058970	46461	108768	0	0	8214	536152	0	0
2024-09-20 14:19:47			0	38577	0	0	0	23742	22330	157220	27485	1059024	46472	108756	0	0	8215	535998	0	0
2024-09-20 14:20:47			0	38572	0	0	0	23701	22330	157232	27588	1058970	46472	108740	0	0	8216	536190	0	0
2024-09-20 14:21:47			0	38589	0	0	0	23701	22340	157264	27490	1059015	46452	108740	0	0	8217	535505	0	0
2024-09-20 14:22:47			0	38567	0	0	0	23651	22330	157296	27287	1058908	46438	108721	0	0	8216	536383	0	0
2024-09-20 14:23:47			0	38553	0	0	0	23659	22320	157304	27450	1058819	46438	108724	0	0	8215	536953	0	0
2024-09-20 14:24:47			0	38534	0	0	0	23675	22320	157356	27208	1058792	46427	108730	0	0	8214	537687	0	0
2024-09-20 14:25:47			0	38538	0	0	0	23662	22320	157440	27400	1058756	46437	108725	0	0	8214	537533	0	0
2024-09-20 14:26:47			0	38538	0	0	0	23670	22320	157376	27469	1058756	46459	108728	0	0	8214	537533	0	0
2024-09-20 14:27:47			0	38541	0	0	0	23646	22310	157472	27197	1058774	46436	108719	0	0	8215	537447	0	0
2024-09-20 14:28:47			0	38553	0	0	0	23662	22310	157376	27646	1058747	46436	108725	0	0	8215	536983	0	0
2024-09-20 14:29:47			0	38534	0	0	0	23654	22300	157388	27614	1058596	46436	108722	0	0	8214	537747	0	0
2024-09-20 14:30:47			0	38552	0	0	0	23654	22300	157332	27699	1058667	46424	108722	0	0	8215	537052	0	0
2024-09-20 14:31:47			0	38518	0	0	0	23670	22300	157420	27590	1058667	46447	108728	0	0	8213	538366	0	0
2024-09-20 14:32:47			0	38553	0	0	0	23698	22300	157484	27417	1058694	46447	108739	0	0	8214	537013	0	0
2024-09-20 14:33:47			0	38529	0	0	0	23732	22290	157520	27556	1058738	46446	108752	0	0	8212	537971	0	0
2024-09-20 14:34:47			0	38549	0	0	0	23768	22310	157480	27412	1058818	46458	108766	0	0	8213	537138	0	0
2024-09-20 14:35:47			0	38565	0	0	0	23776	22300	157392	27556	1058836	46458	108769	0	0	8214	536550	0	0
2024-09-20 14:36:47			0	38549	0	0	0	23781	22320	157328	27689	1058836	46459	108771	0	0	8213	537108	0	0
2024-09-20 14:37:47			0	38552	0	0	0	23779	22310	157396	27353	1058961	46469	108770	0	0	8213	537022	0	0
2024-09-20 14:38:47			0	38553	0	0	0	23781	22320	157340	27512	1058970	46481	108771	0	0	8213	536953	0	0
2024-09-20 14:39:47			0	38572	0	0	0	23781	22320	157312	27497	1058979	46471	108771	0	0	8214	536220	0	0
2024-09-20 14:40:47			0	38549	0	0	0	23781	22320	157396	27647	1059005	46450	108771	0	0	8213	537108	0	0
2024-09-20 14:41:47			0	38578	0	0	0	23789	22330	157324	27569	1059041	46460	108774	0	0	8214	535959	0	0
2024-09-20 14:42:47			0	38583	0	0	0	23797	22340	157252	27355	1059113	46472	108777	0	0	8215	535736	0	0
2024-09-20 14:43:47			0	38579	0	0	0	23789	22340	157284	27755	1059059	46483	108774	0	0	8214	535891	0	0
2024-09-20 14:44:47			0	38600	0	0	0	23766	22340	157268	27249	1059086	46472	108765	0	0	8216	535081	0	0
2024-09-20 14:45:47			0	38591	0	0	0	23711	22350	157248	27715	1059059	46474	108744	0	0	8217	535398	0	0
2024-09-20 14:46:47			0	38575	0	0	0	23711	22350	157216	27789	1059077	46462	108744	0	0	8216	536015	0	0
2024-09-20 14:47:47			0	38578	0	0	0	23748	22350	157236	27448	1059024	46452	108758	0	0	8215	535899	0	0
2024-09-20 14:48:47			0	38598	0	0	0	23776	22340	157280	27533	1059042	46462	108769	0	0	8216	535158	0	0
2024-09-20 14:49:47			0	38597	0	0	0	23776	22340	157208	27448	1058988	46462	108769	0	0	8216	535197	0	0
2024-09-20 14:50:47			0	38590	0	0	0	23766	22350	157144	27533	1059077	46462	108765	0	0	8216	535437	0	0
2024-09-20 14:51:47			0	38598	0	0	0	23763	22340	157172	27438	1059095	46462	108764	0	0	8216	535158	0	0
2024-09-20 14:52:47			0	38602	0	0	0	23742	22350	157120	27473	1059157	46452	108756	0	0	8217	534974	0	0
2024-09-20 14:53:47			0	38613	0	0	0	23753	22350	157080	27561	1059077	46462	108760	0	0	8217	534551	0	0
2024-09-20 14:54:47			0	38616	0	0	0	23773	22350	157136	27450	1059131	46462	108768	0	0	8217	534435	0	0
2024-09-20 14:55:47			0	38621	0	0	0	23797	22360	157136	27265	1059095	46463	108777	0	0	8217	534213	0	0
2024-09-20 14:56:47			0	38639	0	0	0	23745	22360	157024	27464	1059157	46454	108757	0	0	8219	533521	0	0
2024-09-20 14:57:47			0	38625	0	0	0	23701	22370	157028	27654	1059086	46464	108740	0	0	8219	534030	0	0
2024-09-20 14:58:47			0	38642	0	0	0	23703	22350	157068	27530	1059033	46453	108741	0	0	8220	533435	0	0
2024-09-20 14:59:47			0	38612	0	0	0	23761	22360	157180	27454	1059024	46454	108763	0	0	8217	534560	0	0
2024-09-20 15:00:47			0	38618	0	0	0	23779	22350	157104	27464	1059113	46463	108770	0	0	8217	534359	0	0
2024-09-20 15:01:47			0	38633	0	0	0	23789	22350	157180	27467	1059140	46453	108774	0	0	8218	533782	0	0
2024-09-20 15:02:47			0	38640	0	0	0	23799	22360	157056	27519	1059104	46454	108778	0	0	8218	533482	0	0
2024-09-20 15:03:47			0	38648	0	0	0	23797	22360	157036	27383	1059148	46463	108777	0	0	8218	533175	0	0
2024-09-20 15:04:47			0	38647	0	0	0	23799	22360	156968	27736	1059095	46463	108778	0	0	8218	533213	0	0
2024-09-20 15:05:47			0	38647	0	0	0	23786	22350	157012	27374	1059113	46463	108773	0	0	8219	533243	0	0
2024-09-20 15:06:47			0	38650	0	0	0	23773	22370	157084	27293	1059095	46455	108768	0	0	8219	533068	0	0
2024-09-20 15:07:47			0	38663	0	0	0	23714	22350	156956	27445	1059050	46452	108745	0	0	8221	532629	0	0
2024-09-20 15:08:47			0	38665	0	0	0	23729	22370	156996	27460	1059113	46464	108751	0	0	8221	532492	0	0
2024-09-20 15:09:47			0	38636	0	0	0	23737	22360	156972	27313	1059122	46453	108754	0	0	8219	533636	0	0
2024-09-20 15:10:47			0	38634	0	0	0	23753	22350	157000	27587	1058997	46462	108760	0	0	8218	533743	0	0
2024-09-20 15:11:47			0	38641	0	0	0	23763	22350	157004	27526	1059059	46463	108764	0	0	8219	533474	0	0
2024-09-20 15:12:47			0	38638	0	0	0	23719	22350	157012	27431	1059006	46453	108747	0	0	8219	533589	0	0
2024-09-20 15:13:47			0	38634	0	0	0	23680	22350	157028	27326	1058926	46442	108732	0	0	8220	533743	0	0
2024-09-20 15:14:47			0	38614	0	0	0	23703	22340	157132	27438	1058899	46439	108741	0	0	8218	534542	0	0
2024-09-20 15:15:47			0	38590	0	0	0	23727	22340	157224	27580	1058926	46439	108750	0	0	8216	535467	0	0
2024-09-20 15:16:47			0	38593	0	0	0	23748	22330	157240	27656	1058855	46438	108758	0	0	8216	535381	0	0
2024-09-20 15:17:47			0	38603	0	0	0	23750	22330	157040	27504	1058970	46439	108759	0	0	8216	534996	0	0
2024-09-20 15:18:47			0	38618	0	0	0	23763	22330	157132	27436	1058961	46471	108764	0	0	8217	534418	0	0
2024-09-20 15:19:47			0	38614	0	0	0	23755	22340	157116	27249	1058899	46461	108761	0	0	8217	534542	0	0
2024-09-20 15:20:47			0	38617	0	0	0	23758	22330	157112	27220	1059024	46461	108762	0	0	8217	534457	0	0
2024-09-20 15:21:47			0	38630	0	0	0	23750	22330	157124	27642	1058944	46461	108759	0	0	8218	533956	0	0
2024-09-20 15:22:47			0	38628	0	0	0	23753	22350	157004	27365	1059050	46452	108760	0	0	8218	533974	0	0
2024-09-20 15:23:47			0	38622	0	0	0	23742	22350	157064	27357	1059104	46484	108756	0	0	8218	534205	0	0
2024-09-20 15:24:47			0	38631	0	0	0	23696	22340	156988	27227	1058988	46462	108738	0	0	8219	533888	0	0
2024-09-20 15:25:47			0	38628	0	0	0	23683	22340	157000	27213	1058953	46461	108733	0	0	8219	534004	0	0
2024-09-20 15:26:47			0	38607	0	0	0	23706	22340	157032	27857	1058873	46451	108742	0	0	8217	534812	0	0
2024-09-20 15:27:47			0	38624	0	0	0	23709	22330	157000	27535	1058988	46450	108743	0	0	8218	534187	0	0
2024-09-20 15:28:47			0	38610	0	0	0	23729	22330	157036	27284	1058801	46450	108751	0	0	8217	534726	0	0
2024-09-20 15:29:47			0	38628	0	0	0	23742	22330	157044	27469	1058935	46460	108756	0	0	8218	534034	0	0
2024-09-20 15:30:47			0	38634	0	0	0	23719	22330	156888	27454	1058970	46451	108747	0	0	8219	533803	0	0
2024-09-20 15:31:47			0	38629	0	0	0	23716	22330	156940	27228	1058855	46450	108746	0	0	8219	533995	0	0
2024-09-20 15:32:47			0	38625	0	0	0	23711	22330	156904	27305	1058944	46451	108744	0	0	8218	534149	0	0
2024-09-20 15:33:47			0	38624	0	0	0	23711	22330	156988	27445	1058881	46450	108744	0	0	8218	534187	0	0
2024-09-20 15:34:47			0	38638	0	0	0	23719	22330	157024	27412	1058908	46460	108747	0	0	8219	533649	0	0
2024-09-20 15:35:47			0	38644	0	0	0	23703	22330	157056	27140	1058890	46451	108741	0	0	8220	533418	0	0
2024-09-20 15:36:47			0	38620	0	0	0	23709	22320	157180	27286	1058925	46450	108743	0	0	8218	534371	0	0
2024-09-20 15:37:47			0	38621	0	0	0	23716	22330	157112	27850	1058908	46438	108746	0	0	8218	534303	0	0
2024-09-20 15:38:47			0	38617	0	0	0	23659	22330	157096	27601	1058855	46471	108724	0	0	8219	534457	0	0
2024-09-20 15:39:47			0	38591	0	0	0	23646	22330	157072	27426	1058748	46450	108719	0	0	8218	535458	0	0
2024-09-20 15:40:47			0	38594	0	0	0	23675	22310	157200	27595	1058721	46425	108730	0	0	8217	535402	0	0
2024-09-20 15:41:47			0	38587	0	0	0	23672	22310	157220	27608	1058738	46425	108729	0	0	8217	535672	0	0
2024-09-20 15:42:47			0	38583	0	0	0	23670	22300	157252	27699	1058729	46425	108728	0	0	8217	535856	0	0
2024-09-20 15:43:47			0	38591	0	0	0	23659	22300	157244	27474	1058676	46425	108724	0	0	8217	535548	0	0
2024-09-20 15:44:47			0	38563	0	0	0	23675	22290	157252	27601	1058658	46457	108730	0	0	8215	536658	0	0
2024-09-20 15:45:47			0	38579	0	0	0	23672	22300	157196	27026	1058640	46447	108729	0	0	8216	536010	0	0
2024-09-20 15:46:47			0	38576	0	0	0	23685	22280	157248	27464	1058614	46445	108734	0	0	8216	536186	0	0
2024-09-20 15:47:47			0	38580	0	0	0	23680	22280	157304	27812	1058694	46433	108732	0	0	8216	536032	0	0
2024-09-20 15:48:47			0	38576	0	0	0	23693	22280	157252	27351	1058703	46434	108737	0	0	8216	536186	0	0
2024-09-20 15:49:47			0	38582	0	0	0	23693	22280	157244	27486	1058676	46457	108737	0	0	8216	535955	0	0
2024-09-20 15:50:47			0	38589	0	0	0	23688	22280	157208	27334	1058729	46457	108735	0	0	8216	535685	0	0
2024-09-20 15:51:47			0	38594	0	0	0	23670	22280	157136	27474	1058676	46457	108728	0	0	8217	535492	0	0
2024-09-20 15:52:47			0	38592	0	0	0	23670	22280	157252	27535	1058614	46445	108728	0	0	8217	535569	0	0
2024-09-20 15:53:47			0	38602	0	0	0	23675	22280	157244	27812	1058614	46433	108730	0	0	8217	535184	0	0
2024-09-20 15:54:47			0	38587	0	0	0	23672	22280	157264	27680	1058614	46445	108729	0	0	8217	535762	0	0
2024-09-20 15:55:47			0	38600	0	0	0	23675	22280	157248	27658	1058676	46446	108730	0	0	8217	535261	0	0
2024-09-20 15:56:47			0	38578	0	0	0	23690	22270	157284	27772	1058702	46444	108736	0	0	8216	536139	0	0
2024-09-20 15:57:47			0	38593	0	0	0	23693	22280	157208	27718	1058667	46445	108737	0	0	8217	535531	0	0
2024-09-20 15:58:47			0	38598	0	0	0	23690	22280	157264	27769	1058676	46457	108736	0	0	8217	535338	0	0
2024-09-20 15:59:47			0	38588	0	0	0	23696	22270	157244	27282	1058685	46456	108738	0	0	8216	535753	0	0
2024-09-20 16:00:47			0	38606	0	0	0	23690	22280	157112	27576	1058694	46456	108736	0	0	8217	535030	0	0
2024-09-20 16:01:47			0	38617	0	0	0	23696	22280	157320	27614	1058747	46445	108738	0	0	8218	534606	0	0
2024-09-20 16:02:47			0	38616	0	0	0	23703	22290	157184	27668	1058738	46457	108741	0	0	8218	534615	0	0
2024-09-20 16:03:47			0	38626	0	0	0	23714	22280	157076	27289	1058729	46457	108745	0	0	8218	534260	0	0
2024-09-20 16:04:47			0	38624	0	0	0	23716	22290	157192	27242	1058792	46457	108746	0	0	8218	534307	0	0
2024-09-20 16:05:47			0	38618	0	0	0	23716	22270	157012	27298	1058738	46456	108746	0	0	8218	534597	0	0
2024-09-20 16:06:47			0	38645	0	0	0	23716	22310	157052	27429	1058818	46448	108746	0	0	8219	533439	0	0
2024-09-20 16:07:47			0	38628	0	0	0	23714	22300	157024	27698	1058774	46458	108745	0	0	8218	534123	0	0
2024-09-20 16:08:47			0	38636	0	0	0	23727	22310	157100	27500	1058818	46458	108750	0	0	8219	533785	0	0
2024-09-20 16:09:47			0	38634	0	0	0	23732	22310	157156	27757	1058792	46469	108752	0	0	8218	533862	0	0
2024-09-20 16:10:47			0	38650	0	0	0	23745	22310	157064	27516	1058934	46458	108757	0	0	8219	533247	0	0
2024-09-20 16:11:47			0	38648	0	0	0	23755	22320	157044	27701	1058863	46459	108761	0	0	8219	533294	0	0
2024-09-20 16:12:47			0	38647	0	0	0	23758	22310	156912	27595	1058934	46458	108762	0	0	8219	533362	0	0
2024-09-20 16:13:47			0	38661	0	0	0	23761	22310	156840	27502	1058934	46448	108763	0	0	8220	532824	0	0
2024-09-20 16:14:47			0	38654	0	0	0	23750	22320	156920	27320	1059005	46471	108759	0	0	8219	533064	0	0
2024-09-20 16:15:47			0	38678	0	0	0	23745	22320	156924	27274	1058925	46460	108757	0	0	8221	532142	0	0
2024-09-20 16:16:47			0	38658	0	0	0	23696	22320	156856	27268	1058952	46460	108738	0	0	8221	532910	0	0
2024-09-20 16:17:47			0	38612	0	0	0	23680	22330	157012	27436	1058917	46451	108732	0	0	8218	534649	0	0
2024-09-20 16:18:47			0	38624	0	0	0	23683	22320	157132	27684	1058810	46449	108733	0	0	8219	534217	0	0
2024-09-20 16:19:47			0	38606	0	0	0	23690	22320	157124	27322	1058810	46437	108736	0	0	8218	534910	0	0
2024-09-20 16:20:47			0	38607	0	0	0	23677	22310	157100	27312	1058747	46425	108731	0	0	8218	534901	0	0
2024-09-20 16:21:47			0	38623	0	0	0	23680	22310	157108	27372	1058792	46436	108732	0	0	8219	534285	0	0
2024-09-20 16:22:47			0	38590	0	0	0	23683	22300	157112	27350	1058729	46448	108733	0	0	8217	535586	0	0
2024-09-20 16:23:47			0	38579	0	0	0	23698	22300	157184	27390	1058694	46435	108739	0	0	8216	536010	0	0
2024-09-20 16:24:47			0	38599	0	0	0	23696	22290	157108	27383	1058712	46446	108738	0	0	8217	535269	0	0
2024-09-20 16:25:47			0	38605	0	0	0	23703	22290	157088	27523	1058712	46434	108741	0	0	8217	535038	0	0
2024-09-20 16:26:47			0	38614	0	0	0	23703	22290	157128	27613	1058792	46434	108741	0	0	8218	534692	0	0
2024-09-20 16:27:47			0	38610	0	0	0	23701	22300	157072	27462	1058747	46447	108740	0	0	8218	534816	0	0
2024-09-20 16:28:47			0	38609	0	0	0	23706	22290	157136	27450	1058765	46457	108742	0	0	8217	534884	0	0
2024-09-20 16:29:47			0	38610	0	0	0	23703	22290	157144	27850	1058712	46457	108741	0	0	8217	534846	0	0
2024-09-20 16:30:47			0	38613	0	0	0	23696	22290	157156	27871	1058765	46457	108738	0	0	8218	534730	0	0
2024-09-20 16:31:47			0	38615	0	0	0	23696	22300	157144	27585	1058747	46447	108738	0	0	8218	534623	0	0
2024-09-20 16:32:47			0	38599	0	0	0	23688	22280	157128	28074	1058703	46434	108735	0	0	8217	535299	0	0
2024-09-20 16:33:47			0	38578	0	0	0	23688	22300	157196	27678	1058720	46447	108735	0	0	8216	536049	0	0
2024-09-20 16:34:47			0	38593	0	0	0	23696	22280	157212	27538	1058703	46457	108738	0	0	8217	535531	0	0
2024-09-20 16:35:47			0	38601	0	0	0	23696	22290	157280	27324	1058712	46457	108738	0	0	8217	535192	0	0
2024-09-20 16:36:47			0	38605	0	0	0	23690	22290	157204	27672	1058765	46446	108736	0	0	8217	535038	0	0
2024-09-20 16:37:47			0	38602	0	0	0	23690	22290	157224	27715	1058738	46434	108736	0	0	8217	535154	0	0
2024-09-20 16:38:47			0	38593	0	0	0	23693	22300	157196	27614	1058720	46447	108737	0	0	8217	535471	0	0
2024-09-20 16:39:47			0	38587	0	0	0	23688	22290	157252	27272	1058792	46457	108735	0	0	8216	535732	0	0
2024-09-20 16:40:47			0	38597	0	0	0	23690	22290	157172	27405	1058658	46446	108736	0	0	8217	535346	0	0
2024-09-20 16:41:47			0	38569	0	0	0	23690	22290	157280	27493	1058712	46446	108736	0	0	8215	536426	0	0
2024-09-20 16:42:47			0	38581	0	0	0	23701	22300	157252	27255	1058801	46458	108740	0	0	8216	535933	0	0
2024-09-20 16:43:47			0	38600	0	0	0	23719	22300	157172	27580	1058720	46447	108747	0	0	8217	535201	0	0
2024-09-20 16:44:47			0	38601	0	0	0	23711	22300	157112	27417	1058881	46447	108744	0	0	8217	535162	0	0
2024-09-20 16:45:47			0	38611	0	0	0	23698	22280	157196	27802	1058783	46457	108739	0	0	8218	534837	0	0
2024-09-20 16:46:47			0	38608	0	0	0	23690	22290	157200	27459	1058765	46457	108736	0	0	8218	534923	0	0
2024-09-20 16:47:47			0	38597	0	0	0	23685	22290	157180	27320	1058712	46457	108734	0	0	8217	535346	0	0
2024-09-20 16:48:47			0	38591	0	0	0	23696	22280	157204	27263	1058720	46456	108738	0	0	8216	535608	0	0
2024-09-20 16:49:47			0	38581	0	0	0	23688	22300	157308	27374	1058720	46447	108735	0	0	8216	535933	0	0
2024-09-20 16:50:47			0	38577	0	0	0	23688	22280	157280	27509	1058729	46457	108735	0	0	8216	536147	0	0
2024-09-20 16:51:47			0	38572	0	0	0	23706	22290	157344	27755	1058685	46446	108742	0	0	8215	536310	0	0
2024-09-20 16:52:47			0	38580	0	0	0	23711	22290	157256	27821	1058792	46457	108744	0	0	8216	536002	0	0
2024-09-20 16:53:47			0	38609	0	0	0	23716	22300	157256	27346	1058801	46458	108746	0	0	8217	534854	0	0
2024-09-20 16:54:47			0	38608	0	0	0	23711	22290	157200	27232	1058792	46446	108744	0	0	8217	534923	0	0
2024-09-20 16:55:47			0	38618	0	0	0	23693	22300	157092	27341	1058774	46458	108737	0	0	8218	534508	0	0
2024-09-20 16:56:47			0	38607	0	0	0	23701	22300	157144	27507	1058863	46458	108740	0	0	8217	534931	0	0
2024-09-20 16:57:47			0	38602	0	0	0	23693	22290	157052	27481	1058738	46434	108737	0	0	8217	535154	0	0
2024-09-20 16:58:47			0	38581	0	0	0	23683	22290	157156	27644	1058738	46446	108733	0	0	8216	535963	0	0
2024-09-20 16:59:47			0	38572	0	0	0	23701	22290	157188	27358	1058685	46457	108740	0	0	8215	536310	0	0
2024-09-20 17:00:47			0	38579	0	0	0	23693	22280	157168	27379	1058729	46446	108737	0	0	8216	536070	0	0
2024-09-20 17:01:47			0	38576	0	0	0	23703	22290	157152	27621	1058738	46457	108741	0	0	8216	536156	0	0
2024-09-20 17:02:47			0	38608	0	0	0	23711	22280	157180	27798	1058756	46457	108744	0	0	8217	534952	0	0
2024-09-20 17:03:47			0	38621	0	0	0	23706	22300	157080	27748	1058774	46447	108742	0	0	8218	534392	0	0
2024-09-20 17:04:47			0	38624	0	0	0	23706	22300	157056	27588	1058783	46458	108742	0	0	8218	534277	0	0
2024-09-20 17:05:47			0	38630	0	0	0	23709	22300	157092	27611	1058810	46448	108743	0	0	8219	534046	0	0
2024-09-20 17:06:47			0	38629	0	0	0	23701	22290	157128	27265	1058712	46457	108740	0	0	8219	534114	0	0
2024-09-20 17:07:47			0	38631	0	0	0	23693	22290	157104	27481	1058765	46446	108737	0	0	8219	534037	0	0
2024-09-20 17:08:47			0	38620	0	0	0	23698	22300	157196	27104	1058783	46458	108739	0	0	8218	534431	0	0
2024-09-20 17:09:47			0	38604	0	0	0	23693	22280	157192	27502	1058809	46446	108737	0	0	8217	535107	0	0
2024-09-20 17:10:47			0	38575	0	0	0	23693	22280	157184	27447	1058756	46434	108737	0	0	8216	536224	0	0
2024-09-20 17:11:47			0	38584	0	0	0	23696	22280	157156	27405	1058703	46434	108738	0	0	8216	535877	0	0
2024-09-20 17:12:47			0	38611	0	0	0	23706	22280	157212	27750	1058756	46457	108742	0	0	8217	534837	0	0
2024-09-20 17:13:47			0	38604	0	0	0	23706	22290	157240	27814	1058738	46434	108742	0	0	8217	535077	0	0
2024-09-20 17:14:47			0	38615	0	0	0	23716	22280	157092	27694	1058756	46457	108746	0	0	8218	534683	0	0
2024-09-20 17:15:47			0	38643	0	0	0	23716	22290	157032	27364	1058765	46457	108746	0	0	8219	533576	0	0
2024-09-20 17:16:47			0	38624	0	0	0	23709	22300	157076	27888	1058774	46447	108743	0	0	8218	534277	0	0
2024-09-20 17:17:47			0	38641	0	0	0	23711	22300	157016	27725	1058890	46469	108744	0	0	8219	533623	0	0
2024-09-20 17:18:47			0	38656	0	0	0	23706	22300	156908	27350	1058810	46458	108742	0	0	8220	533046	0	0
2024-09-20 17:19:47			0	38652	0	0	0	23716	22310	157012	27734	1058925	46436	108746	0	0	8220	533170	0	0
2024-09-20 17:20:47			0	38683	0	0	0	23727	22300	157012	27498	1058810	46448	108750	0	0	8221	532009	0	0
2024-09-20 17:21:47			0	38673	0	0	0	23724	22300	156868	27819	1058836	46458	108749	0	0	8221	532393	0	0
2024-09-20 17:22:47			0	38711	0	0	0	23729	22300	156768	27611	1058890	46448	108751	0	0	8223	530935	0	0
2024-09-20 17:23:47			0	38716	0	0	0	23727	22300	156744	27438	1058810	46448	108750	0	0	8223	530743	0	0
2024-09-20 17:24:47			0	38725	0	0	0	23727	22320	156716	27807	1058836	46459	108750	0	0	8224	530339	0	0
2024-09-20 17:25:47			0	38725	0	0	0	23722	22310	156740	27559	1058898	46448	108748	0	0	8224	530369	0	0
2024-09-20 17:26:47			0	38722	0	0	0	23724	22310	156640	27699	1058907	46458	108749	0	0	8224	530484	0	0
2024-09-20 17:27:47			0	38742	0	0	0	23729	22310	156613	27495	1058854	46448	108751	0	0	8225	529718	0	0
2024-09-20 17:28:47			0	38743	0	0	0	23724	22320	156629	27492	1058863	46459	108749	0	0	8225	529650	0	0
2024-09-20 17:29:47			0	38758	0	0	0	23716	22310	156541	27632	1058898	46448	108746	0	0	8226	529105	0	0
2024-09-20 17:30:47			0	38759	0	0	0	23722	22310	156485	27537	1058872	46458	108748	0	0	8226	529067	0	0
2024-09-20 17:31:47			0	38755	0	0	0	23719	22310	156661	27708	1058907	46458	108747	0	0	8226	529220	0	0
2024-09-20 17:32:47			0	38769	0	0	0	23716	22310	156497	27405	1058818	46448	108746	0	0	8227	528685	0	0
2024-09-20 17:33:47			0	38751	0	0	0	23709	22310	156501	27562	1058925	46458	108743	0	0	8226	529373	0	0
2024-09-20 17:34:47			0	38732	0	0	0	23706	22310	156569	27500	1058827	46469	108742	0	0	8225	530101	0	0
2024-09-20 17:35:47			0	38716	0	0	0	23703	22300	156704	27523	1058810	46448	108741	0	0	8224	530743	0	0
2024-09-20 17:36:47			0	38679	0	0	0	23706	22300	156776	27810	1058890	46448	108742	0	0	8221	532163	0	0
2024-09-20 17:37:47			0	38690	0	0	0	23714	22310	156804	27405	1058818	46458	108745	0	0	8222	531711	0	0
2024-09-20 17:38:47			0	38704	0	0	0	23714	22310	156848	27554	1058792	46448	108745	0	0	8223	531174	0	0
2024-09-20 17:39:47			0	38702	0	0	0	23701	22310	156896	27668	1058801	46448	108740	0	0	8223	531250	0	0
2024-09-20 17:40:47			0	38699	0	0	0	23711	22300	156796	27282	1058810	46448	108744	0	0	8223	531395	0	0
2024-09-20 17:41:47			0	38697	0	0	0	23714	22300	156836	27417	1058756	46458	108745	0	0	8222	531472	0	0
2024-09-20 17:42:47			0	38695	0	0	0	23701	22300	156820	27303	1058783	46469	108740	0	0	8223	531549	0	0
2024-09-20 17:43:47			0	38683	0	0	0	23696	22310	156896	27170	1058818	46458	108738	0	0	8222	531979	0	0
2024-09-20 17:44:47			0	38712	0	0	0	23698	22300	156780	27229	1058774	46435	108739	0	0	8224	530897	0	0
2024-09-20 17:45:47			0	38719	0	0	0	23703	22300	156776	27319	1058747	46435	108741	0	0	8224	530628	0	0
2024-09-20 17:46:47			0	38712	0	0	0	23706	22300	156752	27180	1058729	46448	108742	0	0	8223	530897	0	0
2024-09-20 17:47:47			0	38704	0	0	0	23706	22300	156808	27505	1058801	46447	108742	0	0	8223	531203	0	0
2024-09-20 17:48:47			0	38713	0	0	0	23693	22300	156812	27504	1058801	46447	108737	0	0	8224	530858	0	0
2024-09-20 17:49:47			0	38701	0	0	0	23698	22300	156816	27274	1058694	46447	108739	0	0	8223	531319	0	0
2024-09-20 17:50:47			0	38706	0	0	0	23701	22290	156892	27410	1058712	46457	108740	0	0	8223	531156	0	0
2024-09-20 17:51:47			0	38691	0	0	0	23693	22290	156832	27362	1058738	46446	108737	0	0	8222	531732	0	0
2024-09-20 17:52:47			0	38706	0	0	0	23696	22280	156920	27391	1058729	46434	108738	0	0	8223	531186	0	0
2024-09-20 17:53:47			0	38697	0	0	0	23685	22280	156936	27222	1058756	46446	108734	0	0	8223	531531	0	0
2024-09-20 17:54:47			0	38694	0	0	0	23675	22280	156896	27159	1058729	46457	108730	0	0	8223	531646	0	0
2024-09-20 17:55:47			0	38679	0	0	0	23670	22280	156900	27478	1058667	46445	108728	0	0	8222	532222	0	0
2024-09-20 17:56:47			0	38684	0	0	0	23657	22280	156904	27400	1058640	46456	108723	0	0	8223	532030	0	0
2024-09-20 17:57:47			0	38672	0	0	0	23659	22270	156888	27301	1058631	46445	108724	0	0	8222	532521	0	0
2024-09-20 17:58:47			0	38666	0	0	0	23667	22270	157012	27412	1058649	46444	108727	0	0	8221	532751	0	0
2024-09-20 17:59:47			0	38653	0	0	0	23667	22260	156964	27187	1058640	46432	108727	0	0	8220	533281	0	0
2024-09-20 18:00:47			0	38667	0	0	0	23667	22260	156976	27476	1058613	46432	108727	0	0	8221	532743	0	0
2024-09-20 18:01:47			0	38643	0	0	0	23670	22260	156980	27417	1058640	46444	108728	0	0	8220	533665	0	0
2024-09-20 18:02:47			0	38624	0	0	0	23659	22250	157088	27412	1058649	46454	108724	0	0	8219	534426	0	0
2024-09-20 18:03:47			0	38656	0	0	0	23654	22250	157048	27580	1058569	46443	108722	0	0	8221	533195	0	0
2024-09-20 18:04:47			0	38641	0	0	0	23654	22250	157092	27492	1058489	46443	108722	0	0	8220	533772	0	0
2024-09-20 18:05:47			0	38631	0	0	0	23649	22260	156980	27639	1058578	46443	108720	0	0	8219	534127	0	0
2024-09-20 18:06:47			0	38637	0	0	0	23651	22250	157016	27426	1058596	46454	108721	0	0	8220	533926	0	0
2024-09-20 18:07:47			0	38633	0	0	0	23646	22260	157008	27473	1058587	46455	108719	0	0	8220	534050	0	0
2024-09-20 18:08:47			0	38641	0	0	0	23654	22250	157044	27377	1058542	46454	108722	0	0	8220	533772	0	0
2024-09-20 18:09:47			0	38633	0	0	0	23657	22250	156940	27254	1058596	46443	108723	0	0	8219	534080	0	0
2024-09-20 18:10:47			0	38639	0	0	0	23654	22250	156896	27409	1058542	46443	108722	0	0	8220	533849	0	0
2024-09-20 18:11:47			0	38644	0	0	0	23662	22250	156996	27647	1058587	46442	108725	0	0	8220	533656	0	0
2024-09-20 18:12:47			0	38650	0	0	0	23659	22250	157080	27390	1058560	46442	108724	0	0	8220	533426	0	0
2024-09-20 18:13:47			0	38621	0	0	0	23662	22240	157128	27455	1058515	46441	108725	0	0	8219	534571	0	0
2024-09-20 18:14:47			0	38625	0	0	0	23659	22250	157096	27360	1058613	46463	108724	0	0	8219	534388	0	0
2024-09-20 18:15:47			0	38620	0	0	0	23662	22240	157072	27220	1058569	46452	108725	0	0	8219	534610	0	0
2024-09-20 18:16:47			0	38604	0	0	0	23662	22240	157204	27272	1058515	46452	108725	0	0	8218	535226	0	0
2024-09-20 18:17:47			0	38608	0	0	0	23649	22240	157144	27234	1058569	46452	108720	0	0	8218	535072	0	0
2024-09-20 18:18:47			0	38612	0	0	0	23654	22240	157184	27360	1058551	46452	108722	0	0	8218	534918	0	0
2024-09-20 18:19:47			0	38597	0	0	0	23654	22250	157228	27326	1058560	46442	108722	0	0	8217	535466	0	0
2024-09-20 18:20:47			0	38598	0	0	0	23646	22240	157144	27434	1058524	46452	108719	0	0	8218	535457	0	0
2024-09-20 18:21:47			0	38599	0	0	0	23649	22240	157200	27460	1058498	46452	108720	0	0	8218	535419	0	0
2024-09-20 18:22:47			0	38594	0	0	0	23662	22240	157120	27521	1058551	46441	108725	0	0	8217	535611	0	0
2024-09-20 18:23:47			0	38616	0	0	0	23654	22240	157116	27189	1058542	46429	108722	0	0	8218	534764	0	0
2024-09-20 18:24:47			0	38609	0	0	0	23659	22240	157008	27225	1058551	46429	108724	0	0	8218	535034	0	0
2024-09-20 18:25:47			0	38616	0	0	0	23664	22230	157044	27310	1058560	46452	108726	0	0	8218	534794	0	0
2024-09-20 18:26:47			0	38620	0	0	0	23662	22240	157072	27737	1058515	46452	108725	0	0	8219	534610	0	0
2024-09-20 18:27:47			0	38614	0	0	0	23672	22230	157048	27554	1058560	46452	108729	0	0	8218	534871	0	0
2024-09-20 18:28:47			0	38627	0	0	0	23662	22230	157032	26991	1058524	46451	108725	0	0	8219	534370	0	0
2024-09-20 18:29:47			0	38638	0	0	0	23664	22240	157020	27436	1058498	46452	108726	0	0	8220	533917	0	0
2024-09-20 18:30:47			0	38645	0	0	0	23664	22240	157016	27267	1058551	46452	108726	0	0	8220	533648	0	0
2024-09-20 18:31:47			0	38645	0	0	0	23659	22250	157000	27241	1058533	46442	108724	0	0	8220	533618	0	0
2024-09-20 18:32:47			0	38632	0	0	0	23659	22240	157016	27144	1058542	46452	108724	0	0	8219	534148	0	0
2024-09-20 18:33:47			0	38651	0	0	0	23664	22240	157076	27289	1058524	46452	108726	0	0	8220	533417	0	0
2024-09-20 18:34:47			0	38633	0	0	0	23664	22230	157060	27138	1058586	46452	108726	0	0	8219	534139	0	0
2024-09-20 18:35:47			0	38638	0	0	0	23664	22240	157132	27086	1058551	46462	108726	0	0	8220	533917	0	0
2024-09-20 18:36:47			0	38636	0	0	0	23649	22250	157060	27234	1058560	46453	108720	0	0	8220	533964	0	0
2024-09-20 18:37:47			0	38636	0	0	0	23659	22240	157008	27390	1058524	46441	108724	0	0	8220	533994	0	0
2024-09-20 18:38:47			0	38629	0	0	0	23654	22250	157092	27384	1058542	46454	108722	0	0	8219	534233	0	0
2024-09-20 18:39:47			0	38616	0	0	0	23646	22240	157044	27197	1058524	46441	108719	0	0	8219	534764	0	0
2024-09-20 18:40:47			0	38628	0	0	0	23649	22240	157164	27050	1058551	46441	108720	0	0	8219	534302	0	0
2024-09-20 18:41:47			0	38635	0	0	0	23646	22230	157080	27625	1058480	46441	108719	0	0	8220	534062	0	0
2024-09-20 18:42:47			0	38594	0	0	0	23649	22230	157088	27530	1058560	46452	108720	0	0	8217	535641	0	0
2024-09-20 18:43:47			0	38604	0	0	0	23659	22220	157136	27306	1058462	46450	108724	0	0	8218	535286	0	0
2024-09-20 18:44:47			0	38556	0	0	0	23657	22240	157308	27227	1058462	46441	108723	0	0	8215	537078	0	0
2024-09-20 18:45:47			0	38557	0	0	0	23654	22230	157280	27407	1058506	46441	108722	0	0	8215	537069	0	0
2024-09-20 18:46:47			0	38542	0	0	0	23662	22230	157404	27260	1058480	46452	108725	0	0	8214	537648	0	0
2024-09-20 18:47:47			0	38543	0	0	0	23662	22240	157436	27277	1058489	46441	108725	0	0	8214	537580	0	0
2024-09-20 18:48:47			0	38535	0	0	0	23667	22230	157536	27229	1058480	46452	108727	0	0	8213	537919	0	0
2024-09-20 18:49:47			0	38502	0	0	0	23654	22230	157440	27409	1058533	46462	108722	0	0	8212	539195	0	0
2024-09-20 18:50:47			0	38518	0	0	0	23657	22240	157608	27289	1058515	46452	108723	0	0	8213	538546	0	0
2024-09-20 18:51:47			0	38497	0	0	0	23657	22230	157508	27166	1058560	46441	108723	0	0	8211	539389	0	0
2024-09-20 18:52:47			0	38488	0	0	0	23659	22230	157532	27346	1058506	46462	108724	0	0	8211	539737	0	0
2024-09-20 18:53:47			0	38480	0	0	0	23651	22240	157652	27199	1058489	46452	108721	0	0	8211	540017	0	0
2024-09-20 18:54:47			0	38470	0	0	0	23649	22230	157644	27157	1058471	46451	108720	0	0	8210	540435	0	0
2024-09-20 18:55:47			0	38499	0	0	0	23638	22240	157508	27284	1058489	46429	108716	0	0	8212	539281	0	0
2024-09-20 18:56:47			0	38481	0	0	0	23633	22230	157496	27412	1058480	46441	108714	0	0	8211	540009	0	0
2024-09-20 18:57:47			0	38491	0	0	0	23641	22230	157536	27142	1058417	46451	108717	0	0	8211	539621	0	0
2024-09-20 18:58:47			0	38495	0	0	0	23646	22230	157572	27206	1058471	46440	108719	0	0	8212	539466	0	0
2024-09-20 18:59:47			0	38473	0	0	0	23646	22220	157648	27519	1058462	46439	108719	0	0	8210	540349	0	0
2024-09-20 19:00:47			0	38463	0	0	0	23644	22230	157684	27324	1058453	46429	108718	0	0	8210	540706	0	0
2024-09-20 19:01:47			0	38465	0	0	0	23641	22230	157756	27189	1058444	46428	108717	0	0	8210	540629	0	0
2024-09-20 19:02:47			0	38458	0	0	0	23644	22220	157812	27355	1058426	46439	108718	0	0	8209	540930	0	0
2024-09-20 19:03:47			0	38449	0	0	0	23641	22220	157780	27274	1058462	46450	108717	0	0	8209	541279	0	0
2024-09-20 19:04:47			0	38443	0	0	0	23638	22220	157808	27185	1058462	46439	108716	0	0	8209	541512	0	0
2024-09-20 19:05:47			0	38422	0	0	0	23633	22220	157916	27377	1058435	46439	108714	0	0	8207	542327	0	0
2024-09-20 19:06:47			0	38420	0	0	0	23636	22220	157840	27512	1058480	46439	108715	0	0	8207	542405	0	0
2024-09-20 19:07:47			0	38410	0	0	0	23631	22220	157916	27376	1058408	46450	108713	0	0	8207	542794	0	0
2024-09-20 19:08:47			0	38426	0	0	0	23631	22210	157976	27241	1058391	46439	108713	0	0	8208	542202	0	0
2024-09-20 19:09:47			0	38411	0	0	0	23628	22210	157936	27345	1058444	46439	108712	0	0	8207	542785	0	0
2024-09-20 19:10:47			0	38408	0	0	0	23631	22210	158048	27209	1058417	46427	108713	0	0	8207	542902	0	0
2024-09-20 19:11:47			0	38403	0	0	0	23633	22220	157996	27516	1058400	46427	108714	0	0	8206	543066	0	0
2024-09-20 19:12:47			0	38376	0	0	0	23641	22220	158056	27550	1058400	46450	108717	0	0	8205	544116	0	0
2024-09-20 19:13:47			0	38381	0	0	0	23631	22210	158192	27215	1058444	46450	108713	0	0	8205	543952	0	0
2024-09-20 19:14:47			0	38365	0	0	0	23636	22220	158192	27315	1058400	46439	108715	0	0	8204	544544	0	0
2024-09-20 19:15:47			0	38357	0	0	0	23628	22220	158132	27595	1058426	46450	108712	0	0	8204	544856	0	0
2024-09-20 19:16:47			0	38346	0	0	0	23636	22210	158204	27417	1058417	46439	108715	0	0	8203	545315	0	0
2024-09-20 19:17:47			0	38335	0	0	0	23628	22220	158128	27216	1058373	46450	108712	0	0	8202	545713	0	0
2024-09-20 19:18:47			0	38347	0	0	0	23633	22210	158236	27502	1058364	46450	108714	0	0	8203	545276	0	0
2024-09-20 19:19:47			0	38338	0	0	0	23628	22210	158204	27410	1058408	46449	108712	0	0	8203	545627	0	0
2024-09-20 19:20:47			0	38349	0	0	0	23628	22220	158284	27371	1058373	46450	108712	0	0	8203	545168	0	0
2024-09-20 19:21:47			0	38345	0	0	0	23628	22200	158276	27109	1058293	46437	108712	0	0	8203	545384	0	0
2024-09-20 19:22:47			0	38335	0	0	0	23623	22210	158344	27514	1058382	46459	108710	0	0	8203	545744	0	0
2024-09-20 19:23:47			0	38343	0	0	0	23618	22210	158352	27393	1058337	46450	108708	0	0	8203	545432	0	0
2024-09-20 19:24:47			0	38328	0	0	0	23623	22210	158348	27428	1058417	46450	108710	0	0	8202	546017	0	0
2024-09-20 19:25:47			0	38347	0	0	0	23618	22210	158228	27357	1058408	46449	108708	0	0	8203	545276	0	0
2024-09-20 19:26:47			0	38340	0	0	0	23620	22210	158308	27396	1058355	46449	108709	0	0	8203	545549	0	0
2024-09-20 19:27:47			0	38330	0	0	0	23610	22210	158268	27485	1058337	46450	108705	0	0	8202	545939	0	0
2024-09-20 19:28:47			0	38333	0	0	0	23607	22200	158376	27118	1058337	46448	108704	0	0	8203	545852	0	0
2024-09-20 19:29:47			0	38326	0	0	0	23618	22210	158316	27211	1058355	46449	108708	0	0	8202	546095	0	0
2024-09-20 19:30:47			0	38311	0	0	0	23618	22200	158480	27441	1058319	46437	108708	0	0	8201	546711	0	0
2024-09-20 19:31:47			0	38309	0	0	0	23618	22200	158500	27454	1058319	46437	108708	0	0	8201	546789	0	0
2024-09-20 19:32:47			0	38283	0	0	0	23623	22210	158480	27274	1058328	46449	108710	0	0	8199	547774	0	0
2024-09-20 19:33:47			0	38292	0	0	0	23612	22200	158540	27242	1058399	46437	108706	0	0	8200	547453	0	0
2024-09-20 19:34:47			0	38263	0	0	0	23605	22210	158516	27300	1058382	46438	108703	0	0	8199	548556	0	0
2024-09-20 19:35:47			0	38272	0	0	0	23610	22200	158580	27403	1058346	46425	108705	0	0	8199	548235	0	0
2024-09-20 19:36:47			0	38262	0	0	0	23618	22200	158544	27377	1058310	46425	108708	0	0	8198	548626	0	0
2024-09-20 19:37:47			0	38247	0	0	0	23610	22200	158596	27069	1058337	46448	108705	0	0	8198	549213	0	0
2024-09-20 19:38:47			0	38264	0	0	0	23602	22200	158560	27397	1058373	46437	108702	0	0	8199	548547	0	0
2024-09-20 19:39:47			0	38256	0	0	0	23602	22200	158680	27272	1058319	46437	108702	0	0	8198	548860	0	0
2024-09-20 19:40:47			0	38247	0	0	0	23602	22190	158644	27460	1058301	46437	108702	0	0	8198	549243	0	0
2024-09-20 19:41:47			0	38254	0	0	0	23605	22190	158720	27242	1058301	46437	108703	0	0	8198	548969	0	0
2024-09-20 19:42:47			0	38254	0	0	0	23599	22190	158744	27192	1058265	46447	108701	0	0	8198	548969	0	0
2024-09-20 19:43:47			0	38221	0	0	0	23597	22190	158664	27362	1058239	46447	108700	0	0	8196	550262	0	0
2024-09-20 19:44:47			0	38227	0	0	0	23602	22190	158760	27419	1058292	46436	108702	0	0	8196	550027	0	0
2024-09-20 19:45:47			0	38202	0	0	0	23607	22190	158880	27402	1058301	46448	108704	0	0	8195	551007	0	0
2024-09-20 19:46:47			0	38203	0	0	0	23605	22190	158856	27391	1058301	46448	108703	0	0	8195	550968	0	0
2024-09-20 19:47:47			0	38215	0	0	0	23602	22180	158824	27060	1058230	46435	108702	0	0	8196	550528	0	0
2024-09-20 19:48:47			0	38211	0	0	0	23599	22190	158832	27298	1058354	46448	108701	0	0	8196	550654	0	0
2024-09-20 19:49:47			0	38214	0	0	0	23602	22190	158888	27093	1058292	46424	108702	0	0	8196	550536	0	0
2024-09-20 19:50:47			0	38199	0	0	0	23599	22190	158844	27135	1058319	46447	108701	0	0	8195	551125	0	0
2024-09-20 19:51:47			0	38193	0	0	0	23594	22190	158832	27239	1058239	46436	108699	0	0	8195	551360	0	0
2024-09-20 19:52:47			0	38185	0	0	0	23592	22190	158940	27178	1058212	46447	108698	0	0	8194	551674	0	0
2024-09-20 19:53:47			0	38187	0	0	0	23586	22190	158992	27246	1058292	46436	108696	0	0	8194	551596	0	0
2024-09-20 19:54:47			0	38193	0	0	0	23592	22190	158888	27050	1058328	46448	108698	0	0	8195	551360	0	0
2024-09-20 19:55:47			0	38188	0	0	0	23594	22190	158920	27341	1058239	46447	108699	0	0	8194	551556	0	0
2024-09-20 19:56:47			0	38194	0	0	0	23589	22180	158996	27440	1058274	46434	108697	0	0	8195	551352	0	0
2024-09-20 19:57:47			0	38199	0	0	0	23597	22190	158968	27370	1058274	46437	108700	0	0	8195	551125	0	0
2024-09-20 19:58:47			0	38182	0	0	0	23589	22180	158884	27083	1058274	46434	108697	0	0	8194	551823	0	0
2024-09-20 19:59:47			0	38161	0	0	0	23592	22190	158968	27277	1058239	46436	108698	0	0	8193	552617	0	0
2024-09-20 20:00:47			0	38162	0	0	0	23599	22180	159064	27007	1058203	46446	108701	0	0	8193	552609	0	0
2024-09-20 20:01:47			0	38160	0	0	0	23589	22180	159144	27412	1058176	46435	108697	0	0	8193	552687	0	0
2024-09-20 20:02:47			0	38148	0	0	0	23594	22180	159160	27346	1058221	46422	108699	0	0	8192	553159	0	0
2024-09-20 20:03:47			0	38146	0	0	0	23586	22170	159152	27327	1058185	46445	108696	0	0	8192	553268	0	0
2024-09-20 20:04:47			0	38152	0	0	0	23592	22180	158992	27334	1058194	46445	108698	0	0	8192	553002	0	0
2024-09-20 20:05:47			0	38141	0	0	0	23589	22180	159140	27133	1058248	46445	108697	0	0	8192	553434	0	0
2024-09-20 20:06:47			0	38160	0	0	0	23589	22180	159156	27490	1058176	46446	108697	0	0	8193	552687	0	0
2024-09-20 20:07:47			0	38137	0	0	0	23579	22180	159112	27469	1058221	46445	108693	0	0	8192	553592	0	0
2024-09-20 20:08:47			0	38124	0	0	0	23579	22170	159104	27222	1058176	46434	108693	0	0	8191	554134	0	0
2024-09-20 20:09:47			0	38127	0	0	0	23571	22180	159088	27133	1058256	46446	108690	0	0	8191	553985	0	0
2024-09-20 20:10:47			0	38138	0	0	0	23586	22170	159008	27466	1058150	46434	108696	0	0	8191	553583	0	0
2024-09-20 20:11:47			0	38131	0	0	0	23576	22170	159068	27473	1058123	46445	108692	0	0	8191	553859	0	0
2024-09-20 20:12:47			0	38118	0	0	0	23579	22180	159152	27164	1058168	46445	108693	0	0	8190	554339	0	0
2024-09-20 20:13:47			0	38133	0	0	0	23576	22160	159164	27235	1058221	46411	108692	0	0	8191	553811	0	0
2024-09-20 20:14:47			0	38150	0	0	0	23576	22170	159192	27454	1058256	46434	108692	0	0	8192	553111	0	0
2024-09-20 20:15:47			0	38136	0	0	0	23576	22170	159068	27230	1058230	46434	108692	0	0	8192	553662	0	0
2024-09-20 20:16:47			0	38137	0	0	0	23561	22170	159032	27196	1058159	46434	108686	0	0	8192	553622	0	0
2024-09-20 20:17:47			0	38139	0	0	0	23550	22170	159020	27144	1058132	46422	108682	0	0	8192	553544	0	0
2024-09-20 20:18:47			0	38171	0	0	0	23566	22160	158940	27601	1058141	46433	108688	0	0	8194	552316	0	0
2024-09-20 20:19:47			0	38151	0	0	0	23566	22160	158928	27552	1058167	46433	108688	0	0	8193	553103	0	0
2024-09-20 20:20:47			0	38178	0	0	0	23555	22160	159028	27100	1058194	46444	108684	0	0	8194	552041	0	0
2024-09-20 20:21:47			0	38160	0	0	0	23568	22160	158996	27211	1058194	46444	108689	0	0	8193	552749	0	0
2024-09-20 20:22:47			0	38157	0	0	0	23561	22140	159008	27305	1058105	46419	108686	0	0	8193	552928	0	0
2024-09-20 20:23:47			0	38169	0	0	0	23561	22160	159064	27343	1058185	46443	108686	0	0	8194	552395	0	0
2024-09-20 20:24:47			0	38172	0	0	0	23561	22160	159132	27412	1058052	46431	108686	0	0	8194	552277	0	0
2024-09-20 20:25:47			0	38151	0	0	0	23563	22160	159044	27244	1058078	46431	108687	0	0	8193	553103	0	0
2024-09-20 20:26:47			0	38162	0	0	0	23566	22140	159044	27163	1058158	46430	108688	0	0	8193	552732	0	0
2024-09-20 20:27:47			0	38183	0	0	0	23563	22160	159060	27398	1058158	46431	108687	0	0	8194	551845	0	0
2024-09-20 20:28:47			0	38183	0	0	0	23563	22150	158996	27485	1058096	46431	108687	0	0	8194	551876	0	0
2024-09-20 20:29:47			0	38169	0	0	0	23558	22160	159048	27488	1058132	46443	108685	0	0	8194	552395	0	0
2024-09-20 20:30:47			0	38169	0	0	0	23561	22150	158984	27689	1058114	46431	108686	0	0	8194	552426	0	0
2024-09-20 20:31:47			0	38167	0	0	0	23553	22160	159040	27583	1058141	46444	108683	0	0	8194	552474	0	0
2024-09-20 20:32:47			0	38136	0	0	0	23550	22150	159172	27390	1058123	46443	108682	0	0	8192	553724	0	0
2024-09-20 20:33:47			0	38132	0	0	0	23555	22150	159132	27415	1058061	46443	108684	0	0	8192	553881	0	0
2024-09-20 20:34:47			0	38146	0	0	0	23555	22150	159120	27613	1058141	46431	108684	0	0	8192	553330	0	0
2024-09-20 20:35:47			0	38159	0	0	0	23553	22150	159152	27248	1058096	46454	108683	0	0	8193	552819	0	0
2024-09-20 20:36:47			0	38119	0	0	0	23553	22150	159200	27568	1058087	46443	108683	0	0	8191	554393	0	0
2024-09-20 20:37:47			0	38111	0	0	0	23550	22140	159236	27412	1058105	46442	108682	0	0	8190	554739	0	0
2024-09-20 20:38:47			0	38112	0	0	0	23537	22140	159264	27459	1058043	46429	108677	0	0	8191	554700	0	0
2024-09-20 20:39:47			0	38100	0	0	0	23542	22140	159252	27502	1058052	46409	108679	0	0	8190	555173	0	0
2024-09-20 20:40:47			0	38103	0	0	0	23540	22130	159268	27521	1058051	46429	108678	0	0	8190	555085	0	0
2024-09-20 20:41:47			0	38109	0	0	0	23540	22140	159380	27376	1058043	46429	108678	0	0	8190	554818	0	0
2024-09-20 20:42:47			0	38078	0	0	0	23540	22130	159352	27552	1057980	46429	108678	0	0	8189	556071	0	0
2024-09-20 20:43:47			0	38077	0	0	0	23535	22130	159368	27353	1058007	46418	108676	0	0	8189	556111	0	0
2024-09-20 20:44:47			0	38043	0	0	0	23527	22140	159332	27441	1058069	46429	108673	0	0	8187	557422	0	0
2024-09-20 20:45:47			0	38040	0	0	0	23535	22130	159560	27343	1057998	46429	108676	0	0	8186	557572	0	0
2024-09-20 20:46:47			0	38046	0	0	0	23522	22120	159540	27248	1057927	46439	108671	0	0	8187	557366	0	0
2024-09-20 20:47:47			0	38025	0	0	0	23522	22130	159539	27284	1057998	46418	108671	0	0	8186	558165	0	0
2024-09-20 20:48:47			0	38016	0	0	0	23516	22130	159655	27569	1057954	46429	108669	0	0	8185	558521	0	0
2024-09-20 20:49:47			0	38014	0	0	0	23514	22120	159751	27201	1057909	46440	108668	0	0	8185	558631	0	0
2024-09-20 20:50:47			0	38008	0	0	0	23522	22120	159803	27362	1057989	46440	108671	0	0	8185	558869	0	0
2024-09-20 20:51:47			0	38024	0	0	0	23519	22120	159695	27400	1057953	46428	108670	0	0	8186	558236	0	0
2024-09-20 20:52:47			0	37993	0	0	0	23516	22120	159763	27104	1057962	46429	108669	0	0	8184	559463	0	0
2024-09-20 20:53:47			0	37994	0	0	0	23509	22120	159699	27348	1057980	46416	108666	0	0	8184	559423	0	0
2024-09-20 20:54:47			0	38015	0	0	0	23506	22110	159755	27398	1057945	46426	108665	0	0	8185	558623	0	0
2024-09-20 20:55:47			0	38011	0	0	0	23498	22120	159751	26922	1057900	46428	108662	0	0	8185	558750	0	0
2024-09-20 20:56:47			0	38023	0	0	0	23498	22110	159711	27123	1057882	46416	108662	0	0	8186	558307	0	0
2024-09-20 20:57:47			0	38017	0	0	0	23485	22100	159747	27166	1057838	46415	108657	0	0	8186	558575	0	0
2024-09-20 20:58:47			0	38035	0	0	0	23483	22100	159588	27433	1057918	46437	108656	0	0	8187	557863	0	0
2024-09-20 20:59:47			0	38051	0	0	0	23490	22080	159572	27194	1057811	46424	108659	0	0	8188	557293	0	0
2024-09-20 21:00:47			0	38058	0	0	0	23488	22090	159464	26951	1057829	46414	108658	0	0	8188	556985	0	0
2024-09-20 21:01:47			0	38072	0	0	0	23493	22090	159472	27248	1057802	46414	108660	0	0	8189	556432	0	0
2024-09-20 21:02:47			0	38080	0	0	0	23485	22090	159460	27199	1057802	46436	108657	0	0	8189	556116	0	0
2024-09-20 21:03:47			0	38069	0	0	0	23488	22080	159400	27130	1057784	46424	108658	0	0	8189	556582	0	0
2024-09-20 21:04:47			0	38096	0	0	0	23488	22090	159340	27471	1057766	46424	108658	0	0	8190	555485	0	0
2024-09-20 21:05:47			0	38093	0	0	0	23490	22080	159476	27098	1057775	46435	108659	0	0	8190	555634	0	0
2024-09-20 21:06:47			0	38081	0	0	0	23490	22080	159516	27454	1057722	46413	108659	0	0	8189	556108	0	0
2024-09-20 21:07:47			0	38085	0	0	0	23488	22080	159496	27189	1057722	46423	108658	0	0	8190	555950	0	0
2024-09-20 21:08:47			0	38079	0	0	0	23485	22090	159568	27306	1057775	46436	108657	0	0	8189	556156	0	0
2024-09-20 21:09:47			0	38053	0	0	0	23480	22080	159552	27355	1057749	46423	108655	0	0	8188	557214	0	0
2024-09-20 21:10:47			0	38070	0	0	0	23493	22080	159588	27251	1057802	46435	108660	0	0	8189	556542	0	0
2024-09-20 21:11:47			0	38062	0	0	0	23485	22080	159592	27235	1057775	46423	108657	0	0	8188	556858	0	0
2024-09-20 21:12:47			0	38052	0	0	0	23496	22070	159620	27039	1057793	46434	108661	0	0	8188	557284	0	0
2024-09-20 21:13:47			0	38057	0	0	0	23498	22080	159616	27326	1057802	46423	108662	0	0	8188	557056	0	0
2024-09-20 21:14:47			0	38036	0	0	0	23503	22080	159692	27410	1057749	46446	108664	0	0	8187	557886	0	0
2024-09-20 21:15:47			0	38038	0	0	0	23496	22070	159692	27092	1057766	46445	108661	0	0	8187	557838	0	0
2024-09-20 21:16:47			0	38034	0	0	0	23501	22070	159676	27213	1057810	46422	108663	0	0	8186	557996	0	0
2024-09-20 21:17:47			0	38037	0	0	0	23496	22070	159756	27206	1057784	46422	108661	0	0	8187	557877	0	0
2024-09-20 21:18:47			0	38007	0	0	0	23498	22080	159819	27230	1057811	46436	108662	0	0	8185	559033	0	0
2024-09-20 21:19:47			0	38050	0	0	0	23498	22070	159696	27164	1057757	46434	108662	0	0	8187	557363	0	0
2024-09-20 21:20:47			0	38056	0	0	0	23503	22080	159656	27495	1057802	46435	108664	0	0	8188	557095	0	0
2024-09-20 21:21:47			0	38053	0	0	0	23498	22080	159640	27206	1057749	46435	108662	0	0	8188	557214	0	0
2024-09-20 21:22:47			0	38054	0	0	0	23503	22080	159548	27339	1057811	46436	108664	0	0	8188	557174	0	0
2024-09-20 21:23:47			0	38069	0	0	0	23506	22080	159540	27435	1057829	46423	108665	0	0	8188	556582	0	0
2024-09-20 21:24:47			0	38060	0	0	0	23498	22080	159548	27355	1057811	46424	108662	0	0	8188	556937	0	0
2024-09-20 21:25:47			0	38073	0	0	0	23498	22080	159580	27568	1057802	46423	108662	0	0	8189	556424	0	0
2024-09-20 21:26:47			0	38055	0	0	0	23498	22090	159616	27256	1057820	46424	108662	0	0	8188	557103	0	0
2024-09-20 21:27:47			0	38052	0	0	0	23496	22080	159632	27436	1057731	46424	108661	0	0	8188	557253	0	0
2024-09-20 21:28:47			0	38051	0	0	0	23490	22080	159680	27715	1057811	46436	108659	0	0	8188	557293	0	0
2024-09-20 21:29:47			0	38040	0	0	0	23488	22080	159648	27670	1057784	46424	108658	0	0	8187	557727	0	0
2024-09-20 21:30:47			0	38038	0	0	0	23496	22080	159716	27282	1057775	46423	108661	0	0	8187	557807	0	0
2024-09-20 21:31:47			0	38054	0	0	0	23490	22070	159604	27554	1057793	46434	108659	0	0	8188	557205	0	0
2024-09-20 21:32:47			0	38038	0	0	0	23490	22070	159620	27362	1057766	46434	108659	0	0	8187	557838	0	0
2024-09-20 21:33:47			0	38022	0	0	0	23485	22070	159667	27296	1057757	46422	108657	0	0	8186	558471	0	0
2024-09-20 21:34:47			0	38032	0	0	0	23470	22080	159640	27440	1057802	46423	108651	0	0	8187	558044	0	0
2024-09-20 21:35:47			0	38045	0	0	0	23467	22080	159592	27187	1057749	46423	108650	0	0	8188	557530	0	0
2024-09-20 21:36:47			0	38069	0	0	0	23475	22080	159528	27419	1057695	46423	108653	0	0	8189	556582	0	0
2024-09-20 21:37:47			0	38066	0	0	0	23470	22070	159480	27405	1057704	46422	108651	0	0	8189	556731	0	0
2024-09-20 21:38:47			0	38068	0	0	0	23472	22080	159508	27498	1057749	46435	108652	0	0	8189	556621	0	0
2024-09-20 21:39:47			0	38072	0	0	0	23472	22060	159444	27435	1057615	46445	108652	0	0	8189	556525	0	0
2024-09-20 21:40:47			0	38061	0	0	0	23475	22060	159584	27149	1057695	46434	108653	0	0	8188	556960	0	0
2024-09-20 21:41:47			0	38064	0	0	0	23467	22060	159584	27161	1057695	46412	108650	0	0	8189	556841	0	0
2024-09-20 21:42:47			0	38050	0	0	0	23462	22070	159580	27376	1057704	46434	108648	0	0	8188	557363	0	0
2024-09-20 21:43:47			0	38067	0	0	0	23459	22060	159716	27265	1057659	46421	108647	0	0	8189	556723	0	0
2024-09-20 21:44:47			0	38056	0	0	0	23438	22050	159600	27194	1057650	46410	108639	0	0	8189	557188	0	0
2024-09-20 21:45:47			0	38093	0	0	0	23438	22060	159568	27376	1057712	46400	108639	0	0	8191	555696	0	0
2024-09-20 21:46:47			0	38087	0	0	0	23454	22050	159540	27296	1057623	46420	108645	0	0	8190	555964	0	0
2024-09-20 21:47:47			0	38069	0	0	0	23441	22040	159444	27447	1057499	46409	108640	0	0	8189	556706	0	0
2024-09-20 21:48:47			0	38110	0	0	0	23441	22040	159360	27147	1057570	46419	108640	0	0	8192	555088	0	0
2024-09-20 21:49:47			0	38091	0	0	0	23444	22040	159272	27176	1057543	46419	108641	0	0	8191	555837	0	0
2024-09-20 21:50:47			0	38103	0	0	0	23438	22050	159420	27358	1057614	46419	108639	0	0	8191	555333	0	0
2024-09-20 21:51:47			0	38119	0	0	0	23428	22040	159384	27213	1057543	46419	108635	0	0	8192	554733	0	0
2024-09-20 21:52:47			0	38128	0	0	0	23425	22030	159416	27346	1057507	46408	108634	0	0	8193	554410	0	0
2024-09-20 21:53:47			0	38134	0	0	0	23446	22030	159360	27505	1057534	46418	108642	0	0	8193	554173	0	0
2024-09-20 21:54:47			0	38115	0	0	0	23444	22030	159364	27367	1057525	46417	108641	0	0	8192	554922	0	0
2024-09-20 21:55:47			0	38131	0	0	0	23446	22020	159372	27398	1057516	46417	108642	0	0	8193	554322	0	0
2024-09-20 21:56:47			0	38128	0	0	0	23438	22030	159464	27519	1057552	46429	108639	0	0	8193	554410	0	0
2024-09-20 21:57:47			0	38097	0	0	0	23441	22030	159504	27419	1057507	46430	108640	0	0	8191	555632	0	0
2024-09-20 21:58:47			0	38089	0	0	0	23431	22030	159512	27493	1057525	46417	108636	0	0	8191	555947	0	0
2024-09-20 21:59:47			0	38098	0	0	0	23428	22030	159468	27135	1057561	46430	108635	0	0	8191	555592	0	0
2024-09-20 22:00:47			0	38100	0	0	0	23446	22030	159464	27241	1057498	46417	108642	0	0	8191	555513	0	0
2024-09-20 22:01:47			0	38080	0	0	0	23449	22020	159368	27300	1057507	46417	108643	0	0	8190	556333	0	0
2024-09-20 22:02:47			0	38078	0	0	0	23449	22020	159548	27059	1057516	46429	108643	0	0	8190	556412	0	0
2024-09-20 22:03:47			0	38081	0	0	0	23431	22030	159492	27395	1057498	46417	108636	0	0	8190	556263	0	0
2024-09-20 22:04:47			0	38083	0	0	0	23431	22030	159616	27486	1057445	46417	108636	0	0	8190	556184	0	0
2024-09-20 22:05:47			0	38086	0	0	0	23428	22020	159532	27194	1057543	46417	108635	0	0	8190	556097	0	0
2024-09-20 22:06:47			0	38112	0	0	0	23425	22030	159436	27343	1057472	46417	108634	0	0	8192	555040	0	0
2024-09-20 22:07:47			0	38125	0	0	0	23423	22030	159376	27000	1057534	46430	108633	0	0	8193	554528	0	0
2024-09-20 22:08:47			0	38142	0	0	0	23423	22030	159312	27621	1057445	46429	108633	0	0	8194	553858	0	0
2024-09-20 22:09:47			0	38129	0	0	0	23423	22020	159328	27351	1057481	46417	108633	0	0	8193	554401	0	0
2024-09-20 22:10:47			0	38123	0	0	0	23423	22010	159360	27383	1057498	46406	108633	0	0	8193	554668	0	0
2024-09-20 22:11:47			0	38136	0	0	0	23428	22020	159332	27036	1057463	46417	108635	0	0	8193	554125	0	0
2024-09-20 22:12:47			0	38122	0	0	0	23420	22020	159348	27208	1057489	46429	108632	0	0	8193	554677	0	0
2024-09-20 22:13:47			0	38117	0	0	0	23428	22020	159400	27213	1057454	46407	108635	0	0	8192	554874	0	0
2024-09-20 22:14:47			0	38140	0	0	0	23415	22010	159464	27208	1057463	46427	108630	0	0	8194	553999	0	0
2024-09-20 22:15:47			0	38145	0	0	0	23425	22020	159388	27317	1057463	46417	108634	0	0	8194	553771	0	0
2024-09-20 22:16:47			0	38127	0	0	0	23423	22010	159432	27064	1057418	46428	108633	0	0	8193	554511	0	0
2024-09-20 22:17:47			0	38116	0	0	0	23428	22010	159400	27260	1057498	46428	108635	0	0	8192	554944	0	0
2024-09-20 22:18:47			0	38121	0	0	0	23428	22020	159448	27376	1057481	46429	108635	0	0	8192	554716	0	0
2024-09-20 22:19:47			0	38124	0	0	0	23428	22010	159464	27338	1057445	46416	108635	0	0	8193	554629	0	0
2024-09-20 22:20:47			0	38136	0	0	0	23418	22010	159392	27064	1057489	46416	108631	0	0	8193	554156	0	0
2024-09-20 22:21:47			0	38125	0	0	0	23418	22020	159408	27341	1057454	46417	108631	0	0	8193	554559	0	0
2024-09-20 22:22:47			0	38102	0	0	0	23420	22000	159416	27436	1057480	46416	108632	0	0	8191	555527	0	0
2024-09-20 22:23:47			0	38131	0	0	0	23415	22000	159436	27180	1057480	46416	108630	0	0	8193	554384	0	0
2024-09-20 22:24:47			0	38115	0	0	0	23410	22010	159344	27526	1057392	46416	108628	0	0	8192	554984	0	0
2024-09-20 22:25:47			0	38103	0	0	0	23407	22010	159424	27433	1057463	46416	108627	0	0	8192	555457	0	0
2024-09-20 22:26:47			0	38103	0	0	0	23412	22000	159528	27215	1057347	46405	108629	0	0	8192	555488	0	0
2024-09-20 22:27:47			0	38096	0	0	0	23410	22010	159428	27124	1057463	46416	108628	0	0	8191	555733	0	0
2024-09-20 22:28:47			0	38099	0	0	0	23410	21990	159448	27294	1057418	46427	108628	0	0	8191	555677	0	0
2024-09-20 22:29:47			0	38097	0	0	0	23405	22010	159500	27343	1057409	46416	108626	0	0	8191	555694	0	0
2024-09-20 22:30:47			0	38094	0	0	0	23407	22010	159600	27362	1057409	46438	108627	0	0	8191	555812	0	0
2024-09-20 22:31:47			0	38088	0	0	0	23410	22000	159448	26961	1057347	46427	108628	0	0	8191	556080	0	0
2024-09-20 22:32:47			0	38102	0	0	0	23399	21990	159512	27092	1057365	46416	108624	0	0	8192	555558	0	0
2024-09-20 22:33:47			0	38100	0	0	0	23412	22000	159508	27267	1057480	46427	108629	0	0	8191	555606	0	0
2024-09-20 22:34:47			0	38092	0	0	0	23397	22000	159488	27176	1057427	46405	108623	0	0	8191	555922	0	0
2024-09-20 22:35:47			0	38086	0	0	0	23402	22000	159608	27131	1057427	46427	108625	0	0	8191	556159	0	0
2024-09-20 22:36:47			0	38070	0	0	0	23410	21990	159568	27332	1057391	46405	108628	0	0	8190	556822	0	0
2024-09-20 22:37:47			0	38072	0	0	0	23397	22000	159556	26991	1057374	46416	108623	0	0	8190	556712	0	0
2024-09-20 22:38:47			0	38082	0	0	0	23389	21990	159608	27268	1057409	46426	108620	0	0	8191	556348	0	0
2024-09-20 22:39:47			0	38063	0	0	0	23394	21990	159660	27161	1057365	46405	108622	0	0	8190	557098	0	0
2024-09-20 22:40:47			0	38063	0	0	0	23402	21990	159680	27085	1057365	46416	108625	0	0	8189	557098	0	0
2024-09-20 22:41:47			0	38064	0	0	0	23405	21990	159652	27272	1057365	46416	108626	0	0	8189	557059	0	0
2024-09-20 22:42:47			0	38061	0	0	0	23397	21990	159640	27005	1057338	46427	108623	0	0	8189	557177	0	0
2024-09-20 22:43:47			0	38067	0	0	0	23405	21980	159652	27235	1057347	46403	108626	0	0	8190	556971	0	0
2024-09-20 22:44:47			0	38075	0	0	0	23399	21990	159596	27124	1057383	46437	108624	0	0	8190	556624	0	0
2024-09-20 22:45:47			0	38077	0	0	0	23392	21980	159576	27251	1057374	46436	108621	0	0	8190	556576	0	0
2024-09-20 22:46:47			0	38084	0	0	0	23394	21990	159564	27154	1057383	46415	108622	0	0	8191	556269	0	0
2024-09-20 22:47:47			0	38066	0	0	0	23397	21980	159568	27144	1057374	46414	108623	0	0	8190	557011	0	0
2024-09-20 22:48:47			0	38088	0	0	0	23389	21990	159628	26948	1057365	46427	108620	0	0	8191	556111	0	0
2024-09-20 22:49:47			0	38090	0	0	0	23397	21980	159592	27374	1057320	46414	108623	0	0	8191	556063	0	0
2024-09-20 22:50:47			0	38076	0	0	0	23394	21980	159572	27312	1057347	46414	108622	0	0	8190	556616	0	0
2024-09-20 22:51:47			0	38089	0	0	0	23392	21990	159564	27313	1057365	46416	108621	0	0	8191	556071	0	0
2024-09-20 22:52:47			0	38078	0	0	0	23399	21990	159624	27128	1057356	46415	108624	0	0	8190	556506	0	0
2024-09-20 22:53:47			0	38083	0	0	0	23394	21980	159628	26948	1057391	46413	108622	0	0	8191	556339	0	0
2024-09-20 22:54:47			0	38073	0	0	0	23392	21990	159596	27119	1057356	46437	108621	0	0	8190	556703	0	0
2024-09-20 22:55:47			0	38080	0	0	0	23399	21980	159620	26902	1057347	46425	108624	0	0	8190	556457	0	0
2024-09-20 22:56:47			0	38068	0	0	0	23389	21980	159604	26892	1057400	46414	108620	0	0	8190	556932	0	0
2024-09-20 22:57:47			0	38092	0	0	0	23392	21990	159644	27140	1057356	46415	108621	0	0	8191	555953	0	0
2024-09-20 22:58:47			0	38078	0	0	0	23389	21980	159536	27157	1057347	46403	108620	0	0	8190	556537	0	0
2024-09-20 22:59:47			0	38082	0	0	0	23399	21980	159700	27043	1057294	46425	108624	0	0	8191	556379	0	0
2024-09-20 23:00:47			0	38080	0	0	0	23384	21980	159632	27289	1057347	46414	108618	0	0	8191	556457	0	0
2024-09-20 23:01:47			0	38067	0	0	0	23384	21970	159608	27275	1057329	46402	108618	0	0	8190	557002	0	0
2024-09-20 23:02:47			0	38090	0	0	0	23371	21970	159660	27433	1057329	46424	108613	0	0	8191	556094	0	0
2024-09-20 23:03:47			0	38076	0	0	0	23371	21990	159544	27244	1057356	46415	108613	0	0	8191	556585	0	0
2024-09-20 23:04:47			0	38074	0	0	0	23363	21970	159660	27202	1057267	46413	108610	0	0	8191	556726	0	0
2024-09-20 23:05:47			0	38071	0	0	0	23379	21970	159624	27220	1057276	46413	108616	0	0	8190	556844	0	0
2024-09-20 23:06:47			0	38077	0	0	0	23373	21970	159700	27332	1057222	46413	108614	0	0	8191	556607	0	0
2024-09-20 23:07:47			0	38075	0	0	0	23366	21970	159596	27287	1057320	46435	108611	0	0	8191	556686	0	0
2024-09-20 23:08:47			0	38090	0	0	0	23358	21970	159676	27123	1057249	46413	108608	0	0	8192	556094	0	0
2024-09-20 23:09:47			0	38097	0	0	0	23355	21970	159660	27109	1057320	46424	108607	0	0	8192	555818	0	0
2024-09-20 23:10:47			0	38088	0	0	0	23355	21950	159560	27279	1057187	46411	108607	0	0	8191	556235	0	0
2024-09-20 23:11:47			0	38098	0	0	0	23350	21970	159592	27194	1057240	46391	108605	0	0	8192	555778	0	0
2024-09-20 23:12:47			0	38111	0	0	0	23329	21960	159660	27433	1057222	46400	108597	0	0	8193	555296	0	0
2024-09-20 23:13:47			0	38089	0	0	0	23340	21960	159544	27064	1057196	46400	108601	0	0	8192	556164	0	0
2024-09-20 23:14:47			0	38098	0	0	0	23348	21940	159616	26889	1057115	46410	108604	0	0	8192	555871	0	0
2024-09-20 23:15:47			0	38108	0	0	0	23340	21950	159616	27343	1057124	46411	108601	0	0	8193	555445	0	0
2024-09-20 23:16:47			0	38104	0	0	0	23350	21940	159420	27251	1057195	46410	108605	0	0	8192	555634	0	0
2024-09-20 23:17:47			0	38102	0	0	0	23332	21940	159552	26970	1057106	46398	108598	0	0	8193	555713	0	0
2024-09-20 23:18:47			0	38091	0	0	0	23324	21940	159572	27220	1057115	46388	108595	0	0	8192	556147	0	0
2024-09-20 23:19:47			0	38104	0	0	0	23332	21940	159632	27076	1057106	46398	108598	0	0	8193	555634	0	0
2024-09-20 23:20:47			0	38092	0	0	0	23327	21930	159652	27229	1057044	46409	108596	0	0	8192	556139	0	0
2024-09-20 23:21:47			0	38083	0	0	0	23322	21930	159584	27291	1057017	46431	108594	0	0	8192	556494	0	0
2024-09-20 23:22:47			0	38098	0	0	0	23327	21930	159568	27142	1057017	46398	108596	0	0	8192	555902	0	0
2024-09-20 23:23:47			0	38096	0	0	0	23324	21930	159516	27100	1057035	46409	108595	0	0	8192	555981	0	0
2024-09-20 23:24:47			0	38112	0	0	0	23327	21920	159480	27256	1057159	46408	108596	0	0	8193	555381	0	0
2024-09-20 23:25:47			0	38095	0	0	0	23319	21930	159576	27270	1057035	46409	108593	0	0	8192	556020	0	0
2024-09-20 23:26:47			0	38105	0	0	0	23322	21920	159580	27275	1057026	46408	108594	0	0	8193	555657	0	0
2024-09-20 23:27:47			0	38112	0	0	0	23322	21920	159440	27448	1057026	46397	108594	0	0	8193	555381	0	0
2024-09-20 23:28:47			0	38115	0	0	0	23316	21930	159504	27076	1057035	46409	108592	0	0	8194	555231	0	0
2024-09-20 23:29:47			0	38108	0	0	0	23316	21920	159588	27048	1056964	46396	108592	0	0	8193	555538	0	0
2024-09-20 23:30:47			0	38116	0	0	0	23316	21910	159528	27031	1057008	46396	108592	0	0	8194	555254	0	0
2024-09-20 23:31:47			0	38126	0	0	0	23324	21920	159512	27171	1057017	46407	108595	0	0	8194	554829	0	0
2024-09-20 23:32:47			0	38106	0	0	0	23314	21920	159576	27376	1057017	46407	108591	0	0	8193	555617	0	0
2024-09-20 23:33:47			0	38106	0	0	0	23303	21920	159580	27150	1056990	46396	108587	0	0	8193	555617	0	0
2024-09-20 23:34:47			0	38106	0	0	0	23306	21910	159608	27029	1056955	46407	108588	0	0	8193	555648	0	0
2024-09-20 23:35:47			0	38096	0	0	0	23311	21910	159592	27258	1056955	46407	108590	0	0	8192	556043	0	0
2024-09-20 23:36:47			0	38104	0	0	0	23314	21910	159688	27341	1056946	46406	108591	0	0	8193	555727	0	0
2024-09-20 23:37:47			0	38096	0	0	0	23319	21920	159688	27142	1056990	46396	108593	0	0	8192	556012	0	0
2024-09-20 23:38:47			0	38083	0	0	0	23319	21910	159680	27119	1056999	46416	108593	0	0	8192	556556	0	0
2024-09-20 23:39:47			0	38077	0	0	0	23309	21900	159652	27246	1056937	46395	108589	0	0	8191	556824	0	0
2024-09-20 23:40:47			0	38076	0	0	0	23309	21900	159616	27280	1057017	46406	108589	0	0	8191	556864	0	0
2024-09-20 23:41:47			0	38088	0	0	0	23314	21910	159668	27282	1057052	46395	108591	0	0	8192	556359	0	0
2024-09-20 23:42:47			0	38095	0	0	0	23311	21900	159732	27175	1056955	46394	108590	0	0	8192	556113	0	0
2024-09-20 23:43:47			0	38090	0	0	0	23306	21900	159676	26906	1056955	46416	108588	0	0	8192	556311	0	0
2024-09-20 23:44:47			0	38106	0	0	0	23322	21900	159628	27260	1057035	46405	108594	0	0	8193	555679	0	0
2024-09-20 23:45:47			0	38089	0	0	0	23309	21910	159652	27338	1056972	46416	108589	0	0	8192	556319	0	0
2024-09-20 23:46:47			0	38080	0	0	0	23319	21910	159764	27000	1056946	46395	108593	0	0	8191	556675	0	0
2024-09-20 23:47:47			0	38089	0	0	0	23306	21900	159644	27069	1056910	46406	108588	0	0	8192	556350	0	0
2024-09-20 23:48:47			0	38074	0	0	0	23306	21900	159756	27341	1056990	46416	108588	0	0	8191	556943	0	0
2024-09-20 23:49:47			0	38076	0	0	0	23301	21900	159740	27438	1056955	46405	108586	0	0	8191	556864	0	0
2024-09-20 23:50:47			0	38075	0	0	0	23309	21900	159764	27545	1056910	46416	108589	0	0	8191	556903	0	0
2024-09-20 23:51:47			0	38096	0	0	0	23303	21890	159696	27352	1056892	46404	108587	0	0	8193	556105	0	0
2024-09-20 23:52:47			0	38075	0	0	0	23311	21890	159680	27170	1056919	46426	108590	0	0	8191	556934	0	0
2024-09-20 23:53:47			0	38082	0	0	0	23303	21900	159668	27332	1056928	46405	108587	0	0	8192	556627	0	0
2024-09-20 23:54:47			0	38098	0	0	0	23309	21900	159644	27435	1056928	46394	108589	0	0	8193	555995	0	0
2024-09-20 23:55:47			0	38114	0	0	0	23309	21900	159620	27549	1056928	46394	108589	0	0	8194	555364	0	0
2024-09-20 23:56:47			0	38104	0	0	0	23316	21900	159664	27391	1056955	46416	108592	0	0	8193	555758	0	0
2024-09-20 23:57:47			0	38069	0	0	0	23309	21890	159692	27360	1056919	46415	108589	0	0	8191	557171	0	0
2024-09-20 23:58:47			0	38085	0	0	0	23306	21900	159652	27303	1056937	46406	108588	0	0	8192	556508	0	0
2024-09-20 23:59:47			0	38086	0	0	0	23309	21890	159596	27306	1056919	46404	108589	0	0	8192	556500	0	0
2024-09-21 00:00:47			0	38094	0	0	0	23319	21900	159552	27128	1056981	46405	108593	0	0	8192	556153	0	0
2024-09-21 00:01:47			0	38094	0	0	0	23316	21900	159588	27379	1056955	46416	108592	0	0	8192	556153	0	0
2024-09-21 00:02:47			0	38087	0	0	0	23316	21890	159612	27333	1056999	46415	108592	0	0	8192	556460	0	0
2024-09-21 00:03:47			0	38103	0	0	0	23316	21890	159660	27090	1056892	46393	108592	0	0	8193	555828	0	0
2024-09-21 00:04:47			0	38106	0	0	0	23316	21910	159668	27133	1056972	46406	108592	0	0	8193	555648	0	0
2024-09-21 00:05:47			0	38111	0	0	0	23303	21890	159532	27379	1056919	46404	108587	0	0	8193	555513	0	0
2024-09-21 00:06:47			0	38109	0	0	0	23303	21890	159612	27138	1056919	46393	108587	0	0	8193	555592	0	0
2024-09-21 00:07:47			0	38098	0	0	0	23296	21900	159652	27338	1056937	46416	108584	0	0	8193	555995	0	0
2024-09-21 00:08:47			0	38095	0	0	0	23301	21900	159672	27435	1056955	46416	108586	0	0	8193	556113	0	0
2024-09-21 00:09:47			0	38099	0	0	0	23301	21890	159560	27286	1056946	46404	108586	0	0	8193	555986	0	0
2024-09-21 00:10:47			0	38091	0	0	0	23306	21900	159616	27313	1056910	46406	108588	0	0	8192	556271	0	0
2024-09-21 00:11:47			0	38072	0	0	0	23301	21890	159736	27305	1056919	46404	108586	0	0	8191	557053	0	0
2024-09-21 00:12:47			0	38094	0	0	0	23306	21900	159620	26977	1056955	46383	108588	0	0	8192	556153	0	0
2024-09-21 00:13:47			0	38088	0	0	0	23296	21900	159676	27261	1056928	46405	108584	0	0	8192	556390	0	0
2024-09-21 00:14:47			0	38065	0	0	0	23309	21880	159716	27038	1056901	46415	108589	0	0	8191	557361	0	0
2024-09-21 00:15:47			0	38096	0	0	0	23306	21890	159744	27358	1056910	46404	108588	0	0	8192	556105	0	0
2024-09-21 00:16:47			0	38081	0	0	0	23316	21900	159736	27460	1056901	46394	108592	0	0	8191	556666	0	0
2024-09-21 00:17:47			0	38072	0	0	0	23301	21900	159740	27168	1056955	46405	108586	0	0	8191	557022	0	0
2024-09-21 00:18:47			0	38072	0	0	0	23298	21900	159672	27248	1056955	46416	108585	0	0	8191	557022	0	0
2024-09-21 00:19:47			0	38070	0	0	0	23298	21890	159712	27213	1056866	46404	108585	0	0	8191	557132	0	0
2024-09-21 00:20:47			0	38058	0	0	0	23296	21880	159764	27237	1056901	46415	108584	0	0	8190	557638	0	0
2024-09-21 00:21:47			0	38056	0	0	0	23309	21880	159768	27350	1056874	46393	108589	0	0	8190	557717	0	0
2024-09-21 00:22:47			0	38064	0	0	0	23296	21880	159828	27374	1056928	46404	108584	0	0	8191	557400	0	0
2024-09-21 00:23:47			0	38046	0	0	0	23311	21900	159832	27083	1056981	46383	108590	0	0	8190	558050	0	0
2024-09-21 00:24:47			0	38056	0	0	0	23301	21890	159780	27613	1056910	46415	108586	0	0	8190	557686	0	0
2024-09-21 00:25:47			0	38055	0	0	0	23290	21900	159796	27258	1056928	46416	108582	0	0	8190	557694	0	0
2024-09-21 00:26:47			0	38060	0	0	0	23296	21890	159788	27164	1056883	46415	108584	0	0	8191	557527	0	0
2024-09-21 00:27:47			0	38056	0	0	0	23296	21890	159728	27371	1056830	46404	108584	0	0	8190	557686	0	0
2024-09-21 00:28:47			0	38038	0	0	0	23298	21890	159752	27029	1056892	46382	108585	0	0	8189	558398	0	0
2024-09-21 00:29:47			0	38036	0	0	0	23298	21890	159788	27431	1056946	46415	108585	0	0	8189	558477	0	0
2024-09-21 00:30:47			0	38032	0	0	0	23301	21880	159860	27196	1056928	46415	108586	0	0	8189	558666	0	0
2024-09-21 00:31:47			0	38067	0	0	0	23311	21880	159784	27298	1056874	46404	108590	0	0	8191	557281	0	0
2024-09-21 00:32:47			0	38036	0	0	0	23311	21890	159872	27303	1056937	46404	108590	0	0	8189	558477	0	0
2024-09-21 00:33:47			0	38036	0	0	0	23306	21880	159852	27234	1056901	46404	108588	0	0	8189	558508	0	0
2024-09-21 00:34:47			0	38044	0	0	0	23290	21890	159956	27173	1056910	46404	108582	0	0	8190	558160	0	0
2024-09-21 00:35:47			0	38053	0	0	0	23298	21880	159792	27208	1056874	46415	108585	0	0	8190	557835	0	0
2024-09-21 00:36:47			0	38046	0	0	0	23290	21880	159912	27216	1056892	46403	108582	0	0	8190	558112	0	0
2024-09-21 00:37:47			0	38025	0	0	0	23293	21890	159940	27083	1056883	46404	108583	0	0	8189	558912	0	0
2024-09-21 00:38:47			0	38021	0	0	0	23301	21890	159907	27211	1056857	46415	108586	0	0	8188	559071	0	0
2024-09-21 00:39:47			0	38018	0	0	0	23293	21880	159975	27303	1056901	46404	108583	0	0	8188	559221	0	0
2024-09-21 00:40:47			0	38014	0	0	0	23283	21890	159855	27296	1056883	46404	108579	0	0	8188	559348	0	0
2024-09-21 00:41:47			0	38006	0	0	0	23280	21880	159947	27081	1056874	46404	108578	0	0	8188	559696	0	0
2024-09-21 00:42:47			0	38000	0	0	0	23288	21880	160043	27060	1056865	46403	108581	0	0	8187	559934	0	0
2024-09-21 00:43:47			0	38003	0	0	0	23298	21890	159915	27313	1056830	46404	108585	0	0	8187	559784	0	0
2024-09-21 00:44:47			0	37990	0	0	0	23301	21880	160143	27249	1056901	46404	108586	0	0	8186	560331	0	0
2024-09-21 00:45:47			0	37998	0	0	0	23290	21880	160087	27372	1056759	46403	108582	0	0	8187	560014	0	0
2024-09-21 00:46:47			0	37993	0	0	0	23298	21880	159999	27227	1056892	46392	108585	0	0	8187	560212	0	0
2024-09-21 00:47:47			0	37996	0	0	0	23290	21880	160051	27293	1056901	46415	108582	0	0	8187	560093	0	0
2024-09-21 00:48:47			0	38002	0	0	0	23301	21870	160079	27386	1056803	46391	108586	0	0	8187	559886	0	0
2024-09-21 00:49:47			0	37995	0	0	0	23290	21890	160039	26991	1056910	46415	108582	0	0	8187	560101	0	0
2024-09-21 00:50:47			0	37988	0	0	0	23296	21880	160055	27303	1056919	46414	108584	0	0	8186	560410	0	0
2024-09-21 00:51:47			0	38009	0	0	0	23290	21880	160011	27154	1056848	46404	108582	0	0	8188	559578	0	0
2024-09-21 00:52:47			0	37982	0	0	0	23288	21880	159987	27036	1056821	46404	108581	0	0	8186	560649	0	0
2024-09-21 00:53:47			0	38002	0	0	0	23283	21870	159911	27360	1056830	46413	108579	0	0	8187	559886	0	0
2024-09-21 00:54:47			0	37994	0	0	0	23288	21880	160015	27183	1056848	46393	108581	0	0	8187	560172	0	0
2024-09-21 00:55:47			0	37993	0	0	0	23285	21880	160023	27381	1056839	46392	108580	0	0	8187	560212	0	0
2024-09-21 00:56:47			0	37995	0	0	0	23298	21870	159863	27145	1056874	46413	108585	0	0	8187	560164	0	0
2024-09-21 00:57:47			0	37970	0	0	0	23301	21880	160047	27079	1056812	46392	108586	0	0	8185	561125	0	0
2024-09-21 00:58:47			0	37974	0	0	0	23301	21870	159983	27407	1056857	46391	108586	0	0	8185	560997	0	0
2024-09-21 00:59:47			0	37994	0	0	0	23301	21880	160023	27310	1056901	46415	108586	0	0	8187	560172	0	0
2024-09-21 01:00:47			0	37998	0	0	0	23303	21880	160099	27078	1056919	46414	108587	0	0	8187	560014	0	0
2024-09-21 01:01:47			0	37989	0	0	0	23301	21890	160027	27246	1056830	46393	108586	0	0	8186	560339	0	0
2024-09-21 01:02:47			0	37989	0	0	0	23296	21880	159963	26911	1056821	46415	108584	0	0	8186	560371	0	0
2024-09-21 01:03:47			0	37982	0	0	0	23293	21880	160023	27265	1056812	46414	108583	0	0	8186	560649	0	0
2024-09-21 01:04:47			0	37979	0	0	0	23285	21880	160039	27000	1056848	46404	108580	0	0	8186	560767	0	0
2024-09-21 01:05:47			0	37961	0	0	0	23283	21880	159995	27353	1056839	46392	108579	0	0	8185	561482	0	0
2024-09-21 01:06:47			0	37969	0	0	0	23280	21880	159975	27433	1056865	46403	108578	0	0	8185	561164	0	0
2024-09-21 01:07:47			0	37970	0	0	0	23288	21880	159959	27326	1056874	46404	108581	0	0	8185	561125	0	0
2024-09-21 01:08:47			0	37959	0	0	0	23288	21880	160055	27104	1056865	46403	108581	0	0	8185	561562	0	0
2024-09-21 01:09:47			0	37954	0	0	0	23288	21880	160091	27351	1056759	46392	108581	0	0	8184	561760	0	0
2024-09-21 01:10:47			0	37957	0	0	0	23290	21870	160107	27400	1056750	46402	108582	0	0	8185	561672	0	0
2024-09-21 01:11:47			0	37965	0	0	0	23290	21870	160119	27173	1056803	46413	108582	0	0	8185	561355	0	0
2024-09-21 01:12:47			0	37957	0	0	0	23283	21880	160051	27241	1056892	46403	108579	0	0	8185	561641	0	0
2024-09-21 01:13:47			0	37949	0	0	0	23277	21880	160127	27329	1056839	46403	108577	0	0	8184	561959	0	0
2024-09-21 01:14:47			0	37960	0	0	0	23283	21880	160275	27341	1056901	46393	108579	0	0	8185	561522	0	0
2024-09-21 01:15:47			0	37952	0	0	0	23283	21870	160407	27287	1056803	46391	108579	0	0	8184	561871	0	0
2024-09-21 01:16:47			0	37944	0	0	0	23275	21880	160315	27358	1056874	46404	108576	0	0	8184	562158	0	0
2024-09-21 01:17:47			0	37931	0	0	0	23272	21880	160331	27310	1056892	46403	108575	0	0	8183	562675	0	0
2024-09-21 01:18:47			0	37919	0	0	0	23275	21870	160319	27386	1056883	46413	108576	0	0	8183	563184	0	0
2024-09-21 01:19:47			0	37923	0	0	0	23264	21880	160259	27445	1056786	46403	108572	0	0	8183	562993	0	0
2024-09-21 01:20:47			0	37940	0	0	0	23267	21870	160331	27156	1056848	46402	108573	0	0	8184	562348	0	0
2024-09-21 01:21:47			0	37926	0	0	0	23270	21860	160247	26948	1056759	46413	108574	0	0	8183	562936	0	0
2024-09-21 01:22:47			0	37901	0	0	0	23272	21860	160395	27123	1056830	46390	108575	0	0	8181	563932	0	0
2024-09-21 01:23:47			0	37922	0	0	0	23272	21860	160291	26828	1056759	46402	108575	0	0	8183	563095	0	0
2024-09-21 01:24:47			0	37897	0	0	0	23275	21870	160307	27164	1056830	46391	108576	0	0	8181	564060	0	0
2024-09-21 01:25:47			0	37897	0	0	0	23285	21870	160223	27215	1056821	46413	108580	0	0	8181	564060	0	0
2024-09-21 01:26:47			0	37924	0	0	0	23277	21860	160259	27100	1056750	46412	108577	0	0	8183	563016	0	0
2024-09-21 01:27:47			0	37901	0	0	0	23280	21870	160175	27312	1056821	46402	108578	0	0	8181	563900	0	0
2024-09-21 01:28:47			0	37913	0	0	0	23277	21870	160347	27396	1056794	46402	108577	0	0	8182	563422	0	0
2024-09-21 01:29:47			0	37902	0	0	0	23283	21870	160307	27235	1056768	46413	108579	0	0	8181	563860	0	0
2024-09-21 01:30:47			0	37898	0	0	0	23280	21860	160423	27098	1056785	46391	108578	0	0	8181	564051	0	0
2024-09-21 01:31:47			0	37911	0	0	0	23280	21870	160419	27050	1056857	46402	108578	0	0	8182	563502	0	0
2024-09-21 01:32:47			0	37891	0	0	0	23277	21860	160443	27289	1056812	46402	108577	0	0	8181	564330	0	0
2024-09-21 01:33:47			0	37891	0	0	0	23272	21870	160543	27336	1056750	46413	108575	0	0	8181	564299	0	0
2024-09-21 01:34:47			0	37891	0	0	0	23272	21860	160419	27041	1056803	46401	108575	0	0	8181	564330	0	0
2024-09-21 01:35:47			0	37885	0	0	0	23275	21860	160403	27105	1056759	46413	108576	0	0	8181	564569	0	0
2024-09-21 01:36:47			0	37889	0	0	0	23275	21870	160399	27343	1056821	46402	108576	0	0	8181	564378	0	0
2024-09-21 01:37:47			0	37897	0	0	0	23275	21860	160459	27239	1056750	46412	108576	0	0	8181	564091	0	0
2024-09-21 01:38:47			0	37886	0	0	0	23272	21860	160403	27348	1056750	46401	108575	0	0	8181	564529	0	0
2024-09-21 01:39:47			0	37878	0	0	0	23270	21860	160483	27459	1056785	46413	108574	0	0	8180	564848	0	0
2024-09-21 01:40:47			0	37882	0	0	0	23264	21860	160419	27203	1056776	46390	108572	0	0	8181	564689	0	0
2024-09-21 01:41:47			0	37888	0	0	0	23270	21870	160403	27059	1056741	46402	108574	0	0	8181	564418	0	0
2024-09-21 01:42:47			0	37862	0	0	0	23272	21860	160415	27071	1056830	46412	108575	0	0	8179	565486	0	0
2024-09-21 01:43:47			0	37875	0	0	0	23272	21860	160271	27275	1056759	46413	108575	0	0	8180	564968	0	0
2024-09-21 01:44:47			0	37885	0	0	0	23259	21860	160459	27303	1056732	46413	108570	0	0	8181	564569	0	0
2024-09-21 01:45:47			0	37870	0	0	0	23262	21850	160451	27138	1056688	46400	108571	0	0	8180	565199	0	0
2024-09-21 01:46:47			0	37868	0	0	0	23264	21860	160479	27364	1056670	46390	108572	0	0	8180	565247	0	0
2024-09-21 01:47:47			0	37879	0	0	0	23267	21860	160443	27183	1056785	46380	108573	0	0	8180	564808	0	0
2024-09-21 01:48:47			0	37867	0	0	0	23254	21860	160531	26901	1056723	46390	108568	0	0	8180	565287	0	0
2024-09-21 01:49:47			0	37889	0	0	0	23257	21870	160455	27081	1056768	46402	108569	0	0	8181	564378	0	0
2024-09-21 01:50:47			0	37876	0	0	0	23259	21860	160475	27303	1056723	46390	108570	0	0	8180	564928	0	0
2024-09-21 01:51:47			0	37860	0	0	0	23259	21850	160495	27206	1056741	46400	108570	0	0	8179	565598	0	0
2024-09-21 01:52:47			0	37864	0	0	0	23259	21850	160579	27072	1056705	46411	108570	0	0	8179	565438	0	0
2024-09-21 01:53:47			0	37864	0	0	0	23249	21850	160535	27272	1056705	46389	108566	0	0	8180	565438	0	0
2024-09-21 01:54:47			0	37867	0	0	0	23244	21850	160599	27329	1056714	46400	108564	0	0	8180	565318	0	0
2024-09-21 01:55:47			0	37853	0	0	0	23262	21850	160587	27098	1056714	46389	108571	0	0	8179	565877	0	0
2024-09-21 01:56:47			0	37857	0	0	0	23244	21850	160587	27396	1056679	46389	108564	0	0	8179	565718	0	0
2024-09-21 01:57:47			0	37848	0	0	0	23270	21850	160575	26993	1056679	46400	108574	0	0	8178	566077	0	0
2024-09-21 01:58:47			0	37832	0	0	0	23259	21850	160619	27175	1056767	46400	108570	0	0	8178	566716	0	0
2024-09-21 01:59:47			0	37850	0	0	0	23257	21850	160767	26972	1056741	46411	108569	0	0	8179	565997	0	0
2024-09-21 02:00:47			0	37850	0	0	0	23244	21840	160615	27251	1056696	46410	108564	0	0	8179	566029	0	0
2024-09-21 02:01:47			0	37838	0	0	0	23244	21840	160655	27263	1056696	46388	108564	0	0	8178	566508	0	0
2024-09-21 02:02:47			0	37853	0	0	0	23244	21840	160579	27071	1056670	46388	108564	0	0	8179	565909	0	0
2024-09-21 02:03:47			0	37849	0	0	0	23231	21840	160683	27102	1056661	46399	108559	0	0	8179	566068	0	0
2024-09-21 02:04:47			0	37848	0	0	0	23228	21850	160603	27227	1056732	46400	108558	0	0	8179	566077	0	0
2024-09-21 02:05:47			0	37860	0	0	0	23231	21840	160723	26987	1056643	46388	108559	0	0	8180	565629	0	0
2024-09-21 02:06:47			0	37834	0	0	0	23231	21840	160679	27168	1056607	46399	108559	0	0	8178	566668	0	0
2024-09-21 02:07:47			0	37806	0	0	0	23228	21840	160727	27048	1056687	46410	108558	0	0	8177	567787	0	0
2024-09-21 02:08:47			0	37808	0	0	0	23244	21840	160687	26948	1056634	46410	108564	0	0	8176	567707	0	0
2024-09-21 02:09:47			0	37817	0	0	0	23236	21840	160743	27310	1056607	46388	108561	0	0	8177	567347	0	0
2024-09-21 02:10:47			0	37808	0	0	0	23236	21820	160743	27118	1056554	46408	108561	0	0	8176	567770	0	0
2024-09-21 02:11:47			0	37804	0	0	0	23231	21830	160723	27100	1056625	46398	108559	0	0	8176	567899	0	0
2024-09-21 02:12:47			0	37816	0	0	0	23233	21820	160759	27168	1056660	46386	108560	0	0	8177	567450	0	0
2024-09-21 02:13:47			0	37807	0	0	0	23225	21830	160707	27249	1056589	46398	108557	0	0	8177	567779	0	0
2024-09-21 02:14:47			0	37801	0	0	0	23218	21820	160743	27225	1056554	46397	108554	0	0	8176	568051	0	0
2024-09-21 02:15:47			0	37803	0	0	0	23218	21830	160839	27022	1056598	46387	108554	0	0	8177	567939	0	0
2024-09-21 02:16:47			0	37810	0	0	0	23218	21820	160779	27142	1056598	46408	108554	0	0	8177	567690	0	0
2024-09-21 02:17:47			0	37805	0	0	0	23218	21830	160787	27229	1056616	46387	108554	0	0	8177	567859	0	0
2024-09-21 02:18:47			0	37777	0	0	0	23228	21820	160959	27114	1056554	46397	108558	0	0	8175	569012	0	0
2024-09-21 02:19:47			0	37787	0	0	0	23218	21820	160983	26989	1056598	46386	108554	0	0	8176	568611	0	0
2024-09-21 02:20:47			0	37796	0	0	0	23215	21820	160955	26967	1056598	46397	108553	0	0	8176	568251	0	0
2024-09-21 02:21:47			0	37787	0	0	0	23225	21820	160935	27258	1056545	46397	108557	0	0	8175	568611	0	0
2024-09-21 02:22:47			0	37786	0	0	0	23210	21820	161039	27511	1056545	46397	108551	0	0	8176	568651	0	0
2024-09-21 02:23:47			0	37784	0	0	0	23207	21820	160927	27357	1056518	46386	108550	0	0	8176	568731	0	0
2024-09-21 02:24:47			0	37798	0	0	0	23199	21820	160935	27310	1056527	46386	108547	0	0	8176	568171	0	0
2024-09-21 02:25:47			0	37786	0	0	0	23199	21820	160963	26857	1056554	46386	108547	0	0	8176	568651	0	0
2024-09-21 02:26:47			0	37797	0	0	0	23202	21810	160975	27284	1056553	46374	108548	0	0	8176	568242	0	0
2024-09-21 02:27:47			0	37797	0	0	0	23205	21810	160899	27405	1056509	46396	108549	0	0	8176	568242	0	0
2024-09-21 02:28:47			0	37791	0	0	0	23210	21810	160799	27144	1056536	46385	108551	0	0	8176	568482	0	0
2024-09-21 02:29:47			0	37796	0	0	0	23205	21810	160931	27675	1056509	46385	108549	0	0	8176	568282	0	0
2024-09-21 02:30:47			0	37790	0	0	0	23192	21810	160855	27218	1056500	46384	108544	0	0	8176	568522	0	0
2024-09-21 02:31:47			0	37774	0	0	0	23202	21810	160919	27015	1056429	46396	108548	0	0	8175	569164	0	0
2024-09-21 02:32:47			0	37788	0	0	0	23189	21810	160851	27190	1056500	46384	108543	0	0	8176	568603	0	0
2024-09-21 02:33:47			0	37787	0	0	0	23199	21800	160919	27313	1056465	46395	108547	0	0	8176	568674	0	0
2024-09-21 02:34:47			0	37786	0	0	0	23197	21800	160791	27241	1056456	46405	108546	0	0	8176	568714	0	0
2024-09-21 02:35:47			0	37794	0	0	0	23199	21800	160847	27209	1056429	46394	108547	0	0	8176	568394	0	0
2024-09-21 02:36:47			0	37782	0	0	0	23197	21790	160891	27377	1056367	46383	108546	0	0	8175	568906	0	0
2024-09-21 02:37:47			0	37787	0	0	0	23192	21800	160855	26977	1056429	46394	108544	0	0	8176	568674	0	0
2024-09-21 02:38:47			0	37795	0	0	0	23197	21790	160791	27287	1056367	46394	108546	0	0	8176	568386	0	0
2024-09-21 02:39:47			0	37774	0	0	0	23194	21800	160951	27265	1056438	46395	108545	0	0	8175	569195	0	0
2024-09-21 02:40:47			0	37788	0	0	0	23192	21800	160971	27395	1056402	46383	108544	0	0	8176	568634	0	0
2024-09-21 02:41:47			0	37774	0	0	0	23194	21790	161047	27194	1056420	46383	108545	0	0	8175	569227	0	0
2024-09-21 02:42:47			0	37755	0	0	0	23184	21790	161107	27447	1056420	46394	108541	0	0	8174	569989	0	0
2024-09-21 02:43:47			0	37743	0	0	0	23184	21790	161043	27324	1056420	46383	108541	0	0	8173	570470	0	0
2024-09-21 02:44:47			0	37759	0	0	0	23179	21790	160995	27358	1056393	46383	108539	0	0	8174	569828	0	0
2024-09-21 02:45:47			0	37748	0	0	0	23184	21790	161155	27412	1056411	46382	108541	0	0	8174	570269	0	0
2024-09-21 02:46:47			0	37735	0	0	0	23179	21790	161147	27078	1056358	46393	108539	0	0	8173	570791	0	0
2024-09-21 02:47:47			0	37737	0	0	0	23168	21790	161215	26786	1056384	46393	108535	0	0	8173	570711	0	0
2024-09-21 02:48:47			0	37729	0	0	0	23168	21790	161283	27112	1056331	46382	108535	0	0	8173	571032	0	0
2024-09-21 02:49:47			0	37726	0	0	0	23163	21770	161195	27223	1056331	46381	108533	0	0	8173	571216	0	0
2024-09-21 02:50:47			0	37733	0	0	0	23168	21770	161279	26944	1056295	46402	108535	0	0	8173	570935	0	0
2024-09-21 02:51:47			0	37736	0	0	0	23163	21770	161279	27177	1056322	46380	108533	0	0	8173	570815	0	0
2024-09-21 02:52:47			0	37713	0	0	0	23161	21770	161187	27253	1056331	46392	108532	0	0	8172	571739	0	0
2024-09-21 02:53:47			0	37728	0	0	0	23153	21760	161327	27192	1056260	46380	108529	0	0	8173	571168	0	0
2024-09-21 02:54:47			0	37689	0	0	0	23142	21760	161247	27279	1056277	46369	108525	0	0	8171	572736	0	0
2024-09-21 02:55:47			0	37685	0	0	0	23140	21770	161351	27343	1056242	46391	108524	0	0	8171	572865	0	0
2024-09-21 02:56:47			0	37665	0	0	0	23140	21760	161311	27105	1056224	46390	108524	0	0	8169	573702	0	0
2024-09-21 02:57:47			0	37640	0	0	0	23135	21760	161507	27095	1056224	46401	108522	0	0	8168	574709	0	0
2024-09-21 02:58:47			0	37619	0	0	0	23145	21760	161643	27284	1056197	46390	108526	0	0	8167	575557	0	0
2024-09-21 02:59:47			0	37630	0	0	0	23140	21740	161615	27154	1056171	46389	108524	0	0	8167	575177	0	0
2024-09-21 03:00:47			0	37623	0	0	0	23142	21750	161683	26963	1056233	46378	108525	0	0	8167	575427	0	0
2024-09-21 03:01:47			0	37633	0	0	0	23148	21750	161611	27218	1056215	46379	108527	0	0	8167	575024	0	0
2024-09-21 03:02:47			0	37647	0	0	0	23145	21740	161567	27393	1056224	46389	108526	0	0	8168	574491	0	0
2024-09-21 03:03:47			0	37647	0	0	0	23145	21750	161571	26915	1056233	46389	108526	0	0	8168	574459	0	0
2024-09-21 03:04:47			0	37684	0	0	0	23150	21740	161583	27223	1056162	46377	108528	0	0	8170	573001	0	0
2024-09-21 03:05:47			0	37691	0	0	0	23142	21730	161463	27152	1056206	46376	108525	0	0	8171	572751	0	0
2024-09-21 03:06:47			0	37718	0	0	0	23140	21750	161359	27300	1056233	46389	108524	0	0	8172	571601	0	0
2024-09-21 03:07:47			0	37742	0	0	0	23148	21750	161191	27443	1056180	46389	108527	0	0	8174	570637	0	0
2024-09-21 03:08:47			0	37777	0	0	0	23145	21740	161195	27303	1056251	46400	108526	0	0	8176	569265	0	0
2024-09-21 03:09:47			0	37808	0	0	0	23148	21740	160979	27284	1056224	46367	108527	0	0	8178	568023	0	0
2024-09-21 03:10:47			0	37862	0	0	0	23142	21730	160911	27157	1056233	46387	108525	0	0	8181	565896	0	0
2024-09-21 03:11:47			0	37883	0	0	0	23153	21740	160735	27066	1056188	46377	108529	0	0	8182	565026	0	0
2024-09-21 03:12:47			0	37873	0	0	0	23153	21730	160759	27440	1056233	46387	108529	0	0	8181	565457	0	0
2024-09-21 03:13:47			0	37885	0	0	0	23161	21740	160683	27098	1056215	46377	108532	0	0	8182	564947	0	0
2024-09-21 03:14:47			0	37925	0	0	0	23171	21740	160399	27267	1056277	46389	108536	0	0	8184	563352	0	0
2024-09-21 03:15:47			0	37905	0	0	0	23161	21740	160603	27255	1056197	46389	108532	0	0	8183	564149	0	0
2024-09-21 03:16:47			0	37929	0	0	0	23158	21730	160499	27097	1056233	46398	108531	0	0	8184	563225	0	0
2024-09-21 03:17:47			0	37946	0	0	0	23155	21740	160355	27126	1056277	46378	108530	0	0	8186	562517	0	0
2024-09-21 03:18:47			0	37945	0	0	0	23158	21740	160351	26934	1056268	46377	108531	0	0	8185	562556	0	0
2024-09-21 03:19:47			0	37972	0	0	0	23161	21750	160239	27104	1056313	46378	108532	0	0	8187	561452	0	0
2024-09-21 03:20:47			0	37978	0	0	0	23171	21740	160331	27138	1056268	46388	108536	0	0	8187	561245	0	0
2024-09-21 03:21:47			0	37988	0	0	0	23161	21740	160307	27300	1056277	46389	108532	0	0	8188	560848	0	0
2024-09-21 03:22:47			0	37986	0	0	0	23163	21740	160183	27126	1056277	46400	108533	0	0	8188	560927	0	0
2024-09-21 03:23:47			0	37995	0	0	0	23158	21750	160219	27516	1056242	46390	108531	0	0	8188	560538	0	0
2024-09-21 03:24:47			0	38008	0	0	0	23161	21750	160195	27239	1056260	46389	108532	0	0	8189	560023	0	0
2024-09-21 03:25:47			0	37985	0	0	0	23163	21760	160171	27327	1056331	46379	108533	0	0	8188	560904	0	0
2024-09-21 03:26:47			0	37997	0	0	0	23161	21740	160175	27440	1056224	46400	108532	0	0	8188	560490	0	0
2024-09-21 03:27:47			0	38009	0	0	0	23163	21750	160263	27085	1056286	46378	108533	0	0	8189	559983	0	0
2024-09-21 03:28:47			0	37983	0	0	0	23171	21760	160171	27306	1056304	46401	108536	0	0	8188	560983	0	0
2024-09-21 03:29:47			0	37965	0	0	0	23161	21750	160231	27251	1056269	46390	108532	0	0	8187	561730	0	0
2024-09-21 03:30:47			0	37978	0	0	0	23174	21750	160175	27488	1056260	46389	108537	0	0	8187	561213	0	0
2024-09-21 03:31:47			0	37994	0	0	0	23174	21740	160239	26946	1056304	46389	108537	0	0	8188	560609	0	0
2024-09-21 03:32:47			0	37999	0	0	0	23171	21750	160135	27197	1056269	46390	108536	0	0	8188	560380	0	0
2024-09-21 03:33:47			0	37998	0	0	0	23155	21760	160031	27227	1056304	46390	108530	0	0	8189	560388	0	0
2024-09-21 03:34:47			0	37997	0	0	0	23153	21750	160175	27114	1056295	46401	108529	0	0	8189	560459	0	0
2024-09-21 03:35:47			0	37986	0	0	0	23166	21740	160167	27275	1056295	46377	108534	0	0	8188	560927	0	0
2024-09-21 03:36:47			0	38004	0	0	0	23161	21750	160035	27131	1056260	46389	108532	0	0	8189	560181	0	0
2024-09-21 03:37:47			0	38006	0	0	0	23158	21750	160079	26996	1056313	46378	108531	0	0	8189	560102	0	0
2024-09-21 03:38:47			0	38014	0	0	0	23163	21760	160139	27119	1056251	46379	108533	0	0	8190	559753	0	0
2024-09-21 03:39:47			0	38007	0	0	0	23158	21750	160159	27178	1056286	46378	108531	0	0	8189	560062	0	0
2024-09-21 03:40:47			0	37995	0	0	0	23166	21760	160183	27095	1056304	46369	108534	0	0	8188	560507	0	0
2024-09-21 03:41:47			0	37994	0	0	0	23171	21750	160171	27324	1056286	46389	108536	0	0	8188	560578	0	0
2024-09-21 03:42:47			0	38011	0	0	0	23171	21750	160067	26958	1056295	46390	108536	0	0	8189	559903	0	0
2024-09-21 03:43:47			0	38006	0	0	0	23171	21750	160091	27000	1056269	46390	108536	0	0	8189	560102	0	0
2024-09-21 03:44:47			0	37999	0	0	0	23166	21750	160231	27360	1056295	46390	108534	0	0	8189	560380	0	0
2024-09-21 03:45:47			0	37991	0	0	0	23174	21750	160247	27310	1056322	46390	108537	0	0	8188	560697	0	0
2024-09-21 03:46:47			0	37987	0	0	0	23168	21750	160131	27098	1056269	46379	108535	0	0	8188	560856	0	0
2024-09-21 03:47:47			0	37989	0	0	0	23163	21750	160219	27159	1056242	46390	108533	0	0	8188	560777	0	0
2024-09-21 03:48:47			0	37982	0	0	0	23163	21750	160287	27218	1056242	46390	108533	0	0	8188	561055	0	0
2024-09-21 03:49:47			0	37975	0	0	0	23166	21750	160207	27157	1056206	46400	108534	0	0	8187	561333	0	0
2024-09-21 03:50:47			0	37969	0	0	0	23168	21760	160179	27088	1056277	46401	108535	0	0	8187	561540	0	0
2024-09-21 03:51:47			0	37978	0	0	0	23161	21750	160275	26956	1056322	46401	108532	0	0	8187	561213	0	0
2024-09-21 03:52:47			0	37993	0	0	0	23158	21750	160215	27246	1056322	46379	108531	0	0	8188	560618	0	0
2024-09-21 03:53:47			0	37968	0	0	0	23163	21750	160175	27150	1056260	46400	108533	0	0	8187	561611	0	0
2024-09-21 03:54:47			0	37969	0	0	0	23163	21750	160303	26963	1056322	46390	108533	0	0	8187	561571	0	0
2024-09-21 03:55:47			0	37979	0	0	0	23161	21750	160235	27013	1056242	46390	108532	0	0	8187	561174	0	0
2024-09-21 03:56:47			0	37983	0	0	0	23163	21750	160279	27183	1056295	46390	108533	0	0	8188	561015	0	0
2024-09-21 03:57:47			0	37970	0	0	0	23166	21750	160291	27225	1056313	46378	108534	0	0	8187	561531	0	0
2024-09-21 03:58:47			0	37971	0	0	0	23171	21760	160295	27088	1056277	46390	108536	0	0	8187	561460	0	0
2024-09-21 03:59:47			0	37954	0	0	0	23163	21750	160231	27147	1056233	46389	108533	0	0	8186	562167	0	0
2024-09-21 04:00:47			0	37960	0	0	0	23166	21750	160247	27046	1056322	46379	108534	0	0	8186	561929	0	0
2024-09-21 04:01:47			0	37979	0	0	0	23166	21740	160163	27175	1056304	46389	108534	0	0	8187	561205	0	0
2024-09-21 04:02:47			0	37957	0	0	0	23168	21740	160191	27286	1056251	46389	108535	0	0	8186	562079	0	0
2024-09-21 04:03:47			0	37934	0	0	0	23181	21750	160283	27111	1056233	46400	108540	0	0	8184	562963	0	0
2024-09-21 04:04:47			0	37939	0	0	0	23179	21760	160355	27235	1056340	46391	108539	0	0	8185	562733	0	0
2024-09-21 04:05:47			0	37939	0	0	0	23171	21770	160347	27133	1056322	46380	108536	0	0	8185	562701	0	0
2024-09-21 04:06:47			0	37910	0	0	0	23171	21750	160451	27055	1056269	46379	108536	0	0	8183	563919	0	0
2024-09-21 04:07:47			0	37902	0	0	0	23168	21760	160467	27327	1056251	46379	108535	0	0	8183	564206	0	0
2024-09-21 04:08:47			0	37888	0	0	0	23161	21760	160603	27187	1056260	46391	108532	0	0	8182	564764	0	0
2024-09-21 04:09:47			0	37873	0	0	0	23158	21760	160687	27230	1056313	46391	108531	0	0	8181	565362	0	0
2024-09-21 04:10:47			0	37883	0	0	0	23142	21750	160647	27081	1056162	46401	108525	0	0	8182	564995	0	0
2024-09-21 04:11:47			0	37866	0	0	0	23148	21750	160667	27145	1056286	46378	108527	0	0	8181	565673	0	0
2024-09-21 04:12:47			0	37882	0	0	0	23140	21760	160623	27114	1056224	46390	108524	0	0	8182	565003	0	0
2024-09-21 04:13:47			0	37883	0	0	0	23137	21740	160739	27223	1056197	46378	108523	0	0	8182	565026	0	0
2024-09-21 04:14:47			0	37870	0	0	0	23145	21750	160711	27079	1056233	46389	108526	0	0	8181	565514	0	0
2024-09-21 04:15:47			0	37856	0	0	0	23150	21750	160671	27142	1056206	46400	108528	0	0	8180	566073	0	0
2024-09-21 04:16:47			0	37864	0	0	0	23140	21740	160703	27237	1056224	46400	108524	0	0	8181	565785	0	0
2024-09-21 04:17:47			0	37876	0	0	0	23129	21750	160703	27019	1056233	46389	108520	0	0	8182	565274	0	0
2024-09-21 04:18:47			0	37888	0	0	0	23132	21740	160579	27178	1056188	46377	108521	0	0	8183	564827	0	0
2024-09-21 04:19:47			0	37890	0	0	0	23124	21740	160475	26765	1056162	46388	108518	0	0	8183	564747	0	0
2024-09-21 04:20:47			0	37896	0	0	0	23119	21740	160583	26876	1056135	46377	108516	0	0	8183	564508	0	0
2024-09-21 04:21:47			0	37894	0	0	0	23114	21730	160483	27020	1056144	46387	108514	0	0	8183	564619	0	0
2024-09-21 04:22:47			0	37883	0	0	0	23098	21730	160571	27204	1056179	46376	108508	0	0	8183	565058	0	0
2024-09-21 04:23:47			0	37894	0	0	0	23098	21720	160511	27046	1056135	46376	108508	0	0	8183	564651	0	0
2024-09-21 04:24:47			0	37895	0	0	0	23109	21700	160531	26993	1056072	46384	108512	0	0	8183	564673	0	0
2024-09-21 04:25:47			0	37890	0	0	0	23119	21720	160591	27144	1056073	46375	108516	0	0	8183	564810	0	0
2024-09-21 04:26:47			0	37891	0	0	0	23103	21700	160543	27097	1056019	46384	108510	0	0	8183	564833	0	0
2024-09-21 04:27:47			0	37880	0	0	0	23114	21720	160615	27227	1056082	46387	108514	0	0	8182	565209	0	0
2024-09-21 04:28:47			0	37881	0	0	0	23109	21720	160727	27277	1056099	46375	108512	0	0	8182	565169	0	0
2024-09-21 04:29:47			0	37878	0	0	0	23111	21710	160595	27081	1056081	46396	108513	0	0	8182	565320	0	0
2024-09-21 04:30:47			0	37874	0	0	0	23114	21700	160559	27248	1056046	46374	108514	0	0	8182	565511	0	0
2024-09-21 04:31:47			0	37896	0	0	0	23103	21710	160547	27383	1056081	46375	108510	0	0	8183	564602	0	0
2024-09-21 04:32:47			0	37918	0	0	0	23101	21710	160543	27343	1056055	46385	108509	0	0	8185	563725	0	0
2024-09-21 04:33:47			0	37894	0	0	0	23103	21700	160595	27190	1056019	46362	108510	0	0	8183	564713	0	0
2024-09-21 04:34:47			0	37902	0	0	0	23098	21700	160567	27104	1056046	46384	108508	0	0	8184	564394	0	0
2024-09-21 04:35:47			0	37897	0	0	0	23101	21700	160511	27604	1056019	46374	108509	0	0	8183	564594	0	0
2024-09-21 04:36:47			0	37894	0	0	0	23093	21690	160671	27388	1055983	46374	108506	0	0	8183	564745	0	0
2024-09-21 04:37:47			0	37905	0	0	0	23103	21680	160671	26838	1055912	46383	108510	0	0	8184	564338	0	0
2024-09-21 04:38:47			0	37898	0	0	0	23098	21690	160663	27317	1055983	46384	108508	0	0	8183	564585	0	0
2024-09-21 04:39:47			0	37884	0	0	0	23085	21690	160671	27104	1056090	46374	108503	0	0	8183	565144	0	0
2024-09-21 04:40:47			0	37877	0	0	0	23093	21700	160615	27246	1055992	46384	108506	0	0	8182	565392	0	0
2024-09-21 04:41:47			0	37873	0	0	0	23090	21690	160707	26878	1055930	46395	108505	0	0	8182	565583	0	0
2024-09-21 04:42:47			0	37870	0	0	0	23083	21700	160863	27154	1055966	46384	108502	0	0	8182	565671	0	0
2024-09-21 04:43:47			0	37854	0	0	0	23080	21690	160867	27010	1055921	46383	108501	0	0	8181	566342	0	0
2024-09-21 04:44:47			0	37856	0	0	0	23070	21680	160891	26935	1055912	46373	108497	0	0	8181	566293	0	0
2024-09-21 04:45:47			0	37844	0	0	0	23075	21680	161015	27093	1055903	46349	108499	0	0	8181	566773	0	0
2024-09-21 04:46:47			0	37857	0	0	0	23075	21680	160947	27232	1055886	46373	108499	0	0	8181	566253	0	0
2024-09-21 04:47:47			0	37868	0	0	0	23067	21680	160847	27402	1055930	46393	108496	0	0	8182	565814	0	0
2024-09-21 04:48:47			0	37843	0	0	0	23072	21660	160891	27213	1055903	46380	108498	0	0	8181	566876	0	0
2024-09-21 04:49:47			0	37851	0	0	0	23070	21660	160863	27390	1055876	46370	108497	0	0	8181	566556	0	0
2024-09-21 04:50:47			0	37877	0	0	0	23096	21680	160691	27526	1055939	46373	108507	0	0	8182	565455	0	0
2024-09-21 04:51:47			0	37875	0	0	0	23083	21670	160779	27059	1055894	46382	108502	0	0	8182	565566	0	0
2024-09-21 04:52:47			0	37867	0	0	0	23090	21680	160743	27415	1055903	46382	108505	0	0	8182	565854	0	0
2024-09-21 04:53:47			0	37898	0	0	0	23077	21680	160639	27135	1055903	46382	108500	0	0	8184	564617	0	0
2024-09-21 04:54:47			0	37889	0	0	0	23090	21680	160647	27310	1055957	46393	108505	0	0	8183	564976	0	0
2024-09-21 04:55:47			0	37902	0	0	0	23085	21680	160583	27157	1055957	46349	108503	0	0	8184	564457	0	0
2024-09-21 04:56:47			0	37908	0	0	0	23093	21670	160571	27128	1055939	46381	108506	0	0	8184	564249	0	0
2024-09-21 04:57:47			0	37896	0	0	0	23070	21670	160603	27338	1055974	46372	108497	0	0	8184	564728	0	0
2024-09-21 04:58:47			0	37899	0	0	0	23080	21670	160611	27078	1055894	46382	108501	0	0	8184	564608	0	0
2024-09-21 04:59:47			0	37895	0	0	0	23080	21670	160599	27476	1055859	46360	108501	0	0	8184	564768	0	0
2024-09-21 05:00:47			0	37908	0	0	0	23088	21670	160723	27157	1055885	46381	108504	0	0	8184	564249	0	0
2024-09-21 05:01:47			0	37887	0	0	0	23077	21660	160703	27300	1055876	46380	108500	0	0	8183	565118	0	0
2024-09-21 05:02:47			0	37889	0	0	0	23057	21680	160663	27410	1055957	46382	108492	0	0	8184	564976	0	0
2024-09-21 05:03:47			0	37890	0	0	0	23077	21660	160683	27123	1055903	46380	108500	0	0	8183	564999	0	0
2024-09-21 05:04:47			0	37856	0	0	0	23057	21670	160863	27272	1055885	46381	108492	0	0	8182	566325	0	0
2024-09-21 05:05:47			0	37864	0	0	0	23064	21660	160831	27135	1055823	46370	108495	0	0	8182	566037	0	0
2024-09-21 05:06:47			0	37832	0	0	0	23075	21670	160975	27261	1055912	46371	108499	0	0	8180	567284	0	0
2024-09-21 05:07:47			0	37827	0	0	0	23044	21660	160955	27246	1055876	46380	108487	0	0	8180	567516	0	0
2024-09-21 05:08:47			0	37809	0	0	0	23054	21670	160931	27301	1055841	46382	108491	0	0	8179	568205	0	0
2024-09-21 05:09:47			0	37788	0	0	0	23070	21660	161035	27144	1055876	46358	108497	0	0	8177	569078	0	0
2024-09-21 05:10:47			0	37758	0	0	0	23067	21670	161167	27279	1055912	46371	108496	0	0	8176	570249	0	0
2024-09-21 05:11:47			0	37760	0	0	0	23072	21660	161243	27055	1055850	46370	108498	0	0	8176	570201	0	0
2024-09-21 05:12:47			0	37758	0	0	0	23075	21660	161279	27067	1055876	46380	108499	0	0	8176	570281	0	0
2024-09-21 05:13:47			0	37738	0	0	0	23070	21650	161259	27405	1055912	46370	108497	0	0	8174	571116	0	0
2024-09-21 05:14:47			0	37731	0	0	0	23062	21650	161323	27498	1055876	46369	108494	0	0	8174	571397	0	0
2024-09-21 05:15:47			0	37732	0	0	0	23077	21650	161343	27407	1055823	46379	108500	0	0	8174	571357	0	0
2024-09-21 05:16:47			0	37720	0	0	0	23080	21660	161407	27166	1055850	46370	108501	0	0	8173	571807	0	0
2024-09-21 05:17:47			0	37746	0	0	0	23075	21660	161479	27177	1055876	46370	108499	0	0	8175	570763	0	0
2024-09-21 05:18:47			0	37717	0	0	0	23077	21660	161371	27194	1055894	46380	108500	0	0	8173	571928	0	0
2024-09-21 05:19:47			0	37748	0	0	0	23072	21670	161339	27150	1055885	46403	108498	0	0	8175	570650	0	0
2024-09-21 05:20:47			0	37748	0	0	0	23062	21650	161303	27202	1055912	46358	108494	0	0	8175	570714	0	0
2024-09-21 05:21:47			0	37730	0	0	0	23080	21650	161347	27270	1055805	46370	108501	0	0	8174	571437	0	0
2024-09-21 05:22:47			0	37746	0	0	0	23067	21640	161299	26906	1055814	46368	108496	0	0	8175	570826	0	0
2024-09-21 05:23:47			0	37731	0	0	0	23054	21650	161387	27055	1055859	46380	108491	0	0	8174	571397	0	0
2024-09-21 05:24:47			0	37719	0	0	0	23077	21650	161363	26889	1055796	46369	108500	0	0	8173	571879	0	0
2024-09-21 05:25:47			0	37705	0	0	0	23083	21660	161471	27062	1055850	46380	108502	0	0	8172	572411	0	0
2024-09-21 05:26:47			0	37721	0	0	0	23067	21660	161447	27007	1055850	46380	108496	0	0	8173	571767	0	0
2024-09-21 05:27:47			0	37719	0	0	0	23080	21670	161311	26927	1055868	46393	108501	0	0	8173	571816	0	0
2024-09-21 05:28:47			0	37720	0	0	0	23072	21660	161435	27298	1055903	46380	108498	0	0	8173	571807	0	0
2024-09-21 05:29:47			0	37708	0	0	0	23090	21660	161439	27152	1055930	46380	108505	0	0	8172	572290	0	0
2024-09-21 05:30:47			0	37715	0	0	0	23106	21670	161383	27277	1055859	46371	108511	0	0	8172	571977	0	0
2024-09-21 05:31:47			0	37713	0	0	0	23116	21670	161407	27293	1055921	46382	108515	0	0	8172	572057	0	0
2024-09-21 05:32:47			0	37751	0	0	0	23114	21670	161239	27189	1055948	46382	108514	0	0	8174	570530	0	0
2024-09-21 05:33:47			0	37764	0	0	0	23103	21660	161251	27211	1055921	46370	108510	0	0	8175	570040	0	0
2024-09-21 05:34:47			0	37784	0	0	0	23122	21670	161083	26902	1056001	46393	108517	0	0	8176	569206	0	0
2024-09-21 05:35:47			0	37798	0	0	0	23103	21670	161091	27315	1055948	46382	108510	0	0	8177	568645	0	0
2024-09-21 05:36:47			0	37812	0	0	0	23070	21680	160871	27140	1056036	46382	108497	0	0	8179	568053	0	0
2024-09-21 05:37:47			0	37811	0	0	0	23057	21680	160923	27057	1055930	46382	108492	0	0	8179	568093	0	0
2024-09-21 05:38:47			0	37771	0	0	0	23059	21670	161283	27346	1055894	46372	108493	0	0	8177	569727	0	0
2024-09-21 05:39:47			0	37719	0	0	0	23077	21680	161351	27034	1055877	46382	108500	0	0	8173	571784	0	0
2024-09-21 05:40:47			0	37692	0	0	0	23080	21670	161679	27178	1055868	46393	108501	0	0	8172	572902	0	0
2024-09-21 05:41:47			0	37685	0	0	0	23096	21680	161659	27022	1055957	46393	108507	0	0	8171	573152	0	0
2024-09-21 05:42:47			0	37657	0	0	0	23098	21670	161679	26753	1055868	46382	108508	0	0	8169	574312	0	0
2024-09-21 05:43:47			0	37681	0	0	0	23088	21670	161675	26996	1055974	46382	108504	0	0	8171	573345	0	0
2024-09-21 05:44:47			0	37698	0	0	0	23093	21680	161639	27209	1055903	46372	108506	0	0	8172	572628	0	0
2024-09-21 05:45:47			0	37692	0	0	0	23096	21670	161495	26991	1055974	46382	108507	0	0	8171	572902	0	0
2024-09-21 05:46:47			0	37696	0	0	0	23090	21670	161547	26828	1055948	46372	108505	0	0	8172	572741	0	0
2024-09-21 05:47:47			0	37694	0	0	0	23090	21670	161419	27027	1055885	46371	108505	0	0	8172	572821	0	0
2024-09-21 05:48:47			0	37688	0	0	0	23096	21670	161615	26745	1055965	46381	108507	0	0	8171	573063	0	0
2024-09-21 05:49:47			0	37666	0	0	0	23122	21680	161695	27126	1055957	46382	108517	0	0	8169	573917	0	0
2024-09-21 05:50:47			0	37655	0	0	0	23124	21680	161683	27505	1055965	46383	108518	0	0	8169	574361	0	0
2024-09-21 05:51:47			0	37677	0	0	0	23119	21680	161639	27284	1055965	46394	108516	0	0	8170	573474	0	0
2024-09-21 05:52:47			0	37674	0	0	0	23132	21680	161631	27074	1055965	46394	108521	0	0	8170	573595	0	0
2024-09-21 05:53:47			0	37686	0	0	0	23137	21690	161555	27112	1056028	46394	108523	0	0	8170	573080	0	0
2024-09-21 05:54:47			0	37706	0	0	0	23155	21690	161451	26923	1056063	46395	108530	0	0	8171	572275	0	0
2024-09-21 05:55:47			0	37700	0	0	0	23155	21700	161419	27183	1056046	46384	108530	0	0	8171	572484	0	0
2024-09-21 05:56:47			0	37714	0	0	0	23155	21690	161487	27438	1056090	46395	108530	0	0	8172	571953	0	0
2024-09-21 05:57:47			0	37715	0	0	0	23163	21710	161371	27079	1056135	46407	108533	0	0	8172	571849	0	0
2024-09-21 05:58:47			0	37743	0	0	0	23155	21700	161363	27249	1056152	46395	108530	0	0	8173	570756	0	0
2024-09-21 05:59:47			0	37728	0	0	0	23163	21710	161387	27440	1056117	46396	108533	0	0	8172	571327	0	0
2024-09-21 06:00:47			0	37723	0	0	0	23161	21720	161371	27232	1056215	46387	108532	0	0	8172	571496	0	0
2024-09-21 06:01:47			0	37744	0	0	0	23163	21720	161243	26868	1056126	46386	108533	0	0	8173	570652	0	0
2024-09-21 06:02:47			0	37733	0	0	0	23163	21720	161311	27218	1056179	46397	108533	0	0	8173	571094	0	0
2024-09-21 06:03:47			0	37739	0	0	0	23155	21720	161231	27083	1056188	46387	108530	0	0	8173	570853	0	0
2024-09-21 06:04:47			0	37740	0	0	0	23155	21730	161227	27001	1056224	46387	108530	0	0	8173	570781	0	0
2024-09-21 06:05:47			0	37762	0	0	0	23155	21730	161111	27206	1056197	46398	108530	0	0	8175	569898	0	0
2024-09-21 06:06:47			0	37752	0	0	0	23150	21730	161143	27348	1056224	46376	108528	0	0	8174	570300	0	0
2024-09-21 06:07:47			0	37771	0	0	0	23148	21730	161123	27039	1056126	46387	108527	0	0	8175	569537	0	0
2024-09-21 06:08:47			0	37756	0	0	0	23158	21730	161083	27345	1056206	46376	108531	0	0	8174	570139	0	0
2024-09-21 06:09:47			0	37732	0	0	0	23166	21730	161179	26960	1056224	46376	108534	0	0	8173	571102	0	0
2024-09-21 06:10:47			0	37746	0	0	0	23153	21730	161135	27045	1056206	46387	108529	0	0	8174	570540	0	0
2024-09-21 06:11:47			0	37748	0	0	0	23148	21740	161031	27123	1056188	46377	108527	0	0	8174	570428	0	0
2024-09-21 06:12:47			0	37723	0	0	0	23155	21730	161163	27152	1056224	46398	108530	0	0	8172	571464	0	0
2024-09-21 06:13:47			0	37744	0	0	0	23155	21740	161187	26960	1056277	46367	108530	0	0	8174	570589	0	0
2024-09-21 06:14:47			0	37728	0	0	0	23163	21730	161139	27194	1056259	46376	108533	0	0	8173	571263	0	0
2024-09-21 06:15:47			0	37745	0	0	0	23155	21740	161119	27131	1056215	46377	108530	0	0	8174	570549	0	0
2024-09-21 06:16:47			0	37748	0	0	0	23155	21740	161055	27265	1056242	46399	108530	0	0	8174	570428	0	0
2024-09-21 06:17:47			0	37747	0	0	0	23155	21740	161095	27395	1056277	46378	108530	0	0	8174	570468	0	0
2024-09-21 06:18:47			0	37737	0	0	0	23153	21740	161135	27026	1056251	46378	108529	0	0	8173	570870	0	0
2024-09-21 06:19:47			0	37745	0	0	0	23171	21740	161067	27048	1056268	46399	108536	0	0	8173	570549	0	0
2024-09-21 06:20:47			0	37720	0	0	0	23161	21740	161227	27391	1056304	46400	108532	0	0	8172	571553	0	0
2024-09-21 06:21:47			0	37739	0	0	0	23174	21740	161343	27355	1056277	46378	108537	0	0	8173	570790	0	0
2024-09-21 06:22:47			0	37722	0	0	0	23171	21750	161203	27187	1056286	46389	108536	0	0	8172	571440	0	0
2024-09-21 06:23:47			0	37742	0	0	0	23166	21750	161203	27374	1056269	46379	108534	0	0	8173	570637	0	0
2024-09-21 06:24:47			0	37728	0	0	0	23171	21750	161183	27213	1056260	46389	108536	0	0	8173	571199	0	0
2024-09-21 06:25:47			0	37739	0	0	0	23163	21740	161047	27478	1056277	46367	108533	0	0	8173	570790	0	0
2024-09-21 06:26:47			0	37735	0	0	0	23166	21750	161099	27176	1056260	46389	108534	0	0	8173	570918	0	0
2024-09-21 06:27:47			0	37747	0	0	0	23168	21750	161103	27360	1056322	46390	108535	0	0	8174	570437	0	0
2024-09-21 06:28:47			0	37743	0	0	0	23168	21750	161003	26948	1056260	46378	108535	0	0	8173	570597	0	0
2024-09-21 06:29:47			0	37732	0	0	0	23161	21740	161099	27341	1056277	46389	108532	0	0	8173	571071	0	0
2024-09-21 06:30:47			0	37763	0	0	0	23168	21750	161131	27455	1056295	46379	108535	0	0	8175	569795	0	0
2024-09-21 06:31:47			0	37739	0	0	0	23171	21740	161167	27232	1056251	46389	108536	0	0	8173	570790	0	0
2024-09-21 06:32:47			0	37747	0	0	0	23158	21740	161171	27022	1056197	46400	108531	0	0	8174	570468	0	0
2024-09-21 06:33:47			0	37748	0	0	0	23174	21750	161075	27107	1056313	46389	108537	0	0	8174	570396	0	0
2024-09-21 06:34:47			0	37747	0	0	0	23176	21740	161151	27203	1056277	46400	108538	0	0	8174	570468	0	0
2024-09-21 06:35:47			0	37741	0	0	0	23171	21750	161251	27312	1056295	46401	108536	0	0	8173	570677	0	0
2024-09-21 06:36:47			0	37755	0	0	0	23168	21750	161151	27530	1056295	46379	108535	0	0	8174	570115	0	0
2024-09-21 06:37:47			0	37750	0	0	0	23161	21760	161091	27112	1056304	46390	108532	0	0	8174	570284	0	0
2024-09-21 06:38:47			0	37735	0	0	0	23174	21750	161115	27402	1056322	46390	108537	0	0	8173	570918	0	0
2024-09-21 06:39:47			0	37753	0	0	0	23176	21760	161199	27320	1056357	46390	108538	0	0	8174	570164	0	0
2024-09-21 06:40:47			0	37769	0	0	0	23168	21740	161127	27305	1056304	46389	108535	0	0	8175	569586	0	0
2024-09-21 06:41:47			0	37765	0	0	0	23168	21760	161123	27194	1056357	46379	108535	0	0	8175	569683	0	0
2024-09-21 06:42:47			0	37756	0	0	0	23174	21740	161207	27260	1056277	46389	108537	0	0	8174	570107	0	0
2024-09-21 06:43:47			0	37759	0	0	0	23161	21750	161039	27379	1056348	46390	108532	0	0	8175	569955	0	0
2024-09-21 06:44:47			0	37746	0	0	0	23155	21760	161139	27222	1056304	46390	108530	0	0	8174	570445	0	0
2024-09-21 06:45:47			0	37742	0	0	0	23168	21750	161115	27215	1056348	46401	108535	0	0	8173	570637	0	0
2024-09-21 06:46:47			0	37757	0	0	0	23158	21760	161155	27391	1056340	46380	108531	0	0	8175	570004	0	0
2024-09-21 06:47:47			0	37752	0	0	0	23158	21750	161167	27053	1056322	46379	108531	0	0	8174	570236	0	0
2024-09-21 06:48:47			0	37735	0	0	0	23161	21760	161187	27215	1056304	46390	108532	0	0	8173	570887	0	0
2024-09-21 06:49:47			0	37751	0	0	0	23168	21760	161223	27053	1056357	46390	108535	0	0	8174	570244	0	0
2024-09-21 06:50:47			0	37743	0	0	0	23166	21750	161159	27251	1056295	46379	108534	0	0	8173	570597	0	0
2024-09-21 06:51:47			0	37746	0	0	0	23174	21750	161175	27514	1056313	46389	108537	0	0	8174	570477	0	0
2024-09-21 06:52:47			0	37760	0	0	0	23176	21750	161175	27026	1056375	46390	108538	0	0	8174	569915	0	0
2024-09-21 06:53:47			0	37747	0	0	0	23158	21760	161231	27319	1056304	46390	108531	0	0	8174	570405	0	0
2024-09-21 06:54:47			0	37753	0	0	0	23158	21750	161199	27159	1056322	46379	108531	0	0	8174	570196	0	0
2024-09-21 06:55:47			0	37742	0	0	0	23155	21760	161143	27291	1056366	46380	108530	0	0	8174	570606	0	0
2024-09-21 06:56:47			0	37739	0	0	0	23174	21750	161239	27384	1056269	46379	108537	0	0	8173	570758	0	0
2024-09-21 06:57:47			0	37752	0	0	0	23163	21750	161299	27365	1056242	46379	108533	0	0	8174	570236	0	0
2024-09-21 06:58:47			0	37744	0	0	0	23161	21750	161159	27180	1056260	46378	108532	0	0	8174	570557	0	0
2024-09-21 06:59:47			0	37746	0	0	0	23161	21760	161171	27100	1056331	46379	108532	0	0	8174	570445	0	0
2024-09-21 07:00:47			0	37751	0	0	0	23155	21750	161167	27204	1056295	46379	108530	0	0	8174	570276	0	0
2024-09-21 07:01:47			0	37759	0	0	0	23155	21760	161163	27301	1056304	46390	108530	0	0	8175	569923	0	0
2024-09-21 07:02:47			0	37768	0	0	0	23166	21760	161159	27118	1056277	46379	108534	0	0	8175	569562	0	0
2024-09-21 07:03:47			0	37748	0	0	0	23171	21750	161119	26996	1056340	46378	108536	0	0	8174	570396	0	0
2024-09-21 07:04:47			0	37751	0	0	0	23158	21750	161135	27509	1056322	46390	108531	0	0	8174	570276	0	0
2024-09-21 07:05:47			0	37771	0	0	0	23171	21750	161183	27232	1056348	46390	108536	0	0	8175	569474	0	0
2024-09-21 07:06:47			0	37782	0	0	0	23181	21750	161079	27189	1056286	46389	108540	0	0	8176	569033	0	0
2024-09-21 07:07:47			0	37772	0	0	0	23171	21750	161111	27267	1056322	46390	108536	0	0	8175	569434	0	0
2024-09-21 07:08:47			0	37793	0	0	0	23168	21750	161083	27403	1056366	46389	108535	0	0	8176	568592	0	0
2024-09-21 07:09:47			0	37794	0	0	0	23174	21760	161051	27343	1056340	46402	108537	0	0	8176	568521	0	0
2024-09-21 07:10:47			0	37787	0	0	0	23174	21760	161059	27137	1056357	46379	108537	0	0	8176	568801	0	0
2024-09-21 07:11:47			0	37785	0	0	0	23166	21750	161071	27301	1056375	46390	108534	0	0	8176	568913	0	0
2024-09-21 07:12:47			0	37792	0	0	0	23171	21760	161059	27253	1056304	46390	108536	0	0	8176	568601	0	0
2024-09-21 07:13:47			0	37806	0	0	0	23184	21760	160959	27157	1056393	46391	108541	0	0	8177	568040	0	0
2024-09-21 07:14:47			0	37795	0	0	0	23179	21750	161035	27422	1056286	46389	108539	0	0	8176	568512	0	0
2024-09-21 07:15:47			0	37794	0	0	0	23171	21760	161003	27287	1056331	46379	108536	0	0	8176	568521	0	0
2024-09-21 07:16:47			0	37783	0	0	0	23168	21760	160939	27459	1056340	46391	108535	0	0	8176	568961	0	0
2024-09-21 07:17:47			0	37797	0	0	0	23176	21760	160971	27479	1056340	46380	108538	0	0	8177	568400	0	0
2024-09-21 07:18:47			0	37802	0	0	0	23166	21760	160947	27294	1056277	46401	108534	0	0	8177	568200	0	0
2024-09-21 07:19:47			0	37804	0	0	0	23174	21760	160879	27034	1056304	46390	108537	0	0	8177	568120	0	0
2024-09-21 07:20:47			0	37804	0	0	0	23163	21760	161043	27358	1056393	46391	108533	0	0	8177	568120	0	0
2024-09-21 07:21:47			0	37777	0	0	0	23161	21770	160951	27008	1056349	46391	108532	0	0	8176	569170	0	0
2024-09-21 07:22:47			0	37782	0	0	0	23163	21760	160915	27410	1056304	46379	108533	0	0	8176	569001	0	0
2024-09-21 07:23:47			0	37776	0	0	0	23179	21760	160951	26967	1056384	46379	108539	0	0	8175	569242	0	0
2024-09-21 07:24:47			0	37774	0	0	0	23176	21760	161031	27322	1056313	46391	108538	0	0	8175	569322	0	0
2024-09-21 07:25:47			0	37769	0	0	0	23171	21760	161075	27053	1056313	46391	108536	0	0	8175	569522	0	0
2024-09-21 07:26:47			0	37747	0	0	0	23171	21760	161019	27253	1056340	46391	108536	0	0	8174	570405	0	0
2024-09-21 07:27:47			0	37753	0	0	0	23174	21760	161099	27029	1056340	46380	108537	0	0	8174	570164	0	0
2024-09-21 07:28:47			0	37771	0	0	0	23174	21760	161203	27422	1056357	46401	108537	0	0	8175	569442	0	0
2024-09-21 07:29:47			0	37779	0	0	0	23161	21760	161119	27296	1056331	46379	108532	0	0	8176	569122	0	0
2024-09-21 07:30:47			0	37751	0	0	0	23168	21760	161163	27493	1056331	46369	108535	0	0	8174	570244	0	0
2024-09-21 07:31:47			0	37727	0	0	0	23163	21760	161247	27403	1056331	46401	108533	0	0	8173	571208	0	0
2024-09-21 07:32:47			0	37735	0	0	0	23176	21750	161167	27312	1056322	46390	108538	0	0	8173	570918	0	0
2024-09-21 07:33:47			0	37747	0	0	0	23174	21760	161263	27651	1056304	46390	108537	0	0	8174	570405	0	0
2024-09-21 07:34:47			0	37729	0	0	0	23168	21750	161355	27412	1056322	46390	108535	0	0	8173	571159	0	0
2024-09-21 07:35:47			0	37741	0	0	0	23176	21750	161227	27249	1056375	46379	108538	0	0	8173	570677	0	0
2024-09-21 07:36:47			0	37750	0	0	0	23166	21760	161231	27215	1056340	46391	108534	0	0	8174	570284	0	0
2024-09-21 07:37:47			0	37727	0	0	0	23168	21760	161203	27310	1056393	46391	108535	0	0	8173	571208	0	0
2024-09-21 07:38:47			0	37730	0	0	0	23171	21760	161207	27187	1056357	46379	108536	0	0	8173	571087	0	0
2024-09-21 07:39:47			0	37723	0	0	0	23179	21770	161199	27159	1056375	46391	108539	0	0	8172	571337	0	0
2024-09-21 07:40:47			0	37730	0	0	0	23179	21760	161227	27059	1056304	46390	108539	0	0	8173	571087	0	0
2024-09-21 07:41:47			0	37741	0	0	0	23174	21770	161203	27170	1056349	46391	108537	0	0	8173	570614	0	0
2024-09-21 07:42:47			0	37756	0	0	0	23166	21750	161127	27223	1056242	46379	108534	0	0	8174	570075	0	0
2024-09-21 07:43:47			0	37740	0	0	0	23161	21760	161095	27258	1056357	46390	108532	0	0	8173	570686	0	0
2024-09-21 07:44:47			0	37747	0	0	0	23176	21760	161135	27443	1056384	46390	108538	0	0	8174	570405	0	0
2024-09-21 07:45:47			0	37742	0	0	0	23179	21760	161291	27272	1056331	46379	108539	0	0	8173	570606	0	0
2024-09-21 07:46:47			0	37753	0	0	0	23181	21760	161151	27326	1056331	46379	108540	0	0	8174	570164	0	0
2024-09-21 07:47:47			0	37747	0	0	0	23174	21760	161131	27064	1056420	46391	108537	0	0	8174	570405	0	0
2024-09-21 07:48:47			0	37759	0	0	0	23181	21770	161215	27485	1056375	46391	108540	0	0	8174	569892	0	0
2024-09-21 07:49:47			0	37763	0	0	0	23179	21760	161067	27569	1056393	46380	108539	0	0	8174	569763	0	0
2024-09-21 07:50:47			0	37766	0	0	0	23184	21770	161111	27488	1056349	46370	108541	0	0	8175	569611	0	0
2024-09-21 07:51:47			0	37783	0	0	0	23176	21760	161071	27450	1056357	46401	108538	0	0	8176	568961	0	0
2024-09-21 07:52:47			0	37777	0	0	0	23166	21760	160979	27353	1056366	46380	108534	0	0	8176	569202	0	0
2024-09-21 07:53:47			0	37781	0	0	0	23176	21760	161047	27119	1056357	46390	108538	0	0	8176	569041	0	0
2024-09-21 07:54:47			0	37775	0	0	0	23189	21760	161059	27646	1056340	46402	108543	0	0	8175	569282	0	0
2024-09-21 07:55:47			0	37794	0	0	0	23194	21770	161003	27460	1056375	46391	108545	0	0	8176	568489	0	0
2024-09-21 07:56:47			0	37779	0	0	0	23189	21780	161019	27338	1056393	46392	108543	0	0	8175	569058	0	0
2024-09-21 07:57:47			0	37788	0	0	0	23181	21770	161007	27209	1056411	46392	108540	0	0	8176	568729	0	0
2024-09-21 07:58:47			0	37773	0	0	0	23176	21770	161103	27114	1056402	46391	108538	0	0	8175	569330	0	0
2024-09-21 07:59:47			0	37759	0	0	0	23174	21770	161047	27390	1056375	46380	108537	0	0	8174	569892	0	0
2024-09-21 08:00:47			0	37748	0	0	0	23166	21770	161103	27436	1056402	46391	108534	0	0	8174	570333	0	0
2024-09-21 08:01:47			0	37747	0	0	0	23168	21770	161163	27419	1056402	46391	108535	0	0	8174	570373	0	0
2024-09-21 08:02:47			0	37737	0	0	0	23176	21760	161091	27414	1056464	46369	108538	0	0	8173	570806	0	0
2024-09-21 08:03:47			0	37756	0	0	0	23179	21770	161143	27194	1056375	46358	108539	0	0	8174	570012	0	0
2024-09-21 08:04:47			0	37738	0	0	0	23168	21760	161111	27336	1056393	46380	108535	0	0	8173	570766	0	0
2024-09-21 08:05:47			0	37752	0	0	0	23184	21770	161103	27384	1056375	46402	108541	0	0	8174	570173	0	0
2024-09-21 08:06:47			0	37766	0	0	0	23186	21770	161103	27294	1056402	46391	108542	0	0	8175	569611	0	0
2024-09-21 08:07:47			0	37767	0	0	0	23186	21760	161087	27024	1056366	46380	108542	0	0	8175	569603	0	0
2024-09-21 08:08:47			0	37774	0	0	0	23189	21770	160995	27223	1056429	46380	108543	0	0	8175	569290	0	0
2024-09-21 08:09:47			0	37781	0	0	0	23181	21760	161083	27428	1056357	46390	108540	0	0	8176	569041	0	0
2024-09-21 08:10:47			0	37789	0	0	0	23176	21760	161055	27457	1056420	46380	108538	0	0	8176	568721	0	0
2024-09-21 08:11:47			0	37777	0	0	0	23179	21760	160851	27277	1056437	46390	108539	0	0	8175	569202	0	0
2024-09-21 08:12:47			0	37790	0	0	0	23184	21770	160939	27331	1056455	46391	108541	0	0	8176	568649	0	0
2024-09-21 08:13:47			0	37772	0	0	0	23184	21760	160891	27272	1056446	46391	108541	0	0	8175	569402	0	0
2024-09-21 08:14:47			0	37777	0	0	0	23189	21770	160919	27407	1056358	46381	108543	0	0	8175	569170	0	0
2024-09-21 08:15:47			0	37773	0	0	0	23186	21770	160899	27384	1056375	46391	108542	0	0	8175	569330	0	0
2024-09-21 08:16:47			0	37771	0	0	0	23186	21770	161035	27422	1056438	46403	108542	0	0	8175	569410	0	0
2024-09-21 08:17:47			0	37772	0	0	0	23192	21770	161027	27192	1056491	46392	108544	0	0	8175	569370	0	0
2024-09-21 08:18:47			0	37771	0	0	0	23184	21780	160939	27100	1056482	46404	108541	0	0	8175	569379	0	0
2024-09-21 08:19:47			0	37782	0	0	0	23176	21770	160979	27345	1056411	46381	108538	0	0	8176	568970	0	0
2024-09-21 08:20:47			0	37781	0	0	0	23181	21790	160991	27244	1056438	46393	108540	0	0	8176	568946	0	0
2024-09-21 08:21:47			0	37778	0	0	0	23176	21770	160995	27332	1056429	46380	108538	0	0	8175	569130	0	0
2024-09-21 08:22:47			0	37769	0	0	0	23192	21760	160987	27315	1056446	46380	108544	0	0	8175	569522	0	0
2024-09-21 08:23:47			0	37766	0	0	0	23202	21770	161011	27338	1056482	46391	108548	0	0	8174	569611	0	0
2024-09-21 08:24:47			0	37782	0	0	0	23199	21770	161035	27260	1056411	46381	108547	0	0	8175	568970	0	0
2024-09-21 08:25:47			0	37793	0	0	0	23197	21780	160931	27433	1056455	46393	108546	0	0	8176	568497	0	0
2024-09-21 08:26:47			0	37793	0	0	0	23207	21780	160899	27346	1056509	46393	108550	0	0	8176	568497	0	0
2024-09-21 08:27:47			0	37793	0	0	0	23199	21790	160939	27235	1056438	46404	108547	0	0	8176	568466	0	0
2024-09-21 08:28:47			0	37803	0	0	0	23207	21790	160983	27107	1056518	46382	108550	0	0	8177	568065	0	0
2024-09-21 08:29:47			0	37809	0	0	0	23197	21780	160875	27265	1056446	46381	108546	0	0	8177	567857	0	0
2024-09-21 08:30:47			0	37814	0	0	0	23202	21780	160963	27325	1056482	46382	108548	0	0	8177	567657	0	0
2024-09-21 08:31:47			0	37800	0	0	0	23210	21790	161007	27421	1056500	46394	108551	0	0	8176	568185	0	0
2024-09-21 08:32:47			0	37803	0	0	0	23186	21790	160859	27255	1056553	46394	108542	0	0	8177	568065	0	0
2024-09-21 08:33:47			0	37809	0	0	0	23192	21790	160867	27428	1056447	46394	108544	0	0	8177	567825	0	0
2024-09-21 08:34:47			0	37812	0	0	0	23205	21790	160899	27376	1056491	46382	108549	0	0	8177	567705	0	0
2024-09-21 08:35:47			0	37798	0	0	0	23205	21790	160935	27403	1056544	46382	108549	0	0	8176	568265	0	0
2024-09-21 08:36:47			0	37798	0	0	0	23207	21780	160979	27358	1056509	46393	108550	0	0	8176	568297	0	0
2024-09-21 08:37:47			0	37798	0	0	0	23199	21800	160975	27142	1056482	46394	108547	0	0	8176	568234	0	0
2024-09-21 08:38:47			0	37786	0	0	0	23197	21790	160991	27601	1056500	46383	108546	0	0	8176	568746	0	0
2024-09-21 08:39:47			0	37795	0	0	0	23197	21800	160907	27424	1056509	46394	108546	0	0	8176	568354	0	0
2024-09-21 08:40:47			0	37787	0	0	0	23199	21790	161003	27249	1056518	46382	108547	0	0	8176	568706	0	0
2024-09-21 08:41:47			0	37787	0	0	0	23212	21790	160967	27315	1056527	46394	108552	0	0	8175	568706	0	0
2024-09-21 08:42:47			0	37806	0	0	0	23207	21790	160947	27291	1056553	46394	108550	0	0	8177	567945	0	0
2024-09-21 08:43:47			0	37796	0	0	0	23207	21800	161031	27307	1056562	46373	108550	0	0	8176	568314	0	0
2024-09-21 08:44:47			0	37813	0	0	0	23205	21790	160963	27308	1056491	46393	108549	0	0	8177	567665	0	0
2024-09-21 08:45:47			0	37817	0	0	0	23212	21800	161043	27410	1056562	46394	108552	0	0	8177	567474	0	0
2024-09-21 08:46:47			0	37822	0	0	0	23197	21800	160911	27294	1056571	46406	108546	0	0	8178	567274	0	0
2024-09-21 08:47:47			0	37814	0	0	0	23218	21790	160919	27223	1056518	46393	108554	0	0	8177	567625	0	0
2024-09-21 08:48:47			0	37816	0	0	0	23233	21800	160999	27341	1056518	46406	108560	0	0	8177	567514	0	0
2024-09-21 08:49:47			0	37825	0	0	0	23223	21800	160955	27105	1056536	46394	108556	0	0	8178	567154	0	0
2024-09-21 08:50:47			0	37826	0	0	0	23228	21800	160887	27045	1056562	46405	108558	0	0	8178	567114	0	0
2024-09-21 08:51:47			0	37817	0	0	0	23220	21800	160911	27493	1056571	46384	108555	0	0	8177	567474	0	0
2024-09-21 08:52:47			0	37824	0	0	0	23205	21810	160935	27336	1056607	46395	108549	0	0	8178	567162	0	0
2024-09-21 08:53:47			0	37836	0	0	0	23210	21800	160951	27331	1056544	46395	108551	0	0	8178	566714	0	0
2024-09-21 08:54:47			0	37825	0	0	0	23202	21800	160899	27388	1056544	46395	108548	0	0	8178	567154	0	0
2024-09-21 08:55:47			0	37810	0	0	0	23220	21800	160923	27301	1056571	46395	108555	0	0	8177	567754	0	0
2024-09-21 08:56:47			0	37834	0	0	0	23212	21810	160799	27679	1056607	46395	108552	0	0	8178	566762	0	0
2024-09-21 08:57:47			0	37836	0	0	0	23233	21800	160847	27272	1056624	46406	108560	0	0	8178	566714	0	0
2024-09-21 08:58:47			0	37830	0	0	0	23220	21800	160911	27353	1056642	46373	108555	0	0	8178	566954	0	0
2024-09-21 08:59:47			0	37844	0	0	0	23225	21810	160863	27164	1056527	46395	108557	0	0	8179	566363	0	0
2024-09-21 09:00:47			0	37848	0	0	0	23218	21810	160819	27282	1056660	46406	108554	0	0	8179	566203	0	0
2024-09-21 09:01:47			0	37847	0	0	0	23225	21810	160771	27467	1056616	46396	108557	0	0	8179	566243	0	0
2024-09-21 09:02:47			0	37839	0	0	0	23210	21800	160743	27029	1056598	46395	108551	0	0	8179	566594	0	0
2024-09-21 09:03:47			0	37845	0	0	0	23220	21820	160795	27374	1056571	46397	108555	0	0	8179	566291	0	0
2024-09-21 09:04:47			0	37840	0	0	0	23215	21810	160723	27237	1056580	46395	108553	0	0	8179	566523	0	0
2024-09-21 09:05:47			0	37835	0	0	0	23225	21800	160811	27261	1056571	46384	108557	0	0	8178	566754	0	0
2024-09-21 09:06:47			0	37818	0	0	0	23223	21810	160899	27331	1056562	46375	108556	0	0	8177	567402	0	0
2024-09-21 09:07:47			0	37824	0	0	0	23223	21800	160787	27308	1056598	46395	108556	0	0	8178	567194	0	0
2024-09-21 09:08:47			0	37831	0	0	0	23231	21810	160827	27234	1056607	46395	108559	0	0	8178	566882	0	0
2024-09-21 09:09:47			0	37838	0	0	0	23215	21810	160847	27301	1056633	46384	108553	0	0	8179	566602	0	0
2024-09-21 09:10:47			0	37839	0	0	0	23231	21800	160755	27147	1056624	46374	108559	0	0	8178	566594	0	0
2024-09-21 09:11:47			0	37844	0	0	0	23238	21810	160803	27182	1056633	46406	108562	0	0	8178	566363	0	0
2024-09-21 09:12:47			0	37837	0	0	0	23225	21800	160787	27391	1056598	46395	108557	0	0	8178	566674	0	0
2024-09-21 09:13:47			0	37858	0	0	0	23228	21810	160763	27633	1056589	46407	108558	0	0	8179	565804	0	0
2024-09-21 09:14:47			0	37839	0	0	0	23238	21810	160891	27326	1056607	46384	108562	0	0	8178	566562	0	0
2024-09-21 09:15:47			0	37839	0	0	0	23241	21820	160807	27317	1056625	46397	108563	0	0	8178	566531	0	0
2024-09-21 09:16:47			0	37830	0	0	0	23241	21810	160719	27171	1056607	46406	108563	0	0	8178	566922	0	0
2024-09-21 09:17:47			0	37865	0	0	0	23246	21810	160719	27479	1056696	46396	108565	0	0	8180	565524	0	0
2024-09-21 09:18:47			0	37850	0	0	0	23244	21830	160651	27350	1056669	46398	108564	0	0	8179	566060	0	0
2024-09-21 09:19:47			0	37846	0	0	0	23238	21820	160695	27331	1056651	46386	108562	0	0	8179	566251	0	0
2024-09-21 09:20:47			0	37863	0	0	0	23238	21820	160639	27490	1056607	46397	108562	0	0	8180	565573	0	0
2024-09-21 09:21:47			0	37857	0	0	0	23228	21830	160655	27294	1056669	46398	108558	0	0	8180	565781	0	0
2024-09-21 09:22:47			0	37863	0	0	0	23244	21830	160631	27119	1056669	46398	108564	0	0	8180	565541	0	0
2024-09-21 09:23:47			0	37862	0	0	0	23251	21820	160719	27360	1056634	46397	108567	0	0	8179	565612	0	0
2024-09-21 09:24:47			0	37854	0	0	0	23246	21830	160639	27519	1056776	46398	108565	0	0	8179	565900	0	0
2024-09-21 09:25:47			0	37855	0	0	0	23238	21830	160639	27163	1056652	46409	108562	0	0	8179	565860	0	0
2024-09-21 09:26:47			0	37875	0	0	0	23244	21820	160619	27403	1056687	46386	108564	0	0	8180	565094	0	0
2024-09-21 09:27:47			0	37862	0	0	0	23254	21830	160663	27601	1056696	46387	108568	0	0	8179	565581	0	0
2024-09-21 09:28:47			0	37864	0	0	0	23254	21830	160619	27381	1056758	46398	108568	0	0	8179	565501	0	0
2024-09-21 09:29:47			0	37862	0	0	0	23251	21820	160647	27119	1056713	46408	108567	0	0	8179	565612	0	0
2024-09-21 09:30:47			0	37864	0	0	0	23257	21840	160695	27452	1056767	46388	108569	0	0	8179	565470	0	0
2024-09-21 09:31:47			0	37869	0	0	0	23254	21840	160603	27460	1056741	46388	108568	0	0	8180	565270	0	0
2024-09-21 09:32:47			0	37867	0	0	0	23262	21840	160551	27364	1056741	46399	108571	0	0	8180	565350	0	0
2024-09-21 09:33:47			0	37881	0	0	0	23267	21830	160643	27372	1056705	46420	108573	0	0	8180	564823	0	0
2024-09-21 09:34:47			0	37893	0	0	0	23270	21840	160523	27196	1056830	46410	108574	0	0	8181	564313	0	0
2024-09-21 09:35:47			0	37902	0	0	0	23272	21840	160491	27289	1056847	46410	108575	0	0	8181	563955	0	0
2024-09-21 09:36:47			0	37878	0	0	0	23264	21840	160455	27374	1056750	46399	108572	0	0	8180	564911	0	0
2024-09-21 09:37:47			0	37911	0	0	0	23267	21840	160403	27538	1056794	46399	108573	0	0	8182	563596	0	0
2024-09-21 09:38:47			0	37912	0	0	0	23264	21840	160423	27367	1056750	46399	108572	0	0	8182	563556	0	0
2024-09-21 09:39:47			0	37903	0	0	0	23272	21840	160483	27218	1056803	46399	108575	0	0	8182	563915	0	0
2024-09-21 09:40:47			0	37904	0	0	0	23257	21840	160307	27242	1056821	46399	108569	0	0	8182	563875	0	0
2024-09-21 09:41:47			0	37918	0	0	0	23267	21850	160411	27675	1056812	46400	108573	0	0	8183	563286	0	0
2024-09-21 09:42:47			0	37902	0	0	0	23267	21840	160479	27402	1056776	46399	108573	0	0	8182	563955	0	0
2024-09-21 09:43:47			0	37907	0	0	0	23272	21850	160435	27280	1056812	46389	108575	0	0	8182	563724	0	0
2024-09-21 09:44:47			0	37899	0	0	0	23259	21850	160599	27351	1056865	46400	108570	0	0	8182	564043	0	0
2024-09-21 09:45:47			0	37922	0	0	0	23262	21840	160423	27229	1056856	46399	108571	0	0	8183	563158	0	0
2024-09-21 09:46:47			0	37908	0	0	0	23280	21850	160575	27281	1056892	46389	108578	0	0	8182	563684	0	0
2024-09-21 09:47:47			0	37912	0	0	0	23270	21850	160439	27371	1056821	46400	108574	0	0	8182	563525	0	0
2024-09-21 09:48:47			0	37912	0	0	0	23270	21860	160367	27249	1056830	46401	108574	0	0	8182	563494	0	0
2024-09-21 09:49:47			0	37918	0	0	0	23270	21860	160355	27429	1056856	46412	108574	0	0	8183	563255	0	0
2024-09-21 09:50:47			0	37912	0	0	0	23275	21840	160399	27421	1056830	46399	108576	0	0	8182	563556	0	0
2024-09-21 09:51:47			0	37922	0	0	0	23272	21860	160411	27473	1056865	46402	108575	0	0	8183	563095	0	0
2024-09-21 09:52:47			0	37936	0	0	0	23270	21860	160283	27222	1056892	46402	108574	0	0	8184	562538	0	0
2024-09-21 09:53:47			0	37942	0	0	0	23272	21860	160367	27197	1056865	46402	108575	0	0	8184	562300	0	0
2024-09-21 09:54:47			0	37929	0	0	0	23283	21870	160467	27241	1056874	46391	108579	0	0	8183	562786	0	0
2024-09-21 09:55:47			0	37938	0	0	0	23280	21860	160439	27326	1056919	46413	108578	0	0	8184	562459	0	0
2024-09-21 09:56:47			0	37921	0	0	0	23285	21860	160403	27428	1056892	46380	108580	0	0	8182	563135	0	0
2024-09-21 09:57:47			0	37919	0	0	0	23290	21850	160343	27388	1056901	46400	108582	0	0	8182	563246	0	0
2024-09-21 09:58:47			0	37928	0	0	0	23285	21860	160435	27412	1056865	46391	108580	0	0	8183	562857	0	0
2024-09-21 09:59:47			0	37912	0	0	0	23290	21870	160487	27397	1056874	46402	108582	0	0	8182	563462	0	0
2024-09-21 10:00:47			0	37908	0	0	0	23288	21860	160419	27249	1056883	46401	108581	0	0	8182	563653	0	0
2024-09-21 10:01:47			0	37910	0	0	0	23296	21870	160407	27332	1056954	46402	108584	0	0	8182	563542	0	0
2024-09-21 10:02:47			0	37908	0	0	0	23293	21870	160363	27239	1056990	46391	108583	0	0	8182	563621	0	0
2024-09-21 10:03:47			0	37911	0	0	0	23298	21870	160359	27346	1056910	46402	108585	0	0	8182	563502	0	0
2024-09-21 10:04:47			0	37930	0	0	0	23298	21870	160303	27405	1056937	46402	108585	0	0	8183	562746	0	0
2024-09-21 10:05:47			0	37931	0	0	0	23288	21870	160227	27687	1056990	46402	108581	0	0	8183	562706	0	0
2024-09-21 10:06:47			0	37948	0	0	0	23301	21880	160179	27412	1056945	46414	108586	0	0	8184	561999	0	0
2024-09-21 10:07:47			0	37967	0	0	0	23303	21880	160275	27644	1057008	46415	108587	0	0	8185	561244	0	0
2024-09-21 10:08:47			0	37956	0	0	0	23303	21880	160243	27246	1056954	46393	108587	0	0	8184	561681	0	0
2024-09-21 10:09:47			0	37965	0	0	0	23303	21870	160155	27557	1057017	46402	108587	0	0	8185	561355	0	0
2024-09-21 10:10:47			0	37951	0	0	0	23303	21880	160251	27232	1056954	46393	108587	0	0	8184	561880	0	0
2024-09-21 10:11:47			0	37962	0	0	0	23303	21880	160231	27525	1057008	46404	108587	0	0	8185	561442	0	0
2024-09-21 10:12:47			0	37981	0	0	0	23296	21880	160143	27460	1056981	46404	108584	0	0	8186	560688	0	0
2024-09-21 10:13:47			0	37961	0	0	0	23301	21880	160103	27426	1057025	46392	108586	0	0	8185	561482	0	0
2024-09-21 10:14:47			0	37972	0	0	0	23309	21890	160075	27410	1057043	46415	108589	0	0	8185	561014	0	0
2024-09-21 10:15:47			0	37968	0	0	0	23311	21880	160111	27505	1057008	46415	108590	0	0	8185	561204	0	0
2024-09-21 10:16:47			0	37970	0	0	0	23309	21890	160103	27315	1057026	46404	108589	0	0	8185	561093	0	0
2024-09-21 10:17:47			0	37977	0	0	0	23306	21890	160111	27072	1057079	46393	108588	0	0	8186	560816	0	0
2024-09-21 10:18:47			0	37979	0	0	0	23314	21890	160139	27013	1057070	46415	108591	0	0	8185	560736	0	0
2024-09-21 10:19:47			0	37963	0	0	0	23316	21880	160207	27118	1057025	46414	108592	0	0	8184	561403	0	0
2024-09-21 10:20:47			0	37962	0	0	0	23314	21890	160059	27248	1057097	46415	108591	0	0	8185	561411	0	0
2024-09-21 10:21:47			0	37976	0	0	0	23324	21890	160195	27315	1057097	46404	108595	0	0	8185	560855	0	0
2024-09-21 10:22:47			0	37994	0	0	0	23329	21900	160095	27416	1057061	46405	108597	0	0	8186	560110	0	0
2024-09-21 10:23:47			0	37964	0	0	0	23329	21890	160015	27478	1057106	46415	108597	0	0	8184	561332	0	0
2024-09-21 10:24:47			0	37986	0	0	0	23324	21910	160087	27590	1057052	46406	108595	0	0	8186	560396	0	0
2024-09-21 10:25:47			0	37997	0	0	0	23335	21900	159971	27267	1057097	46416	108599	0	0	8186	559991	0	0
2024-09-21 10:26:47			0	38014	0	0	0	23350	21900	159947	27213	1057070	46406	108605	0	0	8187	559317	0	0
2024-09-21 10:27:47			0	38034	0	0	0	23335	21900	159972	27552	1057177	46406	108599	0	0	8188	558525	0	0
2024-09-21 10:28:47			0	38040	0	0	0	23342	21910	159832	27523	1057159	46416	108602	0	0	8189	558256	0	0
2024-09-21 10:29:47			0	38008	0	0	0	23340	21910	159871	27201	1057132	46406	108601	0	0	8187	559524	0	0
2024-09-21 10:30:47			0	38033	0	0	0	23337	21920	159912	27388	1057230	46407	108600	0	0	8188	558502	0	0
2024-09-21 10:31:47			0	38026	0	0	0	23335	21920	159800	27433	1057150	46396	108599	0	0	8188	558779	0	0
2024-09-21 10:32:47			0	38024	0	0	0	23355	21910	159903	27557	1057141	46417	108607	0	0	8188	558890	0	0
2024-09-21 10:33:47			0	38037	0	0	0	23348	21920	159856	27441	1057124	46407	108604	0	0	8188	558344	0	0
2024-09-21 10:34:47			0	38028	0	0	0	23353	21920	159867	27291	1057204	46407	108606	0	0	8188	558700	0	0
2024-09-21 10:35:47			0	38016	0	0	0	23353	21930	159828	27557	1057222	46409	108606	0	0	8187	559144	0	0
2024-09-21 10:36:47			0	38027	0	0	0	23348	21920	159891	27367	1057186	46408	108604	0	0	8188	558740	0	0
2024-09-21 10:37:47			0	38035	0	0	0	23350	21920	159860	27289	1057239	46408	108605	0	0	8188	558423	0	0
2024-09-21 10:38:47			0	38046	0	0	0	23353	21930	159760	27447	1057222	46420	108606	0	0	8189	557957	0	0
2024-09-21 10:39:47			0	38035	0	0	0	23358	21930	159796	27654	1057248	46398	108608	0	0	8188	558392	0	0
2024-09-21 10:40:47			0	38033	0	0	0	23353	21920	159788	27493	1057239	46408	108606	0	0	8188	558502	0	0
2024-09-21 10:41:47			0	38052	0	0	0	23366	21930	159796	27552	1057310	46409	108611	0	0	8189	557719	0	0
2024-09-21 10:42:47			0	38048	0	0	0	23368	21930	159744	27630	1057284	46409	108612	0	0	8189	557878	0	0
2024-09-21 10:43:47			0	38057	0	0	0	23363	21930	159708	27549	1057284	46409	108610	0	0	8189	557522	0	0
2024-09-21 10:44:47			0	38067	0	0	0	23366	21940	159668	27424	1057293	46398	108611	0	0	8190	557095	0	0
2024-09-21 10:45:47			0	38082	0	0	0	23371	21940	159632	27606	1057275	46399	108613	0	0	8191	556503	0	0
2024-09-21 10:46:47			0	38072	0	0	0	23366	21940	159576	27332	1057293	46409	108611	0	0	8190	556898	0	0
2024-09-21 10:47:47			0	38101	0	0	0	23371	21940	159652	27447	1057355	46421	108613	0	0	8192	555752	0	0
2024-09-21 10:48:47			0	38091	0	0	0	23371	21940	159724	27209	1057373	46420	108613	0	0	8191	556147	0	0
2024-09-21 10:49:47			0	38069	0	0	0	23376	21950	159616	27396	1057373	46411	108615	0	0	8190	556985	0	0
2024-09-21 10:50:47			0	38077	0	0	0	23373	21950	159588	27421	1057337	46411	108614	0	0	8191	556669	0	0
2024-09-21 10:51:47			0	38071	0	0	0	23366	21940	159676	27211	1057382	46410	108611	0	0	8190	556937	0	0
2024-09-21 10:52:47			0	38064	0	0	0	23376	21950	159612	27296	1057373	46389	108615	0	0	8190	557183	0	0
2024-09-21 10:53:47			0	38059	0	0	0	23373	21950	159620	27300	1057391	46400	108614	0	0	8189	557381	0	0
2024-09-21 10:54:47			0	38069	0	0	0	23381	21940	159616	27206	1057382	46410	108617	0	0	8190	557016	0	0
2024-09-21 10:55:47			0	38055	0	0	0	23379	21950	159668	27473	1057337	46411	108616	0	0	8189	557539	0	0
2024-09-21 10:56:47			0	38053	0	0	0	23389	21950	159644	27256	1057347	46421	108620	0	0	8189	557618	0	0
2024-09-21 10:57:47			0	38068	0	0	0	23392	21960	159700	27554	1057391	46412	108621	0	0	8190	556994	0	0
2024-09-21 10:58:47			0	38073	0	0	0	23397	21960	159688	27088	1057409	46411	108623	0	0	8190	556796	0	0
2024-09-21 10:59:47			0	38079	0	0	0	23389	21960	159612	27403	1057436	46421	108620	0	0	8190	556559	0	0
2024-09-21 11:00:47			0	38079	0	0	0	23399	21960	159624	27531	1057418	46423	108624	0	0	8190	556559	0	0
2024-09-21 11:01:47			0	38084	0	0	0	23407	21960	159548	27441	1057471	46423	108627	0	0	8190	556362	0	0
2024-09-21 11:02:47			0	38111	0	0	0	23410	21970	159504	27334	1057453	46413	108628	0	0	8192	555265	0	0
2024-09-21 11:03:47			0	38102	0	0	0	23407	21970	159532	27324	1057453	46413	108627	0	0	8191	555620	0	0
2024-09-21 11:04:47			0	38123	0	0	0	23410	21970	159424	27481	1057516	46424	108628	0	0	8193	554792	0	0
2024-09-21 11:05:47			0	38108	0	0	0	23399	21980	159472	27131	1057498	46424	108624	0	0	8192	555353	0	0
2024-09-21 11:06:47			0	38133	0	0	0	23397	21980	159448	27509	1057471	46402	108623	0	0	8194	554367	0	0
2024-09-21 11:07:47			0	38145	0	0	0	23407	21980	159348	27284	1057525	46402	108627	0	0	8194	553894	0	0
2024-09-21 11:08:47			0	38144	0	0	0	23402	21980	159388	27545	1057587	46425	108625	0	0	8194	553934	0	0
2024-09-21 11:09:47			0	38144	0	0	0	23405	21990	159364	27376	1057489	46415	108626	0	0	8194	553903	0	0
2024-09-21 11:10:47			0	38149	0	0	0	23405	21980	159220	27547	1057507	46414	108626	0	0	8194	553737	0	0
2024-09-21 11:11:47			0	38170	0	0	0	23412	21990	159220	27291	1057516	46415	108629	0	0	8195	552880	0	0
2024-09-21 11:12:47			0	38159	0	0	0	23407	21980	159224	27616	1057534	46414	108627	0	0	8195	553343	0	0
2024-09-21 11:13:47			0	38155	0	0	0	23412	21980	159244	27300	1057560	46414	108629	0	0	8195	553501	0	0
2024-09-21 11:14:47			0	38156	0	0	0	23412	21990	159236	27282	1057516	46404	108629	0	0	8195	553431	0	0
2024-09-21 11:15:47			0	38165	0	0	0	23410	21990	159216	27552	1057516	46415	108628	0	0	8195	553076	0	0
2024-09-21 11:16:47			0	38177	0	0	0	23410	21990	159236	27476	1057569	46426	108628	0	0	8196	552605	0	0
2024-09-21 11:17:47			0	38183	0	0	0	23425	21990	159156	27206	1057623	46415	108634	0	0	8196	552369	0	0
2024-09-21 11:18:47			0	38199	0	0	0	23420	22000	159136	27377	1057614	46427	108632	0	0	8197	551709	0	0
2024-09-21 11:19:47			0	38180	0	0	0	23428	21990	159148	27523	1057631	46427	108635	0	0	8196	552487	0	0
2024-09-21 11:20:47			0	38194	0	0	0	23423	21990	159168	27479	1057596	46415	108633	0	0	8197	551936	0	0
2024-09-21 11:21:47			0	38196	0	0	0	23420	22000	159160	27781	1057614	46416	108632	0	0	8197	551827	0	0
2024-09-21 11:22:47			0	38189	0	0	0	23431	21990	159196	27254	1057551	46405	108636	0	0	8196	552133	0	0
2024-09-21 11:23:47			0	38174	0	0	0	23431	22010	159132	27391	1057632	46416	108636	0	0	8195	552661	0	0
2024-09-21 11:24:47			0	38188	0	0	0	23433	22010	159092	27263	1057578	46416	108637	0	0	8196	552111	0	0
2024-09-21 11:25:47			0	38190	0	0	0	23431	22010	159120	27315	1057649	46427	108636	0	0	8196	552032	0	0
2024-09-21 11:26:47			0	38184	0	0	0	23431	22000	159180	27384	1057640	46416	108636	0	0	8196	552299	0	0
2024-09-21 11:27:47			0	38194	0	0	0	23454	22010	159120	27485	1057658	46416	108645	0	0	8196	551875	0	0
2024-09-21 11:28:47			0	38225	0	0	0	23441	22020	159016	27225	1057694	46407	108640	0	0	8198	550627	0	0
2024-09-21 11:29:47			0	38228	0	0	0	23457	22010	159028	27509	1057658	46428	108646	0	0	8198	550540	0	0
2024-09-21 11:30:47			0	38241	0	0	0	23457	22010	158896	27355	1057738	46416	108646	0	0	8199	550030	0	0
2024-09-21 11:31:47			0	38243	0	0	0	23462	22030	158872	27209	1057801	46430	108648	0	0	8199	549891	0	0
2024-09-21 11:32:47			0	38242	0	0	0	23462	22020	158916	27500	1057783	46429	108648	0	0	8199	549960	0	0
2024-09-21 11:33:47			0	38248	0	0	0	23472	22020	158896	27409	1057783	46440	108652	0	0	8199	549725	0	0
2024-09-21 11:34:47			0	38253	0	0	0	23475	22030	158876	27390	1057792	46417	108653	0	0	8199	549499	0	0
2024-09-21 11:35:47			0	38257	0	0	0	23480	22040	158880	27388	1057845	46431	108655	0	0	8200	549311	0	0
2024-09-21 11:36:47			0	38254	0	0	0	23483	22040	158824	27343	1057792	46431	108656	0	0	8199	549429	0	0
2024-09-21 11:37:47			0	38251	0	0	0	23472	22040	158840	27443	1057836	46419	108652	0	0	8199	549547	0	0
2024-09-21 11:38:47			0	38248	0	0	0	23480	22040	158808	27239	1057819	46419	108655	0	0	8199	549664	0	0
2024-09-21 11:39:47			0	38234	0	0	0	23488	22040	158904	27206	1057845	46431	108658	0	0	8198	550213	0	0
2024-09-21 11:40:47			0	38249	0	0	0	23498	22050	158796	27298	1057863	46432	108662	0	0	8199	549594	0	0
2024-09-21 11:41:47			0	38278	0	0	0	23493	22050	158892	27400	1057863	46432	108660	0	0	8201	548459	0	0
2024-09-21 11:42:47			0	38272	0	0	0	23490	22050	158692	27332	1057934	46409	108659	0	0	8200	548694	0	0
2024-09-21 11:43:47			0	38286	0	0	0	23475	22050	158680	27369	1057890	46432	108653	0	0	8201	548146	0	0
2024-09-21 11:44:47			0	38294	0	0	0	23470	22060	158620	27367	1057872	46433	108651	0	0	8202	547802	0	0
2024-09-21 11:45:47			0	38277	0	0	0	23477	22060	158644	27479	1057855	46422	108654	0	0	8201	548467	0	0
2024-09-21 11:46:47			0	38276	0	0	0	23467	22060	158756	27327	1057872	46411	108650	0	0	8201	548506	0	0
2024-09-21 11:47:47			0	38273	0	0	0	23467	22050	158688	27416	1057890	46410	108650	0	0	8201	548654	0	0
2024-09-21 11:48:47			0	38276	0	0	0	23462	22060	158840	27334	1057899	46421	108648	0	0	8201	548506	0	0
2024-09-21 11:49:47			0	38253	0	0	0	23464	22060	158784	27497	1057908	46412	108649	0	0	8200	549407	0	0
2024-09-21 11:50:47			0	38244	0	0	0	23459	22060	158932	27364	1057908	46434	108647	0	0	8199	549759	0	0
2024-09-21 11:51:47			0	38224	0	0	0	23462	22050	158872	27533	1057916	46410	108648	0	0	8198	550574	0	0
2024-09-21 11:52:47			0	38218	0	0	0	23470	22060	159012	27498	1057872	46444	108651	0	0	8198	550779	0	0
2024-09-21 11:53:47			0	38188	0	0	0	23464	22060	159032	27405	1057872	46411	108649	0	0	8196	551957	0	0
2024-09-21 11:54:47			0	38192	0	0	0	23462	22060	159112	27486	1057828	46422	108648	0	0	8196	551800	0	0
2024-09-21 11:55:47			0	38176	0	0	0	23475	22060	159116	27438	1057872	46411	108653	0	0	8195	552428	0	0
2024-09-21 11:56:47			0	38162	0	0	0	23472	22050	159208	27464	1057810	46420	108652	0	0	8194	553009	0	0
2024-09-21 11:57:47			0	38180	0	0	0	23496	22060	159108	27415	1057872	46421	108661	0	0	8195	552271	0	0
2024-09-21 11:58:47			0	38188	0	0	0	23503	22050	159060	27578	1057916	46432	108664	0	0	8195	551987	0	0
2024-09-21 11:59:47			0	38188	0	0	0	23490	22070	159092	27398	1057970	46434	108659	0	0	8196	551926	0	0
2024-09-21 12:00:47			0	38196	0	0	0	23475	22060	159032	27616	1057872	46433	108653	0	0	8196	551642	0	0
2024-09-21 12:01:47			0	38214	0	0	0	23472	22070	159016	27651	1057944	46422	108652	0	0	8197	550905	0	0
2024-09-21 12:02:47			0	38209	0	0	0	23485	22080	159028	27203	1057962	46423	108657	0	0	8197	551071	0	0
2024-09-21 12:03:47			0	38191	0	0	0	23475	22060	159068	27213	1057961	46422	108653	0	0	8196	551839	0	0
2024-09-21 12:04:47			0	38185	0	0	0	23483	22070	159092	27473	1057970	46434	108656	0	0	8196	552044	0	0
2024-09-21 12:05:47			0	38193	0	0	0	23498	22070	159140	27519	1057926	46434	108662	0	0	8196	551729	0	0
2024-09-21 12:06:47			0	38177	0	0	0	23488	22070	159208	27606	1057917	46422	108658	0	0	8195	552358	0	0
2024-09-21 12:07:47			0	38173	0	0	0	23498	22060	159100	27357	1057988	46422	108662	0	0	8195	552546	0	0
2024-09-21 12:08:47			0	38193	0	0	0	23506	22080	159072	27384	1057989	46435	108665	0	0	8196	551699	0	0
2024-09-21 12:09:47			0	38204	0	0	0	23501	22080	159056	27417	1058015	46435	108663	0	0	8196	551267	0	0
2024-09-21 12:10:47			0	38212	0	0	0	23488	22080	159020	27606	1058051	46436	108658	0	0	8197	550953	0	0
2024-09-21 12:11:47			0	38198	0	0	0	23503	22080	159044	27788	1057989	46413	108664	0	0	8196	551502	0	0
2024-09-21 12:12:47			0	38195	0	0	0	23568	22080	159120	27826	1058051	46436	108689	0	0	8195	551620	0	0
2024-09-21 12:13:47			0	38188	0	0	0	23561	22090	159080	27724	1058140	46447	108686	0	0	8194	551864	0	0
2024-09-21 12:14:47			0	38207	0	0	0	23537	22090	159084	27403	1058149	46436	108677	0	0	8196	551118	0	0
2024-09-21 12:15:47			0	38217	0	0	0	23542	22110	158956	27488	1058149	46438	108679	0	0	8197	550665	0	0
2024-09-21 12:16:47			0	38231	0	0	0	23537	22110	158840	27185	1058185	46438	108677	0	0	8197	550116	0	0
2024-09-21 12:17:47			0	38245	0	0	0	23516	22110	158904	27256	1058096	46438	108669	0	0	8199	549567	0	0
2024-09-21 12:18:47			0	38232	0	0	0	23498	22120	158848	27550	1058194	46428	108662	0	0	8198	550046	0	0
2024-09-21 12:19:47			0	38213	0	0	0	23490	22110	158868	27576	1058149	46438	108659	0	0	8197	550821	0	0
2024-09-21 12:20:47			0	38217	0	0	0	23498	22120	158912	27369	1058140	46416	108662	0	0	8197	550634	0	0
2024-09-21 12:21:47			0	38213	0	0	0	23511	22110	159000	27291	1058158	46426	108667	0	0	8197	550821	0	0
2024-09-21 12:22:47			0	38194	0	0	0	23524	22110	159000	27033	1058078	46416	108672	0	0	8196	551567	0	0
2024-09-21 12:23:47			0	38194	0	0	0	23535	22110	159032	27279	1058096	46426	108676	0	0	8195	551567	0	0
2024-09-21 12:24:47			0	38193	0	0	0	23532	22110	158988	27417	1058096	46416	108675	0	0	8195	551606	0	0
2024-09-21 12:25:47			0	38177	0	0	0	23545	22110	159092	27431	1058158	46426	108680	0	0	8194	552235	0	0
2024-09-21 12:26:47			0	38173	0	0	0	23550	22110	159196	27455	1058185	46426	108682	0	0	8194	552392	0	0
2024-09-21 12:27:47			0	38179	0	0	0	23529	22120	159068	27469	1058194	46416	108674	0	0	8195	552125	0	0
2024-09-21 12:28:47			0	38196	0	0	0	23535	22120	159076	27213	1058220	46439	108676	0	0	8195	551458	0	0
2024-09-21 12:29:47			0	38185	0	0	0	23529	22120	158968	27353	1058167	46428	108674	0	0	8195	551890	0	0
2024-09-21 12:30:47			0	38187	0	0	0	23532	22120	159068	27161	1058220	46439	108675	0	0	8195	551811	0	0
2024-09-21 12:31:47			0	38165	0	0	0	23535	22120	159060	27244	1058203	46429	108676	0	0	8194	552676	0	0
2024-09-21 12:32:47			0	38163	0	0	0	23548	22110	159104	27178	1058158	46438	108681	0	0	8193	552785	0	0
2024-09-21 12:33:47			0	38181	0	0	0	23553	22130	159068	27185	1058220	46429	108683	0	0	8194	552016	0	0
2024-09-21 12:34:47			0	38182	0	0	0	23571	22130	159156	27552	1058247	46441	108690	0	0	8194	551977	0	0
2024-09-21 12:35:47			0	38199	0	0	0	23555	22130	158948	27033	1058211	46429	108684	0	0	8195	551309	0	0
2024-09-21 12:36:47			0	38208	0	0	0	23558	22130	158896	27277	1058274	46441	108685	0	0	8196	550956	0	0
2024-09-21 12:37:47			0	38213	0	0	0	23558	22130	158920	27608	1058247	46429	108685	0	0	8196	550760	0	0
2024-09-21 12:38:47			0	38197	0	0	0	23548	22140	158884	27448	1058265	46430	108681	0	0	8195	551357	0	0
2024-09-21 12:39:47			0	38201	0	0	0	23550	22140	158844	27505	1058229	46441	108682	0	0	8196	551200	0	0
2024-09-21 12:40:47			0	38237	0	0	0	23535	22140	158800	27183	1058309	46418	108676	0	0	8198	549789	0	0
2024-09-21 12:41:47			0	38226	0	0	0	23555	22150	158840	27301	1058327	46431	108684	0	0	8197	550189	0	0
2024-09-21 12:42:47			0	38248	0	0	0	23563	22150	158780	27154	1058327	46431	108687	0	0	8198	549327	0	0
2024-09-21 12:43:47			0	38252	0	0	0	23574	22140	158808	27428	1058336	46418	108691	0	0	8198	549201	0	0
2024-09-21 12:44:47			0	38256	0	0	0	23581	22150	158676	27741	1058390	46431	108694	0	0	8198	549014	0	0
2024-09-21 12:45:47			0	38250	0	0	0	23602	22150	158764	27435	1058390	46443	108702	0	0	8198	549249	0	0
2024-09-21 12:46:47			0	38272	0	0	0	23607	22150	158648	27656	1058443	46454	108704	0	0	8199	548388	0	0
2024-09-21 12:47:47			0	38281	0	0	0	23625	22160	158752	27621	1058479	46443	108711	0	0	8199	548005	0	0
2024-09-21 12:48:47			0	38280	0	0	0	23615	22170	158596	27329	1058523	46456	108707	0	0	8199	548014	0	0
2024-09-21 12:49:47			0	38297	0	0	0	23607	22170	158540	27222	1058479	46445	108704	0	0	8200	547349	0	0
2024-09-21 12:50:47			0	38296	0	0	0	23607	22170	158620	27239	1058505	46445	108704	0	0	8200	547388	0	0
2024-09-21 12:51:47			0	38292	0	0	0	23605	22180	158560	27488	1058577	46457	108703	0	0	8200	547514	0	0
2024-09-21 12:52:47			0	38302	0	0	0	23610	22180	158544	27372	1058541	46445	108705	0	0	8201	547123	0	0
2024-09-21 12:53:47			0	38314	0	0	0	23625	22190	158576	27486	1058595	46458	108711	0	0	8201	546624	0	0
2024-09-21 12:54:47			0	38314	0	0	0	23638	22200	158540	27371	1058577	46448	108716	0	0	8201	546594	0	0
2024-09-21 12:55:47			0	38317	0	0	0	23623	22200	158540	27274	1058693	46448	108710	0	0	8201	546477	0	0
2024-09-21 12:56:47			0	38319	0	0	0	23612	22210	158420	27519	1058657	46439	108706	0	0	8202	546368	0	0
2024-09-21 12:57:47			0	38349	0	0	0	23615	22210	158408	27260	1058684	46439	108707	0	0	8203	545198	0	0
2024-09-21 12:58:47			0	38345	0	0	0	23602	22210	158368	27248	1058622	46459	108702	0	0	8203	545354	0	0
2024-09-21 12:59:47			0	38354	0	0	0	23602	22210	158332	27140	1058684	46439	108702	0	0	8204	545003	0	0
2024-09-21 13:00:47			0	38337	0	0	0	23607	22210	158416	27540	1058648	46438	108704	0	0	8203	545666	0	0
2024-09-21 13:01:47			0	38346	0	0	0	23631	22210	158340	27483	1058728	46438	108713	0	0	8203	545315	0	0
2024-09-21 13:02:47			0	38350	0	0	0	23636	22210	158372	27625	1058657	46450	108715	0	0	8203	545159	0	0
2024-09-21 13:03:47			0	38366	0	0	0	23646	22220	158396	27405	1058702	46450	108719	0	0	8204	544505	0	0
2024-09-21 13:04:47			0	38383	0	0	0	23644	22220	158312	27402	1058755	46439	108718	0	0	8205	543844	0	0
2024-09-21 13:05:47			0	38390	0	0	0	23638	22230	158240	27602	1058773	46485	108716	0	0	8206	543541	0	0
2024-09-21 13:06:47			0	38397	0	0	0	23667	22250	158168	27391	1058880	46463	108727	0	0	8206	543208	0	0
2024-09-21 13:07:47			0	38410	0	0	0	23696	22240	158068	27384	1058898	46452	108738	0	0	8206	542733	0	0
2024-09-21 13:08:47			0	38435	0	0	0	23701	22240	157996	27263	1058889	46462	108740	0	0	8207	541762	0	0
2024-09-21 13:09:47			0	38447	0	0	0	23662	22250	157968	27504	1058942	46464	108725	0	0	8209	541266	0	0
2024-09-21 13:10:47			0	38446	0	0	0	23649	22270	157780	27206	1059005	46445	108720	0	0	8209	541245	0	0
2024-09-21 13:11:47			0	38458	0	0	0	23644	22260	157848	27393	1058960	46444	108718	0	0	8210	540809	0	0
2024-09-21 13:12:47			0	38433	0	0	0	23649	22280	157988	27530	1059040	46433	108720	0	0	8208	541719	0	0
2024-09-21 13:13:47			0	38432	0	0	0	23654	22270	157944	27448	1058978	46445	108722	0	0	8208	541788	0	0
2024-09-21 13:14:47			0	38428	0	0	0	23659	22270	157936	27632	1058996	46444	108724	0	0	8208	541943	0	0
2024-09-21 13:15:47			0	38445	0	0	0	23662	22260	157904	27606	1058907	46444	108725	0	0	8208	541314	0	0
2024-09-21 13:16:47			0	38449	0	0	0	23680	22270	157948	27216	1058969	46444	108732	0	0	8208	541128	0	0
2024-09-21 13:17:47			0	38461	0	0	0	23683	22270	157864	27604	1058996	46444	108733	0	0	8209	540663	0	0
2024-09-21 13:18:47			0	38467	0	0	0	23688	22280	157796	27447	1059049	46446	108735	0	0	8209	540400	0	0
2024-09-21 13:19:47			0	38470	0	0	0	23714	22280	157896	27357	1059076	46446	108745	0	0	8209	540284	0	0
2024-09-21 13:20:47			0	38477	0	0	0	23701	22280	157748	27234	1059023	46467	108740	0	0	8210	540013	0	0
2024-09-21 13:21:47			0	38494	0	0	0	23693	22280	157760	27490	1059076	46446	108737	0	0	8211	539354	0	0
2024-09-21 13:22:47			0	38499	0	0	0	23711	22290	157736	27405	1059085	46457	108744	0	0	8211	539131	0	0
2024-09-21 13:23:47			0	38498	0	0	0	23714	22300	157660	27216	1059121	46435	108745	0	0	8211	539139	0	0
2024-09-21 13:24:47			0	38501	0	0	0	23698	22300	157704	27533	1059121	46447	108739	0	0	8211	539023	0	0
2024-09-21 13:25:47			0	38501	0	0	0	23693	22280	157644	27493	1059023	46446	108737	0	0	8211	539083	0	0
2024-09-21 13:26:47			0	38532	0	0	0	23740	22300	157592	27708	1059094	46458	108755	0	0	8212	537824	0	0
2024-09-21 13:27:47			0	38525	0	0	0	23709	22310	157496	27601	1059121	46436	108743	0	0	8213	538065	0	0
2024-09-21 13:28:47			0	38523	0	0	0	23711	22300	157500	27417	1059094	46447	108744	0	0	8212	538172	0	0
2024-09-21 13:29:47			0	38524	0	0	0	23779	22310	157616	27324	1059201	46448	108770	0	0	8211	538104	0	0
2024-09-21 13:30:47			0	38526	0	0	0	23706	22320	157460	27587	1059183	46449	108742	0	0	8213	537996	0	0
2024-09-21 13:31:47			0	38508	0	0	0	23657	22320	157608	27670	1059183	46449	108723	0	0	8212	538692	0	0
2024-09-21 13:32:47			0	38510	0	0	0	23659	22310	157604	27447	1059121	46436	108724	0	0	8213	538645	0	0
2024-09-21 13:33:47			0	38467	0	0	0	23688	22320	157716	27374	1059130	46437	108735	0	0	8210	540279	0	0
2024-09-21 13:34:47			0	38489	0	0	0	23714	22300	157836	27433	1059130	46448	108745	0	0	8210	539488	0	0
2024-09-21 13:35:47			0	38506	0	0	0	23698	22310	157624	27569	1059094	46448	108739	0	0	8212	538800	0	0
2024-09-21 13:36:47			0	38507	0	0	0	23711	22320	157564	27739	1059130	46449	108744	0	0	8212	538731	0	0
2024-09-21 13:37:47			0	38506	0	0	0	23745	22320	157596	27289	1059183	46449	108757	0	0	8211	538770	0	0
2024-09-21 13:38:47			0	38560	0	0	0	23789	22310	157456	27256	1059201	46448	108774	0	0	8213	536713	0	0
2024-09-21 13:39:47			0	38602	0	0	0	23792	22310	157224	27384	1059281	46448	108775	0	0	8216	535094	0	0
2024-09-21 13:40:47			0	38620	0	0	0	23766	22330	157192	27282	1059335	46471	108765	0	0	8217	534341	0	0
2024-09-21 13:41:47			0	38601	0	0	0	23750	22330	157180	27848	1059317	46451	108759	0	0	8216	535073	0	0
2024-09-21 13:42:47			0	38590	0	0	0	23706	22340	157392	27639	1059326	46472	108742	0	0	8217	535467	0	0
2024-09-21 13:43:47			0	38571	0	0	0	23706	22330	157324	27246	1059344	46451	108742	0	0	8215	536229	0	0
2024-09-21 13:44:47			0	38554	0	0	0	23737	22350	157512	27642	1059344	46462	108754	0	0	8214	536825	0	0
2024-09-21 13:45:47			0	38535	0	0	0	23727	22350	157476	27502	1059380	46463	108750	0	0	8213	537558	0	0
2024-09-21 13:46:47			0	38518	0	0	0	23742	22350	157392	27627	1059371	46440	108756	0	0	8212	538215	0	0
2024-09-21 13:47:47			0	38530	0	0	0	23716	22350	157488	27419	1059433	46453	108746	0	0	8213	537752	0	0
2024-09-21 13:48:47			0	38506	0	0	0	23729	22350	157528	27509	1059353	46442	108751	0	0	8211	538679	0	0
2024-09-21 13:49:47			0	38530	0	0	0	23766	22350	157496	27564	1059371	46452	108765	0	0	8212	537752	0	0
2024-09-21 13:50:47			0	38571	0	0	0	23789	22350	157428	27653	1059326	46453	108774	0	0	8214	536169	0	0
2024-09-21 13:51:47			0	38566	0	0	0	23789	22360	157280	27725	1059424	46454	108774	0	0	8214	536332	0	0
2024-09-21 13:52:47			0	38573	0	0	0	23836	22360	157408	27123	1059495	46453	108792	0	0	8213	536062	0	0
2024-09-21 13:53:47			0	38626	0	0	0	23870	22380	157096	27209	1059611	46476	108805	0	0	8216	533961	0	0
2024-09-21 13:54:47			0	38694	0	0	0	23823	22380	156928	27388	1059540	46466	108787	0	0	8221	531350	0	0
2024-09-21 13:55:47			0	38678	0	0	0	23763	22380	156988	27301	1059558	46455	108764	0	0	8221	531963	0	0
2024-09-21 13:56:47			0	38628	0	0	0	23766	22390	157108	27144	1059531	46457	108765	0	0	8218	533855	0	0
2024-09-21 13:57:47			0	38602	0	0	0	23779	22380	157240	26878	1059487	46444	108770	0	0	8216	534885	0	0
2024-09-21 13:58:47			0	38610	0	0	0	23786	22380	157100	27246	1059513	46456	108773	0	0	8216	534577	0	0
2024-09-21 13:59:47			0	38605	0	0	0	23794	22380	157208	27104	1059451	46455	108776	0	0	8216	534769	0	0
2024-09-21 14:00:47			0	38613	0	0	0	23805	22380	157140	27530	1059567	46444	108780	0	0	8216	534461	0	0
2024-09-21 14:01:47			0	38660	0	0	0	23805	22370	157132	27357	1059469	46465	108780	0	0	8219	532684	0	0
2024-09-21 14:02:47			0	38640	0	0	0	23810	22370	157036	27235	1059496	46465	108782	0	0	8218	533453	0	0
2024-09-21 14:03:47			0	38644	0	0	0	23799	22380	157056	27152	1059567	46466	108778	0	0	8218	533269	0	0
2024-09-21 14:04:47			0	38633	0	0	0	23797	22390	157012	27421	1059522	46445	108777	0	0	8218	533662	0	0
2024-09-21 14:05:47			0	38632	0	0	0	23797	22400	157160	27071	1059514	46458	108777	0	0	8218	533671	0	0
2024-09-21 14:06:47			0	38641	0	0	0	23807	22390	157088	27144	1059585	46457	108781	0	0	8218	533355	0	0
2024-09-21 14:07:47			0	38678	0	0	0	23854	22380	156876	27476	1059567	46456	108799	0	0	8219	531963	0	0
2024-09-21 14:08:47			0	38729	0	0	0	23877	22390	156757	27343	1059665	46457	108808	0	0	8222	529979	0	0
2024-09-21 14:09:47			0	38759	0	0	0	23844	22410	156633	27201	1059727	46469	108795	0	0	8224	528772	0	0
2024-09-21 14:10:47			0	38750	0	0	0	23836	22420	156669	27538	1059763	46470	108792	0	0	8224	529086	0	0
2024-09-21 14:11:47			0	38735	0	0	0	23849	22410	156740	27433	1059701	46469	108797	0	0	8223	529690	0	0
2024-09-21 14:12:47			0	38718	0	0	0	23859	22420	156760	27145	1059736	46459	108801	0	0	8222	530311	0	0
2024-09-21 14:13:47			0	38747	0	0	0	23862	22420	156689	27365	1059745	46470	108802	0	0	8223	529201	0	0
2024-09-21 14:14:47			0	38766	0	0	0	23883	22420	156561	27436	1059745	46470	108810	0	0	8224	528475	0	0
2024-09-21 14:15:47			0	38802	0	0	0	23898	22440	156453	27045	1059825	46483	108816	0	0	8226	527041	0	0
2024-09-21 14:16:47			0	38840	0	0	0	23929	22440	156321	27369	1059852	46472	108828	0	0	8228	525592	0	0
2024-09-21 14:17:47			0	38871	0	0	0	23901	22440	156193	27234	1059941	46462	108817	0	0	8230	524412	0	0
2024-09-21 14:18:47			0	38825	0	0	0	23849	22460	156373	27287	1059951	46475	108797	0	0	8228	526105	0	0
2024-09-21 14:19:47			0	38767	0	0	0	23823	22460	156585	27448	1059915	46485	108787	0	0	8225	528318	0	0
2024-09-21 14:20:47			0	38714	0	0	0	23828	22450	156712	27409	1059844	46473	108789	0	0	8222	530375	0	0
2024-09-21 14:21:47			0	38696	0	0	0	23833	22450	156760	27505	1059817	46462	108791	0	0	8221	531065	0	0
2024-09-21 14:22:47			0	38677	0	0	0	23825	22450	156984	27568	1059799	46462	108788	0	0	8220	531794	0	0
2024-09-21 14:23:47			0	38664	0	0	0	23838	22450	156944	27633	1059790	46452	108793	0	0	8219	532292	0	0
2024-09-21 14:24:47			0	38662	0	0	0	23854	22450	156860	27409	1059737	46462	108799	0	0	8219	532369	0	0
2024-09-21 14:25:47			0	38684	0	0	0	23872	22450	156884	27498	1059870	46452	108806	0	0	8220	531525	0	0
2024-09-21 14:26:47			0	38712	0	0	0	23890	22450	156744	27722	1059879	46462	108813	0	0	8221	530452	0	0
2024-09-21 14:27:47			0	38730	0	0	0	23857	22450	156673	27765	1059933	46484	108800	0	0	8223	529763	0	0
2024-09-21 14:28:47			0	38728	0	0	0	23864	22460	156717	27639	1059888	46485	108803	0	0	8222	529810	0	0
2024-09-21 14:29:47			0	38689	0	0	0	23859	22470	156832	27498	1059942	46475	108801	0	0	8220	531274	0	0
2024-09-21 14:30:47			0	38692	0	0	0	23849	22460	156704	27630	1059924	46475	108797	0	0	8221	531189	0	0
2024-09-21 14:31:47			0	38701	0	0	0	23909	22480	156684	27597	1059978	46476	108820	0	0	8220	530784	0	0
2024-09-21 14:32:47			0	38720	0	0	0	23893	22480	156648	27672	1060058	46465	108814	0	0	8222	530057	0	0
2024-09-21 14:33:47			0	38752	0	0	0	23927	22480	156457	27656	1060093	46477	108827	0	0	8223	528832	0	0
2024-09-21 14:34:47			0	38812	0	0	0	23935	22490	156289	27845	1060129	46477	108830	0	0	8226	526512	0	0
2024-09-21 14:35:47			0	38895	0	0	0	23950	22500	155993	27559	1060174	46478	108836	0	0	8231	523324	0	0
2024-09-21 14:36:47			0	38938	0	0	0	23958	22500	155829	27758	1060263	46479	108839	0	0	8233	521692	0	0
2024-09-21 14:37:47			0	38928	0	0	0	23924	22510	155861	27495	1060227	46480	108826	0	0	8233	522042	0	0
2024-09-21 14:38:47			0	38928	0	0	0	23945	22520	155805	27360	1060272	46481	108834	0	0	8233	522012	0	0
2024-09-21 14:39:47			0	38986	0	0	0	23961	22520	155709	27497	1060236	46480	108840	0	0	8236	519815	0	0
2024-09-21 14:40:47			0	38966	0	0	0	23927	22520	155685	27428	1060343	46480	108827	0	0	8235	520572	0	0
2024-09-21 14:41:47			0	38958	0	0	0	23935	22520	155741	27258	1060263	46480	108830	0	0	8235	520875	0	0
2024-09-21 14:42:47			0	38996	0	0	0	23958	22520	155601	27538	1060272	46470	108839	0	0	8237	519437	0	0
2024-09-21 14:43:47			0	39021	0	0	0	23953	22530	155521	27507	1060290	46471	108837	0	0	8238	518463	0	0
2024-09-21 14:44:47			0	38979	0	0	0	23937	22530	155533	27272	1060307	46471	108831	0	0	8236	520051	0	0
2024-09-21 14:45:47			0	39004	0	0	0	23955	22530	155353	27215	1060361	46471	108838	0	0	8237	519105	0	0
2024-09-21 14:46:47			0	39064	0	0	0	23979	22520	155385	27680	1060272	46459	108847	0	0	8240	516869	0	0
2024-09-21 14:47:47			0	39091	0	0	0	23994	22530	155273	27661	1060307	46471	108853	0	0	8241	515822	0	0
2024-09-21 14:48:47			0	39151	0	0	0	24020	22540	154981	27493	1060414	46494	108863	0	0	8245	513536	0	0
2024-09-21 14:49:47			0	39187	0	0	0	24015	22550	154913	27421	1060459	46484	108861	0	0	8247	512156	0	0
2024-09-21 14:50:47			0	39187	0	0	0	23999	22550	154885	27329	1060459	46506	108855	0	0	8247	512156	0	0
2024-09-21 14:51:47			0	39210	0	0	0	24023	22560	154697	27248	1060477	46497	108864	0	0	8248	511266	0	0
2024-09-21 14:52:47			0	39264	0	0	0	24025	22570	154553	27332	1060539	46498	108865	0	0	8251	509216	0	0
2024-09-21 14:53:47			0	39254	0	0	0	24015	22580	154553	27253	1060575	46499	108861	0	0	8251	509562	0	0
2024-09-21 14:54:47			0	39265	0	0	0	24023	22570	154509	27298	1060539	46486	108864	0	0	8251	509179	0	0
2024-09-21 14:55:47			0	39279	0	0	0	24028	22580	154389	27699	1060557	46499	108866	0	0	8252	508627	0	0
2024-09-21 14:56:47			0	39287	0	0	0	24028	22580	154369	27566	1060584	46487	108866	0	0	8252	508329	0	0
2024-09-21 14:57:47			0	39297	0	0	0	24031	22590	154365	27687	1060522	46488	108867	0	0	8253	507927	0	0
2024-09-21 14:58:47			0	39319	0	0	0	24025	22590	154309	27594	1060540	46476	108865	0	0	8254	507106	0	0
2024-09-21 14:59:47			0	39317	0	0	0	24036	22600	154305	27223	1060584	46467	108869	0	0	8254	507152	0	0
2024-09-21 15:00:47			0	39371	0	0	0	24049	22590	154121	27303	1060709	46488	108874	0	0	8257	505169	0	0
2024-09-21 15:01:47			0	39391	0	0	0	24044	22590	154117	27454	1060629	46488	108872	0	0	8258	504426	0	0
2024-09-21 15:02:47			0	39348	0	0	0	24046	22600	154213	27575	1060691	46489	108873	0	0	8256	505997	0	0
2024-09-21 15:03:47			0	39391	0	0	0	24041	22610	154113	27464	1060691	46490	108871	0	0	8258	504369	0	0
2024-09-21 15:04:47			0	39388	0	0	0	24051	22610	154045	27604	1060665	46479	108875	0	0	8258	504481	0	0
2024-09-21 15:05:47			0	39408	0	0	0	24049	22610	154005	27260	1060665	46490	108874	0	0	8259	503737	0	0
2024-09-21 15:06:47			0	39325	0	0	0	23979	22620	154169	27594	1060700	46491	108847	0	0	8256	506797	0	0
2024-09-21 15:07:47			0	39166	0	0	0	23966	22610	154881	27523	1060665	46479	108842	0	0	8247	512772	0	0
2024-09-21 15:08:47			0	39146	0	0	0	24002	22610	154921	27718	1060638	46468	108856	0	0	8245	513523	0	0
2024-09-21 15:09:47			0	39217	0	0	0	24002	22620	154529	27659	1060656	46469	108856	0	0	8249	510832	0	0
2024-09-21 15:10:47			0	39139	0	0	0	23945	22620	154861	27549	1060647	46491	108834	0	0	8245	513757	0	0
2024-09-21 15:11:47			0	39099	0	0	0	23974	22610	155025	27530	1060576	46467	108845	0	0	8243	515290	0	0
2024-09-21 15:12:47			0	39093	0	0	0	23953	22610	155109	27268	1060576	46457	108837	0	0	8243	515516	0	0
2024-09-21 15:13:47			0	39031	0	0	0	23942	22600	155197	27627	1060540	46478	108833	0	0	8239	517882	0	0
2024-09-21 15:14:47			0	38994	0	0	0	23919	22600	155405	27405	1060504	46467	108824	0	0	8237	519280	0	0
2024-09-21 15:15:47			0	39013	0	0	0	24005	22590	155349	27687	1060495	46455	108857	0	0	8237	518591	0	0
2024-09-21 15:16:47			0	39118	0	0	0	24031	22590	154989	27682	1060602	46477	108867	0	0	8243	514633	0	0
2024-09-21 15:17:47			0	39203	0	0	0	23979	22600	154673	27490	1060638	46489	108847	0	0	8248	511414	0	0
2024-09-21 15:18:47			0	39128	0	0	0	23974	22590	154917	27758	1060549	46488	108845	0	0	8244	514257	0	0
2024-09-21 15:19:47			0	39132	0	0	0	23992	22610	154845	27478	1060611	46468	108852	0	0	8244	514049	0	0
2024-09-21 15:20:47			0	39160	0	0	0	23986	22600	154785	27524	1060593	46467	108850	0	0	8246	513026	0	0
2024-09-21 15:21:47			0	39181	0	0	0	23976	22610	154829	27459	1060576	46489	108846	0	0	8247	512210	0	0
2024-09-21 15:22:47			0	39114	0	0	0	23971	22600	154949	27746	1060531	46478	108844	0	0	8243	514755	0	0
2024-09-21 15:23:47			0	39139	0	0	0	24005	22610	154917	27319	1060549	46478	108857	0	0	8244	513786	0	0
2024-09-21 15:24:47			0	39182	0	0	0	23976	22590	154821	27625	1060575	46477	108846	0	0	8247	512229	0	0
2024-09-21 15:25:47			0	39160	0	0	0	23986	22590	154893	27390	1060629	46477	108850	0	0	8246	513055	0	0
2024-09-21 15:26:47			0	39183	0	0	0	23989	22590	154785	27646	1060549	46477	108851	0	0	8247	512192	0	0
2024-09-21 15:27:47			0	39180	0	0	0	23997	22590	154793	27516	1060522	46477	108854	0	0	8247	512304	0	0
2024-09-21 15:28:47			0	39175	0	0	0	23981	22600	154837	27367	1060558	46457	108848	0	0	8247	512463	0	0
2024-09-21 15:29:47			0	39189	0	0	0	23994	22600	154761	27428	1060558	46467	108853	0	0	8247	511938	0	0
2024-09-21 15:30:47			0	39200	0	0	0	23999	22600	154637	27310	1060531	46478	108855	0	0	8248	511526	0	0
2024-09-21 15:31:47			0	39198	0	0	0	23999	22590	154757	27426	1060513	46476	108855	0	0	8248	511629	0	0
2024-09-21 15:32:47			0	39190	0	0	0	24018	22590	154689	27339	1060513	46487	108862	0	0	8247	511929	0	0
2024-09-21 15:33:47			0	39225	0	0	0	24020	22590	154489	27542	1060602	46488	108863	0	0	8249	510618	0	0
2024-09-21 15:34:47			0	39239	0	0	0	24010	22600	154505	27331	1060593	46489	108859	0	0	8250	510066	0	0
2024-09-21 15:35:47			0	39228	0	0	0	24002	22610	154533	27294	1060682	46489	108856	0	0	8250	510449	0	0
2024-09-21 15:36:47			0	39239	0	0	0	24036	22600	154433	27331	1060647	46478	108869	0	0	8250	510066	0	0
2024-09-21 15:37:47			0	39264	0	0	0	24018	22600	154417	27614	1060611	46489	108862	0	0	8251	509131	0	0
2024-09-21 15:38:47			0	39262	0	0	0	24023	22610	154429	27111	1060638	46479	108864	0	0	8251	509177	0	0
2024-09-21 15:39:47			0	39304	0	0	0	24041	22600	154417	27208	1060647	46500	108871	0	0	8253	507637	0	0
2024-09-21 15:40:47			0	39337	0	0	0	24036	22620	154253	27281	1060700	46480	108869	0	0	8255	506350	0	0
2024-09-21 15:41:47			0	39354	0	0	0	24044	22610	154113	27802	1060611	46490	108872	0	0	8256	505745	0	0
2024-09-21 15:42:47			0	39392	0	0	0	24046	22620	153977	27680	1060700	46491	108873	0	0	8258	504304	0	0
2024-09-21 15:43:47			0	39385	0	0	0	24054	22620	153901	27448	1060754	46491	108876	0	0	8258	504564	0	0
2024-09-21 15:44:47			0	39387	0	0	0	24038	22620	153985	27502	1060727	46480	108870	0	0	8258	504490	0	0
2024-09-21 15:45:47			0	39352	0	0	0	24028	22620	154077	27991	1060736	46491	108866	0	0	8256	505792	0	0
2024-09-21 15:46:47			0	39359	0	0	0	24028	22620	154069	27763	1060700	46480	108866	0	0	8257	505531	0	0
2024-09-21 15:47:47			0	39360	0	0	0	24023	22620	154029	27791	1060763	46480	108864	0	0	8257	505494	0	0
2024-09-21 15:48:47			0	39368	0	0	0	24015	22610	154041	27606	1060656	46467	108861	0	0	8257	505224	0	0
2024-09-21 15:49:47			0	39331	0	0	0	24018	22610	154041	27779	1060709	46478	108862	0	0	8255	506602	0	0
2024-09-21 15:50:47			0	39313	0	0	0	24007	22610	154265	27685	1060691	46490	108858	0	0	8254	507273	0	0
2024-09-21 15:51:47			0	39275	0	0	0	24002	22620	154317	27892	1060647	46480	108856	0	0	8252	508663	0	0
2024-09-21 15:52:47			0	39274	0	0	0	24010	22600	154485	27786	1060620	46478	108859	0	0	8252	508757	0	0
2024-09-21 15:53:47			0	39270	0	0	0	24015	22610	154389	27601	1060585	46468	108861	0	0	8252	508878	0	0
2024-09-21 15:54:47			0	39277	0	0	0	24012	22610	154337	27842	1060665	46468	108860	0	0	8252	508617	0	0
2024-09-21 15:55:47			0	39301	0	0	0	24007	22620	154193	27576	1060674	46491	108858	0	0	8254	507692	0	0
2024-09-21 15:56:47			0	39330	0	0	0	24018	22610	154145	27611	1060602	46489	108862	0	0	8255	506639	0	0
2024-09-21 15:57:47			0	39308	0	0	0	23999	22610	154213	27746	1060576	46478	108855	0	0	8254	507460	0	0
2024-09-21 15:58:47			0	39273	0	0	0	23989	22610	154409	27692	1060558	46468	108851	0	0	8252	508766	0	0
2024-09-21 15:59:47			0	39237	0	0	0	23989	22610	154529	27765	1060638	46479	108851	0	0	8250	510112	0	0
2024-09-21 16:00:47			0	39221	0	0	0	24002	22600	154573	27692	1060593	46489	108856	0	0	8249	510739	0	0
2024-09-21 16:01:47			0	39240	0	0	0	24002	22600	154501	27618	1060647	46478	108856	0	0	8250	510028	0	0
2024-09-21 16:02:47			0	39258	0	0	0	23992	22600	154457	27514	1060584	46467	108852	0	0	8251	509355	0	0
2024-09-21 16:03:47			0	39248	0	0	0	23981	22590	154497	27663	1060575	46466	108848	0	0	8251	509757	0	0
2024-09-21 16:04:47			0	39262	0	0	0	23986	22590	154373	27836	1060522	46466	108850	0	0	8252	509234	0	0
2024-09-21 16:05:47			0	39244	0	0	0	23979	22590	154481	27937	1060575	46477	108847	0	0	8251	509907	0	0
2024-09-21 16:06:47			0	39231	0	0	0	23979	22600	154381	27609	1060540	46489	108847	0	0	8250	510365	0	0
2024-09-21 16:07:47			0	39263	0	0	0	23994	22580	154333	27582	1060504	46476	108853	0	0	8252	509225	0	0
2024-09-21 16:08:47			0	39274	0	0	0	23999	22590	154385	27798	1060522	46477	108855	0	0	8252	508786	0	0
2024-09-21 16:09:47			0	39273	0	0	0	23994	22580	154397	27587	1060584	46476	108853	0	0	8252	508852	0	0
2024-09-21 16:10:47			0	39262	0	0	0	23992	22590	154441	27386	1060575	46477	108852	0	0	8252	509234	0	0
2024-09-21 16:11:47			0	39271	0	0	0	23999	22590	154401	27840	1060549	46466	108855	0	0	8252	508898	0	0
2024-09-21 16:12:47			0	39273	0	0	0	23989	22580	154325	27821	1060477	46476	108851	0	0	8252	508852	0	0
2024-09-21 16:13:47			0	39254	0	0	0	23979	22590	154481	27713	1060486	46476	108847	0	0	8251	509533	0	0
2024-09-21 16:14:47			0	39250	0	0	0	23984	22580	154469	27694	1060451	46465	108849	0	0	8251	509711	0	0
2024-09-21 16:15:47			0	39256	0	0	0	23989	22590	154457	27547	1060549	46477	108851	0	0	8251	509458	0	0
2024-09-21 16:16:47			0	39233	0	0	0	24002	22580	154453	27395	1060504	46487	108856	0	0	8250	510347	0	0
2024-09-21 16:17:47			0	39269	0	0	0	23992	22590	154417	27441	1060486	46476	108852	0	0	8252	508972	0	0
2024-09-21 16:18:47			0	39239	0	0	0	23976	22580	154393	27633	1060557	46487	108846	0	0	8251	510123	0	0
2024-09-21 16:19:47			0	39230	0	0	0	23984	22580	154533	27556	1060557	46476	108849	0	0	8250	510460	0	0
2024-09-21 16:20:47			0	39238	0	0	0	23986	22580	154549	27680	1060504	46487	108850	0	0	8250	510160	0	0
2024-09-21 16:21:47			0	39246	0	0	0	23986	22580	154409	27732	1060504	46487	108850	0	0	8251	509861	0	0
2024-09-21 16:22:47			0	39247	0	0	0	23981	22580	154469	27355	1060504	46476	108848	0	0	8251	509823	0	0
2024-09-21 16:23:47			0	39238	0	0	0	23976	22580	154533	27618	1060548	46487	108846	0	0	8250	510160	0	0
2024-09-21 16:24:47			0	39225	0	0	0	23979	22580	154477	27656	1060442	46476	108847	0	0	8250	510647	0	0
2024-09-21 16:25:47			0	39209	0	0	0	23966	22580	154605	27630	1060451	46465	108842	0	0	8249	511246	0	0
2024-09-21 16:26:47			0	39229	0	0	0	23976	22580	154669	27680	1060504	46487	108846	0	0	8250	510497	0	0
2024-09-21 16:27:47			0	39206	0	0	0	23971	22580	154597	27869	1060468	46465	108844	0	0	8249	511358	0	0
2024-09-21 16:28:47			0	39210	0	0	0	23968	22580	154681	27800	1060442	46476	108843	0	0	8249	511209	0	0
2024-09-21 16:29:47			0	39191	0	0	0	23963	22570	154745	27410	1060459	46475	108841	0	0	8248	511949	0	0
2024-09-21 16:30:47			0	39202	0	0	0	23968	22570	154745	27692	1060406	46486	108843	0	0	8248	511537	0	0
2024-09-21 16:31:47			0	39190	0	0	0	23974	22570	154813	27854	1060459	46464	108845	0	0	8248	511987	0	0
2024-09-21 16:32:47			0	39210	0	0	0	23974	22560	154753	27739	1060450	46485	108845	0	0	8249	511266	0	0
2024-09-21 16:33:47			0	39209	0	0	0	23976	22560	154625	27639	1060415	46473	108846	0	0	8249	511303	0	0
2024-09-21 16:34:47			0	39211	0	0	0	23981	22560	154685	27953	1060477	46485	108848	0	0	8249	511228	0	0
2024-09-21 16:35:47			0	39238	0	0	0	23986	22560	154681	27800	1060415	46473	108850	0	0	8250	510217	0	0
2024-09-21 16:36:47			0	39230	0	0	0	23971	22560	154637	27868	1060504	46485	108844	0	0	8250	510517	0	0
2024-09-21 16:37:47			0	39245	0	0	0	23974	22560	154625	27666	1060441	46473	108845	0	0	8251	509955	0	0
2024-09-21 16:38:47			0	39266	0	0	0	23971	22570	154653	27637	1060432	46475	108844	0	0	8252	509142	0	0
2024-09-21 16:39:47			0	39217	0	0	0	23974	22560	154577	27868	1060388	46473	108845	0	0	8249	511003	0	0
2024-09-21 16:40:47			0	39233	0	0	0	23963	22560	154645	27880	1060415	46484	108841	0	0	8250	510404	0	0
2024-09-21 16:41:47			0	39226	0	0	0	23971	22560	154673	27753	1060441	46462	108844	0	0	8250	510666	0	0
2024-09-21 16:42:47			0	39211	0	0	0	23961	22550	154717	27251	1060397	46473	108840	0	0	8249	511257	0	0
2024-09-21 16:43:47			0	39213	0	0	0	23971	22560	154793	27341	1060397	46474	108844	0	0	8249	511153	0	0
2024-09-21 16:44:47			0	39209	0	0	0	23984	22550	154829	27656	1060432	46484	108849	0	0	8249	511332	0	0
2024-09-21 16:45:47			0	39230	0	0	0	23984	22560	154777	27770	1060441	46473	108849	0	0	8250	510517	0	0
2024-09-21 16:46:47			0	39263	0	0	0	23989	22560	154593	27717	1060423	46497	108851	0	0	8252	509282	0	0
2024-09-21 16:47:47			0	39257	0	0	0	23989	22560	154653	27372	1060477	46485	108851	0	0	8251	509506	0	0
2024-09-21 16:48:47			0	39251	0	0	0	23984	22560	154597	27585	1060477	46485	108849	0	0	8251	509731	0	0
2024-09-21 16:49:47			0	39259	0	0	0	23984	22560	154561	27680	1060450	46497	108849	0	0	8251	509432	0	0
2024-09-21 16:50:47			0	39271	0	0	0	23979	22560	154533	27540	1060441	46473	108847	0	0	8252	508983	0	0
2024-09-21 16:51:47			0	39305	0	0	0	23986	22560	154429	27390	1060450	46485	108850	0	0	8254	507713	0	0
2024-09-21 16:52:47			0	39283	0	0	0	23986	22560	154361	27514	1060450	46485	108850	0	0	8253	508535	0	0
2024-09-21 16:53:47			0	39295	0	0	0	23976	22560	154441	27647	1060468	46484	108846	0	0	8254	508087	0	0
2024-09-21 16:54:47			0	39310	0	0	0	23984	22560	154361	27516	1060441	46484	108849	0	0	8254	507527	0	0
2024-09-21 16:55:47			0	39313	0	0	0	23974	22560	154445	27783	1060477	46497	108845	0	0	8255	507415	0	0
2024-09-21 16:56:47			0	39311	0	0	0	23984	22560	154553	27479	1060441	46484	108849	0	0	8254	507490	0	0
2024-09-21 16:57:47			0	39290	0	0	0	23979	22560	154533	27868	1060468	46484	108847	0	0	8253	508273	0	0
2024-09-21 16:58:47			0	39300	0	0	0	23966	22560	154449	27646	1060423	46474	108842	0	0	8254	507900	0	0
2024-09-21 16:59:47			0	39293	0	0	0	23963	22560	154457	27535	1060415	46473	108841	0	0	8254	508161	0	0
2024-09-21 17:00:47			0	39281	0	0	0	23981	22560	154405	27523	1060441	46473	108848	0	0	8253	508610	0	0
2024-09-21 17:01:47			0	39271	0	0	0	23979	22560	154445	27672	1060495	46484	108847	0	0	8252	508983	0	0
2024-09-21 17:02:47			0	39288	0	0	0	23963	22560	154413	27402	1060477	46474	108841	0	0	8253	508348	0	0
2024-09-21 17:03:47			0	39274	0	0	0	23961	22560	154453	27568	1060423	46485	108840	0	0	8253	508871	0	0
2024-09-21 17:04:47			0	39279	0	0	0	23961	22570	154485	27296	1060379	46464	108840	0	0	8253	508656	0	0
2024-09-21 17:05:47			0	39281	0	0	0	23974	22550	154489	27615	1060379	46484	108845	0	0	8253	508638	0	0
2024-09-21 17:06:47			0	39287	0	0	0	23968	22560	154545	27216	1060415	46473	108843	0	0	8253	508385	0	0
2024-09-21 17:07:47			0	39309	0	0	0	23976	22560	154441	27422	1060441	46484	108846	0	0	8254	507564	0	0
2024-09-21 17:08:47			0	39318	0	0	0	23979	22550	154329	27767	1060406	46484	108847	0	0	8255	507257	0	0
2024-09-21 17:09:47			0	39311	0	0	0	23984	22550	154381	27381	1060432	46473	108849	0	0	8254	507518	0	0
2024-09-21 17:10:47			0	39377	0	0	0	23999	22560	154101	27659	1060468	46496	108855	0	0	8258	505031	0	0
2024-09-21 17:11:47			0	39387	0	0	0	23999	22560	153961	27454	1060468	46496	108855	0	0	8259	504659	0	0
2024-09-21 17:12:47			0	39405	0	0	0	23986	22560	154001	27817	1060441	46484	108850	0	0	8260	503990	0	0
2024-09-21 17:13:47			0	39416	0	0	0	23994	22560	153970	27874	1060468	46473	108853	0	0	8260	503581	0	0
2024-09-21 17:14:47			0	39386	0	0	0	23984	22570	153985	27507	1060486	46486	108849	0	0	8259	504668	0	0
2024-09-21 17:15:47			0	39392	0	0	0	23974	22560	153989	27776	1060477	46485	108845	0	0	8259	504473	0	0
2024-09-21 17:16:47			0	39370	0	0	0	23961	22570	154121	27521	1060459	46464	108840	0	0	8258	505263	0	0
2024-09-21 17:17:47			0	39382	0	0	0	23961	22560	154061	27724	1060397	46474	108840	0	0	8259	504845	0	0
2024-09-21 17:18:47			0	39325	0	0	0	23953	22560	154249	27855	1060423	46474	108837	0	0	8256	506967	0	0
2024-09-21 17:19:47			0	39231	0	0	0	23950	22550	154625	27665	1060352	46462	108836	0	0	8250	510508	0	0
2024-09-21 17:20:47			0	39221	0	0	0	23948	22560	154669	27433	1060388	46462	108835	0	0	8250	510854	0	0
2024-09-21 17:21:47			0	39202	0	0	0	23945	22550	154769	27485	1060343	46473	108834	0	0	8249	511594	0	0
2024-09-21 17:22:47			0	39161	0	0	0	23966	22540	154813	27189	1060325	46471	108842	0	0	8246	513161	0	0
2024-09-21 17:23:47			0	39182	0	0	0	23963	22540	154877	27244	1060361	46472	108841	0	0	8247	512373	0	0
2024-09-21 17:24:47			0	39170	0	0	0	23974	22550	154929	27194	1060406	46473	108845	0	0	8246	512794	0	0
2024-09-21 17:25:47			0	39114	0	0	0	23992	22540	155137	27552	1060441	46472	108852	0	0	8243	514928	0	0
2024-09-21 17:26:47			0	39046	0	0	0	23999	22550	155329	27519	1060459	46484	108855	0	0	8239	517461	0	0
2024-09-21 17:27:47			0	39020	0	0	0	23997	22550	155469	27547	1060459	46496	108854	0	0	8237	518442	0	0
2024-09-21 17:28:47			0	39013	0	0	0	23997	22560	155477	27611	1060450	46518	108854	0	0	8237	518678	0	0
2024-09-21 17:29:47			0	39017	0	0	0	23997	22560	155413	27923	1060423	46497	108854	0	0	8237	518527	0	0
2024-09-21 17:30:47			0	39006	0	0	0	24002	22580	155441	27628	1060468	46499	108856	0	0	8237	518884	0	0
2024-09-21 17:31:47			0	38989	0	0	0	23992	22570	155481	27568	1060513	46475	108852	0	0	8236	519556	0	0
2024-09-21 17:32:47			0	38995	0	0	0	23992	22560	155501	27900	1060504	46485	108852	0	0	8236	519358	0	0
2024-09-21 17:33:47			0	38981	0	0	0	23986	22560	155409	27557	1060504	46485	108850	0	0	8235	519888	0	0
2024-09-21 17:34:47			0	38987	0	0	0	23999	22570	155577	27362	1060486	46486	108855	0	0	8236	519632	0	0
2024-09-21 17:35:47			0	38970	0	0	0	23994	22570	155589	27402	1060539	46475	108853	0	0	8235	520275	0	0
2024-09-21 17:36:47			0	39000	0	0	0	23992	22570	155449	27298	1060486	46486	108852	0	0	8236	519140	0	0
2024-09-21 17:37:47			0	38983	0	0	0	23994	22570	155597	27602	1060566	46498	108853	0	0	8235	519783	0	0
2024-09-21 17:38:47			0	38969	0	0	0	23994	22570	155645	27663	1060566	46508	108853	0	0	8235	520313	0	0
2024-09-21 17:39:47			0	38929	0	0	0	23997	22580	155637	27720	1060531	46499	108854	0	0	8232	521799	0	0
2024-09-21 17:40:47			0	38902	0	0	0	23999	22580	155817	27348	1060522	46476	108855	0	0	8231	522824	0	0
2024-09-21 17:41:47			0	38844	0	0	0	23984	22570	155989	27507	1060513	46486	108849	0	0	8228	525058	0	0
2024-09-21 17:42:47			0	38792	0	0	0	23992	22580	156169	27672	1060557	46487	108852	0	0	8224	527010	0	0
2024-09-21 17:43:47			0	38754	0	0	0	23992	22570	156329	27260	1060486	46486	108852	0	0	8222	528490	0	0
2024-09-21 17:44:47			0	38707	0	0	0	23984	22580	156600	27294	1060548	46476	108849	0	0	8220	530258	0	0
2024-09-21 17:45:47			0	38681	0	0	0	23986	22570	156732	27538	1060486	46486	108850	0	0	8218	531284	0	0
2024-09-21 17:46:47			0	38653	0	0	0	23984	22570	156796	27299	1060486	46475	108849	0	0	8216	532358	0	0
2024-09-21 17:47:47			0	38631	0	0	0	23984	22580	156948	27524	1060468	46465	108849	0	0	8215	533172	0	0
2024-09-21 17:48:47			0	38625	0	0	0	23981	22580	156964	27750	1060468	46476	108848	0	0	8215	533403	0	0
2024-09-21 17:49:47			0	38624	0	0	0	23986	22580	156844	27452	1060468	46487	108850	0	0	8215	533441	0	0
2024-09-21 17:50:47			0	38631	0	0	0	23981	22560	156836	27810	1060468	46484	108848	0	0	8215	533232	0	0
2024-09-21 17:51:47			0	38616	0	0	0	23979	22570	156904	27497	1060486	46486	108847	0	0	8214	533779	0	0
2024-09-21 17:52:47			0	38629	0	0	0	23979	22580	156924	27665	1060495	46476	108847	0	0	8215	533249	0	0
2024-09-21 17:53:47			0	38618	0	0	0	23961	22580	156920	27625	1060468	46476	108840	0	0	8215	533672	0	0
2024-09-21 17:54:47			0	38579	0	0	0	23955	22560	157080	27689	1060343	46474	108838	0	0	8213	535232	0	0
2024-09-21 17:55:47			0	38561	0	0	0	23948	22550	157116	27105	1060459	46484	108835	0	0	8212	535955	0	0
2024-09-21 17:56:47			0	38543	0	0	0	23955	22550	157192	27223	1060406	46473	108838	0	0	8211	536649	0	0
2024-09-21 17:57:47			0	38537	0	0	0	23942	22550	157176	27460	1060370	46462	108833	0	0	8210	536881	0	0
2024-09-21 17:58:47			0	38510	0	0	0	23935	22550	157416	27467	1060325	46473	108830	0	0	8209	537923	0	0
2024-09-21 17:59:47			0	38486	0	0	0	23935	22540	157412	27607	1060245	46471	108830	0	0	8207	538881	0	0
2024-09-21 18:00:47			0	38450	0	0	0	23924	22530	157468	27043	1060316	46471	108826	0	0	8206	540304	0	0
2024-09-21 18:01:47			0	38436	0	0	0	23911	22540	157492	27327	1060281	46472	108821	0	0	8205	540816	0	0
2024-09-21 18:02:47			0	38426	0	0	0	23901	22530	157624	27303	1060201	46471	108817	0	0	8205	541234	0	0
2024-09-21 18:03:47			0	38382	0	0	0	23893	22530	157780	27204	1060103	46460	108814	0	0	8202	542941	0	0
2024-09-21 18:04:47			0	38365	0	0	0	23888	22530	157840	27026	1060236	46471	108812	0	0	8201	543602	0	0
2024-09-21 18:05:47			0	38336	0	0	0	23885	22510	157996	27313	1060067	46458	108811	0	0	8199	544791	0	0
2024-09-21 18:06:47			0	38306	0	0	0	23872	22510	158172	27256	1060085	46458	108806	0	0	8198	545960	0	0
2024-09-21 18:07:47			0	38263	0	0	0	23877	22500	158316	27294	1060076	46468	108808	0	0	8195	547668	0	0
2024-09-21 18:08:47			0	38284	0	0	0	23877	22500	158316	27149	1060067	46467	108808	0	0	8197	546848	0	0
2024-09-21 18:09:47			0	38259	0	0	0	23862	22490	158340	27434	1060022	46456	108802	0	0	8195	547855	0	0
2024-09-21 18:10:47			0	38244	0	0	0	23859	22490	158328	27234	1059978	46457	108801	0	0	8194	548441	0	0
2024-09-21 18:11:47			0	38233	0	0	0	23854	22480	158336	27374	1059951	46476	108799	0	0	8194	548902	0	0
2024-09-21 18:12:47			0	38226	0	0	0	23854	22480	158420	27268	1060004	46465	108799	0	0	8193	549176	0	0
2024-09-21 18:13:47			0	38203	0	0	0	23857	22470	158592	27689	1059942	46464	108800	0	0	8192	550107	0	0
2024-09-21 18:14:47			0	38218	0	0	0	23846	22480	158460	27310	1059924	46476	108796	0	0	8193	549489	0	0
2024-09-21 18:15:47			0	38180	0	0	0	23841	22470	158744	27331	1059906	46464	108794	0	0	8191	551008	0	0
2024-09-21 18:16:47			0	38162	0	0	0	23831	22460	158704	27410	1059862	46474	108790	0	0	8190	551745	0	0
2024-09-21 18:17:47			0	38159	0	0	0	23836	22460	158772	27343	1059897	46475	108792	0	0	8190	551863	0	0
2024-09-21 18:18:47			0	38181	0	0	0	23841	22460	158736	27138	1059782	46453	108794	0	0	8191	551000	0	0
2024-09-21 18:19:47			0	38150	0	0	0	23820	22440	158768	27232	1059781	46462	108786	0	0	8189	552278	0	0
2024-09-21 18:20:47			0	38159	0	0	0	23828	22440	158664	27228	1059728	46452	108789	0	0	8190	551924	0	0
2024-09-21 18:21:47			0	38168	0	0	0	23815	22440	158848	27550	1059745	46451	108784	0	0	8191	551571	0	0
2024-09-21 18:22:47			0	38142	0	0	0	23818	22430	158828	27088	1059736	46460	108785	0	0	8189	552623	0	0
2024-09-21 18:23:47			0	38156	0	0	0	23823	22430	158884	27248	1059710	46460	108787	0	0	8190	552073	0	0
2024-09-21 18:24:47			0	38175	0	0	0	23836	22430	158772	27310	1059674	46471	108792	0	0	8191	551328	0	0
2024-09-21 18:25:47			0	38193	0	0	0	23841	22420	158632	27507	1059736	46481	108794	0	0	8192	550652	0	0
2024-09-21 18:26:47			0	38198	0	0	0	23846	22420	158660	27331	1059745	46481	108796	0	0	8192	550456	0	0
2024-09-21 18:27:47			0	38193	0	0	0	23849	22420	158780	27209	1059772	46470	108797	0	0	8191	550652	0	0
2024-09-21 18:28:47			0	38171	0	0	0	23836	22420	158600	27395	1059799	46470	108792	0	0	8190	551515	0	0
2024-09-21 18:29:47			0	38187	0	0	0	23831	22420	158572	27606	1059763	46459	108790	0	0	8191	550888	0	0
2024-09-21 18:30:47			0	38179	0	0	0	23818	22410	158592	27173	1059701	46458	108785	0	0	8191	551232	0	0
2024-09-21 18:31:47			0	38179	0	0	0	23823	22420	158668	27182	1059710	46459	108787	0	0	8191	551201	0	0
2024-09-21 18:32:47			0	38184	0	0	0	23825	22410	158612	27258	1059701	46469	108788	0	0	8191	551036	0	0
2024-09-21 18:33:47			0	38164	0	0	0	23831	22420	158688	27505	1059763	46459	108790	0	0	8190	551790	0	0
2024-09-21 18:34:47			0	38176	0	0	0	23825	22410	158760	27471	1059638	46469	108788	0	0	8191	551350	0	0
2024-09-21 18:35:47			0	38153	0	0	0	23805	22400	158712	27454	1059656	46468	108780	0	0	8190	552283	0	0
2024-09-21 18:36:47			0	38123	0	0	0	23776	22410	158880	27402	1059638	46469	108769	0	0	8188	553431	0	0
2024-09-21 18:37:47			0	38079	0	0	0	23776	22390	158928	27229	1059611	46457	108769	0	0	8186	555225	0	0
2024-09-21 18:38:47			0	38109	0	0	0	23792	22400	159052	27229	1059620	46458	108775	0	0	8187	554013	0	0
2024-09-21 18:39:47			0	38079	0	0	0	23776	22390	159080	27332	1059522	46457	108769	0	0	8186	555225	0	0
2024-09-21 18:40:47			0	38077	0	0	0	23761	22370	159188	27490	1059496	46455	108763	0	0	8186	555366	0	0
2024-09-21 18:41:47			0	38073	0	0	0	23750	22380	159092	27410	1059478	46455	108759	0	0	8186	555493	0	0
2024-09-21 18:42:47			0	38044	0	0	0	23753	22370	159292	27095	1059442	46465	108760	0	0	8184	556667	0	0
2024-09-21 18:43:47			0	38011	0	0	0	23737	22360	159379	27386	1059389	46453	108754	0	0	8182	558002	0	0
2024-09-21 18:44:47			0	38016	0	0	0	23745	22350	159371	27190	1059371	46452	108757	0	0	8182	557836	0	0
2024-09-21 18:45:47			0	38001	0	0	0	23727	22360	159423	27055	1059362	46463	108750	0	0	8182	558397	0	0
2024-09-21 18:46:47			0	38002	0	0	0	23716	22350	159431	27050	1059326	46442	108746	0	0	8182	558389	0	0
2024-09-21 18:47:47			0	37983	0	0	0	23724	22350	159675	27090	1059326	46442	108749	0	0	8181	559141	0	0
2024-09-21 18:48:47			0	37979	0	0	0	23706	22340	159667	27495	1059246	46451	108742	0	0	8181	559330	0	0
2024-09-21 18:49:47			0	37933	0	0	0	23698	22330	159671	27294	1059237	46461	108739	0	0	8178	561185	0	0
2024-09-21 18:50:47			0	37961	0	0	0	23703	22320	159523	27045	1059157	46449	108741	0	0	8180	560106	0	0
2024-09-21 18:51:47			0	37956	0	0	0	23716	22320	159667	27138	1059192	46460	108746	0	0	8179	560304	0	0
2024-09-21 18:52:47			0	37947	0	0	0	23698	22300	159699	27140	1059183	46448	108739	0	0	8179	560723	0	0
2024-09-21 18:53:47			0	37907	0	0	0	23670	22310	159823	27088	1059148	46448	108728	0	0	8177	562279	0	0
2024-09-21 18:54:47			0	37910	0	0	0	23667	22300	159855	27230	1059050	46448	108727	0	0	8177	562192	0	0
2024-09-21 18:55:47			0	37936	0	0	0	23724	22290	159819	27043	1059058	46457	108749	0	0	8178	561191	0	0
2024-09-21 18:56:47			0	37990	0	0	0	23714	22280	159543	27173	1058996	46446	108745	0	0	8181	559082	0	0
2024-09-21 18:57:47			0	37988	0	0	0	23716	22280	159555	27216	1059014	46456	108746	0	0	8181	559162	0	0
2024-09-21 18:58:47			0	38018	0	0	0	23719	22280	159467	26920	1059040	46456	108747	0	0	8183	557975	0	0
2024-09-21 18:59:47			0	38016	0	0	0	23685	22270	159343	27289	1058969	46444	108734	0	0	8183	558085	0	0
2024-09-21 19:00:47			0	38009	0	0	0	23696	22270	159523	27414	1059023	46432	108738	0	0	8183	558362	0	0
2024-09-21 19:01:47			0	38042	0	0	0	23709	22270	159456	27258	1058978	46445	108743	0	0	8184	557057	0	0
2024-09-21 19:02:47			0	38091	0	0	0	23719	22270	159392	27428	1058943	46432	108747	0	0	8187	555124	0	0
2024-09-21 19:03:47			0	38068	0	0	0	23701	22250	159416	27357	1058942	46443	108740	0	0	8186	556093	0	0
2024-09-21 19:04:47			0	38018	0	0	0	23670	22250	159483	27519	1058889	46443	108728	0	0	8183	558068	0	0
2024-09-21 19:05:47			0	38039	0	0	0	23709	22250	159432	27230	1058880	46430	108743	0	0	8184	557238	0	0
2024-09-21 19:06:47			0	38132	0	0	0	23722	22250	159028	27071	1058747	46453	108748	0	0	8189	553572	0	0
2024-09-21 19:07:47			0	38112	0	0	0	23688	22240	158928	27400	1058835	46429	108735	0	0	8189	554390	0	0
2024-09-21 19:08:47			0	38127	0	0	0	23722	22230	159144	27199	1058764	46451	108748	0	0	8189	553831	0	0
2024-09-21 19:09:47			0	38172	0	0	0	23693	22220	158888	27109	1058755	46439	108737	0	0	8192	552092	0	0
2024-09-21 19:10:47			0	38251	0	0	0	23870	22230	158632	27007	1058818	46440	108805	0	0	8194	548964	0	0
2024-09-21 19:11:47			0	38360	0	0	0	23875	22230	158264	27422	1059040	46462	108807	0	0	8200	544709	0	0
2024-09-21 19:12:47			0	38409	0	0	0	23862	22250	158080	27119	1059040	46486	108802	0	0	8203	542742	0	0
2024-09-21 19:13:47			0	38454	0	0	0	23911	22250	157900	27074	1059147	46507	108821	0	0	8205	540995	0	0
2024-09-21 19:14:47			0	38473	0	0	0	23890	22270	157708	27208	1059218	46489	108813	0	0	8206	540198	0	0
2024-09-21 19:15:47			0	38500	0	0	0	23909	22270	157556	27187	1059289	46509	108820	0	0	8208	539152	0	0
2024-09-21 19:16:47			0	38528	0	0	0	23909	22280	157456	27305	1059307	46521	108820	0	0	8209	538039	0	0
2024-09-21 19:17:47			0	38533	0	0	0	23914	22290	157400	27270	1059459	46500	108822	0	0	8209	537816	0	0
2024-09-21 19:18:47			0	38550	0	0	0	23898	22310	157356	27150	1059468	46513	108816	0	0	8211	537099	0	0
2024-09-21 19:19:47			0	38542	0	0	0	23916	22320	157488	27196	1059450	46503	108823	0	0	8210	537378	0	0
2024-09-21 19:20:47			0	38519	0	0	0	23896	22340	157356	27225	1059540	46505	108815	0	0	8209	538207	0	0
2024-09-21 19:21:47			0	38538	0	0	0	23914	22340	157424	27237	1059602	46506	108822	0	0	8210	537473	0	0
2024-09-21 19:22:47			0	38546	0	0	0	23911	22350	157336	27360	1059646	46529	108821	0	0	8211	537134	0	0
2024-09-21 19:23:47			0	38523	0	0	0	23898	22370	157456	27390	1059789	46532	108816	0	0	8210	537962	0	0
2024-09-21 19:24:47			0	38517	0	0	0	23893	22390	157484	27452	1059789	46500	108814	0	0	8209	538134	0	0
2024-09-21 19:25:47			0	38510	0	0	0	23898	22380	157344	27189	1059807	46489	108816	0	0	8209	538434	0	0
2024-09-21 19:26:47			0	38514	0	0	0	23888	22390	157464	27303	1059852	46500	108812	0	0	8209	538250	0	0
2024-09-21 19:27:47			0	38485	0	0	0	23875	22410	157500	27168	1059798	46524	108807	0	0	8208	539311	0	0
2024-09-21 19:28:47			0	38466	0	0	0	23890	22400	157580	27403	1059816	46491	108813	0	0	8206	540077	0	0
2024-09-21 19:29:47			0	38465	0	0	0	23872	22400	157508	27345	1059763	46491	108806	0	0	8207	540116	0	0
2024-09-21 19:30:47			0	38456	0	0	0	23859	22410	157604	27064	1059781	46492	108801	0	0	8206	540434	0	0
2024-09-21 19:31:47			0	38440	0	0	0	23862	22410	157700	26861	1059745	46480	108802	0	0	8205	541054	0	0
2024-09-21 19:32:47			0	38447	0	0	0	23885	22410	157716	26880	1059745	46502	108811	0	0	8205	540783	0	0
2024-09-21 19:33:47			0	38453	0	0	0	23888	22420	157612	27130	1059790	46493	108812	0	0	8206	540520	0	0
2024-09-21 19:34:47			0	38448	0	0	0	23872	22410	157652	27133	1059727	46492	108806	0	0	8206	540744	0	0
2024-09-21 19:35:47			0	38431	0	0	0	23877	22420	157668	26923	1059843	46481	108808	0	0	8205	541373	0	0
2024-09-21 19:36:47			0	38430	0	0	0	23872	22410	157636	27372	1059834	46469	108806	0	0	8205	541442	0	0
2024-09-21 19:37:47			0	38428	0	0	0	23877	22420	157720	27020	1059763	46514	108808	0	0	8205	541489	0	0
2024-09-21 19:38:47			0	38417	0	0	0	23864	22420	157776	27065	1059790	46470	108803	0	0	8204	541916	0	0
2024-09-21 19:39:47			0	38414	0	0	0	23857	22420	157804	27307	1059790	46470	108800	0	0	8204	542032	0	0
2024-09-21 19:40:47			0	38411	0	0	0	23870	22410	157772	27033	1059807	46492	108805	0	0	8204	542179	0	0
2024-09-21 19:41:47			0	38415	0	0	0	23867	22410	157756	26949	1059754	46480	108804	0	0	8204	542024	0	0
2024-09-21 19:42:47			0	38405	0	0	0	23872	22410	157744	27320	1059861	46492	108806	0	0	8203	542412	0	0
2024-09-21 19:43:47			0	38378	0	0	0	23870	22440	157868	27282	1059879	46505	108805	0	0	8202	543370	0	0
2024-09-21 19:44:47			0	38399	0	0	0	23875	22410	157864	27005	1059834	46480	108807	0	0	8203	542645	0	0
2024-09-21 19:45:47			0	38389	0	0	0	23875	22440	157828	27225	1059852	46516	108807	0	0	8202	542943	0	0
2024-09-21 19:46:47			0	38382	0	0	0	23877	22440	157784	27152	1059906	46483	108808	0	0	8202	543215	0	0
2024-09-21 19:47:47			0	38389	0	0	0	23870	22440	157748	27097	1059861	46528	108805	0	0	8203	542943	0	0
2024-09-21 19:48:47			0	38385	0	0	0	23872	22440	157840	27074	1059879	46472	108806	0	0	8202	543098	0	0
2024-09-21 19:49:47			0	38389	0	0	0	23867	22440	157868	27154	1059861	46484	108804	0	0	8203	542943	0	0
2024-09-21 19:50:47			0	38383	0	0	0	23870	22440	157816	27467	1059861	46473	108805	0	0	8202	543176	0	0
2024-09-21 19:51:47			0	38380	0	0	0	23864	22440	157916	27225	1059852	46483	108803	0	0	8202	543292	0	0
2024-09-21 19:52:47			0	38381	0	0	0	23864	22440	157820	27152	1059772	46483	108803	0	0	8202	543254	0	0
2024-09-21 19:53:47			0	38353	0	0	0	23846	22430	157948	27467	1059790	46482	108796	0	0	8201	544373	0	0
2024-09-21 19:54:47			0	38352	0	0	0	23854	22420	157984	27199	1059799	46493	108799	0	0	8201	544442	0	0
2024-09-21 19:55:47			0	38330	0	0	0	23851	22430	158076	27074	1059754	46482	108798	0	0	8199	545268	0	0
2024-09-21 19:56:47			0	38343	0	0	0	23862	22420	158056	27166	1059736	46470	108802	0	0	8200	544793	0	0
2024-09-21 19:57:47			0	38346	0	0	0	23859	22420	158004	26920	1059763	46481	108801	0	0	8200	544676	0	0
2024-09-21 19:58:47			0	38337	0	0	0	23854	22410	158012	27433	1059665	46480	108799	0	0	8200	545057	0	0
2024-09-21 19:59:47			0	38314	0	0	0	23846	22400	158012	27239	1059700	46468	108796	0	0	8198	545984	0	0
2024-09-21 20:00:47			0	38332	0	0	0	23849	22410	158176	27488	1059701	46480	108797	0	0	8199	545251	0	0
2024-09-21 20:01:47			0	38314	0	0	0	23844	22410	158200	27202	1059665	46480	108795	0	0	8198	545953	0	0
2024-09-21 20:02:47			0	38297	0	0	0	23849	22410	158236	27149	1059745	46480	108797	0	0	8197	546616	0	0
2024-09-21 20:03:47			0	38309	0	0	0	23838	22410	158260	27015	1059745	46492	108793	0	0	8198	546148	0	0
2024-09-21 20:04:47			0	38290	0	0	0	23836	22400	158292	27159	1059656	46468	108792	0	0	8197	546920	0	0
2024-09-21 20:05:47			0	38282	0	0	0	23841	22410	158272	27178	1059718	46480	108794	0	0	8197	547201	0	0
2024-09-21 20:06:47			0	38278	0	0	0	23815	22400	158268	27083	1059629	46468	108784	0	0	8197	547388	0	0
2024-09-21 20:07:47			0	38274	0	0	0	23810	22410	158256	27180	1059638	46469	108782	0	0	8197	547514	0	0
2024-09-21 20:08:47			0	38263	0	0	0	23815	22390	158436	27071	1059611	46467	108784	0	0	8196	548005	0	0
2024-09-21 20:09:47			0	38250	0	0	0	23815	22390	158356	27296	1059549	46478	108784	0	0	8195	548513	0	0
2024-09-21 20:10:47			0	38257	0	0	0	23799	22380	158428	27270	1059593	46477	108778	0	0	8196	548270	0	0
2024-09-21 20:11:47			0	38255	0	0	0	23802	22380	158452	27346	1059531	46465	108779	0	0	8196	548348	0	0
2024-09-21 20:12:47			0	38227	0	0	0	23797	22380	158520	27223	1059585	46476	108777	0	0	8194	549444	0	0
2024-09-21 20:13:47			0	38206	0	0	0	23792	22380	158552	27203	1059531	46476	108775	0	0	8193	550266	0	0
2024-09-21 20:14:47			0	38209	0	0	0	23781	22370	158604	27182	1059487	46475	108771	0	0	8193	550179	0	0
2024-09-21 20:15:47			0	38198	0	0	0	23779	22370	158584	27007	1059513	46464	108770	0	0	8193	550610	0	0
2024-09-21 20:16:47			0	38192	0	0	0	23797	22370	158520	27170	1059460	46464	108777	0	0	8192	550845	0	0
2024-09-21 20:17:47			0	38215	0	0	0	23784	22370	158588	27381	1059496	46476	108772	0	0	8194	549944	0	0
2024-09-21 20:18:47			0	38215	0	0	0	23771	22360	158668	27079	1059415	46474	108767	0	0	8194	549975	0	0
2024-09-21 20:19:47			0	38235	0	0	0	23773	22360	158532	27334	1059415	46463	108768	0	0	8195	549192	0	0
2024-09-21 20:20:47			0	38228	0	0	0	23799	22350	158420	26859	1059397	46473	108778	0	0	8194	549497	0	0
2024-09-21 20:21:47			0	38259	0	0	0	23807	22350	158496	26998	1059513	46474	108781	0	0	8196	548284	0	0
2024-09-21 20:22:47			0	38299	0	0	0	23844	22350	158224	27310	1059504	46462	108795	0	0	8197	546721	0	0
2024-09-21 20:23:47			0	38330	0	0	0	23867	22360	158120	27376	1059522	46474	108804	0	0	8199	545482	0	0
2024-09-21 20:24:47			0	38368	0	0	0	23823	22340	158040	27305	1059495	46473	108787	0	0	8202	544063	0	0
2024-09-21 20:25:47			0	38380	0	0	0	23823	22360	157948	27412	1059549	46485	108787	0	0	8202	543535	0	0
2024-09-21 20:26:47			0	38370	0	0	0	23825	22360	158060	27038	1059495	46463	108788	0	0	8202	543924	0	0
2024-09-21 20:27:47			0	38335	0	0	0	23836	22340	158168	27189	1059379	46461	108792	0	0	8199	545348	0	0
2024-09-21 20:28:47			0	38326	0	0	0	23838	22350	158204	27114	1059531	46496	108793	0	0	8199	545668	0	0
2024-09-21 20:29:47			0	38316	0	0	0	23841	22370	158204	27204	1059540	46475	108794	0	0	8198	545997	0	0
2024-09-21 20:30:47			0	38318	0	0	0	23849	22360	158248	26994	1059575	46507	108797	0	0	8198	545949	0	0
2024-09-21 20:31:47			0	38341	0	0	0	23864	22380	158204	27218	1059638	46509	108803	0	0	8200	544992	0	0
2024-09-21 20:32:47			0	38365	0	0	0	23838	22370	157988	27246	1059629	46476	108793	0	0	8201	544088	0	0
2024-09-21 20:33:47			0	38376	0	0	0	23846	22380	158000	27046	1059585	46488	108796	0	0	8202	543630	0	0
2024-09-21 20:34:47			0	38364	0	0	0	23844	22370	158008	27111	1059576	46465	108795	0	0	8201	544127	0	0
2024-09-21 20:35:47			0	38338	0	0	0	23836	22380	158116	27493	1059611	46476	108792	0	0	8200	545109	0	0
2024-09-21 20:36:47			0	38299	0	0	0	23833	22370	158224	27289	1059593	46487	108791	0	0	8198	546660	0	0
2024-09-21 20:37:47			0	38291	0	0	0	23838	22370	158192	27003	1059629	46476	108793	0	0	8197	546972	0	0
2024-09-21 20:38:47			0	38337	0	0	0	23854	22380	158196	27076	1059674	46489	108799	0	0	8199	545148	0	0
2024-09-21 20:39:47			0	38307	0	0	0	23828	22390	158228	27062	1059682	46500	108789	0	0	8198	546287	0	0
2024-09-21 20:40:47			0	38298	0	0	0	23825	22390	158236	26908	1059718	46522	108788	0	0	8198	546638	0	0
2024-09-21 20:41:47			0	38246	0	0	0	23807	22400	158396	27393	1059700	46512	108781	0	0	8195	548639	0	0
2024-09-21 20:42:47			0	38221	0	0	0	23786	22400	158424	27296	1059736	46491	108773	0	0	8194	549617	0	0
2024-09-21 20:43:47			0	38199	0	0	0	23779	22410	158680	27275	1059772	46492	108770	0	0	8193	550448	0	0
2024-09-21 20:44:47			0	38192	0	0	0	23786	22400	158588	27135	1059700	46468	108773	0	0	8192	550753	0	0
2024-09-21 20:45:47			0	38170	0	0	0	23773	22400	158692	27251	1059594	46468	108768	0	0	8191	551616	0	0
2024-09-21 20:46:47			0	38156	0	0	0	23779	22390	158828	27360	1059602	46467	108770	0	0	8190	552197	0	0
2024-09-21 20:47:47			0	38134	0	0	0	23776	22390	158852	27289	1059585	46478	108769	0	0	8189	553061	0	0
2024-09-21 20:48:47			0	38134	0	0	0	23773	22380	158916	27137	1059567	46466	108768	0	0	8189	553092	0	0
2024-09-21 20:49:47			0	38122	0	0	0	23781	22390	159000	27256	1059602	46490	108771	0	0	8188	553532	0	0
2024-09-21 20:50:47			0	38131	0	0	0	23792	22370	158968	27202	1059576	46465	108775	0	0	8188	553240	0	0
2024-09-21 20:51:47			0	38129	0	0	0	23789	22370	158968	26817	1059496	46476	108774	0	0	8188	553319	0	0
2024-09-21 20:52:47			0	38135	0	0	0	23784	22370	158904	27346	1059522	46488	108772	0	0	8189	553083	0	0
2024-09-21 20:53:47			0	38153	0	0	0	23786	22370	158836	27170	1059540	46464	108773	0	0	8190	552376	0	0
2024-09-21 20:54:47			0	38155	0	0	0	23797	22370	158864	26856	1059442	46476	108777	0	0	8190	552297	0	0
2024-09-21 20:55:47			0	38163	0	0	0	23802	22370	158828	27364	1059522	46465	108779	0	0	8190	551983	0	0
2024-09-21 20:56:47			0	38164	0	0	0	23802	22370	158824	27287	1059576	46488	108779	0	0	8190	551944	0	0
2024-09-21 20:57:47			0	38177	0	0	0	23807	22370	158744	27218	1059576	46488	108781	0	0	8191	551434	0	0
2024-09-21 20:58:47			0	38183	0	0	0	23802	22380	158804	26833	1059531	46476	108779	0	0	8191	551168	0	0
2024-09-21 20:59:47			0	38179	0	0	0	23792	22370	158780	27343	1059540	46475	108775	0	0	8191	551355	0	0
2024-09-21 21:00:47			0	38197	0	0	0	23781	22380	158744	27128	1059611	46476	108771	0	0	8193	550619	0	0
2024-09-21 21:01:47			0	38190	0	0	0	23776	22370	158620	26993	1059460	46464	108769	0	0	8192	550924	0	0
2024-09-21 21:02:47			0	38207	0	0	0	23786	22380	158724	27256	1059558	46476	108773	0	0	8193	550227	0	0
2024-09-21 21:03:47			0	38188	0	0	0	23779	22360	158668	27232	1059504	46475	108770	0	0	8192	551033	0	0
2024-09-21 21:04:47			0	38208	0	0	0	23776	22370	158664	27281	1059513	46475	108769	0	0	8193	550218	0	0
2024-09-21 21:05:47			0	38200	0	0	0	23761	22360	158716	26974	1059531	46487	108763	0	0	8193	550563	0	0
2024-09-21 21:06:47			0	38224	0	0	0	23768	22360	158628	27175	1059478	46464	108766	0	0	8194	549623	0	0
2024-09-21 21:07:47			0	38212	0	0	0	23766	22360	158776	27183	1059415	46463	108765	0	0	8194	550092	0	0
2024-09-21 21:08:47			0	38218	0	0	0	23781	22360	158772	27296	1059495	46474	108771	0	0	8194	549857	0	0
2024-09-21 21:09:47			0	38187	0	0	0	23779	22360	158852	27331	1059495	46474	108770	0	0	8192	551072	0	0
2024-09-21 21:10:47			0	38201	0	0	0	23753	22350	158820	27052	1059424	46462	108760	0	0	8193	550554	0	0
2024-09-21 21:11:47			0	38198	0	0	0	23763	22350	158800	26991	1059371	46473	108764	0	0	8193	550672	0	0
2024-09-21 21:12:47			0	38174	0	0	0	23755	22340	158792	27161	1059442	46462	108761	0	0	8191	551644	0	0
2024-09-21 21:13:47			0	38184	0	0	0	23711	22330	158792	27092	1059424	46461	108744	0	0	8193	551282	0	0
2024-09-21 21:14:47			0	38169	0	0	0	23742	22340	158952	27088	1059326	46461	108756	0	0	8191	551840	0	0
2024-09-21 21:15:47			0	38157	0	0	0	23719	22330	158924	27069	1059344	46461	108747	0	0	8191	552342	0	0
2024-09-21 21:16:47			0	38140	0	0	0	23701	22340	159060	27071	1059273	46461	108740	0	0	8190	552979	0	0
2024-09-21 21:17:47			0	38133	0	0	0	23672	22330	159068	27209	1059255	46450	108729	0	0	8190	553285	0	0
2024-09-21 21:18:47			0	38134	0	0	0	23685	22320	159180	27242	1059210	46449	108734	0	0	8190	553277	0	0
2024-09-21 21:19:47			0	38130	0	0	0	23657	22310	159064	26993	1059174	46448	108723	0	0	8190	553465	0	0
2024-09-21 21:20:47			0	38127	0	0	0	23654	22300	159024	27201	1059130	46436	108722	0	0	8190	553614	0	0
2024-09-21 21:21:47			0	38151	0	0	0	23649	22280	158964	27215	1059049	46446	108720	0	0	8192	552732	0	0
2024-09-21 21:22:47			0	38189	0	0	0	23670	22300	158980	27168	1059094	46458	108728	0	0	8194	551179	0	0
2024-09-21 21:23:47			0	38180	0	0	0	23737	22280	158840	27130	1059040	46456	108754	0	0	8192	551593	0	0
2024-09-21 21:24:47			0	38197	0	0	0	23753	22280	158864	27294	1059103	46478	108760	0	0	8193	550926	0	0
2024-09-21 21:25:47			0	38218	0	0	0	23745	22300	158756	27239	1059201	46491	108757	0	0	8194	550042	0	0
2024-09-21 21:26:47			0	38232	0	0	0	23773	22290	158828	27216	1059192	46490	108768	0	0	8194	549524	0	0
2024-09-21 21:27:47			0	38229	0	0	0	23786	22310	158684	27405	1059272	46492	108773	0	0	8194	549580	0	0
2024-09-21 21:28:47			0	38239	0	0	0	23789	22300	158700	27393	1059334	46491	108774	0	0	8195	549219	0	0
2024-09-21 21:29:47			0	38241	0	0	0	23779	22320	158632	27260	1059423	46493	108770	0	0	8195	549080	0	0
2024-09-21 21:30:47			0	38257	0	0	0	23781	22320	158604	27135	1059423	46493	108771	0	0	8196	548454	0	0
2024-09-21 21:31:47			0	38233	0	0	0	23773	22330	158768	27305	1059362	46483	108768	0	0	8195	549362	0	0
2024-09-21 21:32:47			0	38253	0	0	0	23784	22330	158708	27260	1059362	46494	108772	0	0	8196	548580	0	0
2024-09-21 21:33:47			0	38247	0	0	0	23779	22330	158804	27189	1059415	46471	108770	0	0	8195	548814	0	0
2024-09-21 21:34:47			0	38221	0	0	0	23771	22330	158648	26719	1059442	46483	108767	0	0	8194	549832	0	0
2024-09-21 21:35:47			0	38209	0	0	0	23776	22330	158644	27048	1059424	46472	108769	0	0	8193	550302	0	0
2024-09-21 21:36:47			0	38208	0	0	0	23766	22330	158648	27202	1059415	46460	108765	0	0	8193	550341	0	0
2024-09-21 21:37:47			0	38220	0	0	0	23766	22330	158684	27208	1059442	46471	108765	0	0	8194	549871	0	0
2024-09-21 21:38:47			0	38203	0	0	0	23768	22320	158720	27171	1059459	46460	108766	0	0	8193	550568	0	0
2024-09-21 21:39:47			0	38207	0	0	0	23771	22330	158776	27033	1059415	46471	108767	0	0	8193	550381	0	0
2024-09-21 21:40:47			0	38234	0	0	0	23761	22330	158676	27286	1059415	46460	108763	0	0	8195	549323	0	0
2024-09-21 21:41:47			0	38210	0	0	0	23755	22340	158680	26882	1059468	46473	108761	0	0	8194	550232	0	0
2024-09-21 21:42:47			0	38225	0	0	0	23748	22330	158776	26923	1059442	46471	108758	0	0	8195	549675	0	0
2024-09-21 21:43:47			0	38232	0	0	0	23758	22330	158792	27020	1059371	46472	108762	0	0	8195	549401	0	0
2024-09-21 21:44:47			0	38220	0	0	0	23729	22330	158716	26767	1059371	46483	108751	0	0	8195	549871	0	0
2024-09-21 21:45:47			0	38205	0	0	0	23724	22330	158808	27201	1059317	46472	108749	0	0	8194	550459	0	0
2024-09-21 21:46:47			0	38198	0	0	0	23724	22320	158840	26956	1059326	46450	108749	0	0	8193	550764	0	0
2024-09-21 21:47:47			0	38191	0	0	0	23727	22330	158848	27206	1059335	46483	108750	0	0	8193	551008	0	0
2024-09-21 21:48:47			0	38185	0	0	0	23735	22320	158956	27177	1059263	46459	108753	0	0	8192	551274	0	0
2024-09-21 21:49:47			0	38183	0	0	0	23745	22330	158904	27300	1059344	46472	108757	0	0	8192	551322	0	0
2024-09-21 21:50:47			0	38180	0	0	0	23745	22320	158920	27196	1059352	46471	108757	0	0	8192	551470	0	0
2024-09-21 21:51:47			0	38191	0	0	0	23753	22330	158796	27059	1059335	46471	108760	0	0	8192	551008	0	0
2024-09-21 21:52:47			0	38207	0	0	0	23753	22320	158940	26875	1059379	46471	108760	0	0	8193	550411	0	0
2024-09-21 21:53:47			0	38182	0	0	0	23735	22320	158908	27003	1059290	46470	108753	0	0	8192	551392	0	0
2024-09-21 21:54:47			0	38163	0	0	0	23735	22320	158952	27038	1059290	46470	108753	0	0	8191	552138	0	0
2024-09-21 21:55:47			0	38132	0	0	0	23724	22320	159000	27092	1059317	46470	108749	0	0	8189	553356	0	0
2024-09-21 21:56:47			0	38140	0	0	0	23724	22320	159112	27102	1059299	46471	108749	0	0	8190	553041	0	0
2024-09-21 21:57:47			0	38113	0	0	0	23714	22320	159176	27396	1059272	46471	108745	0	0	8189	554103	0	0
2024-09-21 21:58:47			0	38098	0	0	0	23709	22320	159180	27111	1059290	46449	108743	0	0	8188	554694	0	0
2024-09-21 21:59:47			0	38070	0	0	0	23696	22310	159344	27329	1059228	46458	108738	0	0	8186	555828	0	0
2024-09-21 22:00:47			0	38059	0	0	0	23698	22310	159420	27284	1059245	46448	108739	0	0	8186	556262	0	0
2024-09-21 22:01:47			0	38023	0	0	0	23672	22310	159563	26953	1059148	46458	108729	0	0	8184	557684	0	0
2024-09-21 22:02:47			0	37982	0	0	0	23685	22310	159667	27147	1059139	46458	108734	0	0	8181	559305	0	0
2024-09-21 22:03:47			0	37958	0	0	0	23680	22290	159759	27159	1059138	46446	108732	0	0	8180	560318	0	0
2024-09-21 22:04:47			0	37926	0	0	0	23696	22300	159971	27218	1059147	46468	108738	0	0	8178	561556	0	0
2024-09-21 22:05:47			0	37902	0	0	0	23693	22290	160111	27182	1059165	46467	108737	0	0	8176	562541	0	0
2024-09-21 22:06:47			0	37854	0	0	0	23688	22280	160171	27145	1059174	46466	108735	0	0	8174	564482	0	0
2024-09-21 22:07:47			0	37831	0	0	0	23685	22280	160367	27147	1059094	46477	108734	0	0	8172	565398	0	0
2024-09-21 22:08:47			0	37825	0	0	0	23696	22300	160387	27268	1059201	46447	108738	0	0	8172	565574	0	0
2024-09-21 22:09:47			0	37817	0	0	0	23688	22280	160471	27526	1059147	46466	108735	0	0	8171	565957	0	0
2024-09-21 22:10:47			0	37792	0	0	0	23690	22280	160423	26998	1059156	46457	108736	0	0	8170	566954	0	0
2024-09-21 22:11:47			0	37786	0	0	0	23680	22280	160423	27383	1059094	46456	108732	0	0	8170	567194	0	0
2024-09-21 22:12:47			0	37823	0	0	0	23698	22280	160519	27150	1059067	46477	108739	0	0	8172	565717	0	0
2024-09-21 22:13:47			0	37823	0	0	0	23703	22280	160359	27275	1059147	46466	108741	0	0	8172	565717	0	0
2024-09-21 22:14:47			0	37824	0	0	0	23703	22280	160327	27039	1059121	46477	108741	0	0	8172	565677	0	0
2024-09-21 22:15:47			0	37817	0	0	0	23701	22280	160399	27402	1059067	46466	108740	0	0	8171	565957	0	0
2024-09-21 22:16:47			0	37805	0	0	0	23688	22280	160415	27055	1059121	46456	108735	0	0	8171	566435	0	0
2024-09-21 22:17:47			0	37818	0	0	0	23698	22280	160339	27369	1059094	46466	108739	0	0	8171	565917	0	0
2024-09-21 22:18:47			0	37799	0	0	0	23688	22280	160419	27263	1059067	46466	108735	0	0	8170	566675	0	0
2024-09-21 22:19:47			0	37800	0	0	0	23685	22280	160371	27339	1059121	46466	108734	0	0	8171	566635	0	0
2024-09-21 22:20:47			0	37803	0	0	0	23696	22280	160359	27218	1059067	46477	108738	0	0	8170	566515	0	0
2024-09-21 22:21:47			0	37831	0	0	0	23703	22270	160447	27071	1059085	46456	108741	0	0	8172	565430	0	0
2024-09-21 22:22:47			0	37807	0	0	0	23698	22270	160411	26918	1059112	46477	108739	0	0	8171	566387	0	0
2024-09-21 22:23:47			0	37797	0	0	0	23683	22270	160559	26987	1059049	46465	108733	0	0	8170	566786	0	0
2024-09-21 22:24:47			0	37781	0	0	0	23683	22260	160531	27000	1059094	46444	108733	0	0	8169	567457	0	0
2024-09-21 22:25:47			0	37777	0	0	0	23672	22270	160591	27326	1059085	46456	108729	0	0	8169	567585	0	0
2024-09-21 22:26:47			0	37759	0	0	0	23683	22270	160623	27149	1059076	46455	108733	0	0	8168	568305	0	0
2024-09-21 22:27:47			0	37778	0	0	0	23672	22260	160639	27119	1059005	46454	108729	0	0	8169	567577	0	0
2024-09-21 22:28:47			0	37756	0	0	0	23670	22270	160611	27497	1059085	46456	108728	0	0	8168	568425	0	0
2024-09-21 22:29:47			0	37749	0	0	0	23664	22270	160715	27081	1059032	46433	108726	0	0	8168	568705	0	0
2024-09-21 22:30:47			0	37754	0	0	0	23664	22260	160643	27351	1059014	46444	108726	0	0	8168	568537	0	0
2024-09-21 22:31:47			0	37761	0	0	0	23664	22260	160667	27403	1058978	46454	108726	0	0	8168	568257	0	0
2024-09-21 22:32:47			0	37757	0	0	0	23670	22270	160739	27438	1059049	46476	108728	0	0	8168	568385	0	0
2024-09-21 22:33:47			0	37751	0	0	0	23683	22250	160691	27102	1058996	46454	108733	0	0	8168	568689	0	0
2024-09-21 22:34:47			0	37774	0	0	0	23675	22250	160711	27440	1059076	46464	108730	0	0	8169	567769	0	0
2024-09-21 22:35:47			0	37765	0	0	0	23670	22260	160631	27267	1059067	46465	108728	0	0	8169	568097	0	0
2024-09-21 22:36:47			0	37758	0	0	0	23657	22250	160647	27159	1058996	46454	108723	0	0	8168	568409	0	0
2024-09-21 22:37:47			0	37783	0	0	0	23670	22250	160595	27064	1059040	46463	108728	0	0	8170	567409	0	0
2024-09-21 22:38:47			0	37796	0	0	0	23677	22250	160419	27275	1058996	46464	108731	0	0	8170	566890	0	0
2024-09-21 22:39:47			0	37838	0	0	0	23688	22260	160419	26960	1059031	46454	108735	0	0	8173	565182	0	0
2024-09-21 22:40:47			0	37885	0	0	0	23696	22250	160239	27320	1059049	46454	108738	0	0	8175	563343	0	0
2024-09-21 22:41:47			0	37880	0	0	0	23693	22260	160139	27000	1059085	46454	108737	0	0	8175	563510	0	0
2024-09-21 22:42:47			0	37884	0	0	0	23677	22260	160071	26831	1059031	46464	108731	0	0	8175	563351	0	0
2024-09-21 22:43:47			0	37927	0	0	0	23670	22260	159987	27352	1058978	46464	108728	0	0	8178	561642	0	0
2024-09-21 22:44:47			0	37943	0	0	0	23670	22260	159947	27452	1059005	46475	108728	0	0	8179	561007	0	0
2024-09-21 22:45:47			0	37986	0	0	0	23670	22260	159763	27060	1059005	46454	108728	0	0	8182	559303	0	0
2024-09-21 22:46:47			0	38004	0	0	0	23657	22260	159667	27627	1058978	46464	108723	0	0	8183	558591	0	0
2024-09-21 22:47:47			0	38022	0	0	0	23662	22250	159611	27298	1059049	46431	108725	0	0	8184	557910	0	0
2024-09-21 22:48:47			0	38028	0	0	0	23657	22260	159595	27189	1058951	46464	108723	0	0	8184	557642	0	0
2024-09-21 22:49:47			0	38033	0	0	0	23651	22250	159628	27067	1059022	46443	108721	0	0	8185	557475	0	0
2024-09-21 22:50:47			0	38046	0	0	0	23649	22250	159428	27308	1058916	46454	108720	0	0	8185	556962	0	0
2024-09-21 22:51:47			0	38044	0	0	0	23646	22250	159480	27445	1059022	46464	108719	0	0	8185	557041	0	0
2024-09-21 22:52:47			0	38046	0	0	0	23641	22240	159512	27350	1059005	46441	108717	0	0	8185	556993	0	0
2024-09-21 22:53:47			0	38009	0	0	0	23633	22240	159591	27246	1058898	46452	108714	0	0	8183	558455	0	0
2024-09-21 22:54:47			0	37971	0	0	0	23631	22250	159783	27144	1058933	46463	108713	0	0	8181	559928	0	0
2024-09-21 22:55:47			0	37964	0	0	0	23633	22240	159863	27334	1058862	46452	108714	0	0	8181	560237	0	0
2024-09-21 22:56:47			0	37952	0	0	0	23633	22240	159851	27249	1058969	46452	108714	0	0	8180	560713	0	0
2024-09-21 22:57:47			0	37945	0	0	0	23641	22230	160019	26904	1058933	46452	108717	0	0	8180	561022	0	0
2024-09-21 22:58:47			0	37913	0	0	0	23633	22230	160003	27092	1058826	46462	108714	0	0	8178	562292	0	0
2024-09-21 22:59:47			0	37883	0	0	0	23631	22240	160091	27246	1058871	46452	108713	0	0	8176	563454	0	0
2024-09-21 23:00:47			0	37907	0	0	0	23633	22240	160071	27071	1058889	46462	108714	0	0	8177	562499	0	0
2024-09-21 23:01:47			0	37922	0	0	0	23636	22230	159971	27414	1058871	46461	108715	0	0	8178	561935	0	0
2024-09-21 23:02:47			0	37958	0	0	0	23628	22220	159831	27360	1058835	46460	108712	0	0	8180	560537	0	0
2024-09-21 23:03:47			0	37983	0	0	0	23615	22230	159763	27190	1058853	46452	108707	0	0	8182	559515	0	0
2024-09-21 23:04:47			0	38005	0	0	0	23620	22230	159603	26838	1058853	46462	108709	0	0	8183	558645	0	0
2024-09-21 23:05:47			0	38036	0	0	0	23618	22220	159592	27008	1058889	46460	108708	0	0	8185	557450	0	0
2024-09-21 23:06:47			0	38035	0	0	0	23623	22210	159592	27196	1058817	46450	108710	0	0	8185	557521	0	0
2024-09-21 23:07:47			0	38058	0	0	0	23623	22220	159608	26873	1058826	46439	108710	0	0	8186	556581	0	0
2024-09-21 23:08:47			0	38049	0	0	0	23620	22230	159552	27196	1058764	46451	108709	0	0	8186	556905	0	0
2024-09-21 23:09:47			0	38044	0	0	0	23620	22220	159428	27246	1058835	46450	108709	0	0	8186	557134	0	0
2024-09-21 23:10:47			0	38058	0	0	0	23620	22220	159464	27393	1058800	46460	108709	0	0	8186	556581	0	0
2024-09-21 23:11:47			0	38064	0	0	0	23620	22210	159476	27012	1058817	46460	108709	0	0	8187	556375	0	0
2024-09-21 23:12:47			0	38074	0	0	0	23612	22220	159452	27166	1058755	46450	108706	0	0	8188	555950	0	0
2024-09-21 23:13:47			0	38068	0	0	0	23610	22210	159476	26948	1058737	46450	108705	0	0	8187	556217	0	0
2024-09-21 23:14:47			0	38071	0	0	0	23607	22200	159488	27275	1058666	46458	108704	0	0	8187	556130	0	0
2024-09-21 23:15:47			0	38086	0	0	0	23612	22210	159372	27255	1058782	46449	108706	0	0	8188	555508	0	0
2024-09-21 23:16:47			0	38063	0	0	0	23612	22210	159556	27183	1058791	46460	108706	0	0	8187	556415	0	0
2024-09-21 23:17:47			0	38065	0	0	0	23602	22200	159500	26982	1058800	46448	108702	0	0	8187	556367	0	0
2024-09-21 23:18:47			0	38056	0	0	0	23607	22210	159544	26863	1058782	46449	108704	0	0	8187	556691	0	0
2024-09-21 23:19:47			0	38053	0	0	0	23599	22210	159492	27403	1058782	46449	108701	0	0	8186	556810	0	0
2024-09-21 23:20:47			0	38057	0	0	0	23605	22190	159564	27109	1058781	46448	108703	0	0	8187	556714	0	0
2024-09-21 23:21:47			0	38071	0	0	0	23607	22200	159520	27301	1058790	46448	108704	0	0	8187	556130	0	0
2024-09-21 23:22:47			0	38050	0	0	0	23605	22210	159504	27284	1058728	46449	108703	0	0	8186	556928	0	0
2024-09-21 23:23:47			0	38075	0	0	0	23597	22190	159640	27107	1058648	46458	108700	0	0	8188	556003	0	0
2024-09-21 23:24:47			0	38039	0	0	0	23597	22190	159628	27197	1058701	46425	108700	0	0	8186	557425	0	0
2024-09-21 23:25:47			0	38009	0	0	0	23594	22190	159727	27154	1058728	46469	108699	0	0	8184	558611	0	0
2024-09-21 23:26:47			0	38003	0	0	0	23586	22200	159895	27157	1058657	46448	108696	0	0	8184	558817	0	0
2024-09-21 23:27:47			0	37978	0	0	0	23594	22200	159819	27248	1058666	46437	108699	0	0	8182	559807	0	0
2024-09-21 23:28:47			0	37979	0	0	0	23599	22190	159899	27072	1058612	46447	108701	0	0	8182	559799	0	0
2024-09-21 23:29:47			0	37985	0	0	0	23594	22190	159919	26873	1058675	46448	108699	0	0	8182	559561	0	0
2024-09-21 23:30:47			0	37994	0	0	0	23592	22180	159867	27255	1058621	46434	108698	0	0	8183	559236	0	0
2024-09-21 23:31:47			0	37987	0	0	0	23592	22190	159823	27390	1058701	46458	108698	0	0	8183	559482	0	0
2024-09-21 23:32:47			0	38006	0	0	0	23594	22190	159843	27156	1058639	46458	108699	0	0	8184	558730	0	0
2024-09-21 23:33:47			0	37986	0	0	0	23586	22200	159791	26781	1058683	46448	108696	0	0	8183	559490	0	0
2024-09-21 23:34:47			0	37978	0	0	0	23589	22170	159871	27261	1058665	46456	108697	0	0	8182	559901	0	0
2024-09-21 23:35:47			0	37977	0	0	0	23584	22190	159819	27137	1058612	46458	108695	0	0	8182	559878	0	0
2024-09-21 23:36:47			0	37990	0	0	0	23579	22180	159715	27376	1058710	46457	108693	0	0	8183	559394	0	0
2024-09-21 23:37:47			0	38000	0	0	0	23584	22190	159823	27388	1058612	46447	108695	0	0	8184	558967	0	0
2024-09-21 23:38:47			0	37983	0	0	0	23592	22180	159851	27105	1058710	46446	108698	0	0	8182	559672	0	0
2024-09-21 23:39:47			0	37981	0	0	0	23576	22180	159915	27092	1058568	46456	108692	0	0	8183	559751	0	0
2024-09-21 23:40:47			0	37958	0	0	0	23581	22160	160011	27161	1058568	46433	108694	0	0	8181	560725	0	0
2024-09-21 23:41:47			0	37954	0	0	0	23581	22170	159991	27353	1058585	46456	108694	0	0	8181	560853	0	0
2024-09-21 23:42:47			0	37962	0	0	0	23581	22160	160039	27267	1058621	46455	108694	0	0	8181	560567	0	0
2024-09-21 23:43:47			0	37962	0	0	0	23579	22170	160047	27244	1058550	46434	108693	0	0	8181	560535	0	0
2024-09-21 23:44:47			0	37944	0	0	0	23576	22170	160127	27171	1058505	46445	108692	0	0	8180	561249	0	0
2024-09-21 23:45:47			0	37925	0	0	0	23574	22160	160043	27386	1058594	46444	108691	0	0	8179	562035	0	0
2024-09-21 23:46:47			0	37942	0	0	0	23563	22170	160063	27043	1058523	46445	108687	0	0	8180	561329	0	0
2024-09-21 23:47:47			0	37951	0	0	0	23563	22170	160043	27239	1058550	46434	108687	0	0	8181	560972	0	0
2024-09-21 23:48:47			0	37940	0	0	0	23574	22150	159975	27275	1058550	46443	108691	0	0	8180	561471	0	0
2024-09-21 23:49:47			0	37957	0	0	0	23571	22170	160039	27305	1058523	46434	108690	0	0	8181	560734	0	0
2024-09-21 23:50:47			0	37935	0	0	0	23566	22160	160019	27227	1058514	46444	108688	0	0	8180	561638	0	0
2024-09-21 23:51:47			0	37922	0	0	0	23571	22150	160055	27239	1058567	46443	108690	0	0	8179	562186	0	0
2024-09-21 23:52:47			0	37908	0	0	0	23561	22150	160199	27059	1058496	46443	108686	0	0	8178	562742	0	0
2024-09-21 23:53:47			0	37923	0	0	0	23561	22150	160119	27370	1058487	46431	108686	0	0	8179	562146	0	0
2024-09-21 23:54:47			0	37909	0	0	0	23558	22150	160139	27277	1058487	46431	108685	0	0	8178	562702	0	0
2024-09-21 23:55:47			0	37908	0	0	0	23561	22160	160211	27313	1058559	46454	108686	0	0	8178	562711	0	0
2024-09-21 23:56:47			0	37909	0	0	0	23558	22150	160215	27402	1058416	46454	108685	0	0	8178	562702	0	0
2024-09-21 23:57:47			0	37913	0	0	0	23550	22140	160175	27248	1058425	46453	108682	0	0	8179	562575	0	0
2024-09-21 23:58:47			0	37915	0	0	0	23558	22150	160119	27218	1058434	46443	108685	0	0	8179	562464	0	0
2024-09-21 23:59:47			0	37882	0	0	0	23550	22140	160223	27199	1058398	46430	108682	0	0	8177	563808	0	0
2024-09-22 00:00:47			0	37905	0	0	0	23555	22140	160319	27102	1058416	46441	108684	0	0	8178	562893	0	0
2024-09-22 00:01:47			0	37904	0	0	0	23553	22140	160251	27360	1058425	46430	108683	0	0	8178	562933	0	0
2024-09-22 00:02:47			0	37877	0	0	0	23548	22140	160247	27095	1058425	46430	108681	0	0	8177	564007	0	0
2024-09-22 00:03:47			0	37901	0	0	0	23545	22140	160211	27438	1058372	46453	108680	0	0	8178	563052	0	0
2024-09-22 00:04:47			0	37892	0	0	0	23545	22140	160123	26838	1058416	46452	108680	0	0	8178	563410	0	0
2024-09-22 00:05:47			0	37884	0	0	0	23537	22140	160231	26892	1058416	46429	108677	0	0	8177	563728	0	0
2024-09-22 00:06:47			0	37885	0	0	0	23545	22140	160231	27251	1058478	46442	108680	0	0	8177	563689	0	0
2024-09-22 00:07:47			0	37882	0	0	0	23537	22130	160323	27116	1058434	46441	108677	0	0	8177	563839	0	0
2024-09-22 00:08:47			0	37867	0	0	0	23537	22140	160399	27189	1058389	46452	108677	0	0	8176	564405	0	0
2024-09-22 00:09:47			0	37869	0	0	0	23540	22130	160363	27305	1058398	46441	108678	0	0	8176	564357	0	0
2024-09-22 00:10:47			0	37880	0	0	0	23535	22130	160267	26937	1058345	46429	108676	0	0	8177	563919	0	0
2024-09-22 00:11:47			0	37895	0	0	0	23542	22130	160327	26897	1058407	46441	108679	0	0	8178	563322	0	0
2024-09-22 00:12:47			0	37899	0	0	0	23545	22120	160207	27483	1058309	46429	108680	0	0	8178	563194	0	0
2024-09-22 00:13:47			0	37907	0	0	0	23529	22130	160195	27211	1058345	46452	108674	0	0	8179	562845	0	0
2024-09-22 00:14:47			0	37921	0	0	0	23529	22120	160067	27015	1058336	46451	108674	0	0	8180	562320	0	0
2024-09-22 00:15:47			0	37944	0	0	0	23540	22130	160159	27248	1058318	46441	108678	0	0	8181	561375	0	0
2024-09-22 00:16:47			0	37939	0	0	0	23535	22120	160119	27341	1058274	46450	108676	0	0	8180	561605	0	0
2024-09-22 00:17:47			0	37929	0	0	0	23527	22120	160103	27268	1058363	46440	108673	0	0	8180	562002	0	0
2024-09-22 00:18:47			0	37949	0	0	0	23522	22120	160087	27050	1058336	46451	108671	0	0	8181	561208	0	0
2024-09-22 00:19:47			0	37943	0	0	0	23524	22130	160047	27086	1058345	46441	108672	0	0	8181	561414	0	0
2024-09-22 00:20:47			0	37947	0	0	0	23519	22120	160023	26963	1058327	46450	108670	0	0	8181	561287	0	0
2024-09-22 00:21:47			0	37924	0	0	0	23524	22120	160175	27227	1058309	46451	108672	0	0	8180	562200	0	0
2024-09-22 00:22:47			0	37912	0	0	0	23527	22120	160231	26922	1058336	46440	108673	0	0	8179	562677	0	0
2024-09-22 00:23:47			0	37898	0	0	0	23524	22110	160071	27300	1058265	46438	108672	0	0	8178	563266	0	0
2024-09-22 00:24:47			0	37921	0	0	0	23519	22120	160235	27083	1058300	46439	108670	0	0	8180	562320	0	0
2024-09-22 00:25:47			0	37922	0	0	0	23522	22120	160127	27048	1058300	46450	108671	0	0	8180	562280	0	0
2024-09-22 00:26:47			0	37917	0	0	0	23516	22110	160087	27013	1058318	46449	108669	0	0	8179	562510	0	0
2024-09-22 00:27:47			0	37926	0	0	0	23516	22110	160139	26880	1058256	46449	108669	0	0	8180	562152	0	0
2024-09-22 00:28:47			0	37927	0	0	0	23516	22120	160075	27005	1058300	46439	108669	0	0	8180	562081	0	0
2024-09-22 00:29:47			0	37936	0	0	0	23519	22100	160091	26961	1058327	46449	108670	0	0	8180	561786	0	0
2024-09-22 00:30:47			0	37930	0	0	0	23509	22110	160019	26909	1058256	46426	108666	0	0	8180	561993	0	0
2024-09-22 00:31:47			0	37929	0	0	0	23519	22120	160259	27111	1058274	46428	108670	0	0	8180	562002	0	0
2024-09-22 00:32:47			0	37932	0	0	0	23519	22110	160207	26953	1058265	46449	108670	0	0	8180	561914	0	0
2024-09-22 00:33:47			0	37935	0	0	0	23511	22100	160207	27116	1058264	46458	108667	0	0	8181	561826	0	0
2024-09-22 00:34:47			0	37927	0	0	0	23509	22090	160199	27232	1058229	46447	108666	0	0	8180	562175	0	0
2024-09-22 00:35:47			0	37947	0	0	0	23511	22110	160195	26861	1058229	46426	108667	0	0	8181	561318	0	0
2024-09-22 00:36:47			0	37946	0	0	0	23511	22110	160203	26859	1058229	46438	108667	0	0	8181	561358	0	0
2024-09-22 00:37:47			0	37936	0	0	0	23516	22100	160247	26868	1058184	46448	108669	0	0	8181	561786	0	0
2024-09-22 00:38:47			0	37929	0	0	0	23506	22110	160187	27196	1058256	46449	108665	0	0	8180	562033	0	0
2024-09-22 00:39:47			0	37922	0	0	0	23516	22100	160143	26904	1058273	46449	108669	0	0	8180	562343	0	0
2024-09-22 00:40:47			0	37911	0	0	0	23522	22100	160211	26916	1058264	46448	108671	0	0	8179	562780	0	0
2024-09-22 00:41:47			0	37931	0	0	0	23511	22090	160303	26816	1058282	46458	108667	0	0	8180	562016	0	0
2024-09-22 00:42:47			0	37909	0	0	0	23516	22100	160291	27338	1058238	46437	108669	0	0	8179	562859	0	0
2024-09-22 00:43:47			0	37931	0	0	0	23522	22100	160219	27161	1058264	46437	108671	0	0	8180	561985	0	0
2024-09-22 00:44:47			0	37916	0	0	0	23516	22100	160343	27067	1058247	46449	108669	0	0	8179	562581	0	0
2024-09-22 00:45:47			0	37929	0	0	0	23519	22090	160271	27147	1058229	46447	108670	0	0	8180	562096	0	0
2024-09-22 00:46:47			0	37915	0	0	0	23514	22100	160231	26982	1058264	46448	108668	0	0	8179	562621	0	0
2024-09-22 00:47:47			0	37940	0	0	0	23509	22110	160315	27083	1058282	46438	108666	0	0	8181	561596	0	0
2024-09-22 00:48:47			0	37933	0	0	0	23501	22090	160235	27039	1058255	46436	108663	0	0	8181	561937	0	0
2024-09-22 00:49:47			0	37915	0	0	0	23490	22090	160283	27317	1058202	46447	108659	0	0	8180	562652	0	0
2024-09-22 00:50:47			0	37917	0	0	0	23496	22090	160319	27034	1058220	46447	108661	0	0	8180	562573	0	0
2024-09-22 00:51:47			0	37938	0	0	0	23496	22110	160223	26826	1058282	46438	108661	0	0	8181	561676	0	0
2024-09-22 00:52:47			0	37901	0	0	0	23498	22090	160287	26849	1058255	46424	108662	0	0	8179	563209	0	0
2024-09-22 00:53:47			0	37901	0	0	0	23501	22080	160231	26852	1058202	46435	108663	0	0	8179	563240	0	0
2024-09-22 00:54:47			0	37913	0	0	0	23496	22090	160351	27187	1058193	46436	108661	0	0	8179	562732	0	0
2024-09-22 00:55:47			0	37913	0	0	0	23488	22090	160271	27202	1058220	46447	108658	0	0	8180	562732	0	0
2024-09-22 00:56:47			0	37928	0	0	0	23496	22080	160435	26949	1058184	46436	108661	0	0	8180	562167	0	0
2024-09-22 00:57:47			0	37917	0	0	0	23490	22080	160311	27111	1058175	46423	108659	0	0	8180	562604	0	0
2024-09-22 00:58:47			0	37922	0	0	0	23480	22080	160271	27159	1058184	46436	108655	0	0	8180	562405	0	0
2024-09-22 00:59:47			0	37923	0	0	0	23485	22080	160299	27189	1058149	46423	108657	0	0	8180	562366	0	0
2024-09-22 01:00:47			0	37935	0	0	0	23477	22070	160335	27248	1058113	46434	108654	0	0	8181	561920	0	0
2024-09-22 01:01:47			0	37910	0	0	0	23490	22090	160323	27201	1058167	46436	108659	0	0	8179	562851	0	0
2024-09-22 01:02:47			0	37900	0	0	0	23485	22080	160343	27166	1058069	46435	108657	0	0	8179	563280	0	0
2024-09-22 01:03:47			0	37927	0	0	0	23488	22070	160383	27142	1058113	46422	108658	0	0	8180	562238	0	0
2024-09-22 01:04:47			0	37904	0	0	0	23483	22070	160311	26977	1058130	46434	108656	0	0	8179	563153	0	0
2024-09-22 01:05:47			0	37922	0	0	0	23483	22060	160311	26986	1058121	46434	108656	0	0	8180	562468	0	0
2024-09-22 01:06:47			0	37911	0	0	0	23483	22070	160263	27265	1058166	46445	108656	0	0	8179	562874	0	0
2024-09-22 01:07:47			0	37911	0	0	0	23477	22070	160311	27329	1058130	46434	108654	0	0	8180	562874	0	0
2024-09-22 01:08:47			0	37909	0	0	0	23475	22070	160339	27419	1058193	46434	108653	0	0	8179	562954	0	0
2024-09-22 01:09:47			0	37911	0	0	0	23483	22070	160355	27180	1058113	46445	108656	0	0	8179	562874	0	0
2024-09-22 01:10:47			0	37909	0	0	0	23480	22070	160351	27138	1058086	46456	108655	0	0	8179	562954	0	0
2024-09-22 01:11:47			0	37905	0	0	0	23485	22060	160399	27123	1058121	46445	108657	0	0	8179	563144	0	0
2024-09-22 01:12:47			0	37908	0	0	0	23477	22060	160355	27000	1058095	46434	108654	0	0	8179	563025	0	0
2024-09-22 01:13:47			0	37898	0	0	0	23485	22070	160359	27112	1058130	46434	108657	0	0	8179	563391	0	0
2024-09-22 01:14:47			0	37912	0	0	0	23501	22070	160347	26977	1058104	46445	108663	0	0	8179	562834	0	0
2024-09-22 01:15:47			0	37914	0	0	0	23498	22070	160431	26944	1058184	46434	108662	0	0	8179	562755	0	0
2024-09-22 01:16:47			0	37907	0	0	0	23503	22070	160343	27062	1058246	46445	108664	0	0	8179	563033	0	0
2024-09-22 01:17:47			0	37925	0	0	0	23490	22070	160259	27027	1058139	46445	108659	0	0	8180	562317	0	0
2024-09-22 01:18:47			0	37909	0	0	0	23485	22060	160239	26783	1058121	46434	108657	0	0	8179	562985	0	0
2024-09-22 01:19:47			0	37919	0	0	0	23485	22060	160267	26845	1058086	46433	108657	0	0	8180	562587	0	0
2024-09-22 01:20:47			0	37921	0	0	0	23493	22070	160291	26923	1058130	46434	108660	0	0	8180	562476	0	0
2024-09-22 01:21:47			0	37906	0	0	0	23493	22070	160207	27319	1058193	46456	108660	0	0	8179	563073	0	0
2024-09-22 01:22:47			0	37909	0	0	0	23488	22070	160259	27067	1058077	46456	108658	0	0	8179	562954	0	0
2024-09-22 01:23:47			0	37913	0	0	0	23490	22070	160331	27168	1058077	46434	108659	0	0	8179	562795	0	0
2024-09-22 01:24:47			0	37921	0	0	0	23493	22070	160243	26861	1058113	46434	108660	0	0	8180	562476	0	0
2024-09-22 01:25:47			0	37922	0	0	0	23488	22070	160315	27135	1058130	46434	108658	0	0	8180	562437	0	0
2024-09-22 01:26:47			0	37905	0	0	0	23485	22070	160391	27086	1058113	46434	108657	0	0	8179	563113	0	0
2024-09-22 01:27:47			0	37890	0	0	0	23483	22070	160255	27071	1058077	46434	108656	0	0	8178	563710	0	0
2024-09-22 01:28:47			0	37896	0	0	0	23483	22060	160263	27202	1058112	46421	108656	0	0	8179	563502	0	0
2024-09-22 01:29:47			0	37896	0	0	0	23485	22060	160263	27319	1058095	46434	108657	0	0	8179	563502	0	0
2024-09-22 01:30:47			0	37886	0	0	0	23475	22060	160311	26944	1058095	46434	108653	0	0	8178	563900	0	0
2024-09-22 01:31:47			0	37891	0	0	0	23483	22060	160447	27123	1058032	46411	108656	0	0	8178	563701	0	0
2024-09-22 01:32:47			0	37881	0	0	0	23477	22070	160327	27116	1058077	46434	108654	0	0	8178	564068	0	0
2024-09-22 01:33:47			0	37887	0	0	0	23477	22060	160439	27256	1058068	46422	108654	0	0	8178	563860	0	0
2024-09-22 01:34:47			0	37879	0	0	0	23464	22060	160483	27060	1058095	46434	108649	0	0	8178	564179	0	0
2024-09-22 01:35:47			0	37867	0	0	0	23470	22060	160411	27218	1058059	46421	108651	0	0	8177	564657	0	0
2024-09-22 01:36:47			0	37854	0	0	0	23467	22070	160495	27261	1058077	46434	108650	0	0	8176	565144	0	0
2024-09-22 01:37:47			0	37858	0	0	0	23457	22060	160439	27149	1058015	46434	108646	0	0	8177	565016	0	0
2024-09-22 01:38:47			0	37853	0	0	0	23464	22060	160483	26915	1058095	46422	108649	0	0	8176	565215	0	0
2024-09-22 01:39:47			0	37852	0	0	0	23467	22070	160567	27152	1058050	46445	108650	0	0	8176	565223	0	0
2024-09-22 01:40:47			0	37835	0	0	0	23467	22060	160539	27126	1058068	46445	108650	0	0	8175	565933	0	0
2024-09-22 01:41:47			0	37844	0	0	0	23472	22050	160575	27287	1058050	46432	108652	0	0	8176	565606	0	0
2024-09-22 01:42:47			0	37834	0	0	0	23480	22050	160615	26890	1058023	46420	108655	0	0	8175	566005	0	0
2024-09-22 01:43:47			0	37824	0	0	0	23475	22050	160643	27149	1058023	46454	108653	0	0	8174	566404	0	0
2024-09-22 01:44:47			0	37833	0	0	0	23480	22060	160671	27263	1058059	46444	108655	0	0	8175	566013	0	0
2024-09-22 01:45:47			0	37855	0	0	0	23472	22060	160515	26935	1058059	46421	108652	0	0	8176	565135	0	0
2024-09-22 01:46:47			0	37849	0	0	0	23480	22060	160579	27036	1058068	46445	108655	0	0	8176	565375	0	0
2024-09-22 01:47:47			0	37856	0	0	0	23464	22070	160475	27395	1058113	46434	108649	0	0	8177	565064	0	0
2024-09-22 01:48:47			0	37845	0	0	0	23467	22060	160523	27147	1058086	46433	108650	0	0	8176	565534	0	0
2024-09-22 01:49:47			0	37849	0	0	0	23462	22060	160535	27360	1058006	46433	108648	0	0	8176	565375	0	0
2024-09-22 01:50:47			0	37857	0	0	0	23467	22050	160515	27164	1057997	46432	108650	0	0	8176	565087	0	0
2024-09-22 01:51:47			0	37848	0	0	0	23464	22060	160571	27332	1058006	46433	108649	0	0	8176	565415	0	0
2024-09-22 01:52:47			0	37846	0	0	0	23457	22050	160655	26920	1058041	46442	108646	0	0	8176	565526	0	0
2024-09-22 01:53:47			0	37838	0	0	0	23462	22050	160631	27111	1057988	46431	108648	0	0	8175	565845	0	0
2024-09-22 01:54:47			0	37814	0	0	0	23462	22050	160627	27121	1057961	46431	108648	0	0	8174	566803	0	0
2024-09-22 01:55:47			0	37828	0	0	0	23451	22060	160643	27234	1058006	46433	108644	0	0	8175	566213	0	0
2024-09-22 01:56:47			0	37850	0	0	0	23459	22050	160579	27145	1058014	46419	108647	0	0	8176	565366	0	0
2024-09-22 01:57:47			0	37852	0	0	0	23459	22040	160591	27126	1057952	46431	108647	0	0	8176	565318	0	0
2024-09-22 01:58:47			0	37872	0	0	0	23454	22030	160567	26870	1058014	46430	108645	0	0	8177	564552	0	0
2024-09-22 01:59:47			0	37865	0	0	0	23462	22040	160515	26913	1058032	46442	108648	0	0	8177	564800	0	0
2024-09-22 02:00:47			0	37847	0	0	0	23457	22040	160495	27177	1058005	46431	108646	0	0	8176	565518	0	0
2024-09-22 02:01:47			0	37879	0	0	0	23472	22040	160551	27274	1058059	46442	108652	0	0	8178	564242	0	0
2024-09-22 02:02:47			0	37888	0	0	0	23467	22040	160431	27334	1058032	46442	108650	0	0	8178	563884	0	0
2024-09-22 02:03:47			0	37884	0	0	0	23459	22040	160427	27248	1057970	46442	108647	0	0	8178	564043	0	0
2024-09-22 02:04:47			0	37886	0	0	0	23446	22050	160351	27384	1058041	46431	108642	0	0	8179	563932	0	0
2024-09-22 02:05:47			0	37893	0	0	0	23462	22050	160267	27039	1057988	46442	108648	0	0	8179	563653	0	0
2024-09-22 02:06:47			0	37891	0	0	0	23464	22040	160423	27209	1058023	46442	108649	0	0	8178	563764	0	0
2024-09-22 02:07:47			0	37907	0	0	0	23451	22040	160303	27260	1057952	46419	108644	0	0	8180	563127	0	0
2024-09-22 02:08:47			0	37920	0	0	0	23462	22030	160339	26915	1057961	46430	108648	0	0	8180	562642	0	0
2024-09-22 02:09:47			0	37916	0	0	0	23454	22040	160247	27107	1057979	46431	108645	0	0	8180	562769	0	0
2024-09-22 02:10:47			0	37927	0	0	0	23457	22030	160259	27118	1058014	46418	108646	0	0	8181	562363	0	0
2024-09-22 02:11:47			0	37938	0	0	0	23454	22040	160219	27180	1058032	46419	108645	0	0	8181	561895	0	0
2024-09-22 02:12:47			0	37945	0	0	0	23446	22050	160155	27050	1057988	46431	108642	0	0	8182	561586	0	0
2024-09-22 02:13:47			0	37946	0	0	0	23449	22040	160199	27372	1057996	46442	108643	0	0	8182	561577	0	0
2024-09-22 02:14:47			0	37935	0	0	0	23457	22050	160095	27178	1058014	46431	108646	0	0	8181	561983	0	0
2024-09-22 02:15:47			0	37969	0	0	0	23454	22040	160091	26816	1057943	46419	108645	0	0	8183	560664	0	0
2024-09-22 02:16:47			0	37956	0	0	0	23457	22040	160099	27319	1058005	46431	108646	0	0	8182	561180	0	0
2024-09-22 02:17:47			0	37940	0	0	0	23462	22030	160203	26908	1057934	46441	108648	0	0	8181	561847	0	0
2024-09-22 02:18:47			0	37938	0	0	0	23449	22040	160183	27300	1057943	46442	108643	0	0	8181	561895	0	0
2024-09-22 02:19:47			0	37925	0	0	0	23451	22030	160279	27164	1057961	46441	108644	0	0	8181	562443	0	0
2024-09-22 02:20:47			0	37927	0	0	0	23454	22040	160235	27223	1058005	46431	108645	0	0	8181	562332	0	0
2024-09-22 02:21:47			0	37921	0	0	0	23446	22040	160223	27255	1057943	46442	108642	0	0	8181	562571	0	0
2024-09-22 02:22:47			0	37924	0	0	0	23433	22040	160327	27229	1057925	46431	108637	0	0	8181	562451	0	0
2024-09-22 02:23:47			0	37891	0	0	0	23433	22040	160403	27112	1057916	46442	108637	0	0	8179	563764	0	0
2024-09-22 02:24:47			0	37890	0	0	0	23438	22030	160399	27416	1057907	46430	108639	0	0	8179	563835	0	0
2024-09-22 02:25:47			0	37879	0	0	0	23436	22030	160427	26937	1057961	46441	108638	0	0	8178	564273	0	0
2024-09-22 02:26:47			0	37879	0	0	0	23433	22030	160427	26956	1058014	46430	108637	0	0	8178	564273	0	0
2024-09-22 02:27:47			0	37868	0	0	0	23423	22030	160499	27095	1057925	46429	108633	0	0	8178	564712	0	0
2024-09-22 02:28:47			0	37869	0	0	0	23433	22040	160543	27419	1057890	46431	108637	0	0	8178	564640	0	0
2024-09-22 02:29:47			0	37858	0	0	0	23425	22030	160591	27312	1057925	46429	108634	0	0	8177	565110	0	0
2024-09-22 02:30:47			0	37855	0	0	0	23423	22020	160659	27286	1057881	46429	108633	0	0	8177	565262	0	0
2024-09-22 02:31:47			0	37835	0	0	0	23420	22030	160703	27163	1057934	46430	108632	0	0	8176	566028	0	0
2024-09-22 02:32:47			0	37839	0	0	0	23418	22020	160735	27175	1057890	46429	108631	0	0	8176	565900	0	0
2024-09-22 02:33:47			0	37806	0	0	0	23418	22020	160875	27376	1057907	46417	108631	0	0	8174	567218	0	0
2024-09-22 02:34:47			0	37805	0	0	0	23412	22020	160763	27270	1057961	46429	108629	0	0	8174	567258	0	0
2024-09-22 02:35:47			0	37793	0	0	0	23407	22020	160771	27345	1057881	46429	108627	0	0	8174	567738	0	0
2024-09-22 02:36:47			0	37818	0	0	0	23415	22010	160687	27358	1057872	46416	108630	0	0	8175	566770	0	0
2024-09-22 02:37:47			0	37831	0	0	0	23407	22020	160723	27303	1057863	46429	108627	0	0	8176	566219	0	0
2024-09-22 02:38:47			0	37823	0	0	0	23402	22010	160679	27282	1057863	46416	108625	0	0	8175	566570	0	0
2024-09-22 02:39:47			0	37821	0	0	0	23394	22010	160635	27083	1057783	46427	108622	0	0	8175	566650	0	0
2024-09-22 02:40:47			0	37815	0	0	0	23405	22010	160667	27216	1057783	46438	108626	0	0	8175	566890	0	0
2024-09-22 02:41:47			0	37836	0	0	0	23405	21990	160711	27119	1057756	46415	108626	0	0	8176	566114	0	0
2024-09-22 02:42:47			0	37845	0	0	0	23402	21980	160579	27246	1057747	46414	108625	0	0	8177	565787	0	0
2024-09-22 02:43:47			0	37845	0	0	0	23399	21990	160559	27272	1057711	46416	108624	0	0	8177	565755	0	0
2024-09-22 02:44:47			0	37852	0	0	0	23394	21990	160523	27261	1057729	46426	108622	0	0	8177	565476	0	0
2024-09-22 02:45:47			0	37856	0	0	0	23389	21990	160547	26911	1057676	46415	108620	0	0	8177	565316	0	0
2024-09-22 02:46:47			0	37842	0	0	0	23392	21990	160647	27008	1057756	46426	108621	0	0	8177	565875	0	0
2024-09-22 02:47:47			0	37841	0	0	0	23392	21980	160547	27433	1057774	46414	108621	0	0	8176	565946	0	0
2024-09-22 02:48:47			0	37849	0	0	0	23389	21990	160707	27111	1057783	46426	108620	0	0	8177	565595	0	0
2024-09-22 02:49:47			0	37826	0	0	0	23381	21990	160807	27109	1057711	46416	108617	0	0	8176	566514	0	0
2024-09-22 02:50:47			0	37824	0	0	0	23386	21980	160831	26870	1057747	46414	108619	0	0	8176	566625	0	0
2024-09-22 02:51:47			0	37809	0	0	0	23392	21990	160915	27033	1057729	46415	108621	0	0	8175	567193	0	0
2024-09-22 02:52:47			0	37803	0	0	0	23386	21980	160907	27024	1057640	46436	108619	0	0	8174	567464	0	0
2024-09-22 02:53:47			0	37795	0	0	0	23394	21970	160891	27003	1057667	46413	108622	0	0	8174	567816	0	0
2024-09-22 02:54:47			0	37785	0	0	0	23381	21980	160951	26904	1057711	46424	108617	0	0	8173	568184	0	0
2024-09-22 02:55:47			0	37792	0	0	0	23386	21970	160915	26979	1057702	46424	108619	0	0	8174	567936	0	0
2024-09-22 02:56:47			0	37770	0	0	0	23384	21970	161039	27228	1057693	46435	108618	0	0	8172	568816	0	0
2024-09-22 02:57:47			0	37752	0	0	0	23384	21970	160979	26993	1057729	46424	108618	0	0	8171	569538	0	0
2024-09-22 02:58:47			0	37782	0	0	0	23384	21980	160863	27364	1057711	46424	108618	0	0	8173	568304	0	0
2024-09-22 02:59:47			0	37775	0	0	0	23381	21980	160939	27147	1057720	46436	108617	0	0	8173	568584	0	0
2024-09-22 03:00:47			0	37777	0	0	0	23379	21970	160923	27045	1057676	46424	108616	0	0	8173	568536	0	0
2024-09-22 03:01:47			0	37780	0	0	0	23379	21970	160899	26991	1057676	46435	108616	0	0	8173	568416	0	0
2024-09-22 03:02:47			0	37801	0	0	0	23384	21980	160871	27209	1057658	46413	108618	0	0	8174	567544	0	0
2024-09-22 03:03:47			0	37792	0	0	0	23386	21980	160795	26955	1057711	46424	108619	0	0	8174	567904	0	0
2024-09-22 03:04:47			0	37812	0	0	0	23384	21970	160899	27128	1057613	46424	108618	0	0	8175	567136	0	0
2024-09-22 03:05:47			0	37828	0	0	0	23379	21980	160715	27031	1057685	46435	108616	0	0	8176	566465	0	0
2024-09-22 03:06:47			0	37834	0	0	0	23384	21970	160659	27092	1057667	46435	108618	0	0	8176	566257	0	0
2024-09-22 03:07:47			0	37848	0	0	0	23386	21980	160631	26998	1057685	46413	108619	0	0	8177	565667	0	0
2024-09-22 03:08:47			0	37839	0	0	0	23389	21970	160687	27227	1057702	46424	108620	0	0	8176	566058	0	0
2024-09-22 03:09:47			0	37844	0	0	0	23389	21970	160595	27228	1057747	46435	108620	0	0	8177	565858	0	0
2024-09-22 03:10:47			0	37854	0	0	0	23381	21970	160531	27194	1057720	46424	108617	0	0	8177	565459	0	0
2024-09-22 03:11:47			0	37842	0	0	0	23389	21970	160547	27020	1057667	46424	108620	0	0	8177	565938	0	0
2024-09-22 03:12:47			0	37843	0	0	0	23384	21960	160587	26986	1057711	46412	108618	0	0	8177	565930	0	0
2024-09-22 03:13:47			0	37851	0	0	0	23379	21970	160587	27279	1057693	46402	108616	0	0	8177	565579	0	0
2024-09-22 03:14:47			0	37837	0	0	0	23373	21970	160603	27076	1057649	46424	108614	0	0	8177	566137	0	0
2024-09-22 03:15:47			0	37824	0	0	0	23384	21970	160715	26958	1057667	46413	108618	0	0	8176	566657	0	0
2024-09-22 03:16:47			0	37829	0	0	0	23373	21960	160687	27022	1057684	46434	108614	0	0	8176	566489	0	0
2024-09-22 03:17:47			0	37836	0	0	0	23371	21970	160667	27144	1057613	46413	108613	0	0	8177	566177	0	0
2024-09-22 03:18:47			0	37808	0	0	0	23366	21960	160707	27131	1057631	46423	108611	0	0	8175	567328	0	0
2024-09-22 03:19:47			0	37818	0	0	0	23366	21960	160683	26979	1057631	46412	108611	0	0	8175	566928	0	0
2024-09-22 03:20:47			0	37806	0	0	0	23361	21960	160711	26956	1057524	46423	108609	0	0	8175	567408	0	0
2024-09-22 03:21:47			0	37801	0	0	0	23363	21960	160859	27090	1057578	46423	108610	0	0	8175	567608	0	0
2024-09-22 03:22:47			0	37808	0	0	0	23366	21960	160815	26987	1057569	46421	108611	0	0	8175	567328	0	0
2024-09-22 03:23:47			0	37801	0	0	0	23361	21950	160811	26871	1057551	46421	108609	0	0	8175	567639	0	0
2024-09-22 03:24:47			0	37797	0	0	0	23358	21950	160907	26793	1057604	46411	108608	0	0	8174	567799	0	0
2024-09-22 03:25:47			0	37790	0	0	0	23355	21960	160863	26802	1057622	46421	108607	0	0	8174	568048	0	0
2024-09-22 03:26:47			0	37769	0	0	0	23366	21950	160867	27007	1057551	46421	108611	0	0	8173	568920	0	0
2024-09-22 03:27:47			0	37777	0	0	0	23361	21960	160911	27339	1057516	46421	108609	0	0	8173	568568	0	0
2024-09-22 03:28:47			0	37783	0	0	0	23358	21950	160955	26941	1057507	46433	108608	0	0	8174	568359	0	0
2024-09-22 03:29:47			0	37781	0	0	0	23358	21940	160967	26974	1057568	46410	108608	0	0	8173	568471	0	0
2024-09-22 03:30:47			0	37760	0	0	0	23353	21950	160991	26986	1057577	46421	108606	0	0	8172	569280	0	0
2024-09-22 03:31:47			0	37784	0	0	0	23355	21950	161079	26965	1057524	46421	108607	0	0	8174	568319	0	0
2024-09-22 03:32:47			0	37751	0	0	0	23350	21950	161023	26942	1057497	46411	108605	0	0	8172	569641	0	0
2024-09-22 03:33:47			0	37744	0	0	0	23353	21940	161071	27324	1057542	46421	108606	0	0	8171	569954	0	0
2024-09-22 03:34:47			0	37737	0	0	0	23342	21950	161055	27170	1057577	46433	108602	0	0	8171	570202	0	0
2024-09-22 03:35:47			0	37735	0	0	0	23345	21940	161079	27199	1057506	46409	108603	0	0	8171	570314	0	0
2024-09-22 03:36:47			0	37741	0	0	0	23345	21940	161015	27220	1057533	46409	108603	0	0	8171	570074	0	0
2024-09-22 03:37:47			0	37745	0	0	0	23350	21940	160975	27124	1057488	46410	108605	0	0	8171	569913	0	0
2024-09-22 03:38:47			0	37706	0	0	0	23353	21950	161127	27244	1057497	46421	108606	0	0	8169	571447	0	0
2024-09-22 03:39:47			0	37707	0	0	0	23348	21940	161151	27083	1057488	46421	108604	0	0	8169	571438	0	0
2024-09-22 03:40:47			0	37723	0	0	0	23355	21930	161219	27090	1057461	46409	108607	0	0	8170	570828	0	0
2024-09-22 03:41:47			0	37701	0	0	0	23342	21930	161247	26781	1057470	46431	108602	0	0	8169	571711	0	0
2024-09-22 03:42:47			0	37696	0	0	0	23350	21930	161387	27012	1057550	46409	108605	0	0	8168	571912	0	0
2024-09-22 03:43:47			0	37686	0	0	0	23350	21940	161307	27097	1057559	46409	108605	0	0	8168	572282	0	0
2024-09-22 03:44:47			0	37682	0	0	0	23350	21940	161283	27026	1057533	46420	108605	0	0	8168	572443	0	0
2024-09-22 03:45:47			0	37696	0	0	0	23345	21940	161339	27118	1057479	46431	108603	0	0	8169	571880	0	0
2024-09-22 03:46:47			0	37667	0	0	0	23337	21930	161415	26946	1057488	46431	108600	0	0	8167	573078	0	0
2024-09-22 03:47:47			0	37681	0	0	0	23324	21930	161415	27079	1057470	46420	108595	0	0	8168	572515	0	0
2024-09-22 03:48:47			0	37691	0	0	0	23337	21940	161395	26798	1057533	46409	108600	0	0	8168	572081	0	0
2024-09-22 03:49:47			0	37667	0	0	0	23340	21930	161467	27204	1057488	46420	108601	0	0	8167	573078	0	0
2024-09-22 03:50:47			0	37661	0	0	0	23337	21930	161379	27183	1057435	46431	108600	0	0	8167	573320	0	0
2024-09-22 03:51:47			0	37660	0	0	0	23337	21930	161479	27128	1057461	46420	108600	0	0	8167	573360	0	0
2024-09-22 03:52:47			0	37659	0	0	0	23342	21920	161415	27060	1057453	46430	108602	0	0	8166	573432	0	0
2024-09-22 03:53:47			0	37661	0	0	0	23335	21930	161355	27124	1057461	46431	108599	0	0	8167	573320	0	0
2024-09-22 03:54:47			0	37667	0	0	0	23335	21920	161395	27057	1057479	46419	108599	0	0	8167	573110	0	0
2024-09-22 03:55:47			0	37679	0	0	0	23337	21930	161419	26785	1057488	46409	108600	0	0	8168	572596	0	0
2024-09-22 03:56:47			0	37670	0	0	0	23329	21930	161355	26911	1057435	46420	108597	0	0	8167	572958	0	0
2024-09-22 03:57:47			0	37686	0	0	0	23327	21920	161339	27157	1057453	46419	108596	0	0	8168	572346	0	0
2024-09-22 03:58:47			0	37689	0	0	0	23335	21930	161379	26791	1057408	46420	108599	0	0	8168	572193	0	0
2024-09-22 03:59:47			0	37685	0	0	0	23327	21920	161363	27402	1057453	46419	108596	0	0	8168	572386	0	0
2024-09-22 04:00:47			0	37687	0	0	0	23340	21920	161287	26932	1057399	46441	108601	0	0	8168	572306	0	0
2024-09-22 04:01:47			0	37700	0	0	0	23337	21920	161335	27275	1057444	46429	108600	0	0	8169	571783	0	0
2024-09-22 04:02:47			0	37696	0	0	0	23335	21920	161279	26974	1057479	46430	108599	0	0	8169	571944	0	0
2024-09-22 04:03:47			0	37713	0	0	0	23332	21920	161251	27119	1057373	46419	108598	0	0	8170	571261	0	0
2024-09-22 04:04:47			0	37717	0	0	0	23335	21920	161359	27348	1057426	46408	108599	0	0	8170	571101	0	0
2024-09-22 04:05:47			0	37702	0	0	0	23332	21920	161303	27052	1057417	46417	108598	0	0	8169	571703	0	0
2024-09-22 04:06:47			0	37702	0	0	0	23329	21920	161387	26935	1057479	46419	108597	0	0	8169	571703	0	0
2024-09-22 04:07:47			0	37697	0	0	0	23324	21920	161307	27396	1057426	46430	108595	0	0	8169	571904	0	0
2024-09-22 04:08:47			0	37691	0	0	0	23319	21920	161259	27147	1057417	46417	108593	0	0	8169	572145	0	0
2024-09-22 04:09:47			0	37693	0	0	0	23322	21920	161447	27227	1057390	46417	108594	0	0	8169	572064	0	0
2024-09-22 04:10:47			0	37684	0	0	0	23327	21920	161363	27402	1057364	46429	108596	0	0	8168	572427	0	0
2024-09-22 04:11:47			0	37675	0	0	0	23327	21910	161371	27138	1057372	46416	108596	0	0	8168	572820	0	0
2024-09-22 04:12:47			0	37684	0	0	0	23327	21920	161371	27422	1057390	46429	108596	0	0	8168	572427	0	0
2024-09-22 04:13:47			0	37682	0	0	0	23332	21910	161291	27201	1057408	46417	108598	0	0	8168	572539	0	0
2024-09-22 04:14:47			0	37686	0	0	0	23335	21910	161259	27059	1057408	46429	108599	0	0	8168	572378	0	0
2024-09-22 04:15:47			0	37709	0	0	0	23332	21920	161247	27287	1057390	46417	108598	0	0	8169	571422	0	0
2024-09-22 04:16:47			0	37699	0	0	0	23324	21910	161231	26788	1057355	46417	108595	0	0	8169	571855	0	0
2024-09-22 04:17:47			0	37717	0	0	0	23324	21910	161167	27019	1057426	46416	108595	0	0	8170	571132	0	0
2024-09-22 04:18:47			0	37710	0	0	0	23327	21910	161163	27118	1057408	46396	108596	0	0	8170	571413	0	0
2024-09-22 04:19:47			0	37706	0	0	0	23316	21920	161223	26928	1057390	46417	108592	0	0	8170	571542	0	0
2024-09-22 04:20:47			0	37695	0	0	0	23319	21910	161287	27196	1057435	46417	108593	0	0	8169	572016	0	0
2024-09-22 04:21:47			0	37679	0	0	0	23314	21910	161343	26932	1057372	46406	108591	0	0	8168	572659	0	0
2024-09-22 04:22:47			0	37665	0	0	0	23311	21900	161279	26870	1057301	46405	108590	0	0	8167	573255	0	0
2024-09-22 04:23:47			0	37680	0	0	0	23309	21910	161395	26684	1057319	46416	108589	0	0	8168	572619	0	0
2024-09-22 04:24:47			0	37661	0	0	0	23316	21900	161291	27192	1057363	46428	108592	0	0	8167	573416	0	0
2024-09-22 04:25:47			0	37676	0	0	0	23322	21910	161347	27197	1057399	46406	108594	0	0	8168	572780	0	0
2024-09-22 04:26:47			0	37670	0	0	0	23319	21910	161355	26892	1057266	46406	108593	0	0	8167	573022	0	0
2024-09-22 04:27:47			0	37673	0	0	0	23311	21910	161323	27284	1057381	46417	108590	0	0	8168	572901	0	0
2024-09-22 04:28:47			0	37673	0	0	0	23314	21910	161383	26915	1057328	46429	108591	0	0	8168	572901	0	0
2024-09-22 04:29:47			0	37676	0	0	0	23316	21900	161331	27313	1057363	46428	108592	0	0	8168	572812	0	0
2024-09-22 04:30:47			0	37662	0	0	0	23309	21900	161399	26863	1057363	46416	108589	0	0	8167	573375	0	0
2024-09-22 04:31:47			0	37681	0	0	0	23314	21900	161395	27059	1057337	46406	108591	0	0	8168	572611	0	0
2024-09-22 04:32:47			0	37661	0	0	0	23311	21900	161479	27140	1057337	46406	108590	0	0	8167	573416	0	0
2024-09-22 04:33:47			0	37651	0	0	0	23303	21900	161419	27005	1057337	46406	108587	0	0	8166	573818	0	0
2024-09-22 04:34:47			0	37657	0	0	0	23306	21900	161339	27043	1057390	46406	108588	0	0	8167	573577	0	0
2024-09-22 04:35:47			0	37645	0	0	0	23309	21900	161515	27031	1057337	46416	108589	0	0	8166	574060	0	0
2024-09-22 04:36:47			0	37637	0	0	0	23309	21900	161563	27029	1057337	46406	108589	0	0	8166	574382	0	0
2024-09-22 04:37:47			0	37649	0	0	0	23314	21900	161347	27338	1057355	46405	108591	0	0	8166	573899	0	0
2024-09-22 04:38:47			0	37662	0	0	0	23316	21900	161367	27232	1057363	46416	108592	0	0	8167	573375	0	0
2024-09-22 04:39:47			0	37663	0	0	0	23306	21890	161367	27438	1057346	46404	108588	0	0	8167	573367	0	0
2024-09-22 04:40:47			0	37669	0	0	0	23311	21900	161383	27284	1057301	46416	108590	0	0	8167	573094	0	0
2024-09-22 04:41:47			0	37683	0	0	0	23303	21900	161347	27377	1057248	46427	108587	0	0	8168	572530	0	0
2024-09-22 04:42:47			0	37679	0	0	0	23293	21900	161411	26745	1057301	46405	108583	0	0	8168	572691	0	0
2024-09-22 04:43:47			0	37671	0	0	0	23293	21900	161443	27126	1057328	46416	108583	0	0	8168	573013	0	0
2024-09-22 04:44:47			0	37657	0	0	0	23298	21900	161491	27223	1057301	46405	108585	0	0	8167	573577	0	0
2024-09-22 04:45:47			0	37651	0	0	0	23296	21900	161451	27098	1057301	46405	108584	0	0	8167	573818	0	0
2024-09-22 04:46:47			0	37667	0	0	0	23298	21890	161403	27227	1057292	46415	108585	0	0	8167	573206	0	0
2024-09-22 04:47:47			0	37674	0	0	0	23309	21890	161435	27327	1057283	46415	108589	0	0	8168	572924	0	0
2024-09-22 04:48:47			0	37680	0	0	0	23311	21880	161319	27583	1057319	46403	108590	0	0	8168	572715	0	0
2024-09-22 04:49:47			0	37702	0	0	0	23298	21890	161315	27196	1057319	46415	108585	0	0	8169	571798	0	0
2024-09-22 04:50:47			0	37693	0	0	0	23293	21890	161271	27251	1057283	46415	108583	0	0	8169	572160	0	0
2024-09-22 04:51:47			0	37699	0	0	0	23293	21890	161223	27097	1057266	46404	108583	0	0	8169	571919	0	0
2024-09-22 04:52:47			0	37713	0	0	0	23290	21890	161155	27211	1057257	46415	108582	0	0	8170	571357	0	0
2024-09-22 04:53:47			0	37697	0	0	0	23293	21890	161239	27320	1057283	46404	108583	0	0	8169	571999	0	0
2024-09-22 04:54:47			0	37690	0	0	0	23298	21880	161335	27144	1057265	46414	108585	0	0	8169	572313	0	0
2024-09-22 04:55:47			0	37687	0	0	0	23290	21880	161271	27185	1057301	46404	108582	0	0	8169	572433	0	0
2024-09-22 04:56:47			0	37700	0	0	0	23290	21890	161279	27067	1057257	46415	108582	0	0	8170	571879	0	0
2024-09-22 04:57:47			0	37705	0	0	0	23288	21880	161163	26989	1057328	46426	108581	0	0	8170	571710	0	0
2024-09-22 04:58:47			0	37712	0	0	0	23290	21890	161195	26838	1057319	46404	108582	0	0	8170	571397	0	0
2024-09-22 04:59:47			0	37715	0	0	0	23293	21890	161223	27059	1057283	46415	108583	0	0	8170	571276	0	0
2024-09-22 05:00:47			0	37706	0	0	0	23298	21880	161215	26885	1057265	46414	108585	0	0	8170	571670	0	0
2024-09-22 05:01:47			0	37714	0	0	0	23293	21880	161211	26722	1057212	46414	108583	0	0	8170	571348	0	0
2024-09-22 05:02:47			0	37705	0	0	0	23298	21880	161231	26913	1057292	46425	108585	0	0	8170	571710	0	0
2024-09-22 05:03:47			0	37708	0	0	0	23306	21890	161211	27130	1057310	46415	108588	0	0	8170	571557	0	0
2024-09-22 05:04:47			0	37710	0	0	0	23283	21880	161331	26746	1057221	46415	108579	0	0	8170	571509	0	0
2024-09-22 05:05:47			0	37710	0	0	0	23298	21880	161339	26838	1057265	46414	108585	0	0	8170	571509	0	0
2024-09-22 05:06:47			0	37693	0	0	0	23293	21880	161319	27053	1057212	46414	108583	0	0	8169	572192	0	0
2024-09-22 05:07:47			0	37692	0	0	0	23285	21870	161303	27147	1057203	46402	108580	0	0	8169	572264	0	0
2024-09-22 05:08:47			0	37695	0	0	0	23288	21870	161455	27010	1057248	46413	108581	0	0	8169	572144	0	0
2024-09-22 05:09:47			0	37692	0	0	0	23277	21880	161319	27081	1057248	46437	108577	0	0	8169	572232	0	0
2024-09-22 05:10:47			0	37677	0	0	0	23283	21880	161383	27050	1057239	46414	108579	0	0	8168	572836	0	0
2024-09-22 05:11:47			0	37691	0	0	0	23283	21880	161343	27190	1057265	46414	108579	0	0	8169	572272	0	0
2024-09-22 05:12:47			0	37689	0	0	0	23283	21870	161355	27083	1057256	46402	108579	0	0	8169	572385	0	0
2024-09-22 05:13:47			0	37674	0	0	0	23277	21880	161367	27372	1057212	46414	108577	0	0	8168	572956	0	0
2024-09-22 05:14:47			0	37671	0	0	0	23283	21870	161391	27142	1057194	46413	108579	0	0	8168	573109	0	0
2024-09-22 05:15:47			0	37686	0	0	0	23277	21870	161331	26828	1057150	46402	108577	0	0	8169	572505	0	0
2024-09-22 05:16:47			0	37670	0	0	0	23285	21880	161459	26918	1057212	46414	108580	0	0	8168	573117	0	0
2024-09-22 05:17:47			0	37651	0	0	0	23277	21870	161471	27164	1057230	46446	108577	0	0	8167	573914	0	0
2024-09-22 05:18:47			0	37660	0	0	0	23277	21870	161395	27339	1057141	46402	108577	0	0	8167	573552	0	0
2024-09-22 05:19:47			0	37662	0	0	0	23264	21860	161407	26958	1057132	46402	108572	0	0	8168	573503	0	0
2024-09-22 05:20:47			0	37671	0	0	0	23267	21870	161423	26922	1057176	46402	108573	0	0	8168	573109	0	0
2024-09-22 05:21:47			0	37678	0	0	0	23267	21860	161295	27362	1057150	46401	108573	0	0	8168	572859	0	0
2024-09-22 05:22:47			0	37687	0	0	0	23267	21870	161351	27036	1057221	46402	108573	0	0	8169	572465	0	0
2024-09-22 05:23:47			0	37692	0	0	0	23290	21860	161275	27092	1057185	46402	108582	0	0	8169	572296	0	0
2024-09-22 05:24:47			0	37692	0	0	0	23280	21860	161223	27154	1057176	46412	108578	0	0	8169	572296	0	0
2024-09-22 05:25:47			0	37698	0	0	0	23275	21870	161191	26835	1057194	46413	108576	0	0	8170	572023	0	0
2024-09-22 05:26:47			0	37699	0	0	0	23283	21870	161191	27306	1057221	46424	108579	0	0	8169	571983	0	0
2024-09-22 05:27:47			0	37711	0	0	0	23280	21860	161219	27287	1057212	46424	108578	0	0	8170	571532	0	0
2024-09-22 05:28:47			0	37712	0	0	0	23270	21860	161239	26811	1057185	46424	108574	0	0	8170	571492	0	0
2024-09-22 05:29:47			0	37707	0	0	0	23283	21860	161215	27052	1057185	46402	108579	0	0	8170	571693	0	0
2024-09-22 05:30:47			0	37707	0	0	0	23285	21870	161163	26899	1057221	46402	108580	0	0	8170	571661	0	0
2024-09-22 05:31:47			0	37709	0	0	0	23285	21860	161187	27249	1057185	46413	108580	0	0	8170	571613	0	0
2024-09-22 05:32:47			0	37699	0	0	0	23275	21870	161255	27001	1057221	46413	108576	0	0	8170	571983	0	0
2024-09-22 05:33:47			0	37692	0	0	0	23270	21870	161311	27026	1057248	46413	108574	0	0	8169	572264	0	0
2024-09-22 05:34:47			0	37694	0	0	0	23270	21860	161363	26823	1057212	46413	108574	0	0	8169	572216	0	0
2024-09-22 05:35:47			0	37674	0	0	0	23270	21870	161383	27182	1057141	46413	108574	0	0	8168	572988	0	0
2024-09-22 05:36:47			0	37666	0	0	0	23264	21860	161447	26994	1057150	46401	108572	0	0	8168	573342	0	0
2024-09-22 05:37:47			0	37667	0	0	0	23270	21860	161483	27206	1057132	46402	108574	0	0	8168	573302	0	0
2024-09-22 05:38:47			0	37647	0	0	0	23270	21860	161531	26899	1057159	46402	108574	0	0	8167	574107	0	0
2024-09-22 05:39:47			0	37635	0	0	0	23262	21860	161563	27177	1057212	46413	108571	0	0	8166	574591	0	0
2024-09-22 05:40:47			0	37617	0	0	0	23262	21860	161615	27324	1057150	46412	108571	0	0	8165	575317	0	0
2024-09-22 05:41:47			0	37626	0	0	0	23257	21860	161619	27137	1057123	46401	108569	0	0	8166	574954	0	0
2024-09-22 05:42:47			0	37612	0	0	0	23267	21850	161691	27111	1057167	46400	108573	0	0	8165	575551	0	0
2024-09-22 05:43:47			0	37601	0	0	0	23246	21860	161683	27338	1057123	46401	108565	0	0	8164	575963	0	0
2024-09-22 05:44:47			0	37591	0	0	0	23249	21850	161679	27204	1057114	46400	108566	0	0	8164	576399	0	0
2024-09-22 05:45:47			0	37588	0	0	0	23249	21850	161763	26934	1057061	46422	108566	0	0	8163	576520	0	0
2024-09-22 05:46:47			0	37565	0	0	0	23259	21850	161763	26982	1057087	46400	108570	0	0	8162	577450	0	0
2024-09-22 05:47:47			0	37573	0	0	0	23251	21850	161775	27249	1057078	46422	108567	0	0	8162	577126	0	0
2024-09-22 05:48:47			0	37564	0	0	0	23241	21830	161975	27043	1057078	46420	108563	0	0	8162	577554	0	0
2024-09-22 05:49:47			0	37550	0	0	0	23246	21850	161831	26944	1057078	46400	108565	0	0	8161	578057	0	0
2024-09-22 05:50:47			0	37537	0	0	0	23244	21850	161863	27166	1057105	46411	108564	0	0	8160	578583	0	0
2024-09-22 05:51:47			0	37555	0	0	0	23238	21850	161895	27300	1057078	46422	108562	0	0	8162	577854	0	0
2024-09-22 05:52:47			0	37538	0	0	0	23246	21850	161903	27254	1057114	46411	108565	0	0	8161	578542	0	0
2024-09-22 05:53:47			0	37534	0	0	0	23231	21840	161927	27242	1056990	46388	108559	0	0	8160	578737	0	0
2024-09-22 05:54:47			0	37515	0	0	0	23241	21830	162067	27294	1057025	46376	108563	0	0	8159	579539	0	0
2024-09-22 05:55:47			0	37527	0	0	0	23236	21840	162035	27157	1057007	46399	108561	0	0	8160	579020	0	0
2024-09-22 05:56:47			0	37520	0	0	0	23231	21840	162023	27145	1056954	46410	108559	0	0	8160	579304	0	0
2024-09-22 05:57:47			0	37522	0	0	0	23238	21830	162091	27055	1057025	46409	108562	0	0	8160	579255	0	0
2024-09-22 05:58:47			0	37520	0	0	0	23238	21840	162087	27241	1057016	46399	108562	0	0	8160	579304	0	0
2024-09-22 05:59:47			0	37534	0	0	0	23231	21830	162011	27104	1056989	46420	108559	0	0	8160	578769	0	0
2024-09-22 06:00:47			0	37531	0	0	0	23233	21830	161983	26838	1056998	46409	108560	0	0	8160	578890	0	0
2024-09-22 06:01:47			0	37526	0	0	0	23220	21830	162051	26998	1056989	46409	108555	0	0	8160	579093	0	0
2024-09-22 06:02:47			0	37515	0	0	0	23231	21830	162011	27086	1056989	46409	108559	0	0	8159	579539	0	0
2024-09-22 06:03:47			0	37513	0	0	0	23223	21830	162063	27261	1056945	46398	108556	0	0	8159	579620	0	0
2024-09-22 06:04:47			0	37516	0	0	0	23210	21830	162103	27107	1057016	46387	108551	0	0	8160	579498	0	0
2024-09-22 06:05:47			0	37497	0	0	0	23212	21820	162123	26788	1056953	46408	108552	0	0	8159	580301	0	0
2024-09-22 06:06:47			0	37500	0	0	0	23212	21820	162211	27090	1056918	46397	108552	0	0	8159	580179	0	0
2024-09-22 06:07:47			0	37493	0	0	0	23207	21820	162171	27201	1056971	46397	108550	0	0	8158	580463	0	0
2024-09-22 06:08:47			0	37481	0	0	0	23215	21820	162287	27175	1056998	46386	108553	0	0	8158	580951	0	0
2024-09-22 06:09:47			0	37484	0	0	0	23218	21830	162371	27137	1056909	46409	108554	0	0	8158	580796	0	0
2024-09-22 06:10:47			0	37464	0	0	0	23210	21820	162343	26941	1056900	46397	108551	0	0	8157	581641	0	0
2024-09-22 06:11:47			0	37457	0	0	0	23205	21810	162355	27209	1056900	46395	108549	0	0	8156	581958	0	0
2024-09-22 06:12:47			0	37449	0	0	0	23197	21810	162399	27128	1056873	46406	108546	0	0	8156	582283	0	0
2024-09-22 06:13:47			0	37461	0	0	0	23194	21810	162415	26850	1056856	46407	108545	0	0	8157	581795	0	0
2024-09-22 06:14:47			0	37431	0	0	0	23197	21800	162439	26968	1056864	46395	108546	0	0	8155	583048	0	0
2024-09-22 06:15:47			0	37422	0	0	0	23189	21810	162487	27163	1056847	46417	108543	0	0	8154	583382	0	0
2024-09-22 06:16:47			0	37437	0	0	0	23186	21800	162471	27118	1056829	46405	108542	0	0	8155	582804	0	0
2024-09-22 06:17:47			0	37429	0	0	0	23181	21800	162507	27384	1056829	46405	108540	0	0	8155	583129	0	0
2024-09-22 06:18:47			0	37439	0	0	0	23194	21800	162483	27123	1056811	46406	108545	0	0	8155	582723	0	0
2024-09-22 06:19:47			0	37449	0	0	0	23184	21800	162491	27145	1056855	46405	108541	0	0	8156	582316	0	0
2024-09-22 06:20:47			0	37437	0	0	0	23176	21790	162467	27346	1056784	46404	108538	0	0	8155	582836	0	0
2024-09-22 06:21:47			0	37432	0	0	0	23171	21790	162431	26925	1056767	46383	108536	0	0	8155	583040	0	0
2024-09-22 06:22:47			0	37433	0	0	0	23171	21790	162431	26890	1056758	46404	108536	0	0	8155	582999	0	0
2024-09-22 06:23:47			0	37438	0	0	0	23158	21790	162535	26899	1056704	46393	108531	0	0	8156	582796	0	0
2024-09-22 06:24:47			0	37443	0	0	0	23150	21780	162487	26970	1056669	46393	108528	0	0	8156	582625	0	0
2024-09-22 06:25:47			0	37442	0	0	0	23145	21770	162535	27310	1056722	46391	108526	0	0	8156	582698	0	0
2024-09-22 06:26:47			0	37443	0	0	0	23137	21770	162487	27102	1056704	46392	108523	0	0	8156	582657	0	0
2024-09-22 06:27:47			0	37443	0	0	0	23150	21770	162511	27053	1056695	46391	108528	0	0	8156	582657	0	0
2024-09-22 06:28:47			0	37446	0	0	0	23148	21770	162435	27123	1056642	46402	108527	0	0	8156	582535	0	0
2024-09-22 06:29:47			0	37441	0	0	0	23148	21750	162499	27098	1056579	46389	108527	0	0	8156	582803	0	0
2024-09-22 06:30:47			0	37452	0	0	0	23158	21760	162423	26739	1056606	46402	108531	0	0	8156	582323	0	0
2024-09-22 06:31:47			0	37473	0	0	0	23161	21760	162335	27036	1056597	46413	108532	0	0	8158	581470	0	0
2024-09-22 06:32:47			0	37487	0	0	0	23155	21750	162383	27317	1056668	46390	108530	0	0	8159	580933	0	0
2024-09-22 06:33:47			0	37510	0	0	0	23166	21750	162319	26913	1056606	46412	108534	0	0	8160	580000	0	0
2024-09-22 06:34:47			0	37515	0	0	0	23168	21760	162283	27298	1056651	46390	108535	0	0	8160	579765	0	0
2024-09-22 06:35:47			0	37537	0	0	0	23184	21750	162159	27102	1056695	46401	108541	0	0	8161	578905	0	0
2024-09-22 06:36:47			0	37560	0	0	0	23179	21750	162063	27026	1056668	46401	108539	0	0	8162	577974	0	0
2024-09-22 06:37:47			0	37572	0	0	0	23179	21750	162027	27027	1056668	46401	108539	0	0	8163	577488	0	0
2024-09-22 06:38:47			0	37580	0	0	0	23174	21770	161903	27043	1056775	46402	108537	0	0	8164	577100	0	0
2024-09-22 06:39:47			0	37599	0	0	0	23176	21760	161855	27215	1056704	46413	108538	0	0	8165	576364	0	0
2024-09-22 06:40:47			0	37628	0	0	0	23184	21760	161763	27367	1056677	46390	108541	0	0	8166	575194	0	0
2024-09-22 06:41:47			0	37641	0	0	0	23189	21750	161715	26953	1056695	46401	108543	0	0	8167	574701	0	0
2024-09-22 06:42:47			0	37630	0	0	0	23192	21770	161743	27116	1056757	46403	108544	0	0	8166	575081	0	0
2024-09-22 06:43:47			0	37643	0	0	0	23181	21760	161691	27055	1056677	46401	108540	0	0	8167	574588	0	0
2024-09-22 06:44:47			0	37658	0	0	0	23184	21760	161603	26934	1056660	46414	108541	0	0	8168	573984	0	0
2024-09-22 06:45:47			0	37680	0	0	0	23181	21760	161563	26696	1056731	46401	108540	0	0	8170	573098	0	0
2024-09-22 06:46:47			0	37666	0	0	0	23184	21760	161583	27202	1056740	46402	108541	0	0	8169	573662	0	0
2024-09-22 06:47:47			0	37686	0	0	0	23181	21770	161579	27294	1056748	46402	108540	0	0	8170	572824	0	0
2024-09-22 06:48:47			0	37685	0	0	0	23189	21760	161439	26993	1056713	46402	108543	0	0	8170	572896	0	0
2024-09-22 06:49:47			0	37707	0	0	0	23176	21760	161395	27242	1056740	46402	108538	0	0	8171	572012	0	0
2024-09-22 06:50:47			0	37693	0	0	0	23184	21760	161355	27050	1056704	46413	108541	0	0	8170	572575	0	0
2024-09-22 06:51:47			0	37709	0	0	0	23179	21770	161459	27109	1056722	46402	108539	0	0	8171	571899	0	0
2024-09-22 06:52:47			0	37717	0	0	0	23184	21770	161359	27069	1056748	46402	108541	0	0	8172	571578	0	0
2024-09-22 06:53:47			0	37704	0	0	0	23179	21760	161327	27137	1056740	46380	108539	0	0	8171	572132	0	0
2024-09-22 06:54:47			0	37708	0	0	0	23186	21760	161491	26826	1056660	46402	108542	0	0	8171	571971	0	0
2024-09-22 06:55:47			0	37717	0	0	0	23186	21760	161467	27046	1056713	46402	108542	0	0	8172	571610	0	0
2024-09-22 06:56:47			0	37702	0	0	0	23176	21770	161483	26942	1056748	46391	108538	0	0	8171	572181	0	0
2024-09-22 06:57:47			0	37701	0	0	0	23181	21760	161379	27083	1056757	46401	108540	0	0	8171	572253	0	0
2024-09-22 06:58:47			0	37716	0	0	0	23179	21770	161435	27052	1056731	46392	108539	0	0	8172	571618	0	0
2024-09-22 06:59:47			0	37710	0	0	0	23184	21770	161319	27220	1056802	46402	108541	0	0	8171	571859	0	0
2024-09-22 07:00:47			0	37722	0	0	0	23176	21770	161395	27078	1056731	46403	108538	0	0	8172	571377	0	0
2024-09-22 07:01:47			0	37728	0	0	0	23176	21770	161363	27118	1056695	46402	108538	0	0	8173	571136	0	0
2024-09-22 07:02:47			0	37739	0	0	0	23184	21760	161187	27105	1056740	46391	108541	0	0	8173	570726	0	0
2024-09-22 07:03:47			0	37741	0	0	0	23179	21760	161211	27072	1056704	46401	108539	0	0	8173	570646	0	0
2024-09-22 07:04:47			0	37741	0	0	0	23176	21770	161247	27007	1056775	46402	108538	0	0	8173	570614	0	0
2024-09-22 07:05:47			0	37746	0	0	0	23181	21770	161207	27189	1056775	46402	108540	0	0	8174	570413	0	0
2024-09-22 07:06:47			0	37750	0	0	0	23186	21770	161199	27235	1056775	46402	108542	0	0	8174	570253	0	0
2024-09-22 07:07:47			0	37771	0	0	0	23192	21770	161139	27372	1056748	46414	108544	0	0	8175	569410	0	0
2024-09-22 07:08:47			0	37778	0	0	0	23192	21770	161251	27244	1056748	46391	108544	0	0	8175	569130	0	0
2024-09-22 07:09:47			0	37784	0	0	0	23189	21770	161155	26948	1056784	46414	108543	0	0	8176	568889	0	0
2024-09-22 07:10:47			0	37802	0	0	0	23189	21770	161083	27027	1056784	46392	108543	0	0	8177	568169	0	0
2024-09-22 07:11:47			0	37777	0	0	0	23186	21770	161067	27086	1056748	46402	108542	0	0	8175	569170	0	0
2024-09-22 07:12:47			0	37789	0	0	0	23202	21760	161087	27086	1056766	46402	108548	0	0	8176	568721	0	0
2024-09-22 07:13:47			0	37809	0	0	0	23194	21770	160987	27254	1056722	46391	108545	0	0	8177	567889	0	0
2024-09-22 07:14:47			0	37785	0	0	0	23186	21770	161015	27046	1056802	46402	108542	0	0	8176	568849	0	0
2024-09-22 07:15:47			0	37798	0	0	0	23184	21770	161027	27320	1056784	46392	108541	0	0	8177	568329	0	0
2024-09-22 07:16:47			0	37779	0	0	0	23186	21770	160987	27173	1056784	46403	108542	0	0	8175	569090	0	0
2024-09-22 07:17:47			0	37795	0	0	0	23181	21770	161015	27111	1056828	46391	108540	0	0	8176	568449	0	0
2024-09-22 07:18:47			0	37803	0	0	0	23189	21780	160967	27268	1056775	46404	108543	0	0	8177	568097	0	0
2024-09-22 07:19:47			0	37805	0	0	0	23174	21770	161111	27157	1056802	46402	108537	0	0	8177	568049	0	0
2024-09-22 07:20:47			0	37802	0	0	0	23184	21760	161059	27100	1056686	46402	108541	0	0	8177	568200	0	0
2024-09-22 07:21:47			0	37804	0	0	0	23181	21770	161015	27050	1056748	46414	108540	0	0	8177	568089	0	0
2024-09-22 07:22:47			0	37787	0	0	0	23179	21760	161051	26951	1056740	46402	108539	0	0	8176	568801	0	0
2024-09-22 07:23:47			0	37819	0	0	0	23184	21770	161035	27027	1056695	46391	108541	0	0	8178	567488	0	0
2024-09-22 07:24:47			0	37806	0	0	0	23181	21780	161087	27203	1056713	46414	108540	0	0	8177	567977	0	0
2024-09-22 07:25:47			0	37795	0	0	0	23176	21770	161019	26871	1056784	46403	108538	0	0	8176	568449	0	0
2024-09-22 07:26:47			0	37777	0	0	0	23179	21780	161163	27093	1056820	46392	108539	0	0	8175	569138	0	0
2024-09-22 07:27:47			0	37800	0	0	0	23184	21770	161079	27336	1056757	46403	108541	0	0	8177	568249	0	0
2024-09-22 07:28:47			0	37790	0	0	0	23184	21770	161099	27336	1056748	46391	108541	0	0	8176	568649	0	0
2024-09-22 07:29:47			0	37788	0	0	0	23184	21760	161107	27010	1056766	46391	108541	0	0	8176	568761	0	0
2024-09-22 07:30:47			0	37796	0	0	0	23176	21770	161027	26918	1056731	46392	108538	0	0	8177	568409	0	0
2024-09-22 07:31:47			0	37788	0	0	0	23174	21770	160987	26991	1056722	46391	108537	0	0	8176	568729	0	0
2024-09-22 07:32:47			0	37784	0	0	0	23179	21770	161095	26922	1056731	46403	108539	0	0	8176	568889	0	0
2024-09-22 07:33:47			0	37800	0	0	0	23168	21760	161103	27450	1056713	46402	108535	0	0	8177	568280	0	0
2024-09-22 07:34:47			0	37775	0	0	0	23176	21770	161135	27197	1056748	46402	108538	0	0	8175	569250	0	0
2024-09-22 07:35:47			0	37784	0	0	0	23176	21760	161139	26979	1056766	46402	108538	0	0	8176	568921	0	0
2024-09-22 07:36:47			0	37781	0	0	0	23166	21770	161171	27242	1056775	46402	108534	0	0	8176	569010	0	0
2024-09-22 07:37:47			0	37761	0	0	0	23168	21760	161067	27367	1056757	46390	108535	0	0	8175	569843	0	0
2024-09-22 07:38:47			0	37767	0	0	0	23163	21760	161035	27007	1056740	46402	108533	0	0	8175	569603	0	0
2024-09-22 07:39:47			0	37761	0	0	0	23161	21760	161023	26993	1056713	46391	108532	0	0	8175	569843	0	0
2024-09-22 07:40:47			0	37759	0	0	0	23161	21770	161095	27118	1056704	46392	108532	0	0	8175	569892	0	0
2024-09-22 07:41:47			0	37767	0	0	0	23171	21760	161095	27286	1056731	46401	108536	0	0	8175	569603	0	0
2024-09-22 07:42:47			0	37778	0	0	0	23163	21760	161107	27410	1056713	46402	108533	0	0	8176	569162	0	0
2024-09-22 07:43:47			0	37750	0	0	0	23166	21760	161059	27329	1056686	46391	108534	0	0	8174	570284	0	0
2024-09-22 07:44:47			0	37764	0	0	0	23166	21750	161023	27208	1056659	46389	108534	0	0	8175	569755	0	0
2024-09-22 07:45:47			0	37772	0	0	0	23166	21760	161143	26993	1056686	46391	108534	0	0	8175	569402	0	0
2024-09-22 07:46:47			0	37763	0	0	0	23176	21760	161015	27353	1056704	46390	108538	0	0	8175	569763	0	0
2024-09-22 07:47:47			0	37765	0	0	0	23166	21760	161091	27078	1056766	46402	108534	0	0	8175	569683	0	0
2024-09-22 07:48:47			0	37777	0	0	0	23155	21760	161083	27357	1056713	46402	108530	0	0	8176	569202	0	0
2024-09-22 07:49:47			0	37776	0	0	0	23158	21760	161067	27447	1056677	46379	108531	0	0	8176	569242	0	0
2024-09-22 07:50:47			0	37770	0	0	0	23161	21760	161067	27390	1056686	46391	108532	0	0	8175	569482	0	0
2024-09-22 07:51:47			0	37781	0	0	0	23161	21750	160999	27156	1056606	46400	108532	0	0	8176	569073	0	0
2024-09-22 07:52:47			0	37774	0	0	0	23168	21760	161191	27348	1056677	46390	108535	0	0	8175	569322	0	0
2024-09-22 07:53:47			0	37805	0	0	0	23148	21750	160995	26812	1056659	46412	108527	0	0	8177	568112	0	0
2024-09-22 07:54:47			0	37785	0	0	0	23145	21760	161051	27131	1056597	46401	108526	0	0	8176	568881	0	0
2024-09-22 07:55:47			0	37789	0	0	0	23155	21760	161111	27147	1056704	46401	108530	0	0	8176	568721	0	0
2024-09-22 07:56:47			0	37784	0	0	0	23155	21750	161051	27128	1056642	46413	108530	0	0	8176	568953	0	0
2024-09-22 07:57:47			0	37791	0	0	0	23161	21750	161107	27078	1056668	46390	108532	0	0	8176	568672	0	0
2024-09-22 07:58:47			0	37789	0	0	0	23148	21750	161083	26994	1056668	46379	108527	0	0	8177	568752	0	0
2024-09-22 07:59:47			0	37772	0	0	0	23148	21750	161147	27377	1056633	46389	108527	0	0	8176	569434	0	0
2024-09-22 08:00:47			0	37777	0	0	0	23150	21750	161071	27137	1056713	46400	108528	0	0	8176	569233	0	0
2024-09-22 08:01:47			0	37775	0	0	0	23150	21750	161063	27123	1056659	46400	108528	0	0	8176	569314	0	0
2024-09-22 08:02:47			0	37775	0	0	0	23161	21750	161095	27249	1056606	46389	108532	0	0	8175	569314	0	0
2024-09-22 08:03:47			0	37771	0	0	0	23150	21750	161131	27185	1056695	46413	108528	0	0	8175	569474	0	0
2024-09-22 08:04:47			0	37779	0	0	0	23161	21750	161115	27623	1056668	46401	108532	0	0	8176	569153	0	0
2024-09-22 08:05:47			0	37778	0	0	0	23155	21740	161019	27232	1056624	46389	108530	0	0	8176	569225	0	0
2024-09-22 08:06:47			0	37779	0	0	0	23155	21750	161083	27215	1056686	46400	108530	0	0	8176	569153	0	0
2024-09-22 08:07:47			0	37803	0	0	0	23166	21750	161019	27178	1056606	46400	108534	0	0	8177	568192	0	0
2024-09-22 08:08:47			0	37772	0	0	0	23153	21750	161059	27255	1056579	46400	108529	0	0	8175	569434	0	0
2024-09-22 08:09:47			0	37781	0	0	0	23155	21740	160947	26961	1056668	46377	108530	0	0	8176	569105	0	0
2024-09-22 08:10:47			0	37780	0	0	0	23153	21740	160975	26883	1056642	46377	108529	0	0	8176	569145	0	0
2024-09-22 08:11:47			0	37787	0	0	0	23148	21750	161051	27152	1056633	46400	108527	0	0	8176	568833	0	0
2024-09-22 08:12:47			0	37776	0	0	0	23142	21740	160999	27235	1056624	46400	108525	0	0	8176	569305	0	0
2024-09-22 08:13:47			0	37790	0	0	0	23142	21750	161019	27203	1056633	46400	108525	0	0	8177	568712	0	0
2024-09-22 08:14:47			0	37775	0	0	0	23163	21740	161031	27232	1056668	46411	108533	0	0	8175	569345	0	0
2024-09-22 08:15:47			0	37806	0	0	0	23161	21740	161079	27260	1056642	46399	108532	0	0	8177	568103	0	0
2024-09-22 08:16:47			0	37784	0	0	0	23155	21740	161047	27024	1056615	46399	108530	0	0	8176	568984	0	0
2024-09-22 08:17:47			0	37779	0	0	0	23155	21750	160971	27088	1056615	46401	108530	0	0	8176	569153	0	0
2024-09-22 08:18:47			0	37772	0	0	0	23161	21740	161059	27206	1056695	46399	108532	0	0	8175	569465	0	0
2024-09-22 08:19:47			0	37782	0	0	0	23153	21750	161159	27248	1056686	46412	108529	0	0	8176	569033	0	0
2024-09-22 08:20:47			0	37791	0	0	0	23155	21740	161067	27232	1056597	46389	108530	0	0	8176	568704	0	0
2024-09-22 08:21:47			0	37791	0	0	0	23155	21740	161047	27157	1056650	46400	108530	0	0	8176	568704	0	0
2024-09-22 08:22:47			0	37799	0	0	0	23158	21750	161147	27258	1056659	46378	108531	0	0	8177	568352	0	0
2024-09-22 08:23:47			0	37794	0	0	0	23158	21750	160951	26942	1056659	46412	108531	0	0	8177	568552	0	0
2024-09-22 08:24:47			0	37812	0	0	0	23145	21750	160999	26833	1056633	46389	108526	0	0	8178	567832	0	0
2024-09-22 08:25:47			0	37792	0	0	0	23163	21750	161079	26915	1056686	46400	108533	0	0	8176	568632	0	0
2024-09-22 08:26:47			0	37807	0	0	0	23161	21750	161011	27071	1056659	46378	108532	0	0	8177	568032	0	0
2024-09-22 08:27:47			0	37804	0	0	0	23161	21740	161071	27124	1056677	46400	108532	0	0	8177	568183	0	0
2024-09-22 08:28:47			0	37797	0	0	0	23153	21740	161015	27216	1056677	46400	108529	0	0	8177	568464	0	0
2024-09-22 08:29:47			0	37806	0	0	0	23166	21750	160963	26948	1056606	46400	108534	0	0	8177	568072	0	0
2024-09-22 08:30:47			0	37801	0	0	0	23171	21750	160919	27152	1056695	46401	108536	0	0	8177	568272	0	0
2024-09-22 08:31:47			0	37804	0	0	0	23179	21760	160991	27116	1056677	46390	108539	0	0	8177	568120	0	0
2024-09-22 08:32:47			0	37815	0	0	0	23163	21760	160999	27027	1056766	46414	108533	0	0	8178	567680	0	0
2024-09-22 08:33:47			0	37807	0	0	0	23176	21740	161023	27005	1056704	46389	108538	0	0	8177	568063	0	0
2024-09-22 08:34:47			0	37801	0	0	0	23176	21750	161071	27119	1056713	46400	108538	0	0	8177	568272	0	0
2024-09-22 08:35:47			0	37810	0	0	0	23158	21750	160951	27365	1056722	46401	108531	0	0	8178	567912	0	0
2024-09-22 08:36:47			0	37822	0	0	0	23166	21760	160963	27267	1056660	46414	108534	0	0	8178	567400	0	0
2024-09-22 08:37:47			0	37808	0	0	0	23176	21760	160995	27118	1056704	46401	108538	0	0	8177	567960	0	0
2024-09-22 08:38:47			0	37822	0	0	0	23179	21750	160911	27255	1056686	46400	108539	0	0	8178	567432	0	0
2024-09-22 08:39:47			0	37813	0	0	0	23181	21760	160963	27209	1056704	46390	108540	0	0	8177	567760	0	0
2024-09-22 08:40:47			0	37801	0	0	0	23176	21760	160939	27258	1056686	46402	108538	0	0	8177	568240	0	0
2024-09-22 08:41:47			0	37799	0	0	0	23181	21760	160895	27031	1056757	46401	108540	0	0	8177	568320	0	0
2024-09-22 08:42:47			0	37795	0	0	0	23181	21760	160983	27173	1056740	46402	108540	0	0	8176	568481	0	0
2024-09-22 08:43:47			0	37788	0	0	0	23181	21760	161003	27209	1056704	46401	108540	0	0	8176	568761	0	0
2024-09-22 08:44:47			0	37798	0	0	0	23181	21760	161043	27147	1056731	46401	108540	0	0	8177	568360	0	0
2024-09-22 08:45:47			0	37800	0	0	0	23176	21760	160935	27473	1056740	46391	108538	0	0	8177	568280	0	0
2024-09-22 08:46:47			0	37797	0	0	0	23174	21760	161063	27320	1056713	46391	108537	0	0	8177	568400	0	0
2024-09-22 08:47:47			0	37790	0	0	0	23174	21760	161039	27258	1056740	46402	108537	0	0	8176	568681	0	0
2024-09-22 08:48:47			0	37798	0	0	0	23184	21760	161059	27218	1056740	46402	108541	0	0	8176	568360	0	0
2024-09-22 08:49:47			0	37773	0	0	0	23186	21760	161047	27543	1056704	46379	108542	0	0	8175	569362	0	0
2024-09-22 08:50:47			0	37803	0	0	0	23197	21770	161031	27079	1056722	46402	108546	0	0	8177	568129	0	0
2024-09-22 08:51:47			0	37790	0	0	0	23181	21770	161055	27010	1056802	46380	108540	0	0	8176	568649	0	0
2024-09-22 08:52:47			0	37784	0	0	0	23199	21770	160987	27306	1056784	46392	108547	0	0	8175	568889	0	0
2024-09-22 08:53:47			0	37791	0	0	0	23194	21770	161075	27069	1056757	46403	108545	0	0	8176	568609	0	0
2024-09-22 08:54:47			0	37798	0	0	0	23194	21770	161023	27053	1056864	46392	108545	0	0	8176	568329	0	0
2024-09-22 08:55:47			0	37801	0	0	0	23194	21770	160915	27189	1056802	46402	108545	0	0	8177	568209	0	0
2024-09-22 08:56:47			0	37806	0	0	0	23197	21770	161003	27178	1056757	46403	108546	0	0	8177	568008	0	0
2024-09-22 08:57:47			0	37798	0	0	0	23189	21780	161059	27348	1056740	46403	108543	0	0	8176	568297	0	0
2024-09-22 08:58:47			0	37796	0	0	0	23184	21780	160875	27379	1056882	46393	108541	0	0	8176	568377	0	0
2024-09-22 08:59:47			0	37779	0	0	0	23181	21770	160991	27255	1056837	46392	108540	0	0	8175	569090	0	0
2024-09-22 09:00:47			0	37813	0	0	0	23194	21770	160815	27246	1056784	46403	108545	0	0	8177	567728	0	0
2024-09-22 09:01:47			0	37812	0	0	0	23202	21770	160931	27202	1056802	46402	108548	0	0	8177	567768	0	0
2024-09-22 09:02:47			0	37819	0	0	0	23207	21770	160855	27407	1056837	46403	108550	0	0	8177	567488	0	0
2024-09-22 09:03:47			0	37826	0	0	0	23207	21780	160951	27131	1056846	46403	108550	0	0	8178	567177	0	0
2024-09-22 09:04:47			0	37826	0	0	0	23212	21780	160943	27327	1056882	46416	108552	0	0	8178	567177	0	0
2024-09-22 09:05:47			0	37839	0	0	0	23199	21780	160731	27261	1056820	46414	108547	0	0	8179	566657	0	0
2024-09-22 09:06:47			0	37848	0	0	0	23197	21790	160771	27455	1056926	46394	108546	0	0	8179	566266	0	0
2024-09-22 09:07:47			0	37842	0	0	0	23218	21790	160839	27317	1056873	46416	108554	0	0	8179	566506	0	0
2024-09-22 09:08:47			0	37823	0	0	0	23212	21790	160767	27364	1056891	46416	108552	0	0	8178	567265	0	0
2024-09-22 09:09:47			0	37846	0	0	0	23205	21790	160751	27204	1056891	46393	108549	0	0	8179	566346	0	0
2024-09-22 09:10:47			0	37844	0	0	0	23218	21790	160811	27286	1056891	46404	108554	0	0	8179	566426	0	0
2024-09-22 09:11:47			0	37845	0	0	0	23212	21800	160867	27048	1056935	46416	108552	0	0	8179	566354	0	0
2024-09-22 09:12:47			0	37860	0	0	0	23205	21790	160767	27383	1056873	46416	108549	0	0	8180	565787	0	0
2024-09-22 09:13:47			0	37875	0	0	0	23220	21800	160647	27533	1056909	46416	108555	0	0	8181	565157	0	0
2024-09-22 09:14:47			0	37864	0	0	0	23225	21790	160675	27436	1056926	46416	108557	0	0	8180	565627	0	0
2024-09-22 09:15:47			0	37865	0	0	0	23228	21800	160683	27298	1056944	46406	108558	0	0	8180	565556	0	0
2024-09-22 09:16:47			0	37867	0	0	0	23225	21800	160683	27131	1056891	46395	108557	0	0	8180	565476	0	0
2024-09-22 09:17:47			0	37856	0	0	0	23220	21810	160719	27516	1056980	46406	108555	0	0	8180	565884	0	0
2024-09-22 09:18:47			0	37884	0	0	0	23228	21790	160727	27336	1056873	46405	108558	0	0	8181	564829	0	0
2024-09-22 09:19:47			0	37856	0	0	0	23231	21800	160615	27225	1056971	46395	108559	0	0	8179	565915	0	0
2024-09-22 09:20:47			0	37885	0	0	0	23233	21810	160699	27076	1056927	46406	108560	0	0	8181	564727	0	0
2024-09-22 09:21:47			0	37869	0	0	0	23225	21810	160723	27303	1057007	46417	108557	0	0	8180	565365	0	0
2024-09-22 09:22:47			0	37903	0	0	0	23220	21800	160607	27400	1056989	46405	108555	0	0	8182	564040	0	0
2024-09-22 09:23:47			0	37900	0	0	0	23241	21800	160619	27315	1056971	46406	108563	0	0	8182	564160	0	0
2024-09-22 09:24:47			0	37899	0	0	0	23238	21810	160611	27407	1056936	46407	108562	0	0	8182	564168	0	0
2024-09-22 09:25:47			0	37888	0	0	0	23244	21810	160699	27566	1056953	46406	108564	0	0	8181	564607	0	0
2024-09-22 09:26:47			0	37898	0	0	0	23244	21820	160635	27331	1056998	46397	108564	0	0	8182	564177	0	0
2024-09-22 09:27:47			0	37909	0	0	0	23236	21820	160527	27209	1056998	46408	108561	0	0	8182	563739	0	0
2024-09-22 09:28:47			0	37923	0	0	0	23251	21820	160571	27390	1056998	46408	108567	0	0	8183	563181	0	0
2024-09-22 09:29:47			0	37904	0	0	0	23249	21820	160639	27272	1056971	46397	108566	0	0	8182	563938	0	0
2024-09-22 09:30:47			0	37914	0	0	0	23249	21820	160531	27559	1056998	46419	108566	0	0	8182	563539	0	0
2024-09-22 09:31:47			0	37943	0	0	0	23249	21830	160543	27365	1057069	46409	108566	0	0	8184	562354	0	0
2024-09-22 09:32:47			0	37937	0	0	0	23257	21820	160519	27180	1057033	46397	108569	0	0	8184	562624	0	0
2024-09-22 09:33:47			0	37935	0	0	0	23257	21820	160547	27668	1057051	46408	108569	0	0	8184	562704	0	0
2024-09-22 09:34:47			0	37948	0	0	0	23249	21830	160535	27213	1057096	46398	108566	0	0	8185	562155	0	0
2024-09-22 09:35:47			0	37944	0	0	0	23259	21830	160523	27609	1057069	46409	108570	0	0	8184	562314	0	0
2024-09-22 09:36:47			0	37951	0	0	0	23267	21840	160507	27407	1057141	46399	108573	0	0	8184	562005	0	0
2024-09-22 09:37:47			0	37930	0	0	0	23264	21830	160551	27531	1057096	46409	108572	0	0	8183	562871	0	0
2024-09-22 09:38:47			0	37939	0	0	0	23264	21840	160595	27469	1057114	46432	108572	0	0	8184	562482	0	0
2024-09-22 09:39:47			0	37949	0	0	0	23262	21830	160495	27731	1057132	46409	108571	0	0	8184	562116	0	0
2024-09-22 09:40:47			0	37958	0	0	0	23264	21830	160427	27403	1057052	46409	108572	0	0	8185	561758	0	0
2024-09-22 09:41:47			0	37951	0	0	0	23262	21840	160475	27322	1057150	46432	108571	0	0	8185	562005	0	0
2024-09-22 09:42:47			0	37950	0	0	0	23275	21840	160407	27452	1057150	46410	108576	0	0	8184	562044	0	0
2024-09-22 09:43:47			0	37954	0	0	0	23270	21850	160459	27253	1057185	46422	108574	0	0	8185	561854	0	0
2024-09-22 09:44:47			0	37946	0	0	0	23262	21850	160359	27239	1057185	46422	108571	0	0	8184	562172	0	0
2024-09-22 09:45:47			0	37958	0	0	0	23272	21850	160351	27284	1057167	46411	108575	0	0	8185	561695	0	0
2024-09-22 09:46:47			0	37951	0	0	0	23283	21850	160319	27241	1057194	46411	108579	0	0	8184	561973	0	0
2024-09-22 09:47:47			0	37969	0	0	0	23285	21850	160283	27313	1057212	46422	108580	0	0	8185	561258	0	0
2024-09-22 09:48:47			0	37999	0	0	0	23285	21850	160287	27294	1057221	46422	108580	0	0	8187	560068	0	0
2024-09-22 09:49:47			0	37992	0	0	0	23290	21860	160167	27189	1057185	46402	108582	0	0	8187	560314	0	0
2024-09-22 09:50:47			0	37991	0	0	0	23288	21860	160251	27490	1057256	46412	108581	0	0	8187	560354	0	0
2024-09-22 09:51:47			0	37994	0	0	0	23288	21870	160291	27338	1057274	46413	108581	0	0	8187	560204	0	0
2024-09-22 09:52:47			0	37999	0	0	0	23290	21860	160239	27097	1057212	46413	108582	0	0	8187	560036	0	0
2024-09-22 09:53:47			0	38015	0	0	0	23285	21870	160291	27396	1057274	46413	108580	0	0	8188	559371	0	0
2024-09-22 09:54:47			0	38009	0	0	0	23285	21860	160227	27256	1057292	46413	108580	0	0	8188	559640	0	0
2024-09-22 09:55:47			0	37990	0	0	0	23280	21860	160223	27168	1057292	46424	108578	0	0	8187	560393	0	0
2024-09-22 09:56:47			0	37994	0	0	0	23280	21860	160219	27454	1057230	46412	108578	0	0	8187	560235	0	0
2024-09-22 09:57:47			0	37989	0	0	0	23288	21870	160163	27300	1057194	46413	108581	0	0	8186	560402	0	0
2024-09-22 09:58:47			0	38003	0	0	0	23285	21870	160215	27403	1057248	46402	108580	0	0	8187	559847	0	0
2024-09-22 09:59:47			0	37998	0	0	0	23277	21860	160187	27206	1057212	46413	108577	0	0	8187	560076	0	0
2024-09-22 10:00:47			0	37999	0	0	0	23280	21870	160231	27687	1057221	46402	108578	0	0	8187	560005	0	0
2024-09-22 10:01:47			0	37988	0	0	0	23288	21870	160267	27079	1057248	46413	108581	0	0	8186	560442	0	0
2024-09-22 10:02:47			0	37985	0	0	0	23283	21860	160255	27332	1057239	46413	108579	0	0	8186	560592	0	0
2024-09-22 10:03:47			0	37985	0	0	0	23303	21870	160199	27351	1057274	46413	108587	0	0	8186	560561	0	0
2024-09-22 10:04:47			0	37978	0	0	0	23293	21870	160223	27291	1057301	46413	108583	0	0	8186	560838	0	0
2024-09-22 10:05:47			0	37979	0	0	0	23298	21880	160267	27019	1057292	46414	108585	0	0	8186	560767	0	0
2024-09-22 10:06:47			0	38000	0	0	0	23303	21880	160195	27530	1057399	46414	108587	0	0	8187	559934	0	0
2024-09-22 10:07:47			0	37991	0	0	0	23301	21870	160275	27319	1057310	46413	108586	0	0	8186	560322	0	0
2024-09-22 10:08:47			0	37998	0	0	0	23301	21860	160163	27244	1057265	46424	108586	0	0	8187	560076	0	0
2024-09-22 10:09:47			0	38010	0	0	0	23296	21880	160163	26975	1057239	46414	108584	0	0	8188	559538	0	0
2024-09-22 10:10:47			0	38007	0	0	0	23303	21880	160127	27038	1057328	46415	108587	0	0	8187	559657	0	0
2024-09-22 10:11:47			0	38008	0	0	0	23303	21880	160163	27381	1057372	46414	108587	0	0	8187	559617	0	0
2024-09-22 10:12:47			0	38010	0	0	0	23309	21880	160207	27357	1057328	46415	108589	0	0	8187	559538	0	0
2024-09-22 10:13:47			0	38029	0	0	0	23316	21880	160120	27526	1057381	46426	108592	0	0	8188	558785	0	0
2024-09-22 10:14:47			0	38018	0	0	0	23301	21880	160095	27303	1057301	46415	108586	0	0	8188	559221	0	0
2024-09-22 10:15:47			0	38025	0	0	0	23301	21890	160003	27244	1057363	46393	108586	0	0	8188	558912	0	0
2024-09-22 10:16:47			0	38033	0	0	0	23314	21880	160160	27467	1057328	46415	108591	0	0	8189	558627	0	0
2024-09-22 10:17:47			0	38025	0	0	0	23311	21890	160119	27026	1057363	46426	108590	0	0	8188	558912	0	0
2024-09-22 10:18:47			0	38036	0	0	0	23306	21880	160052	27137	1057354	46415	108588	0	0	8189	558508	0	0
2024-09-22 10:19:47			0	38015	0	0	0	23309	21900	160091	27135	1057408	46416	108589	0	0	8188	559278	0	0
2024-09-22 10:20:47			0	38027	0	0	0	23311	21900	160160	27282	1057408	46427	108590	0	0	8188	558802	0	0
2024-09-22 10:21:47			0	38028	0	0	0	23314	21890	160019	27286	1057452	46404	108591	0	0	8188	558794	0	0
2024-09-22 10:22:47			0	38018	0	0	0	23319	21890	160071	27310	1057363	46426	108593	0	0	8188	559190	0	0
2024-09-22 10:23:47			0	38022	0	0	0	23322	21900	160203	27346	1057461	46416	108594	0	0	8188	559000	0	0
2024-09-22 10:24:47			0	38021	0	0	0	23316	21900	160091	27173	1057470	46416	108592	0	0	8188	559040	0	0
2024-09-22 10:25:47			0	38028	0	0	0	23322	21900	160024	26941	1057488	46416	108594	0	0	8188	558762	0	0
2024-09-22 10:26:47			0	38030	0	0	0	23314	21890	160040	27639	1057372	46404	108591	0	0	8188	558714	0	0
2024-09-22 10:27:47			0	38038	0	0	0	23319	21910	160024	27286	1057399	46416	108593	0	0	8189	558336	0	0
2024-09-22 10:28:47			0	38030	0	0	0	23329	21890	159976	27166	1057452	46415	108597	0	0	8188	558714	0	0
2024-09-22 10:29:47			0	38057	0	0	0	23332	21910	160056	27329	1057452	46416	108598	0	0	8190	557584	0	0
2024-09-22 10:30:47			0	38039	0	0	0	23332	21910	160036	27374	1057488	46429	108598	0	0	8189	558296	0	0
2024-09-22 10:31:47			0	38052	0	0	0	23329	21910	159956	27281	1057452	46416	108597	0	0	8190	557782	0	0
2024-09-22 10:32:47			0	38053	0	0	0	23329	21910	159912	27218	1057488	46407	108597	0	0	8190	557742	0	0
2024-09-22 10:33:47			0	38054	0	0	0	23332	21910	159940	27388	1057506	46406	108598	0	0	8190	557702	0	0
2024-09-22 10:34:47			0	38061	0	0	0	23335	21910	159988	27008	1057515	46417	108599	0	0	8190	557426	0	0
2024-09-22 10:35:47			0	38060	0	0	0	23342	21910	159992	27362	1057532	46416	108602	0	0	8190	557465	0	0
2024-09-22 10:36:47			0	38071	0	0	0	23340	21920	159828	27455	1057559	46430	108601	0	0	8191	556999	0	0
2024-09-22 10:37:47			0	38058	0	0	0	23342	21920	160000	27460	1057559	46419	108602	0	0	8190	557513	0	0
2024-09-22 10:38:47			0	38043	0	0	0	23342	21920	159868	27637	1057550	46417	108602	0	0	8189	558107	0	0
2024-09-22 10:39:47			0	38079	0	0	0	23353	21920	159964	27653	1057559	46408	108606	0	0	8191	556683	0	0
2024-09-22 10:40:47			0	38050	0	0	0	23350	21930	159860	27248	1057515	46420	108605	0	0	8189	557799	0	0
2024-09-22 10:41:47			0	38062	0	0	0	23348	21920	159812	27485	1057550	46417	108604	0	0	8190	557355	0	0
2024-09-22 10:42:47			0	38079	0	0	0	23348	21930	159892	27261	1057541	46431	108604	0	0	8191	556652	0	0
2024-09-22 10:43:47			0	38068	0	0	0	23350	21930	159844	27334	1057568	46420	108605	0	0	8190	557087	0	0
2024-09-22 10:44:47			0	38083	0	0	0	23342	21940	159848	27327	1057639	46420	108602	0	0	8191	556463	0	0
2024-09-22 10:45:47			0	38094	0	0	0	23353	21930	159804	27416	1057550	46409	108606	0	0	8192	556060	0	0
2024-09-22 10:46:47			0	38106	0	0	0	23350	21940	159816	27355	1057559	46420	108605	0	0	8193	555555	0	0
2024-09-22 10:47:47			0	38118	0	0	0	23350	21930	159736	27604	1057568	46420	108605	0	0	8193	555113	0	0
2024-09-22 10:48:47			0	38093	0	0	0	23358	21920	159636	27743	1057506	46408	108608	0	0	8192	556130	0	0
2024-09-22 10:49:47			0	38113	0	0	0	23358	21930	159756	27218	1057621	46420	108608	0	0	8193	555310	0	0
2024-09-22 10:50:47			0	38111	0	0	0	23345	21930	159784	27433	1057621	46431	108603	0	0	8193	555389	0	0
2024-09-22 10:51:47			0	38105	0	0	0	23361	21940	159768	27341	1057586	46431	108609	0	0	8192	555595	0	0
2024-09-22 10:52:47			0	38101	0	0	0	23348	21940	159764	27241	1057613	46420	108604	0	0	8192	555752	0	0
2024-09-22 10:53:47			0	38103	0	0	0	23363	21930	159636	27512	1057577	46420	108610	0	0	8192	555705	0	0
2024-09-22 10:54:47			0	38108	0	0	0	23371	21930	159624	27315	1057657	46420	108613	0	0	8192	555507	0	0
2024-09-22 10:55:47			0	38122	0	0	0	23371	21940	159596	27416	1057639	46409	108613	0	0	8193	554924	0	0
2024-09-22 10:56:47			0	38134	0	0	0	23373	21950	159692	27433	1057604	46411	108614	0	0	8194	554420	0	0
2024-09-22 10:57:47			0	38118	0	0	0	23371	21940	159576	27310	1057666	46420	108613	0	0	8193	555082	0	0
2024-09-22 10:58:47			0	38105	0	0	0	23363	21940	159608	27355	1057702	46410	108610	0	0	8192	555595	0	0
2024-09-22 10:59:47			0	38125	0	0	0	23366	21940	159580	27393	1057675	46432	108611	0	0	8193	554806	0	0
2024-09-22 11:00:47			0	38146	0	0	0	23366	21950	159644	27177	1057720	46421	108611	0	0	8195	553948	0	0
2024-09-22 11:01:47			0	38135	0	0	0	23371	21950	159588	27396	1057667	46421	108613	0	0	8194	554381	0	0
2024-09-22 11:02:47			0	38136	0	0	0	23379	21940	159620	27545	1057728	46421	108616	0	0	8194	554372	0	0
2024-09-22 11:03:47			0	38129	0	0	0	23366	21950	159536	27428	1057720	46421	108611	0	0	8194	554617	0	0
2024-09-22 11:04:47			0	38134	0	0	0	23373	21960	159476	27248	1057622	46421	108614	0	0	8194	554390	0	0
2024-09-22 11:05:47			0	38145	0	0	0	23379	21950	159480	27383	1057684	46421	108616	0	0	8194	553987	0	0
2024-09-22 11:06:47			0	38145	0	0	0	23376	21960	159456	27265	1057684	46434	108615	0	0	8194	553956	0	0
2024-09-22 11:07:47			0	38150	0	0	0	23379	21950	159480	27580	1057640	46433	108616	0	0	8195	553790	0	0
2024-09-22 11:08:47			0	38146	0	0	0	23376	21960	159472	27644	1057755	46421	108615	0	0	8195	553917	0	0
2024-09-22 11:09:47			0	38157	0	0	0	23376	21940	159440	27543	1057648	46432	108615	0	0	8195	553545	0	0
2024-09-22 11:10:47			0	38157	0	0	0	23376	21950	159504	27737	1057693	46421	108615	0	0	8195	553515	0	0
2024-09-22 11:11:47			0	38156	0	0	0	23371	21960	159496	27518	1057684	46423	108613	0	0	8195	553523	0	0
2024-09-22 11:12:47			0	38155	0	0	0	23379	21970	159488	27588	1057747	46424	108616	0	0	8195	553532	0	0
2024-09-22 11:13:47			0	38159	0	0	0	23379	21960	159456	27372	1057729	46411	108616	0	0	8195	553405	0	0
2024-09-22 11:14:47			0	38152	0	0	0	23384	21960	159484	27170	1057711	46445	108618	0	0	8195	553681	0	0
2024-09-22 11:15:47			0	38141	0	0	0	23371	21960	159336	27128	1057755	46421	108613	0	0	8194	554114	0	0
2024-09-22 11:16:47			0	38151	0	0	0	23381	21960	159420	27208	1057729	46433	108617	0	0	8195	553720	0	0
2024-09-22 11:17:47			0	38166	0	0	0	23379	21950	159360	27376	1057773	46433	108616	0	0	8196	553160	0	0
2024-09-22 11:18:47			0	38136	0	0	0	23376	21960	159480	27467	1057738	46434	108615	0	0	8194	554311	0	0
2024-09-22 11:19:47			0	38141	0	0	0	23384	21960	159476	27310	1057684	46423	108618	0	0	8194	554114	0	0
2024-09-22 11:20:47			0	38156	0	0	0	23376	21960	159472	27147	1057755	46421	108615	0	0	8195	553523	0	0
2024-09-22 11:21:47			0	38146	0	0	0	23381	21970	159456	27329	1057747	46413	108617	0	0	8195	553886	0	0
2024-09-22 11:22:47			0	38148	0	0	0	23371	21960	159508	27338	1057791	46412	108613	0	0	8195	553838	0	0
2024-09-22 11:23:47			0	38131	0	0	0	23379	21960	159480	27346	1057755	46421	108616	0	0	8194	554508	0	0
2024-09-22 11:24:47			0	38142	0	0	0	23371	21960	159408	27142	1057729	46421	108613	0	0	8194	554074	0	0
2024-09-22 11:25:47			0	38125	0	0	0	23386	21950	159544	27201	1057720	46421	108619	0	0	8193	554775	0	0
2024-09-22 11:26:47			0	38139	0	0	0	23381	21970	159588	27485	1057773	46424	108617	0	0	8194	554162	0	0
2024-09-22 11:27:47			0	38142	0	0	0	23389	21970	159504	27440	1057773	46424	108620	0	0	8194	554044	0	0
2024-09-22 11:28:47			0	38120	0	0	0	23376	21960	159516	27360	1057729	46421	108615	0	0	8193	554941	0	0
2024-09-22 11:29:47			0	38126	0	0	0	23389	21960	159508	27327	1057791	46423	108620	0	0	8193	554705	0	0
2024-09-22 11:30:47			0	38141	0	0	0	23381	21970	159420	27265	1057800	46424	108617	0	0	8194	554083	0	0
2024-09-22 11:31:47			0	38127	0	0	0	23381	21970	159500	27358	1057800	46424	108617	0	0	8193	554634	0	0
2024-09-22 11:32:47			0	38126	0	0	0	23386	21970	159520	27620	1057720	46424	108619	0	0	8193	554674	0	0
2024-09-22 11:33:47			0	38126	0	0	0	23379	21970	159536	27211	1057756	46435	108616	0	0	8193	554674	0	0
2024-09-22 11:34:47			0	38149	0	0	0	23381	21970	159520	27282	1057836	46424	108617	0	0	8195	553768	0	0
2024-09-22 11:35:47			0	38131	0	0	0	23379	21960	159488	27282	1057764	46423	108616	0	0	8194	554508	0	0
2024-09-22 11:36:47			0	38127	0	0	0	23381	21970	159520	27185	1057827	46435	108617	0	0	8193	554634	0	0
2024-09-22 11:37:47			0	38126	0	0	0	23384	21970	159564	27206	1057782	46435	108618	0	0	8193	554674	0	0
2024-09-22 11:38:47			0	38121	0	0	0	23381	21980	159540	27078	1057854	46425	108617	0	0	8193	554840	0	0
2024-09-22 11:39:47			0	38131	0	0	0	23379	21960	159468	27320	1057738	46423	108616	0	0	8194	554508	0	0
2024-09-22 11:40:47			0	38129	0	0	0	23392	21980	159396	27291	1057791	46424	108621	0	0	8193	554525	0	0
2024-09-22 11:41:47			0	38126	0	0	0	23386	21970	159384	27222	1057809	46413	108619	0	0	8193	554674	0	0
2024-09-22 11:42:47			0	38132	0	0	0	23397	21970	159380	27405	1057800	46413	108623	0	0	8193	554437	0	0
2024-09-22 11:43:47			0	38154	0	0	0	23402	21970	159436	27149	1057836	46413	108625	0	0	8195	553571	0	0
2024-09-22 11:44:47			0	38131	0	0	0	23402	21970	159520	27175	1057809	46435	108625	0	0	8193	554477	0	0
2024-09-22 11:45:47			0	38146	0	0	0	23402	21970	159476	27074	1057862	46424	108625	0	0	8194	553886	0	0
2024-09-22 11:46:47			0	38151	0	0	0	23415	21970	159400	27568	1057889	46413	108630	0	0	8194	553689	0	0
2024-09-22 11:47:47			0	38162	0	0	0	23425	21980	159308	27545	1057818	46435	108634	0	0	8195	553225	0	0
2024-09-22 11:48:47			0	38154	0	0	0	23438	21980	159340	27360	1057934	46425	108639	0	0	8194	553540	0	0
2024-09-22 11:49:47			0	38164	0	0	0	23449	21990	159368	27199	1057943	46448	108643	0	0	8194	553116	0	0
2024-09-22 11:50:47			0	38188	0	0	0	23459	21990	159236	27505	1058031	46449	108647	0	0	8196	552172	0	0
2024-09-22 11:51:47			0	38195	0	0	0	23462	22010	159268	27343	1058049	46438	108648	0	0	8196	551836	0	0
2024-09-22 11:52:47			0	38207	0	0	0	23464	22020	159248	27322	1058103	46451	108649	0	0	8197	551333	0	0
2024-09-22 11:53:47			0	38210	0	0	0	23472	22020	159208	27405	1058067	46429	108652	0	0	8197	551216	0	0
2024-09-22 11:54:47			0	38229	0	0	0	23477	22020	159160	27493	1058156	46451	108654	0	0	8198	550470	0	0
2024-09-22 11:55:47			0	38241	0	0	0	23480	22030	159076	27209	1058218	46461	108655	0	0	8199	549969	0	0
2024-09-22 11:56:47			0	38246	0	0	0	23477	22030	158912	27421	1058112	46429	108654	0	0	8199	549773	0	0
2024-09-22 11:57:47			0	38259	0	0	0	23475	22030	158912	27308	1058121	46441	108653	0	0	8200	549264	0	0
2024-09-22 11:58:47			0	38259	0	0	0	23480	22040	158904	27194	1058210	46442	108655	0	0	8200	549233	0	0
2024-09-22 11:59:47			0	38260	0	0	0	23490	22040	158888	27322	1058165	46431	108659	0	0	8200	549194	0	0
2024-09-22 12:00:47			0	38298	0	0	0	23506	22050	158724	27265	1058263	46443	108665	0	0	8202	547677	0	0
2024-09-22 12:01:47			0	38313	0	0	0	23506	22050	158644	27298	1058210	46443	108665	0	0	8202	547090	0	0
2024-09-22 12:02:47			0	38315	0	0	0	23503	22050	158652	27658	1058263	46443	108664	0	0	8203	547012	0	0
2024-09-22 12:03:47			0	38334	0	0	0	23511	22060	158700	27395	1058299	46444	108667	0	0	8204	546240	0	0
2024-09-22 12:04:47			0	38338	0	0	0	23511	22070	158532	27123	1058290	46445	108667	0	0	8204	546053	0	0
2024-09-22 12:05:47			0	38333	0	0	0	23516	22060	158640	27227	1058308	46456	108669	0	0	8204	546279	0	0
2024-09-22 12:06:47			0	38340	0	0	0	23519	22060	158596	27440	1058281	46445	108670	0	0	8204	546006	0	0
2024-09-22 12:07:47			0	38312	0	0	0	23467	22070	158612	27291	1058264	46445	108650	0	0	8203	547068	0	0
2024-09-22 12:08:47			0	38316	0	0	0	23493	22070	158640	27514	1058273	46422	108660	0	0	8203	546912	0	0
2024-09-22 12:09:47			0	38286	0	0	0	23493	22080	158524	27109	1058255	46423	108660	0	0	8201	548054	0	0
2024-09-22 12:10:47			0	38306	0	0	0	23483	22070	158664	27447	1058246	46434	108656	0	0	8203	547303	0	0
2024-09-22 12:11:47			0	38298	0	0	0	23519	22070	158676	27338	1058264	46445	108670	0	0	8201	547615	0	0
2024-09-22 12:12:47			0	38293	0	0	0	23527	22080	158732	27630	1058344	46436	108673	0	0	8201	547780	0	0
2024-09-22 12:13:47			0	38316	0	0	0	23519	22080	158732	27464	1058335	46435	108670	0	0	8203	546881	0	0
2024-09-22 12:14:47			0	38322	0	0	0	23514	22080	158624	27381	1058309	46457	108668	0	0	8203	546647	0	0
2024-09-22 12:15:47			0	38338	0	0	0	23524	22080	158548	27377	1058424	46447	108672	0	0	8204	546023	0	0
2024-09-22 12:16:47			0	38353	0	0	0	23519	22080	158452	27402	1058371	46436	108670	0	0	8205	545438	0	0
2024-09-22 12:17:47			0	38327	0	0	0	23514	22100	158524	27102	1058344	46448	108668	0	0	8203	546391	0	0
2024-09-22 12:18:47			0	38341	0	0	0	23519	22090	158544	27405	1058407	46436	108670	0	0	8204	545875	0	0
2024-09-22 12:19:47			0	38346	0	0	0	23527	22100	158500	27431	1058424	46448	108673	0	0	8204	545650	0	0
2024-09-22 12:20:47			0	38321	0	0	0	23535	22090	158548	27268	1058389	46447	108676	0	0	8203	546656	0	0
2024-09-22 12:21:47			0	38340	0	0	0	23509	22110	158464	26970	1058469	46449	108666	0	0	8204	545853	0	0
2024-09-22 12:22:47			0	38339	0	0	0	23503	22110	158536	27201	1058442	46426	108664	0	0	8204	545892	0	0
2024-09-22 12:23:47			0	38336	0	0	0	23493	22090	158568	27371	1058442	46424	108660	0	0	8204	546070	0	0
2024-09-22 12:24:47			0	38310	0	0	0	23488	22090	158596	27052	1058389	46424	108658	0	0	8203	547085	0	0
2024-09-22 12:25:47			0	38318	0	0	0	23475	22100	158596	27303	1058424	46425	108653	0	0	8204	546742	0	0
2024-09-22 12:26:47			0	38305	0	0	0	23485	22090	158564	27222	1058353	46436	108657	0	0	8203	547281	0	0
2024-09-22 12:27:47			0	38296	0	0	0	23506	22090	158636	27538	1058362	46436	108665	0	0	8202	547632	0	0
2024-09-22 12:28:47			0	38278	0	0	0	23524	22110	158720	27336	1058549	46426	108672	0	0	8200	548275	0	0
2024-09-22 12:29:47			0	38293	0	0	0	23532	22110	158736	27452	1058469	46438	108675	0	0	8201	547689	0	0
2024-09-22 12:30:47			0	38339	0	0	0	23553	22090	158552	27495	1058496	46447	108683	0	0	8203	545953	0	0
2024-09-22 12:31:47			0	38354	0	0	0	23540	22120	158588	27443	1058487	46439	108678	0	0	8205	545277	0	0
2024-09-22 12:32:47			0	38356	0	0	0	23553	22110	158464	27422	1058585	46438	108683	0	0	8204	545230	0	0
2024-09-22 12:33:47			0	38349	0	0	0	23568	22120	158532	27486	1058629	46440	108689	0	0	8204	545472	0	0
2024-09-22 12:34:47			0	38384	0	0	0	23589	22120	158444	27424	1058603	46451	108697	0	0	8206	544108	0	0
2024-09-22 12:35:47			0	38393	0	0	0	23597	22140	158296	27168	1058683	46474	108700	0	0	8206	543697	0	0
2024-09-22 12:36:47			0	38415	0	0	0	23584	22130	158116	27409	1058674	46462	108695	0	0	8207	542872	0	0
2024-09-22 12:37:47			0	38448	0	0	0	23550	22140	158036	27194	1058665	46453	108682	0	0	8210	541560	0	0
2024-09-22 12:38:47			0	38470	0	0	0	23561	22150	157980	27306	1058727	46454	108686	0	0	8211	540676	0	0
2024-09-22 12:39:47			0	38456	0	0	0	23586	22160	157956	27315	1058719	46464	108696	0	0	8210	541189	0	0
2024-09-22 12:40:47			0	38452	0	0	0	23574	22160	157928	27173	1058745	46454	108691	0	0	8210	541344	0	0
2024-09-22 12:41:47			0	38448	0	0	0	23571	22150	157920	27282	1058763	46454	108690	0	0	8210	541529	0	0
2024-09-22 12:42:47			0	38470	0	0	0	23558	22160	157984	26802	1058728	46433	108685	0	0	8211	540646	0	0
2024-09-22 12:43:47			0	38467	0	0	0	23509	22160	157868	27182	1058808	46444	108666	0	0	8212	540762	0	0
2024-09-22 12:44:47			0	38468	0	0	0	23485	22160	157864	27067	1058665	46431	108657	0	0	8212	540723	0	0
2024-09-22 12:45:47			0	38456	0	0	0	23477	22150	157916	27312	1058647	46443	108654	0	0	8212	541219	0	0
2024-09-22 12:46:47			0	38448	0	0	0	23498	22150	157928	27147	1058576	46431	108662	0	0	8211	541529	0	0
2024-09-22 12:47:47			0	38422	0	0	0	23496	22150	158128	27235	1058621	46431	108661	0	0	8209	542539	0	0
2024-09-22 12:48:47			0	38396	0	0	0	23496	22130	158156	27284	1058620	46441	108661	0	0	8208	543611	0	0
2024-09-22 12:49:47			0	38372	0	0	0	23493	22140	158200	27230	1058532	46430	108660	0	0	8207	544515	0	0
2024-09-22 12:50:47			0	38390	0	0	0	23511	22140	158348	27164	1058523	46441	108667	0	0	8207	543814	0	0
2024-09-22 12:51:47			0	38355	0	0	0	23519	22130	158320	27187	1058594	46429	108670	0	0	8205	545208	0	0
2024-09-22 12:52:47			0	38348	0	0	0	23535	22130	158388	27384	1058514	46429	108676	0	0	8204	545480	0	0
2024-09-22 12:53:47			0	38366	0	0	0	23540	22130	158380	27447	1058514	46429	108678	0	0	8205	544779	0	0
2024-09-22 12:54:47			0	38361	0	0	0	23550	22130	158272	27410	1058647	46441	108682	0	0	8205	544974	0	0
2024-09-22 12:55:47			0	38370	0	0	0	23550	22130	158288	27455	1058647	46441	108682	0	0	8205	544623	0	0
2024-09-22 12:56:47			0	38400	0	0	0	23571	22140	158312	27369	1058638	46442	108690	0	0	8207	543425	0	0
2024-09-22 12:57:47			0	38398	0	0	0	23524	22140	158192	27267	1058665	46453	108672	0	0	8208	543503	0	0
2024-09-22 12:58:47			0	38418	0	0	0	23535	22140	158124	27343	1058638	46453	108676	0	0	8209	542725	0	0
2024-09-22 12:59:47			0	38421	0	0	0	23558	22140	158056	27384	1058656	46452	108685	0	0	8208	542608	0	0
2024-09-22 13:00:47			0	38442	0	0	0	23594	22140	158060	27850	1058692	46442	108699	0	0	8209	541793	0	0
2024-09-22 13:01:47			0	38454	0	0	0	23586	22150	157988	27260	1058727	46475	108696	0	0	8210	541297	0	0
2024-09-22 13:02:47			0	38469	0	0	0	23594	22150	157864	27736	1058790	46443	108699	0	0	8211	540715	0	0
2024-09-22 13:03:47			0	38487	0	0	0	23584	22150	157840	27211	1058781	46431	108695	0	0	8212	540017	0	0
2024-09-22 13:04:47			0	38511	0	0	0	23584	22160	157748	27779	1058719	46464	108695	0	0	8213	539057	0	0
2024-09-22 13:05:47			0	38536	0	0	0	23566	22150	157704	27402	1058754	46464	108688	0	0	8215	538120	0	0
2024-09-22 13:06:47			0	38514	0	0	0	23584	22150	157732	27424	1058790	46431	108695	0	0	8213	538972	0	0
2024-09-22 13:07:47			0	38517	0	0	0	23594	22150	157820	27351	1058790	46443	108699	0	0	8213	538855	0	0
2024-09-22 13:08:47			0	38500	0	0	0	23584	22160	157888	27343	1058808	46455	108695	0	0	8213	539483	0	0
2024-09-22 13:09:47			0	38470	0	0	0	23584	22170	157868	27403	1058790	46456	108695	0	0	8211	540616	0	0
2024-09-22 13:10:47			0	38489	0	0	0	23584	22160	157840	27371	1058834	46444	108695	0	0	8212	539910	0	0
2024-09-22 13:11:47			0	38491	0	0	0	23566	22170	157840	27135	1058799	46456	108688	0	0	8212	539802	0	0
2024-09-22 13:12:47			0	38459	0	0	0	23568	22170	157856	27190	1058816	46445	108689	0	0	8210	541042	0	0
2024-09-22 13:13:47			0	38452	0	0	0	23561	22170	157904	27282	1058736	46434	108686	0	0	8210	541314	0	0
2024-09-22 13:14:47			0	38442	0	0	0	23592	22160	157972	27287	1058781	46444	108698	0	0	8209	541732	0	0
2024-09-22 13:15:47			0	38485	0	0	0	23558	22170	157840	27216	1058763	46445	108685	0	0	8212	540034	0	0
2024-09-22 13:16:47			0	38483	0	0	0	23532	22170	157832	27249	1058763	46456	108675	0	0	8212	540112	0	0
2024-09-22 13:17:47			0	38468	0	0	0	23535	22160	157908	27223	1058745	46431	108676	0	0	8212	540723	0	0
2024-09-22 13:18:47			0	38448	0	0	0	23563	22160	157920	27364	1058701	46444	108687	0	0	8210	541499	0	0
2024-09-22 13:19:47			0	38446	0	0	0	23540	22160	157952	27260	1058639	46431	108678	0	0	8210	541577	0	0
2024-09-22 13:20:47			0	38439	0	0	0	23535	22150	157948	27362	1058647	46443	108676	0	0	8210	541879	0	0
2024-09-22 13:21:47			0	38433	0	0	0	23535	22140	157972	27312	1058638	46430	108676	0	0	8209	542142	0	0
2024-09-22 13:22:47			0	38414	0	0	0	23607	22150	158244	27424	1058647	46431	108704	0	0	8207	542850	0	0
2024-09-22 13:23:47			0	38430	0	0	0	23576	22150	158088	27471	1058710	46454	108692	0	0	8209	542229	0	0
2024-09-22 13:24:47			0	38442	0	0	0	23581	22160	158080	27313	1058719	46443	108694	0	0	8209	541732	0	0
2024-09-22 13:25:47			0	38449	0	0	0	23561	22150	158076	27088	1058736	46443	108686	0	0	8210	541491	0	0
2024-09-22 13:26:47			0	38463	0	0	0	23568	22150	157992	27218	1058656	46454	108689	0	0	8211	540947	0	0
2024-09-22 13:27:47			0	38455	0	0	0	23558	22150	157920	27332	1058710	46454	108685	0	0	8210	541258	0	0
2024-09-22 13:28:47			0	38461	0	0	0	23579	22160	157948	27277	1058701	46433	108693	0	0	8210	540995	0	0
2024-09-22 13:29:47			0	38452	0	0	0	23568	22150	157900	27424	1058736	46454	108689	0	0	8210	541374	0	0
2024-09-22 13:30:47			0	38449	0	0	0	23576	22160	157984	27441	1058728	46455	108692	0	0	8210	541460	0	0
2024-09-22 13:31:47			0	38453	0	0	0	23574	22160	157952	27531	1058754	46433	108691	0	0	8210	541305	0	0
2024-09-22 13:32:47			0	38430	0	0	0	23579	22150	157976	27187	1058736	46443	108693	0	0	8209	542229	0	0
2024-09-22 13:33:47			0	38439	0	0	0	23584	22160	158064	27429	1058719	46454	108695	0	0	8209	541849	0	0
2024-09-22 13:34:47			0	38428	0	0	0	23568	22160	158048	27450	1058754	46455	108689	0	0	8209	542276	0	0
2024-09-22 13:35:47			0	38415	0	0	0	23574	22160	158060	27469	1058772	46443	108691	0	0	8208	542781	0	0
2024-09-22 13:36:47			0	38412	0	0	0	23581	22160	158060	27175	1058781	46455	108694	0	0	8207	542898	0	0
2024-09-22 13:37:47			0	38422	0	0	0	23584	22160	158152	27324	1058772	46443	108695	0	0	8208	542509	0	0
2024-09-22 13:38:47			0	38409	0	0	0	23574	22160	158188	27469	1058745	46443	108691	0	0	8207	543014	0	0
2024-09-22 13:39:47			0	38399	0	0	0	23579	22160	158152	27419	1058772	46443	108693	0	0	8207	543403	0	0
2024-09-22 13:40:47			0	38401	0	0	0	23586	22160	158128	27305	1058781	46444	108696	0	0	8207	543325	0	0
2024-09-22 13:41:47			0	38398	0	0	0	23599	22160	158196	27554	1058799	46443	108701	0	0	8206	543442	0	0
2024-09-22 13:42:47			0	38391	0	0	0	23602	22170	158112	27464	1058790	46445	108702	0	0	8206	543684	0	0
2024-09-22 13:43:47			0	38403	0	0	0	23602	22160	158124	27569	1058808	46455	108702	0	0	8207	543248	0	0
2024-09-22 13:44:47			0	38405	0	0	0	23602	22160	158232	27833	1058861	46455	108702	0	0	8207	543170	0	0
2024-09-22 13:45:47			0	38420	0	0	0	23623	22170	158144	27476	1058879	46478	108710	0	0	8207	542557	0	0
2024-09-22 13:46:47			0	38405	0	0	0	23623	22170	158188	27497	1058932	46456	108710	0	0	8206	543140	0	0
2024-09-22 13:47:47			0	38431	0	0	0	23631	22180	158072	27386	1058977	46446	108713	0	0	8208	542099	0	0
2024-09-22 13:48:47			0	38430	0	0	0	23641	22180	158068	27809	1058923	46446	108717	0	0	8208	542138	0	0
2024-09-22 13:49:47			0	38466	0	0	0	23641	22190	157944	27549	1058941	46458	108717	0	0	8210	540710	0	0
2024-09-22 13:50:47			0	38458	0	0	0	23649	22200	158000	27590	1059084	46458	108720	0	0	8209	540991	0	0
2024-09-22 13:51:47			0	38463	0	0	0	23641	22200	157856	27521	1059057	46458	108717	0	0	8210	540797	0	0
2024-09-22 13:52:47			0	38453	0	0	0	23649	22210	157864	27552	1059075	46470	108720	0	0	8209	541154	0	0
2024-09-22 13:53:47			0	38478	0	0	0	23662	22210	157868	27307	1059084	46460	108725	0	0	8210	540185	0	0
2024-09-22 13:54:47			0	38482	0	0	0	23657	22220	157748	27464	1059093	46460	108723	0	0	8211	540000	0	0
2024-09-22 13:55:47			0	38489	0	0	0	23670	22230	157776	27131	1059138	46472	108728	0	0	8211	539699	0	0
2024-09-22 13:56:47			0	38479	0	0	0	23680	22220	157840	27388	1059182	46460	108732	0	0	8210	540116	0	0
2024-09-22 13:57:47			0	38493	0	0	0	23693	22220	157748	27180	1059182	46471	108737	0	0	8211	539574	0	0
2024-09-22 13:58:47			0	38522	0	0	0	23685	22240	157716	27407	1059245	46473	108734	0	0	8212	538391	0	0
2024-09-22 13:59:47			0	38514	0	0	0	23685	22240	157592	27409	1059245	46452	108734	0	0	8212	538701	0	0
2024-09-22 14:00:47			0	38520	0	0	0	23675	22250	157616	27447	1059254	46463	108730	0	0	8213	538439	0	0
2024-09-22 14:01:47			0	38532	0	0	0	23667	22240	157644	27322	1059245	46473	108727	0	0	8213	538005	0	0
2024-09-22 14:02:47			0	38529	0	0	0	23683	22250	157556	27428	1059289	46464	108733	0	0	8213	538091	0	0
2024-09-22 14:03:47			0	38537	0	0	0	23685	22250	157464	27381	1059200	46453	108734	0	0	8213	537782	0	0
2024-09-22 14:04:47			0	38525	0	0	0	23677	22260	157464	27424	1059298	46464	108731	0	0	8213	538215	0	0
2024-09-22 14:05:47			0	38537	0	0	0	23677	22260	157496	27166	1059325	46454	108731	0	0	8214	537751	0	0
2024-09-22 14:06:47			0	38561	0	0	0	23677	22260	157460	27410	1059334	46455	108731	0	0	8215	536825	0	0
2024-09-22 14:07:47			0	38555	0	0	0	23675	22250	157408	27374	1059289	46475	108730	0	0	8215	537086	0	0
2024-09-22 14:08:47			0	38576	0	0	0	23677	22250	157324	27355	1059254	46453	108731	0	0	8216	536276	0	0
2024-09-22 14:09:47			0	38576	0	0	0	23680	22260	157296	27126	1059280	46444	108732	0	0	8216	536246	0	0
2024-09-22 14:10:47			0	38571	0	0	0	23672	22270	157312	27249	1059343	46455	108729	0	0	8216	536409	0	0
2024-09-22 14:11:47			0	38587	0	0	0	23685	22270	157276	27150	1059289	46455	108734	0	0	8216	535792	0	0
2024-09-22 14:12:47			0	38585	0	0	0	23680	22280	157320	27466	1059361	46456	108732	0	0	8216	535839	0	0
2024-09-22 14:13:47			0	38578	0	0	0	23680	22280	157284	27327	1059334	46466	108732	0	0	8216	536109	0	0
2024-09-22 14:14:47			0	38585	0	0	0	23675	22290	157296	27109	1059379	46457	108730	0	0	8217	535809	0	0
2024-09-22 14:15:47			0	38598	0	0	0	23675	22260	157380	27180	1059280	46465	108730	0	0	8217	535398	0	0
2024-09-22 14:16:47			0	38594	0	0	0	23672	22270	157240	27242	1059325	46456	108729	0	0	8217	535522	0	0
2024-09-22 14:17:47			0	38577	0	0	0	23680	22280	157328	27364	1059361	46456	108732	0	0	8216	536147	0	0
2024-09-22 14:18:47			0	38591	0	0	0	23672	22270	157356	27417	1059352	46477	108729	0	0	8217	535637	0	0
2024-09-22 14:19:47			0	38587	0	0	0	23677	22270	157380	27131	1059272	46445	108731	0	0	8217	535792	0	0
2024-09-22 14:20:47			0	38584	0	0	0	23677	22260	157252	27673	1059307	46444	108731	0	0	8216	535937	0	0
2024-09-22 14:21:47			0	38598	0	0	0	23683	22270	157348	27324	1059325	46466	108733	0	0	8217	535368	0	0
2024-09-22 14:22:47			0	38610	0	0	0	23688	22270	157300	27459	1059289	46455	108735	0	0	8218	534905	0	0
2024-09-22 14:23:47			0	38603	0	0	0	23690	22270	157156	27599	1059263	46455	108736	0	0	8217	535175	0	0
2024-09-22 14:24:47			0	38616	0	0	0	23683	22260	157284	27085	1059334	46444	108733	0	0	8218	534704	0	0
2024-09-22 14:25:47			0	38608	0	0	0	23701	22270	157244	27282	1059289	46465	108740	0	0	8217	534982	0	0
2024-09-22 14:26:47			0	38581	0	0	0	23690	22270	157368	27232	1059343	46455	108736	0	0	8216	536023	0	0
2024-09-22 14:27:47			0	38609	0	0	0	23703	22280	157252	26989	1059450	46446	108741	0	0	8217	534914	0	0
2024-09-22 14:28:47			0	38597	0	0	0	23701	22280	157236	27441	1059387	46477	108740	0	0	8217	535376	0	0
2024-09-22 14:29:47			0	38608	0	0	0	23698	22280	157240	27272	1059370	46467	108739	0	0	8217	534952	0	0
2024-09-22 14:30:47			0	38608	0	0	0	23703	22280	157156	27190	1059387	46466	108741	0	0	8217	534952	0	0
2024-09-22 14:31:47			0	38603	0	0	0	23716	22280	157144	27164	1059396	46467	108746	0	0	8217	535145	0	0
2024-09-22 14:32:47			0	38598	0	0	0	23716	22290	157204	27175	1059405	46467	108746	0	0	8217	535308	0	0
2024-09-22 14:33:47			0	38605	0	0	0	23716	22300	157188	27059	1059441	46479	108746	0	0	8217	535008	0	0
2024-09-22 14:34:47			0	38614	0	0	0	23711	22300	157168	27050	1059441	46458	108744	0	0	8218	534662	0	0
2024-09-22 14:35:47			0	38628	0	0	0	23716	22300	157096	27225	1059441	46458	108746	0	0	8218	534123	0	0
2024-09-22 14:36:47			0	38632	0	0	0	23722	22290	157032	27105	1059459	46467	108748	0	0	8218	533999	0	0
2024-09-22 14:37:47			0	38627	0	0	0	23711	22300	157112	27376	1059521	46468	108744	0	0	8218	534161	0	0
2024-09-22 14:38:47			0	38644	0	0	0	23716	22310	157092	27471	1059521	46458	108746	0	0	8219	533478	0	0
2024-09-22 14:39:47			0	38624	0	0	0	23732	22310	157132	27211	1059494	46469	108752	0	0	8218	534247	0	0
2024-09-22 14:40:47			0	38645	0	0	0	23737	22310	157192	27066	1059494	46480	108754	0	0	8219	533439	0	0
2024-09-22 14:41:47			0	38627	0	0	0	23750	22300	157088	27313	1059530	46469	108759	0	0	8218	534161	0	0
2024-09-22 14:42:47			0	38641	0	0	0	23740	22320	157092	27187	1059486	46483	108755	0	0	8219	533563	0	0
2024-09-22 14:43:47			0	38641	0	0	0	23753	22320	157108	27227	1059637	46470	108760	0	0	8219	533563	0	0
2024-09-22 14:44:47			0	38649	0	0	0	23768	22320	157128	27488	1059610	46470	108766	0	0	8219	533256	0	0
2024-09-22 14:45:47			0	38657	0	0	0	23763	22320	157012	27305	1059646	46460	108764	0	0	8219	532948	0	0
2024-09-22 14:46:47			0	38699	0	0	0	23776	22340	156828	27552	1059726	46483	108769	0	0	8222	531277	0	0
2024-09-22 14:47:47			0	38728	0	0	0	23773	22340	156641	27540	1059726	46483	108768	0	0	8223	530165	0	0
2024-09-22 14:48:47			0	38751	0	0	0	23776	22350	156677	27279	1059744	46484	108769	0	0	8225	529255	0	0
2024-09-22 14:49:47			0	38744	0	0	0	23776	22360	156777	27253	1059816	46507	108769	0	0	8224	529493	0	0
2024-09-22 14:50:47			0	38773	0	0	0	23786	22350	156653	27405	1059807	46485	108773	0	0	8226	528414	0	0
2024-09-22 14:51:47			0	38767	0	0	0	23789	22360	156621	27416	1059816	46474	108774	0	0	8225	528613	0	0
2024-09-22 14:52:47			0	38805	0	0	0	23810	22370	156521	27474	1059816	46476	108782	0	0	8227	527132	0	0
2024-09-22 14:53:47			0	38841	0	0	0	23812	22370	156357	27235	1059914	46487	108783	0	0	8229	525759	0	0
2024-09-22 14:54:47			0	38874	0	0	0	23799	22380	156237	27410	1059940	46489	108778	0	0	8232	524473	0	0
2024-09-22 14:55:47			0	38886	0	0	0	23792	22380	156121	27705	1059940	46466	108775	0	0	8232	524017	0	0
2024-09-22 14:56:47			0	38880	0	0	0	23794	22380	156177	27319	1059914	46466	108776	0	0	8232	524245	0	0
2024-09-22 14:57:47			0	38941	0	0	0	23857	22380	155973	27024	1059967	46466	108800	0	0	8234	521928	0	0
2024-09-22 14:58:47			0	39004	0	0	0	23859	22380	155633	27410	1060020	46489	108801	0	0	8238	519541	0	0
2024-09-22 14:59:47			0	39048	0	0	0	23849	22400	155537	27322	1060047	46491	108797	0	0	8241	517819	0	0
2024-09-22 15:00:47			0	39075	0	0	0	23849	22410	155385	27258	1060119	46480	108797	0	0	8242	516772	0	0
2024-09-22 15:01:47			0	39095	0	0	0	23838	22400	155297	27183	1060110	46479	108793	0	0	8244	516046	0	0
2024-09-22 15:02:47			0	39087	0	0	0	23838	22420	155341	27433	1060137	46459	108793	0	0	8243	516290	0	0
2024-09-22 15:03:47			0	39102	0	0	0	23909	22420	155333	27358	1060110	46481	108820	0	0	8243	515725	0	0
2024-09-22 15:04:47			0	39164	0	0	0	23864	22420	155017	27381	1060190	46481	108803	0	0	8247	513392	0	0
2024-09-22 15:05:47			0	39166	0	0	0	23854	22430	154937	27647	1060217	46471	108799	0	0	8248	513289	0	0
2024-09-22 15:06:47			0	39134	0	0	0	23828	22440	155093	27722	1060146	46461	108789	0	0	8246	514463	0	0
2024-09-22 15:07:47			0	39084	0	0	0	23825	22430	155341	27568	1060137	46460	108788	0	0	8243	516374	0	0
2024-09-22 15:08:47			0	39051	0	0	0	23812	22440	155361	27345	1060119	46472	108783	0	0	8242	517590	0	0
2024-09-22 15:09:47			0	39039	0	0	0	23815	22410	155481	27249	1060074	46448	108784	0	0	8241	518130	0	0
2024-09-22 15:10:47			0	39002	0	0	0	23820	22410	155553	27270	1059994	46458	108786	0	0	8239	519529	0	0
2024-09-22 15:11:47			0	39001	0	0	0	23820	22420	155565	27192	1060092	46470	108786	0	0	8239	519538	0	0
2024-09-22 15:12:47			0	38988	0	0	0	23836	22420	155677	27554	1060145	46459	108792	0	0	8238	520030	0	0
2024-09-22 15:13:47			0	38981	0	0	0	23820	22420	155629	27159	1060145	46459	108786	0	0	8238	520295	0	0
2024-09-22 15:14:47			0	38994	0	0	0	23836	22420	155629	27620	1060030	46459	108792	0	0	8238	519803	0	0
2024-09-22 15:15:47			0	38985	0	0	0	23831	22430	155693	27074	1060101	46482	108790	0	0	8238	520114	0	0
2024-09-22 15:16:47			0	38985	0	0	0	23812	22420	155757	27613	1060092	46470	108783	0	0	8238	520144	0	0
2024-09-22 15:17:47			0	38953	0	0	0	23831	22420	155773	27727	1060065	46470	108790	0	0	8236	521356	0	0
2024-09-22 15:18:47			0	38958	0	0	0	23833	22430	155753	27452	1060128	46482	108791	0	0	8236	521137	0	0
2024-09-22 15:19:47			0	38988	0	0	0	23825	22410	155689	27471	1060048	46480	108788	0	0	8238	520059	0	0
2024-09-22 15:20:47			0	38958	0	0	0	23823	22410	155625	27360	1060101	46458	108787	0	0	8236	521196	0	0
2024-09-22 15:21:47			0	38961	0	0	0	23823	22430	155693	27518	1060101	46471	108787	0	0	8236	521024	0	0
2024-09-22 15:22:47			0	38952	0	0	0	23823	22410	155677	27524	1060074	46458	108787	0	0	8236	521423	0	0
2024-09-22 15:23:47			0	38947	0	0	0	23831	22430	155705	27557	1060083	46482	108790	0	0	8235	521554	0	0
2024-09-22 15:24:47			0	38956	0	0	0	23836	22420	155717	27440	1060092	46470	108792	0	0	8236	521242	0	0
2024-09-22 15:25:47			0	38953	0	0	0	23844	22430	155745	27301	1060110	46460	108795	0	0	8236	521327	0	0
2024-09-22 15:26:47			0	38949	0	0	0	23841	22420	155693	27353	1060092	46470	108794	0	0	8235	521508	0	0
2024-09-22 15:27:47			0	38957	0	0	0	23849	22420	155733	27237	1060039	46481	108797	0	0	8236	521204	0	0
2024-09-22 15:28:47			0	38968	0	0	0	23844	22440	155677	27514	1060119	46483	108795	0	0	8236	520729	0	0
2024-09-22 15:29:47			0	38962	0	0	0	23831	22430	155665	27692	1060128	46471	108790	0	0	8236	520986	0	0
2024-09-22 15:30:47			0	38952	0	0	0	23831	22420	155809	27400	1060092	46493	108790	0	0	8236	521394	0	0
2024-09-22 15:31:47			0	38950	0	0	0	23844	22420	155709	27358	1060092	46470	108795	0	0	8235	521470	0	0
2024-09-22 15:32:47			0	38951	0	0	0	23844	22430	155733	27396	1060137	46471	108795	0	0	8235	521403	0	0
2024-09-22 15:33:47			0	38958	0	0	0	23820	22440	155689	27502	1060181	46462	108786	0	0	8236	521108	0	0
2024-09-22 15:34:47			0	38938	0	0	0	23802	22440	155929	27590	1060155	46473	108779	0	0	8235	521866	0	0
2024-09-22 15:35:47			0	38905	0	0	0	23805	22440	155873	27298	1060092	46461	108780	0	0	8234	523119	0	0
2024-09-22 15:36:47			0	38905	0	0	0	23823	22430	155909	27512	1060163	46471	108787	0	0	8233	523148	0	0
2024-09-22 15:37:47			0	38911	0	0	0	23828	22430	155893	27107	1060137	46460	108789	0	0	8233	522921	0	0
2024-09-22 15:38:47			0	38904	0	0	0	23810	22420	155957	27289	1060056	46470	108782	0	0	8233	523216	0	0
2024-09-22 15:39:47			0	38886	0	0	0	23805	22440	155961	27364	1060146	46472	108780	0	0	8232	523841	0	0
2024-09-22 15:40:47			0	38875	0	0	0	23802	22420	155985	27379	1060030	46470	108779	0	0	8232	524318	0	0
2024-09-22 15:41:47			0	38865	0	0	0	23810	22420	156029	27436	1060039	46470	108782	0	0	8231	524699	0	0
2024-09-22 15:42:47			0	38832	0	0	0	23797	22410	156093	27386	1059994	46469	108777	0	0	8229	525985	0	0
2024-09-22 15:43:47			0	38811	0	0	0	23807	22410	156093	27157	1060039	46458	108781	0	0	8228	526786	0	0
2024-09-22 15:44:47			0	38844	0	0	0	23836	22410	156213	27260	1060039	46469	108792	0	0	8229	525528	0	0
2024-09-22 15:45:47			0	38860	0	0	0	23825	22420	156013	27469	1060083	46493	108788	0	0	8230	524889	0	0
2024-09-22 15:46:47			0	38840	0	0	0	23812	22410	156145	27187	1060128	46469	108783	0	0	8230	525680	0	0
2024-09-22 15:47:47			0	38801	0	0	0	23807	22420	156277	27653	1060056	46481	108781	0	0	8227	527138	0	0
2024-09-22 15:48:47			0	38779	0	0	0	23799	22410	156397	27338	1060021	46469	108778	0	0	8226	528007	0	0
2024-09-22 15:49:47			0	38778	0	0	0	23815	22420	156409	27317	1060083	46470	108784	0	0	8226	528016	0	0
2024-09-22 15:50:47			0	38751	0	0	0	23799	22410	156505	27211	1060048	46469	108778	0	0	8225	529078	0	0
2024-09-22 15:51:47			0	38737	0	0	0	23789	22410	156449	27315	1060048	46480	108774	0	0	8224	529613	0	0
2024-09-22 15:52:47			0	38725	0	0	0	23797	22410	156541	27213	1060012	46469	108777	0	0	8223	530073	0	0
2024-09-22 15:53:47			0	38707	0	0	0	23799	22420	156592	27336	1060030	46459	108778	0	0	8222	530732	0	0
2024-09-22 15:54:47			0	38718	0	0	0	23807	22410	156664	27270	1060048	46458	108781	0	0	8223	530341	0	0
2024-09-22 15:55:47			0	38720	0	0	0	23807	22410	156640	27239	1060039	46480	108781	0	0	8223	530264	0	0
2024-09-22 15:56:47			0	38723	0	0	0	23797	22400	156628	26932	1060003	46479	108777	0	0	8223	530179	0	0
2024-09-22 15:57:47			0	38705	0	0	0	23802	22400	156660	26899	1059994	46479	108779	0	0	8222	530868	0	0
2024-09-22 15:58:47			0	38711	0	0	0	23810	22410	156604	26837	1060021	46469	108782	0	0	8222	530609	0	0
2024-09-22 15:59:47			0	38727	0	0	0	23805	22410	156525	27331	1059959	46458	108780	0	0	8223	529996	0	0
2024-09-22 16:00:47			0	38718	0	0	0	23786	22410	156592	27074	1060021	46458	108773	0	0	8223	530341	0	0
2024-09-22 16:01:47			0	38697	0	0	0	23794	22410	156660	27289	1059985	46469	108776	0	0	8222	531145	0	0
2024-09-22 16:02:47			0	38694	0	0	0	23789	22400	156656	27090	1059941	46468	108774	0	0	8221	531290	0	0
2024-09-22 16:03:47			0	38709	0	0	0	23786	22400	156708	27020	1059994	46468	108773	0	0	8222	530715	0	0
2024-09-22 16:04:47			0	38705	0	0	0	23789	22400	156748	27097	1059941	46468	108774	0	0	8222	530868	0	0
2024-09-22 16:05:47			0	38692	0	0	0	23810	22390	156776	26974	1059958	46478	108782	0	0	8221	531396	0	0
2024-09-22 16:06:47			0	38735	0	0	0	23815	22400	156705	27441	1060030	46468	108784	0	0	8223	529719	0	0
2024-09-22 16:07:47			0	38748	0	0	0	23820	22400	156629	27216	1060047	46479	108786	0	0	8224	529222	0	0
2024-09-22 16:08:47			0	38757	0	0	0	23802	22410	156429	27410	1060012	46480	108779	0	0	8225	528848	0	0
2024-09-22 16:09:47			0	38746	0	0	0	23797	22400	156509	27388	1060030	46468	108777	0	0	8224	529299	0	0
2024-09-22 16:10:47			0	38732	0	0	0	23784	22390	156533	27102	1060012	46478	108772	0	0	8224	529864	0	0
2024-09-22 16:11:47			0	38727	0	0	0	23797	22400	156677	27287	1060003	46468	108777	0	0	8223	530026	0	0
2024-09-22 16:12:47			0	38726	0	0	0	23807	22400	156637	27512	1060003	46468	108781	0	0	8223	530064	0	0
2024-09-22 16:13:47			0	38713	0	0	0	23794	22400	156576	27455	1059967	46468	108776	0	0	8222	530562	0	0
2024-09-22 16:14:47			0	38719	0	0	0	23802	22400	156656	27519	1060030	46458	108779	0	0	8223	530332	0	0
2024-09-22 16:15:47			0	38730	0	0	0	23807	22400	156708	27345	1060056	46468	108781	0	0	8223	529911	0	0
2024-09-22 16:16:47			0	38716	0	0	0	23807	22400	156624	27601	1060003	46468	108781	0	0	8222	530447	0	0
2024-09-22 16:17:47			0	38731	0	0	0	23815	22410	156589	27282	1060039	46469	108784	0	0	8223	529843	0	0
2024-09-22 16:18:47			0	38762	0	0	0	23823	22410	156461	27092	1060021	46469	108787	0	0	8225	528657	0	0
2024-09-22 16:19:47			0	38749	0	0	0	23820	22410	156417	27265	1060048	46469	108786	0	0	8224	529154	0	0
2024-09-22 16:20:47			0	38794	0	0	0	23823	22420	156365	27364	1060145	46481	108787	0	0	8227	527405	0	0
2024-09-22 16:21:47			0	38800	0	0	0	23815	22410	156281	27396	1060128	46480	108784	0	0	8227	527205	0	0
2024-09-22 16:22:47			0	38804	0	0	0	23805	22420	156169	27490	1060110	46470	108780	0	0	8228	527023	0	0
2024-09-22 16:23:47			0	38803	0	0	0	23802	22420	156185	27493	1060065	46470	108779	0	0	8228	527061	0	0
2024-09-22 16:24:47			0	38829	0	0	0	23812	22420	156165	27298	1060110	46459	108783	0	0	8229	526070	0	0
2024-09-22 16:25:47			0	38872	0	0	0	23810	22410	156145	26951	1060074	46480	108782	0	0	8231	524462	0	0
2024-09-22 16:26:47			0	38857	0	0	0	23807	22410	156073	27312	1060039	46480	108781	0	0	8231	525033	0	0
2024-09-22 16:27:47			0	38868	0	0	0	23815	22410	156181	27436	1060101	46480	108784	0	0	8231	524614	0	0
2024-09-22 16:28:47			0	38856	0	0	0	23823	22420	156169	27291	1060039	46481	108787	0	0	8230	525041	0	0
2024-09-22 16:29:47			0	38878	0	0	0	23831	22420	156137	27140	1060119	46493	108790	0	0	8231	524204	0	0
2024-09-22 16:30:47			0	38905	0	0	0	23831	22420	156069	27300	1060110	46481	108790	0	0	8233	523178	0	0
2024-09-22 16:31:47			0	38904	0	0	0	23836	22420	155965	27159	1060163	46470	108792	0	0	8233	523216	0	0
2024-09-22 16:32:47			0	38906	0	0	0	23846	22430	155841	27386	1060154	46471	108796	0	0	8233	523111	0	0
2024-09-22 16:33:47			0	38948	0	0	0	23862	22420	155701	27883	1060137	46481	108802	0	0	8235	521546	0	0
2024-09-22 16:34:47			0	38976	0	0	0	23862	22430	155617	27258	1060190	46482	108802	0	0	8237	520455	0	0
2024-09-22 16:35:47			0	38971	0	0	0	23844	22430	155629	27305	1060217	46494	108795	0	0	8237	520645	0	0
2024-09-22 16:36:47			0	39001	0	0	0	23857	22430	155625	27507	1060190	46460	108800	0	0	8238	519509	0	0
2024-09-22 16:37:47			0	38987	0	0	0	23857	22440	155517	27448	1060172	46472	108800	0	0	8237	520010	0	0
2024-09-22 16:38:47			0	39038	0	0	0	23872	22440	155393	27421	1060226	46483	108806	0	0	8240	518081	0	0
2024-09-22 16:39:47			0	39042	0	0	0	23862	22440	155329	27552	1060235	46484	108802	0	0	8240	517930	0	0
2024-09-22 16:40:47			0	39060	0	0	0	23844	22450	155305	27438	1060244	46496	108795	0	0	8242	517222	0	0
2024-09-22 16:41:47			0	39032	0	0	0	23833	22450	155393	27357	1060200	46462	108791	0	0	8240	518279	0	0
2024-09-22 16:42:47			0	38994	0	0	0	23859	22450	155581	27571	1060280	46473	108801	0	0	8238	519716	0	0
2024-09-22 16:43:47			0	38997	0	0	0	23862	22450	155541	27479	1060191	46462	108802	0	0	8238	519602	0	0
2024-09-22 16:44:47			0	39062	0	0	0	23872	22450	155349	27613	1060191	46473	108806	0	0	8241	517146	0	0
2024-09-22 16:45:47			0	39056	0	0	0	23838	22440	155321	27239	1060315	46506	108793	0	0	8242	517402	0	0
2024-09-22 16:46:47			0	39035	0	0	0	23851	22450	155525	27611	1060191	46473	108798	0	0	8240	518166	0	0
2024-09-22 16:47:47			0	39028	0	0	0	23859	22450	155565	27308	1060280	46462	108801	0	0	8240	518430	0	0
2024-09-22 16:48:47			0	39050	0	0	0	23867	22460	155305	27476	1060315	46497	108804	0	0	8241	517570	0	0
2024-09-22 16:49:47			0	39080	0	0	0	23862	22450	155329	27478	1060200	46473	108802	0	0	8243	516467	0	0
2024-09-22 16:50:47			0	39058	0	0	0	23854	22460	155249	27239	1060289	46485	108799	0	0	8242	517269	0	0
2024-09-22 16:51:47			0	39075	0	0	0	23864	22460	155225	27504	1060271	46486	108803	0	0	8242	516627	0	0
2024-09-22 16:52:47			0	39088	0	0	0	23857	22460	155293	27500	1060289	46474	108800	0	0	8243	516137	0	0
2024-09-22 16:53:47			0	39084	0	0	0	23877	22450	155273	27450	1060226	46484	108808	0	0	8243	516317	0	0
2024-09-22 16:54:47			0	39075	0	0	0	23870	22450	155297	27332	1060253	46473	108805	0	0	8242	516656	0	0
2024-09-22 16:55:47			0	39084	0	0	0	23880	22460	155165	27414	1060378	46475	108809	0	0	8243	516288	0	0
2024-09-22 16:56:47			0	39114	0	0	0	23885	22470	155129	27206	1060360	46475	108811	0	0	8244	515129	0	0
2024-09-22 16:57:47			0	39145	0	0	0	23877	22460	155229	27251	1060315	46474	108808	0	0	8246	513992	0	0
2024-09-22 16:58:47			0	39152	0	0	0	23896	22460	154917	27590	1060324	46486	108815	0	0	8246	513729	0	0
2024-09-22 16:59:47			0	39168	0	0	0	23885	22470	154937	27421	1060387	46475	108811	0	0	8247	513099	0	0
2024-09-22 17:00:47			0	39167	0	0	0	23883	22470	154933	27431	1060369	46475	108810	0	0	8247	513136	0	0
2024-09-22 17:01:47			0	39197	0	0	0	23883	22470	154877	27201	1060396	46486	108810	0	0	8249	512010	0	0
2024-09-22 17:02:47			0	39205	0	0	0	23877	22480	154809	27157	1060405	46476	108808	0	0	8250	511682	0	0
2024-09-22 17:03:47			0	39159	0	0	0	23854	22470	154929	27521	1060316	46486	108799	0	0	8247	513437	0	0
2024-09-22 17:04:47			0	39151	0	0	0	23885	22470	154957	27403	1060333	46464	108811	0	0	8246	513737	0	0
2024-09-22 17:05:47			0	39166	0	0	0	23877	22480	154945	27260	1060405	46476	108808	0	0	8248	513145	0	0
2024-09-22 17:06:47			0	39194	0	0	0	23888	22480	154873	27284	1060298	46487	108812	0	0	8249	512094	0	0
2024-09-22 17:07:47			0	39175	0	0	0	23880	22470	154877	27422	1060342	46508	108809	0	0	8248	512836	0	0
2024-09-22 17:08:47			0	39175	0	0	0	23854	22470	154913	27512	1060360	46475	108799	0	0	8248	512836	0	0
2024-09-22 17:09:47			0	39120	0	0	0	23854	22470	155017	27457	1060316	46475	108799	0	0	8245	514903	0	0
2024-09-22 17:10:47			0	39098	0	0	0	23849	22460	155173	27640	1060351	46464	108797	0	0	8244	515760	0	0
2024-09-22 17:11:47			0	39040	0	0	0	23833	22460	155349	27372	1060271	46464	108791	0	0	8241	517948	0	0
2024-09-22 17:12:47			0	39048	0	0	0	23859	22470	155357	27225	1060316	46464	108801	0	0	8241	517617	0	0
2024-09-22 17:13:47			0	39092	0	0	0	23870	22460	155157	27360	1060209	46453	108805	0	0	8243	515986	0	0
2024-09-22 17:14:47			0	39117	0	0	0	23875	22470	155137	27452	1060280	46464	108807	0	0	8245	515016	0	0
2024-09-22 17:15:47			0	39154	0	0	0	23872	22470	155093	27255	1060307	46475	108806	0	0	8247	513625	0	0
2024-09-22 17:16:47			0	39168	0	0	0	23864	22450	154969	27403	1060333	46462	108803	0	0	8248	513156	0	0
2024-09-22 17:17:47			0	39175	0	0	0	23872	22470	155029	27441	1060316	46486	108806	0	0	8248	512836	0	0
2024-09-22 17:18:47			0	39187	0	0	0	23877	22480	154961	26908	1060351	46476	108808	0	0	8249	512357	0	0
2024-09-22 17:19:47			0	39188	0	0	0	23883	22460	154861	27189	1060324	46486	108810	0	0	8249	512377	0	0
2024-09-22 17:20:47			0	39261	0	0	0	23888	22460	154565	27079	1060378	46464	108812	0	0	8253	509642	0	0
2024-09-22 17:21:47			0	39306	0	0	0	23890	22470	154377	27416	1060342	46475	108813	0	0	8255	507932	0	0
2024-09-22 17:22:47			0	39316	0	0	0	23883	22470	154445	27355	1060396	46464	108810	0	0	8256	507558	0	0
2024-09-22 17:23:47			0	39315	0	0	0	23883	22480	154309	27381	1060351	46465	108810	0	0	8256	507568	0	0
2024-09-22 17:24:47			0	39289	0	0	0	23870	22470	154397	27326	1060342	46464	108805	0	0	8255	508567	0	0
2024-09-22 17:25:47			0	39285	0	0	0	23867	22470	154517	27248	1060342	46475	108804	0	0	8255	508716	0	0
2024-09-22 17:26:47			0	39248	0	0	0	23862	22470	154577	27372	1060333	46475	108802	0	0	8252	510100	0	0
2024-09-22 17:27:47			0	39257	0	0	0	23872	22470	154605	27173	1060307	46475	108806	0	0	8253	509763	0	0
2024-09-22 17:28:47			0	39254	0	0	0	23864	22470	154625	27478	1060369	46464	108803	0	0	8253	509875	0	0
2024-09-22 17:29:47			0	39239	0	0	0	23870	22460	154589	27400	1060324	46475	108805	0	0	8252	510465	0	0
2024-09-22 17:30:47			0	39266	0	0	0	23872	22480	154557	27114	1060351	46465	108806	0	0	8253	509398	0	0
2024-09-22 17:31:47			0	39279	0	0	0	23872	22460	154497	27429	1060271	46498	108806	0	0	8254	508969	0	0
2024-09-22 17:32:47			0	39291	0	0	0	23885	22460	154373	27183	1060324	46464	108811	0	0	8255	508520	0	0
2024-09-22 17:33:47			0	39330	0	0	0	23885	22460	154313	27390	1060324	46475	108811	0	0	8257	507064	0	0
2024-09-22 17:34:47			0	39359	0	0	0	23885	22460	154245	27322	1060324	46475	108811	0	0	8258	505983	0	0
2024-09-22 17:35:47			0	39369	0	0	0	23883	22470	154249	27024	1060307	46486	108810	0	0	8259	505583	0	0
2024-09-22 17:36:47			0	39353	0	0	0	23880	22470	154269	27320	1060333	46475	108809	0	0	8258	506179	0	0
2024-09-22 17:37:47			0	39320	0	0	0	23877	22480	154309	27161	1060307	46500	108808	0	0	8256	507381	0	0
2024-09-22 17:38:47			0	39337	0	0	0	23885	22470	154285	27279	1060369	46475	108811	0	0	8257	506775	0	0
2024-09-22 17:39:47			0	39322	0	0	0	23877	22470	154305	27027	1060307	46486	108808	0	0	8256	507335	0	0
2024-09-22 17:40:47			0	39341	0	0	0	23883	22470	154257	27308	1060360	46475	108810	0	0	8257	506626	0	0
2024-09-22 17:41:47			0	39325	0	0	0	23875	22470	154257	27521	1060280	46464	108807	0	0	8257	507223	0	0
2024-09-22 17:42:47			0	39321	0	0	0	23870	22460	154301	27284	1060271	46475	108805	0	0	8256	507400	0	0
2024-09-22 17:43:47			0	39319	0	0	0	23877	22470	154333	27289	1060289	46475	108808	0	0	8256	507447	0	0
2024-09-22 17:44:47			0	39302	0	0	0	23872	22460	154421	27253	1060351	46475	108806	0	0	8255	508110	0	0
2024-09-22 17:45:47			0	39314	0	0	0	23867	22470	154361	27483	1060333	46464	108804	0	0	8256	507633	0	0
2024-09-22 17:46:47			0	39283	0	0	0	23864	22470	154457	27443	1060253	46475	108803	0	0	8254	508791	0	0
2024-09-22 17:47:47			0	39282	0	0	0	23870	22460	154461	27536	1060315	46463	108805	0	0	8254	508857	0	0
2024-09-22 17:48:47			0	39277	0	0	0	23870	22460	154521	27377	1060271	46464	108805	0	0	8254	509043	0	0
2024-09-22 17:49:47			0	39265	0	0	0	23862	22460	154541	27339	1060298	46498	108802	0	0	8253	509492	0	0
2024-09-22 17:50:47			0	39272	0	0	0	23867	22460	154573	27232	1060271	46486	108804	0	0	8254	509230	0	0
2024-09-22 17:51:47			0	39266	0	0	0	23862	22460	154525	27248	1060218	46464	108802	0	0	8253	509455	0	0
2024-09-22 17:52:47			0	39276	0	0	0	23870	22460	154585	27353	1060262	46474	108805	0	0	8254	509081	0	0
2024-09-22 17:53:47			0	39277	0	0	0	23870	22450	154457	27019	1060226	46473	108805	0	0	8254	509072	0	0
2024-09-22 17:54:47			0	39279	0	0	0	23859	22460	154497	27147	1060235	46474	108801	0	0	8254	508969	0	0
2024-09-22 17:55:47			0	39266	0	0	0	23859	22450	154569	26958	1060226	46473	108801	0	0	8253	509483	0	0
2024-09-22 17:56:47			0	39263	0	0	0	23859	22460	154565	27039	1060262	46474	108801	0	0	8253	509567	0	0
2024-09-22 17:57:47			0	39284	0	0	0	23857	22460	154485	27052	1060262	46474	108800	0	0	8255	508782	0	0
2024-09-22 17:58:47			0	39293	0	0	0	23864	22460	154473	27043	1060209	46474	108803	0	0	8255	508446	0	0
2024-09-22 17:59:47			0	39313	0	0	0	23851	22450	154329	27251	1060191	46473	108798	0	0	8256	507727	0	0
2024-09-22 18:00:47			0	39317	0	0	0	23862	22450	154329	27473	1060306	46484	108802	0	0	8256	507578	0	0
2024-09-22 18:01:47			0	39315	0	0	0	23849	22450	154381	27334	1060226	46484	108797	0	0	8256	507653	0	0
2024-09-22 18:02:47			0	39329	0	0	0	23859	22440	154349	27334	1060235	46473	108801	0	0	8257	507159	0	0
2024-09-22 18:03:47			0	39340	0	0	0	23859	22450	154341	27284	1060217	46473	108801	0	0	8258	506720	0	0
2024-09-22 18:04:47			0	39334	0	0	0	23854	22450	154261	27305	1060217	46473	108799	0	0	8257	506944	0	0
2024-09-22 18:05:47			0	39344	0	0	0	23859	22450	154305	27313	1060226	46484	108801	0	0	8258	506571	0	0
2024-09-22 18:06:47			0	39349	0	0	0	23854	22450	154289	27405	1060217	46473	108799	0	0	8258	506384	0	0
2024-09-22 18:07:47			0	39342	0	0	0	23854	22450	154365	27393	1060200	46484	108799	0	0	8258	506645	0	0
2024-09-22 18:08:47			0	39358	0	0	0	23844	22440	154237	27542	1060181	46473	108795	0	0	8259	506077	0	0
2024-09-22 18:09:47			0	39337	0	0	0	23849	22440	154341	27485	1060208	46484	108797	0	0	8258	506860	0	0
2024-09-22 18:10:47			0	39316	0	0	0	23846	22430	154345	27516	1060190	46494	108796	0	0	8256	507672	0	0
2024-09-22 18:11:47			0	39322	0	0	0	23851	22440	154417	27571	1060128	46473	108798	0	0	8257	507420	0	0
2024-09-22 18:12:47			0	39335	0	0	0	23854	22440	154377	27116	1060181	46462	108799	0	0	8257	506935	0	0
2024-09-22 18:13:47			0	39325	0	0	0	23854	22450	154309	27692	1060191	46473	108799	0	0	8257	507279	0	0
2024-09-22 18:14:47			0	39330	0	0	0	23846	22440	154333	27010	1060172	46472	108796	0	0	8257	507121	0	0
2024-09-22 18:15:47			0	39294	0	0	0	23854	22440	154433	27144	1060235	46473	108799	0	0	8255	508465	0	0
2024-09-22 18:16:47			0	39313	0	0	0	23851	22430	154381	27417	1060181	46482	108798	0	0	8256	507784	0	0
2024-09-22 18:17:47			0	39315	0	0	0	23844	22440	154385	27450	1060172	46472	108795	0	0	8256	507681	0	0
2024-09-22 18:18:47			0	39286	0	0	0	23849	22430	154365	27348	1060137	46471	108797	0	0	8255	508792	0	0
2024-09-22 18:19:47			0	39307	0	0	0	23846	22450	154381	27405	1060217	46484	108796	0	0	8256	507951	0	0
2024-09-22 18:20:47			0	39308	0	0	0	23841	22430	154445	27464	1060154	46471	108794	0	0	8256	507971	0	0
2024-09-22 18:21:47			0	39305	0	0	0	23838	22420	154369	27388	1060163	46470	108793	0	0	8256	508111	0	0
2024-09-22 18:22:47			0	39299	0	0	0	23838	22430	154469	27060	1060101	46482	108793	0	0	8256	508307	0	0
2024-09-22 18:23:47			0	39296	0	0	0	23844	22420	154581	27121	1060172	46481	108795	0	0	8255	508447	0	0
2024-09-22 18:24:47			0	39270	0	0	0	23841	22420	154601	27225	1060137	46470	108794	0	0	8254	509419	0	0
2024-09-22 18:25:47			0	39296	0	0	0	23833	22420	154605	27509	1060110	46470	108791	0	0	8256	508447	0	0
2024-09-22 18:26:47			0	39261	0	0	0	23846	22410	154725	27189	1060065	46480	108796	0	0	8253	509784	0	0
2024-09-22 18:27:47			0	39244	0	0	0	23846	22420	154573	27142	1060110	46470	108796	0	0	8252	510392	0	0
2024-09-22 18:28:47			0	39263	0	0	0	23831	22420	154617	27126	1060172	46470	108790	0	0	8254	509681	0	0
2024-09-22 18:29:47			0	39248	0	0	0	23836	22420	154665	27112	1060137	46470	108792	0	0	8253	510242	0	0
2024-09-22 18:30:47			0	39244	0	0	0	23841	22420	154753	27388	1060110	46470	108794	0	0	8252	510392	0	0
2024-09-22 18:31:47			0	39235	0	0	0	23831	22420	154841	27331	1060163	46470	108790	0	0	8252	510729	0	0
2024-09-22 18:32:47			0	39252	0	0	0	23849	22430	154789	27260	1060190	46471	108797	0	0	8253	510064	0	0
2024-09-22 18:33:47			0	39253	0	0	0	23841	22430	154801	27083	1060101	46482	108794	0	0	8253	510027	0	0
2024-09-22 18:34:47			0	39213	0	0	0	23838	22430	154957	27339	1060137	46471	108793	0	0	8251	511525	0	0
2024-09-22 18:35:47			0	39208	0	0	0	23828	22420	154969	27426	1060137	46493	108789	0	0	8251	511741	0	0
2024-09-22 18:36:47			0	39206	0	0	0	23844	22430	154925	27248	1060137	46471	108795	0	0	8250	511787	0	0
2024-09-22 18:37:47			0	39213	0	0	0	23833	22420	154945	27128	1060110	46481	108791	0	0	8251	511554	0	0
2024-09-22 18:38:47			0	39185	0	0	0	23836	22420	155021	27121	1060083	46481	108792	0	0	8249	512604	0	0
2024-09-22 18:39:47			0	39190	0	0	0	23820	22420	154981	27308	1060083	46470	108786	0	0	8250	512416	0	0
2024-09-22 18:40:47			0	39184	0	0	0	23820	22410	155029	27131	1060074	46458	108786	0	0	8249	512670	0	0
2024-09-22 18:41:47			0	39174	0	0	0	23831	22420	155025	27377	1060092	46470	108790	0	0	8249	513017	0	0
2024-09-22 18:42:47			0	39180	0	0	0	23828	22420	154981	27592	1060110	46481	108789	0	0	8249	512792	0	0
2024-09-22 18:43:47			0	39182	0	0	0	23823	22410	155021	27229	1060074	46469	108787	0	0	8249	512745	0	0
2024-09-22 18:44:47			0	39171	0	0	0	23823	22410	155029	27185	1060065	46458	108787	0	0	8248	513158	0	0
2024-09-22 18:45:47			0	39172	0	0	0	23820	22410	155049	27637	1060074	46469	108786	0	0	8249	513121	0	0
2024-09-22 18:46:47			0	39178	0	0	0	23820	22410	155053	27208	1060128	46469	108786	0	0	8249	512895	0	0
2024-09-22 18:47:47			0	39174	0	0	0	23825	22410	155145	27428	1060128	46469	108788	0	0	8249	513046	0	0
2024-09-22 18:48:47			0	39156	0	0	0	23810	22420	155141	27364	1060110	46481	108782	0	0	8248	513693	0	0
2024-09-22 18:49:47			0	39135	0	0	0	23823	22410	155181	27183	1060039	46458	108787	0	0	8246	514512	0	0
2024-09-22 18:50:47			0	39113	0	0	0	23812	22410	155129	27332	1060039	46480	108783	0	0	8245	515340	0	0
2024-09-22 18:51:47			0	39108	0	0	0	23815	22400	155145	27261	1060110	46479	108784	0	0	8245	515557	0	0
2024-09-22 18:52:47			0	39114	0	0	0	23820	22400	155197	27239	1060083	46479	108786	0	0	8245	515331	0	0
2024-09-22 18:53:47			0	39115	0	0	0	23823	22400	155329	27310	1060056	46479	108787	0	0	8245	515293	0	0
2024-09-22 18:54:47			0	39098	0	0	0	23818	22410	155301	27225	1060092	46480	108785	0	0	8244	515905	0	0
2024-09-22 18:55:47			0	39076	0	0	0	23823	22400	155349	27041	1060101	46479	108787	0	0	8243	516763	0	0
2024-09-22 18:56:47			0	39097	0	0	0	23812	22400	155301	27159	1060136	46468	108783	0	0	8244	515971	0	0
2024-09-22 18:57:47			0	39080	0	0	0	23815	22390	155325	27038	1060012	46457	108784	0	0	8243	516641	0	0
2024-09-22 18:58:47			0	39073	0	0	0	23820	22400	155401	26911	1060003	46491	108786	0	0	8243	516876	0	0
2024-09-22 18:59:47			0	39080	0	0	0	23805	22390	155465	27298	1060003	46467	108780	0	0	8243	516641	0	0
2024-09-22 19:00:47			0	39060	0	0	0	23799	22400	155529	27346	1060003	46468	108778	0	0	8242	517366	0	0
2024-09-22 19:01:47			0	39053	0	0	0	23810	22400	155517	27237	1060056	46468	108782	0	0	8242	517631	0	0
2024-09-22 19:02:47			0	39034	0	0	0	23802	22390	155477	27390	1060092	46467	108779	0	0	8241	518377	0	0
2024-09-22 19:03:47			0	39061	0	0	0	23802	22390	155457	27007	1059976	46478	108779	0	0	8242	517358	0	0
2024-09-22 19:04:47			0	39031	0	0	0	23805	22400	155549	27026	1060021	46468	108780	0	0	8241	518462	0	0
2024-09-22 19:05:47			0	39034	0	0	0	23810	22390	155565	27298	1059985	46467	108782	0	0	8241	518377	0	0
2024-09-22 19:06:47			0	39020	0	0	0	23810	22400	155685	27604	1060047	46468	108782	0	0	8240	518877	0	0
2024-09-22 19:07:47			0	39004	0	0	0	23807	22390	155721	27556	1060003	46457	108781	0	0	8239	519511	0	0
2024-09-22 19:08:47			0	39002	0	0	0	23802	22380	155781	27334	1059940	46477	108779	0	0	8239	519616	0	0
2024-09-22 19:09:47			0	38983	0	0	0	23799	22380	155717	27348	1060020	46477	108778	0	0	8238	520336	0	0
2024-09-22 19:10:47			0	38967	0	0	0	23812	22380	155757	27403	1059860	46466	108783	0	0	8237	520942	0	0
2024-09-22 19:11:47			0	38992	0	0	0	23799	22380	155809	27255	1059905	46465	108778	0	0	8238	519995	0	0
2024-09-22 19:12:47			0	38975	0	0	0	23805	22380	155765	27031	1059931	46465	108780	0	0	8237	520639	0	0
2024-09-22 19:13:47			0	38983	0	0	0	23799	22390	155841	27329	1059976	46467	108778	0	0	8238	520307	0	0
2024-09-22 19:14:47			0	38967	0	0	0	23797	22380	155845	27121	1059985	46465	108777	0	0	8237	520942	0	0
2024-09-22 19:15:47			0	38963	0	0	0	23802	22380	155949	27100	1059958	46476	108779	0	0	8237	521093	0	0
2024-09-22 19:16:47			0	38941	0	0	0	23794	22390	155921	27294	1059976	46467	108776	0	0	8236	521898	0	0
2024-09-22 19:17:47			0	38932	0	0	0	23792	22380	155961	26974	1059931	46488	108775	0	0	8235	522269	0	0
2024-09-22 19:18:47			0	38886	0	0	0	23799	22380	156065	27469	1059878	46465	108778	0	0	8232	524017	0	0
2024-09-22 19:19:47			0	38881	0	0	0	23784	22390	156133	27019	1059976	46478	108772	0	0	8232	524178	0	0
2024-09-22 19:20:47			0	38868	0	0	0	23792	22390	156265	26902	1059976	46467	108775	0	0	8231	524672	0	0
2024-09-22 19:21:47			0	38846	0	0	0	23789	22370	156293	27324	1059914	46464	108774	0	0	8230	525569	0	0
2024-09-22 19:22:47			0	38836	0	0	0	23799	22380	156261	27345	1060011	46476	108778	0	0	8229	525921	0	0
2024-09-22 19:23:47			0	38837	0	0	0	23794	22380	156353	27239	1059958	46465	108776	0	0	8230	525882	0	0
2024-09-22 19:24:47			0	38831	0	0	0	23789	22380	156329	27355	1059958	46465	108774	0	0	8229	526111	0	0
2024-09-22 19:25:47			0	38824	0	0	0	23792	22370	156381	27168	1059896	46476	108775	0	0	8229	526407	0	0
2024-09-22 19:26:47			0	38796	0	0	0	23789	22370	156321	27352	1059887	46475	108774	0	0	8227	527476	0	0
2024-09-22 19:27:47			0	38781	0	0	0	23781	22370	156453	27249	1059842	46476	108771	0	0	8226	528049	0	0
2024-09-22 19:28:47			0	38779	0	0	0	23792	22370	156417	27393	1059922	46476	108775	0	0	8226	528125	0	0
2024-09-22 19:29:47			0	38784	0	0	0	23789	22370	156537	27379	1059833	46475	108774	0	0	8226	527934	0	0
2024-09-22 19:30:47			0	38762	0	0	0	23789	22370	156593	27131	1059940	46475	108774	0	0	8225	528775	0	0
2024-09-22 19:31:47			0	38745	0	0	0	23789	22370	156721	27000	1059860	46464	108774	0	0	8224	529425	0	0
2024-09-22 19:32:47			0	38754	0	0	0	23786	22370	156661	27031	1059780	46475	108773	0	0	8225	529081	0	0
2024-09-22 19:33:47			0	38707	0	0	0	23776	22370	156664	27190	1059922	46465	108769	0	0	8222	530881	0	0
2024-09-22 19:34:47			0	38725	0	0	0	23786	22370	156749	27199	1059887	46475	108773	0	0	8223	530191	0	0
2024-09-22 19:35:47			0	38706	0	0	0	23779	22370	156800	27208	1059816	46465	108770	0	0	8222	530919	0	0
2024-09-22 19:36:47			0	38692	0	0	0	23773	22370	156912	27355	1059833	46464	108768	0	0	8221	531456	0	0
2024-09-22 19:37:47			0	38673	0	0	0	23779	22360	157004	27161	1059896	46463	108770	0	0	8220	532215	0	0
2024-09-22 19:38:47			0	38671	0	0	0	23779	22360	157036	27104	1059905	46475	108770	0	0	8220	532291	0	0
2024-09-22 19:39:47			0	38660	0	0	0	23771	22360	157024	27343	1059931	46464	108767	0	0	8220	532714	0	0
2024-09-22 19:40:47			0	38652	0	0	0	23781	22360	157084	27313	1059771	46464	108771	0	0	8219	533021	0	0
2024-09-22 19:41:47			0	38646	0	0	0	23761	22360	157072	27118	1059896	46453	108763	0	0	8219	533252	0	0
2024-09-22 19:42:47			0	38638	0	0	0	23761	22360	157092	27267	1059825	46454	108763	0	0	8218	533559	0	0
2024-09-22 19:43:47			0	38619	0	0	0	23766	22360	157144	27338	1059842	46463	108765	0	0	8217	534290	0	0
2024-09-22 19:44:47			0	38595	0	0	0	23761	22350	157148	27218	1059771	46462	108763	0	0	8216	535244	0	0
2024-09-22 19:45:47			0	38615	0	0	0	23766	22360	157212	27112	1059789	46463	108765	0	0	8217	534444	0	0
2024-09-22 19:46:47			0	38630	0	0	0	23753	22350	157116	27571	1059807	46474	108760	0	0	8218	533897	0	0
2024-09-22 19:47:47			0	38650	0	0	0	23755	22340	157156	27495	1059762	46473	108761	0	0	8219	533158	0	0
2024-09-22 19:48:47			0	38662	0	0	0	23750	22340	157092	27261	1059709	46473	108759	0	0	8220	532697	0	0
2024-09-22 19:49:47			0	38675	0	0	0	23748	22340	157004	27452	1059700	46461	108758	0	0	8221	532197	0	0
2024-09-22 19:50:47			0	38674	0	0	0	23745	22350	156988	27357	1059744	46462	108757	0	0	8221	532206	0	0
2024-09-22 19:51:47			0	38666	0	0	0	23748	22330	157012	27109	1059717	46472	108758	0	0	8220	532573	0	0
2024-09-22 19:52:47			0	38668	0	0	0	23742	22340	157036	27398	1059655	46462	108756	0	0	8220	532466	0	0
2024-09-22 19:53:47			0	38659	0	0	0	23748	22330	156932	27270	1059664	46461	108758	0	0	8220	532842	0	0
2024-09-22 19:54:47			0	38661	0	0	0	23750	22330	156980	27241	1059664	46472	108759	0	0	8220	532765	0	0
2024-09-22 19:55:47			0	38646	0	0	0	23750	22330	156996	27455	1059611	46461	108759	0	0	8219	533341	0	0
2024-09-22 19:56:47			0	38651	0	0	0	23755	22320	157004	27137	1059672	46460	108761	0	0	8219	533179	0	0
2024-09-22 19:57:47			0	38635	0	0	0	23748	22330	157072	27466	1059655	46471	108758	0	0	8218	533764	0	0
2024-09-22 19:58:47			0	38628	0	0	0	23745	22330	157072	27521	1059655	46460	108757	0	0	8218	534034	0	0
2024-09-22 19:59:47			0	38610	0	0	0	23737	22330	157144	27928	1059664	46461	108754	0	0	8217	534726	0	0
2024-09-22 20:00:47			0	38621	0	0	0	23740	22330	157136	27336	1059708	46471	108755	0	0	8218	534303	0	0
2024-09-22 20:01:47			0	38611	0	0	0	23742	22330	157252	27435	1059682	46471	108756	0	0	8217	534688	0	0
2024-09-22 20:02:47			0	38622	0	0	0	23740	22320	157132	27287	1059619	46471	108755	0	0	8218	534294	0	0
2024-09-22 20:03:47			0	38634	0	0	0	23745	22330	157036	27282	1059664	46483	108757	0	0	8218	533803	0	0
2024-09-22 20:04:47			0	38645	0	0	0	23742	22330	156948	27355	1059628	46483	108756	0	0	8219	533380	0	0
2024-09-22 20:05:47			0	38637	0	0	0	23742	22320	157080	27391	1059619	46450	108756	0	0	8219	533717	0	0
2024-09-22 20:06:47			0	38624	0	0	0	23735	22320	157136	27130	1059619	46460	108753	0	0	8218	534217	0	0
2024-09-22 20:07:47			0	38619	0	0	0	23737	22330	157148	27130	1059611	46483	108754	0	0	8218	534380	0	0
2024-09-22 20:08:47			0	38580	0	0	0	23748	22320	157200	27350	1059637	46459	108758	0	0	8215	535912	0	0
2024-09-22 20:09:47			0	38565	0	0	0	23745	22320	157304	27388	1059646	46460	108757	0	0	8214	536491	0	0
2024-09-22 20:10:47			0	38558	0	0	0	23735	22320	157316	27286	1059646	46460	108753	0	0	8214	536761	0	0
2024-09-22 20:11:47			0	38531	0	0	0	23737	22320	157444	27377	1059619	46460	108754	0	0	8212	537803	0	0
2024-09-22 20:12:47			0	38519	0	0	0	23735	22330	157560	27514	1059602	46460	108753	0	0	8212	538237	0	0
2024-09-22 20:13:47			0	38504	0	0	0	23737	22320	157552	27261	1059619	46483	108754	0	0	8211	538847	0	0
2024-09-22 20:14:47			0	38506	0	0	0	23737	22320	157540	27405	1059690	46459	108754	0	0	8211	538770	0	0
2024-09-22 20:15:47			0	38469	0	0	0	23737	22320	157716	27234	1059646	46460	108754	0	0	8209	540202	0	0
2024-09-22 20:16:47			0	38463	0	0	0	23735	22320	157728	27090	1059637	46459	108753	0	0	8209	540434	0	0
2024-09-22 20:17:47			0	38440	0	0	0	23735	22320	157772	27402	1059637	46459	108753	0	0	8207	541326	0	0
2024-09-22 20:18:47			0	38426	0	0	0	23740	22310	157972	27403	1059566	46458	108755	0	0	8206	541900	0	0
2024-09-22 20:19:47			0	38428	0	0	0	23735	22320	157976	27564	1059619	46450	108753	0	0	8207	541792	0	0
2024-09-22 20:20:47			0	38379	0	0	0	23729	22310	158040	27282	1059575	46469	108751	0	0	8204	543726	0	0
2024-09-22 20:21:47			0	38396	0	0	0	23732	22310	158064	27152	1059619	46469	108752	0	0	8205	543065	0	0
2024-09-22 20:22:47			0	38380	0	0	0	23727	22310	158056	27229	1059575	46469	108750	0	0	8204	543687	0	0
2024-09-22 20:23:47			0	38361	0	0	0	23732	22310	158048	27052	1059575	46458	108752	0	0	8203	544426	0	0
2024-09-22 20:24:47			0	38346	0	0	0	23735	22320	158088	27258	1059637	46459	108753	0	0	8202	544980	0	0
2024-09-22 20:25:47			0	38340	0	0	0	23737	22320	158204	27433	1059592	46460	108754	0	0	8201	545214	0	0
2024-09-22 20:26:47			0	38324	0	0	0	23716	22320	158212	27400	1059610	46459	108746	0	0	8201	545837	0	0
2024-09-22 20:27:47			0	38312	0	0	0	23719	22320	158284	27635	1059637	46449	108747	0	0	8200	546306	0	0
2024-09-22 20:28:47			0	38315	0	0	0	23724	22310	158296	27597	1059592	46469	108749	0	0	8200	546219	0	0
2024-09-22 20:29:47			0	38319	0	0	0	23716	22310	158228	27353	1059619	46469	108746	0	0	8200	546063	0	0
2024-09-22 20:30:47			0	38343	0	0	0	23719	22310	158116	27338	1059548	46469	108747	0	0	8202	545128	0	0
2024-09-22 20:31:47			0	38342	0	0	0	23706	22310	158120	27415	1059566	46469	108742	0	0	8202	545166	0	0
2024-09-22 20:32:47			0	38335	0	0	0	23716	22300	158260	27443	1059601	46458	108746	0	0	8201	545470	0	0
2024-09-22 20:33:47			0	38326	0	0	0	23716	22310	158212	27474	1059619	46469	108746	0	0	8201	545790	0	0
2024-09-22 20:34:47			0	38316	0	0	0	23719	22310	158324	27602	1059566	46458	108747	0	0	8200	546180	0	0
2024-09-22 20:35:47			0	38286	0	0	0	23709	22300	158416	27315	1059530	46480	108743	0	0	8199	547382	0	0
2024-09-22 20:36:47			0	38265	0	0	0	23716	22300	158460	27530	1059521	46458	108746	0	0	8197	548202	0	0
2024-09-22 20:37:47			0	38239	0	0	0	23711	22300	158672	27495	1059503	46469	108744	0	0	8196	549219	0	0
2024-09-22 20:38:47			0	38218	0	0	0	23711	22300	158568	27308	1059503	46469	108744	0	0	8195	550042	0	0
2024-09-22 20:39:47			0	38225	0	0	0	23701	22300	158724	27069	1059548	46468	108740	0	0	8195	549768	0	0
2024-09-22 20:40:47			0	38234	0	0	0	23696	22290	158636	27291	1059512	46467	108738	0	0	8196	549446	0	0
2024-09-22 20:41:47			0	38244	0	0	0	23696	22280	158604	27334	1059476	46478	108738	0	0	8196	549085	0	0
2024-09-22 20:42:47			0	38247	0	0	0	23693	22300	158676	27371	1059468	46468	108737	0	0	8197	548906	0	0
2024-09-22 20:43:47			0	38245	0	0	0	23693	22280	158564	27287	1059423	46467	108737	0	0	8196	549046	0	0
2024-09-22 20:44:47			0	38233	0	0	0	23701	22290	158572	27293	1059432	46457	108740	0	0	8196	549485	0	0
2024-09-22 20:45:47			0	38247	0	0	0	23696	22290	158496	27421	1059485	46457	108738	0	0	8197	548937	0	0
2024-09-22 20:46:47			0	38252	0	0	0	23703	22280	158492	27519	1059441	46466	108741	0	0	8197	548772	0	0
2024-09-22 20:47:47			0	38257	0	0	0	23701	22280	158500	27126	1059494	46466	108740	0	0	8197	548576	0	0
2024-09-22 20:48:47			0	38253	0	0	0	23703	22290	158472	27182	1059485	46457	108741	0	0	8197	548702	0	0
2024-09-22 20:49:47			0	38251	0	0	0	23696	22280	158556	27133	1059476	46467	108738	0	0	8197	548811	0	0
2024-09-22 20:50:47			0	38261	0	0	0	23688	22280	158552	27045	1059441	46466	108735	0	0	8197	548420	0	0
2024-09-22 20:51:47			0	38255	0	0	0	23696	22280	158608	27189	1059441	46466	108738	0	0	8197	548655	0	0
2024-09-22 20:52:47			0	38251	0	0	0	23696	22280	158620	27128	1059503	46467	108738	0	0	8197	548811	0	0
2024-09-22 20:53:47			0	38237	0	0	0	23696	22270	158520	27215	1059396	46465	108738	0	0	8196	549390	0	0
2024-09-22 20:54:47			0	38237	0	0	0	23696	22270	158668	27007	1059432	46489	108738	0	0	8196	549390	0	0
2024-09-22 20:55:47			0	38254	0	0	0	23688	22280	158680	27289	1059441	46466	108735	0	0	8197	548694	0	0
2024-09-22 20:56:47			0	38231	0	0	0	23690	22270	158740	27119	1059458	46466	108736	0	0	8196	549625	0	0
2024-09-22 20:57:47			0	38239	0	0	0	23685	22280	158824	27313	1059396	46457	108734	0	0	8196	549281	0	0
2024-09-22 20:58:47			0	38246	0	0	0	23685	22270	158640	27336	1059449	46465	108734	0	0	8197	549037	0	0
2024-09-22 20:59:47			0	38243	0	0	0	23683	22270	158572	27263	1059405	46466	108733	0	0	8196	549155	0	0
2024-09-22 21:00:47			0	38222	0	0	0	23677	22270	158724	27192	1059378	46456	108731	0	0	8195	549977	0	0
2024-09-22 21:01:47			0	38239	0	0	0	23683	22270	158628	27305	1059378	46477	108733	0	0	8196	549311	0	0
2024-09-22 21:02:47			0	38230	0	0	0	23690	22270	158840	27345	1059405	46456	108736	0	0	8196	549664	0	0
2024-09-22 21:03:47			0	38238	0	0	0	23688	22280	158812	27253	1059441	46466	108735	0	0	8196	549320	0	0
2024-09-22 21:04:47			0	38191	0	0	0	23690	22270	158808	27012	1059432	46466	108736	0	0	8193	551192	0	0
2024-09-22 21:05:47			0	38196	0	0	0	23683	22270	158736	26984	1059423	46455	108733	0	0	8194	550996	0	0
2024-09-22 21:06:47			0	38213	0	0	0	23690	22270	158812	27296	1059423	46455	108736	0	0	8195	550330	0	0
2024-09-22 21:07:47			0	38204	0	0	0	23685	22260	158804	27039	1059387	46465	108734	0	0	8194	550713	0	0
2024-09-22 21:08:47			0	38206	0	0	0	23685	22270	158820	27405	1059405	46466	108734	0	0	8194	550604	0	0
2024-09-22 21:09:47			0	38198	0	0	0	23688	22270	158828	27034	1059423	46465	108735	0	0	8194	550918	0	0
2024-09-22 21:10:47			0	38225	0	0	0	23685	22270	158860	27124	1059369	46465	108734	0	0	8195	549860	0	0
2024-09-22 21:11:47			0	38234	0	0	0	23688	22260	158808	27293	1059334	46455	108735	0	0	8196	549538	0	0
2024-09-22 21:12:47			0	38228	0	0	0	23680	22270	158736	27277	1059378	46466	108732	0	0	8196	549742	0	0
2024-09-22 21:13:47			0	38234	0	0	0	23683	22270	158636	27249	1059405	46456	108733	0	0	8196	549507	0	0
2024-09-22 21:14:47			0	38240	0	0	0	23677	22270	158624	27303	1059396	46488	108731	0	0	8196	549272	0	0
2024-09-22 21:15:47			0	38252	0	0	0	23680	22270	158632	27227	1059396	46465	108732	0	0	8197	548803	0	0
2024-09-22 21:16:47			0	38263	0	0	0	23680	22260	158576	26946	1059414	46455	108732	0	0	8198	548403	0	0
2024-09-22 21:17:47			0	38236	0	0	0	23675	22260	158704	27303	1059334	46465	108730	0	0	8196	549459	0	0
2024-09-22 21:18:47			0	38244	0	0	0	23672	22260	158648	27235	1059387	46455	108729	0	0	8197	549146	0	0
2024-09-22 21:19:47			0	38254	0	0	0	23664	22270	158584	27168	1059352	46466	108726	0	0	8197	548724	0	0
2024-09-22 21:20:47			0	38258	0	0	0	23677	22260	158568	27445	1059325	46454	108731	0	0	8197	548598	0	0
2024-09-22 21:21:47			0	38254	0	0	0	23683	22250	158572	27246	1059307	46463	108733	0	0	8197	548785	0	0
2024-09-22 21:22:47			0	38279	0	0	0	23680	22260	158584	27150	1059325	46464	108732	0	0	8199	547777	0	0
2024-09-22 21:23:47			0	38288	0	0	0	23677	22270	158500	27189	1059316	46476	108731	0	0	8199	547395	0	0
2024-09-22 21:24:47			0	38281	0	0	0	23683	22260	158520	27281	1059325	46475	108733	0	0	8199	547699	0	0
2024-09-22 21:25:47			0	38289	0	0	0	23677	22250	158528	27164	1059369	46464	108731	0	0	8199	547417	0	0
2024-09-22 21:26:47			0	38264	0	0	0	23677	22250	158476	27319	1059414	46474	108731	0	0	8198	548394	0	0
2024-09-22 21:27:47			0	38291	0	0	0	23677	22260	158500	27194	1059351	46454	108731	0	0	8199	547308	0	0
2024-09-22 21:28:47			0	38287	0	0	0	23670	22260	158420	27225	1059351	46454	108728	0	0	8199	547465	0	0
2024-09-22 21:29:47			0	38278	0	0	0	23672	22250	158436	27421	1059343	46475	108729	0	0	8199	547847	0	0
2024-09-22 21:30:47			0	38265	0	0	0	23651	22250	158564	27201	1059343	46454	108721	0	0	8198	548355	0	0
2024-09-22 21:31:47			0	38254	0	0	0	23662	22250	158524	27293	1059289	46443	108725	0	0	8197	548785	0	0
2024-09-22 21:32:47			0	38245	0	0	0	23649	22250	158600	27393	1059289	46454	108720	0	0	8197	549138	0	0
2024-09-22 21:33:47			0	38233	0	0	0	23654	22250	158736	27251	1059236	46464	108722	0	0	8196	549608	0	0
2024-09-22 21:34:47			0	38255	0	0	0	23667	22240	158632	27135	1059351	46452	108727	0	0	8197	548777	0	0
2024-09-22 21:35:47			0	38218	0	0	0	23654	22250	158572	26916	1059316	46454	108722	0	0	8195	550195	0	0
2024-09-22 21:36:47			0	38235	0	0	0	23654	22240	158720	27256	1059325	46462	108722	0	0	8196	549560	0	0
2024-09-22 21:37:47			0	38234	0	0	0	23641	22250	158692	27348	1059254	46463	108717	0	0	8197	549568	0	0
2024-09-22 21:38:47			0	38215	0	0	0	23646	22240	158728	26972	1059271	46473	108719	0	0	8195	550344	0	0
2024-09-22 21:39:47			0	38219	0	0	0	23654	22240	158732	27090	1059236	46452	108722	0	0	8195	550187	0	0
2024-09-22 21:40:47			0	38200	0	0	0	23654	22240	158800	27137	1059262	46452	108722	0	0	8194	550932	0	0
2024-09-22 21:41:47			0	38196	0	0	0	23659	22240	158848	27111	1059262	46452	108724	0	0	8194	551089	0	0
2024-09-22 21:42:47			0	38182	0	0	0	23657	22240	158900	27358	1059236	46452	108723	0	0	8193	551638	0	0
2024-09-22 21:43:47			0	38176	0	0	0	23659	22240	158904	27074	1059245	46473	108724	0	0	8193	551874	0	0
2024-09-22 21:44:47			0	38167	0	0	0	23646	22230	158976	27324	1059227	46473	108719	0	0	8192	552258	0	0
2024-09-22 21:45:47			0	38165	0	0	0	23657	22230	158964	27429	1059280	46452	108723	0	0	8192	552336	0	0
2024-09-22 21:46:47			0	38142	0	0	0	23664	22240	159128	27419	1059262	46473	108726	0	0	8191	553210	0	0
2024-09-22 21:47:47			0	38138	0	0	0	23651	22250	159044	27289	1059254	46463	108721	0	0	8191	553336	0	0
2024-09-22 21:48:47			0	38135	0	0	0	23638	22230	159064	27001	1059227	46462	108716	0	0	8191	553516	0	0
2024-09-22 21:49:47			0	38144	0	0	0	23664	22240	159108	27163	1059245	46473	108726	0	0	8191	553131	0	0
2024-09-22 21:50:47			0	38151	0	0	0	23646	22230	159088	27384	1059227	46452	108719	0	0	8191	552887	0	0
2024-09-22 21:51:47			0	38138	0	0	0	23641	22230	159032	27348	1059200	46462	108717	0	0	8191	553398	0	0
2024-09-22 21:52:47			0	38136	0	0	0	23631	22230	159104	27121	1059227	46452	108713	0	0	8191	553476	0	0
2024-09-22 21:53:47			0	38135	0	0	0	23631	22230	159148	27123	1059200	46462	108713	0	0	8191	553516	0	0
2024-09-22 21:54:47			0	38124	0	0	0	23628	22230	159100	27175	1059218	46461	108712	0	0	8190	553949	0	0
2024-09-22 21:55:47			0	38119	0	0	0	23636	22230	159132	27003	1059200	46462	108715	0	0	8190	554145	0	0
2024-09-22 21:56:47			0	38129	0	0	0	23641	22220	159248	27436	1059209	46460	108717	0	0	8190	553783	0	0
2024-09-22 21:57:47			0	38106	0	0	0	23638	22230	159224	27227	1059200	46452	108716	0	0	8189	554657	0	0
2024-09-22 21:58:47			0	38116	0	0	0	23641	22230	159336	27185	1059200	46462	108717	0	0	8190	554264	0	0
2024-09-22 21:59:47			0	38093	0	0	0	23633	22230	159264	27041	1059164	46461	108714	0	0	8188	555170	0	0
2024-09-22 22:00:47			0	38089	0	0	0	23638	22220	159296	27237	1059155	46471	108716	0	0	8188	555358	0	0
2024-09-22 22:01:47			0	38088	0	0	0	23649	22220	159332	26977	1059235	46460	108720	0	0	8188	555398	0	0
2024-09-22 22:02:47			0	38069	0	0	0	23644	22230	159336	27421	1059111	46451	108718	0	0	8187	556116	0	0
2024-09-22 22:03:47			0	38065	0	0	0	23644	22220	159352	27277	1059235	46450	108718	0	0	8186	556305	0	0
2024-09-22 22:04:47			0	38060	0	0	0	23644	22220	159404	27348	1059146	46460	108718	0	0	8186	556502	0	0
2024-09-22 22:05:47			0	38056	0	0	0	23649	22220	159452	27196	1059155	46460	108720	0	0	8186	556660	0	0
2024-09-22 22:06:47			0	38066	0	0	0	23641	22230	159380	27232	1059173	46473	108717	0	0	8187	556234	0	0
2024-09-22 22:07:47			0	38055	0	0	0	23638	22220	159436	27135	1059146	46450	108716	0	0	8186	556700	0	0
2024-09-22 22:08:47			0	38047	0	0	0	23631	22230	159420	27133	1059164	46461	108713	0	0	8186	556984	0	0
2024-09-22 22:09:47			0	38034	0	0	0	23625	22230	159452	27242	1059164	46461	108711	0	0	8185	557498	0	0
2024-09-22 22:10:47			0	38033	0	0	0	23641	22220	159571	27036	1059200	46450	108717	0	0	8185	557569	0	0
2024-09-22 22:11:47			0	38040	0	0	0	23638	22210	159536	27287	1059138	46450	108716	0	0	8185	557323	0	0
2024-09-22 22:12:47			0	38018	0	0	0	23636	22220	159479	27201	1059120	46460	108715	0	0	8184	558161	0	0
2024-09-22 22:13:47			0	38033	0	0	0	23625	22230	159560	27490	1059173	46462	108711	0	0	8185	557537	0	0
2024-09-22 22:14:47			0	38012	0	0	0	23625	22210	159519	27383	1059129	46459	108711	0	0	8184	558430	0	0
2024-09-22 22:15:47			0	38031	0	0	0	23623	22220	159588	27274	1059120	46450	108710	0	0	8185	557648	0	0
2024-09-22 22:16:47			0	38004	0	0	0	23623	22220	159483	27008	1059146	46450	108710	0	0	8183	558715	0	0
2024-09-22 22:17:47			0	37993	0	0	0	23620	22210	159687	27190	1059138	46460	108709	0	0	8183	559182	0	0
2024-09-22 22:18:47			0	38002	0	0	0	23620	22210	159735	27216	1059111	46460	108709	0	0	8183	558826	0	0
2024-09-22 22:19:47			0	37967	0	0	0	23615	22220	159755	27135	1059120	46460	108707	0	0	8181	560181	0	0
2024-09-22 22:20:47			0	37978	0	0	0	23618	22210	159795	27123	1059057	46450	108708	0	0	8182	559776	0	0
2024-09-22 22:21:47			0	37960	0	0	0	23605	22210	159775	27199	1059075	46459	108703	0	0	8181	560490	0	0
2024-09-22 22:22:47			0	37947	0	0	0	23610	22200	159815	27104	1059093	46437	108705	0	0	8180	561037	0	0
2024-09-22 22:23:47			0	37963	0	0	0	23615	22210	159927	27112	1059084	46427	108707	0	0	8181	560371	0	0
2024-09-22 22:24:47			0	37945	0	0	0	23620	22200	159831	27306	1059093	46448	108709	0	0	8180	561116	0	0
2024-09-22 22:25:47			0	37949	0	0	0	23618	22210	159851	26925	1059111	46450	108708	0	0	8180	560926	0	0
2024-09-22 22:26:47			0	37926	0	0	0	23620	22210	159919	27015	1059049	46459	108709	0	0	8179	561839	0	0
2024-09-22 22:27:47			0	37940	0	0	0	23623	22210	159879	27443	1059138	46450	108710	0	0	8179	561283	0	0
2024-09-22 22:28:47			0	37940	0	0	0	23618	22200	159923	27163	1059110	46458	108708	0	0	8179	561314	0	0
2024-09-22 22:29:47			0	37934	0	0	0	23618	22200	159999	27384	1059066	46458	108708	0	0	8179	561553	0	0
2024-09-22 22:30:47			0	37929	0	0	0	23612	22200	159959	27182	1059120	46448	108706	0	0	8179	561751	0	0
2024-09-22 22:31:47			0	37928	0	0	0	23625	22200	159999	26939	1059084	46458	108711	0	0	8179	561791	0	0
2024-09-22 22:32:47			0	37934	0	0	0	23618	22200	160023	27203	1059066	46458	108708	0	0	8179	561553	0	0
2024-09-22 22:33:47			0	37934	0	0	0	23625	22210	160063	27183	1059084	46460	108711	0	0	8179	561521	0	0
2024-09-22 22:34:47			0	37923	0	0	0	23610	22210	160087	27147	1059129	46459	108705	0	0	8179	561958	0	0
2024-09-22 22:35:47			0	37911	0	0	0	23612	22210	160027	27220	1059102	46449	108706	0	0	8178	562435	0	0
2024-09-22 22:36:47			0	37921	0	0	0	23612	22200	159991	27026	1059120	46458	108706	0	0	8178	562069	0	0
2024-09-22 22:37:47			0	37890	0	0	0	23612	22200	160039	27398	1059146	46458	108706	0	0	8177	563301	0	0
2024-09-22 22:38:47			0	37890	0	0	0	23615	22190	160123	27464	1059048	46458	108707	0	0	8177	563332	0	0
2024-09-22 22:39:47			0	37889	0	0	0	23602	22200	160111	27216	1059040	46481	108702	0	0	8177	563341	0	0
2024-09-22 22:40:47			0	37899	0	0	0	23599	22210	160219	27140	1059075	46470	108701	0	0	8177	562912	0	0
2024-09-22 22:41:47			0	37882	0	0	0	23597	22190	160151	27331	1059075	46469	108700	0	0	8176	563651	0	0
2024-09-22 22:42:47			0	37846	0	0	0	23586	22190	160271	27041	1058995	46448	108696	0	0	8174	565084	0	0
2024-09-22 22:43:47			0	37832	0	0	0	23592	22200	160371	27114	1059057	46469	108698	0	0	8174	565611	0	0
2024-09-22 22:44:47			0	37831	0	0	0	23594	22190	160455	27244	1059012	46468	108699	0	0	8173	565682	0	0
2024-09-22 22:45:47			0	37841	0	0	0	23584	22190	160455	27203	1059021	46458	108695	0	0	8174	565284	0	0
2024-09-22 22:46:47			0	37831	0	0	0	23584	22190	160515	27466	1059021	46448	108695	0	0	8174	565682	0	0
2024-09-22 22:47:47			0	37810	0	0	0	23581	22180	160563	27358	1059003	46435	108694	0	0	8172	566552	0	0
2024-09-22 22:48:47			0	37795	0	0	0	23579	22180	160527	27230	1058977	46457	108693	0	0	8172	567151	0	0
2024-09-22 22:49:47			0	37771	0	0	0	23579	22180	160543	27320	1058968	46445	108693	0	0	8170	568111	0	0
2024-09-22 22:50:47			0	37782	0	0	0	23576	22180	160651	27194	1059003	46457	108692	0	0	8171	567671	0	0
2024-09-22 22:51:47			0	37754	0	0	0	23579	22170	160675	27152	1058905	46445	108693	0	0	8169	568822	0	0
2024-09-22 22:52:47			0	37753	0	0	0	23571	22180	160799	27286	1058914	46445	108690	0	0	8169	568831	0	0
2024-09-22 22:53:47			0	37749	0	0	0	23576	22180	160799	27523	1058950	46457	108692	0	0	8169	568991	0	0
2024-09-22 22:54:47			0	37740	0	0	0	23574	22170	160903	27357	1058977	46445	108691	0	0	8168	569383	0	0
2024-09-22 22:55:47			0	37745	0	0	0	23566	22170	160855	27464	1058879	46445	108688	0	0	8169	569183	0	0
2024-09-22 22:56:47			0	37729	0	0	0	23568	22170	160799	27194	1058923	46456	108689	0	0	8168	569824	0	0
2024-09-22 22:57:47			0	37730	0	0	0	23566	22170	160839	27272	1058843	46445	108688	0	0	8168	569784	0	0
2024-09-22 22:58:47			0	37727	0	0	0	23558	22170	160855	27388	1058870	46445	108685	0	0	8168	569904	0	0
2024-09-22 22:59:47			0	37719	0	0	0	23558	22160	160895	27296	1058834	46455	108685	0	0	8167	570256	0	0
2024-09-22 23:00:47			0	37732	0	0	0	23553	22150	160827	27744	1058843	46443	108683	0	0	8168	569767	0	0
2024-09-22 23:01:47			0	37726	0	0	0	23542	22160	160831	26809	1058834	46433	108679	0	0	8168	569976	0	0
2024-09-22 23:02:47			0	37721	0	0	0	23555	22160	160907	27052	1058799	46431	108684	0	0	8168	570176	0	0
2024-09-22 23:03:47			0	37726	0	0	0	23553	22150	160847	27197	1058807	46454	108683	0	0	8168	570008	0	0
2024-09-22 23:04:47			0	37756	0	0	0	23553	22150	160791	27237	1058790	46454	108683	0	0	8170	568806	0	0
2024-09-22 23:05:47			0	37739	0	0	0	23553	22140	160783	27046	1058789	46441	108683	0	0	8169	569519	0	0
2024-09-22 23:06:47			0	37772	0	0	0	23545	22150	160839	26927	1058807	46431	108680	0	0	8171	568166	0	0
2024-09-22 23:07:47			0	37773	0	0	0	23553	22150	160719	27225	1058781	46454	108683	0	0	8171	568126	0	0
2024-09-22 23:08:47			0	37771	0	0	0	23540	22150	160699	27324	1058790	46443	108678	0	0	8171	568206	0	0
2024-09-22 23:09:47			0	37783	0	0	0	23545	22140	160783	27192	1058798	46463	108680	0	0	8171	567757	0	0
2024-09-22 23:10:47			0	37776	0	0	0	23545	22140	160683	27346	1058745	46453	108680	0	0	8171	568037	0	0
2024-09-22 23:11:47			0	37779	0	0	0	23550	22130	160763	27343	1058781	46441	108682	0	0	8171	567949	0	0
2024-09-22 23:12:47			0	37790	0	0	0	23548	22150	160855	27199	1058781	46454	108681	0	0	8172	567446	0	0
2024-09-22 23:13:47			0	37798	0	0	0	23545	22140	160607	27142	1058772	46453	108680	0	0	8172	567158	0	0
2024-09-22 23:14:47			0	37789	0	0	0	23548	22130	160667	27300	1058781	46462	108681	0	0	8171	567549	0	0
2024-09-22 23:15:47			0	37790	0	0	0	23537	22140	160611	26941	1058789	46441	108677	0	0	8172	567478	0	0
2024-09-22 23:16:47			0	37783	0	0	0	23535	22140	160631	27519	1058736	46441	108676	0	0	8171	567757	0	0
2024-09-22 23:17:47			0	37795	0	0	0	23537	22140	160667	27364	1058709	46452	108677	0	0	8172	567278	0	0
2024-09-22 23:18:47			0	37776	0	0	0	23542	22140	160535	27455	1058763	46441	108679	0	0	8171	568037	0	0
2024-09-22 23:19:47			0	37801	0	0	0	23537	22130	160627	27092	1058772	46441	108677	0	0	8172	567070	0	0
2024-09-22 23:20:47			0	37808	0	0	0	23542	22130	160559	27291	1058700	46452	108679	0	0	8173	566790	0	0
2024-09-22 23:21:47			0	37814	0	0	0	23542	22140	160551	27336	1058789	46452	108679	0	0	8173	566519	0	0
2024-09-22 23:22:47			0	37815	0	0	0	23545	22130	160439	27381	1058727	46441	108680	0	0	8173	566511	0	0
2024-09-22 23:23:47			0	37833	0	0	0	23529	22120	160439	27543	1058736	46440	108674	0	0	8174	565824	0	0
2024-09-22 23:24:47			0	37849	0	0	0	23529	22130	160487	27428	1058718	46441	108674	0	0	8175	565154	0	0
2024-09-22 23:25:47			0	37852	0	0	0	23540	22130	160323	27383	1058718	46441	108678	0	0	8175	565034	0	0
2024-09-22 23:26:47			0	37866	0	0	0	23532	22130	160463	27163	1058674	46441	108675	0	0	8176	564476	0	0
2024-09-22 23:27:47			0	37850	0	0	0	23532	22130	160439	27280	1058718	46441	108675	0	0	8175	565114	0	0
2024-09-22 23:28:47			0	37853	0	0	0	23529	22120	160455	27241	1058656	46440	108674	0	0	8176	565026	0	0
2024-09-22 23:29:47			0	37838	0	0	0	23532	22130	160475	27346	1058665	46452	108675	0	0	8175	565593	0	0
2024-09-22 23:30:47			0	37850	0	0	0	23540	22120	160479	27398	1058656	46451	108678	0	0	8175	565146	0	0
2024-09-22 23:31:47			0	37845	0	0	0	23529	22120	160447	27507	1058709	46440	108674	0	0	8175	565345	0	0
2024-09-22 23:32:47			0	37845	0	0	0	23524	22120	160363	27497	1058629	46451	108672	0	0	8175	565345	0	0
2024-09-22 23:33:47			0	37856	0	0	0	23524	22120	160367	27156	1058629	46440	108672	0	0	8176	564907	0	0
2024-09-22 23:34:47			0	37846	0	0	0	23516	22120	160447	27336	1058674	46439	108669	0	0	8175	565305	0	0
2024-09-22 23:35:47			0	37845	0	0	0	23529	22120	160439	27478	1058674	46439	108674	0	0	8175	565345	0	0
2024-09-22 23:36:47			0	37845	0	0	0	23535	22120	160435	27313	1058700	46450	108676	0	0	8175	565345	0	0
2024-09-22 23:37:47			0	37860	0	0	0	23535	22110	160399	27550	1058665	46449	108676	0	0	8176	564779	0	0
2024-09-22 23:38:47			0	37885	0	0	0	23532	22110	160415	27286	1058691	46459	108675	0	0	8177	563783	0	0
2024-09-22 23:39:47			0	37849	0	0	0	23527	22120	160371	27296	1058674	46450	108673	0	0	8175	565186	0	0
2024-09-22 23:40:47			0	37868	0	0	0	23524	22120	160327	27261	1058674	46439	108672	0	0	8176	564428	0	0
2024-09-22 23:41:47			0	37855	0	0	0	23527	22110	160351	27090	1058665	46459	108673	0	0	8176	564978	0	0
2024-09-22 23:42:47			0	37851	0	0	0	23522	22110	160415	27424	1058638	46459	108671	0	0	8175	565137	0	0
2024-09-22 23:43:47			0	37845	0	0	0	23527	22110	160447	27223	1058638	46449	108673	0	0	8175	565377	0	0
2024-09-22 23:44:47			0	37845	0	0	0	23522	22120	160415	26831	1058674	46439	108671	0	0	8175	565345	0	0
2024-09-22 23:45:47			0	37837	0	0	0	23516	22120	160451	27585	1058629	46451	108669	0	0	8175	565664	0	0
2024-09-22 23:46:47			0	37841	0	0	0	23514	22110	160503	27417	1058665	46438	108668	0	0	8175	565536	0	0
2024-09-22 23:47:47			0	37825	0	0	0	23519	22110	160463	27157	1058602	46438	108670	0	0	8174	566174	0	0
2024-09-22 23:48:47			0	37822	0	0	0	23514	22110	160451	27213	1058638	46438	108668	0	0	8174	566294	0	0
2024-09-22 23:49:47			0	37830	0	0	0	23514	22110	160539	27649	1058665	46438	108668	0	0	8174	565975	0	0
2024-09-22 23:50:47			0	37800	0	0	0	23516	22110	160627	27050	1058585	46438	108669	0	0	8173	567173	0	0
2024-09-22 23:51:47			0	37796	0	0	0	23506	22100	160691	26975	1058585	46458	108665	0	0	8172	567364	0	0
2024-09-22 23:52:47			0	37775	0	0	0	23509	22110	160711	27428	1058602	46449	108666	0	0	8171	568172	0	0
2024-09-22 23:53:47			0	37759	0	0	0	23511	22100	160799	27403	1058558	46458	108667	0	0	8170	568845	0	0
2024-09-22 23:54:47			0	37736	0	0	0	23514	22110	161027	27369	1058602	46438	108668	0	0	8169	569734	0	0
2024-09-22 23:55:47			0	37719	0	0	0	23511	22110	160943	27471	1058682	46438	108667	0	0	8168	570415	0	0
2024-09-22 23:56:47			0	37700	0	0	0	23516	22110	161047	27459	1058585	46459	108669	0	0	8167	571178	0	0
2024-09-22 23:57:47			0	37719	0	0	0	23509	22100	161067	27294	1058558	46437	108666	0	0	8168	570447	0	0
2024-09-22 23:58:47			0	37701	0	0	0	23501	22100	160971	27511	1058611	46437	108663	0	0	8167	571170	0	0
2024-09-22 23:59:47			0	37721	0	0	0	23498	22090	160979	27343	1058540	46447	108662	0	0	8168	570399	0	0
2024-09-23 00:00:47			0	37721	0	0	0	23501	22100	161031	27066	1058611	46437	108663	0	0	8168	570367	0	0
2024-09-23 00:01:47			0	37715	0	0	0	23503	22100	161047	27201	1058558	46437	108664	0	0	8168	570608	0	0
2024-09-23 00:02:47			0	37709	0	0	0	23506	22090	160991	27381	1058522	46436	108665	0	0	8167	570880	0	0
2024-09-23 00:03:47			0	37728	0	0	0	23498	22090	161039	27095	1058460	46436	108662	0	0	8169	570118	0	0
2024-09-23 00:04:47			0	37700	0	0	0	23503	22080	161075	27268	1058531	46447	108664	0	0	8167	571273	0	0
2024-09-23 00:05:47			0	37724	0	0	0	23493	22090	160987	27447	1058567	46436	108660	0	0	8168	570279	0	0
2024-09-23 00:06:47			0	37737	0	0	0	23488	22070	160975	27443	1058513	46422	108658	0	0	8169	569821	0	0
2024-09-23 00:07:47			0	37733	0	0	0	23490	22090	161003	27497	1058567	46458	108659	0	0	8169	569918	0	0
2024-09-23 00:08:47			0	37720	0	0	0	23488	22090	160915	27265	1058540	46447	108658	0	0	8168	570439	0	0
2024-09-23 00:09:47			0	37751	0	0	0	23483	22080	160831	27360	1058531	46436	108656	0	0	8170	569228	0	0
2024-09-23 00:10:47			0	37733	0	0	0	23483	22080	160879	27447	1058451	46436	108656	0	0	8169	569950	0	0
2024-09-23 00:11:47			0	37742	0	0	0	23488	22080	160859	27300	1058424	46436	108658	0	0	8170	569589	0	0
2024-09-23 00:12:47			0	37737	0	0	0	23480	22090	160959	27398	1058460	46447	108655	0	0	8169	569757	0	0
2024-09-23 00:13:47			0	37736	0	0	0	23477	22090	160927	27303	1058513	46436	108654	0	0	8169	569797	0	0
2024-09-23 00:14:47			0	37738	0	0	0	23475	22070	160939	27443	1058486	46434	108653	0	0	8169	569781	0	0
2024-09-23 00:15:47			0	37731	0	0	0	23483	22080	160979	27305	1058451	46447	108656	0	0	8169	570030	0	0
2024-09-23 00:16:47			0	37759	0	0	0	23477	22070	160995	27549	1058433	46466	108654	0	0	8171	568940	0	0
2024-09-23 00:17:47			0	37746	0	0	0	23475	22070	160967	27376	1058433	46422	108653	0	0	8170	569460	0	0
2024-09-23 00:18:47			0	37755	0	0	0	23467	22070	160963	27616	1058477	46434	108650	0	0	8171	569100	0	0
2024-09-23 00:19:47			0	37743	0	0	0	23470	22060	160871	27383	1058441	46445	108651	0	0	8170	569612	0	0
2024-09-23 00:20:47			0	37752	0	0	0	23475	22080	160871	27531	1058415	46435	108653	0	0	8170	569188	0	0
2024-09-23 00:21:47			0	37755	0	0	0	23477	22070	160915	27229	1058397	46445	108654	0	0	8170	569100	0	0
2024-09-23 00:22:47			0	37757	0	0	0	23470	22070	160895	27364	1058406	46434	108651	0	0	8171	569020	0	0
2024-09-23 00:23:47			0	37748	0	0	0	23470	22070	160895	27350	1058406	46434	108651	0	0	8170	569380	0	0
2024-09-23 00:24:47			0	37741	0	0	0	23475	22060	160859	27523	1058361	46434	108653	0	0	8170	569692	0	0
2024-09-23 00:25:47			0	37765	0	0	0	23480	22060	160819	27587	1058459	46455	108655	0	0	8171	568731	0	0
2024-09-23 00:26:47			0	37751	0	0	0	23488	22060	160875	27324	1058415	46445	108658	0	0	8170	569292	0	0
2024-09-23 00:27:47			0	37750	0	0	0	23475	22060	160967	27372	1058353	46444	108653	0	0	8170	569332	0	0
2024-09-23 00:28:47			0	37738	0	0	0	23464	22060	160843	27156	1058406	46433	108649	0	0	8170	569813	0	0
2024-09-23 00:29:47			0	37738	0	0	0	23472	22060	160963	27407	1058353	46444	108652	0	0	8169	569813	0	0
2024-09-23 00:30:47			0	37730	0	0	0	23470	22050	160963	27402	1058397	46443	108651	0	0	8169	570165	0	0
2024-09-23 00:31:47			0	37736	0	0	0	23462	22040	160987	27190	1058459	46431	108648	0	0	8169	569956	0	0
2024-09-23 00:32:47			0	37731	0	0	0	23459	22060	161007	27254	1058299	46444	108647	0	0	8169	570093	0	0
2024-09-23 00:33:47			0	37734	0	0	0	23464	22060	161139	27263	1058353	46433	108649	0	0	8169	569973	0	0
2024-09-23 00:34:47			0	37698	0	0	0	23457	22050	160995	26878	1058370	46432	108646	0	0	8167	571449	0	0
2024-09-23 00:35:47			0	37718	0	0	0	23454	22050	161035	27267	1058281	46431	108645	0	0	8169	570647	0	0
2024-09-23 00:36:47			0	37702	0	0	0	23464	22050	161099	27154	1058343	46432	108649	0	0	8167	571289	0	0
2024-09-23 00:37:47			0	37705	0	0	0	23462	22050	161063	27019	1058370	46443	108648	0	0	8168	571168	0	0
2024-09-23 00:38:47			0	37693	0	0	0	23454	22050	161107	27066	1058334	46453	108645	0	0	8167	571650	0	0
2024-09-23 00:39:47			0	37710	0	0	0	23457	22060	161067	27079	1058326	46455	108646	0	0	8168	570936	0	0
2024-09-23 00:40:47			0	37700	0	0	0	23459	22050	161103	27357	1058370	46432	108647	0	0	8167	571369	0	0
2024-09-23 00:41:47			0	37680	0	0	0	23449	22040	161231	27369	1058290	46419	108643	0	0	8166	572204	0	0
2024-09-23 00:42:47			0	37690	0	0	0	23457	22040	161227	27372	1058325	46431	108646	0	0	8167	571803	0	0
2024-09-23 00:43:47			0	37673	0	0	0	23449	22040	161203	27057	1058263	46442	108643	0	0	8166	572486	0	0
2024-09-23 00:44:47			0	37671	0	0	0	23451	22040	161251	27177	1058299	46442	108644	0	0	8166	572566	0	0
2024-09-23 00:45:47			0	37667	0	0	0	23454	22040	161227	27005	1058236	46442	108645	0	0	8165	572727	0	0
2024-09-23 00:46:47			0	37682	0	0	0	23457	22050	161211	27166	1058334	46453	108646	0	0	8166	572092	0	0
2024-09-23 00:47:47			0	37676	0	0	0	23446	22030	161247	27111	1058307	46441	108642	0	0	8166	572397	0	0
2024-09-23 00:48:47			0	37675	0	0	0	23449	22050	161103	27232	1058317	46443	108643	0	0	8166	572373	0	0
2024-09-23 00:49:47			0	37695	0	0	0	23449	22040	161271	26963	1058299	46442	108643	0	0	8167	571602	0	0
2024-09-23 00:50:47			0	37677	0	0	0	23449	22050	161263	27319	1058308	46442	108643	0	0	8166	572293	0	0
2024-09-23 00:51:47			0	37684	0	0	0	23441	22050	161227	27166	1058308	46442	108640	0	0	8167	572012	0	0
2024-09-23 00:52:47			0	37690	0	0	0	23446	22040	161175	27227	1058290	46442	108642	0	0	8167	571803	0	0
2024-09-23 00:53:47			0	37709	0	0	0	23449	22030	161147	27289	1058254	46452	108643	0	0	8168	571071	0	0
2024-09-23 00:54:47			0	37686	0	0	0	23433	22040	161115	27286	1058290	46431	108637	0	0	8167	571963	0	0
2024-09-23 00:55:47			0	37700	0	0	0	23433	22030	161179	27083	1058272	46440	108637	0	0	8168	571433	0	0
2024-09-23 00:56:47			0	37698	0	0	0	23420	22040	161035	27402	1058210	46431	108632	0	0	8168	571481	0	0
2024-09-23 00:57:47			0	37712	0	0	0	23425	22030	161031	26955	1058201	46430	108634	0	0	8169	570951	0	0
2024-09-23 00:58:47			0	37727	0	0	0	23423	22030	161095	27159	1058201	46430	108633	0	0	8169	570349	0	0
2024-09-23 00:59:47			0	37716	0	0	0	23420	22020	161019	27078	1058147	46407	108632	0	0	8169	570822	0	0
2024-09-23 01:00:47			0	37712	0	0	0	23423	22030	161067	27516	1058165	46417	108633	0	0	8169	570951	0	0
2024-09-23 01:01:47			0	37716	0	0	0	23415	22020	161003	27405	1058174	46429	108630	0	0	8169	570822	0	0
2024-09-23 01:02:47			0	37713	0	0	0	23425	22020	160991	26967	1058130	46429	108634	0	0	8169	570943	0	0
2024-09-23 01:03:47			0	37721	0	0	0	23412	22030	161183	26890	1058165	46417	108629	0	0	8169	570590	0	0
2024-09-23 01:04:47			0	37720	0	0	0	23415	22020	161059	26944	1058156	46429	108630	0	0	8169	570662	0	0
2024-09-23 01:05:47			0	37715	0	0	0	23410	22020	161175	27241	1058156	46429	108628	0	0	8169	570862	0	0
2024-09-23 01:06:47			0	37729	0	0	0	23402	22010	161083	27203	1058112	46428	108625	0	0	8170	570333	0	0
2024-09-23 01:07:47			0	37724	0	0	0	23412	22010	161039	26974	1058112	46428	108629	0	0	8169	570533	0	0
2024-09-23 01:08:47			0	37717	0	0	0	23412	22010	161071	27398	1058129	46427	108629	0	0	8169	570814	0	0
2024-09-23 01:09:47			0	37715	0	0	0	23418	22010	161215	27424	1058112	46428	108631	0	0	8169	570894	0	0
2024-09-23 01:10:47			0	37686	0	0	0	23418	22000	161163	27168	1058094	46438	108631	0	0	8167	572091	0	0
2024-09-23 01:11:47			0	37710	0	0	0	23418	22000	161187	27588	1058120	46427	108631	0	0	8168	571127	0	0
2024-09-23 01:12:47			0	37704	0	0	0	23410	22010	161219	27102	1058076	46449	108628	0	0	8168	571336	0	0
2024-09-23 01:13:47			0	37715	0	0	0	23420	22010	161207	27483	1058156	46427	108632	0	0	8169	570894	0	0
2024-09-23 01:14:47			0	37703	0	0	0	23420	22010	161139	27008	1058103	46438	108632	0	0	8168	571376	0	0
2024-09-23 01:15:47			0	37703	0	0	0	23407	22010	161163	27274	1058103	46449	108627	0	0	8168	571376	0	0
2024-09-23 01:16:47			0	37704	0	0	0	23410	22010	161199	27114	1058049	46427	108628	0	0	8168	571336	0	0
2024-09-23 01:17:47			0	37683	0	0	0	23399	22010	161263	27383	1058103	46427	108624	0	0	8167	572180	0	0
2024-09-23 01:18:47			0	37685	0	0	0	23405	22000	161143	27415	1058040	46427	108626	0	0	8167	572131	0	0
2024-09-23 01:19:47			0	37686	0	0	0	23399	21990	161203	27431	1058023	46426	108624	0	0	8167	572123	0	0
2024-09-23 01:20:47			0	37685	0	0	0	23405	21990	161311	27294	1058085	46438	108626	0	0	8167	572163	0	0
2024-09-23 01:21:47			0	37683	0	0	0	23394	21990	161235	27284	1058103	46426	108622	0	0	8167	572243	0	0
2024-09-23 01:22:47			0	37689	0	0	0	23405	22000	161359	27355	1058067	46438	108626	0	0	8167	571970	0	0
2024-09-23 01:23:47			0	37684	0	0	0	23405	21990	161219	27156	1058085	46438	108626	0	0	8167	572203	0	0
2024-09-23 01:24:47			0	37683	0	0	0	23394	21990	161211	27498	1058085	46438	108622	0	0	8167	572243	0	0
2024-09-23 01:25:47			0	37671	0	0	0	23397	21990	161215	27381	1058031	46427	108623	0	0	8166	572726	0	0
2024-09-23 01:26:47			0	37684	0	0	0	23394	21980	161335	27242	1058014	46436	108622	0	0	8167	572235	0	0
2024-09-23 01:27:47			0	37650	0	0	0	23402	21990	161303	27159	1058085	46438	108625	0	0	8165	573571	0	0
2024-09-23 01:28:47			0	37667	0	0	0	23399	21970	161355	27542	1058022	46435	108624	0	0	8166	572951	0	0
2024-09-23 01:29:47			0	37669	0	0	0	23394	21990	161355	27376	1058031	46438	108622	0	0	8166	572806	0	0
2024-09-23 01:30:47			0	37656	0	0	0	23394	21990	161407	27296	1058103	46437	108622	0	0	8166	573329	0	0
2024-09-23 01:31:47			0	37668	0	0	0	23394	21990	161495	27331	1058076	46448	108622	0	0	8166	572846	0	0
2024-09-23 01:32:47			0	37643	0	0	0	23386	21970	161391	27369	1058049	46435	108619	0	0	8165	573917	0	0
2024-09-23 01:33:47			0	37645	0	0	0	23394	21980	161391	27256	1058040	46425	108622	0	0	8165	573804	0	0
2024-09-23 01:34:47			0	37647	0	0	0	23384	21970	161439	27222	1058049	46435	108618	0	0	8165	573756	0	0
2024-09-23 01:35:47			0	37645	0	0	0	23389	21990	161523	27383	1058023	46426	108620	0	0	8165	573772	0	0
2024-09-23 01:36:47			0	37637	0	0	0	23389	21980	161583	27383	1058031	46435	108620	0	0	8165	574126	0	0
2024-09-23 01:37:47			0	37606	0	0	0	23394	21980	161611	27209	1058031	46424	108622	0	0	8163	575376	0	0
2024-09-23 01:38:47			0	37616	0	0	0	23384	21980	161567	27261	1058058	46413	108618	0	0	8163	574973	0	0
2024-09-23 01:39:47			0	37597	0	0	0	23381	21990	161559	27086	1058049	46426	108617	0	0	8162	575707	0	0
2024-09-23 01:40:47			0	37601	0	0	0	23379	21980	161463	27203	1058040	46436	108616	0	0	8163	575578	0	0
2024-09-23 01:41:47			0	37607	0	0	0	23381	21980	161671	27052	1058005	46424	108617	0	0	8163	575336	0	0
2024-09-23 01:42:47			0	37609	0	0	0	23389	21980	161599	27296	1058005	46435	108620	0	0	8163	575255	0	0
2024-09-23 01:43:47			0	37593	0	0	0	23389	21970	161651	27008	1057996	46424	108620	0	0	8162	575933	0	0
2024-09-23 01:44:47			0	37623	0	0	0	23379	21970	161627	27133	1057969	46424	108616	0	0	8164	574723	0	0
2024-09-23 01:45:47			0	37602	0	0	0	23381	21970	161659	27223	1057969	46424	108617	0	0	8163	575569	0	0
2024-09-23 01:46:47			0	37607	0	0	0	23389	21970	161619	26981	1057969	46424	108620	0	0	8163	575368	0	0
2024-09-23 01:47:47			0	37611	0	0	0	23381	21970	161623	27258	1058022	46413	108617	0	0	8163	575206	0	0
2024-09-23 01:48:47			0	37621	0	0	0	23392	21970	161571	27313	1058022	46435	108621	0	0	8163	574803	0	0
2024-09-23 01:49:47			0	37619	0	0	0	23386	21980	161591	27284	1057978	46435	108619	0	0	8164	574852	0	0
2024-09-23 01:50:47			0	37633	0	0	0	23379	21970	161419	27031	1057933	46446	108616	0	0	8164	574320	0	0
2024-09-23 01:51:47			0	37640	0	0	0	23386	21970	161527	27121	1057960	46435	108619	0	0	8165	574037	0	0
2024-09-23 01:52:47			0	37630	0	0	0	23381	21970	161555	27350	1058040	46424	108617	0	0	8164	574440	0	0
2024-09-23 01:53:47			0	37620	0	0	0	23384	21970	161643	27081	1058049	46435	108618	0	0	8164	574844	0	0
2024-09-23 01:54:47			0	37641	0	0	0	23384	21970	161507	27133	1057960	46435	108618	0	0	8165	573997	0	0
2024-09-23 01:55:47			0	37636	0	0	0	23386	21970	161599	27341	1057960	46424	108619	0	0	8164	574199	0	0
2024-09-23 01:56:47			0	37652	0	0	0	23384	21960	161471	27395	1057969	46421	108618	0	0	8165	573586	0	0
2024-09-23 01:57:47			0	37650	0	0	0	23386	21970	161431	27460	1057960	46424	108619	0	0	8165	573635	0	0
2024-09-23 01:58:47			0	37640	0	0	0	23392	21970	161371	27341	1057969	46446	108621	0	0	8165	574037	0	0
2024-09-23 01:59:47			0	37648	0	0	0	23384	21960	161431	27137	1057978	46423	108618	0	0	8165	573747	0	0
2024-09-23 02:00:47			0	37668	0	0	0	23392	21970	161383	27407	1058022	46424	108621	0	0	8166	572910	0	0
2024-09-23 02:01:47			0	37656	0	0	0	23386	21970	161359	27098	1057960	46424	108619	0	0	8166	573393	0	0
2024-09-23 02:02:47			0	37676	0	0	0	23384	21980	161327	27327	1058031	46424	108618	0	0	8167	572557	0	0
2024-09-23 02:03:47			0	37690	0	0	0	23381	21970	161271	26977	1057969	46435	108617	0	0	8168	572026	0	0
2024-09-23 02:04:47			0	37682	0	0	0	23376	21960	161507	27364	1058004	46434	108615	0	0	8167	572379	0	0
2024-09-23 02:05:47			0	37672	0	0	0	23373	21970	161359	27258	1058013	46424	108614	0	0	8167	572749	0	0
2024-09-23 02:06:47			0	37669	0	0	0	23373	21960	161383	27128	1057951	46434	108614	0	0	8167	572902	0	0
2024-09-23 02:07:47			0	37674	0	0	0	23379	21980	161359	27227	1057978	46424	108616	0	0	8167	572637	0	0
2024-09-23 02:08:47			0	37666	0	0	0	23376	21960	161407	27038	1057898	46423	108615	0	0	8166	573023	0	0
2024-09-23 02:09:47			0	37660	0	0	0	23371	21950	161443	27341	1057933	46421	108613	0	0	8166	573296	0	0
2024-09-23 02:10:47			0	37674	0	0	0	23379	21960	161407	27353	1057942	46433	108616	0	0	8167	572701	0	0
2024-09-23 02:11:47			0	37649	0	0	0	23368	21960	161399	27223	1057951	46423	108612	0	0	8166	573707	0	0
2024-09-23 02:12:47			0	37633	0	0	0	23373	21970	161515	27274	1057960	46413	108614	0	0	8165	574320	0	0
2024-09-23 02:13:47			0	37634	0	0	0	23371	21960	161507	27203	1057916	46421	108613	0	0	8165	574311	0	0
2024-09-23 02:14:47			0	37626	0	0	0	23371	21960	161555	27301	1057916	46433	108613	0	0	8164	574634	0	0
2024-09-23 02:15:47			0	37612	0	0	0	23379	21960	161699	27171	1057898	46423	108616	0	0	8163	575198	0	0
2024-09-23 02:16:47			0	37592	0	0	0	23376	21950	161735	27064	1057871	46433	108615	0	0	8162	576037	0	0
2024-09-23 02:17:47			0	37576	0	0	0	23376	21960	161755	27242	1057916	46433	108615	0	0	8161	576651	0	0
2024-09-23 02:18:47			0	37570	0	0	0	23384	21970	161731	27093	1057960	46424	108618	0	0	8161	576862	0	0
2024-09-23 02:19:47			0	37570	0	0	0	23373	21970	161763	27320	1057933	46446	108614	0	0	8161	576862	0	0
2024-09-23 02:20:47			0	37555	0	0	0	23363	21960	161799	27164	1057978	46423	108610	0	0	8160	577500	0	0
2024-09-23 02:21:47			0	37562	0	0	0	23361	21960	161751	27227	1057898	46423	108609	0	0	8160	577217	0	0
2024-09-23 02:22:47			0	37568	0	0	0	23366	21960	161763	27209	1057924	46423	108611	0	0	8161	576974	0	0
2024-09-23 02:23:47			0	37563	0	0	0	23363	21960	161807	27199	1057942	46433	108610	0	0	8161	577177	0	0
2024-09-23 02:24:47			0	37558	0	0	0	23379	21960	161739	27232	1057951	46434	108616	0	0	8160	577379	0	0
2024-09-23 02:25:47			0	37581	0	0	0	23379	21950	161695	27305	1057907	46421	108616	0	0	8161	576481	0	0
2024-09-23 02:26:47			0	37579	0	0	0	23379	21960	161783	27279	1057951	46445	108616	0	0	8161	576530	0	0
2024-09-23 02:27:47			0	37554	0	0	0	23358	21960	161751	27220	1057924	46434	108608	0	0	8160	577540	0	0
2024-09-23 02:28:47			0	37580	0	0	0	23361	21950	161823	27222	1057933	46433	108609	0	0	8162	576522	0	0
2024-09-23 02:29:47			0	37586	0	0	0	23361	21950	161739	27055	1057933	46421	108609	0	0	8162	576280	0	0
2024-09-23 02:30:47			0	37580	0	0	0	23358	21950	161795	27326	1057907	46433	108608	0	0	8162	576522	0	0
2024-09-23 02:31:47			0	37594	0	0	0	23361	21950	161631	27189	1057880	46421	108609	0	0	8162	575956	0	0
2024-09-23 02:32:47			0	37624	0	0	0	23363	21950	161467	27092	1057871	46421	108610	0	0	8164	574746	0	0
2024-09-23 02:33:47			0	37647	0	0	0	23355	21950	161415	27121	1057897	46433	108607	0	0	8166	573820	0	0
2024-09-23 02:34:47			0	37644	0	0	0	23368	21950	161359	27036	1057897	46433	108612	0	0	8165	573940	0	0
2024-09-23 02:35:47			0	37661	0	0	0	23355	21950	161419	27013	1057871	46433	108607	0	0	8166	573256	0	0
2024-09-23 02:36:47			0	37653	0	0	0	23358	21950	161311	27372	1057853	46433	108608	0	0	8166	573578	0	0
2024-09-23 02:37:47			0	37660	0	0	0	23345	21940	161403	27048	1057835	46410	108603	0	0	8166	573328	0	0
2024-09-23 02:38:47			0	37657	0	0	0	23355	21950	161363	26920	1057844	46421	108607	0	0	8166	573417	0	0
2024-09-23 02:39:47			0	37655	0	0	0	23342	21940	161347	27118	1057835	46443	108602	0	0	8166	573529	0	0
2024-09-23 02:40:47			0	37653	0	0	0	23348	21940	161375	27293	1057826	46431	108604	0	0	8166	573610	0	0
2024-09-23 02:41:47			0	37651	0	0	0	23353	21940	161463	27284	1057808	46432	108606	0	0	8166	573690	0	0
2024-09-23 02:42:47			0	37623	0	0	0	23353	21940	161463	27116	1057826	46420	108606	0	0	8164	574819	0	0
2024-09-23 02:43:47			0	37629	0	0	0	23355	21940	161447	27118	1057862	46432	108607	0	0	8164	574577	0	0
2024-09-23 02:44:47			0	37626	0	0	0	23353	21940	161435	27128	1057853	46431	108606	0	0	8164	574698	0	0
2024-09-23 02:45:47			0	37628	0	0	0	23353	21950	161595	27164	1057817	46444	108606	0	0	8164	574585	0	0
2024-09-23 02:46:47			0	37621	0	0	0	23350	21930	161599	27336	1057755	46420	108605	0	0	8164	574931	0	0
2024-09-23 02:47:47			0	37617	0	0	0	23355	21940	161595	27211	1057835	46421	108607	0	0	8164	575060	0	0
2024-09-23 02:48:47			0	37618	0	0	0	23353	21940	161575	27386	1057853	46431	108606	0	0	8164	575020	0	0
2024-09-23 02:49:47			0	37600	0	0	0	23353	21930	161571	27111	1057790	46420	108606	0	0	8163	575779	0	0
2024-09-23 02:50:47			0	37609	0	0	0	23353	21940	161507	26797	1057862	46410	108606	0	0	8163	575383	0	0
2024-09-23 02:51:47			0	37618	0	0	0	23345	21950	161603	27277	1057817	46433	108603	0	0	8164	574988	0	0
2024-09-23 02:52:47			0	37604	0	0	0	23348	21940	161631	27007	1057773	46431	108604	0	0	8163	575585	0	0
2024-09-23 02:53:47			0	37615	0	0	0	23335	21930	161695	27474	1057790	46431	108599	0	0	8164	575173	0	0
2024-09-23 02:54:47			0	37598	0	0	0	23337	21930	161575	27317	1057790	46420	108600	0	0	8163	575859	0	0
2024-09-23 02:55:47			0	37586	0	0	0	23337	21940	161631	27145	1057826	46431	108600	0	0	8162	576312	0	0
2024-09-23 02:56:47			0	37600	0	0	0	23329	21930	161651	27345	1057817	46420	108597	0	0	8163	575779	0	0
2024-09-23 02:57:47			0	37582	0	0	0	23329	21940	161791	27213	1057808	46421	108597	0	0	8162	576473	0	0
2024-09-23 02:58:47			0	37581	0	0	0	23335	21930	161783	27383	1057710	46420	108599	0	0	8162	576546	0	0
2024-09-23 02:59:47			0	37569	0	0	0	23337	21930	161771	27331	1057781	46431	108600	0	0	8161	577031	0	0
2024-09-23 03:00:47			0	37589	0	0	0	23332	21930	161863	27182	1057737	46442	108598	0	0	8162	576223	0	0
2024-09-23 03:01:47			0	37550	0	0	0	23340	21920	161791	27076	1057826	46408	108601	0	0	8160	577831	0	0
2024-09-23 03:02:47			0	37540	0	0	0	23335	21930	161895	27150	1057808	46431	108599	0	0	8159	578203	0	0
2024-09-23 03:03:47			0	37548	0	0	0	23329	21930	161855	27505	1057781	46431	108597	0	0	8160	577880	0	0
2024-09-23 03:04:47			0	37550	0	0	0	23324	21920	161851	27412	1057773	46419	108595	0	0	8160	577831	0	0
2024-09-23 03:05:47			0	37551	0	0	0	23327	21930	161819	27085	1057737	46442	108596	0	0	8160	577758	0	0
2024-09-23 03:06:47			0	37524	0	0	0	23332	21920	161851	27507	1057773	46408	108598	0	0	8159	578884	0	0
2024-09-23 03:07:47			0	37517	0	0	0	23329	21930	161787	27235	1057755	46420	108597	0	0	8158	579135	0	0
2024-09-23 03:08:47			0	37529	0	0	0	23319	21930	161979	27244	1057755	46431	108593	0	0	8159	578649	0	0
2024-09-23 03:09:47			0	37549	0	0	0	23324	21920	162011	27242	1057746	46408	108595	0	0	8160	577872	0	0
2024-09-23 03:10:47			0	37518	0	0	0	23342	21920	161979	27208	1057773	46430	108602	0	0	8158	579127	0	0
2024-09-23 03:11:47			0	37515	0	0	0	23342	21920	161939	27386	1057737	46429	108602	0	0	8158	579248	0	0
2024-09-23 03:12:47			0	37517	0	0	0	23353	21910	162003	27575	1057781	46417	108606	0	0	8158	579200	0	0
2024-09-23 03:13:47			0	37527	0	0	0	23353	21930	161915	27104	1057835	46420	108606	0	0	8158	578730	0	0
2024-09-23 03:14:47			0	37523	0	0	0	23355	21930	161991	27230	1057781	46420	108607	0	0	8158	578892	0	0
2024-09-23 03:15:47			0	37518	0	0	0	23353	21920	161963	27145	1057719	46430	108606	0	0	8158	579127	0	0
2024-09-23 03:16:47			0	37514	0	0	0	23342	21920	161899	26965	1057799	46419	108602	0	0	8158	579289	0	0
2024-09-23 03:17:47			0	37533	0	0	0	23340	21930	161967	27535	1057781	46420	108601	0	0	8159	578487	0	0
2024-09-23 03:18:47			0	37533	0	0	0	23337	21940	161827	27170	1057826	46453	108600	0	0	8159	578455	0	0
2024-09-23 03:19:47			0	37527	0	0	0	23332	21930	161895	27293	1057781	46420	108598	0	0	8159	578730	0	0
2024-09-23 03:20:47			0	37563	0	0	0	23319	21930	161819	27524	1057781	46431	108593	0	0	8161	577273	0	0
2024-09-23 03:21:47			0	37562	0	0	0	23324	21930	161807	27531	1057755	46431	108595	0	0	8161	577314	0	0
2024-09-23 03:22:47			0	37559	0	0	0	23319	21920	161831	27177	1057737	46417	108593	0	0	8161	577467	0	0
2024-09-23 03:23:47			0	37557	0	0	0	23324	21910	161739	27287	1057728	46407	108595	0	0	8161	577580	0	0
2024-09-23 03:24:47			0	37572	0	0	0	23322	21920	161791	27164	1057693	46430	108594	0	0	8162	576942	0	0
2024-09-23 03:25:47			0	37576	0	0	0	23322	21910	161819	27319	1057648	46417	108594	0	0	8162	576812	0	0
2024-09-23 03:26:47			0	37573	0	0	0	23324	21920	161667	27166	1057666	46419	108595	0	0	8162	576901	0	0
2024-09-23 03:27:47			0	37579	0	0	0	23319	21920	161751	27407	1057710	46417	108593	0	0	8162	576659	0	0
2024-09-23 03:28:47			0	37573	0	0	0	23316	21920	161751	27227	1057684	46429	108592	0	0	8162	576901	0	0
2024-09-23 03:29:47			0	37583	0	0	0	23327	21920	161743	27187	1057737	46429	108596	0	0	8162	576497	0	0
2024-09-23 03:30:47			0	37575	0	0	0	23332	21920	161691	27479	1057710	46429	108598	0	0	8162	576820	0	0
2024-09-23 03:31:47			0	37575	0	0	0	23316	21910	161751	27308	1057728	46417	108592	0	0	8162	576852	0	0
2024-09-23 03:32:47			0	37583	0	0	0	23314	21910	161715	27372	1057719	46416	108591	0	0	8162	576529	0	0
2024-09-23 03:33:47			0	37585	0	0	0	23319	21900	161675	27164	1057683	46428	108593	0	0	8162	576481	0	0
2024-09-23 03:34:47			0	37572	0	0	0	23319	21910	161759	27121	1057701	46417	108593	0	0	8162	576974	0	0
2024-09-23 03:35:47			0	37592	0	0	0	23316	21920	161651	27163	1057684	46417	108592	0	0	8163	576134	0	0
2024-09-23 03:36:47			0	37605	0	0	0	23314	21910	161671	27157	1057666	46416	108591	0	0	8164	575641	0	0
2024-09-23 03:37:47			0	37586	0	0	0	23309	21910	161647	27185	1057719	46428	108589	0	0	8163	576408	0	0
2024-09-23 03:38:47			0	37595	0	0	0	23314	21910	161715	27410	1057666	46416	108591	0	0	8163	576044	0	0
2024-09-23 03:39:47			0	37586	0	0	0	23303	21900	161691	27293	1057648	46427	108587	0	0	8163	576440	0	0
2024-09-23 03:40:47			0	37579	0	0	0	23301	21900	161655	27190	1057674	46427	108586	0	0	8162	576723	0	0
2024-09-23 03:41:47			0	37600	0	0	0	23309	21900	161627	27312	1057657	46406	108589	0	0	8163	575875	0	0
2024-09-23 03:42:47			0	37601	0	0	0	23314	21900	161623	27045	1057621	46416	108591	0	0	8163	575834	0	0
2024-09-23 03:43:47			0	37607	0	0	0	23311	21890	161635	27235	1057612	46426	108590	0	0	8164	575624	0	0
2024-09-23 03:44:47			0	37591	0	0	0	23309	21900	161671	27260	1057630	46416	108589	0	0	8163	576238	0	0
2024-09-23 03:45:47			0	37602	0	0	0	23311	21900	161615	27144	1057674	46416	108590	0	0	8163	575794	0	0
2024-09-23 03:46:47			0	37607	0	0	0	23309	21890	161675	27348	1057639	46426	108589	0	0	8164	575624	0	0
2024-09-23 03:47:47			0	37592	0	0	0	23290	21900	161659	27031	1057621	46427	108582	0	0	8163	576198	0	0
2024-09-23 03:48:47			0	37608	0	0	0	23293	21900	161671	26866	1057621	46427	108583	0	0	8164	575552	0	0
2024-09-23 03:49:47			0	37611	0	0	0	23290	21890	161747	27227	1057586	46415	108582	0	0	8164	575463	0	0
2024-09-23 03:50:47			0	37598	0	0	0	23298	21900	161683	27177	1057594	46416	108585	0	0	8163	575956	0	0
2024-09-23 03:51:47			0	37594	0	0	0	23298	21890	161711	27026	1057612	46404	108585	0	0	8163	576149	0	0
2024-09-23 03:52:47			0	37601	0	0	0	23296	21890	161615	27300	1057612	46404	108584	0	0	8164	575866	0	0
2024-09-23 03:53:47			0	37591	0	0	0	23288	21890	161731	26975	1057586	46415	108581	0	0	8163	576270	0	0
2024-09-23 03:54:47			0	37576	0	0	0	23298	21890	161751	27182	1057639	46415	108585	0	0	8162	576876	0	0
2024-09-23 03:55:47			0	37575	0	0	0	23296	21900	161835	27083	1057568	46405	108584	0	0	8162	576885	0	0
2024-09-23 03:56:47			0	37556	0	0	0	23288	21880	161827	27258	1057594	46415	108581	0	0	8161	577717	0	0
2024-09-23 03:57:47			0	37569	0	0	0	23290	21890	161915	27157	1057657	46415	108582	0	0	8162	577159	0	0
2024-09-23 03:58:47			0	37553	0	0	0	23285	21890	161919	27381	1057586	46415	108580	0	0	8161	577806	0	0
2024-09-23 03:59:47			0	37541	0	0	0	23290	21890	161951	27275	1057603	46415	108582	0	0	8160	578292	0	0
2024-09-23 04:00:47			0	37533	0	0	0	23296	21880	161979	27027	1057559	46414	108584	0	0	8160	578648	0	0
2024-09-23 04:01:47			0	37532	0	0	0	23293	21880	162003	27296	1057532	46414	108583	0	0	8159	578689	0	0
2024-09-23 04:02:47			0	37539	0	0	0	23288	21890	162035	27265	1057603	46415	108581	0	0	8160	578373	0	0
2024-09-23 04:03:47			0	37531	0	0	0	23296	21890	161927	27171	1057550	46426	108584	0	0	8159	578697	0	0
2024-09-23 04:04:47			0	37531	0	0	0	23296	21880	161987	26833	1057541	46426	108584	0	0	8159	578729	0	0
2024-09-23 04:05:47			0	37545	0	0	0	23293	21890	161907	27010	1057603	46415	108583	0	0	8160	578130	0	0
2024-09-23 04:06:47			0	37531	0	0	0	23298	21880	161903	27213	1057532	46403	108585	0	0	8159	578729	0	0
2024-09-23 04:07:47			0	37557	0	0	0	23301	21880	161875	27282	1057532	46425	108586	0	0	8161	577677	0	0
2024-09-23 04:08:47			0	37550	0	0	0	23296	21880	161863	27237	1057532	46436	108584	0	0	8161	577960	0	0
2024-09-23 04:09:47			0	37562	0	0	0	23293	21880	161871	27203	1057585	46414	108583	0	0	8161	577474	0	0
2024-09-23 04:10:47			0	37593	0	0	0	23293	21890	161947	27203	1057550	46437	108583	0	0	8163	576190	0	0
2024-09-23 04:11:47			0	37565	0	0	0	23285	21880	161807	26958	1057532	46414	108580	0	0	8162	577353	0	0
2024-09-23 04:12:47			0	37574	0	0	0	23285	21880	161807	27258	1057532	46425	108580	0	0	8162	576989	0	0
2024-09-23 04:13:47			0	37583	0	0	0	23283	21880	161735	27301	1057479	46425	108579	0	0	8163	576626	0	0
2024-09-23 04:14:47			0	37579	0	0	0	23280	21880	161719	27199	1057594	46426	108578	0	0	8162	576787	0	0
2024-09-23 04:15:47			0	37573	0	0	0	23277	21880	161707	27312	1057505	46414	108577	0	0	8162	577030	0	0
2024-09-23 04:16:47			0	37564	0	0	0	23280	21880	161739	27393	1057532	46403	108578	0	0	8162	577394	0	0
2024-09-23 04:17:47			0	37576	0	0	0	23272	21880	161839	27234	1057479	46414	108575	0	0	8162	576908	0	0
2024-09-23 04:18:47			0	37567	0	0	0	23275	21870	161843	27391	1057550	46413	108576	0	0	8162	577304	0	0
2024-09-23 04:19:47			0	37567	0	0	0	23272	21870	161955	26982	1057541	46402	108575	0	0	8162	577304	0	0
2024-09-23 04:20:47			0	37555	0	0	0	23267	21880	161883	27102	1057488	46415	108573	0	0	8161	577758	0	0
2024-09-23 04:21:47			0	37529	0	0	0	23267	21860	161863	27326	1057505	46402	108573	0	0	8160	578875	0	0
2024-09-23 04:22:47			0	37532	0	0	0	23272	21860	162027	27364	1057532	46413	108575	0	0	8160	578753	0	0
2024-09-23 04:23:47			0	37555	0	0	0	23272	21870	162075	27248	1057487	46413	108575	0	0	8161	577790	0	0
2024-09-23 04:24:47			0	37530	0	0	0	23270	21870	162099	27419	1057550	46413	108574	0	0	8160	578802	0	0
2024-09-23 04:25:47			0	37511	0	0	0	23267	21870	161991	27505	1057487	46402	108573	0	0	8159	579572	0	0
2024-09-23 04:26:47			0	37496	0	0	0	23280	21870	162075	27189	1057487	46424	108578	0	0	8158	580180	0	0
2024-09-23 04:27:47			0	37512	0	0	0	23270	21860	162051	27135	1057496	46412	108574	0	0	8159	579563	0	0
2024-09-23 04:28:47			0	37519	0	0	0	23267	21860	162055	27124	1057416	46423	108573	0	0	8159	579280	0	0
2024-09-23 04:29:47			0	37514	0	0	0	23259	21860	162075	27303	1057470	46423	108570	0	0	8159	579482	0	0
2024-09-23 04:30:47			0	37531	0	0	0	23259	21860	162075	27279	1057470	46423	108570	0	0	8160	578794	0	0
2024-09-23 04:31:47			0	37514	0	0	0	23254	21860	161991	27126	1057443	46423	108568	0	0	8159	579482	0	0
2024-09-23 04:32:47			0	37533	0	0	0	23257	21860	161995	27326	1057443	46412	108569	0	0	8160	578712	0	0
2024-09-23 04:33:47			0	37497	0	0	0	23264	21860	161979	27268	1057470	46423	108572	0	0	8158	580172	0	0
2024-09-23 04:34:47			0	37519	0	0	0	23270	21850	162059	27150	1057381	46400	108574	0	0	8159	579312	0	0
2024-09-23 04:35:47			0	37522	0	0	0	23257	21850	162055	27312	1057407	46411	108569	0	0	8159	579191	0	0
2024-09-23 04:36:47			0	37510	0	0	0	23262	21860	162171	27105	1057452	46413	108571	0	0	8159	579645	0	0
2024-09-23 04:37:47			0	37478	0	0	0	23270	21850	162139	27034	1057407	46411	108574	0	0	8157	580975	0	0
2024-09-23 04:38:47			0	37479	0	0	0	23264	21850	162139	27571	1057398	46422	108572	0	0	8157	580935	0	0
2024-09-23 04:39:47			0	37489	0	0	0	23254	21860	162207	27249	1057470	46412	108568	0	0	8158	580496	0	0
2024-09-23 04:40:47			0	37475	0	0	0	23262	21840	162271	27550	1057443	46410	108571	0	0	8156	581129	0	0
2024-09-23 04:41:47			0	37468	0	0	0	23267	21850	162271	27190	1057425	46411	108573	0	0	8156	581381	0	0
2024-09-23 04:42:47			0	37474	0	0	0	23267	21860	162367	27277	1057470	46412	108573	0	0	8156	581105	0	0
2024-09-23 04:43:47			0	37445	0	0	0	23277	21850	162283	27274	1057452	46422	108577	0	0	8154	582316	0	0
2024-09-23 04:44:47			0	37463	0	0	0	23275	21850	162295	27422	1057461	46422	108576	0	0	8156	581585	0	0
2024-09-23 04:45:47			0	37448	0	0	0	23267	21850	162311	27334	1057434	46433	108573	0	0	8155	582194	0	0
2024-09-23 04:46:47			0	37481	0	0	0	23267	21850	162331	27822	1057478	46422	108573	0	0	8157	580853	0	0
2024-09-23 04:47:47			0	37464	0	0	0	23270	21860	162355	27081	1057496	46401	108574	0	0	8156	581511	0	0
2024-09-23 04:48:47			0	37463	0	0	0	23267	21860	162391	27145	1057443	46423	108573	0	0	8156	581552	0	0
2024-09-23 04:49:47			0	37471	0	0	0	23264	21850	162307	27317	1057425	46422	108572	0	0	8156	581260	0	0
2024-09-23 04:50:47			0	37467	0	0	0	23257	21850	162203	27003	1057461	46422	108569	0	0	8156	581422	0	0
2024-09-23 04:51:47			0	37469	0	0	0	23254	21850	162243	27182	1057425	46411	108568	0	0	8156	581341	0	0
2024-09-23 04:52:47			0	37496	0	0	0	23262	21850	162275	27253	1057452	46422	108571	0	0	8158	580245	0	0
2024-09-23 04:53:47			0	37483	0	0	0	23254	21860	162299	27104	1057416	46434	108568	0	0	8157	580740	0	0
2024-09-23 04:54:47			0	37482	0	0	0	23254	21840	162195	27081	1057381	46399	108568	0	0	8157	580845	0	0
2024-09-23 04:55:47			0	37479	0	0	0	23249	21850	162207	27251	1057434	46422	108566	0	0	8157	580935	0	0
2024-09-23 04:56:47			0	37471	0	0	0	23251	21830	162235	27145	1057398	46409	108567	0	0	8156	581324	0	0
2024-09-23 04:57:47			0	37462	0	0	0	23251	21840	162131	27220	1057336	46410	108567	0	0	8156	581658	0	0
2024-09-23 04:58:47			0	37477	0	0	0	23251	21840	162347	27114	1057407	46421	108567	0	0	8157	581048	0	0
2024-09-23 04:59:47			0	37485	0	0	0	23246	21840	162299	27001	1057389	46421	108565	0	0	8157	580723	0	0
2024-09-23 05:00:47			0	37473	0	0	0	23249	21840	162351	27405	1057389	46399	108566	0	0	8157	581211	0	0
2024-09-23 05:01:47			0	37468	0	0	0	23257	21840	162303	27414	1057354	46399	108569	0	0	8156	581414	0	0
2024-09-23 05:02:47			0	37438	0	0	0	23246	21830	162415	27332	1057398	46409	108565	0	0	8154	582666	0	0
2024-09-23 05:03:47			0	37430	0	0	0	23241	21840	162403	27083	1057363	46399	108563	0	0	8154	582959	0	0
2024-09-23 05:04:47			0	37431	0	0	0	23236	21840	162451	27383	1057381	46388	108561	0	0	8154	582918	0	0
2024-09-23 05:05:47			0	37440	0	0	0	23241	21840	162455	27540	1057309	46399	108563	0	0	8155	582552	0	0
2024-09-23 05:06:47			0	37430	0	0	0	23238	21840	162451	27376	1057309	46410	108562	0	0	8154	582959	0	0
2024-09-23 05:07:47			0	37438	0	0	0	23244	21840	162611	27426	1057389	46399	108564	0	0	8155	582633	0	0
2024-09-23 05:08:47			0	37432	0	0	0	23238	21840	162411	27126	1057301	46421	108562	0	0	8154	582877	0	0
2024-09-23 05:09:47			0	37420	0	0	0	23244	21830	162419	27204	1057309	46398	108564	0	0	8153	583398	0	0
2024-09-23 05:10:47			0	37416	0	0	0	23246	21840	162475	27093	1057354	46410	108565	0	0	8153	583529	0	0
2024-09-23 05:11:47			0	37423	0	0	0	23246	21840	162623	27341	1057354	46421	108565	0	0	8154	583244	0	0
2024-09-23 05:12:47			0	37414	0	0	0	23244	21830	162611	27173	1057309	46409	108564	0	0	8153	583643	0	0
2024-09-23 05:13:47			0	37428	0	0	0	23246	21840	162563	27322	1057363	46421	108565	0	0	8154	583040	0	0
2024-09-23 05:14:47			0	37411	0	0	0	23238	21840	162647	27436	1057354	46410	108562	0	0	8153	583733	0	0
2024-09-23 05:15:47			0	37403	0	0	0	23233	21840	162571	27497	1057327	46410	108560	0	0	8153	584058	0	0
2024-09-23 05:16:47			0	37407	0	0	0	23236	21840	162723	27156	1057354	46410	108561	0	0	8153	583895	0	0
2024-09-23 05:17:47			0	37406	0	0	0	23241	21830	162563	27345	1057318	46409	108563	0	0	8153	583969	0	0
2024-09-23 05:18:47			0	37415	0	0	0	23236	21840	162575	27417	1057354	46410	108561	0	0	8153	583570	0	0
2024-09-23 05:19:47			0	37401	0	0	0	23233	21830	162667	27486	1057372	46409	108560	0	0	8153	584172	0	0
2024-09-23 05:20:47			0	37393	0	0	0	23238	21830	162603	27355	1057318	46409	108562	0	0	8152	584498	0	0
2024-09-23 05:21:47			0	37393	0	0	0	23236	21830	162595	27284	1057372	46409	108561	0	0	8152	584498	0	0
2024-09-23 05:22:47			0	37399	0	0	0	23238	21830	162663	27339	1057282	46420	108562	0	0	8152	584254	0	0
2024-09-23 05:23:47			0	37386	0	0	0	23236	21830	162607	27239	1057372	46409	108561	0	0	8152	584784	0	0
2024-09-23 05:24:47			0	37395	0	0	0	23238	21830	162679	27383	1057318	46409	108562	0	0	8152	584417	0	0
2024-09-23 05:25:47			0	37402	0	0	0	23233	21840	162635	27282	1057381	46421	108560	0	0	8153	584099	0	0
2024-09-23 05:26:47			0	37393	0	0	0	23236	21840	162671	27393	1057301	46432	108561	0	0	8152	584466	0	0
2024-09-23 05:27:47			0	37384	0	0	0	23236	21830	162739	27478	1057345	46398	108561	0	0	8151	584865	0	0
2024-09-23 05:28:47			0	37395	0	0	0	23231	21840	162727	27161	1057407	46421	108559	0	0	8152	584384	0	0
2024-09-23 05:29:47			0	37387	0	0	0	23233	21840	162735	26923	1057381	46421	108560	0	0	8152	584710	0	0
2024-09-23 05:30:47			0	37373	0	0	0	23246	21830	162727	27013	1057389	46398	108565	0	0	8151	585314	0	0
2024-09-23 05:31:47			0	37386	0	0	0	23246	21830	162711	26977	1057372	46398	108565	0	0	8151	584784	0	0
2024-09-23 05:32:47			0	37377	0	0	0	23257	21830	162775	27202	1057389	46398	108569	0	0	8151	585151	0	0
2024-09-23 05:33:47			0	37383	0	0	0	23249	21830	162803	27332	1057318	46420	108566	0	0	8151	584906	0	0
2024-09-23 05:34:47			0	37386	0	0	0	23244	21850	162691	27261	1057372	46422	108564	0	0	8152	584719	0	0
2024-09-23 05:35:47			0	37374	0	0	0	23257	21830	162723	27301	1057345	46409	108569	0	0	8151	585273	0	0
2024-09-23 05:36:47			0	37365	0	0	0	23249	21840	162691	27251	1057407	46421	108566	0	0	8150	585608	0	0
2024-09-23 05:37:47			0	37369	0	0	0	23251	21840	162763	27441	1057416	46410	108567	0	0	8150	585445	0	0
2024-09-23 05:38:47			0	37366	0	0	0	23254	21830	162595	27142	1057478	46409	108568	0	0	8150	585600	0	0
2024-09-23 05:39:47			0	37377	0	0	0	23249	21840	162751	27438	1057354	46421	108566	0	0	8151	585118	0	0
2024-09-23 05:40:47			0	37390	0	0	0	23241	21840	162795	27357	1057434	46421	108563	0	0	8152	584588	0	0
2024-09-23 05:41:47			0	37376	0	0	0	23249	21840	162687	27443	1057407	46410	108566	0	0	8151	585159	0	0
2024-09-23 05:42:47			0	37380	0	0	0	23254	21840	162739	27460	1057389	46410	108568	0	0	8151	584996	0	0
2024-09-23 05:43:47			0	37381	0	0	0	23238	21840	162711	26937	1057416	46410	108562	0	0	8151	584955	0	0
2024-09-23 05:44:47			0	37384	0	0	0	23241	21840	162755	27282	1057381	46432	108563	0	0	8151	584833	0	0
2024-09-23 05:45:47			0	37409	0	0	0	23236	21840	162715	27348	1057389	46421	108561	0	0	8153	583814	0	0
2024-09-23 05:46:47			0	37394	0	0	0	23249	21840	162607	27336	1057354	46421	108566	0	0	8152	584425	0	0
2024-09-23 05:47:47			0	37389	0	0	0	23233	21840	162551	27168	1057407	46432	108560	0	0	8152	584629	0	0
2024-09-23 05:48:47			0	37405	0	0	0	23236	21840	162575	27320	1057354	46410	108561	0	0	8153	583977	0	0
2024-09-23 05:49:47			0	37403	0	0	0	23251	21840	162559	27293	1057363	46421	108567	0	0	8152	584058	0	0
2024-09-23 05:50:47			0	37414	0	0	0	23262	21840	162555	26837	1057336	46421	108571	0	0	8153	583610	0	0
2024-09-23 05:51:47			0	37428	0	0	0	23257	21830	162483	27279	1057345	46420	108569	0	0	8154	583073	0	0
2024-09-23 05:52:47			0	37399	0	0	0	23254	21830	162619	27443	1057345	46420	108568	0	0	8152	584254	0	0
2024-09-23 05:53:47			0	37411	0	0	0	23249	21830	162591	27428	1057345	46431	108566	0	0	8153	583765	0	0
2024-09-23 05:54:47			0	37389	0	0	0	23244	21830	162607	27353	1057452	46409	108564	0	0	8152	584662	0	0
2024-09-23 05:55:47			0	37396	0	0	0	23244	21840	162607	27322	1057354	46410	108564	0	0	8152	584344	0	0
2024-09-23 05:56:47			0	37405	0	0	0	23233	21840	162643	27398	1057354	46410	108560	0	0	8153	583977	0	0
2024-09-23 05:57:47			0	37413	0	0	0	23238	21840	162727	27372	1057354	46410	108562	0	0	8153	583651	0	0
2024-09-23 05:58:47			0	37399	0	0	0	23236	21840	162779	27388	1057443	46410	108561	0	0	8152	584221	0	0
2024-09-23 05:59:47			0	37431	0	0	0	23246	21840	162547	27296	1057407	46410	108565	0	0	8154	582918	0	0
2024-09-23 06:00:47			0	37398	0	0	0	23251	21830	162547	27154	1057362	46420	108567	0	0	8152	584295	0	0
2024-09-23 06:01:47			0	37421	0	0	0	23257	21840	162535	27300	1057354	46410	108569	0	0	8153	583325	0	0
2024-09-23 06:02:47			0	37412	0	0	0	23259	21840	162523	27175	1057389	46432	108570	0	0	8153	583692	0	0
2024-09-23 06:03:47			0	37415	0	0	0	23249	21840	162547	27092	1057327	46399	108566	0	0	8153	583570	0	0
2024-09-23 06:04:47			0	37424	0	0	0	23254	21830	162503	26889	1057425	46420	108568	0	0	8154	583236	0	0
2024-09-23 06:05:47			0	37441	0	0	0	23251	21840	162487	27419	1057389	46410	108567	0	0	8155	582511	0	0
2024-09-23 06:06:47			0	37430	0	0	0	23251	21830	162579	27163	1057372	46398	108567	0	0	8154	582991	0	0
2024-09-23 06:07:47			0	37418	0	0	0	23254	21850	162495	27630	1057398	46422	108568	0	0	8153	583415	0	0
2024-09-23 06:08:47			0	37416	0	0	0	23264	21840	162555	27336	1057469	46432	108572	0	0	8153	583529	0	0
2024-09-23 06:09:47			0	37432	0	0	0	23267	21840	162487	27483	1057363	46399	108573	0	0	8154	582877	0	0
2024-09-23 06:10:47			0	37439	0	0	0	23257	21840	162519	27395	1057434	46410	108569	0	0	8154	582593	0	0
2024-09-23 06:11:47			0	37442	0	0	0	23251	21830	162519	27395	1057398	46431	108567	0	0	8155	582503	0	0
2024-09-23 06:12:47			0	37438	0	0	0	23246	21840	162447	27020	1057460	46432	108565	0	0	8155	582633	0	0
2024-09-23 06:13:47			0	37443	0	0	0	23241	21840	162371	27119	1057327	46410	108563	0	0	8155	582430	0	0
2024-09-23 06:14:47			0	37458	0	0	0	23241	21830	162391	27209	1057345	46398	108563	0	0	8156	581853	0	0
2024-09-23 06:15:47			0	37456	0	0	0	23244	21840	162271	27303	1057407	46399	108564	0	0	8156	581901	0	0
2024-09-23 06:16:47			0	37487	0	0	0	23238	21840	162251	27126	1057407	46421	108562	0	0	8158	580642	0	0
2024-09-23 06:17:47			0	37465	0	0	0	23251	21830	162207	27402	1057372	46420	108567	0	0	8156	581568	0	0
2024-09-23 06:18:47			0	37489	0	0	0	23251	21840	162215	27431	1057381	46421	108567	0	0	8157	580561	0	0
2024-09-23 06:19:47			0	37493	0	0	0	23262	21830	162211	27300	1057389	46409	108571	0	0	8157	580431	0	0
2024-09-23 06:20:47			0	37490	0	0	0	23254	21840	162263	27092	1057407	46410	108568	0	0	8157	580520	0	0
2024-09-23 06:21:47			0	37496	0	0	0	23254	21830	162195	27326	1057389	46420	108568	0	0	8158	580309	0	0
2024-09-23 06:22:47			0	37510	0	0	0	23244	21830	162127	27007	1057398	46420	108564	0	0	8159	579741	0	0
2024-09-23 06:23:47			0	37537	0	0	0	23238	21840	162107	27268	1057407	46410	108562	0	0	8161	578615	0	0
2024-09-23 06:24:47			0	37551	0	0	0	23238	21830	162095	27272	1057425	46420	108562	0	0	8161	578080	0	0
2024-09-23 06:25:47			0	37540	0	0	0	23241	21840	162031	27251	1057363	46410	108563	0	0	8161	578494	0	0
2024-09-23 06:26:47			0	37551	0	0	0	23236	21840	161991	26916	1057389	46421	108561	0	0	8161	578048	0	0
2024-09-23 06:27:47			0	37538	0	0	0	23241	21830	162063	27003	1057398	46409	108563	0	0	8160	578607	0	0
2024-09-23 06:28:47			0	37539	0	0	0	23233	21830	161943	27097	1057336	46409	108560	0	0	8161	578566	0	0
2024-09-23 06:29:47			0	37540	0	0	0	23241	21830	161971	27076	1057398	46409	108563	0	0	8161	578526	0	0
2024-09-23 06:30:47			0	37530	0	0	0	23241	21840	161983	27410	1057407	46421	108563	0	0	8160	578899	0	0
2024-09-23 06:31:47			0	37537	0	0	0	23241	21830	161923	27268	1057345	46409	108563	0	0	8160	578647	0	0
2024-09-23 06:32:47			0	37536	0	0	0	23249	21830	161871	27157	1057372	46409	108566	0	0	8160	578688	0	0
2024-09-23 06:33:47			0	37545	0	0	0	23241	21830	161911	26960	1057318	46409	108563	0	0	8161	578323	0	0
2024-09-23 06:34:47			0	37534	0	0	0	23241	21830	161895	27296	1057389	46409	108563	0	0	8160	578769	0	0
2024-09-23 06:35:47			0	37544	0	0	0	23241	21840	161899	27248	1057381	46421	108563	0	0	8161	578332	0	0
2024-09-23 06:36:47			0	37529	0	0	0	23244	21830	161959	27428	1057372	46409	108564	0	0	8160	578971	0	0
2024-09-23 06:37:47			0	37544	0	0	0	23246	21820	161879	27026	1057344	46419	108565	0	0	8161	578396	0	0
2024-09-23 06:38:47			0	37533	0	0	0	23254	21830	161911	27481	1057345	46409	108568	0	0	8160	578809	0	0
2024-09-23 06:39:47			0	37537	0	0	0	23244	21830	161879	27123	1057372	46409	108564	0	0	8160	578647	0	0
2024-09-23 06:40:47			0	37560	0	0	0	23236	21830	161923	27701	1057416	46431	108561	0	0	8162	577716	0	0
2024-09-23 06:41:47			0	37533	0	0	0	23241	21840	161987	26986	1057381	46432	108563	0	0	8160	578777	0	0
2024-09-23 06:42:47			0	37558	0	0	0	23244	21830	161855	26955	1057345	46420	108564	0	0	8162	577797	0	0
2024-09-23 06:43:47			0	37544	0	0	0	23233	21820	161987	27282	1057327	46408	108560	0	0	8161	578396	0	0
2024-09-23 06:44:47			0	37566	0	0	0	23236	21830	161899	27367	1057372	46409	108561	0	0	8162	577473	0	0
2024-09-23 06:45:47			0	37557	0	0	0	23251	21830	161907	27227	1057372	46409	108567	0	0	8161	577838	0	0
2024-09-23 06:46:47			0	37566	0	0	0	23241	21820	161867	27256	1057380	46408	108563	0	0	8162	577506	0	0
2024-09-23 06:47:47			0	37558	0	0	0	23236	21820	161855	27234	1057327	46397	108561	0	0	8162	577829	0	0
2024-09-23 06:48:47			0	37562	0	0	0	23236	21830	161875	27223	1057345	46409	108561	0	0	8162	577635	0	0
2024-09-23 06:49:47			0	37572	0	0	0	23233	21830	161763	27298	1057398	46398	108560	0	0	8163	577231	0	0
2024-09-23 06:50:47			0	37577	0	0	0	23225	21830	161935	27196	1057362	46409	108557	0	0	8163	577029	0	0
2024-09-23 06:51:47			0	37589	0	0	0	23236	21820	161815	27249	1057327	46419	108561	0	0	8164	576576	0	0
2024-09-23 06:52:47			0	37578	0	0	0	23228	21830	161823	27048	1057372	46409	108558	0	0	8163	576988	0	0
2024-09-23 06:53:47			0	37569	0	0	0	23233	21830	161731	27414	1057309	46387	108560	0	0	8162	577352	0	0
2024-09-23 06:54:47			0	37574	0	0	0	23233	21830	161823	26981	1057389	46409	108560	0	0	8163	577150	0	0
2024-09-23 06:55:47			0	37560	0	0	0	23220	21830	161851	27424	1057398	46398	108555	0	0	8162	577716	0	0
2024-09-23 06:56:47			0	37564	0	0	0	23231	21830	161879	27507	1057416	46409	108559	0	0	8162	577554	0	0
2024-09-23 06:57:47			0	37559	0	0	0	23220	21830	161835	27398	1057309	46409	108555	0	0	8162	577757	0	0
2024-09-23 06:58:47			0	37556	0	0	0	23225	21830	161931	27190	1057389	46398	108557	0	0	8162	577878	0	0
2024-09-23 06:59:47			0	37561	0	0	0	23228	21820	161867	27407	1057291	46419	108558	0	0	8162	577708	0	0
2024-09-23 07:00:47			0	37551	0	0	0	23228	21830	161839	27274	1057362	46398	108558	0	0	8161	578080	0	0
2024-09-23 07:01:47			0	37547	0	0	0	23233	21830	161839	27298	1057309	46409	108560	0	0	8161	578242	0	0
2024-09-23 07:02:47			0	37549	0	0	0	23233	21820	161735	27426	1057353	46419	108560	0	0	8161	578194	0	0
2024-09-23 07:03:47			0	37556	0	0	0	23220	21820	161879	27595	1057264	46408	108555	0	0	8162	577910	0	0
2024-09-23 07:04:47			0	37545	0	0	0	23228	21830	161903	27415	1057309	46420	108558	0	0	8161	578323	0	0
2024-09-23 07:05:47			0	37552	0	0	0	23236	21820	161927	27386	1057371	46397	108561	0	0	8161	578072	0	0
2024-09-23 07:06:47			0	37541	0	0	0	23231	21820	161943	27183	1057291	46419	108559	0	0	8161	578517	0	0
2024-09-23 07:07:47			0	37529	0	0	0	23244	21810	162007	27625	1057309	46418	108564	0	0	8160	579036	0	0
2024-09-23 07:08:47			0	37535	0	0	0	23228	21820	161999	27307	1057300	46419	108558	0	0	8160	578760	0	0
2024-09-23 07:09:47			0	37559	0	0	0	23241	21820	162007	27438	1057344	46419	108563	0	0	8162	577789	0	0
2024-09-23 07:10:47			0	37542	0	0	0	23241	21830	162007	27109	1057336	46409	108563	0	0	8161	578445	0	0
2024-09-23 07:11:47			0	37554	0	0	0	23236	21820	161967	27260	1057353	46408	108561	0	0	8161	577991	0	0
2024-09-23 07:12:47			0	37558	0	0	0	23238	21820	161915	27202	1057344	46419	108562	0	0	8162	577829	0	0
2024-09-23 07:13:47			0	37539	0	0	0	23228	21810	161879	27220	1057389	46418	108558	0	0	8161	578631	0	0
2024-09-23 07:14:47			0	37555	0	0	0	23236	21830	161955	27090	1057362	46409	108561	0	0	8162	577919	0	0
2024-09-23 07:15:47			0	37571	0	0	0	23231	21830	161787	27227	1057389	46409	108559	0	0	8163	577271	0	0
2024-09-23 07:16:47			0	37581	0	0	0	23236	21820	161751	27371	1057380	46419	108561	0	0	8163	576899	0	0
2024-09-23 07:17:47			0	37584	0	0	0	23223	21830	161771	27386	1057372	46420	108556	0	0	8164	576746	0	0
2024-09-23 07:18:47			0	37585	0	0	0	23231	21830	161799	27242	1057336	46420	108559	0	0	8163	576705	0	0
2024-09-23 07:19:47			0	37578	0	0	0	23236	21820	161867	27346	1057327	46408	108561	0	0	8163	577020	0	0
2024-09-23 07:20:47			0	37589	0	0	0	23233	21820	161835	27331	1057327	46408	108560	0	0	8164	576576	0	0
2024-09-23 07:21:47			0	37592	0	0	0	23231	21820	161783	27272	1057300	46408	108559	0	0	8164	576455	0	0
2024-09-23 07:22:47			0	37592	0	0	0	23236	21820	161799	27105	1057327	46419	108561	0	0	8164	576455	0	0
2024-09-23 07:23:47			0	37582	0	0	0	23231	21830	161775	27223	1057336	46409	108559	0	0	8163	576827	0	0
2024-09-23 07:24:47			0	37591	0	0	0	23231	21820	161715	27012	1057318	46419	108559	0	0	8164	576495	0	0
2024-09-23 07:25:47			0	37593	0	0	0	23231	21810	161783	27248	1057362	46418	108559	0	0	8164	576446	0	0
2024-09-23 07:26:47			0	37598	0	0	0	23233	21820	161695	26991	1057327	46430	108560	0	0	8164	576212	0	0
2024-09-23 07:27:47			0	37591	0	0	0	23228	21830	161835	27034	1057362	46409	108558	0	0	8164	576463	0	0
2024-09-23 07:28:47			0	37596	0	0	0	23225	21820	161819	27228	1057318	46419	108557	0	0	8164	576293	0	0
2024-09-23 07:29:47			0	37586	0	0	0	23220	21820	161851	27279	1057353	46408	108555	0	0	8164	576697	0	0
2024-09-23 07:30:47			0	37588	0	0	0	23236	21820	161727	27166	1057300	46419	108561	0	0	8163	576616	0	0
2024-09-23 07:31:47			0	37591	0	0	0	23233	21820	161819	27329	1057273	46408	108560	0	0	8164	576495	0	0
2024-09-23 07:32:47			0	37581	0	0	0	23228	21820	161759	27055	1057318	46419	108558	0	0	8163	576899	0	0
2024-09-23 07:33:47			0	37593	0	0	0	23231	21820	161899	27229	1057353	46397	108559	0	0	8164	576414	0	0
2024-09-23 07:34:47			0	37608	0	0	0	23225	21820	161835	27235	1057300	46397	108557	0	0	8165	575808	0	0
2024-09-23 07:35:47			0	37591	0	0	0	23236	21820	161831	27308	1057327	46419	108561	0	0	8164	576495	0	0
2024-09-23 07:36:47			0	37607	0	0	0	23228	21820	161831	27007	1057327	46419	108558	0	0	8165	575849	0	0
2024-09-23 07:37:47			0	37574	0	0	0	23241	21830	161739	27498	1057282	46398	108563	0	0	8163	577150	0	0
2024-09-23 07:38:47			0	37589	0	0	0	23223	21820	161727	27036	1057327	46419	108556	0	0	8164	576576	0	0
2024-09-23 07:39:47			0	37579	0	0	0	23220	21830	161779	27145	1057336	46420	108555	0	0	8163	576948	0	0
2024-09-23 07:40:47			0	37586	0	0	0	23225	21820	161839	27149	1057300	46408	108557	0	0	8164	576697	0	0
2024-09-23 07:41:47			0	37570	0	0	0	23220	21820	161815	27209	1057344	46408	108555	0	0	8163	577344	0	0
2024-09-23 07:42:47			0	37584	0	0	0	23220	21820	161871	27301	1057291	46408	108555	0	0	8164	576778	0	0
2024-09-23 07:43:47			0	37573	0	0	0	23223	21820	161835	27189	1057353	46408	108556	0	0	8163	577223	0	0
2024-09-23 07:44:47			0	37580	0	0	0	23220	21820	161819	27190	1057344	46397	108555	0	0	8163	576940	0	0
2024-09-23 07:45:47			0	37577	0	0	0	23220	21810	161783	27614	1057309	46407	108555	0	0	8163	577093	0	0
2024-09-23 07:46:47			0	37581	0	0	0	23215	21810	161847	27543	1057327	46406	108553	0	0	8163	576931	0	0
2024-09-23 07:47:47			0	37580	0	0	0	23202	21820	161899	27433	1057353	46408	108548	0	0	8164	576940	0	0
2024-09-23 07:48:47			0	37573	0	0	0	23212	21820	161843	27471	1057264	46408	108552	0	0	8163	577223	0	0
2024-09-23 07:49:47			0	37580	0	0	0	23215	21810	161947	27550	1057300	46406	108553	0	0	8163	576972	0	0
2024-09-23 07:50:47			0	37559	0	0	0	23207	21810	161855	27497	1057282	46407	108550	0	0	8162	577821	0	0
2024-09-23 07:51:47			0	37563	0	0	0	23210	21810	161999	27289	1057273	46406	108551	0	0	8162	577659	0	0
2024-09-23 07:52:47			0	37563	0	0	0	23207	21810	161967	27538	1057282	46396	108550	0	0	8162	577659	0	0
2024-09-23 07:53:47			0	37554	0	0	0	23215	21820	161895	27371	1057291	46419	108553	0	0	8162	577991	0	0
2024-09-23 07:54:47			0	37576	0	0	0	23218	21810	161919	27253	1057282	46407	108554	0	0	8163	577133	0	0
2024-09-23 07:55:47			0	37553	0	0	0	23205	21810	161975	27395	1057247	46406	108549	0	0	8162	578064	0	0
2024-09-23 07:56:47			0	37547	0	0	0	23210	21820	162003	27005	1057291	46408	108551	0	0	8162	578275	0	0
2024-09-23 07:57:47			0	37548	0	0	0	23212	21800	161919	27223	1057291	46406	108552	0	0	8161	578298	0	0
2024-09-23 07:58:47			0	37546	0	0	0	23197	21820	161807	27284	1057291	46408	108546	0	0	8162	578315	0	0
2024-09-23 07:59:47			0	37550	0	0	0	23210	21810	161887	27164	1057247	46406	108551	0	0	8162	578185	0	0
2024-09-23 08:00:47			0	37555	0	0	0	23205	21810	161999	27329	1057247	46406	108549	0	0	8162	577983	0	0
2024-09-23 08:01:47			0	37556	0	0	0	23205	21810	162031	27400	1057282	46396	108549	0	0	8162	577942	0	0
2024-09-23 08:02:47			0	37548	0	0	0	23205	21810	161939	27500	1057255	46407	108549	0	0	8162	578266	0	0
2024-09-23 08:03:47			0	37540	0	0	0	23197	21810	162055	27620	1057273	46395	108546	0	0	8161	578590	0	0
2024-09-23 08:04:47			0	37560	0	0	0	23194	21800	161923	27545	1057238	46428	108545	0	0	8162	577813	0	0
2024-09-23 08:05:47			0	37533	0	0	0	23197	21800	162075	27440	1057282	46405	108546	0	0	8161	578906	0	0
2024-09-23 08:06:47			0	37527	0	0	0	23202	21800	161959	27298	1057238	46406	108548	0	0	8160	579149	0	0
2024-09-23 08:07:47			0	37526	0	0	0	23194	21800	162079	27351	1057211	46406	108545	0	0	8160	579190	0	0
2024-09-23 08:08:47			0	37540	0	0	0	23205	21800	161983	27415	1057238	46395	108549	0	0	8161	578622	0	0
2024-09-23 08:09:47			0	37529	0	0	0	23197	21790	162103	27810	1057193	46416	108546	0	0	8161	579100	0	0
2024-09-23 08:10:47			0	37526	0	0	0	23184	21800	162087	27514	1057184	46417	108541	0	0	8161	579190	0	0
2024-09-23 08:11:47			0	37532	0	0	0	23192	21800	161967	27294	1057238	46406	108544	0	0	8161	578946	0	0
2024-09-23 08:12:47			0	37537	0	0	0	23186	21780	162007	27435	1057202	46404	108542	0	0	8161	578808	0	0
2024-09-23 08:13:47			0	37551	0	0	0	23202	21790	161939	27396	1057211	46393	108548	0	0	8162	578209	0	0
2024-09-23 08:14:47			0	37553	0	0	0	23205	21800	161991	27329	1057175	46405	108549	0	0	8162	578096	0	0
2024-09-23 08:15:47			0	37560	0	0	0	23192	21790	161907	27571	1057220	46405	108544	0	0	8162	577845	0	0
2024-09-23 08:16:47			0	37559	0	0	0	23194	21790	161855	26934	1057193	46394	108545	0	0	8162	577885	0	0
2024-09-23 08:17:47			0	37576	0	0	0	23192	21790	161779	27312	1057157	46404	108544	0	0	8163	577198	0	0
2024-09-23 08:18:47			0	37579	0	0	0	23197	21790	161819	27055	1057157	46404	108546	0	0	8163	577076	0	0
2024-09-23 08:19:47			0	37580	0	0	0	23197	21790	161871	27358	1057220	46405	108546	0	0	8164	577036	0	0
2024-09-23 08:20:47			0	37601	0	0	0	23189	21790	161791	27249	1057184	46393	108543	0	0	8165	576187	0	0
2024-09-23 08:21:47			0	37602	0	0	0	23194	21770	161803	27504	1057104	46403	108545	0	0	8165	576211	0	0
2024-09-23 08:22:47			0	37586	0	0	0	23192	21790	161827	27371	1057184	46416	108544	0	0	8164	576793	0	0
2024-09-23 08:23:47			0	37593	0	0	0	23189	21790	161703	27164	1057157	46416	108543	0	0	8164	576511	0	0
2024-09-23 08:24:47			0	37592	0	0	0	23189	21790	161799	27521	1057184	46404	108543	0	0	8164	576551	0	0
2024-09-23 08:25:47			0	37579	0	0	0	23189	21780	161835	27222	1057220	46403	108543	0	0	8164	577109	0	0
2024-09-23 08:26:47			0	37603	0	0	0	23189	21790	161619	27518	1057157	46416	108543	0	0	8165	576107	0	0
2024-09-23 08:27:47			0	37584	0	0	0	23189	21790	161715	27268	1057140	46405	108543	0	0	8164	576874	0	0
2024-09-23 08:28:47			0	37600	0	0	0	23192	21790	161707	27265	1057220	46416	108544	0	0	8165	576228	0	0
2024-09-23 08:29:47			0	37594	0	0	0	23184	21790	161823	27267	1057104	46404	108541	0	0	8165	576470	0	0
2024-09-23 08:30:47			0	37581	0	0	0	23181	21790	161799	27647	1057184	46393	108540	0	0	8164	576995	0	0
2024-09-23 08:31:47			0	37603	0	0	0	23186	21790	161691	27673	1057131	46416	108542	0	0	8165	576107	0	0
2024-09-23 08:32:47			0	37593	0	0	0	23184	21790	161863	27486	1057211	46416	108541	0	0	8165	576511	0	0
2024-09-23 08:33:47			0	37583	0	0	0	23181	21780	161863	27242	1057149	46404	108540	0	0	8164	576947	0	0
2024-09-23 08:34:47			0	37597	0	0	0	23197	21780	161787	27511	1057175	46404	108546	0	0	8164	576381	0	0
2024-09-23 08:35:47			0	37595	0	0	0	23184	21790	161759	27421	1057157	46404	108541	0	0	8165	576430	0	0
2024-09-23 08:36:47			0	37581	0	0	0	23194	21790	161831	27578	1057193	46405	108545	0	0	8164	576995	0	0
2024-09-23 08:37:47			0	37579	0	0	0	23189	21790	161847	27462	1057184	46416	108543	0	0	8164	577076	0	0
2024-09-23 08:38:47			0	37583	0	0	0	23199	21790	161851	27327	1057184	46416	108547	0	0	8164	576915	0	0
2024-09-23 08:39:47			0	37586	0	0	0	23205	21790	161839	27331	1057220	46405	108549	0	0	8164	576793	0	0
2024-09-23 08:40:47			0	37595	0	0	0	23215	21790	161819	27379	1057246	46405	108553	0	0	8164	576430	0	0
2024-09-23 08:41:47			0	37592	0	0	0	23207	21790	161783	27235	1057220	46416	108550	0	0	8164	576551	0	0
2024-09-23 08:42:47			0	37598	0	0	0	23210	21800	161863	27274	1057229	46416	108551	0	0	8164	576277	0	0
2024-09-23 08:43:47			0	37597	0	0	0	23210	21800	161771	27699	1057264	46406	108551	0	0	8164	576317	0	0
2024-09-23 08:44:47			0	37585	0	0	0	23205	21790	161711	27485	1057246	46416	108549	0	0	8164	576834	0	0
2024-09-23 08:45:47			0	37599	0	0	0	23212	21800	161631	27251	1057202	46405	108552	0	0	8164	576236	0	0
2024-09-23 08:46:47			0	37605	0	0	0	23194	21800	161751	27267	1057255	46405	108545	0	0	8165	575994	0	0
2024-09-23 08:47:47			0	37611	0	0	0	23199	21800	161687	27443	1057255	46405	108547	0	0	8165	575751	0	0
2024-09-23 08:48:47			0	37613	0	0	0	23207	21800	161771	27649	1057229	46416	108550	0	0	8165	575671	0	0
2024-09-23 08:49:47			0	37618	0	0	0	23207	21800	161719	27431	1057229	46394	108550	0	0	8166	575469	0	0
2024-09-23 08:50:47			0	37606	0	0	0	23202	21800	161743	27178	1057255	46405	108548	0	0	8165	575953	0	0
2024-09-23 08:51:47			0	37598	0	0	0	23210	21800	161799	27542	1057318	46406	108551	0	0	8164	576277	0	0
2024-09-23 08:52:47			0	37624	0	0	0	23210	21800	161763	27209	1057229	46405	108551	0	0	8166	575227	0	0
2024-09-23 08:53:47			0	37607	0	0	0	23215	21800	161679	27485	1057238	46406	108553	0	0	8165	575913	0	0
2024-09-23 08:54:47			0	37606	0	0	0	23215	21790	161655	27390	1057246	46383	108553	0	0	8165	575985	0	0
2024-09-23 08:55:47			0	37601	0	0	0	23215	21800	161699	27729	1057291	46406	108553	0	0	8165	576155	0	0
2024-09-23 08:56:47			0	37610	0	0	0	23215	21800	161747	27429	1057229	46405	108553	0	0	8165	575792	0	0
2024-09-23 08:57:47			0	37613	0	0	0	23212	21810	161803	27296	1057300	46417	108552	0	0	8165	575639	0	0
2024-09-23 08:58:47			0	37602	0	0	0	23215	21800	161751	27400	1057318	46417	108553	0	0	8165	576115	0	0
2024-09-23 08:59:47			0	37616	0	0	0	23223	21810	161747	27320	1057300	46417	108556	0	0	8165	575518	0	0
2024-09-23 09:00:47			0	37622	0	0	0	23218	21800	161831	27267	1057264	46417	108554	0	0	8166	575307	0	0
2024-09-23 09:01:47			0	37613	0	0	0	23220	21800	161807	27107	1057291	46406	108555	0	0	8165	575671	0	0
2024-09-23 09:02:47			0	37604	0	0	0	23228	21810	161775	27398	1057353	46406	108558	0	0	8165	576002	0	0
2024-09-23 09:03:47			0	37616	0	0	0	23223	21820	161815	27488	1057344	46430	108556	0	0	8165	575485	0	0
2024-09-23 09:04:47			0	37590	0	0	0	23225	21810	161835	27322	1057353	46417	108557	0	0	8164	576568	0	0
2024-09-23 09:05:47			0	37597	0	0	0	23228	21810	161811	27348	1057309	46407	108558	0	0	8164	576285	0	0
2024-09-23 09:06:47			0	37600	0	0	0	23228	21810	161783	27507	1057362	46418	108558	0	0	8164	576164	0	0
2024-09-23 09:07:47			0	37593	0	0	0	23231	21810	161743	27301	1057389	46407	108559	0	0	8164	576446	0	0
2024-09-23 09:08:47			0	37589	0	0	0	23233	21820	161779	27578	1057318	46408	108560	0	0	8164	576576	0	0
2024-09-23 09:09:47			0	37611	0	0	0	23228	21810	161739	27493	1057353	46417	108558	0	0	8165	575719	0	0
2024-09-23 09:10:47			0	37588	0	0	0	23238	21820	161847	27350	1057344	46408	108562	0	0	8163	576616	0	0
2024-09-23 09:11:47			0	37593	0	0	0	23241	21810	161735	27405	1057389	46418	108563	0	0	8164	576446	0	0
2024-09-23 09:12:47			0	37598	0	0	0	23236	21820	161727	27464	1057371	46419	108561	0	0	8164	576212	0	0
2024-09-23 09:13:47			0	37599	0	0	0	23241	21820	161751	27317	1057318	46397	108563	0	0	8164	576172	0	0
2024-09-23 09:14:47			0	37582	0	0	0	23241	21830	161747	27230	1057416	46409	108563	0	0	8163	576827	0	0
2024-09-23 09:15:47			0	37606	0	0	0	23238	21820	161811	27104	1057433	46408	108562	0	0	8165	575889	0	0
2024-09-23 09:16:47			0	37602	0	0	0	23249	21830	161719	27351	1057362	46420	108566	0	0	8164	576019	0	0
2024-09-23 09:17:47			0	37607	0	0	0	23233	21820	161679	27206	1057353	46419	108560	0	0	8165	575849	0	0
2024-09-23 09:18:47			0	37589	0	0	0	23236	21830	161727	27651	1057416	46409	108561	0	0	8164	576544	0	0
2024-09-23 09:19:47			0	37593	0	0	0	23244	21830	161755	27466	1057442	46420	108564	0	0	8164	576382	0	0
2024-09-23 09:20:47			0	37609	0	0	0	23244	21820	161791	27466	1057407	46408	108564	0	0	8165	575768	0	0
2024-09-23 09:21:47			0	37590	0	0	0	23241	21840	161787	27424	1057381	46410	108563	0	0	8164	576471	0	0
2024-09-23 09:22:47			0	37603	0	0	0	23241	21830	161803	27398	1057442	46409	108563	0	0	8164	575978	0	0
2024-09-23 09:23:47			0	37596	0	0	0	23246	21830	161739	27464	1057452	46409	108565	0	0	8164	576261	0	0
2024-09-23 09:24:47			0	37579	0	0	0	23249	21840	161795	27402	1057460	46399	108566	0	0	8163	576916	0	0
2024-09-23 09:25:47			0	37585	0	0	0	23251	21830	161763	27395	1057442	46409	108567	0	0	8163	576705	0	0
2024-09-23 09:26:47			0	37573	0	0	0	23257	21830	161867	27434	1057442	46420	108569	0	0	8162	577190	0	0
2024-09-23 09:27:47			0	37586	0	0	0	23264	21840	161815	27237	1057407	46421	108572	0	0	8163	576633	0	0
2024-09-23 09:28:47			0	37575	0	0	0	23262	21830	161851	27196	1057478	46431	108571	0	0	8162	577110	0	0
2024-09-23 09:29:47			0	37567	0	0	0	23262	21840	161875	27646	1057407	46410	108571	0	0	8162	577401	0	0
2024-09-23 09:30:47			0	37588	0	0	0	23264	21830	161843	27320	1057505	46420	108572	0	0	8163	576584	0	0
2024-09-23 09:31:47			0	37572	0	0	0	23259	21840	161979	27646	1057496	46421	108570	0	0	8162	577199	0	0
2024-09-23 09:32:47			0	37570	0	0	0	23262	21840	161863	27486	1057496	46410	108571	0	0	8162	577280	0	0
2024-09-23 09:33:47			0	37572	0	0	0	23259	21840	161935	27549	1057496	46399	108570	0	0	8162	577199	0	0
2024-09-23 09:34:47			0	37578	0	0	0	23272	21850	161915	27753	1057478	46411	108575	0	0	8162	576924	0	0
2024-09-23 09:35:47			0	37556	0	0	0	23259	21840	161895	27535	1057496	46410	108570	0	0	8161	577846	0	0
2024-09-23 09:36:47			0	37572	0	0	0	23267	21850	161927	27625	1057514	46422	108573	0	0	8162	577167	0	0
2024-09-23 09:37:47			0	37567	0	0	0	23259	21840	161939	27379	1057443	46443	108570	0	0	8162	577401	0	0
2024-09-23 09:38:47			0	37572	0	0	0	23257	21850	161767	27336	1057487	46422	108569	0	0	8162	577167	0	0
2024-09-23 09:39:47			0	37569	0	0	0	23259	21850	161843	27352	1057514	46422	108570	0	0	8162	577288	0	0
2024-09-23 09:40:47			0	37582	0	0	0	23259	21850	161823	27639	1057541	46400	108570	0	0	8163	576762	0	0
2024-09-23 09:41:47			0	37555	0	0	0	23262	21850	161891	27457	1057505	46422	108571	0	0	8161	577854	0	0
2024-09-23 09:42:47			0	37564	0	0	0	23264	21840	161895	27209	1057460	46410	108572	0	0	8162	577522	0	0
2024-09-23 09:43:47			0	37557	0	0	0	23267	21850	161939	27412	1057514	46422	108573	0	0	8161	577773	0	0
2024-09-23 09:44:47			0	37544	0	0	0	23259	21850	161943	27452	1057532	46411	108570	0	0	8161	578299	0	0
2024-09-23 09:45:47			0	37551	0	0	0	23259	21850	161911	27270	1057514	46411	108570	0	0	8161	578016	0	0
2024-09-23 09:46:47			0	37546	0	0	0	23259	21850	161931	27294	1057505	46411	108570	0	0	8161	578218	0	0
2024-09-23 09:47:47			0	37538	0	0	0	23264	21840	161943	27478	1057549	46410	108572	0	0	8160	578575	0	0
2024-09-23 09:48:47			0	37544	0	0	0	23262	21860	161955	27313	1057576	46423	108571	0	0	8161	578267	0	0
2024-09-23 09:49:47			0	37523	0	0	0	23267	21850	161999	27488	1057514	46411	108573	0	0	8159	579150	0	0
2024-09-23 09:50:47			0	37533	0	0	0	23257	21860	162019	27566	1057559	46402	108569	0	0	8160	578712	0	0
2024-09-23 09:51:47			0	37518	0	0	0	23254	21860	161911	27138	1057496	46412	108568	0	0	8159	579320	0	0
2024-09-23 09:52:47			0	37519	0	0	0	23257	21850	161975	27571	1057532	46411	108569	0	0	8159	579312	0	0
2024-09-23 09:53:47			0	37525	0	0	0	23249	21860	161991	27459	1057550	46412	108566	0	0	8160	579037	0	0
2024-09-23 09:54:47			0	37502	0	0	0	23246	21850	162023	27467	1057478	46400	108565	0	0	8158	580001	0	0
2024-09-23 09:55:47			0	37501	0	0	0	23241	21850	162119	27514	1057487	46422	108563	0	0	8158	580042	0	0
2024-09-23 09:56:47			0	37501	0	0	0	23251	21850	162151	27485	1057514	46422	108567	0	0	8158	580042	0	0
2024-09-23 09:57:47			0	37496	0	0	0	23246	21860	162135	27326	1057496	46423	108565	0	0	8158	580212	0	0
2024-09-23 09:58:47			0	37470	0	0	0	23246	21850	162171	27441	1057487	46422	108565	0	0	8156	581300	0	0
2024-09-23 09:59:47			0	37470	0	0	0	23249	21860	162279	27469	1057496	46423	108566	0	0	8156	581268	0	0
2024-09-23 10:00:47			0	37468	0	0	0	23249	21850	162287	27348	1057541	46400	108566	0	0	8156	581381	0	0
2024-09-23 10:01:47			0	37434	0	0	0	23254	21850	162451	27495	1057514	46422	108568	0	0	8154	582764	0	0
2024-09-23 10:02:47			0	37438	0	0	0	23244	21850	162447	27575	1057532	46411	108564	0	0	8155	582601	0	0
2024-09-23 10:03:47			0	37415	0	0	0	23254	21850	162503	27658	1057532	46400	108568	0	0	8153	583537	0	0
2024-09-23 10:04:47			0	37415	0	0	0	23249	21850	162471	27549	1057505	46411	108566	0	0	8153	583537	0	0
2024-09-23 10:05:47			0	37408	0	0	0	23254	21850	162555	27386	1057487	46411	108568	0	0	8153	583822	0	0
2024-09-23 10:06:47			0	37404	0	0	0	23264	21840	162527	27665	1057469	46410	108572	0	0	8152	584018	0	0
2024-09-23 10:07:47			0	37397	0	0	0	23259	21850	162579	27268	1057487	46411	108570	0	0	8152	584270	0	0
2024-09-23 10:08:47			0	37403	0	0	0	23251	21850	162611	27426	1057487	46422	108567	0	0	8152	584026	0	0
2024-09-23 10:09:47			0	37391	0	0	0	23249	21850	162799	27656	1057505	46411	108566	0	0	8152	584515	0	0
2024-09-23 10:10:47			0	37395	0	0	0	23254	21850	162699	27654	1057541	46422	108568	0	0	8152	584352	0	0
2024-09-23 10:11:47			0	37383	0	0	0	23241	21850	162575	27585	1057558	46422	108563	0	0	8151	584841	0	0
2024-09-23 10:12:47			0	37391	0	0	0	23259	21850	162623	27260	1057478	46411	108570	0	0	8152	584515	0	0
2024-09-23 10:13:47			0	37383	0	0	0	23262	21850	162655	27431	1057514	46389	108571	0	0	8151	584841	0	0
2024-09-23 10:14:47			0	37379	0	0	0	23254	21840	162571	27550	1057496	46410	108568	0	0	8151	585037	0	0
2024-09-23 10:15:47			0	37383	0	0	0	23262	21840	162611	27455	1057487	46410	108571	0	0	8151	584874	0	0
2024-09-23 10:16:47			0	37385	0	0	0	23267	21860	162647	27355	1057559	46413	108573	0	0	8151	584727	0	0
2024-09-23 10:17:47			0	37402	0	0	0	23262	21840	162571	27675	1057469	46410	108571	0	0	8152	584099	0	0
2024-09-23 10:18:47			0	37409	0	0	0	23262	21850	162655	27633	1057478	46422	108571	0	0	8153	583781	0	0
2024-09-23 10:19:47			0	37393	0	0	0	23257	21850	162727	27154	1057541	46411	108569	0	0	8152	584433	0	0
2024-09-23 10:20:47			0	37392	0	0	0	23270	21840	162655	27126	1057469	46410	108574	0	0	8151	584507	0	0
2024-09-23 10:21:47			0	37410	0	0	0	23267	21850	162555	27263	1057505	46433	108573	0	0	8153	583741	0	0
2024-09-23 10:22:47			0	37397	0	0	0	23272	21860	162503	27308	1057585	46402	108575	0	0	8152	584238	0	0
2024-09-23 10:23:47			0	37387	0	0	0	23264	21850	162527	27338	1057541	46411	108572	0	0	8151	584678	0	0
2024-09-23 10:24:47			0	37399	0	0	0	23270	21860	162583	27390	1057523	46401	108574	0	0	8152	584156	0	0
2024-09-23 10:25:47			0	37416	0	0	0	23267	21850	162623	27281	1057558	46433	108573	0	0	8153	583496	0	0
2024-09-23 10:26:47			0	37404	0	0	0	23270	21860	162551	27196	1057559	46424	108574	0	0	8152	583953	0	0
2024-09-23 10:27:47			0	37408	0	0	0	23280	21860	162479	27448	1057612	46424	108578	0	0	8152	583790	0	0
2024-09-23 10:28:47			0	37393	0	0	0	23288	21860	162611	27270	1057585	46413	108581	0	0	8151	584401	0	0
2024-09-23 10:29:47			0	37412	0	0	0	23293	21860	162515	27435	1057665	46413	108583	0	0	8152	583627	0	0
2024-09-23 10:30:47			0	37413	0	0	0	23296	21870	162607	27564	1057683	46424	108584	0	0	8152	583554	0	0
2024-09-23 10:31:47			0	37414	0	0	0	23290	21860	162675	27258	1057665	46424	108582	0	0	8152	583545	0	0
2024-09-23 10:32:47			0	37414	0	0	0	23301	21870	162487	27194	1057647	46424	108586	0	0	8152	583513	0	0
2024-09-23 10:33:47			0	37406	0	0	0	23285	21870	162459	27308	1057647	46413	108580	0	0	8152	583839	0	0
2024-09-23 10:34:47			0	37440	0	0	0	23288	21870	162435	27625	1057683	46424	108581	0	0	8154	582455	0	0
2024-09-23 10:35:47			0	37438	0	0	0	23296	21880	162443	27376	1057674	46404	108584	0	0	8154	582504	0	0
2024-09-23 10:36:47			0	37445	0	0	0	23296	21870	162431	27377	1057630	46424	108584	0	0	8154	582251	0	0
2024-09-23 10:37:47			0	37453	0	0	0	23301	21880	162367	27433	1057639	46425	108586	0	0	8155	581894	0	0
2024-09-23 10:38:47			0	37436	0	0	0	23306	21880	162415	27461	1057665	46425	108588	0	0	8154	582585	0	0
2024-09-23 10:39:47			0	37452	0	0	0	23293	21880	162363	27268	1057665	46414	108583	0	0	8155	581934	0	0
2024-09-23 10:40:47			0	37454	0	0	0	23298	21880	162255	27684	1057665	46425	108585	0	0	8155	581853	0	0
2024-09-23 10:41:47			0	37445	0	0	0	23306	21890	162299	27445	1057630	46426	108588	0	0	8154	582186	0	0
2024-09-23 10:42:47			0	37457	0	0	0	23306	21890	162331	27332	1057763	46415	108588	0	0	8155	581699	0	0
2024-09-23 10:43:47			0	37455	0	0	0	23293	21880	162359	27448	1057692	46425	108583	0	0	8155	581812	0	0
2024-09-23 10:44:47			0	37479	0	0	0	23301	21890	162227	27661	1057763	46415	108586	0	0	8156	580805	0	0
2024-09-23 10:45:47			0	37466	0	0	0	23293	21880	162191	27550	1057728	46426	108583	0	0	8156	581366	0	0
2024-09-23 10:46:47			0	37486	0	0	0	23285	21880	162303	27542	1057701	46426	108580	0	0	8157	580553	0	0
2024-09-23 10:47:47			0	37489	0	0	0	23298	21890	162159	27473	1057683	46415	108585	0	0	8157	580399	0	0
2024-09-23 10:48:47			0	37496	0	0	0	23290	21890	162115	27628	1057692	46415	108582	0	0	8157	580115	0	0
2024-09-23 10:49:47			0	37494	0	0	0	23303	21900	162167	27225	1057754	46416	108587	0	0	8157	580164	0	0
2024-09-23 10:50:47			0	37500	0	0	0	23301	21890	162163	27881	1057710	46426	108586	0	0	8158	579953	0	0
2024-09-23 10:51:47			0	37502	0	0	0	23293	21890	162111	27409	1057737	46404	108583	0	0	8158	579872	0	0
2024-09-23 10:52:47			0	37504	0	0	0	23285	21890	162167	27564	1057772	46437	108580	0	0	8158	579791	0	0
2024-09-23 10:53:47			0	37503	0	0	0	23290	21890	162127	27426	1057710	46415	108582	0	0	8158	579832	0	0
2024-09-23 10:54:47			0	37499	0	0	0	23288	21890	162111	27524	1057737	46426	108581	0	0	8158	579994	0	0
2024-09-23 10:55:47			0	37507	0	0	0	23285	21890	162075	27524	1057657	46415	108580	0	0	8158	579669	0	0
2024-09-23 10:56:47			0	37521	0	0	0	23290	21890	162043	27486	1057737	46426	108582	0	0	8159	579102	0	0
2024-09-23 10:57:47			0	37513	0	0	0	23293	21890	162055	27393	1057763	46415	108583	0	0	8158	579426	0	0
2024-09-23 10:58:47			0	37502	0	0	0	23306	21880	162107	27656	1057719	46425	108588	0	0	8158	579904	0	0
2024-09-23 10:59:47			0	37501	0	0	0	23309	21880	162075	27493	1057728	46404	108589	0	0	8157	579945	0	0
2024-09-23 11:00:47			0	37510	0	0	0	23301	21890	162035	27324	1057710	46426	108586	0	0	8158	579548	0	0
2024-09-23 11:01:47			0	37508	0	0	0	23298	21890	162159	27609	1057683	46415	108585	0	0	8158	579629	0	0
2024-09-23 11:02:47			0	37501	0	0	0	23298	21890	162191	27698	1057746	46415	108585	0	0	8158	579913	0	0
2024-09-23 11:03:47			0	37529	0	0	0	23298	21890	162187	27668	1057763	46426	108585	0	0	8159	578778	0	0
2024-09-23 11:04:47			0	37495	0	0	0	23293	21890	162191	27410	1057763	46426	108583	0	0	8157	580156	0	0
2024-09-23 11:05:47			0	37483	0	0	0	23296	21890	162139	27545	1057746	46415	108584	0	0	8157	580643	0	0
2024-09-23 11:06:47			0	37502	0	0	0	23298	21890	162083	27542	1057692	46426	108585	0	0	8158	579872	0	0
2024-09-23 11:07:47			0	37503	0	0	0	23298	21890	162151	27578	1057826	46415	108585	0	0	8158	579832	0	0
2024-09-23 11:08:47			0	37503	0	0	0	23301	21890	162239	27386	1057763	46415	108586	0	0	8158	579832	0	0
2024-09-23 11:09:47			0	37501	0	0	0	23296	21900	162083	27571	1057781	46416	108584	0	0	8158	579880	0	0
2024-09-23 11:10:47			0	37489	0	0	0	23283	21900	162191	27672	1057728	46427	108579	0	0	8157	580367	0	0
2024-09-23 11:11:47			0	37494	0	0	0	23285	21890	162259	27699	1057692	46426	108580	0	0	8157	580197	0	0
2024-09-23 11:12:47			0	37483	0	0	0	23296	21890	162103	27647	1057746	46404	108584	0	0	8157	580643	0	0
2024-09-23 11:13:47			0	37482	0	0	0	23290	21900	162167	27779	1057754	46405	108582	0	0	8157	580651	0	0
2024-09-23 11:14:47			0	37495	0	0	0	23298	21890	162327	27518	1057719	46426	108585	0	0	8157	580156	0	0
2024-09-23 11:15:47			0	37476	0	0	0	23301	21890	162227	27774	1057772	46426	108586	0	0	8156	580927	0	0
2024-09-23 11:16:47			0	37466	0	0	0	23319	21880	162259	27604	1057728	46415	108593	0	0	8155	581366	0	0
2024-09-23 11:17:47			0	37469	0	0	0	23314	21890	162155	27630	1057799	46437	108591	0	0	8155	581211	0	0
2024-09-23 11:18:47			0	37490	0	0	0	23309	21900	162207	27509	1057781	46416	108589	0	0	8157	580326	0	0
2024-09-23 11:19:47			0	37499	0	0	0	23309	21900	162167	27298	1057763	46406	108589	0	0	8157	579961	0	0
2024-09-23 11:20:47			0	37481	0	0	0	23301	21900	162111	27618	1057781	46427	108586	0	0	8156	580692	0	0
2024-09-23 11:21:47			0	37493	0	0	0	23298	21900	162043	27564	1057781	46416	108585	0	0	8157	580205	0	0
2024-09-23 11:22:47			0	37486	0	0	0	23303	21890	162067	27455	1057799	46426	108587	0	0	8157	580521	0	0
2024-09-23 11:23:47			0	37510	0	0	0	23303	21900	161983	27599	1057817	46439	108587	0	0	8158	579515	0	0
2024-09-23 11:24:47			0	37491	0	0	0	23309	21900	162031	27424	1057817	46406	108589	0	0	8157	580286	0	0
2024-09-23 11:25:47			0	37493	0	0	0	23335	21900	162011	27949	1057728	46427	108599	0	0	8157	580205	0	0
2024-09-23 11:26:47			0	37490	0	0	0	23348	21900	162027	27351	1057808	46416	108604	0	0	8156	580326	0	0
2024-09-23 11:27:47			0	37502	0	0	0	23337	21910	162111	27372	1057799	46428	108600	0	0	8157	579807	0	0
2024-09-23 11:28:47			0	37511	0	0	0	23335	21890	162099	27628	1057799	46415	108599	0	0	8158	579507	0	0
2024-09-23 11:29:47			0	37510	0	0	0	23324	21910	162127	27737	1057826	46416	108595	0	0	8158	579483	0	0
2024-09-23 11:30:47			0	37515	0	0	0	23329	21900	162015	27649	1057817	46428	108597	0	0	8158	579313	0	0
2024-09-23 11:31:47			0	37549	0	0	0	23322	21910	161935	27639	1057835	46417	108594	0	0	8160	577904	0	0
2024-09-23 11:32:47			0	37543	0	0	0	23332	21900	161815	27661	1057870	46416	108598	0	0	8160	578179	0	0
2024-09-23 11:33:47			0	37531	0	0	0	23329	21920	161743	27576	1057897	46440	108597	0	0	8159	578600	0	0
2024-09-23 11:34:47			0	37576	0	0	0	23329	21920	161747	27635	1057870	46429	108597	0	0	8162	576780	0	0
2024-09-23 11:35:47			0	37584	0	0	0	23345	21910	161623	27810	1057835	46417	108603	0	0	8162	576489	0	0
2024-09-23 11:36:47			0	37603	0	0	0	23335	21910	161671	27549	1057861	46440	108599	0	0	8163	575722	0	0
2024-09-23 11:37:47			0	37600	0	0	0	23342	21910	161595	27543	1057835	46417	108602	0	0	8163	575843	0	0
2024-09-23 11:38:47			0	37620	0	0	0	23340	21920	161427	27691	1057853	46430	108601	0	0	8164	575004	0	0
2024-09-23 11:39:47			0	37654	0	0	0	23337	21920	161531	27543	1057844	46417	108600	0	0	8166	573634	0	0
2024-09-23 11:40:47			0	37664	0	0	0	23353	21930	161463	27485	1057861	46431	108606	0	0	8167	573199	0	0
2024-09-23 11:41:47			0	37690	0	0	0	23342	21930	161383	27517	1057941	46431	108602	0	0	8168	572153	0	0
2024-09-23 11:42:47			0	37674	0	0	0	23353	21930	161263	27848	1057915	46431	108606	0	0	8167	572797	0	0
2024-09-23 11:43:47			0	37714	0	0	0	23345	21930	161227	27241	1057888	46431	108603	0	0	8170	571189	0	0
2024-09-23 11:44:47			0	37699	0	0	0	23350	21920	161187	27666	1057933	46408	108605	0	0	8169	571823	0	0
2024-09-23 11:45:47			0	37699	0	0	0	23350	21930	161179	27409	1057995	46420	108605	0	0	8169	571792	0	0
2024-09-23 11:46:47			0	37717	0	0	0	23355	21930	161079	27469	1057968	46431	108607	0	0	8170	571069	0	0
2024-09-23 11:47:47			0	37711	0	0	0	23358	21930	161107	27326	1057924	46431	108608	0	0	8169	571310	0	0
2024-09-23 11:48:47			0	37714	0	0	0	23353	21930	161055	27267	1057977	46420	108606	0	0	8169	571189	0	0
2024-09-23 11:49:47			0	37711	0	0	0	23366	21930	161279	27720	1058030	46420	108611	0	0	8169	571310	0	0
2024-09-23 11:50:47			0	37715	0	0	0	23397	21930	161115	27426	1058004	46431	108623	0	0	8169	571149	0	0
2024-09-23 11:51:47			0	37744	0	0	0	23399	21940	160967	27656	1058066	46420	108624	0	0	8170	569954	0	0
2024-09-23 11:52:47			0	37745	0	0	0	23402	21950	160915	27339	1058057	46411	108625	0	0	8171	569882	0	0
2024-09-23 11:53:47			0	37798	0	0	0	23397	21950	160795	27625	1058120	46444	108623	0	0	8174	567759	0	0
2024-09-23 11:54:47			0	37827	0	0	0	23394	21960	160619	27393	1058102	46433	108622	0	0	8176	566568	0	0
2024-09-23 11:55:47			0	37861	0	0	0	23389	21950	160511	27341	1058111	46433	108620	0	0	8178	565243	0	0
2024-09-23 11:56:47			0	37869	0	0	0	23389	21960	160475	27483	1058138	46434	108620	0	0	8178	564892	0	0
2024-09-23 11:57:47			0	37899	0	0	0	23392	21970	160375	27338	1058147	46435	108621	0	0	8180	563666	0	0
2024-09-23 11:58:47			0	37914	0	0	0	23394	21960	160231	27720	1058138	46423	108622	0	0	8181	563100	0	0
2024-09-23 11:59:47			0	37921	0	0	0	23392	21960	160295	27384	1058111	46445	108621	0	0	8181	562822	0	0
2024-09-23 12:00:47			0	37911	0	0	0	23392	21970	160251	27483	1058120	46424	108621	0	0	8181	563188	0	0
2024-09-23 12:01:47			0	37934	0	0	0	23402	21960	160219	27436	1058138	46434	108625	0	0	8182	562305	0	0
2024-09-23 12:02:47			0	37923	0	0	0	23405	21970	160227	27504	1058147	46413	108626	0	0	8181	562711	0	0
2024-09-23 12:03:47			0	37922	0	0	0	23405	21970	160267	27452	1058200	46457	108626	0	0	8181	562750	0	0
2024-09-23 12:04:47			0	37932	0	0	0	23405	21980	160219	27350	1058147	46425	108626	0	0	8182	562321	0	0
2024-09-23 12:05:47			0	37946	0	0	0	23415	21980	160219	27531	1058200	46425	108630	0	0	8182	561765	0	0
2024-09-23 12:06:47			0	37943	0	0	0	23423	21980	160287	27523	1058218	46424	108633	0	0	8182	561884	0	0
2024-09-23 12:07:47			0	37939	0	0	0	23418	21980	160155	27606	1058165	46435	108631	0	0	8182	562043	0	0
2024-09-23 12:08:47			0	37937	0	0	0	23415	21990	160119	27578	1058209	46448	108630	0	0	8182	562091	0	0
2024-09-23 12:09:47			0	37975	0	0	0	23433	21990	160183	27287	1058325	46427	108637	0	0	8184	560583	0	0
2024-09-23 12:10:47			0	37983	0	0	0	23444	21980	160079	27497	1058307	46447	108641	0	0	8184	560296	0	0
2024-09-23 12:11:47			0	37996	0	0	0	23451	22010	159979	27682	1058289	46449	108644	0	0	8185	559687	0	0
2024-09-23 12:12:47			0	37996	0	0	0	23449	22000	159927	27197	1058280	46449	108643	0	0	8185	559719	0	0
2024-09-23 12:13:47			0	38029	0	0	0	23451	22010	159927	27452	1058343	46438	108644	0	0	8187	558381	0	0
2024-09-23 12:14:47			0	38036	0	0	0	23446	22010	159780	27327	1058369	46471	108642	0	0	8187	558103	0	0
2024-09-23 12:15:47			0	38068	0	0	0	23444	22010	159776	27689	1058316	46459	108641	0	0	8189	556838	0	0
2024-09-23 12:16:47			0	38085	0	0	0	23444	22010	159592	27445	1058405	46450	108641	0	0	8190	556167	0	0
2024-09-23 12:17:47			0	38113	0	0	0	23444	22020	159520	27795	1058450	46440	108641	0	0	8192	555032	0	0
2024-09-23 12:18:47			0	38120	0	0	0	23454	22010	159508	27483	1058405	46439	108645	0	0	8192	554787	0	0
2024-09-23 12:19:47			0	38120	0	0	0	23457	22030	159420	27367	1058458	46429	108646	0	0	8192	554725	0	0
2024-09-23 12:20:47			0	38136	0	0	0	23459	22030	159404	27625	1058458	46429	108647	0	0	8193	554094	0	0
2024-09-23 12:21:47			0	38139	0	0	0	23457	22030	159344	27590	1058432	46440	108646	0	0	8193	553976	0	0
2024-09-23 12:22:47			0	38147	0	0	0	23462	22030	159348	27509	1058467	46441	108648	0	0	8193	553661	0	0
2024-09-23 12:23:47			0	38143	0	0	0	23470	22030	159336	27850	1058467	46430	108651	0	0	8193	553819	0	0
2024-09-23 12:24:47			0	38149	0	0	0	23464	22040	159316	27618	1058530	46431	108649	0	0	8194	553552	0	0
2024-09-23 12:25:47			0	38146	0	0	0	23462	22040	159336	27426	1058556	46442	108648	0	0	8193	553670	0	0
2024-09-23 12:26:47			0	38151	0	0	0	23470	22040	159284	27474	1058485	46463	108651	0	0	8194	553473	0	0
2024-09-23 12:27:47			0	38138	0	0	0	23470	22030	159192	27483	1058521	46452	108651	0	0	8193	554016	0	0
2024-09-23 12:28:47			0	38165	0	0	0	23480	22050	159236	27367	1058521	46442	108655	0	0	8194	552891	0	0
2024-09-23 12:29:47			0	38184	0	0	0	23488	22050	159136	27514	1058574	46442	108658	0	0	8195	552145	0	0
2024-09-23 12:30:47			0	38189	0	0	0	23483	22050	159168	27455	1058548	46442	108656	0	0	8196	551948	0	0
2024-09-23 12:31:47			0	38192	0	0	0	23483	22050	159092	27725	1058610	46454	108656	0	0	8196	551830	0	0
2024-09-23 12:32:47			0	38202	0	0	0	23483	22050	159028	27396	1058530	46432	108656	0	0	8196	551438	0	0
2024-09-23 12:33:47			0	38228	0	0	0	23480	22050	158892	27614	1058583	46443	108655	0	0	8198	550417	0	0
2024-09-23 12:34:47			0	38225	0	0	0	23485	22060	159004	27329	1058619	46455	108657	0	0	8198	550504	0	0
2024-09-23 12:35:47			0	38218	0	0	0	23493	22060	158984	27507	1058575	46434	108660	0	0	8197	550779	0	0
2024-09-23 12:36:47			0	38225	0	0	0	23488	22050	158836	27371	1058610	46443	108658	0	0	8198	550535	0	0
2024-09-23 12:37:47			0	38239	0	0	0	23488	22060	158952	27459	1058655	46445	108658	0	0	8199	549955	0	0
2024-09-23 12:38:47			0	38247	0	0	0	23493	22060	158900	27569	1058628	46445	108660	0	0	8199	549642	0	0
2024-09-23 12:39:47			0	38254	0	0	0	23493	22060	158888	27562	1058655	46445	108660	0	0	8199	549368	0	0
2024-09-23 12:40:47			0	38255	0	0	0	23490	22060	158748	27518	1058655	46445	108659	0	0	8199	549329	0	0
2024-09-23 12:41:47			0	38252	0	0	0	23496	22070	158824	27776	1058699	46445	108661	0	0	8199	549415	0	0
2024-09-23 12:42:47			0	38276	0	0	0	23496	22070	158716	27495	1058637	46456	108661	0	0	8201	548476	0	0
2024-09-23 12:43:47			0	38282	0	0	0	23506	22070	158812	27282	1058699	46434	108665	0	0	8201	548241	0	0
2024-09-23 12:44:47			0	38281	0	0	0	23496	22080	158772	27635	1058744	46447	108661	0	0	8201	548250	0	0
2024-09-23 12:45:47			0	38280	0	0	0	23493	22080	158712	27447	1058682	46446	108660	0	0	8201	548289	0	0
2024-09-23 12:46:47			0	38276	0	0	0	23503	22080	158672	27441	1058735	46435	108664	0	0	8201	548445	0	0
2024-09-23 12:47:47			0	38282	0	0	0	23498	22070	158756	27280	1058726	46434	108662	0	0	8201	548241	0	0
2024-09-23 12:48:47			0	38288	0	0	0	23514	22080	158764	27698	1058691	46447	108668	0	0	8201	547976	0	0
2024-09-23 12:49:47			0	38271	0	0	0	23503	22080	158780	27505	1058744	46447	108664	0	0	8200	548641	0	0
2024-09-23 12:50:47			0	38274	0	0	0	23506	22070	158844	27287	1058753	46445	108665	0	0	8200	548554	0	0
2024-09-23 12:51:47			0	38289	0	0	0	23516	22090	158796	27765	1058789	46447	108669	0	0	8201	547906	0	0
2024-09-23 12:52:47			0	38286	0	0	0	23516	22090	158868	27310	1058807	46436	108669	0	0	8201	548024	0	0
2024-09-23 12:53:47			0	38295	0	0	0	23503	22090	158848	27078	1058762	46447	108664	0	0	8202	547672	0	0
2024-09-23 12:54:47			0	38288	0	0	0	23503	22090	158728	27138	1058780	46447	108664	0	0	8201	547945	0	0
2024-09-23 12:55:47			0	38285	0	0	0	23498	22100	158692	27332	1058753	46438	108662	0	0	8201	548032	0	0
2024-09-23 12:56:47			0	38301	0	0	0	23503	22100	158636	27452	1058825	46458	108664	0	0	8202	547407	0	0
2024-09-23 12:57:47			0	38311	0	0	0	23509	22090	158744	27185	1058762	46436	108666	0	0	8203	547046	0	0
2024-09-23 12:58:47			0	38302	0	0	0	23511	22090	158720	27370	1058816	46436	108667	0	0	8202	547398	0	0
2024-09-23 12:59:47			0	38319	0	0	0	23522	22100	158668	27329	1058798	46437	108671	0	0	8203	546703	0	0
2024-09-23 13:00:47			0	38326	0	0	0	23522	22090	158656	27582	1058816	46447	108671	0	0	8203	546461	0	0
2024-09-23 13:01:47			0	38316	0	0	0	23524	22110	158648	27630	1058789	46449	108672	0	0	8203	546790	0	0
2024-09-23 13:02:47			0	38324	0	0	0	23535	22110	158552	27364	1058869	46438	108676	0	0	8203	546478	0	0
2024-09-23 13:03:47			0	38333	0	0	0	23529	22110	158596	27389	1058816	46449	108674	0	0	8204	546126	0	0
2024-09-23 13:04:47			0	38323	0	0	0	23532	22110	158532	27300	1058842	46449	108675	0	0	8203	546517	0	0
2024-09-23 13:05:47			0	38335	0	0	0	23542	22120	158552	27095	1058860	46450	108679	0	0	8203	546018	0	0
2024-09-23 13:06:47			0	38330	0	0	0	23545	22120	158492	27261	1058914	46450	108680	0	0	8203	546213	0	0
2024-09-23 13:07:47			0	38350	0	0	0	23542	22120	158556	27424	1058887	46460	108679	0	0	8204	545433	0	0
2024-09-23 13:08:47			0	38352	0	0	0	23542	22110	158488	27435	1058905	46449	108679	0	0	8204	545385	0	0
2024-09-23 13:09:47			0	38361	0	0	0	23532	22120	158344	27279	1058896	46429	108675	0	0	8205	545004	0	0
2024-09-23 13:10:47			0	38358	0	0	0	23537	22120	158324	27504	1058887	46460	108677	0	0	8205	545121	0	0
2024-09-23 13:11:47			0	38386	0	0	0	23545	22120	158348	27339	1058976	46440	108680	0	0	8206	544030	0	0
2024-09-23 13:12:47			0	38371	0	0	0	23558	22130	158416	27459	1059012	46452	108685	0	0	8205	544584	0	0
2024-09-23 13:13:47			0	38376	0	0	0	23542	22130	158336	27562	1058914	46441	108679	0	0	8206	544389	0	0
2024-09-23 13:14:47			0	38365	0	0	0	23548	22120	158344	27480	1058923	46451	108681	0	0	8205	544848	0	0
2024-09-23 13:15:47			0	38373	0	0	0	23566	22120	158288	27692	1058949	46440	108688	0	0	8205	544537	0	0
2024-09-23 13:16:47			0	38369	0	0	0	23550	22130	158384	27698	1058905	46462	108682	0	0	8205	544662	0	0
2024-09-23 13:17:47			0	38383	0	0	0	23537	22130	158284	27381	1058932	46429	108677	0	0	8206	544117	0	0
2024-09-23 13:18:47			0	38354	0	0	0	23532	22130	158336	27313	1058932	46452	108675	0	0	8205	545247	0	0
2024-09-23 13:19:47			0	38359	0	0	0	23540	22130	158364	27677	1058941	46452	108678	0	0	8205	545052	0	0
2024-09-23 13:20:47			0	38341	0	0	0	23532	22130	158448	27357	1058967	46452	108675	0	0	8204	545754	0	0
2024-09-23 13:21:47			0	38329	0	0	0	23532	22130	158484	27769	1058941	46452	108675	0	0	8203	546222	0	0
2024-09-23 13:22:47			0	38329	0	0	0	23542	22130	158496	27518	1058985	46462	108679	0	0	8203	546222	0	0
2024-09-23 13:23:47			0	38307	0	0	0	23537	22130	158480	27715	1058905	46452	108677	0	0	8202	547081	0	0
2024-09-23 13:24:47			0	38299	0	0	0	23540	22130	158440	27580	1058985	46462	108678	0	0	8201	547393	0	0
2024-09-23 13:25:47			0	38307	0	0	0	23548	22140	158588	27687	1058985	46453	108681	0	0	8202	547050	0	0
2024-09-23 13:26:47			0	38296	0	0	0	23553	22130	158484	27511	1058967	46452	108683	0	0	8201	547510	0	0
2024-09-23 13:27:47			0	38288	0	0	0	23561	22140	158624	27758	1058950	46452	108686	0	0	8201	547793	0	0
2024-09-23 13:28:47			0	38291	0	0	0	23555	22140	158588	27575	1059030	46452	108684	0	0	8201	547675	0	0
2024-09-23 13:29:47			0	38299	0	0	0	23563	22150	158584	27647	1059021	46464	108687	0	0	8201	547332	0	0
2024-09-23 13:30:47			0	38296	0	0	0	23574	22150	158572	27517	1059074	46454	108691	0	0	8201	547449	0	0
2024-09-23 13:31:47			0	38294	0	0	0	23574	22150	158600	27685	1059003	46454	108691	0	0	8201	547527	0	0
2024-09-23 13:32:47			0	38299	0	0	0	23576	22140	158564	27783	1059092	46463	108692	0	0	8201	547363	0	0
2024-09-23 13:33:47			0	38311	0	0	0	23566	22150	158488	27431	1059074	46454	108688	0	0	8202	546863	0	0
2024-09-23 13:34:47			0	38294	0	0	0	23579	22160	158508	27614	1059145	46454	108693	0	0	8201	547497	0	0
2024-09-23 13:35:47			0	38326	0	0	0	23605	22160	158484	27559	1059101	46444	108703	0	0	8202	546247	0	0
2024-09-23 13:36:47			0	38322	0	0	0	23599	22160	158508	27358	1059145	46454	108701	0	0	8202	546403	0	0
2024-09-23 13:37:47			0	38327	0	0	0	23602	22170	158492	27687	1059172	46445	108702	0	0	8202	546178	0	0
2024-09-23 13:38:47			0	38329	0	0	0	23592	22170	158432	27336	1059119	46466	108698	0	0	8203	546100	0	0
2024-09-23 13:39:47			0	38320	0	0	0	23592	22170	158412	27516	1059190	46456	108698	0	0	8202	546451	0	0
2024-09-23 13:40:47			0	38331	0	0	0	23592	22180	158456	27379	1059235	46466	108698	0	0	8203	545991	0	0
2024-09-23 13:41:47			0	38351	0	0	0	23594	22180	158284	27435	1059217	46467	108699	0	0	8204	545211	0	0
2024-09-23 13:42:47			0	38356	0	0	0	23599	22170	158324	27732	1059199	46466	108701	0	0	8204	545047	0	0
2024-09-23 13:43:47			0	38375	0	0	0	23605	22180	158288	27547	1059244	46467	108703	0	0	8205	544276	0	0
2024-09-23 13:44:47			0	38364	0	0	0	23599	22180	158096	27618	1059208	46456	108701	0	0	8204	544705	0	0
2024-09-23 13:45:47			0	38371	0	0	0	23599	22170	158244	27677	1059279	46466	108701	0	0	8205	544463	0	0
2024-09-23 13:46:47			0	38383	0	0	0	23649	22180	158064	27422	1059244	46467	108720	0	0	8205	543965	0	0
2024-09-23 13:47:47			0	38379	0	0	0	23620	22190	158176	27253	1059315	46481	108709	0	0	8205	544090	0	0
2024-09-23 13:48:47			0	38401	0	0	0	23612	22190	158156	27371	1059261	46469	108706	0	0	8206	543234	0	0
2024-09-23 13:49:47			0	38385	0	0	0	23612	22190	158088	27715	1059288	46469	108706	0	0	8206	543857	0	0
2024-09-23 13:50:47			0	38399	0	0	0	23602	22200	158104	27403	1059333	46481	108702	0	0	8207	543282	0	0
2024-09-23 13:51:47			0	38401	0	0	0	23599	22200	158052	27873	1059324	46458	108701	0	0	8207	543204	0	0
2024-09-23 13:52:47			0	38418	0	0	0	23612	22200	157900	27251	1059297	46448	108706	0	0	8207	542543	0	0
2024-09-23 13:53:47			0	38428	0	0	0	23607	22190	157908	27299	1059252	46458	108704	0	0	8208	542185	0	0
2024-09-23 13:54:47			0	38418	0	0	0	23605	22200	157992	27199	1059306	46458	108703	0	0	8208	542543	0	0
2024-09-23 13:55:47			0	38432	0	0	0	23605	22190	157968	27459	1059261	46469	108703	0	0	8208	542030	0	0
2024-09-23 13:56:47			0	38434	0	0	0	23599	22200	157784	27675	1059280	46448	108701	0	0	8209	541922	0	0
2024-09-23 13:57:47			0	38471	0	0	0	23620	22190	157792	27381	1059306	46447	108709	0	0	8210	540517	0	0
2024-09-23 13:58:47			0	38460	0	0	0	23615	22200	157972	27279	1059333	46458	108707	0	0	8210	540913	0	0
2024-09-23 13:59:47			0	38474	0	0	0	23618	22200	157864	27225	1059297	46458	108708	0	0	8211	540370	0	0
2024-09-23 14:00:47			0	38470	0	0	0	23612	22190	157744	27661	1059315	46458	108706	0	0	8210	540555	0	0
2024-09-23 14:01:47			0	38471	0	0	0	23628	22210	157744	27241	1059342	46459	108712	0	0	8210	540456	0	0
2024-09-23 14:02:47			0	38471	0	0	0	23625	22200	157680	27566	1059360	46458	108711	0	0	8210	540486	0	0
2024-09-23 14:03:47			0	38476	0	0	0	23620	22210	157644	27450	1059369	46449	108709	0	0	8211	540262	0	0
2024-09-23 14:04:47			0	38486	0	0	0	23618	22200	157652	27776	1059386	46448	108708	0	0	8211	539905	0	0
2024-09-23 14:05:47			0	38496	0	0	0	23633	22210	157680	27230	1059342	46459	108714	0	0	8212	539488	0	0
2024-09-23 14:06:47			0	38496	0	0	0	23631	22220	157744	27514	1059315	46450	108713	0	0	8212	539458	0	0
2024-09-23 14:07:47			0	38499	0	0	0	23631	22220	157680	27336	1059360	46460	108713	0	0	8212	539341	0	0
2024-09-23 14:08:47			0	38505	0	0	0	23631	22210	157672	27383	1059378	46439	108713	0	0	8212	539139	0	0
2024-09-23 14:09:47			0	38528	0	0	0	23631	22220	157520	27313	1059413	46494	108713	0	0	8214	538219	0	0
2024-09-23 14:10:47			0	38521	0	0	0	23625	22210	157588	27364	1059378	46450	108711	0	0	8213	538520	0	0
2024-09-23 14:11:47			0	38520	0	0	0	23636	22220	157608	27634	1059449	46460	108715	0	0	8213	538529	0	0
2024-09-23 14:12:47			0	38517	0	0	0	23631	22220	157580	27743	1059396	46471	108713	0	0	8213	538645	0	0
2024-09-23 14:13:47			0	38527	0	0	0	23638	22220	157652	27549	1059449	46460	108716	0	0	8213	538258	0	0
2024-09-23 14:14:47			0	38528	0	0	0	23654	22230	157648	27545	1059458	46461	108722	0	0	8213	538189	0	0
2024-09-23 14:15:47			0	38544	0	0	0	23654	22230	157600	27389	1059413	46462	108722	0	0	8214	537571	0	0
2024-09-23 14:16:47			0	38550	0	0	0	23672	22220	157512	27324	1059476	46471	108729	0	0	8214	537369	0	0
2024-09-23 14:17:47			0	38568	0	0	0	23670	22230	157480	27388	1059565	46461	108728	0	0	8215	536644	0	0
2024-09-23 14:18:47			0	38573	0	0	0	23680	22230	157412	27331	1059520	46473	108732	0	0	8215	536451	0	0
2024-09-23 14:19:47			0	38575	0	0	0	23680	22240	157472	27516	1059556	46485	108732	0	0	8216	536344	0	0
2024-09-23 14:20:47			0	38590	0	0	0	23646	22240	157356	27798	1059556	46473	108719	0	0	8217	535766	0	0
2024-09-23 14:21:47			0	38601	0	0	0	23672	22240	157352	27322	1059565	46462	108729	0	0	8217	535342	0	0
2024-09-23 14:22:47			0	38586	0	0	0	23657	22250	157368	27490	1059600	46474	108723	0	0	8217	535890	0	0
2024-09-23 14:23:47			0	38576	0	0	0	23657	22250	157384	27351	1059609	46464	108723	0	0	8216	536276	0	0
2024-09-23 14:24:47			0	38576	0	0	0	23651	22260	157436	27267	1059565	46464	108721	0	0	8216	536246	0	0
2024-09-23 14:25:47			0	38570	0	0	0	23659	22250	157472	27564	1059609	46464	108724	0	0	8216	536507	0	0
2024-09-23 14:26:47			0	38559	0	0	0	23657	22250	157444	27341	1059574	46453	108723	0	0	8215	536932	0	0
2024-09-23 14:27:47			0	38578	0	0	0	23657	22250	157432	27550	1059520	46463	108723	0	0	8216	536199	0	0
2024-09-23 14:28:47			0	38579	0	0	0	23657	22250	157384	27601	1059547	46463	108723	0	0	8216	536160	0	0
2024-09-23 14:29:47			0	38563	0	0	0	23651	22250	157372	27545	1059583	46443	108721	0	0	8215	536777	0	0
2024-09-23 14:30:47			0	38574	0	0	0	23670	22250	157480	27486	1059583	46464	108728	0	0	8216	536353	0	0
2024-09-23 14:31:47			0	38569	0	0	0	23667	22250	157436	27540	1059547	46453	108727	0	0	8216	536546	0	0
2024-09-23 14:32:47			0	38558	0	0	0	23659	22240	157492	27315	1059538	46462	108724	0	0	8215	537000	0	0
2024-09-23 14:33:47			0	38558	0	0	0	23672	22250	157484	27519	1059636	46454	108729	0	0	8215	536970	0	0
2024-09-23 14:34:47			0	38579	0	0	0	23667	22250	157428	27422	1059583	46464	108727	0	0	8216	536160	0	0
2024-09-23 14:35:47			0	38566	0	0	0	23657	22260	157328	27246	1059618	46464	108723	0	0	8216	536632	0	0
2024-09-23 14:36:47			0	38577	0	0	0	23644	22250	157292	27564	1059556	46454	108718	0	0	8216	536237	0	0
2024-09-23 14:37:47			0	38556	0	0	0	23664	22250	157356	27454	1059520	46453	108726	0	0	8215	537048	0	0
2024-09-23 14:38:47			0	38573	0	0	0	23662	22250	157392	27436	1059609	46454	108725	0	0	8216	536391	0	0
2024-09-23 14:39:47			0	38536	0	0	0	23662	22260	157516	27488	1059592	46464	108725	0	0	8214	537790	0	0
2024-09-23 14:40:47			0	38537	0	0	0	23667	22260	157500	27473	1059618	46464	108727	0	0	8214	537751	0	0
2024-09-23 14:41:47			0	38548	0	0	0	23659	22250	157504	27687	1059636	46464	108724	0	0	8214	537357	0	0
2024-09-23 14:42:47			0	38561	0	0	0	23657	22250	157440	27022	1059574	46463	108723	0	0	8215	536855	0	0
2024-09-23 14:43:47			0	38562	0	0	0	23662	22250	157436	27476	1059520	46463	108725	0	0	8215	536816	0	0
2024-09-23 14:44:47			0	38566	0	0	0	23659	22250	157472	27206	1059583	46454	108724	0	0	8216	536662	0	0
2024-09-23 14:45:47			0	38558	0	0	0	23657	22260	157496	27298	1059538	46454	108723	0	0	8215	536940	0	0
2024-09-23 14:46:47			0	38556	0	0	0	23670	22260	157536	27462	1059601	46455	108728	0	0	8215	537018	0	0
2024-09-23 14:47:47			0	38557	0	0	0	23680	22260	157540	27530	1059654	46455	108732	0	0	8215	536979	0	0
2024-09-23 14:48:47			0	38554	0	0	0	23670	22270	157612	27305	1059636	46465	108728	0	0	8215	537065	0	0
2024-09-23 14:49:47			0	38541	0	0	0	23693	22260	157588	27455	1059654	46455	108737	0	0	8214	537597	0	0
2024-09-23 14:50:47			0	38538	0	0	0	23690	22260	157604	27677	1059707	46465	108736	0	0	8213	537713	0	0
2024-09-23 14:51:47			0	38534	0	0	0	23690	22260	157604	27464	1059654	46455	108736	0	0	8213	537867	0	0
2024-09-23 14:52:47			0	38548	0	0	0	23693	22270	157484	27516	1059716	46465	108737	0	0	8214	537297	0	0
2024-09-23 14:53:47			0	38570	0	0	0	23711	22270	157484	27372	1059699	46466	108744	0	0	8215	536447	0	0
2024-09-23 14:54:47			0	38563	0	0	0	23716	22260	157492	27220	1059787	46465	108746	0	0	8214	536747	0	0
2024-09-23 14:55:47			0	38564	0	0	0	23706	22270	157416	27805	1059725	46477	108742	0	0	8215	536679	0	0
2024-09-23 14:56:47			0	38582	0	0	0	23703	22280	157324	27689	1059761	46489	108741	0	0	8216	535955	0	0
2024-09-23 14:57:47			0	38597	0	0	0	23709	22280	157304	27642	1059823	46467	108743	0	0	8217	535376	0	0
2024-09-23 14:58:47			0	38614	0	0	0	23714	22280	157228	27395	1059850	46490	108745	0	0	8217	534722	0	0
2024-09-23 14:59:47			0	38603	0	0	0	23727	22300	157196	27826	1059868	46479	108750	0	0	8217	535085	0	0
2024-09-23 15:00:47			0	38618	0	0	0	23714	22290	157176	27680	1059805	46467	108745	0	0	8218	534538	0	0
2024-09-23 15:01:47			0	38614	0	0	0	23703	22300	157144	27623	1059868	46468	108741	0	0	8218	534662	0	0
2024-09-23 15:02:47			0	38615	0	0	0	23706	22300	157124	27485	1059877	46458	108742	0	0	8218	534623	0	0
2024-09-23 15:03:47			0	38621	0	0	0	23701	22290	157104	27497	1059805	46467	108740	0	0	8218	534422	0	0
2024-09-23 15:04:47			0	38622	0	0	0	23711	22300	157156	27597	1059894	46458	108744	0	0	8218	534354	0	0
2024-09-23 15:05:47			0	38610	0	0	0	23722	22300	157144	27426	1059814	46479	108748	0	0	8217	534816	0	0
2024-09-23 15:06:47			0	38614	0	0	0	23711	22310	157152	27696	1059832	46469	108744	0	0	8218	534632	0	0
2024-09-23 15:07:47			0	38638	0	0	0	23709	22310	157144	27381	1059886	46469	108743	0	0	8219	533708	0	0
2024-09-23 15:08:47			0	38618	0	0	0	23719	22310	157212	27448	1059859	46469	108747	0	0	8218	534478	0	0
2024-09-23 15:09:47			0	38615	0	0	0	23714	22300	157184	27512	1059850	46469	108745	0	0	8218	534623	0	0
2024-09-23 15:10:47			0	38630	0	0	0	23711	22300	157136	27793	1059823	46469	108744	0	0	8219	534046	0	0
2024-09-23 15:11:47			0	38623	0	0	0	23714	22300	157148	27457	1059850	46448	108745	0	0	8218	534315	0	0
2024-09-23 15:12:47			0	38619	0	0	0	23719	22300	157220	27602	1059823	46469	108747	0	0	8218	534469	0	0
2024-09-23 15:13:47			0	38600	0	0	0	23711	22310	157224	27452	1059859	46469	108744	0	0	8217	535171	0	0
2024-09-23 15:14:47			0	38608	0	0	0	23716	22310	157220	27258	1059859	46458	108746	0	0	8217	534863	0	0
2024-09-23 15:15:47			0	38622	0	0	0	23724	22310	157280	27339	1059832	46469	108749	0	0	8218	534324	0	0
2024-09-23 15:16:47			0	38616	0	0	0	23714	22310	157140	27310	1059815	46480	108745	0	0	8218	534555	0	0
2024-09-23 15:17:47			0	38619	0	0	0	23729	22310	157152	27545	1059832	46469	108751	0	0	8218	534439	0	0
2024-09-23 15:18:47			0	38638	0	0	0	23737	22320	157128	27258	1059984	46470	108754	0	0	8219	533679	0	0
2024-09-23 15:19:47			0	38641	0	0	0	23735	22310	157148	27319	1059939	46469	108753	0	0	8219	533593	0	0
2024-09-23 15:20:47			0	38664	0	0	0	23742	22320	157092	27379	1059957	46481	108756	0	0	8220	532679	0	0
2024-09-23 15:21:47			0	38670	0	0	0	23748	22330	156888	27275	1059975	46483	108758	0	0	8220	532419	0	0
2024-09-23 15:22:47			0	38695	0	0	0	23745	22320	156932	27386	1059939	46471	108757	0	0	8222	531489	0	0
2024-09-23 15:23:47			0	38704	0	0	0	23755	22330	156912	27307	1060002	46460	108761	0	0	8222	531114	0	0
2024-09-23 15:24:47			0	38722	0	0	0	23779	22320	156832	27473	1060046	46483	108770	0	0	8223	530454	0	0
2024-09-23 15:25:47			0	38736	0	0	0	23779	22330	156789	27334	1060091	46472	108770	0	0	8224	529888	0	0
2024-09-23 15:26:47			0	38735	0	0	0	23753	22340	156677	27183	1060056	46484	108760	0	0	8224	529897	0	0
2024-09-23 15:27:47			0	38728	0	0	0	23766	22340	156801	27282	1060047	46461	108765	0	0	8223	530165	0	0
2024-09-23 15:28:47			0	38719	0	0	0	23766	22340	156800	27530	1060056	46462	108765	0	0	8223	530510	0	0
2024-09-23 15:29:47			0	38741	0	0	0	23763	22340	156701	27659	1060056	46473	108764	0	0	8224	529667	0	0
2024-09-23 15:30:47			0	38751	0	0	0	23771	22340	156661	27258	1060047	46483	108767	0	0	8225	529285	0	0
2024-09-23 15:31:47			0	38739	0	0	0	23781	22350	156697	27502	1060064	46473	108771	0	0	8224	529714	0	0
2024-09-23 15:32:47			0	38774	0	0	0	23781	22350	156621	27317	1060064	46484	108771	0	0	8226	528375	0	0
2024-09-23 15:33:47			0	38769	0	0	0	23786	22350	156677	27275	1060127	46474	108773	0	0	8226	528567	0	0
2024-09-23 15:34:47			0	38776	0	0	0	23773	22350	156613	27324	1060180	46485	108768	0	0	8226	528299	0	0
2024-09-23 15:35:47			0	38772	0	0	0	23773	22350	156557	27479	1060127	46474	108768	0	0	8226	528452	0	0
2024-09-23 15:36:47			0	38769	0	0	0	23776	22350	156609	27164	1060073	46463	108769	0	0	8226	528567	0	0
2024-09-23 15:37:47			0	38780	0	0	0	23784	22350	156577	27052	1060153	46474	108772	0	0	8226	528146	0	0
2024-09-23 15:38:47			0	38798	0	0	0	23786	22360	156497	27170	1060136	46474	108773	0	0	8227	527429	0	0
2024-09-23 15:39:47			0	38813	0	0	0	23792	22350	156493	27376	1060153	46485	108775	0	0	8228	526886	0	0
2024-09-23 15:40:47			0	38823	0	0	0	23784	22360	156449	27424	1060118	46464	108772	0	0	8229	526475	0	0
2024-09-23 15:41:47			0	38822	0	0	0	23784	22360	156349	27319	1060171	46454	108772	0	0	8229	526513	0	0
2024-09-23 15:42:47			0	38813	0	0	0	23794	22370	156345	27064	1060163	46476	108776	0	0	8228	526827	0	0
2024-09-23 15:43:47			0	38832	0	0	0	23789	22360	156289	27611	1060198	46475	108774	0	0	8229	526132	0	0
2024-09-23 15:44:47			0	38823	0	0	0	23779	22360	156257	27345	1060171	46464	108770	0	0	8229	526475	0	0
2024-09-23 15:45:47			0	38815	0	0	0	23784	22360	156393	27241	1060109	46474	108772	0	0	8228	526780	0	0
2024-09-23 15:46:47			0	38804	0	0	0	23786	22370	156405	27360	1060180	46475	108773	0	0	8228	527171	0	0
2024-09-23 15:47:47			0	38797	0	0	0	23784	22370	156413	27239	1060154	46475	108772	0	0	8227	527438	0	0
2024-09-23 15:48:47			0	38793	0	0	0	23781	22370	156517	27381	1060136	46488	108771	0	0	8227	527591	0	0
2024-09-23 15:49:47			0	38805	0	0	0	23771	22370	156345	27157	1060207	46475	108767	0	0	8228	527132	0	0
2024-09-23 15:50:47			0	38795	0	0	0	23768	22360	156421	27351	1060145	46487	108766	0	0	8227	527544	0	0
2024-09-23 15:51:47			0	38778	0	0	0	23755	22370	156429	27416	1060100	46464	108761	0	0	8227	528163	0	0
2024-09-23 15:52:47			0	38755	0	0	0	23748	22360	156521	27495	1060109	46453	108758	0	0	8225	529072	0	0
2024-09-23 15:53:47			0	38745	0	0	0	23750	22370	156641	27530	1060127	46443	108759	0	0	8225	529425	0	0
2024-09-23 15:54:47			0	38731	0	0	0	23753	22360	156617	27241	1060145	46464	108760	0	0	8224	529991	0	0
2024-09-23 15:55:47			0	38735	0	0	0	23755	22360	156657	27474	1060109	46474	108761	0	0	8224	529838	0	0
2024-09-23 15:56:47			0	38710	0	0	0	23761	22360	156712	27204	1060029	46463	108763	0	0	8223	530795	0	0
2024-09-23 15:57:47			0	38712	0	0	0	23753	22360	156688	27384	1060136	46474	108760	0	0	8223	530719	0	0
2024-09-23 15:58:47			0	38703	0	0	0	23753	22350	156680	27502	1060091	46452	108760	0	0	8222	531094	0	0
2024-09-23 15:59:47			0	38723	0	0	0	23758	22350	156848	27187	1060073	46463	108762	0	0	8223	530327	0	0
2024-09-23 16:00:47			0	38695	0	0	0	23755	22340	156780	27072	1060056	46473	108761	0	0	8222	531430	0	0
2024-09-23 16:01:47			0	38696	0	0	0	23755	22350	156884	27218	1060091	46462	108761	0	0	8222	531362	0	0
2024-09-23 16:02:47			0	38697	0	0	0	23758	22350	156872	27452	1060118	46462	108762	0	0	8222	531324	0	0
2024-09-23 16:03:47			0	38676	0	0	0	23761	22350	156940	27597	1060064	46462	108763	0	0	8221	532129	0	0
2024-09-23 16:04:47			0	38665	0	0	0	23761	22350	156980	27452	1060064	46473	108763	0	0	8220	532552	0	0
2024-09-23 16:05:47			0	38660	0	0	0	23766	22350	156948	27554	1060091	46473	108765	0	0	8220	532744	0	0
2024-09-23 16:06:47			0	38646	0	0	0	23761	22350	156952	27225	1060118	46473	108763	0	0	8219	533282	0	0
2024-09-23 16:07:47			0	38663	0	0	0	23755	22340	156988	27367	1060029	46452	108761	0	0	8220	532658	0	0
2024-09-23 16:08:47			0	38647	0	0	0	23763	22350	157016	27242	1060091	46462	108764	0	0	8219	533243	0	0
2024-09-23 16:09:47			0	38648	0	0	0	23761	22350	157104	27400	1060038	46473	108763	0	0	8219	533205	0	0
2024-09-23 16:10:47			0	38638	0	0	0	23755	22340	157112	27175	1060056	46452	108761	0	0	8218	533619	0	0
2024-09-23 16:11:47			0	38645	0	0	0	23763	22350	157096	27064	1060091	46484	108764	0	0	8219	533320	0	0
2024-09-23 16:12:47			0	38633	0	0	0	23750	22350	157032	27274	1060064	46473	108759	0	0	8218	533782	0	0
2024-09-23 16:13:47			0	38649	0	0	0	23753	22340	157052	27235	1060029	46452	108760	0	0	8219	533196	0	0
2024-09-23 16:14:47			0	38644	0	0	0	23753	22340	157100	27395	1060056	46462	108760	0	0	8219	533388	0	0
2024-09-23 16:15:47			0	38640	0	0	0	23766	22340	157124	26901	1060073	46472	108765	0	0	8218	533542	0	0
2024-09-23 16:16:47			0	38652	0	0	0	23763	22340	157088	27355	1060047	46472	108764	0	0	8219	533081	0	0
2024-09-23 16:17:47			0	38639	0	0	0	23763	22340	157100	27301	1060073	46472	108764	0	0	8218	533581	0	0
2024-09-23 16:18:47			0	38628	0	0	0	23753	22340	157092	27364	1060073	46472	108760	0	0	8218	534004	0	0
2024-09-23 16:19:47			0	38634	0	0	0	23758	22330	157060	27346	1060038	46461	108762	0	0	8218	533803	0	0
2024-09-23 16:20:47			0	38631	0	0	0	23753	22340	157080	27189	1060029	46473	108760	0	0	8218	533888	0	0
2024-09-23 16:21:47			0	38624	0	0	0	23750	22330	157096	27350	1060029	46483	108759	0	0	8218	534187	0	0
2024-09-23 16:22:47			0	38626	0	0	0	23755	22340	157036	27199	1060047	46461	108761	0	0	8218	534081	0	0
2024-09-23 16:23:47			0	38633	0	0	0	23750	22340	157104	27118	1060020	46461	108759	0	0	8218	533811	0	0
2024-09-23 16:24:47			0	38619	0	0	0	23748	22330	157056	27279	1059958	46472	108758	0	0	8217	534380	0	0
2024-09-23 16:25:47			0	38641	0	0	0	23758	22340	157060	27284	1060056	46473	108762	0	0	8219	533504	0	0
2024-09-23 16:26:47			0	38643	0	0	0	23761	22340	156952	27176	1060073	46472	108763	0	0	8219	533427	0	0
2024-09-23 16:27:47			0	38628	0	0	0	23761	22330	157116	27341	1060011	46461	108763	0	0	8218	534034	0	0
2024-09-23 16:28:47			0	38631	0	0	0	23761	22330	157000	27284	1060064	46483	108763	0	0	8218	533918	0	0
2024-09-23 16:29:47			0	38634	0	0	0	23758	22340	157032	27313	1060073	46461	108762	0	0	8218	533773	0	0
2024-09-23 16:30:47			0	38630	0	0	0	23758	22340	157112	27524	1060100	46472	108762	0	0	8218	533927	0	0
2024-09-23 16:31:47			0	38635	0	0	0	23761	22330	157036	27651	1060002	46471	108763	0	0	8218	533764	0	0
2024-09-23 16:32:47			0	38632	0	0	0	23753	22340	157056	27680	1060047	46483	108760	0	0	8218	533850	0	0
2024-09-23 16:33:47			0	38659	0	0	0	23755	22340	156928	27227	1060047	46483	108761	0	0	8220	532812	0	0
2024-09-23 16:34:47			0	38654	0	0	0	23761	22330	157036	27206	1060091	46472	108763	0	0	8219	533034	0	0
2024-09-23 16:35:47			0	38639	0	0	0	23758	22330	157056	27220	1060064	46461	108762	0	0	8218	533610	0	0
2024-09-23 16:36:47			0	38646	0	0	0	23763	22340	157080	27372	1059993	46472	108764	0	0	8219	533311	0	0
2024-09-23 16:37:47			0	38644	0	0	0	23758	22340	157020	27320	1060056	46484	108762	0	0	8219	533388	0	0
2024-09-23 16:38:47			0	38629	0	0	0	23761	22330	157092	27346	1060091	46461	108763	0	0	8218	533995	0	0
2024-09-23 16:39:47			0	38632	0	0	0	23758	22340	157056	26974	1060127	46472	108762	0	0	8218	533850	0	0
2024-09-23 16:40:47			0	38625	0	0	0	23753	22340	157072	27251	1060100	46461	108760	0	0	8218	534119	0	0
2024-09-23 16:41:47			0	38622	0	0	0	23753	22340	156976	27147	1060047	46472	108760	0	0	8218	534234	0	0
2024-09-23 16:42:47			0	38615	0	0	0	23758	22330	157120	27452	1060038	46461	108762	0	0	8217	534534	0	0
2024-09-23 16:43:47			0	38619	0	0	0	23758	22340	157056	27357	1060047	46472	108762	0	0	8217	534350	0	0
2024-09-23 16:44:47			0	38621	0	0	0	23758	22330	156980	27388	1060029	46471	108762	0	0	8217	534303	0	0
2024-09-23 16:45:47			0	38626	0	0	0	23761	22330	156936	27402	1060064	46472	108763	0	0	8218	534110	0	0
2024-09-23 16:46:47			0	38617	0	0	0	23750	22330	157032	27402	1059984	46472	108759	0	0	8217	534457	0	0
2024-09-23 16:47:47			0	38632	0	0	0	23755	22340	157088	27248	1059993	46472	108761	0	0	8218	533850	0	0
2024-09-23 16:48:47			0	38642	0	0	0	23748	22340	157004	27327	1059993	46472	108758	0	0	8219	533465	0	0
2024-09-23 16:49:47			0	38660	0	0	0	23755	22330	157008	27156	1060118	46461	108761	0	0	8220	532803	0	0
2024-09-23 16:50:47			0	38637	0	0	0	23755	22340	157060	27319	1060047	46483	108761	0	0	8218	533657	0	0
2024-09-23 16:51:47			0	38635	0	0	0	23753	22330	156972	27265	1060029	46483	108760	0	0	8218	533764	0	0
2024-09-23 16:52:47			0	38631	0	0	0	23750	22320	157112	27542	1060019	46460	108759	0	0	8218	533948	0	0
2024-09-23 16:53:47			0	38633	0	0	0	23745	22330	157096	27234	1060064	46472	108757	0	0	8218	533841	0	0
2024-09-23 16:54:47			0	38627	0	0	0	23750	22330	157020	27187	1060038	46461	108759	0	0	8218	534072	0	0
2024-09-23 16:55:47			0	38611	0	0	0	23748	22340	157160	27388	1060047	46472	108758	0	0	8217	534658	0	0
2024-09-23 16:56:47			0	38617	0	0	0	23748	22330	157160	27203	1060011	46472	108758	0	0	8217	534457	0	0
2024-09-23 16:57:47			0	38619	0	0	0	23748	22330	157128	27170	1060002	46471	108758	0	0	8217	534380	0	0
2024-09-23 16:58:47			0	38626	0	0	0	23748	22330	157160	27312	1060064	46472	108758	0	0	8218	534110	0	0
2024-09-23 16:59:47			0	38620	0	0	0	23750	22340	157264	27673	1060020	46472	108759	0	0	8218	534311	0	0
2024-09-23 17:00:47			0	38616	0	0	0	23753	22330	157280	27476	1060029	46471	108760	0	0	8217	534495	0	0
2024-09-23 17:01:47			0	38586	0	0	0	23748	22320	157156	27583	1060019	46471	108758	0	0	8215	535681	0	0
2024-09-23 17:02:47			0	38594	0	0	0	23745	22330	157260	27215	1059975	46471	108757	0	0	8216	535342	0	0
2024-09-23 17:03:47			0	38607	0	0	0	23745	22320	157232	27209	1059939	46460	108757	0	0	8217	534872	0	0
2024-09-23 17:04:47			0	38607	0	0	0	23753	22320	157216	27244	1060019	46471	108760	0	0	8217	534872	0	0
2024-09-23 17:05:47			0	38610	0	0	0	23758	22320	157188	27421	1059993	46494	108762	0	0	8217	534756	0	0
2024-09-23 17:06:47			0	38612	0	0	0	23753	22330	157124	27303	1059949	46471	108760	0	0	8217	534649	0	0
2024-09-23 17:07:47			0	38626	0	0	0	23750	22330	157148	26989	1059975	46483	108759	0	0	8218	534110	0	0
2024-09-23 17:08:47			0	38634	0	0	0	23753	22330	157228	27164	1059958	46461	108760	0	0	8218	533803	0	0
2024-09-23 17:09:47			0	38622	0	0	0	23755	22330	157204	27088	1059975	46460	108761	0	0	8217	534264	0	0
2024-09-23 17:10:47			0	38617	0	0	0	23753	22330	157120	27107	1059975	46460	108760	0	0	8217	534457	0	0
2024-09-23 17:11:47			0	38608	0	0	0	23748	22340	157148	26977	1060020	46472	108758	0	0	8217	534773	0	0
2024-09-23 17:12:47			0	38614	0	0	0	23750	22330	157092	27173	1059984	46472	108759	0	0	8217	534572	0	0
2024-09-23 17:13:47			0	38613	0	0	0	23748	22330	157168	27166	1060011	46461	108758	0	0	8217	534611	0	0
2024-09-23 17:14:47			0	38625	0	0	0	23740	22330	157212	27535	1059922	46483	108755	0	0	8218	534149	0	0
2024-09-23 17:15:47			0	38627	0	0	0	23745	22320	157216	27345	1059939	46471	108757	0	0	8218	534102	0	0
2024-09-23 17:16:47			0	38610	0	0	0	23740	22320	157256	27194	1060019	46460	108755	0	0	8217	534756	0	0
2024-09-23 17:17:47			0	38620	0	0	0	23735	22330	157208	27144	1060002	46460	108753	0	0	8218	534341	0	0
2024-09-23 17:18:47			0	38595	0	0	0	23735	22330	157228	27013	1059975	46483	108753	0	0	8216	535304	0	0
2024-09-23 17:19:47			0	38592	0	0	0	23742	22330	157264	27289	1059975	46471	108756	0	0	8216	535420	0	0
2024-09-23 17:20:47			0	38588	0	0	0	23745	22320	157304	27419	1059993	46494	108757	0	0	8216	535604	0	0
2024-09-23 17:21:47			0	38579	0	0	0	23732	22330	157264	27071	1060002	46483	108752	0	0	8215	535921	0	0
2024-09-23 17:22:47			0	38579	0	0	0	23740	22330	157304	27403	1060002	46460	108755	0	0	8215	535921	0	0
2024-09-23 17:23:47			0	38565	0	0	0	23737	22320	157376	27223	1059993	46483	108754	0	0	8214	536491	0	0
2024-09-23 17:24:47			0	38536	0	0	0	23732	22320	157524	27421	1059957	46459	108752	0	0	8213	537610	0	0
2024-09-23 17:25:47			0	38545	0	0	0	23722	22320	157532	27447	1059930	46481	108748	0	0	8214	537262	0	0
2024-09-23 17:26:47			0	38542	0	0	0	23735	22320	157600	27317	1059939	46460	108753	0	0	8213	537378	0	0
2024-09-23 17:27:47			0	38543	0	0	0	23737	22320	157572	27348	1059913	46471	108754	0	0	8213	537340	0	0
2024-09-23 17:28:47			0	38554	0	0	0	23729	22320	157500	27149	1059966	46471	108751	0	0	8214	536915	0	0
2024-09-23 17:29:47			0	38533	0	0	0	23737	22320	157452	27267	1059957	46470	108754	0	0	8213	537726	0	0
2024-09-23 17:30:47			0	38532	0	0	0	23727	22320	157540	27332	1059877	46459	108750	0	0	8213	537764	0	0
2024-09-23 17:31:47			0	38514	0	0	0	23724	22320	157588	27384	1060019	46483	108749	0	0	8212	538460	0	0
2024-09-23 17:32:47			0	38506	0	0	0	23727	22320	157692	27137	1059904	46470	108750	0	0	8211	538770	0	0
2024-09-23 17:33:47			0	38518	0	0	0	23729	22320	157600	27367	1059930	46481	108751	0	0	8212	538305	0	0
2024-09-23 17:34:47			0	38525	0	0	0	23719	22320	157624	27277	1059930	46481	108747	0	0	8212	538035	0	0
2024-09-23 17:35:47			0	38510	0	0	0	23724	22310	157628	27256	1059895	46480	108749	0	0	8211	538645	0	0
2024-09-23 17:36:47			0	38518	0	0	0	23735	22310	157548	27237	1059939	46480	108753	0	0	8212	538336	0	0
2024-09-23 17:37:47			0	38512	0	0	0	23729	22310	157472	27225	1059921	46458	108751	0	0	8211	538568	0	0
2024-09-23 17:38:47			0	38497	0	0	0	23727	22320	157576	27090	1059913	46471	108750	0	0	8211	539118	0	0
2024-09-23 17:39:47			0	38517	0	0	0	23724	22300	157584	27024	1059903	46480	108749	0	0	8212	538404	0	0
2024-09-23 17:40:47			0	38516	0	0	0	23724	22310	157672	27086	1059966	46469	108749	0	0	8212	538413	0	0
2024-09-23 17:41:47			0	38514	0	0	0	23727	22300	157580	27215	1059903	46469	108750	0	0	8212	538520	0	0
2024-09-23 17:42:47			0	38523	0	0	0	23732	22310	157680	27171	1059939	46469	108752	0	0	8212	538142	0	0
2024-09-23 17:43:47			0	38509	0	0	0	23727	22310	157704	27147	1059886	46469	108750	0	0	8211	538684	0	0
2024-09-23 17:44:47			0	38516	0	0	0	23729	22300	157564	27377	1059903	46469	108751	0	0	8212	538443	0	0
2024-09-23 17:45:47			0	38537	0	0	0	23719	22300	157620	27142	1059903	46469	108747	0	0	8213	537631	0	0
2024-09-23 17:46:47			0	38499	0	0	0	23724	22310	157584	27175	1059912	46448	108749	0	0	8211	539070	0	0
2024-09-23 17:47:47			0	38522	0	0	0	23716	22310	157608	27364	1059886	46469	108746	0	0	8212	538181	0	0
2024-09-23 17:48:47			0	38516	0	0	0	23724	22310	157488	26904	1059859	46469	108749	0	0	8212	538413	0	0
2024-09-23 17:49:47			0	38507	0	0	0	23724	22300	157556	27436	1059903	46480	108749	0	0	8211	538791	0	0
2024-09-23 17:50:47			0	38498	0	0	0	23719	22310	157492	27479	1059895	46458	108747	0	0	8211	539109	0	0
2024-09-23 17:51:47			0	38501	0	0	0	23729	22310	157544	27319	1059886	46469	108751	0	0	8211	538993	0	0
2024-09-23 17:52:47			0	38506	0	0	0	23724	22300	157564	27164	1059903	46469	108749	0	0	8211	538830	0	0
2024-09-23 17:53:47			0	38501	0	0	0	23727	22310	157524	27499	1059912	46469	108750	0	0	8211	538993	0	0
2024-09-23 17:54:47			0	38524	0	0	0	23724	22310	157560	27417	1059868	46469	108749	0	0	8212	538104	0	0
2024-09-23 17:55:47			0	38508	0	0	0	23716	22310	157524	27417	1059895	46458	108746	0	0	8211	538722	0	0
2024-09-23 17:56:47			0	38518	0	0	0	23724	22300	157568	27500	1059850	46480	108749	0	0	8212	538366	0	0
2024-09-23 17:57:47			0	38508	0	0	0	23722	22310	157616	27313	1059895	46469	108748	0	0	8211	538722	0	0
2024-09-23 17:58:47			0	38498	0	0	0	23724	22300	157508	27371	1059894	46468	108749	0	0	8211	539139	0	0
2024-09-23 17:59:47			0	38491	0	0	0	23722	22310	157584	27220	1059886	46469	108748	0	0	8210	539380	0	0
2024-09-23 18:00:47			0	38492	0	0	0	23716	22310	157636	27244	1059895	46480	108746	0	0	8211	539341	0	0
2024-09-23 18:01:47			0	38498	0	0	0	23719	22310	157624	27196	1059939	46469	108747	0	0	8211	539109	0	0
2024-09-23 18:02:47			0	38483	0	0	0	23722	22310	157600	27421	1059939	46469	108748	0	0	8210	539690	0	0
2024-09-23 18:03:47			0	38507	0	0	0	23727	22290	157716	27569	1059912	46457	108750	0	0	8211	538821	0	0
2024-09-23 18:04:47			0	38482	0	0	0	23727	22310	157572	27659	1059939	46480	108750	0	0	8210	539729	0	0
2024-09-23 18:05:47			0	38494	0	0	0	23719	22310	157632	27274	1059939	46480	108747	0	0	8211	539264	0	0
2024-09-23 18:06:47			0	38483	0	0	0	23722	22300	157652	27303	1059903	46480	108748	0	0	8210	539720	0	0
2024-09-23 18:07:47			0	38499	0	0	0	23719	22300	157680	27563	1059930	46480	108747	0	0	8211	539101	0	0
2024-09-23 18:08:47			0	38497	0	0	0	23719	22300	157532	27630	1059930	46469	108747	0	0	8211	539178	0	0
2024-09-23 18:09:47			0	38496	0	0	0	23716	22310	157564	27623	1059912	46480	108746	0	0	8211	539187	0	0
2024-09-23 18:10:47			0	38485	0	0	0	23727	22310	157624	27545	1059912	46458	108750	0	0	8210	539612	0	0
2024-09-23 18:11:47			0	38486	0	0	0	23716	22300	157584	27355	1059868	46468	108746	0	0	8210	539604	0	0
2024-09-23 18:12:47			0	38483	0	0	0	23711	22300	157728	27414	1059850	46469	108744	0	0	8210	539720	0	0
2024-09-23 18:13:47			0	38486	0	0	0	23714	22300	157648	27588	1059814	46468	108745	0	0	8210	539604	0	0
2024-09-23 18:14:47			0	38485	0	0	0	23716	22300	157656	27079	1059850	46480	108746	0	0	8210	539642	0	0
2024-09-23 18:15:47			0	38470	0	0	0	23719	22300	157764	27260	1059797	46469	108747	0	0	8209	540223	0	0
2024-09-23 18:16:47			0	38466	0	0	0	23722	22300	157700	27677	1059814	46491	108748	0	0	8209	540378	0	0
2024-09-23 18:17:47			0	38474	0	0	0	23719	22300	157864	27296	1059841	46468	108747	0	0	8209	540069	0	0
2024-09-23 18:18:47			0	38482	0	0	0	23711	22300	157680	27303	1059814	46479	108744	0	0	8210	539759	0	0
2024-09-23 18:19:47			0	38479	0	0	0	23724	22290	157756	27294	1059805	46478	108749	0	0	8210	539905	0	0
2024-09-23 18:20:47			0	38465	0	0	0	23719	22310	157768	27499	1059912	46469	108747	0	0	8209	540387	0	0
2024-09-23 18:21:47			0	38451	0	0	0	23719	22300	157752	27332	1059868	46468	108747	0	0	8208	540960	0	0
2024-09-23 18:22:47			0	38450	0	0	0	23716	22300	157832	27578	1059850	46469	108746	0	0	8208	540999	0	0
2024-09-23 18:23:47			0	38446	0	0	0	23711	22300	157820	27241	1059877	46469	108744	0	0	8208	541154	0	0
2024-09-23 18:24:47			0	38452	0	0	0	23706	22300	157832	26948	1059841	46468	108742	0	0	8208	540921	0	0
2024-09-23 18:25:47			0	38450	0	0	0	23716	22300	157884	27150	1059868	46458	108746	0	0	8208	540999	0	0
2024-09-23 18:26:47			0	38460	0	0	0	23719	22300	157824	27436	1059841	46479	108747	0	0	8209	540611	0	0
2024-09-23 18:27:47			0	38466	0	0	0	23706	22300	157896	27260	1059868	46468	108742	0	0	8209	540378	0	0
2024-09-23 18:28:47			0	38436	0	0	0	23714	22280	157932	27431	1059796	46457	108745	0	0	8207	541602	0	0
2024-09-23 18:29:47			0	38425	0	0	0	23722	22300	157808	27332	1059868	46458	108748	0	0	8206	541969	0	0
2024-09-23 18:30:47			0	38435	0	0	0	23709	22300	158008	27135	1059788	46479	108743	0	0	8207	541581	0	0
2024-09-23 18:31:47			0	38437	0	0	0	23701	22280	157900	27135	1059841	46456	108740	0	0	8207	541563	0	0
2024-09-23 18:32:47			0	38430	0	0	0	23711	22300	158024	27076	1059814	46479	108744	0	0	8207	541775	0	0
2024-09-23 18:33:47			0	38416	0	0	0	23703	22280	157892	27170	1059823	46467	108741	0	0	8206	542379	0	0
2024-09-23 18:34:47			0	38424	0	0	0	23709	22300	157964	27144	1059841	46447	108743	0	0	8207	542008	0	0
2024-09-23 18:35:47			0	38443	0	0	0	23714	22300	157908	27391	1059788	46479	108745	0	0	8208	541270	0	0
2024-09-23 18:36:47			0	38429	0	0	0	23711	22290	157924	27464	1059805	46490	108744	0	0	8207	541844	0	0
2024-09-23 18:37:47			0	38413	0	0	0	23701	22290	157948	27159	1059832	46467	108740	0	0	8206	542465	0	0
2024-09-23 18:38:47			0	38421	0	0	0	23698	22290	158000	27164	1059859	46467	108739	0	0	8207	542154	0	0
2024-09-23 18:39:47			0	38413	0	0	0	23703	22300	158024	27242	1059868	46479	108741	0	0	8206	542435	0	0
2024-09-23 18:40:47			0	38386	0	0	0	23696	22280	157984	27090	1059823	46457	108738	0	0	8205	543545	0	0
2024-09-23 18:41:47			0	38404	0	0	0	23703	22300	157992	27443	1059814	46458	108741	0	0	8206	542784	0	0
2024-09-23 18:42:47			0	38383	0	0	0	23703	22280	158132	27467	1059761	46456	108741	0	0	8204	543662	0	0
2024-09-23 18:43:47			0	38387	0	0	0	23706	22280	158084	27270	1059761	46466	108742	0	0	8204	543506	0	0
2024-09-23 18:44:47			0	38385	0	0	0	23703	22280	158012	27267	1059796	46457	108741	0	0	8204	543584	0	0
2024-09-23 18:45:47			0	38377	0	0	0	23703	22270	158108	27656	1059805	46456	108741	0	0	8204	543925	0	0
2024-09-23 18:46:47			0	38362	0	0	0	23693	22280	158016	27396	1059823	46457	108737	0	0	8203	544479	0	0
2024-09-23 18:47:47			0	38393	0	0	0	23701	22280	158108	27393	1059761	46466	108740	0	0	8205	543273	0	0
2024-09-23 18:48:47			0	38359	0	0	0	23693	22280	158104	27486	1059734	46466	108737	0	0	8203	544595	0	0
2024-09-23 18:49:47			0	38383	0	0	0	23696	22280	158108	27329	1059788	46456	108738	0	0	8204	543662	0	0
2024-09-23 18:50:47			0	38379	0	0	0	23698	22270	158088	27403	1059752	46477	108739	0	0	8204	543847	0	0
2024-09-23 18:51:47			0	38378	0	0	0	23698	22270	158192	27509	1059779	46456	108739	0	0	8204	543886	0	0
2024-09-23 18:52:47			0	38385	0	0	0	23693	22280	158052	27242	1059761	46466	108737	0	0	8205	543584	0	0
2024-09-23 18:53:47			0	38373	0	0	0	23690	22280	158092	27293	1059788	46445	108736	0	0	8204	544050	0	0
2024-09-23 18:54:47			0	38373	0	0	0	23693	22270	158112	27409	1059699	46466	108737	0	0	8204	544081	0	0
2024-09-23 18:55:47			0	38362	0	0	0	23693	22280	158160	27291	1059707	46466	108737	0	0	8203	544479	0	0
2024-09-23 18:56:47			0	38370	0	0	0	23696	22280	158160	27152	1059796	46478	108738	0	0	8204	544167	0	0
2024-09-23 18:57:47			0	38368	0	0	0	23693	22270	158160	27284	1059805	46466	108737	0	0	8204	544276	0	0
2024-09-23 18:58:47			0	38369	0	0	0	23683	22270	158208	27305	1059779	46477	108733	0	0	8204	544237	0	0
2024-09-23 18:59:47			0	38364	0	0	0	23690	22270	158276	27189	1059752	46466	108736	0	0	8203	544431	0	0
2024-09-23 19:00:47			0	38355	0	0	0	23693	22270	158220	27336	1059743	46455	108737	0	0	8203	544782	0	0
2024-09-23 19:01:47			0	38352	0	0	0	23683	22270	158248	27317	1059743	46465	108733	0	0	8203	544899	0	0
2024-09-23 19:02:47			0	38331	0	0	0	23685	22270	158240	27479	1059725	46477	108734	0	0	8202	545717	0	0
2024-09-23 19:03:47			0	38337	0	0	0	23675	22260	158244	27291	1059681	46465	108730	0	0	8202	545513	0	0
2024-09-23 19:04:47			0	38336	0	0	0	23685	22270	158348	27492	1059663	46455	108734	0	0	8202	545522	0	0
2024-09-23 19:05:47			0	38316	0	0	0	23680	22260	158452	27336	1059734	46455	108732	0	0	8201	546332	0	0
2024-09-23 19:06:47			0	38319	0	0	0	23683	22270	158352	27431	1059636	46465	108733	0	0	8201	546185	0	0
2024-09-23 19:07:47			0	38310	0	0	0	23677	22270	158388	27024	1059672	46466	108731	0	0	8200	546536	0	0
2024-09-23 19:08:47			0	38291	0	0	0	23670	22260	158496	27564	1059707	46465	108728	0	0	8199	547308	0	0
2024-09-23 19:09:47			0	38314	0	0	0	23677	22260	158516	27497	1059645	46464	108731	0	0	8201	546411	0	0
2024-09-23 19:10:47			0	38291	0	0	0	23670	22270	158420	27405	1059690	46455	108728	0	0	8199	547278	0	0
2024-09-23 19:11:47			0	38267	0	0	0	23659	22250	158516	27223	1059636	46464	108724	0	0	8198	548277	0	0
2024-09-23 19:12:47			0	38280	0	0	0	23667	22260	158468	27505	1059672	46475	108727	0	0	8199	547738	0	0
2024-09-23 19:13:47			0	38288	0	0	0	23659	22260	158452	27275	1059618	46475	108724	0	0	8199	547426	0	0
2024-09-23 19:14:47			0	38256	0	0	0	23664	22250	158608	27232	1059680	46463	108726	0	0	8197	548707	0	0
2024-09-23 19:15:47			0	38246	0	0	0	23670	22260	158712	27121	1059672	46475	108728	0	0	8197	549068	0	0
2024-09-23 19:16:47			0	38270	0	0	0	23662	22250	158672	27296	1059689	46475	108725	0	0	8198	548160	0	0
2024-09-23 19:17:47			0	38240	0	0	0	23651	22250	158704	27407	1059627	46463	108721	0	0	8197	549333	0	0
2024-09-23 19:18:47			0	38225	0	0	0	23657	22240	158752	27431	1059591	46452	108723	0	0	8196	549952	0	0
2024-09-23 19:19:47			0	38233	0	0	0	23646	22250	158892	27308	1059636	46454	108719	0	0	8196	549608	0	0
2024-09-23 19:20:47			0	38231	0	0	0	23644	22240	158788	27370	1059538	46441	108718	0	0	8196	549717	0	0
2024-09-23 19:21:47			0	38223	0	0	0	23651	22240	158880	27331	1059538	46462	108721	0	0	8196	550030	0	0
2024-09-23 19:22:47			0	38204	0	0	0	23654	22240	158840	27137	1059538	46462	108722	0	0	8194	550775	0	0
2024-09-23 19:23:47			0	38210	0	0	0	23651	22240	158968	27409	1059529	46462	108721	0	0	8195	550540	0	0
2024-09-23 19:24:47			0	38222	0	0	0	23646	22240	158812	27524	1059591	46462	108719	0	0	8196	550069	0	0
2024-09-23 19:25:47			0	38209	0	0	0	23646	22240	158816	27360	1059556	46485	108719	0	0	8195	550579	0	0
2024-09-23 19:26:47			0	38220	0	0	0	23646	22230	158916	27326	1059547	46462	108719	0	0	8196	550178	0	0
2024-09-23 19:27:47			0	38197	0	0	0	23636	22240	158816	27514	1059565	46452	108715	0	0	8194	551050	0	0
2024-09-23 19:28:47			0	38204	0	0	0	23649	22230	158876	27298	1059547	46462	108720	0	0	8195	550806	0	0
2024-09-23 19:29:47			0	38194	0	0	0	23649	22250	158840	27543	1059600	46453	108720	0	0	8194	551136	0	0
2024-09-23 19:30:47			0	38190	0	0	0	23649	22230	158920	27343	1059574	46462	108720	0	0	8194	551355	0	0
2024-09-23 19:31:47			0	38178	0	0	0	23641	22240	158976	27585	1059556	46485	108717	0	0	8193	551795	0	0
2024-09-23 19:32:47			0	38182	0	0	0	23649	22230	158948	27379	1059493	46462	108720	0	0	8193	551669	0	0
2024-09-23 19:33:47			0	38206	0	0	0	23641	22240	158960	27161	1059529	46462	108717	0	0	8195	550696	0	0
2024-09-23 19:34:47			0	38172	0	0	0	23644	22230	158948	27171	1059511	46451	108718	0	0	8193	552061	0	0
2024-09-23 19:35:47			0	38193	0	0	0	23638	22220	159000	27197	1059529	46471	108716	0	0	8194	551268	0	0
2024-09-23 19:36:47			0	38177	0	0	0	23644	22220	159004	27379	1059556	46450	108718	0	0	8193	551896	0	0
2024-09-23 19:37:47			0	38184	0	0	0	23641	22230	159024	27095	1059511	46461	108717	0	0	8194	551590	0	0
2024-09-23 19:38:47			0	38184	0	0	0	23644	22230	158884	27270	1059538	46461	108718	0	0	8193	551590	0	0
2024-09-23 19:39:47			0	38176	0	0	0	23644	22220	158992	27409	1059476	46471	108718	0	0	8193	551935	0	0
2024-09-23 19:40:47			0	38186	0	0	0	23641	22240	158872	27239	1059502	46462	108717	0	0	8194	551481	0	0
2024-09-23 19:41:47			0	38167	0	0	0	23636	22220	159012	27109	1059476	46483	108715	0	0	8193	552289	0	0
2024-09-23 19:42:47			0	38179	0	0	0	23638	22230	158992	26941	1059485	46461	108716	0	0	8193	551787	0	0
2024-09-23 19:43:47			0	38179	0	0	0	23644	22230	158944	27093	1059511	46484	108718	0	0	8193	551787	0	0
2024-09-23 19:44:47			0	38181	0	0	0	23636	22220	159072	27114	1059476	46460	108715	0	0	8193	551739	0	0
2024-09-23 19:45:47			0	38156	0	0	0	23631	22230	159052	27180	1059458	46461	108713	0	0	8192	552690	0	0
2024-09-23 19:46:47			0	38161	0	0	0	23636	22220	159012	26956	1059467	46471	108715	0	0	8192	552524	0	0
2024-09-23 19:47:47			0	38157	0	0	0	23628	22220	159004	27149	1059529	46471	108712	0	0	8192	552682	0	0
2024-09-23 19:48:47			0	38162	0	0	0	23628	22220	159028	27112	1059502	46460	108712	0	0	8192	552485	0	0
2024-09-23 19:49:47			0	38149	0	0	0	23631	22210	159088	27216	1059484	46460	108713	0	0	8192	553027	0	0
2024-09-23 19:50:47			0	38152	0	0	0	23631	22210	159104	27374	1059511	46460	108713	0	0	8192	552909	0	0
2024-09-23 19:51:47			0	38152	0	0	0	23625	22230	159116	27045	1059511	46461	108711	0	0	8192	552847	0	0
2024-09-23 19:52:47			0	38135	0	0	0	23631	22220	159100	27232	1059440	46471	108713	0	0	8191	553547	0	0
2024-09-23 19:53:47			0	38149	0	0	0	23623	22210	159052	27258	1059458	46460	108710	0	0	8192	553027	0	0
2024-09-23 19:54:47			0	38162	0	0	0	23623	22220	159104	27000	1059467	46460	108710	0	0	8192	552485	0	0
2024-09-23 19:55:47			0	38146	0	0	0	23623	22210	159164	26975	1059449	46449	108710	0	0	8191	553145	0	0
2024-09-23 19:56:47			0	38155	0	0	0	23625	22210	159160	26963	1059404	46460	108711	0	0	8192	552791	0	0
2024-09-23 19:57:47			0	38133	0	0	0	23631	22220	159212	27294	1059449	46471	108713	0	0	8191	553625	0	0
2024-09-23 19:58:47			0	38129	0	0	0	23625	22210	159260	27072	1059369	46470	108711	0	0	8190	553814	0	0
2024-09-23 19:59:47			0	38127	0	0	0	23633	22220	159188	27263	1059396	46460	108714	0	0	8190	553862	0	0
2024-09-23 20:00:47			0	38122	0	0	0	23641	22210	159152	27196	1059431	46460	108717	0	0	8190	554089	0	0
2024-09-23 20:01:47			0	38130	0	0	0	23628	22210	159248	27090	1059458	46460	108712	0	0	8190	553774	0	0
2024-09-23 20:02:47			0	38122	0	0	0	23631	22210	159236	27467	1059475	46459	108713	0	0	8190	554089	0	0
2024-09-23 20:03:47			0	38131	0	0	0	23618	22210	159348	27222	1059449	46449	108708	0	0	8191	553735	0	0
2024-09-23 20:04:47			0	38122	0	0	0	23623	22220	159244	27102	1059476	46439	108710	0	0	8190	554058	0	0
2024-09-23 20:05:47			0	38124	0	0	0	23620	22210	159140	27294	1059378	46460	108709	0	0	8190	554010	0	0
2024-09-23 20:06:47			0	38124	0	0	0	23625	22220	159228	27137	1059449	46450	108711	0	0	8190	553980	0	0
2024-09-23 20:07:47			0	38129	0	0	0	23623	22210	159200	27078	1059449	46459	108710	0	0	8191	553814	0	0
2024-09-23 20:08:47			0	38116	0	0	0	23618	22220	159232	26942	1059440	46460	108708	0	0	8190	554295	0	0
2024-09-23 20:09:47			0	38121	0	0	0	23618	22210	159296	27038	1059422	46482	108708	0	0	8190	554129	0	0
2024-09-23 20:10:47			0	38119	0	0	0	23628	22200	159192	27229	1059440	46458	108712	0	0	8190	554238	0	0
2024-09-23 20:11:47			0	38111	0	0	0	23618	22210	159132	26823	1059475	46459	108708	0	0	8190	554522	0	0
2024-09-23 20:12:47			0	38092	0	0	0	23615	22210	159256	27097	1059404	46460	108707	0	0	8188	555271	0	0
2024-09-23 20:13:47			0	38115	0	0	0	23623	22210	159352	26748	1059431	46450	108710	0	0	8190	554365	0	0
2024-09-23 20:14:47			0	38089	0	0	0	23618	22200	159400	27041	1059333	46458	108708	0	0	8188	555420	0	0
2024-09-23 20:15:47			0	38079	0	0	0	23615	22200	159300	27027	1059360	46458	108707	0	0	8188	555815	0	0
2024-09-23 20:16:47			0	38096	0	0	0	23618	22200	159372	27189	1059360	46458	108708	0	0	8189	555144	0	0
2024-09-23 20:17:47			0	38090	0	0	0	23618	22210	159376	27185	1059404	46471	108708	0	0	8188	555350	0	0
2024-09-23 20:18:47			0	38073	0	0	0	23610	22200	159440	26849	1059360	46469	108705	0	0	8187	556051	0	0
2024-09-23 20:19:47			0	38066	0	0	0	23620	22210	159492	27107	1059422	46438	108709	0	0	8187	556296	0	0
2024-09-23 20:20:47			0	38083	0	0	0	23618	22200	159440	26987	1059386	46458	108708	0	0	8188	555657	0	0
2024-09-23 20:21:47			0	38079	0	0	0	23620	22200	159344	26885	1059377	46458	108709	0	0	8188	555815	0	0
2024-09-23 20:22:47			0	38081	0	0	0	23625	22200	159500	27187	1059404	46458	108711	0	0	8188	555736	0	0
2024-09-23 20:23:47			0	38087	0	0	0	23615	22200	159376	26890	1059440	46469	108707	0	0	8188	555499	0	0
2024-09-23 20:24:47			0	38068	0	0	0	23620	22200	159400	27142	1059386	46448	108709	0	0	8187	556249	0	0
2024-09-23 20:25:47			0	38079	0	0	0	23615	22210	159456	27173	1059449	46449	108707	0	0	8188	555784	0	0
2024-09-23 20:26:47			0	38062	0	0	0	23618	22200	159480	27183	1059324	46458	108708	0	0	8187	556485	0	0
2024-09-23 20:27:47			0	38069	0	0	0	23618	22210	159512	27114	1059431	46460	108708	0	0	8187	556178	0	0
2024-09-23 20:28:47			0	38048	0	0	0	23615	22200	159456	26823	1059430	46458	108707	0	0	8186	557038	0	0
2024-09-23 20:29:47			0	38067	0	0	0	23615	22200	159420	27008	1059386	46448	108707	0	0	8187	556288	0	0
2024-09-23 20:30:47			0	38051	0	0	0	23620	22200	159556	26876	1059413	46448	108709	0	0	8186	556920	0	0
2024-09-23 20:31:47			0	38064	0	0	0	23612	22200	159528	27164	1059413	46458	108706	0	0	8187	556406	0	0
2024-09-23 20:32:47			0	38063	0	0	0	23623	22200	159512	26946	1059404	46469	108710	0	0	8187	556446	0	0
2024-09-23 20:33:47			0	38053	0	0	0	23612	22200	159620	27161	1059386	46458	108706	0	0	8186	556841	0	0
2024-09-23 20:34:47			0	38042	0	0	0	23618	22210	159540	26939	1059369	46459	108708	0	0	8186	557244	0	0
2024-09-23 20:35:47			0	38057	0	0	0	23615	22200	159480	27045	1059404	46458	108707	0	0	8186	556683	0	0
2024-09-23 20:36:47			0	38050	0	0	0	23620	22200	159656	27194	1059360	46469	108709	0	0	8186	556959	0	0
2024-09-23 20:37:47			0	38049	0	0	0	23623	22200	159508	27196	1059350	46469	108710	0	0	8186	556999	0	0
2024-09-23 20:38:47			0	38043	0	0	0	23610	22200	159544	27131	1059377	46458	108705	0	0	8186	557236	0	0
2024-09-23 20:39:47			0	38041	0	0	0	23610	22200	159556	27419	1059350	46481	108705	0	0	8186	557315	0	0
2024-09-23 20:40:47			0	38039	0	0	0	23618	22200	159624	27130	1059360	46469	108708	0	0	8185	557394	0	0
2024-09-23 20:41:47			0	38024	0	0	0	23610	22190	159664	26968	1059395	46458	108705	0	0	8184	558018	0	0
2024-09-23 20:42:47			0	38020	0	0	0	23607	22200	159711	26965	1059377	46458	108704	0	0	8184	558145	0	0
2024-09-23 20:43:47			0	38015	0	0	0	23612	22200	159603	26932	1059386	46469	108706	0	0	8184	558343	0	0
2024-09-23 20:44:47			0	38018	0	0	0	23615	22200	159711	26902	1059360	46458	108707	0	0	8184	558224	0	0
2024-09-23 20:45:47			0	38008	0	0	0	23612	22190	159779	26863	1059413	46468	108706	0	0	8184	558651	0	0
2024-09-23 20:46:47			0	37999	0	0	0	23612	22200	159719	27149	1059377	46448	108706	0	0	8183	558976	0	0
2024-09-23 20:47:47			0	37992	0	0	0	23612	22200	159771	27360	1059324	46458	108706	0	0	8183	559253	0	0
2024-09-23 20:48:47			0	37975	0	0	0	23602	22200	159911	27310	1059377	46481	108702	0	0	8182	559926	0	0
2024-09-23 20:49:47			0	37966	0	0	0	23581	22190	159875	27263	1059359	46458	108694	0	0	8182	560314	0	0
2024-09-23 20:50:47			0	37959	0	0	0	23592	22190	159855	27441	1059279	46447	108698	0	0	8181	560592	0	0
2024-09-23 20:51:47			0	37970	0	0	0	23563	22190	159907	27192	1059279	46447	108687	0	0	8182	560156	0	0
2024-09-23 20:52:47			0	37981	0	0	0	23561	22170	159927	27204	1059226	46445	108686	0	0	8183	559782	0	0
2024-09-23 20:53:47			0	38012	0	0	0	23540	22170	159799	27428	1059110	46445	108678	0	0	8185	558555	0	0
2024-09-23 20:54:47			0	38011	0	0	0	23545	22170	159591	27180	1059137	46445	108680	0	0	8185	558594	0	0
2024-09-23 20:55:47			0	38049	0	0	0	23545	22170	159528	27225	1059217	46445	108680	0	0	8187	557092	0	0
2024-09-23 20:56:47			0	38061	0	0	0	23537	22160	159508	27230	1059208	46455	108677	0	0	8188	556649	0	0
2024-09-23 20:57:47			0	38102	0	0	0	23522	22160	159432	27039	1059074	46455	108671	0	0	8190	555032	0	0
2024-09-23 20:58:47			0	38109	0	0	0	23519	22160	159368	27409	1059101	46444	108670	0	0	8191	554756	0	0
2024-09-23 20:59:47			0	38128	0	0	0	23527	22160	159284	27493	1059065	46443	108673	0	0	8192	554008	0	0
2024-09-23 21:00:47			0	38136	0	0	0	23522	22150	159180	27371	1059021	46431	108671	0	0	8192	553724	0	0
2024-09-23 21:01:47			0	38145	0	0	0	23532	22140	159156	27213	1059118	46442	108675	0	0	8193	553400	0	0
2024-09-23 21:02:47			0	38163	0	0	0	23542	22140	159236	27350	1059056	46441	108679	0	0	8194	552693	0	0
2024-09-23 21:03:47			0	38161	0	0	0	23542	22130	159048	27493	1059038	46441	108679	0	0	8193	552802	0	0
2024-09-23 21:04:47			0	38172	0	0	0	23532	22130	159176	27293	1059038	46452	108675	0	0	8194	552370	0	0
2024-09-23 21:05:47			0	38180	0	0	0	23540	22130	159192	27514	1059074	46452	108678	0	0	8195	552055	0	0
2024-09-23 21:06:47			0	38179	0	0	0	23537	22140	159104	27319	1059056	46441	108677	0	0	8195	552064	0	0
2024-09-23 21:07:47			0	38165	0	0	0	23545	22130	159104	27403	1059021	46452	108680	0	0	8194	552645	0	0
2024-09-23 21:08:47			0	38161	0	0	0	23540	22130	159144	27069	1059021	46441	108678	0	0	8193	552802	0	0
2024-09-23 21:09:47			0	38158	0	0	0	23542	22130	159156	27473	1059038	46452	108679	0	0	8193	552920	0	0
2024-09-23 21:10:47			0	38173	0	0	0	23548	22130	159192	27128	1059038	46474	108681	0	0	8194	552330	0	0
2024-09-23 21:11:47			0	38167	0	0	0	23535	22120	159168	27203	1059003	46440	108676	0	0	8194	552597	0	0
2024-09-23 21:12:47			0	38191	0	0	0	23537	22120	159248	27180	1059029	46451	108677	0	0	8195	551654	0	0
2024-09-23 21:13:47			0	38167	0	0	0	23550	22120	159212	27402	1059003	46451	108682	0	0	8194	552597	0	0
2024-09-23 21:14:47			0	38166	0	0	0	23550	22120	159128	27175	1059109	46440	108682	0	0	8193	552636	0	0
2024-09-23 21:15:47			0	38173	0	0	0	23550	22120	159148	27081	1059056	46451	108682	0	0	8194	552361	0	0
2024-09-23 21:16:47			0	38152	0	0	0	23545	22140	159252	26994	1059083	46452	108680	0	0	8193	553125	0	0
2024-09-23 21:17:47			0	38165	0	0	0	23548	22120	159260	27258	1059056	46440	108681	0	0	8193	552676	0	0
2024-09-23 21:18:47			0	38142	0	0	0	23548	22130	159160	27194	1059038	46452	108681	0	0	8192	553549	0	0
2024-09-23 21:19:47			0	38171	0	0	0	23545	22120	159124	27159	1059056	46451	108680	0	0	8194	552440	0	0
2024-09-23 21:20:47			0	38155	0	0	0	23537	22120	159144	27254	1059056	46451	108677	0	0	8193	553069	0	0
2024-09-23 21:21:47			0	38150	0	0	0	23540	22130	159196	27289	1059047	46441	108678	0	0	8193	553234	0	0
2024-09-23 21:22:47			0	38175	0	0	0	23532	22120	159108	27256	1059029	46440	108675	0	0	8194	552283	0	0
2024-09-23 21:23:47			0	38178	0	0	0	23540	22130	159072	27239	1059021	46441	108678	0	0	8194	552134	0	0
2024-09-23 21:24:47			0	38158	0	0	0	23542	22120	159128	26674	1058976	46461	108679	0	0	8193	552951	0	0
2024-09-23 21:25:47			0	38160	0	0	0	23540	22120	159112	27222	1059083	46440	108678	0	0	8193	552872	0	0
2024-09-23 21:26:47			0	38147	0	0	0	23542	22120	159236	26987	1059083	46451	108679	0	0	8193	553383	0	0
2024-09-23 21:27:47			0	38156	0	0	0	23535	22130	159264	27112	1058994	46452	108676	0	0	8193	552999	0	0
2024-09-23 21:28:47			0	38137	0	0	0	23532	22130	159232	26759	1059065	46462	108675	0	0	8192	553746	0	0
2024-09-23 21:29:47			0	38144	0	0	0	23545	22120	159248	27272	1059056	46451	108680	0	0	8192	553501	0	0
2024-09-23 21:30:47			0	38141	0	0	0	23532	22120	159236	27280	1059003	46461	108675	0	0	8192	553620	0	0
2024-09-23 21:31:47			0	38116	0	0	0	23540	22130	159352	27281	1059047	46452	108678	0	0	8191	554573	0	0
2024-09-23 21:32:47			0	38116	0	0	0	23537	22130	159460	26951	1059038	46452	108677	0	0	8191	554573	0	0
2024-09-23 21:33:47			0	38109	0	0	0	23532	22130	159372	27256	1059065	46452	108675	0	0	8191	554849	0	0
2024-09-23 21:34:47			0	38122	0	0	0	23535	22120	159304	27126	1059047	46450	108676	0	0	8191	554368	0	0
2024-09-23 21:35:47			0	38124	0	0	0	23542	22120	159436	26979	1059003	46451	108679	0	0	8191	554289	0	0
2024-09-23 21:36:47			0	38115	0	0	0	23540	22120	159504	27220	1059083	46461	108678	0	0	8191	554643	0	0
2024-09-23 21:37:47			0	38089	0	0	0	23535	22120	159488	26965	1059047	46450	108676	0	0	8189	555668	0	0
2024-09-23 21:38:47			0	38081	0	0	0	23545	22110	159516	27386	1058985	46459	108680	0	0	8189	556015	0	0
2024-09-23 21:39:47			0	38099	0	0	0	23535	22120	159544	27177	1059020	46450	108676	0	0	8190	555274	0	0
2024-09-23 21:40:47			0	38117	0	0	0	23545	22120	159444	27336	1059020	46460	108680	0	0	8191	554564	0	0
2024-09-23 21:41:47			0	38109	0	0	0	23537	22130	159444	27364	1059038	46441	108677	0	0	8190	554849	0	0
2024-09-23 21:42:47			0	38115	0	0	0	23535	22120	159300	27074	1059056	46451	108676	0	0	8191	554643	0	0
2024-09-23 21:43:47			0	38134	0	0	0	23532	22120	159388	26819	1059003	46440	108675	0	0	8192	553895	0	0
2024-09-23 21:44:47			0	38129	0	0	0	23542	22120	159328	27111	1058976	46461	108679	0	0	8191	554092	0	0
2024-09-23 21:45:47			0	38139	0	0	0	23540	22130	159312	27128	1059038	46452	108678	0	0	8192	553667	0	0
2024-09-23 21:46:47			0	38134	0	0	0	23535	22120	159280	27282	1059020	46439	108676	0	0	8192	553895	0	0
2024-09-23 21:47:47			0	38124	0	0	0	23537	22120	159408	27239	1059003	46451	108677	0	0	8191	554289	0	0
2024-09-23 21:48:47			0	38125	0	0	0	23537	22120	159424	26752	1058976	46461	108677	0	0	8191	554249	0	0
2024-09-23 21:49:47			0	38124	0	0	0	23524	22120	159428	27218	1059029	46440	108672	0	0	8191	554289	0	0
2024-09-23 21:50:47			0	38146	0	0	0	23535	22130	159344	27135	1059012	46452	108676	0	0	8193	553392	0	0
2024-09-23 21:51:47			0	38126	0	0	0	23532	22120	159348	27019	1059003	46440	108675	0	0	8191	554210	0	0
2024-09-23 21:52:47			0	38099	0	0	0	23540	22120	159332	27251	1058967	46450	108678	0	0	8190	555274	0	0
2024-09-23 21:53:47			0	38124	0	0	0	23540	22120	159424	27268	1059047	46439	108678	0	0	8191	554289	0	0
2024-09-23 21:54:47			0	38115	0	0	0	23542	22120	159412	27055	1058994	46439	108679	0	0	8191	554643	0	0
2024-09-23 21:55:47			0	38119	0	0	0	23537	22130	159464	26996	1059038	46452	108677	0	0	8191	554455	0	0
2024-09-23 21:56:47			0	38114	0	0	0	23540	22120	159468	27109	1059047	46471	108678	0	0	8191	554683	0	0
2024-09-23 21:57:47			0	38113	0	0	0	23535	22120	159404	27218	1059029	46451	108676	0	0	8191	554722	0	0
2024-09-23 21:58:47			0	38118	0	0	0	23542	22110	159432	27137	1059065	46449	108679	0	0	8191	554556	0	0
2024-09-23 21:59:47			0	38113	0	0	0	23537	22110	159404	27192	1059038	46470	108677	0	0	8191	554753	0	0
2024-09-23 22:00:47			0	38118	0	0	0	23532	22120	159464	27300	1059047	46460	108675	0	0	8191	554525	0	0
2024-09-23 22:01:47			0	38099	0	0	0	23537	22120	159500	27157	1059056	46451	108677	0	0	8190	555274	0	0
2024-09-23 22:02:47			0	38114	0	0	0	23532	22110	159412	27377	1058985	46438	108675	0	0	8191	554714	0	0
2024-09-23 22:03:47			0	38128	0	0	0	23527	22120	159532	27270	1059029	46440	108673	0	0	8192	554131	0	0
2024-09-23 22:04:47			0	38130	0	0	0	23535	22120	159520	27140	1059029	46451	108676	0	0	8192	554053	0	0
2024-09-23 22:05:47			0	38130	0	0	0	23529	22120	159424	27412	1058914	46450	108674	0	0	8192	554053	0	0
2024-09-23 22:06:47			0	38115	0	0	0	23529	22120	159424	27260	1059047	46460	108674	0	0	8191	554643	0	0
2024-09-23 22:07:47			0	38107	0	0	0	23540	22120	159436	27131	1059029	46451	108678	0	0	8190	554959	0	0
2024-09-23 22:08:47			0	38105	0	0	0	23532	22110	159420	27227	1058985	46438	108675	0	0	8190	555068	0	0
2024-09-23 22:09:47			0	38092	0	0	0	23540	22120	159432	27268	1059020	46450	108678	0	0	8189	555550	0	0
2024-09-23 22:10:47			0	38097	0	0	0	23542	22110	159500	27270	1058958	46438	108679	0	0	8190	555384	0	0
2024-09-23 22:11:47			0	38096	0	0	0	23537	22120	159520	27348	1059056	46461	108677	0	0	8190	555392	0	0
2024-09-23 22:12:47			0	38101	0	0	0	23537	22120	159432	27213	1059003	46461	108677	0	0	8190	555195	0	0
2024-09-23 22:13:47			0	38112	0	0	0	23532	22120	159412	27478	1059083	46461	108675	0	0	8191	554762	0	0
2024-09-23 22:14:47			0	38105	0	0	0	23535	22110	159444	27265	1059011	46459	108676	0	0	8190	555068	0	0
2024-09-23 22:15:47			0	38097	0	0	0	23532	22110	159480	27564	1058985	46459	108675	0	0	8190	555384	0	0
2024-09-23 22:16:47			0	38108	0	0	0	23532	22110	159420	27255	1058922	46449	108675	0	0	8190	554950	0	0
2024-09-23 22:17:47			0	38100	0	0	0	23532	22110	159452	27417	1058958	46438	108675	0	0	8190	555265	0	0
2024-09-23 22:18:47			0	38099	0	0	0	23527	22120	159480	27157	1059020	46450	108673	0	0	8190	555274	0	0
2024-09-23 22:19:47			0	38089	0	0	0	23535	22120	159484	27235	1058967	46439	108676	0	0	8189	555668	0	0
2024-09-23 22:20:47			0	38083	0	0	0	23532	22110	159480	27689	1058958	46449	108675	0	0	8189	555936	0	0
2024-09-23 22:21:47			0	38085	0	0	0	23527	22100	159524	27131	1058958	46437	108673	0	0	8189	555888	0	0
2024-09-23 22:22:47			0	38092	0	0	0	23537	22100	159448	27268	1058967	46459	108677	0	0	8189	555612	0	0
2024-09-23 22:23:47			0	38082	0	0	0	23529	22110	159520	27343	1058976	46459	108674	0	0	8189	555975	0	0
2024-09-23 22:24:47			0	38082	0	0	0	23535	22110	159520	27459	1058949	46459	108676	0	0	8189	555975	0	0
2024-09-23 22:25:47			0	38068	0	0	0	23527	22120	159580	27592	1058994	46450	108673	0	0	8188	556497	0	0
2024-09-23 22:26:47			0	38067	0	0	0	23529	22110	159544	27576	1058976	46459	108674	0	0	8188	556567	0	0
2024-09-23 22:27:47			0	38058	0	0	0	23527	22120	159652	27512	1058994	46450	108673	0	0	8188	556892	0	0
2024-09-23 22:28:47			0	38069	0	0	0	23516	22120	159616	27620	1059003	46461	108669	0	0	8188	556457	0	0
2024-09-23 22:29:47			0	38066	0	0	0	23524	22120	159660	27294	1058914	46450	108672	0	0	8188	556576	0	0
2024-09-23 22:30:47			0	38049	0	0	0	23535	22100	159644	27409	1058940	46459	108676	0	0	8187	557310	0	0
2024-09-23 22:31:47			0	38053	0	0	0	23527	22100	159648	27410	1058985	46448	108673	0	0	8187	557151	0	0
2024-09-23 22:32:47			0	38050	0	0	0	23516	22110	159704	27182	1058949	46449	108669	0	0	8187	557239	0	0
2024-09-23 22:33:47			0	38044	0	0	0	23519	22120	159632	27447	1059047	46450	108670	0	0	8187	557445	0	0
2024-09-23 22:34:47			0	38043	0	0	0	23524	22110	159712	27422	1058949	46438	108672	0	0	8187	557516	0	0
2024-09-23 22:35:47			0	38019	0	0	0	23524	22110	159735	27173	1058976	46449	108672	0	0	8185	558465	0	0
2024-09-23 22:36:47			0	38031	0	0	0	23522	22110	159704	27462	1058985	46449	108671	0	0	8186	557990	0	0
2024-09-23 22:37:47			0	38028	0	0	0	23519	22110	159744	27034	1058958	46449	108670	0	0	8186	558109	0	0
2024-09-23 22:38:47			0	38035	0	0	0	23511	22110	159768	27554	1058958	46449	108667	0	0	8186	557832	0	0
2024-09-23 22:39:47			0	38032	0	0	0	23516	22090	159720	27398	1058869	46447	108669	0	0	8186	558013	0	0
2024-09-23 22:40:47			0	38024	0	0	0	23527	22110	159795	27358	1058949	46449	108673	0	0	8186	558267	0	0
2024-09-23 22:41:47			0	38023	0	0	0	23522	22110	159707	27369	1058958	46459	108671	0	0	8186	558307	0	0
2024-09-23 22:42:47			0	38033	0	0	0	23524	22110	159808	27530	1058931	46449	108672	0	0	8186	557911	0	0
2024-09-23 22:43:47			0	38009	0	0	0	23524	22110	159859	27315	1058958	46449	108672	0	0	8185	558861	0	0
2024-09-23 22:44:47			0	38023	0	0	0	23516	22110	159871	27488	1059002	46438	108669	0	0	8186	558307	0	0
2024-09-23 22:45:47			0	38002	0	0	0	23519	22090	160035	27241	1058922	46458	108670	0	0	8184	559200	0	0
2024-09-23 22:46:47			0	38024	0	0	0	23516	22100	159991	27227	1058905	46437	108669	0	0	8186	558298	0	0
2024-09-23 22:47:47			0	37992	0	0	0	23516	22100	160067	27443	1058878	46458	108669	0	0	8184	559565	0	0
2024-09-23 22:48:47			0	38009	0	0	0	23527	22100	159995	27440	1058985	46458	108673	0	0	8185	558892	0	0
2024-09-23 22:49:47			0	37987	0	0	0	23527	22100	160019	27306	1058931	46458	108673	0	0	8183	559763	0	0
2024-09-23 22:50:47			0	37992	0	0	0	23514	22110	160151	27391	1058949	46449	108668	0	0	8184	559534	0	0
2024-09-23 22:51:47			0	37985	0	0	0	23527	22110	160127	27222	1059011	46449	108673	0	0	8183	559811	0	0
2024-09-23 22:52:47			0	37986	0	0	0	23522	22110	160067	27135	1058922	46449	108671	0	0	8183	559771	0	0
2024-09-23 22:53:47			0	37956	0	0	0	23519	22090	160111	27322	1058976	46447	108670	0	0	8182	561024	0	0
2024-09-23 22:54:47			0	37978	0	0	0	23511	22090	160087	27611	1058922	46468	108667	0	0	8183	560151	0	0
2024-09-23 22:55:47			0	37953	0	0	0	23516	22100	160171	27270	1058931	46437	108669	0	0	8182	561111	0	0
2024-09-23 22:56:47			0	37961	0	0	0	23519	22110	160127	27144	1058896	46449	108670	0	0	8182	560763	0	0
2024-09-23 22:57:47			0	37973	0	0	0	23514	22110	160167	27222	1058976	46449	108668	0	0	8183	560287	0	0
2024-09-23 22:58:47			0	37975	0	0	0	23514	22110	160171	27410	1059011	46449	108668	0	0	8183	560208	0	0
2024-09-23 22:59:47			0	37953	0	0	0	23514	22110	160199	27384	1058949	46459	108668	0	0	8182	561080	0	0
2024-09-23 23:00:47			0	37961	0	0	0	23503	22110	160135	27192	1058922	46449	108664	0	0	8182	560763	0	0
2024-09-23 23:01:47			0	37962	0	0	0	23514	22090	160187	27583	1058949	46447	108668	0	0	8182	560786	0	0
2024-09-23 23:02:47			0	37955	0	0	0	23511	22100	160147	27208	1058940	46438	108667	0	0	8182	561032	0	0
2024-09-23 23:03:47			0	37928	0	0	0	23516	22090	160151	27246	1058896	46458	108669	0	0	8180	562135	0	0
2024-09-23 23:04:47			0	37957	0	0	0	23514	22090	160243	27203	1058976	46447	108668	0	0	8182	560984	0	0
2024-09-23 23:05:47			0	37950	0	0	0	23514	22100	160227	27246	1058878	46458	108668	0	0	8181	561230	0	0
2024-09-23 23:06:47			0	37942	0	0	0	23519	22100	160275	27168	1058905	46448	108670	0	0	8181	561548	0	0
2024-09-23 23:07:47			0	37949	0	0	0	23511	22090	160235	27223	1058922	46458	108667	0	0	8181	561301	0	0
2024-09-23 23:08:47			0	37951	0	0	0	23516	22100	160295	27249	1058931	46448	108669	0	0	8181	561191	0	0
2024-09-23 23:09:47			0	37953	0	0	0	23509	22090	160299	27488	1058949	46447	108666	0	0	8182	561143	0	0
2024-09-23 23:10:47			0	37938	0	0	0	23514	22090	160327	27334	1058922	46458	108668	0	0	8181	561738	0	0
2024-09-23 23:11:47			0	37942	0	0	0	23514	22100	160215	27448	1058958	46448	108668	0	0	8181	561548	0	0
2024-09-23 23:12:47			0	37932	0	0	0	23511	22090	160279	27107	1058949	46447	108667	0	0	8180	561977	0	0
2024-09-23 23:13:47			0	37940	0	0	0	23509	22100	160299	27376	1058878	46448	108666	0	0	8181	561628	0	0
2024-09-23 23:14:47			0	37909	0	0	0	23514	22090	160271	27199	1058913	46447	108668	0	0	8179	562891	0	0
2024-09-23 23:15:47			0	37911	0	0	0	23511	22100	160243	27263	1058851	46437	108667	0	0	8179	562780	0	0
2024-09-23 23:16:47			0	37921	0	0	0	23503	22090	160315	27410	1058913	46447	108664	0	0	8180	562414	0	0
2024-09-23 23:17:47			0	37934	0	0	0	23514	22090	160363	27208	1058896	46436	108668	0	0	8180	561897	0	0
2024-09-23 23:18:47			0	37899	0	0	0	23516	22090	160407	27166	1058860	46436	108669	0	0	8178	563289	0	0
2024-09-23 23:19:47			0	37913	0	0	0	23503	22090	160395	27029	1058922	46458	108664	0	0	8179	562732	0	0
2024-09-23 23:20:47			0	37897	0	0	0	23514	22090	160367	26965	1058940	46447	108668	0	0	8178	563368	0	0
2024-09-23 23:21:47			0	37894	0	0	0	23503	22090	160307	27272	1058887	46468	108664	0	0	8178	563488	0	0
2024-09-23 23:22:47			0	37896	0	0	0	23506	22100	160343	27187	1058958	46448	108665	0	0	8178	563377	0	0
2024-09-23 23:23:47			0	37904	0	0	0	23503	22090	160363	27230	1058860	46458	108664	0	0	8179	563090	0	0
2024-09-23 23:24:47			0	37899	0	0	0	23511	22090	160491	26975	1058896	46480	108667	0	0	8178	563289	0	0
2024-09-23 23:25:47			0	37888	0	0	0	23509	22100	160427	26835	1058905	46448	108666	0	0	8178	563695	0	0
2024-09-23 23:26:47			0	37893	0	0	0	23506	22080	160455	27095	1058851	46458	108665	0	0	8178	563559	0	0
2024-09-23 23:27:47			0	37869	0	0	0	23498	22080	160451	27391	1058904	46458	108662	0	0	8177	564515	0	0
2024-09-23 23:28:47			0	37877	0	0	0	23506	22090	160459	27102	1058860	46447	108665	0	0	8177	564164	0	0
2024-09-23 23:29:47			0	37862	0	0	0	23511	22080	160531	27268	1058904	46447	108667	0	0	8176	564793	0	0
2024-09-23 23:30:47			0	37858	0	0	0	23506	22090	160691	27300	1058913	46447	108665	0	0	8176	564921	0	0
2024-09-23 23:31:47			0	37857	0	0	0	23514	22090	160615	27095	1058913	46436	108668	0	0	8176	564961	0	0
2024-09-23 23:32:47			0	37853	0	0	0	23514	22100	160679	26908	1058878	46437	108668	0	0	8176	565089	0	0
2024-09-23 23:33:47			0	37846	0	0	0	23511	22080	160595	27149	1058904	46447	108667	0	0	8175	565431	0	0
2024-09-23 23:34:47			0	37837	0	0	0	23511	22080	160703	27237	1058904	46458	108667	0	0	8175	565790	0	0
2024-09-23 23:35:47			0	37842	0	0	0	23516	22080	160619	27199	1058842	46457	108669	0	0	8175	565591	0	0
2024-09-23 23:36:47			0	37849	0	0	0	23516	22090	160615	27265	1058922	46447	108669	0	0	8175	565280	0	0
2024-09-23 23:37:47			0	37849	0	0	0	23514	22080	160679	27336	1058958	46447	108668	0	0	8175	565312	0	0
2024-09-23 23:38:47			0	37841	0	0	0	23511	22100	160671	27464	1058958	46448	108667	0	0	8175	565568	0	0
2024-09-23 23:39:47			0	37841	0	0	0	23506	22090	160687	27350	1058922	46458	108665	0	0	8175	565599	0	0
2024-09-23 23:40:47			0	37833	0	0	0	23514	22080	160651	27086	1058904	46447	108668	0	0	8174	565950	0	0
2024-09-23 23:41:47			0	37831	0	0	0	23503	22090	160703	26972	1058833	46468	108664	0	0	8175	565998	0	0
2024-09-23 23:42:47			0	37818	0	0	0	23506	22090	160695	26743	1058922	46447	108665	0	0	8174	566517	0	0
2024-09-23 23:43:47			0	37830	0	0	0	23509	22080	160659	27256	1058878	46447	108666	0	0	8174	566070	0	0
2024-09-23 23:44:47			0	37820	0	0	0	23524	22090	160783	27258	1058869	46436	108672	0	0	8174	566437	0	0
2024-09-23 23:45:47			0	37831	0	0	0	23522	22080	160655	27267	1058958	46458	108671	0	0	8174	566030	0	0
2024-09-23 23:46:47			0	37841	0	0	0	23535	22090	160587	27029	1058887	46447	108676	0	0	8175	565599	0	0
2024-09-23 23:47:47			0	37862	0	0	0	23527	22090	160707	27213	1058949	46436	108673	0	0	8176	564762	0	0
2024-09-23 23:48:47			0	37841	0	0	0	23527	22090	160743	27331	1058967	46458	108673	0	0	8175	565599	0	0
2024-09-23 23:49:47			0	37858	0	0	0	23529	22100	160643	27152	1059020	46459	108674	0	0	8176	564890	0	0
2024-09-23 23:50:47			0	37867	0	0	0	23532	22100	160575	27209	1058958	46458	108675	0	0	8176	564531	0	0
2024-09-23 23:51:47			0	37849	0	0	0	23537	22100	160627	27291	1058958	46458	108677	0	0	8175	565249	0	0
2024-09-23 23:52:47			0	37838	0	0	0	23516	22110	160643	27043	1059002	46459	108669	0	0	8175	565656	0	0
2024-09-23 23:53:47			0	37854	0	0	0	23529	22100	160603	27112	1058931	46458	108674	0	0	8175	565049	0	0
2024-09-23 23:54:47			0	37838	0	0	0	23522	22100	160567	27109	1058940	46449	108671	0	0	8175	565687	0	0
2024-09-23 23:55:47			0	37847	0	0	0	23522	22100	160583	27357	1058931	46448	108671	0	0	8175	565328	0	0
2024-09-23 23:56:47			0	37847	0	0	0	23535	22110	160631	27395	1058976	46438	108676	0	0	8175	565297	0	0
2024-09-23 23:57:47			0	37846	0	0	0	23535	22090	160735	27310	1058976	46447	108676	0	0	8175	565400	0	0
2024-09-23 23:58:47			0	37834	0	0	0	23527	22110	160719	27239	1058985	46459	108673	0	0	8174	565815	0	0
2024-09-23 23:59:47			0	37838	0	0	0	23511	22090	160631	27072	1058922	46458	108667	0	0	8175	565719	0	0
2024-09-24 00:00:47			0	37831	0	0	0	23514	22100	160551	26864	1058931	46437	108668	0	0	8174	565967	0	0
2024-09-24 00:01:47			0	37836	0	0	0	23511	22110	160691	27105	1058922	46449	108667	0	0	8175	565736	0	0
2024-09-24 00:02:47			0	37826	0	0	0	23514	22090	160703	27293	1058949	46436	108668	0	0	8174	566198	0	0
2024-09-24 00:03:47			0	37842	0	0	0	23519	22090	160543	26993	1058976	46447	108670	0	0	8175	565559	0	0
2024-09-24 00:04:47			0	37844	0	0	0	23509	22090	160627	27265	1058949	46447	108666	0	0	8175	565479	0	0
2024-09-24 00:05:47			0	37823	0	0	0	23527	22090	160543	27199	1058896	46447	108673	0	0	8174	566317	0	0
2024-09-24 00:06:47			0	37848	0	0	0	23516	22090	160531	27142	1058922	46447	108669	0	0	8175	565320	0	0
2024-09-24 00:07:47			0	37847	0	0	0	23522	22080	160547	27213	1058878	46447	108671	0	0	8175	565391	0	0
2024-09-24 00:08:47			0	37836	0	0	0	23519	22100	160571	27017	1058905	46448	108670	0	0	8175	565767	0	0
2024-09-24 00:09:47			0	37852	0	0	0	23522	22090	160723	27196	1058896	46447	108671	0	0	8175	565160	0	0
2024-09-24 00:10:47			0	37841	0	0	0	23509	22100	160607	27313	1058967	46449	108666	0	0	8175	565568	0	0
2024-09-24 00:11:47			0	37808	0	0	0	23514	22100	160535	27150	1058985	46458	108668	0	0	8173	566885	0	0
2024-09-24 00:12:47			0	37822	0	0	0	23524	22100	160619	26994	1058940	46459	108672	0	0	8174	566326	0	0
2024-09-24 00:13:47			0	37846	0	0	0	23527	22090	160515	27272	1058922	46468	108673	0	0	8175	565400	0	0
2024-09-24 00:14:47			0	37860	0	0	0	23506	22090	160491	27029	1058887	46468	108665	0	0	8176	564842	0	0
2024-09-24 00:15:47			0	37848	0	0	0	23516	22110	160519	27164	1058949	46459	108669	0	0	8175	565257	0	0
2024-09-24 00:16:47			0	37845	0	0	0	23516	22090	160495	27234	1058922	46436	108669	0	0	8175	565440	0	0
2024-09-24 00:17:47			0	37839	0	0	0	23522	22090	160727	27341	1058913	46447	108671	0	0	8175	565679	0	0
2024-09-24 00:18:47			0	37858	0	0	0	23532	22100	160587	27431	1058967	46459	108675	0	0	8176	564890	0	0
2024-09-24 00:19:47			0	37832	0	0	0	23524	22090	160519	27301	1058913	46436	108672	0	0	8174	565958	0	0
2024-09-24 00:20:47			0	37844	0	0	0	23511	22090	160631	27294	1058949	46447	108667	0	0	8175	565479	0	0
2024-09-24 00:21:47			0	37835	0	0	0	23509	22110	160731	27429	1058976	46449	108666	0	0	8175	565775	0	0
2024-09-24 00:22:47			0	37834	0	0	0	23509	22110	160607	27074	1058949	46449	108666	0	0	8175	565815	0	0
2024-09-24 00:23:47			0	37817	0	0	0	23506	22100	160547	27360	1058940	46426	108665	0	0	8174	566525	0	0
2024-09-24 00:24:47			0	37822	0	0	0	23511	22090	160695	27045	1058967	46447	108667	0	0	8174	566357	0	0
2024-09-24 00:25:47			0	37799	0	0	0	23506	22090	160683	27364	1058869	46447	108665	0	0	8173	567276	0	0
2024-09-24 00:26:47			0	37798	0	0	0	23514	22100	160631	27159	1058958	46448	108668	0	0	8172	567284	0	0
2024-09-24 00:27:47			0	37799	0	0	0	23511	22100	160655	27053	1059011	46448	108667	0	0	8173	567245	0	0
2024-09-24 00:28:47			0	37806	0	0	0	23506	22090	160631	27249	1058833	46447	108665	0	0	8173	566996	0	0
2024-09-24 00:29:47			0	37817	0	0	0	23501	22090	160711	27235	1058896	46447	108663	0	0	8174	566557	0	0
2024-09-24 00:30:47			0	37793	0	0	0	23511	22090	160747	27140	1058860	46458	108667	0	0	8172	567516	0	0
2024-09-24 00:31:47			0	37809	0	0	0	23519	22100	160683	27173	1058931	46458	108670	0	0	8173	566845	0	0
2024-09-24 00:32:47			0	37819	0	0	0	23522	22080	160631	27140	1058958	46468	108671	0	0	8173	566509	0	0
2024-09-24 00:33:47			0	37836	0	0	0	23524	22100	160619	27300	1058931	46448	108672	0	0	8175	565767	0	0
2024-09-24 00:34:47			0	37831	0	0	0	23516	22100	160599	27263	1058913	46449	108669	0	0	8174	565967	0	0
2024-09-24 00:35:47			0	37820	0	0	0	23516	22090	160555	27251	1058896	46436	108669	0	0	8174	566437	0	0
2024-09-24 00:36:47			0	37819	0	0	0	23516	22090	160551	27267	1058922	46458	108669	0	0	8174	566477	0	0
2024-09-24 00:37:47			0	37826	0	0	0	23519	22100	160623	27093	1058905	46448	108670	0	0	8174	566166	0	0
2024-09-24 00:38:47			0	37828	0	0	0	23516	22100	160611	27079	1058878	46448	108669	0	0	8174	566086	0	0
2024-09-24 00:39:47			0	37831	0	0	0	23519	22090	160667	27133	1058913	46447	108670	0	0	8174	565998	0	0
2024-09-24 00:40:47			0	37819	0	0	0	23509	22080	160715	27332	1058931	46447	108666	0	0	8174	566509	0	0
2024-09-24 00:41:47			0	37810	0	0	0	23516	22080	160831	27211	1058878	46447	108669	0	0	8173	566868	0	0
2024-09-24 00:42:47			0	37777	0	0	0	23522	22100	160851	27182	1058958	46458	108671	0	0	8171	568124	0	0
2024-09-24 00:43:47			0	37796	0	0	0	23535	22090	160787	27668	1058896	46447	108676	0	0	8172	567396	0	0
2024-09-24 00:44:47			0	37796	0	0	0	23542	22090	160843	27431	1058922	46447	108679	0	0	8172	567396	0	0
2024-09-24 00:45:47			0	37791	0	0	0	23550	22100	160743	27187	1058931	46448	108682	0	0	8171	567564	0	0
2024-09-24 00:46:47			0	37803	0	0	0	23540	22090	160691	27339	1058976	46458	108678	0	0	8172	567116	0	0
2024-09-24 00:47:47			0	37806	0	0	0	23548	22100	160675	27682	1059047	46449	108681	0	0	8172	566965	0	0
2024-09-24 00:48:47			0	37827	0	0	0	23535	22110	160739	27291	1059029	46459	108676	0	0	8174	566095	0	0
2024-09-24 00:49:47			0	37830	0	0	0	23537	22100	160707	27352	1059011	46458	108677	0	0	8174	566006	0	0
2024-09-24 00:50:47			0	37808	0	0	0	23535	22110	160659	27537	1059038	46449	108676	0	0	8173	566853	0	0
2024-09-24 00:51:47			0	37820	0	0	0	23532	22120	160615	27556	1059020	46460	108675	0	0	8174	566343	0	0
2024-09-24 00:52:47			0	37808	0	0	0	23535	22100	160819	27234	1058994	46449	108676	0	0	8173	566885	0	0
2024-09-24 00:53:47			0	37795	0	0	0	23540	22100	160795	27135	1058994	46470	108678	0	0	8172	567404	0	0
2024-09-24 00:54:47			0	37827	0	0	0	23535	22110	160643	27488	1059065	46449	108676	0	0	8174	566095	0	0
2024-09-24 00:55:47			0	37815	0	0	0	23527	22120	160739	27396	1059047	46450	108673	0	0	8173	566542	0	0
2024-09-24 00:56:47			0	37822	0	0	0	23545	22120	160767	27474	1059029	46440	108680	0	0	8173	566263	0	0
2024-09-24 00:57:47			0	37827	0	0	0	23532	22120	160703	27398	1059047	46450	108675	0	0	8174	566063	0	0
2024-09-24 00:58:47			0	37821	0	0	0	23527	22100	160683	27412	1059011	46448	108673	0	0	8174	566366	0	0
2024-09-24 00:59:47			0	37822	0	0	0	23524	22110	160795	27336	1059002	46449	108672	0	0	8174	566294	0	0
2024-09-24 01:00:47			0	37810	0	0	0	23527	22090	160819	27452	1059002	46447	108673	0	0	8173	566837	0	0
2024-09-24 01:01:47			0	37793	0	0	0	23542	22090	160739	27298	1058949	46458	108679	0	0	8172	567516	0	0
2024-09-24 01:02:47			0	37808	0	0	0	23537	22110	160695	27232	1058976	46459	108677	0	0	8173	566853	0	0
2024-09-24 01:03:47			0	37814	0	0	0	23542	22110	160715	27144	1059056	46438	108679	0	0	8173	566614	0	0
2024-09-24 01:04:47			0	37827	0	0	0	23558	22110	160843	27462	1059065	46459	108685	0	0	8173	566095	0	0
2024-09-24 01:05:47			0	37838	0	0	0	23594	22110	160659	27022	1059065	46438	108699	0	0	8173	565656	0	0
2024-09-24 01:06:47			0	37853	0	0	0	23581	22120	160459	27043	1059154	46439	108694	0	0	8175	565026	0	0
2024-09-24 01:07:47			0	37856	0	0	0	23594	22120	160531	27173	1059189	46461	108699	0	0	8175	564907	0	0
2024-09-24 01:08:47			0	37884	0	0	0	23584	22120	160431	27131	1059136	46472	108695	0	0	8176	563791	0	0
2024-09-24 01:09:47			0	37890	0	0	0	23581	22130	160475	27244	1059198	46462	108694	0	0	8177	563521	0	0
2024-09-24 01:10:47			0	37894	0	0	0	23594	22120	160359	27095	1059243	46451	108699	0	0	8177	563393	0	0
2024-09-24 01:11:47			0	37886	0	0	0	23615	22140	160327	27376	1059279	46486	108707	0	0	8176	563649	0	0
2024-09-24 01:12:47			0	37918	0	0	0	23615	22150	160315	27218	1059234	46464	108707	0	0	8178	562345	0	0
2024-09-24 01:13:47			0	37915	0	0	0	23612	22150	160219	27459	1059207	46475	108706	0	0	8178	562464	0	0
2024-09-24 01:14:47			0	37953	0	0	0	23618	22160	160223	26972	1059341	46476	108708	0	0	8180	560924	0	0
2024-09-24 01:15:47			0	37944	0	0	0	23612	22150	160231	27644	1059243	46464	108706	0	0	8180	561312	0	0
2024-09-24 01:16:47			0	37930	0	0	0	23612	22160	160187	27466	1059332	46487	108706	0	0	8179	561837	0	0
2024-09-24 01:17:47			0	37923	0	0	0	23602	22160	160183	27454	1059332	46475	108702	0	0	8179	562115	0	0
2024-09-24 01:18:47			0	37921	0	0	0	23599	22160	160143	27409	1059279	46464	108701	0	0	8179	562194	0	0
2024-09-24 01:19:47			0	37945	0	0	0	23589	22160	160163	27246	1059314	46488	108697	0	0	8180	561241	0	0
2024-09-24 01:20:47			0	37940	0	0	0	23597	22150	160135	27322	1059288	46464	108700	0	0	8180	561471	0	0
2024-09-24 01:21:47			0	37953	0	0	0	23610	22160	160087	27095	1059288	46465	108705	0	0	8180	560924	0	0
2024-09-24 01:22:47			0	37934	0	0	0	23597	22160	160139	27279	1059385	46475	108700	0	0	8179	561678	0	0
2024-09-24 01:23:47			0	37955	0	0	0	23589	22160	159995	27043	1059288	46465	108697	0	0	8181	560844	0	0
2024-09-24 01:24:47			0	37928	0	0	0	23586	22170	160067	27150	1059323	46466	108696	0	0	8179	561885	0	0
2024-09-24 01:25:47			0	37927	0	0	0	23597	22160	160035	27137	1059261	46444	108700	0	0	8179	561956	0	0
2024-09-24 01:26:47			0	37931	0	0	0	23602	22160	160107	27351	1059252	46454	108702	0	0	8179	561797	0	0
2024-09-24 01:27:47			0	37940	0	0	0	23589	22160	160079	27218	1059305	46454	108697	0	0	8180	561440	0	0
2024-09-24 01:28:47			0	37923	0	0	0	23628	22170	160083	27345	1059430	46466	108712	0	0	8178	562083	0	0
2024-09-24 01:29:47			0	37934	0	0	0	23631	22170	160039	27109	1059350	46466	108713	0	0	8179	561646	0	0
2024-09-24 01:30:47			0	37952	0	0	0	23610	22170	160015	27218	1059386	46478	108705	0	0	8180	560932	0	0
2024-09-24 01:31:47			0	37955	0	0	0	23602	22170	159967	27402	1059332	46466	108702	0	0	8180	560813	0	0
2024-09-24 01:32:47			0	37949	0	0	0	23597	22180	159959	27145	1059368	46478	108700	0	0	8180	561020	0	0
2024-09-24 01:33:47			0	37940	0	0	0	23586	22180	160063	27301	1059315	46456	108696	0	0	8180	561377	0	0
2024-09-24 01:34:47			0	37925	0	0	0	23571	22170	160115	27412	1059252	46456	108690	0	0	8179	562004	0	0
2024-09-24 01:35:47			0	37897	0	0	0	23553	22170	160151	27119	1059243	46456	108683	0	0	8178	563117	0	0
2024-09-24 01:36:47			0	37883	0	0	0	23571	22170	160031	27239	1059297	46456	108690	0	0	8177	563674	0	0
2024-09-24 01:37:47			0	37890	0	0	0	23586	22160	160163	27481	1059279	46454	108696	0	0	8177	563427	0	0
2024-09-24 01:38:47			0	37896	0	0	0	23597	22160	160167	27270	1059261	46455	108700	0	0	8177	563188	0	0
2024-09-24 01:39:47			0	37915	0	0	0	23605	22160	160155	27171	1059288	46476	108703	0	0	8178	562432	0	0
2024-09-24 01:40:47			0	37922	0	0	0	23612	22160	160131	27163	1059288	46476	108706	0	0	8178	562154	0	0
2024-09-24 01:41:47			0	37930	0	0	0	23610	22160	160143	27294	1059314	46465	108705	0	0	8179	561837	0	0
2024-09-24 01:42:47			0	37921	0	0	0	23605	22170	160135	27409	1059306	46466	108703	0	0	8178	562163	0	0
2024-09-24 01:43:47			0	37920	0	0	0	23610	22180	160183	27346	1059341	46466	108705	0	0	8178	562171	0	0
2024-09-24 01:44:47			0	37934	0	0	0	23615	22170	160103	26977	1059386	46466	108707	0	0	8179	561646	0	0
2024-09-24 01:45:47			0	37939	0	0	0	23638	22180	160039	27177	1059341	46456	108716	0	0	8179	561417	0	0
2024-09-24 01:46:47			0	37962	0	0	0	23623	22170	160059	27500	1059377	46466	108710	0	0	8181	560535	0	0
2024-09-24 01:47:47			0	37946	0	0	0	23623	22180	160003	27391	1059457	46479	108710	0	0	8180	561139	0	0
2024-09-24 01:48:47			0	37936	0	0	0	23620	22180	159967	27599	1059377	46467	108709	0	0	8179	561536	0	0
2024-09-24 01:49:47			0	37954	0	0	0	23607	22180	159959	27573	1059368	46466	108704	0	0	8180	560821	0	0
2024-09-24 01:50:47			0	37939	0	0	0	23607	22190	159995	27402	1059386	46458	108704	0	0	8180	561385	0	0
2024-09-24 01:51:47			0	37946	0	0	0	23612	22190	160111	27428	1059421	46458	108706	0	0	8180	561107	0	0
2024-09-24 01:52:47			0	37958	0	0	0	23623	22190	160051	27183	1059413	46468	108710	0	0	8180	560631	0	0
2024-09-24 01:53:47			0	37955	0	0	0	23628	22190	160039	27462	1059413	46491	108712	0	0	8180	560750	0	0
2024-09-24 01:54:47			0	37967	0	0	0	23618	22190	159955	27481	1059475	46458	108708	0	0	8181	560275	0	0
2024-09-24 01:55:47			0	37959	0	0	0	23623	22190	159943	27208	1059448	46469	108710	0	0	8180	560592	0	0
2024-09-24 01:56:47			0	37971	0	0	0	23618	22190	159943	27170	1059448	46492	108708	0	0	8181	560116	0	0
2024-09-24 01:57:47			0	37942	0	0	0	23615	22190	160011	27182	1059439	46468	108707	0	0	8180	561266	0	0
2024-09-24 01:58:47			0	37957	0	0	0	23605	22180	160019	27293	1059421	46466	108703	0	0	8181	560702	0	0
2024-09-24 01:59:47			0	37950	0	0	0	23605	22190	160019	27710	1059359	46447	108703	0	0	8180	560949	0	0
2024-09-24 02:00:47			0	37934	0	0	0	23602	22190	160063	27173	1059386	46480	108702	0	0	8179	561584	0	0
2024-09-24 02:01:47			0	37928	0	0	0	23612	22190	160035	27015	1059413	46480	108706	0	0	8179	561822	0	0
2024-09-24 02:02:47			0	37935	0	0	0	23605	22180	160015	27329	1059350	46446	108703	0	0	8179	561575	0	0
2024-09-24 02:03:47			0	37928	0	0	0	23599	22180	160023	27097	1059404	46457	108701	0	0	8179	561853	0	0
2024-09-24 02:04:47			0	37935	0	0	0	23602	22190	160027	27083	1059413	46468	108702	0	0	8179	561544	0	0
2024-09-24 02:05:47			0	37913	0	0	0	23597	22180	160111	27275	1059341	46456	108700	0	0	8178	562449	0	0
2024-09-24 02:06:47			0	37908	0	0	0	23599	22190	160163	27072	1059386	46458	108701	0	0	8178	562617	0	0
2024-09-24 02:07:47			0	37915	0	0	0	23607	22190	160243	27116	1059413	46458	108704	0	0	8178	562338	0	0
2024-09-24 02:08:47			0	37917	0	0	0	23618	22180	160183	27253	1059341	46466	108708	0	0	8178	562290	0	0
2024-09-24 02:09:47			0	37901	0	0	0	23605	22190	160227	27263	1059332	46458	108703	0	0	8177	562895	0	0
2024-09-24 02:10:47			0	37887	0	0	0	23610	22190	160279	27114	1059359	46468	108705	0	0	8176	563452	0	0
2024-09-24 02:11:47			0	37930	0	0	0	23612	22180	160067	27251	1059404	46457	108706	0	0	8179	561774	0	0
2024-09-24 02:12:47			0	37905	0	0	0	23618	22180	160071	27067	1059448	46478	108708	0	0	8177	562767	0	0
2024-09-24 02:13:47			0	37928	0	0	0	23615	22180	160111	27187	1059395	46466	108707	0	0	8179	561853	0	0
2024-09-24 02:14:47			0	37916	0	0	0	23612	22190	160015	27074	1059421	46469	108706	0	0	8178	562299	0	0
2024-09-24 02:15:47			0	37892	0	0	0	23610	22190	160103	27079	1059421	46458	108705	0	0	8177	563253	0	0
2024-09-24 02:16:47			0	37880	0	0	0	23615	22190	160207	26876	1059413	46468	108707	0	0	8176	563730	0	0
2024-09-24 02:17:47			0	37893	0	0	0	23612	22190	160063	27225	1059413	46458	108706	0	0	8177	563213	0	0
2024-09-24 02:18:47			0	37893	0	0	0	23605	22190	160123	27043	1059359	46458	108703	0	0	8177	563213	0	0
2024-09-24 02:19:47			0	37883	0	0	0	23597	22190	160119	27265	1059332	46458	108700	0	0	8176	563611	0	0
2024-09-24 02:20:47			0	37874	0	0	0	23592	22190	160095	27265	1059359	46468	108698	0	0	8176	563969	0	0
2024-09-24 02:21:47			0	37885	0	0	0	23607	22180	160295	27355	1059368	46456	108704	0	0	8176	563563	0	0
2024-09-24 02:22:47			0	37897	0	0	0	23599	22180	160223	27355	1059404	46457	108701	0	0	8177	563085	0	0
2024-09-24 02:23:47			0	37912	0	0	0	23597	22180	160027	27352	1059421	46466	108700	0	0	8178	562489	0	0
2024-09-24 02:24:47			0	37914	0	0	0	23620	22180	160059	27171	1059404	46479	108709	0	0	8178	562409	0	0
2024-09-24 02:25:47			0	37939	0	0	0	23628	22190	159907	27274	1059413	46468	108712	0	0	8179	561385	0	0
2024-09-24 02:26:47			0	37983	0	0	0	23625	22180	159755	27287	1059368	46478	108711	0	0	8182	559672	0	0
2024-09-24 02:27:47			0	38005	0	0	0	23618	22190	159667	27346	1059475	46469	108708	0	0	8183	558769	0	0
2024-09-24 02:28:47			0	38017	0	0	0	23618	22180	159655	27395	1059350	46457	108708	0	0	8184	558326	0	0
2024-09-24 02:29:47			0	38026	0	0	0	23620	22190	159583	27102	1059413	46468	108709	0	0	8184	557939	0	0
2024-09-24 02:30:47			0	38021	0	0	0	23618	22190	159519	27393	1059448	46469	108708	0	0	8184	558136	0	0
2024-09-24 02:31:47			0	38034	0	0	0	23615	22190	159508	27235	1059413	46468	108707	0	0	8185	557622	0	0
2024-09-24 02:32:47			0	38022	0	0	0	23589	22190	159491	27327	1059395	46481	108697	0	0	8185	558097	0	0
2024-09-24 02:33:47			0	38001	0	0	0	23607	22190	159679	27357	1059395	46469	108704	0	0	8183	558928	0	0
2024-09-24 02:34:47			0	37994	0	0	0	23597	22190	159739	27045	1059439	46447	108700	0	0	8183	559205	0	0
2024-09-24 02:35:47			0	37993	0	0	0	23612	22180	159727	26960	1059404	46457	108706	0	0	8183	559276	0	0
2024-09-24 02:36:47			0	37987	0	0	0	23610	22190	159707	27176	1059413	46468	108705	0	0	8182	559482	0	0
2024-09-24 02:37:47			0	37975	0	0	0	23610	22190	159739	27353	1059448	46469	108705	0	0	8182	559958	0	0
2024-09-24 02:38:47			0	37964	0	0	0	23607	22190	159699	26989	1059421	46469	108704	0	0	8181	560393	0	0
2024-09-24 02:39:47			0	37952	0	0	0	23615	22190	159783	27144	1059413	46480	108707	0	0	8180	560869	0	0
2024-09-24 02:40:47			0	37977	0	0	0	23612	22190	159763	27192	1059413	46458	108706	0	0	8182	559878	0	0
2024-09-24 02:41:47			0	37973	0	0	0	23605	22180	159795	27270	1059404	46467	108703	0	0	8182	560068	0	0
2024-09-24 02:42:47			0	37987	0	0	0	23607	22190	159583	27098	1059439	46480	108704	0	0	8182	559482	0	0
2024-09-24 02:43:47			0	37946	0	0	0	23597	22180	159771	27248	1059377	46457	108700	0	0	8180	561139	0	0
2024-09-24 02:44:47			0	37939	0	0	0	23597	22190	159779	27218	1059439	46458	108700	0	0	8180	561385	0	0
2024-09-24 02:45:47			0	37945	0	0	0	23607	22180	159831	27000	1059404	46457	108704	0	0	8180	561178	0	0
2024-09-24 02:46:47			0	37950	0	0	0	23599	22190	159863	27332	1059386	46447	108701	0	0	8180	560949	0	0
2024-09-24 02:47:47			0	37940	0	0	0	23623	22180	159927	27242	1059404	46479	108710	0	0	8179	561377	0	0
2024-09-24 02:48:47			0	37974	0	0	0	23594	22190	159795	27029	1059439	46480	108699	0	0	8182	559997	0	0
2024-09-24 02:49:47			0	37950	0	0	0	23599	22180	159875	27104	1059404	46457	108701	0	0	8180	560980	0	0
2024-09-24 02:50:47			0	37949	0	0	0	23602	22180	159823	27286	1059448	46456	108702	0	0	8180	561020	0	0
2024-09-24 02:51:47			0	37927	0	0	0	23586	22190	159871	27176	1059413	46458	108696	0	0	8179	561862	0	0
2024-09-24 02:52:47			0	37918	0	0	0	23589	22180	159915	27192	1059404	46467	108697	0	0	8179	562251	0	0
2024-09-24 02:53:47			0	37911	0	0	0	23579	22180	159995	27275	1059288	46434	108693	0	0	8178	562529	0	0
2024-09-24 02:54:47			0	37893	0	0	0	23576	22170	160135	27166	1059279	46445	108692	0	0	8177	563276	0	0
2024-09-24 02:55:47			0	37883	0	0	0	23576	22180	160231	27275	1059288	46456	108692	0	0	8177	563642	0	0
2024-09-24 02:56:47			0	37856	0	0	0	23571	22180	160255	27052	1059297	46479	108690	0	0	8175	564717	0	0
2024-09-24 02:57:47			0	37849	0	0	0	23574	22170	160311	27000	1059359	46466	108691	0	0	8175	565028	0	0
2024-09-24 02:58:47			0	37844	0	0	0	23574	22170	160403	27192	1059323	46466	108691	0	0	8174	565227	0	0
2024-09-24 02:59:47			0	37833	0	0	0	23571	22170	160379	27055	1059332	46466	108690	0	0	8174	565666	0	0
2024-09-24 03:00:47			0	37847	0	0	0	23571	22160	160315	27072	1059234	46465	108690	0	0	8175	565139	0	0
2024-09-24 03:01:47			0	37844	0	0	0	23571	22160	160275	27135	1059314	46476	108690	0	0	8174	565259	0	0
2024-09-24 03:02:47			0	37828	0	0	0	23561	22160	160335	27112	1059252	46475	108686	0	0	8174	565897	0	0
2024-09-24 03:03:47			0	37844	0	0	0	23571	22170	160351	27355	1059270	46478	108690	0	0	8175	565227	0	0
2024-09-24 03:04:47			0	37846	0	0	0	23563	22160	160375	27367	1059252	46454	108687	0	0	8175	565179	0	0
2024-09-24 03:05:47			0	37857	0	0	0	23566	22160	160283	27118	1059261	46476	108688	0	0	8175	564741	0	0
2024-09-24 03:06:47			0	37862	0	0	0	23555	22160	160347	27519	1059261	46455	108684	0	0	8176	564541	0	0
2024-09-24 03:07:47			0	37860	0	0	0	23563	22160	160259	27452	1059305	46454	108687	0	0	8176	564621	0	0
2024-09-24 03:08:47			0	37857	0	0	0	23574	22150	160219	27041	1059190	46475	108691	0	0	8175	564772	0	0
2024-09-24 03:09:47			0	37873	0	0	0	23576	22150	160283	27357	1059270	46464	108692	0	0	8176	564135	0	0
2024-09-24 03:10:47			0	37872	0	0	0	23586	22150	160271	27367	1059314	46475	108696	0	0	8176	564175	0	0
2024-09-24 03:11:47			0	37872	0	0	0	23576	22150	160195	27324	1059243	46443	108692	0	0	8176	564175	0	0
2024-09-24 03:12:47			0	37870	0	0	0	23586	22150	160143	27248	1059270	46464	108696	0	0	8176	564254	0	0
2024-09-24 03:13:47			0	37879	0	0	0	23584	22160	160163	27131	1059288	46476	108695	0	0	8176	563864	0	0
2024-09-24 03:14:47			0	37889	0	0	0	23574	22160	160315	27196	1059279	46464	108691	0	0	8177	563466	0	0
2024-09-24 03:15:47			0	37871	0	0	0	23576	22160	160239	27552	1059314	46465	108692	0	0	8176	564183	0	0
2024-09-24 03:16:47			0	37885	0	0	0	23581	22150	160175	27268	1059243	46464	108694	0	0	8177	563657	0	0
2024-09-24 03:17:47			0	37863	0	0	0	23576	22150	160195	26838	1059243	46475	108692	0	0	8175	564533	0	0
2024-09-24 03:18:47			0	37864	0	0	0	23579	22160	160219	27258	1059314	46465	108693	0	0	8176	564462	0	0
2024-09-24 03:19:47			0	37854	0	0	0	23576	22150	160227	27192	1059216	46464	108692	0	0	8175	564892	0	0
2024-09-24 03:20:47			0	37854	0	0	0	23576	22150	160351	27171	1059234	46464	108692	0	0	8175	564892	0	0
2024-09-24 03:21:47			0	37852	0	0	0	23576	22150	160347	27298	1059288	46475	108692	0	0	8175	564971	0	0
2024-09-24 03:22:47			0	37830	0	0	0	23566	22150	160499	27260	1059270	46454	108688	0	0	8174	565849	0	0
2024-09-24 03:23:47			0	37826	0	0	0	23568	22150	160395	27039	1059261	46464	108689	0	0	8173	566008	0	0
2024-09-24 03:24:47			0	37825	0	0	0	23576	22150	160355	27144	1059261	46464	108692	0	0	8173	566048	0	0
2024-09-24 03:25:47			0	37812	0	0	0	23568	22160	160531	27360	1059279	46454	108689	0	0	8173	566535	0	0
2024-09-24 03:26:47			0	37826	0	0	0	23571	22150	160451	27308	1059243	46464	108690	0	0	8173	566008	0	0
2024-09-24 03:27:47			0	37845	0	0	0	23579	22150	160455	27161	1059243	46464	108693	0	0	8174	565250	0	0
2024-09-24 03:28:47			0	37843	0	0	0	23579	22150	160323	27156	1059261	46464	108693	0	0	8174	565330	0	0
2024-09-24 03:29:47			0	37838	0	0	0	23581	22150	160451	27300	1059270	46454	108694	0	0	8174	565530	0	0
2024-09-24 03:30:47			0	37867	0	0	0	23586	22150	160371	27448	1059323	46475	108696	0	0	8176	564374	0	0
2024-09-24 03:31:47			0	37855	0	0	0	23586	22160	160383	27459	1059332	46464	108696	0	0	8175	564820	0	0
2024-09-24 03:32:47			0	37846	0	0	0	23589	22150	160363	27448	1059323	46475	108697	0	0	8174	565210	0	0
2024-09-24 03:33:47			0	37863	0	0	0	23589	22160	160311	27157	1059314	46476	108697	0	0	8175	564502	0	0
2024-09-24 03:34:47			0	37865	0	0	0	23602	22160	160363	27374	1059332	46475	108702	0	0	8175	564422	0	0
2024-09-24 03:35:47			0	37861	0	0	0	23584	22160	160415	26967	1059332	46464	108695	0	0	8175	564581	0	0
2024-09-24 03:36:47			0	37836	0	0	0	23597	22160	160495	27310	1059341	46455	108700	0	0	8174	565578	0	0
2024-09-24 03:37:47			0	37830	0	0	0	23586	22160	160511	27204	1059288	46465	108696	0	0	8173	565817	0	0
2024-09-24 03:38:47			0	37827	0	0	0	23589	22150	160471	27353	1059270	46464	108697	0	0	8173	565968	0	0
2024-09-24 03:39:47			0	37825	0	0	0	23576	22160	160503	27135	1059368	46455	108692	0	0	8173	566017	0	0
2024-09-24 03:40:47			0	37834	0	0	0	23584	22170	160451	27329	1059270	46478	108695	0	0	8174	565626	0	0
2024-09-24 03:41:47			0	37829	0	0	0	23584	22170	160459	27211	1059306	46466	108695	0	0	8173	565825	0	0
2024-09-24 03:42:47			0	37822	0	0	0	23571	22170	160527	27192	1059323	46456	108690	0	0	8173	566105	0	0
2024-09-24 03:43:47			0	37814	0	0	0	23558	22150	160443	27156	1059296	46443	108685	0	0	8173	566487	0	0
2024-09-24 03:44:47			0	37803	0	0	0	23563	22150	160623	27557	1059270	46464	108687	0	0	8172	566926	0	0
2024-09-24 03:45:47			0	37793	0	0	0	23555	22150	160671	27048	1059243	46464	108684	0	0	8172	567326	0	0
2024-09-24 03:46:47			0	37796	0	0	0	23561	22160	160671	27100	1059252	46443	108686	0	0	8172	567174	0	0
2024-09-24 03:47:47			0	37800	0	0	0	23545	22150	160683	27383	1059216	46454	108680	0	0	8172	567046	0	0
2024-09-24 03:48:47			0	37802	0	0	0	23555	22150	160655	27275	1059234	46464	108684	0	0	8172	566967	0	0
2024-09-24 03:49:47			0	37803	0	0	0	23555	22150	160643	27357	1059296	46454	108684	0	0	8172	566926	0	0
2024-09-24 03:50:47			0	37810	0	0	0	23548	22150	160551	27364	1059207	46475	108681	0	0	8173	566647	0	0
2024-09-24 03:51:47			0	37812	0	0	0	23553	22140	160443	27308	1059199	46453	108683	0	0	8173	566599	0	0
2024-09-24 03:52:47			0	37834	0	0	0	23545	22140	160595	27488	1059252	46463	108680	0	0	8174	565721	0	0
2024-09-24 03:53:47			0	37849	0	0	0	23553	22150	160463	27568	1059207	46475	108683	0	0	8175	565091	0	0
2024-09-24 03:54:47			0	37847	0	0	0	23555	22140	160415	27374	1059172	46453	108684	0	0	8175	565202	0	0
2024-09-24 03:55:47			0	37829	0	0	0	23553	22140	160563	27379	1059199	46463	108683	0	0	8174	565920	0	0
2024-09-24 03:56:47			0	37782	0	0	0	23524	22140	160703	27199	1059172	46453	108672	0	0	8172	567797	0	0
2024-09-24 03:57:47			0	37715	0	0	0	23529	22130	161087	27265	1059154	46462	108674	0	0	8167	570512	0	0
2024-09-24 03:58:47			0	37677	0	0	0	23522	22130	161215	26991	1059127	46441	108671	0	0	8165	572038	0	0
2024-09-24 03:59:47			0	37666	0	0	0	23529	22130	161191	27291	1059127	46462	108674	0	0	8165	572480	0	0
2024-09-24 04:00:47			0	37679	0	0	0	23529	22130	161395	27251	1059145	46452	108674	0	0	8165	571957	0	0
2024-09-24 04:01:47			0	37662	0	0	0	23537	22120	161363	27137	1059109	46451	108677	0	0	8164	572673	0	0
2024-09-24 04:02:47			0	37688	0	0	0	23532	22120	161235	27320	1059020	46450	108675	0	0	8166	571628	0	0
2024-09-24 04:03:47			0	37672	0	0	0	23519	22120	161311	26925	1059127	46471	108670	0	0	8165	572271	0	0
2024-09-24 04:04:47			0	37672	0	0	0	23529	22120	161211	27228	1059189	46451	108674	0	0	8165	572271	0	0
2024-09-24 04:05:47			0	37670	0	0	0	23532	22120	161175	27434	1059083	46451	108675	0	0	8165	572351	0	0
2024-09-24 04:06:47			0	37682	0	0	0	23527	22120	161183	27242	1059163	46461	108673	0	0	8166	571869	0	0
2024-09-24 04:07:47			0	37704	0	0	0	23537	22120	161139	27307	1059136	46451	108677	0	0	8167	570986	0	0
2024-09-24 04:08:47			0	37702	0	0	0	23535	22120	161103	27322	1059136	46472	108676	0	0	8167	571066	0	0
2024-09-24 04:09:47			0	37736	0	0	0	23542	22120	161055	27256	1059136	46472	108679	0	0	8168	569702	0	0
2024-09-24 04:10:47			0	37735	0	0	0	23540	22130	160943	27220	1059092	46462	108678	0	0	8168	569710	0	0
2024-09-24 04:11:47			0	37738	0	0	0	23542	22120	161095	27445	1059100	46460	108679	0	0	8169	569622	0	0
2024-09-24 04:12:47			0	37742	0	0	0	23535	22110	160923	27234	1059118	46459	108676	0	0	8169	569494	0	0
2024-09-24 04:13:47			0	37738	0	0	0	23542	22120	160943	27462	1059154	46460	108679	0	0	8169	569622	0	0
2024-09-24 04:14:47			0	37741	0	0	0	23529	22130	161003	27275	1059118	46452	108674	0	0	8169	569470	0	0
2024-09-24 04:15:47			0	37715	0	0	0	23537	22110	160847	27053	1059038	46459	108677	0	0	8167	570576	0	0
2024-09-24 04:16:47			0	37728	0	0	0	23537	22120	160843	27140	1059047	46460	108677	0	0	8168	570023	0	0
2024-09-24 04:17:47			0	37731	0	0	0	23532	22120	160847	27138	1059154	46460	108675	0	0	8168	569903	0	0
2024-09-24 04:18:47			0	37719	0	0	0	23529	22120	160871	27412	1059109	46461	108674	0	0	8168	570384	0	0
2024-09-24 04:19:47			0	37730	0	0	0	23527	22120	160999	27300	1059083	46440	108673	0	0	8168	569943	0	0
2024-09-24 04:20:47			0	37732	0	0	0	23529	22120	160907	26882	1059127	46460	108674	0	0	8168	569863	0	0
2024-09-24 04:21:47			0	37712	0	0	0	23535	22120	161027	27410	1059074	46460	108676	0	0	8167	570664	0	0
2024-09-24 04:22:47			0	37723	0	0	0	23542	22120	160891	27180	1059127	46460	108679	0	0	8168	570223	0	0
2024-09-24 04:23:47			0	37717	0	0	0	23535	22120	161015	27003	1059109	46472	108676	0	0	8167	570464	0	0
2024-09-24 04:24:47			0	37738	0	0	0	23532	22110	160959	27526	1059118	46470	108675	0	0	8169	569654	0	0
2024-09-24 04:25:47			0	37749	0	0	0	23537	22120	160871	27163	1059100	46471	108677	0	0	8169	569181	0	0
2024-09-24 04:26:47			0	37735	0	0	0	23532	22120	160915	27130	1059100	46483	108675	0	0	8169	569742	0	0
2024-09-24 04:27:47			0	37729	0	0	0	23527	22110	160947	27183	1059065	46482	108673	0	0	8168	570015	0	0
2024-09-24 04:28:47			0	37732	0	0	0	23532	22110	160935	27246	1059091	46449	108675	0	0	8168	569894	0	0
2024-09-24 04:29:47			0	37737	0	0	0	23532	22120	160843	27319	1059047	46460	108675	0	0	8169	569662	0	0
2024-09-24 04:30:47			0	37726	0	0	0	23532	22120	160951	27204	1059127	46460	108675	0	0	8168	570103	0	0
2024-09-24 04:31:47			0	37752	0	0	0	23532	22110	160939	27294	1059083	46470	108675	0	0	8169	569093	0	0
2024-09-24 04:32:47			0	37748	0	0	0	23535	22110	160971	27343	1059109	46449	108676	0	0	8169	569253	0	0
2024-09-24 04:33:47			0	37743	0	0	0	23537	22110	160855	27332	1059145	46449	108677	0	0	8169	569454	0	0
2024-09-24 04:34:47			0	37750	0	0	0	23542	22120	160835	26965	1059163	46472	108679	0	0	8169	569141	0	0
2024-09-24 04:35:47			0	37752	0	0	0	23537	22120	160823	26956	1059180	46460	108677	0	0	8169	569061	0	0
2024-09-24 04:36:47			0	37757	0	0	0	23537	22120	160851	26996	1059127	46471	108677	0	0	8170	568861	0	0
2024-09-24 04:37:47			0	37748	0	0	0	23535	22120	160767	27312	1059100	46460	108676	0	0	8169	569221	0	0
2024-09-24 04:38:47			0	37755	0	0	0	23537	22110	160843	27157	1059091	46449	108677	0	0	8170	568973	0	0
2024-09-24 04:39:47			0	37758	0	0	0	23529	22120	160851	27196	1059127	46460	108674	0	0	8170	568821	0	0
2024-09-24 04:40:47			0	37750	0	0	0	23509	22110	160799	26927	1059091	46459	108666	0	0	8170	569173	0	0
2024-09-24 04:41:47			0	37732	0	0	0	23509	22110	160923	27234	1059065	46459	108666	0	0	8169	569894	0	0
2024-09-24 04:42:47			0	37750	0	0	0	23516	22110	160919	27229	1059091	46449	108669	0	0	8170	569173	0	0
2024-09-24 04:43:47			0	37731	0	0	0	23522	22100	160863	26880	1059011	46448	108671	0	0	8168	569966	0	0
2024-09-24 04:44:47			0	37738	0	0	0	23514	22110	160907	27237	1059056	46449	108668	0	0	8169	569654	0	0
2024-09-24 04:45:47			0	37723	0	0	0	23516	22100	160891	27370	1058994	46459	108669	0	0	8168	570287	0	0
2024-09-24 04:46:47			0	37725	0	0	0	23506	22090	160975	27168	1058922	46458	108665	0	0	8168	570239	0	0
2024-09-24 04:47:47			0	37702	0	0	0	23485	22110	160999	27308	1058958	46449	108657	0	0	8167	571098	0	0
2024-09-24 04:48:47			0	37657	0	0	0	23483	22090	161255	27131	1058922	46424	108656	0	0	8165	572969	0	0
2024-09-24 04:49:47			0	37625	0	0	0	23480	22080	161339	27386	1058958	46436	108655	0	0	8163	574290	0	0
2024-09-24 04:50:47			0	37613	0	0	0	23488	22090	161427	26981	1058913	46447	108658	0	0	8162	574741	0	0
2024-09-24 04:51:47			0	37589	0	0	0	23477	22080	161591	27383	1058958	46436	108654	0	0	8161	575741	0	0
2024-09-24 04:52:47			0	37564	0	0	0	23488	22080	161755	27199	1058895	46457	108658	0	0	8159	576750	0	0
2024-09-24 04:53:47			0	37537	0	0	0	23509	22080	161859	27159	1058922	46446	108666	0	0	8157	577842	0	0
2024-09-24 04:54:47			0	37572	0	0	0	23519	22070	161659	27197	1058886	46478	108670	0	0	8159	576459	0	0
2024-09-24 04:55:47			0	37563	0	0	0	23501	22070	161635	27012	1058913	46456	108663	0	0	8159	576823	0	0
2024-09-24 04:56:47			0	37579	0	0	0	23493	22080	161623	27289	1058931	46458	108660	0	0	8160	576145	0	0
2024-09-24 04:57:47			0	37561	0	0	0	23483	22080	161715	27182	1058922	46457	108656	0	0	8159	576871	0	0
2024-09-24 04:58:47			0	37523	0	0	0	23472	22080	161903	27263	1058869	46446	108652	0	0	8157	578408	0	0
2024-09-24 04:59:47			0	37489	0	0	0	23464	22070	161791	27267	1058886	46445	108649	0	0	8155	579817	0	0
2024-09-24 05:00:47			0	37482	0	0	0	23470	22070	161987	27228	1058886	46434	108651	0	0	8154	580101	0	0
2024-09-24 05:01:47			0	37460	0	0	0	23483	22070	162007	27086	1058886	46445	108656	0	0	8153	580994	0	0
2024-09-24 05:02:47			0	37469	0	0	0	23475	22070	162007	26984	1058859	46445	108653	0	0	8154	580628	0	0
2024-09-24 05:03:47			0	37476	0	0	0	23493	22060	161947	27163	1058806	46455	108660	0	0	8154	580377	0	0
2024-09-24 05:04:47			0	37513	0	0	0	23503	22060	161859	27274	1058859	46444	108664	0	0	8156	578877	0	0
2024-09-24 05:05:47			0	37510	0	0	0	23498	22070	161943	27251	1058877	46466	108662	0	0	8156	578966	0	0
2024-09-24 05:06:47			0	37498	0	0	0	23496	22070	161975	27398	1058877	46445	108661	0	0	8155	579452	0	0
2024-09-24 05:07:47			0	37506	0	0	0	23501	22060	161999	27194	1058842	46445	108663	0	0	8155	579161	0	0
2024-09-24 05:08:47			0	37535	0	0	0	23493	22060	161983	27015	1058922	46466	108660	0	0	8157	577987	0	0
2024-09-24 05:09:47			0	37519	0	0	0	23498	22080	161867	27298	1058949	46457	108662	0	0	8156	578570	0	0
2024-09-24 05:10:47			0	37508	0	0	0	23493	22070	161887	27360	1058886	46456	108660	0	0	8156	579047	0	0
2024-09-24 05:11:47			0	37485	0	0	0	23485	22070	161943	27379	1058886	46456	108657	0	0	8154	579979	0	0
2024-09-24 05:12:47			0	37492	0	0	0	23475	22070	162111	27353	1058824	46456	108653	0	0	8155	579696	0	0
2024-09-24 05:13:47			0	37450	0	0	0	23477	22060	162267	27412	1058806	46444	108654	0	0	8152	581432	0	0
2024-09-24 05:14:47			0	37440	0	0	0	23483	22060	162107	27524	1058806	46444	108656	0	0	8152	581838	0	0
2024-09-24 05:15:47			0	37429	0	0	0	23480	22060	162247	27156	1058859	46444	108655	0	0	8151	582285	0	0
2024-09-24 05:16:47			0	37443	0	0	0	23488	22060	162211	27152	1058815	46434	108658	0	0	8152	581716	0	0
2024-09-24 05:17:47			0	37422	0	0	0	23483	22070	162279	26987	1058850	46456	108656	0	0	8151	582537	0	0
2024-09-24 05:18:47			0	37396	0	0	0	23475	22050	162403	27313	1058814	46431	108653	0	0	8149	583660	0	0
2024-09-24 05:19:47			0	37378	0	0	0	23477	22070	162367	27320	1058770	46445	108654	0	0	8148	584328	0	0
2024-09-24 05:20:47			0	37383	0	0	0	23475	22060	162491	27085	1058779	46444	108653	0	0	8148	584157	0	0
2024-09-24 05:21:47			0	37341	0	0	0	23470	22060	162659	27161	1058859	46477	108651	0	0	8146	585869	0	0
2024-09-24 05:22:47			0	37343	0	0	0	23475	22050	162635	26994	1058797	46454	108653	0	0	8146	585821	0	0
2024-09-24 05:23:47			0	37333	0	0	0	23483	22060	162647	27251	1058779	46465	108656	0	0	8145	586196	0	0
2024-09-24 05:24:47			0	37347	0	0	0	23490	22050	162571	27216	1058788	46463	108659	0	0	8146	585657	0	0
2024-09-24 05:25:47			0	37355	0	0	0	23488	22060	162467	27334	1058895	46478	108658	0	0	8147	585298	0	0
2024-09-24 05:26:47			0	37345	0	0	0	23483	22060	162471	27227	1058886	46444	108656	0	0	8146	585706	0	0
2024-09-24 05:27:47			0	37368	0	0	0	23480	22060	162503	27187	1058859	46455	108655	0	0	8147	584768	0	0
2024-09-24 05:28:47			0	37339	0	0	0	23470	22070	162619	26941	1058877	46456	108651	0	0	8146	585918	0	0
2024-09-24 05:29:47			0	37331	0	0	0	23483	22060	162623	27298	1058868	46456	108656	0	0	8145	586278	0	0
2024-09-24 05:30:47			0	37359	0	0	0	23488	22050	162507	27277	1058823	46476	108658	0	0	8147	585168	0	0
2024-09-24 05:31:47			0	37393	0	0	0	23496	22060	162399	27364	1058815	46456	108661	0	0	8149	583750	0	0
2024-09-24 05:32:47			0	37426	0	0	0	23493	22060	162303	27102	1058806	46455	108660	0	0	8151	582407	0	0
2024-09-24 05:33:47			0	37439	0	0	0	23485	22060	162227	27568	1058788	46456	108657	0	0	8152	581879	0	0
2024-09-24 05:34:47			0	37434	0	0	0	23488	22060	162255	27209	1058833	46444	108658	0	0	8151	582082	0	0
2024-09-24 05:35:47			0	37445	0	0	0	23485	22070	162215	27402	1058850	46456	108657	0	0	8152	581603	0	0
2024-09-24 05:36:47			0	37469	0	0	0	23488	22060	162223	27348	1058842	46445	108658	0	0	8153	580661	0	0
2024-09-24 05:37:47			0	37435	0	0	0	23490	22060	162211	27545	1058859	46465	108659	0	0	8151	582041	0	0
2024-09-24 05:38:47			0	37439	0	0	0	23496	22060	162195	27306	1058833	46444	108661	0	0	8151	581879	0	0
2024-09-24 05:39:47			0	37423	0	0	0	23480	22070	162351	27059	1058850	46456	108655	0	0	8151	582497	0	0
2024-09-24 05:40:47			0	37398	0	0	0	23483	22060	162363	27154	1058868	46456	108656	0	0	8149	583546	0	0
2024-09-24 05:41:47			0	37383	0	0	0	23475	22060	162471	27511	1058833	46465	108653	0	0	8148	584157	0	0
2024-09-24 05:42:47			0	37345	0	0	0	23467	22060	162539	27448	1058806	46433	108650	0	0	8146	585706	0	0
2024-09-24 05:43:47			0	37329	0	0	0	23467	22050	162710	27329	1058770	46443	108650	0	0	8145	586392	0	0
2024-09-24 05:44:47			0	37307	0	0	0	23467	22060	162714	27281	1058779	46465	108650	0	0	8144	587258	0	0
2024-09-24 05:45:47			0	37310	0	0	0	23462	22050	162703	27053	1058823	46443	108648	0	0	8144	587168	0	0
2024-09-24 05:46:47			0	37332	0	0	0	23477	22060	162679	27208	1058806	46455	108654	0	0	8145	586237	0	0
2024-09-24 05:47:47			0	37334	0	0	0	23470	22060	162535	27124	1058833	46444	108651	0	0	8146	586155	0	0
2024-09-24 05:48:47			0	37349	0	0	0	23472	22050	162555	27256	1058814	46463	108652	0	0	8146	585576	0	0
2024-09-24 05:49:47			0	37351	0	0	0	23475	22050	162659	27013	1058788	46475	108653	0	0	8146	585494	0	0
2024-09-24 05:50:47			0	37336	0	0	0	23470	22050	162599	27476	1058823	46454	108651	0	0	8146	586106	0	0
2024-09-24 05:51:47			0	37339	0	0	0	23470	22060	162559	27260	1058806	46455	108651	0	0	8146	585951	0	0
2024-09-24 05:52:47			0	37349	0	0	0	23464	22060	162579	27118	1058842	46456	108649	0	0	8147	585543	0	0
2024-09-24 05:53:47			0	37372	0	0	0	23464	22050	162515	27504	1058734	46463	108649	0	0	8148	584638	0	0
2024-09-24 05:54:47			0	37349	0	0	0	23459	22060	162515	27138	1058859	46444	108647	0	0	8147	585543	0	0
2024-09-24 05:55:47			0	37366	0	0	0	23454	22050	162627	27320	1058761	46442	108645	0	0	8148	584882	0	0
2024-09-24 05:56:47			0	37325	0	0	0	23444	22050	162611	27069	1058797	46454	108641	0	0	8145	586555	0	0
2024-09-24 05:57:47			0	37301	0	0	0	23438	22050	162822	26795	1058734	46475	108639	0	0	8144	587536	0	0
2024-09-24 05:58:47			0	37278	0	0	0	23438	22030	162954	27060	1058681	46441	108639	0	0	8143	588543	0	0
2024-09-24 05:59:47			0	37270	0	0	0	23441	22040	162890	26920	1058725	46442	108640	0	0	8142	588837	0	0
2024-09-24 06:00:47			0	37261	0	0	0	23444	22040	162922	27156	1058663	46442	108641	0	0	8142	589206	0	0
2024-09-24 06:01:47			0	37268	0	0	0	23441	22030	162958	27281	1058654	46441	108640	0	0	8142	588952	0	0
2024-09-24 06:02:47			0	37275	0	0	0	23444	22030	162766	27324	1058681	46430	108641	0	0	8142	588665	0	0
2024-09-24 06:03:47			0	37270	0	0	0	23446	22030	162834	27263	1058707	46452	108642	0	0	8142	588870	0	0
2024-09-24 06:04:47			0	37286	0	0	0	23444	22030	162822	26996	1058645	46440	108641	0	0	8143	588215	0	0
2024-09-24 06:05:47			0	37281	0	0	0	23444	22030	162846	27128	1058699	46451	108641	0	0	8143	588420	0	0
2024-09-24 06:06:47			0	37283	0	0	0	23446	22030	162942	27185	1058725	46451	108642	0	0	8143	588338	0	0
2024-09-24 06:07:47			0	37295	0	0	0	23444	22030	162814	27324	1058654	46452	108641	0	0	8144	587847	0	0
2024-09-24 06:08:47			0	37315	0	0	0	23449	22030	162610	27123	1058699	46451	108643	0	0	8145	587029	0	0
2024-09-24 06:09:47			0	37334	0	0	0	23436	22030	162679	27230	1058681	46452	108638	0	0	8146	586253	0	0
2024-09-24 06:10:47			0	37323	0	0	0	23436	22030	162619	27346	1058672	46461	108638	0	0	8145	586702	0	0
2024-09-24 06:11:47			0	37315	0	0	0	23433	22020	162822	27092	1058690	46451	108637	0	0	8145	587062	0	0
2024-09-24 06:12:47			0	37292	0	0	0	23428	22020	162910	27222	1058636	46451	108635	0	0	8144	588003	0	0
2024-09-24 06:13:47			0	37268	0	0	0	23420	22020	162890	27066	1058627	46440	108632	0	0	8142	588985	0	0
2024-09-24 06:14:47			0	37258	0	0	0	23425	22020	162906	27358	1058636	46461	108634	0	0	8142	589395	0	0
2024-09-24 06:15:47			0	37274	0	0	0	23436	22020	162910	27124	1058610	46440	108638	0	0	8142	588739	0	0
2024-09-24 06:16:47			0	37282	0	0	0	23433	22020	162938	27033	1058583	46440	108637	0	0	8143	588412	0	0
2024-09-24 06:17:47			0	37293	0	0	0	23433	22020	162858	26906	1058627	46451	108637	0	0	8144	587962	0	0
2024-09-24 06:18:47			0	37332	0	0	0	23444	22030	162719	27180	1058645	46451	108641	0	0	8146	586335	0	0
2024-09-24 06:19:47			0	37358	0	0	0	23436	22020	162519	27261	1058636	46451	108638	0	0	8147	585306	0	0
2024-09-24 06:20:47			0	37328	0	0	0	23415	22010	162591	26663	1058618	46428	108630	0	0	8146	586564	0	0
2024-09-24 06:21:47			0	37303	0	0	0	23428	22020	162738	27112	1058627	46440	108635	0	0	8144	587552	0	0
2024-09-24 06:22:47			0	37326	0	0	0	23441	22020	162671	27046	1058627	46440	108640	0	0	8145	586613	0	0
2024-09-24 06:23:47			0	37316	0	0	0	23428	22020	162623	27140	1058610	46461	108635	0	0	8145	587021	0	0
2024-09-24 06:24:47			0	37268	0	0	0	23397	22020	162902	27351	1058610	46451	108623	0	0	8143	588985	0	0
2024-09-24 06:25:47			0	37245	0	0	0	23407	22020	163006	27060	1058636	46451	108627	0	0	8141	589927	0	0
2024-09-24 06:26:47			0	37215	0	0	0	23407	22010	163114	27109	1058565	46450	108627	0	0	8139	591191	0	0
2024-09-24 06:27:47			0	37187	0	0	0	23389	22000	163198	26864	1058600	46427	108620	0	0	8138	592375	0	0
2024-09-24 06:28:47			0	37186	0	0	0	23397	22010	163322	27317	1058583	46427	108623	0	0	8138	592383	0	0
2024-09-24 06:29:47			0	37157	0	0	0	23399	21990	163438	26965	1058565	46427	108624	0	0	8136	593642	0	0
2024-09-24 06:30:47			0	37160	0	0	0	23420	22000	163286	26981	1058547	46449	108632	0	0	8136	593486	0	0
2024-09-24 06:31:47			0	37194	0	0	0	23405	22010	163238	26838	1058556	46449	108626	0	0	8138	592054	0	0
2024-09-24 06:32:47			0	37186	0	0	0	23405	22000	163286	27130	1058520	46438	108626	0	0	8138	592416	0	0
2024-09-24 06:33:47			0	37174	0	0	0	23397	22010	163386	26866	1058583	46449	108623	0	0	8137	592876	0	0
2024-09-24 06:34:47			0	37156	0	0	0	23389	22000	163450	26994	1058520	46427	108620	0	0	8136	593650	0	0
2024-09-24 06:35:47			0	37151	0	0	0	23397	21980	163426	27334	1058467	46447	108623	0	0	8136	593922	0	0
2024-09-24 06:36:47			0	37145	0	0	0	23394	21990	163470	27092	1058485	46449	108622	0	0	8135	594136	0	0
2024-09-24 06:37:47			0	37129	0	0	0	23389	21990	163574	27296	1058423	46448	108620	0	0	8134	594796	0	0
2024-09-24 06:38:47			0	37133	0	0	0	23379	21980	163614	27248	1058467	46469	108616	0	0	8135	594664	0	0
2024-09-24 06:39:47			0	37115	0	0	0	23394	21980	163562	27034	1058467	46425	108622	0	0	8133	595406	0	0
2024-09-24 06:40:47			0	37115	0	0	0	23389	21980	163766	26665	1058431	46435	108620	0	0	8134	595406	0	0
2024-09-24 06:41:47			0	37074	0	0	0	23373	21970	163942	27301	1058422	46446	108614	0	0	8131	597133	0	0
2024-09-24 06:42:47			0	37067	0	0	0	23363	21960	163902	27043	1058431	46423	108610	0	0	8131	597455	0	0
2024-09-24 06:43:47			0	37044	0	0	0	23358	21970	163998	27460	1058387	46435	108608	0	0	8130	598374	0	0
2024-09-24 06:44:47			0	37019	0	0	0	23368	21960	164154	26731	1058351	46434	108612	0	0	8128	599442	0	0
2024-09-24 06:45:47			0	37020	0	0	0	23371	21960	164066	26974	1058315	46455	108613	0	0	8128	599401	0	0
2024-09-24 06:46:47			0	37039	0	0	0	23358	21970	164070	27248	1058387	46435	108608	0	0	8129	598581	0	0
2024-09-24 06:47:47			0	37032	0	0	0	23366	21970	164010	27438	1058307	46446	108611	0	0	8129	598870	0	0
2024-09-24 06:48:47			0	37010	0	0	0	23371	21960	164070	26922	1058324	46434	108613	0	0	8127	599816	0	0
2024-09-24 06:49:47			0	37029	0	0	0	23363	21960	164082	27183	1058342	46421	108610	0	0	8129	599028	0	0
2024-09-24 06:50:47			0	37018	0	0	0	23368	21970	164050	26968	1058360	46424	108612	0	0	8128	599450	0	0
2024-09-24 06:51:47			0	37015	0	0	0	23368	21960	164030	27116	1058369	46433	108612	0	0	8128	599608	0	0
2024-09-24 06:52:47			0	36996	0	0	0	23368	21960	164174	26828	1058324	46445	108612	0	0	8127	600396	0	0
2024-09-24 06:53:47			0	37017	0	0	0	23361	21950	164106	26757	1058307	46444	108609	0	0	8128	599559	0	0
2024-09-24 06:54:47			0	37007	0	0	0	23355	21940	164102	26989	1058262	46443	108607	0	0	8127	600007	0	0
2024-09-24 06:55:47			0	37007	0	0	0	23355	21940	164034	27121	1058253	46442	108607	0	0	8127	600007	0	0
2024-09-24 06:56:47			0	37020	0	0	0	23366	21950	164070	27026	1058200	46433	108611	0	0	8128	599434	0	0
2024-09-24 06:57:47			0	37066	0	0	0	23373	21950	163830	27329	1058297	46421	108614	0	0	8131	597530	0	0
2024-09-24 06:58:47			0	37113	0	0	0	23366	21950	163622	27310	1058280	46444	108611	0	0	8134	595588	0	0
2024-09-24 06:59:47			0	37090	0	0	0	23340	21950	163666	27227	1058351	46433	108601	0	0	8133	596538	0	0
2024-09-24 07:00:47			0	37054	0	0	0	23350	21940	163846	27100	1058199	46431	108605	0	0	8130	598060	0	0
2024-09-24 07:01:47			0	37090	0	0	0	23363	21950	163762	27123	1058297	46433	108610	0	0	8132	596538	0	0
2024-09-24 07:02:47			0	37135	0	0	0	23366	21950	163654	26890	1058271	46444	108611	0	0	8135	594681	0	0
2024-09-24 07:03:47			0	37082	0	0	0	23361	21940	163766	26854	1058235	46443	108609	0	0	8132	596902	0	0
2024-09-24 07:04:47			0	37103	0	0	0	23361	21940	163742	27282	1058288	46432	108609	0	0	8133	596034	0	0
2024-09-24 07:05:47			0	37103	0	0	0	23353	21940	163706	27306	1058279	46453	108606	0	0	8133	596034	0	0
2024-09-24 07:06:47			0	37074	0	0	0	23340	21940	163774	27078	1058279	46420	108601	0	0	8132	597232	0	0
2024-09-24 07:07:47			0	37082	0	0	0	23368	21950	163882	27466	1058324	46433	108612	0	0	8132	596869	0	0
2024-09-24 07:08:47			0	37052	0	0	0	23368	21940	163858	27208	1058279	46453	108612	0	0	8130	598143	0	0
2024-09-24 07:09:47			0	37090	0	0	0	23366	21940	163654	27296	1058386	46431	108611	0	0	8132	596571	0	0
2024-09-24 07:10:47			0	37089	0	0	0	23350	21940	163818	27294	1058315	46454	108605	0	0	8132	596613	0	0
2024-09-24 07:11:47			0	37051	0	0	0	23342	21940	163934	27497	1058253	46442	108602	0	0	8130	598184	0	0
2024-09-24 07:12:47			0	37078	0	0	0	23368	21940	163922	26970	1058315	46443	108612	0	0	8132	597067	0	0
2024-09-24 07:13:47			0	37075	0	0	0	23366	21930	163838	27459	1058297	46431	108611	0	0	8131	597224	0	0
2024-09-24 07:14:47			0	37098	0	0	0	23361	21940	163814	26941	1058288	46454	108609	0	0	8133	596241	0	0
2024-09-24 07:15:47			0	37095	0	0	0	23361	21930	163866	27315	1058297	46431	108609	0	0	8133	596398	0	0
2024-09-24 07:16:47			0	37093	0	0	0	23366	21940	163782	27114	1058253	46453	108611	0	0	8132	596447	0	0
2024-09-24 07:17:47			0	37110	0	0	0	23358	21940	163646	27128	1058306	46442	108608	0	0	8134	595745	0	0
2024-09-24 07:18:47			0	37145	0	0	0	23366	21950	163606	27474	1058351	46455	108611	0	0	8136	594269	0	0
2024-09-24 07:19:47			0	37172	0	0	0	23373	21940	163438	27348	1058288	46443	108614	0	0	8137	593190	0	0
2024-09-24 07:20:47			0	37178	0	0	0	23361	21950	163270	27202	1058404	46455	108609	0	0	8138	592910	0	0
2024-09-24 07:21:47			0	37219	0	0	0	23348	21950	163242	27246	1058351	46455	108604	0	0	8140	591225	0	0
2024-09-24 07:22:47			0	37220	0	0	0	23350	21940	163254	27039	1058279	46442	108605	0	0	8140	591217	0	0
2024-09-24 07:23:47			0	37236	0	0	0	23350	21940	163170	27246	1058315	46421	108605	0	0	8141	590560	0	0
2024-09-24 07:24:47			0	37238	0	0	0	23342	21940	163174	27119	1058315	46443	108602	0	0	8142	590478	0	0
2024-09-24 07:25:47			0	37249	0	0	0	23314	21940	163066	27270	1058235	46432	108591	0	0	8143	590027	0	0
2024-09-24 07:26:47			0	37243	0	0	0	23332	21930	163142	27111	1058164	46431	108598	0	0	8142	590305	0	0
2024-09-24 07:27:47			0	37278	0	0	0	23363	21920	163062	27190	1058146	46441	108610	0	0	8143	588904	0	0
2024-09-24 07:28:47			0	37289	0	0	0	23358	21930	162938	27476	1058235	46442	108608	0	0	8144	588420	0	0
2024-09-24 07:29:47			0	37348	0	0	0	23342	21930	162787	27402	1058164	46431	108602	0	0	8148	586008	0	0
2024-09-24 07:30:47			0	37390	0	0	0	23329	21940	162591	27338	1058235	46443	108597	0	0	8151	584263	0	0
2024-09-24 07:31:47			0	37406	0	0	0	23342	21930	162463	27417	1058155	46442	108602	0	0	8151	583643	0	0
2024-09-24 07:32:47			0	37431	0	0	0	23327	21930	162387	27566	1058235	46431	108596	0	0	8153	582626	0	0
2024-09-24 07:33:47			0	37452	0	0	0	23322	21930	162179	27319	1058181	46431	108594	0	0	8155	581772	0	0
2024-09-24 07:34:47			0	37480	0	0	0	23324	21930	162183	27097	1058155	46431	108595	0	0	8156	580635	0	0
2024-09-24 07:35:47			0	37497	0	0	0	23319	21920	162003	27581	1058057	46429	108593	0	0	8157	579978	0	0
2024-09-24 07:36:47			0	37512	0	0	0	23314	21920	161907	27435	1058057	46417	108591	0	0	8158	579370	0	0
2024-09-24 07:37:47			0	37550	0	0	0	23332	21910	161891	27310	1058128	46429	108598	0	0	8160	577863	0	0
2024-09-24 07:38:47			0	37564	0	0	0	23332	21910	161895	27466	1058128	46440	108598	0	0	8161	577297	0	0
2024-09-24 07:39:47			0	37567	0	0	0	23316	21910	161803	27147	1058155	46429	108592	0	0	8161	577176	0	0
2024-09-24 07:40:47			0	37606	0	0	0	23319	21910	161727	27490	1058119	46416	108593	0	0	8164	575601	0	0
2024-09-24 07:41:47			0	37635	0	0	0	23324	21910	161539	27107	1058092	46439	108595	0	0	8165	574431	0	0
2024-09-24 07:42:47			0	37656	0	0	0	23311	21910	161527	27595	1058048	46451	108590	0	0	8167	573585	0	0
2024-09-24 07:43:47			0	37694	0	0	0	23306	21910	161263	27374	1058101	46417	108588	0	0	8169	572056	0	0
2024-09-24 07:44:47			0	37714	0	0	0	23298	21900	161171	27078	1058074	46427	108585	0	0	8170	571285	0	0
2024-09-24 07:45:47			0	37741	0	0	0	23298	21910	161147	27144	1058048	46429	108585	0	0	8172	570169	0	0
2024-09-24 07:46:47			0	37725	0	0	0	23298	21900	161039	27284	1058110	46416	108585	0	0	8171	570843	0	0
2024-09-24 07:47:47			0	37782	0	0	0	23306	21900	161047	27460	1058048	46427	108588	0	0	8174	568558	0	0
2024-09-24 07:48:47			0	37773	0	0	0	23293	21890	160995	27538	1058039	46426	108583	0	0	8174	568950	0	0
2024-09-24 07:49:47			0	37752	0	0	0	23288	21900	161019	27218	1057968	46416	108581	0	0	8173	569760	0	0
2024-09-24 07:50:47			0	37771	0	0	0	23296	21900	161023	27395	1057941	46416	108584	0	0	8174	568998	0	0
2024-09-24 07:51:47			0	37796	0	0	0	23275	21900	160895	27407	1057968	46427	108576	0	0	8175	567997	0	0
2024-09-24 07:52:47			0	37795	0	0	0	23288	21890	160819	27362	1057897	46426	108581	0	0	8175	568069	0	0
2024-09-24 07:53:47			0	37833	0	0	0	23288	21890	160719	27346	1057932	46426	108581	0	0	8177	566550	0	0
2024-09-24 07:54:47			0	37857	0	0	0	23290	21880	160743	27249	1057968	46437	108582	0	0	8179	565623	0	0
2024-09-24 07:55:47			0	37877	0	0	0	23280	21890	160603	27308	1057977	46426	108578	0	0	8180	564794	0	0
2024-09-24 07:56:47			0	37903	0	0	0	23290	21870	160523	27246	1057950	46424	108582	0	0	8181	563821	0	0
2024-09-24 07:57:47			0	37925	0	0	0	23280	21880	160479	27137	1057905	46425	108578	0	0	8183	562913	0	0
2024-09-24 07:58:47			0	37939	0	0	0	23275	21880	160343	27294	1057905	46425	108576	0	0	8184	562357	0	0
2024-09-24 07:59:47			0	37949	0	0	0	23267	21880	160407	27326	1057941	46426	108573	0	0	8184	561959	0	0
2024-09-24 08:00:47			0	37952	0	0	0	23280	21870	160355	27199	1057887	46424	108578	0	0	8184	561871	0	0
2024-09-24 08:01:47			0	37979	0	0	0	23275	21870	160307	27369	1057887	46446	108576	0	0	8186	560799	0	0
2024-09-24 08:02:47			0	37976	0	0	0	23270	21860	160179	27571	1057878	46424	108574	0	0	8186	560949	0	0
2024-09-24 08:03:47			0	38010	0	0	0	23270	21870	160103	27467	1057861	46424	108574	0	0	8188	559569	0	0
2024-09-24 08:04:47			0	38018	0	0	0	23262	21870	160151	27379	1057861	46435	108571	0	0	8189	559252	0	0
2024-09-24 08:05:47			0	38000	0	0	0	23254	21860	160047	27514	1057843	46434	108568	0	0	8188	559997	0	0
2024-09-24 08:06:47			0	37994	0	0	0	23262	21860	160067	27554	1057878	46413	108571	0	0	8187	560235	0	0
2024-09-24 08:07:47			0	38030	0	0	0	23264	21860	159920	27168	1057816	46412	108572	0	0	8189	558808	0	0
2024-09-24 08:08:47			0	38016	0	0	0	23257	21870	160003	27419	1057834	46424	108569	0	0	8189	559331	0	0
2024-09-24 08:09:47			0	38035	0	0	0	23267	21860	159968	27417	1057825	46424	108573	0	0	8189	558610	0	0
2024-09-24 08:10:47			0	38037	0	0	0	23267	21850	159832	27248	1057852	46422	108573	0	0	8190	558562	0	0
2024-09-24 08:11:47			0	38064	0	0	0	23249	21850	159740	27464	1057852	46422	108566	0	0	8191	557493	0	0
2024-09-24 08:12:47			0	38061	0	0	0	23259	21850	159900	27483	1057798	46411	108570	0	0	8191	557612	0	0
2024-09-24 08:13:47			0	38071	0	0	0	23257	21840	159820	27519	1057789	46410	108569	0	0	8192	557248	0	0
2024-09-24 08:14:47			0	38068	0	0	0	23259	21850	159808	27332	1057772	46433	108570	0	0	8191	557335	0	0
2024-09-24 08:15:47			0	38096	0	0	0	23257	21850	159768	27511	1057754	46433	108569	0	0	8193	556229	0	0
2024-09-24 08:16:47			0	38072	0	0	0	23254	21850	159696	27300	1057807	46433	108568	0	0	8192	557177	0	0
2024-09-24 08:17:47			0	38092	0	0	0	23257	21850	159624	27253	1057772	46411	108569	0	0	8193	556387	0	0
2024-09-24 08:18:47			0	38090	0	0	0	23259	21850	159572	27569	1057772	46422	108570	0	0	8193	556466	0	0
2024-09-24 08:19:47			0	38095	0	0	0	23246	21840	159568	27537	1057763	46432	108565	0	0	8193	556299	0	0
2024-09-24 08:20:47			0	38120	0	0	0	23254	21850	159568	27478	1057798	46411	108568	0	0	8195	555281	0	0
2024-09-24 08:21:47			0	38103	0	0	0	23246	21840	159568	27144	1057763	46421	108565	0	0	8194	555983	0	0
2024-09-24 08:22:47			0	38095	0	0	0	23246	21840	159672	27319	1057763	46432	108565	0	0	8193	556299	0	0
2024-09-24 08:23:47			0	38101	0	0	0	23246	21840	159748	27362	1057727	46421	108565	0	0	8194	556062	0	0
2024-09-24 08:24:47			0	38093	0	0	0	23254	21840	159692	27583	1057807	46421	108568	0	0	8193	556378	0	0
2024-09-24 08:25:47			0	38108	0	0	0	23249	21840	159556	27362	1057763	46410	108566	0	0	8194	555786	0	0
2024-09-24 08:26:47			0	38122	0	0	0	23249	21840	159488	27329	1057709	46421	108566	0	0	8195	555234	0	0
2024-09-24 08:27:47			0	38129	0	0	0	23244	21850	159408	27493	1057825	46433	108564	0	0	8195	554926	0	0
2024-09-24 08:28:47			0	38141	0	0	0	23249	21840	159448	27504	1057780	46399	108566	0	0	8196	554484	0	0
2024-09-24 08:29:47			0	38133	0	0	0	23236	21850	159512	27130	1057798	46422	108561	0	0	8196	554769	0	0
2024-09-24 08:30:47			0	38139	0	0	0	23251	21840	159440	27680	1057736	46421	108567	0	0	8196	554563	0	0
2024-09-24 08:31:47			0	38156	0	0	0	23246	21840	159384	27464	1057789	46421	108565	0	0	8197	553893	0	0
2024-09-24 08:32:47			0	38167	0	0	0	23257	21840	159396	27765	1057780	46410	108569	0	0	8197	553460	0	0
2024-09-24 08:33:47			0	38156	0	0	0	23257	21840	159344	27557	1057763	46421	108569	0	0	8197	553893	0	0
2024-09-24 08:34:47			0	38173	0	0	0	23249	21830	159336	27457	1057736	46420	108566	0	0	8198	553255	0	0
2024-09-24 08:35:47			0	38177	0	0	0	23254	21840	159332	27488	1057816	46432	108568	0	0	8198	553067	0	0
2024-09-24 08:36:47			0	38185	0	0	0	23262	21840	159264	27377	1057736	46421	108571	0	0	8198	552752	0	0
2024-09-24 08:37:47			0	38205	0	0	0	23264	21840	159288	27516	1057763	46421	108572	0	0	8199	551965	0	0
2024-09-24 08:38:47			0	38202	0	0	0	23249	21840	159180	27284	1057754	46421	108566	0	0	8199	552083	0	0
2024-09-24 08:39:47			0	38211	0	0	0	23254	21840	159076	27517	1057727	46421	108568	0	0	8200	551730	0	0
2024-09-24 08:40:47			0	38220	0	0	0	23251	21840	159176	27495	1057700	46421	108567	0	0	8200	551376	0	0
2024-09-24 08:41:47			0	38239	0	0	0	23251	21840	159152	27369	1057736	46432	108567	0	0	8202	550630	0	0
2024-09-24 08:42:47			0	38217	0	0	0	23254	21840	159268	27467	1057780	46432	108568	0	0	8200	551494	0	0
2024-09-24 08:43:47			0	38235	0	0	0	23254	21850	159112	27621	1057772	46422	108568	0	0	8201	550757	0	0
2024-09-24 08:44:47			0	38238	0	0	0	23257	21840	159204	27206	1057754	46443	108569	0	0	8201	550670	0	0
2024-09-24 08:45:47			0	38234	0	0	0	23251	21840	159124	27258	1057780	46432	108567	0	0	8201	550826	0	0
2024-09-24 08:46:47			0	38232	0	0	0	23241	21840	159140	27263	1057727	46421	108563	0	0	8201	550905	0	0
2024-09-24 08:47:47			0	38229	0	0	0	23244	21840	159156	27421	1057789	46421	108564	0	0	8201	551023	0	0
2024-09-24 08:48:47			0	38219	0	0	0	23231	21840	159180	27322	1057683	46410	108559	0	0	8201	551415	0	0
2024-09-24 08:49:47			0	38217	0	0	0	23251	21840	159240	27604	1057789	46421	108567	0	0	8200	551494	0	0
2024-09-24 08:50:47			0	38227	0	0	0	23246	21840	159248	27422	1057727	46421	108565	0	0	8201	551101	0	0
2024-09-24 08:51:47			0	38226	0	0	0	23249	21830	159196	27474	1057718	46420	108566	0	0	8201	551171	0	0
2024-09-24 08:52:47			0	38243	0	0	0	23244	21840	159240	27357	1057754	46432	108564	0	0	8202	550473	0	0
2024-09-24 08:53:47			0	38228	0	0	0	23251	21830	159188	27478	1057736	46420	108567	0	0	8201	551093	0	0
2024-09-24 08:54:47			0	38228	0	0	0	23251	21830	159232	27244	1057691	46409	108567	0	0	8201	551093	0	0
2024-09-24 08:55:47			0	38247	0	0	0	23259	21840	159204	27365	1057700	46432	108570	0	0	8202	550316	0	0
2024-09-24 08:56:47			0	38240	0	0	0	23251	21840	159144	27398	1057807	46432	108567	0	0	8202	550591	0	0
2024-09-24 08:57:47			0	38235	0	0	0	23244	21840	159224	27486	1057807	46421	108564	0	0	8201	550787	0	0
2024-09-24 08:58:47			0	38233	0	0	0	23241	21840	159212	27173	1057736	46421	108563	0	0	8201	550866	0	0
2024-09-24 08:59:47			0	38227	0	0	0	23244	21840	159140	27150	1057736	46432	108564	0	0	8201	551101	0	0
2024-09-24 09:00:47			0	38232	0	0	0	23238	21830	159128	26965	1057798	46409	108562	0	0	8201	550936	0	0
2024-09-24 09:01:47			0	38228	0	0	0	23251	21830	159204	27523	1057771	46431	108567	0	0	8201	551093	0	0
2024-09-24 09:02:47			0	38241	0	0	0	23254	21830	159180	27502	1057745	46420	108568	0	0	8202	550582	0	0
2024-09-24 09:03:47			0	38240	0	0	0	23259	21840	159072	27568	1057807	46421	108570	0	0	8201	550591	0	0
2024-09-24 09:04:47			0	38254	0	0	0	23254	21840	159172	27751	1057763	46421	108568	0	0	8202	550042	0	0
2024-09-24 09:05:47			0	38249	0	0	0	23238	21840	159100	27540	1057816	46421	108562	0	0	8202	550238	0	0
2024-09-24 09:06:47			0	38244	0	0	0	23246	21840	159120	27627	1057727	46432	108565	0	0	8202	550434	0	0
2024-09-24 09:07:47			0	38264	0	0	0	23241	21840	159172	27708	1057807	46421	108563	0	0	8203	549650	0	0
2024-09-24 09:08:47			0	38235	0	0	0	23249	21840	159108	27389	1057709	46421	108566	0	0	8201	550787	0	0
2024-09-24 09:09:47			0	38243	0	0	0	23259	21830	159080	27445	1057789	46431	108570	0	0	8202	550504	0	0
2024-09-24 09:10:47			0	38236	0	0	0	23254	21830	159044	27400	1057718	46420	108568	0	0	8201	550779	0	0
2024-09-24 09:11:47			0	38250	0	0	0	23249	21830	159092	27466	1057745	46431	108566	0	0	8202	550229	0	0
2024-09-24 09:12:47			0	38253	0	0	0	23251	21830	159088	27637	1057771	46420	108567	0	0	8202	550112	0	0
2024-09-24 09:13:47			0	38251	0	0	0	23259	21850	159060	27640	1057772	46422	108570	0	0	8202	550129	0	0
2024-09-24 09:14:47			0	38253	0	0	0	23246	21840	159132	27633	1057780	46432	108565	0	0	8202	550081	0	0
2024-09-24 09:15:47			0	38257	0	0	0	23251	21840	159072	27512	1057754	46432	108567	0	0	8203	549924	0	0
2024-09-24 09:16:47			0	38265	0	0	0	23251	21840	159136	27403	1057709	46410	108567	0	0	8203	549611	0	0
2024-09-24 09:17:47			0	38271	0	0	0	23249	21830	159048	27609	1057762	46431	108566	0	0	8203	549406	0	0
2024-09-24 09:18:47			0	38265	0	0	0	23246	21840	159056	27736	1057816	46432	108565	0	0	8203	549611	0	0
2024-09-24 09:19:47			0	38261	0	0	0	23241	21840	158884	27490	1057780	46432	108563	0	0	8203	549767	0	0
2024-09-24 09:20:47			0	38286	0	0	0	23257	21840	158944	27505	1057700	46421	108569	0	0	8204	548788	0	0
2024-09-24 09:21:47			0	38294	0	0	0	23262	21830	158924	27701	1057798	46431	108571	0	0	8205	548505	0	0
2024-09-24 09:22:47			0	38294	0	0	0	23254	21840	158956	27386	1057736	46421	108568	0	0	8205	548475	0	0
2024-09-24 09:23:47			0	38289	0	0	0	23259	21840	158968	27680	1057807	46421	108570	0	0	8204	548670	0	0
2024-09-24 09:24:47			0	38283	0	0	0	23257	21840	159028	27258	1057869	46421	108569	0	0	8204	548905	0	0
2024-09-24 09:25:47			0	38285	0	0	0	23251	21840	159004	27424	1057780	46421	108567	0	0	8204	548827	0	0
2024-09-24 09:26:47			0	38278	0	0	0	23251	21840	158976	27620	1057780	46432	108567	0	0	8204	549101	0	0
2024-09-24 09:27:47			0	38302	0	0	0	23249	21840	158948	27409	1057780	46421	108566	0	0	8205	548161	0	0
2024-09-24 09:28:47			0	38301	0	0	0	23241	21840	158924	27334	1057780	46421	108563	0	0	8205	548201	0	0
2024-09-24 09:29:47			0	38300	0	0	0	23262	21840	158952	27312	1057754	46421	108571	0	0	8205	548240	0	0
2024-09-24 09:30:47			0	38308	0	0	0	23262	21840	158932	27381	1057807	46432	108571	0	0	8205	547927	0	0
2024-09-24 09:31:47			0	38290	0	0	0	23262	21840	158884	27415	1057816	46432	108571	0	0	8204	548631	0	0
2024-09-24 09:32:47			0	38304	0	0	0	23262	21840	158976	27209	1057754	46410	108571	0	0	8205	548083	0	0
2024-09-24 09:33:47			0	38335	0	0	0	23267	21850	159008	27384	1057825	46433	108573	0	0	8207	546841	0	0
2024-09-24 09:34:47			0	38326	0	0	0	23251	21850	158964	27379	1057825	46422	108567	0	0	8207	547192	0	0
2024-09-24 09:35:47			0	38309	0	0	0	23246	21840	158912	27308	1057807	46421	108565	0	0	8206	547888	0	0
2024-09-24 09:36:47			0	38311	0	0	0	23246	21840	158856	27417	1057789	46421	108565	0	0	8206	547809	0	0
2024-09-24 09:37:47			0	38339	0	0	0	23249	21840	158900	27471	1057780	46421	108566	0	0	8207	546715	0	0
2024-09-24 09:38:47			0	38321	0	0	0	23246	21830	158896	27346	1057798	46420	108565	0	0	8206	547449	0	0
2024-09-24 09:39:47			0	38317	0	0	0	23254	21840	158800	27668	1057816	46410	108568	0	0	8206	547575	0	0
2024-09-24 09:40:47			0	38330	0	0	0	23257	21840	158812	27476	1057727	46410	108569	0	0	8207	547066	0	0
2024-09-24 09:41:47			0	38335	0	0	0	23259	21840	158724	27737	1057807	46421	108570	0	0	8207	546871	0	0
2024-09-24 09:42:47			0	38344	0	0	0	23257	21840	158708	27478	1057816	46410	108569	0	0	8208	546519	0	0
2024-09-24 09:43:47			0	38339	0	0	0	23257	21840	158652	27644	1057763	46421	108569	0	0	8207	546715	0	0
2024-09-24 09:44:47			0	38328	0	0	0	23259	21840	158760	27419	1057763	46432	108570	0	0	8207	547145	0	0
2024-09-24 09:45:47			0	38346	0	0	0	23264	21840	158776	27358	1057816	46421	108572	0	0	8208	546441	0	0
2024-09-24 09:46:47			0	38359	0	0	0	23264	21850	158788	27329	1057807	46422	108572	0	0	8208	545903	0	0
2024-09-24 09:47:47			0	38356	0	0	0	23259	21840	158684	27429	1057780	46421	108570	0	0	8208	546051	0	0
2024-09-24 09:48:47			0	38347	0	0	0	23275	21850	158724	27279	1057852	46411	108576	0	0	8207	546372	0	0
2024-09-24 09:49:47			0	38368	0	0	0	23259	21840	158684	27640	1057789	46421	108570	0	0	8209	545582	0	0
2024-09-24 09:50:47			0	38355	0	0	0	23249	21850	158592	27485	1057798	46433	108566	0	0	8208	546059	0	0
2024-09-24 09:51:47			0	38356	0	0	0	23262	21830	158664	27441	1057798	46420	108571	0	0	8208	546081	0	0
2024-09-24 09:52:47			0	38383	0	0	0	23254	21840	158676	27524	1057816	46421	108568	0	0	8210	544997	0	0
2024-09-24 09:53:47			0	38375	0	0	0	23267	21830	158728	27670	1057745	46442	108573	0	0	8209	545340	0	0
2024-09-24 09:54:47			0	38380	0	0	0	23264	21840	158652	27421	1057816	46421	108572	0	0	8210	545114	0	0
2024-09-24 09:55:47			0	38356	0	0	0	23259	21840	158600	27305	1057789	46410	108570	0	0	8208	546051	0	0
2024-09-24 09:56:47			0	38372	0	0	0	23264	21840	158612	27443	1057843	46432	108572	0	0	8209	545426	0	0
2024-09-24 09:57:47			0	38379	0	0	0	23254	21840	158552	27310	1057807	46410	108568	0	0	8210	545153	0	0
2024-09-24 09:58:47			0	38376	0	0	0	23267	21840	158548	27540	1057807	46421	108573	0	0	8209	545270	0	0
2024-09-24 09:59:47			0	38394	0	0	0	23264	21850	158548	27620	1057825	46455	108572	0	0	8210	544538	0	0
2024-09-24 10:00:47			0	38388	0	0	0	23259	21840	158536	27395	1057789	46421	108570	0	0	8210	544802	0	0
2024-09-24 10:01:47			0	38385	0	0	0	23270	21840	158536	27346	1057816	46432	108574	0	0	8210	544919	0	0
2024-09-24 10:02:47			0	38401	0	0	0	23259	21840	158560	27263	1057780	46421	108570	0	0	8211	544296	0	0
2024-09-24 10:03:47			0	38404	0	0	0	23259	21840	158552	27614	1057860	46421	108570	0	0	8211	544179	0	0
2024-09-24 10:04:47			0	38406	0	0	0	23259	21840	158436	27547	1057816	46432	108570	0	0	8211	544101	0	0
2024-09-24 10:05:47			0	38414	0	0	0	23270	21840	158444	27583	1057789	46432	108574	0	0	8211	543789	0	0
2024-09-24 10:06:47			0	38396	0	0	0	23259	21850	158488	27583	1057852	46422	108570	0	0	8211	544460	0	0
2024-09-24 10:07:47			0	38413	0	0	0	23264	21850	158528	27471	1057852	46400	108572	0	0	8212	543798	0	0
2024-09-24 10:08:47			0	38402	0	0	0	23262	21850	158480	27462	1057825	46411	108571	0	0	8211	544226	0	0
2024-09-24 10:09:47			0	38417	0	0	0	23270	21860	158508	27417	1057878	46424	108574	0	0	8212	543612	0	0
2024-09-24 10:10:47			0	38413	0	0	0	23267	21850	158572	27550	1057861	46433	108573	0	0	8211	543798	0	0
2024-09-24 10:11:47			0	38416	0	0	0	23267	21850	158456	27748	1057852	46433	108573	0	0	8212	543681	0	0
2024-09-24 10:12:47			0	38413	0	0	0	23262	21850	158476	27665	1057852	46433	108571	0	0	8212	543798	0	0
2024-09-24 10:13:47			0	38430	0	0	0	23264	21840	158412	27776	1057816	46443	108572	0	0	8212	543166	0	0
2024-09-24 10:14:47			0	38428	0	0	0	23259	21850	158424	27397	1057825	46422	108570	0	0	8212	543214	0	0
2024-09-24 10:15:47			0	38426	0	0	0	23267	21850	158432	27526	1057852	46444	108573	0	0	8212	543292	0	0
2024-09-24 10:16:47			0	38439	0	0	0	23270	21850	158300	27547	1057852	46433	108574	0	0	8213	542786	0	0
2024-09-24 10:17:47			0	38443	0	0	0	23270	21840	158448	27685	1057869	46421	108574	0	0	8213	542661	0	0
2024-09-24 10:18:47			0	38445	0	0	0	23270	21860	158340	27684	1057843	46423	108574	0	0	8213	542522	0	0
2024-09-24 10:19:47			0	38446	0	0	0	23272	21850	158340	27803	1057878	46433	108575	0	0	8213	542514	0	0
2024-09-24 10:20:47			0	38441	0	0	0	23272	21850	158256	27635	1057914	46422	108575	0	0	8213	542708	0	0
2024-09-24 10:21:47			0	38456	0	0	0	23262	21850	158308	27372	1057887	46433	108571	0	0	8214	542125	0	0
2024-09-24 10:22:47			0	38462	0	0	0	23270	21860	158356	27183	1057870	46412	108574	0	0	8214	541862	0	0
2024-09-24 10:23:47			0	38457	0	0	0	23277	21860	158296	27376	1057870	46434	108577	0	0	8214	542056	0	0
2024-09-24 10:24:47			0	38460	0	0	0	23272	21850	158212	27592	1057905	46411	108575	0	0	8214	541970	0	0
2024-09-24 10:25:47			0	38479	0	0	0	23275	21850	158268	27594	1057887	46422	108576	0	0	8215	541232	0	0
2024-09-24 10:26:47			0	38475	0	0	0	23275	21850	158324	27479	1057941	46411	108576	0	0	8215	541387	0	0
2024-09-24 10:27:47			0	38443	0	0	0	23277	21860	158216	27282	1057816	46423	108577	0	0	8213	542600	0	0
2024-09-24 10:28:47			0	38450	0	0	0	23272	21870	158168	27424	1057870	46424	108575	0	0	8214	542298	0	0
2024-09-24 10:29:47			0	38484	0	0	0	23272	21850	158108	27668	1057887	46433	108575	0	0	8216	541037	0	0
2024-09-24 10:30:47			0	38474	0	0	0	23280	21860	158108	27301	1057905	46424	108578	0	0	8215	541396	0	0
2024-09-24 10:31:47			0	38495	0	0	0	23275	21860	158068	27301	1057878	46424	108576	0	0	8216	540580	0	0
2024-09-24 10:32:47			0	38496	0	0	0	23285	21860	157992	27251	1057896	46423	108580	0	0	8216	540542	0	0
2024-09-24 10:33:47			0	38489	0	0	0	23283	21860	157996	27611	1057905	46435	108579	0	0	8216	540813	0	0
2024-09-24 10:34:47			0	38492	0	0	0	23270	21850	158016	27393	1057905	46433	108574	0	0	8216	540727	0	0
2024-09-24 10:35:47			0	38508	0	0	0	23288	21860	158100	27178	1057905	46457	108581	0	0	8217	540076	0	0
2024-09-24 10:36:47			0	38504	0	0	0	23285	21860	157932	27838	1057976	46423	108580	0	0	8216	540231	0	0
2024-09-24 10:37:47			0	38510	0	0	0	23290	21870	158004	27796	1057941	46435	108582	0	0	8217	539969	0	0
2024-09-24 10:38:47			0	38489	0	0	0	23288	21860	158108	27332	1057923	46423	108581	0	0	8216	540813	0	0
2024-09-24 10:39:47			0	38509	0	0	0	23303	21860	157928	27717	1057932	46424	108587	0	0	8216	540037	0	0
2024-09-24 10:40:47			0	38520	0	0	0	23306	21880	157912	27345	1058012	46447	108588	0	0	8217	539551	0	0
2024-09-24 10:41:47			0	38526	0	0	0	23296	21870	157868	27358	1058056	46435	108584	0	0	8218	539348	0	0
2024-09-24 10:42:47			0	38537	0	0	0	23303	21870	157924	27455	1058047	46424	108587	0	0	8218	538922	0	0
2024-09-24 10:43:47			0	38526	0	0	0	23309	21870	157828	27672	1058021	46435	108589	0	0	8217	539348	0	0
2024-09-24 10:44:47			0	38524	0	0	0	23306	21880	157856	27514	1058021	46437	108588	0	0	8217	539396	0	0
2024-09-24 10:45:47			0	38530	0	0	0	23314	21880	157936	27621	1058039	46436	108591	0	0	8218	539164	0	0
2024-09-24 10:46:47			0	38521	0	0	0	23306	21890	157940	27211	1058057	46448	108588	0	0	8217	539482	0	0
2024-09-24 10:47:47			0	38537	0	0	0	23314	21880	157864	27725	1058048	46437	108591	0	0	8218	538892	0	0
2024-09-24 10:48:47			0	38544	0	0	0	23316	21880	157880	27523	1058074	46437	108592	0	0	8218	538621	0	0
2024-09-24 10:49:47			0	38554	0	0	0	23322	21890	157768	27814	1058083	46437	108594	0	0	8219	538204	0	0
2024-09-24 10:50:47			0	38556	0	0	0	23319	21890	157784	27223	1058065	46426	108593	0	0	8219	538127	0	0
2024-09-24 10:51:47			0	38550	0	0	0	23322	21890	157784	27474	1058083	46437	108594	0	0	8219	538359	0	0
2024-09-24 10:52:47			0	38540	0	0	0	23327	21900	157812	27649	1058128	46449	108596	0	0	8218	538716	0	0
2024-09-24 10:53:47			0	38555	0	0	0	23322	21900	157760	27554	1058074	46438	108594	0	0	8219	538136	0	0
2024-09-24 10:54:47			0	38558	0	0	0	23319	21900	157800	27604	1058110	46428	108593	0	0	8219	538020	0	0
2024-09-24 10:55:47			0	38559	0	0	0	23324	21890	157756	27685	1058092	46448	108595	0	0	8219	538011	0	0
2024-09-24 10:56:47			0	38555	0	0	0	23329	21900	157776	27673	1058110	46439	108597	0	0	8219	538136	0	0
2024-09-24 10:57:47			0	38558	0	0	0	23329	21900	157760	27706	1058181	46438	108597	0	0	8219	538020	0	0
2024-09-24 10:58:47			0	38570	0	0	0	23337	21900	157632	27469	1058217	46439	108600	0	0	8220	537556	0	0
2024-09-24 10:59:47			0	38602	0	0	0	23342	21910	157580	27670	1058199	46450	108602	0	0	8221	536289	0	0
2024-09-24 11:00:47			0	38605	0	0	0	23353	21910	157592	27547	1058199	46450	108606	0	0	8221	536174	0	0
2024-09-24 11:01:47			0	38620	0	0	0	23348	21910	157524	27770	1058208	46451	108604	0	0	8222	535595	0	0
2024-09-24 11:02:47			0	38651	0	0	0	23358	21920	157392	27360	1058324	46429	108608	0	0	8224	534370	0	0
2024-09-24 11:03:47			0	38644	0	0	0	23355	21920	157468	27637	1058270	46451	108607	0	0	8224	534640	0	0
2024-09-24 11:04:47			0	38647	0	0	0	23350	21920	157432	27473	1058306	46441	108605	0	0	8224	534524	0	0
2024-09-24 11:05:47			0	38638	0	0	0	23342	21920	157376	27279	1058279	46441	108602	0	0	8224	534871	0	0
2024-09-24 11:06:47			0	38622	0	0	0	23358	21930	157344	27362	1058235	46442	108608	0	0	8222	535458	0	0
2024-09-24 11:07:47			0	38628	0	0	0	23366	21930	157400	27454	1058324	46453	108611	0	0	8223	535227	0	0
2024-09-24 11:08:47			0	38648	0	0	0	23363	21930	157324	27673	1058324	46431	108610	0	0	8224	534456	0	0
2024-09-24 11:09:47			0	38664	0	0	0	23381	21930	157336	27260	1058324	46453	108617	0	0	8224	533840	0	0
2024-09-24 11:10:47			0	38680	0	0	0	23371	21930	157264	27457	1058341	46463	108613	0	0	8226	533224	0	0
2024-09-24 11:11:47			0	38708	0	0	0	23373	21940	157212	27466	1058368	46432	108614	0	0	8227	532118	0	0
2024-09-24 11:12:47			0	38670	0	0	0	23366	21950	157208	27490	1058377	46433	108611	0	0	8225	533549	0	0
2024-09-24 11:13:47			0	38683	0	0	0	23361	21950	157188	27911	1058377	46444	108609	0	0	8226	533049	0	0
2024-09-24 11:14:47			0	38694	0	0	0	23366	21950	157296	27152	1058377	46444	108611	0	0	8227	532626	0	0
2024-09-24 11:15:47			0	38701	0	0	0	23368	21940	157240	27649	1058342	46454	108612	0	0	8227	532387	0	0
2024-09-24 11:16:47			0	38709	0	0	0	23358	21950	157268	27592	1058387	46444	108608	0	0	8228	532050	0	0
2024-09-24 11:17:47			0	38681	0	0	0	23350	21940	157284	27588	1058368	46421	108605	0	0	8226	533156	0	0
2024-09-24 11:18:47			0	38685	0	0	0	23366	21950	157260	27460	1058431	46433	108611	0	0	8226	532972	0	0
2024-09-24 11:19:47			0	38708	0	0	0	23358	21940	157236	27386	1058359	46453	108608	0	0	8227	532118	0	0
2024-09-24 11:20:47			0	38653	0	0	0	23361	21960	157284	27602	1058395	46421	108609	0	0	8224	534174	0	0
2024-09-24 11:21:47			0	38656	0	0	0	23350	21940	157436	27654	1058306	46442	108605	0	0	8225	534118	0	0
2024-09-24 11:22:47			0	38644	0	0	0	23350	21930	157428	27727	1058350	46431	108605	0	0	8224	534610	0	0
2024-09-24 11:23:47			0	38664	0	0	0	23358	21950	157264	27462	1058377	46433	108608	0	0	8225	533780	0	0
2024-09-24 11:24:47			0	38670	0	0	0	23366	21940	157276	27516	1058422	46432	108611	0	0	8225	533579	0	0
2024-09-24 11:25:47			0	38690	0	0	0	23384	21950	157360	27602	1058351	46433	108618	0	0	8226	532780	0	0
2024-09-24 11:26:47			0	38703	0	0	0	23392	21940	157160	27620	1058395	46443	108621	0	0	8227	532310	0	0
2024-09-24 11:27:47			0	38717	0	0	0	23381	21950	157164	27374	1058440	46433	108617	0	0	8228	531742	0	0
2024-09-24 11:28:47			0	38709	0	0	0	23384	21950	156984	27715	1058431	46433	108618	0	0	8227	532050	0	0
2024-09-24 11:29:47			0	38729	0	0	0	23394	21950	157117	27367	1058440	46444	108622	0	0	8228	531282	0	0
2024-09-24 11:30:47			0	38736	0	0	0	23397	21960	157121	27469	1058449	46444	108623	0	0	8229	530983	0	0
2024-09-24 11:31:47			0	38723	0	0	0	23371	21960	156949	27218	1058431	46434	108613	0	0	8228	531482	0	0
2024-09-24 11:32:47			0	38704	0	0	0	23373	21950	157204	27383	1058413	46433	108614	0	0	8227	532242	0	0
2024-09-24 11:33:47			0	38697	0	0	0	23373	21960	157156	27543	1058369	46444	108614	0	0	8227	532481	0	0
2024-09-24 11:34:47			0	38725	0	0	0	23397	21960	157140	27431	1058484	46445	108623	0	0	8228	531406	0	0
2024-09-24 11:35:47			0	38755	0	0	0	23405	21960	157037	27497	1058475	46444	108626	0	0	8229	530255	0	0
2024-09-24 11:36:47			0	38761	0	0	0	23410	21970	157017	27374	1058502	46467	108628	0	0	8230	529995	0	0
2024-09-24 11:37:47			0	38738	0	0	0	23415	21970	156925	27310	1058547	46446	108630	0	0	8228	530877	0	0
2024-09-24 11:38:47			0	38766	0	0	0	23431	21970	156997	27507	1058547	46467	108636	0	0	8230	529804	0	0
2024-09-24 11:39:47			0	38780	0	0	0	23410	21980	157017	27878	1058520	46447	108628	0	0	8231	529238	0	0
2024-09-24 11:40:47			0	38761	0	0	0	23402	21980	156941	27585	1058538	46457	108625	0	0	8230	529965	0	0
2024-09-24 11:41:47			0	38761	0	0	0	23415	21980	156989	27369	1058547	46458	108630	0	0	8230	529965	0	0
2024-09-24 11:42:47			0	38752	0	0	0	23420	21980	157037	27606	1058565	46457	108632	0	0	8229	530311	0	0
2024-09-24 11:43:47			0	38765	0	0	0	23412	21980	156905	27180	1058591	46457	108629	0	0	8230	529812	0	0
2024-09-24 11:44:47			0	38750	0	0	0	23415	21980	156997	27274	1058574	46458	108630	0	0	8229	530387	0	0
2024-09-24 11:45:47			0	38745	0	0	0	23418	21980	156989	27358	1058574	46436	108631	0	0	8229	530579	0	0
2024-09-24 11:46:47			0	38773	0	0	0	23449	21990	156985	27661	1058609	46481	108643	0	0	8230	529476	0	0
2024-09-24 11:47:47			0	38766	0	0	0	23420	21990	156985	27422	1058565	46438	108632	0	0	8230	529744	0	0
2024-09-24 11:48:47			0	38748	0	0	0	23420	21990	156945	27763	1058636	46448	108632	0	0	8229	530434	0	0
2024-09-24 11:49:47			0	38738	0	0	0	23418	22010	156945	27505	1058636	46449	108631	0	0	8228	530759	0	0
2024-09-24 11:50:47			0	38734	0	0	0	23423	21990	157057	27277	1058636	46448	108633	0	0	8228	530971	0	0
2024-09-24 11:51:47			0	38717	0	0	0	23423	21990	157116	27504	1058556	46448	108633	0	0	8227	531624	0	0
2024-09-24 11:52:47			0	38719	0	0	0	23423	21990	156997	27383	1058618	46438	108633	0	0	8227	531547	0	0
2024-09-24 11:53:47			0	38729	0	0	0	23433	22000	157137	27360	1058627	46438	108637	0	0	8228	531134	0	0
2024-09-24 11:54:47			0	38732	0	0	0	23436	22010	157005	27402	1058663	46449	108638	0	0	8228	530989	0	0
2024-09-24 11:55:47			0	38741	0	0	0	23436	22010	156981	27341	1058689	46459	108638	0	0	8228	530643	0	0
2024-09-24 11:56:47			0	38739	0	0	0	23431	22010	157025	27543	1058769	46449	108636	0	0	8228	530720	0	0
2024-09-24 11:57:47			0	38742	0	0	0	23449	22010	156953	27552	1058769	46449	108643	0	0	8228	530605	0	0
2024-09-24 11:58:47			0	38755	0	0	0	23451	22010	157001	27798	1058752	46450	108644	0	0	8229	530107	0	0
2024-09-24 11:59:47			0	38765	0	0	0	23464	22020	156921	27345	1058787	46451	108649	0	0	8229	529694	0	0
2024-09-24 12:00:47			0	38754	0	0	0	23454	22020	156805	27696	1058734	46451	108645	0	0	8229	530116	0	0
2024-09-24 12:01:47			0	38755	0	0	0	23475	22020	156909	27531	1058823	46451	108653	0	0	8229	530077	0	0
2024-09-24 12:02:47			0	38769	0	0	0	23477	22030	156877	27454	1058787	46474	108654	0	0	8229	529511	0	0
2024-09-24 12:03:47			0	38802	0	0	0	23485	22030	156781	27457	1058779	46461	108657	0	0	8231	528248	0	0
2024-09-24 12:04:47			0	38787	0	0	0	23470	22030	156737	27478	1058841	46452	108651	0	0	8231	528822	0	0
2024-09-24 12:05:47			0	38766	0	0	0	23470	22030	156861	27500	1058894	46462	108651	0	0	8229	529626	0	0
2024-09-24 12:06:47			0	38787	0	0	0	23470	22040	156789	27280	1058859	46453	108651	0	0	8231	528793	0	0
2024-09-24 12:07:47			0	38784	0	0	0	23480	22040	156785	27658	1058850	46453	108655	0	0	8230	528908	0	0
2024-09-24 12:08:47			0	38775	0	0	0	23470	22040	156773	27507	1058823	46442	108651	0	0	8230	529252	0	0
2024-09-24 12:09:47			0	38759	0	0	0	23483	22050	156845	27319	1058948	46453	108656	0	0	8229	529835	0	0
2024-09-24 12:10:47			0	38780	0	0	0	23477	22050	156757	27466	1058921	46453	108654	0	0	8230	529031	0	0
2024-09-24 12:11:47			0	38780	0	0	0	23488	22040	156873	27654	1058832	46453	108658	0	0	8230	529061	0	0
2024-09-24 12:12:47			0	38762	0	0	0	23488	22050	156725	27731	1058894	46463	108658	0	0	8229	529720	0	0
2024-09-24 12:13:47			0	38796	0	0	0	23498	22050	156753	27336	1058948	46453	108662	0	0	8231	528419	0	0
2024-09-24 12:14:47			0	38794	0	0	0	23467	22050	156809	27523	1058903	46476	108650	0	0	8231	528495	0	0
2024-09-24 12:15:47			0	38761	0	0	0	23475	22060	156845	27422	1058922	46456	108653	0	0	8229	529729	0	0
2024-09-24 12:16:47			0	38784	0	0	0	23514	22050	156765	27448	1058957	46464	108668	0	0	8230	528878	0	0
2024-09-24 12:17:47			0	38792	0	0	0	23496	22060	156737	27299	1058939	46444	108661	0	0	8231	528542	0	0
2024-09-24 12:18:47			0	38779	0	0	0	23498	22060	156885	27393	1058993	46455	108662	0	0	8230	529040	0	0
2024-09-24 12:19:47			0	38759	0	0	0	23475	22070	156769	27327	1059019	46434	108653	0	0	8229	529776	0	0
2024-09-24 12:20:47			0	38750	0	0	0	23488	22070	156901	27580	1058931	46466	108658	0	0	8228	530121	0	0
2024-09-24 12:21:47			0	38743	0	0	0	23498	22060	156905	27229	1058939	46455	108662	0	0	8228	530419	0	0
2024-09-24 12:22:47			0	38753	0	0	0	23490	22060	156841	27843	1058975	46456	108659	0	0	8228	530036	0	0
2024-09-24 12:23:47			0	38766	0	0	0	23480	22070	156893	27383	1058957	46445	108655	0	0	8229	529508	0	0
2024-09-24 12:24:47			0	38758	0	0	0	23506	22070	156917	27595	1059019	46456	108665	0	0	8228	529815	0	0
2024-09-24 12:25:47			0	38770	0	0	0	23516	22070	156773	27239	1059019	46445	108669	0	0	8229	529355	0	0
2024-09-24 12:26:47			0	38798	0	0	0	23529	22070	156773	27583	1059073	46466	108674	0	0	8230	528283	0	0
2024-09-24 12:27:47			0	38782	0	0	0	23516	22080	156741	27303	1059002	46446	108669	0	0	8230	528866	0	0
2024-09-24 12:28:47			0	38812	0	0	0	23527	22070	156617	27445	1059073	46456	108673	0	0	8231	527748	0	0
2024-09-24 12:29:47			0	38803	0	0	0	23509	22090	156709	27185	1059100	46468	108666	0	0	8231	528033	0	0
2024-09-24 12:30:47			0	38801	0	0	0	23540	22080	156749	27478	1059055	46467	108678	0	0	8230	528139	0	0
2024-09-24 12:31:47			0	38798	0	0	0	23537	22090	156785	27685	1059109	46468	108677	0	0	8230	528225	0	0
2024-09-24 12:32:47			0	38800	0	0	0	23532	22090	156605	27642	1059109	46447	108675	0	0	8231	528148	0	0
2024-09-24 12:33:47			0	38804	0	0	0	23548	22100	156705	27289	1059154	46459	108681	0	0	8231	527966	0	0
2024-09-24 12:34:47			0	38826	0	0	0	23550	22090	156629	27384	1059136	46458	108682	0	0	8232	527155	0	0
2024-09-24 12:35:47			0	38812	0	0	0	23532	22110	156665	27320	1059216	46459	108675	0	0	8231	527631	0	0
2024-09-24 12:36:47			0	38811	0	0	0	23550	22110	156545	27821	1059198	46459	108682	0	0	8231	527669	0	0
2024-09-24 12:37:47			0	38800	0	0	0	23542	22120	156565	27798	1059216	46472	108679	0	0	8230	528060	0	0
2024-09-24 12:38:47			0	38823	0	0	0	23561	22110	156569	27365	1059251	46459	108686	0	0	8231	527210	0	0
2024-09-24 12:39:47			0	38839	0	0	0	23566	22120	156601	27466	1059207	46471	108688	0	0	8232	526570	0	0
2024-09-24 12:40:47			0	38839	0	0	0	23548	22120	156453	27594	1059243	46461	108681	0	0	8233	526570	0	0
2024-09-24 12:41:47			0	38826	0	0	0	23548	22130	156529	27833	1059252	46462	108681	0	0	8232	527037	0	0
2024-09-24 12:42:47			0	38798	0	0	0	23545	22120	156569	27556	1059243	46451	108680	0	0	8230	528136	0	0
2024-09-24 12:43:47			0	38779	0	0	0	23553	22120	156657	27746	1059243	46461	108683	0	0	8229	528863	0	0
2024-09-24 12:44:47			0	38796	0	0	0	23566	22130	156613	27237	1059305	46462	108688	0	0	8230	528183	0	0
2024-09-24 12:45:47			0	38791	0	0	0	23581	22130	156653	27543	1059278	46485	108694	0	0	8229	528374	0	0
2024-09-24 12:46:47			0	38819	0	0	0	23592	22130	156565	27320	1059314	46452	108698	0	0	8231	527304	0	0
2024-09-24 12:47:47			0	38820	0	0	0	23574	22140	156537	27239	1059359	46486	108691	0	0	8231	527237	0	0
2024-09-24 12:48:47			0	38847	0	0	0	23589	22130	156377	27753	1059341	46474	108697	0	0	8232	526235	0	0
2024-09-24 12:49:47			0	38841	0	0	0	23599	22150	156461	27627	1059394	46464	108701	0	0	8232	526406	0	0
2024-09-24 12:50:47			0	38850	0	0	0	23605	22150	156385	27481	1059394	46487	108703	0	0	8232	526062	0	0
2024-09-24 12:51:47			0	38844	0	0	0	23612	22150	156413	27410	1059457	46508	108706	0	0	8232	526291	0	0
2024-09-24 12:52:47			0	38864	0	0	0	23597	22150	156261	27455	1059537	46498	108700	0	0	8233	525529	0	0
2024-09-24 12:53:47			0	38881	0	0	0	23615	22160	156325	27552	1059554	46465	108707	0	0	8234	524851	0	0
2024-09-24 12:54:47			0	38865	0	0	0	23589	22170	156377	27355	1059483	46466	108697	0	0	8234	525432	0	0
2024-09-24 12:55:47			0	38851	0	0	0	23581	22170	156393	27474	1059537	46456	108694	0	0	8233	525965	0	0
2024-09-24 12:56:47			0	38815	0	0	0	23589	22160	156481	27481	1059528	46476	108697	0	0	8231	527369	0	0
2024-09-24 12:57:47			0	38831	0	0	0	23586	22160	156429	27166	1059501	46455	108696	0	0	8232	526758	0	0
2024-09-24 12:58:47			0	38820	0	0	0	23576	22170	156469	27088	1059537	46466	108692	0	0	8231	527148	0	0
2024-09-24 12:59:47			0	38833	0	0	0	23599	22160	156393	27556	1059519	46475	108701	0	0	8232	526681	0	0
2024-09-24 13:00:47			0	38859	0	0	0	23615	22180	156409	27105	1059501	46456	108707	0	0	8233	525631	0	0
2024-09-24 13:01:47			0	38880	0	0	0	23623	22170	156341	27460	1059626	46456	108710	0	0	8234	524860	0	0
2024-09-24 13:02:47			0	38884	0	0	0	23605	22180	156329	27235	1059617	46467	108703	0	0	8235	524679	0	0
2024-09-24 13:03:47			0	38866	0	0	0	23597	22170	156341	27611	1059483	46466	108700	0	0	8234	525394	0	0
2024-09-24 13:04:47			0	38858	0	0	0	23592	22180	156233	27324	1059510	46457	108698	0	0	8233	525669	0	0
2024-09-24 13:05:47			0	38864	0	0	0	23592	22180	156377	27512	1059528	46456	108698	0	0	8234	525441	0	0
2024-09-24 13:06:47			0	38840	0	0	0	23579	22180	156457	27208	1059501	46445	108693	0	0	8232	526356	0	0
2024-09-24 13:07:47			0	38840	0	0	0	23592	22170	156493	27434	1059403	46466	108698	0	0	8232	526385	0	0
2024-09-24 13:08:47			0	38853	0	0	0	23607	22170	156549	27222	1059519	46456	108704	0	0	8233	525889	0	0
2024-09-24 13:09:47			0	38842	0	0	0	23605	22180	156481	27320	1059484	46467	108703	0	0	8232	526279	0	0
2024-09-24 13:10:47			0	38863	0	0	0	23623	22180	156433	27377	1059528	46456	108710	0	0	8233	525479	0	0
2024-09-24 13:11:47			0	38900	0	0	0	23623	22170	156361	27744	1059563	46466	108710	0	0	8235	524099	0	0
2024-09-24 13:12:47			0	38888	0	0	0	23625	22180	156245	27512	1059590	46467	108711	0	0	8234	524526	0	0
2024-09-24 13:13:47			0	38910	0	0	0	23628	22180	156201	27630	1059644	46479	108712	0	0	8236	523689	0	0
2024-09-24 13:14:47			0	38897	0	0	0	23631	22190	156201	27767	1059626	46468	108713	0	0	8235	524155	0	0
2024-09-24 13:15:47			0	38918	0	0	0	23636	22180	156253	27640	1059644	46467	108715	0	0	8236	523385	0	0
2024-09-24 13:16:47			0	38911	0	0	0	23636	22190	156165	27840	1059679	46480	108715	0	0	8236	523622	0	0
2024-09-24 13:17:47			0	38921	0	0	0	23641	22200	156093	27402	1059697	46469	108717	0	0	8236	523212	0	0
2024-09-24 13:18:47			0	38915	0	0	0	23620	22200	156065	27575	1059733	46469	108709	0	0	8236	523441	0	0
2024-09-24 13:19:47			0	38893	0	0	0	23615	22200	156213	27803	1059626	46469	108707	0	0	8235	524277	0	0
2024-09-24 13:20:47			0	38913	0	0	0	23633	22200	156233	27654	1059653	46458	108714	0	0	8236	523517	0	0
2024-09-24 13:21:47			0	38913	0	0	0	23636	22210	156101	27377	1059662	46503	108715	0	0	8236	523487	0	0
2024-09-24 13:22:47			0	38929	0	0	0	23649	22200	156145	27554	1059653	46458	108720	0	0	8236	522908	0	0
2024-09-24 13:23:47			0	38916	0	0	0	23633	22210	156093	27592	1059724	46494	108714	0	0	8236	523373	0	0
2024-09-24 13:24:47			0	38926	0	0	0	23638	22210	156153	27229	1059662	46470	108716	0	0	8237	522993	0	0
2024-09-24 13:25:47			0	38922	0	0	0	23641	22210	156085	27293	1059698	46494	108717	0	0	8236	523145	0	0
2024-09-24 13:26:47			0	38914	0	0	0	23636	22200	156005	27576	1059680	46458	108715	0	0	8236	523479	0	0
2024-09-24 13:27:47			0	38934	0	0	0	23641	22210	156033	27338	1059724	46471	108717	0	0	8237	522689	0	0
2024-09-24 13:28:47			0	38941	0	0	0	23641	22220	155977	27357	1059680	46471	108717	0	0	8237	522394	0	0
2024-09-24 13:29:47			0	38950	0	0	0	23641	22210	156025	27566	1059671	46471	108717	0	0	8238	522082	0	0
2024-09-24 13:30:47			0	38949	0	0	0	23644	22210	156021	27452	1059751	46471	108718	0	0	8238	522120	0	0
2024-09-24 13:31:47			0	38949	0	0	0	23631	22210	156121	27317	1059671	46460	108713	0	0	8238	522120	0	0
2024-09-24 13:32:47			0	38946	0	0	0	23623	22220	156073	27104	1059760	46460	108710	0	0	8238	522204	0	0
2024-09-24 13:33:47			0	38916	0	0	0	23625	22210	156013	27272	1059698	46460	108711	0	0	8236	523373	0	0
2024-09-24 13:34:47			0	38913	0	0	0	23623	22220	156129	27289	1059796	46460	108710	0	0	8236	523458	0	0
2024-09-24 13:35:47			0	38917	0	0	0	23631	22210	156185	27241	1059689	46459	108713	0	0	8236	523335	0	0
2024-09-24 13:36:47			0	38924	0	0	0	23631	22210	156125	27310	1059698	46460	108713	0	0	8237	523069	0	0
2024-09-24 13:37:47			0	38920	0	0	0	23623	22210	156029	27281	1059715	46459	108710	0	0	8236	523221	0	0
2024-09-24 13:38:47			0	38924	0	0	0	23620	22220	156085	27566	1059680	46483	108709	0	0	8237	523040	0	0
2024-09-24 13:39:47			0	38894	0	0	0	23618	22220	156165	27282	1059707	46460	108708	0	0	8235	524181	0	0
2024-09-24 13:40:47			0	38889	0	0	0	23612	22210	156141	27462	1059671	46471	108706	0	0	8235	524400	0	0
2024-09-24 13:41:47			0	38891	0	0	0	23615	22210	156225	27469	1059698	46471	108707	0	0	8235	524324	0	0
2024-09-24 13:42:47			0	38900	0	0	0	23623	22200	156177	27265	1059706	46481	108710	0	0	8235	524011	0	0
2024-09-24 13:43:47			0	38899	0	0	0	23625	22200	156133	27360	1059680	46469	108711	0	0	8235	524049	0	0
2024-09-24 13:44:47			0	38920	0	0	0	23636	22210	156117	27524	1059671	46471	108715	0	0	8236	523221	0	0
2024-09-24 13:45:47			0	38937	0	0	0	23638	22200	156005	27429	1059680	46481	108716	0	0	8237	522605	0	0
2024-09-24 13:46:47			0	38932	0	0	0	23625	22210	156045	27216	1059671	46471	108711	0	0	8237	522765	0	0
2024-09-24 13:47:47			0	38920	0	0	0	23605	22210	156225	27770	1059698	46471	108703	0	0	8237	523221	0	0
2024-09-24 13:48:47			0	38922	0	0	0	23607	22200	156157	27658	1059653	46469	108704	0	0	8237	523174	0	0
2024-09-24 13:49:47			0	38910	0	0	0	23625	22200	156093	27454	1059671	46458	108711	0	0	8236	523631	0	0
2024-09-24 13:50:47			0	38916	0	0	0	23620	22200	156093	27492	1059653	46448	108709	0	0	8236	523403	0	0
2024-09-24 13:51:47			0	38919	0	0	0	23618	22210	156125	27493	1059671	46450	108708	0	0	8236	523259	0	0
2024-09-24 13:52:47			0	38932	0	0	0	23631	22220	156065	27343	1059760	46471	108713	0	0	8237	522736	0	0
2024-09-24 13:53:47			0	38966	0	0	0	23623	22210	156105	27239	1059662	46482	108710	0	0	8239	521475	0	0
2024-09-24 13:54:47			0	38950	0	0	0	23618	22210	156141	27270	1059609	46470	108708	0	0	8238	522082	0	0
2024-09-24 13:55:47			0	38930	0	0	0	23605	22210	156093	26956	1059698	46471	108703	0	0	8237	522841	0	0
2024-09-24 13:56:47			0	38911	0	0	0	23597	22200	156129	27614	1059653	46469	108700	0	0	8236	523593	0	0
2024-09-24 13:57:47			0	38923	0	0	0	23602	22200	156105	27590	1059680	46469	108702	0	0	8237	523136	0	0
2024-09-24 13:58:47			0	38912	0	0	0	23607	22210	156025	27319	1059635	46470	108704	0	0	8236	523526	0	0
2024-09-24 13:59:47			0	38920	0	0	0	23597	22200	156157	27738	1059573	46469	108700	0	0	8237	523251	0	0
2024-09-24 14:00:47			0	38919	0	0	0	23605	22200	156149	27613	1059653	46458	108703	0	0	8237	523289	0	0
2024-09-24 14:01:47			0	38907	0	0	0	23602	22200	156177	27588	1059644	46469	108702	0	0	8236	523745	0	0
2024-09-24 14:02:47			0	38906	0	0	0	23599	22190	156077	27556	1059608	46469	108701	0	0	8236	523812	0	0
2024-09-24 14:03:47			0	38915	0	0	0	23589	22190	156101	27327	1059608	46458	108697	0	0	8237	523470	0	0
2024-09-24 14:04:47			0	38888	0	0	0	23599	22190	156153	27556	1059573	46447	108701	0	0	8235	524497	0	0
2024-09-24 14:05:47			0	38920	0	0	0	23605	22190	156121	27554	1059608	46458	108703	0	0	8237	523280	0	0
2024-09-24 14:06:47			0	38935	0	0	0	23612	22200	155985	27355	1059564	46458	108706	0	0	8237	522680	0	0
2024-09-24 14:07:47			0	38946	0	0	0	23620	22190	156001	27433	1059653	46480	108709	0	0	8238	522292	0	0
2024-09-24 14:08:47			0	38953	0	0	0	23610	22200	155993	27384	1059600	46469	108705	0	0	8239	521997	0	0
2024-09-24 14:09:47			0	38949	0	0	0	23602	22190	155921	27242	1059635	46458	108702	0	0	8238	522178	0	0
2024-09-24 14:10:47			0	38936	0	0	0	23594	22190	155997	27384	1059626	46491	108699	0	0	8238	522672	0	0
2024-09-24 14:11:47			0	38936	0	0	0	23610	22180	156057	27320	1059537	46467	108705	0	0	8237	522701	0	0
2024-09-24 14:12:47			0	38958	0	0	0	23620	22190	156025	27383	1059608	46469	108709	0	0	8239	521836	0	0
2024-09-24 14:13:47			0	38981	0	0	0	23618	22200	155865	27555	1059671	46469	108708	0	0	8240	520935	0	0
2024-09-24 14:14:47			0	38969	0	0	0	23610	22190	155949	27246	1059662	46458	108705	0	0	8239	521419	0	0
2024-09-24 14:15:47			0	38967	0	0	0	23602	22190	155989	27417	1059635	46469	108702	0	0	8239	521495	0	0
2024-09-24 14:16:47			0	38951	0	0	0	23594	22190	156005	27310	1059626	46468	108699	0	0	8239	522102	0	0
2024-09-24 14:17:47			0	38941	0	0	0	23623	22190	156009	27343	1059608	46458	108710	0	0	8238	522482	0	0
2024-09-24 14:18:47			0	38975	0	0	0	23623	22190	155873	27435	1059679	46468	108710	0	0	8240	521191	0	0
2024-09-24 14:19:47			0	38976	0	0	0	23612	22190	155949	27251	1059662	46492	108706	0	0	8240	521153	0	0
2024-09-24 14:20:47			0	38965	0	0	0	23618	22190	155993	27438	1059608	46469	108708	0	0	8239	521571	0	0
2024-09-24 14:21:47			0	38983	0	0	0	23612	22190	155849	27223	1059635	46469	108706	0	0	8240	520888	0	0
2024-09-24 14:22:47			0	38982	0	0	0	23610	22190	156033	27062	1059688	46469	108705	0	0	8240	520926	0	0
2024-09-24 14:23:47			0	38990	0	0	0	23615	22200	155941	27507	1059671	46469	108707	0	0	8241	520593	0	0
2024-09-24 14:24:47			0	38978	0	0	0	23620	22200	155941	27270	1059697	46469	108709	0	0	8240	521048	0	0
2024-09-24 14:25:47			0	38985	0	0	0	23623	22200	155797	27587	1059671	46481	108710	0	0	8240	520783	0	0
2024-09-24 14:26:47			0	39004	0	0	0	23633	22200	155889	27305	1059653	46458	108714	0	0	8241	520063	0	0
2024-09-24 14:27:47			0	39011	0	0	0	23623	22200	155825	27324	1059671	46481	108710	0	0	8242	519798	0	0
2024-09-24 14:28:47			0	39005	0	0	0	23618	22210	155885	27312	1059715	46470	108708	0	0	8241	519996	0	0
2024-09-24 14:29:47			0	38998	0	0	0	23633	22210	155825	27338	1059724	46483	108714	0	0	8241	520261	0	0
2024-09-24 14:30:47			0	38975	0	0	0	23620	22210	155933	27322	1059662	46459	108709	0	0	8240	521133	0	0
2024-09-24 14:31:47			0	38972	0	0	0	23607	22200	155985	27303	1059680	46469	108704	0	0	8240	521276	0	0
2024-09-24 14:32:47			0	38963	0	0	0	23610	22200	155865	27589	1059600	46458	108705	0	0	8239	521617	0	0
2024-09-24 14:33:47			0	38967	0	0	0	23607	22200	156041	27575	1059644	46469	108704	0	0	8239	521466	0	0
2024-09-24 14:34:47			0	38975	0	0	0	23620	22200	155981	27717	1059644	46469	108709	0	0	8240	521162	0	0
2024-09-24 14:35:47			0	38971	0	0	0	23623	22200	156053	27533	1059706	46481	108710	0	0	8239	521314	0	0
2024-09-24 14:36:47			0	38975	0	0	0	23623	22210	155861	27568	1059689	46470	108710	0	0	8240	521133	0	0
2024-09-24 14:37:47			0	38948	0	0	0	23594	22200	155945	27649	1059760	46458	108699	0	0	8239	522187	0	0
2024-09-24 14:38:47			0	38937	0	0	0	23615	22210	155993	27606	1059662	46470	108707	0	0	8238	522575	0	0
2024-09-24 14:39:47			0	38956	0	0	0	23625	22200	155941	27512	1059644	46458	108711	0	0	8238	521883	0	0
2024-09-24 14:40:47			0	38945	0	0	0	23625	22200	156025	27402	1059671	46469	108711	0	0	8238	522301	0	0
2024-09-24 14:41:47			0	38976	0	0	0	23625	22200	155973	27486	1059644	46481	108711	0	0	8240	521124	0	0
2024-09-24 14:42:47			0	38972	0	0	0	23628	22200	156033	27161	1059733	46458	108712	0	0	8239	521276	0	0
2024-09-24 14:43:47			0	39002	0	0	0	23641	22200	155993	27182	1059813	46469	108717	0	0	8241	520139	0	0
2024-09-24 14:44:47			0	39019	0	0	0	23633	22210	155897	27069	1059778	46483	108714	0	0	8242	519466	0	0
2024-09-24 14:45:47			0	38993	0	0	0	23633	22200	155989	27258	1059760	46469	108714	0	0	8240	520480	0	0
2024-09-24 14:46:47			0	38989	0	0	0	23633	22210	155897	27438	1059778	46460	108714	0	0	8240	520602	0	0
2024-09-24 14:47:47			0	38997	0	0	0	23638	22220	155977	27415	1059840	46483	108716	0	0	8241	520270	0	0
2024-09-24 14:48:47			0	39010	0	0	0	23649	22210	155881	27412	1059769	46482	108720	0	0	8241	519807	0	0
2024-09-24 14:49:47			0	38996	0	0	0	23651	22220	155825	27331	1059733	46494	108721	0	0	8240	520308	0	0
2024-09-24 14:50:47			0	39012	0	0	0	23654	22210	155725	27149	1059831	46494	108722	0	0	8241	519731	0	0
2024-09-24 14:51:47			0	39009	0	0	0	23646	22220	155785	27286	1059813	46471	108719	0	0	8241	519816	0	0
2024-09-24 14:52:47			0	38991	0	0	0	23646	22220	155777	27351	1059796	46494	108719	0	0	8240	520498	0	0
2024-09-24 14:53:47			0	38992	0	0	0	23628	22230	155789	27433	1059858	46461	108712	0	0	8241	520431	0	0
2024-09-24 14:54:47			0	38964	0	0	0	23633	22220	156041	27237	1059796	46471	108714	0	0	8239	521521	0	0
2024-09-24 14:55:47			0	38956	0	0	0	23636	22220	155897	27348	1059796	46460	108715	0	0	8238	521825	0	0
2024-09-24 14:56:47			0	38967	0	0	0	23636	22220	155949	27341	1059742	46460	108715	0	0	8239	521407	0	0
2024-09-24 14:57:47			0	38952	0	0	0	23644	22220	155865	27661	1059787	46483	108718	0	0	8238	521977	0	0
2024-09-24 14:58:47			0	38988	0	0	0	23651	22210	155873	27338	1059804	46471	108721	0	0	8240	520640	0	0
2024-09-24 14:59:47			0	38978	0	0	0	23644	22230	155889	27284	1059831	46472	108718	0	0	8240	520961	0	0
2024-09-24 15:00:47			0	38974	0	0	0	23631	22210	155825	27189	1059724	46471	108713	0	0	8239	521171	0	0
2024-09-24 15:01:47			0	38986	0	0	0	23628	22220	155877	27196	1059822	46471	108712	0	0	8240	520687	0	0
2024-09-24 15:02:47			0	38994	0	0	0	23625	22220	155849	26955	1059742	46460	108711	0	0	8241	520384	0	0
2024-09-24 15:03:47			0	38995	0	0	0	23644	22230	155853	27395	1059805	46461	108718	0	0	8241	520317	0	0
2024-09-24 15:04:47			0	38997	0	0	0	23651	22210	155865	27528	1059778	46483	108721	0	0	8240	520299	0	0
2024-09-24 15:05:47			0	38994	0	0	0	23644	22220	155941	27486	1059787	46460	108718	0	0	8240	520384	0	0
2024-09-24 15:06:47			0	38997	0	0	0	23633	22230	155881	27326	1059840	46462	108714	0	0	8241	520241	0	0
2024-09-24 15:07:47			0	38984	0	0	0	23641	22230	155873	27066	1059778	46472	108717	0	0	8240	520734	0	0
2024-09-24 15:08:47			0	38987	0	0	0	23644	22220	155817	27163	1059822	46471	108718	0	0	8240	520649	0	0
2024-09-24 15:09:47			0	38975	0	0	0	23644	22220	155929	27182	1059796	46483	108718	0	0	8239	521104	0	0
2024-09-24 15:10:47			0	38978	0	0	0	23628	22230	155865	27135	1059805	46451	108712	0	0	8240	520961	0	0
2024-09-24 15:11:47			0	38960	0	0	0	23633	22220	156037	27133	1059840	46460	108714	0	0	8239	521673	0	0
2024-09-24 15:12:47			0	38948	0	0	0	23623	22210	155989	27293	1059698	46450	108710	0	0	8238	522158	0	0
2024-09-24 15:13:47			0	38960	0	0	0	23646	22220	155961	27235	1059760	46460	108719	0	0	8238	521673	0	0
2024-09-24 15:14:47			0	38982	0	0	0	23636	22210	155973	27410	1059724	46471	108715	0	0	8240	520868	0	0
2024-09-24 15:15:47			0	38978	0	0	0	23641	22220	155845	27263	1059769	46471	108717	0	0	8240	520990	0	0
2024-09-24 15:16:47			0	38967	0	0	0	23649	22220	155781	27227	1059760	46460	108720	0	0	8239	521407	0	0
2024-09-24 15:17:47			0	38990	0	0	0	23651	22210	155845	27331	1059751	46460	108721	0	0	8240	520564	0	0
2024-09-24 15:18:47			0	38984	0	0	0	23649	22220	155845	27308	1059787	46483	108720	0	0	8240	520763	0	0
2024-09-24 15:19:47			0	38983	0	0	0	23654	22220	155925	27390	1059787	46460	108722	0	0	8240	520801	0	0
2024-09-24 15:20:47			0	38997	0	0	0	23654	22220	155841	27460	1059822	46483	108722	0	0	8240	520270	0	0
2024-09-24 15:21:47			0	39010	0	0	0	23654	22220	155861	27147	1059796	46471	108722	0	0	8241	519778	0	0
2024-09-24 15:22:47			0	38996	0	0	0	23651	22240	155829	27443	1059903	46473	108721	0	0	8240	520250	0	0
2024-09-24 15:23:47			0	38991	0	0	0	23649	22230	155929	27220	1059814	46473	108720	0	0	8240	520468	0	0
2024-09-24 15:24:47			0	38999	0	0	0	23638	22230	155901	27578	1059805	46472	108716	0	0	8241	520165	0	0
2024-09-24 15:25:47			0	38995	0	0	0	23651	22240	156013	27305	1059823	46485	108721	0	0	8240	520288	0	0
2024-09-24 15:26:47			0	39011	0	0	0	23651	22220	155869	27048	1059796	46471	108721	0	0	8241	519740	0	0
2024-09-24 15:27:47			0	39014	0	0	0	23659	22230	155781	27319	1059858	46461	108724	0	0	8241	519597	0	0
2024-09-24 15:28:47			0	39034	0	0	0	23662	22230	155785	27483	1059894	46462	108725	0	0	8242	518841	0	0
2024-09-24 15:29:47			0	39030	0	0	0	23644	22230	155733	27249	1059787	46473	108718	0	0	8243	518992	0	0
2024-09-24 15:30:47			0	39024	0	0	0	23657	22230	155697	27175	1059831	46472	108723	0	0	8242	519219	0	0
2024-09-24 15:31:47			0	39023	0	0	0	23664	22230	155773	27227	1059840	46473	108726	0	0	8242	519257	0	0
2024-09-24 15:32:47			0	39038	0	0	0	23651	22220	155709	27242	1059796	46460	108721	0	0	8243	518718	0	0
2024-09-24 15:33:47			0	39029	0	0	0	23649	22230	155705	26753	1059840	46485	108720	0	0	8242	519030	0	0
2024-09-24 15:34:47			0	39025	0	0	0	23651	22240	155721	27516	1059832	46462	108721	0	0	8242	519152	0	0
2024-09-24 15:35:47			0	39027	0	0	0	23628	22230	155793	27348	1059867	46473	108712	0	0	8243	519105	0	0
2024-09-24 15:36:47			0	39021	0	0	0	23641	22230	155845	27312	1059805	46461	108717	0	0	8242	519333	0	0
2024-09-24 15:37:47			0	38990	0	0	0	23649	22240	155877	27291	1059876	46473	108720	0	0	8240	520477	0	0
2024-09-24 15:38:47			0	39005	0	0	0	23657	22240	155717	27092	1059849	46473	108723	0	0	8241	519909	0	0
2024-09-24 15:39:47			0	39006	0	0	0	23654	22230	155841	27443	1059787	46473	108722	0	0	8241	519900	0	0
2024-09-24 15:40:47			0	39020	0	0	0	23659	22230	155701	27492	1059814	46473	108724	0	0	8242	519370	0	0
2024-09-24 15:41:47			0	39024	0	0	0	23641	22240	155773	27554	1059885	46473	108717	0	0	8242	519190	0	0
2024-09-24 15:42:47			0	39030	0	0	0	23657	22240	155697	27201	1059823	46473	108723	0	0	8242	518963	0	0
2024-09-24 15:43:47			0	39002	0	0	0	23651	22240	155797	27274	1059912	46473	108721	0	0	8241	520023	0	0
2024-09-24 15:44:47			0	39005	0	0	0	23662	22230	155785	27583	1059920	46473	108725	0	0	8241	519938	0	0
2024-09-24 15:45:47			0	39024	0	0	0	23672	22240	155729	27319	1059903	46485	108729	0	0	8242	519190	0	0
2024-09-24 15:46:47			0	39051	0	0	0	23662	22230	155701	27486	1059867	46473	108725	0	0	8243	518198	0	0
2024-09-24 15:47:47			0	39035	0	0	0	23662	22240	155673	27277	1059938	46485	108725	0	0	8243	518774	0	0
2024-09-24 15:48:47			0	39038	0	0	0	23664	22240	155561	27519	1059885	46473	108726	0	0	8243	518660	0	0
2024-09-24 15:49:47			0	39054	0	0	0	23675	22240	155601	27315	1059956	46473	108730	0	0	8243	518056	0	0
2024-09-24 15:50:47			0	39062	0	0	0	23683	22240	155613	27345	1059965	46473	108733	0	0	8244	517753	0	0
2024-09-24 15:51:47			0	39079	0	0	0	23680	22250	155585	27341	1059921	46474	108732	0	0	8245	517083	0	0
2024-09-24 15:52:47			0	39084	0	0	0	23670	22240	155457	27438	1059885	46485	108728	0	0	8245	516923	0	0
2024-09-24 15:53:47			0	39061	0	0	0	23670	22240	155553	27147	1059992	46496	108728	0	0	8244	517791	0	0
2024-09-24 15:54:47			0	39066	0	0	0	23675	22250	155525	27547	1059974	46486	108730	0	0	8244	517573	0	0
2024-09-24 15:55:47			0	39081	0	0	0	23680	22250	155557	27157	1059974	46486	108732	0	0	8245	517007	0	0
2024-09-24 15:56:47			0	39080	0	0	0	23670	22240	155485	27343	1060018	46462	108728	0	0	8245	517074	0	0
2024-09-24 15:57:47			0	39075	0	0	0	23670	22250	155501	27190	1060001	46474	108728	0	0	8245	517234	0	0
2024-09-24 15:58:47			0	39073	0	0	0	23677	22250	155565	27523	1060001	46486	108731	0	0	8245	517309	0	0
2024-09-24 15:59:47			0	39077	0	0	0	23677	22250	155489	27365	1060001	46463	108731	0	0	8245	517158	0	0
2024-09-24 16:00:47			0	39081	0	0	0	23667	22250	155489	27407	1059956	46475	108727	0	0	8245	517007	0	0
2024-09-24 16:01:47			0	39073	0	0	0	23659	22250	155481	27265	1059956	46464	108724	0	0	8245	517309	0	0
2024-09-24 16:02:47			0	39031	0	0	0	23633	22250	155609	27471	1059956	46464	108714	0	0	8243	518896	0	0
2024-09-24 16:03:47			0	39015	0	0	0	23631	22250	155733	27079	1059840	46463	108713	0	0	8242	519502	0	0
2024-09-24 16:04:47			0	39004	0	0	0	23618	22240	155761	27438	1059858	46496	108708	0	0	8242	519947	0	0
2024-09-24 16:05:47			0	39025	0	0	0	23672	22240	155677	27173	1059858	46473	108729	0	0	8242	519152	0	0
2024-09-24 16:06:47			0	39068	0	0	0	23675	22240	155693	27192	1059858	46485	108730	0	0	8244	517527	0	0
2024-09-24 16:07:47			0	39065	0	0	0	23670	22240	155621	27298	1059983	46485	108728	0	0	8244	517640	0	0
2024-09-24 16:08:47			0	39086	0	0	0	23664	22250	155525	27569	1059974	46474	108726	0	0	8246	516819	0	0
2024-09-24 16:09:47			0	39065	0	0	0	23651	22240	155473	27268	1059938	46485	108721	0	0	8244	517640	0	0
2024-09-24 16:10:47			0	39030	0	0	0	23615	22240	155637	27268	1059885	46441	108707	0	0	8243	518963	0	0
2024-09-24 16:11:47			0	39010	0	0	0	23607	22240	155745	27253	1059849	46462	108704	0	0	8242	519720	0	0
2024-09-24 16:12:47			0	38979	0	0	0	23610	22240	155861	27493	1059876	46462	108705	0	0	8240	520894	0	0
2024-09-24 16:13:47			0	38987	0	0	0	23618	22240	155833	27478	1059796	46462	108708	0	0	8241	520591	0	0
2024-09-24 16:14:47			0	38950	0	0	0	23644	22230	155925	27388	1059840	46485	108718	0	0	8238	522023	0	0
2024-09-24 16:15:47			0	38994	0	0	0	23623	22230	155889	27523	1059814	46485	108710	0	0	8241	520355	0	0
2024-09-24 16:16:47			0	38937	0	0	0	23584	22230	156097	27178	1059814	46452	108695	0	0	8238	522517	0	0
2024-09-24 16:17:47			0	38932	0	0	0	23620	22230	156225	27263	1059751	46461	108709	0	0	8237	522707	0	0
2024-09-24 16:18:47			0	38954	0	0	0	23651	22220	156021	27114	1059787	46460	108721	0	0	8238	521901	0	0
2024-09-24 16:19:47			0	38981	0	0	0	23644	22210	155937	27100	1059804	46460	108718	0	0	8240	520906	0	0
2024-09-24 16:20:47			0	39001	0	0	0	23618	22220	155793	27414	1059813	46494	108708	0	0	8241	520119	0	0
2024-09-24 16:21:47			0	38970	0	0	0	23625	22230	155853	27239	1059885	46472	108711	0	0	8239	521265	0	0
2024-09-24 16:22:47			0	38959	0	0	0	23615	22220	155945	27305	1059813	46460	108707	0	0	8239	521711	0	0
2024-09-24 16:23:47			0	38986	0	0	0	23625	22220	155829	27227	1059796	46494	108711	0	0	8240	520687	0	0
2024-09-24 16:24:47			0	38969	0	0	0	23638	22220	155889	27296	1059787	46460	108716	0	0	8239	521331	0	0
2024-09-24 16:25:47			0	38959	0	0	0	23631	22230	155973	27258	1059805	46451	108713	0	0	8239	521682	0	0
2024-09-24 16:26:47			0	38984	0	0	0	23628	22220	155853	27459	1059822	46483	108712	0	0	8240	520763	0	0
2024-09-24 16:27:47			0	38989	0	0	0	23638	22230	155849	27062	1059805	46472	108716	0	0	8240	520544	0	0
2024-09-24 16:28:47			0	38975	0	0	0	23610	22220	155841	27391	1059849	46483	108705	0	0	8240	521104	0	0
2024-09-24 16:29:47			0	38963	0	0	0	23597	22210	155953	27452	1059715	46459	108700	0	0	8239	521588	0	0
2024-09-24 16:30:47			0	38930	0	0	0	23581	22210	155985	27275	1059778	46450	108694	0	0	8238	522841	0	0
2024-09-24 16:31:47			0	38947	0	0	0	23618	22210	155897	27187	1059698	46450	108708	0	0	8238	522196	0	0
2024-09-24 16:32:47			0	38929	0	0	0	23566	22210	155989	27031	1059751	46471	108688	0	0	8238	522879	0	0
2024-09-24 16:33:47			0	38906	0	0	0	23574	22200	156177	27071	1059653	46469	108691	0	0	8236	523783	0	0
2024-09-24 16:34:47			0	38879	0	0	0	23612	22200	156273	26994	1059680	46458	108706	0	0	8234	524810	0	0
2024-09-24 16:35:47			0	38912	0	0	0	23612	22200	156161	27281	1059653	46448	108706	0	0	8236	523555	0	0
2024-09-24 16:36:47			0	38923	0	0	0	23594	22200	156133	26906	1059697	46469	108699	0	0	8237	523136	0	0
2024-09-24 16:37:47			0	38901	0	0	0	23571	22210	156113	27289	1059635	46459	108690	0	0	8236	523944	0	0
2024-09-24 16:38:47			0	38877	0	0	0	23571	22190	156321	27166	1059635	46458	108690	0	0	8235	524916	0	0
2024-09-24 16:39:47			0	38853	0	0	0	23558	22200	156281	27287	1059546	46469	108685	0	0	8234	525801	0	0
2024-09-24 16:40:47			0	38872	0	0	0	23571	22190	156305	27372	1059608	46458	108690	0	0	8234	525106	0	0
2024-09-24 16:41:47			0	38875	0	0	0	23563	22190	156389	27300	1059555	46469	108687	0	0	8235	524992	0	0
2024-09-24 16:42:47			0	38852	0	0	0	23566	22180	156349	27050	1059564	46479	108688	0	0	8233	525898	0	0
2024-09-24 16:43:47			0	38862	0	0	0	23584	22190	156393	27312	1059599	46480	108695	0	0	8234	525487	0	0
2024-09-24 16:44:47			0	38884	0	0	0	23610	22170	156117	27244	1059626	46466	108705	0	0	8234	524708	0	0
2024-09-24 16:45:47			0	38912	0	0	0	23607	22180	156253	27336	1059617	46457	108704	0	0	8236	523613	0	0
2024-09-24 16:46:47			0	38905	0	0	0	23584	22180	156197	27074	1059581	46466	108695	0	0	8236	523879	0	0
2024-09-24 16:47:47			0	38905	0	0	0	23579	22190	156361	27355	1059635	46469	108693	0	0	8236	523850	0	0
2024-09-24 16:48:47			0	38910	0	0	0	23571	22190	156317	27170	1059626	46458	108690	0	0	8237	523660	0	0
2024-09-24 16:49:47			0	38866	0	0	0	23558	22190	156365	27364	1059519	46468	108685	0	0	8234	525335	0	0
2024-09-24 16:50:47			0	38878	0	0	0	23571	22190	156365	27235	1059626	46468	108690	0	0	8235	524878	0	0
2024-09-24 16:51:47			0	38874	0	0	0	23571	22180	156425	27305	1059528	46466	108690	0	0	8235	525059	0	0
2024-09-24 16:52:47			0	38895	0	0	0	23584	22170	156389	27241	1059546	46456	108695	0	0	8235	524289	0	0
2024-09-24 16:53:47			0	38871	0	0	0	23586	22170	156369	27114	1059617	46466	108696	0	0	8234	525203	0	0
2024-09-24 16:54:47			0	38883	0	0	0	23566	22180	156325	27059	1059564	46467	108688	0	0	8235	524717	0	0
2024-09-24 16:55:47			0	38882	0	0	0	23566	22180	156373	27000	1059590	46446	108688	0	0	8235	524755	0	0
2024-09-24 16:56:47			0	38860	0	0	0	23566	22180	156309	27268	1059564	46467	108688	0	0	8234	525593	0	0
2024-09-24 16:57:47			0	38854	0	0	0	23574	22180	156437	27201	1059528	46456	108691	0	0	8233	525822	0	0
2024-09-24 16:58:47			0	38859	0	0	0	23574	22170	156433	27369	1059492	46456	108691	0	0	8234	525660	0	0
2024-09-24 16:59:47			0	38875	0	0	0	23586	22170	156457	27327	1059546	46466	108696	0	0	8234	525051	0	0
2024-09-24 17:00:47			0	38865	0	0	0	23579	22180	156301	27308	1059581	46466	108693	0	0	8234	525402	0	0
2024-09-24 17:01:47			0	38871	0	0	0	23599	22170	156429	27039	1059599	46456	108701	0	0	8234	525203	0	0
2024-09-24 17:02:47			0	38892	0	0	0	23579	22160	156393	27409	1059528	46455	108693	0	0	8235	524433	0	0
2024-09-24 17:03:47			0	38865	0	0	0	23589	22170	156477	27135	1059492	46466	108697	0	0	8234	525432	0	0
2024-09-24 17:04:47			0	38865	0	0	0	23581	22170	156373	27215	1059590	46466	108694	0	0	8234	525432	0	0
2024-09-24 17:05:47			0	38851	0	0	0	23579	22180	156393	27379	1059590	46467	108693	0	0	8233	525936	0	0
2024-09-24 17:06:47			0	38867	0	0	0	23576	22180	156321	27272	1059501	46456	108692	0	0	8234	525326	0	0
2024-09-24 17:07:47			0	38856	0	0	0	23586	22170	156357	27530	1059519	46445	108696	0	0	8233	525775	0	0
2024-09-24 17:08:47			0	38864	0	0	0	23566	22160	156333	27232	1059554	46455	108688	0	0	8234	525499	0	0
2024-09-24 17:09:47			0	38847	0	0	0	23576	22170	156449	27203	1059457	46466	108692	0	0	8233	526118	0	0
2024-09-24 17:10:47			0	38856	0	0	0	23576	22160	156469	27201	1059554	46465	108692	0	0	8233	525804	0	0
2024-09-24 17:11:47			0	38867	0	0	0	23594	22160	156353	27031	1059501	46465	108699	0	0	8234	525385	0	0
2024-09-24 17:12:47			0	38895	0	0	0	23615	22170	156253	27064	1059563	46478	108707	0	0	8235	524289	0	0
2024-09-24 17:13:47			0	38925	0	0	0	23605	22170	156113	26899	1059643	46456	108703	0	0	8237	523148	0	0
2024-09-24 17:14:47			0	38920	0	0	0	23586	22180	156145	27310	1059617	46490	108696	0	0	8237	523309	0	0
2024-09-24 17:15:47			0	38925	0	0	0	23579	22170	156209	27182	1059519	46466	108693	0	0	8237	523148	0	0
2024-09-24 17:16:47			0	38886	0	0	0	23576	22160	156289	27317	1059581	46465	108692	0	0	8235	524661	0	0
2024-09-24 17:17:47			0	38902	0	0	0	23571	22160	156301	27307	1059554	46455	108690	0	0	8236	524052	0	0
2024-09-24 17:18:47			0	38894	0	0	0	23568	22170	156317	27026	1059537	46456	108689	0	0	8236	524327	0	0
2024-09-24 17:19:47			0	38889	0	0	0	23574	22160	156349	27327	1059448	46465	108691	0	0	8235	524547	0	0
2024-09-24 17:20:47			0	38883	0	0	0	23576	22170	156393	27305	1059563	46466	108692	0	0	8235	524746	0	0
2024-09-24 17:21:47			0	38898	0	0	0	23584	22160	156281	27192	1059546	46464	108695	0	0	8236	524204	0	0
2024-09-24 17:22:47			0	38915	0	0	0	23592	22170	156245	27410	1059563	46466	108698	0	0	8236	523528	0	0
2024-09-24 17:23:47			0	38930	0	0	0	23597	22170	156241	27256	1059537	46466	108700	0	0	8237	522958	0	0
2024-09-24 17:24:47			0	38921	0	0	0	23584	22170	156161	27216	1059590	46466	108695	0	0	8237	523300	0	0
2024-09-24 17:25:47			0	38928	0	0	0	23581	22160	156181	27209	1059581	46465	108694	0	0	8237	523063	0	0
2024-09-24 17:26:47			0	38931	0	0	0	23586	22180	156145	27471	1059555	46466	108696	0	0	8238	522891	0	0
2024-09-24 17:27:47			0	38934	0	0	0	23584	22170	156261	27312	1059572	46466	108695	0	0	8238	522806	0	0
2024-09-24 17:28:47			0	38911	0	0	0	23579	22170	156325	27272	1059590	46456	108693	0	0	8236	523680	0	0
2024-09-24 17:29:47			0	38908	0	0	0	23592	22170	156277	27062	1059546	46456	108698	0	0	8236	523794	0	0
2024-09-24 17:30:47			0	38936	0	0	0	23602	22170	156233	27222	1059519	46456	108702	0	0	8238	522730	0	0
2024-09-24 17:31:47			0	38930	0	0	0	23599	22180	156161	27277	1059590	46446	108701	0	0	8237	522929	0	0
2024-09-24 17:32:47			0	38936	0	0	0	23597	22180	156117	27194	1059635	46478	108700	0	0	8238	522701	0	0
2024-09-24 17:33:47			0	38934	0	0	0	23592	22170	156181	26989	1059590	46466	108698	0	0	8238	522806	0	0
2024-09-24 17:34:47			0	38931	0	0	0	23584	22170	156153	27062	1059626	46466	108695	0	0	8238	522920	0	0
2024-09-24 17:35:47			0	38930	0	0	0	23586	22170	156125	27246	1059599	46456	108696	0	0	8237	522958	0	0
2024-09-24 17:36:47			0	38909	0	0	0	23584	22180	156237	27331	1059501	46456	108695	0	0	8236	523727	0	0
2024-09-24 17:37:47			0	38919	0	0	0	23592	22180	156145	27346	1059555	46456	108698	0	0	8237	523347	0	0
2024-09-24 17:38:47			0	38901	0	0	0	23576	22160	156309	27306	1059581	46455	108692	0	0	8236	524090	0	0
2024-09-24 17:39:47			0	38894	0	0	0	23566	22170	156301	27124	1059492	46456	108688	0	0	8236	524327	0	0
2024-09-24 17:40:47			0	38897	0	0	0	23579	22170	156217	27185	1059457	46456	108693	0	0	8236	524213	0	0
2024-09-24 17:41:47			0	38900	0	0	0	23576	22170	156229	26968	1059546	46456	108692	0	0	8236	524099	0	0
2024-09-24 17:42:47			0	38910	0	0	0	23581	22150	156345	27185	1059483	46454	108694	0	0	8236	523777	0	0
2024-09-24 17:43:47			0	38873	0	0	0	23576	22170	156397	27372	1059590	46466	108692	0	0	8234	525127	0	0
2024-09-24 17:44:47			0	38890	0	0	0	23576	22170	156377	27286	1059537	46466	108692	0	0	8235	524480	0	0
2024-09-24 17:45:47			0	38877	0	0	0	23574	22160	156293	27338	1059528	46465	108691	0	0	8235	525004	0	0
2024-09-24 17:46:47			0	38892	0	0	0	23574	22180	156261	27272	1059475	46478	108691	0	0	8236	524374	0	0
2024-09-24 17:47:47			0	38891	0	0	0	23576	22160	156301	27282	1059546	46464	108692	0	0	8235	524471	0	0
2024-09-24 17:48:47			0	38900	0	0	0	23579	22160	156273	27481	1059439	46464	108693	0	0	8236	524128	0	0
2024-09-24 17:49:47			0	38924	0	0	0	23568	22160	156277	27483	1059501	46455	108689	0	0	8237	523215	0	0
2024-09-24 17:50:47			0	38902	0	0	0	23571	22160	156301	27296	1059528	46465	108690	0	0	8236	524052	0	0
2024-09-24 17:51:47			0	38911	0	0	0	23576	22160	156325	27443	1059492	46464	108692	0	0	8236	523710	0	0
2024-09-24 17:52:47			0	38896	0	0	0	23574	22160	156249	27300	1059465	46498	108691	0	0	8236	524280	0	0
2024-09-24 17:53:47			0	38900	0	0	0	23574	22160	156377	27345	1059554	46465	108691	0	0	8236	524128	0	0
2024-09-24 17:54:47			0	38899	0	0	0	23571	22160	156317	27326	1059465	46454	108690	0	0	8236	524166	0	0
2024-09-24 17:55:47			0	38894	0	0	0	23568	22150	156265	27308	1059457	46475	108689	0	0	8236	524386	0	0
2024-09-24 17:56:47			0	38911	0	0	0	23576	22160	156329	27242	1059465	46464	108692	0	0	8236	523710	0	0
2024-09-24 17:57:47			0	38898	0	0	0	23576	22150	156253	27067	1059457	46464	108692	0	0	8236	524234	0	0
2024-09-24 17:58:47			0	38889	0	0	0	23566	22160	156321	27145	1059519	46454	108688	0	0	8235	524547	0	0
2024-09-24 17:59:47			0	38898	0	0	0	23566	22150	156293	27348	1059457	46454	108688	0	0	8236	524234	0	0
2024-09-24 18:00:47			0	38886	0	0	0	23568	22150	156381	27242	1059421	46464	108689	0	0	8235	524690	0	0
2024-09-24 18:01:47			0	38882	0	0	0	23568	22160	156421	27180	1059519	46475	108689	0	0	8235	524813	0	0
2024-09-24 18:02:47			0	38892	0	0	0	23574	22150	156365	27407	1059474	46464	108691	0	0	8235	524462	0	0
2024-09-24 18:03:47			0	38886	0	0	0	23563	22150	156321	27531	1059483	46475	108687	0	0	8235	524690	0	0
2024-09-24 18:04:47			0	38875	0	0	0	23566	22150	156381	27521	1059421	46475	108688	0	0	8235	525109	0	0
2024-09-24 18:05:47			0	38886	0	0	0	23561	22150	156489	27223	1059537	46454	108686	0	0	8235	524690	0	0
2024-09-24 18:06:47			0	38870	0	0	0	23576	22150	156429	27201	1059537	46443	108692	0	0	8234	525300	0	0
2024-09-24 18:07:47			0	38856	0	0	0	23568	22140	156381	27033	1059350	46474	108689	0	0	8233	525863	0	0
2024-09-24 18:08:47			0	38869	0	0	0	23561	22150	156549	27097	1059421	46454	108686	0	0	8234	525338	0	0
2024-09-24 18:09:47			0	38860	0	0	0	23563	22150	156525	27355	1059537	46454	108687	0	0	8234	525681	0	0
2024-09-24 18:10:47			0	38851	0	0	0	23568	22150	156501	27511	1059403	46454	108689	0	0	8233	526024	0	0
2024-09-24 18:11:47			0	38832	0	0	0	23563	22150	156513	27410	1059430	46464	108687	0	0	8232	526749	0	0
2024-09-24 18:12:47			0	38851	0	0	0	23561	22150	156621	27428	1059421	46475	108686	0	0	8233	526024	0	0
2024-09-24 18:13:47			0	38843	0	0	0	23553	22150	156589	27329	1059457	46443	108683	0	0	8233	526329	0	0
2024-09-24 18:14:47			0	38845	0	0	0	23561	22150	156557	26960	1059403	46464	108686	0	0	8233	526253	0	0
2024-09-24 18:15:47			0	38861	0	0	0	23566	22140	156489	27222	1059439	46475	108688	0	0	8234	525672	0	0
2024-09-24 18:16:47			0	38852	0	0	0	23566	22150	156545	27010	1059430	46464	108688	0	0	8233	525986	0	0
2024-09-24 18:17:47			0	38845	0	0	0	23566	22140	156513	27255	1059385	46486	108688	0	0	8233	526282	0	0
2024-09-24 18:18:47			0	38845	0	0	0	23548	22140	156661	27196	1059439	46453	108681	0	0	8233	526282	0	0
2024-09-24 18:19:47			0	38832	0	0	0	23548	22150	156521	27019	1059421	46454	108681	0	0	8232	526749	0	0
2024-09-24 18:20:47			0	38834	0	0	0	23561	22150	156557	27313	1059403	46464	108686	0	0	8232	526673	0	0
2024-09-24 18:21:47			0	38809	0	0	0	23553	22140	156541	27135	1059412	46453	108683	0	0	8231	527657	0	0
2024-09-24 18:22:47			0	38838	0	0	0	23561	22140	156553	27443	1059412	46463	108686	0	0	8232	526549	0	0
2024-09-24 18:23:47			0	38823	0	0	0	23553	22140	156633	26880	1059376	46462	108683	0	0	8232	527122	0	0
2024-09-24 18:24:47			0	38815	0	0	0	23555	22150	156533	26977	1059394	46464	108684	0	0	8231	527398	0	0
2024-09-24 18:25:47			0	38814	0	0	0	23555	22140	156673	26916	1059385	46463	108684	0	0	8231	527466	0	0
2024-09-24 18:26:47			0	38820	0	0	0	23561	22140	156553	27540	1059439	46463	108686	0	0	8231	527237	0	0
2024-09-24 18:27:47			0	38813	0	0	0	23563	22130	156609	27293	1059367	46462	108687	0	0	8231	527533	0	0
2024-09-24 18:28:47			0	38793	0	0	0	23558	22140	156689	27306	1059492	46453	108685	0	0	8230	528268	0	0
2024-09-24 18:29:47			0	38792	0	0	0	23558	22140	156725	27261	1059430	46474	108685	0	0	8230	528307	0	0
2024-09-24 18:30:47			0	38800	0	0	0	23548	22140	156685	27225	1059376	46474	108681	0	0	8230	528001	0	0
2024-09-24 18:31:47			0	38808	0	0	0	23558	22130	156661	27086	1059394	46462	108685	0	0	8231	527725	0	0
2024-09-24 18:32:47			0	38801	0	0	0	23566	22140	156773	27270	1059385	46475	108688	0	0	8230	527963	0	0
2024-09-24 18:33:47			0	38782	0	0	0	23550	22140	156809	27052	1059412	46475	108682	0	0	8229	528689	0	0
2024-09-24 18:34:47			0	38773	0	0	0	23550	22130	156713	27008	1059367	46474	108682	0	0	8229	529063	0	0
2024-09-24 18:35:47			0	38774	0	0	0	23555	22140	156757	27156	1059412	46453	108684	0	0	8229	528995	0	0
2024-09-24 18:36:47			0	38773	0	0	0	23558	22140	156829	27234	1059430	46462	108685	0	0	8229	529034	0	0
2024-09-24 18:37:47			0	38756	0	0	0	23555	22140	156845	27287	1059350	46462	108684	0	0	8228	529684	0	0
2024-09-24 18:38:47			0	38767	0	0	0	23566	22140	156833	27076	1059439	46475	108688	0	0	8228	529263	0	0
2024-09-24 18:39:47			0	38750	0	0	0	23555	22150	156813	27126	1059421	46475	108684	0	0	8227	529885	0	0
2024-09-24 18:40:47			0	38758	0	0	0	23553	22140	156881	27093	1059376	46485	108683	0	0	8228	529608	0	0
2024-09-24 18:41:47			0	38758	0	0	0	23561	22150	156825	27154	1059368	46464	108686	0	0	8228	529578	0	0
2024-09-24 18:42:47			0	38750	0	0	0	23555	22140	156909	26823	1059359	46463	108684	0	0	8227	529914	0	0
2024-09-24 18:43:47			0	38748	0	0	0	23550	22130	156793	26922	1059367	46452	108682	0	0	8227	530020	0	0
2024-09-24 18:44:47			0	38737	0	0	0	23553	22140	156909	27157	1059350	46474	108683	0	0	8227	530412	0	0
2024-09-24 18:45:47			0	38735	0	0	0	23550	22140	156845	27003	1059385	46463	108682	0	0	8227	530489	0	0
2024-09-24 18:46:47			0	38730	0	0	0	23540	22130	156908	27208	1059332	46462	108678	0	0	8226	530710	0	0
2024-09-24 18:47:47			0	38717	0	0	0	23550	22130	156952	27118	1059341	46452	108682	0	0	8226	531209	0	0
2024-09-24 18:48:47			0	38724	0	0	0	23542	22130	157020	27029	1059412	46462	108679	0	0	8226	530940	0	0
2024-09-24 18:49:47			0	38734	0	0	0	23553	22140	156904	27306	1059376	46474	108683	0	0	8227	530527	0	0
2024-09-24 18:50:47			0	38714	0	0	0	23542	22130	156976	27275	1059367	46452	108679	0	0	8226	531324	0	0
2024-09-24 18:51:47			0	38727	0	0	0	23550	22130	156924	27239	1059367	46474	108682	0	0	8226	530825	0	0
2024-09-24 18:52:47			0	38704	0	0	0	23542	22130	157004	27145	1059314	46462	108679	0	0	8225	531708	0	0
2024-09-24 18:53:47			0	38713	0	0	0	23537	22130	157124	27232	1059314	46452	108677	0	0	8226	531362	0	0
2024-09-24 18:54:47			0	38718	0	0	0	23545	22130	157060	27547	1059394	46452	108680	0	0	8226	531171	0	0
2024-09-24 18:55:47			0	38713	0	0	0	23540	22130	156972	27131	1059278	46462	108678	0	0	8226	531362	0	0
2024-09-24 18:56:47			0	38709	0	0	0	23540	22130	157116	27046	1059314	46462	108678	0	0	8225	531516	0	0
2024-09-24 18:57:47			0	38711	0	0	0	23542	22130	157084	27112	1059358	46462	108679	0	0	8225	531439	0	0
2024-09-24 18:58:47			0	38699	0	0	0	23540	22130	157156	27208	1059341	46452	108678	0	0	8225	531900	0	0
2024-09-24 18:59:47			0	38699	0	0	0	23548	22120	157176	27300	1059349	46461	108681	0	0	8225	531929	0	0
2024-09-24 19:00:47			0	38689	0	0	0	23540	22130	157128	27048	1059332	46474	108678	0	0	8224	532284	0	0
2024-09-24 19:01:47			0	38703	0	0	0	23532	22120	157088	27007	1059349	46495	108675	0	0	8225	531776	0	0
2024-09-24 19:02:47			0	38678	0	0	0	23540	22130	157156	27149	1059332	46462	108678	0	0	8223	532706	0	0
2024-09-24 19:03:47			0	38685	0	0	0	23537	22120	157116	27053	1059323	46461	108677	0	0	8224	532467	0	0
2024-09-24 19:04:47			0	38681	0	0	0	23540	22110	157128	27138	1059251	46449	108678	0	0	8224	532651	0	0
2024-09-24 19:05:47			0	38685	0	0	0	23542	22120	157084	27336	1059376	46461	108679	0	0	8224	532467	0	0
2024-09-24 19:06:47			0	38663	0	0	0	23540	22120	157216	27180	1059296	46472	108678	0	0	8223	533313	0	0
2024-09-24 19:07:47			0	38677	0	0	0	23542	22120	157252	27377	1059323	46451	108679	0	0	8223	532775	0	0
2024-09-24 19:08:47			0	38666	0	0	0	23537	22120	157200	27343	1059296	46461	108677	0	0	8223	533197	0	0
2024-09-24 19:09:47			0	38666	0	0	0	23545	22120	157216	27471	1059323	46451	108680	0	0	8223	533197	0	0
2024-09-24 19:10:47			0	38647	0	0	0	23537	22120	157228	27493	1059323	46461	108677	0	0	8222	533928	0	0
2024-09-24 19:11:47			0	38648	0	0	0	23540	22120	157356	27123	1059260	46450	108678	0	0	8222	533890	0	0
2024-09-24 19:12:47			0	38648	0	0	0	23540	22110	157284	27275	1059305	46470	108678	0	0	8222	533920	0	0
2024-09-24 19:13:47			0	38655	0	0	0	23540	22120	157248	27313	1059296	46461	108678	0	0	8222	533621	0	0
2024-09-24 19:14:47			0	38628	0	0	0	23532	22120	157316	27041	1059323	46451	108675	0	0	8221	534660	0	0
2024-09-24 19:15:47			0	38645	0	0	0	23524	22120	157272	27308	1059323	46461	108672	0	0	8222	534005	0	0
2024-09-24 19:16:47			0	38617	0	0	0	23535	22120	157360	27400	1059323	46461	108676	0	0	8220	535084	0	0
2024-09-24 19:17:47			0	38639	0	0	0	23537	22130	157476	27376	1059358	46452	108677	0	0	8221	534206	0	0
2024-09-24 19:18:47			0	38612	0	0	0	23529	22120	157432	27059	1059234	46450	108674	0	0	8220	535276	0	0
2024-09-24 19:19:47			0	38628	0	0	0	23532	22120	157424	27232	1059340	46439	108675	0	0	8221	534660	0	0
2024-09-24 19:20:47			0	38597	0	0	0	23524	22130	157476	27381	1059332	46462	108672	0	0	8219	535825	0	0
2024-09-24 19:21:47			0	38606	0	0	0	23529	22110	157424	27293	1059305	46459	108674	0	0	8219	535538	0	0
2024-09-24 19:22:47			0	38586	0	0	0	23524	22110	157392	27393	1059278	46470	108672	0	0	8218	536309	0	0
2024-09-24 19:23:47			0	38595	0	0	0	23522	22120	157444	27355	1059287	46439	108671	0	0	8219	535932	0	0
2024-09-24 19:24:47			0	38587	0	0	0	23519	22120	157612	27176	1059287	46483	108670	0	0	8219	536240	0	0
2024-09-24 19:25:47			0	38572	0	0	0	23514	22110	157488	26949	1059278	46459	108668	0	0	8218	536849	0	0
2024-09-24 19:26:47			0	38594	0	0	0	23516	22110	157616	27315	1059251	46449	108669	0	0	8219	536000	0	0
2024-09-24 19:27:47			0	38566	0	0	0	23516	22120	157668	26835	1059287	46450	108669	0	0	8217	537051	0	0
2024-09-24 19:28:47			0	38545	0	0	0	23516	22110	157644	27133	1059251	46449	108669	0	0	8216	537893	0	0
2024-09-24 19:29:47			0	38538	0	0	0	23511	22120	157784	27230	1059234	46439	108667	0	0	8216	538133	0	0
2024-09-24 19:30:47			0	38532	0	0	0	23522	22100	157712	27163	1059198	46458	108671	0	0	8215	538425	0	0
2024-09-24 19:31:47			0	38537	0	0	0	23514	22100	157808	27131	1059145	46469	108668	0	0	8216	538232	0	0
2024-09-24 19:32:47			0	38532	0	0	0	23514	22110	157812	27171	1059243	46459	108668	0	0	8215	538395	0	0
2024-09-24 19:33:47			0	38530	0	0	0	23509	22100	157784	27208	1059251	46458	108666	0	0	8215	538503	0	0
2024-09-24 19:34:47			0	38542	0	0	0	23511	22090	157864	27353	1059162	46468	108667	0	0	8216	538069	0	0
2024-09-24 19:35:47			0	38543	0	0	0	23511	22110	157816	27310	1059243	46449	108667	0	0	8216	537970	0	0
2024-09-24 19:36:47			0	38536	0	0	0	23519	22110	157760	27135	1059216	46459	108670	0	0	8216	538241	0	0
2024-09-24 19:37:47			0	38533	0	0	0	23516	22110	157696	26913	1059198	46459	108669	0	0	8215	538357	0	0
2024-09-24 19:38:47			0	38530	0	0	0	23514	22100	157644	27331	1059251	46458	108668	0	0	8215	538503	0	0
2024-09-24 19:39:47			0	38541	0	0	0	23501	22090	157736	27360	1059189	46458	108663	0	0	8216	538107	0	0
2024-09-24 19:40:47			0	38533	0	0	0	23511	22090	157636	27351	1059189	46458	108667	0	0	8215	538417	0	0
2024-09-24 19:41:47			0	38554	0	0	0	23516	22100	157608	27154	1059251	46448	108669	0	0	8217	537575	0	0
2024-09-24 19:42:47			0	38548	0	0	0	23509	22090	157640	27170	1059207	46447	108666	0	0	8216	537837	0	0
2024-09-24 19:43:47			0	38549	0	0	0	23509	22090	157672	27305	1059136	46458	108666	0	0	8216	537798	0	0
2024-09-24 19:44:47			0	38545	0	0	0	23509	22090	157628	27474	1059207	46458	108666	0	0	8216	537953	0	0
2024-09-24 19:45:47			0	38546	0	0	0	23511	22090	157668	27033	1059162	46458	108667	0	0	8216	537914	0	0
2024-09-24 19:46:47			0	38537	0	0	0	23509	22100	157700	27270	1059251	46437	108666	0	0	8216	538232	0	0
2024-09-24 19:47:47			0	38555	0	0	0	23506	22100	157844	27119	1059198	46458	108665	0	0	8217	537536	0	0
2024-09-24 19:48:47			0	38516	0	0	0	23509	22090	157820	27093	1059216	46468	108666	0	0	8214	539075	0	0
2024-09-24 19:49:47			0	38523	0	0	0	23509	22100	157880	27274	1059251	46458	108666	0	0	8215	538774	0	0
2024-09-24 19:50:47			0	38501	0	0	0	23509	22090	157776	27419	1059180	46447	108666	0	0	8214	539655	0	0
2024-09-24 19:51:47			0	38495	0	0	0	23509	22090	157852	27426	1059216	46458	108666	0	0	8213	539888	0	0
2024-09-24 19:52:47			0	38507	0	0	0	23501	22090	157896	27471	1059207	46436	108663	0	0	8214	539423	0	0
2024-09-24 19:53:47			0	38507	0	0	0	23506	22090	157780	27365	1059153	46436	108665	0	0	8214	539423	0	0
2024-09-24 19:54:47			0	38485	0	0	0	23496	22090	157888	27514	1059216	46458	108661	0	0	8213	540275	0	0
2024-09-24 19:55:47			0	38491	0	0	0	23493	22090	157956	27149	1059216	46447	108660	0	0	8213	540043	0	0
2024-09-24 19:56:47			0	38476	0	0	0	23506	22080	157984	27490	1059198	46468	108665	0	0	8212	540654	0	0
2024-09-24 19:57:47			0	38480	0	0	0	23503	22070	157984	27353	1059153	46466	108664	0	0	8212	540530	0	0
2024-09-24 19:58:47			0	38462	0	0	0	23496	22090	158036	27284	1059207	46447	108661	0	0	8212	541167	0	0
2024-09-24 19:59:47			0	38497	0	0	0	23506	22090	158024	27279	1059153	46447	108665	0	0	8213	539810	0	0
2024-09-24 20:00:47			0	38466	0	0	0	23506	22080	158028	27298	1059171	46447	108665	0	0	8212	541042	0	0
2024-09-24 20:01:47			0	38471	0	0	0	23496	22090	158008	27222	1059180	46447	108661	0	0	8212	540818	0	0
2024-09-24 20:02:47			0	38468	0	0	0	23501	22080	158048	27305	1059144	46468	108663	0	0	8212	540965	0	0
2024-09-24 20:03:47			0	38472	0	0	0	23501	22080	158020	27360	1059118	46468	108663	0	0	8212	540810	0	0
2024-09-24 20:04:47			0	38467	0	0	0	23493	22090	158012	27744	1059180	46447	108660	0	0	8212	540973	0	0
2024-09-24 20:05:47			0	38464	0	0	0	23498	22080	158140	27334	1059091	46468	108662	0	0	8212	541120	0	0
2024-09-24 20:06:47			0	38471	0	0	0	23506	22080	158036	27507	1059109	46446	108665	0	0	8212	540848	0	0
2024-09-24 20:07:47			0	38467	0	0	0	23501	22080	157984	27126	1059064	46458	108663	0	0	8212	541004	0	0
2024-09-24 20:08:47			0	38464	0	0	0	23493	22080	157976	27258	1059135	46446	108660	0	0	8212	541120	0	0
2024-09-24 20:09:47			0	38478	0	0	0	23493	22090	158048	27045	1059100	46468	108660	0	0	8212	540547	0	0
2024-09-24 20:10:47			0	38486	0	0	0	23490	22080	157964	27261	1059135	46457	108659	0	0	8213	540267	0	0
2024-09-24 20:11:47			0	38489	0	0	0	23493	22080	157812	27281	1059109	46446	108660	0	0	8213	540151	0	0
2024-09-24 20:12:47			0	38497	0	0	0	23488	22080	157848	27414	1059144	46458	108658	0	0	8214	539840	0	0
2024-09-24 20:13:47			0	38503	0	0	0	23498	22070	157808	27566	1059126	46466	108662	0	0	8214	539638	0	0
2024-09-24 20:14:47			0	38488	0	0	0	23485	22080	157892	27305	1059109	46435	108657	0	0	8213	540189	0	0
2024-09-24 20:15:47			0	38485	0	0	0	23485	22070	158076	27182	1059153	46445	108657	0	0	8213	540336	0	0
2024-09-24 20:16:47			0	38473	0	0	0	23480	22070	158008	27166	1059126	46466	108655	0	0	8212	540801	0	0
2024-09-24 20:17:47			0	38492	0	0	0	23477	22070	158080	27170	1059099	46456	108654	0	0	8213	540064	0	0
2024-09-24 20:18:47			0	38505	0	0	0	23485	22070	157888	27166	1059019	46456	108657	0	0	8214	539561	0	0
2024-09-24 20:19:47			0	38504	0	0	0	23485	22070	157868	27526	1059099	46456	108657	0	0	8214	539599	0	0
2024-09-24 20:20:47			0	38515	0	0	0	23472	22070	157796	27232	1059126	46456	108652	0	0	8215	539173	0	0
2024-09-24 20:21:47			0	38510	0	0	0	23480	22070	157884	27166	1059064	46456	108655	0	0	8214	539367	0	0
2024-09-24 20:22:47			0	38521	0	0	0	23472	22060	157796	27046	1059055	46466	108652	0	0	8215	538971	0	0
2024-09-24 20:23:47			0	38528	0	0	0	23483	22060	157792	27222	1059028	46434	108656	0	0	8215	538700	0	0
2024-09-24 20:24:47			0	38538	0	0	0	23477	22060	157856	27234	1059108	46434	108654	0	0	8216	538313	0	0
2024-09-24 20:25:47			0	38529	0	0	0	23485	22060	157832	27053	1059055	46456	108657	0	0	8215	538661	0	0
2024-09-24 20:26:47			0	38541	0	0	0	23477	22070	157908	27300	1059091	46466	108654	0	0	8216	538167	0	0
2024-09-24 20:27:47			0	38539	0	0	0	23485	22060	157940	27149	1059055	46445	108657	0	0	8216	538275	0	0
2024-09-24 20:28:47			0	38536	0	0	0	23483	22050	157876	27229	1059037	46454	108656	0	0	8216	538421	0	0
2024-09-24 20:29:47			0	38542	0	0	0	23480	22070	157828	27298	1059037	46456	108655	0	0	8216	538129	0	0
2024-09-24 20:30:47			0	38545	0	0	0	23475	22060	157832	27331	1059135	46466	108653	0	0	8217	538043	0	0
2024-09-24 20:31:47			0	38548	0	0	0	23483	22060	157804	27192	1059028	46456	108656	0	0	8217	537927	0	0
2024-09-24 20:32:47			0	38548	0	0	0	23480	22060	157852	27434	1059019	46488	108655	0	0	8217	537927	0	0
2024-09-24 20:33:47			0	38525	0	0	0	23480	22060	157816	27168	1058966	46465	108655	0	0	8215	538816	0	0
2024-09-24 20:34:47			0	38533	0	0	0	23480	22060	157796	27358	1059028	46445	108655	0	0	8216	538507	0	0
2024-09-24 20:35:47			0	38547	0	0	0	23490	22060	157872	27017	1059082	46445	108659	0	0	8216	537965	0	0
2024-09-24 20:36:47			0	38520	0	0	0	23498	22060	157968	27066	1059073	46444	108662	0	0	8215	539010	0	0
2024-09-24 20:37:47			0	38520	0	0	0	23485	22060	157936	27464	1059082	46478	108657	0	0	8215	539010	0	0
2024-09-24 20:38:47			0	38518	0	0	0	23485	22060	157920	27334	1059099	46465	108657	0	0	8215	539087	0	0
2024-09-24 20:39:47			0	38515	0	0	0	23480	22060	157980	27602	1059082	46445	108655	0	0	8215	539203	0	0
2024-09-24 20:40:47			0	38520	0	0	0	23483	22060	157992	27507	1059073	46465	108656	0	0	8215	539010	0	0
2024-09-24 20:41:47			0	38506	0	0	0	23477	22070	158052	27235	1059073	46466	108654	0	0	8214	539522	0	0
2024-09-24 20:42:47			0	38490	0	0	0	23480	22060	158064	27150	1059073	46455	108655	0	0	8213	540172	0	0
2024-09-24 20:43:47			0	38504	0	0	0	23475	22060	158048	27173	1059082	46445	108653	0	0	8214	539629	0	0
2024-09-24 20:44:47			0	38487	0	0	0	23477	22060	158036	27263	1059019	46444	108654	0	0	8213	540288	0	0
2024-09-24 20:45:47			0	38508	0	0	0	23485	22050	157984	27255	1059037	46464	108657	0	0	8214	539505	0	0
2024-09-24 20:46:47			0	38501	0	0	0	23485	22070	158064	27322	1059037	46445	108657	0	0	8214	539716	0	0
2024-09-24 20:47:47			0	38505	0	0	0	23490	22070	158084	27294	1059091	46466	108659	0	0	8214	539561	0	0
2024-09-24 20:48:47			0	38514	0	0	0	23488	22050	158068	27303	1059037	46454	108658	0	0	8214	539272	0	0
2024-09-24 20:49:47			0	38501	0	0	0	23483	22050	158044	27211	1058983	46454	108656	0	0	8214	539776	0	0
2024-09-24 20:50:47			0	38493	0	0	0	23485	22060	158096	27256	1059055	46466	108657	0	0	8213	540056	0	0
2024-09-24 20:51:47			0	38505	0	0	0	23488	22070	157964	27284	1059091	46456	108658	0	0	8214	539561	0	0
2024-09-24 20:52:47			0	38494	0	0	0	23483	22060	158036	27241	1059046	46444	108656	0	0	8213	540017	0	0
2024-09-24 20:53:47			0	38495	0	0	0	23477	22060	158044	27473	1059055	46466	108654	0	0	8214	539978	0	0
2024-09-24 20:54:47			0	38472	0	0	0	23483	22060	158036	27000	1059046	46455	108656	0	0	8212	540870	0	0
2024-09-24 20:55:47			0	38490	0	0	0	23480	22070	158108	27128	1059064	46478	108655	0	0	8213	540142	0	0
2024-09-24 20:56:47			0	38469	0	0	0	23488	22070	158212	27352	1059037	46445	108658	0	0	8212	540956	0	0
2024-09-24 20:57:47			0	38459	0	0	0	23480	22070	158304	27203	1059091	46434	108655	0	0	8212	541344	0	0
2024-09-24 20:58:47			0	38472	0	0	0	23485	22070	158188	27137	1059064	46478	108657	0	0	8212	540840	0	0
2024-09-24 20:59:47			0	38463	0	0	0	23483	22060	158268	27412	1059082	46456	108656	0	0	8212	541219	0	0
2024-09-24 21:00:47			0	38444	0	0	0	23480	22060	158240	27350	1059099	46465	108655	0	0	8211	541957	0	0
2024-09-24 21:01:47			0	38454	0	0	0	23488	22070	158268	27280	1059117	46478	108658	0	0	8211	541538	0	0
2024-09-24 21:02:47			0	38444	0	0	0	23485	22060	158304	27381	1059046	46455	108657	0	0	8211	541957	0	0
2024-09-24 21:03:47			0	38433	0	0	0	23472	22070	158252	27137	1059091	46466	108652	0	0	8210	542354	0	0
2024-09-24 21:04:47			0	38447	0	0	0	23483	22060	158364	27008	1059073	46444	108656	0	0	8211	541840	0	0
2024-09-24 21:05:47			0	38428	0	0	0	23480	22070	158308	27222	1059091	46456	108655	0	0	8210	542548	0	0
2024-09-24 21:06:47			0	38448	0	0	0	23488	22070	158348	27083	1059091	46456	108658	0	0	8211	541771	0	0
2024-09-24 21:07:47			0	38444	0	0	0	23475	22070	158356	27255	1059037	46456	108653	0	0	8211	541927	0	0
2024-09-24 21:08:47			0	38440	0	0	0	23467	22060	158284	27126	1059082	46466	108650	0	0	8211	542112	0	0
2024-09-24 21:09:47			0	38420	0	0	0	23480	22060	158344	26934	1059019	46455	108655	0	0	8209	542890	0	0
2024-09-24 21:10:47			0	38434	0	0	0	23477	22070	158320	27150	1059046	46456	108654	0	0	8210	542315	0	0
2024-09-24 21:11:47			0	38423	0	0	0	23480	22050	158412	27138	1059090	46454	108655	0	0	8209	542803	0	0
2024-09-24 21:12:47			0	38400	0	0	0	23480	22060	158452	26967	1059028	46466	108655	0	0	8208	543667	0	0
2024-09-24 21:13:47			0	38377	0	0	0	23467	22070	158436	26916	1059046	46445	108650	0	0	8207	544533	0	0
2024-09-24 21:14:47			0	38376	0	0	0	23475	22060	158672	27507	1059046	46455	108653	0	0	8207	544602	0	0
2024-09-24 21:15:47			0	38373	0	0	0	23475	22060	158624	27249	1059046	46444	108653	0	0	8207	544719	0	0
2024-09-24 21:16:47			0	38373	0	0	0	23470	22060	158552	27027	1059046	46465	108651	0	0	8207	544719	0	0
2024-09-24 21:17:47			0	38359	0	0	0	23467	22050	158584	27371	1059037	46454	108650	0	0	8206	545295	0	0
2024-09-24 21:18:47			0	38356	0	0	0	23470	22050	158608	27185	1059037	46443	108651	0	0	8206	545412	0	0
2024-09-24 21:19:47			0	38354	0	0	0	23467	22050	158532	27345	1059037	46454	108650	0	0	8206	545490	0	0
2024-09-24 21:20:47			0	38359	0	0	0	23475	22050	158468	27079	1059010	46443	108653	0	0	8206	545295	0	0
2024-09-24 21:21:47			0	38353	0	0	0	23470	22050	158544	27126	1058983	46454	108651	0	0	8205	545529	0	0
2024-09-24 21:22:47			0	38357	0	0	0	23464	22050	158516	27263	1058974	46453	108649	0	0	8206	545373	0	0
2024-09-24 21:23:47			0	38356	0	0	0	23462	22060	158540	27039	1059019	46465	108648	0	0	8206	545382	0	0
2024-09-24 21:24:47			0	38361	0	0	0	23459	22050	158592	27438	1059001	46453	108647	0	0	8206	545217	0	0
2024-09-24 21:25:47			0	38349	0	0	0	23462	22040	158660	27235	1058965	46475	108648	0	0	8205	545715	0	0
2024-09-24 21:26:47			0	38351	0	0	0	23457	22050	158684	27215	1058948	46453	108646	0	0	8206	545607	0	0
2024-09-24 21:27:47			0	38331	0	0	0	23449	22040	158752	27242	1058965	46442	108643	0	0	8204	546418	0	0
2024-09-24 21:28:47			0	38345	0	0	0	23446	22040	158616	27254	1058983	46463	108642	0	0	8205	545871	0	0
2024-09-24 21:29:47			0	38337	0	0	0	23451	22040	158784	27241	1058939	46463	108644	0	0	8205	546184	0	0
2024-09-24 21:30:47			0	38340	0	0	0	23457	22040	158684	27263	1058930	46453	108646	0	0	8205	546066	0	0
2024-09-24 21:31:47			0	38333	0	0	0	23444	22030	158680	27142	1058974	46441	108641	0	0	8205	546370	0	0
2024-09-24 21:32:47			0	38346	0	0	0	23428	22040	158704	27152	1058930	46431	108635	0	0	8206	545832	0	0
2024-09-24 21:33:47			0	38324	0	0	0	23451	22040	158716	27215	1058850	46453	108644	0	0	8204	546691	0	0
2024-09-24 21:34:47			0	38346	0	0	0	23441	22030	158672	27246	1058894	46462	108640	0	0	8205	545863	0	0
2024-09-24 21:35:47			0	38324	0	0	0	23449	22020	158724	27166	1058903	46461	108643	0	0	8204	546752	0	0
2024-09-24 21:36:47			0	38325	0	0	0	23454	22030	158864	27357	1058921	46441	108645	0	0	8204	546683	0	0
2024-09-24 21:37:47			0	38317	0	0	0	23444	22030	158796	27260	1058894	46452	108641	0	0	8204	546995	0	0
2024-09-24 21:38:47			0	38321	0	0	0	23457	22040	158692	27336	1058930	46453	108646	0	0	8204	546808	0	0
2024-09-24 21:39:47			0	38310	0	0	0	23462	22030	158800	27322	1058947	46452	108648	0	0	8203	547268	0	0
2024-09-24 21:40:47			0	38331	0	0	0	23451	22030	158748	27261	1058867	46430	108644	0	0	8204	546448	0	0
2024-09-24 21:41:47			0	38313	0	0	0	23454	22030	158768	27055	1058974	46452	108645	0	0	8203	547151	0	0
2024-09-24 21:42:47			0	38338	0	0	0	23449	22030	158800	27171	1058894	46441	108643	0	0	8205	546175	0	0
2024-09-24 21:43:47			0	38325	0	0	0	23449	22030	158728	27145	1058867	46441	108643	0	0	8204	546683	0	0
2024-09-24 21:44:47			0	38321	0	0	0	23464	22030	158724	27182	1058921	46441	108649	0	0	8204	546839	0	0
2024-09-24 21:45:47			0	38308	0	0	0	23454	22030	158652	27147	1058939	46473	108645	0	0	8203	547347	0	0
2024-09-24 21:46:47			0	38317	0	0	0	23462	22030	158828	27287	1058939	46429	108648	0	0	8203	546995	0	0
2024-09-24 21:47:47			0	38322	0	0	0	23454	22040	158796	27036	1058939	46453	108645	0	0	8204	546769	0	0
2024-09-24 21:48:47			0	38338	0	0	0	23459	22030	158820	27234	1058947	46452	108647	0	0	8205	546175	0	0
2024-09-24 21:49:47			0	38309	0	0	0	23459	22030	158856	27227	1058965	46461	108647	0	0	8203	547308	0	0
2024-09-24 21:50:47			0	38329	0	0	0	23454	22030	158836	27398	1058867	46474	108645	0	0	8204	546526	0	0
2024-09-24 21:51:47			0	38322	0	0	0	23457	22030	158696	27237	1058921	46474	108646	0	0	8204	546800	0	0
2024-09-24 21:52:47			0	38322	0	0	0	23457	22030	158844	27180	1058921	46452	108646	0	0	8204	546800	0	0
2024-09-24 21:53:47			0	38325	0	0	0	23446	22030	158728	27166	1058974	46474	108642	0	0	8204	546683	0	0
2024-09-24 21:54:47			0	38320	0	0	0	23451	22030	158792	27017	1058894	46452	108644	0	0	8204	546878	0	0
2024-09-24 21:55:47			0	38312	0	0	0	23451	22030	158744	27168	1058894	46441	108644	0	0	8203	547190	0	0
2024-09-24 21:56:47			0	38328	0	0	0	23446	22030	158732	27038	1058974	46452	108642	0	0	8204	546565	0	0
2024-09-24 21:57:47			0	38323	0	0	0	23446	22030	158760	27208	1058947	46452	108642	0	0	8204	546761	0	0
2024-09-24 21:58:47			0	38310	0	0	0	23446	22030	158648	27454	1058894	46452	108642	0	0	8203	547268	0	0
2024-09-24 21:59:47			0	38322	0	0	0	23454	22030	158800	27059	1058867	46452	108645	0	0	8204	546800	0	0
2024-09-24 22:00:47			0	38325	0	0	0	23446	22030	158740	27171	1058939	46440	108642	0	0	8204	546683	0	0
2024-09-24 22:01:47			0	38311	0	0	0	23444	22030	158784	27204	1058921	46462	108641	0	0	8203	547230	0	0
2024-09-24 22:02:47			0	38322	0	0	0	23446	22030	158820	26968	1058885	46473	108642	0	0	8204	546800	0	0
2024-09-24 22:03:47			0	38316	0	0	0	23441	22020	158788	27422	1058930	46440	108640	0	0	8204	547065	0	0
2024-09-24 22:04:47			0	38316	0	0	0	23446	22030	158648	27578	1058894	46441	108642	0	0	8204	547034	0	0
2024-09-24 22:05:47			0	38342	0	0	0	23446	22030	158808	27332	1058885	46461	108642	0	0	8205	546019	0	0
2024-09-24 22:06:47			0	38328	0	0	0	23449	22020	158680	27367	1058930	46440	108643	0	0	8204	546596	0	0
2024-09-24 22:07:47			0	38328	0	0	0	23444	22030	158600	27248	1058894	46452	108641	0	0	8204	546565	0	0
2024-09-24 22:08:47			0	38324	0	0	0	23446	22030	158800	27053	1058921	46462	108642	0	0	8204	546722	0	0
2024-09-24 22:09:47			0	38324	0	0	0	23444	22030	158764	27163	1058939	46440	108641	0	0	8204	546722	0	0
2024-09-24 22:10:47			0	38321	0	0	0	23436	22030	158792	27414	1058885	46461	108638	0	0	8204	546839	0	0
2024-09-24 22:11:47			0	38317	0	0	0	23446	22030	158700	27206	1058939	46461	108642	0	0	8204	546995	0	0
2024-09-24 22:12:47			0	38330	0	0	0	23444	22030	158796	27218	1058832	46440	108641	0	0	8204	546487	0	0
2024-09-24 22:13:47			0	38333	0	0	0	23446	22020	158748	27324	1058850	46461	108642	0	0	8205	546401	0	0
2024-09-24 22:14:47			0	38347	0	0	0	23451	22030	158708	27178	1058912	46461	108644	0	0	8205	545824	0	0
2024-09-24 22:15:47			0	38335	0	0	0	23444	22030	158780	26826	1058912	46473	108641	0	0	8205	546292	0	0
2024-09-24 22:16:47			0	38337	0	0	0	23441	22030	158800	27485	1058921	46474	108640	0	0	8205	546214	0	0
2024-09-24 22:17:47			0	38331	0	0	0	23444	22030	158684	27036	1058912	46440	108641	0	0	8204	546448	0	0
2024-09-24 22:18:47			0	38329	0	0	0	23446	22030	158744	27086	1058867	46452	108642	0	0	8204	546526	0	0
2024-09-24 22:19:47			0	38331	0	0	0	23449	22030	158720	27357	1058885	46461	108643	0	0	8204	546448	0	0
2024-09-24 22:20:47			0	38328	0	0	0	23451	22030	158748	27076	1058894	46462	108644	0	0	8204	546565	0	0
2024-09-24 22:21:47			0	38341	0	0	0	23451	22030	158720	27204	1058859	46440	108644	0	0	8205	546058	0	0
2024-09-24 22:22:47			0	38318	0	0	0	23420	22030	158764	27202	1058894	46441	108632	0	0	8204	546956	0	0
2024-09-24 22:23:47			0	38337	0	0	0	23436	22020	158820	27071	1058876	46461	108638	0	0	8205	546244	0	0
2024-09-24 22:24:47			0	38320	0	0	0	23444	22030	158816	27140	1058859	46440	108641	0	0	8204	546878	0	0
2024-09-24 22:25:47			0	38326	0	0	0	23446	22030	158804	27248	1058939	46451	108642	0	0	8204	546643	0	0
2024-09-24 22:26:47			0	38340	0	0	0	23449	22030	158796	27440	1058894	46462	108643	0	0	8205	546097	0	0
2024-09-24 22:27:47			0	38319	0	0	0	23449	22030	158856	27078	1058859	46484	108643	0	0	8204	546917	0	0
2024-09-24 22:28:47			0	38321	0	0	0	23444	22020	158864	27571	1058903	46451	108641	0	0	8204	546869	0	0
2024-09-24 22:29:47			0	38297	0	0	0	23436	22030	158988	27421	1058885	46440	108638	0	0	8203	547777	0	0
2024-09-24 22:30:47			0	38304	0	0	0	23438	22030	158856	27443	1058859	46440	108639	0	0	8203	547503	0	0
2024-09-24 22:31:47			0	38303	0	0	0	23428	22020	158892	27286	1058867	46451	108635	0	0	8203	547573	0	0
2024-09-24 22:32:47			0	38290	0	0	0	23433	22020	159012	27301	1058823	46451	108637	0	0	8202	548081	0	0
2024-09-24 22:33:47			0	38291	0	0	0	23441	22020	158856	27338	1058876	46440	108640	0	0	8202	548042	0	0
2024-09-24 22:34:47			0	38294	0	0	0	23438	22020	158952	27239	1058850	46451	108639	0	0	8202	547925	0	0
2024-09-24 22:35:47			0	38294	0	0	0	23446	22030	158956	27161	1058894	46474	108642	0	0	8202	547894	0	0
2024-09-24 22:36:47			0	38292	0	0	0	23428	22030	158932	27509	1058841	46462	108635	0	0	8202	547972	0	0
2024-09-24 22:37:47			0	38290	0	0	0	23444	22020	158996	27130	1058796	46473	108641	0	0	8202	548081	0	0
2024-09-24 22:38:47			0	38288	0	0	0	23444	22030	158948	27263	1058832	46451	108641	0	0	8202	548129	0	0
2024-09-24 22:39:47			0	38284	0	0	0	23438	22020	158956	27348	1058903	46461	108639	0	0	8202	548316	0	0
2024-09-24 22:40:47			0	38289	0	0	0	23436	22030	158912	27206	1058859	46451	108638	0	0	8202	548089	0	0
2024-09-24 22:41:47			0	38294	0	0	0	23441	22020	158920	27466	1058850	46440	108640	0	0	8202	547925	0	0
2024-09-24 22:42:47			0	38287	0	0	0	23449	22020	158884	27031	1058876	46461	108643	0	0	8202	548198	0	0
2024-09-24 22:43:47			0	38275	0	0	0	23438	22030	158896	27229	1058832	46461	108639	0	0	8201	548637	0	0
2024-09-24 22:44:47			0	38269	0	0	0	23444	22030	159020	27405	1058859	46440	108641	0	0	8201	548872	0	0
2024-09-24 22:45:47			0	38256	0	0	0	23449	22010	158988	27189	1058885	46439	108643	0	0	8200	549443	0	0
2024-09-24 22:46:47			0	38254	0	0	0	23441	22030	159040	27267	1058894	46452	108640	0	0	8200	549460	0	0
2024-09-24 22:47:47			0	38264	0	0	0	23444	22020	158992	27142	1058930	46473	108641	0	0	8201	549099	0	0
2024-09-24 22:48:47			0	38239	0	0	0	23436	22020	158932	27326	1058921	46461	108638	0	0	8199	550078	0	0
2024-09-24 22:49:47			0	38240	0	0	0	23438	22030	159084	27183	1058912	46451	108639	0	0	8199	550008	0	0
2024-09-24 22:50:47			0	38234	0	0	0	23441	22020	159148	27171	1058903	46451	108640	0	0	8199	550274	0	0
2024-09-24 22:51:47			0	38240	0	0	0	23436	22020	159112	27249	1058894	46461	108638	0	0	8199	550039	0	0
2024-09-24 22:52:47			0	38232	0	0	0	23433	22020	159112	27381	1058876	46451	108637	0	0	8199	550353	0	0
2024-09-24 22:53:47			0	38241	0	0	0	23428	22030	159076	27334	1058885	46451	108635	0	0	8200	549969	0	0
2024-09-24 22:54:47			0	38250	0	0	0	23428	22020	159068	27239	1058823	46461	108635	0	0	8200	549647	0	0
2024-09-24 22:55:47			0	38229	0	0	0	23428	22020	159060	27036	1058903	46440	108635	0	0	8199	550470	0	0
2024-09-24 22:56:47			0	38233	0	0	0	23428	22020	159048	27353	1058841	46451	108635	0	0	8199	550313	0	0
2024-09-24 22:57:47			0	38235	0	0	0	23436	22020	159100	27268	1058876	46473	108638	0	0	8199	550235	0	0
2024-09-24 22:58:47			0	38222	0	0	0	23431	22020	159148	27107	1058787	46440	108636	0	0	8198	550745	0	0
2024-09-24 22:59:47			0	38223	0	0	0	23431	22020	159120	27133	1058867	46451	108636	0	0	8198	550706	0	0
2024-09-24 23:00:47			0	38212	0	0	0	23431	22020	159160	27166	1058867	46461	108636	0	0	8198	551137	0	0
2024-09-24 23:01:47			0	38234	0	0	0	23433	22010	159120	27230	1058885	46472	108637	0	0	8199	550305	0	0
2024-09-24 23:02:47			0	38198	0	0	0	23423	22010	159176	27367	1058832	46450	108633	0	0	8197	551718	0	0
2024-09-24 23:03:47			0	38194	0	0	0	23428	22020	159296	27386	1058787	46473	108635	0	0	8197	551844	0	0
2024-09-24 23:04:47			0	38190	0	0	0	23433	22010	159168	27460	1058805	46460	108637	0	0	8196	552032	0	0
2024-09-24 23:05:47			0	38189	0	0	0	23431	22020	159304	27313	1058787	46440	108636	0	0	8196	552040	0	0
2024-09-24 23:06:47			0	38176	0	0	0	23428	22020	159248	27045	1058814	46429	108635	0	0	8196	552551	0	0
2024-09-24 23:07:47			0	38186	0	0	0	23420	22010	159380	27201	1058805	46450	108632	0	0	8196	552189	0	0
2024-09-24 23:08:47			0	38175	0	0	0	23431	22010	159284	27324	1058832	46439	108636	0	0	8196	552622	0	0
2024-09-24 23:09:47			0	38148	0	0	0	23415	22010	159248	27116	1058832	46460	108630	0	0	8194	553684	0	0
2024-09-24 23:10:47			0	38139	0	0	0	23405	22010	159424	27445	1058832	46450	108626	0	0	8194	554038	0	0
2024-09-24 23:11:47			0	38109	0	0	0	23389	22010	159568	27545	1058743	46449	108620	0	0	8192	555220	0	0
2024-09-24 23:12:47			0	38100	0	0	0	23394	22000	159740	27241	1058787	46438	108622	0	0	8192	555606	0	0
2024-09-24 23:13:47			0	38087	0	0	0	23394	22010	159824	27274	1058716	46449	108622	0	0	8191	556088	0	0
2024-09-24 23:14:47			0	38090	0	0	0	23402	21990	159748	27225	1058725	46459	108625	0	0	8191	556032	0	0
2024-09-24 23:15:47			0	38077	0	0	0	23405	22010	159704	27388	1058769	46449	108626	0	0	8190	556483	0	0
2024-09-24 23:16:47			0	38060	0	0	0	23405	22010	159736	27447	1058743	46449	108626	0	0	8189	557155	0	0
2024-09-24 23:17:47			0	38090	0	0	0	23407	21990	159688	27289	1058769	46426	108627	0	0	8191	556032	0	0
2024-09-24 23:18:47			0	38079	0	0	0	23407	22000	159620	27183	1058787	46438	108627	0	0	8190	556435	0	0
2024-09-24 23:19:47			0	38075	0	0	0	23399	21990	159676	27381	1058689	46470	108624	0	0	8190	556624	0	0
2024-09-24 23:20:47			0	38082	0	0	0	23384	21990	159792	27320	1058698	46449	108618	0	0	8191	556348	0	0
2024-09-24 23:21:47			0	38046	0	0	0	23392	21980	159820	27263	1058654	46447	108621	0	0	8189	557801	0	0
2024-09-24 23:22:47			0	38054	0	0	0	23392	21990	159836	27267	1058725	46449	108621	0	0	8189	557454	0	0
2024-09-24 23:23:47			0	38037	0	0	0	23397	21980	159872	27090	1058680	46458	108623	0	0	8188	558157	0	0
2024-09-24 23:24:47			0	38039	0	0	0	23363	21980	159884	27176	1058627	46458	108610	0	0	8189	558078	0	0
2024-09-24 23:25:47			0	37979	0	0	0	23368	21970	160251	26887	1058582	46435	108612	0	0	8185	560486	0	0
2024-09-24 23:26:47			0	37950	0	0	0	23381	21980	160247	27256	1058618	46446	108617	0	0	8183	561606	0	0
2024-09-24 23:27:47			0	37925	0	0	0	23373	21970	160379	27367	1058582	46435	108614	0	0	8182	562631	0	0
2024-09-24 23:28:47			0	37917	0	0	0	23376	21970	160435	27350	1058609	46435	108615	0	0	8181	562949	0	0
2024-09-24 23:29:47			0	37901	0	0	0	23371	21980	160527	27093	1058618	46424	108613	0	0	8180	563555	0	0
2024-09-24 23:30:47			0	37918	0	0	0	23384	21970	160475	27300	1058609	46435	108618	0	0	8181	562910	0	0
2024-09-24 23:31:47			0	37888	0	0	0	23371	21980	160551	27353	1058698	46446	108613	0	0	8180	564072	0	0
2024-09-24 23:32:47			0	37911	0	0	0	23376	21970	160499	27421	1058627	46446	108615	0	0	8181	563188	0	0
2024-09-24 23:33:47			0	37902	0	0	0	23368	21970	160539	27350	1058653	46446	108612	0	0	8180	563546	0	0
2024-09-24 23:34:47			0	37846	0	0	0	23358	21970	160675	27625	1058600	46435	108608	0	0	8177	565778	0	0
2024-09-24 23:35:47			0	37856	0	0	0	23368	21970	160659	27511	1058547	46446	108612	0	0	8178	565379	0	0
2024-09-24 23:36:47			0	37842	0	0	0	23361	21960	160747	27400	1058609	46421	108609	0	0	8177	565970	0	0
2024-09-24 23:37:47			0	37851	0	0	0	23373	21970	160647	27279	1058600	46457	108614	0	0	8177	565579	0	0
2024-09-24 23:38:47			0	37843	0	0	0	23353	21950	160651	27137	1058573	46433	108606	0	0	8177	565961	0	0
2024-09-24 23:39:47			0	37853	0	0	0	23358	21950	160631	27429	1058547	46444	108608	0	0	8178	565562	0	0
2024-09-24 23:40:47			0	37842	0	0	0	23363	21960	160691	27511	1058591	46445	108610	0	0	8177	565970	0	0
2024-09-24 23:41:47			0	37834	0	0	0	23366	21940	160811	27409	1058502	46443	108611	0	0	8176	566352	0	0
2024-09-24 23:42:47			0	37863	0	0	0	23373	21950	160679	27485	1058573	46455	108614	0	0	8178	565163	0	0
2024-09-24 23:43:47			0	37863	0	0	0	23363	21950	160499	27301	1058564	46433	108610	0	0	8178	565163	0	0
2024-09-24 23:44:47			0	37837	0	0	0	23350	21950	160679	27390	1058573	46433	108605	0	0	8177	566200	0	0
2024-09-24 23:45:47			0	37793	0	0	0	23350	21950	160951	27594	1058537	46444	108605	0	0	8174	567959	0	0
2024-09-24 23:46:47			0	37813	0	0	0	23355	21950	160855	27308	1058493	46433	108607	0	0	8175	567159	0	0
2024-09-24 23:47:47			0	37830	0	0	0	23366	21950	160819	27526	1058511	46444	108611	0	0	8176	566480	0	0
2024-09-24 23:48:47			0	37793	0	0	0	23340	21940	160887	27220	1058475	46432	108601	0	0	8174	567991	0	0
2024-09-24 23:49:47			0	37774	0	0	0	23345	21950	161035	27429	1058466	46455	108603	0	0	8173	568720	0	0
2024-09-24 23:50:47			0	37771	0	0	0	23348	21940	160959	27213	1058502	46421	108604	0	0	8173	568871	0	0
2024-09-24 23:51:47			0	37784	0	0	0	23329	21940	160979	27144	1058475	46443	108597	0	0	8174	568351	0	0
2024-09-24 23:52:47			0	37738	0	0	0	23322	21940	161095	27431	1058448	46432	108594	0	0	8171	570194	0	0
2024-09-24 23:53:47			0	37707	0	0	0	23319	21930	161263	27230	1058430	46431	108593	0	0	8170	571470	0	0
2024-09-24 23:54:47			0	37703	0	0	0	23322	21930	161335	27376	1058350	46431	108594	0	0	8169	571631	0	0
2024-09-24 23:55:47			0	37700	0	0	0	23324	21940	161215	27208	1058413	46431	108595	0	0	8169	571720	0	0
2024-09-24 23:56:47			0	37679	0	0	0	23306	21920	161355	27381	1058386	46441	108588	0	0	8168	572627	0	0
2024-09-24 23:57:47			0	37655	0	0	0	23309	21910	161435	27216	1058341	46429	108589	0	0	8167	573625	0	0
2024-09-24 23:58:47			0	37650	0	0	0	23296	21930	161547	27322	1058315	46431	108584	0	0	8167	573763	0	0
2024-09-24 23:59:47			0	37601	0	0	0	23280	21910	161567	27440	1058288	46417	108578	0	0	8164	575802	0	0
2024-09-25 00:00:47			0	37583	0	0	0	23277	21920	161795	27595	1058244	46417	108577	0	0	8163	576497	0	0
2024-09-25 00:01:47			0	37565	0	0	0	23275	21900	161923	27270	1058234	46405	108576	0	0	8162	577289	0	0
2024-09-25 00:02:47			0	37526	0	0	0	23259	21900	161987	27371	1058181	46427	108570	0	0	8160	578867	0	0
2024-09-25 00:03:47			0	37506	0	0	0	23267	21890	162099	27568	1058199	46415	108573	0	0	8158	579710	0	0
2024-09-25 00:04:47			0	37504	0	0	0	23275	21880	162103	27518	1058145	46414	108576	0	0	8158	579823	0	0
2024-09-25 00:05:47			0	37515	0	0	0	23272	21890	162095	27517	1058216	46426	108575	0	0	8159	579345	0	0
2024-09-25 00:06:47			0	37491	0	0	0	23257	21890	162059	27230	1058092	46426	108569	0	0	8158	580318	0	0
2024-09-25 00:07:47			0	37480	0	0	0	23270	21880	162395	27673	1058145	46425	108574	0	0	8157	580797	0	0
2024-09-25 00:08:47			0	37475	0	0	0	23254	21870	162323	27398	1058083	46435	108568	0	0	8157	581032	0	0
2024-09-25 00:09:47			0	37471	0	0	0	23249	21870	162263	27338	1058030	46413	108566	0	0	8157	581195	0	0
2024-09-25 00:10:47			0	37471	0	0	0	23257	21870	162247	27270	1058047	46413	108569	0	0	8156	581195	0	0
2024-09-25 00:11:47			0	37482	0	0	0	23257	21860	162219	27364	1058118	46446	108569	0	0	8157	580781	0	0
2024-09-25 00:12:47			0	37483	0	0	0	23259	21860	162251	27559	1058065	46413	108570	0	0	8157	580740	0	0
2024-09-25 00:13:47			0	37497	0	0	0	23267	21860	162131	27216	1058163	46445	108573	0	0	8158	580172	0	0
2024-09-25 00:14:47			0	37525	0	0	0	23264	21860	162231	27225	1058136	46445	108572	0	0	8159	579037	0	0
2024-09-25 00:15:47			0	37531	0	0	0	23267	21860	162123	27294	1058012	46435	108573	0	0	8160	578794	0	0
2024-09-25 00:16:47			0	37539	0	0	0	23283	21860	162043	27346	1058110	46434	108579	0	0	8160	578470	0	0
2024-09-25 00:17:47			0	37553	0	0	0	23285	21860	162083	27300	1058136	46434	108580	0	0	8161	577903	0	0
2024-09-25 00:18:47			0	37556	0	0	0	23288	21850	161963	27436	1058047	46433	108581	0	0	8161	577814	0	0
2024-09-25 00:19:47			0	37576	0	0	0	23277	21850	161763	27364	1058101	46422	108577	0	0	8162	577005	0	0
2024-09-25 00:20:47			0	37572	0	0	0	23262	21860	161883	27254	1058012	46446	108571	0	0	8162	577134	0	0
2024-09-25 00:21:47			0	37597	0	0	0	23267	21860	161851	27409	1058065	46424	108573	0	0	8164	576124	0	0
2024-09-25 00:22:47			0	37582	0	0	0	23259	21860	161783	27429	1058065	46435	108570	0	0	8163	576730	0	0
2024-09-25 00:23:47			0	37614	0	0	0	23264	21860	161647	27393	1058083	46423	108572	0	0	8165	575438	0	0
2024-09-25 00:24:47			0	37626	0	0	0	23277	21860	161723	27358	1058118	46446	108577	0	0	8165	574954	0	0
2024-09-25 00:25:47			0	37604	0	0	0	23272	21860	161563	27545	1058163	46445	108575	0	0	8164	575842	0	0
2024-09-25 00:26:47			0	37613	0	0	0	23280	21860	161679	27476	1058136	46434	108578	0	0	8164	575478	0	0
2024-09-25 00:27:47			0	37626	0	0	0	23262	21860	161655	27566	1058110	46434	108571	0	0	8165	574954	0	0
2024-09-25 00:28:47			0	37639	0	0	0	23275	21860	161503	27253	1058030	46434	108576	0	0	8166	574430	0	0
2024-09-25 00:29:47			0	37653	0	0	0	23283	21850	161587	27448	1058101	46422	108579	0	0	8167	573898	0	0
2024-09-25 00:30:47			0	37641	0	0	0	23257	21860	161559	27370	1058030	46434	108569	0	0	8166	574349	0	0
2024-09-25 00:31:47			0	37645	0	0	0	23264	21860	161659	27717	1058065	46446	108572	0	0	8167	574188	0	0
2024-09-25 00:32:47			0	37629	0	0	0	23259	21860	161607	27424	1058030	46423	108570	0	0	8166	574833	0	0
2024-09-25 00:33:47			0	37638	0	0	0	23264	21850	161611	27611	1058101	46433	108572	0	0	8166	574502	0	0
2024-09-25 00:34:47			0	37648	0	0	0	23251	21850	161595	27521	1058101	46411	108567	0	0	8167	574099	0	0
2024-09-25 00:35:47			0	37645	0	0	0	23262	21860	161611	27729	1058056	46434	108571	0	0	8167	574188	0	0
2024-09-25 00:36:47			0	37652	0	0	0	23259	21850	161667	27517	1058012	46444	108570	0	0	8167	573938	0	0
2024-09-25 00:37:47			0	37653	0	0	0	23283	21860	161607	27450	1058056	46423	108579	0	0	8167	573866	0	0
2024-09-25 00:38:47			0	37663	0	0	0	23283	21860	161551	27237	1058110	46423	108579	0	0	8167	573463	0	0
2024-09-25 00:39:47			0	37682	0	0	0	23270	21860	161531	27699	1058110	46445	108574	0	0	8169	572698	0	0
2024-09-25 00:40:47			0	37674	0	0	0	23264	21850	161491	27498	1058047	46433	108572	0	0	8168	573052	0	0
2024-09-25 00:41:47			0	37677	0	0	0	23238	21850	161423	27379	1058047	46422	108562	0	0	8169	572931	0	0
2024-09-25 00:42:47			0	37675	0	0	0	23251	21850	161447	27547	1058012	46422	108567	0	0	8169	573012	0	0
2024-09-25 00:43:47			0	37690	0	0	0	23272	21850	161471	27095	1058047	46411	108575	0	0	8169	572408	0	0
2024-09-25 00:44:47			0	37703	0	0	0	23283	21860	161479	27244	1058136	46456	108579	0	0	8170	571854	0	0
2024-09-25 00:45:47			0	37718	0	0	0	23283	21850	161275	27407	1058092	46422	108579	0	0	8171	571283	0	0
2024-09-25 00:46:47			0	37747	0	0	0	23277	21860	161315	27585	1058136	46445	108577	0	0	8172	570087	0	0
2024-09-25 00:47:47			0	37742	0	0	0	23293	21860	161171	27275	1058110	46445	108583	0	0	8172	570288	0	0
2024-09-25 00:48:47			0	37748	0	0	0	23283	21860	161187	27402	1058110	46434	108579	0	0	8172	570047	0	0
2024-09-25 00:49:47			0	37780	0	0	0	23290	21850	161127	27405	1058101	46444	108582	0	0	8174	568796	0	0
2024-09-25 00:50:47			0	37784	0	0	0	23285	21860	161151	27467	1058145	46424	108580	0	0	8174	568604	0	0
2024-09-25 00:51:47			0	37787	0	0	0	23285	21870	161119	27582	1058127	46424	108580	0	0	8175	568453	0	0
2024-09-25 00:52:47			0	37790	0	0	0	23280	21860	161027	27528	1058163	46412	108578	0	0	8175	568364	0	0
2024-09-25 00:53:47			0	37806	0	0	0	23283	21860	160979	27216	1058145	46435	108579	0	0	8176	567724	0	0
2024-09-25 00:54:47			0	37836	0	0	0	23290	21870	160911	27436	1058047	46457	108582	0	0	8177	566493	0	0
2024-09-25 00:55:47			0	37836	0	0	0	23290	21860	160855	27379	1058145	46435	108582	0	0	8177	566525	0	0
2024-09-25 00:56:47			0	37855	0	0	0	23298	21860	160823	27421	1058172	46457	108585	0	0	8178	565766	0	0
2024-09-25 00:57:47			0	37861	0	0	0	23293	21860	160727	27350	1058189	46456	108583	0	0	8179	565526	0	0
2024-09-25 00:58:47			0	37860	0	0	0	23293	21870	160731	27438	1058181	46435	108583	0	0	8179	565535	0	0
2024-09-25 00:59:47			0	37861	0	0	0	23285	21870	160627	27201	1058181	46424	108580	0	0	8179	565495	0	0
2024-09-25 01:00:47			0	37867	0	0	0	23283	21860	160703	27493	1058065	46435	108579	0	0	8179	565287	0	0
2024-09-25 01:01:47			0	37861	0	0	0	23275	21870	160647	27559	1058154	46424	108576	0	0	8179	565495	0	0
2024-09-25 01:02:47			0	37878	0	0	0	23277	21860	160671	27365	1058065	46424	108577	0	0	8180	564848	0	0
2024-09-25 01:03:47			0	37870	0	0	0	23288	21850	160607	27369	1058101	46433	108581	0	0	8179	565199	0	0
2024-09-25 01:04:47			0	37888	0	0	0	23296	21860	160675	27443	1058172	46424	108584	0	0	8180	564450	0	0
2024-09-25 01:05:47			0	37865	0	0	0	23254	21860	160655	27353	1058118	46424	108568	0	0	8180	565367	0	0
2024-09-25 01:06:47			0	37866	0	0	0	23262	21860	160787	27409	1058038	46424	108571	0	0	8180	565327	0	0
2024-09-25 01:07:47			0	37876	0	0	0	23272	21860	160587	27225	1058038	46435	108575	0	0	8180	564928	0	0
2024-09-25 01:08:47			0	37877	0	0	0	23277	21870	160619	27675	1058181	46424	108577	0	0	8180	564857	0	0
2024-09-25 01:09:47			0	37891	0	0	0	23285	21860	160631	27770	1058118	46424	108580	0	0	8181	564330	0	0
2024-09-25 01:10:47			0	37881	0	0	0	23275	21860	160663	27691	1058145	46413	108576	0	0	8180	564729	0	0
2024-09-25 01:11:47			0	37888	0	0	0	23288	21860	160627	27517	1058198	46424	108581	0	0	8180	564450	0	0
2024-09-25 01:12:47			0	37904	0	0	0	23267	21860	160583	27415	1058145	46413	108573	0	0	8182	563812	0	0
2024-09-25 01:13:47			0	37919	0	0	0	23275	21850	160539	27286	1058118	46411	108576	0	0	8182	563246	0	0
2024-09-25 01:14:47			0	37927	0	0	0	23293	21860	160483	27592	1058110	46423	108583	0	0	8183	562897	0	0
2024-09-25 01:15:47			0	37922	0	0	0	23277	21860	160479	27440	1058118	46446	108577	0	0	8183	563095	0	0
2024-09-25 01:16:47			0	37946	0	0	0	23275	21860	160439	27199	1058145	46435	108576	0	0	8184	562141	0	0
2024-09-25 01:17:47			0	37959	0	0	0	23290	21860	160411	27320	1058163	46434	108582	0	0	8185	561624	0	0
2024-09-25 01:18:47			0	37961	0	0	0	23290	21870	160375	27310	1058154	46457	108582	0	0	8185	561514	0	0
2024-09-25 01:19:47			0	37973	0	0	0	23288	21860	160291	27100	1058110	46434	108581	0	0	8185	561068	0	0
2024-09-25 01:20:47			0	37991	0	0	0	23290	21870	160203	27204	1058154	46446	108582	0	0	8187	560322	0	0
2024-09-25 01:21:47			0	37983	0	0	0	23277	21860	160195	27282	1058172	46457	108577	0	0	8186	560671	0	0
2024-09-25 01:22:47			0	37978	0	0	0	23272	21870	160179	27516	1058110	46424	108575	0	0	8186	560838	0	0
2024-09-25 01:23:47			0	38003	0	0	0	23288	21870	160227	27383	1058127	46435	108581	0	0	8187	559847	0	0
2024-09-25 01:24:47			0	37988	0	0	0	23272	21860	160251	27540	1058110	46434	108575	0	0	8187	560473	0	0
2024-09-25 01:25:47			0	37978	0	0	0	23275	21860	160195	27197	1058145	46424	108576	0	0	8186	560870	0	0
2024-09-25 01:26:47			0	37980	0	0	0	23267	21860	160259	26968	1058110	46434	108573	0	0	8186	560790	0	0
2024-09-25 01:27:47			0	37994	0	0	0	23267	21860	160199	27391	1058056	46423	108573	0	0	8187	560235	0	0
2024-09-25 01:28:47			0	37971	0	0	0	23272	21870	160211	27197	1058127	46424	108575	0	0	8186	561116	0	0
2024-09-25 01:29:47			0	37979	0	0	0	23285	21860	160283	27168	1058145	46435	108580	0	0	8186	560830	0	0
2024-09-25 01:30:47			0	37990	0	0	0	23290	21850	160187	26984	1058127	46422	108582	0	0	8186	560425	0	0
2024-09-25 01:31:47			0	38002	0	0	0	23285	21850	160267	27112	1058127	46444	108580	0	0	8187	559949	0	0
2024-09-25 01:32:47			0	38008	0	0	0	23288	21870	160235	27010	1058127	46435	108581	0	0	8188	559648	0	0
2024-09-25 01:33:47			0	38006	0	0	0	23280	21860	160127	27114	1058118	46435	108578	0	0	8188	559759	0	0
2024-09-25 01:34:47			0	38005	0	0	0	23288	21870	160155	27189	1058154	46435	108581	0	0	8187	559767	0	0
2024-09-25 01:35:47			0	38001	0	0	0	23290	21860	160143	27580	1058145	46435	108582	0	0	8187	559957	0	0
2024-09-25 01:36:47			0	38019	0	0	0	23288	21860	160167	27434	1058198	46424	108581	0	0	8188	559244	0	0
2024-09-25 01:37:47			0	38025	0	0	0	23288	21870	160131	27123	1058181	46424	108581	0	0	8189	558975	0	0
2024-09-25 01:38:47			0	38032	0	0	0	23280	21860	160059	27438	1058118	46457	108578	0	0	8189	558729	0	0
2024-09-25 01:39:47			0	38021	0	0	0	23272	21860	160108	27100	1058118	46413	108575	0	0	8189	559164	0	0
2024-09-25 01:40:47			0	38017	0	0	0	23275	21860	160019	27116	1058083	46434	108576	0	0	8188	559323	0	0
2024-09-25 01:41:47			0	38033	0	0	0	23267	21860	160040	27128	1058118	46435	108573	0	0	8189	558689	0	0
2024-09-25 01:42:47			0	38027	0	0	0	23254	21860	160211	27384	1058065	46424	108568	0	0	8189	558927	0	0
2024-09-25 01:43:47			0	38000	0	0	0	23272	21850	160143	27208	1058101	46433	108575	0	0	8187	560028	0	0
2024-09-25 01:44:47			0	37982	0	0	0	23270	21850	160227	27467	1058038	46433	108574	0	0	8186	560742	0	0
2024-09-25 01:45:47			0	37990	0	0	0	23251	21850	160239	27480	1058074	46422	108567	0	0	8187	560425	0	0
2024-09-25 01:46:47			0	37997	0	0	0	23254	21860	160211	27268	1058030	46423	108568	0	0	8187	560116	0	0
2024-09-25 01:47:47			0	37992	0	0	0	23267	21850	160239	27041	1057967	46444	108573	0	0	8187	560345	0	0
2024-09-25 01:48:47			0	38002	0	0	0	23277	21850	160207	27441	1058012	46433	108577	0	0	8187	559949	0	0
2024-09-25 01:49:47			0	38000	0	0	0	23270	21850	160199	27185	1058127	46455	108574	0	0	8187	560028	0	0
2024-09-25 01:50:47			0	37992	0	0	0	23251	21850	160187	27265	1058101	46422	108567	0	0	8187	560345	0	0
2024-09-25 01:51:47			0	38002	0	0	0	23267	21850	160175	27159	1058101	46444	108573	0	0	8187	559949	0	0
2024-09-25 01:52:47			0	37998	0	0	0	23270	21860	160251	27261	1058136	46412	108574	0	0	8187	560076	0	0
2024-09-25 01:53:47			0	38009	0	0	0	23270	21850	160103	27261	1058101	46422	108574	0	0	8188	559671	0	0
2024-09-25 01:54:47			0	38008	0	0	0	23267	21850	160199	27265	1058154	46444	108573	0	0	8188	559711	0	0
2024-09-25 01:55:47			0	38003	0	0	0	23275	21850	160167	27306	1058012	46433	108576	0	0	8187	559909	0	0
2024-09-25 01:56:47			0	38016	0	0	0	23262	21860	160011	27410	1058056	46445	108571	0	0	8188	559363	0	0
2024-09-25 01:57:47			0	37994	0	0	0	23270	21850	160039	27350	1058021	46422	108574	0	0	8187	560266	0	0
2024-09-25 01:58:47			0	37998	0	0	0	23272	21850	160275	27426	1058154	46433	108575	0	0	8187	560107	0	0
2024-09-25 01:59:47			0	38003	0	0	0	23270	21850	160167	27421	1058101	46433	108574	0	0	8187	559909	0	0
2024-09-25 02:00:47			0	38021	0	0	0	23275	21850	160111	27020	1058065	46433	108576	0	0	8188	559196	0	0
2024-09-25 02:01:47			0	38018	0	0	0	23264	21860	160147	26991	1058110	46445	108572	0	0	8188	559283	0	0
2024-09-25 02:02:47			0	38008	0	0	0	23272	21850	160119	27384	1058101	46433	108575	0	0	8188	559711	0	0
2024-09-25 02:03:47			0	38005	0	0	0	23251	21860	160131	27505	1057976	46434	108567	0	0	8188	559799	0	0
2024-09-25 02:04:47			0	38001	0	0	0	23262	21850	160175	27341	1058012	46422	108571	0	0	8187	559988	0	0
2024-09-25 02:05:47			0	37995	0	0	0	23262	21850	160135	27303	1058012	46422	108571	0	0	8187	560226	0	0
2024-09-25 02:06:47			0	38010	0	0	0	23267	21840	160191	27632	1058083	46432	108573	0	0	8188	559663	0	0
2024-09-25 02:07:47			0	37991	0	0	0	23280	21850	160239	27287	1058012	46422	108578	0	0	8187	560385	0	0
2024-09-25 02:08:47			0	38001	0	0	0	23275	21850	160135	27557	1058092	46433	108576	0	0	8187	559988	0	0
2024-09-25 02:09:47			0	38002	0	0	0	23264	21860	160215	27246	1058056	46445	108572	0	0	8188	559917	0	0
2024-09-25 02:10:47			0	38009	0	0	0	23272	21850	160123	27317	1058012	46444	108575	0	0	8188	559671	0	0
2024-09-25 02:11:47			0	37993	0	0	0	23275	21850	160207	27216	1058154	46455	108576	0	0	8187	560306	0	0
2024-09-25 02:12:47			0	37998	0	0	0	23254	21860	160127	27230	1058136	46445	108568	0	0	8187	560076	0	0
2024-09-25 02:13:47			0	37995	0	0	0	23259	21860	160179	27159	1058110	46434	108570	0	0	8187	560195	0	0
2024-09-25 02:14:47			0	37994	0	0	0	23275	21860	160095	27391	1058030	46434	108576	0	0	8187	560235	0	0
2024-09-25 02:15:47			0	37996	0	0	0	23277	21850	160103	27234	1058092	46433	108577	0	0	8187	560187	0	0
2024-09-25 02:16:47			0	38008	0	0	0	23283	21850	160107	27171	1058101	46444	108579	0	0	8188	559711	0	0
2024-09-25 02:17:47			0	38012	0	0	0	23254	21860	160151	27357	1058110	46434	108568	0	0	8188	559521	0	0
2024-09-25 02:18:47			0	37994	0	0	0	23270	21850	160227	27248	1057958	46422	108574	0	0	8187	560266	0	0
2024-09-25 02:19:47			0	38002	0	0	0	23277	21850	160075	27301	1058012	46433	108577	0	0	8187	559949	0	0
2024-09-25 02:20:47			0	37995	0	0	0	23277	21850	160203	27284	1058101	46422	108577	0	0	8187	560226	0	0
2024-09-25 02:21:47			0	38014	0	0	0	23285	21850	160199	27552	1058127	46455	108580	0	0	8188	559473	0	0
2024-09-25 02:22:47			0	38019	0	0	0	23275	21860	160283	27396	1058065	46435	108576	0	0	8188	559244	0	0
2024-09-25 02:23:47			0	38005	0	0	0	23280	21860	160175	27369	1058118	46424	108578	0	0	8187	559799	0	0
2024-09-25 02:24:47			0	38000	0	0	0	23280	21860	160115	27479	1058163	46434	108578	0	0	8187	559997	0	0
2024-09-25 02:25:47			0	37988	0	0	0	23280	21860	160227	27585	1058056	46423	108578	0	0	8186	560473	0	0
2024-09-25 02:26:47			0	37989	0	0	0	23270	21860	160163	27407	1058038	46435	108574	0	0	8187	560433	0	0
2024-09-25 02:27:47			0	37992	0	0	0	23285	21860	160155	27130	1058136	46423	108580	0	0	8187	560314	0	0
2024-09-25 02:28:47			0	37998	0	0	0	23267	21850	160115	27294	1058101	46444	108573	0	0	8187	560107	0	0
2024-09-25 02:29:47			0	37998	0	0	0	23280	21850	160111	27376	1058154	46433	108578	0	0	8187	560107	0	0
2024-09-25 02:30:47			0	37996	0	0	0	23285	21860	160215	27296	1058110	46445	108580	0	0	8187	560155	0	0
2024-09-25 02:31:47			0	38011	0	0	0	23280	21850	160207	27294	1058047	46455	108578	0	0	8188	559592	0	0
2024-09-25 02:32:47			0	38009	0	0	0	23275	21860	160135	27353	1058145	46424	108576	0	0	8188	559640	0	0
2024-09-25 02:33:47			0	37997	0	0	0	23264	21860	160135	27057	1058118	46424	108572	0	0	8187	560116	0	0
2024-09-25 02:34:47			0	37991	0	0	0	23259	21870	160247	27395	1058074	46424	108570	0	0	8187	560322	0	0
2024-09-25 02:35:47			0	38006	0	0	0	23277	21850	160323	27069	1058092	46422	108577	0	0	8188	559790	0	0
2024-09-25 02:36:47			0	37991	0	0	0	23283	21860	160267	27234	1058110	46423	108579	0	0	8187	560354	0	0
2024-09-25 02:37:47			0	38007	0	0	0	23280	21860	160135	27163	1058145	46424	108578	0	0	8188	559719	0	0
2024-09-25 02:38:47			0	37988	0	0	0	23280	21860	160223	27587	1058163	46445	108578	0	0	8186	560473	0	0
2024-09-25 02:39:47			0	38017	0	0	0	23290	21860	160155	27220	1058163	46434	108582	0	0	8188	559323	0	0
2024-09-25 02:40:47			0	37996	0	0	0	23280	21870	160147	27474	1058154	46435	108578	0	0	8187	560124	0	0
2024-09-25 02:41:47			0	37989	0	0	0	23277	21860	160191	27424	1058189	46434	108577	0	0	8187	560433	0	0
2024-09-25 02:42:47			0	37994	0	0	0	23277	21860	160283	27260	1058172	46424	108577	0	0	8187	560235	0	0
2024-09-25 02:43:47			0	37988	0	0	0	23272	21870	160139	27133	1058154	46424	108575	0	0	8187	560442	0	0
2024-09-25 02:44:47			0	37990	0	0	0	23277	21850	160159	27358	1058101	46444	108577	0	0	8187	560425	0	0
2024-09-25 02:45:47			0	38001	0	0	0	23264	21860	160123	27391	1058145	46424	108572	0	0	8187	559957	0	0
2024-09-25 02:46:47			0	37982	0	0	0	23262	21850	160263	27492	1058127	46422	108571	0	0	8186	560742	0	0
2024-09-25 02:47:47			0	37995	0	0	0	23272	21860	160299	27377	1058065	46424	108575	0	0	8187	560195	0	0
2024-09-25 02:48:47			0	37990	0	0	0	23267	21860	160175	27163	1058110	46434	108573	0	0	8187	560393	0	0
2024-09-25 02:49:47			0	37998	0	0	0	23272	21850	160279	27239	1058127	46444	108575	0	0	8187	560107	0	0
2024-09-25 02:50:47			0	37995	0	0	0	23272	21870	160295	27192	1058154	46435	108575	0	0	8187	560164	0	0
2024-09-25 02:51:47			0	37987	0	0	0	23262	21850	160235	27166	1058101	46433	108571	0	0	8187	560544	0	0
2024-09-25 02:52:47			0	37971	0	0	0	23275	21850	160195	27197	1058038	46422	108576	0	0	8186	561179	0	0
2024-09-25 02:53:47			0	37985	0	0	0	23285	21850	160251	27274	1058118	46433	108580	0	0	8186	560623	0	0
2024-09-25 02:54:47			0	37992	0	0	0	23257	21860	160183	27329	1058030	46445	108569	0	0	8187	560314	0	0
2024-09-25 02:55:47			0	38006	0	0	0	23280	21850	160191	27500	1058127	46422	108578	0	0	8187	559790	0	0
2024-09-25 02:56:47			0	37998	0	0	0	23288	21850	160147	27281	1058127	46444	108581	0	0	8187	560107	0	0
2024-09-25 02:57:47			0	37998	0	0	0	23290	21860	160215	27324	1058136	46434	108582	0	0	8187	560076	0	0
2024-09-25 02:58:47			0	37998	0	0	0	23272	21850	160159	27209	1058127	46433	108575	0	0	8187	560107	0	0
2024-09-25 02:59:47			0	38024	0	0	0	23290	21860	160279	27138	1058189	46423	108582	0	0	8188	559046	0	0
2024-09-25 03:00:47			0	38041	0	0	0	23277	21860	160064	26925	1058189	46423	108577	0	0	8190	558372	0	0
2024-09-25 03:01:47			0	38010	0	0	0	23275	21850	160147	27441	1058101	46444	108576	0	0	8188	559632	0	0
2024-09-25 03:02:47			0	38023	0	0	0	23280	21860	160115	27537	1058189	46434	108578	0	0	8189	559085	0	0
2024-09-25 03:03:47			0	38026	0	0	0	23293	21860	160043	27164	1058163	46434	108583	0	0	8188	558966	0	0
2024-09-25 03:04:47			0	38027	0	0	0	23290	21860	160080	27078	1058189	46456	108582	0	0	8189	558927	0	0
2024-09-25 03:05:47			0	38026	0	0	0	23267	21870	160019	27088	1058216	46446	108573	0	0	8189	558935	0	0
2024-09-25 03:06:47			0	38025	0	0	0	23283	21860	160080	27038	1058136	46434	108579	0	0	8189	559006	0	0
2024-09-25 03:07:47			0	38024	0	0	0	23285	21860	160119	27286	1058145	46424	108580	0	0	8188	559046	0	0
2024-09-25 03:08:47			0	38004	0	0	0	23257	21860	160083	27194	1058163	46434	108569	0	0	8188	559838	0	0
2024-09-25 03:09:47			0	38026	0	0	0	23280	21860	160095	27147	1058083	46434	108578	0	0	8189	558966	0	0
2024-09-25 03:10:47			0	38026	0	0	0	23285	21860	160052	27324	1058163	46423	108580	0	0	8189	558966	0	0
2024-09-25 03:11:47			0	38016	0	0	0	23283	21860	159944	27326	1058136	46434	108579	0	0	8188	559363	0	0
2024-09-25 03:12:47			0	38023	0	0	0	23285	21860	159940	27118	1058172	46435	108580	0	0	8188	559085	0	0
2024-09-25 03:13:47			0	38034	0	0	0	23290	21860	160024	27254	1058163	46423	108582	0	0	8189	558649	0	0
2024-09-25 03:14:47			0	38044	0	0	0	23296	21870	159908	27026	1058181	46424	108584	0	0	8190	558222	0	0
2024-09-25 03:15:47			0	38068	0	0	0	23296	21870	160040	27277	1058234	46435	108584	0	0	8191	557273	0	0
2024-09-25 03:16:47			0	38049	0	0	0	23272	21870	159936	27400	1058163	46435	108575	0	0	8190	558025	0	0
2024-09-25 03:17:47			0	38069	0	0	0	23288	21860	159876	27201	1058225	46435	108581	0	0	8191	557265	0	0
2024-09-25 03:18:47			0	38050	0	0	0	23283	21860	159908	27144	1058145	46435	108579	0	0	8190	558016	0	0
2024-09-25 03:19:47			0	38055	0	0	0	23280	21860	159840	27303	1058198	46457	108578	0	0	8190	557818	0	0
2024-09-25 03:20:47			0	38062	0	0	0	23306	21870	159908	27537	1058154	46424	108588	0	0	8190	557510	0	0
2024-09-25 03:21:47			0	38080	0	0	0	23296	21860	159848	27282	1058198	46446	108584	0	0	8192	556830	0	0
2024-09-25 03:22:47			0	38077	0	0	0	23303	21860	159740	27152	1058172	46435	108587	0	0	8191	556948	0	0
2024-09-25 03:23:47			0	38079	0	0	0	23288	21870	159844	27131	1058207	46435	108581	0	0	8192	556838	0	0
2024-09-25 03:24:47			0	38079	0	0	0	23309	21880	159744	27422	1058279	46436	108589	0	0	8191	556807	0	0
2024-09-25 03:25:47			0	38090	0	0	0	23293	21870	159776	27121	1058216	46424	108583	0	0	8192	556404	0	0
2024-09-25 03:26:47			0	38090	0	0	0	23293	21870	159808	27244	1058190	46435	108583	0	0	8192	556404	0	0
2024-09-25 03:27:47			0	38092	0	0	0	23306	21880	159712	27287	1058332	46425	108588	0	0	8192	556294	0	0
2024-09-25 03:28:47			0	38093	0	0	0	23301	21860	159616	27374	1058278	46435	108586	0	0	8192	556316	0	0
2024-09-25 03:29:47			0	38107	0	0	0	23298	21880	159696	27144	1058199	46436	108585	0	0	8193	555702	0	0
2024-09-25 03:30:47			0	38110	0	0	0	23283	21870	159608	27492	1058163	46457	108579	0	0	8194	555614	0	0
2024-09-25 03:31:47			0	38096	0	0	0	23298	21870	159708	27152	1058190	46424	108585	0	0	8193	556167	0	0
2024-09-25 03:32:47			0	38100	0	0	0	23316	21870	159704	27232	1058270	46435	108592	0	0	8192	556009	0	0
2024-09-25 03:33:47			0	38131	0	0	0	23314	21880	159620	27275	1058305	46436	108591	0	0	8194	554755	0	0
2024-09-25 03:34:47			0	38124	0	0	0	23303	21870	159492	27332	1058270	46435	108587	0	0	8194	555062	0	0
2024-09-25 03:35:47			0	38126	0	0	0	23303	21880	159568	27355	1058234	46426	108587	0	0	8194	554952	0	0
2024-09-25 03:36:47			0	38122	0	0	0	23306	21880	159520	27895	1058225	46425	108588	0	0	8194	555110	0	0
2024-09-25 03:37:47			0	38139	0	0	0	23314	21880	159560	27376	1058341	46426	108591	0	0	8195	554440	0	0
2024-09-25 03:38:47			0	38143	0	0	0	23293	21880	159592	27618	1058261	46437	108583	0	0	8195	554282	0	0
2024-09-25 03:39:47			0	38110	0	0	0	23290	21880	159668	27739	1058252	46447	108582	0	0	8194	555583	0	0
2024-09-25 03:40:47			0	38141	0	0	0	23298	21880	159528	27717	1058288	46437	108585	0	0	8195	554361	0	0
2024-09-25 03:41:47			0	38136	0	0	0	23288	21880	159616	27436	1058225	46447	108581	0	0	8195	554558	0	0
2024-09-25 03:42:47			0	38125	0	0	0	23298	21880	159652	27422	1058261	46437	108585	0	0	8194	554992	0	0
2024-09-25 03:43:47			0	38138	0	0	0	23272	21880	159540	27241	1058208	46437	108575	0	0	8195	554479	0	0
2024-09-25 03:44:47			0	38118	0	0	0	23290	21880	159488	27308	1058288	46415	108582	0	0	8194	555268	0	0
2024-09-25 03:45:47			0	38118	0	0	0	23285	21880	159580	27538	1058225	46436	108580	0	0	8194	555268	0	0
2024-09-25 03:46:47			0	38123	0	0	0	23290	21880	159588	27343	1058199	46436	108582	0	0	8194	555070	0	0
2024-09-25 03:47:47			0	38118	0	0	0	23298	21880	159644	27176	1058225	46458	108585	0	0	8194	555268	0	0
2024-09-25 03:48:47			0	38126	0	0	0	23298	21880	159544	27421	1058234	46437	108585	0	0	8194	554952	0	0
2024-09-25 03:49:47			0	38131	0	0	0	23280	21870	159676	27422	1058181	46424	108578	0	0	8195	554786	0	0
2024-09-25 03:50:47			0	38125	0	0	0	23283	21880	159576	27543	1058225	46447	108579	0	0	8195	554992	0	0
2024-09-25 03:51:47			0	38122	0	0	0	23293	21880	159568	27488	1058252	46458	108583	0	0	8194	555110	0	0
2024-09-25 03:52:47			0	38108	0	0	0	23277	21880	159592	27227	1058225	46436	108577	0	0	8194	555662	0	0
2024-09-25 03:53:47			0	38125	0	0	0	23280	21880	159716	27488	1058225	46436	108578	0	0	8195	554992	0	0
2024-09-25 03:54:47			0	38125	0	0	0	23259	21880	159772	27471	1058279	46425	108570	0	0	8195	554992	0	0
2024-09-25 03:55:47			0	38100	0	0	0	23290	21860	159628	27588	1058172	46413	108582	0	0	8193	556040	0	0
2024-09-25 03:56:47			0	38109	0	0	0	23275	21870	159704	27355	1058181	46446	108576	0	0	8194	555654	0	0
2024-09-25 03:57:47			0	38118	0	0	0	23288	21860	159684	27301	1058198	46446	108581	0	0	8194	555329	0	0
2024-09-25 03:58:47			0	38128	0	0	0	23285	21880	159620	27517	1058234	46458	108580	0	0	8195	554873	0	0
2024-09-25 03:59:47			0	38137	0	0	0	23290	21870	159512	27046	1058207	46435	108582	0	0	8195	554549	0	0
2024-09-25 04:00:47			0	38123	0	0	0	23290	21880	159520	27334	1058261	46437	108582	0	0	8194	555070	0	0
2024-09-25 04:01:47			0	38128	0	0	0	23270	21880	159632	27268	1058225	46425	108574	0	0	8195	554873	0	0
2024-09-25 04:02:47			0	38125	0	0	0	23285	21870	159696	27438	1058216	46424	108580	0	0	8194	555022	0	0
2024-09-25 04:03:47			0	38104	0	0	0	23264	21860	159584	27509	1058145	46435	108572	0	0	8194	555882	0	0
2024-09-25 04:04:47			0	38112	0	0	0	23285	21860	159724	27383	1058198	46424	108580	0	0	8194	555566	0	0
2024-09-25 04:05:47			0	38130	0	0	0	23277	21860	159676	27137	1058198	46424	108577	0	0	8195	554856	0	0
2024-09-25 04:06:47			0	38124	0	0	0	23296	21860	159656	27083	1058172	46435	108584	0	0	8194	555093	0	0
2024-09-25 04:07:47			0	38123	0	0	0	23275	21860	159696	27329	1058172	46446	108576	0	0	8194	555132	0	0
2024-09-25 04:08:47			0	38134	0	0	0	23296	21870	159668	27275	1058234	46424	108584	0	0	8195	554668	0	0
2024-09-25 04:09:47			0	38137	0	0	0	23293	21870	159520	27019	1058181	46424	108583	0	0	8195	554549	0	0
2024-09-25 04:10:47			0	38127	0	0	0	23283	21870	159592	27156	1058207	46435	108579	0	0	8195	554944	0	0
2024-09-25 04:11:47			0	38118	0	0	0	23280	21860	159544	27168	1058172	46424	108578	0	0	8194	555329	0	0
2024-09-25 04:12:47			0	38134	0	0	0	23293	21860	159580	27277	1058172	46424	108583	0	0	8195	554699	0	0
2024-09-25 04:13:47			0	38128	0	0	0	23285	21870	159640	27390	1058154	46435	108580	0	0	8195	554904	0	0
2024-09-25 04:14:47			0	38133	0	0	0	23275	21860	159636	27303	1058145	46424	108576	0	0	8195	554738	0	0
2024-09-25 04:15:47			0	38136	0	0	0	23290	21860	159576	27102	1058198	46435	108582	0	0	8195	554620	0	0
2024-09-25 04:16:47			0	38149	0	0	0	23298	21870	159572	27331	1058234	46446	108585	0	0	8196	554077	0	0
2024-09-25 04:17:47			0	38148	0	0	0	23262	21870	159528	27409	1058261	46424	108571	0	0	8196	554116	0	0
2024-09-25 04:18:47			0	38131	0	0	0	23275	21860	159692	27367	1058145	46435	108576	0	0	8195	554817	0	0
2024-09-25 04:19:47			0	38143	0	0	0	23296	21860	159648	27055	1058198	46446	108584	0	0	8195	554344	0	0
2024-09-25 04:20:47			0	38132	0	0	0	23275	21870	159592	27452	1058190	46446	108576	0	0	8195	554746	0	0
2024-09-25 04:21:47			0	38136	0	0	0	23280	21860	159644	27672	1058225	46424	108578	0	0	8195	554620	0	0
2024-09-25 04:22:47			0	38145	0	0	0	23293	21860	159656	27428	1058145	46435	108583	0	0	8195	554265	0	0
2024-09-25 04:23:47			0	38152	0	0	0	23290	21870	159560	27294	1058207	46446	108582	0	0	8196	553958	0	0
2024-09-25 04:24:47			0	38141	0	0	0	23296	21860	159592	27559	1058145	46457	108584	0	0	8195	554423	0	0
2024-09-25 04:25:47			0	38125	0	0	0	23283	21870	159668	27415	1058234	46435	108579	0	0	8194	555022	0	0
2024-09-25 04:26:47			0	38136	0	0	0	23283	21860	159604	27308	1058172	46424	108579	0	0	8195	554620	0	0
2024-09-25 04:27:47			0	38142	0	0	0	23290	21870	159616	27502	1058154	46435	108582	0	0	8195	554352	0	0
2024-09-25 04:28:47			0	38137	0	0	0	23275	21860	159508	27327	1058252	46424	108576	0	0	8195	554580	0	0
2024-09-25 04:29:47			0	38158	0	0	0	23303	21860	159652	27137	1058145	46435	108587	0	0	8196	553753	0	0
2024-09-25 04:30:47			0	38157	0	0	0	23293	21870	159536	27452	1058216	46457	108583	0	0	8196	553761	0	0
2024-09-25 04:31:47			0	38148	0	0	0	23272	21870	159572	27407	1058154	46435	108575	0	0	8196	554116	0	0
2024-09-25 04:32:47			0	38138	0	0	0	23283	21870	159552	27500	1058163	46446	108579	0	0	8195	554510	0	0
2024-09-25 04:33:47			0	38150	0	0	0	23293	21870	159604	27561	1058207	46435	108583	0	0	8196	554037	0	0
2024-09-25 04:34:47			0	38126	0	0	0	23293	21880	159608	27360	1058225	46436	108583	0	0	8194	554952	0	0
2024-09-25 04:35:47			0	38127	0	0	0	23290	21870	159528	27312	1058243	46435	108582	0	0	8194	554944	0	0
2024-09-25 04:36:47			0	38140	0	0	0	23285	21870	159572	27414	1058234	46446	108580	0	0	8195	554431	0	0
2024-09-25 04:37:47			0	38142	0	0	0	23280	21870	159536	27550	1058154	46435	108578	0	0	8196	554352	0	0
2024-09-25 04:38:47			0	38120	0	0	0	23277	21870	159660	27379	1058110	46413	108577	0	0	8194	555220	0	0
2024-09-25 04:39:47			0	38153	0	0	0	23290	21870	159612	27204	1058181	46424	108582	0	0	8196	553919	0	0
2024-09-25 04:40:47			0	38126	0	0	0	23285	21870	159576	27576	1058181	46424	108580	0	0	8195	554983	0	0
2024-09-25 04:41:47			0	38117	0	0	0	23285	21860	159636	27171	1058118	46435	108580	0	0	8194	555369	0	0
2024-09-25 04:42:47			0	38138	0	0	0	23293	21870	159644	27178	1058207	46435	108583	0	0	8195	554510	0	0
2024-09-25 04:43:47			0	38138	0	0	0	23293	21870	159596	27324	1058207	46446	108583	0	0	8195	554510	0	0
2024-09-25 04:44:47			0	38153	0	0	0	23298	21870	159596	27211	1058243	46435	108585	0	0	8196	553919	0	0
2024-09-25 04:45:47			0	38162	0	0	0	23285	21870	159552	27483	1058207	46424	108580	0	0	8197	553565	0	0
2024-09-25 04:46:47			0	38157	0	0	0	23280	21870	159584	27093	1058190	46435	108578	0	0	8196	553761	0	0
2024-09-25 04:47:47			0	38159	0	0	0	23293	21860	159544	27282	1058198	46435	108583	0	0	8196	553714	0	0
2024-09-25 04:48:47			0	38156	0	0	0	23293	21870	159596	27204	1058216	46435	108583	0	0	8196	553801	0	0
2024-09-25 04:49:47			0	38155	0	0	0	23267	21870	159564	27509	1058216	46424	108573	0	0	8197	553840	0	0
2024-09-25 04:50:47			0	38145	0	0	0	23280	21860	159540	27384	1058172	46424	108578	0	0	8196	554265	0	0
2024-09-25 04:51:47			0	38159	0	0	0	23285	21850	159588	27267	1058181	46433	108580	0	0	8196	553744	0	0
2024-09-25 04:52:47			0	38169	0	0	0	23283	21870	159572	27036	1058243	46435	108579	0	0	8197	553289	0	0
2024-09-25 04:53:47			0	38145	0	0	0	23283	21860	159516	27331	1058172	46435	108579	0	0	8196	554265	0	0
2024-09-25 04:54:47			0	38137	0	0	0	23264	21870	159532	27608	1058190	46424	108572	0	0	8196	554549	0	0
2024-09-25 04:55:47			0	38126	0	0	0	23270	21870	159528	27345	1058181	46435	108574	0	0	8195	554983	0	0
2024-09-25 04:56:47			0	38166	0	0	0	23288	21870	159584	27036	1058127	46457	108581	0	0	8197	553407	0	0
2024-09-25 04:57:47			0	38156	0	0	0	23288	21860	159520	27197	1058172	46435	108581	0	0	8196	553832	0	0
2024-09-25 04:58:47			0	38147	0	0	0	23277	21860	159544	27294	1058145	46424	108577	0	0	8196	554186	0	0
2024-09-25 04:59:47			0	38151	0	0	0	23272	21860	159544	27227	1058110	46423	108575	0	0	8196	554029	0	0
2024-09-25 05:00:47			0	38142	0	0	0	23275	21860	159652	27471	1058145	46435	108576	0	0	8196	554383	0	0
2024-09-25 05:01:47			0	38145	0	0	0	23280	21860	159708	27246	1058172	46435	108578	0	0	8196	554265	0	0
2024-09-25 05:02:47			0	38124	0	0	0	23277	21860	159608	27429	1058118	46435	108577	0	0	8194	555093	0	0
2024-09-25 05:03:47			0	38127	0	0	0	23275	21860	159600	27242	1058145	46413	108576	0	0	8195	554975	0	0
2024-09-25 05:04:47			0	38131	0	0	0	23283	21850	159676	27313	1058101	46422	108579	0	0	8195	554848	0	0
2024-09-25 05:05:47			0	38135	0	0	0	23270	21860	159736	27578	1058225	46435	108574	0	0	8195	554659	0	0
2024-09-25 05:06:47			0	38135	0	0	0	23277	21850	159616	27609	1058181	46433	108577	0	0	8195	554690	0	0
2024-09-25 05:07:47			0	38134	0	0	0	23257	21860	159644	27249	1058198	46424	108569	0	0	8195	554699	0	0
2024-09-25 05:08:47			0	38114	0	0	0	23285	21850	159564	27261	1058127	46411	108580	0	0	8194	555518	0	0
2024-09-25 05:09:47			0	38122	0	0	0	23277	21860	159604	27407	1058145	46446	108577	0	0	8194	555172	0	0
2024-09-25 05:10:47			0	38128	0	0	0	23272	21860	159664	27436	1058065	46424	108575	0	0	8195	554935	0	0
2024-09-25 05:11:47			0	38124	0	0	0	23272	21860	159640	27445	1058145	46435	108575	0	0	8195	555093	0	0
2024-09-25 05:12:47			0	38113	0	0	0	23275	21850	159700	27388	1058127	46433	108576	0	0	8194	555558	0	0
2024-09-25 05:13:47			0	38113	0	0	0	23270	21860	159708	27215	1058198	46435	108574	0	0	8194	555527	0	0
2024-09-25 05:14:47			0	38118	0	0	0	23290	21850	159748	27282	1058181	46444	108582	0	0	8194	555360	0	0
2024-09-25 05:15:47			0	38114	0	0	0	23275	21860	159728	27298	1058198	46435	108576	0	0	8194	555487	0	0
2024-09-25 05:16:47			0	38113	0	0	0	23272	21860	159792	27301	1058172	46424	108575	0	0	8194	555527	0	0
2024-09-25 05:17:47			0	38126	0	0	0	23272	21850	159740	27402	1058127	46433	108575	0	0	8195	555045	0	0
2024-09-25 05:18:47			0	38135	0	0	0	23277	21860	159688	27670	1058163	46423	108577	0	0	8195	554659	0	0
2024-09-25 05:19:47			0	38130	0	0	0	23283	21860	159644	27462	1058163	46445	108579	0	0	8195	554856	0	0
2024-09-25 05:20:47			0	38136	0	0	0	23285	21860	159632	27493	1058172	46435	108580	0	0	8195	554620	0	0
2024-09-25 05:21:47			0	38127	0	0	0	23285	21860	159576	27488	1058172	46435	108580	0	0	8195	554975	0	0
2024-09-25 05:22:47			0	38143	0	0	0	23280	21860	159528	27524	1058163	46445	108578	0	0	8196	554344	0	0
2024-09-25 05:23:47			0	38136	0	0	0	23275	21860	159652	27499	1058118	46413	108576	0	0	8195	554620	0	0
2024-09-25 05:24:47			0	38126	0	0	0	23272	21860	159552	27476	1058136	46434	108575	0	0	8195	555014	0	0
2024-09-25 05:25:47			0	38126	0	0	0	23270	21860	159684	27286	1058110	46434	108574	0	0	8195	555014	0	0
2024-09-25 05:26:47			0	38130	0	0	0	23283	21860	159576	27621	1058110	46434	108579	0	0	8195	554856	0	0
2024-09-25 05:27:47			0	38130	0	0	0	23259	21860	159572	27239	1058172	46424	108570	0	0	8195	554856	0	0
2024-09-25 05:28:47			0	38122	0	0	0	23280	21860	159724	27445	1058145	46446	108578	0	0	8194	555172	0	0
2024-09-25 05:29:47			0	38147	0	0	0	23272	21860	159608	27215	1058189	46423	108575	0	0	8196	554186	0	0
2024-09-25 05:30:47			0	38131	0	0	0	23275	21860	159656	27350	1058198	46446	108576	0	0	8195	554817	0	0
2024-09-25 05:31:47			0	38122	0	0	0	23275	21850	159556	27590	1058145	46433	108576	0	0	8194	555203	0	0
2024-09-25 05:32:47			0	38105	0	0	0	23262	21850	159632	27646	1058154	46422	108571	0	0	8194	555873	0	0
2024-09-25 05:33:47			0	38113	0	0	0	23251	21860	159756	27620	1058110	46412	108567	0	0	8194	555527	0	0
2024-09-25 05:34:47			0	38098	0	0	0	23270	21860	159720	27388	1058065	46435	108574	0	0	8193	556119	0	0
2024-09-25 05:35:47			0	38108	0	0	0	23280	21860	159688	27069	1058172	46435	108578	0	0	8193	555724	0	0
2024-09-25 05:36:47			0	38103	0	0	0	23272	21860	159640	27552	1058083	46434	108575	0	0	8193	555921	0	0
2024-09-25 05:37:47			0	38095	0	0	0	23264	21850	159712	27234	1058127	46433	108572	0	0	8193	556268	0	0
2024-09-25 05:38:47			0	38089	0	0	0	23267	21860	159696	27706	1058216	46434	108573	0	0	8193	556474	0	0
2024-09-25 05:39:47			0	38098	0	0	0	23257	21860	159680	27300	1058110	46445	108569	0	0	8193	556119	0	0
2024-09-25 05:40:47			0	38090	0	0	0	23249	21850	159828	27549	1058101	46444	108566	0	0	8193	556466	0	0
2024-09-25 05:41:47			0	38084	0	0	0	23257	21850	159816	27301	1058092	46422	108569	0	0	8192	556703	0	0
2024-09-25 05:42:47			0	38092	0	0	0	23272	21850	159784	27301	1058118	46422	108575	0	0	8193	556387	0	0
2024-09-25 05:43:47			0	38076	0	0	0	23254	21850	159808	27696	1058118	46422	108568	0	0	8192	557019	0	0
2024-09-25 05:44:47			0	38092	0	0	0	23275	21840	159676	27312	1058109	46421	108576	0	0	8193	556418	0	0
2024-09-25 05:45:47			0	38079	0	0	0	23267	21850	159760	27317	1058127	46433	108573	0	0	8192	556900	0	0
2024-09-25 05:46:47			0	38090	0	0	0	23267	21850	159832	27550	1058092	46455	108573	0	0	8193	556466	0	0
2024-09-25 05:47:47			0	38098	0	0	0	23259	21840	159736	27732	1058136	46421	108570	0	0	8193	556181	0	0
2024-09-25 05:48:47			0	38091	0	0	0	23262	21850	159760	27469	1058092	46422	108571	0	0	8193	556426	0	0
2024-09-25 05:49:47			0	38083	0	0	0	23251	21850	159804	27326	1058118	46433	108567	0	0	8192	556742	0	0
2024-09-25 05:50:47			0	38090	0	0	0	23272	21850	159736	27341	1058127	46444	108575	0	0	8193	556466	0	0
2024-09-25 05:51:47			0	38080	0	0	0	23264	21850	159740	27453	1058145	46411	108572	0	0	8192	556861	0	0
2024-09-25 05:52:47			0	38085	0	0	0	23257	21850	159720	27575	1058172	46433	108569	0	0	8192	556663	0	0
2024-09-25 05:53:47			0	38089	0	0	0	23277	21850	159764	27678	1058092	46433	108577	0	0	8192	556505	0	0
2024-09-25 05:54:47			0	38073	0	0	0	23262	21840	159616	27248	1058100	46432	108571	0	0	8192	557169	0	0
2024-09-25 05:55:47			0	38105	0	0	0	23267	21850	159700	27222	1058038	46422	108573	0	0	8193	555873	0	0
2024-09-25 05:56:47			0	38081	0	0	0	23259	21850	159836	27521	1058092	46422	108570	0	0	8192	556821	0	0
2024-09-25 05:57:47			0	38090	0	0	0	23251	21850	159692	27753	1058038	46422	108567	0	0	8193	556466	0	0
2024-09-25 05:58:47			0	38091	0	0	0	23277	21840	159772	28065	1058109	46432	108577	0	0	8192	556457	0	0
2024-09-25 05:59:47			0	38075	0	0	0	23257	21850	159804	27490	1058145	46444	108569	0	0	8192	557058	0	0
2024-09-25 06:00:47			0	38076	0	0	0	23272	21840	159864	27559	1058083	46432	108575	0	0	8192	557050	0	0
2024-09-25 06:01:47			0	38060	0	0	0	23249	21840	159880	27556	1058100	46432	108566	0	0	8191	557683	0	0
2024-09-25 06:02:47			0	38049	0	0	0	23246	21850	159968	27428	1058118	46422	108565	0	0	8191	558087	0	0
2024-09-25 06:03:47			0	38054	0	0	0	23257	21840	159904	27324	1058074	46443	108569	0	0	8191	557920	0	0
2024-09-25 06:04:47			0	38050	0	0	0	23246	21830	159936	27386	1058091	46420	108565	0	0	8191	558109	0	0
2024-09-25 06:05:47			0	38058	0	0	0	23264	21840	159812	27478	1058047	46432	108572	0	0	8191	557762	0	0
2024-09-25 06:06:47			0	38064	0	0	0	23251	21840	159892	27552	1058100	46443	108567	0	0	8191	557524	0	0
2024-09-25 06:07:47			0	38040	0	0	0	23254	21840	160000	27457	1058083	46443	108568	0	0	8190	558474	0	0
2024-09-25 06:08:47			0	38051	0	0	0	23251	21840	159880	27410	1058083	46421	108567	0	0	8191	558039	0	0
2024-09-25 06:09:47			0	38060	0	0	0	23262	21830	159996	27216	1058011	46420	108571	0	0	8191	557714	0	0
2024-09-25 06:10:47			0	38064	0	0	0	23275	21850	159888	27372	1058092	46455	108576	0	0	8191	557493	0	0
2024-09-25 06:11:47			0	38073	0	0	0	23272	21850	159776	27435	1058198	46455	108575	0	0	8192	557137	0	0
2024-09-25 06:12:47			0	38087	0	0	0	23259	21850	159796	27779	1058145	46455	108570	0	0	8193	556584	0	0
2024-09-25 06:13:47			0	38066	0	0	0	23249	21850	159800	27403	1058101	46433	108566	0	0	8192	557414	0	0
2024-09-25 06:14:47			0	38063	0	0	0	23246	21840	159884	27784	1058083	46432	108565	0	0	8191	557564	0	0
2024-09-25 06:15:47			0	38036	0	0	0	23241	21850	159912	27459	1058092	46422	108563	0	0	8190	558601	0	0
2024-09-25 06:16:47			0	38043	0	0	0	23244	21840	159940	27308	1058100	46421	108564	0	0	8190	558355	0	0
2024-09-25 06:17:47			0	38055	0	0	0	23249	21850	159972	27767	1058012	46422	108566	0	0	8191	557849	0	0
2024-09-25 06:18:47			0	38048	0	0	0	23244	21830	159972	27480	1057985	46420	108564	0	0	8190	558189	0	0
2024-09-25 06:19:47			0	38035	0	0	0	23238	21840	160008	27326	1057940	46421	108562	0	0	8190	558672	0	0
2024-09-25 06:20:47			0	38015	0	0	0	23267	21840	160071	27338	1057994	46432	108573	0	0	8188	559464	0	0
2024-09-25 06:21:47			0	38023	0	0	0	23277	21830	160047	27554	1058055	46420	108577	0	0	8188	559179	0	0
2024-09-25 06:22:47			0	38067	0	0	0	23262	21840	159876	27507	1058074	46454	108571	0	0	8191	557406	0	0
2024-09-25 06:23:47			0	38058	0	0	0	23249	21840	159928	27124	1058127	46443	108566	0	0	8191	557762	0	0
2024-09-25 06:24:47			0	38040	0	0	0	23246	21840	159872	27365	1058109	46421	108565	0	0	8190	558474	0	0
2024-09-25 06:25:47			0	38042	0	0	0	23267	21840	159928	27301	1058109	46432	108573	0	0	8190	558395	0	0
2024-09-25 06:26:47			0	38058	0	0	0	23259	21840	159916	27296	1058109	46432	108570	0	0	8191	557762	0	0
2024-09-25 06:27:47			0	38069	0	0	0	23244	21840	159964	27616	1058083	46421	108564	0	0	8192	557327	0	0
2024-09-25 06:28:47			0	38035	0	0	0	23238	21830	159992	27561	1057985	46442	108562	0	0	8190	558703	0	0
2024-09-25 06:29:47			0	38038	0	0	0	23246	21830	160008	27559	1057975	46431	108565	0	0	8190	558584	0	0
2024-09-25 06:30:47			0	38028	0	0	0	23244	21830	159879	27402	1057975	46420	108564	0	0	8189	558980	0	0
2024-09-25 06:31:47			0	38049	0	0	0	23244	21830	159988	27609	1057985	46431	108564	0	0	8191	558149	0	0
2024-09-25 06:32:47			0	38052	0	0	0	23233	21830	159996	27422	1057985	46420	108560	0	0	8191	558030	0	0
2024-09-25 06:33:47			0	38012	0	0	0	23241	21830	160011	27454	1057931	46420	108563	0	0	8188	559614	0	0
2024-09-25 06:34:47			0	38031	0	0	0	23231	21830	159964	27358	1057949	46442	108559	0	0	8190	558862	0	0
2024-09-25 06:35:47			0	38024	0	0	0	23236	21820	160035	27293	1058073	46408	108561	0	0	8189	559170	0	0
2024-09-25 06:36:47			0	38034	0	0	0	23236	21820	160064	27241	1057913	46430	108561	0	0	8190	558774	0	0
2024-09-25 06:37:47			0	38023	0	0	0	23233	21820	159944	27164	1057931	46419	108560	0	0	8189	559210	0	0
2024-09-25 06:38:47			0	38021	0	0	0	23233	21830	160067	27216	1057931	46442	108560	0	0	8189	559258	0	0
2024-09-25 06:39:47			0	38016	0	0	0	23238	21830	160091	27454	1057985	46442	108562	0	0	8189	559456	0	0
2024-09-25 06:40:47			0	38033	0	0	0	23236	21830	160128	27663	1057958	46420	108561	0	0	8190	558782	0	0
2024-09-25 06:41:47			0	38027	0	0	0	23254	21830	159944	27178	1057975	46431	108568	0	0	8189	559020	0	0
2024-09-25 06:42:47			0	38030	0	0	0	23233	21810	160088	27303	1057975	46440	108560	0	0	8189	558964	0	0
2024-09-25 06:43:47			0	38023	0	0	0	23241	21820	160043	27350	1057958	46441	108563	0	0	8189	559210	0	0
2024-09-25 06:44:47			0	38039	0	0	0	23238	21820	160072	26989	1057958	46441	108562	0	0	8190	558576	0	0
2024-09-25 06:45:47			0	38041	0	0	0	23236	21830	159928	27199	1058055	46420	108561	0	0	8190	558466	0	0
2024-09-25 06:46:47			0	38018	0	0	0	23251	21820	159875	27204	1058020	46430	108567	0	0	8189	559408	0	0
2024-09-25 06:47:47			0	38042	0	0	0	23236	21820	159896	27249	1057966	46419	108561	0	0	8190	558457	0	0
2024-09-25 06:48:47			0	38033	0	0	0	23233	21820	159940	27530	1057913	46430	108560	0	0	8190	558813	0	0
2024-09-25 06:49:47			0	38029	0	0	0	23228	21830	160136	27268	1057975	46420	108558	0	0	8190	558941	0	0
2024-09-25 06:50:47			0	38009	0	0	0	23223	21810	160139	27473	1057922	46418	108556	0	0	8188	559796	0	0
2024-09-25 06:51:47			0	38009	0	0	0	23215	21810	160219	27398	1057922	46429	108553	0	0	8189	559796	0	0
2024-09-25 06:52:47			0	38005	0	0	0	23233	21810	160135	27388	1057949	46407	108560	0	0	8188	559954	0	0
2024-09-25 06:53:47			0	38005	0	0	0	23236	21810	160175	27659	1057922	46407	108561	0	0	8188	559954	0	0
2024-09-25 06:54:47			0	38017	0	0	0	23251	21820	160143	27545	1057931	46430	108567	0	0	8188	559448	0	0
2024-09-25 06:55:47			0	38028	0	0	0	23228	21820	160139	27270	1057958	46430	108558	0	0	8190	559012	0	0
2024-09-25 06:56:47			0	38009	0	0	0	23231	21820	160059	27421	1057993	46430	108559	0	0	8188	559765	0	0
2024-09-25 06:57:47			0	38005	0	0	0	23215	21820	160119	27710	1057878	46408	108553	0	0	8188	559923	0	0
2024-09-25 06:58:47			0	37998	0	0	0	23210	21810	160251	27415	1057886	46439	108551	0	0	8188	560232	0	0
2024-09-25 06:59:47			0	37987	0	0	0	23231	21810	160307	27637	1057922	46440	108559	0	0	8187	560669	0	0
2024-09-25 07:00:47			0	37995	0	0	0	23249	21810	160303	27355	1057940	46406	108566	0	0	8187	560351	0	0
2024-09-25 07:01:47			0	37994	0	0	0	23233	21820	160235	27286	1057993	46441	108560	0	0	8187	560360	0	0
2024-09-25 07:02:47			0	37998	0	0	0	23225	21820	160211	27909	1057931	46419	108557	0	0	8188	560201	0	0
2024-09-25 07:03:47			0	38007	0	0	0	23241	21820	160167	27616	1058038	46419	108563	0	0	8188	559844	0	0
2024-09-25 07:04:47			0	38021	0	0	0	23257	21820	160052	27454	1058064	46430	108569	0	0	8189	559289	0	0
2024-09-25 07:05:47			0	38038	0	0	0	23257	21820	159996	27699	1057958	46441	108569	0	0	8190	558616	0	0
2024-09-25 07:06:47			0	38021	0	0	0	23228	21820	160103	27313	1057984	46430	108558	0	0	8189	559289	0	0
2024-09-25 07:07:47			0	38010	0	0	0	23218	21820	160159	27388	1057931	46441	108554	0	0	8189	559725	0	0
2024-09-25 07:08:47			0	37992	0	0	0	23223	21810	160247	27320	1057949	46440	108556	0	0	8187	560470	0	0
2024-09-25 07:09:47			0	38004	0	0	0	23223	21810	160215	27524	1058002	46418	108556	0	0	8188	559994	0	0
2024-09-25 07:10:47			0	37981	0	0	0	23223	21810	160247	27685	1057895	46440	108556	0	0	8187	560907	0	0
2024-09-25 07:11:47			0	37989	0	0	0	23228	21820	160203	27580	1057904	46419	108558	0	0	8187	560558	0	0
2024-09-25 07:12:47			0	38010	0	0	0	23238	21810	160131	27268	1057895	46429	108562	0	0	8188	559756	0	0
2024-09-25 07:13:47			0	37995	0	0	0	23236	21810	160339	27604	1057922	46418	108561	0	0	8187	560351	0	0
2024-09-25 07:14:47			0	38005	0	0	0	23233	21810	160275	27341	1057975	46429	108560	0	0	8188	559954	0	0
2024-09-25 07:15:47			0	37999	0	0	0	23223	21810	160239	27374	1057842	46418	108556	0	0	8188	560192	0	0
2024-09-25 07:16:47			0	37989	0	0	0	23238	21820	160283	27367	1057984	46430	108562	0	0	8187	560558	0	0
2024-09-25 07:17:47			0	38013	0	0	0	23244	21820	160151	27161	1057958	46441	108564	0	0	8188	559606	0	0
2024-09-25 07:18:47			0	38030	0	0	0	23215	21810	160140	27161	1058002	46451	108553	0	0	8190	558964	0	0
2024-09-25 07:19:47			0	37999	0	0	0	23212	21810	160243	27301	1057895	46429	108552	0	0	8188	560192	0	0
2024-09-25 07:20:47			0	38002	0	0	0	23244	21810	160243	27296	1058002	46407	108564	0	0	8188	560073	0	0
2024-09-25 07:21:47			0	38003	0	0	0	23236	21820	160183	27282	1057984	46430	108561	0	0	8188	560003	0	0
2024-09-25 07:22:47			0	38022	0	0	0	23236	21820	160139	27289	1057904	46441	108561	0	0	8189	559249	0	0
2024-09-25 07:23:47			0	38022	0	0	0	23228	21820	160143	27524	1057913	46430	108558	0	0	8189	559249	0	0
2024-09-25 07:24:47			0	38011	0	0	0	23244	21810	160263	27580	1057842	46429	108564	0	0	8188	559716	0	0
2024-09-25 07:25:47			0	38032	0	0	0	23241	21810	160116	27421	1058029	46440	108563	0	0	8189	558884	0	0
2024-09-25 07:26:47			0	38034	0	0	0	23238	21810	160088	27391	1057975	46418	108562	0	0	8190	558805	0	0
2024-09-25 07:27:47			0	38036	0	0	0	23238	21830	160188	27270	1057975	46431	108562	0	0	8190	558664	0	0
2024-09-25 07:28:47			0	38030	0	0	0	23212	21820	160128	27568	1057931	46430	108552	0	0	8190	558932	0	0
2024-09-25 07:29:47			0	38004	0	0	0	23225	21810	160135	27608	1057949	46429	108557	0	0	8188	559994	0	0
2024-09-25 07:30:47			0	38030	0	0	0	23233	21810	160152	27272	1057940	46428	108560	0	0	8189	558964	0	0
2024-09-25 07:31:47			0	38014	0	0	0	23218	21810	160203	27403	1057940	46428	108554	0	0	8189	559598	0	0
2024-09-25 07:32:47			0	38009	0	0	0	23231	21810	160071	27137	1057895	46429	108559	0	0	8188	559796	0	0
2024-09-25 07:33:47			0	38000	0	0	0	23244	21810	160143	27627	1057975	46440	108564	0	0	8188	560153	0	0
2024-09-25 07:34:47			0	38009	0	0	0	23233	21820	160163	27741	1057958	46430	108560	0	0	8188	559765	0	0
2024-09-25 07:35:47			0	38008	0	0	0	23212	21810	160207	27059	1058046	46428	108552	0	0	8189	559835	0	0
2024-09-25 07:36:47			0	38026	0	0	0	23244	21810	160195	27561	1057913	46417	108564	0	0	8189	559122	0	0
2024-09-25 07:37:47			0	38011	0	0	0	23236	21820	160255	27561	1057931	46430	108561	0	0	8188	559685	0	0
2024-09-25 07:38:47			0	38039	0	0	0	23241	21820	160192	27590	1057958	46430	108563	0	0	8190	558576	0	0
2024-09-25 07:39:47			0	38037	0	0	0	23246	21810	160036	27452	1058029	46440	108565	0	0	8190	558686	0	0
2024-09-25 07:40:47			0	38039	0	0	0	23225	21820	160080	27678	1058046	46430	108557	0	0	8190	558576	0	0
2024-09-25 07:41:47			0	38033	0	0	0	23225	21810	160116	27424	1057949	46429	108557	0	0	8190	558845	0	0
2024-09-25 07:42:47			0	38023	0	0	0	23225	21820	160216	27467	1057958	46419	108557	0	0	8189	559210	0	0
2024-09-25 07:43:47			0	38021	0	0	0	23223	21820	160244	27566	1057904	46419	108556	0	0	8189	559289	0	0
2024-09-25 07:44:47			0	38015	0	0	0	23236	21810	160131	27518	1057922	46429	108561	0	0	8189	559558	0	0
2024-09-25 07:45:47			0	38028	0	0	0	23241	21800	160103	27573	1057931	46428	108563	0	0	8189	559074	0	0
2024-09-25 07:46:47			0	38039	0	0	0	23244	21830	160060	27566	1058002	46442	108564	0	0	8190	558545	0	0
2024-09-25 07:47:47			0	38062	0	0	0	23254	21820	160084	27590	1058011	46441	108568	0	0	8191	557666	0	0
2024-09-25 07:48:47			0	38065	0	0	0	23246	21820	160028	27815	1057931	46441	108565	0	0	8191	557547	0	0
2024-09-25 07:49:47			0	38056	0	0	0	23223	21820	160000	27590	1058038	46441	108556	0	0	8191	557903	0	0
2024-09-25 07:50:47			0	38046	0	0	0	23233	21830	160052	27587	1058055	46420	108560	0	0	8191	558268	0	0
2024-09-25 07:51:47			0	38050	0	0	0	23233	21820	159944	27621	1057993	46430	108560	0	0	8191	558140	0	0
2024-09-25 07:52:47			0	38044	0	0	0	23231	21820	159960	27902	1057993	46408	108559	0	0	8190	558378	0	0
2024-09-25 07:53:47			0	38055	0	0	0	23228	21820	160060	27679	1057904	46419	108558	0	0	8191	557943	0	0
2024-09-25 07:54:47			0	38006	0	0	0	23220	21810	160059	27760	1057949	46418	108555	0	0	8188	559915	0	0
2024-09-25 07:55:47			0	38033	0	0	0	23225	21820	160136	27516	1057966	46430	108557	0	0	8190	558813	0	0
2024-09-25 07:56:47			0	38028	0	0	0	23223	21810	160143	27675	1057895	46429	108556	0	0	8190	559043	0	0
2024-09-25 07:57:47			0	38028	0	0	0	23238	21820	160067	27753	1057904	46419	108562	0	0	8189	559012	0	0
2024-09-25 07:58:47			0	38041	0	0	0	23215	21820	160020	27748	1058038	46430	108553	0	0	8190	558497	0	0
2024-09-25 07:59:47			0	38043	0	0	0	23228	21820	160092	27673	1057958	46419	108558	0	0	8190	558418	0	0
2024-09-25 08:00:47			0	38053	0	0	0	23228	21810	160048	27710	1057949	46429	108558	0	0	8191	558053	0	0
2024-09-25 08:01:47			0	38053	0	0	0	23220	21810	160048	27784	1057949	46429	108555	0	0	8191	558053	0	0
2024-09-25 08:02:47			0	38043	0	0	0	23225	21810	160064	27739	1057949	46429	108557	0	0	8190	558449	0	0
2024-09-25 08:03:47			0	38052	0	0	0	23236	21800	159988	27429	1057984	46439	108561	0	0	8191	558124	0	0
2024-09-25 08:04:47			0	38061	0	0	0	23241	21820	159884	27509	1057966	46441	108563	0	0	8191	557705	0	0
2024-09-25 08:05:47			0	38068	0	0	0	23212	21830	159936	27581	1057975	46431	108552	0	0	8192	557397	0	0
2024-09-25 08:06:47			0	38070	0	0	0	23215	21810	159968	27405	1057922	46429	108553	0	0	8192	557380	0	0
2024-09-25 08:07:47			0	38053	0	0	0	23233	21820	159984	27398	1057958	46430	108560	0	0	8191	558022	0	0
2024-09-25 08:08:47			0	38049	0	0	0	23241	21810	160016	27403	1057949	46429	108563	0	0	8190	558211	0	0
2024-09-25 08:09:47			0	38080	0	0	0	23249	21820	159976	27547	1057958	46441	108566	0	0	8192	556954	0	0
2024-09-25 08:10:47			0	38076	0	0	0	23215	21810	159956	27386	1057940	46450	108553	0	0	8192	557143	0	0
2024-09-25 08:11:47			0	38056	0	0	0	23223	21810	159940	27642	1057949	46429	108556	0	0	8191	557934	0	0
2024-09-25 08:12:47			0	38065	0	0	0	23223	21820	159948	27388	1057966	46430	108556	0	0	8192	557547	0	0
2024-09-25 08:13:47			0	38060	0	0	0	23215	21820	159988	27412	1057931	46419	108553	0	0	8192	557745	0	0
2024-09-25 08:14:47			0	38069	0	0	0	23218	21810	159980	27649	1057949	46407	108554	0	0	8192	557420	0	0
2024-09-25 08:15:47			0	38060	0	0	0	23225	21810	159952	27538	1057940	46417	108557	0	0	8191	557776	0	0
2024-09-25 08:16:47			0	38055	0	0	0	23238	21810	160080	27098	1057860	46417	108562	0	0	8191	557974	0	0
2024-09-25 08:17:47			0	38062	0	0	0	23236	21810	159876	27410	1057966	46439	108561	0	0	8191	557697	0	0
2024-09-25 08:18:47			0	38060	0	0	0	23212	21820	159952	27364	1057984	46430	108552	0	0	8192	557745	0	0
2024-09-25 08:19:47			0	38062	0	0	0	23236	21810	159960	27576	1057949	46418	108561	0	0	8191	557697	0	0
2024-09-25 08:20:47			0	38060	0	0	0	23225	21810	159956	27732	1057975	46418	108557	0	0	8191	557776	0	0
2024-09-25 08:21:47			0	38084	0	0	0	23231	21810	159964	27441	1057940	46417	108559	0	0	8193	556827	0	0
2024-09-25 08:22:47			0	38077	0	0	0	23225	21820	159996	27493	1057958	46419	108557	0	0	8192	557072	0	0
2024-09-25 08:23:47			0	38068	0	0	0	23238	21820	159944	27353	1057931	46430	108562	0	0	8192	557428	0	0
2024-09-25 08:24:47			0	38099	0	0	0	23241	21800	159892	27753	1057984	46439	108563	0	0	8193	556265	0	0
2024-09-25 08:25:47			0	38063	0	0	0	23238	21820	159916	27338	1057958	46441	108562	0	0	8191	557626	0	0
2024-09-25 08:26:47			0	38099	0	0	0	23244	21810	159880	27678	1057975	46429	108564	0	0	8193	556234	0	0
2024-09-25 08:27:47			0	38111	0	0	0	23233	21820	159880	27312	1057940	46430	108560	0	0	8194	555729	0	0
2024-09-25 08:28:47			0	38094	0	0	0	23236	21820	159864	27369	1057958	46430	108561	0	0	8193	556401	0	0
2024-09-25 08:29:47			0	38105	0	0	0	23236	21820	159792	27613	1057958	46430	108561	0	0	8194	555966	0	0
2024-09-25 08:30:47			0	38113	0	0	0	23238	21810	159788	27434	1057966	46428	108562	0	0	8194	555682	0	0
2024-09-25 08:31:47			0	38092	0	0	0	23244	21820	159704	27517	1057966	46452	108564	0	0	8193	556480	0	0
2024-09-25 08:32:47			0	38115	0	0	0	23233	21810	159736	27462	1057975	46440	108560	0	0	8194	555602	0	0
2024-09-25 08:33:47			0	38119	0	0	0	23257	21820	159728	27921	1058038	46430	108569	0	0	8194	555414	0	0
2024-09-25 08:34:47			0	38118	0	0	0	23249	21820	159684	27476	1058064	46441	108566	0	0	8194	555453	0	0
2024-09-25 08:35:47			0	38133	0	0	0	23233	21830	159716	27369	1058065	46453	108560	0	0	8196	554831	0	0
2024-09-25 08:36:47			0	38142	0	0	0	23238	21830	159596	27543	1058082	46420	108562	0	0	8196	554476	0	0
2024-09-25 08:37:47			0	38135	0	0	0	23249	21820	159628	27476	1058046	46452	108566	0	0	8195	554783	0	0
2024-09-25 08:38:47			0	38142	0	0	0	23259	21830	159524	27666	1058135	46431	108570	0	0	8196	554476	0	0
2024-09-25 08:39:47			0	38147	0	0	0	23251	21830	159564	27542	1058109	46442	108567	0	0	8196	554279	0	0
2024-09-25 08:40:47			0	38156	0	0	0	23249	21830	159556	27414	1058091	46431	108566	0	0	8197	553924	0	0
2024-09-25 08:41:47			0	38159	0	0	0	23238	21840	159528	27523	1058100	46421	108562	0	0	8197	553775	0	0
2024-09-25 08:42:47			0	38170	0	0	0	23246	21830	159448	27604	1058109	46442	108565	0	0	8198	553373	0	0
2024-09-25 08:43:47			0	38154	0	0	0	23241	21830	159480	27630	1057975	46442	108563	0	0	8197	554003	0	0
2024-09-25 08:44:47			0	38169	0	0	0	23249	21830	159572	27620	1058118	46431	108566	0	0	8197	553412	0	0
2024-09-25 08:45:47			0	38167	0	0	0	23254	21830	159476	27531	1058109	46442	108568	0	0	8197	553491	0	0
2024-09-25 08:46:47			0	38184	0	0	0	23257	21830	159472	27757	1058109	46431	108569	0	0	8198	552822	0	0
2024-09-25 08:47:47			0	38172	0	0	0	23262	21840	159512	27519	1058020	46432	108571	0	0	8197	553263	0	0
2024-09-25 08:48:47			0	38184	0	0	0	23254	21840	159412	27514	1058127	46443	108568	0	0	8198	552791	0	0
2024-09-25 08:49:47			0	38181	0	0	0	23254	21830	159360	27640	1058082	46442	108568	0	0	8198	552940	0	0
2024-09-25 08:50:47			0	38181	0	0	0	23262	21840	159332	27433	1058056	46421	108571	0	0	8198	552909	0	0
2024-09-25 08:51:47			0	38175	0	0	0	23264	21840	159408	27538	1058154	46432	108572	0	0	8198	553145	0	0
2024-09-25 08:52:47			0	38177	0	0	0	23270	21840	159344	27550	1058109	46421	108574	0	0	8198	553067	0	0
2024-09-25 08:53:47			0	38199	0	0	0	23275	21840	159380	27559	1058127	46432	108576	0	0	8199	552201	0	0
2024-09-25 08:54:47			0	38209	0	0	0	23262	21840	159400	27322	1058127	46443	108571	0	0	8200	551808	0	0
2024-09-25 08:55:47			0	38197	0	0	0	23264	21830	159312	27519	1058198	46453	108572	0	0	8199	552311	0	0
2024-09-25 08:56:47			0	38215	0	0	0	23264	21840	159288	27249	1058109	46432	108572	0	0	8200	551572	0	0
2024-09-25 08:57:47			0	38224	0	0	0	23267	21840	159308	27531	1058136	46432	108573	0	0	8200	551219	0	0
2024-09-25 08:58:47			0	38221	0	0	0	23270	21840	159260	27441	1058109	46443	108574	0	0	8200	551337	0	0
2024-09-25 08:59:47			0	38194	0	0	0	23262	21850	159296	27400	1058118	46422	108571	0	0	8199	552367	0	0
2024-09-25 09:00:47			0	38208	0	0	0	23262	21850	159240	27282	1058118	46433	108571	0	0	8200	551817	0	0
2024-09-25 09:01:47			0	38222	0	0	0	23275	21850	159220	27327	1058118	46422	108576	0	0	8200	551267	0	0
2024-09-25 09:02:47			0	38228	0	0	0	23280	21850	159180	27583	1058172	46422	108578	0	0	8200	551031	0	0
2024-09-25 09:03:47			0	38218	0	0	0	23270	21850	159304	27265	1058198	46433	108574	0	0	8200	551424	0	0
2024-09-25 09:04:47			0	38222	0	0	0	23277	21850	159168	27410	1058198	46433	108577	0	0	8200	551267	0	0
2024-09-25 09:05:47			0	38225	0	0	0	23285	21850	159220	27836	1058145	46422	108580	0	0	8200	551149	0	0
2024-09-25 09:06:47			0	38234	0	0	0	23272	21850	159156	27353	1058207	46422	108575	0	0	8201	550796	0	0
2024-09-25 09:07:47			0	38228	0	0	0	23270	21850	159196	27682	1058261	46422	108574	0	0	8201	551031	0	0
2024-09-25 09:08:47			0	38239	0	0	0	23275	21850	159172	27329	1058172	46433	108576	0	0	8201	550600	0	0
2024-09-25 09:09:47			0	38241	0	0	0	23280	21840	159156	27573	1058136	46432	108578	0	0	8201	550552	0	0
2024-09-25 09:10:47			0	38247	0	0	0	23285	21860	159092	27383	1058189	46445	108580	0	0	8202	550255	0	0
2024-09-25 09:11:47			0	38251	0	0	0	23277	21860	159068	27481	1058243	46434	108577	0	0	8202	550098	0	0
2024-09-25 09:12:47			0	38269	0	0	0	23283	21850	159220	27602	1058225	46444	108579	0	0	8203	549423	0	0
2024-09-25 09:13:47			0	38267	0	0	0	23290	21850	159080	27438	1058234	46444	108582	0	0	8203	549502	0	0
2024-09-25 09:14:47			0	38270	0	0	0	23280	21850	159080	27505	1058207	46444	108578	0	0	8203	549384	0	0
2024-09-25 09:15:47			0	38272	0	0	0	23283	21860	159124	27244	1058198	46446	108579	0	0	8203	549275	0	0
2024-09-25 09:16:47			0	38279	0	0	0	23303	21860	158980	27267	1058252	46435	108587	0	0	8203	549001	0	0
2024-09-25 09:17:47			0	38276	0	0	0	23293	21860	158988	27436	1058252	46424	108583	0	0	8203	549118	0	0
2024-09-25 09:18:47			0	38293	0	0	0	23303	21850	158980	27618	1058234	46433	108587	0	0	8204	548483	0	0
2024-09-25 09:19:47			0	38285	0	0	0	23296	21860	159116	27405	1058252	46435	108584	0	0	8204	548766	0	0
2024-09-25 09:20:47			0	38295	0	0	0	23298	21870	158996	27618	1058350	46457	108585	0	0	8204	548344	0	0
2024-09-25 09:21:47			0	38313	0	0	0	23306	21860	158984	27218	1058323	46434	108588	0	0	8205	547670	0	0
2024-09-25 09:22:47			0	38312	0	0	0	23306	21870	158884	27429	1058287	46424	108588	0	0	8205	547679	0	0
2024-09-25 09:23:47			0	38318	0	0	0	23314	21870	158912	27393	1058314	46435	108591	0	0	8205	547444	0	0
2024-09-25 09:24:47			0	38314	0	0	0	23311	21880	158896	27530	1058332	46458	108590	0	0	8205	547570	0	0
2024-09-25 09:25:47			0	38320	0	0	0	23301	21880	158828	27568	1058385	46425	108586	0	0	8206	547335	0	0
2024-09-25 09:26:47			0	38323	0	0	0	23309	21880	158852	27495	1058332	46447	108589	0	0	8206	547218	0	0
2024-09-25 09:27:47			0	38336	0	0	0	23316	21880	158892	27384	1058332	46425	108592	0	0	8206	546710	0	0
2024-09-25 09:28:47			0	38343	0	0	0	23324	21880	158872	27355	1058341	46437	108595	0	0	8207	546437	0	0
2024-09-25 09:29:47			0	38343	0	0	0	23316	21890	158744	27358	1058430	46437	108592	0	0	8207	546406	0	0
2024-09-25 09:30:47			0	38330	0	0	0	23322	21880	158792	27514	1058341	46448	108594	0	0	8206	546944	0	0
2024-09-25 09:31:47			0	38355	0	0	0	23327	21890	158888	27531	1058385	46437	108596	0	0	8207	545938	0	0
2024-09-25 09:32:47			0	38349	0	0	0	23324	21890	158784	27324	1058412	46437	108595	0	0	8207	546172	0	0
2024-09-25 09:33:47			0	38351	0	0	0	23327	21890	158924	27281	1058403	46437	108596	0	0	8207	546094	0	0
2024-09-25 09:34:47			0	38362	0	0	0	23329	21890	158732	27505	1058359	46448	108597	0	0	8208	545665	0	0
2024-09-25 09:35:47			0	38362	0	0	0	23332	21890	158676	27438	1058412	46448	108598	0	0	8208	545665	0	0
2024-09-25 09:36:47			0	38377	0	0	0	23335	21900	158640	27239	1058448	46438	108599	0	0	8208	545049	0	0
2024-09-25 09:37:47			0	38377	0	0	0	23335	21890	158668	27260	1058412	46458	108599	0	0	8208	545079	0	0
2024-09-25 09:38:47			0	38379	0	0	0	23332	21900	158676	27457	1058430	46450	108598	0	0	8209	544971	0	0
2024-09-25 09:39:47			0	38383	0	0	0	23327	21910	158696	27594	1058439	46450	108596	0	0	8209	544785	0	0
2024-09-25 09:40:47			0	38390	0	0	0	23335	21910	158676	27410	1058519	46450	108599	0	0	8209	544512	0	0
2024-09-25 09:41:47			0	38394	0	0	0	23345	21910	158648	27480	1058421	46440	108603	0	0	8209	544356	0	0
2024-09-25 09:42:47			0	38410	0	0	0	23345	21910	158572	27216	1058492	46428	108603	0	0	8210	543733	0	0
2024-09-25 09:43:47			0	38408	0	0	0	23348	21910	158636	27556	1058439	46439	108604	0	0	8210	543811	0	0
2024-09-25 09:44:47			0	38399	0	0	0	23350	21910	158540	27519	1058475	46451	108605	0	0	8210	544161	0	0
2024-09-25 09:45:47			0	38396	0	0	0	23355	21920	158604	27583	1058510	46440	108607	0	0	8209	544248	0	0
2024-09-25 09:46:47			0	38410	0	0	0	23350	21920	158528	27353	1058519	46452	108605	0	0	8210	543703	0	0
2024-09-25 09:47:47			0	38421	0	0	0	23358	21910	158520	27499	1058581	46417	108608	0	0	8211	543305	0	0
2024-09-25 09:48:47			0	38429	0	0	0	23368	21920	158540	27552	1058572	46452	108612	0	0	8211	542963	0	0
2024-09-25 09:49:47			0	38432	0	0	0	23366	21920	158524	27685	1058546	46419	108611	0	0	8211	542847	0	0
2024-09-25 09:50:47			0	38438	0	0	0	23376	21930	158552	27831	1058564	46463	108615	0	0	8211	542583	0	0
2024-09-25 09:51:47			0	38434	0	0	0	23361	21930	158488	27757	1058635	46453	108609	0	0	8211	542739	0	0
2024-09-25 09:52:47			0	38449	0	0	0	23368	21930	158384	27751	1058581	46442	108612	0	0	8212	542155	0	0
2024-09-25 09:53:47			0	38437	0	0	0	23373	21930	158396	27554	1058581	46442	108614	0	0	8211	542622	0	0
2024-09-25 09:54:47			0	38442	0	0	0	23371	21930	158372	27616	1058608	46442	108613	0	0	8212	542427	0	0
2024-09-25 09:55:47			0	38443	0	0	0	23363	21940	158380	27488	1058626	46442	108610	0	0	8212	542358	0	0
2024-09-25 09:56:47			0	38419	0	0	0	23366	21930	158440	27715	1058608	46463	108611	0	0	8210	543322	0	0
2024-09-25 09:57:47			0	38430	0	0	0	23379	21940	158408	27393	1058626	46453	108616	0	0	8211	542864	0	0
2024-09-25 09:58:47			0	38447	0	0	0	23384	21950	158400	27502	1058671	46444	108618	0	0	8212	542173	0	0
2024-09-25 09:59:47			0	38449	0	0	0	23376	21940	158364	27552	1058653	46453	108615	0	0	8212	542125	0	0
2024-09-25 10:00:47			0	38458	0	0	0	23384	21950	158284	27502	1058671	46433	108618	0	0	8213	541745	0	0
2024-09-25 10:01:47			0	38470	0	0	0	23392	21940	158132	27303	1058715	46465	108621	0	0	8213	541310	0	0
2024-09-25 10:02:47			0	38486	0	0	0	23394	21950	158264	27402	1058724	46444	108622	0	0	8214	540658	0	0
2024-09-25 10:03:47			0	38500	0	0	0	23389	21950	158264	27284	1058724	46444	108620	0	0	8215	540116	0	0
2024-09-25 10:04:47			0	38507	0	0	0	23394	21960	158184	27267	1058662	46444	108622	0	0	8215	539814	0	0
2024-09-25 10:05:47			0	38515	0	0	0	23392	21960	158212	27428	1058742	46466	108621	0	0	8216	539504	0	0
2024-09-25 10:06:47			0	38508	0	0	0	23397	21960	158132	27630	1058778	46478	108623	0	0	8215	539775	0	0
2024-09-25 10:07:47			0	38508	0	0	0	23392	21960	158124	27732	1058724	46467	108621	0	0	8215	539775	0	0
2024-09-25 10:08:47			0	38527	0	0	0	23410	21970	158052	27495	1058760	46457	108628	0	0	8216	539009	0	0
2024-09-25 10:09:47			0	38512	0	0	0	23405	21960	158088	27732	1058804	46478	108626	0	0	8215	539620	0	0
2024-09-25 10:10:47			0	38526	0	0	0	23405	21960	158064	27483	1058831	46456	108626	0	0	8216	539078	0	0
2024-09-25 10:11:47			0	38529	0	0	0	23407	21970	157960	27838	1058867	46457	108627	0	0	8216	538932	0	0
2024-09-25 10:12:47			0	38541	0	0	0	23412	21980	158028	27443	1058858	46467	108629	0	0	8217	538437	0	0
2024-09-25 10:13:47			0	38545	0	0	0	23415	21970	158096	27798	1058796	46467	108630	0	0	8217	538313	0	0
2024-09-25 10:14:47			0	38525	0	0	0	23407	21980	157972	27970	1058885	46467	108627	0	0	8216	539057	0	0
2024-09-25 10:15:47			0	38497	0	0	0	23402	21980	158140	27531	1058858	46457	108625	0	0	8215	540141	0	0
2024-09-25 10:16:47			0	38518	0	0	0	23420	21980	158032	27668	1058805	46446	108632	0	0	8216	539328	0	0
2024-09-25 10:17:47			0	38533	0	0	0	23415	21970	157992	27478	1058876	46457	108630	0	0	8216	538777	0	0
2024-09-25 10:18:47			0	38522	0	0	0	23418	21980	158024	27606	1058894	46436	108631	0	0	8216	539173	0	0
2024-09-25 10:19:47			0	38540	0	0	0	23428	21980	157892	27588	1058840	46458	108635	0	0	8217	538476	0	0
2024-09-25 10:20:47			0	38547	0	0	0	23433	21990	157912	27260	1058876	46448	108637	0	0	8217	538175	0	0
2024-09-25 10:21:47			0	38556	0	0	0	23425	21990	157852	27405	1058929	46458	108634	0	0	8218	537827	0	0
2024-09-25 10:22:47			0	38574	0	0	0	23425	21990	157728	27538	1058938	46459	108634	0	0	8219	537131	0	0
2024-09-25 10:23:47			0	38582	0	0	0	23418	22000	157904	27711	1058947	46459	108631	0	0	8219	536792	0	0
2024-09-25 10:24:47			0	38587	0	0	0	23420	21990	157832	27585	1058938	46459	108632	0	0	8220	536629	0	0
2024-09-25 10:25:47			0	38576	0	0	0	23428	21990	157888	27306	1058885	46459	108635	0	0	8219	537054	0	0
2024-09-25 10:26:47			0	38574	0	0	0	23412	21990	157800	27601	1058823	46437	108629	0	0	8219	537131	0	0
2024-09-25 10:27:47			0	38579	0	0	0	23423	22000	157836	27457	1058920	46438	108633	0	0	8219	536908	0	0
2024-09-25 10:28:47			0	38572	0	0	0	23420	21990	157820	27727	1058965	46459	108632	0	0	8219	537209	0	0
2024-09-25 10:29:47			0	38591	0	0	0	23425	22000	157792	27633	1058894	46438	108634	0	0	8220	536445	0	0
2024-09-25 10:30:47			0	38591	0	0	0	23418	22000	157804	27315	1058894	46438	108631	0	0	8220	536445	0	0
2024-09-25 10:31:47			0	38594	0	0	0	23423	22010	157760	27720	1058929	46449	108633	0	0	8220	536299	0	0
2024-09-25 10:32:47			0	38580	0	0	0	23425	22010	157760	27533	1058983	46459	108634	0	0	8219	536840	0	0
2024-09-25 10:33:47			0	38596	0	0	0	23420	21990	157684	28018	1058929	46458	108632	0	0	8220	536282	0	0
2024-09-25 10:34:47			0	38610	0	0	0	23423	22000	157788	27718	1058947	46459	108633	0	0	8221	535712	0	0
2024-09-25 10:35:47			0	38606	0	0	0	23418	21990	157736	27750	1058885	46438	108631	0	0	8221	535896	0	0
2024-09-25 10:36:47			0	38583	0	0	0	23423	21980	157672	27440	1058894	46469	108633	0	0	8219	536814	0	0
2024-09-25 10:37:47			0	38601	0	0	0	23431	22010	157824	27653	1058983	46438	108636	0	0	8220	536029	0	0
2024-09-25 10:38:47			0	38595	0	0	0	23433	21990	157780	27765	1058938	46471	108637	0	0	8220	536320	0	0
2024-09-25 10:39:47			0	38598	0	0	0	23425	21990	157768	27450	1058903	46448	108634	0	0	8220	536205	0	0
2024-09-25 10:40:47			0	38598	0	0	0	23428	22000	157656	27429	1058947	46449	108635	0	0	8220	536175	0	0
2024-09-25 10:41:47			0	38598	0	0	0	23438	21990	157652	27557	1058991	46449	108639	0	0	8220	536205	0	0
2024-09-25 10:42:47			0	38614	0	0	0	23436	22010	157736	27556	1058956	46459	108638	0	0	8221	535528	0	0
2024-09-25 10:43:47			0	38633	0	0	0	23433	22010	157612	27670	1058992	46460	108637	0	0	8222	534795	0	0
2024-09-25 10:44:47			0	38618	0	0	0	23433	22010	157724	27492	1059045	46460	108637	0	0	8221	535373	0	0
2024-09-25 10:45:47			0	38607	0	0	0	23438	21990	157680	27769	1058991	46449	108639	0	0	8220	535857	0	0
2024-09-25 10:46:47			0	38628	0	0	0	23431	22010	157644	27722	1058992	46472	108636	0	0	8222	534988	0	0
2024-09-25 10:47:47			0	38623	0	0	0	23436	22020	157652	27412	1059010	46461	108638	0	0	8222	535151	0	0
2024-09-25 10:48:47			0	38622	0	0	0	23431	22000	157744	27826	1058947	46459	108636	0	0	8221	535249	0	0
2024-09-25 10:49:47			0	38616	0	0	0	23441	22020	157676	27601	1059001	46451	108640	0	0	8221	535421	0	0
2024-09-25 10:50:47			0	38616	0	0	0	23451	22020	157676	27734	1058974	46461	108644	0	0	8221	535421	0	0
2024-09-25 10:51:47			0	38614	0	0	0	23459	22010	157648	27620	1059018	46472	108647	0	0	8221	535528	0	0
2024-09-25 10:52:47			0	38625	0	0	0	23457	22020	157552	27305	1059063	46473	108646	0	0	8221	535074	0	0
2024-09-25 10:53:47			0	38642	0	0	0	23451	22020	157564	27237	1059116	46451	108644	0	0	8222	534419	0	0
2024-09-25 10:54:47			0	38638	0	0	0	23457	22020	157500	27244	1059063	46451	108646	0	0	8222	534573	0	0
2024-09-25 10:55:47			0	38645	0	0	0	23454	22020	157476	27367	1059143	46440	108645	0	0	8223	534303	0	0
2024-09-25 10:56:47			0	38640	0	0	0	23457	22020	157504	27261	1059090	46451	108646	0	0	8222	534496	0	0
2024-09-25 10:57:47			0	38654	0	0	0	23462	22020	157556	27521	1059036	46440	108648	0	0	8223	533957	0	0
2024-09-25 10:58:47			0	38662	0	0	0	23462	22030	157540	27303	1059045	46451	108648	0	0	8223	533619	0	0
2024-09-25 10:59:47			0	38673	0	0	0	23451	22030	157412	27436	1059134	46462	108644	0	0	8224	533196	0	0
2024-09-25 11:00:47			0	38670	0	0	0	23462	22040	157576	27388	1059143	46463	108648	0	0	8224	533282	0	0
2024-09-25 11:01:47			0	38666	0	0	0	23454	22030	157396	27336	1059134	46462	108645	0	0	8224	533465	0	0
2024-09-25 11:02:47			0	38664	0	0	0	23449	22030	157364	27554	1059054	46452	108643	0	0	8224	533542	0	0
2024-09-25 11:03:47			0	38664	0	0	0	23462	22040	157408	27583	1059116	46463	108648	0	0	8224	533512	0	0
2024-09-25 11:04:47			0	38663	0	0	0	23462	22030	157488	27431	1059081	46462	108648	0	0	8223	533581	0	0
2024-09-25 11:05:47			0	38674	0	0	0	23459	22020	157344	27661	1059143	46461	108647	0	0	8224	533187	0	0
2024-09-25 11:06:47			0	38697	0	0	0	23470	22040	157364	27866	1059116	46463	108651	0	0	8225	532244	0	0
2024-09-25 11:07:47			0	38699	0	0	0	23467	22040	157248	27235	1059125	46475	108650	0	0	8226	532167	0	0
2024-09-25 11:08:47			0	38697	0	0	0	23462	22040	157240	27658	1059143	46453	108648	0	0	8226	532244	0	0
2024-09-25 11:09:47			0	38697	0	0	0	23467	22030	157404	27466	1059161	46452	108650	0	0	8225	532273	0	0
2024-09-25 11:10:47			0	38689	0	0	0	23470	22040	157268	27332	1059143	46463	108651	0	0	8225	532551	0	0
2024-09-25 11:11:47			0	38697	0	0	0	23459	22040	157400	27203	1059179	46463	108647	0	0	8226	532244	0	0
2024-09-25 11:12:47			0	38696	0	0	0	23464	22050	157296	27440	1059108	46453	108649	0	0	8225	532252	0	0
2024-09-25 11:13:47			0	38709	0	0	0	23464	22050	157428	27459	1059161	46431	108649	0	0	8226	531753	0	0
2024-09-25 11:14:47			0	38695	0	0	0	23470	22050	157332	27400	1059223	46454	108651	0	0	8225	532291	0	0
2024-09-25 11:15:47			0	38702	0	0	0	23467	22050	157148	27294	1059197	46487	108650	0	0	8226	532022	0	0
2024-09-25 11:16:47			0	38716	0	0	0	23477	22050	157228	27613	1059161	46463	108654	0	0	8226	531484	0	0
2024-09-25 11:17:47			0	38726	0	0	0	23493	22050	157128	27824	1059214	46475	108660	0	0	8227	531101	0	0
2024-09-25 11:18:47			0	38736	0	0	0	23483	22050	157141	27559	1059223	46464	108656	0	0	8227	530717	0	0
2024-09-25 11:19:47			0	38732	0	0	0	23493	22050	157128	27654	1059223	46454	108660	0	0	8227	530870	0	0
2024-09-25 11:20:47			0	38761	0	0	0	23485	22050	157025	27750	1059197	46476	108657	0	0	8229	529759	0	0
2024-09-25 11:21:47			0	38771	0	0	0	23493	22060	157157	27800	1059268	46466	108660	0	0	8229	529346	0	0
2024-09-25 11:22:47			0	38782	0	0	0	23501	22060	156945	27360	1059188	46466	108663	0	0	8230	528925	0	0
2024-09-25 11:23:47			0	38784	0	0	0	23498	22060	157029	27317	1059286	46455	108662	0	0	8230	528849	0	0
2024-09-25 11:24:47			0	38809	0	0	0	23501	22070	156965	27663	1059277	46466	108663	0	0	8231	527863	0	0
2024-09-25 11:25:47			0	38804	0	0	0	23501	22060	156913	27159	1059268	46478	108663	0	0	8231	528084	0	0
2024-09-25 11:26:47			0	38803	0	0	0	23509	22070	156949	27493	1059304	46478	108666	0	0	8231	528092	0	0
2024-09-25 11:27:47			0	38795	0	0	0	23503	22070	156889	27744	1059286	46478	108664	0	0	8231	528398	0	0
2024-09-25 11:28:47			0	38801	0	0	0	23509	22070	156909	27526	1059366	46466	108666	0	0	8231	528169	0	0
2024-09-25 11:29:47			0	38793	0	0	0	23506	22070	156885	27549	1059331	46478	108665	0	0	8230	528475	0	0
2024-09-25 11:30:47			0	38785	0	0	0	23509	22080	156985	27809	1059349	46467	108666	0	0	8230	528751	0	0
2024-09-25 11:31:47			0	38792	0	0	0	23503	22070	157021	27715	1059393	46456	108664	0	0	8230	528513	0	0
2024-09-25 11:32:47			0	38795	0	0	0	23516	22070	157001	27559	1059340	46466	108669	0	0	8230	528398	0	0
2024-09-25 11:33:47			0	38800	0	0	0	23532	22070	156889	27706	1059357	46478	108675	0	0	8230	528207	0	0
2024-09-25 11:34:47			0	38812	0	0	0	23522	22080	156805	27653	1059464	46480	108671	0	0	8231	527719	0	0
2024-09-25 11:35:47			0	38797	0	0	0	23529	22080	156897	27502	1059358	46468	108674	0	0	8230	528292	0	0
2024-09-25 11:36:47			0	38804	0	0	0	23519	22090	156853	27372	1059447	46468	108670	0	0	8231	527995	0	0
2024-09-25 11:37:47			0	38782	0	0	0	23503	22080	156853	27512	1059482	46457	108664	0	0	8230	528866	0	0
2024-09-25 11:38:47			0	38791	0	0	0	23511	22080	156913	27365	1059331	46447	108667	0	0	8230	528522	0	0
2024-09-25 11:39:47			0	38803	0	0	0	23524	22090	156889	27542	1059429	46458	108672	0	0	8231	528033	0	0
2024-09-25 11:40:47			0	38816	0	0	0	23532	22090	156941	27374	1059482	46458	108675	0	0	8231	527536	0	0
2024-09-25 11:41:47			0	38829	0	0	0	23524	22090	156777	27341	1059482	46480	108672	0	0	8232	527040	0	0
2024-09-25 11:42:47			0	38828	0	0	0	23529	22090	156801	27138	1059482	46480	108674	0	0	8232	527078	0	0
2024-09-25 11:43:47			0	38829	0	0	0	23548	22100	156853	27320	1059465	46458	108681	0	0	8232	527011	0	0
2024-09-25 11:44:47			0	38841	0	0	0	23540	22110	156809	27504	1059545	46470	108678	0	0	8233	526523	0	0
2024-09-25 11:45:47			0	38847	0	0	0	23545	22090	156721	27473	1059536	46491	108680	0	0	8233	526353	0	0
2024-09-25 11:46:47			0	38852	0	0	0	23550	22110	156733	27374	1059545	46470	108682	0	0	8233	526103	0	0
2024-09-25 11:47:47			0	38881	0	0	0	23579	22120	156657	27642	1059634	46494	108693	0	0	8235	524969	0	0
2024-09-25 11:48:47			0	38890	0	0	0	23576	22120	156621	27523	1059634	46483	108692	0	0	8235	524626	0	0
2024-09-25 11:49:47			0	38903	0	0	0	23568	22120	156537	27440	1059607	46494	108689	0	0	8236	524131	0	0
2024-09-25 11:50:47			0	38882	0	0	0	23540	22130	156569	27481	1059625	46474	108678	0	0	8235	524901	0	0
2024-09-25 11:51:47			0	38887	0	0	0	23563	22130	156549	27625	1059661	46474	108687	0	0	8235	524711	0	0
2024-09-25 11:52:47			0	38912	0	0	0	23550	22130	156553	27422	1059625	46462	108682	0	0	8237	523759	0	0
2024-09-25 11:53:47			0	38877	0	0	0	23548	22130	156521	27557	1059625	46462	108681	0	0	8235	525092	0	0
2024-09-25 11:54:47			0	38872	0	0	0	23571	22120	156509	27504	1059616	46472	108690	0	0	8234	525312	0	0
2024-09-25 11:55:47			0	38893	0	0	0	23561	22140	156469	27751	1059705	46475	108686	0	0	8236	524453	0	0
2024-09-25 11:56:47			0	38884	0	0	0	23558	22140	156533	27699	1059643	46462	108685	0	0	8235	524796	0	0
2024-09-25 11:57:47			0	38856	0	0	0	23519	22130	156601	27524	1059661	46462	108670	0	0	8234	525892	0	0
2024-09-25 11:58:47			0	38855	0	0	0	23537	22140	156621	27679	1059590	46452	108677	0	0	8234	525901	0	0
2024-09-25 11:59:47			0	38858	0	0	0	23535	22140	156641	27601	1059590	46462	108676	0	0	8234	525786	0	0
2024-09-25 12:00:47			0	38823	0	0	0	23550	22120	156721	27156	1059563	46451	108682	0	0	8232	527181	0	0
2024-09-25 12:01:47			0	38866	0	0	0	23540	22130	156709	27599	1059625	46462	108678	0	0	8234	525511	0	0
2024-09-25 12:02:47			0	38883	0	0	0	23568	22140	156641	27536	1059670	46496	108689	0	0	8235	524834	0	0
2024-09-25 12:03:47			0	38887	0	0	0	23586	22140	156509	27722	1059670	46474	108696	0	0	8235	524681	0	0
2024-09-25 12:04:47			0	38935	0	0	0	23597	22140	156313	27229	1059732	46486	108700	0	0	8237	522855	0	0
2024-09-25 12:05:47			0	38937	0	0	0	23558	22150	156253	27486	1059741	46464	108685	0	0	8238	522750	0	0
2024-09-25 12:06:47			0	38923	0	0	0	23555	22140	156337	27296	1059705	46486	108684	0	0	8237	523312	0	0
2024-09-25 12:07:47			0	38926	0	0	0	23550	22160	156441	27499	1059679	46487	108682	0	0	8238	523139	0	0
2024-09-25 12:08:47			0	38918	0	0	0	23548	22160	156389	27635	1059679	46454	108681	0	0	8237	523443	0	0
2024-09-25 12:09:47			0	38928	0	0	0	23568	22150	156421	27391	1059688	46475	108689	0	0	8238	523092	0	0
2024-09-25 12:10:47			0	38917	0	0	0	23584	22160	156429	27606	1059706	46475	108695	0	0	8237	523481	0	0
2024-09-25 12:11:47			0	38942	0	0	0	23597	22150	156325	27447	1059777	46464	108700	0	0	8238	522560	0	0
2024-09-25 12:12:47			0	38979	0	0	0	23610	22150	156217	27459	1059794	46487	108705	0	0	8240	521156	0	0
2024-09-25 12:13:47			0	38962	0	0	0	23607	22160	156185	27644	1059839	46498	108704	0	0	8239	521772	0	0
2024-09-25 12:14:47			0	39001	0	0	0	23602	22160	156109	27708	1059759	46475	108702	0	0	8241	520293	0	0
2024-09-25 12:15:47			0	38979	0	0	0	23555	22160	156177	27521	1059795	46455	108684	0	0	8241	521127	0	0
2024-09-25 12:16:47			0	38959	0	0	0	23594	22170	156165	27436	1059777	46478	108699	0	0	8239	521857	0	0
2024-09-25 12:17:47			0	38973	0	0	0	23605	22160	156121	27550	1059795	46465	108703	0	0	8240	521354	0	0
2024-09-25 12:18:47			0	39017	0	0	0	23592	22170	156077	27665	1059777	46489	108698	0	0	8242	519658	0	0
2024-09-25 12:19:47			0	39000	0	0	0	23579	22160	156197	27469	1059875	46455	108693	0	0	8242	520331	0	0
2024-09-25 12:20:47			0	38976	0	0	0	23605	22170	156209	27542	1059804	46500	108703	0	0	8240	521211	0	0
2024-09-25 12:21:47			0	38996	0	0	0	23589	22170	156113	27455	1059750	46478	108697	0	0	8241	520453	0	0
2024-09-25 12:22:47			0	38996	0	0	0	23599	22180	156113	27372	1059928	46456	108701	0	0	8241	520424	0	0
2024-09-25 12:23:47			0	38994	0	0	0	23594	22160	156121	27798	1059812	46475	108699	0	0	8241	520558	0	0
2024-09-25 12:24:47			0	38991	0	0	0	23571	22180	156069	27563	1059875	46456	108690	0	0	8241	520614	0	0
2024-09-25 12:25:47			0	38957	0	0	0	23574	22170	156253	27582	1059812	46478	108691	0	0	8239	521932	0	0
2024-09-25 12:26:47			0	38961	0	0	0	23548	22170	156129	27581	1059732	46478	108681	0	0	8240	521781	0	0
2024-09-25 12:27:47			0	38917	0	0	0	23553	22180	156297	27628	1059768	46466	108683	0	0	8237	523423	0	0
2024-09-25 12:28:47			0	38908	0	0	0	23571	22160	156485	27312	1059715	46465	108690	0	0	8236	523824	0	0
2024-09-25 12:29:47			0	38921	0	0	0	23599	22160	156397	27644	1059768	46455	108701	0	0	8237	523329	0	0
2024-09-25 12:30:47			0	38952	0	0	0	23599	22170	156185	27376	1059830	46478	108701	0	0	8239	522122	0	0
2024-09-25 12:31:47			0	38941	0	0	0	23571	22180	156277	27888	1059821	46489	108690	0	0	8238	522511	0	0
2024-09-25 12:32:47			0	38938	0	0	0	23553	22170	156409	27580	1059786	46466	108683	0	0	8238	522654	0	0
2024-09-25 12:33:47			0	38916	0	0	0	23584	22160	156229	27355	1059768	46455	108695	0	0	8237	523519	0	0
2024-09-25 12:34:47			0	38966	0	0	0	23597	22170	156221	27443	1059884	46478	108700	0	0	8239	521591	0	0
2024-09-25 12:35:47			0	38937	0	0	0	23566	22170	156169	27533	1059804	46478	108688	0	0	8238	522692	0	0
2024-09-25 12:36:47			0	38933	0	0	0	23589	22160	156325	27670	1059795	46465	108697	0	0	8238	522873	0	0
2024-09-25 12:37:47			0	38925	0	0	0	23542	22170	156209	27760	1059830	46466	108679	0	0	8238	523148	0	0
2024-09-25 12:38:47			0	38904	0	0	0	23597	22180	156385	27537	1059875	46456	108700	0	0	8236	523917	0	0
2024-09-25 12:39:47			0	38935	0	0	0	23589	22170	156373	27677	1059839	46478	108697	0	0	8238	522768	0	0
2024-09-25 12:40:47			0	38923	0	0	0	23581	22180	156433	27921	1059910	46467	108694	0	0	8237	523195	0	0
2024-09-25 12:41:47			0	38917	0	0	0	23542	22160	156393	27454	1059795	46455	108679	0	0	8237	523481	0	0
2024-09-25 12:42:47			0	38893	0	0	0	23535	22170	156393	27706	1059777	46456	108676	0	0	8236	524365	0	0
2024-09-25 12:43:47			0	38902	0	0	0	23576	22160	156425	27663	1059759	46475	108692	0	0	8236	524052	0	0
2024-09-25 12:44:47			0	38934	0	0	0	23597	22160	156257	27864	1059732	46487	108700	0	0	8237	522835	0	0
2024-09-25 12:45:47			0	38935	0	0	0	23597	22170	156245	27355	1059812	46478	108700	0	0	8238	522768	0	0
2024-09-25 12:46:47			0	38961	0	0	0	23579	22170	156173	27836	1059857	46478	108693	0	0	8239	521781	0	0
2024-09-25 12:47:47			0	38901	0	0	0	23506	22170	156445	27665	1059812	46478	108665	0	0	8237	524061	0	0
2024-09-25 12:48:47			0	38860	0	0	0	23529	22170	156573	27701	1059723	46456	108674	0	0	8234	525622	0	0
2024-09-25 12:49:47			0	38877	0	0	0	23579	22160	156577	27357	1059768	46455	108693	0	0	8234	525004	0	0
2024-09-25 12:50:47			0	38894	0	0	0	23589	22150	156537	27512	1059803	46443	108697	0	0	8235	524386	0	0
2024-09-25 12:51:47			0	38922	0	0	0	23589	22170	156449	27715	1059804	46478	108697	0	0	8237	523262	0	0
2024-09-25 12:52:47			0	38917	0	0	0	23594	22160	156345	27499	1059795	46455	108699	0	0	8237	523481	0	0
2024-09-25 12:53:47			0	38933	0	0	0	23571	22160	156305	27512	1059786	46475	108690	0	0	8238	522873	0	0
2024-09-25 12:54:47			0	38936	0	0	0	23649	22170	156477	27524	1059884	46466	108720	0	0	8237	522730	0	0
2024-09-25 12:55:47			0	38956	0	0	0	23618	22180	156201	27665	1059830	46457	108708	0	0	8238	521941	0	0
2024-09-25 12:56:47			0	38983	0	0	0	23625	22170	156169	27663	1059866	46489	108711	0	0	8240	520946	0	0
2024-09-25 12:57:47			0	39017	0	0	0	23612	22180	155985	27826	1059981	46489	108706	0	0	8242	519629	0	0
2024-09-25 12:58:47			0	38983	0	0	0	23545	22190	156109	27951	1059946	46468	108680	0	0	8241	520888	0	0
2024-09-25 12:59:47			0	38910	0	0	0	23514	22180	156201	27769	1059857	46479	108668	0	0	8238	523689	0	0
2024-09-25 13:00:47			0	38915	0	0	0	23574	22190	156301	27557	1059813	46491	108691	0	0	8237	523470	0	0
2024-09-25 13:01:47			0	38910	0	0	0	23586	22170	156325	27677	1059830	46478	108696	0	0	8236	523718	0	0
2024-09-25 13:02:47			0	38936	0	0	0	23636	22190	156301	27498	1059839	46468	108715	0	0	8237	522672	0	0
2024-09-25 13:03:47			0	38962	0	0	0	23581	22180	156109	27649	1059964	46479	108694	0	0	8239	521714	0	0
2024-09-25 13:04:47			0	38940	0	0	0	23607	22180	156237	27673	1059910	46479	108704	0	0	8238	522549	0	0
2024-09-25 13:05:47			0	38956	0	0	0	23592	22190	156153	27540	1059919	46468	108698	0	0	8239	521912	0	0
2024-09-25 13:06:47			0	38950	0	0	0	23599	22200	156149	27678	1059991	46481	108701	0	0	8239	522111	0	0
2024-09-25 13:07:47			0	38968	0	0	0	23597	22200	156157	27760	1059937	46481	108700	0	0	8240	521428	0	0
2024-09-25 13:08:47			0	38996	0	0	0	23599	22200	156129	27595	1059991	46481	108701	0	0	8241	520366	0	0
2024-09-25 13:09:47			0	39005	0	0	0	23605	22200	156013	27658	1060000	46469	108703	0	0	8242	520025	0	0
2024-09-25 13:10:47			0	38988	0	0	0	23612	22210	156161	27597	1059982	46503	108706	0	0	8241	520640	0	0
2024-09-25 13:11:47			0	38972	0	0	0	23631	22210	156169	27798	1060018	46471	108713	0	0	8239	521247	0	0
2024-09-25 13:12:47			0	39013	0	0	0	23631	22210	156001	27675	1060089	46482	108713	0	0	8242	519693	0	0
2024-09-25 13:13:47			0	39037	0	0	0	23599	22220	155873	27708	1060107	46483	108701	0	0	8244	518756	0	0
2024-09-25 13:14:47			0	38974	0	0	0	23542	22220	155957	27698	1059973	46483	108679	0	0	8241	521142	0	0
2024-09-25 13:15:47			0	38935	0	0	0	23568	22210	156237	27918	1059929	46459	108689	0	0	8238	522651	0	0
2024-09-25 13:16:47			0	38953	0	0	0	23612	22200	156201	27500	1059947	46458	108706	0	0	8238	521997	0	0
2024-09-25 13:17:47			0	38987	0	0	0	23651	22200	156045	27623	1059937	46481	108721	0	0	8240	520707	0	0
2024-09-25 13:18:47			0	39028	0	0	0	23633	22210	155865	27608	1060062	46470	108714	0	0	8243	519126	0	0
2024-09-25 13:19:47			0	39031	0	0	0	23649	22220	155901	27883	1060116	46483	108720	0	0	8242	518983	0	0
2024-09-25 13:20:47			0	39055	0	0	0	23672	22220	155817	27900	1060169	46494	108729	0	0	8243	518076	0	0
2024-09-25 13:21:47			0	39090	0	0	0	23677	22230	155737	27499	1060178	46505	108731	0	0	8245	516725	0	0
2024-09-25 13:22:47			0	39116	0	0	0	23638	22230	155589	27746	1060214	46496	108716	0	0	8248	515745	0	0
2024-09-25 13:23:47			0	39061	0	0	0	23602	22230	155713	27580	1060187	46473	108702	0	0	8245	517820	0	0
2024-09-25 13:24:47			0	39041	0	0	0	23605	22250	155881	27769	1060161	46474	108703	0	0	8244	518518	0	0
2024-09-25 13:25:47			0	39015	0	0	0	23628	22230	155933	27708	1060134	46462	108712	0	0	8242	519560	0	0
2024-09-25 13:26:47			0	39061	0	0	0	23625	22230	155777	27698	1060187	46496	108711	0	0	8245	517820	0	0
2024-09-25 13:27:47			0	38996	0	0	0	23542	22240	155981	27819	1060178	46496	108679	0	0	8242	520250	0	0
2024-09-25 13:28:47			0	38962	0	0	0	23579	22230	156169	27493	1060045	46461	108693	0	0	8240	521568	0	0
2024-09-25 13:29:47			0	38950	0	0	0	23607	22220	156225	27956	1060036	46460	108704	0	0	8238	522053	0	0
2024-09-25 13:30:47			0	38991	0	0	0	23633	22220	156073	27680	1060062	46460	108714	0	0	8240	520498	0	0
2024-09-25 13:31:47			0	38978	0	0	0	23633	22220	156137	27734	1060062	46471	108714	0	0	8240	520990	0	0
2024-09-25 13:32:47			0	38982	0	0	0	23628	22230	156089	27793	1060178	46472	108712	0	0	8240	520810	0	0
2024-09-25 13:33:47			0	38975	0	0	0	23615	22220	156017	27673	1060089	46471	108707	0	0	8240	521104	0	0
2024-09-25 13:34:47			0	39000	0	0	0	23625	22230	156073	27448	1060134	46496	108711	0	0	8241	520128	0	0
2024-09-25 13:35:47			0	38988	0	0	0	23620	22220	155989	27528	1060143	46471	108709	0	0	8240	520611	0	0
2024-09-25 13:36:47			0	38996	0	0	0	23651	22240	156133	27507	1060098	46473	108721	0	0	8240	520250	0	0
2024-09-25 13:37:47			0	38994	0	0	0	23680	22230	156057	27507	1060160	46473	108732	0	0	8240	520355	0	0
2024-09-25 13:38:47			0	39036	0	0	0	23688	22230	155845	27466	1060160	46485	108735	0	0	8242	518765	0	0
2024-09-25 13:39:47			0	39016	0	0	0	23599	22240	155881	27452	1060178	46485	108701	0	0	8243	519493	0	0
2024-09-25 13:40:47			0	38995	0	0	0	23602	22240	156045	27514	1060178	46473	108702	0	0	8241	520288	0	0
2024-09-25 13:41:47			0	38975	0	0	0	23594	22240	156073	27649	1060089	46473	108699	0	0	8240	521046	0	0
2024-09-25 13:42:47			0	38959	0	0	0	23566	22230	156205	27409	1060027	46462	108688	0	0	8240	521682	0	0
2024-09-25 13:43:47			0	38930	0	0	0	23558	22230	156285	27369	1060027	46462	108685	0	0	8238	522783	0	0
2024-09-25 13:44:47			0	38922	0	0	0	23576	22210	156337	27789	1060018	46450	108692	0	0	8237	523145	0	0
2024-09-25 13:45:47			0	38898	0	0	0	23542	22220	156361	27625	1060000	46460	108679	0	0	8237	524029	0	0
2024-09-25 13:46:47			0	38897	0	0	0	23581	22210	156485	27715	1059991	46450	108694	0	0	8236	524096	0	0
2024-09-25 13:47:47			0	38891	0	0	0	23631	22200	156481	27810	1059947	46458	108713	0	0	8235	524354	0	0
2024-09-25 13:48:47			0	38957	0	0	0	23683	22210	156269	27623	1060036	46459	108733	0	0	8238	521816	0	0
2024-09-25 13:49:47			0	38986	0	0	0	23574	22220	156097	27639	1060116	46483	108691	0	0	8241	520687	0	0
2024-09-25 13:50:47			0	38928	0	0	0	23548	22210	156205	27699	1060036	46449	108681	0	0	8238	522917	0	0
2024-09-25 13:51:47			0	38901	0	0	0	23612	22210	156409	27464	1059982	46470	108706	0	0	8236	523944	0	0
2024-09-25 13:52:47			0	38941	0	0	0	23636	22210	156345	27698	1060045	46483	108715	0	0	8237	522423	0	0
2024-09-25 13:53:47			0	38958	0	0	0	23636	22210	156117	27727	1060098	46494	108715	0	0	8238	521778	0	0
2024-09-25 13:54:47			0	38974	0	0	0	23607	22220	156121	27789	1060080	46494	108704	0	0	8240	521142	0	0
2024-09-25 13:55:47			0	38965	0	0	0	23625	22220	156169	27708	1060107	46483	108711	0	0	8239	521483	0	0
2024-09-25 13:56:47			0	38986	0	0	0	23612	22220	156141	27488	1060080	46471	108706	0	0	8240	520687	0	0
2024-09-25 13:57:47			0	38948	0	0	0	23581	22230	156105	27319	1060134	46496	108694	0	0	8239	522099	0	0
2024-09-25 13:58:47			0	38945	0	0	0	23599	22220	156181	27743	1060062	46471	108701	0	0	8238	522242	0	0
2024-09-25 13:59:47			0	38945	0	0	0	23594	22220	156177	27701	1060080	46471	108699	0	0	8238	522242	0	0
2024-09-25 14:00:47			0	38942	0	0	0	23568	22220	156297	27564	1060089	46460	108689	0	0	8239	522356	0	0
2024-09-25 14:01:47			0	38927	0	0	0	23607	22220	156357	27731	1060062	46460	108704	0	0	8237	522926	0	0
2024-09-25 14:02:47			0	38933	0	0	0	23594	22220	156237	27535	1060062	46471	108699	0	0	8238	522698	0	0
2024-09-25 14:03:47			0	38925	0	0	0	23615	22210	156289	27410	1060098	46483	108707	0	0	8237	523031	0	0
2024-09-25 14:04:47			0	38930	0	0	0	23638	22230	156321	27620	1060098	46484	108716	0	0	8237	522783	0	0
2024-09-25 14:05:47			0	38910	0	0	0	23618	22220	156185	27876	1060080	46471	108708	0	0	8236	523572	0	0
2024-09-25 14:06:47			0	38886	0	0	0	23615	22220	156393	27578	1060089	46483	108707	0	0	8235	524485	0	0
2024-09-25 14:07:47			0	38900	0	0	0	23607	22230	156385	27732	1060054	46462	108704	0	0	8236	523923	0	0
2024-09-25 14:08:47			0	38912	0	0	0	23672	22220	156457	27448	1060169	46471	108729	0	0	8235	523496	0	0
2024-09-25 14:09:47			0	38943	0	0	0	23667	22230	156249	27694	1060125	46505	108727	0	0	8237	522289	0	0
2024-09-25 14:10:47			0	38943	0	0	0	23623	22230	156117	27455	1060240	46506	108710	0	0	8238	522289	0	0
2024-09-25 14:11:47			0	38958	0	0	0	23610	22250	156065	27422	1060267	46497	108705	0	0	8239	521662	0	0
2024-09-25 14:12:47			0	38946	0	0	0	23589	22240	156185	27737	1060152	46473	108697	0	0	8239	522146	0	0
2024-09-25 14:13:47			0	38900	0	0	0	23574	22240	156269	27549	1060152	46462	108691	0	0	8236	523894	0	0
2024-09-25 14:14:47			0	38890	0	0	0	23581	22240	156385	27547	1060036	46441	108694	0	0	8236	524275	0	0
2024-09-25 14:15:47			0	38866	0	0	0	23594	22220	156493	27517	1060062	46439	108699	0	0	8234	525247	0	0
2024-09-25 14:16:47			0	38873	0	0	0	23597	22230	156445	27642	1060045	46451	108700	0	0	8234	524951	0	0
2024-09-25 14:17:47			0	38860	0	0	0	23576	22210	156549	27405	1060018	46460	108692	0	0	8234	525505	0	0
2024-09-25 14:18:47			0	38872	0	0	0	23618	22220	156725	27317	1060062	46460	108708	0	0	8234	525018	0	0
2024-09-25 14:19:47			0	38870	0	0	0	23615	22220	156577	27460	1060107	46471	108707	0	0	8234	525095	0	0
2024-09-25 14:20:47			0	38870	0	0	0	23579	22220	156545	27620	1060027	46460	108693	0	0	8234	525095	0	0
2024-09-25 14:21:47			0	38854	0	0	0	23586	22210	156513	27694	1060045	46460	108696	0	0	8233	525734	0	0
2024-09-25 14:22:47			0	38874	0	0	0	23579	22210	156497	27514	1060045	46460	108693	0	0	8235	524972	0	0
2024-09-25 14:23:47			0	38855	0	0	0	23602	22220	156517	27791	1059973	46450	108702	0	0	8233	525666	0	0
2024-09-25 14:24:47			0	38886	0	0	0	23620	22220	156525	27649	1060080	46483	108709	0	0	8235	524485	0	0
2024-09-25 14:25:47			0	38909	0	0	0	23628	22210	156533	27732	1060071	46483	108712	0	0	8236	523639	0	0
2024-09-25 14:26:47			0	38903	0	0	0	23638	22210	156413	27791	1060089	46493	108716	0	0	8235	523868	0	0
2024-09-25 14:27:47			0	38920	0	0	0	23644	22230	156313	27796	1060125	46495	108718	0	0	8236	523163	0	0
2024-09-25 14:28:47			0	38930	0	0	0	23625	22230	156385	27628	1060125	46484	108711	0	0	8237	522783	0	0
2024-09-25 14:29:47			0	38923	0	0	0	23602	22220	156281	27791	1060116	46471	108702	0	0	8237	523078	0	0
2024-09-25 14:30:47			0	38923	0	0	0	23638	22240	156241	27393	1060143	46473	108716	0	0	8236	523020	0	0
2024-09-25 14:31:47			0	38936	0	0	0	23649	22230	156317	27326	1060151	46484	108720	0	0	8237	522555	0	0
2024-09-25 14:32:47			0	38928	0	0	0	23638	22240	156289	27855	1060143	46485	108716	0	0	8237	522830	0	0
2024-09-25 14:33:47			0	38933	0	0	0	23641	22230	156185	27803	1060214	46473	108717	0	0	8237	522669	0	0
2024-09-25 14:34:47			0	38944	0	0	0	23677	22240	156221	27781	1060232	46496	108731	0	0	8237	522222	0	0
2024-09-25 14:35:47			0	38948	0	0	0	23685	22250	156261	27601	1060267	46497	108734	0	0	8237	522041	0	0
2024-09-25 14:36:47			0	39001	0	0	0	23644	22250	156077	27225	1060321	46486	108718	0	0	8241	520032	0	0
2024-09-25 14:37:47			0	38995	0	0	0	23646	22260	156073	27493	1060365	46475	108719	0	0	8241	520230	0	0
2024-09-25 14:38:47			0	39001	0	0	0	23649	22250	156053	27623	1060276	46487	108720	0	0	8241	520032	0	0
2024-09-25 14:39:47			0	38994	0	0	0	23644	22260	156029	27588	1060259	46464	108718	0	0	8241	520268	0	0
2024-09-25 14:40:47			0	38993	0	0	0	23677	22250	155953	27625	1060276	46464	108731	0	0	8240	520335	0	0
2024-09-25 14:41:47			0	39011	0	0	0	23659	22250	155981	27737	1060276	46475	108724	0	0	8241	519653	0	0
2024-09-25 14:42:47			0	39021	0	0	0	23657	22260	155949	27471	1060365	46475	108723	0	0	8242	519246	0	0
2024-09-25 14:43:47			0	39033	0	0	0	23662	22260	155937	27736	1060294	46488	108725	0	0	8243	518792	0	0
2024-09-25 14:44:47			0	39045	0	0	0	23670	22260	155917	27651	1060294	46488	108728	0	0	8243	518338	0	0
2024-09-25 14:45:47			0	39046	0	0	0	23685	22270	155821	27552	1060357	46465	108734	0	0	8243	518271	0	0
2024-09-25 14:46:47			0	39055	0	0	0	23727	22270	155801	27677	1060357	46488	108750	0	0	8243	517931	0	0
2024-09-25 14:47:47			0	39090	0	0	0	23716	22270	155713	27639	1060446	46489	108746	0	0	8245	516610	0	0
2024-09-25 14:48:47			0	39089	0	0	0	23703	22280	155633	27703	1060508	46477	108741	0	0	8245	516619	0	0
2024-09-25 14:49:47			0	39087	0	0	0	23672	22290	155561	27471	1060419	46500	108729	0	0	8246	516665	0	0
2024-09-25 14:50:47			0	39077	0	0	0	23711	22290	155689	27831	1060472	46490	108744	0	0	8244	517043	0	0
2024-09-25 14:51:47			0	39085	0	0	0	23732	22290	155601	27954	1060472	46500	108752	0	0	8244	516741	0	0
2024-09-25 14:52:47			0	39111	0	0	0	23753	22300	155641	27890	1060535	46479	108760	0	0	8246	515732	0	0
2024-09-25 14:53:47			0	39110	0	0	0	23737	22310	155581	27537	1060579	46492	108754	0	0	8246	515741	0	0
2024-09-25 14:54:47			0	39124	0	0	0	23742	22310	155525	27685	1060642	46502	108756	0	0	8247	515213	0	0
2024-09-25 14:55:47			0	39120	0	0	0	23724	22320	155553	27599	1060624	46493	108749	0	0	8247	515335	0	0
2024-09-25 14:56:47			0	39107	0	0	0	23722	22330	155597	27677	1060669	46494	108748	0	0	8246	515796	0	0
2024-09-25 14:57:47			0	39111	0	0	0	23745	22330	155589	27571	1060642	46483	108757	0	0	8246	515645	0	0
2024-09-25 14:58:47			0	39132	0	0	0	23763	22320	155461	27675	1060633	46471	108764	0	0	8247	514883	0	0
2024-09-25 14:59:47			0	39132	0	0	0	23768	22340	155345	27395	1060740	46505	108766	0	0	8247	514826	0	0
2024-09-25 15:00:47			0	39144	0	0	0	23794	22340	155349	27351	1060829	46506	108776	0	0	8247	514374	0	0
2024-09-25 15:01:47			0	39188	0	0	0	23740	22360	155221	27909	1060803	46497	108755	0	0	8251	512663	0	0
2024-09-25 15:02:47			0	39163	0	0	0	23776	22360	155317	27720	1060776	46507	108769	0	0	8249	513602	0	0
2024-09-25 15:03:47			0	39189	0	0	0	23815	22350	155261	27301	1060767	46497	108784	0	0	8249	512654	0	0
2024-09-25 15:04:47			0	39244	0	0	0	23825	22360	155057	27916	1060839	46519	108788	0	0	8252	510563	0	0
2024-09-25 15:05:47			0	39237	0	0	0	23810	22370	155021	27294	1060910	46509	108782	0	0	8252	510797	0	0
2024-09-25 15:06:47			0	39250	0	0	0	23797	22380	155073	27528	1060972	46509	108777	0	0	8253	510281	0	0
2024-09-25 15:07:47			0	39227	0	0	0	23802	22380	155061	27956	1060928	46489	108779	0	0	8252	511143	0	0
2024-09-25 15:08:47			0	39213	0	0	0	23807	22380	155085	27493	1060865	46488	108781	0	0	8251	511668	0	0
2024-09-25 15:09:47			0	39233	0	0	0	23836	22380	155049	27814	1060972	46499	108792	0	0	8252	510918	0	0
2024-09-25 15:10:47			0	39242	0	0	0	23828	22390	154981	27786	1060990	46478	108789	0	0	8252	510552	0	0
2024-09-25 15:11:47			0	39234	0	0	0	23805	22390	155037	27800	1060972	46511	108780	0	0	8252	510852	0	0
2024-09-25 15:12:47			0	39214	0	0	0	23807	22410	155029	27767	1060999	46480	108781	0	0	8251	511545	0	0
2024-09-25 15:13:47			0	39232	0	0	0	23812	22400	155073	27668	1061044	46501	108783	0	0	8252	510899	0	0
2024-09-25 15:14:47			0	39236	0	0	0	23833	22400	155025	27634	1061044	46512	108791	0	0	8252	510749	0	0
2024-09-25 15:15:47			0	39254	0	0	0	23859	22400	154893	27772	1061017	46491	108801	0	0	8253	510075	0	0
2024-09-25 15:16:47			0	39298	0	0	0	23872	22410	154841	27784	1061115	46502	108806	0	0	8255	508401	0	0
2024-09-25 15:17:47			0	39300	0	0	0	23862	22410	154645	27689	1061142	46502	108802	0	0	8255	508326	0	0
2024-09-25 15:18:47			0	39306	0	0	0	23844	22420	154689	27452	1061124	46493	108795	0	0	8256	508074	0	0
2024-09-25 15:19:47			0	39305	0	0	0	23838	22440	154753	27509	1061187	46505	108793	0	0	8256	508054	0	0
2024-09-25 15:20:47			0	39300	0	0	0	23831	22440	154713	27315	1061080	46516	108790	0	0	8256	508241	0	0
2024-09-25 15:21:47			0	39289	0	0	0	23841	22430	154841	27391	1061151	46482	108794	0	0	8255	508680	0	0
2024-09-25 15:22:47			0	39271	0	0	0	23831	22420	154781	27403	1061160	46481	108790	0	0	8254	509382	0	0
2024-09-25 15:23:47			0	39286	0	0	0	23828	22430	154761	27499	1061098	46494	108789	0	0	8255	508792	0	0
2024-09-25 15:24:47			0	39276	0	0	0	23823	22420	154809	27786	1061106	46470	108787	0	0	8255	509195	0	0
2024-09-25 15:25:47			0	39259	0	0	0	23833	22440	154873	27781	1061133	46495	108791	0	0	8253	509774	0	0
2024-09-25 15:26:47			0	39262	0	0	0	23833	22430	154861	27248	1061089	46494	108791	0	0	8254	509690	0	0
2024-09-25 15:27:47			0	39268	0	0	0	23820	22440	154809	27744	1061106	46495	108786	0	0	8254	509437	0	0
2024-09-25 15:28:47			0	39258	0	0	0	23854	22420	154889	27751	1061080	46481	108799	0	0	8253	509868	0	0
2024-09-25 15:29:47			0	39267	0	0	0	23841	22410	154801	27741	1061088	46492	108794	0	0	8254	509560	0	0
2024-09-25 15:30:47			0	39264	0	0	0	23841	22430	154785	27428	1061178	46504	108794	0	0	8254	509615	0	0
2024-09-25 15:31:47			0	39281	0	0	0	23862	22440	154825	27499	1061169	46506	108802	0	0	8254	508951	0	0
2024-09-25 15:32:47			0	39293	0	0	0	23877	22440	154849	27492	1061142	46484	108808	0	0	8255	508502	0	0
2024-09-25 15:33:47			0	39324	0	0	0	23875	22440	154669	27398	1061195	46506	108807	0	0	8256	507345	0	0
2024-09-25 15:34:47			0	39301	0	0	0	23864	22460	154709	27659	1061249	46518	108803	0	0	8255	508147	0	0
2024-09-25 15:35:47			0	39324	0	0	0	23870	22450	154773	27455	1061294	46496	108805	0	0	8257	507317	0	0
2024-09-25 15:36:47			0	39319	0	0	0	23883	22460	154573	27682	1061276	46497	108810	0	0	8256	507475	0	0
2024-09-25 15:37:47			0	39331	0	0	0	23883	22460	154565	27452	1061303	46497	108810	0	0	8257	507027	0	0
2024-09-25 15:38:47			0	39355	0	0	0	23880	22460	154441	27388	1061258	46498	108809	0	0	8258	506133	0	0
2024-09-25 15:39:47			0	39321	0	0	0	23870	22470	154505	27445	1061347	46519	108805	0	0	8257	507372	0	0
2024-09-25 15:40:47			0	39327	0	0	0	23898	22470	154469	27824	1061410	46508	108816	0	0	8256	507148	0	0
2024-09-25 15:41:47			0	39357	0	0	0	23893	22470	154417	27535	1061294	46498	108814	0	0	8258	506030	0	0
2024-09-25 15:42:47			0	39361	0	0	0	23875	22480	154513	27485	1061374	46510	108807	0	0	8259	505852	0	0
2024-09-25 15:43:47			0	39372	0	0	0	23875	22480	154469	27793	1061401	46488	108807	0	0	8259	505443	0	0
2024-09-25 15:44:47			0	39363	0	0	0	23906	22480	154437	27578	1061401	46510	108819	0	0	8258	505778	0	0
2024-09-25 15:45:47			0	39387	0	0	0	23901	22490	154389	27419	1061383	46510	108817	0	0	8260	504856	0	0
2024-09-25 15:46:47			0	39406	0	0	0	23893	22490	154401	27717	1061437	46500	108814	0	0	8261	504150	0	0
2024-09-25 15:47:47			0	39405	0	0	0	23896	22490	154249	27566	1061472	46500	108815	0	0	8261	504187	0	0
2024-09-25 15:48:47			0	39403	0	0	0	23885	22490	154361	27230	1061446	46500	108811	0	0	8261	504262	0	0
2024-09-25 15:49:47			0	39375	0	0	0	23885	22490	154345	27459	1061446	46500	108811	0	0	8259	505303	0	0
2024-09-25 15:50:47			0	39349	0	0	0	23880	22490	154409	27441	1061410	46488	108809	0	0	8258	506271	0	0
2024-09-25 15:51:47			0	39362	0	0	0	23911	22490	154421	27459	1061383	46488	108821	0	0	8258	505787	0	0
2024-09-25 15:52:47			0	39376	0	0	0	23911	22490	154317	27495	1061499	46500	108821	0	0	8259	505266	0	0
2024-09-25 15:53:47			0	39388	0	0	0	23911	22490	154325	27680	1061472	46511	108821	0	0	8260	504819	0	0
2024-09-25 15:54:47			0	39416	0	0	0	23922	22500	154230	27455	1061535	46522	108825	0	0	8261	503750	0	0
2024-09-25 15:55:47			0	39393	0	0	0	23929	22510	154157	27455	1061526	46502	108828	0	0	8260	504577	0	0
2024-09-25 15:56:47			0	39430	0	0	0	23919	22510	154094	27473	1061499	46491	108824	0	0	8262	503202	0	0
2024-09-25 15:57:47			0	39416	0	0	0	23924	22500	154129	27488	1061481	46500	108826	0	0	8261	503750	0	0
2024-09-25 15:58:47			0	39394	0	0	0	23911	22510	154217	27672	1061579	46513	108821	0	0	8260	504540	0	0
2024-09-25 15:59:47			0	39402	0	0	0	23901	22510	154293	27711	1061526	46502	108817	0	0	8261	504242	0	0
2024-09-25 16:00:47			0	39373	0	0	0	23922	22510	154333	27490	1061482	46502	108825	0	0	8259	505321	0	0
2024-09-25 16:01:47			0	39398	0	0	0	23932	22510	154325	27206	1061562	46502	108829	0	0	8260	504391	0	0
2024-09-25 16:02:47			0	39433	0	0	0	23932	22510	154166	27497	1061535	46491	108829	0	0	8262	503091	0	0
2024-09-25 16:03:47			0	39409	0	0	0	23914	22520	154110	27445	1061517	46502	108822	0	0	8261	503954	0	0
2024-09-25 16:04:47			0	39406	0	0	0	23903	22520	154205	27431	1061544	46502	108818	0	0	8261	504065	0	0
2024-09-25 16:05:47			0	39391	0	0	0	23914	22510	154385	27435	1061562	46524	108822	0	0	8260	504651	0	0
2024-09-25 16:06:47			0	39385	0	0	0	23929	22520	154321	27538	1061517	46502	108828	0	0	8259	504846	0	0
2024-09-25 16:07:47			0	39369	0	0	0	23942	22510	154349	27448	1061562	46502	108833	0	0	8258	505470	0	0
2024-09-25 16:08:47			0	39408	0	0	0	23942	22510	154309	27758	1061579	46513	108833	0	0	8261	504019	0	0
2024-09-25 16:09:47			0	39386	0	0	0	23937	22530	154169	27748	1061544	46504	108831	0	0	8259	504781	0	0
2024-09-25 16:10:47			0	39400	0	0	0	23940	22520	154333	27564	1061651	46502	108832	0	0	8260	504288	0	0
2024-09-25 16:11:47			0	39381	0	0	0	23922	22530	154381	27533	1061562	46504	108825	0	0	8259	504967	0	0
2024-09-25 16:12:47			0	39374	0	0	0	23924	22520	154361	27550	1061660	46503	108826	0	0	8259	505255	0	0
2024-09-25 16:13:47			0	39381	0	0	0	23937	22530	154393	27377	1061615	46515	108831	0	0	8259	504967	0	0
2024-09-25 16:14:47			0	39411	0	0	0	23940	22540	154345	27729	1061606	46504	108832	0	0	8261	503823	0	0
2024-09-25 16:15:47			0	39417	0	0	0	23953	22530	154174	27673	1061642	46493	108837	0	0	8261	503629	0	0
2024-09-25 16:16:47			0	39455	0	0	0	23976	22540	154002	27389	1061642	46505	108846	0	0	8263	502190	0	0
2024-09-25 16:17:47			0	39468	0	0	0	23976	22540	154030	27599	1061687	46515	108846	0	0	8264	501708	0	0
2024-09-25 16:18:47			0	39490	0	0	0	23971	22530	153978	27630	1061731	46526	108844	0	0	8265	500921	0	0
2024-09-25 16:19:47			0	39485	0	0	0	23984	22550	153962	27569	1061785	46506	108849	0	0	8264	501050	0	0
2024-09-25 16:20:47			0	39486	0	0	0	23953	22540	153970	27422	1061722	46516	108837	0	0	8265	501041	0	0
2024-09-25 16:21:47			0	39435	0	0	0	23935	22540	154038	27274	1061696	46505	108830	0	0	8262	502932	0	0
2024-09-25 16:22:47			0	39422	0	0	0	23935	22550	154158	27403	1061678	46496	108830	0	0	8262	503387	0	0
2024-09-25 16:23:47			0	39415	0	0	0	23948	22540	154213	27298	1061696	46505	108835	0	0	8261	503675	0	0
2024-09-25 16:24:47			0	39429	0	0	0	23961	22550	154098	27453	1061705	46506	108840	0	0	8262	503127	0	0
2024-09-25 16:25:47			0	39444	0	0	0	23966	22540	154038	27268	1061687	46515	108842	0	0	8262	502598	0	0
2024-09-25 16:26:47			0	39463	0	0	0	23971	22550	154082	27523	1061678	46506	108844	0	0	8263	501865	0	0
2024-09-25 16:27:47			0	39491	0	0	0	23981	22550	153946	27419	1061678	46496	108848	0	0	8265	500828	0	0
2024-09-25 16:28:47			0	39483	0	0	0	23968	22550	153962	27453	1061714	46517	108843	0	0	8265	501124	0	0
2024-09-25 16:29:47			0	39489	0	0	0	23974	22550	153858	27483	1061731	46517	108845	0	0	8265	500902	0	0
2024-09-25 16:30:47			0	39495	0	0	0	23984	22550	153738	27639	1061767	46496	108849	0	0	8265	500680	0	0
2024-09-25 16:31:47			0	39525	0	0	0	23986	22550	153714	27769	1061820	46496	108850	0	0	8267	499570	0	0
2024-09-25 16:32:47			0	39524	0	0	0	23992	22560	153738	27531	1061829	46517	108852	0	0	8267	499579	0	0
2024-09-25 16:33:47			0	39535	0	0	0	23989	22560	153638	27333	1061722	46506	108851	0	0	8267	499173	0	0
2024-09-25 16:34:47			0	39547	0	0	0	23979	22570	153666	27757	1061821	46519	108847	0	0	8268	498701	0	0
2024-09-25 16:35:47			0	39523	0	0	0	23966	22570	153658	27646	1061740	46519	108842	0	0	8267	499588	0	0
2024-09-25 16:36:47			0	39502	0	0	0	23974	22560	153798	27642	1061812	46529	108845	0	0	8266	500393	0	0
2024-09-25 16:37:47			0	39499	0	0	0	23986	22570	153766	27568	1061794	46519	108850	0	0	8265	500476	0	0
2024-09-25 16:38:47			0	39510	0	0	0	23981	22550	153794	27476	1061740	46517	108848	0	0	8266	500125	0	0
2024-09-25 16:39:47			0	39484	0	0	0	23979	22560	153742	27587	1061776	46528	108847	0	0	8264	501059	0	0
2024-09-25 16:40:47			0	39513	0	0	0	23979	22560	153666	27407	1061803	46517	108847	0	0	8266	499986	0	0
2024-09-25 16:41:47			0	39528	0	0	0	23961	22570	153622	27415	1061794	46508	108840	0	0	8267	499403	0	0
2024-09-25 16:42:47			0	39492	0	0	0	23961	22560	153702	27364	1061785	46497	108840	0	0	8265	500763	0	0
2024-09-25 16:43:47			0	39492	0	0	0	23976	22560	153690	27229	1061749	46506	108846	0	0	8265	500763	0	0
2024-09-25 16:44:47			0	39515	0	0	0	23984	22560	153646	27519	1061731	46518	108849	0	0	8266	499912	0	0
2024-09-25 16:45:47			0	39512	0	0	0	23981	22570	153610	27447	1061794	46508	108848	0	0	8266	499995	0	0
2024-09-25 16:46:47			0	39524	0	0	0	23999	22560	153642	27287	1061785	46518	108855	0	0	8266	499579	0	0
2024-09-25 16:47:47			0	39538	0	0	0	23999	22560	153578	27868	1061749	46506	108855	0	0	8267	499062	0	0
2024-09-25 16:48:47			0	39561	0	0	0	23997	22570	153526	27685	1061847	46508	108854	0	0	8269	498185	0	0
2024-09-25 16:49:47			0	39549	0	0	0	23989	22560	153718	27798	1061838	46529	108851	0	0	8268	498656	0	0
2024-09-25 16:50:47			0	39568	0	0	0	23997	22580	153606	27294	1061803	46509	108854	0	0	8269	497898	0	0
2024-09-25 16:51:47			0	39563	0	0	0	23979	22580	153726	27105	1061883	46499	108847	0	0	8269	498083	0	0
2024-09-25 16:52:47			0	39569	0	0	0	23989	22580	153766	27509	1061776	46520	108851	0	0	8269	497861	0	0
2024-09-25 16:53:47			0	39532	0	0	0	23989	22570	153858	27483	1061794	46508	108851	0	0	8267	499256	0	0
2024-09-25 16:54:47			0	39532	0	0	0	23997	22560	153654	27601	1061812	46507	108854	0	0	8267	499283	0	0
2024-09-25 16:55:47			0	39558	0	0	0	23994	22570	153682	27334	1061821	46519	108853	0	0	8269	498295	0	0
2024-09-25 16:56:47			0	39548	0	0	0	23989	22570	153558	27490	1061821	46519	108851	0	0	8268	498665	0	0
2024-09-25 16:57:47			0	39558	0	0	0	23997	22580	153642	27913	1061830	46531	108854	0	0	8269	498267	0	0
2024-09-25 16:58:47			0	39563	0	0	0	23989	22570	153642	27646	1061821	46541	108851	0	0	8269	498111	0	0
2024-09-25 16:59:47			0	39548	0	0	0	23968	22580	153602	27294	1061892	46520	108843	0	0	8268	498637	0	0
2024-09-25 17:00:47			0	39538	0	0	0	23968	22580	153694	27447	1061776	46509	108843	0	0	8268	499006	0	0
2024-09-25 17:01:47			0	39532	0	0	0	23984	22580	153698	27324	1061776	46499	108849	0	0	8267	499228	0	0
2024-09-25 17:02:47			0	39537	0	0	0	23994	22570	153690	27256	1061847	46508	108853	0	0	8267	499071	0	0
2024-09-25 17:03:47			0	39546	0	0	0	23997	22560	153622	27287	1061829	46506	108854	0	0	8268	498766	0	0
2024-09-25 17:04:47			0	39562	0	0	0	23997	22560	153606	27654	1061838	46518	108854	0	0	8269	498176	0	0
2024-09-25 17:05:47			0	39553	0	0	0	23999	22560	153598	27443	1061829	46517	108855	0	0	8268	498508	0	0
2024-09-25 17:06:47			0	39578	0	0	0	23986	22580	153610	27552	1061883	46520	108850	0	0	8270	497530	0	0
2024-09-25 17:07:47			0	39553	0	0	0	23992	22570	153626	27627	1061847	46519	108852	0	0	8268	498480	0	0
2024-09-25 17:08:47			0	39557	0	0	0	23989	22580	153546	27317	1061830	46509	108851	0	0	8269	498304	0	0
2024-09-25 17:09:47			0	39582	0	0	0	23989	22580	153510	27466	1061883	46520	108851	0	0	8270	497382	0	0
2024-09-25 17:10:47			0	39590	0	0	0	23992	22570	153526	27353	1061794	46508	108852	0	0	8270	497115	0	0
2024-09-25 17:11:47			0	39621	0	0	0	23989	22580	153526	27305	1061857	46520	108851	0	0	8272	495945	0	0
2024-09-25 17:12:47			0	39569	0	0	0	23986	22570	153558	27436	1061847	46508	108850	0	0	8269	497889	0	0
2024-09-25 17:13:47			0	39582	0	0	0	23986	22580	153586	27448	1061830	46520	108850	0	0	8270	497382	0	0
2024-09-25 17:14:47			0	39586	0	0	0	23992	22560	153494	27355	1061865	46529	108852	0	0	8270	497290	0	0
2024-09-25 17:15:47			0	39602	0	0	0	23984	22580	153562	27313	1061830	46509	108849	0	0	8271	496645	0	0
2024-09-25 17:16:47			0	39605	0	0	0	23989	22570	153494	27339	1061794	46508	108851	0	0	8271	496562	0	0
2024-09-25 17:17:47			0	39604	0	0	0	23992	22570	153442	27679	1061847	46519	108852	0	0	8271	496599	0	0
2024-09-25 17:18:47			0	39617	0	0	0	23994	22570	153438	27289	1061821	46508	108853	0	0	8272	496120	0	0
2024-09-25 17:19:47			0	39615	0	0	0	23994	22580	153482	27448	1061830	46509	108853	0	0	8272	496166	0	0
2024-09-25 17:20:47			0	39623	0	0	0	23986	22580	153462	27533	1061830	46531	108850	0	0	8272	495871	0	0
2024-09-25 17:21:47			0	39609	0	0	0	23992	22570	153510	27516	1061874	46519	108852	0	0	8271	496415	0	0
2024-09-25 17:22:47			0	39602	0	0	0	23994	22580	153494	27455	1061866	46509	108853	0	0	8271	496645	0	0
2024-09-25 17:23:47			0	39599	0	0	0	23986	22580	153478	27474	1061857	46520	108850	0	0	8271	496755	0	0
2024-09-25 17:24:47			0	39588	0	0	0	23989	22580	153566	27315	1061857	46520	108851	0	0	8270	497161	0	0
2024-09-25 17:25:47			0	39579	0	0	0	23989	22580	153498	27298	1061830	46531	108851	0	0	8270	497493	0	0
2024-09-25 17:26:47			0	39574	0	0	0	23986	22560	153618	27621	1061856	46496	108850	0	0	8270	497733	0	0
2024-09-25 17:27:47			0	39578	0	0	0	23994	22560	153566	27507	1061812	46518	108853	0	0	8270	497585	0	0
2024-09-25 17:28:47			0	39567	0	0	0	23984	22580	153678	27647	1061830	46499	108849	0	0	8269	497935	0	0
2024-09-25 17:29:47			0	39558	0	0	0	23986	22560	153574	27552	1061812	46518	108850	0	0	8269	498323	0	0
2024-09-25 17:30:47			0	39562	0	0	0	23974	22580	153654	27434	1061803	46509	108845	0	0	8269	498120	0	0
2024-09-25 17:31:47			0	39552	0	0	0	23979	22550	153678	27550	1061820	46528	108847	0	0	8268	498573	0	0
2024-09-25 17:32:47			0	39566	0	0	0	23976	22560	153706	27642	1061785	46507	108846	0	0	8269	498028	0	0
2024-09-25 17:33:47			0	39552	0	0	0	23966	22560	153742	27443	1061785	46497	108842	0	0	8269	498545	0	0
2024-09-25 17:34:47			0	39534	0	0	0	23968	22560	153770	27478	1061812	46518	108843	0	0	8268	499210	0	0
2024-09-25 17:35:47			0	39534	0	0	0	23979	22560	153758	27602	1061758	46497	108847	0	0	8267	499210	0	0
2024-09-25 17:36:47			0	39525	0	0	0	23974	22560	153854	27263	1061803	46517	108845	0	0	8267	499542	0	0
2024-09-25 17:37:47			0	39534	0	0	0	23974	22570	153722	27602	1061821	46519	108845	0	0	8267	499182	0	0
2024-09-25 17:38:47			0	39531	0	0	0	23971	22560	153738	27516	1061731	46518	108844	0	0	8267	499321	0	0
2024-09-25 17:39:47			0	39514	0	0	0	23974	22560	153758	27353	1061785	46518	108845	0	0	8266	499949	0	0
2024-09-25 17:40:47			0	39508	0	0	0	23968	22550	153798	27189	1061794	46506	108843	0	0	8266	500199	0	0
2024-09-25 17:41:47			0	39501	0	0	0	23974	22560	153758	27360	1061803	46506	108845	0	0	8266	500430	0	0
2024-09-25 17:42:47			0	39521	0	0	0	23963	22550	153926	27711	1061767	46517	108841	0	0	8267	499718	0	0
2024-09-25 17:43:47			0	39496	0	0	0	23953	22550	153806	27402	1061740	46506	108837	0	0	8266	500643	0	0
2024-09-25 17:44:47			0	39498	0	0	0	23950	22560	153910	27381	1061722	46496	108836	0	0	8266	500541	0	0
2024-09-25 17:45:47			0	39479	0	0	0	23937	22550	153954	27338	1061731	46506	108831	0	0	8265	501273	0	0
2024-09-25 17:46:47			0	39474	0	0	0	23935	22550	154030	27448	1061758	46506	108830	0	0	8265	501458	0	0
2024-09-25 17:47:47			0	39455	0	0	0	23945	22550	154034	27229	1061705	46506	108834	0	0	8263	502162	0	0
2024-09-25 17:48:47			0	39475	0	0	0	23950	22540	153926	27137	1061642	46516	108836	0	0	8264	501449	0	0
2024-09-25 17:49:47			0	39490	0	0	0	23953	22530	153910	27562	1061704	46526	108837	0	0	8265	500921	0	0
2024-09-25 17:50:47			0	39496	0	0	0	23963	22540	153882	27352	1061713	46526	108841	0	0	8265	500671	0	0
2024-09-25 17:51:47			0	39504	0	0	0	23953	22540	153822	27511	1061696	46527	108837	0	0	8266	500375	0	0
2024-09-25 17:52:47			0	39473	0	0	0	23932	22540	153842	27528	1061687	46526	108829	0	0	8265	501523	0	0
2024-09-25 17:53:47			0	39456	0	0	0	23903	22530	153954	27171	1061624	46515	108818	0	0	8264	502181	0	0
2024-09-25 17:54:47			0	39416	0	0	0	23898	22530	154097	27573	1061624	46515	108816	0	0	8262	503666	0	0
2024-09-25 17:55:47			0	39403	0	0	0	23914	22530	154157	27396	1061624	46515	108822	0	0	8261	504149	0	0
2024-09-25 17:56:47			0	39394	0	0	0	23914	22530	154233	27403	1061615	46504	108822	0	0	8260	504483	0	0
2024-09-25 17:57:47			0	39394	0	0	0	23911	22530	154137	27232	1061642	46493	108821	0	0	8260	504483	0	0
2024-09-25 17:58:47			0	39380	0	0	0	23903	22520	154321	27473	1061606	46503	108818	0	0	8260	505032	0	0
2024-09-25 17:59:47			0	39367	0	0	0	23919	22530	154285	27390	1061669	46504	108824	0	0	8259	505488	0	0
2024-09-25 18:00:47			0	39372	0	0	0	23927	22520	154381	27421	1061571	46513	108827	0	0	8259	505330	0	0
2024-09-25 18:01:47			0	39370	0	0	0	23940	22530	154253	27156	1061615	46504	108832	0	0	8258	505376	0	0
2024-09-25 18:02:47			0	39369	0	0	0	23927	22520	154241	27372	1061553	46537	108827	0	0	8259	505442	0	0
2024-09-25 18:03:47			0	39386	0	0	0	23940	22510	154229	27204	1061588	46524	108832	0	0	8259	504837	0	0
2024-09-25 18:04:47			0	39377	0	0	0	23929	22510	154245	27123	1061642	46502	108828	0	0	8259	505172	0	0
2024-09-25 18:05:47			0	39392	0	0	0	23922	22520	154469	27339	1061571	46502	108825	0	0	8260	504586	0	0
2024-09-25 18:06:47			0	39366	0	0	0	23919	22520	154321	27293	1061544	46502	108824	0	0	8259	505553	0	0
2024-09-25 18:07:47			0	39335	0	0	0	23922	22510	154405	27312	1061526	46491	108825	0	0	8257	506736	0	0
2024-09-25 18:08:47			0	39326	0	0	0	23916	22510	154493	27294	1061553	46524	108823	0	0	8256	507072	0	0
2024-09-25 18:09:47			0	39326	0	0	0	23922	22510	154397	27209	1061526	46502	108825	0	0	8256	507072	0	0
2024-09-25 18:10:47			0	39344	0	0	0	23924	22520	154421	27698	1061491	46524	108826	0	0	8257	506373	0	0
2024-09-25 18:11:47			0	39312	0	0	0	23919	22500	154493	27601	1061517	46501	108824	0	0	8255	507623	0	0
2024-09-25 18:12:47			0	39315	0	0	0	23916	22510	154545	27319	1061526	46513	108823	0	0	8256	507482	0	0
2024-09-25 18:13:47			0	39296	0	0	0	23911	22510	154617	27573	1061499	46491	108821	0	0	8255	508191	0	0
2024-09-25 18:14:47			0	39301	0	0	0	23922	22500	154569	27334	1061464	46523	108825	0	0	8255	508033	0	0
2024-09-25 18:15:47			0	39298	0	0	0	23911	22510	154677	27351	1061553	46502	108821	0	0	8255	508117	0	0
2024-09-25 18:16:47			0	39286	0	0	0	23924	22510	154633	27409	1061526	46536	108826	0	0	8254	508565	0	0
2024-09-25 18:17:47			0	39298	0	0	0	23914	22510	154593	27578	1061526	46524	108822	0	0	8255	508117	0	0
2024-09-25 18:18:47			0	39284	0	0	0	23916	22500	154665	26965	1061481	46533	108823	0	0	8254	508668	0	0
2024-09-25 18:19:47			0	39279	0	0	0	23919	22500	154689	27450	1061517	46501	108824	0	0	8253	508855	0	0
2024-09-25 18:20:47			0	39279	0	0	0	23916	22500	154605	27431	1061490	46501	108823	0	0	8253	508855	0	0
2024-09-25 18:21:47			0	39310	0	0	0	23916	22500	154569	27161	1061508	46500	108823	0	0	8255	507697	0	0
2024-09-25 18:22:47			0	39348	0	0	0	23914	22500	154485	27388	1061455	46511	108822	0	0	8257	506280	0	0
2024-09-25 18:23:47			0	39338	0	0	0	23919	22500	154441	27024	1061490	46501	108824	0	0	8257	506653	0	0
2024-09-25 18:24:47			0	39353	0	0	0	23911	22500	154533	27232	1061561	46511	108821	0	0	8258	506094	0	0
2024-09-25 18:25:47			0	39344	0	0	0	23914	22490	154445	27315	1061517	46510	108822	0	0	8257	506457	0	0
2024-09-25 18:26:47			0	39325	0	0	0	23914	22500	154505	27251	1061508	46500	108822	0	0	8256	507138	0	0
2024-09-25 18:27:47			0	39311	0	0	0	23909	22490	154657	27187	1061463	46532	108820	0	0	8255	507688	0	0
2024-09-25 18:28:47			0	39306	0	0	0	23914	22490	154585	27390	1061446	46511	108822	0	0	8255	507875	0	0
2024-09-25 18:29:47			0	39290	0	0	0	23911	22500	154677	27105	1061428	46511	108821	0	0	8254	508444	0	0
2024-09-25 18:30:47			0	39288	0	0	0	23903	22490	154573	27176	1061552	46533	108818	0	0	8254	508547	0	0
2024-09-25 18:31:47			0	39275	0	0	0	23903	22500	154677	27142	1061481	46511	108818	0	0	8253	509004	0	0
2024-09-25 18:32:47			0	39280	0	0	0	23903	22490	154557	27260	1061446	46522	108818	0	0	8254	508846	0	0
2024-09-25 18:33:47			0	39282	0	0	0	23906	22490	154665	27197	1061446	46511	108819	0	0	8254	508771	0	0
2024-09-25 18:34:47			0	39249	0	0	0	23901	22490	154749	27471	1061437	46500	108817	0	0	8252	510005	0	0
2024-09-25 18:35:47			0	39272	0	0	0	23893	22490	154713	26854	1061499	46500	108814	0	0	8253	509145	0	0
2024-09-25 18:36:47			0	39270	0	0	0	23903	22490	154825	27092	1061446	46522	108818	0	0	8253	509220	0	0
2024-09-25 18:37:47			0	39267	0	0	0	23901	22490	154797	27083	1061446	46500	108817	0	0	8253	509332	0	0
2024-09-25 18:38:47			0	39254	0	0	0	23888	22490	154773	27474	1061392	46522	108812	0	0	8252	509818	0	0
2024-09-25 18:39:47			0	39258	0	0	0	23890	22480	154885	27211	1061454	46510	108813	0	0	8253	509697	0	0
2024-09-25 18:40:47			0	39270	0	0	0	23890	22490	154781	27270	1061383	46510	108813	0	0	8253	509220	0	0
2024-09-25 18:41:47			0	39270	0	0	0	23888	22480	154841	27168	1061365	46509	108812	0	0	8253	509248	0	0
2024-09-25 18:42:47			0	39262	0	0	0	23893	22480	154789	27036	1061445	46509	108814	0	0	8253	509547	0	0
2024-09-25 18:43:47			0	39276	0	0	0	23893	22480	154769	27410	1061365	46499	108814	0	0	8254	509024	0	0
2024-09-25 18:44:47			0	39273	0	0	0	23893	22480	154701	27315	1061419	46531	108814	0	0	8253	509136	0	0
2024-09-25 18:45:47			0	39291	0	0	0	23890	22470	154749	27187	1061436	46519	108813	0	0	8254	508492	0	0
2024-09-25 18:46:47			0	39295	0	0	0	23883	22470	154677	26844	1061383	46519	108810	0	0	8255	508342	0	0
2024-09-25 18:47:47			0	39274	0	0	0	23875	22470	154813	27114	1061356	46498	108807	0	0	8254	509127	0	0
2024-09-25 18:48:47			0	39257	0	0	0	23857	22480	154841	27450	1061365	46520	108800	0	0	8253	509734	0	0
2024-09-25 18:49:47			0	39234	0	0	0	23854	22460	154917	27196	1061330	46497	108799	0	0	8252	510652	0	0
2024-09-25 18:50:47			0	39207	0	0	0	23851	22460	154997	27255	1061312	46508	108798	0	0	8250	511664	0	0
2024-09-25 18:51:47			0	39207	0	0	0	23862	22470	154973	27336	1061330	46498	108802	0	0	8250	511635	0	0
2024-09-25 18:52:47			0	39226	0	0	0	23864	22460	154893	27189	1061338	46486	108803	0	0	8251	510952	0	0
2024-09-25 18:53:47			0	39221	0	0	0	23875	22460	154901	27303	1061303	46507	108807	0	0	8251	511139	0	0
2024-09-25 18:54:47			0	39224	0	0	0	23870	22460	154965	27429	1061276	46507	108805	0	0	8251	511027	0	0
2024-09-25 18:55:47			0	39207	0	0	0	23862	22460	155037	27372	1061338	46519	108802	0	0	8250	511664	0	0
2024-09-25 18:56:47			0	39196	0	0	0	23867	22460	155085	27046	1061356	46507	108804	0	0	8249	512077	0	0
2024-09-25 18:57:47			0	39200	0	0	0	23864	22450	154945	27206	1061321	46517	108803	0	0	8250	511955	0	0
2024-09-25 18:58:47			0	39192	0	0	0	23854	22450	154985	27334	1061231	46517	108799	0	0	8249	512255	0	0
2024-09-25 18:59:47			0	39193	0	0	0	23854	22450	155141	27130	1061240	46506	108799	0	0	8249	512218	0	0
2024-09-25 19:00:47			0	39142	0	0	0	23838	22450	155225	26996	1061267	46517	108793	0	0	8247	514133	0	0
2024-09-25 19:01:47			0	39107	0	0	0	23833	22450	155289	27352	1061187	46506	108791	0	0	8245	515450	0	0
2024-09-25 19:02:47			0	39093	0	0	0	23836	22450	155389	27338	1061240	46517	108792	0	0	8244	515978	0	0
2024-09-25 19:03:47			0	39102	0	0	0	23836	22440	155297	27339	1061195	46506	108792	0	0	8244	515667	0	0
2024-09-25 19:04:47			0	39122	0	0	0	23851	22450	155317	27161	1061231	46484	108798	0	0	8245	514886	0	0
2024-09-25 19:05:47			0	39111	0	0	0	23846	22450	155425	27360	1061205	46506	108796	0	0	8245	515300	0	0
2024-09-25 19:06:47			0	39092	0	0	0	23833	22440	155457	27286	1061133	46516	108791	0	0	8244	516044	0	0
2024-09-25 19:07:47			0	39057	0	0	0	23825	22450	155533	27357	1061178	46506	108788	0	0	8242	517335	0	0
2024-09-25 19:08:47			0	39071	0	0	0	23823	22440	155509	27112	1061160	46495	108787	0	0	8243	516836	0	0
2024-09-25 19:09:47			0	39026	0	0	0	23810	22430	155649	27144	1061151	46482	108782	0	0	8240	518564	0	0
2024-09-25 19:10:47			0	39010	0	0	0	23820	22440	155717	27123	1061133	46495	108786	0	0	8239	519140	0	0
2024-09-25 19:11:47			0	38976	0	0	0	23807	22420	155889	27076	1061124	46493	108781	0	0	8237	520484	0	0
2024-09-25 19:12:47			0	38945	0	0	0	23823	22430	155945	27119	1061089	46504	108787	0	0	8235	521630	0	0
2024-09-25 19:13:47			0	38958	0	0	0	23825	22420	155977	27569	1061071	46514	108788	0	0	8236	521166	0	0
2024-09-25 19:14:47			0	38961	0	0	0	23828	22400	155909	27206	1061017	46501	108789	0	0	8236	521111	0	0
2024-09-25 19:15:47			0	38993	0	0	0	23831	22420	155777	26942	1061017	46525	108790	0	0	8238	519841	0	0
2024-09-25 19:16:47			0	39012	0	0	0	23831	22400	155797	27364	1061070	46491	108790	0	0	8239	519180	0	0
2024-09-25 19:17:47			0	38998	0	0	0	23833	22410	155817	27364	1061088	46502	108791	0	0	8238	519681	0	0
2024-09-25 19:18:47			0	39004	0	0	0	23820	22410	155913	27339	1061053	46502	108786	0	0	8239	519453	0	0
2024-09-25 19:19:47			0	38994	0	0	0	23820	22420	155853	27345	1061071	46514	108786	0	0	8238	519803	0	0
2024-09-25 19:20:47			0	38984	0	0	0	23812	22410	155881	27163	1061133	46502	108783	0	0	8238	520210	0	0
2024-09-25 19:21:47			0	38979	0	0	0	23825	22410	155877	27327	1061035	46502	108788	0	0	8237	520400	0	0
2024-09-25 19:22:47			0	38989	0	0	0	23815	22410	155897	27398	1061026	46513	108784	0	0	8238	520021	0	0
2024-09-25 19:23:47			0	38948	0	0	0	23799	22410	155965	27350	1061079	46513	108778	0	0	8236	521575	0	0
2024-09-25 19:24:47			0	38932	0	0	0	23812	22390	156133	27315	1061017	46500	108783	0	0	8235	522240	0	0
2024-09-25 19:25:47			0	38905	0	0	0	23802	22390	156173	27246	1061026	46511	108779	0	0	8233	523265	0	0
2024-09-25 19:26:47			0	38879	0	0	0	23784	22400	156345	27298	1061008	46491	108772	0	0	8232	524225	0	0
2024-09-25 19:27:47			0	38819	0	0	0	23776	22400	156501	27377	1060990	46512	108769	0	0	8229	526510	0	0
2024-09-25 19:28:47			0	38768	0	0	0	23786	22400	156701	27041	1060981	46501	108773	0	0	8226	528457	0	0
2024-09-25 19:29:47			0	38744	0	0	0	23786	22390	156713	27118	1060963	46490	108773	0	0	8224	529405	0	0
2024-09-25 19:30:47			0	38753	0	0	0	23786	22390	156693	26949	1060972	46490	108773	0	0	8225	529060	0	0
2024-09-25 19:31:47			0	38754	0	0	0	23789	22390	156681	27163	1060963	46511	108774	0	0	8225	529022	0	0
2024-09-25 19:32:47			0	38774	0	0	0	23799	22380	156573	27282	1060999	46499	108778	0	0	8226	528287	0	0
2024-09-25 19:33:47			0	38786	0	0	0	23805	22380	156633	27386	1060954	46500	108780	0	0	8226	527828	0	0
2024-09-25 19:34:47			0	38793	0	0	0	23799	22380	156661	27374	1060954	46500	108778	0	0	8227	527561	0	0
2024-09-25 19:35:47			0	38832	0	0	0	23797	22380	156569	27137	1060901	46489	108777	0	0	8229	526073	0	0
2024-09-25 19:36:47			0	38824	0	0	0	23799	22380	156493	27498	1061035	46510	108778	0	0	8229	526378	0	0
2024-09-25 19:37:47			0	38798	0	0	0	23802	22390	156545	27355	1060990	46500	108779	0	0	8227	527341	0	0
2024-09-25 19:38:47			0	38827	0	0	0	23794	22370	156505	27230	1060936	46509	108776	0	0	8229	526293	0	0
2024-09-25 19:39:47			0	38841	0	0	0	23792	22380	156421	27332	1060892	46509	108775	0	0	8230	525730	0	0
2024-09-25 19:40:47			0	38867	0	0	0	23792	22380	156357	27123	1060919	46509	108775	0	0	8231	524740	0	0
2024-09-25 19:41:47			0	38875	0	0	0	23786	22370	156237	27275	1060910	46499	108773	0	0	8232	524465	0	0
2024-09-25 19:42:47			0	38917	0	0	0	23776	22360	156177	27275	1060856	46485	108769	0	0	8234	522897	0	0
2024-09-25 19:43:47			0	38905	0	0	0	23792	22360	156305	27007	1060839	46498	108775	0	0	8233	523353	0	0
2024-09-25 19:44:47			0	38875	0	0	0	23786	22370	156257	27331	1060901	46508	108773	0	0	8232	524465	0	0
2024-09-25 19:45:47			0	38901	0	0	0	23781	22380	156181	26935	1060892	46488	108771	0	0	8233	523447	0	0
2024-09-25 19:46:47			0	38925	0	0	0	23779	22370	156125	27001	1060874	46487	108770	0	0	8235	522564	0	0
2024-09-25 19:47:47			0	38920	0	0	0	23781	22360	156065	27116	1060839	46498	108771	0	0	8234	522783	0	0
2024-09-25 19:48:47			0	38938	0	0	0	23781	22360	156017	27343	1060830	46507	108771	0	0	8235	522100	0	0
2024-09-25 19:49:47			0	38957	0	0	0	23776	22370	156021	26932	1060874	46498	108769	0	0	8237	521350	0	0
2024-09-25 19:50:47			0	38967	0	0	0	23773	22350	155913	27000	1060794	46485	108768	0	0	8237	521029	0	0
2024-09-25 19:51:47			0	38974	0	0	0	23776	22360	155993	27138	1060839	46498	108769	0	0	8238	520735	0	0
2024-09-25 19:52:47			0	38988	0	0	0	23768	22350	155849	27242	1060847	46497	108766	0	0	8239	520233	0	0
2024-09-25 19:53:47			0	39007	0	0	0	23776	22360	155817	27310	1060830	46485	108769	0	0	8240	519485	0	0
2024-09-25 19:54:47			0	38992	0	0	0	23779	22360	155797	27176	1060883	46485	108770	0	0	8239	520053	0	0
2024-09-25 19:55:47			0	39018	0	0	0	23771	22350	155781	27003	1060847	46497	108767	0	0	8240	519098	0	0
2024-09-25 19:56:47			0	39023	0	0	0	23781	22350	155753	27216	1060821	46485	108771	0	0	8240	518909	0	0
2024-09-25 19:57:47			0	39015	0	0	0	23768	22340	155821	27095	1060856	46506	108766	0	0	8240	519241	0	0
2024-09-25 19:58:47			0	38998	0	0	0	23779	22350	155869	27201	1060838	46506	108770	0	0	8239	519855	0	0
2024-09-25 19:59:47			0	38981	0	0	0	23768	22350	155857	26970	1060874	46485	108766	0	0	8238	520499	0	0
2024-09-25 20:00:47			0	38982	0	0	0	23763	22350	155885	27260	1060821	46507	108764	0	0	8238	520461	0	0
2024-09-25 20:01:47			0	38965	0	0	0	23766	22350	155929	26920	1060767	46507	108765	0	0	8237	521105	0	0
2024-09-25 20:02:47			0	38951	0	0	0	23763	22350	156069	27275	1060794	46485	108764	0	0	8236	521636	0	0
2024-09-25 20:03:47			0	38927	0	0	0	23771	22340	155977	27275	1060776	46517	108767	0	0	8235	522576	0	0
2024-09-25 20:04:47			0	38939	0	0	0	23763	22340	156165	26974	1060714	46495	108764	0	0	8236	522120	0	0
2024-09-25 20:05:47			0	38940	0	0	0	23771	22340	156113	27274	1060856	46496	108767	0	0	8236	522082	0	0
2024-09-25 20:06:47			0	38917	0	0	0	23768	22340	156049	26896	1060749	46484	108766	0	0	8234	522956	0	0
2024-09-25 20:07:47			0	38950	0	0	0	23771	22350	156085	27409	1060758	46496	108767	0	0	8236	521674	0	0
2024-09-25 20:08:47			0	38957	0	0	0	23771	22340	156181	27203	1060723	46496	108767	0	0	8237	521437	0	0
2024-09-25 20:09:47			0	38927	0	0	0	23761	22340	156157	27128	1060749	46484	108763	0	0	8235	522576	0	0
2024-09-25 20:10:47			0	38869	0	0	0	23753	22340	156453	27277	1060749	46496	108760	0	0	8232	524781	0	0
2024-09-25 20:11:47			0	38774	0	0	0	23758	22340	156645	27677	1060723	46496	108762	0	0	8226	528405	0	0
2024-09-25 20:12:47			0	38746	0	0	0	23753	22340	156829	27493	1060776	46473	108760	0	0	8225	529476	0	0
2024-09-25 20:13:47			0	38763	0	0	0	23766	22340	156713	27327	1060749	46484	108765	0	0	8226	528825	0	0
2024-09-25 20:14:47			0	38818	0	0	0	23753	22340	156569	27436	1060749	46484	108760	0	0	8229	526725	0	0
2024-09-25 20:15:47			0	38847	0	0	0	23766	22340	156369	27355	1060740	46495	108765	0	0	8230	525619	0	0
2024-09-25 20:16:47			0	38883	0	0	0	23768	22340	156273	27128	1060767	46472	108766	0	0	8232	524248	0	0
2024-09-25 20:17:47			0	38910	0	0	0	23753	22340	156249	27203	1060767	46505	108760	0	0	8234	523222	0	0
2024-09-25 20:18:47			0	38918	0	0	0	23758	22340	156129	27241	1060740	46495	108762	0	0	8235	522918	0	0
2024-09-25 20:19:47			0	38834	0	0	0	23753	22340	156413	26963	1060749	46506	108760	0	0	8230	526114	0	0
2024-09-25 20:20:47			0	38837	0	0	0	23745	22330	156569	27244	1060731	46495	108757	0	0	8230	526029	0	0
2024-09-25 20:21:47			0	38758	0	0	0	23732	22330	156765	27289	1060669	46504	108752	0	0	8226	529046	0	0
2024-09-25 20:22:47			0	38674	0	0	0	23729	22340	157080	27379	1060714	46483	108751	0	0	8221	532236	0	0
2024-09-25 20:23:47			0	38611	0	0	0	23724	22330	157324	27237	1060705	46505	108749	0	0	8217	534688	0	0
2024-09-25 20:24:47			0	38566	0	0	0	23729	22330	157384	27289	1060669	46494	108751	0	0	8215	536422	0	0
2024-09-25 20:25:47			0	38533	0	0	0	23737	22330	157620	26890	1060678	46495	108754	0	0	8213	537696	0	0
2024-09-25 20:26:47			0	38501	0	0	0	23724	22320	157784	26960	1060651	46493	108749	0	0	8211	538963	0	0
2024-09-25 20:27:47			0	38470	0	0	0	23735	22320	157892	27280	1060597	46470	108753	0	0	8209	540163	0	0
2024-09-25 20:28:47			0	38507	0	0	0	23732	22320	157712	27072	1060660	46504	108752	0	0	8211	538731	0	0
2024-09-25 20:29:47			0	38543	0	0	0	23732	22320	157604	26942	1060651	46493	108752	0	0	8213	537340	0	0
2024-09-25 20:30:47			0	38567	0	0	0	23724	22320	157488	27092	1060597	46493	108749	0	0	8215	536413	0	0
2024-09-25 20:31:47			0	38614	0	0	0	23737	22310	157308	27164	1060562	46480	108754	0	0	8217	534632	0	0
2024-09-25 20:32:47			0	38660	0	0	0	23748	22310	157068	27322	1060642	46492	108758	0	0	8220	532863	0	0
2024-09-25 20:33:47			0	38696	0	0	0	23742	22320	157108	27357	1060651	46503	108756	0	0	8222	531451	0	0
2024-09-25 20:34:47			0	38737	0	0	0	23742	22320	156873	26941	1060624	46503	108756	0	0	8224	529880	0	0
2024-09-25 20:35:47			0	38714	0	0	0	23735	22320	156848	27034	1060677	46493	108753	0	0	8223	530761	0	0
2024-09-25 20:36:47			0	38697	0	0	0	23740	22320	156900	27268	1060624	46514	108755	0	0	8222	531413	0	0
2024-09-25 20:37:47			0	38623	0	0	0	23724	22320	157248	27293	1060704	46481	108749	0	0	8218	534256	0	0
2024-09-25 20:38:47			0	38567	0	0	0	23716	22310	157528	27424	1060579	46502	108746	0	0	8215	536443	0	0
2024-09-25 20:39:47			0	38509	0	0	0	23714	22310	157652	27078	1060606	46480	108745	0	0	8212	538684	0	0
2024-09-25 20:40:47			0	38478	0	0	0	23709	22310	157920	27137	1060633	46502	108743	0	0	8210	539883	0	0
2024-09-25 20:41:47			0	38464	0	0	0	23724	22310	157944	27034	1060615	46492	108749	0	0	8209	540426	0	0
2024-09-25 20:42:47			0	38455	0	0	0	23722	22310	157944	27215	1060588	46480	108748	0	0	8208	540775	0	0
2024-09-25 20:43:47			0	38453	0	0	0	23724	22300	157880	27104	1060597	46480	108749	0	0	8208	540882	0	0
2024-09-25 20:44:47			0	38463	0	0	0	23724	22300	157908	27312	1060615	46479	108749	0	0	8209	540495	0	0
2024-09-25 20:45:47			0	38453	0	0	0	23735	22310	157976	27319	1060579	46480	108753	0	0	8208	540852	0	0
2024-09-25 20:46:47			0	38464	0	0	0	23719	22320	157980	26923	1060624	46481	108747	0	0	8209	540396	0	0
2024-09-25 20:47:47			0	38481	0	0	0	23724	22310	157832	27296	1060615	46502	108749	0	0	8210	539767	0	0
2024-09-25 20:48:47			0	38520	0	0	0	23737	22310	157668	27076	1060588	46492	108754	0	0	8212	538258	0	0
2024-09-25 20:49:47			0	38553	0	0	0	23735	22310	157608	27213	1060633	46513	108753	0	0	8214	536983	0	0
2024-09-25 20:50:47			0	38578	0	0	0	23727	22300	157440	27220	1060624	46480	108750	0	0	8215	536049	0	0
2024-09-25 20:51:47			0	38595	0	0	0	23722	22300	157468	27215	1060570	46492	108748	0	0	8216	535394	0	0
2024-09-25 20:52:47			0	38552	0	0	0	23729	22300	157608	27308	1060624	46492	108751	0	0	8214	537052	0	0
2024-09-25 20:53:47			0	38540	0	0	0	23722	22300	157584	27464	1060650	46492	108748	0	0	8213	537515	0	0
2024-09-25 20:54:47			0	38543	0	0	0	23719	22310	157580	26816	1060660	46502	108747	0	0	8213	537370	0	0
2024-09-25 20:55:47			0	38529	0	0	0	23727	22300	157620	27358	1060570	46492	108750	0	0	8212	537940	0	0
2024-09-25 20:56:47			0	38524	0	0	0	23727	22300	157616	27116	1060570	46502	108750	0	0	8212	538134	0	0
2024-09-25 20:57:47			0	38514	0	0	0	23719	22310	157620	27377	1060633	46502	108747	0	0	8212	538490	0	0
2024-09-25 20:58:47			0	38509	0	0	0	23716	22300	157672	27105	1060597	46513	108746	0	0	8211	538714	0	0
2024-09-25 20:59:47			0	38504	0	0	0	23714	22300	157788	27052	1060570	46502	108745	0	0	8211	538907	0	0
2024-09-25 21:00:47			0	38494	0	0	0	23727	22310	157788	27228	1060579	46480	108750	0	0	8210	539264	0	0
2024-09-25 21:01:47			0	38479	0	0	0	23722	22300	157864	27256	1060597	46513	108748	0	0	8210	539875	0	0
2024-09-25 21:02:47			0	38492	0	0	0	23719	22300	157796	27351	1060535	46501	108747	0	0	8210	539371	0	0
2024-09-25 21:03:47			0	38514	0	0	0	23724	22300	157696	27319	1060561	46501	108749	0	0	8212	538520	0	0
2024-09-25 21:04:47			0	38523	0	0	0	23719	22300	157568	27050	1060535	46501	108747	0	0	8212	538172	0	0
2024-09-25 21:05:47			0	38482	0	0	0	23719	22310	157788	27422	1060553	46492	108747	0	0	8210	539729	0	0
2024-09-25 21:06:47			0	38483	0	0	0	23722	22300	157812	27140	1060677	46492	108748	0	0	8210	539720	0	0
2024-09-25 21:07:47			0	38494	0	0	0	23719	22300	157904	27156	1060570	46502	108747	0	0	8211	539294	0	0
2024-09-25 21:08:47			0	38513	0	0	0	23714	22300	157784	26908	1060508	46479	108745	0	0	8212	538559	0	0
2024-09-25 21:09:47			0	38541	0	0	0	23709	22300	157664	27187	1060535	46501	108743	0	0	8213	537477	0	0
2024-09-25 21:10:47			0	38534	0	0	0	23716	22300	157564	26927	1060570	46513	108746	0	0	8213	537747	0	0
2024-09-25 21:11:47			0	38550	0	0	0	23714	22300	157656	27197	1060508	46479	108745	0	0	8214	537129	0	0
2024-09-25 21:12:47			0	38542	0	0	0	23719	22300	157728	27152	1060561	46501	108747	0	0	8213	537438	0	0
2024-09-25 21:13:47			0	38542	0	0	0	23719	22290	157580	27124	1060553	46500	108747	0	0	8213	537468	0	0
2024-09-25 21:14:47			0	38543	0	0	0	23716	22300	157644	27436	1060517	46502	108746	0	0	8213	537400	0	0
2024-09-25 21:15:47			0	38540	0	0	0	23709	22300	157576	27123	1060570	46492	108743	0	0	8213	537515	0	0
2024-09-25 21:16:47			0	38544	0	0	0	23709	22290	157512	27206	1060553	46478	108743	0	0	8214	537391	0	0
2024-09-25 21:17:47			0	38573	0	0	0	23701	22300	157504	27038	1060588	46491	108740	0	0	8215	536242	0	0
2024-09-25 21:18:47			0	38559	0	0	0	23711	22300	157640	26889	1060561	46501	108744	0	0	8214	536782	0	0
2024-09-25 21:19:47			0	38558	0	0	0	23703	22280	157700	27081	1060517	46490	108741	0	0	8214	536880	0	0
2024-09-25 21:20:47			0	38544	0	0	0	23706	22290	157528	27015	1060472	46500	108742	0	0	8214	537391	0	0
2024-09-25 21:21:47			0	38525	0	0	0	23703	22300	157644	26925	1060535	46479	108741	0	0	8213	538095	0	0
2024-09-25 21:22:47			0	38515	0	0	0	23716	22280	157724	27149	1060508	46489	108746	0	0	8212	538542	0	0
2024-09-25 21:23:47			0	38486	0	0	0	23711	22290	157876	27157	1060579	46490	108744	0	0	8210	539634	0	0
2024-09-25 21:24:47			0	38470	0	0	0	23703	22290	157972	27107	1060499	46500	108741	0	0	8209	540254	0	0
2024-09-25 21:25:47			0	38434	0	0	0	23703	22290	158120	27114	1060579	46511	108741	0	0	8207	541650	0	0
2024-09-25 21:26:47			0	38415	0	0	0	23711	22280	158112	26970	1060544	46500	108744	0	0	8206	542418	0	0
2024-09-25 21:27:47			0	38405	0	0	0	23703	22280	158100	27059	1060428	46500	108741	0	0	8206	542806	0	0
2024-09-25 21:28:47			0	38429	0	0	0	23706	22280	158140	27225	1060517	46478	108742	0	0	8207	541874	0	0
2024-09-25 21:29:47			0	38412	0	0	0	23701	22270	158088	27017	1060472	46466	108740	0	0	8206	542564	0	0
2024-09-25 21:30:47			0	38408	0	0	0	23706	22280	158192	27227	1060508	46500	108742	0	0	8206	542690	0	0
2024-09-25 21:31:47			0	38412	0	0	0	23701	22280	158120	27107	1060508	46489	108740	0	0	8206	542534	0	0
2024-09-25 21:32:47			0	38422	0	0	0	23701	22280	158116	27036	1060517	46490	108740	0	0	8207	542146	0	0
2024-09-25 21:33:47			0	38425	0	0	0	23693	22280	158172	27164	1060490	46490	108737	0	0	8207	542029	0	0
2024-09-25 21:34:47			0	38417	0	0	0	23706	22280	158064	27320	1060508	46510	108742	0	0	8206	542340	0	0
2024-09-25 21:35:47			0	38426	0	0	0	23701	22270	158092	27144	1060499	46500	108740	0	0	8207	542021	0	0
2024-09-25 21:36:47			0	38450	0	0	0	23703	22270	157976	27235	1060472	46477	108741	0	0	8208	541089	0	0
2024-09-25 21:37:47			0	38473	0	0	0	23706	22270	157848	26963	1060472	46510	108742	0	0	8209	540198	0	0
2024-09-25 21:38:47			0	38461	0	0	0	23706	22270	157840	26928	1060499	46500	108742	0	0	8209	540663	0	0
2024-09-25 21:39:47			0	38468	0	0	0	23706	22280	157940	27029	1060535	46500	108742	0	0	8209	540361	0	0
2024-09-25 21:40:47			0	38470	0	0	0	23711	22270	157888	27203	1060463	46499	108744	0	0	8209	540314	0	0
2024-09-25 21:41:47			0	38455	0	0	0	23703	22280	157912	27154	1060508	46489	108741	0	0	8208	540865	0	0
2024-09-25 21:42:47			0	38458	0	0	0	23701	22280	157868	27059	1060490	46500	108740	0	0	8209	540749	0	0
2024-09-25 21:43:47			0	38479	0	0	0	23709	22280	157892	27242	1060535	46521	108743	0	0	8210	539935	0	0
2024-09-25 21:44:47			0	38465	0	0	0	23701	22270	157908	27227	1060472	46510	108740	0	0	8209	540508	0	0
2024-09-25 21:45:47			0	38468	0	0	0	23701	22270	157880	27036	1060446	46500	108740	0	0	8209	540392	0	0
2024-09-25 21:46:47			0	38455	0	0	0	23703	22280	157964	27235	1060490	46500	108741	0	0	8208	540865	0	0
2024-09-25 21:47:47			0	38470	0	0	0	23696	22270	158036	27296	1060472	46510	108738	0	0	8209	540314	0	0
2024-09-25 21:48:47			0	38464	0	0	0	23703	22270	157972	27123	1060517	46488	108741	0	0	8209	540547	0	0
2024-09-25 21:49:47			0	38477	0	0	0	23701	22280	158012	27102	1060428	46500	108740	0	0	8210	540013	0	0
2024-09-25 21:50:47			0	38467	0	0	0	23696	22280	158028	27013	1060481	46510	108738	0	0	8209	540400	0	0
2024-09-25 21:51:47			0	38466	0	0	0	23701	22270	157948	27137	1060446	46500	108740	0	0	8209	540469	0	0
2024-09-25 21:52:47			0	38465	0	0	0	23701	22280	157968	27152	1060401	46477	108740	0	0	8209	540478	0	0
2024-09-25 21:53:47			0	38456	0	0	0	23698	22270	157992	27010	1060463	46476	108739	0	0	8209	540857	0	0
2024-09-25 21:54:47			0	38468	0	0	0	23698	22270	158036	26915	1060383	46476	108739	0	0	8209	540392	0	0
2024-09-25 21:55:47			0	38464	0	0	0	23698	22270	157980	27026	1060490	46509	108739	0	0	8209	540547	0	0
2024-09-25 21:56:47			0	38447	0	0	0	23680	22290	158144	27138	1060472	46511	108732	0	0	8208	541145	0	0
2024-09-25 21:57:47			0	38402	0	0	0	23680	22270	158212	27147	1060472	46477	108732	0	0	8206	542953	0	0
2024-09-25 21:58:47			0	38402	0	0	0	23680	22270	158252	27066	1060472	46500	108732	0	0	8206	542953	0	0
2024-09-25 21:59:47			0	38376	0	0	0	23672	22280	158444	27199	1060455	46489	108729	0	0	8204	543934	0	0
2024-09-25 22:00:47			0	38362	0	0	0	23670	22270	158608	26989	1060392	46477	108728	0	0	8204	544509	0	0
2024-09-25 22:01:47			0	38345	0	0	0	23675	22270	158596	27019	1060383	46488	108730	0	0	8202	545171	0	0
2024-09-25 22:02:47			0	38341	0	0	0	23672	22260	158572	27267	1060454	46488	108729	0	0	8202	545358	0	0
2024-09-25 22:03:47			0	38320	0	0	0	23670	22260	158524	26897	1060348	46488	108728	0	0	8201	546176	0	0
2024-09-25 22:04:47			0	38329	0	0	0	23672	22260	158588	27076	1060419	46475	108729	0	0	8202	545826	0	0
2024-09-25 22:05:47			0	38325	0	0	0	23667	22270	158716	27067	1060330	46488	108727	0	0	8201	545951	0	0
2024-09-25 22:06:47			0	38303	0	0	0	23664	22260	158740	27182	1060401	46476	108726	0	0	8200	546840	0	0
2024-09-25 22:07:47			0	38293	0	0	0	23657	22260	158816	27024	1060445	46475	108723	0	0	8200	547230	0	0
2024-09-25 22:08:47			0	38293	0	0	0	23657	22260	158808	26805	1060365	46487	108723	0	0	8200	547230	0	0
2024-09-25 22:09:47			0	38273	0	0	0	23659	22260	158840	27166	1060428	46499	108724	0	0	8199	548012	0	0
2024-09-25 22:10:47			0	38259	0	0	0	23659	22250	159004	27166	1060356	46475	108724	0	0	8198	548590	0	0
2024-09-25 22:11:47			0	38252	0	0	0	23657	22250	158920	27060	1060321	46486	108723	0	0	8197	548864	0	0
2024-09-25 22:12:47			0	38267	0	0	0	23670	22250	158896	27178	1060321	46507	108728	0	0	8198	548277	0	0
2024-09-25 22:13:47			0	38246	0	0	0	23667	22250	158948	27142	1060356	46487	108727	0	0	8197	549099	0	0
2024-09-25 22:14:47			0	38261	0	0	0	23659	22250	158968	27268	1060356	46487	108724	0	0	8198	548512	0	0
2024-09-25 22:15:47			0	38263	0	0	0	23667	22240	158964	27066	1060285	46485	108727	0	0	8198	548464	0	0
2024-09-25 22:16:47			0	38272	0	0	0	23664	22240	158964	27357	1060312	46496	108726	0	0	8198	548112	0	0
2024-09-25 22:17:47			0	38268	0	0	0	23659	22240	158960	27065	1060312	46473	108724	0	0	8198	548269	0	0
2024-09-25 22:18:47			0	38259	0	0	0	23659	22240	158944	27303	1060232	46506	108724	0	0	8198	548621	0	0
2024-09-25 22:19:47			0	38282	0	0	0	23657	22250	158904	27137	1060330	46487	108723	0	0	8199	547691	0	0
2024-09-25 22:20:47			0	38284	0	0	0	23657	22250	158944	26946	1060303	46487	108723	0	0	8199	547613	0	0
2024-09-25 22:21:47			0	38279	0	0	0	23659	22240	158928	26960	1060329	46496	108724	0	0	8199	547839	0	0
2024-09-25 22:22:47			0	38277	0	0	0	23657	22250	158868	26759	1060267	46497	108723	0	0	8199	547886	0	0
2024-09-25 22:23:47			0	38285	0	0	0	23654	22240	158932	27107	1060312	46485	108722	0	0	8199	547604	0	0
2024-09-25 22:24:47			0	38296	0	0	0	23654	22230	158872	26894	1060294	46485	108722	0	0	8200	547205	0	0
2024-09-25 22:25:47			0	38285	0	0	0	23657	22240	158824	27131	1060312	46506	108723	0	0	8199	547604	0	0
2024-09-25 22:26:47			0	38298	0	0	0	23654	22230	158968	27161	1060258	46484	108722	0	0	8200	547127	0	0
2024-09-25 22:27:47			0	38266	0	0	0	23646	22240	158820	26958	1060249	46496	108719	0	0	8198	548347	0	0
2024-09-25 22:28:47			0	38281	0	0	0	23625	22230	158856	27177	1060267	46496	108711	0	0	8199	547791	0	0
2024-09-25 22:29:47			0	38262	0	0	0	23636	22240	158876	27239	1060249	46473	108715	0	0	8198	548503	0	0
2024-09-25 22:30:47			0	38275	0	0	0	23633	22240	158988	26889	1060223	46485	108714	0	0	8199	547995	0	0
2024-09-25 22:31:47			0	38275	0	0	0	23628	22230	158896	26771	1060240	46473	108712	0	0	8199	548025	0	0
2024-09-25 22:32:47			0	38269	0	0	0	23633	22240	158908	27234	1060196	46473	108714	0	0	8199	548229	0	0
2024-09-25 22:33:47			0	38277	0	0	0	23623	22220	158880	26823	1060249	46483	108710	0	0	8199	547978	0	0
2024-09-25 22:34:47			0	38258	0	0	0	23610	22220	158920	27147	1060160	46483	108705	0	0	8198	548721	0	0
2024-09-25 22:35:47			0	38258	0	0	0	23602	22220	158956	26922	1060214	46483	108702	0	0	8198	548721	0	0
2024-09-25 22:36:47			0	38251	0	0	0	23579	22220	158908	27294	1060196	46471	108693	0	0	8198	548995	0	0
2024-09-25 22:37:47			0	38254	0	0	0	23597	22220	158972	27287	1060160	46483	108700	0	0	8198	548877	0	0
2024-09-25 22:38:47			0	38253	0	0	0	23605	22230	158872	27102	1060125	46505	108703	0	0	8198	548886	0	0
2024-09-25 22:39:47			0	38259	0	0	0	23610	22210	158932	27232	1060089	46493	108705	0	0	8198	548713	0	0
2024-09-25 22:40:47			0	38254	0	0	0	23618	22210	158820	27176	1060151	46471	108708	0	0	8198	548908	0	0
2024-09-25 22:41:47			0	38259	0	0	0	23610	22210	158860	26922	1060125	46483	108705	0	0	8198	548713	0	0
2024-09-25 22:42:47			0	38250	0	0	0	23589	22210	158936	27333	1060089	46493	108697	0	0	8198	549065	0	0
2024-09-25 22:43:47			0	38249	0	0	0	23584	22210	158812	26795	1060062	46493	108695	0	0	8198	549104	0	0
2024-09-25 22:44:47			0	38248	0	0	0	23581	22210	158864	26928	1060142	46503	108694	0	0	8198	549143	0	0
2024-09-25 22:45:47			0	38263	0	0	0	23592	22200	158844	26894	1060053	46481	108698	0	0	8199	548587	0	0
2024-09-25 22:46:47			0	38253	0	0	0	23592	22190	158932	27029	1060062	46481	108698	0	0	8198	549009	0	0
2024-09-25 22:47:47			0	38280	0	0	0	23579	22190	158936	27289	1060026	46480	108693	0	0	8200	547952	0	0
2024-09-25 22:48:47			0	38256	0	0	0	23586	22190	158956	27066	1059982	46458	108696	0	0	8198	548891	0	0
2024-09-25 22:49:47			0	38271	0	0	0	23589	22190	158944	27090	1059982	46469	108697	0	0	8199	548304	0	0
2024-09-25 22:50:47			0	38256	0	0	0	23586	22180	158888	27241	1059937	46490	108696	0	0	8198	548922	0	0
2024-09-25 22:51:47			0	38253	0	0	0	23586	22190	159028	27048	1060026	46480	108696	0	0	8198	549009	0	0
2024-09-25 22:52:47			0	38248	0	0	0	23584	22180	159060	27180	1060017	46479	108695	0	0	8198	549235	0	0
2024-09-25 22:53:47			0	38214	0	0	0	23599	22190	159040	27104	1059999	46501	108701	0	0	8196	550536	0	0
2024-09-25 22:54:47			0	38231	0	0	0	23597	22180	159004	27196	1059964	46479	108700	0	0	8197	549901	0	0
2024-09-25 22:55:47			0	38236	0	0	0	23597	22170	159000	27015	1060017	46478	108700	0	0	8197	549736	0	0
2024-09-25 22:56:47			0	38220	0	0	0	23599	22190	159160	26909	1059946	46468	108701	0	0	8196	550301	0	0
2024-09-25 22:57:47			0	38204	0	0	0	23584	22180	159080	26956	1059981	46478	108695	0	0	8195	550959	0	0
2024-09-25 22:58:47			0	38222	0	0	0	23586	22180	159160	27170	1059981	46466	108696	0	0	8196	550253	0	0
2024-09-25 22:59:47			0	38200	0	0	0	23586	22170	159228	27168	1059973	46478	108696	0	0	8195	551147	0	0
2024-09-25 23:00:47			0	38200	0	0	0	23586	22180	159080	27218	1060008	46489	108696	0	0	8195	551116	0	0
2024-09-25 23:01:47			0	38202	0	0	0	23592	22180	159012	27052	1059981	46478	108698	0	0	8195	551038	0	0
2024-09-25 23:02:47			0	38199	0	0	0	23594	22180	159120	27175	1059937	46479	108699	0	0	8195	551155	0	0
2024-09-25 23:03:47			0	38201	0	0	0	23594	22170	159148	27201	1059910	46489	108699	0	0	8195	551108	0	0
2024-09-25 23:04:47			0	38195	0	0	0	23581	22170	159200	26935	1059973	46478	108694	0	0	8195	551343	0	0
2024-09-25 23:05:47			0	38205	0	0	0	23584	22170	159116	27263	1059964	46478	108695	0	0	8195	550951	0	0
2024-09-25 23:06:47			0	38218	0	0	0	23584	22170	159044	27246	1059910	46478	108695	0	0	8196	550441	0	0
2024-09-25 23:07:47			0	38198	0	0	0	23571	22170	159112	27235	1059937	46500	108690	0	0	8195	551225	0	0
2024-09-25 23:08:47			0	38196	0	0	0	23574	22160	159232	27305	1059901	46476	108691	0	0	8195	551335	0	0
2024-09-25 23:09:47			0	38199	0	0	0	23576	22160	159168	27362	1059901	46476	108692	0	0	8195	551217	0	0
2024-09-25 23:10:47			0	38214	0	0	0	23576	22180	159148	27379	1059955	46478	108692	0	0	8196	550567	0	0
2024-09-25 23:11:47			0	38211	0	0	0	23579	22160	159040	27569	1059946	46475	108693	0	0	8196	550746	0	0
2024-09-25 23:12:47			0	38191	0	0	0	23571	22160	159076	27329	1059919	46475	108690	0	0	8195	551531	0	0
2024-09-25 23:13:47			0	38190	0	0	0	23576	22160	159120	27367	1059972	46487	108692	0	0	8195	551570	0	0
2024-09-25 23:14:47			0	38203	0	0	0	23574	22160	159136	27050	1059892	46464	108691	0	0	8195	551060	0	0
2024-09-25 23:15:47			0	38221	0	0	0	23579	22170	159104	27334	1059884	46489	108693	0	0	8196	550323	0	0
2024-09-25 23:16:47			0	38203	0	0	0	23563	22160	159088	27386	1059901	46476	108687	0	0	8196	551060	0	0
2024-09-25 23:17:47			0	38203	0	0	0	23563	22150	159080	27360	1059883	46487	108687	0	0	8196	551091	0	0
2024-09-25 23:18:47			0	38183	0	0	0	23566	22160	159224	27171	1059866	46475	108688	0	0	8194	551845	0	0
2024-09-25 23:19:47			0	38184	0	0	0	23558	22150	159228	27234	1059821	46487	108685	0	0	8195	551837	0	0
2024-09-25 23:20:47			0	38206	0	0	0	23568	22150	159120	27362	1059883	46464	108689	0	0	8196	550973	0	0
2024-09-25 23:21:47			0	38206	0	0	0	23571	22150	159252	27220	1059848	46487	108690	0	0	8196	550973	0	0
2024-09-25 23:22:47			0	38198	0	0	0	23561	22150	159152	27460	1059848	46464	108686	0	0	8195	551287	0	0
2024-09-25 23:23:47			0	38179	0	0	0	23561	22140	159136	27538	1059785	46475	108686	0	0	8194	552064	0	0
2024-09-25 23:24:47			0	38193	0	0	0	23561	22150	159116	27405	1059857	46508	108686	0	0	8195	551483	0	0
2024-09-25 23:25:47			0	38190	0	0	0	23558	22160	159164	27312	1059812	46475	108685	0	0	8195	551570	0	0
2024-09-25 23:26:47			0	38168	0	0	0	23548	22140	159184	27434	1059839	46475	108681	0	0	8194	552496	0	0
2024-09-25 23:27:47			0	38180	0	0	0	23548	22150	159100	27209	1059741	46487	108681	0	0	8194	551994	0	0
2024-09-25 23:28:47			0	38202	0	0	0	23550	22150	159200	27249	1059768	46498	108682	0	0	8196	551130	0	0
2024-09-25 23:29:47			0	38207	0	0	0	23561	22140	159180	27504	1059812	46463	108686	0	0	8196	550965	0	0
2024-09-25 23:30:47			0	38200	0	0	0	23558	22140	159104	27556	1059839	46486	108685	0	0	8195	551239	0	0
2024-09-25 23:31:47			0	38174	0	0	0	23558	22140	159204	27445	1059785	46453	108685	0	0	8194	552260	0	0
2024-09-25 23:32:47			0	38166	0	0	0	23550	22140	159268	27196	1059812	46486	108682	0	0	8194	552575	0	0
2024-09-25 23:33:47			0	38164	0	0	0	23545	22150	159360	27310	1059794	46487	108680	0	0	8194	552622	0	0
2024-09-25 23:34:47			0	38165	0	0	0	23558	22130	159344	27621	1059741	46474	108685	0	0	8193	552645	0	0
2024-09-25 23:35:47			0	38142	0	0	0	23550	22140	159428	27326	1059830	46485	108682	0	0	8192	553519	0	0
2024-09-25 23:36:47			0	38143	0	0	0	23542	22140	159444	27334	1059776	46496	108679	0	0	8192	553479	0	0
2024-09-25 23:37:47			0	38145	0	0	0	23548	22130	159464	27367	1059821	46474	108681	0	0	8192	553431	0	0
2024-09-25 23:38:47			0	38139	0	0	0	23555	22140	159404	26961	1059803	46474	108684	0	0	8192	553636	0	0
2024-09-25 23:39:47			0	38140	0	0	0	23553	22130	159492	27346	1059767	46462	108683	0	0	8192	553628	0	0
2024-09-25 23:40:47			0	38143	0	0	0	23558	22130	159592	27190	1059794	46485	108685	0	0	8192	553510	0	0
2024-09-25 23:41:47			0	38143	0	0	0	23545	22130	159488	26932	1059741	46496	108680	0	0	8192	553510	0	0
2024-09-25 23:42:47			0	38163	0	0	0	23550	22130	159360	27291	1059741	46496	108682	0	0	8193	552723	0	0
2024-09-25 23:43:47			0	38162	0	0	0	23548	22130	159408	27333	1059785	46474	108681	0	0	8193	552763	0	0
2024-09-25 23:44:47			0	38165	0	0	0	23542	22130	159384	27538	1059767	46496	108679	0	0	8194	552645	0	0
2024-09-25 23:45:47			0	38173	0	0	0	23553	22140	159232	27343	1059776	46485	108683	0	0	8194	552300	0	0
2024-09-25 23:46:47			0	38179	0	0	0	23542	22130	159412	27352	1059767	46474	108679	0	0	8194	552095	0	0
2024-09-25 23:47:47			0	38154	0	0	0	23548	22140	159392	27457	1059723	46462	108681	0	0	8193	553046	0	0
2024-09-25 23:48:47			0	38158	0	0	0	23545	22120	159432	27261	1059750	46484	108680	0	0	8193	552951	0	0
2024-09-25 23:49:47			0	38160	0	0	0	23537	22130	159308	27300	1059758	46474	108677	0	0	8193	552841	0	0
2024-09-25 23:50:47			0	38155	0	0	0	23535	22130	159344	27059	1059714	46462	108676	0	0	8193	553038	0	0
2024-09-25 23:51:47			0	38170	0	0	0	23540	22120	159392	27104	1059687	46483	108678	0	0	8194	552479	0	0
2024-09-25 23:52:47			0	38145	0	0	0	23542	22130	159396	27222	1059785	46474	108679	0	0	8192	553431	0	0
2024-09-25 23:53:47			0	38155	0	0	0	23542	22120	159472	27267	1059803	46472	108679	0	0	8193	553069	0	0
2024-09-25 23:54:47			0	38126	0	0	0	23548	22130	159532	27528	1059714	46485	108681	0	0	8191	554179	0	0
2024-09-25 23:55:47			0	38129	0	0	0	23540	22120	159568	27334	1059723	46495	108678	0	0	8191	554092	0	0
2024-09-25 23:56:47			0	38094	0	0	0	23537	22120	159584	27426	1059750	46495	108677	0	0	8190	555471	0	0
2024-09-25 23:57:47			0	38109	0	0	0	23540	22120	159668	27287	1059723	46472	108678	0	0	8190	554880	0	0
2024-09-25 23:58:47			0	38080	0	0	0	23527	22110	159680	27346	1059678	46482	108673	0	0	8189	556054	0	0
2024-09-25 23:59:47			0	38090	0	0	0	23537	22130	159676	27216	1059732	46485	108677	0	0	8189	555598	0	0
2024-09-26 00:00:47			0	38076	0	0	0	23522	22120	159724	27076	1059741	46460	108671	0	0	8189	556181	0	0
2024-09-26 00:01:47			0	38063	0	0	0	23524	22120	159776	27177	1059723	46472	108672	0	0	8188	556694	0	0
2024-09-26 00:02:47			0	38058	0	0	0	23522	22120	159876	27249	1059750	46484	108671	0	0	8188	556892	0	0
2024-09-26 00:03:47			0	38066	0	0	0	23524	22120	159660	27111	1059687	46471	108672	0	0	8188	556576	0	0
2024-09-26 00:04:47			0	38074	0	0	0	23529	22110	159652	27197	1059678	46493	108674	0	0	8188	556291	0	0
2024-09-26 00:05:47			0	38054	0	0	0	23535	22110	159832	27447	1059705	46459	108676	0	0	8187	557081	0	0
2024-09-26 00:06:47			0	38038	0	0	0	23532	22110	159808	27206	1059652	46493	108675	0	0	8186	557713	0	0
2024-09-26 00:07:47			0	38037	0	0	0	23522	22120	159900	27419	1059687	46483	108671	0	0	8186	557722	0	0
2024-09-26 00:08:47			0	38033	0	0	0	23524	22110	159920	27402	1059705	46470	108672	0	0	8186	557911	0	0
2024-09-26 00:09:47			0	38030	0	0	0	23529	22110	159955	27303	1059616	46493	108674	0	0	8186	558030	0	0
2024-09-26 00:10:47			0	38052	0	0	0	23524	22110	159944	27306	1059678	46470	108672	0	0	8187	557160	0	0
2024-09-26 00:11:47			0	38033	0	0	0	23540	22090	159868	27495	1059696	46480	108678	0	0	8186	557973	0	0
2024-09-26 00:12:47			0	38041	0	0	0	23537	22100	159976	27326	1059678	46469	108677	0	0	8186	557626	0	0
2024-09-26 00:13:47			0	38009	0	0	0	23527	22110	160071	27234	1059696	46493	108673	0	0	8185	558861	0	0
2024-09-26 00:14:47			0	38003	0	0	0	23540	22110	160035	27352	1059732	46482	108678	0	0	8184	559098	0	0
2024-09-26 00:15:47			0	37994	0	0	0	23532	22110	159983	27043	1059669	46493	108675	0	0	8184	559455	0	0
2024-09-26 00:16:47			0	37985	0	0	0	23537	22110	160083	27199	1059723	46459	108677	0	0	8183	559811	0	0
2024-09-26 00:17:47			0	37985	0	0	0	23537	22110	160151	27474	1059732	46459	108677	0	0	8183	559811	0	0
2024-09-26 00:18:47			0	37980	0	0	0	23537	22110	160099	27133	1059705	46482	108677	0	0	8183	560009	0	0
2024-09-26 00:19:47			0	37982	0	0	0	23532	22110	160143	27310	1059705	46482	108675	0	0	8183	559930	0	0
2024-09-26 00:20:47			0	37975	0	0	0	23542	22110	160199	27296	1059678	46470	108679	0	0	8182	560208	0	0
2024-09-26 00:21:47			0	37984	0	0	0	23524	22110	160131	27416	1059678	46482	108672	0	0	8183	559851	0	0
2024-09-26 00:22:47			0	37965	0	0	0	23522	22110	160223	27157	1059732	46503	108671	0	0	8182	560604	0	0
2024-09-26 00:23:47			0	37946	0	0	0	23527	22120	160311	27275	1059696	46472	108673	0	0	8181	561327	0	0
2024-09-26 00:24:47			0	37940	0	0	0	23532	22110	160291	27001	1059669	46470	108675	0	0	8181	561596	0	0
2024-09-26 00:25:47			0	37931	0	0	0	23537	22110	160287	27187	1059705	46470	108677	0	0	8180	561954	0	0
2024-09-26 00:26:47			0	37940	0	0	0	23532	22110	160291	27545	1059705	46493	108675	0	0	8181	561596	0	0
2024-09-26 00:27:47			0	37914	0	0	0	23540	22120	160243	27509	1059741	46471	108678	0	0	8179	562598	0	0
2024-09-26 00:28:47			0	37945	0	0	0	23542	22110	160243	27338	1059669	46470	108679	0	0	8181	561398	0	0
2024-09-26 00:29:47			0	37940	0	0	0	23537	22110	160311	27116	1059732	46470	108677	0	0	8180	561596	0	0
2024-09-26 00:30:47			0	37956	0	0	0	23535	22110	160323	27163	1059758	46470	108676	0	0	8181	560961	0	0
2024-09-26 00:31:47			0	37931	0	0	0	23532	22110	160395	27542	1059652	46482	108675	0	0	8180	561954	0	0
2024-09-26 00:32:47			0	37916	0	0	0	23532	22120	160235	27159	1059767	46494	108675	0	0	8179	562518	0	0
2024-09-26 00:33:47			0	37927	0	0	0	23535	22100	160307	27156	1059678	46481	108676	0	0	8180	562144	0	0
2024-09-26 00:34:47			0	37915	0	0	0	23532	22110	160535	27424	1059678	46482	108675	0	0	8179	562589	0	0
2024-09-26 00:35:47			0	37908	0	0	0	23524	22120	160483	27203	1059661	46471	108672	0	0	8179	562836	0	0
2024-09-26 00:36:47			0	37893	0	0	0	23527	22100	160391	27114	1059651	46469	108673	0	0	8178	563496	0	0
2024-09-26 00:37:47			0	37920	0	0	0	23535	22110	160391	27492	1059652	46493	108676	0	0	8179	562391	0	0
2024-09-26 00:38:47			0	37917	0	0	0	23537	22110	160343	27216	1059643	46482	108677	0	0	8179	562510	0	0
2024-09-26 00:39:47			0	37920	0	0	0	23527	22110	160359	27066	1059705	46470	108673	0	0	8179	562391	0	0
2024-09-26 00:40:47			0	37916	0	0	0	23532	22110	160331	27135	1059669	46482	108675	0	0	8179	562550	0	0
2024-09-26 00:41:47			0	37903	0	0	0	23532	22110	160403	27145	1059732	46470	108675	0	0	8178	563067	0	0
2024-09-26 00:42:47			0	37907	0	0	0	23535	22110	160303	27287	1059705	46459	108676	0	0	8179	562907	0	0
2024-09-26 00:43:47			0	37914	0	0	0	23535	22110	160387	27010	1059705	46503	108676	0	0	8179	562629	0	0
2024-09-26 00:44:47			0	37934	0	0	0	23519	22110	160299	27029	1059678	46470	108670	0	0	8180	561835	0	0
2024-09-26 00:45:47			0	37933	0	0	0	23527	22110	160263	27312	1059705	46482	108673	0	0	8180	561874	0	0
2024-09-26 00:46:47			0	37930	0	0	0	23527	22110	160251	27267	1059696	46470	108673	0	0	8180	561993	0	0
2024-09-26 00:47:47			0	37953	0	0	0	23532	22110	160271	27079	1059723	46482	108675	0	0	8181	561080	0	0
2024-09-26 00:48:47			0	37936	0	0	0	23527	22110	160251	27164	1059705	46470	108673	0	0	8180	561755	0	0
2024-09-26 00:49:47			0	37923	0	0	0	23522	22100	160327	27041	1059651	46492	108671	0	0	8180	562303	0	0
2024-09-26 00:50:47			0	37935	0	0	0	23529	22100	160407	27048	1059625	46481	108674	0	0	8180	561826	0	0
2024-09-26 00:51:47			0	37927	0	0	0	23527	22120	160303	26899	1059661	46471	108673	0	0	8180	562081	0	0
2024-09-26 00:52:47			0	37930	0	0	0	23519	22120	160379	27552	1059714	46471	108670	0	0	8180	561962	0	0
2024-09-26 00:53:47			0	37940	0	0	0	23537	22110	160259	26840	1059696	46482	108677	0	0	8180	561596	0	0
2024-09-26 00:54:47			0	37934	0	0	0	23527	22110	160283	27403	1059696	46470	108673	0	0	8180	561835	0	0
2024-09-26 00:55:47			0	37959	0	0	0	23532	22110	160207	26987	1059643	46470	108675	0	0	8182	560842	0	0
2024-09-26 00:56:47			0	37970	0	0	0	23524	22110	160067	27178	1059598	46470	108672	0	0	8182	560406	0	0
2024-09-26 00:57:47			0	37995	0	0	0	23519	22120	160035	27327	1059661	46494	108670	0	0	8184	559384	0	0
2024-09-26 00:58:47			0	38013	0	0	0	23516	22090	159871	27222	1059642	46480	108669	0	0	8185	558764	0	0
2024-09-26 00:59:47			0	38039	0	0	0	23522	22090	159816	27263	1059642	46480	108671	0	0	8186	557736	0	0
2024-09-26 01:00:47			0	38043	0	0	0	23522	22100	159884	26807	1059634	46493	108671	0	0	8187	557547	0	0
2024-09-26 01:01:47			0	38051	0	0	0	23519	22110	159724	27175	1059643	46470	108670	0	0	8187	557200	0	0
2024-09-26 01:02:47			0	38058	0	0	0	23511	22110	159760	26887	1059616	46470	108667	0	0	8188	556923	0	0
2024-09-26 01:03:47			0	38065	0	0	0	23516	22100	159816	26965	1059598	46481	108669	0	0	8188	556677	0	0
2024-09-26 01:04:47			0	38029	0	0	0	23516	22100	159860	27183	1059625	46481	108669	0	0	8186	558100	0	0
2024-09-26 01:05:47			0	38015	0	0	0	23516	22090	159967	27225	1059669	46468	108669	0	0	8185	558685	0	0
2024-09-26 01:06:47			0	38002	0	0	0	23509	22110	159943	26793	1059616	46470	108666	0	0	8185	559138	0	0
2024-09-26 01:07:47			0	37995	0	0	0	23514	22090	160175	27216	1059589	46480	108668	0	0	8184	559477	0	0
2024-09-26 01:08:47			0	37965	0	0	0	23503	22090	160207	26896	1059616	46480	108664	0	0	8182	560667	0	0
2024-09-26 01:09:47			0	37950	0	0	0	23509	22080	160203	27119	1059598	46491	108666	0	0	8181	561293	0	0
2024-09-26 01:10:47			0	37957	0	0	0	23503	22080	160203	27166	1059598	46468	108664	0	0	8182	561015	0	0
2024-09-26 01:11:47			0	37968	0	0	0	23506	22090	160195	27176	1059616	46468	108665	0	0	8183	560548	0	0
2024-09-26 01:12:47			0	37968	0	0	0	23506	22090	160127	26982	1059589	46468	108665	0	0	8183	560548	0	0
2024-09-26 01:13:47			0	37969	0	0	0	23501	22090	160131	27296	1059607	46480	108663	0	0	8183	560508	0	0
2024-09-26 01:14:47			0	37960	0	0	0	23501	22080	160139	27281	1059571	46491	108663	0	0	8182	560896	0	0
2024-09-26 01:15:47			0	37964	0	0	0	23503	22090	160199	27197	1059527	46468	108664	0	0	8182	560706	0	0
2024-09-26 01:16:47			0	37967	0	0	0	23498	22090	160135	26885	1059562	46480	108662	0	0	8183	560587	0	0
2024-09-26 01:17:47			0	37961	0	0	0	23490	22090	160163	27391	1059527	46468	108659	0	0	8182	560825	0	0
2024-09-26 01:18:47			0	37969	0	0	0	23501	22090	160215	26726	1059607	46458	108663	0	0	8183	560508	0	0
2024-09-26 01:19:47			0	37954	0	0	0	23498	22090	160223	27017	1059527	46468	108662	0	0	8182	561103	0	0
2024-09-26 01:20:47			0	37960	0	0	0	23503	22080	160247	27384	1059589	46479	108664	0	0	8182	560896	0	0
2024-09-26 01:21:47			0	37927	0	0	0	23498	22080	160235	27194	1059545	46458	108662	0	0	8180	562207	0	0
2024-09-26 01:22:47			0	37945	0	0	0	23501	22070	160343	27381	1059526	46489	108663	0	0	8181	561523	0	0
2024-09-26 01:23:47			0	37927	0	0	0	23490	22080	160339	27107	1059536	46467	108659	0	0	8180	562207	0	0
2024-09-26 01:24:47			0	37904	0	0	0	23488	22080	160515	26915	1059545	46468	108658	0	0	8179	563121	0	0
2024-09-26 01:25:47			0	37890	0	0	0	23488	22080	160523	27185	1059545	46468	108658	0	0	8178	563678	0	0
2024-09-26 01:26:47			0	37885	0	0	0	23488	22070	160471	26981	1059526	46466	108658	0	0	8178	563909	0	0
2024-09-26 01:27:47			0	37880	0	0	0	23488	22080	160695	27164	1059509	46479	108658	0	0	8178	564076	0	0
2024-09-26 01:28:47			0	37859	0	0	0	23488	22070	160643	27178	1059500	46489	108658	0	0	8176	564944	0	0
2024-09-26 01:29:47			0	37860	0	0	0	23477	22060	160631	27168	1059455	46466	108654	0	0	8177	564936	0	0
2024-09-26 01:30:47			0	37861	0	0	0	23483	22070	160563	27248	1059500	46466	108656	0	0	8177	564865	0	0
2024-09-26 01:31:47			0	37875	0	0	0	23485	22070	160635	26956	1059553	46489	108657	0	0	8177	564307	0	0
2024-09-26 01:32:47			0	37839	0	0	0	23483	22070	160711	26961	1059500	46478	108656	0	0	8175	565742	0	0
2024-09-26 01:33:47			0	37865	0	0	0	23488	22070	160639	27213	1059464	46466	108658	0	0	8177	564705	0	0
2024-09-26 01:34:47			0	37854	0	0	0	23475	22080	160651	27026	1059536	46457	108653	0	0	8176	565112	0	0
2024-09-26 01:35:47			0	37856	0	0	0	23488	22070	160719	27371	1059464	46456	108658	0	0	8176	565064	0	0
2024-09-26 01:36:47			0	37899	0	0	0	23485	22070	160607	27107	1059491	46466	108657	0	0	8179	563351	0	0
2024-09-26 01:37:47			0	37891	0	0	0	23485	22070	160487	27306	1059517	46466	108657	0	0	8178	563670	0	0
2024-09-26 01:38:47			0	37915	0	0	0	23485	22060	160363	27182	1059446	46488	108657	0	0	8180	562746	0	0
2024-09-26 01:39:47			0	37919	0	0	0	23490	22070	160407	27251	1059571	46478	108659	0	0	8180	562556	0	0
2024-09-26 01:40:47			0	37919	0	0	0	23498	22080	160479	27268	1059562	46467	108662	0	0	8180	562525	0	0
2024-09-26 01:41:47			0	37926	0	0	0	23485	22060	160403	27003	1059499	46477	108657	0	0	8180	562309	0	0
2024-09-26 01:42:47			0	37929	0	0	0	23493	22070	160423	27216	1059526	46466	108660	0	0	8180	562159	0	0
2024-09-26 01:43:47			0	37925	0	0	0	23485	22070	160491	27005	1059464	46489	108657	0	0	8180	562317	0	0
2024-09-26 01:44:47			0	37882	0	0	0	23485	22060	160455	27216	1059482	46478	108657	0	0	8178	564060	0	0
2024-09-26 01:45:47			0	37884	0	0	0	23483	22060	160599	26703	1059508	46478	108656	0	0	8178	563980	0	0
2024-09-26 01:46:47			0	37858	0	0	0	23485	22060	160647	27194	1059482	46466	108657	0	0	8176	565016	0	0
2024-09-26 01:47:47			0	37859	0	0	0	23472	22060	160735	27223	1059473	46477	108652	0	0	8177	564976	0	0
2024-09-26 01:48:47			0	37836	0	0	0	23472	22060	160771	27509	1059482	46478	108652	0	0	8175	565893	0	0
2024-09-26 01:49:47			0	37836	0	0	0	23475	22060	160803	27187	1059499	46477	108653	0	0	8175	565893	0	0
2024-09-26 01:50:47			0	37841	0	0	0	23477	22060	160699	27274	1059428	46456	108654	0	0	8175	565694	0	0
2024-09-26 01:51:47			0	37829	0	0	0	23488	22060	160723	27244	1059526	46488	108658	0	0	8175	566173	0	0
2024-09-26 01:52:47			0	37850	0	0	0	23480	22060	160759	27312	1059455	46478	108655	0	0	8176	565335	0	0
2024-09-26 01:53:47			0	37864	0	0	0	23477	22060	160719	27208	1059419	46477	108654	0	0	8177	564777	0	0
2024-09-26 01:54:47			0	37858	0	0	0	23477	22060	160763	26946	1059428	46478	108654	0	0	8176	565016	0	0
2024-09-26 01:55:47			0	37897	0	0	0	23470	22060	160539	27057	1059428	46489	108651	0	0	8179	563462	0	0
2024-09-26 01:56:47			0	37920	0	0	0	23464	22060	160479	27459	1059455	46466	108649	0	0	8180	562548	0	0
2024-09-26 01:57:47			0	37907	0	0	0	23464	22060	160511	27017	1059366	46477	108649	0	0	8180	563064	0	0
2024-09-26 01:58:47			0	37882	0	0	0	23467	22040	160579	27353	1059472	46463	108650	0	0	8178	564122	0	0
2024-09-26 01:59:47			0	37869	0	0	0	23464	22050	160707	27048	1059401	46486	108649	0	0	8177	564609	0	0
2024-09-26 02:00:47			0	37853	0	0	0	23457	22050	160723	27064	1059463	46454	108646	0	0	8176	565247	0	0
2024-09-26 02:01:47			0	37830	0	0	0	23464	22060	160707	27216	1059419	46465	108649	0	0	8175	566133	0	0
2024-09-26 02:02:47			0	37821	0	0	0	23459	22050	160935	27013	1059401	46475	108647	0	0	8175	566524	0	0
2024-09-26 02:03:47			0	37799	0	0	0	23444	22040	160983	27201	1059339	46442	108641	0	0	8173	567434	0	0
2024-09-26 02:04:47			0	37775	0	0	0	23444	22040	161159	27263	1059383	46475	108641	0	0	8172	568394	0	0
2024-09-26 02:05:47			0	37741	0	0	0	23444	22050	161223	27261	1059428	46463	108641	0	0	8170	569724	0	0
2024-09-26 02:06:47			0	37727	0	0	0	23441	22040	161367	27015	1059365	46463	108640	0	0	8169	570317	0	0
2024-09-26 02:07:47			0	37733	0	0	0	23444	22040	161291	27072	1059330	46463	108641	0	0	8170	570077	0	0
2024-09-26 02:08:47			0	37702	0	0	0	23431	22040	161479	27320	1059339	46453	108636	0	0	8168	571321	0	0
2024-09-26 02:09:47			0	37676	0	0	0	23433	22030	161435	27185	1059268	46474	108637	0	0	8166	572397	0	0
2024-09-26 02:10:47			0	37646	0	0	0	23431	22030	161567	26906	1059294	46452	108636	0	0	8165	573604	0	0
2024-09-26 02:11:47			0	37629	0	0	0	23431	22030	161751	27066	1059205	46473	108636	0	0	8164	574288	0	0
2024-09-26 02:12:47			0	37619	0	0	0	23436	22030	161775	27301	1059259	46461	108638	0	0	8163	574691	0	0
2024-09-26 02:13:47			0	37622	0	0	0	23433	22030	161755	27341	1059268	46474	108637	0	0	8163	574571	0	0
2024-09-26 02:14:47			0	37631	0	0	0	23444	22030	161799	26994	1059241	46462	108641	0	0	8163	574208	0	0
2024-09-26 02:15:47			0	37665	0	0	0	23436	22020	161743	26996	1059330	46451	108638	0	0	8166	572871	0	0
2024-09-26 02:16:47			0	37684	0	0	0	23433	22020	161487	27234	1059250	46495	108637	0	0	8167	572108	0	0
2024-09-26 02:17:47			0	37690	0	0	0	23438	22020	161551	27282	1059250	46451	108639	0	0	8167	571866	0	0
2024-09-26 02:18:47			0	37682	0	0	0	23441	22020	161459	27012	1059223	46473	108640	0	0	8166	572188	0	0
2024-09-26 02:19:47			0	37704	0	0	0	23431	22010	161451	26727	1059178	46460	108636	0	0	8168	571336	0	0
2024-09-26 02:20:47			0	37711	0	0	0	23436	22030	161419	27005	1059232	46451	108638	0	0	8168	570991	0	0
2024-09-26 02:21:47			0	37708	0	0	0	23438	22020	161443	27105	1059303	46473	108639	0	0	8168	571143	0	0
2024-09-26 02:22:47			0	37720	0	0	0	23431	22010	161363	27220	1059205	46472	108636	0	0	8169	570694	0	0
2024-09-26 02:23:47			0	37704	0	0	0	23428	22020	161403	27209	1059214	46461	108635	0	0	8168	571304	0	0
2024-09-26 02:24:47			0	37658	0	0	0	23423	22020	161523	27296	1059161	46473	108633	0	0	8165	573153	0	0
2024-09-26 02:25:47			0	37628	0	0	0	23418	22020	161699	27376	1059187	46473	108631	0	0	8164	574361	0	0
2024-09-26 02:26:47			0	37585	0	0	0	23425	22020	161835	26868	1059223	46461	108634	0	0	8161	576095	0	0
2024-09-26 02:27:47			0	37564	0	0	0	23418	22010	162015	26882	1059169	46459	108631	0	0	8160	576975	0	0
2024-09-26 02:28:47			0	37549	0	0	0	23407	22010	161987	27074	1059116	46449	108627	0	0	8159	577582	0	0
2024-09-26 02:29:47			0	37508	0	0	0	23415	22010	162267	27194	1059152	46460	108630	0	0	8157	579241	0	0
2024-09-26 02:30:47			0	37489	0	0	0	23412	22010	162423	27334	1059178	46460	108629	0	0	8156	580011	0	0
2024-09-26 02:31:47			0	37469	0	0	0	23405	22000	162455	27400	1059134	46471	108626	0	0	8154	580855	0	0
2024-09-26 02:32:47			0	37450	0	0	0	23402	21990	162635	27149	1059125	46471	108625	0	0	8153	581659	0	0
2024-09-26 02:33:47			0	37427	0	0	0	23407	22000	162595	27130	1059134	46449	108627	0	0	8152	582561	0	0
2024-09-26 02:34:47			0	37382	0	0	0	23405	22000	162775	27294	1059160	46471	108626	0	0	8149	584393	0	0
2024-09-26 02:35:47			0	37368	0	0	0	23410	21990	162919	27275	1059125	46482	108628	0	0	8148	584996	0	0
2024-09-26 02:36:47			0	37359	0	0	0	23410	21990	162927	27064	1059036	46470	108628	0	0	8148	585363	0	0
2024-09-26 02:37:47			0	37346	0	0	0	23405	21990	162955	27067	1059116	46470	108626	0	0	8147	585894	0	0
2024-09-26 02:38:47			0	37309	0	0	0	23405	21980	163030	27358	1059125	46467	108626	0	0	8145	587438	0	0
2024-09-26 02:39:47			0	37292	0	0	0	23399	21980	163182	27481	1059054	46447	108624	0	0	8144	588134	0	0
2024-09-26 02:40:47			0	37276	0	0	0	23394	21980	163314	27145	1059107	46458	108622	0	0	8143	588789	0	0
2024-09-26 02:41:47			0	37243	0	0	0	23394	21980	163394	27225	1059098	46457	108622	0	0	8141	590141	0	0
2024-09-26 02:42:47			0	37211	0	0	0	23394	21980	163554	27107	1059054	46458	108622	0	0	8139	591455	0	0
2024-09-26 02:43:47			0	37176	0	0	0	23392	21980	163658	27286	1059045	46446	108621	0	0	8137	592893	0	0
2024-09-26 02:44:47			0	37140	0	0	0	23386	21980	163822	27307	1059045	46446	108619	0	0	8135	594376	0	0
2024-09-26 02:45:47			0	37129	0	0	0	23379	21970	163850	27196	1058947	46467	108616	0	0	8135	594862	0	0
2024-09-26 02:46:47			0	37106	0	0	0	23384	21970	163978	27275	1058947	46457	108618	0	0	8133	595811	0	0
2024-09-26 02:47:47			0	37112	0	0	0	23389	21980	163986	27253	1059054	46458	108620	0	0	8133	595530	0	0
2024-09-26 02:48:47			0	37108	0	0	0	23384	21970	164058	27267	1059036	46457	108618	0	0	8133	595728	0	0
2024-09-26 02:49:47			0	37081	0	0	0	23384	21970	164098	27365	1058982	46467	108618	0	0	8132	596843	0	0
2024-09-26 02:50:47			0	37038	0	0	0	23366	21970	164290	27391	1059009	46446	108611	0	0	8129	598622	0	0
2024-09-26 02:51:47			0	37001	0	0	0	23379	21980	164366	27403	1059045	46457	108616	0	0	8127	600122	0	0
2024-09-26 02:52:47			0	36997	0	0	0	23381	21960	164470	27222	1058938	46445	108617	0	0	8127	600355	0	0
2024-09-26 02:53:47			0	37000	0	0	0	23379	21960	164622	27554	1059018	46445	108616	0	0	8127	600230	0	0
2024-09-26 02:54:47			0	36966	0	0	0	23373	21950	164606	27346	1058947	46477	108614	0	0	8125	601675	0	0
2024-09-26 02:55:47			0	36943	0	0	0	23366	21950	164794	27142	1058947	46466	108611	0	0	8124	602631	0	0
2024-09-26 02:56:47			0	36921	0	0	0	23371	21950	164778	27512	1059000	46477	108613	0	0	8122	603547	0	0
2024-09-26 02:57:47			0	36909	0	0	0	23368	21960	164898	27286	1058955	46466	108612	0	0	8121	604013	0	0
2024-09-26 02:58:47			0	36881	0	0	0	23361	21960	165030	27248	1058955	46455	108609	0	0	8120	605180	0	0
2024-09-26 02:59:47			0	36888	0	0	0	23361	21960	164994	27428	1058955	46444	108609	0	0	8120	604888	0	0
2024-09-26 03:00:47			0	36867	0	0	0	23363	21950	165106	27369	1058937	46466	108610	0	0	8119	605798	0	0
2024-09-26 03:01:47			0	36870	0	0	0	23363	21940	165074	27135	1058893	46463	108610	0	0	8119	605707	0	0
2024-09-26 03:02:47			0	36834	0	0	0	23353	21960	165126	27020	1058929	46444	108606	0	0	8117	607143	0	0
2024-09-26 03:03:47			0	36836	0	0	0	23353	21950	165194	27124	1058866	46477	108606	0	0	8117	607093	0	0
2024-09-26 03:04:47			0	36827	0	0	0	23348	21940	165206	27428	1058866	46463	108604	0	0	8117	607503	0	0
2024-09-26 03:05:47			0	36794	0	0	0	23332	21940	165262	27072	1058875	46443	108598	0	0	8115	608884	0	0
2024-09-26 03:06:47			0	36809	0	0	0	23345	21940	165430	27407	1058839	46453	108603	0	0	8116	608256	0	0
2024-09-26 03:07:47			0	36771	0	0	0	23348	21930	165446	27145	1058875	46463	108604	0	0	8113	609882	0	0
2024-09-26 03:08:47			0	36779	0	0	0	23337	21930	165562	27296	1058830	46453	108600	0	0	8114	609547	0	0
2024-09-26 03:09:47			0	36767	0	0	0	23350	21930	165482	27053	1058777	46453	108605	0	0	8113	610050	0	0
2024-09-26 03:10:47			0	36777	0	0	0	23345	21930	165398	27159	1058830	46463	108603	0	0	8114	609630	0	0
2024-09-26 03:11:47			0	36769	0	0	0	23340	21920	165486	27152	1058839	46474	108601	0	0	8113	610000	0	0
2024-09-26 03:12:47			0	36762	0	0	0	23335	21930	165570	27301	1058768	46453	108599	0	0	8113	610259	0	0
2024-09-26 03:13:47			0	36756	0	0	0	23353	21930	165510	26913	1058821	46463	108606	0	0	8112	610511	0	0
2024-09-26 03:14:47			0	36775	0	0	0	23345	21920	165378	26913	1058857	46451	108603	0	0	8114	609748	0	0
2024-09-26 03:15:47			0	36760	0	0	0	23319	21940	165502	27104	1058759	46463	108593	0	0	8113	610309	0	0
2024-09-26 03:16:47			0	36741	0	0	0	23324	21930	165630	27114	1058768	46453	108595	0	0	8112	611141	0	0
2024-09-26 03:17:47			0	36727	0	0	0	23311	21920	165726	27204	1058732	46462	108590	0	0	8111	611763	0	0
2024-09-26 03:18:47			0	36721	0	0	0	23309	21920	165662	27284	1058723	46461	108589	0	0	8111	612015	0	0
2024-09-26 03:19:47			0	36704	0	0	0	23309	21910	165722	27206	1058679	46460	108589	0	0	8110	612764	0	0
2024-09-26 03:20:47			0	36671	0	0	0	23296	21910	165806	27000	1058626	46450	108584	0	0	8108	614153	0	0
2024-09-26 03:21:47			0	36701	0	0	0	23303	21900	165822	27268	1058608	46449	108587	0	0	8110	612924	0	0
2024-09-26 03:22:47			0	36694	0	0	0	23285	21900	165778	27357	1058608	46459	108580	0	0	8110	613219	0	0
2024-09-26 03:23:47			0	36695	0	0	0	23290	21890	165794	27180	1058616	46448	108582	0	0	8110	613211	0	0
2024-09-26 03:24:47			0	36708	0	0	0	23293	21890	165694	27289	1058599	46437	108583	0	0	8110	612664	0	0
2024-09-26 03:25:47			0	36737	0	0	0	23283	21880	165610	27045	1058572	46447	108579	0	0	8112	611479	0	0
2024-09-26 03:26:47			0	36722	0	0	0	23285	21890	165726	27126	1058483	46448	108580	0	0	8111	612075	0	0
2024-09-26 03:27:47			0	36743	0	0	0	23285	21900	165518	27229	1058581	46449	108580	0	0	8113	611159	0	0
2024-09-26 03:28:47			0	36748	0	0	0	23290	21880	165550	27208	1058625	46458	108582	0	0	8113	611017	0	0
2024-09-26 03:29:47			0	36798	0	0	0	23293	21880	165334	27026	1058581	46448	108583	0	0	8116	608920	0	0
2024-09-26 03:30:47			0	36831	0	0	0	23280	21870	165198	26871	1058536	46457	108578	0	0	8118	607573	0	0
2024-09-26 03:31:47			0	36823	0	0	0	23280	21880	165274	26805	1058545	46458	108578	0	0	8117	607873	0	0
2024-09-26 03:32:47			0	36854	0	0	0	23288	21880	165202	27088	1058581	46458	108581	0	0	8119	606577	0	0
2024-09-26 03:33:47			0	36878	0	0	0	23283	21880	164986	26870	1058448	46448	108579	0	0	8121	605575	0	0
2024-09-26 03:34:47			0	36879	0	0	0	23277	21880	165042	27156	1058528	46458	108577	0	0	8121	605533	0	0
2024-09-26 03:35:47			0	36877	0	0	0	23270	21880	165038	26951	1058572	46447	108574	0	0	8121	605617	0	0
2024-09-26 03:36:47			0	36853	0	0	0	23272	21870	165082	26974	1058510	46435	108575	0	0	8119	606653	0	0
2024-09-26 03:37:47			0	36854	0	0	0	23262	21870	165066	27138	1058501	46446	108571	0	0	8120	606611	0	0
2024-09-26 03:38:47			0	36893	0	0	0	23254	21870	164958	27098	1058447	46435	108568	0	0	8122	604983	0	0
2024-09-26 03:39:47			0	36905	0	0	0	23249	21860	164866	27239	1058403	46456	108566	0	0	8123	604516	0	0
2024-09-26 03:40:47			0	36939	0	0	0	23246	21850	164782	27095	1058394	46433	108565	0	0	8125	603134	0	0
2024-09-26 03:41:47			0	36949	0	0	0	23244	21860	164702	27144	1058456	46423	108564	0	0	8126	602684	0	0
2024-09-26 03:42:47			0	36978	0	0	0	23241	21860	164502	27564	1058403	46456	108563	0	0	8127	601478	0	0
2024-09-26 03:43:47			0	36987	0	0	0	23254	21860	164614	26961	1058403	46434	108568	0	0	8128	601105	0	0
2024-09-26 03:44:47			0	36996	0	0	0	23244	21840	164562	27301	1058376	46443	108564	0	0	8128	600798	0	0
2024-09-26 03:45:47			0	36995	0	0	0	23244	21840	164562	27395	1058314	46443	108564	0	0	8128	600839	0	0
2024-09-26 03:46:47			0	37020	0	0	0	23241	21850	164470	27003	1058438	46444	108563	0	0	8130	599768	0	0
2024-09-26 03:47:47			0	37035	0	0	0	23241	21840	164338	27301	1058323	46443	108563	0	0	8131	599180	0	0
2024-09-26 03:48:47			0	37019	0	0	0	23244	21840	164374	27208	1058349	46443	108564	0	0	8130	599843	0	0
2024-09-26 03:49:47			0	37041	0	0	0	23225	21840	164302	27450	1058314	46443	108557	0	0	8131	598931	0	0
2024-09-26 03:50:47			0	37040	0	0	0	23228	21840	164326	27457	1058367	46465	108558	0	0	8131	598973	0	0
2024-09-26 03:51:47			0	37039	0	0	0	23233	21830	164302	27329	1058331	46442	108560	0	0	8131	599048	0	0
2024-09-26 03:52:47			0	37027	0	0	0	23233	21830	164290	27038	1058349	46442	108560	0	0	8130	599545	0	0
2024-09-26 03:53:47			0	37046	0	0	0	23228	21830	164286	27227	1058269	46442	108558	0	0	8131	598758	0	0
2024-09-26 03:54:47			0	37054	0	0	0	23223	21820	164306	27211	1058304	46430	108556	0	0	8132	598460	0	0
2024-09-26 03:55:47			0	37067	0	0	0	23223	21810	164194	27274	1058242	46429	108556	0	0	8133	597955	0	0
2024-09-26 03:56:47			0	37096	0	0	0	23223	21820	164150	27258	1058286	46441	108556	0	0	8134	596722	0	0
2024-09-26 03:57:47			0	37089	0	0	0	23220	21820	164174	27460	1058233	46452	108555	0	0	8134	597012	0	0
2024-09-26 03:58:47			0	37108	0	0	0	23212	21810	164066	27050	1058269	46440	108552	0	0	8135	596260	0	0
2024-09-26 03:59:47			0	37105	0	0	0	23223	21810	164110	27274	1058215	46462	108556	0	0	8135	596384	0	0
2024-09-26 04:00:47			0	37116	0	0	0	23220	21800	163922	27298	1058171	46428	108555	0	0	8136	595962	0	0
2024-09-26 04:01:47			0	37152	0	0	0	23212	21800	163966	27045	1058171	46439	108552	0	0	8138	594477	0	0
2024-09-26 04:02:47			0	37151	0	0	0	23215	21810	163946	27071	1058215	46451	108553	0	0	8138	594485	0	0
2024-09-26 04:03:47			0	37166	0	0	0	23207	21800	163958	26948	1058171	46439	108550	0	0	8139	593900	0	0
2024-09-26 04:04:47			0	37132	0	0	0	23210	21810	164026	27118	1058180	46439	108551	0	0	8137	595269	0	0
2024-09-26 04:05:47			0	37161	0	0	0	23207	21810	163894	27092	1058162	46440	108550	0	0	8139	594073	0	0
2024-09-26 04:06:47			0	37155	0	0	0	23192	21800	163846	27334	1058197	46428	108544	0	0	8138	594353	0	0
2024-09-26 04:07:47			0	37155	0	0	0	23194	21800	163870	27535	1058162	46449	108545	0	0	8138	594353	0	0
2024-09-26 04:08:47			0	37153	0	0	0	23202	21790	163766	27379	1058126	46438	108548	0	0	8138	594469	0	0
2024-09-26 04:09:47			0	37202	0	0	0	23205	21790	163694	27502	1058126	46449	108549	0	0	8141	592451	0	0
2024-09-26 04:10:47			0	37208	0	0	0	23205	21800	163594	27326	1058215	46427	108549	0	0	8141	592171	0	0
2024-09-26 04:11:47			0	37224	0	0	0	23205	21800	163542	27275	1058162	46449	108549	0	0	8142	591514	0	0
2024-09-26 04:12:47			0	37225	0	0	0	23194	21800	163578	27235	1058171	46439	108545	0	0	8143	591473	0	0
2024-09-26 04:13:47			0	37229	0	0	0	23189	21800	163514	27379	1058108	46438	108543	0	0	8143	591308	0	0
2024-09-26 04:14:47			0	37243	0	0	0	23199	21790	163422	27175	1058117	46459	108547	0	0	8144	590766	0	0
2024-09-26 04:15:47			0	37268	0	0	0	23189	21770	163318	27357	1058081	46435	108543	0	0	8145	589806	0	0
2024-09-26 04:16:47			0	37278	0	0	0	23186	21780	163374	27303	1058082	46448	108542	0	0	8146	589363	0	0
2024-09-26 04:17:47			0	37259	0	0	0	23199	21790	163374	27329	1058099	46449	108547	0	0	8144	590110	0	0
2024-09-26 04:18:47			0	37287	0	0	0	23189	21780	163378	27339	1058028	46459	108543	0	0	8146	588994	0	0
2024-09-26 04:19:47			0	37291	0	0	0	23197	21780	163262	27235	1058073	46425	108546	0	0	8146	588830	0	0
2024-09-26 04:20:47			0	37311	0	0	0	23189	21780	163210	27263	1058082	46437	108543	0	0	8148	588011	0	0
2024-09-26 04:21:47			0	37310	0	0	0	23184	21790	163250	27050	1058126	46427	108541	0	0	8148	588019	0	0
2024-09-26 04:22:47			0	37313	0	0	0	23194	21790	163210	27173	1058064	46437	108545	0	0	8148	587897	0	0
2024-09-26 04:23:47			0	37324	0	0	0	23197	21770	163055	27256	1058090	46447	108546	0	0	8148	587512	0	0
2024-09-26 04:24:47			0	37329	0	0	0	23194	21770	163083	27486	1058037	46447	108545	0	0	8149	587308	0	0
2024-09-26 04:25:47			0	37328	0	0	0	23179	21780	163163	27493	1058055	46437	108539	0	0	8149	587316	0	0
2024-09-26 04:26:47			0	37330	0	0	0	23181	21770	163131	27161	1057975	46435	108540	0	0	8149	587267	0	0
2024-09-26 04:27:47			0	37318	0	0	0	23181	21770	163151	27447	1058028	46446	108540	0	0	8148	587758	0	0
2024-09-26 04:28:47			0	37334	0	0	0	23184	21760	163059	27355	1058010	46456	108541	0	0	8149	587136	0	0
2024-09-26 04:29:47			0	37333	0	0	0	23199	21770	163123	27235	1058037	46425	108547	0	0	8149	587144	0	0
2024-09-26 04:30:47			0	37346	0	0	0	23189	21760	163095	26991	1058072	46446	108543	0	0	8150	586645	0	0
2024-09-26 04:31:47			0	37354	0	0	0	23197	21760	163107	27140	1058063	46445	108546	0	0	8150	586318	0	0
2024-09-26 04:32:47			0	37362	0	0	0	23176	21770	163019	27379	1058028	46435	108538	0	0	8151	585959	0	0
2024-09-26 04:33:47			0	37356	0	0	0	23176	21770	163079	27163	1058028	46446	108538	0	0	8151	586204	0	0
2024-09-26 04:34:47			0	37357	0	0	0	23174	21770	163063	27171	1058001	46446	108537	0	0	8151	586163	0	0
2024-09-26 04:35:47			0	37358	0	0	0	23171	21760	163207	27126	1057983	46434	108536	0	0	8151	586155	0	0
2024-09-26 04:36:47			0	37367	0	0	0	23181	21760	163139	27312	1058046	46424	108540	0	0	8151	585787	0	0
2024-09-26 04:37:47			0	37368	0	0	0	23181	21760	163007	27197	1058010	46434	108540	0	0	8151	585747	0	0
2024-09-26 04:38:47			0	37374	0	0	0	23186	21760	162915	27183	1058019	46446	108542	0	0	8151	585502	0	0
2024-09-26 04:39:47			0	37384	0	0	0	23176	21760	162991	27215	1058010	46445	108538	0	0	8152	585094	0	0
2024-09-26 04:40:47			0	37395	0	0	0	23189	21770	162903	27046	1058108	46458	108543	0	0	8153	584612	0	0
2024-09-26 04:41:47			0	37407	0	0	0	23202	21760	162883	26854	1058046	46424	108548	0	0	8153	584156	0	0
2024-09-26 04:42:47			0	37438	0	0	0	23197	21760	162883	26817	1058046	46458	108546	0	0	8155	582893	0	0
2024-09-26 04:43:47			0	37417	0	0	0	23174	21770	162871	27116	1058081	46446	108537	0	0	8154	583716	0	0
2024-09-26 04:44:47			0	37401	0	0	0	23174	21750	162795	27237	1058055	46434	108537	0	0	8153	584433	0	0
2024-09-26 04:45:47			0	37448	0	0	0	23197	21760	162731	27128	1058010	46434	108546	0	0	8156	582486	0	0
2024-09-26 04:46:47			0	37444	0	0	0	23181	21760	162655	27310	1058010	46434	108540	0	0	8156	582649	0	0
2024-09-26 04:47:47			0	37421	0	0	0	23184	21760	162823	27093	1058019	46435	108541	0	0	8154	583585	0	0
2024-09-26 04:48:47			0	37429	0	0	0	23184	21760	162735	27265	1058063	46445	108541	0	0	8155	583259	0	0
2024-09-26 04:49:47			0	37428	0	0	0	23189	21750	162771	27265	1057948	46423	108543	0	0	8154	583333	0	0
2024-09-26 04:50:47			0	37428	0	0	0	23189	21760	162675	27171	1057992	46424	108543	0	0	8155	583300	0	0
2024-09-26 04:51:47			0	37439	0	0	0	23179	21760	162755	27332	1057983	46423	108539	0	0	8155	582852	0	0
2024-09-26 04:52:47			0	37452	0	0	0	23192	21760	162599	27355	1057992	46424	108544	0	0	8156	582323	0	0
2024-09-26 04:53:47			0	37457	0	0	0	23181	21760	162611	27436	1058037	46445	108540	0	0	8156	582120	0	0
2024-09-26 04:54:47			0	37472	0	0	0	23184	21760	162591	26987	1058046	46446	108541	0	0	8157	581510	0	0
2024-09-26 04:55:47			0	37454	0	0	0	23186	21760	162711	27305	1057992	46435	108542	0	0	8156	582242	0	0
2024-09-26 04:56:47			0	37474	0	0	0	23199	21760	162551	27114	1058072	46458	108547	0	0	8157	581429	0	0
2024-09-26 04:57:47			0	37484	0	0	0	23192	21760	162407	27178	1058019	46435	108544	0	0	8158	581023	0	0
2024-09-26 04:58:47			0	37499	0	0	0	23181	21760	162531	27017	1058010	46423	108540	0	0	8159	580414	0	0
2024-09-26 04:59:47			0	37470	0	0	0	23179	21770	162587	27357	1058028	46446	108539	0	0	8157	581559	0	0
2024-09-26 05:00:47			0	37457	0	0	0	23179	21760	162471	27112	1058019	46435	108539	0	0	8156	582120	0	0
2024-09-26 05:01:47			0	37443	0	0	0	23176	21760	162567	27441	1057966	46435	108538	0	0	8156	582690	0	0
2024-09-26 05:02:47			0	37452	0	0	0	23181	21760	162631	27010	1058019	46424	108540	0	0	8156	582323	0	0
2024-09-26 05:03:47			0	37431	0	0	0	23174	21760	162687	26984	1057992	46424	108537	0	0	8155	583178	0	0
2024-09-26 05:04:47			0	37453	0	0	0	23171	21750	162711	27183	1057975	46445	108536	0	0	8156	582315	0	0
2024-09-26 05:05:47			0	37460	0	0	0	23179	21760	162467	26809	1057983	46445	108539	0	0	8157	581998	0	0
2024-09-26 05:06:47			0	37462	0	0	0	23174	21760	162587	27102	1057966	46458	108537	0	0	8157	581917	0	0
2024-09-26 05:07:47			0	37459	0	0	0	23184	21760	162587	27362	1058019	46446	108541	0	0	8156	582039	0	0
2024-09-26 05:08:47			0	37460	0	0	0	23181	21760	162559	27015	1057957	46434	108540	0	0	8157	581998	0	0
2024-09-26 05:09:47			0	37482	0	0	0	23184	21770	162523	27403	1058028	46446	108541	0	0	8158	581072	0	0
2024-09-26 05:10:47			0	37486	0	0	0	23184	21760	162431	27140	1057957	46434	108541	0	0	8158	580942	0	0
2024-09-26 05:11:47			0	37473	0	0	0	23171	21750	162435	27319	1058055	46434	108536	0	0	8157	581502	0	0
2024-09-26 05:12:47			0	37475	0	0	0	23166	21770	162387	27242	1058001	46435	108534	0	0	8158	581356	0	0
2024-09-26 05:13:47			0	37466	0	0	0	23161	21760	162435	27053	1057957	46434	108532	0	0	8157	581754	0	0
2024-09-26 05:14:47			0	37469	0	0	0	23166	21760	162391	27265	1058019	46424	108534	0	0	8157	581632	0	0
2024-09-26 05:15:47			0	37465	0	0	0	23150	21760	162499	27383	1057957	46434	108528	0	0	8157	581795	0	0
2024-09-26 05:16:47			0	37472	0	0	0	23168	21750	162539	27237	1057966	46433	108535	0	0	8157	581543	0	0
2024-09-26 05:17:47			0	37465	0	0	0	23174	21750	162551	27180	1057939	46444	108537	0	0	8157	581827	0	0
2024-09-26 05:18:47			0	37464	0	0	0	23166	21760	162523	26882	1057957	46456	108534	0	0	8157	581835	0	0
2024-09-26 05:19:47			0	37469	0	0	0	23163	21750	162471	26918	1057921	46445	108533	0	0	8157	581665	0	0
2024-09-26 05:20:47			0	37490	0	0	0	23166	21750	162499	27218	1057948	46434	108534	0	0	8159	580811	0	0
2024-09-26 05:21:47			0	37468	0	0	0	23176	21750	162523	27175	1058001	46423	108538	0	0	8157	581705	0	0
2024-09-26 05:22:47			0	37498	0	0	0	23174	21750	162475	27293	1057948	46434	108537	0	0	8159	580487	0	0
2024-09-26 05:23:47			0	37493	0	0	0	23171	21740	162463	26970	1057930	46455	108536	0	0	8159	580722	0	0
2024-09-26 05:24:47			0	37499	0	0	0	23174	21740	162387	27182	1057930	46433	108537	0	0	8159	580478	0	0
2024-09-26 05:25:47			0	37502	0	0	0	23189	21760	162331	27131	1057957	46445	108543	0	0	8159	580292	0	0
2024-09-26 05:26:47			0	37533	0	0	0	23194	21750	162347	26963	1058046	46433	108545	0	0	8161	579067	0	0
2024-09-26 05:27:47			0	37542	0	0	0	23186	21760	162295	27284	1058063	46456	108542	0	0	8161	578670	0	0
2024-09-26 05:28:47			0	37551	0	0	0	23163	21750	162295	27203	1057948	46445	108533	0	0	8162	578338	0	0
2024-09-26 05:29:47			0	37525	0	0	0	23161	21760	162311	27289	1057966	46424	108532	0	0	8161	579359	0	0
2024-09-26 05:30:47			0	37512	0	0	0	23158	21750	162431	27416	1057975	46445	108531	0	0	8160	579919	0	0
2024-09-26 05:31:47			0	37507	0	0	0	23171	21750	162339	27443	1057912	46433	108536	0	0	8159	580121	0	0
2024-09-26 05:32:47			0	37511	0	0	0	23158	21760	162235	27187	1057983	46456	108531	0	0	8160	579927	0	0
2024-09-26 05:33:47			0	37511	0	0	0	23163	21740	162287	27270	1057894	46443	108533	0	0	8160	579991	0	0
2024-09-26 05:34:47			0	37519	0	0	0	23168	21750	162335	27557	1057921	46434	108535	0	0	8160	579635	0	0
2024-09-26 05:35:47			0	37522	0	0	0	23168	21750	162239	27265	1057912	46444	108535	0	0	8160	579513	0	0
2024-09-26 05:36:47			0	37499	0	0	0	23158	21740	162291	27320	1057983	46444	108531	0	0	8159	580478	0	0
2024-09-26 05:37:47			0	37482	0	0	0	23148	21750	162319	27625	1057939	46422	108527	0	0	8158	581136	0	0
2024-09-26 05:38:47			0	37493	0	0	0	23140	21740	162383	27289	1057930	46412	108524	0	0	8159	580722	0	0
2024-09-26 05:39:47			0	37476	0	0	0	23140	21740	162495	27265	1057814	46411	108524	0	0	8158	581412	0	0
2024-09-26 05:40:47			0	37466	0	0	0	23145	21740	162459	27384	1057841	46421	108526	0	0	8157	581819	0	0
2024-09-26 05:41:47			0	37460	0	0	0	23129	21740	162571	27166	1057788	46432	108520	0	0	8157	582063	0	0
2024-09-26 05:42:47			0	37447	0	0	0	23135	21730	162563	27550	1057823	46431	108522	0	0	8156	582624	0	0
2024-09-26 05:43:47			0	37461	0	0	0	23161	21730	162591	27440	1057903	46420	108532	0	0	8157	582055	0	0
2024-09-26 05:44:47			0	37466	0	0	0	23148	21730	162603	27345	1057930	46420	108527	0	0	8157	581851	0	0
2024-09-26 05:45:47			0	37475	0	0	0	23150	21740	162419	26975	1057841	46443	108528	0	0	8158	581453	0	0
2024-09-26 05:46:47			0	37474	0	0	0	23150	21730	162447	27502	1057903	46420	108528	0	0	8158	581526	0	0
2024-09-26 05:47:47			0	37489	0	0	0	23163	21750	162403	27239	1057939	46433	108533	0	0	8159	580852	0	0
2024-09-26 05:48:47			0	37498	0	0	0	23163	21730	162463	27450	1057912	46420	108533	0	0	8159	580551	0	0
2024-09-26 05:49:47			0	37498	0	0	0	23158	21730	162335	27268	1057912	46431	108531	0	0	8159	580551	0	0
2024-09-26 05:50:47			0	37493	0	0	0	23155	21740	162411	27230	1057841	46432	108530	0	0	8159	580722	0	0
2024-09-26 05:51:47			0	37473	0	0	0	23140	21740	162539	27350	1057814	46432	108524	0	0	8158	581534	0	0
2024-09-26 05:52:47			0	37454	0	0	0	23132	21720	162551	27317	1057734	46442	108521	0	0	8157	582372	0	0
2024-09-26 05:53:47			0	37469	0	0	0	23142	21730	162515	27144	1057903	46442	108525	0	0	8158	581729	0	0
2024-09-26 05:54:47			0	37475	0	0	0	23132	21730	162619	27026	1057832	46431	108521	0	0	8158	581486	0	0
2024-09-26 05:55:47			0	37449	0	0	0	23137	21730	162691	27022	1057796	46431	108523	0	0	8157	582543	0	0
2024-09-26 05:56:47			0	37447	0	0	0	23142	21730	162587	27149	1057779	46431	108525	0	0	8156	582624	0	0
2024-09-26 05:57:47			0	37452	0	0	0	23163	21720	162611	27403	1057814	46442	108533	0	0	8156	582453	0	0
2024-09-26 05:58:47			0	37460	0	0	0	23163	21730	162623	26994	1057823	46442	108533	0	0	8157	582095	0	0
2024-09-26 05:59:47			0	37481	0	0	0	23179	21730	162571	26944	1057876	46431	108539	0	0	8158	581242	0	0
2024-09-26 06:00:47			0	37467	0	0	0	23163	21720	162447	27079	1057868	46453	108533	0	0	8157	581843	0	0
2024-09-26 06:01:47			0	37480	0	0	0	23153	21730	162543	27171	1057876	46453	108529	0	0	8158	581282	0	0
2024-09-26 06:02:47			0	37461	0	0	0	23155	21730	162375	27097	1057930	46464	108530	0	0	8157	582055	0	0
2024-09-26 06:03:47			0	37459	0	0	0	23137	21720	162491	27313	1057788	46453	108523	0	0	8157	582168	0	0
2024-09-26 06:04:47			0	37456	0	0	0	23153	21730	162583	27324	1057912	46453	108529	0	0	8157	582258	0	0
2024-09-26 06:05:47			0	37465	0	0	0	23145	21730	162539	27249	1057823	46420	108526	0	0	8157	581892	0	0
2024-09-26 06:06:47			0	37447	0	0	0	23135	21730	162695	27150	1057779	46431	108522	0	0	8156	582624	0	0
2024-09-26 06:07:47			0	37434	0	0	0	23142	21730	162627	27324	1057832	46442	108525	0	0	8156	583153	0	0
2024-09-26 06:08:47			0	37414	0	0	0	23148	21730	162855	27381	1057752	46420	108527	0	0	8154	583968	0	0
2024-09-26 06:09:47			0	37414	0	0	0	23129	21720	162891	27062	1057761	46409	108520	0	0	8155	584000	0	0
2024-09-26 06:10:47			0	37425	0	0	0	23168	21730	162859	27244	1057903	46442	108535	0	0	8155	583520	0	0
2024-09-26 06:11:47			0	37461	0	0	0	23163	21730	162695	27138	1057876	46431	108533	0	0	8157	582055	0	0
2024-09-26 06:12:47			0	37451	0	0	0	23145	21730	162599	27543	1057885	46431	108526	0	0	8157	582461	0	0
2024-09-26 06:13:47			0	37424	0	0	0	23137	21730	162795	27251	1057885	46420	108523	0	0	8155	583560	0	0
2024-09-26 06:14:47			0	37405	0	0	0	23135	21720	162867	27486	1057885	46419	108522	0	0	8154	584367	0	0
2024-09-26 06:15:47			0	37405	0	0	0	23132	21720	162843	27692	1057868	46431	108521	0	0	8154	584367	0	0
2024-09-26 06:16:47			0	37400	0	0	0	23155	21720	162839	27509	1057868	46431	108530	0	0	8153	584571	0	0
2024-09-26 06:17:47			0	37386	0	0	0	23148	21720	162911	27312	1057788	46442	108527	0	0	8153	585142	0	0
2024-09-26 06:18:47			0	37409	0	0	0	23140	21720	162963	27145	1057868	46431	108524	0	0	8154	584204	0	0
2024-09-26 06:19:47			0	37408	0	0	0	23158	21720	162915	27274	1057868	46431	108531	0	0	8154	584245	0	0
2024-09-26 06:20:47			0	37389	0	0	0	23150	21720	162943	27152	1057814	46442	108528	0	0	8153	585020	0	0
2024-09-26 06:21:47			0	37407	0	0	0	23145	21730	162903	27362	1057796	46431	108526	0	0	8154	584253	0	0
2024-09-26 06:22:47			0	37396	0	0	0	23142	21730	162943	27211	1057805	46420	108525	0	0	8153	584702	0	0
2024-09-26 06:23:47			0	37391	0	0	0	23150	21730	162955	27254	1057876	46442	108528	0	0	8153	584906	0	0
2024-09-26 06:24:47			0	37393	0	0	0	23140	21730	162967	27067	1057832	46420	108524	0	0	8153	584824	0	0
2024-09-26 06:25:47			0	37383	0	0	0	23148	21730	163007	27450	1057823	46420	108527	0	0	8152	585232	0	0
2024-09-26 06:26:47			0	37388	0	0	0	23145	21720	162927	27088	1057761	46431	108526	0	0	8153	585061	0	0
2024-09-26 06:27:47			0	37378	0	0	0	23145	21720	162955	27332	1057814	46431	108526	0	0	8152	585469	0	0
2024-09-26 06:28:47			0	37391	0	0	0	23166	21720	162935	27234	1057805	46452	108534	0	0	8153	584938	0	0
2024-09-26 06:29:47			0	37401	0	0	0	23140	21730	162863	27339	1057876	46453	108524	0	0	8154	584498	0	0
2024-09-26 06:30:47			0	37398	0	0	0	23142	21730	162891	27294	1057823	46442	108525	0	0	8153	584620	0	0
2024-09-26 06:31:47			0	37400	0	0	0	23142	21730	162991	27095	1057770	46431	108525	0	0	8154	584538	0	0
2024-09-26 06:32:47			0	37360	0	0	0	23129	21720	163103	27045	1057788	46420	108520	0	0	8151	586204	0	0
2024-09-26 06:33:47			0	37370	0	0	0	23142	21720	163011	27428	1057788	46431	108525	0	0	8152	585795	0	0
2024-09-26 06:34:47			0	37358	0	0	0	23142	21730	163091	27310	1057796	46453	108525	0	0	8151	586253	0	0
2024-09-26 06:35:47			0	37356	0	0	0	23132	21720	163119	27279	1057788	46420	108521	0	0	8151	586367	0	0
2024-09-26 06:36:47			0	37357	0	0	0	23155	21720	163023	27289	1057805	46430	108530	0	0	8151	586326	0	0
2024-09-26 06:37:47			0	37371	0	0	0	23161	21720	163087	27034	1057832	46430	108532	0	0	8151	585754	0	0
2024-09-26 06:38:47			0	37368	0	0	0	23148	21720	163059	27289	1057868	46442	108527	0	0	8151	585877	0	0
2024-09-26 06:39:47			0	37377	0	0	0	23150	21720	162987	27400	1057779	46430	108528	0	0	8152	585510	0	0
2024-09-26 06:40:47			0	37399	0	0	0	23155	21720	162959	27376	1057788	46453	108530	0	0	8153	584612	0	0
2024-09-26 06:41:47			0	37401	0	0	0	23163	21730	162967	27171	1057823	46453	108533	0	0	8153	584498	0	0
2024-09-26 06:42:47			0	37392	0	0	0	23155	21730	162931	27383	1057930	46453	108530	0	0	8153	584865	0	0
2024-09-26 06:43:47			0	37404	0	0	0	23171	21720	162967	27360	1057841	46453	108536	0	0	8153	584408	0	0
2024-09-26 06:44:47			0	37394	0	0	0	23132	21730	162955	27339	1057885	46453	108521	0	0	8153	584783	0	0
2024-09-26 06:45:47			0	37380	0	0	0	23135	21720	162995	27071	1057814	46442	108522	0	0	8152	585387	0	0
2024-09-26 06:46:47			0	37365	0	0	0	23129	21730	163051	27206	1057796	46442	108520	0	0	8152	585967	0	0
2024-09-26 06:47:47			0	37346	0	0	0	23137	21720	163075	27119	1057894	46420	108523	0	0	8150	586776	0	0
2024-09-26 06:48:47			0	37342	0	0	0	23150	21720	163087	27317	1057859	46408	108528	0	0	8150	586939	0	0
2024-09-26 06:49:47			0	37342	0	0	0	23140	21720	163135	27357	1057788	46442	108524	0	0	8150	586939	0	0
2024-09-26 06:50:47			0	37335	0	0	0	23137	21720	163179	27196	1057788	46420	108523	0	0	8150	587226	0	0
2024-09-26 06:51:47			0	37338	0	0	0	23155	21720	163127	27334	1057921	46453	108530	0	0	8150	587103	0	0
2024-09-26 06:52:47			0	37353	0	0	0	23150	21730	163231	27358	1057796	46442	108528	0	0	8151	586457	0	0
2024-09-26 06:53:47			0	37313	0	0	0	23142	21720	163262	27105	1057868	46442	108525	0	0	8148	588126	0	0
2024-09-26 06:54:47			0	37330	0	0	0	23145	21720	163223	27152	1057788	46431	108526	0	0	8149	587430	0	0
2024-09-26 06:55:47			0	37333	0	0	0	23153	21730	163163	27079	1057912	46442	108529	0	0	8149	587275	0	0
2024-09-26 06:56:47			0	37349	0	0	0	23163	21730	163079	27083	1057930	46442	108533	0	0	8150	586621	0	0
2024-09-26 06:57:47			0	37351	0	0	0	23176	21720	163179	27100	1057894	46453	108538	0	0	8150	586571	0	0
2024-09-26 06:58:47			0	37358	0	0	0	23194	21730	163111	27512	1057965	46442	108545	0	0	8150	586253	0	0
2024-09-26 06:59:47			0	37408	0	0	0	23166	21730	162935	27341	1057939	46431	108534	0	0	8154	584212	0	0
2024-09-26 07:00:47			0	37380	0	0	0	23163	21730	163043	27431	1057992	46442	108533	0	0	8152	585354	0	0
2024-09-26 07:01:47			0	37371	0	0	0	23168	21730	162907	27481	1057876	46431	108535	0	0	8151	585722	0	0
2024-09-26 07:02:47			0	37374	0	0	0	23171	21740	162951	27142	1057974	46454	108536	0	0	8152	585567	0	0
2024-09-26 07:03:47			0	37379	0	0	0	23155	21740	162987	27281	1057974	46443	108530	0	0	8152	585363	0	0
2024-09-26 07:04:47			0	37375	0	0	0	23155	21730	163087	27317	1057912	46453	108530	0	0	8152	585559	0	0
2024-09-26 07:05:47			0	37362	0	0	0	23158	21740	163003	27367	1057974	46454	108531	0	0	8151	586057	0	0
2024-09-26 07:06:47			0	37366	0	0	0	23158	21730	163063	26925	1057939	46431	108531	0	0	8151	585926	0	0
2024-09-26 07:07:47			0	37354	0	0	0	23150	21740	163099	27400	1057921	46443	108528	0	0	8151	586384	0	0
2024-09-26 07:08:47			0	37352	0	0	0	23145	21740	163111	27095	1057894	46411	108526	0	0	8151	586465	0	0
2024-09-26 07:09:47			0	37330	0	0	0	23153	21740	163071	27230	1057903	46422	108529	0	0	8149	587365	0	0
2024-09-26 07:10:47			0	37330	0	0	0	23153	21720	163215	27133	1057868	46431	108529	0	0	8149	587430	0	0
2024-09-26 07:11:47			0	37345	0	0	0	23166	21720	163171	27104	1057894	46453	108534	0	0	8150	586817	0	0
2024-09-26 07:12:47			0	37338	0	0	0	23163	21730	163151	27274	1057912	46442	108533	0	0	8149	587070	0	0
2024-09-26 07:13:47			0	37330	0	0	0	23148	21730	163207	27332	1057903	46420	108527	0	0	8149	587397	0	0
2024-09-26 07:14:47			0	37335	0	0	0	23150	21730	163167	27441	1057912	46431	108528	0	0	8150	587193	0	0
2024-09-26 07:15:47			0	37327	0	0	0	23148	21740	163195	27364	1057983	46433	108527	0	0	8149	587488	0	0
2024-09-26 07:16:47			0	37318	0	0	0	23161	21740	163154	27249	1057841	46443	108532	0	0	8148	587856	0	0
2024-09-26 07:17:47			0	37323	0	0	0	23153	21730	163199	27338	1057832	46431	108529	0	0	8149	587684	0	0
2024-09-26 07:18:47			0	37337	0	0	0	23168	21740	163227	27024	1057930	46433	108535	0	0	8149	587078	0	0
2024-09-26 07:19:47			0	37325	0	0	0	23166	21750	163219	27161	1057939	46444	108534	0	0	8149	587537	0	0
2024-09-26 07:20:47			0	37330	0	0	0	23166	21730	163179	27454	1057912	46442	108534	0	0	8149	587397	0	0
2024-09-26 07:21:47			0	37340	0	0	0	23166	21730	163183	27114	1057859	46442	108534	0	0	8150	586988	0	0
2024-09-26 07:22:47			0	37345	0	0	0	23176	21750	163127	27244	1057939	46422	108538	0	0	8150	586719	0	0
2024-09-26 07:23:47			0	37358	0	0	0	23163	21740	163139	27027	1057921	46432	108533	0	0	8151	586220	0	0
2024-09-26 07:24:47			0	37364	0	0	0	23161	21750	163075	27391	1057992	46433	108532	0	0	8151	585942	0	0
2024-09-26 07:25:47			0	37351	0	0	0	23153	21740	163099	27428	1057957	46433	108529	0	0	8150	586506	0	0
2024-09-26 07:26:47			0	37333	0	0	0	23148	21740	163083	27317	1057948	46443	108527	0	0	8149	587242	0	0
2024-09-26 07:27:47			0	37345	0	0	0	23155	21740	163179	27414	1057957	46444	108530	0	0	8150	586751	0	0
2024-09-26 07:28:47			0	37321	0	0	0	23161	21730	163235	27847	1057939	46420	108532	0	0	8149	587766	0	0
2024-09-26 07:29:47			0	37329	0	0	0	23166	21730	163139	27542	1057903	46431	108534	0	0	8149	587438	0	0
2024-09-26 07:30:47			0	37356	0	0	0	23171	21730	163027	27495	1057912	46442	108536	0	0	8150	586335	0	0
2024-09-26 07:31:47			0	37379	0	0	0	23186	21750	162939	27390	1057966	46433	108542	0	0	8152	585330	0	0
2024-09-26 07:32:47			0	37382	0	0	0	23158	21740	162935	27353	1057983	46455	108531	0	0	8152	585240	0	0
2024-09-26 07:33:47			0	37369	0	0	0	23158	21740	163063	27706	1057930	46444	108531	0	0	8151	585771	0	0
2024-09-26 07:34:47			0	37361	0	0	0	23161	21750	163063	27189	1057966	46455	108532	0	0	8151	586065	0	0
2024-09-26 07:35:47			0	37363	0	0	0	23171	21740	162931	27504	1058010	46422	108536	0	0	8151	586016	0	0
2024-09-26 07:36:47			0	37365	0	0	0	23161	21750	163003	27564	1057939	46422	108532	0	0	8151	585902	0	0
2024-09-26 07:37:47			0	37379	0	0	0	23174	21750	162979	27275	1057966	46422	108537	0	0	8152	585330	0	0
2024-09-26 07:38:47			0	37411	0	0	0	23199	21740	162783	27327	1058037	46444	108547	0	0	8153	584058	0	0
2024-09-26 07:39:47			0	37461	0	0	0	23212	21750	162619	27282	1058099	46455	108552	0	0	8156	581990	0	0
2024-09-26 07:40:47			0	37486	0	0	0	23205	21760	162491	27241	1058152	46458	108549	0	0	8158	580942	0	0
2024-09-26 07:41:47			0	37489	0	0	0	23181	21760	162451	27256	1058126	46468	108540	0	0	8158	580820	0	0
2024-09-26 07:42:47			0	37487	0	0	0	23194	21760	162639	27074	1058090	46445	108545	0	0	8158	580901	0	0
2024-09-26 07:43:47			0	37473	0	0	0	23189	21760	162575	27310	1058046	46446	108543	0	0	8157	581470	0	0
2024-09-26 07:44:47			0	37476	0	0	0	23181	21760	162475	27445	1058010	46456	108540	0	0	8158	581348	0	0
2024-09-26 07:45:47			0	37467	0	0	0	23181	21760	162631	27454	1058046	46446	108540	0	0	8157	581714	0	0
2024-09-26 07:46:47			0	37464	0	0	0	23189	21760	162551	27518	1058010	46423	108543	0	0	8157	581835	0	0
2024-09-26 07:47:47			0	37455	0	0	0	23184	21760	162675	27422	1058019	46446	108541	0	0	8156	582201	0	0
2024-09-26 07:48:47			0	37483	0	0	0	23207	21760	162607	27585	1058046	46435	108550	0	0	8157	581063	0	0
2024-09-26 07:49:47			0	37495	0	0	0	23184	21750	162483	27265	1058134	46445	108541	0	0	8159	580609	0	0
2024-09-26 07:50:47			0	37467	0	0	0	23184	21770	162543	27268	1058161	46435	108541	0	0	8157	581681	0	0
2024-09-26 07:51:47			0	37459	0	0	0	23186	21760	162523	27081	1058099	46446	108542	0	0	8156	582039	0	0
2024-09-26 07:52:47			0	37461	0	0	0	23186	21770	162507	27185	1058081	46458	108542	0	0	8157	581925	0	0
2024-09-26 07:53:47			0	37467	0	0	0	23205	21760	162547	27421	1058099	46435	108549	0	0	8157	581714	0	0
2024-09-26 07:54:47			0	37498	0	0	0	23233	21770	162451	27383	1058135	46458	108560	0	0	8158	580422	0	0
2024-09-26 07:55:47			0	37531	0	0	0	23194	21770	162375	27256	1058117	46447	108545	0	0	8161	579084	0	0
2024-09-26 07:56:47			0	37518	0	0	0	23233	21770	162247	27343	1058170	46425	108560	0	0	8159	579611	0	0
2024-09-26 07:57:47			0	37561	0	0	0	23220	21780	162219	27128	1058188	46448	108555	0	0	8162	577837	0	0
2024-09-26 07:58:47			0	37558	0	0	0	23202	21780	162163	27552	1058179	46447	108548	0	0	8162	577958	0	0
2024-09-26 07:59:47			0	37575	0	0	0	23207	21790	162167	27405	1058144	46459	108550	0	0	8163	577238	0	0
2024-09-26 08:00:47			0	37574	0	0	0	23220	21790	162115	27239	1058144	46470	108555	0	0	8163	577278	0	0
2024-09-26 08:01:47			0	37558	0	0	0	23210	21790	162167	27421	1058153	46438	108551	0	0	8162	577926	0	0
2024-09-26 08:02:47			0	37573	0	0	0	23205	21790	162155	27481	1058170	46448	108549	0	0	8163	577319	0	0
2024-09-26 08:03:47			0	37565	0	0	0	23212	21780	162167	27272	1058055	46437	108552	0	0	8162	577675	0	0
2024-09-26 08:04:47			0	37574	0	0	0	23218	21790	162047	27350	1058224	46448	108554	0	0	8163	577278	0	0
2024-09-26 08:05:47			0	37574	0	0	0	23207	21790	162059	27435	1058170	46437	108550	0	0	8163	577278	0	0
2024-09-26 08:06:47			0	37555	0	0	0	23218	21790	162183	27343	1058144	46437	108554	0	0	8162	578047	0	0
2024-09-26 08:07:47			0	37572	0	0	0	23212	21790	162071	27300	1058197	46437	108552	0	0	8163	577360	0	0
2024-09-26 08:08:47			0	37578	0	0	0	23207	21790	162127	27026	1058197	46426	108550	0	0	8163	577117	0	0
2024-09-26 08:09:47			0	37551	0	0	0	23197	21790	162183	27374	1058197	46459	108546	0	0	8162	578209	0	0
2024-09-26 08:10:47			0	37549	0	0	0	23205	21790	162155	27443	1058144	46448	108549	0	0	8162	578290	0	0
2024-09-26 08:11:47			0	37553	0	0	0	23225	21780	162143	27152	1058135	46448	108557	0	0	8161	578160	0	0
2024-09-26 08:12:47			0	37553	0	0	0	23215	21800	162099	27455	1058188	46459	108553	0	0	8162	578096	0	0
2024-09-26 08:13:47			0	37571	0	0	0	23207	21780	162067	27313	1058179	46447	108550	0	0	8163	577432	0	0
2024-09-26 08:14:47			0	37542	0	0	0	23189	21800	162239	27339	1058108	46449	108543	0	0	8161	578541	0	0
2024-09-26 08:15:47			0	37523	0	0	0	23189	21780	162279	27312	1058126	46414	108543	0	0	8160	579376	0	0
2024-09-26 08:16:47			0	37514	0	0	0	23207	21790	162271	27154	1058144	46426	108550	0	0	8159	579708	0	0
2024-09-26 08:17:47			0	37536	0	0	0	23207	21790	162323	27260	1058117	46470	108550	0	0	8161	578817	0	0
2024-09-26 08:18:47			0	37509	0	0	0	23181	21790	162339	27067	1058170	46437	108540	0	0	8160	579911	0	0
2024-09-26 08:19:47			0	37504	0	0	0	23197	21770	162343	27455	1058064	46458	108546	0	0	8159	580179	0	0
2024-09-26 08:20:47			0	37512	0	0	0	23220	21790	162299	27419	1058144	46448	108555	0	0	8159	579789	0	0
2024-09-26 08:21:47			0	37539	0	0	0	23205	21790	162207	27377	1058197	46459	108549	0	0	8161	578695	0	0
2024-09-26 08:22:47			0	37532	0	0	0	23207	21790	162303	27436	1058117	46448	108550	0	0	8161	578979	0	0
2024-09-26 08:23:47			0	37534	0	0	0	23197	21790	162219	27372	1058099	46459	108546	0	0	8161	578898	0	0
2024-09-26 08:24:47			0	37512	0	0	0	23181	21770	162299	27431	1058144	46447	108540	0	0	8160	579854	0	0
2024-09-26 08:25:47			0	37508	0	0	0	23215	21780	162319	27578	1058126	46447	108553	0	0	8159	579984	0	0
2024-09-26 08:26:47			0	37519	0	0	0	23197	21770	162215	27187	1058170	46447	108546	0	0	8160	579570	0	0
2024-09-26 08:27:47			0	37516	0	0	0	23218	21780	162295	27400	1058215	46448	108554	0	0	8159	579660	0	0
2024-09-26 08:28:47			0	37569	0	0	0	23220	21790	162247	27355	1058179	46459	108555	0	0	8163	577481	0	0
2024-09-26 08:29:47			0	37567	0	0	0	23210	21790	162139	27462	1058197	46459	108551	0	0	8163	577562	0	0
2024-09-26 08:30:47			0	37569	0	0	0	23202	21780	162135	27289	1058179	46436	108548	0	0	8163	577513	0	0
2024-09-26 08:31:47			0	37553	0	0	0	23223	21800	162075	27119	1058242	46438	108556	0	0	8162	578096	0	0
2024-09-26 08:32:47			0	37569	0	0	0	23212	21800	162059	27017	1058188	46427	108552	0	0	8163	577449	0	0
2024-09-26 08:33:47			0	37583	0	0	0	23202	21800	162095	27043	1058162	46438	108548	0	0	8164	576883	0	0
2024-09-26 08:34:47			0	37546	0	0	0	23197	21790	162255	27306	1058091	46448	108546	0	0	8162	578412	0	0
2024-09-26 08:35:47			0	37558	0	0	0	23205	21790	162115	27206	1058179	46449	108549	0	0	8162	577926	0	0
2024-09-26 08:36:47			0	37564	0	0	0	23228	21790	162019	27621	1058144	46470	108558	0	0	8162	577683	0	0
2024-09-26 08:37:47			0	37589	0	0	0	23225	21790	162015	27114	1058206	46459	108557	0	0	8164	576672	0	0
2024-09-26 08:38:47			0	37586	0	0	0	23223	21800	161919	27100	1058188	46459	108556	0	0	8164	576761	0	0
2024-09-26 08:39:47			0	37610	0	0	0	23205	21800	161875	27232	1058188	46459	108549	0	0	8165	575792	0	0
2024-09-26 08:40:47			0	37584	0	0	0	23199	21800	162031	27137	1058242	46449	108547	0	0	8164	576842	0	0
2024-09-26 08:41:47			0	37568	0	0	0	23189	21790	162071	27388	1058179	46427	108543	0	0	8163	577521	0	0
2024-09-26 08:42:47			0	37569	0	0	0	23199	21800	162043	27232	1058224	46450	108547	0	0	8163	577449	0	0
2024-09-26 08:43:47			0	37567	0	0	0	23197	21790	162119	26998	1058153	46438	108546	0	0	8163	577562	0	0
2024-09-26 08:44:47			0	37559	0	0	0	23218	21790	162075	27043	1058179	46427	108554	0	0	8162	577885	0	0
2024-09-26 08:45:47			0	37576	0	0	0	23197	21790	161975	27355	1058206	46438	108546	0	0	8163	577198	0	0
2024-09-26 08:46:47			0	37550	0	0	0	23194	21790	162227	27628	1058206	46416	108545	0	0	8162	578250	0	0
2024-09-26 08:47:47			0	37564	0	0	0	23220	21790	162111	27326	1058170	46437	108555	0	0	8162	577683	0	0
2024-09-26 08:48:47			0	37592	0	0	0	23212	21790	161983	27182	1058206	46449	108552	0	0	8164	576551	0	0
2024-09-26 08:49:47			0	37575	0	0	0	23197	21800	161939	27180	1058188	46459	108546	0	0	8163	577206	0	0
2024-09-26 08:50:47			0	37572	0	0	0	23218	21800	162063	27336	1058162	46427	108554	0	0	8163	577327	0	0
2024-09-26 08:51:47			0	37585	0	0	0	23233	21790	162003	27286	1058206	46427	108560	0	0	8163	576834	0	0
2024-09-26 08:52:47			0	37592	0	0	0	23223	21790	161923	27187	1058197	46437	108556	0	0	8164	576551	0	0
2024-09-26 08:53:47			0	37596	0	0	0	23220	21790	161963	27415	1058224	46437	108555	0	0	8164	576389	0	0
2024-09-26 08:54:47			0	37601	0	0	0	23212	21790	161867	27476	1058233	46438	108552	0	0	8165	576187	0	0
2024-09-26 08:55:47			0	37596	0	0	0	23205	21790	161931	27410	1058233	46438	108549	0	0	8164	576389	0	0
2024-09-26 08:56:47			0	37593	0	0	0	23192	21800	161995	27381	1058215	46449	108544	0	0	8164	576479	0	0
2024-09-26 08:57:47			0	37578	0	0	0	23205	21790	161963	27291	1058179	46438	108549	0	0	8163	577117	0	0
2024-09-26 08:58:47			0	37586	0	0	0	23225	21780	161987	27211	1058215	46448	108557	0	0	8163	576826	0	0
2024-09-26 08:59:47			0	37624	0	0	0	23231	21790	161755	27511	1058179	46459	108559	0	0	8166	575259	0	0
2024-09-26 09:00:47			0	37642	0	0	0	23218	21800	161827	27279	1058268	46471	108554	0	0	8167	574501	0	0
2024-09-26 09:01:47			0	37623	0	0	0	23223	21810	161739	27438	1058313	46439	108556	0	0	8166	575235	0	0
2024-09-26 09:02:47			0	37629	0	0	0	23220	21800	161839	27345	1058268	46459	108555	0	0	8166	575025	0	0
2024-09-26 09:03:47			0	37642	0	0	0	23225	21800	161803	27227	1058295	46449	108557	0	0	8167	574501	0	0
2024-09-26 09:04:47			0	37654	0	0	0	23241	21800	161643	26977	1058215	46459	108563	0	0	8167	574017	0	0
2024-09-26 09:05:47			0	37686	0	0	0	23238	21800	161671	27319	1058242	46449	108562	0	0	8169	572729	0	0
2024-09-26 09:06:47			0	37688	0	0	0	23233	21810	161599	27569	1058269	46462	108560	0	0	8169	572616	0	0
2024-09-26 09:07:47			0	37691	0	0	0	23228	21800	161595	26982	1058242	46449	108558	0	0	8170	572528	0	0
2024-09-26 09:08:47			0	37697	0	0	0	23244	21810	161663	27409	1058269	46440	108564	0	0	8170	572254	0	0
2024-09-26 09:09:47			0	37703	0	0	0	23228	21810	161499	27355	1058340	46428	108558	0	0	8170	572013	0	0
2024-09-26 09:10:47			0	37689	0	0	0	23236	21800	161535	27317	1058304	46428	108561	0	0	8169	572608	0	0
2024-09-26 09:11:47			0	37703	0	0	0	23225	21810	161539	27182	1058286	46450	108557	0	0	8170	572013	0	0
2024-09-26 09:12:47			0	37675	0	0	0	23210	21810	161515	27443	1058206	46439	108551	0	0	8169	573140	0	0
2024-09-26 09:13:47			0	37682	0	0	0	23233	21810	161607	27383	1058189	46440	108560	0	0	8169	572858	0	0
2024-09-26 09:14:47			0	37687	0	0	0	23233	21810	161527	27519	1058286	46439	108560	0	0	8169	572657	0	0
2024-09-26 09:15:47			0	37691	0	0	0	23246	21800	161511	27338	1058322	46438	108565	0	0	8169	572528	0	0
2024-09-26 09:16:47			0	37721	0	0	0	23236	21800	161511	27235	1058277	46472	108561	0	0	8171	571322	0	0
2024-09-26 09:17:47			0	37735	0	0	0	23241	21810	161427	27538	1058269	46451	108563	0	0	8172	570728	0	0
2024-09-26 09:18:47			0	37718	0	0	0	23246	21820	161387	27369	1058304	46463	108565	0	0	8171	571379	0	0
2024-09-26 09:19:47			0	37719	0	0	0	23236	21830	161371	27573	1058375	46464	108561	0	0	8171	571306	0	0
2024-09-26 09:20:47			0	37722	0	0	0	23244	21820	161371	27294	1058277	46441	108564	0	0	8171	571218	0	0
2024-09-26 09:21:47			0	37738	0	0	0	23262	21810	161471	27208	1058349	46440	108571	0	0	8172	570607	0	0
2024-09-26 09:22:47			0	37758	0	0	0	23238	21820	161387	27419	1058313	46452	108562	0	0	8173	569773	0	0
2024-09-26 09:23:47			0	37765	0	0	0	23257	21820	161399	27216	1058340	46441	108569	0	0	8174	569492	0	0
2024-09-26 09:24:47			0	37763	0	0	0	23249	21810	161227	27100	1058340	46461	108566	0	0	8174	569604	0	0
2024-09-26 09:25:47			0	37742	0	0	0	23254	21810	161203	27346	1058375	46440	108568	0	0	8172	570447	0	0
2024-09-26 09:26:47			0	37785	0	0	0	23257	21830	161239	27471	1058402	46442	108569	0	0	8175	568659	0	0
2024-09-26 09:27:47			0	37767	0	0	0	23246	21830	161183	27585	1058402	46442	108565	0	0	8174	569381	0	0
2024-09-26 09:28:47			0	37777	0	0	0	23244	21820	161271	27287	1058420	46452	108564	0	0	8174	569012	0	0
2024-09-26 09:29:47			0	37773	0	0	0	23254	21830	161155	27592	1058375	46453	108568	0	0	8174	569140	0	0
2024-09-26 09:30:47			0	37755	0	0	0	23249	21830	161175	27237	1058455	46464	108566	0	0	8173	569862	0	0
2024-09-26 09:31:47			0	37754	0	0	0	23236	21830	161207	27348	1058429	46464	108561	0	0	8173	569902	0	0
2024-09-26 09:32:47			0	37780	0	0	0	23251	21820	161183	27100	1058384	46441	108567	0	0	8175	568891	0	0
2024-09-26 09:33:47			0	37774	0	0	0	23259	21830	161127	27242	1058375	46464	108570	0	0	8174	569100	0	0
2024-09-26 09:34:47			0	37779	0	0	0	23262	21830	161099	26998	1058438	46431	108571	0	0	8174	568900	0	0
2024-09-26 09:35:47			0	37815	0	0	0	23257	21830	161043	27095	1058358	46431	108569	0	0	8177	567459	0	0
2024-09-26 09:36:47			0	37803	0	0	0	23262	21830	161071	27239	1058358	46442	108571	0	0	8176	567939	0	0
2024-09-26 09:37:47			0	37808	0	0	0	23259	21830	161047	27640	1058438	46453	108570	0	0	8176	567739	0	0
2024-09-26 09:38:47			0	37805	0	0	0	23259	21830	161063	27512	1058411	46453	108570	0	0	8176	567859	0	0
2024-09-26 09:39:47			0	37807	0	0	0	23264	21830	161127	27265	1058385	46442	108572	0	0	8176	567779	0	0
2024-09-26 09:40:47			0	37825	0	0	0	23275	21830	161111	27545	1058385	46453	108576	0	0	8177	567059	0	0
2024-09-26 09:41:47			0	37851	0	0	0	23275	21840	160963	27175	1058527	46476	108576	0	0	8178	565989	0	0
2024-09-26 09:42:47			0	37839	0	0	0	23277	21840	161051	27360	1058474	46476	108577	0	0	8178	566468	0	0
2024-09-26 09:43:47			0	37832	0	0	0	23257	21840	161023	27261	1058403	46443	108569	0	0	8178	566748	0	0
2024-09-26 09:44:47			0	37824	0	0	0	23262	21840	161019	27199	1058447	46443	108571	0	0	8177	567067	0	0
2024-09-26 09:45:47			0	37828	0	0	0	23254	21840	160967	27388	1058456	46454	108568	0	0	8177	566907	0	0
2024-09-26 09:46:47			0	37820	0	0	0	23249	21850	161079	27081	1058465	46444	108566	0	0	8177	567196	0	0
2024-09-26 09:47:47			0	37803	0	0	0	23251	21840	161027	27261	1058403	46454	108567	0	0	8176	567907	0	0
2024-09-26 09:48:47			0	37816	0	0	0	23244	21840	161051	27417	1058474	46454	108564	0	0	8177	567387	0	0
2024-09-26 09:49:47			0	37803	0	0	0	23254	21840	161095	27124	1058429	46443	108568	0	0	8176	567907	0	0
2024-09-26 09:50:47			0	37805	0	0	0	23246	21840	161039	27512	1058367	46454	108565	0	0	8176	567827	0	0
2024-09-26 09:51:47			0	37794	0	0	0	23254	21840	161059	27419	1058447	46465	108568	0	0	8175	568267	0	0
2024-09-26 09:52:47			0	37789	0	0	0	23244	21840	161159	27320	1058367	46454	108564	0	0	8175	568467	0	0
2024-09-26 09:53:47			0	37788	0	0	0	23241	21830	161139	27923	1058375	46442	108563	0	0	8175	568539	0	0
2024-09-26 09:54:47			0	37764	0	0	0	23244	21840	161135	27249	1058367	46443	108564	0	0	8174	569469	0	0
2024-09-26 09:55:47			0	37768	0	0	0	23254	21830	161127	27248	1058385	46464	108568	0	0	8174	569340	0	0
2024-09-26 09:56:47			0	37778	0	0	0	23249	21830	161091	27409	1058429	46453	108566	0	0	8175	568940	0	0
2024-09-26 09:57:47			0	37784	0	0	0	23233	21840	161243	27460	1058420	46454	108560	0	0	8175	568668	0	0
2024-09-26 09:58:47			0	37755	0	0	0	23223	21830	161187	27396	1058349	46442	108556	0	0	8174	569862	0	0
2024-09-26 09:59:47			0	37744	0	0	0	23238	21830	161383	27357	1058358	46442	108562	0	0	8173	570303	0	0
2024-09-26 10:00:47			0	37747	0	0	0	23246	21830	161315	27374	1058402	46431	108565	0	0	8173	570182	0	0
2024-09-26 10:01:47			0	37738	0	0	0	23223	21830	161271	27192	1058331	46453	108556	0	0	8173	570544	0	0
2024-09-26 10:02:47			0	37744	0	0	0	23228	21830	161391	27251	1058358	46442	108558	0	0	8173	570303	0	0
2024-09-26 10:03:47			0	37728	0	0	0	23223	21820	161247	27400	1058331	46441	108556	0	0	8172	570977	0	0
2024-09-26 10:04:47			0	37714	0	0	0	23215	21820	161447	27317	1058304	46452	108553	0	0	8171	571539	0	0
2024-09-26 10:05:47			0	37705	0	0	0	23220	21820	161495	27447	1058340	46441	108555	0	0	8171	571901	0	0
2024-09-26 10:06:47			0	37688	0	0	0	23233	21820	161423	27241	1058313	46430	108560	0	0	8169	572585	0	0
2024-09-26 10:07:47			0	37717	0	0	0	23220	21820	161415	27294	1058313	46441	108555	0	0	8171	571419	0	0
2024-09-26 10:08:47			0	37697	0	0	0	23220	21810	161483	27294	1058295	46429	108555	0	0	8170	572254	0	0
2024-09-26 10:09:47			0	37693	0	0	0	23225	21810	161379	27568	1058295	46429	108557	0	0	8170	572415	0	0
2024-09-26 10:10:47			0	37702	0	0	0	23241	21820	161343	27201	1058304	46430	108563	0	0	8170	572022	0	0
2024-09-26 10:11:47			0	37735	0	0	0	23244	21810	161419	27748	1058286	46450	108564	0	0	8172	570728	0	0
2024-09-26 10:12:47			0	37706	0	0	0	23231	21810	161407	27521	1058322	46451	108559	0	0	8170	571892	0	0
2024-09-26 10:13:47			0	37730	0	0	0	23225	21810	161487	27317	1058286	46428	108557	0	0	8172	570928	0	0
2024-09-26 10:14:47			0	37736	0	0	0	23225	21810	161375	27435	1058269	46429	108557	0	0	8172	570687	0	0
2024-09-26 10:15:47			0	37724	0	0	0	23223	21810	161403	27483	1058313	46439	108556	0	0	8172	571169	0	0
2024-09-26 10:16:47			0	37719	0	0	0	23231	21810	161471	27331	1058313	46439	108559	0	0	8171	571370	0	0
2024-09-26 10:17:47			0	37727	0	0	0	23223	21810	161359	27339	1058295	46462	108556	0	0	8172	571049	0	0
2024-09-26 10:18:47			0	37736	0	0	0	23225	21800	161375	27549	1058304	46472	108557	0	0	8172	570719	0	0
2024-09-26 10:19:47			0	37753	0	0	0	23218	21820	161367	27668	1058224	46463	108554	0	0	8174	569974	0	0
2024-09-26 10:20:47			0	37736	0	0	0	23236	21810	161467	27393	1058313	46450	108561	0	0	8172	570687	0	0
2024-09-26 10:21:47			0	37736	0	0	0	23231	21810	161347	27448	1058295	46451	108559	0	0	8172	570687	0	0
2024-09-26 10:22:47			0	37724	0	0	0	23228	21810	161291	27235	1058260	46439	108558	0	0	8172	571169	0	0
2024-09-26 10:23:47			0	37756	0	0	0	23233	21810	161303	27403	1058295	46462	108560	0	0	8173	569885	0	0
2024-09-26 10:24:47			0	37749	0	0	0	23223	21820	161343	27305	1058304	46452	108556	0	0	8173	570134	0	0
2024-09-26 10:25:47			0	37764	0	0	0	23233	21810	161375	27066	1058260	46439	108560	0	0	8174	569564	0	0
2024-09-26 10:26:47			0	37765	0	0	0	23236	21820	161267	27350	1058357	46452	108561	0	0	8174	569492	0	0
2024-09-26 10:27:47			0	37762	0	0	0	23233	21810	161271	27376	1058313	46439	108560	0	0	8174	569644	0	0
2024-09-26 10:28:47			0	37765	0	0	0	23233	21810	161279	27410	1058295	46462	108560	0	0	8174	569524	0	0
2024-09-26 10:29:47			0	37766	0	0	0	23231	21810	161135	27059	1058349	46440	108559	0	0	8174	569484	0	0
2024-09-26 10:30:47			0	37787	0	0	0	23249	21810	161163	27223	1058322	46462	108566	0	0	8175	568643	0	0
2024-09-26 10:31:47			0	37767	0	0	0	23225	21810	161111	27131	1058340	46450	108557	0	0	8174	569444	0	0
2024-09-26 10:32:47			0	37773	0	0	0	23236	21810	161127	27405	1058393	46450	108561	0	0	8174	569204	0	0
2024-09-26 10:33:47			0	37772	0	0	0	23241	21820	161179	27346	1058411	46441	108563	0	0	8174	569212	0	0
2024-09-26 10:34:47			0	37789	0	0	0	23251	21820	161255	27086	1058304	46452	108567	0	0	8175	568531	0	0
2024-09-26 10:35:47			0	37801	0	0	0	23246	21820	161159	27429	1058357	46452	108565	0	0	8176	568051	0	0
2024-09-26 10:36:47			0	37812	0	0	0	23238	21820	161155	27443	1058331	46441	108562	0	0	8177	567610	0	0
2024-09-26 10:37:47			0	37797	0	0	0	23225	21810	161155	27369	1058366	46439	108557	0	0	8176	568242	0	0
2024-09-26 10:38:47			0	37802	0	0	0	23233	21820	161139	27241	1058384	46452	108560	0	0	8176	568010	0	0
2024-09-26 10:39:47			0	37813	0	0	0	23233	21810	161119	27329	1058322	46462	108560	0	0	8177	567602	0	0
2024-09-26 10:40:47			0	37814	0	0	0	23231	21820	161179	27594	1058393	46441	108559	0	0	8177	567530	0	0
2024-09-26 10:41:47			0	37801	0	0	0	23244	21820	161087	27293	1058393	46430	108564	0	0	8176	568051	0	0
2024-09-26 10:42:47			0	37798	0	0	0	23238	21810	161139	27329	1058349	46462	108562	0	0	8176	568202	0	0
2024-09-26 10:43:47			0	37820	0	0	0	23251	21820	161031	27315	1058313	46452	108567	0	0	8177	567290	0	0
2024-09-26 10:44:47			0	37820	0	0	0	23244	21820	161079	27646	1058384	46452	108564	0	0	8177	567290	0	0
2024-09-26 10:45:47			0	37810	0	0	0	23241	21820	161099	27471	1058331	46452	108563	0	0	8176	567690	0	0
2024-09-26 10:46:47			0	37830	0	0	0	23238	21820	161087	27324	1058357	46452	108562	0	0	8178	566891	0	0
2024-09-26 10:47:47			0	37819	0	0	0	23236	21800	160979	27383	1058331	46461	108561	0	0	8177	567394	0	0
2024-09-26 10:48:47			0	37825	0	0	0	23238	21830	161003	27301	1058375	46453	108562	0	0	8177	567059	0	0
2024-09-26 10:49:47			0	37815	0	0	0	23246	21820	160959	27538	1058357	46452	108565	0	0	8177	567490	0	0
2024-09-26 10:50:47			0	37837	0	0	0	23241	21830	160951	27336	1058429	46464	108563	0	0	8178	566579	0	0
2024-09-26 10:51:47			0	37811	0	0	0	23238	21810	161135	27429	1058428	46451	108562	0	0	8177	567682	0	0
2024-09-26 10:52:47			0	37825	0	0	0	23238	21830	161227	27390	1058349	46464	108562	0	0	8177	567059	0	0
2024-09-26 10:53:47			0	37823	0	0	0	23259	21820	161087	27400	1058340	46452	108570	0	0	8177	567170	0	0
2024-09-26 10:54:47			0	37830	0	0	0	23236	21830	161011	27168	1058375	46464	108561	0	0	8178	566859	0	0
2024-09-26 10:55:47			0	37808	0	0	0	23254	21830	161139	27215	1058375	46453	108568	0	0	8176	567739	0	0
2024-09-26 10:56:47			0	37805	0	0	0	23241	21820	161095	27251	1058393	46452	108563	0	0	8176	567890	0	0
2024-09-26 10:57:47			0	37819	0	0	0	23233	21830	160947	27277	1058455	46453	108560	0	0	8177	567299	0	0
2024-09-26 10:58:47			0	37816	0	0	0	23238	21820	161047	27104	1058393	46452	108562	0	0	8177	567450	0	0
2024-09-26 10:59:47			0	37815	0	0	0	23233	21820	161123	27154	1058366	46452	108560	0	0	8177	567490	0	0
2024-09-26 11:00:47			0	37823	0	0	0	23233	21820	161079	27580	1058384	46452	108560	0	0	8177	567170	0	0
2024-09-26 11:01:47			0	37814	0	0	0	23244	21830	160971	27409	1058429	46442	108564	0	0	8177	567499	0	0
2024-09-26 11:02:47			0	37820	0	0	0	23238	21820	161011	27542	1058393	46441	108562	0	0	8177	567290	0	0
2024-09-26 11:03:47			0	37813	0	0	0	23238	21830	161107	27538	1058349	46431	108562	0	0	8177	567539	0	0
2024-09-26 11:04:47			0	37818	0	0	0	23249	21820	161095	27407	1058366	46452	108566	0	0	8177	567370	0	0
2024-09-26 11:05:47			0	37831	0	0	0	23241	21820	161039	27256	1058420	46463	108563	0	0	8178	566851	0	0
2024-09-26 11:06:47			0	37823	0	0	0	23241	21820	161111	27602	1058393	46441	108563	0	0	8177	567170	0	0
2024-09-26 11:07:47			0	37823	0	0	0	23251	21830	160999	27306	1058375	46431	108567	0	0	8177	567139	0	0
2024-09-26 11:08:47			0	37833	0	0	0	23254	21830	161099	27521	1058402	46464	108568	0	0	8178	566739	0	0
2024-09-26 11:09:47			0	37837	0	0	0	23251	21830	161115	27517	1058402	46442	108567	0	0	8178	566579	0	0
2024-09-26 11:10:47			0	37837	0	0	0	23249	21830	161035	27345	1058375	46475	108566	0	0	8178	566579	0	0
2024-09-26 11:11:47			0	37840	0	0	0	23254	21830	160891	27424	1058411	46464	108568	0	0	8178	566459	0	0
2024-09-26 11:12:47			0	37850	0	0	0	23267	21820	161015	27317	1058420	46452	108573	0	0	8178	566092	0	0
2024-09-26 11:13:47			0	37842	0	0	0	23254	21830	160911	27395	1058438	46464	108568	0	0	8178	566380	0	0
2024-09-26 11:14:47			0	37844	0	0	0	23262	21830	160955	27343	1058385	46464	108571	0	0	8178	566300	0	0
2024-09-26 11:15:47			0	37865	0	0	0	23267	21840	160963	27478	1058420	46454	108573	0	0	8179	565430	0	0
2024-09-26 11:16:47			0	37846	0	0	0	23267	21840	160847	27168	1058420	46443	108573	0	0	8178	566188	0	0
2024-09-26 11:17:47			0	37873	0	0	0	23257	21830	160887	27166	1058411	46442	108569	0	0	8180	565142	0	0
2024-09-26 11:18:47			0	37868	0	0	0	23259	21840	160959	27632	1058474	46454	108570	0	0	8180	565310	0	0
2024-09-26 11:19:47			0	37873	0	0	0	23264	21840	160823	27474	1058536	46465	108572	0	0	8180	565111	0	0
2024-09-26 11:20:47			0	37888	0	0	0	23264	21830	160839	27329	1058402	46431	108572	0	0	8181	564544	0	0
2024-09-26 11:21:47			0	37885	0	0	0	23259	21840	160855	27696	1058420	46465	108570	0	0	8181	564632	0	0
2024-09-26 11:22:47			0	37894	0	0	0	23262	21840	160767	27331	1058394	46454	108571	0	0	8181	564273	0	0
2024-09-26 11:23:47			0	37903	0	0	0	23264	21840	160747	27326	1058474	46465	108572	0	0	8182	563915	0	0
2024-09-26 11:24:47			0	37893	0	0	0	23262	21850	160727	27476	1058491	46466	108571	0	0	8181	564282	0	0
2024-09-26 11:25:47			0	37893	0	0	0	23259	21840	160807	27305	1058394	46465	108570	0	0	8181	564313	0	0
2024-09-26 11:26:47			0	37909	0	0	0	23259	21830	160791	27192	1058465	46453	108570	0	0	8182	563707	0	0
2024-09-26 11:27:47			0	37921	0	0	0	23259	21840	160735	27258	1058474	46454	108570	0	0	8183	563198	0	0
2024-09-26 11:28:47			0	37914	0	0	0	23275	21840	160695	27715	1058483	46454	108576	0	0	8182	563477	0	0
2024-09-26 11:29:47			0	37918	0	0	0	23267	21840	160599	27473	1058447	46443	108573	0	0	8182	563317	0	0
2024-09-26 11:30:47			0	37906	0	0	0	23270	21840	160631	27412	1058483	46443	108574	0	0	8182	563795	0	0
2024-09-26 11:31:47			0	37922	0	0	0	23277	21840	160679	27614	1058563	46432	108577	0	0	8183	563158	0	0
2024-09-26 11:32:47			0	37925	0	0	0	23275	21840	160671	27639	1058483	46454	108576	0	0	8183	563039	0	0
2024-09-26 11:33:47			0	37926	0	0	0	23280	21850	160719	27462	1058500	46455	108578	0	0	8183	562968	0	0
2024-09-26 11:34:47			0	37946	0	0	0	23270	21860	160671	27582	1058563	46456	108574	0	0	8184	562141	0	0
2024-09-26 11:35:47			0	37916	0	0	0	23272	21840	160615	27568	1058509	46465	108575	0	0	8182	563397	0	0
2024-09-26 11:36:47			0	37936	0	0	0	23280	21860	160687	27455	1058536	46456	108578	0	0	8183	562538	0	0
2024-09-26 11:37:47			0	37945	0	0	0	23283	21860	160699	27249	1058563	46456	108579	0	0	8184	562181	0	0
2024-09-26 11:38:47			0	37929	0	0	0	23283	21850	160579	27679	1058580	46444	108579	0	0	8183	562848	0	0
2024-09-26 11:39:47			0	37947	0	0	0	23280	21860	160603	27424	1058563	46467	108578	0	0	8184	562101	0	0
2024-09-26 11:40:47			0	37949	0	0	0	23280	21850	160507	27703	1058500	46444	108578	0	0	8184	562053	0	0
2024-09-26 11:41:47			0	37960	0	0	0	23285	21850	160519	27907	1058580	46455	108580	0	0	8185	561616	0	0
2024-09-26 11:42:47			0	37961	0	0	0	23285	21850	160495	27322	1058518	46444	108580	0	0	8185	561576	0	0
2024-09-26 11:43:47			0	37938	0	0	0	23283	21860	160487	27504	1058563	46456	108579	0	0	8183	562459	0	0
2024-09-26 11:44:47			0	37975	0	0	0	23288	21860	160391	27471	1058563	46456	108581	0	0	8186	560989	0	0
2024-09-26 11:45:47			0	37973	0	0	0	23290	21860	160383	27654	1058563	46467	108582	0	0	8185	561068	0	0
2024-09-26 11:46:47			0	37986	0	0	0	23288	21850	160383	27486	1058554	46455	108581	0	0	8186	560583	0	0
2024-09-26 11:47:47			0	38009	0	0	0	23288	21860	160259	27307	1058652	46457	108581	0	0	8188	559640	0	0
2024-09-26 11:48:47			0	38011	0	0	0	23288	21860	160319	27365	1058625	46468	108581	0	0	8188	559561	0	0
2024-09-26 11:49:47			0	37988	0	0	0	23301	21860	160299	27272	1058545	46457	108586	0	0	8186	560473	0	0
2024-09-26 11:50:47			0	38017	0	0	0	23298	21860	160327	27319	1058625	46457	108585	0	0	8188	559323	0	0
2024-09-26 11:51:47			0	38010	0	0	0	23298	21860	160283	27710	1058643	46467	108585	0	0	8187	559600	0	0
2024-09-26 11:52:47			0	38013	0	0	0	23301	21870	160303	27685	1058670	46457	108586	0	0	8188	559450	0	0
2024-09-26 11:53:47			0	38029	0	0	0	23309	21870	160280	27545	1058634	46468	108589	0	0	8188	558816	0	0
2024-09-26 11:54:47			0	38029	0	0	0	23311	21870	160136	27396	1058634	46468	108590	0	0	8188	558816	0	0
2024-09-26 11:55:47			0	38040	0	0	0	23311	21870	160148	27452	1058670	46468	108590	0	0	8189	558381	0	0
2024-09-26 11:56:47			0	38042	0	0	0	23324	21880	160240	27602	1058705	46480	108595	0	0	8189	558270	0	0
2024-09-26 11:57:47			0	38065	0	0	0	23332	21880	160108	27562	1058705	46480	108598	0	0	8190	557361	0	0
2024-09-26 11:58:47			0	38082	0	0	0	23324	21890	159956	27455	1058803	46470	108595	0	0	8191	556658	0	0
2024-09-26 11:59:47			0	38084	0	0	0	23322	21890	159992	27403	1058785	46470	108594	0	0	8192	556579	0	0
2024-09-26 12:00:47			0	38070	0	0	0	23319	21890	160016	27625	1058785	46458	108593	0	0	8191	557132	0	0
2024-09-26 12:01:47			0	38098	0	0	0	23324	21890	159932	27639	1058785	46481	108595	0	0	8192	556026	0	0
2024-09-26 12:02:47			0	38085	0	0	0	23350	21900	159968	27599	1058768	46449	108605	0	0	8191	556508	0	0
2024-09-26 12:03:47			0	38118	0	0	0	23348	21900	159856	27497	1058803	46460	108604	0	0	8193	555206	0	0
2024-09-26 12:04:47			0	38143	0	0	0	23358	21900	159800	27746	1058857	46472	108608	0	0	8194	554220	0	0
2024-09-26 12:05:47			0	38141	0	0	0	23348	21900	159820	27736	1058883	46472	108604	0	0	8194	554299	0	0
2024-09-26 12:06:47			0	38120	0	0	0	23340	21900	159852	27677	1058803	46483	108601	0	0	8193	555127	0	0
2024-09-26 12:07:47			0	38134	0	0	0	23345	21910	159644	27883	1058848	46461	108603	0	0	8194	554544	0	0
2024-09-26 12:08:47			0	38143	0	0	0	23353	21910	159628	27559	1058839	46483	108606	0	0	8195	554189	0	0
2024-09-26 12:09:47			0	38132	0	0	0	23342	21910	159640	27398	1058901	46461	108602	0	0	8194	554623	0	0
2024-09-26 12:10:47			0	38150	0	0	0	23353	21920	159684	27417	1058910	46484	108606	0	0	8195	553883	0	0
2024-09-26 12:11:47			0	38164	0	0	0	23361	21920	159640	27559	1058910	46484	108609	0	0	8196	553332	0	0
2024-09-26 12:12:47			0	38166	0	0	0	23353	21920	159548	27556	1058919	46462	108606	0	0	8196	553253	0	0
2024-09-26 12:13:47			0	38174	0	0	0	23371	21920	159556	27258	1058910	46473	108613	0	0	8196	552938	0	0
2024-09-26 12:14:47			0	38202	0	0	0	23361	21920	159496	27737	1058919	46474	108609	0	0	8198	551837	0	0
2024-09-26 12:15:47			0	38199	0	0	0	23361	21930	159576	27639	1058964	46475	108609	0	0	8198	551924	0	0
2024-09-26 12:16:47			0	38215	0	0	0	23381	21920	159540	27357	1058972	46462	108617	0	0	8198	551327	0	0
2024-09-26 12:17:47			0	38254	0	0	0	23361	21930	159460	27402	1058981	46463	108609	0	0	8201	549766	0	0
2024-09-26 12:18:47			0	38240	0	0	0	23373	21930	159328	27876	1059017	46475	108614	0	0	8200	550315	0	0
2024-09-26 12:19:47			0	38264	0	0	0	23384	21940	159420	27821	1059026	46486	108618	0	0	8201	549344	0	0
2024-09-26 12:20:47			0	38265	0	0	0	23389	21940	159280	27732	1058973	46475	108620	0	0	8201	549304	0	0
2024-09-26 12:21:47			0	38259	0	0	0	23373	21940	159280	27504	1058999	46486	108614	0	0	8201	549539	0	0
2024-09-26 12:22:47			0	38259	0	0	0	23379	21940	159276	27644	1059035	46476	108616	0	0	8201	549539	0	0
2024-09-26 12:23:47			0	38251	0	0	0	23384	21940	159312	27932	1059035	46454	108618	0	0	8200	549853	0	0
2024-09-26 12:24:47			0	38258	0	0	0	23379	21960	159296	27781	1059115	46477	108616	0	0	8201	549517	0	0
2024-09-26 12:25:47			0	38261	0	0	0	23399	21960	159252	27538	1059089	46466	108624	0	0	8201	549400	0	0
2024-09-26 12:26:47			0	38303	0	0	0	23394	21950	159068	27326	1059071	46477	108622	0	0	8203	547786	0	0
2024-09-26 12:27:47			0	38294	0	0	0	23399	21960	159132	27545	1059115	46477	108624	0	0	8203	548108	0	0
2024-09-26 12:28:47			0	38299	0	0	0	23379	21960	159176	27582	1059009	46477	108616	0	0	8203	547912	0	0
2024-09-26 12:29:47			0	38302	0	0	0	23397	21960	159156	27365	1059062	46455	108623	0	0	8203	547795	0	0
2024-09-26 12:30:47			0	38320	0	0	0	23394	21960	159040	27341	1059098	46467	108622	0	0	8204	547091	0	0
2024-09-26 12:31:47			0	38293	0	0	0	23384	21960	159144	27443	1059062	46455	108618	0	0	8203	548147	0	0
2024-09-26 12:32:47			0	38302	0	0	0	23386	21950	158980	27123	1059080	46466	108619	0	0	8203	547826	0	0
2024-09-26 12:33:47			0	38316	0	0	0	23384	21960	159072	27467	1059115	46477	108618	0	0	8204	547248	0	0
2024-09-26 12:34:47			0	38309	0	0	0	23397	21960	158992	27580	1059062	46466	108623	0	0	8204	547521	0	0
2024-09-26 12:35:47			0	38319	0	0	0	23389	21960	158984	27435	1059098	46467	108620	0	0	8204	547130	0	0
2024-09-26 12:36:47			0	38332	0	0	0	23384	21960	158952	27538	1059098	46478	108618	0	0	8205	546622	0	0
2024-09-26 12:37:47			0	38327	0	0	0	23394	21960	159052	27639	1059169	46477	108622	0	0	8205	546818	0	0
2024-09-26 12:38:47			0	38332	0	0	0	23405	21960	158904	27571	1059195	46455	108626	0	0	8205	546622	0	0
2024-09-26 12:39:47			0	38356	0	0	0	23405	21960	158804	27374	1059178	46478	108626	0	0	8206	545686	0	0
2024-09-26 12:40:47			0	38365	0	0	0	23399	21960	158752	27585	1059178	46467	108624	0	0	8207	545335	0	0
2024-09-26 12:41:47			0	38363	0	0	0	23405	21970	158772	27281	1059142	46457	108626	0	0	8207	545382	0	0
2024-09-26 12:42:47			0	38380	0	0	0	23405	21960	158840	27486	1059204	46489	108626	0	0	8208	544750	0	0
2024-09-26 12:43:47			0	38377	0	0	0	23410	21980	158728	27417	1059240	46469	108628	0	0	8208	544806	0	0
2024-09-26 12:44:47			0	38389	0	0	0	23399	21970	158788	27267	1059213	46467	108624	0	0	8208	544369	0	0
2024-09-26 12:45:47			0	38365	0	0	0	23394	21970	158824	27473	1059160	46457	108622	0	0	8207	545304	0	0
2024-09-26 12:46:47			0	38353	0	0	0	23394	21970	158844	27308	1059169	46479	108622	0	0	8206	545772	0	0
2024-09-26 12:47:47			0	38362	0	0	0	23392	21970	158840	27441	1059142	46467	108621	0	0	8207	545421	0	0
2024-09-26 12:48:47			0	38365	0	0	0	23410	21970	158888	27473	1059213	46457	108628	0	0	8207	545304	0	0
2024-09-26 12:49:47			0	38355	0	0	0	23397	21970	158864	27626	1059169	46467	108623	0	0	8206	545694	0	0
2024-09-26 12:50:47			0	38356	0	0	0	23399	21970	158880	27556	1059187	46457	108624	0	0	8206	545655	0	0
2024-09-26 12:51:47			0	38355	0	0	0	23407	21970	158908	27258	1059160	46457	108627	0	0	8206	545694	0	0
2024-09-26 12:52:47			0	38360	0	0	0	23407	21980	158800	27374	1059231	46467	108627	0	0	8207	545469	0	0
2024-09-26 12:53:47			0	38367	0	0	0	23399	21960	158688	27443	1059231	46456	108624	0	0	8207	545257	0	0
2024-09-26 12:54:47			0	38362	0	0	0	23402	21960	158656	27398	1059258	46467	108625	0	0	8207	545452	0	0
2024-09-26 12:55:47			0	38390	0	0	0	23405	21970	158756	27367	1059169	46467	108626	0	0	8208	544330	0	0
2024-09-26 12:56:47			0	38365	0	0	0	23402	21980	158600	27587	1059205	46479	108625	0	0	8207	545274	0	0
2024-09-26 12:57:47			0	38392	0	0	0	23412	21970	158680	27822	1059116	46457	108629	0	0	8208	544252	0	0
2024-09-26 12:58:47			0	38382	0	0	0	23407	21980	158552	27758	1059214	46469	108627	0	0	8208	544611	0	0
2024-09-26 12:59:47			0	38378	0	0	0	23402	21990	158592	27452	1059196	46470	108625	0	0	8208	544737	0	0
2024-09-26 13:00:47			0	38357	0	0	0	23405	21970	158716	27590	1059169	46457	108626	0	0	8206	545616	0	0
2024-09-26 13:01:47			0	38376	0	0	0	23399	21970	158728	27999	1059213	46467	108624	0	0	8208	544875	0	0
2024-09-26 13:02:47			0	38371	0	0	0	23407	21980	158644	27791	1059205	46467	108627	0	0	8207	545040	0	0
2024-09-26 13:03:47			0	38387	0	0	0	23423	21970	158576	27476	1059249	46479	108633	0	0	8208	544447	0	0
2024-09-26 13:04:47			0	38405	0	0	0	23410	21980	158584	27490	1059267	46469	108628	0	0	8209	543716	0	0
2024-09-26 13:05:47			0	38396	0	0	0	23402	21970	158704	27538	1059267	46467	108625	0	0	8209	544096	0	0
2024-09-26 13:06:47			0	38392	0	0	0	23412	21990	158716	27479	1059276	46481	108629	0	0	8208	544191	0	0
2024-09-26 13:07:47			0	38397	0	0	0	23407	21980	158620	27282	1059240	46447	108627	0	0	8209	544027	0	0
2024-09-26 13:08:47			0	38392	0	0	0	23410	21980	158664	27809	1059187	46480	108628	0	0	8208	544222	0	0
2024-09-26 13:09:47			0	38395	0	0	0	23425	21990	158604	27317	1059196	46470	108634	0	0	8208	544074	0	0
2024-09-26 13:10:47			0	38387	0	0	0	23415	21980	158596	27398	1059240	46480	108630	0	0	8208	544416	0	0
2024-09-26 13:11:47			0	38393	0	0	0	23412	21990	158688	27672	1059231	46493	108629	0	0	8208	544152	0	0
2024-09-26 13:12:47			0	38392	0	0	0	23410	21990	158688	27618	1059276	46458	108628	0	0	8208	544191	0	0
2024-09-26 13:13:47			0	38373	0	0	0	23410	21990	158748	27441	1059311	46459	108628	0	0	8207	544932	0	0
2024-09-26 13:14:47			0	38399	0	0	0	23425	22000	158664	27677	1059294	46459	108634	0	0	8209	543888	0	0
2024-09-26 13:15:47			0	38421	0	0	0	23423	21990	158648	27279	1059303	46458	108633	0	0	8210	543063	0	0
2024-09-26 13:16:47			0	38405	0	0	0	23425	21980	158620	27708	1059294	46469	108634	0	0	8209	543716	0	0
2024-09-26 13:17:47			0	38416	0	0	0	23431	21980	158524	27727	1059294	46480	108636	0	0	8209	543287	0	0
2024-09-26 13:18:47			0	38431	0	0	0	23423	21990	158460	27523	1059391	46482	108633	0	0	8210	542674	0	0
2024-09-26 13:19:47			0	38429	0	0	0	23428	21990	158416	27483	1059303	46481	108635	0	0	8210	542751	0	0
2024-09-26 13:20:47			0	38437	0	0	0	23428	21990	158404	27459	1059365	46471	108635	0	0	8211	542440	0	0
2024-09-26 13:21:47			0	38444	0	0	0	23436	22010	158416	27498	1059338	46483	108638	0	0	8211	542108	0	0
2024-09-26 13:22:47			0	38435	0	0	0	23420	22010	158284	27436	1059329	46459	108632	0	0	8211	542458	0	0
2024-09-26 13:23:47			0	38426	0	0	0	23415	21990	158444	27587	1059276	46448	108630	0	0	8210	542868	0	0
2024-09-26 13:24:47			0	38430	0	0	0	23428	22000	158492	27718	1059374	46459	108635	0	0	8210	542682	0	0
2024-09-26 13:25:47			0	38440	0	0	0	23436	22000	158356	27466	1059347	46482	108638	0	0	8211	542294	0	0
2024-09-26 13:26:47			0	38454	0	0	0	23441	22010	158336	27409	1059365	46483	108640	0	0	8212	541720	0	0
2024-09-26 13:27:47			0	38457	0	0	0	23433	22010	158376	27630	1059409	46482	108637	0	0	8212	541603	0	0
2024-09-26 13:28:47			0	38486	0	0	0	23449	22020	158224	27495	1059401	46484	108643	0	0	8213	540448	0	0
2024-09-26 13:29:47			0	38501	0	0	0	23457	22020	158096	27614	1059374	46473	108646	0	0	8214	539866	0	0
2024-09-26 13:30:47			0	38514	0	0	0	23457	22010	158192	27562	1059445	46494	108646	0	0	8215	539393	0	0
2024-09-26 13:31:47			0	38498	0	0	0	23438	22030	158136	27848	1059419	46461	108639	0	0	8214	539952	0	0
2024-09-26 13:32:47			0	38483	0	0	0	23428	22020	158244	27682	1059401	46484	108635	0	0	8214	540564	0	0
2024-09-26 13:33:47			0	38498	0	0	0	23459	22020	158160	27416	1059427	46461	108647	0	0	8214	539982	0	0
2024-09-26 13:34:47			0	38490	0	0	0	23449	22020	158008	27422	1059436	46484	108643	0	0	8214	540292	0	0
2024-09-26 13:35:47			0	38495	0	0	0	23449	22020	158268	27526	1059427	46473	108643	0	0	8214	540099	0	0
2024-09-26 13:36:47			0	38485	0	0	0	23446	22030	158208	27360	1059419	46461	108642	0	0	8213	540456	0	0
2024-09-26 13:37:47			0	38503	0	0	0	23457	22020	158144	27696	1059401	46473	108646	0	0	8214	539789	0	0
2024-09-26 13:38:47			0	38514	0	0	0	23457	22020	158120	27781	1059516	46473	108646	0	0	8215	539362	0	0
2024-09-26 13:39:47			0	38507	0	0	0	23451	22030	158160	27516	1059499	46484	108644	0	0	8215	539604	0	0
2024-09-26 13:40:47			0	38507	0	0	0	23444	22030	158164	27372	1059499	46451	108641	0	0	8215	539604	0	0
2024-09-26 13:41:47			0	38490	0	0	0	23457	22030	158220	27679	1059472	46484	108646	0	0	8214	540262	0	0
2024-09-26 13:42:47			0	38500	0	0	0	23457	22020	158056	27828	1059463	46461	108646	0	0	8214	539905	0	0
2024-09-26 13:43:47			0	38516	0	0	0	23444	22030	158048	27618	1059499	46473	108641	0	0	8215	539255	0	0
2024-09-26 13:44:47			0	38533	0	0	0	23470	22020	158012	27409	1059490	46495	108651	0	0	8216	538627	0	0
2024-09-26 13:45:47			0	38542	0	0	0	23472	22040	158020	27665	1059543	46475	108652	0	0	8216	538219	0	0
2024-09-26 13:46:47			0	38559	0	0	0	23472	22030	157928	27628	1059534	46474	108652	0	0	8217	537591	0	0
2024-09-26 13:47:47			0	38579	0	0	0	23467	22030	157916	27474	1059534	46462	108650	0	0	8219	536819	0	0
2024-09-26 13:48:47			0	38561	0	0	0	23462	22040	157852	27447	1059490	46486	108648	0	0	8218	537484	0	0
2024-09-26 13:49:47			0	38587	0	0	0	23475	22040	157900	27601	1059490	46463	108653	0	0	8219	536480	0	0
2024-09-26 13:50:47			0	38577	0	0	0	23464	22030	157716	27557	1059561	46474	108649	0	0	8218	536896	0	0
2024-09-26 13:51:47			0	38562	0	0	0	23454	22040	157816	27689	1059517	46463	108645	0	0	8218	537445	0	0
2024-09-26 13:52:47			0	38517	0	0	0	23444	22040	157972	27348	1059525	46475	108641	0	0	8215	539186	0	0
2024-09-26 13:53:47			0	38514	0	0	0	23459	22030	157976	27722	1059481	46485	108647	0	0	8215	539332	0	0
2024-09-26 13:54:47			0	38538	0	0	0	23459	22040	158000	27609	1059490	46475	108647	0	0	8216	538373	0	0
2024-09-26 13:55:47			0	38537	0	0	0	23475	22040	157900	27377	1059543	46475	108653	0	0	8216	538412	0	0
2024-09-26 13:56:47			0	38586	0	0	0	23477	22040	157776	27331	1059552	46475	108654	0	0	8219	536518	0	0
2024-09-26 13:57:47			0	38565	0	0	0	23462	22030	157820	27464	1059561	46485	108648	0	0	8218	537359	0	0
2024-09-26 13:58:47			0	38568	0	0	0	23459	22040	157784	27402	1059490	46475	108647	0	0	8218	537213	0	0
2024-09-26 13:59:47			0	38565	0	0	0	23467	22040	157820	27462	1059543	46463	108650	0	0	8218	537329	0	0
2024-09-26 14:00:47			0	38545	0	0	0	23462	22040	157900	27604	1059525	46453	108648	0	0	8217	538103	0	0
2024-09-26 14:01:47			0	38529	0	0	0	23457	22040	157892	27670	1059490	46475	108646	0	0	8216	538722	0	0
2024-09-26 14:02:47			0	38534	0	0	0	23472	22050	157844	27464	1059561	46486	108652	0	0	8216	538498	0	0
2024-09-26 14:03:47			0	38566	0	0	0	23472	22040	157776	27680	1059525	46486	108652	0	0	8218	537291	0	0
2024-09-26 14:04:47			0	38596	0	0	0	23475	22050	157772	27670	1059588	46486	108653	0	0	8219	536103	0	0
2024-09-26 14:05:47			0	38600	0	0	0	23467	22050	157784	27563	1059561	46475	108650	0	0	8220	535948	0	0
2024-09-26 14:06:47			0	38582	0	0	0	23472	22050	157732	27343	1059534	46475	108652	0	0	8219	536643	0	0
2024-09-26 14:07:47			0	38592	0	0	0	23480	22040	157688	27242	1059543	46463	108655	0	0	8219	536287	0	0
2024-09-26 14:08:47			0	38605	0	0	0	23472	22040	157712	27282	1059525	46463	108652	0	0	8220	535785	0	0
2024-09-26 14:09:47			0	38611	0	0	0	23475	22050	157604	27512	1059614	46463	108653	0	0	8220	535524	0	0
2024-09-26 14:10:47			0	38583	0	0	0	23472	22050	157792	27383	1059534	46463	108652	0	0	8219	536604	0	0
2024-09-26 14:11:47			0	38594	0	0	0	23480	22060	157804	27649	1059606	46488	108655	0	0	8219	536150	0	0
2024-09-26 14:12:47			0	38584	0	0	0	23475	22060	157748	27765	1059579	46488	108653	0	0	8219	536536	0	0
2024-09-26 14:13:47			0	38603	0	0	0	23480	22050	157752	27362	1059561	46475	108655	0	0	8220	535832	0	0
2024-09-26 14:14:47			0	38604	0	0	0	23470	22050	157788	27566	1059588	46475	108651	0	0	8220	535794	0	0
2024-09-26 14:15:47			0	38571	0	0	0	23467	22050	157832	27540	1059561	46463	108650	0	0	8218	537068	0	0
2024-09-26 14:16:47			0	38586	0	0	0	23477	22050	157776	27741	1059623	46464	108654	0	0	8219	536488	0	0
2024-09-26 14:17:47			0	38606	0	0	0	23485	22040	157696	27828	1059605	46463	108657	0	0	8220	535747	0	0
2024-09-26 14:18:47			0	38614	0	0	0	23475	22050	157652	27722	1059588	46463	108653	0	0	8221	535408	0	0
2024-09-26 14:19:47			0	38624	0	0	0	23480	22050	157596	27708	1059588	46463	108655	0	0	8221	535023	0	0
2024-09-26 14:20:47			0	38621	0	0	0	23480	22040	157612	27706	1059632	46442	108655	0	0	8221	535168	0	0
2024-09-26 14:21:47			0	38614	0	0	0	23475	22050	157628	27557	1059597	46476	108653	0	0	8221	535408	0	0
2024-09-26 14:22:47			0	38606	0	0	0	23472	22050	157716	27410	1059597	46487	108652	0	0	8220	535717	0	0
2024-09-26 14:23:47			0	38596	0	0	0	23472	22050	157672	27595	1059623	46487	108652	0	0	8220	536103	0	0
2024-09-26 14:24:47			0	38619	0	0	0	23477	22050	157820	27670	1059588	46475	108654	0	0	8221	535216	0	0
2024-09-26 14:25:47			0	38597	0	0	0	23472	22060	157740	27514	1059615	46489	108652	0	0	8220	536034	0	0
2024-09-26 14:26:47			0	38588	0	0	0	23477	22060	157780	27258	1059553	46477	108654	0	0	8219	536381	0	0
2024-09-26 14:27:47			0	38583	0	0	0	23467	22040	157788	27556	1059605	46463	108650	0	0	8219	536634	0	0
2024-09-26 14:28:47			0	38587	0	0	0	23472	22050	157812	27618	1059588	46475	108652	0	0	8219	536450	0	0
2024-09-26 14:29:47			0	38585	0	0	0	23472	22050	157852	27329	1059588	46475	108652	0	0	8219	536527	0	0
2024-09-26 14:30:47			0	38586	0	0	0	23464	22050	157904	27498	1059570	46464	108649	0	0	8219	536488	0	0
2024-09-26 14:31:47			0	38578	0	0	0	23470	22050	157820	27495	1059561	46453	108651	0	0	8219	536797	0	0
2024-09-26 14:32:47			0	38579	0	0	0	23475	22050	157820	27466	1059570	46454	108653	0	0	8218	536759	0	0
2024-09-26 14:33:47			0	38582	0	0	0	23470	22050	157740	27755	1059561	46453	108651	0	0	8219	536643	0	0
2024-09-26 14:34:47			0	38573	0	0	0	23472	22050	157728	27613	1059597	46476	108652	0	0	8218	536990	0	0
2024-09-26 14:35:47			0	38571	0	0	0	23467	22050	157744	27428	1059570	46476	108650	0	0	8218	537068	0	0
2024-09-26 14:36:47			0	38562	0	0	0	23462	22050	157940	27585	1059508	46486	108648	0	0	8218	537415	0	0
2024-09-26 14:37:47			0	38562	0	0	0	23459	22050	158024	27675	1059508	46486	108647	0	0	8218	537415	0	0
2024-09-26 14:38:47			0	38548	0	0	0	23462	22040	157936	27611	1059632	46463	108648	0	0	8217	537986	0	0
2024-09-26 14:39:47			0	38554	0	0	0	23485	22050	157972	27371	1059597	46464	108657	0	0	8217	537725	0	0
2024-09-26 14:40:47			0	38572	0	0	0	23488	22050	157788	27675	1059641	46475	108658	0	0	8218	537029	0	0
2024-09-26 14:41:47			0	38596	0	0	0	23485	22050	157784	27429	1059614	46497	108657	0	0	8219	536103	0	0
2024-09-26 14:42:47			0	38629	0	0	0	23483	22050	157660	27440	1059614	46486	108656	0	0	8221	534830	0	0
2024-09-26 14:43:47			0	38627	0	0	0	23477	22050	157684	27630	1059641	46486	108654	0	0	8221	534907	0	0
2024-09-26 14:44:47			0	38616	0	0	0	23472	22050	157660	27628	1059561	46475	108652	0	0	8221	535331	0	0
2024-09-26 14:45:47			0	38592	0	0	0	23477	22060	157804	27594	1059553	46477	108654	0	0	8219	536227	0	0
2024-09-26 14:46:47			0	38584	0	0	0	23483	22050	157752	27280	1059588	46486	108656	0	0	8219	536566	0	0
2024-09-26 14:47:47			0	38605	0	0	0	23493	22060	157740	27679	1059579	46477	108660	0	0	8220	535725	0	0
2024-09-26 14:48:47			0	38625	0	0	0	23485	22060	157712	27348	1059686	46477	108657	0	0	8221	534954	0	0
2024-09-26 14:49:47			0	38630	0	0	0	23490	22060	157676	27656	1059588	46500	108659	0	0	8221	534762	0	0
2024-09-26 14:50:47			0	38645	0	0	0	23488	22060	157632	27595	1059659	46465	108658	0	0	8222	534184	0	0
2024-09-26 14:51:47			0	38636	0	0	0	23488	22060	157612	27490	1059579	46465	108658	0	0	8222	534530	0	0
2024-09-26 14:52:47			0	38662	0	0	0	23485	22060	157528	27646	1059579	46488	108657	0	0	8223	533530	0	0
2024-09-26 14:53:47			0	38663	0	0	0	23483	22060	157484	27464	1059615	46478	108656	0	0	8223	533491	0	0
2024-09-26 14:54:47			0	38651	0	0	0	23490	22060	157524	27798	1059668	46500	108659	0	0	8222	533953	0	0
2024-09-26 14:55:47			0	38678	0	0	0	23496	22050	157584	27765	1059597	46498	108661	0	0	8224	532944	0	0
2024-09-26 14:56:47			0	38673	0	0	0	23493	22060	157436	27474	1059659	46499	108660	0	0	8224	533107	0	0
2024-09-26 14:57:47			0	38659	0	0	0	23488	22060	157464	27391	1059633	46499	108658	0	0	8223	533645	0	0
2024-09-26 14:58:47			0	38663	0	0	0	23485	22060	157444	27774	1059668	46478	108657	0	0	8223	533491	0	0
2024-09-26 14:59:47			0	38636	0	0	0	23485	22060	157484	27557	1059633	46465	108657	0	0	8222	534530	0	0
2024-09-26 15:00:47			0	38647	0	0	0	23475	22060	157564	27467	1059633	46488	108653	0	0	8222	534107	0	0
2024-09-26 15:01:47			0	38627	0	0	0	23477	22060	157576	27355	1059615	46456	108654	0	0	8221	534877	0	0
2024-09-26 15:02:47			0	38638	0	0	0	23477	22070	157564	27481	1059660	46500	108654	0	0	8222	534424	0	0
2024-09-26 15:03:47			0	38644	0	0	0	23483	22060	157532	27566	1059606	46488	108656	0	0	8222	534223	0	0
2024-09-26 15:04:47			0	38652	0	0	0	23483	22070	157500	27350	1059704	46489	108656	0	0	8223	533885	0	0
2024-09-26 15:05:47			0	38632	0	0	0	23480	22060	157644	27647	1059633	46477	108655	0	0	8222	534685	0	0
2024-09-26 15:06:47			0	38629	0	0	0	23493	22060	157560	27632	1059642	46478	108660	0	0	8221	534800	0	0
2024-09-26 15:07:47			0	38639	0	0	0	23480	22050	157544	27402	1059650	46464	108655	0	0	8222	534445	0	0
2024-09-26 15:08:47			0	38619	0	0	0	23475	22060	157764	27313	1059668	46466	108653	0	0	8221	535186	0	0
2024-09-26 15:09:47			0	38597	0	0	0	23480	22050	157688	27393	1059597	46498	108655	0	0	8219	536064	0	0
2024-09-26 15:10:47			0	38574	0	0	0	23467	22060	157748	27407	1059615	46478	108650	0	0	8218	536922	0	0
2024-09-26 15:11:47			0	38552	0	0	0	23472	22060	157904	27400	1059579	46465	108652	0	0	8217	537772	0	0
2024-09-26 15:12:47			0	38588	0	0	0	23480	22050	157828	27443	1059614	46486	108655	0	0	8219	536411	0	0
2024-09-26 15:13:47			0	38591	0	0	0	23485	22050	157824	27492	1059614	46486	108657	0	0	8219	536295	0	0
2024-09-26 15:14:47			0	38616	0	0	0	23485	22060	157732	27505	1059606	46488	108657	0	0	8221	535301	0	0
2024-09-26 15:15:47			0	38593	0	0	0	23475	22060	157728	27696	1059615	46478	108653	0	0	8219	536188	0	0
2024-09-26 15:16:47			0	38614	0	0	0	23477	22060	157740	27360	1059606	46477	108654	0	0	8221	535378	0	0
2024-09-26 15:17:47			0	38592	0	0	0	23472	22060	157816	27767	1059642	46466	108652	0	0	8219	536227	0	0
2024-09-26 15:18:47			0	38602	0	0	0	23480	22060	157696	27644	1059606	46465	108655	0	0	8220	535841	0	0
2024-09-26 15:19:47			0	38597	0	0	0	23475	22060	157712	27441	1059615	46478	108653	0	0	8220	536034	0	0
2024-09-26 15:20:47			0	38606	0	0	0	23490	22060	157752	27267	1059606	46477	108659	0	0	8220	535687	0	0
2024-09-26 15:21:47			0	38602	0	0	0	23467	22060	157724	27653	1059668	46466	108650	0	0	8220	535841	0	0
2024-09-26 15:22:47			0	38600	0	0	0	23459	22060	157752	27452	1059606	46477	108647	0	0	8220	535918	0	0
2024-09-26 15:23:47			0	38575	0	0	0	23470	22050	157920	27583	1059641	46486	108651	0	0	8218	536913	0	0
2024-09-26 15:24:47			0	38584	0	0	0	23470	22060	157796	27575	1059633	46488	108651	0	0	8219	536536	0	0
2024-09-26 15:25:47			0	38577	0	0	0	23464	22060	157832	27599	1059553	46477	108649	0	0	8219	536806	0	0
2024-09-26 15:26:47			0	38589	0	0	0	23467	22060	157816	27737	1059642	46478	108650	0	0	8219	536343	0	0
2024-09-26 15:27:47			0	38561	0	0	0	23477	22050	157872	27417	1059597	46487	108654	0	0	8217	537454	0	0
2024-09-26 15:28:47			0	38583	0	0	0	23467	22050	157804	27666	1059623	46476	108650	0	0	8219	536604	0	0
2024-09-26 15:29:47			0	38554	0	0	0	23462	22050	157800	27424	1059534	46453	108648	0	0	8217	537725	0	0
2024-09-26 15:30:47			0	38548	0	0	0	23462	22050	157988	27452	1059588	46442	108648	0	0	8217	537957	0	0
2024-09-26 15:31:47			0	38533	0	0	0	23470	22040	158044	27338	1059552	46486	108651	0	0	8216	538567	0	0
2024-09-26 15:32:47			0	38524	0	0	0	23467	22050	158040	27471	1059534	46463	108650	0	0	8215	538885	0	0
2024-09-26 15:33:47			0	38523	0	0	0	23464	22050	158076	27601	1059641	46463	108649	0	0	8215	538924	0	0
2024-09-26 15:34:47			0	38537	0	0	0	23462	22050	158052	27590	1059534	46497	108648	0	0	8216	538382	0	0
2024-09-26 15:35:47			0	38530	0	0	0	23459	22030	158112	27538	1059614	46485	108647	0	0	8216	538713	0	0
2024-09-26 15:36:47			0	38537	0	0	0	23477	22050	157936	27568	1059588	46475	108654	0	0	8216	538382	0	0
2024-09-26 15:37:47			0	38518	0	0	0	23464	22050	158072	27364	1059570	46476	108649	0	0	8215	539117	0	0
2024-09-26 15:38:47			0	38496	0	0	0	23464	22040	158056	27286	1059525	46486	108649	0	0	8214	540000	0	0
2024-09-26 15:39:47			0	38528	0	0	0	23470	22040	157992	27424	1059525	46475	108651	0	0	8216	538760	0	0
2024-09-26 15:40:47			0	38506	0	0	0	23462	22040	157952	27369	1059543	46463	108648	0	0	8214	539612	0	0
2024-09-26 15:41:47			0	38522	0	0	0	23464	22040	158044	27504	1059525	46453	108649	0	0	8215	538993	0	0
2024-09-26 15:42:47			0	38522	0	0	0	23449	22050	158128	27303	1059534	46486	108643	0	0	8216	538963	0	0
2024-09-26 15:43:47			0	38506	0	0	0	23459	22040	158228	27466	1059525	46453	108647	0	0	8214	539612	0	0
2024-09-26 15:44:47			0	38472	0	0	0	23451	22040	158316	27433	1059552	46463	108644	0	0	8213	540930	0	0
2024-09-26 15:45:47			0	38470	0	0	0	23459	22050	158196	27119	1059561	46475	108647	0	0	8212	540978	0	0
2024-09-26 15:46:47			0	38463	0	0	0	23462	22040	158236	27412	1059525	46475	108648	0	0	8212	541280	0	0
2024-09-26 15:47:47			0	38464	0	0	0	23459	22040	158240	27305	1059517	46497	108647	0	0	8212	541241	0	0
2024-09-26 15:48:47			0	38441	0	0	0	23446	22040	158340	27391	1059543	46463	108642	0	0	8211	542134	0	0
2024-09-26 15:49:47			0	38436	0	0	0	23457	22040	158248	27357	1059570	46475	108646	0	0	8210	542328	0	0
2024-09-26 15:50:47			0	38430	0	0	0	23454	22040	158280	27810	1059499	46463	108645	0	0	8210	542561	0	0
2024-09-26 15:51:47			0	38472	0	0	0	23457	22030	158244	27062	1059481	46474	108646	0	0	8212	540960	0	0
2024-09-26 15:52:47			0	38447	0	0	0	23459	22040	158192	27377	1059499	46475	108647	0	0	8211	541901	0	0
2024-09-26 15:53:47			0	38440	0	0	0	23464	22040	158432	27341	1059570	46453	108649	0	0	8211	542173	0	0
2024-09-26 15:54:47			0	38431	0	0	0	23454	22040	158336	27557	1059543	46463	108645	0	0	8210	542522	0	0
2024-09-26 15:55:47			0	38441	0	0	0	23464	22040	158300	27488	1059517	46475	108649	0	0	8211	542134	0	0
2024-09-26 15:56:47			0	38455	0	0	0	23464	22030	158324	27578	1059508	46462	108649	0	0	8211	541620	0	0
2024-09-26 15:57:47			0	38470	0	0	0	23470	22040	158324	27230	1059597	46475	108651	0	0	8212	541008	0	0
2024-09-26 15:58:47			0	38465	0	0	0	23472	22030	158112	27563	1059561	46474	108652	0	0	8212	541232	0	0
2024-09-26 15:59:47			0	38496	0	0	0	23472	22040	158120	27381	1059525	46475	108652	0	0	8214	540000	0	0
2024-09-26 16:00:47			0	38484	0	0	0	23464	22030	158080	27412	1059561	46452	108649	0	0	8213	540495	0	0
2024-09-26 16:01:47			0	38484	0	0	0	23470	22040	158100	27581	1059552	46486	108651	0	0	8213	540465	0	0
2024-09-26 16:02:47			0	38503	0	0	0	23467	22040	158108	27237	1059570	46475	108650	0	0	8214	539728	0	0
2024-09-26 16:03:47			0	38484	0	0	0	23467	22040	158036	27277	1059517	46475	108650	0	0	8213	540465	0	0
2024-09-26 16:04:47			0	38484	0	0	0	23462	22040	158148	27396	1059570	46486	108648	0	0	8213	540465	0	0
2024-09-26 16:05:47			0	38491	0	0	0	23464	22040	158124	27293	1059570	46475	108649	0	0	8214	540193	0	0
2024-09-26 16:06:47			0	38476	0	0	0	23467	22040	158212	27320	1059570	46463	108650	0	0	8213	540775	0	0
2024-09-26 16:07:47			0	38459	0	0	0	23459	22040	158204	27569	1059543	46475	108647	0	0	8212	541435	0	0
2024-09-26 16:08:47			0	38466	0	0	0	23457	22050	158268	27455	1059508	46463	108646	0	0	8212	541133	0	0
2024-09-26 16:09:47			0	38448	0	0	0	23459	22040	158328	27540	1059552	46463	108647	0	0	8211	541862	0	0
2024-09-26 16:10:47			0	38423	0	0	0	23462	22040	158380	27549	1059499	46475	108648	0	0	8210	542833	0	0
2024-09-26 16:11:47			0	38443	0	0	0	23467	22030	158340	27454	1059508	46462	108650	0	0	8211	542086	0	0
2024-09-26 16:12:47			0	38421	0	0	0	23449	22040	158360	27566	1059597	46453	108643	0	0	8210	542911	0	0
2024-09-26 16:13:47			0	38436	0	0	0	23464	22030	158292	27582	1059481	46462	108649	0	0	8210	542358	0	0
2024-09-26 16:14:47			0	38390	0	0	0	23457	22040	158564	27370	1059525	46475	108646	0	0	8208	544117	0	0
2024-09-26 16:15:47			0	38362	0	0	0	23449	22040	158648	27557	1059543	46463	108643	0	0	8206	545208	0	0
2024-09-26 16:16:47			0	38337	0	0	0	23459	22030	158732	27497	1059508	46462	108647	0	0	8205	546214	0	0
2024-09-26 16:17:47			0	38356	0	0	0	23464	22030	158756	27298	1059534	46474	108649	0	0	8206	545473	0	0
2024-09-26 16:18:47			0	38364	0	0	0	23462	22040	158732	27270	1059552	46507	108648	0	0	8206	545131	0	0
2024-09-26 16:19:47			0	38385	0	0	0	23462	22040	158664	27493	1059570	46486	108648	0	0	8207	544312	0	0
2024-09-26 16:20:47			0	38384	0	0	0	23464	22040	158604	27267	1059632	46486	108649	0	0	8207	544351	0	0
2024-09-26 16:21:47			0	38406	0	0	0	23467	22040	158644	27397	1059517	46453	108650	0	0	8209	543495	0	0
2024-09-26 16:22:47			0	38387	0	0	0	23454	22040	158544	27819	1059472	46486	108645	0	0	8208	544234	0	0
2024-09-26 16:23:47			0	38416	0	0	0	23459	22040	158596	27564	1059517	46486	108647	0	0	8209	543106	0	0
2024-09-26 16:24:47			0	38404	0	0	0	23464	22040	158548	27441	1059552	46463	108649	0	0	8208	543573	0	0
2024-09-26 16:25:47			0	38420	0	0	0	23464	22040	158436	27537	1059552	46463	108649	0	0	8209	542950	0	0
2024-09-26 16:26:47			0	38412	0	0	0	23459	22040	158444	27149	1059517	46486	108647	0	0	8209	543261	0	0
2024-09-26 16:27:47			0	38403	0	0	0	23464	22040	158592	27324	1059499	46486	108649	0	0	8208	543611	0	0
2024-09-26 16:28:47			0	38402	0	0	0	23462	22040	158628	27367	1059517	46463	108648	0	0	8208	543650	0	0
2024-09-26 16:29:47			0	38403	0	0	0	23464	22040	158612	27274	1059579	46486	108649	0	0	8208	543611	0	0
2024-09-26 16:30:47			0	38379	0	0	0	23464	22040	158644	27348	1059543	46463	108649	0	0	8207	544546	0	0
2024-09-26 16:31:47			0	38403	0	0	0	23462	22040	158516	27336	1059499	46463	108648	0	0	8208	543611	0	0
2024-09-26 16:32:47			0	38377	0	0	0	23459	22030	158636	27454	1059561	46485	108647	0	0	8207	544654	0	0
2024-09-26 16:33:47			0	38392	0	0	0	23459	22040	158492	27398	1059543	46463	108647	0	0	8208	544040	0	0
2024-09-26 16:34:47			0	38394	0	0	0	23464	22030	158444	27537	1059508	46474	108649	0	0	8208	543992	0	0
2024-09-26 16:35:47			0	38403	0	0	0	23454	22040	158484	27509	1059543	46453	108645	0	0	8209	543611	0	0
2024-09-26 16:36:47			0	38393	0	0	0	23459	22040	158688	27291	1059543	46463	108647	0	0	8208	544001	0	0
2024-09-26 16:37:47			0	38391	0	0	0	23457	22030	158592	27293	1059481	46462	108646	0	0	8208	544109	0	0
2024-09-26 16:38:47			0	38384	0	0	0	23459	22040	158564	27653	1059543	46475	108647	0	0	8207	544351	0	0
2024-09-26 16:39:47			0	38385	0	0	0	23451	22040	158628	27632	1059543	46463	108644	0	0	8208	544312	0	0
2024-09-26 16:40:47			0	38370	0	0	0	23449	22030	158632	27393	1059534	46462	108643	0	0	8207	544927	0	0
2024-09-26 16:41:47			0	38381	0	0	0	23449	22040	158688	27345	1059490	46475	108643	0	0	8207	544468	0	0
2024-09-26 16:42:47			0	38391	0	0	0	23457	22030	158588	27310	1059481	46474	108646	0	0	8208	544109	0	0
2024-09-26 16:43:47			0	38390	0	0	0	23449	22040	158560	27718	1059525	46486	108643	0	0	8208	544117	0	0
2024-09-26 16:44:47			0	38389	0	0	0	23454	22030	158612	27434	1059508	46462	108645	0	0	8208	544187	0	0
2024-09-26 16:45:47			0	38384	0	0	0	23451	22040	158668	27218	1059517	46475	108644	0	0	8208	544351	0	0
2024-09-26 16:46:47			0	38383	0	0	0	23451	22040	158712	27279	1059570	46475	108644	0	0	8207	544390	0	0
2024-09-26 16:47:47			0	38352	0	0	0	23451	22030	158652	27239	1059534	46462	108644	0	0	8206	545629	0	0
2024-09-26 16:48:47			0	38380	0	0	0	23449	22030	158568	27341	1059481	46485	108643	0	0	8207	544537	0	0
2024-09-26 16:49:47			0	38378	0	0	0	23457	22040	158612	27398	1059543	46463	108646	0	0	8207	544585	0	0
2024-09-26 16:50:47			0	38382	0	0	0	23459	22040	158632	27474	1059517	46463	108647	0	0	8207	544429	0	0
2024-09-26 16:51:47			0	38380	0	0	0	23444	22040	158684	27336	1059517	46463	108641	0	0	8207	544507	0	0
2024-09-26 16:52:47			0	38379	0	0	0	23454	22030	158608	27255	1059534	46462	108645	0	0	8207	544576	0	0
2024-09-26 16:53:47			0	38390	0	0	0	23457	22030	158676	27095	1059499	46461	108646	0	0	8208	544148	0	0
2024-09-26 16:54:47			0	38379	0	0	0	23454	22030	158688	27502	1059508	46485	108645	0	0	8207	544576	0	0
2024-09-26 16:55:47			0	38366	0	0	0	23454	22040	158660	27173	1059570	46463	108645	0	0	8206	545052	0	0
2024-09-26 16:56:47			0	38360	0	0	0	23451	22030	158716	27334	1059534	46485	108644	0	0	8206	545317	0	0
2024-09-26 16:57:47			0	38374	0	0	0	23462	22040	158652	27504	1059517	46475	108648	0	0	8207	544741	0	0
2024-09-26 16:58:47			0	38371	0	0	0	23451	22030	158684	27505	1059508	46474	108644	0	0	8207	544888	0	0
2024-09-26 16:59:47			0	38366	0	0	0	23457	22030	158708	27473	1059499	46473	108646	0	0	8206	545083	0	0
2024-09-26 17:00:47			0	38378	0	0	0	23449	22030	158624	27189	1059561	46462	108643	0	0	8207	544615	0	0
2024-09-26 17:01:47			0	38352	0	0	0	23454	22030	158736	27329	1059481	46485	108645	0	0	8206	545629	0	0
2024-09-26 17:02:47			0	38347	0	0	0	23449	22040	158812	27415	1059517	46475	108643	0	0	8205	545793	0	0
2024-09-26 17:03:47			0	38329	0	0	0	23449	22030	158760	27201	1059534	46474	108643	0	0	8204	546526	0	0
2024-09-26 17:04:47			0	38339	0	0	0	23454	22040	158720	27486	1059463	46475	108645	0	0	8205	546106	0	0
2024-09-26 17:05:47			0	38337	0	0	0	23454	22040	158772	27133	1059490	46486	108645	0	0	8205	546184	0	0
2024-09-26 17:06:47			0	38347	0	0	0	23454	22030	158680	27415	1059508	46474	108645	0	0	8205	545824	0	0
2024-09-26 17:07:47			0	38354	0	0	0	23449	22030	158708	27419	1059561	46474	108643	0	0	8206	545551	0	0
2024-09-26 17:08:47			0	38335	0	0	0	23449	22030	158676	27492	1059534	46485	108643	0	0	8205	546292	0	0
2024-09-26 17:09:47			0	38336	0	0	0	23451	22030	158688	27215	1059499	46461	108644	0	0	8205	546253	0	0
2024-09-26 17:10:47			0	38339	0	0	0	23449	22030	158720	27396	1059525	46484	108643	0	0	8205	546136	0	0
2024-09-26 17:11:47			0	38336	0	0	0	23451	22030	158728	27405	1059508	46474	108644	0	0	8205	546253	0	0
2024-09-26 17:12:47			0	38330	0	0	0	23449	22030	158840	27289	1059508	46474	108643	0	0	8204	546487	0	0
2024-09-26 17:13:47			0	38327	0	0	0	23446	22030	158712	27666	1059472	46484	108642	0	0	8204	546604	0	0
2024-09-26 17:14:47			0	38310	0	0	0	23446	22030	158784	27338	1059445	46473	108642	0	0	8203	547268	0	0
2024-09-26 17:15:47			0	38318	0	0	0	23446	22030	158808	27256	1059508	46474	108642	0	0	8204	546956	0	0
2024-09-26 17:16:47			0	38323	0	0	0	23446	22020	158776	27133	1059490	46473	108642	0	0	8204	546791	0	0
2024-09-26 17:17:47			0	38309	0	0	0	23449	22030	158856	27185	1059481	46485	108643	0	0	8203	547308	0	0
2024-09-26 17:18:47			0	38317	0	0	0	23436	22030	158860	27237	1059499	46484	108638	0	0	8204	546995	0	0
2024-09-26 17:19:47			0	38302	0	0	0	23454	22030	158748	27092	1059499	46473	108645	0	0	8203	547581	0	0
2024-09-26 17:20:47			0	38309	0	0	0	23451	22020	158868	27313	1059463	46484	108644	0	0	8203	547338	0	0
2024-09-26 17:21:47			0	38302	0	0	0	23451	22030	158840	27303	1059588	46462	108644	0	0	8203	547581	0	0
2024-09-26 17:22:47			0	38321	0	0	0	23446	22030	158800	27175	1059508	46485	108642	0	0	8204	546839	0	0
2024-09-26 17:23:47			0	38319	0	0	0	23459	22020	158832	27319	1059543	46473	108647	0	0	8203	546947	0	0
2024-09-26 17:24:47			0	38311	0	0	0	23451	22030	158964	27249	1059499	46473	108644	0	0	8203	547230	0	0
2024-09-26 17:25:47			0	38315	0	0	0	23444	22020	158888	27518	1059490	46473	108641	0	0	8204	547104	0	0
2024-09-26 17:26:47			0	38312	0	0	0	23451	22030	158968	27124	1059499	46473	108644	0	0	8203	547190	0	0
2024-09-26 17:27:47			0	38297	0	0	0	23449	22030	158868	26868	1059481	46474	108643	0	0	8202	547777	0	0
2024-09-26 17:28:47			0	38289	0	0	0	23444	22020	158964	27272	1059516	46484	108641	0	0	8202	548120	0	0
2024-09-26 17:29:47			0	38312	0	0	0	23446	22030	158948	27206	1059445	46473	108642	0	0	8203	547190	0	0
2024-09-26 17:30:47			0	38300	0	0	0	23441	22020	159056	27043	1059481	46473	108640	0	0	8203	547690	0	0
2024-09-26 17:31:47			0	38291	0	0	0	23438	22030	158948	27119	1059534	46462	108639	0	0	8202	548011	0	0
2024-09-26 17:32:47			0	38291	0	0	0	23444	22020	159044	27124	1059427	46451	108641	0	0	8202	548042	0	0
2024-09-26 17:33:47			0	38294	0	0	0	23446	22030	159104	27215	1059525	46484	108642	0	0	8202	547894	0	0
2024-09-26 17:34:47			0	38300	0	0	0	23438	22030	159048	27024	1059481	46462	108639	0	0	8203	547659	0	0
2024-09-26 17:35:47			0	38286	0	0	0	23441	22030	158952	27654	1059472	46473	108640	0	0	8202	548207	0	0
2024-09-26 17:36:47			0	38293	0	0	0	23438	22030	159100	27019	1059534	46462	108639	0	0	8202	547933	0	0
2024-09-26 17:37:47			0	38278	0	0	0	23444	22020	158984	27374	1059490	46461	108641	0	0	8201	548551	0	0
2024-09-26 17:38:47			0	38292	0	0	0	23444	22030	159052	26906	1059445	46484	108641	0	0	8202	547972	0	0
2024-09-26 17:39:47			0	38268	0	0	0	23446	22030	159088	27390	1059454	46474	108642	0	0	8201	548911	0	0
2024-09-26 17:40:47			0	38278	0	0	0	23441	22020	159128	27076	1059436	46473	108640	0	0	8201	548551	0	0
2024-09-26 17:41:47			0	38266	0	0	0	23431	22010	159168	27124	1059445	46483	108636	0	0	8201	549051	0	0
2024-09-26 17:42:47			0	38277	0	0	0	23433	22030	159184	27057	1059481	46496	108637	0	0	8202	548559	0	0
2024-09-26 17:43:47			0	38269	0	0	0	23436	22020	159144	26899	1059463	46484	108638	0	0	8201	548903	0	0
2024-09-26 17:44:47			0	38262	0	0	0	23436	22020	159244	27229	1059463	46484	108638	0	0	8201	549177	0	0
2024-09-26 17:45:47			0	38255	0	0	0	23433	22020	159288	27012	1059490	46495	108637	0	0	8200	549451	0	0
2024-09-26 17:46:47			0	38256	0	0	0	23438	22020	159220	27225	1059454	46484	108639	0	0	8200	549412	0	0
2024-09-26 17:47:47			0	38231	0	0	0	23433	22020	159252	27202	1059427	46484	108637	0	0	8199	550392	0	0
2024-09-26 17:48:47			0	38256	0	0	0	23436	22030	159320	27319	1059472	46484	108638	0	0	8200	549381	0	0
2024-09-26 17:49:47			0	38249	0	0	0	23433	22020	159268	27170	1059463	46473	108637	0	0	8200	549686	0	0
2024-09-26 17:50:47			0	38262	0	0	0	23436	22020	159316	27298	1059463	46473	108638	0	0	8201	549177	0	0
2024-09-26 17:51:47			0	38257	0	0	0	23433	22010	159152	27303	1059392	46472	108637	0	0	8200	549403	0	0
2024-09-26 17:52:47			0	38243	0	0	0	23425	22010	159228	27187	1059498	46450	108634	0	0	8200	549952	0	0
2024-09-26 17:53:47			0	38256	0	0	0	23431	22020	159256	27308	1059427	46461	108636	0	0	8200	549412	0	0
2024-09-26 17:54:47			0	38252	0	0	0	23436	22020	159248	27131	1059454	46484	108638	0	0	8200	549569	0	0
2024-09-26 17:55:47			0	38230	0	0	0	23438	22020	159276	27081	1059427	46484	108639	0	0	8199	550431	0	0
2024-09-26 17:56:47			0	38229	0	0	0	23431	22010	159264	27183	1059418	46460	108636	0	0	8199	550501	0	0
2024-09-26 17:57:47			0	38234	0	0	0	23420	22010	159276	27197	1059472	46483	108632	0	0	8199	550305	0	0
2024-09-26 17:58:47			0	38239	0	0	0	23425	22010	159456	27100	1059418	46483	108634	0	0	8199	550109	0	0
2024-09-26 17:59:47			0	38219	0	0	0	23431	22010	159328	27116	1059445	46472	108636	0	0	8198	550893	0	0
2024-09-26 18:00:47			0	38218	0	0	0	23425	22020	159288	27251	1059463	46461	108634	0	0	8198	550902	0	0
2024-09-26 18:01:47			0	38221	0	0	0	23431	22010	159376	27149	1059445	46483	108636	0	0	8198	550815	0	0
2024-09-26 18:02:47			0	38216	0	0	0	23428	22010	159356	27338	1059365	46483	108635	0	0	8198	551011	0	0
2024-09-26 18:03:47			0	38220	0	0	0	23425	22010	159384	27147	1059392	46472	108634	0	0	8198	550854	0	0
2024-09-26 18:04:47			0	38223	0	0	0	23428	22010	159404	27341	1059338	46483	108635	0	0	8198	550736	0	0
2024-09-26 18:05:47			0	38214	0	0	0	23433	22010	159392	27310	1059356	46471	108637	0	0	8198	551089	0	0
2024-09-26 18:06:47			0	38192	0	0	0	23433	22010	159392	27426	1059498	46472	108637	0	0	8196	551953	0	0
2024-09-26 18:07:47			0	38211	0	0	0	23425	22010	159420	27230	1059392	46460	108634	0	0	8198	551207	0	0
2024-09-26 18:08:47			0	38215	0	0	0	23428	22000	159492	27208	1059400	46471	108635	0	0	8198	551081	0	0
2024-09-26 18:09:47			0	38219	0	0	0	23431	22010	159428	26913	1059383	46459	108636	0	0	8198	550893	0	0
2024-09-26 18:10:47			0	38219	0	0	0	23423	22000	159452	27300	1059400	46482	108633	0	0	8198	550924	0	0
2024-09-26 18:11:47			0	38213	0	0	0	23423	22010	159476	27339	1059356	46459	108633	0	0	8198	551129	0	0
2024-09-26 18:12:47			0	38204	0	0	0	23418	22020	159444	27235	1059436	46461	108631	0	0	8197	551451	0	0
2024-09-26 18:13:47			0	38204	0	0	0	23425	21990	159500	27227	1059365	46449	108634	0	0	8197	551544	0	0
2024-09-26 18:14:47			0	38213	0	0	0	23431	22010	159420	27239	1059409	46482	108636	0	0	8198	551129	0	0
2024-09-26 18:15:47			0	38206	0	0	0	23418	22010	159556	26925	1059365	46483	108631	0	0	8198	551403	0	0
2024-09-26 18:16:47			0	38202	0	0	0	23415	21990	159544	27149	1059418	46471	108630	0	0	8197	551622	0	0
2024-09-26 18:17:47			0	38194	0	0	0	23425	22010	159588	27422	1059383	46459	108634	0	0	8197	551875	0	0
2024-09-26 18:18:47			0	38212	0	0	0	23428	21990	159576	27371	1059409	46470	108635	0	0	8198	551229	0	0
2024-09-26 18:19:47			0	38196	0	0	0	23423	22000	159452	27270	1059374	46471	108633	0	0	8197	551827	0	0
2024-09-26 18:20:47			0	38206	0	0	0	23431	22010	159564	27378	1059383	46482	108636	0	0	8197	551403	0	0
2024-09-26 18:21:47			0	38178	0	0	0	23431	22000	159552	27329	1059320	46482	108636	0	0	8196	552534	0	0
2024-09-26 18:22:47			0	38195	0	0	0	23433	22010	159532	27131	1059409	46459	108637	0	0	8197	551836	0	0
2024-09-26 18:23:47			0	38195	0	0	0	23418	22010	159568	27521	1059383	46459	108631	0	0	8197	551836	0	0
2024-09-26 18:24:47			0	38178	0	0	0	23425	22010	159556	27202	1059383	46482	108634	0	0	8196	552504	0	0
2024-09-26 18:25:47			0	38188	0	0	0	23436	22010	159552	27260	1059463	46482	108638	0	0	8196	552111	0	0
2024-09-26 18:26:47			0	38183	0	0	0	23436	22000	159588	27265	1059427	46471	108638	0	0	8196	552338	0	0
2024-09-26 18:27:47			0	38198	0	0	0	23420	22010	159548	27254	1059365	46460	108632	0	0	8197	551718	0	0
2024-09-26 18:28:47			0	38170	0	0	0	23418	22010	159688	27079	1059409	46471	108631	0	0	8195	552818	0	0
2024-09-26 18:29:47			0	38178	0	0	0	23415	22000	159636	27255	1059374	46482	108630	0	0	8196	552534	0	0
2024-09-26 18:30:47			0	38158	0	0	0	23412	22010	159692	26842	1059392	46472	108629	0	0	8195	553290	0	0
2024-09-26 18:31:47			0	38151	0	0	0	23410	21990	159708	27022	1059391	46471	108628	0	0	8194	553627	0	0
2024-09-26 18:32:47			0	38135	0	0	0	23418	22000	159708	27332	1059374	46493	108631	0	0	8193	554227	0	0
2024-09-26 18:33:47			0	38147	0	0	0	23407	22000	159724	27251	1059374	46482	108627	0	0	8194	553754	0	0
2024-09-26 18:34:47			0	38153	0	0	0	23412	22010	159656	27022	1059356	46471	108629	0	0	8195	553487	0	0
2024-09-26 18:35:47			0	38124	0	0	0	23418	22000	159836	27211	1059347	46459	108631	0	0	8193	554660	0	0
2024-09-26 18:36:47			0	38133	0	0	0	23418	22010	159820	27029	1059356	46459	108631	0	0	8193	554274	0	0
2024-09-26 18:37:47			0	38126	0	0	0	23410	22000	159920	27164	1059320	46482	108628	0	0	8193	554581	0	0
2024-09-26 18:38:47			0	38129	0	0	0	23412	22010	159880	27161	1059409	46471	108629	0	0	8193	554432	0	0
2024-09-26 18:39:47			0	38111	0	0	0	23423	21990	159844	27145	1059356	46481	108633	0	0	8192	555203	0	0
2024-09-26 18:40:47			0	38126	0	0	0	23425	21990	159800	27078	1059329	46481	108634	0	0	8193	554612	0	0
2024-09-26 18:41:47			0	38142	0	0	0	23423	21990	159792	27052	1059391	46471	108633	0	0	8194	553982	0	0
2024-09-26 18:42:47			0	38131	0	0	0	23420	22000	159684	27362	1059347	46471	108632	0	0	8193	554384	0	0
2024-09-26 18:43:47			0	38140	0	0	0	23425	21990	159696	27161	1059463	46481	108634	0	0	8193	554060	0	0
2024-09-26 18:44:47			0	38152	0	0	0	23423	22000	159840	27293	1059374	46471	108633	0	0	8194	553557	0	0
2024-09-26 18:45:47			0	38150	0	0	0	23410	22000	159700	27435	1059400	46449	108628	0	0	8194	553636	0	0
2024-09-26 18:46:47			0	38138	0	0	0	23412	22010	159712	27358	1059356	46482	108629	0	0	8194	554077	0	0
2024-09-26 18:47:47			0	38140	0	0	0	23412	21980	159800	27055	1059320	46458	108629	0	0	8194	554091	0	0
2024-09-26 18:48:47			0	38138	0	0	0	23425	21990	159824	27209	1059391	46471	108634	0	0	8193	554139	0	0
2024-09-26 18:49:47			0	38140	0	0	0	23418	21980	159824	27152	1059347	46480	108631	0	0	8194	554091	0	0
2024-09-26 18:50:47			0	38130	0	0	0	23415	21990	159908	27086	1059365	46471	108630	0	0	8193	554454	0	0
2024-09-26 18:51:47			0	38127	0	0	0	23412	21980	159784	27008	1059347	46480	108629	0	0	8193	554604	0	0
2024-09-26 18:52:47			0	38127	0	0	0	23407	22000	159800	27097	1059374	46482	108627	0	0	8193	554542	0	0
2024-09-26 18:53:47			0	38118	0	0	0	23412	22000	159920	27504	1059320	46471	108629	0	0	8192	554896	0	0
2024-09-26 18:54:47			0	38105	0	0	0	23405	21980	159792	27253	1059374	46480	108626	0	0	8192	555471	0	0
2024-09-26 18:55:47			0	38082	0	0	0	23407	21990	159896	27208	1059365	46471	108627	0	0	8190	556348	0	0
2024-09-26 18:56:47			0	38103	0	0	0	23412	21990	159816	27345	1059365	46493	108629	0	0	8192	555519	0	0
2024-09-26 18:57:47			0	38114	0	0	0	23418	21980	159852	27112	1059374	46469	108631	0	0	8192	555116	0	0
2024-09-26 18:58:47			0	38093	0	0	0	23407	21990	159916	26868	1059365	46459	108627	0	0	8191	555913	0	0
2024-09-26 18:59:47			0	38095	0	0	0	23399	21980	160004	27431	1059320	46469	108624	0	0	8191	555865	0	0
2024-09-26 19:00:47			0	38074	0	0	0	23418	21990	160004	27097	1059285	46482	108631	0	0	8190	556663	0	0
2024-09-26 19:01:47			0	38091	0	0	0	23420	21990	159992	27031	1059409	46481	108632	0	0	8191	555992	0	0
2024-09-26 19:02:47			0	38092	0	0	0	23418	21980	159944	27253	1059285	46467	108631	0	0	8191	555984	0	0
2024-09-26 19:03:47			0	38095	0	0	0	23412	21980	160040	27291	1059320	46469	108629	0	0	8191	555865	0	0
2024-09-26 19:04:47			0	38107	0	0	0	23415	21990	159960	27265	1059329	46481	108630	0	0	8192	555361	0	0
2024-09-26 19:05:47			0	38107	0	0	0	23407	21990	160008	27294	1059409	46481	108627	0	0	8192	555361	0	0
2024-09-26 19:06:47			0	38094	0	0	0	23412	21970	160092	27223	1059302	46479	108629	0	0	8191	555936	0	0
2024-09-26 19:07:47			0	38097	0	0	0	23410	21980	160104	27279	1059294	46458	108628	0	0	8191	555787	0	0
2024-09-26 19:08:47			0	38082	0	0	0	23412	21990	160116	27253	1059329	46481	108629	0	0	8190	556348	0	0
2024-09-26 19:09:47			0	38082	0	0	0	23415	21990	160056	27012	1059383	46481	108630	0	0	8190	556348	0	0
2024-09-26 19:10:47			0	38109	0	0	0	23418	21990	159968	26859	1059356	46458	108631	0	0	8192	555282	0	0
2024-09-26 19:11:47			0	38095	0	0	0	23405	21980	160056	27187	1059400	46469	108626	0	0	8191	555865	0	0
2024-09-26 19:12:47			0	38065	0	0	0	23402	21990	160088	27486	1059338	46471	108625	0	0	8190	557019	0	0
2024-09-26 19:13:47			0	38037	0	0	0	23399	21990	160072	27282	1059356	46458	108624	0	0	8188	558126	0	0
2024-09-26 19:14:47			0	38039	0	0	0	23402	21980	160188	27171	1059267	46469	108625	0	0	8188	558078	0	0
2024-09-26 19:15:47			0	38052	0	0	0	23402	21980	160200	27197	1059311	46467	108625	0	0	8189	557564	0	0
2024-09-26 19:16:47			0	38054	0	0	0	23399	21990	160264	27157	1059329	46470	108624	0	0	8189	557454	0	0
2024-09-26 19:17:47			0	38040	0	0	0	23399	21990	160240	27215	1059329	46470	108624	0	0	8188	558007	0	0
2024-09-26 19:18:47			0	38041	0	0	0	23402	21970	160252	26994	1059329	46479	108625	0	0	8188	558030	0	0
2024-09-26 19:19:47			0	38039	0	0	0	23399	21990	160328	27237	1059303	46458	108624	0	0	8188	558047	0	0
2024-09-26 19:20:47			0	38030	0	0	0	23405	21980	160268	26937	1059294	46458	108626	0	0	8187	558434	0	0
2024-09-26 19:21:47			0	38019	0	0	0	23392	21970	160287	26760	1059329	46479	108621	0	0	8187	558901	0	0
2024-09-26 19:22:47			0	38038	0	0	0	23389	21980	160284	27131	1059267	46458	108620	0	0	8188	558118	0	0
2024-09-26 19:23:47			0	38014	0	0	0	23407	21980	160243	27183	1059267	46469	108627	0	0	8186	559068	0	0
2024-09-26 19:24:47			0	38044	0	0	0	23394	21980	160196	26916	1059338	46446	108622	0	0	8188	557880	0	0
2024-09-26 19:25:47			0	38029	0	0	0	23402	21980	160239	27350	1059267	46469	108625	0	0	8187	558474	0	0
2024-09-26 19:26:47			0	38028	0	0	0	23389	21970	160227	27372	1059302	46467	108620	0	0	8187	558545	0	0
2024-09-26 19:27:47			0	38033	0	0	0	23392	21970	160296	27426	1059240	46457	108621	0	0	8188	558347	0	0
2024-09-26 19:28:47			0	38038	0	0	0	23394	21980	160120	27176	1059267	46469	108622	0	0	8188	558118	0	0
2024-09-26 19:29:47			0	38019	0	0	0	23394	21980	160163	27177	1059311	46479	108622	0	0	8187	558870	0	0
2024-09-26 19:30:47			0	38029	0	0	0	23392	21970	160207	26960	1059302	46479	108621	0	0	8187	558505	0	0
2024-09-26 19:31:47			0	37997	0	0	0	23394	21970	160283	26883	1059249	46467	108622	0	0	8186	559772	0	0
2024-09-26 19:32:47			0	38046	0	0	0	23394	21970	160180	27279	1059302	46457	108622	0	0	8188	557832	0	0
2024-09-26 19:33:47			0	38025	0	0	0	23405	21980	160255	27237	1059285	46479	108626	0	0	8187	558632	0	0
2024-09-26 19:34:47			0	38010	0	0	0	23389	21980	160263	26934	1059285	46446	108620	0	0	8186	559226	0	0
2024-09-26 19:35:47			0	37993	0	0	0	23381	21970	160471	27357	1059240	46457	108617	0	0	8186	559931	0	0
2024-09-26 19:36:47			0	37968	0	0	0	23386	21960	160387	27255	1059249	46444	108619	0	0	8184	560954	0	0
2024-09-26 19:37:47			0	37960	0	0	0	23389	21970	160507	27180	1059213	46467	108620	0	0	8183	561240	0	0
2024-09-26 19:38:47			0	37955	0	0	0	23381	21970	160567	27133	1059240	46467	108617	0	0	8183	561439	0	0
2024-09-26 19:39:47			0	37938	0	0	0	23384	21970	160571	27150	1059213	46479	108618	0	0	8182	562114	0	0
2024-09-26 19:40:47			0	37924	0	0	0	23389	21970	160651	27246	1059213	46479	108620	0	0	8181	562671	0	0
2024-09-26 19:41:47			0	37912	0	0	0	23384	21970	160727	27079	1059249	46479	108618	0	0	8181	563148	0	0
2024-09-26 19:42:47			0	37914	0	0	0	23384	21970	160747	27410	1059222	46467	108618	0	0	8181	563069	0	0
2024-09-26 19:43:47			0	37905	0	0	0	23389	21960	160683	27428	1059284	46478	108620	0	0	8180	563458	0	0
2024-09-26 19:44:47			0	37908	0	0	0	23386	21970	160795	27232	1059240	46490	108619	0	0	8180	563307	0	0
2024-09-26 19:45:47			0	37928	0	0	0	23384	21960	160703	27282	1059231	46467	108618	0	0	8182	562543	0	0
2024-09-26 19:46:47			0	37945	0	0	0	23392	21960	160495	27137	1059258	46467	108621	0	0	8183	561868	0	0
2024-09-26 19:47:47			0	37969	0	0	0	23399	21960	160551	27604	1059169	46477	108624	0	0	8184	560914	0	0
2024-09-26 19:48:47			0	37971	0	0	0	23402	21970	160367	27140	1059249	46479	108625	0	0	8184	560804	0	0
2024-09-26 19:49:47			0	37993	0	0	0	23397	21960	160375	27298	1059231	46489	108623	0	0	8185	559962	0	0
2024-09-26 19:50:47			0	37989	0	0	0	23392	21970	160371	27415	1059249	46479	108621	0	0	8185	560090	0	0
2024-09-26 19:51:47			0	37992	0	0	0	23392	21970	160323	26876	1059267	46479	108621	0	0	8185	559971	0	0
2024-09-26 19:52:47			0	37975	0	0	0	23389	21970	160399	26946	1059196	46479	108620	0	0	8184	560645	0	0
2024-09-26 19:53:47			0	37981	0	0	0	23394	21980	160411	27180	1059285	46479	108622	0	0	8185	560376	0	0
2024-09-26 19:54:47			0	37986	0	0	0	23402	21970	160399	27203	1059293	46467	108625	0	0	8185	560209	0	0
2024-09-26 19:55:47			0	37981	0	0	0	23389	21970	160443	27258	1059222	46457	108620	0	0	8185	560407	0	0
2024-09-26 19:56:47			0	37983	0	0	0	23394	21970	160459	27293	1059249	46467	108622	0	0	8185	560328	0	0
2024-09-26 19:57:47			0	37998	0	0	0	23399	21970	160411	27055	1059276	46479	108624	0	0	8186	559733	0	0
2024-09-26 19:58:47			0	38000	0	0	0	23394	21960	160379	27346	1059311	46478	108622	0	0	8186	559685	0	0
2024-09-26 19:59:47			0	38001	0	0	0	23394	21970	160423	27248	1059267	46467	108622	0	0	8186	559614	0	0
2024-09-26 20:00:47			0	37988	0	0	0	23397	21970	160411	27431	1059240	46479	108623	0	0	8185	560129	0	0
2024-09-26 20:01:47			0	37984	0	0	0	23397	21970	160315	27046	1059240	46479	108623	0	0	8185	560288	0	0
2024-09-26 20:02:47			0	37996	0	0	0	23397	21980	160311	27317	1059338	46467	108623	0	0	8186	559781	0	0
2024-09-26 20:03:47			0	38001	0	0	0	23397	21970	160395	27261	1059276	46479	108623	0	0	8186	559614	0	0
2024-09-26 20:04:47			0	38001	0	0	0	23394	21970	160407	27509	1059293	46490	108622	0	0	8186	559614	0	0
2024-09-26 20:05:47			0	37995	0	0	0	23389	21970	160371	27140	1059276	46479	108620	0	0	8186	559852	0	0
2024-09-26 20:06:47			0	38002	0	0	0	23397	21960	160451	27274	1059231	46478	108623	0	0	8186	559606	0	0
2024-09-26 20:07:47			0	37978	0	0	0	23386	21970	160379	27357	1059240	46446	108619	0	0	8185	560526	0	0
2024-09-26 20:08:47			0	37987	0	0	0	23397	21970	160423	27215	1059249	46479	108623	0	0	8185	560169	0	0
2024-09-26 20:09:47			0	38004	0	0	0	23399	21980	160367	27204	1059311	46467	108624	0	0	8186	559464	0	0
2024-09-26 20:10:47			0	38006	0	0	0	23399	21960	160307	27500	1059302	46455	108624	0	0	8186	559447	0	0
2024-09-26 20:11:47			0	38011	0	0	0	23384	21960	160375	27428	1059284	46456	108618	0	0	8187	559249	0	0
2024-09-26 20:12:47			0	38004	0	0	0	23381	21970	160379	27157	1059302	46479	108617	0	0	8186	559495	0	0
2024-09-26 20:13:47			0	38012	0	0	0	23399	21960	160379	26968	1059231	46478	108624	0	0	8186	559209	0	0
2024-09-26 20:14:47			0	38002	0	0	0	23389	21960	160371	27059	1059284	46467	108620	0	0	8186	559606	0	0
2024-09-26 20:15:47			0	37990	0	0	0	23381	21960	160375	26989	1059222	46477	108617	0	0	8185	560081	0	0
2024-09-26 20:16:47			0	37933	0	0	0	23373	21960	160515	27300	1059275	46455	108614	0	0	8182	562344	0	0
2024-09-26 20:17:47			0	37948	0	0	0	23376	21970	160559	27263	1059213	46479	108615	0	0	8183	561717	0	0
2024-09-26 20:18:47			0	37923	0	0	0	23368	21960	160575	27371	1059231	46467	108612	0	0	8182	562742	0	0
2024-09-26 20:19:47			0	37902	0	0	0	23373	21950	160659	27133	1059213	46455	108614	0	0	8180	563609	0	0
2024-09-26 20:20:47			0	37914	0	0	0	23368	21950	160699	27116	1059266	46455	108612	0	0	8181	563131	0	0
2024-09-26 20:21:47			0	37919	0	0	0	23379	21950	160635	27338	1059186	46455	108616	0	0	8181	562933	0	0
2024-09-26 20:22:47			0	37909	0	0	0	23368	21960	160651	27249	1059222	46477	108612	0	0	8181	563299	0	0
2024-09-26 20:23:47			0	37898	0	0	0	23368	21960	160651	27403	1059249	46477	108612	0	0	8180	563737	0	0
2024-09-26 20:24:47			0	37885	0	0	0	23381	21950	160811	27351	1059106	46466	108617	0	0	8179	564286	0	0
2024-09-26 20:25:47			0	37907	0	0	0	23376	21960	160663	27045	1059249	46466	108615	0	0	8181	563378	0	0
2024-09-26 20:26:47			0	37898	0	0	0	23376	21950	160723	27206	1059177	46444	108615	0	0	8180	563768	0	0
2024-09-26 20:27:47			0	37915	0	0	0	23376	21950	160675	27386	1059293	46466	108615	0	0	8181	563092	0	0
2024-09-26 20:28:47			0	37909	0	0	0	23366	21950	160695	27074	1059097	46466	108611	0	0	8181	563330	0	0
2024-09-26 20:29:47			0	37925	0	0	0	23389	21950	160663	27396	1059151	46477	108620	0	0	8181	562694	0	0
2024-09-26 20:30:47			0	37924	0	0	0	23379	21950	160567	27502	1059186	46466	108616	0	0	8181	562734	0	0
2024-09-26 20:31:47			0	37933	0	0	0	23376	21950	160583	27251	1059160	46477	108615	0	0	8182	562376	0	0
2024-09-26 20:32:47			0	37906	0	0	0	23368	21950	160703	27393	1059204	46466	108612	0	0	8181	563450	0	0
2024-09-26 20:33:47			0	37907	0	0	0	23368	21950	160655	27208	1059151	46477	108612	0	0	8181	563410	0	0
2024-09-26 20:34:47			0	37899	0	0	0	23353	21950	160823	27306	1059204	46444	108606	0	0	8180	563729	0	0
2024-09-26 20:35:47			0	37859	0	0	0	23350	21950	160823	27211	1059151	46466	108605	0	0	8178	565323	0	0
2024-09-26 20:36:47			0	37860	0	0	0	23355	21930	160875	27175	1059044	46463	108607	0	0	8178	565346	0	0
2024-09-26 20:37:47			0	37844	0	0	0	23355	21940	161011	27329	1059159	46453	108607	0	0	8177	565953	0	0
2024-09-26 20:38:47			0	37826	0	0	0	23350	21940	161075	27258	1059088	46454	108605	0	0	8176	566672	0	0
2024-09-26 20:39:47			0	37804	0	0	0	23353	21940	161079	27350	1059088	46476	108606	0	0	8175	567551	0	0
2024-09-26 20:40:47			0	37824	0	0	0	23350	21940	161075	27426	1058999	46475	108605	0	0	8176	566751	0	0
2024-09-26 20:41:47			0	37796	0	0	0	23348	21940	161175	27026	1059035	46454	108604	0	0	8174	567871	0	0
2024-09-26 20:42:47			0	37766	0	0	0	23345	21930	161195	27253	1059070	46463	108603	0	0	8173	569104	0	0
2024-09-26 20:43:47			0	37762	0	0	0	23358	21940	161167	27144	1059079	46463	108608	0	0	8172	569232	0	0
2024-09-26 20:44:47			0	37770	0	0	0	23353	21930	161255	26991	1059017	46463	108606	0	0	8173	568943	0	0
2024-09-26 20:45:47			0	37782	0	0	0	23363	21940	161223	27079	1059142	46476	108610	0	0	8173	568431	0	0
2024-09-26 20:46:47			0	37804	0	0	0	23366	21940	161119	26850	1059159	46453	108611	0	0	8175	567551	0	0
2024-09-26 20:47:47			0	37826	0	0	0	23361	21930	161195	27383	1059044	46463	108609	0	0	8176	566703	0	0
2024-09-26 20:48:47			0	37803	0	0	0	23348	21930	161123	27209	1059124	46463	108604	0	0	8175	567622	0	0
2024-09-26 20:49:47			0	37803	0	0	0	23350	21940	161011	27301	1059079	46463	108605	0	0	8175	567591	0	0
2024-09-26 20:50:47			0	37827	0	0	0	23363	21930	161003	27320	1059097	46453	108610	0	0	8176	566663	0	0
2024-09-26 20:51:47			0	37820	0	0	0	23358	21940	161071	27313	1059088	46476	108608	0	0	8176	566911	0	0
2024-09-26 20:52:47			0	37799	0	0	0	23335	21930	161023	26994	1059115	46453	108599	0	0	8175	567782	0	0
2024-09-26 20:53:47			0	37785	0	0	0	23348	21940	161287	27145	1059062	46476	108604	0	0	8174	568311	0	0
2024-09-26 20:54:47			0	37751	0	0	0	23348	21930	161263	26804	1059035	46453	108604	0	0	8172	569705	0	0
2024-09-26 20:55:47			0	37755	0	0	0	23337	21920	161291	26745	1059052	46452	108600	0	0	8172	569576	0	0
2024-09-26 20:56:47			0	37737	0	0	0	23335	21920	161447	26844	1059026	46462	108599	0	0	8171	570298	0	0
2024-09-26 20:57:47			0	37738	0	0	0	23340	21920	161399	27100	1058999	46474	108601	0	0	8171	570258	0	0
2024-09-26 20:58:47			0	37727	0	0	0	23324	21930	161447	27206	1059017	46463	108595	0	0	8171	570667	0	0
2024-09-26 20:59:47			0	37708	0	0	0	23324	21920	161507	27102	1059052	46452	108595	0	0	8170	571462	0	0
2024-09-26 21:00:47			0	37708	0	0	0	23342	21920	161675	27294	1058972	46452	108602	0	0	8169	571462	0	0
2024-09-26 21:01:47			0	37717	0	0	0	23340	21920	161523	27045	1058999	46452	108601	0	0	8170	571101	0	0
2024-09-26 21:02:47			0	37724	0	0	0	23340	21920	161491	27223	1058990	46451	108601	0	0	8170	570819	0	0
2024-09-26 21:03:47			0	37717	0	0	0	23340	21920	161435	26956	1059043	46451	108601	0	0	8170	571101	0	0
2024-09-26 21:04:47			0	37734	0	0	0	23345	21910	161499	27041	1058955	46461	108603	0	0	8171	570450	0	0
2024-09-26 21:05:47			0	37730	0	0	0	23340	21910	161467	27161	1059008	46461	108601	0	0	8171	570610	0	0
2024-09-26 21:06:47			0	37730	0	0	0	23350	21920	161315	27013	1058999	46485	108605	0	0	8170	570579	0	0
2024-09-26 21:07:47			0	37753	0	0	0	23361	21920	161323	27239	1059043	46473	108609	0	0	8172	569656	0	0
2024-09-26 21:08:47			0	37743	0	0	0	23353	21920	161291	27303	1059026	46474	108606	0	0	8171	570057	0	0
2024-09-26 21:09:47			0	37772	0	0	0	23355	21920	161323	27076	1058990	46473	108607	0	0	8173	568895	0	0
2024-09-26 21:10:47			0	37757	0	0	0	23358	21920	161251	26826	1059052	46474	108608	0	0	8172	569496	0	0
2024-09-26 21:11:47			0	37791	0	0	0	23342	21920	161219	26932	1058999	46462	108602	0	0	8174	568134	0	0
2024-09-26 21:12:47			0	37774	0	0	0	23345	21920	161271	27069	1058946	46462	108603	0	0	8173	568815	0	0
2024-09-26 21:13:47			0	37760	0	0	0	23345	21920	161263	27402	1058990	46461	108603	0	0	8172	569376	0	0
2024-09-26 21:14:47			0	37755	0	0	0	23345	21920	161287	27350	1059106	46452	108603	0	0	8172	569576	0	0
2024-09-26 21:15:47			0	37784	0	0	0	23332	21920	161399	27206	1058990	46473	108598	0	0	8174	568414	0	0
2024-09-26 21:16:47			0	37742	0	0	0	23319	21930	161431	26816	1058981	46463	108593	0	0	8172	570065	0	0
2024-09-26 21:17:47			0	37738	0	0	0	23314	21920	161575	27034	1059017	46461	108591	0	0	8171	570258	0	0
2024-09-26 21:18:47			0	37694	0	0	0	23319	21920	161555	26894	1058910	46440	108593	0	0	8169	572024	0	0
2024-09-26 21:19:47			0	37685	0	0	0	23319	21920	161603	27150	1058937	46451	108593	0	0	8168	572386	0	0
2024-09-26 21:20:47			0	37658	0	0	0	23324	21910	161727	27017	1058972	46460	108595	0	0	8167	573504	0	0
2024-09-26 21:21:47			0	37667	0	0	0	23324	21910	161727	27171	1058946	46460	108595	0	0	8167	573142	0	0
2024-09-26 21:22:47			0	37665	0	0	0	23324	21910	161727	27133	1058946	46472	108595	0	0	8167	573223	0	0
2024-09-26 21:23:47			0	37659	0	0	0	23332	21910	161703	27130	1058946	46472	108598	0	0	8166	573464	0	0
2024-09-26 21:24:47			0	37660	0	0	0	23335	21910	161823	27064	1059035	46473	108599	0	0	8166	573424	0	0
2024-09-26 21:25:47			0	37643	0	0	0	23335	21910	161831	27426	1058946	46460	108599	0	0	8165	574109	0	0
2024-09-26 21:26:47			0	37666	0	0	0	23332	21910	161779	27098	1058999	46472	108598	0	0	8167	573183	0	0
2024-09-26 21:27:47			0	37668	0	0	0	23332	21900	161767	27248	1058937	46472	108598	0	0	8167	573134	0	0
2024-09-26 21:28:47			0	37689	0	0	0	23342	21910	161743	27050	1058981	46473	108602	0	0	8168	572257	0	0
2024-09-26 21:29:47			0	37714	0	0	0	23337	21910	161587	27177	1058972	46450	108600	0	0	8170	571253	0	0
2024-09-26 21:30:47			0	37725	0	0	0	23337	21910	161575	27126	1058972	46460	108600	0	0	8170	570811	0	0
2024-09-26 21:31:47			0	37735	0	0	0	23350	21910	161427	27364	1059035	46484	108605	0	0	8171	570410	0	0
2024-09-26 21:32:47			0	37745	0	0	0	23337	21920	161339	27352	1059043	46484	108600	0	0	8172	569977	0	0
2024-09-26 21:33:47			0	37762	0	0	0	23350	21920	161407	27178	1059043	46473	108605	0	0	8172	569295	0	0
2024-09-26 21:34:47			0	37752	0	0	0	23340	21920	161335	27225	1059017	46473	108601	0	0	8172	569696	0	0
2024-09-26 21:35:47			0	37739	0	0	0	23332	21920	161363	26993	1058999	46474	108598	0	0	8171	570218	0	0
2024-09-26 21:36:47			0	37729	0	0	0	23332	21910	161491	27293	1059008	46451	108598	0	0	8171	570651	0	0
2024-09-26 21:37:47			0	37726	0	0	0	23335	21910	161487	27215	1058955	46461	108599	0	0	8170	570771	0	0
2024-09-26 21:38:47			0	37720	0	0	0	23340	21910	161451	27260	1058981	46461	108601	0	0	8170	571012	0	0
2024-09-26 21:39:47			0	37717	0	0	0	23340	21910	161479	27074	1059008	46473	108601	0	0	8170	571132	0	0
2024-09-26 21:40:47			0	37719	0	0	0	23342	21920	161395	27403	1059052	46474	108602	0	0	8170	571020	0	0
2024-09-26 21:41:47			0	37718	0	0	0	23348	21920	161523	27138	1058990	46473	108604	0	0	8170	571060	0	0
2024-09-26 21:42:47			0	37728	0	0	0	23345	21910	161411	27331	1059026	46460	108603	0	0	8170	570691	0	0
2024-09-26 21:43:47			0	37716	0	0	0	23350	21910	161415	27086	1059035	46473	108605	0	0	8170	571172	0	0
2024-09-26 21:44:47			0	37732	0	0	0	23337	21920	161431	27424	1059026	46474	108600	0	0	8171	570498	0	0
2024-09-26 21:45:47			0	37745	0	0	0	23342	21920	161375	27086	1058990	46473	108602	0	0	8171	569977	0	0
2024-09-26 21:46:47			0	37748	0	0	0	23350	21930	161323	27261	1059061	46463	108605	0	0	8172	569825	0	0
2024-09-26 21:47:47			0	37749	0	0	0	23345	21920	161219	27223	1059026	46462	108603	0	0	8172	569816	0	0
2024-09-26 21:48:47			0	37775	0	0	0	23350	21920	161291	27015	1059097	46484	108605	0	0	8173	568775	0	0
2024-09-26 21:49:47			0	37785	0	0	0	23355	21930	161251	27182	1059088	46486	108607	0	0	8174	568343	0	0
2024-09-26 21:50:47			0	37781	0	0	0	23355	21920	161307	27341	1059106	46485	108607	0	0	8173	568534	0	0
2024-09-26 21:51:47			0	37804	0	0	0	23355	21920	161135	27362	1059079	46462	108607	0	0	8175	567614	0	0
2024-09-26 21:52:47			0	37817	0	0	0	23348	21920	161175	27414	1058999	46452	108604	0	0	8176	567094	0	0
2024-09-26 21:53:47			0	37798	0	0	0	23345	21930	161163	27391	1059035	46475	108603	0	0	8175	567822	0	0
2024-09-26 21:54:47			0	37800	0	0	0	23342	21920	161123	27282	1059052	46485	108602	0	0	8175	567774	0	0
2024-09-26 21:55:47			0	37795	0	0	0	23345	21920	161131	27225	1059052	46485	108603	0	0	8174	567974	0	0
2024-09-26 21:56:47			0	37787	0	0	0	23340	21920	161227	27119	1059026	46462	108601	0	0	8174	568294	0	0
2024-09-26 21:57:47			0	37802	0	0	0	23353	21920	161111	27403	1058972	46462	108606	0	0	8175	567694	0	0
2024-09-26 21:58:47			0	37782	0	0	0	23353	21920	161215	27133	1059017	46473	108606	0	0	8173	568494	0	0
2024-09-26 21:59:47			0	37774	0	0	0	23342	21920	161167	27206	1058999	46485	108602	0	0	8173	568815	0	0
2024-09-26 22:00:47			0	37787	0	0	0	23337	21920	161243	27509	1058999	46462	108600	0	0	8174	568294	0	0
2024-09-26 22:01:47			0	37771	0	0	0	23348	21930	161263	27159	1058990	46475	108604	0	0	8173	568903	0	0
2024-09-26 22:02:47			0	37799	0	0	0	23345	21920	161263	27216	1059043	46451	108603	0	0	8175	567814	0	0
2024-09-26 22:03:47			0	37797	0	0	0	23342	21910	161219	27222	1059035	46461	108602	0	0	8174	567926	0	0
2024-09-26 22:04:47			0	37797	0	0	0	23345	21910	161187	27107	1059035	46484	108603	0	0	8174	567926	0	0
2024-09-26 22:05:47			0	37785	0	0	0	23340	21920	161255	27433	1059132	46474	108601	0	0	8174	568374	0	0
2024-09-26 22:06:47			0	37786	0	0	0	23342	21920	161247	27251	1058946	46474	108602	0	0	8174	568334	0	0
2024-09-26 22:07:47			0	37776	0	0	0	23340	21920	161215	27255	1059026	46474	108601	0	0	8173	568735	0	0
2024-09-26 22:08:47			0	37787	0	0	0	23348	21920	161255	27260	1058999	46462	108604	0	0	8174	568294	0	0
2024-09-26 22:09:47			0	37773	0	0	0	23348	21920	161199	27010	1059043	46451	108604	0	0	8173	568855	0	0
2024-09-26 22:10:47			0	37787	0	0	0	23345	21920	161283	27111	1059026	46452	108603	0	0	8174	568294	0	0
2024-09-26 22:11:47			0	37791	0	0	0	23345	21920	161223	26996	1058999	46441	108603	0	0	8174	568134	0	0
2024-09-26 22:12:47			0	37784	0	0	0	23345	21920	161131	26769	1059043	46451	108603	0	0	8174	568414	0	0
2024-09-26 22:13:47			0	37787	0	0	0	23340	21920	161187	27050	1059017	46461	108601	0	0	8174	568294	0	0
2024-09-26 22:14:47			0	37799	0	0	0	23342	21920	161215	27296	1058963	46440	108602	0	0	8175	567814	0	0
2024-09-26 22:15:47			0	37788	0	0	0	23340	21910	161251	27157	1058972	46483	108601	0	0	8174	568286	0	0
2024-09-26 22:16:47			0	37791	0	0	0	23342	21920	161163	26993	1059017	46473	108602	0	0	8174	568134	0	0
2024-09-26 22:17:47			0	37791	0	0	0	23340	21920	161303	27166	1059017	46461	108601	0	0	8174	568134	0	0
2024-09-26 22:18:47			0	37775	0	0	0	23342	21920	161355	27142	1058990	46473	108602	0	0	8173	568775	0	0
2024-09-26 22:19:47			0	37767	0	0	0	23337	21920	161267	27215	1059043	46451	108600	0	0	8173	569095	0	0
2024-09-26 22:20:47			0	37777	0	0	0	23340	21910	161219	27358	1059008	46461	108601	0	0	8173	568726	0	0
2024-09-26 22:21:47			0	37789	0	0	0	23337	21910	161279	27379	1058981	46461	108600	0	0	8174	568246	0	0
2024-09-26 22:22:47			0	37769	0	0	0	23342	21910	161375	27253	1059035	46473	108602	0	0	8173	569047	0	0
2024-09-26 22:23:47			0	37770	0	0	0	23335	21920	161439	27369	1058999	46474	108599	0	0	8173	568975	0	0
2024-09-26 22:24:47			0	37758	0	0	0	23332	21920	161355	27163	1059017	46473	108598	0	0	8172	569456	0	0
2024-09-26 22:25:47			0	37760	0	0	0	23327	21920	161383	27227	1059026	46485	108596	0	0	8173	569376	0	0
2024-09-26 22:26:47			0	37762	0	0	0	23332	21920	161363	27019	1059043	46461	108598	0	0	8173	569295	0	0
2024-09-26 22:27:47			0	37749	0	0	0	23335	21920	161331	27562	1058972	46462	108599	0	0	8172	569816	0	0
2024-09-26 22:28:47			0	37753	0	0	0	23327	21920	161339	27381	1058963	46473	108596	0	0	8172	569656	0	0
2024-09-26 22:29:47			0	37744	0	0	0	23348	21910	161291	27189	1058981	46451	108604	0	0	8171	570049	0	0
2024-09-26 22:30:47			0	37748	0	0	0	23335	21920	161475	27041	1059052	46474	108599	0	0	8172	569857	0	0
2024-09-26 22:31:47			0	37744	0	0	0	23337	21910	161419	27227	1058981	46484	108600	0	0	8171	570049	0	0
2024-09-26 22:32:47			0	37747	0	0	0	23337	21920	161447	27131	1058937	46451	108600	0	0	8172	569897	0	0
2024-09-26 22:33:47			0	37765	0	0	0	23345	21910	161411	27222	1059035	46473	108603	0	0	8172	569207	0	0
2024-09-26 22:34:47			0	37746	0	0	0	23340	21920	161367	27192	1058963	46451	108601	0	0	8172	569937	0	0
2024-09-26 22:35:47			0	37736	0	0	0	23335	21920	161491	27149	1058963	46461	108599	0	0	8171	570338	0	0
2024-09-26 22:36:47			0	37738	0	0	0	23329	21920	161539	27222	1058990	46473	108597	0	0	8171	570258	0	0
2024-09-26 22:37:47			0	37741	0	0	0	23332	21920	161427	27015	1059017	46461	108598	0	0	8171	570137	0	0
2024-09-26 22:38:47			0	37744	0	0	0	23335	21910	161463	27189	1058981	46461	108599	0	0	8171	570049	0	0
2024-09-26 22:39:47			0	37729	0	0	0	23329	21910	161483	27516	1058999	46450	108597	0	0	8171	570651	0	0
2024-09-26 22:40:47			0	37742	0	0	0	23332	21910	161555	27265	1058919	46450	108598	0	0	8171	570129	0	0
2024-09-26 22:41:47			0	37731	0	0	0	23335	21910	161527	27263	1059008	46473	108599	0	0	8171	570570	0	0
2024-09-26 22:42:47			0	37719	0	0	0	23335	21910	161507	27235	1059008	46461	108599	0	0	8170	571052	0	0
2024-09-26 22:43:47			0	37722	0	0	0	23329	21910	161491	27189	1058981	46473	108597	0	0	8170	570931	0	0
2024-09-26 22:44:47			0	37716	0	0	0	23329	21910	161479	27255	1058972	46472	108597	0	0	8170	571172	0	0
2024-09-26 22:45:47			0	37711	0	0	0	23332	21910	161503	27192	1059008	46451	108598	0	0	8170	571373	0	0
2024-09-26 22:46:47			0	37722	0	0	0	23329	21900	161599	27112	1058937	46450	108597	0	0	8170	570963	0	0
2024-09-26 22:47:47			0	37730	0	0	0	23332	21900	161523	27305	1058910	46460	108598	0	0	8171	570642	0	0
2024-09-26 22:48:47			0	37726	0	0	0	23327	21900	161451	27492	1058990	46472	108596	0	0	8170	570803	0	0
2024-09-26 22:49:47			0	37728	0	0	0	23329	21910	161523	27442	1058946	46472	108597	0	0	8171	570691	0	0
2024-09-26 22:50:47			0	37719	0	0	0	23332	21910	161635	27109	1058999	46472	108598	0	0	8170	571052	0	0
2024-09-26 22:51:47			0	37729	0	0	0	23340	21910	161475	27282	1058981	46461	108601	0	0	8170	570651	0	0
2024-09-26 22:52:47			0	37733	0	0	0	23327	21910	161427	27472	1058972	46460	108596	0	0	8171	570490	0	0
2024-09-26 22:53:47			0	37761	0	0	0	23332	21900	161387	27573	1058990	46460	108598	0	0	8172	569399	0	0
2024-09-26 22:54:47			0	37761	0	0	0	23327	21910	161335	27166	1058981	46461	108596	0	0	8173	569367	0	0
2024-09-26 22:55:47			0	37761	0	0	0	23335	21910	161407	27291	1059035	46461	108599	0	0	8172	569367	0	0
2024-09-26 22:56:47			0	37753	0	0	0	23324	21910	161355	27374	1058972	46460	108595	0	0	8172	569688	0	0
2024-09-26 22:57:47			0	37760	0	0	0	23324	21900	161359	27154	1058963	46450	108595	0	0	8173	569439	0	0
2024-09-26 22:58:47			0	37768	0	0	0	23329	21910	161339	27118	1058946	46460	108597	0	0	8173	569087	0	0
2024-09-26 22:59:47			0	37773	0	0	0	23340	21900	161391	27244	1059070	46483	108601	0	0	8173	568918	0	0
2024-09-26 23:00:47			0	37757	0	0	0	23340	21900	161375	27135	1058963	46460	108601	0	0	8172	569559	0	0
2024-09-26 23:01:47			0	37785	0	0	0	23332	21910	161295	27284	1058999	46483	108598	0	0	8174	568406	0	0
2024-09-26 23:02:47			0	37775	0	0	0	23327	21910	161299	27126	1058981	46451	108596	0	0	8173	568806	0	0
2024-09-26 23:03:47			0	37743	0	0	0	23335	21900	161291	27156	1059017	46460	108599	0	0	8171	570121	0	0
2024-09-26 23:04:47			0	37747	0	0	0	23329	21910	161367	27341	1059061	46473	108597	0	0	8172	569928	0	0
2024-09-26 23:05:47			0	37720	0	0	0	23327	21910	161507	27208	1058972	46472	108596	0	0	8170	571012	0	0
2024-09-26 23:06:47			0	37735	0	0	0	23329	21910	161455	27466	1058972	46472	108597	0	0	8171	570410	0	0
2024-09-26 23:07:47			0	37728	0	0	0	23327	21910	161455	26982	1058999	46483	108596	0	0	8171	570691	0	0
2024-09-26 23:08:47			0	37714	0	0	0	23324	21910	161499	27187	1058955	46461	108595	0	0	8170	571253	0	0
2024-09-26 23:09:47			0	37738	0	0	0	23327	21910	161459	27102	1058972	46460	108596	0	0	8171	570289	0	0
2024-09-26 23:10:47			0	37750	0	0	0	23335	21900	161371	27364	1058954	46459	108599	0	0	8172	569840	0	0
2024-09-26 23:11:47			0	37743	0	0	0	23329	21910	161311	27351	1058946	46472	108597	0	0	8171	570089	0	0
2024-09-26 23:12:47			0	37776	0	0	0	23345	21910	161339	27284	1058946	46472	108603	0	0	8173	568766	0	0
2024-09-26 23:13:47			0	37782	0	0	0	23329	21910	161271	26850	1058972	46460	108597	0	0	8174	568526	0	0
2024-09-26 23:14:47			0	37778	0	0	0	23327	21910	161227	27272	1058999	46460	108596	0	0	8174	568686	0	0
2024-09-26 23:15:47			0	37788	0	0	0	23335	21910	161171	27415	1058946	46460	108599	0	0	8174	568286	0	0
2024-09-26 23:16:47			0	37779	0	0	0	23332	21910	161291	27275	1058919	46472	108598	0	0	8174	568646	0	0
2024-09-26 23:17:47			0	37767	0	0	0	23332	21910	161327	27208	1058999	46460	108598	0	0	8173	569127	0	0
2024-09-26 23:18:47			0	37751	0	0	0	23329	21910	161455	27161	1058981	46440	108597	0	0	8172	569768	0	0
2024-09-26 23:19:47			0	37773	0	0	0	23329	21910	161363	26724	1058999	46460	108597	0	0	8173	568886	0	0
2024-09-26 23:20:47			0	37774	0	0	0	23327	21910	161307	26956	1058972	46460	108596	0	0	8173	568847	0	0
2024-09-26 23:21:47			0	37767	0	0	0	23329	21910	161343	26901	1058946	46472	108597	0	0	8173	569127	0	0
2024-09-26 23:22:47			0	37756	0	0	0	23329	21910	161387	27078	1058999	46483	108597	0	0	8172	569568	0	0
2024-09-26 23:23:47			0	37746	0	0	0	23327	21910	161375	26981	1059008	46473	108596	0	0	8172	569969	0	0
2024-09-26 23:24:47			0	37750	0	0	0	23332	21910	161387	27171	1058972	46472	108598	0	0	8172	569808	0	0
2024-09-26 23:25:47			0	37755	0	0	0	23324	21910	161475	27313	1059008	46473	108595	0	0	8172	569608	0	0
2024-09-26 23:26:47			0	37732	0	0	0	23329	21910	161335	27138	1058955	46451	108597	0	0	8171	570530	0	0
2024-09-26 23:27:47			0	37755	0	0	0	23324	21910	161403	27246	1058981	46461	108595	0	0	8172	569608	0	0
2024-09-26 23:28:47			0	37747	0	0	0	23327	21910	161455	27329	1058972	46460	108596	0	0	8172	569928	0	0
2024-09-26 23:29:47			0	37735	0	0	0	23324	21910	161539	27069	1058919	46472	108595	0	0	8171	570410	0	0
2024-09-26 23:30:47			0	37733	0	0	0	23316	21910	161563	27154	1058946	46460	108592	0	0	8171	570490	0	0
2024-09-26 23:31:47			0	37725	0	0	0	23322	21910	161619	27232	1058919	46472	108594	0	0	8171	570811	0	0
2024-09-26 23:32:47			0	37731	0	0	0	23329	21900	161579	27396	1058963	46472	108597	0	0	8171	570602	0	0
2024-09-26 23:33:47			0	37733	0	0	0	23319	21900	161575	27422	1058963	46472	108593	0	0	8171	570522	0	0
2024-09-26 23:34:47			0	37723	0	0	0	23324	21910	161515	27149	1058999	46472	108595	0	0	8170	570891	0	0
2024-09-26 23:35:47			0	37724	0	0	0	23327	21900	161451	27374	1058990	46450	108596	0	0	8170	570883	0	0
2024-09-26 23:36:47			0	37733	0	0	0	23314	21900	161483	27255	1058990	46472	108591	0	0	8171	570522	0	0
2024-09-26 23:37:47			0	37731	0	0	0	23324	21910	161523	27114	1058972	46460	108595	0	0	8171	570570	0	0
2024-09-26 23:38:47			0	37746	0	0	0	23327	21910	161499	27350	1058972	46472	108596	0	0	8172	569969	0	0
2024-09-26 23:39:47			0	37748	0	0	0	23324	21910	161479	27083	1058955	46473	108595	0	0	8172	569888	0	0
2024-09-26 23:40:47			0	37752	0	0	0	23327	21910	161451	27201	1058946	46483	108596	0	0	8172	569728	0	0
2024-09-26 23:41:47			0	37755	0	0	0	23329	21910	161419	27386	1058981	46451	108597	0	0	8172	569608	0	0
2024-09-26 23:42:47			0	37767	0	0	0	23327	21900	161407	27081	1058963	46439	108596	0	0	8173	569159	0	0
2024-09-26 23:43:47			0	37758	0	0	0	23324	21900	161391	27078	1058963	46460	108595	0	0	8172	569519	0	0
2024-09-26 23:44:47			0	37771	0	0	0	23337	21910	161311	27173	1058981	46451	108600	0	0	8173	568967	0	0
2024-09-26 23:45:47			0	37763	0	0	0	23322	21900	161351	27343	1058901	46471	108594	0	0	8173	569319	0	0
2024-09-26 23:46:47			0	37744	0	0	0	23327	21900	161423	27263	1058928	46471	108596	0	0	8172	570081	0	0
2024-09-26 23:47:47			0	37760	0	0	0	23324	21900	161515	27157	1059017	46460	108595	0	0	8173	569439	0	0
2024-09-26 23:48:47			0	37739	0	0	0	23324	21910	161527	27255	1058972	46483	108595	0	0	8171	570249	0	0
2024-09-26 23:49:47			0	37739	0	0	0	23324	21910	161463	27462	1059052	46483	108595	0	0	8171	570249	0	0
2024-09-26 23:50:47			0	37731	0	0	0	23316	21910	161595	27362	1059026	46472	108592	0	0	8171	570570	0	0
2024-09-26 23:51:47			0	37713	0	0	0	23324	21910	161659	27440	1058955	46461	108595	0	0	8170	571293	0	0
2024-09-26 23:52:47			0	37729	0	0	0	23322	21910	161583	27144	1058972	46472	108594	0	0	8171	570651	0	0
2024-09-26 23:53:47			0	37727	0	0	0	23322	21890	161591	27462	1058919	46458	108594	0	0	8171	570794	0	0
2024-09-26 23:54:47			0	37719	0	0	0	23319	21900	161723	27109	1058928	46459	108593	0	0	8170	571084	0	0
2024-09-26 23:55:47			0	37707	0	0	0	23314	21910	161687	27066	1058946	46472	108591	0	0	8170	571534	0	0
2024-09-26 23:56:47			0	37705	0	0	0	23316	21910	161683	27374	1058919	46450	108592	0	0	8169	571614	0	0
2024-09-26 23:57:47			0	37700	0	0	0	23311	21900	161647	27495	1058928	46471	108590	0	0	8169	571847	0	0
2024-09-26 23:58:47			0	37688	0	0	0	23311	21910	161675	27422	1058919	46460	108590	0	0	8169	572297	0	0
2024-09-26 23:59:47			0	37685	0	0	0	23311	21900	161663	27180	1058937	46472	108590	0	0	8168	572450	0	0
2024-09-27 00:00:47			0	37666	0	0	0	23316	21900	161791	27391	1058928	46459	108592	0	0	8167	573214	0	0
2024-09-27 00:01:47			0	37662	0	0	0	23327	21890	161747	27114	1058945	46458	108596	0	0	8167	573407	0	0
2024-09-27 00:02:47			0	37680	0	0	0	23309	21900	161751	27594	1058954	46459	108589	0	0	8168	572651	0	0
2024-09-27 00:03:47			0	37659	0	0	0	23309	21900	161735	27332	1058901	46471	108589	0	0	8167	573496	0	0
2024-09-27 00:04:47			0	37662	0	0	0	23314	21900	161751	27647	1058874	46471	108591	0	0	8167	573375	0	0
2024-09-27 00:05:47			0	37641	0	0	0	23311	21900	161771	27372	1058857	46472	108590	0	0	8166	574221	0	0
2024-09-27 00:06:47			0	37630	0	0	0	23309	21890	161943	27362	1058910	46448	108589	0	0	8165	574696	0	0
2024-09-27 00:07:47			0	37611	0	0	0	23296	21900	161947	27277	1058954	46449	108584	0	0	8164	575431	0	0
2024-09-27 00:08:47			0	37613	0	0	0	23309	21890	162011	26958	1058919	46448	108589	0	0	8164	575382	0	0
2024-09-27 00:09:47			0	37605	0	0	0	23298	21900	162039	27222	1058901	46438	108585	0	0	8164	575673	0	0
2024-09-27 00:10:47			0	37591	0	0	0	23301	21890	162043	27157	1058856	46470	108586	0	0	8163	576270	0	0
2024-09-27 00:11:47			0	37582	0	0	0	23309	21880	161943	27234	1058847	46458	108589	0	0	8162	576666	0	0
2024-09-27 00:12:47			0	37598	0	0	0	23303	21890	162127	27225	1058830	46470	108587	0	0	8163	575988	0	0
2024-09-27 00:13:47			0	37589	0	0	0	23298	21890	162083	27187	1058883	46458	108585	0	0	8163	576351	0	0
2024-09-27 00:14:47			0	37593	0	0	0	23296	21890	162171	27166	1058892	46448	108584	0	0	8163	576190	0	0
2024-09-27 00:15:47			0	37584	0	0	0	23298	21880	162035	27530	1058847	46448	108585	0	0	8162	576585	0	0
2024-09-27 00:16:47			0	37553	0	0	0	23296	21890	162187	27396	1058883	46448	108584	0	0	8161	577806	0	0
2024-09-27 00:17:47			0	37579	0	0	0	23303	21890	162139	27166	1058830	46448	108587	0	0	8162	576755	0	0
2024-09-27 00:18:47			0	37570	0	0	0	23298	21880	162127	27464	1058874	46458	108585	0	0	8162	577151	0	0
2024-09-27 00:19:47			0	37595	0	0	0	23303	21880	162127	27632	1058874	46437	108587	0	0	8163	576141	0	0
2024-09-27 00:20:47			0	37603	0	0	0	23293	21880	162031	27326	1058865	46447	108583	0	0	8164	575818	0	0
2024-09-27 00:21:47			0	37587	0	0	0	23293	21880	162039	27036	1058874	46458	108583	0	0	8163	576464	0	0
2024-09-27 00:22:47			0	37577	0	0	0	23298	21880	162059	27438	1058839	46469	108585	0	0	8162	576868	0	0
2024-09-27 00:23:47			0	37596	0	0	0	23303	21880	162007	27651	1058865	46469	108587	0	0	8163	576100	0	0
2024-09-27 00:24:47			0	37579	0	0	0	23303	21880	161879	27334	1058874	46458	108587	0	0	8162	576787	0	0
2024-09-27 00:25:47			0	37586	0	0	0	23293	21880	161999	27365	1058892	46469	108583	0	0	8163	576504	0	0
2024-09-27 00:26:47			0	37597	0	0	0	23298	21890	162035	27471	1058883	46470	108585	0	0	8163	576028	0	0
2024-09-27 00:27:47			0	37590	0	0	0	23301	21880	162103	27457	1058847	46448	108586	0	0	8163	576343	0	0
2024-09-27 00:28:47			0	37599	0	0	0	23298	21880	161971	27230	1058821	46470	108585	0	0	8163	575979	0	0
2024-09-27 00:29:47			0	37603	0	0	0	23298	21880	161919	27537	1058865	46458	108585	0	0	8164	575818	0	0
2024-09-27 00:30:47			0	37607	0	0	0	23298	21880	161867	27684	1058847	46458	108585	0	0	8164	575656	0	0
2024-09-27 00:31:47			0	37604	0	0	0	23298	21880	162023	27502	1058839	46469	108585	0	0	8164	575778	0	0
2024-09-27 00:32:47			0	37602	0	0	0	23301	21880	161951	27260	1058874	46448	108586	0	0	8163	575858	0	0
2024-09-27 00:33:47			0	37598	0	0	0	23296	21880	162075	27436	1058874	46437	108584	0	0	8163	576020	0	0
2024-09-27 00:34:47			0	37598	0	0	0	23280	21870	162107	27225	1058803	46468	108578	0	0	8164	576052	0	0
2024-09-27 00:35:47			0	37588	0	0	0	23296	21880	162139	27627	1058874	46458	108584	0	0	8163	576424	0	0
2024-09-27 00:36:47			0	37579	0	0	0	23288	21880	162083	27602	1058865	46469	108581	0	0	8162	576787	0	0
2024-09-27 00:37:47			0	37567	0	0	0	23285	21880	162159	27633	1058865	46458	108580	0	0	8162	577272	0	0
2024-09-27 00:38:47			0	37557	0	0	0	23293	21870	162163	27493	1058794	46457	108583	0	0	8161	577709	0	0
2024-09-27 00:39:47			0	37566	0	0	0	23288	21880	162271	27559	1058865	46447	108581	0	0	8162	577313	0	0
2024-09-27 00:40:47			0	37565	0	0	0	23290	21870	162195	27201	1058794	46446	108582	0	0	8161	577385	0	0
2024-09-27 00:41:47			0	37586	0	0	0	23298	21870	162171	27260	1058803	46446	108585	0	0	8163	576537	0	0
2024-09-27 00:42:47			0	37581	0	0	0	23301	21880	162135	27248	1058865	46447	108586	0	0	8162	576706	0	0
2024-09-27 00:43:47			0	37583	0	0	0	23285	21880	162091	27601	1058758	46458	108580	0	0	8163	576626	0	0
2024-09-27 00:44:47			0	37609	0	0	0	23293	21880	162023	27187	1058865	46469	108583	0	0	8164	575576	0	0
2024-09-27 00:45:47			0	37583	0	0	0	23288	21870	162147	27395	1058883	46446	108581	0	0	8163	576658	0	0
2024-09-27 00:46:47			0	37584	0	0	0	23296	21880	162207	27369	1058839	46458	108584	0	0	8163	576585	0	0
2024-09-27 00:47:47			0	37568	0	0	0	23285	21880	162103	27270	1058865	46447	108580	0	0	8162	577232	0	0
2024-09-27 00:48:47			0	37586	0	0	0	23290	21870	162107	27455	1058794	46479	108582	0	0	8163	576537	0	0
2024-09-27 00:49:47			0	37579	0	0	0	23288	21880	162203	27571	1058839	46447	108581	0	0	8162	576787	0	0
2024-09-27 00:50:47			0	37576	0	0	0	23298	21880	162251	27326	1058812	46447	108585	0	0	8162	576908	0	0
2024-09-27 00:51:47			0	37575	0	0	0	23288	21870	162131	27326	1058847	46468	108581	0	0	8162	576981	0	0
2024-09-27 00:52:47			0	37587	0	0	0	23293	21860	162235	27234	1058865	46457	108583	0	0	8163	576528	0	0
2024-09-27 00:53:47			0	37566	0	0	0	23283	21870	162183	27206	1058830	46457	108579	0	0	8162	577345	0	0
2024-09-27 00:54:47			0	37550	0	0	0	23285	21870	162259	27492	1058767	46446	108580	0	0	8161	577992	0	0
2024-09-27 00:55:47			0	37548	0	0	0	23283	21870	162187	27512	1058856	46468	108579	0	0	8161	578073	0	0
2024-09-27 00:56:47			0	37563	0	0	0	23283	21870	162127	27199	1058847	46468	108579	0	0	8161	577466	0	0
2024-09-27 00:57:47			0	37554	0	0	0	23290	21870	162199	27445	1058767	46468	108582	0	0	8161	577830	0	0
2024-09-27 00:58:47			0	37570	0	0	0	23285	21860	162267	27516	1058785	46479	108580	0	0	8162	577215	0	0
2024-09-27 00:59:47			0	37580	0	0	0	23283	21870	162151	27277	1058803	46468	108579	0	0	8162	576779	0	0
2024-09-27 01:00:47			0	37570	0	0	0	23272	21870	162175	27519	1058767	46468	108575	0	0	8162	577183	0	0
2024-09-27 01:01:47			0	37551	0	0	0	23270	21860	162275	27027	1058758	46468	108574	0	0	8161	577984	0	0
2024-09-27 01:02:47			0	37551	0	0	0	23272	21870	162251	27275	1058847	46457	108575	0	0	8161	577952	0	0
2024-09-27 01:03:47			0	37529	0	0	0	23270	21870	162315	27265	1058856	46468	108574	0	0	8160	578842	0	0
2024-09-27 01:04:47			0	37510	0	0	0	23267	21860	162491	27512	1058776	46434	108573	0	0	8159	579645	0	0
2024-09-27 01:05:47			0	37516	0	0	0	23275	21860	162451	27306	1058732	46457	108576	0	0	8159	579401	0	0
2024-09-27 01:06:47			0	37524	0	0	0	23270	21860	162455	27523	1058776	46445	108574	0	0	8159	579077	0	0
2024-09-27 01:07:47			0	37532	0	0	0	23277	21860	162419	27336	1058723	46445	108577	0	0	8160	578753	0	0
2024-09-27 01:08:47			0	37516	0	0	0	23283	21860	162403	27246	1058732	46468	108579	0	0	8159	579401	0	0
2024-09-27 01:09:47			0	37505	0	0	0	23280	21860	162547	27519	1058776	46467	108578	0	0	8158	579847	0	0
2024-09-27 01:10:47			0	37508	0	0	0	23280	21860	162479	27436	1058749	46478	108578	0	0	8158	579726	0	0
2024-09-27 01:11:47			0	37505	0	0	0	23277	21860	162407	27298	1058758	46435	108577	0	0	8158	579847	0	0
2024-09-27 01:12:47			0	37508	0	0	0	23280	21860	162431	27173	1058776	46467	108578	0	0	8158	579726	0	0
2024-09-27 01:13:47			0	37514	0	0	0	23277	21860	162535	27422	1058732	46468	108577	0	0	8159	579482	0	0
2024-09-27 01:14:47			0	37511	0	0	0	23288	21850	162407	27479	1058705	46455	108581	0	0	8158	579636	0	0
2024-09-27 01:15:47			0	37518	0	0	0	23277	21850	162499	27308	1058740	46444	108577	0	0	8159	579353	0	0
2024-09-27 01:16:47			0	37503	0	0	0	23270	21860	162499	27277	1058829	46456	108574	0	0	8158	579928	0	0
2024-09-27 01:17:47			0	37516	0	0	0	23275	21860	162531	27197	1058758	46468	108576	0	0	8159	579401	0	0
2024-09-27 01:18:47			0	37479	0	0	0	23272	21850	162547	27296	1058767	46444	108575	0	0	8157	580935	0	0
2024-09-27 01:19:47			0	37489	0	0	0	23272	21860	162567	27057	1058803	46467	108575	0	0	8157	580496	0	0
2024-09-27 01:20:47			0	37503	0	0	0	23270	21850	162571	27452	1058767	46466	108574	0	0	8158	579961	0	0
2024-09-27 01:21:47			0	37501	0	0	0	23275	21860	162619	27182	1058785	46446	108576	0	0	8158	580010	0	0
2024-09-27 01:22:47			0	37474	0	0	0	23277	21860	162539	27452	1058758	46457	108577	0	0	8156	581105	0	0
2024-09-27 01:23:47			0	37478	0	0	0	23272	21850	162555	27611	1058785	46455	108575	0	0	8157	580975	0	0
2024-09-27 01:24:47			0	37490	0	0	0	23272	21860	162559	27464	1058785	46468	108575	0	0	8157	580456	0	0
2024-09-27 01:25:47			0	37471	0	0	0	23270	21850	162643	27381	1058705	46466	108574	0	0	8156	581260	0	0
2024-09-27 01:26:47			0	37487	0	0	0	23275	21860	162599	27248	1058749	46456	108576	0	0	8157	580578	0	0
2024-09-27 01:27:47			0	37489	0	0	0	23272	21860	162667	27260	1058776	46445	108575	0	0	8157	580496	0	0
2024-09-27 01:28:47			0	37478	0	0	0	23262	21860	162695	27471	1058749	46456	108571	0	0	8157	580943	0	0
2024-09-27 01:29:47			0	37472	0	0	0	23270	21860	162687	27301	1058758	46457	108574	0	0	8156	581187	0	0
2024-09-27 01:30:47			0	37466	0	0	0	23267	21850	162599	27258	1058678	46455	108573	0	0	8156	581463	0	0
2024-09-27 01:31:47			0	37461	0	0	0	23272	21850	162603	27364	1058785	46444	108575	0	0	8156	581666	0	0
2024-09-27 01:32:47			0	37477	0	0	0	23264	21850	162643	27043	1058740	46455	108572	0	0	8157	581016	0	0
2024-09-27 01:33:47			0	37449	0	0	0	23264	21850	162707	27229	1058687	46466	108572	0	0	8155	582153	0	0
2024-09-27 01:34:47			0	37430	0	0	0	23270	21850	162699	27171	1058714	46455	108574	0	0	8154	582926	0	0
2024-09-27 01:35:47			0	37459	0	0	0	23264	21860	162803	27582	1058732	46457	108572	0	0	8156	581715	0	0
2024-09-27 01:36:47			0	37440	0	0	0	23272	21850	162695	27362	1058731	46466	108575	0	0	8154	582520	0	0
2024-09-27 01:37:47			0	37417	0	0	0	23262	21850	162715	27483	1058705	46455	108571	0	0	8153	583456	0	0
2024-09-27 01:38:47			0	37435	0	0	0	23270	21850	162763	27376	1058705	46455	108574	0	0	8154	582723	0	0
2024-09-27 01:39:47			0	37415	0	0	0	23244	21850	162755	27095	1058714	46477	108564	0	0	8153	583537	0	0
2024-09-27 01:40:47			0	37396	0	0	0	23254	21850	162843	27183	1058687	46466	108568	0	0	8152	584311	0	0
2024-09-27 01:41:47			0	37406	0	0	0	23246	21850	162815	27327	1058687	46455	108565	0	0	8153	583904	0	0
2024-09-27 01:42:47			0	37385	0	0	0	23259	21840	162907	27227	1058634	46454	108570	0	0	8151	584792	0	0
2024-09-27 01:43:47			0	37385	0	0	0	23251	21850	162899	27057	1058705	46455	108567	0	0	8151	584760	0	0
2024-09-27 01:44:47			0	37398	0	0	0	23244	21830	162931	27220	1058678	46453	108564	0	0	8152	584295	0	0
2024-09-27 01:45:47			0	37392	0	0	0	23249	21830	162923	27268	1058651	46442	108566	0	0	8152	584539	0	0
2024-09-27 01:46:47			0	37382	0	0	0	23246	21840	162839	27502	1058643	46465	108565	0	0	8151	584914	0	0
2024-09-27 01:47:47			0	37378	0	0	0	23249	21830	162943	27147	1058598	46431	108566	0	0	8151	585110	0	0
2024-09-27 01:48:47			0	37375	0	0	0	23241	21830	162975	27088	1058678	46453	108563	0	0	8151	585233	0	0
2024-09-27 01:49:47			0	37368	0	0	0	23228	21840	163103	27274	1058616	46443	108558	0	0	8151	585486	0	0
2024-09-27 01:50:47			0	37322	0	0	0	23233	21830	163219	27180	1058571	46453	108560	0	0	8148	587398	0	0
2024-09-27 01:51:47			0	37296	0	0	0	23218	21820	163354	27313	1058580	46452	108554	0	0	8146	588494	0	0
2024-09-27 01:52:47			0	37268	0	0	0	23215	21830	163442	27384	1058571	46442	108553	0	0	8145	589609	0	0
2024-09-27 01:53:47			0	37263	0	0	0	23215	21830	163538	27568	1058535	46464	108553	0	0	8145	589814	0	0
2024-09-27 01:54:47			0	37238	0	0	0	23205	21810	163594	27197	1058535	46440	108549	0	0	8143	590906	0	0
2024-09-27 01:55:47			0	37193	0	0	0	23197	21820	163766	27256	1058491	46441	108546	0	0	8141	592722	0	0
2024-09-27 01:56:47			0	37171	0	0	0	23197	21810	163902	27516	1058455	46429	108546	0	0	8139	593661	0	0
2024-09-27 01:57:47			0	37125	0	0	0	23192	21810	163986	27126	1058455	46429	108544	0	0	8137	595558	0	0
2024-09-27 01:58:47			0	37111	0	0	0	23199	21800	164054	27381	1058464	46450	108547	0	0	8136	596169	0	0
2024-09-27 01:59:47			0	37119	0	0	0	23194	21800	164082	27235	1058428	46438	108545	0	0	8136	595839	0	0
2024-09-27 02:00:47			0	37125	0	0	0	23192	21790	164066	27137	1058437	46437	108544	0	0	8137	595624	0	0
2024-09-27 02:01:47			0	37086	0	0	0	23186	21800	164134	27315	1058402	46449	108542	0	0	8134	597202	0	0
2024-09-27 02:02:47			0	37087	0	0	0	23192	21790	164138	27234	1058446	46438	108544	0	0	8134	597194	0	0
2024-09-27 02:03:47			0	37087	0	0	0	23192	21800	164266	27407	1058428	46438	108544	0	0	8134	597161	0	0
2024-09-27 02:04:47			0	37054	0	0	0	23199	21790	164286	27235	1058393	46449	108547	0	0	8132	598560	0	0
2024-09-27 02:05:47			0	37067	0	0	0	23192	21780	164322	27220	1058348	46448	108544	0	0	8133	598055	0	0
2024-09-27 02:06:47			0	37047	0	0	0	23194	21790	164386	27312	1058437	46426	108545	0	0	8132	598850	0	0
2024-09-27 02:07:47			0	37047	0	0	0	23197	21770	164402	27348	1058410	46458	108546	0	0	8132	598916	0	0
2024-09-27 02:08:47			0	37046	0	0	0	23186	21790	164390	27703	1058357	46437	108542	0	0	8132	598891	0	0
2024-09-27 02:09:47			0	37030	0	0	0	23189	21790	164494	27566	1058410	46448	108543	0	0	8131	599554	0	0
2024-09-27 02:10:47			0	37015	0	0	0	23194	21780	164534	27438	1058375	46437	108545	0	0	8130	600210	0	0
2024-09-27 02:11:47			0	37008	0	0	0	23181	21780	164550	27320	1058375	46459	108540	0	0	8130	600500	0	0
2024-09-27 02:12:47			0	37016	0	0	0	23176	21770	164550	27036	1058348	46424	108538	0	0	8130	600202	0	0
2024-09-27 02:13:47			0	37009	0	0	0	23181	21780	164450	27118	1058313	46447	108540	0	0	8130	600459	0	0
2024-09-27 02:14:47			0	37012	0	0	0	23174	21770	164514	27294	1058357	46436	108537	0	0	8130	600368	0	0
2024-09-27 02:15:47			0	37006	0	0	0	23176	21770	164510	27241	1058321	46458	108538	0	0	8130	600617	0	0
2024-09-27 02:16:47			0	36996	0	0	0	23179	21770	164610	27069	1058357	46436	108539	0	0	8129	601032	0	0
2024-09-27 02:17:47			0	36993	0	0	0	23179	21760	164638	27260	1058312	46458	108539	0	0	8129	601190	0	0
2024-09-27 02:18:47			0	37001	0	0	0	23194	21760	164558	27078	1058303	46445	108545	0	0	8129	600858	0	0
2024-09-27 02:19:47			0	36998	0	0	0	23189	21760	164614	27388	1058312	46458	108543	0	0	8129	600982	0	0
2024-09-27 02:20:47			0	37013	0	0	0	23192	21770	164574	27429	1058295	46458	108544	0	0	8130	600326	0	0
2024-09-27 02:21:47			0	37001	0	0	0	23184	21760	164686	27438	1058312	46458	108541	0	0	8129	600858	0	0
2024-09-27 02:22:47			0	36998	0	0	0	23176	21760	164610	27291	1058312	46435	108538	0	0	8129	600982	0	0
2024-09-27 02:23:47			0	37002	0	0	0	23176	21760	164574	27281	1058286	46468	108538	0	0	8129	600816	0	0
2024-09-27 02:24:47			0	36992	0	0	0	23174	21770	164670	27391	1058330	46447	108537	0	0	8129	601198	0	0
2024-09-27 02:25:47			0	36982	0	0	0	23168	21770	164806	27457	1058321	46458	108535	0	0	8128	601614	0	0
2024-09-27 02:26:47			0	36966	0	0	0	23174	21770	164806	27159	1058321	46446	108537	0	0	8127	602279	0	0
2024-09-27 02:27:47			0	36949	0	0	0	23176	21750	164750	27476	1058268	46456	108538	0	0	8126	603053	0	0
2024-09-27 02:28:47			0	36969	0	0	0	23171	21760	164826	27229	1058303	46434	108536	0	0	8127	602188	0	0
2024-09-27 02:29:47			0	36944	0	0	0	23171	21750	164830	27441	1058241	46434	108536	0	0	8126	603261	0	0
2024-09-27 02:30:47			0	36947	0	0	0	23176	21750	164898	27189	1058294	46445	108538	0	0	8126	603137	0	0
2024-09-27 02:31:47			0	36965	0	0	0	23181	21770	164786	27384	1058321	46435	108540	0	0	8127	602320	0	0
2024-09-27 02:32:47			0	36943	0	0	0	23179	21750	164758	27218	1058294	46467	108539	0	0	8126	603303	0	0
2024-09-27 02:33:47			0	36964	0	0	0	23176	21760	164758	27431	1058286	46458	108538	0	0	8127	602396	0	0
2024-09-27 02:34:47			0	36978	0	0	0	23179	21750	164702	27097	1058214	46456	108539	0	0	8128	601847	0	0
2024-09-27 02:35:47			0	36973	0	0	0	23174	21750	164806	27672	1058268	46456	108537	0	0	8128	602055	0	0
2024-09-27 02:36:47			0	36967	0	0	0	23166	21750	164762	26982	1058241	46434	108534	0	0	8127	602304	0	0
2024-09-27 02:37:47			0	36969	0	0	0	23186	21760	164706	27140	1058303	46467	108542	0	0	8127	602188	0	0
2024-09-27 02:38:47			0	36975	0	0	0	23174	21760	164630	27072	1058277	46445	108537	0	0	8128	601938	0	0
2024-09-27 02:39:47			0	36982	0	0	0	23171	21750	164654	27154	1058321	46467	108536	0	0	8128	601681	0	0
2024-09-27 02:40:47			0	36981	0	0	0	23174	21750	164718	27275	1058259	46455	108537	0	0	8128	601722	0	0
2024-09-27 02:41:47			0	36985	0	0	0	23168	21740	164698	27289	1058250	46466	108535	0	0	8128	601589	0	0
2024-09-27 02:42:47			0	36977	0	0	0	23176	21750	164678	27320	1058188	46456	108538	0	0	8128	601888	0	0
2024-09-27 02:43:47			0	36981	0	0	0	23179	21750	164750	27305	1058339	46466	108539	0	0	8128	601722	0	0
2024-09-27 02:44:47			0	36970	0	0	0	23186	21750	164658	27081	1058294	46445	108542	0	0	8127	602180	0	0
2024-09-27 02:45:47			0	36994	0	0	0	23179	21760	164630	27317	1058330	46445	108539	0	0	8129	601149	0	0
2024-09-27 02:46:47			0	37002	0	0	0	23179	21760	164542	27222	1058259	46446	108539	0	0	8129	600816	0	0
2024-09-27 02:47:47			0	36995	0	0	0	23184	21760	164614	27267	1058250	46456	108541	0	0	8129	601107	0	0
2024-09-27 02:48:47			0	37007	0	0	0	23186	21760	164586	27066	1058303	46467	108542	0	0	8129	600609	0	0
2024-09-27 02:49:47			0	36993	0	0	0	23179	21750	164558	27294	1058268	46445	108539	0	0	8129	601224	0	0
2024-09-27 02:50:47			0	36987	0	0	0	23166	21750	164654	27287	1058321	46467	108534	0	0	8129	601473	0	0
2024-09-27 02:51:47			0	36977	0	0	0	23176	21750	164690	27204	1058241	46434	108538	0	0	8128	601888	0	0
2024-09-27 02:52:47			0	36976	0	0	0	23168	21760	164686	27403	1058277	46445	108535	0	0	8128	601897	0	0
2024-09-27 02:53:47			0	36986	0	0	0	23171	21760	164822	27185	1058277	46445	108536	0	0	8128	601481	0	0
2024-09-27 02:54:47			0	36987	0	0	0	23174	21750	164770	27369	1058312	46455	108537	0	0	8128	601473	0	0
2024-09-27 02:55:47			0	36993	0	0	0	23174	21750	164650	26965	1058285	46455	108537	0	0	8129	601224	0	0
2024-09-27 02:56:47			0	36985	0	0	0	23171	21740	164750	26859	1058276	46466	108536	0	0	8128	601589	0	0
2024-09-27 02:57:47			0	36974	0	0	0	23166	21750	164682	26901	1058241	46445	108534	0	0	8128	602013	0	0
2024-09-27 02:58:47			0	36981	0	0	0	23179	21750	164746	26909	1058232	46444	108539	0	0	8128	601722	0	0
2024-09-27 02:59:47			0	36982	0	0	0	23171	21740	164762	27362	1058188	46432	108536	0	0	8128	601714	0	0
2024-09-27 03:00:47			0	36987	0	0	0	23166	21750	164806	27194	1058232	46444	108534	0	0	8129	601473	0	0
2024-09-27 03:01:47			0	36995	0	0	0	23163	21750	164786	27079	1058205	46466	108533	0	0	8129	601141	0	0
2024-09-27 03:02:47			0	36968	0	0	0	23174	21750	164782	27020	1058232	46444	108537	0	0	8127	602263	0	0
2024-09-27 03:03:47			0	36978	0	0	0	23168	21750	164750	27222	1058214	46445	108535	0	0	8128	601847	0	0
2024-09-27 03:04:47			0	36979	0	0	0	23184	21750	164806	27114	1058241	46445	108541	0	0	8128	601805	0	0
2024-09-27 03:05:47			0	36971	0	0	0	23166	21750	164790	27301	1058285	46455	108534	0	0	8128	602138	0	0
2024-09-27 03:06:47			0	36962	0	0	0	23176	21740	164806	27268	1058250	46444	108538	0	0	8127	602546	0	0
2024-09-27 03:07:47			0	36970	0	0	0	23171	21750	164794	27140	1058285	46444	108536	0	0	8127	602180	0	0
2024-09-27 03:08:47			0	36973	0	0	0	23174	21750	164778	27220	1058205	46444	108537	0	0	8128	602055	0	0
2024-09-27 03:09:47			0	36955	0	0	0	23174	21760	164762	27000	1058250	46445	108537	0	0	8127	602770	0	0
2024-09-27 03:10:47			0	36973	0	0	0	23171	21750	164890	26946	1058259	46433	108536	0	0	8128	602055	0	0
2024-09-27 03:11:47			0	36958	0	0	0	23163	21740	164922	27059	1058223	46455	108533	0	0	8127	602712	0	0
2024-09-27 03:12:47			0	36960	0	0	0	23168	21750	164858	27093	1058285	46444	108535	0	0	8127	602596	0	0
2024-09-27 03:13:47			0	36953	0	0	0	23168	21740	164906	27230	1058143	46455	108535	0	0	8126	602920	0	0
2024-09-27 03:14:47			0	36955	0	0	0	23161	21740	164958	27222	1058250	46444	108532	0	0	8127	602837	0	0
2024-09-27 03:15:47			0	36944	0	0	0	23155	21740	164938	27157	1058197	46455	108530	0	0	8126	603295	0	0
2024-09-27 03:16:47			0	36948	0	0	0	23158	21740	165002	26894	1058188	46443	108531	0	0	8126	603128	0	0
2024-09-27 03:17:47			0	36952	0	0	0	23168	21740	164994	27208	1058250	46433	108535	0	0	8126	602962	0	0
2024-09-27 03:18:47			0	36949	0	0	0	23158	21750	164894	27060	1058179	46444	108531	0	0	8126	603053	0	0
2024-09-27 03:19:47			0	36950	0	0	0	23163	21740	165030	27296	1058214	46454	108533	0	0	8126	603045	0	0
2024-09-27 03:20:47			0	36937	0	0	0	23153	21740	164986	27265	1058188	46432	108529	0	0	8126	603587	0	0
2024-09-27 03:21:47			0	36920	0	0	0	23163	21740	165038	27161	1058223	46444	108533	0	0	8125	604295	0	0
2024-09-27 03:22:47			0	36938	0	0	0	23150	21740	165026	27123	1058241	46432	108528	0	0	8126	603545	0	0
2024-09-27 03:23:47			0	36916	0	0	0	23153	21740	165062	27215	1058170	46444	108529	0	0	8124	604462	0	0
2024-09-27 03:24:47			0	36914	0	0	0	23163	21730	165054	27163	1058179	46442	108533	0	0	8124	604579	0	0
2024-09-27 03:25:47			0	36927	0	0	0	23153	21740	165074	27281	1058250	46444	108529	0	0	8125	604003	0	0
2024-09-27 03:26:47			0	36907	0	0	0	23158	21730	165030	27192	1058205	46442	108531	0	0	8124	604871	0	0
2024-09-27 03:27:47			0	36906	0	0	0	23158	21740	165110	27013	1058214	46432	108531	0	0	8124	604879	0	0
2024-09-27 03:28:47			0	36924	0	0	0	23155	21740	165134	27241	1058250	46455	108530	0	0	8125	604128	0	0
2024-09-27 03:29:47			0	36921	0	0	0	23155	21740	165078	27286	1058214	46454	108530	0	0	8125	604253	0	0
2024-09-27 03:30:47			0	36941	0	0	0	23145	21740	165142	27177	1058161	46454	108526	0	0	8126	603420	0	0
2024-09-27 03:31:47			0	36936	0	0	0	23161	21740	165050	27303	1058214	46443	108532	0	0	8126	603628	0	0
2024-09-27 03:32:47			0	36936	0	0	0	23176	21740	165058	27718	1058197	46444	108538	0	0	8125	603628	0	0
2024-09-27 03:33:47			0	36943	0	0	0	23174	21740	164922	27365	1058303	46444	108537	0	0	8126	603337	0	0
2024-09-27 03:34:47			0	36967	0	0	0	23161	21740	164842	27242	1058214	46443	108532	0	0	8127	602338	0	0
2024-09-27 03:35:47			0	36953	0	0	0	23161	21740	164922	27154	1058223	46466	108532	0	0	8127	602920	0	0
2024-09-27 03:36:47			0	36975	0	0	0	23161	21740	164934	27339	1058197	46455	108532	0	0	8128	602005	0	0
2024-09-27 03:37:47			0	36975	0	0	0	23166	21740	164926	27131	1058214	46443	108534	0	0	8128	602005	0	0
2024-09-27 03:38:47			0	36992	0	0	0	23171	21740	164814	27098	1058214	46432	108536	0	0	8129	601299	0	0
2024-09-27 03:39:47			0	36977	0	0	0	23171	21750	164870	27067	1058205	46466	108536	0	0	8128	601888	0	0
2024-09-27 03:40:47			0	36991	0	0	0	23155	21750	164810	27407	1058205	46455	108530	0	0	8129	601307	0	0
2024-09-27 03:41:47			0	36980	0	0	0	23158	21740	164818	27083	1058223	46455	108531	0	0	8128	601797	0	0
2024-09-27 03:42:47			0	36975	0	0	0	23161	21740	164846	27208	1058170	46444	108532	0	0	8128	602005	0	0
2024-09-27 03:43:47			0	36987	0	0	0	23163	21740	164750	27277	1058188	46443	108533	0	0	8129	601506	0	0
2024-09-27 03:44:47			0	36995	0	0	0	23155	21740	164818	27353	1058214	46443	108530	0	0	8129	601174	0	0
2024-09-27 03:45:47			0	36975	0	0	0	23153	21750	164870	27369	1058205	46455	108529	0	0	8128	601972	0	0
2024-09-27 03:46:47			0	36980	0	0	0	23166	21740	164862	27312	1058223	46422	108534	0	0	8128	601797	0	0
2024-09-27 03:47:47			0	36985	0	0	0	23158	21740	164794	27402	1058161	46465	108531	0	0	8129	601589	0	0
2024-09-27 03:48:47			0	36990	0	0	0	23174	21740	164882	27085	1058223	46466	108537	0	0	8129	601382	0	0
2024-09-27 03:49:47			0	37012	0	0	0	23171	21740	164710	27033	1058188	46454	108536	0	0	8130	600468	0	0
2024-09-27 03:50:47			0	37024	0	0	0	23174	21740	164818	27400	1058276	46466	108537	0	0	8131	599970	0	0
2024-09-27 03:51:47			0	37027	0	0	0	23158	21740	164710	27471	1058241	46443	108531	0	0	8131	599846	0	0
2024-09-27 03:52:47			0	37015	0	0	0	23161	21740	164838	27175	1058241	46454	108532	0	0	8130	600344	0	0
2024-09-27 03:53:47			0	36999	0	0	0	23153	21750	164750	27182	1058259	46444	108529	0	0	8130	600974	0	0
2024-09-27 03:54:47			0	37013	0	0	0	23153	21740	164674	27353	1058188	46421	108529	0	0	8130	600427	0	0
2024-09-27 03:55:47			0	36998	0	0	0	23148	21740	164790	27131	1058214	46421	108527	0	0	8130	601049	0	0
2024-09-27 03:56:47			0	36981	0	0	0	23153	21730	164842	27062	1058152	46453	108529	0	0	8128	601789	0	0
2024-09-27 03:57:47			0	36986	0	0	0	23153	21730	164866	27305	1058205	46431	108529	0	0	8129	601581	0	0
2024-09-27 03:58:47			0	36973	0	0	0	23161	21740	164866	27235	1058214	46432	108532	0	0	8128	602088	0	0
2024-09-27 03:59:47			0	36980	0	0	0	23153	21730	164866	27192	1058152	46453	108529	0	0	8128	601831	0	0
2024-09-27 04:00:47			0	36964	0	0	0	23142	21740	164906	27360	1058214	46443	108525	0	0	8128	602463	0	0
2024-09-27 04:01:47			0	36984	0	0	0	23153	21740	164830	27294	1058223	46433	108529	0	0	8129	601631	0	0
2024-09-27 04:02:47			0	36993	0	0	0	23153	21740	164950	27055	1058188	46443	108529	0	0	8129	601257	0	0
2024-09-27 04:03:47			0	36994	0	0	0	23158	21730	164846	26986	1058223	46453	108531	0	0	8129	601249	0	0
2024-09-27 04:04:47			0	37007	0	0	0	23158	21730	164850	27313	1058152	46442	108531	0	0	8130	600709	0	0
2024-09-27 04:05:47			0	37009	0	0	0	23158	21730	164722	27157	1058179	46453	108531	0	0	8130	600626	0	0
2024-09-27 04:06:47			0	37016	0	0	0	23163	21740	164614	27201	1058241	46443	108533	0	0	8130	600302	0	0
2024-09-27 04:07:47			0	37023	0	0	0	23150	21730	164674	27485	1058232	46453	108528	0	0	8131	600045	0	0
2024-09-27 04:08:47			0	37016	0	0	0	23150	21730	164670	27256	1058170	46442	108528	0	0	8130	600336	0	0
2024-09-27 04:09:47			0	37020	0	0	0	23150	21730	164602	27367	1058232	46453	108528	0	0	8131	600169	0	0
2024-09-27 04:10:47			0	37021	0	0	0	23158	21720	164626	27481	1058187	46431	108531	0	0	8131	600161	0	0
2024-09-27 04:11:47			0	37033	0	0	0	23171	21720	164622	27341	1058214	46442	108536	0	0	8131	599664	0	0
2024-09-27 04:12:47			0	37047	0	0	0	23158	21740	164606	27379	1058170	46455	108531	0	0	8132	599016	0	0
2024-09-27 04:13:47			0	37055	0	0	0	23148	21740	164618	27232	1058214	46432	108527	0	0	8133	598685	0	0
2024-09-27 04:14:47			0	37044	0	0	0	23153	21730	164678	27268	1058196	46464	108529	0	0	8132	599174	0	0
2024-09-27 04:15:47			0	37064	0	0	0	23163	21740	164654	27492	1058214	46454	108533	0	0	8133	598312	0	0
2024-09-27 04:16:47			0	37055	0	0	0	23163	21720	164566	27379	1058161	46431	108533	0	0	8133	598752	0	0
2024-09-27 04:17:47			0	37078	0	0	0	23153	21730	164446	27348	1058179	46464	108529	0	0	8134	597766	0	0
2024-09-27 04:18:47			0	37071	0	0	0	23161	21740	164462	27190	1058241	46421	108532	0	0	8134	598022	0	0
2024-09-27 04:19:47			0	37074	0	0	0	23142	21730	164542	27303	1058232	46442	108525	0	0	8134	597931	0	0
2024-09-27 04:20:47			0	37077	0	0	0	23158	21730	164450	27556	1058170	46431	108531	0	0	8134	597807	0	0
2024-09-27 04:21:47			0	37081	0	0	0	23163	21740	164426	27500	1058303	46433	108533	0	0	8134	597608	0	0
2024-09-27 04:22:47			0	37075	0	0	0	23166	21730	164402	27608	1058179	46453	108534	0	0	8134	597890	0	0
2024-09-27 04:23:47			0	37097	0	0	0	23168	21740	164298	27374	1058241	46465	108535	0	0	8135	596947	0	0
2024-09-27 04:24:47			0	37112	0	0	0	23168	21740	164362	27435	1058250	46444	108535	0	0	8136	596327	0	0
2024-09-27 04:25:47			0	37114	0	0	0	23168	21740	164206	27156	1058241	46443	108535	0	0	8136	596244	0	0
2024-09-27 04:26:47			0	37113	0	0	0	23174	21740	164186	27566	1058241	46443	108537	0	0	8136	596286	0	0
2024-09-27 04:27:47			0	37152	0	0	0	23163	21740	164206	27518	1058214	46443	108533	0	0	8138	594676	0	0
2024-09-27 04:28:47			0	37141	0	0	0	23166	21740	164206	27424	1058214	46443	108534	0	0	8138	595129	0	0
2024-09-27 04:29:47			0	37138	0	0	0	23166	21750	164202	27736	1058232	46455	108534	0	0	8138	595220	0	0
2024-09-27 04:30:47			0	37126	0	0	0	23163	21730	164226	27357	1058205	46431	108533	0	0	8137	595782	0	0
2024-09-27 04:31:47			0	37140	0	0	0	23168	21740	164266	26960	1058241	46454	108535	0	0	8138	595171	0	0
2024-09-27 04:32:47			0	37159	0	0	0	23181	21730	164162	27512	1058285	46420	108540	0	0	8139	594420	0	0
2024-09-27 04:33:47			0	37181	0	0	0	23176	21740	164102	27341	1058294	46454	108538	0	0	8140	593481	0	0
2024-09-27 04:34:47			0	37170	0	0	0	23171	21740	164074	27234	1058276	46455	108536	0	0	8139	593934	0	0
2024-09-27 04:35:47			0	37168	0	0	0	23171	21740	164130	27492	1058241	46443	108536	0	0	8139	594016	0	0
2024-09-27 04:36:47			0	37189	0	0	0	23176	21740	164038	27336	1058268	46443	108538	0	0	8140	593151	0	0
2024-09-27 04:37:47			0	37194	0	0	0	23179	21750	164094	27507	1058348	46467	108539	0	0	8141	592912	0	0
2024-09-27 04:38:47			0	37195	0	0	0	23171	21740	163970	27460	1058268	46454	108536	0	0	8141	592904	0	0
2024-09-27 04:39:47			0	37175	0	0	0	23171	21750	163954	27492	1058259	46455	108536	0	0	8140	593695	0	0
2024-09-27 04:40:47			0	37200	0	0	0	23181	21740	164102	27363	1058303	46455	108540	0	0	8141	592698	0	0
2024-09-27 04:41:47			0	37208	0	0	0	23176	21750	163910	27334	1058285	46455	108538	0	0	8142	592336	0	0
2024-09-27 04:42:47			0	37204	0	0	0	23171	21740	163878	27431	1058223	46455	108536	0	0	8141	592534	0	0
2024-09-27 04:43:47			0	37201	0	0	0	23168	21750	163862	27725	1058259	46455	108535	0	0	8141	592624	0	0
2024-09-27 04:44:47			0	37202	0	0	0	23174	21750	163978	27469	1058285	46455	108537	0	0	8141	592583	0	0
2024-09-27 04:45:47			0	37206	0	0	0	23176	21740	163878	27455	1058268	46443	108538	0	0	8141	592451	0	0
2024-09-27 04:46:47			0	37208	0	0	0	23168	21750	163886	27343	1058259	46444	108535	0	0	8142	592336	0	0
2024-09-27 04:47:47			0	37213	0	0	0	23174	21750	163806	27192	1058312	46433	108537	0	0	8142	592130	0	0
2024-09-27 04:48:47			0	37206	0	0	0	23171	21750	163806	27450	1058285	46455	108536	0	0	8142	592418	0	0
2024-09-27 04:49:47			0	37209	0	0	0	23174	21740	163786	27504	1058250	46444	108537	0	0	8142	592328	0	0
2024-09-27 04:50:47			0	37221	0	0	0	23184	21740	163938	27466	1058250	46455	108541	0	0	8142	591835	0	0
2024-09-27 04:51:47			0	37230	0	0	0	23176	21750	163794	27218	1058214	46456	108538	0	0	8143	591432	0	0
2024-09-27 04:52:47			0	37237	0	0	0	23186	21750	163698	27426	1058294	46434	108542	0	0	8143	591144	0	0
2024-09-27 04:53:47			0	37269	0	0	0	23181	21750	163618	27204	1058312	46466	108540	0	0	8145	589831	0	0
2024-09-27 04:54:47			0	37254	0	0	0	23186	21760	163630	27599	1058277	46456	108542	0	0	8144	590413	0	0
2024-09-27 04:55:47			0	37276	0	0	0	23184	21750	163630	27326	1058348	46434	108541	0	0	8146	589544	0	0
2024-09-27 04:56:47			0	37286	0	0	0	23184	21750	163562	27498	1058294	46445	108541	0	0	8146	589134	0	0
2024-09-27 04:57:47			0	37286	0	0	0	23205	21760	163482	27523	1058383	46456	108549	0	0	8146	589101	0	0
2024-09-27 04:58:47			0	37315	0	0	0	23194	21760	163495	27409	1058330	46445	108545	0	0	8148	587913	0	0
2024-09-27 04:59:47			0	37304	0	0	0	23192	21760	163382	27414	1058383	46456	108544	0	0	8147	588363	0	0
2024-09-27 05:00:47			0	37325	0	0	0	23184	21750	163399	27282	1058374	46456	108541	0	0	8148	587537	0	0
2024-09-27 05:01:47			0	37323	0	0	0	23197	21760	163455	27556	1058339	46446	108546	0	0	8148	587586	0	0
2024-09-27 05:02:47			0	37337	0	0	0	23194	21750	163379	27402	1058348	46434	108545	0	0	8149	587046	0	0
2024-09-27 05:03:47			0	37310	0	0	0	23192	21760	163371	27313	1058366	46468	108544	0	0	8147	588118	0	0
2024-09-27 05:04:47			0	37317	0	0	0	23189	21750	163466	27282	1058365	46455	108543	0	0	8148	587864	0	0
2024-09-27 05:05:47			0	37326	0	0	0	23202	21760	163402	27384	1058312	46446	108548	0	0	8148	587463	0	0
2024-09-27 05:06:47			0	37351	0	0	0	23189	21760	163331	27168	1058330	46445	108543	0	0	8150	586441	0	0
2024-09-27 05:07:47			0	37348	0	0	0	23202	21770	163287	27303	1058348	46446	108548	0	0	8150	586531	0	0
2024-09-27 05:08:47			0	37354	0	0	0	23215	21760	163287	27270	1058392	46458	108553	0	0	8150	586318	0	0
2024-09-27 05:09:47			0	37383	0	0	0	23212	21770	163187	27064	1058375	46458	108552	0	0	8152	585102	0	0
2024-09-27 05:10:47			0	37387	0	0	0	23189	21760	163239	27265	1058419	46458	108543	0	0	8152	584971	0	0
2024-09-27 05:11:47			0	37383	0	0	0	23207	21770	163255	27246	1058384	46458	108550	0	0	8152	585102	0	0
2024-09-27 05:12:47			0	37385	0	0	0	23202	21770	163087	27391	1058464	46436	108548	0	0	8152	585020	0	0
2024-09-27 05:13:47			0	37389	0	0	0	23205	21780	163211	27310	1058419	46447	108549	0	0	8152	584824	0	0
2024-09-27 05:14:47			0	37389	0	0	0	23194	21770	163107	27320	1058357	46436	108545	0	0	8152	584857	0	0
2024-09-27 05:15:47			0	37388	0	0	0	23210	21780	163043	27338	1058419	46447	108551	0	0	8152	584865	0	0
2024-09-27 05:16:47			0	37401	0	0	0	23205	21770	163155	27341	1058464	46436	108549	0	0	8153	584368	0	0
2024-09-27 05:17:47			0	37401	0	0	0	23215	21770	163087	27263	1058464	46469	108553	0	0	8153	584368	0	0
2024-09-27 05:18:47			0	37416	0	0	0	23220	21770	163083	26991	1058490	46436	108555	0	0	8153	583756	0	0
2024-09-27 05:19:47			0	37429	0	0	0	23218	21780	163043	27400	1058481	46459	108554	0	0	8154	583194	0	0
2024-09-27 05:20:47			0	37437	0	0	0	23207	21790	162899	27133	1058393	46449	108550	0	0	8155	582836	0	0
2024-09-27 05:21:47			0	37420	0	0	0	23215	21790	162915	27145	1058499	46471	108553	0	0	8154	583528	0	0
2024-09-27 05:22:47			0	37447	0	0	0	23210	21790	162931	27303	1058437	46470	108551	0	0	8155	582430	0	0
2024-09-27 05:23:47			0	37447	0	0	0	23207	21780	162995	27114	1058481	46459	108550	0	0	8155	582462	0	0
2024-09-27 05:24:47			0	37445	0	0	0	23205	21790	162927	27098	1058490	46448	108549	0	0	8155	582511	0	0
2024-09-27 05:25:47			0	37448	0	0	0	23218	21790	162903	27279	1058544	46426	108554	0	0	8155	582389	0	0
2024-09-27 05:26:47			0	37461	0	0	0	23218	21790	162939	26968	1058473	46449	108554	0	0	8156	581860	0	0
2024-09-27 05:27:47			0	37455	0	0	0	23223	21780	162803	27429	1058481	46459	108556	0	0	8156	582136	0	0
2024-09-27 05:28:47			0	37452	0	0	0	23212	21800	162923	27114	1058508	46471	108552	0	0	8156	582194	0	0
2024-09-27 05:29:47			0	37449	0	0	0	23210	21780	162819	26955	1058481	46459	108551	0	0	8156	582381	0	0
2024-09-27 05:30:47			0	37465	0	0	0	23225	21780	162935	27149	1058419	46447	108557	0	0	8156	581730	0	0
2024-09-27 05:31:47			0	37472	0	0	0	23223	21790	162891	26883	1058473	46449	108556	0	0	8157	581413	0	0
2024-09-27 05:32:47			0	37483	0	0	0	23215	21790	162823	27064	1058446	46459	108553	0	0	8157	580966	0	0
2024-09-27 05:33:47			0	37467	0	0	0	23225	21790	162859	27310	1058473	46471	108557	0	0	8156	581616	0	0
2024-09-27 05:34:47			0	37486	0	0	0	23220	21790	162743	27367	1058553	46471	108555	0	0	8158	580845	0	0
2024-09-27 05:35:47			0	37479	0	0	0	23218	21800	162739	27296	1058517	46450	108554	0	0	8157	581097	0	0
2024-09-27 05:36:47			0	37477	0	0	0	23223	21800	162715	27448	1058535	46459	108556	0	0	8157	581178	0	0
2024-09-27 05:37:47			0	37486	0	0	0	23215	21790	162743	27317	1058473	46471	108553	0	0	8158	580845	0	0
2024-09-27 05:38:47			0	37485	0	0	0	23207	21790	162747	27126	1058446	46449	108550	0	0	8158	580885	0	0
2024-09-27 05:39:47			0	37483	0	0	0	23231	21790	162743	27320	1058464	46448	108559	0	0	8157	580966	0	0
2024-09-27 05:40:47			0	37480	0	0	0	23228	21790	162639	27417	1058544	46459	108558	0	0	8157	581088	0	0
2024-09-27 05:41:47			0	37497	0	0	0	23212	21790	162707	27315	1058499	46471	108552	0	0	8158	580398	0	0
2024-09-27 05:42:47			0	37494	0	0	0	23210	21790	162707	27142	1058446	46471	108551	0	0	8158	580520	0	0
2024-09-27 05:43:47			0	37488	0	0	0	23210	21800	162591	27350	1058482	46438	108551	0	0	8158	580731	0	0
2024-09-27 05:44:47			0	37482	0	0	0	23231	21790	162671	27229	1058553	46449	108559	0	0	8157	581007	0	0
2024-09-27 05:45:47			0	37503	0	0	0	23231	21800	162667	27192	1058562	46449	108559	0	0	8158	580122	0	0
2024-09-27 05:46:47			0	37507	0	0	0	23218	21800	162603	27353	1058491	46450	108554	0	0	8159	579960	0	0
2024-09-27 05:47:47			0	37511	0	0	0	23210	21800	162635	27031	1058482	46459	108551	0	0	8159	579798	0	0
2024-09-27 05:48:47			0	37494	0	0	0	23220	21810	162699	27083	1058553	46461	108555	0	0	8158	580455	0	0
2024-09-27 05:49:47			0	37514	0	0	0	23228	21800	162615	27405	1058508	46438	108558	0	0	8159	579676	0	0
2024-09-27 05:50:47			0	37524	0	0	0	23210	21800	162611	27331	1058571	46461	108551	0	0	8160	579271	0	0
2024-09-27 05:51:47			0	37511	0	0	0	23215	21800	162587	27296	1058562	46449	108553	0	0	8159	579798	0	0
2024-09-27 05:52:47			0	37525	0	0	0	23215	21800	162655	27395	1058517	46461	108553	0	0	8160	579230	0	0
2024-09-27 05:53:47			0	37502	0	0	0	23220	21790	162671	27384	1058553	46427	108555	0	0	8159	580195	0	0
2024-09-27 05:54:47			0	37511	0	0	0	23218	21800	162551	27048	1058544	46450	108554	0	0	8159	579798	0	0
2024-09-27 05:55:47			0	37525	0	0	0	23199	21800	162619	27192	1058491	46450	108547	0	0	8160	579230	0	0
2024-09-27 05:56:47			0	37503	0	0	0	23189	21800	162563	27350	1058455	46427	108543	0	0	8159	580122	0	0
2024-09-27 05:57:47			0	37506	0	0	0	23194	21770	162619	27308	1058410	46447	108545	0	0	8159	580097	0	0
2024-09-27 05:58:47			0	37512	0	0	0	23210	21790	162719	27145	1058437	46448	108551	0	0	8159	579789	0	0
2024-09-27 05:59:47			0	37523	0	0	0	23215	21790	162611	27116	1058526	46427	108553	0	0	8160	579344	0	0
2024-09-27 06:00:47			0	37506	0	0	0	23218	21780	162599	27095	1058375	46437	108554	0	0	8159	580065	0	0
2024-09-27 06:01:47			0	37518	0	0	0	23205	21790	162583	27241	1058464	46459	108549	0	0	8160	579546	0	0
2024-09-27 06:02:47			0	37530	0	0	0	23215	21790	162539	27561	1058446	46449	108553	0	0	8160	579060	0	0
2024-09-27 06:03:47			0	37524	0	0	0	23210	21790	162587	27232	1058499	46471	108551	0	0	8160	579303	0	0
2024-09-27 06:04:47			0	37532	0	0	0	23210	21790	162467	27336	1058526	46459	108551	0	0	8160	578979	0	0
2024-09-27 06:05:47			0	37535	0	0	0	23194	21790	162539	27119	1058499	46459	108545	0	0	8161	578857	0	0
2024-09-27 06:06:47			0	37533	0	0	0	23212	21800	162547	27345	1058428	46459	108552	0	0	8161	578906	0	0
2024-09-27 06:07:47			0	37553	0	0	0	23205	21790	162431	27189	1058490	46437	108549	0	0	8162	578128	0	0
2024-09-27 06:08:47			0	37532	0	0	0	23197	21800	162547	27085	1058428	46471	108546	0	0	8161	578946	0	0
2024-09-27 06:09:47			0	37522	0	0	0	23197	21790	162539	27109	1058464	46459	108546	0	0	8160	579384	0	0
2024-09-27 06:10:47			0	37517	0	0	0	23215	21780	162567	27303	1058481	46448	108553	0	0	8159	579619	0	0
2024-09-27 06:11:47			0	37537	0	0	0	23197	21790	162655	27255	1058490	46437	108546	0	0	8161	578776	0	0
2024-09-27 06:12:47			0	37526	0	0	0	23186	21770	162575	27234	1058384	46458	108542	0	0	8160	579286	0	0
2024-09-27 06:13:47			0	37520	0	0	0	23210	21770	162543	27189	1058437	46458	108551	0	0	8160	579530	0	0
2024-09-27 06:14:47			0	37546	0	0	0	23197	21790	162487	27064	1058437	46459	108546	0	0	8162	578412	0	0
2024-09-27 06:15:47			0	37531	0	0	0	23205	21780	162487	27196	1058472	46458	108549	0	0	8160	579052	0	0
2024-09-27 06:16:47			0	37554	0	0	0	23205	21770	162475	27348	1058384	46447	108549	0	0	8162	578152	0	0
2024-09-27 06:17:47			0	37545	0	0	0	23205	21790	162275	27486	1058464	46459	108549	0	0	8161	578452	0	0
2024-09-27 06:18:47			0	37538	0	0	0	23215	21790	162447	26982	1058544	46459	108553	0	0	8161	578736	0	0
2024-09-27 06:19:47			0	37558	0	0	0	23210	21770	162319	26960	1058437	46469	108551	0	0	8162	577990	0	0
2024-09-27 06:20:47			0	37563	0	0	0	23205	21790	162499	27426	1058464	46459	108549	0	0	8162	577724	0	0
2024-09-27 06:21:47			0	37559	0	0	0	23215	21790	162343	27303	1058526	46471	108553	0	0	8162	577885	0	0
2024-09-27 06:22:47			0	37567	0	0	0	23210	21790	162275	27199	1058499	46438	108551	0	0	8163	577562	0	0
2024-09-27 06:23:47			0	37574	0	0	0	23205	21780	162387	27187	1058455	46448	108549	0	0	8163	577311	0	0
2024-09-27 06:24:47			0	37565	0	0	0	23199	21790	162307	27105	1058464	46448	108547	0	0	8163	577643	0	0
2024-09-27 06:25:47			0	37558	0	0	0	23215	21790	162303	27282	1058517	46437	108553	0	0	8162	577926	0	0
2024-09-27 06:26:47			0	37571	0	0	0	23218	21800	162323	27111	1058508	46459	108554	0	0	8163	577368	0	0
2024-09-27 06:27:47			0	37585	0	0	0	23212	21780	162279	27124	1058428	46459	108552	0	0	8164	576866	0	0
2024-09-27 06:28:47			0	37588	0	0	0	23205	21790	162359	27152	1058446	46459	108549	0	0	8164	576713	0	0
2024-09-27 06:29:47			0	37579	0	0	0	23207	21790	162255	27147	1058499	46459	108550	0	0	8163	577076	0	0
2024-09-27 06:30:47			0	37569	0	0	0	23212	21790	162259	27128	1058553	46459	108552	0	0	8163	577481	0	0
2024-09-27 06:31:47			0	37579	0	0	0	23205	21790	162327	27034	1058517	46459	108549	0	0	8163	577076	0	0
2024-09-27 06:32:47			0	37574	0	0	0	23202	21790	162319	27152	1058490	46448	108548	0	0	8163	577278	0	0
2024-09-27 06:33:47			0	37574	0	0	0	23212	21790	162323	26837	1058490	46448	108552	0	0	8163	577278	0	0
2024-09-27 06:34:47			0	37582	0	0	0	23205	21790	162331	27137	1058464	46448	108549	0	0	8164	576955	0	0
2024-09-27 06:35:47			0	37576	0	0	0	23220	21790	162251	27294	1058526	46459	108555	0	0	8163	577198	0	0
2024-09-27 06:36:47			0	37582	0	0	0	23207	21790	162231	27270	1058499	46459	108550	0	0	8163	576955	0	0
2024-09-27 06:37:47			0	37581	0	0	0	23212	21800	162255	26994	1058562	46471	108552	0	0	8163	576963	0	0
2024-09-27 06:38:47			0	37570	0	0	0	23218	21790	162303	27173	1058473	46459	108554	0	0	8163	577440	0	0
2024-09-27 06:39:47			0	37580	0	0	0	23207	21790	162187	27209	1058526	46459	108550	0	0	8163	577036	0	0
2024-09-27 06:40:47			0	37587	0	0	0	23207	21790	162219	27333	1058464	46448	108550	0	0	8164	576753	0	0
2024-09-27 06:41:47			0	37586	0	0	0	23207	21790	162271	27197	1058526	46459	108550	0	0	8164	576793	0	0
2024-09-27 06:42:47			0	37591	0	0	0	23212	21790	162195	27166	1058526	46459	108552	0	0	8164	576591	0	0
2024-09-27 06:43:47			0	37577	0	0	0	23210	21790	162207	27168	1058490	46437	108551	0	0	8163	577157	0	0
2024-09-27 06:44:47			0	37611	0	0	0	23210	21800	162215	27097	1058508	46449	108551	0	0	8165	575751	0	0
2024-09-27 06:45:47			0	37600	0	0	0	23223	21790	162091	27294	1058499	46459	108556	0	0	8164	576228	0	0
2024-09-27 06:46:47			0	37590	0	0	0	23215	21790	162067	26925	1058499	46459	108553	0	0	8164	576632	0	0
2024-09-27 06:47:47			0	37593	0	0	0	23215	21800	162187	27241	1058535	46459	108553	0	0	8164	576479	0	0
2024-09-27 06:48:47			0	37600	0	0	0	23210	21800	162195	27244	1058562	46449	108551	0	0	8165	576196	0	0
2024-09-27 06:49:47			0	37593	0	0	0	23210	21800	162223	27383	1058535	46438	108551	0	0	8164	576479	0	0
2024-09-27 06:50:47			0	37616	0	0	0	23207	21790	162147	27012	1058490	46437	108550	0	0	8165	575582	0	0
2024-09-27 06:51:47			0	37597	0	0	0	23215	21790	162159	27291	1058464	46448	108553	0	0	8164	576349	0	0
2024-09-27 06:52:47			0	37591	0	0	0	23212	21800	162203	27360	1058544	46461	108552	0	0	8164	576559	0	0
2024-09-27 06:53:47			0	37590	0	0	0	23220	21800	162255	27100	1058517	46450	108555	0	0	8164	576600	0	0
2024-09-27 06:54:47			0	37582	0	0	0	23218	21800	162167	27287	1058455	46438	108554	0	0	8163	576923	0	0
2024-09-27 06:55:47			0	37606	0	0	0	23223	21790	162231	27235	1058499	46438	108556	0	0	8165	575985	0	0
2024-09-27 06:56:47			0	37599	0	0	0	23223	21800	162179	27237	1058508	46438	108556	0	0	8164	576236	0	0
2024-09-27 06:57:47			0	37592	0	0	0	23215	21790	162167	27060	1058490	46448	108553	0	0	8164	576551	0	0
2024-09-27 06:58:47			0	37604	0	0	0	23212	21790	162223	27345	1058553	46449	108552	0	0	8165	576066	0	0
2024-09-27 06:59:47			0	37604	0	0	0	23207	21790	162159	27398	1058553	46438	108550	0	0	8165	576066	0	0
2024-09-27 07:00:47			0	37607	0	0	0	23212	21790	162083	27159	1058499	46449	108552	0	0	8165	575945	0	0
2024-09-27 07:01:47			0	37599	0	0	0	23212	21800	162079	27062	1058508	46459	108552	0	0	8164	576236	0	0
2024-09-27 07:02:47			0	37596	0	0	0	23220	21800	162051	27306	1058482	46459	108555	0	0	8164	576357	0	0
2024-09-27 07:03:47			0	37592	0	0	0	23205	21800	162151	27248	1058535	46438	108549	0	0	8164	576519	0	0
2024-09-27 07:04:47			0	37596	0	0	0	23207	21790	162219	27119	1058499	46449	108550	0	0	8164	576389	0	0
2024-09-27 07:05:47			0	37589	0	0	0	23218	21800	162171	27199	1058508	46438	108554	0	0	8164	576640	0	0
2024-09-27 07:06:47			0	37603	0	0	0	23207	21810	162171	27611	1058526	46461	108550	0	0	8165	576042	0	0
2024-09-27 07:07:47			0	37596	0	0	0	23207	21790	162191	27609	1058526	46449	108550	0	0	8164	576389	0	0
2024-09-27 07:08:47			0	37576	0	0	0	23215	21790	162231	27336	1058526	46459	108553	0	0	8163	577198	0	0
2024-09-27 07:09:47			0	37580	0	0	0	23210	21790	162175	27364	1058464	46459	108551	0	0	8163	577036	0	0
2024-09-27 07:10:47			0	37567	0	0	0	23215	21790	162151	27381	1058499	46449	108553	0	0	8162	577562	0	0
2024-09-27 07:11:47			0	37586	0	0	0	23212	21790	162179	27360	1058437	46448	108552	0	0	8164	576793	0	0
2024-09-27 07:12:47			0	37597	0	0	0	23207	21790	162235	27085	1058499	46459	108550	0	0	8164	576349	0	0
2024-09-27 07:13:47			0	37596	0	0	0	23210	21790	162235	27274	1058419	46471	108551	0	0	8164	576389	0	0
2024-09-27 07:14:47			0	37574	0	0	0	23223	21790	162287	26979	1058464	46448	108556	0	0	8163	577278	0	0
2024-09-27 07:15:47			0	37599	0	0	0	23225	21790	162275	27074	1058473	46459	108557	0	0	8164	576268	0	0
2024-09-27 07:16:47			0	37584	0	0	0	23212	21800	162171	27279	1058535	46459	108552	0	0	8164	576842	0	0
2024-09-27 07:17:47			0	37611	0	0	0	23215	21800	162071	27039	1058571	46472	108553	0	0	8165	575751	0	0
2024-09-27 07:18:47			0	37602	0	0	0	23207	21790	162111	27412	1058606	46438	108550	0	0	8165	576147	0	0
2024-09-27 07:19:47			0	37597	0	0	0	23212	21800	162179	27013	1058508	46449	108552	0	0	8164	576317	0	0
2024-09-27 07:20:47			0	37582	0	0	0	23212	21790	162227	27303	1058499	46438	108552	0	0	8163	576955	0	0
2024-09-27 07:21:47			0	37585	0	0	0	23215	21800	162231	26998	1058571	46461	108553	0	0	8164	576802	0	0
2024-09-27 07:22:47			0	37577	0	0	0	23215	21790	162195	26953	1058499	46459	108553	0	0	8163	577157	0	0
2024-09-27 07:23:47			0	37588	0	0	0	23202	21800	162207	27216	1058508	46459	108548	0	0	8164	576680	0	0
2024-09-27 07:24:47			0	37579	0	0	0	23218	21790	162151	27190	1058490	46448	108554	0	0	8163	577076	0	0
2024-09-27 07:25:47			0	37587	0	0	0	23207	21790	162143	27367	1058499	46459	108550	0	0	8164	576753	0	0
2024-09-27 07:26:47			0	37592	0	0	0	23220	21790	162071	27237	1058597	46448	108555	0	0	8164	576551	0	0
2024-09-27 07:27:47			0	37601	0	0	0	23223	21800	162215	27299	1058508	46449	108556	0	0	8164	576155	0	0
2024-09-27 07:28:47			0	37589	0	0	0	23215	21790	162091	27324	1058446	46449	108553	0	0	8164	576672	0	0
2024-09-27 07:29:47			0	37614	0	0	0	23218	21790	162143	27372	1058499	46459	108554	0	0	8165	575662	0	0
2024-09-27 07:30:47			0	37595	0	0	0	23207	21800	162243	27107	1058491	46439	108550	0	0	8164	576398	0	0
2024-09-27 07:31:47			0	37583	0	0	0	23207	21790	162275	27301	1058553	46449	108550	0	0	8164	576915	0	0
2024-09-27 07:32:47			0	37611	0	0	0	23215	21790	162211	27500	1058517	46437	108553	0	0	8165	575783	0	0
2024-09-27 07:33:47			0	37609	0	0	0	23223	21790	162179	26979	1058490	46459	108556	0	0	8165	575864	0	0
2024-09-27 07:34:47			0	37593	0	0	0	23210	21800	162203	27393	1058508	46449	108551	0	0	8164	576479	0	0
2024-09-27 07:35:47			0	37593	0	0	0	23207	21790	162203	27166	1058517	46437	108550	0	0	8164	576511	0	0
2024-09-27 07:36:47			0	37585	0	0	0	23210	21800	162263	27098	1058544	46450	108551	0	0	8164	576802	0	0
2024-09-27 07:37:47			0	37587	0	0	0	23210	21790	162215	26934	1058490	46448	108551	0	0	8164	576753	0	0
2024-09-27 07:38:47			0	37587	0	0	0	23207	21790	162271	27194	1058499	46459	108550	0	0	8164	576753	0	0
2024-09-27 07:39:47			0	37587	0	0	0	23210	21790	162263	27069	1058490	46459	108551	0	0	8164	576753	0	0
2024-09-27 07:40:47			0	37595	0	0	0	23212	21800	162267	27092	1058508	46471	108552	0	0	8164	576398	0	0
2024-09-27 07:41:47			0	37602	0	0	0	23207	21790	162179	27528	1058490	46448	108550	0	0	8165	576147	0	0
2024-09-27 07:42:47			0	37588	0	0	0	23202	21790	162259	27462	1058526	46471	108548	0	0	8164	576713	0	0
2024-09-27 07:43:47			0	37589	0	0	0	23210	21790	162171	27017	1058544	46459	108551	0	0	8164	576672	0	0
2024-09-27 07:44:47			0	37583	0	0	0	23218	21790	162115	27485	1058473	46438	108554	0	0	8163	576915	0	0
2024-09-27 07:45:47			0	37619	0	0	0	23215	21790	162255	27303	1058490	46470	108553	0	0	8166	575461	0	0
2024-09-27 07:46:47			0	37598	0	0	0	23220	21800	162155	27268	1058562	46459	108555	0	0	8164	576277	0	0
2024-09-27 07:47:47			0	37610	0	0	0	23223	21800	162127	27201	1058562	46471	108556	0	0	8165	575792	0	0
2024-09-27 07:48:47			0	37612	0	0	0	23207	21790	162195	27235	1058526	46449	108550	0	0	8165	575743	0	0
2024-09-27 07:49:47			0	37608	0	0	0	23207	21800	162103	27381	1058535	46449	108550	0	0	8165	575873	0	0
2024-09-27 07:50:47			0	37598	0	0	0	23215	21800	162083	26996	1058535	46449	108553	0	0	8164	576277	0	0
2024-09-27 07:51:47			0	37612	0	0	0	23210	21790	162143	27059	1058517	46470	108551	0	0	8165	575743	0	0
2024-09-27 07:52:47			0	37615	0	0	0	23223	21790	162083	27017	1058526	46438	108556	0	0	8165	575622	0	0
2024-09-27 07:53:47			0	37615	0	0	0	23205	21800	162143	27398	1058482	46459	108549	0	0	8166	575590	0	0
2024-09-27 07:54:47			0	37623	0	0	0	23215	21780	162139	27386	1058508	46448	108553	0	0	8166	575331	0	0
2024-09-27 07:55:47			0	37621	0	0	0	23210	21800	162083	27414	1058535	46471	108551	0	0	8166	575348	0	0
2024-09-27 07:56:47			0	37617	0	0	0	23205	21800	162167	27163	1058562	46449	108549	0	0	8166	575509	0	0
2024-09-27 07:57:47			0	37607	0	0	0	23218	21800	162079	27383	1058544	46439	108554	0	0	8165	575913	0	0
2024-09-27 07:58:47			0	37613	0	0	0	23210	21790	162075	27447	1058499	46459	108551	0	0	8165	575703	0	0
2024-09-27 07:59:47			0	37614	0	0	0	23210	21800	162139	27530	1058588	46449	108551	0	0	8165	575630	0	0
2024-09-27 08:00:47			0	37617	0	0	0	23207	21790	162015	27545	1058553	46449	108550	0	0	8166	575541	0	0
2024-09-27 08:01:47			0	37627	0	0	0	23210	21790	162135	27414	1058553	46459	108551	0	0	8166	575138	0	0
2024-09-27 08:02:47			0	37612	0	0	0	23210	21800	162099	27438	1058562	46459	108551	0	0	8165	575711	0	0
2024-09-27 08:03:47			0	37621	0	0	0	23210	21790	162087	27455	1058553	46459	108551	0	0	8166	575380	0	0
2024-09-27 08:04:47			0	37633	0	0	0	23207	21800	162123	27490	1058455	46449	108550	0	0	8167	574864	0	0
2024-09-27 08:05:47			0	37627	0	0	0	23215	21800	162051	27440	1058508	46482	108553	0	0	8166	575106	0	0
2024-09-27 08:06:47			0	37611	0	0	0	23207	21800	162087	27455	1058562	46459	108550	0	0	8165	575751	0	0
2024-09-27 08:07:47			0	37606	0	0	0	23210	21800	162039	27710	1058571	46461	108551	0	0	8165	575953	0	0
2024-09-27 08:08:47			0	37609	0	0	0	23210	21790	162043	27402	1058597	46470	108551	0	0	8165	575864	0	0
2024-09-27 08:09:47			0	37606	0	0	0	23202	21790	162191	27410	1058499	46449	108548	0	0	8165	575985	0	0
2024-09-27 08:10:47			0	37620	0	0	0	23207	21790	162123	27483	1058473	46459	108550	0	0	8166	575420	0	0
2024-09-27 08:11:47			0	37607	0	0	0	23207	21800	162051	27511	1058508	46459	108550	0	0	8165	575913	0	0
2024-09-27 08:12:47			0	37613	0	0	0	23212	21790	162127	27367	1058499	46459	108552	0	0	8165	575703	0	0
2024-09-27 08:13:47			0	37610	0	0	0	23210	21790	162155	27360	1058553	46449	108551	0	0	8165	575824	0	0
2024-09-27 08:14:47			0	37619	0	0	0	23220	21790	162091	27358	1058544	46437	108555	0	0	8165	575461	0	0
2024-09-27 08:15:47			0	37621	0	0	0	23215	21790	162151	27450	1058544	46459	108553	0	0	8166	575380	0	0
2024-09-27 08:16:47			0	37614	0	0	0	23215	21790	162099	27450	1058544	46470	108553	0	0	8165	575662	0	0
2024-09-27 08:17:47			0	37629	0	0	0	23223	21800	162019	27315	1058508	46459	108556	0	0	8166	575025	0	0
2024-09-27 08:18:47			0	37622	0	0	0	23215	21800	162047	27199	1058571	46461	108553	0	0	8166	575307	0	0
2024-09-27 08:19:47			0	37635	0	0	0	23207	21800	162019	27161	1058535	46459	108550	0	0	8167	574783	0	0
2024-09-27 08:20:47			0	37635	0	0	0	23220	21800	162031	27398	1058535	46449	108555	0	0	8166	574783	0	0
2024-09-27 08:21:47			0	37630	0	0	0	23223	21790	162043	27074	1058544	46437	108556	0	0	8166	575017	0	0
2024-09-27 08:22:47			0	37639	0	0	0	23218	21790	162027	27293	1058553	46471	108554	0	0	8167	574654	0	0
2024-09-27 08:23:47			0	37637	0	0	0	23220	21790	162075	27284	1058526	46449	108555	0	0	8167	574734	0	0
2024-09-27 08:24:47			0	37651	0	0	0	23215	21800	162063	27358	1058588	46438	108553	0	0	8167	574138	0	0
2024-09-27 08:25:47			0	37646	0	0	0	23220	21800	161963	27571	1058535	46471	108555	0	0	8167	574340	0	0
2024-09-27 08:26:47			0	37646	0	0	0	23228	21790	161955	27405	1058553	46459	108558	0	0	8167	574372	0	0
2024-09-27 08:27:47			0	37670	0	0	0	23215	21790	161935	27362	1058570	46437	108553	0	0	8169	573405	0	0
2024-09-27 08:28:47			0	37656	0	0	0	23225	21800	161971	27147	1058615	46449	108557	0	0	8168	573937	0	0
2024-09-27 08:29:47			0	37650	0	0	0	23225	21800	161975	27493	1058535	46438	108557	0	0	8167	574178	0	0
2024-09-27 08:30:47			0	37653	0	0	0	23220	21800	161995	27235	1058562	46459	108555	0	0	8168	574057	0	0
2024-09-27 08:31:47			0	37648	0	0	0	23231	21800	162007	27201	1058597	46450	108559	0	0	8167	574259	0	0
2024-09-27 08:32:47			0	37659	0	0	0	23218	21800	161971	27353	1058624	46450	108554	0	0	8168	573816	0	0
2024-09-27 08:33:47			0	37657	0	0	0	23223	21790	161907	27216	1058544	46470	108556	0	0	8168	573928	0	0
2024-09-27 08:34:47			0	37660	0	0	0	23228	21810	161919	27055	1058580	46461	108558	0	0	8168	573743	0	0
2024-09-27 08:35:47			0	37659	0	0	0	23220	21800	161915	27154	1058544	46461	108555	0	0	8168	573816	0	0
2024-09-27 08:36:47			0	37659	0	0	0	23220	21800	161903	27502	1058642	46459	108555	0	0	8168	573816	0	0
2024-09-27 08:37:47			0	37658	0	0	0	23238	21810	161991	27523	1058633	46472	108562	0	0	8168	573824	0	0
2024-09-27 08:38:47			0	37671	0	0	0	23225	21800	162007	27402	1058588	46449	108557	0	0	8168	573332	0	0
2024-09-27 08:39:47			0	37673	0	0	0	23220	21810	161967	27305	1058580	46461	108555	0	0	8169	573220	0	0
2024-09-27 08:40:47			0	37675	0	0	0	23225	21800	161899	27338	1058571	46428	108557	0	0	8169	573171	0	0
2024-09-27 08:41:47			0	37683	0	0	0	23220	21800	161823	27312	1058562	46459	108555	0	0	8169	572849	0	0
2024-09-27 08:42:47			0	37673	0	0	0	23225	21810	161931	27284	1058580	46461	108557	0	0	8169	573220	0	0
2024-09-27 08:43:47			0	37654	0	0	0	23228	21800	161871	27275	1058588	46459	108558	0	0	8167	574017	0	0
2024-09-27 08:44:47			0	37660	0	0	0	23225	21790	161955	27486	1058606	46449	108557	0	0	8168	573807	0	0
2024-09-27 08:45:47			0	37671	0	0	0	23231	21800	161827	27557	1058597	46461	108559	0	0	8168	573332	0	0
2024-09-27 08:46:47			0	37673	0	0	0	23233	21800	161935	27474	1058571	46472	108560	0	0	8168	573252	0	0
2024-09-27 08:47:47			0	37670	0	0	0	23233	21800	161807	27244	1058624	46439	108560	0	0	8168	573373	0	0
2024-09-27 08:48:47			0	37679	0	0	0	23236	21800	161819	27138	1058624	46461	108561	0	0	8169	573010	0	0
2024-09-27 08:49:47			0	37676	0	0	0	23223	21810	161855	27556	1058580	46461	108556	0	0	8169	573099	0	0
2024-09-27 08:50:47			0	37679	0	0	0	23228	21800	161855	27521	1058624	46450	108558	0	0	8169	573010	0	0
2024-09-27 08:51:47			0	37685	0	0	0	23223	21810	161879	27156	1058633	46461	108556	0	0	8169	572737	0	0
2024-09-27 08:52:47			0	37680	0	0	0	23228	21810	161887	27562	1058606	46472	108558	0	0	8169	572938	0	0
2024-09-27 08:53:47			0	37662	0	0	0	23228	21810	161823	27286	1058580	46450	108558	0	0	8168	573663	0	0
2024-09-27 08:54:47			0	37676	0	0	0	23225	21800	161823	27281	1058624	46450	108557	0	0	8169	573131	0	0
2024-09-27 08:55:47			0	37644	0	0	0	23228	21810	161903	27537	1058580	46461	108558	0	0	8167	574388	0	0
2024-09-27 08:56:47			0	37667	0	0	0	23225	21800	161859	27459	1058624	46439	108557	0	0	8168	573494	0	0
2024-09-27 08:57:47			0	37658	0	0	0	23225	21810	161867	27275	1058580	46439	108557	0	0	8168	573824	0	0
2024-09-27 08:58:47			0	37666	0	0	0	23220	21810	161923	27383	1058633	46472	108555	0	0	8168	573502	0	0
2024-09-27 08:59:47			0	37659	0	0	0	23231	21800	161899	27343	1058597	46461	108559	0	0	8168	573816	0	0
2024-09-27 09:00:47			0	37672	0	0	0	23231	21800	161935	27275	1058597	46461	108559	0	0	8168	573292	0	0
2024-09-27 09:01:47			0	37670	0	0	0	23228	21810	161923	27443	1058615	46462	108558	0	0	8168	573341	0	0
2024-09-27 09:02:47			0	37667	0	0	0	23231	21810	162031	27244	1058588	46462	108559	0	0	8168	573462	0	0
2024-09-27 09:03:47			0	37684	0	0	0	23228	21820	161907	27473	1058597	46474	108558	0	0	8169	572746	0	0
2024-09-27 09:04:47			0	37675	0	0	0	23238	21810	161867	27743	1058642	46451	108562	0	0	8169	573140	0	0
2024-09-27 09:05:47			0	37665	0	0	0	23220	21800	161811	27249	1058615	46449	108555	0	0	8168	573574	0	0
2024-09-27 09:06:47			0	37666	0	0	0	23215	21810	161907	27379	1058553	46450	108553	0	0	8168	573502	0	0
2024-09-27 09:07:47			0	37655	0	0	0	23231	21800	161903	27459	1058571	46450	108559	0	0	8167	573977	0	0
2024-09-27 09:08:47			0	37657	0	0	0	23215	21800	161951	27441	1058615	46449	108553	0	0	8168	573896	0	0
2024-09-27 09:09:47			0	37648	0	0	0	23223	21810	161987	27265	1058606	46450	108556	0	0	8167	574227	0	0
2024-09-27 09:10:47			0	37642	0	0	0	23223	21810	161991	27279	1058580	46450	108556	0	0	8167	574469	0	0
2024-09-27 09:11:47			0	37632	0	0	0	23225	21810	162043	27550	1058562	46451	108557	0	0	8166	574872	0	0
2024-09-27 09:12:47			0	37628	0	0	0	23215	21800	161907	27409	1058597	46439	108553	0	0	8166	575065	0	0
2024-09-27 09:13:47			0	37634	0	0	0	23212	21800	162059	27317	1058544	46450	108552	0	0	8167	574823	0	0
2024-09-27 09:14:47			0	37628	0	0	0	23228	21810	162091	27220	1058580	46450	108558	0	0	8166	575033	0	0
2024-09-27 09:15:47			0	37642	0	0	0	23225	21810	162011	27710	1058553	46439	108557	0	0	8167	574469	0	0
2024-09-27 09:16:47			0	37645	0	0	0	23220	21800	162055	27630	1058624	46461	108555	0	0	8167	574380	0	0
2024-09-27 09:17:47			0	37629	0	0	0	23218	21800	162059	27627	1058562	46449	108554	0	0	8166	575025	0	0
2024-09-27 09:18:47			0	37630	0	0	0	23233	21810	162027	27504	1058580	46461	108560	0	0	8166	574953	0	0
2024-09-27 09:19:47			0	37625	0	0	0	23225	21800	162079	26993	1058571	46472	108557	0	0	8166	575186	0	0
2024-09-27 09:20:47			0	37639	0	0	0	23220	21800	162075	27258	1058562	46449	108555	0	0	8167	574622	0	0
2024-09-27 09:21:47			0	37636	0	0	0	23220	21800	162099	27369	1058588	46438	108555	0	0	8167	574743	0	0
2024-09-27 09:22:47			0	37626	0	0	0	23223	21800	162015	27277	1058508	46471	108556	0	0	8166	575146	0	0
2024-09-27 09:23:47			0	37636	0	0	0	23225	21790	162031	27415	1058553	46449	108557	0	0	8166	574775	0	0
2024-09-27 09:24:47			0	37628	0	0	0	23231	21810	162079	27556	1058660	46461	108559	0	0	8166	575033	0	0
2024-09-27 09:25:47			0	37646	0	0	0	23225	21800	162015	27582	1058597	46450	108557	0	0	8167	574340	0	0
2024-09-27 09:26:47			0	37646	0	0	0	23218	21810	162011	27443	1058588	46462	108554	0	0	8167	574308	0	0
2024-09-27 09:27:47			0	37635	0	0	0	23233	21800	161971	27435	1058597	46439	108560	0	0	8166	574783	0	0
2024-09-27 09:28:47			0	37636	0	0	0	23225	21800	161967	27486	1058562	46438	108557	0	0	8166	574743	0	0
2024-09-27 09:29:47			0	37635	0	0	0	23223	21800	162015	27473	1058544	46461	108556	0	0	8166	574783	0	0
2024-09-27 09:30:47			0	37645	0	0	0	23225	21810	162007	27542	1058633	46461	108557	0	0	8167	574348	0	0
2024-09-27 09:31:47			0	37636	0	0	0	23225	21800	162127	27414	1058544	46450	108557	0	0	8166	574743	0	0
2024-09-27 09:32:47			0	37636	0	0	0	23238	21810	162047	27490	1058606	46472	108562	0	0	8166	574711	0	0
2024-09-27 09:33:47			0	37644	0	0	0	23238	21810	161967	27592	1058633	46472	108562	0	0	8167	574388	0	0
2024-09-27 09:34:47			0	37652	0	0	0	23244	21810	161903	27545	1058606	46450	108564	0	0	8167	574066	0	0
2024-09-27 09:35:47			0	37651	0	0	0	23236	21810	161879	27549	1058615	46462	108561	0	0	8167	574106	0	0
2024-09-27 09:36:47			0	37664	0	0	0	23236	21810	161943	27524	1058642	46451	108561	0	0	8168	573582	0	0
2024-09-27 09:37:47			0	37656	0	0	0	23246	21810	161911	27270	1058722	46462	108565	0	0	8167	573905	0	0
2024-09-27 09:38:47			0	37669	0	0	0	23241	21820	161795	27072	1058704	46474	108563	0	0	8168	573349	0	0
2024-09-27 09:39:47			0	37674	0	0	0	23244	21820	161727	27343	1058677	46452	108564	0	0	8168	573148	0	0
2024-09-27 09:40:47			0	37683	0	0	0	23249	21810	161759	27585	1058695	46451	108566	0	0	8169	572818	0	0
2024-09-27 09:41:47			0	37696	0	0	0	23246	21810	161731	27559	1058606	46483	108565	0	0	8170	572295	0	0
2024-09-27 09:42:47			0	37692	0	0	0	23249	21820	161675	27571	1058686	46463	108566	0	0	8169	572424	0	0
2024-09-27 09:43:47			0	37693	0	0	0	23244	21830	161699	27395	1058669	46475	108564	0	0	8170	572351	0	0
2024-09-27 09:44:47			0	37709	0	0	0	23246	21820	161699	27386	1058624	46474	108565	0	0	8170	571740	0	0
2024-09-27 09:45:47			0	37712	0	0	0	23254	21820	161735	27511	1058731	46463	108568	0	0	8171	571619	0	0
2024-09-27 09:46:47			0	37705	0	0	0	23249	21820	161679	27358	1058713	46463	108566	0	0	8170	571901	0	0
2024-09-27 09:47:47			0	37718	0	0	0	23241	21830	161607	27024	1058758	46464	108563	0	0	8171	571347	0	0
2024-09-27 09:48:47			0	37707	0	0	0	23246	21830	161719	27426	1058695	46464	108565	0	0	8170	571789	0	0
2024-09-27 09:49:47			0	37722	0	0	0	23257	21820	161691	27329	1058686	46474	108569	0	0	8171	571218	0	0
2024-09-27 09:50:47			0	37723	0	0	0	23249	21830	161591	27372	1058749	46453	108566	0	0	8171	571146	0	0
2024-09-27 09:51:47			0	37724	0	0	0	23254	21830	161647	27433	1058749	46464	108568	0	0	8171	571106	0	0
2024-09-27 09:52:47			0	37724	0	0	0	23251	21830	161643	27353	1058749	46453	108567	0	0	8171	571106	0	0
2024-09-27 09:53:47			0	37720	0	0	0	23259	21830	161539	27157	1058731	46453	108570	0	0	8171	571266	0	0
2024-09-27 09:54:47			0	37735	0	0	0	23251	21830	161551	27483	1058749	46464	108567	0	0	8172	570664	0	0
2024-09-27 09:55:47			0	37730	0	0	0	23262	21830	161627	27105	1058749	46453	108571	0	0	8171	570865	0	0
2024-09-27 09:56:47			0	37732	0	0	0	23254	21840	161587	27684	1058740	46465	108568	0	0	8172	570753	0	0
2024-09-27 09:57:47			0	37720	0	0	0	23251	21830	161531	27142	1058695	46464	108567	0	0	8171	571266	0	0
2024-09-27 09:58:47			0	37744	0	0	0	23262	21820	161491	27268	1058740	46474	108571	0	0	8172	570335	0	0
2024-09-27 09:59:47			0	37735	0	0	0	23254	21820	161515	27294	1058766	46474	108568	0	0	8172	570696	0	0
2024-09-27 10:00:47			0	37760	0	0	0	23262	21830	161607	27301	1058749	46475	108571	0	0	8173	569661	0	0
2024-09-27 10:01:47			0	37773	0	0	0	23259	21840	161539	27647	1058767	46454	108570	0	0	8174	569108	0	0
2024-09-27 10:02:47			0	37752	0	0	0	23272	21840	161415	27822	1058794	46465	108575	0	0	8173	569950	0	0
2024-09-27 10:03:47			0	37777	0	0	0	23264	21840	161427	27471	1058802	46476	108572	0	0	8174	568948	0	0
2024-09-27 10:04:47			0	37762	0	0	0	23267	21840	161387	27595	1058829	46465	108573	0	0	8173	569549	0	0
2024-09-27 10:05:47			0	37772	0	0	0	23264	21840	161451	27362	1058802	46465	108572	0	0	8174	569149	0	0
2024-09-27 10:06:47			0	37768	0	0	0	23270	21840	161431	27450	1058794	46465	108574	0	0	8174	569309	0	0
2024-09-27 10:07:47			0	37778	0	0	0	23264	21840	161367	27332	1058794	46476	108572	0	0	8174	568908	0	0
2024-09-27 10:08:47			0	37798	0	0	0	23275	21850	161319	27343	1058785	46466	108576	0	0	8175	568076	0	0
2024-09-27 10:09:47			0	37788	0	0	0	23272	21840	161327	27331	1058802	46476	108575	0	0	8175	568508	0	0
2024-09-27 10:10:47			0	37803	0	0	0	23270	21850	161319	27020	1058847	46466	108574	0	0	8176	567875	0	0
2024-09-27 10:11:47			0	37804	0	0	0	23283	21840	161319	27161	1058856	46476	108579	0	0	8176	567867	0	0
2024-09-27 10:12:47			0	37817	0	0	0	23280	21850	161187	27242	1058811	46466	108578	0	0	8176	567315	0	0
2024-09-27 10:13:47			0	37820	0	0	0	23277	21850	161159	27535	1058874	46477	108577	0	0	8177	567196	0	0
2024-09-27 10:14:47			0	37828	0	0	0	23270	21850	161199	27287	1058865	46477	108574	0	0	8177	566876	0	0
2024-09-27 10:15:47			0	37832	0	0	0	23277	21850	161143	27313	1058820	46455	108577	0	0	8177	566716	0	0
2024-09-27 10:16:47			0	37841	0	0	0	23275	21860	161167	27376	1058909	46467	108576	0	0	8178	566325	0	0
2024-09-27 10:17:47			0	37854	0	0	0	23277	21850	161003	27571	1058847	46444	108577	0	0	8179	565837	0	0
2024-09-27 10:18:47			0	37842	0	0	0	23283	21850	161099	27403	1058874	46477	108579	0	0	8178	566317	0	0
2024-09-27 10:19:47			0	37829	0	0	0	23280	21850	161079	27384	1058865	46477	108578	0	0	8177	566836	0	0
2024-09-27 10:20:47			0	37863	0	0	0	23283	21860	160975	27377	1058883	46478	108579	0	0	8179	565447	0	0
2024-09-27 10:21:47			0	37875	0	0	0	23283	21860	160983	27377	1058936	46456	108579	0	0	8180	564968	0	0
2024-09-27 10:22:47			0	37869	0	0	0	23283	21860	160891	27583	1058963	46467	108579	0	0	8179	565207	0	0
2024-09-27 10:23:47			0	37869	0	0	0	23280	21860	160995	27232	1058883	46478	108578	0	0	8179	565207	0	0
2024-09-27 10:24:47			0	37876	0	0	0	23283	21850	160979	27381	1058847	46444	108579	0	0	8180	564959	0	0
2024-09-27 10:25:47			0	37881	0	0	0	23280	21860	160931	27360	1058883	46478	108578	0	0	8180	564729	0	0
2024-09-27 10:26:47			0	37889	0	0	0	23285	21860	160999	27313	1058963	46467	108580	0	0	8181	564410	0	0
2024-09-27 10:27:47			0	37870	0	0	0	23293	21860	160991	27675	1058918	46468	108583	0	0	8179	565167	0	0
2024-09-27 10:28:47			0	37906	0	0	0	23288	21860	160871	27242	1058936	46467	108581	0	0	8182	563733	0	0
2024-09-27 10:29:47			0	37911	0	0	0	23296	21860	160855	27763	1058892	46490	108584	0	0	8182	563533	0	0
2024-09-27 10:30:47			0	37918	0	0	0	23293	21860	160891	27831	1058918	46479	108583	0	0	8182	563255	0	0
2024-09-27 10:31:47			0	37919	0	0	0	23306	21870	160735	27595	1058963	46457	108588	0	0	8182	563184	0	0
2024-09-27 10:32:47			0	37936	0	0	0	23309	21870	160723	27353	1058990	46457	108589	0	0	8183	562507	0	0
2024-09-27 10:33:47			0	37945	0	0	0	23303	21870	160643	27588	1059007	46468	108587	0	0	8184	562149	0	0
2024-09-27 10:34:47			0	37962	0	0	0	23306	21860	160575	27660	1059025	46446	108588	0	0	8184	561505	0	0
2024-09-27 10:35:47			0	37934	0	0	0	23303	21870	160611	27230	1058990	46479	108587	0	0	8183	562587	0	0
2024-09-27 10:36:47			0	37960	0	0	0	23306	21870	160571	27434	1058936	46490	108588	0	0	8184	561553	0	0
2024-09-27 10:37:47			0	37967	0	0	0	23311	21870	160611	27424	1058963	46468	108590	0	0	8185	561275	0	0
2024-09-27 10:38:47			0	37969	0	0	0	23314	21880	160523	27336	1059114	46481	108591	0	0	8185	561164	0	0
2024-09-27 10:39:47			0	37976	0	0	0	23306	21880	160531	27213	1059052	46469	108588	0	0	8185	560887	0	0
2024-09-27 10:40:47			0	37983	0	0	0	23316	21870	160455	27294	1059070	46468	108592	0	0	8186	560640	0	0
2024-09-27 10:41:47			0	38010	0	0	0	23316	21880	160359	27646	1059087	46470	108592	0	0	8187	559538	0	0
2024-09-27 10:42:47			0	38022	0	0	0	23322	21890	160360	27616	1059123	46470	108594	0	0	8188	559031	0	0
2024-09-27 10:43:47			0	38021	0	0	0	23319	21900	160331	27507	1059061	46482	108593	0	0	8188	559040	0	0
2024-09-27 10:44:47			0	38038	0	0	0	23324	21890	160476	27718	1059123	46458	108595	0	0	8189	558398	0	0
2024-09-27 10:45:47			0	38022	0	0	0	23337	21890	160395	27512	1059132	46448	108600	0	0	8188	559031	0	0
2024-09-27 10:46:47			0	38058	0	0	0	23329	21890	160248	27398	1059159	46481	108597	0	0	8190	557606	0	0
2024-09-27 10:47:47			0	38059	0	0	0	23335	21900	160176	27377	1059168	46471	108599	0	0	8190	557536	0	0
2024-09-27 10:48:47			0	38083	0	0	0	23329	21900	160180	27336	1059123	46472	108597	0	0	8191	556587	0	0
2024-09-27 10:49:47			0	38084	0	0	0	23324	21910	160080	27595	1059132	46483	108595	0	0	8192	556517	0	0
2024-09-27 10:50:47			0	38064	0	0	0	23335	21910	160084	27307	1059132	46472	108599	0	0	8190	557307	0	0
2024-09-27 10:51:47			0	38076	0	0	0	23348	21900	159988	27251	1059221	46471	108604	0	0	8191	556864	0	0
2024-09-27 10:52:47			0	38100	0	0	0	23337	21910	159900	27526	1059159	46483	108600	0	0	8192	555885	0	0
2024-09-27 10:53:47			0	38115	0	0	0	23340	21900	159996	27393	1059168	46482	108601	0	0	8193	555324	0	0
2024-09-27 10:54:47			0	38113	0	0	0	23345	21920	159920	27575	1059203	46461	108603	0	0	8193	555341	0	0
2024-09-27 10:55:47			0	38127	0	0	0	23342	21910	159884	27209	1059212	46472	108602	0	0	8194	554820	0	0
2024-09-27 10:56:47			0	38122	0	0	0	23355	21910	159816	27260	1059212	46472	108607	0	0	8193	555017	0	0
2024-09-27 10:57:47			0	38126	0	0	0	23350	21910	159724	27447	1059195	46473	108605	0	0	8194	554859	0	0
2024-09-27 10:58:47			0	38134	0	0	0	23350	21920	159772	27409	1059257	46473	108605	0	0	8194	554513	0	0
2024-09-27 10:59:47			0	38129	0	0	0	23348	21920	159792	27464	1059266	46462	108604	0	0	8194	554710	0	0
2024-09-27 11:00:47			0	38123	0	0	0	23366	21920	159884	27478	1059266	46485	108611	0	0	8193	554947	0	0
2024-09-27 11:01:47			0	38120	0	0	0	23358	21930	159816	27485	1059301	46475	108608	0	0	8193	555034	0	0
2024-09-27 11:02:47			0	38123	0	0	0	23368	21920	159776	27402	1059257	46451	108612	0	0	8193	554947	0	0
2024-09-27 11:03:47			0	38167	0	0	0	23381	21930	159592	27218	1059364	46475	108617	0	0	8196	553183	0	0
2024-09-27 11:04:47			0	38176	0	0	0	23399	21930	159588	27059	1059310	46475	108624	0	0	8196	552829	0	0
2024-09-27 11:05:47			0	38201	0	0	0	23389	21930	159572	27289	1059328	46475	108620	0	0	8197	551846	0	0
2024-09-27 11:06:47			0	38205	0	0	0	23373	21940	159584	27566	1059355	46487	108614	0	0	8198	551658	0	0
2024-09-27 11:07:47			0	38202	0	0	0	23358	21940	159628	27592	1059408	46465	108608	0	0	8198	551776	0	0
2024-09-27 11:08:47			0	38195	0	0	0	23397	21940	159552	27659	1059399	46463	108623	0	0	8197	552051	0	0
2024-09-27 11:09:47			0	38218	0	0	0	23373	21940	159456	27308	1059426	46475	108614	0	0	8199	551148	0	0
2024-09-27 11:10:47			0	38223	0	0	0	23381	21950	159508	27590	1059417	46488	108617	0	0	8199	550921	0	0
2024-09-27 11:11:47			0	38201	0	0	0	23361	21950	159496	27348	1059400	46477	108609	0	0	8198	551784	0	0
2024-09-27 11:12:47			0	38201	0	0	0	23366	21940	159484	27319	1059355	46476	108611	0	0	8198	551815	0	0
2024-09-27 11:13:47			0	38192	0	0	0	23371	21940	159508	27300	1059346	46475	108613	0	0	8197	552169	0	0
2024-09-27 11:14:47			0	38223	0	0	0	23376	21940	159604	27459	1059408	46476	108615	0	0	8199	550951	0	0
2024-09-27 11:15:47			0	38229	0	0	0	23402	21950	159516	27497	1059364	46477	108625	0	0	8199	550685	0	0
2024-09-27 11:16:47			0	38219	0	0	0	23384	21950	159440	27279	1059426	46477	108618	0	0	8199	551078	0	0
2024-09-27 11:17:47			0	38242	0	0	0	23376	21950	159408	27308	1059426	46466	108615	0	0	8200	550175	0	0
2024-09-27 11:18:47			0	38245	0	0	0	23392	21960	159484	27429	1059409	46477	108621	0	0	8200	550027	0	0
2024-09-27 11:19:47			0	38262	0	0	0	23399	21940	159496	27478	1059435	46487	108624	0	0	8201	549422	0	0
2024-09-27 11:20:47			0	38270	0	0	0	23399	21950	159372	27360	1059426	46477	108624	0	0	8201	549078	0	0
2024-09-27 11:21:47			0	38298	0	0	0	23392	21970	159276	27357	1059453	46490	108621	0	0	8203	547921	0	0
2024-09-27 11:22:47			0	38277	0	0	0	23405	21960	159212	27422	1059444	46478	108626	0	0	8202	548773	0	0
2024-09-27 11:23:47			0	38276	0	0	0	23386	21970	159280	27258	1059480	46467	108619	0	0	8202	548782	0	0
2024-09-27 11:24:47			0	38263	0	0	0	23389	21970	159240	27232	1059462	46479	108620	0	0	8201	549291	0	0
2024-09-27 11:25:47			0	38281	0	0	0	23407	21970	159208	27260	1059400	46467	108627	0	0	8202	548586	0	0
2024-09-27 11:26:47			0	38294	0	0	0	23399	21960	159100	27569	1059515	46466	108624	0	0	8203	548108	0	0
2024-09-27 11:27:47			0	38294	0	0	0	23402	21960	159176	27505	1059551	46478	108625	0	0	8203	548108	0	0
2024-09-27 11:28:47			0	38299	0	0	0	23407	21960	159204	27377	1059498	46478	108627	0	0	8203	547912	0	0
2024-09-27 11:29:47			0	38301	0	0	0	23405	21970	159076	27621	1059507	46467	108626	0	0	8203	547804	0	0
2024-09-27 11:30:47			0	38322	0	0	0	23402	21970	159040	27138	1059516	46490	108625	0	0	8204	546983	0	0
2024-09-27 11:31:47			0	38304	0	0	0	23397	21970	159008	27277	1059516	46479	108623	0	0	8203	547686	0	0
2024-09-27 11:32:47			0	38306	0	0	0	23402	21980	159088	27559	1059525	46457	108625	0	0	8204	547578	0	0
2024-09-27 11:33:47			0	38307	0	0	0	23410	21970	159144	27698	1059569	46479	108628	0	0	8203	547569	0	0
2024-09-27 11:34:47			0	38321	0	0	0	23402	21970	158988	27473	1059480	46479	108625	0	0	8204	547022	0	0
2024-09-27 11:35:47			0	38329	0	0	0	23420	21980	159016	27383	1059525	46490	108632	0	0	8205	546679	0	0
2024-09-27 11:36:47			0	38344	0	0	0	23415	21970	158936	27211	1059516	46490	108630	0	0	8205	546124	0	0
2024-09-27 11:37:47			0	38345	0	0	0	23425	21970	158972	27270	1059542	46500	108634	0	0	8205	546084	0	0
2024-09-27 11:38:47			0	38376	0	0	0	23418	21980	158836	27305	1059551	46467	108631	0	0	8207	544845	0	0
2024-09-27 11:39:47			0	38388	0	0	0	23431	21990	158820	27242	1059525	46482	108636	0	0	8208	544347	0	0
2024-09-27 11:40:47			0	38375	0	0	0	23415	21990	158724	27550	1059516	46492	108630	0	0	8207	544854	0	0
2024-09-27 11:41:47			0	38391	0	0	0	23420	21980	158772	27213	1059560	46469	108632	0	0	8208	544261	0	0
2024-09-27 11:42:47			0	38393	0	0	0	23402	21990	158736	27376	1059596	46470	108625	0	0	8209	544152	0	0
2024-09-27 11:43:47			0	38389	0	0	0	23423	21980	158784	27022	1059534	46469	108633	0	0	8208	544339	0	0
2024-09-27 11:44:47			0	38387	0	0	0	23405	21990	158820	27147	1059596	46481	108626	0	0	8208	544386	0	0
2024-09-27 11:45:47			0	38382	0	0	0	23420	21990	158812	26970	1059623	46470	108632	0	0	8208	544581	0	0
2024-09-27 11:46:47			0	38405	0	0	0	23415	21990	158816	27467	1059623	46470	108630	0	0	8209	543685	0	0
2024-09-27 11:47:47			0	38388	0	0	0	23418	21990	158856	27421	1059596	46492	108631	0	0	8208	544347	0	0
2024-09-27 11:48:47			0	38425	0	0	0	23425	22000	158704	26987	1059667	46493	108634	0	0	8210	542877	0	0
2024-09-27 11:49:47			0	38402	0	0	0	23423	21980	158700	27055	1059614	46469	108633	0	0	8209	543832	0	0
2024-09-27 11:50:47			0	38405	0	0	0	23425	21990	158708	27303	1059551	46482	108634	0	0	8209	543685	0	0
2024-09-27 11:51:47			0	38431	0	0	0	23433	21990	158596	27614	1059596	46481	108637	0	0	8210	542674	0	0
2024-09-27 11:52:47			0	38425	0	0	0	23431	21990	158580	27485	1059596	46492	108636	0	0	8210	542907	0	0
2024-09-27 11:53:47			0	38431	0	0	0	23438	21990	158628	27564	1059623	46481	108639	0	0	8210	542674	0	0
2024-09-27 11:54:47			0	38446	0	0	0	23444	22000	158564	27287	1059667	46471	108641	0	0	8211	542061	0	0
2024-09-27 11:55:47			0	38458	0	0	0	23433	21990	158444	27578	1059596	46492	108637	0	0	8212	541625	0	0
2024-09-27 11:56:47			0	38457	0	0	0	23433	22010	158484	27734	1059649	46482	108637	0	0	8212	541603	0	0
2024-09-27 11:57:47			0	38464	0	0	0	23451	22010	158496	27580	1059676	46493	108644	0	0	8212	541331	0	0
2024-09-27 11:58:47			0	38481	0	0	0	23438	22010	158488	27421	1059738	46494	108639	0	0	8213	540672	0	0
2024-09-27 11:59:47			0	38485	0	0	0	23462	22010	158392	27562	1059685	46483	108648	0	0	8213	540516	0	0
2024-09-27 12:00:47			0	38494	0	0	0	23436	22020	158316	27365	1059694	46484	108638	0	0	8214	540137	0	0
2024-09-27 12:01:47			0	38465	0	0	0	23433	22010	158416	27795	1059703	46459	108637	0	0	8212	541292	0	0
2024-09-27 12:02:47			0	38470	0	0	0	23441	22030	158468	27426	1059712	46473	108640	0	0	8213	541038	0	0
2024-09-27 12:03:47			0	38472	0	0	0	23454	22020	158428	27400	1059694	46473	108645	0	0	8212	540991	0	0
2024-09-27 12:04:47			0	38508	0	0	0	23480	22020	158380	27895	1059676	46484	108655	0	0	8214	539595	0	0
2024-09-27 12:05:47			0	38537	0	0	0	23488	22020	158148	27665	1059810	46517	108658	0	0	8216	538472	0	0
2024-09-27 12:06:47			0	38562	0	0	0	23509	22030	158068	27727	1059872	46495	108666	0	0	8217	537475	0	0
2024-09-27 12:07:47			0	38580	0	0	0	23485	22030	158128	27758	1059828	46518	108657	0	0	8218	536780	0	0
2024-09-27 12:08:47			0	38571	0	0	0	23449	22030	158124	27573	1059828	46496	108643	0	0	8218	537128	0	0
2024-09-27 12:09:47			0	38538	0	0	0	23480	22030	158080	27744	1059774	46474	108655	0	0	8216	538403	0	0
2024-09-27 12:10:47			0	38542	0	0	0	23451	22040	158020	27887	1059819	46497	108644	0	0	8217	538219	0	0
2024-09-27 12:11:47			0	38552	0	0	0	23490	22040	158148	27743	1059899	46475	108659	0	0	8217	537832	0	0
2024-09-27 12:12:47			0	38557	0	0	0	23511	22040	158056	27966	1059863	46486	108667	0	0	8217	537639	0	0
2024-09-27 12:13:47			0	38587	0	0	0	23509	22040	157964	28018	1059890	46475	108666	0	0	8218	536480	0	0
2024-09-27 12:14:47			0	38585	0	0	0	23509	22040	157908	27360	1059952	46486	108666	0	0	8218	536557	0	0
2024-09-27 12:15:47			0	38619	0	0	0	23498	22050	157792	27956	1059970	46498	108662	0	0	8220	535216	0	0
2024-09-27 12:16:47			0	38612	0	0	0	23506	22060	157864	27838	1059988	46489	108665	0	0	8220	535456	0	0
2024-09-27 12:17:47			0	38628	0	0	0	23522	22070	157828	27618	1060033	46500	108671	0	0	8221	534809	0	0
2024-09-27 12:18:47			0	38630	0	0	0	23503	22060	157720	27466	1060042	46500	108664	0	0	8221	534762	0	0
2024-09-27 12:19:47			0	38636	0	0	0	23493	22070	157664	27376	1060024	46500	108660	0	0	8222	534501	0	0
2024-09-27 12:20:47			0	38636	0	0	0	23501	22070	157848	27727	1059953	46489	108663	0	0	8221	534501	0	0
2024-09-27 12:21:47			0	38631	0	0	0	23503	22060	157740	27426	1059935	46466	108664	0	0	8221	534723	0	0
2024-09-27 12:22:47			0	38634	0	0	0	23537	22070	157768	27440	1060024	46489	108677	0	0	8221	534578	0	0
2024-09-27 12:23:47			0	38667	0	0	0	23529	22070	157524	27450	1060033	46489	108674	0	0	8223	533308	0	0
2024-09-27 12:24:47			0	38678	0	0	0	23524	22080	157504	27566	1060078	46491	108672	0	0	8224	532855	0	0
2024-09-27 12:25:47			0	38689	0	0	0	23511	22090	157460	27580	1060060	46512	108667	0	0	8224	532402	0	0
2024-09-27 12:26:47			0	38682	0	0	0	23506	22090	157480	27545	1060060	46491	108665	0	0	8224	532672	0	0
2024-09-27 12:27:47			0	38664	0	0	0	23509	22080	157636	27644	1059989	46490	108666	0	0	8223	533393	0	0
2024-09-27 12:28:47			0	38678	0	0	0	23522	22080	157484	27711	1060069	46490	108671	0	0	8224	532855	0	0
2024-09-27 12:29:47			0	38700	0	0	0	23511	22080	157580	27588	1060051	46501	108667	0	0	8225	532010	0	0
2024-09-27 12:30:47			0	38676	0	0	0	23529	22090	157556	27353	1060034	46501	108674	0	0	8223	532902	0	0
2024-09-27 12:31:47			0	38684	0	0	0	23529	22080	157408	27602	1060105	46501	108674	0	0	8224	532624	0	0
2024-09-27 12:32:47			0	38699	0	0	0	23532	22090	157396	27770	1060149	46501	108675	0	0	8225	532018	0	0
2024-09-27 12:33:47			0	38723	0	0	0	23532	22090	157412	27760	1060123	46501	108675	0	0	8226	531097	0	0
2024-09-27 12:34:47			0	38733	0	0	0	23545	22110	157289	27571	1060149	46503	108680	0	0	8226	530654	0	0
2024-09-27 12:35:47			0	38733	0	0	0	23524	22110	157292	27698	1060176	46493	108672	0	0	8227	530654	0	0
2024-09-27 12:36:47			0	38754	0	0	0	23532	22110	157309	27557	1060203	46493	108675	0	0	8228	529850	0	0
2024-09-27 12:37:47			0	38713	0	0	0	23511	22110	157464	27310	1060132	46470	108667	0	0	8226	531422	0	0
2024-09-27 12:38:47			0	38725	0	0	0	23548	22110	157432	28029	1060158	46493	108681	0	0	8226	530961	0	0
2024-09-27 12:39:47			0	38742	0	0	0	23568	22100	157305	27833	1060158	46481	108689	0	0	8227	530339	0	0
2024-09-27 12:40:47			0	38764	0	0	0	23574	22110	157185	27949	1060229	46493	108691	0	0	8228	529467	0	0
2024-09-27 12:41:47			0	38795	0	0	0	23586	22120	157261	27428	1060381	46483	108696	0	0	8229	528251	0	0
2024-09-27 12:42:47			0	38805	0	0	0	23576	22120	157109	27651	1060310	46505	108692	0	0	8230	527869	0	0
2024-09-27 12:43:47			0	38813	0	0	0	23574	22130	157041	27894	1060301	46517	108691	0	0	8231	527533	0	0
2024-09-27 12:44:47			0	38816	0	0	0	23581	22130	156965	27843	1060301	46496	108694	0	0	8231	527419	0	0
2024-09-27 12:45:47			0	38832	0	0	0	23586	22130	156921	27859	1060381	46506	108696	0	0	8232	526808	0	0
2024-09-27 12:46:47			0	38856	0	0	0	23589	22140	156869	27942	1060399	46507	108697	0	0	8233	525863	0	0
2024-09-27 12:47:47			0	38859	0	0	0	23584	22140	156757	27836	1060337	46506	108695	0	0	8233	525748	0	0
2024-09-27 12:48:47			0	38847	0	0	0	23561	22150	156741	27720	1060408	46508	108686	0	0	8233	526177	0	0
2024-09-27 12:49:47			0	38847	0	0	0	23574	22140	156813	27564	1060319	46486	108691	0	0	8233	526206	0	0
2024-09-27 12:50:47			0	38857	0	0	0	23566	22150	156825	27459	1060390	46498	108688	0	0	8233	525795	0	0
2024-09-27 12:51:47			0	38844	0	0	0	23586	22140	156841	27505	1060372	46497	108696	0	0	8232	526320	0	0
2024-09-27 12:52:47			0	38827	0	0	0	23545	22160	156857	27746	1060372	46487	108680	0	0	8232	526911	0	0
2024-09-27 12:53:47			0	38820	0	0	0	23555	22150	156989	27805	1060337	46508	108684	0	0	8232	527207	0	0
2024-09-27 12:54:47			0	38771	0	0	0	23548	22140	157089	27194	1060363	46462	108681	0	0	8229	529110	0	0
2024-09-27 12:55:47			0	38792	0	0	0	23579	22140	157137	27414	1060292	46497	108693	0	0	8229	528307	0	0
2024-09-27 12:56:47			0	38805	0	0	0	23602	22140	156957	27486	1060292	46519	108702	0	0	8230	527810	0	0
2024-09-27 12:57:47			0	38820	0	0	0	23594	22140	156949	27307	1060372	46507	108699	0	0	8231	527237	0	0
2024-09-27 12:58:47			0	38845	0	0	0	23584	22150	156845	27519	1060390	46508	108695	0	0	8232	526253	0	0
2024-09-27 12:59:47			0	38828	0	0	0	23574	22150	156921	27495	1060417	46508	108691	0	0	8232	526902	0	0
2024-09-27 13:00:47			0	38836	0	0	0	23579	22150	156889	27455	1060363	46508	108693	0	0	8232	526596	0	0
2024-09-27 13:01:47			0	38850	0	0	0	23592	22150	156953	27601	1060443	46498	108698	0	0	8233	526062	0	0
2024-09-27 13:02:47			0	38860	0	0	0	23586	22160	156857	27507	1060399	46520	108696	0	0	8233	525652	0	0
2024-09-27 13:03:47			0	38859	0	0	0	23594	22150	156785	27331	1060443	46487	108699	0	0	8233	525719	0	0
2024-09-27 13:04:47			0	38868	0	0	0	23586	22160	156741	27467	1060399	46498	108696	0	0	8234	525347	0	0
2024-09-27 13:05:47			0	38815	0	0	0	23548	22150	156889	27353	1060363	46487	108681	0	0	8231	527398	0	0
2024-09-27 13:06:47			0	38796	0	0	0	23566	22150	157009	27469	1060363	46498	108688	0	0	8230	528124	0	0
2024-09-27 13:07:47			0	38810	0	0	0	23579	22160	157033	27365	1060346	46487	108693	0	0	8231	527560	0	0
2024-09-27 13:08:47			0	38827	0	0	0	23592	22160	156897	27239	1060319	46487	108698	0	0	8231	526911	0	0
2024-09-27 13:09:47			0	38844	0	0	0	23561	22150	156793	27531	1060443	46508	108686	0	0	8233	526291	0	0
2024-09-27 13:10:47			0	38825	0	0	0	23561	22140	156981	27422	1060319	46486	108686	0	0	8232	527046	0	0
2024-09-27 13:11:47			0	38808	0	0	0	23574	22150	157037	27665	1060417	46498	108691	0	0	8231	527666	0	0
2024-09-27 13:12:47			0	38825	0	0	0	23566	22150	157017	27407	1060363	46498	108688	0	0	8232	527016	0	0
2024-09-27 13:13:47			0	38829	0	0	0	23581	22150	156993	27556	1060381	46508	108694	0	0	8232	526864	0	0
2024-09-27 13:14:47			0	38852	0	0	0	23571	22150	156869	27486	1060408	46498	108690	0	0	8233	525986	0	0
2024-09-27 13:15:47			0	38842	0	0	0	23553	22150	156865	27504	1060337	46498	108683	0	0	8233	526368	0	0
2024-09-27 13:16:47			0	38806	0	0	0	23542	22150	156901	27440	1060328	46498	108679	0	0	8231	527742	0	0
2024-09-27 13:17:47			0	38794	0	0	0	23561	22140	157057	27537	1060319	46486	108686	0	0	8230	528230	0	0
2024-09-27 13:18:47			0	38817	0	0	0	23571	22160	157029	27613	1060399	46487	108690	0	0	8231	527292	0	0
2024-09-27 13:19:47			0	38811	0	0	0	23561	22150	156897	27409	1060381	46475	108686	0	0	8231	527551	0	0
2024-09-27 13:20:47			0	38809	0	0	0	23542	22150	156945	27628	1060301	46498	108679	0	0	8231	527628	0	0
2024-09-27 13:21:47			0	38794	0	0	0	23553	22140	157113	27663	1060266	46475	108683	0	0	8230	528230	0	0
2024-09-27 13:22:47			0	38818	0	0	0	23579	22140	157045	27519	1060292	46497	108693	0	0	8231	527313	0	0
2024-09-27 13:23:47			0	38818	0	0	0	23540	22130	157029	27412	1060328	46517	108678	0	0	8232	527342	0	0
2024-09-27 13:24:47			0	38801	0	0	0	23548	22130	156961	27530	1060301	46496	108681	0	0	8230	527992	0	0
2024-09-27 13:25:47			0	38812	0	0	0	23540	22150	157073	27476	1060275	46498	108678	0	0	8231	527513	0	0
2024-09-27 13:26:47			0	38782	0	0	0	23532	22140	157033	27379	1060310	46485	108675	0	0	8230	528689	0	0
2024-09-27 13:27:47			0	38744	0	0	0	23522	22140	157269	27876	1060283	46462	108671	0	0	8228	530144	0	0
2024-09-27 13:28:47			0	38732	0	0	0	23535	22140	157329	27464	1060230	46506	108676	0	0	8227	530604	0	0
2024-09-27 13:29:47			0	38727	0	0	0	23522	22130	157309	27466	1060248	46506	108671	0	0	8227	530825	0	0
2024-09-27 13:30:47			0	38745	0	0	0	23571	22130	157225	27228	1060328	46474	108690	0	0	8227	530135	0	0
2024-09-27 13:31:47			0	38780	0	0	0	23571	22130	157125	27556	1060328	46506	108690	0	0	8229	528795	0	0
2024-09-27 13:32:47			0	38809	0	0	0	23568	22140	156949	27428	1060390	46506	108689	0	0	8231	527657	0	0
2024-09-27 13:33:47			0	38823	0	0	0	23566	22140	157017	27859	1060363	46485	108688	0	0	8231	527122	0	0
2024-09-27 13:34:47			0	38843	0	0	0	23571	22140	156965	27450	1060337	46506	108690	0	0	8233	526359	0	0
2024-09-27 13:35:47			0	38831	0	0	0	23563	22140	156953	27464	1060363	46496	108687	0	0	8232	526817	0	0
2024-09-27 13:36:47			0	38845	0	0	0	23548	22140	156905	27471	1060346	46497	108681	0	0	8233	526282	0	0
2024-09-27 13:37:47			0	38825	0	0	0	23555	22140	156865	27383	1060292	46497	108684	0	0	8232	527046	0	0
2024-09-27 13:38:47			0	38812	0	0	0	23548	22140	156997	27621	1060337	46485	108681	0	0	8231	527542	0	0
2024-09-27 13:39:47			0	38803	0	0	0	23545	22140	157005	27588	1060310	46485	108680	0	0	8231	527886	0	0
2024-09-27 13:40:47			0	38793	0	0	0	23548	22140	157093	27833	1060346	46497	108681	0	0	8230	528268	0	0
2024-09-27 13:41:47			0	38813	0	0	0	23566	22140	157125	27281	1060363	46496	108688	0	0	8231	527504	0	0
2024-09-27 13:42:47			0	38825	0	0	0	23561	22140	157077	27396	1060363	46496	108686	0	0	8232	527046	0	0
2024-09-27 13:43:47			0	38795	0	0	0	23563	22140	157013	27419	1060266	46497	108687	0	0	8230	528192	0	0
2024-09-27 13:44:47			0	38764	0	0	0	23537	22150	157161	27659	1060363	46475	108677	0	0	8229	529348	0	0
2024-09-27 13:45:47			0	38761	0	0	0	23561	22140	157265	27680	1060319	46497	108686	0	0	8228	529493	0	0
2024-09-27 13:46:47			0	38783	0	0	0	23514	22150	157173	27459	1060355	46508	108668	0	0	8230	528621	0	0
2024-09-27 13:47:47			0	38728	0	0	0	23524	22140	157261	27391	1060292	46497	108672	0	0	8227	530757	0	0
2024-09-27 13:48:47			0	38718	0	0	0	23558	22140	157408	27627	1060230	46496	108685	0	0	8226	531141	0	0
2024-09-27 13:49:47			0	38761	0	0	0	23563	22130	157245	27473	1060328	46496	108687	0	0	8228	529522	0	0
2024-09-27 13:50:47			0	38783	0	0	0	23550	22140	157085	27554	1060337	46496	108682	0	0	8229	528651	0	0
2024-09-27 13:51:47			0	38791	0	0	0	23568	22150	156945	27673	1060381	46508	108689	0	0	8230	528315	0	0
2024-09-27 13:52:47			0	38773	0	0	0	23537	22140	157165	27384	1060346	46507	108677	0	0	8229	529034	0	0
2024-09-27 13:53:47			0	38756	0	0	0	23558	22140	157141	27381	1060310	46506	108685	0	0	8228	529684	0	0
2024-09-27 13:54:47			0	38750	0	0	0	23571	22150	157217	27556	1060355	46498	108690	0	0	8227	529885	0	0
2024-09-27 13:55:47			0	38777	0	0	0	23548	22140	157037	27637	1060337	46496	108681	0	0	8229	528880	0	0
2024-09-27 13:56:47			0	38741	0	0	0	23511	22140	157125	27864	1060346	46519	108667	0	0	8228	530259	0	0
2024-09-27 13:57:47			0	38710	0	0	0	23524	22150	157356	28024	1060328	46487	108672	0	0	8226	531418	0	0
2024-09-27 13:58:47			0	38669	0	0	0	23498	22120	157488	27594	1060176	46484	108662	0	0	8224	533082	0	0
2024-09-27 13:59:47			0	38665	0	0	0	23522	22130	157532	27582	1060248	46462	108671	0	0	8223	533206	0	0
2024-09-27 14:00:47			0	38667	0	0	0	23532	22130	157564	27457	1060265	46485	108675	0	0	8223	533129	0	0
2024-09-27 14:01:47			0	38657	0	0	0	23527	22130	157532	27307	1060239	46496	108673	0	0	8222	533514	0	0
2024-09-27 14:02:47			0	38692	0	0	0	23550	22130	157564	27746	1060319	46496	108682	0	0	8224	532168	0	0
2024-09-27 14:03:47			0	38680	0	0	0	23558	22130	157452	27538	1060319	46517	108685	0	0	8223	532630	0	0
2024-09-27 14:04:47			0	38704	0	0	0	23558	22130	157472	27666	1060274	46496	108685	0	0	8225	531708	0	0
2024-09-27 14:05:47			0	38749	0	0	0	23537	22130	157237	27894	1060292	46517	108677	0	0	8228	529982	0	0
2024-09-27 14:06:47			0	38729	0	0	0	23566	22140	157225	27881	1060346	46507	108688	0	0	8226	530719	0	0
2024-09-27 14:07:47			0	38759	0	0	0	23579	22140	157257	27953	1060337	46506	108693	0	0	8228	529569	0	0
2024-09-27 14:08:47			0	38785	0	0	0	23602	22150	157221	27783	1060408	46487	108702	0	0	8229	528545	0	0
2024-09-27 14:09:47			0	38773	0	0	0	23594	22140	157073	27928	1060390	46496	108699	0	0	8228	529034	0	0
2024-09-27 14:10:47			0	38793	0	0	0	23586	22150	156961	27888	1060408	46520	108696	0	0	8229	528239	0	0
2024-09-27 14:11:47			0	38790	0	0	0	23576	22150	157001	27504	1060381	46531	108692	0	0	8229	528354	0	0
2024-09-27 14:12:47			0	38799	0	0	0	23571	22160	157101	27623	1060479	46520	108690	0	0	8230	527980	0	0
2024-09-27 14:13:47			0	38767	0	0	0	23571	22160	157153	27843	1060408	46509	108690	0	0	8228	529204	0	0
2024-09-27 14:14:47			0	38782	0	0	0	23607	22160	157113	27689	1060372	46487	108704	0	0	8229	528630	0	0
2024-09-27 14:15:47			0	38778	0	0	0	23592	22170	157113	27757	1060470	46510	108698	0	0	8229	528754	0	0
2024-09-27 14:16:47			0	38771	0	0	0	23586	22170	157093	27942	1060470	46500	108696	0	0	8228	529022	0	0
2024-09-27 14:17:47			0	38778	0	0	0	23574	22160	157141	27920	1060372	46498	108691	0	0	8229	528783	0	0
2024-09-27 14:18:47			0	38723	0	0	0	23548	22160	157260	27514	1060435	46509	108681	0	0	8226	530890	0	0
2024-09-27 14:19:47			0	38682	0	0	0	23529	22160	157444	27682	1060355	46499	108674	0	0	8224	532464	0	0
2024-09-27 14:20:47			0	38690	0	0	0	23594	22160	157492	27725	1060372	46487	108699	0	0	8223	532156	0	0
2024-09-27 14:21:47			0	38708	0	0	0	23589	22150	157292	27531	1060470	46487	108697	0	0	8224	531495	0	0
2024-09-27 14:22:47			0	38765	0	0	0	23623	22160	157093	27244	1060479	46508	108710	0	0	8227	529281	0	0
2024-09-27 14:23:47			0	38797	0	0	0	23625	22170	156969	27436	1060577	46521	108711	0	0	8229	528027	0	0
2024-09-27 14:24:47			0	38787	0	0	0	23612	22170	157001	27426	1060533	46521	108706	0	0	8229	528410	0	0
2024-09-27 14:25:47			0	38801	0	0	0	23579	22190	156929	27744	1060613	46524	108693	0	0	8230	527815	0	0
2024-09-27 14:26:47			0	38789	0	0	0	23599	22190	156953	27557	1060533	46501	108701	0	0	8229	528274	0	0
2024-09-27 14:27:47			0	38787	0	0	0	23586	22180	156917	27852	1060488	46478	108696	0	0	8229	528380	0	0
2024-09-27 14:28:47			0	38765	0	0	0	23597	22180	157117	27583	1060568	46489	108700	0	0	8228	529222	0	0
2024-09-27 14:29:47			0	38793	0	0	0	23586	22180	157089	27171	1060488	46489	108696	0	0	8230	528151	0	0
2024-09-27 14:30:47			0	38757	0	0	0	23540	22180	157093	27576	1060462	46478	108678	0	0	8228	529528	0	0
2024-09-27 14:31:47			0	38722	0	0	0	23553	22170	157317	27637	1060453	46500	108683	0	0	8226	530898	0	0
2024-09-27 14:32:47			0	38750	0	0	0	23628	22170	157257	27398	1060497	46489	108712	0	0	8226	529825	0	0
2024-09-27 14:33:47			0	38753	0	0	0	23610	22170	157089	27571	1060533	46489	108705	0	0	8227	529711	0	0
2024-09-27 14:34:47			0	38753	0	0	0	23524	22160	157221	27421	1060541	46509	108672	0	0	8228	529740	0	0
2024-09-27 14:35:47			0	38703	0	0	0	23532	22170	157364	27873	1060453	46510	108675	0	0	8225	531628	0	0
2024-09-27 14:36:47			0	38666	0	0	0	23529	22160	157412	27640	1060461	46476	108674	0	0	8223	533078	0	0
2024-09-27 14:37:47			0	38690	0	0	0	23610	22160	157472	27248	1060399	46498	108705	0	0	8223	532156	0	0
2024-09-27 14:38:47			0	38751	0	0	0	23620	22160	157153	27339	1060488	46499	108709	0	0	8226	529817	0	0
2024-09-27 14:39:47			0	38754	0	0	0	23589	22170	157129	27357	1060497	46521	108697	0	0	8227	529672	0	0
2024-09-27 14:40:47			0	38737	0	0	0	23592	22170	157197	27227	1060550	46510	108698	0	0	8226	530323	0	0
2024-09-27 14:41:47			0	38748	0	0	0	23592	22180	157149	27436	1060471	46511	108698	0	0	8227	529872	0	0
2024-09-27 14:42:47			0	38744	0	0	0	23589	22180	157157	27376	1060542	46500	108697	0	0	8227	530026	0	0
2024-09-27 14:43:47			0	38760	0	0	0	23605	22180	157173	27209	1060568	46510	108703	0	0	8227	529413	0	0
2024-09-27 14:44:47			0	38745	0	0	0	23553	22190	157193	27286	1060506	46491	108683	0	0	8227	529958	0	0
2024-09-27 14:45:47			0	38707	0	0	0	23563	22180	157276	27469	1060515	46478	108687	0	0	8225	531444	0	0
2024-09-27 14:46:47			0	38715	0	0	0	23563	22180	157344	27334	1060444	46500	108687	0	0	8225	531137	0	0
2024-09-27 14:47:47			0	38769	0	0	0	23646	22160	157141	27485	1060461	46476	108719	0	0	8227	529128	0	0
2024-09-27 14:48:47			0	38861	0	0	0	23646	22180	156833	27564	1060568	46500	108719	0	0	8233	525555	0	0
2024-09-27 14:49:47			0	38882	0	0	0	23633	22160	156665	27478	1060541	46499	108714	0	0	8234	524813	0	0
2024-09-27 14:50:47			0	38893	0	0	0	23638	22190	156577	27481	1060666	46524	108716	0	0	8235	524307	0	0
2024-09-27 14:51:47			0	38924	0	0	0	23631	22180	156525	27685	1060657	46511	108713	0	0	8236	523157	0	0
2024-09-27 14:52:47			0	38931	0	0	0	23628	22190	156461	27589	1060613	46491	108712	0	0	8237	522862	0	0
2024-09-27 14:53:47			0	38910	0	0	0	23620	22190	156549	27409	1060640	46491	108709	0	0	8236	523660	0	0
2024-09-27 14:54:47			0	38939	0	0	0	23620	22190	156413	27699	1060693	46512	108709	0	0	8237	522558	0	0
2024-09-27 14:55:47			0	38934	0	0	0	23618	22200	156389	27536	1060631	46502	108708	0	0	8237	522719	0	0
2024-09-27 14:56:47			0	38915	0	0	0	23623	22200	156457	27358	1060604	46513	108710	0	0	8236	523441	0	0
2024-09-27 14:57:47			0	38937	0	0	0	23618	22200	156361	27197	1060614	46513	108708	0	0	8237	522605	0	0
2024-09-27 14:58:47			0	38909	0	0	0	23623	22190	156517	27514	1060622	46492	108710	0	0	8236	523698	0	0
2024-09-27 14:59:47			0	38895	0	0	0	23615	22200	156441	27164	1060631	46492	108707	0	0	8235	524201	0	0
2024-09-27 15:00:47			0	38900	0	0	0	23589	22190	156541	27284	1060595	46492	108697	0	0	8236	524040	0	0
2024-09-27 15:01:47			0	38842	0	0	0	23563	22190	156673	27357	1060569	46502	108687	0	0	8233	526250	0	0
2024-09-27 15:02:47			0	38792	0	0	0	23579	22190	156941	27289	1060542	46502	108693	0	0	8230	528159	0	0
2024-09-27 15:03:47			0	38804	0	0	0	23563	22190	156829	27190	1060542	46502	108687	0	0	8231	527701	0	0
2024-09-27 15:04:47			0	38770	0	0	0	23561	22190	156977	27505	1060542	46481	108686	0	0	8229	529001	0	0
2024-09-27 15:05:47			0	38810	0	0	0	23592	22180	156965	27371	1060462	46478	108698	0	0	8230	527501	0	0
2024-09-27 15:06:47			0	38815	0	0	0	23574	22170	156929	27438	1060506	46510	108691	0	0	8231	527339	0	0
2024-09-27 15:07:47			0	38786	0	0	0	23576	22180	156989	27280	1060488	46500	108692	0	0	8229	528418	0	0
2024-09-27 15:08:47			0	38778	0	0	0	23566	22180	157033	27521	1060497	46511	108688	0	0	8229	528724	0	0
2024-09-27 15:09:47			0	38761	0	0	0	23579	22170	157145	27478	1060506	46478	108693	0	0	8228	529404	0	0
2024-09-27 15:10:47			0	38780	0	0	0	23563	22180	157001	27357	1060488	46478	108687	0	0	8229	528648	0	0
2024-09-27 15:11:47			0	38764	0	0	0	23584	22170	157177	27263	1060470	46500	108695	0	0	8228	529289	0	0
2024-09-27 15:12:47			0	38747	0	0	0	23558	22170	157037	27467	1060470	46466	108685	0	0	8227	529940	0	0
2024-09-27 15:13:47			0	38714	0	0	0	23522	22170	157292	27346	1060470	46489	108671	0	0	8226	531205	0	0
2024-09-27 15:14:47			0	38706	0	0	0	23586	22160	157264	27682	1060408	46488	108696	0	0	8224	531542	0	0
2024-09-27 15:15:47			0	38726	0	0	0	23540	22170	157273	27729	1060470	46510	108678	0	0	8226	530745	0	0
2024-09-27 15:16:47			0	38697	0	0	0	23527	22160	157328	27303	1060435	46499	108673	0	0	8225	531887	0	0
2024-09-27 15:17:47			0	38707	0	0	0	23594	22150	157324	27319	1060390	46475	108699	0	0	8224	531533	0	0
2024-09-27 15:18:47			0	38746	0	0	0	23607	22160	157205	27592	1060435	46499	108704	0	0	8226	530008	0	0
2024-09-27 15:19:47			0	38774	0	0	0	23589	22150	156969	27372	1060417	46508	108697	0	0	8228	528966	0	0
2024-09-27 15:20:47			0	38817	0	0	0	23602	22170	156989	27275	1060497	46533	108702	0	0	8231	527263	0	0
2024-09-27 15:21:47			0	38817	0	0	0	23571	22170	156953	27521	1060470	46500	108690	0	0	8231	527263	0	0
2024-09-27 15:22:47			0	38823	0	0	0	23597	22170	156965	27339	1060479	46500	108700	0	0	8231	527034	0	0
2024-09-27 15:23:47			0	38818	0	0	0	23592	22170	156761	27571	1060497	46500	108698	0	0	8231	527225	0	0
2024-09-27 15:24:47			0	38810	0	0	0	23584	22170	156953	27391	1060470	46510	108695	0	0	8231	527530	0	0
2024-09-27 15:25:47			0	38813	0	0	0	23579	22170	156921	27287	1060479	46500	108693	0	0	8231	527416	0	0
2024-09-27 15:26:47			0	38794	0	0	0	23576	22170	157033	27327	1060453	46478	108692	0	0	8230	528142	0	0
2024-09-27 15:27:47			0	38782	0	0	0	23561	22170	157081	27241	1060479	46489	108686	0	0	8229	528601	0	0
2024-09-27 15:28:47			0	38775	0	0	0	23548	22160	157033	27270	1060408	46476	108681	0	0	8229	528898	0	0
2024-09-27 15:29:47			0	38759	0	0	0	23550	22160	157145	27393	1060399	46498	108682	0	0	8228	529510	0	0
2024-09-27 15:30:47			0	38751	0	0	0	23545	22160	157193	27192	1060399	46464	108680	0	0	8228	529817	0	0
2024-09-27 15:31:47			0	38775	0	0	0	23542	22150	157169	27041	1060363	46475	108679	0	0	8229	528927	0	0
2024-09-27 15:32:47			0	38727	0	0	0	23535	22140	157264	27478	1060346	46475	108676	0	0	8226	530796	0	0
2024-09-27 15:33:47			0	38720	0	0	0	23540	22150	157296	27545	1060337	46508	108678	0	0	8226	531035	0	0
2024-09-27 15:34:47			0	38703	0	0	0	23535	22150	157440	27081	1060355	46487	108676	0	0	8225	531687	0	0
2024-09-27 15:35:47			0	38717	0	0	0	23537	22140	157396	27114	1060363	46485	108677	0	0	8226	531179	0	0
2024-09-27 15:36:47			0	38694	0	0	0	23558	22140	157492	27400	1060319	46486	108685	0	0	8224	532062	0	0
2024-09-27 15:37:47			0	38707	0	0	0	23542	22150	157440	27346	1060301	46498	108679	0	0	8225	531533	0	0
2024-09-27 15:38:47			0	38746	0	0	0	23581	22150	157321	27547	1060381	46487	108694	0	0	8227	530038	0	0
2024-09-27 15:39:47			0	38780	0	0	0	23568	22150	157145	27705	1060443	46498	108689	0	0	8229	528736	0	0
2024-09-27 15:40:47			0	38766	0	0	0	23568	22150	157189	27479	1060381	46520	108689	0	0	8228	529272	0	0
2024-09-27 15:41:47			0	38768	0	0	0	23545	22150	157037	27206	1060390	46508	108680	0	0	8229	529195	0	0
2024-09-27 15:42:47			0	38743	0	0	0	23540	22150	157149	27355	1060417	46487	108678	0	0	8227	530153	0	0
2024-09-27 15:43:47			0	38752	0	0	0	23548	22160	157273	27282	1060319	46508	108681	0	0	8228	529778	0	0
2024-09-27 15:44:47			0	38725	0	0	0	23529	22140	157256	27478	1060292	46497	108674	0	0	8226	530872	0	0
2024-09-27 15:45:47			0	38704	0	0	0	23522	22140	157396	27462	1060337	46485	108671	0	0	8225	531678	0	0
2024-09-27 15:46:47			0	38682	0	0	0	23516	22130	157372	27248	1060265	46496	108669	0	0	8224	532553	0	0
2024-09-27 15:47:47			0	38664	0	0	0	23532	22130	157496	27055	1060301	46496	108675	0	0	8223	533245	0	0
2024-09-27 15:48:47			0	38681	0	0	0	23555	22130	157464	27261	1060274	46485	108684	0	0	8223	532591	0	0
2024-09-27 15:49:47			0	38696	0	0	0	23522	22120	157544	27209	1060283	46495	108671	0	0	8225	532045	0	0
2024-09-27 15:50:47			0	38654	0	0	0	23509	22130	157504	27438	1060328	46496	108666	0	0	8223	533629	0	0
2024-09-27 15:51:47			0	38660	0	0	0	23519	22120	157560	27601	1060203	46484	108670	0	0	8223	533428	0	0
2024-09-27 15:52:47			0	38695	0	0	0	23542	22130	157608	27274	1060212	46474	108679	0	0	8224	532053	0	0
2024-09-27 15:53:47			0	38668	0	0	0	23527	22110	157524	27166	1060238	46482	108673	0	0	8223	533150	0	0
2024-09-27 15:54:47			0	38692	0	0	0	23548	22120	157532	27414	1060283	46484	108681	0	0	8224	532198	0	0
2024-09-27 15:55:47			0	38701	0	0	0	23529	22130	157440	27521	1060292	46496	108674	0	0	8225	531823	0	0
2024-09-27 15:56:47			0	38711	0	0	0	23553	22120	157312	27592	1060310	46495	108683	0	0	8225	531469	0	0
2024-09-27 15:57:47			0	38746	0	0	0	23558	22130	157137	27253	1060319	46485	108685	0	0	8227	530097	0	0
2024-09-27 15:58:47			0	38736	0	0	0	23550	22130	157237	27632	1060328	46506	108682	0	0	8227	530480	0	0
2024-09-27 15:59:47			0	38751	0	0	0	23555	22130	157169	27587	1060292	46496	108684	0	0	8227	529905	0	0
2024-09-27 16:00:47			0	38728	0	0	0	23532	22130	157217	27486	1060328	46506	108675	0	0	8227	530787	0	0
2024-09-27 16:01:47			0	38721	0	0	0	23527	22140	157301	27699	1060310	46517	108673	0	0	8226	531026	0	0
2024-09-27 16:02:47			0	38692	0	0	0	23524	22130	157304	27864	1060265	46496	108672	0	0	8225	532168	0	0
2024-09-27 16:03:47			0	38687	0	0	0	23516	22120	157408	27798	1060194	46494	108669	0	0	8224	532390	0	0
2024-09-27 16:04:47			0	38689	0	0	0	23532	22130	157396	27457	1060274	46485	108675	0	0	8224	532284	0	0
2024-09-27 16:05:47			0	38709	0	0	0	23537	22130	157348	27659	1060319	46506	108677	0	0	8225	531516	0	0
2024-09-27 16:06:47			0	38686	0	0	0	23519	22120	157352	27435	1060194	46483	108670	0	0	8224	532429	0	0
2024-09-27 16:07:47			0	38674	0	0	0	23553	22120	157456	27594	1060247	46471	108683	0	0	8223	532890	0	0
2024-09-27 16:08:47			0	38703	0	0	0	23553	22120	157300	27452	1060327	46494	108683	0	0	8225	531776	0	0
2024-09-27 16:09:47			0	38739	0	0	0	23563	22130	157241	27450	1060354	46496	108687	0	0	8227	530365	0	0
2024-09-27 16:10:47			0	38759	0	0	0	23563	22120	157173	27388	1060336	46505	108687	0	0	8228	529629	0	0
2024-09-27 16:11:47			0	38770	0	0	0	23574	22130	157133	27447	1060381	46506	108691	0	0	8228	529178	0	0
2024-09-27 16:12:47			0	38779	0	0	0	23555	22130	157089	27315	1060328	46517	108684	0	0	8229	528833	0	0
2024-09-27 16:13:47			0	38753	0	0	0	23553	22130	157129	27209	1060381	46506	108683	0	0	8228	529829	0	0
2024-09-27 16:14:47			0	38733	0	0	0	23527	22140	157241	27547	1060319	46507	108673	0	0	8227	530566	0	0
2024-09-27 16:15:47			0	38711	0	0	0	23522	22130	157316	27230	1060274	46496	108671	0	0	8226	531439	0	0
2024-09-27 16:16:47			0	38700	0	0	0	23542	22120	157388	27331	1060283	46484	108679	0	0	8225	531891	0	0
2024-09-27 16:17:47			0	38723	0	0	0	23524	22130	157313	27711	1060301	46474	108672	0	0	8226	530979	0	0
2024-09-27 16:18:47			0	38688	0	0	0	23498	22130	157408	27691	1060265	46506	108662	0	0	8225	532322	0	0
2024-09-27 16:19:47			0	38669	0	0	0	23498	22120	157400	27209	1060176	46484	108662	0	0	8224	533082	0	0
2024-09-27 16:20:47			0	38648	0	0	0	23490	22110	157508	27597	1060212	46482	108659	0	0	8223	533920	0	0
2024-09-27 16:21:47			0	38641	0	0	0	23509	22110	157516	27201	1060256	46470	108666	0	0	8222	534189	0	0
2024-09-27 16:22:47			0	38659	0	0	0	23509	22100	157444	27322	1060131	46481	108666	0	0	8223	533526	0	0
2024-09-27 16:23:47			0	38672	0	0	0	23529	22110	157560	27133	1060203	46503	108674	0	0	8223	532996	0	0
2024-09-27 16:24:47			0	38662	0	0	0	23535	22110	157588	27137	1060238	46514	108676	0	0	8223	533381	0	0
2024-09-27 16:25:47			0	38701	0	0	0	23555	22110	157564	27287	1060318	46493	108684	0	0	8224	531882	0	0
2024-09-27 16:26:47			0	38720	0	0	0	23550	22120	157200	27305	1060247	46494	108682	0	0	8226	531123	0	0
2024-09-27 16:27:47			0	38733	0	0	0	23545	22120	157273	27371	1060274	46494	108680	0	0	8227	530625	0	0
2024-09-27 16:28:47			0	38750	0	0	0	23542	22120	157305	27029	1060274	46504	108679	0	0	8228	529973	0	0
2024-09-27 16:29:47			0	38735	0	0	0	23537	22110	157217	27170	1060292	46470	108677	0	0	8227	530578	0	0
2024-09-27 16:30:47			0	38731	0	0	0	23522	22120	157348	27196	1060283	46505	108671	0	0	8227	530702	0	0
2024-09-27 16:31:47			0	38696	0	0	0	23498	22120	157348	27192	1060203	46484	108662	0	0	8225	532045	0	0
2024-09-27 16:32:47			0	38670	0	0	0	23532	22120	157524	27343	1060167	46494	108675	0	0	8223	533044	0	0
2024-09-27 16:33:47			0	38699	0	0	0	23553	22110	157512	27303	1060256	46493	108683	0	0	8224	531959	0	0
2024-09-27 16:34:47			0	38720	0	0	0	23532	22110	157360	27235	1060229	46493	108675	0	0	8226	531153	0	0
2024-09-27 16:35:47			0	38678	0	0	0	23516	22110	157440	27424	1060265	46503	108669	0	0	8224	532766	0	0
2024-09-27 16:36:47			0	38685	0	0	0	23529	22120	157368	27209	1060221	46494	108674	0	0	8224	532467	0	0
2024-09-27 16:37:47			0	38669	0	0	0	23537	22120	157324	27277	1060221	46494	108677	0	0	8223	533082	0	0
2024-09-27 16:38:47			0	38711	0	0	0	23519	22120	157300	27000	1060283	46505	108670	0	0	8226	531469	0	0
2024-09-27 16:39:47			0	38701	0	0	0	23529	22120	157364	27062	1060274	46504	108674	0	0	8225	531853	0	0
2024-09-27 16:40:47			0	38696	0	0	0	23532	22120	157368	27390	1060230	46505	108675	0	0	8225	532045	0	0
2024-09-27 16:41:47			0	38689	0	0	0	23514	22120	157476	27140	1060310	46505	108668	0	0	8225	532313	0	0
2024-09-27 16:42:47			0	38689	0	0	0	23519	22110	157516	27251	1060238	46482	108670	0	0	8224	532343	0	0
2024-09-27 16:43:47			0	38664	0	0	0	23514	22110	157440	27301	1060265	46503	108668	0	0	8223	533304	0	0
2024-09-27 16:44:47			0	38661	0	0	0	23529	22110	157604	27351	1060158	46503	108674	0	0	8223	533419	0	0
2024-09-27 16:45:47			0	38694	0	0	0	23537	22120	157428	27079	1060274	46494	108677	0	0	8224	532121	0	0
2024-09-27 16:46:47			0	38701	0	0	0	23527	22120	157444	27211	1060327	46494	108673	0	0	8225	531853	0	0
2024-09-27 16:47:47			0	38691	0	0	0	23516	22110	157360	27329	1060238	46482	108669	0	0	8225	532266	0	0
2024-09-27 16:48:47			0	38685	0	0	0	23522	22110	157404	27350	1060265	46482	108671	0	0	8224	532497	0	0
2024-09-27 16:49:47			0	38677	0	0	0	23503	22110	157488	26899	1060265	46482	108664	0	0	8224	532804	0	0
2024-09-27 16:50:47			0	38663	0	0	0	23493	22110	157528	27149	1060238	46503	108660	0	0	8223	533343	0	0
2024-09-27 16:51:47			0	38645	0	0	0	23496	22100	157572	27138	1060131	46469	108661	0	0	8222	534065	0	0
2024-09-27 16:52:47			0	38619	0	0	0	23522	22090	157624	27208	1060123	46468	108671	0	0	8220	535096	0	0
2024-09-27 16:53:47			0	38629	0	0	0	23532	22100	157548	27327	1060220	46482	108675	0	0	8221	534681	0	0
2024-09-27 16:54:47			0	38646	0	0	0	23496	22100	157624	26828	1060194	46482	108661	0	0	8222	534026	0	0
2024-09-27 16:55:47			0	38621	0	0	0	23506	22110	157744	27275	1060123	46482	108665	0	0	8221	534959	0	0
2024-09-27 16:56:47			0	38628	0	0	0	23511	22100	157596	26974	1060158	46492	108667	0	0	8221	534720	0	0
2024-09-27 16:57:47			0	38632	0	0	0	23519	22090	157608	27192	1060123	46480	108670	0	0	8221	534595	0	0
2024-09-27 16:58:47			0	38640	0	0	0	23529	22090	157616	27152	1060203	46501	108674	0	0	8221	534287	0	0
2024-09-27 16:59:47			0	38654	0	0	0	23550	22090	157564	27440	1060194	46524	108682	0	0	8222	533748	0	0
2024-09-27 17:00:47			0	38671	0	0	0	23532	22090	157536	27358	1060167	46501	108675	0	0	8223	533094	0	0
2024-09-27 17:01:47			0	38678	0	0	0	23527	22100	157340	27215	1060212	46492	108673	0	0	8224	532795	0	0
2024-09-27 17:02:47			0	38661	0	0	0	23532	22110	157468	26960	1060176	46493	108675	0	0	8223	533419	0	0
2024-09-27 17:03:47			0	38681	0	0	0	23542	22110	157332	27074	1060229	46482	108679	0	0	8224	532651	0	0
2024-09-27 17:04:47			0	38697	0	0	0	23537	22110	157420	27479	1060265	46503	108677	0	0	8225	532036	0	0
2024-09-27 17:05:47			0	38701	0	0	0	23537	22120	157416	27137	1060247	46504	108677	0	0	8225	531853	0	0
2024-09-27 17:06:47			0	38676	0	0	0	23506	22110	157436	27384	1060265	46503	108665	0	0	8224	532843	0	0
2024-09-27 17:07:47			0	38653	0	0	0	23506	22110	157660	27156	1060292	46503	108665	0	0	8223	533727	0	0
2024-09-27 17:08:47			0	38647	0	0	0	23516	22110	157620	27027	1060212	46503	108669	0	0	8222	533958	0	0
2024-09-27 17:09:47			0	38648	0	0	0	23532	22110	157568	27235	1060229	46482	108675	0	0	8222	533920	0	0
2024-09-27 17:10:47			0	38638	0	0	0	23519	22110	157612	27041	1060203	46493	108670	0	0	8221	534304	0	0
2024-09-27 17:11:47			0	38627	0	0	0	23485	22110	157712	26861	1060203	46503	108657	0	0	8221	534728	0	0
2024-09-27 17:12:47			0	38604	0	0	0	23506	22110	157892	26958	1060176	46470	108665	0	0	8220	535615	0	0
2024-09-27 17:13:47			0	38619	0	0	0	23514	22110	157820	27180	1060185	46493	108668	0	0	8220	535036	0	0
2024-09-27 17:14:47			0	38598	0	0	0	23514	22090	157808	27305	1060176	46480	108668	0	0	8219	535906	0	0
2024-09-27 17:15:47			0	38594	0	0	0	23522	22090	157816	26948	1060176	46491	108671	0	0	8219	536060	0	0
2024-09-27 17:16:47			0	38603	0	0	0	23532	22100	157760	27251	1060220	46503	108675	0	0	8219	535683	0	0
2024-09-27 17:17:47			0	38618	0	0	0	23535	22090	157676	27320	1060229	46501	108676	0	0	8220	535135	0	0
2024-09-27 17:18:47			0	38656	0	0	0	23529	22090	157684	27346	1060176	46501	108674	0	0	8222	533671	0	0
2024-09-27 17:19:47			0	38630	0	0	0	23514	22100	157660	27102	1060185	46481	108668	0	0	8221	534642	0	0
2024-09-27 17:20:47			0	38634	0	0	0	23519	22090	157768	27383	1060176	46501	108670	0	0	8221	534518	0	0
2024-09-27 17:21:47			0	38630	0	0	0	23511	22090	157748	27315	1060203	46501	108667	0	0	8221	534672	0	0
2024-09-27 17:22:47			0	38612	0	0	0	23514	22090	157812	27301	1060176	46491	108668	0	0	8220	535366	0	0
2024-09-27 17:23:47			0	38613	0	0	0	23527	22090	157776	27090	1060203	46480	108673	0	0	8220	535327	0	0
2024-09-27 17:24:47			0	38625	0	0	0	23516	22100	157664	27307	1060185	46492	108669	0	0	8221	534835	0	0
2024-09-27 17:25:47			0	38625	0	0	0	23516	22110	157716	27192	1060176	46503	108669	0	0	8221	534805	0	0
2024-09-27 17:26:47			0	38644	0	0	0	23529	22100	157736	27464	1060158	46492	108674	0	0	8222	534103	0	0
2024-09-27 17:27:47			0	38620	0	0	0	23519	22110	157688	27633	1060149	46503	108670	0	0	8220	534998	0	0
2024-09-27 17:28:47			0	38612	0	0	0	23514	22110	157656	27249	1060229	46503	108668	0	0	8220	535306	0	0
2024-09-27 17:29:47			0	38625	0	0	0	23509	22110	157808	27474	1060203	46503	108666	0	0	8221	534805	0	0
2024-09-27 17:30:47			0	38610	0	0	0	23509	22110	157884	27284	1060238	46493	108666	0	0	8220	535383	0	0
2024-09-27 17:31:47			0	38580	0	0	0	23511	22100	157872	27237	1060185	46469	108667	0	0	8218	536570	0	0
2024-09-27 17:32:47			0	38579	0	0	0	23509	22100	157888	27720	1060158	46481	108666	0	0	8218	536609	0	0
2024-09-27 17:33:47			0	38581	0	0	0	23506	22100	157876	27284	1060158	46492	108665	0	0	8218	536532	0	0
2024-09-27 17:34:47			0	38576	0	0	0	23527	22090	157820	27098	1060140	46480	108673	0	0	8218	536755	0	0
2024-09-27 17:35:47			0	38587	0	0	0	23537	22090	157908	27253	1060176	46491	108677	0	0	8218	536330	0	0
2024-09-27 17:36:47			0	38604	0	0	0	23529	22090	157760	27396	1060176	46501	108674	0	0	8219	535674	0	0
2024-09-27 17:37:47			0	38588	0	0	0	23519	22110	157788	27133	1060203	46493	108670	0	0	8219	536232	0	0
2024-09-27 17:38:47			0	38591	0	0	0	23516	22110	157820	27022	1060203	46470	108669	0	0	8219	536116	0	0
2024-09-27 17:39:47			0	38586	0	0	0	23532	22100	157880	27229	1060185	46502	108675	0	0	8218	536339	0	0
2024-09-27 17:40:47			0	38595	0	0	0	23524	22090	157696	27097	1060176	46501	108672	0	0	8219	536021	0	0
2024-09-27 17:41:47			0	38588	0	0	0	23532	22090	157864	27180	1060203	46491	108675	0	0	8218	536292	0	0
2024-09-27 17:42:47			0	38572	0	0	0	23516	22100	157876	27495	1060194	46493	108669	0	0	8218	536879	0	0
2024-09-27 17:43:47			0	38579	0	0	0	23506	22100	157812	27488	1060185	46469	108665	0	0	8218	536609	0	0
2024-09-27 17:44:47			0	38572	0	0	0	23506	22100	157880	27313	1060167	46493	108665	0	0	8218	536879	0	0
2024-09-27 17:45:47			0	38560	0	0	0	23496	22100	157952	27386	1060131	46481	108661	0	0	8217	537343	0	0
2024-09-27 17:46:47			0	38542	0	0	0	23506	22100	157932	27258	1060247	46493	108665	0	0	8216	538039	0	0
2024-09-27 17:47:47			0	38547	0	0	0	23501	22090	157952	27663	1060149	46491	108663	0	0	8216	537875	0	0
2024-09-27 17:48:47			0	38528	0	0	0	23496	22100	158044	27505	1060194	46482	108661	0	0	8215	538580	0	0
2024-09-27 17:49:47			0	38521	0	0	0	23496	22080	158104	27526	1060131	46491	108661	0	0	8215	538911	0	0
2024-09-27 17:50:47			0	38537	0	0	0	23498	22090	158104	27474	1060087	46491	108662	0	0	8216	538262	0	0
2024-09-27 17:51:47			0	38521	0	0	0	23496	22090	158076	27677	1060087	46491	108661	0	0	8215	538881	0	0
2024-09-27 17:52:47			0	38506	0	0	0	23483	22090	158120	27419	1060140	46501	108656	0	0	8214	539462	0	0
2024-09-27 17:53:47			0	38498	0	0	0	23488	22090	158204	27353	1060087	46501	108658	0	0	8214	539772	0	0
2024-09-27 17:54:47			0	38482	0	0	0	23483	22080	158260	27244	1060069	46479	108656	0	0	8213	540422	0	0
2024-09-27 17:55:47			0	38486	0	0	0	23485	22080	158208	27433	1060069	46479	108657	0	0	8213	540267	0	0
2024-09-27 17:56:47			0	38472	0	0	0	23485	22080	158320	27313	1060051	46480	108657	0	0	8212	540810	0	0
2024-09-27 17:57:47			0	38462	0	0	0	23477	22070	158388	27324	1060033	46489	108654	0	0	8212	541228	0	0
2024-09-27 17:58:47			0	38451	0	0	0	23488	22060	158336	27372	1060042	46478	108658	0	0	8211	541685	0	0
2024-09-27 17:59:47			0	38453	0	0	0	23480	22070	158312	27154	1059971	46489	108655	0	0	8211	541577	0	0
2024-09-27 18:00:47			0	38464	0	0	0	23483	22070	158360	27547	1059980	46466	108656	0	0	8212	541150	0	0
2024-09-27 18:01:47			0	38458	0	0	0	23488	22060	158400	27218	1060015	46500	108658	0	0	8211	541413	0	0
2024-09-27 18:02:47			0	38488	0	0	0	23514	22070	158412	27239	1060033	46489	108668	0	0	8213	540219	0	0
2024-09-27 18:03:47			0	38482	0	0	0	23503	22060	158316	27078	1060068	46489	108664	0	0	8212	540482	0	0
2024-09-27 18:04:47			0	38487	0	0	0	23496	22070	158284	27666	1060051	46500	108661	0	0	8213	540258	0	0
2024-09-27 18:05:47			0	38470	0	0	0	23485	22080	158308	27365	1060051	46501	108657	0	0	8212	540887	0	0
2024-09-27 18:06:47			0	38473	0	0	0	23488	22070	158360	27038	1060051	46478	108658	0	0	8212	540801	0	0
2024-09-27 18:07:47			0	38483	0	0	0	23511	22070	158364	27466	1060006	46489	108667	0	0	8212	540413	0	0
2024-09-27 18:08:47			0	38486	0	0	0	23514	22080	158216	27400	1060096	46500	108668	0	0	8213	540267	0	0
2024-09-27 18:09:47			0	38518	0	0	0	23501	22070	158216	27291	1060060	46489	108663	0	0	8215	539057	0	0
2024-09-27 18:10:47			0	38486	0	0	0	23503	22080	158272	27438	1060096	46511	108664	0	0	8213	540267	0	0
2024-09-27 18:11:47			0	38488	0	0	0	23496	22070	158212	27254	1060086	46500	108661	0	0	8213	540219	0	0
2024-09-27 18:12:47			0	38470	0	0	0	23485	22070	158304	27478	1060113	46489	108657	0	0	8212	540917	0	0
2024-09-27 18:13:47			0	38475	0	0	0	23485	22070	158264	27632	1060086	46500	108657	0	0	8212	540724	0	0
2024-09-27 18:14:47			0	38483	0	0	0	23488	22080	158308	27445	1060042	46479	108658	0	0	8213	540383	0	0
2024-09-27 18:15:47			0	38471	0	0	0	23509	22070	158304	27466	1060060	46489	108666	0	0	8212	540879	0	0
2024-09-27 18:16:47			0	38476	0	0	0	23496	22070	158300	27334	1060077	46478	108661	0	0	8212	540685	0	0
2024-09-27 18:17:47			0	38468	0	0	0	23488	22080	158400	27190	1060069	46511	108658	0	0	8212	540965	0	0
2024-09-27 18:18:47			0	38457	0	0	0	23503	22080	158444	27339	1060105	46501	108664	0	0	8211	541392	0	0
2024-09-27 18:19:47			0	38448	0	0	0	23475	22070	158388	27381	1060024	46489	108653	0	0	8211	541771	0	0
2024-09-27 18:20:47			0	38455	0	0	0	23493	22070	158440	27197	1060033	46466	108660	0	0	8211	541499	0	0
2024-09-27 18:21:47			0	38452	0	0	0	23493	22070	158428	27372	1059997	46489	108660	0	0	8211	541616	0	0
2024-09-27 18:22:47			0	38436	0	0	0	23501	22060	158468	27343	1060042	46478	108663	0	0	8210	542268	0	0
2024-09-27 18:23:47			0	38427	0	0	0	23496	22070	158392	27396	1060006	46478	108661	0	0	8209	542587	0	0
2024-09-27 18:24:47			0	38444	0	0	0	23519	22070	158392	27199	1060086	46500	108670	0	0	8210	541927	0	0
2024-09-27 18:25:47			0	38453	0	0	0	23511	22070	158348	27433	1060077	46500	108667	0	0	8211	541577	0	0
2024-09-27 18:26:47			0	38440	0	0	0	23519	22070	158356	27237	1060086	46500	108670	0	0	8210	542082	0	0
2024-09-27 18:27:47			0	38464	0	0	0	23511	22080	158388	27338	1060149	46500	108667	0	0	8211	541120	0	0
2024-09-27 18:28:47			0	38466	0	0	0	23516	22070	158312	27528	1060086	46510	108669	0	0	8211	541073	0	0
2024-09-27 18:29:47			0	38468	0	0	0	23511	22080	158512	27286	1060176	46500	108667	0	0	8212	540965	0	0
2024-09-27 18:30:47			0	38456	0	0	0	23506	22080	158576	27454	1060149	46511	108665	0	0	8211	541430	0	0
2024-09-27 18:31:47			0	38451	0	0	0	23519	22080	158520	27201	1060158	46480	108670	0	0	8210	541625	0	0
2024-09-27 18:32:47			0	38455	0	0	0	23519	22080	158584	27424	1060158	46501	108670	0	0	8211	541469	0	0
2024-09-27 18:33:47			0	38443	0	0	0	23511	22080	158628	27528	1060176	46490	108667	0	0	8210	541935	0	0
2024-09-27 18:34:47			0	38427	0	0	0	23514	22080	158632	27152	1060158	46501	108668	0	0	8209	542557	0	0
2024-09-27 18:35:47			0	38437	0	0	0	23511	22080	158684	27313	1060105	46501	108667	0	0	8210	542168	0	0
2024-09-27 18:36:47			0	38434	0	0	0	23506	22090	158684	27228	1060194	46491	108665	0	0	8210	542255	0	0
2024-09-27 18:37:47			0	38418	0	0	0	23503	22080	158672	27218	1060078	46512	108664	0	0	8209	542907	0	0
2024-09-27 18:38:47			0	38423	0	0	0	23506	22080	158732	27092	1060149	46490	108665	0	0	8209	542712	0	0
2024-09-27 18:39:47			0	38405	0	0	0	23506	22080	158804	27379	1060131	46480	108665	0	0	8208	543412	0	0
2024-09-27 18:40:47			0	38393	0	0	0	23503	22090	158748	27274	1060167	46480	108664	0	0	8207	543849	0	0
2024-09-27 18:41:47			0	38375	0	0	0	23493	22080	158800	27443	1060122	46490	108660	0	0	8206	544580	0	0
2024-09-27 18:42:47			0	38378	0	0	0	23511	22070	158904	27173	1060166	46466	108667	0	0	8206	544494	0	0
2024-09-27 18:43:47			0	38373	0	0	0	23511	22080	158840	27502	1060131	46501	108667	0	0	8206	544658	0	0
2024-09-27 18:44:47			0	38386	0	0	0	23511	22080	158852	27386	1060131	46491	108667	0	0	8207	544152	0	0
2024-09-27 18:45:47			0	38387	0	0	0	23511	22080	158928	27410	1060176	46490	108667	0	0	8207	544113	0	0
2024-09-27 18:46:47			0	38382	0	0	0	23514	22090	158912	27092	1060123	46491	108668	0	0	8207	544277	0	0
2024-09-27 18:47:47			0	38369	0	0	0	23519	22080	158872	27391	1060158	46491	108670	0	0	8206	544814	0	0
2024-09-27 18:48:47			0	38376	0	0	0	23522	22080	158840	27156	1060122	46511	108671	0	0	8206	544541	0	0
2024-09-27 18:49:47			0	38376	0	0	0	23527	22080	158864	26987	1060158	46501	108673	0	0	8206	544541	0	0
2024-09-27 18:50:47			0	38364	0	0	0	23527	22070	158784	27074	1060140	46500	108673	0	0	8205	545039	0	0
2024-09-27 18:51:47			0	38361	0	0	0	23516	22090	158872	27107	1060123	46512	108669	0	0	8205	545095	0	0
2024-09-27 18:52:47			0	38366	0	0	0	23516	22080	159000	27345	1060158	46501	108669	0	0	8206	544931	0	0
2024-09-27 18:53:47			0	38359	0	0	0	23511	22080	158960	27220	1060158	46501	108667	0	0	8205	545204	0	0
2024-09-27 18:54:47			0	38343	0	0	0	23514	22090	158960	27161	1060167	46480	108668	0	0	8204	545797	0	0
2024-09-27 18:55:47			0	38337	0	0	0	23514	22080	158908	27137	1060131	46491	108668	0	0	8204	546062	0	0
2024-09-27 18:56:47			0	38351	0	0	0	23511	22090	159024	27232	1060140	46501	108667	0	0	8205	545485	0	0
2024-09-27 18:57:47			0	38328	0	0	0	23509	22090	158928	27164	1060194	46501	108666	0	0	8203	546383	0	0
2024-09-27 18:58:47			0	38335	0	0	0	23514	22080	159116	27514	1060105	46501	108668	0	0	8204	546140	0	0
2024-09-27 18:59:47			0	38317	0	0	0	23501	22080	159140	27258	1060158	46512	108663	0	0	8203	546842	0	0
2024-09-27 19:00:47			0	38292	0	0	0	23498	22070	159108	27095	1060140	46500	108662	0	0	8201	547850	0	0
2024-09-27 19:01:47			0	38303	0	0	0	23498	22080	159196	26953	1060122	46479	108662	0	0	8202	547389	0	0
2024-09-27 19:02:47			0	38299	0	0	0	23501	22070	159132	26897	1060140	46478	108663	0	0	8202	547576	0	0
2024-09-27 19:03:47			0	38290	0	0	0	23509	22080	159152	27322	1060176	46500	108666	0	0	8201	547898	0	0
2024-09-27 19:04:47			0	38286	0	0	0	23509	22080	159200	27279	1060096	46490	108666	0	0	8201	548054	0	0
2024-09-27 19:05:47			0	38277	0	0	0	23503	22080	159236	27346	1060185	46501	108664	0	0	8201	548406	0	0
2024-09-27 19:06:47			0	38264	0	0	0	23509	22070	159308	27326	1060166	46489	108666	0	0	8200	548945	0	0
2024-09-27 19:07:47			0	38262	0	0	0	23509	22080	159280	27384	1060185	46501	108666	0	0	8200	548993	0	0
2024-09-27 19:08:47			0	38281	0	0	0	23509	22080	159324	27371	1060176	46490	108666	0	0	8201	548250	0	0
2024-09-27 19:09:47			0	38255	0	0	0	23503	22080	159284	27498	1060158	46491	108664	0	0	8199	549267	0	0
2024-09-27 19:10:47			0	38262	0	0	0	23506	22090	159236	27211	1060096	46512	108665	0	0	8200	548963	0	0
2024-09-27 19:11:47			0	38263	0	0	0	23501	22080	159348	27336	1060176	46500	108663	0	0	8200	548954	0	0
2024-09-27 19:12:47			0	38249	0	0	0	23509	22080	159440	27175	1060158	46491	108666	0	0	8199	549502	0	0
2024-09-27 19:13:47			0	38231	0	0	0	23506	22080	159400	27213	1060096	46479	108665	0	0	8198	550208	0	0
2024-09-27 19:14:47			0	38234	0	0	0	23506	22090	159420	27317	1060149	46501	108665	0	0	8198	550059	0	0
2024-09-27 19:15:47			0	38223	0	0	0	23506	22080	159360	26991	1060096	46500	108665	0	0	8197	550521	0	0
2024-09-27 19:16:47			0	38212	0	0	0	23498	22080	159464	27310	1060105	46491	108662	0	0	8197	550953	0	0
2024-09-27 19:17:47			0	38218	0	0	0	23488	22080	159520	27353	1060051	46491	108658	0	0	8197	550718	0	0
2024-09-27 19:18:47			0	38213	0	0	0	23496	22080	159640	27189	1060042	46490	108661	0	0	8197	550914	0	0
2024-09-27 19:19:47			0	38195	0	0	0	23493	22090	159564	27308	1060114	46491	108660	0	0	8196	551589	0	0
2024-09-27 19:20:47			0	38203	0	0	0	23506	22080	159592	27204	1060096	46511	108665	0	0	8196	551306	0	0
2024-09-27 19:21:47			0	38179	0	0	0	23498	22070	159644	27189	1060113	46489	108662	0	0	8195	552279	0	0
2024-09-27 19:22:47			0	38207	0	0	0	23501	22070	159500	27519	1060033	46489	108663	0	0	8196	551180	0	0
2024-09-27 19:23:47			0	38186	0	0	0	23498	22070	159616	27490	1060051	46478	108662	0	0	8195	552004	0	0
2024-09-27 19:24:47			0	38184	0	0	0	23485	22070	159704	27244	1060060	46489	108657	0	0	8195	552083	0	0
2024-09-27 19:25:47			0	38164	0	0	0	23490	22070	159680	27352	1060051	46478	108659	0	0	8194	552869	0	0
2024-09-27 19:26:47			0	38165	0	0	0	23498	22070	159664	27377	1060140	46478	108662	0	0	8194	552830	0	0
2024-09-27 19:27:47			0	38162	0	0	0	23501	22080	159716	26920	1060069	46500	108663	0	0	8194	552917	0	0
2024-09-27 19:28:47			0	38148	0	0	0	23498	22080	159672	27105	1060096	46490	108662	0	0	8193	553468	0	0
2024-09-27 19:29:47			0	38148	0	0	0	23493	22070	159704	27265	1060104	46489	108660	0	0	8193	553499	0	0
2024-09-27 19:30:47			0	38128	0	0	0	23493	22070	159712	27041	1060051	46500	108660	0	0	8192	554286	0	0
2024-09-27 19:31:47			0	38136	0	0	0	23483	22070	159764	27239	1060060	46478	108656	0	0	8193	553971	0	0
2024-09-27 19:32:47			0	38132	0	0	0	23485	22060	159788	27410	1060068	46489	108657	0	0	8192	554159	0	0
2024-09-27 19:33:47			0	38121	0	0	0	23488	22060	159880	27149	1060095	46500	108658	0	0	8192	554593	0	0
2024-09-27 19:34:47			0	38125	0	0	0	23485	22070	159812	26932	1060024	46478	108657	0	0	8192	554404	0	0
2024-09-27 19:35:47			0	38129	0	0	0	23485	22070	159768	26939	1060077	46500	108657	0	0	8192	554246	0	0
2024-09-27 19:36:47			0	38126	0	0	0	23480	22060	159924	27039	1060059	46509	108655	0	0	8192	554396	0	0
2024-09-27 19:37:47			0	38106	0	0	0	23477	22060	159952	27239	1060033	46499	108654	0	0	8191	555184	0	0
2024-09-27 19:38:47			0	38111	0	0	0	23485	22060	159876	27336	1060042	46489	108657	0	0	8191	554987	0	0
2024-09-27 19:39:47			0	38100	0	0	0	23477	22060	159908	26844	1060015	46489	108654	0	0	8191	555420	0	0
2024-09-27 19:40:47			0	38106	0	0	0	23488	22070	159864	27286	1060104	46478	108658	0	0	8191	555153	0	0
2024-09-27 19:41:47			0	38103	0	0	0	23472	22070	159928	27441	1060051	46489	108652	0	0	8191	555271	0	0
2024-09-27 19:42:47			0	38092	0	0	0	23467	22070	159912	27083	1060051	46478	108650	0	0	8190	555705	0	0
2024-09-27 19:43:47			0	38087	0	0	0	23480	22050	159972	27383	1060023	46487	108655	0	0	8190	555964	0	0
2024-09-27 19:44:47			0	38085	0	0	0	23470	22060	160012	27355	1059988	46489	108651	0	0	8190	556012	0	0
2024-09-27 19:45:47			0	38092	0	0	0	23483	22050	159988	26906	1059997	46476	108656	0	0	8190	555767	0	0
2024-09-27 19:46:47			0	38081	0	0	0	23485	22070	159960	27441	1060024	46489	108657	0	0	8189	556139	0	0
2024-09-27 19:47:47			0	38088	0	0	0	23477	22060	160012	27142	1060033	46477	108654	0	0	8190	555894	0	0
2024-09-27 19:48:47			0	38080	0	0	0	23485	22060	160056	27339	1060015	46489	108657	0	0	8189	556209	0	0
2024-09-27 19:49:47			0	38068	0	0	0	23477	22050	160128	27384	1059988	46486	108654	0	0	8189	556714	0	0
2024-09-27 19:50:47			0	38077	0	0	0	23470	22070	160056	27438	1059997	46478	108651	0	0	8189	556297	0	0
2024-09-27 19:51:47			0	38072	0	0	0	23470	22060	160072	27514	1060059	46488	108651	0	0	8189	556525	0	0
2024-09-27 19:52:47			0	38065	0	0	0	23464	22050	160124	27038	1060023	46508	108649	0	0	8189	556833	0	0
2024-09-27 19:53:47			0	38067	0	0	0	23464	22050	160028	27267	1059997	46508	108649	0	0	8189	556754	0	0
2024-09-27 19:54:47			0	38061	0	0	0	23477	22050	160108	27282	1059943	46487	108654	0	0	8188	556991	0	0
2024-09-27 19:55:47			0	38067	0	0	0	23470	22050	160100	27203	1060023	46476	108651	0	0	8189	556754	0	0
2024-09-27 19:56:47			0	38051	0	0	0	23467	22040	160084	27223	1059979	46486	108650	0	0	8188	557417	0	0
2024-09-27 19:57:47			0	38051	0	0	0	23472	22050	160156	27268	1060015	46486	108652	0	0	8188	557386	0	0
2024-09-27 19:58:47			0	38037	0	0	0	23477	22040	160272	27078	1060006	46475	108654	0	0	8187	557971	0	0
2024-09-27 19:59:47			0	38028	0	0	0	23472	22050	160220	27296	1060023	46498	108652	0	0	8186	558295	0	0
2024-09-27 20:00:47			0	38022	0	0	0	23480	22050	160287	27400	1059943	46487	108655	0	0	8186	558533	0	0
2024-09-27 20:01:47			0	38026	0	0	0	23467	22050	160367	27171	1059970	46487	108650	0	0	8186	558375	0	0
2024-09-27 20:02:47			0	38008	0	0	0	23470	22050	160291	27180	1060023	46487	108651	0	0	8185	559087	0	0
2024-09-27 20:03:47			0	38002	0	0	0	23464	22050	160435	27431	1059943	46476	108649	0	0	8185	559325	0	0
2024-09-27 20:04:47			0	38027	0	0	0	23477	22060	160435	27220	1060006	46488	108654	0	0	8186	558304	0	0
2024-09-27 20:05:47			0	38009	0	0	0	23470	22050	160407	27390	1060015	46475	108651	0	0	8185	559048	0	0
2024-09-27 20:06:47			0	38013	0	0	0	23462	22050	160447	27275	1059961	46486	108648	0	0	8186	558889	0	0
2024-09-27 20:07:47			0	37999	0	0	0	23470	22050	160331	27220	1059961	46497	108651	0	0	8185	559444	0	0
2024-09-27 20:08:47			0	38011	0	0	0	23467	22040	160299	27412	1060006	46486	108650	0	0	8185	559000	0	0
2024-09-27 20:09:47			0	37992	0	0	0	23467	22050	160363	27135	1059935	46486	108650	0	0	8184	559721	0	0
2024-09-27 20:10:47			0	37985	0	0	0	23464	22050	160471	27059	1059961	46486	108649	0	0	8184	559998	0	0
2024-09-27 20:11:47			0	37975	0	0	0	23464	22040	160419	27041	1059926	46486	108649	0	0	8183	560426	0	0
2024-09-27 20:12:47			0	37983	0	0	0	23472	22030	160459	27287	1059934	46496	108652	0	0	8184	560140	0	0
2024-09-27 20:13:47			0	37999	0	0	0	23467	22040	160383	27455	1060006	46486	108650	0	0	8185	559475	0	0
2024-09-27 20:14:47			0	37981	0	0	0	23467	22040	160279	27403	1059952	46486	108650	0	0	8184	560188	0	0
2024-09-27 20:15:47			0	37977	0	0	0	23467	22040	160331	27218	1059890	46475	108650	0	0	8183	560347	0	0
2024-09-27 20:16:47			0	37971	0	0	0	23464	22050	160435	27185	1059961	46497	108649	0	0	8183	560554	0	0
2024-09-27 20:17:47			0	37963	0	0	0	23470	22040	160499	27232	1059926	46486	108651	0	0	8183	560902	0	0
2024-09-27 20:18:47			0	37972	0	0	0	23462	22040	160463	27168	1059952	46497	108648	0	0	8183	560545	0	0
2024-09-27 20:19:47			0	37954	0	0	0	23462	22040	160443	27502	1059970	46475	108648	0	0	8182	561260	0	0
2024-09-27 20:20:47			0	37970	0	0	0	23459	22040	160459	27305	1059890	46497	108647	0	0	8183	560625	0	0
2024-09-27 20:21:47			0	37965	0	0	0	23462	22040	160455	27303	1059926	46486	108648	0	0	8183	560823	0	0
2024-09-27 20:22:47			0	37963	0	0	0	23459	22050	160531	27289	1059935	46497	108647	0	0	8183	560871	0	0
2024-09-27 20:23:47			0	37965	0	0	0	23462	22040	160451	27189	1059917	46486	108648	0	0	8183	560823	0	0
2024-09-27 20:24:47			0	37972	0	0	0	23454	22030	160451	27104	1059934	46485	108645	0	0	8183	560577	0	0
2024-09-27 20:25:47			0	37955	0	0	0	23462	22050	160507	27161	1059935	46486	108648	0	0	8182	561188	0	0
2024-09-27 20:26:47			0	37965	0	0	0	23457	22030	160479	27334	1059881	46496	108646	0	0	8183	560854	0	0
2024-09-27 20:27:47			0	37950	0	0	0	23451	22040	160423	27137	1059899	46486	108644	0	0	8182	561418	0	0
2024-09-27 20:28:47			0	37946	0	0	0	23454	22040	160563	27409	1059917	46486	108645	0	0	8182	561577	0	0
2024-09-27 20:29:47			0	37938	0	0	0	23459	22040	160587	27460	1059926	46486	108647	0	0	8181	561895	0	0
2024-09-27 20:30:47			0	37920	0	0	0	23457	22050	160599	27230	1059854	46486	108646	0	0	8180	562579	0	0
2024-09-27 20:31:47			0	37922	0	0	0	23454	22030	160643	27562	1059934	46496	108645	0	0	8180	562562	0	0
2024-09-27 20:32:47			0	37912	0	0	0	23457	22030	160675	27296	1059828	46485	108646	0	0	8180	562960	0	0
2024-09-27 20:33:47			0	37921	0	0	0	23451	22030	160779	27592	1059961	46496	108644	0	0	8180	562602	0	0
2024-09-27 20:34:47			0	37916	0	0	0	23451	22040	160667	27267	1059917	46475	108644	0	0	8180	562769	0	0
2024-09-27 20:35:47			0	37922	0	0	0	23459	22030	160675	27315	1059881	46506	108647	0	0	8180	562562	0	0
2024-09-27 20:36:47			0	37912	0	0	0	23438	22030	160667	27336	1059925	46484	108639	0	0	8180	562960	0	0
2024-09-27 20:37:47			0	37904	0	0	0	23454	22030	160667	27409	1059908	46474	108645	0	0	8179	563278	0	0
2024-09-27 20:38:47			0	37917	0	0	0	23454	22040	160727	26923	1059899	46475	108645	0	0	8180	562730	0	0
2024-09-27 20:39:47			0	37922	0	0	0	23444	22030	160687	26939	1059854	46485	108641	0	0	8181	562562	0	0
2024-09-27 20:40:47			0	37907	0	0	0	23446	22030	160707	27379	1059899	46505	108642	0	0	8180	563159	0	0
2024-09-27 20:41:47			0	37914	0	0	0	23451	22030	160719	27313	1059881	46496	108644	0	0	8180	562880	0	0
2024-09-27 20:42:47			0	37889	0	0	0	23441	22030	160603	27168	1059845	46473	108640	0	0	8179	563875	0	0
2024-09-27 20:43:47			0	37897	0	0	0	23446	22030	160703	27156	1059908	46485	108642	0	0	8179	563557	0	0
2024-09-27 20:44:47			0	37921	0	0	0	23449	22030	160699	27343	1059934	46485	108643	0	0	8180	562602	0	0
2024-09-27 20:45:47			0	37915	0	0	0	23451	22020	160723	26824	1059836	46461	108644	0	0	8180	562872	0	0
2024-09-27 20:46:47			0	37899	0	0	0	23444	22030	160751	27275	1059899	46484	108641	0	0	8179	563477	0	0
2024-09-27 20:47:47			0	37885	0	0	0	23446	22030	160827	27441	1059845	46495	108642	0	0	8178	564035	0	0
2024-09-27 20:48:47			0	37895	0	0	0	23449	22030	160819	27296	1059854	46496	108643	0	0	8179	563636	0	0
2024-09-27 20:49:47			0	37898	0	0	0	23446	22030	160819	27211	1059908	46496	108642	0	0	8179	563517	0	0
2024-09-27 20:50:47			0	37873	0	0	0	23446	22020	160883	27249	1059836	46495	108642	0	0	8178	564544	0	0
2024-09-27 20:51:47			0	37871	0	0	0	23436	22020	160819	27253	1059890	46495	108638	0	0	8178	564624	0	0
2024-09-27 20:52:47			0	37861	0	0	0	23449	22030	160731	27183	1059881	46485	108643	0	0	8177	564991	0	0
2024-09-27 20:53:47			0	37859	0	0	0	23449	22020	160939	27242	1059890	46473	108643	0	0	8177	565102	0	0
2024-09-27 20:54:47			0	37863	0	0	0	23446	22020	160943	27679	1059827	46484	108642	0	0	8177	564943	0	0
2024-09-27 20:55:47			0	37861	0	0	0	23441	22020	160907	27443	1059863	46505	108640	0	0	8177	565022	0	0
2024-09-27 20:56:47			0	37858	0	0	0	23451	22020	160975	27360	1059827	46495	108644	0	0	8177	565142	0	0
2024-09-27 20:57:47			0	37849	0	0	0	23444	22020	161023	27384	1059810	46495	108641	0	0	8176	565501	0	0
2024-09-27 20:58:47			0	37857	0	0	0	23454	22020	161023	27386	1059827	46495	108645	0	0	8177	565182	0	0
2024-09-27 20:59:47			0	37865	0	0	0	23444	22020	160991	27364	1059836	46484	108641	0	0	8177	564863	0	0
2024-09-27 21:00:47			0	37861	0	0	0	23444	22020	161015	27398	1059836	46495	108641	0	0	8177	565022	0	0
2024-09-27 21:01:47			0	37848	0	0	0	23444	22020	161047	27086	1059854	46484	108641	0	0	8176	565541	0	0
2024-09-27 21:02:47			0	37833	0	0	0	23438	22020	161051	27376	1059836	46495	108639	0	0	8175	566139	0	0
2024-09-27 21:03:47			0	37828	0	0	0	23444	22030	161039	27215	1059872	46495	108641	0	0	8175	566307	0	0
2024-09-27 21:04:47			0	37851	0	0	0	23441	22020	161131	27490	1059836	46484	108640	0	0	8176	565421	0	0
2024-09-27 21:05:47			0	37849	0	0	0	23436	22030	161127	27249	1059872	46484	108638	0	0	8176	565469	0	0
2024-09-27 21:06:47			0	37824	0	0	0	23441	22030	161047	27173	1059899	46473	108640	0	0	8175	566467	0	0
2024-09-27 21:07:47			0	37820	0	0	0	23433	22020	161123	27268	1059810	46495	108637	0	0	8175	566659	0	0
2024-09-27 21:08:47			0	37827	0	0	0	23436	22030	161107	27175	1059845	46484	108638	0	0	8175	566347	0	0
2024-09-27 21:09:47			0	37833	0	0	0	23438	22020	161063	27244	1059827	46473	108639	0	0	8175	566139	0	0
2024-09-27 21:10:47			0	37831	0	0	0	23446	22010	161023	27128	1059818	46494	108642	0	0	8175	566251	0	0
2024-09-27 21:11:47			0	37825	0	0	0	23438	22020	161179	26989	1059801	46473	108639	0	0	8175	566459	0	0
2024-09-27 21:12:47			0	37844	0	0	0	23441	22020	161127	27263	1059810	46505	108640	0	0	8176	565700	0	0
2024-09-27 21:13:47			0	37837	0	0	0	23433	22010	161103	27105	1059792	46494	108637	0	0	8176	566011	0	0
2024-09-27 21:14:47			0	37831	0	0	0	23436	22030	161027	27433	1059872	46484	108638	0	0	8175	566188	0	0
2024-09-27 21:15:47			0	37832	0	0	0	23433	22020	161099	27057	1059774	46473	108637	0	0	8175	566179	0	0
2024-09-27 21:16:47			0	37817	0	0	0	23438	22010	161051	27414	1059792	46483	108639	0	0	8174	566810	0	0
2024-09-27 21:17:47			0	37846	0	0	0	23438	22020	160903	27272	1059881	46495	108639	0	0	8176	565621	0	0
2024-09-27 21:18:47			0	37861	0	0	0	23441	22020	160923	27561	1059863	46495	108640	0	0	8177	565022	0	0
2024-09-27 21:19:47			0	37853	0	0	0	23431	22010	160851	27348	1059809	46471	108636	0	0	8177	565373	0	0
2024-09-27 21:20:47			0	37869	0	0	0	23441	22020	160775	27348	1059916	46484	108640	0	0	8177	564703	0	0
2024-09-27 21:21:47			0	37848	0	0	0	23436	22010	160955	27460	1059783	46493	108638	0	0	8176	565572	0	0
2024-09-27 21:22:47			0	37848	0	0	0	23431	22010	160951	27121	1059845	46494	108636	0	0	8176	565572	0	0
2024-09-27 21:23:47			0	37814	0	0	0	23436	22020	161083	27254	1059827	46495	108638	0	0	8174	566898	0	0
2024-09-27 21:24:47			0	37811	0	0	0	23436	22010	161071	27203	1059792	46483	108638	0	0	8174	567050	0	0
2024-09-27 21:25:47			0	37810	0	0	0	23431	22020	161147	27260	1059881	46495	108636	0	0	8174	567058	0	0
2024-09-27 21:26:47			0	37789	0	0	0	23436	22010	161195	27327	1059765	46483	108638	0	0	8173	567929	0	0
2024-09-27 21:27:47			0	37786	0	0	0	23431	22020	161223	27524	1059827	46505	108636	0	0	8173	568018	0	0
2024-09-27 21:28:47			0	37775	0	0	0	23438	22010	161155	27197	1059845	46483	108639	0	0	8172	568489	0	0
2024-09-27 21:29:47			0	37775	0	0	0	23431	22010	161151	27331	1059809	46493	108636	0	0	8172	568489	0	0
2024-09-27 21:30:47			0	37767	0	0	0	23431	22010	161135	27201	1059783	46482	108636	0	0	8172	568810	0	0
2024-09-27 21:31:47			0	37761	0	0	0	23436	22010	161215	27322	1059783	46503	108638	0	0	8171	569050	0	0
2024-09-27 21:32:47			0	37769	0	0	0	23438	22010	161175	27078	1059765	46494	108639	0	0	8172	568730	0	0
2024-09-27 21:33:47			0	37767	0	0	0	23431	22000	161319	27234	1059800	46493	108636	0	0	8172	568841	0	0
2024-09-27 21:34:47			0	37776	0	0	0	23431	22010	161331	27339	1059765	46494	108636	0	0	8172	568449	0	0
2024-09-27 21:35:47			0	37757	0	0	0	23431	22010	161307	27086	1059845	46494	108636	0	0	8171	569210	0	0
2024-09-27 21:36:47			0	37745	0	0	0	23433	22010	161267	27514	1059845	46494	108637	0	0	8170	569691	0	0
2024-09-27 21:37:47			0	37760	0	0	0	23428	22000	161295	27183	1059800	46482	108635	0	0	8171	569122	0	0
2024-09-27 21:38:47			0	37749	0	0	0	23438	22010	161219	27402	1059809	46482	108639	0	0	8170	569531	0	0
2024-09-27 21:39:47			0	37759	0	0	0	23436	22010	161379	27242	1059756	46493	108638	0	0	8171	569130	0	0
2024-09-27 21:40:47			0	37751	0	0	0	23425	22010	161379	27405	1059809	46482	108634	0	0	8171	569451	0	0
2024-09-27 21:41:47			0	37733	0	0	0	23433	22010	161343	27170	1059792	46494	108637	0	0	8170	570172	0	0
2024-09-27 21:42:47			0	37753	0	0	0	23428	22010	161339	27355	1059792	46483	108635	0	0	8171	569370	0	0
2024-09-27 21:43:47			0	37742	0	0	0	23431	22000	161303	27398	1059800	46482	108636	0	0	8170	569843	0	0
2024-09-27 21:44:47			0	37780	0	0	0	23428	22000	161267	27159	1059800	46503	108635	0	0	8172	568321	0	0
2024-09-27 21:45:47			0	37755	0	0	0	23420	22010	161363	27121	1059836	46493	108632	0	0	8171	569290	0	0
2024-09-27 21:46:47			0	37751	0	0	0	23423	22000	161327	27220	1059827	46482	108633	0	0	8171	569482	0	0
2024-09-27 21:47:47			0	37752	0	0	0	23423	22010	161379	27263	1059818	46483	108633	0	0	8171	569411	0	0
2024-09-27 21:48:47			0	37729	0	0	0	23420	22010	161407	27067	1059676	46482	108632	0	0	8170	570333	0	0
2024-09-27 21:49:47			0	37724	0	0	0	23425	22010	161547	26970	1059703	46503	108634	0	0	8169	570533	0	0
2024-09-27 21:50:47			0	37718	0	0	0	23423	22010	161499	27104	1059729	46482	108633	0	0	8169	570774	0	0
2024-09-27 21:51:47			0	37726	0	0	0	23423	22000	161583	27348	1059827	46482	108633	0	0	8169	570485	0	0
2024-09-27 21:52:47			0	37711	0	0	0	23428	22000	161427	27312	1059774	46493	108635	0	0	8168	571087	0	0
2024-09-27 21:53:47			0	37718	0	0	0	23420	22010	161455	27421	1059809	46482	108632	0	0	8169	570774	0	0
2024-09-27 21:54:47			0	37706	0	0	0	23418	22010	161507	27121	1059809	46503	108631	0	0	8168	571255	0	0
2024-09-27 21:55:47			0	37703	0	0	0	23412	22000	161635	27384	1059774	46493	108629	0	0	8168	571408	0	0
2024-09-27 21:56:47			0	37692	0	0	0	23418	22000	161555	27166	1059747	46482	108631	0	0	8167	571850	0	0
2024-09-27 21:57:47			0	37702	0	0	0	23412	21980	161591	27272	1059694	46469	108629	0	0	8168	571512	0	0
2024-09-27 21:58:47			0	37693	0	0	0	23420	22000	161659	27495	1059747	46482	108632	0	0	8167	571809	0	0
2024-09-27 21:59:47			0	37679	0	0	0	23418	22000	161651	27464	1059747	46503	108631	0	0	8167	572372	0	0
2024-09-27 22:00:47			0	37688	0	0	0	23412	21990	161591	27124	1059711	46493	108629	0	0	8167	572042	0	0
2024-09-27 22:01:47			0	37696	0	0	0	23415	22000	161531	27216	1059774	46493	108630	0	0	8168	571689	0	0
2024-09-27 22:02:47			0	37692	0	0	0	23410	22010	161575	27355	1059756	46493	108628	0	0	8168	571818	0	0
2024-09-27 22:03:47			0	37692	0	0	0	23423	21990	161515	26828	1059729	46470	108633	0	0	8167	571882	0	0
2024-09-27 22:04:47			0	37692	0	0	0	23407	21990	161555	27156	1059765	46493	108627	0	0	8168	571882	0	0
2024-09-27 22:05:47			0	37678	0	0	0	23399	21990	161511	27377	1059765	46482	108624	0	0	8167	572444	0	0
2024-09-27 22:06:47			0	37674	0	0	0	23410	21980	161711	27093	1059694	46491	108628	0	0	8166	572637	0	0
2024-09-27 22:07:47			0	37655	0	0	0	23410	22000	161739	27332	1059747	46482	108628	0	0	8165	573338	0	0
2024-09-27 22:08:47			0	37678	0	0	0	23412	21990	161675	27123	1059703	46470	108629	0	0	8167	572444	0	0
2024-09-27 22:09:47			0	37670	0	0	0	23412	21980	161703	27293	1059667	46491	108629	0	0	8166	572798	0	0
2024-09-27 22:10:47			0	37691	0	0	0	23415	21990	161647	27419	1059729	46481	108630	0	0	8167	571922	0	0
2024-09-27 22:11:47			0	37681	0	0	0	23410	21990	161639	27199	1059756	46502	108628	0	0	8167	572324	0	0
2024-09-27 22:12:47			0	37687	0	0	0	23412	21980	161711	27410	1059711	46490	108629	0	0	8167	572114	0	0
2024-09-27 22:13:47			0	37687	0	0	0	23418	21990	161639	27098	1059676	46470	108631	0	0	8167	572082	0	0
2024-09-27 22:14:47			0	37678	0	0	0	23410	22010	161723	27301	1059783	46493	108628	0	0	8167	572380	0	0
2024-09-27 22:15:47			0	37674	0	0	0	23410	21980	161651	27462	1059711	46490	108628	0	0	8166	572637	0	0
2024-09-27 22:16:47			0	37671	0	0	0	23405	21990	161711	26948	1059729	46481	108626	0	0	8166	572726	0	0
2024-09-27 22:17:47			0	37657	0	0	0	23392	21980	161659	27123	1059667	46491	108621	0	0	8166	573321	0	0
2024-09-27 22:18:47			0	37658	0	0	0	23405	21990	161603	27393	1059729	46470	108626	0	0	8166	573249	0	0
2024-09-27 22:19:47			0	37651	0	0	0	23412	21980	161647	27294	1059694	46458	108629	0	0	8165	573562	0	0
2024-09-27 22:20:47			0	37666	0	0	0	23410	21980	161707	27235	1059694	46491	108628	0	0	8166	572959	0	0
2024-09-27 22:21:47			0	37657	0	0	0	23407	21980	161687	27265	1059614	46491	108627	0	0	8165	573321	0	0
2024-09-27 22:22:47			0	37673	0	0	0	23407	21990	161715	26967	1059729	46470	108627	0	0	8166	572645	0	0
2024-09-27 22:23:47			0	37665	0	0	0	23399	21980	161611	27001	1059738	46479	108624	0	0	8166	572999	0	0
2024-09-27 22:24:47			0	37667	0	0	0	23399	21970	161687	27369	1059640	46479	108624	0	0	8166	572951	0	0
2024-09-27 22:25:47			0	37689	0	0	0	23407	21980	161687	27445	1059711	46490	108627	0	0	8167	572034	0	0
2024-09-27 22:26:47			0	37682	0	0	0	23410	21980	161615	27346	1059711	46479	108628	0	0	8167	572315	0	0
2024-09-27 22:27:47			0	37668	0	0	0	23397	21990	161719	27111	1059703	46481	108623	0	0	8166	572846	0	0
2024-09-27 22:28:47			0	37676	0	0	0	23405	21980	161667	27133	1059614	46491	108626	0	0	8167	572557	0	0
2024-09-27 22:29:47			0	37686	0	0	0	23407	21980	161699	27010	1059738	46467	108627	0	0	8167	572155	0	0
2024-09-27 22:30:47			0	37693	0	0	0	23402	21980	161559	27279	1059685	46467	108625	0	0	8168	571873	0	0
2024-09-27 22:31:47			0	37679	0	0	0	23392	21970	161539	27107	1059613	46467	108621	0	0	8167	572468	0	0
2024-09-27 22:32:47			0	37656	0	0	0	23397	21980	161643	27036	1059640	46491	108623	0	0	8166	573361	0	0
2024-09-27 22:33:47			0	37648	0	0	0	23407	21980	161639	27176	1059685	46500	108627	0	0	8165	573683	0	0
2024-09-27 22:34:47			0	37677	0	0	0	23399	21980	161643	27248	1059747	46491	108624	0	0	8167	572517	0	0
2024-09-27 22:35:47			0	37670	0	0	0	23402	21980	161723	27277	1059711	46500	108625	0	0	8166	572798	0	0
2024-09-27 22:36:47			0	37675	0	0	0	23405	21980	161627	27339	1059694	46480	108626	0	0	8167	572597	0	0
2024-09-27 22:37:47			0	37680	0	0	0	23405	21980	161539	27111	1059720	46458	108626	0	0	8167	572396	0	0
2024-09-27 22:38:47			0	37681	0	0	0	23394	21980	161503	27144	1059711	46479	108622	0	0	8167	572356	0	0
2024-09-27 22:39:47			0	37666	0	0	0	23405	21970	161531	27462	1059702	46479	108626	0	0	8166	572991	0	0
2024-09-27 22:40:47			0	37675	0	0	0	23407	21980	161659	27341	1059658	46479	108627	0	0	8166	572597	0	0
2024-09-27 22:41:47			0	37668	0	0	0	23399	21980	161623	27237	1059667	46480	108624	0	0	8166	572878	0	0
2024-09-27 22:42:47			0	37670	0	0	0	23392	21990	161623	27152	1059711	46482	108621	0	0	8166	572766	0	0
2024-09-27 22:43:47			0	37662	0	0	0	23397	21970	161703	27097	1059729	46479	108623	0	0	8166	573152	0	0
2024-09-27 22:44:47			0	37641	0	0	0	23399	21980	161687	27258	1059631	46467	108624	0	0	8165	573965	0	0
2024-09-27 22:45:47			0	37654	0	0	0	23392	21970	161667	27364	1059640	46479	108621	0	0	8165	573474	0	0
2024-09-27 22:46:47			0	37660	0	0	0	23394	21970	161695	27327	1059649	46479	108622	0	0	8166	573232	0	0
2024-09-27 22:47:47			0	37665	0	0	0	23407	21970	161731	27377	1059702	46490	108627	0	0	8166	573031	0	0
2024-09-27 22:48:47			0	37691	0	0	0	23389	21980	161567	26897	1059631	46490	108620	0	0	8168	571954	0	0
2024-09-27 22:49:47			0	37677	0	0	0	23392	21960	161607	27007	1059631	46478	108621	0	0	8167	572580	0	0
2024-09-27 22:50:47			0	37683	0	0	0	23397	21980	161539	27377	1059658	46490	108623	0	0	8167	572275	0	0
2024-09-27 22:51:47			0	37684	0	0	0	23402	21970	161639	27274	1059640	46479	108625	0	0	8167	572267	0	0
2024-09-27 22:52:47			0	37672	0	0	0	23397	21970	161583	27027	1059649	46479	108623	0	0	8166	572749	0	0
2024-09-27 22:53:47			0	37686	0	0	0	23392	21970	161579	27039	1059676	46457	108621	0	0	8167	572187	0	0
2024-09-27 22:54:47			0	37677	0	0	0	23389	21970	161667	27157	1059676	46490	108620	0	0	8167	572548	0	0
2024-09-27 22:55:47			0	37674	0	0	0	23389	21980	161635	27277	1059658	46500	108620	0	0	8167	572637	0	0
2024-09-27 22:56:47			0	37656	0	0	0	23402	21970	161603	26913	1059613	46467	108625	0	0	8165	573393	0	0
2024-09-27 22:57:47			0	37664	0	0	0	23394	21970	161735	26934	1059640	46490	108622	0	0	8166	573071	0	0
2024-09-27 22:58:47			0	37640	0	0	0	23381	21970	161719	27067	1059667	46479	108617	0	0	8165	574037	0	0
2024-09-27 22:59:47			0	37652	0	0	0	23384	21970	161879	26885	1059676	46479	108618	0	0	8165	573554	0	0
2024-09-27 23:00:47			0	37648	0	0	0	23384	21960	161883	27039	1059542	46488	108618	0	0	8165	573747	0	0
2024-09-27 23:01:47			0	37651	0	0	0	23386	21970	161791	27078	1059649	46490	108619	0	0	8165	573594	0	0
2024-09-27 23:02:47			0	37646	0	0	0	23394	21960	161815	27308	1059658	46489	108622	0	0	8165	573828	0	0
2024-09-27 23:03:47			0	37664	0	0	0	23397	21970	161763	27154	1059676	46490	108623	0	0	8166	573071	0	0
2024-09-27 23:04:47			0	37649	0	0	0	23389	21970	161783	27208	1059667	46490	108620	0	0	8165	573675	0	0
2024-09-27 23:05:47			0	37654	0	0	0	23386	21970	161791	27071	1059596	46500	108619	0	0	8166	573474	0	0
2024-09-27 23:06:47			0	37642	0	0	0	23397	21970	161815	26961	1059649	46490	108623	0	0	8165	573957	0	0
2024-09-27 23:07:47			0	37636	0	0	0	23384	21970	161715	27364	1059613	46490	108618	0	0	8165	574199	0	0
2024-09-27 23:08:47			0	37627	0	0	0	23386	21960	161731	27190	1059622	46488	108619	0	0	8164	574593	0	0
2024-09-27 23:09:47			0	37636	0	0	0	23392	21970	161831	27067	1059640	46490	108621	0	0	8164	574199	0	0
2024-09-27 23:10:47			0	37638	0	0	0	23381	21960	161867	27320	1059649	46477	108617	0	0	8165	574150	0	0
2024-09-27 23:11:47			0	37624	0	0	0	23381	21960	161927	27081	1059631	46489	108617	0	0	8164	574714	0	0
2024-09-27 23:12:47			0	37629	0	0	0	23384	21960	161895	27088	1059631	46478	108618	0	0	8164	574513	0	0
2024-09-27 23:13:47			0	37603	0	0	0	23376	21960	161891	27246	1059569	46488	108615	0	0	8163	575561	0	0
2024-09-27 23:14:47			0	37617	0	0	0	23392	21960	161887	26984	1059604	46478	108621	0	0	8163	574996	0	0
2024-09-27 23:15:47			0	37628	0	0	0	23381	21960	161879	27246	1059569	46488	108617	0	0	8164	574553	0	0
2024-09-27 23:16:47			0	37625	0	0	0	23384	21950	161743	27154	1059613	46488	108618	0	0	8164	574706	0	0
2024-09-27 23:17:47			0	37619	0	0	0	23392	21970	161755	27256	1059667	46490	108621	0	0	8163	574884	0	0
2024-09-27 23:18:47			0	37628	0	0	0	23386	21960	161763	27249	1059569	46488	108619	0	0	8164	574553	0	0
2024-09-27 23:19:47			0	37626	0	0	0	23379	21960	161739	27336	1059649	46488	108616	0	0	8164	574634	0	0
2024-09-27 23:20:47			0	37619	0	0	0	23376	21970	161883	27391	1059613	46490	108615	0	0	8164	574884	0	0
2024-09-27 23:21:47			0	37612	0	0	0	23379	21970	161987	27192	1059613	46479	108616	0	0	8163	575166	0	0
2024-09-27 23:22:47			0	37604	0	0	0	23379	21960	162003	27332	1059622	46466	108616	0	0	8163	575521	0	0
2024-09-27 23:23:47			0	37605	0	0	0	23381	21960	161999	27267	1059595	46466	108617	0	0	8163	575480	0	0
2024-09-27 23:24:47			0	37591	0	0	0	23368	21960	162051	27154	1059649	46477	108612	0	0	8162	576046	0	0
2024-09-27 23:25:47			0	37586	0	0	0	23379	21960	161995	27306	1059542	46477	108616	0	0	8162	576247	0	0
2024-09-27 23:26:47			0	37583	0	0	0	23373	21960	162063	27339	1059595	46477	108614	0	0	8162	576369	0	0
2024-09-27 23:27:47			0	37568	0	0	0	23373	21950	162063	27194	1059640	46488	108614	0	0	8161	577007	0	0
2024-09-27 23:28:47			0	37556	0	0	0	23376	21940	162151	27436	1059568	46487	108615	0	0	8160	577524	0	0
2024-09-27 23:29:47			0	37552	0	0	0	23368	21950	162195	27334	1059551	46488	108612	0	0	8160	577654	0	0
2024-09-27 23:30:47			0	37564	0	0	0	23371	21960	162283	27282	1059595	46488	108613	0	0	8160	577136	0	0
2024-09-27 23:31:47			0	37537	0	0	0	23371	21950	162187	27383	1059560	46466	108613	0	0	8159	578261	0	0
2024-09-27 23:32:47			0	37569	0	0	0	23379	21950	162223	27220	1059560	46477	108616	0	0	8161	576966	0	0
2024-09-27 23:33:47			0	37556	0	0	0	23381	21950	162315	27396	1059577	46488	108617	0	0	8160	577492	0	0
2024-09-27 23:34:47			0	37535	0	0	0	23373	21950	162215	27306	1059560	46488	108614	0	0	8159	578341	0	0
2024-09-27 23:35:47			0	37533	0	0	0	23373	21950	162319	27298	1059560	46466	108614	0	0	8159	578422	0	0
2024-09-27 23:36:47			0	37529	0	0	0	23379	21950	162255	27029	1059640	46477	108616	0	0	8158	578584	0	0
2024-09-27 23:37:47			0	37524	0	0	0	23371	21960	162455	27098	1059649	46477	108613	0	0	8158	578755	0	0
2024-09-27 23:38:47			0	37529	0	0	0	23371	21950	162299	26979	1059551	46488	108613	0	0	8158	578584	0	0
2024-09-27 23:39:47			0	37514	0	0	0	23371	21950	162323	27071	1059533	46466	108613	0	0	8157	579192	0	0
2024-09-27 23:40:47			0	37532	0	0	0	23373	21950	162319	27237	1059524	46499	108614	0	0	8158	578463	0	0
2024-09-27 23:41:47			0	37550	0	0	0	23379	21960	162295	27419	1059595	46477	108616	0	0	8159	577702	0	0
2024-09-27 23:42:47			0	37547	0	0	0	23379	21950	162335	27067	1059551	46466	108616	0	0	8159	577856	0	0
2024-09-27 23:43:47			0	37540	0	0	0	23371	21940	162323	27322	1059542	46476	108613	0	0	8159	578171	0	0
2024-09-27 23:44:47			0	37537	0	0	0	23371	21940	162267	27090	1059568	46476	108613	0	0	8159	578293	0	0
2024-09-27 23:45:47			0	37536	0	0	0	23376	21950	162367	27124	1059631	46488	108615	0	0	8159	578301	0	0
2024-09-27 23:46:47			0	37516	0	0	0	23373	21940	162443	27265	1059533	46475	108614	0	0	8157	579143	0	0
2024-09-27 23:47:47			0	37515	0	0	0	23368	21950	162347	27227	1059586	46477	108612	0	0	8158	579151	0	0
2024-09-27 23:48:47			0	37509	0	0	0	23368	21940	162495	27315	1059542	46454	108612	0	0	8157	579427	0	0
2024-09-27 23:49:47			0	37502	0	0	0	23376	21950	162527	27374	1059551	46477	108615	0	0	8157	579678	0	0
2024-09-27 23:50:47			0	37494	0	0	0	23366	21940	162499	26963	1059622	46476	108611	0	0	8156	580035	0	0
2024-09-27 23:51:47			0	37474	0	0	0	23366	21950	162507	27293	1059577	46477	108611	0	0	8155	580814	0	0
2024-09-27 23:52:47			0	37478	0	0	0	23366	21940	162603	27182	1059506	46486	108611	0	0	8155	580684	0	0
2024-09-27 23:53:47			0	37461	0	0	0	23355	21940	162547	27355	1059488	46443	108607	0	0	8155	581374	0	0
2024-09-27 23:54:47			0	37466	0	0	0	23361	21950	162655	27078	1059524	46477	108609	0	0	8155	581139	0	0
2024-09-27 23:55:47			0	37458	0	0	0	23366	21940	162655	27211	1059559	46486	108611	0	0	8154	581496	0	0
2024-09-27 23:56:47			0	37468	0	0	0	23366	21940	162575	27092	1059542	46465	108611	0	0	8155	581090	0	0
2024-09-27 23:57:47			0	37439	0	0	0	23366	21940	162695	26982	1059515	46487	108611	0	0	8153	582268	0	0
2024-09-27 23:58:47			0	37457	0	0	0	23366	21940	162699	27048	1059542	46476	108611	0	0	8154	581537	0	0
2024-09-27 23:59:47			0	37451	0	0	0	23361	21940	162723	27182	1059542	46487	108609	0	0	8154	581780	0	0
2024-09-28 00:00:47			0	37453	0	0	0	23366	21950	162703	26972	1059551	46488	108611	0	0	8154	581667	0	0
2024-09-28 00:01:47			0	37448	0	0	0	23366	21940	162675	27145	1059488	46487	108611	0	0	8154	581902	0	0
2024-09-28 00:02:47			0	37451	0	0	0	23363	21950	162727	27310	1059533	46477	108610	0	0	8154	581748	0	0
2024-09-28 00:03:47			0	37443	0	0	0	23368	21940	162683	27138	1059462	46487	108612	0	0	8153	582105	0	0
2024-09-28 00:04:47			0	37437	0	0	0	23368	21930	162815	27220	1059488	46486	108612	0	0	8153	582382	0	0
2024-09-28 00:05:47			0	37445	0	0	0	23363	21950	162715	27279	1059524	46499	108610	0	0	8153	581992	0	0
2024-09-28 00:06:47			0	37438	0	0	0	23361	21930	162747	27267	1059524	46475	108609	0	0	8153	582341	0	0
2024-09-28 00:07:47			0	37439	0	0	0	23363	21950	162763	27407	1059524	46466	108610	0	0	8153	582236	0	0
2024-09-28 00:08:47			0	37448	0	0	0	23361	21940	162815	27281	1059559	46475	108609	0	0	8154	581902	0	0
2024-09-28 00:09:47			0	37441	0	0	0	23363	21940	162811	27315	1059533	46475	108610	0	0	8153	582187	0	0
2024-09-28 00:10:47			0	37449	0	0	0	23353	21940	162695	27201	1059559	46475	108606	0	0	8154	581862	0	0
2024-09-28 00:11:47			0	37450	0	0	0	23361	21940	162667	27284	1059542	46487	108609	0	0	8154	581821	0	0
2024-09-28 00:12:47			0	37442	0	0	0	23358	21930	162751	27258	1059550	46475	108608	0	0	8153	582179	0	0
2024-09-28 00:13:47			0	37429	0	0	0	23368	21940	162795	27130	1059559	46497	108612	0	0	8152	582675	0	0
2024-09-28 00:14:47			0	37444	0	0	0	23366	21940	162807	27081	1059479	46486	108611	0	0	8153	582065	0	0
2024-09-28 00:15:47			0	37427	0	0	0	23363	21940	162731	27171	1059479	46486	108610	0	0	8152	582756	0	0
2024-09-28 00:16:47			0	37416	0	0	0	23363	21940	162835	26920	1059479	46486	108610	0	0	8152	583204	0	0
2024-09-28 00:17:47			0	37427	0	0	0	23363	21930	162843	26809	1059444	46463	108610	0	0	8152	582789	0	0
2024-09-28 00:18:47			0	37428	0	0	0	23366	21940	162795	27166	1059488	46476	108611	0	0	8152	582715	0	0
2024-09-28 00:19:47			0	37433	0	0	0	23361	21940	162727	27211	1059533	46463	108609	0	0	8153	582512	0	0
2024-09-28 00:20:47			0	37410	0	0	0	23363	21930	162795	27069	1059497	46475	108610	0	0	8151	583481	0	0
2024-09-28 00:21:47			0	37409	0	0	0	23368	21940	162843	27124	1059515	46476	108612	0	0	8151	583489	0	0
2024-09-28 00:22:47			0	37404	0	0	0	23363	21940	162827	27057	1059506	46475	108610	0	0	8151	583692	0	0
2024-09-28 00:23:47			0	37402	0	0	0	23363	21930	162835	26875	1059497	46475	108610	0	0	8151	583806	0	0
2024-09-28 00:24:47			0	37404	0	0	0	23358	21940	162895	26772	1059506	46475	108608	0	0	8151	583692	0	0
2024-09-28 00:25:47			0	37399	0	0	0	23358	21940	162951	27095	1059488	46487	108608	0	0	8151	583896	0	0
2024-09-28 00:26:47			0	37392	0	0	0	23363	21940	162967	26984	1059462	46465	108610	0	0	8150	584181	0	0
2024-09-28 00:27:47			0	37392	0	0	0	23353	21930	162983	27066	1059470	46475	108606	0	0	8150	584214	0	0
2024-09-28 00:28:47			0	37390	0	0	0	23350	21940	162983	26880	1059479	46475	108605	0	0	8150	584263	0	0
2024-09-28 00:29:47			0	37383	0	0	0	23353	21930	162967	27022	1059444	46475	108606	0	0	8150	584580	0	0
2024-09-28 00:30:47			0	37372	0	0	0	23350	21940	162963	27246	1059479	46475	108605	0	0	8149	584996	0	0
2024-09-28 00:31:47			0	37380	0	0	0	23348	21930	163019	26857	1059470	46486	108604	0	0	8150	584703	0	0
2024-09-28 00:32:47			0	37381	0	0	0	23350	21930	162875	27196	1059435	46486	108605	0	0	8150	584662	0	0
2024-09-28 00:33:47			0	37370	0	0	0	23353	21930	162939	27147	1059417	46475	108606	0	0	8149	585111	0	0
2024-09-28 00:34:47			0	37370	0	0	0	23348	21930	163119	27150	1059461	46486	108604	0	0	8149	585111	0	0
2024-09-28 00:35:47			0	37359	0	0	0	23345	21920	163067	27176	1059443	46461	108603	0	0	8149	585592	0	0
2024-09-28 00:36:47			0	37351	0	0	0	23353	21930	163071	27275	1059435	46475	108606	0	0	8148	585886	0	0
2024-09-28 00:37:47			0	37348	0	0	0	23355	21930	163187	27279	1059461	46486	108607	0	0	8148	586008	0	0
2024-09-28 00:38:47			0	37325	0	0	0	23355	21920	163139	27550	1059506	46474	108607	0	0	8146	586980	0	0
2024-09-28 00:39:47			0	37332	0	0	0	23353	21930	163159	27280	1059461	46475	108606	0	0	8147	586662	0	0
2024-09-28 00:40:47			0	37349	0	0	0	23361	21930	163155	27192	1059417	46486	108609	0	0	8148	585968	0	0
2024-09-28 00:41:47			0	37351	0	0	0	23350	21930	163155	26890	1059497	46486	108605	0	0	8148	585886	0	0
2024-09-28 00:42:47			0	37345	0	0	0	23348	21930	163151	26833	1059435	46486	108604	0	0	8148	586131	0	0
2024-09-28 00:43:47			0	37353	0	0	0	23361	21930	163219	26868	1059470	46475	108609	0	0	8148	585804	0	0
2024-09-28 00:44:47			0	37347	0	0	0	23353	21920	163159	27105	1059452	46474	108606	0	0	8148	586082	0	0
2024-09-28 00:45:47			0	37350	0	0	0	23350	21930	163159	26694	1059470	46486	108605	0	0	8148	585927	0	0
2024-09-28 00:46:47			0	37358	0	0	0	23355	21920	163107	26941	1059426	46474	108607	0	0	8148	585633	0	0
2024-09-28 00:47:47			0	37341	0	0	0	23355	21920	163111	27140	1059479	46462	108607	0	0	8147	586327	0	0
2024-09-28 00:48:47			0	37342	0	0	0	23353	21930	163131	26998	1059444	46475	108606	0	0	8147	586253	0	0
2024-09-28 00:49:47			0	37346	0	0	0	23355	21920	163163	27114	1059479	46474	108607	0	0	8148	586123	0	0
2024-09-28 00:50:47			0	37336	0	0	0	23350	21920	163187	27133	1059479	46474	108605	0	0	8147	586531	0	0
2024-09-28 00:51:47			0	37339	0	0	0	23345	21940	163107	27374	1059462	46487	108603	0	0	8147	586343	0	0
2024-09-28 00:52:47			0	37331	0	0	0	23350	21930	163239	27239	1059461	46475	108605	0	0	8147	586703	0	0
2024-09-28 00:53:47			0	37309	0	0	0	23348	21920	163170	27027	1059479	46474	108604	0	0	8146	587635	0	0
2024-09-28 00:54:47			0	37333	0	0	0	23348	21930	163171	26902	1059461	46475	108604	0	0	8147	586621	0	0
2024-09-28 00:55:47			0	37321	0	0	0	23350	21920	163307	26942	1059479	46485	108605	0	0	8146	587144	0	0
2024-09-28 00:56:47			0	37310	0	0	0	23345	21930	163266	27137	1059461	46497	108603	0	0	8146	587561	0	0
2024-09-28 00:57:47			0	37317	0	0	0	23353	21930	163251	27403	1059381	46486	108606	0	0	8146	587275	0	0
2024-09-28 00:58:47			0	37336	0	0	0	23353	21930	163243	27303	1059461	46475	108606	0	0	8147	586498	0	0
2024-09-28 00:59:47			0	37319	0	0	0	23353	21920	163074	26890	1059390	46484	108606	0	0	8146	587226	0	0
2024-09-28 01:00:47			0	37335	0	0	0	23353	21930	163215	26826	1059461	46475	108606	0	0	8147	586539	0	0
2024-09-28 01:01:47			0	37321	0	0	0	23350	21920	163219	26838	1059390	46484	108605	0	0	8146	587144	0	0
2024-09-28 01:02:47			0	37331	0	0	0	23350	21920	163295	27116	1059479	46474	108605	0	0	8147	586735	0	0
2024-09-28 01:03:47			0	37332	0	0	0	23361	21920	163207	26970	1059452	46485	108609	0	0	8147	586694	0	0
2024-09-28 01:04:47			0	37315	0	0	0	23350	21920	163243	26960	1059452	46474	108605	0	0	8146	587389	0	0
2024-09-28 01:05:47			0	37310	0	0	0	23350	21920	163302	27263	1059426	46485	108605	0	0	8146	587594	0	0
2024-09-28 01:06:47			0	37325	0	0	0	23348	21920	163303	27105	1059443	46473	108604	0	0	8146	586980	0	0
2024-09-28 01:07:47			0	37297	0	0	0	23353	21930	163258	27239	1059461	46497	108606	0	0	8145	588093	0	0
2024-09-28 01:08:47			0	37296	0	0	0	23353	21930	163238	27163	1059435	46463	108606	0	0	8145	588134	0	0
2024-09-28 01:09:47			0	37297	0	0	0	23348	21920	163338	27230	1059426	46474	108604	0	0	8145	588126	0	0
2024-09-28 01:10:47			0	37309	0	0	0	23353	21920	163266	26939	1059426	46474	108606	0	0	8145	587635	0	0
2024-09-28 01:11:47			0	37282	0	0	0	23353	21920	163294	27142	1059443	46484	108606	0	0	8144	588740	0	0
2024-09-28 01:12:47			0	37304	0	0	0	23353	21930	163370	27142	1059497	46497	108606	0	0	8145	587806	0	0
2024-09-28 01:13:47			0	37308	0	0	0	23355	21920	163282	27613	1059470	46495	108607	0	0	8145	587676	0	0
2024-09-28 01:14:47			0	37306	0	0	0	23348	21920	163398	27135	1059399	46485	108604	0	0	8145	587758	0	0
2024-09-28 01:15:47			0	37303	0	0	0	23340	21920	163334	27286	1059417	46484	108601	0	0	8145	587880	0	0
2024-09-28 01:16:47			0	37276	0	0	0	23348	21920	163318	27345	1059452	46485	108604	0	0	8144	588986	0	0
2024-09-28 01:17:47			0	37294	0	0	0	23348	21930	163382	27008	1059435	46486	108604	0	0	8145	588216	0	0
2024-09-28 01:18:47			0	37300	0	0	0	23345	21930	163374	27149	1059435	46486	108603	0	0	8145	587970	0	0
2024-09-28 01:19:47			0	37270	0	0	0	23350	21920	163474	26977	1059426	46462	108605	0	0	8143	589231	0	0
2024-09-28 01:20:47			0	37281	0	0	0	23348	21920	163378	27365	1059417	46461	108604	0	0	8144	588781	0	0
2024-09-28 01:21:47			0	37269	0	0	0	23353	21930	163494	27390	1059515	46475	108606	0	0	8143	589240	0	0
2024-09-28 01:22:47			0	37263	0	0	0	23358	21930	163490	27434	1059408	46475	108608	0	0	8143	589485	0	0
2024-09-28 01:23:47			0	37279	0	0	0	23345	21930	163462	27424	1059461	46475	108603	0	0	8144	588830	0	0
2024-09-28 01:24:47			0	37291	0	0	0	23353	21920	163386	27038	1059479	46474	108606	0	0	8144	588371	0	0
2024-09-28 01:25:47			0	37278	0	0	0	23350	21920	163366	27315	1059417	46484	108605	0	0	8144	588904	0	0
2024-09-28 01:26:47			0	37282	0	0	0	23345	21920	163546	27225	1059426	46485	108603	0	0	8144	588740	0	0
2024-09-28 01:27:47			0	37259	0	0	0	23350	21930	163518	27511	1059515	46475	108605	0	0	8143	589649	0	0
2024-09-28 01:28:47			0	37270	0	0	0	23348	21910	163506	27310	1059408	46473	108604	0	0	8143	589264	0	0
2024-09-28 01:29:47			0	37275	0	0	0	23348	21920	163450	27090	1059417	46473	108604	0	0	8144	589026	0	0
2024-09-28 01:30:47			0	37274	0	0	0	23348	21930	163438	27111	1059381	46497	108604	0	0	8143	589035	0	0
2024-09-28 01:31:47			0	37277	0	0	0	23345	21920	163422	27105	1059479	46485	108603	0	0	8144	588945	0	0
2024-09-28 01:32:47			0	37273	0	0	0	23345	21930	163534	26847	1059435	46486	108603	0	0	8143	589076	0	0
2024-09-28 01:33:47			0	37272	0	0	0	23337	21920	163502	26930	1059443	46473	108600	0	0	8144	589149	0	0
2024-09-28 01:34:47			0	37274	0	0	0	23342	21920	163550	27128	1059417	46473	108602	0	0	8144	589068	0	0
2024-09-28 01:35:47			0	37272	0	0	0	23337	21930	163538	27308	1059435	46475	108600	0	0	8144	589117	0	0
2024-09-28 01:36:47			0	37267	0	0	0	23345	21920	163538	27012	1059417	46484	108603	0	0	8143	589354	0	0
2024-09-28 01:37:47			0	37254	0	0	0	23342	21930	163558	26887	1059355	46486	108602	0	0	8142	589854	0	0
2024-09-28 01:38:47			0	37247	0	0	0	23337	21910	163614	27119	1059408	46484	108600	0	0	8142	590207	0	0
2024-09-28 01:39:47			0	37247	0	0	0	23342	21920	163566	27364	1059372	46474	108602	0	0	8142	590174	0	0
2024-09-28 01:40:47			0	37247	0	0	0	23340	21920	163586	27402	1059390	46461	108601	0	0	8142	590174	0	0
2024-09-28 01:41:47			0	37272	0	0	0	23335	21910	163590	26968	1059381	46473	108599	0	0	8144	589182	0	0
2024-09-28 01:42:47			0	37237	0	0	0	23332	21910	163590	27039	1059355	46473	108598	0	0	8141	590618	0	0
2024-09-28 01:43:47			0	37207	0	0	0	23329	21910	163714	27197	1059381	46484	108597	0	0	8140	591850	0	0
2024-09-28 01:44:47			0	37213	0	0	0	23316	21910	163774	27180	1059355	46473	108592	0	0	8140	591603	0	0
2024-09-28 01:45:47			0	37164	0	0	0	23327	21910	163926	27353	1059408	46473	108596	0	0	8137	593618	0	0
2024-09-28 01:46:47			0	37165	0	0	0	23329	21900	164054	27154	1059417	46472	108597	0	0	8137	593610	0	0
2024-09-28 01:47:47			0	37173	0	0	0	23324	21910	163898	27308	1059408	46484	108595	0	0	8138	593248	0	0
2024-09-28 01:48:47			0	37176	0	0	0	23327	21910	163922	27260	1059372	46483	108596	0	0	8138	593125	0	0
2024-09-28 01:49:47			0	37172	0	0	0	23329	21910	164010	27053	1059346	46483	108597	0	0	8138	593289	0	0
2024-09-28 01:50:47			0	37148	0	0	0	23329	21910	164014	27308	1059319	46494	108597	0	0	8136	594278	0	0
2024-09-28 01:51:47			0	37150	0	0	0	23324	21900	163934	27308	1059310	46472	108595	0	0	8136	594228	0	0
2024-09-28 01:52:47			0	37211	0	0	0	23332	21910	163782	26998	1059372	46472	108598	0	0	8140	591685	0	0
2024-09-28 01:53:47			0	37276	0	0	0	23324	21910	163498	27203	1059372	46472	108595	0	0	8144	589018	0	0
2024-09-28 01:54:47			0	37287	0	0	0	23322	21900	163486	27479	1059310	46483	108594	0	0	8145	588601	0	0
2024-09-28 01:55:47			0	37283	0	0	0	23327	21910	163478	27232	1059319	46494	108596	0	0	8144	588732	0	0
2024-09-28 01:56:47			0	37337	0	0	0	23340	21910	163267	27284	1059346	46460	108601	0	0	8147	586523	0	0
2024-09-28 01:57:47			0	37382	0	0	0	23332	21910	163063	27218	1059346	46472	108598	0	0	8150	584686	0	0
2024-09-28 01:58:47			0	37363	0	0	0	23332	21910	163107	27012	1059346	46472	108598	0	0	8149	585461	0	0
2024-09-28 01:59:47			0	37374	0	0	0	23327	21910	162927	26982	1059355	46484	108596	0	0	8150	585013	0	0
2024-09-28 02:00:47			0	37435	0	0	0	23335	21900	162807	27246	1059363	46494	108599	0	0	8153	582561	0	0
2024-09-28 02:01:47			0	37474	0	0	0	23329	21910	162707	26902	1059381	46495	108597	0	0	8156	580944	0	0
2024-09-28 02:02:47			0	37464	0	0	0	23335	21910	162591	27038	1059399	46494	108599	0	0	8155	581350	0	0
2024-09-28 02:03:47			0	37532	0	0	0	23340	21910	162451	27145	1059372	46460	108601	0	0	8159	578592	0	0
2024-09-28 02:04:47			0	37472	0	0	0	23335	21900	162527	27282	1059363	46472	108599	0	0	8155	581057	0	0
2024-09-28 02:05:47			0	37524	0	0	0	23340	21920	162535	27315	1059443	46484	108601	0	0	8158	578884	0	0
2024-09-28 02:06:47			0	37570	0	0	0	23337	21910	162195	27197	1059372	46472	108600	0	0	8161	577054	0	0
2024-09-28 02:07:47			0	37575	0	0	0	23342	21920	162119	27220	1059363	46484	108602	0	0	8161	576820	0	0
2024-09-28 02:08:47			0	37596	0	0	0	23340	21900	162055	27213	1059417	46483	108601	0	0	8163	576036	0	0
2024-09-28 02:09:47			0	37603	0	0	0	23337	21910	161975	26994	1059399	46472	108600	0	0	8163	575722	0	0
2024-09-28 02:10:47			0	37619	0	0	0	23340	21910	162031	26899	1059381	46495	108601	0	0	8164	575076	0	0
2024-09-28 02:11:47			0	37647	0	0	0	23335	21910	161831	27086	1059408	46473	108599	0	0	8166	573948	0	0
2024-09-28 02:12:47			0	37698	0	0	0	23350	21910	161743	27317	1059399	46483	108605	0	0	8168	571895	0	0
2024-09-28 02:13:47			0	37710	0	0	0	23324	21910	161639	27220	1059408	46473	108595	0	0	8170	571413	0	0
2024-09-28 02:14:47			0	37601	0	0	0	23314	21910	162103	27255	1059408	46473	108591	0	0	8163	575802	0	0
2024-09-28 02:15:47			0	37541	0	0	0	23324	21910	162299	27057	1059372	46472	108595	0	0	8160	578227	0	0
2024-09-28 02:16:47			0	37581	0	0	0	23335	21910	162103	26977	1059328	46473	108599	0	0	8162	576610	0	0
2024-09-28 02:17:47			0	37601	0	0	0	23342	21900	162083	27066	1059328	46471	108602	0	0	8163	575834	0	0
2024-09-28 02:18:47			0	37578	0	0	0	23342	21910	162139	27308	1059461	46473	108602	0	0	8162	576731	0	0
2024-09-28 02:19:47			0	37597	0	0	0	23327	21910	162119	27196	1059381	46484	108596	0	0	8163	575964	0	0
2024-09-28 02:20:47			0	37535	0	0	0	23322	21910	162343	27237	1059399	46460	108594	0	0	8159	578470	0	0
2024-09-28 02:21:47			0	37493	0	0	0	23322	21900	162571	27351	1059363	46472	108594	0	0	8157	580205	0	0
2024-09-28 02:22:47			0	37500	0	0	0	23332	21910	162587	26989	1059381	46473	108598	0	0	8157	579888	0	0
2024-09-28 02:23:47			0	37521	0	0	0	23340	21910	162471	27013	1059408	46473	108601	0	0	8158	579037	0	0
2024-09-28 02:24:47			0	37570	0	0	0	23332	21910	162283	27351	1059372	46494	108598	0	0	8161	577054	0	0
2024-09-28 02:25:47			0	37556	0	0	0	23327	21910	162303	27104	1059426	46472	108596	0	0	8160	577621	0	0
2024-09-28 02:26:47			0	37557	0	0	0	23327	21910	162323	27312	1059372	46472	108596	0	0	8161	577580	0	0
2024-09-28 02:27:47			0	37510	0	0	0	23314	21910	162335	27345	1059381	46473	108591	0	0	8158	579483	0	0
2024-09-28 02:28:47			0	37493	0	0	0	23324	21910	162531	27185	1059372	46472	108595	0	0	8157	580172	0	0
2024-09-28 02:29:47			0	37508	0	0	0	23327	21900	162547	27268	1059408	46482	108596	0	0	8158	579596	0	0
2024-09-28 02:30:47			0	37570	0	0	0	23340	21900	162255	27157	1059337	46483	108601	0	0	8161	577087	0	0
2024-09-28 02:31:47			0	37660	0	0	0	23337	21910	161911	27313	1059426	46483	108600	0	0	8166	573424	0	0
2024-09-28 02:32:47			0	37706	0	0	0	23350	21910	161687	27353	1059426	46472	108605	0	0	8169	571574	0	0
2024-09-28 02:33:47			0	37778	0	0	0	23345	21910	161527	27052	1059408	46461	108603	0	0	8173	568686	0	0
2024-09-28 02:34:47			0	37793	0	0	0	23348	21910	161251	27320	1059461	46495	108604	0	0	8174	568086	0	0
2024-09-28 02:35:47			0	37827	0	0	0	23345	21900	161299	27422	1059390	46483	108603	0	0	8176	566758	0	0
2024-09-28 02:36:47			0	37797	0	0	0	23332	21910	161219	27242	1059408	46461	108598	0	0	8175	567926	0	0
2024-09-28 02:37:47			0	37774	0	0	0	23329	21920	161399	27187	1059417	46484	108597	0	0	8173	568815	0	0
2024-09-28 02:38:47			0	37739	0	0	0	23332	21910	161639	27088	1059381	46484	108598	0	0	8171	570249	0	0
2024-09-28 02:39:47			0	37714	0	0	0	23324	21910	161691	27379	1059381	46473	108595	0	0	8170	571253	0	0
2024-09-28 02:40:47			0	37720	0	0	0	23329	21910	161707	27282	1059355	46473	108597	0	0	8170	571012	0	0
2024-09-28 02:41:47			0	37744	0	0	0	23327	21920	161591	27072	1059372	46496	108596	0	0	8172	570017	0	0
2024-09-28 02:42:47			0	37794	0	0	0	23327	21910	161299	27211	1059381	46484	108596	0	0	8175	568046	0	0
2024-09-28 02:43:47			0	37818	0	0	0	23332	21910	161291	27405	1059381	46495	108598	0	0	8176	567086	0	0
2024-09-28 02:44:47			0	37872	0	0	0	23332	21910	161083	27466	1059372	46472	108598	0	0	8179	564930	0	0
2024-09-28 02:45:47			0	37892	0	0	0	23332	21910	160975	27095	1059408	46484	108598	0	0	8180	564133	0	0
2024-09-28 02:46:47			0	37904	0	0	0	23329	21910	160943	27322	1059372	46472	108597	0	0	8181	563655	0	0
2024-09-28 02:47:47			0	37884	0	0	0	23329	21900	160975	27407	1059363	46483	108597	0	0	8180	564483	0	0
2024-09-28 02:48:47			0	37902	0	0	0	23324	21910	161019	27393	1059408	46484	108595	0	0	8181	563735	0	0
2024-09-28 02:49:47			0	37850	0	0	0	23322	21910	161071	27383	1059266	46483	108594	0	0	8178	565808	0	0
2024-09-28 02:50:47			0	37841	0	0	0	23314	21910	161179	27390	1059399	46483	108591	0	0	8177	566167	0	0
2024-09-28 02:51:47			0	37853	0	0	0	23314	21900	161155	27540	1059381	46482	108591	0	0	8178	565720	0	0
2024-09-28 02:52:47			0	37876	0	0	0	23309	21910	161067	27227	1059355	46473	108589	0	0	8180	564771	0	0
2024-09-28 02:53:47			0	37894	0	0	0	23296	21900	160939	27246	1059328	46471	108584	0	0	8181	564085	0	0
2024-09-28 02:54:47			0	37906	0	0	0	23309	21900	160867	27171	1059337	46483	108589	0	0	8181	563607	0	0
2024-09-28 02:55:47			0	37901	0	0	0	23298	21890	160683	27322	1059265	46470	108585	0	0	8181	563837	0	0
2024-09-28 02:56:47			0	37935	0	0	0	23290	21890	160679	27331	1059283	46470	108582	0	0	8183	562484	0	0
2024-09-28 02:57:47			0	37921	0	0	0	23275	21880	160755	27128	1059221	46448	108576	0	0	8183	563073	0	0
2024-09-28 02:58:47			0	37922	0	0	0	23267	21890	160747	27339	1059176	46481	108573	0	0	8183	563001	0	0
2024-09-28 02:59:47			0	37920	0	0	0	23264	21880	160683	27353	1059221	46458	108572	0	0	8183	563112	0	0
2024-09-28 03:00:47			0	37921	0	0	0	23257	21880	160807	26894	1059132	46469	108569	0	0	8183	563073	0	0
2024-09-28 03:01:47			0	37919	0	0	0	23259	21870	160791	27298	1059167	46446	108570	0	0	8183	563184	0	0
2024-09-28 03:02:47			0	37908	0	0	0	23267	21870	160911	26987	1059070	46457	108573	0	0	8182	563621	0	0
2024-09-28 03:03:47			0	37911	0	0	0	23254	21860	160811	27239	1059078	46468	108568	0	0	8182	563533	0	0
2024-09-28 03:04:47			0	37930	0	0	0	23236	21860	160883	27412	1059105	46457	108561	0	0	8184	562777	0	0
2024-09-28 03:05:47			0	37921	0	0	0	23241	21860	160803	27362	1059043	46456	108563	0	0	8183	563135	0	0
2024-09-28 03:06:47			0	37930	0	0	0	23241	21850	160759	27327	1058998	46444	108563	0	0	8184	562808	0	0
2024-09-28 03:07:47			0	37930	0	0	0	23241	21850	160767	27175	1059051	46466	108563	0	0	8184	562808	0	0
2024-09-28 03:08:47			0	37952	0	0	0	23244	21840	160855	27253	1058980	46465	108564	0	0	8185	561965	0	0
2024-09-28 03:09:47			0	37946	0	0	0	23236	21840	160723	27105	1059007	46454	108561	0	0	8185	562204	0	0
2024-09-28 03:10:47			0	37955	0	0	0	23228	21840	160771	27324	1059016	46476	108558	0	0	8185	561846	0	0
2024-09-28 03:11:47			0	37993	0	0	0	23238	21830	160611	27156	1058989	46464	108562	0	0	8187	560368	0	0
2024-09-28 03:12:47			0	37989	0	0	0	23238	21840	160539	27114	1059033	46476	108562	0	0	8187	560496	0	0
2024-09-28 03:13:47			0	38020	0	0	0	23233	21830	160375	27251	1058882	46453	108560	0	0	8189	559297	0	0
2024-09-28 03:14:47			0	38035	0	0	0	23236	21830	160424	27332	1058989	46475	108561	0	0	8190	558703	0	0
2024-09-28 03:15:47			0	38072	0	0	0	23231	21830	160316	27346	1058971	46475	108559	0	0	8192	557239	0	0
2024-09-28 03:16:47			0	38065	0	0	0	23238	21820	160216	27157	1059006	46474	108562	0	0	8192	557547	0	0
2024-09-28 03:17:47			0	38070	0	0	0	23228	21830	160224	27161	1058962	46464	108558	0	0	8192	557318	0	0
2024-09-28 03:18:47			0	38110	0	0	0	23231	21830	160164	27109	1059051	46475	108559	0	0	8194	555738	0	0
2024-09-28 03:19:47			0	38099	0	0	0	23228	21830	160044	27203	1058935	46464	108558	0	0	8194	556172	0	0
2024-09-28 03:20:47			0	38128	0	0	0	23223	21820	160016	27215	1058837	46452	108556	0	0	8195	555059	0	0
2024-09-28 03:21:47			0	38157	0	0	0	23212	21820	159884	27213	1058926	46474	108552	0	0	8197	553916	0	0
2024-09-28 03:22:47			0	38158	0	0	0	23215	21810	159924	27235	1058908	46473	108553	0	0	8197	553907	0	0
2024-09-28 03:23:47			0	38155	0	0	0	23228	21820	159884	27351	1058846	46463	108558	0	0	8197	553994	0	0
2024-09-28 03:24:47			0	38187	0	0	0	23218	21810	159776	27187	1058855	46473	108554	0	0	8199	552766	0	0
2024-09-28 03:25:47			0	38208	0	0	0	23218	21810	159696	27261	1058855	46473	108554	0	0	8200	551940	0	0
2024-09-28 03:26:47			0	38215	0	0	0	23220	21810	159636	27381	1058846	46461	108555	0	0	8201	551665	0	0
2024-09-28 03:27:47			0	38234	0	0	0	23231	21810	159644	27479	1058846	46472	108559	0	0	8201	550918	0	0
2024-09-28 03:28:47			0	38232	0	0	0	23215	21810	159664	27438	1058926	46472	108553	0	0	8202	550997	0	0
2024-09-28 03:29:47			0	38254	0	0	0	23215	21800	159604	27128	1058810	46483	108553	0	0	8203	550164	0	0
2024-09-28 03:30:47			0	38261	0	0	0	23215	21810	159464	27050	1058819	46461	108553	0	0	8203	549859	0	0
2024-09-28 03:31:47			0	38273	0	0	0	23218	21800	159464	27066	1058810	46461	108554	0	0	8204	549419	0	0
2024-09-28 03:32:47			0	38301	0	0	0	23202	21800	159384	27358	1058837	46472	108548	0	0	8206	548323	0	0
2024-09-28 03:33:47			0	38310	0	0	0	23220	21800	159404	27163	1058855	46482	108555	0	0	8206	547970	0	0
2024-09-28 03:34:47			0	38322	0	0	0	23228	21800	159396	27383	1058801	46449	108558	0	0	8207	547501	0	0
2024-09-28 03:35:47			0	38320	0	0	0	23228	21810	159352	27495	1058873	46461	108558	0	0	8207	547549	0	0
2024-09-28 03:36:47			0	38328	0	0	0	23225	21800	159296	27204	1058828	46459	108557	0	0	8207	547266	0	0
2024-09-28 03:37:47			0	38332	0	0	0	23218	21810	159276	27438	1058899	46461	108554	0	0	8207	547079	0	0
2024-09-28 03:38:47			0	38339	0	0	0	23215	21810	159360	27003	1058953	46461	108553	0	0	8208	546806	0	0
2024-09-28 03:39:47			0	38325	0	0	0	23218	21800	159248	27327	1058828	46471	108554	0	0	8207	547384	0	0
2024-09-28 03:40:47			0	38340	0	0	0	23212	21800	159204	27253	1058810	46472	108552	0	0	8208	546797	0	0
2024-09-28 03:41:47			0	38356	0	0	0	23215	21810	159260	27331	1058819	46461	108553	0	0	8209	546142	0	0
2024-09-28 03:42:47			0	38388	0	0	0	23223	21800	159148	27263	1058757	46472	108556	0	0	8211	544924	0	0
2024-09-28 03:43:47			0	38388	0	0	0	23223	21800	159104	27144	1058855	46459	108556	0	0	8211	544924	0	0
2024-09-28 03:44:47			0	38388	0	0	0	23225	21800	158976	27199	1058775	46471	108557	0	0	8210	544924	0	0
2024-09-28 03:45:47			0	38394	0	0	0	23225	21800	158972	27268	1058908	46482	108557	0	0	8211	544690	0	0
2024-09-28 03:46:47			0	38391	0	0	0	23215	21790	159132	27445	1058766	46471	108553	0	0	8211	544837	0	0
2024-09-28 03:47:47			0	38399	0	0	0	23210	21800	159084	27362	1058810	46472	108551	0	0	8211	544495	0	0
2024-09-28 03:48:47			0	38388	0	0	0	23218	21800	159036	27609	1058935	46471	108554	0	0	8211	544924	0	0
2024-09-28 03:49:47			0	38401	0	0	0	23218	21800	158980	27436	1058828	46482	108554	0	0	8211	544417	0	0
2024-09-28 03:50:47			0	38409	0	0	0	23218	21800	159016	27500	1058810	46472	108554	0	0	8212	544105	0	0
2024-09-28 03:51:47			0	38406	0	0	0	23212	21790	159012	27412	1058793	46471	108552	0	0	8212	544252	0	0
2024-09-28 03:52:47			0	38431	0	0	0	23218	21790	158932	27130	1058793	46449	108554	0	0	8213	543279	0	0
2024-09-28 03:53:47			0	38431	0	0	0	23212	21800	158924	27256	1058828	46471	108552	0	0	8213	543249	0	0
2024-09-28 03:54:47			0	38429	0	0	0	23215	21790	158888	27242	1058793	46471	108553	0	0	8213	543357	0	0
2024-09-28 03:55:47			0	38445	0	0	0	23210	21800	158792	27225	1058801	46459	108551	0	0	8214	542704	0	0
2024-09-28 03:56:47			0	38501	0	0	0	23207	21800	158692	27038	1058881	46459	108550	0	0	8217	540528	0	0
2024-09-28 03:57:47			0	38496	0	0	0	23215	21800	158664	27232	1058775	46459	108553	0	0	8217	540722	0	0
2024-09-28 03:58:47			0	38499	0	0	0	23215	21790	158680	27258	1058739	46482	108553	0	0	8217	540636	0	0
2024-09-28 03:59:47			0	38487	0	0	0	23218	21800	158616	27495	1058855	46471	108554	0	0	8216	541072	0	0
2024-09-28 04:00:47			0	38486	0	0	0	23210	21800	158716	27315	1058944	46472	108551	0	0	8216	541110	0	0
2024-09-28 04:01:47			0	38486	0	0	0	23207	21790	158644	26979	1058766	46459	108550	0	0	8216	541141	0	0
2024-09-28 04:02:47			0	38487	0	0	0	23207	21800	158704	27150	1058828	46482	108550	0	0	8217	541072	0	0
2024-09-28 04:03:47			0	38504	0	0	0	23210	21790	158596	27443	1058757	46470	108551	0	0	8217	540442	0	0
2024-09-28 04:04:47			0	38484	0	0	0	23210	21790	158500	27355	1058819	46471	108551	0	0	8216	541218	0	0
2024-09-28 04:05:47			0	38500	0	0	0	23207	21800	158560	27225	1058828	46471	108550	0	0	8217	540567	0	0
2024-09-28 04:06:47			0	38488	0	0	0	23207	21790	158620	27083	1058810	46459	108550	0	0	8217	541063	0	0
2024-09-28 04:07:47			0	38476	0	0	0	23212	21800	158608	27225	1058828	46482	108552	0	0	8216	541499	0	0
2024-09-28 04:08:47			0	38479	0	0	0	23199	21790	158684	27194	1058793	46459	108547	0	0	8216	541413	0	0
2024-09-28 04:09:47			0	38483	0	0	0	23202	21790	158552	27364	1058757	46459	108548	0	0	8216	541257	0	0
2024-09-28 04:10:47			0	38493	0	0	0	23210	21800	158544	27112	1058748	46471	108551	0	0	8217	540839	0	0
2024-09-28 04:11:47			0	38488	0	0	0	23205	21790	158556	27104	1058793	46459	108549	0	0	8217	541063	0	0
2024-09-28 04:12:47			0	38500	0	0	0	23197	21790	158516	27452	1058713	46471	108546	0	0	8217	540597	0	0
2024-09-28 04:13:47			0	38502	0	0	0	23210	21800	158620	27267	1058748	46471	108551	0	0	8217	540490	0	0
2024-09-28 04:14:47			0	38502	0	0	0	23207	21790	158432	27293	1058793	46482	108550	0	0	8217	540520	0	0
2024-09-28 04:15:47			0	38481	0	0	0	23205	21770	158576	27124	1058783	46458	108549	0	0	8216	541395	0	0
2024-09-28 04:16:47			0	38489	0	0	0	23212	21790	158572	27131	1058784	46470	108552	0	0	8217	541024	0	0
2024-09-28 04:17:47			0	38484	0	0	0	23202	21790	158604	27412	1058810	46470	108548	0	0	8216	541218	0	0
2024-09-28 04:18:47			0	38489	0	0	0	23210	21780	158500	27163	1058775	46459	108551	0	0	8217	541054	0	0
2024-09-28 04:19:47			0	38493	0	0	0	23199	21790	158684	26965	1058873	46482	108547	0	0	8217	540869	0	0
2024-09-28 04:20:47			0	38484	0	0	0	23205	21790	158552	27374	1058766	46482	108549	0	0	8216	541218	0	0
2024-09-28 04:21:47			0	38484	0	0	0	23207	21790	158632	27083	1058739	46459	108550	0	0	8216	541218	0	0
2024-09-28 04:22:47			0	38475	0	0	0	23210	21800	158560	27228	1058757	46450	108551	0	0	8216	541538	0	0
2024-09-28 04:23:47			0	38467	0	0	0	23205	21790	158520	27319	1058899	46459	108549	0	0	8215	541879	0	0
2024-09-28 04:24:47			0	38475	0	0	0	23197	21790	158644	27237	1058757	46481	108546	0	0	8216	541568	0	0
2024-09-28 04:25:47			0	38475	0	0	0	23207	21790	158568	27201	1058793	46459	108550	0	0	8216	541568	0	0
2024-09-28 04:26:47			0	38482	0	0	0	23199	21780	158640	27192	1058801	46459	108547	0	0	8216	541326	0	0
2024-09-28 04:27:47			0	38484	0	0	0	23199	21790	158668	27326	1058766	46471	108547	0	0	8216	541218	0	0
2024-09-28 04:28:47			0	38493	0	0	0	23202	21770	158648	27256	1058757	46469	108548	0	0	8217	540929	0	0
2024-09-28 04:29:47			0	38472	0	0	0	23197	21790	158680	27105	1058819	46459	108546	0	0	8216	541684	0	0
2024-09-28 04:30:47			0	38480	0	0	0	23197	21790	158696	26965	1058757	46459	108546	0	0	8216	541374	0	0
2024-09-28 04:31:47			0	38486	0	0	0	23192	21790	158652	27268	1058730	46459	108544	0	0	8217	541141	0	0
2024-09-28 04:32:47			0	38475	0	0	0	23199	21770	158640	27199	1058757	46458	108547	0	0	8216	541628	0	0
2024-09-28 04:33:47			0	38482	0	0	0	23202	21790	158764	27377	1058784	46470	108548	0	0	8216	541296	0	0
2024-09-28 04:34:47			0	38471	0	0	0	23197	21780	158608	26982	1058739	46469	108546	0	0	8216	541753	0	0
2024-09-28 04:35:47			0	38477	0	0	0	23194	21780	158664	27282	1058775	46459	108545	0	0	8216	541520	0	0
2024-09-28 04:36:47			0	38476	0	0	0	23197	21790	158632	27310	1058757	46470	108546	0	0	8216	541529	0	0
2024-09-28 04:37:47			0	38488	0	0	0	23192	21780	158608	27623	1058801	46459	108544	0	0	8217	541093	0	0
2024-09-28 04:38:47			0	38495	0	0	0	23197	21780	158576	27338	1058659	46458	108546	0	0	8217	540821	0	0
2024-09-28 04:39:47			0	38488	0	0	0	23202	21770	158672	27126	1058703	46458	108548	0	0	8217	541123	0	0
2024-09-28 04:40:47			0	38497	0	0	0	23199	21770	158640	27182	1058694	46468	108547	0	0	8217	540774	0	0
2024-09-28 04:41:47			0	38476	0	0	0	23199	21770	158736	27377	1058730	46469	108547	0	0	8216	541589	0	0
2024-09-28 04:42:47			0	38483	0	0	0	23192	21770	158596	27170	1058694	46479	108544	0	0	8216	541317	0	0
2024-09-28 04:43:47			0	38483	0	0	0	23186	21770	158592	27060	1058730	46480	108542	0	0	8217	541317	0	0
2024-09-28 04:44:47			0	38488	0	0	0	23197	21770	158728	27123	1058757	46480	108546	0	0	8217	541123	0	0
2024-09-28 04:45:47			0	38497	0	0	0	23189	21770	158724	27192	1058703	46469	108543	0	0	8217	540774	0	0
2024-09-28 04:46:47			0	38493	0	0	0	23192	21770	158632	27322	1058748	46468	108544	0	0	8217	540929	0	0
2024-09-28 04:47:47			0	38486	0	0	0	23192	21770	158596	27150	1058730	46447	108544	0	0	8217	541201	0	0
2024-09-28 04:48:47			0	38488	0	0	0	23194	21770	158640	27131	1058668	46458	108545	0	0	8217	541123	0	0
2024-09-28 04:49:47			0	38485	0	0	0	23192	21770	158716	27495	1058757	46458	108544	0	0	8217	541240	0	0
2024-09-28 04:50:47			0	38481	0	0	0	23194	21770	158704	27322	1058668	46479	108545	0	0	8216	541395	0	0
2024-09-28 04:51:47			0	38473	0	0	0	23194	21790	158752	27431	1058730	46470	108545	0	0	8216	541646	0	0
2024-09-28 04:52:47			0	38475	0	0	0	23189	21760	158724	27244	1058819	46458	108543	0	0	8216	541658	0	0
2024-09-28 04:53:47			0	38478	0	0	0	23184	21760	158668	27173	1058686	46479	108541	0	0	8216	541542	0	0
2024-09-28 04:54:47			0	38490	0	0	0	23199	21770	158684	27315	1058730	46469	108547	0	0	8217	541046	0	0
2024-09-28 04:55:47			0	38490	0	0	0	23197	21770	158672	27261	1058694	46479	108546	0	0	8217	541046	0	0
2024-09-28 04:56:47			0	38504	0	0	0	23189	21770	158680	27095	1058721	46479	108543	0	0	8218	540502	0	0
2024-09-28 04:57:47			0	38498	0	0	0	23197	21770	158688	27147	1058694	46468	108546	0	0	8217	540735	0	0
2024-09-28 04:58:47			0	38481	0	0	0	23192	21770	158648	27315	1058757	46458	108544	0	0	8216	541395	0	0
2024-09-28 04:59:47			0	38482	0	0	0	23186	21770	158628	27241	1058721	46479	108542	0	0	8216	541356	0	0
2024-09-28 05:00:47			0	38474	0	0	0	23202	21770	158652	27015	1058748	46446	108548	0	0	8216	541667	0	0
2024-09-28 05:01:47			0	38473	0	0	0	23186	21770	158672	27246	1058783	46458	108542	0	0	8216	541706	0	0
2024-09-28 05:02:47			0	38488	0	0	0	23189	21760	158776	27265	1058677	46467	108543	0	0	8217	541153	0	0
2024-09-28 05:03:47			0	38491	0	0	0	23184	21760	158640	27426	1058712	46468	108541	0	0	8217	541037	0	0
2024-09-28 05:04:47			0	38482	0	0	0	23181	21770	158684	26953	1058748	46458	108540	0	0	8217	541356	0	0
2024-09-28 05:05:47			0	38473	0	0	0	23189	21760	158588	27147	1058686	46446	108543	0	0	8216	541736	0	0
2024-09-28 05:06:47			0	38460	0	0	0	23186	21760	158616	27005	1058659	46479	108542	0	0	8215	542241	0	0
2024-09-28 05:07:47			0	38478	0	0	0	23179	21770	158640	27256	1058703	46458	108539	0	0	8216	541512	0	0
2024-09-28 05:08:47			0	38489	0	0	0	23186	21770	158800	27097	1058668	46458	108542	0	0	8217	541085	0	0
2024-09-28 05:09:47			0	38461	0	0	0	23176	21760	158760	26934	1058686	46468	108538	0	0	8215	542202	0	0
2024-09-28 05:10:47			0	38473	0	0	0	23179	21760	158740	27116	1058712	46468	108539	0	0	8216	541736	0	0
2024-09-28 05:11:47			0	38465	0	0	0	23186	21770	158756	26797	1058694	46458	108542	0	0	8215	542017	0	0
2024-09-28 05:12:47			0	38473	0	0	0	23189	21760	158712	27008	1058712	46468	108543	0	0	8216	541736	0	0
2024-09-28 05:13:47			0	38469	0	0	0	23186	21770	158720	26892	1058748	46468	108542	0	0	8216	541861	0	0
2024-09-28 05:14:47			0	38450	0	0	0	23186	21770	158776	27128	1058748	46468	108542	0	0	8215	542600	0	0
2024-09-28 05:15:47			0	38459	0	0	0	23186	21770	158796	27275	1058677	46458	108542	0	0	8215	542250	0	0
2024-09-28 05:16:47			0	38445	0	0	0	23199	21750	158804	26994	1058694	46456	108547	0	0	8214	542855	0	0
2024-09-28 05:17:47			0	38431	0	0	0	23192	21760	158852	27197	1058659	46458	108544	0	0	8213	543370	0	0
2024-09-28 05:18:47			0	38443	0	0	0	23194	21760	158848	27398	1058712	46458	108545	0	0	8214	542902	0	0
2024-09-28 05:19:47			0	38429	0	0	0	23186	21770	158872	27443	1058721	46468	108542	0	0	8213	543417	0	0
2024-09-28 05:20:47			0	38423	0	0	0	23189	21770	158796	27222	1058748	46468	108543	0	0	8213	543651	0	0
2024-09-28 05:21:47			0	38439	0	0	0	23189	21760	158928	27211	1058712	46468	108543	0	0	8214	543058	0	0
2024-09-28 05:22:47			0	38432	0	0	0	23176	21760	158792	26994	1058686	46468	108538	0	0	8214	543331	0	0
2024-09-28 05:23:47			0	38413	0	0	0	23181	21750	158840	27130	1058694	46456	108540	0	0	8212	544101	0	0
2024-09-28 05:24:47			0	38429	0	0	0	23184	21760	158984	27149	1058686	46458	108541	0	0	8213	543447	0	0
2024-09-28 05:25:47			0	38431	0	0	0	23176	21760	158956	27398	1058703	46467	108538	0	0	8214	543370	0	0
2024-09-28 05:26:47			0	38420	0	0	0	23176	21760	158884	27079	1058650	46467	108538	0	0	8213	543798	0	0
2024-09-28 05:27:47			0	38417	0	0	0	23181	21760	158944	26998	1058703	46456	108540	0	0	8213	543915	0	0
2024-09-28 05:28:47			0	38445	0	0	0	23184	21750	158972	26909	1058721	46478	108541	0	0	8214	542855	0	0
2024-09-28 05:29:47			0	38453	0	0	0	23179	21760	158892	27298	1058712	46468	108539	0	0	8215	542514	0	0
2024-09-28 05:30:47			0	38430	0	0	0	23181	21760	158908	27540	1058659	46468	108540	0	0	8213	543408	0	0
2024-09-28 05:31:47			0	38422	0	0	0	23184	21760	158896	27085	1058659	46468	108541	0	0	8213	543720	0	0
2024-09-28 05:32:47			0	38451	0	0	0	23184	21760	158892	27261	1058623	46456	108541	0	0	8215	542591	0	0
2024-09-28 05:33:47			0	38446	0	0	0	23181	21760	158884	26977	1058686	46458	108540	0	0	8214	542786	0	0
2024-09-28 05:34:47			0	38443	0	0	0	23184	21750	158908	27202	1058685	46466	108541	0	0	8214	542933	0	0
2024-09-28 05:35:47			0	38440	0	0	0	23189	21750	158828	27261	1058721	46445	108543	0	0	8214	543050	0	0
2024-09-28 05:36:47			0	38445	0	0	0	23181	21760	158840	26913	1058703	46478	108540	0	0	8214	542825	0	0
2024-09-28 05:37:47			0	38425	0	0	0	23176	21760	158876	27251	1058703	46456	108538	0	0	8213	543603	0	0
2024-09-28 05:38:47			0	38429	0	0	0	23179	21750	158892	27157	1058668	46467	108539	0	0	8213	543478	0	0
2024-09-28 05:39:47			0	38432	0	0	0	23186	21760	158872	27350	1058659	46458	108542	0	0	8214	543331	0	0
2024-09-28 05:40:47			0	38449	0	0	0	23179	21750	158852	27168	1058668	46467	108539	0	0	8215	542699	0	0
2024-09-28 05:41:47			0	38446	0	0	0	23179	21770	158860	27303	1058748	46446	108539	0	0	8215	542756	0	0
2024-09-28 05:42:47			0	38448	0	0	0	23184	21760	158764	27083	1058703	46456	108541	0	0	8214	542708	0	0
2024-09-28 05:43:47			0	38451	0	0	0	23181	21760	158844	27225	1058677	46467	108540	0	0	8215	542591	0	0
2024-09-28 05:44:47			0	38410	0	0	0	23181	21760	158904	27206	1058730	46467	108540	0	0	8212	544187	0	0
2024-09-28 05:45:47			0	38406	0	0	0	23166	21760	158896	27154	1058677	46467	108534	0	0	8212	544343	0	0
2024-09-28 05:46:47			0	38411	0	0	0	23171	21750	159008	26944	1058641	46467	108536	0	0	8213	544179	0	0
2024-09-28 05:47:47			0	38414	0	0	0	23168	21750	158996	27111	1058721	46456	108535	0	0	8213	544062	0	0
2024-09-28 05:48:47			0	38383	0	0	0	23166	21760	159000	26996	1058686	46468	108534	0	0	8211	545240	0	0
2024-09-28 05:49:47			0	38371	0	0	0	23168	21760	159124	27012	1058597	46478	108535	0	0	8210	545708	0	0
2024-09-28 05:50:47			0	38382	0	0	0	23168	21760	159248	27350	1058677	46445	108535	0	0	8211	545279	0	0
2024-09-28 05:51:47			0	38370	0	0	0	23174	21750	159064	27279	1058641	46467	108537	0	0	8210	545778	0	0
2024-09-28 05:52:47			0	38373	0	0	0	23166	21750	159112	27265	1058685	46455	108534	0	0	8210	545661	0	0
2024-09-28 05:53:47			0	38390	0	0	0	23166	21760	159064	27034	1058650	46445	108534	0	0	8211	544967	0	0
2024-09-28 05:54:47			0	38417	0	0	0	23171	21740	159004	27360	1058676	46455	108536	0	0	8213	543975	0	0
2024-09-28 05:55:47			0	38421	0	0	0	23163	21750	158976	27062	1058614	46456	108533	0	0	8213	543789	0	0
2024-09-28 05:56:47			0	38424	0	0	0	23163	21750	158936	27319	1058641	46467	108533	0	0	8213	543672	0	0
2024-09-28 05:57:47			0	38436	0	0	0	23161	21740	158848	27483	1058623	46466	108532	0	0	8214	543235	0	0
2024-09-28 05:58:47			0	38439	0	0	0	23158	21740	158756	27138	1058534	46454	108531	0	0	8214	543119	0	0
2024-09-28 05:59:47			0	38441	0	0	0	23148	21750	158772	27088	1058632	46433	108527	0	0	8215	543010	0	0
2024-09-28 06:00:47			0	38445	0	0	0	23153	21750	158888	27536	1058552	46466	108529	0	0	8215	542855	0	0
2024-09-28 06:01:47			0	38424	0	0	0	23145	21740	159056	27227	1058561	46432	108526	0	0	8214	543703	0	0
2024-09-28 06:02:47			0	38407	0	0	0	23148	21740	159104	26979	1058596	46455	108527	0	0	8213	544365	0	0
2024-09-28 06:03:47			0	38364	0	0	0	23150	21730	159068	27258	1058552	46453	108528	0	0	8210	546073	0	0
2024-09-28 06:04:47			0	38377	0	0	0	23153	21730	159100	27163	1058552	46453	108529	0	0	8211	545565	0	0
2024-09-28 06:05:47			0	38376	0	0	0	23150	21730	159084	27173	1058543	46464	108528	0	0	8211	545604	0	0
2024-09-28 06:06:47			0	38372	0	0	0	23140	21740	158984	27270	1058614	46465	108524	0	0	8211	545730	0	0
2024-09-28 06:07:47			0	38365	0	0	0	23153	21730	159180	27391	1058516	46464	108529	0	0	8210	546034	0	0
2024-09-28 06:08:47			0	38375	0	0	0	23150	21740	159048	27644	1058587	46465	108528	0	0	8211	545613	0	0
2024-09-28 06:09:47			0	38385	0	0	0	23150	21740	159068	27495	1058534	46465	108528	0	0	8211	545223	0	0
2024-09-28 06:10:47			0	38372	0	0	0	23150	21730	158996	27182	1058605	46442	108528	0	0	8211	545760	0	0
2024-09-28 06:11:47			0	38379	0	0	0	23163	21720	158968	27083	1058587	46464	108533	0	0	8211	545518	0	0
2024-09-28 06:12:47			0	38402	0	0	0	23158	21730	158968	27322	1058623	46464	108531	0	0	8212	544590	0	0
2024-09-28 06:13:47			0	38386	0	0	0	23161	21730	159052	27370	1058578	46464	108532	0	0	8211	545214	0	0
2024-09-28 06:14:47			0	38390	0	0	0	23148	21730	159080	27275	1058552	46475	108527	0	0	8212	545058	0	0
2024-09-28 06:15:47			0	38361	0	0	0	23148	21730	159144	27227	1058605	46464	108527	0	0	8210	546190	0	0
2024-09-28 06:16:47			0	38348	0	0	0	23137	21730	159120	27422	1058543	46464	108523	0	0	8209	546698	0	0
2024-09-28 06:17:47			0	38309	0	0	0	23142	21730	159212	27069	1058570	46464	108525	0	0	8207	548223	0	0
2024-09-28 06:18:47			0	38304	0	0	0	23129	21730	159372	27211	1058490	46464	108520	0	0	8207	548419	0	0
2024-09-28 06:19:47			0	38283	0	0	0	23132	21720	159440	27429	1058552	46452	108521	0	0	8206	549272	0	0
2024-09-28 06:20:47			0	38255	0	0	0	23122	21730	159620	27350	1058516	46453	108517	0	0	8204	550339	0	0
2024-09-28 06:21:47			0	38207	0	0	0	23124	21720	159764	27407	1058498	46441	108518	0	0	8201	552256	0	0
2024-09-28 06:22:47			0	38175	0	0	0	23135	21720	159848	27422	1058481	46453	108522	0	0	8199	553515	0	0
2024-09-28 06:23:47			0	38198	0	0	0	23145	21710	159812	27374	1058489	46462	108526	0	0	8200	552640	0	0
2024-09-28 06:24:47			0	38196	0	0	0	23124	21720	159896	27310	1058445	46452	108518	0	0	8201	552688	0	0
2024-09-28 06:25:47			0	38181	0	0	0	23122	21720	159880	27341	1058454	46464	108517	0	0	8200	553279	0	0
2024-09-28 06:26:47			0	38175	0	0	0	23142	21710	159852	27121	1058480	46462	108525	0	0	8199	553546	0	0
2024-09-28 06:27:47			0	38232	0	0	0	23153	21710	159720	27324	1058489	46462	108529	0	0	8202	551304	0	0
2024-09-28 06:28:47			0	38266	0	0	0	23140	21710	159608	27298	1058463	46473	108524	0	0	8204	549969	0	0
2024-09-28 06:29:47			0	38287	0	0	0	23148	21720	159544	27327	1058498	46463	108527	0	0	8206	549115	0	0
2024-09-28 06:30:47			0	38301	0	0	0	23155	21720	159620	27289	1058534	46464	108530	0	0	8206	548567	0	0
2024-09-28 06:31:47			0	38301	0	0	0	23145	21720	159488	27258	1058525	46452	108526	0	0	8206	548567	0	0
2024-09-28 06:32:47			0	38294	0	0	0	23150	21720	159536	27422	1058561	46453	108528	0	0	8206	548841	0	0
2024-09-28 06:33:47			0	38300	0	0	0	23122	21720	159464	27140	1058525	46474	108517	0	0	8207	548606	0	0
2024-09-28 06:34:47			0	38238	0	0	0	23132	21720	159648	27355	1058481	46453	108521	0	0	8203	551038	0	0
2024-09-28 06:35:47			0	38242	0	0	0	23137	21730	159776	27222	1058463	46464	108523	0	0	8203	550850	0	0
2024-09-28 06:36:47			0	38213	0	0	0	23135	21710	159972	27076	1058516	46462	108522	0	0	8201	552051	0	0
2024-09-28 06:37:47			0	38213	0	0	0	23127	21720	159896	27194	1058481	46453	108519	0	0	8202	552020	0	0
2024-09-28 06:38:47			0	38150	0	0	0	23101	21710	160052	27166	1058489	46462	108509	0	0	8198	554531	0	0
2024-09-28 06:39:47			0	38090	0	0	0	23106	21720	160216	27237	1058472	46452	108511	0	0	8195	556869	0	0
2024-09-28 06:40:47			0	38054	0	0	0	23101	21720	160420	27357	1058365	46452	108509	0	0	8193	558293	0	0
2024-09-28 06:41:47			0	38037	0	0	0	23103	21710	160448	27414	1058356	46451	108510	0	0	8192	558997	0	0
2024-09-28 06:42:47			0	38013	0	0	0	23103	21690	160751	27346	1058409	46450	108510	0	0	8190	560011	0	0
2024-09-28 06:43:47			0	37996	0	0	0	23101	21700	160639	27365	1058311	46461	108509	0	0	8189	560655	0	0
2024-09-28 06:44:47			0	37974	0	0	0	23106	21690	160755	27144	1058347	46460	108511	0	0	8188	561560	0	0
2024-09-28 06:45:47			0	37956	0	0	0	23103	21710	160823	27492	1058347	46440	108510	0	0	8187	562213	0	0
2024-09-28 06:46:47			0	37931	0	0	0	23103	21680	160995	27161	1058329	46448	108510	0	0	8185	563302	0	0
2024-09-28 06:47:47			0	37939	0	0	0	23106	21690	160967	27332	1058347	46449	108511	0	0	8186	562952	0	0
2024-09-28 06:48:47			0	37942	0	0	0	23098	21690	161015	27405	1058356	46450	108508	0	0	8186	562832	0	0
2024-09-28 06:49:47			0	37918	0	0	0	23090	21690	161051	27150	1058373	46449	108505	0	0	8185	563788	0	0
2024-09-28 06:50:47			0	37909	0	0	0	23090	21680	161127	27206	1058311	46449	108505	0	0	8184	564178	0	0
2024-09-28 06:51:47			0	37884	0	0	0	23088	21680	161227	27078	1058364	46427	108504	0	0	8183	565175	0	0
2024-09-28 06:52:47			0	37865	0	0	0	23085	21670	161187	27232	1058320	46437	108503	0	0	8182	565965	0	0
2024-09-28 06:53:47			0	37843	0	0	0	23083	21670	161203	27147	1058311	46447	108502	0	0	8180	566844	0	0
2024-09-28 06:54:47			0	37868	0	0	0	23093	21670	161223	27194	1058293	46459	108506	0	0	8182	565845	0	0
2024-09-28 06:55:47			0	37874	0	0	0	23116	21670	161267	27045	1058346	46459	108515	0	0	8182	565606	0	0
2024-09-28 06:56:47			0	37884	0	0	0	23101	21680	161423	26741	1058391	46460	108509	0	0	8183	565175	0	0
2024-09-28 06:57:47			0	37880	0	0	0	23096	21680	161191	27012	1058311	46460	108507	0	0	8182	565335	0	0
2024-09-28 06:58:47			0	37866	0	0	0	23098	21670	161351	27272	1058337	46458	108508	0	0	8182	565925	0	0
2024-09-28 06:59:47			0	37852	0	0	0	23093	21670	161267	27027	1058320	46448	108506	0	0	8181	566484	0	0
2024-09-28 07:00:47			0	37849	0	0	0	23096	21680	161363	27072	1058275	46459	108507	0	0	8181	566573	0	0
2024-09-28 07:01:47			0	37835	0	0	0	23085	21680	161379	27235	1058329	46459	108503	0	0	8180	567133	0	0
2024-09-28 07:02:47			0	37848	0	0	0	23090	21670	161383	27168	1058266	46448	108505	0	0	8181	566644	0	0
2024-09-28 07:03:47			0	37850	0	0	0	23103	21670	161243	27209	1058346	46448	108510	0	0	8180	566565	0	0
2024-09-28 07:04:47			0	37848	0	0	0	23080	21680	161223	27157	1058329	46459	108501	0	0	8181	566613	0	0
2024-09-28 07:05:47			0	37833	0	0	0	23088	21670	161335	27216	1058293	46437	108504	0	0	8180	567244	0	0
2024-09-28 07:06:47			0	37845	0	0	0	23090	21670	161331	27374	1058284	46425	108505	0	0	8180	566764	0	0
2024-09-28 07:07:47			0	37835	0	0	0	23101	21670	161343	27107	1058346	46426	108509	0	0	8180	567164	0	0
2024-09-28 07:08:47			0	37838	0	0	0	23090	21660	161295	27663	1058222	46458	108505	0	0	8180	567076	0	0
2024-09-28 07:09:47			0	37846	0	0	0	23103	21670	161355	27213	1058320	46459	108510	0	0	8180	566724	0	0
2024-09-28 07:10:47			0	37838	0	0	0	23098	21670	161243	27187	1058284	46447	108508	0	0	8180	567044	0	0
2024-09-28 07:11:47			0	37860	0	0	0	23119	21670	161211	27220	1058320	46459	108516	0	0	8181	566165	0	0
2024-09-28 07:12:47			0	37872	0	0	0	23116	21670	161187	26968	1058320	46459	108515	0	0	8182	565686	0	0
2024-09-28 07:13:47			0	37879	0	0	0	23093	21670	161303	27078	1058346	46470	108506	0	0	8182	565406	0	0
2024-09-28 07:14:47			0	37872	0	0	0	23090	21670	161235	27543	1058337	46447	108505	0	0	8182	565686	0	0
2024-09-28 07:15:47			0	37871	0	0	0	23109	21670	161235	27272	1058400	46448	108512	0	0	8182	565726	0	0
2024-09-28 07:16:47			0	37888	0	0	0	23109	21670	161167	27469	1058391	46447	108512	0	0	8183	565047	0	0
2024-09-28 07:17:47			0	37886	0	0	0	23103	21670	161183	27402	1058320	46448	108510	0	0	8183	565127	0	0
2024-09-28 07:18:47			0	37893	0	0	0	23088	21670	161319	27185	1058266	46459	108504	0	0	8183	564847	0	0
2024-09-28 07:19:47			0	37896	0	0	0	23106	21660	161131	27369	1058328	46458	108511	0	0	8183	564759	0	0
2024-09-28 07:20:47			0	37924	0	0	0	23098	21670	161043	27246	1058346	46459	108508	0	0	8185	563612	0	0
2024-09-28 07:21:47			0	37916	0	0	0	23093	21670	161143	27074	1058231	46458	108506	0	0	8185	563931	0	0
2024-09-28 07:22:47			0	37894	0	0	0	23096	21670	161103	27301	1058293	46459	108507	0	0	8183	564808	0	0
2024-09-28 07:23:47			0	37906	0	0	0	23109	21660	161127	27272	1058328	46446	108512	0	0	8184	564361	0	0
2024-09-28 07:24:47			0	37931	0	0	0	23106	21670	161043	27493	1058320	46459	108511	0	0	8185	563333	0	0
2024-09-28 07:25:47			0	37935	0	0	0	23088	21680	160991	27428	1058311	46460	108504	0	0	8186	563142	0	0
2024-09-28 07:26:47			0	37923	0	0	0	23090	21680	161063	27098	1058355	46459	108505	0	0	8185	563620	0	0
2024-09-28 07:27:47			0	37944	0	0	0	23090	21670	161023	27284	1058346	46448	108505	0	0	8186	562815	0	0
2024-09-28 07:28:47			0	37948	0	0	0	23096	21670	160959	27410	1058284	46447	108507	0	0	8186	562656	0	0
2024-09-28 07:29:47			0	37942	0	0	0	23103	21670	160991	27369	1058311	46458	108510	0	0	8186	562895	0	0
2024-09-28 07:30:47			0	37965	0	0	0	23093	21670	160899	27182	1058266	46459	108506	0	0	8187	561980	0	0
2024-09-28 07:31:47			0	37966	0	0	0	23088	21660	160767	27098	1058213	46435	108504	0	0	8188	561972	0	0
2024-09-28 07:32:47			0	38001	0	0	0	23090	21670	160847	27324	1058240	46459	108505	0	0	8190	560550	0	0
2024-09-28 07:33:47			0	38010	0	0	0	23096	21660	160723	27046	1058302	46446	108507	0	0	8190	560224	0	0
2024-09-28 07:34:47			0	38011	0	0	0	23070	21670	160739	27272	1058284	46458	108497	0	0	8190	560153	0	0
2024-09-28 07:35:47			0	38055	0	0	0	23083	21660	160636	27277	1058249	46458	108502	0	0	8193	558440	0	0
2024-09-28 07:36:47			0	38049	0	0	0	23083	21650	160548	27319	1058231	46435	108502	0	0	8192	558709	0	0
2024-09-28 07:37:47			0	38071	0	0	0	23085	21670	160468	27279	1058231	46458	108503	0	0	8194	557775	0	0
2024-09-28 07:38:47			0	38103	0	0	0	23085	21660	160376	27123	1058266	46446	108503	0	0	8196	556541	0	0
2024-09-28 07:39:47			0	38104	0	0	0	23080	21660	160360	27140	1058213	46435	108501	0	0	8196	556501	0	0
2024-09-28 07:40:47			0	38125	0	0	0	23077	21650	160204	27343	1058177	46435	108500	0	0	8197	555703	0	0
2024-09-28 07:41:47			0	38136	0	0	0	23090	21660	160172	27258	1058275	46458	108505	0	0	8197	555238	0	0
2024-09-28 07:42:47			0	38159	0	0	0	23085	21650	160092	27405	1058195	46457	108503	0	0	8199	554361	0	0
2024-09-28 07:43:47			0	38162	0	0	0	23077	21660	160024	26923	1058249	46468	108500	0	0	8199	554212	0	0
2024-09-28 07:44:47			0	38202	0	0	0	23088	21650	159996	26987	1058257	46424	108504	0	0	8201	552668	0	0
2024-09-28 07:45:47			0	38205	0	0	0	23080	21650	159788	27286	1058231	46446	108501	0	0	8202	552550	0	0
2024-09-28 07:46:47			0	38216	0	0	0	23064	21660	159844	27490	1058186	46435	108495	0	0	8203	552086	0	0
2024-09-28 07:47:47			0	38231	0	0	0	23059	21640	159772	27343	1058213	46456	108493	0	0	8203	551558	0	0
2024-09-28 07:48:47			0	38231	0	0	0	23062	21640	159684	27041	1058213	46444	108494	0	0	8203	551558	0	0
2024-09-28 07:49:47			0	38249	0	0	0	23077	21640	159656	27104	1058159	46444	108500	0	0	8204	550851	0	0
2024-09-28 07:50:47			0	38258	0	0	0	23070	21650	159704	27234	1058142	46445	108497	0	0	8205	550467	0	0
2024-09-28 07:51:47			0	38277	0	0	0	23072	21640	159660	27391	1058186	46456	108498	0	0	8206	549752	0	0
2024-09-28 07:52:47			0	38290	0	0	0	23059	21640	159636	27052	1058186	46444	108493	0	0	8207	549242	0	0
2024-09-28 07:53:47			0	38300	0	0	0	23090	21640	159512	27098	1058124	46456	108505	0	0	8207	548850	0	0
2024-09-28 07:54:47			0	38312	0	0	0	23090	21640	159504	27265	1058213	46456	108505	0	0	8208	548380	0	0
2024-09-28 07:55:47			0	38322	0	0	0	23072	21640	159416	27041	1058186	46444	108498	0	0	8209	547989	0	0
2024-09-28 07:56:47			0	38329	0	0	0	23067	21650	159396	27353	1058275	46457	108496	0	0	8209	547685	0	0
2024-09-28 07:57:47			0	38320	0	0	0	23062	21650	159412	27066	1058195	46457	108494	0	0	8209	548037	0	0
2024-09-28 07:58:47			0	38347	0	0	0	23077	21650	159440	27060	1058168	46445	108500	0	0	8210	546980	0	0
2024-09-28 07:59:47			0	38322	0	0	0	23070	21650	159344	26963	1058195	46457	108497	0	0	8209	547958	0	0
2024-09-28 08:00:47			0	38359	0	0	0	23054	21650	159188	27076	1058257	46446	108491	0	0	8211	546511	0	0
2024-09-28 08:01:47			0	38354	0	0	0	23049	21650	159296	27279	1058168	46445	108489	0	0	8211	546707	0	0
2024-09-28 08:02:47			0	38370	0	0	0	23088	21640	159244	27206	1058186	46444	108504	0	0	8211	546112	0	0
2024-09-28 08:03:47			0	38372	0	0	0	23083	21650	159224	27350	1058168	46457	108502	0	0	8211	546003	0	0
2024-09-28 08:04:47			0	38375	0	0	0	23051	21640	159212	26958	1058186	46456	108490	0	0	8212	545917	0	0
2024-09-28 08:05:47			0	38399	0	0	0	23059	21640	159116	27230	1058177	46466	108493	0	0	8213	544980	0	0
2024-09-28 08:06:47			0	38392	0	0	0	23059	21640	159184	27291	1058124	46422	108493	0	0	8213	545253	0	0
2024-09-28 08:07:47			0	38401	0	0	0	23075	21640	159108	27270	1058133	46456	108499	0	0	8213	544902	0	0
2024-09-28 08:08:47			0	38402	0	0	0	23041	21640	158996	27350	1058106	46444	108486	0	0	8214	544863	0	0
2024-09-28 08:09:47			0	38404	0	0	0	23070	21640	159128	27229	1058204	46444	108497	0	0	8213	544785	0	0
2024-09-28 08:10:47			0	38427	0	0	0	23064	21640	159052	27092	1058124	46456	108495	0	0	8215	543888	0	0
2024-09-28 08:11:47			0	38421	0	0	0	23077	21630	159100	27017	1058141	46456	108500	0	0	8214	544152	0	0
2024-09-28 08:12:47			0	38419	0	0	0	23064	21640	158972	26875	1058159	46456	108495	0	0	8214	544200	0	0
2024-09-28 08:13:47			0	38433	0	0	0	23070	21640	159076	27294	1058150	46456	108497	0	0	8215	543655	0	0
2024-09-28 08:14:47			0	38423	0	0	0	23062	21640	158964	27294	1058124	46456	108494	0	0	8215	544044	0	0
2024-09-28 08:15:47			0	38449	0	0	0	23059	21630	158952	27067	1058141	46444	108493	0	0	8216	543062	0	0
2024-09-28 08:16:47			0	38437	0	0	0	23057	21630	158972	27197	1058141	46444	108492	0	0	8215	543529	0	0
2024-09-28 08:17:47			0	38456	0	0	0	23064	21630	158820	27296	1058115	46456	108495	0	0	8216	542789	0	0
2024-09-28 08:18:47			0	38456	0	0	0	23070	21640	158864	27345	1058150	46456	108497	0	0	8216	542759	0	0
2024-09-28 08:19:47			0	38462	0	0	0	23075	21640	158940	27098	1058186	46456	108499	0	0	8217	542526	0	0
2024-09-28 08:20:47			0	38458	0	0	0	23083	21630	158912	26961	1058168	46444	108502	0	0	8216	542712	0	0
2024-09-28 08:21:47			0	38484	0	0	0	23064	21630	158824	27187	1058141	46456	108495	0	0	8218	541700	0	0
2024-09-28 08:22:47			0	38486	0	0	0	23077	21630	158764	26842	1058141	46444	108500	0	0	8218	541623	0	0
2024-09-28 08:23:47			0	38504	0	0	0	23059	21640	158792	27168	1058150	46444	108493	0	0	8219	540893	0	0
2024-09-28 08:24:47			0	38484	0	0	0	23077	21630	158776	27142	1058195	46444	108500	0	0	8218	541700	0	0
2024-09-28 08:25:47			0	38491	0	0	0	23077	21640	158740	26991	1058186	46456	108500	0	0	8218	541398	0	0
2024-09-28 08:26:47			0	38500	0	0	0	23067	21640	158760	27095	1058213	46456	108496	0	0	8219	541049	0	0
2024-09-28 08:27:47			0	38513	0	0	0	23062	21640	158732	27060	1058177	46444	108494	0	0	8220	540544	0	0
2024-09-28 08:28:47			0	38527	0	0	0	23067	21640	158720	27289	1058213	46444	108496	0	0	8221	540001	0	0
2024-09-28 08:29:47			0	38528	0	0	0	23059	21640	158596	27048	1058133	46444	108493	0	0	8221	539962	0	0
2024-09-28 08:30:47			0	38519	0	0	0	23070	21640	158652	27183	1058159	46456	108497	0	0	8220	540311	0	0
2024-09-28 08:31:47			0	38530	0	0	0	23080	21640	158568	27220	1058150	46466	108501	0	0	8220	539884	0	0
2024-09-28 08:32:47			0	38541	0	0	0	23062	21650	158588	27208	1058142	46467	108494	0	0	8221	539428	0	0
2024-09-28 08:33:47			0	38555	0	0	0	23077	21640	158556	27173	1058177	46444	108500	0	0	8222	538915	0	0
2024-09-28 08:34:47			0	38525	0	0	0	23067	21650	158504	27177	1058195	46457	108496	0	0	8220	540048	0	0
2024-09-28 08:35:47			0	38558	0	0	0	23075	21640	158608	27076	1058124	46456	108499	0	0	8222	538799	0	0
2024-09-28 08:36:47			0	38573	0	0	0	23067	21640	158500	27131	1058133	46456	108496	0	0	8223	538218	0	0
2024-09-28 08:37:47			0	38563	0	0	0	23083	21640	158500	27187	1058186	46456	108502	0	0	8222	538605	0	0
2024-09-28 08:38:47			0	38578	0	0	0	23070	21650	158424	27102	1058275	46445	108497	0	0	8223	537995	0	0
2024-09-28 08:39:47			0	38565	0	0	0	23062	21640	158488	27445	1058230	46444	108494	0	0	8223	538528	0	0
2024-09-28 08:40:47			0	38562	0	0	0	23075	21640	158392	27227	1058177	46444	108499	0	0	8222	538644	0	0
2024-09-28 08:41:47			0	38568	0	0	0	23083	21640	158520	27327	1058177	46456	108502	0	0	8223	538412	0	0
2024-09-28 08:42:47			0	38562	0	0	0	23083	21640	158508	27277	1058230	46456	108502	0	0	8222	538644	0	0
2024-09-28 08:43:47			0	38577	0	0	0	23090	21630	158540	27209	1058221	46456	108505	0	0	8223	538093	0	0
2024-09-28 08:44:47			0	38552	0	0	0	23080	21640	158408	27253	1058177	46456	108501	0	0	8222	539032	0	0
2024-09-28 08:45:47			0	38552	0	0	0	23075	21640	158520	27343	1058239	46456	108499	0	0	8222	539032	0	0
2024-09-28 08:46:47			0	38542	0	0	0	23072	21640	158564	27372	1058239	46466	108498	0	0	8221	539419	0	0
2024-09-28 08:47:47			0	38539	0	0	0	23083	21660	158648	27310	1058186	46446	108502	0	0	8221	539475	0	0
2024-09-28 08:48:47			0	38525	0	0	0	23075	21650	158644	27279	1058195	46457	108499	0	0	8220	540048	0	0
2024-09-28 08:49:47			0	38520	0	0	0	23080	21640	158616	27223	1058239	46456	108501	0	0	8220	540272	0	0
2024-09-28 08:50:47			0	38525	0	0	0	23083	21640	158776	27053	1058186	46456	108502	0	0	8220	540078	0	0
2024-09-28 08:51:47			0	38504	0	0	0	23080	21640	158736	27275	1058239	46456	108501	0	0	8219	540893	0	0
2024-09-28 08:52:47			0	38516	0	0	0	23080	21650	158812	27036	1058222	46457	108501	0	0	8220	540398	0	0
2024-09-28 08:53:47			0	38482	0	0	0	23088	21640	158772	27036	1058186	46456	108504	0	0	8218	541748	0	0
2024-09-28 08:54:47			0	38488	0	0	0	23077	21640	158776	26948	1058177	46456	108500	0	0	8218	541515	0	0
2024-09-28 08:55:47			0	38453	0	0	0	23072	21660	158844	27353	1058240	46446	108498	0	0	8216	542816	0	0
2024-09-28 08:56:47			0	38449	0	0	0	23080	21640	158924	27007	1058159	46422	108501	0	0	8216	543032	0	0
2024-09-28 08:57:47			0	38455	0	0	0	23083	21650	158908	27460	1058195	46445	108502	0	0	8216	542768	0	0
2024-09-28 08:58:47			0	38458	0	0	0	23075	21640	158796	27395	1058213	46466	108499	0	0	8216	542681	0	0
2024-09-28 08:59:47			0	38459	0	0	0	23075	21650	158944	27057	1058222	46445	108499	0	0	8216	542612	0	0
2024-09-28 09:00:47			0	38448	0	0	0	23083	21650	158920	27057	1058231	46435	108502	0	0	8216	543040	0	0
2024-09-28 09:01:47			0	38472	0	0	0	23090	21650	158952	27183	1058257	46458	108505	0	0	8217	542107	0	0
2024-09-28 09:02:47			0	38466	0	0	0	23085	21660	158860	27454	1058328	46458	108503	0	0	8217	542310	0	0
2024-09-28 09:03:47			0	38465	0	0	0	23090	21640	158848	27232	1058293	46456	108505	0	0	8217	542409	0	0
2024-09-28 09:04:47			0	38465	0	0	0	23088	21650	158912	27294	1058275	46457	108504	0	0	8217	542379	0	0
2024-09-28 09:05:47			0	38479	0	0	0	23093	21650	158824	26923	1058284	46458	108506	0	0	8217	541835	0	0
2024-09-28 09:06:47			0	38477	0	0	0	23083	21650	158844	27213	1058284	46458	108502	0	0	8217	541912	0	0
2024-09-28 09:07:47			0	38481	0	0	0	23077	21650	158768	27145	1058204	46458	108500	0	0	8218	541757	0	0
2024-09-28 09:08:47			0	38491	0	0	0	23096	21650	158816	27208	1058284	46458	108507	0	0	8218	541368	0	0
2024-09-28 09:09:47			0	38485	0	0	0	23090	21650	158712	27076	1058257	46446	108505	0	0	8218	541601	0	0
2024-09-28 09:10:47			0	38497	0	0	0	23088	21660	158760	27083	1058293	46446	108504	0	0	8219	541105	0	0
2024-09-28 09:11:47			0	38514	0	0	0	23101	21660	158744	27123	1058320	46458	108509	0	0	8219	540445	0	0
2024-09-28 09:12:47			0	38509	0	0	0	23093	21670	158668	27192	1058284	46458	108506	0	0	8219	540609	0	0
2024-09-28 09:13:47			0	38535	0	0	0	23085	21660	158632	27312	1058249	46458	108503	0	0	8221	539630	0	0
2024-09-28 09:14:47			0	38511	0	0	0	23093	21670	158628	27242	1058337	46436	108506	0	0	8219	540531	0	0
2024-09-28 09:15:47			0	38513	0	0	0	23096	21650	158596	27329	1058311	46458	108507	0	0	8219	540514	0	0
2024-09-28 09:16:47			0	38513	0	0	0	23093	21660	158592	27398	1058293	46458	108506	0	0	8219	540484	0	0
2024-09-28 09:17:47			0	38531	0	0	0	23101	21660	158596	27012	1058293	46468	108509	0	0	8220	539786	0	0
2024-09-28 09:18:47			0	38520	0	0	0	23085	21650	158500	27459	1058284	46458	108503	0	0	8220	540242	0	0
2024-09-28 09:19:47			0	38547	0	0	0	23096	21650	158504	26991	1058257	46458	108507	0	0	8221	539195	0	0
2024-09-28 09:20:47			0	38542	0	0	0	23085	21660	158536	27121	1058293	46446	108503	0	0	8221	539359	0	0
2024-09-28 09:21:47			0	38550	0	0	0	23096	21660	158568	27229	1058275	46458	108507	0	0	8221	539049	0	0
2024-09-28 09:22:47			0	38551	0	0	0	23096	21660	158564	27388	1058302	46435	108507	0	0	8222	539010	0	0
2024-09-28 09:23:47			0	38555	0	0	0	23096	21670	158624	27171	1058346	46459	108507	0	0	8222	538825	0	0
2024-09-28 09:24:47			0	38571	0	0	0	23101	21680	158584	27015	1058302	46448	108509	0	0	8223	538176	0	0
2024-09-28 09:25:47			0	38567	0	0	0	23096	21660	158640	26844	1058328	46458	108507	0	0	8222	538391	0	0
2024-09-28 09:26:47			0	38567	0	0	0	23090	21660	158500	27090	1058266	46458	108505	0	0	8223	538391	0	0
2024-09-28 09:27:47			0	38559	0	0	0	23083	21670	158456	27208	1058320	46459	108502	0	0	8222	538671	0	0
2024-09-28 09:28:47			0	38566	0	0	0	23096	21670	158456	27319	1058337	46469	108507	0	0	8222	538399	0	0
2024-09-28 09:29:47			0	38575	0	0	0	23096	21670	158452	27060	1058320	46459	108507	0	0	8223	538051	0	0
2024-09-28 09:30:47			0	38581	0	0	0	23093	21660	158480	27183	1058302	46458	108506	0	0	8223	537849	0	0
2024-09-28 09:31:47			0	38584	0	0	0	23093	21670	158488	27137	1058337	46458	108506	0	0	8224	537703	0	0
2024-09-28 09:32:47			0	38569	0	0	0	23090	21680	158412	27435	1058338	46449	108505	0	0	8223	538253	0	0
2024-09-28 09:33:47			0	38578	0	0	0	23101	21670	158412	27244	1058373	46448	108509	0	0	8223	537935	0	0
2024-09-28 09:34:47			0	38565	0	0	0	23090	21680	158480	26951	1058382	46448	108505	0	0	8223	538408	0	0
2024-09-28 09:35:47			0	38577	0	0	0	23098	21680	158400	27166	1058329	46448	108508	0	0	8223	537944	0	0
2024-09-28 09:36:47			0	38577	0	0	0	23093	21670	158492	27350	1058337	46447	108506	0	0	8223	537974	0	0
2024-09-28 09:37:47			0	38575	0	0	0	23101	21670	158472	27388	1058373	46459	108509	0	0	8223	538051	0	0
2024-09-28 09:38:47			0	38586	0	0	0	23103	21670	158388	27222	1058311	46458	108510	0	0	8223	537625	0	0
2024-09-28 09:39:47			0	38594	0	0	0	23106	21670	158440	26781	1058391	46447	108511	0	0	8224	537316	0	0
2024-09-28 09:40:47			0	38595	0	0	0	23101	21680	158364	27258	1058355	46459	108509	0	0	8224	537247	0	0
2024-09-28 09:41:47			0	38586	0	0	0	23106	21670	158420	27074	1058400	46459	108511	0	0	8223	537625	0	0
2024-09-28 09:42:47			0	38597	0	0	0	23103	21670	158308	27246	1058337	46458	108510	0	0	8224	537200	0	0
2024-09-28 09:43:47			0	38597	0	0	0	23106	21670	158296	26743	1058320	46459	108511	0	0	8224	537200	0	0
2024-09-28 09:44:47			0	38598	0	0	0	23106	21670	158232	27410	1058320	46448	108511	0	0	8224	537161	0	0
2024-09-28 09:45:47			0	38614	0	0	0	23109	21670	158252	26915	1058373	46459	108512	0	0	8225	536543	0	0
2024-09-28 09:46:47			0	38609	0	0	0	23106	21680	158176	27211	1058382	46459	108511	0	0	8225	536706	0	0
2024-09-28 09:47:47			0	38615	0	0	0	23101	21680	158212	27130	1058418	46460	108509	0	0	8225	536474	0	0
2024-09-28 09:48:47			0	38623	0	0	0	23109	21680	158196	27007	1058364	46460	108512	0	0	8226	536165	0	0
2024-09-28 09:49:47			0	38638	0	0	0	23116	21680	157996	27066	1058409	46448	108515	0	0	8226	535586	0	0
2024-09-28 09:50:47			0	38642	0	0	0	23119	21690	158140	27052	1058427	46460	108516	0	0	8227	535402	0	0
2024-09-28 09:51:47			0	38629	0	0	0	23116	21680	158080	27083	1058489	46459	108515	0	0	8226	535934	0	0
2024-09-28 09:52:47			0	38645	0	0	0	23124	21680	158116	26953	1058409	46459	108518	0	0	8227	535316	0	0
2024-09-28 09:53:47			0	38642	0	0	0	23122	21680	158008	27157	1058418	46460	108517	0	0	8226	535432	0	0
2024-09-28 09:54:47			0	38666	0	0	0	23129	21680	158020	27090	1058444	46449	108520	0	0	8228	534506	0	0
2024-09-28 09:55:47			0	38669	0	0	0	23122	21690	158080	27055	1058480	46460	108517	0	0	8228	534361	0	0
2024-09-28 09:56:47			0	38677	0	0	0	23124	21690	158048	26994	1058436	46472	108518	0	0	8229	534053	0	0
2024-09-28 09:57:47			0	38679	0	0	0	23124	21690	158012	27189	1058427	46471	108518	0	0	8229	533975	0	0
2024-09-28 09:58:47			0	38665	0	0	0	23129	21690	157916	27329	1058480	46460	108520	0	0	8228	534515	0	0
2024-09-28 09:59:47			0	38676	0	0	0	23124	21700	158044	27164	1058391	46450	108518	0	0	8228	534061	0	0
2024-09-28 10:00:47			0	38683	0	0	0	23127	21690	157988	27241	1058462	46450	108519	0	0	8229	533822	0	0
2024-09-28 10:01:47			0	38690	0	0	0	23129	21700	157864	26982	1058444	46461	108520	0	0	8229	533522	0	0
2024-09-28 10:02:47			0	38696	0	0	0	23127	21710	157976	27150	1058480	46462	108519	0	0	8230	533262	0	0
2024-09-28 10:03:47			0	38688	0	0	0	23137	21700	157928	27145	1058498	46461	108523	0	0	8229	533599	0	0
2024-09-28 10:04:47			0	38709	0	0	0	23135	21690	157960	26906	1058489	46450	108522	0	0	8230	532821	0	0
2024-09-28 10:05:47			0	38706	0	0	0	23142	21700	157824	27015	1058578	46461	108525	0	0	8230	532906	0	0
2024-09-28 10:06:47			0	38719	0	0	0	23137	21710	157824	26826	1058516	46473	108523	0	0	8231	532377	0	0
2024-09-28 10:07:47			0	38703	0	0	0	23137	21710	157844	27371	1058534	46462	108523	0	0	8230	532992	0	0
2024-09-28 10:08:47			0	38722	0	0	0	23140	21710	157829	27060	1058543	46462	108524	0	0	8231	532261	0	0
2024-09-28 10:09:47			0	38727	0	0	0	23142	21720	157833	27156	1058525	46463	108525	0	0	8231	532039	0	0
2024-09-28 10:10:47			0	38726	0	0	0	23145	21710	157873	27367	1058543	46484	108526	0	0	8231	532108	0	0
2024-09-28 10:11:47			0	38721	0	0	0	23145	21710	157752	27114	1058489	46462	108526	0	0	8231	532300	0	0
2024-09-28 10:12:47			0	38737	0	0	0	23142	21710	157796	27079	1058436	46462	108525	0	0	8232	531685	0	0
2024-09-28 10:13:47			0	38740	0	0	0	23150	21720	157825	27105	1058552	46452	108528	0	0	8232	531540	0	0
2024-09-28 10:14:47			0	38741	0	0	0	23153	21720	157733	27213	1058578	46474	108529	0	0	8232	531502	0	0
2024-09-28 10:15:47			0	38743	0	0	0	23148	21710	157829	27540	1058516	46451	108527	0	0	8232	531454	0	0
2024-09-28 10:16:47			0	38750	0	0	0	23150	21730	157737	27161	1058623	46464	108528	0	0	8232	531126	0	0
2024-09-28 10:17:47			0	38749	0	0	0	23150	21710	157701	26982	1058560	46451	108528	0	0	8232	531224	0	0
2024-09-28 10:18:47			0	38764	0	0	0	23153	21720	157641	27428	1058605	46463	108529	0	0	8233	530619	0	0
2024-09-28 10:19:47			0	38765	0	0	0	23168	21720	157689	27027	1058641	46464	108535	0	0	8233	530580	0	0
2024-09-28 10:20:47			0	38755	0	0	0	23150	21710	157781	27260	1058569	46451	108528	0	0	8233	530993	0	0
2024-09-28 10:21:47			0	38768	0	0	0	23158	21720	157645	27183	1058641	46464	108531	0	0	8233	530465	0	0
2024-09-28 10:22:47			0	38770	0	0	0	23161	21730	157437	26896	1058632	46475	108532	0	0	8233	530359	0	0
2024-09-28 10:23:47			0	38768	0	0	0	23163	21730	157565	27438	1058632	46464	108533	0	0	8233	530435	0	0
2024-09-28 10:24:47			0	38797	0	0	0	23166	21730	157521	27374	1058676	46464	108534	0	0	8235	529324	0	0
2024-09-28 10:25:47			0	38784	0	0	0	23168	21740	157429	27260	1058703	46477	108535	0	0	8234	529792	0	0
2024-09-28 10:26:47			0	38812	0	0	0	23174	21740	157585	27178	1058623	46455	108537	0	0	8236	528720	0	0
2024-09-28 10:27:47			0	38817	0	0	0	23171	21740	157545	27095	1058641	46476	108536	0	0	8236	528528	0	0
2024-09-28 10:28:47			0	38825	0	0	0	23179	21740	157425	27358	1058641	46476	108539	0	0	8236	528222	0	0
2024-09-28 10:29:47			0	38818	0	0	0	23174	21730	157417	27161	1058712	46464	108537	0	0	8236	528519	0	0
2024-09-28 10:30:47			0	38817	0	0	0	23176	21740	157325	27128	1058721	46454	108538	0	0	8236	528528	0	0
2024-09-28 10:31:47			0	38816	0	0	0	23179	21740	157469	27220	1058730	46455	108539	0	0	8236	528566	0	0
2024-09-28 10:32:47			0	38815	0	0	0	23171	21740	157489	27538	1058667	46476	108536	0	0	8236	528605	0	0
2024-09-28 10:33:47			0	38826	0	0	0	23181	21740	157357	27031	1058756	46444	108540	0	0	8236	528184	0	0
2024-09-28 10:34:47			0	38834	0	0	0	23184	21750	157313	27227	1058739	46466	108541	0	0	8237	527848	0	0
2024-09-28 10:35:47			0	38844	0	0	0	23181	21740	157341	26830	1058810	46477	108540	0	0	8237	527495	0	0
2024-09-28 10:36:47			0	38861	0	0	0	23192	21760	157233	26831	1058730	46467	108544	0	0	8238	526787	0	0
2024-09-28 10:37:47			0	38850	0	0	0	23184	21760	157301	27170	1058757	46456	108541	0	0	8238	527207	0	0
2024-09-28 10:38:47			0	38846	0	0	0	23192	21750	157213	26991	1058748	46467	108544	0	0	8237	527389	0	0
2024-09-28 10:39:47			0	38867	0	0	0	23194	21750	157241	27208	1058819	46466	108545	0	0	8239	526587	0	0
2024-09-28 10:40:47			0	38857	0	0	0	23199	21760	157209	27343	1058757	46467	108547	0	0	8238	526940	0	0
2024-09-28 10:41:47			0	38874	0	0	0	23192	21760	157181	27118	1058757	46478	108544	0	0	8239	526290	0	0
2024-09-28 10:42:47			0	38860	0	0	0	23184	21760	157081	27235	1058819	46479	108541	0	0	8238	526825	0	0
2024-09-28 10:43:47			0	38864	0	0	0	23197	21760	157201	27343	1058872	46468	108546	0	0	8238	526672	0	0
2024-09-28 10:44:47			0	38869	0	0	0	23189	21760	157185	27239	1058845	46458	108543	0	0	8239	526481	0	0
2024-09-28 10:45:47			0	38852	0	0	0	23199	21770	157173	27260	1058774	46468	108547	0	0	8238	527101	0	0
2024-09-28 10:46:47			0	38873	0	0	0	23199	21750	157153	27274	1058801	46456	108547	0	0	8239	526358	0	0
2024-09-28 10:47:47			0	38894	0	0	0	23207	21790	157097	27234	1058837	46470	108550	0	0	8240	525439	0	0
2024-09-28 10:48:47			0	38879	0	0	0	23199	21770	157093	27317	1058854	46446	108547	0	0	8239	526070	0	0
2024-09-28 10:49:47			0	38881	0	0	0	23202	21770	157085	27060	1058854	46468	108548	0	0	8239	525994	0	0
2024-09-28 10:50:47			0	38899	0	0	0	23207	21780	157129	27352	1058872	46480	108550	0	0	8240	525278	0	0
2024-09-28 10:51:47			0	38894	0	0	0	23218	21780	157045	27008	1058908	46470	108554	0	0	8240	525468	0	0
2024-09-28 10:52:47			0	38913	0	0	0	23205	21790	157021	27010	1058944	46481	108549	0	0	8241	524715	0	0
2024-09-28 10:53:47			0	38880	0	0	0	23210	21770	157113	27300	1058890	46480	108551	0	0	8239	526032	0	0
2024-09-28 10:54:47			0	38878	0	0	0	23218	21770	157213	27206	1058863	46480	108554	0	0	8239	526108	0	0
2024-09-28 10:55:47			0	38910	0	0	0	23215	21770	157109	27310	1058881	46479	108553	0	0	8241	524887	0	0
2024-09-28 10:56:47			0	38913	0	0	0	23215	21790	157013	27109	1058944	46470	108553	0	0	8241	524715	0	0
2024-09-28 10:57:47			0	38940	0	0	0	23215	21790	157009	26797	1058997	46481	108553	0	0	8243	523686	0	0
2024-09-28 10:58:47			0	38922	0	0	0	23225	21790	157025	26885	1058953	46471	108557	0	0	8241	524372	0	0
2024-09-28 10:59:47			0	38911	0	0	0	23215	21800	156945	27052	1058988	46471	108553	0	0	8241	524762	0	0
2024-09-28 11:00:47			0	38903	0	0	0	23220	21790	156933	27118	1058979	46459	108555	0	0	8240	525096	0	0
2024-09-28 11:01:47			0	38920	0	0	0	23231	21790	156933	26982	1059033	46471	108559	0	0	8241	524448	0	0
2024-09-28 11:02:47			0	38940	0	0	0	23236	21800	156793	27258	1058997	46461	108561	0	0	8242	523657	0	0
2024-09-28 11:03:47			0	38919	0	0	0	23223	21800	156905	27171	1058935	46459	108556	0	0	8241	524457	0	0
2024-09-28 11:04:47			0	38933	0	0	0	23220	21790	156937	27003	1058953	46471	108555	0	0	8242	523953	0	0
2024-09-28 11:05:47			0	38926	0	0	0	23225	21800	156921	27533	1058997	46472	108557	0	0	8242	524190	0	0
2024-09-28 11:06:47			0	38928	0	0	0	23238	21800	156897	27561	1058997	46472	108562	0	0	8242	524114	0	0
2024-09-28 11:07:47			0	38958	0	0	0	23233	21800	156869	27168	1059024	46461	108560	0	0	8243	522972	0	0
2024-09-28 11:08:47			0	38931	0	0	0	23231	21810	156829	27602	1059006	46483	108559	0	0	8242	523971	0	0
2024-09-28 11:09:47			0	38963	0	0	0	23244	21810	156733	27452	1059059	46461	108564	0	0	8244	522753	0	0
2024-09-28 11:10:47			0	38967	0	0	0	23228	21810	156741	27488	1059006	46472	108558	0	0	8244	522601	0	0
2024-09-28 11:11:47			0	38935	0	0	0	23249	21810	156773	27609	1059033	46483	108566	0	0	8242	523818	0	0
2024-09-28 11:12:47			0	38964	0	0	0	23254	21820	156769	27192	1059060	46474	108568	0	0	8244	522686	0	0
2024-09-28 11:13:47			0	38963	0	0	0	23254	21810	156613	27260	1059015	46473	108568	0	0	8243	522753	0	0
2024-09-28 11:14:47			0	38985	0	0	0	23254	21820	156693	27554	1059140	46485	108568	0	0	8245	521888	0	0
2024-09-28 11:15:47			0	38960	0	0	0	23241	21820	156689	27149	1059051	46463	108563	0	0	8243	522838	0	0
2024-09-28 11:16:47			0	38980	0	0	0	23272	21810	156697	27360	1059122	46473	108575	0	0	8244	522107	0	0
2024-09-28 11:17:47			0	38985	0	0	0	23249	21820	156625	27045	1059113	46463	108566	0	0	8245	521888	0	0
2024-09-28 11:18:47			0	38999	0	0	0	23280	21830	156633	27386	1059175	46475	108578	0	0	8245	521327	0	0
2024-09-28 11:19:47			0	38994	0	0	0	23264	21830	156625	27377	1059122	46475	108572	0	0	8245	521517	0	0
2024-09-28 11:20:47			0	38994	0	0	0	23259	21830	156725	27315	1059149	46453	108570	0	0	8245	521517	0	0
2024-09-28 11:21:47			0	39018	0	0	0	23270	21830	156545	27433	1059175	46486	108574	0	0	8246	520606	0	0
2024-09-28 11:22:47			0	38998	0	0	0	23264	21830	156529	27275	1059158	46475	108572	0	0	8245	521365	0	0
2024-09-28 11:23:47			0	39011	0	0	0	23277	21840	156657	27246	1059220	46476	108577	0	0	8246	520842	0	0
2024-09-28 11:24:47			0	39016	0	0	0	23267	21840	156657	27216	1059247	46487	108573	0	0	8246	520653	0	0
2024-09-28 11:25:47			0	39009	0	0	0	23272	21840	156585	27079	1059113	46476	108575	0	0	8246	520918	0	0
2024-09-28 11:26:47			0	39001	0	0	0	23280	21840	156509	27211	1059176	46498	108578	0	0	8245	521222	0	0
2024-09-28 11:27:47			0	39012	0	0	0	23293	21830	156497	27424	1059131	46464	108583	0	0	8246	520833	0	0
2024-09-28 11:28:47			0	39042	0	0	0	23270	21840	156497	27138	1059176	46476	108574	0	0	8248	519667	0	0
2024-09-28 11:29:47			0	39011	0	0	0	23262	21850	156553	27331	1059211	46488	108571	0	0	8246	520813	0	0
2024-09-28 11:30:47			0	38974	0	0	0	23264	21840	156593	27197	1059176	46454	108572	0	0	8244	522247	0	0
2024-09-28 11:31:47			0	38993	0	0	0	23280	21850	156589	27137	1059238	46466	108578	0	0	8245	521497	0	0
2024-09-28 11:32:47			0	39025	0	0	0	23290	21850	156533	27403	1059274	46455	108582	0	0	8247	520282	0	0
2024-09-28 11:33:47			0	39002	0	0	0	23272	21850	156525	27319	1059247	46466	108575	0	0	8246	521155	0	0
2024-09-28 11:34:47			0	39022	0	0	0	23298	21850	156509	27524	1059274	46488	108585	0	0	8246	520396	0	0
2024-09-28 11:35:47			0	39031	0	0	0	23293	21850	156505	27126	1059265	46466	108583	0	0	8247	520055	0	0
2024-09-28 11:36:47			0	39041	0	0	0	23306	21860	156393	27362	1059229	46478	108588	0	0	8247	519647	0	0
2024-09-28 11:37:47			0	39048	0	0	0	23309	21860	156313	27370	1059283	46478	108589	0	0	8248	519382	0	0
2024-09-28 11:38:47			0	39063	0	0	0	23301	21870	156265	27441	1059336	46479	108586	0	0	8249	518785	0	0
2024-09-28 11:39:47			0	39035	0	0	0	23267	21860	156365	27237	1059318	46479	108573	0	0	8248	519874	0	0
2024-09-28 11:40:47			0	39024	0	0	0	23280	21870	156389	27473	1059301	46479	108578	0	0	8247	520262	0	0
2024-09-28 11:41:47			0	39028	0	0	0	23311	21870	156341	27284	1059354	46468	108590	0	0	8246	520111	0	0
2024-09-28 11:42:47			0	39060	0	0	0	23311	21860	156281	27367	1059372	46479	108590	0	0	8248	518927	0	0
2024-09-28 11:43:47			0	39055	0	0	0	23306	21870	156333	27453	1059327	46479	108588	0	0	8248	519088	0	0
2024-09-28 11:44:47			0	39035	0	0	0	23306	21860	156337	27255	1059345	46479	108588	0	0	8247	519874	0	0
2024-09-28 11:45:47			0	39032	0	0	0	23290	21870	156413	27466	1059380	46479	108582	0	0	8247	519959	0	0
2024-09-28 11:46:47			0	39042	0	0	0	23327	21870	156453	27253	1059309	46468	108596	0	0	8247	519580	0	0
2024-09-28 11:47:47			0	39062	0	0	0	23316	21860	156309	27403	1059372	46479	108592	0	0	8248	518852	0	0
2024-09-28 11:48:47			0	39065	0	0	0	23303	21880	156377	27190	1059372	46491	108587	0	0	8249	518680	0	0
2024-09-28 11:49:47			0	39054	0	0	0	23306	21880	156429	27601	1059398	46469	108588	0	0	8248	519097	0	0
2024-09-28 11:50:47			0	39041	0	0	0	23298	21880	156493	27246	1059318	46480	108585	0	0	8247	519589	0	0
2024-09-28 11:51:47			0	39033	0	0	0	23316	21880	156385	27180	1059292	46480	108592	0	0	8247	519892	0	0
2024-09-28 11:52:47			0	39057	0	0	0	23324	21880	156389	27339	1059425	46491	108595	0	0	8248	518983	0	0
2024-09-28 11:53:47			0	39055	0	0	0	23327	21880	156365	27355	1059407	46492	108596	0	0	8248	519059	0	0
2024-09-28 11:54:47			0	39044	0	0	0	23327	21890	156329	27279	1059496	46481	108596	0	0	8247	519447	0	0
2024-09-28 11:55:47			0	39073	0	0	0	23332	21890	156313	27353	1059416	46481	108598	0	0	8249	518349	0	0
2024-09-28 11:56:47			0	39061	0	0	0	23316	21890	156277	27272	1059470	46492	108592	0	0	8248	518803	0	0
2024-09-28 11:57:47			0	39050	0	0	0	23314	21890	156233	27092	1059496	46481	108591	0	0	8248	519219	0	0
2024-09-28 11:58:47			0	39103	0	0	0	23332	21890	156249	27062	1059496	46470	108598	0	0	8251	517215	0	0
2024-09-28 11:59:47			0	39094	0	0	0	23358	21890	156281	26949	1059470	46481	108608	0	0	8250	517555	0	0
2024-09-28 12:00:47			0	39092	0	0	0	23350	21900	156185	27223	1059514	46493	108605	0	0	8250	517602	0	0
2024-09-28 12:01:47			0	39097	0	0	0	23335	21890	156185	27287	1059505	46481	108599	0	0	8250	517441	0	0
2024-09-28 12:02:47			0	39099	0	0	0	23335	21900	156225	27213	1059497	46483	108599	0	0	8250	517337	0	0
2024-09-28 12:03:47			0	39105	0	0	0	23342	21910	156101	27424	1059559	46483	108602	0	0	8251	517082	0	0
2024-09-28 12:04:47			0	39079	0	0	0	23332	21900	156213	27471	1059523	46483	108598	0	0	8249	518093	0	0
2024-09-28 12:05:47			0	39074	0	0	0	23322	21910	156201	27039	1059506	46483	108594	0	0	8249	518253	0	0
2024-09-28 12:06:47			0	39062	0	0	0	23342	21910	156245	27379	1059532	46483	108602	0	0	8248	518707	0	0
2024-09-28 12:07:47			0	39106	0	0	0	23366	21910	156153	27045	1059568	46484	108611	0	0	8250	517044	0	0
2024-09-28 12:08:47			0	39094	0	0	0	23350	21910	156089	27183	1059568	46505	108605	0	0	8250	517497	0	0
2024-09-28 12:09:47			0	39127	0	0	0	23366	21910	156021	27376	1059541	46495	108611	0	0	8251	516251	0	0
2024-09-28 12:10:47			0	39139	0	0	0	23348	21920	156037	27339	1059603	46495	108604	0	0	8252	515769	0	0
2024-09-28 12:11:47			0	39103	0	0	0	23345	21930	156129	27258	1059621	46486	108603	0	0	8250	517099	0	0
2024-09-28 12:12:47			0	39092	0	0	0	23353	21910	156113	27298	1059568	46484	108606	0	0	8250	517573	0	0
2024-09-28 12:13:47			0	39099	0	0	0	23384	21930	156149	27357	1059604	46486	108618	0	0	8250	517251	0	0
2024-09-28 12:14:47			0	39133	0	0	0	23394	21920	156077	27234	1059666	46485	108622	0	0	8251	515996	0	0
2024-09-28 12:15:47			0	39168	0	0	0	23379	21930	155981	27239	1059675	46497	108616	0	0	8254	514648	0	0
2024-09-28 12:16:47			0	39143	0	0	0	23368	21930	155929	27521	1059737	46486	108612	0	0	8252	515590	0	0
2024-09-28 12:17:47			0	39128	0	0	0	23368	21940	156037	27523	1059666	46486	108612	0	0	8252	516127	0	0
2024-09-28 12:18:47			0	39140	0	0	0	23373	21940	156013	27434	1059773	46497	108614	0	0	8252	515674	0	0
2024-09-28 12:19:47			0	39133	0	0	0	23373	21930	156033	27287	1059684	46486	108614	0	0	8252	515967	0	0
2024-09-28 12:20:47			0	39136	0	0	0	23381	21940	155989	27386	1059719	46486	108617	0	0	8252	515825	0	0
2024-09-28 12:21:47			0	39146	0	0	0	23384	21940	155977	27322	1059675	46487	108618	0	0	8252	515448	0	0
2024-09-28 12:22:47			0	39119	0	0	0	23368	21940	156105	27365	1059782	46476	108612	0	0	8251	516466	0	0
2024-09-28 12:23:47			0	39109	0	0	0	23368	21940	156097	27393	1059746	46475	108612	0	0	8250	516844	0	0
2024-09-28 12:24:47			0	39088	0	0	0	23381	21950	156073	27281	1059711	46488	108617	0	0	8249	517608	0	0
2024-09-28 12:25:47			0	39119	0	0	0	23402	21960	156145	27592	1059755	46488	108625	0	0	8251	516409	0	0
2024-09-28 12:26:47			0	39140	0	0	0	23402	21940	156009	27128	1059835	46498	108625	0	0	8252	515674	0	0
2024-09-28 12:27:47			0	39142	0	0	0	23394	21950	155921	27154	1059737	46488	108622	0	0	8252	515570	0	0
2024-09-28 12:28:47			0	39157	0	0	0	23407	21960	155953	27568	1059809	46499	108627	0	0	8253	514976	0	0
2024-09-28 12:29:47			0	39144	0	0	0	23389	21960	156017	27255	1059818	46511	108620	0	0	8252	515466	0	0
2024-09-28 12:30:47			0	39132	0	0	0	23415	21970	155989	27079	1059862	46479	108630	0	0	8251	515890	0	0
2024-09-28 12:31:47			0	39159	0	0	0	23418	21970	155885	27095	1059853	46490	108631	0	0	8253	514872	0	0
2024-09-28 12:32:47			0	39152	0	0	0	23397	21970	155905	27360	1059827	46490	108623	0	0	8253	515136	0	0
2024-09-28 12:33:47			0	39131	0	0	0	23402	21970	155925	27187	1059827	46490	108625	0	0	8251	515927	0	0
2024-09-28 12:34:47			0	39141	0	0	0	23407	21970	155965	27502	1059862	46490	108627	0	0	8252	515550	0	0
2024-09-28 12:35:47			0	39138	0	0	0	23420	21970	155969	27355	1059836	46490	108632	0	0	8251	515663	0	0
2024-09-28 12:36:47			0	39146	0	0	0	23431	21980	155917	27263	1059898	46490	108636	0	0	8252	515333	0	0
2024-09-28 12:37:47			0	39168	0	0	0	23423	21990	155841	27329	1059969	46492	108633	0	0	8253	514476	0	0
2024-09-28 12:38:47			0	39157	0	0	0	23399	21980	155953	27287	1059845	46479	108624	0	0	8253	514918	0	0
2024-09-28 12:39:47			0	39156	0	0	0	23425	21980	155969	27417	1059951	46500	108634	0	0	8252	514956	0	0
2024-09-28 12:40:47			0	39164	0	0	0	23415	21990	155865	27564	1059943	46502	108630	0	0	8253	514626	0	0
2024-09-28 12:41:47			0	39139	0	0	0	23433	21990	155981	27419	1060023	46492	108637	0	0	8251	515568	0	0
2024-09-28 12:42:47			0	39144	0	0	0	23423	21980	155885	27547	1059934	46491	108633	0	0	8252	515408	0	0
2024-09-28 12:43:47			0	39150	0	0	0	23420	21980	155893	27485	1059960	46491	108632	0	0	8252	515182	0	0
2024-09-28 12:44:47			0	39152	0	0	0	23438	22000	155929	27114	1059960	46493	108639	0	0	8252	515049	0	0
2024-09-28 12:45:47			0	39170	0	0	0	23454	22010	155829	27431	1059996	46493	108645	0	0	8253	514343	0	0
2024-09-28 12:46:47			0	39192	0	0	0	23438	21990	155789	27632	1060005	46482	108639	0	0	8254	513572	0	0
2024-09-28 12:47:47			0	39178	0	0	0	23441	22000	155757	27561	1060041	46515	108640	0	0	8253	514070	0	0
2024-09-28 12:48:47			0	39188	0	0	0	23446	22010	155709	27601	1059996	46493	108642	0	0	8254	513666	0	0
2024-09-28 12:49:47			0	39168	0	0	0	23470	22000	155813	27531	1060014	46482	108651	0	0	8252	514447	0	0
2024-09-28 12:50:47			0	39199	0	0	0	23477	22010	155789	27369	1060112	46504	108654	0	0	8254	513252	0	0
2024-09-28 12:51:47			0	39220	0	0	0	23472	22020	155589	27576	1060130	46505	108652	0	0	8255	512434	0	0
2024-09-28 12:52:47			0	39228	0	0	0	23446	22020	155537	27438	1060067	46505	108642	0	0	8256	512133	0	0
2024-09-28 12:53:47			0	39227	0	0	0	23446	22020	155669	27467	1060094	46505	108642	0	0	8256	512171	0	0
2024-09-28 12:54:47			0	39208	0	0	0	23457	22020	155681	27331	1060067	46505	108646	0	0	8255	512885	0	0
2024-09-28 12:55:47			0	39218	0	0	0	23470	22020	155577	27313	1060067	46505	108651	0	0	8255	512509	0	0
2024-09-28 12:56:47			0	39219	0	0	0	23436	22030	155597	27291	1060139	46505	108638	0	0	8256	512443	0	0
2024-09-28 12:57:47			0	39214	0	0	0	23464	22020	155649	27367	1060041	46473	108649	0	0	8255	512659	0	0
2024-09-28 12:58:47			0	39215	0	0	0	23467	22020	155557	27538	1060103	46495	108650	0	0	8255	512622	0	0
2024-09-28 12:59:47			0	39229	0	0	0	23462	22020	155529	27365	1060156	46495	108648	0	0	8256	512096	0	0
2024-09-28 13:00:47			0	39246	0	0	0	23488	22030	155417	27348	1060165	46495	108658	0	0	8257	511429	0	0
2024-09-28 13:01:47			0	39249	0	0	0	23485	22030	155481	27474	1060174	46506	108657	0	0	8257	511317	0	0
2024-09-28 13:02:47			0	39269	0	0	0	23472	22030	155569	27199	1060201	46496	108652	0	0	8258	510567	0	0
2024-09-28 13:03:47			0	39243	0	0	0	23464	22040	155481	27307	1060183	46497	108649	0	0	8257	511513	0	0
2024-09-28 13:04:47			0	39261	0	0	0	23496	22040	155493	27376	1060210	46497	108661	0	0	8258	510838	0	0
2024-09-28 13:05:47			0	39249	0	0	0	23483	22040	155481	27519	1060192	46507	108656	0	0	8257	511288	0	0
2024-09-28 13:06:47			0	39258	0	0	0	23477	22040	155389	27464	1060219	46497	108654	0	0	8258	510951	0	0
2024-09-28 13:07:47			0	39262	0	0	0	23488	22050	155493	27479	1060228	46507	108658	0	0	8258	510772	0	0
2024-09-28 13:08:47			0	39301	0	0	0	23493	22050	155393	27409	1060308	46486	108660	0	0	8260	509311	0	0
2024-09-28 13:09:47			0	39285	0	0	0	23503	22060	155385	27133	1060300	46499	108664	0	0	8259	509882	0	0
2024-09-28 13:10:47			0	39308	0	0	0	23506	22060	155285	27357	1060219	46488	108665	0	0	8260	509021	0	0
2024-09-28 13:11:47			0	39337	0	0	0	23503	22060	155273	27386	1060308	46522	108664	0	0	8262	507937	0	0
2024-09-28 13:12:47			0	39327	0	0	0	23485	22060	155253	27573	1060335	46510	108657	0	0	8262	508310	0	0
2024-09-28 13:13:47			0	39312	0	0	0	23470	22060	155301	27312	1060273	46488	108651	0	0	8261	508871	0	0
2024-09-28 13:14:47			0	39281	0	0	0	23472	22060	155381	27301	1060273	46499	108652	0	0	8259	510032	0	0
2024-09-28 13:15:47			0	39294	0	0	0	23516	22060	155385	27327	1060273	46499	108669	0	0	8259	509545	0	0
2024-09-28 13:16:47			0	39319	0	0	0	23519	22060	155225	27367	1060308	46510	108670	0	0	8261	508610	0	0
2024-09-28 13:17:47			0	39338	0	0	0	23516	22070	155217	27568	1060371	46500	108669	0	0	8262	507871	0	0
2024-09-28 13:18:47			0	39344	0	0	0	23511	22080	155085	27528	1060416	46511	108667	0	0	8262	507618	0	0
2024-09-28 13:19:47			0	39339	0	0	0	23527	22080	155145	27329	1060398	46512	108673	0	0	8262	507805	0	0
2024-09-28 13:20:47			0	39348	0	0	0	23527	22070	155077	27457	1060380	46500	108673	0	0	8262	507497	0	0
2024-09-28 13:21:47			0	39326	0	0	0	23506	22070	155157	27319	1060344	46510	108665	0	0	8261	508319	0	0
2024-09-28 13:22:47			0	39330	0	0	0	23535	22080	155197	27419	1060371	46512	108676	0	0	8261	508141	0	0
2024-09-28 13:23:47			0	39356	0	0	0	23519	22080	155165	27507	1060451	46501	108670	0	0	8263	507170	0	0
2024-09-28 13:24:47			0	39334	0	0	0	23522	22080	155169	27424	1060398	46512	108671	0	0	8261	507992	0	0
2024-09-28 13:25:47			0	39327	0	0	0	23509	22080	155161	27426	1060398	46501	108666	0	0	8261	508254	0	0
2024-09-28 13:26:47			0	39338	0	0	0	23535	22080	155213	27124	1060425	46491	108676	0	0	8261	507843	0	0
2024-09-28 13:27:47			0	39362	0	0	0	23532	22080	155161	27365	1060416	46511	108675	0	0	8263	506946	0	0
2024-09-28 13:28:47			0	39361	0	0	0	23537	22090	155073	27196	1060434	46501	108677	0	0	8263	506955	0	0
2024-09-28 13:29:47			0	39329	0	0	0	23519	22080	155105	27386	1060451	46501	108670	0	0	8261	508179	0	0
2024-09-28 13:30:47			0	39310	0	0	0	23524	22090	155217	27488	1060469	46501	108672	0	0	8260	508861	0	0
2024-09-28 13:31:47			0	39331	0	0	0	23555	22090	155169	27450	1060443	46501	108684	0	0	8261	508076	0	0
2024-09-28 13:32:47			0	39337	0	0	0	23540	22090	155053	27625	1060496	46501	108678	0	0	8261	507852	0	0
2024-09-28 13:33:47			0	39340	0	0	0	23522	22100	155217	27490	1060514	46514	108671	0	0	8262	507711	0	0
2024-09-28 13:34:47			0	39321	0	0	0	23519	22090	155145	27452	1060443	46501	108670	0	0	8261	508450	0	0
2024-09-28 13:35:47			0	39311	0	0	0	23529	22090	155181	27609	1060469	46501	108674	0	0	8260	508824	0	0
2024-09-28 13:36:47			0	39311	0	0	0	23545	22100	155181	27434	1060514	46514	108680	0	0	8260	508795	0	0
2024-09-28 13:37:47			0	39331	0	0	0	23561	22110	155217	27287	1060550	46526	108686	0	0	8261	508019	0	0
2024-09-28 13:38:47			0	39354	0	0	0	23568	22110	155169	27355	1060576	46514	108689	0	0	8262	507160	0	0
2024-09-28 13:39:47			0	39369	0	0	0	23566	22110	155033	27319	1060585	46503	108688	0	0	8263	506600	0	0
2024-09-28 13:40:47			0	39362	0	0	0	23542	22110	155081	27287	1060585	46526	108679	0	0	8263	506861	0	0
2024-09-28 13:41:47			0	39343	0	0	0	23540	22120	155077	27447	1060576	46528	108678	0	0	8262	507543	0	0
2024-09-28 13:42:47			0	39345	0	0	0	23568	22110	155049	27331	1060558	46503	108689	0	0	8261	507496	0	0
2024-09-28 13:43:47			0	39376	0	0	0	23576	22120	155053	27493	1060674	46504	108692	0	0	8263	506311	0	0
2024-09-28 13:44:47			0	39382	0	0	0	23579	22130	154933	27329	1060665	46517	108693	0	0	8263	506059	0	0
2024-09-28 13:45:47			0	39407	0	0	0	23561	22130	154965	27407	1060728	46517	108686	0	0	8265	505127	0	0
2024-09-28 13:46:47			0	39371	0	0	0	23566	22130	155061	27436	1060728	46506	108688	0	0	8263	506469	0	0
2024-09-28 13:47:47			0	39366	0	0	0	23555	22130	155037	27469	1060639	46517	108684	0	0	8263	506656	0	0
2024-09-28 13:48:47			0	39337	0	0	0	23561	22130	155129	27358	1060621	46506	108686	0	0	8261	507738	0	0
2024-09-28 13:49:47			0	39340	0	0	0	23571	22140	155069	27632	1060737	46485	108690	0	0	8261	507598	0	0
2024-09-28 13:50:47			0	39348	0	0	0	23576	22130	155073	27374	1060648	46529	108692	0	0	8262	507328	0	0
2024-09-28 13:51:47			0	39374	0	0	0	23597	22140	155001	27568	1060719	46507	108700	0	0	8263	506329	0	0
2024-09-28 13:52:47			0	39385	0	0	0	23592	22140	154997	27678	1060799	46519	108698	0	0	8263	505919	0	0
2024-09-28 13:53:47			0	39387	0	0	0	23594	22150	154997	27357	1060684	46541	108699	0	0	8264	505816	0	0
2024-09-28 13:54:47			0	39387	0	0	0	23592	22140	154945	27312	1060692	46530	108698	0	0	8264	505844	0	0
2024-09-28 13:55:47			0	39387	0	0	0	23592	22140	154885	27757	1060666	46530	108698	0	0	8264	505844	0	0
2024-09-28 13:56:47			0	39395	0	0	0	23602	22140	154873	27429	1060772	46519	108702	0	0	8264	505546	0	0
2024-09-28 13:57:47			0	39419	0	0	0	23599	22150	154882	27562	1060817	46520	108701	0	0	8265	504624	0	0
2024-09-28 13:58:47			0	39398	0	0	0	23592	22160	154817	27770	1060746	46520	108698	0	0	8264	505378	0	0
2024-09-28 13:59:47			0	39388	0	0	0	23586	22160	154869	27668	1060853	46520	108696	0	0	8264	505751	0	0
2024-09-28 14:00:47			0	39384	0	0	0	23599	22170	154913	27542	1060844	46510	108701	0	0	8263	505872	0	0
2024-09-28 14:01:47			0	39406	0	0	0	23628	22160	154973	27509	1060826	46508	108712	0	0	8264	505080	0	0
2024-09-28 14:02:47			0	39394	0	0	0	23592	22160	154921	27409	1060782	46521	108698	0	0	8264	505527	0	0
2024-09-28 14:03:47			0	39385	0	0	0	23592	22160	154933	27310	1060835	46521	108698	0	0	8264	505862	0	0
2024-09-28 14:04:47			0	39368	0	0	0	23571	22170	155057	27164	1060791	46489	108690	0	0	8263	506468	0	0
2024-09-28 14:05:47			0	39313	0	0	0	23568	22160	155177	27211	1060728	46509	108689	0	0	8260	508550	0	0
2024-09-28 14:06:47			0	39323	0	0	0	23599	22160	155201	27476	1060799	46487	108701	0	0	8260	508176	0	0
2024-09-28 14:07:47			0	39332	0	0	0	23599	22160	155229	27531	1060808	46509	108701	0	0	8260	507840	0	0
2024-09-28 14:08:47			0	39339	0	0	0	23607	22170	155037	27698	1060791	46510	108704	0	0	8261	507550	0	0
2024-09-28 14:09:47			0	39358	0	0	0	23589	22160	155125	27613	1060808	46509	108697	0	0	8262	506869	0	0
2024-09-28 14:10:47			0	39341	0	0	0	23597	22160	155217	27256	1060782	46521	108700	0	0	8261	507504	0	0
2024-09-28 14:11:47			0	39344	0	0	0	23618	22160	155177	27502	1060773	46520	108708	0	0	8261	507392	0	0
2024-09-28 14:12:47			0	39373	0	0	0	23605	22160	154973	27627	1060862	46521	108703	0	0	8263	506310	0	0
2024-09-28 14:13:47			0	39369	0	0	0	23602	22170	154925	27229	1060906	46510	108702	0	0	8263	506431	0	0
2024-09-28 14:14:47			0	39382	0	0	0	23607	22180	154813	27362	1060888	46510	108704	0	0	8263	505918	0	0
2024-09-28 14:15:47			0	39378	0	0	0	23607	22180	154993	27511	1060942	46510	108704	0	0	8263	506067	0	0
2024-09-28 14:16:47			0	39384	0	0	0	23607	22170	155033	27547	1060960	46510	108704	0	0	8263	505872	0	0
2024-09-28 14:17:47			0	39383	0	0	0	23633	22180	155017	27348	1060915	46521	108714	0	0	8263	505881	0	0
2024-09-28 14:18:47			0	39409	0	0	0	23623	22190	154858	27594	1060960	46524	108710	0	0	8265	504884	0	0
2024-09-28 14:19:47			0	39380	0	0	0	23618	22180	154777	27757	1060977	46523	108708	0	0	8263	505992	0	0
2024-09-28 14:20:47			0	39376	0	0	0	23605	22180	154933	27421	1060915	46521	108703	0	0	8263	506141	0	0
2024-09-28 14:21:47			0	39358	0	0	0	23607	22180	154969	27576	1060835	46521	108704	0	0	8262	506813	0	0
2024-09-28 14:22:47			0	39387	0	0	0	23628	22170	154809	27516	1060897	46521	108712	0	0	8263	505760	0	0
2024-09-28 14:23:47			0	39413	0	0	0	23620	22190	154750	27783	1060995	46513	108709	0	0	8265	504735	0	0
2024-09-28 14:24:47			0	39386	0	0	0	23615	22180	154873	27249	1060897	46523	108707	0	0	8263	505769	0	0
2024-09-28 14:25:47			0	39401	0	0	0	23623	22190	154829	27542	1060906	46512	108710	0	0	8264	505182	0	0
2024-09-28 14:26:47			0	39401	0	0	0	23641	22180	154761	27514	1060951	46523	108717	0	0	8264	505210	0	0
2024-09-28 14:27:47			0	39421	0	0	0	23618	22200	154746	27424	1060951	46525	108708	0	0	8265	504409	0	0
2024-09-28 14:28:47			0	39425	0	0	0	23641	22190	154670	27789	1060986	46512	108717	0	0	8265	504288	0	0
2024-09-28 14:29:47			0	39465	0	0	0	23636	22200	154498	27758	1061058	46536	108715	0	0	8268	502774	0	0
2024-09-28 14:30:47			0	39430	0	0	0	23610	22200	154686	27710	1061014	46525	108705	0	0	8266	504074	0	0
2024-09-28 14:31:47			0	39393	0	0	0	23599	22200	154865	27755	1060924	46513	108701	0	0	8264	505451	0	0
2024-09-28 14:32:47			0	39346	0	0	0	23599	22200	155085	27493	1060978	46502	108701	0	0	8261	507204	0	0
2024-09-28 14:33:47			0	39352	0	0	0	23618	22190	155065	27561	1060915	46502	108708	0	0	8261	507008	0	0
2024-09-28 14:34:47			0	39340	0	0	0	23623	22190	155037	27531	1060969	46513	108710	0	0	8261	507456	0	0
2024-09-28 14:35:47			0	39374	0	0	0	23623	22190	154977	27376	1060969	46513	108710	0	0	8263	506188	0	0
2024-09-28 14:36:47			0	39384	0	0	0	23633	22190	155077	27835	1060995	46525	108714	0	0	8263	505815	0	0
2024-09-28 14:37:47			0	39374	0	0	0	23623	22200	154949	27805	1060951	46525	108710	0	0	8263	506159	0	0
2024-09-28 14:38:47			0	39374	0	0	0	23623	22190	154909	27968	1060995	46525	108710	0	0	8263	506188	0	0
2024-09-28 14:39:47			0	39363	0	0	0	23599	22200	154917	27710	1060978	46525	108701	0	0	8262	506570	0	0
2024-09-28 14:40:47			0	39361	0	0	0	23618	22200	155101	27524	1061014	46513	108708	0	0	8262	506644	0	0
2024-09-28 14:41:47			0	39361	0	0	0	23610	22190	155061	27803	1060986	46512	108705	0	0	8262	506673	0	0
2024-09-28 14:42:47			0	39332	0	0	0	23605	22190	155081	27414	1060986	46512	108703	0	0	8260	507755	0	0
2024-09-28 14:43:47			0	39315	0	0	0	23633	22200	155093	27826	1060951	46513	108714	0	0	8259	508362	0	0
2024-09-28 14:44:47			0	39364	0	0	0	23638	22200	154949	27524	1060951	46525	108716	0	0	8262	506532	0	0
2024-09-28 14:45:47			0	39373	0	0	0	23631	22200	154933	27819	1061014	46536	108713	0	0	8262	506197	0	0
2024-09-28 14:46:47			0	39376	0	0	0	23607	22200	154929	27220	1061067	46513	108704	0	0	8263	506085	0	0
2024-09-28 14:47:47			0	39353	0	0	0	23615	22200	155061	27485	1060978	46525	108707	0	0	8262	506943	0	0
2024-09-28 14:48:47			0	39347	0	0	0	23628	22200	154985	27325	1061014	46513	108712	0	0	8261	507167	0	0
2024-09-28 14:49:47			0	39383	0	0	0	23631	22200	154957	27360	1060978	46525	108713	0	0	8263	505824	0	0
2024-09-28 14:50:47			0	39397	0	0	0	23633	22200	154837	27566	1061067	46525	108714	0	0	8264	505302	0	0
2024-09-28 14:51:47			0	39381	0	0	0	23636	22210	154905	27457	1061076	46537	108715	0	0	8263	505870	0	0
2024-09-28 14:52:47			0	39372	0	0	0	23633	22200	154933	27104	1061067	46513	108714	0	0	8262	506234	0	0
2024-09-28 14:53:47			0	39402	0	0	0	23651	22200	154877	27346	1061014	46525	108721	0	0	8264	505116	0	0
2024-09-28 14:54:47			0	39417	0	0	0	23628	22200	154790	27447	1061014	46513	108712	0	0	8265	504558	0	0
2024-09-28 14:55:47			0	39414	0	0	0	23625	22210	154774	27471	1061032	46538	108711	0	0	8265	504641	0	0
2024-09-28 14:56:47			0	39387	0	0	0	23636	22200	154893	27294	1061014	46513	108715	0	0	8263	505675	0	0
2024-09-28 14:57:47			0	39425	0	0	0	23657	22200	154770	27533	1061084	46513	108723	0	0	8265	504260	0	0
2024-09-28 14:58:47			0	39441	0	0	0	23625	22210	154726	27462	1061049	46537	108711	0	0	8266	503637	0	0
2024-09-28 14:59:47			0	39419	0	0	0	23631	22210	154810	27606	1061085	46483	108713	0	0	8265	504455	0	0
2024-09-28 15:00:47			0	39393	0	0	0	23636	22210	154841	27623	1061076	46514	108715	0	0	8264	505423	0	0
2024-09-28 15:01:47			0	39391	0	0	0	23625	22210	154793	27640	1061058	46527	108711	0	0	8264	505498	0	0
2024-09-28 15:02:47			0	39378	0	0	0	23638	22210	154829	27466	1061085	46515	108716	0	0	8263	505982	0	0
2024-09-28 15:03:47			0	39398	0	0	0	23633	22210	154837	27383	1061058	46515	108714	0	0	8264	505237	0	0
2024-09-28 15:04:47			0	39391	0	0	0	23636	22220	154885	27235	1061094	46515	108715	0	0	8263	505470	0	0
2024-09-28 15:05:47			0	39374	0	0	0	23636	22210	154905	27352	1061076	46514	108715	0	0	8262	506131	0	0
2024-09-28 15:06:47			0	39401	0	0	0	23646	22210	154885	27258	1061058	46527	108719	0	0	8264	505125	0	0
2024-09-28 15:07:47			0	39395	0	0	0	23649	22200	154829	27440	1061040	46513	108720	0	0	8263	505377	0	0
2024-09-28 15:08:47			0	39397	0	0	0	23644	22210	154777	27589	1061165	46527	108718	0	0	8264	505274	0	0
2024-09-28 15:09:47			0	39401	0	0	0	23662	22220	154801	27244	1061121	46515	108725	0	0	8264	505097	0	0
2024-09-28 15:10:47			0	39410	0	0	0	23646	22220	154741	27350	1061121	46527	108719	0	0	8264	504762	0	0
2024-09-28 15:11:47			0	39392	0	0	0	23662	22220	154929	27282	1061156	46515	108725	0	0	8263	505432	0	0
2024-09-28 15:12:47			0	39400	0	0	0	23654	22220	154945	27294	1061201	46538	108722	0	0	8264	505134	0	0
2024-09-28 15:13:47			0	39390	0	0	0	23644	22220	154917	27620	1061147	46527	108718	0	0	8263	505507	0	0
2024-09-28 15:14:47			0	39381	0	0	0	23657	22230	154949	27637	1061112	46528	108723	0	0	8263	505814	0	0
2024-09-28 15:15:47			0	39380	0	0	0	23638	22230	154981	27727	1061139	46516	108716	0	0	8263	505851	0	0
2024-09-28 15:16:47			0	39382	0	0	0	23654	22220	154789	27398	1061076	46515	108722	0	0	8263	505805	0	0
2024-09-28 15:17:47			0	39414	0	0	0	23654	22220	154697	27457	1061121	46527	108722	0	0	8264	504613	0	0
2024-09-28 15:18:47			0	39442	0	0	0	23649	22220	154650	27339	1061210	46538	108720	0	0	8266	503572	0	0
2024-09-28 15:19:47			0	39440	0	0	0	23657	22220	154646	27618	1061130	46515	108723	0	0	8266	503646	0	0
2024-09-28 15:20:47			0	39434	0	0	0	23651	22220	154618	27499	1061130	46515	108721	0	0	8266	503869	0	0
2024-09-28 15:21:47			0	39433	0	0	0	23651	22220	154706	27403	1061103	46515	108721	0	0	8266	503906	0	0
2024-09-28 15:22:47			0	39411	0	0	0	23646	22220	154697	27526	1061156	46515	108719	0	0	8264	504725	0	0
2024-09-28 15:23:47			0	39432	0	0	0	23657	22220	154666	27126	1061121	46515	108723	0	0	8265	503944	0	0
2024-09-28 15:24:47			0	39460	0	0	0	23670	22220	154626	27460	1061130	46527	108728	0	0	8267	502903	0	0
2024-09-28 15:25:47			0	39462	0	0	0	23636	22230	154558	27528	1061148	46517	108715	0	0	8268	502801	0	0
2024-09-28 15:26:47			0	39430	0	0	0	23646	22230	154722	27150	1061139	46528	108719	0	0	8266	503990	0	0
2024-09-28 15:27:47			0	39411	0	0	0	23628	22230	154701	27492	1061148	46517	108712	0	0	8265	504697	0	0
2024-09-28 15:28:47			0	39372	0	0	0	23641	22220	154829	27374	1061121	46515	108717	0	0	8262	506177	0	0
2024-09-28 15:29:47			0	39382	0	0	0	23636	22220	154933	27149	1061076	46527	108715	0	0	8263	505805	0	0
2024-09-28 15:30:47			0	39379	0	0	0	23646	22230	154845	27505	1061085	46516	108719	0	0	8263	505888	0	0
2024-09-28 15:31:47			0	39402	0	0	0	23654	22230	154829	27322	1061139	46516	108722	0	0	8264	505032	0	0
2024-09-28 15:32:47			0	39413	0	0	0	23651	22230	154858	27654	1061165	46528	108721	0	0	8264	504622	0	0
2024-09-28 15:33:47			0	39440	0	0	0	23659	22230	154690	27659	1061121	46529	108724	0	0	8266	503618	0	0
2024-09-28 15:34:47			0	39459	0	0	0	23649	22240	154602	27587	1061130	46517	108720	0	0	8267	502884	0	0
2024-09-28 15:35:47			0	39457	0	0	0	23649	22220	154610	27319	1061147	46504	108720	0	0	8267	503014	0	0
2024-09-28 15:36:47			0	39457	0	0	0	23646	22230	154634	27448	1061192	46516	108719	0	0	8267	502986	0	0
2024-09-28 15:37:47			0	39465	0	0	0	23651	22230	154562	27343	1061094	46496	108721	0	0	8267	502689	0	0
2024-09-28 15:38:47			0	39441	0	0	0	23636	22220	154594	27395	1061156	46515	108715	0	0	8266	503609	0	0
2024-09-28 15:39:47			0	39437	0	0	0	23631	22230	154578	27583	1061165	46528	108713	0	0	8266	503729	0	0
2024-09-28 15:40:47			0	39451	0	0	0	23631	22230	154722	27422	1061165	46528	108713	0	0	8267	503209	0	0
2024-09-28 15:41:47			0	39406	0	0	0	23636	22230	154690	27589	1061085	46539	108715	0	0	8264	504883	0	0
2024-09-28 15:42:47			0	39437	0	0	0	23641	22220	154686	27469	1061210	46527	108717	0	0	8266	503758	0	0
2024-09-28 15:43:47			0	39425	0	0	0	23641	22220	154834	27543	1061050	46527	108717	0	0	8265	504204	0	0
2024-09-28 15:44:47			0	39437	0	0	0	23636	22230	154778	27265	1061085	46516	108715	0	0	8266	503729	0	0
2024-09-28 15:45:47			0	39440	0	0	0	23644	22210	154698	27364	1061085	46527	108718	0	0	8266	503674	0	0
2024-09-28 15:46:47			0	39462	0	0	0	23649	22220	154590	27614	1061130	46515	108720	0	0	8267	502829	0	0
2024-09-28 15:47:47			0	39470	0	0	0	23649	22230	154622	27345	1061121	46506	108720	0	0	8268	502504	0	0
2024-09-28 15:48:47			0	39436	0	0	0	23636	22230	154698	27498	1061094	46529	108715	0	0	8266	503767	0	0
2024-09-28 15:49:47			0	39464	0	0	0	23651	22220	154666	27395	1061076	46504	108721	0	0	8267	502754	0	0
2024-09-28 15:50:47			0	39460	0	0	0	23644	22230	154710	27543	1061139	46516	108718	0	0	8267	502875	0	0
2024-09-28 15:51:47			0	39466	0	0	0	23657	22210	154578	27249	1061112	46527	108723	0	0	8267	502708	0	0
2024-09-28 15:52:47			0	39457	0	0	0	23641	22220	154646	27351	1061076	46527	108717	0	0	8267	503014	0	0
2024-09-28 15:53:47			0	39423	0	0	0	23631	22220	154758	27715	1061156	46515	108713	0	0	8265	504278	0	0
2024-09-28 15:54:47			0	39399	0	0	0	23628	22230	154893	27656	1061112	46528	108712	0	0	8264	505143	0	0
2024-09-28 15:55:47			0	39394	0	0	0	23636	22220	154897	27531	1061067	46527	108715	0	0	8264	505358	0	0
2024-09-28 15:56:47			0	39397	0	0	0	23628	22220	154945	27455	1061067	46515	108712	0	0	8264	505246	0	0
2024-09-28 15:57:47			0	39417	0	0	0	23644	22220	154774	27531	1061130	46527	108718	0	0	8265	504502	0	0
2024-09-28 15:58:47			0	39418	0	0	0	23633	22220	154834	27230	1061041	46515	108714	0	0	8265	504464	0	0
2024-09-28 15:59:47			0	39432	0	0	0	23646	22210	154754	27876	1061085	46527	108719	0	0	8266	503972	0	0
2024-09-28 16:00:47			0	39428	0	0	0	23651	22220	154726	27282	1061094	46527	108721	0	0	8265	504092	0	0
2024-09-28 16:01:47			0	39432	0	0	0	23631	22220	154758	27447	1061121	46527	108713	0	0	8266	503944	0	0
2024-09-28 16:02:47			0	39427	0	0	0	23636	22220	154862	27628	1061076	46515	108715	0	0	8266	504130	0	0
2024-09-28 16:03:47			0	39397	0	0	0	23633	22220	154781	27300	1061130	46527	108714	0	0	8264	505246	0	0
2024-09-28 16:04:47			0	39410	0	0	0	23649	22220	154849	27585	1061103	46515	108720	0	0	8264	504762	0	0
2024-09-28 16:05:47			0	39426	0	0	0	23649	22220	154678	27232	1061174	46527	108720	0	0	8265	504167	0	0
2024-09-28 16:06:47			0	39411	0	0	0	23638	22220	154933	27388	1061121	46538	108716	0	0	8265	504725	0	0
2024-09-28 16:07:47			0	39408	0	0	0	23646	22220	154881	27407	1061156	46515	108719	0	0	8264	504836	0	0
2024-09-28 16:08:47			0	39415	0	0	0	23646	22220	154733	27607	1061076	46515	108719	0	0	8265	504576	0	0
2024-09-28 16:09:47			0	39407	0	0	0	23625	22220	154797	27428	1061076	46527	108711	0	0	8265	504874	0	0
2024-09-28 16:10:47			0	39381	0	0	0	23628	22210	154949	27632	1061058	46515	108712	0	0	8263	505870	0	0
2024-09-28 16:11:47			0	39382	0	0	0	23641	22220	154853	27473	1061094	46515	108717	0	0	8263	505805	0	0
2024-09-28 16:12:47			0	39395	0	0	0	23644	22220	154849	27412	1061121	46527	108718	0	0	8264	505321	0	0
2024-09-28 16:13:47			0	39412	0	0	0	23649	22210	154873	27416	1061138	46515	108720	0	0	8264	504716	0	0
2024-09-28 16:14:47			0	39429	0	0	0	23646	22220	154746	27372	1061103	46515	108719	0	0	8265	504055	0	0
2024-09-28 16:15:47			0	39433	0	0	0	23638	22230	154798	27332	1061094	46529	108716	0	0	8266	503878	0	0
2024-09-28 16:16:47			0	39418	0	0	0	23644	22220	154874	27618	1061121	46515	108718	0	0	8265	504464	0	0
2024-09-28 16:17:47			0	39391	0	0	0	23628	22220	154893	27154	1061103	46527	108712	0	0	8264	505470	0	0
2024-09-28 16:18:47			0	39375	0	0	0	23644	22220	154845	27267	1061094	46515	108718	0	0	8262	506066	0	0
2024-09-28 16:19:47			0	39422	0	0	0	23644	22220	154786	27519	1061156	46527	108718	0	0	8265	504316	0	0
2024-09-28 16:20:47			0	39407	0	0	0	23641	22220	154709	27601	1061067	46527	108717	0	0	8264	504874	0	0
2024-09-28 16:21:47			0	39412	0	0	0	23628	22210	154858	27267	1061112	46538	108712	0	0	8265	504716	0	0
2024-09-28 16:22:47			0	39382	0	0	0	23625	22210	154881	27332	1061112	46527	108711	0	0	8263	505833	0	0
2024-09-28 16:23:47			0	39393	0	0	0	23638	22220	154865	27329	1061041	46515	108716	0	0	8264	505395	0	0
2024-09-28 16:24:47			0	39367	0	0	0	23641	22210	154897	27263	1061005	46527	108717	0	0	8262	506392	0	0
2024-09-28 16:25:47			0	39367	0	0	0	23636	22210	155017	27305	1061058	46527	108715	0	0	8262	506392	0	0
2024-09-28 16:26:47			0	39362	0	0	0	23636	22210	155089	27256	1061112	46548	108715	0	0	8262	506579	0	0
2024-09-28 16:27:47			0	39352	0	0	0	23633	22210	154917	27390	1061085	46515	108714	0	0	8261	506952	0	0
2024-09-28 16:28:47			0	39335	0	0	0	23633	22210	155045	27623	1061049	46514	108714	0	0	8260	507586	0	0
2024-09-28 16:29:47			0	39327	0	0	0	23610	22200	155013	27512	1061040	46525	108705	0	0	8260	507914	0	0
2024-09-28 16:30:47			0	39320	0	0	0	23618	22210	155093	27575	1061076	46514	108708	0	0	8260	508147	0	0
2024-09-28 16:31:47			0	39332	0	0	0	23625	22200	155073	27301	1060987	46513	108711	0	0	8260	507727	0	0
2024-09-28 16:32:47			0	39331	0	0	0	23618	22200	155101	27606	1061014	46513	108708	0	0	8260	507764	0	0
2024-09-28 16:33:47			0	39362	0	0	0	23620	22190	155141	27440	1061022	46513	108709	0	0	8262	506635	0	0
2024-09-28 16:34:47			0	39311	0	0	0	23610	22200	155185	27216	1060960	46513	108705	0	0	8259	508511	0	0
2024-09-28 16:35:47			0	39302	0	0	0	23597	22200	155193	27471	1060978	46513	108700	0	0	8259	508848	0	0
2024-09-28 16:36:47			0	39305	0	0	0	23607	22190	155305	27343	1060986	46524	108704	0	0	8259	508764	0	0
2024-09-28 16:37:47			0	39299	0	0	0	23612	22200	155237	27524	1060960	46502	108706	0	0	8258	508960	0	0
2024-09-28 16:38:47			0	39293	0	0	0	23612	22200	155265	27397	1061040	46513	108706	0	0	8258	509184	0	0
2024-09-28 16:39:47			0	39274	0	0	0	23605	22190	155265	27301	1061013	46524	108703	0	0	8257	509924	0	0
2024-09-28 16:40:47			0	39275	0	0	0	23599	22190	155309	27462	1060969	46513	108701	0	0	8257	509886	0	0
2024-09-28 16:41:47			0	39288	0	0	0	23586	22190	155301	27284	1060960	46535	108696	0	0	8258	509400	0	0
2024-09-28 16:42:47			0	39274	0	0	0	23597	22190	155301	27497	1060906	46512	108700	0	0	8257	509924	0	0
2024-09-28 16:43:47			0	39265	0	0	0	23586	22180	155365	27206	1060897	46511	108696	0	0	8257	510290	0	0
2024-09-28 16:44:47			0	39257	0	0	0	23592	22180	155453	27298	1060977	46511	108698	0	0	8256	510589	0	0
2024-09-28 16:45:47			0	39258	0	0	0	23581	22180	155465	27364	1060915	46510	108694	0	0	8257	510552	0	0
2024-09-28 16:46:47			0	39227	0	0	0	23574	22180	155517	27383	1060862	46510	108691	0	0	8255	511714	0	0
2024-09-28 16:47:47			0	39191	0	0	0	23568	22180	155521	27234	1060915	46500	108689	0	0	8253	513066	0	0
2024-09-28 16:48:47			0	39206	0	0	0	23563	22180	155621	27445	1060871	46511	108687	0	0	8254	512502	0	0
2024-09-28 16:49:47			0	39178	0	0	0	23576	22160	155669	27268	1060808	46509	108692	0	0	8252	513612	0	0
2024-09-28 16:50:47			0	39222	0	0	0	23586	22170	155601	27424	1060817	46510	108696	0	0	8254	511930	0	0
2024-09-28 16:51:47			0	39254	0	0	0	23592	22160	155425	27258	1060808	46509	108698	0	0	8256	510759	0	0
2024-09-28 16:52:47			0	39269	0	0	0	23574	22160	155449	27223	1060808	46521	108691	0	0	8257	510197	0	0
2024-09-28 16:53:47			0	39246	0	0	0	23574	22160	155409	27137	1060862	46509	108691	0	0	8256	511059	0	0
2024-09-28 16:54:47			0	39231	0	0	0	23571	22170	155513	27128	1060871	46500	108690	0	0	8255	511593	0	0
2024-09-28 16:55:47			0	39239	0	0	0	23576	22170	155493	27395	1060844	46510	108692	0	0	8255	511293	0	0
2024-09-28 16:56:47			0	39246	0	0	0	23568	22170	155433	27395	1060800	46521	108689	0	0	8256	511030	0	0
2024-09-28 16:57:47			0	39259	0	0	0	23571	22160	155393	27071	1060862	46509	108690	0	0	8257	510571	0	0
2024-09-28 16:58:47			0	39284	0	0	0	23586	22160	155445	27390	1060746	46531	108696	0	0	8258	509635	0	0
2024-09-28 16:59:47			0	39277	0	0	0	23574	22150	155361	27357	1060790	46520	108691	0	0	8258	509925	0	0
2024-09-28 17:00:47			0	39291	0	0	0	23581	22150	155329	27334	1060870	46508	108694	0	0	8258	509401	0	0
2024-09-28 17:01:47			0	39301	0	0	0	23576	22160	155317	27479	1060879	46498	108692	0	0	8259	508999	0	0
2024-09-28 17:02:47			0	39312	0	0	0	23568	22160	155289	27071	1060808	46509	108689	0	0	8260	508587	0	0
2024-09-28 17:03:47			0	39284	0	0	0	23576	22150	155369	27433	1060835	46498	108692	0	0	8258	509663	0	0
2024-09-28 17:04:47			0	39303	0	0	0	23571	22150	155317	27267	1060790	46508	108690	0	0	8259	508952	0	0
2024-09-28 17:05:47			0	39304	0	0	0	23568	22140	155313	27433	1060746	46507	108689	0	0	8259	508943	0	0
2024-09-28 17:06:47			0	39296	0	0	0	23574	22150	155313	27161	1060790	46508	108691	0	0	8259	509214	0	0
2024-09-28 17:07:47			0	39306	0	0	0	23566	22160	155293	27381	1060853	46520	108688	0	0	8259	508812	0	0
2024-09-28 17:08:47			0	39280	0	0	0	23563	22150	155337	27398	1060755	46520	108687	0	0	8258	509813	0	0
2024-09-28 17:09:47			0	39264	0	0	0	23553	22150	155285	27267	1060755	46520	108683	0	0	8257	510412	0	0
2024-09-28 17:10:47			0	39238	0	0	0	23553	22150	155533	27550	1060684	46508	108683	0	0	8256	511387	0	0
2024-09-28 17:11:47			0	39253	0	0	0	23555	22150	155457	27519	1060755	46508	108684	0	0	8257	510825	0	0
2024-09-28 17:12:47			0	39255	0	0	0	23548	22150	155457	27483	1060710	46508	108681	0	0	8257	510750	0	0
2024-09-28 17:13:47			0	39274	0	0	0	23563	22140	155505	27270	1060692	46507	108687	0	0	8258	510066	0	0
2024-09-28 17:14:47			0	39252	0	0	0	23561	22140	155401	27353	1060683	46529	108686	0	0	8256	510891	0	0
2024-09-28 17:15:47			0	39288	0	0	0	23558	22150	155361	27204	1060675	46508	108685	0	0	8259	509514	0	0
2024-09-28 17:16:47			0	39299	0	0	0	23561	22140	155377	27312	1060737	46506	108686	0	0	8259	509131	0	0
2024-09-28 17:17:47			0	39296	0	0	0	23548	22150	155345	27215	1060755	46508	108681	0	0	8259	509214	0	0
2024-09-28 17:18:47			0	39293	0	0	0	23555	22140	155237	27229	1060737	46517	108684	0	0	8259	509355	0	0
2024-09-28 17:19:47			0	39273	0	0	0	23550	22130	155381	27479	1060701	46517	108682	0	0	8258	510132	0	0
2024-09-28 17:20:47			0	39275	0	0	0	23550	22140	155357	27552	1060710	46506	108682	0	0	8258	510029	0	0
2024-09-28 17:21:47			0	39280	0	0	0	23555	22140	155389	27114	1060630	46506	108684	0	0	8258	509842	0	0
2024-09-28 17:22:47			0	39268	0	0	0	23550	22140	155433	27196	1060772	46519	108682	0	0	8257	510291	0	0
2024-09-28 17:23:47			0	39268	0	0	0	23545	22140	155477	27182	1060683	46517	108680	0	0	8258	510291	0	0
2024-09-28 17:24:47			0	39248	0	0	0	23548	22140	155441	27287	1060683	46506	108681	0	0	8256	511041	0	0
2024-09-28 17:25:47			0	39237	0	0	0	23545	22130	155469	27282	1060701	46529	108680	0	0	8256	511482	0	0
2024-09-28 17:26:47			0	39250	0	0	0	23550	22130	155377	26956	1060728	46517	108682	0	0	8256	510994	0	0
2024-09-28 17:27:47			0	39259	0	0	0	23550	22140	155433	27130	1060710	46496	108682	0	0	8257	510628	0	0
2024-09-28 17:28:47			0	39249	0	0	0	23553	22120	155393	27194	1060763	46505	108683	0	0	8256	511060	0	0
2024-09-28 17:29:47			0	39260	0	0	0	23555	22130	155453	27263	1060728	46506	108684	0	0	8257	510619	0	0
2024-09-28 17:30:47			0	39244	0	0	0	23561	22130	155389	27182	1060701	46517	108686	0	0	8256	511219	0	0
2024-09-28 17:31:47			0	39264	0	0	0	23563	22130	155481	26946	1060719	46517	108687	0	0	8257	510469	0	0
2024-09-28 17:32:47			0	39277	0	0	0	23563	22130	155409	27377	1060728	46506	108687	0	0	8258	509982	0	0
2024-09-28 17:33:47			0	39287	0	0	0	23553	22130	155309	27227	1060701	46517	108683	0	0	8258	509608	0	0
2024-09-28 17:34:47			0	39257	0	0	0	23545	22130	155377	27116	1060648	46506	108680	0	0	8257	510732	0	0
2024-09-28 17:35:47			0	39273	0	0	0	23558	22140	155361	27206	1060737	46496	108685	0	0	8258	510104	0	0
2024-09-28 17:36:47			0	39244	0	0	0	23558	22140	155441	27341	1060657	46517	108685	0	0	8256	511191	0	0
2024-09-28 17:37:47			0	39268	0	0	0	23558	22140	155565	27396	1060737	46517	108685	0	0	8257	510291	0	0
2024-09-28 17:38:47			0	39253	0	0	0	23561	22140	155573	27180	1060790	46506	108686	0	0	8256	510853	0	0
2024-09-28 17:39:47			0	39252	0	0	0	23550	22140	155429	26984	1060683	46517	108682	0	0	8257	510891	0	0
2024-09-28 17:40:47			0	39240	0	0	0	23555	22140	155381	27121	1060790	46517	108684	0	0	8256	511341	0	0
2024-09-28 17:41:47			0	39254	0	0	0	23558	22140	155397	27345	1060719	46507	108685	0	0	8257	510816	0	0
2024-09-28 17:42:47			0	39251	0	0	0	23555	22130	155425	27092	1060728	46517	108684	0	0	8256	510957	0	0
2024-09-28 17:43:47			0	39262	0	0	0	23558	22140	155493	27286	1060790	46506	108685	0	0	8257	510516	0	0
2024-09-28 17:44:47			0	39238	0	0	0	23568	22130	155461	27190	1060719	46506	108689	0	0	8255	511444	0	0
2024-09-28 17:45:47			0	39250	0	0	0	23579	22130	155457	27211	1060728	46506	108693	0	0	8256	510994	0	0
2024-09-28 17:46:47			0	39241	0	0	0	23553	22140	155537	27197	1060737	46517	108683	0	0	8256	511303	0	0
2024-09-28 17:47:47			0	39229	0	0	0	23537	22140	155501	27459	1060683	46506	108677	0	0	8255	511753	0	0
2024-09-28 17:48:47			0	39221	0	0	0	23542	22130	155553	27150	1060648	46506	108679	0	0	8255	512082	0	0
2024-09-28 17:49:47			0	39229	0	0	0	23548	22130	155517	26823	1060665	46517	108681	0	0	8255	511782	0	0
2024-09-28 17:50:47			0	39219	0	0	0	23550	22140	155513	27194	1060710	46496	108682	0	0	8255	512129	0	0
2024-09-28 17:51:47			0	39205	0	0	0	23548	22140	155581	27256	1060772	46507	108681	0	0	8254	512654	0	0
2024-09-28 17:52:47			0	39218	0	0	0	23550	22130	155517	27055	1060754	46517	108682	0	0	8255	512195	0	0
2024-09-28 17:53:47			0	39204	0	0	0	23548	22130	155585	26909	1060674	46517	108681	0	0	8254	512721	0	0
2024-09-28 17:54:47			0	39219	0	0	0	23540	22140	155585	27142	1060683	46506	108678	0	0	8255	512129	0	0
2024-09-28 17:55:47			0	39242	0	0	0	23542	22130	155481	26913	1060665	46506	108679	0	0	8256	511294	0	0
2024-09-28 17:56:47			0	39234	0	0	0	23553	22130	155489	26844	1060701	46506	108683	0	0	8255	511594	0	0
2024-09-28 17:57:47			0	39219	0	0	0	23561	22140	155561	26904	1060737	46506	108686	0	0	8254	512129	0	0
2024-09-28 17:58:47			0	39211	0	0	0	23553	22130	155589	26955	1060728	46517	108683	0	0	8254	512458	0	0
2024-09-28 17:59:47			0	39202	0	0	0	23558	22130	155497	26930	1060719	46506	108685	0	0	8253	512796	0	0
2024-09-28 18:00:47			0	39226	0	0	0	23553	22130	155481	27206	1060648	46517	108683	0	0	8255	511894	0	0
2024-09-28 18:01:47			0	39221	0	0	0	23558	22140	155489	26984	1060737	46517	108685	0	0	8255	512054	0	0
2024-09-28 18:02:47			0	39246	0	0	0	23574	22130	155621	27001	1060728	46517	108691	0	0	8256	511144	0	0
2024-09-28 18:03:47			0	39238	0	0	0	23553	22140	155529	27128	1060763	46506	108683	0	0	8256	511416	0	0
2024-09-28 18:04:47			0	39232	0	0	0	23563	22130	155585	27281	1060674	46517	108687	0	0	8255	511669	0	0
2024-09-28 18:05:47			0	39235	0	0	0	23568	22130	155505	27194	1060728	46517	108689	0	0	8255	511557	0	0
2024-09-28 18:06:47			0	39222	0	0	0	23566	22150	155533	27071	1060755	46531	108688	0	0	8255	511987	0	0
2024-09-28 18:07:47			0	39256	0	0	0	23581	22140	155285	27157	1060826	46530	108694	0	0	8256	510741	0	0
2024-09-28 18:08:47			0	39272	0	0	0	23586	22140	155349	26975	1060790	46506	108696	0	0	8257	510141	0	0
2024-09-28 18:09:47			0	39293	0	0	0	23579	22140	155337	27031	1060772	46519	108693	0	0	8258	509355	0	0
2024-09-28 18:10:47			0	39274	0	0	0	23576	22130	155325	26979	1060808	46517	108692	0	0	8257	510095	0	0
2024-09-28 18:11:47			0	39286	0	0	0	23589	22150	155273	27194	1060844	46520	108697	0	0	8258	509589	0	0
2024-09-28 18:12:47			0	39299	0	0	0	23571	22150	155257	27078	1060808	46520	108690	0	0	8259	509102	0	0
2024-09-28 18:13:47			0	39302	0	0	0	23553	22140	155309	27119	1060790	46517	108683	0	0	8259	509018	0	0
2024-09-28 18:14:47			0	39274	0	0	0	23561	22140	155345	26875	1060772	46507	108686	0	0	8258	510066	0	0
2024-09-28 18:15:47			0	39290	0	0	0	23561	22150	155317	26949	1060701	46508	108686	0	0	8259	509439	0	0
2024-09-28 18:16:47			0	39308	0	0	0	23576	22140	155229	27197	1060763	46517	108692	0	0	8259	508794	0	0
2024-09-28 18:17:47			0	39293	0	0	0	23558	22140	155285	27201	1060719	46519	108685	0	0	8259	509355	0	0
2024-09-28 18:18:47			0	39304	0	0	0	23545	22140	155157	27119	1060746	46519	108680	0	0	8260	508943	0	0
2024-09-28 18:19:47			0	39298	0	0	0	23548	22130	155377	26982	1060674	46517	108681	0	0	8259	509196	0	0
2024-09-28 18:20:47			0	39278	0	0	0	23555	22140	155261	26960	1060763	46506	108684	0	0	8258	509917	0	0
2024-09-28 18:21:47			0	39283	0	0	0	23558	22140	155309	27249	1060737	46540	108685	0	0	8258	509729	0	0
2024-09-28 18:22:47			0	39278	0	0	0	23555	22130	155357	26955	1060728	46517	108684	0	0	8258	509945	0	0
2024-09-28 18:23:47			0	39290	0	0	0	23561	22140	155345	27017	1060719	46519	108686	0	0	8259	509467	0	0
2024-09-28 18:24:47			0	39289	0	0	0	23571	22150	155289	26944	1060808	46508	108690	0	0	8258	509476	0	0
2024-09-28 18:25:47			0	39323	0	0	0	23581	22140	155249	26878	1060772	46507	108694	0	0	8260	508233	0	0
2024-09-28 18:26:47			0	39296	0	0	0	23574	22140	155233	27291	1060692	46519	108691	0	0	8259	509243	0	0
2024-09-28 18:27:47			0	39292	0	0	0	23563	22140	155209	27218	1060799	46519	108687	0	0	8259	509392	0	0
2024-09-28 18:28:47			0	39316	0	0	0	23566	22160	155229	27026	1060773	46520	108688	0	0	8260	508438	0	0
2024-09-28 18:29:47			0	39303	0	0	0	23574	22140	155233	27001	1060746	46519	108691	0	0	8259	508981	0	0
2024-09-28 18:30:47			0	39288	0	0	0	23566	22140	155157	26651	1060772	46519	108688	0	0	8258	509542	0	0
2024-09-28 18:31:47			0	39280	0	0	0	23555	22150	155277	26769	1060764	46508	108684	0	0	8258	509813	0	0
2024-09-28 18:32:47			0	39270	0	0	0	23563	22140	155197	26955	1060772	46507	108687	0	0	8257	510216	0	0
2024-09-28 18:33:47			0	39275	0	0	0	23561	22150	155301	26899	1060790	46531	108686	0	0	8258	510000	0	0
2024-09-28 18:34:47			0	39262	0	0	0	23563	22140	155373	27031	1060772	46507	108687	0	0	8257	510516	0	0
2024-09-28 18:35:47			0	39264	0	0	0	23563	22140	155425	26904	1060772	46507	108687	0	0	8257	510441	0	0
2024-09-28 18:36:47			0	39251	0	0	0	23566	22130	155425	26998	1060754	46529	108688	0	0	8256	510957	0	0
2024-09-28 18:37:47			0	39242	0	0	0	23558	22140	155441	26892	1060799	46507	108685	0	0	8256	511266	0	0
2024-09-28 18:38:47			0	39239	0	0	0	23550	22140	155685	27152	1060763	46517	108682	0	0	8256	511378	0	0
2024-09-28 18:39:47			0	39219	0	0	0	23545	22150	155517	27287	1060781	46520	108680	0	0	8255	512100	0	0
2024-09-28 18:40:47			0	39212	0	0	0	23548	22130	155549	27069	1060674	46506	108681	0	0	8254	512420	0	0
2024-09-28 18:41:47			0	39206	0	0	0	23542	22130	155589	27173	1060701	46506	108679	0	0	8254	512645	0	0
2024-09-28 18:42:47			0	39226	0	0	0	23532	22140	155633	27069	1060790	46506	108675	0	0	8255	511866	0	0
2024-09-28 18:43:47			0	39231	0	0	0	23532	22130	155577	26755	1060594	46517	108675	0	0	8256	511707	0	0
2024-09-28 18:44:47			0	39224	0	0	0	23535	22120	155613	27097	1060656	46505	108676	0	0	8255	511998	0	0
2024-09-28 18:45:47			0	39211	0	0	0	23527	22130	155601	27149	1060639	46506	108673	0	0	8255	512458	0	0
2024-09-28 18:46:47			0	39215	0	0	0	23522	22120	155633	27227	1060603	46505	108671	0	0	8255	512336	0	0
2024-09-28 18:47:47			0	39218	0	0	0	23519	22120	155697	27331	1060603	46516	108670	0	0	8255	512223	0	0
2024-09-28 18:48:47			0	39206	0	0	0	23527	22110	155717	27190	1060585	46503	108673	0	0	8254	512703	0	0
2024-09-28 18:49:47			0	39209	0	0	0	23516	22110	155721	27116	1060532	46503	108669	0	0	8254	512590	0	0
2024-09-28 18:50:47			0	39195	0	0	0	23511	22120	155677	26845	1060594	46515	108667	0	0	8254	513087	0	0
2024-09-28 18:51:47			0	39185	0	0	0	23511	22110	155725	26902	1060612	46514	108667	0	0	8253	513492	0	0
2024-09-28 18:52:47			0	39196	0	0	0	23503	22110	155705	27220	1060576	46493	108664	0	0	8254	513078	0	0
2024-09-28 18:53:47			0	39193	0	0	0	23506	22110	155709	26875	1060505	46493	108665	0	0	8254	513191	0	0
2024-09-28 18:54:47			0	39167	0	0	0	23519	22100	155765	27237	1060585	46492	108670	0	0	8252	514198	0	0
2024-09-28 18:55:47			0	39173	0	0	0	23496	22090	155657	27421	1060523	46491	108661	0	0	8253	514001	0	0
2024-09-28 18:56:47			0	39179	0	0	0	23485	22110	155697	27374	1060550	46503	108657	0	0	8253	513718	0	0
2024-09-28 18:57:47			0	39184	0	0	0	23485	22090	155725	27170	1060496	46501	108657	0	0	8253	513587	0	0
2024-09-28 18:58:47			0	39178	0	0	0	23475	22090	155801	27196	1060514	46501	108653	0	0	8253	513812	0	0
2024-09-28 18:59:47			0	39164	0	0	0	23483	22090	155769	26887	1060416	46501	108656	0	0	8252	514339	0	0
2024-09-28 19:00:47			0	39177	0	0	0	23470	22090	155849	27005	1060443	46501	108651	0	0	8253	513850	0	0
2024-09-28 19:01:47			0	39149	0	0	0	23477	22090	155853	27270	1060434	46480	108654	0	0	8252	514904	0	0
2024-09-28 19:02:47			0	39154	0	0	0	23477	22080	155937	26977	1060442	46500	108654	0	0	8252	514744	0	0
2024-09-28 19:03:47			0	39150	0	0	0	23483	22080	155861	27126	1060425	46501	108656	0	0	8252	514895	0	0
2024-09-28 19:04:47			0	39146	0	0	0	23490	22070	155937	27012	1060380	46510	108659	0	0	8251	515075	0	0
2024-09-28 19:05:47			0	39139	0	0	0	23485	22070	155881	27038	1060380	46510	108657	0	0	8251	515338	0	0
2024-09-28 19:06:47			0	39134	0	0	0	23483	22070	155949	27213	1060424	46510	108656	0	0	8251	515527	0	0
2024-09-28 19:07:47			0	39145	0	0	0	23467	22070	155965	27027	1060380	46500	108650	0	0	8251	515112	0	0
2024-09-28 19:08:47			0	39143	0	0	0	23462	22070	155933	27232	1060397	46510	108648	0	0	8251	515188	0	0
2024-09-28 19:09:47			0	39138	0	0	0	23467	22060	155921	27152	1060335	46489	108650	0	0	8251	515405	0	0
2024-09-28 19:10:47			0	39124	0	0	0	23475	22050	156009	27313	1060370	46498	108653	0	0	8250	515961	0	0
2024-09-28 19:11:47			0	39127	0	0	0	23462	22060	156001	27270	1060353	46488	108648	0	0	8250	515819	0	0
2024-09-28 19:12:47			0	39118	0	0	0	23467	22050	155989	27322	1060290	46487	108650	0	0	8250	516188	0	0
2024-09-28 19:13:47			0	39132	0	0	0	23454	22040	156037	27057	1060299	46497	108645	0	0	8251	515688	0	0
2024-09-28 19:14:47			0	39119	0	0	0	23470	22050	156149	27112	1060335	46497	108651	0	0	8250	516150	0	0
2024-09-28 19:15:47			0	39119	0	0	0	23467	22050	156085	27331	1060335	46497	108650	0	0	8250	516150	0	0
2024-09-28 19:16:47			0	39091	0	0	0	23462	22050	156209	27196	1060335	46497	108648	0	0	8248	517207	0	0
2024-09-28 19:17:47			0	39095	0	0	0	23470	22050	156125	27057	1060281	46507	108651	0	0	8248	517056	0	0
2024-09-28 19:18:47			0	39068	0	0	0	23459	22050	156165	27137	1060255	46507	108647	0	0	8247	518076	0	0
2024-09-28 19:19:47			0	39082	0	0	0	23459	22040	156129	27282	1060272	46507	108647	0	0	8248	517575	0	0
2024-09-28 19:20:47			0	39062	0	0	0	23451	22040	156173	27338	1060290	46507	108644	0	0	8247	518332	0	0
2024-09-28 19:21:47			0	39063	0	0	0	23444	22050	156141	27109	1060281	46497	108641	0	0	8247	518265	0	0
2024-09-28 19:22:47			0	39064	0	0	0	23449	22040	156165	27220	1060290	46507	108643	0	0	8247	518256	0	0
2024-09-28 19:23:47			0	39068	0	0	0	23444	22030	156141	26991	1060201	46496	108641	0	0	8247	518133	0	0
2024-09-28 19:24:47			0	39069	0	0	0	23446	22030	156265	27215	1060228	46485	108642	0	0	8247	518096	0	0
2024-09-28 19:25:47			0	39055	0	0	0	23446	22040	156229	27192	1060237	46497	108642	0	0	8246	518596	0	0
2024-09-28 19:26:47			0	39038	0	0	0	23438	22030	156297	26894	1060254	46506	108639	0	0	8246	519268	0	0
2024-09-28 19:27:47			0	39037	0	0	0	23441	22030	156349	26597	1060201	46485	108640	0	0	8245	519306	0	0
2024-09-28 19:28:47			0	39027	0	0	0	23449	22040	156313	26882	1060183	46475	108643	0	0	8245	519656	0	0
2024-09-28 19:29:47			0	39020	0	0	0	23446	22020	156453	27017	1060156	46495	108642	0	0	8244	519979	0	0
2024-09-28 19:30:47			0	39009	0	0	0	23438	22030	156485	26734	1060201	46496	108639	0	0	8244	520367	0	0
2024-09-28 19:31:47			0	39011	0	0	0	23420	22030	156405	26785	1060201	46518	108632	0	0	8244	520291	0	0
2024-09-28 19:32:47			0	39010	0	0	0	23425	22020	156457	27417	1060183	46473	108634	0	0	8244	520358	0	0
2024-09-28 19:33:47			0	38991	0	0	0	23420	22030	156429	27329	1060201	46496	108632	0	0	8243	521050	0	0
2024-09-28 19:34:47			0	38970	0	0	0	23425	22030	156509	27116	1060192	46495	108634	0	0	8242	521847	0	0
2024-09-28 19:35:47			0	38977	0	0	0	23405	22020	156657	27131	1060147	46505	108626	0	0	8243	521610	0	0
2024-09-28 19:36:47			0	38959	0	0	0	23397	22010	156541	26857	1060085	46494	108623	0	0	8242	522323	0	0
2024-09-28 19:37:47			0	38956	0	0	0	23386	22010	156541	27163	1060112	46494	108619	0	0	8242	522436	0	0
2024-09-28 19:38:47			0	38961	0	0	0	23389	22010	156617	27124	1060049	46493	108620	0	0	8242	522247	0	0
2024-09-28 19:39:47			0	38915	0	0	0	23407	22000	156689	26949	1060014	46503	108627	0	0	8239	524025	0	0
2024-09-28 19:40:47			0	38925	0	0	0	23389	22000	156709	27287	1060067	46493	108620	0	0	8240	523644	0	0
2024-09-28 19:41:47			0	38920	0	0	0	23399	21990	156761	26835	1060049	46492	108624	0	0	8239	523864	0	0
2024-09-28 19:42:47			0	38910	0	0	0	23392	21990	156873	27196	1060005	46493	108621	0	0	8239	524244	0	0
2024-09-28 19:43:47			0	38909	0	0	0	23381	21990	156941	26739	1060058	46493	108617	0	0	8239	524282	0	0
2024-09-28 19:44:47			0	38906	0	0	0	23366	21980	156941	26942	1059960	46480	108611	0	0	8239	524426	0	0
2024-09-28 19:45:47			0	38894	0	0	0	23376	21980	156941	26894	1059951	46490	108615	0	0	8238	524883	0	0
2024-09-28 19:46:47			0	38875	0	0	0	23361	21980	156981	27019	1059925	46490	108609	0	0	8237	525607	0	0
2024-09-28 19:47:47			0	38864	0	0	0	23358	21980	157089	27265	1059951	46457	108608	0	0	8237	526027	0	0
2024-09-28 19:48:47			0	38859	0	0	0	23371	21960	156925	27386	1059844	46489	108613	0	0	8236	526276	0	0
2024-09-28 19:49:47			0	38866	0	0	0	23389	21960	156969	27220	1059924	46489	108620	0	0	8236	526009	0	0
2024-09-28 19:50:47			0	38848	0	0	0	23384	21960	157137	27085	1059924	46489	108618	0	0	8235	526696	0	0
2024-09-28 19:51:47			0	38839	0	0	0	23384	21960	157125	27046	1059862	46499	108618	0	0	8235	527040	0	0
2024-09-28 19:52:47			0	38848	0	0	0	23363	21960	157065	26731	1059835	46509	108610	0	0	8236	526696	0	0
2024-09-28 19:53:47			0	38840	0	0	0	23368	21960	157109	26856	1059915	46488	108612	0	0	8235	527002	0	0
2024-09-28 19:54:47			0	38833	0	0	0	23353	21960	157077	27274	1059889	46499	108606	0	0	8235	527269	0	0
2024-09-28 19:55:47			0	38828	0	0	0	23342	21960	157173	27197	1059915	46499	108602	0	0	8235	527460	0	0
2024-09-28 19:56:47			0	38830	0	0	0	23337	21960	157213	27055	1059835	46488	108600	0	0	8235	527384	0	0
2024-09-28 19:57:47			0	38798	0	0	0	23329	21940	157221	27144	1059719	46497	108597	0	0	8233	528666	0	0
2024-09-28 19:58:47			0	38790	0	0	0	23319	21940	157313	26909	1059746	46475	108593	0	0	8233	528973	0	0
2024-09-28 19:59:47			0	38784	0	0	0	23327	21930	157301	27000	1059728	46486	108596	0	0	8232	529232	0	0
2024-09-28 20:00:47			0	38775	0	0	0	23319	21930	157345	27213	1059684	46497	108593	0	0	8232	529577	0	0
2024-09-28 20:01:47			0	38776	0	0	0	23306	21930	157505	26805	1059657	46486	108588	0	0	8232	529538	0	0
2024-09-28 20:02:47			0	38754	0	0	0	23311	21930	157505	26961	1059755	46486	108590	0	0	8231	530382	0	0
2024-09-28 20:03:47			0	38745	0	0	0	23319	21920	157513	27190	1059639	46496	108593	0	0	8230	530756	0	0
2024-09-28 20:04:47			0	38744	0	0	0	23322	21920	157473	27251	1059630	46484	108594	0	0	8230	530795	0	0
2024-09-28 20:05:47			0	38756	0	0	0	23324	21910	157445	27230	1059701	46505	108595	0	0	8231	530364	0	0
2024-09-28 20:06:47			0	38749	0	0	0	23322	21920	157461	27050	1059603	46495	108594	0	0	8230	530603	0	0
2024-09-28 20:07:47			0	38733	0	0	0	23319	21910	157513	27164	1059648	46495	108593	0	0	8229	531246	0	0
2024-09-28 20:08:47			0	38749	0	0	0	23309	21920	157577	27190	1059603	46484	108589	0	0	8231	530603	0	0
2024-09-28 20:09:47			0	38736	0	0	0	23322	21910	157453	26981	1059701	46484	108594	0	0	8230	531131	0	0
2024-09-28 20:10:47			0	38745	0	0	0	23324	21910	157605	26918	1059639	46483	108595	0	0	8230	530786	0	0
2024-09-28 20:11:47			0	38761	0	0	0	23316	21910	157457	27026	1059612	46494	108592	0	0	8231	530172	0	0
2024-09-28 20:12:47			0	38761	0	0	0	23314	21910	157653	27154	1059666	46472	108591	0	0	8231	530172	0	0
2024-09-28 20:13:47			0	38744	0	0	0	23314	21900	157553	27254	1059603	46494	108591	0	0	8230	530854	0	0
2024-09-28 20:14:47			0	38738	0	0	0	23314	21900	157645	27324	1059710	46494	108591	0	0	8230	531084	0	0
2024-09-28 20:15:47			0	38742	0	0	0	23309	21900	157621	26979	1059603	46494	108589	0	0	8230	530931	0	0
2024-09-28 20:16:47			0	38744	0	0	0	23311	21890	157593	27256	1059505	46492	108590	0	0	8230	530884	0	0
2024-09-28 20:17:47			0	38741	0	0	0	23309	21900	157613	26913	1059568	46482	108589	0	0	8230	530969	0	0
2024-09-28 20:18:47			0	38733	0	0	0	23293	21890	157597	27138	1059576	46492	108583	0	0	8230	531306	0	0
2024-09-28 20:19:47			0	38735	0	0	0	23293	21900	157689	27346	1059550	46472	108583	0	0	8230	531199	0	0
2024-09-28 20:20:47			0	38734	0	0	0	23288	21900	157637	27074	1059568	46493	108581	0	0	8230	531238	0	0
2024-09-28 20:21:47			0	38728	0	0	0	23285	21890	157733	27005	1059496	46492	108580	0	0	8230	531498	0	0
2024-09-28 20:22:47			0	38725	0	0	0	23277	21890	157693	27031	1059532	46481	108577	0	0	8230	531613	0	0
2024-09-28 20:23:47			0	38720	0	0	0	23280	21890	157672	27100	1059523	46492	108578	0	0	8229	531805	0	0
2024-09-28 20:24:47			0	38702	0	0	0	23272	21880	157740	27085	1059478	46480	108575	0	0	8228	532526	0	0
2024-09-28 20:25:47			0	38706	0	0	0	23277	21890	157856	27118	1059496	46481	108577	0	0	8228	532343	0	0
2024-09-28 20:26:47			0	38711	0	0	0	23275	21880	157696	27189	1059425	46458	108576	0	0	8229	532180	0	0
2024-09-28 20:27:47			0	38701	0	0	0	23270	21880	157784	27104	1059505	46480	108574	0	0	8228	532565	0	0
2024-09-28 20:28:47			0	38719	0	0	0	23270	21880	157828	27092	1059452	46480	108574	0	0	8229	531873	0	0
2024-09-28 20:29:47			0	38701	0	0	0	23262	21870	157844	27019	1059434	46479	108571	0	0	8228	532594	0	0
2024-09-28 20:30:47			0	38720	0	0	0	23264	21870	157792	27154	1059443	46490	108572	0	0	8229	531864	0	0
2024-09-28 20:31:47			0	38722	0	0	0	23259	21860	157788	27234	1059372	46479	108570	0	0	8230	531817	0	0
2024-09-28 20:32:47			0	38727	0	0	0	23249	21860	157861	27130	1059372	46490	108566	0	0	8230	531625	0	0
2024-09-28 20:33:47			0	38715	0	0	0	23249	21860	157860	27216	1059336	46500	108566	0	0	8229	532086	0	0
2024-09-28 20:34:47			0	38698	0	0	0	23246	21860	157836	26925	1059389	46478	108565	0	0	8228	532739	0	0
2024-09-28 20:35:47			0	38672	0	0	0	23241	21850	157936	26987	1059354	46477	108563	0	0	8227	533770	0	0
2024-09-28 20:36:47			0	38682	0	0	0	23244	21850	158008	27154	1059300	46477	108564	0	0	8227	533385	0	0
2024-09-28 20:37:47			0	38666	0	0	0	23244	21850	158076	27268	1059345	46466	108564	0	0	8227	534001	0	0
2024-09-28 20:38:47			0	38673	0	0	0	23244	21840	158104	27060	1059247	46465	108564	0	0	8227	533761	0	0
2024-09-28 20:39:47			0	38688	0	0	0	23254	21850	158012	27203	1059345	46455	108568	0	0	8228	533154	0	0
2024-09-28 20:40:47			0	38696	0	0	0	23241	21840	157928	27123	1059229	46476	108563	0	0	8228	532876	0	0
2024-09-28 20:41:47			0	38695	0	0	0	23254	21840	157920	27287	1059300	46487	108568	0	0	8228	532914	0	0
2024-09-28 20:42:47			0	38699	0	0	0	23244	21840	157848	27206	1059300	46476	108564	0	0	8228	532760	0	0
2024-09-28 20:43:47			0	38695	0	0	0	23238	21840	157852	26759	1059256	46476	108562	0	0	8228	532914	0	0
2024-09-28 20:44:47			0	38686	0	0	0	23246	21840	157904	27039	1059327	46465	108565	0	0	8228	533260	0	0
2024-09-28 20:45:47			0	38678	0	0	0	23241	21840	157956	27159	1059309	46487	108563	0	0	8227	533568	0	0
2024-09-28 20:46:47			0	38676	0	0	0	23236	21830	158092	27216	1059264	46486	108561	0	0	8227	533675	0	0
2024-09-28 20:47:47			0	38679	0	0	0	23241	21840	158024	27003	1059229	46476	108563	0	0	8227	533530	0	0
2024-09-28 20:48:47			0	38683	0	0	0	23231	21830	158056	27038	1059202	46475	108559	0	0	8228	533406	0	0
2024-09-28 20:49:47			0	38681	0	0	0	23233	21830	157916	27123	1059229	46475	108560	0	0	8228	533482	0	0
2024-09-28 20:50:47			0	38680	0	0	0	23233	21830	157932	27131	1059255	46475	108560	0	0	8227	533521	0	0
2024-09-28 20:51:47			0	38690	0	0	0	23236	21820	157936	27159	1059237	46474	108561	0	0	8228	533166	0	0
2024-09-28 20:52:47			0	38700	0	0	0	23241	21830	157980	26987	1059229	46486	108563	0	0	8228	532751	0	0
2024-09-28 20:53:47			0	38707	0	0	0	23233	21820	157972	27279	1059246	46474	108560	0	0	8229	532512	0	0
2024-09-28 20:54:47			0	38714	0	0	0	23244	21820	157944	27043	1059193	46474	108564	0	0	8229	532243	0	0
2024-09-28 20:55:47			0	38705	0	0	0	23238	21820	157988	27022	1059300	46463	108562	0	0	8229	532589	0	0
2024-09-28 20:56:47			0	38701	0	0	0	23244	21830	158016	27078	1059238	46497	108564	0	0	8228	532713	0	0
2024-09-28 20:57:47			0	38690	0	0	0	23241	21830	157900	26816	1059149	46464	108563	0	0	8228	533136	0	0
2024-09-28 20:58:47			0	38692	0	0	0	23238	21820	157908	27239	1059246	46463	108562	0	0	8228	533089	0	0
2024-09-28 20:59:47			0	38701	0	0	0	23225	21830	157948	27114	1059255	46475	108557	0	0	8229	532713	0	0
2024-09-28 21:00:47			0	38695	0	0	0	23225	21820	157884	26911	1059157	46485	108557	0	0	8228	532974	0	0
2024-09-28 21:01:47			0	38697	0	0	0	23225	21820	157888	27177	1059220	46496	108557	0	0	8229	532897	0	0
2024-09-28 21:02:47			0	38686	0	0	0	23233	21820	157992	26923	1059211	46474	108560	0	0	8228	533320	0	0
2024-09-28 21:03:47			0	38682	0	0	0	23228	21820	158044	27234	1059166	46474	108558	0	0	8228	533474	0	0
2024-09-28 21:04:47			0	38677	0	0	0	23223	21810	158044	26908	1059175	46473	108556	0	0	8227	533696	0	0
2024-09-28 21:05:47			0	38665	0	0	0	23220	21820	158116	26970	1059184	46463	108555	0	0	8227	534128	0	0
2024-09-28 21:06:47			0	38669	0	0	0	23244	21820	158072	26774	1059184	46474	108564	0	0	8227	533974	0	0
2024-09-28 21:07:47			0	38659	0	0	0	23223	21810	158032	26896	1059202	46473	108556	0	0	8226	534389	0	0
2024-09-28 21:08:47			0	38660	0	0	0	23225	21810	158116	27192	1059175	46473	108557	0	0	8226	534351	0	0
2024-09-28 21:09:47			0	38658	0	0	0	23225	21810	158080	26948	1059139	46483	108557	0	0	8226	534428	0	0
2024-09-28 21:10:47			0	38653	0	0	0	23225	21810	158104	27171	1059175	46484	108557	0	0	8226	534620	0	0
2024-09-28 21:11:47			0	38643	0	0	0	23231	21810	158096	27008	1059148	46473	108559	0	0	8225	535006	0	0
2024-09-28 21:12:47			0	38646	0	0	0	23218	21810	158104	27286	1059148	46473	108554	0	0	8226	534890	0	0
2024-09-28 21:13:47			0	38631	0	0	0	23205	21810	158204	26885	1059193	46472	108549	0	0	8225	535469	0	0
2024-09-28 21:14:47			0	38618	0	0	0	23205	21800	158228	26866	1059104	46472	108549	0	0	8224	536000	0	0
2024-09-28 21:15:47			0	38637	0	0	0	23210	21810	158280	26864	1059193	46461	108551	0	0	8225	535237	0	0
2024-09-28 21:16:47			0	38643	0	0	0	23205	21800	158196	27298	1059104	46472	108549	0	0	8226	535036	0	0
2024-09-28 21:17:47			0	38627	0	0	0	23218	21810	158312	26658	1059139	46461	108554	0	0	8225	535623	0	0
2024-09-28 21:18:47			0	38630	0	0	0	23223	21810	158200	26842	1059166	46472	108556	0	0	8225	535507	0	0
2024-09-28 21:19:47			0	38619	0	0	0	23210	21800	158340	27183	1059104	46472	108551	0	0	8224	535962	0	0
2024-09-28 21:20:47			0	38616	0	0	0	23189	21810	158312	26972	1059113	46472	108543	0	0	8224	536048	0	0
2024-09-28 21:21:47			0	38602	0	0	0	23192	21800	158280	27105	1059041	46459	108544	0	0	8223	536618	0	0
2024-09-28 21:22:47			0	38599	0	0	0	23197	21790	158376	27301	1059059	46482	108546	0	0	8223	536764	0	0
2024-09-28 21:23:47			0	38580	0	0	0	23186	21790	158540	27183	1059024	46481	108542	0	0	8222	537498	0	0
2024-09-28 21:24:47			0	38586	0	0	0	23184	21790	158436	27301	1059024	46481	108541	0	0	8223	537266	0	0
2024-09-28 21:25:47			0	38572	0	0	0	23184	21780	158504	26916	1059015	46459	108541	0	0	8222	537838	0	0
2024-09-28 21:26:47			0	38569	0	0	0	23184	21780	158496	26948	1059015	46470	108541	0	0	8222	537954	0	0
2024-09-28 21:27:47			0	38570	0	0	0	23186	21790	158516	26798	1059024	46448	108542	0	0	8222	537885	0	0
2024-09-28 21:28:47			0	38574	0	0	0	23186	21780	158460	27208	1058988	46481	108542	0	0	8222	537760	0	0
2024-09-28 21:29:47			0	38572	0	0	0	23179	21780	158404	27187	1059041	46470	108539	0	0	8222	537838	0	0
2024-09-28 21:30:47			0	38572	0	0	0	23176	21770	158436	26871	1058997	46480	108538	0	0	8222	537868	0	0
2024-09-28 21:31:47			0	38559	0	0	0	23166	21770	158372	27170	1059014	46458	108534	0	0	8221	538371	0	0
2024-09-28 21:32:47			0	38566	0	0	0	23163	21770	158528	26896	1058961	46479	108533	0	0	8222	538100	0	0
2024-09-28 21:33:47			0	38524	0	0	0	23155	21770	158640	27024	1059023	46469	108530	0	0	8219	539727	0	0
2024-09-28 21:34:47			0	38509	0	0	0	23150	21770	158620	26927	1058943	46469	108528	0	0	8219	540308	0	0
2024-09-28 21:35:47			0	38515	0	0	0	23148	21760	158804	27057	1058890	46445	108527	0	0	8219	540106	0	0
2024-09-28 21:36:47			0	38504	0	0	0	23153	21750	158780	27287	1058828	46478	108529	0	0	8218	540562	0	0
2024-09-28 21:37:47			0	38489	0	0	0	23148	21750	158752	27409	1058881	46445	108527	0	0	8217	541145	0	0
2024-09-28 21:38:47			0	38506	0	0	0	23153	21750	158684	27013	1058872	46455	108529	0	0	8218	540485	0	0
2024-09-28 21:39:47			0	38506	0	0	0	23150	21750	158644	27261	1058845	46466	108528	0	0	8218	540485	0	0
2024-09-28 21:40:47			0	38505	0	0	0	23140	21740	158712	27133	1058863	46477	108524	0	0	8218	540554	0	0
2024-09-28 21:41:47			0	38511	0	0	0	23142	21750	158820	27241	1058819	46466	108525	0	0	8219	540291	0	0
2024-09-28 21:42:47			0	38506	0	0	0	23137	21730	158676	27123	1058792	46464	108523	0	0	8219	540545	0	0
2024-09-28 21:43:47			0	38521	0	0	0	23142	21750	158644	27301	1058819	46455	108525	0	0	8219	539903	0	0
2024-09-28 21:44:47			0	38522	0	0	0	23140	21740	158760	27239	1058854	46465	108524	0	0	8219	539894	0	0
2024-09-28 21:45:47			0	38506	0	0	0	23127	21730	158776	27114	1058809	46464	108519	0	0	8219	540545	0	0
2024-09-28 21:46:47			0	38511	0	0	0	23116	21730	158828	27178	1058792	46453	108515	0	0	8219	540351	0	0
2024-09-28 21:47:47			0	38497	0	0	0	23119	21720	158796	27036	1058667	46453	108516	0	0	8218	540924	0	0
2024-09-28 21:48:47			0	38501	0	0	0	23127	21730	158768	27235	1058676	46464	108519	0	0	8218	540739	0	0
2024-09-28 21:49:47			0	38479	0	0	0	23129	21730	158840	27429	1058676	46464	108520	0	0	8217	541593	0	0
2024-09-28 21:50:47			0	38485	0	0	0	23122	21720	158780	27386	1058685	46452	108517	0	0	8218	541390	0	0
2024-09-28 21:51:47			0	38506	0	0	0	23124	21720	158840	27374	1058765	46463	108518	0	0	8219	540575	0	0
2024-09-28 21:52:47			0	38503	0	0	0	23127	21730	158840	27306	1058809	46453	108519	0	0	8219	540661	0	0
2024-09-28 21:53:47			0	38516	0	0	0	23132	21720	158844	27303	1058712	46452	108521	0	0	8219	540187	0	0
2024-09-28 21:54:47			0	38520	0	0	0	23124	21720	158764	27093	1058685	46463	108518	0	0	8220	540032	0	0
2024-09-28 21:55:47			0	38495	0	0	0	23103	21720	158784	27173	1058712	46463	108510	0	0	8218	541002	0	0
2024-09-28 21:56:47			0	38493	0	0	0	23106	21720	158924	27140	1058685	46474	108511	0	0	8218	541080	0	0
2024-09-28 21:57:47			0	38476	0	0	0	23101	21720	158856	26960	1058658	46452	108509	0	0	8217	541740	0	0
2024-09-28 21:58:47			0	38467	0	0	0	23096	21710	158984	27119	1058667	46462	108507	0	0	8217	542120	0	0
2024-09-28 21:59:47			0	38463	0	0	0	23106	21710	159056	27067	1058614	46462	108511	0	0	8216	542276	0	0
2024-09-28 22:00:47			0	38471	0	0	0	23098	21710	158916	27303	1058614	46462	108508	0	0	8217	541965	0	0
2024-09-28 22:01:47			0	38467	0	0	0	23098	21690	159084	27135	1058542	46461	108508	0	0	8217	542180	0	0
2024-09-28 22:02:47			0	38435	0	0	0	23093	21680	159056	27289	1058578	46449	108506	0	0	8215	543456	0	0
2024-09-28 22:03:47			0	38436	0	0	0	23101	21690	159052	26845	1058595	46472	108509	0	0	8215	543387	0	0
2024-09-28 22:04:47			0	38437	0	0	0	23101	21700	159024	27338	1058578	46450	108509	0	0	8215	543317	0	0
2024-09-28 22:05:47			0	38434	0	0	0	23101	21680	159124	27036	1058524	46482	108509	0	0	8215	543495	0	0
2024-09-28 22:06:47			0	38427	0	0	0	23111	21690	159132	26949	1058586	46460	108513	0	0	8214	543737	0	0
2024-09-28 22:07:47			0	38429	0	0	0	23101	21690	159116	27156	1058613	46449	108509	0	0	8214	543659	0	0
2024-09-28 22:08:47			0	38402	0	0	0	23114	21690	159172	27092	1058586	46460	108514	0	0	8213	544711	0	0
2024-09-28 22:09:47			0	38397	0	0	0	23111	21680	159324	27261	1058604	46471	108513	0	0	8212	544937	0	0
2024-09-28 22:10:47			0	38367	0	0	0	23106	21690	159252	26708	1058560	46471	108511	0	0	8211	546077	0	0
2024-09-28 22:11:47			0	38361	0	0	0	23106	21680	159420	27367	1058524	46482	108511	0	0	8210	546342	0	0
2024-09-28 22:12:47			0	38346	0	0	0	23106	21690	159384	26994	1058586	46460	108511	0	0	8210	546898	0	0
2024-09-28 22:13:47			0	38337	0	0	0	23111	21690	159508	27026	1058586	46471	108513	0	0	8209	547250	0	0
2024-09-28 22:14:47			0	38337	0	0	0	23101	21680	159500	27109	1058551	46471	108509	0	0	8209	547280	0	0
2024-09-28 22:15:47			0	38324	0	0	0	23106	21690	159492	27199	1058533	46460	108511	0	0	8208	547758	0	0
2024-09-28 22:16:47			0	38330	0	0	0	23101	21680	159528	26968	1058524	46460	108509	0	0	8209	547554	0	0
2024-09-28 22:17:47			0	38342	0	0	0	23101	21680	159488	26901	1058569	46459	108509	0	0	8209	547085	0	0
2024-09-28 22:18:47			0	38334	0	0	0	23101	21690	159408	27112	1058542	46472	108509	0	0	8209	547367	0	0
2024-09-28 22:19:47			0	38342	0	0	0	23093	21680	159500	26672	1058569	46470	108506	0	0	8209	547085	0	0
2024-09-28 22:20:47			0	38352	0	0	0	23090	21680	159356	27015	1058489	46437	108505	0	0	8210	546694	0	0
2024-09-28 22:21:47			0	38341	0	0	0	23098	21670	159428	27085	1058480	46459	108508	0	0	8209	547154	0	0
2024-09-28 22:22:47			0	38333	0	0	0	23096	21690	159456	26842	1058586	46460	108507	0	0	8209	547406	0	0
2024-09-28 22:23:47			0	38329	0	0	0	23090	21670	159460	26748	1058533	46448	108505	0	0	8209	547624	0	0
2024-09-28 22:24:47			0	38347	0	0	0	23083	21670	159508	27097	1058506	46459	108502	0	0	8210	546920	0	0
2024-09-28 22:25:47			0	38337	0	0	0	23083	21670	159432	27131	1058560	46459	108502	0	0	8209	547310	0	0
2024-09-28 22:26:47			0	38348	0	0	0	23077	21670	159452	26987	1058444	46458	108500	0	0	8210	546880	0	0
2024-09-28 22:27:47			0	38347	0	0	0	23080	21670	159376	27187	1058497	46447	108501	0	0	8210	546920	0	0
2024-09-28 22:28:47			0	38370	0	0	0	23080	21670	159500	27154	1058560	46448	108501	0	0	8211	546021	0	0
2024-09-28 22:29:47			0	38340	0	0	0	23059	21670	159444	26870	1058497	46469	108493	0	0	8210	547193	0	0
2024-09-28 22:30:47			0	38318	0	0	0	23059	21670	159480	27241	1058417	46458	108493	0	0	8209	548054	0	0
2024-09-28 22:31:47			0	38300	0	0	0	23062	21660	159588	26996	1058426	46446	108494	0	0	8207	548789	0	0
2024-09-28 22:32:47			0	38309	0	0	0	23059	21660	159572	27003	1058435	46468	108493	0	0	8208	548437	0	0
2024-09-28 22:33:47			0	38318	0	0	0	23057	21660	159588	27360	1058462	46458	108492	0	0	8209	548084	0	0
2024-09-28 22:34:47			0	38330	0	0	0	23057	21660	159472	26922	1058400	46468	108492	0	0	8209	547615	0	0
2024-09-28 22:35:47			0	38344	0	0	0	23051	21650	159464	27196	1058408	46445	108490	0	0	8210	547098	0	0
2024-09-28 22:36:47			0	38340	0	0	0	23057	21650	159576	27022	1058435	46467	108492	0	0	8210	547254	0	0
2024-09-28 22:37:47			0	38348	0	0	0	23049	21640	159484	27039	1058346	46444	108489	0	0	8210	546972	0	0
2024-09-28 22:38:47			0	38364	0	0	0	23044	21650	159432	27178	1058355	46467	108487	0	0	8211	546316	0	0
2024-09-28 22:39:47			0	38358	0	0	0	23051	21640	159444	26746	1058373	46456	108490	0	0	8211	546581	0	0
2024-09-28 22:40:47			0	38372	0	0	0	23044	21640	159396	27036	1058390	46444	108487	0	0	8212	546034	0	0
2024-09-28 22:41:47			0	38370	0	0	0	23044	21630	159376	26741	1058328	46456	108487	0	0	8212	546142	0	0
2024-09-28 22:42:47			0	38397	0	0	0	23044	21630	159224	27050	1058301	46433	108487	0	0	8213	545088	0	0
2024-09-28 22:43:47			0	38391	0	0	0	23044	21630	159228	26797	1058266	46455	108487	0	0	8213	545323	0	0
2024-09-28 22:44:47			0	38402	0	0	0	23049	21630	159204	26852	1058292	46465	108489	0	0	8214	544893	0	0
2024-09-28 22:45:47			0	38411	0	0	0	23036	21630	159208	26953	1058292	46465	108484	0	0	8214	544542	0	0
2024-09-28 22:46:47			0	38422	0	0	0	23044	21630	159136	26720	1058301	46456	108487	0	0	8215	544113	0	0
2024-09-28 22:47:47			0	38419	0	0	0	23049	21620	159120	26739	1058310	46454	108489	0	0	8214	544261	0	0
2024-09-28 22:48:47			0	38448	0	0	0	23049	21630	159088	26866	1058292	46455	108489	0	0	8216	543101	0	0
2024-09-28 22:49:47			0	38442	0	0	0	23049	21620	159080	27131	1058284	46454	108489	0	0	8216	543365	0	0
2024-09-28 22:50:47			0	38440	0	0	0	23044	21620	159052	26852	1058284	46454	108487	0	0	8216	543443	0	0
2024-09-28 22:51:47			0	38449	0	0	0	23051	21630	159084	26857	1058319	46455	108490	0	0	8216	543062	0	0
2024-09-28 22:52:47			0	38444	0	0	0	23049	21620	159096	26887	1058284	46442	108489	0	0	8216	543287	0	0
2024-09-28 22:53:47			0	38455	0	0	0	23041	21630	159064	26672	1058346	46455	108486	0	0	8217	542828	0	0
2024-09-28 22:54:47			0	38470	0	0	0	23046	21630	159064	26970	1058319	46455	108488	0	0	8218	542245	0	0
2024-09-28 22:55:47			0	38452	0	0	0	23038	21620	159096	26693	1058310	46454	108485	0	0	8217	542975	0	0
2024-09-28 22:56:47			0	38449	0	0	0	23038	21620	159028	27001	1058230	46454	108485	0	0	8216	543092	0	0
2024-09-28 22:57:47			0	38447	0	0	0	23036	21630	159136	26798	1058275	46456	108484	0	0	8216	543140	0	0
2024-09-28 22:58:47			0	38447	0	0	0	23033	21610	159172	26833	1058239	46442	108483	0	0	8216	543200	0	0
2024-09-28 22:59:47			0	38440	0	0	0	23033	21620	158996	26597	1058275	46454	108483	0	0	8216	543443	0	0
2024-09-28 23:00:47			0	38451	0	0	0	23023	21620	159060	26849	1058275	46454	108479	0	0	8217	543014	0	0
2024-09-28 23:01:47			0	38451	0	0	0	23018	21620	159008	26778	1058248	46475	108477	0	0	8217	543014	0	0
2024-09-28 23:02:47			0	38452	0	0	0	23028	21610	159120	26809	1058212	46454	108481	0	0	8217	543006	0	0
2024-09-28 23:03:47			0	38453	0	0	0	23020	21620	159040	26963	1058301	46454	108478	0	0	8217	542936	0	0
2024-09-28 23:04:47			0	38457	0	0	0	23018	21610	159104	27017	1058203	46452	108477	0	0	8217	542811	0	0
2024-09-28 23:05:47			0	38460	0	0	0	23020	21620	158924	27133	1058221	46442	108478	0	0	8217	542664	0	0
2024-09-28 23:06:47			0	38469	0	0	0	23023	21600	159004	26791	1058221	46440	108479	0	0	8218	542374	0	0
2024-09-28 23:07:47			0	38468	0	0	0	23023	21610	159024	26672	1058203	46463	108479	0	0	8218	542383	0	0
2024-09-28 23:08:47			0	38451	0	0	0	23015	21600	158940	26609	1058194	46440	108476	0	0	8217	543075	0	0
2024-09-28 23:09:47			0	38446	0	0	0	23020	21610	158964	26670	1058186	46454	108478	0	0	8216	543239	0	0
2024-09-28 23:10:47			0	38463	0	0	0	23025	21600	159032	26890	1058168	46452	108480	0	0	8217	542608	0	0
2024-09-28 23:11:47			0	38476	0	0	0	23025	21600	159028	26824	1058168	46452	108480	0	0	8218	542102	0	0
2024-09-28 23:12:47			0	38473	0	0	0	23005	21600	159024	26925	1058194	46452	108472	0	0	8218	542219	0	0
2024-09-28 23:13:47			0	38453	0	0	0	23025	21600	159036	27060	1058159	46451	108480	0	0	8217	542997	0	0
2024-09-28 23:14:47			0	38483	0	0	0	23020	21600	158972	27020	1058141	46462	108478	0	0	8219	541830	0	0
2024-09-28 23:15:47			0	38482	0	0	0	23015	21610	158900	26989	1058150	46441	108476	0	0	8219	541839	0	0
2024-09-28 23:16:47			0	38473	0	0	0	23018	21590	158960	27038	1058114	46439	108477	0	0	8218	542249	0	0
2024-09-28 23:17:47			0	38479	0	0	0	23012	21600	158972	26778	1058194	46452	108475	0	0	8218	541985	0	0
2024-09-28 23:18:47			0	38472	0	0	0	23015	21600	159004	26927	1058114	46462	108476	0	0	8218	542258	0	0
2024-09-28 23:19:47			0	38470	0	0	0	23012	21600	158952	26991	1058105	46451	108475	0	0	8218	542335	0	0
2024-09-28 23:20:47			0	38483	0	0	0	23010	21590	158956	26937	1058123	46439	108474	0	0	8219	541860	0	0
2024-09-28 23:21:47			0	38486	0	0	0	23025	21600	158972	26960	1058132	46439	108480	0	0	8219	541713	0	0
2024-09-28 23:22:47			0	38479	0	0	0	23007	21590	159032	26772	1058168	46461	108473	0	0	8219	542015	0	0
2024-09-28 23:23:47			0	38462	0	0	0	23015	21590	158976	27095	1058123	46451	108476	0	0	8217	542677	0	0
2024-09-28 23:24:47			0	38455	0	0	0	23018	21580	159032	26842	1058105	46450	108477	0	0	8217	542979	0	0
2024-09-28 23:25:47			0	38452	0	0	0	23015	21590	159088	26684	1058150	46451	108476	0	0	8217	543066	0	0
2024-09-28 23:26:47			0	38458	0	0	0	23018	21590	159008	26963	1058176	46451	108477	0	0	8217	542832	0	0
2024-09-28 23:27:47			0	38434	0	0	0	23028	21590	159108	26930	1058168	46451	108481	0	0	8216	543767	0	0
2024-09-28 23:28:47			0	38421	0	0	0	23020	21590	159128	27388	1058141	46439	108478	0	0	8215	544274	0	0
2024-09-28 23:29:47			0	38415	0	0	0	23036	21580	159264	26778	1058159	46450	108484	0	0	8214	544538	0	0
2024-09-28 23:30:47			0	38414	0	0	0	23028	21590	159260	26828	1058141	46461	108481	0	0	8214	544547	0	0
2024-09-28 23:31:47			0	38389	0	0	0	23049	21580	159348	27197	1058123	46459	108489	0	0	8213	545552	0	0
2024-09-28 23:32:47			0	38358	0	0	0	23064	21600	159340	26970	1058159	46451	108495	0	0	8211	546702	0	0
2024-09-28 23:33:47			0	38352	0	0	0	23098	21600	159592	26618	1058185	46451	108508	0	0	8210	546937	0	0
2024-09-28 23:34:47			0	38294	0	0	0	23194	21600	159720	27109	1058212	46461	108545	0	0	8205	549208	0	0
2024-09-28 23:35:47			0	38275	0	0	0	23145	21600	159856	26795	1058274	46473	108526	0	0	8204	549953	0	0
2024-09-28 23:36:47			0	38243	0	0	0	23194	21600	160024	27031	1058221	46462	108545	0	0	8202	551209	0	0
2024-09-28 23:37:47			0	38216	0	0	0	23288	21610	160216	26894	1058390	46452	108581	0	0	8199	552240	0	0
2024-09-28 23:38:47			0	38210	0	0	0	23249	21620	160192	26930	1058443	46486	108566	0	0	8199	552445	0	0
2024-09-28 23:39:47			0	38210	0	0	0	23218	21610	160028	27301	1058399	46475	108554	0	0	8199	552476	0	0
2024-09-28 23:40:47			0	38226	0	0	0	23244	21630	160056	26970	1058479	46476	108564	0	0	8200	551785	0	0
2024-09-28 23:41:47			0	38223	0	0	0	23280	21640	160092	26908	1058533	46488	108578	0	0	8199	551872	0	0
2024-09-28 23:42:47			0	38222	0	0	0	23202	21650	160064	26731	1058568	46489	108548	0	0	8201	551881	0	0
2024-09-28 23:43:47			0	38184	0	0	0	23218	21660	160052	26897	1058542	46468	108554	0	0	8198	553345	0	0
2024-09-28 23:44:47			0	38182	0	0	0	23116	21650	160152	26798	1058604	46479	108515	0	0	8200	553455	0	0
2024-09-28 23:45:47			0	38148	0	0	0	23096	21650	160328	26748	1058444	46479	108507	0	0	8198	554795	0	0
2024-09-28 23:46:47			0	38084	0	0	0	23057	21650	160432	27064	1058444	46458	108492	0	0	8195	557323	0	0
2024-09-28 23:47:47			0	38059	0	0	0	23054	21650	160700	26842	1058408	46457	108491	0	0	8193	558313	0	0
2024-09-28 23:48:47			0	38010	0	0	0	23059	21640	160715	27034	1058337	46466	108493	0	0	8190	560286	0	0
2024-09-28 23:49:47			0	37983	0	0	0	23083	21640	161079	27157	1058337	46444	108502	0	0	8188	561358	0	0
2024-09-28 23:50:47			0	37956	0	0	0	23031	21630	161023	27128	1058239	46443	108482	0	0	8188	562463	0	0
2024-09-28 23:51:47			0	37940	0	0	0	23015	21610	161083	27116	1058239	46454	108476	0	0	8187	563163	0	0
2024-09-28 23:52:47			0	37958	0	0	0	22948	21620	161027	26934	1058168	46442	108450	0	0	8189	562415	0	0
2024-09-28 23:53:47			0	37918	0	0	0	22937	21610	161099	26991	1058150	46419	108446	0	0	8187	564039	0	0
2024-09-28 23:54:47			0	37894	0	0	0	22906	21600	161199	27100	1058026	46417	108434	0	0	8186	565028	0	0
2024-09-28 23:55:47			0	37909	0	0	0	22901	21590	161275	27159	1058017	46428	108432	0	0	8187	564461	0	0
2024-09-28 23:56:47			0	37899	0	0	0	22898	21580	161363	27296	1057936	46416	108431	0	0	8186	564891	0	0
2024-09-28 23:57:47			0	37866	0	0	0	22898	21570	161359	27012	1057838	46426	108431	0	0	8184	566240	0	0
2024-09-28 23:58:47			0	37871	0	0	0	22896	21560	161291	27010	1057820	46424	108430	0	0	8185	566072	0	0
2024-09-28 23:59:47			0	37892	0	0	0	22890	21540	161271	26835	1057767	46423	108428	0	0	8186	565296	0	0
2024-09-29 00:00:47			0	37921	0	0	0	22872	21540	161243	27150	1057731	46433	108421	0	0	8188	564139	0	0
2024-09-29 00:01:47			0	37912	0	0	0	22870	21520	161147	26904	1057704	46411	108420	0	0	8187	564561	0	0
2024-09-29 00:02:47			0	37915	0	0	0	22875	21510	161323	27246	1057687	46409	108422	0	0	8187	564472	0	0
2024-09-29 00:03:47			0	37911	0	0	0	22854	21510	161379	26833	1057633	46419	108414	0	0	8188	564632	0	0
2024-09-29 00:04:47			0	37908	0	0	0	22862	21500	161287	26922	1057606	46429	108417	0	0	8187	564783	0	0
2024-09-29 00:05:47			0	37906	0	0	0	22864	21500	161379	27076	1057562	46430	108418	0	0	8187	564863	0	0
2024-09-29 00:06:47			0	37902	0	0	0	22854	21490	161371	27067	1057544	46428	108414	0	0	8187	565054	0	0
2024-09-29 00:07:47			0	37907	0	0	0	22857	21490	161459	27185	1057535	46417	108415	0	0	8187	564854	0	0
2024-09-29 00:08:47			0	37908	0	0	0	22846	21480	161343	26831	1057500	46439	108411	0	0	8187	564846	0	0
2024-09-29 00:09:47			0	37932	0	0	0	22859	21480	161339	27111	1057553	46417	108416	0	0	8189	563889	0	0
2024-09-29 00:10:47			0	37953	0	0	0	22867	21470	161211	27376	1057508	46416	108419	0	0	8190	563083	0	0
2024-09-29 00:11:47			0	37975	0	0	0	22862	21470	161047	27114	1057482	46426	108417	0	0	8191	562208	0	0
2024-09-29 00:12:47			0	38001	0	0	0	22854	21470	160987	26816	1057482	46437	108414	0	0	8193	561174	0	0
2024-09-29 00:13:47			0	38024	0	0	0	22867	21470	160888	26949	1057499	46436	108419	0	0	8194	560260	0	0
2024-09-29 00:14:47			0	38065	0	0	0	22867	21470	160780	26925	1057508	46426	108419	0	0	8196	558634	0	0
2024-09-29 00:15:47			0	38092	0	0	0	22862	21460	160740	26868	1057482	46436	108417	0	0	8198	557596	0	0
2024-09-29 00:16:47			0	38119	0	0	0	22857	21470	160556	27013	1057526	46436	108415	0	0	8200	556496	0	0
2024-09-29 00:17:47			0	38109	0	0	0	22849	21460	160508	27071	1057508	46436	108412	0	0	8199	556923	0	0
2024-09-29 00:18:47			0	38124	0	0	0	22849	21450	160460	27114	1057383	46423	108412	0	0	8200	556361	0	0
2024-09-29 00:19:47			0	38114	0	0	0	22854	21450	160420	27189	1057330	46413	108414	0	0	8199	556756	0	0
2024-09-29 00:20:47			0	38140	0	0	0	22857	21460	160388	26760	1057428	46448	108415	0	0	8201	555698	0	0
2024-09-29 00:21:47			0	38153	0	0	0	22836	21440	160316	26644	1057428	46434	108407	0	0	8202	555246	0	0
2024-09-29 00:22:47			0	38161	0	0	0	22841	21440	160388	26993	1057401	46434	108409	0	0	8202	554930	0	0
2024-09-29 00:23:47			0	38194	0	0	0	22849	21430	160312	27066	1057356	46422	108412	0	0	8204	553659	0	0
2024-09-29 00:24:47			0	38197	0	0	0	22849	21430	160156	26833	1057383	46433	108412	0	0	8204	553541	0	0
2024-09-29 00:25:47			0	38202	0	0	0	22841	21430	160120	27043	1057294	46421	108409	0	0	8204	553344	0	0
2024-09-29 00:26:47			0	38211	0	0	0	22841	21430	160096	26745	1057356	46433	108409	0	0	8205	552990	0	0
2024-09-29 00:27:47			0	38219	0	0	0	22838	21440	160284	26961	1057401	46445	108408	0	0	8206	552644	0	0
2024-09-29 00:28:47			0	38235	0	0	0	22846	21420	160080	26689	1057339	46444	108411	0	0	8206	552076	0	0
2024-09-29 00:29:47			0	38237	0	0	0	22836	21420	160096	26781	1057250	46432	108407	0	0	8207	551997	0	0
2024-09-29 00:30:47			0	38247	0	0	0	22831	21420	160020	27024	1057259	46432	108405	0	0	8207	551604	0	0
2024-09-29 00:31:47			0	38251	0	0	0	22831	21430	160068	27208	1057294	46432	108405	0	0	8207	551416	0	0
2024-09-29 00:32:47			0	38268	0	0	0	22836	21420	159940	27173	1057330	46421	108407	0	0	8208	550778	0	0
2024-09-29 00:33:47			0	38278	0	0	0	22820	21420	159988	27307	1057196	46432	108401	0	0	8209	550386	0	0
2024-09-29 00:34:47			0	38277	0	0	0	22823	21420	159904	27059	1057339	46421	108402	0	0	8209	550425	0	0
2024-09-29 00:35:47			0	38281	0	0	0	22818	21410	159928	27128	1057188	46420	108400	0	0	8209	550299	0	0
2024-09-29 00:36:47			0	38288	0	0	0	22825	21410	159816	27036	1057241	46420	108403	0	0	8210	550024	0	0
2024-09-29 00:37:47			0	38297	0	0	0	22812	21400	159920	26961	1057196	46418	108398	0	0	8210	549701	0	0
2024-09-29 00:38:47			0	38292	0	0	0	22815	21420	159840	27267	1057250	46421	108399	0	0	8210	549836	0	0
2024-09-29 00:39:47			0	38284	0	0	0	22807	21400	159756	26859	1057179	46419	108396	0	0	8210	550211	0	0
2024-09-29 00:40:47			0	38278	0	0	0	22812	21390	159824	27358	1057152	46418	108398	0	0	8209	550477	0	0
2024-09-29 00:41:47			0	38267	0	0	0	22807	21400	159860	27260	1057196	46418	108396	0	0	8209	550879	0	0
2024-09-29 00:42:47			0	38254	0	0	0	22805	21400	160068	26913	1057196	46418	108395	0	0	8208	551390	0	0
2024-09-29 00:43:47			0	38231	0	0	0	22797	21400	160156	27350	1057143	46418	108392	0	0	8207	552295	0	0
2024-09-29 00:44:47			0	38205	0	0	0	22812	21390	160320	27123	1057205	46429	108398	0	0	8205	553349	0	0
2024-09-29 00:45:47			0	38202	0	0	0	22807	21390	160284	27145	1057152	46429	108396	0	0	8205	553467	0	0
2024-09-29 00:46:47			0	38201	0	0	0	22810	21380	160240	26986	1057134	46416	108397	0	0	8205	553537	0	0
2024-09-29 00:47:47			0	38174	0	0	0	22805	21390	160288	27190	1057178	46440	108395	0	0	8203	554571	0	0
2024-09-29 00:48:47			0	38178	0	0	0	22807	21390	160428	27081	1057152	46429	108396	0	0	8203	554413	0	0
2024-09-29 00:49:47			0	38175	0	0	0	22797	21380	160436	27324	1057063	46407	108392	0	0	8203	554563	0	0
2024-09-29 00:50:47			0	38174	0	0	0	22812	21390	160360	26890	1057098	46429	108398	0	0	8203	554571	0	0
2024-09-29 00:51:47			0	38170	0	0	0	22815	21380	160468	27131	1057169	46428	108399	0	0	8203	554760	0	0
2024-09-29 00:52:47			0	38177	0	0	0	22807	21380	160396	27300	1057169	46417	108396	0	0	8203	554484	0	0
2024-09-29 00:53:47			0	38191	0	0	0	22805	21380	160380	27109	1057134	46427	108395	0	0	8204	553932	0	0
2024-09-29 00:54:47			0	38191	0	0	0	22818	21380	160388	26901	1057134	46427	108400	0	0	8204	553932	0	0
2024-09-29 00:55:47			0	38161	0	0	0	22807	21390	160524	26974	1057178	46408	108396	0	0	8202	555084	0	0
2024-09-29 00:56:47			0	38149	0	0	0	22794	21390	160468	26788	1057152	46440	108391	0	0	8202	555558	0	0
2024-09-29 00:57:47			0	38126	0	0	0	22774	21380	160612	26902	1057116	46407	108383	0	0	8201	556498	0	0
2024-09-29 00:58:47			0	38125	0	0	0	22779	21390	160580	26955	1057125	46429	108385	0	0	8201	556507	0	0
2024-09-29 00:59:47			0	38105	0	0	0	22774	21380	160652	26965	1057081	46427	108383	0	0	8200	557329	0	0
2024-09-29 01:00:47			0	38103	0	0	0	22763	21380	160696	27001	1057054	46427	108379	0	0	8200	557408	0	0
2024-09-29 01:01:47			0	38097	0	0	0	22763	21370	160696	27114	1056965	46416	108379	0	0	8199	557676	0	0
2024-09-29 01:02:47			0	38100	0	0	0	22755	21370	160760	26844	1057045	46416	108376	0	0	8200	557558	0	0
2024-09-29 01:03:47			0	38081	0	0	0	22766	21360	160776	26901	1057000	46405	108380	0	0	8198	558341	0	0
2024-09-29 01:04:47			0	38081	0	0	0	22781	21370	160772	27145	1057018	46427	108386	0	0	8198	558310	0	0
2024-09-29 01:05:47			0	38070	0	0	0	22774	21360	160836	26729	1057000	46426	108383	0	0	8198	558777	0	0
2024-09-29 01:06:47			0	38049	0	0	0	22784	21350	160884	27048	1057009	46425	108387	0	0	8196	559641	0	0
2024-09-29 01:07:47			0	38026	0	0	0	22786	21360	160972	27208	1057018	46436	108388	0	0	8195	560523	0	0
2024-09-29 01:08:47			0	38018	0	0	0	22776	21360	160991	27194	1057027	46426	108384	0	0	8194	560841	0	0
2024-09-29 01:09:47			0	37989	0	0	0	22774	21360	161059	26906	1056992	46436	108383	0	0	8193	561994	0	0
2024-09-29 01:10:47			0	38009	0	0	0	22776	21360	161099	26901	1057000	46416	108384	0	0	8194	561199	0	0
2024-09-29 01:11:47			0	37967	0	0	0	22771	21350	161235	27079	1056947	46436	108382	0	0	8192	562901	0	0
2024-09-29 01:12:47			0	37978	0	0	0	22774	21360	161179	27019	1056965	46415	108383	0	0	8192	562432	0	0
2024-09-29 01:13:47			0	37979	0	0	0	22755	21350	161279	27228	1057009	46425	108376	0	0	8192	562423	0	0
2024-09-29 01:14:47			0	37978	0	0	0	22753	21350	161155	26875	1056956	46425	108375	0	0	8192	562463	0	0
2024-09-29 01:15:47			0	37984	0	0	0	22763	21350	161199	26842	1056920	46436	108379	0	0	8193	562224	0	0
2024-09-29 01:16:47			0	37991	0	0	0	22755	21350	161215	27284	1056974	46415	108376	0	0	8193	561946	0	0
2024-09-29 01:17:47			0	37990	0	0	0	22763	21360	161143	27124	1056965	46425	108379	0	0	8193	561954	0	0
2024-09-29 01:18:47			0	38015	0	0	0	22761	21340	161127	27055	1056911	46414	108378	0	0	8194	561023	0	0
2024-09-29 01:19:47			0	38000	0	0	0	22758	21340	161159	26967	1056858	46414	108377	0	0	8194	561619	0	0
2024-09-29 01:20:47			0	38007	0	0	0	22748	21350	161167	27147	1056947	46425	108373	0	0	8194	561309	0	0
2024-09-29 01:21:47			0	37999	0	0	0	22740	21330	161123	26941	1056947	46413	108370	0	0	8194	561690	0	0
2024-09-29 01:22:47			0	38003	0	0	0	22732	21340	161115	27013	1056885	46414	108367	0	0	8194	561500	0	0
2024-09-29 01:23:47			0	38009	0	0	0	22735	21330	160943	26967	1056840	46423	108368	0	0	8194	561292	0	0
2024-09-29 01:24:47			0	38039	0	0	0	22729	21330	160964	26798	1056858	46401	108366	0	0	8196	560100	0	0
2024-09-29 01:25:47			0	38045	0	0	0	22729	21330	160980	27005	1056831	46422	108366	0	0	8197	559862	0	0
2024-09-29 01:26:47			0	38042	0	0	0	22719	21320	160972	27149	1056866	46411	108362	0	0	8197	560012	0	0
2024-09-29 01:27:47			0	38049	0	0	0	22711	21330	161044	27213	1056778	46412	108359	0	0	8197	559703	0	0
2024-09-29 01:28:47			0	38068	0	0	0	22711	21320	160884	27180	1056795	46412	108359	0	0	8198	558981	0	0
2024-09-29 01:29:47			0	38059	0	0	0	22709	21310	160820	26772	1056724	46410	108358	0	0	8198	559369	0	0
2024-09-29 01:30:47			0	38058	0	0	0	22703	21320	160852	27043	1056733	46421	108356	0	0	8198	559377	0	0
2024-09-29 01:31:47			0	38076	0	0	0	22703	21320	160816	27154	1056733	46421	108356	0	0	8199	558663	0	0
2024-09-29 01:32:47			0	38072	0	0	0	22693	21310	160812	27010	1056715	46410	108352	0	0	8199	558853	0	0
2024-09-29 01:33:47			0	38074	0	0	0	22688	21300	160868	27046	1056680	46420	108350	0	0	8199	558805	0	0
2024-09-29 01:34:47			0	38074	0	0	0	22688	21300	160784	26856	1056697	46419	108350	0	0	8199	558805	0	0
2024-09-29 01:35:47			0	38086	0	0	0	22675	21300	160848	26882	1056644	46398	108345	0	0	8200	558329	0	0
2024-09-29 01:36:47			0	38081	0	0	0	22675	21280	160880	26648	1056635	46428	108345	0	0	8200	558589	0	0
2024-09-29 01:37:47			0	38085	0	0	0	22672	21290	160888	26975	1056662	46408	108344	0	0	8200	558400	0	0
2024-09-29 01:38:47			0	38088	0	0	0	22677	21280	160932	26807	1056582	46407	108346	0	0	8200	558312	0	0
2024-09-29 01:39:47			0	38056	0	0	0	22683	21280	160860	27147	1056591	46397	108348	0	0	8198	559581	0	0
2024-09-29 01:40:47			0	38060	0	0	0	22683	21280	160900	26949	1056591	46408	108348	0	0	8198	559422	0	0
2024-09-29 01:41:47			0	38052	0	0	0	22677	21270	160892	27256	1056573	46416	108346	0	0	8198	559771	0	0
2024-09-29 01:42:47			0	38033	0	0	0	22683	21280	161164	26996	1056555	46428	108348	0	0	8197	560494	0	0
2024-09-29 01:43:47			0	38043	0	0	0	22677	21270	160868	26923	1056599	46416	108346	0	0	8197	560128	0	0
2024-09-29 01:44:47			0	38031	0	0	0	22677	21270	160935	26821	1056546	46416	108346	0	0	8196	560605	0	0
2024-09-29 01:45:47			0	38024	0	0	0	22677	21280	161007	27209	1056555	46417	108346	0	0	8196	560852	0	0
2024-09-29 01:46:47			0	38017	0	0	0	22677	21270	161007	27147	1056546	46395	108346	0	0	8196	561161	0	0
2024-09-29 01:47:47			0	38017	0	0	0	22659	21260	160991	26871	1056519	46405	108339	0	0	8196	561192	0	0
2024-09-29 01:48:47			0	38001	0	0	0	22667	21260	161095	26968	1056546	46394	108342	0	0	8195	561829	0	0
2024-09-29 01:49:47			0	37999	0	0	0	22672	21260	161147	26837	1056528	46416	108344	0	0	8195	561908	0	0
2024-09-29 01:50:47			0	37974	0	0	0	22667	21260	161091	26998	1056555	46416	108342	0	0	8193	562904	0	0
2024-09-29 01:51:47			0	37989	0	0	0	22677	21260	161147	27338	1056555	46405	108346	0	0	8194	562306	0	0
2024-09-29 01:52:47			0	37981	0	0	0	22675	21260	161131	26911	1056519	46405	108345	0	0	8194	562625	0	0
2024-09-29 01:53:47			0	37984	0	0	0	22675	21250	161143	27137	1056510	46415	108345	0	0	8194	562537	0	0
2024-09-29 01:54:47			0	37981	0	0	0	22680	21250	161207	26814	1056484	46404	108347	0	0	8193	562656	0	0
2024-09-29 01:55:47			0	37977	0	0	0	22683	21260	161235	26852	1056519	46416	108348	0	0	8193	562784	0	0
2024-09-29 01:56:47			0	37966	0	0	0	22688	21250	161339	26875	1056528	46415	108350	0	0	8192	563254	0	0
2024-09-29 01:57:47			0	37947	0	0	0	22688	21250	161323	26793	1056564	46425	108350	0	0	8191	564011	0	0
2024-09-29 01:58:47			0	37936	0	0	0	22698	21250	161343	27149	1056501	46415	108354	0	0	8190	564450	0	0
2024-09-29 01:59:47			0	37937	0	0	0	22701	21260	161355	27057	1056528	46416	108355	0	0	8191	564379	0	0
2024-09-29 02:00:47			0	37941	0	0	0	22688	21260	161427	26781	1056582	46437	108350	0	0	8191	564219	0	0
2024-09-29 02:01:47			0	37930	0	0	0	22698	21280	161615	27081	1056635	46417	108354	0	0	8190	564595	0	0
2024-09-29 02:02:47			0	37935	0	0	0	22698	21270	161467	27015	1056617	46406	108354	0	0	8191	564427	0	0
2024-09-29 02:03:47			0	37914	0	0	0	22690	21270	161543	27045	1056537	46395	108351	0	0	8189	565266	0	0
2024-09-29 02:04:47			0	37915	0	0	0	22690	21270	161623	26750	1056564	46416	108351	0	0	8189	565226	0	0
2024-09-29 02:05:47			0	37893	0	0	0	22693	21260	161583	27135	1056608	46416	108352	0	0	8188	566136	0	0
2024-09-29 02:06:47			0	37895	0	0	0	22690	21260	161639	26944	1056573	46416	108351	0	0	8188	566056	0	0
2024-09-29 02:07:47			0	37912	0	0	0	22685	21260	161603	27274	1056608	46416	108349	0	0	8189	565377	0	0
2024-09-29 02:08:47			0	37883	0	0	0	22667	21270	161631	26913	1056564	46427	108342	0	0	8188	566505	0	0
2024-09-29 02:09:47			0	37892	0	0	0	22675	21260	161659	26861	1056528	46416	108345	0	0	8188	566176	0	0
2024-09-29 02:10:47			0	37875	0	0	0	22672	21260	161723	27100	1056546	46416	108344	0	0	8187	566856	0	0
2024-09-29 02:11:47			0	37886	0	0	0	22677	21260	161691	26842	1056573	46426	108346	0	0	8188	566416	0	0
2024-09-29 02:12:47			0	37859	0	0	0	22677	21260	161715	27052	1056546	46416	108346	0	0	8186	567497	0	0
2024-09-29 02:13:47			0	37881	0	0	0	22677	21260	161751	27059	1056528	46416	108346	0	0	8188	566616	0	0
2024-09-29 02:14:47			0	37870	0	0	0	22675	21260	161671	27100	1056466	46426	108345	0	0	8187	567056	0	0
2024-09-29 02:15:47			0	37867	0	0	0	22677	21260	161735	27013	1056555	46405	108346	0	0	8187	567176	0	0
2024-09-29 02:16:47			0	37868	0	0	0	22672	21260	161775	27147	1056502	46416	108344	0	0	8187	567136	0	0
2024-09-29 02:17:47			0	37865	0	0	0	22688	21260	161671	26840	1056502	46416	108350	0	0	8187	567256	0	0
2024-09-29 02:18:47			0	37854	0	0	0	22685	21260	161823	27235	1056599	46405	108349	0	0	8186	567697	0	0
2024-09-29 02:19:47			0	37845	0	0	0	22693	21260	161711	27267	1056528	46405	108352	0	0	8185	568057	0	0
2024-09-29 02:20:47			0	37855	0	0	0	22696	21260	161751	27254	1056555	46416	108353	0	0	8186	567657	0	0
2024-09-29 02:21:47			0	37826	0	0	0	22711	21260	161851	27312	1056599	46416	108359	0	0	8184	568819	0	0
2024-09-29 02:22:47			0	37835	0	0	0	22696	21260	161835	26981	1056582	46416	108353	0	0	8185	568458	0	0
2024-09-29 02:23:47			0	37831	0	0	0	22693	21260	161875	27433	1056582	46416	108352	0	0	8184	568619	0	0
2024-09-29 02:24:47			0	37840	0	0	0	22690	21270	161983	27154	1056644	46416	108351	0	0	8185	568226	0	0
2024-09-29 02:25:47			0	37828	0	0	0	22701	21260	161839	26927	1056546	46416	108355	0	0	8184	568739	0	0
2024-09-29 02:26:47			0	37812	0	0	0	22698	21260	161831	26804	1056555	46426	108354	0	0	8183	569381	0	0
2024-09-29 02:27:47			0	37830	0	0	0	22685	21260	161823	27027	1056608	46416	108349	0	0	8185	568659	0	0
2024-09-29 02:28:47			0	37811	0	0	0	22698	21260	161679	26876	1056608	46416	108354	0	0	8183	569421	0	0
2024-09-29 02:29:47			0	37820	0	0	0	22680	21270	161735	27055	1056617	46416	108347	0	0	8184	569028	0	0
2024-09-29 02:30:47			0	37824	0	0	0	22659	21260	161763	26934	1056519	46416	108339	0	0	8185	568899	0	0
2024-09-29 02:31:47			0	37803	0	0	0	22670	21260	161771	26930	1056502	46416	108343	0	0	8183	569742	0	0
2024-09-29 02:32:47			0	37819	0	0	0	22670	21260	161855	27013	1056519	46394	108343	0	0	8184	569100	0	0
2024-09-29 02:33:47			0	37808	0	0	0	22657	21260	161871	27185	1056608	46394	108338	0	0	8184	569541	0	0
2024-09-29 02:34:47			0	37809	0	0	0	22651	21250	161943	27225	1056484	46404	108336	0	0	8184	569533	0	0
2024-09-29 02:35:47			0	37797	0	0	0	22638	21250	161927	26948	1056421	46415	108331	0	0	8183	570014	0	0
2024-09-29 02:36:47			0	37779	0	0	0	22636	21240	162047	27001	1056466	46392	108330	0	0	8182	570769	0	0
2024-09-29 02:37:47			0	37786	0	0	0	22636	21250	161951	26941	1056484	46381	108330	0	0	8183	570456	0	0
2024-09-29 02:38:47			0	37803	0	0	0	22631	21250	161959	27130	1056448	46393	108328	0	0	8184	569773	0	0
2024-09-29 02:39:47			0	37810	0	0	0	22633	21250	161927	27055	1056421	46381	108329	0	0	8184	569493	0	0
2024-09-29 02:40:47			0	37785	0	0	0	22636	21230	161935	26778	1056368	46413	108330	0	0	8183	570560	0	0
2024-09-29 02:41:47			0	37788	0	0	0	22631	21240	162103	26961	1056377	46414	108328	0	0	8183	570408	0	0
2024-09-29 02:42:47			0	37790	0	0	0	22633	21230	162059	27076	1056368	46391	108329	0	0	8183	570359	0	0
2024-09-29 02:43:47			0	37779	0	0	0	22631	21230	161995	27133	1056306	46391	108328	0	0	8182	570801	0	0
2024-09-29 02:44:47			0	37781	0	0	0	22615	21230	162039	27055	1056394	46402	108322	0	0	8183	570721	0	0
2024-09-29 02:45:47			0	37761	0	0	0	22615	21220	162019	27020	1056368	46400	108322	0	0	8181	571556	0	0
2024-09-29 02:46:47			0	37764	0	0	0	22620	21220	162019	27064	1056323	46378	108324	0	0	8182	571436	0	0
2024-09-29 02:47:47			0	37743	0	0	0	22607	21220	162115	26963	1056350	46401	108319	0	0	8181	572281	0	0
2024-09-29 02:48:47			0	37747	0	0	0	22612	21220	162111	26963	1056297	46401	108321	0	0	8181	572120	0	0
2024-09-29 02:49:47			0	37736	0	0	0	22597	21210	162115	26993	1056252	46389	108315	0	0	8180	572594	0	0
2024-09-29 02:50:47			0	37759	0	0	0	22581	21210	162115	27052	1056269	46376	108309	0	0	8182	571669	0	0
2024-09-29 02:51:47			0	37749	0	0	0	22584	21210	162171	26786	1056243	46399	108310	0	0	8181	572071	0	0
2024-09-29 02:52:47			0	37755	0	0	0	22589	21190	162103	27083	1056163	46375	108312	0	0	8181	571893	0	0
2024-09-29 02:53:47			0	37757	0	0	0	22589	21200	162251	27097	1056172	46409	108312	0	0	8182	571781	0	0
2024-09-29 02:54:47			0	37750	0	0	0	22589	21200	162231	27204	1056278	46387	108312	0	0	8181	572063	0	0
2024-09-29 02:55:47			0	37729	0	0	0	22589	21190	162207	26961	1056189	46375	108312	0	0	8180	572940	0	0
2024-09-29 02:56:47			0	37738	0	0	0	22597	21190	162267	26982	1056189	46409	108315	0	0	8180	572578	0	0
2024-09-29 02:57:47			0	37740	0	0	0	22592	21200	162175	26897	1056252	46409	108313	0	0	8180	572465	0	0
2024-09-29 02:58:47			0	37734	0	0	0	22589	21180	162247	26757	1056198	46385	108312	0	0	8180	572770	0	0
2024-09-29 02:59:47			0	37727	0	0	0	22592	21190	162287	26989	1056163	46409	108313	0	0	8180	573021	0	0
2024-09-29 03:00:47			0	37729	0	0	0	22586	21180	162295	26819	1056145	46397	108311	0	0	8180	572972	0	0
2024-09-29 03:01:47			0	37734	0	0	0	22584	21180	162335	26904	1056092	46397	108310	0	0	8180	572770	0	0
2024-09-29 03:02:47			0	37712	0	0	0	22579	21190	162339	26710	1056127	46385	108308	0	0	8179	573625	0	0
2024-09-29 03:03:47			0	37713	0	0	0	22576	21180	162295	27098	1056163	46384	108307	0	0	8179	573617	0	0
2024-09-29 03:04:47			0	37715	0	0	0	22574	21170	162303	27131	1056180	46396	108306	0	0	8179	573568	0	0
2024-09-29 03:05:47			0	37727	0	0	0	22579	21180	162311	27093	1056109	46384	108308	0	0	8180	573052	0	0
2024-09-29 03:06:47			0	37701	0	0	0	22571	21170	162383	27216	1056074	46396	108305	0	0	8178	574133	0	0
2024-09-29 03:07:47			0	37717	0	0	0	22574	21170	162371	26876	1056065	46373	108306	0	0	8179	573487	0	0
2024-09-29 03:08:47			0	37717	0	0	0	22576	21160	162339	27036	1056109	46395	108307	0	0	8179	573519	0	0
2024-09-29 03:09:47			0	37715	0	0	0	22581	21160	162319	27088	1056056	46395	108309	0	0	8179	573600	0	0
2024-09-29 03:10:47			0	37720	0	0	0	22576	21160	162323	26885	1056074	46394	108307	0	0	8179	573398	0	0
2024-09-29 03:11:47			0	37734	0	0	0	22579	21170	162303	27130	1056091	46395	108308	0	0	8180	572802	0	0
2024-09-29 03:12:47			0	37731	0	0	0	22576	21170	162227	27203	1056118	46395	108307	0	0	8180	572923	0	0
2024-09-29 03:13:47			0	37713	0	0	0	22571	21160	162319	26786	1056082	46395	108305	0	0	8179	573680	0	0
2024-09-29 03:14:47			0	37703	0	0	0	22576	21160	162475	27204	1056074	46405	108307	0	0	8178	574084	0	0
2024-09-29 03:15:47			0	37698	0	0	0	22568	21160	162435	27078	1056127	46394	108304	0	0	8178	574286	0	0
2024-09-29 03:16:47			0	37695	0	0	0	22571	21160	162407	27182	1056100	46405	108305	0	0	8178	574407	0	0
2024-09-29 03:17:47			0	37686	0	0	0	22566	21170	162415	26896	1056118	46373	108303	0	0	8178	574738	0	0
2024-09-29 03:18:47			0	37704	0	0	0	22550	21160	162383	27149	1056047	46394	108297	0	0	8179	574044	0	0
2024-09-29 03:19:47			0	37699	0	0	0	22568	21160	162379	27164	1056029	46383	108304	0	0	8178	574245	0	0
2024-09-29 03:20:47			0	37701	0	0	0	22568	21160	162335	27124	1055994	46394	108304	0	0	8178	574165	0	0
2024-09-29 03:21:47			0	37689	0	0	0	22566	21150	162499	26875	1056091	46381	108303	0	0	8178	574681	0	0
2024-09-29 03:22:47			0	37700	0	0	0	22574	21160	162415	27038	1056020	46416	108306	0	0	8178	574205	0	0
2024-09-29 03:23:47			0	37677	0	0	0	22563	21160	162419	27093	1055994	46382	108302	0	0	8177	575134	0	0
2024-09-29 03:24:47			0	37694	0	0	0	22558	21160	162503	27171	1056047	46416	108300	0	0	8178	574447	0	0
2024-09-29 03:25:47			0	37681	0	0	0	22563	21160	162531	27069	1055994	46382	108302	0	0	8177	574972	0	0
2024-09-29 03:26:47			0	37664	0	0	0	22548	21160	162639	27157	1056074	46394	108296	0	0	8177	575659	0	0
2024-09-29 03:27:47			0	37632	0	0	0	22548	21150	162643	26876	1055976	46393	108296	0	0	8175	576985	0	0
2024-09-29 03:28:47			0	37642	0	0	0	22553	21140	162691	27315	1055967	46393	108298	0	0	8175	576612	0	0
2024-09-29 03:29:47			0	37620	0	0	0	22542	21150	162695	27289	1055976	46360	108294	0	0	8174	577471	0	0
2024-09-29 03:30:47			0	37636	0	0	0	22545	21150	162711	27197	1055985	46404	108295	0	0	8175	576823	0	0
2024-09-29 03:31:47			0	37618	0	0	0	22545	21140	162739	26941	1055940	46404	108295	0	0	8174	577584	0	0
2024-09-29 03:32:47			0	37609	0	0	0	22542	21140	162731	27135	1055967	46404	108294	0	0	8173	577949	0	0
2024-09-29 03:33:47			0	37618	0	0	0	22535	21140	162783	27343	1055905	46392	108291	0	0	8174	577584	0	0
2024-09-29 03:34:47			0	37625	0	0	0	22537	21140	162819	27088	1055931	46392	108292	0	0	8174	577301	0	0
2024-09-29 03:35:47			0	37611	0	0	0	22542	21130	162855	26956	1055949	46379	108294	0	0	8173	577900	0	0
2024-09-29 03:36:47			0	37602	0	0	0	22545	21120	162863	27112	1055958	46390	108295	0	0	8173	578297	0	0
2024-09-29 03:37:47			0	37617	0	0	0	22563	21140	162783	27222	1055958	46403	108302	0	0	8173	577624	0	0
2024-09-29 03:38:47			0	37599	0	0	0	22563	21140	162807	26944	1056011	46392	108302	0	0	8172	578354	0	0
2024-09-29 03:39:47			0	37614	0	0	0	22555	21130	162807	27163	1055976	46402	108299	0	0	8173	577778	0	0
2024-09-29 03:40:47			0	37614	0	0	0	22561	21130	162827	27027	1055949	46402	108301	0	0	8173	577778	0	0
2024-09-29 03:41:47			0	37623	0	0	0	22558	21130	162807	27426	1055896	46391	108300	0	0	8174	577414	0	0
2024-09-29 03:42:47			0	37618	0	0	0	22545	21110	162855	26993	1056002	46401	108295	0	0	8174	577680	0	0
2024-09-29 03:43:47			0	37598	0	0	0	22535	21120	162839	27090	1055958	46378	108291	0	0	8173	578459	0	0
2024-09-29 03:44:47			0	37599	0	0	0	22548	21130	162863	27055	1055967	46379	108296	0	0	8173	578386	0	0
2024-09-29 03:45:47			0	37584	0	0	0	22545	21130	162863	27332	1055922	46391	108295	0	0	8172	578994	0	0
2024-09-29 03:46:47			0	37595	0	0	0	22548	21130	162879	27232	1055860	46379	108296	0	0	8172	578548	0	0
2024-09-29 03:47:47			0	37605	0	0	0	22548	21130	163003	27230	1055860	46402	108296	0	0	8173	578143	0	0
2024-09-29 03:48:47			0	37593	0	0	0	22540	21130	162895	26961	1055922	46402	108293	0	0	8172	578629	0	0
2024-09-29 03:49:47			0	37605	0	0	0	22561	21120	162895	26781	1055905	46401	108301	0	0	8173	578175	0	0
2024-09-29 03:50:47			0	37596	0	0	0	22553	21140	163015	26941	1055931	46403	108298	0	0	8172	578476	0	0
2024-09-29 03:51:47			0	37574	0	0	0	22545	21110	162903	27109	1055896	46390	108295	0	0	8171	579464	0	0
2024-09-29 03:52:47			0	37571	0	0	0	22563	21120	163027	26890	1055878	46412	108302	0	0	8171	579554	0	0
2024-09-29 03:53:47			0	37560	0	0	0	22558	21120	162983	27234	1055905	46401	108300	0	0	8170	580001	0	0
2024-09-29 03:54:47			0	37595	0	0	0	22576	21140	162987	27208	1056047	46404	108307	0	0	8172	578516	0	0
2024-09-29 03:55:47			0	37598	0	0	0	22563	21140	162943	27029	1055958	46403	108302	0	0	8172	578395	0	0
2024-09-29 03:56:47			0	37588	0	0	0	22571	21140	162919	26779	1056011	46403	108305	0	0	8172	578800	0	0
2024-09-29 03:57:47			0	37591	0	0	0	22571	21140	162939	26923	1056047	46404	108305	0	0	8172	578678	0	0
2024-09-29 03:58:47			0	37589	0	0	0	22571	21130	163027	26764	1056020	46402	108305	0	0	8172	578792	0	0
2024-09-29 03:59:47			0	37559	0	0	0	22566	21140	162959	26757	1056020	46393	108303	0	0	8170	579977	0	0
2024-09-29 04:00:47			0	37556	0	0	0	22563	21140	162959	26948	1056047	46404	108302	0	0	8170	580099	0	0
2024-09-29 04:01:47			0	37561	0	0	0	22561	21150	163059	26687	1056029	46393	108301	0	0	8170	579864	0	0
2024-09-29 04:02:47			0	37557	0	0	0	22550	21140	162991	26741	1055967	46404	108297	0	0	8170	580058	0	0
2024-09-29 04:03:47			0	37574	0	0	0	22555	21150	163003	26949	1056082	46393	108299	0	0	8171	579336	0	0
2024-09-29 04:04:47			0	37590	0	0	0	22550	21140	162959	27085	1055958	46403	108297	0	0	8172	578719	0	0
2024-09-29 04:05:47			0	37587	0	0	0	22558	21140	162987	26984	1055985	46403	108300	0	0	8172	578841	0	0
2024-09-29 04:06:47			0	37569	0	0	0	22574	21140	162927	26849	1055967	46404	108306	0	0	8170	579571	0	0
2024-09-29 04:07:47			0	37597	0	0	0	22576	21140	162867	27152	1055993	46393	108307	0	0	8172	578435	0	0
2024-09-29 04:08:47			0	37613	0	0	0	22589	21150	162871	27187	1056011	46393	108312	0	0	8173	577755	0	0
2024-09-29 04:09:47			0	37593	0	0	0	22602	21150	162855	27331	1056091	46393	108317	0	0	8171	578565	0	0
2024-09-29 04:10:47			0	37622	0	0	0	22602	21150	162771	27083	1056136	46393	108317	0	0	8173	577390	0	0
2024-09-29 04:11:47			0	37623	0	0	0	22602	21150	162667	27272	1056136	46415	108317	0	0	8173	577349	0	0
2024-09-29 04:12:47			0	37643	0	0	0	22612	21150	162727	26927	1056091	46404	108321	0	0	8174	576540	0	0
2024-09-29 04:13:47			0	37647	0	0	0	22599	21160	162719	27079	1056074	46416	108316	0	0	8175	576346	0	0
2024-09-29 04:14:47			0	37658	0	0	0	22597	21150	162683	27178	1056118	46415	108315	0	0	8175	575933	0	0
2024-09-29 04:15:47			0	37627	0	0	0	22586	21170	162675	27036	1056145	46406	108311	0	0	8174	577123	0	0
2024-09-29 04:16:47			0	37594	0	0	0	22584	21160	162907	27183	1056109	46395	108310	0	0	8172	578492	0	0
2024-09-29 04:17:47			0	37567	0	0	0	22581	21170	163039	27133	1056091	46395	108309	0	0	8170	579556	0	0
2024-09-29 04:18:47			0	37543	0	0	0	22586	21160	163027	27088	1056162	46395	108311	0	0	8169	580563	0	0
2024-09-29 04:19:47			0	37528	0	0	0	22594	21170	163151	27176	1056171	46406	108314	0	0	8168	581140	0	0
2024-09-29 04:20:47			0	37500	0	0	0	22594	21160	163283	26620	1056047	46394	108314	0	0	8166	582312	0	0
2024-09-29 04:21:47			0	37463	0	0	0	22599	21160	163335	26767	1056056	46406	108316	0	0	8164	583820	0	0
2024-09-29 04:22:47			0	37459	0	0	0	22592	21170	163343	26928	1056118	46383	108313	0	0	8164	583951	0	0
2024-09-29 04:23:47			0	37456	0	0	0	22599	21170	163411	26981	1056171	46406	108316	0	0	8163	584073	0	0
2024-09-29 04:24:47			0	37460	0	0	0	22615	21170	163439	27178	1056145	46395	108322	0	0	8163	583910	0	0
2024-09-29 04:25:47			0	37447	0	0	0	22615	21170	163507	27137	1056145	46406	108322	0	0	8163	584440	0	0
2024-09-29 04:26:47			0	37466	0	0	0	22620	21170	163431	27131	1056127	46407	108324	0	0	8164	583665	0	0
2024-09-29 04:27:47			0	37448	0	0	0	22618	21180	163463	26902	1056225	46418	108323	0	0	8163	584367	0	0
2024-09-29 04:28:47			0	37436	0	0	0	22594	21170	163487	27088	1056198	46395	108314	0	0	8162	584889	0	0
2024-09-29 04:29:47			0	37423	0	0	0	22685	21160	163631	26899	1056162	46395	108349	0	0	8160	585453	0	0
2024-09-29 04:30:47			0	37412	0	0	0	22727	21170	163755	26628	1056154	46407	108365	0	0	8159	585870	0	0
2024-09-29 04:31:47			0	37419	0	0	0	22698	21170	163595	27092	1056251	46406	108354	0	0	8160	585584	0	0
2024-09-29 04:32:47			0	37418	0	0	0	22625	21170	163603	26698	1056145	46416	108326	0	0	8161	585625	0	0
2024-09-29 04:33:47			0	37414	0	0	0	22646	21170	163683	26870	1056207	46417	108334	0	0	8160	585788	0	0
2024-09-29 04:34:47			0	37398	0	0	0	22638	21180	163759	26719	1056189	46396	108331	0	0	8159	586410	0	0
2024-09-29 04:35:47			0	37394	0	0	0	22667	21170	163775	26670	1056145	46395	108342	0	0	8159	586606	0	0
2024-09-29 04:36:47			0	37371	0	0	0	22670	21170	163823	27142	1056180	46396	108343	0	0	8157	587548	0	0
2024-09-29 04:37:47			0	37365	0	0	0	22732	21180	163887	26767	1056216	46407	108367	0	0	8156	587761	0	0
2024-09-29 04:38:47			0	37348	0	0	0	22820	21180	164099	26982	1056349	46407	108401	0	0	8153	588458	0	0
2024-09-29 04:39:47			0	37321	0	0	0	22740	21190	163999	27156	1056420	46429	108370	0	0	8153	589533	0	0
2024-09-29 04:40:47			0	37327	0	0	0	22729	21200	163947	26911	1056340	46420	108366	0	0	8154	589254	0	0
2024-09-29 04:41:47			0	37346	0	0	0	22724	21190	163999	27024	1056376	46419	108364	0	0	8155	588507	0	0
2024-09-29 04:42:47			0	37341	0	0	0	22781	21200	163983	26998	1056331	46409	108386	0	0	8154	588679	0	0
2024-09-29 04:43:47			0	37366	0	0	0	22786	21200	164035	27081	1056287	46443	108388	0	0	8155	587655	0	0
2024-09-29 04:44:47			0	37365	0	0	0	22742	21200	163919	27097	1056385	46409	108371	0	0	8156	587696	0	0
2024-09-29 04:45:47			0	37374	0	0	0	22898	21200	164035	27138	1056367	46399	108431	0	0	8154	587327	0	0
2024-09-29 04:46:47			0	37389	0	0	0	23090	21210	163947	26840	1056465	46411	108505	0	0	8151	586681	0	0
2024-09-29 04:47:47			0	37444	0	0	0	22932	21220	163675	26909	1056581	46421	108444	0	0	8157	584401	0	0
2024-09-29 04:48:47			0	37497	0	0	0	22802	21230	163287	27057	1056545	46413	108394	0	0	8163	582208	0	0
2024-09-29 04:49:47			0	37504	0	0	0	22932	21230	163419	26726	1056545	46402	108444	0	0	8161	581923	0	0
2024-09-29 04:50:47			0	37528	0	0	0	22968	21230	163211	26871	1056607	46423	108458	0	0	8162	580947	0	0
2024-09-29 04:51:47			0	37550	0	0	0	23049	21240	163199	27039	1056643	46447	108489	0	0	8162	580021	0	0
2024-09-29 04:52:47			0	37570	0	0	0	23145	21240	163119	27142	1056759	46479	108526	0	0	8161	579209	0	0
2024-09-29 04:53:47			0	37595	0	0	0	23168	21260	162911	27248	1056999	46470	108535	0	0	8162	578131	0	0
2024-09-29 04:54:47			0	37638	0	0	0	23181	21290	162815	26660	1057221	46484	108540	0	0	8165	576294	0	0
2024-09-29 04:55:47			0	37630	0	0	0	23166	21320	162639	27280	1057213	46488	108534	0	0	8165	576522	0	0
2024-09-29 04:56:47			0	37660	0	0	0	23005	21320	162467	27168	1057266	46476	108472	0	0	8169	575309	0	0
2024-09-29 04:57:47			0	37688	0	0	0	22664	21340	162267	26837	1057142	46446	108341	0	0	8177	574115	0	0
2024-09-29 04:58:47			0	37667	0	0	0	22574	21330	162235	26873	1056867	46423	108306	0	0	8177	574995	0	0
2024-09-29 04:59:47			0	37624	0	0	0	22688	21310	162463	27284	1056724	46399	108350	0	0	8173	576796	0	0
2024-09-29 05:00:47			0	37612	0	0	0	22968	21290	162795	27171	1056688	46375	108458	0	0	8167	577346	0	0
2024-09-29 05:01:47			0	37614	0	0	0	22799	21280	162743	27260	1056688	46396	108393	0	0	8170	577297	0	0
2024-09-29 05:02:47			0	37604	0	0	0	22675	21280	162735	26974	1056582	46384	108345	0	0	8171	577702	0	0
2024-09-29 05:03:47			0	37620	0	0	0	22625	21260	162695	27307	1056475	46382	108326	0	0	8173	577119	0	0
2024-09-29 05:04:47			0	37599	0	0	0	22667	21250	162719	26946	1056431	46371	108342	0	0	8171	578001	0	0
2024-09-29 05:05:47			0	37578	0	0	0	22581	21240	162727	27371	1056350	46392	108309	0	0	8171	578884	0	0
2024-09-29 05:06:47			0	37559	0	0	0	22555	21230	162843	27081	1056306	46402	108299	0	0	8171	579688	0	0
2024-09-29 05:07:47			0	37543	0	0	0	22524	21220	162895	27286	1056208	46389	108287	0	0	8170	580370	0	0
2024-09-29 05:08:47			0	37519	0	0	0	22493	21210	162867	26979	1056136	46388	108275	0	0	8169	581377	0	0
2024-09-29 05:09:47			0	37496	0	0	0	22506	21190	163103	26805	1056056	46387	108280	0	0	8167	582378	0	0
2024-09-29 05:10:47			0	37495	0	0	0	22516	21180	163107	27357	1056029	46384	108284	0	0	8167	582451	0	0
2024-09-29 05:11:47			0	37463	0	0	0	22527	21180	163195	27170	1056038	46408	108288	0	0	8165	583755	0	0
2024-09-29 05:12:47			0	37473	0	0	0	22540	21160	163307	27390	1055976	46383	108293	0	0	8165	583412	0	0
2024-09-29 05:13:47			0	37450	0	0	0	22542	21160	163363	27523	1055994	46394	108294	0	0	8164	584350	0	0
2024-09-29 05:14:47			0	37455	0	0	0	22519	21160	163279	27183	1056047	46405	108285	0	0	8165	584146	0	0
2024-09-29 05:15:47			0	37456	0	0	0	22524	21150	163323	27048	1055949	46404	108287	0	0	8165	584138	0	0
2024-09-29 05:16:47			0	37480	0	0	0	22514	21140	163255	27251	1055940	46404	108283	0	0	8166	583192	0	0
2024-09-29 05:17:47			0	37456	0	0	0	22524	21140	163287	27159	1055940	46404	108287	0	0	8165	584170	0	0
2024-09-29 05:18:47			0	37509	0	0	0	22527	21130	163195	27261	1055949	46391	108288	0	0	8168	582043	0	0
2024-09-29 05:19:47			0	37521	0	0	0	22519	21130	163171	27137	1055993	46402	108285	0	0	8168	581554	0	0
2024-09-29 05:20:47			0	37525	0	0	0	22514	21130	163087	27367	1055949	46402	108283	0	0	8169	581391	0	0
2024-09-29 05:21:47			0	37505	0	0	0	22485	21140	163143	27183	1055914	46404	108272	0	0	8168	582173	0	0
2024-09-29 05:22:47			0	37506	0	0	0	22516	21130	163227	27253	1055869	46413	108284	0	0	8168	582165	0	0
2024-09-29 05:23:47			0	37501	0	0	0	22524	21130	163239	27079	1055913	46402	108287	0	0	8167	582368	0	0
2024-09-29 05:24:47			0	37495	0	0	0	22516	21120	163159	27010	1055878	46412	108284	0	0	8167	582645	0	0
2024-09-29 05:25:47			0	37499	0	0	0	22532	21130	163243	26908	1055887	46413	108290	0	0	8167	582450	0	0
2024-09-29 05:26:47			0	37494	0	0	0	22542	21110	163287	27095	1055887	46411	108294	0	0	8166	582718	0	0
2024-09-29 05:27:47			0	37502	0	0	0	22535	21110	163291	27263	1055913	46400	108291	0	0	8167	582392	0	0
2024-09-29 05:28:47			0	37502	0	0	0	22509	21110	163171	27163	1055842	46401	108281	0	0	8167	582392	0	0
2024-09-29 05:29:47			0	37499	0	0	0	22527	21110	163275	26956	1055887	46400	108288	0	0	8167	582514	0	0
2024-09-29 05:30:47			0	37485	0	0	0	22553	21120	163407	27064	1055958	46422	108298	0	0	8166	583052	0	0
2024-09-29 05:31:47			0	37483	0	0	0	22555	21120	163407	27043	1055931	46412	108299	0	0	8166	583134	0	0
2024-09-29 05:32:47			0	37492	0	0	0	22555	21110	163299	27121	1055887	46411	108299	0	0	8166	582799	0	0
2024-09-29 05:33:47			0	37504	0	0	0	22568	21120	163359	27242	1056011	46401	108304	0	0	8167	582278	0	0
2024-09-29 05:34:47			0	37491	0	0	0	22561	21130	163339	27072	1055967	46413	108301	0	0	8166	582776	0	0
2024-09-29 05:35:47			0	37494	0	0	0	22574	21130	163219	27255	1056047	46423	108306	0	0	8166	582653	0	0
2024-09-29 05:36:47			0	37500	0	0	0	22558	21140	163283	27396	1056064	46414	108300	0	0	8167	582377	0	0
2024-09-29 05:37:47			0	37515	0	0	0	22558	21140	163227	27183	1055985	46414	108300	0	0	8167	581766	0	0
2024-09-29 05:38:47			0	37551	0	0	0	22558	21140	163067	27039	1055985	46414	108300	0	0	8170	580302	0	0
2024-09-29 05:39:47			0	37560	0	0	0	22566	21140	163031	27419	1056047	46404	108303	0	0	8170	579936	0	0
2024-09-29 05:40:47			0	37581	0	0	0	22563	21150	162955	27550	1056029	46404	108302	0	0	8171	579052	0	0
2024-09-29 05:41:47			0	37605	0	0	0	22561	21140	162939	27336	1056047	46415	108301	0	0	8173	578111	0	0
2024-09-29 05:42:47			0	37619	0	0	0	22568	21140	162875	27481	1055993	46404	108304	0	0	8173	577544	0	0
2024-09-29 05:43:47			0	37602	0	0	0	22571	21140	162947	27339	1056073	46415	108305	0	0	8172	578232	0	0
2024-09-29 05:44:47			0	37599	0	0	0	22563	21130	162943	27277	1056029	46423	108302	0	0	8172	578386	0	0
2024-09-29 05:45:47			0	37601	0	0	0	22558	21140	162851	27322	1056011	46403	108300	0	0	8173	578273	0	0
2024-09-29 05:46:47			0	37624	0	0	0	22558	21140	162791	27298	1056020	46404	108300	0	0	8174	577341	0	0
2024-09-29 05:47:47			0	37629	0	0	0	22566	21140	162775	27409	1055967	46404	108303	0	0	8174	577139	0	0
2024-09-29 05:48:47			0	37634	0	0	0	22555	21140	162707	27223	1056073	46393	108299	0	0	8175	576936	0	0
2024-09-29 05:49:47			0	37656	0	0	0	22545	21140	162619	27319	1056020	46393	108295	0	0	8176	576046	0	0
2024-09-29 05:50:47			0	37669	0	0	0	22540	21140	162499	27029	1055967	46404	108293	0	0	8177	575521	0	0
2024-09-29 05:51:47			0	37687	0	0	0	22545	21140	162523	27201	1055958	46403	108295	0	0	8178	574793	0	0
2024-09-29 05:52:47			0	37680	0	0	0	22542	21140	162523	27157	1055958	46403	108294	0	0	8178	575076	0	0
2024-09-29 05:53:47			0	37673	0	0	0	22548	21140	162447	27395	1056011	46403	108296	0	0	8177	575359	0	0
2024-09-29 05:54:47			0	37702	0	0	0	22532	21140	162443	27374	1055985	46392	108290	0	0	8179	574188	0	0
2024-09-29 05:55:47			0	37702	0	0	0	22537	21140	162363	27092	1055985	46414	108292	0	0	8179	574188	0	0
2024-09-29 05:56:47			0	37704	0	0	0	22537	21120	162463	27256	1055931	46401	108292	0	0	8179	574171	0	0
2024-09-29 05:57:47			0	37706	0	0	0	22550	21120	162447	27144	1055984	46412	108297	0	0	8179	574090	0	0
2024-09-29 05:58:47			0	37719	0	0	0	22571	21120	162411	27282	1055984	46401	108305	0	0	8179	573566	0	0
2024-09-29 05:59:47			0	37729	0	0	0	22542	21120	162355	26889	1056011	46401	108294	0	0	8180	573163	0	0
2024-09-29 06:00:47			0	37740	0	0	0	22529	21130	162247	27294	1055967	46402	108289	0	0	8181	572688	0	0
2024-09-29 06:01:47			0	37748	0	0	0	22529	21130	162175	26953	1055976	46413	108289	0	0	8182	572365	0	0
2024-09-29 06:02:47			0	37767	0	0	0	22527	21140	162255	26927	1056011	46403	108288	0	0	8183	571569	0	0
2024-09-29 06:03:47			0	37751	0	0	0	22563	21110	162211	26932	1055896	46390	108302	0	0	8181	572308	0	0
2024-09-29 06:04:47			0	37764	0	0	0	22589	21120	162311	27100	1055931	46401	108312	0	0	8182	571753	0	0
2024-09-29 06:05:47			0	37785	0	0	0	22566	21110	162147	26935	1055975	46401	108303	0	0	8183	570940	0	0
2024-09-29 06:06:47			0	37793	0	0	0	22555	21140	162155	27275	1056020	46415	108299	0	0	8184	570523	0	0
2024-09-29 06:07:47			0	37795	0	0	0	22571	21130	162171	27033	1056029	46413	108305	0	0	8184	570475	0	0
2024-09-29 06:08:47			0	37803	0	0	0	22563	21130	162123	27371	1056002	46402	108302	0	0	8184	570153	0	0
2024-09-29 06:09:47			0	37827	0	0	0	22535	21140	162051	27409	1056011	46414	108291	0	0	8186	569158	0	0
2024-09-29 06:10:47			0	37830	0	0	0	22542	21140	161999	27235	1056038	46414	108294	0	0	8186	569038	0	0
2024-09-29 06:11:47			0	37819	0	0	0	22550	21140	162099	27201	1055985	46403	108297	0	0	8186	569479	0	0
2024-09-29 06:12:47			0	37807	0	0	0	22548	21130	162063	27104	1055976	46413	108296	0	0	8185	569993	0	0
2024-09-29 06:13:47			0	37813	0	0	0	22548	21130	162027	27031	1055967	46413	108296	0	0	8185	569752	0	0
2024-09-29 06:14:47			0	37830	0	0	0	22535	21130	162039	27102	1055976	46391	108291	0	0	8186	569069	0	0
2024-09-29 06:15:47			0	37793	0	0	0	22550	21130	162139	27249	1055993	46402	108297	0	0	8184	570555	0	0
2024-09-29 06:16:47			0	37781	0	0	0	22527	21140	162263	27306	1055931	46403	108288	0	0	8184	571006	0	0
2024-09-29 06:17:47			0	37757	0	0	0	22555	21140	162291	27147	1055985	46403	108299	0	0	8182	571971	0	0
2024-09-29 06:18:47			0	37746	0	0	0	22555	21130	162251	27450	1055949	46391	108299	0	0	8181	572446	0	0
2024-09-29 06:19:47			0	37763	0	0	0	22550	21130	162247	27059	1055949	46402	108297	0	0	8182	571761	0	0
2024-09-29 06:20:47			0	37794	0	0	0	22545	21120	162231	27300	1055958	46401	108295	0	0	8184	570546	0	0
2024-09-29 06:21:47			0	37783	0	0	0	22535	21130	162279	27150	1055949	46402	108291	0	0	8184	570957	0	0
2024-09-29 06:22:47			0	37798	0	0	0	22529	21120	162135	27457	1055958	46378	108289	0	0	8185	570386	0	0
2024-09-29 06:23:47			0	37795	0	0	0	22537	21110	161991	27223	1055922	46378	108292	0	0	8184	570538	0	0
2024-09-29 06:24:47			0	37828	0	0	0	22537	21120	162003	27327	1055931	46390	108292	0	0	8186	569181	0	0
2024-09-29 06:25:47			0	37818	0	0	0	22527	21120	162019	27360	1055878	46378	108288	0	0	8186	569582	0	0
2024-09-29 06:26:47			0	37810	0	0	0	22537	21120	162099	27088	1055931	46390	108292	0	0	8185	569904	0	0
2024-09-29 06:27:47			0	37796	0	0	0	22542	21110	162051	27298	1055940	46400	108294	0	0	8184	570498	0	0
2024-09-29 06:28:47			0	37811	0	0	0	22553	21110	162075	27116	1055975	46390	108298	0	0	8185	569895	0	0
2024-09-29 06:29:47			0	37789	0	0	0	22561	21130	162083	27109	1056020	46391	108301	0	0	8184	570716	0	0
2024-09-29 06:30:47			0	37807	0	0	0	22581	21110	161991	27287	1055975	46401	108309	0	0	8184	570056	0	0
2024-09-29 06:31:47			0	37790	0	0	0	22571	21110	162159	26939	1056082	46401	108305	0	0	8183	570739	0	0
2024-09-29 06:32:47			0	37819	0	0	0	22584	21140	162043	26944	1056011	46403	108310	0	0	8185	569479	0	0
2024-09-29 06:33:47			0	37800	0	0	0	22612	21140	161975	26944	1056091	46403	108321	0	0	8183	570242	0	0
2024-09-29 06:34:47			0	37806	0	0	0	22638	21140	162019	27046	1056127	46415	108331	0	0	8183	570001	0	0
2024-09-29 06:35:47			0	37822	0	0	0	22664	21160	162099	26802	1056180	46426	108341	0	0	8184	569295	0	0
2024-09-29 06:36:47			0	37836	0	0	0	22657	21160	161999	27007	1056242	46427	108338	0	0	8185	568734	0	0
2024-09-29 06:37:47			0	37840	0	0	0	22667	21160	161983	26932	1056242	46427	108342	0	0	8185	568573	0	0
2024-09-29 06:38:47			0	37827	0	0	0	22688	21180	162051	27234	1056296	46440	108350	0	0	8184	569032	0	0
2024-09-29 06:39:47			0	37824	0	0	0	22716	21180	162035	27076	1056402	46440	108361	0	0	8183	569152	0	0
2024-09-29 06:40:47			0	37833	0	0	0	22706	21190	161923	26939	1056482	46419	108357	0	0	8184	568759	0	0
2024-09-29 06:41:47			0	37830	0	0	0	22722	21200	162043	26835	1056447	46443	108363	0	0	8184	568848	0	0
2024-09-29 06:42:47			0	37817	0	0	0	22711	21210	162067	26805	1056518	46432	108359	0	0	8183	569338	0	0
2024-09-29 06:43:47			0	37813	0	0	0	22714	21220	161963	26949	1056510	46422	108360	0	0	8183	569467	0	0
2024-09-29 06:44:47			0	37818	0	0	0	22716	21230	162055	27178	1056581	46413	108361	0	0	8183	569235	0	0
2024-09-29 06:45:47			0	37811	0	0	0	22711	21240	161979	27119	1056590	46414	108359	0	0	8183	569484	0	0
2024-09-29 06:46:47			0	37798	0	0	0	22706	21240	162095	27282	1056599	46436	108357	0	0	8182	570006	0	0
2024-09-29 06:47:47			0	37788	0	0	0	22711	21240	162219	26934	1056545	46424	108359	0	0	8181	570408	0	0
2024-09-29 06:48:47			0	37779	0	0	0	22709	21240	162147	27229	1056625	46424	108358	0	0	8181	570769	0	0
2024-09-29 06:49:47			0	37787	0	0	0	22706	21250	162235	26724	1056661	46425	108357	0	0	8182	570416	0	0
2024-09-29 06:50:47			0	37767	0	0	0	22711	21250	162283	27109	1056617	46425	108359	0	0	8180	571220	0	0
2024-09-29 06:51:47			0	37746	0	0	0	22698	21260	162331	26942	1056635	46405	108354	0	0	8179	572033	0	0
2024-09-29 06:52:47			0	37733	0	0	0	22696	21250	162347	27398	1056644	46415	108353	0	0	8179	572588	0	0
2024-09-29 06:53:47			0	37731	0	0	0	22698	21260	162267	27064	1056582	46405	108354	0	0	8178	572637	0	0
2024-09-29 06:54:47			0	37730	0	0	0	22719	21260	162347	27336	1056679	46426	108362	0	0	8178	572677	0	0
2024-09-29 06:55:47			0	37724	0	0	0	22719	21260	162423	27357	1056635	46437	108362	0	0	8178	572919	0	0
2024-09-29 06:56:47			0	37724	0	0	0	22722	21260	162339	27092	1056688	46426	108363	0	0	8178	572919	0	0
2024-09-29 06:57:47			0	37714	0	0	0	22719	21270	162387	27204	1056670	46416	108362	0	0	8177	573290	0	0
2024-09-29 06:58:47			0	37719	0	0	0	22706	21270	162383	26972	1056750	46416	108357	0	0	8178	573088	0	0
2024-09-29 06:59:47			0	37700	0	0	0	22709	21270	162367	27216	1056679	46427	108358	0	0	8176	573854	0	0
2024-09-29 07:00:47			0	37702	0	0	0	22698	21270	162451	27112	1056653	46416	108354	0	0	8177	573774	0	0
2024-09-29 07:01:47			0	37711	0	0	0	22714	21280	162451	27343	1056724	46418	108360	0	0	8177	573379	0	0
2024-09-29 07:02:47			0	37704	0	0	0	22722	21270	162483	27046	1056679	46427	108363	0	0	8176	573693	0	0
2024-09-29 07:03:47			0	37703	0	0	0	22735	21280	162451	26899	1056804	46418	108368	0	0	8176	573702	0	0
2024-09-29 07:04:47			0	37691	0	0	0	22735	21270	162491	27261	1056733	46416	108368	0	0	8176	574217	0	0
2024-09-29 07:05:47			0	37699	0	0	0	22735	21280	162419	27201	1056751	46429	108368	0	0	8176	573863	0	0
2024-09-29 07:06:47			0	37696	0	0	0	22745	21300	162395	27133	1056804	46419	108372	0	0	8176	573920	0	0
2024-09-29 07:07:47			0	37711	0	0	0	22742	21280	162427	27227	1056777	46418	108371	0	0	8177	573379	0	0
2024-09-29 07:08:47			0	37694	0	0	0	22750	21300	162351	27324	1056840	46431	108374	0	0	8176	574001	0	0
2024-09-29 07:09:47			0	37705	0	0	0	22735	21290	162367	27121	1056795	46429	108368	0	0	8176	573589	0	0
2024-09-29 07:10:47			0	37704	0	0	0	22729	21290	162431	27065	1056768	46418	108366	0	0	8176	573629	0	0
2024-09-29 07:11:47			0	37711	0	0	0	22714	21300	162427	27317	1056831	46419	108360	0	0	8177	573315	0	0
2024-09-29 07:12:47			0	37697	0	0	0	22724	21300	162227	27369	1056840	46431	108364	0	0	8176	573880	0	0
2024-09-29 07:13:47			0	37705	0	0	0	22753	21290	162483	27171	1056822	46408	108375	0	0	8176	573589	0	0
2024-09-29 07:14:47			0	37704	0	0	0	22737	21300	162399	27289	1056840	46420	108369	0	0	8176	573598	0	0
2024-09-29 07:15:47			0	37678	0	0	0	22745	21310	162451	27319	1056848	46420	108372	0	0	8175	574614	0	0
2024-09-29 07:16:47			0	37687	0	0	0	22722	21310	162447	27476	1056848	46420	108363	0	0	8176	574251	0	0
2024-09-29 07:17:47			0	37670	0	0	0	22742	21300	162427	27118	1056786	46410	108371	0	0	8174	574969	0	0
2024-09-29 07:18:47			0	37680	0	0	0	22748	21300	162519	27145	1056804	46419	108373	0	0	8175	574566	0	0
2024-09-29 07:19:47			0	37663	0	0	0	22729	21300	162487	27216	1056857	46419	108366	0	0	8174	575252	0	0
2024-09-29 07:20:47			0	37664	0	0	0	22719	21300	162431	27429	1056840	46431	108362	0	0	8174	575212	0	0
2024-09-29 07:21:47			0	37651	0	0	0	22745	21310	162475	27358	1056875	46399	108372	0	0	8173	575705	0	0
2024-09-29 07:22:47			0	37650	0	0	0	22742	21320	162531	26955	1056866	46421	108371	0	0	8173	575713	0	0
2024-09-29 07:23:47			0	37637	0	0	0	22732	21300	162611	26913	1056804	46419	108367	0	0	8173	576303	0	0
2024-09-29 07:24:47			0	37639	0	0	0	22732	21310	162691	27097	1056937	46410	108367	0	0	8173	576190	0	0
2024-09-29 07:25:47			0	37635	0	0	0	22748	21300	162583	27093	1056831	46419	108373	0	0	8172	576384	0	0
2024-09-29 07:26:47			0	37633	0	0	0	22761	21310	162619	27241	1056875	46420	108378	0	0	8172	576433	0	0
2024-09-29 07:27:47			0	37644	0	0	0	22779	21300	162599	27168	1056831	46409	108385	0	0	8172	576020	0	0
2024-09-29 07:28:47			0	37621	0	0	0	22797	21320	162699	27249	1056946	46421	108392	0	0	8171	576886	0	0
2024-09-29 07:29:47			0	37651	0	0	0	22805	21330	162639	27280	1056964	46445	108395	0	0	8172	575641	0	0
2024-09-29 07:30:47			0	37642	0	0	0	22792	21320	162563	27298	1056973	46432	108390	0	0	8172	576037	0	0
2024-09-29 07:31:47			0	37664	0	0	0	22807	21340	162531	27313	1057036	46423	108396	0	0	8173	575084	0	0
2024-09-29 07:32:47			0	37655	0	0	0	22810	21340	162491	27322	1057036	46423	108397	0	0	8172	575447	0	0
2024-09-29 07:33:47			0	37662	0	0	0	22831	21340	162515	27031	1057062	46446	108405	0	0	8172	575165	0	0
2024-09-29 07:34:47			0	37662	0	0	0	22838	21350	162391	27194	1057213	46458	108408	0	0	8172	575133	0	0
2024-09-29 07:35:47			0	37667	0	0	0	22857	21350	162447	27369	1057240	46436	108415	0	0	8172	574931	0	0
2024-09-29 07:36:47			0	37647	0	0	0	22857	21370	162475	27071	1057311	46450	108415	0	0	8171	575675	0	0
2024-09-29 07:37:47			0	37674	0	0	0	22872	21380	162587	26991	1057347	46460	108421	0	0	8173	574552	0	0
2024-09-29 07:38:47			0	37655	0	0	0	22896	21380	162451	27440	1057320	46438	108430	0	0	8171	575319	0	0
2024-09-29 07:39:47			0	37646	0	0	0	22875	21380	162391	27242	1057374	46438	108422	0	0	8171	575683	0	0
2024-09-29 07:40:47			0	37662	0	0	0	22896	21380	162491	27026	1057409	46439	108430	0	0	8172	575037	0	0
2024-09-29 07:41:47			0	37664	0	0	0	22916	21400	162419	27192	1057498	46441	108438	0	0	8171	574892	0	0
2024-09-29 07:42:47			0	37655	0	0	0	22919	21410	162503	26861	1057534	46443	108439	0	0	8171	575224	0	0
2024-09-29 07:43:47			0	37660	0	0	0	22911	21420	162463	27055	1057516	46455	108436	0	0	8171	574990	0	0
2024-09-29 07:44:47			0	37649	0	0	0	22914	21420	162531	27267	1057472	46444	108437	0	0	8171	575434	0	0
2024-09-29 07:45:47			0	37663	0	0	0	22875	21430	162431	27072	1057570	46444	108422	0	0	8172	574837	0	0
2024-09-29 07:46:47			0	37658	0	0	0	22846	21430	162391	27124	1057516	46456	108411	0	0	8172	575038	0	0
2024-09-29 07:47:47			0	37659	0	0	0	22851	21440	162407	26989	1057525	46445	108413	0	0	8172	574966	0	0
2024-09-29 07:48:47			0	37659	0	0	0	22841	21440	162487	27326	1057499	46413	108409	0	0	8173	574966	0	0
2024-09-29 07:49:47			0	37642	0	0	0	22841	21430	162399	27459	1057436	46422	108409	0	0	8172	575685	0	0
2024-09-29 07:50:47			0	37661	0	0	0	22844	21430	162311	27326	1057490	46422	108410	0	0	8173	574917	0	0
2024-09-29 07:51:47			0	37644	0	0	0	22838	21430	162375	27157	1057454	46421	108408	0	0	8172	575604	0	0
2024-09-29 07:52:47			0	37657	0	0	0	22825	21430	162491	27396	1057436	46433	108403	0	0	8173	575079	0	0
2024-09-29 07:53:47			0	37644	0	0	0	22833	21420	162471	27284	1057445	46421	108406	0	0	8172	575636	0	0
2024-09-29 07:54:47			0	37645	0	0	0	22849	21420	162451	27339	1057419	46421	108412	0	0	8172	575595	0	0
2024-09-29 07:55:47			0	37623	0	0	0	22841	21430	162491	27228	1057463	46433	108409	0	0	8170	576452	0	0
2024-09-29 07:56:47			0	37623	0	0	0	22849	21430	162479	27203	1057428	46432	108412	0	0	8170	576452	0	0
2024-09-29 07:57:47			0	37624	0	0	0	22846	21420	162503	27216	1057419	46421	108411	0	0	8170	576444	0	0
2024-09-29 07:58:47			0	37639	0	0	0	22867	21420	162399	27306	1057445	46432	108419	0	0	8171	575838	0	0
2024-09-29 07:59:47			0	37611	0	0	0	22877	21430	162607	27306	1057454	46432	108423	0	0	8169	576938	0	0
2024-09-29 08:00:47			0	37608	0	0	0	22877	21420	162503	27306	1057472	46455	108423	0	0	8169	577091	0	0
2024-09-29 08:01:47			0	37614	0	0	0	22890	21420	162539	27284	1057445	46432	108428	0	0	8169	576849	0	0
2024-09-29 08:02:47			0	37610	0	0	0	22888	21440	162523	27208	1057552	46434	108427	0	0	8169	576946	0	0
2024-09-29 08:03:47			0	37593	0	0	0	22877	21440	162615	27098	1057552	46457	108423	0	0	8168	577634	0	0
2024-09-29 08:04:47			0	37595	0	0	0	22867	21440	162627	27294	1057472	46434	108419	0	0	8168	577553	0	0
2024-09-29 08:05:47			0	37609	0	0	0	22870	21440	162623	27543	1057561	46434	108420	0	0	8169	576987	0	0
2024-09-29 08:06:47			0	37591	0	0	0	22870	21430	162663	27183	1057490	46444	108420	0	0	8168	577747	0	0
2024-09-29 08:07:47			0	37579	0	0	0	22872	21440	162795	27059	1057561	46445	108421	0	0	8167	578201	0	0
2024-09-29 08:08:47			0	37602	0	0	0	22872	21440	162659	26994	1057499	46434	108421	0	0	8169	577270	0	0
2024-09-29 08:09:47			0	37594	0	0	0	22862	21440	162727	26998	1057525	46434	108417	0	0	8168	577594	0	0
2024-09-29 08:10:47			0	37597	0	0	0	22885	21440	162699	27003	1057588	46434	108426	0	0	8168	577472	0	0
2024-09-29 08:11:47			0	37601	0	0	0	22903	21440	162731	27053	1057534	46434	108433	0	0	8168	577310	0	0
2024-09-29 08:12:47			0	37592	0	0	0	22924	21450	162795	27150	1057659	46435	108441	0	0	8167	577643	0	0
2024-09-29 08:13:47			0	37590	0	0	0	22919	21450	162727	27223	1057623	46445	108439	0	0	8167	577724	0	0
2024-09-29 08:14:47			0	37616	0	0	0	22919	21460	162663	27209	1057730	46436	108439	0	0	8169	576639	0	0
2024-09-29 08:15:47			0	37598	0	0	0	22924	21460	162627	27119	1057677	46436	108441	0	0	8168	577368	0	0
2024-09-29 08:16:47			0	37617	0	0	0	22906	21470	162467	26876	1057748	46437	108434	0	0	8169	576567	0	0
2024-09-29 08:17:47			0	37622	0	0	0	22914	21460	162511	27286	1057624	46436	108437	0	0	8169	576397	0	0
2024-09-29 08:18:47			0	37632	0	0	0	22932	21470	162507	26925	1057659	46448	108444	0	0	8170	575961	0	0
2024-09-29 08:19:47			0	37655	0	0	0	22948	21480	162515	27157	1057677	46438	108450	0	0	8171	575000	0	0
2024-09-29 08:20:47			0	37647	0	0	0	22950	21480	162471	26736	1057766	46461	108451	0	0	8170	575323	0	0
2024-09-29 08:21:47			0	37667	0	0	0	22937	21480	162315	26928	1057739	46451	108446	0	0	8172	574515	0	0
2024-09-29 08:22:47			0	37681	0	0	0	22929	21490	162215	27171	1057775	46461	108443	0	0	8173	573919	0	0
2024-09-29 08:23:47			0	37659	0	0	0	22935	21490	162227	27293	1057811	46451	108445	0	0	8171	574806	0	0
2024-09-29 08:24:47			0	37684	0	0	0	22940	21500	162211	27118	1057820	46462	108447	0	0	8173	573766	0	0
2024-09-29 08:25:47			0	37682	0	0	0	22945	21500	162215	27088	1057820	46452	108449	0	0	8172	573847	0	0
2024-09-29 08:26:47			0	37712	0	0	0	22950	21480	162123	27135	1057793	46451	108451	0	0	8174	572702	0	0
2024-09-29 08:27:47			0	37728	0	0	0	22935	21510	162183	27244	1057811	46441	108445	0	0	8175	571963	0	0
2024-09-29 08:28:47			0	37723	0	0	0	22919	21500	162083	27192	1057846	46452	108439	0	0	8175	572196	0	0
2024-09-29 08:29:47			0	37744	0	0	0	22898	21510	162003	26961	1057891	46441	108431	0	0	8177	571319	0	0
2024-09-29 08:30:47			0	37726	0	0	0	22906	21500	162119	27007	1057802	46430	108434	0	0	8176	572075	0	0
2024-09-29 08:31:47			0	37752	0	0	0	22903	21500	162035	26871	1057820	46429	108433	0	0	8177	571030	0	0
2024-09-29 08:32:47			0	37737	0	0	0	22922	21490	162007	26654	1057811	46428	108440	0	0	8176	571664	0	0
2024-09-29 08:33:47			0	37719	0	0	0	22916	21490	162135	27107	1057748	46451	108438	0	0	8175	572388	0	0
2024-09-29 08:34:47			0	37737	0	0	0	22916	21490	162059	27053	1057757	46439	108438	0	0	8176	571664	0	0
2024-09-29 08:35:47			0	37736	0	0	0	22903	21500	162007	27282	1057820	46429	108433	0	0	8176	571673	0	0
2024-09-29 08:36:47			0	37749	0	0	0	22914	21510	161959	27279	1057784	46441	108437	0	0	8177	571118	0	0
2024-09-29 08:37:47			0	37751	0	0	0	22942	21490	162007	27197	1057784	46439	108448	0	0	8177	571102	0	0
2024-09-29 08:38:47			0	37763	0	0	0	22945	21490	162011	27244	1057775	46428	108449	0	0	8177	570619	0	0
2024-09-29 08:39:47			0	37764	0	0	0	22948	21490	161955	26935	1057784	46451	108450	0	0	8177	570579	0	0
2024-09-29 08:40:47			0	37786	0	0	0	22961	21500	161831	27135	1057846	46452	108455	0	0	8178	569665	0	0
2024-09-29 08:41:47			0	37818	0	0	0	22955	21500	161859	27034	1057873	46440	108453	0	0	8180	568382	0	0
2024-09-29 08:42:47			0	37826	0	0	0	22971	21500	161579	27163	1057882	46441	108459	0	0	8181	568061	0	0
2024-09-29 08:43:47			0	37844	0	0	0	22966	21510	161575	27187	1057873	46441	108457	0	0	8182	567309	0	0
2024-09-29 08:44:47			0	37872	0	0	0	22974	21520	161551	27234	1057909	46442	108460	0	0	8183	566158	0	0
2024-09-29 08:45:47			0	37879	0	0	0	22961	21520	161447	26942	1057962	46454	108455	0	0	8184	565878	0	0
2024-09-29 08:46:47			0	37897	0	0	0	22945	21520	161415	27034	1057918	46443	108449	0	0	8185	565159	0	0
2024-09-29 08:47:47			0	37909	0	0	0	22940	21520	161243	27043	1057944	46455	108447	0	0	8186	564680	0	0
2024-09-29 08:48:47			0	37893	0	0	0	22948	21520	161367	27071	1057962	46454	108450	0	0	8185	565319	0	0
2024-09-29 08:49:47			0	37918	0	0	0	22958	21530	161343	26968	1057900	46455	108454	0	0	8186	564290	0	0
2024-09-29 08:50:47			0	37906	0	0	0	22958	21520	161311	27203	1057935	46454	108454	0	0	8186	564800	0	0
2024-09-29 08:51:47			0	37915	0	0	0	22945	21520	161231	27093	1057998	46443	108449	0	0	8186	564441	0	0
2024-09-29 08:52:47			0	37938	0	0	0	22953	21520	161195	27192	1057935	46442	108452	0	0	8188	563524	0	0
2024-09-29 08:53:47			0	37954	0	0	0	22953	21530	161227	26986	1057927	46455	108452	0	0	8188	562856	0	0
2024-09-29 08:54:47			0	37965	0	0	0	22940	21530	161091	26828	1057962	46455	108447	0	0	8189	562418	0	0
2024-09-29 08:55:47			0	37959	0	0	0	22942	21530	161099	27100	1057927	46455	108448	0	0	8189	562657	0	0
2024-09-29 08:56:47			0	37961	0	0	0	22950	21520	161075	27277	1057891	46455	108451	0	0	8189	562608	0	0
2024-09-29 08:57:47			0	37963	0	0	0	22937	21520	161095	27123	1057909	46442	108446	0	0	8189	562529	0	0
2024-09-29 08:58:47			0	37960	0	0	0	22935	21530	161127	27208	1057935	46432	108445	0	0	8189	562617	0	0
2024-09-29 08:59:47			0	37960	0	0	0	22935	21520	161039	27020	1057918	46421	108445	0	0	8189	562648	0	0
2024-09-29 09:00:47			0	37957	0	0	0	22937	21530	161119	27156	1057927	46432	108446	0	0	8189	562736	0	0
2024-09-29 09:01:47			0	37955	0	0	0	22979	21520	161131	26875	1057962	46442	108462	0	0	8188	562847	0	0
2024-09-29 09:02:47			0	37951	0	0	0	22974	21530	161151	27206	1057953	46455	108460	0	0	8188	562975	0	0
2024-09-29 09:03:47			0	37953	0	0	0	22976	21530	161119	27377	1057962	46455	108461	0	0	8188	562896	0	0
2024-09-29 09:04:47			0	37964	0	0	0	22971	21530	161183	27149	1058006	46465	108459	0	0	8189	562458	0	0
2024-09-29 09:05:47			0	37975	0	0	0	22979	21540	161135	27514	1058051	46466	108462	0	0	8189	561989	0	0
2024-09-29 09:06:47			0	37972	0	0	0	22994	21550	161051	27357	1058069	46458	108468	0	0	8189	562077	0	0
2024-09-29 09:07:47			0	37975	0	0	0	22984	21540	161107	27093	1058060	46445	108464	0	0	8189	561989	0	0
2024-09-29 09:08:47			0	37985	0	0	0	22984	21540	161051	27055	1058078	46444	108464	0	0	8190	561591	0	0
2024-09-29 09:09:47			0	37969	0	0	0	22989	21550	160987	26880	1058122	46458	108466	0	0	8189	562196	0	0
2024-09-29 09:10:47			0	37987	0	0	0	22989	21550	161023	27199	1058105	46446	108466	0	0	8190	561480	0	0
2024-09-29 09:11:47			0	37971	0	0	0	22986	21550	161047	27150	1058078	46435	108465	0	0	8189	562117	0	0
2024-09-29 09:12:47			0	37960	0	0	0	22992	21550	160979	27197	1058078	46446	108467	0	0	8188	562554	0	0
2024-09-29 09:13:47			0	37981	0	0	0	22976	21550	160947	27150	1058051	46435	108461	0	0	8190	561719	0	0
2024-09-29 09:14:47			0	37976	0	0	0	22994	21560	161039	26918	1058034	46446	108468	0	0	8189	561887	0	0
2024-09-29 09:15:47			0	37977	0	0	0	22992	21550	160947	27208	1058105	46435	108467	0	0	8189	561878	0	0
2024-09-29 09:16:47			0	37975	0	0	0	22994	21550	160919	27057	1058131	46458	108468	0	0	8189	561958	0	0
2024-09-29 09:17:47			0	37975	0	0	0	23010	21560	160979	26996	1058113	46446	108474	0	0	8189	561926	0	0
2024-09-29 09:18:47			0	37981	0	0	0	22984	21550	160983	27180	1058131	46458	108464	0	0	8190	561719	0	0
2024-09-29 09:19:47			0	37972	0	0	0	22984	21560	161011	27043	1058113	46458	108464	0	0	8189	562046	0	0
2024-09-29 09:20:47			0	37991	0	0	0	22999	21560	160967	26979	1058140	46446	108470	0	0	8190	561290	0	0
2024-09-29 09:21:47			0	37969	0	0	0	22999	21560	161035	27168	1058167	46458	108470	0	0	8189	562165	0	0
2024-09-29 09:22:47			0	37986	0	0	0	22997	21560	160879	27341	1058122	46458	108469	0	0	8190	561489	0	0
2024-09-29 09:23:47			0	37952	0	0	0	22999	21560	160927	27156	1058149	46447	108470	0	0	8188	562841	0	0
2024-09-29 09:24:47			0	37976	0	0	0	23007	21570	160931	27109	1058158	46448	108473	0	0	8189	561855	0	0
2024-09-29 09:25:47			0	37979	0	0	0	23005	21570	160943	27140	1058185	46448	108472	0	0	8189	561736	0	0
2024-09-29 09:26:47			0	37967	0	0	0	23005	21570	160951	27187	1058211	46459	108472	0	0	8189	562213	0	0
2024-09-29 09:27:47			0	37992	0	0	0	23007	21580	160995	27062	1058203	46459	108473	0	0	8190	561188	0	0
2024-09-29 09:28:47			0	37981	0	0	0	23012	21570	160911	27307	1058158	46437	108475	0	0	8189	561657	0	0
2024-09-29 09:29:47			0	37977	0	0	0	23005	21570	160951	27045	1058265	46459	108472	0	0	8189	561815	0	0
2024-09-29 09:30:47			0	37961	0	0	0	23015	21580	160967	27012	1058256	46448	108476	0	0	8188	562421	0	0
2024-09-29 09:31:47			0	37977	0	0	0	23023	21570	160951	27170	1058167	46459	108479	0	0	8189	561815	0	0
2024-09-29 09:32:47			0	37969	0	0	0	23007	21570	160939	27229	1058185	46448	108473	0	0	8189	562134	0	0
2024-09-29 09:33:47			0	37971	0	0	0	23010	21580	160847	27402	1058239	46460	108474	0	0	8189	562023	0	0
2024-09-29 09:34:47			0	37977	0	0	0	23002	21580	160895	27334	1058185	46450	108471	0	0	8189	561784	0	0
2024-09-29 09:35:47			0	37983	0	0	0	23002	21580	160931	27185	1058212	46450	108471	0	0	8190	561546	0	0
2024-09-29 09:36:47			0	37977	0	0	0	22994	21580	160831	27098	1058229	46448	108468	0	0	8189	561784	0	0
2024-09-29 09:37:47			0	37974	0	0	0	22986	21580	160919	26857	1058203	46448	108465	0	0	8189	561904	0	0
2024-09-29 09:38:47			0	37965	0	0	0	22989	21580	160871	27045	1058203	46448	108466	0	0	8189	562262	0	0
2024-09-29 09:39:47			0	37973	0	0	0	22992	21580	160891	27180	1058203	46437	108467	0	0	8189	561943	0	0
2024-09-29 09:40:47			0	37967	0	0	0	22999	21580	160979	27208	1058229	46459	108470	0	0	8189	562182	0	0
2024-09-29 09:41:47			0	37970	0	0	0	22994	21580	160955	26890	1058203	46459	108468	0	0	8189	562063	0	0
2024-09-29 09:42:47			0	37966	0	0	0	22999	21570	160931	27164	1058211	46459	108470	0	0	8189	562253	0	0
2024-09-29 09:43:47			0	37971	0	0	0	23002	21570	160939	27190	1058185	46459	108471	0	0	8189	562054	0	0
2024-09-29 09:44:47			0	38004	0	0	0	23002	21580	160883	27213	1058176	46448	108471	0	0	8191	560711	0	0
2024-09-29 09:45:47			0	38000	0	0	0	23007	21570	160847	26883	1058167	46448	108473	0	0	8190	560901	0	0
2024-09-29 09:46:47			0	37989	0	0	0	23005	21570	160867	26958	1058194	46437	108472	0	0	8190	561339	0	0
2024-09-29 09:47:47			0	37975	0	0	0	22999	21580	160815	27189	1058185	46450	108470	0	0	8189	561864	0	0
2024-09-29 09:48:47			0	37975	0	0	0	22999	21580	160947	27362	1058203	46437	108470	0	0	8189	561864	0	0
2024-09-29 09:49:47			0	37968	0	0	0	23007	21570	160895	27357	1058158	46448	108473	0	0	8189	562174	0	0
2024-09-29 09:50:47			0	37965	0	0	0	23010	21570	160879	27216	1058158	46459	108474	0	0	8188	562293	0	0
2024-09-29 09:51:47			0	37962	0	0	0	23012	21580	160931	26960	1058229	46459	108475	0	0	8188	562381	0	0
2024-09-29 09:52:47			0	37975	0	0	0	23007	21570	160883	26932	1058185	46448	108473	0	0	8189	561895	0	0
2024-09-29 09:53:47			0	37982	0	0	0	23015	21580	160935	27159	1058203	46448	108476	0	0	8189	561586	0	0
2024-09-29 09:54:47			0	37979	0	0	0	23010	21580	160835	27090	1058283	46459	108474	0	0	8189	561705	0	0
2024-09-29 09:55:47			0	38005	0	0	0	23018	21570	160795	27145	1058220	46470	108477	0	0	8191	560703	0	0
2024-09-29 09:56:47			0	38008	0	0	0	23007	21580	160755	27194	1058256	46448	108473	0	0	8191	560553	0	0
2024-09-29 09:57:47			0	38044	0	0	0	23002	21580	160680	26994	1058292	46460	108471	0	0	8193	559124	0	0
2024-09-29 09:58:47			0	38031	0	0	0	22999	21580	160764	27203	1058265	46450	108470	0	0	8192	559640	0	0
2024-09-29 09:59:47			0	38024	0	0	0	23002	21580	160643	27388	1058239	46438	108471	0	0	8192	559918	0	0
2024-09-29 10:00:47			0	38022	0	0	0	23002	21580	160779	27218	1058229	46426	108471	0	0	8192	559997	0	0
2024-09-29 10:01:47			0	38002	0	0	0	22997	21580	160715	27253	1058256	46459	108469	0	0	8191	560791	0	0
2024-09-29 10:02:47			0	37999	0	0	0	22997	21570	160851	26951	1058247	46437	108469	0	0	8191	560941	0	0
2024-09-29 10:03:47			0	38012	0	0	0	23002	21570	160739	27175	1058220	46448	108471	0	0	8191	560425	0	0
2024-09-29 10:04:47			0	38005	0	0	0	22994	21570	160759	27098	1058194	46448	108468	0	0	8191	560703	0	0
2024-09-29 10:05:47			0	38029	0	0	0	22999	21590	160776	27187	1058221	46439	108470	0	0	8192	559688	0	0
2024-09-29 10:06:47			0	38027	0	0	0	22994	21580	160807	27175	1058185	46450	108468	0	0	8192	559799	0	0
2024-09-29 10:07:47			0	38029	0	0	0	22994	21570	160755	27286	1058194	46448	108468	0	0	8192	559750	0	0
2024-09-29 10:08:47			0	38034	0	0	0	22997	21580	160812	27235	1058176	46448	108469	0	0	8193	559521	0	0
2024-09-29 10:09:47			0	38032	0	0	0	23007	21570	160732	27130	1058211	46470	108473	0	0	8192	559631	0	0
2024-09-29 10:10:47			0	38052	0	0	0	23002	21580	160656	27093	1058176	46448	108471	0	0	8194	558807	0	0
2024-09-29 10:11:47			0	38062	0	0	0	22994	21580	160640	27128	1058229	46459	108468	0	0	8194	558411	0	0
2024-09-29 10:12:47			0	38056	0	0	0	22999	21580	160484	27223	1058176	46470	108470	0	0	8194	558649	0	0
2024-09-29 10:13:47			0	38094	0	0	0	22999	21570	160560	27343	1058185	46448	108470	0	0	8196	557175	0	0
2024-09-29 10:14:47			0	38089	0	0	0	22999	21580	160592	27150	1058203	46448	108470	0	0	8196	557342	0	0
2024-09-29 10:15:47			0	38090	0	0	0	22999	21570	160548	27128	1058211	46448	108470	0	0	8196	557334	0	0
2024-09-29 10:16:47			0	38091	0	0	0	23005	21580	160516	27166	1058203	46448	108472	0	0	8196	557263	0	0
2024-09-29 10:17:47			0	38080	0	0	0	22992	21570	160444	27008	1058194	46459	108467	0	0	8195	557729	0	0
2024-09-29 10:18:47			0	38084	0	0	0	23002	21580	160524	27381	1058229	46459	108471	0	0	8196	557540	0	0
2024-09-29 10:19:47			0	38079	0	0	0	23002	21570	160496	27041	1058274	46459	108471	0	0	8195	557769	0	0
2024-09-29 10:20:47			0	38085	0	0	0	23010	21580	160460	26889	1058212	46471	108474	0	0	8195	557501	0	0
2024-09-29 10:21:47			0	38068	0	0	0	23015	21580	160612	27062	1058203	46437	108476	0	0	8194	558173	0	0
2024-09-29 10:22:47			0	38066	0	0	0	23033	21580	160620	27433	1058229	46448	108483	0	0	8194	558253	0	0
2024-09-29 10:23:47			0	38068	0	0	0	23033	21580	160676	27447	1058265	46450	108483	0	0	8194	558173	0	0
2024-09-29 10:24:47			0	38070	0	0	0	23023	21580	160556	27294	1058229	46470	108479	0	0	8194	558094	0	0
2024-09-29 10:25:47			0	38079	0	0	0	23025	21580	160548	27253	1058292	46450	108480	0	0	8195	557738	0	0
2024-09-29 10:26:47			0	38082	0	0	0	23033	21590	160528	27145	1058274	46461	108483	0	0	8195	557588	0	0
2024-09-29 10:27:47			0	38080	0	0	0	23020	21590	160508	27239	1058248	46472	108478	0	0	8195	557667	0	0
2024-09-29 10:28:47			0	38126	0	0	0	23012	21600	160464	27317	1058292	46439	108475	0	0	8198	555818	0	0
2024-09-29 10:29:47			0	38123	0	0	0	23020	21590	160444	27568	1058336	46461	108478	0	0	8198	555967	0	0
2024-09-29 10:30:47			0	38096	0	0	0	23041	21600	160416	27454	1058345	46461	108486	0	0	8196	557003	0	0
2024-09-29 10:31:47			0	38116	0	0	0	23064	21590	160396	27079	1058301	46439	108495	0	0	8196	556244	0	0
2024-09-29 10:32:47			0	38106	0	0	0	23085	21600	160428	27300	1058319	46461	108503	0	0	8195	556608	0	0
2024-09-29 10:33:47			0	38103	0	0	0	23098	21600	160284	27244	1058425	46461	108508	0	0	8195	556727	0	0
2024-09-29 10:34:47			0	38120	0	0	0	23085	21610	160332	27275	1058470	46474	108503	0	0	8196	556024	0	0
2024-09-29 10:35:47			0	38121	0	0	0	23088	21620	160320	27336	1058488	46475	108504	0	0	8196	555954	0	0
2024-09-29 10:36:47			0	38117	0	0	0	23093	21620	160348	27237	1058488	46486	108506	0	0	8196	556111	0	0
2024-09-29 10:37:47			0	38118	0	0	0	23083	21610	160344	26953	1058479	46475	108502	0	0	8196	556103	0	0
2024-09-29 10:38:47			0	38112	0	0	0	23088	21630	160300	27066	1058559	46476	108504	0	0	8196	556278	0	0
2024-09-29 10:39:47			0	38125	0	0	0	23098	21630	160344	27187	1058559	46487	108508	0	0	8197	555765	0	0
2024-09-29 10:40:47			0	38118	0	0	0	23109	21630	160328	27329	1058568	46466	108512	0	0	8196	556041	0	0
2024-09-29 10:41:47			0	38136	0	0	0	23103	21630	160268	27282	1058541	46466	108510	0	0	8197	555330	0	0
2024-09-29 10:42:47			0	38145	0	0	0	23098	21640	160296	27388	1058604	46477	108508	0	0	8198	554944	0	0
2024-09-29 10:43:47			0	38118	0	0	0	23103	21650	160352	27355	1058675	46467	108510	0	0	8196	555979	0	0
2024-09-29 10:44:47			0	38124	0	0	0	23101	21650	160380	27069	1058630	46468	108509	0	0	8196	555742	0	0
2024-09-29 10:45:47			0	38129	0	0	0	23101	21650	160304	27260	1058630	46446	108509	0	0	8197	555545	0	0
2024-09-29 10:46:47			0	38147	0	0	0	23101	21660	160244	27022	1058702	46458	108509	0	0	8198	554804	0	0
2024-09-29 10:47:47			0	38129	0	0	0	23098	21650	160204	27246	1058604	46458	108508	0	0	8197	555545	0	0
2024-09-29 10:48:47			0	38135	0	0	0	23109	21660	160284	27303	1058675	46458	108512	0	0	8197	555277	0	0
2024-09-29 10:49:47			0	38136	0	0	0	23116	21670	160232	27251	1058737	46447	108515	0	0	8197	555207	0	0
2024-09-29 10:50:47			0	38137	0	0	0	23124	21670	160180	27358	1058720	46481	108518	0	0	8197	555167	0	0
2024-09-29 10:51:47			0	38142	0	0	0	23114	21670	160132	27400	1058711	46458	108514	0	0	8197	554970	0	0
2024-09-29 10:52:47			0	38144	0	0	0	23127	21660	160208	27057	1058728	46468	108519	0	0	8197	554922	0	0
2024-09-29 10:53:47			0	38165	0	0	0	23122	21680	160112	27358	1058755	46459	108517	0	0	8199	554032	0	0
2024-09-29 10:54:47			0	38163	0	0	0	23132	21680	160012	27268	1058728	46459	108521	0	0	8198	554111	0	0
2024-09-29 10:55:47			0	38173	0	0	0	23129	21680	160072	27367	1058764	46471	108520	0	0	8199	553717	0	0
2024-09-29 10:56:47			0	38181	0	0	0	23132	21690	160108	26974	1058800	46460	108521	0	0	8199	553371	0	0
2024-09-29 10:57:47			0	38184	0	0	0	23129	21690	159936	27313	1058809	46472	108520	0	0	8200	553253	0	0
2024-09-29 10:58:47			0	38178	0	0	0	23135	21690	159972	27161	1058853	46460	108522	0	0	8199	553489	0	0
2024-09-29 10:59:47			0	38211	0	0	0	23145	21690	159896	26975	1058862	46461	108526	0	0	8201	552191	0	0
2024-09-29 11:00:47			0	38217	0	0	0	23150	21690	159816	27159	1058835	46472	108528	0	0	8201	551955	0	0
2024-09-29 11:01:47			0	38222	0	0	0	23142	21700	159904	27388	1058871	46483	108525	0	0	8202	551728	0	0
2024-09-29 11:02:47			0	38209	0	0	0	23171	21710	159884	27452	1058889	46484	108536	0	0	8201	552208	0	0
2024-09-29 11:03:47			0	38223	0	0	0	23174	21710	159864	27848	1058960	46451	108537	0	0	8201	551657	0	0
2024-09-29 11:04:47			0	38225	0	0	0	23176	21720	159776	27209	1058951	46474	108538	0	0	8201	551548	0	0
2024-09-29 11:05:47			0	38222	0	0	0	23184	21720	159868	27196	1058978	46474	108541	0	0	8201	551666	0	0
2024-09-29 11:06:47			0	38254	0	0	0	23202	21730	159756	27229	1058996	46475	108548	0	0	8203	550379	0	0
2024-09-29 11:07:47			0	38279	0	0	0	23210	21720	159736	27417	1059040	46486	108551	0	0	8204	549429	0	0
2024-09-29 11:08:47			0	38273	0	0	0	23207	21730	159636	27270	1059058	46475	108550	0	0	8204	549634	0	0
2024-09-29 11:09:47			0	38299	0	0	0	23218	21730	159500	27391	1059085	46486	108554	0	0	8205	548615	0	0
2024-09-29 11:10:47			0	38297	0	0	0	23223	21740	159544	27379	1059156	46477	108556	0	0	8205	548662	0	0
2024-09-29 11:11:47			0	38315	0	0	0	23215	21750	159440	27412	1059121	46478	108553	0	0	8206	547927	0	0
2024-09-29 11:12:47			0	38313	0	0	0	23231	21760	159608	27511	1059183	46478	108559	0	0	8206	547975	0	0
2024-09-29 11:13:47			0	38298	0	0	0	23233	21760	159488	27345	1059210	46489	108560	0	0	8205	548562	0	0
2024-09-29 11:14:47			0	38311	0	0	0	23238	21750	159376	27248	1059201	46478	108562	0	0	8206	548084	0	0
2024-09-29 11:15:47			0	38307	0	0	0	23251	21760	159352	27502	1059245	46490	108567	0	0	8205	548210	0	0
2024-09-29 11:16:47			0	38325	0	0	0	23246	21780	159408	27248	1059255	46502	108565	0	0	8206	547445	0	0
2024-09-29 11:17:47			0	38341	0	0	0	23249	21790	159352	27713	1059317	46481	108566	0	0	8207	546789	0	0
2024-09-29 11:18:47			0	38342	0	0	0	23246	21790	159284	27171	1059326	46482	108565	0	0	8207	546750	0	0
2024-09-29 11:19:47			0	38354	0	0	0	23231	21800	159336	27493	1059308	46482	108559	0	0	8208	546250	0	0
2024-09-29 11:20:47			0	38349	0	0	0	23192	21800	159284	27379	1059308	46471	108544	0	0	8209	546446	0	0
2024-09-29 11:21:47			0	38353	0	0	0	23168	21800	159132	27220	1059281	46471	108535	0	0	8209	546289	0	0
2024-09-29 11:22:47			0	38331	0	0	0	23168	21790	159188	27614	1059290	46470	108535	0	0	8208	547180	0	0
2024-09-29 11:23:47			0	38311	0	0	0	23179	21780	159484	27369	1059246	46469	108539	0	0	8207	547992	0	0
2024-09-29 11:24:47			0	38296	0	0	0	23176	21770	159444	27433	1059183	46447	108538	0	0	8206	548610	0	0
2024-09-29 11:25:47			0	38295	0	0	0	23184	21780	159488	27105	1059219	46469	108541	0	0	8206	548619	0	0
2024-09-29 11:26:47			0	38284	0	0	0	23189	21790	159484	27298	1059183	46470	108543	0	0	8205	549019	0	0
2024-09-29 11:27:47			0	38272	0	0	0	23186	21770	159596	27561	1059210	46480	108542	0	0	8204	549550	0	0
2024-09-29 11:28:47			0	38274	0	0	0	23194	21780	159620	27566	1059112	46458	108545	0	0	8204	549441	0	0
2024-09-29 11:29:47			0	38251	0	0	0	23197	21780	159664	27542	1059192	46469	108546	0	0	8203	550343	0	0
2024-09-29 11:30:47			0	38261	0	0	0	23194	21770	159504	27223	1059201	46458	108545	0	0	8203	549982	0	0
2024-09-29 11:31:47			0	38264	0	0	0	23199	21780	159608	27422	1059192	46469	108547	0	0	8204	549833	0	0
2024-09-29 11:32:47			0	38281	0	0	0	23199	21770	159552	27386	1059201	46479	108547	0	0	8205	549198	0	0
2024-09-29 11:33:47			0	38286	0	0	0	23202	21770	159432	27571	1059263	46469	108548	0	0	8205	549002	0	0
2024-09-29 11:34:47			0	38284	0	0	0	23207	21780	159380	27310	1059219	46469	108550	0	0	8205	549049	0	0
2024-09-29 11:35:47			0	38313	0	0	0	23199	21790	159396	27319	1059210	46481	108547	0	0	8207	547884	0	0
2024-09-29 11:36:47			0	38292	0	0	0	23205	21780	159424	27606	1059192	46480	108549	0	0	8205	548736	0	0
2024-09-29 11:37:47			0	38260	0	0	0	23202	21770	159616	27569	1059237	46480	108548	0	0	8203	550021	0	0
2024-09-29 11:38:47			0	38237	0	0	0	23202	21770	159628	27341	1059237	46469	108548	0	0	8202	550924	0	0
2024-09-29 11:39:47			0	38268	0	0	0	23207	21770	159632	27516	1059183	46480	108550	0	0	8204	549707	0	0
2024-09-29 11:40:47			0	38281	0	0	0	23212	21790	159492	27537	1059210	46481	108552	0	0	8204	549137	0	0
2024-09-29 11:41:47			0	38298	0	0	0	23215	21790	159400	27298	1059290	46470	108553	0	0	8205	548471	0	0
2024-09-29 11:42:47			0	38341	0	0	0	23218	21780	159208	27293	1059246	46491	108554	0	0	8208	546819	0	0
2024-09-29 11:43:47			0	38352	0	0	0	23218	21790	159144	27102	1059290	46481	108554	0	0	8208	546359	0	0
2024-09-29 11:44:47			0	38382	0	0	0	23223	21780	159160	27460	1059281	46470	108556	0	0	8210	545218	0	0
2024-09-29 11:45:47			0	38397	0	0	0	23238	21790	159056	27267	1059299	46482	108562	0	0	8211	544603	0	0
2024-09-29 11:46:47			0	38425	0	0	0	23238	21790	158980	27490	1059290	46470	108562	0	0	8212	543512	0	0
2024-09-29 11:47:47			0	38431	0	0	0	23254	21790	158860	27457	1059326	46471	108568	0	0	8212	543279	0	0
2024-09-29 11:48:47			0	38465	0	0	0	23249	21800	158796	27774	1059344	46472	108566	0	0	8215	541926	0	0
2024-09-29 11:49:47			0	38475	0	0	0	23225	21800	158752	27277	1059344	46505	108557	0	0	8216	541538	0	0
2024-09-29 11:50:47			0	38494	0	0	0	23207	21810	158760	27381	1059326	46483	108550	0	0	8217	540770	0	0
2024-09-29 11:51:47			0	38523	0	0	0	23199	21800	158448	27156	1059290	46472	108547	0	0	8219	539675	0	0
2024-09-29 11:52:47			0	38556	0	0	0	23194	21790	158488	27059	1059299	46482	108545	0	0	8221	538427	0	0
2024-09-29 11:53:47			0	38576	0	0	0	23207	21800	158464	27282	1059264	46472	108550	0	0	8222	537623	0	0
2024-09-29 11:54:47			0	38573	0	0	0	23205	21790	158292	27265	1059246	46482	108549	0	0	8222	537769	0	0
2024-09-29 11:55:47			0	38583	0	0	0	23225	21790	158260	27305	1059290	46470	108557	0	0	8222	537382	0	0
2024-09-29 11:56:47			0	38603	0	0	0	23251	21790	158236	27121	1059326	46482	108567	0	0	8223	536609	0	0
2024-09-29 11:57:47			0	38604	0	0	0	23277	21810	158200	27528	1059433	46483	108577	0	0	8222	536511	0	0
2024-09-29 11:58:47			0	38610	0	0	0	23277	21810	158268	27386	1059379	46494	108577	0	0	8223	536279	0	0
2024-09-29 11:59:47			0	38606	0	0	0	23275	21800	158216	27414	1059397	46472	108576	0	0	8222	536464	0	0
2024-09-29 12:00:47			0	38619	0	0	0	23241	21810	158160	27298	1059442	46473	108563	0	0	8224	535932	0	0
2024-09-29 12:01:47			0	38628	0	0	0	23236	21810	158020	27286	1059379	46483	108561	0	0	8224	535585	0	0
2024-09-29 12:02:47			0	38652	0	0	0	23223	21800	158016	27452	1059370	46483	108556	0	0	8226	534689	0	0
2024-09-29 12:03:47			0	38678	0	0	0	23244	21810	157904	27362	1059406	46472	108564	0	0	8227	533657	0	0
2024-09-29 12:04:47			0	38677	0	0	0	23238	21820	157864	27296	1059371	46474	108562	0	0	8227	533666	0	0
2024-09-29 12:05:47			0	38693	0	0	0	23225	21810	157900	27457	1059379	46483	108557	0	0	8228	533080	0	0
2024-09-29 12:06:47			0	38720	0	0	0	23218	21820	157772	27438	1059371	46485	108554	0	0	8230	532012	0	0
2024-09-29 12:07:47			0	38737	0	0	0	23220	21820	157749	27505	1059291	46463	108555	0	0	8231	531359	0	0
2024-09-29 12:08:47			0	38743	0	0	0	23228	21810	157677	27429	1059379	46461	108558	0	0	8231	531158	0	0
2024-09-29 12:09:47			0	38749	0	0	0	23228	21810	157637	27535	1059362	46484	108558	0	0	8231	530928	0	0
2024-09-29 12:10:47			0	38750	0	0	0	23233	21810	157489	27431	1059326	46472	108560	0	0	8231	530890	0	0
2024-09-29 12:11:47			0	38766	0	0	0	23244	21810	157513	27434	1059362	46495	108564	0	0	8232	530276	0	0
2024-09-29 12:12:47			0	38795	0	0	0	23244	21810	157497	27348	1059406	46483	108564	0	0	8234	529165	0	0
2024-09-29 12:13:47			0	38797	0	0	0	23270	21820	157493	27022	1059433	46474	108574	0	0	8234	529058	0	0
2024-09-29 12:14:47			0	38806	0	0	0	23262	21810	157465	27031	1059388	46484	108571	0	0	8234	528743	0	0
2024-09-29 12:15:47			0	38804	0	0	0	23275	21820	157385	27131	1059451	46485	108576	0	0	8234	528790	0	0
2024-09-29 12:16:47			0	38813	0	0	0	23257	21820	157337	27436	1059504	46474	108569	0	0	8235	528446	0	0
2024-09-29 12:17:47			0	38833	0	0	0	23272	21830	157289	27479	1059522	46486	108575	0	0	8236	527651	0	0
2024-09-29 12:18:47			0	38845	0	0	0	23264	21820	157365	27559	1059433	46496	108572	0	0	8236	527222	0	0
2024-09-29 12:19:47			0	38876	0	0	0	23249	21820	157169	27334	1059486	46496	108566	0	0	8238	526038	0	0
2024-09-29 12:20:47			0	38899	0	0	0	23233	21830	156993	27419	1059495	46486	108560	0	0	8240	525131	0	0
2024-09-29 12:21:47			0	38912	0	0	0	23251	21830	156969	27627	1059468	46453	108567	0	0	8241	524636	0	0
2024-09-29 12:22:47			0	38901	0	0	0	23283	21830	157097	27409	1059468	46475	108579	0	0	8239	525055	0	0
2024-09-29 12:23:47			0	38863	0	0	0	23275	21830	157205	27289	1059451	46475	108576	0	0	8237	526505	0	0
2024-09-29 12:24:47			0	38878	0	0	0	23246	21830	157153	27379	1059478	46486	108565	0	0	8239	525932	0	0
2024-09-29 12:25:47			0	38892	0	0	0	23251	21830	157065	27208	1059495	46486	108567	0	0	8239	525398	0	0
2024-09-29 12:26:47			0	38900	0	0	0	23267	21830	157073	27225	1059478	46475	108573	0	0	8240	525093	0	0
2024-09-29 12:27:47			0	38898	0	0	0	23301	21830	157145	27312	1059451	46475	108586	0	0	8239	525170	0	0
2024-09-29 12:28:47			0	38869	0	0	0	23293	21830	157177	27431	1059522	46497	108583	0	0	8237	526276	0	0
2024-09-29 12:29:47			0	38851	0	0	0	23303	21830	157289	27516	1059495	46497	108587	0	0	8236	526963	0	0
2024-09-29 12:30:47			0	38826	0	0	0	23303	21840	157261	27367	1059567	46487	108587	0	0	8235	527890	0	0
2024-09-29 12:31:47			0	38824	0	0	0	23316	21850	157349	27569	1059585	46499	108592	0	0	8234	527937	0	0
2024-09-29 12:32:47			0	38844	0	0	0	23306	21850	157269	27239	1059611	46477	108588	0	0	8236	527172	0	0
2024-09-29 12:33:47			0	38836	0	0	0	23337	21850	157409	27376	1059674	46488	108600	0	0	8235	527478	0	0
2024-09-29 12:34:47			0	38801	0	0	0	23340	21860	157429	27511	1059665	46490	108601	0	0	8233	528787	0	0
2024-09-29 12:35:47			0	38789	0	0	0	23358	21870	157485	27229	1059789	46500	108608	0	0	8232	529217	0	0
2024-09-29 12:36:47			0	38777	0	0	0	23348	21880	157521	27499	1059745	46491	108604	0	0	8231	529648	0	0
2024-09-29 12:37:47			0	38761	0	0	0	23353	21880	157537	27412	1059781	46514	108606	0	0	8230	530261	0	0
2024-09-29 12:38:47			0	38722	0	0	0	23363	21890	157725	27329	1059843	46492	108610	0	0	8228	531728	0	0
2024-09-29 12:39:47			0	38689	0	0	0	23355	21890	157832	27365	1059905	46502	108607	0	0	8226	532996	0	0
2024-09-29 12:40:47			0	38681	0	0	0	23345	21890	157804	27256	1059825	46492	108603	0	0	8226	533304	0	0
2024-09-29 12:41:47			0	38701	0	0	0	23342	21890	157660	27383	1059932	46481	108602	0	0	8227	532535	0	0
2024-09-29 12:42:47			0	38711	0	0	0	23314	21900	157652	27543	1059817	46494	108591	0	0	8228	532121	0	0
2024-09-29 12:43:47			0	38785	0	0	0	23332	21900	157457	27699	1059817	46494	108598	0	0	8232	529282	0	0
2024-09-29 12:44:47			0	38807	0	0	0	23340	21900	157401	27578	1059808	46493	108601	0	0	8233	528440	0	0
2024-09-29 12:45:47			0	38823	0	0	0	23324	21900	157277	27642	1059808	46493	108595	0	0	8235	527828	0	0
2024-09-29 12:46:47			0	38848	0	0	0	23322	21900	157249	27514	1059834	46471	108594	0	0	8236	526872	0	0
2024-09-29 12:47:47			0	38877	0	0	0	23316	21900	157065	27462	1059781	46482	108592	0	0	8238	525766	0	0
2024-09-29 12:48:47			0	38905	0	0	0	23311	21900	156989	27535	1059754	46471	108590	0	0	8239	524698	0	0
2024-09-29 12:49:47			0	38919	0	0	0	23319	21890	156813	27334	1059799	46481	108593	0	0	8240	524194	0	0
2024-09-29 12:50:47			0	38911	0	0	0	23327	21900	156845	27298	1059834	46493	108596	0	0	8240	524469	0	0
2024-09-29 12:51:47			0	38908	0	0	0	23345	21890	156873	27454	1059870	46492	108603	0	0	8239	524613	0	0
2024-09-29 12:52:47			0	38951	0	0	0	23335	21900	156749	27331	1059896	46494	108599	0	0	8242	522947	0	0
2024-09-29 12:53:47			0	38941	0	0	0	23324	21900	156817	27460	1059817	46483	108595	0	0	8241	523327	0	0
2024-09-29 12:54:47			0	38967	0	0	0	23324	21900	156641	27673	1059790	46494	108595	0	0	8243	522339	0	0
2024-09-29 12:55:47			0	38998	0	0	0	23329	21900	156613	27255	1059834	46493	108597	0	0	8245	521162	0	0
2024-09-29 12:56:47			0	38986	0	0	0	23327	21900	156469	27320	1059808	46503	108596	0	0	8244	521617	0	0
2024-09-29 12:57:47			0	38999	0	0	0	23335	21900	156541	27332	1059808	46482	108599	0	0	8245	521124	0	0
2024-09-29 12:58:47			0	39005	0	0	0	23327	21890	156497	27535	1059852	46492	108596	0	0	8245	520925	0	0
2024-09-29 12:59:47			0	39012	0	0	0	23327	21900	156509	27462	1059834	46493	108596	0	0	8245	520630	0	0
2024-09-29 13:00:47			0	39014	0	0	0	23335	21900	156409	27326	1059808	46482	108599	0	0	8245	520555	0	0
2024-09-29 13:01:47			0	39027	0	0	0	23332	21890	156553	27443	1059799	46492	108598	0	0	8246	520091	0	0
2024-09-29 13:02:47			0	39037	0	0	0	23327	21900	156453	27604	1059861	46493	108596	0	0	8247	519683	0	0
2024-09-29 13:03:47			0	39070	0	0	0	23322	21900	156313	27371	1059817	46472	108594	0	0	8249	518433	0	0
2024-09-29 13:04:47			0	39067	0	0	0	23306	21900	156253	27218	1059790	46494	108588	0	0	8249	518547	0	0
2024-09-29 13:05:47			0	39069	0	0	0	23314	21900	156229	27206	1059754	46493	108591	0	0	8249	518471	0	0
2024-09-29 13:06:47			0	39065	0	0	0	23309	21900	156181	27358	1059781	46493	108589	0	0	8249	518623	0	0
2024-09-29 13:07:47			0	39092	0	0	0	23316	21900	156349	27977	1059781	46482	108592	0	0	8250	517602	0	0
2024-09-29 13:08:47			0	39089	0	0	0	23337	21900	156289	27402	1059790	46494	108600	0	0	8250	517715	0	0
2024-09-29 13:09:47			0	39087	0	0	0	23335	21890	156265	27627	1059772	46502	108599	0	0	8250	517819	0	0
2024-09-29 13:10:47			0	39079	0	0	0	23350	21900	156353	27540	1059790	46483	108605	0	0	8249	518093	0	0
2024-09-29 13:11:47			0	39087	0	0	0	23353	21900	156285	27554	1059870	46494	108606	0	0	8249	517790	0	0
2024-09-29 13:12:47			0	39077	0	0	0	23353	21910	156193	27531	1059879	46516	108606	0	0	8249	518140	0	0
2024-09-29 13:13:47			0	39050	0	0	0	23361	21910	156345	27441	1059906	46504	108609	0	0	8247	519162	0	0
2024-09-29 13:14:47			0	39061	0	0	0	23361	21910	156389	27585	1059888	46505	108609	0	0	8248	518745	0	0
2024-09-29 13:15:47			0	39050	0	0	0	23361	21920	156385	27281	1059950	46505	108609	0	0	8247	519133	0	0
2024-09-29 13:16:47			0	39069	0	0	0	23358	21910	156297	27861	1059968	46505	108608	0	0	8248	518442	0	0
2024-09-29 13:17:47			0	39081	0	0	0	23358	21920	156265	27315	1059923	46484	108608	0	0	8249	517960	0	0
2024-09-29 13:18:47			0	39084	0	0	0	23358	21930	156105	27500	1060021	46497	108608	0	0	8249	517817	0	0
2024-09-29 13:19:47			0	39108	0	0	0	23340	21920	156117	27114	1059923	46495	108601	0	0	8251	516939	0	0
2024-09-29 13:20:47			0	39122	0	0	0	23345	21930	156005	27105	1059941	46486	108603	0	0	8252	516382	0	0
2024-09-29 13:21:47			0	39111	0	0	0	23348	21920	156137	27215	1059950	46473	108604	0	0	8251	516826	0	0
2024-09-29 13:22:47			0	39108	0	0	0	23361	21920	156177	27265	1059950	46495	108609	0	0	8250	516939	0	0
2024-09-29 13:23:47			0	39120	0	0	0	23355	21920	156201	27138	1059932	46496	108607	0	0	8251	516486	0	0
2024-09-29 13:24:47			0	39137	0	0	0	23361	21920	156177	27350	1059959	46485	108609	0	0	8252	515845	0	0
2024-09-29 13:25:47			0	39139	0	0	0	23363	21920	156105	27464	1059959	46506	108610	0	0	8252	515769	0	0
2024-09-29 13:26:47			0	39134	0	0	0	23363	21930	156017	27353	1059968	46497	108610	0	0	8252	515929	0	0
2024-09-29 13:27:47			0	39135	0	0	0	23371	21930	156073	27313	1060004	46497	108613	0	0	8252	515892	0	0
2024-09-29 13:28:47			0	39120	0	0	0	23363	21930	156097	27433	1060030	46507	108610	0	0	8251	516458	0	0
2024-09-29 13:29:47			0	39116	0	0	0	23366	21920	156065	27396	1059986	46496	108611	0	0	8251	516637	0	0
2024-09-29 13:30:47			0	39107	0	0	0	23361	21930	156125	27341	1060048	46507	108609	0	0	8250	516948	0	0
2024-09-29 13:31:47			0	39121	0	0	0	23368	21940	156121	27251	1060093	46497	108612	0	0	8251	516391	0	0
2024-09-29 13:32:47			0	39129	0	0	0	23368	21940	156049	27500	1059986	46507	108612	0	0	8252	516089	0	0
2024-09-29 13:33:47			0	39136	0	0	0	23371	21940	156053	27265	1060022	46498	108613	0	0	8252	515825	0	0
2024-09-29 13:34:47			0	39145	0	0	0	23368	21940	156025	27445	1060102	46508	108612	0	0	8253	515486	0	0
2024-09-29 13:35:47			0	39125	0	0	0	23371	21950	155993	27043	1060057	46488	108613	0	0	8251	516211	0	0
2024-09-29 13:36:47			0	39143	0	0	0	23376	21940	156113	27230	1060093	46486	108615	0	0	8252	515561	0	0
2024-09-29 13:37:47			0	39143	0	0	0	23371	21940	156097	27454	1060102	46454	108613	0	0	8252	515561	0	0
2024-09-29 13:38:47			0	39136	0	0	0	23373	21940	156073	27322	1060075	46498	108614	0	0	8252	515825	0	0
2024-09-29 13:39:47			0	39117	0	0	0	23379	21940	156065	27376	1060102	46508	108616	0	0	8251	516542	0	0
2024-09-29 13:40:47			0	39124	0	0	0	23384	21940	156129	27389	1060039	46497	108618	0	0	8251	516278	0	0
2024-09-29 13:41:47			0	39131	0	0	0	23381	21940	156137	27183	1060128	46498	108617	0	0	8252	516014	0	0
2024-09-29 13:42:47			0	39127	0	0	0	23394	21950	156105	27268	1060093	46499	108622	0	0	8251	516136	0	0
2024-09-29 13:43:47			0	39115	0	0	0	23402	21950	156013	27376	1060146	46499	108625	0	0	8250	516589	0	0
2024-09-29 13:44:47			0	39114	0	0	0	23402	21960	156073	27502	1060129	46509	108625	0	0	8250	516598	0	0
2024-09-29 13:45:47			0	39117	0	0	0	23402	21960	156081	27419	1060209	46499	108625	0	0	8250	516484	0	0
2024-09-29 13:46:47			0	39105	0	0	0	23397	21950	156133	27512	1060173	46509	108623	0	0	8250	516966	0	0
2024-09-29 13:47:47			0	39054	0	0	0	23407	21960	156317	27279	1060164	46511	108627	0	0	8247	518865	0	0
2024-09-29 13:48:47			0	39070	0	0	0	23410	21960	156393	27528	1060209	46499	108628	0	0	8248	518260	0	0
2024-09-29 13:49:47			0	39061	0	0	0	23402	21970	156233	27511	1060147	46500	108625	0	0	8247	518572	0	0
2024-09-29 13:50:47			0	39054	0	0	0	23389	21970	156285	27528	1060173	46500	108620	0	0	8247	518836	0	0
2024-09-29 13:51:47			0	39123	0	0	0	23379	21950	156161	27500	1060120	46499	108616	0	0	8251	516287	0	0
2024-09-29 13:52:47			0	39150	0	0	0	23384	21970	155909	27405	1060147	46490	108618	0	0	8253	515211	0	0
2024-09-29 13:53:47			0	39158	0	0	0	23381	21960	156013	27332	1060155	46499	108617	0	0	8253	514938	0	0
2024-09-29 13:54:47			0	39145	0	0	0	23379	21960	156001	27455	1060182	46499	108616	0	0	8252	515428	0	0
2024-09-29 13:55:47			0	39136	0	0	0	23394	21960	155937	27485	1060138	46500	108622	0	0	8252	515767	0	0
2024-09-29 13:56:47			0	39152	0	0	0	23392	21960	155921	27698	1060191	46489	108621	0	0	8253	515164	0	0
2024-09-29 13:57:47			0	39179	0	0	0	23384	21960	155781	27505	1060191	46489	108618	0	0	8254	514147	0	0
2024-09-29 13:58:47			0	39218	0	0	0	23392	21960	155717	27310	1060191	46489	108621	0	0	8256	512681	0	0
2024-09-29 13:59:47			0	39296	0	0	0	23379	21960	155485	27498	1060164	46500	108616	0	0	8261	509754	0	0
2024-09-29 14:00:47			0	39361	0	0	0	23386	21960	155237	27486	1060102	46499	108619	0	0	8265	507323	0	0
2024-09-29 14:01:47			0	39399	0	0	0	23376	21960	155021	27317	1060155	46509	108615	0	0	8267	505905	0	0
2024-09-29 14:02:47			0	39451	0	0	0	23384	21950	154758	27355	1060137	46488	108618	0	0	8270	503996	0	0
2024-09-29 14:03:47			0	39463	0	0	0	23394	21960	154790	27448	1060155	46509	108622	0	0	8271	503521	0	0
2024-09-29 14:04:47			0	39447	0	0	0	23394	21960	154862	27659	1060164	46489	108622	0	0	8270	504117	0	0
2024-09-29 14:05:47			0	39426	0	0	0	23405	21960	154866	27625	1060155	46499	108626	0	0	8268	504899	0	0
2024-09-29 14:06:47			0	39439	0	0	0	23412	21960	154806	27592	1060182	46521	108629	0	0	8269	504414	0	0
2024-09-29 14:07:47			0	39461	0	0	0	23407	21960	154818	27422	1060218	46511	108627	0	0	8270	503596	0	0
2024-09-29 14:08:47			0	39433	0	0	0	23407	21970	154898	27502	1060253	46500	108627	0	0	8269	504610	0	0
2024-09-29 14:09:47			0	39399	0	0	0	23415	21970	155025	27301	1060227	46500	108630	0	0	8267	505877	0	0
2024-09-29 14:10:47			0	39439	0	0	0	23420	21970	154918	27234	1060253	46500	108632	0	0	8269	504386	0	0
2024-09-29 14:11:47			0	39422	0	0	0	23425	21970	154954	27576	1060289	46500	108634	0	0	8268	505019	0	0
2024-09-29 14:12:47			0	39410	0	0	0	23415	21970	155005	27327	1060289	46523	108630	0	0	8267	505466	0	0
2024-09-29 14:13:47			0	39392	0	0	0	23412	21980	155045	27390	1060351	46512	108629	0	0	8266	506109	0	0
2024-09-29 14:14:47			0	39427	0	0	0	23412	21980	154950	27661	1060218	46512	108629	0	0	8268	504805	0	0
2024-09-29 14:15:47			0	39434	0	0	0	23423	21980	154862	27523	1060271	46500	108633	0	0	8268	504544	0	0
2024-09-29 14:16:47			0	39421	0	0	0	23428	21980	154930	27668	1060245	46500	108635	0	0	8268	505028	0	0
2024-09-29 14:17:47			0	39435	0	0	0	23431	21990	154930	27564	1060343	46513	108636	0	0	8268	504479	0	0
2024-09-29 14:18:47			0	39440	0	0	0	23428	21980	154746	27523	1060280	46501	108635	0	0	8269	504321	0	0
2024-09-29 14:19:47			0	39456	0	0	0	23423	21990	154734	27633	1060343	46492	108633	0	0	8270	503697	0	0
2024-09-29 14:20:47			0	39470	0	0	0	23431	21990	154610	27616	1060316	46502	108636	0	0	8270	503177	0	0
2024-09-29 14:21:47			0	39502	0	0	0	23431	21990	154570	27196	1060325	46503	108636	0	0	8272	501988	0	0
2024-09-29 14:22:47			0	39494	0	0	0	23441	21990	154514	27540	1060263	46513	108640	0	0	8272	502285	0	0
2024-09-29 14:23:47			0	39524	0	0	0	23438	21990	154526	27958	1060325	46515	108639	0	0	8273	501172	0	0
2024-09-29 14:24:47			0	39548	0	0	0	23436	22000	154470	27621	1060307	46493	108638	0	0	8275	500254	0	0
2024-09-29 14:25:47			0	39524	0	0	0	23446	22000	154518	27327	1060334	46503	108642	0	0	8273	501144	0	0
2024-09-29 14:26:47			0	39525	0	0	0	23449	22010	154462	27545	1060396	46503	108643	0	0	8273	501079	0	0
2024-09-29 14:27:47			0	39552	0	0	0	23446	22000	154486	27466	1060307	46503	108642	0	0	8275	500106	0	0
2024-09-29 14:28:47			0	39544	0	0	0	23446	22010	154270	27500	1060450	46503	108642	0	0	8275	500375	0	0
2024-09-29 14:29:47			0	39561	0	0	0	23446	22010	154346	27783	1060370	46515	108642	0	0	8276	499745	0	0
2024-09-29 14:30:47			0	39541	0	0	0	23451	22010	154378	27644	1060378	46504	108644	0	0	8274	500486	0	0
2024-09-29 14:31:47			0	39547	0	0	0	23449	22020	154434	27677	1060441	46528	108643	0	0	8275	500236	0	0
2024-09-29 14:32:47			0	39558	0	0	0	23457	22020	154398	27685	1060441	46505	108646	0	0	8275	499828	0	0
2024-09-29 14:33:47			0	39573	0	0	0	23451	22030	154258	27407	1060459	46505	108644	0	0	8276	499245	0	0
2024-09-29 14:34:47			0	39590	0	0	0	23431	22010	154310	27208	1060485	46494	108636	0	0	8277	498672	0	0
2024-09-29 14:35:47			0	39547	0	0	0	23436	22030	154406	27348	1060432	46505	108638	0	0	8275	500208	0	0
2024-09-29 14:36:47			0	39524	0	0	0	23431	22010	154506	27606	1060405	46504	108636	0	0	8274	501116	0	0
2024-09-29 14:37:47			0	39498	0	0	0	23423	22020	154562	27511	1060387	46505	108633	0	0	8272	502053	0	0
2024-09-29 14:38:47			0	39496	0	0	0	23436	22020	154582	27609	1060476	46505	108638	0	0	8272	502127	0	0
2024-09-29 14:39:47			0	39481	0	0	0	23441	22010	154550	27545	1060405	46516	108640	0	0	8271	502712	0	0
2024-09-29 14:40:47			0	39529	0	0	0	23451	22020	154474	27601	1060423	46505	108644	0	0	8274	500903	0	0
2024-09-29 14:41:47			0	39593	0	0	0	23438	22020	154310	27511	1060450	46517	108639	0	0	8278	498533	0	0
2024-09-29 14:42:47			0	39592	0	0	0	23451	22020	154206	27433	1060450	46517	108644	0	0	8277	498570	0	0
2024-09-29 14:43:47			0	39618	0	0	0	23446	22020	154182	27365	1060396	46517	108642	0	0	8279	497609	0	0
2024-09-29 14:44:47			0	39628	0	0	0	23446	22020	154070	27156	1060441	46505	108642	0	0	8279	497240	0	0
2024-09-29 14:45:47			0	39641	0	0	0	23459	22020	153982	27447	1060521	46495	108647	0	0	8280	496760	0	0
2024-09-29 14:46:47			0	39665	0	0	0	23449	22030	153970	27334	1060405	46517	108643	0	0	8282	495847	0	0
2024-09-29 14:47:47			0	39670	0	0	0	23441	22020	153966	27436	1060467	46505	108640	0	0	8282	495691	0	0
2024-09-29 14:48:47			0	39675	0	0	0	23438	22030	153810	27460	1060441	46496	108639	0	0	8282	495479	0	0
2024-09-29 14:49:47			0	39701	0	0	0	23446	22030	153942	27289	1060459	46505	108642	0	0	8284	494521	0	0
2024-09-29 14:50:47			0	39697	0	0	0	23428	22030	153786	27381	1060459	46505	108635	0	0	8284	494669	0	0
2024-09-29 14:51:47			0	39671	0	0	0	23425	22020	153910	27566	1060423	46505	108634	0	0	8282	495654	0	0
2024-09-29 14:52:47			0	39690	0	0	0	23428	22020	153874	27530	1060361	46505	108635	0	0	8283	494954	0	0
2024-09-29 14:53:47			0	39682	0	0	0	23431	22020	153726	27802	1060423	46505	108636	0	0	8283	495249	0	0
2024-09-29 14:54:47			0	39695	0	0	0	23438	22020	153766	27410	1060423	46505	108639	0	0	8283	494770	0	0
2024-09-29 14:55:47			0	39676	0	0	0	23425	22020	153818	27244	1060450	46495	108634	0	0	8283	495470	0	0
2024-09-29 14:56:47			0	39690	0	0	0	23428	22010	153930	27338	1060343	46493	108635	0	0	8283	494982	0	0
2024-09-29 14:57:47			0	39682	0	0	0	23433	22020	153986	27156	1060387	46505	108637	0	0	8283	495249	0	0
2024-09-29 14:58:47			0	39655	0	0	0	23420	22010	153962	27192	1060378	46504	108632	0	0	8281	496271	0	0
2024-09-29 14:59:47			0	39582	0	0	0	23423	22020	154234	27362	1060387	46495	108633	0	0	8277	498940	0	0
2024-09-29 15:00:47			0	39580	0	0	0	23418	22020	154218	27331	1060387	46505	108631	0	0	8277	499014	0	0
2024-09-29 15:01:47			0	39586	0	0	0	23418	22010	154270	27438	1060378	46504	108631	0	0	8277	498820	0	0
2024-09-29 15:02:47			0	39577	0	0	0	23399	22020	154234	27647	1060387	46505	108624	0	0	8277	499125	0	0
2024-09-29 15:03:47			0	39593	0	0	0	23418	22000	154270	27549	1060307	46493	108631	0	0	8278	498589	0	0
2024-09-29 15:04:47			0	39564	0	0	0	23444	22010	154338	27024	1060405	46494	108641	0	0	8276	499634	0	0
2024-09-29 15:05:47			0	39504	0	0	0	23454	22010	154550	27646	1060432	46504	108645	0	0	8272	501858	0	0
2024-09-29 15:06:47			0	39468	0	0	0	23454	22020	154666	27260	1060414	46505	108645	0	0	8270	503167	0	0
2024-09-29 15:07:47			0	39453	0	0	0	23470	22010	154826	27372	1060450	46503	108651	0	0	8269	503753	0	0
2024-09-29 15:08:47			0	39398	0	0	0	23470	22020	154989	27069	1060574	46528	108651	0	0	8266	505773	0	0
2024-09-29 15:09:47			0	39365	0	0	0	23488	22020	155129	27388	1060610	46517	108658	0	0	8264	507004	0	0
2024-09-29 15:10:47			0	39323	0	0	0	23485	22030	155197	27244	1060574	46496	108657	0	0	8261	508545	0	0
2024-09-29 15:11:47			0	39300	0	0	0	23493	22020	155389	27256	1060556	46505	108660	0	0	8260	509434	0	0
2024-09-29 15:12:47			0	39261	0	0	0	23514	22040	155513	27144	1060637	46507	108668	0	0	8257	510838	0	0
2024-09-29 15:13:47			0	39250	0	0	0	23522	22040	155545	27320	1060672	46519	108671	0	0	8256	511251	0	0
2024-09-29 15:14:47			0	39247	0	0	0	23537	22050	155501	27445	1060655	46519	108677	0	0	8256	511335	0	0
2024-09-29 15:15:47			0	39233	0	0	0	23535	22050	155537	27403	1060744	46531	108676	0	0	8255	511860	0	0
2024-09-29 15:16:47			0	39225	0	0	0	23537	22050	155649	27369	1060717	46520	108677	0	0	8255	512161	0	0
2024-09-29 15:17:47			0	39177	0	0	0	23524	22080	155805	27400	1060762	46523	108672	0	0	8252	513879	0	0
2024-09-29 15:18:47			0	39108	0	0	0	23514	22070	156013	27336	1060771	46510	108668	0	0	8249	516507	0	0
2024-09-29 15:19:47			0	39051	0	0	0	23519	22070	156101	27038	1060833	46522	108670	0	0	8245	518661	0	0
2024-09-29 15:20:47			0	38991	0	0	0	23511	22080	156345	27483	1060762	46523	108667	0	0	8242	520904	0	0
2024-09-29 15:21:47			0	38984	0	0	0	23511	22070	156401	27154	1060744	46522	108667	0	0	8241	521199	0	0
2024-09-29 15:22:47			0	38953	0	0	0	23506	22080	156489	26920	1060762	46490	108665	0	0	8240	522347	0	0
2024-09-29 15:23:47			0	38935	0	0	0	23496	22070	156645	27511	1060726	46510	108661	0	0	8239	523060	0	0
2024-09-29 15:24:47			0	38902	0	0	0	23498	22080	156841	27360	1060745	46501	108662	0	0	8237	524286	0	0
2024-09-29 15:25:47			0	38870	0	0	0	23467	22080	156993	27393	1060745	46501	108650	0	0	8236	525505	0	0
2024-09-29 15:26:47			0	38821	0	0	0	23488	22070	157037	27241	1060726	46500	108658	0	0	8232	527404	0	0
2024-09-29 15:27:47			0	38780	0	0	0	23459	22070	157389	27476	1060718	46500	108647	0	0	8230	528972	0	0
2024-09-29 15:28:47			0	38734	0	0	0	23475	22070	157393	27455	1060673	46500	108653	0	0	8228	530734	0	0
2024-09-29 15:29:47			0	38748	0	0	0	23488	22070	157465	27861	1060700	46500	108658	0	0	8228	530198	0	0
2024-09-29 15:30:47			0	38726	0	0	0	23485	22070	157388	27268	1060664	46500	108657	0	0	8227	531041	0	0
2024-09-29 15:31:47			0	38718	0	0	0	23498	22060	157352	27485	1060700	46509	108662	0	0	8226	531378	0	0
2024-09-29 15:32:47			0	38743	0	0	0	23496	22070	157461	27391	1060726	46510	108661	0	0	8228	530389	0	0
2024-09-29 15:33:47			0	38742	0	0	0	23488	22060	157321	27239	1060682	46500	108658	0	0	8228	530457	0	0
2024-09-29 15:34:47			0	38730	0	0	0	23483	22070	157333	27308	1060691	46510	108656	0	0	8227	530888	0	0
2024-09-29 15:35:47			0	38739	0	0	0	23496	22060	157529	27268	1060735	46510	108661	0	0	8227	530572	0	0
2024-09-29 15:36:47			0	38720	0	0	0	23493	22080	157516	27429	1060682	46511	108660	0	0	8226	531242	0	0
2024-09-29 15:37:47			0	38716	0	0	0	23475	22070	157408	27298	1060691	46510	108653	0	0	8227	531425	0	0
2024-09-29 15:38:47			0	38714	0	0	0	23496	22070	157580	27301	1060664	46510	108661	0	0	8226	531502	0	0
2024-09-29 15:39:47			0	38714	0	0	0	23506	22070	157492	27514	1060700	46510	108665	0	0	8226	531502	0	0
2024-09-29 15:40:47			0	38705	0	0	0	23488	22070	157492	27493	1060744	46510	108658	0	0	8226	531847	0	0
2024-09-29 15:41:47			0	38730	0	0	0	23485	22070	157541	27448	1060726	46500	108657	0	0	8227	530888	0	0
2024-09-29 15:42:47			0	38725	0	0	0	23490	22070	157529	27537	1060673	46500	108659	0	0	8227	531080	0	0
2024-09-29 15:43:47			0	38719	0	0	0	23485	22070	157420	27698	1060691	46510	108657	0	0	8227	531310	0	0
2024-09-29 15:44:47			0	38709	0	0	0	23501	22070	157368	27493	1060718	46500	108663	0	0	8226	531694	0	0
2024-09-29 15:45:47			0	38714	0	0	0	23506	22060	157308	27535	1060682	46522	108665	0	0	8226	531531	0	0
2024-09-29 15:46:47			0	38743	0	0	0	23506	22070	157417	27713	1060753	46522	108665	0	0	8228	530389	0	0
2024-09-29 15:47:47			0	38759	0	0	0	23501	22070	157349	27524	1060726	46510	108663	0	0	8229	529776	0	0
2024-09-29 15:48:47			0	38754	0	0	0	23506	22070	157373	27769	1060718	46533	108665	0	0	8228	529968	0	0
2024-09-29 15:49:47			0	38753	0	0	0	23516	22060	157221	27588	1060735	46510	108669	0	0	8228	530036	0	0
2024-09-29 15:50:47			0	38785	0	0	0	23511	22070	157173	27379	1060718	46510	108667	0	0	8230	528781	0	0
2024-09-29 15:51:47			0	38805	0	0	0	23516	22070	157169	27545	1060780	46522	108669	0	0	8231	528016	0	0
2024-09-29 15:52:47			0	38805	0	0	0	23501	22080	157049	27438	1060762	46511	108663	0	0	8231	527986	0	0
2024-09-29 15:53:47			0	38832	0	0	0	23501	22080	157085	27170	1060762	46511	108663	0	0	8233	526955	0	0
2024-09-29 15:54:47			0	38819	0	0	0	23506	22070	157025	27287	1060700	46500	108665	0	0	8232	527481	0	0
2024-09-29 15:55:47			0	38805	0	0	0	23501	22080	157033	27573	1060745	46501	108663	0	0	8231	527986	0	0
2024-09-29 15:56:47			0	38805	0	0	0	23503	22080	157081	27213	1060745	46501	108664	0	0	8231	527986	0	0
2024-09-29 15:57:47			0	38789	0	0	0	23485	22080	157081	27365	1060762	46511	108657	0	0	8231	528598	0	0
2024-09-29 15:58:47			0	38773	0	0	0	23488	22070	157069	27795	1060700	46500	108658	0	0	8230	529240	0	0
2024-09-29 15:59:47			0	38760	0	0	0	23485	22080	157113	27682	1060718	46501	108657	0	0	8229	529708	0	0
2024-09-29 16:00:47			0	38782	0	0	0	23480	22080	157101	27462	1060682	46511	108655	0	0	8230	528866	0	0
2024-09-29 16:01:47			0	38753	0	0	0	23467	22080	157153	27313	1060709	46500	108650	0	0	8229	529977	0	0
2024-09-29 16:02:47			0	38743	0	0	0	23475	22070	157249	27163	1060646	46500	108653	0	0	8228	530389	0	0
2024-09-29 16:03:47			0	38727	0	0	0	23467	22060	157361	27779	1060682	46500	108650	0	0	8227	531033	0	0
2024-09-29 16:04:47			0	38720	0	0	0	23467	22070	157328	27611	1060646	46500	108650	0	0	8227	531272	0	0
2024-09-29 16:05:47			0	38745	0	0	0	23464	22060	157397	27371	1060726	46499	108649	0	0	8228	530342	0	0
2024-09-29 16:06:47			0	38717	0	0	0	23464	22060	157436	27282	1060646	46509	108649	0	0	8227	531416	0	0
2024-09-29 16:07:47			0	38700	0	0	0	23459	22070	157468	27306	1060718	46489	108647	0	0	8226	532039	0	0
2024-09-29 16:08:47			0	38697	0	0	0	23454	22060	157552	27168	1060655	46510	108645	0	0	8226	532184	0	0
2024-09-29 16:09:47			0	38677	0	0	0	23449	22060	157608	27216	1060593	46499	108643	0	0	8225	532953	0	0
2024-09-29 16:10:47			0	38621	0	0	0	23449	22060	157764	27128	1060629	46500	108643	0	0	8221	535109	0	0
2024-09-29 16:11:47			0	38623	0	0	0	23444	22050	157844	27036	1060557	46487	108641	0	0	8222	535061	0	0
2024-09-29 16:12:47			0	38614	0	0	0	23446	22050	157880	27455	1060575	46497	108642	0	0	8221	535408	0	0
2024-09-29 16:13:47			0	38598	0	0	0	23444	22050	157920	27239	1060504	46498	108641	0	0	8220	536025	0	0
2024-09-29 16:14:47			0	38596	0	0	0	23438	22040	157936	27187	1060566	46507	108639	0	0	8220	536132	0	0
2024-09-29 16:15:47			0	38595	0	0	0	23446	22050	158024	27227	1060521	46497	108642	0	0	8220	536141	0	0
2024-09-29 16:16:47			0	38594	0	0	0	23444	22050	157800	27312	1060468	46519	108641	0	0	8220	536180	0	0
2024-09-29 16:17:47			0	38596	0	0	0	23420	22040	157992	27433	1060477	46497	108632	0	0	8220	536132	0	0
2024-09-29 16:18:47			0	38583	0	0	0	23433	22040	158068	27287	1060423	46507	108637	0	0	8219	536634	0	0
2024-09-29 16:19:47			0	38589	0	0	0	23431	22040	158136	27071	1060503	46497	108636	0	0	8220	536403	0	0
2024-09-29 16:20:47			0	38592	0	0	0	23441	22040	158048	27362	1060503	46497	108640	0	0	8220	536287	0	0
2024-09-29 16:21:47			0	38595	0	0	0	23438	22030	158028	27424	1060468	46506	108639	0	0	8220	536201	0	0
2024-09-29 16:22:47			0	38586	0	0	0	23431	22040	157980	27717	1060477	46507	108636	0	0	8220	536518	0	0
2024-09-29 16:23:47			0	38567	0	0	0	23431	22030	158092	27405	1060432	46505	108636	0	0	8218	537282	0	0
2024-09-29 16:24:47			0	38547	0	0	0	23425	22030	158172	27230	1060468	46496	108634	0	0	8217	538055	0	0
2024-09-29 16:25:47			0	38551	0	0	0	23431	22020	158172	27471	1060450	46505	108636	0	0	8217	537931	0	0
2024-09-29 16:26:47			0	38567	0	0	0	23425	22030	158180	27336	1060494	46496	108634	0	0	8219	537282	0	0
2024-09-29 16:27:47			0	38572	0	0	0	23436	22030	158148	27563	1060432	46505	108638	0	0	8219	537089	0	0
2024-09-29 16:28:47			0	38568	0	0	0	23423	22030	158192	27209	1060459	46495	108633	0	0	8219	537243	0	0
2024-09-29 16:29:47			0	38566	0	0	0	23441	22020	158204	27493	1060414	46495	108640	0	0	8218	537351	0	0
2024-09-29 16:30:47			0	38589	0	0	0	23423	22020	158132	27426	1060494	46495	108633	0	0	8220	536462	0	0
2024-09-29 16:31:47			0	38561	0	0	0	23436	22030	158120	27374	1060459	46495	108638	0	0	8218	537514	0	0
2024-09-29 16:32:47			0	38574	0	0	0	23425	22020	158156	27497	1060441	46495	108634	0	0	8219	537042	0	0
2024-09-29 16:33:47			0	38554	0	0	0	23425	22020	158148	27157	1060467	46517	108634	0	0	8218	537814	0	0
2024-09-29 16:34:47			0	38538	0	0	0	23412	22010	158252	27376	1060432	46504	108629	0	0	8217	538463	0	0
2024-09-29 16:35:47			0	38542	0	0	0	23399	22020	158296	27362	1060414	46505	108624	0	0	8217	538279	0	0
2024-09-29 16:36:47			0	38501	0	0	0	23407	22010	158428	27199	1060370	46493	108627	0	0	8215	539896	0	0
2024-09-29 16:37:47			0	38495	0	0	0	23399	22010	158476	27310	1060352	46483	108624	0	0	8215	540129	0	0
2024-09-29 16:38:47			0	38502	0	0	0	23412	22010	158368	27497	1060396	46515	108629	0	0	8215	539857	0	0
2024-09-29 16:39:47			0	38508	0	0	0	23405	21990	158332	27569	1060352	46493	108626	0	0	8215	539685	0	0
2024-09-29 16:40:47			0	38532	0	0	0	23402	22000	158296	27454	1060361	46515	108625	0	0	8217	538726	0	0
2024-09-29 16:41:47			0	38527	0	0	0	23415	22010	158420	27500	1060370	46493	108630	0	0	8216	538889	0	0
2024-09-29 16:42:47			0	38534	0	0	0	23418	21990	158276	27339	1060352	46493	108631	0	0	8217	538678	0	0
2024-09-29 16:43:47			0	38562	0	0	0	23418	21990	158240	27424	1060325	46503	108631	0	0	8218	537595	0	0
2024-09-29 16:44:47			0	38529	0	0	0	23415	22000	158212	27630	1060281	46493	108630	0	0	8216	538842	0	0
2024-09-29 16:45:47			0	38543	0	0	0	23407	21990	158216	27486	1060369	46502	108627	0	0	8217	538330	0	0
2024-09-29 16:46:47			0	38552	0	0	0	23405	22000	158148	27599	1060361	46515	108626	0	0	8218	537952	0	0
2024-09-29 16:47:47			0	38568	0	0	0	23402	21990	158076	27485	1060325	46493	108625	0	0	8219	537363	0	0
2024-09-29 16:48:47			0	38572	0	0	0	23410	21990	158224	27360	1060352	46493	108628	0	0	8219	537209	0	0
2024-09-29 16:49:47			0	38570	0	0	0	23405	21990	158184	27490	1060325	46503	108626	0	0	8219	537286	0	0
2024-09-29 16:50:47			0	38588	0	0	0	23397	21990	158104	27516	1060316	46513	108623	0	0	8220	536591	0	0
2024-09-29 16:51:47			0	38574	0	0	0	23389	21990	158116	27341	1060352	46493	108620	0	0	8219	537131	0	0
2024-09-29 16:52:47			0	38580	0	0	0	23394	21990	158084	27343	1060298	46493	108622	0	0	8220	536900	0	0
2024-09-29 16:53:47			0	38574	0	0	0	23402	21980	158152	27400	1060351	46490	108625	0	0	8219	537161	0	0
2024-09-29 16:54:47			0	38564	0	0	0	23423	21980	158040	27352	1060351	46500	108633	0	0	8218	537548	0	0
2024-09-29 16:55:47			0	38608	0	0	0	23394	22000	158012	27287	1060387	46503	108622	0	0	8221	535789	0	0
2024-09-29 16:56:47			0	38591	0	0	0	23389	21980	158120	27428	1060351	46490	108620	0	0	8220	536505	0	0
2024-09-29 16:57:47			0	38590	0	0	0	23399	21990	158076	27459	1060316	46502	108624	0	0	8220	536514	0	0
2024-09-29 16:58:47			0	38614	0	0	0	23386	21980	157988	27383	1060378	46500	108619	0	0	8222	535617	0	0
2024-09-29 16:59:47			0	38608	0	0	0	23392	21980	158060	27267	1060298	46490	108621	0	0	8221	535849	0	0
2024-09-29 17:00:47			0	38589	0	0	0	23397	21980	158148	27111	1060254	46513	108623	0	0	8220	536582	0	0
2024-09-29 17:01:47			0	38575	0	0	0	23410	21970	158168	27450	1060262	46479	108628	0	0	8219	537153	0	0
2024-09-29 17:02:47			0	38564	0	0	0	23392	21970	158172	27242	1060227	46500	108621	0	0	8219	537578	0	0
2024-09-29 17:03:47			0	38571	0	0	0	23379	21980	158128	27454	1060334	46501	108616	0	0	8219	537277	0	0
2024-09-29 17:04:47			0	38566	0	0	0	23379	21970	158148	27175	1060182	46500	108616	0	0	8219	537500	0	0
2024-09-29 17:05:47			0	38577	0	0	0	23381	21980	158164	27097	1060218	46490	108617	0	0	8220	537046	0	0
2024-09-29 17:06:47			0	38543	0	0	0	23371	21960	158200	27079	1060182	46499	108613	0	0	8218	538420	0	0
2024-09-29 17:07:47			0	38550	0	0	0	23373	21970	158216	27196	1060227	46490	108614	0	0	8218	538119	0	0
2024-09-29 17:08:47			0	38557	0	0	0	23368	21960	158216	27189	1060164	46500	108612	0	0	8219	537878	0	0
2024-09-29 17:09:47			0	38573	0	0	0	23376	21960	158180	27170	1060209	46499	108615	0	0	8219	537260	0	0
2024-09-29 17:10:47			0	38570	0	0	0	23376	21960	158176	27305	1060164	46500	108615	0	0	8219	537376	0	0
2024-09-29 17:11:47			0	38595	0	0	0	23371	21960	158064	26979	1060129	46499	108613	0	0	8221	536410	0	0
2024-09-29 17:12:47			0	38588	0	0	0	23399	21950	158064	27123	1060200	46499	108624	0	0	8220	536710	0	0
2024-09-29 17:13:47			0	38620	0	0	0	23397	21960	157964	27338	1060164	46500	108623	0	0	8222	535446	0	0
2024-09-29 17:14:47			0	38624	0	0	0	23381	21960	157856	27317	1060191	46500	108617	0	0	8222	535291	0	0
2024-09-29 17:15:47			0	38612	0	0	0	23384	21970	157968	27213	1060236	46500	108618	0	0	8222	535724	0	0
2024-09-29 17:16:47			0	38616	0	0	0	23436	21970	158032	27182	1060173	46490	108638	0	0	8221	535570	0	0
2024-09-29 17:17:47			0	38653	0	0	0	23470	21960	157832	27395	1060289	46509	108651	0	0	8222	534174	0	0
2024-09-29 17:18:47			0	38683	0	0	0	23467	21970	157784	27074	1060307	46512	108650	0	0	8224	532990	0	0
2024-09-29 17:19:47			0	38693	0	0	0	23470	21970	157672	27170	1060413	46523	108651	0	0	8225	532605	0	0
2024-09-29 17:20:47			0	38689	0	0	0	23467	21980	157680	27111	1060378	46523	108650	0	0	8225	532729	0	0
2024-09-29 17:21:47			0	38706	0	0	0	23472	21990	157776	27185	1060476	46525	108652	0	0	8226	532046	0	0
2024-09-29 17:22:47			0	38700	0	0	0	23472	22010	157692	27334	1060450	46526	108652	0	0	8225	532217	0	0
2024-09-29 17:23:47			0	38703	0	0	0	23467	22000	157652	27341	1060494	46526	108650	0	0	8226	532132	0	0
2024-09-29 17:24:47			0	38678	0	0	0	23467	22020	157752	27076	1060521	46517	108650	0	0	8224	533033	0	0
2024-09-29 17:25:47			0	38708	0	0	0	23464	22020	157772	26939	1060494	46517	108649	0	0	8226	531880	0	0
2024-09-29 17:26:47			0	38695	0	0	0	23459	22020	157692	27203	1060547	46517	108647	0	0	8225	532380	0	0
2024-09-29 17:27:47			0	38682	0	0	0	23464	22020	157676	27307	1060476	46517	108649	0	0	8225	532880	0	0
2024-09-29 17:28:47			0	38707	0	0	0	23467	22020	157660	27111	1060547	46517	108650	0	0	8226	531919	0	0
2024-09-29 17:29:47			0	38681	0	0	0	23459	22020	157708	27178	1060503	46517	108647	0	0	8225	532918	0	0
2024-09-29 17:30:47			0	38670	0	0	0	23457	22020	157720	27178	1060556	46505	108646	0	0	8224	533341	0	0
2024-09-29 17:31:47			0	38673	0	0	0	23441	22030	157640	27274	1060521	46506	108640	0	0	8224	533196	0	0
2024-09-29 17:32:47			0	38675	0	0	0	23457	22030	157724	27086	1060485	46505	108646	0	0	8224	533119	0	0
2024-09-29 17:33:47			0	38673	0	0	0	23449	22020	157712	27460	1060503	46505	108643	0	0	8224	533226	0	0
2024-09-29 17:34:47			0	38676	0	0	0	23454	22030	157716	27067	1060459	46517	108645	0	0	8224	533081	0	0
2024-09-29 17:35:47			0	38666	0	0	0	23446	22030	157756	27097	1060494	46496	108642	0	0	8224	533465	0	0
2024-09-29 17:36:47			0	38664	0	0	0	23446	22040	157648	27156	1060530	46497	108642	0	0	8224	533512	0	0
2024-09-29 17:37:47			0	38651	0	0	0	23454	22030	157720	27149	1060592	46505	108645	0	0	8223	534042	0	0
2024-09-29 17:38:47			0	38660	0	0	0	23454	22030	157724	27112	1060521	46496	108645	0	0	8223	533696	0	0
2024-09-29 17:39:47			0	38646	0	0	0	23446	22030	157812	27308	1060601	46506	108642	0	0	8223	534235	0	0
2024-09-29 17:40:47			0	38647	0	0	0	23433	22030	157716	27081	1060521	46496	108637	0	0	8223	534196	0	0
2024-09-29 17:41:47			0	38653	0	0	0	23425	22030	157928	26736	1060468	46506	108634	0	0	8224	533965	0	0
2024-09-29 17:42:47			0	38631	0	0	0	23418	22030	157768	27052	1060468	46506	108631	0	0	8222	534813	0	0
2024-09-29 17:43:47			0	38639	0	0	0	23412	22020	157960	26939	1060476	46495	108629	0	0	8223	534534	0	0
2024-09-29 17:44:47			0	38630	0	0	0	23412	22020	157948	27163	1060414	46495	108629	0	0	8222	534881	0	0
2024-09-29 17:45:47			0	38610	0	0	0	23410	22020	157992	27026	1060387	46495	108628	0	0	8221	535652	0	0
2024-09-29 17:46:47			0	38600	0	0	0	23405	22030	158028	26972	1060432	46495	108626	0	0	8221	536008	0	0
2024-09-29 17:47:47			0	38594	0	0	0	23394	22030	158064	27173	1060379	46505	108622	0	0	8221	536239	0	0
2024-09-29 17:48:47			0	38586	0	0	0	23386	22010	158152	27031	1060378	46494	108619	0	0	8220	536608	0	0
2024-09-29 17:49:47			0	38587	0	0	0	23379	22010	158020	26896	1060405	46494	108616	0	0	8220	536569	0	0
2024-09-29 17:50:47			0	38554	0	0	0	23373	22010	158192	27022	1060396	46493	108614	0	0	8219	537844	0	0
2024-09-29 17:51:47			0	38552	0	0	0	23376	22000	158236	27026	1060307	46493	108615	0	0	8218	537952	0	0
2024-09-29 17:52:47			0	38539	0	0	0	23373	21980	158288	26918	1060280	46501	108614	0	0	8218	538515	0	0
2024-09-29 17:53:47			0	38542	0	0	0	23371	21990	158308	26830	1060263	46492	108613	0	0	8218	538369	0	0
2024-09-29 17:54:47			0	38549	0	0	0	23376	21990	158212	27263	1060289	46492	108615	0	0	8218	538098	0	0
2024-09-29 17:55:47			0	38554	0	0	0	23371	21980	158276	27255	1060307	46491	108613	0	0	8218	537934	0	0
2024-09-29 17:56:47			0	38527	0	0	0	23361	21970	158308	26870	1060236	46500	108609	0	0	8217	539009	0	0
2024-09-29 17:57:47			0	38526	0	0	0	23361	21980	158308	27260	1060227	46491	108609	0	0	8217	539018	0	0
2024-09-29 17:58:47			0	38525	0	0	0	23363	21970	158384	26958	1060173	46500	108610	0	0	8217	539087	0	0
2024-09-29 17:59:47			0	38518	0	0	0	23361	21970	158392	27003	1060200	46500	108609	0	0	8217	539358	0	0
2024-09-29 18:00:47			0	38511	0	0	0	23358	21960	158408	27097	1060191	46489	108608	0	0	8216	539659	0	0
2024-09-29 18:01:47			0	38501	0	0	0	23363	21960	158328	27199	1060164	46489	108610	0	0	8215	540047	0	0
2024-09-29 18:02:47			0	38517	0	0	0	23366	21960	158436	26901	1060164	46500	108611	0	0	8216	539427	0	0
2024-09-29 18:03:47			0	38489	0	0	0	23363	21960	158544	27088	1060164	46500	108610	0	0	8215	540512	0	0
2024-09-29 18:04:47			0	38503	0	0	0	23355	21950	158516	27074	1060146	46499	108607	0	0	8216	539999	0	0
2024-09-29 18:05:47			0	38504	0	0	0	23358	21960	158556	27440	1060129	46466	108608	0	0	8216	539930	0	0
2024-09-29 18:06:47			0	38505	0	0	0	23348	21950	158524	27100	1060120	46477	108604	0	0	8216	539922	0	0
2024-09-29 18:07:47			0	38485	0	0	0	23348	21950	158552	27282	1060093	46499	108604	0	0	8215	540697	0	0
2024-09-29 18:08:47			0	38483	0	0	0	23358	21950	158516	27310	1060084	46488	108608	0	0	8214	540775	0	0
2024-09-29 18:09:47			0	38489	0	0	0	23348	21940	158604	27402	1060102	46487	108604	0	0	8215	540572	0	0
2024-09-29 18:10:47			0	38478	0	0	0	23355	21950	158628	27483	1060120	46488	108607	0	0	8214	540969	0	0
2024-09-29 18:11:47			0	38477	0	0	0	23350	21930	158616	26901	1060164	46497	108605	0	0	8214	541068	0	0
2024-09-29 18:12:47			0	38466	0	0	0	23348	21940	158652	26968	1060039	46486	108604	0	0	8214	541465	0	0
2024-09-29 18:13:47			0	38474	0	0	0	23342	21940	158620	27069	1060075	46498	108602	0	0	8214	541154	0	0
2024-09-29 18:14:47			0	38467	0	0	0	23348	21940	158568	27157	1060093	46486	108604	0	0	8214	541426	0	0
2024-09-29 18:15:47			0	38494	0	0	0	23345	21930	158720	27355	1060075	46486	108603	0	0	8215	540408	0	0
2024-09-29 18:16:47			0	38467	0	0	0	23350	21940	158716	27267	1060066	46475	108605	0	0	8214	541426	0	0
2024-09-29 18:17:47			0	38469	0	0	0	23355	21930	158708	26932	1060030	46497	108607	0	0	8214	541379	0	0
2024-09-29 18:18:47			0	38450	0	0	0	23350	21930	158692	26824	1060110	46486	108605	0	0	8213	542117	0	0
2024-09-29 18:19:47			0	38453	0	0	0	23353	21930	158732	26948	1059995	46497	108606	0	0	8213	542000	0	0
2024-09-29 18:20:47			0	38457	0	0	0	23350	21930	158692	27003	1060075	46507	108605	0	0	8213	541845	0	0
2024-09-29 18:21:47			0	38464	0	0	0	23342	21940	158680	27034	1060013	46507	108602	0	0	8214	541543	0	0
2024-09-29 18:22:47			0	38467	0	0	0	23348	21930	158700	27017	1060048	46486	108604	0	0	8214	541456	0	0
2024-09-29 18:23:47			0	38449	0	0	0	23345	21930	158748	26949	1060004	46497	108603	0	0	8213	542155	0	0
2024-09-29 18:24:47			0	38449	0	0	0	23342	21930	158760	27135	1060030	46486	108602	0	0	8213	542155	0	0
2024-09-29 18:25:47			0	38449	0	0	0	23350	21930	158800	27183	1060030	46507	108605	0	0	8213	542155	0	0
2024-09-29 18:26:47			0	38459	0	0	0	23348	21930	158892	27003	1060004	46486	108604	0	0	8213	541767	0	0
2024-09-29 18:27:47			0	38425	0	0	0	23350	21930	158924	27402	1060075	46486	108605	0	0	8211	543089	0	0
2024-09-29 18:28:47			0	38436	0	0	0	23348	21930	158916	27227	1059995	46497	108604	0	0	8212	542661	0	0
2024-09-29 18:29:47			0	38436	0	0	0	23342	21930	158872	26915	1060048	46497	108602	0	0	8212	542661	0	0
2024-09-29 18:30:47			0	38438	0	0	0	23337	21930	158772	27374	1060084	46475	108600	0	0	8212	542583	0	0
2024-09-29 18:31:47			0	38442	0	0	0	23329	21920	158888	27163	1059977	46495	108597	0	0	8212	542458	0	0
2024-09-29 18:32:47			0	38434	0	0	0	23337	21920	158792	27150	1059950	46484	108600	0	0	8212	542769	0	0
2024-09-29 18:33:47			0	38445	0	0	0	23335	21920	158844	27367	1060003	46495	108599	0	0	8212	542341	0	0
2024-09-29 18:34:47			0	38433	0	0	0	23340	21920	158780	27161	1059923	46495	108601	0	0	8212	542808	0	0
2024-09-29 18:35:47			0	38435	0	0	0	23340	21910	158900	26994	1059994	46495	108601	0	0	8212	542760	0	0
2024-09-29 18:36:47			0	38431	0	0	0	23290	21920	158876	27251	1059959	46485	108582	0	0	8212	542885	0	0
2024-09-29 18:37:47			0	38445	0	0	0	23296	21910	158736	27246	1059906	46483	108584	0	0	8213	542371	0	0
2024-09-29 18:38:47			0	38450	0	0	0	23283	21900	158836	27360	1059870	46494	108579	0	0	8214	542207	0	0
2024-09-29 18:39:47			0	38465	0	0	0	23298	21910	158772	27227	1059879	46483	108585	0	0	8214	541594	0	0
2024-09-29 18:40:47			0	38482	0	0	0	23322	21890	158728	27027	1059879	46492	108594	0	0	8215	540995	0	0
2024-09-29 18:41:47			0	38472	0	0	0	23327	21890	158680	27145	1059816	46492	108596	0	0	8214	541383	0	0
2024-09-29 18:42:47			0	38469	0	0	0	23335	21900	158764	26987	1059888	46493	108599	0	0	8214	541469	0	0
2024-09-29 18:43:47			0	38455	0	0	0	23337	21910	158800	26974	1059932	46494	108600	0	0	8213	541983	0	0
2024-09-29 18:44:47			0	38467	0	0	0	23335	21910	158864	27310	1059941	46495	108599	0	0	8214	541517	0	0
2024-09-29 18:45:47			0	38457	0	0	0	23329	21920	158856	26835	1059977	46495	108597	0	0	8213	541875	0	0
2024-09-29 18:46:47			0	38432	0	0	0	23332	21900	158892	27194	1059950	46504	108598	0	0	8212	542907	0	0
2024-09-29 18:47:47			0	38445	0	0	0	23335	21910	158900	27383	1059959	46494	108599	0	0	8212	542371	0	0
2024-09-29 18:48:47			0	38430	0	0	0	23335	21900	158864	27168	1059923	46494	108599	0	0	8212	542985	0	0
2024-09-29 18:49:47			0	38424	0	0	0	23335	21910	158880	27440	1059906	46483	108599	0	0	8211	543188	0	0
2024-09-29 18:50:47			0	38415	0	0	0	23335	21910	158976	27260	1059941	46495	108599	0	0	8211	543538	0	0
2024-09-29 18:51:47			0	38408	0	0	0	23337	21910	159012	27043	1059985	46504	108600	0	0	8210	543811	0	0
2024-09-29 18:52:47			0	38423	0	0	0	23337	21910	159028	27027	1059932	46494	108600	0	0	8211	543227	0	0
2024-09-29 18:53:47			0	38428	0	0	0	23327	21910	158932	27289	1059906	46472	108596	0	0	8212	543032	0	0
2024-09-29 18:54:47			0	38417	0	0	0	23335	21920	158992	27060	1059959	46496	108599	0	0	8211	543430	0	0
2024-09-29 18:55:47			0	38424	0	0	0	23332	21910	158872	26850	1059879	46494	108598	0	0	8211	543188	0	0
2024-09-29 18:56:47			0	38434	0	0	0	23340	21920	158928	27277	1059977	46484	108601	0	0	8212	542769	0	0
2024-09-29 18:57:47			0	38410	0	0	0	23324	21910	158904	26965	1059959	46516	108595	0	0	8211	543733	0	0
2024-09-29 18:58:47			0	38434	0	0	0	23322	21910	158932	26911	1059994	46505	108594	0	0	8212	542799	0	0
2024-09-29 18:59:47			0	38421	0	0	0	23327	21910	158944	26994	1059968	46495	108596	0	0	8211	543305	0	0
2024-09-29 19:00:47			0	38428	0	0	0	23324	21900	158940	27173	1059896	46494	108595	0	0	8212	543063	0	0
2024-09-29 19:01:47			0	38430	0	0	0	23311	21900	158904	27034	1059923	46483	108590	0	0	8212	542985	0	0
2024-09-29 19:02:47			0	38416	0	0	0	23316	21900	158816	26739	1059950	46483	108592	0	0	8211	543530	0	0
2024-09-29 19:03:47			0	38421	0	0	0	23309	21910	158932	27053	1059932	46494	108589	0	0	8211	543305	0	0
2024-09-29 19:04:47			0	38417	0	0	0	23311	21900	159048	26656	1059808	46482	108590	0	0	8211	543491	0	0
2024-09-29 19:05:47			0	38435	0	0	0	23311	21900	158936	26970	1059896	46483	108590	0	0	8212	542790	0	0
2024-09-29 19:06:47			0	38410	0	0	0	23322	21900	159116	27059	1059914	46482	108594	0	0	8211	543763	0	0
2024-09-29 19:07:47			0	38408	0	0	0	23335	21900	159016	26965	1059888	46493	108599	0	0	8210	543841	0	0
2024-09-29 19:08:47			0	38391	0	0	0	23327	21900	158972	26961	1059861	46482	108596	0	0	8209	544503	0	0
2024-09-29 19:09:47			0	38393	0	0	0	23316	21900	159100	26994	1059888	46503	108592	0	0	8210	544425	0	0
2024-09-29 19:10:47			0	38403	0	0	0	23335	21890	158976	26955	1059905	46481	108599	0	0	8210	544066	0	0
2024-09-29 19:11:47			0	38395	0	0	0	23324	21900	159064	26922	1059950	46494	108595	0	0	8210	544347	0	0
2024-09-29 19:12:47			0	38407	0	0	0	23316	21900	159008	26781	1059941	46493	108592	0	0	8211	543880	0	0
2024-09-29 19:13:47			0	38394	0	0	0	23316	21890	158892	26948	1059905	46481	108592	0	0	8210	544417	0	0
2024-09-29 19:14:47			0	38409	0	0	0	23311	21900	159048	27105	1059896	46504	108590	0	0	8211	543802	0	0
2024-09-29 19:15:47			0	38424	0	0	0	23311	21910	159036	27076	1059879	46494	108590	0	0	8212	543188	0	0
2024-09-29 19:16:47			0	38414	0	0	0	23311	21900	159016	26956	1060003	46483	108590	0	0	8211	543608	0	0
2024-09-29 19:17:47			0	38402	0	0	0	23309	21890	159020	26961	1059870	46481	108589	0	0	8210	544105	0	0
2024-09-29 19:18:47			0	38410	0	0	0	23316	21900	158940	27142	1059888	46482	108592	0	0	8211	543763	0	0
2024-09-29 19:19:47			0	38421	0	0	0	23314	21900	159008	27248	1059941	46493	108591	0	0	8211	543335	0	0
2024-09-29 19:20:47			0	38415	0	0	0	23309	21890	158880	26816	1059932	46481	108589	0	0	8211	543599	0	0
2024-09-29 19:21:47			0	38404	0	0	0	23309	21900	159028	27173	1059914	46493	108589	0	0	8210	543997	0	0
2024-09-29 19:22:47			0	38388	0	0	0	23298	21890	159064	27208	1059852	46492	108585	0	0	8210	544651	0	0
2024-09-29 19:23:47			0	38403	0	0	0	23298	21900	159024	27220	1059888	46493	108585	0	0	8211	544036	0	0
2024-09-29 19:24:47			0	38404	0	0	0	23301	21890	159080	27024	1059870	46492	108586	0	0	8211	544027	0	0
2024-09-29 19:25:47			0	38407	0	0	0	23306	21890	159080	27251	1059816	46492	108588	0	0	8211	543910	0	0
2024-09-29 19:26:47			0	38412	0	0	0	23296	21890	158996	27088	1059879	46492	108584	0	0	8211	543716	0	0
2024-09-29 19:27:47			0	38400	0	0	0	23306	21890	159132	27249	1059879	46492	108588	0	0	8210	544183	0	0
2024-09-29 19:28:47			0	38403	0	0	0	23288	21870	159052	27118	1059763	46490	108581	0	0	8211	544127	0	0
2024-09-29 19:29:47			0	38386	0	0	0	23296	21890	159060	27315	1059870	46481	108584	0	0	8210	544728	0	0
2024-09-29 19:30:47			0	38380	0	0	0	23296	21890	159148	27053	1059843	46481	108584	0	0	8209	544962	0	0
2024-09-29 19:31:47			0	38406	0	0	0	23293	21880	159016	27376	1059798	46491	108583	0	0	8211	543980	0	0
2024-09-29 19:32:47			0	38409	0	0	0	23298	21890	159072	26876	1059843	46492	108585	0	0	8211	543832	0	0
2024-09-29 19:33:47			0	38419	0	0	0	23296	21880	159076	27293	1059834	46492	108584	0	0	8211	543474	0	0
2024-09-29 19:34:47			0	38397	0	0	0	23309	21880	159128	26819	1059852	46513	108589	0	0	8210	544330	0	0
2024-09-29 19:35:47			0	38400	0	0	0	23311	21880	159080	27166	1059781	46492	108590	0	0	8210	544213	0	0
2024-09-29 19:36:47			0	38395	0	0	0	23306	21880	159176	26795	1059861	46492	108588	0	0	8210	544408	0	0
2024-09-29 19:37:47			0	38377	0	0	0	23303	21890	159100	26955	1059843	46502	108587	0	0	8209	545079	0	0
2024-09-29 19:38:47			0	38379	0	0	0	23293	21890	159196	27298	1059870	46481	108583	0	0	8209	545001	0	0
2024-09-29 19:39:47			0	38375	0	0	0	23285	21880	159184	27189	1059834	46502	108580	0	0	8209	545188	0	0
2024-09-29 19:40:47			0	38359	0	0	0	23275	21880	159164	27208	1059772	46491	108576	0	0	8208	545812	0	0
2024-09-29 19:41:47			0	38361	0	0	0	23296	21880	159180	27001	1059807	46502	108584	0	0	8208	545734	0	0
2024-09-29 19:42:47			0	38353	0	0	0	23285	21880	159268	27105	1059852	46480	108580	0	0	8208	546046	0	0
2024-09-29 19:43:47			0	38354	0	0	0	23288	21870	159288	27100	1059789	46500	108581	0	0	8208	546038	0	0
2024-09-29 19:44:47			0	38359	0	0	0	23298	21870	159304	27319	1059727	46468	108585	0	0	8208	545842	0	0
2024-09-29 19:45:47			0	38381	0	0	0	23298	21870	159340	26963	1059754	46479	108585	0	0	8209	544984	0	0
2024-09-29 19:46:47			0	38373	0	0	0	23280	21870	159264	27228	1059843	46490	108578	0	0	8209	545296	0	0
2024-09-29 19:47:47			0	38364	0	0	0	23262	21870	159260	27265	1059789	46479	108571	0	0	8209	545647	0	0
2024-09-29 19:48:47			0	38352	0	0	0	23267	21870	159256	27064	1059789	46468	108573	0	0	8208	546116	0	0
2024-09-29 19:49:47			0	38356	0	0	0	23283	21860	159256	27109	1059771	46490	108579	0	0	8208	545990	0	0
2024-09-29 19:50:47			0	38370	0	0	0	23288	21870	159272	27001	1059700	46479	108581	0	0	8209	545413	0	0
2024-09-29 19:51:47			0	38363	0	0	0	23283	21870	159320	26998	1059754	46479	108579	0	0	8208	545686	0	0
2024-09-29 19:52:47			0	38352	0	0	0	23285	21860	159328	27024	1059771	46479	108580	0	0	8208	546146	0	0
2024-09-29 19:53:47			0	38350	0	0	0	23264	21860	159400	27255	1059745	46490	108572	0	0	8208	546224	0	0
2024-09-29 19:54:47			0	38335	0	0	0	23251	21870	159388	27313	1059727	46490	108567	0	0	8207	546780	0	0
2024-09-29 19:55:47			0	38332	0	0	0	23233	21860	159368	27182	1059718	46479	108560	0	0	8207	546927	0	0
2024-09-29 19:56:47			0	38318	0	0	0	23231	21860	159404	26835	1059692	46468	108559	0	0	8207	547474	0	0
2024-09-29 19:57:47			0	38330	0	0	0	23251	21850	159408	27189	1059611	46477	108567	0	0	8207	547036	0	0
2024-09-29 19:58:47			0	38303	0	0	0	23249	21840	159480	27206	1059576	46465	108566	0	0	8205	548122	0	0
2024-09-29 19:59:47			0	38284	0	0	0	23246	21850	159440	26944	1059638	46477	108565	0	0	8204	548835	0	0
2024-09-29 20:00:47			0	38303	0	0	0	23238	21840	159424	27131	1059576	46465	108562	0	0	8205	548122	0	0
2024-09-29 20:01:47			0	38287	0	0	0	23244	21850	159484	27142	1059665	46477	108564	0	0	8205	548718	0	0
2024-09-29 20:02:47			0	38301	0	0	0	23241	21830	159532	26658	1059531	46486	108563	0	0	8205	548231	0	0
2024-09-29 20:03:47			0	38278	0	0	0	23244	21830	159516	26996	1059548	46486	108564	0	0	8204	549132	0	0
2024-09-29 20:04:47			0	38286	0	0	0	23238	21840	159508	27005	1059540	46476	108562	0	0	8205	548788	0	0
2024-09-29 20:05:47			0	38277	0	0	0	23228	21840	159588	26899	1059549	46498	108558	0	0	8204	549140	0	0
2024-09-29 20:06:47			0	38281	0	0	0	23223	21830	159508	27024	1059558	46475	108556	0	0	8204	549014	0	0
2024-09-29 20:07:47			0	38273	0	0	0	23225	21820	159480	27092	1059513	46474	108557	0	0	8204	549358	0	0
2024-09-29 20:08:47			0	38265	0	0	0	23218	21830	159668	26986	1059548	46464	108554	0	0	8204	549641	0	0
2024-09-29 20:09:47			0	38260	0	0	0	23223	21830	159616	26850	1059548	46464	108556	0	0	8203	549837	0	0
2024-09-29 20:10:47			0	38272	0	0	0	23223	21830	159672	27048	1059468	46486	108556	0	0	8204	549367	0	0
2024-09-29 20:11:47			0	38269	0	0	0	23218	21820	159632	27005	1059477	46496	108554	0	0	8204	549515	0	0
2024-09-29 20:12:47			0	38273	0	0	0	23212	21810	159520	27031	1059468	46473	108552	0	0	8204	549389	0	0
2024-09-29 20:13:47			0	38278	0	0	0	23205	21820	159512	27159	1059504	46485	108549	0	0	8205	549162	0	0
2024-09-29 20:14:47			0	38266	0	0	0	23205	21810	159644	26753	1059468	46473	108549	0	0	8204	549663	0	0
2024-09-29 20:15:47			0	38258	0	0	0	23205	21810	159636	27204	1059495	46484	108549	0	0	8203	549977	0	0
2024-09-29 20:16:47			0	38262	0	0	0	23210	21800	159696	27376	1059450	46483	108551	0	0	8203	549851	0	0
2024-09-29 20:17:47			0	38255	0	0	0	23210	21800	159568	27090	1059424	46472	108551	0	0	8203	550125	0	0
2024-09-29 20:18:47			0	38267	0	0	0	23223	21810	159732	27187	1059433	46483	108556	0	0	8204	549624	0	0
2024-09-29 20:19:47			0	38275	0	0	0	23220	21810	159588	26875	1059459	46494	108555	0	0	8204	549310	0	0
2024-09-29 20:20:47			0	38273	0	0	0	23220	21800	159556	27150	1059415	46482	108555	0	0	8204	549419	0	0
2024-09-29 20:21:47			0	38277	0	0	0	23212	21800	159552	26708	1059397	46472	108552	0	0	8204	549263	0	0
2024-09-29 20:22:47			0	38268	0	0	0	23210	21800	159612	26755	1059397	46472	108551	0	0	8204	549615	0	0
2024-09-29 20:23:47			0	38266	0	0	0	23194	21800	159676	26739	1059415	46493	108545	0	0	8204	549694	0	0
2024-09-29 20:24:47			0	38259	0	0	0	23186	21800	159496	26953	1059388	46471	108542	0	0	8204	549968	0	0
2024-09-29 20:25:47			0	38245	0	0	0	23194	21800	159680	26948	1059388	46493	108545	0	0	8203	550518	0	0
2024-09-29 20:26:47			0	38256	0	0	0	23194	21790	159696	26807	1059352	46482	108545	0	0	8203	550116	0	0
2024-09-29 20:27:47			0	38235	0	0	0	23186	21790	159656	27093	1059352	46459	108542	0	0	8202	550941	0	0
2024-09-29 20:28:47			0	38222	0	0	0	23176	21790	159820	26883	1059343	46470	108538	0	0	8202	551451	0	0
2024-09-29 20:29:47			0	38223	0	0	0	23179	21790	159864	27177	1059326	46471	108539	0	0	8202	551412	0	0
2024-09-29 20:30:47			0	38215	0	0	0	23171	21780	159800	27254	1059255	46470	108536	0	0	8201	551757	0	0
2024-09-29 20:31:47			0	38206	0	0	0	23174	21780	159844	26908	1059281	46459	108537	0	0	8201	552111	0	0
2024-09-29 20:32:47			0	38178	0	0	0	23171	21770	159888	27154	1059254	46468	108536	0	0	8199	553243	0	0
2024-09-29 20:33:47			0	38186	0	0	0	23171	21770	159944	27222	1059317	46480	108536	0	0	8199	552928	0	0
2024-09-29 20:34:47			0	38189	0	0	0	23171	21770	159968	26934	1059290	46469	108536	0	0	8200	552810	0	0
2024-09-29 20:35:47			0	38183	0	0	0	23171	21770	159896	26821	1059317	46480	108536	0	0	8199	553046	0	0
2024-09-29 20:36:47			0	38174	0	0	0	23168	21760	159904	26779	1059210	46478	108535	0	0	8199	553431	0	0
2024-09-29 20:37:47			0	38169	0	0	0	23174	21760	159924	26802	1059272	46468	108537	0	0	8198	553628	0	0
2024-09-29 20:38:47			0	38204	0	0	0	23174	21770	159956	26871	1059254	46490	108537	0	0	8200	552220	0	0
2024-09-29 20:39:47			0	38172	0	0	0	23189	21760	159916	26823	1059263	46456	108543	0	0	8198	553510	0	0
2024-09-29 20:40:47			0	38159	0	0	0	23181	21770	160016	26642	1059254	46479	108540	0	0	8198	553991	0	0
2024-09-29 20:41:47			0	38172	0	0	0	23184	21760	160076	27066	1059245	46479	108541	0	0	8198	553510	0	0
2024-09-29 20:42:47			0	38186	0	0	0	23174	21760	160008	26745	1059272	46479	108537	0	0	8199	552959	0	0
2024-09-29 20:43:47			0	38168	0	0	0	23163	21760	160032	26946	1059236	46467	108533	0	0	8199	553667	0	0
2024-09-29 20:44:47			0	38169	0	0	0	23163	21760	159980	27097	1059272	46468	108533	0	0	8199	553628	0	0
2024-09-29 20:45:47			0	38170	0	0	0	23148	21750	160016	27220	1059201	46478	108527	0	0	8199	553620	0	0
2024-09-29 20:46:47			0	38154	0	0	0	23161	21750	160096	27201	1059227	46478	108532	0	0	8198	554250	0	0
2024-09-29 20:47:47			0	38155	0	0	0	23171	21750	160096	27274	1059218	46455	108536	0	0	8198	554210	0	0
2024-09-29 20:48:47			0	38165	0	0	0	23176	21760	160020	27116	1059183	46467	108538	0	0	8198	553786	0	0
2024-09-29 20:49:47			0	38167	0	0	0	23176	21750	160044	27159	1059201	46478	108538	0	0	8198	553738	0	0
2024-09-29 20:50:47			0	38179	0	0	0	23181	21750	160068	27022	1059218	46477	108540	0	0	8199	553265	0	0
2024-09-29 20:51:47			0	38179	0	0	0	23176	21740	159976	26963	1059210	46477	108538	0	0	8199	553296	0	0
2024-09-29 20:52:47			0	38160	0	0	0	23179	21760	160044	27142	1059210	46478	108539	0	0	8198	553983	0	0
2024-09-29 20:53:47			0	38155	0	0	0	23176	21750	160024	27086	1059192	46488	108538	0	0	8197	554210	0	0
2024-09-29 20:54:47			0	38157	0	0	0	23166	21750	160048	26896	1059254	46478	108534	0	0	8198	554132	0	0
2024-09-29 20:55:47			0	38163	0	0	0	23171	21760	160084	26970	1059245	46468	108536	0	0	8198	553864	0	0
2024-09-29 20:56:47			0	38148	0	0	0	23166	21750	160056	27079	1059201	46478	108534	0	0	8197	554486	0	0
2024-09-29 20:57:47			0	38168	0	0	0	23171	21750	160072	27045	1059245	46466	108536	0	0	8198	553698	0	0
2024-09-29 20:58:47			0	38183	0	0	0	23174	21750	160028	27121	1059147	46489	108537	0	0	8199	553108	0	0
2024-09-29 20:59:47			0	38179	0	0	0	23174	21760	160064	27235	1059183	46467	108537	0	0	8199	553234	0	0
2024-09-29 21:00:47			0	38171	0	0	0	23158	21750	160072	27256	1059218	46477	108531	0	0	8199	553580	0	0
2024-09-29 21:01:47			0	38205	0	0	0	23161	21750	159980	27187	1059245	46477	108532	0	0	8201	552242	0	0
2024-09-29 21:02:47			0	38198	0	0	0	23150	21750	159872	27140	1059218	46466	108528	0	0	8200	552517	0	0
2024-09-29 21:03:47			0	38181	0	0	0	23145	21750	159876	27085	1059085	46488	108526	0	0	8200	553186	0	0
2024-09-29 21:04:47			0	38166	0	0	0	23148	21740	159972	27140	1059156	46455	108527	0	0	8199	553808	0	0
2024-09-29 21:05:47			0	38182	0	0	0	23166	21740	160084	27066	1059210	46466	108534	0	0	8199	553178	0	0
2024-09-29 21:06:47			0	38176	0	0	0	23158	21750	160004	27204	1059192	46477	108531	0	0	8199	553383	0	0
2024-09-29 21:07:47			0	38177	0	0	0	23166	21750	159992	27294	1059165	46466	108534	0	0	8199	553344	0	0
2024-09-29 21:08:47			0	38173	0	0	0	23153	21750	159996	27026	1059165	46466	108529	0	0	8199	553501	0	0
2024-09-29 21:09:47			0	38184	0	0	0	23163	21740	160016	27059	1059210	46466	108533	0	0	8199	553099	0	0
2024-09-29 21:10:47			0	38205	0	0	0	23168	21740	159984	27036	1059183	46466	108535	0	0	8201	552273	0	0
2024-09-29 21:11:47			0	38194	0	0	0	23166	21740	159896	27441	1059210	46477	108534	0	0	8200	552706	0	0
2024-09-29 21:12:47			0	38213	0	0	0	23166	21740	159924	26948	1059130	46477	108534	0	0	8201	551958	0	0
2024-09-29 21:13:47			0	38200	0	0	0	23148	21740	159948	27178	1059174	46465	108527	0	0	8201	552470	0	0
2024-09-29 21:14:47			0	38198	0	0	0	23145	21740	159912	27310	1059121	46487	108526	0	0	8200	552548	0	0
2024-09-29 21:15:47			0	38196	0	0	0	23140	21740	159980	27251	1059094	46465	108524	0	0	8200	552627	0	0
2024-09-29 21:16:47			0	38183	0	0	0	23142	21730	159988	27272	1059165	46475	108525	0	0	8200	553169	0	0
2024-09-29 21:17:47			0	38179	0	0	0	23137	21740	159936	27057	1059103	46477	108523	0	0	8200	553296	0	0
2024-09-29 21:18:47			0	38183	0	0	0	23140	21730	160036	27249	1059129	46464	108524	0	0	8200	553169	0	0
2024-09-29 21:19:47			0	38187	0	0	0	23148	21740	159924	27105	1059094	46465	108527	0	0	8200	552981	0	0
2024-09-29 21:20:47			0	38184	0	0	0	23158	21730	159900	27206	1059156	46464	108531	0	0	8199	553130	0	0
2024-09-29 21:21:47			0	38189	0	0	0	23132	21740	159872	27289	1059067	46487	108521	0	0	8200	552902	0	0
2024-09-29 21:22:47			0	38198	0	0	0	23129	21730	159832	27265	1059085	46464	108520	0	0	8201	552579	0	0
2024-09-29 21:23:47			0	38192	0	0	0	23129	21730	159868	27124	1059058	46475	108520	0	0	8200	552815	0	0
2024-09-29 21:24:47			0	38185	0	0	0	23132	21730	159864	26899	1059076	46475	108521	0	0	8200	553090	0	0
2024-09-29 21:25:47			0	38192	0	0	0	23142	21720	159812	27258	1059085	46463	108525	0	0	8200	552846	0	0
2024-09-29 21:26:47			0	38200	0	0	0	23140	21720	159872	27294	1059040	46475	108524	0	0	8201	552531	0	0
2024-09-29 21:27:47			0	38192	0	0	0	23140	21720	159860	27052	1059111	46463	108524	0	0	8200	552846	0	0
2024-09-29 21:28:47			0	38180	0	0	0	23145	21730	159912	27093	1059049	46475	108526	0	0	8199	553287	0	0
2024-09-29 21:29:47			0	38209	0	0	0	23137	21730	159864	27324	1059103	46475	108523	0	0	8201	552146	0	0
2024-09-29 21:30:47			0	38213	0	0	0	23140	21730	159856	27133	1059076	46475	108524	0	0	8201	551989	0	0
2024-09-29 21:31:47			0	38197	0	0	0	23129	21720	159756	27248	1059094	46486	108520	0	0	8201	552649	0	0
2024-09-29 21:32:47			0	38207	0	0	0	23129	21720	159772	27145	1059067	46486	108520	0	0	8201	552256	0	0
2024-09-29 21:33:47			0	38200	0	0	0	23124	21720	159784	27003	1059094	46464	108518	0	0	8201	552531	0	0
2024-09-29 21:34:47			0	38209	0	0	0	23119	21720	159820	26946	1059058	46463	108516	0	0	8201	552177	0	0
2024-09-29 21:35:47			0	38190	0	0	0	23124	21720	159824	27144	1059040	46475	108518	0	0	8200	552925	0	0
2024-09-29 21:36:47			0	38219	0	0	0	23119	21710	159820	27291	1059022	46473	108516	0	0	8202	551815	0	0
2024-09-29 21:37:47			0	38199	0	0	0	23116	21720	159772	26967	1058978	46463	108515	0	0	8201	552570	0	0
2024-09-29 21:38:47			0	38213	0	0	0	23106	21710	159856	27150	1059040	46462	108511	0	0	8202	552051	0	0
2024-09-29 21:39:47			0	38211	0	0	0	23111	21710	159732	27268	1059040	46462	108513	0	0	8202	552129	0	0
2024-09-29 21:40:47			0	38200	0	0	0	23111	21700	159784	27395	1058951	46472	108513	0	0	8201	552593	0	0
2024-09-29 21:41:47			0	38187	0	0	0	23085	21700	159860	27201	1058951	46472	108503	0	0	8201	553104	0	0
2024-09-29 21:42:47			0	38187	0	0	0	23101	21700	159896	27369	1058951	46461	108509	0	0	8200	553104	0	0
2024-09-29 21:43:47			0	38195	0	0	0	23098	21690	159928	27329	1058933	46460	108508	0	0	8201	552820	0	0
2024-09-29 21:44:47			0	38184	0	0	0	23114	21690	159896	26887	1058933	46471	108514	0	0	8200	553253	0	0
2024-09-29 21:45:47			0	38182	0	0	0	23103	21690	159868	27312	1058906	46460	108510	0	0	8200	553332	0	0
2024-09-29 21:46:47			0	38179	0	0	0	23106	21690	159908	27033	1058915	46472	108511	0	0	8200	553450	0	0
2024-09-29 21:47:47			0	38193	0	0	0	23098	21690	159916	27201	1058933	46460	108508	0	0	8201	552899	0	0
2024-09-29 21:48:47			0	38192	0	0	0	23106	21680	159828	27312	1058897	46460	108511	0	0	8201	552969	0	0
2024-09-29 21:49:47			0	38193	0	0	0	23093	21690	159876	27244	1058915	46461	108506	0	0	8201	552899	0	0
2024-09-29 21:50:47			0	38188	0	0	0	23093	21690	159928	27189	1058880	46460	108506	0	0	8201	553096	0	0
2024-09-29 21:51:47			0	38190	0	0	0	23083	21680	159996	27215	1058808	46459	108502	0	0	8201	553048	0	0
2024-09-29 21:52:47			0	38187	0	0	0	23083	21690	159920	27060	1058880	46460	108502	0	0	8201	553135	0	0
2024-09-29 21:53:47			0	38166	0	0	0	23085	21690	159928	27244	1058906	46471	108503	0	0	8199	553962	0	0
2024-09-29 21:54:47			0	38181	0	0	0	23090	21680	159868	27140	1058871	46471	108505	0	0	8200	553402	0	0
2024-09-29 21:55:47			0	38177	0	0	0	23083	21680	159940	27168	1058862	46459	108502	0	0	8200	553560	0	0
2024-09-29 21:56:47			0	38196	0	0	0	23085	21690	159864	27300	1058853	46471	108503	0	0	8201	552781	0	0
2024-09-29 21:57:47			0	38172	0	0	0	23064	21670	159944	26779	1058879	46459	108495	0	0	8200	553787	0	0
2024-09-29 21:58:47			0	38165	0	0	0	23083	21670	160048	27180	1058844	46458	108502	0	0	8199	554063	0	0
2024-09-29 21:59:47			0	38168	0	0	0	23077	21680	160116	26769	1058835	46448	108500	0	0	8200	553914	0	0
2024-09-29 22:00:47			0	38167	0	0	0	23080	21670	160112	27072	1058826	46459	108501	0	0	8199	553984	0	0
2024-09-29 22:01:47			0	38181	0	0	0	23077	21650	160052	27407	1058817	46458	108500	0	0	8200	553494	0	0
2024-09-29 22:02:47			0	38171	0	0	0	23080	21650	159988	27274	1058844	46468	108501	0	0	8200	553888	0	0
2024-09-29 22:03:47			0	38186	0	0	0	23077	21660	159952	26892	1058773	46446	108500	0	0	8201	553267	0	0
2024-09-29 22:04:47			0	38169	0	0	0	23085	21670	159956	27291	1058773	46470	108503	0	0	8199	553906	0	0
2024-09-29 22:05:47			0	38177	0	0	0	23077	21670	159976	27369	1058791	46469	108500	0	0	8200	553590	0	0
2024-09-29 22:06:47			0	38179	0	0	0	23080	21660	159944	27234	1058799	46446	108501	0	0	8200	553542	0	0
2024-09-29 22:07:47			0	38181	0	0	0	23083	21650	159912	27086	1058790	46458	108502	0	0	8200	553494	0	0
2024-09-29 22:08:47			0	38174	0	0	0	23075	21660	160076	27345	1058835	46468	108499	0	0	8200	553739	0	0
2024-09-29 22:09:47			0	38187	0	0	0	23080	21660	160132	27369	1058773	46468	108501	0	0	8201	553227	0	0
2024-09-29 22:10:47			0	38174	0	0	0	23093	21660	159968	27209	1058888	46468	108506	0	0	8200	553739	0	0
2024-09-29 22:11:47			0	38172	0	0	0	23077	21660	159916	27057	1058835	46468	108500	0	0	8200	553818	0	0
2024-09-29 22:12:47			0	38191	0	0	0	23077	21670	159984	27296	1058826	46470	108500	0	0	8201	553039	0	0
2024-09-29 22:13:47			0	38197	0	0	0	23067	21650	159840	27289	1058790	46458	108496	0	0	8201	552865	0	0
2024-09-29 22:14:47			0	38209	0	0	0	23077	21670	159924	27234	1058844	46469	108500	0	0	8202	552331	0	0
2024-09-29 22:15:47			0	38199	0	0	0	23083	21670	159852	27076	1058817	46469	108502	0	0	8201	552724	0	0
2024-09-29 22:16:47			0	38186	0	0	0	23067	21650	159876	26791	1058728	46467	108496	0	0	8201	553297	0	0
2024-09-29 22:17:47			0	38186	0	0	0	23075	21670	159968	27178	1058791	46469	108499	0	0	8201	553236	0	0
2024-09-29 22:18:47			0	38193	0	0	0	23072	21660	159948	27076	1058808	46468	108498	0	0	8201	552991	0	0
2024-09-29 22:19:47			0	38192	0	0	0	23070	21650	159892	27388	1058755	46457	108497	0	0	8201	553061	0	0
2024-09-29 22:20:47			0	38202	0	0	0	23064	21650	159932	27255	1058755	46467	108495	0	0	8202	552668	0	0
2024-09-29 22:21:47			0	38202	0	0	0	23067	21650	159964	27156	1058737	46468	108496	0	0	8202	552668	0	0
2024-09-29 22:22:47			0	38199	0	0	0	23067	21650	159980	27107	1058701	46467	108496	0	0	8201	552786	0	0
2024-09-29 22:23:47			0	38190	0	0	0	23062	21650	160008	27230	1058701	46457	108494	0	0	8201	553140	0	0
2024-09-29 22:24:47			0	38188	0	0	0	23057	21660	159960	26967	1058773	46446	108492	0	0	8201	553188	0	0
2024-09-29 22:25:47			0	38175	0	0	0	23057	21640	160108	26987	1058710	46466	108492	0	0	8200	553762	0	0
2024-09-29 22:26:47			0	38178	0	0	0	23054	21640	160156	27192	1058710	46456	108491	0	0	8200	553643	0	0
2024-09-29 22:27:47			0	38176	0	0	0	23062	21640	160144	27180	1058746	46456	108494	0	0	8200	553722	0	0
2024-09-29 22:28:47			0	38171	0	0	0	23057	21640	160200	26942	1058719	46477	108492	0	0	8200	553919	0	0
2024-09-29 22:29:47			0	38149	0	0	0	23062	21640	160244	26844	1058710	46466	108494	0	0	8199	554787	0	0
2024-09-29 22:30:47			0	38162	0	0	0	23051	21640	160144	27196	1058692	46456	108490	0	0	8200	554274	0	0
2024-09-29 22:31:47			0	38173	0	0	0	23064	21640	160176	27029	1058719	46466	108495	0	0	8200	553840	0	0
2024-09-29 22:32:47			0	38173	0	0	0	23057	21640	160044	27010	1058746	46466	108492	0	0	8200	553840	0	0
2024-09-29 22:33:47			0	38156	0	0	0	23051	21640	160116	27098	1058790	46466	108490	0	0	8199	554511	0	0
2024-09-29 22:34:47			0	38153	0	0	0	23064	21630	160136	27161	1058701	46456	108495	0	0	8199	554660	0	0
2024-09-29 22:35:47			0	38148	0	0	0	23057	21630	160136	27237	1058701	46456	108492	0	0	8199	554857	0	0
2024-09-29 22:36:47			0	38141	0	0	0	23062	21630	160212	27258	1058675	46456	108494	0	0	8198	555133	0	0
2024-09-29 22:37:47			0	38151	0	0	0	23057	21630	160228	27199	1058675	46456	108492	0	0	8199	554738	0	0
2024-09-29 22:38:47			0	38156	0	0	0	23067	21630	160140	26909	1058692	46455	108496	0	0	8199	554541	0	0
2024-09-29 22:39:47			0	38139	0	0	0	23080	21640	160172	27147	1058684	46466	108501	0	0	8198	555181	0	0
2024-09-29 22:40:47			0	38134	0	0	0	23064	21630	160288	27019	1058728	46466	108495	0	0	8198	555409	0	0
2024-09-29 22:41:47			0	38164	0	0	0	23059	21640	160264	27183	1058684	46466	108493	0	0	8200	554195	0	0
2024-09-29 22:42:47			0	38144	0	0	0	23057	21630	160264	27364	1058728	46456	108492	0	0	8198	555015	0	0
2024-09-29 22:43:47			0	38140	0	0	0	23075	21640	160272	27107	1058719	46456	108499	0	0	8198	555142	0	0
2024-09-29 22:44:47			0	38143	0	0	0	23085	21640	160220	27133	1058763	46466	108503	0	0	8198	555023	0	0
2024-09-29 22:45:47			0	38161	0	0	0	23088	21640	160168	27128	1058772	46466	108504	0	0	8199	554313	0	0
2024-09-29 22:46:47			0	38163	0	0	0	23085	21640	160068	27343	1058737	46477	108503	0	0	8199	554234	0	0
2024-09-29 22:47:47			0	38172	0	0	0	23088	21630	160224	27145	1058755	46466	108504	0	0	8199	553910	0	0
2024-09-29 22:48:47			0	38183	0	0	0	23075	21640	160144	26963	1058746	46477	108499	0	0	8200	553447	0	0
2024-09-29 22:49:47			0	38160	0	0	0	23077	21630	160060	26956	1058728	46456	108500	0	0	8199	554384	0	0
2024-09-29 22:50:47			0	38186	0	0	0	23072	21640	160084	27237	1058719	46456	108498	0	0	8201	553328	0	0
2024-09-29 22:51:47			0	38171	0	0	0	23059	21660	160044	27019	1058746	46479	108493	0	0	8200	553857	0	0
2024-09-29 22:52:47			0	38180	0	0	0	23062	21630	160128	26821	1058755	46456	108494	0	0	8200	553595	0	0
2024-09-29 22:53:47			0	38186	0	0	0	23070	21640	160164	27201	1058746	46466	108497	0	0	8201	553328	0	0
2024-09-29 22:54:47			0	38175	0	0	0	23064	21640	160132	26961	1058772	46466	108495	0	0	8200	553762	0	0
2024-09-29 22:55:47			0	38173	0	0	0	23072	21640	160012	26826	1058746	46456	108498	0	0	8200	553840	0	0
2024-09-29 22:56:47			0	38159	0	0	0	23067	21630	160188	26882	1058728	46466	108496	0	0	8199	554423	0	0
2024-09-29 22:57:47			0	38178	0	0	0	23057	21640	160104	26793	1058684	46466	108492	0	0	8200	553643	0	0
2024-09-29 22:58:47			0	38157	0	0	0	23049	21640	160192	27168	1058710	46456	108489	0	0	8199	554471	0	0
2024-09-29 22:59:47			0	38132	0	0	0	23054	21630	160248	26928	1058666	46443	108491	0	0	8198	555488	0	0
2024-09-29 23:00:47			0	38130	0	0	0	23051	21630	160212	26972	1058675	46466	108490	0	0	8198	555567	0	0
2024-09-29 23:01:47			0	38115	0	0	0	23054	21630	160252	26956	1058692	46455	108491	0	0	8197	556159	0	0
2024-09-29 23:02:47			0	38122	0	0	0	23054	21630	160284	26755	1058648	46456	108491	0	0	8197	555883	0	0
2024-09-29 23:03:47			0	38100	0	0	0	23054	21630	160344	27046	1058692	46455	108491	0	0	8196	556752	0	0
2024-09-29 23:04:47			0	38100	0	0	0	23057	21630	160320	26736	1058648	46456	108492	0	0	8196	556752	0	0
2024-09-29 23:05:47			0	38108	0	0	0	23051	21630	160368	26821	1058692	46455	108490	0	0	8196	556436	0	0
2024-09-29 23:06:47			0	38102	0	0	0	23051	21630	160408	27114	1058692	46455	108490	0	0	8196	556673	0	0
2024-09-29 23:07:47			0	38103	0	0	0	23049	21630	160452	26845	1058666	46455	108489	0	0	8196	556634	0	0
2024-09-29 23:08:47			0	38095	0	0	0	23046	21630	160420	26896	1058648	46456	108488	0	0	8196	556950	0	0
2024-09-29 23:09:47			0	38088	0	0	0	23041	21630	160432	27098	1058666	46465	108486	0	0	8195	557227	0	0
2024-09-29 23:10:47			0	38098	0	0	0	23036	21620	160388	26861	1058710	46454	108484	0	0	8196	556862	0	0
2024-09-29 23:11:47			0	38114	0	0	0	23031	21620	160396	27209	1058568	46454	108482	0	0	8197	556230	0	0
2024-09-29 23:12:47			0	38095	0	0	0	23036	21620	160376	27131	1058648	46464	108484	0	0	8196	556981	0	0
2024-09-29 23:13:47			0	38111	0	0	0	23041	21620	160260	26927	1058621	46454	108486	0	0	8197	556348	0	0
2024-09-29 23:14:47			0	38102	0	0	0	23044	21630	160268	26857	1058666	46455	108487	0	0	8196	556673	0	0
2024-09-29 23:15:47			0	38103	0	0	0	23025	21620	160312	27033	1058630	46475	108480	0	0	8196	556665	0	0
2024-09-29 23:16:47			0	38082	0	0	0	23031	21620	160436	27057	1058657	46464	108482	0	0	8195	557495	0	0
2024-09-29 23:17:47			0	38077	0	0	0	23023	21620	160416	27213	1058683	46454	108479	0	0	8195	557693	0	0
2024-09-29 23:18:47			0	38078	0	0	0	23031	21620	160544	26984	1058630	46464	108482	0	0	8195	557653	0	0
2024-09-29 23:19:47			0	38076	0	0	0	23044	21610	160552	26842	1058612	46464	108487	0	0	8194	557764	0	0
2024-09-29 23:20:47			0	38060	0	0	0	23051	21610	160592	27164	1058665	46464	108490	0	0	8193	558397	0	0
2024-09-29 23:21:47			0	38058	0	0	0	23031	21610	160536	26993	1058612	46464	108482	0	0	8194	558476	0	0
2024-09-29 23:22:47			0	38060	0	0	0	23020	21610	160460	27222	1058585	46464	108478	0	0	8194	558397	0	0
2024-09-29 23:23:47			0	38041	0	0	0	23025	21610	160520	27066	1058612	46454	108480	0	0	8193	559150	0	0
2024-09-29 23:24:47			0	38025	0	0	0	23020	21610	160707	26928	1058559	46475	108478	0	0	8192	559784	0	0
2024-09-29 23:25:47			0	38022	0	0	0	23028	21610	160703	26993	1058585	46442	108481	0	0	8192	559903	0	0
2024-09-29 23:26:47			0	38023	0	0	0	23025	21610	160763	26965	1058559	46454	108480	0	0	8192	559864	0	0
2024-09-29 23:27:47			0	38028	0	0	0	23028	21610	160828	27286	1058576	46441	108481	0	0	8192	559665	0	0
2024-09-29 23:28:47			0	38030	0	0	0	23036	21600	160716	27400	1058568	46452	108484	0	0	8192	559617	0	0
2024-09-29 23:29:47			0	38028	0	0	0	23028	21610	160720	27159	1058630	46452	108481	0	0	8192	559665	0	0
2024-09-29 23:30:47			0	38024	0	0	0	23031	21600	160763	27272	1058594	46462	108482	0	0	8192	559855	0	0
2024-09-29 23:31:47			0	38021	0	0	0	23033	21600	160636	26970	1058568	46473	108483	0	0	8191	559974	0	0
2024-09-29 23:32:47			0	38011	0	0	0	23028	21610	160723	27438	1058576	46452	108481	0	0	8191	560340	0	0
2024-09-29 23:33:47			0	38011	0	0	0	23025	21610	160783	27229	1058603	46452	108480	0	0	8191	560340	0	0
2024-09-29 23:34:47			0	37996	0	0	0	23023	21610	160735	27109	1058523	46452	108479	0	0	8190	560936	0	0
2024-09-29 23:35:47			0	37999	0	0	0	23031	21610	160675	27421	1058497	46452	108482	0	0	8190	560816	0	0
2024-09-29 23:36:47			0	37982	0	0	0	23028	21600	160707	27251	1058585	46451	108481	0	0	8189	561523	0	0
2024-09-29 23:37:47			0	37990	0	0	0	23028	21600	160807	27043	1058479	46461	108481	0	0	8190	561205	0	0
2024-09-29 23:38:47			0	37989	0	0	0	23025	21600	160859	27703	1058541	46462	108480	0	0	8190	561245	0	0
2024-09-29 23:39:47			0	37995	0	0	0	23025	21600	160771	27623	1058568	46452	108480	0	0	8190	561006	0	0
2024-09-29 23:40:47			0	38013	0	0	0	23020	21610	160747	27204	1058576	46463	108478	0	0	8191	560261	0	0
2024-09-29 23:41:47			0	37990	0	0	0	23015	21610	160735	27074	1058612	46454	108476	0	0	8190	561174	0	0
2024-09-29 23:42:47			0	37984	0	0	0	23020	21600	160731	27071	1058532	46461	108478	0	0	8189	561443	0	0
2024-09-29 23:43:47			0	38007	0	0	0	23018	21600	160771	27535	1058612	46451	108477	0	0	8191	560530	0	0
2024-09-29 23:44:47			0	37978	0	0	0	23018	21600	160731	27166	1058488	46462	108477	0	0	8189	561682	0	0
2024-09-29 23:45:47			0	37996	0	0	0	23012	21600	160759	27057	1058532	46461	108475	0	0	8190	560967	0	0
2024-09-29 23:46:47			0	37983	0	0	0	23020	21590	160771	27140	1058550	46461	108478	0	0	8189	561514	0	0
2024-09-29 23:47:47			0	37971	0	0	0	23018	21600	160699	27358	1058488	46452	108477	0	0	8189	561960	0	0
2024-09-29 23:48:47			0	38004	0	0	0	23007	21600	160847	27246	1058559	46461	108473	0	0	8191	560649	0	0
2024-09-29 23:49:47			0	37994	0	0	0	23007	21600	160799	27268	1058479	46461	108473	0	0	8190	561046	0	0
2024-09-29 23:50:47			0	38006	0	0	0	23012	21590	160775	27206	1058496	46451	108475	0	0	8191	560601	0	0
2024-09-29 23:51:47			0	38014	0	0	0	23002	21590	160791	27300	1058550	46451	108471	0	0	8191	560283	0	0
2024-09-29 23:52:47			0	37995	0	0	0	23010	21600	160819	26779	1058479	46461	108474	0	0	8190	561006	0	0
2024-09-29 23:53:47			0	38009	0	0	0	23010	21590	160687	27171	1058443	46461	108474	0	0	8191	560482	0	0
2024-09-29 23:54:47			0	38011	0	0	0	23002	21600	160731	27390	1058399	46461	108471	0	0	8191	560371	0	0
2024-09-29 23:55:47			0	38005	0	0	0	22994	21570	160827	27353	1058433	46448	108468	0	0	8191	560703	0	0
2024-09-29 23:56:47			0	37998	0	0	0	22997	21590	160783	27178	1058514	46451	108469	0	0	8191	560918	0	0
2024-09-29 23:57:47			0	37988	0	0	0	23002	21580	160847	27157	1058425	46460	108471	0	0	8190	561347	0	0
2024-09-29 23:58:47			0	37989	0	0	0	22992	21590	160875	27412	1058381	46461	108467	0	0	8190	561276	0	0
2024-09-29 23:59:47			0	37980	0	0	0	22981	21570	160899	26913	1058345	46459	108463	0	0	8190	561696	0	0
2024-09-30 00:00:47			0	37972	0	0	0	22986	21590	160823	27159	1058407	46461	108465	0	0	8189	561952	0	0
2024-09-30 00:01:47			0	37967	0	0	0	22997	21570	160903	27284	1058345	46448	108469	0	0	8189	562213	0	0
2024-09-30 00:02:47			0	37947	0	0	0	22992	21570	160991	26857	1058380	46448	108467	0	0	8188	563009	0	0
2024-09-30 00:03:47			0	37957	0	0	0	23002	21570	161031	27341	1058433	46448	108471	0	0	8188	562611	0	0
2024-09-30 00:04:47			0	37955	0	0	0	22986	21580	160951	27173	1058336	46448	108465	0	0	8188	562659	0	0
2024-09-30 00:05:47			0	37958	0	0	0	22986	21570	160991	27274	1058354	46448	108465	0	0	8188	562571	0	0
2024-09-30 00:06:47			0	37947	0	0	0	22989	21570	161083	27319	1058371	46459	108466	0	0	8188	563009	0	0
2024-09-30 00:07:47			0	37936	0	0	0	22986	21570	161095	27163	1058531	46459	108465	0	0	8187	563447	0	0
2024-09-30 00:08:47			0	37934	0	0	0	22984	21570	161139	27370	1058371	46459	108464	0	0	8187	563527	0	0
2024-09-30 00:09:47			0	37934	0	0	0	22976	21570	161223	27071	1058380	46459	108461	0	0	8187	563527	0	0
2024-09-30 00:10:47			0	37935	0	0	0	22963	21570	161195	27358	1058371	46459	108456	0	0	8187	563487	0	0
2024-09-30 00:11:47			0	37937	0	0	0	22968	21570	161151	27067	1058354	46437	108458	0	0	8187	563407	0	0
2024-09-30 00:12:47			0	37916	0	0	0	22953	21560	161027	27220	1058300	46446	108452	0	0	8186	564276	0	0
2024-09-30 00:13:47			0	37925	0	0	0	22942	21560	161163	27194	1058300	46446	108448	0	0	8187	563917	0	0
2024-09-30 00:14:47			0	37919	0	0	0	22924	21550	161155	27126	1058264	46446	108441	0	0	8187	564188	0	0
2024-09-30 00:15:47			0	37908	0	0	0	22929	21550	161135	26880	1058202	46458	108443	0	0	8186	564626	0	0
2024-09-30 00:16:47			0	37911	0	0	0	22924	21540	161299	26906	1058238	46433	108441	0	0	8187	564538	0	0
2024-09-30 00:17:47			0	37902	0	0	0	22922	21540	161223	27208	1058158	46433	108440	0	0	8186	564897	0	0
2024-09-30 00:18:47			0	37885	0	0	0	22916	21540	161271	27225	1058184	46444	108438	0	0	8185	565576	0	0
2024-09-30 00:19:47			0	37903	0	0	0	22924	21530	161407	27350	1058086	46432	108441	0	0	8186	564888	0	0
2024-09-30 00:20:47			0	37888	0	0	0	22937	21530	161287	27235	1058140	46432	108446	0	0	8185	565487	0	0
2024-09-30 00:21:47			0	37884	0	0	0	22942	21530	161291	26878	1058086	46443	108448	0	0	8185	565647	0	0
2024-09-30 00:22:47			0	37862	0	0	0	22942	21520	161415	26687	1058077	46455	108448	0	0	8183	566558	0	0
2024-09-30 00:23:47			0	37873	0	0	0	22942	21510	161367	27036	1058113	46441	108448	0	0	8184	566149	0	0
2024-09-30 00:24:47			0	37877	0	0	0	22942	21520	161331	26918	1058148	46464	108448	0	0	8184	565958	0	0
2024-09-30 00:25:47			0	37869	0	0	0	22927	21520	161439	26811	1058175	46431	108442	0	0	8184	566278	0	0
2024-09-30 00:26:47			0	37872	0	0	0	22937	21530	161379	27003	1058166	46465	108446	0	0	8184	566126	0	0
2024-09-30 00:27:47			0	37859	0	0	0	22935	21520	161479	26908	1058122	46454	108445	0	0	8183	566677	0	0
2024-09-30 00:28:47			0	37856	0	0	0	22935	21510	161535	27190	1058113	46453	108445	0	0	8183	566829	0	0
2024-09-30 00:29:47			0	37847	0	0	0	22932	21510	161371	27209	1058104	46463	108444	0	0	8182	567189	0	0
2024-09-30 00:30:47			0	37839	0	0	0	22935	21520	161455	27046	1058095	46464	108445	0	0	8182	567477	0	0
2024-09-30 00:31:47			0	37849	0	0	0	22932	21510	161403	26859	1058104	46441	108444	0	0	8183	567109	0	0
2024-09-30 00:32:47			0	37844	0	0	0	22922	21510	161447	27286	1058060	46441	108440	0	0	8182	567309	0	0
2024-09-30 00:33:47			0	37848	0	0	0	22916	21510	161499	26916	1058051	46453	108438	0	0	8183	567149	0	0
2024-09-30 00:34:47			0	37826	0	0	0	22922	21510	161539	26956	1058131	46453	108440	0	0	8181	568030	0	0
2024-09-30 00:35:47			0	37831	0	0	0	22922	21500	161583	27076	1058068	46441	108440	0	0	8182	567861	0	0
2024-09-30 00:36:47			0	37811	0	0	0	22922	21510	161555	26861	1058104	46453	108440	0	0	8181	568630	0	0
2024-09-30 00:37:47			0	37819	0	0	0	22914	21500	161691	27114	1058068	46441	108437	0	0	8181	568341	0	0
2024-09-30 00:38:47			0	37795	0	0	0	22914	21510	161623	27274	1058024	46463	108437	0	0	8180	569272	0	0
2024-09-30 00:39:47			0	37803	0	0	0	22919	21510	161647	26937	1058104	46453	108439	0	0	8180	568951	0	0
2024-09-30 00:40:47			0	37800	0	0	0	22896	21500	161651	27123	1058015	46441	108430	0	0	8180	569103	0	0
2024-09-30 00:41:47			0	37799	0	0	0	22888	21490	161591	27092	1058024	46417	108427	0	0	8180	569175	0	0
2024-09-30 00:42:47			0	37788	0	0	0	22898	21490	161679	27098	1058024	46439	108431	0	0	8179	569616	0	0
2024-09-30 00:43:47			0	37796	0	0	0	22906	21500	161639	27159	1057935	46453	108434	0	0	8180	569263	0	0
2024-09-30 00:44:47			0	37788	0	0	0	22896	21480	161755	27180	1057899	46451	108430	0	0	8179	569648	0	0
2024-09-30 00:45:47			0	37784	0	0	0	22890	21500	161595	27384	1058033	46440	108428	0	0	8179	569745	0	0
2024-09-30 00:46:47			0	37772	0	0	0	22888	21480	161715	26901	1057926	46428	108427	0	0	8179	570290	0	0
2024-09-30 00:47:47			0	37781	0	0	0	22877	21490	161799	27005	1057935	46439	108423	0	0	8179	569897	0	0
2024-09-30 00:48:47			0	37774	0	0	0	22880	21480	161767	27168	1057979	46451	108424	0	0	8179	570210	0	0
2024-09-30 00:49:47			0	37766	0	0	0	22872	21480	161863	27170	1057953	46451	108421	0	0	8179	570531	0	0
2024-09-30 00:50:47			0	37764	0	0	0	22867	21470	161891	27201	1057855	46437	108419	0	0	8179	570643	0	0
2024-09-30 00:51:47			0	37740	0	0	0	22880	21460	161835	26899	1057863	46448	108424	0	0	8177	571639	0	0
2024-09-30 00:52:47			0	37758	0	0	0	22877	21470	161747	27008	1057899	46436	108423	0	0	8178	570884	0	0
2024-09-30 00:53:47			0	37747	0	0	0	22875	21470	161887	27168	1057855	46449	108422	0	0	8177	571326	0	0
2024-09-30 00:54:47			0	37756	0	0	0	22888	21480	161867	26871	1057864	46438	108427	0	0	8178	570932	0	0
2024-09-30 00:55:47			0	37768	0	0	0	22870	21460	161843	27287	1057890	46425	108420	0	0	8179	570514	0	0
2024-09-30 00:56:47			0	37744	0	0	0	22890	21460	161995	27081	1057890	46436	108428	0	0	8177	571478	0	0
2024-09-30 00:57:47			0	37730	0	0	0	22875	21460	162011	27055	1057881	46425	108422	0	0	8176	572041	0	0
2024-09-30 00:58:47			0	37735	0	0	0	22870	21470	162019	27012	1057793	46448	108420	0	0	8177	571808	0	0
2024-09-30 00:59:47			0	37729	0	0	0	22867	21450	161991	27232	1057845	46447	108419	0	0	8176	572113	0	0
2024-09-30 01:00:47			0	37731	0	0	0	22851	21470	161923	27066	1057801	46426	108413	0	0	8177	571969	0	0
2024-09-30 01:01:47			0	37751	0	0	0	22844	21460	161911	27145	1057828	46436	108410	0	0	8178	571197	0	0
2024-09-30 01:02:47			0	37750	0	0	0	22844	21450	161895	26987	1057730	46423	108410	0	0	8178	571269	0	0
2024-09-30 01:03:47			0	37767	0	0	0	22849	21460	161871	27234	1057775	46425	108412	0	0	8179	570554	0	0
2024-09-30 01:04:47			0	37781	0	0	0	22846	21420	161887	26811	1057712	46421	108411	0	0	8180	570119	0	0
2024-09-30 01:05:47			0	37780	0	0	0	22854	21430	161839	27149	1057730	46422	108414	0	0	8179	570127	0	0
2024-09-30 01:06:47			0	37805	0	0	0	22844	21430	161667	26894	1057756	46433	108410	0	0	8181	569124	0	0
2024-09-30 01:07:47			0	37804	0	0	0	22838	21450	161739	26765	1057676	46445	108408	0	0	8181	569101	0	0
2024-09-30 01:08:47			0	37791	0	0	0	22833	21430	161691	26814	1057703	46433	108406	0	0	8180	569686	0	0
2024-09-30 01:09:47			0	37805	0	0	0	22838	21440	161787	26753	1057765	46423	108408	0	0	8181	569092	0	0
2024-09-30 01:10:47			0	37803	0	0	0	22846	21430	161787	27000	1057730	46444	108411	0	0	8181	569204	0	0
2024-09-30 01:11:47			0	37812	0	0	0	22862	21430	161603	26741	1057667	46455	108417	0	0	8181	568843	0	0
2024-09-30 01:12:47			0	37830	0	0	0	22864	21430	161599	27092	1057730	46444	108418	0	0	8182	568122	0	0
2024-09-30 01:13:47			0	37834	0	0	0	22854	21420	161615	27131	1057738	46455	108414	0	0	8183	567993	0	0
2024-09-30 01:14:47			0	37850	0	0	0	22854	21430	161543	27116	1057676	46444	108414	0	0	8184	567321	0	0
2024-09-30 01:15:47			0	37871	0	0	0	22844	21430	161439	27126	1057783	46456	108410	0	0	8185	566481	0	0
2024-09-30 01:16:47			0	37870	0	0	0	22849	21430	161503	27239	1057694	46432	108412	0	0	8185	566521	0	0
2024-09-30 01:17:47			0	37874	0	0	0	22893	21430	161451	26885	1057667	46432	108429	0	0	8184	566361	0	0
2024-09-30 01:18:47			0	37922	0	0	0	22890	21430	161255	26821	1057783	46456	108428	0	0	8187	564444	0	0
2024-09-30 01:19:47			0	37952	0	0	0	22890	21430	160983	26890	1057774	46465	108428	0	0	8189	563248	0	0
2024-09-30 01:20:47			0	37997	0	0	0	22890	21440	160895	27263	1057801	46445	108428	0	0	8192	561426	0	0
2024-09-30 01:21:47			0	38028	0	0	0	22890	21440	160728	26868	1057818	46457	108428	0	0	8193	560195	0	0
2024-09-30 01:22:47			0	38046	0	0	0	22890	21450	160692	27367	1057810	46434	108428	0	0	8195	559449	0	0
2024-09-30 01:23:47			0	38060	0	0	0	22893	21440	160564	27083	1057854	46434	108429	0	0	8195	558925	0	0
2024-09-30 01:24:47			0	38086	0	0	0	22916	21460	160512	27048	1057890	46458	108438	0	0	8197	557833	0	0
2024-09-30 01:25:47			0	38091	0	0	0	22909	21440	160512	27150	1057907	46457	108435	0	0	8197	557697	0	0
2024-09-30 01:26:47			0	38095	0	0	0	22903	21470	160492	27180	1057926	46458	108433	0	0	8197	557446	0	0
2024-09-30 01:27:47			0	38135	0	0	0	22929	21470	160524	27000	1057961	46449	108443	0	0	8199	555864	0	0
2024-09-30 01:28:47			0	38123	0	0	0	22919	21470	160432	27291	1057979	46448	108439	0	0	8199	556338	0	0
2024-09-30 01:29:47			0	38133	0	0	0	22911	21470	160424	27062	1057961	46459	108436	0	0	8199	555943	0	0
2024-09-30 01:30:47			0	38136	0	0	0	22906	21460	160384	26977	1057917	46425	108434	0	0	8200	555855	0	0
2024-09-30 01:31:47			0	38141	0	0	0	22927	21470	160208	27232	1057952	46448	108442	0	0	8200	555627	0	0
2024-09-30 01:32:47			0	38165	0	0	0	22922	21480	160192	26918	1058006	46461	108440	0	0	8201	554649	0	0
2024-09-30 01:33:47			0	38191	0	0	0	22935	21470	160160	26906	1057961	46449	108445	0	0	8202	553654	0	0
2024-09-30 01:34:47			0	38188	0	0	0	22919	21480	160200	26790	1057997	46450	108439	0	0	8203	553742	0	0
2024-09-30 01:35:47			0	38199	0	0	0	22914	21490	160092	27123	1058015	46439	108437	0	0	8203	553278	0	0
2024-09-30 01:36:47			0	38211	0	0	0	22924	21480	160048	26986	1057953	46451	108441	0	0	8204	552836	0	0
2024-09-30 01:37:47			0	38210	0	0	0	22914	21490	159972	27069	1058015	46439	108437	0	0	8204	552845	0	0
2024-09-30 01:38:47			0	38208	0	0	0	22919	21490	160068	27308	1058077	46439	108439	0	0	8204	552923	0	0
2024-09-30 01:39:47			0	38240	0	0	0	22922	21480	159980	27312	1058006	46439	108440	0	0	8206	551695	0	0
2024-09-30 01:40:47			0	38215	0	0	0	22919	21500	159984	27301	1058042	46463	108439	0	0	8204	552617	0	0
2024-09-30 01:41:47			0	38222	0	0	0	22911	21480	160028	27248	1058006	46439	108436	0	0	8205	552403	0	0
2024-09-30 01:42:47			0	38227	0	0	0	22909	21490	160028	27066	1058015	46439	108435	0	0	8205	552176	0	0
2024-09-30 01:43:47			0	38211	0	0	0	22919	21480	160084	27170	1058006	46451	108439	0	0	8204	552836	0	0
2024-09-30 01:44:47			0	38211	0	0	0	22906	21490	159968	26785	1058041	46439	108434	0	0	8204	552805	0	0
2024-09-30 01:45:47			0	38206	0	0	0	22893	21480	160088	27256	1057997	46438	108429	0	0	8204	553033	0	0
2024-09-30 01:46:47			0	38217	0	0	0	22888	21480	160072	27130	1057953	46439	108427	0	0	8205	552600	0	0
2024-09-30 01:47:47			0	38211	0	0	0	22888	21480	160124	26774	1057970	46450	108427	0	0	8204	552836	0	0
2024-09-30 01:48:47			0	38199	0	0	0	22896	21480	160124	26741	1057926	46428	108430	0	0	8204	553309	0	0
2024-09-30 01:49:47			0	38191	0	0	0	22898	21480	160060	26847	1058006	46451	108431	0	0	8203	553624	0	0
2024-09-30 01:50:47			0	38173	0	0	0	22914	21480	160236	27027	1057899	46451	108437	0	0	8202	554333	0	0
2024-09-30 01:51:47			0	38187	0	0	0	22911	21490	160172	27105	1058024	46439	108436	0	0	8203	553751	0	0
2024-09-30 01:52:47			0	38167	0	0	0	22901	21480	160112	27036	1058006	46451	108432	0	0	8202	554570	0	0
2024-09-30 01:53:47			0	38178	0	0	0	22906	21490	160088	27225	1057962	46439	108434	0	0	8202	554105	0	0
2024-09-30 01:54:47			0	38181	0	0	0	22898	21490	160064	26989	1057970	46451	108431	0	0	8203	553987	0	0
2024-09-30 01:55:47			0	38156	0	0	0	22922	21490	160276	27131	1057962	46439	108440	0	0	8201	554973	0	0
2024-09-30 01:56:47			0	38176	0	0	0	22909	21490	160192	27175	1057962	46451	108435	0	0	8202	554184	0	0
2024-09-30 01:57:47			0	38167	0	0	0	22901	21490	160172	26767	1057917	46451	108432	0	0	8202	554539	0	0
2024-09-30 01:58:47			0	38180	0	0	0	22911	21480	160092	26556	1057944	46450	108436	0	0	8202	554057	0	0
2024-09-30 01:59:47			0	38192	0	0	0	22896	21490	160200	27313	1057997	46451	108430	0	0	8203	553554	0	0
2024-09-30 02:00:47			0	38188	0	0	0	22896	21490	160160	27331	1057935	46451	108430	0	0	8203	553711	0	0
2024-09-30 02:01:47			0	38199	0	0	0	22885	21480	160072	27182	1057864	46427	108426	0	0	8204	553309	0	0
2024-09-30 02:02:47			0	38186	0	0	0	22890	21470	160204	27062	1057908	46449	108428	0	0	8203	553852	0	0
2024-09-30 02:03:47			0	38190	0	0	0	22909	21480	160096	27275	1057944	46438	108435	0	0	8203	553663	0	0
2024-09-30 02:04:47			0	38201	0	0	0	22916	21480	160076	27410	1057970	46450	108438	0	0	8203	553230	0	0
2024-09-30 02:05:47			0	38193	0	0	0	22903	21480	160016	27168	1057970	46450	108433	0	0	8203	553545	0	0
2024-09-30 02:06:47			0	38189	0	0	0	22898	21480	160128	27196	1057890	46450	108431	0	0	8203	553703	0	0
2024-09-30 02:07:47			0	38206	0	0	0	22906	21490	160116	27218	1057962	46439	108434	0	0	8204	553002	0	0
2024-09-30 02:08:47			0	38200	0	0	0	22906	21480	160116	27204	1057944	46450	108434	0	0	8203	553269	0	0
2024-09-30 02:09:47			0	38201	0	0	0	22906	21480	159984	27291	1057979	46439	108434	0	0	8204	553230	0	0
2024-09-30 02:10:47			0	38190	0	0	0	22896	21490	160020	27249	1057962	46451	108430	0	0	8203	553632	0	0
2024-09-30 02:11:47			0	38206	0	0	0	22914	21480	160100	27171	1057944	46450	108437	0	0	8204	553033	0	0
2024-09-30 02:12:47			0	38201	0	0	0	22919	21480	160096	27031	1057944	46450	108439	0	0	8203	553230	0	0
2024-09-30 02:13:47			0	38191	0	0	0	22903	21480	160064	27057	1057979	46451	108433	0	0	8203	553624	0	0
2024-09-30 02:14:47			0	38205	0	0	0	22914	21480	160020	27326	1058033	46451	108437	0	0	8204	553072	0	0
2024-09-30 02:15:47			0	38208	0	0	0	22906	21480	160008	26953	1057979	46428	108434	0	0	8204	552954	0	0
2024-09-30 02:16:47			0	38194	0	0	0	22911	21480	160068	27055	1057979	46439	108436	0	0	8203	553506	0	0
2024-09-30 02:17:47			0	38198	0	0	0	22909	21480	160088	26798	1058024	46450	108435	0	0	8203	553348	0	0
2024-09-30 02:18:47			0	38177	0	0	0	22901	21480	160060	26955	1057953	46439	108432	0	0	8202	554176	0	0
2024-09-30 02:19:47			0	38174	0	0	0	22903	21480	160152	27313	1057917	46438	108433	0	0	8202	554294	0	0
2024-09-30 02:20:47			0	38167	0	0	0	22896	21480	160112	26850	1057926	46439	108430	0	0	8202	554570	0	0
2024-09-30 02:21:47			0	38186	0	0	0	22896	21470	160124	27307	1057846	46425	108430	0	0	8203	553852	0	0
2024-09-30 02:22:47			0	38186	0	0	0	22903	21480	160092	27239	1057944	46438	108433	0	0	8203	553821	0	0
2024-09-30 02:23:47			0	38173	0	0	0	22890	21470	160128	27249	1057952	46436	108428	0	0	8202	554364	0	0
2024-09-30 02:24:47			0	38179	0	0	0	22896	21480	160216	26989	1057917	46438	108430	0	0	8202	554097	0	0
2024-09-30 02:25:47			0	38166	0	0	0	22890	21480	160232	26764	1057970	46450	108428	0	0	8202	554609	0	0
2024-09-30 02:26:47			0	38183	0	0	0	22896	21470	160232	27293	1057988	46449	108430	0	0	8203	553970	0	0
2024-09-30 02:27:47			0	38170	0	0	0	22883	21480	160220	27048	1057944	46438	108425	0	0	8202	554452	0	0
2024-09-30 02:28:47			0	38173	0	0	0	22893	21470	160348	27371	1057926	46448	108429	0	0	8202	554364	0	0
2024-09-30 02:29:47			0	38169	0	0	0	22877	21470	160336	27114	1057872	46436	108423	0	0	8202	554522	0	0
2024-09-30 02:30:47			0	38149	0	0	0	22883	21480	160344	27119	1057917	46450	108425	0	0	8201	555280	0	0
2024-09-30 02:31:47			0	38160	0	0	0	22877	21470	160240	26906	1057935	46449	108423	0	0	8202	554877	0	0
2024-09-30 02:32:47			0	38154	0	0	0	22883	21470	160284	27067	1057908	46459	108425	0	0	8201	555114	0	0
2024-09-30 02:33:47			0	38147	0	0	0	22877	21470	160340	26875	1057908	46437	108423	0	0	8201	555390	0	0
2024-09-30 02:34:47			0	38153	0	0	0	22880	21470	160268	27194	1057872	46436	108424	0	0	8201	555153	0	0
2024-09-30 02:35:47			0	38138	0	0	0	22888	21460	160280	26713	1057970	46448	108427	0	0	8200	555777	0	0
2024-09-30 02:36:47			0	38137	0	0	0	22888	21460	160280	27066	1057890	46436	108427	0	0	8200	555816	0	0
2024-09-30 02:37:47			0	38141	0	0	0	22885	21460	160292	27098	1057863	46425	108426	0	0	8200	555658	0	0
2024-09-30 02:38:47			0	38152	0	0	0	22893	21470	160336	27140	1057855	46459	108429	0	0	8201	555193	0	0
2024-09-30 02:39:47			0	38154	0	0	0	22896	21460	160352	26608	1057890	46448	108430	0	0	8201	555145	0	0
2024-09-30 02:40:47			0	38150	0	0	0	22872	21460	160268	27204	1057863	46425	108421	0	0	8201	555303	0	0
2024-09-30 02:41:47			0	38150	0	0	0	22875	21450	160332	27055	1057863	46445	108422	0	0	8201	555333	0	0
2024-09-30 02:42:47			0	38143	0	0	0	22888	21470	160348	27183	1057908	46449	108427	0	0	8200	555548	0	0
2024-09-30 02:43:47			0	38151	0	0	0	22888	21460	160380	27126	1057917	46415	108427	0	0	8201	555263	0	0
2024-09-30 02:44:47			0	38143	0	0	0	22877	21460	160360	27100	1057855	46458	108423	0	0	8201	555579	0	0
2024-09-30 02:45:47			0	38151	0	0	0	22877	21470	160416	26850	1057908	46437	108423	0	0	8201	555232	0	0
2024-09-30 02:46:47			0	38147	0	0	0	22872	21450	160424	26821	1057792	46447	108421	0	0	8201	555452	0	0
2024-09-30 02:47:47			0	38154	0	0	0	22867	21460	160384	26956	1057801	46436	108419	0	0	8201	555145	0	0
2024-09-30 02:48:47			0	38150	0	0	0	22870	21460	160396	27124	1057863	46448	108420	0	0	8201	555303	0	0
2024-09-30 02:49:47			0	38134	0	0	0	22875	21460	160364	27079	1057908	46436	108422	0	0	8200	555935	0	0
2024-09-30 02:50:47			0	38140	0	0	0	22872	21460	160456	26928	1057828	46436	108421	0	0	8200	555698	0	0
2024-09-30 02:51:47			0	38151	0	0	0	22883	21460	160428	26994	1057881	46448	108425	0	0	8201	555263	0	0
2024-09-30 02:52:47			0	38134	0	0	0	22862	21460	160464	27071	1057917	46436	108417	0	0	8200	555935	0	0
2024-09-30 02:53:47			0	38151	0	0	0	22849	21450	160344	26686	1057836	46434	108412	0	0	8201	555294	0	0
2024-09-30 02:54:47			0	38135	0	0	0	22851	21450	160428	26734	1057836	46423	108413	0	0	8200	555926	0	0
2024-09-30 02:55:47			0	38141	0	0	0	22838	21450	160428	26991	1057836	46434	108408	0	0	8201	555689	0	0
2024-09-30 02:56:47			0	38127	0	0	0	22841	21440	160332	26708	1057738	46445	108409	0	0	8200	556273	0	0
2024-09-30 02:57:47			0	38140	0	0	0	22841	21440	160496	27039	1057738	46434	108409	0	0	8201	555759	0	0
2024-09-30 02:58:47			0	38132	0	0	0	22828	21440	160376	27013	1057738	46434	108404	0	0	8201	556075	0	0
2024-09-30 02:59:47			0	38126	0	0	0	22823	21430	160536	27052	1057721	46444	108402	0	0	8200	556343	0	0
2024-09-30 03:00:47			0	38105	0	0	0	22812	21430	160468	26550	1057703	46444	108398	0	0	8199	557174	0	0
2024-09-30 03:01:47			0	38104	0	0	0	22807	21430	160508	26908	1057614	46432	108396	0	0	8199	557213	0	0
2024-09-30 03:02:47			0	38086	0	0	0	22810	21420	160656	27156	1057685	46432	108397	0	0	8198	557957	0	0
2024-09-30 03:03:47			0	38087	0	0	0	22815	21430	160588	27190	1057694	46432	108399	0	0	8198	557886	0	0
2024-09-30 03:04:47			0	38079	0	0	0	22815	21420	160644	26913	1057632	46432	108399	0	0	8198	558234	0	0
2024-09-30 03:05:47			0	38066	0	0	0	22815	21400	160716	26772	1057596	46429	108399	0	0	8197	558811	0	0
2024-09-30 03:06:47			0	38059	0	0	0	22807	21400	160704	27048	1057596	46418	108396	0	0	8197	559089	0	0
2024-09-30 03:07:47			0	38068	0	0	0	22820	21400	160740	26951	1057578	46430	108401	0	0	8197	558732	0	0
2024-09-30 03:08:47			0	38065	0	0	0	22815	21400	160668	26823	1057623	46429	108399	0	0	8197	558851	0	0
2024-09-30 03:09:47			0	38053	0	0	0	22818	21390	160804	26802	1057587	46440	108400	0	0	8196	559358	0	0
2024-09-30 03:10:47			0	38058	0	0	0	22818	21390	160940	26889	1057578	46440	108400	0	0	8196	559160	0	0
2024-09-30 03:11:47			0	38040	0	0	0	22794	21400	160836	26674	1057623	46440	108391	0	0	8196	559843	0	0
2024-09-30 03:12:47			0	38035	0	0	0	22794	21400	160932	26745	1057543	46440	108391	0	0	8195	560041	0	0
2024-09-30 03:13:47			0	38006	0	0	0	22802	21390	160923	26909	1057525	46429	108394	0	0	8193	561224	0	0
2024-09-30 03:14:47			0	37996	0	0	0	22799	21390	160931	26842	1057507	46408	108393	0	0	8193	561622	0	0
2024-09-30 03:15:47			0	37984	0	0	0	22812	21390	161003	27001	1057507	46429	108398	0	0	8192	562099	0	0
2024-09-30 03:16:47			0	37995	0	0	0	22799	21390	161127	27071	1057525	46440	108393	0	0	8193	561662	0	0
2024-09-30 03:17:47			0	37977	0	0	0	22792	21380	161107	27034	1057516	46428	108390	0	0	8192	562409	0	0
2024-09-30 03:18:47			0	37959	0	0	0	22792	21380	161211	26915	1057542	46428	108390	0	0	8191	563126	0	0
2024-09-30 03:19:47			0	37951	0	0	0	22792	21380	161275	26805	1057507	46427	108390	0	0	8190	563445	0	0
2024-09-30 03:20:47			0	37945	0	0	0	22779	21370	161191	27007	1057471	46427	108385	0	0	8190	563715	0	0
2024-09-30 03:21:47			0	37942	0	0	0	22789	21370	161267	26854	1057445	46438	108389	0	0	8190	563835	0	0
2024-09-30 03:22:47			0	37941	0	0	0	22784	21370	161339	27164	1057471	46427	108387	0	0	8190	563875	0	0
2024-09-30 03:23:47			0	37937	0	0	0	22792	21370	161339	26958	1057489	46438	108390	0	0	8189	564034	0	0
2024-09-30 03:24:47			0	37933	0	0	0	22802	21380	161371	26807	1057454	46427	108394	0	0	8189	564162	0	0
2024-09-30 03:25:47			0	37927	0	0	0	22789	21380	161483	26946	1057480	46427	108389	0	0	8189	564402	0	0
2024-09-30 03:26:47			0	37913	0	0	0	22789	21370	161391	26838	1057462	46450	108389	0	0	8188	564992	0	0
2024-09-30 03:27:47			0	37906	0	0	0	22794	21370	161367	27095	1057418	46427	108391	0	0	8188	565271	0	0
2024-09-30 03:28:47			0	37912	0	0	0	22774	21370	161351	26748	1057418	46427	108383	0	0	8188	565032	0	0
2024-09-30 03:29:47			0	37903	0	0	0	22776	21360	161407	26986	1057480	46426	108384	0	0	8188	565422	0	0
2024-09-30 03:30:47			0	37906	0	0	0	22771	21370	161439	27069	1057462	46427	108382	0	0	8188	565271	0	0
2024-09-30 03:31:47			0	37903	0	0	0	22779	21350	161527	27135	1057435	46404	108385	0	0	8188	565454	0	0
2024-09-30 03:32:47			0	37903	0	0	0	22779	21360	161475	27203	1057391	46425	108385	0	0	8188	565422	0	0
2024-09-30 03:33:47			0	37905	0	0	0	22784	21360	161475	27255	1057365	46436	108387	0	0	8188	565343	0	0
2024-09-30 03:34:47			0	37902	0	0	0	22789	21360	161451	26830	1057427	46426	108389	0	0	8187	565462	0	0
2024-09-30 03:35:47			0	37918	0	0	0	22786	21360	161427	27019	1057391	46425	108388	0	0	8188	564824	0	0
2024-09-30 03:36:47			0	37898	0	0	0	22766	21360	161407	26765	1057444	46436	108380	0	0	8188	565622	0	0
2024-09-30 03:37:47			0	37908	0	0	0	22768	21350	161479	26719	1057409	46425	108381	0	0	8188	565254	0	0
2024-09-30 03:38:47			0	37888	0	0	0	22779	21360	161375	27078	1057373	46426	108385	0	0	8187	566022	0	0
2024-09-30 03:39:47			0	37877	0	0	0	22792	21360	161435	27045	1057444	46436	108390	0	0	8186	566462	0	0
2024-09-30 03:40:47			0	37890	0	0	0	22794	21360	161499	26687	1057400	46426	108391	0	0	8187	565942	0	0
2024-09-30 03:41:47			0	37890	0	0	0	22797	21360	161547	26745	1057418	46425	108392	0	0	8187	565942	0	0
2024-09-30 03:42:47			0	37879	0	0	0	22797	21360	161587	26837	1057400	46449	108392	0	0	8186	566381	0	0
2024-09-30 03:43:47			0	37892	0	0	0	22805	21370	161535	27123	1057462	46438	108395	0	0	8187	565831	0	0
2024-09-30 03:44:47			0	37880	0	0	0	22805	21360	161451	27072	1057418	46436	108395	0	0	8186	566341	0	0
2024-09-30 03:45:47			0	37894	0	0	0	22794	21360	161411	26840	1057480	46437	108391	0	0	8187	565782	0	0
2024-09-30 03:46:47			0	37896	0	0	0	22792	21360	161411	27334	1057533	46449	108390	0	0	8187	565702	0	0
2024-09-30 03:47:47			0	37896	0	0	0	22792	21360	161479	27053	1057471	46415	108390	0	0	8187	565702	0	0
2024-09-30 03:48:47			0	37889	0	0	0	22797	21370	161295	26748	1057498	46427	108392	0	0	8187	565950	0	0
2024-09-30 03:49:47			0	37906	0	0	0	22797	21360	161411	27223	1057507	46437	108392	0	0	8188	565303	0	0
2024-09-30 03:50:47			0	37911	0	0	0	22805	21370	161375	27274	1057445	46427	108395	0	0	8188	565072	0	0
2024-09-30 03:51:47			0	37920	0	0	0	22815	21370	161371	27057	1057516	46438	108399	0	0	8188	564712	0	0
2024-09-30 03:52:47			0	37898	0	0	0	22823	21360	161379	27222	1057507	46449	108402	0	0	8187	565622	0	0
2024-09-30 03:53:47			0	37905	0	0	0	22810	21360	161427	27066	1057533	46449	108397	0	0	8187	565343	0	0
2024-09-30 03:54:47			0	37907	0	0	0	22831	21370	161359	26771	1057595	46438	108405	0	0	8187	565231	0	0
2024-09-30 03:55:47			0	37939	0	0	0	22812	21380	161351	26712	1057480	46427	108398	0	0	8189	563923	0	0
2024-09-30 03:56:47			0	37920	0	0	0	22810	21380	161343	26979	1057542	46428	108397	0	0	8188	564681	0	0
2024-09-30 03:57:47			0	37921	0	0	0	22812	21380	161251	26759	1057516	46439	108398	0	0	8188	564641	0	0
2024-09-30 03:58:47			0	37934	0	0	0	22831	21380	161275	26705	1057560	46438	108405	0	0	8189	564123	0	0
2024-09-30 03:59:47			0	37931	0	0	0	22820	21390	161331	26925	1057498	46429	108401	0	0	8189	564211	0	0
2024-09-30 04:00:47			0	37944	0	0	0	22823	21390	161327	26939	1057525	46452	108402	0	0	8189	563692	0	0
2024-09-30 04:01:47			0	37934	0	0	0	22818	21380	161303	27118	1057569	46428	108400	0	0	8189	564123	0	0
2024-09-30 04:02:47			0	37935	0	0	0	22807	21380	161379	27131	1057596	46428	108396	0	0	8189	564083	0	0
2024-09-30 04:03:47			0	37942	0	0	0	22807	21390	161367	26630	1057534	46429	108396	0	0	8190	563772	0	0
2024-09-30 04:04:47			0	37935	0	0	0	22794	21380	161323	27182	1057507	46427	108391	0	0	8189	564083	0	0
2024-09-30 04:05:47			0	37934	0	0	0	22807	21380	161227	26850	1057507	46416	108396	0	0	8189	564123	0	0
2024-09-30 04:06:47			0	37915	0	0	0	22807	21380	161279	27072	1057542	46428	108396	0	0	8188	564880	0	0
2024-09-30 04:07:47			0	37953	0	0	0	22802	21390	161275	27118	1057578	46429	108394	0	0	8190	563334	0	0
2024-09-30 04:08:47			0	37930	0	0	0	22805	21390	161363	27152	1057605	46440	108395	0	0	8189	564251	0	0
2024-09-30 04:09:47			0	37942	0	0	0	22786	21370	161299	27144	1057498	46427	108388	0	0	8190	563835	0	0
2024-09-30 04:10:47			0	37930	0	0	0	22805	21380	161231	27163	1057507	46438	108395	0	0	8189	564282	0	0
2024-09-30 04:11:47			0	37916	0	0	0	22789	21380	161347	27008	1057507	46416	108389	0	0	8188	564841	0	0
2024-09-30 04:12:47			0	37943	0	0	0	22802	21370	161315	27201	1057489	46416	108394	0	0	8190	563795	0	0
2024-09-30 04:13:47			0	37933	0	0	0	22802	21370	161307	26981	1057462	46438	108394	0	0	8189	564194	0	0
2024-09-30 04:14:47			0	37923	0	0	0	22807	21380	161239	26767	1057507	46416	108396	0	0	8188	564561	0	0
2024-09-30 04:15:47			0	37930	0	0	0	22812	21370	161307	27033	1057462	46438	108398	0	0	8189	564313	0	0
2024-09-30 04:16:47			0	37914	0	0	0	22802	21380	161199	26993	1057533	46438	108394	0	0	8188	564920	0	0
2024-09-30 04:17:47			0	37922	0	0	0	22810	21370	161327	26726	1057489	46427	108397	0	0	8188	564633	0	0
2024-09-30 04:18:47			0	37933	0	0	0	22807	21370	161335	26859	1057498	46427	108396	0	0	8189	564194	0	0
2024-09-30 04:19:47			0	37914	0	0	0	22812	21380	161279	26961	1057507	46427	108398	0	0	8188	564920	0	0
2024-09-30 04:20:47			0	37951	0	0	0	22812	21380	161295	26785	1057454	46427	108398	0	0	8190	563445	0	0
2024-09-30 04:21:47			0	37940	0	0	0	22831	21370	161155	26927	1057551	46438	108405	0	0	8189	563915	0	0
2024-09-30 04:22:47			0	37937	0	0	0	22807	21370	161195	26968	1057525	46438	108396	0	0	8189	564034	0	0
2024-09-30 04:23:47			0	37942	0	0	0	22812	21380	161231	26800	1057569	46428	108398	0	0	8189	563803	0	0
2024-09-30 04:24:47			0	37965	0	0	0	22807	21380	161119	26953	1057560	46438	108396	0	0	8191	562887	0	0
2024-09-30 04:25:47			0	37968	0	0	0	22810	21380	161243	27331	1057533	46427	108397	0	0	8191	562768	0	0
2024-09-30 04:26:47			0	37957	0	0	0	22810	21370	161219	26880	1057551	46416	108397	0	0	8190	563237	0	0
2024-09-30 04:27:47			0	37967	0	0	0	22805	21380	161239	27033	1057569	46439	108395	0	0	8191	562807	0	0
2024-09-30 04:28:47			0	37959	0	0	0	22833	21380	161195	26876	1057533	46427	108406	0	0	8190	563126	0	0
2024-09-30 04:29:47			0	37963	0	0	0	22820	21390	161223	26890	1057631	46440	108401	0	0	8191	562935	0	0
2024-09-30 04:30:47			0	37970	0	0	0	22823	21390	161183	26920	1057605	46452	108402	0	0	8191	562657	0	0
2024-09-30 04:31:47			0	37978	0	0	0	22807	21390	161215	26941	1057551	46440	108396	0	0	8192	562338	0	0
2024-09-30 04:32:47			0	37966	0	0	0	22810	21380	161079	27072	1057569	46428	108397	0	0	8191	562847	0	0
2024-09-30 04:33:47			0	37968	0	0	0	22818	21390	161175	26686	1057560	46452	108400	0	0	8191	562736	0	0
2024-09-30 04:34:47			0	37977	0	0	0	22825	21390	161135	27168	1057498	46429	108403	0	0	8191	562378	0	0
2024-09-30 04:35:47			0	37988	0	0	0	22820	21390	161051	27213	1057551	46440	108401	0	0	8192	561940	0	0
2024-09-30 04:36:47			0	37972	0	0	0	22825	21390	161039	27046	1057534	46429	108403	0	0	8191	562577	0	0
2024-09-30 04:37:47			0	37975	0	0	0	22810	21380	161083	27289	1057533	46438	108397	0	0	8191	562489	0	0
2024-09-30 04:38:47			0	37988	0	0	0	22818	21390	161043	26736	1057534	46429	108400	0	0	8192	561940	0	0
2024-09-30 04:39:47			0	37987	0	0	0	22812	21390	161083	26901	1057578	46429	108398	0	0	8192	561980	0	0
2024-09-30 04:40:47			0	37985	0	0	0	22833	21380	161099	27086	1057533	46427	108406	0	0	8192	562091	0	0
2024-09-30 04:41:47			0	37996	0	0	0	22838	21380	161087	26974	1057542	46451	108408	0	0	8192	561653	0	0
2024-09-30 04:42:47			0	38005	0	0	0	22831	21390	160991	26927	1057578	46429	108405	0	0	8193	561264	0	0
2024-09-30 04:43:47			0	38002	0	0	0	22831	21400	161083	26826	1057605	46441	108405	0	0	8193	561352	0	0
2024-09-30 04:44:47			0	38011	0	0	0	22838	21390	160975	27150	1057534	46452	108408	0	0	8193	561026	0	0
2024-09-30 04:45:47			0	38016	0	0	0	22844	21390	160927	27260	1057605	46440	108410	0	0	8193	560827	0	0
2024-09-30 04:46:47			0	38001	0	0	0	22838	21400	160867	26965	1057596	46462	108408	0	0	8193	561392	0	0
2024-09-30 04:47:47			0	38013	0	0	0	22849	21400	161031	27355	1057623	46440	108412	0	0	8193	560915	0	0
2024-09-30 04:48:47			0	38009	0	0	0	22836	21410	160927	26684	1057667	46431	108407	0	0	8193	561043	0	0
2024-09-30 04:49:47			0	38011	0	0	0	22833	21400	161011	26979	1057676	46429	108406	0	0	8193	560995	0	0
2024-09-30 04:50:47			0	37997	0	0	0	22823	21400	161011	27121	1057658	46441	108402	0	0	8193	561551	0	0
2024-09-30 04:51:47			0	38015	0	0	0	22823	21400	160943	26833	1057658	46441	108402	0	0	8194	560836	0	0
2024-09-30 04:52:47			0	38007	0	0	0	22823	21400	160979	26750	1057569	46429	108402	0	0	8193	561154	0	0
2024-09-30 04:53:47			0	37994	0	0	0	22833	21390	161023	27050	1057587	46440	108406	0	0	8192	561702	0	0
2024-09-30 04:54:47			0	37986	0	0	0	22836	21400	160963	26868	1057596	46440	108407	0	0	8192	561989	0	0
2024-09-30 04:55:47			0	38000	0	0	0	22823	21400	161043	26883	1057605	46441	108402	0	0	8193	561432	0	0
2024-09-30 04:56:47			0	38011	0	0	0	22825	21400	160955	27130	1057543	46418	108403	0	0	8193	560995	0	0
2024-09-30 04:57:47			0	38020	0	0	0	22838	21390	160931	27039	1057614	46452	108408	0	0	8194	560668	0	0
2024-09-30 04:58:47			0	37996	0	0	0	22846	21400	161099	27003	1057596	46429	108411	0	0	8192	561591	0	0
2024-09-30 04:59:47			0	38018	0	0	0	22851	21400	161087	27114	1057623	46452	108413	0	0	8193	560716	0	0
2024-09-30 05:00:47			0	37996	0	0	0	22846	21400	160959	26726	1057658	46430	108411	0	0	8192	561591	0	0
2024-09-30 05:01:47			0	38010	0	0	0	22838	21400	160979	26852	1057702	46440	108408	0	0	8193	561034	0	0
2024-09-30 05:02:47			0	38011	0	0	0	22833	21410	161011	26960	1057720	46443	108406	0	0	8193	560963	0	0
2024-09-30 05:03:47			0	38014	0	0	0	22836	21400	161055	26753	1057685	46453	108407	0	0	8193	560875	0	0
2024-09-30 05:04:47			0	38012	0	0	0	22833	21400	160947	27057	1057676	46440	108406	0	0	8193	560955	0	0
2024-09-30 05:05:47			0	38013	0	0	0	22825	21410	160983	26849	1057640	46443	108403	0	0	8194	560884	0	0
2024-09-30 05:06:47			0	38001	0	0	0	22831	21410	160859	27246	1057614	46443	108405	0	0	8193	561361	0	0
2024-09-30 05:07:47			0	38026	0	0	0	22838	21400	160856	27038	1057658	46441	108408	0	0	8194	560399	0	0
2024-09-30 05:08:47			0	38017	0	0	0	22844	21400	160891	26889	1057685	46430	108410	0	0	8193	560756	0	0
2024-09-30 05:09:47			0	38015	0	0	0	22844	21410	160999	26606	1057667	46443	108410	0	0	8193	560805	0	0
2024-09-30 05:10:47			0	38007	0	0	0	22851	21410	160923	27095	1057694	46431	108413	0	0	8193	561122	0	0
2024-09-30 05:11:47			0	38016	0	0	0	22859	21420	161123	26700	1057676	46432	108416	0	0	8193	560734	0	0
2024-09-30 05:12:47			0	38026	0	0	0	22854	21410	160931	26786	1057694	46431	108414	0	0	8194	560367	0	0
2024-09-30 05:13:47			0	38016	0	0	0	22851	21410	160963	27039	1057694	46443	108413	0	0	8193	560765	0	0
2024-09-30 05:14:47			0	38033	0	0	0	22844	21410	161012	26951	1057694	46443	108410	0	0	8194	560090	0	0
2024-09-30 05:15:47			0	38015	0	0	0	22849	21410	160983	26880	1057720	46443	108412	0	0	8193	560805	0	0
2024-09-30 05:16:47			0	38033	0	0	0	22862	21430	160952	27152	1057774	46432	108417	0	0	8194	560027	0	0
2024-09-30 05:17:47			0	38029	0	0	0	22854	21420	160952	26788	1057676	46432	108414	0	0	8194	560217	0	0
2024-09-30 05:18:47			0	38023	0	0	0	22859	21410	160975	26991	1057694	46443	108416	0	0	8194	560487	0	0
2024-09-30 05:19:47			0	38025	0	0	0	22844	21420	160968	27001	1057712	46444	108410	0	0	8194	560376	0	0
2024-09-30 05:20:47			0	38016	0	0	0	22846	21420	160955	27140	1057729	46444	108411	0	0	8193	560734	0	0
2024-09-30 05:21:47			0	38025	0	0	0	22844	21420	160891	27149	1057703	46421	108410	0	0	8194	560376	0	0
2024-09-30 05:22:47			0	38025	0	0	0	22862	21430	160931	26632	1057694	46432	108417	0	0	8194	560345	0	0
2024-09-30 05:23:47			0	38031	0	0	0	22851	21420	160904	26750	1057738	46444	108413	0	0	8194	560138	0	0
2024-09-30 05:24:47			0	38052	0	0	0	22851	21400	160908	26852	1057738	46430	108413	0	0	8195	559367	0	0
2024-09-30 05:25:47			0	38023	0	0	0	22844	21420	160935	27242	1057756	46444	108410	0	0	8194	560456	0	0
2024-09-30 05:26:47			0	38039	0	0	0	22846	21430	160892	26970	1057774	46444	108411	0	0	8195	559789	0	0
2024-09-30 05:27:47			0	38036	0	0	0	22831	21430	160904	26878	1057801	46432	108405	0	0	8195	559908	0	0
2024-09-30 05:28:47			0	38028	0	0	0	22849	21420	160991	26908	1057756	46444	108412	0	0	8194	560257	0	0
2024-09-30 05:29:47			0	38026	0	0	0	22859	21420	161087	27093	1057738	46432	108416	0	0	8194	560336	0	0
2024-09-30 05:30:47			0	38035	0	0	0	22859	21420	160932	27270	1057729	46432	108416	0	0	8194	559979	0	0
2024-09-30 05:31:47			0	38043	0	0	0	22844	21410	160904	27220	1057747	46443	108410	0	0	8195	559693	0	0
2024-09-30 05:32:47			0	38044	0	0	0	22846	21420	160928	26817	1057729	46432	108411	0	0	8195	559622	0	0
2024-09-30 05:33:47			0	38050	0	0	0	22854	21410	160920	27019	1057774	46431	108414	0	0	8195	559415	0	0
2024-09-30 05:34:47			0	38032	0	0	0	22849	21430	160864	27227	1057774	46432	108412	0	0	8194	560067	0	0
2024-09-30 05:35:47			0	38046	0	0	0	22833	21430	160832	27076	1057774	46421	108406	0	0	8195	559511	0	0
2024-09-30 05:36:47			0	38063	0	0	0	22841	21420	160796	27185	1057685	46432	108409	0	0	8196	558868	0	0
2024-09-30 05:37:47			0	38034	0	0	0	22825	21420	160800	26830	1057712	46444	108403	0	0	8195	560019	0	0
2024-09-30 05:38:47			0	38063	0	0	0	22831	21420	160844	26790	1057712	46421	108405	0	0	8196	558868	0	0
2024-09-30 05:39:47			0	38049	0	0	0	22846	21420	160972	26720	1057685	46444	108411	0	0	8195	559424	0	0
2024-09-30 05:40:47			0	38059	0	0	0	22841	21420	161008	27071	1057738	46444	108409	0	0	8196	559027	0	0
2024-09-30 05:41:47			0	38022	0	0	0	22846	21420	160983	27135	1057738	46432	108411	0	0	8194	560495	0	0
2024-09-30 05:42:47			0	38026	0	0	0	22849	21400	161055	27036	1057711	46441	108412	0	0	8194	560399	0	0
2024-09-30 05:43:47			0	37984	0	0	0	22867	21420	161115	26922	1057729	46455	108419	0	0	8191	562006	0	0
2024-09-30 05:44:47			0	37980	0	0	0	22859	21410	161159	27159	1057747	46454	108416	0	0	8191	562196	0	0
2024-09-30 05:45:47			0	37970	0	0	0	22862	21420	161199	26975	1057703	46444	108417	0	0	8190	562563	0	0
2024-09-30 05:46:47			0	37993	0	0	0	22846	21400	161099	26956	1057685	46430	108411	0	0	8192	561710	0	0
2024-09-30 05:47:47			0	38010	0	0	0	22854	21420	161007	26944	1057738	46421	108414	0	0	8193	560972	0	0
2024-09-30 05:48:47			0	38022	0	0	0	22854	21400	160975	26911	1057738	46430	108414	0	0	8194	560558	0	0
2024-09-30 05:49:47			0	38031	0	0	0	22844	21410	161040	27194	1057694	46443	108410	0	0	8194	560169	0	0
2024-09-30 05:50:47			0	38034	0	0	0	22836	21420	160880	26733	1057756	46444	108407	0	0	8195	560019	0	0
2024-09-30 05:51:47			0	38038	0	0	0	22851	21420	160892	27078	1057703	46432	108413	0	0	8195	559860	0	0
2024-09-30 05:52:47			0	38044	0	0	0	22859	21420	160860	27003	1057783	46444	108416	0	0	8195	559622	0	0
2024-09-30 05:53:47			0	38049	0	0	0	22854	21420	160784	27078	1057756	46444	108414	0	0	8195	559424	0	0
2024-09-30 05:54:47			0	38046	0	0	0	22851	21430	160772	27225	1057721	46432	108413	0	0	8195	559511	0	0
2024-09-30 05:55:47			0	38075	0	0	0	22854	21420	160672	27176	1057756	46432	108414	0	0	8197	558393	0	0
2024-09-30 05:56:47			0	38057	0	0	0	22854	21420	160756	27248	1057703	46444	108414	0	0	8196	559106	0	0
2024-09-30 05:57:47			0	38059	0	0	0	22859	21410	160812	27260	1057720	46431	108416	0	0	8196	559058	0	0
2024-09-30 05:58:47			0	38065	0	0	0	22857	21420	160808	27204	1057738	46444	108415	0	0	8196	558789	0	0
2024-09-30 05:59:47			0	38060	0	0	0	22859	21420	160788	27105	1057729	46444	108416	0	0	8196	558987	0	0
2024-09-30 06:00:47			0	38062	0	0	0	22864	21420	160732	27255	1057765	46444	108418	0	0	8196	558908	0	0
2024-09-30 06:01:47			0	38050	0	0	0	22872	21430	160744	27187	1057836	46433	108421	0	0	8195	559353	0	0
2024-09-30 06:02:47			0	38059	0	0	0	22849	21420	160684	27274	1057783	46421	108412	0	0	8196	559027	0	0
2024-09-30 06:03:47			0	38073	0	0	0	22867	21420	160872	27286	1057738	46432	108419	0	0	8196	558472	0	0
2024-09-30 06:04:47			0	38056	0	0	0	22854	21430	160808	26779	1057774	46421	108414	0	0	8196	559115	0	0
2024-09-30 06:05:47			0	38054	0	0	0	22857	21420	160792	27052	1057738	46444	108415	0	0	8195	559225	0	0
2024-09-30 06:06:47			0	38057	0	0	0	22854	21420	160804	26942	1057738	46432	108414	0	0	8196	559106	0	0
2024-09-30 06:07:47			0	38051	0	0	0	22851	21410	160788	27149	1057720	46431	108413	0	0	8195	559375	0	0
2024-09-30 06:08:47			0	38051	0	0	0	22844	21420	160760	27020	1057792	46432	108410	0	0	8196	559344	0	0
2024-09-30 06:09:47			0	38062	0	0	0	22864	21420	160836	27192	1057712	46444	108418	0	0	8196	558908	0	0
2024-09-30 06:10:47			0	38047	0	0	0	22846	21430	160812	27076	1057774	46444	108411	0	0	8195	559472	0	0
2024-09-30 06:11:47			0	38054	0	0	0	22857	21420	160808	27414	1057818	46444	108415	0	0	8195	559225	0	0
2024-09-30 06:12:47			0	38033	0	0	0	22849	21430	160732	27189	1057774	46455	108412	0	0	8194	560027	0	0
2024-09-30 06:13:47			0	38041	0	0	0	22844	21420	160896	27331	1057738	46421	108410	0	0	8195	559741	0	0
2024-09-30 06:14:47			0	38054	0	0	0	22846	21430	160936	26845	1057703	46444	108411	0	0	8196	559194	0	0
2024-09-30 06:15:47			0	38039	0	0	0	22846	21420	160844	26925	1057729	46421	108411	0	0	8195	559820	0	0
2024-09-30 06:16:47			0	38026	0	0	0	22857	21420	160860	27005	1057765	46432	108415	0	0	8194	560336	0	0
2024-09-30 06:17:47			0	38035	0	0	0	22859	21430	160852	27194	1057774	46432	108416	0	0	8194	559948	0	0
2024-09-30 06:18:47			0	38005	0	0	0	22857	21420	160847	27123	1057729	46444	108415	0	0	8193	561171	0	0
2024-09-30 06:19:47			0	38026	0	0	0	22844	21430	160748	27156	1057756	46444	108410	0	0	8194	560305	0	0
2024-09-30 06:20:47			0	38012	0	0	0	22851	21420	160955	27050	1057765	46444	108413	0	0	8193	560892	0	0
2024-09-30 06:21:47			0	38026	0	0	0	22846	21430	160916	27317	1057783	46444	108411	0	0	8194	560305	0	0
2024-09-30 06:22:47			0	38017	0	0	0	22859	21420	160927	27126	1057765	46432	108416	0	0	8193	560694	0	0
2024-09-30 06:23:47			0	38006	0	0	0	22849	21430	160943	26951	1057809	46433	108412	0	0	8193	561100	0	0
2024-09-30 06:24:47			0	38009	0	0	0	22851	21420	160815	27071	1057756	46432	108413	0	0	8193	561012	0	0
2024-09-30 06:25:47			0	38021	0	0	0	22854	21420	160940	27310	1057712	46432	108414	0	0	8194	560535	0	0
2024-09-30 06:26:47			0	38008	0	0	0	22862	21420	160907	27112	1057792	46421	108417	0	0	8193	561051	0	0
2024-09-30 06:27:47			0	38014	0	0	0	22870	21420	160855	26993	1057738	46432	108420	0	0	8193	560813	0	0
2024-09-30 06:28:47			0	38027	0	0	0	22870	21430	160868	27062	1057801	46444	108420	0	0	8194	560266	0	0
2024-09-30 06:29:47			0	38029	0	0	0	22862	21430	160740	27074	1057747	46432	108417	0	0	8194	560186	0	0
2024-09-30 06:30:47			0	38044	0	0	0	22877	21440	160748	27216	1057845	46434	108423	0	0	8195	559560	0	0
2024-09-30 06:31:47			0	38038	0	0	0	22875	21430	160676	27053	1057809	46433	108422	0	0	8194	559829	0	0
2024-09-30 06:32:47			0	38059	0	0	0	22883	21440	160724	27183	1057845	46445	108425	0	0	8195	558965	0	0
2024-09-30 06:33:47			0	38064	0	0	0	22901	21430	160628	27100	1057809	46456	108432	0	0	8195	558798	0	0
2024-09-30 06:34:47			0	38074	0	0	0	22885	21440	160664	27119	1057827	46445	108426	0	0	8196	558370	0	0
2024-09-30 06:35:47			0	38066	0	0	0	22883	21440	160600	26833	1057898	46445	108425	0	0	8196	558687	0	0
2024-09-30 06:36:47			0	38079	0	0	0	22888	21440	160556	26871	1057907	46457	108427	0	0	8197	558172	0	0
2024-09-30 06:37:47			0	38083	0	0	0	22877	21440	160580	26967	1057872	46445	108423	0	0	8197	558014	0	0
2024-09-30 06:38:47			0	38073	0	0	0	22896	21450	160568	27048	1057916	46457	108430	0	0	8196	558379	0	0
2024-09-30 06:39:47			0	38085	0	0	0	22901	21440	160508	26871	1057925	46434	108432	0	0	8197	557935	0	0
2024-09-30 06:40:47			0	38092	0	0	0	22885	21450	160732	27246	1057890	46457	108426	0	0	8197	557627	0	0
2024-09-30 06:41:47			0	38086	0	0	0	22888	21450	160644	27019	1057916	46445	108427	0	0	8197	557864	0	0
2024-09-30 06:42:47			0	38079	0	0	0	22888	21450	160684	27135	1057890	46445	108427	0	0	8197	558141	0	0
2024-09-30 06:43:47			0	38084	0	0	0	22890	21450	160576	27036	1057978	46447	108428	0	0	8197	557943	0	0
2024-09-30 06:44:47			0	38083	0	0	0	22885	21460	160608	26816	1057908	46458	108426	0	0	8197	557952	0	0
2024-09-30 06:45:47			0	38080	0	0	0	22880	21450	160572	27261	1057978	46424	108424	0	0	8197	558102	0	0
2024-09-30 06:46:47			0	38084	0	0	0	22898	21460	160552	26916	1057961	46448	108431	0	0	8197	557912	0	0
2024-09-30 06:47:47			0	38087	0	0	0	22883	21460	160540	26909	1057961	46448	108425	0	0	8197	557793	0	0
2024-09-30 06:48:47			0	38082	0	0	0	22890	21470	160628	27393	1057952	46436	108428	0	0	8197	557960	0	0
2024-09-30 06:49:47			0	38090	0	0	0	22877	21460	160520	27379	1057970	46448	108423	0	0	8197	557675	0	0
2024-09-30 06:50:47			0	38089	0	0	0	22877	21450	160516	26896	1057978	46435	108423	0	0	8197	557745	0	0
2024-09-30 06:51:47			0	38078	0	0	0	22875	21470	160488	27164	1057952	46448	108422	0	0	8197	558119	0	0
2024-09-30 06:52:47			0	38065	0	0	0	22883	21460	160620	26661	1057890	46425	108425	0	0	8196	558665	0	0
2024-09-30 06:53:47			0	38061	0	0	0	22885	21460	160616	26942	1057943	46448	108426	0	0	8196	558823	0	0
2024-09-30 06:54:47			0	38044	0	0	0	22880	21460	160784	26925	1057917	46436	108424	0	0	8195	559498	0	0
2024-09-30 06:55:47			0	38044	0	0	0	22893	21460	160564	27131	1057917	46436	108429	0	0	8194	559498	0	0
2024-09-30 06:56:47			0	38063	0	0	0	22875	21460	160756	27281	1057935	46448	108422	0	0	8196	558744	0	0
2024-09-30 06:57:47			0	38071	0	0	0	22877	21460	160604	26922	1057935	46436	108423	0	0	8196	558427	0	0
2024-09-30 06:58:47			0	38071	0	0	0	22875	21450	160640	26826	1057899	46447	108422	0	0	8196	558458	0	0
2024-09-30 06:59:47			0	38070	0	0	0	22872	21460	160656	27088	1057961	46436	108421	0	0	8196	558467	0	0
2024-09-30 07:00:47			0	38108	0	0	0	22870	21450	160532	26948	1057863	46445	108420	0	0	8199	556993	0	0
2024-09-30 07:01:47			0	38111	0	0	0	22859	21460	160484	26746	1057855	46425	108416	0	0	8199	556844	0	0
2024-09-30 07:02:47			0	38114	0	0	0	22872	21460	160344	27095	1057855	46448	108421	0	0	8199	556725	0	0
2024-09-30 07:03:47			0	38116	0	0	0	22857	21450	160420	27258	1057899	46424	108415	0	0	8199	556677	0	0
2024-09-30 07:04:47			0	38124	0	0	0	22872	21450	160344	26984	1057845	46414	108421	0	0	8199	556361	0	0
2024-09-30 07:05:47			0	38133	0	0	0	22877	21450	160324	26948	1057863	46445	108423	0	0	8200	556005	0	0
2024-09-30 07:06:47			0	38130	0	0	0	22872	21440	160432	27071	1057854	46445	108421	0	0	8200	556154	0	0
2024-09-30 07:07:47			0	38138	0	0	0	22870	21450	160416	27296	1057890	46445	108420	0	0	8200	555807	0	0
2024-09-30 07:08:47			0	38144	0	0	0	22859	21450	160292	27215	1057872	46447	108416	0	0	8201	555570	0	0
2024-09-30 07:09:47			0	38147	0	0	0	22872	21440	160308	27093	1057881	46445	108421	0	0	8201	555483	0	0
2024-09-30 07:10:47			0	38149	0	0	0	22883	21440	160328	27270	1057854	46445	108425	0	0	8201	555404	0	0
2024-09-30 07:11:47			0	38156	0	0	0	22875	21450	160304	27300	1057845	46435	108422	0	0	8201	555097	0	0
2024-09-30 07:12:47			0	38155	0	0	0	22883	21450	160352	26986	1057970	46445	108425	0	0	8201	555136	0	0
2024-09-30 07:13:47			0	38166	0	0	0	22877	21440	160288	27327	1057872	46434	108423	0	0	8202	554733	0	0
2024-09-30 07:14:47			0	38184	0	0	0	22870	21450	160292	27365	1057925	46458	108420	0	0	8203	553992	0	0
2024-09-30 07:15:47			0	38172	0	0	0	22857	21450	160076	27036	1057890	46445	108415	0	0	8203	554465	0	0
2024-09-30 07:16:47			0	38163	0	0	0	22867	21440	160236	26854	1057881	46445	108419	0	0	8202	554851	0	0
2024-09-30 07:17:47			0	38173	0	0	0	22872	21440	160204	26989	1057881	46445	108421	0	0	8202	554457	0	0
2024-09-30 07:18:47			0	38159	0	0	0	22872	21440	160296	26901	1057854	46434	108421	0	0	8201	555009	0	0
2024-09-30 07:19:47			0	38157	0	0	0	22875	21440	160244	27338	1057774	46445	108422	0	0	8201	555088	0	0
2024-09-30 07:20:47			0	38162	0	0	0	22870	21440	160240	27209	1057881	46434	108420	0	0	8202	554891	0	0
2024-09-30 07:21:47			0	38174	0	0	0	22859	21450	160168	27144	1057836	46434	108416	0	0	8203	554386	0	0
2024-09-30 07:22:47			0	38181	0	0	0	22870	21460	160168	27234	1057908	46448	108420	0	0	8203	554080	0	0
2024-09-30 07:23:47			0	38182	0	0	0	22859	21460	160116	27059	1057908	46436	108416	0	0	8203	554040	0	0
2024-09-30 07:24:47			0	38171	0	0	0	22864	21440	160192	27109	1057934	46434	108418	0	0	8202	554535	0	0
2024-09-30 07:25:47			0	38184	0	0	0	22872	21450	160180	27307	1057810	46434	108421	0	0	8203	553992	0	0
2024-09-30 07:26:47			0	38166	0	0	0	22875	21440	160204	27133	1057845	46434	108422	0	0	8202	554733	0	0
2024-09-30 07:27:47			0	38178	0	0	0	22877	21440	160296	27493	1057881	46434	108423	0	0	8202	554259	0	0
2024-09-30 07:28:47			0	38166	0	0	0	22870	21450	160224	27327	1057925	46435	108420	0	0	8202	554702	0	0
2024-09-30 07:29:47			0	38175	0	0	0	22867	21460	160148	27168	1057908	46425	108419	0	0	8203	554316	0	0
2024-09-30 07:30:47			0	38163	0	0	0	22880	21440	160196	27275	1057845	46434	108424	0	0	8202	554851	0	0
2024-09-30 07:31:47			0	38199	0	0	0	22862	21440	160096	26899	1057854	46457	108417	0	0	8204	553432	0	0
2024-09-30 07:32:47			0	38192	0	0	0	22872	21440	160136	27144	1057845	46434	108421	0	0	8203	553707	0	0
2024-09-30 07:33:47			0	38180	0	0	0	22870	21440	160092	27241	1057898	46434	108420	0	0	8203	554181	0	0
2024-09-30 07:34:47			0	38181	0	0	0	22872	21440	160156	27334	1057854	46445	108421	0	0	8203	554141	0	0
2024-09-30 07:35:47			0	38197	0	0	0	22862	21450	160072	27116	1057810	46445	108417	0	0	8204	553480	0	0
2024-09-30 07:36:47			0	38207	0	0	0	22867	21450	160116	27280	1057819	46447	108419	0	0	8204	553086	0	0
2024-09-30 07:37:47			0	38185	0	0	0	22864	21440	160164	27327	1057845	46445	108418	0	0	8203	553983	0	0
2024-09-30 07:38:47			0	38183	0	0	0	22867	21440	160088	27230	1057818	46434	108419	0	0	8203	554062	0	0
2024-09-30 07:39:47			0	38188	0	0	0	22880	21440	160192	27294	1057881	46434	108424	0	0	8203	553865	0	0
2024-09-30 07:40:47			0	38190	0	0	0	22870	21440	160172	27341	1057925	46457	108420	0	0	8203	553786	0	0
2024-09-30 07:41:47			0	38191	0	0	0	22864	21440	160060	27041	1057907	46434	108418	0	0	8203	553747	0	0
2024-09-30 07:42:47			0	38178	0	0	0	22870	21440	160136	27071	1057881	46423	108420	0	0	8203	554259	0	0
2024-09-30 07:43:47			0	38186	0	0	0	22862	21440	160144	27274	1057854	46445	108417	0	0	8203	553944	0	0
2024-09-30 07:44:47			0	38192	0	0	0	22859	21440	160124	27225	1057827	46445	108416	0	0	8204	553707	0	0
2024-09-30 07:45:47			0	38206	0	0	0	22864	21440	160116	27331	1057792	46445	108418	0	0	8204	553156	0	0
2024-09-30 07:46:47			0	38179	0	0	0	22851	21450	160224	27027	1057863	46434	108413	0	0	8203	554189	0	0
2024-09-30 07:47:47			0	38180	0	0	0	22846	21430	160220	27069	1057854	46421	108411	0	0	8203	554211	0	0
2024-09-30 07:48:47			0	38167	0	0	0	22854	21430	160252	27118	1057783	46433	108414	0	0	8202	554724	0	0
2024-09-30 07:49:47			0	38186	0	0	0	22857	21440	160332	27001	1057827	46445	108415	0	0	8203	553944	0	0
2024-09-30 07:50:47			0	38187	0	0	0	22862	21440	160336	27190	1057854	46434	108417	0	0	8203	553905	0	0
2024-09-30 07:51:47			0	38191	0	0	0	22857	21440	160184	26871	1057827	46434	108415	0	0	8204	553747	0	0
2024-09-30 07:52:47			0	38170	0	0	0	22870	21430	160160	27315	1057809	46422	108420	0	0	8202	554606	0	0
2024-09-30 07:53:47			0	38205	0	0	0	22867	21440	160256	27185	1057872	46445	108419	0	0	8204	553195	0	0
2024-09-30 07:54:47			0	38174	0	0	0	22870	21430	160096	27159	1057863	46444	108420	0	0	8202	554448	0	0
2024-09-30 07:55:47			0	38199	0	0	0	22862	21440	160156	27142	1057881	46445	108417	0	0	8204	553432	0	0
2024-09-30 07:56:47			0	38161	0	0	0	22867	21440	160144	27272	1057845	46434	108419	0	0	8202	554930	0	0
2024-09-30 07:57:47			0	38173	0	0	0	22870	21440	160116	27336	1057845	46445	108420	0	0	8202	554457	0	0
2024-09-30 07:58:47			0	38182	0	0	0	22867	21440	160180	27173	1057872	46434	108419	0	0	8203	554102	0	0
2024-09-30 07:59:47			0	38180	0	0	0	22854	21440	160160	27078	1057881	46434	108414	0	0	8203	554181	0	0
2024-09-30 08:00:47			0	38188	0	0	0	22859	21430	160364	26908	1057836	46456	108416	0	0	8203	553896	0	0
2024-09-30 08:01:47			0	38172	0	0	0	22870	21440	160324	27178	1057818	46445	108420	0	0	8202	554496	0	0
2024-09-30 08:02:47			0	38197	0	0	0	22864	21440	160148	27135	1057854	46445	108418	0	0	8204	553511	0	0
2024-09-30 08:03:47			0	38199	0	0	0	22859	21430	160188	27031	1057836	46444	108416	0	0	8204	553462	0	0
2024-09-30 08:04:47			0	38191	0	0	0	22859	21430	160136	27215	1057863	46433	108416	0	0	8204	553778	0	0
2024-09-30 08:05:47			0	38185	0	0	0	22854	21440	160108	26994	1057881	46434	108414	0	0	8203	553983	0	0
2024-09-30 08:06:47			0	38183	0	0	0	22862	21440	160128	27293	1057792	46445	108417	0	0	8203	554062	0	0
2024-09-30 08:07:47			0	38183	0	0	0	22864	21440	160200	27173	1057925	46445	108418	0	0	8203	554062	0	0
2024-09-30 08:08:47			0	38176	0	0	0	22859	21440	160140	27163	1057907	46434	108416	0	0	8203	554338	0	0
2024-09-30 08:09:47			0	38189	0	0	0	22867	21440	160180	27227	1057818	46413	108419	0	0	8203	553826	0	0
2024-09-30 08:10:47			0	38202	0	0	0	22849	21430	160200	27067	1057801	46432	108412	0	0	8204	553344	0	0
2024-09-30 08:11:47			0	38193	0	0	0	22854	21440	160144	27092	1057881	46434	108414	0	0	8204	553668	0	0
2024-09-30 08:12:47			0	38196	0	0	0	22857	21430	160244	27015	1057827	46432	108415	0	0	8204	553581	0	0
2024-09-30 08:13:47			0	38193	0	0	0	22862	21430	160156	27339	1057809	46422	108417	0	0	8204	553699	0	0
2024-09-30 08:14:47			0	38191	0	0	0	22851	21430	160176	27043	1057801	46444	108413	0	0	8204	553778	0	0
2024-09-30 08:15:47			0	38170	0	0	0	22857	21430	160124	27371	1057809	46422	108415	0	0	8202	554606	0	0
2024-09-30 08:16:47			0	38182	0	0	0	22864	21430	160208	27105	1057854	46432	108418	0	0	8203	554132	0	0
2024-09-30 08:17:47			0	38177	0	0	0	22859	21430	160164	27277	1057809	46433	108416	0	0	8203	554330	0	0
2024-09-30 08:18:47			0	38179	0	0	0	22849	21430	160204	26981	1057801	46432	108412	0	0	8203	554251	0	0
2024-09-30 08:19:47			0	38194	0	0	0	22851	21440	160180	26930	1057845	46423	108413	0	0	8204	553629	0	0
2024-09-30 08:20:47			0	38191	0	0	0	22854	21420	160272	26840	1057765	46432	108414	0	0	8204	553808	0	0
2024-09-30 08:21:47			0	38181	0	0	0	22854	21430	160192	27180	1057863	46433	108414	0	0	8203	554172	0	0
2024-09-30 08:22:47			0	38189	0	0	0	22862	21430	160200	27336	1057836	46444	108417	0	0	8203	553857	0	0
2024-09-30 08:23:47			0	38187	0	0	0	22849	21430	160168	26850	1057863	46433	108412	0	0	8203	553935	0	0
2024-09-30 08:24:47			0	38183	0	0	0	22851	21430	160292	26847	1057801	46432	108413	0	0	8203	554093	0	0
2024-09-30 08:25:47			0	38176	0	0	0	22857	21430	160308	26786	1057827	46421	108415	0	0	8203	554369	0	0
2024-09-30 08:26:47			0	38187	0	0	0	22862	21430	160220	26759	1057801	46444	108417	0	0	8203	553935	0	0
2024-09-30 08:27:47			0	38189	0	0	0	22849	21420	160236	26844	1057818	46432	108412	0	0	8204	553887	0	0
2024-09-30 08:28:47			0	38183	0	0	0	22857	21420	160208	26975	1057783	46421	108415	0	0	8203	554124	0	0
2024-09-30 08:29:47			0	38177	0	0	0	22862	21420	160244	27057	1057818	46432	108417	0	0	8203	554361	0	0
2024-09-30 08:30:47			0	38183	0	0	0	22862	21420	160284	27026	1057818	46432	108417	0	0	8203	554124	0	0
2024-09-30 08:31:47			0	38178	0	0	0	22859	21430	160224	27244	1057801	46432	108416	0	0	8203	554290	0	0
2024-09-30 08:32:47			0	38186	0	0	0	22849	21430	160232	27086	1057827	46444	108412	0	0	8203	553975	0	0
2024-09-30 08:33:47			0	38180	0	0	0	22859	21430	160220	27206	1057801	46455	108416	0	0	8203	554211	0	0
2024-09-30 08:34:47			0	38184	0	0	0	22854	21430	160260	27102	1057916	46433	108414	0	0	8203	554054	0	0
2024-09-30 08:35:47			0	38172	0	0	0	22854	21430	160296	27308	1057863	46433	108414	0	0	8202	554527	0	0
2024-09-30 08:36:47			0	38182	0	0	0	22851	21430	160208	27088	1057863	46433	108413	0	0	8203	554132	0	0
2024-09-30 08:37:47			0	38167	0	0	0	22854	21430	160196	26902	1057747	46432	108414	0	0	8202	554724	0	0
2024-09-30 08:38:47			0	38174	0	0	0	22851	21430	160212	27092	1057809	46444	108413	0	0	8203	554448	0	0
2024-09-30 08:39:47			0	38182	0	0	0	22864	21430	160300	26778	1057880	46444	108418	0	0	8203	554132	0	0
2024-09-30 08:40:47			0	38184	0	0	0	22851	21430	160212	27029	1057836	46456	108413	0	0	8203	554054	0	0
2024-09-30 08:41:47			0	38179	0	0	0	22854	21430	160200	27029	1057916	46433	108414	0	0	8203	554251	0	0
2024-09-30 08:42:47			0	38180	0	0	0	22849	21430	160184	27013	1057783	46433	108412	0	0	8203	554211	0	0
2024-09-30 08:43:47			0	38182	0	0	0	22841	21430	160232	26861	1057854	46444	108409	0	0	8203	554132	0	0
2024-09-30 08:44:47			0	38174	0	0	0	22854	21430	160324	26951	1057827	46432	108414	0	0	8203	554448	0	0
2024-09-30 08:45:47			0	38185	0	0	0	22849	21430	160208	27334	1057756	46444	108412	0	0	8203	554014	0	0
2024-09-30 08:46:47			0	38180	0	0	0	22849	21430	160288	26993	1057809	46433	108412	0	0	8203	554211	0	0
2024-09-30 08:47:47			0	38161	0	0	0	22854	21430	160204	27060	1057809	46456	108414	0	0	8202	554961	0	0
2024-09-30 08:48:47			0	38187	0	0	0	22849	21430	160240	26939	1057809	46444	108412	0	0	8203	553935	0	0
2024-09-30 08:49:47			0	38172	0	0	0	22857	21420	160180	27201	1057818	46444	108415	0	0	8202	554558	0	0
2024-09-30 08:50:47			0	38172	0	0	0	22849	21430	160184	26963	1057880	46432	108412	0	0	8203	554527	0	0
2024-09-30 08:51:47			0	38192	0	0	0	22851	21430	160208	26826	1057827	46432	108413	0	0	8204	553738	0	0
2024-09-30 08:52:47			0	38193	0	0	0	22849	21420	160136	27131	1057792	46444	108412	0	0	8204	553730	0	0
2024-09-30 08:53:47			0	38198	0	0	0	22849	21430	160164	27092	1057774	46444	108412	0	0	8204	553502	0	0
2024-09-30 08:54:47			0	38184	0	0	0	22828	21420	160144	27081	1057792	46444	108404	0	0	8204	554085	0	0
2024-09-30 08:55:47			0	38190	0	0	0	22841	21430	160188	27119	1057801	46432	108409	0	0	8204	553817	0	0
2024-09-30 08:56:47			0	38198	0	0	0	22854	21420	160228	27149	1057845	46444	108414	0	0	8204	553533	0	0
2024-09-30 08:57:47			0	38188	0	0	0	22846	21420	160328	27121	1057792	46444	108411	0	0	8204	553927	0	0
2024-09-30 08:58:47			0	38190	0	0	0	22841	21430	160268	27218	1057801	46432	108409	0	0	8204	553817	0	0
2024-09-30 08:59:47			0	38184	0	0	0	22833	21420	160140	26974	1057792	46432	108406	0	0	8203	554085	0	0
2024-09-30 09:00:47			0	38180	0	0	0	22833	21420	160288	27204	1057845	46432	108406	0	0	8203	554242	0	0
2024-09-30 09:01:47			0	38193	0	0	0	22836	21420	160204	27336	1057765	46432	108407	0	0	8204	553730	0	0
2024-09-30 09:02:47			0	38175	0	0	0	22846	21420	160252	27213	1057783	46444	108411	0	0	8203	554439	0	0
2024-09-30 09:03:47			0	38179	0	0	0	22849	21420	160336	27263	1057756	46432	108412	0	0	8203	554282	0	0
2024-09-30 09:04:47			0	38188	0	0	0	22844	21420	160292	27189	1057738	46432	108410	0	0	8204	553927	0	0
2024-09-30 09:05:47			0	38159	0	0	0	22854	21420	160296	26894	1057818	46421	108414	0	0	8202	555071	0	0
2024-09-30 09:06:47			0	38176	0	0	0	22844	21420	160184	27315	1057783	46444	108410	0	0	8203	554400	0	0
2024-09-30 09:07:47			0	38174	0	0	0	22838	21410	160288	26913	1057747	46431	108408	0	0	8203	554510	0	0
2024-09-30 09:08:47			0	38171	0	0	0	22849	21430	160284	27102	1057827	46432	108412	0	0	8203	554566	0	0
2024-09-30 09:09:47			0	38181	0	0	0	22851	21430	160260	27504	1057801	46444	108413	0	0	8203	554172	0	0
2024-09-30 09:10:47			0	38181	0	0	0	22851	21430	160184	27412	1057801	46444	108413	0	0	8203	554172	0	0
2024-09-30 09:11:47			0	38182	0	0	0	22841	21430	160196	27298	1057747	46432	108409	0	0	8203	554132	0	0
2024-09-30 09:12:47			0	38184	0	0	0	22851	21430	160304	27331	1057827	46444	108413	0	0	8203	554054	0	0
2024-09-30 09:13:47			0	38183	0	0	0	22841	21430	160216	27426	1057801	46444	108409	0	0	8203	554093	0	0
2024-09-30 09:14:47			0	38189	0	0	0	22844	21420	160224	27017	1057845	46444	108410	0	0	8204	553887	0	0
2024-09-30 09:15:47			0	38180	0	0	0	22849	21420	160252	27428	1057765	46444	108412	0	0	8203	554242	0	0
2024-09-30 09:16:47			0	38160	0	0	0	22844	21420	160300	27270	1057792	46455	108410	0	0	8202	555031	0	0
2024-09-30 09:17:47			0	38192	0	0	0	22828	21420	160300	27270	1057783	46444	108404	0	0	8204	553769	0	0
2024-09-30 09:18:47			0	38195	0	0	0	22846	21410	160352	27128	1057774	46431	108411	0	0	8204	553682	0	0
2024-09-30 09:19:47			0	38184	0	0	0	22836	21430	160232	27066	1057801	46455	108407	0	0	8203	554054	0	0
2024-09-30 09:20:47			0	38189	0	0	0	22838	21420	160268	26913	1057765	46455	108408	0	0	8204	553887	0	0
2024-09-30 09:21:47			0	38182	0	0	0	22849	21420	160324	27428	1057792	46432	108412	0	0	8203	554163	0	0
2024-09-30 09:22:47			0	38176	0	0	0	22831	21420	160228	27178	1057756	46432	108405	0	0	8203	554400	0	0
2024-09-30 09:23:47			0	38178	0	0	0	22836	21420	160312	27225	1057729	46421	108407	0	0	8203	554321	0	0
2024-09-30 09:24:47			0	38195	0	0	0	22838	21420	160168	27109	1057792	46444	108408	0	0	8204	553651	0	0
2024-09-30 09:25:47			0	38184	0	0	0	22844	21420	160104	26972	1057756	46432	108410	0	0	8203	554085	0	0
2024-09-30 09:26:47			0	38194	0	0	0	22844	21420	160072	27317	1057783	46444	108410	0	0	8204	553690	0	0
2024-09-30 09:27:47			0	38198	0	0	0	22849	21420	160056	27218	1057836	46455	108412	0	0	8204	553533	0	0
2024-09-30 09:28:47			0	38204	0	0	0	22851	21420	160160	27100	1057765	46432	108413	0	0	8204	553296	0	0
2024-09-30 09:29:47			0	38214	0	0	0	22854	21420	160136	27239	1057792	46444	108414	0	0	8205	552902	0	0
2024-09-30 09:30:47			0	38213	0	0	0	22862	21420	160084	27230	1057818	46455	108417	0	0	8205	552942	0	0
2024-09-30 09:31:47			0	38203	0	0	0	22870	21430	160100	26977	1057809	46444	108420	0	0	8204	553305	0	0
2024-09-30 09:32:47			0	38233	0	0	0	22867	21430	160044	27206	1057827	46444	108419	0	0	8206	552124	0	0
2024-09-30 09:33:47			0	38235	0	0	0	22880	21420	160076	27128	1057845	46444	108424	0	0	8206	552076	0	0
2024-09-30 09:34:47			0	38245	0	0	0	22867	21430	159976	26892	1057863	46444	108419	0	0	8207	551652	0	0
2024-09-30 09:35:47			0	38245	0	0	0	22851	21440	160012	27128	1057898	46445	108413	0	0	8207	551621	0	0
2024-09-30 09:36:47			0	38249	0	0	0	22859	21440	160000	27185	1057898	46457	108416	0	0	8207	551464	0	0
2024-09-30 09:37:47			0	38246	0	0	0	22854	21440	160004	27137	1057925	46434	108414	0	0	8207	551582	0	0
2024-09-30 09:38:47			0	38232	0	0	0	22867	21440	159968	27258	1057898	46434	108419	0	0	8206	552132	0	0
2024-09-30 09:39:47			0	38226	0	0	0	22875	21440	160020	27185	1057845	46434	108422	0	0	8205	552368	0	0
2024-09-30 09:40:47			0	38222	0	0	0	22875	21440	160092	27124	1057881	46445	108422	0	0	8205	552526	0	0
2024-09-30 09:41:47			0	38235	0	0	0	22875	21440	160052	26838	1057845	46434	108422	0	0	8206	552014	0	0
2024-09-30 09:42:47			0	38226	0	0	0	22875	21450	160028	27258	1057890	46434	108422	0	0	8205	552338	0	0
2024-09-30 09:43:47			0	38224	0	0	0	22875	21440	160052	27131	1057898	46457	108422	0	0	8205	552447	0	0
2024-09-30 09:44:47			0	38225	0	0	0	22872	21440	160004	27118	1057934	46445	108421	0	0	8205	552408	0	0
2024-09-30 09:45:47			0	38234	0	0	0	22864	21450	159852	27244	1057952	46435	108418	0	0	8206	552023	0	0
2024-09-30 09:46:47			0	38219	0	0	0	22857	21440	160052	27222	1057934	46445	108415	0	0	8205	552644	0	0
2024-09-30 09:47:47			0	38238	0	0	0	22846	21450	160028	27164	1057943	46434	108411	0	0	8207	551866	0	0
2024-09-30 09:48:47			0	38230	0	0	0	22846	21440	159952	26986	1057872	46434	108411	0	0	8206	552211	0	0
2024-09-30 09:49:47			0	38243	0	0	0	22864	21440	159988	26783	1057845	46445	108418	0	0	8207	551700	0	0
2024-09-30 09:50:47			0	38245	0	0	0	22893	21440	159964	26776	1057907	46445	108429	0	0	8206	551621	0	0
2024-09-30 09:51:47			0	38236	0	0	0	22896	21440	160072	26967	1057907	46445	108430	0	0	8206	551975	0	0
2024-09-30 09:52:47			0	38244	0	0	0	22888	21440	160040	27175	1057872	46434	108427	0	0	8206	551660	0	0
2024-09-30 09:53:47			0	38209	0	0	0	22890	21440	160072	27248	1057872	46457	108428	0	0	8204	553038	0	0
2024-09-30 09:54:47			0	38230	0	0	0	22896	21440	159984	26958	1057961	46445	108430	0	0	8205	552211	0	0
2024-09-30 09:55:47			0	38223	0	0	0	22890	21460	160108	26847	1057943	46448	108428	0	0	8205	552425	0	0
2024-09-30 09:56:47			0	38221	0	0	0	22903	21450	160208	26911	1057978	46458	108433	0	0	8205	552534	0	0
2024-09-30 09:57:47			0	38223	0	0	0	22903	21460	160180	27118	1057988	46436	108433	0	0	8205	552425	0	0
2024-09-30 09:58:47			0	38213	0	0	0	22903	21460	160180	26942	1057988	46448	108433	0	0	8204	552819	0	0
2024-09-30 09:59:47			0	38206	0	0	0	22898	21460	160036	27209	1057961	46448	108431	0	0	8204	553094	0	0
2024-09-30 10:00:47			0	38209	0	0	0	22898	21470	160132	26653	1058015	46437	108431	0	0	8204	552946	0	0
2024-09-30 10:01:47			0	38202	0	0	0	22893	21460	160140	27204	1057988	46458	108429	0	0	8204	553252	0	0
2024-09-30 10:02:47			0	38200	0	0	0	22909	21470	160104	27211	1057952	46448	108435	0	0	8203	553300	0	0
2024-09-30 10:03:47			0	38209	0	0	0	22909	21470	160156	27069	1058032	46436	108435	0	0	8204	552946	0	0
2024-09-30 10:04:47			0	38204	0	0	0	22888	21460	160120	27131	1057997	46458	108427	0	0	8204	553173	0	0
2024-09-30 10:05:47			0	38217	0	0	0	22885	21460	160112	27123	1057988	46436	108426	0	0	8205	552661	0	0
2024-09-30 10:06:47			0	38213	0	0	0	22877	21470	160196	27010	1057935	46437	108423	0	0	8205	552788	0	0
2024-09-30 10:07:47			0	38210	0	0	0	22880	21470	160116	27019	1058015	46437	108424	0	0	8204	552906	0	0
2024-09-30 10:08:47			0	38212	0	0	0	22885	21470	160184	26828	1057961	46437	108426	0	0	8204	552827	0	0
2024-09-30 10:09:47			0	38219	0	0	0	22883	21470	159952	27277	1058015	46437	108425	0	0	8205	552552	0	0
2024-09-30 10:10:47			0	38213	0	0	0	22893	21470	160068	27241	1058032	46436	108429	0	0	8204	552788	0	0
2024-09-30 10:11:47			0	38225	0	0	0	22893	21460	160040	26816	1058023	46448	108429	0	0	8205	552347	0	0
2024-09-30 10:12:47			0	38231	0	0	0	22888	21470	160068	26899	1057988	46437	108427	0	0	8206	552080	0	0
2024-09-30 10:13:47			0	38232	0	0	0	22885	21470	160052	27235	1058006	46448	108426	0	0	8206	552040	0	0
2024-09-30 10:14:47			0	38232	0	0	0	22885	21470	160088	26913	1058032	46436	108426	0	0	8206	552040	0	0
2024-09-30 10:15:47			0	38244	0	0	0	22883	21460	160000	26979	1058050	46448	108425	0	0	8206	551599	0	0
2024-09-30 10:16:47			0	38246	0	0	0	22872	21460	160044	27116	1058023	46436	108421	0	0	8207	551521	0	0
2024-09-30 10:17:47			0	38262	0	0	0	22898	21470	159944	27000	1058006	46436	108431	0	0	8207	550861	0	0
2024-09-30 10:18:47			0	38242	0	0	0	22896	21470	160028	27071	1057988	46449	108430	0	0	8206	551647	0	0
2024-09-30 10:19:47			0	38246	0	0	0	22903	21470	159960	27045	1058032	46448	108433	0	0	8206	551490	0	0
2024-09-30 10:20:47			0	38263	0	0	0	22901	21470	160056	27279	1058015	46437	108432	0	0	8207	550822	0	0
2024-09-30 10:21:47			0	38238	0	0	0	22896	21480	160040	27031	1057970	46450	108430	0	0	8206	551774	0	0
2024-09-30 10:22:47			0	38257	0	0	0	22914	21470	160012	26998	1058006	46448	108437	0	0	8207	551058	0	0
2024-09-30 10:23:47			0	38258	0	0	0	22909	21470	159948	27147	1058015	46437	108435	0	0	8207	551018	0	0
2024-09-30 10:24:47			0	38269	0	0	0	22911	21480	159972	27440	1058086	46451	108436	0	0	8207	550556	0	0
2024-09-30 10:25:47			0	38272	0	0	0	22906	21470	159888	27242	1058041	46449	108434	0	0	8208	550468	0	0
2024-09-30 10:26:47			0	38278	0	0	0	22911	21470	159868	27300	1058015	46437	108436	0	0	8208	550233	0	0
2024-09-30 10:27:47			0	38288	0	0	0	22909	21470	159776	27121	1058068	46437	108435	0	0	8209	549840	0	0
2024-09-30 10:28:47			0	38286	0	0	0	22911	21480	159868	26975	1058077	46450	108436	0	0	8208	549888	0	0
2024-09-30 10:29:47			0	38278	0	0	0	22906	21470	159872	27248	1058041	46449	108434	0	0	8208	550233	0	0
2024-09-30 10:30:47			0	38297	0	0	0	22903	21480	159880	27183	1058086	46461	108433	0	0	8209	549457	0	0
2024-09-30 10:31:47			0	38280	0	0	0	22903	21480	159780	27235	1058059	46439	108433	0	0	8208	550124	0	0
2024-09-30 10:32:47			0	38303	0	0	0	22906	21480	159852	27467	1058077	46450	108434	0	0	8209	549221	0	0
2024-09-30 10:33:47			0	38310	0	0	0	22914	21480	159864	27405	1058086	46428	108437	0	0	8210	548947	0	0
2024-09-30 10:34:47			0	38298	0	0	0	22909	21480	159724	27218	1058112	46451	108435	0	0	8209	549417	0	0
2024-09-30 10:35:47			0	38305	0	0	0	22911	21480	159656	27329	1058077	46450	108436	0	0	8210	549143	0	0
2024-09-30 10:36:47			0	38291	0	0	0	22906	21480	159756	27076	1058130	46450	108434	0	0	8209	549692	0	0
2024-09-30 10:37:47			0	38309	0	0	0	22903	21480	159708	26965	1058086	46439	108433	0	0	8210	548986	0	0
2024-09-30 10:38:47			0	38296	0	0	0	22906	21480	159796	27280	1058139	46439	108434	0	0	8209	549496	0	0
2024-09-30 10:39:47			0	38284	0	0	0	22903	21490	159768	26743	1058077	46439	108433	0	0	8208	549936	0	0
2024-09-30 10:40:47			0	38302	0	0	0	22919	21490	159712	26814	1058130	46439	108439	0	0	8209	549230	0	0
2024-09-30 10:41:47			0	38281	0	0	0	22922	21490	159680	26915	1058175	46439	108440	0	0	8208	550054	0	0
2024-09-30 10:42:47			0	38288	0	0	0	22932	21480	159740	27022	1058112	46451	108444	0	0	8208	549810	0	0
2024-09-30 10:43:47			0	38305	0	0	0	22919	21480	159688	27248	1058104	46438	108439	0	0	8209	549143	0	0
2024-09-30 10:44:47			0	38302	0	0	0	22919	21490	159668	27225	1058175	46461	108439	0	0	8209	549230	0	0
2024-09-30 10:45:47			0	38296	0	0	0	22919	21490	159672	27383	1058130	46451	108439	0	0	8209	549465	0	0
2024-09-30 10:46:47			0	38299	0	0	0	22927	21490	159608	27256	1058175	46439	108442	0	0	8209	549348	0	0
2024-09-30 10:47:47			0	38309	0	0	0	22922	21490	159740	27202	1058121	46461	108440	0	0	8210	548956	0	0
2024-09-30 10:48:47			0	38294	0	0	0	22922	21490	159708	27277	1058130	46451	108440	0	0	8209	549544	0	0
2024-09-30 10:49:47			0	38303	0	0	0	22927	21490	159752	27045	1058130	46461	108442	0	0	8209	549191	0	0
2024-09-30 10:50:47			0	38300	0	0	0	22932	21500	159652	27355	1058148	46453	108444	0	0	8209	549278	0	0
2024-09-30 10:51:47			0	38302	0	0	0	22927	21490	159728	27175	1058130	46451	108442	0	0	8209	549230	0	0
2024-09-30 10:52:47			0	38323	0	0	0	22924	21500	159628	27161	1058175	46441	108441	0	0	8210	548376	0	0
2024-09-30 10:53:47			0	38346	0	0	0	22929	21500	159620	27189	1058228	46441	108443	0	0	8212	547476	0	0
2024-09-30 10:54:47			0	38342	0	0	0	22922	21500	159612	27008	1058148	46441	108440	0	0	8212	547633	0	0
2024-09-30 10:55:47			0	38344	0	0	0	22927	21510	159456	27263	1058184	46463	108442	0	0	8212	547524	0	0
2024-09-30 10:56:47			0	38348	0	0	0	22927	21500	159516	27665	1058166	46440	108442	0	0	8212	547398	0	0
2024-09-30 10:57:47			0	38362	0	0	0	22919	21490	159416	27327	1058157	46439	108439	0	0	8213	546881	0	0
2024-09-30 10:58:47			0	38354	0	0	0	22919	21500	159484	27237	1058193	46440	108439	0	0	8212	547163	0	0
2024-09-30 10:59:47			0	38366	0	0	0	22922	21500	159428	27473	1058219	46440	108440	0	0	8213	546694	0	0
2024-09-30 11:00:47			0	38360	0	0	0	22919	21490	159456	27471	1058184	46439	108439	0	0	8213	546959	0	0
2024-09-30 11:01:47			0	38385	0	0	0	22922	21490	159444	27403	1058184	46439	108440	0	0	8214	545982	0	0
2024-09-30 11:02:47			0	38372	0	0	0	22909	21500	159452	27469	1058175	46453	108435	0	0	8214	546459	0	0
2024-09-30 11:03:47			0	38370	0	0	0	22922	21500	159292	26894	1058139	46452	108440	0	0	8213	546537	0	0
2024-09-30 11:04:47			0	38373	0	0	0	22922	21490	159328	27395	1058157	46439	108440	0	0	8213	546450	0	0
2024-09-30 11:05:47			0	38382	0	0	0	22929	21500	159316	27608	1058175	46441	108443	0	0	8214	546068	0	0
2024-09-30 11:06:47			0	38397	0	0	0	22929	21490	159308	27303	1058157	46451	108443	0	0	8215	545513	0	0
2024-09-30 11:07:47			0	38383	0	0	0	22924	21500	159308	27357	1058139	46452	108441	0	0	8214	546029	0	0
2024-09-30 11:08:47			0	38377	0	0	0	22924	21500	159280	27445	1058148	46441	108441	0	0	8214	546264	0	0
2024-09-30 11:09:47			0	38407	0	0	0	22924	21500	159344	27369	1058166	46452	108441	0	0	8215	545092	0	0
2024-09-30 11:10:47			0	38385	0	0	0	22927	21500	159268	27352	1058202	46441	108442	0	0	8214	545951	0	0
2024-09-30 11:11:47			0	38393	0	0	0	22927	21500	159268	27313	1058219	46452	108442	0	0	8214	545639	0	0
2024-09-30 11:12:47			0	38405	0	0	0	22929	21500	159312	27154	1058175	46441	108443	0	0	8215	545170	0	0
2024-09-30 11:13:47			0	38408	0	0	0	22945	21500	159300	27422	1058202	46453	108449	0	0	8215	545053	0	0
2024-09-30 11:14:47			0	38400	0	0	0	22929	21500	159180	27355	1058228	46441	108443	0	0	8215	545365	0	0
2024-09-30 11:15:47			0	38390	0	0	0	22927	21510	159260	27216	1058211	46441	108442	0	0	8214	545726	0	0
2024-09-30 11:16:47			0	38407	0	0	0	22942	21500	159236	27497	1058202	46453	108448	0	0	8215	545092	0	0
2024-09-30 11:17:47			0	38412	0	0	0	22942	21500	159172	27391	1058255	46453	108448	0	0	8215	544897	0	0
2024-09-30 11:18:47			0	38402	0	0	0	22942	21500	159216	27098	1058255	46463	108448	0	0	8215	545287	0	0
2024-09-30 11:19:47			0	38401	0	0	0	22942	21510	159284	27357	1058237	46453	108448	0	0	8215	545296	0	0
2024-09-30 11:20:47			0	38406	0	0	0	22932	21510	159096	27149	1058193	46474	108444	0	0	8215	545101	0	0
2024-09-30 11:21:47			0	38419	0	0	0	22935	21510	159260	27422	1058184	46453	108445	0	0	8216	544594	0	0
2024-09-30 11:22:47			0	38427	0	0	0	22932	21510	159196	27211	1058264	46453	108444	0	0	8216	544282	0	0
2024-09-30 11:23:47			0	38420	0	0	0	22942	21500	159236	27216	1058255	46441	108448	0	0	8216	544585	0	0
2024-09-30 11:24:47			0	38425	0	0	0	22948	21510	159160	27284	1058246	46430	108450	0	0	8216	544360	0	0
2024-09-30 11:25:47			0	38440	0	0	0	22948	21510	159204	27467	1058273	46453	108450	0	0	8217	543775	0	0
2024-09-30 11:26:47			0	38423	0	0	0	22948	21510	159160	27358	1058211	46453	108450	0	0	8216	544438	0	0
2024-09-30 11:27:47			0	38413	0	0	0	22950	21510	159180	27481	1058246	46441	108451	0	0	8215	544828	0	0
2024-09-30 11:28:47			0	38448	0	0	0	22955	21520	159168	27246	1058264	46455	108453	0	0	8217	543433	0	0
2024-09-30 11:29:47			0	38436	0	0	0	22955	21510	159168	27234	1058353	46453	108453	0	0	8217	543931	0	0
2024-09-30 11:30:47			0	38457	0	0	0	22955	21530	159104	27512	1058326	46443	108453	0	0	8218	543053	0	0
2024-09-30 11:31:47			0	38462	0	0	0	22958	21520	159048	27462	1058291	46465	108454	0	0	8218	542888	0	0
2024-09-30 11:32:47			0	38480	0	0	0	22961	21530	159108	27518	1058326	46443	108455	0	0	8219	542157	0	0
2024-09-30 11:33:47			0	38482	0	0	0	22966	21520	158976	27460	1058317	46455	108457	0	0	8219	542110	0	0
2024-09-30 11:34:47			0	38483	0	0	0	22966	21530	158928	27372	1058460	46465	108457	0	0	8219	542041	0	0
2024-09-30 11:35:47			0	38508	0	0	0	22963	21530	158992	27294	1058309	46465	108456	0	0	8221	541069	0	0
2024-09-30 11:36:47			0	38505	0	0	0	22963	21540	158892	27225	1058344	46444	108456	0	0	8221	541155	0	0
2024-09-30 11:37:47			0	38520	0	0	0	22963	21530	158776	27161	1058335	46443	108456	0	0	8221	540603	0	0
2024-09-30 11:38:47			0	38546	0	0	0	22963	21530	158784	27053	1058415	46465	108456	0	0	8223	539594	0	0
2024-09-30 11:39:47			0	38548	0	0	0	22966	21530	158796	27057	1058495	46476	108457	0	0	8223	539517	0	0
2024-09-30 11:40:47			0	38555	0	0	0	22968	21530	158684	27284	1058415	46455	108458	0	0	8223	539245	0	0
2024-09-30 11:41:47			0	38554	0	0	0	22966	21520	158824	27154	1058371	46443	108457	0	0	8223	539314	0	0
2024-09-30 11:42:47			0	38562	0	0	0	22968	21540	158692	27260	1058433	46445	108458	0	0	8224	538944	0	0
2024-09-30 11:43:47			0	38557	0	0	0	22974	21540	158760	27119	1058371	46456	108460	0	0	8223	539138	0	0
2024-09-30 11:44:47			0	38552	0	0	0	22971	21550	158596	27140	1058469	46468	108459	0	0	8223	539302	0	0
2024-09-30 11:45:47			0	38560	0	0	0	22971	21540	158668	27379	1058486	46457	108459	0	0	8224	539021	0	0
2024-09-30 11:46:47			0	38547	0	0	0	22984	21540	158604	27114	1058371	46466	108464	0	0	8223	539525	0	0
2024-09-30 11:47:47			0	38566	0	0	0	22989	21550	158672	27457	1058389	46468	108466	0	0	8224	538759	0	0
2024-09-30 11:48:47			0	38594	0	0	0	22989	21550	158640	27566	1058442	46468	108466	0	0	8225	537675	0	0
2024-09-30 11:49:47			0	38577	0	0	0	22989	21550	158536	27296	1058478	46458	108466	0	0	8224	538333	0	0
2024-09-30 11:50:47			0	38603	0	0	0	22992	21560	158504	27287	1058442	46458	108467	0	0	8226	537297	0	0
2024-09-30 11:51:47			0	38586	0	0	0	22997	21550	158516	26911	1058531	46446	108469	0	0	8225	537984	0	0
2024-09-30 11:52:47			0	38603	0	0	0	22999	21550	158552	27178	1058504	46468	108470	0	0	8226	537326	0	0
2024-09-30 11:53:47			0	38606	0	0	0	23002	21550	158516	27213	1058469	46458	108471	0	0	8226	537211	0	0
2024-09-30 11:54:47			0	38615	0	0	0	23002	21560	158524	27407	1058487	46458	108471	0	0	8226	536833	0	0
2024-09-30 11:55:47			0	38623	0	0	0	23005	21570	158560	27145	1058558	46459	108472	0	0	8227	536494	0	0
2024-09-30 11:56:47			0	38618	0	0	0	22997	21560	158352	27190	1058513	46446	108469	0	0	8227	536717	0	0
2024-09-30 11:57:47			0	38635	0	0	0	23010	21560	158424	27374	1058522	46469	108474	0	0	8227	536060	0	0
2024-09-30 11:58:47			0	38643	0	0	0	23005	21560	158424	27407	1058593	46446	108472	0	0	8228	535751	0	0
2024-09-30 11:59:47			0	38654	0	0	0	23007	21570	158452	27137	1058567	46459	108473	0	0	8229	535296	0	0
2024-09-30 12:00:47			0	38671	0	0	0	23015	21570	158320	27230	1058593	46459	108476	0	0	8229	534641	0	0
2024-09-30 12:01:47			0	38672	0	0	0	23015	21580	158220	27190	1058602	46459	108476	0	0	8230	534572	0	0
2024-09-30 12:02:47			0	38689	0	0	0	23007	21580	158196	27166	1058638	46460	108473	0	0	8231	533917	0	0
2024-09-30 12:03:47			0	38678	0	0	0	23015	21570	158192	27274	1058540	46459	108476	0	0	8230	534371	0	0
2024-09-30 12:04:47			0	38670	0	0	0	23015	21570	158192	27338	1058620	46459	108476	0	0	8229	534679	0	0
2024-09-30 12:05:47			0	38677	0	0	0	23018	21580	158188	27324	1058629	46470	108477	0	0	8230	534380	0	0
2024-09-30 12:06:47			0	38683	0	0	0	23012	21580	158164	27019	1058558	46460	108475	0	0	8230	534148	0	0
2024-09-30 12:07:47			0	38679	0	0	0	23020	21580	158088	27249	1058612	46450	108478	0	0	8230	534302	0	0
2024-09-30 12:08:47			0	38667	0	0	0	23018	21580	158180	27166	1058638	46471	108477	0	0	8229	534765	0	0
2024-09-30 12:09:47			0	38694	0	0	0	23015	21580	158180	27206	1058612	46460	108476	0	0	8231	533724	0	0
2024-09-30 12:10:47			0	38676	0	0	0	23023	21590	158264	27286	1058594	46472	108479	0	0	8230	534388	0	0
2024-09-30 12:11:47			0	38667	0	0	0	23025	21590	158196	27267	1058647	46461	108480	0	0	8229	534735	0	0
2024-09-30 12:12:47			0	38675	0	0	0	23036	21590	158140	27294	1058710	46472	108484	0	0	8229	534427	0	0
2024-09-30 12:13:47			0	38685	0	0	0	23028	21590	158152	27185	1058647	46461	108481	0	0	8230	534042	0	0
2024-09-30 12:14:47			0	38688	0	0	0	23031	21590	158056	27310	1058674	46472	108482	0	0	8230	533926	0	0
2024-09-30 12:15:47			0	38697	0	0	0	23025	21590	158016	27352	1058683	46461	108480	0	0	8231	533579	0	0
2024-09-30 12:16:47			0	38686	0	0	0	23025	21580	158072	27265	1058718	46460	108480	0	0	8230	534033	0	0
2024-09-30 12:17:47			0	38689	0	0	0	23028	21600	158060	27429	1058718	46461	108481	0	0	8230	533858	0	0
2024-09-30 12:18:47			0	38686	0	0	0	23031	21590	158144	27079	1058710	46461	108482	0	0	8230	534003	0	0
2024-09-30 12:19:47			0	38674	0	0	0	23038	21590	158072	26944	1058710	46461	108485	0	0	8229	534466	0	0
2024-09-30 12:20:47			0	38697	0	0	0	23036	21600	157948	27639	1058718	46461	108484	0	0	8231	533550	0	0
2024-09-30 12:21:47			0	38711	0	0	0	23028	21600	157900	27490	1058745	46461	108481	0	0	8232	533011	0	0
2024-09-30 12:22:47			0	38716	0	0	0	23036	21600	157928	27218	1058745	46461	108484	0	0	8232	532818	0	0
2024-09-30 12:23:47			0	38735	0	0	0	23041	21600	157869	27284	1058745	46472	108486	0	0	8233	532087	0	0
2024-09-30 12:24:47			0	38717	0	0	0	23038	21610	157856	27183	1058763	46463	108485	0	0	8232	532750	0	0
2024-09-30 12:25:47			0	38733	0	0	0	23049	21600	157841	27130	1058754	46473	108489	0	0	8233	532164	0	0
2024-09-30 12:26:47			0	38745	0	0	0	23044	21600	157781	27150	1058781	46462	108487	0	0	8233	531703	0	0
2024-09-30 12:27:47			0	38750	0	0	0	23036	21590	157829	27312	1058683	46451	108484	0	0	8234	531540	0	0
2024-09-30 12:28:47			0	38759	0	0	0	23041	21600	157765	26824	1058807	46462	108486	0	0	8234	531165	0	0
2024-09-30 12:29:47			0	38754	0	0	0	23049	21610	157725	26623	1058763	46452	108489	0	0	8234	531327	0	0
2024-09-30 12:30:47			0	38753	0	0	0	23041	21610	157737	26811	1058825	46454	108486	0	0	8234	531366	0	0
2024-09-30 12:31:47			0	38740	0	0	0	23036	21610	157921	27144	1058825	46464	108484	0	0	8233	531865	0	0
2024-09-30 12:32:47			0	38729	0	0	0	23044	21620	157901	27041	1058781	46464	108487	0	0	8233	532259	0	0
2024-09-30 12:33:47			0	38729	0	0	0	23044	21610	157901	26965	1058763	46441	108487	0	0	8233	532288	0	0
2024-09-30 12:34:47			0	38730	0	0	0	23041	21610	157901	26927	1058763	46452	108486	0	0	8233	532250	0	0
2024-09-30 12:35:47			0	38736	0	0	0	23046	21620	157845	27362	1058808	46464	108488	0	0	8233	531990	0	0
2024-09-30 12:36:47			0	38739	0	0	0	23049	21610	157841	27128	1058772	46454	108489	0	0	8233	531904	0	0
2024-09-30 12:37:47			0	38753	0	0	0	23041	21610	157873	27098	1058772	46464	108486	0	0	8234	531366	0	0
2024-09-30 12:38:47			0	38759	0	0	0	23051	21620	157873	27029	1058790	46442	108490	0	0	8234	531106	0	0
2024-09-30 12:39:47			0	38736	0	0	0	23046	21610	157865	26930	1058763	46463	108488	0	0	8233	532019	0	0
2024-09-30 12:40:47			0	38731	0	0	0	23049	21610	157885	27046	1058799	46475	108489	0	0	8233	532212	0	0
2024-09-30 12:41:47			0	38726	0	0	0	23044	21620	157848	27119	1058781	46464	108487	0	0	8232	532374	0	0
2024-09-30 12:42:47			0	38720	0	0	0	23046	21620	157752	26951	1058790	46454	108488	0	0	8232	532605	0	0
2024-09-30 12:43:47			0	38746	0	0	0	23049	21620	157893	27118	1058817	46464	108489	0	0	8233	531605	0	0
2024-09-30 12:44:47			0	38732	0	0	0	23051	21620	157885	26885	1058817	46464	108490	0	0	8233	532143	0	0
2024-09-30 12:45:47			0	38759	0	0	0	23049	21620	157837	26916	1058834	46464	108489	0	0	8234	531106	0	0
2024-09-30 12:46:47			0	38775	0	0	0	23059	21620	157669	27053	1058781	46464	108493	0	0	8235	530492	0	0
2024-09-30 12:47:47			0	38796	0	0	0	23067	21620	157617	27159	1058817	46464	108496	0	0	8236	529686	0	0
2024-09-30 12:48:47			0	38808	0	0	0	23054	21620	157601	27010	1058870	46464	108491	0	0	8237	529226	0	0
2024-09-30 12:49:47			0	38808	0	0	0	23046	21630	157537	26802	1058888	46466	108488	0	0	8237	529197	0	0
2024-09-30 12:50:47			0	38801	0	0	0	23051	21630	157661	26956	1058879	46455	108490	0	0	8237	529465	0	0
2024-09-30 12:51:47			0	38779	0	0	0	23059	21630	157701	27008	1058879	46476	108493	0	0	8235	530309	0	0
2024-09-30 12:52:47			0	38783	0	0	0	23057	21630	157673	26901	1058905	46476	108492	0	0	8236	530155	0	0
2024-09-30 12:53:47			0	38789	0	0	0	23059	21630	157701	26809	1058852	46465	108493	0	0	8236	529925	0	0
2024-09-30 12:54:47			0	38776	0	0	0	23059	21630	157701	26802	1058941	46477	108493	0	0	8235	530424	0	0
2024-09-30 12:55:47			0	38757	0	0	0	23051	21630	157801	27097	1058888	46466	108490	0	0	8234	531153	0	0
2024-09-30 12:56:47			0	38747	0	0	0	23062	21630	157841	27353	1058888	46456	108494	0	0	8233	531537	0	0
2024-09-30 12:57:47			0	38737	0	0	0	23059	21630	157901	27007	1058888	46488	108493	0	0	8233	531922	0	0
2024-09-30 12:58:47			0	38726	0	0	0	23075	21630	157824	27197	1058914	46466	108499	0	0	8232	532344	0	0
2024-09-30 12:59:47			0	38747	0	0	0	23070	21640	157893	27201	1058906	46477	108497	0	0	8233	531508	0	0
2024-09-30 13:00:47			0	38735	0	0	0	23077	21640	157893	27384	1058950	46466	108500	0	0	8232	531969	0	0
2024-09-30 13:01:47			0	38749	0	0	0	23085	21630	157909	27478	1058968	46466	108503	0	0	8233	531460	0	0
2024-09-30 13:02:47			0	38782	0	0	0	23085	21640	157761	27452	1058977	46466	108503	0	0	8235	530164	0	0
2024-09-30 13:03:47			0	38796	0	0	0	23093	21650	157705	27428	1059048	46478	108506	0	0	8236	529598	0	0
2024-09-30 13:04:47			0	38800	0	0	0	23098	21640	157613	27237	1059039	46466	108508	0	0	8236	529474	0	0
2024-09-30 13:05:47			0	38797	0	0	0	23085	21650	157593	27157	1058995	46467	108503	0	0	8236	529559	0	0
2024-09-30 13:06:47			0	38797	0	0	0	23101	21650	157517	27211	1059004	46479	108509	0	0	8236	529559	0	0
2024-09-30 13:07:47			0	38828	0	0	0	23093	21640	157637	27171	1059039	46477	108506	0	0	8238	528401	0	0
2024-09-30 13:08:47			0	38829	0	0	0	23101	21670	157577	27379	1059084	46480	108509	0	0	8238	528275	0	0
2024-09-30 13:09:47			0	38828	0	0	0	23090	21660	157553	27443	1059013	46468	108505	0	0	8238	528342	0	0
2024-09-30 13:10:47			0	38840	0	0	0	23098	21670	157445	27260	1059110	46458	108508	0	0	8238	527854	0	0
2024-09-30 13:11:47			0	38817	0	0	0	23101	21670	157601	27391	1059110	46469	108509	0	0	8237	528734	0	0
2024-09-30 13:12:47			0	38840	0	0	0	23103	21670	157373	27691	1059084	46480	108510	0	0	8238	527854	0	0
2024-09-30 13:13:47			0	38835	0	0	0	23119	21660	157449	27393	1059101	46479	108516	0	0	8238	528074	0	0
2024-09-30 13:14:47			0	38866	0	0	0	23114	21660	157281	27359	1059128	46479	108514	0	0	8239	526889	0	0
2024-09-30 13:15:47			0	38886	0	0	0	23119	21670	157405	27379	1059146	46459	108516	0	0	8241	526096	0	0
2024-09-30 13:16:47			0	38922	0	0	0	23122	21680	157253	27767	1059084	46460	108517	0	0	8243	524693	0	0
2024-09-30 13:17:47			0	38922	0	0	0	23116	21680	157101	27294	1059137	46482	108515	0	0	8243	524693	0	0
2024-09-30 13:18:47			0	38945	0	0	0	23122	21690	157125	27670	1059173	46493	108517	0	0	8244	523787	0	0
2024-09-30 13:19:47			0	38955	0	0	0	23132	21690	157133	27431	1059146	46471	108521	0	0	8244	523407	0	0
2024-09-30 13:20:47			0	38937	0	0	0	23114	21690	157069	27492	1059226	46482	108514	0	0	8244	524092	0	0
2024-09-30 13:21:47			0	38939	0	0	0	23119	21690	157105	27265	1059173	46471	108516	0	0	8244	524016	0	0
2024-09-30 13:22:47			0	38928	0	0	0	23109	21690	157049	27286	1059155	46472	108512	0	0	8243	524435	0	0
2024-09-30 13:23:47			0	38915	0	0	0	23109	21690	157165	27208	1059173	46471	108512	0	0	8243	524931	0	0
2024-09-30 13:24:47			0	38919	0	0	0	23109	21690	157173	27303	1059200	46482	108512	0	0	8243	524778	0	0
2024-09-30 13:25:47			0	38909	0	0	0	23122	21700	157181	27462	1059217	46483	108517	0	0	8242	525130	0	0
2024-09-30 13:26:47			0	38900	0	0	0	23114	21690	157165	27180	1059209	46472	108514	0	0	8242	525503	0	0
2024-09-30 13:27:47			0	38894	0	0	0	23122	21690	157233	27241	1059155	46472	108517	0	0	8241	525732	0	0
2024-09-30 13:28:47			0	38914	0	0	0	23140	21710	157149	27225	1059227	46462	108524	0	0	8242	524910	0	0
2024-09-30 13:29:47			0	38933	0	0	0	23137	21700	157129	27348	1059217	46472	108523	0	0	8243	524215	0	0
2024-09-30 13:30:47			0	38978	0	0	0	23140	21710	156945	27492	1059253	46484	108524	0	0	8246	522473	0	0
2024-09-30 13:31:47			0	39010	0	0	0	23153	21710	156837	27426	1059253	46473	108529	0	0	8247	521258	0	0
2024-09-30 13:32:47			0	39033	0	0	0	23161	21710	156665	27523	1059253	46473	108532	0	0	8249	520385	0	0
2024-09-30 13:33:47			0	39026	0	0	0	23155	21710	156561	27518	1059289	46473	108530	0	0	8248	520650	0	0
2024-09-30 13:34:47			0	39034	0	0	0	23150	21720	156481	27208	1059271	46474	108528	0	0	8249	520318	0	0
2024-09-30 13:35:47			0	39046	0	0	0	23161	21720	156533	27003	1059298	46485	108532	0	0	8249	519863	0	0
2024-09-30 13:36:47			0	39065	0	0	0	23155	21720	156505	27071	1059378	46474	108530	0	0	8251	519143	0	0
2024-09-30 13:37:47			0	39064	0	0	0	23163	21730	156477	27274	1059352	46475	108533	0	0	8250	519152	0	0
2024-09-30 13:38:47			0	39099	0	0	0	23161	21740	156397	27263	1059387	46487	108532	0	0	8253	517798	0	0
2024-09-30 13:39:47			0	39083	0	0	0	23171	21730	156213	27272	1059369	46486	108536	0	0	8251	518432	0	0
2024-09-30 13:40:47			0	39100	0	0	0	23168	21720	156321	27012	1059360	46486	108535	0	0	8252	517818	0	0
2024-09-30 13:41:47			0	39119	0	0	0	23171	21740	156285	27434	1059414	46476	108536	0	0	8254	517042	0	0
2024-09-30 13:42:47			0	39117	0	0	0	23168	21740	156281	27157	1059440	46476	108535	0	0	8253	517118	0	0
2024-09-30 13:43:47			0	39133	0	0	0	23174	21740	156181	27353	1059423	46488	108537	0	0	8254	516513	0	0
2024-09-30 13:44:47			0	39167	0	0	0	23186	21750	156085	27083	1059458	46488	108542	0	0	8256	515202	0	0
2024-09-30 13:45:47			0	39177	0	0	0	23166	21740	156041	27268	1059423	46477	108534	0	0	8257	514853	0	0
2024-09-30 13:46:47			0	39167	0	0	0	23171	21750	156093	27362	1059467	46467	108536	0	0	8256	515202	0	0
2024-09-30 13:47:47			0	39192	0	0	0	23174	21750	155977	27235	1059521	46489	108537	0	0	8258	514259	0	0
2024-09-30 13:48:47			0	39215	0	0	0	23189	21750	155881	27216	1059441	46489	108543	0	0	8259	513393	0	0
2024-09-30 13:49:47			0	39207	0	0	0	23176	21750	155949	27232	1059494	46489	108538	0	0	8259	513695	0	0
2024-09-30 13:50:47			0	39205	0	0	0	23171	21760	155993	27093	1059503	46489	108536	0	0	8259	513741	0	0
2024-09-30 13:51:47			0	39194	0	0	0	23186	21760	156005	27130	1059512	46468	108542	0	0	8258	514155	0	0
2024-09-30 13:52:47			0	39213	0	0	0	23189	21760	155993	27279	1059512	46490	108543	0	0	8259	513440	0	0
2024-09-30 13:53:47			0	39209	0	0	0	23186	21760	155829	27157	1059503	46478	108542	0	0	8259	513591	0	0
2024-09-30 13:54:47			0	39210	0	0	0	23192	21760	155905	27111	1059539	46490	108544	0	0	8259	513553	0	0
2024-09-30 13:55:47			0	39244	0	0	0	23197	21770	155737	27358	1059548	46490	108546	0	0	8260	512246	0	0
2024-09-30 13:56:47			0	39289	0	0	0	23202	21760	155657	26989	1059512	46468	108548	0	0	8263	510585	0	0
2024-09-30 13:57:47			0	39311	0	0	0	23199	21770	155453	27225	1059468	46490	108547	0	0	8264	509732	0	0
2024-09-30 13:58:47			0	39322	0	0	0	23205	21770	155389	27417	1059574	46479	108549	0	0	8265	509320	0	0
2024-09-30 13:59:47			0	39326	0	0	0	23210	21770	155501	27104	1059574	46479	108551	0	0	8265	509170	0	0
2024-09-30 14:00:47			0	39295	0	0	0	23199	21780	155573	27493	1059539	46480	108547	0	0	8263	510303	0	0
2024-09-30 14:01:47			0	39302	0	0	0	23199	21770	155577	27177	1059610	46491	108547	0	0	8264	510069	0	0
2024-09-30 14:02:47			0	39302	0	0	0	23199	21780	155541	27024	1059601	46481	108547	0	0	8264	510041	0	0
2024-09-30 14:03:47			0	39265	0	0	0	23202	21790	155717	27279	1059610	46481	108548	0	0	8262	511400	0	0
2024-09-30 14:04:47			0	39299	0	0	0	23199	21780	155597	27038	1059619	46469	108547	0	0	8264	510153	0	0
2024-09-30 14:05:47			0	39270	0	0	0	23205	21780	155745	27490	1059592	46480	108549	0	0	8262	511241	0	0
2024-09-30 14:06:47			0	39248	0	0	0	23199	21790	155797	27426	1059583	46470	108547	0	0	8261	512039	0	0
2024-09-30 14:07:47			0	39258	0	0	0	23218	21780	155593	27524	1059628	46481	108554	0	0	8261	511691	0	0
2024-09-30 14:08:47			0	39270	0	0	0	23215	21780	155665	27118	1059601	46470	108553	0	0	8262	511241	0	0
2024-09-30 14:09:47			0	39313	0	0	0	23215	21790	155601	27176	1059637	46481	108553	0	0	8264	509600	0	0
2024-09-30 14:10:47			0	39322	0	0	0	23220	21790	155561	27305	1059610	46492	108555	0	0	8265	509263	0	0
2024-09-30 14:11:47			0	39336	0	0	0	23220	21800	155461	27398	1059655	46493	108555	0	0	8265	508711	0	0
2024-09-30 14:12:47			0	39318	0	0	0	23215	21780	155425	27587	1059654	46502	108553	0	0	8264	509441	0	0
2024-09-30 14:13:47			0	39326	0	0	0	23223	21800	155549	27154	1059690	46494	108556	0	0	8265	509085	0	0
2024-09-30 14:14:47			0	39323	0	0	0	23225	21800	155573	27488	1059681	46482	108557	0	0	8265	509197	0	0
2024-09-30 14:15:47			0	39305	0	0	0	23220	21790	155617	27013	1059619	46482	108555	0	0	8264	509900	0	0
2024-09-30 14:16:47			0	39294	0	0	0	23220	21800	155661	27656	1059797	46483	108555	0	0	8263	510284	0	0
2024-09-30 14:17:47			0	39300	0	0	0	23225	21800	155677	27407	1059735	46482	108557	0	0	8263	510059	0	0
2024-09-30 14:18:47			0	39306	0	0	0	23220	21800	155641	27511	1059717	46483	108555	0	0	8264	509834	0	0
2024-09-30 14:19:47			0	39302	0	0	0	23218	21800	155681	27232	1059708	46482	108554	0	0	8264	509984	0	0
2024-09-30 14:20:47			0	39284	0	0	0	23215	21800	155617	27123	1059717	46483	108553	0	0	8263	510659	0	0
2024-09-30 14:21:47			0	39265	0	0	0	23225	21800	155693	27500	1059770	46494	108557	0	0	8261	511372	0	0
2024-09-30 14:22:47			0	39258	0	0	0	23241	21800	155697	27384	1059690	46494	108563	0	0	8261	511635	0	0
2024-09-30 14:23:47			0	39274	0	0	0	23241	21810	155729	27317	1059726	46494	108563	0	0	8262	511006	0	0
2024-09-30 14:24:47			0	39285	0	0	0	23244	21800	155621	27152	1059690	46494	108564	0	0	8262	510621	0	0
2024-09-30 14:25:47			0	39293	0	0	0	23236	21800	155605	27379	1059770	46483	108561	0	0	8263	510321	0	0
2024-09-30 14:26:47			0	39293	0	0	0	23236	21810	155629	27414	1059761	46484	108561	0	0	8263	510293	0	0
2024-09-30 14:27:47			0	39314	0	0	0	23238	21810	155661	27505	1059779	46483	108562	0	0	8264	509506	0	0
2024-09-30 14:28:47			0	39315	0	0	0	23244	21820	155637	27396	1059797	46485	108564	0	0	8264	509440	0	0
2024-09-30 14:29:47			0	39322	0	0	0	23244	21820	155569	27383	1059797	46496	108564	0	0	8264	509178	0	0
2024-09-30 14:30:47			0	39311	0	0	0	23238	21830	155617	27653	1059762	46486	108562	0	0	8264	509561	0	0
2024-09-30 14:31:47			0	39308	0	0	0	23236	21820	155525	27516	1059806	46485	108561	0	0	8264	509702	0	0
2024-09-30 14:32:47			0	39302	0	0	0	23241	21830	155617	27608	1059788	46475	108563	0	0	8263	509899	0	0
2024-09-30 14:33:47			0	39317	0	0	0	23236	21830	155549	27447	1059815	46497	108561	0	0	8264	509337	0	0
2024-09-30 14:34:47			0	39289	0	0	0	23241	21830	155601	27346	1059815	46497	108563	0	0	8263	510386	0	0
2024-09-30 14:35:47			0	39302	0	0	0	23233	21830	155537	27338	1059868	46486	108560	0	0	8263	509899	0	0
2024-09-30 14:36:47			0	39304	0	0	0	23233	21820	155613	27519	1059753	46485	108560	0	0	8263	509852	0	0
2024-09-30 14:37:47			0	39295	0	0	0	23236	21830	155601	27336	1059735	46475	108561	0	0	8263	510161	0	0
2024-09-30 14:38:47			0	39279	0	0	0	23241	21830	155637	27426	1059868	46486	108563	0	0	8262	510761	0	0
2024-09-30 14:39:47			0	39300	0	0	0	23257	21830	155553	27275	1059824	46497	108569	0	0	8263	509974	0	0
2024-09-30 14:40:47			0	39303	0	0	0	23264	21830	155497	27492	1059824	46475	108572	0	0	8263	509861	0	0
2024-09-30 14:41:47			0	39355	0	0	0	23259	21830	155285	27308	1059851	46497	108570	0	0	8266	507915	0	0
2024-09-30 14:42:47			0	39387	0	0	0	23264	21840	155261	27150	1059896	46498	108572	0	0	8268	506691	0	0
2024-09-30 14:43:47			0	39415	0	0	0	23264	21840	155069	27407	1059807	46509	108572	0	0	8269	505646	0	0
2024-09-30 14:44:47			0	39433	0	0	0	23267	21840	155046	26934	1059913	46498	108573	0	0	8270	504975	0	0
2024-09-30 14:45:47			0	39458	0	0	0	23259	21840	155014	27001	1059869	46487	108570	0	0	8272	504044	0	0
2024-09-30 14:46:47			0	39440	0	0	0	23249	21850	154922	27390	1059905	46488	108566	0	0	8271	504686	0	0
2024-09-30 14:47:47			0	39409	0	0	0	23259	21830	155113	27265	1059798	46475	108570	0	0	8269	505898	0	0
2024-09-30 14:48:47			0	39393	0	0	0	23257	21840	155185	27414	1059940	46487	108569	0	0	8268	506467	0	0
2024-09-30 14:49:47			0	39394	0	0	0	23259	21840	155185	27445	1059887	46476	108570	0	0	8268	506430	0	0
2024-09-30 14:50:47			0	39376	0	0	0	23275	21840	155365	27431	1059833	46487	108576	0	0	8267	507102	0	0
2024-09-30 14:51:47			0	39366	0	0	0	23262	21850	155261	27540	1059958	46488	108571	0	0	8267	507447	0	0
2024-09-30 14:52:47			0	39351	0	0	0	23262	21840	155381	27286	1059842	46498	108571	0	0	8266	508036	0	0
2024-09-30 14:53:47			0	39360	0	0	0	23262	21840	155261	27154	1059913	46498	108571	0	0	8266	507700	0	0
2024-09-30 14:54:47			0	39371	0	0	0	23280	21850	155297	27171	1059931	46499	108578	0	0	8267	507260	0	0
2024-09-30 14:55:47			0	39379	0	0	0	23290	21850	155233	27563	1059985	46488	108582	0	0	8267	506962	0	0
2024-09-30 14:56:47			0	39404	0	0	0	23283	21860	155205	27483	1059976	46500	108579	0	0	8269	506000	0	0
2024-09-30 14:57:47			0	39420	0	0	0	23290	21850	155205	27371	1059905	46477	108582	0	0	8269	505432	0	0
2024-09-30 14:58:47			0	39417	0	0	0	23285	21860	155229	27647	1059949	46489	108580	0	0	8269	505515	0	0
2024-09-30 14:59:47			0	39416	0	0	0	23290	21860	155061	27426	1060003	46489	108582	0	0	8269	505553	0	0
2024-09-30 15:00:47			0	39437	0	0	0	23301	21860	154986	27511	1060029	46500	108586	0	0	8270	504770	0	0
2024-09-30 15:01:47			0	39453	0	0	0	23296	21860	154906	27505	1060029	46500	108584	0	0	8271	504174	0	0
2024-09-30 15:02:47			0	39450	0	0	0	23301	21860	154954	27164	1060065	46500	108586	0	0	8271	504286	0	0
2024-09-30 15:03:47			0	39450	0	0	0	23306	21870	154942	27447	1060056	46500	108588	0	0	8271	504258	0	0
2024-09-30 15:04:47			0	39469	0	0	0	23303	21870	154858	27090	1060056	46500	108587	0	0	8272	503551	0	0
2024-09-30 15:05:47			0	39473	0	0	0	23303	21870	154798	27322	1060056	46479	108587	0	0	8272	503402	0	0
2024-09-30 15:06:47			0	39443	0	0	0	23306	21870	154994	27300	1060074	46490	108588	0	0	8270	504518	0	0
2024-09-30 15:07:47			0	39393	0	0	0	23303	21880	155113	27495	1060047	46492	108587	0	0	8268	506354	0	0
2024-09-30 15:08:47			0	39351	0	0	0	23316	21880	155257	27312	1060092	46501	108592	0	0	8265	507923	0	0
2024-09-30 15:09:47			0	39333	0	0	0	23322	21880	155333	27255	1060065	46501	108594	0	0	8264	508596	0	0
2024-09-30 15:10:47			0	39338	0	0	0	23335	21880	155293	27583	1060207	46502	108599	0	0	8264	508409	0	0
2024-09-30 15:11:47			0	39366	0	0	0	23335	21890	155245	27395	1060110	46492	108599	0	0	8266	507334	0	0
2024-09-30 15:12:47			0	39375	0	0	0	23329	21890	155157	27365	1060136	46514	108597	0	0	8266	506998	0	0
2024-09-30 15:13:47			0	39377	0	0	0	23324	21890	155153	27531	1060163	46502	108595	0	0	8266	506923	0	0
2024-09-30 15:14:47			0	39336	0	0	0	23337	21900	155357	27377	1060208	46503	108600	0	0	8264	508427	0	0
2024-09-30 15:15:47			0	39284	0	0	0	23332	21890	155565	27415	1060172	46502	108598	0	0	8261	510403	0	0
2024-09-30 15:16:47			0	39244	0	0	0	23314	21890	155689	27438	1060199	46481	108591	0	0	8259	511904	0	0
2024-09-30 15:17:47			0	39174	0	0	0	23340	21890	155789	27365	1060119	46470	108601	0	0	8254	514536	0	0
2024-09-30 15:18:47			0	39141	0	0	0	23322	21890	155945	27521	1060199	46502	108594	0	0	8253	515780	0	0
2024-09-30 15:19:47			0	39127	0	0	0	23358	21900	156077	27639	1060181	46503	108608	0	0	8252	516280	0	0
2024-09-30 15:20:47			0	39120	0	0	0	23342	21900	156097	27225	1060270	46504	108602	0	0	8251	516544	0	0
2024-09-30 15:21:47			0	39102	0	0	0	23332	21910	156085	27464	1060172	46504	108598	0	0	8251	517195	0	0
2024-09-30 15:22:47			0	39077	0	0	0	23319	21910	156301	27637	1060199	46494	108593	0	0	8249	518140	0	0
2024-09-30 15:23:47			0	39050	0	0	0	23280	21900	156369	27248	1060190	46494	108578	0	0	8248	519190	0	0
2024-09-30 15:24:47			0	39001	0	0	0	23293	21900	156497	27331	1060110	46483	108583	0	0	8245	521048	0	0
2024-09-30 15:25:47			0	38977	0	0	0	23293	21900	156605	27296	1060110	46494	108583	0	0	8244	521959	0	0
2024-09-30 15:26:47			0	38930	0	0	0	23277	21900	156777	27443	1060154	46503	108577	0	0	8242	523746	0	0
2024-09-30 15:27:47			0	38907	0	0	0	23280	21890	156933	27289	1060056	46492	108578	0	0	8240	524651	0	0
2024-09-30 15:28:47			0	38907	0	0	0	23267	21900	156945	27668	1060074	46482	108573	0	0	8240	524622	0	0
2024-09-30 15:29:47			0	38854	0	0	0	23262	21890	157077	27415	1060056	46481	108571	0	0	8237	526673	0	0
2024-09-30 15:30:47			0	38829	0	0	0	23254	21880	157125	27256	1060012	46480	108568	0	0	8236	527657	0	0
2024-09-30 15:31:47			0	38793	0	0	0	23238	21890	157329	27282	1060003	46470	108562	0	0	8234	529005	0	0
2024-09-30 15:32:47			0	38761	0	0	0	23236	21860	157529	27672	1060011	46468	108561	0	0	8232	530320	0	0
2024-09-30 15:33:47			0	38736	0	0	0	23236	21860	157649	27767	1059931	46490	108561	0	0	8231	531279	0	0
2024-09-30 15:34:47			0	38697	0	0	0	23228	21860	157740	27431	1059869	46478	108558	0	0	8229	532778	0	0
2024-09-30 15:35:47			0	38673	0	0	0	23225	21850	157876	27164	1059914	46466	108557	0	0	8227	533731	0	0
2024-09-30 15:36:47			0	38650	0	0	0	23212	21850	158004	27564	1059834	46466	108552	0	0	8226	534617	0	0
2024-09-30 15:37:47			0	38652	0	0	0	23215	21840	158064	27140	1059896	46487	108553	0	0	8226	534570	0	0
2024-09-30 15:38:47			0	38612	0	0	0	23207	21840	158076	27391	1059753	46465	108550	0	0	8224	536112	0	0
2024-09-30 15:39:47			0	38596	0	0	0	23194	21850	158148	27286	1059771	46477	108545	0	0	8223	536700	0	0
2024-09-30 15:40:47			0	38580	0	0	0	23205	21830	158256	27031	1059771	46464	108549	0	0	8222	537379	0	0
2024-09-30 15:41:47			0	38570	0	0	0	23194	21840	158372	27315	1059780	46476	108545	0	0	8222	537735	0	0
2024-09-30 15:42:47			0	38550	0	0	0	23184	21810	158416	27150	1059655	46462	108541	0	0	8221	538599	0	0
2024-09-30 15:43:47			0	38527	0	0	0	23199	21820	158508	27154	1059770	46474	108547	0	0	8219	539460	0	0
2024-09-30 15:44:47			0	38504	0	0	0	23192	21810	158664	27320	1059699	46472	108544	0	0	8218	540382	0	0
2024-09-30 15:45:47			0	38483	0	0	0	23186	21810	158640	27379	1059673	46472	108542	0	0	8217	541197	0	0
2024-09-30 15:46:47			0	38468	0	0	0	23184	21810	158652	27319	1059673	46472	108541	0	0	8216	541780	0	0
2024-09-30 15:47:47			0	38475	0	0	0	23186	21810	158816	27256	1059708	46473	108542	0	0	8216	541508	0	0
2024-09-30 15:48:47			0	38469	0	0	0	23197	21790	158788	27291	1059637	46481	108546	0	0	8216	541801	0	0
2024-09-30 15:49:47			0	38474	0	0	0	23189	21800	158740	27251	1059628	46482	108543	0	0	8216	541577	0	0
2024-09-30 15:50:47			0	38485	0	0	0	23186	21800	158800	27215	1059628	46471	108542	0	0	8217	541149	0	0
2024-09-30 15:51:47			0	38483	0	0	0	23194	21800	158808	27672	1059628	46482	108545	0	0	8217	541227	0	0
2024-09-30 15:52:47			0	38477	0	0	0	23161	21790	158672	27230	1059557	46459	108532	0	0	8217	541490	0	0
2024-09-30 15:53:47			0	38489	0	0	0	23174	21790	158776	27204	1059583	46470	108537	0	0	8217	541024	0	0
2024-09-30 15:54:47			0	38448	0	0	0	23176	21780	158884	27124	1059521	46481	108538	0	0	8215	542647	0	0
2024-09-30 15:55:47			0	38438	0	0	0	23158	21770	158960	27267	1059556	46480	108531	0	0	8214	543067	0	0
2024-09-30 15:56:47			0	38415	0	0	0	23150	21770	159072	27222	1059503	46491	108528	0	0	8213	543962	0	0
2024-09-30 15:57:47			0	38416	0	0	0	23176	21760	159068	27237	1059512	46479	108538	0	0	8213	543954	0	0
2024-09-30 15:58:47			0	38407	0	0	0	23153	21770	159048	27307	1059521	46479	108529	0	0	8213	544274	0	0
2024-09-30 15:59:47			0	38407	0	0	0	23166	21770	159144	27171	1059556	46480	108534	0	0	8212	544274	0	0
2024-09-30 16:00:47			0	38396	0	0	0	23145	21760	159032	27415	1059423	46478	108526	0	0	8212	544733	0	0
2024-09-30 16:01:47			0	38381	0	0	0	23135	21760	159156	27549	1059432	46479	108522	0	0	8211	545318	0	0
2024-09-30 16:02:47			0	38339	0	0	0	23127	21760	159316	27346	1059405	46468	108519	0	0	8209	546958	0	0
2024-09-30 16:03:47			0	38321	0	0	0	23129	21740	159560	27029	1059423	46488	108520	0	0	8208	547723	0	0
2024-09-30 16:04:47			0	38325	0	0	0	23116	21750	159420	27325	1059378	46466	108515	0	0	8208	547536	0	0
2024-09-30 16:05:47			0	38305	0	0	0	23101	21750	159508	27360	1059352	46466	108509	0	0	8208	548319	0	0
2024-09-30 16:06:47			0	38273	0	0	0	23103	21730	159616	27467	1059352	46453	108510	0	0	8206	549634	0	0
2024-09-30 16:07:47			0	38216	0	0	0	23114	21740	159832	27208	1059387	46454	108514	0	0	8202	551841	0	0
2024-09-30 16:08:47			0	38202	0	0	0	23088	21730	160048	27357	1059316	46464	108504	0	0	8202	552422	0	0
2024-09-30 16:09:47			0	38156	0	0	0	23080	21720	160012	27517	1059200	46464	108501	0	0	8199	554264	0	0
2024-09-30 16:10:47			0	38151	0	0	0	23088	21720	160072	27319	1059200	46464	108504	0	0	8199	554461	0	0
2024-09-30 16:11:47			0	38130	0	0	0	23080	21710	160224	27310	1059147	46462	108501	0	0	8197	555320	0	0
2024-09-30 16:12:47			0	38131	0	0	0	23083	21690	160300	27173	1059182	46461	108502	0	0	8197	555342	0	0
2024-09-30 16:13:47			0	38097	0	0	0	23075	21700	160324	27275	1059084	46450	108499	0	0	8196	556654	0	0
2024-09-30 16:14:47			0	38082	0	0	0	23077	21690	160536	27315	1059093	46460	108500	0	0	8195	557278	0	0
2024-09-30 16:15:47			0	38081	0	0	0	23088	21690	160584	27251	1059155	46461	108504	0	0	8194	557318	0	0
2024-09-30 16:16:47			0	38090	0	0	0	23080	21690	160460	27227	1059093	46460	108501	0	0	8195	556962	0	0
2024-09-30 16:17:47			0	38078	0	0	0	23080	21680	160472	27256	1059137	46460	108501	0	0	8194	557467	0	0
2024-09-30 16:18:47			0	38089	0	0	0	23083	21670	160576	27339	1059119	46459	108502	0	0	8195	557063	0	0
2024-09-30 16:19:47			0	38052	0	0	0	23075	21670	160472	27121	1059093	46481	108499	0	0	8193	558528	0	0
2024-09-30 16:20:47			0	38049	0	0	0	23025	21670	160616	27467	1059066	46481	108480	0	0	8193	558646	0	0
2024-09-30 16:21:47			0	38023	0	0	0	22992	21670	160731	27237	1059013	46459	108467	0	0	8193	559677	0	0
2024-09-30 16:22:47			0	37968	0	0	0	22999	21660	160915	27150	1058959	46458	108470	0	0	8189	561892	0	0
2024-09-30 16:23:47			0	37946	0	0	0	23005	21650	161095	27229	1058808	46445	108472	0	0	8188	562799	0	0
2024-09-30 16:24:47			0	37908	0	0	0	23010	21630	161203	27346	1058879	46443	108474	0	0	8185	564375	0	0
2024-09-30 16:25:47			0	37921	0	0	0	23023	21640	161115	27201	1058897	46433	108479	0	0	8186	563825	0	0
2024-09-30 16:26:47			0	37892	0	0	0	22999	21620	161355	27083	1058843	46442	108470	0	0	8184	565045	0	0
2024-09-30 16:27:47			0	37885	0	0	0	23007	21620	161327	27161	1058817	46442	108473	0	0	8184	565324	0	0
2024-09-30 16:28:47			0	37865	0	0	0	23010	21610	161423	27351	1058799	46454	108474	0	0	8183	566154	0	0
2024-09-30 16:29:47			0	37874	0	0	0	23038	21620	161331	27319	1058781	46454	108485	0	0	8183	565763	0	0
2024-09-30 16:30:47			0	37907	0	0	0	23031	21610	161255	27367	1058745	46442	108482	0	0	8185	564478	0	0
2024-09-30 16:31:47			0	37937	0	0	0	23028	21610	161207	27222	1058790	46463	108481	0	0	8187	563282	0	0
2024-09-30 16:32:47			0	37943	0	0	0	23023	21610	161231	27163	1058799	46454	108479	0	0	8187	563043	0	0
2024-09-30 16:33:47			0	37937	0	0	0	23010	21610	161047	26965	1058843	46474	108474	0	0	8187	563282	0	0
2024-09-30 16:34:47			0	37945	0	0	0	23012	21610	161095	27261	1058772	46464	108475	0	0	8187	562964	0	0
2024-09-30 16:35:47			0	37921	0	0	0	23025	21600	161203	27331	1058772	46451	108480	0	0	8186	563951	0	0
2024-09-30 16:36:47			0	37941	0	0	0	23023	21590	161143	27376	1058781	46461	108479	0	0	8187	563185	0	0
2024-09-30 16:37:47			0	37973	0	0	0	23007	21600	161047	27050	1058745	46451	108473	0	0	8189	561881	0	0
2024-09-30 16:38:47			0	37986	0	0	0	22999	21590	161047	27244	1058736	46451	108470	0	0	8190	561395	0	0
2024-09-30 16:39:47			0	37996	0	0	0	23020	21590	160951	27289	1058763	46451	108478	0	0	8190	560998	0	0
2024-09-30 16:40:47			0	38033	0	0	0	23023	21590	160796	27500	1058710	46451	108479	0	0	8192	559529	0	0
2024-09-30 16:41:47			0	38083	0	0	0	23140	21590	160568	27218	1058710	46451	108524	0	0	8193	557549	0	0
2024-09-30 16:42:47			0	38153	0	0	0	23202	21590	160404	27267	1058816	46472	108548	0	0	8196	554783	0	0
2024-09-30 16:43:47			0	38240	0	0	0	23238	21600	159924	27395	1058878	46483	108562	0	0	8201	551327	0	0
2024-09-30 16:44:47			0	38412	0	0	0	23257	21610	159344	27133	1058985	46498	108569	0	0	8210	544564	0	0
2024-09-30 16:45:47			0	38502	0	0	0	23275	21620	158984	26974	1059110	46508	108576	0	0	8215	541031	0	0
2024-09-30 16:46:47			0	38591	0	0	0	23288	21650	158628	27256	1059234	46522	108581	0	0	8221	537492	0	0
2024-09-30 16:47:47			0	38674	0	0	0	23296	21660	158260	27168	1059315	46512	108584	0	0	8225	534257	0	0
2024-09-30 16:48:47			0	38751	0	0	0	23251	21670	158017	27154	1059333	46503	108567	0	0	8231	531265	0	0
2024-09-30 16:49:47			0	38781	0	0	0	23283	21670	157845	27265	1059306	46481	108579	0	0	8232	530114	0	0
2024-09-30 16:50:47			0	38803	0	0	0	23270	21680	157737	27332	1059262	46481	108574	0	0	8233	529241	0	0
2024-09-30 16:51:47			0	38833	0	0	0	23262	21670	157525	27090	1059226	46481	108571	0	0	8235	528122	0	0
2024-09-30 16:52:47			0	38858	0	0	0	23259	21680	157497	27445	1059217	46482	108570	0	0	8237	527136	0	0
2024-09-30 16:53:47			0	38877	0	0	0	23257	21670	157437	27386	1059253	46470	108569	0	0	8238	526439	0	0
2024-09-30 16:54:47			0	38868	0	0	0	23225	21680	157425	27246	1059182	46492	108557	0	0	8238	526754	0	0
2024-09-30 16:55:47			0	38882	0	0	0	23225	21680	157357	27448	1059128	46459	108557	0	0	8239	526219	0	0
2024-09-30 16:56:47			0	38870	0	0	0	23264	21670	157349	27183	1059190	46458	108572	0	0	8237	526707	0	0
2024-09-30 16:57:47			0	38889	0	0	0	23257	21660	157317	27114	1059155	46458	108569	0	0	8238	526010	0	0
2024-09-30 16:58:47			0	38900	0	0	0	23212	21660	157241	26948	1059128	46490	108552	0	0	8240	525590	0	0
2024-09-30 16:59:47			0	38901	0	0	0	23207	21650	157317	26944	1059004	46468	108550	0	0	8240	525581	0	0
2024-09-30 17:00:47			0	38892	0	0	0	23264	21640	157237	26786	1059066	46477	108572	0	0	8238	525954	0	0
2024-09-30 17:01:47			0	38890	0	0	0	23272	21660	157245	27085	1059093	46490	108575	0	0	8238	525972	0	0
2024-09-30 17:02:47			0	38911	0	0	0	23272	21650	157201	27178	1059101	46478	108575	0	0	8239	525200	0	0
2024-09-30 17:03:47			0	38918	0	0	0	23280	21670	157109	27213	1059217	46491	108578	0	0	8240	524875	0	0
2024-09-30 17:04:47			0	38912	0	0	0	23270	21670	157133	27460	1059324	46513	108574	0	0	8240	525103	0	0
2024-09-30 17:05:47			0	38934	0	0	0	23283	21680	157193	27166	1059351	46504	108579	0	0	8241	524236	0	0
2024-09-30 17:06:47			0	38916	0	0	0	23277	21710	157137	27112	1059413	46539	108577	0	0	8240	524834	0	0
2024-09-30 17:07:47			0	38945	0	0	0	23275	21720	157133	27041	1059511	46518	108576	0	0	8242	523700	0	0
2024-09-30 17:08:47			0	38941	0	0	0	23264	21730	157201	27251	1059556	46519	108572	0	0	8242	523823	0	0
2024-09-30 17:09:47			0	38928	0	0	0	23272	21740	157097	26859	1059600	46520	108575	0	0	8241	524289	0	0
2024-09-30 17:10:47			0	38912	0	0	0	23277	21750	157209	27159	1059565	46521	108577	0	0	8240	524870	0	0
2024-09-30 17:11:47			0	38905	0	0	0	23264	21750	157201	26944	1059592	46499	108572	0	0	8240	525137	0	0
2024-09-30 17:12:47			0	38875	0	0	0	23259	21750	157209	26878	1059512	46510	108570	0	0	8238	526281	0	0
2024-09-30 17:13:47			0	38881	0	0	0	23257	21750	157237	27015	1059521	46500	108569	0	0	8238	526052	0	0
2024-09-30 17:14:47			0	38867	0	0	0	23254	21750	157221	27176	1059538	46488	108568	0	0	8238	526587	0	0
2024-09-30 17:15:47			0	38866	0	0	0	23249	21750	157313	27291	1059458	46477	108566	0	0	8238	526625	0	0
2024-09-30 17:16:47			0	38852	0	0	0	23259	21740	157225	27055	1059494	46487	108570	0	0	8237	527189	0	0
2024-09-30 17:17:47			0	38873	0	0	0	23262	21750	157305	26896	1059458	46488	108571	0	0	8238	526358	0	0
2024-09-30 17:18:47			0	38877	0	0	0	23249	21740	157281	27105	1059387	46476	108566	0	0	8238	526234	0	0
2024-09-30 17:19:47			0	38849	0	0	0	23254	21730	157425	27225	1059343	46475	108568	0	0	8236	527333	0	0
2024-09-30 17:20:47			0	38873	0	0	0	23249	21720	157309	27156	1059334	46475	108566	0	0	8238	526446	0	0
2024-09-30 17:21:47			0	38859	0	0	0	23246	21720	157369	27142	1059325	46474	108565	0	0	8237	526980	0	0
2024-09-30 17:22:47			0	38868	0	0	0	23251	21720	157377	27072	1059325	46485	108567	0	0	8238	526637	0	0
2024-09-30 17:23:47			0	38883	0	0	0	23254	21710	157341	27144	1059396	46495	108568	0	0	8238	526093	0	0
2024-09-30 17:24:47			0	38878	0	0	0	23244	21720	157265	26868	1059440	46497	108564	0	0	8238	526255	0	0
2024-09-30 17:25:47			0	38873	0	0	0	23233	21730	157345	27216	1059503	46519	108560	0	0	8238	526416	0	0
2024-09-30 17:26:47			0	38840	0	0	0	23223	21730	157437	27196	1059591	46508	108556	0	0	8236	527678	0	0
2024-09-30 17:27:47			0	38839	0	0	0	23220	21750	157393	27488	1059592	46532	108555	0	0	8237	527657	0	0
2024-09-30 17:28:47			0	38843	0	0	0	23184	21750	157397	27453	1059654	46511	108541	0	0	8237	527504	0	0
2024-09-30 17:29:47			0	38811	0	0	0	23171	21760	157457	27114	1059610	46511	108536	0	0	8236	528699	0	0
2024-09-30 17:30:47			0	38792	0	0	0	23179	21760	157577	27187	1059610	46500	108539	0	0	8235	529427	0	0
2024-09-30 17:31:47			0	38778	0	0	0	23202	21760	157601	27255	1059610	46500	108548	0	0	8233	529963	0	0
2024-09-30 17:32:47			0	38784	0	0	0	23197	21770	157645	27156	1059628	46512	108546	0	0	8234	529704	0	0
2024-09-30 17:33:47			0	38779	0	0	0	23189	21760	157569	26963	1059619	46512	108543	0	0	8234	529925	0	0
2024-09-30 17:34:47			0	38784	0	0	0	23186	21770	157613	27317	1059574	46512	108542	0	0	8234	529704	0	0
2024-09-30 17:35:47			0	38773	0	0	0	23197	21780	157633	26987	1059654	46514	108546	0	0	8233	530096	0	0
2024-09-30 17:36:47			0	38784	0	0	0	23192	21770	157549	27118	1059663	46501	108544	0	0	8234	529704	0	0
2024-09-30 17:37:47			0	38782	0	0	0	23197	21770	157573	26972	1059583	46513	108546	0	0	8234	529780	0	0
2024-09-30 17:38:47			0	38787	0	0	0	23168	21790	157685	26925	1059663	46502	108535	0	0	8235	529530	0	0
2024-09-30 17:39:47			0	38760	0	0	0	23197	21780	157757	26876	1059592	46501	108546	0	0	8232	530595	0	0
2024-09-30 17:40:47			0	38755	0	0	0	23174	21790	157617	27005	1059663	46514	108537	0	0	8233	530757	0	0
2024-09-30 17:41:47			0	38766	0	0	0	23186	21780	157613	27211	1059601	46502	108542	0	0	8233	530365	0	0
2024-09-30 17:42:47			0	38737	0	0	0	23186	21780	157633	26878	1059681	46502	108542	0	0	8231	531478	0	0
2024-09-30 17:43:47			0	38741	0	0	0	23166	21780	157753	27312	1059645	46501	108534	0	0	8232	531324	0	0
2024-09-30 17:44:47			0	38732	0	0	0	23150	21790	157713	27067	1059663	46492	108528	0	0	8232	531640	0	0
2024-09-30 17:45:47			0	38725	0	0	0	23135	21790	157820	27131	1059610	46481	108522	0	0	8232	531909	0	0
2024-09-30 17:46:47			0	38723	0	0	0	23140	21770	157820	27170	1059610	46491	108524	0	0	8231	532045	0	0
2024-09-30 17:47:47			0	38718	0	0	0	23124	21770	157856	27241	1059548	46468	108518	0	0	8231	532237	0	0
2024-09-30 17:48:47			0	38715	0	0	0	23114	21770	157876	26946	1059548	46479	108514	0	0	8231	532353	0	0
2024-09-30 17:49:47			0	38710	0	0	0	23129	21760	157864	27135	1059503	46467	108520	0	0	8231	532575	0	0
2024-09-30 17:50:47			0	38693	0	0	0	23116	21760	157888	27206	1059476	46489	108515	0	0	8230	533229	0	0
2024-09-30 17:51:47			0	38664	0	0	0	23111	21750	157924	27057	1059485	46477	108513	0	0	8228	534375	0	0
2024-09-30 17:52:47			0	38672	0	0	0	23098	21740	158052	27260	1059334	46476	108508	0	0	8229	534097	0	0
2024-09-30 17:53:47			0	38648	0	0	0	23093	21730	158108	27008	1059378	46475	108506	0	0	8228	535051	0	0
2024-09-30 17:54:47			0	38673	0	0	0	23096	21740	158056	27093	1059361	46465	108507	0	0	8229	534058	0	0
2024-09-30 17:55:47			0	38647	0	0	0	23096	21730	158184	26935	1059325	46475	108507	0	0	8227	535090	0	0
2024-09-30 17:56:47			0	38634	0	0	0	23103	21740	158192	27131	1059307	46465	108510	0	0	8227	535562	0	0
2024-09-30 17:57:47			0	38638	0	0	0	23090	21720	158276	27280	1059307	46486	108505	0	0	8227	535467	0	0
2024-09-30 17:58:47			0	38633	0	0	0	23096	21720	158240	27074	1059280	46486	108507	0	0	8227	535660	0	0
2024-09-30 17:59:47			0	38599	0	0	0	23085	21720	158296	27312	1059307	46486	108503	0	0	8225	536973	0	0
2024-09-30 18:00:47			0	38605	0	0	0	23093	21710	158304	27239	1059262	46484	108506	0	0	8225	536771	0	0
2024-09-30 18:01:47			0	38591	0	0	0	23093	21710	158392	27590	1059280	46473	108506	0	0	8224	537312	0	0
2024-09-30 18:02:47			0	38614	0	0	0	23085	21710	158276	27121	1059262	46495	108503	0	0	8226	536423	0	0
2024-09-30 18:03:47			0	38589	0	0	0	23085	21710	158280	27272	1059200	46495	108503	0	0	8224	537390	0	0
2024-09-30 18:04:47			0	38586	0	0	0	23080	21700	158344	27157	1059217	46472	108501	0	0	8224	537536	0	0
2024-09-30 18:05:47			0	38585	0	0	0	23075	21710	158332	27286	1059200	46473	108499	0	0	8224	537544	0	0
2024-09-30 18:06:47			0	38599	0	0	0	23072	21690	158432	27305	1059209	46461	108498	0	0	8225	537063	0	0
2024-09-30 18:07:47			0	38609	0	0	0	23070	21690	158328	27078	1059155	46472	108497	0	0	8225	536676	0	0
2024-09-30 18:08:47			0	38585	0	0	0	23062	21690	158376	27208	1059146	46471	108494	0	0	8224	537604	0	0
2024-09-30 18:09:47			0	38590	0	0	0	23064	21680	158388	27303	1059102	46470	108495	0	0	8224	537441	0	0
2024-09-30 18:10:47			0	38593	0	0	0	23070	21680	158456	27350	1059111	46460	108497	0	0	8224	537325	0	0
2024-09-30 18:11:47			0	38583	0	0	0	23062	21680	158372	26937	1059075	46459	108494	0	0	8224	537711	0	0
2024-09-30 18:12:47			0	38584	0	0	0	23064	21670	158420	26899	1059110	46469	108495	0	0	8224	537703	0	0
2024-09-30 18:13:47			0	38583	0	0	0	23057	21680	158424	27159	1059102	46481	108492	0	0	8224	537711	0	0
2024-09-30 18:14:47			0	38586	0	0	0	23059	21670	158356	27138	1059137	46469	108493	0	0	8224	537625	0	0
2024-09-30 18:15:47			0	38573	0	0	0	23054	21660	158480	27176	1059048	46468	108491	0	0	8224	538158	0	0
2024-09-30 18:16:47			0	38572	0	0	0	23051	21660	158540	27426	1059066	46468	108490	0	0	8224	538197	0	0
2024-09-30 18:17:47			0	38571	0	0	0	23059	21660	158472	27237	1059039	46468	108493	0	0	8223	538236	0	0
2024-09-30 18:18:47			0	38586	0	0	0	23049	21650	158476	27550	1058977	46468	108489	0	0	8224	537685	0	0
2024-09-30 18:19:47			0	38577	0	0	0	23054	21660	158408	27118	1058995	46479	108491	0	0	8224	538004	0	0
2024-09-30 18:20:47			0	38581	0	0	0	23046	21640	158488	27100	1058986	46466	108488	0	0	8224	537908	0	0
2024-09-30 18:21:47			0	38573	0	0	0	23070	21650	158520	27332	1059057	46490	108497	0	0	8223	538188	0	0
2024-09-30 18:22:47			0	38561	0	0	0	23051	21650	158536	27194	1059004	46479	108490	0	0	8223	538653	0	0
2024-09-30 18:23:47			0	38537	0	0	0	23049	21640	158524	27241	1058950	46477	108489	0	0	8221	539613	0	0
2024-09-30 18:24:47			0	38522	0	0	0	23059	21640	158532	27421	1059030	46477	108493	0	0	8220	540195	0	0
2024-09-30 18:25:47			0	38529	0	0	0	23057	21650	158516	26989	1059021	46478	108492	0	0	8221	539893	0	0
2024-09-30 18:26:47			0	38525	0	0	0	23046	21640	158500	27015	1058986	46477	108488	0	0	8221	540078	0	0
2024-09-30 18:27:47			0	38522	0	0	0	23049	21650	158636	27254	1058968	46457	108489	0	0	8221	540165	0	0
2024-09-30 18:28:47			0	38502	0	0	0	23046	21630	158600	27038	1058968	46477	108488	0	0	8219	541001	0	0
2024-09-30 18:29:47			0	38520	0	0	0	23031	21640	158680	27249	1058986	46466	108482	0	0	8221	540272	0	0
2024-09-30 18:30:47			0	38516	0	0	0	23044	21640	158748	27086	1058959	46466	108487	0	0	8220	540428	0	0
2024-09-30 18:31:47			0	38482	0	0	0	23036	21640	158780	27374	1059012	46477	108484	0	0	8218	541748	0	0
2024-09-30 18:32:47			0	38486	0	0	0	23031	21630	158808	27159	1058888	46444	108482	0	0	8219	541623	0	0
2024-09-30 18:33:47			0	38485	0	0	0	23031	21630	158788	26863	1058914	46456	108482	0	0	8219	541662	0	0
2024-09-30 18:34:47			0	38499	0	0	0	23025	21630	158744	26854	1058914	46466	108480	0	0	8220	541118	0	0
2024-09-30 18:35:47			0	38483	0	0	0	23028	21620	158812	27052	1058923	46464	108481	0	0	8219	541769	0	0
2024-09-30 18:36:47			0	38496	0	0	0	23023	21620	158764	27242	1058870	46475	108479	0	0	8219	541264	0	0
2024-09-30 18:37:47			0	38501	0	0	0	23025	21620	158668	27124	1058896	46475	108480	0	0	8220	541070	0	0
2024-09-30 18:38:47			0	38488	0	0	0	23025	21620	158796	27071	1058914	46464	108480	0	0	8219	541575	0	0
2024-09-30 18:39:47			0	38478	0	0	0	23018	21620	158820	26876	1058914	46464	108477	0	0	8218	541964	0	0
2024-09-30 18:40:47			0	38491	0	0	0	23023	21610	158840	27088	1058852	46464	108479	0	0	8219	541489	0	0
2024-09-30 18:41:47			0	38506	0	0	0	23025	21610	158704	26802	1058799	46454	108480	0	0	8220	540906	0	0
2024-09-30 18:42:47			0	38492	0	0	0	23018	21610	158788	26712	1058825	46464	108477	0	0	8219	541450	0	0
2024-09-30 18:43:47			0	38470	0	0	0	23020	21620	158824	26759	1058808	46464	108478	0	0	8218	542275	0	0
2024-09-30 18:44:47			0	38485	0	0	0	23018	21610	158932	26743	1058790	46463	108477	0	0	8219	541722	0	0
2024-09-30 18:45:47			0	38471	0	0	0	23023	21600	158948	26953	1058807	46462	108479	0	0	8218	542296	0	0
2024-09-30 18:46:47			0	38483	0	0	0	23018	21610	158872	27229	1058843	46463	108477	0	0	8219	541800	0	0
2024-09-30 18:47:47			0	38471	0	0	0	23018	21610	158936	27170	1058763	46463	108477	0	0	8218	542266	0	0
2024-09-30 18:48:47			0	38459	0	0	0	23015	21610	158804	26712	1058816	46474	108476	0	0	8217	542733	0	0
2024-09-30 18:49:47			0	38487	0	0	0	23023	21610	158928	26986	1058816	46463	108479	0	0	8219	541644	0	0
2024-09-30 18:50:47			0	38468	0	0	0	23010	21610	159020	26828	1058816	46441	108474	0	0	8218	542383	0	0
2024-09-30 18:51:47			0	38473	0	0	0	23018	21610	158984	26776	1058790	46463	108477	0	0	8218	542189	0	0
2024-09-30 18:52:47			0	38451	0	0	0	23012	21610	159048	26719	1058816	46463	108475	0	0	8217	543044	0	0
2024-09-30 18:53:47			0	38453	0	0	0	23012	21590	159056	26779	1058789	46461	108475	0	0	8217	543027	0	0
2024-09-30 18:54:47			0	38465	0	0	0	23005	21590	159108	27008	1058843	46461	108472	0	0	8218	542560	0	0
2024-09-30 18:55:47			0	38456	0	0	0	23005	21600	159004	26774	1058825	46439	108472	0	0	8217	542880	0	0
2024-09-30 18:56:47			0	38435	0	0	0	23007	21600	159044	26902	1058754	46462	108473	0	0	8216	543698	0	0
2024-09-30 18:57:47			0	38447	0	0	0	23018	21600	159000	27072	1058834	46452	108477	0	0	8217	543230	0	0
2024-09-30 18:58:47			0	38439	0	0	0	23010	21600	159124	26844	1058754	46462	108474	0	0	8216	543542	0	0
2024-09-30 18:59:47			0	38432	0	0	0	23012	21600	159108	27008	1058718	46461	108475	0	0	8216	543815	0	0
2024-09-30 19:00:47			0	38429	0	0	0	23012	21600	159132	27095	1058807	46473	108475	0	0	8216	543931	0	0
2024-09-30 19:01:47			0	38452	0	0	0	23020	21590	159052	27379	1058763	46461	108478	0	0	8217	543066	0	0
2024-09-30 19:02:47			0	38432	0	0	0	23018	21590	158984	27067	1058683	46461	108477	0	0	8216	543845	0	0
2024-09-30 19:03:47			0	38453	0	0	0	23005	21590	159156	27147	1058789	46451	108472	0	0	8217	543027	0	0
2024-09-30 19:04:47			0	38424	0	0	0	23018	21590	159072	27090	1058763	46472	108477	0	0	8215	544157	0	0
2024-09-30 19:05:47			0	38446	0	0	0	23012	21600	159028	26826	1058781	46462	108475	0	0	8217	543269	0	0
2024-09-30 19:06:47			0	38461	0	0	0	22999	21600	159060	26875	1058772	46461	108470	0	0	8218	542685	0	0
2024-09-30 19:07:47			0	38437	0	0	0	23007	21590	159020	26925	1058736	46461	108473	0	0	8216	543650	0	0
2024-09-30 19:08:47			0	38449	0	0	0	23005	21590	159060	26948	1058763	46461	108472	0	0	8217	543183	0	0
2024-09-30 19:09:47			0	38452	0	0	0	22999	21590	159036	27045	1058727	46461	108470	0	0	8217	543066	0	0
2024-09-30 19:10:47			0	38457	0	0	0	23002	21590	159096	27196	1058727	46461	108471	0	0	8217	542871	0	0
2024-09-30 19:11:47			0	38464	0	0	0	23005	21590	158908	27015	1058763	46451	108472	0	0	8218	542599	0	0
2024-09-30 19:12:47			0	38473	0	0	0	22999	21590	158948	26670	1058727	46451	108470	0	0	8218	542249	0	0
2024-09-30 19:13:47			0	38456	0	0	0	23002	21580	158980	27204	1058718	46460	108471	0	0	8217	542940	0	0
2024-09-30 19:14:47			0	38462	0	0	0	23005	21580	159020	27005	1058665	46460	108472	0	0	8218	542707	0	0
2024-09-30 19:15:47			0	38451	0	0	0	22997	21580	159060	26700	1058692	46471	108469	0	0	8217	543135	0	0
2024-09-30 19:16:47			0	38483	0	0	0	22992	21580	158996	27353	1058665	46460	108467	0	0	8219	541890	0	0
2024-09-30 19:17:47			0	38480	0	0	0	22989	21580	158932	26989	1058692	46450	108466	0	0	8219	542007	0	0
2024-09-30 19:18:47			0	38488	0	0	0	22986	21570	158964	26868	1058673	46437	108465	0	0	8219	541726	0	0
2024-09-30 19:19:47			0	38492	0	0	0	22997	21570	158824	26767	1058620	46459	108469	0	0	8219	541570	0	0
2024-09-30 19:20:47			0	38492	0	0	0	22997	21570	158820	26887	1058700	46448	108469	0	0	8219	541570	0	0
2024-09-30 19:21:47			0	38485	0	0	0	22992	21570	158832	26897	1058700	46448	108467	0	0	8219	541842	0	0
2024-09-30 19:22:47			0	38513	0	0	0	22992	21570	158812	26788	1058673	46459	108467	0	0	8221	540755	0	0
2024-09-30 19:23:47			0	38505	0	0	0	22986	21570	158848	26856	1058647	46459	108465	0	0	8220	541065	0	0
2024-09-30 19:24:47			0	38493	0	0	0	22994	21560	158864	26667	1058629	46469	108468	0	0	8219	541562	0	0
2024-09-30 19:25:47			0	38490	0	0	0	22994	21560	158872	26595	1058682	46458	108468	0	0	8219	541678	0	0
2024-09-30 19:26:47			0	38497	0	0	0	22992	21570	158888	27034	1058700	46448	108467	0	0	8220	541376	0	0
2024-09-30 19:27:47			0	38498	0	0	0	22997	21570	158860	26875	1058584	46481	108469	0	0	8220	541337	0	0
2024-09-30 19:28:47			0	38500	0	0	0	22989	21570	158868	27024	1058638	46459	108466	0	0	8220	541260	0	0
2024-09-30 19:29:47			0	38509	0	0	0	22989	21570	158848	26994	1058673	46459	108466	0	0	8220	540910	0	0
2024-09-30 19:30:47			0	38487	0	0	0	22994	21560	158828	26804	1058655	46458	108468	0	0	8219	541795	0	0
2024-09-30 19:31:47			0	38499	0	0	0	22994	21580	158996	27003	1058656	46448	108468	0	0	8220	541268	0	0
2024-09-30 19:32:47			0	38465	0	0	0	22999	21560	158972	26856	1058682	46458	108470	0	0	8218	542651	0	0
2024-09-30 19:33:47			0	38474	0	0	0	22994	21560	158960	26963	1058629	46458	108468	0	0	8218	542300	0	0
2024-09-30 19:34:47			0	38450	0	0	0	22997	21560	158968	27112	1058602	46458	108469	0	0	8217	543234	0	0
2024-09-30 19:35:47			0	38475	0	0	0	22989	21560	159044	27041	1058602	46458	108466	0	0	8218	542262	0	0
2024-09-30 19:36:47			0	38455	0	0	0	22989	21570	158996	26743	1058647	46448	108466	0	0	8217	543010	0	0
2024-09-30 19:37:47			0	38453	0	0	0	22992	21570	159052	26996	1058673	46459	108467	0	0	8217	543087	0	0
2024-09-30 19:38:47			0	38473	0	0	0	22986	21570	159096	26800	1058700	46470	108465	0	0	8218	542309	0	0
2024-09-30 19:39:47			0	38442	0	0	0	22992	21570	159084	26760	1058638	46470	108467	0	0	8217	543516	0	0
2024-09-30 19:40:47			0	38427	0	0	0	22989	21560	159056	26658	1058620	46458	108466	0	0	8216	544131	0	0
2024-09-30 19:41:47			0	38439	0	0	0	22984	21560	159140	26967	1058682	46458	108464	0	0	8216	543663	0	0
2024-09-30 19:42:47			0	38445	0	0	0	22984	21560	159240	26708	1058629	46458	108464	0	0	8217	543429	0	0
2024-09-30 19:43:47			0	38449	0	0	0	22986	21560	159188	27081	1058602	46469	108465	0	0	8217	543273	0	0
2024-09-30 19:44:47			0	38423	0	0	0	22976	21560	159128	26939	1058549	46458	108461	0	0	8216	544286	0	0
2024-09-30 19:45:47			0	38447	0	0	0	22976	21560	159112	27123	1058602	46458	108461	0	0	8217	543351	0	0
2024-09-30 19:46:47			0	38465	0	0	0	22968	21570	159176	26901	1058584	46459	108458	0	0	8218	542620	0	0
2024-09-30 19:47:47			0	38445	0	0	0	22984	21560	159056	27052	1058593	46458	108464	0	0	8217	543429	0	0
2024-09-30 19:48:47			0	38435	0	0	0	22979	21560	159148	26949	1058567	46458	108462	0	0	8216	543819	0	0
2024-09-30 19:49:47			0	38461	0	0	0	22981	21570	159216	26765	1058647	46470	108463	0	0	8218	542776	0	0
2024-09-30 19:50:47			0	38414	0	0	0	22976	21560	159116	26821	1058620	46446	108461	0	0	8215	544637	0	0
2024-09-30 19:51:47			0	38457	0	0	0	22981	21550	159124	27033	1058584	46446	108463	0	0	8218	542992	0	0
2024-09-30 19:52:47			0	38442	0	0	0	22989	21550	159252	26781	1058602	46446	108466	0	0	8216	543576	0	0
2024-09-30 19:53:47			0	38435	0	0	0	22971	21550	159024	27111	1058558	46468	108459	0	0	8216	543849	0	0
2024-09-30 19:54:47			0	38433	0	0	0	22974	21560	159204	26850	1058593	46458	108460	0	0	8216	543897	0	0
2024-09-30 19:55:47			0	38444	0	0	0	22971	21550	159056	27119	1058549	46458	108459	0	0	8217	543498	0	0
2024-09-30 19:56:47			0	38455	0	0	0	22968	21550	159132	26779	1058558	46446	108458	0	0	8218	543070	0	0
2024-09-30 19:57:47			0	38440	0	0	0	22979	21550	159116	26641	1058558	46446	108462	0	0	8217	543654	0	0
2024-09-30 19:58:47			0	38437	0	0	0	22974	21550	158980	26838	1058549	46458	108460	0	0	8216	543771	0	0
2024-09-30 19:59:47			0	38447	0	0	0	22974	21550	159140	26722	1058558	46458	108460	0	0	8217	543382	0	0
2024-09-30 20:00:47			0	38450	0	0	0	22971	21560	159192	26951	1058620	46458	108459	0	0	8217	543234	0	0
2024-09-30 20:01:47			0	38433	0	0	0	22974	21540	159240	26949	1058566	46467	108460	0	0	8216	543957	0	0
2024-09-30 20:02:47			0	38425	0	0	0	22976	21550	159204	27045	1058611	46458	108461	0	0	8216	544239	0	0
2024-09-30 20:03:47			0	38426	0	0	0	22963	21550	159220	27142	1058522	46468	108456	0	0	8216	544200	0	0
2024-09-30 20:04:47			0	38420	0	0	0	22968	21540	159172	27147	1058593	46467	108458	0	0	8216	544464	0	0
2024-09-30 20:05:47			0	38418	0	0	0	22968	21550	159268	27211	1058522	46458	108458	0	0	8215	544512	0	0
2024-09-30 20:06:47			0	38420	0	0	0	22971	21540	159208	27177	1058477	46444	108459	0	0	8215	544464	0	0
2024-09-30 20:07:47			0	38406	0	0	0	22968	21540	159160	26772	1058566	46457	108458	0	0	8215	545010	0	0
2024-09-30 20:08:47			0	38397	0	0	0	22961	21550	159312	27055	1058549	46458	108455	0	0	8214	545331	0	0
2024-09-30 20:09:47			0	38395	0	0	0	22955	21550	159288	26871	1058495	46458	108453	0	0	8214	545409	0	0
2024-09-30 20:10:47			0	38406	0	0	0	22958	21540	159304	26909	1058513	46445	108454	0	0	8215	545010	0	0
2024-09-30 20:11:47			0	38380	0	0	0	22955	21550	159224	26915	1058522	46446	108453	0	0	8213	545995	0	0
2024-09-30 20:12:47			0	38377	0	0	0	22950	21530	159220	26970	1058468	46455	108451	0	0	8213	546173	0	0
2024-09-30 20:13:47			0	38384	0	0	0	22945	21530	159348	26883	1058460	46455	108449	0	0	8214	545899	0	0
2024-09-30 20:14:47			0	38382	0	0	0	22945	21540	159364	26774	1058486	46457	108449	0	0	8214	545947	0	0
2024-09-30 20:15:47			0	38359	0	0	0	22937	21530	159436	26684	1058442	46455	108446	0	0	8212	546876	0	0
2024-09-30 20:16:47			0	38376	0	0	0	22935	21530	159356	27045	1058486	46443	108445	0	0	8213	546212	0	0
2024-09-30 20:17:47			0	38385	0	0	0	22935	21540	159480	27093	1058451	46444	108445	0	0	8214	545830	0	0
2024-09-30 20:18:47			0	38353	0	0	0	22935	21530	159496	26918	1058353	46465	108445	0	0	8212	547111	0	0
2024-09-30 20:19:47			0	38374	0	0	0	22940	21510	159484	27225	1058406	46453	108447	0	0	8213	546351	0	0
2024-09-30 20:20:47			0	38373	0	0	0	22950	21520	159376	26731	1058424	46455	108451	0	0	8213	546359	0	0
2024-09-30 20:21:47			0	38362	0	0	0	22948	21520	159452	27215	1058495	46442	108450	0	0	8212	546789	0	0
2024-09-30 20:22:47			0	38354	0	0	0	22940	21520	159404	27045	1058451	46455	108447	0	0	8212	547102	0	0
2024-09-30 20:23:47			0	38351	0	0	0	22924	21520	159464	27020	1058415	46464	108441	0	0	8212	547219	0	0
2024-09-30 20:24:47			0	38346	0	0	0	22924	21510	159564	27124	1058406	46453	108441	0	0	8212	547446	0	0
2024-09-30 20:25:47			0	38338	0	0	0	22924	21510	159520	26850	1058406	46453	108441	0	0	8211	547759	0	0
2024-09-30 20:26:47			0	38341	0	0	0	22932	21520	159532	26798	1058388	46442	108444	0	0	8211	547611	0	0
2024-09-30 20:27:47			0	38342	0	0	0	22932	21510	159592	27007	1058370	46463	108444	0	0	8211	547602	0	0
2024-09-30 20:28:47			0	38348	0	0	0	22924	21510	159536	26967	1058397	46453	108441	0	0	8212	547367	0	0
2024-09-30 20:29:47			0	38357	0	0	0	22942	21510	159516	27060	1058406	46463	108448	0	0	8212	547015	0	0
2024-09-30 20:30:47			0	38361	0	0	0	22940	21500	159528	26682	1058281	46453	108447	0	0	8212	546889	0	0
2024-09-30 20:31:47			0	38354	0	0	0	22937	21510	159516	26890	1058433	46453	108446	0	0	8212	547133	0	0
2024-09-30 20:32:47			0	38371	0	0	0	22929	21510	159476	27069	1058317	46453	108443	0	0	8213	546468	0	0
2024-09-30 20:33:47			0	38374	0	0	0	22927	21510	159532	27000	1058397	46463	108442	0	0	8213	546351	0	0
2024-09-30 20:34:47			0	38377	0	0	0	22922	21500	159520	26805	1058335	46441	108440	0	0	8214	546264	0	0
2024-09-30 20:35:47			0	38361	0	0	0	22929	21510	159504	27072	1058344	46463	108443	0	0	8213	546859	0	0
2024-09-30 20:36:47			0	38355	0	0	0	22922	21510	159536	26786	1058424	46453	108440	0	0	8212	547094	0	0
2024-09-30 20:37:47			0	38352	0	0	0	22916	21500	159536	27104	1058308	46463	108438	0	0	8212	547241	0	0
2024-09-30 20:38:47			0	38327	0	0	0	22924	21510	159572	27185	1058326	46453	108441	0	0	8211	548189	0	0
2024-09-30 20:39:47			0	38324	0	0	0	22916	21500	159628	26823	1058388	46453	108438	0	0	8211	548337	0	0
2024-09-30 20:40:47			0	38321	0	0	0	22914	21500	159608	26830	1058246	46452	108437	0	0	8210	548455	0	0
2024-09-30 20:41:47			0	38312	0	0	0	22916	21510	159652	27007	1058290	46441	108438	0	0	8210	548777	0	0
2024-09-30 20:42:47			0	38322	0	0	0	22919	21500	159572	26755	1058299	46452	108439	0	0	8210	548416	0	0
2024-09-30 20:43:47			0	38321	0	0	0	22916	21500	159604	27164	1058326	46440	108438	0	0	8210	548455	0	0
2024-09-30 20:44:47			0	38319	0	0	0	22909	21500	159540	27013	1058246	46440	108435	0	0	8210	548533	0	0
2024-09-30 20:45:47			0	38328	0	0	0	22909	21490	159576	27083	1058255	46439	108435	0	0	8211	548211	0	0
2024-09-30 20:46:47			0	38321	0	0	0	22914	21500	159588	26689	1058281	46453	108437	0	0	8210	548455	0	0
2024-09-30 20:47:47			0	38320	0	0	0	22911	21490	159600	26713	1058290	46451	108436	0	0	8210	548525	0	0
2024-09-30 20:48:47			0	38323	0	0	0	22911	21490	159568	27215	1058264	46451	108436	0	0	8211	548407	0	0
2024-09-30 20:49:47			0	38331	0	0	0	22911	21500	159548	26972	1058299	46452	108436	0	0	8211	548063	0	0
2024-09-30 20:50:47			0	38338	0	0	0	22906	21490	159524	27244	1058290	46451	108434	0	0	8212	547820	0	0
2024-09-30 20:51:47			0	38341	0	0	0	22903	21500	159532	27251	1058308	46441	108433	0	0	8212	547672	0	0
2024-09-30 20:52:47			0	38337	0	0	0	22914	21490	159616	27033	1058317	46461	108437	0	0	8211	547859	0	0
2024-09-30 20:53:47			0	38334	0	0	0	22909	21490	159516	26986	1058237	46451	108435	0	0	8211	547976	0	0
2024-09-30 20:54:47			0	38334	0	0	0	22901	21490	159484	26831	1058228	46439	108432	0	0	8211	547976	0	0
2024-09-30 20:55:47			0	38321	0	0	0	22903	21490	159444	26916	1058255	46461	108433	0	0	8211	548485	0	0
2024-09-30 20:56:47			0	38336	0	0	0	22911	21490	159508	26942	1058210	46451	108436	0	0	8211	547898	0	0
2024-09-30 20:57:47			0	38319	0	0	0	22906	21480	159688	27246	1058219	46451	108434	0	0	8210	548594	0	0
2024-09-30 20:58:47			0	38318	0	0	0	22903	21490	159644	27267	1058175	46461	108433	0	0	8210	548603	0	0
2024-09-30 20:59:47			0	38316	0	0	0	22906	21490	159604	27166	1058237	46451	108434	0	0	8210	548681	0	0
2024-09-30 21:00:47			0	38316	0	0	0	22906	21480	159656	26955	1058183	46460	108434	0	0	8210	548712	0	0
2024-09-30 21:01:47			0	38318	0	0	0	22906	21480	159556	27072	1058219	46461	108434	0	0	8210	548633	0	0
2024-09-30 21:02:47			0	38320	0	0	0	22903	21480	159536	27093	1058192	46451	108433	0	0	8211	548555	0	0
2024-09-30 21:03:47			0	38333	0	0	0	22898	21480	159636	27241	1058157	46450	108431	0	0	8211	548046	0	0
2024-09-30 21:04:47			0	38326	0	0	0	22901	21490	159524	27189	1058228	46461	108432	0	0	8211	548290	0	0
2024-09-30 21:05:47			0	38346	0	0	0	22890	21480	159472	26956	1058237	46450	108428	0	0	8212	547537	0	0
2024-09-30 21:06:47			0	38346	0	0	0	22883	21470	159532	27138	1058201	46459	108425	0	0	8212	547567	0	0
2024-09-30 21:07:47			0	38358	0	0	0	22883	21480	159480	27201	1058183	46450	108425	0	0	8213	547067	0	0
2024-09-30 21:08:47			0	38353	0	0	0	22901	21480	159536	27119	1058219	46451	108432	0	0	8212	547263	0	0
2024-09-30 21:09:47			0	38347	0	0	0	22890	21460	159508	27090	1058148	46448	108428	0	0	8212	547559	0	0
2024-09-30 21:10:47			0	38354	0	0	0	22896	21470	159532	27251	1058148	46449	108430	0	0	8213	547254	0	0
2024-09-30 21:11:47			0	38351	0	0	0	22898	21480	159540	26989	1058157	46438	108431	0	0	8212	547341	0	0
2024-09-30 21:12:47			0	38356	0	0	0	22896	21480	159416	26852	1058157	46438	108430	0	0	8213	547146	0	0
2024-09-30 21:13:47			0	38345	0	0	0	22898	21470	159456	26984	1058192	46448	108431	0	0	8212	547606	0	0
2024-09-30 21:14:47			0	38338	0	0	0	22883	21470	159588	27185	1058175	46437	108425	0	0	8212	547881	0	0
2024-09-30 21:15:47			0	38301	0	0	0	22880	21470	159708	27024	1058148	46449	108424	0	0	8210	549330	0	0
2024-09-30 21:16:47			0	38299	0	0	0	22867	21470	159744	27124	1058175	46459	108419	0	0	8210	549409	0	0
2024-09-30 21:17:47			0	38274	0	0	0	22880	21470	159820	26946	1058112	46448	108424	0	0	8208	550390	0	0
2024-09-30 21:18:47			0	38248	0	0	0	22864	21460	159844	26765	1058050	46436	108418	0	0	8207	551442	0	0
2024-09-30 21:19:47			0	38230	0	0	0	22870	21470	160000	27069	1058112	46448	108420	0	0	8206	552119	0	0
2024-09-30 21:20:47			0	38224	0	0	0	22864	21460	160172	26717	1058103	46436	108418	0	0	8205	552386	0	0
2024-09-30 21:21:47			0	38219	0	0	0	22872	21460	160088	27069	1058103	46448	108421	0	0	8205	552583	0	0
2024-09-30 21:22:47			0	38211	0	0	0	22867	21470	160076	26890	1058112	46458	108419	0	0	8205	552867	0	0
2024-09-30 21:23:47			0	38201	0	0	0	22867	21460	160096	27211	1058094	46448	108419	0	0	8204	553291	0	0
2024-09-30 21:24:47			0	38180	0	0	0	22862	21440	160268	26913	1058058	46445	108417	0	0	8203	554181	0	0
2024-09-30 21:25:47			0	38185	0	0	0	22862	21450	160204	26965	1058103	46434	108417	0	0	8203	553953	0	0
2024-09-30 21:26:47			0	38216	0	0	0	22864	21450	160240	27208	1058049	46445	108418	0	0	8205	552731	0	0
2024-09-30 21:27:47			0	38226	0	0	0	22862	21460	160148	27249	1058041	46458	108417	0	0	8206	552307	0	0
2024-09-30 21:28:47			0	38199	0	0	0	22859	21450	160132	26871	1057996	46457	108416	0	0	8204	553401	0	0
2024-09-30 21:29:47			0	38202	0	0	0	22857	21440	160188	27081	1057987	46434	108415	0	0	8204	553314	0	0
2024-09-30 21:30:47			0	38219	0	0	0	22867	21440	160112	27052	1058005	46457	108419	0	0	8205	552644	0	0
2024-09-30 21:31:47			0	38194	0	0	0	22864	21440	160176	27133	1058005	46467	108418	0	0	8204	553629	0	0
2024-09-30 21:32:47			0	38208	0	0	0	22854	21450	160140	27059	1058049	46457	108414	0	0	8205	553046	0	0
2024-09-30 21:33:47			0	38195	0	0	0	22844	21440	160188	26996	1058005	46457	108410	0	0	8204	553589	0	0
2024-09-30 21:34:47			0	38219	0	0	0	22849	21440	160188	27241	1057978	46445	108412	0	0	8205	552644	0	0
2024-09-30 21:35:47			0	38219	0	0	0	22849	21430	160072	26984	1058023	46433	108412	0	0	8205	552675	0	0
2024-09-30 21:36:47			0	38216	0	0	0	22846	21430	160172	26786	1057996	46444	108411	0	0	8205	552793	0	0
2024-09-30 21:37:47			0	38203	0	0	0	22859	21430	160116	27057	1058014	46444	108416	0	0	8204	553305	0	0
2024-09-30 21:38:47			0	38217	0	0	0	22849	21430	160128	26927	1057996	46444	108412	0	0	8205	552753	0	0
2024-09-30 21:39:47			0	38235	0	0	0	22857	21430	160096	26765	1058023	46444	108415	0	0	8206	552045	0	0
2024-09-30 21:40:47			0	38224	0	0	0	22851	21430	160068	26791	1057960	46432	108413	0	0	8206	552478	0	0
2024-09-30 21:41:47			0	38235	0	0	0	22851	21440	160028	26691	1058058	46445	108413	0	0	8206	552014	0	0
2024-09-30 21:42:47			0	38227	0	0	0	22854	21430	160020	26767	1057996	46456	108414	0	0	8206	552360	0	0
2024-09-30 21:43:47			0	38224	0	0	0	22849	21420	160100	27059	1057978	46455	108412	0	0	8206	552509	0	0
2024-09-30 21:44:47			0	38233	0	0	0	22849	21430	160108	27161	1058014	46465	108412	0	0	8206	552124	0	0
2024-09-30 21:45:47			0	38231	0	0	0	22864	21430	160100	26845	1057969	46444	108418	0	0	8206	552202	0	0
2024-09-30 21:46:47			0	38225	0	0	0	22867	21430	160060	26934	1058049	46444	108419	0	0	8205	552439	0	0
2024-09-30 21:47:47			0	38240	0	0	0	22870	21430	159988	27071	1058023	46444	108420	0	0	8206	551848	0	0
2024-09-30 21:48:47			0	38233	0	0	0	22870	21430	159984	26788	1058023	46444	108420	0	0	8206	552124	0	0
2024-09-30 21:49:47			0	38236	0	0	0	22870	21420	160028	26831	1057951	46465	108420	0	0	8206	552036	0	0
2024-09-30 21:50:47			0	38251	0	0	0	22867	21420	159964	26632	1057951	46465	108419	0	0	8207	551447	0	0
2024-09-30 21:51:47			0	38260	0	0	0	22870	21440	160068	26956	1058032	46445	108420	0	0	8207	551032	0	0
2024-09-30 21:52:47			0	38269	0	0	0	22870	21430	159880	26733	1057987	46444	108420	0	0	8208	550709	0	0
2024-09-30 21:53:47			0	38271	0	0	0	22859	21440	159856	26648	1058032	46445	108416	0	0	8208	550599	0	0
2024-09-30 21:54:47			0	38282	0	0	0	22851	21450	159864	26649	1058085	46447	108413	0	0	8209	550137	0	0
2024-09-30 21:55:47			0	38283	0	0	0	22854	21430	159772	27005	1057987	46432	108414	0	0	8209	550159	0	0
2024-09-30 21:56:47			0	38278	0	0	0	22854	21430	159832	27216	1058023	46444	108414	0	0	8209	550355	0	0
2024-09-30 21:57:47			0	38277	0	0	0	22857	21430	159904	26667	1058014	46432	108415	0	0	8209	550394	0	0
2024-09-30 21:58:47			0	38247	0	0	0	22849	21430	160020	26644	1058014	46432	108412	0	0	8207	551573	0	0
2024-09-30 21:59:47			0	38259	0	0	0	22859	21420	159984	26674	1057916	46455	108416	0	0	8207	551132	0	0
2024-09-30 22:00:47			0	38245	0	0	0	22857	21440	160040	26686	1058032	46457	108415	0	0	8207	551621	0	0
2024-09-30 22:01:47			0	38265	0	0	0	22870	21430	159932	26837	1057996	46444	108420	0	0	8208	550866	0	0
2024-09-30 22:02:47			0	38268	0	0	0	22872	21430	159984	26630	1057934	46455	108421	0	0	8208	550748	0	0
2024-09-30 22:03:47			0	38270	0	0	0	22857	21430	159964	27123	1057996	46433	108415	0	0	8208	550669	0	0
2024-09-30 22:04:47			0	38270	0	0	0	22859	21420	159860	26819	1058031	46444	108416	0	0	8208	550700	0	0
2024-09-30 22:05:47			0	38282	0	0	0	22854	21430	159936	26691	1058014	46432	108414	0	0	8209	550198	0	0
2024-09-30 22:06:47			0	38286	0	0	0	22851	21420	159900	27093	1058005	46455	108413	0	0	8209	550072	0	0
2024-09-30 22:07:47			0	38276	0	0	0	22859	21430	159832	27274	1057987	46444	108416	0	0	8208	550434	0	0
2024-09-30 22:08:47			0	38290	0	0	0	22846	21440	159916	27074	1057978	46445	108411	0	0	8210	549853	0	0
2024-09-30 22:09:47			0	38264	0	0	0	22844	21430	159836	27190	1057987	46444	108410	0	0	8208	550905	0	0
2024-09-30 22:10:47			0	38268	0	0	0	22849	21420	159916	27046	1057978	46444	108412	0	0	8208	550778	0	0
2024-09-30 22:11:47			0	38273	0	0	0	22844	21430	159856	27111	1057916	46444	108410	0	0	8209	550552	0	0
2024-09-30 22:12:47			0	38252	0	0	0	22838	21420	159840	27126	1057969	46432	108408	0	0	8207	551407	0	0
2024-09-30 22:13:47			0	38248	0	0	0	22836	21420	159852	26987	1058005	46455	108407	0	0	8207	551564	0	0
2024-09-30 22:14:47			0	38257	0	0	0	22836	21430	159896	27015	1057907	46444	108407	0	0	8208	551180	0	0
2024-09-30 22:15:47			0	38262	0	0	0	22841	21420	159952	27275	1057942	46444	108409	0	0	8208	551014	0	0
2024-09-30 22:16:47			0	38262	0	0	0	22831	21430	159928	26837	1057934	46444	108405	0	0	8208	550984	0	0
2024-09-30 22:17:47			0	38255	0	0	0	22825	21420	159828	26918	1057916	46455	108403	0	0	8208	551289	0	0
2024-09-30 22:18:47			0	38261	0	0	0	22838	21420	159920	26991	1057969	46455	108408	0	0	8208	551053	0	0
2024-09-30 22:19:47			0	38261	0	0	0	22828	21420	159860	27209	1057942	46455	108404	0	0	8208	551053	0	0
2024-09-30 22:20:47			0	38256	0	0	0	22825	21400	159892	27196	1057871	46441	108403	0	0	8208	551311	0	0
2024-09-30 22:21:47			0	38225	0	0	0	22825	21410	159948	26975	1057907	46443	108403	0	0	8206	552500	0	0
2024-09-30 22:22:47			0	38229	0	0	0	22825	21420	159948	26661	1057942	46432	108403	0	0	8206	552312	0	0
2024-09-30 22:23:47			0	38249	0	0	0	22831	21400	159996	27256	1057925	46441	108405	0	0	8207	551586	0	0
2024-09-30 22:24:47			0	38235	0	0	0	22831	21400	159976	26750	1057862	46440	108405	0	0	8206	552137	0	0
2024-09-30 22:25:47			0	38258	0	0	0	22815	21410	159948	26987	1057827	46431	108399	0	0	8208	551202	0	0
2024-09-30 22:26:47			0	38246	0	0	0	22828	21400	160016	26923	1057898	46453	108404	0	0	8207	551705	0	0
2024-09-30 22:27:47			0	38230	0	0	0	22825	21400	160000	26864	1057845	46441	108403	0	0	8206	552334	0	0
2024-09-30 22:28:47			0	38233	0	0	0	22818	21400	159968	27201	1057809	46429	108400	0	0	8207	552216	0	0
2024-09-30 22:29:47			0	38241	0	0	0	22812	21400	160032	26915	1057925	46430	108398	0	0	8207	551901	0	0
2024-09-30 22:30:47			0	38238	0	0	0	22825	21400	160004	26882	1057818	46430	108403	0	0	8207	552019	0	0
2024-09-30 22:31:47			0	38231	0	0	0	22818	21400	159940	27178	1057871	46430	108400	0	0	8206	552295	0	0
2024-09-30 22:32:47			0	38243	0	0	0	22807	21400	159904	26902	1057862	46440	108396	0	0	8207	551822	0	0
2024-09-30 22:33:47			0	38257	0	0	0	22810	21390	159956	26679	1057827	46440	108397	0	0	8208	551303	0	0
2024-09-30 22:34:47			0	38242	0	0	0	22810	21400	159920	26948	1057889	46429	108397	0	0	8207	551862	0	0
2024-09-30 22:35:47			0	38255	0	0	0	22823	21390	159956	26868	1057844	46440	108402	0	0	8208	551381	0	0
2024-09-30 22:36:47			0	38236	0	0	0	22810	21390	159940	26993	1057800	46440	108397	0	0	8207	552128	0	0
2024-09-30 22:37:47			0	38229	0	0	0	22794	21390	160028	26847	1057791	46429	108391	0	0	8207	552404	0	0
2024-09-30 22:38:47			0	38231	0	0	0	22789	21390	160068	27319	1057765	46440	108389	0	0	8207	552325	0	0
2024-09-30 22:39:47			0	38245	0	0	0	22792	21390	160004	26845	1057738	46429	108390	0	0	8208	551774	0	0
2024-09-30 22:40:47			0	38228	0	0	0	22797	21380	160080	27046	1057702	46439	108392	0	0	8206	552474	0	0
2024-09-30 22:41:47			0	38210	0	0	0	22794	21370	160076	26958	1057764	46438	108391	0	0	8205	553214	0	0
2024-09-30 22:42:47			0	38225	0	0	0	22794	21380	160008	27178	1057747	46427	108391	0	0	8206	552592	0	0
2024-09-30 22:43:47			0	38230	0	0	0	22797	21380	160152	27071	1057693	46450	108392	0	0	8207	552395	0	0
2024-09-30 22:44:47			0	38228	0	0	0	22789	21380	160120	27453	1057773	46427	108389	0	0	8207	552474	0	0
2024-09-30 22:45:47			0	38216	0	0	0	22784	21370	160168	27310	1057764	46427	108387	0	0	8206	552977	0	0
2024-09-30 22:46:47			0	38231	0	0	0	22779	21370	160148	27039	1057738	46438	108385	0	0	8207	552387	0	0
2024-09-30 22:47:47			0	38213	0	0	0	22792	21370	160168	27104	1057764	46438	108390	0	0	8206	553095	0	0
2024-09-30 22:48:47			0	38236	0	0	0	22786	21370	160200	27072	1057738	46427	108388	0	0	8207	552190	0	0
2024-09-30 22:49:47			0	38228	0	0	0	22781	21370	160172	27150	1057684	46450	108386	0	0	8207	552505	0	0
2024-09-30 22:50:47			0	38225	0	0	0	22779	21370	160208	27062	1057702	46438	108385	0	0	8207	552623	0	0
2024-09-30 22:51:47			0	38214	0	0	0	22781	21370	160172	27053	1057658	46427	108386	0	0	8206	553056	0	0
2024-09-30 22:52:47			0	38190	0	0	0	22776	21360	160192	26790	1057711	46436	108384	0	0	8205	554033	0	0
2024-09-30 22:53:47			0	38207	0	0	0	22771	21370	160160	26946	1057631	46427	108382	0	0	8206	553332	0	0
2024-09-30 22:54:47			0	38202	0	0	0	22774	21370	160272	26845	1057755	46438	108383	0	0	8205	553529	0	0
2024-09-30 22:55:47			0	38209	0	0	0	22786	21360	160208	26946	1057693	46437	108388	0	0	8205	553284	0	0
2024-09-30 22:56:47			0	38194	0	0	0	22771	21360	160212	27197	1057693	46449	108382	0	0	8205	553875	0	0
2024-09-30 22:57:47			0	38201	0	0	0	22774	21370	160200	27036	1057649	46438	108383	0	0	8205	553568	0	0
2024-09-30 22:58:47			0	38188	0	0	0	22776	21360	160288	27192	1057666	46437	108384	0	0	8204	554111	0	0
2024-09-30 22:59:47			0	38193	0	0	0	22774	21360	160272	27052	1057693	46426	108383	0	0	8205	553914	0	0
2024-09-30 23:00:47			0	38199	0	0	0	22776	21360	160208	26972	1057693	46426	108384	0	0	8205	553678	0	0
2024-09-30 23:01:47			0	38182	0	0	0	22766	21350	160252	26998	1057595	46425	108380	0	0	8204	554379	0	0
2024-09-30 23:02:47			0	38169	0	0	0	22779	21350	160184	26955	1057622	46425	108385	0	0	8203	554892	0	0
2024-09-30 23:03:47			0	38181	0	0	0	22781	21350	160300	26866	1057675	46436	108386	0	0	8204	554418	0	0
2024-09-30 23:04:47			0	38180	0	0	0	22781	21340	160216	27048	1057577	46435	108386	0	0	8204	554489	0	0
2024-09-30 23:05:47			0	38168	0	0	0	22776	21350	160260	27248	1057649	46436	108384	0	0	8203	554931	0	0
2024-09-30 23:06:47			0	38178	0	0	0	22786	21350	160312	26956	1057675	46448	108388	0	0	8204	554537	0	0
2024-09-30 23:07:47			0	38179	0	0	0	22784	21360	160248	27218	1057604	46436	108387	0	0	8204	554466	0	0
2024-09-30 23:08:47			0	38164	0	0	0	22771	21350	160280	26875	1057675	46448	108382	0	0	8203	555089	0	0
2024-09-30 23:09:47			0	38157	0	0	0	22781	21360	160292	27003	1057631	46425	108386	0	0	8203	555335	0	0
2024-09-30 23:10:47			0	38164	0	0	0	22779	21350	160296	26856	1057675	46448	108385	0	0	8203	555089	0	0
2024-09-30 23:11:47			0	38166	0	0	0	22774	21350	160348	26934	1057649	46436	108383	0	0	8203	555010	0	0
2024-09-30 23:12:47			0	38163	0	0	0	22766	21350	160356	27168	1057595	46436	108380	0	0	8203	555129	0	0
2024-09-30 23:13:47			0	38161	0	0	0	22761	21350	160372	27109	1057586	46425	108378	0	0	8203	555208	0	0
2024-09-30 23:14:47			0	38138	0	0	0	22766	21350	160288	27507	1057560	46415	108380	0	0	8202	556116	0	0
2024-09-30 23:15:47			0	38137	0	0	0	22768	21360	160352	27216	1057631	46436	108381	0	0	8202	556125	0	0
2024-09-30 23:16:47			0	38163	0	0	0	22761	21350	160304	27225	1057666	46436	108378	0	0	8203	555129	0	0
2024-09-30 23:17:47			0	38138	0	0	0	22761	21350	160412	26783	1057595	46448	108378	0	0	8202	556116	0	0
2024-09-30 23:18:47			0	38137	0	0	0	22748	21340	160416	27208	1057604	46424	108373	0	0	8202	556187	0	0
2024-09-30 23:19:47			0	38127	0	0	0	22753	21330	160428	27107	1057550	46422	108375	0	0	8201	556613	0	0
2024-09-30 23:20:47			0	38137	0	0	0	22753	21350	160480	27206	1057640	46425	108375	0	0	8202	556156	0	0
2024-09-30 23:21:47			0	38118	0	0	0	22748	21340	160572	27260	1057577	46424	108373	0	0	8201	556938	0	0
2024-09-30 23:22:47			0	38123	0	0	0	22753	21340	160512	27137	1057604	46447	108375	0	0	8201	556740	0	0
2024-09-30 23:23:47			0	38097	0	0	0	22755	21340	160756	27121	1057551	46435	108376	0	0	8199	557769	0	0
2024-09-30 23:24:47			0	38064	0	0	0	22758	21340	160756	27244	1057551	46447	108377	0	0	8197	559077	0	0
2024-09-30 23:25:47			0	38011	0	0	0	22753	21340	160895	26894	1057551	46424	108375	0	0	8194	561182	0	0
2024-09-30 23:26:47			0	37987	0	0	0	22755	21340	161063	27272	1057577	46435	108376	0	0	8193	562136	0	0
2024-09-30 23:27:47			0	37939	0	0	0	22753	21330	161195	26719	1057560	46434	108375	0	0	8190	564080	0	0
2024-09-30 23:28:47			0	37944	0	0	0	22748	21330	161247	27107	1057560	46446	108373	0	0	8190	563880	0	0
2024-09-30 23:29:47			0	37939	0	0	0	22753	21330	161251	27230	1057577	46445	108375	0	0	8190	564080	0	0
2024-09-30 23:30:47			0	37949	0	0	0	22753	21320	161275	27053	1057515	46445	108375	0	0	8191	563712	0	0
2024-09-30 23:31:47			0	37931	0	0	0	22750	21330	161291	27097	1057506	46423	108374	0	0	8190	564399	0	0
2024-09-30 23:32:47			0	37934	0	0	0	22753	21320	161447	26830	1057461	46433	108375	0	0	8190	564311	0	0
2024-09-30 23:33:47			0	37901	0	0	0	22748	21330	161487	27022	1057524	46433	108373	0	0	8188	565597	0	0
2024-09-30 23:34:47			0	37891	0	0	0	22742	21330	161591	27124	1057470	46422	108371	0	0	8187	565996	0	0
2024-09-30 23:35:47			0	37879	0	0	0	22740	21330	161519	26906	1057524	46433	108370	0	0	8187	566476	0	0
2024-09-30 23:36:47			0	37870	0	0	0	22740	21330	161515	26989	1057533	46423	108370	0	0	8186	566836	0	0
2024-09-30 23:37:47			0	37860	0	0	0	22740	21330	161587	26915	1057470	46412	108370	0	0	8186	567236	0	0
2024-09-30 23:38:47			0	37860	0	0	0	22742	21320	161611	27144	1057479	46432	108371	0	0	8186	567268	0	0
2024-09-30 23:39:47			0	37877	0	0	0	22742	21320	161459	27208	1057515	46422	108371	0	0	8187	566587	0	0
2024-09-30 23:40:47			0	37885	0	0	0	22742	21330	161499	27003	1057524	46412	108371	0	0	8187	566236	0	0
2024-09-30 23:41:47			0	37892	0	0	0	22742	21330	161459	26909	1057497	46433	108371	0	0	8188	565956	0	0
2024-09-30 23:42:47			0	37885	0	0	0	22748	21320	161367	27150	1057488	46433	108373	0	0	8187	566268	0	0
2024-09-30 23:43:47			0	37894	0	0	0	22742	21320	161527	27159	1057488	46433	108371	0	0	8188	565908	0	0
2024-09-30 23:44:47			0	37869	0	0	0	22742	21320	161527	27159	1057515	46433	108371	0	0	8186	566908	0	0
2024-09-30 23:45:47			0	37879	0	0	0	22742	21320	161563	27197	1057515	46433	108371	0	0	8187	566507	0	0
2024-09-30 23:46:47			0	37864	0	0	0	22745	21320	161515	27069	1057506	46421	108372	0	0	8186	567108	0	0
2024-09-30 23:47:47			0	37839	0	0	0	22742	21320	161731	26916	1057506	46432	108371	0	0	8184	568109	0	0
2024-09-30 23:48:47			0	37858	0	0	0	22740	21320	161707	27097	1057461	46445	108370	0	0	8185	567348	0	0
2024-09-30 23:49:47			0	37850	0	0	0	22745	21320	161671	27204	1057488	46433	108372	0	0	8185	567668	0	0
2024-09-30 23:50:47			0	37851	0	0	0	22750	21320	161563	27052	1057452	46444	108374	0	0	8185	567628	0	0
2024-09-30 23:51:47			0	37871	0	0	0	22745	21310	161567	26934	1057488	46420	108372	0	0	8186	566859	0	0
2024-09-30 23:52:47			0	37911	0	0	0	22740	21310	161403	26960	1057497	46443	108370	0	0	8189	565260	0	0
2024-09-30 23:53:47			0	37916	0	0	0	22742	21320	161343	27092	1057515	46422	108371	0	0	8189	565029	0	0
2024-09-30 23:54:47			0	37931	0	0	0	22729	21320	161315	27178	1057461	46422	108366	0	0	8190	564430	0	0
2024-09-30 23:55:47			0	37939	0	0	0	22735	21320	161235	27020	1057461	46422	108368	0	0	8190	564111	0	0
2024-09-30 23:56:47			0	37960	0	0	0	22729	21310	161183	27050	1057488	46431	108366	0	0	8192	563305	0	0
2024-09-30 23:57:47			0	37976	0	0	0	22732	21320	161143	26979	1057461	46422	108367	0	0	8193	562636	0	0
2024-09-30 23:58:47			0	37991	0	0	0	22724	21320	161215	26644	1057532	46421	108364	0	0	8194	562039	0	0
2024-09-30 23:59:47			0	37985	0	0	0	22727	21310	161083	27144	1057381	46431	108365	0	0	8193	562309	0	0
2024-10-01 00:00:47			0	37998	0	0	0	22735	21310	161059	26991	1057443	46431	108368	0	0	8194	561792	0	0
2024-10-01 00:01:47			0	37998	0	0	0	22732	21310	160979	27088	1057381	46431	108367	0	0	8194	561792	0	0
2024-10-01 00:02:47			0	37996	0	0	0	22724	21310	160999	26923	1057470	46420	108364	0	0	8194	561872	0	0
2024-10-01 00:03:47			0	38007	0	0	0	22732	21310	160987	27215	1057443	46431	108367	0	0	8194	561434	0	0
2024-10-01 00:04:47			0	37989	0	0	0	22737	21310	161003	26906	1057408	46443	108369	0	0	8193	562150	0	0
2024-10-01 00:05:47			0	37991	0	0	0	22732	21310	160991	26953	1057381	46431	108367	0	0	8193	562071	0	0
2024-10-01 00:06:47			0	38007	0	0	0	22732	21310	160943	27154	1057470	46420	108367	0	0	8194	561434	0	0
2024-10-01 00:07:47			0	38031	0	0	0	22737	21310	160984	26797	1057355	46431	108369	0	0	8196	560480	0	0
2024-10-01 00:08:47			0	38030	0	0	0	22722	21310	160975	26731	1057355	46420	108363	0	0	8196	560520	0	0
2024-10-01 00:09:47			0	38031	0	0	0	22719	21310	160832	27178	1057408	46431	108362	0	0	8196	560480	0	0
2024-10-01 00:10:47			0	38046	0	0	0	22714	21300	160872	26838	1057363	46430	108360	0	0	8197	559916	0	0
2024-10-01 00:11:47			0	38043	0	0	0	22722	21300	160884	27244	1057426	46420	108363	0	0	8197	560035	0	0
2024-10-01 00:12:47			0	38053	0	0	0	22719	21300	160840	27294	1057399	46431	108362	0	0	8197	559638	0	0
2024-10-01 00:13:47			0	38040	0	0	0	22716	21300	160972	26875	1057426	46431	108361	0	0	8197	560154	0	0
2024-10-01 00:14:47			0	38037	0	0	0	22711	21310	160860	26987	1057408	46443	108359	0	0	8196	560242	0	0
2024-10-01 00:15:47			0	38046	0	0	0	22714	21300	160772	27074	1057337	46430	108360	0	0	8197	559916	0	0
2024-10-01 00:16:47			0	38045	0	0	0	22711	21290	160844	26759	1057354	46429	108359	0	0	8197	559987	0	0
2024-10-01 00:17:47			0	38030	0	0	0	22714	21290	160896	26797	1057354	46441	108360	0	0	8196	560582	0	0
2024-10-01 00:18:47			0	38028	0	0	0	22711	21300	160940	26809	1057363	46419	108359	0	0	8196	560631	0	0
2024-10-01 00:19:47			0	38046	0	0	0	22698	21300	160912	27274	1057337	46419	108354	0	0	8197	559916	0	0
2024-10-01 00:20:47			0	38043	0	0	0	22709	21290	160972	27147	1057354	46418	108358	0	0	8197	560066	0	0
2024-10-01 00:21:47			0	38020	0	0	0	22706	21290	160972	26700	1057328	46418	108357	0	0	8195	560980	0	0
2024-10-01 00:22:47			0	38040	0	0	0	22706	21290	160980	26748	1057328	46408	108357	0	0	8197	560185	0	0
2024-10-01 00:23:47			0	38029	0	0	0	22706	21290	160919	26845	1057372	46429	108357	0	0	8196	560622	0	0
2024-10-01 00:24:47			0	38024	0	0	0	22714	21290	161031	26764	1057345	46429	108360	0	0	8196	560821	0	0
2024-10-01 00:25:47			0	37990	0	0	0	22711	21290	160935	27190	1057319	46418	108359	0	0	8194	562173	0	0
2024-10-01 00:26:47			0	38012	0	0	0	22714	21290	161087	26944	1057372	46429	108360	0	0	8195	561298	0	0
2024-10-01 00:27:47			0	37992	0	0	0	22711	21280	161035	26972	1057390	46429	108359	0	0	8194	562124	0	0
2024-10-01 00:28:47			0	37994	0	0	0	22714	21290	161003	26868	1057301	46418	108360	0	0	8194	562014	0	0
2024-10-01 00:29:47			0	38007	0	0	0	22709	21300	161051	26755	1057363	46442	108358	0	0	8195	561465	0	0
2024-10-01 00:30:47			0	38002	0	0	0	22711	21300	161083	26890	1057337	46430	108359	0	0	8194	561664	0	0
2024-10-01 00:31:47			0	37971	0	0	0	22703	21300	161059	27286	1057337	46419	108356	0	0	8193	562898	0	0
2024-10-01 00:32:47			0	37975	0	0	0	22701	21290	161079	26934	1057372	46429	108355	0	0	8193	562770	0	0
2024-10-01 00:33:47			0	37979	0	0	0	22698	21280	161067	26890	1057336	46429	108354	0	0	8193	562642	0	0
2024-10-01 00:34:47			0	37970	0	0	0	22706	21290	161131	26578	1057319	46429	108357	0	0	8193	562969	0	0
2024-10-01 00:35:47			0	37967	0	0	0	22698	21290	161271	27057	1057301	46429	108354	0	0	8192	563089	0	0
2024-10-01 00:36:47			0	37940	0	0	0	22698	21290	161183	26941	1057292	46429	108354	0	0	8191	564165	0	0
2024-10-01 00:37:47			0	37952	0	0	0	22698	21270	161299	27100	1057292	46427	108354	0	0	8192	563749	0	0
2024-10-01 00:38:47			0	37942	0	0	0	22690	21270	161359	26729	1057239	46427	108351	0	0	8191	564148	0	0
2024-10-01 00:39:47			0	37917	0	0	0	22688	21270	161339	26961	1057239	46416	108350	0	0	8190	565146	0	0
2024-10-01 00:40:47			0	37943	0	0	0	22680	21270	161287	27001	1057256	46427	108347	0	0	8191	564108	0	0
2024-10-01 00:41:47			0	37926	0	0	0	22690	21290	161275	27019	1057319	46418	108351	0	0	8190	564724	0	0
2024-10-01 00:42:47			0	37922	0	0	0	22693	21270	161327	26922	1057239	46416	108352	0	0	8190	564946	0	0
2024-10-01 00:43:47			0	37909	0	0	0	22693	21270	161395	27105	1057292	46427	108352	0	0	8189	565465	0	0
2024-10-01 00:44:47			0	37909	0	0	0	22696	21280	161395	27163	1057248	46440	108353	0	0	8189	565434	0	0
2024-10-01 00:45:47			0	37921	0	0	0	22690	21280	161467	27055	1057274	46440	108351	0	0	8190	564955	0	0
2024-10-01 00:46:47			0	37924	0	0	0	22693	21280	161323	26759	1057274	46417	108352	0	0	8190	564835	0	0
2024-10-01 00:47:47			0	37907	0	0	0	22693	21270	161323	26935	1057230	46416	108352	0	0	8189	565545	0	0
2024-10-01 00:48:47			0	37917	0	0	0	22677	21270	161319	26880	1057265	46416	108346	0	0	8190	565146	0	0
2024-10-01 00:49:47			0	37901	0	0	0	22680	21280	161403	27154	1057274	46440	108347	0	0	8189	565754	0	0
2024-10-01 00:50:47			0	37912	0	0	0	22685	21280	161443	27105	1057274	46428	108349	0	0	8189	565314	0	0
2024-10-01 00:51:47			0	37921	0	0	0	22680	21260	161307	27185	1057194	46426	108347	0	0	8190	565017	0	0
2024-10-01 00:52:47			0	37912	0	0	0	22683	21270	161343	27008	1057212	46416	108348	0	0	8189	565346	0	0
2024-10-01 00:53:47			0	37913	0	0	0	22685	21270	161463	27190	1057176	46416	108349	0	0	8189	565306	0	0
2024-10-01 00:54:47			0	37916	0	0	0	22664	21260	161327	27178	1057194	46416	108341	0	0	8190	565217	0	0
2024-10-01 00:55:47			0	37919	0	0	0	22677	21260	161427	27270	1057168	46426	108346	0	0	8190	565097	0	0
2024-10-01 00:56:47			0	37891	0	0	0	22675	21270	161435	27105	1057256	46416	108345	0	0	8188	566185	0	0
2024-10-01 00:57:47			0	37893	0	0	0	22672	21280	161475	26928	1057248	46417	108344	0	0	8189	566073	0	0
2024-10-01 00:58:47			0	37898	0	0	0	22664	21260	161535	27033	1057168	46416	108341	0	0	8189	565936	0	0
2024-10-01 00:59:47			0	37886	0	0	0	22672	21260	161539	27144	1057221	46426	108344	0	0	8188	566416	0	0
2024-10-01 01:00:47			0	37866	0	0	0	22667	21250	161639	26937	1057123	46415	108342	0	0	8187	567248	0	0
2024-10-01 01:01:47			0	37860	0	0	0	22667	21250	161639	26556	1057203	46425	108342	0	0	8187	567488	0	0
2024-10-01 01:02:47			0	37846	0	0	0	22672	21250	161575	26830	1057123	46425	108344	0	0	8186	568049	0	0
2024-10-01 01:03:47			0	37841	0	0	0	22662	21260	161687	26811	1057185	46426	108340	0	0	8186	568218	0	0
2024-10-01 01:04:47			0	37836	0	0	0	22670	21260	161707	26896	1057159	46426	108343	0	0	8185	568418	0	0
2024-10-01 01:05:47			0	37831	0	0	0	22670	21250	161787	26845	1057123	46415	108343	0	0	8185	568650	0	0
2024-10-01 01:06:47			0	37829	0	0	0	22659	21250	161763	26953	1057176	46436	108339	0	0	8185	568730	0	0
2024-10-01 01:07:47			0	37806	0	0	0	22659	21250	161847	26870	1057203	46425	108339	0	0	8183	569653	0	0
2024-10-01 01:08:47			0	37799	0	0	0	22667	21240	161807	26700	1057202	46424	108342	0	0	8183	569966	0	0
2024-10-01 01:09:47			0	37806	0	0	0	22670	21250	161911	27052	1057150	46404	108343	0	0	8183	569653	0	0
2024-10-01 01:10:47			0	37812	0	0	0	22675	21250	161899	26833	1057123	46425	108345	0	0	8184	569412	0	0
2024-10-01 01:11:47			0	37819	0	0	0	22667	21250	161875	26982	1057123	46425	108342	0	0	8184	569131	0	0
2024-10-01 01:12:47			0	37829	0	0	0	22670	21260	161795	26918	1057132	46405	108343	0	0	8185	568699	0	0
2024-10-01 01:13:47			0	37820	0	0	0	22667	21250	161867	26897	1057140	46425	108342	0	0	8184	569091	0	0
2024-10-01 01:14:47			0	37839	0	0	0	22675	21250	161727	26648	1057167	46425	108345	0	0	8185	568329	0	0
2024-10-01 01:15:47			0	37855	0	0	0	22675	21250	161655	26748	1057140	46404	108345	0	0	8186	567688	0	0
2024-10-01 01:16:47			0	37871	0	0	0	22675	21250	161663	27055	1057114	46425	108345	0	0	8187	567048	0	0
2024-10-01 01:17:47			0	37883	0	0	0	22685	21250	161619	26951	1057140	46436	108349	0	0	8188	566568	0	0
2024-10-01 01:18:47			0	37877	0	0	0	22677	21240	161627	26849	1057122	46424	108346	0	0	8187	566839	0	0
2024-10-01 01:19:47			0	37877	0	0	0	22680	21240	161591	27064	1057105	46414	108347	0	0	8187	566839	0	0
2024-10-01 01:20:47			0	37896	0	0	0	22685	21250	161591	26778	1057176	46415	108349	0	0	8188	566048	0	0
2024-10-01 01:21:47			0	37905	0	0	0	22677	21260	161451	26767	1057159	46416	108346	0	0	8189	565657	0	0
2024-10-01 01:22:47			0	37929	0	0	0	22683	21240	161463	26837	1057158	46414	108348	0	0	8190	564761	0	0
2024-10-01 01:23:47			0	37920	0	0	0	22677	21240	161439	26693	1057158	46424	108346	0	0	8190	565120	0	0
2024-10-01 01:24:47			0	37956	0	0	0	22672	21250	161351	26781	1057167	46425	108344	0	0	8192	563652	0	0
2024-10-01 01:25:47			0	37950	0	0	0	22677	21250	161419	26949	1057176	46415	108346	0	0	8192	563892	0	0
2024-10-01 01:26:47			0	37964	0	0	0	22677	21260	161243	26788	1057212	46416	108346	0	0	8193	563302	0	0
2024-10-01 01:27:47			0	37959	0	0	0	22688	21250	161359	27088	1057203	46425	108350	0	0	8192	563533	0	0
2024-10-01 01:28:47			0	37964	0	0	0	22677	21240	161251	26934	1057158	46424	108346	0	0	8192	563365	0	0
2024-10-01 01:29:47			0	37973	0	0	0	22675	21250	161203	26953	1057176	46425	108345	0	0	8193	562975	0	0
2024-10-01 01:30:47			0	37979	0	0	0	22672	21260	161227	26955	1057185	46416	108344	0	0	8193	562705	0	0
2024-10-01 01:31:47			0	37955	0	0	0	22675	21250	161379	27199	1057203	46415	108345	0	0	8192	563692	0	0
2024-10-01 01:32:47			0	37985	0	0	0	22675	21250	161179	27111	1057150	46404	108345	0	0	8194	562497	0	0
2024-10-01 01:33:47			0	37962	0	0	0	22677	21250	161259	26675	1057123	46425	108346	0	0	8192	563413	0	0
2024-10-01 01:34:47			0	37976	0	0	0	22675	21250	161327	26828	1057203	46415	108345	0	0	8193	562855	0	0
2024-10-01 01:35:47			0	37969	0	0	0	22667	21260	161195	26979	1057168	46426	108342	0	0	8193	563103	0	0
2024-10-01 01:36:47			0	37984	0	0	0	22667	21250	161243	27175	1057194	46415	108342	0	0	8194	562537	0	0
2024-10-01 01:37:47			0	37981	0	0	0	22659	21250	161311	26961	1057176	46415	108339	0	0	8194	562656	0	0
2024-10-01 01:38:47			0	37972	0	0	0	22664	21250	161307	26899	1057123	46415	108341	0	0	8193	563015	0	0
2024-10-01 01:39:47			0	37980	0	0	0	22659	21240	161375	26776	1057158	46414	108339	0	0	8194	562727	0	0
2024-10-01 01:40:47			0	37977	0	0	0	22654	21240	161267	26991	1057158	46414	108337	0	0	8194	562847	0	0
2024-10-01 01:41:47			0	37964	0	0	0	22657	21240	161307	27183	1057131	46424	108338	0	0	8193	563365	0	0
2024-10-01 01:42:47			0	37967	0	0	0	22659	21250	161327	27150	1057140	46404	108339	0	0	8193	563214	0	0
2024-10-01 01:43:47			0	37969	0	0	0	22644	21250	161323	26946	1057140	46425	108333	0	0	8193	563134	0	0
2024-10-01 01:44:47			0	37960	0	0	0	22651	21250	161271	26776	1057167	46425	108336	0	0	8193	563493	0	0
2024-10-01 01:45:47			0	37958	0	0	0	22651	21250	161403	27315	1057070	46436	108336	0	0	8193	563573	0	0
2024-10-01 01:46:47			0	37951	0	0	0	22649	21250	161383	26911	1057140	46425	108335	0	0	8192	563852	0	0
2024-10-01 01:47:47			0	37953	0	0	0	22654	21240	161367	27138	1057096	46414	108337	0	0	8192	563803	0	0
2024-10-01 01:48:47			0	37932	0	0	0	22649	21240	161387	27234	1057078	46424	108335	0	0	8191	564641	0	0
2024-10-01 01:49:47			0	37929	0	0	0	22654	21240	161399	27173	1057122	46414	108337	0	0	8191	564761	0	0
2024-10-01 01:50:47			0	37923	0	0	0	22654	21230	161431	26979	1057034	46402	108337	0	0	8190	565032	0	0
2024-10-01 01:51:47			0	37910	0	0	0	22649	21240	161475	27322	1057043	46424	108335	0	0	8190	565520	0	0
2024-10-01 01:52:47			0	37897	0	0	0	22649	21240	161723	26932	1057122	46414	108335	0	0	8189	566039	0	0
2024-10-01 01:53:47			0	37887	0	0	0	22641	21230	161667	27000	1057105	46423	108332	0	0	8188	566471	0	0
2024-10-01 01:54:47			0	37870	0	0	0	22646	21230	161539	27092	1057105	46391	108334	0	0	8187	567151	0	0
2024-10-01 01:55:47			0	37887	0	0	0	22649	21230	161603	26906	1057051	46413	108335	0	0	8188	566471	0	0
2024-10-01 01:56:47			0	37881	0	0	0	22646	21230	161575	26887	1056998	46413	108334	0	0	8188	566711	0	0
2024-10-01 01:57:47			0	37877	0	0	0	22646	21220	161623	27131	1057042	46422	108334	0	0	8188	566902	0	0
2024-10-01 01:58:47			0	37862	0	0	0	22651	21230	161603	26977	1057025	46413	108336	0	0	8187	567471	0	0
2024-10-01 01:59:47			0	37874	0	0	0	22631	21230	161643	26864	1057060	46423	108328	0	0	8188	566991	0	0
2024-10-01 02:00:47			0	37867	0	0	0	22641	21230	161651	26899	1057034	46402	108332	0	0	8187	567271	0	0
2024-10-01 02:01:47			0	37854	0	0	0	22641	21230	161699	26958	1057025	46434	108332	0	0	8187	567791	0	0
2024-10-01 02:02:47			0	37859	0	0	0	22638	21230	161683	27220	1057034	46413	108331	0	0	8187	567591	0	0
2024-10-01 02:03:47			0	37876	0	0	0	22644	21230	161631	27313	1056998	46423	108333	0	0	8188	566911	0	0
2024-10-01 02:04:47			0	37867	0	0	0	22649	21220	161771	26970	1057042	46422	108335	0	0	8187	567302	0	0
2024-10-01 02:05:47			0	37854	0	0	0	22638	21220	161743	26627	1057016	46422	108331	0	0	8187	567823	0	0
2024-10-01 02:06:47			0	37862	0	0	0	22636	21210	161659	27350	1057051	46421	108330	0	0	8187	567534	0	0
2024-10-01 02:07:47			0	37842	0	0	0	22628	21210	161635	26956	1056971	46411	108327	0	0	8186	568336	0	0
2024-10-01 02:08:47			0	37863	0	0	0	22623	21210	161635	27208	1056971	46421	108325	0	0	8187	567494	0	0
2024-10-01 02:09:47			0	37854	0	0	0	22623	21230	161631	27293	1056945	46423	108325	0	0	8187	567791	0	0
2024-10-01 02:10:47			0	37856	0	0	0	22633	21210	161675	27476	1056918	46400	108329	0	0	8187	567774	0	0
2024-10-01 02:11:47			0	37854	0	0	0	22631	21220	161799	27173	1057033	46421	108328	0	0	8187	567823	0	0
2024-10-01 02:12:47			0	37840	0	0	0	22636	21220	161787	27138	1056980	46432	108330	0	0	8186	568384	0	0
2024-10-01 02:13:47			0	37848	0	0	0	22628	21210	161851	27092	1056962	46431	108327	0	0	8186	568095	0	0
2024-10-01 02:14:47			0	37849	0	0	0	22631	21210	161823	26833	1056918	46411	108328	0	0	8186	568055	0	0
2024-10-01 02:15:47			0	37851	0	0	0	22623	21200	161751	27145	1056980	46420	108325	0	0	8187	568006	0	0
2024-10-01 02:16:47			0	37852	0	0	0	22625	21210	161839	27123	1056998	46421	108326	0	0	8187	567935	0	0
2024-10-01 02:17:47			0	37847	0	0	0	22620	21210	161719	27029	1056918	46411	108324	0	0	8186	568135	0	0
2024-10-01 02:18:47			0	37827	0	0	0	22620	21210	161839	27121	1056998	46421	108324	0	0	8185	568937	0	0
2024-10-01 02:19:47			0	37841	0	0	0	22623	21200	161799	26726	1056953	46420	108325	0	0	8186	568407	0	0
2024-10-01 02:20:47			0	37835	0	0	0	22607	21210	161863	26870	1056989	46420	108319	0	0	8186	568616	0	0
2024-10-01 02:21:47			0	37836	0	0	0	22581	21200	161923	26913	1056873	46420	108309	0	0	8186	568608	0	0
2024-10-01 02:22:47			0	37830	0	0	0	22576	21200	161743	26741	1056837	46398	108307	0	0	8186	568848	0	0
2024-10-01 02:23:47			0	37835	0	0	0	22571	21190	161671	26632	1056855	46398	108305	0	0	8186	568679	0	0
2024-10-01 02:24:47			0	37849	0	0	0	22574	21190	161671	27142	1056766	46397	108306	0	0	8187	568118	0	0
2024-10-01 02:25:47			0	37856	0	0	0	22563	21180	161607	27284	1056731	46397	108302	0	0	8188	567869	0	0
2024-10-01 02:26:47			0	37874	0	0	0	22563	21170	161503	27046	1056713	46407	108302	0	0	8189	567179	0	0
2024-10-01 02:27:47			0	37907	0	0	0	22537	21180	161403	26946	1056722	46396	108292	0	0	8191	565828	0	0
2024-10-01 02:28:47			0	37914	0	0	0	22545	21170	161331	26916	1056740	46407	108295	0	0	8191	565580	0	0
2024-10-01 02:29:47			0	37951	0	0	0	22550	21170	161239	27178	1056757	46406	108297	0	0	8193	564102	0	0
2024-10-01 02:30:47			0	37966	0	0	0	22537	21160	161271	27277	1056659	46405	108292	0	0	8195	563535	0	0
2024-10-01 02:31:47			0	37984	0	0	0	22548	21150	161091	26901	1056668	46381	108296	0	0	8195	562849	0	0
2024-10-01 02:32:47			0	37998	0	0	0	22542	21150	161083	26719	1056624	46404	108294	0	0	8196	562291	0	0
2024-10-01 02:33:47			0	38030	0	0	0	22545	21150	161016	27083	1056615	46404	108295	0	0	8198	561018	0	0
2024-10-01 02:34:47			0	38028	0	0	0	22548	21140	160972	26993	1056606	46393	108296	0	0	8198	561129	0	0
2024-10-01 02:35:47			0	38042	0	0	0	22537	21140	160920	26821	1056526	46415	108292	0	0	8199	560572	0	0
2024-10-01 02:36:47			0	38066	0	0	0	22548	21150	160844	27220	1056562	46415	108296	0	0	8200	559588	0	0
2024-10-01 02:37:47			0	38083	0	0	0	22548	21140	160732	26892	1056597	46403	108296	0	0	8201	558944	0	0
2024-10-01 02:38:47			0	38102	0	0	0	22553	21140	160668	27187	1056579	46415	108298	0	0	8202	558191	0	0
2024-10-01 02:39:47			0	38102	0	0	0	22548	21140	160688	27189	1056570	46403	108296	0	0	8202	558191	0	0
2024-10-01 02:40:47			0	38133	0	0	0	22550	21140	160680	27116	1056553	46415	108297	0	0	8204	556963	0	0
2024-10-01 02:41:47			0	38138	0	0	0	22566	21150	160612	27062	1056588	46404	108303	0	0	8204	556734	0	0
2024-10-01 02:42:47			0	38146	0	0	0	22550	21150	160608	27062	1056535	46415	108297	0	0	8205	556418	0	0
2024-10-01 02:43:47			0	38151	0	0	0	22550	21140	160624	27185	1056570	46403	108297	0	0	8205	556251	0	0
2024-10-01 02:44:47			0	38155	0	0	0	22550	21140	160492	27008	1056544	46403	108297	0	0	8205	556093	0	0
2024-10-01 02:45:47			0	38183	0	0	0	22545	21140	160484	27237	1056544	46414	108295	0	0	8207	554986	0	0
2024-10-01 02:46:47			0	38175	0	0	0	22540	21140	160432	27211	1056570	46424	108293	0	0	8207	555302	0	0
2024-10-01 02:47:47			0	38178	0	0	0	22550	21130	160380	27156	1056526	46423	108297	0	0	8207	555214	0	0
2024-10-01 02:48:47			0	38189	0	0	0	22542	21120	160428	26987	1056570	46412	108294	0	0	8207	554811	0	0
2024-10-01 02:49:47			0	38198	0	0	0	22548	21120	160404	26809	1056544	46401	108296	0	0	8208	554455	0	0
2024-10-01 02:50:47			0	38203	0	0	0	22548	21120	160296	27126	1056544	46401	108296	0	0	8208	554258	0	0
2024-10-01 02:51:47			0	38202	0	0	0	22540	21130	160372	27272	1056561	46402	108293	0	0	8208	554267	0	0
2024-10-01 02:52:47			0	38210	0	0	0	22529	21130	160344	27066	1056561	46402	108289	0	0	8209	553951	0	0
2024-10-01 02:53:47			0	38211	0	0	0	22529	21110	160352	26791	1056455	46412	108289	0	0	8209	553973	0	0
2024-10-01 02:54:47			0	38219	0	0	0	22537	21110	160296	26909	1056535	46401	108292	0	0	8209	553658	0	0
2024-10-01 02:55:47			0	38228	0	0	0	22542	21110	160220	26944	1056472	46411	108294	0	0	8210	553303	0	0
2024-10-01 02:56:47			0	38245	0	0	0	22529	21110	160276	26713	1056535	46401	108289	0	0	8211	552633	0	0
2024-10-01 02:57:47			0	38251	0	0	0	22537	21110	160280	26946	1056508	46401	108292	0	0	8211	552397	0	0
2024-10-01 02:58:47			0	38263	0	0	0	22535	21110	160168	27019	1056535	46412	108291	0	0	8212	551924	0	0
2024-10-01 02:59:47			0	38249	0	0	0	22542	21110	160212	26769	1056508	46412	108294	0	0	8211	552475	0	0
2024-10-01 03:00:47			0	38256	0	0	0	22527	21100	160068	27189	1056463	46400	108288	0	0	8211	552230	0	0
2024-10-01 03:01:47			0	38267	0	0	0	22529	21100	160144	26814	1056428	46399	108289	0	0	8212	551797	0	0
2024-10-01 03:02:47			0	38295	0	0	0	22535	21110	160024	27244	1056455	46412	108291	0	0	8214	550665	0	0
2024-10-01 03:03:47			0	38278	0	0	0	22542	21110	160064	27038	1056481	46401	108294	0	0	8213	551334	0	0
2024-10-01 03:04:47			0	38291	0	0	0	22540	21110	160104	26802	1056499	46411	108293	0	0	8213	550823	0	0
2024-10-01 03:05:47			0	38285	0	0	0	22540	21110	160120	26965	1056552	46411	108293	0	0	8213	551059	0	0
2024-10-01 03:06:47			0	38284	0	0	0	22535	21110	160108	26942	1056508	46412	108291	0	0	8213	551098	0	0
2024-10-01 03:07:47			0	38267	0	0	0	22537	21100	160096	27164	1056463	46411	108292	0	0	8212	551797	0	0
2024-10-01 03:08:47			0	38288	0	0	0	22532	21110	160044	26941	1056446	46400	108290	0	0	8213	550941	0	0
2024-10-01 03:09:47			0	38281	0	0	0	22532	21110	160000	27197	1056481	46412	108290	0	0	8213	551216	0	0
2024-10-01 03:10:47			0	38273	0	0	0	22522	21090	160124	26772	1056446	46399	108286	0	0	8212	551592	0	0
2024-10-01 03:11:47			0	38283	0	0	0	22529	21110	160080	26807	1056446	46400	108289	0	0	8213	551137	0	0
2024-10-01 03:12:47			0	38261	0	0	0	22529	21100	160144	27008	1056410	46411	108289	0	0	8212	552033	0	0
2024-10-01 03:13:47			0	38270	0	0	0	22524	21090	160152	27026	1056472	46399	108287	0	0	8212	551710	0	0
2024-10-01 03:14:47			0	38257	0	0	0	22516	21100	160060	27114	1056437	46400	108284	0	0	8212	552191	0	0
2024-10-01 03:15:47			0	38278	0	0	0	22514	21100	160100	26889	1056410	46400	108283	0	0	8213	551364	0	0
2024-10-01 03:16:47			0	38247	0	0	0	22509	21090	160124	26798	1056419	46399	108281	0	0	8211	552615	0	0
2024-10-01 03:17:47			0	38260	0	0	0	22509	21100	160144	27187	1056437	46400	108281	0	0	8212	552073	0	0
2024-10-01 03:18:47			0	38243	0	0	0	22514	21100	160224	26904	1056455	46399	108283	0	0	8211	552742	0	0
2024-10-01 03:19:47			0	38265	0	0	0	22509	21110	160152	26748	1056446	46389	108281	0	0	8212	551845	0	0
2024-10-01 03:20:47			0	38261	0	0	0	22501	21100	160216	26823	1056428	46399	108278	0	0	8212	552033	0	0
2024-10-01 03:21:47			0	38236	0	0	0	22496	21090	160188	26870	1056330	46409	108276	0	0	8211	553049	0	0
2024-10-01 03:22:47			0	38229	0	0	0	22496	21080	160180	27043	1056295	46375	108276	0	0	8210	553355	0	0
2024-10-01 03:23:47			0	38254	0	0	0	22493	21080	160180	26994	1056348	46386	108275	0	0	8212	552370	0	0
2024-10-01 03:24:47			0	38236	0	0	0	22509	21080	160212	26920	1056365	46397	108281	0	0	8210	553079	0	0
2024-10-01 03:25:47			0	38245	0	0	0	22498	21080	160176	26963	1056365	46397	108277	0	0	8211	552725	0	0
2024-10-01 03:26:47			0	38243	0	0	0	22498	21070	160292	27163	1056383	46408	108277	0	0	8211	552834	0	0
2024-10-01 03:27:47			0	38251	0	0	0	22498	21080	160280	27357	1056295	46408	108277	0	0	8212	552488	0	0
2024-10-01 03:28:47			0	38228	0	0	0	22490	21080	160276	27105	1056241	46397	108274	0	0	8210	553395	0	0
2024-10-01 03:29:47			0	38219	0	0	0	22488	21080	160368	27144	1056365	46397	108273	0	0	8210	553750	0	0
2024-10-01 03:30:47			0	38229	0	0	0	22485	21080	160364	27119	1056365	46397	108272	0	0	8210	553355	0	0
2024-10-01 03:31:47			0	38215	0	0	0	22480	21080	160344	26845	1056312	46397	108270	0	0	8210	553907	0	0
2024-10-01 03:32:47			0	38212	0	0	0	22477	21070	160400	27351	1056321	46396	108269	0	0	8210	554057	0	0
2024-10-01 03:33:47			0	38202	0	0	0	22459	21060	160484	27140	1056258	46384	108262	0	0	8209	554482	0	0
2024-10-01 03:34:47			0	38199	0	0	0	22464	21060	160484	27281	1056196	46384	108264	0	0	8209	554600	0	0
2024-10-01 03:35:47			0	38208	0	0	0	22470	21060	160512	26838	1056223	46395	108266	0	0	8209	554245	0	0
2024-10-01 03:36:47			0	38190	0	0	0	22470	21060	160528	26922	1056196	46395	108266	0	0	8208	554956	0	0
2024-10-01 03:37:47			0	38184	0	0	0	22470	21060	160556	26694	1056258	46395	108266	0	0	8208	555193	0	0
2024-10-01 03:38:47			0	38186	0	0	0	22480	21050	160616	26849	1056267	46395	108270	0	0	8208	555145	0	0
2024-10-01 03:39:47			0	38185	0	0	0	22467	21050	160436	27137	1056241	46395	108265	0	0	8208	555184	0	0
2024-10-01 03:40:47			0	38176	0	0	0	22459	21050	160504	27391	1056232	46382	108262	0	0	8208	555540	0	0
2024-10-01 03:41:47			0	38179	0	0	0	22454	21050	160572	27197	1056178	46394	108260	0	0	8208	555421	0	0
2024-10-01 03:42:47			0	38187	0	0	0	22459	21060	160500	26785	1056223	46384	108262	0	0	8208	555074	0	0
2024-10-01 03:43:47			0	38190	0	0	0	22457	21040	160568	27015	1056240	46382	108261	0	0	8208	555018	0	0
2024-10-01 03:44:47			0	38197	0	0	0	22454	21030	160544	27274	1056152	46393	108260	0	0	8209	554772	0	0
2024-10-01 03:45:47			0	38175	0	0	0	22444	21040	160596	27194	1056090	46382	108256	0	0	8208	555610	0	0
2024-10-01 03:46:47			0	38185	0	0	0	22438	21040	160576	27045	1056169	46404	108254	0	0	8209	555215	0	0
2024-10-01 03:47:47			0	38168	0	0	0	22438	21040	160592	27237	1056143	46404	108254	0	0	8208	555887	0	0
2024-10-01 03:48:47			0	38185	0	0	0	22451	21030	160564	26922	1056072	46382	108259	0	0	8208	555246	0	0
2024-10-01 03:49:47			0	38180	0	0	0	22446	21030	160600	27216	1056125	46393	108257	0	0	8208	555443	0	0
2024-10-01 03:50:47			0	38173	0	0	0	22438	21030	160636	27149	1056072	46404	108254	0	0	8208	555720	0	0
2024-10-01 03:51:47			0	38181	0	0	0	22449	21030	160612	26778	1056063	46392	108258	0	0	8208	555404	0	0
2024-10-01 03:52:47			0	38161	0	0	0	22444	21030	160620	27105	1056116	46403	108256	0	0	8207	556195	0	0
2024-10-01 03:53:47			0	38162	0	0	0	22449	21030	160604	27232	1056125	46393	108258	0	0	8207	556155	0	0
2024-10-01 03:54:47			0	38158	0	0	0	22446	21030	160576	26982	1056089	46392	108257	0	0	8207	556313	0	0
2024-10-01 03:55:47			0	38159	0	0	0	22464	21020	160668	26955	1056107	46402	108264	0	0	8206	556305	0	0
2024-10-01 03:56:47			0	38139	0	0	0	22459	21030	160724	26890	1056152	46404	108262	0	0	8205	557065	0	0
2024-10-01 03:57:47			0	38141	0	0	0	22462	21030	160724	26885	1056152	46404	108263	0	0	8205	556986	0	0
2024-10-01 03:58:47			0	38142	0	0	0	22472	21020	160760	26788	1056134	46402	108267	0	0	8205	556977	0	0
2024-10-01 03:59:47			0	38156	0	0	0	22467	21030	160724	26807	1056116	46392	108265	0	0	8206	556393	0	0
2024-10-01 04:00:47			0	38139	0	0	0	22467	21030	160680	26961	1056169	46403	108265	0	0	8205	557065	0	0
2024-10-01 04:01:47			0	38132	0	0	0	22470	21040	160832	26864	1056161	46404	108266	0	0	8205	557312	0	0
2024-10-01 04:02:47			0	38111	0	0	0	22464	21040	160884	26720	1056143	46415	108264	0	0	8204	558144	0	0
2024-10-01 04:03:47			0	38117	0	0	0	22467	21030	160952	27060	1056205	46404	108265	0	0	8204	557937	0	0
2024-10-01 04:04:47			0	38103	0	0	0	22470	21040	160912	26840	1056161	46404	108266	0	0	8203	558461	0	0
2024-10-01 04:05:47			0	38113	0	0	0	22464	21030	160840	26928	1056125	46393	108264	0	0	8204	558095	0	0
2024-10-01 04:06:47			0	38109	0	0	0	22467	21040	160956	27038	1056161	46415	108265	0	0	8204	558223	0	0
2024-10-01 04:07:47			0	38099	0	0	0	22459	21040	160904	26850	1056143	46393	108262	0	0	8203	558620	0	0
2024-10-01 04:08:47			0	38093	0	0	0	22459	21030	160832	26961	1056143	46392	108262	0	0	8203	558889	0	0
2024-10-01 04:09:47			0	38088	0	0	0	22446	21040	160888	27197	1056107	46393	108257	0	0	8203	559056	0	0
2024-10-01 04:10:47			0	38089	0	0	0	22459	21030	160952	27012	1056125	46393	108262	0	0	8202	559047	0	0
2024-10-01 04:11:47			0	38091	0	0	0	22454	21040	160996	27130	1056161	46404	108260	0	0	8203	558937	0	0
2024-10-01 04:12:47			0	38099	0	0	0	22451	21040	160972	26828	1056134	46393	108259	0	0	8203	558620	0	0
2024-10-01 04:13:47			0	38089	0	0	0	22451	21040	160948	27034	1056214	46393	108259	0	0	8203	559016	0	0
2024-10-01 04:14:47			0	38101	0	0	0	22438	21030	160932	27362	1056143	46403	108254	0	0	8204	558571	0	0
2024-10-01 04:15:47			0	38102	0	0	0	22438	21030	160928	27124	1056089	46403	108254	0	0	8204	558531	0	0
2024-10-01 04:16:47			0	38110	0	0	0	22449	21030	161032	27178	1056143	46392	108258	0	0	8204	558214	0	0
2024-10-01 04:17:47			0	38091	0	0	0	22444	21030	160884	27038	1056089	46392	108256	0	0	8203	558968	0	0
2024-10-01 04:18:47			0	38097	0	0	0	22433	21030	160912	26965	1056089	46403	108252	0	0	8203	558730	0	0
2024-10-01 04:19:47			0	38111	0	0	0	22441	21030	160976	26715	1056143	46403	108255	0	0	8204	558175	0	0
2024-10-01 04:20:47			0	38094	0	0	0	22436	21030	160968	27161	1056125	46393	108253	0	0	8203	558849	0	0
2024-10-01 04:21:47			0	38095	0	0	0	22438	21020	160876	26968	1056107	46380	108254	0	0	8203	558840	0	0
2024-10-01 04:22:47			0	38088	0	0	0	22433	21030	160916	27072	1056089	46392	108252	0	0	8203	559087	0	0
2024-10-01 04:23:47			0	38093	0	0	0	22433	21020	160920	27121	1056125	46390	108252	0	0	8203	558920	0	0
2024-10-01 04:24:47			0	38111	0	0	0	22431	21030	160972	27201	1056010	46392	108251	0	0	8204	558175	0	0
2024-10-01 04:25:47			0	38090	0	0	0	22425	21030	161004	27163	1056036	46381	108249	0	0	8203	559008	0	0
2024-10-01 04:26:47			0	38082	0	0	0	22428	21010	160964	27376	1056036	46390	108250	0	0	8203	559387	0	0
2024-10-01 04:27:47			0	38082	0	0	0	22423	21010	161044	27145	1056036	46390	108248	0	0	8203	559387	0	0
2024-10-01 04:28:47			0	38075	0	0	0	22423	21010	160992	27034	1056036	46390	108248	0	0	8202	559665	0	0
2024-10-01 04:29:47			0	38073	0	0	0	22423	21020	160976	27192	1056054	46391	108248	0	0	8202	559713	0	0
2024-10-01 04:30:47			0	38068	0	0	0	22415	21010	160968	27057	1056027	46378	108245	0	0	8202	559943	0	0
2024-10-01 04:31:47			0	38067	0	0	0	22418	21010	161036	27083	1055947	46401	108246	0	0	8202	559983	0	0
2024-10-01 04:32:47			0	38072	0	0	0	22410	21010	161124	27124	1056000	46390	108243	0	0	8202	559784	0	0
2024-10-01 04:33:47			0	38064	0	0	0	22407	21000	161136	27331	1055929	46376	108242	0	0	8202	560133	0	0
2024-10-01 04:34:47			0	38062	0	0	0	22402	21010	161116	27142	1055983	46390	108240	0	0	8202	560181	0	0
2024-10-01 04:35:47			0	38071	0	0	0	22394	21000	161088	26925	1055938	46389	108237	0	0	8202	559855	0	0
2024-10-01 04:36:47			0	38033	0	0	0	22402	21010	161068	26880	1055974	46378	108240	0	0	8200	561335	0	0
2024-10-01 04:37:47			0	38046	0	0	0	22397	21000	161260	27000	1055956	46388	108238	0	0	8201	560849	0	0
2024-10-01 04:38:47			0	38050	0	0	0	22397	20990	161068	27135	1055920	46376	108238	0	0	8201	560721	0	0
2024-10-01 04:39:47			0	38054	0	0	0	22397	21000	161156	26981	1055903	46388	108238	0	0	8201	560530	0	0
2024-10-01 04:40:47			0	38064	0	0	0	22405	20990	161148	26871	1055885	46366	108241	0	0	8202	560164	0	0
2024-10-01 04:41:47			0	38048	0	0	0	22397	20980	161176	27225	1055902	46375	108238	0	0	8201	560831	0	0
2024-10-01 04:42:47			0	38050	0	0	0	22379	20990	161172	26842	1055920	46376	108231	0	0	8201	560721	0	0
2024-10-01 04:43:47			0	38041	0	0	0	22381	20990	161176	27428	1055832	46366	108232	0	0	8201	561078	0	0
2024-10-01 04:44:47			0	38047	0	0	0	22371	20990	161232	26687	1055894	46388	108228	0	0	8201	560840	0	0
2024-10-01 04:45:47			0	38036	0	0	0	22361	20980	161264	26996	1055787	46386	108224	0	0	8201	561309	0	0
2024-10-01 04:46:47			0	38051	0	0	0	22350	20980	161232	26828	1055823	46375	108220	0	0	8202	560712	0	0
2024-10-01 04:47:47			0	38026	0	0	0	22366	20970	161300	26930	1055831	46375	108226	0	0	8200	561738	0	0
2024-10-01 04:48:47			0	38034	0	0	0	22366	20970	161236	26967	1055769	46375	108226	0	0	8201	561419	0	0
2024-10-01 04:49:47			0	38006	0	0	0	22355	20970	161215	27182	1055796	46375	108222	0	0	8199	562534	0	0
2024-10-01 04:50:47			0	38026	0	0	0	22368	20970	161231	27185	1055805	46375	108227	0	0	8200	561738	0	0
2024-10-01 04:51:47			0	38029	0	0	0	22384	20960	161208	26785	1055751	46384	108233	0	0	8200	561649	0	0
2024-10-01 04:52:47			0	38008	0	0	0	22379	20960	161255	27092	1055867	46385	108231	0	0	8199	562486	0	0
2024-10-01 04:53:47			0	38030	0	0	0	22373	20960	161212	27000	1055751	46406	108229	0	0	8200	561610	0	0
2024-10-01 04:54:47			0	38033	0	0	0	22371	20960	161240	27026	1055778	46384	108228	0	0	8200	561490	0	0
2024-10-01 04:55:47			0	38035	0	0	0	22358	20970	161256	27015	1055769	46386	108223	0	0	8201	561379	0	0
2024-10-01 04:56:47			0	38045	0	0	0	22371	20970	161312	26901	1055769	46386	108228	0	0	8201	560982	0	0
2024-10-01 04:57:47			0	38038	0	0	0	22373	20950	161140	27059	1055769	46383	108229	0	0	8201	561322	0	0
2024-10-01 04:58:47			0	38019	0	0	0	22363	20970	161111	26734	1055769	46375	108225	0	0	8200	562016	0	0
2024-10-01 04:59:47			0	38045	0	0	0	22368	20950	161284	26960	1055769	46383	108227	0	0	8201	561044	0	0
2024-10-01 05:00:47			0	38036	0	0	0	22376	20960	161172	27206	1055831	46373	108230	0	0	8200	561371	0	0
2024-10-01 05:01:47			0	38041	0	0	0	22381	20960	161196	27086	1055778	46395	108232	0	0	8201	561172	0	0
2024-10-01 05:02:47			0	38037	0	0	0	22381	20960	161196	26856	1055760	46396	108232	0	0	8200	561331	0	0
2024-10-01 05:03:47			0	38029	0	0	0	22389	20960	161251	26802	1055778	46395	108235	0	0	8200	561649	0	0
2024-10-01 05:04:47			0	38039	0	0	0	22376	20960	161188	27118	1055778	46384	108230	0	0	8201	561251	0	0
2024-10-01 05:05:47			0	38039	0	0	0	22376	20950	161220	27301	1055689	46383	108230	0	0	8201	561282	0	0
2024-10-01 05:06:47			0	38040	0	0	0	22381	20960	161220	26726	1055751	46395	108232	0	0	8201	561212	0	0
2024-10-01 05:07:47			0	38033	0	0	0	22386	20960	161172	27000	1055813	46396	108234	0	0	8200	561490	0	0
2024-10-01 05:08:47			0	38041	0	0	0	22386	20960	161252	26982	1055804	46395	108234	0	0	8201	561172	0	0
2024-10-01 05:09:47			0	38044	0	0	0	22381	20960	161228	26981	1055760	46396	108232	0	0	8201	561052	0	0
2024-10-01 05:10:47			0	38041	0	0	0	22397	20960	161168	27329	1055760	46385	108238	0	0	8200	561172	0	0
2024-10-01 05:11:47			0	38054	0	0	0	22384	20960	161232	26847	1055778	46384	108233	0	0	8201	560655	0	0
2024-10-01 05:12:47			0	38058	0	0	0	22399	20960	160996	26774	1055760	46385	108239	0	0	8201	560496	0	0
2024-10-01 05:13:47			0	38050	0	0	0	22392	20960	161008	26719	1055867	46396	108236	0	0	8201	560814	0	0
2024-10-01 05:14:47			0	38062	0	0	0	22394	20970	161028	27026	1055796	46397	108237	0	0	8202	560306	0	0
2024-10-01 05:15:47			0	38062	0	0	0	22399	20960	160992	26863	1055840	46385	108239	0	0	8202	560337	0	0
2024-10-01 05:16:47			0	38070	0	0	0	22389	20970	160964	26644	1055911	46375	108235	0	0	8202	559988	0	0
2024-10-01 05:17:47			0	38086	0	0	0	22384	20960	161036	26785	1055813	46374	108233	0	0	8203	559383	0	0
2024-10-01 05:18:47			0	38097	0	0	0	22397	20960	160992	26727	1055867	46396	108238	0	0	8204	558947	0	0
2024-10-01 05:19:47			0	38094	0	0	0	22389	20970	161004	26743	1055849	46397	108235	0	0	8204	559035	0	0
2024-10-01 05:20:47			0	38081	0	0	0	22389	20970	161096	26743	1055902	46386	108235	0	0	8203	559551	0	0
2024-10-01 05:21:47			0	38083	0	0	0	22379	20970	160896	27145	1055796	46375	108231	0	0	8203	559472	0	0
2024-10-01 05:22:47			0	38104	0	0	0	22381	20970	160932	26923	1055805	46375	108232	0	0	8204	558638	0	0
2024-10-01 05:23:47			0	38102	0	0	0	22394	20960	160880	26753	1055840	46385	108237	0	0	8204	558748	0	0
2024-10-01 05:24:47			0	38092	0	0	0	22394	20970	160840	26708	1055849	46375	108237	0	0	8203	559114	0	0
2024-10-01 05:25:47			0	38101	0	0	0	22397	20970	160840	26899	1055831	46375	108238	0	0	8204	558757	0	0
2024-10-01 05:26:47			0	38105	0	0	0	22399	20960	160848	26800	1055840	46385	108239	0	0	8204	558629	0	0
2024-10-01 05:27:47			0	38096	0	0	0	22399	20970	160844	27144	1055849	46386	108239	0	0	8204	558955	0	0
2024-10-01 05:28:47			0	38130	0	0	0	22392	20970	160800	27072	1055858	46397	108236	0	0	8206	557607	0	0
2024-10-01 05:29:47			0	38133	0	0	0	22389	20970	160672	26920	1055822	46386	108235	0	0	8206	557488	0	0
2024-10-01 05:30:47			0	38133	0	0	0	22399	20970	160696	26913	1055858	46397	108239	0	0	8206	557488	0	0
2024-10-01 05:31:47			0	38135	0	0	0	22399	20960	160716	26823	1055840	46396	108239	0	0	8206	557440	0	0
2024-10-01 05:32:47			0	38151	0	0	0	22397	20970	160688	26826	1055858	46397	108238	0	0	8207	556775	0	0
2024-10-01 05:33:47			0	38142	0	0	0	22392	20970	160640	27201	1055885	46386	108236	0	0	8206	557132	0	0
2024-10-01 05:34:47			0	38147	0	0	0	22397	20970	160664	26854	1055831	46397	108238	0	0	8207	556934	0	0
2024-10-01 05:35:47			0	38141	0	0	0	22392	20980	160624	27046	1055867	46397	108236	0	0	8206	557141	0	0
2024-10-01 05:36:47			0	38152	0	0	0	22394	20970	160536	26828	1055849	46386	108237	0	0	8207	556736	0	0
2024-10-01 05:37:47			0	38148	0	0	0	22397	20970	160740	26745	1055822	46375	108238	0	0	8207	556894	0	0
2024-10-01 05:38:47			0	38127	0	0	0	22389	20980	160700	27327	1055876	46398	108235	0	0	8206	557695	0	0
2024-10-01 05:39:47			0	38149	0	0	0	22405	20970	160728	27187	1055885	46397	108241	0	0	8207	556855	0	0
2024-10-01 05:40:47			0	38140	0	0	0	22399	20970	160752	26785	1055876	46364	108239	0	0	8206	557211	0	0
2024-10-01 05:41:47			0	38125	0	0	0	22399	20970	160736	26788	1055885	46386	108239	0	0	8205	557805	0	0
2024-10-01 05:42:47			0	38123	0	0	0	22402	20980	160616	26760	1055894	46386	108240	0	0	8205	557854	0	0
2024-10-01 05:43:47			0	38152	0	0	0	22410	20960	160656	26752	1055893	46385	108243	0	0	8207	556767	0	0
2024-10-01 05:44:47			0	38128	0	0	0	22410	20980	160744	27265	1055920	46386	108243	0	0	8205	557656	0	0
2024-10-01 05:45:47			0	38135	0	0	0	22405	20980	160820	27102	1055894	46386	108241	0	0	8206	557378	0	0
2024-10-01 05:46:47			0	38138	0	0	0	22407	20980	160816	27248	1055920	46375	108242	0	0	8206	557259	0	0
2024-10-01 05:47:47			0	38135	0	0	0	22397	20980	160776	26901	1056000	46375	108238	0	0	8206	557378	0	0
2024-10-01 05:48:47			0	38133	0	0	0	22407	20980	160768	27039	1055894	46386	108242	0	0	8206	557457	0	0
2024-10-01 05:49:47			0	38143	0	0	0	22407	20980	160744	27036	1055876	46398	108242	0	0	8206	557061	0	0
2024-10-01 05:50:47			0	38128	0	0	0	22402	20990	160708	27039	1055965	46376	108240	0	0	8206	557625	0	0
2024-10-01 05:51:47			0	38121	0	0	0	22405	20980	160700	27154	1055947	46386	108241	0	0	8205	557933	0	0
2024-10-01 05:52:47			0	38128	0	0	0	22407	20980	160840	26982	1055947	46364	108242	0	0	8205	557656	0	0
2024-10-01 05:53:47			0	38116	0	0	0	22407	20980	160776	26946	1055894	46408	108242	0	0	8205	558131	0	0
2024-10-01 05:54:47			0	38112	0	0	0	22412	20970	160764	27105	1055911	46397	108244	0	0	8204	558321	0	0
2024-10-01 05:55:47			0	38106	0	0	0	22420	20980	160788	27029	1055920	46386	108247	0	0	8204	558528	0	0
2024-10-01 05:56:47			0	38118	0	0	0	22412	20980	160788	27339	1055894	46397	108244	0	0	8205	558052	0	0
2024-10-01 05:57:47			0	38115	0	0	0	22407	20990	160836	26989	1055947	46388	108242	0	0	8205	558140	0	0
2024-10-01 05:58:47			0	38117	0	0	0	22412	20980	160888	27033	1055902	46387	108244	0	0	8205	558091	0	0
2024-10-01 05:59:47			0	38097	0	0	0	22412	20980	160820	27209	1055929	46398	108244	0	0	8204	558885	0	0
2024-10-01 06:00:47			0	38114	0	0	0	22410	20980	160836	27048	1055982	46387	108243	0	0	8205	558210	0	0
2024-10-01 06:01:47			0	38114	0	0	0	22410	20990	160740	26941	1055965	46399	108243	0	0	8205	558180	0	0
2024-10-01 06:02:47			0	38117	0	0	0	22412	20980	160784	27027	1055920	46375	108244	0	0	8205	558091	0	0
2024-10-01 06:03:47			0	38118	0	0	0	22412	20990	160760	27177	1055885	46388	108244	0	0	8205	558021	0	0
2024-10-01 06:04:47			0	38122	0	0	0	22407	20980	160736	27116	1055982	46387	108242	0	0	8205	557893	0	0
2024-10-01 06:05:47			0	38120	0	0	0	22410	20990	160836	27043	1055867	46388	108243	0	0	8205	557942	0	0
2024-10-01 06:06:47			0	38127	0	0	0	22410	20980	160724	27050	1055902	46387	108243	0	0	8205	557695	0	0
2024-10-01 06:07:47			0	38106	0	0	0	22407	20980	160724	26809	1055902	46387	108242	0	0	8204	558528	0	0
2024-10-01 06:08:47			0	38124	0	0	0	22412	20990	160644	27260	1055858	46388	108244	0	0	8205	557783	0	0
2024-10-01 06:09:47			0	38105	0	0	0	22410	20990	160796	27149	1055938	46388	108243	0	0	8204	558536	0	0
2024-10-01 06:10:47			0	38102	0	0	0	22407	20990	160788	27227	1055911	46376	108242	0	0	8204	558655	0	0
2024-10-01 06:11:47			0	38093	0	0	0	22407	20990	160892	27383	1055965	46376	108242	0	0	8203	559013	0	0
2024-10-01 06:12:47			0	38095	0	0	0	22412	20990	160912	27177	1055965	46376	108244	0	0	8203	558933	0	0
2024-10-01 06:13:47			0	38093	0	0	0	22407	20980	160892	26904	1055902	46387	108242	0	0	8203	559044	0	0
2024-10-01 06:14:47			0	38083	0	0	0	22415	20980	160984	27053	1055956	46387	108245	0	0	8203	559440	0	0
2024-10-01 06:15:47			0	38100	0	0	0	22420	20980	160908	27173	1055956	46398	108247	0	0	8204	558766	0	0
2024-10-01 06:16:47			0	38106	0	0	0	22418	20980	160928	27216	1055956	46375	108246	0	0	8204	558528	0	0
2024-10-01 06:17:47			0	38086	0	0	0	22418	20990	160872	27201	1055965	46388	108246	0	0	8203	559290	0	0
2024-10-01 06:18:47			0	38093	0	0	0	22423	20980	160820	27187	1055956	46387	108248	0	0	8203	559044	0	0
2024-10-01 06:19:47			0	38098	0	0	0	22418	20990	160848	27154	1055938	46388	108246	0	0	8204	558814	0	0
2024-10-01 06:20:47			0	38097	0	0	0	22415	20990	160856	27059	1055947	46388	108245	0	0	8204	558854	0	0
2024-10-01 06:21:47			0	38110	0	0	0	22431	20990	160888	27246	1055947	46376	108251	0	0	8204	558338	0	0
2024-10-01 06:22:47			0	38091	0	0	0	22420	20990	160924	27024	1055974	46376	108247	0	0	8203	559092	0	0
2024-10-01 06:23:47			0	38102	0	0	0	22415	20990	160860	27112	1055974	46399	108245	0	0	8204	558655	0	0
2024-10-01 06:24:47			0	38105	0	0	0	22415	20990	160884	27007	1055920	46376	108245	0	0	8204	558536	0	0
2024-10-01 06:25:47			0	38097	0	0	0	22412	21000	160904	26920	1055983	46388	108244	0	0	8204	558823	0	0
2024-10-01 06:26:47			0	38093	0	0	0	22428	20990	160968	27102	1055974	46376	108250	0	0	8203	559013	0	0
2024-10-01 06:27:47			0	38105	0	0	0	22418	20990	160880	26951	1055974	46388	108246	0	0	8204	558536	0	0
2024-10-01 06:28:47			0	38099	0	0	0	22418	21000	160956	26772	1055912	46400	108246	0	0	8204	558744	0	0
2024-10-01 06:29:47			0	38094	0	0	0	22423	20990	160860	27230	1055947	46388	108248	0	0	8203	558973	0	0
2024-10-01 06:30:47			0	38082	0	0	0	22420	20990	160928	26928	1055974	46388	108247	0	0	8203	559449	0	0
2024-10-01 06:31:47			0	38092	0	0	0	22420	20990	161028	26847	1056027	46388	108247	0	0	8203	559052	0	0
2024-10-01 06:32:47			0	38094	0	0	0	22418	20990	160960	27213	1055947	46376	108246	0	0	8203	558973	0	0
2024-10-01 06:33:47			0	38097	0	0	0	22412	21000	160964	26821	1056018	46400	108244	0	0	8204	558823	0	0
2024-10-01 06:34:47			0	38084	0	0	0	22418	21000	160996	27015	1055983	46388	108246	0	0	8203	559339	0	0
2024-10-01 06:35:47			0	38085	0	0	0	22415	21000	160980	26807	1055956	46388	108245	0	0	8203	559299	0	0
2024-10-01 06:36:47			0	38091	0	0	0	22423	21000	160996	27017	1056009	46399	108248	0	0	8203	559061	0	0
2024-10-01 06:37:47			0	38071	0	0	0	22405	21000	160940	26885	1055991	46389	108241	0	0	8202	559855	0	0
2024-10-01 06:38:47			0	38092	0	0	0	22399	21000	161016	26772	1056009	46399	108239	0	0	8204	559021	0	0
2024-10-01 06:39:47			0	38090	0	0	0	22420	20990	161008	27218	1056000	46376	108247	0	0	8203	559132	0	0
2024-10-01 06:40:47			0	38082	0	0	0	22415	21000	161040	27005	1055983	46388	108245	0	0	8203	559418	0	0
2024-10-01 06:41:47			0	38066	0	0	0	22410	20990	161040	27100	1056027	46388	108243	0	0	8202	560085	0	0
2024-10-01 06:42:47			0	38055	0	0	0	22407	21010	161048	27126	1055974	46390	108242	0	0	8201	560460	0	0
2024-10-01 06:43:47			0	38070	0	0	0	22412	20990	161092	27149	1056018	46399	108244	0	0	8202	559926	0	0
2024-10-01 06:44:47			0	38064	0	0	0	22410	20980	161108	27015	1056009	46387	108243	0	0	8202	560195	0	0
2024-10-01 06:45:47			0	38056	0	0	0	22410	20990	161076	26932	1056027	46388	108243	0	0	8201	560482	0	0
2024-10-01 06:46:47			0	38045	0	0	0	22412	20990	161172	27123	1055947	46376	108244	0	0	8201	560920	0	0
2024-10-01 06:47:47			0	38057	0	0	0	22407	20990	161140	27121	1055965	46388	108242	0	0	8201	560442	0	0
2024-10-01 06:48:47			0	38058	0	0	0	22407	20990	161180	26989	1055965	46388	108242	0	0	8201	560403	0	0
2024-10-01 06:49:47			0	38066	0	0	0	22402	20990	161196	27019	1055947	46388	108240	0	0	8202	560085	0	0
2024-10-01 06:50:47			0	38059	0	0	0	22384	20990	161000	26934	1055938	46376	108233	0	0	8202	560363	0	0
2024-10-01 06:51:47			0	38034	0	0	0	22381	20990	161220	27218	1055938	46376	108232	0	0	8200	561357	0	0
2024-10-01 06:52:47			0	38057	0	0	0	22381	20990	161200	26922	1055885	46388	108232	0	0	8202	560442	0	0
2024-10-01 06:53:47			0	38026	0	0	0	22392	20990	161211	26795	1055965	46388	108236	0	0	8200	561675	0	0
2024-10-01 06:54:47			0	38053	0	0	0	22384	20980	161220	27137	1055902	46375	108233	0	0	8201	560632	0	0
2024-10-01 06:55:47			0	38051	0	0	0	22384	20990	161196	26828	1055920	46376	108233	0	0	8201	560681	0	0
2024-10-01 06:56:47			0	38051	0	0	0	22386	20990	161208	27114	1055911	46388	108234	0	0	8201	560681	0	0
2024-10-01 06:57:47			0	38033	0	0	0	22384	20980	161288	27033	1055894	46386	108233	0	0	8200	561428	0	0
2024-10-01 06:58:47			0	38032	0	0	0	22386	20970	161260	26902	1055885	46397	108234	0	0	8200	561499	0	0
2024-10-01 06:59:47			0	38028	0	0	0	22379	20980	161139	26981	1055894	46375	108231	0	0	8200	561627	0	0
2024-10-01 07:00:47			0	38031	0	0	0	22381	20980	161060	27081	1055894	46397	108232	0	0	8200	561508	0	0
2024-10-01 07:01:47			0	38030	0	0	0	22386	20970	161232	26786	1055885	46375	108234	0	0	8200	561578	0	0
2024-10-01 07:02:47			0	38018	0	0	0	22386	20970	161147	27170	1055876	46375	108234	0	0	8199	562056	0	0
2024-10-01 07:03:47			0	38034	0	0	0	22394	20970	161156	27078	1055805	46397	108237	0	0	8200	561419	0	0
2024-10-01 07:04:47			0	38027	0	0	0	22392	20960	161223	26981	1055867	46374	108236	0	0	8200	561729	0	0
2024-10-01 07:05:47			0	38016	0	0	0	22397	20970	161291	27334	1055849	46375	108238	0	0	8199	562136	0	0
2024-10-01 07:06:47			0	38012	0	0	0	22397	20960	161215	27144	1055813	46396	108238	0	0	8199	562326	0	0
2024-10-01 07:07:47			0	38008	0	0	0	22399	20960	161271	27319	1055920	46396	108239	0	0	8198	562486	0	0
2024-10-01 07:08:47			0	37998	0	0	0	22386	20970	161251	27388	1055885	46397	108234	0	0	8198	562853	0	0
2024-10-01 07:09:47			0	38009	0	0	0	22397	20970	161243	27327	1055902	46386	108238	0	0	8199	562415	0	0
2024-10-01 07:10:47			0	38017	0	0	0	22402	20980	161375	27232	1055947	46397	108240	0	0	8199	562065	0	0
2024-10-01 07:11:47			0	38000	0	0	0	22384	20970	161343	26948	1055911	46386	108233	0	0	8198	562773	0	0
2024-10-01 07:12:47			0	38002	0	0	0	22399	20980	161351	27199	1055929	46387	108239	0	0	8198	562662	0	0
2024-10-01 07:13:47			0	37990	0	0	0	22397	20970	161331	27112	1055885	46375	108238	0	0	8197	563172	0	0
2024-10-01 07:14:47			0	37996	0	0	0	22407	20980	161343	27098	1055867	46375	108242	0	0	8198	562902	0	0
2024-10-01 07:15:47			0	37992	0	0	0	22392	20970	161351	27135	1055911	46375	108236	0	0	8198	563092	0	0
2024-10-01 07:16:47			0	38001	0	0	0	22386	20980	161251	26762	1055920	46397	108234	0	0	8198	562702	0	0
2024-10-01 07:17:47			0	37982	0	0	0	22397	20970	161363	26849	1055885	46397	108238	0	0	8197	563491	0	0
2024-10-01 07:18:47			0	37987	0	0	0	22410	20970	161315	26873	1055849	46375	108243	0	0	8197	563292	0	0
2024-10-01 07:19:47			0	37974	0	0	0	22410	20980	161423	26715	1055956	46398	108243	0	0	8196	563779	0	0
2024-10-01 07:20:47			0	37973	0	0	0	22407	20980	161435	27074	1055929	46375	108242	0	0	8196	563819	0	0
2024-10-01 07:21:47			0	37981	0	0	0	22420	20980	161419	27227	1055947	46408	108247	0	0	8197	563500	0	0
2024-10-01 07:22:47			0	37968	0	0	0	22418	20980	161391	27123	1055956	46387	108246	0	0	8196	564018	0	0
2024-10-01 07:23:47			0	37976	0	0	0	22418	20970	161455	26958	1055938	46408	108246	0	0	8196	563730	0	0
2024-10-01 07:24:47			0	37970	0	0	0	22418	20980	161435	26863	1055947	46386	108246	0	0	8196	563938	0	0
2024-10-01 07:25:47			0	37966	0	0	0	22415	20990	161471	27013	1055938	46399	108245	0	0	8196	564067	0	0
2024-10-01 07:26:47			0	37958	0	0	0	22415	20980	161491	26712	1055929	46387	108245	0	0	8195	564417	0	0
2024-10-01 07:27:47			0	37954	0	0	0	22405	20980	161575	27216	1055982	46398	108241	0	0	8195	564577	0	0
2024-10-01 07:28:47			0	37937	0	0	0	22412	20980	161455	26772	1055929	46387	108244	0	0	8194	565256	0	0
2024-10-01 07:29:47			0	37949	0	0	0	22418	20980	161563	26703	1055947	46375	108246	0	0	8195	564777	0	0
2024-10-01 07:30:47			0	37954	0	0	0	22420	20990	161523	27374	1055947	46399	108247	0	0	8195	564546	0	0
2024-10-01 07:31:47			0	37956	0	0	0	22418	20990	161563	27059	1055938	46388	108246	0	0	8195	564466	0	0
2024-10-01 07:32:47			0	37945	0	0	0	22423	20990	161555	27220	1055991	46376	108248	0	0	8194	564905	0	0
2024-10-01 07:33:47			0	37958	0	0	0	22410	20990	161483	27031	1055938	46388	108243	0	0	8195	564386	0	0
2024-10-01 07:34:47			0	37944	0	0	0	22389	20980	161543	27168	1055956	46387	108235	0	0	8195	564977	0	0
2024-10-01 07:35:47			0	37935	0	0	0	22402	21000	161515	26661	1055983	46388	108240	0	0	8194	565274	0	0
2024-10-01 07:36:47			0	37940	0	0	0	22412	20990	161575	26937	1055991	46388	108244	0	0	8194	565105	0	0
2024-10-01 07:37:47			0	37940	0	0	0	22407	20990	161555	26835	1055965	46388	108242	0	0	8194	565105	0	0
2024-10-01 07:38:47			0	37932	0	0	0	22420	20980	161559	27260	1055956	46387	108247	0	0	8194	565456	0	0
2024-10-01 07:39:47			0	37930	0	0	0	22412	20990	161667	26928	1055991	46388	108244	0	0	8194	565505	0	0
2024-10-01 07:40:47			0	37929	0	0	0	22415	21000	161535	27092	1056009	46388	108245	0	0	8194	565513	0	0
2024-10-01 07:41:47			0	37919	0	0	0	22405	20990	161735	26854	1055911	46376	108241	0	0	8193	565945	0	0
2024-10-01 07:42:47			0	37921	0	0	0	22418	21000	161655	26896	1056009	46376	108246	0	0	8193	565833	0	0
2024-10-01 07:43:47			0	37917	0	0	0	22407	20980	161623	27334	1055982	46387	108242	0	0	8193	566056	0	0
2024-10-01 07:44:47			0	37924	0	0	0	22410	21000	161627	26876	1055991	46377	108243	0	0	8193	565713	0	0
2024-10-01 07:45:47			0	37929	0	0	0	22410	20980	161647	27303	1055894	46386	108243	0	0	8194	565576	0	0
2024-10-01 07:46:47			0	37926	0	0	0	22407	20990	161555	27381	1055965	46388	108242	0	0	8194	565665	0	0
2024-10-01 07:47:47			0	37900	0	0	0	22412	20990	161571	27149	1055991	46388	108244	0	0	8192	566705	0	0
2024-10-01 07:48:47			0	37909	0	0	0	22407	20990	161663	27081	1056000	46388	108242	0	0	8193	566345	0	0
2024-10-01 07:49:47			0	37914	0	0	0	22397	21000	161571	27114	1055956	46388	108238	0	0	8193	566113	0	0
2024-10-01 07:50:47			0	37921	0	0	0	22405	20990	161619	27225	1055911	46388	108241	0	0	8193	565865	0	0
2024-10-01 07:51:47			0	37914	0	0	0	22402	20990	161535	27150	1055911	46388	108240	0	0	8193	566145	0	0
2024-10-01 07:52:47			0	37903	0	0	0	22407	20990	161647	26913	1056027	46388	108242	0	0	8192	566585	0	0
2024-10-01 07:53:47			0	37916	0	0	0	22399	20990	161807	27121	1055991	46376	108239	0	0	8193	566065	0	0
2024-10-01 07:54:47			0	37914	0	0	0	22412	20980	161695	27459	1055973	46397	108244	0	0	8193	566176	0	0
2024-10-01 07:55:47			0	37903	0	0	0	22399	20990	161615	27074	1055938	46388	108239	0	0	8192	566585	0	0
2024-10-01 07:56:47			0	37911	0	0	0	22402	20980	161739	27192	1055929	46387	108240	0	0	8193	566296	0	0
2024-10-01 07:57:47			0	37889	0	0	0	22407	20980	161675	26674	1055929	46398	108242	0	0	8191	567177	0	0
2024-10-01 07:58:47			0	37902	0	0	0	22407	20990	161751	27154	1055974	46388	108242	0	0	8192	566625	0	0
2024-10-01 07:59:47			0	37908	0	0	0	22394	20980	161759	27377	1055956	46387	108237	0	0	8193	566416	0	0
2024-10-01 08:00:47			0	37896	0	0	0	22402	20990	161783	27211	1055938	46399	108240	0	0	8192	566865	0	0
2024-10-01 08:01:47			0	37875	0	0	0	22405	21000	161859	26771	1055983	46388	108241	0	0	8191	567675	0	0
2024-10-01 08:02:47			0	37907	0	0	0	22418	20990	161763	26932	1055991	46388	108246	0	0	8192	566425	0	0
2024-10-01 08:03:47			0	37866	0	0	0	22418	20980	161831	26975	1055982	46387	108246	0	0	8190	568098	0	0
2024-10-01 08:04:47			0	37863	0	0	0	22418	20980	161843	26828	1055982	46387	108246	0	0	8190	568219	0	0
2024-10-01 08:05:47			0	37892	0	0	0	22412	20990	161915	26927	1055965	46388	108244	0	0	8192	567025	0	0
2024-10-01 08:06:47			0	37872	0	0	0	22415	20990	161859	27185	1056000	46388	108245	0	0	8190	567826	0	0
2024-10-01 08:07:47			0	37876	0	0	0	22420	20990	161783	26975	1055938	46388	108247	0	0	8190	567666	0	0
2024-10-01 08:08:47			0	37878	0	0	0	22423	20990	161839	26845	1056000	46388	108248	0	0	8191	567586	0	0
2024-10-01 08:09:47			0	37897	0	0	0	22415	20990	161767	26953	1055991	46388	108245	0	0	8192	566825	0	0
2024-10-01 08:10:47			0	37883	0	0	0	22425	21000	161799	27118	1056036	46399	108249	0	0	8191	567354	0	0
2024-10-01 08:11:47			0	37887	0	0	0	22410	20990	161831	27024	1056027	46399	108243	0	0	8191	567225	0	0
2024-10-01 08:12:47			0	37880	0	0	0	22415	20990	161811	26727	1056053	46388	108245	0	0	8191	567506	0	0
2024-10-01 08:13:47			0	37909	0	0	0	22420	21000	161751	27060	1055991	46389	108247	0	0	8192	566313	0	0
2024-10-01 08:14:47			0	37903	0	0	0	22415	20990	161791	27176	1056000	46399	108245	0	0	8192	566585	0	0
2024-10-01 08:15:47			0	37897	0	0	0	22418	21000	161727	26849	1055956	46388	108246	0	0	8192	566793	0	0
2024-10-01 08:16:47			0	37911	0	0	0	22425	20990	161671	27232	1056000	46388	108249	0	0	8192	566265	0	0
2024-10-01 08:17:47			0	37901	0	0	0	22420	21000	161695	26981	1055983	46388	108247	0	0	8192	566633	0	0
2024-10-01 08:18:47			0	37918	0	0	0	22431	21000	161627	27244	1056018	46389	108251	0	0	8193	565953	0	0
2024-10-01 08:19:47			0	37912	0	0	0	22425	21000	161787	27027	1056036	46388	108249	0	0	8193	566193	0	0
2024-10-01 08:20:47			0	37947	0	0	0	22428	21000	161707	27118	1056071	46389	108250	0	0	8195	564794	0	0
2024-10-01 08:21:47			0	37920	0	0	0	22423	21000	161607	27085	1055983	46388	108248	0	0	8193	565873	0	0
2024-10-01 08:22:47			0	37918	0	0	0	22425	21010	161567	27159	1056080	46378	108249	0	0	8193	565922	0	0
2024-10-01 08:23:47			0	37917	0	0	0	22428	21000	161631	27097	1056062	46388	108250	0	0	8193	565993	0	0
2024-10-01 08:24:47			0	37926	0	0	0	22423	21000	161607	27102	1055991	46389	108248	0	0	8193	565633	0	0
2024-10-01 08:25:47			0	37931	0	0	0	22431	21010	161719	27046	1056054	46390	108251	0	0	8194	565402	0	0
2024-10-01 08:26:47			0	37927	0	0	0	22428	21000	161615	27180	1056045	46389	108250	0	0	8193	565593	0	0
2024-10-01 08:27:47			0	37925	0	0	0	22423	20990	161515	27050	1056053	46388	108248	0	0	8193	565705	0	0
2024-10-01 08:28:47			0	37952	0	0	0	22431	20990	161531	26882	1056053	46388	108251	0	0	8195	564626	0	0
2024-10-01 08:29:47			0	37920	0	0	0	22428	21000	161571	27098	1056045	46389	108250	0	0	8193	565873	0	0
2024-10-01 08:30:47			0	37942	0	0	0	22428	21000	161647	27142	1056036	46399	108250	0	0	8194	564994	0	0
2024-10-01 08:31:47			0	37927	0	0	0	22420	21000	161563	27116	1056098	46377	108247	0	0	8194	565593	0	0
2024-10-01 08:32:47			0	37944	0	0	0	22428	21000	161487	27092	1056062	46388	108250	0	0	8194	564914	0	0
2024-10-01 08:33:47			0	37935	0	0	0	22425	21000	161503	27317	1056045	46389	108249	0	0	8194	565274	0	0
2024-10-01 08:34:47			0	37952	0	0	0	22428	21000	161531	27005	1056045	46389	108250	0	0	8195	564594	0	0
2024-10-01 08:35:47			0	37942	0	0	0	22433	21000	161595	26804	1056018	46411	108252	0	0	8194	564994	0	0
2024-10-01 08:36:47			0	37958	0	0	0	22428	21000	161535	26911	1056062	46388	108250	0	0	8195	564355	0	0
2024-10-01 08:37:47			0	37952	0	0	0	22428	21010	161499	27417	1056000	46390	108250	0	0	8195	564563	0	0
2024-10-01 08:38:47			0	37946	0	0	0	22428	21010	161471	26873	1056080	46401	108250	0	0	8195	564803	0	0
2024-10-01 08:39:47			0	37949	0	0	0	22428	21010	161507	26909	1056054	46378	108250	0	0	8195	564683	0	0
2024-10-01 08:40:47			0	37947	0	0	0	22425	21010	161515	26953	1056063	46390	108249	0	0	8195	564763	0	0
2024-10-01 08:41:47			0	37957	0	0	0	22433	21010	161503	27201	1056089	46390	108252	0	0	8195	564363	0	0
2024-10-01 08:42:47			0	37961	0	0	0	22428	21010	161471	27140	1056054	46401	108250	0	0	8195	564204	0	0
2024-10-01 08:43:47			0	37952	0	0	0	22428	21000	161463	26805	1056125	46389	108250	0	0	8195	564594	0	0
2024-10-01 08:44:47			0	37939	0	0	0	22431	21010	161551	27135	1056142	46390	108251	0	0	8194	565082	0	0
2024-10-01 08:45:47			0	37952	0	0	0	22441	21010	161491	27038	1056080	46390	108255	0	0	8195	564563	0	0
2024-10-01 08:46:47			0	37952	0	0	0	22431	21020	161595	26741	1056098	46378	108251	0	0	8195	564532	0	0
2024-10-01 08:47:47			0	37964	0	0	0	22428	21010	161555	27166	1056027	46390	108250	0	0	8196	564084	0	0
2024-10-01 08:48:47			0	37966	0	0	0	22423	21010	161427	27026	1056089	46378	108248	0	0	8196	564004	0	0
2024-10-01 08:49:47			0	37970	0	0	0	22423	21010	161483	26909	1056063	46390	108248	0	0	8196	563845	0	0
2024-10-01 08:50:47			0	37953	0	0	0	22433	21010	161467	26772	1056089	46390	108252	0	0	8195	564523	0	0
2024-10-01 08:51:47			0	37966	0	0	0	22433	21020	161451	26949	1056080	46391	108252	0	0	8196	563973	0	0
2024-10-01 08:52:47			0	37971	0	0	0	22436	21010	161423	27203	1056116	46390	108253	0	0	8196	563805	0	0
2024-10-01 08:53:47			0	37963	0	0	0	22438	21020	161591	26772	1056072	46378	108254	0	0	8195	564093	0	0
2024-10-01 08:54:47			0	37967	0	0	0	22428	21010	161443	26960	1056116	46390	108250	0	0	8196	563964	0	0
2024-10-01 08:55:47			0	37967	0	0	0	22428	21010	161511	26918	1056063	46390	108250	0	0	8196	563964	0	0
2024-10-01 08:56:47			0	37958	0	0	0	22431	21010	161427	26896	1056080	46390	108251	0	0	8195	564324	0	0
2024-10-01 08:57:47			0	37966	0	0	0	22425	21010	161443	27079	1056080	46390	108249	0	0	8196	564004	0	0
2024-10-01 08:58:47			0	37950	0	0	0	22420	21020	161463	26906	1056125	46390	108247	0	0	8195	564612	0	0
2024-10-01 08:59:47			0	37957	0	0	0	22425	21010	161567	27310	1056036	46378	108249	0	0	8195	564363	0	0
2024-10-01 09:00:47			0	37964	0	0	0	22431	21010	161379	27015	1056063	46368	108251	0	0	8196	564084	0	0
2024-10-01 09:01:47			0	37983	0	0	0	22420	21010	161375	27010	1056080	46390	108247	0	0	8197	563326	0	0
2024-10-01 09:02:47			0	37986	0	0	0	22433	21020	161499	27109	1056080	46391	108252	0	0	8197	563175	0	0
2024-10-01 09:03:47			0	37960	0	0	0	22428	21000	161403	27149	1056036	46388	108250	0	0	8195	564275	0	0
2024-10-01 09:04:47			0	37941	0	0	0	22428	21010	161635	27173	1056054	46401	108250	0	0	8194	565002	0	0
2024-10-01 09:05:47			0	37925	0	0	0	22420	21000	161615	27086	1056071	46400	108247	0	0	8193	565673	0	0
2024-10-01 09:06:47			0	37912	0	0	0	22431	21010	161643	27170	1055983	46390	108251	0	0	8192	566162	0	0
2024-10-01 09:07:47			0	37923	0	0	0	22425	21010	161591	27246	1056089	46390	108249	0	0	8193	565722	0	0
2024-10-01 09:08:47			0	37939	0	0	0	22428	21010	161575	27161	1056063	46378	108250	0	0	8194	565082	0	0
2024-10-01 09:09:47			0	37930	0	0	0	22428	21010	161635	27438	1056089	46378	108250	0	0	8194	565442	0	0
2024-10-01 09:10:47			0	37936	0	0	0	22425	21010	161571	27320	1056116	46378	108249	0	0	8194	565202	0	0
2024-10-01 09:11:47			0	37950	0	0	0	22425	21010	161579	27414	1056080	46368	108249	0	0	8195	564643	0	0
2024-10-01 09:12:47			0	37973	0	0	0	22425	21010	161519	26861	1056027	46390	108249	0	0	8196	563725	0	0
2024-10-01 09:13:47			0	37988	0	0	0	22431	21000	161427	27279	1056071	46389	108251	0	0	8197	563158	0	0
2024-10-01 09:14:47			0	37986	0	0	0	22428	21010	161383	27072	1056089	46390	108250	0	0	8197	563206	0	0
2024-10-01 09:15:47			0	38022	0	0	0	22425	21010	161347	26987	1056054	46378	108249	0	0	8199	561772	0	0
2024-10-01 09:16:47			0	38015	0	0	0	22420	21010	161295	27275	1056089	46390	108247	0	0	8199	562051	0	0
2024-10-01 09:17:47			0	38035	0	0	0	22428	21010	161184	27248	1056089	46378	108250	0	0	8200	561255	0	0
2024-10-01 09:18:47			0	38011	0	0	0	22418	21000	161151	27306	1056018	46389	108246	0	0	8198	562241	0	0
2024-10-01 09:19:47			0	38009	0	0	0	22420	21010	161175	27093	1056054	46390	108247	0	0	8198	562290	0	0
2024-10-01 09:20:47			0	38032	0	0	0	22412	21010	161152	27315	1056063	46378	108244	0	0	8200	561374	0	0
2024-10-01 09:21:47			0	38048	0	0	0	22412	21000	161164	27199	1056071	46377	108244	0	0	8201	560769	0	0
2024-10-01 09:22:47			0	38049	0	0	0	22407	21010	161120	27388	1056089	46390	108242	0	0	8201	560698	0	0
2024-10-01 09:23:47			0	38064	0	0	0	22410	21000	161212	27168	1055983	46388	108243	0	0	8202	560133	0	0
2024-10-01 09:24:47			0	38068	0	0	0	22425	21000	161108	27490	1056071	46400	108249	0	0	8202	559974	0	0
2024-10-01 09:25:47			0	38053	0	0	0	22431	21000	161100	27242	1056071	46389	108251	0	0	8201	560570	0	0
2024-10-01 09:26:47			0	38065	0	0	0	22428	21000	161088	26991	1056089	46399	108250	0	0	8201	560093	0	0
2024-10-01 09:27:47			0	38045	0	0	0	22433	21010	161116	27270	1056080	46390	108252	0	0	8200	560857	0	0
2024-10-01 09:28:47			0	38067	0	0	0	22420	21010	161112	27312	1056116	46390	108247	0	0	8202	559983	0	0
2024-10-01 09:29:47			0	38051	0	0	0	22428	21010	161076	27203	1056054	46401	108250	0	0	8201	560619	0	0
2024-10-01 09:30:47			0	38051	0	0	0	22428	21000	161100	27504	1056071	46389	108250	0	0	8201	560650	0	0
2024-10-01 09:31:47			0	38056	0	0	0	22415	21010	161132	27421	1056142	46390	108245	0	0	8201	560420	0	0
2024-10-01 09:32:47			0	38038	0	0	0	22415	21010	161092	27197	1056080	46378	108245	0	0	8200	561136	0	0
2024-10-01 09:33:47			0	38047	0	0	0	22415	21010	161072	26948	1056054	46390	108245	0	0	8201	560778	0	0
2024-10-01 09:34:47			0	38061	0	0	0	22412	21020	161040	27092	1056080	46391	108244	0	0	8202	560190	0	0
2024-10-01 09:35:47			0	38058	0	0	0	22423	21000	161072	27026	1056045	46400	108248	0	0	8201	560372	0	0
2024-10-01 09:36:47			0	38053	0	0	0	22420	21010	161048	27358	1056054	46390	108247	0	0	8201	560539	0	0
2024-10-01 09:37:47			0	38065	0	0	0	22431	21000	161036	27327	1056098	46367	108251	0	0	8201	560093	0	0
2024-10-01 09:38:47			0	38069	0	0	0	22423	21010	161168	27455	1056134	46390	108248	0	0	8202	559903	0	0
2024-10-01 09:39:47			0	38046	0	0	0	22425	21010	161108	26908	1056080	46390	108249	0	0	8200	560817	0	0
2024-10-01 09:40:47			0	38062	0	0	0	22431	21010	161180	26811	1056080	46390	108251	0	0	8201	560181	0	0
2024-10-01 09:41:47			0	38034	0	0	0	22423	21020	161236	26998	1056151	46378	108248	0	0	8200	561264	0	0
2024-10-01 09:42:47			0	38048	0	0	0	22431	21000	161256	27133	1056098	46400	108251	0	0	8200	560769	0	0
2024-10-01 09:43:47			0	38051	0	0	0	22431	21010	161160	27235	1056142	46378	108251	0	0	8201	560619	0	0
2024-10-01 09:44:47			0	38058	0	0	0	22428	20990	161228	27253	1056080	46399	108250	0	0	8201	560403	0	0
2024-10-01 09:45:47			0	38052	0	0	0	22433	21020	161224	27024	1056072	46390	108252	0	0	8201	560548	0	0
2024-10-01 09:46:47			0	38052	0	0	0	22433	21010	161148	27223	1056107	46390	108252	0	0	8201	560579	0	0
2024-10-01 09:47:47			0	38054	0	0	0	22436	21010	161120	27248	1056107	46378	108253	0	0	8201	560499	0	0
2024-10-01 09:48:47			0	38047	0	0	0	22441	21010	161044	26979	1056142	46390	108255	0	0	8200	560778	0	0
2024-10-01 09:49:47			0	38040	0	0	0	22444	21010	161176	27100	1056196	46390	108256	0	0	8200	561056	0	0
2024-10-01 09:50:47			0	38058	0	0	0	22446	21020	161172	27123	1056178	46390	108257	0	0	8201	560309	0	0
2024-10-01 09:51:47			0	38051	0	0	0	22444	21020	161192	26918	1056178	46401	108256	0	0	8200	560588	0	0
2024-10-01 09:52:47			0	38055	0	0	0	22438	21020	161200	26857	1056134	46413	108254	0	0	8201	560429	0	0
2024-10-01 09:53:47			0	38056	0	0	0	22446	21020	161116	26876	1056187	46380	108257	0	0	8201	560389	0	0
2024-10-01 09:54:47			0	38055	0	0	0	22451	21020	161172	27223	1056151	46401	108259	0	0	8201	560429	0	0
2024-10-01 09:55:47			0	38055	0	0	0	22454	21020	161140	26984	1056178	46390	108260	0	0	8201	560429	0	0
2024-10-01 09:56:47			0	38058	0	0	0	22451	21030	161228	27138	1056143	46392	108259	0	0	8201	560278	0	0
2024-10-01 09:57:47			0	38064	0	0	0	22451	21030	161232	27213	1056196	46403	108259	0	0	8201	560040	0	0
2024-10-01 09:58:47			0	38046	0	0	0	22451	21020	161160	27187	1056178	46390	108259	0	0	8200	560786	0	0
2024-10-01 09:59:47			0	38029	0	0	0	22444	21030	161099	27187	1056143	46392	108256	0	0	8199	561432	0	0
2024-10-01 10:00:47			0	38040	0	0	0	22449	21020	161304	26951	1056187	46402	108258	0	0	8200	561025	0	0
2024-10-01 10:01:47			0	38026	0	0	0	22451	21030	161108	26798	1056205	46404	108259	0	0	8199	561551	0	0
2024-10-01 10:02:47			0	38045	0	0	0	22449	21030	161208	27229	1056205	46404	108258	0	0	8200	560795	0	0
2024-10-01 10:03:47			0	38056	0	0	0	22454	21020	161180	27204	1056240	46391	108260	0	0	8201	560389	0	0
2024-10-01 10:04:47			0	38066	0	0	0	22467	21030	161140	27020	1056196	46403	108265	0	0	8201	559960	0	0
2024-10-01 10:05:47			0	38052	0	0	0	22454	21020	161136	27312	1056240	46391	108260	0	0	8200	560548	0	0
2024-10-01 10:06:47			0	38054	0	0	0	22462	21030	161156	27215	1056231	46404	108263	0	0	8200	560437	0	0
2024-10-01 10:07:47			0	38068	0	0	0	22451	21030	161060	26974	1056249	46403	108259	0	0	8201	559881	0	0
2024-10-01 10:08:47			0	38043	0	0	0	22454	21040	161148	27055	1056214	46393	108260	0	0	8200	560844	0	0
2024-10-01 10:09:47			0	38057	0	0	0	22462	21040	161188	27222	1056276	46393	108263	0	0	8201	560287	0	0
2024-10-01 10:10:47			0	38059	0	0	0	22464	21040	161120	27000	1056240	46393	108264	0	0	8201	560208	0	0
2024-10-01 10:11:47			0	38056	0	0	0	22459	21030	161108	27149	1056205	46393	108262	0	0	8201	560358	0	0
2024-10-01 10:12:47			0	38057	0	0	0	22467	21040	160920	27284	1056294	46393	108265	0	0	8201	560287	0	0
2024-10-01 10:13:47			0	38072	0	0	0	22470	21040	161020	27244	1056267	46393	108266	0	0	8201	559691	0	0
2024-10-01 10:14:47			0	38069	0	0	0	22477	21030	160952	26771	1056258	46371	108269	0	0	8201	559841	0	0
2024-10-01 10:15:47			0	38078	0	0	0	22477	21040	161008	27170	1056276	46393	108269	0	0	8202	559453	0	0
2024-10-01 10:16:47			0	38066	0	0	0	22467	21040	160968	27173	1056347	46393	108265	0	0	8201	559929	0	0
2024-10-01 10:17:47			0	38078	0	0	0	22467	21040	160960	27177	1056276	46415	108265	0	0	8202	559453	0	0
2024-10-01 10:18:47			0	38076	0	0	0	22475	21040	161020	27242	1056294	46382	108268	0	0	8202	559532	0	0
2024-10-01 10:19:47			0	38104	0	0	0	22472	21050	160888	27308	1056285	46405	108267	0	0	8203	558390	0	0
2024-10-01 10:20:47			0	38087	0	0	0	22472	21040	160704	27175	1056267	46404	108267	0	0	8202	559096	0	0
2024-10-01 10:21:47			0	38106	0	0	0	22475	21050	160784	27277	1056294	46406	108268	0	0	8203	558311	0	0
2024-10-01 10:22:47			0	38115	0	0	0	22462	21050	160800	27293	1056312	46394	108263	0	0	8204	557954	0	0
2024-10-01 10:23:47			0	38126	0	0	0	22470	21050	160760	27670	1056285	46405	108266	0	0	8205	557518	0	0
2024-10-01 10:24:47			0	38126	0	0	0	22472	21050	160760	27135	1056294	46406	108267	0	0	8205	557518	0	0
2024-10-01 10:25:47			0	38140	0	0	0	22475	21040	160572	27131	1056294	46382	108268	0	0	8205	556995	0	0
2024-10-01 10:26:47			0	38129	0	0	0	22472	21060	160712	27261	1056329	46384	108267	0	0	8205	557368	0	0
2024-10-01 10:27:47			0	38132	0	0	0	22470	21050	160764	27390	1056285	46382	108266	0	0	8205	557281	0	0
2024-10-01 10:28:47			0	38146	0	0	0	22480	21050	160632	27289	1056347	46373	108270	0	0	8206	556726	0	0
2024-10-01 10:29:47			0	38133	0	0	0	22485	21050	160656	27213	1056320	46416	108272	0	0	8205	557241	0	0
2024-10-01 10:30:47			0	38140	0	0	0	22483	21060	160664	27242	1056329	46406	108271	0	0	8205	556933	0	0
2024-10-01 10:31:47			0	38136	0	0	0	22490	21060	160656	27403	1056356	46395	108274	0	0	8205	557091	0	0
2024-10-01 10:32:47			0	38147	0	0	0	22496	21060	160576	27045	1056365	46395	108276	0	0	8205	556656	0	0
2024-10-01 10:33:47			0	38157	0	0	0	22496	21050	160688	27274	1056374	46395	108276	0	0	8206	556291	0	0
2024-10-01 10:34:47			0	38172	0	0	0	22493	21050	160448	27348	1056374	46395	108275	0	0	8207	555698	0	0
2024-10-01 10:35:47			0	38162	0	0	0	22488	21060	160464	27140	1056356	46406	108273	0	0	8206	556063	0	0
2024-10-01 10:36:47			0	38187	0	0	0	22488	21060	160488	27020	1056365	46406	108273	0	0	8208	555074	0	0
2024-10-01 10:37:47			0	38200	0	0	0	22493	21070	160492	26909	1056374	46407	108275	0	0	8209	554530	0	0
2024-10-01 10:38:47			0	38192	0	0	0	22490	21070	160452	27402	1056401	46396	108274	0	0	8208	554846	0	0
2024-10-01 10:39:47			0	38185	0	0	0	22498	21060	160420	27092	1056409	46384	108277	0	0	8208	555153	0	0
2024-10-01 10:40:47			0	38193	0	0	0	22498	21070	160404	27116	1056427	46396	108277	0	0	8208	554807	0	0
2024-10-01 10:41:47			0	38183	0	0	0	22498	21070	160492	27154	1056463	46397	108277	0	0	8208	555202	0	0
2024-10-01 10:42:47			0	38186	0	0	0	22498	21060	160388	27175	1056383	46406	108277	0	0	8208	555114	0	0
2024-10-01 10:43:47			0	38180	0	0	0	22503	21070	160356	26979	1056463	46386	108279	0	0	8207	555320	0	0
2024-10-01 10:44:47			0	38186	0	0	0	22511	21070	160460	26864	1056463	46397	108282	0	0	8207	555083	0	0
2024-10-01 10:45:47			0	38184	0	0	0	22498	21070	160472	27059	1056454	46396	108277	0	0	8208	555162	0	0
2024-10-01 10:46:47			0	38185	0	0	0	22503	21070	160544	27308	1056463	46386	108279	0	0	8208	555123	0	0
2024-10-01 10:47:47			0	38167	0	0	0	22503	21080	160544	27395	1056428	46408	108279	0	0	8207	555803	0	0
2024-10-01 10:48:47			0	38182	0	0	0	22503	21070	160536	27102	1056436	46408	108279	0	0	8207	555241	0	0
2024-10-01 10:49:47			0	38173	0	0	0	22501	21080	160448	27128	1056472	46408	108278	0	0	8207	555566	0	0
2024-10-01 10:50:47			0	38186	0	0	0	22509	21080	160552	27228	1056472	46386	108281	0	0	8208	555052	0	0
2024-10-01 10:51:47			0	38199	0	0	0	22509	21080	160496	27000	1056445	46397	108281	0	0	8208	554539	0	0
2024-10-01 10:52:47			0	38188	0	0	0	22503	21080	160460	27043	1056472	46386	108279	0	0	8208	554973	0	0
2024-10-01 10:53:47			0	38179	0	0	0	22514	21080	160532	26955	1056481	46397	108283	0	0	8207	555329	0	0
2024-10-01 10:54:47			0	38198	0	0	0	22511	21080	160464	27244	1056454	46397	108282	0	0	8208	554578	0	0
2024-10-01 10:55:47			0	38178	0	0	0	22511	21080	160512	27246	1056401	46397	108282	0	0	8207	555368	0	0
2024-10-01 10:56:47			0	38185	0	0	0	22506	21090	160500	27229	1056517	46398	108280	0	0	8208	555061	0	0
2024-10-01 10:57:47			0	38164	0	0	0	22524	21080	160592	27438	1056508	46397	108287	0	0	8206	555922	0	0
2024-10-01 10:58:47			0	38173	0	0	0	22519	21090	160616	26949	1056437	46398	108285	0	0	8207	555535	0	0
2024-10-01 10:59:47			0	38149	0	0	0	22514	21080	160544	27164	1056472	46397	108283	0	0	8205	556515	0	0
2024-10-01 11:00:47			0	38143	0	0	0	22524	21090	160580	27350	1056499	46399	108287	0	0	8205	556722	0	0
2024-10-01 11:01:47			0	38147	0	0	0	22511	21090	160600	27400	1056490	46387	108282	0	0	8205	556563	0	0
2024-10-01 11:02:47			0	38143	0	0	0	22516	21090	160564	27218	1056570	46398	108284	0	0	8205	556722	0	0
2024-10-01 11:03:47			0	38134	0	0	0	22516	21090	160632	26913	1056570	46398	108284	0	0	8204	557078	0	0
2024-10-01 11:04:47			0	38154	0	0	0	22527	21090	160628	27123	1056570	46398	108288	0	0	8205	556286	0	0
2024-10-01 11:05:47			0	38151	0	0	0	22522	21090	160524	27111	1056499	46399	108286	0	0	8205	556405	0	0
2024-10-01 11:06:47			0	38149	0	0	0	22522	21090	160568	26821	1056552	46420	108286	0	0	8205	556484	0	0
2024-10-01 11:07:47			0	38157	0	0	0	22524	21090	160612	27010	1056499	46399	108287	0	0	8206	556168	0	0
2024-10-01 11:08:47			0	38127	0	0	0	22527	21090	160624	27249	1056632	46388	108288	0	0	8204	557355	0	0
2024-10-01 11:09:47			0	38081	0	0	0	22524	21090	160892	27402	1056605	46399	108287	0	0	8201	559179	0	0
2024-10-01 11:10:47			0	38059	0	0	0	22527	21100	161032	27102	1056534	46410	108288	0	0	8200	560021	0	0
2024-10-01 11:11:47			0	38028	0	0	0	22527	21100	161160	26882	1056623	46421	108288	0	0	8198	561253	0	0
2024-10-01 11:12:47			0	38017	0	0	0	22535	21100	161311	27012	1056561	46399	108291	0	0	8197	561691	0	0
2024-10-01 11:13:47			0	38026	0	0	0	22522	21090	161139	27161	1056552	46399	108286	0	0	8198	561364	0	0
2024-10-01 11:14:47			0	38068	0	0	0	22537	21110	160976	27372	1056579	46389	108292	0	0	8200	559633	0	0
2024-10-01 11:15:47			0	38084	0	0	0	22529	21100	160884	27348	1056561	46410	108289	0	0	8201	559029	0	0
2024-10-01 11:16:47			0	38080	0	0	0	22527	21100	160876	27130	1056517	46411	108288	0	0	8201	559187	0	0
2024-10-01 11:17:47			0	38079	0	0	0	22529	21100	160916	27362	1056623	46400	108289	0	0	8201	559227	0	0
2024-10-01 11:18:47			0	38087	0	0	0	22535	21090	160908	27324	1056605	46399	108291	0	0	8201	558941	0	0
2024-10-01 11:19:47			0	38064	0	0	0	22532	21100	160964	27149	1056588	46399	108290	0	0	8200	559823	0	0
2024-10-01 11:20:47			0	38044	0	0	0	22535	21100	161024	27284	1056543	46411	108291	0	0	8199	560617	0	0
2024-10-01 11:21:47			0	38049	0	0	0	22532	21110	161092	27209	1056606	46411	108290	0	0	8199	560387	0	0
2024-10-01 11:22:47			0	38018	0	0	0	22532	21110	161095	27409	1056606	46400	108290	0	0	8197	561620	0	0
2024-10-01 11:23:47			0	38032	0	0	0	22532	21100	161035	26922	1056597	46389	108290	0	0	8198	561094	0	0
2024-10-01 11:24:47			0	38047	0	0	0	22537	21110	161016	27369	1056615	46378	108292	0	0	8199	560467	0	0
2024-10-01 11:25:47			0	38054	0	0	0	22532	21110	160864	27526	1056552	46411	108290	0	0	8200	560189	0	0
2024-10-01 11:26:47			0	38105	0	0	0	22537	21110	160696	27336	1056579	46400	108292	0	0	8202	558165	0	0
2024-10-01 11:27:47			0	38150	0	0	0	22537	21100	160584	27601	1056570	46411	108292	0	0	8205	556414	0	0
2024-10-01 11:28:47			0	38203	0	0	0	22540	21110	160372	26958	1056606	46400	108293	0	0	8208	554289	0	0
2024-10-01 11:29:47			0	38220	0	0	0	22540	21110	160412	26974	1056615	46401	108293	0	0	8209	553618	0	0
2024-10-01 11:30:47			0	38217	0	0	0	22545	21110	160332	27253	1056632	46411	108295	0	0	8209	553736	0	0
2024-10-01 11:31:47			0	38261	0	0	0	22537	21110	160288	27097	1056526	46389	108292	0	0	8212	552003	0	0
2024-10-01 11:32:47			0	38250	0	0	0	22542	21110	160180	27131	1056552	46400	108294	0	0	8211	552436	0	0
2024-10-01 11:33:47			0	38262	0	0	0	22537	21110	160196	27305	1056606	46400	108292	0	0	8212	551963	0	0
2024-10-01 11:34:47			0	38253	0	0	0	22535	21120	160264	27183	1056544	46390	108291	0	0	8211	552287	0	0
2024-10-01 11:35:47			0	38259	0	0	0	22540	21110	160144	27182	1056606	46389	108293	0	0	8211	552082	0	0
2024-10-01 11:36:47			0	38258	0	0	0	22540	21100	160204	27019	1056623	46411	108293	0	0	8211	552152	0	0
2024-10-01 11:37:47			0	38253	0	0	0	22537	21110	160144	27287	1056615	46401	108292	0	0	8211	552318	0	0
2024-10-01 11:38:47			0	38272	0	0	0	22542	21110	160104	26998	1056579	46400	108294	0	0	8212	551570	0	0
2024-10-01 11:39:47			0	38266	0	0	0	22542	21110	160048	27178	1056668	46401	108294	0	0	8212	551806	0	0
2024-10-01 11:40:47			0	38275	0	0	0	22550	21110	160040	27164	1056641	46412	108297	0	0	8212	551452	0	0
2024-10-01 11:41:47			0	38305	0	0	0	22545	21120	159980	27213	1056650	46401	108295	0	0	8214	550242	0	0
2024-10-01 11:42:47			0	38288	0	0	0	22550	21120	160024	27045	1056623	46390	108297	0	0	8213	550910	0	0
2024-10-01 11:43:47			0	38301	0	0	0	22540	21110	159904	27345	1056668	46412	108293	0	0	8214	550430	0	0
2024-10-01 11:44:47			0	38319	0	0	0	22545	21130	159924	27364	1056668	46402	108295	0	0	8215	549662	0	0
2024-10-01 11:45:47			0	38310	0	0	0	22548	21120	159880	27156	1056623	46401	108296	0	0	8214	550045	0	0
2024-10-01 11:46:47			0	38321	0	0	0	22542	21110	159900	27194	1056615	46390	108294	0	0	8215	549644	0	0
2024-10-01 11:47:47			0	38305	0	0	0	22540	21110	159940	27358	1056632	46389	108293	0	0	8214	550272	0	0
2024-10-01 11:48:47			0	38320	0	0	0	22545	21110	159876	27310	1056641	46412	108295	0	0	8215	549683	0	0
2024-10-01 11:49:47			0	38330	0	0	0	22540	21120	159956	27095	1056597	46412	108293	0	0	8216	549260	0	0
2024-10-01 11:50:47			0	38311	0	0	0	22537	21110	159888	27232	1056641	46422	108292	0	0	8215	550037	0	0
2024-10-01 11:51:47			0	38303	0	0	0	22537	21110	159832	27197	1056721	46401	108292	0	0	8214	550351	0	0
2024-10-01 11:52:47			0	38335	0	0	0	22542	21110	159784	27434	1056615	46390	108294	0	0	8216	549095	0	0
2024-10-01 11:53:47			0	38335	0	0	0	22537	21120	159844	27274	1056597	46401	108292	0	0	8216	549064	0	0
2024-10-01 11:54:47			0	38368	0	0	0	22542	21110	159700	26826	1056641	46390	108294	0	0	8218	547801	0	0
2024-10-01 11:55:47			0	38382	0	0	0	22542	21120	159668	27296	1056677	46412	108294	0	0	8219	547222	0	0
2024-10-01 11:56:47			0	38388	0	0	0	22548	21110	159556	27111	1056615	46412	108296	0	0	8219	547018	0	0
2024-10-01 11:57:47			0	38408	0	0	0	22545	21110	159552	27272	1056659	46389	108295	0	0	8220	546235	0	0
2024-10-01 11:58:47			0	38394	0	0	0	22550	21110	159600	27112	1056632	46400	108297	0	0	8219	546783	0	0
2024-10-01 11:59:47			0	38402	0	0	0	22545	21100	159520	27150	1056597	46400	108295	0	0	8220	546500	0	0
2024-10-01 12:00:47			0	38415	0	0	0	22548	21120	159492	27229	1056650	46401	108296	0	0	8220	545931	0	0
2024-10-01 12:01:47			0	38424	0	0	0	22542	21120	159460	27161	1056703	46401	108294	0	0	8221	545579	0	0
2024-10-01 12:02:47			0	38445	0	0	0	22548	21120	159300	27194	1056730	46401	108296	0	0	8222	544759	0	0
2024-10-01 12:03:47			0	38430	0	0	0	22548	21120	159504	27228	1056677	46390	108296	0	0	8221	545345	0	0
2024-10-01 12:04:47			0	38448	0	0	0	22548	21120	159396	26958	1056597	46412	108296	0	0	8222	544642	0	0
2024-10-01 12:05:47			0	38463	0	0	0	22540	21110	159384	27121	1056668	46390	108293	0	0	8223	544087	0	0
2024-10-01 12:06:47			0	38451	0	0	0	22545	21110	159440	27050	1056694	46412	108295	0	0	8223	544555	0	0
2024-10-01 12:07:47			0	38444	0	0	0	22548	21110	159316	27333	1056668	46401	108296	0	0	8222	544828	0	0
2024-10-01 12:08:47			0	38459	0	0	0	22553	21110	159452	27180	1056632	46389	108298	0	0	8223	544243	0	0
2024-10-01 12:09:47			0	38456	0	0	0	22542	21110	159364	27088	1056615	46401	108294	0	0	8223	544360	0	0
2024-10-01 12:10:47			0	38454	0	0	0	22548	21100	159348	27013	1056703	46389	108296	0	0	8223	544468	0	0
2024-10-01 12:11:47			0	38431	0	0	0	22542	21110	159384	27111	1056641	46401	108294	0	0	8221	545336	0	0
2024-10-01 12:12:47			0	38443	0	0	0	22542	21140	159420	27215	1056677	46414	108294	0	0	8222	544777	0	0
2024-10-01 12:13:47			0	38440	0	0	0	22545	21110	159372	27156	1056721	46390	108295	0	0	8222	544985	0	0
2024-10-01 12:14:47			0	38415	0	0	0	22550	21110	159452	27244	1056668	46390	108297	0	0	8220	545961	0	0
2024-10-01 12:15:47			0	38430	0	0	0	22548	21120	159624	27616	1056677	46401	108296	0	0	8221	545345	0	0
2024-10-01 12:16:47			0	38425	0	0	0	22548	21110	159544	27332	1056641	46412	108296	0	0	8221	545570	0	0
2024-10-01 12:17:47			0	38395	0	0	0	22540	21130	159608	27182	1056659	46402	108293	0	0	8219	546683	0	0
2024-10-01 12:18:47			0	38414	0	0	0	22548	21120	159592	27230	1056703	46401	108296	0	0	8220	545970	0	0
2024-10-01 12:19:47			0	38391	0	0	0	22545	21120	159696	27251	1056597	46412	108295	0	0	8219	546870	0	0
2024-10-01 12:20:47			0	38404	0	0	0	22542	21110	159720	27256	1056641	46401	108294	0	0	8220	546392	0	0
2024-10-01 12:21:47			0	38388	0	0	0	22548	21120	159660	26991	1056650	46390	108296	0	0	8219	546987	0	0
2024-10-01 12:22:47			0	38391	0	0	0	22545	21120	159500	27130	1056650	46390	108295	0	0	8219	546870	0	0
2024-10-01 12:23:47			0	38396	0	0	0	22542	21110	159576	26968	1056561	46412	108294	0	0	8219	546705	0	0
2024-10-01 12:24:47			0	38394	0	0	0	22545	21130	159536	26913	1056695	46391	108295	0	0	8219	546722	0	0
2024-10-01 12:25:47			0	38390	0	0	0	22553	21120	159612	27090	1056650	46401	108298	0	0	8219	546909	0	0
2024-10-01 12:26:47			0	38400	0	0	0	22550	21130	159476	26944	1056721	46413	108297	0	0	8220	546487	0	0
2024-10-01 12:27:47			0	38386	0	0	0	22542	21110	159592	27215	1056641	46390	108294	0	0	8219	547096	0	0
2024-10-01 12:28:47			0	38390	0	0	0	22548	21110	159480	27317	1056694	46412	108296	0	0	8219	546939	0	0
2024-10-01 12:29:47			0	38386	0	0	0	22545	21120	159620	27088	1056677	46401	108295	0	0	8219	547065	0	0
2024-10-01 12:30:47			0	38388	0	0	0	22550	21120	159616	26823	1056677	46401	108297	0	0	8219	546987	0	0
2024-10-01 12:31:47			0	38351	0	0	0	22550	21130	159688	27230	1056686	46413	108297	0	0	8217	548406	0	0
2024-10-01 12:32:47			0	38358	0	0	0	22550	21130	159732	27251	1056712	46391	108297	0	0	8217	548132	0	0
2024-10-01 12:33:47			0	38350	0	0	0	22548	21130	159788	27170	1056632	46402	108296	0	0	8217	548445	0	0
2024-10-01 12:34:47			0	38369	0	0	0	22553	21140	159732	27079	1056677	46403	108298	0	0	8218	547670	0	0
2024-10-01 12:35:47			0	38352	0	0	0	22548	21130	159764	26811	1056686	46391	108296	0	0	8217	548367	0	0
2024-10-01 12:36:47			0	38357	0	0	0	22558	21130	159692	26925	1056686	46413	108300	0	0	8217	548171	0	0
2024-10-01 12:37:47			0	38367	0	0	0	22545	21110	159692	27248	1056694	46401	108295	0	0	8218	547840	0	0
2024-10-01 12:38:47			0	38354	0	0	0	22542	21110	159724	27244	1056668	46390	108294	0	0	8217	548349	0	0
2024-10-01 12:39:47			0	38380	0	0	0	22548	21130	159676	27102	1056695	46402	108296	0	0	8218	547270	0	0
2024-10-01 12:40:47			0	38369	0	0	0	22550	21120	159660	27138	1056650	46401	108297	0	0	8218	547731	0	0
2024-10-01 12:41:47			0	38382	0	0	0	22550	21120	159636	27182	1056730	46401	108297	0	0	8218	547222	0	0
2024-10-01 12:42:47			0	38383	0	0	0	22545	21110	159712	27324	1056668	46401	108295	0	0	8219	547213	0	0
2024-10-01 12:43:47			0	38388	0	0	0	22553	21120	159672	26946	1056703	46390	108298	0	0	8219	546987	0	0
2024-10-01 12:44:47			0	38388	0	0	0	22548	21130	159516	27362	1056668	46413	108296	0	0	8219	546957	0	0
2024-10-01 12:45:47			0	38379	0	0	0	22550	21130	159560	26859	1056668	46413	108297	0	0	8218	547309	0	0
2024-10-01 12:46:47			0	38372	0	0	0	22545	21110	159608	27282	1056615	46401	108295	0	0	8218	547644	0	0
2024-10-01 12:47:47			0	38378	0	0	0	22555	21110	159536	26996	1056615	46401	108299	0	0	8218	547409	0	0
2024-10-01 12:48:47			0	38387	0	0	0	22550	21140	159608	26975	1056766	46404	108297	0	0	8219	546966	0	0
2024-10-01 12:49:47			0	38371	0	0	0	22548	21130	159636	27274	1056695	46402	108296	0	0	8218	547623	0	0
2024-10-01 12:50:47			0	38367	0	0	0	22548	21120	159628	27230	1056677	46390	108296	0	0	8218	547810	0	0
2024-10-01 12:51:47			0	38370	0	0	0	22542	21130	159668	27326	1056686	46391	108294	0	0	8218	547662	0	0
2024-10-01 12:52:47			0	38374	0	0	0	22555	21130	159680	27157	1056686	46402	108299	0	0	8218	547505	0	0
2024-10-01 12:53:47			0	38359	0	0	0	22555	21110	159732	27310	1056641	46401	108299	0	0	8217	548153	0	0
2024-10-01 12:54:47			0	38366	0	0	0	22553	21130	159648	27585	1056632	46413	108298	0	0	8218	547818	0	0
2024-10-01 12:55:47			0	38367	0	0	0	22553	21120	159620	27022	1056650	46422	108298	0	0	8218	547810	0	0
2024-10-01 12:56:47			0	38350	0	0	0	22553	21140	159636	27147	1056757	46414	108298	0	0	8217	548415	0	0
2024-10-01 12:57:47			0	38358	0	0	0	22553	21140	159676	27166	1056730	46403	108298	0	0	8217	548101	0	0
2024-10-01 12:58:47			0	38350	0	0	0	22553	21130	159692	27126	1056668	46402	108298	0	0	8217	548445	0	0
2024-10-01 12:59:47			0	38363	0	0	0	22550	21140	159764	27230	1056677	46403	108297	0	0	8217	547906	0	0
2024-10-01 13:00:47			0	38372	0	0	0	22540	21120	159800	27062	1056703	46401	108293	0	0	8218	547614	0	0
2024-10-01 13:01:47			0	38379	0	0	0	22550	21120	159684	27019	1056757	46401	108297	0	0	8218	547340	0	0
2024-10-01 13:02:47			0	38353	0	0	0	22545	21120	159756	27376	1056650	46401	108295	0	0	8217	548358	0	0
2024-10-01 13:03:47			0	38360	0	0	0	22548	21130	159660	27234	1056659	46391	108296	0	0	8217	548053	0	0
2024-10-01 13:04:47			0	38369	0	0	0	22550	21130	159656	27100	1056748	46391	108297	0	0	8218	547701	0	0
2024-10-01 13:05:47			0	38371	0	0	0	22553	21130	159568	27019	1056659	46402	108298	0	0	8218	547623	0	0
2024-10-01 13:06:47			0	38373	0	0	0	22545	21140	159544	27431	1056730	46403	108295	0	0	8218	547514	0	0
2024-10-01 13:07:47			0	38386	0	0	0	22548	21140	159544	27123	1056757	46392	108296	0	0	8219	547005	0	0
2024-10-01 13:08:47			0	38373	0	0	0	22548	21130	159696	27322	1056775	46402	108296	0	0	8218	547544	0	0
2024-10-01 13:09:47			0	38379	0	0	0	22550	21140	159704	27322	1056704	46414	108297	0	0	8218	547279	0	0
2024-10-01 13:10:47			0	38390	0	0	0	22545	21120	159644	26986	1056703	46401	108295	0	0	8219	546909	0	0
2024-10-01 13:11:47			0	38390	0	0	0	22553	21130	159584	27521	1056668	46413	108298	0	0	8219	546879	0	0
2024-10-01 13:12:47			0	38363	0	0	0	22550	21150	159612	27220	1056721	46425	108297	0	0	8218	547875	0	0
2024-10-01 13:13:47			0	38378	0	0	0	22553	21140	159648	27232	1056713	46393	108298	0	0	8218	547318	0	0
2024-10-01 13:14:47			0	38405	0	0	0	22545	21140	159568	26928	1056730	46392	108295	0	0	8220	546262	0	0
2024-10-01 13:15:47			0	38387	0	0	0	22545	21130	159536	27157	1056695	46413	108295	0	0	8219	546996	0	0
2024-10-01 13:16:47			0	38388	0	0	0	22548	21140	159592	27050	1056704	46403	108296	0	0	8219	546927	0	0
2024-10-01 13:17:47			0	38394	0	0	0	22545	21120	159692	27138	1056730	46401	108295	0	0	8219	546752	0	0
2024-10-01 13:18:47			0	38380	0	0	0	22537	21120	159476	26961	1056677	46401	108292	0	0	8219	547300	0	0
2024-10-01 13:19:47			0	38400	0	0	0	22540	21130	159660	27298	1056695	46379	108293	0	0	8220	546487	0	0
2024-10-01 13:20:47			0	38403	0	0	0	22540	21130	159512	27029	1056668	46413	108293	0	0	8220	546370	0	0
2024-10-01 13:21:47			0	38388	0	0	0	22548	21120	159620	27126	1056650	46390	108296	0	0	8219	546987	0	0
2024-10-01 13:22:47			0	38402	0	0	0	22550	21120	159580	27126	1056677	46390	108297	0	0	8220	546439	0	0
2024-10-01 13:23:47			0	38396	0	0	0	22542	21140	159584	27365	1056704	46403	108294	0	0	8220	546613	0	0
2024-10-01 13:24:47			0	38387	0	0	0	22545	21140	159632	27206	1056686	46415	108295	0	0	8219	546966	0	0
2024-10-01 13:25:47			0	38388	0	0	0	22545	21130	159652	27166	1056695	46402	108295	0	0	8219	546957	0	0
2024-10-01 13:26:47			0	38385	0	0	0	22545	21140	159644	27469	1056704	46424	108295	0	0	8219	547044	0	0
2024-10-01 13:27:47			0	38364	0	0	0	22545	21120	159672	27601	1056623	46401	108295	0	0	8218	547927	0	0
2024-10-01 13:28:47			0	38373	0	0	0	22545	21120	159696	27230	1056730	46390	108295	0	0	8218	547574	0	0
2024-10-01 13:29:47			0	38375	0	0	0	22548	21120	159596	27029	1056730	46401	108296	0	0	8218	547496	0	0
2024-10-01 13:30:47			0	38379	0	0	0	22542	21130	159620	27062	1056721	46402	108294	0	0	8219	547309	0	0
2024-10-01 13:31:47			0	38374	0	0	0	22542	21140	159600	27222	1056730	46403	108294	0	0	8218	547475	0	0
2024-10-01 13:32:47			0	38392	0	0	0	22548	21140	159584	27422	1056650	46414	108296	0	0	8219	546770	0	0
2024-10-01 13:33:47			0	38369	0	0	0	22540	21130	159632	27531	1056695	46413	108293	0	0	8218	547701	0	0
2024-10-01 13:34:47			0	38385	0	0	0	22553	21120	159608	27281	1056623	46401	108298	0	0	8219	547105	0	0
2024-10-01 13:35:47			0	38402	0	0	0	22537	21110	159588	27419	1056694	46412	108292	0	0	8220	546470	0	0
2024-10-01 13:36:47			0	38407	0	0	0	22553	21110	159488	27274	1056641	46401	108298	0	0	8220	546274	0	0
2024-10-01 13:37:47			0	38405	0	0	0	22542	21120	159540	27372	1056703	46401	108294	0	0	8220	546322	0	0
2024-10-01 13:38:47			0	38394	0	0	0	22550	21120	159500	27313	1056677	46401	108297	0	0	8219	546752	0	0
2024-10-01 13:39:47			0	38405	0	0	0	22548	21110	159552	27312	1056694	46401	108296	0	0	8220	546352	0	0
2024-10-01 13:40:47			0	38405	0	0	0	22550	21120	159440	27412	1056757	46401	108297	0	0	8220	546322	0	0
2024-10-01 13:41:47			0	38403	0	0	0	22550	21110	159536	27396	1056615	46412	108297	0	0	8220	546431	0	0
2024-10-01 13:42:47			0	38392	0	0	0	22545	21140	159560	27246	1056677	46414	108295	0	0	8219	546770	0	0
2024-10-01 13:43:47			0	38396	0	0	0	22558	21110	159600	27090	1056632	46411	108300	0	0	8219	546705	0	0
2024-10-01 13:44:47			0	38391	0	0	0	22555	21130	159628	27263	1056686	46402	108299	0	0	8219	546840	0	0
2024-10-01 13:45:47			0	38398	0	0	0	22550	21110	159560	27334	1056641	46401	108297	0	0	8219	546626	0	0
2024-10-01 13:46:47			0	38413	0	0	0	22558	21120	159536	27301	1056730	46412	108300	0	0	8220	546009	0	0
2024-10-01 13:47:47			0	38408	0	0	0	22563	21140	159532	27279	1056739	46404	108302	0	0	8220	546144	0	0
2024-10-01 13:48:47			0	38415	0	0	0	22553	21130	159504	27393	1056695	46413	108298	0	0	8220	545901	0	0
2024-10-01 13:49:47			0	38413	0	0	0	22561	21140	159528	27145	1056704	46403	108301	0	0	8220	545949	0	0
2024-10-01 13:50:47			0	38403	0	0	0	22550	21140	159524	27229	1056810	46414	108297	0	0	8220	546340	0	0
2024-10-01 13:51:47			0	38416	0	0	0	22555	21120	159556	27142	1056757	46401	108299	0	0	8220	545892	0	0
2024-10-01 13:52:47			0	38394	0	0	0	22555	21130	159580	27254	1056739	46402	108299	0	0	8219	546722	0	0
2024-10-01 13:53:47			0	38365	0	0	0	22558	21140	159680	27334	1056766	46404	108300	0	0	8217	547827	0	0
2024-10-01 13:54:47			0	38347	0	0	0	22558	21150	159716	27178	1056775	46404	108300	0	0	8216	548502	0	0
2024-10-01 13:55:47			0	38327	0	0	0	22555	21140	159976	26991	1056704	46392	108299	0	0	8215	549317	0	0
2024-10-01 13:56:47			0	38326	0	0	0	22558	21140	159860	27145	1056783	46403	108300	0	0	8215	549356	0	0
2024-10-01 13:57:47			0	38320	0	0	0	22558	21150	159880	27208	1056828	46415	108300	0	0	8215	549561	0	0
2024-10-01 13:58:47			0	38331	0	0	0	22563	21130	159720	27312	1056721	46413	108302	0	0	8215	549191	0	0
2024-10-01 13:59:47			0	38340	0	0	0	22566	21140	159824	27244	1056757	46403	108303	0	0	8216	548807	0	0
2024-10-01 14:00:47			0	38366	0	0	0	22566	21120	159804	27332	1056703	46401	108303	0	0	8217	547849	0	0
2024-10-01 14:01:47			0	38388	0	0	0	22566	21140	159592	27093	1056792	46415	108303	0	0	8219	546927	0	0
2024-10-01 14:02:47			0	38404	0	0	0	22566	21140	159668	27246	1056739	46404	108303	0	0	8220	546301	0	0
2024-10-01 14:03:47			0	38420	0	0	0	22555	21140	159544	27234	1056730	46414	108299	0	0	8221	545675	0	0
2024-10-01 14:04:47			0	38418	0	0	0	22568	21140	159528	27107	1056792	46415	108304	0	0	8220	545753	0	0
2024-10-01 14:05:47			0	38433	0	0	0	22561	21150	159440	27378	1056801	46404	108301	0	0	8221	545137	0	0
2024-10-01 14:06:47			0	38428	0	0	0	22558	21140	159340	27053	1056846	46381	108300	0	0	8221	545362	0	0
2024-10-01 14:07:47			0	38441	0	0	0	22563	21140	159352	27384	1056792	46404	108302	0	0	8222	544855	0	0
2024-10-01 14:08:47			0	38449	0	0	0	22553	21150	159348	27196	1056784	46404	108298	0	0	8222	544512	0	0
2024-10-01 14:09:47			0	38466	0	0	0	22558	21140	159316	27215	1056757	46403	108300	0	0	8223	543879	0	0
2024-10-01 14:10:47			0	38465	0	0	0	22563	21140	159392	27161	1056739	46404	108302	0	0	8223	543918	0	0
2024-10-01 14:11:47			0	38461	0	0	0	22555	21140	159412	27069	1056792	46404	108299	0	0	8223	544074	0	0
2024-10-01 14:12:47			0	38456	0	0	0	22553	21150	159316	27310	1056801	46415	108298	0	0	8223	544239	0	0
2024-10-01 14:13:47			0	38469	0	0	0	22558	21150	159312	27357	1056837	46404	108300	0	0	8224	543732	0	0
2024-10-01 14:14:47			0	38467	0	0	0	22548	21140	159328	27237	1056792	46393	108296	0	0	8224	543840	0	0
2024-10-01 14:15:47			0	38466	0	0	0	22561	21140	159276	27417	1056783	46403	108301	0	0	8223	543879	0	0
2024-10-01 14:16:47			0	38467	0	0	0	22555	21150	159408	27369	1056775	46404	108299	0	0	8224	543810	0	0
2024-10-01 14:17:47			0	38485	0	0	0	22563	21150	159360	27192	1056801	46404	108302	0	0	8224	543108	0	0
2024-10-01 14:18:47			0	38466	0	0	0	22558	21140	159380	27123	1056837	46414	108300	0	0	8223	543879	0	0
2024-10-01 14:19:47			0	38475	0	0	0	22568	21150	159308	27175	1056784	46425	108304	0	0	8224	543498	0	0
2024-10-01 14:20:47			0	38476	0	0	0	22563	21150	159220	27415	1056757	46393	108302	0	0	8224	543459	0	0
2024-10-01 14:21:47			0	38486	0	0	0	22566	21150	159260	27196	1056855	46404	108303	0	0	8224	543069	0	0
2024-10-01 14:22:47			0	38506	0	0	0	22561	21160	159296	27324	1056872	46416	108301	0	0	8226	542260	0	0
2024-10-01 14:23:47			0	38521	0	0	0	22568	21150	159208	27479	1056855	46415	108304	0	0	8226	541706	0	0
2024-10-01 14:24:47			0	38515	0	0	0	22558	21140	159172	27000	1056846	46404	108300	0	0	8226	541970	0	0
2024-10-01 14:25:47			0	38516	0	0	0	22563	21150	159144	27369	1056855	46404	108302	0	0	8226	541901	0	0
2024-10-01 14:26:47			0	38514	0	0	0	22574	21160	159084	27326	1056899	46405	108306	0	0	8226	541949	0	0
2024-10-01 14:27:47			0	38521	0	0	0	22571	21160	159096	27216	1056766	46416	108305	0	0	8226	541676	0	0
2024-10-01 14:28:47			0	38515	0	0	0	22579	21150	159148	27175	1056810	46404	108308	0	0	8226	541940	0	0
2024-10-01 14:29:47			0	38531	0	0	0	22574	21160	159112	27180	1056935	46416	108306	0	0	8227	541287	0	0
2024-10-01 14:30:47			0	38523	0	0	0	22574	21150	159216	27229	1056757	46415	108306	0	0	8226	541629	0	0
2024-10-01 14:31:47			0	38529	0	0	0	22574	21150	159056	27360	1056855	46404	108306	0	0	8227	541395	0	0
2024-10-01 14:32:47			0	38537	0	0	0	22574	21160	159128	27239	1056828	46406	108306	0	0	8227	541054	0	0
2024-10-01 14:33:47			0	38523	0	0	0	22571	21150	159048	27234	1056864	46404	108305	0	0	8226	541629	0	0
2024-10-01 14:34:47			0	38517	0	0	0	22571	21150	159140	27107	1056855	46404	108305	0	0	8226	541862	0	0
2024-10-01 14:35:47			0	38511	0	0	0	22576	21150	159128	27201	1056810	46393	108307	0	0	8226	542096	0	0
2024-10-01 14:36:47			0	38516	0	0	0	22584	21160	159112	27012	1056819	46405	108310	0	0	8226	541871	0	0
2024-10-01 14:37:47			0	38531	0	0	0	22579	21150	159156	26906	1056890	46404	108308	0	0	8227	541317	0	0
2024-10-01 14:38:47			0	38517	0	0	0	22581	21160	159132	27041	1056899	46416	108309	0	0	8226	541832	0	0
2024-10-01 14:39:47			0	38538	0	0	0	22581	21170	159112	27345	1056890	46406	108309	0	0	8227	540985	0	0
2024-10-01 14:40:47			0	38551	0	0	0	22579	21160	159012	27079	1056908	46395	108308	0	0	8228	540510	0	0
2024-10-01 14:41:47			0	38564	0	0	0	22586	21160	159056	27270	1056926	46405	108311	0	0	8229	540005	0	0
2024-10-01 14:42:47			0	38531	0	0	0	22581	21170	158916	27213	1056917	46416	108309	0	0	8227	541257	0	0
2024-10-01 14:43:47			0	38573	0	0	0	22574	21160	158960	27391	1056908	46395	108306	0	0	8229	539656	0	0
2024-10-01 14:44:47			0	38571	0	0	0	22589	21170	158984	26823	1056944	46406	108312	0	0	8229	539703	0	0
2024-10-01 14:45:47			0	38576	0	0	0	22579	21160	158852	27020	1056935	46416	108308	0	0	8229	539539	0	0
2024-10-01 14:46:47			0	38587	0	0	0	22584	21150	158852	27270	1056890	46415	108310	0	0	8230	539142	0	0
2024-10-01 14:47:47			0	38587	0	0	0	22581	21170	158896	27275	1056890	46406	108309	0	0	8230	539082	0	0
2024-10-01 14:48:47			0	38592	0	0	0	22584	21160	158948	27024	1056872	46394	108310	0	0	8230	538919	0	0
2024-10-01 14:49:47			0	38577	0	0	0	22586	21160	158868	27280	1056961	46406	108311	0	0	8229	539500	0	0
2024-10-01 14:50:47			0	38584	0	0	0	22579	21180	158852	27123	1056935	46407	108308	0	0	8230	539169	0	0
2024-10-01 14:51:47			0	38579	0	0	0	22579	21160	158844	27039	1056908	46406	108308	0	0	8230	539423	0	0
2024-10-01 14:52:47			0	38556	0	0	0	22576	21170	158896	27336	1056890	46406	108307	0	0	8228	540286	0	0
2024-10-01 14:53:47			0	38563	0	0	0	22581	21160	158964	27234	1056881	46395	108309	0	0	8229	540044	0	0
2024-10-01 14:54:47			0	38571	0	0	0	22584	21170	158964	27450	1056944	46406	108310	0	0	8229	539703	0	0
2024-10-01 14:55:47			0	38564	0	0	0	22584	21160	158944	27253	1056872	46405	108310	0	0	8229	540005	0	0
2024-10-01 14:56:47			0	38579	0	0	0	22584	21160	158968	27215	1056908	46416	108310	0	0	8230	539423	0	0
2024-10-01 14:57:47			0	38562	0	0	0	22592	21160	158884	27422	1056935	46395	108313	0	0	8228	540083	0	0
2024-10-01 14:58:47			0	38561	0	0	0	22589	21170	158780	27157	1056917	46416	108312	0	0	8228	540092	0	0
2024-10-01 14:59:47			0	38591	0	0	0	22584	21170	158856	27255	1056926	46407	108310	0	0	8230	538927	0	0
2024-10-01 15:00:47			0	38577	0	0	0	22579	21160	158748	27381	1056908	46406	108308	0	0	8230	539500	0	0
2024-10-01 15:01:47			0	38574	0	0	0	22584	21170	158684	27279	1056890	46406	108310	0	0	8229	539587	0	0
2024-10-01 15:02:47			0	38568	0	0	0	22584	21170	158824	27677	1056926	46417	108310	0	0	8229	539820	0	0
2024-10-01 15:03:47			0	38574	0	0	0	22594	21160	158768	27360	1056988	46406	108314	0	0	8229	539617	0	0
2024-10-01 15:04:47			0	38587	0	0	0	22589	21170	158796	27039	1056899	46407	108312	0	0	8230	539082	0	0
2024-10-01 15:05:47			0	38588	0	0	0	22586	21160	158840	27393	1056935	46383	108311	0	0	8230	539074	0	0
2024-10-01 15:06:47			0	38599	0	0	0	22589	21170	158700	27481	1056926	46407	108312	0	0	8231	538617	0	0
2024-10-01 15:07:47			0	38598	0	0	0	22592	21180	158744	27422	1057041	46417	108313	0	0	8231	538626	0	0
2024-10-01 15:08:47			0	38604	0	0	0	22592	21180	158672	27410	1056988	46407	108313	0	0	8231	538393	0	0
2024-10-01 15:09:47			0	38614	0	0	0	22602	21180	158568	27364	1056988	46407	108317	0	0	8231	538006	0	0
2024-10-01 15:10:47			0	38634	0	0	0	22586	21170	158504	27263	1057006	46417	108311	0	0	8233	537261	0	0
2024-10-01 15:11:47			0	38643	0	0	0	22584	21180	158544	27433	1056988	46407	108310	0	0	8233	536883	0	0
2024-10-01 15:12:47			0	38637	0	0	0	22589	21170	158448	27222	1056953	46407	108312	0	0	8233	537145	0	0
2024-10-01 15:13:47			0	38640	0	0	0	22584	21170	158548	27130	1056979	46384	108310	0	0	8233	537029	0	0
2024-10-01 15:14:47			0	38646	0	0	0	22592	21170	158460	27142	1056953	46396	108313	0	0	8233	536797	0	0
2024-10-01 15:15:47			0	38651	0	0	0	22594	21180	158496	27121	1056944	46408	108314	0	0	8234	536574	0	0
2024-10-01 15:16:47			0	38666	0	0	0	22594	21180	158456	27587	1056988	46396	108314	0	0	8235	535994	0	0
2024-10-01 15:17:47			0	38697	0	0	0	22594	21180	158396	27267	1056988	46396	108314	0	0	8236	534796	0	0
2024-10-01 15:18:47			0	38691	0	0	0	22592	21180	158452	27357	1057024	46408	108313	0	0	8236	535028	0	0
2024-10-01 15:19:47			0	38682	0	0	0	22592	21180	158356	27215	1056962	46407	108313	0	0	8236	535375	0	0
2024-10-01 15:20:47			0	38692	0	0	0	22599	21180	158392	27268	1056962	46407	108316	0	0	8236	534989	0	0
2024-10-01 15:21:47			0	38693	0	0	0	22605	21170	158452	27301	1056970	46406	108318	0	0	8236	534980	0	0
2024-10-01 15:22:47			0	38678	0	0	0	22602	21180	158476	27350	1056935	46407	108317	0	0	8235	535530	0	0
2024-10-01 15:23:47			0	38693	0	0	0	22589	21170	158360	27618	1056953	46407	108312	0	0	8236	534980	0	0
2024-10-01 15:24:47			0	38691	0	0	0	22602	21180	158316	27268	1056988	46396	108317	0	0	8236	535028	0	0
2024-10-01 15:25:47			0	38692	0	0	0	22605	21180	158356	26975	1056962	46417	108318	0	0	8236	534989	0	0
2024-10-01 15:26:47			0	38688	0	0	0	22602	21170	158368	27078	1056944	46416	108317	0	0	8236	535173	0	0
2024-10-01 15:27:47			0	38683	0	0	0	22592	21180	158356	27355	1056935	46396	108313	0	0	8236	535337	0	0
2024-10-01 15:28:47			0	38670	0	0	0	22597	21170	158344	27450	1056979	46407	108315	0	0	8235	535869	0	0
2024-10-01 15:29:47			0	38660	0	0	0	22594	21180	158364	27152	1056988	46407	108314	0	0	8234	536226	0	0
2024-10-01 15:30:47			0	38682	0	0	0	22602	21180	158320	27305	1056962	46417	108317	0	0	8235	535375	0	0
2024-10-01 15:31:47			0	38713	0	0	0	22610	21180	158300	27175	1056935	46407	108320	0	0	8237	534179	0	0
2024-10-01 15:32:47			0	38684	0	0	0	22605	21170	158264	27346	1056979	46417	108318	0	0	8235	535328	0	0
2024-10-01 15:33:47			0	38726	0	0	0	22605	21180	158128	27178	1056970	46408	108318	0	0	8238	533677	0	0
2024-10-01 15:34:47			0	38738	0	0	0	22605	21190	158101	27473	1057006	46418	108318	0	0	8239	533185	0	0
2024-10-01 15:35:47			0	38712	0	0	0	22602	21180	158116	27329	1057050	46418	108317	0	0	8237	534217	0	0
2024-10-01 15:36:47			0	38741	0	0	0	22602	21180	158189	27291	1057015	46407	108317	0	0	8239	533099	0	0
2024-10-01 15:37:47			0	38742	0	0	0	22610	21170	158137	27239	1056979	46396	108320	0	0	8239	533090	0	0
2024-10-01 15:38:47			0	38720	0	0	0	22607	21180	158072	27308	1056988	46407	108319	0	0	8237	533909	0	0
2024-10-01 15:39:47			0	38730	0	0	0	22610	21180	158049	27305	1057015	46407	108320	0	0	8238	533523	0	0
2024-10-01 15:40:47			0	38720	0	0	0	22607	21190	158176	27183	1057042	46409	108319	0	0	8238	533879	0	0
2024-10-01 15:41:47			0	38713	0	0	0	22615	21180	158172	27131	1057015	46396	108322	0	0	8237	534179	0	0
2024-10-01 15:42:47			0	38694	0	0	0	22599	21180	158204	27150	1056997	46408	108316	0	0	8236	534912	0	0
2024-10-01 15:43:47			0	38700	0	0	0	22605	21180	158288	27438	1057024	46418	108318	0	0	8236	534680	0	0
2024-10-01 15:44:47			0	38738	0	0	0	22605	21180	158081	27199	1057024	46408	108318	0	0	8239	533215	0	0
2024-10-01 15:45:47			0	38754	0	0	0	22594	21190	158009	27293	1057033	46408	108314	0	0	8240	532569	0	0
2024-10-01 15:46:47			0	38746	0	0	0	22597	21180	157929	27242	1057104	46408	108315	0	0	8239	532907	0	0
2024-10-01 15:47:47			0	38760	0	0	0	22602	21190	157973	27227	1057033	46385	108317	0	0	8240	532338	0	0
2024-10-01 15:48:47			0	38782	0	0	0	22602	21170	157981	27306	1056953	46396	108317	0	0	8241	531550	0	0
2024-10-01 15:49:47			0	38768	0	0	0	22607	21180	157833	27069	1057024	46408	108319	0	0	8240	532059	0	0
2024-10-01 15:50:47			0	38782	0	0	0	22605	21190	157949	27182	1057033	46397	108318	0	0	8241	531491	0	0
2024-10-01 15:51:47			0	38758	0	0	0	22605	21180	157829	27022	1056944	46408	108318	0	0	8240	532445	0	0
2024-10-01 15:52:47			0	38769	0	0	0	22605	21190	157945	27315	1057006	46408	108318	0	0	8240	531992	0	0
2024-10-01 15:53:47			0	38781	0	0	0	22597	21180	157921	27331	1057050	46397	108315	0	0	8241	531560	0	0
2024-10-01 15:54:47			0	38769	0	0	0	22610	21180	157941	27157	1057024	46408	108320	0	0	8240	532021	0	0
2024-10-01 15:55:47			0	38789	0	0	0	22607	21180	157885	26845	1057077	46408	108319	0	0	8241	531252	0	0
2024-10-01 15:56:47			0	38784	0	0	0	22607	21190	157921	27253	1057033	46408	108319	0	0	8241	531415	0	0
2024-10-01 15:57:47			0	38782	0	0	0	22602	21180	157921	27215	1056988	46417	108317	0	0	8241	531521	0	0
2024-10-01 15:58:47			0	38782	0	0	0	22607	21180	157829	26901	1057068	46407	108319	0	0	8241	531521	0	0
2024-10-01 15:59:47			0	38804	0	0	0	22605	21180	157777	27076	1057041	46407	108318	0	0	8242	530675	0	0
2024-10-01 16:00:47			0	38806	0	0	0	22592	21180	157889	26906	1056997	46408	108313	0	0	8243	530598	0	0
2024-10-01 16:01:47			0	38832	0	0	0	22586	21180	157733	27209	1057050	46418	108311	0	0	8244	529600	0	0
2024-10-01 16:02:47			0	38864	0	0	0	22586	21180	157593	27064	1057024	46408	108311	0	0	8246	528373	0	0
2024-10-01 16:03:47			0	38863	0	0	0	22597	21190	157497	27346	1057042	46409	108315	0	0	8246	528382	0	0
2024-10-01 16:04:47			0	38894	0	0	0	22599	21180	157533	27114	1056962	46407	108316	0	0	8248	527224	0	0
2024-10-01 16:05:47			0	38895	0	0	0	22589	21170	157533	27291	1057006	46417	108312	0	0	8248	527215	0	0
2024-10-01 16:06:47			0	38915	0	0	0	22584	21180	157325	27230	1056944	46397	108310	0	0	8249	526421	0	0
2024-10-01 16:07:47			0	38926	0	0	0	22574	21180	157365	27015	1056988	46407	108306	0	0	8250	526000	0	0
2024-10-01 16:08:47			0	38937	0	0	0	22586	21170	157381	27194	1056926	46417	108311	0	0	8250	525609	0	0
2024-10-01 16:09:47			0	38959	0	0	0	22594	21170	157269	27111	1057024	46395	108314	0	0	8252	524769	0	0
2024-10-01 16:10:47			0	38943	0	0	0	22584	21170	157265	27370	1056890	46406	108310	0	0	8251	525380	0	0
2024-10-01 16:11:47			0	38953	0	0	0	22589	21180	157197	27372	1056935	46407	108312	0	0	8251	524969	0	0
2024-10-01 16:12:47			0	38937	0	0	0	22592	21180	157149	27281	1056935	46417	108313	0	0	8250	525580	0	0
2024-10-01 16:13:47			0	38948	0	0	0	22589	21160	157121	27201	1056935	46406	108312	0	0	8251	525218	0	0
2024-10-01 16:14:47			0	38957	0	0	0	22592	21170	157305	27154	1056953	46407	108313	0	0	8251	524845	0	0
2024-10-01 16:15:47			0	38958	0	0	0	22592	21170	157297	27204	1057006	46417	108313	0	0	8251	524807	0	0
2024-10-01 16:16:47			0	38966	0	0	0	22592	21170	157269	27293	1056917	46395	108313	0	0	8252	524502	0	0
2024-10-01 16:17:47			0	38954	0	0	0	22597	21170	157293	27074	1056970	46395	108315	0	0	8251	524960	0	0
2024-10-01 16:18:47			0	38957	0	0	0	22594	21170	157217	27270	1057050	46416	108314	0	0	8251	524845	0	0
2024-10-01 16:19:47			0	38946	0	0	0	22597	21170	157229	27149	1056979	46417	108315	0	0	8251	525265	0	0
2024-10-01 16:20:47			0	38908	0	0	0	22605	21170	157421	27192	1056944	46406	108318	0	0	8248	526717	0	0
2024-10-01 16:21:47			0	38904	0	0	0	22594	21170	157585	27315	1056944	46406	108314	0	0	8248	526871	0	0
2024-10-01 16:22:47			0	38840	0	0	0	22597	21170	157705	27154	1057024	46406	108315	0	0	8245	529322	0	0
2024-10-01 16:23:47			0	38790	0	0	0	22605	21170	157793	27071	1057006	46417	108318	0	0	8242	531243	0	0
2024-10-01 16:24:47			0	38775	0	0	0	22599	21170	157797	27265	1056997	46395	108316	0	0	8241	531820	0	0
2024-10-01 16:25:47			0	38758	0	0	0	22594	21170	157973	27157	1057006	46417	108314	0	0	8240	532474	0	0
2024-10-01 16:26:47			0	38751	0	0	0	22594	21170	157993	27093	1057032	46396	108314	0	0	8239	532744	0	0
2024-10-01 16:27:47			0	38733	0	0	0	22594	21170	158057	27066	1056944	46416	108314	0	0	8238	533437	0	0
2024-10-01 16:28:47			0	38735	0	0	0	22597	21170	158125	27391	1057006	46396	108315	0	0	8238	533360	0	0
2024-10-01 16:29:47			0	38747	0	0	0	22602	21170	158061	26920	1057032	46407	108317	0	0	8239	532898	0	0
2024-10-01 16:30:47			0	38751	0	0	0	22599	21170	158089	26989	1056979	46407	108316	0	0	8239	532744	0	0
2024-10-01 16:31:47			0	38737	0	0	0	22594	21170	158005	27324	1056979	46417	108314	0	0	8239	533283	0	0
2024-10-01 16:32:47			0	38752	0	0	0	22599	21180	158053	27396	1056962	46417	108316	0	0	8239	532676	0	0
2024-10-01 16:33:47			0	38757	0	0	0	22602	21170	158049	27436	1057006	46396	108317	0	0	8240	532513	0	0
2024-10-01 16:34:47			0	38761	0	0	0	22594	21190	157965	27000	1057086	46408	108314	0	0	8240	532299	0	0
2024-10-01 16:35:47			0	38763	0	0	0	22589	21160	158069	27109	1057068	46395	108312	0	0	8240	532311	0	0
2024-10-01 16:36:47			0	38750	0	0	0	22597	21180	158045	27249	1056962	46396	108315	0	0	8239	532753	0	0
2024-10-01 16:37:47			0	38743	0	0	0	22597	21170	158025	27315	1056970	46406	108315	0	0	8239	533052	0	0
2024-10-01 16:38:47			0	38747	0	0	0	22592	21170	158097	27353	1056944	46406	108313	0	0	8239	532898	0	0
2024-10-01 16:39:47			0	38731	0	0	0	22594	21170	158161	27362	1057032	46407	108314	0	0	8238	533514	0	0
2024-10-01 16:40:47			0	38744	0	0	0	22597	21180	158105	27241	1057015	46396	108315	0	0	8239	532984	0	0
2024-10-01 16:41:47			0	38720	0	0	0	22599	21180	158172	27374	1056970	46397	108316	0	0	8238	533909	0	0
2024-10-01 16:42:47			0	38716	0	0	0	22589	21180	158064	27229	1056962	46417	108312	0	0	8238	534063	0	0
2024-10-01 16:43:47			0	38723	0	0	0	22597	21170	158180	27414	1056997	46416	108315	0	0	8238	533823	0	0
2024-10-01 16:44:47			0	38727	0	0	0	22592	21180	158076	27157	1057015	46396	108313	0	0	8238	533639	0	0
2024-10-01 16:45:47			0	38740	0	0	0	22589	21170	158225	27206	1056979	46407	108312	0	0	8239	533167	0	0
2024-10-01 16:46:47			0	38762	0	0	0	22594	21170	157981	27020	1056979	46417	108314	0	0	8240	532320	0	0
2024-10-01 16:47:47			0	38796	0	0	0	22602	21180	157941	27429	1056997	46408	108317	0	0	8242	530983	0	0
2024-10-01 16:48:47			0	38807	0	0	0	22594	21180	157833	27225	1057041	46407	108314	0	0	8243	530560	0	0
2024-10-01 16:49:47			0	38792	0	0	0	22592	21170	157861	27150	1057032	46384	108313	0	0	8242	531166	0	0
2024-10-01 16:50:47			0	38821	0	0	0	22592	21180	157737	27078	1056917	46408	108313	0	0	8244	530022	0	0
2024-10-01 16:51:47			0	38837	0	0	0	22586	21170	157749	27062	1056953	46396	108311	0	0	8245	529438	0	0
2024-10-01 16:52:47			0	38854	0	0	0	22592	21170	157761	26958	1056970	46416	108313	0	0	8245	528786	0	0
2024-10-01 16:53:47			0	38833	0	0	0	22584	21170	157701	27196	1057006	46396	108310	0	0	8244	529591	0	0
2024-10-01 16:54:47			0	38846	0	0	0	22592	21180	157613	27095	1056944	46408	108313	0	0	8245	529063	0	0
2024-10-01 16:55:47			0	38846	0	0	0	22589	21170	157701	27036	1057006	46407	108312	0	0	8245	529092	0	0
2024-10-01 16:56:47			0	38853	0	0	0	22592	21170	157697	26859	1056979	46407	108313	0	0	8245	528824	0	0
2024-10-01 16:57:47			0	38853	0	0	0	22592	21180	157725	27206	1056935	46396	108313	0	0	8245	528795	0	0
2024-10-01 16:58:47			0	38843	0	0	0	22592	21170	157629	27287	1056926	46384	108313	0	0	8245	529207	0	0
2024-10-01 16:59:47			0	38847	0	0	0	22586	21170	157637	26979	1056926	46396	108311	0	0	8245	529054	0	0
2024-10-01 17:00:47			0	38834	0	0	0	22589	21170	157733	27284	1056979	46407	108312	0	0	8244	529553	0	0
2024-10-01 17:01:47			0	38841	0	0	0	22584	21160	157645	27338	1056961	46395	108310	0	0	8245	529313	0	0
2024-10-01 17:02:47			0	38833	0	0	0	22594	21180	157693	26809	1056935	46417	108314	0	0	8244	529562	0	0
2024-10-01 17:03:47			0	38837	0	0	0	22594	21180	157885	27060	1056935	46407	108314	0	0	8244	529408	0	0
2024-10-01 17:04:47			0	38839	0	0	0	22589	21160	157749	27135	1056908	46406	108312	0	0	8245	529390	0	0
2024-10-01 17:05:47			0	38844	0	0	0	22589	21170	157633	27202	1056926	46407	108312	0	0	8245	529169	0	0
2024-10-01 17:06:47			0	38844	0	0	0	22586	21170	157633	27057	1056944	46406	108311	0	0	8245	529169	0	0
2024-10-01 17:07:47			0	38853	0	0	0	22597	21170	157681	27235	1056944	46416	108315	0	0	8245	528824	0	0
2024-10-01 17:08:47			0	38844	0	0	0	22594	21170	157549	27272	1056944	46406	108314	0	0	8245	529169	0	0
2024-10-01 17:09:47			0	38852	0	0	0	22589	21180	157677	26968	1056997	46397	108312	0	0	8245	528833	0	0
2024-10-01 17:10:47			0	38873	0	0	0	22586	21160	157565	27213	1056988	46406	108311	0	0	8247	528087	0	0
2024-10-01 17:11:47			0	38881	0	0	0	22589	21170	157609	27211	1056997	46406	108312	0	0	8247	527751	0	0
2024-10-01 17:12:47			0	38876	0	0	0	22589	21160	157573	27464	1056908	46406	108312	0	0	8247	527972	0	0
2024-10-01 17:13:47			0	38905	0	0	0	22581	21170	157401	27308	1056944	46383	108309	0	0	8249	526832	0	0
2024-10-01 17:14:47			0	38921	0	0	0	22592	21170	157349	27144	1057006	46396	108313	0	0	8249	526220	0	0
2024-10-01 17:15:47			0	38938	0	0	0	22581	21180	157241	26902	1056997	46408	108309	0	0	8251	525541	0	0
2024-10-01 17:16:47			0	38948	0	0	0	22584	21170	157161	27289	1057006	46407	108310	0	0	8251	525189	0	0
2024-10-01 17:17:47			0	38957	0	0	0	22576	21180	157261	27022	1057015	46407	108307	0	0	8252	524816	0	0
2024-10-01 17:18:47			0	38967	0	0	0	22561	21160	157173	27393	1056952	46405	108301	0	0	8252	524493	0	0
2024-10-01 17:19:47			0	38989	0	0	0	22542	21160	157121	27391	1056872	46416	108294	0	0	8254	523654	0	0
2024-10-01 17:20:47			0	39022	0	0	0	22532	21150	157005	27267	1056784	46393	108290	0	0	8256	522425	0	0
2024-10-01 17:21:47			0	39054	0	0	0	22548	21150	156853	27239	1056757	46393	108296	0	0	8258	521208	0	0
2024-10-01 17:22:47			0	39106	0	0	0	22529	21150	156625	27010	1056757	46393	108289	0	0	8261	519233	0	0
2024-10-01 17:23:47			0	39136	0	0	0	22548	21140	156413	27131	1056792	46393	108296	0	0	8262	518125	0	0
2024-10-01 17:24:47			0	39161	0	0	0	22561	21140	156429	27090	1056766	46415	108301	0	0	8264	517178	0	0
2024-10-01 17:25:47			0	39170	0	0	0	22550	21120	156297	27282	1056703	46422	108297	0	0	8264	516895	0	0
2024-10-01 17:26:47			0	39189	0	0	0	22555	21140	156377	27038	1056792	46404	108299	0	0	8265	516119	0	0
2024-10-01 17:27:47			0	39201	0	0	0	22550	21150	156321	27331	1056864	46404	108297	0	0	8266	515637	0	0
2024-10-01 17:28:47			0	39213	0	0	0	22558	21140	156221	27381	1056863	46403	108300	0	0	8267	515213	0	0
2024-10-01 17:29:47			0	39222	0	0	0	22561	21150	156217	27116	1056801	46393	108301	0	0	8267	514844	0	0
2024-10-01 17:30:47			0	39219	0	0	0	22571	21140	156253	27301	1056757	46403	108305	0	0	8267	514986	0	0
2024-10-01 17:31:47			0	39223	0	0	0	22568	21140	156197	26911	1056846	46404	108304	0	0	8267	514835	0	0
2024-10-01 17:32:47			0	39248	0	0	0	22566	21150	156157	27138	1056810	46404	108303	0	0	8269	513863	0	0
2024-10-01 17:33:47			0	39223	0	0	0	22576	21150	156217	27379	1056881	46393	108307	0	0	8267	514806	0	0
2024-10-01 17:34:47			0	39206	0	0	0	22579	21140	156169	27261	1056846	46404	108308	0	0	8266	515477	0	0
2024-10-01 17:35:47			0	39200	0	0	0	22579	21140	156265	27209	1056899	46415	108308	0	0	8266	515704	0	0
2024-10-01 17:36:47			0	39188	0	0	0	22586	21150	156417	26835	1056917	46415	108311	0	0	8265	516129	0	0
2024-10-01 17:37:47			0	39142	0	0	0	22579	21150	156525	27235	1056855	46404	108308	0	0	8262	517869	0	0
2024-10-01 17:38:47			0	39113	0	0	0	22579	21150	156617	27062	1056917	46393	108308	0	0	8261	518968	0	0
2024-10-01 17:39:47			0	39105	0	0	0	22586	21150	156709	27069	1056881	46425	108311	0	0	8260	519271	0	0
2024-10-01 17:40:47			0	39112	0	0	0	22594	21150	156693	27022	1056943	46415	108314	0	0	8260	519006	0	0
2024-10-01 17:41:47			0	39096	0	0	0	22592	21160	156793	27225	1056899	46416	108313	0	0	8259	519584	0	0
2024-10-01 17:42:47			0	39069	0	0	0	22594	21150	156845	27241	1056961	46415	108314	0	0	8258	520638	0	0
2024-10-01 17:43:47			0	39054	0	0	0	22592	21150	156909	27142	1056890	46404	108313	0	0	8257	521208	0	0
2024-10-01 17:44:47			0	39031	0	0	0	22589	21160	157037	26984	1056952	46405	108312	0	0	8256	522054	0	0
2024-10-01 17:45:47			0	39010	0	0	0	22594	21170	157025	27300	1056917	46406	108314	0	0	8254	522824	0	0
2024-10-01 17:46:47			0	39008	0	0	0	22584	21170	157009	27204	1056926	46407	108310	0	0	8255	522900	0	0
2024-10-01 17:47:47			0	38996	0	0	0	22581	21170	156989	27353	1056917	46406	108309	0	0	8254	523358	0	0
2024-10-01 17:48:47			0	39004	0	0	0	22592	21160	157101	27291	1056935	46395	108313	0	0	8254	523082	0	0
2024-10-01 17:49:47			0	38999	0	0	0	22584	21170	157029	27060	1056953	46417	108310	0	0	8254	523243	0	0
2024-10-01 17:50:47			0	39022	0	0	0	22592	21170	156961	26835	1056970	46416	108313	0	0	8255	522367	0	0
2024-10-01 17:51:47			0	39032	0	0	0	22584	21160	156897	27256	1056926	46394	108310	0	0	8256	522016	0	0
2024-10-01 17:52:47			0	39051	0	0	0	22586	21160	156829	27443	1056881	46406	108311	0	0	8257	521293	0	0
2024-10-01 17:53:47			0	39071	0	0	0	22584	21160	156833	27289	1056961	46395	108310	0	0	8258	520533	0	0
2024-10-01 17:54:47			0	39091	0	0	0	22584	21160	156669	27329	1056935	46406	108310	0	0	8259	519774	0	0
2024-10-01 17:55:47			0	39108	0	0	0	22586	21160	156633	27092	1056926	46405	108311	0	0	8260	519129	0	0
2024-10-01 17:56:47			0	39122	0	0	0	22581	21160	156617	27421	1056908	46406	108309	0	0	8261	518598	0	0
2024-10-01 17:57:47			0	39122	0	0	0	22574	21160	156553	27256	1056899	46394	108306	0	0	8261	518598	0	0
2024-10-01 17:58:47			0	39141	0	0	0	22574	21160	156601	26918	1056952	46405	108306	0	0	8262	517878	0	0
2024-10-01 17:59:47			0	39161	0	0	0	22581	21160	156433	27062	1056819	46405	108309	0	0	8263	517121	0	0
2024-10-01 18:00:47			0	39166	0	0	0	22579	21160	156537	27005	1056935	46406	108308	0	0	8264	516932	0	0
2024-10-01 18:01:47			0	39179	0	0	0	22571	21150	156361	27157	1056864	46404	108305	0	0	8265	516469	0	0
2024-10-01 18:02:47			0	39200	0	0	0	22574	21160	156349	27135	1056926	46382	108306	0	0	8266	515646	0	0
2024-10-01 18:03:47			0	39221	0	0	0	22574	21160	156241	26986	1056926	46405	108306	0	0	8267	514853	0	0
2024-10-01 18:04:47			0	39202	0	0	0	22574	21160	156257	27203	1056926	46394	108306	0	0	8266	515571	0	0
2024-10-01 18:05:47			0	39209	0	0	0	22579	21150	156205	27225	1056943	46393	108308	0	0	8266	515335	0	0
2024-10-01 18:06:47			0	39213	0	0	0	22571	21160	156233	26941	1056908	46395	108305	0	0	8267	515155	0	0
2024-10-01 18:07:47			0	39246	0	0	0	22579	21160	156181	27332	1056899	46405	108308	0	0	8268	513910	0	0
2024-10-01 18:08:47			0	39258	0	0	0	22566	21160	156261	26986	1056881	46406	108303	0	0	8269	513458	0	0
2024-10-01 18:09:47			0	39226	0	0	0	22571	21160	156269	26901	1056935	46406	108305	0	0	8267	514665	0	0
2024-10-01 18:10:47			0	39222	0	0	0	22579	21150	156329	26831	1056890	46404	108308	0	0	8267	514844	0	0
2024-10-01 18:11:47			0	39239	0	0	0	22571	21150	156365	26882	1056837	46415	108305	0	0	8268	514203	0	0
2024-10-01 18:12:47			0	39220	0	0	0	22571	21150	156373	27024	1056864	46404	108305	0	0	8267	514920	0	0
2024-10-01 18:13:47			0	39191	0	0	0	22574	21150	156429	26977	1056881	46404	108306	0	0	8265	516015	0	0
2024-10-01 18:14:47			0	39181	0	0	0	22563	21140	156549	27092	1056792	46404	108302	0	0	8265	516422	0	0
2024-10-01 18:15:47			0	39169	0	0	0	22566	21140	156489	26955	1056890	46414	108303	0	0	8264	516876	0	0
2024-10-01 18:16:47			0	39178	0	0	0	22579	21150	156585	27199	1056943	46393	108308	0	0	8264	516507	0	0
2024-10-01 18:17:47			0	39130	0	0	0	22579	21150	156665	27320	1056908	46404	108308	0	0	8262	518323	0	0
2024-10-01 18:18:47			0	39130	0	0	0	22579	21150	156749	27352	1056890	46404	108308	0	0	8262	518323	0	0
2024-10-01 18:19:47			0	39090	0	0	0	22568	21140	156781	27284	1056899	46381	108304	0	0	8259	519869	0	0
2024-10-01 18:20:47			0	39081	0	0	0	22576	21140	156893	26927	1056846	46415	108307	0	0	8259	520211	0	0
2024-10-01 18:21:47			0	39073	0	0	0	22576	21160	156881	27218	1056926	46405	108307	0	0	8258	520457	0	0
2024-10-01 18:22:47			0	39050	0	0	0	22581	21150	157053	27107	1056961	46415	108309	0	0	8257	521360	0	0
2024-10-01 18:23:47			0	39030	0	0	0	22584	21150	157057	27123	1056890	46404	108310	0	0	8256	522121	0	0
2024-10-01 18:24:47			0	39000	0	0	0	22589	21150	157213	26824	1056908	46415	108312	0	0	8254	523263	0	0
2024-10-01 18:25:47			0	38971	0	0	0	22594	21150	157289	27263	1056890	46404	108314	0	0	8252	524369	0	0
2024-10-01 18:26:47			0	38942	0	0	0	22581	21150	157525	27083	1056864	46415	108309	0	0	8251	525476	0	0
2024-10-01 18:27:47			0	38922	0	0	0	22586	21160	157541	26927	1056926	46394	108311	0	0	8249	526211	0	0
2024-10-01 18:28:47			0	38876	0	0	0	22586	21150	157689	27388	1056864	46404	108311	0	0	8247	528001	0	0
2024-10-01 18:29:47			0	38855	0	0	0	22584	21160	157825	27173	1056926	46416	108310	0	0	8246	528777	0	0
2024-10-01 18:30:47			0	38838	0	0	0	22579	21150	157845	27265	1056970	46404	108308	0	0	8245	529458	0	0
2024-10-01 18:31:47			0	38822	0	0	0	22584	21160	157877	26975	1056899	46405	108310	0	0	8244	530043	0	0
2024-10-01 18:32:47			0	38808	0	0	0	22568	21160	157949	27097	1056952	46405	108304	0	0	8243	530580	0	0
2024-10-01 18:33:47			0	38835	0	0	0	22563	21150	157909	27173	1056864	46393	108302	0	0	8245	529573	0	0
2024-10-01 18:34:47			0	38859	0	0	0	22561	21160	157881	27178	1056819	46405	108301	0	0	8246	528623	0	0
2024-10-01 18:35:47			0	38877	0	0	0	22558	21150	157725	27166	1056890	46404	108300	0	0	8247	527963	0	0
2024-10-01 18:36:47			0	38909	0	0	0	22555	21150	157629	26956	1056855	46404	108299	0	0	8249	526738	0	0
2024-10-01 18:37:47			0	38909	0	0	0	22558	21150	157525	27159	1056890	46393	108300	0	0	8249	526738	0	0
2024-10-01 18:38:47			0	38945	0	0	0	22561	21150	157505	27050	1056855	46404	108301	0	0	8251	525362	0	0
2024-10-01 18:39:47			0	38955	0	0	0	22558	21150	157405	27119	1056837	46404	108300	0	0	8252	524980	0	0
2024-10-01 18:40:47			0	38957	0	0	0	22550	21150	157341	26745	1056801	46404	108297	0	0	8252	524903	0	0
2024-10-01 18:41:47			0	38995	0	0	0	22545	21140	157341	26939	1056783	46392	108295	0	0	8254	523483	0	0
2024-10-01 18:42:47			0	38986	0	0	0	22542	21140	157229	27034	1056757	46403	108294	0	0	8254	523826	0	0
2024-10-01 18:43:47			0	38986	0	0	0	22545	21140	157317	27222	1056783	46403	108295	0	0	8254	523826	0	0
2024-10-01 18:44:47			0	38993	0	0	0	22545	21130	157289	26878	1056766	46402	108295	0	0	8254	523588	0	0
2024-10-01 18:45:47			0	38983	0	0	0	22553	21140	157269	27090	1056810	46392	108298	0	0	8253	523940	0	0
2024-10-01 18:46:47			0	38993	0	0	0	22548	21140	157269	26753	1056783	46370	108296	0	0	8254	523559	0	0
2024-10-01 18:47:47			0	38999	0	0	0	22545	21120	157269	27176	1056810	46390	108295	0	0	8254	523389	0	0
2024-10-01 18:48:47			0	38985	0	0	0	22545	21130	157389	27190	1056828	46413	108295	0	0	8254	523893	0	0
2024-10-01 18:49:47			0	38978	0	0	0	22542	21130	157357	26611	1056748	46413	108294	0	0	8253	524160	0	0
2024-10-01 18:50:47			0	38996	0	0	0	22548	21130	157281	26939	1056775	46391	108296	0	0	8254	523474	0	0
2024-10-01 18:51:47			0	38984	0	0	0	22558	21120	157365	27027	1056810	46401	108300	0	0	8253	523960	0	0
2024-10-01 18:52:47			0	38967	0	0	0	22558	21140	157301	27123	1056863	46403	108300	0	0	8252	524551	0	0
2024-10-01 18:53:47			0	38961	0	0	0	22553	21140	157425	26991	1056837	46414	108298	0	0	8252	524780	0	0
2024-10-01 18:54:47			0	38929	0	0	0	22555	21110	157541	27003	1056774	46401	108299	0	0	8250	526090	0	0
2024-10-01 18:55:47			0	38933	0	0	0	22555	21120	157645	27010	1056810	46401	108299	0	0	8250	525908	0	0
2024-10-01 18:56:47			0	38892	0	0	0	22558	21130	157649	27249	1056819	46391	108300	0	0	8248	527447	0	0
2024-10-01 18:57:47			0	38880	0	0	0	22568	21130	157709	26989	1056854	46402	108304	0	0	8247	527906	0	0
2024-10-01 18:58:47			0	38877	0	0	0	22563	21140	157789	26965	1056863	46414	108302	0	0	8247	527992	0	0
2024-10-01 18:59:47			0	38858	0	0	0	22566	21140	157821	27256	1056757	46403	108303	0	0	8246	528720	0	0
2024-10-01 19:00:47			0	38807	0	0	0	22563	21130	157917	27064	1056854	46402	108302	0	0	8243	530707	0	0
2024-10-01 19:01:47			0	38815	0	0	0	22566	21130	157985	26927	1056854	46402	108303	0	0	8243	530400	0	0
2024-10-01 19:02:47			0	38795	0	0	0	22571	21140	157957	27300	1056872	46415	108305	0	0	8242	531139	0	0
2024-10-01 19:03:47			0	38786	0	0	0	22566	21140	157945	27173	1056846	46415	108303	0	0	8242	531485	0	0
2024-10-01 19:04:47			0	38782	0	0	0	22566	21140	158069	26844	1056837	46392	108303	0	0	8242	531639	0	0
2024-10-01 19:05:47			0	38775	0	0	0	22561	21140	158009	27145	1056837	46403	108301	0	0	8241	531908	0	0
2024-10-01 19:06:47			0	38789	0	0	0	22561	21140	158033	27326	1056846	46415	108301	0	0	8242	531370	0	0
2024-10-01 19:07:47			0	38788	0	0	0	22555	21140	157881	27124	1056872	46404	108299	0	0	8242	531408	0	0
2024-10-01 19:08:47			0	38806	0	0	0	22545	21130	158005	27334	1056845	46402	108295	0	0	8243	530746	0	0
2024-10-01 19:09:47			0	38831	0	0	0	22545	21140	157821	27060	1056783	46403	108295	0	0	8245	529756	0	0
2024-10-01 19:10:47			0	38824	0	0	0	22550	21140	157809	26916	1056792	46393	108297	0	0	8244	530025	0	0
2024-10-01 19:11:47			0	38818	0	0	0	22553	21130	157769	27213	1056748	46402	108298	0	0	8244	530285	0	0
2024-10-01 19:12:47			0	38822	0	0	0	22561	21150	157793	27100	1056775	46381	108301	0	0	8244	530072	0	0
2024-10-01 19:13:47			0	38843	0	0	0	22558	21140	157873	27022	1056792	46404	108300	0	0	8245	529296	0	0
2024-10-01 19:14:47			0	38848	0	0	0	22548	21130	157881	27251	1056766	46402	108296	0	0	8246	529133	0	0
2024-10-01 19:15:47			0	38827	0	0	0	22545	21120	157901	26913	1056810	46401	108295	0	0	8244	529968	0	0
2024-10-01 19:16:47			0	38827	0	0	0	22553	21140	157917	26878	1056863	46403	108298	0	0	8244	529910	0	0
2024-10-01 19:17:47			0	38806	0	0	0	22550	21140	157845	27159	1056863	46414	108297	0	0	8243	530716	0	0
2024-10-01 19:18:47			0	38800	0	0	0	22553	21140	157861	26734	1056704	46403	108298	0	0	8243	530947	0	0
2024-10-01 19:19:47			0	38798	0	0	0	22561	21130	157929	27258	1056819	46402	108301	0	0	8243	531053	0	0
2024-10-01 19:20:47			0	38798	0	0	0	22545	21140	158001	27034	1056766	46404	108295	0	0	8243	531024	0	0
2024-10-01 19:21:47			0	38780	0	0	0	22561	21120	157965	27109	1056703	46401	108301	0	0	8241	531775	0	0
2024-10-01 19:22:47			0	38766	0	0	0	22540	21120	157985	27365	1056730	46401	108293	0	0	8241	532314	0	0
2024-10-01 19:23:47			0	38744	0	0	0	22555	21140	158149	27277	1056783	46380	108299	0	0	8240	533102	0	0
2024-10-01 19:24:47			0	38758	0	0	0	22550	21120	158137	27253	1056810	46401	108297	0	0	8240	532622	0	0
2024-10-01 19:25:47			0	38748	0	0	0	22550	21130	158157	27036	1056739	46402	108297	0	0	8240	532977	0	0
2024-10-01 19:26:47			0	38750	0	0	0	22558	21120	158053	27190	1056810	46401	108300	0	0	8240	532930	0	0
2024-10-01 19:27:47			0	38748	0	0	0	22553	21140	158093	27199	1056757	46403	108298	0	0	8240	532948	0	0
2024-10-01 19:28:47			0	38752	0	0	0	22555	21130	158137	27296	1056801	46391	108299	0	0	8240	532823	0	0
2024-10-01 19:29:47			0	38741	0	0	0	22548	21140	158245	27147	1056783	46414	108296	0	0	8240	533218	0	0
2024-10-01 19:30:47			0	38753	0	0	0	22558	21140	158209	27293	1056863	46392	108300	0	0	8240	532755	0	0
2024-10-01 19:31:47			0	38747	0	0	0	22563	21130	158101	27213	1056748	46413	108302	0	0	8240	533016	0	0
2024-10-01 19:32:47			0	38743	0	0	0	22553	21130	158213	27241	1056801	46402	108298	0	0	8240	533170	0	0
2024-10-01 19:33:47			0	38749	0	0	0	22553	21140	158225	27095	1056810	46414	108298	0	0	8240	532909	0	0
2024-10-01 19:34:47			0	38740	0	0	0	22548	21120	158153	27270	1056836	46401	108296	0	0	8239	533315	0	0
2024-10-01 19:35:47			0	38737	0	0	0	22555	21120	158177	27298	1056757	46412	108299	0	0	8239	533431	0	0
2024-10-01 19:36:47			0	38712	0	0	0	22553	21120	158144	27197	1056836	46401	108298	0	0	8238	534395	0	0
2024-10-01 19:37:47			0	38720	0	0	0	22545	21130	158184	27156	1056739	46413	108295	0	0	8238	534057	0	0
2024-10-01 19:38:47			0	38721	0	0	0	22548	21120	158192	27322	1056730	46412	108296	0	0	8238	534048	0	0
2024-10-01 19:39:47			0	38712	0	0	0	22542	21130	158268	27180	1056766	46413	108294	0	0	8238	534365	0	0
2024-10-01 19:40:47			0	38729	0	0	0	22545	21110	158165	27275	1056721	46390	108295	0	0	8239	533769	0	0
2024-10-01 19:41:47			0	38702	0	0	0	22553	21120	158244	26925	1056783	46412	108298	0	0	8237	534781	0	0
2024-10-01 19:42:47			0	38711	0	0	0	22548	21130	158284	27104	1056766	46402	108296	0	0	8238	534404	0	0
2024-10-01 19:43:47			0	38701	0	0	0	22545	21110	158368	26981	1056748	46401	108295	0	0	8237	534849	0	0
2024-10-01 19:44:47			0	38706	0	0	0	22542	21130	158288	27112	1056686	46402	108294	0	0	8238	534597	0	0
2024-10-01 19:45:47			0	38701	0	0	0	22542	21120	158308	27275	1056730	46390	108294	0	0	8237	534820	0	0
2024-10-01 19:46:47			0	38696	0	0	0	22545	21110	158264	27211	1056765	46400	108295	0	0	8237	535043	0	0
2024-10-01 19:47:47			0	38693	0	0	0	22540	21110	158276	27279	1056792	46389	108293	0	0	8237	535158	0	0
2024-10-01 19:48:47			0	38687	0	0	0	22542	21120	158296	27118	1056810	46401	108294	0	0	8236	535360	0	0
2024-10-01 19:49:47			0	38678	0	0	0	22537	21120	158252	27409	1056730	46401	108292	0	0	8236	535708	0	0
2024-10-01 19:50:47			0	38681	0	0	0	22542	21110	158456	26875	1056765	46389	108294	0	0	8236	535622	0	0
2024-10-01 19:51:47			0	38673	0	0	0	22537	21110	158316	27208	1056801	46390	108292	0	0	8236	535931	0	0
2024-10-01 19:52:47			0	38678	0	0	0	22537	21110	158348	27027	1056721	46412	108292	0	0	8236	535738	0	0
2024-10-01 19:53:47			0	38675	0	0	0	22540	21110	158400	27067	1056685	46389	108293	0	0	8236	535854	0	0
2024-10-01 19:54:47			0	38663	0	0	0	22545	21120	158540	27093	1056703	46401	108295	0	0	8235	536288	0	0
2024-10-01 19:55:47			0	38643	0	0	0	22542	21120	158436	27097	1056703	46401	108294	0	0	8234	537062	0	0
2024-10-01 19:56:47			0	38648	0	0	0	22522	21110	158488	27189	1056659	46411	108286	0	0	8234	536898	0	0
2024-10-01 19:57:47			0	38643	0	0	0	22529	21110	158500	27182	1056801	46412	108289	0	0	8234	537092	0	0
2024-10-01 19:58:47			0	38641	0	0	0	22527	21110	158572	27050	1056739	46400	108288	0	0	8234	537169	0	0
2024-10-01 19:59:47			0	38639	0	0	0	22527	21110	158564	27395	1056694	46401	108288	0	0	8234	537247	0	0
2024-10-01 20:00:47			0	38619	0	0	0	22527	21100	158552	27424	1056676	46400	108288	0	0	8233	538051	0	0
2024-10-01 20:01:47			0	38635	0	0	0	22527	21100	158592	27208	1056641	46399	108288	0	0	8234	537431	0	0
2024-10-01 20:02:47			0	38626	0	0	0	22524	21100	158588	27267	1056756	46400	108287	0	0	8233	537780	0	0
2024-10-01 20:03:47			0	38620	0	0	0	22522	21100	158608	26960	1056703	46400	108286	0	0	8233	538012	0	0
2024-10-01 20:04:47			0	38622	0	0	0	22532	21110	158620	27034	1056694	46412	108290	0	0	8233	537905	0	0
2024-10-01 20:05:47			0	38625	0	0	0	22532	21100	158560	26687	1056694	46399	108290	0	0	8233	537819	0	0
2024-10-01 20:06:47			0	38612	0	0	0	22514	21110	158668	27166	1056712	46400	108283	0	0	8232	538292	0	0
2024-10-01 20:07:47			0	38630	0	0	0	22535	21100	158644	27034	1056650	46400	108291	0	0	8233	537625	0	0
2024-10-01 20:08:47			0	38618	0	0	0	22509	21090	158596	27182	1056659	46388	108281	0	0	8233	538120	0	0
2024-10-01 20:09:47			0	38588	0	0	0	22503	21090	158748	27052	1056659	46399	108279	0	0	8231	539283	0	0
2024-10-01 20:10:47			0	38568	0	0	0	22506	21090	158804	27135	1056596	46398	108280	0	0	8230	540059	0	0
2024-10-01 20:11:47			0	38536	0	0	0	22506	21100	159028	27367	1056614	46399	108280	0	0	8228	541273	0	0
2024-10-01 20:12:47			0	38521	0	0	0	22511	21090	159016	27166	1056605	46399	108282	0	0	8227	541887	0	0
2024-10-01 20:13:47			0	38526	0	0	0	22506	21090	159052	27112	1056650	46398	108280	0	0	8228	541692	0	0
2024-10-01 20:14:47			0	38508	0	0	0	22501	21090	159036	26786	1056570	46398	108278	0	0	8227	542393	0	0
2024-10-01 20:15:47			0	38503	0	0	0	22516	21080	159108	27159	1056561	46386	108284	0	0	8226	542618	0	0
2024-10-01 20:16:47			0	38507	0	0	0	22501	21080	159228	27410	1056614	46386	108278	0	0	8226	542462	0	0
2024-10-01 20:17:47			0	38493	0	0	0	22506	21090	159176	27190	1056525	46388	108280	0	0	8226	542977	0	0
2024-10-01 20:18:47			0	38470	0	0	0	22509	21080	159212	27310	1056525	46397	108281	0	0	8224	543904	0	0
2024-10-01 20:19:47			0	38468	0	0	0	22501	21090	159232	27242	1056596	46387	108278	0	0	8224	543952	0	0
2024-10-01 20:20:47			0	38460	0	0	0	22501	21080	159292	27098	1056498	46397	108278	0	0	8224	544294	0	0
2024-10-01 20:21:47			0	38447	0	0	0	22509	21070	159284	27052	1056543	46397	108281	0	0	8223	544832	0	0
2024-10-01 20:22:47			0	38441	0	0	0	22503	21070	159384	27187	1056569	46386	108279	0	0	8223	545066	0	0
2024-10-01 20:23:47			0	38417	0	0	0	22506	21070	159452	27170	1056543	46408	108280	0	0	8221	546004	0	0
2024-10-01 20:24:47			0	38426	0	0	0	22506	21080	159440	27043	1056578	46408	108280	0	0	8222	545622	0	0
2024-10-01 20:25:47			0	38407	0	0	0	22501	21080	159536	27405	1056552	46397	108278	0	0	8221	546365	0	0
2024-10-01 20:26:47			0	38406	0	0	0	22506	21080	159560	27031	1056525	46386	108280	0	0	8220	546404	0	0
2024-10-01 20:27:47			0	38371	0	0	0	22503	21070	159616	27222	1056543	46418	108279	0	0	8218	547805	0	0
2024-10-01 20:28:47			0	38336	0	0	0	22501	21080	159728	27083	1056552	46386	108278	0	0	8216	549147	0	0
2024-10-01 20:29:47			0	38329	0	0	0	22498	21080	159860	27154	1056534	46397	108277	0	0	8216	549422	0	0
2024-10-01 20:30:47			0	38322	0	0	0	22490	21070	159836	27248	1056543	46386	108274	0	0	8216	549727	0	0
2024-10-01 20:31:47			0	38308	0	0	0	22501	21070	159912	27519	1056463	46397	108278	0	0	8215	550277	0	0
2024-10-01 20:32:47			0	38309	0	0	0	22488	21080	159840	27149	1056587	46386	108273	0	0	8215	550207	0	0
2024-10-01 20:33:47			0	38283	0	0	0	22493	21080	159872	27083	1056552	46397	108275	0	0	8214	551229	0	0
2024-10-01 20:34:47			0	38297	0	0	0	22493	21070	159920	27296	1056516	46397	108275	0	0	8214	550709	0	0
2024-10-01 20:35:47			0	38280	0	0	0	22501	21070	159912	27183	1056516	46397	108278	0	0	8213	551378	0	0
2024-10-01 20:36:47			0	38283	0	0	0	22511	21080	160100	27208	1056525	46408	108282	0	0	8213	551229	0	0
2024-10-01 20:37:47			0	38245	0	0	0	22516	21070	160136	27097	1056516	46397	108284	0	0	8211	552756	0	0
2024-10-01 20:38:47			0	38237	0	0	0	22514	21070	160200	26974	1056569	46408	108283	0	0	8210	553071	0	0
2024-10-01 20:39:47			0	38225	0	0	0	22503	21070	160216	27003	1056489	46408	108279	0	0	8210	553544	0	0
2024-10-01 20:40:47			0	38215	0	0	0	22511	21080	160224	27300	1056561	46418	108282	0	0	8209	553907	0	0
2024-10-01 20:41:47			0	38221	0	0	0	22506	21080	160140	27050	1056587	46397	108280	0	0	8210	553671	0	0
2024-10-01 20:42:47			0	38200	0	0	0	22493	21080	160316	27071	1056578	46397	108275	0	0	8209	554499	0	0
2024-10-01 20:43:47			0	38212	0	0	0	22493	21080	160320	27213	1056508	46397	108275	0	0	8209	554026	0	0
2024-10-01 20:44:47			0	38179	0	0	0	22496	21080	160444	27324	1056561	46397	108276	0	0	8207	555329	0	0
2024-10-01 20:45:47			0	38177	0	0	0	22506	21080	160412	26913	1056561	46375	108280	0	0	8207	555408	0	0
2024-10-01 20:46:47			0	38154	0	0	0	22511	21070	160528	27017	1056543	46397	108282	0	0	8206	556348	0	0
2024-10-01 20:47:47			0	38154	0	0	0	22519	21070	160520	27116	1056543	46397	108285	0	0	8205	556348	0	0
2024-10-01 20:48:47			0	38149	0	0	0	22522	21080	160572	27102	1056587	46397	108286	0	0	8205	556515	0	0
2024-10-01 20:49:47			0	38140	0	0	0	22516	21080	160608	27150	1056561	46397	108284	0	0	8205	556871	0	0
2024-10-01 20:50:47			0	38142	0	0	0	22514	21080	160628	27291	1056578	46397	108283	0	0	8205	556792	0	0
2024-10-01 20:51:47			0	38125	0	0	0	22511	21080	160700	26889	1056578	46386	108282	0	0	8204	557465	0	0
2024-10-01 20:52:47			0	38136	0	0	0	22514	21070	160612	27223	1056596	46408	108283	0	0	8204	557060	0	0
2024-10-01 20:53:47			0	38121	0	0	0	22509	21070	160676	27282	1056543	46397	108281	0	0	8204	557655	0	0
2024-10-01 20:54:47			0	38119	0	0	0	22519	21080	160644	27119	1056587	46397	108285	0	0	8203	557703	0	0
2024-10-01 20:55:47			0	38125	0	0	0	22516	21080	160728	27362	1056587	46408	108284	0	0	8204	557465	0	0
2024-10-01 20:56:47			0	38115	0	0	0	22503	21080	160700	27124	1056587	46397	108279	0	0	8204	557861	0	0
2024-10-01 20:57:47			0	38133	0	0	0	22506	21090	160640	26961	1056543	46387	108280	0	0	8205	557117	0	0
2024-10-01 20:58:47			0	38116	0	0	0	22498	21090	160692	27142	1056632	46399	108277	0	0	8204	557791	0	0
2024-10-01 20:59:47			0	38126	0	0	0	22503	21090	160708	26956	1056596	46398	108279	0	0	8204	557395	0	0
2024-10-01 21:00:47			0	38126	0	0	0	22511	21080	160736	27090	1056614	46408	108282	0	0	8204	557426	0	0
2024-10-01 21:01:47			0	38128	0	0	0	22506	21080	160584	27171	1056614	46386	108280	0	0	8204	557346	0	0
2024-10-01 21:02:47			0	38120	0	0	0	22519	21090	160652	27279	1056570	46387	108285	0	0	8204	557632	0	0
2024-10-01 21:03:47			0	38128	0	0	0	22516	21090	160624	27033	1056570	46409	108284	0	0	8204	557316	0	0
2024-10-01 21:04:47			0	38135	0	0	0	22514	21090	160560	26979	1056596	46398	108283	0	0	8205	557038	0	0
2024-10-01 21:05:47			0	38140	0	0	0	22509	21080	160632	26824	1056552	46397	108281	0	0	8205	556871	0	0
2024-10-01 21:06:47			0	38123	0	0	0	22506	21080	160608	26998	1056578	46386	108280	0	0	8204	557544	0	0
2024-10-01 21:07:47			0	38120	0	0	0	22506	21080	160576	27142	1056587	46397	108280	0	0	8204	557663	0	0
2024-10-01 21:08:47			0	38144	0	0	0	22503	21080	160828	27100	1056534	46364	108279	0	0	8205	556713	0	0
2024-10-01 21:09:47			0	38142	0	0	0	22503	21090	160716	27140	1056543	46409	108279	0	0	8205	556761	0	0
2024-10-01 21:10:47			0	38135	0	0	0	22501	21080	160640	27249	1056578	46397	108278	0	0	8205	557069	0	0
2024-10-01 21:11:47			0	38134	0	0	0	22493	21080	160588	27346	1056614	46397	108275	0	0	8205	557109	0	0
2024-10-01 21:12:47			0	38150	0	0	0	22501	21080	160664	26963	1056614	46397	108278	0	0	8206	556475	0	0
2024-10-01 21:13:47			0	38131	0	0	0	22498	21080	160704	27428	1056578	46386	108277	0	0	8205	557228	0	0
2024-10-01 21:14:47			0	38129	0	0	0	22501	21090	160736	27192	1056623	46398	108278	0	0	8204	557276	0	0
2024-10-01 21:15:47			0	38105	0	0	0	22503	21070	160816	26842	1056596	46397	108279	0	0	8203	558289	0	0
2024-10-01 21:16:47			0	38109	0	0	0	22506	21080	160728	27142	1056534	46408	108280	0	0	8203	558099	0	0
2024-10-01 21:17:47			0	38089	0	0	0	22501	21080	160668	27156	1056525	46397	108278	0	0	8202	558892	0	0
2024-10-01 21:18:47			0	38108	0	0	0	22501	21080	160660	26977	1056552	46397	108278	0	0	8203	558139	0	0
2024-10-01 21:19:47			0	38107	0	0	0	22506	21080	160712	27202	1056587	46397	108280	0	0	8203	558179	0	0
2024-10-01 21:20:47			0	38101	0	0	0	22498	21070	160736	27255	1056596	46408	108277	0	0	8203	558447	0	0
2024-10-01 21:21:47			0	38118	0	0	0	22501	21080	160724	27053	1056605	46386	108278	0	0	8204	557742	0	0
2024-10-01 21:22:47			0	38093	0	0	0	22506	21070	160676	27293	1056569	46375	108280	0	0	8202	558765	0	0
2024-10-01 21:23:47			0	38119	0	0	0	22496	21070	160748	27272	1056543	46397	108276	0	0	8204	557734	0	0
2024-10-01 21:24:47			0	38117	0	0	0	22501	21070	160752	27119	1056543	46397	108278	0	0	8204	557813	0	0
2024-10-01 21:25:47			0	38115	0	0	0	22503	21080	160672	27341	1056525	46386	108279	0	0	8204	557861	0	0
2024-10-01 21:26:47			0	38115	0	0	0	22488	21070	160648	26693	1056534	46374	108273	0	0	8204	557892	0	0
2024-10-01 21:27:47			0	38124	0	0	0	22488	21070	160788	27313	1056543	46375	108273	0	0	8204	557536	0	0
2024-10-01 21:28:47			0	38116	0	0	0	22483	21080	160856	27334	1056498	46397	108271	0	0	8204	557822	0	0
2024-10-01 21:29:47			0	38112	0	0	0	22493	21070	160736	27237	1056489	46397	108275	0	0	8203	558011	0	0
2024-10-01 21:30:47			0	38091	0	0	0	22485	21070	160852	27145	1056543	46386	108272	0	0	8202	558844	0	0
2024-10-01 21:31:47			0	38104	0	0	0	22472	21060	160780	27024	1056525	46384	108267	0	0	8203	558359	0	0
2024-10-01 21:32:47			0	38098	0	0	0	22472	21060	160728	26746	1056516	46395	108267	0	0	8203	558597	0	0
2024-10-01 21:33:47			0	38094	0	0	0	22475	21060	160776	27156	1056471	46384	108268	0	0	8203	558756	0	0
2024-10-01 21:34:47			0	38092	0	0	0	22472	21070	160728	27140	1056427	46385	108267	0	0	8203	558804	0	0
2024-10-01 21:35:47			0	38071	0	0	0	22472	21060	160744	26928	1056445	46395	108267	0	0	8201	559669	0	0
2024-10-01 21:36:47			0	38089	0	0	0	22472	21050	160804	27114	1056454	46384	108267	0	0	8202	558985	0	0
2024-10-01 21:37:47			0	38087	0	0	0	22470	21060	160748	27078	1056471	46384	108266	0	0	8202	559034	0	0
2024-10-01 21:38:47			0	38081	0	0	0	22470	21050	160788	27157	1056454	46395	108266	0	0	8202	559303	0	0
2024-10-01 21:39:47			0	38082	0	0	0	22467	21060	160752	27086	1056516	46395	108265	0	0	8202	559232	0	0
2024-10-01 21:40:47			0	38081	0	0	0	22472	21050	160792	27123	1056418	46394	108267	0	0	8202	559303	0	0
2024-10-01 21:41:47			0	38086	0	0	0	22472	21060	160908	26932	1056436	46395	108267	0	0	8202	559073	0	0
2024-10-01 21:42:47			0	38083	0	0	0	22464	21050	160852	27095	1056391	46382	108264	0	0	8202	559223	0	0
2024-10-01 21:43:47			0	38074	0	0	0	22462	21050	160860	27317	1056391	46394	108263	0	0	8202	559581	0	0
2024-10-01 21:44:47			0	38083	0	0	0	22475	21060	160840	27177	1056409	46395	108268	0	0	8202	559192	0	0
2024-10-01 21:45:47			0	38060	0	0	0	22454	21040	160908	27298	1056436	46382	108260	0	0	8201	560168	0	0
2024-10-01 21:46:47			0	38042	0	0	0	22454	21040	160996	27060	1056382	46382	108260	0	0	8200	560883	0	0
2024-10-01 21:47:47			0	38048	0	0	0	22454	21050	160952	27092	1056391	46394	108260	0	0	8200	560614	0	0
2024-10-01 21:48:47			0	38071	0	0	0	22418	21040	160944	27222	1056329	46393	108246	0	0	8202	559731	0	0
2024-10-01 21:49:47			0	38050	0	0	0	22412	21050	160888	27019	1056285	46382	108244	0	0	8201	560534	0	0
2024-10-01 21:50:47			0	38075	0	0	0	22418	21030	160908	27371	1056231	46382	108246	0	0	8202	559603	0	0
2024-10-01 21:51:47			0	38082	0	0	0	22394	21030	160888	27284	1056196	46359	108237	0	0	8203	559325	0	0
2024-10-01 21:52:47			0	38089	0	0	0	22376	21020	160848	27135	1056151	46368	108230	0	0	8204	559078	0	0
2024-10-01 21:53:47			0	38083	0	0	0	22381	21010	160832	26920	1056142	46368	108232	0	0	8203	559347	0	0
2024-10-01 21:54:47			0	38071	0	0	0	22379	21010	161048	27260	1056134	46335	108231	0	0	8203	559824	0	0
2024-10-01 21:55:47			0	38086	0	0	0	22373	21000	160940	27163	1056071	46356	108229	0	0	8204	559259	0	0
2024-10-01 21:56:47			0	38083	0	0	0	22366	21000	161032	27116	1056089	46376	108226	0	0	8204	559378	0	0
2024-10-01 21:57:47			0	38074	0	0	0	22366	20980	160864	26991	1056027	46364	108226	0	0	8203	559798	0	0
2024-10-01 21:58:47			0	38104	0	0	0	22340	20990	160760	27150	1056071	46376	108216	0	0	8205	558576	0	0
2024-10-01 21:59:47			0	38122	0	0	0	22337	20970	160752	26948	1055964	46364	108215	0	0	8206	557924	0	0
2024-10-01 22:00:47			0	38138	0	0	0	22327	20960	160704	27083	1055893	46341	108211	0	0	8207	557321	0	0
2024-10-01 22:01:47			0	38167	0	0	0	22340	20960	160748	27208	1055920	46374	108216	0	0	8209	556173	0	0
2024-10-01 22:02:47			0	38170	0	0	0	22342	20950	160732	27069	1055875	46372	108217	0	0	8209	556085	0	0
2024-10-01 22:03:47			0	38166	0	0	0	22345	20950	160608	27150	1055902	46361	108218	0	0	8209	556244	0	0
2024-10-01 22:04:47			0	38178	0	0	0	22345	20950	160732	27005	1055893	46372	108218	0	0	8209	555769	0	0
2024-10-01 22:05:47			0	38169	0	0	0	22342	20950	160684	26979	1055946	46372	108217	0	0	8209	556125	0	0
2024-10-01 22:06:47			0	38174	0	0	0	22348	20940	160728	27034	1055875	46382	108219	0	0	8209	555958	0	0
2024-10-01 22:07:47			0	38148	0	0	0	22353	20950	160620	27163	1055840	46372	108221	0	0	8207	556956	0	0
2024-10-01 22:08:47			0	38151	0	0	0	22337	20940	160740	27164	1055831	46372	108215	0	0	8208	556868	0	0
2024-10-01 22:09:47			0	38130	0	0	0	22340	20930	160876	27034	1055857	46370	108216	0	0	8206	557731	0	0
2024-10-01 22:10:47			0	38139	0	0	0	22337	20930	160848	26951	1055813	46381	108215	0	0	8207	557374	0	0
2024-10-01 22:11:47			0	38102	0	0	0	22340	20940	160876	27085	1055804	46394	108216	0	0	8205	558810	0	0
2024-10-01 22:12:47			0	38111	0	0	0	22335	20930	160876	27170	1055857	46370	108214	0	0	8205	558484	0	0
2024-10-01 22:13:47			0	38101	0	0	0	22337	20930	160956	27305	1055751	46381	108215	0	0	8205	558881	0	0
2024-10-01 22:14:47			0	38079	0	0	0	22335	20930	161044	27128	1055830	46381	108214	0	0	8204	559754	0	0
2024-10-01 22:15:47			0	38072	0	0	0	22337	20930	161008	27549	1055857	46381	108215	0	0	8203	560033	0	0
2024-10-01 22:16:47			0	38077	0	0	0	22337	20930	160944	26991	1055857	46381	108215	0	0	8203	559834	0	0
2024-10-01 22:17:47			0	38078	0	0	0	22340	20930	161028	27209	1055830	46381	108216	0	0	8203	559794	0	0
2024-10-01 22:18:47			0	38078	0	0	0	22353	20920	161168	27156	1055821	46381	108221	0	0	8203	559825	0	0
2024-10-01 22:19:47			0	38057	0	0	0	22379	20940	161212	26748	1055902	46382	108231	0	0	8202	560598	0	0
2024-10-01 22:20:47			0	38078	0	0	0	22392	20930	161140	26703	1055972	46392	108236	0	0	8203	559794	0	0
2024-10-01 22:21:47			0	38077	0	0	0	22384	20940	161100	27206	1055928	46382	108233	0	0	8203	559803	0	0
2024-10-01 22:22:47			0	38102	0	0	0	22402	20940	161044	26750	1055990	46372	108240	0	0	8204	558810	0	0
2024-10-01 22:23:47			0	38098	0	0	0	22389	20950	160984	26942	1055946	46416	108235	0	0	8204	558938	0	0
2024-10-01 22:24:47			0	38112	0	0	0	22402	20960	161004	26870	1056080	46396	108240	0	0	8204	558352	0	0
2024-10-01 22:25:47			0	38095	0	0	0	22418	20950	160972	26873	1056079	46383	108246	0	0	8203	559057	0	0
2024-10-01 22:26:47			0	38089	0	0	0	22412	20950	160984	26733	1056079	46383	108244	0	0	8203	559295	0	0
2024-10-01 22:27:47			0	38108	0	0	0	22420	20960	161024	26923	1056133	46396	108247	0	0	8204	558510	0	0
2024-10-01 22:28:47			0	38124	0	0	0	22418	20970	160872	27057	1056142	46397	108246	0	0	8205	557845	0	0
2024-10-01 22:29:47			0	38153	0	0	0	22410	20970	160900	26611	1056151	46397	108243	0	0	8207	556696	0	0
2024-10-01 22:30:47			0	38133	0	0	0	22397	20970	160860	26759	1056124	46386	108238	0	0	8206	557488	0	0
2024-10-01 22:31:47			0	38149	0	0	0	22394	20970	160836	26923	1056018	46375	108237	0	0	8207	556855	0	0
2024-10-01 22:32:47			0	38137	0	0	0	22394	20980	160816	26726	1056053	46386	108237	0	0	8206	557299	0	0
2024-10-01 22:33:47			0	38158	0	0	0	22410	20970	160784	26668	1056089	46386	108243	0	0	8207	556498	0	0
2024-10-01 22:34:47			0	38157	0	0	0	22399	20970	160812	26762	1056089	46386	108239	0	0	8207	556538	0	0
2024-10-01 22:35:47			0	38165	0	0	0	22389	20970	160684	26783	1056098	46386	108235	0	0	8208	556221	0	0
2024-10-01 22:36:47			0	38171	0	0	0	22394	20970	160660	27010	1056124	46386	108237	0	0	8208	555984	0	0
2024-10-01 22:37:47			0	38178	0	0	0	22392	20970	160752	27121	1056062	46386	108236	0	0	8209	555707	0	0
2024-10-01 22:38:47			0	38192	0	0	0	22384	20970	160644	27152	1056035	46386	108233	0	0	8210	555154	0	0
2024-10-01 22:39:47			0	38207	0	0	0	22381	20960	160484	27045	1056053	46374	108232	0	0	8210	554592	0	0
2024-10-01 22:40:47			0	38203	0	0	0	22368	20970	160564	26821	1056115	46386	108227	0	0	8210	554719	0	0
2024-10-01 22:41:47			0	38223	0	0	0	22366	20970	160484	26840	1056035	46386	108226	0	0	8212	553930	0	0
2024-10-01 22:42:47			0	38183	0	0	0	22366	20950	160448	26984	1055955	46372	108226	0	0	8209	555571	0	0
2024-10-01 22:43:47			0	38212	0	0	0	22361	20960	160568	27060	1055947	46352	108224	0	0	8211	554395	0	0
2024-10-01 22:44:47			0	38209	0	0	0	22358	20960	160608	27050	1055964	46351	108223	0	0	8211	554513	0	0
2024-10-01 22:45:47			0	38217	0	0	0	22358	20950	160556	26857	1055955	46372	108223	0	0	8211	554228	0	0
2024-10-01 22:46:47			0	38212	0	0	0	22361	20950	160560	27121	1055928	46372	108224	0	0	8211	554425	0	0
2024-10-01 22:47:47			0	38196	0	0	0	22361	20950	160632	27097	1055946	46383	108224	0	0	8210	555057	0	0
2024-10-01 22:48:47			0	38193	0	0	0	22350	20950	160592	27027	1055848	46383	108220	0	0	8210	555176	0	0
2024-10-01 22:49:47			0	38192	0	0	0	22332	20950	160540	27255	1055902	46361	108213	0	0	8210	555215	0	0
2024-10-01 22:50:47			0	38205	0	0	0	22335	20930	160536	26963	1055919	46370	108214	0	0	8211	554763	0	0
2024-10-01 22:51:47			0	38196	0	0	0	22322	20940	160516	27190	1055875	46371	108209	0	0	8211	555088	0	0
2024-10-01 22:52:47			0	38192	0	0	0	22322	20930	160640	27163	1055893	46359	108209	0	0	8210	555277	0	0
2024-10-01 22:53:47			0	38189	0	0	0	22316	20930	160584	27074	1055830	46359	108207	0	0	8210	555396	0	0
2024-10-01 22:54:47			0	38177	0	0	0	22298	20920	160520	27116	1055742	46370	108200	0	0	8210	555901	0	0
2024-10-01 22:55:47			0	38184	0	0	0	22293	20930	160608	26948	1055697	46359	108198	0	0	8210	555593	0	0
2024-10-01 22:56:47			0	38185	0	0	0	22283	20910	160552	27379	1055671	46357	108194	0	0	8211	555615	0	0
2024-10-01 22:57:47			0	38183	0	0	0	22275	20910	160568	27086	1055741	46357	108191	0	0	8211	555694	0	0
2024-10-01 22:58:47			0	38214	0	0	0	22259	20900	160624	27029	1055706	46357	108185	0	0	8213	554500	0	0
2024-10-01 22:59:47			0	38208	0	0	0	22254	20890	160440	26852	1055582	46333	108183	0	0	8212	554768	0	0
2024-10-01 23:00:47			0	38224	0	0	0	22257	20900	160500	26935	1055564	46356	108184	0	0	8213	554105	0	0
2024-10-01 23:01:47			0	38244	0	0	0	22241	20890	160440	26889	1055573	46343	108178	0	0	8215	553347	0	0
2024-10-01 23:02:47			0	38250	0	0	0	22225	20880	160264	27026	1055484	46333	108172	0	0	8215	553141	0	0
2024-10-01 23:03:47			0	38254	0	0	0	22231	20870	160448	26963	1055466	46332	108174	0	0	8215	553014	0	0
2024-10-01 23:04:47			0	38243	0	0	0	22231	20860	160488	26863	1055413	46363	108174	0	0	8215	553478	0	0
2024-10-01 23:05:47			0	38237	0	0	0	22220	20860	160496	27187	1055439	46363	108170	0	0	8214	553715	0	0
2024-10-01 23:06:47			0	38244	0	0	0	22233	20850	160468	27090	1055404	46351	108175	0	0	8215	553469	0	0
2024-10-01 23:07:47			0	38240	0	0	0	22223	20840	160500	27112	1055439	46350	108171	0	0	8214	553658	0	0
2024-10-01 23:08:47			0	38248	0	0	0	22225	20840	160564	27254	1055324	46361	108172	0	0	8215	553342	0	0
2024-10-01 23:09:47			0	38252	0	0	0	22223	20830	160412	26878	1055368	46360	108171	0	0	8215	553215	0	0
2024-10-01 23:10:47			0	38257	0	0	0	22212	20840	160528	27024	1055359	46361	108167	0	0	8216	552987	0	0
2024-10-01 23:11:47			0	38265	0	0	0	22223	20830	160496	26661	1055314	46360	108171	0	0	8216	552703	0	0
2024-10-01 23:12:47			0	38240	0	0	0	22228	20820	160444	27253	1055332	46348	108173	0	0	8214	553719	0	0
2024-10-01 23:13:47			0	38253	0	0	0	22223	20820	160448	26909	1055332	46359	108171	0	0	8215	553206	0	0
2024-10-01 23:14:47			0	38267	0	0	0	22231	20820	160456	27170	1055350	46347	108174	0	0	8216	552654	0	0
2024-10-01 23:15:47			0	38267	0	0	0	22225	20810	160448	26975	1055279	46369	108172	0	0	8216	552685	0	0
2024-10-01 23:16:47			0	38280	0	0	0	22218	20810	160416	27010	1055279	46358	108169	0	0	8217	552173	0	0
2024-10-01 23:17:47			0	38280	0	0	0	22215	20810	160392	27218	1055332	46358	108168	0	0	8217	552173	0	0
2024-10-01 23:18:47			0	38268	0	0	0	22220	20810	160424	27043	1055332	46358	108170	0	0	8216	552645	0	0
2024-10-01 23:19:47			0	38295	0	0	0	22212	20810	160472	26781	1055279	46358	108167	0	0	8218	551582	0	0
2024-10-01 23:20:47			0	38255	0	0	0	22212	20800	160376	26894	1055261	46356	108167	0	0	8215	553189	0	0
2024-10-01 23:21:47			0	38256	0	0	0	22212	20810	160552	27128	1055252	46358	108167	0	0	8215	553119	0	0
2024-10-01 23:22:47			0	38230	0	0	0	22197	20780	160476	27126	1055260	46355	108161	0	0	8214	554237	0	0
2024-10-01 23:23:47			0	38243	0	0	0	22202	20800	160556	27045	1055243	46346	108163	0	0	8215	553662	0	0
2024-10-01 23:24:47			0	38233	0	0	0	22205	20780	160592	27090	1055198	46365	108164	0	0	8214	554118	0	0
2024-10-01 23:25:47			0	38248	0	0	0	22202	20790	160488	26986	1055172	46356	108163	0	0	8215	553495	0	0
2024-10-01 23:26:47			0	38229	0	0	0	22192	20780	160628	27218	1055181	46355	108159	0	0	8214	554276	0	0
2024-10-01 23:27:47			0	38231	0	0	0	22205	20780	160540	27043	1055207	46366	108164	0	0	8214	554197	0	0
2024-10-01 23:28:47			0	38240	0	0	0	22192	20780	160504	27194	1055092	46343	108159	0	0	8215	553842	0	0
2024-10-01 23:29:47			0	38261	0	0	0	22199	20770	160596	27008	1055163	46354	108162	0	0	8216	553044	0	0
2024-10-01 23:30:47			0	38238	0	0	0	22199	20780	160580	27046	1055145	46365	108162	0	0	8214	553921	0	0
2024-10-01 23:31:47			0	38234	0	0	0	22207	20780	160716	27180	1055145	46354	108165	0	0	8214	554079	0	0
2024-10-01 23:32:47			0	38236	0	0	0	22194	20770	160628	27062	1055127	46354	108160	0	0	8214	554030	0	0
2024-10-01 23:33:47			0	38219	0	0	0	22186	20770	160492	27034	1055101	46354	108157	0	0	8214	554702	0	0
2024-10-01 23:34:47			0	38224	0	0	0	22186	20770	160616	27085	1055101	46354	108157	0	0	8214	554504	0	0
2024-10-01 23:35:47			0	38238	0	0	0	22176	20770	160620	27166	1055189	46365	108153	0	0	8215	553952	0	0
2024-10-01 23:36:47			0	38220	0	0	0	22176	20770	160640	27105	1055074	46333	108153	0	0	8214	554662	0	0
2024-10-01 23:37:47			0	38211	0	0	0	22186	20760	160624	27268	1055065	46353	108157	0	0	8213	555049	0	0
2024-10-01 23:38:47			0	38196	0	0	0	22171	20760	160708	26960	1055038	46342	108151	0	0	8212	555642	0	0
2024-10-01 23:39:47			0	38213	0	0	0	22171	20750	160648	27175	1055065	46351	108151	0	0	8213	555000	0	0
2024-10-01 23:40:47			0	38192	0	0	0	22179	20750	160708	27041	1055074	46341	108154	0	0	8212	555831	0	0
2024-10-01 23:41:47			0	38189	0	0	0	22179	20760	160796	27133	1055030	46363	108154	0	0	8212	555919	0	0
2024-10-01 23:42:47			0	38177	0	0	0	22171	20740	160780	26928	1055003	46351	108151	0	0	8211	556455	0	0
2024-10-01 23:43:47			0	38180	0	0	0	22158	20760	160836	26930	1055030	46363	108146	0	0	8212	556275	0	0
2024-10-01 23:44:47			0	38180	0	0	0	22155	20760	160800	27126	1055003	46363	108145	0	0	8212	556275	0	0
2024-10-01 23:45:47			0	38167	0	0	0	22158	20740	160864	27317	1055029	46362	108146	0	0	8211	556851	0	0
2024-10-01 23:46:47			0	38173	0	0	0	22161	20750	160860	27010	1054994	46331	108147	0	0	8211	556583	0	0
2024-10-01 23:47:47			0	38156	0	0	0	22155	20740	160860	27196	1054887	46339	108145	0	0	8210	557287	0	0
2024-10-01 23:48:47			0	38149	0	0	0	22148	20740	160868	26963	1054923	46362	108142	0	0	8210	557565	0	0
2024-10-01 23:49:47			0	38147	0	0	0	22137	20730	160900	27215	1054905	46339	108138	0	0	8210	557675	0	0
2024-10-01 23:50:47			0	38143	0	0	0	22135	20730	160960	26573	1054932	46350	108137	0	0	8210	557833	0	0
2024-10-01 23:51:47			0	38131	0	0	0	22135	20730	160936	27345	1054932	46339	108137	0	0	8209	558309	0	0
2024-10-01 23:52:47			0	38117	0	0	0	22124	20720	161036	26802	1054807	46349	108133	0	0	8208	558896	0	0
2024-10-01 23:53:47			0	38109	0	0	0	22114	20730	161024	27003	1054870	46338	108129	0	0	8208	559183	0	0
2024-10-01 23:54:47			0	38100	0	0	0	22111	20720	161076	27251	1054861	46349	108128	0	0	8208	559571	0	0
2024-10-01 23:55:47			0	38088	0	0	0	22111	20720	161044	26975	1054825	46337	108128	0	0	8207	560048	0	0
2024-10-01 23:56:47			0	38101	0	0	0	22109	20720	161132	27286	1054825	46348	108127	0	0	8208	559531	0	0
2024-10-01 23:57:47			0	38110	0	0	0	22103	20720	161176	27232	1054772	46327	108125	0	0	8208	559174	0	0
2024-10-01 23:58:47			0	38104	0	0	0	22106	20700	161208	27154	1054745	46347	108126	0	0	8208	559474	0	0
2024-10-01 23:59:47			0	38095	0	0	0	22103	20710	161144	27102	1054780	46347	108125	0	0	8207	559801	0	0
2024-10-02 00:00:47			0	38105	0	0	0	22103	20710	161156	27140	1054790	46336	108125	0	0	8208	559403	0	0
2024-10-02 00:01:47			0	38096	0	0	0	22101	20700	161168	27123	1054718	46347	108124	0	0	8207	559792	0	0
2024-10-02 00:02:47			0	38104	0	0	0	22111	20700	161120	27062	1054771	46336	108128	0	0	8208	559474	0	0
2024-10-02 00:03:47			0	38113	0	0	0	22103	20700	161116	27067	1054745	46336	108125	0	0	8208	559117	0	0
2024-10-02 00:04:47			0	38087	0	0	0	22101	20700	161140	27066	1054665	46358	108124	0	0	8207	560150	0	0
2024-10-02 00:05:47			0	38099	0	0	0	22093	20690	161040	27203	1054700	46356	108121	0	0	8208	559704	0	0
2024-10-02 00:06:47			0	38112	0	0	0	22090	20690	161016	26965	1054620	46345	108120	0	0	8209	559187	0	0
2024-10-02 00:07:47			0	38094	0	0	0	22088	20700	161056	27157	1054709	46335	108119	0	0	8208	559871	0	0
2024-10-02 00:08:47			0	38121	0	0	0	22077	20690	161056	27105	1054638	46334	108115	0	0	8209	558830	0	0
2024-10-02 00:09:47			0	38108	0	0	0	22072	20690	161084	26628	1054691	46324	108113	0	0	8209	559346	0	0
2024-10-02 00:10:47			0	38119	0	0	0	22070	20680	161044	26923	1054629	46333	108112	0	0	8209	558940	0	0
2024-10-02 00:11:47			0	38125	0	0	0	22070	20670	161032	27118	1054691	46354	108112	0	0	8210	558733	0	0
2024-10-02 00:12:47			0	38128	0	0	0	22070	20690	160968	27015	1054665	46356	108112	0	0	8210	558552	0	0
2024-10-02 00:13:47			0	38129	0	0	0	22072	20670	161052	27152	1054611	46322	108113	0	0	8210	558574	0	0
2024-10-02 00:14:47			0	38136	0	0	0	22083	20670	161084	27268	1054585	46343	108117	0	0	8210	558296	0	0
2024-10-02 00:15:47			0	38139	0	0	0	22088	20670	160988	27112	1054664	46322	108119	0	0	8210	558177	0	0
2024-10-02 00:16:47			0	38134	0	0	0	22085	20670	161060	27244	1054629	46343	108118	0	0	8210	558376	0	0
2024-10-02 00:17:47			0	38144	0	0	0	22093	20670	161016	26970	1054656	46343	108121	0	0	8210	557979	0	0
2024-10-02 00:18:47			0	38153	0	0	0	22103	20670	161000	27147	1054611	46343	108125	0	0	8211	557622	0	0
2024-10-02 00:19:47			0	38169	0	0	0	22093	20670	160988	27071	1054638	46343	108121	0	0	8212	556988	0	0
2024-10-02 00:20:47			0	38166	0	0	0	22083	20680	160864	26830	1054647	46344	108117	0	0	8212	557076	0	0
2024-10-02 00:21:47			0	38171	0	0	0	22093	20670	160776	27031	1054638	46343	108121	0	0	8212	556909	0	0
2024-10-02 00:22:47			0	38186	0	0	0	22088	20670	160876	26854	1054664	46343	108119	0	0	8213	556315	0	0
2024-10-02 00:23:47			0	38181	0	0	0	22088	20670	160844	27197	1054638	46333	108119	0	0	8213	556513	0	0
2024-10-02 00:24:47			0	38186	0	0	0	22085	20670	160820	27015	1054602	46322	108118	0	0	8213	556315	0	0
2024-10-02 00:25:47			0	38211	0	0	0	22085	20670	160704	27074	1054629	46343	108118	0	0	8214	555325	0	0
2024-10-02 00:26:47			0	38218	0	0	0	22090	20670	160808	26894	1054585	46354	108120	0	0	8215	555049	0	0
2024-10-02 00:27:47			0	38219	0	0	0	22096	20670	160720	27038	1054638	46333	108122	0	0	8215	555009	0	0
2024-10-02 00:28:47			0	38197	0	0	0	22088	20680	160696	27097	1054620	46344	108119	0	0	8214	555849	0	0
2024-10-02 00:29:47			0	38228	0	0	0	22085	20670	160624	27244	1054611	46343	108118	0	0	8215	554653	0	0
2024-10-02 00:30:47			0	38220	0	0	0	22080	20660	160668	26889	1054567	46342	108116	0	0	8215	555000	0	0
2024-10-02 00:31:47			0	38229	0	0	0	22077	20660	160672	27059	1054558	46332	108115	0	0	8215	554644	0	0
2024-10-02 00:32:47			0	38229	0	0	0	22083	20660	160536	27104	1054558	46342	108117	0	0	8215	554644	0	0
2024-10-02 00:33:47			0	38234	0	0	0	22093	20660	160488	27199	1054620	46332	108121	0	0	8216	554447	0	0
2024-10-02 00:34:47			0	38256	0	0	0	22103	20660	160464	27232	1054558	46342	108125	0	0	8217	553578	0	0
2024-10-02 00:35:47			0	38269	0	0	0	22103	20670	160464	27161	1054664	46322	108125	0	0	8217	553035	0	0
2024-10-02 00:36:47			0	38290	0	0	0	22111	20670	160412	27111	1054629	46365	108128	0	0	8219	552207	0	0
2024-10-02 00:37:47			0	38302	0	0	0	22119	20680	160340	27067	1054673	46355	108131	0	0	8219	551703	0	0
2024-10-02 00:38:47			0	38321	0	0	0	22122	20660	160232	27147	1054700	46364	108132	0	0	8220	551016	0	0
2024-10-02 00:39:47			0	38334	0	0	0	22119	20670	160192	27204	1054718	46354	108131	0	0	8221	550474	0	0
2024-10-02 00:40:47			0	38340	0	0	0	22129	20690	160284	26996	1054771	46345	108135	0	0	8221	550177	0	0
2024-10-02 00:41:47			0	38338	0	0	0	22135	20680	160156	27242	1054806	46355	108137	0	0	8221	550287	0	0
2024-10-02 00:42:47			0	38342	0	0	0	22132	20680	160144	26955	1054709	46344	108136	0	0	8221	550129	0	0
2024-10-02 00:43:47			0	38363	0	0	0	22140	20690	160064	27121	1054780	46367	108139	0	0	8222	549274	0	0
2024-10-02 00:44:47			0	38381	0	0	0	22127	20690	160088	26932	1054798	46367	108134	0	0	8224	548567	0	0
2024-10-02 00:45:47			0	38391	0	0	0	22140	20700	159888	27218	1054842	46346	108139	0	0	8224	548144	0	0
2024-10-02 00:46:47			0	38402	0	0	0	22140	20690	160084	26972	1054780	46356	108139	0	0	8225	547743	0	0
2024-10-02 00:47:47			0	38404	0	0	0	22135	20690	159844	27516	1054833	46356	108137	0	0	8225	547665	0	0
2024-10-02 00:48:47			0	38406	0	0	0	22137	20690	159832	27116	1054807	46367	108138	0	0	8225	547586	0	0
2024-10-02 00:49:47			0	38419	0	0	0	22132	20700	159820	26941	1054816	46368	108136	0	0	8226	547046	0	0
2024-10-02 00:50:47			0	38433	0	0	0	22140	20700	159824	27190	1054789	46368	108139	0	0	8227	546498	0	0
2024-10-02 00:51:47			0	38439	0	0	0	22127	20700	159856	27324	1054842	46357	108134	0	0	8227	546263	0	0
2024-10-02 00:52:47			0	38427	0	0	0	22124	20700	159816	27239	1054798	46347	108133	0	0	8226	546733	0	0
2024-10-02 00:53:47			0	38452	0	0	0	22127	20710	159724	26731	1054833	46347	108134	0	0	8228	545724	0	0
2024-10-02 00:54:47			0	38450	0	0	0	22122	20700	159800	27272	1054878	46358	108132	0	0	8228	545833	0	0
2024-10-02 00:55:47			0	38445	0	0	0	22129	20700	159788	26993	1054816	46335	108135	0	0	8227	546028	0	0
2024-10-02 00:56:47			0	38467	0	0	0	22122	20710	159652	27038	1054843	46347	108132	0	0	8229	545138	0	0
2024-10-02 00:57:47			0	38467	0	0	0	22127	20710	159720	27150	1054833	46347	108134	0	0	8229	545138	0	0
2024-10-02 00:58:47			0	38468	0	0	0	22132	20700	159700	26946	1054825	46347	108136	0	0	8229	545129	0	0
2024-10-02 00:59:47			0	38440	0	0	0	22122	20700	159624	27138	1054851	46347	108132	0	0	8227	546224	0	0
2024-10-02 01:00:47			0	38469	0	0	0	22124	20710	159732	27199	1054807	46347	108133	0	0	8229	545059	0	0
2024-10-02 01:01:47			0	38461	0	0	0	22127	20710	159660	26847	1054887	46347	108134	0	0	8228	545372	0	0
2024-10-02 01:02:47			0	38466	0	0	0	22127	20710	159672	27071	1054860	46358	108134	0	0	8229	545177	0	0
2024-10-02 01:03:47			0	38460	0	0	0	22129	20700	159608	27248	1054851	46336	108135	0	0	8228	545442	0	0
2024-10-02 01:04:47			0	38467	0	0	0	22129	20710	159700	27145	1054887	46358	108135	0	0	8229	545138	0	0
2024-10-02 01:05:47			0	38496	0	0	0	22127	20710	159580	27230	1054816	46358	108134	0	0	8230	544005	0	0
2024-10-02 01:06:47			0	38479	0	0	0	22124	20700	159692	27093	1054825	46358	108133	0	0	8229	544699	0	0
2024-10-02 01:07:47			0	38475	0	0	0	22135	20710	159592	27256	1054833	46347	108137	0	0	8229	544825	0	0
2024-10-02 01:08:47			0	38458	0	0	0	22129	20710	159632	27057	1054807	46347	108135	0	0	8228	545490	0	0
2024-10-02 01:09:47			0	38464	0	0	0	22122	20710	159720	26975	1054807	46347	108132	0	0	8229	545255	0	0
2024-10-02 01:10:47			0	38459	0	0	0	22124	20700	159644	26986	1054825	46347	108133	0	0	8228	545481	0	0
2024-10-02 01:11:47			0	38471	0	0	0	22127	20710	159568	26906	1054887	46347	108134	0	0	8229	544981	0	0
2024-10-02 01:12:47			0	38459	0	0	0	22127	20710	159656	27079	1054807	46347	108134	0	0	8228	545450	0	0
2024-10-02 01:13:47			0	38477	0	0	0	22122	20700	159600	26887	1054798	46336	108132	0	0	8229	544777	0	0
2024-10-02 01:14:47			0	38451	0	0	0	22127	20700	159652	26804	1054878	46347	108134	0	0	8228	545794	0	0
2024-10-02 01:15:47			0	38458	0	0	0	22127	20710	159548	26901	1054727	46347	108134	0	0	8228	545490	0	0
2024-10-02 01:16:47			0	38481	0	0	0	22124	20700	159604	26802	1054878	46347	108133	0	0	8230	544621	0	0
2024-10-02 01:17:47			0	38474	0	0	0	22135	20700	159608	27133	1054878	46347	108137	0	0	8229	544894	0	0
2024-10-02 01:18:47			0	38458	0	0	0	22129	20700	159536	26760	1054842	46346	108135	0	0	8228	545520	0	0
2024-10-02 01:19:47			0	38500	0	0	0	22116	20710	159548	27197	1054833	46347	108130	0	0	8231	543848	0	0
2024-10-02 01:20:47			0	38499	0	0	0	22122	20710	159556	27102	1054807	46347	108132	0	0	8231	543887	0	0
2024-10-02 01:21:47			0	38485	0	0	0	22122	20710	159484	26909	1054860	46336	108132	0	0	8230	544434	0	0
2024-10-02 01:22:47			0	38490	0	0	0	22116	20700	159528	27185	1054851	46347	108130	0	0	8230	544269	0	0
2024-10-02 01:23:47			0	38486	0	0	0	22124	20710	159496	27012	1054833	46358	108133	0	0	8230	544395	0	0
2024-10-02 01:24:47			0	38495	0	0	0	22129	20700	159532	27050	1054816	46346	108135	0	0	8230	544074	0	0
2024-10-02 01:25:47			0	38486	0	0	0	22132	20700	159588	27000	1054816	46346	108136	0	0	8230	544425	0	0
2024-10-02 01:26:47			0	38496	0	0	0	22119	20700	159644	27190	1054816	46335	108131	0	0	8231	544035	0	0
2024-10-02 01:27:47			0	38480	0	0	0	22119	20700	159708	27410	1054762	46346	108131	0	0	8230	544660	0	0
2024-10-02 01:28:47			0	38460	0	0	0	22114	20690	159612	27249	1054780	46345	108129	0	0	8229	545472	0	0
2024-10-02 01:29:47			0	38451	0	0	0	22109	20690	159708	27052	1054753	46345	108127	0	0	8228	545824	0	0
2024-10-02 01:30:47			0	38478	0	0	0	22124	20700	159700	27286	1054816	46335	108133	0	0	8229	544738	0	0
2024-10-02 01:31:47			0	38461	0	0	0	22116	20700	159672	27241	1054745	46326	108130	0	0	8229	545402	0	0
2024-10-02 01:32:47			0	38464	0	0	0	22122	20690	159632	27249	1054807	46356	108132	0	0	8229	545315	0	0
2024-10-02 01:33:47			0	38444	0	0	0	22111	20690	159756	27066	1054798	46345	108128	0	0	8228	546098	0	0
2024-10-02 01:34:47			0	38469	0	0	0	22119	20690	159596	26968	1054727	46334	108131	0	0	8229	545120	0	0
2024-10-02 01:35:47			0	38479	0	0	0	22109	20690	159656	26885	1054824	46345	108127	0	0	8230	544729	0	0
2024-10-02 01:36:47			0	38459	0	0	0	22119	20700	159560	27239	1054762	46357	108131	0	0	8228	545481	0	0
2024-10-02 01:37:47			0	38470	0	0	0	22114	20700	159556	27078	1054869	46335	108129	0	0	8229	545050	0	0
2024-10-02 01:38:47			0	38476	0	0	0	22114	20690	159600	27043	1054753	46345	108129	0	0	8229	544846	0	0
2024-10-02 01:39:47			0	38467	0	0	0	22119	20700	159632	26981	1054762	46346	108131	0	0	8229	545168	0	0
2024-10-02 01:40:47			0	38458	0	0	0	22129	20690	159604	26762	1054798	46345	108135	0	0	8228	545550	0	0
2024-10-02 01:41:47			0	38484	0	0	0	22119	20690	159728	26797	1054753	46345	108131	0	0	8230	544533	0	0
2024-10-02 01:42:47			0	38471	0	0	0	22116	20690	159620	27128	1054807	46356	108130	0	0	8229	545042	0	0
2024-10-02 01:43:47			0	38463	0	0	0	22119	20700	159572	26883	1054789	46357	108131	0	0	8229	545324	0	0
2024-10-02 01:44:47			0	38478	0	0	0	22124	20700	159660	27173	1054816	46346	108133	0	0	8229	544738	0	0
2024-10-02 01:45:47			0	38468	0	0	0	22114	20700	159608	26892	1054842	46357	108129	0	0	8229	545129	0	0
2024-10-02 01:46:47			0	38476	0	0	0	22116	20700	159596	27062	1054789	46346	108130	0	0	8229	544816	0	0
2024-10-02 01:47:47			0	38468	0	0	0	22119	20700	159564	26838	1054789	46335	108131	0	0	8229	545129	0	0
2024-10-02 01:48:47			0	38470	0	0	0	22119	20690	159556	27118	1054780	46345	108131	0	0	8229	545081	0	0
2024-10-02 01:49:47			0	38461	0	0	0	22119	20690	159652	27060	1054753	46345	108131	0	0	8228	545433	0	0
2024-10-02 01:50:47			0	38459	0	0	0	22124	20690	159664	26989	1054745	46334	108133	0	0	8228	545511	0	0
2024-10-02 01:51:47			0	38459	0	0	0	22122	20690	159700	27078	1054807	46356	108132	0	0	8228	545511	0	0
2024-10-02 01:52:47			0	38460	0	0	0	22124	20690	159664	26852	1054807	46356	108133	0	0	8228	545472	0	0
2024-10-02 01:53:47			0	38438	0	0	0	22122	20690	159708	26778	1054886	46345	108132	0	0	8227	546333	0	0
2024-10-02 01:54:47			0	38444	0	0	0	22122	20680	159752	27071	1054709	46333	108132	0	0	8227	546128	0	0
2024-10-02 01:55:47			0	38436	0	0	0	22124	20700	159768	26731	1054816	46346	108133	0	0	8227	546381	0	0
2024-10-02 01:56:47			0	38433	0	0	0	22122	20700	159904	27339	1054816	46346	108132	0	0	8227	546498	0	0
2024-10-02 01:57:47			0	38432	0	0	0	22119	20700	159876	27216	1054825	46347	108131	0	0	8227	546537	0	0
2024-10-02 01:58:47			0	38432	0	0	0	22111	20690	159836	27069	1054807	46324	108128	0	0	8227	546568	0	0
2024-10-02 01:59:47			0	38417	0	0	0	22116	20700	159784	27041	1054825	46336	108130	0	0	8226	547125	0	0
2024-10-02 02:00:47			0	38407	0	0	0	22116	20690	159940	26949	1054798	46345	108130	0	0	8225	547547	0	0
2024-10-02 02:01:47			0	38416	0	0	0	22111	20690	159924	27234	1054807	46345	108128	0	0	8226	547194	0	0
2024-10-02 02:02:47			0	38394	0	0	0	22111	20700	159848	27163	1054789	46346	108128	0	0	8225	548026	0	0
2024-10-02 02:03:47			0	38390	0	0	0	22119	20700	159916	26795	1054771	46336	108131	0	0	8224	548183	0	0
2024-10-02 02:04:47			0	38391	0	0	0	22111	20690	159836	26802	1054727	46345	108128	0	0	8225	548174	0	0
2024-10-02 02:05:47			0	38395	0	0	0	22111	20690	159804	27069	1054745	46345	108128	0	0	8225	548018	0	0
2024-10-02 02:06:47			0	38403	0	0	0	22109	20690	159864	27168	1054771	46345	108127	0	0	8225	547704	0	0
2024-10-02 02:07:47			0	38380	0	0	0	22114	20690	159824	27263	1054745	46345	108129	0	0	8224	548606	0	0
2024-10-02 02:08:47			0	38386	0	0	0	22111	20690	159960	27170	1054780	46334	108128	0	0	8224	548371	0	0
2024-10-02 02:09:47			0	38377	0	0	0	22114	20690	159956	26918	1054727	46345	108129	0	0	8224	548724	0	0
2024-10-02 02:10:47			0	38394	0	0	0	22106	20690	160012	26817	1054718	46356	108126	0	0	8225	548057	0	0
2024-10-02 02:11:47			0	38384	0	0	0	22098	20690	159980	27345	1054745	46356	108123	0	0	8224	548449	0	0
2024-10-02 02:12:47			0	38429	0	0	0	22098	20690	159844	27289	1054691	46334	108123	0	0	8227	546685	0	0
2024-10-02 02:13:47			0	38425	0	0	0	22098	20690	159816	27069	1054745	46356	108123	0	0	8227	546842	0	0
2024-10-02 02:14:47			0	38433	0	0	0	22093	20680	159776	27008	1054736	46344	108121	0	0	8227	546559	0	0
2024-10-02 02:15:47			0	38455	0	0	0	22088	20680	159636	27355	1054727	46333	108119	0	0	8229	545697	0	0
2024-10-02 02:16:47			0	38475	0	0	0	22090	20690	159620	27294	1054718	46345	108120	0	0	8230	544885	0	0
2024-10-02 02:17:47			0	38501	0	0	0	22096	20680	159588	27317	1054700	46344	108122	0	0	8231	543900	0	0
2024-10-02 02:18:47			0	38519	0	0	0	22093	20670	159496	27249	1054664	46333	108121	0	0	8232	543227	0	0
2024-10-02 02:19:47			0	38521	0	0	0	22088	20680	159424	26812	1054647	46333	108119	0	0	8232	543119	0	0
2024-10-02 02:20:47			0	38530	0	0	0	22096	20670	159508	27289	1054664	46333	108122	0	0	8233	542798	0	0
2024-10-02 02:21:47			0	38543	0	0	0	22085	20680	159376	27235	1054647	46333	108118	0	0	8234	542261	0	0
2024-10-02 02:22:47			0	38531	0	0	0	22090	20680	159428	27307	1054673	46344	108120	0	0	8233	542729	0	0
2024-10-02 02:23:47			0	38528	0	0	0	22088	20670	159364	27310	1054629	46354	108119	0	0	8233	542876	0	0
2024-10-02 02:24:47			0	38550	0	0	0	22088	20680	159312	27364	1054594	46333	108119	0	0	8234	541989	0	0
2024-10-02 02:25:47			0	38538	0	0	0	22088	20670	159308	27223	1054664	46333	108119	0	0	8233	542486	0	0
2024-10-02 02:26:47			0	38539	0	0	0	22077	20670	159372	26901	1054656	46343	108115	0	0	8234	542447	0	0
2024-10-02 02:27:47			0	38536	0	0	0	22080	20680	159400	27261	1054727	46333	108116	0	0	8233	542534	0	0
2024-10-02 02:28:47			0	38522	0	0	0	22088	20670	159372	27111	1054664	46343	108119	0	0	8232	543110	0	0
2024-10-02 02:29:47			0	38507	0	0	0	22083	20670	159468	27072	1054656	46343	108117	0	0	8232	543696	0	0
2024-10-02 02:30:47			0	38497	0	0	0	22088	20670	159540	27213	1054664	46333	108119	0	0	8231	544086	0	0
2024-10-02 02:31:47			0	38466	0	0	0	22090	20670	159656	27260	1054638	46343	108120	0	0	8229	545297	0	0
2024-10-02 02:32:47			0	38453	0	0	0	22090	20660	159792	27095	1054673	46332	108120	0	0	8228	545836	0	0
2024-10-02 02:33:47			0	38438	0	0	0	22090	20660	159796	27170	1054647	46342	108120	0	0	8227	546423	0	0
2024-10-02 02:34:47			0	38419	0	0	0	22085	20670	159792	26878	1054691	46343	108118	0	0	8227	547137	0	0
2024-10-02 02:35:47			0	38419	0	0	0	22088	20670	159896	27289	1054656	46343	108119	0	0	8226	547137	0	0
2024-10-02 02:36:47			0	38422	0	0	0	22088	20660	159820	27043	1054593	46321	108119	0	0	8227	547050	0	0
2024-10-02 02:37:47			0	38418	0	0	0	22080	20670	159968	27121	1054656	46333	108116	0	0	8227	547176	0	0
2024-10-02 02:38:47			0	38394	0	0	0	22083	20660	159920	27367	1054593	46353	108117	0	0	8225	548148	0	0
2024-10-02 02:39:47			0	38389	0	0	0	22077	20660	159996	27118	1054585	46332	108115	0	0	8225	548344	0	0
2024-10-02 02:40:47			0	38390	0	0	0	22085	20660	159976	27307	1054540	46342	108118	0	0	8225	548305	0	0
2024-10-02 02:41:47			0	38373	0	0	0	22088	20660	160028	27062	1054638	46342	108119	0	0	8224	548972	0	0
2024-10-02 02:42:47			0	38374	0	0	0	22085	20670	160136	27277	1054585	46354	108118	0	0	8224	548902	0	0
2024-10-02 02:43:47			0	38358	0	0	0	22085	20670	160024	27123	1054629	46343	108118	0	0	8223	549531	0	0
2024-10-02 02:44:47			0	38348	0	0	0	22080	20660	160112	27173	1054593	46342	108116	0	0	8222	549954	0	0
2024-10-02 02:45:47			0	38334	0	0	0	22085	20660	160196	26918	1054638	46332	108118	0	0	8221	550505	0	0
2024-10-02 02:46:47			0	38312	0	0	0	22085	20670	160324	27305	1054576	46343	108118	0	0	8220	551340	0	0
2024-10-02 02:47:47			0	38305	0	0	0	22085	20670	160328	27317	1054629	46354	108118	0	0	8220	551616	0	0
2024-10-02 02:48:47			0	38289	0	0	0	22088	20660	160396	26864	1054585	46342	108119	0	0	8219	552276	0	0
2024-10-02 02:49:47			0	38283	0	0	0	22080	20660	160356	27215	1054673	46353	108116	0	0	8219	552513	0	0
2024-10-02 02:50:47			0	38294	0	0	0	22085	20660	160396	27410	1054620	46332	108118	0	0	8219	552080	0	0
2024-10-02 02:51:47			0	38276	0	0	0	22077	20660	160432	27100	1054638	46342	108115	0	0	8218	552789	0	0
2024-10-02 02:52:47			0	38251	0	0	0	22077	20660	160444	26967	1054567	46342	108115	0	0	8217	553776	0	0
2024-10-02 02:53:47			0	38258	0	0	0	22064	20660	160484	26996	1054585	46342	108110	0	0	8217	553499	0	0
2024-10-02 02:54:47			0	38268	0	0	0	22070	20660	160528	27043	1054593	46321	108112	0	0	8218	553105	0	0
2024-10-02 02:55:47			0	38264	0	0	0	22077	20660	160544	27100	1054585	46342	108115	0	0	8218	553262	0	0
2024-10-02 02:56:47			0	38242	0	0	0	22080	20660	160560	27223	1054620	46353	108116	0	0	8216	554131	0	0
2024-10-02 02:57:47			0	38260	0	0	0	22067	20660	160708	26850	1054611	46332	108111	0	0	8217	553420	0	0
2024-10-02 02:58:47			0	38260	0	0	0	22064	20650	160576	27177	1054549	46341	108110	0	0	8217	553451	0	0
2024-10-02 02:59:47			0	38255	0	0	0	22064	20650	160568	27144	1054593	46341	108110	0	0	8217	553648	0	0
2024-10-02 03:00:47			0	38249	0	0	0	22064	20660	160580	27050	1054611	46332	108110	0	0	8217	553855	0	0
2024-10-02 03:01:47			0	38232	0	0	0	22067	20660	160584	27253	1054558	46342	108111	0	0	8216	554526	0	0
2024-10-02 03:02:47			0	38229	0	0	0	22067	20650	160620	26991	1054576	46352	108111	0	0	8216	554675	0	0
2024-10-02 03:03:47			0	38239	0	0	0	22067	20650	160624	27362	1054567	46331	108111	0	0	8216	554280	0	0
2024-10-02 03:04:47			0	38232	0	0	0	22059	20650	160536	27249	1054576	46341	108108	0	0	8216	554557	0	0
2024-10-02 03:05:47			0	38207	0	0	0	22062	20640	160676	26961	1054584	46330	108109	0	0	8214	555576	0	0
2024-10-02 03:06:47			0	38244	0	0	0	22064	20650	160660	27142	1054513	46331	108110	0	0	8217	554083	0	0
2024-10-02 03:07:47			0	38233	0	0	0	22059	20650	160792	27055	1054540	46341	108108	0	0	8216	554517	0	0
2024-10-02 03:08:47			0	38225	0	0	0	22067	20660	160700	27267	1054531	46342	108111	0	0	8215	554803	0	0
2024-10-02 03:09:47			0	38230	0	0	0	22070	20640	160792	27251	1054531	46351	108112	0	0	8216	554666	0	0
2024-10-02 03:10:47			0	38213	0	0	0	22062	20650	160664	27175	1054540	46320	108109	0	0	8215	555308	0	0
2024-10-02 03:11:47			0	38217	0	0	0	22072	20640	160708	27403	1054558	46330	108113	0	0	8215	555180	0	0
2024-10-02 03:12:47			0	38219	0	0	0	22070	20650	160744	27161	1054593	46341	108112	0	0	8215	555070	0	0
2024-10-02 03:13:47			0	38226	0	0	0	22072	20640	160864	27086	1054531	46340	108113	0	0	8215	554824	0	0
2024-10-02 03:14:47			0	38228	0	0	0	22072	20650	160816	27244	1054567	46341	108113	0	0	8215	554715	0	0
2024-10-02 03:15:47			0	38222	0	0	0	22080	20640	160720	27209	1054611	46340	108116	0	0	8215	554983	0	0
2024-10-02 03:16:47			0	38216	0	0	0	22075	20640	160680	27307	1054558	46340	108114	0	0	8215	555220	0	0
2024-10-02 03:17:47			0	38215	0	0	0	22080	20650	160736	27222	1054629	46341	108116	0	0	8215	555229	0	0
2024-10-02 03:18:47			0	38224	0	0	0	22083	20650	160712	27242	1054567	46341	108117	0	0	8215	554873	0	0
2024-10-02 03:19:47			0	38219	0	0	0	22083	20660	160824	26941	1054611	46332	108117	0	0	8215	555040	0	0
2024-10-02 03:20:47			0	38208	0	0	0	22085	20650	160720	27202	1054602	46341	108118	0	0	8214	555506	0	0
2024-10-02 03:21:47			0	38205	0	0	0	22083	20650	160684	27187	1054620	46352	108117	0	0	8214	555624	0	0
2024-10-02 03:22:47			0	38220	0	0	0	22075	20650	160704	27019	1054576	46320	108114	0	0	8215	555031	0	0
2024-10-02 03:23:47			0	38225	0	0	0	22072	20660	160784	26925	1054585	46342	108113	0	0	8215	554803	0	0
2024-10-02 03:24:47			0	38209	0	0	0	22077	20660	160724	26899	1054664	46342	108115	0	0	8214	555435	0	0
2024-10-02 03:25:47			0	38211	0	0	0	22080	20650	160760	26949	1054576	46331	108116	0	0	8214	555387	0	0
2024-10-02 03:26:47			0	38215	0	0	0	22080	20650	160772	27189	1054602	46331	108116	0	0	8215	555229	0	0
2024-10-02 03:27:47			0	38214	0	0	0	22083	20650	160736	26953	1054602	46341	108117	0	0	8214	555268	0	0
2024-10-02 03:28:47			0	38203	0	0	0	22080	20660	160720	27199	1054567	46342	108116	0	0	8214	555673	0	0
2024-10-02 03:29:47			0	38209	0	0	0	22077	20660	160716	26937	1054558	46332	108115	0	0	8214	555435	0	0
2024-10-02 03:30:47			0	38204	0	0	0	22062	20660	160760	26911	1054611	46332	108109	0	0	8214	555633	0	0
2024-10-02 03:31:47			0	38196	0	0	0	22067	20660	160756	26968	1054638	46342	108111	0	0	8214	555950	0	0
2024-10-02 03:32:47			0	38185	0	0	0	22070	20650	160740	27218	1054576	46341	108112	0	0	8213	556416	0	0
2024-10-02 03:33:47			0	38203	0	0	0	22070	20660	160840	27133	1054558	46353	108112	0	0	8214	555673	0	0
2024-10-02 03:34:47			0	38174	0	0	0	22075	20660	160856	27303	1054558	46332	108114	0	0	8212	556821	0	0
2024-10-02 03:35:47			0	38177	0	0	0	22075	20650	160812	27493	1054602	46331	108114	0	0	8212	556733	0	0
2024-10-02 03:36:47			0	38184	0	0	0	22075	20650	160896	27027	1054602	46331	108114	0	0	8213	556455	0	0
2024-10-02 03:37:47			0	38170	0	0	0	22077	20650	160972	27033	1054629	46331	108115	0	0	8212	557010	0	0
2024-10-02 03:38:47			0	38173	0	0	0	22077	20660	160948	27071	1054638	46342	108115	0	0	8212	556860	0	0
2024-10-02 03:39:47			0	38187	0	0	0	22080	20660	160856	27253	1054664	46353	108116	0	0	8213	556306	0	0
2024-10-02 03:40:47			0	38179	0	0	0	22080	20650	160936	27069	1054629	46341	108116	0	0	8212	556653	0	0
2024-10-02 03:41:47			0	38165	0	0	0	22077	20670	160940	27237	1054585	46365	108115	0	0	8212	557146	0	0
2024-10-02 03:42:47			0	38158	0	0	0	22080	20650	160956	26986	1054602	46341	108116	0	0	8211	557485	0	0
2024-10-02 03:43:47			0	38172	0	0	0	22080	20660	161036	27126	1054620	46342	108116	0	0	8212	556900	0	0
2024-10-02 03:44:47			0	38151	0	0	0	22080	20660	161096	27234	1054558	46342	108116	0	0	8211	557732	0	0
2024-10-02 03:45:47			0	38131	0	0	0	22075	20650	161124	27076	1054629	46352	108114	0	0	8210	558557	0	0
2024-10-02 03:46:47			0	38124	0	0	0	22083	20650	161128	27190	1054629	46331	108117	0	0	8209	558835	0	0
2024-10-02 03:47:47			0	38122	0	0	0	22077	20650	161052	27281	1054602	46341	108115	0	0	8209	558914	0	0
2024-10-02 03:48:47			0	38101	0	0	0	22075	20660	161036	27225	1054638	46342	108114	0	0	8208	559717	0	0
2024-10-02 03:49:47			0	38107	0	0	0	22077	20660	161100	26821	1054638	46342	108115	0	0	8208	559479	0	0
2024-10-02 03:50:47			0	38103	0	0	0	22083	20660	161184	26935	1054611	46332	108117	0	0	8208	559638	0	0
2024-10-02 03:51:47			0	38112	0	0	0	22083	20660	161016	27171	1054673	46332	108117	0	0	8209	559280	0	0
2024-10-02 03:52:47			0	38134	0	0	0	22083	20660	161120	27312	1054611	46353	108117	0	0	8210	558407	0	0
2024-10-02 03:53:47			0	38115	0	0	0	22088	20650	161044	27154	1054602	46341	108119	0	0	8209	559192	0	0
2024-10-02 03:54:47			0	38135	0	0	0	22083	20660	161064	27045	1054638	46342	108117	0	0	8210	558367	0	0
2024-10-02 03:55:47			0	38132	0	0	0	22093	20660	161052	27012	1054611	46342	108121	0	0	8210	558486	0	0
2024-10-02 03:56:47			0	38128	0	0	0	22090	20660	161028	26738	1054647	46342	108120	0	0	8209	558645	0	0
2024-10-02 03:57:47			0	38123	0	0	0	22085	20660	161040	27249	1054620	46332	108118	0	0	8209	558843	0	0
2024-10-02 03:58:47			0	38128	0	0	0	22083	20660	161080	27237	1054593	46353	108117	0	0	8209	558645	0	0
2024-10-02 03:59:47			0	38138	0	0	0	22083	20670	160964	27072	1054602	46322	108117	0	0	8210	558217	0	0
2024-10-02 04:00:47			0	38125	0	0	0	22088	20660	160988	26993	1054744	46332	108119	0	0	8209	558764	0	0
2024-10-02 04:01:47			0	38113	0	0	0	22077	20650	160992	27334	1054602	46331	108115	0	0	8209	559271	0	0
2024-10-02 04:02:47			0	38121	0	0	0	22083	20650	161000	27369	1054576	46352	108117	0	0	8209	558954	0	0
2024-10-02 04:03:47			0	38128	0	0	0	22083	20660	160980	26974	1054620	46353	108117	0	0	8209	558645	0	0
2024-10-02 04:04:47			0	38181	0	0	0	22085	20650	160784	26981	1054602	46341	108118	0	0	8212	556574	0	0
2024-10-02 04:05:47			0	38190	0	0	0	22080	20650	160824	27183	1054646	46341	108116	0	0	8213	556218	0	0
2024-10-02 04:06:47			0	38196	0	0	0	22083	20650	160896	27222	1054682	46331	108117	0	0	8213	555980	0	0
2024-10-02 04:07:47			0	38185	0	0	0	22083	20660	160844	27131	1054647	46332	108117	0	0	8213	556385	0	0
2024-10-02 04:08:47			0	38188	0	0	0	22080	20670	160816	26965	1054656	46343	108116	0	0	8213	556235	0	0
2024-10-02 04:09:47			0	38170	0	0	0	22090	20650	160780	27194	1054629	46341	108120	0	0	8212	557010	0	0
2024-10-02 04:10:47			0	38155	0	0	0	22080	20650	160972	26977	1054620	46331	108116	0	0	8211	557605	0	0
2024-10-02 04:11:47			0	38159	0	0	0	22075	20660	161028	27064	1054620	46342	108114	0	0	8211	557415	0	0
2024-10-02 04:12:47			0	38142	0	0	0	22085	20650	160944	27490	1054629	46331	108118	0	0	8210	558120	0	0
2024-10-02 04:13:47			0	38145	0	0	0	22077	20660	161068	27066	1054638	46332	108115	0	0	8211	557970	0	0
2024-10-02 04:14:47			0	38132	0	0	0	22075	20660	161056	27142	1054593	46353	108114	0	0	8210	558486	0	0
2024-10-02 04:15:47			0	38112	0	0	0	22072	20650	161084	27422	1054655	46341	108113	0	0	8209	559311	0	0
2024-10-02 04:16:47			0	38118	0	0	0	22077	20660	161108	26981	1054558	46332	108115	0	0	8209	559042	0	0
2024-10-02 04:17:47			0	38109	0	0	0	22083	20660	161152	27090	1054611	46342	108117	0	0	8208	559399	0	0
2024-10-02 04:18:47			0	38090	0	0	0	22077	20650	161120	27358	1054602	46341	108115	0	0	8207	560185	0	0
2024-10-02 04:19:47			0	38088	0	0	0	22083	20650	161276	27111	1054629	46341	108117	0	0	8207	560265	0	0
2024-10-02 04:20:47			0	38072	0	0	0	22070	20650	161164	27055	1054567	46331	108112	0	0	8206	560902	0	0
2024-10-02 04:21:47			0	38072	0	0	0	22075	20660	161328	27272	1054585	46342	108114	0	0	8206	560871	0	0
2024-10-02 04:22:47			0	38035	0	0	0	22067	20650	161356	27008	1054620	46352	108111	0	0	8204	562375	0	0
2024-10-02 04:23:47			0	38066	0	0	0	22070	20650	161324	27272	1054593	46341	108112	0	0	8206	561140	0	0
2024-10-02 04:24:47			0	38037	0	0	0	22062	20650	161376	27131	1054540	46341	108109	0	0	8204	562296	0	0
2024-10-02 04:25:47			0	38035	0	0	0	22067	20650	161512	27319	1054593	46331	108111	0	0	8204	562375	0	0
2024-10-02 04:26:47			0	38033	0	0	0	22070	20660	161464	27140	1054593	46342	108112	0	0	8204	562424	0	0
2024-10-02 04:27:47			0	38041	0	0	0	22080	20650	161500	27282	1054576	46331	108116	0	0	8204	562136	0	0
2024-10-02 04:28:47			0	38027	0	0	0	22070	20650	161463	27251	1054593	46331	108112	0	0	8204	562694	0	0
2024-10-02 04:29:47			0	38027	0	0	0	22054	20660	161555	26963	1054585	46342	108106	0	0	8204	562663	0	0
2024-10-02 04:30:47			0	38009	0	0	0	22051	20650	161563	27336	1054522	46320	108105	0	0	8203	563412	0	0
2024-10-02 04:31:47			0	37991	0	0	0	22054	20660	161635	27241	1054531	46342	108106	0	0	8202	564100	0	0
2024-10-02 04:32:47			0	37984	0	0	0	22054	20650	161667	27362	1054540	46341	108106	0	0	8201	564411	0	0
2024-10-02 04:33:47			0	37974	0	0	0	22051	20640	161723	26944	1054558	46340	108105	0	0	8201	564841	0	0
2024-10-02 04:34:47			0	37939	0	0	0	22051	20640	161879	27142	1054531	46330	108105	0	0	8199	566242	0	0
2024-10-02 04:35:47			0	37916	0	0	0	22041	20640	161915	26946	1054469	46318	108101	0	0	8198	567163	0	0
2024-10-02 04:36:47			0	37910	0	0	0	22046	20640	161855	27313	1054504	46330	108103	0	0	8197	567403	0	0
2024-10-02 04:37:47			0	37884	0	0	0	22041	20630	161915	27185	1054460	46350	108101	0	0	8196	568478	0	0
2024-10-02 04:38:47			0	37890	0	0	0	22038	20640	162079	26882	1054496	46339	108100	0	0	8196	568206	0	0
2024-10-02 04:39:47			0	37868	0	0	0	22036	20630	162059	27308	1054487	46339	108099	0	0	8195	569120	0	0
2024-10-02 04:40:47			0	37854	0	0	0	22059	20630	162187	27107	1054513	46339	108108	0	0	8194	569683	0	0
2024-10-02 04:41:47			0	37871	0	0	0	22051	20630	162075	27282	1054425	46338	108105	0	0	8195	569000	0	0
2024-10-02 04:42:47			0	37867	0	0	0	22038	20640	162111	26786	1054522	46350	108100	0	0	8195	569129	0	0
2024-10-02 04:43:47			0	37850	0	0	0	22036	20630	162247	26974	1054460	46339	108099	0	0	8194	569844	0	0
2024-10-02 04:44:47			0	37820	0	0	0	22044	20640	162435	27046	1054496	46350	108102	0	0	8192	571019	0	0
2024-10-02 04:45:47			0	37812	0	0	0	22044	20620	162359	27168	1054522	46349	108102	0	0	8191	571404	0	0
2024-10-02 04:46:47			0	37817	0	0	0	22046	20630	162423	26927	1054504	46338	108103	0	0	8192	571171	0	0
2024-10-02 04:47:47			0	37797	0	0	0	22062	20630	162355	26864	1054504	46349	108109	0	0	8190	571977	0	0
2024-10-02 04:48:47			0	37797	0	0	0	22051	20630	162415	27234	1054531	46317	108105	0	0	8190	571977	0	0
2024-10-02 04:49:47			0	37768	0	0	0	22051	20640	162431	27208	1054469	46318	108105	0	0	8189	573114	0	0
2024-10-02 04:50:47			0	37778	0	0	0	22049	20630	162543	27041	1054460	46339	108104	0	0	8189	572742	0	0
2024-10-02 04:51:47			0	37761	0	0	0	22059	20630	162607	27268	1054460	46329	108108	0	0	8188	573428	0	0
2024-10-02 04:52:47			0	37752	0	0	0	22041	20630	162567	26996	1054531	46338	108101	0	0	8188	573792	0	0
2024-10-02 04:53:47			0	37740	0	0	0	22031	20630	162611	27013	1054451	46338	108097	0	0	8187	574276	0	0
2024-10-02 04:54:47			0	37711	0	0	0	22018	20620	162667	27343	1054442	46328	108092	0	0	8186	575480	0	0
2024-10-02 04:55:47			0	37658	0	0	0	21997	20620	162823	27419	1054442	46328	108084	0	0	8183	577627	0	0
2024-10-02 04:56:47			0	37620	0	0	0	22020	20610	163103	26915	1054371	46316	108093	0	0	8180	579201	0	0
2024-10-02 04:57:47			0	37624	0	0	0	22020	20620	163147	27036	1054407	46316	108093	0	0	8181	579007	0	0
2024-10-02 04:58:47			0	37597	0	0	0	22025	20620	163247	27365	1054353	46337	108095	0	0	8179	580104	0	0
2024-10-02 04:59:47			0	37601	0	0	0	22025	20610	163243	26830	1054415	46326	108095	0	0	8179	579973	0	0
2024-10-02 05:00:47			0	37577	0	0	0	22015	20620	163319	27293	1054380	46327	108091	0	0	8178	580918	0	0
2024-10-02 05:01:47			0	37553	0	0	0	22012	20610	163435	27381	1054371	46316	108090	0	0	8177	581927	0	0
2024-10-02 05:02:47			0	37561	0	0	0	22005	20610	163491	27268	1054318	46337	108087	0	0	8177	581601	0	0
2024-10-02 05:03:47			0	37521	0	0	0	22010	20610	163511	27180	1054309	46336	108089	0	0	8175	583232	0	0
2024-10-02 05:04:47			0	37517	0	0	0	22018	20600	163675	27277	1054327	46314	108092	0	0	8174	583428	0	0
2024-10-02 05:05:47			0	37565	0	0	0	22007	20600	163427	27194	1054327	46336	108088	0	0	8177	581471	0	0
2024-10-02 05:06:47			0	37541	0	0	0	22010	20590	163391	27367	1054326	46324	108089	0	0	8176	582481	0	0
2024-10-02 05:07:47			0	37541	0	0	0	22020	20610	163559	27540	1054362	46326	108093	0	0	8176	582416	0	0
2024-10-02 05:08:47			0	37562	0	0	0	22018	20610	163455	27286	1054398	46348	108092	0	0	8177	581560	0	0
2024-10-02 05:09:47			0	37584	0	0	0	22059	20610	163319	27298	1054389	46326	108108	0	0	8178	580665	0	0
2024-10-02 05:10:47			0	37649	0	0	0	22049	20610	163075	27166	1054442	46347	108104	0	0	8182	578024	0	0
2024-10-02 05:11:47			0	37727	0	0	0	22033	20610	162759	27322	1054415	46336	108098	0	0	8186	574865	0	0
2024-10-02 05:12:47			0	37762	0	0	0	22041	20620	162675	27239	1054407	46337	108101	0	0	8188	573420	0	0
2024-10-02 05:13:47			0	37768	0	0	0	22046	20610	162571	27050	1054469	46336	108103	0	0	8189	573209	0	0
2024-10-02 05:14:47			0	37823	0	0	0	22057	20620	162443	27381	1054433	46348	108107	0	0	8192	570961	0	0
2024-10-02 05:15:47			0	37847	0	0	0	22044	20610	162363	27348	1054442	46326	108102	0	0	8193	570027	0	0
2024-10-02 05:16:47			0	37836	0	0	0	22044	20620	162347	27081	1054460	46337	108102	0	0	8193	570438	0	0
2024-10-02 05:17:47			0	37784	0	0	0	22023	20610	162587	27176	1054415	46358	108094	0	0	8190	572564	0	0
2024-10-02 05:18:47			0	37741	0	0	0	22025	20620	162731	27067	1054442	46338	108095	0	0	8187	574268	0	0
2024-10-02 05:19:47			0	37772	0	0	0	22046	20610	162707	27038	1054362	46326	108103	0	0	8189	573048	0	0
2024-10-02 05:20:47			0	37846	0	0	0	22059	20620	162419	26989	1054486	46316	108108	0	0	8193	570036	0	0
2024-10-02 05:21:47			0	37908	0	0	0	22062	20620	162007	27086	1054460	46337	108109	0	0	8197	567546	0	0
2024-10-02 05:22:47			0	37954	0	0	0	22059	20610	161851	26875	1054451	46337	108108	0	0	8199	565735	0	0
2024-10-02 05:23:47			0	37945	0	0	0	22033	20620	161959	27168	1054442	46338	108098	0	0	8199	566064	0	0
2024-10-02 05:24:47			0	37825	0	0	0	22018	20620	162355	26937	1054389	46317	108092	0	0	8193	570881	0	0
2024-10-02 05:25:47			0	37742	0	0	0	22033	20620	162743	26920	1054407	46327	108098	0	0	8187	574227	0	0
2024-10-02 05:26:47			0	37660	0	0	0	22010	20610	162987	27093	1054451	46337	108089	0	0	8183	577578	0	0
2024-10-02 05:27:47			0	37611	0	0	0	22025	20620	163259	27312	1054389	46328	108095	0	0	8180	579535	0	0
2024-10-02 05:28:47			0	37535	0	0	0	22015	20610	163507	27116	1054398	46327	108091	0	0	8175	582661	0	0
2024-10-02 05:29:47			0	37517	0	0	0	22023	20610	163663	27050	1054336	46314	108094	0	0	8174	583395	0	0
2024-10-02 05:30:47			0	37503	0	0	0	22018	20620	163763	27149	1054407	46327	108092	0	0	8173	583935	0	0
2024-10-02 05:31:47			0	37479	0	0	0	22023	20600	163855	27242	1054380	46326	108094	0	0	8172	584980	0	0
2024-10-02 05:32:47			0	37475	0	0	0	22028	20600	163919	27332	1054406	46336	108096	0	0	8172	585143	0	0
2024-10-02 05:33:47			0	37502	0	0	0	22025	20610	163831	27251	1054389	46326	108095	0	0	8173	584008	0	0
2024-10-02 05:34:47			0	37480	0	0	0	22028	20610	163851	27022	1054362	46314	108096	0	0	8172	584907	0	0
2024-10-02 05:35:47			0	37499	0	0	0	22033	20610	163691	27338	1054442	46336	108098	0	0	8173	584130	0	0
2024-10-02 05:36:47			0	37489	0	0	0	22028	20610	163751	27255	1054362	46336	108096	0	0	8172	584539	0	0
2024-10-02 05:37:47			0	37470	0	0	0	22028	20600	163795	27020	1054433	46347	108096	0	0	8171	585348	0	0
2024-10-02 05:38:47			0	37482	0	0	0	22023	20610	163819	26835	1054415	46314	108094	0	0	8172	584825	0	0
2024-10-02 05:39:47			0	37475	0	0	0	22033	20600	163827	26939	1054380	46326	108098	0	0	8171	585143	0	0
2024-10-02 05:40:47			0	37518	0	0	0	22046	20620	163695	27053	1054433	46327	108103	0	0	8174	583322	0	0
2024-10-02 05:41:47			0	37552	0	0	0	22046	20610	163471	27196	1054424	46327	108103	0	0	8176	581968	0	0
2024-10-02 05:42:47			0	37558	0	0	0	22036	20610	163423	26916	1054478	46337	108099	0	0	8176	581723	0	0
2024-10-02 05:43:47			0	37578	0	0	0	22044	20620	163331	27121	1054486	46316	108102	0	0	8178	580877	0	0
2024-10-02 05:44:47			0	37585	0	0	0	22041	20610	163299	27121	1054442	46336	108101	0	0	8178	580624	0	0
2024-10-02 05:45:47			0	37609	0	0	0	22046	20620	163231	27305	1054522	46349	108103	0	0	8179	579616	0	0
2024-10-02 05:46:47			0	37632	0	0	0	22062	20620	163143	27204	1054433	46348	108109	0	0	8180	578682	0	0
2024-10-02 05:47:47			0	37684	0	0	0	22088	20630	162943	27157	1054425	46328	108119	0	0	8183	576542	0	0
2024-10-02 05:48:47			0	37770	0	0	0	22085	20620	162671	27100	1054549	46349	108118	0	0	8188	573097	0	0
2024-10-02 05:49:47			0	37801	0	0	0	22085	20620	162371	27261	1054540	46348	108118	0	0	8190	571847	0	0
2024-10-02 05:50:47			0	37833	0	0	0	22085	20640	162343	27156	1054638	46351	108118	0	0	8192	570496	0	0
2024-10-02 05:51:47			0	37873	0	0	0	22085	20640	162203	27123	1054558	46351	108118	0	0	8194	568888	0	0
2024-10-02 05:52:47			0	37869	0	0	0	22088	20640	162207	27383	1054549	46339	108119	0	0	8194	569049	0	0
2024-10-02 05:53:47			0	37902	0	0	0	22077	20640	162131	27149	1054629	46350	108115	0	0	8196	567724	0	0
2024-10-02 05:54:47			0	37923	0	0	0	22085	20640	161899	27003	1054638	46330	108118	0	0	8197	566882	0	0
2024-10-02 05:55:47			0	37926	0	0	0	22085	20650	161907	26939	1054726	46352	108118	0	0	8198	566731	0	0
2024-10-02 05:56:47			0	37928	0	0	0	22088	20650	161911	27072	1054655	46363	108119	0	0	8198	566651	0	0
2024-10-02 05:57:47			0	37941	0	0	0	22093	20650	161907	27237	1054629	46331	108121	0	0	8198	566130	0	0
2024-10-02 05:58:47			0	37961	0	0	0	22109	20650	161803	26765	1054655	46341	108127	0	0	8199	565330	0	0
2024-10-02 05:59:47			0	38003	0	0	0	22127	20660	161691	27133	1054700	46353	108134	0	0	8201	563621	0	0
2024-10-02 06:00:47			0	38042	0	0	0	22114	20660	161544	27142	1054753	46353	108129	0	0	8204	562065	0	0
2024-10-02 06:01:47			0	38041	0	0	0	22109	20670	161480	27357	1054735	46354	108127	0	0	8204	562074	0	0
2024-10-02 06:02:47			0	38055	0	0	0	22103	20670	161520	27199	1054656	46343	108125	0	0	8205	561516	0	0
2024-10-02 06:03:47			0	38034	0	0	0	22096	20680	161508	26897	1054780	46344	108122	0	0	8204	562322	0	0
2024-10-02 06:04:47			0	38018	0	0	0	22093	20670	161667	26906	1054744	46343	108121	0	0	8203	562991	0	0
2024-10-02 06:05:47			0	37991	0	0	0	22098	20680	161735	27027	1054753	46344	108123	0	0	8201	564037	0	0
2024-10-02 06:06:47			0	38000	0	0	0	22090	20670	161699	26916	1054771	46343	108120	0	0	8202	563709	0	0
2024-10-02 06:07:47			0	37970	0	0	0	22088	20670	161855	27377	1054771	46333	108119	0	0	8200	564908	0	0
2024-10-02 06:08:47			0	37951	0	0	0	22088	20670	161799	27159	1054718	46322	108119	0	0	8199	565667	0	0
2024-10-02 06:09:47			0	37975	0	0	0	22098	20670	161787	27294	1054691	46343	108123	0	0	8200	564708	0	0
2024-10-02 06:10:47			0	37977	0	0	0	22085	20670	161823	27357	1054656	46333	108118	0	0	8201	564628	0	0
2024-10-02 06:11:47			0	37964	0	0	0	22090	20660	161835	27045	1054673	46332	108120	0	0	8200	565179	0	0
2024-10-02 06:12:47			0	37951	0	0	0	22085	20670	161883	27239	1054735	46343	108118	0	0	8199	565667	0	0
2024-10-02 06:13:47			0	37969	0	0	0	22096	20660	161891	27171	1054753	46332	108122	0	0	8200	564979	0	0
2024-10-02 06:14:47			0	37961	0	0	0	22093	20670	161795	27274	1054691	46333	108121	0	0	8200	565267	0	0
2024-10-02 06:15:47			0	37959	0	0	0	22083	20670	161859	27088	1054709	46343	108117	0	0	8200	565347	0	0
2024-10-02 06:16:47			0	37932	0	0	0	22085	20670	161895	27227	1054656	46322	108118	0	0	8198	566428	0	0
2024-10-02 06:17:47			0	37946	0	0	0	22093	20660	161927	27140	1054726	46342	108121	0	0	8199	565899	0	0
2024-10-02 06:18:47			0	37939	0	0	0	22085	20660	161931	27216	1054664	46342	108118	0	0	8198	566179	0	0
2024-10-02 06:19:47			0	37924	0	0	0	22088	20670	161907	27313	1054735	46343	108119	0	0	8197	566748	0	0
2024-10-02 06:20:47			0	37931	0	0	0	22088	20680	161947	27031	1054727	46344	108119	0	0	8198	566437	0	0
2024-10-02 06:21:47			0	37943	0	0	0	22072	20670	161871	26941	1054682	46354	108113	0	0	8199	565988	0	0
2024-10-02 06:22:47			0	37947	0	0	0	22080	20680	161887	27324	1054673	46333	108116	0	0	8199	565796	0	0
2024-10-02 06:23:47			0	37943	0	0	0	22083	20670	161879	27284	1054656	46333	108117	0	0	8199	565988	0	0
2024-10-02 06:24:47			0	37961	0	0	0	22077	20670	161831	27287	1054682	46343	108115	0	0	8200	565267	0	0
2024-10-02 06:25:47			0	37950	0	0	0	22070	20660	161787	27312	1054611	46342	108112	0	0	8199	565739	0	0
2024-10-02 06:26:47			0	37936	0	0	0	22067	20660	161903	27022	1054611	46342	108111	0	0	8198	566299	0	0
2024-10-02 06:27:47			0	37925	0	0	0	22083	20660	161963	26876	1054638	46332	108117	0	0	8198	566740	0	0
2024-10-02 06:28:47			0	37941	0	0	0	22093	20650	161943	26830	1054655	46331	108121	0	0	8198	566130	0	0
2024-10-02 06:29:47			0	37951	0	0	0	22109	20660	161891	26788	1054726	46342	108127	0	0	8199	565699	0	0
2024-10-02 06:30:47			0	37960	0	0	0	22124	20660	161755	27017	1054744	46332	108133	0	0	8199	565339	0	0
2024-10-02 06:31:47			0	37976	0	0	0	22129	20670	161655	27310	1054798	46333	108135	0	0	8200	564668	0	0
2024-10-02 06:32:47			0	37998	0	0	0	22145	20660	161663	26974	1054833	46353	108141	0	0	8201	563820	0	0
2024-10-02 06:33:47			0	38018	0	0	0	22135	20670	161608	27222	1054851	46365	108137	0	0	8202	562991	0	0
2024-10-02 06:34:47			0	38026	0	0	0	22135	20680	161623	26925	1054815	46344	108137	0	0	8203	562641	0	0
2024-10-02 06:35:47			0	38054	0	0	0	22109	20690	161420	26927	1054878	46345	108127	0	0	8205	561494	0	0
2024-10-02 06:36:47			0	38129	0	0	0	22098	20690	161108	27092	1054798	46345	108123	0	0	8209	558512	0	0
2024-10-02 06:37:47			0	38188	0	0	0	22106	20690	160812	27185	1054798	46345	108126	0	0	8213	556174	0	0
2024-10-02 06:38:47			0	38230	0	0	0	22101	20670	160744	27175	1054798	46343	108124	0	0	8215	554574	0	0
2024-10-02 06:39:47			0	38244	0	0	0	22096	20670	160648	26913	1054771	46333	108122	0	0	8216	554021	0	0
2024-10-02 06:40:47			0	38262	0	0	0	22077	20680	160552	27173	1054753	46344	108115	0	0	8218	553280	0	0
2024-10-02 06:41:47			0	38298	0	0	0	22072	20680	160424	27156	1054753	46333	108113	0	0	8220	551861	0	0
2024-10-02 06:42:47			0	38286	0	0	0	22064	20660	160348	26987	1054611	46321	108110	0	0	8219	552395	0	0
2024-10-02 06:43:47			0	38313	0	0	0	22072	20680	160316	27307	1054727	46333	108113	0	0	8221	551270	0	0
2024-10-02 06:44:47			0	38317	0	0	0	22059	20680	160328	26955	1054673	46311	108108	0	0	8221	551113	0	0
2024-10-02 06:45:47			0	38332	0	0	0	22051	20660	160328	26908	1054638	46321	108105	0	0	8222	550583	0	0
2024-10-02 06:46:47			0	38320	0	0	0	22049	20660	160204	27268	1054585	46321	108104	0	0	8221	551056	0	0
2024-10-02 06:47:47			0	38324	0	0	0	22054	20660	160204	27239	1054585	46321	108106	0	0	8221	550898	0	0
2024-10-02 06:48:47			0	38334	0	0	0	22044	20660	160168	26968	1054585	46321	108102	0	0	8222	550505	0	0
2024-10-02 06:49:47			0	38323	0	0	0	22036	20650	160156	27192	1054513	46320	108099	0	0	8222	550968	0	0
2024-10-02 06:50:47			0	38341	0	0	0	22033	20640	160296	26811	1054575	46329	108098	0	0	8223	550290	0	0
2024-10-02 06:51:47			0	38317	0	0	0	22033	20640	160300	27013	1054575	46329	108098	0	0	8221	551235	0	0
2024-10-02 06:52:47			0	38314	0	0	0	22025	20640	160308	27178	1054558	46330	108095	0	0	8221	551353	0	0
2024-10-02 06:53:47			0	38327	0	0	0	22020	20640	160256	27053	1054442	46306	108093	0	0	8222	550841	0	0
2024-10-02 06:54:47			0	38319	0	0	0	22020	20630	160316	26504	1054433	46329	108093	0	0	8222	551186	0	0
2024-10-02 06:55:47			0	38336	0	0	0	22005	20620	160416	26712	1054469	46328	108087	0	0	8223	550548	0	0
2024-10-02 06:56:47			0	38339	0	0	0	22015	20620	160320	27291	1054433	46304	108091	0	0	8223	550430	0	0
2024-10-02 06:57:47			0	38322	0	0	0	22023	20610	160264	27109	1054451	46327	108094	0	0	8222	551129	0	0
2024-10-02 06:58:47			0	38345	0	0	0	22007	20610	160240	26970	1054398	46327	108088	0	0	8223	550224	0	0
2024-10-02 06:59:47			0	38348	0	0	0	22007	20610	160084	26982	1054424	46337	108088	0	0	8223	550106	0	0
2024-10-02 07:00:47			0	38351	0	0	0	22010	20610	160172	26817	1054398	46327	108089	0	0	8224	549988	0	0
2024-10-02 07:01:47			0	38348	0	0	0	22015	20610	160236	26866	1054442	46326	108091	0	0	8223	550106	0	0
2024-10-02 07:02:47			0	38358	0	0	0	22012	20610	160272	27050	1054424	46327	108090	0	0	8224	549713	0	0
2024-10-02 07:03:47			0	38386	0	0	0	22012	20600	160188	26937	1054327	46314	108090	0	0	8226	548644	0	0
2024-10-02 07:04:47			0	38371	0	0	0	21994	20600	160084	27398	1054371	46325	108083	0	0	8225	549233	0	0
2024-10-02 07:05:47			0	38401	0	0	0	22002	20600	160096	26927	1054380	46336	108086	0	0	8227	548055	0	0
2024-10-02 07:06:47			0	38422	0	0	0	22007	20590	160120	26994	1054246	46324	108088	0	0	8228	547262	0	0
2024-10-02 07:07:47			0	38423	0	0	0	22005	20590	160000	27159	1054309	46313	108087	0	0	8228	547223	0	0
2024-10-02 07:08:47			0	38426	0	0	0	22007	20600	160016	27069	1054344	46325	108088	0	0	8228	547075	0	0
2024-10-02 07:09:47			0	38431	0	0	0	22005	20590	159972	26942	1054335	46302	108087	0	0	8228	546909	0	0
2024-10-02 07:10:47			0	38415	0	0	0	21994	20600	159952	27144	1054291	46313	108083	0	0	8228	547506	0	0
2024-10-02 07:11:47			0	38423	0	0	0	22010	20590	160052	27241	1054256	46335	108089	0	0	8228	547223	0	0
2024-10-02 07:12:47			0	38393	0	0	0	21997	20590	160080	27197	1054309	46335	108084	0	0	8226	548399	0	0
2024-10-02 07:13:47			0	38358	0	0	0	21976	20590	160224	27060	1054353	46324	108076	0	0	8224	549774	0	0
2024-10-02 07:14:47			0	38323	0	0	0	21976	20590	160448	27079	1054273	46313	108076	0	0	8222	551151	0	0
2024-10-02 07:15:47			0	38302	0	0	0	21986	20590	160556	27147	1054256	46325	108080	0	0	8221	551978	0	0
2024-10-02 07:16:47			0	38303	0	0	0	21976	20590	160432	26991	1054326	46313	108076	0	0	8221	551939	0	0
2024-10-02 07:17:47			0	38278	0	0	0	21984	20580	160568	26871	1054282	46333	108079	0	0	8220	552955	0	0
2024-10-02 07:18:47			0	38291	0	0	0	21981	20580	160528	27263	1054184	46324	108078	0	0	8220	552442	0	0
2024-10-02 07:19:47			0	38291	0	0	0	21953	20570	160540	26961	1054220	46322	108067	0	0	8221	552473	0	0
2024-10-02 07:20:47			0	38270	0	0	0	21968	20560	160712	27183	1054140	46321	108073	0	0	8219	553332	0	0
2024-10-02 07:21:47			0	38249	0	0	0	21942	20570	160724	27012	1054193	46322	108063	0	0	8219	554130	0	0
2024-10-02 07:22:47			0	38197	0	0	0	21935	20570	160872	26871	1054184	46310	108060	0	0	8216	556187	0	0
2024-10-02 07:23:47			0	38173	0	0	0	21945	20560	161016	26715	1054086	46298	108064	0	0	8214	557168	0	0
2024-10-02 07:24:47			0	38174	0	0	0	21961	20560	161052	27012	1054113	46321	108070	0	0	8214	557129	0	0
2024-10-02 07:25:47			0	38178	0	0	0	21935	20560	161016	26767	1054113	46309	108060	0	0	8214	556970	0	0
2024-10-02 07:26:47			0	38176	0	0	0	21958	20550	161008	27007	1054104	46297	108069	0	0	8214	557080	0	0
2024-10-02 07:27:47			0	38176	0	0	0	21942	20550	160984	27067	1054068	46320	108063	0	0	8214	557080	0	0
2024-10-02 07:28:47			0	38147	0	0	0	21940	20550	161076	26927	1054077	46308	108062	0	0	8213	558230	0	0
2024-10-02 07:29:47			0	38139	0	0	0	21948	20550	161136	27180	1054068	46297	108065	0	0	8212	558548	0	0
2024-10-02 07:30:47			0	38143	0	0	0	21966	20540	161172	27104	1054033	46331	108072	0	0	8212	558420	0	0
2024-10-02 07:31:47			0	38206	0	0	0	21968	20530	160928	27237	1054077	46330	108073	0	0	8215	555954	0	0
2024-10-02 07:32:47			0	38246	0	0	0	21971	20550	160736	27010	1054095	46320	108074	0	0	8218	554310	0	0
2024-10-02 07:33:47			0	38283	0	0	0	21945	20550	160592	26915	1054148	46331	108064	0	0	8220	552849	0	0
2024-10-02 07:34:47			0	38245	0	0	0	21932	20540	160704	27069	1054086	46331	108059	0	0	8218	554380	0	0
2024-10-02 07:35:47			0	38226	0	0	0	21942	20550	160864	27291	1054095	46320	108063	0	0	8217	555101	0	0
2024-10-02 07:36:47			0	38188	0	0	0	21942	20550	160928	27131	1054068	46331	108063	0	0	8215	556605	0	0
2024-10-02 07:37:47			0	38192	0	0	0	21940	20540	161040	27242	1054060	46320	108062	0	0	8215	556477	0	0
2024-10-02 07:38:47			0	38176	0	0	0	21945	20530	161092	27000	1054042	46329	108064	0	0	8214	557142	0	0
2024-10-02 07:39:47			0	38164	0	0	0	21935	20520	161084	27119	1054033	46318	108060	0	0	8213	557649	0	0
2024-10-02 07:40:47			0	38175	0	0	0	21955	20530	161152	27019	1054015	46318	108068	0	0	8214	557182	0	0
2024-10-02 07:41:47			0	38179	0	0	0	21955	20530	161068	27081	1054024	46319	108068	0	0	8214	557023	0	0
2024-10-02 07:42:47			0	38202	0	0	0	21937	20530	160984	27381	1054051	46319	108061	0	0	8216	556112	0	0
2024-10-02 07:43:47			0	38181	0	0	0	21942	20530	161048	27230	1054068	46329	108063	0	0	8214	556944	0	0
2024-10-02 07:44:47			0	38198	0	0	0	21937	20520	161068	27065	1054006	46318	108061	0	0	8215	556301	0	0
2024-10-02 07:45:47			0	38191	0	0	0	21940	20520	161048	27150	1054006	46350	108062	0	0	8215	556578	0	0
2024-10-02 07:46:47			0	38187	0	0	0	21940	20520	161008	27157	1054086	46318	108062	0	0	8215	556737	0	0
2024-10-02 07:47:47			0	38223	0	0	0	21958	20520	160800	27208	1054077	46317	108069	0	0	8217	555312	0	0
2024-10-02 07:48:47			0	38291	0	0	0	21961	20530	160660	27156	1054095	46329	108070	0	0	8220	552595	0	0
2024-10-02 07:49:47			0	38310	0	0	0	21968	20530	160644	27294	1054068	46329	108073	0	0	8221	551846	0	0
2024-10-02 07:50:47			0	38328	0	0	0	21958	20520	160464	27067	1054024	46328	108069	0	0	8223	551167	0	0
2024-10-02 07:51:47			0	38332	0	0	0	21942	20530	160592	27187	1054077	46330	108063	0	0	8223	550979	0	0
2024-10-02 07:52:47			0	38313	0	0	0	21940	20530	160560	27268	1054077	46330	108062	0	0	8222	551728	0	0
2024-10-02 07:53:47			0	38317	0	0	0	21963	20530	160592	27258	1054095	46329	108071	0	0	8222	551570	0	0
2024-10-02 07:54:47			0	38315	0	0	0	21932	20530	160488	27234	1054015	46318	108059	0	0	8222	551649	0	0
2024-10-02 07:55:47			0	38304	0	0	0	21953	20520	160536	27041	1054033	46306	108067	0	0	8221	552113	0	0
2024-10-02 07:56:47			0	38334	0	0	0	21968	20530	160580	27164	1054077	46307	108073	0	0	8223	550901	0	0
2024-10-02 07:57:47			0	38367	0	0	0	21986	20530	160436	27121	1054121	46339	108080	0	0	8225	549603	0	0
2024-10-02 07:58:47			0	38441	0	0	0	21976	20530	159992	26819	1054068	46339	108076	0	0	8229	546699	0	0
2024-10-02 07:59:47			0	38486	0	0	0	21979	20530	159920	27564	1054095	46329	108077	0	0	8232	544938	0	0
2024-10-02 08:00:47			0	38464	0	0	0	21958	20530	159888	27138	1054104	46319	108069	0	0	8231	545798	0	0
2024-10-02 08:01:47			0	38433	0	0	0	21942	20550	159924	27220	1054122	46297	108063	0	0	8229	546952	0	0
2024-10-02 08:02:47			0	38414	0	0	0	21950	20530	160200	27242	1054104	46319	108066	0	0	8228	547757	0	0
2024-10-02 08:03:47			0	38377	0	0	0	21955	20530	160284	27119	1054051	46296	108068	0	0	8226	549210	0	0
2024-10-02 08:04:47			0	38366	0	0	0	21935	20530	160320	27345	1054042	46318	108060	0	0	8225	549642	0	0
2024-10-02 08:05:47			0	38362	0	0	0	21937	20530	160532	27022	1054024	46319	108061	0	0	8225	549799	0	0
2024-10-02 08:06:47			0	38350	0	0	0	21935	20530	160488	26932	1053988	46295	108060	0	0	8224	550271	0	0
2024-10-02 08:07:47			0	38339	0	0	0	21937	20520	160548	27346	1054024	46328	108061	0	0	8224	550734	0	0
2024-10-02 08:08:47			0	38322	0	0	0	21924	20520	160464	26946	1054033	46318	108056	0	0	8223	551404	0	0
2024-10-02 08:09:47			0	38310	0	0	0	21929	20520	160544	26802	1054033	46306	108058	0	0	8222	551876	0	0
2024-10-02 08:10:47			0	38331	0	0	0	21940	20520	160528	26814	1053997	46305	108062	0	0	8223	551049	0	0
2024-10-02 08:11:47			0	38341	0	0	0	21942	20510	160628	26837	1053962	46317	108063	0	0	8224	550686	0	0
2024-10-02 08:12:47			0	38341	0	0	0	21958	20520	160452	27189	1054006	46329	108069	0	0	8223	550656	0	0
2024-10-02 08:13:47			0	38351	0	0	0	21961	20510	160368	27119	1054006	46316	108070	0	0	8224	550293	0	0
2024-10-02 08:14:47			0	38372	0	0	0	21942	20530	160248	26887	1054121	46318	108063	0	0	8226	549406	0	0
2024-10-02 08:15:47			0	38367	0	0	0	21955	20520	160392	27019	1054104	46328	108068	0	0	8225	549633	0	0
2024-10-02 08:16:47			0	38368	0	0	0	21945	20530	160296	27137	1054095	46318	108064	0	0	8225	549563	0	0
2024-10-02 08:17:47			0	38375	0	0	0	21935	20520	160308	27163	1054059	46329	108060	0	0	8226	549319	0	0
2024-10-02 08:18:47			0	38399	0	0	0	21937	20520	160168	27332	1054086	46329	108061	0	0	8227	548376	0	0
2024-10-02 08:19:47			0	38396	0	0	0	21948	20520	160240	27300	1054033	46306	108065	0	0	8227	548494	0	0
2024-10-02 08:20:47			0	38401	0	0	0	21948	20520	160212	26913	1054077	46305	108065	0	0	8227	548298	0	0
2024-10-02 08:21:47			0	38426	0	0	0	21953	20520	160280	27119	1053980	46329	108067	0	0	8228	547317	0	0
2024-10-02 08:22:47			0	38467	0	0	0	21953	20520	159980	27090	1054050	46317	108067	0	0	8231	545711	0	0
2024-10-02 08:23:47			0	38514	0	0	0	21945	20520	159844	27149	1054059	46318	108064	0	0	8234	543874	0	0
2024-10-02 08:24:47			0	38541	0	0	0	21932	20510	159624	26816	1054015	46317	108059	0	0	8236	542850	0	0
2024-10-02 08:25:47			0	38566	0	0	0	21940	20520	159588	26925	1053997	46317	108062	0	0	8237	541845	0	0
2024-10-02 08:26:47			0	38576	0	0	0	21948	20530	159632	26698	1054042	46318	108065	0	0	8237	541425	0	0
2024-10-02 08:27:47			0	38570	0	0	0	21948	20520	159508	27234	1054006	46295	108065	0	0	8237	541689	0	0
2024-10-02 08:28:47			0	38584	0	0	0	21942	20520	159444	27109	1054059	46329	108063	0	0	8238	541144	0	0
2024-10-02 08:29:47			0	38619	0	0	0	21929	20530	159316	27000	1054015	46329	108058	0	0	8240	539752	0	0
2024-10-02 08:30:47			0	38642	0	0	0	21948	20520	159264	26981	1054024	46317	108065	0	0	8241	538888	0	0
2024-10-02 08:31:47			0	38659	0	0	0	21948	20510	159136	26830	1053988	46317	108065	0	0	8242	538258	0	0
2024-10-02 08:32:47			0	38690	0	0	0	21945	20520	159016	27307	1054033	46318	108064	0	0	8244	537026	0	0
2024-10-02 08:33:47			0	38715	0	0	0	21955	20520	158868	27064	1054033	46318	108068	0	0	8245	536058	0	0
2024-10-02 08:34:47			0	38773	0	0	0	21948	20520	158789	27095	1054077	46328	108065	0	0	8249	533815	0	0
2024-10-02 08:35:47			0	38767	0	0	0	21935	20520	158805	27324	1054086	46318	108060	0	0	8249	534047	0	0
2024-10-02 08:36:47			0	38755	0	0	0	21948	20520	158673	27216	1054059	46295	108065	0	0	8248	534511	0	0
2024-10-02 08:37:47			0	38789	0	0	0	21937	20520	158737	27019	1054104	46328	108061	0	0	8250	533198	0	0
2024-10-02 08:38:47			0	38794	0	0	0	21935	20510	158713	27362	1054068	46317	108060	0	0	8250	533034	0	0
2024-10-02 08:39:47			0	38798	0	0	0	21940	20520	158705	27353	1053980	46318	108062	0	0	8250	532850	0	0
2024-10-02 08:40:47			0	38810	0	0	0	21953	20520	158653	27111	1054086	46285	108067	0	0	8251	532388	0	0
2024-10-02 08:41:47			0	38821	0	0	0	21961	20520	158565	27026	1054050	46317	108070	0	0	8251	531964	0	0
2024-10-02 08:42:47			0	38835	0	0	0	21945	20520	158489	26968	1054113	46329	108064	0	0	8252	531424	0	0
2024-10-02 08:43:47			0	38856	0	0	0	21935	20520	158441	27374	1054006	46318	108060	0	0	8254	530616	0	0
2024-10-02 08:44:47			0	38843	0	0	0	21935	20520	158485	27092	1054006	46295	108060	0	0	8253	531116	0	0
2024-10-02 08:45:47			0	38831	0	0	0	21940	20520	158457	26902	1054024	46328	108062	0	0	8252	531578	0	0
2024-10-02 08:46:47			0	38834	0	0	0	21932	20520	158589	26866	1053971	46317	108059	0	0	8253	531463	0	0
2024-10-02 08:47:47			0	38832	0	0	0	21935	20520	158393	27197	1054050	46305	108060	0	0	8252	531540	0	0
2024-10-02 08:48:47			0	38835	0	0	0	21937	20520	158565	26961	1054033	46329	108061	0	0	8253	531424	0	0
2024-10-02 08:49:47			0	38822	0	0	0	21940	20520	158505	26687	1053997	46305	108062	0	0	8252	531925	0	0
2024-10-02 08:50:47			0	38833	0	0	0	21935	20510	158433	27222	1053979	46327	108060	0	0	8252	531531	0	0
2024-10-02 08:51:47			0	38851	0	0	0	21937	20520	158529	27192	1054006	46318	108061	0	0	8254	530808	0	0
2024-10-02 08:52:47			0	38845	0	0	0	21932	20520	158437	27064	1053971	46305	108059	0	0	8253	531039	0	0
2024-10-02 08:53:47			0	38832	0	0	0	21942	20510	158409	27045	1053988	46317	108063	0	0	8252	531569	0	0
2024-10-02 08:54:47			0	38844	0	0	0	21940	20520	158457	27242	1053997	46317	108062	0	0	8253	531078	0	0
2024-10-02 08:55:47			0	38832	0	0	0	21945	20520	158525	27086	1054024	46305	108064	0	0	8252	531540	0	0
2024-10-02 08:56:47			0	38847	0	0	0	21937	20510	158529	27152	1053988	46305	108061	0	0	8253	530992	0	0
2024-10-02 08:57:47			0	38840	0	0	0	21935	20520	158585	26878	1054059	46306	108060	0	0	8253	531232	0	0
2024-10-02 08:58:47			0	38842	0	0	0	21942	20520	158533	27137	1054024	46317	108063	0	0	8253	531155	0	0
2024-10-02 08:59:47			0	38875	0	0	0	21940	20510	158513	27166	1054041	46305	108062	0	0	8255	529915	0	0
2024-10-02 09:00:47			0	38853	0	0	0	21929	20520	158501	26984	1054024	46317	108058	0	0	8254	530731	0	0
2024-10-02 09:01:47			0	38864	0	0	0	21937	20520	158433	27187	1054050	46328	108061	0	0	8254	530308	0	0
2024-10-02 09:02:47			0	38851	0	0	0	21940	20510	158469	27203	1053988	46305	108062	0	0	8253	530838	0	0
2024-10-02 09:03:47			0	38863	0	0	0	21942	20520	158377	27105	1054033	46318	108063	0	0	8254	530347	0	0
2024-10-02 09:04:47			0	38868	0	0	0	21945	20510	158445	26953	1054015	46328	108064	0	0	8254	530184	0	0
2024-10-02 09:05:47			0	38873	0	0	0	21942	20520	158485	27345	1054033	46329	108063	0	0	8255	529962	0	0
2024-10-02 09:06:47			0	38866	0	0	0	21958	20510	158341	27043	1054041	46305	108069	0	0	8254	530261	0	0
2024-10-02 09:07:47			0	38865	0	0	0	21948	20510	158361	27235	1054068	46328	108065	0	0	8254	530299	0	0
2024-10-02 09:08:47			0	38870	0	0	0	21961	20520	158321	27088	1054059	46329	108070	0	0	8254	530077	0	0
2024-10-02 09:09:47			0	38862	0	0	0	21953	20520	158417	26944	1054077	46328	108067	0	0	8254	530385	0	0
2024-10-02 09:10:47			0	38871	0	0	0	21942	20530	158385	27248	1054121	46318	108063	0	0	8255	530010	0	0
2024-10-02 09:11:47			0	38874	0	0	0	21950	20520	158445	27317	1054077	46317	108066	0	0	8255	529924	0	0
2024-10-02 09:12:47			0	38896	0	0	0	21950	20520	158305	27211	1054059	46318	108066	0	0	8256	529078	0	0
2024-10-02 09:13:47			0	38891	0	0	0	21945	20520	158329	27147	1054033	46318	108064	0	0	8256	529270	0	0
2024-10-02 09:14:47			0	38883	0	0	0	21948	20520	158393	26960	1054006	46318	108065	0	0	8255	529578	0	0
2024-10-02 09:15:47			0	38908	0	0	0	21948	20520	158337	27005	1054024	46305	108065	0	0	8257	528617	0	0
2024-10-02 09:16:47			0	38908	0	0	0	21948	20520	158293	27104	1054033	46306	108065	0	0	8257	528617	0	0
2024-10-02 09:17:47			0	38911	0	0	0	21948	20530	158317	27211	1054068	46329	108065	0	0	8257	528473	0	0
2024-10-02 09:18:47			0	38896	0	0	0	21950	20520	158365	27107	1054077	46317	108066	0	0	8256	529078	0	0
2024-10-02 09:19:47			0	38891	0	0	0	21961	20520	158509	27093	1054024	46338	108070	0	0	8255	529270	0	0
2024-10-02 09:20:47			0	38898	0	0	0	21958	20530	158413	27168	1054148	46318	108069	0	0	8256	528972	0	0
2024-10-02 09:21:47			0	38879	0	0	0	21948	20530	158337	27201	1054104	46330	108065	0	0	8255	529702	0	0
2024-10-02 09:22:47			0	38893	0	0	0	21955	20520	158365	27261	1054059	46318	108068	0	0	8256	529193	0	0
2024-10-02 09:23:47			0	38888	0	0	0	21945	20530	158309	26932	1054104	46330	108064	0	0	8256	529356	0	0
2024-10-02 09:24:47			0	38888	0	0	0	21948	20520	158369	27154	1054113	46329	108065	0	0	8255	529386	0	0
2024-10-02 09:25:47			0	38882	0	0	0	21945	20530	158377	27237	1054095	46306	108064	0	0	8255	529587	0	0
2024-10-02 09:26:47			0	38883	0	0	0	21958	20520	158409	27171	1054033	46306	108069	0	0	8255	529578	0	0
2024-10-02 09:27:47			0	38888	0	0	0	21953	20530	158397	27062	1054130	46340	108067	0	0	8255	529356	0	0
2024-10-02 09:28:47			0	38892	0	0	0	21953	20520	158349	27327	1054139	46306	108067	0	0	8256	529232	0	0
2024-10-02 09:29:47			0	38907	0	0	0	21953	20530	158317	27438	1054042	46329	108067	0	0	8257	528627	0	0
2024-10-02 09:30:47			0	38893	0	0	0	21953	20520	158405	27069	1054139	46318	108067	0	0	8256	529193	0	0
2024-10-02 09:31:47			0	38894	0	0	0	21966	20520	158425	27064	1054024	46317	108072	0	0	8256	529155	0	0
2024-10-02 09:32:47			0	38875	0	0	0	21963	20520	158441	27331	1054104	46317	108071	0	0	8254	529885	0	0
2024-10-02 09:33:47			0	38867	0	0	0	21955	20530	158361	27357	1054130	46330	108068	0	0	8254	530164	0	0
2024-10-02 09:34:47			0	38865	0	0	0	21953	20530	158461	27149	1054051	46296	108067	0	0	8254	530240	0	0
2024-10-02 09:35:47			0	38860	0	0	0	21953	20520	158485	27234	1054086	46318	108067	0	0	8254	530462	0	0
2024-10-02 09:36:47			0	38863	0	0	0	21940	20530	158421	27098	1054068	46306	108062	0	0	8254	530317	0	0
2024-10-02 09:37:47			0	38846	0	0	0	21942	20530	158493	27265	1054068	46306	108063	0	0	8253	530971	0	0
2024-10-02 09:38:47			0	38852	0	0	0	21948	20530	158521	26769	1054068	46295	108065	0	0	8253	530740	0	0
2024-10-02 09:39:47			0	38866	0	0	0	21963	20520	158465	27237	1054050	46317	108071	0	0	8254	530231	0	0
2024-10-02 09:40:47			0	38857	0	0	0	21953	20520	158537	27007	1054033	46329	108067	0	0	8254	530578	0	0
2024-10-02 09:41:47			0	38851	0	0	0	21945	20520	158437	27190	1054059	46318	108064	0	0	8253	530808	0	0
2024-10-02 09:42:47			0	38855	0	0	0	21958	20520	158489	27069	1054086	46318	108069	0	0	8253	530655	0	0
2024-10-02 09:43:47			0	38865	0	0	0	21955	20530	158449	26977	1054130	46319	108068	0	0	8254	530240	0	0
2024-10-02 09:44:47			0	38861	0	0	0	21953	20530	158365	27175	1054121	46329	108067	0	0	8254	530394	0	0
2024-10-02 09:45:47			0	38848	0	0	0	21953	20530	158401	27433	1054104	46319	108067	0	0	8253	530894	0	0
2024-10-02 09:46:47			0	38875	0	0	0	21950	20520	158445	27150	1054050	46317	108066	0	0	8255	529885	0	0
2024-10-02 09:47:47			0	38857	0	0	0	21953	20530	158489	27291	1054104	46330	108067	0	0	8254	530548	0	0
2024-10-02 09:48:47			0	38876	0	0	0	21955	20520	158413	26981	1054086	46318	108068	0	0	8255	529847	0	0
2024-10-02 09:49:47			0	38870	0	0	0	21940	20520	158365	27438	1054059	46318	108062	0	0	8255	530077	0	0
2024-10-02 09:50:47			0	38879	0	0	0	21942	20520	158293	27204	1054059	46329	108063	0	0	8255	529731	0	0
2024-10-02 09:51:47			0	38886	0	0	0	21942	20530	158289	27083	1054157	46319	108063	0	0	8255	529433	0	0
2024-10-02 09:52:47			0	38887	0	0	0	21966	20530	158309	27320	1054104	46307	108072	0	0	8255	529395	0	0
2024-10-02 09:53:47			0	38889	0	0	0	21953	20530	158201	26932	1054121	46318	108067	0	0	8255	529318	0	0
2024-10-02 09:54:47			0	38895	0	0	0	21958	20520	158173	27237	1054086	46318	108069	0	0	8256	529117	0	0
2024-10-02 09:55:47			0	38906	0	0	0	21963	20530	158189	27216	1054104	46319	108071	0	0	8256	528665	0	0
2024-10-02 09:56:47			0	38938	0	0	0	21958	20530	158201	27298	1054068	46339	108069	0	0	8258	527437	0	0
2024-10-02 09:57:47			0	38920	0	0	0	21963	20530	158181	26908	1054121	46318	108071	0	0	8257	528128	0	0
2024-10-02 09:58:47			0	38936	0	0	0	21963	20530	158049	27315	1054157	46330	108071	0	0	8258	527514	0	0
2024-10-02 09:59:47			0	38954	0	0	0	21966	20520	157921	27189	1054086	46306	108072	0	0	8259	526853	0	0
2024-10-02 10:00:47			0	38948	0	0	0	21963	20530	158009	27216	1054095	46329	108071	0	0	8259	527054	0	0
2024-10-02 10:01:47			0	38939	0	0	0	21963	20540	158173	27293	1054113	46320	108071	0	0	8258	527370	0	0
2024-10-02 10:02:47			0	38942	0	0	0	21968	20540	158121	27331	1054139	46320	108073	0	0	8258	527255	0	0
2024-10-02 10:03:47			0	38958	0	0	0	21963	20540	158065	27274	1054193	46331	108071	0	0	8259	526642	0	0
2024-10-02 10:04:47			0	38957	0	0	0	21976	20530	158037	27163	1054157	46319	108076	0	0	8259	526709	0	0
2024-10-02 10:05:47			0	38957	0	0	0	21973	20540	157969	26854	1054113	46331	108075	0	0	8259	526680	0	0
2024-10-02 10:06:47			0	38977	0	0	0	21976	20530	157957	27196	1054130	46307	108076	0	0	8260	525943	0	0
2024-10-02 10:07:47			0	38988	0	0	0	21986	20530	157913	27182	1054210	46330	108080	0	0	8261	525523	0	0
2024-10-02 10:08:47			0	38996	0	0	0	21981	20550	157877	27098	1054264	46331	108078	0	0	8261	525158	0	0
2024-10-02 10:09:47			0	39006	0	0	0	21976	20540	157801	27194	1054166	46308	108076	0	0	8262	524805	0	0
2024-10-02 10:10:47			0	39001	0	0	0	21973	20550	157877	27431	1054228	46331	108075	0	0	8262	524967	0	0
2024-10-02 10:11:47			0	38996	0	0	0	21973	20550	157809	27272	1054175	46331	108075	0	0	8261	525158	0	0
2024-10-02 10:12:47			0	39012	0	0	0	21981	20530	157781	27197	1054184	46307	108078	0	0	8262	524605	0	0
2024-10-02 10:13:47			0	39018	0	0	0	21984	20550	157829	27268	1054210	46331	108079	0	0	8263	524318	0	0
2024-10-02 10:14:47			0	39006	0	0	0	21979	20550	157821	27352	1054201	46320	108077	0	0	8262	524776	0	0
2024-10-02 10:15:47			0	39020	0	0	0	21984	20550	157885	26930	1054157	46320	108079	0	0	8263	524241	0	0
2024-10-02 10:16:47			0	39014	0	0	0	21971	20550	157869	27220	1054175	46331	108074	0	0	8263	524470	0	0
2024-10-02 10:17:47			0	39037	0	0	0	21981	20550	157833	27145	1054184	46308	108078	0	0	8264	523592	0	0
2024-10-02 10:18:47			0	39024	0	0	0	21973	20550	157793	27178	1054184	46308	108075	0	0	8263	524088	0	0
2024-10-02 10:19:47			0	39017	0	0	0	21986	20550	157809	27218	1054210	46308	108080	0	0	8262	524356	0	0
2024-10-02 10:20:47			0	39000	0	0	0	21981	20560	157725	27171	1054219	46309	108078	0	0	8262	524976	0	0
2024-10-02 10:21:47			0	39033	0	0	0	21966	20560	157697	27043	1054246	46321	108072	0	0	8264	523716	0	0
2024-10-02 10:22:47			0	39008	0	0	0	21973	20550	157761	27319	1054175	46331	108075	0	0	8262	524700	0	0
2024-10-02 10:23:47			0	39017	0	0	0	21989	20560	157753	27341	1054202	46322	108081	0	0	8262	524327	0	0
2024-10-02 10:24:47			0	39028	0	0	0	21994	20550	157789	26974	1054201	46320	108083	0	0	8263	523936	0	0
2024-10-02 10:25:47			0	39019	0	0	0	21981	20560	157701	27353	1054166	46321	108078	0	0	8263	524250	0	0
2024-10-02 10:26:47			0	39021	0	0	0	21992	20560	157785	27090	1054219	46342	108082	0	0	8263	524174	0	0
2024-10-02 10:27:47			0	39029	0	0	0	21989	20550	157697	27204	1054264	46320	108081	0	0	8263	523897	0	0
2024-10-02 10:28:47			0	39037	0	0	0	21994	20560	157769	26949	1054246	46332	108083	0	0	8264	523563	0	0
2024-10-02 10:29:47			0	39031	0	0	0	21984	20560	157673	27140	1054273	46321	108079	0	0	8263	523792	0	0
2024-10-02 10:30:47			0	39036	0	0	0	21999	20560	157721	27039	1054281	46322	108085	0	0	8263	523601	0	0
2024-10-02 10:31:47			0	39041	0	0	0	21994	20560	157649	27183	1054308	46322	108083	0	0	8264	523410	0	0
2024-10-02 10:32:47			0	39044	0	0	0	21992	20560	157633	27422	1054228	46343	108082	0	0	8264	523296	0	0
2024-10-02 10:33:47			0	39054	0	0	0	21992	20570	157677	27059	1054299	46333	108082	0	0	8265	522885	0	0
2024-10-02 10:34:47			0	39038	0	0	0	22002	20570	157685	27118	1054290	46310	108086	0	0	8263	523496	0	0
2024-10-02 10:35:47			0	39063	0	0	0	22005	20570	157677	27421	1054246	46299	108087	0	0	8265	522542	0	0
2024-10-02 10:36:47			0	39058	0	0	0	21989	20560	157661	26935	1054281	46310	108081	0	0	8265	522762	0	0
2024-10-02 10:37:47			0	39057	0	0	0	21986	20570	157641	26889	1054211	46310	108080	0	0	8265	522771	0	0
2024-10-02 10:38:47			0	39040	0	0	0	21994	20570	157693	27277	1054211	46322	108083	0	0	8264	523420	0	0
2024-10-02 10:39:47			0	39025	0	0	0	21989	20580	157677	27164	1054282	46323	108081	0	0	8263	523963	0	0
2024-10-02 10:40:47			0	39045	0	0	0	21989	20570	157605	27163	1054237	46310	108081	0	0	8264	523229	0	0
2024-10-02 10:41:47			0	39035	0	0	0	21997	20550	157653	26876	1054210	46320	108084	0	0	8263	523668	0	0
2024-10-02 10:42:47			0	39036	0	0	0	22007	20570	157661	26908	1054317	46333	108088	0	0	8263	523572	0	0
2024-10-02 10:43:47			0	39036	0	0	0	22002	20570	157649	26889	1054379	46333	108086	0	0	8263	523572	0	0
2024-10-02 10:44:47			0	39039	0	0	0	21997	20560	157641	26998	1054308	46333	108084	0	0	8264	523487	0	0
2024-10-02 10:45:47			0	39044	0	0	0	21997	20570	157589	27111	1054326	46322	108084	0	0	8264	523267	0	0
2024-10-02 10:46:47			0	39049	0	0	0	21992	20580	157677	27095	1054282	46323	108082	0	0	8264	523047	0	0
2024-10-02 10:47:47			0	39026	0	0	0	21999	20570	157697	26863	1054299	46310	108085	0	0	8263	523954	0	0
2024-10-02 10:48:47			0	39045	0	0	0	22005	20580	157637	27149	1054282	46333	108087	0	0	8264	523200	0	0
2024-10-02 10:49:47			0	39037	0	0	0	22010	20580	157693	27170	1054282	46312	108089	0	0	8263	523505	0	0
2024-10-02 10:50:47			0	39051	0	0	0	22015	20580	157717	27204	1054370	46334	108091	0	0	8264	522971	0	0
2024-10-02 10:51:47			0	39047	0	0	0	22007	20580	157553	27131	1054370	46334	108088	0	0	8264	523123	0	0
2024-10-02 10:52:47			0	39068	0	0	0	22015	20570	157617	27223	1054326	46322	108091	0	0	8265	522352	0	0
2024-10-02 10:53:47			0	39043	0	0	0	22012	20580	157549	27284	1054282	46333	108090	0	0	8264	523276	0	0
2024-10-02 10:54:47			0	39044	0	0	0	21997	20580	157577	27272	1054361	46323	108084	0	0	8264	523238	0	0
2024-10-02 10:55:47			0	39056	0	0	0	22002	20580	157609	27303	1054361	46323	108086	0	0	8265	522780	0	0
2024-10-02 10:56:47			0	39061	0	0	0	21997	20580	157573	26944	1054361	46323	108084	0	0	8265	522590	0	0
2024-10-02 10:57:47			0	39038	0	0	0	21999	20580	157573	27027	1054344	46324	108085	0	0	8264	523467	0	0
2024-10-02 10:58:47			0	39054	0	0	0	21997	20580	157625	27334	1054370	46313	108084	0	0	8265	522857	0	0
2024-10-02 10:59:47			0	39040	0	0	0	22010	20580	157577	27227	1054361	46323	108089	0	0	8264	523391	0	0
2024-10-02 11:00:47			0	39051	0	0	0	22007	20580	157609	27298	1054388	46333	108088	0	0	8264	522971	0	0
2024-10-02 11:01:47			0	39043	0	0	0	22005	20590	157605	27208	1054353	46324	108087	0	0	8264	523247	0	0
2024-10-02 11:02:47			0	39058	0	0	0	22015	20590	157481	27022	1054389	46335	108091	0	0	8265	522675	0	0
2024-10-02 11:03:47			0	39057	0	0	0	22015	20590	157641	26715	1054379	46313	108091	0	0	8264	522713	0	0
2024-10-02 11:04:47			0	39052	0	0	0	22020	20590	157497	26927	1054389	46302	108093	0	0	8264	522904	0	0
2024-10-02 11:05:47			0	39074	0	0	0	22012	20580	157593	27131	1054424	46345	108090	0	0	8265	522094	0	0
2024-10-02 11:06:47			0	39063	0	0	0	22018	20580	157557	27166	1054370	46334	108092	0	0	8265	522513	0	0
2024-10-02 11:07:47			0	39072	0	0	0	22020	20590	157449	27227	1054415	46335	108093	0	0	8265	522142	0	0
2024-10-02 11:08:47			0	39060	0	0	0	22015	20590	157601	27320	1054415	46313	108091	0	0	8265	522599	0	0
2024-10-02 11:09:47			0	39067	0	0	0	22023	20590	157485	26961	1054406	46313	108094	0	0	8265	522332	0	0
2024-10-02 11:10:47			0	39074	0	0	0	22025	20590	157413	27017	1054468	46346	108095	0	0	8265	522065	0	0
2024-10-02 11:11:47			0	39060	0	0	0	22012	20590	157657	26975	1054415	46325	108090	0	0	8265	522599	0	0
2024-10-02 11:12:47			0	39055	0	0	0	22025	20600	157481	27488	1054371	46313	108095	0	0	8264	522761	0	0
2024-10-02 11:13:47			0	39067	0	0	0	22012	20590	157549	27277	1054389	46302	108090	0	0	8265	522332	0	0
2024-10-02 11:14:47			0	39061	0	0	0	22020	20590	157577	26908	1054406	46313	108093	0	0	8265	522561	0	0
2024-10-02 11:15:47			0	39089	0	0	0	22015	20600	157537	26951	1054424	46346	108091	0	0	8266	521465	0	0
2024-10-02 11:16:47			0	39056	0	0	0	22023	20590	157609	27331	1054442	46302	108094	0	0	8264	522751	0	0
2024-10-02 11:17:47			0	39076	0	0	0	22023	20600	157529	27147	1054371	46313	108094	0	0	8265	521960	0	0
2024-10-02 11:18:47			0	39066	0	0	0	22028	20600	157513	27156	1054424	46313	108096	0	0	8265	522341	0	0
2024-10-02 11:19:47			0	39066	0	0	0	22025	20600	157361	27301	1054451	46335	108095	0	0	8265	522341	0	0
2024-10-02 11:20:47			0	39073	0	0	0	22033	20600	157377	27303	1054433	46336	108098	0	0	8265	522074	0	0
2024-10-02 11:21:47			0	39079	0	0	0	22033	20600	157509	27190	1054451	46313	108098	0	0	8265	521846	0	0
2024-10-02 11:22:47			0	39091	0	0	0	22046	20600	157473	27208	1054451	46335	108103	0	0	8266	521389	0	0
2024-10-02 11:23:47			0	39091	0	0	0	22031	20600	157385	27215	1054486	46326	108097	0	0	8266	521389	0	0
2024-10-02 11:24:47			0	39098	0	0	0	22036	20600	157505	27390	1054486	46314	108099	0	0	8267	521122	0	0
2024-10-02 11:25:47			0	39068	0	0	0	22038	20600	157457	26828	1054513	46326	108100	0	0	8265	522265	0	0
2024-10-02 11:26:47			0	39073	0	0	0	22038	20610	157441	27350	1054504	46337	108100	0	0	8265	522046	0	0
2024-10-02 11:27:47			0	39087	0	0	0	22038	20610	157449	27135	1054531	46337	108100	0	0	8266	521512	0	0
2024-10-02 11:28:47			0	39100	0	0	0	22051	20610	157361	27105	1054504	46316	108105	0	0	8266	521018	0	0
2024-10-02 11:29:47			0	39104	0	0	0	22046	20610	157289	27131	1054504	46327	108103	0	0	8267	520865	0	0
2024-10-02 11:30:47			0	39118	0	0	0	22046	20620	157329	27215	1054513	46327	108103	0	0	8268	520304	0	0
2024-10-02 11:31:47			0	39105	0	0	0	22046	20620	157465	27260	1054513	46316	108103	0	0	8267	520798	0	0
2024-10-02 11:32:47			0	39099	0	0	0	22051	20630	157401	27390	1054584	46338	108105	0	0	8266	520998	0	0
2024-10-02 11:33:47			0	39119	0	0	0	22049	20610	157385	27364	1054531	46316	108104	0	0	8268	520295	0	0
2024-10-02 11:34:47			0	39100	0	0	0	22054	20620	157461	27211	1054540	46348	108106	0	0	8266	520989	0	0
2024-10-02 11:35:47			0	39097	0	0	0	22051	20620	157413	27384	1054593	46327	108105	0	0	8266	521103	0	0
2024-10-02 11:36:47			0	39101	0	0	0	22057	20610	157405	27220	1054611	46316	108107	0	0	8266	520979	0	0
2024-10-02 11:37:47			0	39108	0	0	0	22046	20620	157397	27270	1054602	46338	108103	0	0	8267	520684	0	0
2024-10-02 11:38:47			0	39115	0	0	0	22051	20620	157485	27573	1054602	46328	108105	0	0	8267	520418	0	0
2024-10-02 11:39:47			0	39096	0	0	0	22057	20610	157405	27381	1054584	46327	108107	0	0	8266	521170	0	0
2024-10-02 11:40:47			0	39112	0	0	0	22059	20620	157301	27154	1054628	46305	108108	0	0	8267	520532	0	0
2024-10-02 11:41:47			0	39109	0	0	0	22051	20620	157281	27036	1054549	46317	108105	0	0	8267	520646	0	0
2024-10-02 11:42:47			0	39115	0	0	0	22057	20630	157277	27123	1054637	46349	108107	0	0	8267	520389	0	0
2024-10-02 11:43:47			0	39136	0	0	0	22054	20630	157237	26982	1054664	46338	108106	0	0	8269	519591	0	0
2024-10-02 11:44:47			0	39120	0	0	0	22064	20630	157261	27203	1054611	46349	108110	0	0	8267	520199	0	0
2024-10-02 11:45:47			0	39122	0	0	0	22054	20630	157257	27119	1054558	46328	108106	0	0	8268	520123	0	0
2024-10-02 11:46:47			0	39135	0	0	0	22062	20620	157273	27199	1054628	46294	108109	0	0	8268	519658	0	0
2024-10-02 11:47:47			0	39149	0	0	0	22062	20620	157217	27118	1054575	46338	108109	0	0	8269	519126	0	0
2024-10-02 11:48:47			0	39128	0	0	0	22057	20630	157301	27428	1054620	46329	108107	0	0	8268	519895	0	0
2024-10-02 11:49:47			0	39135	0	0	0	22064	20620	157257	27289	1054575	46305	108110	0	0	8268	519658	0	0
2024-10-02 11:50:47			0	39133	0	0	0	22059	20630	157253	27024	1054584	46317	108108	0	0	8268	519705	0	0
2024-10-02 11:51:47			0	39125	0	0	0	22064	20640	157185	27119	1054655	46339	108110	0	0	8268	519980	0	0
2024-10-02 11:52:47			0	39124	0	0	0	22062	20640	157293	27140	1054602	46361	108109	0	0	8268	520018	0	0
2024-10-02 11:53:47			0	39153	0	0	0	22062	20630	157269	27088	1054673	46318	108109	0	0	8269	518946	0	0
2024-10-02 11:54:47			0	39152	0	0	0	22067	20640	157285	27282	1054575	46350	108111	0	0	8269	518955	0	0
2024-10-02 11:55:47			0	39140	0	0	0	22072	20630	157201	27013	1054620	46329	108113	0	0	8268	519439	0	0
2024-10-02 11:56:47			0	39126	0	0	0	22062	20620	157145	27260	1054575	46328	108109	0	0	8268	520000	0	0
2024-10-02 11:57:47			0	39146	0	0	0	22067	20640	157325	27270	1054691	46319	108111	0	0	8269	519183	0	0
2024-10-02 11:58:47			0	39121	0	0	0	22067	20630	157233	27194	1054664	46328	108111	0	0	8267	520161	0	0
2024-10-02 11:59:47			0	39121	0	0	0	22070	20630	157321	27150	1054673	46329	108112	0	0	8267	520161	0	0
2024-10-02 12:00:47			0	39128	0	0	0	22064	20630	157317	27476	1054637	46328	108110	0	0	8268	519895	0	0
2024-10-02 12:01:47			0	39114	0	0	0	22062	20640	157329	27386	1054602	46318	108109	0	0	8267	520399	0	0
2024-10-02 12:02:47			0	39121	0	0	0	22070	20640	157221	27256	1054664	46340	108112	0	0	8267	520132	0	0
2024-10-02 12:03:47			0	39140	0	0	0	22062	20640	157281	27246	1054682	46329	108109	0	0	8269	519410	0	0
2024-10-02 12:04:47			0	39117	0	0	0	22064	20640	157285	27088	1054691	46330	108110	0	0	8267	520284	0	0
2024-10-02 12:05:47			0	39133	0	0	0	22072	20650	157293	27079	1054700	46341	108113	0	0	8268	519648	0	0
2024-10-02 12:06:47			0	39121	0	0	0	22064	20640	157365	26923	1054735	46329	108110	0	0	8268	520132	0	0
2024-10-02 12:07:47			0	39144	0	0	0	22062	20640	157309	27296	1054691	46330	108109	0	0	8269	519258	0	0
2024-10-02 12:08:47			0	39124	0	0	0	22067	20640	157301	27206	1054735	46318	108111	0	0	8268	520018	0	0
2024-10-02 12:09:47			0	39117	0	0	0	22072	20650	157285	27249	1054726	46331	108113	0	0	8267	520256	0	0
2024-10-02 12:10:47			0	39149	0	0	0	22067	20640	157209	27072	1054717	46340	108111	0	0	8269	519069	0	0
2024-10-02 12:11:47			0	39125	0	0	0	22064	20640	157277	27260	1054691	46319	108110	0	0	8268	519980	0	0
2024-10-02 12:12:47			0	39133	0	0	0	22070	20640	157237	27294	1054744	46330	108112	0	0	8268	519676	0	0
2024-10-02 12:13:47			0	39137	0	0	0	22064	20640	157237	27286	1054691	46340	108110	0	0	8268	519524	0	0
2024-10-02 12:14:47			0	39128	0	0	0	22070	20650	157221	27306	1054726	46331	108112	0	0	8268	519838	0	0
2024-10-02 12:15:47			0	39137	0	0	0	22062	20640	157153	27334	1054708	46329	108109	0	0	8269	519524	0	0
2024-10-02 12:16:47			0	39139	0	0	0	22059	20650	157205	27467	1054726	46320	108108	0	0	8269	519420	0	0
2024-10-02 12:17:47			0	39145	0	0	0	22070	20630	157153	27353	1054699	46329	108112	0	0	8269	519249	0	0
2024-10-02 12:18:47			0	39135	0	0	0	22067	20640	157217	26977	1054655	46339	108111	0	0	8268	519600	0	0
2024-10-02 12:19:47			0	39120	0	0	0	22075	20650	157225	27192	1054735	46341	108114	0	0	8267	520142	0	0
2024-10-02 12:20:47			0	39127	0	0	0	22072	20640	157317	27204	1054691	46340	108113	0	0	8268	519904	0	0
2024-10-02 12:21:47			0	39149	0	0	0	22072	20640	157293	27241	1054717	46340	108113	0	0	8269	519069	0	0
2024-10-02 12:22:47			0	39131	0	0	0	22080	20640	157229	27135	1054744	46330	108116	0	0	8268	519752	0	0
2024-10-02 12:23:47			0	39131	0	0	0	22072	20650	157293	27230	1054726	46320	108113	0	0	8268	519724	0	0
2024-10-02 12:24:47			0	39151	0	0	0	22077	20640	157177	27069	1054744	46330	108115	0	0	8269	518993	0	0
2024-10-02 12:25:47			0	39115	0	0	0	22077	20650	157249	27192	1054673	46331	108115	0	0	8267	520332	0	0
2024-10-02 12:26:47			0	39134	0	0	0	22077	20650	157209	27331	1054655	46341	108115	0	0	8268	519610	0	0
2024-10-02 12:27:47			0	39151	0	0	0	22072	20650	157345	27249	1054726	46331	108113	0	0	8269	518964	0	0
2024-10-02 12:28:47			0	39137	0	0	0	22075	20650	157225	27157	1054726	46331	108114	0	0	8268	519496	0	0
2024-10-02 12:29:47			0	39135	0	0	0	22077	20650	157261	27268	1054700	46331	108115	0	0	8268	519572	0	0
2024-10-02 12:30:47			0	39127	0	0	0	22070	20650	157225	27222	1054735	46341	108112	0	0	8268	519876	0	0
2024-10-02 12:31:47			0	39138	0	0	0	22077	20660	157173	27569	1054797	46353	108115	0	0	8268	519429	0	0
2024-10-02 12:32:47			0	39137	0	0	0	22080	20650	157105	27620	1054780	46331	108116	0	0	8268	519496	0	0
2024-10-02 12:33:47			0	39141	0	0	0	22075	20660	157153	26975	1054797	46321	108114	0	0	8269	519315	0	0
2024-10-02 12:34:47			0	39155	0	0	0	22077	20640	157141	27286	1054797	46340	108115	0	0	8269	518841	0	0
2024-10-02 12:35:47			0	39150	0	0	0	22080	20660	157033	27194	1054771	46332	108116	0	0	8269	518973	0	0
2024-10-02 12:36:47			0	39148	0	0	0	22080	20660	157165	27086	1054753	46321	108116	0	0	8269	519049	0	0
2024-10-02 12:37:47			0	39155	0	0	0	22088	20660	157085	27206	1054744	46332	108119	0	0	8269	518783	0	0
2024-10-02 12:38:47			0	39161	0	0	0	22080	20660	157185	27126	1054744	46342	108116	0	0	8270	518556	0	0
2024-10-02 12:39:47			0	39163	0	0	0	22075	20660	157185	27422	1054744	46321	108114	0	0	8270	518480	0	0
2024-10-02 12:40:47			0	39176	0	0	0	22085	20660	157097	27202	1054806	46332	108118	0	0	8270	517987	0	0
2024-10-02 12:41:47			0	39136	0	0	0	22083	20660	157093	27104	1054753	46321	108117	0	0	8268	519505	0	0
2024-10-02 12:42:47			0	39170	0	0	0	22085	20660	157061	27206	1054806	46342	108118	0	0	8270	518214	0	0
2024-10-02 12:43:47			0	39154	0	0	0	22077	20660	157117	27206	1054771	46332	108115	0	0	8269	518821	0	0
2024-10-02 12:44:47			0	39166	0	0	0	22083	20650	157109	27078	1054762	46331	108117	0	0	8270	518395	0	0
2024-10-02 12:45:47			0	39158	0	0	0	22083	20660	157129	27062	1054744	46353	108117	0	0	8269	518670	0	0
2024-10-02 12:46:47			0	39174	0	0	0	22085	20650	157045	27119	1054735	46341	108118	0	0	8270	518091	0	0
2024-10-02 12:47:47			0	39165	0	0	0	22088	20660	157093	27244	1054806	46342	108119	0	0	8270	518404	0	0
2024-10-02 12:48:47			0	39167	0	0	0	22088	20660	157065	27327	1054771	46332	108119	0	0	8270	518328	0	0
2024-10-02 12:49:47			0	39161	0	0	0	22088	20660	157037	27182	1054771	46342	108119	0	0	8270	518556	0	0
2024-10-02 12:50:47			0	39169	0	0	0	22083	20650	157089	27072	1054788	46331	108117	0	0	8270	518281	0	0
2024-10-02 12:51:47			0	39179	0	0	0	22090	20660	157077	27263	1054824	46353	108120	0	0	8271	517873	0	0
2024-10-02 12:52:47			0	39158	0	0	0	22093	20660	157045	27156	1054780	46332	108121	0	0	8269	518670	0	0
2024-10-02 12:53:47			0	39183	0	0	0	22083	20670	157129	26876	1054842	46322	108117	0	0	8271	517693	0	0
2024-10-02 12:54:47			0	39162	0	0	0	22083	20660	157013	27376	1054780	46321	108117	0	0	8270	518518	0	0
2024-10-02 12:55:47			0	39174	0	0	0	22096	20660	157029	27097	1054753	46332	108122	0	0	8270	518063	0	0
2024-10-02 12:56:47			0	39175	0	0	0	22085	20660	157085	27374	1054744	46342	108118	0	0	8270	518025	0	0
2024-10-02 12:57:47			0	39165	0	0	0	22096	20660	157033	27149	1054780	46342	108122	0	0	8270	518404	0	0
2024-10-02 12:58:47			0	39159	0	0	0	22093	20670	157081	27281	1054815	46322	108121	0	0	8269	518603	0	0
2024-10-02 12:59:47			0	39163	0	0	0	22088	20660	157125	27253	1054806	46342	108119	0	0	8270	518480	0	0
2024-10-02 13:00:47			0	39183	0	0	0	22088	20660	157013	27213	1054806	46332	108119	0	0	8271	517721	0	0
2024-10-02 13:01:47			0	39177	0	0	0	22093	20660	157165	27727	1054806	46332	108121	0	0	8270	517949	0	0
2024-10-02 13:02:47			0	39174	0	0	0	22093	20660	157141	27483	1054780	46332	108121	0	0	8270	518063	0	0
2024-10-02 13:03:47			0	39193	0	0	0	22093	20670	157125	27116	1054789	46333	108121	0	0	8271	517314	0	0
2024-10-02 13:04:47			0	39159	0	0	0	22096	20670	157093	27429	1054815	46333	108122	0	0	8269	518603	0	0
2024-10-02 13:05:47			0	39174	0	0	0	22106	20670	157025	27166	1054815	46343	108126	0	0	8270	518034	0	0
2024-10-02 13:06:47			0	39170	0	0	0	22093	20660	157077	27270	1054780	46332	108121	0	0	8270	518214	0	0
2024-10-02 13:07:47			0	39194	0	0	0	22103	20670	157089	27331	1054815	46333	108125	0	0	8271	517276	0	0
2024-10-02 13:08:47			0	39196	0	0	0	22096	20670	156977	27227	1054851	46343	108122	0	0	8271	517200	0	0
2024-10-02 13:09:47			0	39180	0	0	0	22101	20670	157125	27225	1054851	46322	108124	0	0	8270	517806	0	0
2024-10-02 13:10:47			0	39188	0	0	0	22101	20670	156997	27431	1054851	46343	108124	0	0	8271	517503	0	0
2024-10-02 13:11:47			0	39188	0	0	0	22103	20670	157033	27112	1054815	46333	108125	0	0	8271	517503	0	0
2024-10-02 13:12:47			0	39184	0	0	0	22088	20680	157097	27434	1054860	46323	108119	0	0	8271	517626	0	0
2024-10-02 13:13:47			0	39192	0	0	0	22103	20660	157045	27595	1054780	46332	108125	0	0	8271	517380	0	0
2024-10-02 13:14:47			0	39200	0	0	0	22096	20670	157005	27306	1054842	46310	108122	0	0	8272	517048	0	0
2024-10-02 13:15:47			0	39165	0	0	0	22096	20670	157013	27447	1054824	46322	108122	0	0	8270	518375	0	0
2024-10-02 13:16:47			0	39175	0	0	0	22096	20680	156949	27455	1054913	46333	108122	0	0	8270	517967	0	0
2024-10-02 13:17:47			0	39192	0	0	0	22101	20670	156989	27459	1054868	46333	108124	0	0	8271	517352	0	0
2024-10-02 13:18:47			0	39176	0	0	0	22106	20660	157077	27569	1054886	46332	108126	0	0	8270	517987	0	0
2024-10-02 13:19:47			0	39177	0	0	0	22098	20670	157065	27536	1054842	46343	108123	0	0	8270	517920	0	0
2024-10-02 13:20:47			0	39187	0	0	0	22103	20680	157061	27377	1054886	46344	108125	0	0	8271	517512	0	0
2024-10-02 13:21:47			0	39181	0	0	0	22106	20670	156977	27488	1054877	46333	108126	0	0	8270	517769	0	0
2024-10-02 13:22:47			0	39196	0	0	0	22098	20670	156989	27556	1054851	46343	108123	0	0	8271	517200	0	0
2024-10-02 13:23:47			0	39176	0	0	0	22096	20670	157149	27211	1054842	46333	108122	0	0	8270	517958	0	0
2024-10-02 13:24:47			0	39191	0	0	0	22106	20680	157117	27398	1054860	46344	108126	0	0	8271	517361	0	0
2024-10-02 13:25:47			0	39194	0	0	0	22098	20670	157053	27453	1054904	46343	108123	0	0	8271	517276	0	0
2024-10-02 13:26:47			0	39172	0	0	0	22096	20680	157061	27640	1054895	46344	108122	0	0	8270	518081	0	0
2024-10-02 13:27:47			0	39188	0	0	0	22101	20670	157209	27561	1054877	46333	108124	0	0	8271	517503	0	0
2024-10-02 13:28:47			0	39179	0	0	0	22098	20680	157093	27492	1054833	46344	108123	0	0	8271	517816	0	0
2024-10-02 13:29:47			0	39156	0	0	0	22098	20680	157025	26949	1054869	46333	108123	0	0	8269	518688	0	0
2024-10-02 13:30:47			0	39170	0	0	0	22109	20670	157137	27197	1054877	46333	108127	0	0	8270	518186	0	0
2024-10-02 13:31:47			0	39170	0	0	0	22101	20670	157121	27142	1054904	46333	108124	0	0	8270	518186	0	0
2024-10-02 13:32:47			0	39186	0	0	0	22106	20690	157049	27019	1054904	46334	108126	0	0	8271	517522	0	0
2024-10-02 13:33:47			0	39192	0	0	0	22103	20670	157077	27280	1054851	46322	108125	0	0	8271	517352	0	0
2024-10-02 13:34:47			0	39171	0	0	0	22111	20680	157117	27331	1054860	46333	108128	0	0	8270	518119	0	0
2024-10-02 13:35:47			0	39158	0	0	0	22093	20680	157189	27105	1054913	46333	108121	0	0	8269	518612	0	0
2024-10-02 13:36:47			0	39168	0	0	0	22106	20690	157149	27190	1054904	46345	108126	0	0	8270	518204	0	0
2024-10-02 13:37:47			0	39163	0	0	0	22098	20690	157113	27346	1054931	46324	108123	0	0	8270	518394	0	0
2024-10-02 13:38:47			0	39174	0	0	0	22098	20690	157037	27211	1054878	46334	108123	0	0	8270	517977	0	0
2024-10-02 13:39:47			0	39169	0	0	0	22103	20670	157109	27156	1054824	46354	108125	0	0	8270	518224	0	0
2024-10-02 13:40:47			0	39178	0	0	0	22109	20680	157101	26979	1054886	46333	108127	0	0	8270	517854	0	0
2024-10-02 13:41:47			0	39188	0	0	0	22119	20680	157157	27327	1054886	46344	108131	0	0	8271	517475	0	0
2024-10-02 13:42:47			0	39188	0	0	0	22103	20680	157185	27237	1054860	46367	108125	0	0	8271	517475	0	0
2024-10-02 13:43:47			0	39185	0	0	0	22106	20670	157073	27587	1054851	46343	108126	0	0	8271	517617	0	0
2024-10-02 13:44:47			0	39172	0	0	0	22109	20670	157097	27343	1054877	46333	108127	0	0	8270	518110	0	0
2024-10-02 13:45:47			0	39174	0	0	0	22101	20680	157041	27289	1054886	46333	108124	0	0	8270	518005	0	0
2024-10-02 13:46:47			0	39176	0	0	0	22109	20680	156929	27364	1054869	46323	108127	0	0	8270	517929	0	0
2024-10-02 13:47:47			0	39171	0	0	0	22101	20680	157045	27012	1054922	46344	108124	0	0	8270	518119	0	0
2024-10-02 13:48:47			0	39189	0	0	0	22111	20680	156977	27121	1054860	46333	108128	0	0	8271	517437	0	0
2024-10-02 13:49:47			0	39184	0	0	0	22109	20680	157061	27038	1054913	46333	108127	0	0	8271	517626	0	0
2024-10-02 13:50:47			0	39176	0	0	0	22109	20680	157009	27286	1054886	46333	108127	0	0	8270	517929	0	0
2024-10-02 13:51:47			0	39183	0	0	0	22096	20680	157037	27206	1054913	46333	108122	0	0	8271	517664	0	0
2024-10-02 13:52:47			0	39199	0	0	0	22106	20690	156985	27377	1054904	46345	108126	0	0	8272	517029	0	0
2024-10-02 13:53:47			0	39191	0	0	0	22109	20690	156985	27353	1054904	46345	108127	0	0	8271	517332	0	0
2024-10-02 13:54:47			0	39169	0	0	0	22101	20680	157017	27185	1054860	46333	108124	0	0	8270	518195	0	0
2024-10-02 13:55:47			0	39191	0	0	0	22106	20670	157009	27197	1054877	46343	108126	0	0	8271	517389	0	0
2024-10-02 13:56:47			0	39177	0	0	0	22101	20680	156949	27026	1054886	46344	108124	0	0	8270	517892	0	0
2024-10-02 13:57:47			0	39188	0	0	0	22106	20680	157081	27055	1054860	46344	108126	0	0	8271	517475	0	0
2024-10-02 13:58:47			0	39187	0	0	0	22101	20670	157021	27293	1054798	46322	108124	0	0	8271	517541	0	0
2024-10-02 13:59:47			0	39181	0	0	0	22098	20680	157065	26812	1054913	46344	108123	0	0	8271	517740	0	0
2024-10-02 14:00:47			0	39195	0	0	0	22103	20690	157065	26896	1054904	46345	108125	0	0	8271	517181	0	0
2024-10-02 14:01:47			0	39177	0	0	0	22101	20670	157065	26857	1054815	46343	108124	0	0	8270	517920	0	0
2024-10-02 14:02:47			0	39181	0	0	0	22109	20680	157129	27126	1054886	46333	108127	0	0	8270	517740	0	0
2024-10-02 14:03:47			0	39182	0	0	0	22101	20670	157021	27222	1054877	46343	108124	0	0	8271	517731	0	0
2024-10-02 14:04:47			0	39179	0	0	0	22101	20680	157041	27372	1054913	46344	108124	0	0	8270	517816	0	0
2024-10-02 14:05:47			0	39190	0	0	0	22098	20670	157097	27090	1054851	46343	108123	0	0	8271	517427	0	0
2024-10-02 14:06:47			0	39181	0	0	0	22098	20680	157061	27410	1054833	46323	108123	0	0	8271	517740	0	0
2024-10-02 14:07:47			0	39197	0	0	0	22101	20670	156993	27150	1054851	46333	108124	0	0	8271	517162	0	0
2024-10-02 14:08:47			0	39188	0	0	0	22101	20670	157033	27308	1054789	46322	108124	0	0	8271	517503	0	0
2024-10-02 14:09:47			0	39174	0	0	0	22096	20680	157053	27256	1054806	46344	108122	0	0	8270	518005	0	0
2024-10-02 14:10:47			0	39183	0	0	0	22103	20680	157045	27137	1054869	46344	108125	0	0	8271	517664	0	0
2024-10-02 14:11:47			0	39183	0	0	0	22101	20690	157113	27319	1054931	46324	108124	0	0	8271	517635	0	0
2024-10-02 14:12:47			0	39193	0	0	0	22103	20680	157061	27268	1054922	46333	108125	0	0	8271	517285	0	0
2024-10-02 14:13:47			0	39171	0	0	0	22093	20670	156973	27150	1054922	46322	108121	0	0	8270	518148	0	0
2024-10-02 14:14:47			0	39165	0	0	0	22106	20680	157093	27251	1054886	46344	108126	0	0	8270	518347	0	0
2024-10-02 14:15:47			0	39197	0	0	0	22098	20670	156953	27138	1054815	46322	108123	0	0	8272	517162	0	0
2024-10-02 14:16:47			0	39193	0	0	0	22090	20680	157005	27251	1054886	46333	108120	0	0	8271	517285	0	0
2024-10-02 14:17:47			0	39177	0	0	0	22103	20670	156985	27229	1054824	46322	108125	0	0	8270	517920	0	0
2024-10-02 14:18:47			0	39174	0	0	0	22096	20680	157069	27474	1054886	46333	108122	0	0	8270	518005	0	0
2024-10-02 14:19:47			0	39174	0	0	0	22098	20680	157089	27419	1054869	46344	108123	0	0	8270	518005	0	0
2024-10-02 14:20:47			0	39167	0	0	0	22098	20670	157133	27206	1054851	46333	108123	0	0	8270	518299	0	0
2024-10-02 14:21:47			0	39179	0	0	0	22090	20680	157073	27395	1054913	46344	108120	0	0	8271	517816	0	0
2024-10-02 14:22:47			0	39174	0	0	0	22096	20680	157117	27201	1054895	46311	108122	0	0	8270	518005	0	0
2024-10-02 14:23:47			0	39154	0	0	0	22098	20680	157077	27315	1054886	46344	108123	0	0	8269	518764	0	0
2024-10-02 14:24:47			0	39158	0	0	0	22098	20670	157113	27232	1054877	46343	108123	0	0	8269	518641	0	0
2024-10-02 14:25:47			0	39147	0	0	0	22106	20670	157169	27235	1054851	46333	108126	0	0	8268	519058	0	0
2024-10-02 14:26:47			0	39149	0	0	0	22101	20670	157169	27315	1054824	46343	108124	0	0	8269	518983	0	0
2024-10-02 14:27:47			0	39140	0	0	0	22098	20680	157197	27218	1054860	46333	108123	0	0	8268	519295	0	0
2024-10-02 14:28:47			0	39145	0	0	0	22106	20670	157057	27355	1054824	46333	108126	0	0	8268	519134	0	0
2024-10-02 14:29:47			0	39147	0	0	0	22103	20680	157085	27277	1054860	46333	108125	0	0	8269	519030	0	0
2024-10-02 14:30:47			0	39137	0	0	0	22111	20680	157221	27642	1054833	46333	108128	0	0	8268	519409	0	0
2024-10-02 14:31:47			0	39146	0	0	0	22101	20680	157137	27315	1054895	46344	108124	0	0	8269	519068	0	0
2024-10-02 14:32:47			0	39164	0	0	0	22111	20670	157181	27687	1054904	46333	108128	0	0	8269	518413	0	0
2024-10-02 14:33:47			0	39153	0	0	0	22106	20680	157149	27590	1054842	46333	108126	0	0	8269	518802	0	0
2024-10-02 14:34:47			0	39174	0	0	0	22111	20680	157121	27176	1054913	46344	108128	0	0	8270	518005	0	0
2024-10-02 14:35:47			0	39176	0	0	0	22109	20680	157097	27267	1054869	46344	108127	0	0	8270	517929	0	0
2024-10-02 14:36:47			0	39165	0	0	0	22111	20680	157113	27105	1054922	46333	108128	0	0	8269	518347	0	0
2024-10-02 14:37:47			0	39148	0	0	0	22111	20690	157185	27154	1054931	46312	108128	0	0	8269	518963	0	0
2024-10-02 14:38:47			0	39163	0	0	0	22111	20680	157073	27454	1054860	46323	108128	0	0	8269	518423	0	0
2024-10-02 14:39:47			0	39169	0	0	0	22114	20690	157057	27644	1054904	46334	108129	0	0	8270	518166	0	0
2024-10-02 14:40:47			0	39174	0	0	0	22116	20690	157061	27405	1055020	46334	108130	0	0	8270	517977	0	0
2024-10-02 14:41:47			0	39187	0	0	0	22114	20690	156921	27384	1054957	46345	108129	0	0	8271	517484	0	0
2024-10-02 14:42:47			0	39193	0	0	0	22114	20680	157017	27398	1054913	46311	108129	0	0	8271	517285	0	0
2024-10-02 14:43:47			0	39190	0	0	0	22109	20690	156973	27242	1054931	46334	108127	0	0	8271	517370	0	0
2024-10-02 14:44:47			0	39192	0	0	0	22114	20690	156957	27213	1054913	46345	108129	0	0	8271	517294	0	0
2024-10-02 14:45:47			0	39213	0	0	0	22109	20690	156937	27216	1054931	46324	108127	0	0	8272	516499	0	0
2024-10-02 14:46:47			0	39190	0	0	0	22114	20690	156997	27164	1054957	46334	108129	0	0	8271	517370	0	0
2024-10-02 14:47:47			0	39193	0	0	0	22119	20690	156997	27549	1054904	46345	108131	0	0	8271	517256	0	0
2024-10-02 14:48:47			0	39209	0	0	0	22116	20690	156953	27079	1054984	46324	108130	0	0	8272	516650	0	0
2024-10-02 14:49:47			0	39213	0	0	0	22114	20690	156925	27372	1054957	46345	108129	0	0	8272	516499	0	0
2024-10-02 14:50:47			0	39230	0	0	0	22127	20690	156917	27706	1054957	46345	108134	0	0	8273	515856	0	0
2024-10-02 14:51:47			0	39231	0	0	0	22116	20690	156809	27447	1054957	46334	108130	0	0	8273	515818	0	0
2024-10-02 14:52:47			0	39222	0	0	0	22124	20700	156969	27249	1054975	46357	108133	0	0	8273	516130	0	0
2024-10-02 14:53:47			0	39230	0	0	0	22140	20690	156917	27357	1054984	46334	108139	0	0	8273	515856	0	0
2024-10-02 14:54:47			0	39244	0	0	0	22132	20710	156849	27696	1055046	46347	108136	0	0	8274	515269	0	0
2024-10-02 14:55:47			0	39238	0	0	0	22140	20700	156825	28077	1055011	46336	108139	0	0	8273	515525	0	0
2024-10-02 14:56:47			0	39238	0	0	0	22145	20690	156729	27698	1055020	46334	108141	0	0	8273	515553	0	0
2024-10-02 14:57:47			0	39274	0	0	0	22150	20710	156753	27864	1054993	46358	108143	0	0	8275	514136	0	0
2024-10-02 14:58:47			0	39276	0	0	0	22153	20700	156609	28318	1055002	46368	108144	0	0	8275	514089	0	0
2024-10-02 14:59:47			0	39294	0	0	0	22168	20710	156621	27640	1055020	46347	108150	0	0	8276	513381	0	0
2024-10-02 15:00:47			0	39295	0	0	0	22153	20720	156609	27656	1055065	46359	108144	0	0	8276	513315	0	0
2024-10-02 15:01:47			0	39272	0	0	0	22140	20710	156497	27639	1055100	46336	108139	0	0	8275	514212	0	0
2024-10-02 15:02:47			0	39268	0	0	0	22135	20720	156605	27396	1055038	46337	108137	0	0	8275	514334	0	0
2024-10-02 15:03:47			0	39296	0	0	0	22153	20710	156525	27566	1055082	46347	108144	0	0	8276	513306	0	0
2024-10-02 15:04:47			0	39297	0	0	0	22148	20710	156501	27381	1055082	46336	108142	0	0	8277	513268	0	0
2024-10-02 15:05:47			0	39296	0	0	0	22145	20710	156509	27211	1055056	46326	108141	0	0	8277	513306	0	0
2024-10-02 15:06:47			0	39304	0	0	0	22150	20710	156497	27126	1055109	46347	108143	0	0	8277	513004	0	0
2024-10-02 15:07:47			0	39287	0	0	0	22145	20720	156497	27507	1055073	46328	108141	0	0	8276	513617	0	0
2024-10-02 15:08:47			0	39298	0	0	0	22155	20720	156473	27213	1055065	46327	108145	0	0	8277	513202	0	0
2024-10-02 15:09:47			0	39325	0	0	0	22153	20720	156485	27656	1055127	46328	108144	0	0	8278	512184	0	0
2024-10-02 15:10:47			0	39324	0	0	0	22145	20720	156441	27609	1055065	46348	108141	0	0	8278	512222	0	0
2024-10-02 15:11:47			0	39323	0	0	0	22148	20720	156441	27417	1055100	46360	108142	0	0	8278	512260	0	0
2024-10-02 15:12:47			0	39324	0	0	0	22145	20720	156413	27428	1055171	46337	108141	0	0	8278	512222	0	0
2024-10-02 15:13:47			0	39332	0	0	0	22153	20710	156417	27757	1055189	46326	108144	0	0	8279	511949	0	0
2024-10-02 15:14:47			0	39322	0	0	0	22155	20720	156465	27457	1055100	46328	108145	0	0	8278	512297	0	0
2024-10-02 15:15:47			0	39332	0	0	0	22155	20730	156497	27448	1055162	46360	108145	0	0	8279	511892	0	0
2024-10-02 15:16:47			0	39310	0	0	0	22145	20720	156417	27540	1055127	46349	108141	0	0	8277	512750	0	0
2024-10-02 15:17:47			0	39331	0	0	0	22161	20720	156405	27505	1055073	46338	108147	0	0	8278	511958	0	0
2024-10-02 15:18:47			0	39332	0	0	0	22163	20720	156485	27977	1055144	46327	108148	0	0	8278	511921	0	0
2024-10-02 15:19:47			0	39320	0	0	0	22161	20730	156209	27770	1055198	46350	108147	0	0	8278	512344	0	0
2024-10-02 15:20:47			0	39342	0	0	0	22158	20720	156341	27360	1055153	46349	108146	0	0	8279	511544	0	0
2024-10-02 15:21:47			0	39347	0	0	0	22171	20730	156325	27871	1055189	46349	108151	0	0	8279	511328	0	0
2024-10-02 15:22:47			0	39354	0	0	0	22168	20730	156213	27528	1055145	46350	108150	0	0	8280	511064	0	0
2024-10-02 15:23:47			0	39380	0	0	0	22174	20730	156285	27514	1055171	46350	108152	0	0	8281	510087	0	0
2024-10-02 15:24:47			0	39379	0	0	0	22166	20730	156169	27267	1055189	46360	108149	0	0	8281	510124	0	0
2024-10-02 15:25:47			0	39383	0	0	0	22176	20730	156201	27518	1055189	46338	108153	0	0	8281	509974	0	0
2024-10-02 15:26:47			0	39375	0	0	0	22171	20730	156221	27173	1055198	46350	108151	0	0	8281	510275	0	0
2024-10-02 15:27:47			0	39377	0	0	0	22163	20730	156169	27178	1055189	46349	108148	0	0	8281	510200	0	0
2024-10-02 15:28:47			0	39398	0	0	0	22163	20740	156089	27244	1055162	46330	108148	0	0	8282	509383	0	0
2024-10-02 15:29:47			0	39362	0	0	0	22166	20730	156105	27267	1055224	46339	108149	0	0	8280	510764	0	0
2024-10-02 15:30:47			0	39387	0	0	0	22171	20740	156233	27121	1055233	46317	108151	0	0	8282	509796	0	0
2024-10-02 15:31:47			0	39368	0	0	0	22161	20740	156265	27237	1055216	46340	108147	0	0	8281	510510	0	0
2024-10-02 15:32:47			0	39380	0	0	0	22161	20740	156321	27215	1055216	46330	108147	0	0	8281	510059	0	0
2024-10-02 15:33:47			0	39373	0	0	0	22166	20740	156141	27457	1055207	46339	108149	0	0	8281	510322	0	0
2024-10-02 15:34:47			0	39365	0	0	0	22166	20730	156205	27230	1055171	46339	108149	0	0	8280	510651	0	0
2024-10-02 15:35:47			0	39361	0	0	0	22161	20740	156237	27274	1055153	46329	108147	0	0	8280	510773	0	0
2024-10-02 15:36:47			0	39366	0	0	0	22163	20730	156141	27284	1055224	46329	108148	0	0	8280	510613	0	0
2024-10-02 15:37:47			0	39343	0	0	0	22174	20740	156153	27209	1055207	46339	108152	0	0	8279	511450	0	0
2024-10-02 15:38:47			0	39358	0	0	0	22155	20740	156193	27248	1055216	46340	108145	0	0	8280	510886	0	0
2024-10-02 15:39:47			0	39361	0	0	0	22150	20740	156245	27234	1055207	46317	108143	0	0	8280	510773	0	0
2024-10-02 15:40:47			0	39337	0	0	0	22153	20730	156365	27365	1055198	46339	108144	0	0	8279	511704	0	0
2024-10-02 15:41:47			0	39343	0	0	0	22166	20740	156293	27265	1055180	46339	108149	0	0	8279	511450	0	0
2024-10-02 15:42:47			0	39337	0	0	0	22163	20730	156281	27429	1055251	46329	108148	0	0	8279	511704	0	0
2024-10-02 15:43:47			0	39359	0	0	0	22155	20730	156313	27455	1055171	46339	108145	0	0	8280	510876	0	0
2024-10-02 15:44:47			0	39350	0	0	0	22161	20730	156305	27428	1055136	46328	108147	0	0	8280	511215	0	0
2024-10-02 15:45:47			0	39352	0	0	0	22161	20730	156285	27308	1055145	46329	108147	0	0	8280	511140	0	0
2024-10-02 15:46:47			0	39349	0	0	0	22158	20730	156425	27573	1055198	46329	108146	0	0	8280	511253	0	0
2024-10-02 15:47:47			0	39342	0	0	0	22150	20740	156325	27060	1055136	46340	108143	0	0	8279	511488	0	0
2024-10-02 15:48:47			0	39339	0	0	0	22155	20740	156325	27119	1055207	46350	108145	0	0	8279	511601	0	0
2024-10-02 15:49:47			0	39332	0	0	0	22153	20730	156337	27003	1055215	46338	108144	0	0	8279	511892	0	0
2024-10-02 15:50:47			0	39341	0	0	0	22161	20730	156349	27144	1055136	46338	108147	0	0	8279	511554	0	0
2024-10-02 15:51:47			0	39328	0	0	0	22142	20740	156381	27346	1055207	46339	108140	0	0	8279	512015	0	0
2024-10-02 15:52:47			0	39340	0	0	0	22155	20720	156325	27111	1055153	46328	108145	0	0	8279	511620	0	0
2024-10-02 15:53:47			0	39315	0	0	0	22153	20730	156381	27185	1055162	46328	108144	0	0	8278	512533	0	0
2024-10-02 15:54:47			0	39330	0	0	0	22166	20740	156381	27159	1055233	46339	108149	0	0	8278	511939	0	0
2024-10-02 15:55:47			0	39326	0	0	0	22158	20730	156401	27310	1055145	46339	108146	0	0	8278	512118	0	0
2024-10-02 15:56:47			0	39312	0	0	0	22155	20730	156433	27384	1055162	46328	108145	0	0	8277	512646	0	0
2024-10-02 15:57:47			0	39315	0	0	0	22145	20730	156549	27164	1055189	46349	108141	0	0	8278	512533	0	0
2024-10-02 15:58:47			0	39296	0	0	0	22148	20730	156509	27505	1055136	46349	108142	0	0	8277	513249	0	0
2024-10-02 15:59:47			0	39306	0	0	0	22153	20730	156433	27130	1055145	46329	108144	0	0	8277	512872	0	0
2024-10-02 16:00:47			0	39290	0	0	0	22150	20720	156417	27441	1055171	46327	108143	0	0	8276	513504	0	0
2024-10-02 16:01:47			0	39314	0	0	0	22148	20720	156501	27377	1055118	46337	108142	0	0	8278	512599	0	0
2024-10-02 16:02:47			0	39317	0	0	0	22148	20720	156529	27282	1055153	46338	108142	0	0	8278	512486	0	0
2024-10-02 16:03:47			0	39279	0	0	0	22148	20730	156393	27476	1055136	46328	108142	0	0	8276	513890	0	0
2024-10-02 16:04:47			0	39311	0	0	0	22155	20720	156465	27183	1055171	46337	108145	0	0	8277	512712	0	0
2024-10-02 16:05:47			0	39285	0	0	0	22145	20730	156593	26918	1055136	46349	108141	0	0	8276	513664	0	0
2024-10-02 16:06:47			0	39289	0	0	0	22148	20730	156553	27225	1055145	46339	108142	0	0	8276	513513	0	0
2024-10-02 16:07:47			0	39287	0	0	0	22145	20730	156449	27386	1055162	46338	108141	0	0	8276	513589	0	0
2024-10-02 16:08:47			0	39277	0	0	0	22153	20710	156613	27152	1055162	46326	108144	0	0	8275	514023	0	0
2024-10-02 16:09:47			0	39269	0	0	0	22142	20730	156665	27128	1055136	46328	108140	0	0	8275	514268	0	0
2024-10-02 16:10:47			0	39268	0	0	0	22148	20720	156617	27118	1055153	46338	108142	0	0	8275	514334	0	0
2024-10-02 16:11:47			0	39274	0	0	0	22150	20720	156609	27206	1055127	46328	108143	0	0	8275	514108	0	0
2024-10-02 16:12:47			0	39270	0	0	0	22145	20730	156685	27208	1055215	46338	108141	0	0	8275	514230	0	0
2024-10-02 16:13:47			0	39263	0	0	0	22148	20720	156581	27346	1055091	46315	108142	0	0	8275	514523	0	0
2024-10-02 16:14:47			0	39258	0	0	0	22142	20720	156669	26941	1055118	46337	108140	0	0	8275	514712	0	0
2024-10-02 16:15:47			0	39261	0	0	0	22148	20730	156657	27320	1055189	46349	108142	0	0	8275	514570	0	0
2024-10-02 16:16:47			0	39254	0	0	0	22145	20720	156681	27305	1055144	46359	108141	0	0	8274	514863	0	0
2024-10-02 16:17:47			0	39246	0	0	0	22148	20720	156653	27225	1055144	46348	108142	0	0	8274	515165	0	0
2024-10-02 16:18:47			0	39260	0	0	0	22142	20720	156709	26922	1055144	46337	108140	0	0	8275	514636	0	0
2024-10-02 16:19:47			0	39229	0	0	0	22142	20720	156833	26916	1055127	46338	108140	0	0	8273	515808	0	0
2024-10-02 16:20:47			0	39229	0	0	0	22145	20710	156825	27206	1055082	46336	108141	0	0	8273	515836	0	0
2024-10-02 16:21:47			0	39233	0	0	0	22142	20720	156873	27554	1055118	46315	108140	0	0	8273	515657	0	0
2024-10-02 16:22:47			0	39230	0	0	0	22148	20720	156777	27216	1055118	46348	108142	0	0	8273	515770	0	0
2024-10-02 16:23:47			0	39213	0	0	0	22142	20720	156861	27086	1055091	46315	108140	0	0	8272	516413	0	0
2024-10-02 16:24:47			0	39232	0	0	0	22142	20710	156733	26986	1055056	46326	108140	0	0	8273	515723	0	0
2024-10-02 16:25:47			0	39227	0	0	0	22142	20720	156829	27216	1055118	46337	108140	0	0	8273	515884	0	0
2024-10-02 16:26:47			0	39216	0	0	0	22145	20720	156781	27391	1055091	46327	108141	0	0	8272	516300	0	0
2024-10-02 16:27:47			0	39193	0	0	0	22140	20720	156741	27036	1055091	46327	108139	0	0	8271	517171	0	0
2024-10-02 16:28:47			0	39194	0	0	0	22137	20710	156885	27223	1055056	46347	108138	0	0	8271	517161	0	0
2024-10-02 16:29:47			0	39209	0	0	0	22140	20720	156885	27357	1055118	46327	108139	0	0	8272	516565	0	0
2024-10-02 16:30:47			0	39196	0	0	0	22135	20710	157001	27147	1055109	46336	108137	0	0	8271	517086	0	0
2024-10-02 16:31:47			0	39199	0	0	0	22140	20710	156929	27192	1055109	46336	108139	0	0	8271	516972	0	0
2024-10-02 16:32:47			0	39178	0	0	0	22137	20700	156989	27050	1055091	46336	108138	0	0	8270	517796	0	0
2024-10-02 16:33:47			0	39183	0	0	0	22132	20710	156941	27230	1055056	46347	108136	0	0	8270	517578	0	0
2024-10-02 16:34:47			0	39183	0	0	0	22135	20710	157005	27076	1055109	46326	108137	0	0	8270	517578	0	0
2024-10-02 16:35:47			0	39164	0	0	0	22129	20710	156933	27360	1055056	46336	108135	0	0	8269	518298	0	0
2024-10-02 16:36:47			0	39183	0	0	0	22132	20710	156985	27213	1055029	46326	108136	0	0	8270	517578	0	0
2024-10-02 16:37:47			0	39180	0	0	0	22132	20710	157053	27253	1055109	46336	108136	0	0	8270	517692	0	0
2024-10-02 16:38:47			0	39147	0	0	0	22132	20710	157065	27045	1055109	46336	108136	0	0	8268	518943	0	0
2024-10-02 16:39:47			0	39171	0	0	0	22137	20720	156969	27327	1055127	46338	108138	0	0	8270	518004	0	0
2024-10-02 16:40:47			0	39147	0	0	0	22129	20720	157037	26968	1055065	46348	108135	0	0	8268	518915	0	0
2024-10-02 16:41:47			0	39133	0	0	0	22127	20710	157113	26868	1055029	46314	108134	0	0	8267	519475	0	0
2024-10-02 16:42:47			0	39140	0	0	0	22129	20710	157101	27071	1055056	46326	108135	0	0	8268	519209	0	0
2024-10-02 16:43:47			0	39135	0	0	0	22127	20710	157101	27041	1055109	46314	108134	0	0	8268	519399	0	0
2024-10-02 16:44:47			0	39110	0	0	0	22132	20700	157277	27066	1055082	46346	108136	0	0	8266	520378	0	0
2024-10-02 16:45:47			0	39106	0	0	0	22127	20710	157229	26949	1055029	46347	108134	0	0	8266	520501	0	0
2024-10-02 16:46:47			0	39116	0	0	0	22145	20710	157189	27187	1055100	46336	108141	0	0	8266	520121	0	0
2024-10-02 16:47:47			0	39143	0	0	0	22132	20710	157121	27071	1055082	46326	108136	0	0	8268	519095	0	0
2024-10-02 16:48:47			0	39126	0	0	0	22127	20710	157177	27053	1055073	46336	108134	0	0	8267	519741	0	0
2024-10-02 16:49:47			0	39129	0	0	0	22127	20710	157189	27350	1054993	46326	108134	0	0	8267	519627	0	0
2024-10-02 16:50:47			0	39113	0	0	0	22135	20710	157249	27326	1055046	46347	108137	0	0	8266	520235	0	0
2024-10-02 16:51:47			0	39108	0	0	0	22127	20700	157213	27194	1055011	46336	108134	0	0	8266	520454	0	0
2024-10-02 16:52:47			0	39120	0	0	0	22124	20710	157085	27041	1055046	46347	108133	0	0	8267	519969	0	0
2024-10-02 16:53:47			0	39110	0	0	0	22132	20700	157177	26955	1055064	46314	108136	0	0	8266	520378	0	0
2024-10-02 16:54:47			0	39116	0	0	0	22129	20710	157233	27163	1055073	46326	108135	0	0	8266	520121	0	0
2024-10-02 16:55:47			0	39107	0	0	0	22127	20700	157205	27422	1055091	46336	108134	0	0	8266	520492	0	0
2024-10-02 16:56:47			0	39093	0	0	0	22132	20700	157305	27514	1055091	46347	108136	0	0	8265	521025	0	0
2024-10-02 16:57:47			0	39109	0	0	0	22129	20700	157229	27246	1055011	46326	108135	0	0	8266	520416	0	0
2024-10-02 16:58:47			0	39089	0	0	0	22135	20710	157201	27301	1055046	46326	108137	0	0	8265	521148	0	0
2024-10-02 16:59:47			0	39090	0	0	0	22127	20710	157321	27303	1055100	46347	108134	0	0	8265	521110	0	0
2024-10-02 17:00:47			0	39079	0	0	0	22127	20700	157333	27069	1055091	46336	108134	0	0	8264	521557	0	0
2024-10-02 17:01:47			0	39076	0	0	0	22124	20700	157281	27164	1055011	46326	108133	0	0	8264	521671	0	0
2024-10-02 17:02:47			0	39103	0	0	0	22129	20700	157325	27182	1055037	46336	108135	0	0	8266	520644	0	0
2024-10-02 17:03:47			0	39077	0	0	0	22122	20710	157269	27350	1055046	46336	108132	0	0	8264	521605	0	0
2024-10-02 17:04:47			0	39080	0	0	0	22122	20700	157345	27260	1055037	46326	108132	0	0	8264	521519	0	0
2024-10-02 17:05:47			0	39070	0	0	0	22122	20710	157385	26928	1055020	46358	108132	0	0	8264	521871	0	0
2024-10-02 17:06:47			0	39064	0	0	0	22116	20700	157373	27329	1054975	46313	108130	0	0	8264	522128	0	0
2024-10-02 17:07:47			0	39048	0	0	0	22119	20700	157429	27121	1055028	46335	108131	0	0	8263	522738	0	0
2024-10-02 17:08:47			0	39050	0	0	0	22127	20700	157377	27137	1055064	46326	108134	0	0	8263	522662	0	0
2024-10-02 17:09:47			0	39044	0	0	0	22124	20700	157401	27367	1055064	46326	108133	0	0	8262	522891	0	0
2024-10-02 17:10:47			0	39027	0	0	0	22119	20690	157517	26958	1055073	46324	108131	0	0	8261	523568	0	0
2024-10-02 17:11:47			0	39030	0	0	0	22124	20710	157569	27138	1055082	46326	108133	0	0	8262	523396	0	0
2024-10-02 17:12:47			0	39036	0	0	0	22119	20690	157573	27364	1054966	46334	108131	0	0	8262	523225	0	0
2024-10-02 17:13:47			0	39033	0	0	0	22122	20690	157497	27416	1055046	46334	108132	0	0	8262	523339	0	0
2024-10-02 17:14:47			0	39013	0	0	0	22119	20690	157521	27362	1055020	46312	108131	0	0	8261	524102	0	0
2024-10-02 17:15:47			0	39018	0	0	0	22114	20700	157581	27327	1055002	46335	108129	0	0	8261	523883	0	0
2024-10-02 17:16:47			0	39021	0	0	0	22119	20700	157605	27130	1054984	46336	108131	0	0	8261	523768	0	0
2024-10-02 17:17:47			0	39011	0	0	0	22122	20700	157561	27138	1055011	46336	108132	0	0	8260	524150	0	0
2024-10-02 17:18:47			0	39008	0	0	0	22116	20700	157593	26753	1055028	46335	108130	0	0	8260	524264	0	0
2024-10-02 17:19:47			0	39000	0	0	0	22119	20700	157593	27173	1054984	46336	108131	0	0	8260	524570	0	0
2024-10-02 17:20:47			0	39002	0	0	0	22116	20690	157573	27414	1055046	46334	108130	0	0	8260	524523	0	0
2024-10-02 17:21:47			0	39011	0	0	0	22116	20710	157661	27142	1054993	46326	108130	0	0	8261	524121	0	0
2024-10-02 17:22:47			0	38995	0	0	0	22122	20710	157773	27244	1054993	46326	108132	0	0	8260	524732	0	0
2024-10-02 17:23:47			0	38995	0	0	0	22114	20690	157673	27208	1055020	46345	108129	0	0	8260	524790	0	0
2024-10-02 17:24:47			0	38988	0	0	0	22119	20700	157741	27060	1055002	46335	108131	0	0	8259	525029	0	0
2024-10-02 17:25:47			0	38988	0	0	0	22111	20690	157845	27303	1055020	46324	108128	0	0	8259	525058	0	0
2024-10-02 17:26:47			0	38958	0	0	0	22114	20690	157929	27111	1054957	46334	108129	0	0	8257	526205	0	0
2024-10-02 17:27:47			0	38969	0	0	0	22116	20680	157881	27104	1054975	46311	108130	0	0	8258	525813	0	0
2024-10-02 17:28:47			0	38973	0	0	0	22116	20690	157897	27272	1054993	46312	108130	0	0	8258	525631	0	0
2024-10-02 17:29:47			0	38962	0	0	0	22127	20690	157917	27199	1055037	46324	108134	0	0	8257	526052	0	0
2024-10-02 17:30:47			0	38964	0	0	0	22114	20690	157849	26800	1054984	46324	108129	0	0	8258	525975	0	0
2024-10-02 17:31:47			0	38972	0	0	0	22116	20690	157893	27227	1054957	46334	108130	0	0	8258	525669	0	0
2024-10-02 17:32:47			0	38960	0	0	0	22114	20690	157929	27209	1055020	46334	108129	0	0	8258	526128	0	0
2024-10-02 17:33:47			0	38957	0	0	0	22122	20690	157881	27367	1054993	46345	108132	0	0	8257	526243	0	0
2024-10-02 17:34:47			0	38953	0	0	0	22116	20690	157893	27005	1054993	46334	108130	0	0	8257	526396	0	0
2024-10-02 17:35:47			0	38971	0	0	0	22114	20690	157869	27242	1054984	46334	108129	0	0	8258	525707	0	0
2024-10-02 17:36:47			0	38970	0	0	0	22132	20690	157893	26998	1055020	46334	108136	0	0	8258	525746	0	0
2024-10-02 17:37:47			0	38963	0	0	0	22109	20690	157953	27270	1054931	46334	108127	0	0	8258	526013	0	0
2024-10-02 17:38:47			0	38966	0	0	0	22119	20690	157973	26925	1055046	46324	108131	0	0	8258	525899	0	0
2024-10-02 17:39:47			0	38977	0	0	0	22122	20690	157821	27241	1055020	46334	108132	0	0	8258	525478	0	0
2024-10-02 17:40:47			0	38949	0	0	0	22122	20680	157957	27029	1055028	46344	108132	0	0	8257	526578	0	0
2024-10-02 17:41:47			0	38950	0	0	0	22116	20700	157817	27043	1054975	46346	108130	0	0	8257	526482	0	0
2024-10-02 17:42:47			0	38940	0	0	0	22116	20700	157909	27152	1055028	46335	108130	0	0	8256	526865	0	0
2024-10-02 17:43:47			0	38948	0	0	0	22109	20690	157961	27298	1055020	46345	108127	0	0	8257	526588	0	0
2024-10-02 17:44:47			0	38945	0	0	0	22119	20690	157977	27109	1054984	46334	108131	0	0	8257	526703	0	0
2024-10-02 17:45:47			0	38917	0	0	0	22106	20690	157949	27261	1055011	46324	108126	0	0	8255	527775	0	0
2024-10-02 17:46:47			0	38928	0	0	0	22116	20690	157981	27177	1054984	46334	108130	0	0	8256	527354	0	0
2024-10-02 17:47:47			0	38929	0	0	0	22111	20700	157997	27038	1055055	46346	108128	0	0	8256	527286	0	0
2024-10-02 17:48:47			0	38947	0	0	0	22116	20690	157913	27185	1055011	46334	108130	0	0	8257	526626	0	0
2024-10-02 17:49:47			0	38960	0	0	0	22111	20680	157961	27204	1054975	46323	108128	0	0	8258	526157	0	0
2024-10-02 17:50:47			0	38915	0	0	0	22119	20690	158029	27315	1055020	46345	108131	0	0	8255	527852	0	0
2024-10-02 17:51:47			0	38923	0	0	0	22111	20690	157881	27336	1054993	46345	108128	0	0	8255	527545	0	0
2024-10-02 17:52:47			0	38922	0	0	0	22109	20690	158017	27156	1054966	46334	108127	0	0	8255	527584	0	0
2024-10-02 17:53:47			0	38917	0	0	0	22106	20690	157953	27048	1054984	46312	108126	0	0	8255	527775	0	0
2024-10-02 17:54:47			0	38885	0	0	0	22111	20680	158085	27131	1054948	46333	108128	0	0	8253	529033	0	0
2024-10-02 17:55:47			0	38895	0	0	0	22114	20690	158205	27090	1055020	46334	108129	0	0	8254	528619	0	0
2024-10-02 17:56:47			0	38892	0	0	0	22127	20680	158173	27147	1054940	46333	108134	0	0	8253	528764	0	0
2024-10-02 17:57:47			0	38914	0	0	0	22111	20680	157989	26904	1055028	46323	108128	0	0	8255	527920	0	0
2024-10-02 17:58:47			0	38894	0	0	0	22111	20690	158145	26887	1055011	46345	108128	0	0	8254	528658	0	0
2024-10-02 17:59:47			0	38895	0	0	0	22114	20690	158077	27216	1055011	46334	108129	0	0	8254	528619	0	0
2024-10-02 18:00:47			0	38876	0	0	0	22106	20690	158097	27228	1054904	46334	108126	0	0	8253	529349	0	0
2024-10-02 18:01:47			0	38880	0	0	0	22109	20680	158177	27069	1054975	46323	108127	0	0	8253	529224	0	0
2024-10-02 18:02:47			0	38854	0	0	0	22111	20690	158253	26928	1054957	46334	108128	0	0	8251	530194	0	0
2024-10-02 18:03:47			0	38853	0	0	0	22116	20690	158321	27228	1054957	46312	108130	0	0	8251	530233	0	0
2024-10-02 18:04:47			0	38863	0	0	0	22109	20690	158209	27111	1054931	46324	108127	0	0	8252	529848	0	0
2024-10-02 18:05:47			0	38851	0	0	0	22114	20690	158245	27095	1054957	46324	108129	0	0	8251	530309	0	0
2024-10-02 18:06:47			0	38871	0	0	0	22098	20700	158193	27263	1055002	46346	108123	0	0	8253	529512	0	0
2024-10-02 18:07:47			0	38845	0	0	0	22114	20690	158189	27066	1054966	46334	108129	0	0	8251	530540	0	0
2024-10-02 18:08:47			0	38859	0	0	0	22116	20680	158217	26958	1054993	46323	108130	0	0	8252	530031	0	0
2024-10-02 18:09:47			0	38857	0	0	0	22111	20680	158357	26849	1054940	46333	108128	0	0	8252	530108	0	0
2024-10-02 18:10:47			0	38858	0	0	0	22106	20680	158261	27163	1055019	46344	108126	0	0	8252	530070	0	0
2024-10-02 18:11:47			0	38856	0	0	0	22106	20670	158229	27301	1054904	46333	108126	0	0	8252	530176	0	0
2024-10-02 18:12:47			0	38839	0	0	0	22114	20680	158333	27644	1054922	46311	108129	0	0	8251	530800	0	0
2024-10-02 18:13:47			0	38831	0	0	0	22106	20690	158333	27447	1054984	46334	108126	0	0	8250	531079	0	0
2024-10-02 18:14:47			0	38843	0	0	0	22103	20680	158277	27119	1054948	46333	108125	0	0	8251	530646	0	0
2024-10-02 18:15:47			0	38848	0	0	0	22109	20680	158321	26963	1054922	46333	108127	0	0	8251	530454	0	0
2024-10-02 18:16:47			0	38830	0	0	0	22098	20680	158313	27124	1054940	46344	108123	0	0	8250	531147	0	0
2024-10-02 18:17:47			0	38838	0	0	0	22109	20680	158381	27260	1054940	46333	108127	0	0	8251	530839	0	0
2024-10-02 18:18:47			0	38826	0	0	0	22109	20690	158501	27019	1054931	46324	108127	0	0	8250	531271	0	0
2024-10-02 18:19:47			0	38825	0	0	0	22101	20690	158409	27079	1054957	46324	108124	0	0	8250	531310	0	0
2024-10-02 18:20:47			0	38839	0	0	0	22111	20680	158425	27258	1054948	46333	108128	0	0	8251	530800	0	0
2024-10-02 18:21:47			0	38838	0	0	0	22111	20690	158317	27038	1055011	46334	108128	0	0	8251	530809	0	0
2024-10-02 18:22:47			0	38830	0	0	0	22103	20690	158373	27029	1055011	46334	108125	0	0	8250	531117	0	0
2024-10-02 18:23:47			0	38834	0	0	0	22106	20680	158433	27398	1054975	46344	108126	0	0	8250	530993	0	0
2024-10-02 18:24:47			0	38831	0	0	0	22103	20680	158389	27326	1055028	46333	108125	0	0	8250	531108	0	0
2024-10-02 18:25:47			0	38824	0	0	0	22096	20680	158305	27256	1054940	46333	108122	0	0	8250	531378	0	0
2024-10-02 18:26:47			0	38804	0	0	0	22109	20680	158469	27102	1054975	46355	108127	0	0	8249	532148	0	0
2024-10-02 18:27:47			0	38794	0	0	0	22101	20680	158545	27013	1054940	46333	108124	0	0	8248	532533	0	0
2024-10-02 18:28:47			0	38782	0	0	0	22101	20680	158553	27336	1054940	46323	108124	0	0	8247	532996	0	0
2024-10-02 18:29:47			0	38787	0	0	0	22101	20670	158433	27286	1054931	46310	108124	0	0	8248	532833	0	0
2024-10-02 18:30:47			0	38788	0	0	0	22106	20680	158577	26996	1054948	46323	108126	0	0	8248	532765	0	0
2024-10-02 18:31:47			0	38796	0	0	0	22098	20680	158537	27260	1054948	46323	108123	0	0	8248	532456	0	0
2024-10-02 18:32:47			0	38804	0	0	0	22101	20690	158605	27078	1054957	46345	108124	0	0	8249	532118	0	0
2024-10-02 18:33:47			0	38780	0	0	0	22098	20680	158601	27012	1054948	46333	108123	0	0	8247	533073	0	0
2024-10-02 18:34:47			0	38793	0	0	0	22090	20680	158545	27398	1054913	46355	108120	0	0	8248	532572	0	0
2024-10-02 18:35:47			0	38764	0	0	0	22096	20680	158565	27391	1054886	46344	108122	0	0	8246	533690	0	0
2024-10-02 18:36:47			0	38779	0	0	0	22103	20670	158613	27216	1054931	46343	108125	0	0	8247	533141	0	0
2024-10-02 18:37:47			0	38792	0	0	0	22109	20670	158441	27627	1054957	46343	108127	0	0	8248	532640	0	0
2024-10-02 18:38:47			0	38804	0	0	0	22106	20680	158485	27320	1054922	46333	108126	0	0	8249	532148	0	0
2024-10-02 18:39:47			0	38802	0	0	0	22103	20670	158413	27400	1054931	46333	108125	0	0	8249	532254	0	0
2024-10-02 18:40:47			0	38792	0	0	0	22096	20670	158525	27325	1054922	46333	108122	0	0	8248	532640	0	0
2024-10-02 18:41:47			0	38813	0	0	0	22098	20670	158485	27036	1054957	46333	108123	0	0	8249	531831	0	0
2024-10-02 18:42:47			0	38769	0	0	0	22096	20670	158645	27357	1054904	46310	108122	0	0	8247	533527	0	0
2024-10-02 18:43:47			0	38758	0	0	0	22103	20680	158665	27289	1054860	46323	108125	0	0	8246	533922	0	0
2024-10-02 18:44:47			0	38753	0	0	0	22103	20680	158737	27124	1054966	46333	108125	0	0	8246	534115	0	0
2024-10-02 18:45:47			0	38777	0	0	0	22096	20680	158621	27171	1054966	46333	108122	0	0	8247	533189	0	0
2024-10-02 18:46:47			0	38770	0	0	0	22096	20680	158625	27154	1054940	46333	108122	0	0	8247	533459	0	0
2024-10-02 18:47:47			0	38759	0	0	0	22098	20670	158657	27223	1054851	46310	108123	0	0	8246	533913	0	0
2024-10-02 18:48:47			0	38754	0	0	0	22098	20680	158709	27168	1054966	46323	108123	0	0	8246	534076	0	0
2024-10-02 18:49:47			0	38750	0	0	0	22088	20670	158749	27190	1054895	46310	108119	0	0	8246	534260	0	0
2024-10-02 18:50:47			0	38763	0	0	0	22101	20670	158817	26733	1054957	46333	108124	0	0	8246	533758	0	0
2024-10-02 18:51:47			0	38781	0	0	0	22106	20670	158637	27137	1054922	46343	108126	0	0	8247	533064	0	0
2024-10-02 18:52:47			0	38781	0	0	0	22090	20670	158625	27218	1054904	46333	108120	0	0	8248	533064	0	0
2024-10-02 18:53:47			0	38786	0	0	0	22098	20680	158677	27204	1054913	46355	108123	0	0	8248	532842	0	0
2024-10-02 18:54:47			0	38793	0	0	0	22090	20680	158693	27090	1054948	46333	108120	0	0	8248	532572	0	0
2024-10-02 18:55:47			0	38771	0	0	0	22096	20670	158681	27078	1054904	46322	108122	0	0	8247	533450	0	0
2024-10-02 18:56:47			0	38725	0	0	0	22088	20680	158669	27098	1054940	46333	108119	0	0	8244	535197	0	0
2024-10-02 18:57:47			0	38726	0	0	0	22096	20670	158781	26996	1054895	46333	108122	0	0	8244	535188	0	0
2024-10-02 18:58:47			0	38736	0	0	0	22098	20670	158837	27097	1054922	46333	108123	0	0	8245	534801	0	0
2024-10-02 18:59:47			0	38725	0	0	0	22093	20670	158845	27275	1054904	46343	108121	0	0	8244	535227	0	0
2024-10-02 19:00:47			0	38717	0	0	0	22085	20680	158904	27090	1054886	46323	108118	0	0	8244	535506	0	0
2024-10-02 19:01:47			0	38714	0	0	0	22080	20660	158852	27398	1054860	46342	108116	0	0	8244	535682	0	0
2024-10-02 19:02:47			0	38711	0	0	0	22096	20670	158888	27448	1054931	46333	108122	0	0	8243	535768	0	0
2024-10-02 19:03:47			0	38703	0	0	0	22088	20670	158856	27242	1054931	46333	108119	0	0	8243	536078	0	0
2024-10-02 19:04:47			0	38707	0	0	0	22085	20670	158868	27355	1054877	46333	108118	0	0	8243	535923	0	0
2024-10-02 19:05:47			0	38702	0	0	0	22085	20660	158992	27518	1054833	46332	108118	0	0	8243	536146	0	0
2024-10-02 19:06:47			0	38693	0	0	0	22077	20660	158980	27357	1054877	46342	108115	0	0	8243	536494	0	0
2024-10-02 19:07:47			0	38683	0	0	0	22088	20660	158988	27168	1054886	46321	108119	0	0	8242	536882	0	0
2024-10-02 19:08:47			0	38678	0	0	0	22096	20670	158992	27003	1054868	46343	108122	0	0	8241	537046	0	0
2024-10-02 19:09:47			0	38678	0	0	0	22085	20660	158992	27135	1054913	46332	108118	0	0	8242	537075	0	0
2024-10-02 19:10:47			0	38703	0	0	0	22080	20660	159020	27526	1054877	46321	108116	0	0	8243	536107	0	0
2024-10-02 19:11:47			0	38692	0	0	0	22083	20660	159064	26975	1054851	46321	108117	0	0	8242	536533	0	0
2024-10-02 19:12:47			0	38657	0	0	0	22083	20670	159072	27119	1054895	46333	108117	0	0	8240	537860	0	0
2024-10-02 19:13:47			0	38651	0	0	0	22085	20660	159024	27258	1054860	46309	108118	0	0	8240	538122	0	0
2024-10-02 19:14:47			0	38660	0	0	0	22083	20660	159208	26930	1054851	46332	108117	0	0	8241	537773	0	0
2024-10-02 19:15:47			0	38650	0	0	0	22080	20660	159128	27216	1054851	46321	108116	0	0	8240	538161	0	0
2024-10-02 19:16:47			0	38640	0	0	0	22080	20660	159156	27203	1054851	46309	108116	0	0	8239	538549	0	0
2024-10-02 19:17:47			0	38638	0	0	0	22083	20650	159104	27211	1054868	46320	108117	0	0	8239	538656	0	0
2024-10-02 19:18:47			0	38644	0	0	0	22088	20660	159112	27220	1054806	46321	108119	0	0	8240	538394	0	0
2024-10-02 19:19:47			0	38652	0	0	0	22085	20660	159020	27182	1054877	46332	108118	0	0	8240	538083	0	0
2024-10-02 19:20:47			0	38653	0	0	0	22077	20650	159028	27022	1054788	46341	108115	0	0	8240	538074	0	0
2024-10-02 19:21:47			0	38645	0	0	0	22093	20650	159200	27248	1054842	46331	108121	0	0	8239	538385	0	0
2024-10-02 19:22:47			0	38672	0	0	0	22088	20660	159060	27434	1054851	46309	108119	0	0	8241	537308	0	0
2024-10-02 19:23:47			0	38668	0	0	0	22088	20650	159124	27190	1054868	46341	108119	0	0	8241	537493	0	0
2024-10-02 19:24:47			0	38680	0	0	0	22075	20660	158960	27391	1054824	46309	108114	0	0	8242	536998	0	0
2024-10-02 19:25:47			0	38670	0	0	0	22083	20670	159136	27232	1054842	46343	108117	0	0	8241	537356	0	0
2024-10-02 19:26:47			0	38690	0	0	0	22077	20660	159000	27095	1054851	46342	108115	0	0	8242	536611	0	0
2024-10-02 19:27:47			0	38656	0	0	0	22088	20660	159200	27428	1054851	46321	108119	0	0	8240	537928	0	0
2024-10-02 19:28:47			0	38644	0	0	0	22080	20660	159148	27260	1054797	46321	108116	0	0	8240	538394	0	0
2024-10-02 19:29:47			0	38628	0	0	0	22083	20660	159104	27357	1054877	46332	108117	0	0	8239	539015	0	0
2024-10-02 19:30:47			0	38664	0	0	0	22093	20660	159096	27182	1054851	46342	108121	0	0	8241	537618	0	0
2024-10-02 19:31:47			0	38679	0	0	0	22088	20660	159100	27374	1054833	46332	108119	0	0	8242	537037	0	0
2024-10-02 19:32:47			0	38674	0	0	0	22080	20660	159192	27372	1054851	46332	108116	0	0	8241	537230	0	0
2024-10-02 19:33:47			0	38632	0	0	0	22075	20660	159164	27218	1054886	46332	108114	0	0	8239	538859	0	0
2024-10-02 19:34:47			0	38625	0	0	0	22072	20650	159236	27556	1054788	46320	108113	0	0	8239	539161	0	0
2024-10-02 19:35:47			0	38622	0	0	0	22077	20650	159324	27403	1054788	46297	108115	0	0	8238	539277	0	0
2024-10-02 19:36:47			0	38635	0	0	0	22080	20650	159244	27223	1054842	46320	108116	0	0	8239	538773	0	0
2024-10-02 19:37:47			0	38636	0	0	0	22077	20660	159232	27277	1054904	46321	108115	0	0	8239	538704	0	0
2024-10-02 19:38:47			0	38641	0	0	0	22083	20660	159236	27421	1054806	46342	108117	0	0	8239	538510	0	0
2024-10-02 19:39:47			0	38646	0	0	0	22085	20650	159228	27473	1054833	46308	108118	0	0	8240	538346	0	0
2024-10-02 19:40:47			0	38637	0	0	0	22080	20660	159132	27398	1054833	46332	108116	0	0	8239	538665	0	0
2024-10-02 19:41:47			0	38644	0	0	0	22072	20650	159100	27241	1054815	46331	108113	0	0	8240	538423	0	0
2024-10-02 19:42:47			0	38647	0	0	0	22085	20650	159100	27478	1054842	46331	108118	0	0	8240	538307	0	0
2024-10-02 19:43:47			0	38628	0	0	0	22085	20660	159128	27270	1054904	46332	108118	0	0	8239	539015	0	0
2024-10-02 19:44:47			0	38638	0	0	0	22067	20650	159156	27157	1054833	46308	108111	0	0	8239	538656	0	0
2024-10-02 19:45:47			0	38648	0	0	0	22083	20650	159144	27176	1054815	46331	108117	0	0	8240	538268	0	0
2024-10-02 19:46:47			0	38648	0	0	0	22085	20650	159196	27019	1054815	46331	108118	0	0	8240	538268	0	0
2024-10-02 19:47:47			0	38672	0	0	0	22085	20660	159076	27346	1054877	46332	108118	0	0	8241	537308	0	0
2024-10-02 19:48:47			0	38669	0	0	0	22077	20660	159116	27279	1054913	46332	108115	0	0	8241	537424	0	0
2024-10-02 19:49:47			0	38662	0	0	0	22070	20650	159168	27066	1054842	46331	108112	0	0	8241	537725	0	0
2024-10-02 19:50:47			0	38641	0	0	0	22067	20660	159188	27026	1054851	46332	108111	0	0	8240	538510	0	0
2024-10-02 19:51:47			0	38623	0	0	0	22072	20650	159264	27248	1054868	46331	108113	0	0	8239	539239	0	0
2024-10-02 19:52:47			0	38633	0	0	0	22072	20650	159228	27069	1054788	46341	108113	0	0	8239	538850	0	0
2024-10-02 19:53:47			0	38653	0	0	0	22088	20660	159184	27261	1054824	46342	108119	0	0	8240	538044	0	0
2024-10-02 19:54:47			0	38646	0	0	0	22085	20660	159108	27405	1054851	46342	108118	0	0	8240	538316	0	0
2024-10-02 19:55:47			0	38641	0	0	0	22090	20650	159092	27476	1054842	46341	108120	0	0	8239	538540	0	0
2024-10-02 19:56:47			0	38678	0	0	0	22085	20660	158968	27227	1054851	46309	108118	0	0	8242	537075	0	0
2024-10-02 19:57:47			0	38669	0	0	0	22080	20660	159152	27180	1054886	46342	108116	0	0	8241	537424	0	0
2024-10-02 19:58:47			0	38660	0	0	0	22070	20670	159212	27145	1054815	46333	108112	0	0	8241	537743	0	0
2024-10-02 19:59:47			0	38667	0	0	0	22075	20650	159132	26991	1054815	46320	108114	0	0	8241	537531	0	0
2024-10-02 20:00:47			0	38645	0	0	0	22077	20650	159180	27559	1054842	46341	108115	0	0	8240	538385	0	0
2024-10-02 20:01:47			0	38672	0	0	0	22075	20660	159120	27178	1054851	46321	108114	0	0	8241	537308	0	0
2024-10-02 20:02:47			0	38653	0	0	0	22080	20660	159188	27218	1054851	46309	108116	0	0	8240	538044	0	0
2024-10-02 20:03:47			0	38642	0	0	0	22070	20650	159268	27008	1054806	46308	108112	0	0	8240	538501	0	0
2024-10-02 20:04:47			0	38632	0	0	0	22072	20660	159204	27410	1054824	46332	108113	0	0	8239	538859	0	0
2024-10-02 20:05:47			0	38625	0	0	0	22080	20660	159280	26941	1054824	46321	108116	0	0	8239	539131	0	0
2024-10-02 20:06:47			0	38626	0	0	0	22077	20650	159224	27234	1054815	46331	108115	0	0	8239	539122	0	0
2024-10-02 20:07:47			0	38615	0	0	0	22075	20650	159192	26918	1054815	46331	108114	0	0	8238	539550	0	0
2024-10-02 20:08:47			0	38614	0	0	0	22070	20660	159340	27319	1054797	46342	108112	0	0	8238	539559	0	0
2024-10-02 20:09:47			0	38592	0	0	0	22080	20650	159264	27116	1054780	46320	108116	0	0	8237	540444	0	0
2024-10-02 20:10:47			0	38615	0	0	0	22080	20650	159352	27086	1054842	46320	108116	0	0	8238	539550	0	0
2024-10-02 20:11:47			0	38616	0	0	0	22072	20640	159312	27196	1054797	46319	108113	0	0	8238	539540	0	0
2024-10-02 20:12:47			0	38623	0	0	0	22075	20650	159252	27286	1054886	46320	108114	0	0	8238	539239	0	0
2024-10-02 20:13:47			0	38629	0	0	0	22075	20650	159200	26979	1054842	46320	108114	0	0	8239	539006	0	0
2024-10-02 20:14:47			0	38627	0	0	0	22072	20660	159284	27088	1054797	46342	108113	0	0	8239	539054	0	0
2024-10-02 20:15:47			0	38624	0	0	0	22072	20650	159328	27088	1054815	46331	108113	0	0	8239	539200	0	0
2024-10-02 20:16:47			0	38631	0	0	0	22080	20650	159328	27351	1054833	46320	108116	0	0	8239	538928	0	0
2024-10-02 20:17:47			0	38604	0	0	0	22080	20650	159316	27093	1054815	46331	108116	0	0	8237	539977	0	0
2024-10-02 20:18:47			0	38615	0	0	0	22080	20650	159384	27034	1054859	46308	108116	0	0	8238	539550	0	0
2024-10-02 20:19:47			0	38626	0	0	0	22075	20650	159264	27223	1054868	46320	108114	0	0	8239	539122	0	0
2024-10-02 20:20:47			0	38614	0	0	0	22077	20650	159376	27050	1054780	46331	108115	0	0	8238	539588	0	0
2024-10-02 20:21:47			0	38640	0	0	0	22077	20650	159364	27147	1054815	46320	108115	0	0	8239	538579	0	0
2024-10-02 20:22:47			0	38633	0	0	0	22070	20650	159380	27206	1054842	46341	108112	0	0	8239	538850	0	0
2024-10-02 20:23:47			0	38611	0	0	0	22070	20650	159376	27274	1054868	46320	108112	0	0	8238	539705	0	0
2024-10-02 20:24:47			0	38612	0	0	0	22064	20660	159384	27412	1054824	46309	108110	0	0	8238	539636	0	0
2024-10-02 20:25:47			0	38608	0	0	0	22075	20660	159348	27209	1054824	46332	108114	0	0	8238	539792	0	0
2024-10-02 20:26:47			0	38591	0	0	0	22075	20650	159320	26970	1054868	46331	108114	0	0	8237	540482	0	0
2024-10-02 20:27:47			0	38597	0	0	0	22072	20650	159396	27227	1054868	46308	108113	0	0	8237	540249	0	0
2024-10-02 20:28:47			0	38611	0	0	0	22080	20660	159336	27559	1054833	46332	108116	0	0	8238	539675	0	0
2024-10-02 20:29:47			0	38620	0	0	0	22083	20660	159268	27253	1054824	46321	108117	0	0	8238	539325	0	0
2024-10-02 20:30:47			0	38619	0	0	0	22080	20650	159256	26831	1054859	46320	108116	0	0	8238	539394	0	0
2024-10-02 20:31:47			0	38627	0	0	0	22077	20650	159148	27223	1054859	46331	108115	0	0	8239	539083	0	0
2024-10-02 20:32:47			0	38644	0	0	0	22070	20650	159292	26956	1054886	46331	108112	0	0	8240	538423	0	0
2024-10-02 20:33:47			0	38648	0	0	0	22093	20650	159220	27194	1054895	46320	108121	0	0	8240	538268	0	0
2024-10-02 20:34:47			0	38660	0	0	0	22070	20650	159188	27100	1054859	46331	108112	0	0	8241	537803	0	0
2024-10-02 20:35:47			0	38621	0	0	0	22075	20660	159308	27119	1054851	46332	108114	0	0	8238	539287	0	0
2024-10-02 20:36:47			0	38623	0	0	0	22083	20660	159212	27064	1054877	46321	108117	0	0	8238	539209	0	0
2024-10-02 20:37:47			0	38628	0	0	0	22072	20650	159208	27260	1054815	46331	108113	0	0	8239	539045	0	0
2024-10-02 20:38:47			0	38602	0	0	0	22088	20650	159352	27074	1054842	46331	108119	0	0	8237	540055	0	0
2024-10-02 20:39:47			0	38636	0	0	0	22077	20650	159384	27100	1054788	46341	108115	0	0	8239	538734	0	0
2024-10-02 20:40:47			0	38606	0	0	0	22072	20650	159328	27194	1054895	46331	108113	0	0	8238	539899	0	0
2024-10-02 20:41:47			0	38611	0	0	0	22072	20660	159300	27448	1054913	46309	108113	0	0	8238	539675	0	0
2024-10-02 20:42:47			0	38625	0	0	0	22083	20650	159204	27204	1054868	46341	108117	0	0	8238	539161	0	0
2024-10-02 20:43:47			0	38653	0	0	0	22075	20660	159220	27116	1054877	46342	108114	0	0	8240	538044	0	0
2024-10-02 20:44:47			0	38648	0	0	0	22075	20650	159224	27227	1054859	46331	108114	0	0	8240	538268	0	0
2024-10-02 20:45:47			0	38626	0	0	0	22077	20660	159324	27436	1054860	46332	108115	0	0	8239	539092	0	0
2024-10-02 20:46:47			0	38619	0	0	0	22077	20650	159376	27602	1054859	46331	108115	0	0	8238	539394	0	0
2024-10-02 20:47:47			0	38615	0	0	0	22080	20660	159352	27536	1054824	46353	108116	0	0	8238	539520	0	0
2024-10-02 20:48:47			0	38627	0	0	0	22090	20650	159364	27308	1054842	46320	108120	0	0	8238	539083	0	0
2024-10-02 20:49:47			0	38638	0	0	0	22075	20650	159316	27441	1054842	46331	108114	0	0	8239	538656	0	0
2024-10-02 20:50:47			0	38642	0	0	0	22075	20660	159204	27013	1054851	46332	108114	0	0	8240	538471	0	0
2024-10-02 20:51:47			0	38629	0	0	0	22080	20660	159240	27386	1054877	46321	108116	0	0	8239	538976	0	0
2024-10-02 20:52:47			0	38620	0	0	0	22083	20660	159244	27059	1054860	46332	108117	0	0	8238	539325	0	0
2024-10-02 20:53:47			0	38617	0	0	0	22088	20650	159296	27317	1054859	46331	108119	0	0	8238	539472	0	0
2024-10-02 20:54:47			0	38639	0	0	0	22088	20660	159120	27407	1054904	46332	108119	0	0	8239	538588	0	0
2024-10-02 20:55:47			0	38661	0	0	0	22085	20650	159120	27384	1054842	46320	108118	0	0	8241	537764	0	0
2024-10-02 20:56:47			0	38653	0	0	0	22083	20650	159120	27050	1054842	46320	108117	0	0	8240	538074	0	0
2024-10-02 20:57:47			0	38660	0	0	0	22083	20660	159172	27398	1054877	46332	108117	0	0	8241	537773	0	0
2024-10-02 20:58:47			0	38649	0	0	0	22088	20660	159188	27090	1054851	46332	108119	0	0	8240	538200	0	0
2024-10-02 20:59:47			0	38662	0	0	0	22083	20650	159160	27400	1054895	46331	108117	0	0	8241	537725	0	0
2024-10-02 21:00:47			0	38672	0	0	0	22075	20650	159132	27251	1054859	46320	108114	0	0	8241	537338	0	0
2024-10-02 21:01:47			0	38667	0	0	0	22075	20650	159280	27107	1054815	46331	108114	0	0	8241	537531	0	0
2024-10-02 21:02:47			0	38665	0	0	0	22077	20660	159236	27012	1054904	46321	108115	0	0	8241	537579	0	0
2024-10-02 21:03:47			0	38672	0	0	0	22067	20650	159220	27407	1054815	46320	108111	0	0	8241	537338	0	0
2024-10-02 21:04:47			0	38648	0	0	0	22064	20660	159292	27360	1054913	46309	108110	0	0	8240	538239	0	0
2024-10-02 21:05:47			0	38659	0	0	0	22075	20660	159220	27196	1054824	46332	108114	0	0	8241	537812	0	0
2024-10-02 21:06:47			0	38670	0	0	0	22067	20650	159232	27227	1054859	46320	108111	0	0	8241	537415	0	0
2024-10-02 21:07:47			0	38663	0	0	0	22067	20650	159228	27320	1054815	46341	108111	0	0	8241	537687	0	0
2024-10-02 21:08:47			0	38675	0	0	0	22077	20650	159196	27493	1054833	46331	108115	0	0	8241	537221	0	0
2024-10-02 21:09:47			0	38670	0	0	0	22067	20640	159108	27369	1054850	46307	108111	0	0	8241	537445	0	0
2024-10-02 21:10:47			0	38665	0	0	0	22059	20650	159240	26974	1054788	46308	108108	0	0	8241	537609	0	0
2024-10-02 21:11:47			0	38646	0	0	0	22067	20660	159332	27523	1054851	46321	108111	0	0	8240	538316	0	0
2024-10-02 21:12:47			0	38659	0	0	0	22072	20650	159136	27166	1054833	46352	108113	0	0	8241	537842	0	0
2024-10-02 21:13:47			0	38663	0	0	0	22070	20650	159072	27008	1054833	46331	108112	0	0	8241	537687	0	0
2024-10-02 21:14:47			0	38672	0	0	0	22070	20650	159156	27358	1054815	46341	108112	0	0	8241	537338	0	0
2024-10-02 21:15:47			0	38696	0	0	0	22072	20660	159080	27338	1054877	46321	108113	0	0	8243	536378	0	0
2024-10-02 21:16:47			0	38693	0	0	0	22072	20640	159136	27126	1054824	46319	108113	0	0	8243	536554	0	0
2024-10-02 21:17:47			0	38683	0	0	0	22075	20650	159100	27732	1054833	46331	108114	0	0	8242	536911	0	0
2024-10-02 21:18:47			0	38705	0	0	0	22064	20640	159128	27279	1054797	46351	108110	0	0	8243	536089	0	0
2024-10-02 21:19:47			0	38690	0	0	0	22062	20650	159132	27419	1054780	46320	108109	0	0	8243	536640	0	0
2024-10-02 21:20:47			0	38695	0	0	0	22067	20650	159108	27300	1054833	46320	108111	0	0	8243	536447	0	0
2024-10-02 21:21:47			0	38685	0	0	0	22064	20650	159116	27381	1054806	46308	108110	0	0	8242	536834	0	0
2024-10-02 21:22:47			0	38694	0	0	0	22070	20650	159120	27329	1054815	46320	108112	0	0	8243	536485	0	0
2024-10-02 21:23:47			0	38690	0	0	0	22064	20640	159096	27055	1054797	46330	108110	0	0	8243	536670	0	0
2024-10-02 21:24:47			0	38705	0	0	0	22057	20660	159024	27015	1054824	46332	108107	0	0	8244	536030	0	0
2024-10-02 21:25:47			0	38709	0	0	0	22062	20640	159016	27336	1054788	46306	108109	0	0	8244	535934	0	0
2024-10-02 21:26:47			0	38712	0	0	0	22067	20640	159056	27076	1054797	46307	108111	0	0	8244	535818	0	0
2024-10-02 21:27:47			0	38710	0	0	0	22067	20640	159020	27074	1054797	46330	108111	0	0	8244	535896	0	0
2024-10-02 21:28:47			0	38735	0	0	0	22057	20640	158932	27005	1054771	46330	108107	0	0	8245	534929	0	0
2024-10-02 21:29:47			0	38724	0	0	0	22051	20640	158936	27144	1054797	46319	108105	0	0	8245	535354	0	0
2024-10-02 21:30:47			0	38718	0	0	0	22054	20640	159048	27308	1054762	46329	108106	0	0	8244	535586	0	0
2024-10-02 21:31:47			0	38709	0	0	0	22057	20640	159024	27164	1054708	46329	108107	0	0	8244	535934	0	0
2024-10-02 21:32:47			0	38717	0	0	0	22057	20640	159000	27263	1054762	46318	108107	0	0	8244	535625	0	0
2024-10-02 21:33:47			0	38729	0	0	0	22064	20640	159020	27140	1054708	46339	108110	0	0	8245	535161	0	0
2024-10-02 21:34:47			0	38699	0	0	0	22051	20640	159068	27274	1054797	46319	108105	0	0	8243	536321	0	0
2024-10-02 21:35:47			0	38698	0	0	0	22051	20650	159064	27107	1054753	46320	108105	0	0	8243	536330	0	0
2024-10-02 21:36:47			0	38719	0	0	0	22054	20640	158988	27296	1054788	46318	108106	0	0	8244	535547	0	0
2024-10-02 21:37:47			0	38725	0	0	0	22046	20630	158901	27372	1054744	46328	108103	0	0	8245	535345	0	0
2024-10-02 21:38:47			0	38716	0	0	0	22057	20640	158956	27182	1054841	46339	108107	0	0	8244	535663	0	0
2024-10-02 21:39:47			0	38717	0	0	0	22054	20630	159016	27149	1054753	46318	108106	0	0	8244	535655	0	0
2024-10-02 21:40:47			0	38738	0	0	0	22049	20630	158901	27500	1054717	46317	108104	0	0	8246	534842	0	0
2024-10-02 21:41:47			0	38731	0	0	0	22046	20630	158889	26904	1054717	46294	108103	0	0	8245	535113	0	0
2024-10-02 21:42:47			0	38719	0	0	0	22044	20630	159032	27133	1054744	46328	108102	0	0	8245	535577	0	0
2024-10-02 21:43:47			0	38752	0	0	0	22046	20630	158909	27020	1054699	46329	108103	0	0	8246	534301	0	0
2024-10-02 21:44:47			0	38744	0	0	0	22057	20630	158833	27069	1054744	46328	108107	0	0	8246	534611	0	0
2024-10-02 21:45:47			0	38760	0	0	0	22057	20630	158821	27381	1054726	46339	108107	0	0	8247	533993	0	0
2024-10-02 21:46:47			0	38752	0	0	0	22054	20640	158905	27033	1054797	46319	108106	0	0	8246	534272	0	0
2024-10-02 21:47:47			0	38775	0	0	0	22051	20620	158877	26939	1054735	46305	108105	0	0	8248	533443	0	0
2024-10-02 21:48:47			0	38775	0	0	0	22049	20630	158885	27279	1054779	46329	108104	0	0	8248	533413	0	0
2024-10-02 21:49:47			0	38759	0	0	0	22044	20640	158833	27448	1054735	46306	108102	0	0	8247	534002	0	0
2024-10-02 21:50:47			0	38759	0	0	0	22051	20630	158745	27281	1054779	46329	108105	0	0	8247	534031	0	0
2024-10-02 21:51:47			0	38754	0	0	0	22041	20640	158817	27223	1054762	46329	108101	0	0	8247	534195	0	0
2024-10-02 21:52:47			0	38762	0	0	0	22041	20620	158809	27206	1054735	46317	108101	0	0	8247	533945	0	0
2024-10-02 21:53:47			0	38750	0	0	0	22049	20640	158897	27074	1054762	46318	108104	0	0	8246	534349	0	0
2024-10-02 21:54:47			0	38748	0	0	0	22044	20630	158961	27329	1054744	46317	108102	0	0	8246	534456	0	0
2024-10-02 21:55:47			0	38745	0	0	0	22057	20620	158945	27242	1054735	46338	108107	0	0	8246	534601	0	0
2024-10-02 21:56:47			0	38745	0	0	0	22054	20620	158833	27351	1054735	46338	108106	0	0	8246	534601	0	0
2024-10-02 21:57:47			0	38751	0	0	0	22044	20640	158781	27301	1054735	46329	108102	0	0	8246	534310	0	0
2024-10-02 21:58:47			0	38766	0	0	0	22049	20630	158769	27220	1054770	46317	108104	0	0	8247	533761	0	0
2024-10-02 21:59:47			0	38743	0	0	0	22044	20640	158813	27381	1054708	46318	108102	0	0	8246	534620	0	0
2024-10-02 22:00:47			0	38734	0	0	0	22054	20630	158689	27235	1054824	46338	108106	0	0	8245	534997	0	0
2024-10-02 22:01:47			0	38759	0	0	0	22046	20630	158793	27100	1054779	46329	108103	0	0	8247	534031	0	0
2024-10-02 22:02:47			0	38770	0	0	0	22044	20630	158837	27192	1054744	46338	108102	0	0	8247	533606	0	0
2024-10-02 22:03:47			0	38762	0	0	0	22049	20630	158849	27445	1054797	46328	108104	0	0	8247	533915	0	0
2024-10-02 22:04:47			0	38757	0	0	0	22046	20630	158809	27234	1054770	46328	108103	0	0	8247	534108	0	0
2024-10-02 22:05:47			0	38746	0	0	0	22051	20620	158869	27173	1054761	46305	108105	0	0	8246	534563	0	0
2024-10-02 22:06:47			0	38746	0	0	0	22038	20620	158745	27246	1054735	46317	108100	0	0	8246	534563	0	0
2024-10-02 22:07:47			0	38764	0	0	0	22044	20630	158781	27469	1054691	46305	108102	0	0	8247	533838	0	0
2024-10-02 22:08:47			0	38738	0	0	0	22044	20620	158813	27176	1054708	46338	108102	0	0	8246	534872	0	0
2024-10-02 22:09:47			0	38740	0	0	0	22044	20620	158865	26885	1054726	46327	108102	0	0	8246	534795	0	0
2024-10-02 22:10:47			0	38728	0	0	0	22044	20620	158753	27019	1054788	46338	108102	0	0	8245	535259	0	0
2024-10-02 22:11:47			0	38745	0	0	0	22044	20620	158737	27135	1054682	46328	108102	0	0	8246	534601	0	0
2024-10-02 22:12:47			0	38753	0	0	0	22046	20620	158849	27261	1054735	46328	108103	0	0	8246	534292	0	0
2024-10-02 22:13:47			0	38772	0	0	0	22051	20620	158821	27090	1054708	46349	108105	0	0	8247	533559	0	0
2024-10-02 22:14:47			0	38758	0	0	0	22046	20620	158869	27377	1054708	46338	108103	0	0	8247	534099	0	0
2024-10-02 22:15:47			0	38755	0	0	0	22038	20610	158777	26989	1054690	46316	108100	0	0	8247	534245	0	0
2024-10-02 22:16:47			0	38768	0	0	0	22057	20630	158829	27281	1054744	46317	108107	0	0	8247	533684	0	0
2024-10-02 22:17:47			0	38768	0	0	0	22046	20630	158757	27223	1054770	46328	108103	0	0	8247	533684	0	0
2024-10-02 22:18:47			0	38757	0	0	0	22046	20630	158781	27204	1054717	46328	108103	0	0	8247	534108	0	0
2024-10-02 22:19:47			0	38751	0	0	0	22054	20630	158777	27053	1054691	46328	108106	0	0	8246	534340	0	0
2024-10-02 22:20:47			0	38760	0	0	0	22038	20630	158841	27026	1054744	46305	108100	0	0	8247	533993	0	0
2024-10-02 22:21:47			0	38741	0	0	0	22033	20630	158857	27493	1054726	46329	108098	0	0	8246	534726	0	0
2024-10-02 22:22:47			0	38739	0	0	0	22036	20620	158893	27102	1054735	46338	108099	0	0	8246	534833	0	0
2024-10-02 22:23:47			0	38745	0	0	0	22038	20630	158865	26970	1054753	46318	108100	0	0	8246	534572	0	0
2024-10-02 22:24:47			0	38730	0	0	0	22044	20630	158997	27178	1054717	46338	108102	0	0	8245	535152	0	0
2024-10-02 22:25:47			0	38740	0	0	0	22038	20620	158917	26809	1054655	46317	108100	0	0	8246	534795	0	0
2024-10-02 22:26:47			0	38717	0	0	0	22044	20620	158988	27027	1054761	46305	108102	0	0	8244	535684	0	0
2024-10-02 22:27:47			0	38712	0	0	0	22044	20620	158892	27088	1054735	46317	108102	0	0	8244	535878	0	0
2024-10-02 22:28:47			0	38737	0	0	0	22038	20630	158881	27326	1054770	46328	108100	0	0	8246	534881	0	0
2024-10-02 22:29:47			0	38734	0	0	0	22046	20620	158925	27280	1054726	46327	108103	0	0	8245	535027	0	0
2024-10-02 22:30:47			0	38731	0	0	0	22046	20620	158929	27606	1054682	46338	108103	0	0	8245	535143	0	0
2024-10-02 22:31:47			0	38743	0	0	0	22044	20620	158877	27346	1054761	46328	108102	0	0	8246	534679	0	0
2024-10-02 22:32:47			0	38731	0	0	0	22049	20620	158985	27085	1054655	46317	108104	0	0	8245	535143	0	0
2024-10-02 22:33:47			0	38739	0	0	0	22054	20620	158825	27246	1054699	46327	108106	0	0	8245	534833	0	0
2024-10-02 22:34:47			0	38735	0	0	0	22046	20630	158965	26998	1054770	46317	108103	0	0	8245	534958	0	0
2024-10-02 22:35:47			0	38724	0	0	0	22036	20630	158957	27147	1054744	46317	108099	0	0	8245	535384	0	0
2024-10-02 22:36:47			0	38711	0	0	0	22046	20630	158936	27471	1054699	46329	108103	0	0	8244	535887	0	0
2024-10-02 22:37:47			0	38693	0	0	0	22041	20620	158900	27048	1054726	46327	108101	0	0	8243	536613	0	0
2024-10-02 22:38:47			0	38702	0	0	0	22041	20620	159028	27291	1054726	46304	108101	0	0	8244	536265	0	0
2024-10-02 22:39:47			0	38702	0	0	0	22036	20620	159000	27320	1054708	46317	108099	0	0	8244	536265	0	0
2024-10-02 22:40:47			0	38694	0	0	0	22033	20630	159080	27498	1054691	46328	108098	0	0	8243	536545	0	0
2024-10-02 22:41:47			0	38686	0	0	0	22028	20620	159080	27244	1054726	46327	108096	0	0	8243	536884	0	0
2024-10-02 22:42:47			0	38680	0	0	0	22033	20630	159116	27050	1054744	46328	108098	0	0	8242	537087	0	0
2024-10-02 22:43:47			0	38668	0	0	0	22031	20610	159164	27249	1054664	46327	108097	0	0	8242	537612	0	0
2024-10-02 22:44:47			0	38665	0	0	0	22036	20620	159076	27307	1054761	46328	108099	0	0	8241	537698	0	0
2024-10-02 22:45:47			0	38687	0	0	0	22031	20610	159064	27137	1054717	46327	108097	0	0	8243	536875	0	0
2024-10-02 22:46:47			0	38653	0	0	0	22028	20620	159224	27095	1054682	46328	108096	0	0	8241	538164	0	0
2024-10-02 22:47:47			0	38654	0	0	0	22038	20620	159140	27201	1054699	46327	108100	0	0	8241	538125	0	0
2024-10-02 22:48:47			0	38661	0	0	0	22036	20610	159300	27504	1054681	46347	108099	0	0	8241	537883	0	0
2024-10-02 22:49:47			0	38659	0	0	0	22025	20620	159180	27189	1054699	46304	108095	0	0	8241	537931	0	0
2024-10-02 22:50:47			0	38637	0	0	0	22038	20620	159276	27376	1054646	46316	108100	0	0	8240	538785	0	0
2024-10-02 22:51:47			0	38643	0	0	0	22033	20620	159152	27414	1054673	46327	108098	0	0	8240	538552	0	0
2024-10-02 22:52:47			0	38631	0	0	0	22038	20620	159216	27237	1054699	46316	108100	0	0	8239	539018	0	0
2024-10-02 22:53:47			0	38642	0	0	0	22036	20610	159196	27022	1054681	46314	108099	0	0	8240	538620	0	0
2024-10-02 22:54:47			0	38651	0	0	0	22041	20610	159220	27390	1054690	46327	108101	0	0	8241	538271	0	0
2024-10-02 22:55:47			0	38651	0	0	0	22018	20620	159160	27467	1054673	46316	108092	0	0	8241	538241	0	0
2024-10-02 22:56:47			0	38645	0	0	0	22041	20610	159212	27300	1054664	46316	108101	0	0	8240	538504	0	0
2024-10-02 22:57:47			0	38631	0	0	0	22038	20620	159232	27329	1054753	46327	108100	0	0	8239	539018	0	0
2024-10-02 22:58:47			0	38623	0	0	0	22038	20620	159296	27277	1054726	46327	108100	0	0	8239	539328	0	0
2024-10-02 22:59:47			0	38625	0	0	0	22036	20620	159288	27204	1054673	46316	108099	0	0	8239	539251	0	0
2024-10-02 23:00:47			0	38615	0	0	0	22033	20610	159268	27486	1054681	46326	108098	0	0	8239	539669	0	0
2024-10-02 23:01:47			0	38617	0	0	0	22036	20620	159208	27145	1054726	46316	108099	0	0	8239	539561	0	0
2024-10-02 23:02:47			0	38609	0	0	0	22041	20620	159332	27313	1054726	46293	108101	0	0	8238	539872	0	0
2024-10-02 23:03:47			0	38594	0	0	0	22031	20620	159416	27357	1054655	46328	108097	0	0	8237	540455	0	0
2024-10-02 23:04:47			0	38597	0	0	0	22025	20620	159304	27234	1054699	46316	108095	0	0	8238	540339	0	0
2024-10-02 23:05:47			0	38596	0	0	0	22031	20610	159312	26991	1054708	46336	108097	0	0	8237	540408	0	0
2024-10-02 23:06:47			0	38583	0	0	0	22033	20600	159380	27293	1054699	46336	108098	0	0	8237	540943	0	0
2024-10-02 23:07:47			0	38600	0	0	0	22028	20610	159344	27270	1054664	46327	108096	0	0	8238	540252	0	0
2024-10-02 23:08:47			0	38582	0	0	0	22033	20610	159440	27237	1054655	46303	108098	0	0	8237	540952	0	0
2024-10-02 23:09:47			0	38586	0	0	0	22031	20620	159400	27291	1054673	46337	108097	0	0	8237	540767	0	0
2024-10-02 23:10:47			0	38581	0	0	0	22025	20620	159392	27313	1054646	46348	108095	0	0	8237	540961	0	0
2024-10-02 23:11:47			0	38580	0	0	0	22033	20610	159448	27206	1054708	46326	108098	0	0	8237	541030	0	0
2024-10-02 23:12:47			0	38569	0	0	0	22044	20610	159584	27329	1054770	46316	108102	0	0	8236	541458	0	0
2024-10-02 23:13:47			0	38563	0	0	0	22028	20610	159432	27175	1054717	46327	108096	0	0	8236	541692	0	0
2024-10-02 23:14:47			0	38575	0	0	0	22033	20610	159572	27183	1054708	46326	108098	0	0	8236	541225	0	0
2024-10-02 23:15:47			0	38563	0	0	0	22028	20620	159520	27182	1054699	46327	108096	0	0	8236	541662	0	0
2024-10-02 23:16:47			0	38538	0	0	0	22033	20610	159484	27107	1054681	46314	108098	0	0	8234	542667	0	0
2024-10-02 23:17:47			0	38566	0	0	0	22031	20610	159520	27575	1054664	46327	108097	0	0	8236	541575	0	0
2024-10-02 23:18:47			0	38550	0	0	0	22031	20600	159552	27312	1054699	46314	108097	0	0	8235	542229	0	0
2024-10-02 23:19:47			0	38555	0	0	0	22036	20630	159460	27261	1054744	46328	108099	0	0	8235	541944	0	0
2024-10-02 23:20:47			0	38540	0	0	0	22036	20610	159508	27312	1054637	46304	108099	0	0	8234	542588	0	0
2024-10-02 23:21:47			0	38523	0	0	0	22033	20620	159528	27322	1054646	46327	108098	0	0	8233	543222	0	0
2024-10-02 23:22:47			0	38549	0	0	0	22036	20610	159596	27526	1054681	46314	108099	0	0	8235	542238	0	0
2024-10-02 23:23:47			0	38538	0	0	0	22036	20620	159640	27308	1054753	46293	108099	0	0	8234	542637	0	0
2024-10-02 23:24:47			0	38541	0	0	0	22036	20600	159536	27455	1054673	46326	108099	0	0	8234	542580	0	0
2024-10-02 23:25:47			0	38541	0	0	0	22038	20620	159548	27170	1054699	46337	108100	0	0	8234	542519	0	0
2024-10-02 23:26:47			0	38527	0	0	0	22031	20620	159692	27294	1054726	46327	108097	0	0	8234	543065	0	0
2024-10-02 23:27:47			0	38541	0	0	0	22038	20610	159620	27277	1054708	46326	108100	0	0	8234	542550	0	0
2024-10-02 23:28:47			0	38532	0	0	0	22038	20610	159612	27348	1054744	46316	108100	0	0	8234	542900	0	0
2024-10-02 23:29:47			0	38529	0	0	0	22033	20610	159760	27296	1054637	46337	108098	0	0	8234	543017	0	0
2024-10-02 23:30:47			0	38530	0	0	0	22033	20610	159760	27334	1054717	46327	108098	0	0	8234	542979	0	0
2024-10-02 23:31:47			0	38530	0	0	0	22041	20610	159820	27434	1054681	46326	108101	0	0	8233	542979	0	0
2024-10-02 23:32:47			0	38516	0	0	0	22044	20610	159840	27138	1054681	46326	108102	0	0	8233	543525	0	0
2024-10-02 23:33:47			0	38498	0	0	0	22033	20610	159724	27215	1054664	46327	108098	0	0	8232	544228	0	0
2024-10-02 23:34:47			0	38497	0	0	0	22036	20620	159800	27450	1054726	46304	108099	0	0	8232	544236	0	0
2024-10-02 23:35:47			0	38481	0	0	0	22038	20620	159860	27454	1054646	46337	108100	0	0	8231	544862	0	0
2024-10-02 23:36:47			0	38501	0	0	0	22036	20610	159808	27514	1054664	46337	108099	0	0	8232	544110	0	0
2024-10-02 23:37:47			0	38510	0	0	0	22036	20610	159816	27774	1054690	46304	108099	0	0	8232	543759	0	0
2024-10-02 23:38:47			0	38501	0	0	0	22033	20610	159732	26958	1054637	46327	108098	0	0	8232	544110	0	0
2024-10-02 23:39:47			0	38491	0	0	0	22031	20620	159832	27298	1054735	46328	108097	0	0	8231	544471	0	0
2024-10-02 23:40:47			0	38469	0	0	0	22036	20610	159844	27312	1054708	46326	108099	0	0	8230	545361	0	0
2024-10-02 23:41:47			0	38476	0	0	0	22036	20610	159924	27313	1054690	46304	108099	0	0	8230	545087	0	0
2024-10-02 23:42:47			0	38482	0	0	0	22038	20610	159912	27407	1054681	46292	108100	0	0	8231	544853	0	0
2024-10-02 23:43:47			0	38478	0	0	0	22041	20610	159884	27507	1054655	46326	108101	0	0	8230	545009	0	0
2024-10-02 23:44:47			0	38495	0	0	0	22044	20620	159960	27282	1054673	46327	108102	0	0	8231	544315	0	0
2024-10-02 23:45:47			0	38475	0	0	0	22038	20620	159924	27265	1054673	46304	108100	0	0	8230	545096	0	0
2024-10-02 23:46:47			0	38481	0	0	0	22033	20600	159976	27543	1054637	46335	108098	0	0	8231	544922	0	0
2024-10-02 23:47:47			0	38473	0	0	0	22028	20610	159948	27466	1054664	46337	108096	0	0	8230	545205	0	0
2024-10-02 23:48:47			0	38481	0	0	0	22025	20620	159864	27261	1054753	46316	108095	0	0	8231	544862	0	0
2024-10-02 23:49:47			0	38459	0	0	0	22033	20610	159952	27396	1054717	46316	108098	0	0	8229	545752	0	0
2024-10-02 23:50:47			0	38469	0	0	0	22023	20610	160048	26994	1054655	46292	108094	0	0	8230	545361	0	0
2024-10-02 23:51:47			0	38470	0	0	0	22028	20610	159972	27545	1054664	46316	108096	0	0	8230	545322	0	0
2024-10-02 23:52:47			0	38458	0	0	0	22028	20610	160092	27126	1054681	46314	108096	0	0	8229	545791	0	0
2024-10-02 23:53:47			0	38449	0	0	0	22033	20620	160068	27296	1054699	46327	108098	0	0	8229	546113	0	0
2024-10-02 23:54:47			0	38454	0	0	0	22023	20610	160048	27166	1054717	46316	108094	0	0	8229	545948	0	0
2024-10-02 23:55:47			0	38446	0	0	0	22031	20600	160092	27128	1054646	46336	108097	0	0	8229	546291	0	0
2024-10-02 23:56:47			0	38449	0	0	0	22023	20600	160000	27230	1054646	46336	108094	0	0	8229	546174	0	0
2024-10-02 23:57:47			0	38436	0	0	0	22025	20600	160112	27258	1054673	46303	108095	0	0	8228	546683	0	0
2024-10-02 23:58:47			0	38444	0	0	0	22031	20610	160020	27171	1054655	46314	108097	0	0	8229	546339	0	0
2024-10-02 23:59:47			0	38457	0	0	0	22020	20610	160124	27289	1054690	46327	108093	0	0	8230	545831	0	0
2024-10-03 00:00:47			0	38447	0	0	0	22031	20610	160172	27275	1054681	46314	108097	0	0	8229	546222	0	0
2024-10-03 00:01:47			0	38465	0	0	0	22036	20610	160152	27246	1054681	46314	108099	0	0	8230	545518	0	0
2024-10-03 00:02:47			0	38469	0	0	0	22031	20610	160124	27232	1054681	46326	108097	0	0	8230	545361	0	0
2024-10-03 00:03:47			0	38465	0	0	0	22028	20610	159960	27254	1054664	46304	108096	0	0	8230	545518	0	0
2024-10-03 00:04:47			0	38462	0	0	0	22036	20610	160064	27138	1054717	46337	108099	0	0	8230	545635	0	0
2024-10-03 00:05:47			0	38483	0	0	0	22031	20610	160084	27511	1054735	46303	108097	0	0	8231	544814	0	0
2024-10-03 00:06:47			0	38468	0	0	0	22031	20620	159920	26885	1054708	46317	108097	0	0	8230	545370	0	0
2024-10-03 00:07:47			0	38480	0	0	0	22036	20610	160008	27556	1054664	46304	108099	0	0	8231	544931	0	0
2024-10-03 00:08:47			0	38481	0	0	0	22023	20610	159848	27284	1054681	46326	108094	0	0	8231	544892	0	0
2024-10-03 00:09:47			0	38474	0	0	0	22018	20610	160016	27098	1054611	46327	108092	0	0	8231	545166	0	0
2024-10-03 00:10:47			0	38471	0	0	0	22023	20610	160068	27227	1054655	46292	108094	0	0	8230	545283	0	0
2024-10-03 00:11:47			0	38478	0	0	0	22023	20610	160000	27173	1054681	46314	108094	0	0	8231	545009	0	0
2024-10-03 00:12:47			0	38472	0	0	0	22025	20610	159960	27305	1054655	46326	108095	0	0	8230	545244	0	0
2024-10-03 00:13:47			0	38477	0	0	0	22033	20610	160076	27064	1054637	46316	108098	0	0	8231	545048	0	0
2024-10-03 00:14:47			0	38467	0	0	0	22033	20610	159928	27175	1054717	46304	108098	0	0	8230	545439	0	0
2024-10-03 00:15:47			0	38488	0	0	0	22033	20600	159900	27338	1054673	46326	108098	0	0	8231	544648	0	0
2024-10-03 00:16:47			0	38484	0	0	0	22036	20610	159940	26901	1054664	46337	108099	0	0	8231	544775	0	0
2024-10-03 00:17:47			0	38482	0	0	0	22028	20600	159944	27388	1054646	46303	108096	0	0	8231	544883	0	0
2024-10-03 00:18:47			0	38502	0	0	0	22033	20610	160032	27055	1054708	46314	108098	0	0	8232	544071	0	0
2024-10-03 00:19:47			0	38477	0	0	0	22025	20600	159996	27322	1054593	46314	108095	0	0	8231	545078	0	0
2024-10-03 00:20:47			0	38456	0	0	0	22025	20610	160020	27265	1054708	46336	108095	0	0	8229	545870	0	0
2024-10-03 00:21:47			0	38480	0	0	0	22033	20610	160080	27441	1054655	46314	108098	0	0	8231	544931	0	0
2024-10-03 00:22:47			0	38478	0	0	0	22038	20600	159976	27473	1054673	46326	108100	0	0	8230	545039	0	0
2024-10-03 00:23:47			0	38474	0	0	0	22028	20610	159956	27360	1054717	46316	108096	0	0	8230	545166	0	0
2024-10-03 00:24:47			0	38471	0	0	0	22033	20600	160000	27492	1054673	46336	108098	0	0	8230	545313	0	0
2024-10-03 00:25:47			0	38465	0	0	0	22038	20610	160048	27300	1054655	46326	108100	0	0	8230	545518	0	0
2024-10-03 00:26:47			0	38462	0	0	0	22031	20610	159932	27606	1054690	46304	108097	0	0	8230	545635	0	0
2024-10-03 00:27:47			0	38464	0	0	0	22033	20620	160112	27308	1054708	46317	108098	0	0	8230	545526	0	0
2024-10-03 00:28:47			0	38468	0	0	0	22033	20610	160080	27208	1054690	46316	108098	0	0	8230	545400	0	0
2024-10-03 00:29:47			0	38451	0	0	0	22036	20610	160136	27538	1054690	46337	108099	0	0	8229	546065	0	0
2024-10-03 00:30:47			0	38459	0	0	0	22036	20620	160080	27440	1054708	46305	108099	0	0	8229	545722	0	0
2024-10-03 00:31:47			0	38453	0	0	0	22025	20610	160148	27159	1054628	46326	108095	0	0	8229	545987	0	0
2024-10-03 00:32:47			0	38450	0	0	0	22031	20610	160136	27398	1054602	46303	108097	0	0	8229	546105	0	0
2024-10-03 00:33:47			0	38437	0	0	0	22038	20610	160116	27637	1054708	46314	108100	0	0	8228	546614	0	0
2024-10-03 00:34:47			0	38433	0	0	0	22038	20610	160108	27383	1054690	46316	108100	0	0	8228	546770	0	0
2024-10-03 00:35:47			0	38462	0	0	0	22038	20620	160148	27369	1054753	46316	108100	0	0	8230	545605	0	0
2024-10-03 00:36:47			0	38456	0	0	0	22041	20610	160040	27138	1054664	46327	108101	0	0	8229	545870	0	0
2024-10-03 00:37:47			0	38448	0	0	0	22046	20630	160044	26967	1054744	46328	108103	0	0	8229	546122	0	0
2024-10-03 00:38:47			0	38452	0	0	0	22041	20620	160196	27124	1054726	46293	108101	0	0	8229	545996	0	0
2024-10-03 00:39:47			0	38434	0	0	0	22028	20610	160064	27154	1054690	46316	108096	0	0	8228	546731	0	0
2024-10-03 00:40:47			0	38423	0	0	0	22038	20620	160100	27093	1054673	46316	108100	0	0	8227	547132	0	0
2024-10-03 00:41:47			0	38444	0	0	0	22041	20620	160112	27102	1054761	46317	108101	0	0	8228	546309	0	0
2024-10-03 00:42:47			0	38433	0	0	0	22046	20610	160196	27305	1054717	46327	108103	0	0	8228	546770	0	0
2024-10-03 00:43:47			0	38458	0	0	0	22046	20620	160180	27201	1054753	46304	108103	0	0	8229	545761	0	0
2024-10-03 00:44:47			0	38430	0	0	0	22044	20620	160192	27222	1054753	46327	108102	0	0	8228	546858	0	0
2024-10-03 00:45:47			0	38433	0	0	0	22041	20610	160220	27154	1054744	46337	108101	0	0	8228	546770	0	0
2024-10-03 00:46:47			0	38443	0	0	0	22036	20620	160216	27055	1054779	46316	108099	0	0	8229	546348	0	0
2024-10-03 00:47:47			0	38439	0	0	0	22031	20620	160240	27194	1054682	46328	108097	0	0	8228	546505	0	0
2024-10-03 00:48:47			0	38433	0	0	0	22031	20620	160144	27516	1054699	46316	108097	0	0	8228	546740	0	0
2024-10-03 00:49:47			0	38412	0	0	0	22033	20620	160216	27448	1054761	46305	108098	0	0	8227	547563	0	0
2024-10-03 00:50:47			0	38417	0	0	0	22025	20610	160200	27317	1054690	46316	108095	0	0	8227	547397	0	0
2024-10-03 00:51:47			0	38407	0	0	0	22033	20610	160248	27329	1054628	46303	108098	0	0	8226	547789	0	0
2024-10-03 00:52:47			0	38412	0	0	0	22028	20610	160272	27118	1054681	46336	108096	0	0	8227	547593	0	0
2024-10-03 00:53:47			0	38406	0	0	0	22025	20610	160248	27150	1054690	46304	108095	0	0	8226	547829	0	0
2024-10-03 00:54:47			0	38403	0	0	0	22023	20620	160388	27107	1054699	46316	108094	0	0	8226	547916	0	0
2024-10-03 00:55:47			0	38410	0	0	0	22025	20600	160332	27376	1054637	46325	108095	0	0	8227	547702	0	0
2024-10-03 00:56:47			0	38388	0	0	0	22018	20610	160248	27428	1054628	46303	108092	0	0	8226	548535	0	0
2024-10-03 00:57:47			0	38393	0	0	0	22036	20610	160288	27291	1054717	46337	108099	0	0	8226	548339	0	0
2024-10-03 00:58:47			0	38392	0	0	0	22031	20610	160384	27001	1054602	46326	108097	0	0	8226	548378	0	0
2024-10-03 00:59:47			0	38377	0	0	0	22038	20600	160320	27263	1054726	46303	108100	0	0	8225	548997	0	0
2024-10-03 01:00:47			0	38363	0	0	0	22031	20610	160376	27289	1054681	46314	108097	0	0	8224	549517	0	0
2024-10-03 01:01:47			0	38362	0	0	0	22033	20600	160460	27019	1054619	46326	108098	0	0	8224	549587	0	0
2024-10-03 01:02:47			0	38378	0	0	0	22020	20600	160388	27552	1054726	46303	108093	0	0	8225	548958	0	0
2024-10-03 01:03:47			0	38360	0	0	0	22031	20600	160508	27244	1054752	46336	108097	0	0	8224	549665	0	0
2024-10-03 01:04:47			0	38363	0	0	0	22046	20610	160424	27024	1054681	46336	108103	0	0	8224	549517	0	0
2024-10-03 01:05:47			0	38372	0	0	0	22031	20600	160424	27345	1054726	46314	108097	0	0	8224	549193	0	0
2024-10-03 01:06:47			0	38344	0	0	0	22049	20600	160384	27573	1054646	46326	108104	0	0	8222	550294	0	0
2024-10-03 01:07:47			0	38368	0	0	0	22025	20610	160480	27142	1054717	46316	108095	0	0	8224	549320	0	0
2024-10-03 01:08:47			0	38376	0	0	0	22051	20600	160404	27194	1054664	46335	108105	0	0	8224	549036	0	0
2024-10-03 01:09:47			0	38381	0	0	0	22046	20610	160416	27104	1054681	46326	108103	0	0	8225	548810	0	0
2024-10-03 01:10:47			0	38386	0	0	0	22038	20610	160368	27241	1054681	46326	108100	0	0	8225	548613	0	0
2024-10-03 01:11:47			0	38390	0	0	0	22036	20620	160352	27249	1054753	46337	108099	0	0	8225	548426	0	0
2024-10-03 01:12:47			0	38359	0	0	0	22036	20600	160404	27422	1054673	46314	108099	0	0	8224	549704	0	0
2024-10-03 01:13:47			0	38376	0	0	0	22038	20600	160452	27462	1054690	46313	108100	0	0	8224	549036	0	0
2024-10-03 01:14:47			0	38377	0	0	0	22036	20610	160372	27627	1054664	46337	108099	0	0	8225	548967	0	0
2024-10-03 01:15:47			0	38369	0	0	0	22038	20610	160516	27251	1054708	46314	108100	0	0	8224	549281	0	0
2024-10-03 01:16:47			0	38383	0	0	0	22044	20610	160516	27398	1054708	46314	108102	0	0	8225	548731	0	0
2024-10-03 01:17:47			0	38378	0	0	0	22054	20610	160380	27454	1054735	46336	108106	0	0	8224	548928	0	0
2024-10-03 01:18:47			0	38371	0	0	0	22046	20600	160332	27474	1054752	46336	108103	0	0	8224	549233	0	0
2024-10-03 01:19:47			0	38382	0	0	0	22036	20610	160268	27329	1054717	46316	108099	0	0	8225	548770	0	0
2024-10-03 01:20:47			0	38372	0	0	0	22051	20610	160424	27396	1054664	46316	108105	0	0	8224	549163	0	0
2024-10-03 01:21:47			0	38377	0	0	0	22057	20610	160316	27114	1054708	46314	108107	0	0	8224	548967	0	0
2024-10-03 01:22:47			0	38393	0	0	0	22054	20620	160300	27326	1054761	46328	108106	0	0	8225	548308	0	0
2024-10-03 01:23:47			0	38405	0	0	0	22067	20620	160380	27128	1054779	46304	108111	0	0	8226	547838	0	0
2024-10-03 01:24:47			0	38422	0	0	0	22064	20620	160172	27272	1054708	46317	108110	0	0	8227	547171	0	0
2024-10-03 01:25:47			0	38447	0	0	0	22062	20620	160140	27150	1054779	46327	108109	0	0	8228	546192	0	0
2024-10-03 01:26:47			0	38444	0	0	0	22049	20620	160052	27085	1054806	46316	108104	0	0	8228	546309	0	0
2024-10-03 01:27:47			0	38457	0	0	0	22062	20610	160040	27313	1054770	46327	108109	0	0	8229	545831	0	0
2024-10-03 01:28:47			0	38480	0	0	0	22080	20630	159944	27249	1054833	46329	108116	0	0	8230	544871	0	0
2024-10-03 01:29:47			0	38495	0	0	0	22077	20620	159844	27305	1054815	46328	108115	0	0	8231	544315	0	0
2024-10-03 01:30:47			0	38498	0	0	0	22070	20630	159864	27305	1054806	46306	108112	0	0	8231	544167	0	0
2024-10-03 01:31:47			0	38509	0	0	0	22075	20630	159840	27081	1054797	46338	108114	0	0	8232	543738	0	0
2024-10-03 01:32:47			0	38512	0	0	0	22067	20630	159812	27279	1054797	46338	108111	0	0	8232	543621	0	0
2024-10-03 01:33:47			0	38496	0	0	0	22054	20620	159832	27251	1054832	46327	108106	0	0	8231	544276	0	0
2024-10-03 01:34:47			0	38492	0	0	0	22038	20630	159908	27300	1054806	46318	108100	0	0	8231	544402	0	0
2024-10-03 01:35:47			0	38460	0	0	0	22051	20610	159892	26986	1054744	46304	108105	0	0	8229	545713	0	0
2024-10-03 01:36:47			0	38466	0	0	0	22059	20630	159836	27144	1054797	46317	108108	0	0	8230	545418	0	0
2024-10-03 01:37:47			0	38479	0	0	0	22059	20620	159976	26968	1054815	46305	108108	0	0	8230	544940	0	0
2024-10-03 01:38:47			0	38460	0	0	0	22070	20630	159868	27130	1054824	46317	108112	0	0	8229	545653	0	0
2024-10-03 01:39:47			0	38495	0	0	0	22080	20630	159808	26982	1054850	46294	108116	0	0	8231	544285	0	0
2024-10-03 01:40:47			0	38510	0	0	0	22062	20620	159728	27400	1054815	46317	108109	0	0	8232	543729	0	0
2024-10-03 01:41:47			0	38530	0	0	0	22075	20620	159712	27223	1054788	46317	108114	0	0	8233	542949	0	0
2024-10-03 01:42:47			0	38516	0	0	0	22062	20630	159780	27313	1054797	46317	108109	0	0	8232	543465	0	0
2024-10-03 01:43:47			0	38532	0	0	0	22062	20630	159764	27048	1054850	46328	108109	0	0	8233	542840	0	0
2024-10-03 01:44:47			0	38531	0	0	0	22062	20630	159704	27398	1054744	46317	108109	0	0	8233	542879	0	0
2024-10-03 01:45:47			0	38485	0	0	0	22070	20630	159760	27194	1054859	46329	108112	0	0	8230	544675	0	0
2024-10-03 01:46:47			0	38510	0	0	0	22062	20630	159768	27074	1054833	46339	108109	0	0	8232	543699	0	0
2024-10-03 01:47:47			0	38510	0	0	0	22072	20640	159840	27050	1054815	46306	108113	0	0	8232	543669	0	0
2024-10-03 01:48:47			0	38510	0	0	0	22075	20630	159904	27412	1054806	46329	108114	0	0	8232	543699	0	0
2024-10-03 01:49:47			0	38518	0	0	0	22075	20630	159800	27417	1054903	46328	108114	0	0	8232	543386	0	0
2024-10-03 01:50:47			0	38512	0	0	0	22067	20640	159772	27315	1054868	46329	108111	0	0	8232	543591	0	0
2024-10-03 01:51:47			0	38525	0	0	0	22070	20640	159684	27594	1054815	46318	108112	0	0	8233	543083	0	0
2024-10-03 01:52:47			0	38528	0	0	0	22062	20640	159780	27518	1054868	46306	108109	0	0	8233	542966	0	0
2024-10-03 01:53:47			0	38531	0	0	0	22049	20630	159732	27168	1054886	46329	108104	0	0	8233	542879	0	0
2024-10-03 01:54:47			0	38505	0	0	0	22051	20640	159716	27512	1054841	46318	108105	0	0	8232	543864	0	0
2024-10-03 01:55:47			0	38480	0	0	0	22059	20640	159936	27486	1054841	46339	108108	0	0	8230	544841	0	0
2024-10-03 01:56:47			0	38465	0	0	0	22049	20630	160012	26974	1054797	46328	108104	0	0	8230	545457	0	0
2024-10-03 01:57:47			0	38462	0	0	0	22057	20640	159912	27213	1054815	46329	108107	0	0	8229	545544	0	0
2024-10-03 01:58:47			0	38452	0	0	0	22064	20630	159996	27157	1054806	46318	108110	0	0	8229	545966	0	0
2024-10-03 01:59:47			0	38461	0	0	0	22059	20630	159844	27433	1054859	46318	108108	0	0	8229	545614	0	0
2024-10-03 02:00:47			0	38468	0	0	0	22059	20630	160068	27334	1054753	46329	108108	0	0	8230	545340	0	0
2024-10-03 02:01:47			0	38466	0	0	0	22064	20630	159976	27267	1054850	46317	108110	0	0	8229	545418	0	0
2024-10-03 02:02:47			0	38458	0	0	0	22067	20640	159992	27556	1054921	46306	108111	0	0	8229	545701	0	0
2024-10-03 02:03:47			0	38483	0	0	0	22072	20640	159976	27048	1054841	46329	108113	0	0	8230	544723	0	0
2024-10-03 02:04:47			0	38463	0	0	0	22072	20640	159860	27235	1054868	46329	108113	0	0	8229	545505	0	0
2024-10-03 02:05:47			0	38500	0	0	0	22064	20640	159788	27253	1054877	46330	108110	0	0	8231	544059	0	0
2024-10-03 02:06:47			0	38507	0	0	0	22062	20640	159880	27391	1054815	46339	108109	0	0	8232	543786	0	0
2024-10-03 02:07:47			0	38484	0	0	0	22070	20630	159896	27230	1054859	46318	108112	0	0	8230	544714	0	0
2024-10-03 02:08:47			0	38517	0	0	0	22070	20630	159884	27062	1054806	46306	108112	0	0	8232	543426	0	0
2024-10-03 02:09:47			0	38508	0	0	0	22070	20630	159872	26961	1054833	46339	108112	0	0	8232	543777	0	0
2024-10-03 02:10:47			0	38511	0	0	0	22059	20640	159812	26953	1054841	46329	108108	0	0	8232	543630	0	0
2024-10-03 02:11:47			0	38495	0	0	0	22075	20640	159788	27260	1054868	46318	108114	0	0	8231	544255	0	0
2024-10-03 02:12:47			0	38518	0	0	0	22062	20640	159732	27287	1054895	46329	108109	0	0	8233	543356	0	0
2024-10-03 02:13:47			0	38501	0	0	0	22072	20640	159792	27433	1054877	46319	108113	0	0	8231	544020	0	0
2024-10-03 02:14:47			0	38500	0	0	0	22064	20640	159824	27312	1054850	46319	108110	0	0	8231	544059	0	0
2024-10-03 02:15:47			0	38495	0	0	0	22054	20640	159896	27362	1054877	46307	108106	0	0	8231	544255	0	0
2024-10-03 02:16:47			0	38473	0	0	0	22057	20640	159800	27398	1054850	46330	108107	0	0	8230	545114	0	0
2024-10-03 02:17:47			0	38467	0	0	0	22054	20640	159988	27239	1054895	46329	108106	0	0	8230	545349	0	0
2024-10-03 02:18:47			0	38453	0	0	0	22059	20630	159992	27261	1054824	46328	108108	0	0	8229	545927	0	0
2024-10-03 02:19:47			0	38462	0	0	0	22054	20640	159992	27019	1054868	46306	108106	0	0	8229	545544	0	0
2024-10-03 02:20:47			0	38449	0	0	0	22067	20630	159932	27003	1054833	46329	108111	0	0	8228	546083	0	0
2024-10-03 02:21:47			0	38467	0	0	0	22070	20630	160032	27218	1054833	46318	108112	0	0	8229	545379	0	0
2024-10-03 02:22:47			0	38463	0	0	0	22059	20640	160084	27050	1054868	46306	108108	0	0	8229	545505	0	0
2024-10-03 02:23:47			0	38438	0	0	0	22070	20650	159976	27291	1054886	46320	108112	0	0	8228	546454	0	0
2024-10-03 02:24:47			0	38472	0	0	0	22072	20640	159980	27303	1054868	46318	108113	0	0	8230	545153	0	0
2024-10-03 02:25:47			0	38477	0	0	0	22070	20640	160020	27126	1054895	46329	108112	0	0	8230	544958	0	0
2024-10-03 02:26:47			0	38476	0	0	0	22072	20640	159864	27131	1054921	46295	108113	0	0	8230	544997	0	0
2024-10-03 02:27:47			0	38491	0	0	0	22077	20640	159864	27287	1054921	46329	108115	0	0	8231	544411	0	0
2024-10-03 02:28:47			0	38506	0	0	0	22072	20640	159904	27071	1054877	46307	108113	0	0	8232	543825	0	0
2024-10-03 02:29:47			0	38508	0	0	0	22070	20640	159820	27402	1054868	46318	108112	0	0	8232	543747	0	0
2024-10-03 02:30:47			0	38507	0	0	0	22064	20650	159756	27057	1054913	46331	108110	0	0	8232	543756	0	0
2024-10-03 02:31:47			0	38496	0	0	0	22062	20640	159852	27003	1054877	46330	108109	0	0	8231	544215	0	0
2024-10-03 02:32:47			0	38514	0	0	0	22064	20630	159832	27064	1054859	46318	108110	0	0	8232	543543	0	0
2024-10-03 02:33:47			0	38508	0	0	0	22059	20640	159812	27131	1054815	46329	108108	0	0	8232	543747	0	0
2024-10-03 02:34:47			0	38495	0	0	0	22051	20640	159812	27116	1054788	46339	108105	0	0	8231	544255	0	0
2024-10-03 02:35:47			0	38509	0	0	0	22067	20630	159860	26965	1054850	46328	108111	0	0	8232	543738	0	0
2024-10-03 02:36:47			0	38505	0	0	0	22070	20620	159848	27007	1054841	46305	108112	0	0	8232	543924	0	0
2024-10-03 02:37:47			0	38507	0	0	0	22064	20640	159744	27183	1054850	46319	108110	0	0	8232	543786	0	0
2024-10-03 02:38:47			0	38525	0	0	0	22072	20640	159796	27204	1054868	46339	108113	0	0	8233	543083	0	0
2024-10-03 02:39:47			0	38542	0	0	0	22067	20640	159596	27229	1054824	46340	108111	0	0	8234	542420	0	0
2024-10-03 02:40:47			0	38528	0	0	0	22064	20630	159604	27185	1054806	46329	108110	0	0	8233	542996	0	0
2024-10-03 02:41:47			0	38545	0	0	0	22062	20630	159696	27218	1054859	46329	108109	0	0	8234	542334	0	0
2024-10-03 02:42:47			0	38568	0	0	0	22070	20630	159572	26739	1054886	46318	108112	0	0	8235	541437	0	0
2024-10-03 02:43:47			0	38576	0	0	0	22075	20640	159560	27131	1054877	46340	108114	0	0	8236	541096	0	0
2024-10-03 02:44:47			0	38573	0	0	0	22064	20640	159376	27069	1054841	46329	108110	0	0	8236	541213	0	0
2024-10-03 02:45:47			0	38583	0	0	0	22067	20650	159436	26944	1054833	46320	108111	0	0	8236	540794	0	0
2024-10-03 02:46:47			0	38603	0	0	0	22072	20640	159512	26949	1054904	46330	108113	0	0	8237	540046	0	0
2024-10-03 02:47:47			0	38579	0	0	0	22070	20650	159496	27045	1054886	46331	108112	0	0	8236	540949	0	0
2024-10-03 02:48:47			0	38596	0	0	0	22064	20650	159424	27500	1054886	46320	108110	0	0	8237	540288	0	0
2024-10-03 02:49:47			0	38586	0	0	0	22064	20640	159528	27010	1054841	46318	108110	0	0	8236	540707	0	0
2024-10-03 02:50:47			0	38577	0	0	0	22057	20640	159464	27131	1054815	46318	108107	0	0	8236	541057	0	0
2024-10-03 02:51:47			0	38587	0	0	0	22062	20640	159448	27338	1054877	46319	108109	0	0	8237	540668	0	0
2024-10-03 02:52:47			0	38572	0	0	0	22059	20640	159656	27166	1054850	46330	108108	0	0	8236	541252	0	0
2024-10-03 02:53:47			0	38592	0	0	0	22049	20640	159596	27090	1054815	46318	108104	0	0	8237	540474	0	0
2024-10-03 02:54:47			0	38553	0	0	0	22051	20640	159644	27090	1054895	46318	108105	0	0	8235	541992	0	0
2024-10-03 02:55:47			0	38577	0	0	0	22049	20640	159668	27015	1054895	46306	108104	0	0	8236	541057	0	0
2024-10-03 02:56:47			0	38556	0	0	0	22059	20630	159564	26797	1054806	46318	108108	0	0	8235	541905	0	0
2024-10-03 02:57:47			0	38570	0	0	0	22046	20630	159568	27164	1054886	46329	108103	0	0	8236	541360	0	0
2024-10-03 02:58:47			0	38566	0	0	0	22054	20630	159512	27126	1054779	46318	108106	0	0	8235	541515	0	0
2024-10-03 02:59:47			0	38581	0	0	0	22051	20630	159612	26986	1054806	46318	108105	0	0	8236	540931	0	0
2024-10-03 03:00:47			0	38551	0	0	0	22057	20630	159628	26955	1054833	46318	108107	0	0	8235	542100	0	0
2024-10-03 03:01:47			0	38577	0	0	0	22038	20630	159592	27235	1054806	46306	108100	0	0	8236	541087	0	0
2024-10-03 03:02:47			0	38562	0	0	0	22038	20630	159632	27128	1054824	46328	108100	0	0	8235	541671	0	0
2024-10-03 03:03:47			0	38537	0	0	0	22023	20630	159716	27220	1054744	46317	108094	0	0	8234	542645	0	0
2024-10-03 03:04:47			0	38508	0	0	0	22012	20630	159864	27055	1054770	46317	108090	0	0	8233	543777	0	0
2024-10-03 03:05:47			0	38464	0	0	0	22015	20620	159992	26930	1054708	46305	108091	0	0	8230	545526	0	0
2024-10-03 03:06:47			0	38415	0	0	0	22012	20620	160252	26859	1054726	46316	108090	0	0	8227	547445	0	0
2024-10-03 03:07:47			0	38388	0	0	0	22018	20610	160424	26925	1054708	46303	108092	0	0	8226	548535	0	0
2024-10-03 03:08:47			0	38356	0	0	0	22015	20610	160556	26882	1054744	46327	108091	0	0	8224	549792	0	0
2024-10-03 03:09:47			0	38362	0	0	0	22041	20620	160480	27320	1054761	46328	108101	0	0	8224	549526	0	0
2024-10-03 03:10:47			0	38395	0	0	0	22038	20620	160428	26994	1054726	46316	108100	0	0	8226	548230	0	0
2024-10-03 03:11:47			0	38392	0	0	0	22046	20620	160232	27118	1054699	46327	108103	0	0	8225	548348	0	0
2024-10-03 03:12:47			0	38419	0	0	0	22046	20610	160296	27197	1054761	46326	108103	0	0	8227	547319	0	0
2024-10-03 03:13:47			0	38453	0	0	0	22038	20600	160104	27241	1054699	46326	108100	0	0	8229	546017	0	0
2024-10-03 03:14:47			0	38456	0	0	0	22036	20610	160044	26873	1054788	46326	108099	0	0	8229	545870	0	0
2024-10-03 03:15:47			0	38447	0	0	0	22025	20610	160076	27215	1054770	46337	108095	0	0	8229	546222	0	0
2024-10-03 03:16:47			0	38433	0	0	0	22018	20620	160060	26812	1054753	46304	108092	0	0	8228	546740	0	0
2024-10-03 03:17:47			0	38420	0	0	0	22028	20600	160224	26755	1054699	46303	108096	0	0	8227	547310	0	0
2024-10-03 03:18:47			0	38407	0	0	0	22028	20610	160328	27121	1054708	46314	108096	0	0	8227	547789	0	0
2024-10-03 03:19:47			0	38410	0	0	0	22023	20600	160324	27118	1054673	46326	108094	0	0	8227	547702	0	0
2024-10-03 03:20:47			0	38364	0	0	0	21994	20600	160372	27303	1054646	46314	108083	0	0	8225	549508	0	0
2024-10-03 03:21:47			0	38316	0	0	0	21989	20600	160608	27130	1054584	46325	108081	0	0	8222	551396	0	0
2024-10-03 03:22:47			0	38268	0	0	0	21984	20590	160788	27166	1054592	46313	108079	0	0	8219	553319	0	0
2024-10-03 03:23:47			0	38217	0	0	0	21999	20600	161028	27031	1054637	46302	108085	0	0	8216	555303	0	0
2024-10-03 03:24:47			0	38211	0	0	0	22005	20590	161132	26783	1054495	46302	108087	0	0	8215	555571	0	0
2024-10-03 03:25:47			0	38209	0	0	0	22020	20590	161148	26984	1054645	46334	108093	0	0	8215	555650	0	0
2024-10-03 03:26:47			0	38195	0	0	0	21992	20580	161156	26961	1054610	46313	108082	0	0	8215	556235	0	0
2024-10-03 03:27:47			0	38197	0	0	0	21992	20580	161252	27251	1054636	46301	108082	0	0	8215	556156	0	0
2024-10-03 03:28:47			0	38171	0	0	0	22002	20580	161288	27284	1054530	46301	108086	0	0	8213	557186	0	0
2024-10-03 03:29:47			0	38196	0	0	0	22025	20580	161280	26984	1054583	46301	108095	0	0	8214	556196	0	0
2024-10-03 03:30:47			0	38203	0	0	0	22010	20580	161192	27126	1054548	46300	108089	0	0	8215	555919	0	0
2024-10-03 03:31:47			0	38216	0	0	0	22025	20580	161092	27249	1054557	46313	108095	0	0	8215	555404	0	0
2024-10-03 03:32:47			0	38257	0	0	0	22015	20580	160860	27079	1054601	46312	108091	0	0	8218	553784	0	0
2024-10-03 03:33:47			0	38281	0	0	0	22025	20570	160836	27008	1054592	46333	108095	0	0	8219	552867	0	0
2024-10-03 03:34:47			0	38298	0	0	0	22012	20580	160856	27294	1054557	46313	108090	0	0	8220	552166	0	0
2024-10-03 03:35:47			0	38301	0	0	0	22010	20580	160712	27208	1054574	46323	108089	0	0	8220	552048	0	0
2024-10-03 03:36:47			0	38283	0	0	0	22023	20590	160812	26817	1054619	46324	108094	0	0	8219	552727	0	0
2024-10-03 03:37:47			0	38280	0	0	0	22005	20580	160864	26611	1054530	46334	108087	0	0	8219	552876	0	0
2024-10-03 03:38:47			0	38263	0	0	0	22038	20580	160772	27007	1054548	46312	108100	0	0	8218	553547	0	0
2024-10-03 03:39:47			0	38318	0	0	0	22031	20580	160640	26922	1054636	46334	108097	0	0	8221	551378	0	0
2024-10-03 03:40:47			0	38348	0	0	0	22010	20590	160596	26830	1054619	46324	108089	0	0	8223	550167	0	0
2024-10-03 03:41:47			0	38341	0	0	0	22002	20580	160564	26989	1054601	46333	108086	0	0	8223	550473	0	0
2024-10-03 03:42:47			0	38354	0	0	0	21994	20580	160564	26870	1054583	46313	108083	0	0	8224	549962	0	0
2024-10-03 03:43:47			0	38326	0	0	0	21984	20580	160672	27303	1054557	46301	108079	0	0	8222	551063	0	0
2024-10-03 03:44:47			0	38294	0	0	0	22012	20570	160776	27253	1054477	46299	108090	0	0	8220	552355	0	0
2024-10-03 03:45:47			0	38336	0	0	0	22010	20570	160612	27166	1054477	46322	108089	0	0	8222	550700	0	0
2024-10-03 03:46:47			0	38335	0	0	0	22023	20580	160676	27022	1054601	46300	108094	0	0	8222	550709	0	0
2024-10-03 03:47:47			0	38368	0	0	0	22005	20580	160468	27026	1054610	46334	108087	0	0	8224	549412	0	0
2024-10-03 03:48:47			0	38358	0	0	0	22012	20580	160448	27053	1054548	46323	108090	0	0	8224	549804	0	0
2024-10-03 03:49:47			0	38355	0	0	0	22025	20580	160404	26741	1054548	46323	108095	0	0	8223	549922	0	0
2024-10-03 03:50:47			0	38366	0	0	0	21999	20570	160508	27194	1054565	46310	108085	0	0	8224	549520	0	0
2024-10-03 03:51:47			0	38352	0	0	0	21984	20580	160516	26982	1054557	46313	108079	0	0	8224	550040	0	0
2024-10-03 03:52:47			0	38313	0	0	0	21994	20570	160620	27248	1054503	46310	108083	0	0	8221	551606	0	0
2024-10-03 03:53:47			0	38305	0	0	0	22005	20570	160868	27145	1054539	46310	108087	0	0	8221	551921	0	0
2024-10-03 03:54:47			0	38327	0	0	0	22002	20570	160744	26954	1054530	46322	108086	0	0	8222	551055	0	0
2024-10-03 03:55:47			0	38326	0	0	0	22010	20580	160608	27005	1054557	46313	108089	0	0	8222	551063	0	0
2024-10-03 03:56:47			0	38345	0	0	0	22023	20570	160576	27241	1054503	46322	108094	0	0	8223	550346	0	0
2024-10-03 03:57:47			0	38382	0	0	0	22028	20570	160568	27466	1054592	46310	108096	0	0	8225	548892	0	0
2024-10-03 03:58:47			0	38410	0	0	0	22025	20570	160372	27280	1054565	46322	108095	0	0	8227	547793	0	0
2024-10-03 03:59:47			0	38429	0	0	0	22015	20580	160184	27145	1054610	46334	108091	0	0	8228	547018	0	0
2024-10-03 04:00:47			0	38440	0	0	0	22010	20580	160112	27027	1054610	46313	108089	0	0	8229	546587	0	0
2024-10-03 04:01:47			0	38461	0	0	0	22012	20570	160072	27265	1054503	46310	108090	0	0	8230	545795	0	0
2024-10-03 04:02:47			0	38457	0	0	0	22012	20580	160092	27135	1054628	46323	108090	0	0	8230	545921	0	0
2024-10-03 04:03:47			0	38464	0	0	0	21997	20580	160048	27429	1054583	46313	108084	0	0	8230	545647	0	0
2024-10-03 04:04:47			0	38435	0	0	0	21989	20570	160124	27222	1054477	46310	108081	0	0	8229	546813	0	0
2024-10-03 04:05:47			0	38401	0	0	0	21989	20580	160276	26972	1054495	46323	108081	0	0	8227	548116	0	0
2024-10-03 04:06:47			0	38379	0	0	0	21999	20580	160428	27334	1054601	46323	108085	0	0	8225	548979	0	0
2024-10-03 04:07:47			0	38364	0	0	0	22007	20580	160560	27383	1054574	46312	108088	0	0	8224	549569	0	0
2024-10-03 04:08:47			0	38392	0	0	0	22012	20580	160340	27119	1054610	46313	108090	0	0	8226	548469	0	0
2024-10-03 04:09:47			0	38402	0	0	0	22002	20570	160296	27083	1054592	46310	108086	0	0	8226	548107	0	0
2024-10-03 04:10:47			0	38395	0	0	0	22007	20580	160352	27168	1054610	46313	108088	0	0	8226	548351	0	0
2024-10-03 04:11:47			0	38388	0	0	0	22005	20580	160320	26791	1054628	46312	108087	0	0	8226	548626	0	0
2024-10-03 04:12:47			0	38365	0	0	0	21992	20580	160340	27126	1054548	46312	108082	0	0	8225	549529	0	0
2024-10-03 04:13:47			0	38367	0	0	0	21997	20560	160484	27027	1054574	46322	108084	0	0	8224	549512	0	0
2024-10-03 04:14:47			0	38374	0	0	0	22005	20570	160476	26948	1054530	46299	108087	0	0	8225	549206	0	0
2024-10-03 04:15:47			0	38388	0	0	0	22007	20580	160304	26986	1054583	46324	108088	0	0	8226	548626	0	0
2024-10-03 04:16:47			0	38399	0	0	0	22018	20580	160312	27114	1054628	46333	108092	0	0	8226	548194	0	0
2024-10-03 04:17:47			0	38425	0	0	0	22018	20580	160268	26927	1054601	46323	108092	0	0	8228	547175	0	0
2024-10-03 04:18:47			0	38410	0	0	0	22020	20580	160120	27303	1054636	46313	108093	0	0	8227	547763	0	0
2024-10-03 04:19:47			0	38437	0	0	0	22025	20590	160120	27490	1054655	46325	108095	0	0	8228	546674	0	0
2024-10-03 04:20:47			0	38453	0	0	0	22025	20590	160000	27168	1054681	46325	108095	0	0	8229	546048	0	0
2024-10-03 04:21:47			0	38460	0	0	0	22033	20580	159980	27154	1054663	46334	108098	0	0	8229	545804	0	0
2024-10-03 04:22:47			0	38479	0	0	0	22036	20590	159876	26880	1054681	46335	108099	0	0	8230	545030	0	0
2024-10-03 04:23:47			0	38493	0	0	0	22036	20590	159920	27097	1054699	46334	108099	0	0	8231	544483	0	0
2024-10-03 04:24:47			0	38504	0	0	0	22041	20600	159880	27280	1054726	46326	108101	0	0	8232	544023	0	0
2024-10-03 04:25:47			0	38509	0	0	0	22038	20600	159844	27294	1054690	46325	108100	0	0	8232	543828	0	0
2024-10-03 04:26:47			0	38531	0	0	0	22036	20600	159636	26916	1054797	46313	108099	0	0	8234	542970	0	0
2024-10-03 04:27:47			0	38550	0	0	0	22044	20600	159560	27067	1054717	46325	108102	0	0	8235	542229	0	0
2024-10-03 04:28:47			0	38572	0	0	0	22049	20610	159444	27216	1054815	46326	108104	0	0	8236	541342	0	0
2024-10-03 04:29:47			0	38589	0	0	0	22033	20600	159520	27355	1054797	46313	108098	0	0	8237	540710	0	0
2024-10-03 04:30:47			0	38580	0	0	0	22023	20610	159480	26942	1054735	46326	108094	0	0	8237	541030	0	0
2024-10-03 04:31:47			0	38562	0	0	0	22031	20610	159460	27147	1054717	46327	108097	0	0	8235	541731	0	0
2024-10-03 04:32:47			0	38549	0	0	0	22036	20600	159520	26897	1054664	46335	108099	0	0	8235	542268	0	0
2024-10-03 04:33:47			0	38546	0	0	0	22033	20610	159548	27483	1054708	46303	108098	0	0	8235	542355	0	0
2024-10-03 04:34:47			0	38550	0	0	0	22041	20610	159600	27026	1054770	46304	108101	0	0	8235	542199	0	0
2024-10-03 04:35:47			0	38553	0	0	0	22041	20610	159536	26802	1054770	46304	108101	0	0	8235	542082	0	0
2024-10-03 04:36:47			0	38565	0	0	0	22033	20610	159568	27315	1054770	46337	108098	0	0	8236	541614	0	0
2024-10-03 04:37:47			0	38575	0	0	0	22054	20610	159508	27384	1054770	46316	108106	0	0	8236	541225	0	0
2024-10-03 04:38:47			0	38595	0	0	0	22046	20610	159404	27346	1054815	46336	108103	0	0	8237	540446	0	0
2024-10-03 04:39:47			0	38610	0	0	0	22049	20610	159420	27130	1054770	46327	108104	0	0	8238	539863	0	0
2024-10-03 04:40:47			0	38641	0	0	0	22044	20620	159264	26994	1054779	46327	108102	0	0	8240	538629	0	0
2024-10-03 04:41:47			0	38642	0	0	0	22046	20620	159264	27001	1054761	46338	108103	0	0	8240	538591	0	0
2024-10-03 04:42:47			0	38623	0	0	0	22046	20620	159236	27196	1054806	46316	108103	0	0	8239	539328	0	0
2024-10-03 04:43:47			0	38616	0	0	0	22044	20630	159468	27041	1054877	46294	108102	0	0	8239	539570	0	0
2024-10-03 04:44:47			0	38618	0	0	0	22041	20620	159328	27057	1054761	46317	108101	0	0	8239	539523	0	0
2024-10-03 04:45:47			0	38620	0	0	0	22041	20620	159220	27533	1054779	46327	108101	0	0	8239	539445	0	0
2024-10-03 04:46:47			0	38625	0	0	0	22046	20620	159296	27365	1054815	46305	108103	0	0	8239	539251	0	0
2024-10-03 04:47:47			0	38622	0	0	0	22036	20620	159300	27471	1054806	46327	108099	0	0	8239	539367	0	0
2024-10-03 04:48:47			0	38637	0	0	0	22046	20610	159284	27434	1054770	46316	108103	0	0	8240	538814	0	0
2024-10-03 04:49:47			0	38641	0	0	0	22046	20610	159284	27372	1054770	46327	108103	0	0	8240	538659	0	0
2024-10-03 04:50:47			0	38637	0	0	0	22041	20620	159380	27121	1054788	46328	108101	0	0	8240	538785	0	0
2024-10-03 04:51:47			0	38636	0	0	0	22036	20610	159304	27357	1054823	46327	108099	0	0	8240	538853	0	0
2024-10-03 04:52:47			0	38647	0	0	0	22036	20620	159216	27454	1054788	46317	108099	0	0	8240	538396	0	0
2024-10-03 04:53:47			0	38639	0	0	0	22046	20630	159232	27272	1054770	46305	108103	0	0	8240	538677	0	0
2024-10-03 04:54:47			0	38632	0	0	0	22038	20620	159144	27428	1054806	46304	108100	0	0	8239	538979	0	0
2024-10-03 04:55:47			0	38641	0	0	0	22038	20620	159176	26994	1054761	46328	108100	0	0	8240	538629	0	0
2024-10-03 04:56:47			0	38652	0	0	0	22046	20620	159308	27312	1054806	46316	108103	0	0	8241	538202	0	0
2024-10-03 04:57:47			0	38631	0	0	0	22036	20620	159240	27192	1054753	46304	108099	0	0	8239	539018	0	0
2024-10-03 04:58:47			0	38626	0	0	0	22028	20620	159120	27145	1054735	46317	108096	0	0	8239	539212	0	0
2024-10-03 04:59:47			0	38627	0	0	0	22033	20620	159232	27263	1054735	46328	108098	0	0	8239	539173	0	0
2024-10-03 05:00:47			0	38645	0	0	0	22028	20610	159152	27173	1054717	46293	108096	0	0	8240	538504	0	0
2024-10-03 05:01:47			0	38623	0	0	0	21984	20610	159260	27287	1054628	46292	108079	0	0	8240	539358	0	0
2024-10-03 05:02:47			0	38600	0	0	0	21981	20610	159328	26899	1054602	46292	108078	0	0	8239	540252	0	0
2024-10-03 05:03:47			0	38595	0	0	0	22015	20590	159440	27409	1054628	46281	108091	0	0	8238	540506	0	0
2024-10-03 05:04:47			0	38564	0	0	0	21976	20590	159340	27365	1054575	46291	108076	0	0	8236	541713	0	0
2024-10-03 05:05:47			0	38571	0	0	0	21992	20590	159524	27275	1054645	46291	108082	0	0	8237	541441	0	0
2024-10-03 05:06:47			0	38551	0	0	0	21989	20590	159492	27350	1054566	46313	108081	0	0	8235	542220	0	0
2024-10-03 05:07:47			0	38557	0	0	0	21981	20590	159572	27291	1054539	46301	108078	0	0	8236	541986	0	0
2024-10-03 05:08:47			0	38534	0	0	0	21976	20580	159552	27163	1054521	46333	108076	0	0	8235	542913	0	0
2024-10-03 05:09:47			0	38515	0	0	0	21958	20580	159692	27374	1054521	46290	108069	0	0	8234	543654	0	0
2024-10-03 05:10:47			0	38506	0	0	0	21989	20570	159656	26901	1054477	46299	108081	0	0	8233	544036	0	0
2024-10-03 05:11:47			0	38499	0	0	0	22002	20570	159724	27296	1054592	46310	108086	0	0	8232	544309	0	0
2024-10-03 05:12:47			0	38490	0	0	0	21992	20570	159792	26965	1054486	46310	108082	0	0	8232	544661	0	0
2024-10-03 05:13:47			0	38490	0	0	0	21979	20570	159784	27019	1054530	46310	108077	0	0	8232	544661	0	0
2024-10-03 05:14:47			0	38479	0	0	0	21966	20570	159992	27383	1054592	46322	108072	0	0	8232	545091	0	0
2024-10-03 05:15:47			0	38458	0	0	0	21984	20570	159988	27402	1054530	46299	108079	0	0	8230	545912	0	0
2024-10-03 05:16:47			0	38435	0	0	0	21994	20570	160092	27386	1054530	46299	108083	0	0	8229	546813	0	0
2024-10-03 05:17:47			0	38445	0	0	0	21989	20570	160028	27150	1054556	46333	108081	0	0	8229	546421	0	0
2024-10-03 05:18:47			0	38443	0	0	0	21981	20570	160060	27235	1054530	46299	108078	0	0	8229	546500	0	0
2024-10-03 05:19:47			0	38420	0	0	0	22002	20580	160088	26892	1054441	46312	108086	0	0	8228	547371	0	0
2024-10-03 05:20:47			0	38441	0	0	0	22015	20560	160052	27282	1054548	46322	108091	0	0	8228	546608	0	0
2024-10-03 05:21:47			0	38439	0	0	0	21997	20570	160124	27092	1054486	46310	108084	0	0	8229	546656	0	0
2024-10-03 05:22:47			0	38431	0	0	0	21992	20580	160172	27313	1054574	46323	108082	0	0	8228	546939	0	0
2024-10-03 05:23:47			0	38418	0	0	0	22005	20570	160100	27393	1054556	46322	108087	0	0	8227	547479	0	0
2024-10-03 05:24:47			0	38409	0	0	0	21994	20570	160052	27248	1054512	46322	108083	0	0	8227	547832	0	0
2024-10-03 05:25:47			0	38420	0	0	0	21984	20570	160296	26783	1054592	46310	108079	0	0	8228	547401	0	0
2024-10-03 05:26:47			0	38399	0	0	0	21994	20580	160312	27013	1054601	46323	108083	0	0	8226	548194	0	0
2024-10-03 05:27:47			0	38402	0	0	0	22012	20580	160208	27374	1054574	46300	108090	0	0	8226	548076	0	0
2024-10-03 05:28:47			0	38387	0	0	0	22012	20570	160244	27000	1054539	46333	108090	0	0	8225	548696	0	0
2024-10-03 05:29:47			0	38395	0	0	0	22018	20580	160256	27194	1054654	46333	108092	0	0	8226	548351	0	0
2024-10-03 05:30:47			0	38416	0	0	0	22018	20590	160220	27149	1054619	46324	108092	0	0	8227	547497	0	0
2024-10-03 05:31:47			0	38404	0	0	0	22020	20580	160232	27078	1054654	46333	108093	0	0	8226	547998	0	0
2024-10-03 05:32:47			0	38394	0	0	0	22025	20580	160212	26946	1054681	46323	108095	0	0	8226	548390	0	0
2024-10-03 05:33:47			0	38402	0	0	0	22015	20590	160148	26894	1054699	46313	108091	0	0	8226	548046	0	0
2024-10-03 05:34:47			0	38417	0	0	0	22023	20590	160152	27422	1054645	46324	108094	0	0	8227	547458	0	0
2024-10-03 05:35:47			0	38425	0	0	0	22028	20590	160300	27223	1054681	46313	108096	0	0	8227	547144	0	0
2024-10-03 05:36:47			0	38410	0	0	0	22023	20590	160216	27211	1054672	46345	108094	0	0	8227	547732	0	0
2024-10-03 05:37:47			0	38410	0	0	0	22025	20590	160220	26984	1054681	46325	108095	0	0	8227	547732	0	0
2024-10-03 05:38:47			0	38413	0	0	0	22020	20600	160136	26781	1054743	46313	108093	0	0	8227	547585	0	0
2024-10-03 05:39:47			0	38395	0	0	0	22018	20600	160204	27284	1054699	46326	108092	0	0	8226	548291	0	0
2024-10-03 05:40:47			0	38407	0	0	0	22005	20590	160144	27369	1054699	46324	108087	0	0	8227	547850	0	0
2024-10-03 05:41:47			0	38397	0	0	0	21984	20590	160152	27043	1054655	46313	108079	0	0	8227	548242	0	0
2024-10-03 05:42:47			0	38383	0	0	0	21999	20590	160212	27338	1054672	46313	108085	0	0	8226	548792	0	0
2024-10-03 05:43:47			0	38417	0	0	0	22010	20590	160160	27008	1054655	46291	108089	0	0	8227	547458	0	0
2024-10-03 05:44:47			0	38397	0	0	0	22005	20590	160148	27275	1054628	46313	108087	0	0	8226	548242	0	0
2024-10-03 05:45:47			0	38406	0	0	0	22033	20580	160144	27493	1054628	46312	108098	0	0	8226	547920	0	0
2024-10-03 05:46:47			0	38439	0	0	0	22018	20590	160080	27189	1054645	46313	108092	0	0	8228	546596	0	0
2024-10-03 05:47:47			0	38449	0	0	0	22018	20590	160020	27412	1054681	46325	108092	0	0	8229	546204	0	0
2024-10-03 05:48:47			0	38431	0	0	0	22025	20590	160028	26894	1054708	46325	108095	0	0	8228	546909	0	0
2024-10-03 05:49:47			0	38432	0	0	0	22015	20590	160000	27190	1054681	46313	108091	0	0	8228	546870	0	0
2024-10-03 05:50:47			0	38419	0	0	0	22010	20590	160000	27152	1054645	46301	108089	0	0	8227	547380	0	0
2024-10-03 05:51:47			0	38447	0	0	0	22002	20590	160068	27241	1054734	46313	108086	0	0	8229	546283	0	0
2024-10-03 05:52:47			0	38439	0	0	0	22005	20590	160028	27012	1054681	46325	108087	0	0	8229	546596	0	0
2024-10-03 05:53:47			0	38416	0	0	0	22012	20590	160152	27008	1054628	46325	108090	0	0	8227	547497	0	0
2024-10-03 05:54:47			0	38414	0	0	0	21999	20590	160148	27178	1054619	46301	108085	0	0	8227	547576	0	0
2024-10-03 05:55:47			0	38411	0	0	0	22015	20590	160224	27504	1054645	46291	108091	0	0	8227	547693	0	0
2024-10-03 05:56:47			0	38422	0	0	0	22010	20580	160076	27263	1054663	46301	108089	0	0	8228	547292	0	0
2024-10-03 05:57:47			0	38411	0	0	0	22015	20590	160164	27114	1054645	46291	108091	0	0	8227	547693	0	0
2024-10-03 05:58:47			0	38403	0	0	0	22005	20590	160160	27187	1054672	46313	108087	0	0	8227	548007	0	0
2024-10-03 05:59:47			0	38415	0	0	0	22012	20590	160092	27138	1054619	46313	108090	0	0	8227	547536	0	0
2024-10-03 06:00:47			0	38415	0	0	0	22012	20580	160100	27261	1054663	46301	108090	0	0	8227	547567	0	0
2024-10-03 06:01:47			0	38428	0	0	0	22010	20590	160088	26847	1054628	46325	108089	0	0	8228	547027	0	0
2024-10-03 06:02:47			0	38429	0	0	0	22010	20590	160076	27159	1054672	46291	108089	0	0	8228	546988	0	0
2024-10-03 06:03:47			0	38416	0	0	0	22005	20590	160112	27409	1054628	46313	108087	0	0	8227	547497	0	0
2024-10-03 06:04:47			0	38416	0	0	0	22007	20590	160068	27112	1054592	46324	108088	0	0	8227	547497	0	0
2024-10-03 06:05:47			0	38419	0	0	0	21999	20590	160012	27249	1054592	46301	108085	0	0	8228	547380	0	0
2024-10-03 06:06:47			0	38434	0	0	0	21997	20590	160188	27005	1054699	46313	108084	0	0	8229	546792	0	0
2024-10-03 06:07:47			0	38405	0	0	0	22002	20580	160180	27632	1054636	46313	108086	0	0	8227	547959	0	0
2024-10-03 06:08:47			0	38405	0	0	0	21997	20590	160104	27078	1054672	46324	108084	0	0	8227	547929	0	0
2024-10-03 06:09:47			0	38425	0	0	0	21994	20580	160148	27218	1054636	46301	108083	0	0	8228	547175	0	0
2024-10-03 06:10:47			0	38412	0	0	0	21994	20580	160084	27024	1054636	46313	108083	0	0	8227	547684	0	0
2024-10-03 06:11:47			0	38424	0	0	0	21999	20580	160072	27405	1054636	46324	108085	0	0	8228	547214	0	0
2024-10-03 06:12:47			0	38421	0	0	0	21994	20580	160072	27150	1054636	46301	108083	0	0	8228	547331	0	0
2024-10-03 06:13:47			0	38439	0	0	0	21992	20580	159940	27145	1054601	46300	108082	0	0	8229	546626	0	0
2024-10-03 06:14:47			0	38465	0	0	0	21981	20580	160040	27150	1054636	46313	108078	0	0	8231	545608	0	0
2024-10-03 06:15:47			0	38452	0	0	0	21976	20580	159936	27024	1054530	46313	108076	0	0	8230	546117	0	0
2024-10-03 06:16:47			0	38463	0	0	0	21979	20580	159976	27261	1054601	46312	108077	0	0	8230	545686	0	0
2024-10-03 06:17:47			0	38477	0	0	0	21989	20580	159796	27360	1054601	46300	108081	0	0	8231	545139	0	0
2024-10-03 06:18:47			0	38508	0	0	0	21976	20570	159708	27140	1054592	46322	108076	0	0	8233	543957	0	0
2024-10-03 06:19:47			0	38536	0	0	0	21963	20570	159668	26876	1054503	46322	108071	0	0	8235	542865	0	0
2024-10-03 06:20:47			0	38530	0	0	0	21968	20580	159664	27251	1054468	46290	108073	0	0	8235	543069	0	0
2024-10-03 06:21:47			0	38534	0	0	0	21966	20560	159652	27242	1054468	46299	108072	0	0	8235	542973	0	0
2024-10-03 06:22:47			0	38504	0	0	0	21976	20570	159640	27107	1054530	46299	108076	0	0	8233	544114	0	0
2024-10-03 06:23:47			0	38499	0	0	0	21976	20570	159664	27211	1054503	46310	108076	0	0	8233	544309	0	0
2024-10-03 06:24:47			0	38529	0	0	0	21973	20550	159736	27085	1054441	46308	108075	0	0	8234	543198	0	0
2024-10-03 06:25:47			0	38527	0	0	0	21981	20560	159712	27234	1054459	46309	108078	0	0	8234	543246	0	0
2024-10-03 06:26:47			0	38523	0	0	0	21979	20550	159696	27220	1054530	46320	108077	0	0	8234	543432	0	0
2024-10-03 06:27:47			0	38521	0	0	0	21984	20560	159532	27173	1054601	46299	108079	0	0	8234	543480	0	0
2024-10-03 06:28:47			0	38537	0	0	0	21976	20560	159580	27381	1054565	46309	108076	0	0	8235	542856	0	0
2024-10-03 06:29:47			0	38563	0	0	0	21971	20560	159496	27248	1054521	46322	108074	0	0	8236	541842	0	0
2024-10-03 06:30:47			0	38567	0	0	0	21973	20560	159508	27248	1054494	46310	108075	0	0	8237	541686	0	0
2024-10-03 06:31:47			0	38560	0	0	0	21973	20550	159424	26927	1054503	46308	108075	0	0	8236	541989	0	0
2024-10-03 06:32:47			0	38583	0	0	0	21986	20560	159444	27286	1054485	46321	108080	0	0	8237	541063	0	0
2024-10-03 06:33:47			0	38591	0	0	0	21986	20560	159392	27351	1054485	46298	108080	0	0	8238	540752	0	0
2024-10-03 06:34:47			0	38632	0	0	0	21992	20560	159316	27119	1054494	46310	108082	0	0	8240	539158	0	0
2024-10-03 06:35:47			0	38646	0	0	0	21981	20560	159076	27300	1054574	46310	108078	0	0	8241	538614	0	0
2024-10-03 06:36:47			0	38694	0	0	0	21981	20560	159036	27062	1054539	46309	108078	0	0	8244	536752	0	0
2024-10-03 06:37:47			0	38713	0	0	0	21984	20560	158920	27149	1054494	46299	108079	0	0	8245	536017	0	0
2024-10-03 06:38:47			0	38713	0	0	0	21984	20560	159052	27287	1054521	46322	108079	0	0	8245	536017	0	0
2024-10-03 06:39:47			0	38717	0	0	0	21989	20560	158872	27196	1054539	46309	108081	0	0	8245	535862	0	0
2024-10-03 06:40:47			0	38723	0	0	0	21997	20560	158836	27310	1054494	46322	108084	0	0	8245	535630	0	0
2024-10-03 06:41:47			0	38736	0	0	0	21994	20550	158845	27479	1054556	46308	108083	0	0	8246	535157	0	0
2024-10-03 06:42:47			0	38736	0	0	0	21999	20570	158833	27253	1054592	46333	108085	0	0	8246	535097	0	0
2024-10-03 06:43:47			0	38743	0	0	0	21999	20560	158777	27459	1054627	46322	108085	0	0	8246	534856	0	0
2024-10-03 06:44:47			0	38762	0	0	0	21994	20560	158825	26942	1054548	46322	108083	0	0	8248	534122	0	0
2024-10-03 06:45:47			0	38762	0	0	0	21994	20560	158773	27104	1054601	46299	108083	0	0	8248	534122	0	0
2024-10-03 06:46:47			0	38751	0	0	0	21997	20570	158757	26928	1054610	46289	108084	0	0	8247	534517	0	0
2024-10-03 06:47:47			0	38745	0	0	0	21999	20560	158785	26894	1054654	46289	108085	0	0	8246	534779	0	0
2024-10-03 06:48:47			0	38752	0	0	0	21994	20580	158889	26772	1054610	46301	108083	0	0	8247	534449	0	0
2024-10-03 06:49:47			0	38752	0	0	0	21994	20570	158805	26918	1054565	46299	108083	0	0	8247	534479	0	0
2024-10-03 06:50:47			0	38742	0	0	0	21992	20570	158881	27312	1054610	46310	108082	0	0	8246	534865	0	0
2024-10-03 06:51:47			0	38724	0	0	0	21979	20580	158848	27045	1054574	46300	108077	0	0	8246	535532	0	0
2024-10-03 06:52:47			0	38726	0	0	0	21992	20580	158845	27300	1054574	46300	108082	0	0	8246	535454	0	0
2024-10-03 06:53:47			0	38711	0	0	0	21989	20570	158940	27187	1054583	46310	108081	0	0	8245	536065	0	0
2024-10-03 06:54:47			0	38701	0	0	0	21976	20570	158984	27227	1054556	46299	108076	0	0	8244	536452	0	0
2024-10-03 06:55:47			0	38706	0	0	0	21976	20570	159132	27170	1054592	46310	108076	0	0	8245	536258	0	0
2024-10-03 06:56:47			0	38693	0	0	0	21981	20560	159048	27157	1054574	46299	108078	0	0	8244	536791	0	0
2024-10-03 06:57:47			0	38674	0	0	0	21979	20570	159032	26849	1054503	46299	108077	0	0	8243	537498	0	0
2024-10-03 06:58:47			0	38681	0	0	0	21973	20560	159156	26975	1054494	46299	108075	0	0	8243	537256	0	0
2024-10-03 06:59:47			0	38679	0	0	0	21986	20570	159116	27429	1054583	46310	108080	0	0	8243	537304	0	0
2024-10-03 07:00:47			0	38674	0	0	0	21981	20560	159096	27296	1054574	46299	108078	0	0	8243	537528	0	0
2024-10-03 07:01:47			0	38668	0	0	0	21984	20550	158996	27246	1054530	46320	108079	0	0	8242	537790	0	0
2024-10-03 07:02:47			0	38676	0	0	0	21984	20560	159076	27376	1054485	46332	108079	0	0	8243	537450	0	0
2024-10-03 07:03:47			0	38676	0	0	0	21976	20560	159148	27119	1054459	46309	108076	0	0	8243	537450	0	0
2024-10-03 07:04:47			0	38670	0	0	0	21979	20550	159064	27272	1054609	46308	108077	0	0	8242	537713	0	0
2024-10-03 07:05:47			0	38676	0	0	0	21981	20560	159224	27161	1054565	46298	108078	0	0	8243	537450	0	0
2024-10-03 07:06:47			0	38671	0	0	0	21976	20560	159168	27095	1054565	46298	108076	0	0	8243	537644	0	0
2024-10-03 07:07:47			0	38677	0	0	0	21979	20560	159132	27242	1054494	46310	108077	0	0	8243	537411	0	0
2024-10-03 07:08:47			0	38666	0	0	0	21976	20550	159260	27156	1054503	46308	108076	0	0	8242	537868	0	0
2024-10-03 07:09:47			0	38657	0	0	0	21971	20560	159160	27235	1054539	46332	108074	0	0	8242	538187	0	0
2024-10-03 07:10:47			0	38643	0	0	0	21973	20560	159220	27263	1054512	46298	108075	0	0	8241	538730	0	0
2024-10-03 07:11:47			0	38619	0	0	0	21968	20560	159320	27133	1054459	46298	108073	0	0	8240	539663	0	0
2024-10-03 07:12:47			0	38622	0	0	0	21968	20560	159400	27241	1054459	46321	108073	0	0	8240	539546	0	0
2024-10-03 07:13:47			0	38637	0	0	0	21973	20550	159436	27464	1054503	46297	108075	0	0	8241	538993	0	0
2024-10-03 07:14:47			0	38625	0	0	0	21971	20550	159488	27251	1054468	46308	108074	0	0	8240	539459	0	0
2024-10-03 07:15:47			0	38607	0	0	0	21966	20560	159404	26833	1054485	46298	108072	0	0	8239	540129	0	0
2024-10-03 07:16:47			0	38606	0	0	0	21963	20550	159496	27062	1054530	46308	108071	0	0	8239	540198	0	0
2024-10-03 07:17:47			0	38586	0	0	0	21968	20550	159408	26993	1054503	46297	108073	0	0	8238	540976	0	0
2024-10-03 07:18:47			0	38594	0	0	0	21955	20550	159524	27071	1054468	46287	108068	0	0	8238	540665	0	0
2024-10-03 07:19:47			0	38580	0	0	0	21961	20560	159444	27376	1054512	46321	108070	0	0	8238	541180	0	0
2024-10-03 07:20:47			0	38594	0	0	0	21958	20550	159460	27045	1054521	46297	108069	0	0	8238	540665	0	0
2024-10-03 07:21:47			0	38609	0	0	0	21963	20560	159488	27190	1054485	46309	108071	0	0	8239	540051	0	0
2024-10-03 07:22:47			0	38583	0	0	0	21955	20550	159528	27039	1054530	46320	108068	0	0	8238	541093	0	0
2024-10-03 07:23:47			0	38584	0	0	0	21961	20550	159556	27137	1054476	46297	108070	0	0	8238	541054	0	0
2024-10-03 07:24:47			0	38614	0	0	0	21966	20550	159516	26866	1054503	46331	108072	0	0	8239	539887	0	0
2024-10-03 07:25:47			0	38624	0	0	0	21968	20550	159420	27277	1054476	46297	108073	0	0	8240	539498	0	0
2024-10-03 07:26:47			0	38650	0	0	0	21961	20550	159376	27048	1054476	46308	108070	0	0	8242	538488	0	0
2024-10-03 07:27:47			0	38653	0	0	0	21961	20550	159248	27255	1054530	46276	108070	0	0	8242	538372	0	0
2024-10-03 07:28:47			0	38666	0	0	0	21963	20560	159292	26781	1054485	46288	108071	0	0	8242	537838	0	0
2024-10-03 07:29:47			0	38669	0	0	0	21966	20540	159220	27043	1054485	46320	108072	0	0	8243	537781	0	0
2024-10-03 07:30:47			0	38669	0	0	0	21963	20550	159208	27159	1054530	46320	108071	0	0	8243	537751	0	0
2024-10-03 07:31:47			0	38661	0	0	0	21961	20550	159184	27064	1054476	46308	108070	0	0	8242	538062	0	0
2024-10-03 07:32:47			0	38658	0	0	0	21961	20550	159272	27284	1054547	46297	108070	0	0	8242	538178	0	0
2024-10-03 07:33:47			0	38651	0	0	0	21955	20550	159340	27012	1054441	46308	108068	0	0	8242	538450	0	0
2024-10-03 07:34:47			0	38635	0	0	0	21958	20550	159300	27156	1054468	46320	108069	0	0	8241	539071	0	0
2024-10-03 07:35:47			0	38624	0	0	0	21966	20540	159408	27466	1054432	46308	108072	0	0	8240	539528	0	0
2024-10-03 07:36:47			0	38611	0	0	0	21903	20530	159472	27345	1054396	46296	108048	0	0	8240	540063	0	0
2024-10-03 07:37:47			0	38570	0	0	0	21875	20530	159580	27310	1054343	46307	108037	0	0	8238	541659	0	0
2024-10-03 07:38:47			0	38532	0	0	0	21867	20520	159744	27497	1054246	46285	108034	0	0	8236	543171	0	0
2024-10-03 07:39:47			0	38496	0	0	0	21906	20520	159896	27112	1054246	46274	108049	0	0	8233	544577	0	0
2024-10-03 07:40:47			0	38460	0	0	0	21927	20510	160024	27396	1054254	46284	108057	0	0	8231	546015	0	0
2024-10-03 07:41:47			0	38473	0	0	0	21880	20500	160072	27450	1054236	46282	108039	0	0	8232	545537	0	0
2024-10-03 07:42:47			0	38447	0	0	0	21877	20500	160060	27661	1054201	46282	108038	0	0	8231	546554	0	0
2024-10-03 07:43:47			0	38424	0	0	0	21880	20500	160172	27473	1054174	46292	108039	0	0	8230	547456	0	0
2024-10-03 07:44:47			0	38405	0	0	0	21877	20490	160172	27312	1054165	46282	108038	0	0	8228	548232	0	0
2024-10-03 07:45:47			0	38393	0	0	0	21870	20500	160348	27424	1054148	46282	108035	0	0	8228	548672	0	0
2024-10-03 07:46:47			0	38379	0	0	0	21870	20480	160312	27372	1054121	46291	108035	0	0	8227	549283	0	0
2024-10-03 07:47:47			0	38367	0	0	0	21872	20470	160472	27441	1054094	46290	108036	0	0	8226	549785	0	0
2024-10-03 07:48:47			0	38358	0	0	0	21867	20480	160480	27272	1054094	46291	108034	0	0	8226	550109	0	0
2024-10-03 07:49:47			0	38363	0	0	0	21844	20470	160516	27457	1054041	46257	108025	0	0	8226	549942	0	0
2024-10-03 07:50:47			0	38325	0	0	0	21846	20470	160620	26925	1054041	46268	108026	0	0	8224	551438	0	0
2024-10-03 07:51:47			0	38332	0	0	0	21857	20460	160688	27064	1054023	46299	108030	0	0	8224	551193	0	0
2024-10-03 07:52:47			0	38323	0	0	0	21870	20460	160684	27310	1054049	46299	108035	0	0	8224	551547	0	0
2024-10-03 07:53:47			0	38336	0	0	0	21870	20460	160660	27244	1054032	46289	108035	0	0	8224	551035	0	0
2024-10-03 07:54:47			0	38304	0	0	0	21872	20460	160544	27227	1054076	46278	108036	0	0	8222	552296	0	0
2024-10-03 07:55:47			0	38327	0	0	0	21890	20450	160764	27079	1054058	46288	108043	0	0	8223	551420	0	0
2024-10-03 07:56:47			0	38319	0	0	0	21911	20450	160744	27161	1054067	46289	108051	0	0	8223	551735	0	0
2024-10-03 07:57:47			0	38333	0	0	0	21890	20450	160544	26965	1054067	46322	108043	0	0	8224	551184	0	0
2024-10-03 07:58:47			0	38336	0	0	0	21909	20460	160656	27121	1054103	46299	108050	0	0	8224	551035	0	0
2024-10-03 07:59:47			0	38333	0	0	0	21935	20440	160616	27267	1054102	46297	108060	0	0	8223	551214	0	0
2024-10-03 08:00:47			0	38344	0	0	0	21890	20450	160560	27249	1054085	46310	108043	0	0	8224	550751	0	0
2024-10-03 08:01:47			0	38336	0	0	0	21973	20460	160652	27199	1054103	46322	108075	0	0	8223	551035	0	0
2024-10-03 08:02:47			0	38347	0	0	0	21963	20460	160604	27275	1054112	46311	108071	0	0	8223	550602	0	0
2024-10-03 08:03:47			0	38357	0	0	0	21994	20480	160600	27331	1054192	46324	108083	0	0	8224	550148	0	0
2024-10-03 08:04:47			0	38367	0	0	0	22051	20480	160560	27222	1054272	46324	108105	0	0	8223	549755	0	0
2024-10-03 08:05:47			0	38390	0	0	0	22077	20480	160564	27008	1054378	46324	108115	0	0	8224	548851	0	0
2024-10-03 08:06:47			0	38434	0	0	0	22028	20500	160248	27485	1054529	46336	108096	0	0	8228	547064	0	0
2024-10-03 08:07:47			0	38447	0	0	0	22085	20510	160248	27187	1054591	46337	108118	0	0	8227	546524	0	0
2024-10-03 08:08:47			0	38461	0	0	0	22080	20530	160172	27121	1054556	46351	108116	0	0	8228	545916	0	0
2024-10-03 08:09:47			0	38473	0	0	0	22083	20530	159984	27124	1054636	46351	108117	0	0	8229	545446	0	0
2024-10-03 08:10:47			0	38493	0	0	0	22114	20550	159936	26939	1054654	46341	108129	0	0	8230	544604	0	0
2024-10-03 08:11:47			0	38511	0	0	0	22033	20570	159792	26949	1054716	46333	108098	0	0	8232	543840	0	0
2024-10-03 08:12:47			0	38525	0	0	0	21979	20560	159716	27027	1054574	46322	108077	0	0	8234	543324	0	0
2024-10-03 08:13:47			0	38504	0	0	0	22051	20570	159872	26922	1054583	46289	108105	0	0	8232	544114	0	0
2024-10-03 08:14:47			0	38520	0	0	0	22015	20560	159892	26989	1054618	46309	108091	0	0	8233	543519	0	0
2024-10-03 08:15:47			0	38528	0	0	0	21968	20550	159784	26805	1054583	46308	108073	0	0	8234	543237	0	0
2024-10-03 08:16:47			0	38506	0	0	0	21935	20550	159816	27263	1054450	46276	108060	0	0	8234	544096	0	0
2024-10-03 08:17:47			0	38486	0	0	0	21929	20550	160004	26850	1054450	46297	108058	0	0	8233	544877	0	0
2024-10-03 08:18:47			0	38466	0	0	0	21924	20550	160096	26927	1054397	46287	108056	0	0	8231	545660	0	0
2024-10-03 08:19:47			0	38458	0	0	0	21924	20540	159992	27199	1054352	46287	108056	0	0	8231	546003	0	0
2024-10-03 08:20:47			0	38449	0	0	0	21927	20540	160164	27135	1054326	46320	108057	0	0	8230	546355	0	0
2024-10-03 08:21:47			0	38455	0	0	0	21924	20530	160212	27142	1054308	46295	108056	0	0	8231	546150	0	0
2024-10-03 08:22:47			0	38441	0	0	0	21924	20520	160160	26961	1054343	46284	108056	0	0	8230	546729	0	0
2024-10-03 08:23:47			0	38431	0	0	0	21945	20520	160072	27332	1054370	46305	108064	0	0	8229	547121	0	0
2024-10-03 08:24:47			0	38430	0	0	0	21911	20510	160272	27421	1054334	46294	108051	0	0	8229	547190	0	0
2024-10-03 08:25:47			0	38441	0	0	0	21890	20520	160244	26996	1054325	46285	108043	0	0	8230	546729	0	0
2024-10-03 08:26:47			0	38435	0	0	0	21896	20510	160144	27346	1054334	46284	108045	0	0	8230	546994	0	0
2024-10-03 08:27:47			0	38430	0	0	0	21896	20510	160204	27145	1054228	46317	108045	0	0	8230	547190	0	0
2024-10-03 08:28:47			0	38416	0	0	0	21896	20500	160136	27313	1054236	46282	108045	0	0	8229	547770	0	0
2024-10-03 08:29:47			0	38429	0	0	0	21896	20500	160176	27215	1054228	46292	108045	0	0	8230	547260	0	0
2024-10-03 08:30:47			0	38461	0	0	0	21890	20490	160152	27331	1054272	46282	108043	0	0	8231	546036	0	0
2024-10-03 08:31:47			0	38466	0	0	0	21890	20500	160140	27088	1054210	46282	108043	0	0	8232	545810	0	0
2024-10-03 08:32:47			0	38464	0	0	0	21901	20510	160192	27241	1054219	46283	108047	0	0	8232	545859	0	0
2024-10-03 08:33:47			0	38489	0	0	0	21911	20490	160120	27419	1054210	46291	108051	0	0	8233	544941	0	0
2024-10-03 08:34:47			0	38494	0	0	0	21903	20490	160040	27215	1054245	46315	108048	0	0	8233	544745	0	0
2024-10-03 08:35:47			0	38520	0	0	0	21893	20490	159908	27255	1054219	46282	108044	0	0	8235	543729	0	0
2024-10-03 08:36:47			0	38517	0	0	0	21906	20490	159828	27222	1054192	46303	108049	0	0	8234	543847	0	0
2024-10-03 08:37:47			0	38547	0	0	0	21901	20490	159888	27303	1054156	46314	108047	0	0	8236	542676	0	0
2024-10-03 08:38:47			0	38538	0	0	0	21883	20500	159776	27130	1054254	46315	108040	0	0	8236	542997	0	0
2024-10-03 08:39:47			0	38533	0	0	0	21888	20490	159772	27286	1054103	46302	108042	0	0	8236	543222	0	0
2024-10-03 08:40:47			0	38553	0	0	0	21888	20480	159724	26994	1054174	46313	108042	0	0	8237	542472	0	0
2024-10-03 08:41:47			0	38537	0	0	0	21883	20490	159848	27474	1054156	46281	108040	0	0	8236	543066	0	0
2024-10-03 08:42:47			0	38533	0	0	0	21880	20460	159840	27199	1054112	46299	108039	0	0	8236	543312	0	0
2024-10-03 08:43:47			0	38531	0	0	0	21870	20470	159804	27367	1054094	46290	108035	0	0	8236	543360	0	0
2024-10-03 08:44:47			0	38524	0	0	0	21883	20470	159932	27159	1054121	46290	108040	0	0	8235	543633	0	0
2024-10-03 08:45:47			0	38522	0	0	0	21883	20460	159808	27241	1054085	46289	108040	0	0	8235	543742	0	0
2024-10-03 08:46:47			0	38548	0	0	0	21862	20460	159884	27365	1054076	46299	108032	0	0	8237	542727	0	0
2024-10-03 08:47:47			0	38544	0	0	0	21875	20460	159804	27211	1054112	46311	108037	0	0	8236	542883	0	0
2024-10-03 08:48:47			0	38534	0	0	0	21875	20460	159764	26987	1054112	46278	108037	0	0	8236	543273	0	0
2024-10-03 08:49:47			0	38552	0	0	0	21862	20460	159788	27062	1054059	46289	108032	0	0	8237	542571	0	0
2024-10-03 08:50:47			0	38543	0	0	0	21877	20460	159852	27114	1054112	46289	108038	0	0	8236	542922	0	0
2024-10-03 08:51:47			0	38547	0	0	0	21872	20450	159752	27092	1054067	46299	108036	0	0	8237	542796	0	0
2024-10-03 08:52:47			0	38548	0	0	0	21875	20460	159900	27370	1054112	46299	108037	0	0	8237	542727	0	0
2024-10-03 08:53:47			0	38544	0	0	0	21870	20450	159812	27383	1054014	46278	108035	0	0	8236	542913	0	0
2024-10-03 08:54:47			0	38549	0	0	0	21870	20450	159824	27512	1054085	46288	108035	0	0	8237	542718	0	0
2024-10-03 08:55:47			0	38554	0	0	0	21872	20460	159880	27481	1054049	46289	108036	0	0	8237	542493	0	0
2024-10-03 08:56:47			0	38553	0	0	0	21864	20460	159804	27296	1054059	46299	108033	0	0	8237	542532	0	0
2024-10-03 08:57:47			0	38551	0	0	0	21857	20450	159804	27137	1054014	46289	108030	0	0	8237	542640	0	0
2024-10-03 08:58:47			0	38544	0	0	0	21854	20450	159784	27452	1054058	46298	108029	0	0	8237	542913	0	0
2024-10-03 08:59:47			0	38541	0	0	0	21859	20450	159772	27310	1054005	46288	108031	0	0	8236	543030	0	0
2024-10-03 09:00:47			0	38543	0	0	0	21857	20440	159876	27206	1054049	46287	108030	0	0	8237	542982	0	0
2024-10-03 09:01:47			0	38540	0	0	0	21851	20440	159912	27438	1053987	46286	108028	0	0	8237	543099	0	0
2024-10-03 09:02:47			0	38519	0	0	0	21885	20450	159944	27092	1054032	46298	108041	0	0	8235	543889	0	0
2024-10-03 09:03:47			0	38508	0	0	0	21885	20450	159924	27019	1054040	46311	108041	0	0	8234	544319	0	0
2024-10-03 09:04:47			0	38520	0	0	0	21867	20440	159880	27261	1054023	46297	108034	0	0	8235	543880	0	0
2024-10-03 09:05:47			0	38527	0	0	0	21864	20440	159828	27388	1054049	46287	108033	0	0	8236	543606	0	0
2024-10-03 09:06:47			0	38530	0	0	0	21870	20450	159904	27150	1054032	46288	108035	0	0	8236	543459	0	0
2024-10-03 09:07:47			0	38517	0	0	0	21864	20450	159840	27232	1054032	46310	108033	0	0	8235	543967	0	0
2024-10-03 09:08:47			0	38534	0	0	0	21885	20450	160032	27357	1054058	46298	108041	0	0	8236	543303	0	0
2024-10-03 09:09:47			0	38514	0	0	0	21893	20450	159904	27024	1054032	46298	108044	0	0	8234	544084	0	0
2024-10-03 09:10:47			0	38532	0	0	0	21859	20450	159860	27383	1053978	46277	108031	0	0	8236	543381	0	0
2024-10-03 09:11:47			0	38530	0	0	0	21883	20440	159892	27059	1054023	46287	108040	0	0	8235	543489	0	0
2024-10-03 09:12:47			0	38531	0	0	0	21885	20440	159888	26913	1054023	46297	108041	0	0	8235	543450	0	0
2024-10-03 09:13:47			0	38541	0	0	0	21857	20440	159816	27112	1054023	46309	108030	0	0	8236	543060	0	0
2024-10-03 09:14:47			0	38554	0	0	0	21864	20440	159716	27130	1053969	46287	108033	0	0	8237	542553	0	0
2024-10-03 09:15:47			0	38549	0	0	0	21883	20450	159760	27223	1054005	46298	108040	0	0	8237	542718	0	0
2024-10-03 09:16:47			0	38559	0	0	0	21890	20440	159816	26965	1053987	46286	108043	0	0	8237	542358	0	0
2024-10-03 09:17:47			0	38551	0	0	0	21945	20440	159836	27234	1054014	46296	108064	0	0	8236	542670	0	0
2024-10-03 09:18:47			0	38561	0	0	0	21903	20450	159772	27138	1054058	46298	108048	0	0	8237	542250	0	0
2024-10-03 09:19:47			0	38551	0	0	0	21854	20450	159740	27197	1054005	46321	108029	0	0	8237	542640	0	0
2024-10-03 09:20:47			0	38543	0	0	0	21859	20440	159888	27410	1054067	46296	108031	0	0	8237	542982	0	0
2024-10-03 09:21:47			0	38553	0	0	0	21893	20440	159840	27279	1054049	46287	108044	0	0	8237	542591	0	0
2024-10-03 09:22:47			0	38508	0	0	0	21875	20450	159828	27364	1054058	46277	108037	0	0	8234	544319	0	0
2024-10-03 09:23:47			0	38521	0	0	0	21872	20450	159740	27388	1054085	46321	108036	0	0	8235	543811	0	0
2024-10-03 09:24:47			0	38528	0	0	0	21898	20450	159792	27258	1054032	46298	108046	0	0	8235	543537	0	0
2024-10-03 09:25:47			0	38535	0	0	0	21976	20450	159880	27196	1054058	46310	108076	0	0	8234	543264	0	0
2024-10-03 09:26:47			0	38530	0	0	0	21945	20450	159816	27315	1054147	46333	108064	0	0	8234	543459	0	0
2024-10-03 09:27:47			0	38545	0	0	0	21963	20450	159872	27131	1054200	46333	108071	0	0	8235	542874	0	0
2024-10-03 09:28:47			0	38537	0	0	0	21966	20460	159808	27291	1054245	46333	108072	0	0	8234	543156	0	0
2024-10-03 09:29:47			0	38524	0	0	0	22005	20480	159732	27249	1054272	46313	108087	0	0	8233	543603	0	0
2024-10-03 09:30:47			0	38539	0	0	0	21893	20490	159844	27479	1054236	46314	108044	0	0	8236	542988	0	0
2024-10-03 09:31:47			0	38523	0	0	0	21916	20490	159772	27319	1054183	46325	108053	0	0	8235	543612	0	0
2024-10-03 09:32:47			0	38535	0	0	0	21989	20490	159912	27154	1054290	46302	108081	0	0	8234	543144	0	0
2024-10-03 09:33:47			0	38521	0	0	0	21950	20490	159832	27580	1054290	46314	108066	0	0	8234	543690	0	0
2024-10-03 09:34:47			0	38532	0	0	0	21948	20480	159808	27017	1054254	46313	108065	0	0	8235	543291	0	0
2024-10-03 09:35:47			0	38540	0	0	0	22057	20490	159856	27157	1054290	46302	108107	0	0	8233	542949	0	0
2024-10-03 09:36:47			0	38536	0	0	0	21999	20490	159892	27251	1054290	46314	108085	0	0	8234	543105	0	0
2024-10-03 09:37:47			0	38534	0	0	0	22010	20510	159832	27364	1054432	46316	108089	0	0	8234	543123	0	0
2024-10-03 09:38:47			0	38544	0	0	0	21973	20500	159864	27175	1054370	46326	108075	0	0	8235	542763	0	0
2024-10-03 09:39:47			0	38568	0	0	0	21963	20500	159736	27274	1054370	46326	108071	0	0	8237	541827	0	0
2024-10-03 09:40:47			0	38564	0	0	0	21929	20510	159688	27258	1054387	46294	108058	0	0	8237	541953	0	0
2024-10-03 09:41:47			0	38535	0	0	0	21914	20520	159856	26944	1054343	46294	108052	0	0	8236	543054	0	0
2024-10-03 09:42:47			0	38503	0	0	0	21890	20510	159936	27308	1054325	46283	108043	0	0	8234	544333	0	0
2024-10-03 09:43:47			0	38486	0	0	0	21989	20500	160036	26861	1054370	46303	108081	0	0	8231	545028	0	0
2024-10-03 09:44:47			0	38487	0	0	0	21922	20500	159972	27211	1054343	46315	108055	0	0	8232	544989	0	0
2024-10-03 09:45:47			0	38512	0	0	0	21914	20510	159952	27218	1054352	46316	108052	0	0	8234	543982	0	0
2024-10-03 09:46:47			0	38489	0	0	0	21927	20510	159992	27192	1054299	46304	108057	0	0	8233	544881	0	0
2024-10-03 09:47:47			0	38481	0	0	0	21864	20510	159984	27175	1054272	46293	108033	0	0	8233	545193	0	0
2024-10-03 09:48:47			0	38465	0	0	0	21875	20500	160232	26857	1054148	46282	108037	0	0	8232	545850	0	0
2024-10-03 09:49:47			0	38410	0	0	0	21898	20480	160344	27367	1054094	46291	108046	0	0	8228	548066	0	0
2024-10-03 09:50:47			0	38379	0	0	0	21875	20480	160436	27313	1054148	46280	108037	0	0	8227	549283	0	0
2024-10-03 09:51:47			0	38346	0	0	0	21885	20470	160572	27100	1054103	46269	108041	0	0	8225	550611	0	0
2024-10-03 09:52:47			0	38324	0	0	0	21898	20480	160640	27322	1054165	46291	108046	0	0	8223	551447	0	0
2024-10-03 09:53:47			0	38340	0	0	0	21906	20480	160432	26942	1054192	46291	108049	0	0	8224	550817	0	0
2024-10-03 09:54:47			0	38385	0	0	0	21945	20470	160372	27400	1054174	46312	108064	0	0	8226	549078	0	0
2024-10-03 09:55:47			0	38405	0	0	0	21932	20490	160248	27086	1054210	46314	108059	0	0	8227	548232	0	0
2024-10-03 09:56:47			0	38446	0	0	0	21927	20490	160208	27154	1054263	46302	108057	0	0	8230	546624	0	0
2024-10-03 09:57:47			0	38462	0	0	0	21924	20490	160128	27433	1054210	46314	108056	0	0	8231	545997	0	0
2024-10-03 09:58:47			0	38484	0	0	0	21945	20480	159972	27109	1054254	46313	108064	0	0	8232	545166	0	0
2024-10-03 09:59:47			0	38500	0	0	0	21961	20490	159872	27607	1054298	46303	108070	0	0	8233	544511	0	0
2024-10-03 10:00:47			0	38497	0	0	0	21955	20490	159896	27355	1054272	46292	108068	0	0	8232	544628	0	0
2024-10-03 10:01:47			0	38520	0	0	0	22028	20490	159896	26783	1054405	46315	108096	0	0	8233	543729	0	0
2024-10-03 10:02:47			0	38544	0	0	0	21979	20510	159760	27034	1054387	46328	108077	0	0	8235	542733	0	0
2024-10-03 10:03:47			0	38545	0	0	0	21927	20500	159812	27324	1054396	46303	108057	0	0	8236	542724	0	0
2024-10-03 10:04:47			0	38525	0	0	0	21937	20510	159876	27111	1054334	46338	108061	0	0	8234	543474	0	0
2024-10-03 10:05:47			0	38515	0	0	0	21919	20510	159836	27265	1054334	46305	108054	0	0	8234	543865	0	0
2024-10-03 10:06:47			0	38467	0	0	0	21968	20520	159988	27627	1054316	46294	108073	0	0	8231	545711	0	0
2024-10-03 10:07:47			0	38485	0	0	0	21961	20520	160016	27284	1054325	46295	108070	0	0	8232	545007	0	0
2024-10-03 10:08:47			0	38485	0	0	0	21979	20510	159960	27312	1054405	46293	108077	0	0	8231	545037	0	0
2024-10-03 10:09:47			0	38502	0	0	0	21903	20510	159868	27277	1054387	46294	108048	0	0	8234	544372	0	0
2024-10-03 10:10:47			0	38497	0	0	0	21945	20510	160028	27353	1054299	46283	108064	0	0	8233	544568	0	0
2024-10-03 10:11:47			0	38470	0	0	0	22018	20500	160036	27071	1054290	46315	108092	0	0	8230	545654	0	0
2024-10-03 10:12:47			0	38498	0	0	0	22002	20500	159988	26845	1054334	46292	108086	0	0	8232	544559	0	0
2024-10-03 10:13:47			0	38518	0	0	0	22062	20510	159940	27331	1054405	46316	108109	0	0	8232	543747	0	0
2024-10-03 10:14:47			0	38535	0	0	0	21979	20510	159708	27164	1054432	46327	108077	0	0	8234	543084	0	0
2024-10-03 10:15:47			0	38541	0	0	0	22051	20520	159948	27334	1054538	46329	108105	0	0	8234	542820	0	0
2024-10-03 10:16:47			0	38550	0	0	0	22041	20520	159716	27339	1054538	46318	108101	0	0	8234	542469	0	0
2024-10-03 10:17:47			0	38550	0	0	0	22083	20550	159856	27435	1054627	46352	108117	0	0	8234	542379	0	0
2024-10-03 10:18:47			0	38540	0	0	0	22051	20550	159808	27306	1054654	46341	108105	0	0	8234	542769	0	0
2024-10-03 10:19:47			0	38542	0	0	0	22124	20560	159760	27403	1054681	46343	108133	0	0	8233	542661	0	0
2024-10-03 10:20:47			0	38536	0	0	0	22080	20570	159776	27396	1054778	46354	108116	0	0	8233	542865	0	0
2024-10-03 10:21:47			0	38539	0	0	0	22033	20590	159800	27516	1054752	46356	108098	0	0	8234	542687	0	0
2024-10-03 10:22:47			0	38536	0	0	0	22096	20580	159808	27083	1054769	46334	108122	0	0	8233	542835	0	0
2024-10-03 10:23:47			0	38513	0	0	0	22116	20600	159812	27256	1054797	46335	108130	0	0	8231	543672	0	0
2024-10-03 10:24:47			0	38517	0	0	0	22098	20590	159740	27331	1054894	46346	108123	0	0	8232	543546	0	0
2024-10-03 10:25:47			0	38520	0	0	0	22098	20610	159736	27346	1054850	46327	108123	0	0	8232	543369	0	0
2024-10-03 10:26:47			0	38523	0	0	0	22119	20610	159728	27071	1054983	46327	108131	0	0	8232	543252	0	0
2024-10-03 10:27:47			0	38538	0	0	0	22114	20620	159744	27178	1054948	46338	108129	0	0	8233	542637	0	0
2024-10-03 10:28:47			0	38517	0	0	0	22075	20620	159724	27267	1054974	46349	108114	0	0	8232	543456	0	0
2024-10-03 10:29:47			0	38515	0	0	0	22051	20620	159812	27208	1054939	46316	108105	0	0	8232	543534	0	0
2024-10-03 10:30:47			0	38502	0	0	0	22135	20620	159884	26981	1054886	46316	108137	0	0	8230	544041	0	0
2024-10-03 10:31:47			0	38506	0	0	0	22114	20630	159864	27225	1055010	46349	108129	0	0	8231	543855	0	0
2024-10-03 10:32:47			0	38526	0	0	0	22119	20640	159664	27062	1055037	46330	108131	0	0	8232	543044	0	0
2024-10-03 10:33:47			0	38551	0	0	0	22137	20630	159700	26949	1055019	46339	108138	0	0	8233	542100	0	0
2024-10-03 10:34:47			0	38562	0	0	0	22098	20640	159452	26951	1055028	46339	108123	0	0	8234	541641	0	0
2024-10-03 10:35:47			0	38561	0	0	0	22101	20640	159552	27372	1055010	46330	108124	0	0	8234	541680	0	0
2024-10-03 10:36:47			0	38538	0	0	0	22129	20650	159664	27467	1055072	46320	108135	0	0	8233	542546	0	0
2024-10-03 10:37:47			0	38517	0	0	0	22101	20640	159692	27360	1055037	46340	108124	0	0	8232	543396	0	0
2024-10-03 10:38:47			0	38501	0	0	0	22101	20660	159744	27045	1055072	46342	108124	0	0	8231	543960	0	0
2024-10-03 10:39:47			0	38490	0	0	0	22137	20650	159844	27124	1055081	46320	108138	0	0	8230	544420	0	0
2024-10-03 10:40:47			0	38475	0	0	0	22150	20660	159908	26989	1055152	46342	108143	0	0	8229	544976	0	0
2024-10-03 10:41:47			0	38475	0	0	0	22122	20680	159936	27199	1055206	46367	108132	0	0	8229	544915	0	0
2024-10-03 10:42:47			0	38459	0	0	0	22109	20670	159952	27121	1055143	46343	108127	0	0	8228	545571	0	0
2024-10-03 10:43:47			0	38467	0	0	0	22111	20680	159880	27211	1055152	46333	108128	0	0	8229	545228	0	0
2024-10-03 10:44:47			0	38465	0	0	0	22129	20660	159928	27093	1055117	46342	108135	0	0	8228	545367	0	0
2024-10-03 10:45:47			0	38481	0	0	0	22135	20670	159928	27003	1055108	46343	108137	0	0	8229	544711	0	0
2024-10-03 10:46:47			0	38448	0	0	0	22140	20680	159980	27064	1055179	46333	108139	0	0	8227	545971	0	0
2024-10-03 10:47:47			0	38447	0	0	0	22132	20680	159944	27078	1055232	46333	108136	0	0	8227	546011	0	0
2024-10-03 10:48:47			0	38444	0	0	0	22135	20680	159960	27114	1055206	46311	108137	0	0	8227	546128	0	0
2024-10-03 10:49:47			0	38460	0	0	0	22124	20680	159996	26986	1055268	46323	108133	0	0	8228	545502	0	0
2024-10-03 10:50:47			0	38455	0	0	0	22122	20680	159940	26937	1055206	46323	108132	0	0	8228	545697	0	0
2024-10-03 10:51:47			0	38449	0	0	0	22096	20690	159964	27133	1055223	46324	108122	0	0	8228	545902	0	0
2024-10-03 10:52:47			0	38464	0	0	0	22109	20680	160016	27149	1055188	46333	108127	0	0	8229	545345	0	0
2024-10-03 10:53:47			0	38452	0	0	0	22127	20670	159900	26897	1055197	46322	108134	0	0	8228	545845	0	0
2024-10-03 10:54:47			0	38458	0	0	0	22119	20680	159884	27072	1055188	46344	108131	0	0	8228	545580	0	0
2024-10-03 10:55:47			0	38471	0	0	0	22109	20680	159912	27414	1055215	46344	108127	0	0	8229	545072	0	0
2024-10-03 10:56:47			0	38476	0	0	0	22124	20690	159992	27383	1055277	46324	108133	0	0	8229	544846	0	0
2024-10-03 10:57:47			0	38490	0	0	0	22132	20680	159880	27253	1055161	46323	108136	0	0	8230	544329	0	0
2024-10-03 10:58:47			0	38478	0	0	0	22101	20690	159804	27383	1055197	46345	108124	0	0	8230	544768	0	0
2024-10-03 10:59:47			0	38498	0	0	0	22070	20680	159836	27166	1055135	46311	108112	0	0	8231	544017	0	0
2024-10-03 11:00:47			0	38475	0	0	0	22090	20680	159840	27116	1055099	46311	108120	0	0	8230	544915	0	0
2024-10-03 11:01:47			0	38478	0	0	0	22090	20680	159904	27455	1055108	46311	108120	0	0	8230	544798	0	0
2024-10-03 11:02:47			0	38476	0	0	0	22096	20670	159864	27384	1055081	46322	108122	0	0	8230	544906	0	0
2024-10-03 11:03:47			0	38478	0	0	0	22085	20670	159872	27020	1055117	46310	108118	0	0	8230	544828	0	0
2024-10-03 11:04:47			0	38487	0	0	0	22119	20670	159968	27419	1055037	46310	108131	0	0	8230	544477	0	0
2024-10-03 11:05:47			0	38484	0	0	0	22119	20670	159888	27343	1055170	46333	108131	0	0	8230	544594	0	0
2024-10-03 11:06:47			0	38490	0	0	0	22101	20670	159900	27352	1055143	46322	108124	0	0	8230	544359	0	0
2024-10-03 11:07:47			0	38473	0	0	0	22119	20670	159944	27435	1055197	46322	108131	0	0	8229	545024	0	0
2024-10-03 11:08:47			0	38456	0	0	0	22150	20670	159820	27537	1055170	46343	108143	0	0	8228	545688	0	0
2024-10-03 11:09:47			0	38463	0	0	0	22158	20680	159856	27331	1055215	46355	108146	0	0	8228	545385	0	0
2024-10-03 11:10:47			0	38475	0	0	0	22150	20670	159876	27303	1055250	46354	108143	0	0	8229	544946	0	0
2024-10-03 11:11:47			0	38475	0	0	0	22129	20680	159864	27360	1055268	46323	108135	0	0	8229	544915	0	0
2024-10-03 11:12:47			0	38469	0	0	0	22116	20690	159852	27405	1055250	46345	108130	0	0	8229	545120	0	0
2024-10-03 11:13:47			0	38476	0	0	0	22064	20680	159896	27046	1055241	46333	108110	0	0	8230	544876	0	0
2024-10-03 11:14:47			0	38462	0	0	0	22049	20690	159884	27208	1055197	46301	108104	0	0	8230	545393	0	0
2024-10-03 11:15:47			0	38459	0	0	0	22044	20670	159804	27282	1055037	46310	108102	0	0	8230	545571	0	0
2024-10-03 11:16:47			0	38467	0	0	0	22049	20670	159848	27286	1055064	46310	108104	0	0	8230	545258	0	0
2024-10-03 11:17:47			0	38444	0	0	0	22072	20660	159892	27048	1055010	46309	108113	0	0	8228	546188	0	0
2024-10-03 11:18:47			0	38442	0	0	0	22111	20650	159936	27215	1055055	46308	108128	0	0	8227	546297	0	0
2024-10-03 11:19:47			0	38438	0	0	0	22127	20670	159952	27031	1055081	46333	108134	0	0	8227	546393	0	0
2024-10-03 11:20:47			0	38455	0	0	0	22137	20660	160100	27239	1055143	46332	108138	0	0	8228	545758	0	0
2024-10-03 11:21:47			0	38455	0	0	0	22127	20670	159904	27230	1055108	46333	108134	0	0	8228	545728	0	0
2024-10-03 11:22:47			0	38446	0	0	0	22119	20670	159908	26958	1055161	46343	108131	0	0	8228	546080	0	0
2024-10-03 11:23:47			0	38452	0	0	0	22096	20680	159972	27457	1055179	46333	108122	0	0	8228	545815	0	0
2024-10-03 11:24:47			0	38445	0	0	0	22096	20680	159904	27095	1055188	46311	108122	0	0	8228	546089	0	0
2024-10-03 11:25:47			0	38451	0	0	0	22077	20680	160012	27268	1055126	46333	108115	0	0	8229	545854	0	0
2024-10-03 11:26:47			0	38451	0	0	0	22085	20670	159976	27170	1055143	46322	108118	0	0	8228	545884	0	0
2024-10-03 11:27:47			0	38450	0	0	0	22109	20670	160000	27549	1055055	46333	108127	0	0	8228	545923	0	0
2024-10-03 11:28:47			0	38450	0	0	0	22106	20660	160028	27112	1055099	46321	108126	0	0	8228	545953	0	0
2024-10-03 11:29:47			0	38456	0	0	0	22080	20660	159968	27100	1055126	46342	108116	0	0	8229	545719	0	0
2024-10-03 11:30:47			0	38458	0	0	0	22114	20670	160016	27260	1055135	46322	108129	0	0	8228	545610	0	0
2024-10-03 11:31:47			0	38453	0	0	0	22114	20670	159972	27606	1055170	46322	108129	0	0	8228	545806	0	0
2024-10-03 11:32:47			0	38469	0	0	0	22109	20670	159928	27261	1055170	46343	108127	0	0	8229	545180	0	0
2024-10-03 11:33:47			0	38460	0	0	0	22124	20670	159940	27391	1055143	46343	108133	0	0	8228	545532	0	0
2024-10-03 11:34:47			0	38451	0	0	0	22109	20670	159892	27426	1055250	46322	108127	0	0	8228	545884	0	0
2024-10-03 11:35:47			0	38466	0	0	0	22085	20680	159844	27291	1055152	46333	108118	0	0	8229	545267	0	0
2024-10-03 11:36:47			0	38463	0	0	0	22075	20670	159772	27452	1055223	46322	108114	0	0	8229	545415	0	0
2024-10-03 11:37:47			0	38468	0	0	0	22080	20670	159800	27498	1055081	46322	108116	0	0	8229	545219	0	0
2024-10-03 11:38:47			0	38485	0	0	0	22077	20670	159756	27235	1055090	46322	108115	0	0	8230	544555	0	0
2024-10-03 11:39:47			0	38484	0	0	0	22070	20660	159792	27498	1055099	46332	108112	0	0	8231	544624	0	0
2024-10-03 11:40:47			0	38473	0	0	0	22109	20650	159924	27225	1055028	46320	108127	0	0	8229	545084	0	0
2024-10-03 11:41:47			0	38492	0	0	0	22129	20660	159816	27043	1055072	46342	108135	0	0	8230	544311	0	0
2024-10-03 11:42:47			0	38454	0	0	0	22109	20660	159972	27431	1055152	46342	108127	0	0	8228	545797	0	0
2024-10-03 11:43:47			0	38454	0	0	0	22124	20670	159920	27244	1055135	46343	108133	0	0	8228	545767	0	0
2024-10-03 11:44:47			0	38446	0	0	0	22122	20660	159840	26991	1055143	46353	108132	0	0	8227	546110	0	0
2024-10-03 11:45:47			0	38457	0	0	0	22106	20660	159836	27142	1055126	46332	108126	0	0	8228	545680	0	0
2024-10-03 11:46:47			0	38455	0	0	0	22111	20670	159844	26949	1055135	46310	108128	0	0	8228	545728	0	0
2024-10-03 11:47:47			0	38465	0	0	0	22111	20660	159788	27263	1055152	46332	108128	0	0	8229	545367	0	0
2024-10-03 11:48:47			0	38468	0	0	0	22116	20680	159732	27131	1055152	46323	108130	0	0	8229	545189	0	0
2024-10-03 11:49:47			0	38464	0	0	0	22114	20670	159872	27315	1055161	46322	108129	0	0	8229	545376	0	0
2024-10-03 11:50:47			0	38447	0	0	0	22122	20670	159788	26998	1055197	46333	108132	0	0	8228	546041	0	0
2024-10-03 11:51:47			0	38471	0	0	0	22122	20680	159756	27123	1055285	46333	108132	0	0	8229	545072	0	0
2024-10-03 11:52:47			0	38470	0	0	0	22109	20680	159872	26984	1055179	46333	108127	0	0	8229	545111	0	0
2024-10-03 11:53:47			0	38487	0	0	0	22096	20680	159664	27237	1055206	46333	108122	0	0	8230	544447	0	0
2024-10-03 11:54:47			0	38482	0	0	0	22093	20680	159732	27391	1055161	46323	108121	0	0	8230	544642	0	0
2024-10-03 11:55:47			0	38483	0	0	0	22096	20670	159776	27159	1055143	46310	108122	0	0	8230	544633	0	0
2024-10-03 11:56:47			0	38491	0	0	0	22088	20670	159756	27229	1055117	46333	108119	0	0	8231	544320	0	0
2024-10-03 11:57:47			0	38503	0	0	0	22111	20670	159700	27079	1055143	46333	108128	0	0	8231	543852	0	0
2024-10-03 11:58:47			0	38512	0	0	0	22103	20680	159656	27071	1055206	46311	108125	0	0	8232	543470	0	0
2024-10-03 11:59:47			0	38545	0	0	0	22077	20680	159604	27341	1055152	46311	108115	0	0	8234	542184	0	0
2024-10-03 12:00:47			0	38546	0	0	0	22083	20660	159548	27267	1055072	46309	108117	0	0	8234	542204	0	0
2024-10-03 12:01:47			0	38527	0	0	0	22083	20660	159408	26922	1055046	46298	108117	0	0	8233	542945	0	0
2024-10-03 12:02:47			0	38551	0	0	0	22051	20650	159532	27322	1055028	46308	108105	0	0	8235	542040	0	0
2024-10-03 12:03:47			0	38551	0	0	0	22080	20650	159356	26984	1054975	46297	108116	0	0	8234	542040	0	0
2024-10-03 12:04:47			0	38567	0	0	0	22088	20650	159348	27074	1055108	46320	108119	0	0	8235	541416	0	0
2024-10-03 12:05:47			0	38582	0	0	0	22129	20650	159512	27253	1055081	46331	108135	0	0	8235	540833	0	0
2024-10-03 12:06:47			0	38563	0	0	0	22142	20660	159472	27137	1055099	46332	108140	0	0	8234	541542	0	0
2024-10-03 12:07:47			0	38541	0	0	0	22142	20670	159416	27287	1055214	46343	108140	0	0	8233	542369	0	0
2024-10-03 12:08:47			0	38546	0	0	0	22137	20670	159500	27161	1055241	46343	108138	0	0	8233	542174	0	0
2024-10-03 12:09:47			0	38552	0	0	0	22135	20680	159484	27659	1055259	46333	108137	0	0	8233	541911	0	0
2024-10-03 12:10:47			0	38545	0	0	0	22153	20680	159576	27592	1055259	46323	108144	0	0	8233	542184	0	0
2024-10-03 12:11:47			0	38525	0	0	0	22150	20670	159580	27128	1055303	46343	108143	0	0	8232	542993	0	0
2024-10-03 12:12:47			0	38517	0	0	0	22150	20690	159488	27121	1055259	46345	108143	0	0	8231	543245	0	0
2024-10-03 12:13:47			0	38522	0	0	0	22145	20700	159596	27315	1055321	46346	108141	0	0	8232	543020	0	0
2024-10-03 12:14:47			0	38538	0	0	0	22145	20690	159564	27332	1055312	46334	108141	0	0	8233	542426	0	0
2024-10-03 12:15:47			0	38542	0	0	0	22153	20700	159492	27319	1055383	46347	108144	0	0	8233	542240	0	0
2024-10-03 12:16:47			0	38526	0	0	0	22161	20700	159552	27281	1055348	46346	108147	0	0	8232	542864	0	0
2024-10-03 12:17:47			0	38526	0	0	0	22166	20700	159436	27254	1055383	46347	108149	0	0	8232	542864	0	0
2024-10-03 12:18:47			0	38549	0	0	0	22166	20710	159444	27130	1055392	46347	108149	0	0	8233	541938	0	0
2024-10-03 12:19:47			0	38564	0	0	0	22166	20710	159360	27457	1055366	46336	108149	0	0	8234	541354	0	0
2024-10-03 12:20:47			0	38559	0	0	0	22174	20710	159320	26986	1055392	46326	108152	0	0	8233	541548	0	0
2024-10-03 12:21:47			0	38567	0	0	0	22174	20710	159244	27301	1055455	46336	108152	0	0	8234	541237	0	0
2024-10-03 12:22:47			0	38593	0	0	0	22179	20720	159232	27161	1055366	46349	108154	0	0	8235	540195	0	0
2024-10-03 12:23:47			0	38596	0	0	0	22189	20720	159376	27362	1055526	46349	108158	0	0	8235	540079	0	0
2024-10-03 12:24:47			0	38588	0	0	0	22186	20730	159280	27343	1055482	46349	108157	0	0	8235	540360	0	0
2024-10-03 12:25:47			0	38588	0	0	0	22192	20730	159240	27270	1055517	46361	108159	0	0	8235	540360	0	0
2024-10-03 12:26:47			0	38617	0	0	0	22199	20730	159180	27445	1055535	46349	108162	0	0	8236	539233	0	0
2024-10-03 12:27:47			0	38615	0	0	0	22199	20730	159180	27225	1055464	46339	108162	0	0	8236	539311	0	0
2024-10-03 12:28:47			0	38611	0	0	0	22202	20740	159108	27331	1055499	46350	108163	0	0	8236	539436	0	0
2024-10-03 12:29:47			0	38623	0	0	0	22205	20730	159104	27048	1055570	46339	108164	0	0	8237	539000	0	0
2024-10-03 12:30:47			0	38653	0	0	0	22207	20740	158968	27339	1055579	46350	108165	0	0	8238	537806	0	0
2024-10-03 12:31:47			0	38630	0	0	0	22199	20740	159092	27339	1055588	46340	108162	0	0	8237	538698	0	0
2024-10-03 12:32:47			0	38632	0	0	0	22210	20750	159108	27088	1055571	46340	108166	0	0	8237	538591	0	0
2024-10-03 12:33:47			0	38632	0	0	0	22199	20750	159100	27126	1055597	46351	108162	0	0	8237	538591	0	0
2024-10-03 12:34:47			0	38639	0	0	0	22210	20750	159048	27223	1055579	46341	108166	0	0	8238	538320	0	0
2024-10-03 12:35:47			0	38659	0	0	0	22202	20760	158908	26963	1055615	46341	108163	0	0	8239	537514	0	0
2024-10-03 12:36:47			0	38643	0	0	0	22207	20760	159064	27410	1055562	46341	108165	0	0	8238	538134	0	0
2024-10-03 12:37:47			0	38666	0	0	0	22205	20750	159044	27076	1055579	46331	108164	0	0	8239	537273	0	0
2024-10-03 12:38:47			0	38664	0	0	0	22199	20760	158960	27454	1055642	46352	108162	0	0	8239	537320	0	0
2024-10-03 12:39:47			0	38657	0	0	0	22207	20760	158984	27215	1055642	46363	108165	0	0	8239	537592	0	0
2024-10-03 12:40:47			0	38642	0	0	0	22212	20760	159048	27152	1055615	46341	108167	0	0	8238	538173	0	0
2024-10-03 12:41:47			0	38630	0	0	0	22205	20770	159100	27078	1055633	46343	108164	0	0	8237	538609	0	0
2024-10-03 12:42:47			0	38649	0	0	0	22215	20760	159092	27398	1055642	46341	108168	0	0	8238	537902	0	0
2024-10-03 12:43:47			0	38628	0	0	0	22215	20770	159072	27078	1055633	46343	108168	0	0	8237	538687	0	0
2024-10-03 12:44:47			0	38612	0	0	0	22220	20770	158964	26951	1055660	46343	108170	0	0	8236	539308	0	0
2024-10-03 12:45:47			0	38628	0	0	0	22220	20780	159036	27109	1055651	46343	108170	0	0	8237	538657	0	0
2024-10-03 12:46:47			0	38632	0	0	0	22210	20770	158992	27305	1055722	46343	108166	0	0	8237	538531	0	0
2024-10-03 12:47:47			0	38646	0	0	0	22215	20770	159064	27000	1055633	46321	108168	0	0	8238	537988	0	0
2024-10-03 12:48:47			0	38636	0	0	0	22210	20780	158984	26902	1055731	46354	108166	0	0	8238	538346	0	0
2024-10-03 12:49:47			0	38652	0	0	0	22215	20760	158824	27039	1055668	46352	108168	0	0	8238	537786	0	0
2024-10-03 12:50:47			0	38669	0	0	0	22218	20770	158956	27313	1055668	46343	108169	0	0	8239	537097	0	0
2024-10-03 12:51:47			0	38683	0	0	0	22212	20780	158920	27022	1055740	46344	108167	0	0	8240	536525	0	0
2024-10-03 12:52:47			0	38693	0	0	0	22212	20780	158816	26968	1055660	46333	108167	0	0	8241	536138	0	0
2024-10-03 12:53:47			0	38709	0	0	0	22215	20770	158776	27341	1055695	46333	108168	0	0	8242	535549	0	0
2024-10-03 12:54:47			0	38725	0	0	0	22210	20780	158693	26864	1055704	46321	108166	0	0	8243	534901	0	0
2024-10-03 12:55:47			0	38731	0	0	0	22220	20780	158569	26970	1055704	46343	108170	0	0	8243	534669	0	0
2024-10-03 12:56:47			0	38747	0	0	0	22223	20780	158529	27490	1055677	46354	108171	0	0	8244	534051	0	0
2024-10-03 12:57:47			0	38755	0	0	0	22223	20780	158469	27241	1055713	46333	108171	0	0	8244	533742	0	0
2024-10-03 12:58:47			0	38759	0	0	0	22220	20780	158469	27417	1055686	46333	108170	0	0	8245	533588	0	0
2024-10-03 12:59:47			0	38740	0	0	0	22218	20780	158593	27088	1055731	46343	108169	0	0	8243	534321	0	0
2024-10-03 13:00:47			0	38733	0	0	0	22228	20790	158649	27140	1055775	46345	108173	0	0	8243	534562	0	0
2024-10-03 13:01:47			0	38739	0	0	0	22218	20790	158629	27001	1055748	46356	108169	0	0	8243	534330	0	0
2024-10-03 13:02:47			0	38734	0	0	0	22220	20800	158621	27543	1055766	46334	108170	0	0	8243	534494	0	0
2024-10-03 13:03:47			0	38724	0	0	0	22220	20790	158740	27100	1055775	46334	108170	0	0	8243	534910	0	0
2024-10-03 13:04:47			0	38706	0	0	0	22223	20780	158700	27303	1055731	46343	108171	0	0	8241	535635	0	0
2024-10-03 13:05:47			0	38684	0	0	0	22220	20800	158632	27036	1055766	46345	108170	0	0	8240	536427	0	0
2024-10-03 13:06:47			0	38703	0	0	0	22220	20790	158692	27005	1055775	46345	108170	0	0	8241	535722	0	0
2024-10-03 13:07:47			0	38670	0	0	0	22225	20780	158808	26920	1055713	46344	108172	0	0	8239	537029	0	0
2024-10-03 13:08:47			0	38668	0	0	0	22220	20780	158852	27048	1055757	46343	108170	0	0	8239	537106	0	0
2024-10-03 13:09:47			0	38660	0	0	0	22233	20780	158964	26896	1055740	46323	108175	0	0	8239	537416	0	0
2024-10-03 13:10:47			0	38651	0	0	0	22220	20780	158996	27041	1055757	46365	108170	0	0	8238	537765	0	0
2024-10-03 13:11:47			0	38627	0	0	0	22225	20780	158896	27098	1055757	46354	108172	0	0	8237	538696	0	0
2024-10-03 13:12:47			0	38631	0	0	0	22228	20780	159020	27300	1055757	46343	108173	0	0	8237	538540	0	0
2024-10-03 13:13:47			0	38620	0	0	0	22228	20790	159040	27737	1055775	46367	108173	0	0	8236	538937	0	0
2024-10-03 13:14:47			0	38611	0	0	0	22220	20800	159040	27237	1055793	46345	108170	0	0	8236	539257	0	0
2024-10-03 13:15:47			0	38604	0	0	0	22233	20780	159136	27175	1055766	46355	108175	0	0	8235	539589	0	0
2024-10-03 13:16:47			0	38587	0	0	0	22223	20790	159132	27111	1055722	46345	108171	0	0	8235	540219	0	0
2024-10-03 13:17:47			0	38584	0	0	0	22231	20800	159220	27640	1055793	46356	108174	0	0	8234	540306	0	0
2024-10-03 13:18:47			0	38577	0	0	0	22233	20790	159228	27083	1055722	46356	108175	0	0	8234	540608	0	0
2024-10-03 13:19:47			0	38550	0	0	0	22233	20800	159260	26894	1055740	46345	108175	0	0	8232	541629	0	0
2024-10-03 13:20:47			0	38556	0	0	0	22228	20790	159300	27274	1055775	46345	108173	0	0	8233	541425	0	0
2024-10-03 13:21:47			0	38539	0	0	0	22238	20780	159364	27355	1055766	46355	108177	0	0	8231	542117	0	0
2024-10-03 13:22:47			0	38532	0	0	0	22238	20790	159492	27164	1055802	46345	108177	0	0	8231	542360	0	0
2024-10-03 13:23:47			0	38523	0	0	0	22238	20790	159532	27116	1055775	46324	108177	0	0	8231	542711	0	0
2024-10-03 13:24:47			0	38504	0	0	0	22236	20800	159556	27398	1055829	46346	108176	0	0	8229	543421	0	0
2024-10-03 13:25:47			0	38501	0	0	0	22246	20790	159532	27395	1055811	46356	108180	0	0	8229	543569	0	0
2024-10-03 13:26:47			0	38493	0	0	0	22241	20790	159532	27381	1055828	46356	108178	0	0	8229	543881	0	0
2024-10-03 13:27:47			0	38482	0	0	0	22238	20800	159548	27419	1055775	46357	108177	0	0	8228	544280	0	0
2024-10-03 13:28:47			0	38489	0	0	0	22241	20800	159692	27088	1055846	46334	108178	0	0	8229	544007	0	0
2024-10-03 13:29:47			0	38489	0	0	0	22246	20790	159716	27239	1055837	46334	108180	0	0	8228	544037	0	0
2024-10-03 13:30:47			0	38484	0	0	0	22244	20800	159544	27111	1055802	46357	108179	0	0	8228	544202	0	0
2024-10-03 13:31:47			0	38454	0	0	0	22251	20810	159720	27088	1055784	46336	108182	0	0	8226	545344	0	0
2024-10-03 13:32:47			0	38454	0	0	0	22251	20810	159676	27046	1055820	46347	108182	0	0	8226	545344	0	0
2024-10-03 13:33:47			0	38432	0	0	0	22249	20810	159696	27289	1055837	46358	108181	0	0	8225	546205	0	0
2024-10-03 13:34:47			0	38456	0	0	0	22236	20810	159764	27424	1055873	46336	108176	0	0	8227	545266	0	0
2024-10-03 13:35:47			0	38465	0	0	0	22122	20820	159680	27388	1055829	46347	108132	0	0	8229	544884	0	0
2024-10-03 13:36:47			0	38488	0	0	0	22241	20790	159656	26948	1055775	46324	108178	0	0	8228	544076	0	0
2024-10-03 13:37:47			0	38507	0	0	0	22264	20810	159432	27371	1055873	46336	108187	0	0	8229	543274	0	0
2024-10-03 13:38:47			0	38537	0	0	0	22277	20810	159432	27505	1055864	46347	108192	0	0	8231	542105	0	0
2024-10-03 13:39:47			0	38542	0	0	0	22264	20820	159336	27199	1055855	46347	108187	0	0	8231	541880	0	0
2024-10-03 13:40:47			0	38536	0	0	0	22270	20820	159568	27152	1055882	46326	108189	0	0	8231	542114	0	0
2024-10-03 13:41:47			0	38521	0	0	0	22244	20820	159448	27208	1055882	46369	108179	0	0	8230	542698	0	0
2024-10-03 13:42:47			0	38516	0	0	0	22238	20810	159540	27154	1055793	46336	108177	0	0	8230	542923	0	0
2024-10-03 13:43:47			0	38501	0	0	0	22212	20810	159480	27281	1055864	46358	108167	0	0	8230	543508	0	0
2024-10-03 13:44:47			0	38485	0	0	0	22220	20810	159508	27222	1055864	46326	108170	0	0	8229	544133	0	0
2024-10-03 13:45:47			0	38492	0	0	0	22244	20800	159584	27374	1055829	46357	108179	0	0	8229	543890	0	0
2024-10-03 13:46:47			0	38498	0	0	0	22262	20810	159636	27371	1055820	46347	108186	0	0	8229	543625	0	0
2024-10-03 13:47:47			0	38494	0	0	0	22220	20810	159512	27383	1055891	46347	108170	0	0	8229	543781	0	0
2024-10-03 13:48:47			0	38503	0	0	0	22205	20810	159512	27371	1055784	46336	108164	0	0	8230	543430	0	0
2024-10-03 13:49:47			0	38519	0	0	0	22210	20810	159452	27170	1055793	46358	108166	0	0	8231	542806	0	0
2024-10-03 13:50:47			0	38538	0	0	0	22212	20800	159320	27135	1055722	46335	108167	0	0	8232	542096	0	0
2024-10-03 13:51:47			0	38546	0	0	0	22244	20790	159444	27166	1055748	46324	108179	0	0	8232	541814	0	0
2024-10-03 13:52:47			0	38539	0	0	0	22238	20800	159364	27377	1055820	46345	108177	0	0	8231	542057	0	0
2024-10-03 13:53:47			0	38532	0	0	0	22238	20790	159388	27390	1055775	46356	108177	0	0	8231	542360	0	0
2024-10-03 13:54:47			0	38554	0	0	0	22244	20800	159340	26866	1055882	46346	108179	0	0	8232	541473	0	0
2024-10-03 13:55:47			0	38537	0	0	0	22244	20800	159336	27187	1055766	46345	108179	0	0	8231	542135	0	0
2024-10-03 13:56:47			0	38530	0	0	0	22241	20790	159516	27448	1055731	46345	108178	0	0	8231	542438	0	0
2024-10-03 13:57:47			0	38540	0	0	0	22259	20800	159416	27131	1055820	46356	108185	0	0	8231	542018	0	0
2024-10-03 13:58:47			0	38524	0	0	0	22264	20790	159400	26778	1055775	46345	108187	0	0	8230	542672	0	0
2024-10-03 13:59:47			0	38512	0	0	0	22259	20800	159436	27152	1055873	46334	108185	0	0	8230	543109	0	0
2024-10-03 14:00:47			0	38542	0	0	0	22267	20810	159412	27154	1055837	46347	108188	0	0	8231	541910	0	0
2024-10-03 14:01:47			0	38532	0	0	0	22218	20810	159320	27059	1055784	46369	108169	0	0	8231	542300	0	0
2024-10-03 14:02:47			0	38552	0	0	0	22179	20810	159224	27041	1055820	46336	108154	0	0	8233	541521	0	0
2024-10-03 14:03:47			0	38544	0	0	0	22218	20800	159304	27036	1055740	46334	108169	0	0	8232	541862	0	0
2024-10-03 14:04:47			0	38547	0	0	0	22163	20800	159288	27358	1055713	46324	108148	0	0	8233	541746	0	0
2024-10-03 14:05:47			0	38577	0	0	0	22116	20790	159160	27031	1055642	46301	108130	0	0	8236	540608	0	0
2024-10-03 14:06:47			0	38567	0	0	0	22155	20770	159216	26878	1055606	46310	108145	0	0	8234	541057	0	0
2024-10-03 14:07:47			0	38590	0	0	0	22166	20770	159164	27296	1055580	46310	108149	0	0	8236	540163	0	0
2024-10-03 14:08:47			0	38567	0	0	0	22225	20760	159212	27377	1055588	46331	108172	0	0	8233	541087	0	0
2024-10-03 14:09:47			0	38587	0	0	0	22238	20770	159236	27196	1055606	46333	108177	0	0	8234	540279	0	0
2024-10-03 14:10:47			0	38573	0	0	0	22220	20770	159216	27447	1055686	46343	108170	0	0	8234	540823	0	0
2024-10-03 14:11:47			0	38586	0	0	0	22215	20760	159264	27517	1055651	46342	108168	0	0	8234	540348	0	0
2024-10-03 14:12:47			0	38580	0	0	0	22220	20770	159232	27310	1055695	46354	108170	0	0	8234	540551	0	0
2024-10-03 14:13:47			0	38571	0	0	0	22212	20770	159224	27296	1055695	46343	108167	0	0	8234	540901	0	0
2024-10-03 14:14:47			0	38573	0	0	0	22233	20760	159344	27698	1055695	46352	108175	0	0	8233	540853	0	0
2024-10-03 14:15:47			0	38577	0	0	0	22241	20770	159356	27512	1055739	46333	108178	0	0	8234	540668	0	0
2024-10-03 14:16:47			0	38579	0	0	0	22189	20770	159272	27296	1055695	46354	108158	0	0	8235	540590	0	0
2024-10-03 14:17:47			0	38565	0	0	0	22215	20770	159288	27417	1055668	46343	108168	0	0	8233	541135	0	0
2024-10-03 14:18:47			0	38549	0	0	0	22189	20770	159320	27180	1055660	46343	108158	0	0	8233	541758	0	0
2024-10-03 14:19:47			0	38583	0	0	0	22197	20770	159200	27225	1055695	46333	108161	0	0	8235	540435	0	0
2024-10-03 14:20:47			0	38591	0	0	0	22202	20770	159184	27180	1055660	46333	108163	0	0	8235	540124	0	0
2024-10-03 14:21:47			0	38620	0	0	0	22223	20770	159076	27319	1055642	46354	108171	0	0	8236	538997	0	0
2024-10-03 14:22:47			0	38652	0	0	0	22223	20770	158984	27296	1055642	46333	108171	0	0	8238	537756	0	0
2024-10-03 14:23:47			0	38664	0	0	0	22231	20780	158968	27445	1055704	46354	108174	0	0	8239	537261	0	0
2024-10-03 14:24:47			0	38685	0	0	0	22223	20790	158900	26975	1055748	46334	108171	0	0	8240	536418	0	0
2024-10-03 14:25:47			0	38689	0	0	0	22236	20770	158800	27313	1055775	46354	108176	0	0	8240	536323	0	0
2024-10-03 14:26:47			0	38695	0	0	0	22238	20780	158860	26998	1055766	46344	108177	0	0	8240	536061	0	0
2024-10-03 14:27:47			0	38720	0	0	0	22236	20790	158669	27410	1055748	46367	108176	0	0	8242	535064	0	0
2024-10-03 14:28:47			0	38711	0	0	0	22233	20790	158736	26982	1055775	46334	108175	0	0	8242	535412	0	0
2024-10-03 14:29:47			0	38706	0	0	0	22236	20780	158780	27372	1055793	46355	108176	0	0	8241	535635	0	0
2024-10-03 14:30:47			0	38704	0	0	0	22233	20800	158724	27300	1055802	46346	108175	0	0	8241	535653	0	0
2024-10-03 14:31:47			0	38696	0	0	0	22236	20790	158776	27414	1055828	46345	108176	0	0	8241	535992	0	0
2024-10-03 14:32:47			0	38679	0	0	0	22246	20800	158772	27452	1055766	46356	108180	0	0	8240	536620	0	0
2024-10-03 14:33:47			0	38654	0	0	0	22236	20790	158832	27216	1055802	46345	108176	0	0	8238	537619	0	0
2024-10-03 14:34:47			0	38658	0	0	0	22249	20790	158912	27258	1055775	46345	108181	0	0	8238	537464	0	0
2024-10-03 14:35:47			0	38640	0	0	0	22233	20790	159004	27369	1055828	46356	108175	0	0	8237	538161	0	0
2024-10-03 14:36:47			0	38622	0	0	0	22244	20790	159128	27467	1055802	46367	108179	0	0	8236	538860	0	0
2024-10-03 14:37:47			0	38620	0	0	0	22249	20800	159068	27244	1055802	46346	108181	0	0	8236	538908	0	0
2024-10-03 14:38:47			0	38609	0	0	0	22254	20800	159136	27557	1055820	46356	108183	0	0	8235	539335	0	0
2024-10-03 14:39:47			0	38612	0	0	0	22257	20800	159132	27069	1055855	46368	108184	0	0	8235	539218	0	0
2024-10-03 14:40:47			0	38583	0	0	0	22264	20800	159300	27279	1055829	46357	108187	0	0	8234	540345	0	0
2024-10-03 14:41:47			0	38578	0	0	0	22257	20810	159236	27488	1055891	46347	108184	0	0	8233	540509	0	0
2024-10-03 14:42:47			0	38574	0	0	0	22264	20810	159208	27486	1055900	46358	108187	0	0	8233	540665	0	0
2024-10-03 14:43:47			0	38586	0	0	0	22262	20820	159192	27395	1055829	46358	108186	0	0	8234	540168	0	0
2024-10-03 14:44:47			0	38573	0	0	0	22251	20810	159156	27220	1055864	46358	108182	0	0	8233	540704	0	0
2024-10-03 14:45:47			0	38579	0	0	0	22251	20810	159164	27355	1055873	46358	108182	0	0	8234	540471	0	0
2024-10-03 14:46:47			0	38589	0	0	0	22251	20800	159168	27315	1055855	46357	108182	0	0	8234	540112	0	0
2024-10-03 14:47:47			0	38604	0	0	0	22249	20810	159080	27334	1055900	46347	108181	0	0	8235	539499	0	0
2024-10-03 14:48:47			0	38603	0	0	0	22249	20810	159020	27294	1055900	46347	108181	0	0	8235	539538	0	0
2024-10-03 14:49:47			0	38611	0	0	0	22251	20820	159044	27201	1055971	46370	108182	0	0	8236	539197	0	0
2024-10-03 14:50:47			0	38600	0	0	0	22257	20820	159156	27142	1055855	46336	108184	0	0	8235	539625	0	0
2024-10-03 14:51:47			0	38597	0	0	0	22262	20820	159176	27388	1055882	46369	108186	0	0	8235	539741	0	0
2024-10-03 14:52:47			0	38567	0	0	0	22264	20820	159208	27296	1055909	46358	108187	0	0	8233	540907	0	0
2024-10-03 14:53:47			0	38598	0	0	0	22275	20810	159168	27190	1055900	46347	108191	0	0	8234	539732	0	0
2024-10-03 14:54:47			0	38560	0	0	0	22285	20820	159180	27157	1055882	46358	108195	0	0	8232	541179	0	0
2024-10-03 14:55:47			0	38542	0	0	0	22280	20820	159172	27421	1055918	46370	108193	0	0	8231	541880	0	0
2024-10-03 14:56:47			0	38553	0	0	0	22275	20820	159356	27183	1055944	46348	108191	0	0	8232	541452	0	0
2024-10-03 14:57:47			0	38550	0	0	0	22285	20820	159296	27142	1055944	46359	108195	0	0	8231	541569	0	0
2024-10-03 14:58:47			0	38537	0	0	0	22280	20840	159300	27405	1056016	46361	108193	0	0	8231	542015	0	0
2024-10-03 14:59:47			0	38528	0	0	0	22285	20820	159304	27206	1056024	46348	108195	0	0	8230	542426	0	0
2024-10-03 15:00:47			0	38537	0	0	0	22296	20840	159332	27332	1055971	46361	108199	0	0	8231	542015	0	0
2024-10-03 15:01:47			0	38529	0	0	0	22290	20830	159464	26961	1056033	46338	108197	0	0	8230	542357	0	0
2024-10-03 15:02:47			0	38519	0	0	0	22298	20840	159408	27360	1056025	46361	108200	0	0	8229	542716	0	0
2024-10-03 15:03:47			0	38517	0	0	0	22301	20850	159376	27267	1056033	46361	108201	0	0	8229	542764	0	0
2024-10-03 15:04:47			0	38525	0	0	0	22303	20840	159428	27069	1056051	46350	108202	0	0	8230	542482	0	0
2024-10-03 15:05:47			0	38520	0	0	0	22298	20850	159336	26989	1056042	46362	108200	0	0	8230	542647	0	0
2024-10-03 15:06:47			0	38524	0	0	0	22293	20850	159408	27256	1056033	46361	108198	0	0	8230	542491	0	0
2024-10-03 15:07:47			0	38505	0	0	0	22306	20860	159328	27118	1056060	46331	108203	0	0	8229	543202	0	0
2024-10-03 15:08:47			0	38519	0	0	0	22311	20860	159392	27064	1056131	46352	108205	0	0	8229	542656	0	0
2024-10-03 15:09:47			0	38519	0	0	0	22303	20850	159416	27072	1056096	46340	108202	0	0	8229	542686	0	0
2024-10-03 15:10:47			0	38517	0	0	0	22309	20860	159400	27024	1056158	46363	108204	0	0	8229	542734	0	0
2024-10-03 15:11:47			0	38507	0	0	0	22306	20860	159424	27287	1056131	46363	108203	0	0	8229	543124	0	0
2024-10-03 15:12:47			0	38509	0	0	0	22309	20870	159404	26939	1056131	46353	108204	0	0	8229	543016	0	0
2024-10-03 15:13:47			0	38517	0	0	0	22303	20870	159404	27104	1056149	46352	108202	0	0	8229	542704	0	0
2024-10-03 15:14:47			0	38511	0	0	0	22301	20870	159468	27249	1056149	46341	108201	0	0	8229	542938	0	0
2024-10-03 15:15:47			0	38504	0	0	0	22311	20870	159520	27185	1056176	46363	108205	0	0	8229	543211	0	0
2024-10-03 15:16:47			0	38496	0	0	0	22309	20870	159480	27048	1056149	46341	108204	0	0	8228	543523	0	0
2024-10-03 15:17:47			0	38498	0	0	0	22309	20870	159488	27215	1056176	46352	108204	0	0	8228	543445	0	0
2024-10-03 15:18:47			0	38494	0	0	0	22306	20860	159540	27126	1056167	46352	108203	0	0	8228	543631	0	0
2024-10-03 15:19:47			0	38500	0	0	0	22309	20870	159548	27045	1056149	46363	108204	0	0	8228	543367	0	0
2024-10-03 15:20:47			0	38483	0	0	0	22311	20860	159476	27003	1056167	46352	108205	0	0	8227	544060	0	0
2024-10-03 15:21:47			0	38500	0	0	0	22314	20880	159476	27334	1056114	46365	108206	0	0	8228	543337	0	0
2024-10-03 15:22:47			0	38490	0	0	0	22316	20880	159588	27123	1056203	46375	108207	0	0	8228	543727	0	0
2024-10-03 15:23:47			0	38484	0	0	0	22306	20870	159516	27033	1056202	46352	108203	0	0	8227	543991	0	0
2024-10-03 15:24:47			0	38495	0	0	0	22306	20880	159472	27389	1056176	46354	108203	0	0	8228	543532	0	0
2024-10-03 15:25:47			0	38481	0	0	0	22296	20880	159536	27358	1056176	46354	108199	0	0	8227	544078	0	0
2024-10-03 15:26:47			0	38488	0	0	0	22303	20870	159504	27201	1056158	46342	108202	0	0	8228	543835	0	0
2024-10-03 15:27:47			0	38472	0	0	0	22309	20880	159516	27440	1056203	46343	108204	0	0	8227	544429	0	0
2024-10-03 15:28:47			0	38476	0	0	0	22311	20880	159552	27313	1056123	46343	108205	0	0	8227	544273	0	0
2024-10-03 15:29:47			0	38475	0	0	0	22306	20870	159500	27275	1056158	46353	108203	0	0	8227	544342	0	0
2024-10-03 15:30:47			0	38480	0	0	0	22311	20880	159580	27265	1056176	46354	108205	0	0	8227	544117	0	0
2024-10-03 15:31:47			0	38474	0	0	0	22311	20890	159616	27621	1056211	46354	108205	0	0	8227	544321	0	0
2024-10-03 15:32:47			0	38479	0	0	0	22298	20880	159688	27225	1056167	46354	108200	0	0	8227	544156	0	0
2024-10-03 15:33:47			0	38465	0	0	0	22306	20880	159600	27244	1056194	46354	108203	0	0	8226	544703	0	0
2024-10-03 15:34:47			0	38441	0	0	0	22298	20880	159716	27053	1056176	46354	108200	0	0	8225	545641	0	0
2024-10-03 15:35:47			0	38434	0	0	0	22306	20880	159680	27261	1056194	46343	108203	0	0	8225	545915	0	0
2024-10-03 15:36:47			0	38444	0	0	0	22303	20880	159636	27293	1056203	46365	108202	0	0	8225	545523	0	0
2024-10-03 15:37:47			0	38443	0	0	0	22309	20880	159744	27296	1056176	46354	108204	0	0	8225	545562	0	0
2024-10-03 15:38:47			0	38439	0	0	0	22309	20890	159744	27350	1056220	46355	108204	0	0	8225	545689	0	0
2024-10-03 15:39:47			0	38440	0	0	0	22309	20870	159656	27208	1056176	46331	108204	0	0	8225	545710	0	0
2024-10-03 15:40:47			0	38445	0	0	0	22309	20890	159744	27183	1056211	46343	108204	0	0	8225	545454	0	0
2024-10-03 15:41:47			0	38441	0	0	0	22311	20870	159676	27258	1056176	46352	108205	0	0	8225	545671	0	0
2024-10-03 15:42:47			0	38428	0	0	0	22306	20880	159576	27275	1056176	46375	108203	0	0	8224	546149	0	0
2024-10-03 15:43:47			0	38446	0	0	0	22311	20880	159584	27178	1056176	46343	108205	0	0	8225	545445	0	0
2024-10-03 15:44:47			0	38428	0	0	0	22309	20880	159732	27052	1056203	46354	108204	0	0	8224	546149	0	0
2024-10-03 15:45:47			0	38428	0	0	0	22298	20880	159696	27180	1056203	46354	108200	0	0	8224	546149	0	0
2024-10-03 15:46:47			0	38429	0	0	0	22290	20880	159728	27326	1056149	46354	108197	0	0	8225	546110	0	0
2024-10-03 15:47:47			0	38430	0	0	0	22288	20880	159668	27187	1056167	46343	108196	0	0	8225	546071	0	0
2024-10-03 15:48:47			0	38412	0	0	0	22277	20870	159764	27194	1056158	46364	108192	0	0	8224	546806	0	0
2024-10-03 15:49:47			0	38425	0	0	0	22272	20870	159800	27067	1056069	46319	108190	0	0	8225	546297	0	0
2024-10-03 15:50:47			0	38409	0	0	0	22267	20870	159788	27261	1056016	46341	108188	0	0	8224	546923	0	0
2024-10-03 15:51:47			0	38421	0	0	0	22270	20870	159836	27455	1056016	46331	108189	0	0	8224	546453	0	0
2024-10-03 15:52:47			0	38421	0	0	0	22254	20850	159692	27552	1056016	46351	108183	0	0	8225	546514	0	0
2024-10-03 15:53:47			0	38422	0	0	0	22241	20850	159724	27230	1056016	46351	108178	0	0	8225	546475	0	0
2024-10-03 15:54:47			0	38434	0	0	0	22228	20850	159640	27050	1055936	46330	108173	0	0	8226	546005	0	0
2024-10-03 15:55:47			0	38440	0	0	0	22236	20840	159708	27376	1055962	46317	108176	0	0	8226	545801	0	0
2024-10-03 15:56:47			0	38440	0	0	0	22244	20840	159668	27348	1055936	46339	108179	0	0	8226	545801	0	0
2024-10-03 15:57:47			0	38443	0	0	0	22241	20820	159772	27098	1055944	46327	108178	0	0	8226	545744	0	0
2024-10-03 15:58:47			0	38458	0	0	0	22254	20840	159696	27355	1055936	46329	108183	0	0	8227	545097	0	0
2024-10-03 15:59:47			0	38463	0	0	0	22283	20850	159740	27272	1056007	46350	108194	0	0	8227	544871	0	0
2024-10-03 16:00:47			0	38458	0	0	0	22174	20840	159596	27488	1055998	46361	108152	0	0	8228	545097	0	0
2024-10-03 16:01:47			0	38487	0	0	0	22225	20820	159668	27303	1055891	46337	108172	0	0	8229	544025	0	0
2024-10-03 16:02:47			0	38465	0	0	0	22257	20830	159688	27268	1055873	46316	108184	0	0	8227	544854	0	0
2024-10-03 16:03:47			0	38459	0	0	0	22275	20830	159680	27220	1055900	46349	108191	0	0	8226	545088	0	0
2024-10-03 16:04:47			0	38468	0	0	0	22251	20830	159660	27481	1055953	46338	108182	0	0	8227	544737	0	0
2024-10-03 16:05:47			0	38471	0	0	0	22238	20820	159696	27171	1055944	46348	108177	0	0	8228	544649	0	0
2024-10-03 16:06:47			0	38501	0	0	0	22259	20820	159544	27315	1055909	46369	108185	0	0	8229	543478	0	0
2024-10-03 16:07:47			0	38503	0	0	0	22257	20830	159576	27142	1055980	46360	108184	0	0	8229	543370	0	0
2024-10-03 16:08:47			0	38524	0	0	0	22257	20830	159400	27303	1055953	46360	108184	0	0	8230	542551	0	0
2024-10-03 16:09:47			0	38534	0	0	0	22262	20830	159404	27355	1055953	46349	108186	0	0	8231	542162	0	0
2024-10-03 16:10:47			0	38534	0	0	0	22270	20830	159456	27121	1055953	46349	108189	0	0	8231	542162	0	0
2024-10-03 16:11:47			0	38530	0	0	0	22270	20820	159344	27253	1055997	46359	108189	0	0	8231	542348	0	0
2024-10-03 16:12:47			0	38539	0	0	0	22262	20830	159336	27426	1055980	46360	108186	0	0	8231	541967	0	0
2024-10-03 16:13:47			0	38542	0	0	0	22238	20830	159280	27490	1055953	46349	108177	0	0	8232	541850	0	0
2024-10-03 16:14:47			0	38551	0	0	0	22231	20830	159320	27170	1055953	46328	108174	0	0	8232	541500	0	0
2024-10-03 16:15:47			0	38552	0	0	0	22236	20830	159380	27168	1055847	46328	108176	0	0	8232	541461	0	0
2024-10-03 16:16:47			0	38547	0	0	0	22249	20830	159336	27178	1055980	46338	108181	0	0	8232	541656	0	0
2024-10-03 16:17:47			0	38548	0	0	0	22246	20820	159476	26870	1055918	46337	108180	0	0	8232	541647	0	0
2024-10-03 16:18:47			0	38547	0	0	0	22244	20820	159364	27215	1055864	46359	108179	0	0	8232	541685	0	0
2024-10-03 16:19:47			0	38535	0	0	0	22233	20820	159356	27471	1055891	46348	108175	0	0	8231	542153	0	0
2024-10-03 16:20:47			0	38535	0	0	0	22246	20820	159396	27218	1055891	46348	108180	0	0	8231	542153	0	0
2024-10-03 16:21:47			0	38544	0	0	0	22246	20810	159344	27301	1055864	46336	108180	0	0	8232	541832	0	0
2024-10-03 16:22:47			0	38556	0	0	0	22249	20810	159272	27452	1055864	46347	108181	0	0	8232	541365	0	0
2024-10-03 16:23:47			0	38554	0	0	0	22244	20820	159356	27130	1055909	46358	108179	0	0	8232	541413	0	0
2024-10-03 16:24:47			0	38552	0	0	0	22231	20820	159424	27274	1055864	46348	108174	0	0	8232	541491	0	0
2024-10-03 16:25:47			0	38563	0	0	0	22228	20810	159336	27305	1055900	46347	108173	0	0	8233	541093	0	0
2024-10-03 16:26:47			0	38576	0	0	0	22207	20810	159328	27192	1055864	46336	108165	0	0	8234	540587	0	0
2024-10-03 16:27:47			0	38569	0	0	0	22174	20810	159284	27348	1055784	46326	108152	0	0	8234	540859	0	0
2024-10-03 16:28:47			0	38579	0	0	0	22158	20790	159308	27454	1055695	46312	108146	0	0	8235	540530	0	0
2024-10-03 16:29:47			0	38583	0	0	0	22197	20790	159176	27228	1055695	46324	108161	0	0	8235	540375	0	0
2024-10-03 16:30:47			0	38566	0	0	0	22225	20780	159364	27336	1055686	46333	108172	0	0	8233	541066	0	0
2024-10-03 16:31:47			0	38569	0	0	0	22241	20780	159316	27421	1055713	46344	108178	0	0	8233	540949	0	0
2024-10-03 16:32:47			0	38568	0	0	0	22249	20780	159340	27060	1055731	46343	108181	0	0	8233	540988	0	0
2024-10-03 16:33:47			0	38557	0	0	0	22238	20780	159404	27265	1055793	46344	108177	0	0	8232	541416	0	0
2024-10-03 16:34:47			0	38563	0	0	0	22246	20780	159248	27355	1055784	46354	108180	0	0	8233	541183	0	0
2024-10-03 16:35:47			0	38554	0	0	0	22246	20780	159340	27215	1055819	46333	108180	0	0	8232	541533	0	0
2024-10-03 16:36:47			0	38557	0	0	0	22238	20780	159368	27248	1055864	46354	108177	0	0	8232	541416	0	0
2024-10-03 16:37:47			0	38558	0	0	0	22257	20790	159376	27431	1055828	46334	108184	0	0	8232	541347	0	0
2024-10-03 16:38:47			0	38572	0	0	0	22257	20780	159332	27658	1055793	46355	108184	0	0	8233	540833	0	0
2024-10-03 16:39:47			0	38567	0	0	0	22272	20790	159312	27218	1055837	46367	108190	0	0	8233	540997	0	0
2024-10-03 16:40:47			0	38568	0	0	0	22259	20810	159336	27112	1055891	46369	108185	0	0	8233	540898	0	0
2024-10-03 16:41:47			0	38568	0	0	0	22257	20800	159228	27604	1055882	46368	108184	0	0	8233	540928	0	0
2024-10-03 16:42:47			0	38578	0	0	0	22257	20800	159272	27336	1055882	46357	108184	0	0	8233	540539	0	0
2024-10-03 16:43:47			0	38563	0	0	0	22254	20800	159236	27098	1055899	46356	108183	0	0	8233	541123	0	0
2024-10-03 16:44:47			0	38573	0	0	0	22264	20810	159288	27284	1055864	46336	108187	0	0	8233	540704	0	0
2024-10-03 16:45:47			0	38584	0	0	0	22275	20800	159204	27298	1055882	46368	108191	0	0	8233	540306	0	0
2024-10-03 16:46:47			0	38574	0	0	0	22270	20810	159464	27405	1055944	46358	108189	0	0	8233	540665	0	0
2024-10-03 16:47:47			0	38567	0	0	0	22267	20810	159272	27460	1055900	46358	108188	0	0	8233	540937	0	0
2024-10-03 16:48:47			0	38565	0	0	0	22277	20810	159348	27203	1055891	46369	108192	0	0	8232	541015	0	0
2024-10-03 16:49:47			0	38562	0	0	0	22275	20820	159388	27691	1055935	46347	108191	0	0	8232	541102	0	0
2024-10-03 16:50:47			0	38564	0	0	0	22272	20820	159408	27203	1055882	46369	108190	0	0	8232	541024	0	0
2024-10-03 16:51:47			0	38564	0	0	0	22272	20820	159332	27384	1055962	46358	108190	0	0	8232	541024	0	0
2024-10-03 16:52:47			0	38567	0	0	0	22283	20820	159252	27400	1056024	46359	108194	0	0	8232	540907	0	0
2024-10-03 16:53:47			0	38564	0	0	0	22275	20820	159360	27223	1056051	46359	108191	0	0	8232	541024	0	0
2024-10-03 16:54:47			0	38561	0	0	0	22285	20840	159424	27405	1056016	46361	108195	0	0	8232	541081	0	0
2024-10-03 16:55:47			0	38570	0	0	0	22280	20840	159340	27306	1056051	46350	108193	0	0	8233	540731	0	0
2024-10-03 16:56:47			0	38560	0	0	0	22283	20830	159420	27507	1056033	46338	108194	0	0	8232	541149	0	0
2024-10-03 16:57:47			0	38558	0	0	0	22277	20830	159380	27208	1055953	46360	108192	0	0	8232	541227	0	0
2024-10-03 16:58:47			0	38561	0	0	0	22283	20840	159380	26902	1056016	46339	108194	0	0	8232	541081	0	0
2024-10-03 16:59:47			0	38573	0	0	0	22275	20830	159304	27274	1056033	46349	108191	0	0	8233	540644	0	0
2024-10-03 17:00:47			0	38573	0	0	0	22277	20840	159308	27338	1055971	46361	108192	0	0	8233	540614	0	0
2024-10-03 17:01:47			0	38573	0	0	0	22285	20850	159480	27502	1056007	46350	108195	0	0	8233	540584	0	0
2024-10-03 17:02:47			0	38562	0	0	0	22293	20840	159304	27076	1055998	46350	108198	0	0	8232	541042	0	0
2024-10-03 17:03:47			0	38563	0	0	0	22285	20850	159332	27232	1056113	46361	108195	0	0	8232	540973	0	0
2024-10-03 17:04:47			0	38580	0	0	0	22290	20840	159372	27296	1056051	46372	108197	0	0	8233	540342	0	0
2024-10-03 17:05:47			0	38602	0	0	0	22283	20850	159328	27486	1056069	46362	108194	0	0	8235	539457	0	0
2024-10-03 17:06:47			0	38579	0	0	0	22283	20840	159200	27305	1056025	46350	108194	0	0	8233	540381	0	0
2024-10-03 17:07:47			0	38598	0	0	0	22285	20850	159272	27339	1056096	46330	108195	0	0	8234	539613	0	0
2024-10-03 17:08:47			0	38587	0	0	0	22288	20860	159260	27294	1056078	46352	108196	0	0	8234	540010	0	0
2024-10-03 17:09:47			0	38598	0	0	0	22283	20850	159224	27265	1056033	46361	108194	0	0	8234	539613	0	0
2024-10-03 17:10:47			0	38615	0	0	0	22293	20860	159124	27454	1056078	46352	108198	0	0	8235	538923	0	0
2024-10-03 17:11:47			0	38607	0	0	0	22290	20850	159096	27315	1056069	46362	108197	0	0	8235	539263	0	0
2024-10-03 17:12:47			0	38605	0	0	0	22301	20860	159160	27324	1056131	46363	108201	0	0	8235	539311	0	0
2024-10-03 17:13:47			0	38581	0	0	0	22298	20860	159196	27364	1056158	46363	108200	0	0	8233	540243	0	0
2024-10-03 17:14:47			0	38566	0	0	0	22296	20850	159268	27460	1056149	46374	108199	0	0	8232	540856	0	0
2024-10-03 17:15:47			0	38560	0	0	0	22301	20870	159284	27078	1056149	46352	108201	0	0	8232	541030	0	0
2024-10-03 17:16:47			0	38553	0	0	0	22301	20850	159320	26864	1056069	46362	108201	0	0	8231	541362	0	0
2024-10-03 17:17:47			0	38540	0	0	0	22298	20860	159404	27473	1056105	46352	108200	0	0	8231	541838	0	0
2024-10-03 17:18:47			0	38527	0	0	0	22298	20860	159348	27183	1056105	46352	108200	0	0	8230	542344	0	0
2024-10-03 17:19:47			0	38532	0	0	0	22303	20860	159476	27066	1056167	46352	108202	0	0	8230	542150	0	0
2024-10-03 17:20:47			0	38528	0	0	0	22303	20870	159452	27123	1056122	46363	108202	0	0	8230	542275	0	0
2024-10-03 17:21:47			0	38519	0	0	0	22298	20860	159400	27135	1056114	46375	108200	0	0	8230	542656	0	0
2024-10-03 17:22:47			0	38527	0	0	0	22254	20860	159460	27417	1056051	46352	108183	0	0	8231	542344	0	0
2024-10-03 17:23:47			0	38522	0	0	0	22272	20850	159384	27185	1055980	46317	108190	0	0	8230	542569	0	0
2024-10-03 17:24:47			0	38498	0	0	0	22277	20860	159436	27353	1056078	46341	108192	0	0	8229	543475	0	0
2024-10-03 17:25:47			0	38523	0	0	0	22298	20850	159508	27130	1056060	46339	108200	0	0	8230	542530	0	0
2024-10-03 17:26:47			0	38517	0	0	0	22290	20840	159468	27272	1056051	46350	108197	0	0	8230	542794	0	0
2024-10-03 17:27:47			0	38496	0	0	0	22301	20840	159580	27100	1056104	46339	108201	0	0	8228	543613	0	0
2024-10-03 17:28:47			0	38502	0	0	0	22306	20840	159564	27182	1056051	46372	108203	0	0	8228	543379	0	0
2024-10-03 17:29:47			0	38482	0	0	0	22301	20850	159576	27255	1056069	46362	108201	0	0	8227	544129	0	0
2024-10-03 17:30:47			0	38490	0	0	0	22285	20850	159604	27072	1056149	46362	108195	0	0	8228	543817	0	0
2024-10-03 17:31:47			0	38481	0	0	0	22288	20870	159600	27312	1056069	46341	108196	0	0	8228	544108	0	0
2024-10-03 17:32:47			0	38462	0	0	0	22290	20850	159660	27149	1056096	46362	108197	0	0	8226	544910	0	0
2024-10-03 17:33:47			0	38488	0	0	0	22288	20860	159544	26958	1056051	46352	108196	0	0	8228	543865	0	0
2024-10-03 17:34:47			0	38472	0	0	0	22301	20850	159572	27150	1056087	46350	108201	0	0	8227	544520	0	0
2024-10-03 17:35:47			0	38458	0	0	0	22303	20860	159652	27118	1056034	46363	108202	0	0	8226	545037	0	0
2024-10-03 17:36:47			0	38469	0	0	0	22298	20850	159760	27206	1056069	46362	108200	0	0	8227	544637	0	0
2024-10-03 17:37:47			0	38461	0	0	0	22290	20860	159636	27426	1056105	46352	108197	0	0	8226	544919	0	0
2024-10-03 17:38:47			0	38471	0	0	0	22293	20850	159632	27327	1056149	46340	108198	0	0	8227	544559	0	0
2024-10-03 17:39:47			0	38461	0	0	0	22283	20840	159696	27190	1056104	46350	108194	0	0	8226	544980	0	0
2024-10-03 17:40:47			0	38443	0	0	0	22306	20850	159676	27017	1056069	46340	108203	0	0	8225	545653	0	0
2024-10-03 17:41:47			0	38457	0	0	0	22303	20850	159720	27315	1056113	46339	108202	0	0	8226	545106	0	0
2024-10-03 17:42:47			0	38458	0	0	0	22306	20860	159880	27294	1056158	46363	108203	0	0	8226	545037	0	0
2024-10-03 17:43:47			0	38445	0	0	0	22311	20850	159732	27045	1056122	46362	108205	0	0	8225	545575	0	0
2024-10-03 17:44:47			0	38447	0	0	0	22314	20850	159860	27124	1056202	46374	108206	0	0	8225	545497	0	0
2024-10-03 17:45:47			0	38447	0	0	0	22319	20860	159740	27229	1056167	46363	108208	0	0	8225	545467	0	0
2024-10-03 17:46:47			0	38433	0	0	0	22322	20870	159716	27109	1056229	46363	108209	0	0	8224	545984	0	0
2024-10-03 17:47:47			0	38434	0	0	0	22309	20870	159760	27121	1056149	46375	108204	0	0	8224	545945	0	0
2024-10-03 17:48:47			0	38438	0	0	0	22309	20870	159680	27003	1056238	46364	108204	0	0	8225	545788	0	0
2024-10-03 17:49:47			0	38451	0	0	0	22238	20860	159640	27163	1056060	46331	108177	0	0	8227	545310	0	0
2024-10-03 17:50:47			0	38420	0	0	0	22290	20860	159668	26906	1056114	46331	108197	0	0	8224	546523	0	0
2024-10-03 17:51:47			0	38418	0	0	0	22293	20850	159776	27377	1056033	46329	108198	0	0	8224	546631	0	0
2024-10-03 17:52:47			0	38423	0	0	0	22314	20860	159772	27353	1056025	46352	108206	0	0	8224	546405	0	0
2024-10-03 17:53:47			0	38412	0	0	0	22309	20850	159836	27064	1056096	46330	108204	0	0	8223	546866	0	0
2024-10-03 17:54:47			0	38412	0	0	0	22316	20840	159864	27329	1056104	46361	108207	0	0	8223	546897	0	0
2024-10-03 17:55:47			0	38405	0	0	0	22316	20850	159936	27223	1056149	46362	108207	0	0	8223	547141	0	0
2024-10-03 17:56:47			0	38405	0	0	0	22322	20860	159944	27441	1056184	46375	108209	0	0	8223	547110	0	0
2024-10-03 17:57:47			0	38400	0	0	0	22327	20860	159952	27192	1056167	46375	108211	0	0	8222	547306	0	0
2024-10-03 17:58:47			0	38393	0	0	0	22324	20870	159916	27178	1056149	46363	108210	0	0	8222	547550	0	0
2024-10-03 17:59:47			0	38393	0	0	0	22327	20870	159968	27192	1056238	46364	108211	0	0	8222	547550	0	0
2024-10-03 18:00:47			0	38393	0	0	0	22324	20880	159924	27092	1056194	46375	108210	0	0	8222	547520	0	0
2024-10-03 18:01:47			0	38396	0	0	0	22327	20880	159944	27267	1056167	46375	108211	0	0	8222	547402	0	0
2024-10-03 18:02:47			0	38369	0	0	0	22327	20880	159964	27196	1056256	46365	108211	0	0	8220	548461	0	0
2024-10-03 18:03:47			0	38386	0	0	0	22329	20880	159904	27093	1056229	46375	108212	0	0	8221	547794	0	0
2024-10-03 18:04:47			0	38407	0	0	0	22322	20890	159912	27459	1056265	46365	108209	0	0	8223	546941	0	0
2024-10-03 18:05:47			0	38411	0	0	0	22316	20880	159784	27405	1056282	46365	108207	0	0	8223	546815	0	0
2024-10-03 18:06:47			0	38411	0	0	0	22327	20890	159884	27248	1056265	46354	108211	0	0	8223	546784	0	0
2024-10-03 18:07:47			0	38411	0	0	0	22324	20890	159836	27254	1056300	46366	108210	0	0	8223	546784	0	0
2024-10-03 18:08:47			0	38415	0	0	0	22322	20900	159848	27258	1056283	46367	108209	0	0	8223	546597	0	0
2024-10-03 18:09:47			0	38435	0	0	0	22319	20890	159840	27246	1056265	46365	108208	0	0	8224	545845	0	0
2024-10-03 18:10:47			0	38429	0	0	0	22316	20890	159780	27183	1056345	46365	108207	0	0	8224	546080	0	0
2024-10-03 18:11:47			0	38442	0	0	0	22324	20890	159796	27071	1056265	46375	108210	0	0	8225	545571	0	0
2024-10-03 18:12:47			0	38460	0	0	0	22316	20900	159620	27062	1056292	46368	108207	0	0	8226	544838	0	0
2024-10-03 18:13:47			0	38469	0	0	0	22316	20900	159628	27007	1056292	46368	108207	0	0	8227	544486	0	0
2024-10-03 18:14:47			0	38464	0	0	0	22322	20900	159600	27159	1056283	46356	108209	0	0	8226	544681	0	0
2024-10-03 18:15:47			0	38469	0	0	0	22329	20890	159620	27339	1056353	46355	108212	0	0	8226	544516	0	0
2024-10-03 18:16:47			0	38479	0	0	0	22322	20900	159612	27595	1056336	46356	108209	0	0	8227	544096	0	0
2024-10-03 18:17:47			0	38464	0	0	0	22319	20890	159564	27076	1056274	46344	108208	0	0	8226	544712	0	0
2024-10-03 18:18:47			0	38480	0	0	0	22329	20890	159596	27249	1056247	46366	108212	0	0	8227	544087	0	0
2024-10-03 18:19:47			0	38466	0	0	0	22329	20890	159488	27260	1056300	46377	108212	0	0	8226	544634	0	0
2024-10-03 18:20:47			0	38502	0	0	0	22327	20900	159376	27284	1056265	46357	108211	0	0	8228	543199	0	0
2024-10-03 18:21:47			0	38501	0	0	0	22322	20900	159448	27147	1056309	46378	108209	0	0	8228	543237	0	0
2024-10-03 18:22:47			0	38495	0	0	0	22319	20890	159336	27112	1056353	46344	108208	0	0	8228	543502	0	0
2024-10-03 18:23:47			0	38502	0	0	0	22319	20900	159496	27026	1056336	46345	108208	0	0	8228	543199	0	0
2024-10-03 18:24:47			0	38491	0	0	0	22324	20900	159380	26986	1056336	46345	108210	0	0	8228	543627	0	0
2024-10-03 18:25:47			0	38490	0	0	0	22319	20900	159316	26778	1056345	46368	108208	0	0	8228	543667	0	0
2024-10-03 18:26:47			0	38512	0	0	0	22314	20900	159432	27409	1056345	46357	108206	0	0	8229	542809	0	0
2024-10-03 18:27:47			0	38497	0	0	0	22327	20900	159300	27232	1056292	46357	108211	0	0	8228	543393	0	0
2024-10-03 18:28:47			0	38510	0	0	0	22329	20900	159272	26986	1056265	46346	108212	0	0	8229	542887	0	0
2024-10-03 18:29:47			0	38510	0	0	0	22322	20900	159308	27261	1056283	46378	108209	0	0	8229	542887	0	0
2024-10-03 18:30:47			0	38526	0	0	0	22322	20900	159292	27360	1056265	46368	108209	0	0	8230	542263	0	0
2024-10-03 18:31:47			0	38512	0	0	0	22316	20900	159168	27241	1056318	46379	108207	0	0	8229	542809	0	0
2024-10-03 18:32:47			0	38520	0	0	0	22314	20900	159264	27029	1056362	46367	108206	0	0	8230	542497	0	0
2024-10-03 18:33:47			0	38520	0	0	0	22322	20890	159252	27034	1056407	46333	108209	0	0	8229	542527	0	0
2024-10-03 18:34:47			0	38528	0	0	0	22316	20890	159256	26998	1056327	46366	108207	0	0	8230	542215	0	0
2024-10-03 18:35:47			0	38530	0	0	0	22319	20900	159316	27403	1056336	46367	108208	0	0	8230	542107	0	0
2024-10-03 18:36:47			0	38528	0	0	0	22316	20900	159164	27041	1056362	46356	108207	0	0	8230	542185	0	0
2024-10-03 18:37:47			0	38526	0	0	0	22301	20890	159324	27327	1056211	46354	108201	0	0	8230	542293	0	0
2024-10-03 18:38:47			0	38501	0	0	0	22319	20890	159308	27057	1056274	46344	108208	0	0	8228	543268	0	0
2024-10-03 18:39:47			0	38530	0	0	0	22319	20890	159408	27230	1056318	46365	108208	0	0	8230	542137	0	0
2024-10-03 18:40:47			0	38516	0	0	0	22316	20890	159312	27171	1056247	46355	108207	0	0	8229	542683	0	0
2024-10-03 18:41:47			0	38515	0	0	0	22311	20890	159172	27088	1056265	46354	108205	0	0	8229	542722	0	0
2024-10-03 18:42:47			0	38505	0	0	0	22322	20900	159404	27241	1056283	46345	108209	0	0	8229	543081	0	0
2024-10-03 18:43:47			0	38494	0	0	0	22327	20890	159388	27192	1056274	46333	108211	0	0	8228	543541	0	0
2024-10-03 18:44:47			0	38515	0	0	0	22309	20890	159288	26984	1056300	46388	108204	0	0	8229	542722	0	0
2024-10-03 18:45:47			0	38519	0	0	0	22309	20890	159332	26942	1056274	46344	108204	0	0	8230	542566	0	0
2024-10-03 18:46:47			0	38512	0	0	0	22298	20880	159364	27057	1056229	46343	108200	0	0	8229	542869	0	0
2024-10-03 18:47:47			0	38507	0	0	0	22306	20880	159372	27053	1056203	46333	108203	0	0	8229	543064	0	0
2024-10-03 18:48:47			0	38504	0	0	0	22311	20880	159472	26982	1056220	46354	108205	0	0	8229	543181	0	0
2024-10-03 18:49:47			0	38493	0	0	0	22306	20880	159364	26889	1056220	46365	108203	0	0	8228	543610	0	0
2024-10-03 18:50:47			0	38500	0	0	0	22311	20880	159368	27178	1056220	46354	108205	0	0	8228	543337	0	0
2024-10-03 18:51:47			0	38511	0	0	0	22319	20880	159332	27163	1056220	46365	108208	0	0	8229	542908	0	0
2024-10-03 18:52:47			0	38502	0	0	0	22309	20880	159328	27431	1056282	46354	108204	0	0	8228	543259	0	0
2024-10-03 18:53:47			0	38513	0	0	0	22319	20890	159200	27455	1056291	46365	108208	0	0	8229	542800	0	0
2024-10-03 18:54:47			0	38520	0	0	0	22314	20880	159292	27315	1056247	46365	108206	0	0	8229	542557	0	0
2024-10-03 18:55:47			0	38513	0	0	0	22316	20880	159260	27492	1056282	46343	108207	0	0	8229	542830	0	0
2024-10-03 18:56:47			0	38545	0	0	0	22314	20880	159308	27428	1056256	46354	108206	0	0	8231	541583	0	0
2024-10-03 18:57:47			0	38550	0	0	0	22319	20880	159184	27265	1056229	46365	108208	0	0	8231	541389	0	0
2024-10-03 18:58:47			0	38548	0	0	0	22319	20880	159184	27332	1056273	46354	108208	0	0	8231	541467	0	0
2024-10-03 18:59:47			0	38534	0	0	0	22322	20880	159172	27592	1056220	46354	108209	0	0	8230	542012	0	0
2024-10-03 19:00:47			0	38567	0	0	0	22311	20880	159152	27552	1056282	46365	108205	0	0	8232	540727	0	0
2024-10-03 19:01:47			0	38537	0	0	0	22311	20880	159184	27062	1056282	46354	108205	0	0	8231	541895	0	0
2024-10-03 19:02:47			0	38549	0	0	0	22311	20890	159196	27390	1056265	46354	108205	0	0	8231	541398	0	0
2024-10-03 19:03:47			0	38544	0	0	0	22301	20890	159240	27464	1056274	46355	108201	0	0	8231	541592	0	0
2024-10-03 19:04:47			0	38549	0	0	0	22311	20880	159140	27405	1056229	46365	108205	0	0	8231	541428	0	0
2024-10-03 19:05:47			0	38541	0	0	0	22311	20880	159164	27065	1056220	46343	108205	0	0	8231	541739	0	0
2024-10-03 19:06:47			0	38539	0	0	0	22314	20890	159344	27218	1056318	46375	108206	0	0	8231	541787	0	0
2024-10-03 19:07:47			0	38547	0	0	0	22311	20890	159212	27192	1056211	46354	108205	0	0	8231	541476	0	0
2024-10-03 19:08:47			0	38535	0	0	0	22301	20880	159224	27305	1056203	46365	108201	0	0	8231	541973	0	0
2024-10-03 19:09:47			0	38553	0	0	0	22306	20880	159212	27287	1056282	46354	108203	0	0	8232	541272	0	0
2024-10-03 19:10:47			0	38539	0	0	0	22275	20880	159272	27440	1056309	46354	108191	0	0	8231	541817	0	0
2024-10-03 19:11:47			0	38533	0	0	0	22267	20880	159172	27279	1056194	46343	108188	0	0	8231	542051	0	0
2024-10-03 19:12:47			0	38549	0	0	0	22236	20860	159176	27291	1056087	46331	108176	0	0	8232	541488	0	0
2024-10-03 19:13:47			0	38531	0	0	0	22272	20860	159264	27284	1056087	46308	108190	0	0	8231	542189	0	0
2024-10-03 19:14:47			0	38539	0	0	0	22277	20850	159156	27145	1056042	46351	108192	0	0	8231	541907	0	0
2024-10-03 19:15:47			0	38525	0	0	0	22288	20850	159296	27294	1056096	46351	108196	0	0	8230	542452	0	0
2024-10-03 19:16:47			0	38539	0	0	0	22277	20850	159184	27130	1056149	46362	108192	0	0	8231	541907	0	0
2024-10-03 19:17:47			0	38539	0	0	0	22259	20850	159168	27317	1056096	46340	108185	0	0	8231	541907	0	0
2024-10-03 19:18:47			0	38555	0	0	0	22244	20850	159128	27041	1056042	46330	108179	0	0	8233	541284	0	0
2024-10-03 19:19:47			0	38547	0	0	0	22254	20850	159196	27107	1055980	46339	108183	0	0	8232	541595	0	0
2024-10-03 19:20:47			0	38548	0	0	0	22259	20830	159176	27246	1056033	46338	108185	0	0	8232	541617	0	0
2024-10-03 19:21:47			0	38541	0	0	0	22254	20840	159200	27112	1055962	46339	108183	0	0	8232	541859	0	0
2024-10-03 19:22:47			0	38542	0	0	0	22231	20830	159144	27199	1055980	46349	108174	0	0	8232	541850	0	0
2024-10-03 19:23:47			0	38553	0	0	0	22181	20820	159156	27396	1055935	46336	108155	0	0	8233	541452	0	0
2024-10-03 19:24:47			0	38554	0	0	0	22238	20820	159308	27364	1055918	46327	108177	0	0	8232	541413	0	0
2024-10-03 19:25:47			0	38534	0	0	0	22212	20820	159260	27364	1055918	46327	108167	0	0	8232	542192	0	0
2024-10-03 19:26:47			0	38534	0	0	0	22207	20820	159184	27298	1055882	46336	108165	0	0	8232	542192	0	0
2024-10-03 19:27:47			0	38543	0	0	0	22205	20810	159348	27086	1055917	46347	108164	0	0	8232	541871	0	0
2024-10-03 19:28:47			0	38506	0	0	0	22231	20800	159316	27364	1055855	46335	108174	0	0	8230	543343	0	0
2024-10-03 19:29:47			0	38504	0	0	0	22210	20800	159316	27137	1055846	46334	108166	0	0	8230	543421	0	0
2024-10-03 19:30:47			0	38522	0	0	0	22215	20800	159260	26897	1055908	46335	108168	0	0	8231	542720	0	0
2024-10-03 19:31:47			0	38499	0	0	0	22218	20800	159408	27039	1055829	46346	108169	0	0	8230	543617	0	0
2024-10-03 19:32:47			0	38489	0	0	0	22210	20800	159460	27078	1055846	46345	108166	0	0	8229	544007	0	0
2024-10-03 19:33:47			0	38487	0	0	0	22192	20790	159484	27180	1055775	46334	108159	0	0	8229	544115	0	0
2024-10-03 19:34:47			0	38496	0	0	0	22210	20780	159612	27270	1055819	46344	108166	0	0	8229	543794	0	0
2024-10-03 19:35:47			0	38496	0	0	0	22186	20790	159620	27443	1055864	46324	108157	0	0	8230	543764	0	0
2024-10-03 19:36:47			0	38469	0	0	0	22197	20790	159512	27222	1055828	46324	108161	0	0	8228	544818	0	0
2024-10-03 19:37:47			0	38470	0	0	0	22194	20780	159504	26918	1055810	46343	108160	0	0	8228	544809	0	0
2024-10-03 19:38:47			0	38462	0	0	0	22184	20780	159588	27251	1055740	46344	108156	0	0	8228	545122	0	0
2024-10-03 19:39:47			0	38457	0	0	0	22192	20780	159564	27235	1055784	46343	108159	0	0	8227	545317	0	0
2024-10-03 19:40:47			0	38460	0	0	0	22210	20780	159680	26866	1055784	46343	108166	0	0	8227	545200	0	0
2024-10-03 19:41:47			0	38451	0	0	0	22174	20780	159664	27228	1055784	46333	108152	0	0	8227	545552	0	0
2024-10-03 19:42:47			0	38471	0	0	0	22181	20780	159620	27031	1055757	46343	108155	0	0	8228	544770	0	0
2024-10-03 19:43:47			0	38460	0	0	0	22158	20770	159576	26987	1055695	46333	108146	0	0	8228	545230	0	0
2024-10-03 19:44:47			0	38449	0	0	0	22161	20760	159712	27000	1055677	46353	108147	0	0	8227	545690	0	0
2024-10-03 19:45:47			0	38447	0	0	0	22189	20750	159732	27090	1055686	46352	108158	0	0	8227	545799	0	0
2024-10-03 19:46:47			0	38445	0	0	0	22186	20750	159796	27078	1055659	46341	108157	0	0	8227	545877	0	0
2024-10-03 19:47:47			0	38431	0	0	0	22163	20760	159660	27000	1055721	46320	108148	0	0	8226	546395	0	0
2024-10-03 19:48:47			0	38453	0	0	0	22161	20750	159712	27138	1055659	46331	108147	0	0	8228	545564	0	0
2024-10-03 19:49:47			0	38430	0	0	0	22166	20750	159700	27177	1055659	46341	108149	0	0	8226	546464	0	0
2024-10-03 19:50:47			0	38422	0	0	0	22184	20750	159856	27012	1055606	46331	108156	0	0	8225	546778	0	0
2024-10-03 19:51:47			0	38424	0	0	0	22197	20740	159872	27244	1055641	46340	108161	0	0	8225	546729	0	0
2024-10-03 19:52:47			0	38419	0	0	0	22197	20750	159752	27180	1055686	46331	108161	0	0	8225	546895	0	0
2024-10-03 19:53:47			0	38439	0	0	0	22197	20750	159820	27268	1055686	46341	108161	0	0	8226	546112	0	0
2024-10-03 19:54:47			0	38430	0	0	0	22197	20750	159796	27260	1055704	46330	108161	0	0	8226	546464	0	0
2024-10-03 19:55:47			0	38420	0	0	0	22210	20760	159832	27450	1055775	46341	108166	0	0	8225	546826	0	0
2024-10-03 19:56:47			0	38437	0	0	0	22210	20760	159760	27429	1055695	46363	108166	0	0	8226	546160	0	0
2024-10-03 19:57:47			0	38439	0	0	0	22207	20760	159764	27320	1055784	46342	108165	0	0	8226	546082	0	0
2024-10-03 19:58:47			0	38426	0	0	0	22202	20770	159764	27253	1055713	46343	108163	0	0	8225	546560	0	0
2024-10-03 19:59:47			0	38434	0	0	0	22166	20760	159756	26901	1055721	46341	108149	0	0	8226	546277	0	0
2024-10-03 20:00:47			0	38443	0	0	0	22168	20760	159704	27121	1055775	46363	108150	0	0	8227	545925	0	0
2024-10-03 20:01:47			0	38437	0	0	0	22158	20750	159780	26831	1055686	46320	108146	0	0	8227	546190	0	0
2024-10-03 20:02:47			0	38439	0	0	0	22158	20750	159804	26767	1055606	46341	108146	0	0	8227	546112	0	0
2024-10-03 20:03:47			0	38434	0	0	0	22168	20750	159832	26967	1055677	46351	108150	0	0	8226	546308	0	0
2024-10-03 20:04:47			0	38436	0	0	0	22184	20750	159720	26890	1055624	46330	108156	0	0	8226	546229	0	0
2024-10-03 20:05:47			0	38424	0	0	0	22181	20750	159888	26932	1055650	46340	108155	0	0	8226	546699	0	0
2024-10-03 20:06:47			0	38421	0	0	0	22184	20750	159780	26958	1055650	46330	108156	0	0	8225	546817	0	0
2024-10-03 20:07:47			0	38431	0	0	0	22166	20750	159856	26972	1055659	46331	108149	0	0	8226	546425	0	0
2024-10-03 20:08:47			0	38444	0	0	0	22153	20750	159824	26998	1055624	46340	108144	0	0	8227	545916	0	0
2024-10-03 20:09:47			0	38432	0	0	0	22161	20740	159800	27358	1055588	46330	108147	0	0	8226	546416	0	0
2024-10-03 20:10:47			0	38435	0	0	0	22174	20750	159808	27211	1055650	46330	108152	0	0	8226	546268	0	0
2024-10-03 20:11:47			0	38431	0	0	0	22179	20740	159760	27535	1055641	46351	108154	0	0	8226	546455	0	0
2024-10-03 20:12:47			0	38439	0	0	0	22184	20740	159736	27319	1055535	46351	108156	0	0	8226	546142	0	0
2024-10-03 20:13:47			0	38439	0	0	0	22179	20750	159744	26911	1055597	46330	108154	0	0	8226	546112	0	0
2024-10-03 20:14:47			0	38458	0	0	0	22192	20750	159688	27448	1055650	46330	108159	0	0	8227	545369	0	0
2024-10-03 20:15:47			0	38448	0	0	0	22176	20750	159680	27235	1055624	46330	108153	0	0	8227	545760	0	0
2024-10-03 20:16:47			0	38456	0	0	0	22168	20760	159728	26965	1055642	46341	108150	0	0	8228	545417	0	0
2024-10-03 20:17:47			0	38442	0	0	0	22176	20740	159640	27104	1055668	46351	108153	0	0	8227	546025	0	0
2024-10-03 20:18:47			0	38440	0	0	0	22168	20750	159780	27107	1055624	46340	108150	0	0	8227	546073	0	0
2024-10-03 20:19:47			0	38456	0	0	0	22161	20740	159712	27403	1055588	46340	108147	0	0	8228	545477	0	0
2024-10-03 20:20:47			0	38438	0	0	0	22186	20740	159704	27095	1055606	46339	108157	0	0	8226	546181	0	0
2024-10-03 20:21:47			0	38444	0	0	0	22129	20750	159660	27248	1055659	46341	108135	0	0	8228	545916	0	0
2024-10-03 20:22:47			0	38449	0	0	0	22135	20740	159672	27154	1055508	46319	108137	0	0	8228	545751	0	0
2024-10-03 20:23:47			0	38421	0	0	0	22101	20740	159680	27213	1055499	46317	108124	0	0	8227	546847	0	0
2024-10-03 20:24:47			0	38413	0	0	0	22103	20730	159708	27230	1055508	46328	108125	0	0	8226	547191	0	0
2024-10-03 20:25:47			0	38412	0	0	0	22101	20720	159880	27116	1055446	46316	108124	0	0	8226	547260	0	0
2024-10-03 20:26:47			0	38386	0	0	0	22119	20730	159884	27055	1055482	46328	108131	0	0	8224	548249	0	0
2024-10-03 20:27:47			0	38391	0	0	0	22124	20730	160048	27149	1055482	46328	108133	0	0	8224	548053	0	0
2024-10-03 20:28:47			0	38402	0	0	0	22116	20710	159936	27150	1055428	46336	108130	0	0	8225	547682	0	0
2024-10-03 20:29:47			0	38397	0	0	0	22116	20720	159996	27334	1055437	46348	108130	0	0	8225	547848	0	0
2024-10-03 20:30:47			0	38387	0	0	0	22109	20710	160008	27053	1055428	46326	108127	0	0	8224	548271	0	0
2024-10-03 20:31:47			0	38382	0	0	0	22116	20710	160000	27026	1055455	46326	108130	0	0	8224	548467	0	0
2024-10-03 20:32:47			0	38391	0	0	0	22116	20710	160016	27131	1055455	46347	108130	0	0	8225	548114	0	0
2024-10-03 20:33:47			0	38399	0	0	0	22124	20710	160008	27244	1055455	46326	108133	0	0	8225	547800	0	0
2024-10-03 20:34:47			0	38387	0	0	0	22124	20700	159984	27279	1055454	46325	108133	0	0	8224	548301	0	0
2024-10-03 20:35:47			0	38389	0	0	0	22103	20710	159908	27090	1055419	46314	108125	0	0	8225	548192	0	0
2024-10-03 20:36:47			0	38391	0	0	0	22109	20700	159992	27416	1055454	46313	108127	0	0	8225	548144	0	0
2024-10-03 20:37:47			0	38399	0	0	0	22114	20700	160020	27156	1055357	46326	108129	0	0	8225	547830	0	0
2024-10-03 20:38:47			0	38394	0	0	0	22119	20700	160032	27360	1055437	46326	108131	0	0	8225	548026	0	0
2024-10-03 20:39:47			0	38401	0	0	0	22132	20700	160116	27289	1055410	46314	108136	0	0	8225	547752	0	0
2024-10-03 20:40:47			0	38408	0	0	0	22127	20710	159888	26982	1055445	46336	108134	0	0	8225	547447	0	0
2024-10-03 20:41:47			0	38421	0	0	0	22150	20700	159840	27338	1055437	46326	108143	0	0	8226	546968	0	0
2024-10-03 20:42:47			0	38413	0	0	0	22140	20710	159912	27343	1055499	46347	108139	0	0	8225	547251	0	0
2024-10-03 20:43:47			0	38430	0	0	0	22150	20710	159836	27414	1055525	46336	108143	0	0	8226	546585	0	0
2024-10-03 20:44:47			0	38424	0	0	0	22132	20710	159912	27448	1055481	46336	108136	0	0	8226	546820	0	0
2024-10-03 20:45:47			0	38433	0	0	0	22129	20710	159828	27467	1055419	46326	108135	0	0	8227	546468	0	0
2024-10-03 20:46:47			0	38421	0	0	0	22116	20710	159816	27114	1055366	46326	108130	0	0	8226	546938	0	0
2024-10-03 20:47:47			0	38413	0	0	0	22114	20700	159932	27154	1055463	46314	108129	0	0	8226	547282	0	0
2024-10-03 20:48:47			0	38425	0	0	0	22137	20700	159948	26991	1055437	46347	108138	0	0	8226	546811	0	0
2024-10-03 20:49:47			0	38403	0	0	0	22140	20700	159852	27322	1055410	46347	108139	0	0	8225	547674	0	0
2024-10-03 20:50:47			0	38426	0	0	0	22150	20710	159924	27433	1055455	46347	108143	0	0	8226	546742	0	0
2024-10-03 20:51:47			0	38413	0	0	0	22127	20720	159900	27043	1055490	46348	108134	0	0	8226	547221	0	0
2024-10-03 20:52:47			0	38430	0	0	0	22098	20710	159836	27251	1055419	46347	108123	0	0	8227	546585	0	0
2024-10-03 20:53:47			0	38418	0	0	0	22093	20700	159824	26942	1055410	46336	108121	0	0	8226	547086	0	0
2024-10-03 20:54:47			0	38406	0	0	0	22109	20700	159952	27684	1055357	46314	108127	0	0	8225	547556	0	0
2024-10-03 20:55:47			0	38431	0	0	0	22127	20700	159900	27260	1055374	46325	108134	0	0	8227	546576	0	0
2024-10-03 20:56:47			0	38412	0	0	0	22142	20700	159972	27261	1055454	46346	108140	0	0	8225	547321	0	0
2024-10-03 20:57:47			0	38427	0	0	0	22145	20710	159948	27173	1055392	46336	108141	0	0	8226	546703	0	0
2024-10-03 20:58:47			0	38423	0	0	0	22158	20700	159960	27203	1055543	46314	108146	0	0	8226	546890	0	0
2024-10-03 20:59:47			0	38410	0	0	0	22161	20710	159952	27081	1055525	46347	108147	0	0	8225	547369	0	0
2024-10-03 21:00:47			0	38440	0	0	0	22148	20710	159952	27346	1055499	46347	108142	0	0	8227	546194	0	0
2024-10-03 21:01:47			0	38421	0	0	0	22142	20710	159936	27443	1055525	46358	108140	0	0	8226	546938	0	0
2024-10-03 21:02:47			0	38427	0	0	0	22148	20710	159840	27339	1055561	46347	108142	0	0	8226	546703	0	0
2024-10-03 21:03:47			0	38430	0	0	0	22145	20720	159860	27365	1055544	46327	108141	0	0	8226	546555	0	0
2024-10-03 21:04:47			0	38431	0	0	0	22140	20720	159904	27369	1055544	46337	108139	0	0	8227	546516	0	0
2024-10-03 21:05:47			0	38408	0	0	0	22129	20710	159864	27116	1055525	46326	108135	0	0	8225	547447	0	0
2024-10-03 21:06:47			0	38417	0	0	0	22142	20720	160024	27170	1055490	46348	108140	0	0	8226	547064	0	0
2024-10-03 21:07:47			0	38411	0	0	0	22135	20710	160004	26991	1055481	46336	108137	0	0	8225	547330	0	0
2024-10-03 21:08:47			0	38403	0	0	0	22132	20720	159940	27085	1055499	46349	108136	0	0	8225	547613	0	0
2024-10-03 21:09:47			0	38387	0	0	0	22135	20720	159960	27441	1055490	46348	108137	0	0	8224	548240	0	0
2024-10-03 21:10:47			0	38398	0	0	0	22140	20720	159932	27059	1055490	46327	108139	0	0	8225	547809	0	0
2024-10-03 21:11:47			0	38388	0	0	0	22145	20710	159920	27142	1055455	46314	108141	0	0	8224	548231	0	0
2024-10-03 21:12:47			0	38398	0	0	0	22158	20710	160104	27383	1055508	46336	108146	0	0	8224	547839	0	0
2024-10-03 21:13:47			0	38399	0	0	0	22140	20720	160016	27326	1055517	46348	108139	0	0	8225	547770	0	0
2024-10-03 21:14:47			0	38372	0	0	0	22127	20710	160016	27107	1055499	46347	108134	0	0	8223	548859	0	0
2024-10-03 21:15:47			0	38393	0	0	0	22142	20710	160004	27085	1055481	46336	108140	0	0	8224	548035	0	0
2024-10-03 21:16:47			0	38386	0	0	0	22153	20720	159992	27367	1055464	46337	108144	0	0	8224	548280	0	0
2024-10-03 21:17:47			0	38384	0	0	0	22153	20710	160028	27244	1055508	46326	108144	0	0	8223	548388	0	0
2024-10-03 21:18:47			0	38367	0	0	0	22153	20720	160088	27209	1055517	46337	108144	0	0	8223	549025	0	0
2024-10-03 21:19:47			0	38391	0	0	0	22176	20720	160144	27145	1055552	46349	108153	0	0	8224	548083	0	0
2024-10-03 21:20:47			0	38390	0	0	0	22197	20720	160068	27019	1055570	46348	108161	0	0	8223	548123	0	0
2024-10-03 21:21:47			0	38380	0	0	0	22218	20720	160172	27237	1055632	46338	108169	0	0	8222	548515	0	0
2024-10-03 21:22:47			0	38387	0	0	0	22220	20730	160172	27066	1055615	46349	108170	0	0	8223	548210	0	0
2024-10-03 21:23:47			0	38380	0	0	0	22241	20730	160188	27286	1055668	46360	108178	0	0	8222	548485	0	0
2024-10-03 21:24:47			0	38380	0	0	0	22259	20730	160152	27041	1055730	46373	108185	0	0	8222	548485	0	0
2024-10-03 21:25:47			0	38387	0	0	0	22218	20740	159996	27053	1055739	46361	108169	0	0	8223	548180	0	0
2024-10-03 21:26:47			0	38393	0	0	0	22218	20750	160044	27083	1055730	46351	108169	0	0	8223	547914	0	0
2024-10-03 21:27:47			0	38393	0	0	0	22220	20750	160016	27248	1055783	46351	108170	0	0	8223	547914	0	0
2024-10-03 21:28:47			0	38409	0	0	0	22205	20750	160012	27083	1055704	46351	108164	0	0	8224	547287	0	0
2024-10-03 21:29:47			0	38403	0	0	0	22166	20750	159976	27196	1055766	46331	108149	0	0	8225	547522	0	0
2024-10-03 21:30:47			0	38394	0	0	0	22163	20760	159996	27267	1055695	46331	108148	0	0	8224	547844	0	0
2024-10-03 21:31:47			0	38398	0	0	0	22142	20750	160024	27053	1055730	46330	108140	0	0	8225	547718	0	0
2024-10-03 21:32:47			0	38379	0	0	0	22171	20750	160140	27272	1055624	46330	108151	0	0	8223	548463	0	0
2024-10-03 21:33:47			0	38375	0	0	0	22163	20750	160044	27372	1055597	46330	108148	0	0	8223	548620	0	0
2024-10-03 21:34:47			0	38380	0	0	0	22148	20740	159960	27360	1055588	46340	108142	0	0	8223	548454	0	0
2024-10-03 21:35:47			0	38384	0	0	0	22179	20740	160092	26996	1055579	46329	108154	0	0	8223	548297	0	0
2024-10-03 21:36:47			0	38363	0	0	0	22207	20730	159968	27013	1055570	46317	108165	0	0	8221	549152	0	0
2024-10-03 21:37:47			0	38372	0	0	0	22194	20730	160024	26939	1055597	46329	108160	0	0	8222	548799	0	0
2024-10-03 21:38:47			0	38386	0	0	0	22184	20740	159912	27213	1055641	46351	108156	0	0	8223	548219	0	0
2024-10-03 21:39:47			0	38380	0	0	0	22181	20740	160024	27369	1055562	46340	108155	0	0	8223	548454	0	0
2024-10-03 21:40:47			0	38403	0	0	0	22168	20740	159920	26977	1055579	46339	108150	0	0	8224	547552	0	0
2024-10-03 21:41:47			0	38390	0	0	0	22166	20740	160012	27350	1055641	46319	108149	0	0	8224	548062	0	0
2024-10-03 21:42:47			0	38391	0	0	0	22189	20740	159996	27306	1055668	46340	108158	0	0	8223	548023	0	0
2024-10-03 21:43:47			0	38395	0	0	0	22192	20740	160020	27005	1055659	46317	108159	0	0	8224	547866	0	0
2024-10-03 21:44:47			0	38388	0	0	0	22194	20740	160024	27076	1055579	46329	108160	0	0	8223	548140	0	0
2024-10-03 21:45:47			0	38392	0	0	0	22158	20740	160056	26845	1055606	46317	108146	0	0	8224	547984	0	0
2024-10-03 21:46:47			0	38384	0	0	0	22129	20730	160072	26981	1055597	46339	108135	0	0	8224	548328	0	0
2024-10-03 21:47:47			0	38376	0	0	0	22070	20720	159956	27315	1055473	46316	108112	0	0	8224	548672	0	0
2024-10-03 21:48:47			0	38363	0	0	0	22093	20730	160060	27287	1055455	46316	108121	0	0	8223	549152	0	0
2024-10-03 21:49:47			0	38363	0	0	0	22075	20710	160016	27223	1055419	46303	108114	0	0	8224	549213	0	0
2024-10-03 21:50:47			0	38368	0	0	0	22038	20700	160108	27345	1055330	46314	108100	0	0	8224	549047	0	0
2024-10-03 21:51:47			0	38337	0	0	0	22044	20700	160116	27270	1055277	46303	108102	0	0	8223	550265	0	0
2024-10-03 21:52:47			0	38327	0	0	0	22077	20680	160192	27260	1055232	46290	108115	0	0	8221	550719	0	0
2024-10-03 21:53:47			0	38344	0	0	0	22093	20680	160300	27074	1055268	46311	108121	0	0	8222	550051	0	0
2024-10-03 21:54:47			0	38348	0	0	0	22124	20680	160208	26982	1055259	46290	108133	0	0	8222	549893	0	0
2024-10-03 21:55:47			0	38328	0	0	0	22106	20680	160192	27019	1055312	46333	108126	0	0	8221	550680	0	0
2024-10-03 21:56:47			0	38337	0	0	0	22075	20680	160212	27215	1055259	46323	108114	0	0	8222	550326	0	0
2024-10-03 21:57:47			0	38338	0	0	0	22127	20680	160260	27135	1055285	46323	108134	0	0	8221	550287	0	0
2024-10-03 21:58:47			0	38326	0	0	0	22192	20670	160292	27173	1055330	46343	108159	0	0	8219	550789	0	0
2024-10-03 21:59:47			0	38338	0	0	0	22236	20680	160232	27197	1055454	46367	108176	0	0	8219	550287	0	0
2024-10-03 22:00:47			0	38347	0	0	0	22215	20700	160224	26637	1055507	46368	108168	0	0	8220	549872	0	0
2024-10-03 22:01:47			0	38365	0	0	0	22207	20700	160216	27124	1055516	46369	108165	0	0	8221	549165	0	0
2024-10-03 22:02:47			0	38376	0	0	0	22192	20720	160108	27322	1055579	46360	108159	0	0	8222	548672	0	0
2024-10-03 22:03:47			0	38378	0	0	0	22207	20730	160196	27277	1055561	46360	108165	0	0	8222	548563	0	0
2024-10-03 22:04:47			0	38370	0	0	0	22122	20730	160044	26958	1055588	46360	108132	0	0	8223	548877	0	0
2024-10-03 22:05:47			0	38370	0	0	0	22166	20720	160112	27057	1055552	46338	108149	0	0	8222	548908	0	0
2024-10-03 22:06:47			0	38368	0	0	0	22194	20720	160076	27159	1055597	46348	108160	0	0	8222	548986	0	0
2024-10-03 22:07:47			0	38354	0	0	0	22220	20720	160104	27102	1055579	46338	108170	0	0	8221	549536	0	0
2024-10-03 22:08:47			0	38368	0	0	0	22181	20730	160024	26975	1055641	46349	108155	0	0	8222	548956	0	0
2024-10-03 22:09:47			0	38368	0	0	0	22150	20740	160128	27493	1055659	46339	108143	0	0	8223	548925	0	0
2024-10-03 22:10:47			0	38378	0	0	0	22127	20730	160080	26823	1055588	46328	108134	0	0	8224	548563	0	0
2024-10-03 22:11:47			0	38380	0	0	0	22101	20730	159968	27287	1055482	46338	108124	0	0	8224	548485	0	0
2024-10-03 22:12:47			0	38366	0	0	0	22129	20720	159932	26897	1055437	46327	108135	0	0	8223	549064	0	0
2024-10-03 22:13:47			0	38378	0	0	0	22197	20720	160124	26745	1055526	46316	108161	0	0	8222	548594	0	0
2024-10-03 22:14:47			0	38384	0	0	0	22140	20730	160136	27059	1055570	46361	108139	0	0	8224	548328	0	0
2024-10-03 22:15:47			0	38363	0	0	0	22127	20720	160116	27161	1055490	46315	108134	0	0	8223	549182	0	0
2024-10-03 22:16:47			0	38347	0	0	0	22166	20710	160128	27204	1055455	46314	108149	0	0	8221	549841	0	0
2024-10-03 22:17:47			0	38363	0	0	0	22194	20720	160128	27192	1055517	46337	108160	0	0	8222	549182	0	0
2024-10-03 22:18:47			0	38378	0	0	0	22205	20720	160132	26951	1055570	46348	108164	0	0	8222	548594	0	0
2024-10-03 22:19:47			0	38377	0	0	0	22161	20720	160052	27360	1055570	46348	108147	0	0	8223	548633	0	0
2024-10-03 22:20:47			0	38367	0	0	0	22184	20720	160100	26963	1055499	46349	108156	0	0	8222	549025	0	0
2024-10-03 22:21:47			0	38367	0	0	0	22202	20720	160148	27131	1055570	46327	108163	0	0	8222	549025	0	0
2024-10-03 22:22:47			0	38368	0	0	0	22207	20710	160176	26831	1055508	46358	108165	0	0	8222	549016	0	0
2024-10-03 22:23:47			0	38366	0	0	0	22197	20720	160036	27027	1055544	46327	108161	0	0	8222	549064	0	0
2024-10-03 22:24:47			0	38386	0	0	0	22174	20730	159984	27161	1055588	46328	108152	0	0	8223	548249	0	0
2024-10-03 22:25:47			0	38379	0	0	0	22145	20720	160120	26949	1055552	46349	108141	0	0	8223	548554	0	0
2024-10-03 22:26:47			0	38372	0	0	0	22119	20720	160012	27490	1055517	46327	108131	0	0	8223	548829	0	0
2024-10-03 22:27:47			0	38371	0	0	0	22093	20710	159988	27183	1055455	46326	108121	0	0	8224	548899	0	0
2024-10-03 22:28:47			0	38361	0	0	0	22090	20710	160048	26948	1055472	46326	108120	0	0	8223	549291	0	0
2024-10-03 22:29:47			0	38381	0	0	0	22075	20700	160176	27176	1055357	46314	108114	0	0	8225	548537	0	0
2024-10-03 22:30:47			0	38350	0	0	0	22103	20700	160072	27194	1055383	46314	108125	0	0	8222	549754	0	0
2024-10-03 22:31:47			0	38344	0	0	0	22158	20700	160200	27357	1055428	46291	108146	0	0	8221	549990	0	0
2024-10-03 22:32:47			0	38367	0	0	0	22140	20700	160236	26887	1055401	46335	108139	0	0	8223	549086	0	0
2024-10-03 22:33:47			0	38347	0	0	0	22132	20690	160244	26835	1055419	46334	108136	0	0	8222	549902	0	0
2024-10-03 22:34:47			0	38356	0	0	0	22142	20690	160144	26875	1055383	46345	108140	0	0	8222	549549	0	0
2024-10-03 22:35:47			0	38359	0	0	0	22186	20700	160224	27220	1055401	46346	108157	0	0	8221	549400	0	0
2024-10-03 22:36:47			0	38367	0	0	0	22132	20690	160096	27062	1055498	46345	108136	0	0	8223	549116	0	0
2024-10-03 22:37:47			0	38373	0	0	0	22171	20710	160084	27024	1055499	46347	108151	0	0	8223	548820	0	0
2024-10-03 22:38:47			0	38390	0	0	0	22176	20710	160116	27228	1055499	46347	108153	0	0	8223	548153	0	0
2024-10-03 22:39:47			0	38384	0	0	0	22186	20710	160108	26897	1055588	46347	108157	0	0	8223	548388	0	0
2024-10-03 22:40:47			0	38385	0	0	0	22199	20720	160124	27315	1055597	46348	108162	0	0	8223	548319	0	0
2024-10-03 22:41:47			0	38384	0	0	0	22148	20720	160088	27079	1055490	46348	108142	0	0	8224	548358	0	0
2024-10-03 22:42:47			0	38388	0	0	0	22194	20710	160052	26915	1055472	46358	108160	0	0	8223	548231	0	0
2024-10-03 22:43:47			0	38382	0	0	0	22205	20720	160044	27161	1055552	46360	108164	0	0	8223	548436	0	0
2024-10-03 22:44:47			0	38394	0	0	0	22166	20730	160124	26972	1055570	46350	108149	0	0	8224	547935	0	0
2024-10-03 22:45:47			0	38383	0	0	0	22189	20730	160136	27111	1055694	46338	108158	0	0	8223	548367	0	0
2024-10-03 22:46:47			0	38369	0	0	0	22158	20720	160032	27081	1055606	46360	108146	0	0	8223	548947	0	0
2024-10-03 22:47:47			0	38371	0	0	0	22205	20730	160080	27326	1055615	46360	108164	0	0	8222	548838	0	0
2024-10-03 22:48:47			0	38389	0	0	0	22202	20720	160116	27098	1055632	46328	108163	0	0	8223	548162	0	0
2024-10-03 22:49:47			0	38378	0	0	0	22244	20740	160212	27192	1055668	46351	108179	0	0	8222	548533	0	0
2024-10-03 22:50:47			0	38391	0	0	0	22246	20740	160200	27100	1055695	46351	108180	0	0	8222	548023	0	0
2024-10-03 22:51:47			0	38384	0	0	0	22241	20740	160132	27277	1055721	46362	108178	0	0	8222	548297	0	0
2024-10-03 22:52:47			0	38381	0	0	0	22249	20760	160048	27163	1055721	46363	108181	0	0	8222	548354	0	0
2024-10-03 22:53:47			0	38382	0	0	0	22244	20760	160116	27034	1055775	46375	108179	0	0	8222	548315	0	0
2024-10-03 22:54:47			0	38373	0	0	0	22244	20770	160020	27107	1055819	46376	108179	0	0	8222	548638	0	0
2024-10-03 22:55:47			0	38388	0	0	0	22241	20780	160080	27095	1055890	46365	108178	0	0	8223	548019	0	0
2024-10-03 22:56:47			0	38374	0	0	0	22249	20770	159980	26802	1055881	46354	108181	0	0	8222	548599	0	0
2024-10-03 22:57:47			0	38354	0	0	0	22228	20780	160080	27223	1055899	46355	108173	0	0	8221	549353	0	0
2024-10-03 22:58:47			0	38346	0	0	0	22228	20780	159992	26866	1055890	46354	108173	0	0	8220	549668	0	0
2024-10-03 22:59:47			0	38368	0	0	0	22218	20780	159928	26994	1055926	46344	108169	0	0	8222	548804	0	0
2024-10-03 23:00:47			0	38372	0	0	0	22223	20790	160036	27203	1055855	46345	108171	0	0	8222	548616	0	0
2024-10-03 23:01:47			0	38359	0	0	0	22236	20780	160032	26899	1055864	46365	108176	0	0	8221	549157	0	0
2024-10-03 23:02:47			0	38362	0	0	0	22236	20790	160024	26824	1055828	46367	108176	0	0	8221	549009	0	0
2024-10-03 23:03:47			0	38365	0	0	0	22238	20780	160084	27270	1055873	46355	108177	0	0	8221	548921	0	0
2024-10-03 23:04:47			0	38368	0	0	0	22238	20780	160140	27180	1055926	46333	108177	0	0	8221	548804	0	0
2024-10-03 23:05:47			0	38329	0	0	0	22233	20780	160156	27076	1055873	46355	108175	0	0	8219	550336	0	0
2024-10-03 23:06:47			0	38368	0	0	0	22228	20790	160072	27112	1055908	46345	108173	0	0	8222	548773	0	0
2024-10-03 23:07:47			0	38360	0	0	0	22236	20790	160156	26955	1055837	46345	108176	0	0	8221	549087	0	0
2024-10-03 23:08:47			0	38345	0	0	0	22233	20800	160212	26972	1055935	46357	108175	0	0	8220	549646	0	0
2024-10-03 23:09:47			0	38341	0	0	0	22238	20800	160168	27225	1055935	46346	108177	0	0	8220	549803	0	0
2024-10-03 23:10:47			0	38338	0	0	0	22233	20790	160136	27039	1055882	46356	108175	0	0	8220	549951	0	0
2024-10-03 23:11:47			0	38342	0	0	0	22236	20800	160080	26977	1055882	46335	108176	0	0	8220	549764	0	0
2024-10-03 23:12:47			0	38341	0	0	0	22241	20790	160068	27104	1055864	46334	108178	0	0	8220	549834	0	0
2024-10-03 23:13:47			0	38332	0	0	0	22236	20800	160184	27119	1055953	46356	108176	0	0	8219	550157	0	0
2024-10-03 23:14:47			0	38330	0	0	0	22236	20800	160172	26868	1055899	46345	108176	0	0	8219	550235	0	0
2024-10-03 23:15:47			0	38313	0	0	0	22228	20800	160176	27085	1055953	46345	108173	0	0	8218	550904	0	0
2024-10-03 23:16:47			0	38315	0	0	0	22212	20800	160284	27138	1055953	46356	108167	0	0	8219	550825	0	0
2024-10-03 23:17:47			0	38309	0	0	0	22233	20810	160132	27371	1055944	46336	108175	0	0	8218	551031	0	0
2024-10-03 23:18:47			0	38325	0	0	0	22228	20810	160096	27241	1055971	46347	108173	0	0	8219	550402	0	0
2024-10-03 23:19:47			0	38314	0	0	0	22223	20800	160196	27066	1055908	46346	108171	0	0	8219	550865	0	0
2024-10-03 23:20:47			0	38302	0	0	0	22189	20810	160184	26870	1055900	46336	108158	0	0	8219	551306	0	0
2024-10-03 23:21:47			0	38314	0	0	0	22179	20800	160212	27041	1055855	46335	108154	0	0	8219	550865	0	0
2024-10-03 23:22:47			0	38315	0	0	0	22202	20780	160116	27100	1055819	46333	108163	0	0	8219	550886	0	0
2024-10-03 23:23:47			0	38315	0	0	0	22210	20780	160224	26920	1055819	46333	108166	0	0	8219	550886	0	0
2024-10-03 23:24:47			0	38312	0	0	0	22205	20780	160200	26941	1055784	46343	108164	0	0	8219	551004	0	0
2024-10-03 23:25:47			0	38306	0	0	0	22192	20780	160144	26925	1055793	46323	108159	0	0	8219	551241	0	0
2024-10-03 23:26:47			0	38327	0	0	0	22199	20780	160188	26937	1055846	46344	108162	0	0	8220	550414	0	0
2024-10-03 23:27:47			0	38334	0	0	0	22163	20780	160144	27246	1055837	46333	108148	0	0	8221	550139	0	0
2024-10-03 23:28:47			0	38340	0	0	0	22150	20780	160104	27114	1055757	46321	108143	0	0	8221	549903	0	0
2024-10-03 23:29:47			0	38332	0	0	0	22179	20770	160180	27393	1055713	46343	108154	0	0	8220	550248	0	0
2024-10-03 23:30:47			0	38328	0	0	0	22168	20760	160232	27377	1055757	46342	108150	0	0	8220	550436	0	0
2024-10-03 23:31:47			0	38341	0	0	0	22174	20760	160192	27391	1055651	46332	108152	0	0	8221	549925	0	0
2024-10-03 23:32:47			0	38337	0	0	0	22181	20750	160128	27202	1055713	46331	108155	0	0	8220	550113	0	0
2024-10-03 23:33:47			0	38350	0	0	0	22181	20760	160004	27300	1055695	46341	108155	0	0	8221	549571	0	0
2024-10-03 23:34:47			0	38348	0	0	0	22168	20760	160072	27095	1055704	46321	108150	0	0	8221	549650	0	0
2024-10-03 23:35:47			0	38373	0	0	0	22176	20760	159964	26994	1055695	46331	108153	0	0	8223	548668	0	0
2024-10-03 23:36:47			0	38374	0	0	0	22176	20750	159920	26814	1055633	46331	108153	0	0	8223	548659	0	0
2024-10-03 23:37:47			0	38382	0	0	0	22174	20750	160016	27138	1055766	46341	108152	0	0	8223	548345	0	0
2024-10-03 23:38:47			0	38386	0	0	0	22158	20760	159992	27088	1055642	46320	108146	0	0	8224	548158	0	0
2024-10-03 23:39:47			0	38375	0	0	0	22145	20740	159936	26913	1055659	46329	108141	0	0	8223	548650	0	0
2024-10-03 23:40:47			0	38383	0	0	0	22127	20740	159912	26991	1055588	46319	108134	0	0	8224	548337	0	0
2024-10-03 23:41:47			0	38369	0	0	0	22137	20730	159900	27066	1055544	46329	108138	0	0	8223	548916	0	0
2024-10-03 23:42:47			0	38375	0	0	0	22122	20740	159936	27164	1055526	46329	108132	0	0	8224	548650	0	0
2024-10-03 23:43:47			0	38360	0	0	0	22137	20730	160040	27100	1055561	46328	108138	0	0	8222	549270	0	0
2024-10-03 23:44:47			0	38375	0	0	0	22114	20730	160040	27237	1055508	46328	108129	0	0	8224	548681	0	0
2024-10-03 23:45:47			0	38370	0	0	0	22098	20730	160004	27024	1055535	46328	108123	0	0	8224	548877	0	0
2024-10-03 23:46:47			0	38365	0	0	0	22132	20710	159992	27218	1055402	46326	108136	0	0	8223	549134	0	0
2024-10-03 23:47:47			0	38352	0	0	0	22127	20710	160036	27331	1055455	46303	108134	0	0	8222	549645	0	0
2024-10-03 23:48:47			0	38333	0	0	0	22127	20710	160152	27248	1055419	46326	108134	0	0	8221	550392	0	0
2024-10-03 23:49:47			0	38356	0	0	0	22077	20710	160152	27203	1055445	46336	108115	0	0	8223	549488	0	0
2024-10-03 23:50:47			0	38360	0	0	0	22072	20700	160208	27255	1055428	46313	108113	0	0	8223	549361	0	0
2024-10-03 23:51:47			0	38344	0	0	0	22067	20690	160164	27097	1055383	46324	108111	0	0	8223	550020	0	0
2024-10-03 23:52:47			0	38334	0	0	0	22059	20690	160284	26894	1055339	46312	108108	0	0	8222	550413	0	0
2024-10-03 23:53:47			0	38320	0	0	0	22051	20690	160296	27343	1055365	46324	108105	0	0	8221	550964	0	0
2024-10-03 23:54:47			0	38307	0	0	0	22072	20670	160320	27102	1055223	46299	108113	0	0	8220	551537	0	0
2024-10-03 23:55:47			0	38308	0	0	0	22098	20680	160308	27000	1055241	46311	108123	0	0	8220	551467	0	0
2024-10-03 23:56:47			0	38308	0	0	0	22106	20680	160352	26804	1055321	46323	108126	0	0	8220	551467	0	0
2024-10-03 23:57:47			0	38298	0	0	0	22132	20670	160360	27005	1055303	46322	108136	0	0	8219	551891	0	0
2024-10-03 23:58:47			0	38280	0	0	0	22135	20670	160388	27026	1055330	46322	108137	0	0	8218	552601	0	0
2024-10-03 23:59:47			0	38307	0	0	0	22129	20680	160428	27020	1055365	46323	108135	0	0	8219	551506	0	0
2024-10-04 00:00:47			0	38299	0	0	0	22096	20680	160376	27209	1055365	46323	108122	0	0	8219	551821	0	0
2024-10-04 00:01:47			0	38298	0	0	0	22085	20670	160396	27111	1055330	46333	108118	0	0	8219	551891	0	0
2024-10-04 00:02:47			0	38303	0	0	0	22093	20680	160340	26826	1055321	46323	108121	0	0	8220	551664	0	0
2024-10-04 00:03:47			0	38314	0	0	0	22083	20680	160364	27244	1055312	46333	108117	0	0	8220	551231	0	0
2024-10-04 00:04:47			0	38324	0	0	0	22085	20670	160280	27331	1055303	46333	108118	0	0	8221	550868	0	0
2024-10-04 00:05:47			0	38315	0	0	0	22098	20660	160400	26616	1055285	46342	108123	0	0	8220	551252	0	0
2024-10-04 00:06:47			0	38322	0	0	0	22103	20680	160328	27097	1055241	46323	108125	0	0	8221	550916	0	0
2024-10-04 00:07:47			0	38310	0	0	0	22083	20670	160336	27261	1055330	46333	108117	0	0	8220	551419	0	0
2024-10-04 00:08:47			0	38301	0	0	0	22093	20670	160256	27246	1055250	46310	108121	0	0	8219	551773	0	0
2024-10-04 00:09:47			0	38302	0	0	0	22085	20680	160312	27189	1055259	46323	108118	0	0	8220	551703	0	0
2024-10-04 00:10:47			0	38319	0	0	0	22077	20670	160352	27215	1055214	46322	108115	0	0	8221	551064	0	0
2024-10-04 00:11:47			0	38293	0	0	0	22090	20670	160408	27024	1055321	46333	108120	0	0	8219	552088	0	0
2024-10-04 00:12:47			0	38312	0	0	0	22093	20670	160364	26868	1055321	46343	108121	0	0	8220	551340	0	0
2024-10-04 00:13:47			0	38321	0	0	0	22059	20670	160336	26757	1055268	46322	108108	0	0	8221	550986	0	0
2024-10-04 00:14:47			0	38302	0	0	0	22067	20660	160336	26890	1055259	46332	108111	0	0	8220	551764	0	0
2024-10-04 00:15:47			0	38324	0	0	0	22054	20660	160312	26734	1055232	46321	108106	0	0	8221	550898	0	0
2024-10-04 00:16:47			0	38318	0	0	0	22062	20660	160292	27149	1055232	46309	108109	0	0	8221	551134	0	0
2024-10-04 00:17:47			0	38336	0	0	0	22070	20660	160264	26991	1055196	46309	108112	0	0	8222	550426	0	0
2024-10-04 00:18:47			0	38318	0	0	0	22067	20650	160360	26878	1055188	46331	108111	0	0	8221	551165	0	0
2024-10-04 00:19:47			0	38317	0	0	0	22088	20660	160300	26915	1055223	46321	108119	0	0	8220	551174	0	0
2024-10-04 00:20:47			0	38301	0	0	0	22077	20660	160388	27083	1055250	46342	108115	0	0	8220	551804	0	0
2024-10-04 00:21:47			0	38306	0	0	0	22057	20660	160388	27038	1055170	46309	108107	0	0	8220	551607	0	0
2024-10-04 00:22:47			0	38330	0	0	0	22067	20660	160364	26882	1055196	46332	108111	0	0	8222	550662	0	0
2024-10-04 00:23:47			0	38319	0	0	0	22059	20660	160320	26904	1055170	46309	108108	0	0	8221	551095	0	0
2024-10-04 00:24:47			0	38314	0	0	0	22064	20650	160372	26932	1055134	46320	108110	0	0	8221	551322	0	0
2024-10-04 00:25:47			0	38298	0	0	0	22057	20650	160312	27168	1055179	46341	108107	0	0	8220	551952	0	0
2024-10-04 00:26:47			0	38311	0	0	0	22051	20650	160288	26942	1055125	46341	108105	0	0	8221	551440	0	0
2024-10-04 00:27:47			0	38305	0	0	0	22028	20640	160172	26935	1055134	46339	108096	0	0	8221	551707	0	0
2024-10-04 00:28:47			0	38288	0	0	0	22044	20640	160336	26942	1055116	46319	108102	0	0	8219	552377	0	0
2024-10-04 00:29:47			0	38309	0	0	0	22018	20640	160332	27253	1055037	46307	108092	0	0	8221	551550	0	0
2024-10-04 00:30:47			0	38309	0	0	0	21999	20640	160336	27211	1055028	46329	108085	0	0	8221	551550	0	0
2024-10-04 00:31:47			0	38340	0	0	0	22028	20630	160308	26731	1055072	46306	108096	0	0	8223	550360	0	0
2024-10-04 00:32:47			0	38341	0	0	0	22025	20630	160336	26635	1055063	46294	108095	0	0	8223	550321	0	0
2024-10-04 00:33:47			0	38346	0	0	0	22007	20620	160264	27152	1055028	46305	108088	0	0	8223	550155	0	0
2024-10-04 00:34:47			0	38346	0	0	0	21999	20620	160240	27050	1055019	46316	108085	0	0	8223	550155	0	0
2024-10-04 00:35:47			0	38332	0	0	0	22028	20620	160228	27133	1054965	46293	108096	0	0	8222	550705	0	0
2024-10-04 00:36:47			0	38345	0	0	0	22023	20610	160264	26897	1054983	46316	108094	0	0	8223	550224	0	0
2024-10-04 00:37:47			0	38329	0	0	0	21997	20610	160288	26703	1054956	46304	108084	0	0	8222	550854	0	0
2024-10-04 00:38:47			0	38367	0	0	0	21994	20600	160192	27204	1054912	46326	108083	0	0	8225	549390	0	0
2024-10-04 00:39:47			0	38385	0	0	0	22002	20610	160140	26899	1054983	46316	108086	0	0	8226	548653	0	0
2024-10-04 00:40:47			0	38373	0	0	0	22023	20600	160216	27123	1054912	46303	108094	0	0	8225	549154	0	0
2024-10-04 00:41:47			0	38400	0	0	0	21986	20600	160060	27086	1054930	46313	108080	0	0	8227	548094	0	0
2024-10-04 00:42:47			0	38418	0	0	0	21986	20600	159968	26944	1054912	46314	108080	0	0	8228	547388	0	0
2024-10-04 00:43:47			0	38422	0	0	0	21966	20590	159984	26925	1054885	46301	108072	0	0	8228	547262	0	0
2024-10-04 00:44:47			0	38417	0	0	0	22002	20590	159984	26953	1054841	46291	108086	0	0	8227	547458	0	0
2024-10-04 00:45:47			0	38396	0	0	0	22005	20580	160020	27102	1054823	46324	108087	0	0	8226	548312	0	0
2024-10-04 00:46:47			0	38398	0	0	0	21999	20600	160008	26838	1054876	46313	108085	0	0	8226	548173	0	0
2024-10-04 00:47:47			0	38412	0	0	0	21986	20590	160172	26955	1054885	46313	108080	0	0	8227	547654	0	0
2024-10-04 00:48:47			0	38361	0	0	0	22015	20580	160180	27140	1054876	46313	108091	0	0	8224	549687	0	0
2024-10-04 00:49:47			0	38367	0	0	0	22005	20580	160352	27175	1054814	46323	108087	0	0	8224	549451	0	0
2024-10-04 00:50:47			0	38357	0	0	0	22005	20580	160260	27265	1054903	46334	108087	0	0	8224	549844	0	0
2024-10-04 00:51:47			0	38370	0	0	0	22015	20580	160264	27317	1054849	46313	108091	0	0	8224	549333	0	0
2024-10-04 00:52:47			0	38368	0	0	0	22015	20580	160220	27012	1054903	46334	108091	0	0	8224	549412	0	0
2024-10-04 00:53:47			0	38377	0	0	0	22005	20590	160200	27026	1054938	46324	108087	0	0	8225	549028	0	0
2024-10-04 00:54:47			0	38384	0	0	0	22015	20590	160104	27064	1054921	46335	108091	0	0	8225	548753	0	0
2024-10-04 00:55:47			0	38392	0	0	0	22010	20590	160036	26972	1054911	46334	108089	0	0	8226	548439	0	0
2024-10-04 00:56:47			0	38384	0	0	0	22005	20600	160096	27308	1054983	46325	108087	0	0	8226	548722	0	0
2024-10-04 00:57:47			0	38385	0	0	0	22015	20580	160224	27104	1054929	46324	108091	0	0	8225	548744	0	0
2024-10-04 00:58:47			0	38405	0	0	0	22015	20590	159992	26981	1054894	46313	108091	0	0	8227	547929	0	0
2024-10-04 00:59:47			0	38383	0	0	0	22018	20600	160092	27114	1054983	46313	108092	0	0	8225	548762	0	0
2024-10-04 01:00:47			0	38376	0	0	0	22033	20590	160172	26708	1054894	46346	108098	0	0	8225	549067	0	0
2024-10-04 01:01:47			0	38392	0	0	0	22025	20590	160200	26901	1054938	46334	108095	0	0	8226	548439	0	0
2024-10-04 01:02:47			0	38386	0	0	0	22023	20590	160196	27085	1054911	46324	108094	0	0	8225	548674	0	0
2024-10-04 01:03:47			0	38386	0	0	0	22007	20590	160144	27170	1054947	46325	108088	0	0	8226	548674	0	0
2024-10-04 01:04:47			0	38381	0	0	0	22015	20590	160208	27313	1054885	46301	108091	0	0	8225	548870	0	0
2024-10-04 01:05:47			0	38389	0	0	0	22002	20590	160224	27376	1054911	46313	108086	0	0	8226	548556	0	0
2024-10-04 01:06:47			0	38378	0	0	0	22007	20590	160280	27128	1054921	46325	108088	0	0	8225	548988	0	0
2024-10-04 01:07:47			0	38364	0	0	0	22012	20600	160212	27078	1054956	46325	108090	0	0	8224	549508	0	0
2024-10-04 01:08:47			0	38353	0	0	0	22023	20590	160220	27097	1054921	46302	108094	0	0	8223	549971	0	0
2024-10-04 01:09:47			0	38367	0	0	0	22018	20590	160284	27234	1054894	46313	108092	0	0	8224	549420	0	0
2024-10-04 01:10:47			0	38367	0	0	0	21999	20600	160292	27360	1054956	46302	108085	0	0	8225	549390	0	0
2024-10-04 01:11:47			0	38357	0	0	0	22005	20590	160204	27286	1054921	46313	108087	0	0	8224	549813	0	0
2024-10-04 01:12:47			0	38365	0	0	0	22012	20580	160228	27319	1054903	46301	108090	0	0	8224	549529	0	0
2024-10-04 01:13:47			0	38367	0	0	0	22007	20590	160264	27182	1054841	46325	108088	0	0	8224	549420	0	0
2024-10-04 01:14:47			0	38357	0	0	0	22023	20590	160248	27203	1054858	46324	108094	0	0	8224	549813	0	0
2024-10-04 01:15:47			0	38351	0	0	0	22015	20570	160256	27206	1054778	46322	108091	0	0	8223	550110	0	0
2024-10-04 01:16:47			0	38360	0	0	0	22018	20580	160284	27197	1054823	46334	108092	0	0	8224	549726	0	0
2024-10-04 01:17:47			0	38352	0	0	0	22015	20590	160384	27261	1054858	46334	108091	0	0	8223	550010	0	0
2024-10-04 01:18:47			0	38354	0	0	0	21976	20590	160232	27294	1054938	46324	108076	0	0	8224	549931	0	0
2024-10-04 01:19:47			0	38341	0	0	0	21979	20590	160264	27069	1054858	46324	108077	0	0	8223	550443	0	0
2024-10-04 01:20:47			0	38343	0	0	0	21979	20580	160276	27111	1054867	46323	108077	0	0	8223	550394	0	0
2024-10-04 01:21:47			0	38338	0	0	0	21973	20580	160288	27085	1054823	46280	108075	0	0	8223	550591	0	0
2024-10-04 01:22:47			0	38336	0	0	0	21976	20580	160456	26783	1054787	46312	108076	0	0	8223	550670	0	0
2024-10-04 01:23:47			0	38322	0	0	0	21984	20570	160368	27067	1054796	46310	108079	0	0	8222	551251	0	0
2024-10-04 01:24:47			0	38318	0	0	0	22028	20560	160468	27015	1054707	46299	108096	0	0	8221	551439	0	0
2024-10-04 01:25:47			0	38321	0	0	0	22036	20570	160504	27296	1054831	46310	108099	0	0	8221	551291	0	0
2024-10-04 01:26:47			0	38316	0	0	0	22033	20580	160496	27123	1054894	46300	108098	0	0	8221	551457	0	0
2024-10-04 01:27:47			0	38325	0	0	0	22005	20570	160432	27088	1054823	46333	108087	0	0	8222	551133	0	0
2024-10-04 01:28:47			0	38318	0	0	0	22041	20570	160496	27131	1054849	46322	108101	0	0	8221	551409	0	0
2024-10-04 01:29:47			0	38313	0	0	0	22015	20570	160556	26892	1054831	46333	108091	0	0	8221	551606	0	0
2024-10-04 01:30:47			0	38323	0	0	0	22010	20570	160476	27263	1054885	46310	108089	0	0	8222	551212	0	0
2024-10-04 01:31:47			0	38290	0	0	0	22054	20580	160444	26996	1054920	46323	108106	0	0	8219	552482	0	0
2024-10-04 01:32:47			0	38305	0	0	0	22083	20580	160556	27315	1054920	46333	108117	0	0	8219	551890	0	0
2024-10-04 01:33:47			0	38287	0	0	0	22077	20590	160504	27050	1054991	46334	108115	0	0	8219	552569	0	0
2024-10-04 01:34:47			0	38284	0	0	0	22049	20600	160556	26651	1054983	46335	108104	0	0	8219	552657	0	0
2024-10-04 01:35:47			0	38291	0	0	0	22005	20590	160528	27039	1054974	46325	108087	0	0	8220	552412	0	0
2024-10-04 01:36:47			0	38292	0	0	0	21971	20590	160544	27177	1054947	46325	108074	0	0	8221	552372	0	0
2024-10-04 01:37:47			0	38299	0	0	0	21953	20580	160512	26913	1054796	46324	108067	0	0	8221	552127	0	0
2024-10-04 01:38:47			0	38275	0	0	0	21940	20570	160552	26778	1054769	46299	108062	0	0	8220	553104	0	0
2024-10-04 01:39:47			0	38293	0	0	0	21937	20560	160536	26873	1054734	46289	108061	0	0	8221	552424	0	0
2024-10-04 01:40:47			0	38281	0	0	0	21919	20560	160560	27274	1054734	46289	108054	0	0	8221	552898	0	0
2024-10-04 01:41:47			0	38259	0	0	0	21919	20560	160560	26960	1054672	46288	108054	0	0	8219	553766	0	0
2024-10-04 01:42:47			0	38265	0	0	0	21909	20550	160624	27178	1054627	46297	108050	0	0	8220	553560	0	0
2024-10-04 01:43:47			0	38258	0	0	0	21893	20520	160724	27379	1054565	46295	108044	0	0	8220	553928	0	0
2024-10-04 01:44:47			0	38242	0	0	0	21973	20520	160844	27284	1054512	46274	108075	0	0	8217	554560	0	0
2024-10-04 01:45:47			0	38217	0	0	0	21966	20520	160868	27289	1054609	46294	108072	0	0	8216	555549	0	0
2024-10-04 01:46:47			0	38243	0	0	0	21958	20520	160824	26953	1054645	46318	108069	0	0	8218	554521	0	0
2024-10-04 01:47:47			0	38234	0	0	0	22044	20510	160964	26906	1054600	46317	108102	0	0	8216	554907	0	0
2024-10-04 01:48:47			0	38215	0	0	0	22051	20530	160940	26925	1054716	46319	108105	0	0	8215	555597	0	0
2024-10-04 01:49:47			0	38224	0	0	0	22031	20540	160928	26816	1054778	46320	108097	0	0	8215	555211	0	0
2024-10-04 01:50:47			0	38214	0	0	0	22020	20530	160896	27026	1054795	46340	108093	0	0	8215	555637	0	0
2024-10-04 01:51:47			0	38204	0	0	0	22046	20560	160928	27173	1054778	46332	108103	0	0	8214	555940	0	0
2024-10-04 01:52:47			0	38194	0	0	0	22049	20550	160988	27222	1054849	46320	108104	0	0	8213	556367	0	0
2024-10-04 01:53:47			0	38194	0	0	0	22018	20560	160988	26769	1054858	46342	108092	0	0	8214	556336	0	0
2024-10-04 01:54:47			0	38169	0	0	0	22051	20550	160996	27176	1054822	46341	108105	0	0	8212	557358	0	0
2024-10-04 01:55:47			0	38185	0	0	0	22080	20560	161132	27038	1054805	46332	108116	0	0	8212	556693	0	0
2024-10-04 01:56:47			0	38179	0	0	0	22038	20560	161024	27180	1054840	46343	108100	0	0	8213	556931	0	0
2024-10-04 01:57:47			0	38170	0	0	0	21948	20570	161016	27067	1054831	46322	108065	0	0	8214	557257	0	0
2024-10-04 01:58:47			0	38174	0	0	0	21971	20570	161036	27241	1054796	46299	108074	0	0	8214	557098	0	0
2024-10-04 01:59:47			0	38140	0	0	0	21968	20550	161076	26989	1054654	46320	108073	0	0	8212	558508	0	0
2024-10-04 02:00:47			0	38151	0	0	0	21927	20550	161064	27320	1054627	46297	108057	0	0	8213	558072	0	0
2024-10-04 02:01:47			0	38143	0	0	0	21989	20550	161140	27182	1054627	46287	108081	0	0	8211	558389	0	0
2024-10-04 02:02:47			0	38131	0	0	0	21966	20530	161200	27196	1054609	46307	108072	0	0	8211	558927	0	0
2024-10-04 02:03:47			0	38128	0	0	0	22012	20540	161308	27010	1054671	46297	108090	0	0	8210	559016	0	0
2024-10-04 02:04:47			0	38126	0	0	0	22023	20530	161316	27078	1054689	46319	108094	0	0	8210	559126	0	0
2024-10-04 02:05:47			0	38131	0	0	0	21953	20530	161136	27157	1054680	46329	108067	0	0	8211	558927	0	0
2024-10-04 02:06:47			0	38138	0	0	0	21922	20530	161296	26979	1054654	46306	108055	0	0	8212	558650	0	0
2024-10-04 02:07:47			0	38121	0	0	0	21919	20530	161280	27241	1054583	46286	108054	0	0	8211	559325	0	0
2024-10-04 02:08:47			0	38117	0	0	0	21896	20530	161352	26826	1054547	46295	108045	0	0	8211	559484	0	0
2024-10-04 02:09:47			0	38108	0	0	0	21893	20520	161304	27255	1054565	46329	108044	0	0	8211	559872	0	0
2024-10-04 02:10:47			0	38109	0	0	0	21864	20510	161392	26845	1054467	46294	108033	0	0	8211	559864	0	0
2024-10-04 02:11:47			0	38111	0	0	0	21872	20500	161308	26864	1054467	46292	108036	0	0	8211	559815	0	0
2024-10-04 02:12:47			0	38109	0	0	0	21864	20500	161412	27189	1054449	46282	108033	0	0	8211	559895	0	0
2024-10-04 02:13:47			0	38100	0	0	0	21841	20500	161500	27315	1054361	46292	108024	0	0	8211	560253	0	0
2024-10-04 02:14:47			0	38070	0	0	0	21870	20480	161512	27078	1054307	46269	108035	0	0	8209	561509	0	0
2024-10-04 02:15:47			0	38048	0	0	0	21880	20480	161656	27157	1054334	46291	108039	0	0	8207	562386	0	0
2024-10-04 02:16:47			0	38019	0	0	0	21883	20480	161587	27069	1054360	46291	108040	0	0	8206	563543	0	0
2024-10-04 02:17:47			0	38024	0	0	0	21898	20470	161699	27114	1054307	46290	108046	0	0	8206	563374	0	0
2024-10-04 02:18:47			0	38020	0	0	0	21883	20470	161772	27166	1054334	46300	108040	0	0	8206	563534	0	0
2024-10-04 02:19:47			0	38004	0	0	0	21807	20460	161703	27274	1054262	46299	108011	0	0	8206	564204	0	0
2024-10-04 02:20:47			0	37993	0	0	0	21823	20460	161867	27131	1054209	46299	108017	0	0	8205	564644	0	0
2024-10-04 02:21:47			0	38001	0	0	0	21823	20450	161811	27284	1054200	46278	108017	0	0	8205	564355	0	0
2024-10-04 02:22:47			0	37976	0	0	0	21815	20440	161843	27235	1054120	46307	108014	0	0	8204	565386	0	0
2024-10-04 02:23:47			0	37958	0	0	0	21828	20450	161995	26927	1054165	46277	108019	0	0	8203	566076	0	0
2024-10-04 02:24:47			0	37936	0	0	0	21862	20440	162015	27379	1054200	46296	108032	0	0	8201	566988	0	0
2024-10-04 02:25:47			0	37936	0	0	0	21880	20430	162023	27277	1054138	46286	108039	0	0	8201	567020	0	0
2024-10-04 02:26:47			0	37943	0	0	0	21877	20430	162003	26824	1054235	46286	108038	0	0	8201	566739	0	0
2024-10-04 02:27:47			0	37956	0	0	0	21927	20430	162075	26729	1054244	46296	108057	0	0	8201	566218	0	0
2024-10-04 02:28:47			0	37954	0	0	0	21890	20430	161943	27223	1054244	46319	108043	0	0	8201	566299	0	0
2024-10-04 02:29:47			0	37947	0	0	0	21896	20440	161919	26961	1054333	46330	108045	0	0	8201	566548	0	0
2024-10-04 02:30:47			0	37960	0	0	0	21888	20440	161935	26941	1054226	46307	108042	0	0	8202	566027	0	0
2024-10-04 02:31:47			0	37950	0	0	0	21906	20450	162007	26767	1054306	46311	108049	0	0	8201	566396	0	0
2024-10-04 02:32:47			0	37960	0	0	0	21961	20440	162071	27237	1054262	46320	108070	0	0	8201	566027	0	0
2024-10-04 02:33:47			0	37965	0	0	0	21968	20450	162003	27031	1054439	46333	108073	0	0	8201	565795	0	0
2024-10-04 02:34:47			0	37969	0	0	0	21945	20450	162039	27275	1054439	46322	108064	0	0	8202	565635	0	0
2024-10-04 02:35:47			0	37984	0	0	0	21927	20470	162055	27175	1054440	46333	108057	0	0	8203	564973	0	0
2024-10-04 02:36:47			0	37982	0	0	0	21968	20470	161995	27279	1054440	46333	108073	0	0	8202	565053	0	0
2024-10-04 02:37:47			0	37968	0	0	0	21961	20470	161951	27112	1054476	46313	108070	0	0	8201	565613	0	0
2024-10-04 02:38:47			0	37987	0	0	0	21906	20470	162019	27306	1054476	46313	108049	0	0	8203	564853	0	0
2024-10-04 02:39:47			0	37970	0	0	0	21922	20480	162015	27020	1054378	46334	108055	0	0	8202	565502	0	0
2024-10-04 02:40:47			0	37953	0	0	0	21935	20470	161999	27161	1054387	46300	108060	0	0	8201	566213	0	0
2024-10-04 02:41:47			0	37959	0	0	0	21981	20490	162043	27358	1054538	46326	108078	0	0	8200	565911	0	0
2024-10-04 02:42:47			0	37949	0	0	0	21986	20490	162127	27235	1054476	46335	108080	0	0	8200	566311	0	0
2024-10-04 02:43:47			0	37964	0	0	0	21958	20500	162067	27052	1054609	46336	108069	0	0	8201	565679	0	0
2024-10-04 02:44:47			0	37966	0	0	0	21971	20500	161979	27057	1054600	46326	108074	0	0	8201	565599	0	0
2024-10-04 02:45:47			0	37976	0	0	0	21953	20500	161967	27208	1054582	46326	108067	0	0	8202	565199	0	0
2024-10-04 02:46:47			0	37968	0	0	0	21981	20510	161927	27190	1054618	46327	108078	0	0	8201	565488	0	0
2024-10-04 02:47:47			0	37986	0	0	0	22005	20510	161899	27281	1054653	46328	108087	0	0	8202	564768	0	0
2024-10-04 02:48:47			0	37996	0	0	0	22002	20510	161987	27287	1054618	46327	108086	0	0	8202	564368	0	0
2024-10-04 02:49:47			0	37989	0	0	0	21989	20530	161855	27038	1054733	46339	108081	0	0	8202	564586	0	0
2024-10-04 02:50:47			0	37973	0	0	0	21968	20530	161843	27015	1054742	46330	108073	0	0	8202	565225	0	0
2024-10-04 02:51:47			0	37986	0	0	0	22010	20530	161807	27060	1054689	46330	108089	0	0	8202	564705	0	0
2024-10-04 02:52:47			0	37983	0	0	0	22002	20540	161895	27254	1054725	46341	108086	0	0	8202	564794	0	0
2024-10-04 02:53:47			0	37994	0	0	0	22002	20530	161795	26797	1054733	46339	108086	0	0	8202	564386	0	0
2024-10-04 02:54:47			0	37993	0	0	0	21971	20530	161827	26960	1054716	46330	108074	0	0	8203	564426	0	0
2024-10-04 02:55:47			0	38010	0	0	0	22018	20540	161851	27154	1054698	46320	108092	0	0	8203	563715	0	0
2024-10-04 02:56:47			0	37998	0	0	0	21986	20550	161775	27124	1054663	46331	108080	0	0	8203	564163	0	0
2024-10-04 02:57:47			0	38011	0	0	0	22005	20550	161679	26993	1054734	46297	108087	0	0	8203	563644	0	0
2024-10-04 02:58:47			0	38014	0	0	0	22005	20540	161711	26944	1054751	46320	108087	0	0	8204	563556	0	0
2024-10-04 02:59:47			0	38004	0	0	0	21997	20550	161703	27189	1054760	46308	108084	0	0	8203	563924	0	0
2024-10-04 03:00:47			0	38016	0	0	0	22007	20550	161671	27274	1054796	46320	108088	0	0	8204	563445	0	0
2024-10-04 03:01:47			0	38010	0	0	0	21989	20550	161627	27435	1054769	46331	108081	0	0	8204	563684	0	0
2024-10-04 03:02:47			0	38008	0	0	0	21984	20560	161635	27253	1054725	46321	108079	0	0	8204	563733	0	0
2024-10-04 03:03:47			0	38009	0	0	0	21981	20550	161727	27237	1054742	46331	108078	0	0	8204	563724	0	0
2024-10-04 03:04:47			0	38002	0	0	0	21979	20550	161739	27140	1054822	46320	108077	0	0	8203	564004	0	0
2024-10-04 03:05:47			0	38004	0	0	0	21961	20560	161691	27150	1054751	46309	108070	0	0	8204	563892	0	0
2024-10-04 03:06:47			0	38013	0	0	0	21932	20540	161799	27066	1054725	46287	108059	0	0	8205	563596	0	0
2024-10-04 03:07:47			0	37981	0	0	0	21935	20540	161879	27249	1054671	46297	108060	0	0	8203	564874	0	0
2024-10-04 03:08:47			0	37984	0	0	0	21935	20540	161771	27173	1054618	46287	108060	0	0	8203	564754	0	0
2024-10-04 03:09:47			0	37960	0	0	0	21909	20530	161951	27164	1054654	46295	108050	0	0	8202	565745	0	0
2024-10-04 03:10:47			0	37954	0	0	0	21948	20530	162019	27287	1054636	46307	108065	0	0	8201	565986	0	0
2024-10-04 03:11:47			0	37945	0	0	0	21929	20530	162055	27081	1054654	46306	108058	0	0	8201	566346	0	0
2024-10-04 03:12:47			0	37927	0	0	0	21924	20520	162019	27142	1054591	46295	108056	0	0	8200	567099	0	0
2024-10-04 03:13:47			0	37929	0	0	0	21932	20520	162127	27187	1054591	46295	108059	0	0	8200	567018	0	0
2024-10-04 03:14:47			0	37910	0	0	0	21929	20520	162063	26993	1054618	46285	108058	0	0	8199	567780	0	0
2024-10-04 03:15:47			0	37906	0	0	0	21958	20510	162095	27048	1054600	46317	108069	0	0	8198	567972	0	0
2024-10-04 03:16:47			0	37931	0	0	0	21971	20520	162095	27248	1054609	46305	108074	0	0	8199	566938	0	0
2024-10-04 03:17:47			0	37928	0	0	0	21945	20520	162055	26981	1054636	46328	108064	0	0	8199	567058	0	0
2024-10-04 03:18:47			0	37941	0	0	0	21929	20530	161975	27265	1054627	46306	108058	0	0	8200	566506	0	0
2024-10-04 03:19:47			0	37949	0	0	0	21927	20520	162019	27118	1054565	46329	108057	0	0	8201	566217	0	0
2024-10-04 03:20:47			0	37942	0	0	0	21914	20510	161975	27618	1054627	46305	108052	0	0	8201	566529	0	0
2024-10-04 03:21:47			0	37914	0	0	0	21924	20520	162027	27017	1054529	46305	108056	0	0	8199	567620	0	0
2024-10-04 03:22:47			0	37920	0	0	0	21919	20510	162059	26866	1054494	46317	108054	0	0	8199	567411	0	0
2024-10-04 03:23:47			0	37911	0	0	0	21896	20500	162135	27144	1054556	46303	108045	0	0	8199	567803	0	0
2024-10-04 03:24:47			0	37905	0	0	0	21906	20500	162259	27242	1054449	46282	108049	0	0	8199	568044	0	0
2024-10-04 03:25:47			0	37892	0	0	0	21870	20490	162171	27043	1054502	46291	108035	0	0	8198	568597	0	0
2024-10-04 03:26:47			0	37887	0	0	0	21857	20490	162267	26991	1054352	46292	108030	0	0	8198	568798	0	0
2024-10-04 03:27:47			0	37885	0	0	0	21893	20490	162283	27038	1054369	46270	108044	0	0	8198	568878	0	0
2024-10-04 03:28:47			0	37891	0	0	0	21909	20490	162207	27173	1054476	46314	108050	0	0	8198	568637	0	0
2024-10-04 03:29:47			0	37903	0	0	0	21877	20480	162279	27239	1054351	46301	108038	0	0	8199	568187	0	0
2024-10-04 03:30:47			0	37894	0	0	0	21901	20460	162127	27102	1054378	46299	108047	0	0	8198	568611	0	0
2024-10-04 03:31:47			0	37901	0	0	0	21885	20470	162219	26977	1054334	46300	108041	0	0	8199	568298	0	0
2024-10-04 03:32:47			0	37918	0	0	0	21864	20460	162203	26819	1054298	46278	108033	0	0	8200	567648	0	0
2024-10-04 03:33:47			0	37899	0	0	0	21872	20460	162227	27303	1054325	46311	108036	0	0	8199	568410	0	0
2024-10-04 03:34:47			0	37905	0	0	0	21867	20450	162227	27225	1054360	46299	108034	0	0	8199	568201	0	0
2024-10-04 03:35:47			0	37905	0	0	0	21870	20460	162327	27149	1054342	46278	108035	0	0	8199	568169	0	0
2024-10-04 03:36:47			0	37896	0	0	0	21867	20470	162271	27305	1054413	46279	108034	0	0	8199	568499	0	0
2024-10-04 03:37:47			0	37880	0	0	0	21857	20460	162315	27450	1054298	46299	108030	0	0	8198	569173	0	0
2024-10-04 03:38:47			0	37878	0	0	0	21828	20450	162279	27327	1054280	46299	108019	0	0	8198	569285	0	0
2024-10-04 03:39:47			0	37869	0	0	0	21825	20450	162359	27246	1054280	46311	108018	0	0	8198	569647	0	0
2024-10-04 03:40:47			0	37865	0	0	0	21781	20440	162379	26764	1054156	46287	108001	0	0	8198	569839	0	0
2024-10-04 03:41:47			0	37820	0	0	0	21807	20440	162503	27287	1054147	46275	108011	0	0	8195	571651	0	0
2024-10-04 03:42:47			0	37826	0	0	0	21828	20430	162515	27175	1054129	46286	108019	0	0	8195	571440	0	0
2024-10-04 03:43:47			0	37816	0	0	0	21838	20430	162567	26899	1054138	46286	108023	0	0	8194	571843	0	0
2024-10-04 03:44:47			0	37818	0	0	0	21851	20430	162639	27367	1054164	46307	108028	0	0	8194	571763	0	0
2024-10-04 03:45:47			0	37823	0	0	0	21823	20420	162555	27159	1054093	46306	108017	0	0	8195	571593	0	0
2024-10-04 03:46:47			0	37799	0	0	0	21812	20420	162603	26856	1054111	46284	108013	0	0	8194	572560	0	0
2024-10-04 03:47:47			0	37808	0	0	0	21792	20420	162755	27057	1054147	46306	108005	0	0	8194	572198	0	0
2024-10-04 03:48:47			0	37805	0	0	0	21763	20420	162759	26974	1054031	46284	107994	0	0	8195	572318	0	0
2024-10-04 03:49:47			0	37783	0	0	0	21789	20420	162671	27270	1054084	46294	108004	0	0	8193	573206	0	0
2024-10-04 03:50:47			0	37758	0	0	0	21833	20400	162907	27107	1054031	46293	108021	0	0	8191	574279	0	0
2024-10-04 03:51:47			0	37785	0	0	0	21844	20400	162751	27074	1054057	46283	108025	0	0	8192	573189	0	0
2024-10-04 03:52:47			0	37814	0	0	0	21854	20410	162699	27270	1054102	46305	108029	0	0	8194	571987	0	0
2024-10-04 03:53:47			0	37823	0	0	0	21849	20410	162639	27203	1054155	46305	108027	0	0	8194	571624	0	0
2024-10-04 03:54:47			0	37841	0	0	0	21844	20410	162655	27319	1054182	46317	108025	0	0	8195	570899	0	0
2024-10-04 03:55:47			0	37835	0	0	0	21844	20420	162455	27062	1054164	46294	108025	0	0	8195	571110	0	0
2024-10-04 03:56:47			0	37834	0	0	0	21844	20420	162523	27121	1054173	46295	108025	0	0	8195	571150	0	0
2024-10-04 03:57:47			0	37830	0	0	0	21851	20420	162495	27287	1054173	46295	108028	0	0	8195	571311	0	0
2024-10-04 03:58:47			0	37846	0	0	0	21859	20420	162403	27216	1054147	46318	108031	0	0	8196	570667	0	0
2024-10-04 03:59:47			0	37836	0	0	0	21807	20420	162571	27218	1054147	46295	108011	0	0	8196	571069	0	0
2024-10-04 04:00:47			0	37832	0	0	0	21781	20410	162479	26779	1054075	46294	108001	0	0	8196	571262	0	0
2024-10-04 04:01:47			0	37821	0	0	0	21750	20410	162691	27204	1054102	46284	107989	0	0	8196	571705	0	0
2024-10-04 04:02:47			0	37796	0	0	0	21755	20410	162687	27204	1053960	46273	107991	0	0	8194	572713	0	0
2024-10-04 04:03:47			0	37784	0	0	0	21779	20400	162699	27341	1053977	46283	108000	0	0	8193	573229	0	0
2024-10-04 04:04:47			0	37800	0	0	0	21763	20390	162719	27036	1053951	46260	107994	0	0	8194	572615	0	0
2024-10-04 04:05:47			0	37778	0	0	0	21755	20390	162747	27166	1053960	46271	107991	0	0	8193	573503	0	0
2024-10-04 04:06:47			0	37774	0	0	0	21755	20390	162863	27118	1053951	46292	107991	0	0	8193	573665	0	0
2024-10-04 04:07:47			0	37770	0	0	0	21763	20380	162843	27225	1053915	46281	107994	0	0	8193	573858	0	0
2024-10-04 04:08:47			0	37751	0	0	0	21753	20380	162867	27296	1053915	46270	107990	0	0	8192	574626	0	0
2024-10-04 04:09:47			0	37747	0	0	0	21750	20370	162807	27059	1053871	46279	107989	0	0	8191	574819	0	0
2024-10-04 04:10:47			0	37745	0	0	0	21745	20360	162831	27270	1053880	46279	107987	0	0	8191	574932	0	0
2024-10-04 04:11:47			0	37730	0	0	0	21727	20370	162951	26987	1053791	46290	107980	0	0	8191	575507	0	0
2024-10-04 04:12:47			0	37734	0	0	0	21729	20370	163019	27045	1053835	46279	107981	0	0	8191	575345	0	0
2024-10-04 04:13:47			0	37727	0	0	0	21748	20350	163003	27436	1053782	46277	107988	0	0	8190	575692	0	0
2024-10-04 04:14:47			0	37734	0	0	0	21742	20340	162979	27325	1053791	46266	107986	0	0	8191	575441	0	0
2024-10-04 04:15:47			0	37741	0	0	0	21724	20350	162967	27104	1053729	46277	107979	0	0	8191	575125	0	0
2024-10-04 04:16:47			0	37714	0	0	0	21703	20340	163031	27249	1053675	46265	107971	0	0	8190	576250	0	0
2024-10-04 04:17:47			0	37719	0	0	0	21716	20340	163015	27107	1053702	46276	107976	0	0	8190	576048	0	0
2024-10-04 04:18:47			0	37710	0	0	0	21716	20330	163031	26970	1053719	46264	107976	0	0	8190	576444	0	0
2024-10-04 04:19:47			0	37689	0	0	0	21750	20330	163063	27353	1053763	46264	107989	0	0	8188	577296	0	0
2024-10-04 04:20:47			0	37743	0	0	0	21768	20340	163147	27130	1053728	46287	107996	0	0	8191	575076	0	0
2024-10-04 04:21:47			0	37727	0	0	0	21758	20330	163127	27024	1053799	46296	107992	0	0	8190	575756	0	0
2024-10-04 04:22:47			0	37710	0	0	0	21771	20330	163071	27199	1053799	46286	107997	0	0	8189	576444	0	0
2024-10-04 04:23:47			0	37725	0	0	0	21789	20340	163103	27029	1053808	46297	108004	0	0	8189	575805	0	0
2024-10-04 04:24:47			0	37739	0	0	0	21810	20340	163111	27182	1053817	46310	108012	0	0	8190	575238	0	0
2024-10-04 04:25:47			0	37745	0	0	0	21825	20350	162955	27237	1053853	46310	108018	0	0	8190	574964	0	0
2024-10-04 04:26:47			0	37776	0	0	0	21825	20360	162951	27206	1053924	46299	108018	0	0	8192	573679	0	0
2024-10-04 04:27:47			0	37779	0	0	0	21815	20370	162907	27107	1053951	46312	108014	0	0	8192	573526	0	0
2024-10-04 04:28:47			0	37790	0	0	0	21802	20370	162903	27540	1053977	46312	108009	0	0	8193	573082	0	0
2024-10-04 04:29:47			0	37772	0	0	0	21805	20370	162851	27611	1053951	46312	108010	0	0	8192	573809	0	0
2024-10-04 04:30:47			0	37784	0	0	0	21792	20360	162923	27516	1053959	46300	108005	0	0	8193	573356	0	0
2024-10-04 04:31:47			0	37763	0	0	0	21771	20370	162895	27251	1053915	46300	107997	0	0	8192	574172	0	0
2024-10-04 04:32:47			0	37747	0	0	0	21774	20380	162943	27275	1053942	46291	107998	0	0	8191	574787	0	0
2024-10-04 04:33:47			0	37770	0	0	0	21789	20380	163043	26961	1053880	46269	108004	0	0	8192	573858	0	0
2024-10-04 04:34:47			0	37753	0	0	0	21805	20370	162911	27180	1053915	46290	108010	0	0	8191	574577	0	0
2024-10-04 04:35:47			0	37755	0	0	0	21794	20380	162855	27251	1053968	46281	108006	0	0	8191	574464	0	0
2024-10-04 04:36:47			0	37756	0	0	0	21794	20380	162935	26968	1053959	46280	108006	0	0	8191	574424	0	0
2024-10-04 04:37:47			0	37754	0	0	0	21786	20370	162947	27072	1053924	46290	108003	0	0	8191	574536	0	0
2024-10-04 04:38:47			0	37755	0	0	0	21776	20370	162951	27336	1053871	46300	107999	0	0	8191	574496	0	0
2024-10-04 04:39:47			0	37740	0	0	0	21774	20380	162955	27249	1053933	46301	107998	0	0	8191	575071	0	0
2024-10-04 04:40:47			0	37737	0	0	0	21784	20370	163031	27175	1053924	46279	108002	0	0	8190	575224	0	0
2024-10-04 04:41:47			0	37738	0	0	0	21797	20370	163143	27017	1053897	46279	108007	0	0	8190	575183	0	0
2024-10-04 04:42:47			0	37747	0	0	0	21815	20370	162959	27177	1053942	46279	108014	0	0	8190	574819	0	0
2024-10-04 04:43:47			0	37765	0	0	0	21818	20370	162987	27364	1053968	46279	108015	0	0	8191	574092	0	0
2024-10-04 04:44:47			0	37784	0	0	0	21792	20380	162935	27258	1053959	46291	108005	0	0	8193	573292	0	0
2024-10-04 04:45:47			0	37770	0	0	0	21794	20380	162935	27183	1053933	46301	108006	0	0	8192	573858	0	0
2024-10-04 04:46:47			0	37769	0	0	0	21805	20380	162907	26920	1053942	46302	108010	0	0	8192	573898	0	0
2024-10-04 04:47:47			0	37777	0	0	0	21794	20370	162863	27043	1053977	46279	108006	0	0	8192	573607	0	0
2024-10-04 04:48:47			0	37782	0	0	0	21802	20370	162803	27123	1053951	46268	108009	0	0	8193	573405	0	0
2024-10-04 04:49:47			0	37796	0	0	0	21825	20390	162743	27069	1054004	46292	108018	0	0	8193	572776	0	0
2024-10-04 04:50:47			0	37809	0	0	0	21802	20380	162691	27248	1054022	46281	108009	0	0	8194	572284	0	0
2024-10-04 04:51:47			0	37804	0	0	0	21810	20390	162699	27232	1054057	46303	108012	0	0	8194	572454	0	0
2024-10-04 04:52:47			0	37800	0	0	0	21807	20380	162767	27255	1054039	46291	108011	0	0	8194	572647	0	0
2024-10-04 04:53:47			0	37816	0	0	0	21794	20390	162771	27391	1054013	46292	108006	0	0	8195	571970	0	0
2024-10-04 04:54:47			0	37812	0	0	0	21766	20380	162643	27241	1053933	46269	107995	0	0	8195	572163	0	0
2024-10-04 04:55:47			0	37804	0	0	0	21799	20380	162711	27263	1053968	46302	108008	0	0	8194	572485	0	0
2024-10-04 04:56:47			0	37803	0	0	0	21833	20390	162687	27339	1054004	46292	108021	0	0	8193	572494	0	0
2024-10-04 04:57:47			0	37818	0	0	0	21815	20380	162671	26960	1053968	46281	108014	0	0	8194	571921	0	0
2024-10-04 04:58:47			0	37815	0	0	0	21802	20380	162583	27479	1054048	46302	108009	0	0	8195	572042	0	0
2024-10-04 04:59:47			0	37835	0	0	0	21818	20390	162707	27128	1054004	46292	108015	0	0	8195	571204	0	0
2024-10-04 05:00:47			0	37825	0	0	0	21825	20380	162739	27277	1053995	46291	108018	0	0	8195	571639	0	0
2024-10-04 05:01:47			0	37844	0	0	0	21818	20390	162555	27246	1053986	46292	108015	0	0	8196	570842	0	0
2024-10-04 05:02:47			0	37830	0	0	0	21815	20390	162579	27350	1054039	46282	108014	0	0	8195	571406	0	0
2024-10-04 05:03:47			0	37840	0	0	0	21836	20380	162579	27282	1053995	46281	108022	0	0	8195	571034	0	0
2024-10-04 05:04:47			0	37831	0	0	0	21867	20390	162659	27248	1054084	46303	108034	0	0	8194	571365	0	0
2024-10-04 05:05:47			0	37870	0	0	0	21859	20400	162579	27166	1054102	46315	108031	0	0	8197	569764	0	0
2024-10-04 05:06:47			0	37858	0	0	0	21849	20400	162439	27381	1054190	46327	108027	0	0	8196	570247	0	0
2024-10-04 05:07:47			0	37872	0	0	0	21836	20400	162495	27062	1054137	46293	108022	0	0	8197	569683	0	0
2024-10-04 05:08:47			0	37865	0	0	0	21818	20400	162531	27156	1054057	46293	108015	0	0	8197	569965	0	0
2024-10-04 05:09:47			0	37855	0	0	0	21836	20410	162491	27305	1054119	46305	108022	0	0	8196	570336	0	0
2024-10-04 05:10:47			0	37864	0	0	0	21823	20400	162519	27066	1054084	46293	108017	0	0	8197	570005	0	0
2024-10-04 05:11:47			0	37862	0	0	0	21823	20410	162511	27377	1054093	46273	108017	0	0	8197	570054	0	0
2024-10-04 05:12:47			0	37853	0	0	0	21833	20400	162519	27097	1054084	46293	108021	0	0	8196	570448	0	0
2024-10-04 05:13:47			0	37855	0	0	0	21877	20410	162539	27377	1054226	46273	108038	0	0	8196	570336	0	0
2024-10-04 05:14:47			0	37878	0	0	0	21864	20420	162439	27280	1054191	46305	108033	0	0	8197	569379	0	0
2024-10-04 05:15:47			0	37897	0	0	0	21854	20410	162363	27112	1054182	46317	108029	0	0	8199	568647	0	0
2024-10-04 05:16:47			0	37892	0	0	0	21846	20410	162351	27026	1054182	46305	108026	0	0	8198	568848	0	0
2024-10-04 05:17:47			0	37892	0	0	0	21838	20420	162287	27291	1054226	46285	108023	0	0	8199	568817	0	0
2024-10-04 05:18:47			0	37891	0	0	0	21838	20420	162315	27249	1054191	46305	108023	0	0	8199	568857	0	0
2024-10-04 05:19:47			0	37873	0	0	0	21851	20410	162263	27093	1054155	46294	108028	0	0	8197	569612	0	0
2024-10-04 05:20:47			0	37873	0	0	0	21828	20410	162239	27190	1054128	46284	108019	0	0	8198	569612	0	0
2024-10-04 05:21:47			0	37879	0	0	0	21841	20420	162395	27010	1054173	46274	108024	0	0	8198	569339	0	0
2024-10-04 05:22:47			0	37873	0	0	0	21812	20420	162407	27038	1054111	46284	108013	0	0	8198	569580	0	0
2024-10-04 05:23:47			0	37873	0	0	0	21805	20400	162383	26941	1054110	46283	108010	0	0	8198	569643	0	0
2024-10-04 05:24:47			0	37845	0	0	0	21810	20410	162435	27003	1054155	46273	108012	0	0	8196	570738	0	0
2024-10-04 05:25:47			0	37853	0	0	0	21820	20400	162499	27055	1054102	46282	108016	0	0	8197	570448	0	0
2024-10-04 05:26:47			0	37852	0	0	0	21825	20410	162531	26916	1054093	46294	108018	0	0	8196	570457	0	0
2024-10-04 05:27:47			0	37860	0	0	0	21815	20410	162463	27410	1054093	46284	108014	0	0	8197	570135	0	0
2024-10-04 05:28:47			0	37861	0	0	0	21838	20400	162547	27048	1054075	46292	108023	0	0	8197	570126	0	0
2024-10-04 05:29:47			0	37874	0	0	0	21833	20400	162507	27010	1054137	46283	108021	0	0	8198	569603	0	0
2024-10-04 05:30:47			0	37865	0	0	0	21841	20420	162411	26944	1054191	46284	108024	0	0	8197	569902	0	0
2024-10-04 05:31:47			0	37853	0	0	0	21851	20420	162463	26896	1054226	46318	108028	0	0	8196	570385	0	0
2024-10-04 05:32:47			0	37881	0	0	0	21831	20410	162387	26812	1054128	46305	108020	0	0	8198	569290	0	0
2024-10-04 05:33:47			0	37876	0	0	0	21831	20420	162411	26875	1054111	46294	108020	0	0	8198	569460	0	0
2024-10-04 05:34:47			0	37861	0	0	0	21823	20410	162439	27130	1054155	46294	108017	0	0	8197	570095	0	0
2024-10-04 05:35:47			0	37846	0	0	0	21833	20410	162603	27053	1054119	46284	108021	0	0	8196	570698	0	0
2024-10-04 05:36:47			0	37868	0	0	0	21820	20420	162523	27410	1054164	46284	108016	0	0	8198	569781	0	0
2024-10-04 05:37:47			0	37856	0	0	0	21812	20410	162647	26996	1054182	46284	108013	0	0	8197	570296	0	0
2024-10-04 05:38:47			0	37835	0	0	0	21815	20410	162595	27029	1054093	46273	108014	0	0	8196	571141	0	0
2024-10-04 05:39:47			0	37856	0	0	0	21820	20410	162635	27183	1054128	46294	108016	0	0	8197	570296	0	0
2024-10-04 05:40:47			0	37849	0	0	0	21818	20410	162567	27062	1054155	46294	108015	0	0	8196	570577	0	0
2024-10-04 05:41:47			0	37851	0	0	0	21823	20410	162563	27119	1054146	46284	108017	0	0	8196	570497	0	0
2024-10-04 05:42:47			0	37845	0	0	0	21823	20400	162611	26981	1054110	46293	108017	0	0	8196	570770	0	0
2024-10-04 05:43:47			0	37863	0	0	0	21820	20410	162591	27225	1054119	46294	108016	0	0	8197	570014	0	0
2024-10-04 05:44:47			0	37868	0	0	0	21807	20410	162531	26922	1054155	46294	108011	0	0	8198	569813	0	0
2024-10-04 05:45:47			0	37866	0	0	0	21820	20400	162571	27261	1054110	46283	108016	0	0	8197	569925	0	0
2024-10-04 05:46:47			0	37854	0	0	0	21810	20410	162483	27282	1054146	46305	108012	0	0	8197	570376	0	0
2024-10-04 05:47:47			0	37853	0	0	0	21807	20410	162511	27064	1054093	46284	108011	0	0	8197	570416	0	0
2024-10-04 05:48:47			0	37861	0	0	0	21820	20410	162511	26932	1054075	46294	108016	0	0	8197	570095	0	0
2024-10-04 05:49:47			0	37863	0	0	0	21823	20410	162535	27140	1054093	46284	108017	0	0	8197	570014	0	0
2024-10-04 05:50:47			0	37866	0	0	0	21841	20400	162567	27272	1054084	46293	108024	0	0	8197	569925	0	0
2024-10-04 05:51:47			0	37859	0	0	0	21807	20400	162487	27268	1054110	46293	108011	0	0	8197	570206	0	0
2024-10-04 05:52:47			0	37868	0	0	0	21831	20410	162555	27107	1054093	46294	108020	0	0	8197	569813	0	0
2024-10-04 05:53:47			0	37865	0	0	0	21823	20410	162467	26767	1054119	46284	108017	0	0	8197	569934	0	0
2024-10-04 05:54:47			0	37873	0	0	0	21815	20420	162435	27183	1054111	46262	108014	0	0	8198	569580	0	0
2024-10-04 05:55:47			0	37881	0	0	0	21786	20400	162431	27248	1054057	46293	108003	0	0	8199	569322	0	0
2024-10-04 05:56:47			0	37876	0	0	0	21799	20410	162535	26882	1054066	46262	108008	0	0	8198	569491	0	0
2024-10-04 05:57:47			0	37854	0	0	0	21818	20400	162595	27220	1054048	46282	108015	0	0	8197	570408	0	0
2024-10-04 05:58:47			0	37845	0	0	0	21794	20400	162455	27275	1054102	46292	108006	0	0	8197	570770	0	0
2024-10-04 05:59:47			0	37846	0	0	0	21794	20400	162447	27112	1054004	46283	108006	0	0	8197	570730	0	0
2024-10-04 06:00:47			0	37854	0	0	0	21818	20400	162515	26809	1054075	46282	108015	0	0	8197	570408	0	0
2024-10-04 06:01:47			0	37853	0	0	0	21818	20400	162579	27024	1054031	46283	108015	0	0	8197	570448	0	0
2024-10-04 06:02:47			0	37848	0	0	0	21828	20400	162475	27150	1054102	46282	108019	0	0	8196	570649	0	0
2024-10-04 06:03:47			0	37852	0	0	0	21825	20390	162431	27135	1054066	46292	108018	0	0	8196	570520	0	0
2024-10-04 06:04:47			0	37872	0	0	0	21820	20400	162451	27133	1054110	46283	108016	0	0	8198	569683	0	0
2024-10-04 06:05:47			0	37893	0	0	0	21820	20400	162443	27059	1054102	46282	108016	0	0	8199	568840	0	0
2024-10-04 06:06:47			0	37893	0	0	0	21831	20390	162359	26963	1054119	46292	108020	0	0	8199	568871	0	0
2024-10-04 06:07:47			0	37895	0	0	0	21825	20400	162379	26771	1054137	46283	108018	0	0	8199	568759	0	0
2024-10-04 06:08:47			0	37903	0	0	0	21825	20400	162295	27029	1054048	46282	108018	0	0	8199	568438	0	0
2024-10-04 06:09:47			0	37922	0	0	0	21823	20400	162223	27187	1054031	46293	108017	0	0	8201	567675	0	0
2024-10-04 06:10:47			0	37899	0	0	0	21825	20390	162343	27017	1054093	46282	108018	0	0	8199	568630	0	0
2024-10-04 06:11:47			0	37930	0	0	0	21812	20400	162299	26817	1054084	46293	108013	0	0	8201	567354	0	0
2024-10-04 06:12:47			0	37920	0	0	0	21797	20400	162311	27183	1054110	46293	108007	0	0	8201	567756	0	0
2024-10-04 06:13:47			0	37921	0	0	0	21789	20400	162347	27140	1054048	46271	108004	0	0	8201	567715	0	0
2024-10-04 06:14:47			0	37886	0	0	0	21781	20400	162383	27208	1054057	46272	108001	0	0	8199	569121	0	0
2024-10-04 06:15:47			0	37872	0	0	0	21797	20390	162391	27164	1053951	46271	108007	0	0	8198	569715	0	0
2024-10-04 06:16:47			0	37871	0	0	0	21802	20400	162499	26875	1054075	46271	108009	0	0	8198	569724	0	0
2024-10-04 06:17:47			0	37868	0	0	0	21805	20400	162483	27065	1054075	46282	108010	0	0	8198	569844	0	0
2024-10-04 06:18:47			0	37868	0	0	0	21812	20390	162359	27183	1054013	46292	108013	0	0	8198	569876	0	0
2024-10-04 06:19:47			0	37889	0	0	0	21810	20390	162475	27026	1054004	46271	108012	0	0	8199	569032	0	0
2024-10-04 06:20:47			0	37872	0	0	0	21805	20390	162475	27027	1054066	46292	108010	0	0	8198	569715	0	0
2024-10-04 06:21:47			0	37880	0	0	0	21825	20390	162475	27377	1054066	46260	108018	0	0	8198	569393	0	0
2024-10-04 06:22:47			0	37886	0	0	0	21815	20400	162319	27088	1054031	46283	108014	0	0	8199	569121	0	0
2024-10-04 06:23:47			0	37886	0	0	0	21818	20400	162411	26949	1054128	46315	108015	0	0	8199	569121	0	0
2024-10-04 06:24:47			0	37897	0	0	0	21815	20390	162343	27206	1054084	46282	108014	0	0	8199	568710	0	0
2024-10-04 06:25:47			0	37887	0	0	0	21805	20390	162275	26908	1054084	46292	108010	0	0	8199	569112	0	0
2024-10-04 06:26:47			0	37892	0	0	0	21786	20400	162391	26979	1054084	46272	108003	0	0	8199	568880	0	0
2024-10-04 06:27:47			0	37861	0	0	0	21797	20400	162375	27206	1053969	46282	108007	0	0	8197	570126	0	0
2024-10-04 06:28:47			0	37876	0	0	0	21802	20390	162435	27159	1053986	46282	108009	0	0	8198	569554	0	0
2024-10-04 06:29:47			0	37864	0	0	0	21812	20390	162407	27059	1054057	46303	108013	0	0	8197	570037	0	0
2024-10-04 06:30:47			0	37878	0	0	0	21815	20400	162531	27251	1054075	46282	108014	0	0	8198	569442	0	0
2024-10-04 06:31:47			0	37872	0	0	0	21792	20390	162411	27293	1054057	46282	108005	0	0	8198	569715	0	0
2024-10-04 06:32:47			0	37890	0	0	0	21794	20390	162295	27396	1054066	46271	108006	0	0	8199	568992	0	0
2024-10-04 06:33:47			0	37860	0	0	0	21797	20390	162391	27045	1054039	46303	108007	0	0	8197	570198	0	0
2024-10-04 06:34:47			0	37889	0	0	0	21805	20390	162311	26998	1054057	46271	108010	0	0	8199	569032	0	0
2024-10-04 06:35:47			0	37878	0	0	0	21815	20400	162327	27249	1054075	46282	108014	0	0	8198	569442	0	0
2024-10-04 06:36:47			0	37876	0	0	0	21812	20390	162319	27331	1054057	46292	108013	0	0	8198	569554	0	0
2024-10-04 06:37:47			0	37879	0	0	0	21786	20380	162315	27140	1053995	46281	108003	0	0	8199	569465	0	0
2024-10-04 06:38:47			0	37871	0	0	0	21779	20380	162479	27177	1054013	46280	108000	0	0	8198	569787	0	0
2024-10-04 06:39:47			0	37868	0	0	0	21786	20390	162427	27329	1054004	46271	108003	0	0	8198	569876	0	0
2024-10-04 06:40:47			0	37864	0	0	0	21786	20390	162487	27144	1054057	46271	108003	0	0	8198	570037	0	0
2024-10-04 06:41:47			0	37866	0	0	0	21794	20380	162535	27300	1054022	46270	108006	0	0	8198	569988	0	0
2024-10-04 06:42:47			0	37869	0	0	0	21781	20380	162399	27279	1053968	46281	108001	0	0	8198	569867	0	0
2024-10-04 06:43:47			0	37860	0	0	0	21799	20370	162483	27410	1053977	46300	108008	0	0	8197	570261	0	0
2024-10-04 06:44:47			0	37861	0	0	0	21802	20380	162575	27003	1053942	46291	108009	0	0	8197	570189	0	0
2024-10-04 06:45:47			0	37866	0	0	0	21792	20380	162463	27190	1053986	46291	108005	0	0	8198	569988	0	0
2024-10-04 06:46:47			0	37859	0	0	0	21797	20380	162431	27039	1054013	46280	108007	0	0	8197	570270	0	0
2024-10-04 06:47:47			0	37855	0	0	0	21784	20380	162487	27319	1054039	46291	108002	0	0	8197	570430	0	0
2024-10-04 06:48:47			0	37860	0	0	0	21789	20380	162443	27421	1053959	46269	108004	0	0	8197	570229	0	0
2024-10-04 06:49:47			0	37860	0	0	0	21784	20370	162427	27249	1053924	46300	108002	0	0	8197	570261	0	0
2024-10-04 06:50:47			0	37854	0	0	0	21779	20370	162539	27301	1053915	46257	108000	0	0	8197	570502	0	0
2024-10-04 06:51:47			0	37867	0	0	0	21776	20380	162483	27105	1053942	46270	107999	0	0	8198	569948	0	0
2024-10-04 06:52:47			0	37857	0	0	0	21766	20370	162423	27232	1053915	46257	107995	0	0	8198	570381	0	0
2024-10-04 06:53:47			0	37866	0	0	0	21781	20360	162507	27180	1053906	46279	108001	0	0	8198	570051	0	0
2024-10-04 06:54:47			0	37866	0	0	0	21771	20360	162559	27289	1053959	46279	107997	0	0	8198	570051	0	0
2024-10-04 06:55:47			0	37862	0	0	0	21768	20370	162435	27305	1053915	46279	107996	0	0	8198	570180	0	0
2024-10-04 06:56:47			0	37853	0	0	0	21761	20370	162635	27242	1053924	46268	107993	0	0	8197	570542	0	0
2024-10-04 06:57:47			0	37846	0	0	0	21755	20360	162607	27138	1053871	46278	107991	0	0	8197	570856	0	0
2024-10-04 06:58:47			0	37841	0	0	0	21766	20350	162603	27282	1053835	46277	107995	0	0	8197	571089	0	0
2024-10-04 06:59:47			0	37822	0	0	0	21768	20350	162575	27568	1053879	46288	107996	0	0	8195	571854	0	0
2024-10-04 07:00:47			0	37838	0	0	0	21763	20350	162563	27578	1053862	46298	107994	0	0	8196	571210	0	0
2024-10-04 07:01:47			0	37841	0	0	0	21753	20350	162699	27353	1053862	46266	107990	0	0	8197	571089	0	0
2024-10-04 07:02:47			0	37833	0	0	0	21761	20350	162531	27183	1053853	46266	107993	0	0	8196	571411	0	0
2024-10-04 07:03:47			0	37834	0	0	0	21742	20340	162567	27365	1053791	46266	107986	0	0	8196	571402	0	0
2024-10-04 07:04:47			0	37844	0	0	0	21753	20340	162607	27370	1053764	46277	107990	0	0	8197	570999	0	0
2024-10-04 07:05:47			0	37815	0	0	0	21737	20340	162603	27171	1053791	46277	107984	0	0	8195	572168	0	0
2024-10-04 07:06:47			0	37818	0	0	0	21719	20340	162595	27150	1053791	46277	107977	0	0	8196	572047	0	0
2024-10-04 07:07:47			0	37793	0	0	0	21719	20340	162683	27241	1053808	46265	107977	0	0	8194	573056	0	0
2024-10-04 07:08:47			0	37799	0	0	0	21729	20330	162683	27215	1053657	46275	107981	0	0	8195	572845	0	0
2024-10-04 07:09:47			0	37794	0	0	0	21711	20340	162723	27206	1053702	46265	107974	0	0	8195	573015	0	0
2024-10-04 07:10:47			0	37797	0	0	0	21711	20330	162843	27362	1053710	46286	107974	0	0	8195	572926	0	0
2024-10-04 07:11:47			0	37773	0	0	0	21722	20320	162711	27232	1053648	46275	107978	0	0	8193	573927	0	0
2024-10-04 07:12:47			0	37785	0	0	0	21711	20320	162739	26899	1053639	46263	107974	0	0	8194	573442	0	0
2024-10-04 07:13:47			0	37796	0	0	0	21722	20320	162803	27286	1053639	46274	107978	0	0	8194	572998	0	0
2024-10-04 07:14:47			0	37784	0	0	0	21719	20310	162743	27147	1053710	46294	107977	0	0	8194	573514	0	0
2024-10-04 07:15:47			0	37784	0	0	0	21719	20310	162831	27531	1053657	46273	107977	0	0	8194	573514	0	0
2024-10-04 07:16:47			0	37793	0	0	0	21719	20310	162871	26968	1053657	46273	107977	0	0	8194	573151	0	0
2024-10-04 07:17:47			0	37792	0	0	0	21735	20310	162759	26896	1053701	46272	107983	0	0	8194	573191	0	0
2024-10-04 07:18:47			0	37805	0	0	0	21745	20310	162803	27133	1053657	46294	107987	0	0	8195	572666	0	0
2024-10-04 07:19:47			0	37812	0	0	0	21719	20310	162691	27239	1053675	46272	107977	0	0	8195	572384	0	0
2024-10-04 07:20:47			0	37820	0	0	0	21716	20310	162767	27225	1053630	46273	107976	0	0	8196	572061	0	0
2024-10-04 07:21:47			0	37816	0	0	0	21729	20310	162591	26928	1053657	46284	107981	0	0	8195	572223	0	0
2024-10-04 07:22:47			0	37837	0	0	0	21735	20310	162675	26946	1053675	46283	107983	0	0	8197	571376	0	0
2024-10-04 07:23:47			0	37831	0	0	0	21735	20310	162699	27483	1053710	46262	107983	0	0	8196	571618	0	0
2024-10-04 07:24:47			0	37825	0	0	0	21732	20320	162619	27388	1053701	46275	107982	0	0	8196	571828	0	0
2024-10-04 07:25:47			0	37821	0	0	0	21729	20310	162695	27085	1053675	46272	107981	0	0	8196	572021	0	0
2024-10-04 07:26:47			0	37842	0	0	0	21729	20310	162655	26847	1053701	46272	107981	0	0	8197	571175	0	0
2024-10-04 07:27:47			0	37825	0	0	0	21729	20310	162679	27194	1053710	46284	107981	0	0	8196	571860	0	0
2024-10-04 07:28:47			0	37836	0	0	0	21729	20320	162683	27346	1053719	46285	107981	0	0	8197	571385	0	0
2024-10-04 07:29:47			0	37828	0	0	0	21727	20310	162679	27300	1053675	46272	107980	0	0	8196	571739	0	0
2024-10-04 07:30:47			0	37825	0	0	0	21719	20310	162647	27386	1053657	46273	107977	0	0	8196	571860	0	0
2024-10-04 07:31:47			0	37837	0	0	0	21724	20310	162595	26977	1053648	46272	107979	0	0	8197	571376	0	0
2024-10-04 07:32:47			0	37806	0	0	0	21719	20300	162575	27163	1053630	46272	107977	0	0	8195	572658	0	0
2024-10-04 07:33:47			0	37824	0	0	0	21711	20310	162711	27187	1053648	46272	107974	0	0	8196	571900	0	0
2024-10-04 07:34:47			0	37814	0	0	0	21698	20300	162683	26724	1053559	46272	107969	0	0	8196	572335	0	0
2024-10-04 07:35:47			0	37812	0	0	0	21696	20310	162651	26975	1053604	46262	107968	0	0	8196	572384	0	0
2024-10-04 07:36:47			0	37803	0	0	0	21698	20300	162723	27369	1053612	46250	107969	0	0	8195	572779	0	0
2024-10-04 07:37:47			0	37794	0	0	0	21701	20300	162755	27281	1053550	46272	107970	0	0	8195	573142	0	0
2024-10-04 07:38:47			0	37805	0	0	0	21690	20290	162771	27164	1053559	46270	107966	0	0	8195	572730	0	0
2024-10-04 07:39:47			0	37788	0	0	0	21685	20290	162851	26956	1053559	46259	107964	0	0	8194	573416	0	0
2024-10-04 07:40:47			0	37792	0	0	0	21693	20280	162879	27265	1053497	46281	107967	0	0	8195	573286	0	0
2024-10-04 07:41:47			0	37783	0	0	0	21693	20290	162819	27225	1053479	46259	107967	0	0	8194	573618	0	0
2024-10-04 07:42:47			0	37780	0	0	0	21711	20290	162883	27185	1053506	46259	107974	0	0	8194	573739	0	0
2024-10-04 07:43:47			0	37783	0	0	0	21703	20280	162831	27140	1053524	46259	107971	0	0	8194	573650	0	0
2024-10-04 07:44:47			0	37796	0	0	0	21696	20290	162835	27371	1053612	46259	107968	0	0	8195	573093	0	0
2024-10-04 07:45:47			0	37790	0	0	0	21701	20280	162851	27177	1053497	46270	107970	0	0	8194	573367	0	0
2024-10-04 07:46:47			0	37786	0	0	0	21693	20280	162899	27203	1053524	46291	107967	0	0	8194	573528	0	0
2024-10-04 07:47:47			0	37781	0	0	0	21690	20280	162751	27072	1053470	46270	107966	0	0	8194	573730	0	0
2024-10-04 07:48:47			0	37778	0	0	0	21670	20280	162831	27194	1053470	46259	107958	0	0	8194	573852	0	0
2024-10-04 07:49:47			0	37788	0	0	0	21667	20280	162723	27208	1053461	46270	107957	0	0	8195	573448	0	0
2024-10-04 07:50:47			0	37788	0	0	0	21659	20280	162835	26687	1053408	46270	107954	0	0	8195	573448	0	0
2024-10-04 07:51:47			0	37792	0	0	0	21670	20270	162871	27495	1053426	46247	107958	0	0	8195	573318	0	0
2024-10-04 07:52:47			0	37799	0	0	0	21683	20280	162827	26876	1053488	46259	107963	0	0	8195	573004	0	0
2024-10-04 07:53:47			0	37799	0	0	0	21670	20270	162799	27270	1053470	46279	107958	0	0	8195	573035	0	0
2024-10-04 07:54:47			0	37796	0	0	0	21672	20260	162719	27320	1053435	46268	107959	0	0	8195	573188	0	0
2024-10-04 07:55:47			0	37787	0	0	0	21659	20270	162795	27301	1053364	46268	107954	0	0	8195	573520	0	0
2024-10-04 07:56:47			0	37798	0	0	0	21644	20260	162743	26902	1053373	46246	107948	0	0	8196	573107	0	0
2024-10-04 07:57:47			0	37795	0	0	0	21654	20260	162947	26767	1053373	46268	107952	0	0	8195	573228	0	0
2024-10-04 07:58:47			0	37772	0	0	0	21649	20250	162879	27211	1053364	46256	107950	0	0	8194	574189	0	0
2024-10-04 07:59:47			0	37790	0	0	0	21667	20240	162863	27090	1053408	46277	107957	0	0	8195	573493	0	0
2024-10-04 08:00:47			0	37798	0	0	0	21680	20240	162851	27327	1053355	46288	107962	0	0	8195	573170	0	0
2024-10-04 08:01:47			0	37824	0	0	0	21670	20250	162779	26998	1053390	46267	107958	0	0	8197	572090	0	0
2024-10-04 08:02:47			0	37813	0	0	0	21664	20260	162791	27216	1053399	46290	107956	0	0	8196	572502	0	0
2024-10-04 08:03:47			0	37819	0	0	0	21657	20240	162771	27057	1053328	46266	107953	0	0	8197	572323	0	0
2024-10-04 08:04:47			0	37816	0	0	0	21677	20240	162799	27220	1053408	46255	107961	0	0	8196	572444	0	0
2024-10-04 08:05:47			0	37818	0	0	0	21662	20240	162771	26889	1053399	46265	107955	0	0	8196	572363	0	0
2024-10-04 08:06:47			0	37840	0	0	0	21664	20250	162779	27041	1053443	46256	107956	0	0	8198	571445	0	0
2024-10-04 08:07:47			0	37834	0	0	0	21662	20260	162719	27104	1053426	46279	107955	0	0	8197	571655	0	0
2024-10-04 08:08:47			0	37826	0	0	0	21664	20230	162707	27067	1053390	46276	107956	0	0	8197	572072	0	0
2024-10-04 08:09:47			0	37840	0	0	0	21659	20250	162715	27024	1053364	46289	107954	0	0	8198	571445	0	0
2024-10-04 08:10:47			0	37829	0	0	0	21654	20240	162735	27479	1053355	46288	107952	0	0	8197	571920	0	0
2024-10-04 08:11:47			0	37842	0	0	0	21659	20250	162715	26831	1053364	46289	107954	0	0	8198	571364	0	0
2024-10-04 08:12:47			0	37820	0	0	0	21654	20240	162671	27159	1053372	46265	107952	0	0	8197	572283	0	0
2024-10-04 08:13:47			0	37841	0	0	0	21646	20240	162643	26760	1053381	46255	107949	0	0	8198	571436	0	0
2024-10-04 08:14:47			0	37854	0	0	0	21654	20240	162767	26852	1053319	46265	107952	0	0	8199	570912	0	0
2024-10-04 08:15:47			0	37841	0	0	0	21657	20240	162727	27003	1053372	46265	107953	0	0	8198	571436	0	0
2024-10-04 08:16:47			0	37841	0	0	0	21662	20230	162715	27098	1053355	46265	107955	0	0	8198	571467	0	0
2024-10-04 08:17:47			0	37857	0	0	0	21667	20240	162747	27140	1053452	46254	107957	0	0	8199	570791	0	0
2024-10-04 08:18:47			0	37835	0	0	0	21675	20240	162643	26982	1053426	46276	107960	0	0	8197	571678	0	0
2024-10-04 08:19:47			0	37849	0	0	0	21670	20240	162679	27320	1053372	46265	107958	0	0	8198	571113	0	0
2024-10-04 08:20:47			0	37852	0	0	0	21672	20240	162667	27182	1053399	46276	107959	0	0	8198	570993	0	0
2024-10-04 08:21:47			0	37843	0	0	0	21670	20240	162667	26977	1053399	46254	107958	0	0	8198	571355	0	0
2024-10-04 08:22:47			0	37846	0	0	0	21664	20250	162635	27569	1053390	46278	107956	0	0	8198	571203	0	0
2024-10-04 08:23:47			0	37854	0	0	0	21657	20250	162507	27237	1053443	46245	107953	0	0	8199	570880	0	0
2024-10-04 08:24:47			0	37861	0	0	0	21646	20250	162463	27365	1053417	46267	107949	0	0	8199	570599	0	0
2024-10-04 08:25:47			0	37842	0	0	0	21644	20230	162479	27031	1053337	46287	107948	0	0	8198	571427	0	0
2024-10-04 08:26:47			0	37876	0	0	0	21646	20240	162571	27163	1053381	46255	107949	0	0	8200	570026	0	0
2024-10-04 08:27:47			0	37880	0	0	0	21654	20240	162495	27261	1053372	46265	107952	0	0	8200	569865	0	0
2024-10-04 08:28:47			0	37892	0	0	0	21672	20230	162507	26977	1053390	46254	107959	0	0	8201	569414	0	0
2024-10-04 08:29:47			0	37894	0	0	0	21664	20240	162383	27102	1053346	46287	107956	0	0	8201	569302	0	0
2024-10-04 08:30:47			0	37926	0	0	0	21659	20230	162415	27095	1053310	46265	107954	0	0	8203	568048	0	0
2024-10-04 08:31:47			0	37935	0	0	0	21651	20240	162311	27261	1053399	46254	107951	0	0	8204	567655	0	0
2024-10-04 08:32:47			0	37915	0	0	0	21667	20240	162315	26845	1053435	46255	107957	0	0	8202	568458	0	0
2024-10-04 08:33:47			0	37911	0	0	0	21667	20250	162383	27138	1053417	46278	107957	0	0	8202	568588	0	0
2024-10-04 08:34:47			0	37941	0	0	0	21667	20230	162323	26897	1053443	46254	107957	0	0	8204	567446	0	0
2024-10-04 08:35:47			0	37944	0	0	0	21657	20240	162319	27246	1053399	46265	107953	0	0	8204	567294	0	0
2024-10-04 08:36:47			0	37938	0	0	0	21662	20240	162315	27137	1053381	46266	107955	0	0	8204	567535	0	0
2024-10-04 08:37:47			0	37945	0	0	0	21662	20240	162203	27313	1053399	46276	107955	0	0	8204	567254	0	0
2024-10-04 08:38:47			0	37941	0	0	0	21690	20240	162279	27093	1053399	46276	107966	0	0	8203	567415	0	0
2024-10-04 08:39:47			0	37950	0	0	0	21680	20240	162255	27050	1053399	46265	107962	0	0	8204	567054	0	0
2024-10-04 08:40:47			0	37972	0	0	0	21685	20230	162207	27225	1053417	46265	107964	0	0	8205	566203	0	0
2024-10-04 08:41:47			0	37995	0	0	0	21683	20240	162135	27227	1053488	46277	107963	0	0	8207	565251	0	0
2024-10-04 08:42:47			0	37978	0	0	0	21685	20240	162167	26706	1053435	46277	107964	0	0	8205	565931	0	0
2024-10-04 08:43:47			0	37985	0	0	0	21693	20240	162015	26930	1053435	46266	107967	0	0	8206	565651	0	0
2024-10-04 08:44:47			0	37999	0	0	0	21698	20250	161939	27255	1053497	46278	107969	0	0	8207	565059	0	0
2024-10-04 08:45:47			0	38002	0	0	0	21693	20250	161955	27043	1053443	46267	107967	0	0	8207	564939	0	0
2024-10-04 08:46:47			0	38026	0	0	0	21690	20260	161916	27213	1053506	46279	107966	0	0	8208	563948	0	0
2024-10-04 08:47:47			0	38009	0	0	0	21688	20260	161995	27346	1053506	46279	107965	0	0	8207	564628	0	0
2024-10-04 08:48:47			0	38011	0	0	0	21688	20260	162007	27230	1053408	46268	107965	0	0	8207	564548	0	0
2024-10-04 08:49:47			0	38027	0	0	0	21677	20260	161940	27324	1053479	46257	107961	0	0	8209	563909	0	0
2024-10-04 08:50:47			0	38001	0	0	0	21672	20260	161991	27400	1053452	46268	107959	0	0	8207	564948	0	0
2024-10-04 08:51:47			0	38023	0	0	0	21685	20240	161935	27312	1053399	46243	107964	0	0	8208	564131	0	0
2024-10-04 08:52:47			0	38023	0	0	0	21696	20260	162019	27322	1053479	46290	107968	0	0	8208	564068	0	0
2024-10-04 08:53:47			0	38035	0	0	0	21696	20260	161964	27209	1053461	46268	107968	0	0	8209	563589	0	0
2024-10-04 08:54:47			0	38050	0	0	0	21693	20260	161852	27505	1053541	46268	107967	0	0	8210	562990	0	0
2024-10-04 08:55:47			0	38048	0	0	0	21677	20260	161884	27339	1053452	46279	107961	0	0	8210	563070	0	0
2024-10-04 08:56:47			0	38045	0	0	0	21688	20260	161840	27341	1053541	46257	107965	0	0	8209	563190	0	0
2024-10-04 08:57:47			0	38045	0	0	0	21657	20260	161904	27235	1053435	46257	107953	0	0	8210	563190	0	0
2024-10-04 08:58:47			0	38034	0	0	0	21675	20260	161940	27748	1053515	46257	107960	0	0	8209	563629	0	0
2024-10-04 08:59:47			0	38038	0	0	0	21703	20260	161936	27324	1053515	46257	107971	0	0	8209	563469	0	0
2024-10-04 09:00:47			0	38018	0	0	0	21703	20270	161935	27144	1053523	46279	107971	0	0	8208	564237	0	0
2024-10-04 09:01:47			0	38027	0	0	0	21690	20260	161884	27135	1053515	46268	107966	0	0	8208	563909	0	0
2024-10-04 09:02:47			0	38028	0	0	0	21696	20270	161919	27156	1053497	46279	107968	0	0	8208	563837	0	0
2024-10-04 09:03:47			0	38039	0	0	0	21667	20260	161916	27208	1053479	46268	107957	0	0	8209	563429	0	0
2024-10-04 09:04:47			0	38029	0	0	0	21696	20260	161976	27036	1053461	46268	107968	0	0	8208	563829	0	0
2024-10-04 09:05:47			0	38033	0	0	0	21711	20260	161932	27020	1053488	46279	107974	0	0	8208	563669	0	0
2024-10-04 09:06:47			0	38027	0	0	0	21677	20260	161968	27194	1053506	46290	107961	0	0	8209	563909	0	0
2024-10-04 09:07:47			0	38023	0	0	0	21698	20260	161975	27372	1053488	46268	107969	0	0	8208	564068	0	0
2024-10-04 09:08:47			0	38018	0	0	0	21690	20260	162019	27414	1053515	46268	107966	0	0	8208	564268	0	0
2024-10-04 09:09:47			0	38023	0	0	0	21688	20270	161903	27352	1053532	46269	107965	0	0	8208	564037	0	0
2024-10-04 09:10:47			0	38037	0	0	0	21698	20270	161944	27093	1053523	46268	107969	0	0	8209	563478	0	0
2024-10-04 09:11:47			0	38033	0	0	0	21675	20270	161920	27256	1053532	46291	107960	0	0	8209	563638	0	0
2024-10-04 09:12:47			0	38030	0	0	0	21667	20270	161872	27178	1053506	46258	107957	0	0	8209	563758	0	0
2024-10-04 09:13:47			0	38022	0	0	0	21680	20260	162063	27279	1053506	46257	107962	0	0	8208	564108	0	0
2024-10-04 09:14:47			0	38022	0	0	0	21680	20260	161959	27315	1053479	46268	107962	0	0	8208	564108	0	0
2024-10-04 09:15:47			0	38017	0	0	0	21672	20270	161979	27010	1053497	46268	107959	0	0	8208	564277	0	0
2024-10-04 09:16:47			0	38032	0	0	0	21662	20250	161960	26923	1053470	46267	107955	0	0	8209	563740	0	0
2024-10-04 09:17:47			0	38023	0	0	0	21680	20260	161935	26868	1053452	46257	107962	0	0	8208	564068	0	0
2024-10-04 09:18:47			0	38024	0	0	0	21680	20260	161979	27445	1053488	46268	107962	0	0	8208	564028	0	0
2024-10-04 09:19:47			0	38019	0	0	0	21690	20260	162047	27156	1053452	46268	107966	0	0	8208	564228	0	0
2024-10-04 09:20:47			0	38031	0	0	0	21690	20260	162080	27137	1053515	46257	107966	0	0	8209	563749	0	0
2024-10-04 09:21:47			0	38024	0	0	0	21685	20260	162003	27102	1053461	46268	107964	0	0	8208	564028	0	0
2024-10-04 09:22:47			0	38026	0	0	0	21683	20270	162024	27017	1053497	46257	107963	0	0	8208	563917	0	0
2024-10-04 09:23:47			0	38055	0	0	0	21683	20260	161928	27150	1053461	46268	107963	0	0	8210	562790	0	0
2024-10-04 09:24:47			0	38028	0	0	0	21693	20260	162024	27315	1053488	46257	107967	0	0	8208	563869	0	0
2024-10-04 09:25:47			0	38041	0	0	0	21693	20260	161936	27251	1053515	46268	107967	0	0	8209	563349	0	0
2024-10-04 09:26:47			0	38045	0	0	0	21690	20270	161964	27121	1053523	46257	107966	0	0	8209	563158	0	0
2024-10-04 09:27:47			0	38059	0	0	0	21683	20270	161800	27093	1053506	46280	107963	0	0	8210	562600	0	0
2024-10-04 09:28:47			0	38064	0	0	0	21701	20270	161736	27034	1053497	46257	107970	0	0	8210	562400	0	0
2024-10-04 09:29:47			0	38067	0	0	0	21685	20280	161792	27206	1053461	46259	107964	0	0	8211	562249	0	0
2024-10-04 09:30:47			0	38059	0	0	0	21677	20260	161768	27265	1053488	46257	107961	0	0	8210	562631	0	0
2024-10-04 09:31:47			0	38062	0	0	0	21675	20270	161888	27123	1053532	46269	107960	0	0	8211	562480	0	0
2024-10-04 09:32:47			0	38081	0	0	0	21675	20270	161796	27105	1053523	46268	107960	0	0	8212	561722	0	0
2024-10-04 09:33:47			0	38080	0	0	0	21672	20270	161768	27159	1053470	46246	107959	0	0	8212	561762	0	0
2024-10-04 09:34:47			0	38073	0	0	0	21667	20260	161708	26937	1053541	46268	107957	0	0	8211	562072	0	0
2024-10-04 09:35:47			0	38089	0	0	0	21672	20260	161828	27088	1053479	46268	107959	0	0	8212	561434	0	0
2024-10-04 09:36:47			0	38089	0	0	0	21688	20260	161768	27301	1053435	46257	107965	0	0	8212	561434	0	0
2024-10-04 09:37:47			0	38087	0	0	0	21696	20260	161684	26885	1053479	46279	107968	0	0	8212	561514	0	0
2024-10-04 09:38:47			0	38084	0	0	0	21701	20260	161768	26930	1053488	46257	107970	0	0	8212	561634	0	0
2024-10-04 09:39:47			0	38100	0	0	0	21693	20260	161732	27001	1053541	46257	107967	0	0	8213	560996	0	0
2024-10-04 09:40:47			0	38099	0	0	0	21685	20260	161608	27118	1053452	46268	107964	0	0	8213	561036	0	0
2024-10-04 09:41:47			0	38111	0	0	0	21696	20270	161772	26878	1053523	46268	107968	0	0	8213	560527	0	0
2024-10-04 09:42:47			0	38098	0	0	0	21703	20260	161700	27005	1053488	46279	107971	0	0	8212	561076	0	0
2024-10-04 09:43:47			0	38098	0	0	0	21698	20270	161688	27306	1053532	46280	107969	0	0	8212	561045	0	0
2024-10-04 09:44:47			0	38115	0	0	0	21703	20270	161728	27038	1053523	46268	107971	0	0	8213	560368	0	0
2024-10-04 09:45:47			0	38106	0	0	0	21716	20270	161616	27093	1053603	46257	107976	0	0	8213	560726	0	0
2024-10-04 09:46:47			0	38124	0	0	0	21722	20270	161608	27376	1053612	46280	107978	0	0	8214	560010	0	0
2024-10-04 09:47:47			0	38139	0	0	0	21727	20280	161528	26975	1053594	46270	107980	0	0	8214	559382	0	0
2024-10-04 09:48:47			0	38147	0	0	0	21727	20280	161388	27124	1053630	46291	107980	0	0	8215	559064	0	0
2024-10-04 09:49:47			0	38161	0	0	0	21722	20280	161560	27043	1053648	46270	107978	0	0	8216	558508	0	0
2024-10-04 09:50:47			0	38154	0	0	0	21737	20290	161548	27218	1053621	46292	107984	0	0	8215	558755	0	0
2024-10-04 09:51:47			0	38150	0	0	0	21750	20290	161424	27237	1053665	46270	107989	0	0	8215	558914	0	0
2024-10-04 09:52:47			0	38163	0	0	0	21750	20290	161460	27234	1053745	46259	107989	0	0	8215	558398	0	0
2024-10-04 09:53:47			0	38167	0	0	0	21766	20290	161428	27455	1053728	46304	107995	0	0	8215	558239	0	0
2024-10-04 09:54:47			0	38182	0	0	0	21776	20300	161220	27003	1053772	46283	107999	0	0	8216	557612	0	0
2024-10-04 09:55:47			0	38184	0	0	0	21776	20310	161392	27241	1053754	46293	107999	0	0	8216	557502	0	0
2024-10-04 09:56:47			0	38182	0	0	0	21768	20310	161392	27365	1053737	46294	107996	0	0	8216	557582	0	0
2024-10-04 09:57:47			0	38184	0	0	0	21748	20310	161308	27396	1053737	46284	107988	0	0	8217	557502	0	0
2024-10-04 09:58:47			0	38187	0	0	0	21740	20320	161340	27331	1053825	46274	107985	0	0	8217	557353	0	0
2024-10-04 09:59:47			0	38196	0	0	0	21735	20310	161256	27161	1053710	46284	107983	0	0	8218	557026	0	0
2024-10-04 10:00:47			0	38176	0	0	0	21740	20320	161224	27102	1053746	46263	107985	0	0	8217	557789	0	0
2024-10-04 10:01:47			0	38175	0	0	0	21766	20310	161296	27241	1053790	46294	107995	0	0	8216	557860	0	0
2024-10-04 10:02:47			0	38203	0	0	0	21771	20320	161380	26753	1053799	46252	107997	0	0	8218	556718	0	0
2024-10-04 10:03:47			0	38190	0	0	0	21779	20330	161344	26944	1053843	46296	108000	0	0	8217	557203	0	0
2024-10-04 10:04:47			0	38206	0	0	0	21784	20320	161324	27306	1053834	46286	108002	0	0	8218	556599	0	0
2024-10-04 10:05:47			0	38196	0	0	0	21794	20330	161324	27118	1053843	46296	108006	0	0	8217	556965	0	0
2024-10-04 10:06:47			0	38193	0	0	0	21794	20330	161264	27043	1053896	46296	108006	0	0	8217	557084	0	0
2024-10-04 10:07:47			0	38220	0	0	0	21792	20330	161224	26993	1053879	46286	108005	0	0	8218	556014	0	0
2024-10-04 10:08:47			0	38213	0	0	0	21810	20350	161192	27185	1053941	46288	108012	0	0	8218	556230	0	0
2024-10-04 10:09:47			0	38244	0	0	0	21797	20340	161260	27320	1053924	46288	108007	0	0	8220	555033	0	0
2024-10-04 10:10:47			0	38229	0	0	0	21781	20340	161140	26918	1054003	46288	108001	0	0	8219	555627	0	0
2024-10-04 10:11:47			0	38235	0	0	0	21779	20350	161172	27209	1053941	46298	108000	0	0	8219	555359	0	0
2024-10-04 10:12:47			0	38232	0	0	0	21776	20340	161164	26916	1053844	46277	107999	0	0	8219	555508	0	0
2024-10-04 10:13:47			0	38214	0	0	0	21784	20340	161192	27012	1053924	46277	108002	0	0	8218	556221	0	0
2024-10-04 10:14:47			0	38235	0	0	0	21792	20350	161180	27277	1053968	46288	108005	0	0	8219	555359	0	0
2024-10-04 10:15:47			0	38238	0	0	0	21781	20350	161116	27279	1053879	46266	108001	0	0	8220	555240	0	0
2024-10-04 10:16:47			0	38234	0	0	0	21771	20360	161076	27048	1053906	46268	107997	0	0	8220	555367	0	0
2024-10-04 10:17:47			0	38240	0	0	0	21779	20340	161028	27357	1054030	46277	108000	0	0	8220	555191	0	0
2024-10-04 10:18:47			0	38253	0	0	0	21776	20350	160964	27109	1053932	46266	107999	0	0	8221	554647	0	0
2024-10-04 10:19:47			0	38262	0	0	0	21779	20350	160952	27121	1053888	46266	108000	0	0	8221	554291	0	0
2024-10-04 10:20:47			0	38274	0	0	0	21779	20350	160984	27277	1053915	46266	108000	0	0	8222	553816	0	0
2024-10-04 10:21:47			0	38249	0	0	0	21789	20350	160880	27291	1053906	46277	108004	0	0	8220	554805	0	0
2024-10-04 10:22:47			0	38283	0	0	0	21789	20360	160848	27064	1053924	46278	108004	0	0	8222	553430	0	0
2024-10-04 10:23:47			0	38271	0	0	0	21805	20360	160912	27353	1053959	46312	108010	0	0	8221	553904	0	0
2024-10-04 10:24:47			0	38290	0	0	0	21802	20360	160864	27637	1053986	46290	108009	0	0	8222	553154	0	0
2024-10-04 10:25:47			0	38296	0	0	0	21807	20370	160832	27261	1054048	46279	108011	0	0	8223	552887	0	0
2024-10-04 10:26:47			0	38329	0	0	0	21807	20360	160800	27175	1054012	46279	108011	0	0	8225	551616	0	0
2024-10-04 10:27:47			0	38319	0	0	0	21810	20370	160688	27220	1053995	46290	108012	0	0	8224	551979	0	0
2024-10-04 10:28:47			0	38322	0	0	0	21815	20370	160752	27376	1053977	46290	108014	0	0	8224	551861	0	0
2024-10-04 10:29:47			0	38335	0	0	0	21818	20370	160752	27576	1054030	46290	108015	0	0	8225	551349	0	0
2024-10-04 10:30:47			0	38343	0	0	0	21823	20380	160640	27637	1054092	46301	108017	0	0	8225	551003	0	0
2024-10-04 10:31:47			0	38358	0	0	0	21823	20380	160612	27223	1054066	46301	108017	0	0	8226	550413	0	0
2024-10-04 10:32:47			0	38360	0	0	0	21812	20390	160608	27085	1054066	46282	108013	0	0	8226	550304	0	0
2024-10-04 10:33:47			0	38362	0	0	0	21807	20380	160560	27249	1054075	46291	108011	0	0	8227	550255	0	0
2024-10-04 10:34:47			0	38368	0	0	0	21815	20380	160652	27440	1054075	46291	108014	0	0	8227	550019	0	0
2024-10-04 10:35:47			0	38377	0	0	0	21836	20380	160608	27053	1054119	46280	108022	0	0	8227	549665	0	0
2024-10-04 10:36:47			0	38391	0	0	0	21849	20390	160520	26968	1054172	46303	108027	0	0	8228	549085	0	0
2024-10-04 10:37:47			0	38386	0	0	0	21844	20400	160380	27419	1054190	46305	108025	0	0	8227	549251	0	0
2024-10-04 10:38:47			0	38399	0	0	0	21836	20390	160408	27164	1054146	46271	108022	0	0	8228	548770	0	0
2024-10-04 10:39:47			0	38393	0	0	0	21841	20400	160444	27218	1054217	46272	108024	0	0	8228	548976	0	0
2024-10-04 10:40:47			0	38420	0	0	0	21854	20390	160332	27486	1054172	46292	108029	0	0	8229	547946	0	0
2024-10-04 10:41:47			0	38439	0	0	0	21854	20400	160320	27083	1054235	46292	108029	0	0	8230	547170	0	0
2024-10-04 10:42:47			0	38420	0	0	0	21849	20410	160292	27261	1054199	46305	108027	0	0	8229	547885	0	0
2024-10-04 10:43:47			0	38436	0	0	0	21841	20410	160360	27481	1054226	46273	108024	0	0	8230	547258	0	0
2024-10-04 10:44:47			0	38463	0	0	0	21849	20410	160252	27640	1054252	46294	108027	0	0	8232	546200	0	0
2024-10-04 10:45:47			0	38450	0	0	0	21844	20400	160196	27409	1054243	46283	108025	0	0	8231	546739	0	0
2024-10-04 10:46:47			0	38453	0	0	0	21836	20410	160224	27244	1054226	46305	108022	0	0	8232	546591	0	0
2024-10-04 10:47:47			0	38466	0	0	0	21841	20410	160252	27241	1054208	46284	108024	0	0	8232	546082	0	0
2024-10-04 10:48:47			0	38456	0	0	0	21841	20410	160128	27346	1054235	46305	108024	0	0	8232	546474	0	0
2024-10-04 10:49:47			0	38457	0	0	0	21864	20410	160236	27573	1054315	46284	108033	0	0	8231	546435	0	0
2024-10-04 10:50:47			0	38469	0	0	0	21859	20410	160196	27429	1054279	46294	108031	0	0	8232	545965	0	0
2024-10-04 10:51:47			0	38466	0	0	0	21862	20420	160256	27324	1054324	46284	108032	0	0	8232	546052	0	0
2024-10-04 10:52:47			0	38459	0	0	0	21854	20420	160164	27045	1054297	46294	108029	0	0	8232	546326	0	0
2024-10-04 10:53:47			0	38453	0	0	0	21857	20420	160196	27557	1054297	46294	108030	0	0	8231	546561	0	0
2024-10-04 10:54:47			0	38472	0	0	0	21857	20420	160168	27360	1054350	46284	108030	0	0	8232	545817	0	0
2024-10-04 10:55:47			0	38447	0	0	0	21857	20430	160096	27242	1054377	46296	108030	0	0	8231	546766	0	0
2024-10-04 10:56:47			0	38457	0	0	0	21849	20430	160184	27229	1054315	46296	108027	0	0	8232	546374	0	0
2024-10-04 10:57:47			0	38476	0	0	0	21859	20420	160096	27057	1054333	46285	108031	0	0	8233	545660	0	0
2024-10-04 10:58:47			0	38482	0	0	0	21854	20430	160132	27216	1054315	46275	108029	0	0	8233	545395	0	0
2024-10-04 10:59:47			0	38457	0	0	0	21857	20430	160116	27384	1054342	46286	108030	0	0	8232	546374	0	0
2024-10-04 11:00:47			0	38473	0	0	0	21854	20430	159992	27242	1054342	46286	108029	0	0	8232	545748	0	0
2024-10-04 11:01:47			0	38503	0	0	0	21867	20430	159992	27556	1054262	46275	108034	0	0	8234	544574	0	0
2024-10-04 11:02:47			0	38500	0	0	0	21859	20430	160008	27492	1054404	46286	108031	0	0	8234	544691	0	0
2024-10-04 11:03:47			0	38490	0	0	0	21854	20430	159916	27211	1054351	46296	108029	0	0	8233	545082	0	0
2024-10-04 11:04:47			0	38501	0	0	0	21851	20430	160000	27466	1054351	46286	108028	0	0	8234	544652	0	0
2024-10-04 11:05:47			0	38511	0	0	0	21857	20440	159968	27403	1054333	46286	108030	0	0	8235	544231	0	0
2024-10-04 11:06:47			0	38517	0	0	0	21864	20430	159904	27027	1054342	46286	108033	0	0	8235	544027	0	0
2024-10-04 11:07:47			0	38513	0	0	0	21870	20440	159880	27145	1054359	46286	108035	0	0	8235	544153	0	0
2024-10-04 11:08:47			0	38505	0	0	0	21862	20440	159904	27287	1054333	46286	108032	0	0	8234	544466	0	0
2024-10-04 11:09:47			0	38513	0	0	0	21862	20440	159884	27424	1054359	46296	108032	0	0	8235	544153	0	0
2024-10-04 11:10:47			0	38509	0	0	0	21867	20430	159972	27452	1054368	46296	108034	0	0	8234	544340	0	0
2024-10-04 11:11:47			0	38524	0	0	0	21872	20440	159892	27438	1054413	46286	108036	0	0	8235	543724	0	0
2024-10-04 11:12:47			0	38530	0	0	0	21864	20430	159808	27365	1054324	46275	108033	0	0	8236	543519	0	0
2024-10-04 11:13:47			0	38510	0	0	0	21859	20440	159904	27395	1054386	46296	108031	0	0	8235	544270	0	0
2024-10-04 11:14:47			0	38519	0	0	0	21872	20430	159904	27268	1054404	46307	108036	0	0	8235	543949	0	0
2024-10-04 11:15:47			0	38522	0	0	0	21867	20430	159940	27227	1054351	46307	108034	0	0	8235	543832	0	0
2024-10-04 11:16:47			0	38512	0	0	0	21862	20440	159872	27166	1054368	46287	108032	0	0	8235	544192	0	0
2024-10-04 11:17:47			0	38521	0	0	0	21870	20430	159844	27156	1054324	46275	108035	0	0	8235	543871	0	0
2024-10-04 11:18:47			0	38525	0	0	0	21867	20440	159700	27034	1054359	46286	108034	0	0	8235	543684	0	0
2024-10-04 11:19:47			0	38545	0	0	0	21867	20430	159788	27289	1054377	46307	108034	0	0	8236	542934	0	0
2024-10-04 11:20:47			0	38541	0	0	0	21870	20440	159724	27298	1054422	46309	108035	0	0	8236	543060	0	0
2024-10-04 11:21:47			0	38559	0	0	0	21872	20430	159744	26944	1054404	46286	108036	0	0	8237	542388	0	0
2024-10-04 11:22:47			0	38545	0	0	0	21870	20440	159720	27388	1054492	46286	108035	0	0	8236	542904	0	0
2024-10-04 11:23:47			0	38545	0	0	0	21867	20430	159720	27315	1054368	46296	108034	0	0	8236	542934	0	0
2024-10-04 11:24:47			0	38533	0	0	0	21862	20450	159708	27459	1054439	46278	108032	0	0	8236	543342	0	0
2024-10-04 11:25:47			0	38550	0	0	0	21859	20450	159716	27052	1054431	46298	108031	0	0	8237	542679	0	0
2024-10-04 11:26:47			0	38543	0	0	0	21867	20440	159700	27230	1054395	46287	108034	0	0	8236	542982	0	0
2024-10-04 11:27:47			0	38555	0	0	0	21867	20450	159672	27116	1054377	46298	108034	0	0	8237	542484	0	0
2024-10-04 11:28:47			0	38564	0	0	0	21872	20450	159708	27194	1054377	46298	108036	0	0	8238	542133	0	0
2024-10-04 11:29:47			0	38561	0	0	0	21875	20440	159756	27348	1054359	46286	108037	0	0	8237	542280	0	0
2024-10-04 11:30:47			0	38573	0	0	0	21872	20450	159700	27412	1054431	46298	108036	0	0	8238	541782	0	0
2024-10-04 11:31:47			0	38567	0	0	0	21864	20450	159616	26899	1054431	46310	108033	0	0	8238	542016	0	0
2024-10-04 11:32:47			0	38578	0	0	0	21870	20450	159532	27067	1054351	46288	108035	0	0	8238	541587	0	0
2024-10-04 11:33:47			0	38579	0	0	0	21870	20440	159520	27197	1054395	46309	108035	0	0	8238	541578	0	0
2024-10-04 11:34:47			0	38573	0	0	0	21867	20440	159596	26915	1054422	46287	108034	0	0	8238	541812	0	0
2024-10-04 11:35:47			0	38564	0	0	0	21870	20450	159608	27093	1054351	46288	108035	0	0	8238	542133	0	0
2024-10-04 11:36:47			0	38578	0	0	0	21877	20450	159592	27317	1054377	46298	108038	0	0	8238	541587	0	0
2024-10-04 11:37:47			0	38580	0	0	0	21880	20450	159552	27498	1054404	46288	108039	0	0	8238	541509	0	0
2024-10-04 11:38:47			0	38580	0	0	0	21877	20440	159588	26953	1054368	46297	108038	0	0	8238	541539	0	0
2024-10-04 11:39:47			0	38600	0	0	0	21877	20450	159516	27281	1054404	46288	108038	0	0	8240	540730	0	0
2024-10-04 11:40:47			0	38597	0	0	0	21875	20450	159556	27114	1054377	46288	108037	0	0	8239	540847	0	0
2024-10-04 11:41:47			0	38598	0	0	0	21872	20450	159516	27020	1054386	46278	108036	0	0	8240	540808	0	0
2024-10-04 11:42:47			0	38608	0	0	0	21883	20450	159612	26861	1054439	46289	108040	0	0	8240	540419	0	0
2024-10-04 11:43:47			0	38604	0	0	0	21872	20450	159412	27015	1054404	46288	108036	0	0	8240	540575	0	0
2024-10-04 11:44:47			0	38606	0	0	0	21864	20450	159512	27105	1054439	46289	108033	0	0	8240	540497	0	0
2024-10-04 11:45:47			0	38612	0	0	0	21880	20440	159480	27407	1054368	46287	108039	0	0	8240	540293	0	0
2024-10-04 11:46:47			0	38619	0	0	0	21870	20450	159456	26979	1054351	46298	108035	0	0	8241	539991	0	0
2024-10-04 11:47:47			0	38607	0	0	0	21870	20450	159420	27128	1054377	46288	108035	0	0	8240	540458	0	0
2024-10-04 11:48:47			0	38606	0	0	0	21875	20450	159512	27379	1054457	46288	108037	0	0	8240	540497	0	0
2024-10-04 11:49:47			0	38603	0	0	0	21880	20450	159472	26956	1054439	46289	108039	0	0	8240	540613	0	0
2024-10-04 11:50:47			0	38630	0	0	0	21883	20450	159344	27222	1054413	46278	108040	0	0	8241	539563	0	0
2024-10-04 11:51:47			0	38616	0	0	0	21872	20450	159384	27338	1054431	46298	108036	0	0	8241	540108	0	0
2024-10-04 11:52:47			0	38611	0	0	0	21875	20450	159412	27376	1054404	46288	108037	0	0	8240	540302	0	0
2024-10-04 11:53:47			0	38623	0	0	0	21880	20450	159424	27319	1054404	46298	108039	0	0	8241	539835	0	0
2024-10-04 11:54:47			0	38621	0	0	0	21877	20450	159476	27126	1054439	46289	108038	0	0	8241	539913	0	0
2024-10-04 11:55:47			0	38618	0	0	0	21880	20450	159496	27331	1054386	46289	108039	0	0	8241	540030	0	0
2024-10-04 11:56:47			0	38636	0	0	0	21883	20440	159372	27140	1054422	46287	108040	0	0	8242	539360	0	0
2024-10-04 11:57:47			0	38618	0	0	0	21888	20450	159476	27348	1054510	46266	108042	0	0	8240	540030	0	0
2024-10-04 11:58:47			0	38624	0	0	0	21877	20450	159400	26915	1054457	46288	108038	0	0	8241	539797	0	0
2024-10-04 11:59:47			0	38600	0	0	0	21888	20450	159508	27114	1054439	46311	108042	0	0	8239	540730	0	0
2024-10-04 12:00:47			0	38610	0	0	0	21885	20460	159500	27147	1054422	46289	108041	0	0	8240	540311	0	0
2024-10-04 12:01:47			0	38602	0	0	0	21877	20450	159456	26838	1054466	46299	108038	0	0	8240	540652	0	0
2024-10-04 12:02:47			0	38609	0	0	0	21875	20450	159500	27185	1054439	46289	108037	0	0	8240	540380	0	0
2024-10-04 12:03:47			0	38605	0	0	0	21875	20450	159464	27052	1054431	46298	108037	0	0	8240	540536	0	0
2024-10-04 12:04:47			0	38611	0	0	0	21875	20440	159452	27367	1054422	46287	108037	0	0	8240	540332	0	0
2024-10-04 12:05:47			0	38606	0	0	0	21875	20450	159388	26937	1054404	46298	108037	0	0	8240	540497	0	0
2024-10-04 12:06:47			0	38607	0	0	0	21877	20450	159488	27227	1054413	46311	108038	0	0	8240	540458	0	0
2024-10-04 12:07:47			0	38602	0	0	0	21875	20450	159412	27246	1054439	46278	108037	0	0	8240	540652	0	0
2024-10-04 12:08:47			0	38621	0	0	0	21875	20450	159424	27007	1054439	46299	108037	0	0	8241	539913	0	0
2024-10-04 12:09:47			0	38599	0	0	0	21880	20450	159452	27270	1054466	46299	108039	0	0	8239	540769	0	0
2024-10-04 12:10:47			0	38612	0	0	0	21875	20460	159512	27533	1054502	46289	108037	0	0	8240	540234	0	0
2024-10-04 12:11:47			0	38585	0	0	0	21880	20450	159444	27331	1054386	46299	108039	0	0	8239	541314	0	0
2024-10-04 12:12:47			0	38617	0	0	0	21872	20460	159504	27114	1054448	46289	108036	0	0	8241	540039	0	0
2024-10-04 12:13:47			0	38612	0	0	0	21885	20450	159384	27505	1054377	46288	108041	0	0	8240	540263	0	0
2024-10-04 12:14:47			0	38611	0	0	0	21880	20450	159436	27192	1054439	46311	108039	0	0	8240	540302	0	0
2024-10-04 12:15:47			0	38601	0	0	0	21849	20450	159488	27324	1054404	46288	108027	0	0	8240	540691	0	0
2024-10-04 12:16:47			0	38583	0	0	0	21867	20450	159612	27119	1054404	46288	108034	0	0	8239	541392	0	0
2024-10-04 12:17:47			0	38554	0	0	0	21862	20450	159680	27121	1054386	46267	108032	0	0	8237	542523	0	0
2024-10-04 12:18:47			0	38548	0	0	0	21867	20450	159748	27364	1054413	46289	108034	0	0	8237	542757	0	0
2024-10-04 12:19:47			0	38539	0	0	0	21883	20440	159772	27225	1054368	46276	108040	0	0	8236	543138	0	0
2024-10-04 12:20:47			0	38551	0	0	0	21875	20450	159652	27092	1054386	46289	108037	0	0	8237	542640	0	0
2024-10-04 12:21:47			0	38554	0	0	0	21870	20450	159624	27189	1054431	46288	108035	0	0	8237	542523	0	0
2024-10-04 12:22:47			0	38570	0	0	0	21875	20440	159616	27272	1054422	46287	108037	0	0	8238	541929	0	0
2024-10-04 12:23:47			0	38575	0	0	0	21877	20450	159592	27128	1054493	46299	108038	0	0	8238	541704	0	0
2024-10-04 12:24:47			0	38579	0	0	0	21877	20450	159528	27104	1054413	46289	108038	0	0	8238	541548	0	0
2024-10-04 12:25:47			0	38583	0	0	0	21880	20450	159568	27253	1054413	46278	108039	0	0	8239	541392	0	0
2024-10-04 12:26:47			0	38592	0	0	0	21870	20440	159480	27145	1054422	46287	108035	0	0	8239	541072	0	0
2024-10-04 12:27:47			0	38625	0	0	0	21867	20450	159440	27326	1054413	46289	108034	0	0	8241	539758	0	0
2024-10-04 12:28:47			0	38641	0	0	0	21870	20440	159456	27251	1054395	46297	108035	0	0	8242	539166	0	0
2024-10-04 12:29:47			0	38636	0	0	0	21877	20440	159232	27315	1054368	46287	108038	0	0	8242	539360	0	0
2024-10-04 12:30:47			0	38654	0	0	0	21875	20450	159272	27353	1054466	46289	108037	0	0	8243	538631	0	0
2024-10-04 12:31:47			0	38662	0	0	0	21867	20450	159172	27090	1054377	46288	108034	0	0	8243	538320	0	0
2024-10-04 12:32:47			0	38688	0	0	0	21872	20450	159236	27154	1054351	46288	108036	0	0	8245	537312	0	0
2024-10-04 12:33:47			0	38704	0	0	0	21867	20440	159024	27171	1054368	46309	108034	0	0	8246	536721	0	0
2024-10-04 12:34:47			0	38697	0	0	0	21877	20450	159040	27050	1054386	46278	108038	0	0	8245	536963	0	0
2024-10-04 12:35:47			0	38694	0	0	0	21870	20450	159144	26948	1054377	46298	108035	0	0	8245	537079	0	0
2024-10-04 12:36:47			0	38736	0	0	0	21872	20440	158993	27137	1054448	46287	108036	0	0	8248	535482	0	0
2024-10-04 12:37:47			0	38784	0	0	0	21859	20450	158833	26889	1054431	46288	108031	0	0	8251	533597	0	0
2024-10-04 12:38:47			0	38776	0	0	0	21867	20440	158793	27332	1054368	46297	108034	0	0	8250	533936	0	0
2024-10-04 12:39:47			0	38796	0	0	0	21857	20430	158765	27405	1054351	46307	108030	0	0	8251	533193	0	0
2024-10-04 12:40:47			0	38833	0	0	0	21841	20440	158625	27279	1054315	46287	108024	0	0	8254	531736	0	0
2024-10-04 12:41:47			0	38864	0	0	0	21846	20440	158517	26955	1054333	46275	108026	0	0	8255	530543	0	0
2024-10-04 12:42:47			0	38871	0	0	0	21844	20440	158537	27187	1054386	46286	108025	0	0	8256	530274	0	0
2024-10-04 12:43:47			0	38870	0	0	0	21841	20430	158409	27183	1054262	46307	108024	0	0	8256	530341	0	0
2024-10-04 12:44:47			0	38901	0	0	0	21836	20430	158357	26830	1054297	46275	108022	0	0	8258	529149	0	0
2024-10-04 12:45:47			0	38931	0	0	0	21825	20430	158221	26996	1054324	46275	108018	0	0	8260	527998	0	0
2024-10-04 12:46:47			0	38943	0	0	0	21823	20420	158149	26778	1054253	46274	108017	0	0	8260	527566	0	0
2024-10-04 12:47:47			0	38966	0	0	0	21828	20420	158145	27270	1054226	46285	108019	0	0	8262	526685	0	0
2024-10-04 12:48:47			0	38956	0	0	0	21844	20430	158221	27086	1054262	46275	108025	0	0	8261	527039	0	0
2024-10-04 12:49:47			0	38958	0	0	0	21849	20420	158193	27053	1054253	46295	108027	0	0	8261	526991	0	0
2024-10-04 12:50:47			0	38970	0	0	0	21836	20420	158285	27157	1054244	46294	108022	0	0	8262	526531	0	0
2024-10-04 12:51:47			0	38953	0	0	0	21838	20420	158289	26908	1054271	46294	108023	0	0	8261	527183	0	0
2024-10-04 12:52:47			0	38962	0	0	0	21823	20410	158073	26835	1054208	46284	108017	0	0	8261	526867	0	0
2024-10-04 12:53:47			0	38982	0	0	0	21831	20420	157941	26998	1054253	46295	108020	0	0	8262	526072	0	0
2024-10-04 12:54:47			0	39004	0	0	0	21828	20420	157937	27034	1054138	46273	108019	0	0	8264	525230	0	0
2024-10-04 12:55:47			0	39009	0	0	0	21833	20420	157909	26814	1054191	46284	108021	0	0	8264	525039	0	0
2024-10-04 12:56:47			0	39035	0	0	0	21820	20410	157845	27024	1054199	46294	108016	0	0	8266	524074	0	0
2024-10-04 12:57:47			0	39024	0	0	0	21825	20410	157813	27324	1054173	46284	108018	0	0	8265	524494	0	0
2024-10-04 12:58:47			0	39056	0	0	0	21818	20410	157701	27031	1054226	46273	108015	0	0	8267	523272	0	0
2024-10-04 12:59:47			0	39064	0	0	0	21818	20410	157621	27244	1054199	46273	108015	0	0	8267	522967	0	0
2024-10-04 13:00:47			0	39073	0	0	0	21815	20410	157573	27381	1054173	46294	108014	0	0	8268	522623	0	0
2024-10-04 13:01:47			0	39074	0	0	0	21818	20410	157617	27131	1054146	46273	108015	0	0	8268	522585	0	0
2024-10-04 13:02:47			0	39078	0	0	0	21820	20400	157509	27254	1054190	46283	108016	0	0	8268	522461	0	0
2024-10-04 13:03:47			0	39089	0	0	0	21820	20400	157601	27256	1054155	46271	108016	0	0	8269	522042	0	0
2024-10-04 13:04:47			0	39064	0	0	0	21828	20410	157593	27313	1054199	46305	108019	0	0	8267	522967	0	0
2024-10-04 13:05:47			0	39056	0	0	0	21823	20400	157649	27367	1054181	46282	108017	0	0	8267	523301	0	0
2024-10-04 13:06:47			0	39074	0	0	0	21818	20390	157629	27182	1054199	46271	108015	0	0	8268	522643	0	0
2024-10-04 13:07:47			0	39066	0	0	0	21823	20410	157621	27045	1054252	46273	108017	0	0	8267	522890	0	0
2024-10-04 13:08:47			0	39065	0	0	0	21812	20400	157601	26906	1054164	46272	108013	0	0	8268	522957	0	0
2024-10-04 13:09:47			0	39073	0	0	0	21812	20390	157669	27232	1054066	46260	108013	0	0	8268	522681	0	0
2024-10-04 13:10:47			0	39058	0	0	0	21825	20400	157773	27079	1054164	46261	108018	0	0	8267	523225	0	0
2024-10-04 13:11:47			0	39051	0	0	0	21828	20390	157725	27235	1054172	46282	108019	0	0	8266	523521	0	0
2024-10-04 13:12:47			0	39044	0	0	0	21828	20390	157697	27152	1054226	46282	108019	0	0	8266	523788	0	0
2024-10-04 13:13:47			0	39040	0	0	0	21833	20400	157789	27072	1054137	46283	108021	0	0	8266	523912	0	0
2024-10-04 13:14:47			0	39003	0	0	0	21836	20400	157953	27218	1054261	46292	108022	0	0	8264	525326	0	0
2024-10-04 13:15:47			0	38982	0	0	0	21841	20410	157925	27079	1054252	46317	108024	0	0	8262	526101	0	0
2024-10-04 13:16:47			0	38985	0	0	0	21836	20400	157993	27196	1054270	46293	108022	0	0	8262	526015	0	0
2024-10-04 13:17:47			0	38978	0	0	0	21838	20410	158009	27653	1054146	46284	108023	0	0	8262	526254	0	0
2024-10-04 13:18:47			0	38983	0	0	0	21844	20400	158097	27609	1054297	46305	108025	0	0	8262	526092	0	0
2024-10-04 13:19:47			0	38992	0	0	0	21844	20400	158113	27201	1054190	46283	108025	0	0	8263	525747	0	0
2024-10-04 13:20:47			0	38988	0	0	0	21846	20400	157897	27128	1054270	46283	108026	0	0	8262	525900	0	0
2024-10-04 13:21:47			0	39027	0	0	0	21831	20410	157901	27109	1054235	46284	108020	0	0	8265	524379	0	0
2024-10-04 13:22:47			0	39034	0	0	0	21825	20400	157809	26902	1054190	46293	108018	0	0	8265	524141	0	0
2024-10-04 13:23:47			0	39051	0	0	0	21831	20410	157809	27303	1054173	46294	108020	0	0	8266	523463	0	0
2024-10-04 13:24:47			0	39057	0	0	0	21807	20410	157753	27029	1054146	46284	108011	0	0	8267	523234	0	0
2024-10-04 13:25:47			0	39077	0	0	0	21823	20400	157649	27241	1054208	46282	108017	0	0	8268	522500	0	0
2024-10-04 13:26:47			0	39091	0	0	0	21818	20400	157541	27164	1054190	46283	108015	0	0	8269	521966	0	0
2024-10-04 13:27:47			0	39081	0	0	0	21812	20400	157597	27268	1054155	46282	108013	0	0	8268	522347	0	0
2024-10-04 13:28:47			0	39094	0	0	0	21810	20390	157473	27043	1054119	46271	108012	0	0	8269	521880	0	0
2024-10-04 13:29:47			0	39103	0	0	0	21810	20400	157525	27281	1054128	46292	108012	0	0	8270	521509	0	0
2024-10-04 13:30:47			0	39105	0	0	0	21810	20400	157569	27498	1054128	46260	108012	0	0	8270	521432	0	0
2024-10-04 13:31:47			0	39086	0	0	0	21810	20400	157461	27772	1054137	46283	108012	0	0	8269	522156	0	0
2024-10-04 13:32:47			0	39106	0	0	0	21815	20390	157537	27426	1054172	46303	108014	0	0	8270	521423	0	0
2024-10-04 13:33:47			0	39089	0	0	0	21825	20400	157581	27396	1054181	46282	108018	0	0	8269	522042	0	0
2024-10-04 13:34:47			0	39097	0	0	0	21831	20400	157605	27535	1054102	46282	108020	0	0	8269	521737	0	0
2024-10-04 13:35:47			0	39095	0	0	0	21833	20400	157757	27144	1054110	46293	108021	0	0	8269	521813	0	0
2024-10-04 13:36:47			0	39091	0	0	0	21831	20410	157641	27786	1054199	46273	108020	0	0	8269	521937	0	0
2024-10-04 13:37:47			0	39096	0	0	0	21838	20400	157657	27320	1054155	46271	108023	0	0	8269	521775	0	0
2024-10-04 13:38:47			0	39081	0	0	0	21828	20400	157741	27760	1054208	46292	108019	0	0	8268	522347	0	0
2024-10-04 13:39:47			0	39103	0	0	0	21841	20410	157657	27296	1054235	46273	108024	0	0	8269	521480	0	0
2024-10-04 13:40:47			0	39084	0	0	0	21844	20400	157673	27523	1054190	46283	108025	0	0	8268	522233	0	0
2024-10-04 13:41:47			0	39072	0	0	0	21838	20410	157725	27505	1054306	46294	108023	0	0	8268	522661	0	0
2024-10-04 13:42:47			0	39060	0	0	0	21841	20410	157793	27454	1054226	46294	108024	0	0	8267	523119	0	0
2024-10-04 13:43:47			0	39064	0	0	0	21838	20410	157729	27034	1054235	46305	108023	0	0	8267	522967	0	0
2024-10-04 13:44:47			0	39055	0	0	0	21841	20400	157697	27012	1054297	46283	108024	0	0	8266	523339	0	0
2024-10-04 13:45:47			0	39023	0	0	0	21844	20420	157817	26928	1054324	46284	108025	0	0	8265	524503	0	0
2024-10-04 13:46:47			0	39016	0	0	0	21849	20400	157789	27263	1054297	46283	108027	0	0	8264	524829	0	0
2024-10-04 13:47:47			0	39019	0	0	0	21846	20410	157857	27235	1054208	46294	108026	0	0	8264	524685	0	0
2024-10-04 13:48:47			0	39000	0	0	0	21844	20410	157881	27253	1054341	46284	108025	0	0	8263	525412	0	0
2024-10-04 13:49:47			0	38993	0	0	0	21838	20420	157941	27149	1054359	46295	108023	0	0	8263	525651	0	0
2024-10-04 13:50:47			0	38976	0	0	0	21846	20410	157989	26918	1054315	46294	108026	0	0	8262	526331	0	0
2024-10-04 13:51:47			0	38964	0	0	0	21833	20420	158029	27093	1054244	46284	108021	0	0	8261	526761	0	0
2024-10-04 13:52:47			0	38976	0	0	0	21844	20410	158117	27015	1054261	46294	108025	0	0	8262	526331	0	0
2024-10-04 13:53:47			0	38962	0	0	0	21846	20420	158169	27150	1054297	46305	108026	0	0	8261	526838	0	0
2024-10-04 13:54:47			0	38947	0	0	0	21844	20420	158145	27341	1054333	46285	108025	0	0	8260	527413	0	0
2024-10-04 13:55:47			0	38930	0	0	0	21841	20420	158177	26982	1054324	46273	108024	0	0	8259	528065	0	0
2024-10-04 13:56:47			0	38907	0	0	0	21857	20420	158249	27185	1054297	46294	108030	0	0	8258	528948	0	0
2024-10-04 13:57:47			0	38892	0	0	0	21862	20420	158349	26875	1054333	46295	108032	0	0	8257	529525	0	0
2024-10-04 13:58:47			0	38874	0	0	0	21846	20420	158337	27296	1054297	46284	108026	0	0	8256	530217	0	0
2024-10-04 13:59:47			0	38883	0	0	0	21849	20420	158513	27130	1054297	46273	108027	0	0	8256	529871	0	0
2024-10-04 14:00:47			0	38873	0	0	0	21846	20430	158549	27313	1054368	46286	108026	0	0	8256	530226	0	0
2024-10-04 14:01:47			0	38864	0	0	0	21864	20430	158517	27301	1054315	46307	108033	0	0	8255	530572	0	0
2024-10-04 14:02:47			0	38834	0	0	0	21849	20420	158669	27360	1054333	46306	108027	0	0	8254	531757	0	0
2024-10-04 14:03:47			0	38817	0	0	0	21854	20420	158565	27573	1054350	46294	108029	0	0	8252	532412	0	0
2024-10-04 14:04:47			0	38800	0	0	0	21849	20430	158649	27353	1054377	46296	108027	0	0	8252	533038	0	0
2024-10-04 14:05:47			0	38807	0	0	0	21844	20430	158513	27280	1054315	46275	108025	0	0	8252	532768	0	0
2024-10-04 14:06:47			0	38797	0	0	0	21841	20430	158697	27112	1054288	46286	108024	0	0	8252	533154	0	0
2024-10-04 14:07:47			0	38782	0	0	0	21846	20430	158801	27358	1054342	46307	108026	0	0	8251	533733	0	0
2024-10-04 14:08:47			0	38756	0	0	0	21854	20420	158805	27170	1054359	46274	108029	0	0	8249	534768	0	0
2024-10-04 14:09:47			0	38766	0	0	0	21864	20430	158769	27055	1054315	46286	108033	0	0	8249	534352	0	0
2024-10-04 14:10:47			0	38749	0	0	0	21851	20430	158873	27279	1054315	46286	108028	0	0	8249	535009	0	0
2024-10-04 14:11:47			0	38752	0	0	0	21859	20420	158981	27176	1054271	46273	108031	0	0	8249	534922	0	0
2024-10-04 14:12:47			0	38732	0	0	0	21864	20430	158921	27365	1054351	46307	108033	0	0	8247	535666	0	0
2024-10-04 14:13:47			0	38711	0	0	0	21859	20430	158952	27104	1054351	46286	108031	0	0	8246	536480	0	0
2024-10-04 14:14:47			0	38698	0	0	0	21867	20430	159064	26972	1054351	46275	108034	0	0	8245	536983	0	0
2024-10-04 14:15:47			0	38699	0	0	0	21864	20430	159180	26982	1054404	46286	108033	0	0	8246	536945	0	0
2024-10-04 14:16:47			0	38685	0	0	0	21870	20430	159160	27024	1054351	46296	108035	0	0	8245	537487	0	0
2024-10-04 14:17:47			0	38670	0	0	0	21864	20440	159240	27157	1054413	46296	108033	0	0	8244	538040	0	0
2024-10-04 14:18:47			0	38665	0	0	0	21857	20420	159232	27187	1054333	46295	108030	0	0	8244	538293	0	0
2024-10-04 14:19:47			0	38670	0	0	0	21862	20430	159216	27000	1054342	46286	108032	0	0	8244	538069	0	0
2024-10-04 14:20:47			0	38654	0	0	0	21851	20430	159268	26996	1054351	46286	108028	0	0	8243	538690	0	0
2024-10-04 14:21:47			0	38648	0	0	0	21862	20430	159304	27189	1054377	46286	108032	0	0	8243	538924	0	0
2024-10-04 14:22:47			0	38645	0	0	0	21841	20430	159216	27140	1054342	46286	108024	0	0	8243	539040	0	0
2024-10-04 14:23:47			0	38644	0	0	0	21859	20420	159260	27079	1054279	46295	108031	0	0	8242	539109	0	0
2024-10-04 14:24:47			0	38640	0	0	0	21851	20420	159336	27072	1054359	46285	108028	0	0	8242	539264	0	0
2024-10-04 14:25:47			0	38633	0	0	0	21862	20430	159408	27234	1054324	46275	108032	0	0	8242	539506	0	0
2024-10-04 14:26:47			0	38619	0	0	0	21849	20420	159376	27013	1054350	46284	108027	0	0	8241	540081	0	0
2024-10-04 14:27:47			0	38614	0	0	0	21857	20420	159344	27334	1054279	46295	108030	0	0	8241	540275	0	0
2024-10-04 14:28:47			0	38622	0	0	0	21857	20420	159368	27168	1054271	46273	108030	0	0	8241	539964	0	0
2024-10-04 14:29:47			0	38608	0	0	0	21859	20420	159376	27145	1054386	46295	108031	0	0	8240	540508	0	0
2024-10-04 14:30:47			0	38601	0	0	0	21859	20440	159364	27156	1054422	46297	108031	0	0	8240	540721	0	0
2024-10-04 14:31:47			0	38582	0	0	0	21854	20430	159364	27017	1054324	46286	108029	0	0	8239	541491	0	0
2024-10-04 14:32:47			0	38601	0	0	0	21859	20420	159360	27196	1054359	46295	108031	0	0	8240	540781	0	0
2024-10-04 14:33:47			0	38602	0	0	0	21857	20430	159480	27057	1054404	46307	108030	0	0	8240	540712	0	0
2024-10-04 14:34:47			0	38596	0	0	0	21872	20430	159508	27381	1054395	46296	108036	0	0	8239	540946	0	0
2024-10-04 14:35:47			0	38594	0	0	0	21872	20440	159476	27176	1054439	46286	108036	0	0	8239	540994	0	0
2024-10-04 14:36:47			0	38606	0	0	0	21872	20430	159548	26944	1054351	46296	108036	0	0	8240	540557	0	0
2024-10-04 14:37:47			0	38607	0	0	0	21872	20430	159508	26816	1054421	46296	108036	0	0	8240	540518	0	0
2024-10-04 14:38:47			0	38590	0	0	0	21864	20440	159536	27133	1054413	46296	108033	0	0	8239	541150	0	0
2024-10-04 14:39:47			0	38611	0	0	0	21859	20440	159576	26658	1054439	46286	108031	0	0	8241	540332	0	0
2024-10-04 14:40:47			0	38606	0	0	0	21877	20440	159572	26961	1054359	46286	108038	0	0	8240	540527	0	0
2024-10-04 14:41:47			0	38614	0	0	0	21867	20440	159476	27067	1054395	46287	108034	0	0	8241	540215	0	0
2024-10-04 14:42:47			0	38614	0	0	0	21875	20430	159524	27157	1054457	46296	108037	0	0	8240	540245	0	0
2024-10-04 14:43:47			0	38603	0	0	0	21875	20440	159472	27497	1054448	46320	108037	0	0	8240	540643	0	0
2024-10-04 14:44:47			0	38605	0	0	0	21870	20440	159416	27263	1054475	46287	108035	0	0	8240	540566	0	0
2024-10-04 14:45:47			0	38618	0	0	0	21867	20440	159432	27331	1054448	46287	108034	0	0	8241	540060	0	0
2024-10-04 14:46:47			0	38621	0	0	0	21864	20440	159376	27213	1054448	46309	108033	0	0	8241	539943	0	0
2024-10-04 14:47:47			0	38619	0	0	0	21872	20440	159436	27105	1054448	46309	108036	0	0	8241	540021	0	0
2024-10-04 14:48:47			0	38616	0	0	0	21880	20440	159600	27166	1054439	46286	108039	0	0	8240	540138	0	0
2024-10-04 14:49:47			0	38597	0	0	0	21883	20440	159532	27260	1054448	46287	108040	0	0	8239	540877	0	0
2024-10-04 14:50:47			0	38605	0	0	0	21880	20450	159608	27516	1054457	46298	108039	0	0	8240	540536	0	0
2024-10-04 14:51:47			0	38604	0	0	0	21877	20430	159544	27279	1054430	46286	108038	0	0	8240	540634	0	0
2024-10-04 14:52:47			0	38604	0	0	0	21872	20440	159544	27242	1054395	46297	108036	0	0	8240	540605	0	0
2024-10-04 14:53:47			0	38593	0	0	0	21883	20450	159504	26986	1054493	46299	108040	0	0	8239	541003	0	0
2024-10-04 14:54:47			0	38591	0	0	0	21867	20440	159572	27345	1054439	46307	108034	0	0	8239	541111	0	0
2024-10-04 14:55:47			0	38568	0	0	0	21862	20440	159632	27147	1054475	46309	108032	0	0	8238	542007	0	0
2024-10-04 14:56:47			0	38560	0	0	0	21880	20440	159612	27279	1054466	46275	108039	0	0	8237	542318	0	0
2024-10-04 14:57:47			0	38560	0	0	0	21875	20440	159656	27305	1054448	46276	108037	0	0	8237	542318	0	0
2024-10-04 14:58:47			0	38559	0	0	0	21875	20450	159652	27053	1054510	46298	108037	0	0	8237	542328	0	0
2024-10-04 14:59:47			0	38558	0	0	0	21862	20450	159748	27329	1054457	46310	108032	0	0	8237	542367	0	0
2024-10-04 15:00:47			0	38569	0	0	0	21875	20450	159688	26916	1054484	46288	108037	0	0	8238	541938	0	0
2024-10-04 15:01:47			0	38560	0	0	0	21870	20450	159576	27516	1054404	46288	108035	0	0	8237	542289	0	0
2024-10-04 15:02:47			0	38547	0	0	0	21880	20450	159680	27175	1054484	46298	108039	0	0	8236	542796	0	0
2024-10-04 15:03:47			0	38549	0	0	0	21872	20440	159752	27390	1054422	46287	108036	0	0	8237	542748	0	0
2024-10-04 15:04:47			0	38535	0	0	0	21875	20450	159812	26944	1054431	46288	108037	0	0	8236	543264	0	0
2024-10-04 15:05:47			0	38505	0	0	0	21862	20450	159916	26987	1054404	46277	108032	0	0	8234	544436	0	0
2024-10-04 15:06:47			0	38516	0	0	0	21880	20450	159816	27374	1054457	46288	108039	0	0	8235	544006	0	0
2024-10-04 15:07:47			0	38530	0	0	0	21877	20450	159724	26852	1054457	46298	108038	0	0	8236	543459	0	0
2024-10-04 15:08:47			0	38525	0	0	0	21864	20450	159692	27594	1054457	46277	108033	0	0	8235	543654	0	0
2024-10-04 15:09:47			0	38550	0	0	0	21867	20450	159676	27346	1054493	46299	108034	0	0	8237	542679	0	0
2024-10-04 15:10:47			0	38543	0	0	0	21877	20450	159688	27346	1054466	46299	108038	0	0	8236	542952	0	0
2024-10-04 15:11:47			0	38549	0	0	0	21867	20450	159664	27189	1054484	46288	108034	0	0	8237	542718	0	0
2024-10-04 15:12:47			0	38564	0	0	0	21867	20440	159644	27412	1054448	46297	108034	0	0	8238	542163	0	0
2024-10-04 15:13:47			0	38578	0	0	0	21883	20440	159608	28018	1054466	46307	108040	0	0	8238	541617	0	0
2024-10-04 15:14:47			0	38590	0	0	0	21880	20440	159612	27637	1054368	46276	108039	0	0	8239	541150	0	0
2024-10-04 15:15:47			0	38585	0	0	0	21885	20450	159520	27377	1054519	46322	108041	0	0	8239	541314	0	0
2024-10-04 15:16:47			0	38584	0	0	0	21875	20450	159500	27557	1054431	46277	108037	0	0	8239	541353	0	0
2024-10-04 15:17:47			0	38603	0	0	0	21877	20450	159524	27431	1054431	46288	108038	0	0	8240	540613	0	0
2024-10-04 15:18:47			0	38617	0	0	0	21880	20450	159372	27535	1054519	46299	108039	0	0	8241	540069	0	0
2024-10-04 15:19:47			0	38622	0	0	0	21875	20440	159320	27796	1054422	46287	108037	0	0	8241	539904	0	0
2024-10-04 15:20:47			0	38614	0	0	0	21890	20460	159268	27211	1054502	46299	108043	0	0	8240	540156	0	0
2024-10-04 15:21:47			0	38607	0	0	0	21875	20450	159316	27666	1054466	46289	108037	0	0	8240	540458	0	0
2024-10-04 15:22:47			0	38634	0	0	0	21875	20450	159280	27493	1054510	46298	108037	0	0	8242	539408	0	0
2024-10-04 15:23:47			0	38637	0	0	0	21896	20450	159384	27576	1054493	46278	108045	0	0	8241	539291	0	0
2024-10-04 15:24:47			0	38625	0	0	0	21880	20440	159276	27319	1054448	46276	108039	0	0	8241	539788	0	0
2024-10-04 15:25:47			0	38640	0	0	0	21883	20460	159432	27402	1054448	46299	108040	0	0	8242	539145	0	0
2024-10-04 15:26:47			0	38639	0	0	0	21872	20450	159284	27338	1054484	46298	108036	0	0	8242	539214	0	0
2024-10-04 15:27:47			0	38629	0	0	0	21870	20440	159268	27821	1054475	46297	108035	0	0	8241	539632	0	0
2024-10-04 15:28:47			0	38628	0	0	0	21883	20450	159324	27639	1054457	46288	108040	0	0	8241	539641	0	0
2024-10-04 15:29:47			0	38628	0	0	0	21893	20460	159328	27767	1054458	46299	108044	0	0	8241	539611	0	0
2024-10-04 15:30:47			0	38633	0	0	0	21896	20460	159232	27602	1054502	46289	108045	0	0	8241	539417	0	0
2024-10-04 15:31:47			0	38631	0	0	0	21888	20460	159292	27249	1054475	46299	108042	0	0	8241	539495	0	0
2024-10-04 15:32:47			0	38638	0	0	0	21909	20460	159368	27358	1054484	46299	108050	0	0	8241	539223	0	0
2024-10-04 15:33:47			0	38607	0	0	0	21883	20460	159376	27112	1054484	46299	108040	0	0	8240	540428	0	0
2024-10-04 15:34:47			0	38615	0	0	0	21890	20450	159432	27582	1054493	46299	108043	0	0	8240	540147	0	0
2024-10-04 15:35:47			0	38597	0	0	0	21883	20460	159412	27675	1054511	46311	108040	0	0	8239	540817	0	0
2024-10-04 15:36:47			0	38589	0	0	0	21877	20460	159516	27490	1054555	46289	108038	0	0	8239	541129	0	0
2024-10-04 15:37:47			0	38581	0	0	0	21888	20450	159476	27796	1054493	46311	108042	0	0	8238	541470	0	0
2024-10-04 15:38:47			0	38588	0	0	0	21880	20460	159468	27685	1054555	46289	108039	0	0	8239	541168	0	0
2024-10-04 15:39:47			0	38580	0	0	0	21890	20460	159416	27954	1054511	46278	108043	0	0	8238	541479	0	0
2024-10-04 15:40:47			0	38573	0	0	0	21890	20460	159380	27809	1054511	46289	108043	0	0	8238	541752	0	0
2024-10-04 15:41:47			0	38582	0	0	0	21888	20450	159472	27348	1054493	46289	108042	0	0	8238	541431	0	0
2024-10-04 15:42:47			0	38594	0	0	0	21890	20460	159388	27753	1054528	46289	108043	0	0	8239	540934	0	0
2024-10-04 15:43:47			0	38574	0	0	0	21896	20460	159544	27656	1054511	46299	108045	0	0	8238	541713	0	0
2024-10-04 15:44:47			0	38573	0	0	0	21901	20460	159520	27343	1054564	46311	108047	0	0	8238	541752	0	0
2024-10-04 15:45:47			0	38606	0	0	0	21896	20460	159472	27448	1054581	46289	108045	0	0	8240	540467	0	0
2024-10-04 15:46:47			0	38588	0	0	0	21896	20470	159420	27500	1054546	46279	108045	0	0	8239	541138	0	0
2024-10-04 15:47:47			0	38602	0	0	0	21896	20470	159480	27473	1054555	46291	108045	0	0	8239	540593	0	0
2024-10-04 15:48:47			0	38606	0	0	0	21896	20470	159432	27239	1054546	46312	108045	0	0	8240	540437	0	0
2024-10-04 15:49:47			0	38604	0	0	0	21896	20470	159368	27216	1054626	46300	108045	0	0	8240	540515	0	0
2024-10-04 15:50:47			0	38584	0	0	0	21898	20470	159468	27346	1054546	46312	108046	0	0	8238	541293	0	0
2024-10-04 15:51:47			0	38586	0	0	0	21898	20460	159448	27644	1054511	46289	108046	0	0	8238	541245	0	0
2024-10-04 15:52:47			0	38571	0	0	0	21896	20470	159472	27173	1054546	46290	108045	0	0	8238	541800	0	0
2024-10-04 15:53:47			0	38582	0	0	0	21893	20460	159516	27400	1054537	46322	108044	0	0	8238	541401	0	0
2024-10-04 15:54:47			0	38606	0	0	0	21890	20470	159532	27521	1054573	46290	108043	0	0	8240	540437	0	0
2024-10-04 15:55:47			0	38564	0	0	0	21893	20480	159484	27327	1054538	46291	108044	0	0	8237	542043	0	0
2024-10-04 15:56:47			0	38582	0	0	0	21898	20460	159568	27052	1054484	46311	108046	0	0	8238	541401	0	0
2024-10-04 15:57:47			0	38554	0	0	0	21888	20460	159552	27303	1054564	46289	108042	0	0	8237	542493	0	0
2024-10-04 15:58:47			0	38560	0	0	0	21888	20460	159560	27062	1054591	46299	108042	0	0	8237	542259	0	0
2024-10-04 15:59:47			0	38568	0	0	0	21883	20470	159560	27379	1054520	46279	108040	0	0	8238	541917	0	0
2024-10-04 16:00:47			0	38567	0	0	0	21888	20460	159516	27215	1054484	46278	108042	0	0	8238	541986	0	0
2024-10-04 16:01:47			0	38576	0	0	0	21890	20460	159528	27312	1054591	46289	108043	0	0	8238	541635	0	0
2024-10-04 16:02:47			0	38584	0	0	0	21885	20460	159684	27483	1054484	46289	108041	0	0	8239	541323	0	0
2024-10-04 16:03:47			0	38558	0	0	0	21880	20470	159516	27355	1054546	46290	108039	0	0	8237	542307	0	0
2024-10-04 16:04:47			0	38540	0	0	0	21875	20460	159552	27379	1054404	46289	108037	0	0	8236	543039	0	0
2024-10-04 16:05:47			0	38556	0	0	0	21880	20460	159568	27384	1054528	46289	108039	0	0	8237	542415	0	0
2024-10-04 16:06:47			0	38552	0	0	0	21890	20460	159572	27386	1054537	46289	108043	0	0	8237	542571	0	0
2024-10-04 16:07:47			0	38546	0	0	0	21877	20460	159576	27575	1054511	46289	108038	0	0	8237	542805	0	0
2024-10-04 16:08:47			0	38566	0	0	0	21888	20460	159492	27647	1054528	46289	108042	0	0	8237	542025	0	0
2024-10-04 16:09:47			0	38551	0	0	0	21883	20460	159612	27376	1054537	46299	108040	0	0	8237	542610	0	0
2024-10-04 16:10:47			0	38561	0	0	0	21885	20450	159580	27796	1054493	46278	108041	0	0	8237	542250	0	0
2024-10-04 16:11:47			0	38539	0	0	0	21888	20450	159708	28081	1054466	46289	108042	0	0	8236	543108	0	0
2024-10-04 16:12:47			0	38533	0	0	0	21898	20460	159584	27668	1054528	46289	108046	0	0	8235	543312	0	0
2024-10-04 16:13:47			0	38550	0	0	0	21888	20460	159692	27369	1054484	46289	108042	0	0	8237	542649	0	0
2024-10-04 16:14:47			0	38549	0	0	0	21888	20470	159700	27725	1054520	46323	108042	0	0	8237	542658	0	0
2024-10-04 16:15:47			0	38530	0	0	0	21885	20460	159796	27485	1054564	46299	108041	0	0	8235	543429	0	0
2024-10-04 16:16:47			0	38537	0	0	0	21893	20450	159648	27842	1054572	46299	108044	0	0	8236	543186	0	0
2024-10-04 16:17:47			0	38542	0	0	0	21890	20470	159664	27291	1054600	46290	108043	0	0	8236	542931	0	0
2024-10-04 16:18:47			0	38537	0	0	0	21896	20470	159668	27568	1054600	46312	108045	0	0	8236	543126	0	0
2024-10-04 16:19:47			0	38539	0	0	0	21890	20470	159612	27350	1054520	46279	108043	0	0	8236	543048	0	0
2024-10-04 16:20:47			0	38564	0	0	0	21885	20460	159660	27599	1054528	46299	108041	0	0	8237	542103	0	0
2024-10-04 16:21:47			0	38553	0	0	0	21885	20470	159496	27495	1054546	46290	108041	0	0	8237	542502	0	0
2024-10-04 16:22:47			0	38543	0	0	0	21885	20460	159528	27672	1054511	46267	108041	0	0	8236	542922	0	0
2024-10-04 16:23:47			0	38545	0	0	0	21896	20460	159624	27888	1054537	46289	108045	0	0	8236	542844	0	0
2024-10-04 16:24:47			0	38567	0	0	0	21890	20470	159592	27991	1054555	46280	108043	0	0	8238	541956	0	0
2024-10-04 16:25:47			0	38567	0	0	0	21880	20470	159652	27854	1054609	46291	108039	0	0	8238	541956	0	0
2024-10-04 16:26:47			0	38564	0	0	0	21896	20460	159600	27828	1054564	46289	108045	0	0	8237	542103	0	0
2024-10-04 16:27:47			0	38563	0	0	0	21896	20460	159628	27715	1054564	46299	108045	0	0	8237	542142	0	0
2024-10-04 16:28:47			0	38559	0	0	0	21896	20470	159532	27557	1054546	46312	108045	0	0	8237	542268	0	0
2024-10-04 16:29:47			0	38562	0	0	0	21893	20480	159660	27918	1054564	46301	108044	0	0	8237	542121	0	0
2024-10-04 16:30:47			0	38575	0	0	0	21898	20460	159528	27923	1054555	46289	108046	0	0	8238	541674	0	0
2024-10-04 16:31:47			0	38589	0	0	0	21898	20470	159532	27781	1054573	46279	108046	0	0	8239	541099	0	0
2024-10-04 16:32:47			0	38583	0	0	0	21903	20470	159536	27809	1054609	46280	108048	0	0	8238	541332	0	0
2024-10-04 16:33:47			0	38590	0	0	0	21898	20480	159516	27729	1054564	46269	108046	0	0	8239	541030	0	0
2024-10-04 16:34:47			0	38614	0	0	0	21898	20460	159376	27135	1054564	46289	108046	0	0	8240	540156	0	0
2024-10-04 16:35:47			0	38614	0	0	0	21890	20470	159368	27403	1054546	46290	108043	0	0	8240	540126	0	0
2024-10-04 16:36:47			0	38625	0	0	0	21890	20470	159332	27421	1054546	46290	108043	0	0	8241	539698	0	0
2024-10-04 16:37:47			0	38599	0	0	0	21890	20480	159352	27831	1054591	46291	108043	0	0	8239	540680	0	0
2024-10-04 16:38:47			0	38638	0	0	0	21903	20470	159284	27436	1054626	46300	108048	0	0	8241	539193	0	0
2024-10-04 16:39:47			0	38632	0	0	0	21896	20480	159244	27613	1054573	46301	108045	0	0	8241	539396	0	0
2024-10-04 16:40:47			0	38648	0	0	0	21888	20460	159296	27602	1054591	46299	108042	0	0	8242	538834	0	0
2024-10-04 16:41:47			0	38651	0	0	0	21898	20480	159260	27403	1054591	46291	108046	0	0	8242	538658	0	0
2024-10-04 16:42:47			0	38648	0	0	0	21896	20460	159256	27597	1054564	46289	108045	0	0	8242	538834	0	0
2024-10-04 16:43:47			0	38652	0	0	0	21888	20470	159156	27429	1054546	46290	108042	0	0	8243	538649	0	0
2024-10-04 16:44:47			0	38658	0	0	0	21890	20470	159240	27542	1054546	46300	108043	0	0	8243	538416	0	0
2024-10-04 16:45:47			0	38654	0	0	0	21896	20460	159224	27640	1054591	46267	108045	0	0	8242	538601	0	0
2024-10-04 16:46:47			0	38662	0	0	0	21893	20470	159128	27490	1054546	46300	108044	0	0	8243	538261	0	0
2024-10-04 16:47:47			0	38671	0	0	0	21885	20470	159168	27654	1054546	46300	108041	0	0	8244	537911	0	0
2024-10-04 16:48:47			0	38662	0	0	0	21888	20470	159192	27372	1054600	46290	108042	0	0	8243	538261	0	0
2024-10-04 16:49:47			0	38653	0	0	0	21898	20470	159112	27684	1054582	46291	108046	0	0	8242	538610	0	0
2024-10-04 16:50:47			0	38674	0	0	0	21901	20470	159188	27360	1054467	46268	108047	0	0	8244	537795	0	0
2024-10-04 16:51:47			0	38652	0	0	0	21890	20460	159216	27344	1054617	46299	108043	0	0	8242	538679	0	0
2024-10-04 16:52:47			0	38646	0	0	0	21898	20460	159232	27384	1054581	46289	108046	0	0	8242	538912	0	0
2024-10-04 16:53:47			0	38666	0	0	0	21898	20480	159140	27549	1054600	46291	108046	0	0	8243	538076	0	0
2024-10-04 16:54:47			0	38650	0	0	0	21896	20470	159168	27492	1054546	46300	108045	0	0	8242	538727	0	0
2024-10-04 16:55:47			0	38644	0	0	0	21898	20460	159176	27433	1054537	46299	108046	0	0	8242	538990	0	0
2024-10-04 16:56:47			0	38669	0	0	0	21885	20460	159108	27429	1054564	46299	108041	0	0	8244	538019	0	0
2024-10-04 16:57:47			0	38665	0	0	0	21885	20460	159080	27459	1054537	46289	108041	0	0	8243	538174	0	0
2024-10-04 16:58:47			0	38669	0	0	0	21885	20470	159132	27521	1054573	46279	108041	0	0	8244	537989	0	0
2024-10-04 16:59:47			0	38652	0	0	0	21890	20470	159236	27244	1054546	46300	108043	0	0	8243	538649	0	0
2024-10-04 17:00:47			0	38660	0	0	0	21898	20460	159204	27229	1054555	46299	108046	0	0	8243	538368	0	0
2024-10-04 17:01:47			0	38680	0	0	0	21885	20460	159172	27199	1054591	46278	108041	0	0	8244	537592	0	0
2024-10-04 17:02:47			0	38663	0	0	0	21890	20460	159104	27310	1054564	46289	108043	0	0	8243	538252	0	0
2024-10-04 17:03:47			0	38668	0	0	0	21885	20470	159164	27090	1054493	46312	108041	0	0	8244	538028	0	0
2024-10-04 17:04:47			0	38654	0	0	0	21890	20450	159108	27215	1054466	46289	108043	0	0	8243	538631	0	0
2024-10-04 17:05:47			0	38684	0	0	0	21883	20470	158968	27090	1054520	46290	108040	0	0	8244	537407	0	0
2024-10-04 17:06:47			0	38693	0	0	0	21875	20480	159008	27069	1054591	46280	108037	0	0	8245	537029	0	0
2024-10-04 17:07:47			0	38677	0	0	0	21893	20450	159088	27414	1054546	46289	108044	0	0	8244	537738	0	0
2024-10-04 17:08:47			0	38667	0	0	0	21888	20470	159112	27493	1054573	46300	108042	0	0	8243	538067	0	0
2024-10-04 17:09:47			0	38662	0	0	0	21893	20460	159064	27457	1054511	46299	108044	0	0	8243	538291	0	0
2024-10-04 17:10:47			0	38658	0	0	0	21898	20460	159224	27315	1054537	46299	108046	0	0	8243	538446	0	0
2024-10-04 17:11:47			0	38670	0	0	0	21896	20470	159192	27410	1054546	46300	108045	0	0	8243	537950	0	0
2024-10-04 17:12:47			0	38659	0	0	0	21885	20470	159208	27365	1054546	46279	108041	0	0	8243	538377	0	0
2024-10-04 17:13:47			0	38675	0	0	0	21880	20460	159072	27284	1054528	46289	108039	0	0	8244	537786	0	0
2024-10-04 17:14:47			0	38682	0	0	0	21870	20450	159092	27339	1054546	46289	108035	0	0	8244	537544	0	0
2024-10-04 17:15:47			0	38676	0	0	0	21870	20450	159104	26935	1054493	46289	108035	0	0	8244	537777	0	0
2024-10-04 17:16:47			0	38679	0	0	0	21875	20450	158996	27185	1054431	46288	108037	0	0	8244	537661	0	0
2024-10-04 17:17:47			0	38679	0	0	0	21880	20450	159036	26838	1054466	46299	108039	0	0	8244	537661	0	0
2024-10-04 17:18:47			0	38677	0	0	0	21880	20450	159132	27026	1054546	46299	108039	0	0	8244	537738	0	0
2024-10-04 17:19:47			0	38678	0	0	0	21875	20450	159088	26942	1054493	46289	108037	0	0	8244	537699	0	0
2024-10-04 17:20:47			0	38670	0	0	0	21872	20450	159124	27279	1054519	46289	108036	0	0	8244	538010	0	0
2024-10-04 17:21:47			0	38667	0	0	0	21870	20450	159040	27241	1054484	46288	108035	0	0	8244	538126	0	0
2024-10-04 17:22:47			0	38655	0	0	0	21862	20450	159128	27161	1054493	46289	108032	0	0	8243	538592	0	0
2024-10-04 17:23:47			0	38682	0	0	0	21857	20450	159028	27265	1054404	46288	108030	0	0	8245	537544	0	0
2024-10-04 17:24:47			0	38667	0	0	0	21864	20440	159140	27152	1054342	46297	108033	0	0	8244	538156	0	0
2024-10-04 17:25:47			0	38673	0	0	0	21854	20450	159220	27138	1054457	46288	108029	0	0	8244	537893	0	0
2024-10-04 17:26:47			0	38655	0	0	0	21862	20450	159168	27123	1054439	46299	108032	0	0	8243	538592	0	0
2024-10-04 17:27:47			0	38647	0	0	0	21864	20440	159176	27554	1054422	46287	108033	0	0	8243	538933	0	0
2024-10-04 17:28:47			0	38657	0	0	0	21859	20450	159076	27486	1054413	46289	108031	0	0	8243	538514	0	0
2024-10-04 17:29:47			0	38648	0	0	0	21857	20450	159244	27336	1054404	46288	108030	0	0	8243	538864	0	0
2024-10-04 17:30:47			0	38652	0	0	0	21857	20450	159248	27336	1054457	46277	108030	0	0	8243	538709	0	0
2024-10-04 17:31:47			0	38627	0	0	0	21851	20450	159204	27509	1054457	46288	108028	0	0	8242	539680	0	0
2024-10-04 17:32:47			0	38651	0	0	0	21854	20430	159268	27440	1054377	46286	108029	0	0	8243	538807	0	0
2024-10-04 17:33:47			0	38628	0	0	0	21864	20440	159316	27379	1054422	46297	108033	0	0	8241	539671	0	0
2024-10-04 17:34:47			0	38628	0	0	0	21862	20440	159284	27478	1054448	46297	108032	0	0	8241	539671	0	0
2024-10-04 17:35:47			0	38616	0	0	0	21851	20430	159344	27171	1054484	46286	108028	0	0	8241	540167	0	0
2024-10-04 17:36:47			0	38628	0	0	0	21854	20440	159348	27211	1054395	46287	108029	0	0	8242	539671	0	0
2024-10-04 17:37:47			0	38613	0	0	0	21862	20440	159380	27507	1054386	46296	108032	0	0	8241	540254	0	0
2024-10-04 17:38:47			0	38635	0	0	0	21854	20430	159264	27187	1054404	46286	108029	0	0	8242	539429	0	0
2024-10-04 17:39:47			0	38627	0	0	0	21864	20440	159376	27614	1054413	46296	108033	0	0	8241	539710	0	0
2024-10-04 17:40:47			0	38603	0	0	0	21867	20440	159348	27345	1054386	46275	108034	0	0	8240	540643	0	0
2024-10-04 17:41:47			0	38625	0	0	0	21851	20430	159248	27350	1054430	46307	108028	0	0	8241	539817	0	0
2024-10-04 17:42:47			0	38610	0	0	0	21844	20430	159368	27512	1054377	46307	108025	0	0	8241	540401	0	0
2024-10-04 17:43:47			0	38639	0	0	0	21846	20420	159260	27294	1054386	46285	108026	0	0	8242	539303	0	0
2024-10-04 17:44:47			0	38648	0	0	0	21854	20430	159224	27173	1054430	46286	108029	0	0	8243	538924	0	0
2024-10-04 17:45:47			0	38632	0	0	0	21838	20440	159240	27339	1054413	46275	108023	0	0	8242	539515	0	0
2024-10-04 17:46:47			0	38638	0	0	0	21833	20430	159328	27254	1054315	46286	108021	0	0	8242	539312	0	0
2024-10-04 17:47:47			0	38625	0	0	0	21838	20430	159324	27161	1054288	46275	108023	0	0	8242	539817	0	0
2024-10-04 17:48:47			0	38616	0	0	0	21831	20430	159312	27111	1054395	46307	108020	0	0	8241	540167	0	0
2024-10-04 17:49:47			0	38618	0	0	0	21836	20420	159456	27324	1054350	46284	108022	0	0	8241	540120	0	0
2024-10-04 17:50:47			0	38622	0	0	0	21831	20420	159260	27254	1054279	46285	108020	0	0	8242	539964	0	0
2024-10-04 17:51:47			0	38598	0	0	0	21849	20420	159284	27208	1054324	46294	108027	0	0	8240	540898	0	0
2024-10-04 17:52:47			0	38606	0	0	0	21838	20410	159292	27540	1054261	46284	108023	0	0	8240	540616	0	0
2024-10-04 17:53:47			0	38613	0	0	0	21838	20420	159432	27164	1054350	46305	108023	0	0	8241	540314	0	0
2024-10-04 17:54:47			0	38600	0	0	0	21831	20430	159352	27185	1054342	46296	108020	0	0	8240	540790	0	0
2024-10-04 17:55:47			0	38588	0	0	0	21828	20430	159320	27317	1054342	46275	108019	0	0	8240	541257	0	0
2024-10-04 17:56:47			0	38578	0	0	0	21836	20420	159440	26974	1054377	46284	108022	0	0	8239	541677	0	0
2024-10-04 17:57:47			0	38581	0	0	0	21836	20410	159508	27027	1054332	46284	108022	0	0	8239	541590	0	0
2024-10-04 17:58:47			0	38577	0	0	0	21836	20420	159524	27135	1054359	46285	108022	0	0	8239	541716	0	0
2024-10-04 17:59:47			0	38566	0	0	0	21838	20420	159532	27230	1054324	46284	108023	0	0	8238	542145	0	0
2024-10-04 18:00:47			0	38558	0	0	0	21836	20410	159496	27582	1054288	46284	108022	0	0	8238	542487	0	0
2024-10-04 18:01:47			0	38561	0	0	0	21831	20410	159592	27116	1054315	46284	108020	0	0	8238	542369	0	0
2024-10-04 18:02:47			0	38566	0	0	0	21831	20410	159628	27213	1054288	46284	108020	0	0	8238	542174	0	0
2024-10-04 18:03:47			0	38537	0	0	0	21818	20400	159560	26941	1054270	46283	108015	0	0	8237	543336	0	0
2024-10-04 18:04:47			0	38543	0	0	0	21815	20400	159668	27142	1054243	46272	108014	0	0	8237	543102	0	0
2024-10-04 18:05:47			0	38535	0	0	0	21828	20400	159672	27046	1054297	46283	108019	0	0	8236	543414	0	0
2024-10-04 18:06:47			0	38530	0	0	0	21823	20410	159648	27171	1054306	46294	108017	0	0	8236	543579	0	0
2024-10-04 18:07:47			0	38514	0	0	0	21823	20410	159788	27251	1054306	46294	108017	0	0	8235	544204	0	0
2024-10-04 18:08:47			0	38530	0	0	0	21823	20400	159708	27320	1054297	46293	108017	0	0	8236	543609	0	0
2024-10-04 18:09:47			0	38530	0	0	0	21820	20400	159864	27333	1054323	46272	108016	0	0	8236	543609	0	0
2024-10-04 18:10:47			0	38511	0	0	0	21818	20410	159904	27187	1054306	46294	108015	0	0	8235	544321	0	0
2024-10-04 18:11:47			0	38506	0	0	0	21818	20400	159768	27384	1054297	46305	108015	0	0	8235	544547	0	0
2024-10-04 18:12:47			0	38498	0	0	0	21815	20400	159820	27332	1054297	46272	108014	0	0	8234	544860	0	0
2024-10-04 18:13:47			0	38479	0	0	0	21807	20400	159896	27280	1054208	46271	108011	0	0	8234	545603	0	0
2024-10-04 18:14:47			0	38470	0	0	0	21812	20400	159936	27038	1054208	46282	108013	0	0	8233	545956	0	0
2024-10-04 18:15:47			0	38466	0	0	0	21802	20400	160032	27336	1054208	46271	108009	0	0	8233	546112	0	0
2024-10-04 18:16:47			0	38441	0	0	0	21812	20400	159924	27128	1054261	46282	108013	0	0	8231	547092	0	0
2024-10-04 18:17:47			0	38439	0	0	0	21818	20390	159976	26956	1054199	46292	108015	0	0	8231	547201	0	0
2024-10-04 18:18:47			0	38440	0	0	0	21812	20390	159956	26974	1054226	46271	108013	0	0	8231	547161	0	0
2024-10-04 18:19:47			0	38436	0	0	0	21810	20390	160032	27218	1054199	46282	108012	0	0	8231	547318	0	0
2024-10-04 18:20:47			0	38441	0	0	0	21805	20390	160092	27332	1054270	46282	108010	0	0	8231	547122	0	0
2024-10-04 18:21:47			0	38422	0	0	0	21810	20390	160052	26963	1054226	46292	108012	0	0	8230	547867	0	0
2024-10-04 18:22:47			0	38425	0	0	0	21802	20390	160132	27383	1054172	46260	108009	0	0	8230	547750	0	0
2024-10-04 18:23:47			0	38419	0	0	0	21807	20390	160216	27008	1054270	46282	108011	0	0	8230	547985	0	0
2024-10-04 18:24:47			0	38411	0	0	0	21823	20380	160208	27128	1054181	46302	108017	0	0	8229	548329	0	0
2024-10-04 18:25:47			0	38388	0	0	0	21815	20390	160304	27419	1054199	46303	108014	0	0	8228	549203	0	0
2024-10-04 18:26:47			0	38416	0	0	0	21815	20390	160296	26987	1054243	46271	108014	0	0	8230	548103	0	0
2024-10-04 18:27:47			0	38400	0	0	0	21820	20390	160376	27402	1054243	46292	108016	0	0	8229	548731	0	0
2024-10-04 18:28:47			0	38398	0	0	0	21818	20390	160356	27211	1054270	46292	108015	0	0	8229	548810	0	0
2024-10-04 18:29:47			0	38392	0	0	0	21792	20400	160412	27154	1054235	46282	108005	0	0	8229	549015	0	0
2024-10-04 18:30:47			0	38388	0	0	0	21799	20390	160400	27564	1054217	46282	108008	0	0	8228	549203	0	0
2024-10-04 18:31:47			0	38379	0	0	0	21802	20380	160492	27229	1054181	46281	108009	0	0	8228	549587	0	0
2024-10-04 18:32:47			0	38364	0	0	0	21823	20390	160492	27130	1054110	46292	108017	0	0	8226	550146	0	0
2024-10-04 18:33:47			0	38356	0	0	0	21818	20380	160524	27274	1054234	46314	108015	0	0	8226	550492	0	0
2024-10-04 18:34:47			0	38348	0	0	0	21797	20390	160544	27234	1054190	46292	108007	0	0	8226	550776	0	0
2024-10-04 18:35:47			0	38351	0	0	0	21792	20390	160500	27154	1054163	46271	108005	0	0	8226	550658	0	0
2024-10-04 18:36:47			0	38337	0	0	0	21786	20390	160568	27305	1054110	46271	108003	0	0	8226	551209	0	0
2024-10-04 18:37:47			0	38313	0	0	0	21789	20380	160564	27284	1054101	46281	108004	0	0	8224	552186	0	0
2024-10-04 18:38:47			0	38331	0	0	0	21789	20380	160564	27351	1054234	46281	108004	0	0	8225	551476	0	0
2024-10-04 18:39:47			0	38344	0	0	0	21799	20370	160644	27376	1054128	46268	108008	0	0	8226	550994	0	0
2024-10-04 18:40:47			0	38305	0	0	0	21797	20380	160684	27433	1054181	46281	108007	0	0	8223	552501	0	0
2024-10-04 18:41:47			0	38305	0	0	0	21792	20380	160736	27036	1054128	46291	108005	0	0	8223	552501	0	0
2024-10-04 18:42:47			0	38307	0	0	0	21786	20370	160816	26831	1054110	46279	108003	0	0	8224	552453	0	0
2024-10-04 18:43:47			0	38305	0	0	0	21797	20370	160772	27022	1054083	46268	108007	0	0	8223	552531	0	0
2024-10-04 18:44:47			0	38301	0	0	0	21786	20370	160740	27066	1054137	46279	108003	0	0	8223	552689	0	0
2024-10-04 18:45:47			0	38286	0	0	0	21784	20370	160764	27138	1054083	46290	108002	0	0	8222	553281	0	0
2024-10-04 18:46:47			0	38298	0	0	0	21781	20370	160724	27190	1054075	46268	108001	0	0	8223	552808	0	0
2024-10-04 18:47:47			0	38287	0	0	0	21779	20360	160768	27124	1054066	46290	108000	0	0	8223	553272	0	0
2024-10-04 18:48:47			0	38283	0	0	0	21776	20360	160856	27088	1054083	46278	107999	0	0	8222	553430	0	0
2024-10-04 18:49:47			0	38272	0	0	0	21781	20370	160920	26982	1054021	46279	108001	0	0	8222	553834	0	0
2024-10-04 18:50:47			0	38265	0	0	0	21768	20370	161028	27248	1054101	46279	107996	0	0	8222	554111	0	0
2024-10-04 18:51:47			0	38262	0	0	0	21776	20370	160988	27296	1054101	46279	107999	0	0	8221	554229	0	0
2024-10-04 18:52:47			0	38251	0	0	0	21768	20350	160956	26854	1054021	46277	107996	0	0	8221	554726	0	0
2024-10-04 18:53:47			0	38268	0	0	0	21766	20360	160984	27022	1053986	46279	107995	0	0	8222	554023	0	0
2024-10-04 18:54:47			0	38261	0	0	0	21771	20360	160948	27161	1054039	46279	107997	0	0	8221	554299	0	0
2024-10-04 18:55:47			0	38264	0	0	0	21766	20350	160960	27071	1054012	46288	107995	0	0	8221	554212	0	0
2024-10-04 18:56:47			0	38239	0	0	0	21766	20350	161140	27066	1053959	46288	107995	0	0	8220	555200	0	0
2024-10-04 18:57:47			0	38248	0	0	0	21758	20360	161104	27003	1054030	46267	107992	0	0	8221	554813	0	0
2024-10-04 18:58:47			0	38248	0	0	0	21758	20350	161160	26909	1053986	46266	107992	0	0	8221	554844	0	0
2024-10-04 18:59:47			0	38236	0	0	0	21758	20350	161184	27353	1053995	46266	107992	0	0	8220	555319	0	0
2024-10-04 19:00:47			0	38227	0	0	0	21755	20340	161084	27007	1053950	46277	107991	0	0	8219	555706	0	0
2024-10-04 19:01:47			0	38237	0	0	0	21745	20340	161088	26883	1053977	46266	107987	0	0	8220	555310	0	0
2024-10-04 19:02:47			0	38242	0	0	0	21740	20350	161084	27050	1053995	46266	107985	0	0	8221	555081	0	0
2024-10-04 19:03:47			0	38204	0	0	0	21755	20330	161208	26920	1053932	46275	107991	0	0	8218	556648	0	0
2024-10-04 19:04:47			0	38224	0	0	0	21745	20330	161080	26956	1053959	46286	107987	0	0	8219	555855	0	0
2024-10-04 19:05:47			0	38215	0	0	0	21745	20330	161140	26915	1053896	46264	107987	0	0	8219	556212	0	0
2024-10-04 19:06:47			0	38190	0	0	0	21748	20330	161204	27013	1053923	46253	107988	0	0	8217	557203	0	0
2024-10-04 19:07:47			0	38203	0	0	0	21755	20320	161200	26916	1053914	46253	107991	0	0	8218	556718	0	0
2024-10-04 19:08:47			0	38200	0	0	0	21745	20330	161304	27409	1053932	46275	107987	0	0	8218	556806	0	0
2024-10-04 19:09:47			0	38201	0	0	0	21761	20330	161284	27036	1053950	46264	107993	0	0	8218	556767	0	0
2024-10-04 19:10:47			0	38203	0	0	0	21761	20320	161228	27209	1053888	46286	107993	0	0	8218	556718	0	0
2024-10-04 19:11:47			0	38178	0	0	0	21745	20330	161320	27015	1053959	46264	107987	0	0	8217	557679	0	0
2024-10-04 19:12:47			0	38170	0	0	0	21748	20330	161256	26861	1053932	46264	107988	0	0	8216	557996	0	0
2024-10-04 19:13:47			0	38181	0	0	0	21745	20330	161348	27493	1053950	46264	107987	0	0	8217	557560	0	0
2024-10-04 19:14:47			0	38178	0	0	0	21742	20330	161288	27218	1053896	46264	107986	0	0	8217	557679	0	0
2024-10-04 19:15:47			0	38178	0	0	0	21748	20330	161384	27279	1053923	46264	107988	0	0	8217	557679	0	0
2024-10-04 19:16:47			0	38162	0	0	0	21753	20310	161408	27170	1053870	46262	107990	0	0	8215	558376	0	0
2024-10-04 19:17:47			0	38171	0	0	0	21755	20320	161432	27050	1053967	46286	107991	0	0	8216	557987	0	0
2024-10-04 19:18:47			0	38160	0	0	0	21748	20320	161296	27294	1053905	46274	107988	0	0	8215	558424	0	0
2024-10-04 19:19:47			0	38165	0	0	0	21729	20320	161432	27284	1053905	46263	107981	0	0	8216	558226	0	0
2024-10-04 19:20:47			0	38157	0	0	0	21742	20320	161504	26788	1053861	46253	107986	0	0	8215	558543	0	0
2024-10-04 19:21:47			0	38164	0	0	0	21745	20320	161332	26944	1053808	46264	107987	0	0	8216	558265	0	0
2024-10-04 19:22:47			0	38153	0	0	0	21735	20320	161400	27064	1053852	46263	107983	0	0	8215	558702	0	0
2024-10-04 19:23:47			0	38141	0	0	0	21732	20320	161364	27189	1053914	46264	107982	0	0	8215	559179	0	0
2024-10-04 19:24:47			0	38136	0	0	0	21755	20310	161516	26918	1053870	46273	107991	0	0	8214	559409	0	0
2024-10-04 19:25:47			0	38150	0	0	0	21735	20320	161468	27234	1053825	46274	107983	0	0	8215	558821	0	0
2024-10-04 19:26:47			0	38133	0	0	0	21740	20320	161452	27183	1053861	46275	107985	0	0	8214	559497	0	0
2024-10-04 19:27:47			0	38129	0	0	0	21740	20310	161508	26994	1053843	46262	107985	0	0	8214	559687	0	0
2024-10-04 19:28:47			0	38127	0	0	0	21740	20320	161532	27015	1053879	46274	107985	0	0	8214	559736	0	0
2024-10-04 19:29:47			0	38146	0	0	0	21740	20320	161508	27133	1053879	46274	107985	0	0	8215	558980	0	0
2024-10-04 19:30:47			0	38156	0	0	0	21735	20320	161520	27263	1053852	46274	107983	0	0	8215	558583	0	0
2024-10-04 19:31:47			0	38128	0	0	0	21735	20320	161516	27440	1053879	46263	107983	0	0	8214	559696	0	0
2024-10-04 19:32:47			0	38129	0	0	0	21737	20320	161568	27310	1053879	46274	107984	0	0	8214	559656	0	0
2024-10-04 19:33:47			0	38145	0	0	0	21732	20310	161572	26963	1053834	46272	107982	0	0	8215	559051	0	0
2024-10-04 19:34:47			0	38120	0	0	0	21732	20310	161516	27263	1053923	46251	107982	0	0	8213	560045	0	0
2024-10-04 19:35:47			0	38127	0	0	0	21724	20310	161484	27128	1053790	46284	107979	0	0	8214	559767	0	0
2024-10-04 19:36:47			0	38124	0	0	0	21724	20310	161620	27251	1053861	46283	107979	0	0	8214	559886	0	0
2024-10-04 19:37:47			0	38105	0	0	0	21714	20310	161648	27189	1053896	46273	107975	0	0	8213	560642	0	0
2024-10-04 19:38:47			0	38104	0	0	0	21748	20310	161744	26824	1053808	46250	107988	0	0	8212	560682	0	0
2024-10-04 19:39:47			0	38085	0	0	0	21727	20310	161616	27194	1053834	46261	107980	0	0	8211	561439	0	0
2024-10-04 19:40:47			0	38114	0	0	0	21740	20310	161544	27057	1053870	46262	107985	0	0	8213	560284	0	0
2024-10-04 19:41:47			0	38108	0	0	0	21745	20320	161616	26953	1053852	46274	107987	0	0	8212	560492	0	0
2024-10-04 19:42:47			0	38111	0	0	0	21745	20310	161552	27372	1053870	46273	107987	0	0	8213	560403	0	0
2024-10-04 19:43:47			0	38113	0	0	0	21748	20300	161604	27357	1053825	46272	107988	0	0	8213	560355	0	0
2024-10-04 19:44:47			0	38123	0	0	0	21745	20300	161548	27242	1053905	46293	107987	0	0	8213	559957	0	0
2024-10-04 19:45:47			0	38116	0	0	0	21722	20310	161560	26982	1053790	46273	107978	0	0	8213	560204	0	0
2024-10-04 19:46:47			0	38116	0	0	0	21729	20320	161668	27072	1053852	46274	107981	0	0	8213	560173	0	0
2024-10-04 19:47:47			0	38099	0	0	0	21711	20310	161656	26769	1053870	46262	107974	0	0	8212	560881	0	0
2024-10-04 19:48:47			0	38098	0	0	0	21737	20300	161732	27229	1053825	46272	107984	0	0	8212	560952	0	0
2024-10-04 19:49:47			0	38120	0	0	0	21753	20310	161628	27026	1053843	46273	107990	0	0	8213	560045	0	0
2024-10-04 19:50:47			0	38119	0	0	0	21724	20310	161636	27204	1053887	46283	107979	0	0	8213	560085	0	0
2024-10-04 19:51:47			0	38110	0	0	0	21732	20310	161600	27353	1053870	46262	107982	0	0	8213	560443	0	0
2024-10-04 19:52:47			0	38099	0	0	0	21732	20300	161572	27163	1053825	46272	107982	0	0	8212	560912	0	0
2024-10-04 19:53:47			0	38111	0	0	0	21724	20310	161520	26923	1053887	46272	107979	0	0	8213	560403	0	0
2024-10-04 19:54:47			0	38102	0	0	0	21732	20310	161624	26998	1053808	46283	107982	0	0	8212	560761	0	0
2024-10-04 19:55:47			0	38097	0	0	0	21729	20300	161576	27286	1053869	46272	107981	0	0	8212	560992	0	0
2024-10-04 19:56:47			0	38094	0	0	0	21724	20310	161624	27031	1053861	46272	107979	0	0	8212	561080	0	0
2024-10-04 19:57:47			0	38091	0	0	0	21740	20300	161732	27241	1053799	46283	107985	0	0	8211	561231	0	0
2024-10-04 19:58:47			0	38091	0	0	0	21748	20300	161668	27100	1053825	46283	107988	0	0	8211	561231	0	0
2024-10-04 19:59:47			0	38081	0	0	0	21753	20300	161632	27138	1053905	46272	107990	0	0	8211	561629	0	0
2024-10-04 20:00:47			0	38102	0	0	0	21748	20300	161692	27055	1053852	46261	107988	0	0	8212	560792	0	0
2024-10-04 20:01:47			0	38094	0	0	0	21745	20310	161640	26998	1053870	46306	107987	0	0	8212	561080	0	0
2024-10-04 20:02:47			0	38104	0	0	0	21750	20310	161544	27298	1053923	46284	107989	0	0	8212	560682	0	0
2024-10-04 20:03:47			0	38113	0	0	0	21737	20310	161580	27213	1053816	46273	107984	0	0	8213	560324	0	0
2024-10-04 20:04:47			0	38079	0	0	0	21740	20310	161720	27007	1053870	46262	107985	0	0	8211	561678	0	0
2024-10-04 20:05:47			0	38107	0	0	0	21732	20320	161640	27334	1053879	46263	107982	0	0	8213	560532	0	0
2024-10-04 20:06:47			0	38090	0	0	0	21729	20310	161700	27242	1053870	46273	107981	0	0	8212	561239	0	0
2024-10-04 20:07:47			0	38085	0	0	0	21719	20310	161620	27199	1053834	46283	107977	0	0	8212	561439	0	0
2024-10-04 20:08:47			0	38084	0	0	0	21711	20310	161756	27248	1053790	46262	107974	0	0	8212	561479	0	0
2024-10-04 20:09:47			0	38074	0	0	0	21714	20300	161848	27331	1053736	46250	107975	0	0	8211	561908	0	0
2024-10-04 20:10:47			0	38081	0	0	0	21703	20300	161740	27467	1053825	46272	107971	0	0	8212	561629	0	0
2024-10-04 20:11:47			0	38054	0	0	0	21698	20290	161796	27242	1053754	46260	107969	0	0	8210	562737	0	0
2024-10-04 20:12:47			0	38042	0	0	0	21693	20300	161884	27246	1053745	46250	107967	0	0	8209	563185	0	0
2024-10-04 20:13:47			0	38040	0	0	0	21696	20290	161832	27114	1053701	46250	107968	0	0	8209	563296	0	0
2024-10-04 20:14:47			0	38041	0	0	0	21698	20280	161912	27301	1053710	46259	107969	0	0	8209	563287	0	0
2024-10-04 20:15:47			0	38022	0	0	0	21690	20290	162011	27031	1053807	46250	107966	0	0	8208	564015	0	0
2024-10-04 20:16:47			0	38018	0	0	0	21696	20290	161995	27305	1053745	46259	107968	0	0	8208	564175	0	0
2024-10-04 20:17:47			0	38027	0	0	0	21693	20270	161955	27275	1053639	46247	107967	0	0	8208	563877	0	0
2024-10-04 20:18:47			0	38006	0	0	0	21696	20280	162027	27416	1053701	46259	107968	0	0	8207	564686	0	0
2024-10-04 20:19:47			0	38019	0	0	0	21701	20270	162052	27348	1053692	46269	107970	0	0	8208	564197	0	0
2024-10-04 20:20:47			0	38024	0	0	0	21703	20270	162083	27319	1053692	46269	107971	0	0	8208	563997	0	0
2024-10-04 20:21:47			0	38000	0	0	0	21690	20280	162071	27289	1053727	46270	107966	0	0	8207	564926	0	0
2024-10-04 20:22:47			0	38011	0	0	0	21703	20290	162091	27232	1053754	46271	107971	0	0	8207	564455	0	0
2024-10-04 20:23:47			0	38002	0	0	0	21698	20280	162063	27033	1053727	46259	107969	0	0	8207	564846	0	0
2024-10-04 20:24:47			0	38027	0	0	0	21698	20280	162071	26968	1053754	46281	107969	0	0	8208	563846	0	0
2024-10-04 20:25:47			0	38008	0	0	0	21701	20270	162059	27228	1053665	46280	107970	0	0	8207	564637	0	0
2024-10-04 20:26:47			0	38001	0	0	0	21698	20280	162087	27239	1053727	46270	107969	0	0	8207	564886	0	0
2024-10-04 20:27:47			0	37994	0	0	0	21680	20280	162003	27299	1053701	46270	107962	0	0	8207	565166	0	0
2024-10-04 20:28:47			0	37999	0	0	0	21672	20270	162139	27156	1053692	46258	107959	0	0	8207	564997	0	0
2024-10-04 20:29:47			0	37986	0	0	0	21667	20280	162115	27412	1053674	46259	107957	0	0	8206	565486	0	0
2024-10-04 20:30:47			0	37984	0	0	0	21675	20270	162139	27076	1053692	46269	107960	0	0	8206	565597	0	0
2024-10-04 20:31:47			0	37987	0	0	0	21675	20260	162279	27161	1053639	46257	107960	0	0	8206	565509	0	0
2024-10-04 20:32:47			0	37976	0	0	0	21677	20270	162187	27493	1053603	46257	107961	0	0	8206	565918	0	0
2024-10-04 20:33:47			0	37986	0	0	0	21677	20260	162231	27296	1053594	46268	107961	0	0	8206	565549	0	0
2024-10-04 20:34:47			0	38005	0	0	0	21683	20260	162247	27360	1053674	46257	107963	0	0	8207	564788	0	0
2024-10-04 20:35:47			0	37998	0	0	0	21688	20260	162207	27062	1053674	46257	107965	0	0	8207	565068	0	0
2024-10-04 20:36:47			0	38001	0	0	0	21688	20270	162127	27338	1053710	46257	107965	0	0	8207	564917	0	0
2024-10-04 20:37:47			0	37973	0	0	0	21693	20260	162155	27239	1053647	46257	107967	0	0	8205	566069	0	0
2024-10-04 20:38:47			0	37997	0	0	0	21680	20260	162135	27222	1053701	46268	107962	0	0	8207	565108	0	0
2024-10-04 20:39:47			0	37988	0	0	0	21677	20270	162055	26870	1053683	46268	107961	0	0	8206	565437	0	0
2024-10-04 20:40:47			0	38001	0	0	0	21677	20260	162203	27152	1053647	46257	107961	0	0	8207	564948	0	0
2024-10-04 20:41:47			0	37994	0	0	0	21672	20260	162199	27267	1053594	46268	107959	0	0	8207	565228	0	0
2024-10-04 20:42:47			0	37983	0	0	0	21675	20260	162111	27133	1053612	46268	107960	0	0	8206	565669	0	0
2024-10-04 20:43:47			0	38010	0	0	0	21677	20250	162075	27093	1053603	46245	107961	0	0	8208	564619	0	0
2024-10-04 20:44:47			0	37992	0	0	0	21667	20260	162167	26930	1053621	46257	107957	0	0	8207	565308	0	0
2024-10-04 20:45:47			0	37980	0	0	0	21680	20260	162175	27289	1053647	46268	107962	0	0	8206	565789	0	0
2024-10-04 20:46:47			0	37989	0	0	0	21672	20250	162155	27145	1053603	46256	107959	0	0	8206	565460	0	0
2024-10-04 20:47:47			0	37998	0	0	0	21680	20240	162211	26935	1053594	46255	107962	0	0	8207	565131	0	0
2024-10-04 20:48:47			0	37987	0	0	0	21675	20250	162183	27282	1053550	46256	107960	0	0	8206	565540	0	0
2024-10-04 20:49:47			0	37976	0	0	0	21675	20250	162187	27447	1053656	46267	107960	0	0	8206	565980	0	0
2024-10-04 20:50:47			0	37990	0	0	0	21675	20250	162131	27192	1053576	46267	107960	0	0	8206	565420	0	0
2024-10-04 20:51:47			0	37986	0	0	0	21670	20250	162195	27074	1053603	46256	107958	0	0	8206	565580	0	0
2024-10-04 20:52:47			0	37980	0	0	0	21672	20250	162211	26873	1053603	46267	107959	0	0	8206	565820	0	0
2024-10-04 20:53:47			0	37991	0	0	0	21672	20240	162203	26831	1053647	46255	107959	0	0	8206	565411	0	0
2024-10-04 20:54:47			0	38003	0	0	0	21677	20250	162347	27123	1053576	46278	107961	0	0	8207	564899	0	0
2024-10-04 20:55:47			0	37988	0	0	0	21672	20260	162271	27227	1053559	46257	107959	0	0	8206	565469	0	0
2024-10-04 20:56:47			0	37989	0	0	0	21683	20260	162139	27377	1053612	46268	107963	0	0	8206	565428	0	0
2024-10-04 20:57:47			0	37985	0	0	0	21670	20240	162107	27320	1053541	46255	107958	0	0	8206	565651	0	0
2024-10-04 20:58:47			0	37995	0	0	0	21680	20250	162167	27282	1053603	46267	107962	0	0	8207	565219	0	0
2024-10-04 20:59:47			0	37989	0	0	0	21683	20260	162103	27189	1053559	46257	107963	0	0	8206	565428	0	0
2024-10-04 21:00:47			0	37976	0	0	0	21672	20260	162187	27563	1053532	46268	107959	0	0	8206	565949	0	0
2024-10-04 21:01:47			0	38001	0	0	0	21683	20240	162163	27280	1053594	46255	107963	0	0	8207	565011	0	0
2024-10-04 21:02:47			0	38011	0	0	0	21672	20240	162099	27398	1053541	46255	107959	0	0	8208	564610	0	0
2024-10-04 21:03:47			0	38002	0	0	0	21675	20240	162023	27043	1053568	46266	107960	0	0	8207	564971	0	0
2024-10-04 21:04:47			0	38013	0	0	0	21664	20250	162059	27114	1053630	46267	107956	0	0	8208	564499	0	0
2024-10-04 21:05:47			0	37992	0	0	0	21667	20240	162135	27163	1053568	46255	107957	0	0	8207	565371	0	0
2024-10-04 21:06:47			0	38010	0	0	0	21667	20240	162063	27239	1053568	46266	107957	0	0	8208	564651	0	0
2024-10-04 21:07:47			0	37997	0	0	0	21664	20240	162047	27324	1053594	46255	107956	0	0	8207	565171	0	0
2024-10-04 21:08:47			0	37992	0	0	0	21657	20240	162011	27338	1053568	46255	107953	0	0	8207	565371	0	0
2024-10-04 21:09:47			0	37988	0	0	0	21651	20260	162059	27464	1053612	46268	107951	0	0	8207	565469	0	0
2024-10-04 21:10:47			0	37980	0	0	0	21657	20240	162023	27248	1053488	46266	107953	0	0	8206	565851	0	0
2024-10-04 21:11:47			0	37974	0	0	0	21664	20240	162023	27249	1053568	46244	107956	0	0	8206	566092	0	0
2024-10-04 21:12:47			0	37983	0	0	0	21654	20240	162091	27215	1053559	46254	107952	0	0	8206	565731	0	0
2024-10-04 21:13:47			0	37978	0	0	0	21662	20240	162095	27078	1053514	46255	107955	0	0	8206	565931	0	0
2024-10-04 21:14:47			0	37989	0	0	0	21657	20240	162127	27296	1053541	46266	107953	0	0	8207	565491	0	0
2024-10-04 21:15:47			0	37973	0	0	0	21657	20240	162063	27116	1053479	46254	107953	0	0	8206	566132	0	0
2024-10-04 21:16:47			0	37983	0	0	0	21657	20230	162167	27081	1053496	46254	107953	0	0	8206	565762	0	0
2024-10-04 21:17:47			0	37981	0	0	0	21667	20230	162155	27010	1053496	46265	107957	0	0	8206	565842	0	0
2024-10-04 21:18:47			0	37988	0	0	0	21662	20230	162163	27241	1053541	46254	107955	0	0	8206	565562	0	0
2024-10-04 21:19:47			0	38007	0	0	0	21664	20240	162043	26975	1053505	46265	107956	0	0	8208	564771	0	0
2024-10-04 21:20:47			0	38002	0	0	0	21680	20230	161991	27272	1053523	46254	107962	0	0	8207	565002	0	0
2024-10-04 21:21:47			0	37996	0	0	0	21675	20240	162095	27367	1053559	46287	107960	0	0	8207	565211	0	0
2024-10-04 21:22:47			0	37990	0	0	0	21659	20240	162071	27027	1053514	46266	107954	0	0	8207	565451	0	0
2024-10-04 21:23:47			0	37992	0	0	0	21638	20230	161963	27166	1053523	46254	107946	0	0	8207	565402	0	0
2024-10-04 21:24:47			0	37980	0	0	0	21644	20230	162043	27362	1053470	46254	107948	0	0	8206	565883	0	0
2024-10-04 21:25:47			0	37980	0	0	0	21641	20230	162083	27538	1053514	46243	107947	0	0	8206	565883	0	0
2024-10-04 21:26:47			0	37971	0	0	0	21649	20230	162135	27384	1053470	46254	107950	0	0	8206	566243	0	0
2024-10-04 21:27:47			0	37981	0	0	0	21654	20230	162079	27410	1053443	46254	107952	0	0	8206	565842	0	0
2024-10-04 21:28:47			0	37986	0	0	0	21636	20230	162123	27426	1053434	46276	107945	0	0	8207	565642	0	0
2024-10-04 21:29:47			0	37993	0	0	0	21638	20230	162135	27111	1053488	46254	107946	0	0	8207	565362	0	0
2024-10-04 21:30:47			0	37947	0	0	0	21644	20220	162191	27473	1053452	46253	107948	0	0	8204	567237	0	0
2024-10-04 21:31:47			0	37959	0	0	0	21644	20210	162167	27329	1053381	46241	107948	0	0	8205	566787	0	0
2024-10-04 21:32:47			0	37966	0	0	0	21636	20220	162159	27395	1053425	46253	107945	0	0	8206	566475	0	0
2024-10-04 21:33:47			0	37964	0	0	0	21620	20210	162219	27301	1053407	46241	107939	0	0	8206	566586	0	0
2024-10-04 21:34:47			0	37936	0	0	0	21633	20210	162203	27060	1053434	46274	107944	0	0	8204	567709	0	0
2024-10-04 21:35:47			0	37961	0	0	0	21644	20220	162263	27154	1053390	46252	107948	0	0	8205	566675	0	0
2024-10-04 21:36:47			0	37956	0	0	0	21641	20220	162207	27393	1053479	46253	107947	0	0	8205	566876	0	0
2024-10-04 21:37:47			0	37968	0	0	0	21649	20220	162271	27005	1053417	46274	107950	0	0	8205	566395	0	0
2024-10-04 21:38:47			0	37950	0	0	0	21631	20230	162259	27131	1053514	46265	107943	0	0	8205	567085	0	0
2024-10-04 21:39:47			0	37965	0	0	0	21636	20210	162243	27170	1053434	46263	107945	0	0	8205	566546	0	0
2024-10-04 21:40:47			0	37967	0	0	0	21641	20210	162295	27300	1053398	46252	107947	0	0	8205	566466	0	0
2024-10-04 21:41:47			0	37950	0	0	0	21651	20210	162327	27370	1053434	46263	107951	0	0	8204	567147	0	0
2024-10-04 21:42:47			0	37947	0	0	0	21662	20210	162327	27280	1053514	46252	107955	0	0	8204	567268	0	0
2024-10-04 21:43:47			0	37982	0	0	0	21675	20200	162311	27010	1053416	46273	107960	0	0	8206	565896	0	0
2024-10-04 21:44:47			0	37997	0	0	0	21675	20220	162159	27178	1053532	46275	107960	0	0	8207	565233	0	0
2024-10-04 21:45:47			0	38009	0	0	0	21670	20220	162083	27138	1053505	46286	107958	0	0	8207	564753	0	0
2024-10-04 21:46:47			0	37985	0	0	0	21654	20230	162151	26994	1053488	46265	107952	0	0	8206	565682	0	0
2024-10-04 21:47:47			0	37995	0	0	0	21664	20230	162075	27341	1053496	46265	107956	0	0	8207	565282	0	0
2024-10-04 21:48:47			0	37992	0	0	0	21667	20220	162127	27505	1053470	46252	107957	0	0	8207	565433	0	0
2024-10-04 21:49:47			0	37978	0	0	0	21685	20240	162159	27013	1053532	46265	107964	0	0	8205	565931	0	0
2024-10-04 21:50:47			0	38004	0	0	0	21688	20220	162099	27031	1053532	46264	107965	0	0	8207	564953	0	0
2024-10-04 21:51:47			0	38030	0	0	0	21685	20230	162024	27166	1053523	46265	107964	0	0	8208	563882	0	0
2024-10-04 21:52:47			0	38017	0	0	0	21638	20230	161907	27227	1053523	46265	107946	0	0	8209	564402	0	0
2024-10-04 21:53:47			0	37992	0	0	0	21618	20240	161879	27327	1053505	46276	107938	0	0	8207	565371	0	0
2024-10-04 21:54:47			0	37979	0	0	0	21636	20230	162147	27083	1053434	46265	107945	0	0	8206	565923	0	0
2024-10-04 21:55:47			0	37991	0	0	0	21649	20230	162139	27100	1053488	46254	107950	0	0	8207	565442	0	0
2024-10-04 21:56:47			0	37966	0	0	0	21662	20230	162111	27287	1053434	46254	107955	0	0	8205	566443	0	0
2024-10-04 21:57:47			0	37971	0	0	0	21659	20230	162079	27409	1053514	46265	107954	0	0	8205	566243	0	0
2024-10-04 21:58:47			0	37979	0	0	0	21662	20220	162115	27157	1053496	46263	107955	0	0	8206	565954	0	0
2024-10-04 21:59:47			0	37970	0	0	0	21644	20230	162175	27417	1053523	46265	107948	0	0	8206	566283	0	0
2024-10-04 22:00:47			0	37974	0	0	0	21628	20220	162175	27126	1053479	46264	107942	0	0	8206	566154	0	0
2024-10-04 22:01:47			0	37960	0	0	0	21625	20230	162211	27419	1053461	46265	107941	0	0	8205	566684	0	0
2024-10-04 22:02:47			0	37951	0	0	0	21623	20220	162195	27312	1053505	46264	107940	0	0	8205	567076	0	0
2024-10-04 22:03:47			0	37947	0	0	0	21649	20210	162223	27267	1053398	46252	107950	0	0	8204	567268	0	0
2024-10-04 22:04:47			0	37940	0	0	0	21615	20220	162251	27261	1053425	46264	107937	0	0	8204	567517	0	0
2024-10-04 22:05:47			0	37945	0	0	0	21620	20220	162255	27144	1053479	46253	107939	0	0	8205	567317	0	0
2024-10-04 22:06:47			0	37913	0	0	0	21612	20200	162307	27319	1053363	46251	107936	0	0	8203	568664	0	0
2024-10-04 22:07:47			0	37933	0	0	0	21602	20210	162335	27176	1053354	46252	107932	0	0	8204	567830	0	0
2024-10-04 22:08:47			0	37901	0	0	0	21618	20200	162339	26993	1053416	46251	107938	0	0	8202	569146	0	0
2024-10-04 22:09:47			0	37902	0	0	0	21623	20200	162411	27107	1053363	46251	107940	0	0	8202	569106	0	0
2024-10-04 22:10:47			0	37870	0	0	0	21625	20210	162447	27012	1053398	46241	107941	0	0	8200	570362	0	0
2024-10-04 22:11:47			0	37903	0	0	0	21633	20210	162411	26968	1053398	46241	107944	0	0	8202	569035	0	0
2024-10-04 22:12:47			0	37909	0	0	0	21651	20200	162399	27076	1053380	46261	107951	0	0	8202	568825	0	0
2024-10-04 22:13:47			0	37934	0	0	0	21644	20200	162343	27173	1053434	46283	107948	0	0	8203	567821	0	0
2024-10-04 22:14:47			0	37931	0	0	0	21646	20220	162427	27305	1053443	46252	107949	0	0	8203	567879	0	0
2024-10-04 22:15:47			0	37923	0	0	0	21654	20210	162363	27234	1053434	46274	107952	0	0	8203	568231	0	0
2024-10-04 22:16:47			0	37944	0	0	0	21667	20210	162355	26989	1053514	46263	107957	0	0	8204	567388	0	0
2024-10-04 22:17:47			0	37946	0	0	0	21664	20220	162171	27150	1053532	46286	107956	0	0	8204	567277	0	0
2024-10-04 22:18:47			0	37943	0	0	0	21641	20220	162183	27208	1053470	46263	107947	0	0	8204	567397	0	0
2024-10-04 22:19:47			0	37945	0	0	0	21618	20210	162323	27078	1053425	46252	107938	0	0	8205	567348	0	0
2024-10-04 22:20:47			0	37922	0	0	0	21659	20210	162415	27140	1053514	46263	107954	0	0	8202	568271	0	0
2024-10-04 22:21:47			0	37929	0	0	0	21654	20210	162375	27216	1053398	46252	107952	0	0	8203	567990	0	0
2024-10-04 22:22:47			0	37921	0	0	0	21625	20220	162387	27020	1053443	46241	107941	0	0	8203	568280	0	0
2024-10-04 22:23:47			0	37917	0	0	0	21623	20220	162395	27046	1053425	46253	107940	0	0	8203	568441	0	0
2024-10-04 22:24:47			0	37905	0	0	0	21638	20220	162415	27168	1053470	46263	107946	0	0	8202	568923	0	0
2024-10-04 22:25:47			0	37904	0	0	0	21644	20210	162475	27263	1053452	46252	107948	0	0	8202	568995	0	0
2024-10-04 22:26:47			0	37886	0	0	0	21664	20210	162487	26906	1053478	46263	107956	0	0	8200	569718	0	0
2024-10-04 22:27:47			0	37920	0	0	0	21672	20220	162391	26934	1053443	46252	107959	0	0	8202	568320	0	0
2024-10-04 22:28:47			0	37921	0	0	0	21667	20220	162307	27128	1053523	46274	107957	0	0	8202	568280	0	0
2024-10-04 22:29:47			0	37934	0	0	0	21659	20220	162343	27183	1053496	46274	107954	0	0	8203	567758	0	0
2024-10-04 22:30:47			0	37933	0	0	0	21638	20230	162331	27171	1053541	46276	107946	0	0	8204	567767	0	0
2024-10-04 22:31:47			0	37913	0	0	0	21628	20220	162383	27114	1053479	46264	107942	0	0	8203	568602	0	0
2024-10-04 22:32:47			0	37892	0	0	0	21625	20220	162443	27313	1053417	46241	107941	0	0	8201	569446	0	0
2024-10-04 22:33:47			0	37905	0	0	0	21625	20220	162371	27277	1053417	46241	107941	0	0	8202	568923	0	0
2024-10-04 22:34:47			0	37886	0	0	0	21631	20210	162415	27118	1053381	46230	107943	0	0	8201	569718	0	0
2024-10-04 22:35:47			0	37883	0	0	0	21631	20210	162423	27308	1053381	46241	107943	0	0	8201	569839	0	0
2024-10-04 22:36:47			0	37887	0	0	0	21649	20210	162527	27138	1053434	46252	107950	0	0	8201	569678	0	0
2024-10-04 22:37:47			0	37920	0	0	0	21649	20210	162471	27365	1053425	46263	107950	0	0	8203	568352	0	0
2024-10-04 22:38:47			0	37921	0	0	0	21646	20210	162391	27242	1053460	46252	107949	0	0	8203	568311	0	0
2024-10-04 22:39:47			0	37922	0	0	0	21615	20220	162467	27105	1053443	46263	107937	0	0	8203	568240	0	0
2024-10-04 22:40:47			0	37885	0	0	0	21612	20230	162439	27027	1053461	46243	107936	0	0	8201	569696	0	0
2024-10-04 22:41:47			0	37875	0	0	0	21612	20200	162467	27118	1053389	46251	107936	0	0	8200	570192	0	0
2024-10-04 22:42:47			0	37868	0	0	0	21618	20210	162567	26779	1053354	46252	107938	0	0	8200	570443	0	0
2024-10-04 22:43:47			0	37856	0	0	0	21618	20200	162499	27348	1053354	46250	107938	0	0	8199	570958	0	0
2024-10-04 22:44:47			0	37878	0	0	0	21628	20200	162595	27220	1053380	46228	107942	0	0	8200	570072	0	0
2024-10-04 22:45:47			0	37869	0	0	0	21631	20200	162687	26960	1053336	46262	107943	0	0	8200	570434	0	0
2024-10-04 22:46:47			0	37848	0	0	0	21644	20200	162615	26937	1053407	46250	107948	0	0	8198	571280	0	0
2024-10-04 22:47:47			0	37875	0	0	0	21641	20190	162511	27222	1053318	46272	107947	0	0	8200	570224	0	0
2024-10-04 22:48:47			0	37872	0	0	0	21620	20210	162595	27395	1053452	46252	107939	0	0	8200	570282	0	0
2024-10-04 22:49:47			0	37874	0	0	0	21599	20210	162599	27338	1053398	46252	107931	0	0	8201	570201	0	0
2024-10-04 22:50:47			0	37842	0	0	0	21612	20200	162731	27313	1053354	46250	107936	0	0	8199	571522	0	0
2024-10-04 22:51:47			0	37877	0	0	0	21620	20200	162711	27319	1053310	46251	107939	0	0	8200	570112	0	0
2024-10-04 22:52:47			0	37865	0	0	0	21620	20200	162727	27050	1053301	46250	107939	0	0	8200	570595	0	0
2024-10-04 22:53:47			0	37851	0	0	0	21636	20200	162603	27258	1053380	46239	107945	0	0	8199	571159	0	0
2024-10-04 22:54:47			0	37887	0	0	0	21638	20190	162543	27412	1053345	46261	107946	0	0	8201	569741	0	0
2024-10-04 22:55:47			0	37884	0	0	0	21638	20200	162539	27343	1053416	46240	107946	0	0	8201	569830	0	0
2024-10-04 22:56:47			0	37877	0	0	0	21631	20200	162563	27499	1053416	46251	107943	0	0	8200	570112	0	0
2024-10-04 22:57:47			0	37870	0	0	0	21625	20200	162567	27495	1053389	46262	107941	0	0	8200	570394	0	0
2024-10-04 22:58:47			0	37860	0	0	0	21625	20210	162775	27263	1053398	46252	107941	0	0	8199	570765	0	0
2024-10-04 22:59:47			0	37867	0	0	0	21618	20200	162655	27313	1053363	46262	107938	0	0	8200	570514	0	0
2024-10-04 23:00:47			0	37865	0	0	0	21633	20200	162659	27173	1053416	46240	107944	0	0	8200	570595	0	0
2024-10-04 23:01:47			0	37863	0	0	0	21625	20200	162671	27428	1053310	46262	107941	0	0	8200	570676	0	0
2024-10-04 23:02:47			0	37854	0	0	0	21633	20200	162611	27284	1053336	46262	107944	0	0	8199	571038	0	0
2024-10-04 23:03:47			0	37849	0	0	0	21633	20200	162719	27201	1053407	46250	107944	0	0	8199	571240	0	0
2024-10-04 23:04:47			0	37851	0	0	0	21641	20210	162695	27081	1053398	46241	107947	0	0	8199	571127	0	0
2024-10-04 23:05:47			0	37856	0	0	0	21636	20200	162683	27062	1053496	46262	107945	0	0	8199	570958	0	0
2024-10-04 23:06:47			0	37877	0	0	0	21628	20200	162739	27171	1053443	46262	107942	0	0	8200	570112	0	0
2024-10-04 23:07:47			0	37857	0	0	0	21623	20200	162723	27222	1053389	46251	107940	0	0	8199	570917	0	0
2024-10-04 23:08:47			0	37846	0	0	0	21646	20200	162743	27289	1053469	46273	107949	0	0	8198	571360	0	0
2024-10-04 23:09:47			0	37862	0	0	0	21638	20210	162695	27083	1053345	46263	107946	0	0	8199	570684	0	0
2024-10-04 23:10:47			0	37857	0	0	0	21615	20200	162543	27227	1053354	46250	107937	0	0	8199	570917	0	0
2024-10-04 23:11:47			0	37857	0	0	0	21592	20200	162635	27277	1053363	46262	107928	0	0	8200	570917	0	0
2024-10-04 23:12:47			0	37847	0	0	0	21612	20200	162747	27338	1053354	46239	107936	0	0	8199	571320	0	0
2024-10-04 23:13:47			0	37839	0	0	0	21597	20200	162731	27109	1053380	46261	107930	0	0	8199	571642	0	0
2024-10-04 23:14:47			0	37828	0	0	0	21589	20190	162843	27194	1053318	46250	107927	0	0	8198	572118	0	0
2024-10-04 23:15:47			0	37827	0	0	0	21602	20200	162879	27362	1053327	46250	107932	0	0	8198	572126	0	0
2024-10-04 23:16:47			0	37804	0	0	0	21602	20190	162843	27388	1053283	46239	107932	0	0	8196	573086	0	0
2024-10-04 23:17:47			0	37810	0	0	0	21610	20180	162743	27336	1053354	46250	107935	0	0	8197	572876	0	0
2024-10-04 23:18:47			0	37807	0	0	0	21612	20190	162851	26963	1053318	46250	107936	0	0	8196	572965	0	0
2024-10-04 23:19:47			0	37814	0	0	0	21623	20190	162835	27159	1053283	46250	107940	0	0	8197	572683	0	0
2024-10-04 23:20:47			0	37837	0	0	0	21628	20180	162839	27213	1053301	46250	107942	0	0	8198	571786	0	0
2024-10-04 23:21:47			0	37842	0	0	0	21607	20190	162767	27284	1053283	46250	107934	0	0	8199	571553	0	0
2024-10-04 23:22:47			0	37830	0	0	0	21599	20180	162887	26956	1053274	46250	107931	0	0	8198	572069	0	0
2024-10-04 23:23:47			0	37808	0	0	0	21599	20190	162975	27104	1053283	46261	107931	0	0	8197	572925	0	0
2024-10-04 23:24:47			0	37802	0	0	0	21602	20190	162839	27131	1053309	46239	107932	0	0	8196	573167	0	0
2024-10-04 23:25:47			0	37799	0	0	0	21607	20190	162891	27118	1053309	46250	107934	0	0	8196	573288	0	0
2024-10-04 23:26:47			0	37823	0	0	0	21618	20180	162935	27300	1053327	46238	107938	0	0	8197	572351	0	0
2024-10-04 23:27:47			0	37823	0	0	0	21620	20180	162879	27326	1053292	46259	107939	0	0	8197	572351	0	0
2024-10-04 23:28:47			0	37831	0	0	0	21620	20180	162719	27319	1053292	46270	107939	0	0	8198	572028	0	0
2024-10-04 23:29:47			0	37816	0	0	0	21594	20190	162751	27190	1053336	46250	107929	0	0	8197	572602	0	0
2024-10-04 23:30:47			0	37799	0	0	0	21597	20190	162811	27156	1053336	46250	107930	0	0	8196	573288	0	0
2024-10-04 23:31:47			0	37777	0	0	0	21620	20190	162899	27324	1053283	46250	107939	0	0	8194	574177	0	0
2024-10-04 23:32:47			0	37788	0	0	0	21594	20190	162995	27279	1053318	46250	107929	0	0	8196	573733	0	0
2024-10-04 23:33:47			0	37804	0	0	0	21623	20190	162915	27072	1053318	46250	107940	0	0	8196	573086	0	0
2024-10-04 23:34:47			0	37814	0	0	0	21633	20190	162987	27395	1053345	46250	107944	0	0	8196	572683	0	0
2024-10-04 23:35:47			0	37829	0	0	0	21633	20190	162835	27173	1053416	46283	107944	0	0	8197	572077	0	0
2024-10-04 23:36:47			0	37832	0	0	0	21620	20180	162751	27333	1053354	46260	107939	0	0	8198	571988	0	0
2024-10-04 23:37:47			0	37840	0	0	0	21623	20190	162667	27315	1053363	46261	107940	0	0	8198	571634	0	0
2024-10-04 23:38:47			0	37856	0	0	0	21612	20190	162815	27197	1053363	46272	107936	0	0	8199	570989	0	0
2024-10-04 23:39:47			0	37861	0	0	0	21633	20190	162619	27280	1053398	46250	107944	0	0	8199	570788	0	0
2024-10-04 23:40:47			0	37865	0	0	0	21620	20200	162731	27138	1053407	46272	107939	0	0	8200	570595	0	0
2024-10-04 23:41:47			0	37850	0	0	0	21599	20200	162651	27168	1053407	46261	107931	0	0	8199	571199	0	0
2024-10-04 23:42:47			0	37845	0	0	0	21586	20190	162803	27225	1053336	46250	107926	0	0	8199	571432	0	0
2024-10-04 23:43:47			0	37817	0	0	0	21602	20190	162819	27256	1053336	46239	107932	0	0	8197	572561	0	0
2024-10-04 23:44:47			0	37805	0	0	0	21623	20180	162771	27341	1053327	46250	107940	0	0	8196	573078	0	0
2024-10-04 23:45:47			0	37814	0	0	0	21625	20190	162863	27145	1053336	46250	107941	0	0	8197	572683	0	0
2024-10-04 23:46:47			0	37835	0	0	0	21615	20200	162771	27178	1053301	46261	107937	0	0	8198	571804	0	0
2024-10-04 23:47:47			0	37825	0	0	0	21641	20180	162815	27130	1053354	46250	107947	0	0	8197	572270	0	0
2024-10-04 23:48:47			0	37844	0	0	0	21618	20190	162759	27199	1053363	46250	107938	0	0	8198	571473	0	0
2024-10-04 23:49:47			0	37862	0	0	0	21625	20190	162687	27154	1053336	46250	107941	0	0	8199	570747	0	0
2024-10-04 23:50:47			0	37868	0	0	0	21628	20190	162711	27170	1053389	46272	107942	0	0	8200	570506	0	0
2024-10-04 23:51:47			0	37867	0	0	0	21633	20190	162723	26981	1053372	46261	107944	0	0	8200	570546	0	0
2024-10-04 23:52:47			0	37863	0	0	0	21605	20190	162587	27211	1053398	46250	107933	0	0	8200	570707	0	0
2024-10-04 23:53:47			0	37845	0	0	0	21610	20200	162803	27059	1053301	46272	107935	0	0	8199	571401	0	0
2024-10-04 23:54:47			0	37842	0	0	0	21628	20190	162847	27324	1053292	46250	107942	0	0	8198	571553	0	0
2024-10-04 23:55:47			0	37852	0	0	0	21623	20210	162723	26911	1053398	46252	107940	0	0	8199	571087	0	0
2024-10-04 23:56:47			0	37851	0	0	0	21605	20190	162699	26974	1053345	46261	107933	0	0	8199	571190	0	0
2024-10-04 23:57:47			0	37840	0	0	0	21597	20190	162775	27170	1053309	46239	107930	0	0	8199	571634	0	0
2024-10-04 23:58:47			0	37817	0	0	0	21618	20190	162831	26930	1053363	46239	107938	0	0	8197	572561	0	0
2024-10-04 23:59:47			0	37826	0	0	0	21615	20180	162891	26720	1053274	46250	107937	0	0	8197	572230	0	0
2024-10-05 00:00:47			0	37823	0	0	0	21615	20190	162851	27272	1053389	46261	107937	0	0	8197	572319	0	0
2024-10-05 00:01:47			0	37827	0	0	0	21597	20190	162859	27104	1053372	46239	107930	0	0	8198	572158	0	0
2024-10-05 00:02:47			0	37790	0	0	0	21618	20180	162867	26861	1053327	46260	107938	0	0	8195	573683	0	0
2024-10-05 00:03:47			0	37803	0	0	0	21633	20180	162955	27013	1053301	46238	107944	0	0	8196	573158	0	0
2024-10-05 00:04:47			0	37845	0	0	0	21670	20190	162815	27173	1053398	46250	107958	0	0	8198	571432	0	0
2024-10-05 00:05:47			0	37866	0	0	0	21659	20190	162607	27209	1053442	46272	107954	0	0	8199	570586	0	0
2024-10-05 00:06:47			0	37890	0	0	0	21657	20200	162555	27149	1053380	46272	107953	0	0	8201	569589	0	0
2024-10-05 00:07:47			0	37919	0	0	0	21638	20200	162499	27469	1053434	46261	107946	0	0	8203	568423	0	0
2024-10-05 00:08:47			0	37917	0	0	0	21636	20210	162451	27114	1053372	46263	107945	0	0	8203	568472	0	0
2024-10-05 00:09:47			0	37909	0	0	0	21612	20200	162499	27161	1053407	46250	107936	0	0	8202	568825	0	0
2024-10-05 00:10:47			0	37898	0	0	0	21644	20210	162507	27249	1053425	46252	107948	0	0	8201	569236	0	0
2024-10-05 00:11:47			0	37914	0	0	0	21649	20200	162575	26899	1053460	46261	107950	0	0	8202	568624	0	0
2024-10-05 00:12:47			0	37921	0	0	0	21646	20200	162487	27154	1053416	46251	107949	0	0	8203	568343	0	0
2024-10-05 00:13:47			0	37895	0	0	0	21625	20200	162351	27301	1053443	46251	107941	0	0	8201	569388	0	0
2024-10-05 00:14:47			0	37916	0	0	0	21641	20210	162567	27241	1053398	46252	107947	0	0	8202	568512	0	0
2024-10-05 00:15:47			0	37904	0	0	0	21633	20200	162519	26975	1053416	46273	107944	0	0	8202	569026	0	0
2024-10-05 00:16:47			0	37904	0	0	0	21657	20210	162551	27033	1053452	46263	107953	0	0	8201	568995	0	0
2024-10-05 00:17:47			0	37929	0	0	0	21662	20210	162399	27066	1053505	46252	107955	0	0	8203	567990	0	0
2024-10-05 00:18:47			0	37951	0	0	0	21657	20210	162419	27187	1053505	46274	107953	0	0	8204	567107	0	0
2024-10-05 00:19:47			0	37940	0	0	0	21644	20210	162431	27239	1053478	46252	107948	0	0	8204	567549	0	0
2024-10-05 00:20:47			0	37935	0	0	0	21646	20210	162451	27074	1053505	46263	107949	0	0	8203	567749	0	0
2024-10-05 00:21:47			0	37930	0	0	0	21644	20210	162451	27119	1053425	46263	107948	0	0	8203	567950	0	0
2024-10-05 00:22:47			0	37932	0	0	0	21631	20210	162311	26937	1053425	46252	107943	0	0	8204	567870	0	0
2024-10-05 00:23:47			0	37915	0	0	0	21633	20210	162455	27223	1053514	46252	107944	0	0	8203	568552	0	0
2024-10-05 00:24:47			0	37913	0	0	0	21620	20200	162439	27239	1053407	46250	107939	0	0	8203	568664	0	0
2024-10-05 00:25:47			0	37915	0	0	0	21620	20210	162475	26979	1053460	46252	107939	0	0	8203	568552	0	0
2024-10-05 00:26:47			0	37909	0	0	0	21636	20210	162443	27013	1053434	46252	107945	0	0	8202	568794	0	0
2024-10-05 00:27:47			0	37914	0	0	0	21651	20210	162455	27331	1053478	46252	107951	0	0	8202	568593	0	0
2024-10-05 00:28:47			0	37930	0	0	0	21659	20210	162431	27072	1053407	46263	107954	0	0	8203	567950	0	0
2024-10-05 00:29:47			0	37935	0	0	0	21651	20200	162291	27246	1053380	46261	107951	0	0	8203	567781	0	0
2024-10-05 00:30:47			0	37944	0	0	0	21651	20210	162303	26918	1053514	46252	107951	0	0	8204	567388	0	0
2024-10-05 00:31:47			0	37962	0	0	0	21667	20210	162343	27379	1053514	46263	107957	0	0	8205	566666	0	0
2024-10-05 00:32:47			0	37991	0	0	0	21690	20210	162223	27159	1053514	46263	107966	0	0	8206	565504	0	0
2024-10-05 00:33:47			0	37989	0	0	0	21675	20220	162067	27324	1053558	46253	107960	0	0	8206	565553	0	0
2024-10-05 00:34:47			0	38004	0	0	0	21677	20220	161963	26916	1053505	46264	107961	0	0	8207	564953	0	0
2024-10-05 00:35:47			0	38026	0	0	0	21675	20210	162000	27364	1053540	46274	107960	0	0	8208	564104	0	0
2024-10-05 00:36:47			0	38018	0	0	0	21675	20230	162019	27370	1053514	46254	107960	0	0	8208	564362	0	0
2024-10-05 00:37:47			0	38034	0	0	0	21672	20230	161932	27388	1053603	46276	107959	0	0	8209	563722	0	0
2024-10-05 00:38:47			0	38036	0	0	0	21675	20230	161992	27421	1053656	46265	107960	0	0	8209	563642	0	0
2024-10-05 00:39:47			0	38032	0	0	0	21672	20240	161972	27107	1053594	46277	107959	0	0	8209	563771	0	0
2024-10-05 00:40:47			0	38021	0	0	0	21672	20230	162011	27173	1053550	46254	107959	0	0	8208	564242	0	0
2024-10-05 00:41:47			0	38032	0	0	0	21672	20240	162024	27033	1053638	46276	107959	0	0	8209	563771	0	0
2024-10-05 00:42:47			0	38028	0	0	0	21662	20240	161919	27459	1053621	46244	107955	0	0	8209	563931	0	0
2024-10-05 00:43:47			0	38032	0	0	0	21654	20240	162020	27222	1053612	46254	107952	0	0	8209	563771	0	0
2024-10-05 00:44:47			0	38017	0	0	0	21651	20230	162155	27105	1053514	46254	107951	0	0	8208	564402	0	0
2024-10-05 00:45:47			0	38001	0	0	0	21675	20240	162211	26800	1053612	46254	107960	0	0	8207	565011	0	0
2024-10-05 00:46:47			0	38015	0	0	0	21670	20230	162095	27216	1053514	46254	107958	0	0	8208	564482	0	0
2024-10-05 00:47:47			0	37994	0	0	0	21662	20230	162131	27149	1053603	46254	107955	0	0	8207	565322	0	0
2024-10-05 00:48:47			0	38006	0	0	0	21651	20240	162075	27137	1053612	46265	107951	0	0	8208	564810	0	0
2024-10-05 00:49:47			0	37988	0	0	0	21636	20230	162231	27223	1053496	46254	107945	0	0	8207	565562	0	0
2024-10-05 00:50:47			0	37974	0	0	0	21662	20240	162203	27320	1053559	46254	107955	0	0	8206	566092	0	0
2024-10-05 00:51:47			0	37966	0	0	0	21649	20220	162159	27416	1053532	46253	107950	0	0	8205	566475	0	0
2024-10-05 00:52:47			0	37983	0	0	0	21664	20230	162119	27156	1053514	46254	107956	0	0	8206	565762	0	0
2024-10-05 00:53:47			0	37999	0	0	0	21664	20230	162087	27175	1053514	46265	107956	0	0	8207	565122	0	0
2024-10-05 00:54:47			0	37987	0	0	0	21667	20240	162143	27386	1053532	46254	107957	0	0	8206	565571	0	0
2024-10-05 00:55:47			0	37983	0	0	0	21644	20240	162103	26887	1053585	46265	107948	0	0	8206	565731	0	0
2024-10-05 00:56:47			0	37977	0	0	0	21667	20230	162135	27072	1053603	46265	107957	0	0	8206	566003	0	0
2024-10-05 00:57:47			0	37976	0	0	0	21662	20240	162151	27227	1053585	46243	107955	0	0	8206	566011	0	0
2024-10-05 00:58:47			0	37990	0	0	0	21654	20230	162159	27319	1053523	46265	107952	0	0	8207	565482	0	0
2024-10-05 00:59:47			0	37986	0	0	0	21654	20230	162251	26977	1053576	46254	107952	0	0	8206	565642	0	0
2024-10-05 01:00:47			0	37972	0	0	0	21651	20230	162187	27256	1053567	46265	107951	0	0	8206	566203	0	0
2024-10-05 01:01:47			0	37967	0	0	0	21651	20220	162251	27222	1053505	46253	107951	0	0	8205	566435	0	0
2024-10-05 01:02:47			0	37966	0	0	0	21659	20230	162295	27131	1053541	46265	107954	0	0	8205	566443	0	0
2024-10-05 01:03:47			0	37971	0	0	0	21662	20220	162307	27345	1053558	46253	107955	0	0	8205	566274	0	0
2024-10-05 01:04:47			0	37977	0	0	0	21662	20230	162247	27147	1053621	46254	107955	0	0	8206	566003	0	0
2024-10-05 01:05:47			0	37967	0	0	0	21651	20230	162191	27199	1053576	46254	107951	0	0	8205	566403	0	0
2024-10-05 01:06:47			0	37975	0	0	0	21662	20230	162199	27440	1053550	46243	107955	0	0	8206	566083	0	0
2024-10-05 01:07:47			0	37993	0	0	0	21659	20230	162251	27301	1053567	46254	107954	0	0	8207	565362	0	0
2024-10-05 01:08:47			0	37986	0	0	0	21657	20230	162167	26991	1053496	46265	107953	0	0	8206	565642	0	0
2024-10-05 01:09:47			0	37990	0	0	0	21649	20230	162035	27038	1053523	46254	107950	0	0	8207	565482	0	0
2024-10-05 01:10:47			0	37992	0	0	0	21657	20230	162179	27182	1053576	46254	107953	0	0	8207	565402	0	0
2024-10-05 01:11:47			0	37985	0	0	0	21664	20240	162127	27246	1053638	46265	107956	0	0	8206	565651	0	0
2024-10-05 01:12:47			0	38006	0	0	0	21667	20220	162239	27015	1053612	46253	107957	0	0	8207	564873	0	0
2024-10-05 01:13:47			0	37991	0	0	0	21677	20230	162079	27511	1053621	46254	107961	0	0	8206	565442	0	0
2024-10-05 01:14:47			0	38006	0	0	0	21675	20230	162035	27111	1053541	46265	107960	0	0	8207	564842	0	0
2024-10-05 01:15:47			0	38021	0	0	0	21680	20230	162035	27260	1053603	46265	107962	0	0	8208	564242	0	0
2024-10-05 01:16:47			0	38048	0	0	0	21677	20240	161896	27416	1053665	46276	107961	0	0	8210	563132	0	0
2024-10-05 01:17:47			0	38048	0	0	0	21675	20240	161832	27244	1053585	46265	107960	0	0	8210	563132	0	0
2024-10-05 01:18:47			0	38031	0	0	0	21677	20240	161951	27346	1053585	46265	107961	0	0	8209	563811	0	0
2024-10-05 01:19:47			0	38048	0	0	0	21672	20240	161776	27301	1053585	46276	107959	0	0	8210	563132	0	0
2024-10-05 01:20:47			0	38041	0	0	0	21675	20240	161900	27339	1053585	46265	107960	0	0	8209	563411	0	0
2024-10-05 01:21:47			0	38030	0	0	0	21664	20240	161991	27281	1053638	46254	107956	0	0	8209	563851	0	0
2024-10-05 01:22:47			0	38038	0	0	0	21667	20240	161968	27346	1053621	46255	107957	0	0	8209	563531	0	0
2024-10-05 01:23:47			0	38031	0	0	0	21677	20240	161940	27048	1053585	46265	107961	0	0	8209	563811	0	0
2024-10-05 01:24:47			0	38041	0	0	0	21677	20230	161964	27017	1053550	46265	107961	0	0	8209	563443	0	0
2024-10-05 01:25:47			0	38015	0	0	0	21667	20240	161963	27365	1053568	46255	107957	0	0	8208	564451	0	0
2024-10-05 01:26:47			0	38024	0	0	0	21662	20240	162003	27029	1053638	46265	107955	0	0	8209	564091	0	0
2024-10-05 01:27:47			0	38017	0	0	0	21662	20240	161927	27131	1053559	46243	107955	0	0	8208	564371	0	0
2024-10-05 01:28:47			0	38014	0	0	0	21659	20230	161995	27178	1053576	46243	107954	0	0	8208	564522	0	0
2024-10-05 01:29:47			0	38021	0	0	0	21659	20230	162043	26996	1053576	46254	107954	0	0	8208	564242	0	0
2024-10-05 01:30:47			0	38029	0	0	0	21675	20240	162015	27086	1053665	46265	107960	0	0	8209	563891	0	0
2024-10-05 01:31:47			0	38027	0	0	0	21667	20230	162035	27170	1053576	46265	107957	0	0	8209	564002	0	0
2024-10-05 01:32:47			0	38030	0	0	0	21672	20240	161928	27293	1053647	46255	107959	0	0	8209	563851	0	0
2024-10-05 01:33:47			0	38055	0	0	0	21664	20240	162076	27017	1053621	46277	107956	0	0	8210	562852	0	0
2024-10-05 01:34:47			0	38038	0	0	0	21675	20230	162072	27130	1053683	46265	107960	0	0	8209	563562	0	0
2024-10-05 01:35:47			0	38041	0	0	0	21664	20240	161972	27381	1053585	46254	107956	0	0	8210	563411	0	0
2024-10-05 01:36:47			0	38043	0	0	0	21675	20230	162104	27227	1053594	46265	107960	0	0	8209	563363	0	0
2024-10-05 01:37:47			0	38022	0	0	0	21657	20240	162067	27041	1053638	46265	107953	0	0	8209	564171	0	0
2024-10-05 01:38:47			0	38019	0	0	0	21659	20240	162103	26904	1053585	46254	107954	0	0	8208	564291	0	0
2024-10-05 01:39:47			0	38005	0	0	0	21659	20230	162275	27239	1053576	46254	107954	0	0	8207	564882	0	0
2024-10-05 01:40:47			0	38004	0	0	0	21667	20240	162111	27187	1053541	46255	107957	0	0	8207	564890	0	0
2024-10-05 01:41:47			0	37989	0	0	0	21657	20240	162219	27322	1053638	46254	107953	0	0	8207	565491	0	0
2024-10-05 01:42:47			0	37993	0	0	0	21646	20240	162295	27166	1053665	46254	107949	0	0	8207	565331	0	0
2024-10-05 01:43:47			0	37975	0	0	0	21649	20230	162271	27192	1053523	46265	107950	0	0	8206	566083	0	0
2024-10-05 01:44:47			0	37960	0	0	0	21654	20230	162279	27008	1053603	46254	107952	0	0	8205	566684	0	0
2024-10-05 01:45:47			0	37955	0	0	0	21651	20230	162307	27294	1053567	46254	107951	0	0	8205	566884	0	0
2024-10-05 01:46:47			0	37958	0	0	0	21657	20220	162347	27319	1053585	46264	107953	0	0	8205	566795	0	0
2024-10-05 01:47:47			0	37964	0	0	0	21657	20230	162291	27329	1053603	46254	107953	0	0	8205	566524	0	0
2024-10-05 01:48:47			0	37962	0	0	0	21646	20230	162231	27039	1053576	46232	107949	0	0	8205	566604	0	0
2024-10-05 01:49:47			0	37948	0	0	0	21651	20220	162275	27263	1053558	46242	107951	0	0	8204	567196	0	0
2024-10-05 01:50:47			0	37953	0	0	0	21641	20230	162271	27300	1053514	46254	107947	0	0	8205	566965	0	0
2024-10-05 01:51:47			0	37981	0	0	0	21646	20230	162315	27038	1053514	46243	107949	0	0	8206	565842	0	0
2024-10-05 01:52:47			0	37976	0	0	0	21646	20230	162239	27053	1053514	46254	107949	0	0	8206	566043	0	0
2024-10-05 01:53:47			0	37959	0	0	0	21654	20230	162247	27218	1053541	46243	107952	0	0	8205	566724	0	0
2024-10-05 01:54:47			0	37987	0	0	0	21651	20210	162315	27227	1053593	46241	107951	0	0	8206	565665	0	0
2024-10-05 01:55:47			0	37980	0	0	0	21649	20210	162191	27050	1053567	46263	107950	0	0	8206	565945	0	0
2024-10-05 01:56:47			0	37979	0	0	0	21649	20210	162139	27350	1053487	46274	107950	0	0	8206	565985	0	0
2024-10-05 01:57:47			0	37987	0	0	0	21654	20210	162199	27261	1053540	46241	107952	0	0	8206	565665	0	0
2024-10-05 01:58:47			0	37976	0	0	0	21644	20220	162231	27031	1053523	46263	107948	0	0	8206	566074	0	0
2024-10-05 01:59:47			0	37979	0	0	0	21644	20220	162259	27353	1053532	46264	107948	0	0	8206	565954	0	0
2024-10-05 02:00:47			0	37957	0	0	0	21641	20220	162275	27376	1053523	46241	107947	0	0	8205	566835	0	0
2024-10-05 02:01:47			0	37968	0	0	0	21633	20220	162351	27267	1053585	46264	107944	0	0	8206	566395	0	0
2024-10-05 02:02:47			0	37970	0	0	0	21636	20210	162351	27045	1053531	46263	107945	0	0	8206	566346	0	0
2024-10-05 02:03:47			0	37948	0	0	0	21636	20220	162347	27064	1053452	46253	107945	0	0	8204	567196	0	0
2024-10-05 02:04:47			0	37976	0	0	0	21636	20210	162267	27059	1053434	46252	107945	0	0	8206	566105	0	0
2024-10-05 02:05:47			0	37964	0	0	0	21625	20210	162359	27097	1053460	46263	107941	0	0	8206	566586	0	0
2024-10-05 02:06:47			0	37956	0	0	0	21638	20210	162323	27331	1053460	46263	107946	0	0	8205	566907	0	0
2024-10-05 02:07:47			0	37956	0	0	0	21633	20200	162403	27017	1053416	46262	107944	0	0	8205	566938	0	0
2024-10-05 02:08:47			0	37958	0	0	0	21625	20210	162399	27104	1053425	46252	107941	0	0	8205	566827	0	0
2024-10-05 02:09:47			0	37960	0	0	0	21631	20210	162319	27093	1053372	46263	107943	0	0	8205	566747	0	0
2024-10-05 02:10:47			0	37943	0	0	0	21628	20210	162375	26993	1053452	46263	107942	0	0	8204	567428	0	0
2024-10-05 02:11:47			0	37955	0	0	0	21631	20200	162371	27279	1053443	46273	107943	0	0	8205	566978	0	0
2024-10-05 02:12:47			0	37954	0	0	0	21615	20200	162411	27248	1053443	46240	107937	0	0	8205	567018	0	0
2024-10-05 02:13:47			0	37940	0	0	0	21620	20200	162395	27017	1053407	46239	107939	0	0	8204	567580	0	0
2024-10-05 02:14:47			0	37946	0	0	0	21625	20200	162455	27085	1053443	46251	107941	0	0	8204	567339	0	0
2024-10-05 02:15:47			0	37954	0	0	0	21615	20200	162335	27076	1053434	46250	107937	0	0	8205	567018	0	0
2024-10-05 02:16:47			0	37931	0	0	0	21628	20190	162359	27199	1053372	46261	107942	0	0	8203	567973	0	0
2024-10-05 02:17:47			0	37937	0	0	0	21610	20200	162431	27095	1053389	46251	107935	0	0	8204	567700	0	0
2024-10-05 02:18:47			0	37939	0	0	0	21610	20200	162411	27038	1053434	46239	107935	0	0	8204	567620	0	0
2024-10-05 02:19:47			0	37942	0	0	0	21615	20200	162343	27228	1053434	46250	107937	0	0	8204	567500	0	0
2024-10-05 02:20:47			0	37934	0	0	0	21623	20190	162399	27112	1053363	46239	107940	0	0	8204	567852	0	0
2024-10-05 02:21:47			0	37949	0	0	0	21581	20180	162295	27287	1053327	46250	107924	0	0	8205	567282	0	0
2024-10-05 02:22:47			0	37972	0	0	0	21597	20170	162339	27260	1053230	46226	107930	0	0	8206	566391	0	0
2024-10-05 02:23:47			0	37980	0	0	0	21599	20180	162267	27031	1053292	46237	107931	0	0	8207	566039	0	0
2024-10-05 02:24:47			0	37984	0	0	0	21610	20170	162271	27353	1053274	46236	107935	0	0	8207	565910	0	0
2024-10-05 02:25:47			0	37966	0	0	0	21594	20170	162307	27281	1053256	46249	107929	0	0	8206	566631	0	0
2024-10-05 02:26:47			0	37966	0	0	0	21586	20160	162323	27137	1053212	46236	107926	0	0	8206	566662	0	0
2024-10-05 02:27:47			0	37974	0	0	0	21589	20160	162395	26845	1053150	46235	107927	0	0	8207	566342	0	0
2024-10-05 02:28:47			0	37970	0	0	0	21589	20160	162363	27015	1053203	46235	107927	0	0	8206	566502	0	0
2024-10-05 02:29:47			0	37959	0	0	0	21568	20150	162395	27315	1053141	46234	107919	0	0	8206	566974	0	0
2024-10-05 02:30:47			0	37947	0	0	0	21548	20150	162471	27180	1053158	46256	107911	0	0	8206	567456	0	0
2024-10-05 02:31:47			0	37925	0	0	0	21509	20130	162619	27282	1053078	46232	107896	0	0	8205	568402	0	0
2024-10-05 02:32:47			0	37910	0	0	0	21457	20130	162595	27145	1052972	46221	107876	0	0	8205	569005	0	0
2024-10-05 02:33:47			0	37920	0	0	0	21470	20120	162627	27071	1052919	46199	107881	0	0	8205	568634	0	0
2024-10-05 02:34:47			0	37920	0	0	0	21433	20090	162659	27384	1052785	46196	107867	0	0	8206	568728	0	0
2024-10-05 02:35:47			0	37900	0	0	0	21454	20090	162719	27194	1052732	46217	107875	0	0	8204	569532	0	0
2024-10-05 02:36:47			0	37890	0	0	0	21496	20070	162759	27038	1052723	46205	107891	0	0	8203	569998	0	0
2024-10-05 02:37:47			0	37886	0	0	0	21553	20070	162871	27414	1052723	46226	107913	0	0	8202	570159	0	0
2024-10-05 02:38:47			0	37894	0	0	0	21535	20070	162803	26993	1052812	46226	107906	0	0	8202	569837	0	0
2024-10-05 02:39:47			0	37872	0	0	0	21594	20070	162767	26935	1052803	46249	107929	0	0	8200	570722	0	0
2024-10-05 02:40:47			0	37914	0	0	0	21586	20080	162807	27159	1052900	46260	107926	0	0	8203	569001	0	0
2024-10-05 02:41:47			0	37932	0	0	0	21612	20070	162523	27312	1052944	46259	107936	0	0	8203	568309	0	0
2024-10-05 02:42:47			0	37963	0	0	0	21631	20090	162619	27464	1052998	46272	107943	0	0	8205	567001	0	0
2024-10-05 02:43:47			0	37979	0	0	0	21633	20090	162431	26894	1053051	46272	107944	0	0	8206	566360	0	0
2024-10-05 02:44:47			0	37996	0	0	0	21644	20100	162419	27123	1053105	46273	107948	0	0	8207	565648	0	0
2024-10-05 02:45:47			0	37994	0	0	0	21644	20110	162363	27227	1053193	46285	107948	0	0	8207	565696	0	0
2024-10-05 02:46:47			0	38004	0	0	0	21651	20120	162463	27360	1053185	46286	107951	0	0	8207	565265	0	0
2024-10-05 02:47:47			0	37998	0	0	0	21649	20130	162347	27145	1053229	46287	107950	0	0	8207	565474	0	0
2024-10-05 02:48:47			0	38006	0	0	0	21649	20130	162303	27355	1053344	46276	107950	0	0	8207	565154	0	0
2024-10-05 02:49:47			0	38002	0	0	0	21654	20140	162307	26923	1053300	46288	107952	0	0	8207	565283	0	0
2024-10-05 02:50:47			0	37994	0	0	0	21646	20150	162367	27319	1053327	46278	107949	0	0	8207	565572	0	0
2024-10-05 02:51:47			0	38004	0	0	0	21651	20160	162367	27274	1053389	46279	107951	0	0	8207	565140	0	0
2024-10-05 02:52:47			0	37977	0	0	0	21646	20160	162239	27204	1053362	46279	107949	0	0	8206	566221	0	0
2024-10-05 02:53:47			0	38002	0	0	0	21646	20170	162399	27066	1053300	46269	107949	0	0	8207	565189	0	0
2024-10-05 02:54:47			0	37984	0	0	0	21657	20170	162407	27185	1053442	46249	107953	0	0	8206	565910	0	0
2024-10-05 02:55:47			0	37997	0	0	0	21654	20180	162347	27265	1053371	46291	107952	0	0	8207	565358	0	0
2024-10-05 02:56:47			0	38003	0	0	0	21644	20180	162303	27320	1053433	46282	107948	0	0	8207	565118	0	0
2024-10-05 02:57:47			0	38016	0	0	0	21651	20180	162271	27201	1053425	46270	107951	0	0	8208	564598	0	0
2024-10-05 02:58:47			0	38011	0	0	0	21646	20190	162219	26785	1053398	46261	107949	0	0	8208	564766	0	0
2024-10-05 02:59:47			0	38008	0	0	0	21654	20190	162251	27118	1053416	46293	107952	0	0	8208	564886	0	0
2024-10-05 03:00:47			0	38004	0	0	0	21664	20190	162223	26939	1053425	46283	107956	0	0	8207	565046	0	0
2024-10-05 03:01:47			0	38017	0	0	0	21662	20200	162263	26824	1053434	46283	107955	0	0	8208	564495	0	0
2024-10-05 03:02:47			0	38021	0	0	0	21664	20200	162160	27183	1053540	46261	107956	0	0	8208	564335	0	0
2024-10-05 03:03:47			0	38012	0	0	0	21664	20200	162167	26987	1053460	46272	107956	0	0	8208	564695	0	0
2024-10-05 03:04:47			0	38030	0	0	0	21672	20200	162119	26916	1053522	46262	107959	0	0	8209	563975	0	0
2024-10-05 03:05:47			0	38047	0	0	0	21662	20210	162100	26899	1053487	46274	107955	0	0	8210	563265	0	0
2024-10-05 03:06:47			0	38061	0	0	0	21677	20200	162084	26965	1053522	46262	107961	0	0	8210	562737	0	0
2024-10-05 03:07:47			0	38067	0	0	0	21670	20220	161876	27126	1053496	46263	107958	0	0	8211	562436	0	0
2024-10-05 03:08:47			0	38076	0	0	0	21667	20200	161924	27060	1053549	46262	107957	0	0	8211	562139	0	0
2024-10-05 03:09:47			0	38074	0	0	0	21670	20210	161880	26937	1053478	46274	107958	0	0	8211	562187	0	0
2024-10-05 03:10:47			0	38096	0	0	0	21670	20210	161924	26769	1053593	46274	107958	0	0	8213	561310	0	0
2024-10-05 03:11:47			0	38086	0	0	0	21672	20220	161892	26835	1053558	46275	107959	0	0	8212	561678	0	0
2024-10-05 03:12:47			0	38074	0	0	0	21664	20220	162000	26826	1053532	46264	107956	0	0	8211	562156	0	0
2024-10-05 03:13:47			0	38074	0	0	0	21670	20220	161952	27145	1053612	46264	107958	0	0	8211	562156	0	0
2024-10-05 03:14:47			0	38080	0	0	0	21670	20230	162012	27360	1053621	46265	107958	0	0	8212	561886	0	0
2024-10-05 03:15:47			0	38064	0	0	0	21670	20220	161972	27145	1053656	46252	107958	0	0	8211	562555	0	0
2024-10-05 03:16:47			0	38076	0	0	0	21672	20220	161948	27173	1053603	46252	107959	0	0	8211	562077	0	0
2024-10-05 03:17:47			0	38078	0	0	0	21675	20230	161968	27381	1053567	46276	107960	0	0	8211	561966	0	0
2024-10-05 03:18:47			0	38089	0	0	0	21672	20230	161996	27124	1053594	46254	107959	0	0	8212	561527	0	0
2024-10-05 03:19:47			0	38087	0	0	0	21672	20210	161880	27282	1053593	46263	107959	0	0	8212	561669	0	0
2024-10-05 03:20:47			0	38069	0	0	0	21675	20230	162000	27013	1053629	46254	107960	0	0	8211	562325	0	0
2024-10-05 03:21:47			0	38059	0	0	0	21672	20230	161996	26989	1053629	46265	107959	0	0	8210	562724	0	0
2024-10-05 03:22:47			0	38081	0	0	0	21664	20240	162004	27010	1053612	46254	107956	0	0	8212	561815	0	0
2024-10-05 03:23:47			0	38059	0	0	0	21662	20230	161972	27098	1053594	46276	107955	0	0	8211	562724	0	0
2024-10-05 03:24:47			0	38069	0	0	0	21670	20220	162008	27343	1053585	46253	107958	0	0	8211	562356	0	0
2024-10-05 03:25:47			0	38065	0	0	0	21662	20230	162028	26882	1053603	46254	107955	0	0	8211	562484	0	0
2024-10-05 03:26:47			0	38082	0	0	0	21680	20230	161944	27450	1053567	46254	107962	0	0	8212	561806	0	0
2024-10-05 03:27:47			0	38062	0	0	0	21659	20220	162012	27410	1053585	46253	107954	0	0	8211	562635	0	0
2024-10-05 03:28:47			0	38056	0	0	0	21675	20230	162008	27428	1053567	46254	107960	0	0	8210	562844	0	0
2024-10-05 03:29:47			0	38066	0	0	0	21670	20230	161976	27246	1053594	46254	107958	0	0	8211	562444	0	0
2024-10-05 03:30:47			0	38064	0	0	0	21662	20230	161940	27242	1053550	46265	107955	0	0	8211	562524	0	0
2024-10-05 03:31:47			0	38073	0	0	0	21662	20230	161932	27274	1053594	46243	107955	0	0	8211	562165	0	0
2024-10-05 03:32:47			0	38055	0	0	0	21670	20220	161920	27383	1053638	46264	107958	0	0	8210	562915	0	0
2024-10-05 03:33:47			0	38059	0	0	0	21672	20220	161900	27085	1053585	46264	107959	0	0	8210	562755	0	0
2024-10-05 03:34:47			0	38066	0	0	0	21662	20220	161976	27090	1053585	46264	107955	0	0	8211	562475	0	0
2024-10-05 03:35:47			0	38063	0	0	0	21677	20230	161968	27119	1053576	46254	107961	0	0	8211	562564	0	0
2024-10-05 03:36:47			0	38054	0	0	0	21672	20230	161928	26958	1053603	46276	107959	0	0	8210	562923	0	0
2024-10-05 03:37:47			0	38050	0	0	0	21672	20230	162016	26934	1053621	46254	107959	0	0	8210	563083	0	0
2024-10-05 03:38:47			0	38043	0	0	0	21680	20220	161996	27209	1053585	46253	107962	0	0	8209	563394	0	0
2024-10-05 03:39:47			0	38036	0	0	0	21672	20230	161864	26831	1053621	46254	107959	0	0	8209	563642	0	0
2024-10-05 03:40:47			0	38052	0	0	0	21667	20230	161904	27173	1053621	46276	107957	0	0	8210	563003	0	0
2024-10-05 03:41:47			0	38052	0	0	0	21680	20220	161992	27123	1053585	46264	107962	0	0	8210	563034	0	0
2024-10-05 03:42:47			0	38050	0	0	0	21670	20230	161944	27346	1053603	46254	107958	0	0	8210	563083	0	0
2024-10-05 03:43:47			0	38033	0	0	0	21672	20230	161988	27168	1053629	46254	107959	0	0	8209	563762	0	0
2024-10-05 03:44:47			0	38037	0	0	0	21667	20230	161976	27178	1053576	46254	107957	0	0	8209	563602	0	0
2024-10-05 03:45:47			0	38049	0	0	0	21664	20220	162048	26896	1053612	46253	107956	0	0	8210	563154	0	0
2024-10-05 03:46:47			0	38047	0	0	0	21672	20230	161992	26864	1053603	46276	107959	0	0	8210	563203	0	0
2024-10-05 03:47:47			0	38066	0	0	0	21677	20230	161884	27171	1053621	46265	107961	0	0	8211	562444	0	0
2024-10-05 03:48:47			0	38083	0	0	0	21664	20230	161948	27415	1053541	46254	107956	0	0	8212	561766	0	0
2024-10-05 03:49:47			0	38062	0	0	0	21662	20230	161912	27402	1053603	46254	107955	0	0	8211	562604	0	0
2024-10-05 03:50:47			0	38073	0	0	0	21664	20230	161936	27209	1053576	46254	107956	0	0	8211	562165	0	0
2024-10-05 03:51:47			0	38070	0	0	0	21672	20230	161896	27261	1053541	46265	107959	0	0	8211	562285	0	0
2024-10-05 03:52:47			0	38057	0	0	0	21670	20210	161924	27156	1053593	46263	107958	0	0	8210	562866	0	0
2024-10-05 03:53:47			0	38061	0	0	0	21670	20230	161860	27244	1053594	46254	107958	0	0	8211	562644	0	0
2024-10-05 03:54:47			0	38060	0	0	0	21675	20230	161916	27306	1053594	46276	107960	0	0	8210	562684	0	0
2024-10-05 03:55:47			0	38055	0	0	0	21672	20230	161920	27526	1053621	46276	107959	0	0	8210	562883	0	0
2024-10-05 03:56:47			0	38031	0	0	0	21675	20220	161916	27303	1053718	46264	107960	0	0	8209	563873	0	0
2024-10-05 03:57:47			0	38046	0	0	0	21667	20210	161940	27131	1053567	46252	107957	0	0	8210	563305	0	0
2024-10-05 03:58:47			0	38030	0	0	0	21675	20230	162060	27076	1053567	46265	107960	0	0	8209	563882	0	0
2024-10-05 03:59:47			0	38044	0	0	0	21672	20230	162112	27357	1053603	46287	107959	0	0	8210	563323	0	0
2024-10-05 04:00:47			0	38034	0	0	0	21672	20230	162052	27154	1053621	46276	107959	0	0	8209	563722	0	0
2024-10-05 04:01:47			0	38027	0	0	0	21670	20230	162139	27230	1053594	46265	107958	0	0	8209	564002	0	0
2024-10-05 04:02:47			0	38014	0	0	0	21659	20230	162023	27306	1053621	46276	107954	0	0	8208	564522	0	0
2024-10-05 04:03:47			0	38031	0	0	0	21667	20230	162108	27364	1053594	46254	107957	0	0	8209	563842	0	0
2024-10-05 04:04:47			0	38036	0	0	0	21657	20220	162136	27343	1053612	46264	107953	0	0	8209	563673	0	0
2024-10-05 04:05:47			0	38024	0	0	0	21662	20220	162155	27097	1053549	46263	107955	0	0	8208	564153	0	0
2024-10-05 04:06:47			0	38016	0	0	0	21672	20230	162043	27036	1053567	46265	107959	0	0	8208	564442	0	0
2024-10-05 04:07:47			0	38035	0	0	0	21646	20210	162076	26955	1053460	46274	107949	0	0	8209	563745	0	0
2024-10-05 04:08:47			0	38038	0	0	0	21662	20210	162092	27279	1053593	46252	107955	0	0	8209	563625	0	0
2024-10-05 04:09:47			0	38028	0	0	0	21670	20220	162088	27658	1053549	46252	107958	0	0	8209	563993	0	0
2024-10-05 04:10:47			0	38019	0	0	0	21670	20220	162047	27057	1053549	46263	107958	0	0	8208	564353	0	0
2024-10-05 04:11:47			0	38022	0	0	0	21664	20210	162047	27445	1053593	46241	107956	0	0	8208	564264	0	0
2024-10-05 04:12:47			0	38022	0	0	0	21659	20210	162235	27239	1053505	46252	107954	0	0	8208	564264	0	0
2024-10-05 04:13:47			0	38005	0	0	0	21646	20220	162039	26967	1053496	46263	107949	0	0	8208	564913	0	0
2024-10-05 04:14:47			0	38001	0	0	0	21657	20210	162099	27038	1053514	46274	107953	0	0	8207	565104	0	0
2024-10-05 04:15:47			0	38007	0	0	0	21659	20210	162211	26883	1053505	46274	107954	0	0	8207	564864	0	0
2024-10-05 04:16:47			0	38013	0	0	0	21644	20220	162139	27367	1053558	46275	107948	0	0	8208	564593	0	0
2024-10-05 04:17:47			0	38008	0	0	0	21649	20210	162179	27081	1053540	46252	107950	0	0	8208	564824	0	0
2024-10-05 04:18:47			0	37992	0	0	0	21631	20200	162247	27069	1053443	46294	107943	0	0	8207	565496	0	0
2024-10-05 04:19:47			0	37987	0	0	0	21631	20200	162171	27081	1053469	46240	107943	0	0	8207	565696	0	0
2024-10-05 04:20:47			0	37988	0	0	0	21615	20200	162107	27364	1053443	46251	107937	0	0	8207	565656	0	0
2024-10-05 04:21:47			0	37981	0	0	0	21628	20200	162291	27043	1053380	46250	107942	0	0	8206	565936	0	0
2024-10-05 04:22:47			0	37976	0	0	0	21631	20200	162379	27211	1053460	46272	107943	0	0	8206	566136	0	0
2024-10-05 04:23:47			0	37982	0	0	0	21625	20200	162379	27279	1053434	46250	107941	0	0	8207	565896	0	0
2024-10-05 04:24:47			0	37955	0	0	0	21633	20190	162359	27282	1053372	46261	107944	0	0	8205	567009	0	0
2024-10-05 04:25:47			0	37975	0	0	0	21631	20180	162459	27175	1053407	46238	107943	0	0	8206	566239	0	0
2024-10-05 04:26:47			0	37973	0	0	0	21651	20180	162323	26963	1053433	46260	107951	0	0	8205	566319	0	0
2024-10-05 04:27:47			0	37972	0	0	0	21644	20180	162383	27211	1053433	46250	107948	0	0	8206	566359	0	0
2024-10-05 04:28:47			0	37972	0	0	0	21641	20190	162283	26916	1053451	46261	107947	0	0	8206	566328	0	0
2024-10-05 04:29:47			0	37946	0	0	0	21612	20190	162427	26927	1053389	46250	107936	0	0	8205	567371	0	0
2024-10-05 04:30:47			0	37945	0	0	0	21654	20190	162443	27154	1053398	46250	107952	0	0	8204	567411	0	0
2024-10-05 04:31:47			0	37978	0	0	0	21641	20180	162387	27268	1053380	46260	107947	0	0	8206	566119	0	0
2024-10-05 04:32:47			0	37954	0	0	0	21615	20190	162371	27090	1053451	46272	107937	0	0	8205	567050	0	0
2024-10-05 04:33:47			0	37957	0	0	0	21638	20190	162275	27242	1053469	46261	107946	0	0	8205	566929	0	0
2024-10-05 04:34:47			0	37967	0	0	0	21586	20190	162355	27064	1053389	46250	107926	0	0	8206	566528	0	0
2024-10-05 04:35:47			0	37951	0	0	0	21594	20180	162359	27131	1053371	46249	107929	0	0	8205	567201	0	0
2024-10-05 04:36:47			0	37942	0	0	0	21623	20170	162343	27293	1053336	46226	107940	0	0	8204	567594	0	0
2024-10-05 04:37:47			0	37960	0	0	0	21612	20160	162431	27213	1053345	46248	107936	0	0	8205	566903	0	0
2024-10-05 04:38:47			0	37949	0	0	0	21636	20170	162435	27234	1053300	46248	107945	0	0	8204	567313	0	0
2024-10-05 04:39:47			0	37939	0	0	0	21646	20170	162343	27293	1053354	46258	107949	0	0	8204	567714	0	0
2024-10-05 04:40:47			0	37960	0	0	0	21612	20170	162347	27038	1053354	46269	107936	0	0	8205	566872	0	0
2024-10-05 04:41:47			0	37965	0	0	0	21586	20170	162443	27272	1053336	46249	107926	0	0	8206	566671	0	0
2024-10-05 04:42:47			0	37928	0	0	0	21618	20170	162427	27414	1053274	46258	107938	0	0	8203	568156	0	0
2024-10-05 04:43:47			0	37934	0	0	0	21599	20160	162511	26630	1053309	46247	107931	0	0	8204	567946	0	0
2024-10-05 04:44:47			0	37933	0	0	0	21571	20160	162543	27192	1053265	46258	107920	0	0	8204	567986	0	0
2024-10-05 04:45:47			0	37904	0	0	0	21555	20160	162499	27291	1053229	46247	107914	0	0	8203	569152	0	0
2024-10-05 04:46:47			0	37890	0	0	0	21529	20150	162611	27007	1053167	46256	107904	0	0	8203	569746	0	0
2024-10-05 04:47:47			0	37893	0	0	0	21579	20130	162639	26904	1053105	46244	107923	0	0	8202	569688	0	0
2024-10-05 04:48:47			0	37880	0	0	0	21612	20130	162691	27291	1053185	46244	107936	0	0	8200	570211	0	0
2024-10-05 04:49:47			0	37902	0	0	0	21631	20130	162751	27078	1053185	46265	107943	0	0	8201	569326	0	0
2024-10-05 04:50:47			0	37895	0	0	0	21636	20130	162791	27258	1053202	46254	107945	0	0	8201	569608	0	0
2024-10-05 04:51:47			0	37913	0	0	0	21646	20150	162627	27341	1053274	46256	107949	0	0	8202	568821	0	0
2024-10-05 04:52:47			0	37919	0	0	0	21667	20150	162495	27114	1053344	46289	107957	0	0	8202	568580	0	0
2024-10-05 04:53:47			0	37899	0	0	0	21657	20160	162447	27102	1053362	46279	107953	0	0	8201	569353	0	0
2024-10-05 04:54:47			0	37924	0	0	0	21667	20170	162511	27140	1053389	46270	107957	0	0	8202	568316	0	0
2024-10-05 04:55:47			0	37919	0	0	0	21675	20170	162539	27367	1053416	46259	107960	0	0	8202	568517	0	0
2024-10-05 04:56:47			0	37925	0	0	0	21670	20180	162631	27355	1053460	46282	107958	0	0	8202	568245	0	0
2024-10-05 04:57:47			0	37923	0	0	0	21675	20170	162563	27189	1053442	46291	107960	0	0	8202	568357	0	0
2024-10-05 04:58:47			0	37912	0	0	0	21683	20190	162475	27206	1053478	46283	107963	0	0	8201	568736	0	0
2024-10-05 04:59:47			0	37911	0	0	0	21664	20190	162527	27296	1053416	46272	107956	0	0	8202	568776	0	0
2024-10-05 05:00:47			0	37904	0	0	0	21675	20200	162623	27142	1053513	46272	107960	0	0	8201	569026	0	0
2024-10-05 05:01:47			0	37898	0	0	0	21644	20190	162607	27395	1053496	46283	107948	0	0	8201	569299	0	0
2024-10-05 05:02:47			0	37886	0	0	0	21623	20190	162655	27419	1053451	46250	107940	0	0	8201	569781	0	0
2024-10-05 05:03:47			0	37878	0	0	0	21620	20190	162675	27118	1053416	46250	107939	0	0	8200	570103	0	0
2024-10-05 05:04:47			0	37873	0	0	0	21573	20190	162783	27265	1053363	46239	107921	0	0	8201	570304	0	0
2024-10-05 05:05:47			0	37838	0	0	0	21535	20180	162703	27209	1053265	46237	107906	0	0	8199	571746	0	0
2024-10-05 05:06:47			0	37841	0	0	0	21527	20170	162791	27131	1053256	46237	107903	0	0	8200	571657	0	0
2024-10-05 05:07:47			0	37806	0	0	0	21535	20160	162851	27360	1053185	46236	107906	0	0	8198	573100	0	0
2024-10-05 05:08:47			0	37803	0	0	0	21555	20140	162991	27157	1053087	46222	107914	0	0	8197	573285	0	0
2024-10-05 05:09:47			0	37782	0	0	0	21563	20150	163095	27253	1053194	46223	107917	0	0	8196	574102	0	0
2024-10-05 05:10:47			0	37783	0	0	0	21586	20130	163147	27107	1053105	46244	107926	0	0	8195	574125	0	0
2024-10-05 05:11:47			0	37794	0	0	0	21573	20130	162911	26892	1053158	46244	107921	0	0	8196	573680	0	0
2024-10-05 05:12:47			0	37801	0	0	0	21586	20130	163147	27443	1053158	46254	107926	0	0	8196	573397	0	0
2024-10-05 05:13:47			0	37773	0	0	0	21594	20140	163075	27268	1053194	46244	107929	0	0	8194	574497	0	0
2024-10-05 05:14:47			0	37777	0	0	0	21584	20140	163091	27306	1053247	46255	107925	0	0	8195	574336	0	0
2024-10-05 05:15:47			0	37784	0	0	0	21584	20140	163159	26870	1053194	46244	107925	0	0	8195	574053	0	0
2024-10-05 05:16:47			0	37767	0	0	0	21581	20140	163135	27135	1053256	46246	107924	0	0	8194	574740	0	0
2024-10-05 05:17:47			0	37782	0	0	0	21581	20150	163155	26974	1053212	46267	107924	0	0	8195	574102	0	0
2024-10-05 05:18:47			0	37778	0	0	0	21607	20140	163183	27234	1053194	46255	107934	0	0	8195	574295	0	0
2024-10-05 05:19:47			0	37777	0	0	0	21605	20150	163107	27211	1053238	46267	107933	0	0	8195	574304	0	0
2024-10-05 05:20:47			0	37774	0	0	0	21612	20160	163119	27488	1053309	46268	107936	0	0	8194	574394	0	0
2024-10-05 05:21:47			0	37790	0	0	0	21602	20160	163151	27142	1053389	46268	107932	0	0	8195	573747	0	0
2024-10-05 05:22:47			0	37769	0	0	0	21594	20150	163111	27476	1053300	46267	107929	0	0	8194	574628	0	0
2024-10-05 05:23:47			0	37790	0	0	0	21592	20160	163235	27154	1053283	46268	107928	0	0	8196	573747	0	0
2024-10-05 05:24:47			0	37756	0	0	0	21594	20140	163051	27128	1053247	46244	107929	0	0	8193	575185	0	0
2024-10-05 05:25:47			0	37771	0	0	0	21597	20170	163051	27346	1053354	46248	107930	0	0	8194	574483	0	0
2024-10-05 05:26:47			0	37766	0	0	0	21602	20160	163027	27308	1053336	46247	107932	0	0	8194	574717	0	0
2024-10-05 05:27:47			0	37777	0	0	0	21615	20160	163083	27298	1053336	46247	107937	0	0	8194	574272	0	0
2024-10-05 05:28:47			0	37780	0	0	0	21615	20160	163135	27208	1053362	46268	107937	0	0	8195	574151	0	0
2024-10-05 05:29:47			0	37760	0	0	0	21612	20170	163147	27230	1053362	46281	107936	0	0	8194	574928	0	0
2024-10-05 05:30:47			0	37759	0	0	0	21618	20160	163079	26946	1053345	46258	107938	0	0	8193	575001	0	0
2024-10-05 05:31:47			0	37756	0	0	0	21615	20170	163143	27159	1053433	46258	107937	0	0	8193	575090	0	0
2024-10-05 05:32:47			0	37766	0	0	0	21628	20170	163131	27272	1053380	46258	107942	0	0	8194	574686	0	0
2024-10-05 05:33:47			0	37747	0	0	0	21615	20170	163187	26989	1053407	46248	107937	0	0	8193	575454	0	0
2024-10-05 05:34:47			0	37757	0	0	0	21618	20170	163135	27176	1053416	46249	107938	0	0	8193	575050	0	0
2024-10-05 05:35:47			0	37743	0	0	0	21610	20170	163163	27274	1053389	46259	107935	0	0	8193	575616	0	0
2024-10-05 05:36:47			0	37758	0	0	0	21605	20180	163227	27289	1053425	46259	107933	0	0	8194	574977	0	0
2024-10-05 05:37:47			0	37734	0	0	0	21602	20170	163131	27331	1053336	46259	107932	0	0	8192	575981	0	0
2024-10-05 05:38:47			0	37729	0	0	0	21586	20170	163183	27280	1053336	46270	107926	0	0	8192	576184	0	0
2024-10-05 05:39:47			0	37722	0	0	0	21586	20180	163315	27400	1053327	46238	107926	0	0	8192	576435	0	0
2024-10-05 05:40:47			0	37714	0	0	0	21573	20180	163303	27421	1053318	46237	107921	0	0	8192	576760	0	0
2024-10-05 05:41:47			0	37718	0	0	0	21576	20170	163339	27145	1053274	46248	107922	0	0	8192	576629	0	0
2024-10-05 05:42:47			0	37708	0	0	0	21576	20170	163455	27052	1053309	46237	107922	0	0	8191	577035	0	0
2024-10-05 05:43:47			0	37686	0	0	0	21566	20180	163455	27137	1053292	46249	107918	0	0	8190	577896	0	0
2024-10-05 05:44:47			0	37714	0	0	0	21553	20160	163455	27180	1053238	46248	107913	0	0	8192	576823	0	0
2024-10-05 05:45:47			0	37688	0	0	0	21545	20160	163543	27374	1053256	46235	107910	0	0	8190	577878	0	0
2024-10-05 05:46:47			0	37688	0	0	0	21542	20150	163539	27391	1053220	46246	107909	0	0	8190	577910	0	0
2024-10-05 05:47:47			0	37672	0	0	0	21545	20150	163567	26745	1053158	46234	107910	0	0	8189	578560	0	0
2024-10-05 05:48:47			0	37659	0	0	0	21555	20130	163555	27090	1053132	46276	107914	0	0	8188	579152	0	0
2024-10-05 05:49:47			0	37682	0	0	0	21563	20140	163519	27111	1053203	46234	107917	0	0	8190	578186	0	0
2024-10-05 05:50:47			0	37691	0	0	0	21558	20130	163623	27043	1053185	46244	107915	0	0	8190	577852	0	0
2024-10-05 05:51:47			0	37661	0	0	0	21555	20140	163595	26934	1053194	46244	107914	0	0	8188	579039	0	0
2024-10-05 05:52:47			0	37688	0	0	0	21558	20140	163383	26998	1053220	46255	107915	0	0	8190	577942	0	0
2024-10-05 05:53:47			0	37657	0	0	0	21558	20130	163551	26974	1053132	46232	107915	0	0	8188	579234	0	0
2024-10-05 05:54:47			0	37668	0	0	0	21568	20140	163699	27277	1053194	46255	107919	0	0	8189	578755	0	0
2024-10-05 05:55:47			0	37660	0	0	0	21566	20140	163603	26856	1053167	46255	107918	0	0	8188	579080	0	0
2024-10-05 05:56:47			0	37667	0	0	0	21566	20150	163655	27509	1053212	46256	107918	0	0	8189	578763	0	0
2024-10-05 05:57:47			0	37653	0	0	0	21566	20150	163707	27190	1053212	46256	107918	0	0	8188	579332	0	0
2024-10-05 05:58:47			0	37666	0	0	0	21571	20130	163587	27159	1053158	46254	107920	0	0	8188	578868	0	0
2024-10-05 05:59:47			0	37674	0	0	0	21579	20130	163571	27588	1053185	46244	107923	0	0	8189	578543	0	0
2024-10-05 06:00:47			0	37663	0	0	0	21571	20130	163703	27109	1053176	46232	107920	0	0	8188	578990	0	0
2024-10-05 06:01:47			0	37659	0	0	0	21568	20140	163667	27374	1053203	46256	107919	0	0	8188	579120	0	0
2024-10-05 06:02:47			0	37673	0	0	0	21573	20140	163619	27668	1053220	46266	107921	0	0	8189	578551	0	0
2024-10-05 06:03:47			0	37684	0	0	0	21576	20130	163527	27405	1053158	46244	107922	0	0	8189	578137	0	0
2024-10-05 06:04:47			0	37663	0	0	0	21571	20150	163627	27400	1053212	46246	107920	0	0	8188	578926	0	0
2024-10-05 06:05:47			0	37660	0	0	0	21573	20140	163531	27015	1053220	46244	107921	0	0	8188	579080	0	0
2024-10-05 06:06:47			0	37680	0	0	0	21579	20130	163583	27220	1053176	46254	107923	0	0	8189	578299	0	0
2024-10-05 06:07:47			0	37674	0	0	0	21581	20140	163643	27343	1053194	46255	107924	0	0	8189	578511	0	0
2024-10-05 06:08:47			0	37677	0	0	0	21584	20130	163531	27121	1053238	46244	107925	0	0	8189	578421	0	0
2024-10-05 06:09:47			0	37685	0	0	0	21584	20150	163567	26972	1053212	46256	107925	0	0	8189	578032	0	0
2024-10-05 06:10:47			0	37680	0	0	0	21586	20140	163535	27412	1053273	46255	107926	0	0	8189	578267	0	0
2024-10-05 06:11:47			0	37672	0	0	0	21597	20130	163507	27048	1053265	46221	107930	0	0	8188	578624	0	0
2024-10-05 06:12:47			0	37680	0	0	0	21602	20150	163483	27270	1053291	46246	107932	0	0	8189	578235	0	0
2024-10-05 06:13:47			0	37709	0	0	0	21599	20160	163343	27324	1053229	46247	107931	0	0	8191	577026	0	0
2024-10-05 06:14:47			0	37713	0	0	0	21599	20150	163343	27033	1053274	46278	107931	0	0	8191	576896	0	0
2024-10-05 06:15:47			0	37716	0	0	0	21602	20150	163395	27005	1053300	46246	107932	0	0	8191	576774	0	0
2024-10-05 06:16:47			0	37721	0	0	0	21607	20150	163391	27355	1053274	46256	107934	0	0	8191	576571	0	0
2024-10-05 06:17:47			0	37727	0	0	0	21610	20150	163355	27341	1053274	46278	107935	0	0	8192	576328	0	0
2024-10-05 06:18:47			0	37713	0	0	0	21599	20150	163347	27235	1053353	46246	107931	0	0	8191	576896	0	0
2024-10-05 06:19:47			0	37734	0	0	0	21599	20160	163267	27327	1053283	46279	107931	0	0	8192	576013	0	0
2024-10-05 06:20:47			0	37721	0	0	0	21605	20150	163379	26816	1053327	46256	107933	0	0	8191	576571	0	0
2024-10-05 06:21:47			0	37728	0	0	0	21571	20160	163427	27190	1053309	46257	107920	0	0	8192	576256	0	0
2024-10-05 06:22:47			0	37694	0	0	0	21563	20160	163579	27312	1053256	46247	107917	0	0	8190	577635	0	0
2024-10-05 06:23:47			0	37671	0	0	0	21550	20160	163643	26974	1053283	46257	107912	0	0	8189	578569	0	0
2024-10-05 06:24:47			0	37643	0	0	0	21558	20140	163643	27367	1053247	46266	107915	0	0	8187	579771	0	0
2024-10-05 06:25:47			0	37629	0	0	0	21563	20160	163691	27237	1053256	46235	107917	0	0	8187	580277	0	0
2024-10-05 06:26:47			0	37621	0	0	0	21576	20150	163743	27350	1053212	46246	107922	0	0	8186	580635	0	0
2024-10-05 06:27:47			0	37634	0	0	0	21594	20160	163783	27008	1053256	46257	107929	0	0	8186	580073	0	0
2024-10-05 06:28:47			0	37646	0	0	0	21584	20150	163779	27281	1053327	46246	107925	0	0	8187	579617	0	0
2024-10-05 06:29:47			0	37670	0	0	0	21599	20160	163691	27064	1053256	46247	107931	0	0	8188	578609	0	0
2024-10-05 06:30:47			0	37670	0	0	0	21597	20150	163747	27251	1053274	46234	107930	0	0	8188	578641	0	0
2024-10-05 06:31:47			0	37668	0	0	0	21592	20150	163667	27294	1053265	46246	107928	0	0	8188	578723	0	0
2024-10-05 06:32:47			0	37661	0	0	0	21579	20160	163567	27268	1053309	46257	107923	0	0	8188	578975	0	0
2024-10-05 06:33:47			0	37652	0	0	0	21581	20160	163651	27118	1053309	46235	107924	0	0	8188	579341	0	0
2024-10-05 06:34:47			0	37649	0	0	0	21581	20160	163803	27364	1053309	46257	107924	0	0	8187	579463	0	0
2024-10-05 06:35:47			0	37646	0	0	0	21586	20160	163715	27043	1053318	46258	107926	0	0	8187	579585	0	0
2024-10-05 06:36:47			0	37643	0	0	0	21579	20170	163831	27154	1053327	46258	107923	0	0	8187	579675	0	0
2024-10-05 06:37:47			0	37628	0	0	0	21579	20150	163779	27320	1053353	46234	107923	0	0	8186	580350	0	0
2024-10-05 06:38:47			0	37625	0	0	0	21563	20160	163843	27093	1053336	46247	107917	0	0	8186	580440	0	0
2024-10-05 06:39:47			0	37620	0	0	0	21555	20160	163903	26894	1053309	46235	107914	0	0	8186	580643	0	0
2024-10-05 06:40:47			0	37603	0	0	0	21555	20130	164027	26809	1053211	46244	107914	0	0	8185	581432	0	0
2024-10-05 06:41:47			0	37587	0	0	0	21550	20150	163967	27095	1053212	46234	107912	0	0	8184	582020	0	0
2024-10-05 06:42:47			0	37565	0	0	0	21542	20150	164059	26835	1053212	46246	107909	0	0	8183	582918	0	0
2024-10-05 06:43:47			0	37558	0	0	0	21545	20140	164135	26840	1053194	46233	107910	0	0	8183	583236	0	0
2024-10-05 06:44:47			0	37543	0	0	0	21558	20140	164139	26776	1053167	46244	107915	0	0	8181	583849	0	0
2024-10-05 06:45:47			0	37549	0	0	0	21555	20130	164223	26844	1053229	46244	107914	0	0	8182	583636	0	0
2024-10-05 06:46:47			0	37511	0	0	0	21555	20130	164327	27315	1053211	46232	107914	0	0	8180	585190	0	0
2024-10-05 06:47:47			0	37526	0	0	0	21542	20130	164307	27282	1053185	46244	107909	0	0	8181	584576	0	0
2024-10-05 06:48:47			0	37524	0	0	0	21542	20130	164275	27248	1053185	46221	107909	0	0	8181	584658	0	0
2024-10-05 06:49:47			0	37511	0	0	0	21548	20130	164307	26948	1053211	46254	107911	0	0	8180	585190	0	0
2024-10-05 06:50:47			0	37486	0	0	0	21529	20150	164347	27083	1053212	46234	107904	0	0	8179	586149	0	0
2024-10-05 06:51:47			0	37483	0	0	0	21522	20130	164431	27164	1053149	46244	107901	0	0	8178	586337	0	0
2024-10-05 06:52:47			0	37477	0	0	0	21506	20120	164431	26928	1053105	46231	107895	0	0	8178	586615	0	0
2024-10-05 06:53:47			0	37443	0	0	0	21501	20120	164591	27046	1053078	46243	107893	0	0	8176	588010	0	0
2024-10-05 06:54:47			0	37419	0	0	0	21506	20120	164703	27218	1053061	46232	107895	0	0	8175	588996	0	0
2024-10-05 06:55:47			0	37409	0	0	0	21516	20110	164823	26972	1053149	46219	107899	0	0	8174	589440	0	0
2024-10-05 06:56:47			0	37420	0	0	0	21527	20110	164791	27142	1053043	46242	107903	0	0	8174	588988	0	0
2024-10-05 06:57:47			0	37409	0	0	0	21540	20110	164699	27334	1053096	46242	107908	0	0	8174	589440	0	0
2024-10-05 06:58:47			0	37432	0	0	0	21540	20110	164659	27268	1053114	46242	107908	0	0	8175	588494	0	0
2024-10-05 06:59:47			0	37445	0	0	0	21537	20110	164771	27294	1053140	46252	107907	0	0	8176	587960	0	0
2024-10-05 07:00:47			0	37429	0	0	0	21540	20110	164687	27124	1053087	46242	107908	0	0	8175	588618	0	0
2024-10-05 07:01:47			0	37415	0	0	0	21522	20110	164691	27260	1053122	46242	107901	0	0	8174	589193	0	0
2024-10-05 07:02:47			0	37422	0	0	0	21535	20110	164655	27320	1053140	46252	107906	0	0	8174	588905	0	0
2024-10-05 07:03:47			0	37426	0	0	0	21527	20110	164819	27331	1053096	46230	107903	0	0	8175	588741	0	0
2024-10-05 07:04:47			0	37407	0	0	0	21535	20110	164783	26968	1053176	46242	107906	0	0	8174	589522	0	0
2024-10-05 07:05:47			0	37407	0	0	0	21548	20100	164771	27190	1053158	46240	107911	0	0	8173	589555	0	0
2024-10-05 07:06:47			0	37425	0	0	0	21553	20110	164771	26981	1053122	46242	107913	0	0	8174	588782	0	0
2024-10-05 07:07:47			0	37419	0	0	0	21542	20100	164695	27175	1053158	46251	107909	0	0	8174	589061	0	0
2024-10-05 07:08:47			0	37434	0	0	0	21535	20110	164775	27222	1053114	46252	107906	0	0	8175	588412	0	0
2024-10-05 07:09:47			0	37412	0	0	0	21529	20110	164655	27116	1053122	46252	107904	0	0	8174	589316	0	0
2024-10-05 07:10:47			0	37416	0	0	0	21532	20110	164699	27279	1053149	46242	107905	0	0	8174	589152	0	0
2024-10-05 07:11:47			0	37437	0	0	0	21545	20110	164751	26948	1053087	46230	107910	0	0	8175	588289	0	0
2024-10-05 07:12:47			0	37436	0	0	0	21571	20110	164739	27048	1053122	46219	107920	0	0	8175	588330	0	0
2024-10-05 07:13:47			0	37444	0	0	0	21573	20120	164619	27137	1053158	46275	107921	0	0	8175	587969	0	0
2024-10-05 07:14:47			0	37420	0	0	0	21579	20110	164651	27192	1053122	46263	107923	0	0	8174	588988	0	0
2024-10-05 07:15:47			0	37443	0	0	0	21573	20130	164719	27563	1053229	46254	107921	0	0	8175	587978	0	0
2024-10-05 07:16:47			0	37430	0	0	0	21579	20120	164671	27178	1053211	46264	107923	0	0	8174	588544	0	0
2024-10-05 07:17:47			0	37418	0	0	0	21566	20120	164739	27256	1053185	46253	107918	0	0	8174	589037	0	0
2024-10-05 07:18:47			0	37422	0	0	0	21571	20130	164619	27395	1053229	46244	107920	0	0	8174	588840	0	0
2024-10-05 07:19:47			0	37437	0	0	0	21576	20130	164647	27192	1053238	46244	107922	0	0	8175	588224	0	0
2024-10-05 07:20:47			0	37432	0	0	0	21573	20120	164711	27443	1053220	46244	107921	0	0	8174	588462	0	0
2024-10-05 07:21:47			0	37416	0	0	0	21568	20130	164623	27336	1053185	46244	107919	0	0	8174	589087	0	0
2024-10-05 07:22:47			0	37428	0	0	0	21581	20130	164667	27267	1053202	46254	107924	0	0	8174	588594	0	0
2024-10-05 07:23:47			0	37437	0	0	0	21573	20140	164655	26925	1053247	46244	107921	0	0	8175	588192	0	0
2024-10-05 07:24:47			0	37448	0	0	0	21576	20150	164579	27291	1053265	46267	107922	0	0	8176	587707	0	0
2024-10-05 07:25:47			0	37465	0	0	0	21581	20140	164583	27090	1053247	46244	107924	0	0	8176	587042	0	0
2024-10-05 07:26:47			0	37467	0	0	0	21592	20130	164335	27182	1053211	46244	107928	0	0	8176	586993	0	0
2024-10-05 07:27:47			0	37475	0	0	0	21584	20130	164363	27364	1053265	46254	107925	0	0	8177	586665	0	0
2024-10-05 07:28:47			0	37501	0	0	0	21597	20140	164287	27571	1053273	46244	107930	0	0	8178	585567	0	0
2024-10-05 07:29:47			0	37503	0	0	0	21589	20150	164351	27130	1053291	46267	107927	0	0	8179	585453	0	0
2024-10-05 07:30:47			0	37537	0	0	0	21589	20150	164231	27215	1053265	46256	107927	0	0	8181	584062	0	0
2024-10-05 07:31:47			0	37541	0	0	0	21586	20130	164195	27161	1053238	46254	107926	0	0	8181	583963	0	0
2024-10-05 07:32:47			0	37538	0	0	0	21584	20150	164271	27277	1053291	46267	107925	0	0	8181	584021	0	0
2024-10-05 07:33:47			0	37547	0	0	0	21576	20150	164139	27272	1053300	46256	107922	0	0	8181	583653	0	0
2024-10-05 07:34:47			0	37548	0	0	0	21586	20150	164107	27265	1053318	46256	107926	0	0	8181	583612	0	0
2024-10-05 07:35:47			0	37561	0	0	0	21592	20150	164075	26844	1053238	46246	107928	0	0	8182	583081	0	0
2024-10-05 07:36:47			0	37559	0	0	0	21584	20150	164079	26942	1053265	46256	107925	0	0	8182	583163	0	0
2024-10-05 07:37:47			0	37577	0	0	0	21576	20150	163991	27372	1053353	46246	107922	0	0	8183	582428	0	0
2024-10-05 07:38:47			0	37581	0	0	0	21584	20150	164011	27246	1053327	46256	107925	0	0	8183	582265	0	0
2024-10-05 07:39:47			0	37581	0	0	0	21584	20150	164007	27150	1053353	46246	107925	0	0	8183	582265	0	0
2024-10-05 07:40:47			0	37587	0	0	0	21586	20150	164063	27111	1053274	46246	107926	0	0	8184	582020	0	0
2024-10-05 07:41:47			0	37586	0	0	0	21592	20150	163855	27050	1053318	46246	107928	0	0	8183	582061	0	0
2024-10-05 07:42:47			0	37602	0	0	0	21592	20160	163947	27307	1053309	46247	107928	0	0	8184	581377	0	0
2024-10-05 07:43:47			0	37601	0	0	0	21581	20150	163971	27331	1053238	46256	107924	0	0	8185	581449	0	0
2024-10-05 07:44:47			0	37595	0	0	0	21584	20150	163855	27092	1053327	46267	107925	0	0	8184	581694	0	0
2024-10-05 07:45:47			0	37605	0	0	0	21586	20150	163939	27164	1053212	46234	107926	0	0	8185	581286	0	0
2024-10-05 07:46:47			0	37601	0	0	0	21597	20150	163867	27254	1053274	46246	107930	0	0	8184	581449	0	0
2024-10-05 07:47:47			0	37622	0	0	0	21594	20150	163831	27317	1053327	46234	107929	0	0	8186	580594	0	0
2024-10-05 07:48:47			0	37635	0	0	0	21592	20160	163835	27222	1053309	46247	107928	0	0	8186	580033	0	0
2024-10-05 07:49:47			0	37620	0	0	0	21597	20150	163779	27074	1053371	46246	107930	0	0	8185	580675	0	0
2024-10-05 07:50:47			0	37623	0	0	0	21594	20160	163723	26937	1053309	46247	107929	0	0	8186	580521	0	0
2024-10-05 07:51:47			0	37624	0	0	0	21602	20150	163767	26835	1053318	46246	107932	0	0	8186	580512	0	0
2024-10-05 07:52:47			0	37630	0	0	0	21592	20160	163823	27182	1053336	46257	107928	0	0	8186	580236	0	0
2024-10-05 07:53:47			0	37614	0	0	0	21597	20160	163883	27338	1053362	46257	107930	0	0	8185	580888	0	0
2024-10-05 07:54:47			0	37605	0	0	0	21592	20160	163827	27530	1053362	46235	107928	0	0	8185	581254	0	0
2024-10-05 07:55:47			0	37603	0	0	0	21589	20160	163903	27322	1053345	46258	107927	0	0	8185	581336	0	0
2024-10-05 07:56:47			0	37602	0	0	0	21594	20170	163783	26941	1053354	46248	107929	0	0	8184	581344	0	0
2024-10-05 07:57:47			0	37595	0	0	0	21597	20160	163835	27324	1053336	46268	107930	0	0	8184	581662	0	0
2024-10-05 07:58:47			0	37614	0	0	0	21592	20160	163823	27229	1053362	46257	107928	0	0	8185	580888	0	0
2024-10-05 07:59:47			0	37609	0	0	0	21594	20170	163739	27275	1053407	46248	107929	0	0	8185	581059	0	0
2024-10-05 08:00:47			0	37608	0	0	0	21584	20160	163811	27412	1053309	46247	107925	0	0	8185	581132	0	0
2024-10-05 08:01:47			0	37611	0	0	0	21589	20170	163759	27123	1053274	46236	107927	0	0	8185	580978	0	0
2024-10-05 08:02:47			0	37618	0	0	0	21589	20160	163851	27279	1053345	46236	107927	0	0	8185	580725	0	0
2024-10-05 08:03:47			0	37628	0	0	0	21594	20160	163747	27235	1053345	46248	107929	0	0	8186	580318	0	0
2024-10-05 08:04:47			0	37617	0	0	0	21579	20160	163763	27317	1053309	46247	107923	0	0	8186	580765	0	0
2024-10-05 08:05:47			0	37626	0	0	0	21581	20160	163783	27166	1053291	46248	107924	0	0	8186	580399	0	0
2024-10-05 08:06:47			0	37626	0	0	0	21586	20160	163727	26998	1053345	46225	107926	0	0	8186	580399	0	0
2024-10-05 08:07:47			0	37618	0	0	0	21576	20160	163723	26724	1053336	46235	107922	0	0	8186	580725	0	0
2024-10-05 08:08:47			0	37624	0	0	0	21584	20160	163703	27272	1053291	46248	107925	0	0	8186	580480	0	0
2024-10-05 08:09:47			0	37642	0	0	0	21586	20160	163707	27187	1053309	46247	107926	0	0	8187	579748	0	0
2024-10-05 08:10:47			0	37654	0	0	0	21576	20160	163491	27208	1053309	46235	107922	0	0	8188	579260	0	0
2024-10-05 08:11:47			0	37680	0	0	0	21581	20150	163511	27384	1053247	46246	107924	0	0	8189	578235	0	0
2024-10-05 08:12:47			0	37700	0	0	0	21573	20150	163447	26875	1053300	46246	107921	0	0	8191	577423	0	0
2024-10-05 08:13:47			0	37707	0	0	0	21589	20160	163347	27248	1053336	46247	107927	0	0	8191	577107	0	0
2024-10-05 08:14:47			0	37721	0	0	0	21586	20160	163247	27048	1053318	46248	107926	0	0	8192	576540	0	0
2024-10-05 08:15:47			0	37753	0	0	0	21594	20160	163159	27216	1053318	46236	107929	0	0	8193	575243	0	0
2024-10-05 08:16:47			0	37750	0	0	0	21589	20160	163187	27346	1053345	46248	107927	0	0	8193	575365	0	0
2024-10-05 08:17:47			0	37771	0	0	0	21584	20160	163163	27079	1053362	46235	107925	0	0	8195	574515	0	0
2024-10-05 08:18:47			0	37780	0	0	0	21586	20160	163047	27441	1053389	46247	107926	0	0	8195	574151	0	0
2024-10-05 08:19:47			0	37776	0	0	0	21599	20160	163039	27351	1053362	46247	107931	0	0	8195	574313	0	0
2024-10-05 08:20:47			0	37791	0	0	0	21605	20160	162967	27393	1053371	46269	107933	0	0	8195	573706	0	0
2024-10-05 08:21:47			0	37810	0	0	0	21607	20160	162951	27424	1053345	46258	107934	0	0	8197	572939	0	0
2024-10-05 08:22:47			0	37826	0	0	0	21618	20170	162863	27448	1053407	46248	107938	0	0	8197	572262	0	0
2024-10-05 08:23:47			0	37864	0	0	0	21612	20160	162823	27163	1053398	46236	107936	0	0	8200	570761	0	0
2024-10-05 08:24:47			0	37883	0	0	0	21610	20160	162663	27386	1053442	46268	107935	0	0	8201	569996	0	0
2024-10-05 08:25:47			0	37890	0	0	0	21615	20160	162603	27339	1053478	46258	107937	0	0	8201	569715	0	0
2024-10-05 08:26:47			0	37908	0	0	0	21612	20180	162555	27185	1053425	46259	107936	0	0	8202	568928	0	0
2024-10-05 08:27:47			0	37903	0	0	0	21610	20170	162479	27109	1053407	46248	107935	0	0	8202	569160	0	0
2024-10-05 08:28:47			0	37923	0	0	0	21620	20180	162559	27365	1053425	46259	107939	0	0	8203	568325	0	0
2024-10-05 08:29:47			0	37925	0	0	0	21618	20180	162515	27230	1053425	46249	107938	0	0	8203	568245	0	0
2024-10-05 08:30:47			0	37952	0	0	0	21618	20180	162351	27275	1053425	46270	107938	0	0	8205	567161	0	0
2024-10-05 08:31:47			0	37952	0	0	0	21620	20180	162399	27448	1053460	46238	107939	0	0	8205	567161	0	0
2024-10-05 08:32:47			0	37962	0	0	0	21625	20180	162307	26868	1053478	46237	107941	0	0	8205	566760	0	0
2024-10-05 08:33:47			0	37973	0	0	0	21628	20180	162299	27286	1053487	46238	107942	0	0	8206	566319	0	0
2024-10-05 08:34:47			0	37971	0	0	0	21623	20180	162195	27384	1053407	46238	107940	0	0	8206	566399	0	0
2024-10-05 08:35:47			0	37987	0	0	0	21625	20190	162219	27083	1053522	46261	107941	0	0	8207	565727	0	0
2024-10-05 08:36:47			0	37983	0	0	0	21625	20190	162251	27322	1053416	46261	107941	0	0	8207	565887	0	0
2024-10-05 08:37:47			0	37988	0	0	0	21628	20180	162175	27554	1053513	46260	107942	0	0	8207	565718	0	0
2024-10-05 08:38:47			0	37995	0	0	0	21633	20190	162219	27377	1053505	46261	107944	0	0	8207	565407	0	0
2024-10-05 08:39:47			0	38011	0	0	0	21620	20190	162243	27234	1053549	46228	107939	0	0	8208	564766	0	0
2024-10-05 08:40:47			0	38015	0	0	0	21628	20190	162143	27395	1053505	46261	107942	0	0	8208	564606	0	0
2024-10-05 08:41:47			0	38016	0	0	0	21628	20190	162099	27303	1053531	46250	107942	0	0	8208	564566	0	0
2024-10-05 08:42:47			0	38016	0	0	0	21631	20190	162067	27545	1053505	46272	107943	0	0	8208	564566	0	0
2024-10-05 08:43:47			0	38023	0	0	0	21638	20190	162035	27343	1053505	46261	107946	0	0	8209	564287	0	0
2024-10-05 08:44:47			0	38026	0	0	0	21638	20200	162063	27431	1053513	46250	107946	0	0	8209	564135	0	0
2024-10-05 08:45:47			0	38033	0	0	0	21641	20190	161983	27320	1053549	46239	107947	0	0	8209	563887	0	0
2024-10-05 08:46:47			0	38052	0	0	0	21646	20190	161896	27308	1053531	46261	107949	0	0	8210	563128	0	0
2024-10-05 08:47:47			0	38047	0	0	0	21646	20200	162016	27246	1053540	46250	107949	0	0	8210	563296	0	0
2024-10-05 08:48:47			0	38073	0	0	0	21649	20210	162000	27490	1053567	46274	107950	0	0	8212	562227	0	0
2024-10-05 08:49:47			0	38051	0	0	0	21633	20200	161860	27275	1053567	46250	107944	0	0	8210	563136	0	0
2024-10-05 08:50:47			0	38071	0	0	0	21649	20210	161828	27647	1053567	46263	107950	0	0	8211	562307	0	0
2024-10-05 08:51:47			0	38067	0	0	0	21641	20210	161856	27371	1053584	46252	107947	0	0	8211	562467	0	0
2024-10-05 08:52:47			0	38074	0	0	0	21646	20200	161860	27206	1053540	46250	107949	0	0	8212	562218	0	0
2024-10-05 08:53:47			0	38075	0	0	0	21649	20210	161832	27208	1053558	46263	107950	0	0	8212	562148	0	0
2024-10-05 08:54:47			0	38078	0	0	0	21646	20200	161784	27376	1053602	46262	107949	0	0	8212	562059	0	0
2024-10-05 08:55:47			0	38074	0	0	0	21649	20210	161728	27296	1053593	46252	107950	0	0	8212	562187	0	0
2024-10-05 08:56:47			0	38094	0	0	0	21651	20210	161804	27422	1053611	46263	107951	0	0	8213	561390	0	0
2024-10-05 08:57:47			0	38093	0	0	0	21646	20200	161828	27351	1053593	46250	107949	0	0	8213	561461	0	0
2024-10-05 08:58:47			0	38070	0	0	0	21659	20210	161820	27447	1053531	46252	107954	0	0	8211	562347	0	0
2024-10-05 08:59:47			0	38096	0	0	0	21649	20210	161712	27178	1053584	46274	107950	0	0	8213	561310	0	0
2024-10-05 09:00:47			0	38095	0	0	0	21646	20210	161788	27142	1053593	46263	107949	0	0	8213	561350	0	0
2024-10-05 09:01:47			0	38087	0	0	0	21646	20220	161696	27329	1053629	46252	107949	0	0	8212	561638	0	0
2024-10-05 09:02:47			0	38091	0	0	0	21644	20210	161660	27479	1053567	46252	107948	0	0	8213	561510	0	0
2024-10-05 09:03:47			0	38103	0	0	0	21644	20220	161684	27301	1053638	46253	107948	0	0	8213	561000	0	0
2024-10-05 09:04:47			0	38105	0	0	0	21644	20220	161684	27478	1053629	46263	107948	0	0	8214	560921	0	0
2024-10-05 09:05:47			0	38117	0	0	0	21651	20210	161788	27377	1053593	46252	107951	0	0	8214	560474	0	0
2024-10-05 09:06:47			0	38105	0	0	0	21654	20220	161624	27524	1053638	46264	107952	0	0	8213	560921	0	0
2024-10-05 09:07:47			0	38103	0	0	0	21649	20210	161736	27118	1053620	46252	107950	0	0	8213	561031	0	0
2024-10-05 09:08:47			0	38127	0	0	0	21641	20210	161580	27274	1053647	46263	107947	0	0	8215	560076	0	0
2024-10-05 09:09:47			0	38126	0	0	0	21651	20210	161700	27189	1053593	46252	107951	0	0	8215	560116	0	0
2024-10-05 09:10:47			0	38124	0	0	0	21654	20210	161676	27400	1053584	46252	107952	0	0	8214	560195	0	0
2024-10-05 09:11:47			0	38127	0	0	0	21659	20220	161632	27550	1053603	46263	107954	0	0	8215	560045	0	0
2024-10-05 09:12:47			0	38093	0	0	0	21651	20220	161652	27339	1053638	46264	107951	0	0	8213	561399	0	0
2024-10-05 09:13:47			0	38116	0	0	0	21662	20210	161660	27332	1053647	46252	107955	0	0	8214	560514	0	0
2024-10-05 09:14:47			0	38114	0	0	0	21657	20200	161700	27448	1053567	46250	107953	0	0	8214	560624	0	0
2024-10-05 09:15:47			0	38113	0	0	0	21659	20220	161620	27526	1053665	46253	107954	0	0	8214	560602	0	0
2024-10-05 09:16:47			0	38116	0	0	0	21649	20210	161628	27331	1053620	46252	107950	0	0	8214	560514	0	0
2024-10-05 09:17:47			0	38126	0	0	0	21662	20210	161628	27076	1053647	46252	107955	0	0	8214	560116	0	0
2024-10-05 09:18:47			0	38129	0	0	0	21659	20220	161544	27244	1053656	46252	107954	0	0	8215	559965	0	0
2024-10-05 09:19:47			0	38141	0	0	0	21672	20230	161528	27263	1053709	46265	107959	0	0	8215	559457	0	0
2024-10-05 09:20:47			0	38147	0	0	0	21675	20220	161616	27357	1053638	46253	107960	0	0	8215	559249	0	0
2024-10-05 09:21:47			0	38134	0	0	0	21667	20230	161524	27324	1053727	46254	107957	0	0	8215	559736	0	0
2024-10-05 09:22:47			0	38142	0	0	0	21662	20230	161596	27471	1053683	46254	107955	0	0	8215	559417	0	0
2024-10-05 09:23:47			0	38169	0	0	0	21659	20230	161568	27729	1053621	46254	107954	0	0	8217	558344	0	0
2024-10-05 09:24:47			0	38156	0	0	0	21664	20220	161488	27319	1053745	46253	107956	0	0	8216	558892	0	0
2024-10-05 09:25:47			0	38158	0	0	0	21667	20240	161608	27595	1053665	46265	107957	0	0	8216	558750	0	0
2024-10-05 09:26:47			0	38162	0	0	0	21638	20240	161628	27486	1053718	46276	107946	0	0	8217	558591	0	0
2024-10-05 09:27:47			0	38147	0	0	0	21644	20230	161548	27416	1053700	46254	107948	0	0	8216	559218	0	0
2024-10-05 09:28:47			0	38137	0	0	0	21638	20230	161552	27343	1053700	46243	107946	0	0	8216	559616	0	0
2024-10-05 09:29:47			0	38119	0	0	0	21636	20210	161552	27519	1053647	46252	107945	0	0	8214	560394	0	0
2024-10-05 09:30:47			0	38132	0	0	0	21633	20220	161528	27414	1053656	46252	107944	0	0	8215	559846	0	0
2024-10-05 09:31:47			0	38121	0	0	0	21633	20230	161576	27237	1053567	46243	107944	0	0	8215	560253	0	0
2024-10-05 09:32:47			0	38127	0	0	0	21633	20210	161620	27367	1053567	46241	107944	0	0	8215	560076	0	0
2024-10-05 09:33:47			0	38111	0	0	0	21641	20220	161588	27639	1053612	46242	107947	0	0	8214	560682	0	0
2024-10-05 09:34:47			0	38102	0	0	0	21638	20210	161628	27476	1053638	46241	107946	0	0	8213	561071	0	0
2024-10-05 09:35:47			0	38111	0	0	0	21646	20210	161724	27336	1053620	46252	107949	0	0	8214	560713	0	0
2024-10-05 09:36:47			0	38114	0	0	0	21633	20220	161608	27384	1053656	46252	107944	0	0	8214	560562	0	0
2024-10-05 09:37:47			0	38116	0	0	0	21649	20210	161676	27410	1053673	46263	107950	0	0	8214	560514	0	0
2024-10-05 09:38:47			0	38096	0	0	0	21638	20220	161708	27521	1053612	46275	107946	0	0	8213	561279	0	0
2024-10-05 09:39:47			0	38109	0	0	0	21646	20210	161696	27422	1053691	46252	107949	0	0	8214	560792	0	0
2024-10-05 09:40:47			0	38122	0	0	0	21644	20210	161780	27556	1053593	46241	107948	0	0	8215	560275	0	0
2024-10-05 09:41:47			0	38113	0	0	0	21646	20210	161672	27244	1053620	46274	107949	0	0	8214	560633	0	0
2024-10-05 09:42:47			0	38115	0	0	0	21651	20220	161752	27256	1053549	46252	107951	0	0	8214	560522	0	0
2024-10-05 09:43:47			0	38118	0	0	0	21646	20210	161648	27300	1053593	46263	107949	0	0	8214	560434	0	0
2024-10-05 09:44:47			0	38125	0	0	0	21644	20210	161756	27431	1053647	46263	107948	0	0	8215	560155	0	0
2024-10-05 09:45:47			0	38133	0	0	0	21651	20220	161680	27422	1053629	46252	107951	0	0	8215	559806	0	0
2024-10-05 09:46:47			0	38125	0	0	0	21657	20210	161664	27403	1053584	46241	107953	0	0	8214	560155	0	0
2024-10-05 09:47:47			0	38115	0	0	0	21644	20220	161588	27471	1053638	46253	107948	0	0	8214	560522	0	0
2024-10-05 09:48:47			0	38131	0	0	0	21654	20220	161552	27757	1053585	46253	107952	0	0	8215	559886	0	0
2024-10-05 09:49:47			0	38124	0	0	0	21662	20220	161620	27422	1053656	46274	107955	0	0	8214	560164	0	0
2024-10-05 09:50:47			0	38130	0	0	0	21659	20210	161640	27802	1053638	46252	107954	0	0	8215	559956	0	0
2024-10-05 09:51:47			0	38134	0	0	0	21657	20210	161568	27604	1053620	46252	107953	0	0	8215	559797	0	0
2024-10-05 09:52:47			0	38136	0	0	0	21657	20230	161640	27821	1053736	46276	107953	0	0	8215	559656	0	0
2024-10-05 09:53:47			0	38133	0	0	0	21664	20220	161648	27698	1053629	46252	107956	0	0	8215	559806	0	0
2024-10-05 09:54:47			0	38134	0	0	0	21654	20220	161512	27692	1053682	46241	107952	0	0	8215	559766	0	0
2024-10-05 09:55:47			0	38138	0	0	0	21675	20220	161520	27524	1053745	46264	107960	0	0	8215	559607	0	0
2024-10-05 09:56:47			0	38149	0	0	0	21662	20230	161516	27552	1053753	46276	107955	0	0	8216	559139	0	0
2024-10-05 09:57:47			0	38154	0	0	0	21662	20220	161596	27497	1053691	46253	107955	0	0	8216	558971	0	0
2024-10-05 09:58:47			0	38164	0	0	0	21664	20230	161552	27270	1053700	46265	107956	0	0	8217	558543	0	0
2024-10-05 09:59:47			0	38149	0	0	0	21654	20230	161532	27618	1053700	46265	107952	0	0	8216	559139	0	0
2024-10-05 10:00:47			0	38159	0	0	0	21654	20230	161516	27573	1053700	46265	107952	0	0	8217	558741	0	0
2024-10-05 10:01:47			0	38154	0	0	0	21649	20230	161404	27435	1053700	46265	107950	0	0	8216	558940	0	0
2024-10-05 10:02:47			0	38159	0	0	0	21657	20230	161532	27651	1053736	46254	107953	0	0	8217	558741	0	0
2024-10-05 10:03:47			0	38156	0	0	0	21657	20220	161532	27492	1053682	46263	107953	0	0	8216	558892	0	0
2024-10-05 10:04:47			0	38172	0	0	0	21662	20220	161524	27694	1053665	46253	107955	0	0	8217	558256	0	0
2024-10-05 10:05:47			0	38156	0	0	0	21659	20230	161608	27459	1053709	46265	107954	0	0	8216	558861	0	0
2024-10-05 10:06:47			0	38166	0	0	0	21664	20240	161488	27653	1053745	46254	107956	0	0	8217	558432	0	0
2024-10-05 10:07:47			0	38166	0	0	0	21659	20230	161464	27543	1053727	46254	107954	0	0	8217	558463	0	0
2024-10-05 10:08:47			0	38166	0	0	0	21667	20230	161488	27504	1053700	46265	107957	0	0	8217	558463	0	0
2024-10-05 10:09:47			0	38163	0	0	0	21664	20230	161472	27635	1053700	46254	107956	0	0	8217	558583	0	0
2024-10-05 10:10:47			0	38171	0	0	0	21662	20230	161460	27398	1053727	46265	107955	0	0	8217	558265	0	0
2024-10-05 10:11:47			0	38166	0	0	0	21667	20240	161432	27614	1053745	46254	107957	0	0	8217	558432	0	0
2024-10-05 10:12:47			0	38177	0	0	0	21664	20230	161400	27443	1053727	46243	107956	0	0	8217	558027	0	0
2024-10-05 10:13:47			0	38172	0	0	0	21664	20230	161436	27048	1053674	46254	107956	0	0	8217	558225	0	0
2024-10-05 10:14:47			0	38181	0	0	0	21662	20220	161480	27390	1053718	46264	107955	0	0	8218	557899	0	0
2024-10-05 10:15:47			0	38176	0	0	0	21662	20240	161408	27289	1053745	46265	107955	0	0	8218	558035	0	0
2024-10-05 10:16:47			0	38157	0	0	0	21672	20230	161356	27202	1053683	46254	107959	0	0	8216	558821	0	0
2024-10-05 10:17:47			0	38165	0	0	0	21672	20240	161284	27400	1053718	46265	107959	0	0	8217	558472	0	0
2024-10-05 10:18:47			0	38193	0	0	0	21675	20240	161300	27388	1053700	46266	107960	0	0	8218	557361	0	0
2024-10-05 10:19:47			0	38181	0	0	0	21683	20240	161448	27390	1053718	46254	107963	0	0	8217	557837	0	0
2024-10-05 10:20:47			0	38209	0	0	0	21672	20240	161224	27376	1053780	46266	107959	0	0	8219	556726	0	0
2024-10-05 10:21:47			0	38217	0	0	0	21677	20240	161280	27485	1053718	46276	107961	0	0	8220	556409	0	0
2024-10-05 10:22:47			0	38197	0	0	0	21685	20250	161344	27588	1053763	46267	107964	0	0	8218	557171	0	0
2024-10-05 10:23:47			0	38215	0	0	0	21685	20240	161220	27505	1053754	46244	107964	0	0	8219	556488	0	0
2024-10-05 10:24:47			0	38219	0	0	0	21680	20240	161268	27204	1053780	46266	107962	0	0	8220	556330	0	0
2024-10-05 10:25:47			0	38223	0	0	0	21675	20260	161252	27329	1053798	46268	107960	0	0	8220	556110	0	0
2024-10-05 10:26:47			0	38220	0	0	0	21672	20240	161224	27412	1053807	46255	107959	0	0	8220	556290	0	0
2024-10-05 10:27:47			0	38238	0	0	0	21680	20240	161280	27351	1053754	46266	107962	0	0	8221	555577	0	0
2024-10-05 10:28:47			0	38223	0	0	0	21683	20250	161160	27452	1053789	46267	107963	0	0	8220	556141	0	0
2024-10-05 10:29:47			0	38224	0	0	0	21680	20250	161280	27246	1053789	46267	107962	0	0	8220	556101	0	0
2024-10-05 10:30:47			0	38228	0	0	0	21677	20240	161288	27540	1053780	46266	107961	0	0	8220	555973	0	0
2024-10-05 10:31:47			0	38217	0	0	0	21680	20250	161224	27076	1053763	46267	107962	0	0	8220	556378	0	0
2024-10-05 10:32:47			0	38217	0	0	0	21675	20260	161140	27189	1053825	46268	107960	0	0	8220	556348	0	0
2024-10-05 10:33:47			0	38217	0	0	0	21685	20260	161156	27251	1053771	46246	107964	0	0	8220	556348	0	0
2024-10-05 10:34:47			0	38255	0	0	0	21688	20260	161116	27396	1053771	46246	107965	0	0	8222	554843	0	0
2024-10-05 10:35:47			0	38227	0	0	0	21680	20250	161144	27287	1053736	46256	107962	0	0	8220	555982	0	0
2024-10-05 10:36:47			0	38227	0	0	0	21683	20260	161140	27352	1053798	46268	107963	0	0	8220	555951	0	0
2024-10-05 10:37:47			0	38235	0	0	0	21685	20260	161152	27438	1053798	46257	107964	0	0	8221	555635	0	0
2024-10-05 10:38:47			0	38221	0	0	0	21680	20260	161208	27419	1053878	46279	107962	0	0	8220	556189	0	0
2024-10-05 10:39:47			0	38231	0	0	0	21677	20260	161140	27258	1053780	46257	107961	0	0	8221	555793	0	0
2024-10-05 10:40:47			0	38245	0	0	0	21685	20260	161160	27204	1053825	46257	107964	0	0	8221	555239	0	0
2024-10-05 10:41:47			0	38245	0	0	0	21675	20260	161164	27303	1053798	46257	107960	0	0	8221	555239	0	0
2024-10-05 10:42:47			0	38255	0	0	0	21672	20260	161056	27611	1053771	46268	107959	0	0	8222	554843	0	0
2024-10-05 10:43:47			0	38257	0	0	0	21672	20260	161048	27502	1053834	46257	107959	0	0	8222	554764	0	0
2024-10-05 10:44:47			0	38275	0	0	0	21672	20250	161008	27180	1053816	46256	107959	0	0	8223	554083	0	0
2024-10-05 10:45:47			0	38263	0	0	0	21672	20270	160980	27459	1053843	46257	107959	0	0	8223	554496	0	0
2024-10-05 10:46:47			0	38278	0	0	0	21675	20260	160980	27471	1053825	46268	107960	0	0	8223	553934	0	0
2024-10-05 10:47:47			0	38270	0	0	0	21675	20240	160960	27353	1053807	46255	107960	0	0	8223	554311	0	0
2024-10-05 10:48:47			0	38271	0	0	0	21675	20250	160996	27483	1053816	46256	107960	0	0	8223	554241	0	0
2024-10-05 10:49:47			0	38275	0	0	0	21677	20240	160944	27441	1053745	46254	107961	0	0	8223	554113	0	0
2024-10-05 10:50:47			0	38281	0	0	0	21672	20250	160908	27454	1053816	46256	107959	0	0	8224	553846	0	0
2024-10-05 10:51:47			0	38308	0	0	0	21662	20240	160760	27327	1053780	46244	107955	0	0	8225	552810	0	0
2024-10-05 10:52:47			0	38304	0	0	0	21662	20260	160780	27504	1053771	46246	107955	0	0	8225	552907	0	0
2024-10-05 10:53:47			0	38317	0	0	0	21664	20250	160732	27474	1053789	46267	107956	0	0	8226	552424	0	0
2024-10-05 10:54:47			0	38314	0	0	0	21667	20240	160684	27578	1053754	46255	107957	0	0	8226	552573	0	0
2024-10-05 10:55:47			0	38329	0	0	0	21659	20240	160808	27588	1053780	46255	107954	0	0	8227	551981	0	0
2024-10-05 10:56:47			0	38325	0	0	0	21654	20240	160740	27391	1053700	46255	107952	0	0	8226	552139	0	0
2024-10-05 10:57:47			0	38315	0	0	0	21672	20250	160804	27632	1053763	46256	107959	0	0	8226	552503	0	0
2024-10-05 10:58:47			0	38337	0	0	0	21696	20240	160772	27462	1053771	46232	107968	0	0	8226	551666	0	0
2024-10-05 10:59:47			0	38327	0	0	0	21698	20250	160772	27324	1053816	46267	107969	0	0	8226	552030	0	0
2024-10-05 11:00:47			0	38349	0	0	0	21698	20250	160776	27535	1053763	46278	107969	0	0	8227	551163	0	0
2024-10-05 11:01:47			0	38343	0	0	0	21698	20250	160784	27559	1053869	46278	107969	0	0	8227	551399	0	0
2024-10-05 11:02:47			0	38340	0	0	0	21706	20260	160788	27696	1053807	46279	107972	0	0	8226	551487	0	0
2024-10-05 11:03:47			0	38348	0	0	0	21703	20260	160824	27661	1053851	46268	107971	0	0	8227	551172	0	0
2024-10-05 11:04:47			0	38350	0	0	0	21709	20270	160784	27454	1053843	46268	107973	0	0	8227	551062	0	0
2024-10-05 11:05:47			0	38344	0	0	0	21711	20260	160824	27826	1053860	46268	107974	0	0	8227	551329	0	0
2024-10-05 11:06:47			0	38345	0	0	0	21711	20270	160764	27135	1053896	46257	107974	0	0	8227	551259	0	0
2024-10-05 11:07:47			0	38349	0	0	0	21706	20270	160752	27386	1053905	46258	107972	0	0	8227	551102	0	0
2024-10-05 11:08:47			0	38353	0	0	0	21709	20260	160704	27897	1053860	46246	107973	0	0	8227	550975	0	0
2024-10-05 11:09:47			0	38349	0	0	0	21706	20270	160700	27454	1053958	46258	107972	0	0	8227	551102	0	0
2024-10-05 11:10:47			0	38345	0	0	0	21714	20280	160704	27116	1053914	46270	107975	0	0	8227	551229	0	0
2024-10-05 11:11:47			0	38368	0	0	0	21711	20270	160624	27483	1053905	46269	107974	0	0	8228	550354	0	0
2024-10-05 11:12:47			0	38360	0	0	0	21714	20270	160652	27403	1053931	46280	107975	0	0	8228	550669	0	0
2024-10-05 11:13:47			0	38362	0	0	0	21709	20280	160612	27412	1053976	46270	107973	0	0	8228	550559	0	0
2024-10-05 11:14:47			0	38358	0	0	0	21709	20270	160632	27580	1053878	46258	107973	0	0	8228	550747	0	0
2024-10-05 11:15:47			0	38377	0	0	0	21714	20270	160596	27189	1053958	46269	107975	0	0	8229	549999	0	0
2024-10-05 11:16:47			0	38366	0	0	0	21711	20270	160548	27208	1053896	46257	107974	0	0	8228	550432	0	0
2024-10-05 11:17:47			0	38375	0	0	0	21706	20280	160616	27229	1053949	46259	107972	0	0	8229	550048	0	0
2024-10-05 11:18:47			0	38367	0	0	0	21711	20270	160580	27421	1053949	46257	107974	0	0	8228	550393	0	0
2024-10-05 11:19:47			0	38380	0	0	0	21709	20280	160636	27180	1053967	46259	107973	0	0	8229	549851	0	0
2024-10-05 11:20:47			0	38376	0	0	0	21714	20290	160648	27438	1053958	46291	107975	0	0	8229	549978	0	0
2024-10-05 11:21:47			0	38380	0	0	0	21709	20290	160540	27388	1053931	46270	107973	0	0	8229	549821	0	0
2024-10-05 11:22:47			0	38386	0	0	0	21709	20280	160532	27393	1053976	46259	107973	0	0	8229	549615	0	0
2024-10-05 11:23:47			0	38390	0	0	0	21709	20290	160588	27074	1053931	46259	107973	0	0	8229	549427	0	0
2024-10-05 11:24:47			0	38404	0	0	0	21709	20280	160464	27000	1053922	46259	107973	0	0	8230	548907	0	0
2024-10-05 11:25:47			0	38428	0	0	0	21714	20290	160552	27357	1053931	46259	107975	0	0	8232	547935	0	0
2024-10-05 11:26:47			0	38423	0	0	0	21716	20290	160500	27405	1053985	46259	107976	0	0	8231	548131	0	0
2024-10-05 11:27:47			0	38422	0	0	0	21711	20290	160420	27317	1053967	46271	107974	0	0	8231	548170	0	0
2024-10-05 11:28:47			0	38431	0	0	0	21711	20290	160324	27358	1053958	46259	107974	0	0	8232	547817	0	0
2024-10-05 11:29:47			0	38440	0	0	0	21716	20280	160320	27135	1053993	46259	107976	0	0	8232	547494	0	0
2024-10-05 11:30:47			0	38445	0	0	0	21711	20280	160256	27448	1053949	46259	107974	0	0	8233	547298	0	0
2024-10-05 11:31:47			0	38434	0	0	0	21716	20280	160356	27486	1053976	46259	107976	0	0	8232	547729	0	0
2024-10-05 11:32:47			0	38457	0	0	0	21727	20290	160332	27429	1054011	46270	107980	0	0	8233	546797	0	0
2024-10-05 11:33:47			0	38452	0	0	0	21729	20290	160252	27131	1053931	46270	107981	0	0	8233	546993	0	0
2024-10-05 11:34:47			0	38464	0	0	0	21727	20290	160240	27298	1054011	46259	107980	0	0	8233	546523	0	0
2024-10-05 11:35:47			0	38458	0	0	0	21716	20290	160252	27353	1053967	46260	107976	0	0	8233	546758	0	0
2024-10-05 11:36:47			0	38450	0	0	0	21729	20290	160256	27267	1053993	46260	107981	0	0	8233	547071	0	0
2024-10-05 11:37:47			0	38447	0	0	0	21735	20290	160324	27447	1053967	46282	107983	0	0	8232	547189	0	0
2024-10-05 11:38:47			0	38455	0	0	0	21722	20300	160232	27376	1054065	46283	107978	0	0	8233	546845	0	0
2024-10-05 11:39:47			0	38456	0	0	0	21714	20290	160320	27530	1053993	46250	107975	0	0	8233	546836	0	0
2024-10-05 11:40:47			0	38446	0	0	0	21719	20290	160256	27332	1053993	46250	107977	0	0	8233	547228	0	0
2024-10-05 11:41:47			0	38446	0	0	0	21722	20290	160276	27121	1054020	46260	107978	0	0	8233	547228	0	0
2024-10-05 11:42:47			0	38459	0	0	0	21714	20290	160220	27190	1053967	46260	107975	0	0	8233	546719	0	0
2024-10-05 11:43:47			0	38465	0	0	0	21719	20290	160248	27112	1053940	46260	107977	0	0	8234	546483	0	0
2024-10-05 11:44:47			0	38464	0	0	0	21722	20300	160336	27424	1054002	46272	107978	0	0	8234	546492	0	0
2024-10-05 11:45:47			0	38451	0	0	0	21722	20290	160344	27393	1054073	46250	107978	0	0	8233	547032	0	0
2024-10-05 11:46:47			0	38451	0	0	0	21722	20290	160400	27069	1054020	46271	107978	0	0	8233	547032	0	0
2024-10-05 11:47:47			0	38455	0	0	0	21724	20300	160240	27530	1053949	46261	107979	0	0	8233	546845	0	0
2024-10-05 11:48:47			0	38455	0	0	0	21722	20300	160192	27301	1053976	46272	107978	0	0	8233	546845	0	0
2024-10-05 11:49:47			0	38473	0	0	0	21737	20290	160412	27237	1054011	46270	107984	0	0	8234	546170	0	0
2024-10-05 11:50:47			0	38444	0	0	0	21722	20300	160284	27086	1053985	46272	107978	0	0	8232	547276	0	0
2024-10-05 11:51:47			0	38471	0	0	0	21735	20300	160228	27206	1054002	46272	107983	0	0	8234	546218	0	0
2024-10-05 11:52:47			0	38462	0	0	0	21724	20290	160216	27388	1053993	46271	107979	0	0	8233	546601	0	0
2024-10-05 11:53:47			0	38449	0	0	0	21735	20290	160168	27369	1054020	46271	107983	0	0	8232	547110	0	0
2024-10-05 11:54:47			0	38461	0	0	0	21727	20290	160224	27564	1054047	46260	107980	0	0	8233	546640	0	0
2024-10-05 11:55:47			0	38470	0	0	0	21729	20300	160172	27537	1054011	46293	107981	0	0	8234	546257	0	0
2024-10-05 11:56:47			0	38475	0	0	0	21729	20290	160172	27258	1053967	46282	107981	0	0	8234	546092	0	0
2024-10-05 11:57:47			0	38450	0	0	0	21735	20300	160172	27803	1054029	46261	107983	0	0	8233	547041	0	0
2024-10-05 11:58:47			0	38463	0	0	0	21732	20300	160248	27372	1054029	46261	107982	0	0	8233	546532	0	0
2024-10-05 11:59:47			0	38469	0	0	0	21735	20300	160216	27372	1054011	46272	107983	0	0	8234	546296	0	0
2024-10-05 12:00:47			0	38481	0	0	0	21737	20300	160172	27371	1054011	46283	107984	0	0	8234	545826	0	0
2024-10-05 12:01:47			0	38495	0	0	0	21729	20310	160120	27434	1054073	46250	107981	0	0	8235	545248	0	0
2024-10-05 12:02:47			0	38491	0	0	0	21735	20300	160108	27216	1054109	46261	107983	0	0	8235	545435	0	0
2024-10-05 12:03:47			0	38489	0	0	0	21740	20300	160144	27364	1054011	46272	107985	0	0	8235	545513	0	0
2024-10-05 12:04:47			0	38487	0	0	0	21735	20300	160000	27575	1054091	46261	107983	0	0	8235	545592	0	0
2024-10-05 12:05:47			0	38491	0	0	0	21735	20300	160008	27027	1054002	46261	107983	0	0	8235	545435	0	0
2024-10-05 12:06:47			0	38477	0	0	0	21737	20300	160068	27480	1054118	46283	107984	0	0	8234	545983	0	0
2024-10-05 12:07:47			0	38478	0	0	0	21737	20320	160088	27502	1054118	46263	107984	0	0	8234	545884	0	0
2024-10-05 12:08:47			0	38499	0	0	0	21735	20320	159940	27635	1054038	46263	107983	0	0	8236	545062	0	0
2024-10-05 12:09:47			0	38504	0	0	0	21737	20310	159996	27230	1054073	46261	107984	0	0	8236	544896	0	0
2024-10-05 12:10:47			0	38501	0	0	0	21735	20300	160012	27725	1054091	46261	107983	0	0	8236	545044	0	0
2024-10-05 12:11:47			0	38485	0	0	0	21740	20310	160024	27440	1054153	46261	107985	0	0	8235	545640	0	0
2024-10-05 12:12:47			0	38496	0	0	0	21742	20310	159996	27130	1054153	46261	107986	0	0	8235	545209	0	0
2024-10-05 12:13:47			0	38504	0	0	0	21735	20310	159996	27267	1054047	46272	107983	0	0	8236	544896	0	0
2024-10-05 12:14:47			0	38495	0	0	0	21737	20310	160048	27672	1054082	46273	107984	0	0	8235	545248	0	0
2024-10-05 12:15:47			0	38504	0	0	0	21732	20310	160108	27426	1054056	46262	107982	0	0	8236	544896	0	0
2024-10-05 12:16:47			0	38499	0	0	0	21742	20310	160096	27410	1054100	46283	107986	0	0	8235	545092	0	0
2024-10-05 12:17:47			0	38518	0	0	0	21735	20300	160104	27725	1054056	46261	107983	0	0	8237	544379	0	0
2024-10-05 12:18:47			0	38489	0	0	0	21737	20310	159976	27156	1054073	46250	107984	0	0	8235	545483	0	0
2024-10-05 12:19:47			0	38508	0	0	0	21735	20310	159984	27592	1054073	46261	107983	0	0	8236	544740	0	0
2024-10-05 12:20:47			0	38528	0	0	0	21729	20310	159892	27274	1054136	46284	107981	0	0	8237	543958	0	0
2024-10-05 12:21:47			0	38514	0	0	0	21735	20310	159888	27431	1054073	46272	107983	0	0	8236	544505	0	0
2024-10-05 12:22:47			0	38537	0	0	0	21737	20320	159880	27280	1054145	46274	107984	0	0	8238	543576	0	0
2024-10-05 12:23:47			0	38531	0	0	0	21732	20310	159824	27585	1054082	46262	107982	0	0	8237	543841	0	0
2024-10-05 12:24:47			0	38539	0	0	0	21729	20300	159952	27391	1054065	46261	107981	0	0	8238	543558	0	0
2024-10-05 12:25:47			0	38545	0	0	0	21722	20310	159860	27289	1054127	46272	107978	0	0	8238	543294	0	0
2024-10-05 12:26:47			0	38545	0	0	0	21724	20310	159744	27234	1054109	46262	107979	0	0	8238	543294	0	0
2024-10-05 12:27:47			0	38547	0	0	0	21724	20310	159816	27455	1054047	46261	107979	0	0	8238	543216	0	0
2024-10-05 12:28:47			0	38544	0	0	0	21737	20310	159728	27071	1054047	46261	107984	0	0	8238	543333	0	0
2024-10-05 12:29:47			0	38540	0	0	0	21732	20310	159832	27223	1054100	46261	107982	0	0	8238	543489	0	0
2024-10-05 12:30:47			0	38535	0	0	0	21742	20310	159952	27388	1054100	46272	107986	0	0	8237	543684	0	0
2024-10-05 12:31:47			0	38524	0	0	0	21740	20300	159944	27280	1054038	46283	107985	0	0	8237	544144	0	0
2024-10-05 12:32:47			0	38507	0	0	0	21740	20300	159976	27105	1054011	46272	107985	0	0	8236	544809	0	0
2024-10-05 12:33:47			0	38517	0	0	0	21742	20300	159964	27227	1054002	46261	107986	0	0	8236	544418	0	0
2024-10-05 12:34:47			0	38504	0	0	0	21737	20300	159984	27287	1054038	46261	107984	0	0	8236	544926	0	0
2024-10-05 12:35:47			0	38522	0	0	0	21737	20310	159984	27208	1054136	46251	107984	0	0	8237	544192	0	0
2024-10-05 12:36:47			0	38501	0	0	0	21742	20310	160036	27578	1054127	46261	107986	0	0	8235	545014	0	0
2024-10-05 12:37:47			0	38522	0	0	0	21745	20310	159940	27474	1054100	46283	107987	0	0	8237	544192	0	0
2024-10-05 12:38:47			0	38509	0	0	0	21740	20300	159968	27592	1054118	46261	107985	0	0	8236	544731	0	0
2024-10-05 12:39:47			0	38513	0	0	0	21729	20320	159912	27711	1054145	46274	107981	0	0	8236	544514	0	0
2024-10-05 12:40:47			0	38546	0	0	0	21737	20310	160000	27469	1054109	46251	107984	0	0	8238	543255	0	0
2024-10-05 12:41:47			0	38517	0	0	0	21742	20310	159920	27526	1054162	46251	107986	0	0	8236	544388	0	0
2024-10-05 12:42:47			0	38539	0	0	0	21745	20300	159996	27352	1054091	46261	107987	0	0	8238	543558	0	0
2024-10-05 12:43:47			0	38537	0	0	0	21742	20300	159920	27498	1054118	46283	107986	0	0	8238	543636	0	0
2024-10-05 12:44:47			0	38545	0	0	0	21745	20310	159932	27248	1054153	46261	107987	0	0	8238	543294	0	0
2024-10-05 12:45:47			0	38539	0	0	0	21742	20310	159972	27920	1054136	46273	107986	0	0	8238	543528	0	0
2024-10-05 12:46:47			0	38576	0	0	0	21740	20310	159816	27459	1054136	46262	107985	0	0	8240	542084	0	0
2024-10-05 12:47:47			0	38553	0	0	0	21742	20310	159776	27933	1054136	46262	107986	0	0	8239	542981	0	0
2024-10-05 12:48:47			0	38591	0	0	0	21745	20300	159740	27732	1054171	46272	107987	0	0	8241	541529	0	0
2024-10-05 12:49:47			0	38569	0	0	0	21750	20310	159744	27850	1054153	46261	107989	0	0	8239	542357	0	0
2024-10-05 12:50:47			0	38574	0	0	0	21745	20300	159760	27729	1054118	46250	107987	0	0	8240	542192	0	0
2024-10-05 12:51:47			0	38584	0	0	0	21748	20310	159692	27711	1054136	46251	107988	0	0	8240	541772	0	0
2024-10-05 12:52:47			0	38582	0	0	0	21742	20320	159564	27355	1054145	46285	107986	0	0	8240	541820	0	0
2024-10-05 12:53:47			0	38585	0	0	0	21753	20320	159552	27360	1054145	46274	107990	0	0	8240	541703	0	0
2024-10-05 12:54:47			0	38590	0	0	0	21755	20320	159612	27602	1054171	46295	107991	0	0	8241	541508	0	0
2024-10-05 12:55:47			0	38595	0	0	0	21761	20320	159644	27426	1054260	46264	107993	0	0	8241	541314	0	0
2024-10-05 12:56:47			0	38609	0	0	0	21761	20310	159516	27476	1054162	46262	107993	0	0	8241	540798	0	0
2024-10-05 12:57:47			0	38590	0	0	0	21758	20320	159508	27410	1054207	46253	107992	0	0	8240	541508	0	0
2024-10-05 12:58:47			0	38607	0	0	0	21755	20330	159548	27566	1054225	46275	107991	0	0	8242	540816	0	0
2024-10-05 12:59:47			0	38602	0	0	0	21768	20320	159560	27583	1054180	46286	107996	0	0	8241	541041	0	0
2024-10-05 13:00:47			0	38605	0	0	0	21755	20320	159568	27391	1054260	46275	107991	0	0	8241	540924	0	0
2024-10-05 13:01:47			0	38591	0	0	0	21763	20320	159688	27524	1054207	46286	107994	0	0	8240	541469	0	0
2024-10-05 13:02:47			0	38587	0	0	0	21771	20330	159760	27438	1054216	46264	107997	0	0	8240	541595	0	0
2024-10-05 13:03:47			0	38609	0	0	0	21766	20320	159564	27479	1054207	46275	107995	0	0	8241	540768	0	0
2024-10-05 13:04:47			0	38621	0	0	0	21761	20340	159696	27500	1054233	46265	107993	0	0	8242	540242	0	0
2024-10-05 13:05:47			0	38612	0	0	0	21763	20330	159716	27618	1054251	46275	107994	0	0	8242	540622	0	0
2024-10-05 13:06:47			0	38598	0	0	0	21776	20340	159580	27196	1054207	46276	107999	0	0	8241	541137	0	0
2024-10-05 13:07:47			0	38603	0	0	0	21763	20330	159616	27464	1054251	46264	107994	0	0	8241	540972	0	0
2024-10-05 13:08:47			0	38606	0	0	0	21768	20330	159656	27454	1054242	46275	107996	0	0	8241	540855	0	0
2024-10-05 13:09:47			0	38618	0	0	0	21768	20330	159540	27606	1054242	46275	107996	0	0	8242	540388	0	0
2024-10-05 13:10:47			0	38601	0	0	0	21774	20340	159668	27854	1054243	46277	107998	0	0	8241	541020	0	0
2024-10-05 13:11:47			0	38615	0	0	0	21774	20350	159612	27604	1054305	46277	107998	0	0	8242	540445	0	0
2024-10-05 13:12:47			0	38633	0	0	0	21776	20330	159424	27507	1054295	46264	107999	0	0	8243	539805	0	0
2024-10-05 13:13:47			0	38648	0	0	0	21784	20340	159396	27675	1054287	46276	108002	0	0	8243	539192	0	0
2024-10-05 13:14:47			0	38647	0	0	0	21781	20340	159304	27471	1054287	46265	108001	0	0	8243	539231	0	0
2024-10-05 13:15:47			0	38666	0	0	0	21781	20340	159356	27460	1054287	46265	108001	0	0	8245	538492	0	0
2024-10-05 13:16:47			0	38659	0	0	0	21779	20340	159304	27614	1054322	46266	108000	0	0	8244	538764	0	0
2024-10-05 13:17:47			0	38676	0	0	0	21781	20350	159380	27381	1054331	46288	108001	0	0	8245	538074	0	0
2024-10-05 13:18:47			0	38670	0	0	0	21786	20350	159284	27339	1054331	46266	108003	0	0	8245	538307	0	0
2024-10-05 13:19:47			0	38660	0	0	0	21792	20370	159360	27606	1054314	46268	108005	0	0	8244	538636	0	0
2024-10-05 13:20:47			0	38673	0	0	0	21792	20340	159296	27396	1054322	46277	108005	0	0	8245	538220	0	0
2024-10-05 13:21:47			0	38686	0	0	0	21797	20350	159264	27578	1054340	46266	108007	0	0	8246	537686	0	0
2024-10-05 13:22:47			0	38724	0	0	0	21799	20360	159240	27658	1054376	46267	108008	0	0	8248	536184	0	0
2024-10-05 13:23:47			0	38722	0	0	0	21805	20360	159137	27838	1054411	46279	108010	0	0	8248	536261	0	0
2024-10-05 13:24:47			0	38748	0	0	0	21807	20370	159093	27640	1054403	46290	108011	0	0	8249	535225	0	0
2024-10-05 13:25:47			0	38748	0	0	0	21805	20360	159101	27809	1054332	46300	108010	0	0	8249	535254	0	0
2024-10-05 13:26:47			0	38759	0	0	0	21799	20370	158973	27531	1054341	46268	108008	0	0	8250	534799	0	0
2024-10-05 13:27:47			0	38771	0	0	0	21802	20380	158929	27398	1054438	46280	108009	0	0	8251	534306	0	0
2024-10-05 13:28:47			0	38735	0	0	0	21810	20380	158969	27566	1054447	46281	108012	0	0	8248	535698	0	0
2024-10-05 13:29:47			0	38742	0	0	0	21805	20360	159049	27397	1054438	46279	108010	0	0	8249	535487	0	0
2024-10-05 13:30:47			0	38733	0	0	0	21807	20370	159025	27498	1054509	46290	108011	0	0	8248	535805	0	0
2024-10-05 13:31:47			0	38721	0	0	0	21807	20380	159144	27334	1054412	46269	108011	0	0	8248	536240	0	0
2024-10-05 13:32:47			0	38695	0	0	0	21802	20390	159132	27466	1054562	46271	108009	0	0	8246	537218	0	0
2024-10-05 13:33:47			0	38707	0	0	0	21812	20380	159164	27277	1054438	46280	108013	0	0	8247	536783	0	0
2024-10-05 13:34:47			0	38714	0	0	0	21810	20380	159156	27279	1054465	46280	108012	0	0	8247	536512	0	0
2024-10-05 13:35:47			0	38710	0	0	0	21812	20380	159200	27428	1054500	46281	108013	0	0	8247	536667	0	0
2024-10-05 13:36:47			0	38716	0	0	0	21810	20380	159108	27474	1054447	46270	108012	0	0	8247	536434	0	0
2024-10-05 13:37:47			0	38720	0	0	0	21810	20380	159192	27343	1054553	46281	108012	0	0	8247	536279	0	0
2024-10-05 13:38:47			0	38710	0	0	0	21815	20390	159260	27256	1054509	46292	108014	0	0	8247	536637	0	0
2024-10-05 13:39:47			0	38724	0	0	0	21815	20380	159324	27383	1054491	46301	108014	0	0	8248	536124	0	0
2024-10-05 13:40:47			0	38728	0	0	0	21820	20390	159137	27391	1054545	46282	108016	0	0	8248	535940	0	0
2024-10-05 13:41:47			0	38725	0	0	0	21820	20390	159109	27372	1054456	46271	108016	0	0	8248	536056	0	0
2024-10-05 13:42:47			0	38730	0	0	0	21831	20390	159016	27281	1054492	46292	108020	0	0	8248	535862	0	0
2024-10-05 13:43:47			0	38742	0	0	0	21828	20390	159113	27398	1054536	46271	108019	0	0	8248	535398	0	0
2024-10-05 13:44:47			0	38754	0	0	0	21825	20400	158961	27279	1054527	46271	108018	0	0	8249	534904	0	0
2024-10-05 13:45:47			0	38765	0	0	0	21831	20390	158949	27180	1054545	46282	108020	0	0	8250	534508	0	0
2024-10-05 13:46:47			0	38760	0	0	0	21831	20390	158989	27313	1054518	46282	108020	0	0	8249	534702	0	0
2024-10-05 13:47:47			0	38764	0	0	0	21836	20400	159029	27569	1054554	46292	108022	0	0	8250	534517	0	0
2024-10-05 13:48:47			0	38779	0	0	0	21831	20380	158945	27682	1054607	46281	108020	0	0	8250	533997	0	0
2024-10-05 13:49:47			0	38778	0	0	0	21828	20400	158917	27486	1054580	46271	108019	0	0	8251	533976	0	0
2024-10-05 13:50:47			0	38803	0	0	0	21833	20400	158809	27319	1054589	46283	108021	0	0	8252	533011	0	0
2024-10-05 13:51:47			0	38793	0	0	0	21831	20400	158833	27538	1054527	46282	108020	0	0	8251	533397	0	0
2024-10-05 13:52:47			0	38788	0	0	0	21825	20400	158853	27388	1054554	46282	108018	0	0	8251	533590	0	0
2024-10-05 13:53:47			0	38791	0	0	0	21825	20400	158793	27384	1054483	46293	108018	0	0	8251	533474	0	0
2024-10-05 13:54:47			0	38780	0	0	0	21823	20400	158953	27241	1054589	46283	108017	0	0	8251	533899	0	0
2024-10-05 13:55:47			0	38776	0	0	0	21831	20400	158913	27618	1054589	46261	108020	0	0	8250	534054	0	0
2024-10-05 13:56:47			0	38776	0	0	0	21818	20400	158913	27013	1054536	46283	108015	0	0	8251	534054	0	0
2024-10-05 13:57:47			0	38792	0	0	0	21828	20400	158945	27530	1054536	46272	108019	0	0	8251	533436	0	0
2024-10-05 13:58:47			0	38800	0	0	0	21828	20400	158793	27166	1054536	46272	108019	0	0	8252	533127	0	0
2024-10-05 13:59:47			0	38824	0	0	0	21831	20390	158793	27284	1054571	46271	108020	0	0	8253	532230	0	0
2024-10-05 14:00:47			0	38833	0	0	0	21828	20400	158665	27362	1054536	46272	108019	0	0	8254	531854	0	0
2024-10-05 14:01:47			0	38848	0	0	0	21820	20410	158665	27485	1054580	46262	108016	0	0	8255	531247	0	0
2024-10-05 14:02:47			0	38844	0	0	0	21833	20400	158589	27628	1054580	46271	108021	0	0	8254	531430	0	0
2024-10-05 14:03:47			0	38844	0	0	0	21828	20410	158621	27159	1054572	46262	108019	0	0	8254	531401	0	0
2024-10-05 14:04:47			0	38863	0	0	0	21820	20400	158465	27388	1054563	46272	108016	0	0	8256	530699	0	0
2024-10-05 14:05:47			0	38884	0	0	0	21828	20400	158525	27374	1054527	46260	108019	0	0	8257	529891	0	0
2024-10-05 14:06:47			0	38866	0	0	0	21818	20400	158501	27741	1054500	46282	108015	0	0	8256	530583	0	0
2024-10-05 14:07:47			0	38876	0	0	0	21825	20400	158357	27362	1054536	46272	108018	0	0	8256	530198	0	0
2024-10-05 14:08:47			0	38876	0	0	0	21823	20410	158457	27395	1054545	46284	108017	0	0	8256	530169	0	0
2024-10-05 14:09:47			0	38884	0	0	0	21823	20400	158521	27274	1054509	46261	108017	0	0	8257	529891	0	0
2024-10-05 14:10:47			0	38881	0	0	0	21818	20400	158521	27396	1054500	46260	108015	0	0	8257	530006	0	0
2024-10-05 14:11:47			0	38866	0	0	0	21805	20390	158497	27658	1054545	46271	108010	0	0	8256	530612	0	0
2024-10-05 14:12:47			0	38828	0	0	0	21810	20400	158561	27762	1054527	46271	108012	0	0	8254	532047	0	0
2024-10-05 14:13:47			0	38807	0	0	0	21807	20400	158877	27583	1054580	46282	108011	0	0	8253	532857	0	0
2024-10-05 14:14:47			0	38816	0	0	0	21823	20390	158745	27701	1054518	46282	108017	0	0	8253	532539	0	0
2024-10-05 14:15:47			0	38820	0	0	0	21807	20390	158829	27576	1054518	46282	108011	0	0	8253	532385	0	0
2024-10-05 14:16:47			0	38821	0	0	0	21807	20400	158729	27428	1054447	46282	108011	0	0	8253	532317	0	0
2024-10-05 14:17:47			0	38788	0	0	0	21807	20390	158841	27279	1054509	46271	108011	0	0	8251	533620	0	0
2024-10-05 14:18:47			0	38756	0	0	0	21812	20400	158869	27298	1054527	46292	108013	0	0	8250	534827	0	0
2024-10-05 14:19:47			0	38751	0	0	0	21799	20390	159025	27457	1054492	46282	108008	0	0	8249	535050	0	0
2024-10-05 14:20:47			0	38715	0	0	0	21807	20400	159080	27672	1054500	46271	108011	0	0	8247	536414	0	0
2024-10-05 14:21:47			0	38711	0	0	0	21802	20400	159052	27737	1054580	46260	108009	0	0	8247	536569	0	0
2024-10-05 14:22:47			0	38728	0	0	0	21807	20390	159057	27569	1054456	46271	108011	0	0	8248	535940	0	0
2024-10-05 14:23:47			0	38753	0	0	0	21802	20390	159009	27642	1054492	46260	108009	0	0	8250	534972	0	0
2024-10-05 14:24:47			0	38741	0	0	0	21805	20390	158921	27583	1054492	46271	108010	0	0	8249	535436	0	0
2024-10-05 14:25:47			0	38744	0	0	0	21805	20380	159025	27357	1054474	46259	108010	0	0	8249	535350	0	0
2024-10-05 14:26:47			0	38728	0	0	0	21807	20390	158953	27317	1054492	46260	108011	0	0	8248	535940	0	0
2024-10-05 14:27:47			0	38717	0	0	0	21799	20390	159104	27230	1054483	46271	108008	0	0	8247	536366	0	0
2024-10-05 14:28:47			0	38669	0	0	0	21789	20380	159272	27592	1054500	46281	108004	0	0	8245	538257	0	0
2024-10-05 14:29:47			0	38674	0	0	0	21799	20390	159228	27454	1054483	46271	108008	0	0	8245	538033	0	0
2024-10-05 14:30:47			0	38659	0	0	0	21792	20390	159328	27433	1054465	46271	108005	0	0	8244	538615	0	0
2024-10-05 14:31:47			0	38659	0	0	0	21805	20380	159312	27713	1054474	46281	108010	0	0	8244	538645	0	0
2024-10-05 14:32:47			0	38644	0	0	0	21810	20380	159292	27350	1054518	46258	108012	0	0	8243	539228	0	0
2024-10-05 14:33:47			0	38648	0	0	0	21794	20390	159356	27585	1054465	46282	108006	0	0	8244	539043	0	0
2024-10-05 14:34:47			0	38649	0	0	0	21797	20380	159476	27763	1054421	46281	108007	0	0	8244	539034	0	0
2024-10-05 14:35:47			0	38632	0	0	0	21802	20390	159452	27647	1054518	46271	108009	0	0	8242	539665	0	0
2024-10-05 14:36:47			0	38637	0	0	0	21799	20380	159524	27734	1054438	46269	108008	0	0	8243	539500	0	0
2024-10-05 14:37:47			0	38639	0	0	0	21810	20380	159432	27343	1054527	46270	108012	0	0	8243	539422	0	0
2024-10-05 14:38:47			0	38628	0	0	0	21802	20380	159340	27492	1054412	46291	108009	0	0	8242	539850	0	0
2024-10-05 14:39:47			0	38645	0	0	0	21799	20370	159332	27374	1054482	46290	108008	0	0	8243	539219	0	0
2024-10-05 14:40:47			0	38658	0	0	0	21799	20380	159308	27390	1054474	46270	108008	0	0	8244	538684	0	0
2024-10-05 14:41:47			0	38648	0	0	0	21799	20370	159408	27743	1054456	46279	108008	0	0	8243	539102	0	0
2024-10-05 14:42:47			0	38654	0	0	0	21799	20380	159308	27564	1054438	46247	108008	0	0	8244	538839	0	0
2024-10-05 14:43:47			0	38639	0	0	0	21805	20380	159456	27412	1054465	46269	108010	0	0	8243	539422	0	0
2024-10-05 14:44:47			0	38647	0	0	0	21802	20380	159580	27374	1054447	46281	108009	0	0	8243	539111	0	0
2024-10-05 14:45:47			0	38643	0	0	0	21799	20370	159432	27379	1054420	46268	108008	0	0	8243	539296	0	0
2024-10-05 14:46:47			0	38659	0	0	0	21794	20380	159392	27462	1054385	46269	108006	0	0	8244	538645	0	0
2024-10-05 14:47:47			0	38646	0	0	0	21797	20380	159372	27327	1054412	46280	108007	0	0	8243	539150	0	0
2024-10-05 14:48:47			0	38653	0	0	0	21799	20380	159360	27301	1054438	46258	108008	0	0	8244	538878	0	0
2024-10-05 14:49:47			0	38658	0	0	0	21799	20380	159372	27343	1054447	46270	108008	0	0	8244	538684	0	0
2024-10-05 14:50:47			0	38668	0	0	0	21797	20380	159356	27400	1054438	46269	108007	0	0	8245	538296	0	0
2024-10-05 14:51:47			0	38671	0	0	0	21802	20370	159292	27391	1054447	46268	108009	0	0	8245	538209	0	0
2024-10-05 14:52:47			0	38662	0	0	0	21802	20380	159292	27076	1054447	46270	108009	0	0	8244	538529	0	0
2024-10-05 14:53:47			0	38667	0	0	0	21794	20380	159360	27417	1054518	46269	108006	0	0	8245	538334	0	0
2024-10-05 14:54:47			0	38670	0	0	0	21797	20380	159212	27353	1054465	46269	108007	0	0	8245	538218	0	0
2024-10-05 14:55:47			0	38693	0	0	0	21807	20370	159244	27338	1054394	46290	108011	0	0	8246	537355	0	0
2024-10-05 14:56:47			0	38663	0	0	0	21792	20380	159228	27414	1054500	46281	108005	0	0	8244	538490	0	0
2024-10-05 14:57:47			0	38689	0	0	0	21802	20380	159200	27618	1054421	46259	108009	0	0	8246	537481	0	0
2024-10-05 14:58:47			0	38700	0	0	0	21797	20380	159164	27298	1054421	46281	108007	0	0	8246	537054	0	0
2024-10-05 14:59:47			0	38713	0	0	0	21805	20380	159056	27485	1054438	46269	108010	0	0	8247	536550	0	0
2024-10-05 15:00:47			0	38691	0	0	0	21805	20380	159088	27679	1054474	46270	108010	0	0	8246	537403	0	0
2024-10-05 15:01:47			0	38726	0	0	0	21799	20380	159117	27194	1054465	46280	108008	0	0	8248	536047	0	0
2024-10-05 15:02:47			0	38715	0	0	0	21805	20370	158968	27422	1054429	46268	108010	0	0	8247	536503	0	0
2024-10-05 15:03:47			0	38743	0	0	0	21807	20370	158997	27528	1054509	46268	108011	0	0	8249	535418	0	0
2024-10-05 15:04:47			0	38747	0	0	0	21794	20380	159005	27635	1054438	46280	108006	0	0	8249	535234	0	0
2024-10-05 15:05:47			0	38734	0	0	0	21810	20380	159113	27611	1054438	46280	108012	0	0	8248	535737	0	0
2024-10-05 15:06:47			0	38744	0	0	0	21807	20370	159173	27514	1054482	46279	108011	0	0	8249	535380	0	0
2024-10-05 15:07:47			0	38710	0	0	0	21805	20370	159128	27374	1054456	46279	108010	0	0	8247	536696	0	0
2024-10-05 15:08:47			0	38732	0	0	0	21799	20380	159037	27341	1054518	46269	108008	0	0	8248	535815	0	0
2024-10-05 15:09:47			0	38723	0	0	0	21794	20380	159060	27462	1054465	46269	108006	0	0	8248	536163	0	0
2024-10-05 15:10:47			0	38735	0	0	0	21802	20380	159029	27644	1054500	46259	108009	0	0	8248	535698	0	0
2024-10-05 15:11:47			0	38731	0	0	0	21799	20380	159125	27493	1054465	46258	108008	0	0	8248	535853	0	0
2024-10-05 15:12:47			0	38771	0	0	0	21799	20390	158925	27232	1054536	46271	108008	0	0	8251	534276	0	0
2024-10-05 15:13:47			0	38798	0	0	0	21802	20380	158737	27410	1054465	46291	108009	0	0	8252	533263	0	0
2024-10-05 15:14:47			0	38811	0	0	0	21802	20380	158773	27710	1054474	46270	108009	0	0	8253	532761	0	0
2024-10-05 15:15:47			0	38826	0	0	0	21802	20390	158709	27592	1054509	46271	108009	0	0	8254	532153	0	0
2024-10-05 15:16:47			0	38808	0	0	0	21805	20370	158761	27639	1054509	46268	108010	0	0	8253	532906	0	0
2024-10-05 15:17:47			0	38804	0	0	0	21799	20380	158753	27571	1054438	46269	108008	0	0	8252	533031	0	0
2024-10-05 15:18:47			0	38821	0	0	0	21799	20380	158773	27777	1054474	46259	108008	0	0	8253	532376	0	0
2024-10-05 15:19:47			0	38810	0	0	0	21805	20380	158749	27599	1054474	46281	108010	0	0	8253	532800	0	0
2024-10-05 15:20:47			0	38795	0	0	0	21797	20380	158789	27530	1054447	46281	108007	0	0	8252	533379	0	0
2024-10-05 15:21:47			0	38796	0	0	0	21805	20380	158737	27343	1054421	46270	108010	0	0	8252	533340	0	0
2024-10-05 15:22:47			0	38825	0	0	0	21802	20380	158765	27498	1054491	46280	108009	0	0	8254	532221	0	0
2024-10-05 15:23:47			0	38802	0	0	0	21802	20370	158717	27282	1054403	46268	108009	0	0	8252	533138	0	0
2024-10-05 15:24:47			0	38833	0	0	0	21797	20370	158713	27351	1054456	46279	108007	0	0	8254	531942	0	0
2024-10-05 15:25:47			0	38811	0	0	0	21797	20380	158765	27334	1054447	46291	108007	0	0	8253	532761	0	0
2024-10-05 15:26:47			0	38821	0	0	0	21797	20380	158693	27538	1054527	46270	108007	0	0	8254	532376	0	0
2024-10-05 15:27:47			0	38848	0	0	0	21794	20370	158693	27202	1054456	46268	108006	0	0	8255	531364	0	0
2024-10-05 15:28:47			0	38856	0	0	0	21799	20380	158489	27253	1054465	46280	108008	0	0	8256	531027	0	0
2024-10-05 15:29:47			0	38898	0	0	0	21794	20380	158421	27336	1054474	46281	108006	0	0	8258	529411	0	0
2024-10-05 15:30:47			0	38920	0	0	0	21792	20370	158305	27507	1054456	46279	108005	0	0	8259	528595	0	0
2024-10-05 15:31:47			0	38912	0	0	0	21794	20370	158361	27479	1054429	46268	108006	0	0	8259	528902	0	0
2024-10-05 15:32:47			0	38952	0	0	0	21792	20370	158297	27568	1054482	46268	108005	0	0	8261	527367	0	0
2024-10-05 15:33:47			0	38952	0	0	0	21797	20380	158193	27369	1054474	46270	108007	0	0	8261	527338	0	0
2024-10-05 15:34:47			0	38958	0	0	0	21802	20370	158057	27462	1054367	46268	108009	0	0	8261	527137	0	0
2024-10-05 15:35:47			0	38973	0	0	0	21794	20370	158137	26981	1054429	46268	108006	0	0	8262	526562	0	0
2024-10-05 15:36:47			0	38967	0	0	0	21797	20370	158225	27507	1054420	46279	108007	0	0	8262	526792	0	0
2024-10-05 15:37:47			0	38966	0	0	0	21797	20370	158161	27206	1054429	46279	108007	0	0	8262	526830	0	0
2024-10-05 15:38:47			0	38947	0	0	0	21792	20370	158121	27516	1054403	46279	108005	0	0	8261	527559	0	0
2024-10-05 15:39:47			0	38945	0	0	0	21794	20380	158193	27473	1054465	46269	108006	0	0	8261	527606	0	0
2024-10-05 15:40:47			0	38940	0	0	0	21797	20370	158309	27369	1054429	46279	108007	0	0	8260	527827	0	0
2024-10-05 15:41:47			0	38905	0	0	0	21789	20380	158325	27483	1054465	46269	108004	0	0	8259	529142	0	0
2024-10-05 15:42:47			0	38881	0	0	0	21802	20370	158413	27187	1054456	46279	108009	0	0	8257	530094	0	0
2024-10-05 15:43:47			0	38862	0	0	0	21792	20380	158493	27355	1054491	46269	108005	0	0	8256	530796	0	0
2024-10-05 15:44:47			0	38847	0	0	0	21794	20370	158497	27750	1054403	46279	108006	0	0	8255	531403	0	0
2024-10-05 15:45:47			0	38842	0	0	0	21792	20370	158553	27376	1054403	46257	108005	0	0	8255	531595	0	0
2024-10-05 15:46:47			0	38845	0	0	0	21797	20370	158585	27152	1054482	46290	108007	0	0	8255	531480	0	0
2024-10-05 15:47:47			0	38824	0	0	0	21789	20370	158637	27542	1054403	46268	108004	0	0	8254	532289	0	0
2024-10-05 15:48:47			0	38832	0	0	0	21794	20370	158653	27602	1054403	46279	108006	0	0	8254	531981	0	0
2024-10-05 15:49:47			0	38830	0	0	0	21799	20370	158605	27206	1054420	46257	108008	0	0	8254	532058	0	0
2024-10-05 15:50:47			0	38831	0	0	0	21799	20370	158637	27640	1054482	46279	108008	0	0	8254	532019	0	0
2024-10-05 15:51:47			0	38855	0	0	0	21802	20370	158553	27367	1054500	46268	108009	0	0	8255	531095	0	0
2024-10-05 15:52:47			0	38867	0	0	0	21797	20380	158497	27654	1054465	46258	108007	0	0	8256	530603	0	0
2024-10-05 15:53:47			0	38887	0	0	0	21797	20370	158501	27237	1054420	46268	108007	0	0	8257	529863	0	0
2024-10-05 15:54:47			0	38887	0	0	0	21802	20380	158409	27476	1054447	46270	108009	0	0	8257	529834	0	0
2024-10-05 15:55:47			0	38895	0	0	0	21786	20370	158417	27495	1054403	46279	108003	0	0	8258	529555	0	0
2024-10-05 15:56:47			0	38910	0	0	0	21794	20370	158381	27576	1054456	46268	108006	0	0	8259	528979	0	0
2024-10-05 15:57:47			0	38910	0	0	0	21789	20370	158421	27493	1054456	46279	108004	0	0	8259	528979	0	0
2024-10-05 15:58:47			0	38927	0	0	0	21797	20370	158301	27557	1054429	46257	108007	0	0	8260	528326	0	0
2024-10-05 15:59:47			0	38913	0	0	0	21797	20370	158357	27763	1054367	46257	108007	0	0	8259	528864	0	0
2024-10-05 16:00:47			0	38904	0	0	0	21786	20370	158313	27649	1054482	46268	108003	0	0	8258	529210	0	0
2024-10-05 16:01:47			0	38901	0	0	0	21802	20370	158457	27918	1054403	46300	108009	0	0	8258	529325	0	0
2024-10-05 16:02:47			0	38897	0	0	0	21797	20370	158553	27691	1054429	46279	108007	0	0	8258	529479	0	0
2024-10-05 16:03:47			0	38880	0	0	0	21799	20380	158493	27592	1054474	46259	108008	0	0	8257	530103	0	0
2024-10-05 16:04:47			0	38872	0	0	0	21792	20370	158577	27788	1054447	46268	108005	0	0	8257	530440	0	0
2024-10-05 16:05:47			0	38865	0	0	0	21799	20360	158589	27692	1054385	46268	108008	0	0	8256	530739	0	0
2024-10-05 16:06:47			0	38865	0	0	0	21781	20370	158461	27616	1054429	46279	108001	0	0	8256	530710	0	0
2024-10-05 16:07:47			0	38886	0	0	0	21779	20370	158537	27765	1054456	46268	108000	0	0	8258	529902	0	0
2024-10-05 16:08:47			0	38892	0	0	0	21724	20370	158509	27760	1054394	46268	107979	0	0	8259	529671	0	0
2024-10-05 16:09:47			0	38880	0	0	0	21714	20360	158501	27646	1054270	46256	107975	0	0	8258	530162	0	0
2024-10-05 16:10:47			0	38859	0	0	0	21724	20340	158537	27542	1054243	46266	107979	0	0	8257	531029	0	0
2024-10-05 16:11:47			0	38866	0	0	0	21753	20330	158657	27256	1054162	46242	107990	0	0	8257	530788	0	0
2024-10-05 16:12:47			0	38825	0	0	0	21766	20330	158645	27511	1054251	46253	107995	0	0	8254	532368	0	0
2024-10-05 16:13:47			0	38803	0	0	0	21781	20320	158685	27422	1054233	46264	108001	0	0	8252	533247	0	0
2024-10-05 16:14:47			0	38798	0	0	0	21784	20330	158789	27540	1054295	46275	108002	0	0	8252	533410	0	0
2024-10-05 16:15:47			0	38783	0	0	0	21786	20340	158813	27248	1054296	46277	108003	0	0	8251	533960	0	0
2024-10-05 16:16:47			0	38778	0	0	0	21779	20360	158841	27244	1054323	46299	108000	0	0	8251	534094	0	0
2024-10-05 16:17:47			0	38780	0	0	0	21789	20340	158937	27582	1054349	46277	108004	0	0	8251	534076	0	0
2024-10-05 16:18:47			0	38780	0	0	0	21792	20350	158873	27450	1054331	46277	108005	0	0	8251	534047	0	0
2024-10-05 16:19:47			0	38769	0	0	0	21789	20340	158941	27390	1054376	46288	108004	0	0	8250	534501	0	0
2024-10-05 16:20:47			0	38757	0	0	0	21786	20360	159001	27253	1054411	46268	108003	0	0	8250	534906	0	0
2024-10-05 16:21:47			0	38783	0	0	0	21784	20360	158981	27512	1054402	46278	108002	0	0	8251	533901	0	0
2024-10-05 16:22:47			0	38759	0	0	0	21776	20350	158965	27258	1054367	46266	107999	0	0	8250	534858	0	0
2024-10-05 16:23:47			0	38783	0	0	0	21768	20360	159013	27422	1054385	46279	107996	0	0	8252	533901	0	0
2024-10-05 16:24:47			0	38770	0	0	0	21774	20360	158897	27083	1054376	46299	107998	0	0	8251	534404	0	0
2024-10-05 16:25:47			0	38762	0	0	0	21776	20350	158829	27447	1054331	46266	107999	0	0	8250	534742	0	0
2024-10-05 16:26:47			0	38764	0	0	0	21774	20350	158837	27583	1054331	46277	107998	0	0	8250	534665	0	0
2024-10-05 16:27:47			0	38784	0	0	0	21781	20370	158841	27552	1054341	46268	108001	0	0	8252	533833	0	0
2024-10-05 16:28:47			0	38775	0	0	0	21771	20350	158817	27220	1054314	46288	107997	0	0	8251	534240	0	0
2024-10-05 16:29:47			0	38750	0	0	0	21761	20350	158857	27154	1054367	46288	107993	0	0	8250	535207	0	0
2024-10-05 16:30:47			0	38739	0	0	0	21755	20350	159061	27315	1054314	46266	107991	0	0	8249	535632	0	0
2024-10-05 16:31:47			0	38729	0	0	0	21766	20350	159005	27203	1054367	46266	107995	0	0	8249	536019	0	0
2024-10-05 16:32:47			0	38707	0	0	0	21761	20340	159148	27339	1054322	46255	107993	0	0	8247	536901	0	0
2024-10-05 16:33:47			0	38725	0	0	0	21763	20350	159137	27438	1054278	46277	107994	0	0	8248	536174	0	0
2024-10-05 16:34:47			0	38693	0	0	0	21753	20330	159188	27424	1054304	46253	107990	0	0	8247	537474	0	0
2024-10-05 16:35:47			0	38683	0	0	0	21763	20340	159348	27194	1054296	46266	107994	0	0	8246	537832	0	0
2024-10-05 16:36:47			0	38658	0	0	0	21753	20340	159372	27576	1054340	46265	107990	0	0	8245	538803	0	0
2024-10-05 16:37:47			0	38637	0	0	0	21750	20360	159420	27547	1054270	46256	107989	0	0	8244	539560	0	0
2024-10-05 16:38:47			0	38630	0	0	0	21742	20340	159432	27270	1054243	46277	107986	0	0	8243	539891	0	0
2024-10-05 16:39:47			0	38638	0	0	0	21748	20350	159480	27272	1054305	46266	107988	0	0	8244	539550	0	0
2024-10-05 16:40:47			0	38610	0	0	0	21753	20330	159468	27338	1054225	46264	107990	0	0	8242	540700	0	0
2024-10-05 16:41:47			0	38628	0	0	0	21761	20320	159380	27493	1054207	46264	107993	0	0	8243	540029	0	0
2024-10-05 16:42:47			0	38642	0	0	0	21753	20330	159416	27312	1054278	46264	107990	0	0	8244	539455	0	0
2024-10-05 16:43:47			0	38626	0	0	0	21750	20330	159340	27225	1054225	46286	107989	0	0	8243	540077	0	0
2024-10-05 16:44:47			0	38635	0	0	0	21758	20330	159432	27123	1054295	46264	107992	0	0	8243	539727	0	0
2024-10-05 16:45:47			0	38625	0	0	0	21755	20330	159452	27140	1054304	46253	107991	0	0	8243	540116	0	0
2024-10-05 16:46:47			0	38611	0	0	0	21771	20330	159512	27303	1054242	46275	107997	0	0	8242	540661	0	0
2024-10-05 16:47:47			0	38629	0	0	0	21768	20330	159544	27190	1054269	46275	107996	0	0	8243	539960	0	0
2024-10-05 16:48:47			0	38631	0	0	0	21771	20330	159500	27324	1054269	46275	107997	0	0	8243	539882	0	0
2024-10-05 16:49:47			0	38630	0	0	0	21776	20330	159600	27490	1054278	46264	107999	0	0	8243	539921	0	0
2024-10-05 16:50:47			0	38632	0	0	0	21771	20340	159560	27383	1054233	46297	107997	0	0	8243	539814	0	0
2024-10-05 16:51:47			0	38623	0	0	0	21768	20320	159488	27050	1054260	46286	107996	0	0	8242	540223	0	0
2024-10-05 16:52:47			0	38637	0	0	0	21768	20330	159408	27502	1054295	46264	107996	0	0	8243	539649	0	0
2024-10-05 16:53:47			0	38636	0	0	0	21768	20340	159408	27218	1054349	46266	107996	0	0	8243	539658	0	0
2024-10-05 16:54:47			0	38634	0	0	0	21768	20340	159488	27383	1054269	46266	107996	0	0	8243	539736	0	0
2024-10-05 16:55:47			0	38628	0	0	0	21766	20330	159556	27351	1054304	46264	107995	0	0	8243	539999	0	0
2024-10-05 16:56:47			0	38634	0	0	0	21771	20340	159488	27301	1054349	46255	107997	0	0	8243	539736	0	0
2024-10-05 16:57:47			0	38637	0	0	0	21768	20330	159444	27694	1054278	46275	107996	0	0	8243	539649	0	0
2024-10-05 16:58:47			0	38636	0	0	0	21771	20330	159440	27182	1054251	46275	107997	0	0	8243	539688	0	0
2024-10-05 16:59:47			0	38629	0	0	0	21774	20330	159512	27473	1054304	46275	107998	0	0	8243	539960	0	0
2024-10-05 17:00:47			0	38631	0	0	0	21768	20330	159516	27429	1054278	46264	107996	0	0	8243	539882	0	0
2024-10-05 17:01:47			0	38639	0	0	0	21771	20330	159380	27033	1054304	46264	107997	0	0	8243	539571	0	0
2024-10-05 17:02:47			0	38626	0	0	0	21755	20330	159508	27220	1054322	46275	107991	0	0	8243	540077	0	0
2024-10-05 17:03:47			0	38627	0	0	0	21750	20330	159456	27189	1054251	46275	107989	0	0	8243	540038	0	0
2024-10-05 17:04:47			0	38630	0	0	0	21748	20330	159544	27244	1054242	46253	107988	0	0	8243	539921	0	0
2024-10-05 17:05:47			0	38623	0	0	0	21750	20320	159500	27196	1054198	46263	107989	0	0	8243	540223	0	0
2024-10-05 17:06:47			0	38624	0	0	0	21748	20320	159452	27353	1054233	46253	107988	0	0	8243	540184	0	0
2024-10-05 17:07:47			0	38619	0	0	0	21768	20320	159608	27244	1054224	46252	107996	0	0	8242	540379	0	0
2024-10-05 17:08:47			0	38635	0	0	0	21771	20320	159444	27540	1054233	46275	107997	0	0	8243	539757	0	0
2024-10-05 17:09:47			0	38630	0	0	0	21784	20330	159444	27384	1054242	46264	108002	0	0	8242	539921	0	0
2024-10-05 17:10:47			0	38614	0	0	0	21774	20330	159500	27582	1054242	46275	107998	0	0	8242	540544	0	0
2024-10-05 17:11:47			0	38615	0	0	0	21776	20320	159488	27201	1054313	46253	107999	0	0	8242	540535	0	0
2024-10-05 17:12:47			0	38635	0	0	0	21779	20330	159552	27431	1054269	46275	108000	0	0	8243	539727	0	0
2024-10-05 17:13:47			0	38631	0	0	0	21781	20330	159580	27616	1054242	46286	108001	0	0	8243	539882	0	0
2024-10-05 17:14:47			0	38628	0	0	0	21784	20330	159576	27050	1054278	46275	108002	0	0	8242	539999	0	0
2024-10-05 17:15:47			0	38639	0	0	0	21779	20330	159424	27166	1054322	46264	108000	0	0	8243	539571	0	0
2024-10-05 17:16:47			0	38632	0	0	0	21776	20340	159492	26979	1054322	46288	107999	0	0	8243	539814	0	0
2024-10-05 17:17:47			0	38626	0	0	0	21784	20340	159516	27220	1054322	46277	108002	0	0	8242	540047	0	0
2024-10-05 17:18:47			0	38608	0	0	0	21779	20340	159572	27511	1054349	46277	108000	0	0	8241	540748	0	0
2024-10-05 17:19:47			0	38629	0	0	0	21781	20340	159564	27041	1054313	46287	108001	0	0	8242	539930	0	0
2024-10-05 17:20:47			0	38615	0	0	0	21779	20350	159556	26882	1054358	46266	108000	0	0	8242	540445	0	0
2024-10-05 17:21:47			0	38610	0	0	0	21786	20340	159492	27201	1054287	46265	108003	0	0	8241	540670	0	0
2024-10-05 17:22:47			0	38602	0	0	0	21784	20340	159508	27393	1054349	46266	108002	0	0	8241	540981	0	0
2024-10-05 17:23:47			0	38630	0	0	0	21771	20340	159512	27322	1054313	46276	107997	0	0	8243	539891	0	0
2024-10-05 17:24:47			0	38608	0	0	0	21779	20350	159372	27345	1054367	46266	108000	0	0	8241	540718	0	0
2024-10-05 17:25:47			0	38623	0	0	0	21792	20350	159400	27294	1054394	46277	108005	0	0	8242	540134	0	0
2024-10-05 17:26:47			0	38627	0	0	0	21786	20340	159412	27241	1054322	46288	108003	0	0	8242	540008	0	0
2024-10-05 17:27:47			0	38621	0	0	0	21789	20340	159444	27339	1054402	46277	108004	0	0	8242	540242	0	0
2024-10-05 17:28:47			0	38588	0	0	0	21794	20360	159524	27133	1054349	46278	108006	0	0	8240	541467	0	0
2024-10-05 17:29:47			0	38609	0	0	0	21794	20340	159560	27348	1054322	46266	108006	0	0	8241	540709	0	0
2024-10-05 17:30:47			0	38600	0	0	0	21786	20340	159496	27440	1054340	46276	108003	0	0	8241	541059	0	0
2024-10-05 17:31:47			0	38607	0	0	0	21792	20350	159504	27258	1054367	46266	108005	0	0	8241	540757	0	0
2024-10-05 17:32:47			0	38600	0	0	0	21792	20350	159528	27348	1054420	46255	108005	0	0	8241	541029	0	0
2024-10-05 17:33:47			0	38619	0	0	0	21784	20350	159396	27609	1054367	46288	108002	0	0	8242	540290	0	0
2024-10-05 17:34:47			0	38609	0	0	0	21794	20340	159512	27310	1054376	46266	108006	0	0	8241	540709	0	0
2024-10-05 17:35:47			0	38594	0	0	0	21797	20360	159580	27312	1054376	46299	108007	0	0	8240	541233	0	0
2024-10-05 17:36:47			0	38597	0	0	0	21797	20360	159556	27235	1054438	46268	108007	0	0	8240	541116	0	0
2024-10-05 17:37:47			0	38594	0	0	0	21792	20360	159552	27244	1054429	46278	108005	0	0	8240	541233	0	0
2024-10-05 17:38:47			0	38577	0	0	0	21807	20350	159592	27391	1054358	46266	108011	0	0	8239	541925	0	0
2024-10-05 17:39:47			0	38593	0	0	0	21792	20350	159608	27519	1054447	46255	108005	0	0	8240	541302	0	0
2024-10-05 17:40:47			0	38594	0	0	0	21805	20360	159692	27270	1054438	46279	108010	0	0	8240	541233	0	0
2024-10-05 17:41:47			0	38595	0	0	0	21794	20370	159616	27268	1054509	46268	108006	0	0	8240	541164	0	0
2024-10-05 17:42:47			0	38579	0	0	0	21797	20360	159508	27045	1054411	46279	108007	0	0	8239	541818	0	0
2024-10-05 17:43:47			0	38583	0	0	0	21786	20370	159604	27370	1054394	46290	108003	0	0	8240	541632	0	0
2024-10-05 17:44:47			0	38590	0	0	0	21792	20360	159592	27294	1054349	46256	108005	0	0	8240	541389	0	0
2024-10-05 17:45:47			0	38603	0	0	0	21792	20370	159620	27248	1054447	46268	108005	0	0	8241	540853	0	0
2024-10-05 17:46:47			0	38604	0	0	0	21794	20360	159604	27360	1054358	46279	108006	0	0	8241	540844	0	0
2024-10-05 17:47:47			0	38584	0	0	0	21794	20370	159512	27183	1054447	46268	108006	0	0	8240	541593	0	0
2024-10-05 17:48:47			0	38580	0	0	0	21781	20370	159560	27287	1054447	46279	108001	0	0	8240	541749	0	0
2024-10-05 17:49:47			0	38574	0	0	0	21789	20360	159528	27455	1054385	46268	108004	0	0	8239	542012	0	0
2024-10-05 17:50:47			0	38597	0	0	0	21792	20350	159524	27137	1054340	46266	108005	0	0	8240	541146	0	0
2024-10-05 17:51:47			0	38596	0	0	0	21797	20350	159520	27873	1054385	46266	108007	0	0	8240	541185	0	0
2024-10-05 17:52:47			0	38601	0	0	0	21797	20360	159576	27303	1054402	46267	108007	0	0	8241	540960	0	0
2024-10-05 17:53:47			0	38585	0	0	0	21792	20360	159612	27630	1054465	46268	108005	0	0	8240	541584	0	0
2024-10-05 17:54:47			0	38604	0	0	0	21794	20360	159656	27410	1054438	46290	108006	0	0	8241	540844	0	0
2024-10-05 17:55:47			0	38588	0	0	0	21789	20360	159632	27608	1054438	46279	108004	0	0	8240	541467	0	0
2024-10-05 17:56:47			0	38599	0	0	0	21789	20350	159600	27187	1054420	46277	108004	0	0	8241	541068	0	0
2024-10-05 17:57:47			0	38601	0	0	0	21789	20360	159560	27448	1054411	46279	108004	0	0	8241	540960	0	0
2024-10-05 17:58:47			0	38595	0	0	0	21786	20350	159668	27331	1054394	46266	108003	0	0	8240	541224	0	0
2024-10-05 17:59:47			0	38598	0	0	0	21789	20360	159580	27495	1054358	46279	108004	0	0	8241	541077	0	0
2024-10-05 18:00:47			0	38608	0	0	0	21786	20360	159508	27339	1054376	46278	108003	0	0	8241	540688	0	0
2024-10-05 18:01:47			0	38578	0	0	0	21797	20360	159572	27144	1054402	46278	108007	0	0	8239	541856	0	0
2024-10-05 18:02:47			0	38590	0	0	0	21789	20350	159796	27149	1054385	46277	108004	0	0	8240	541419	0	0
2024-10-05 18:03:47			0	38608	0	0	0	21781	20350	159580	27267	1054411	46266	108001	0	0	8241	540718	0	0
2024-10-05 18:04:47			0	38590	0	0	0	21771	20360	159572	27357	1054323	46278	107997	0	0	8240	541389	0	0
2024-10-05 18:05:47			0	38596	0	0	0	21781	20350	159624	27239	1054340	46266	108001	0	0	8241	541185	0	0
2024-10-05 18:06:47			0	38612	0	0	0	21786	20360	159516	26942	1054296	46278	108003	0	0	8241	540532	0	0
2024-10-05 18:07:47			0	38592	0	0	0	21789	20350	159528	27216	1054331	46277	108004	0	0	8240	541341	0	0
2024-10-05 18:08:47			0	38596	0	0	0	21786	20350	159536	27476	1054367	46277	108003	0	0	8240	541185	0	0
2024-10-05 18:09:47			0	38596	0	0	0	21779	20350	159624	27379	1054358	46288	108000	0	0	8241	541185	0	0
2024-10-05 18:10:47			0	38608	0	0	0	21779	20360	159508	27421	1054376	46278	108000	0	0	8241	540688	0	0
2024-10-05 18:11:47			0	38613	0	0	0	21786	20350	159476	27339	1054367	46277	108003	0	0	8241	540523	0	0
2024-10-05 18:12:47			0	38614	0	0	0	21781	20360	159556	26946	1054376	46267	108001	0	0	8242	540454	0	0
2024-10-05 18:13:47			0	38617	0	0	0	21786	20350	159520	27218	1054358	46266	108003	0	0	8242	540367	0	0
2024-10-05 18:14:47			0	38607	0	0	0	21789	20350	159592	26913	1054385	46288	108004	0	0	8241	540757	0	0
2024-10-05 18:15:47			0	38607	0	0	0	21781	20360	159468	27164	1054402	46278	108001	0	0	8241	540727	0	0
2024-10-05 18:16:47			0	38619	0	0	0	21774	20350	159508	27216	1054340	46288	107998	0	0	8242	540290	0	0
2024-10-05 18:17:47			0	38622	0	0	0	21779	20340	159500	27190	1054349	46288	108000	0	0	8242	540203	0	0
2024-10-05 18:18:47			0	38602	0	0	0	21786	20350	159420	27386	1054367	46288	108003	0	0	8241	540951	0	0
2024-10-05 18:19:47			0	38615	0	0	0	21774	20350	159472	27128	1054367	46277	107998	0	0	8242	540445	0	0
2024-10-05 18:20:47			0	38612	0	0	0	21771	20360	159420	27383	1054349	46256	107997	0	0	8242	540532	0	0
2024-10-05 18:21:47			0	38619	0	0	0	21755	20350	159372	27244	1054385	46255	107991	0	0	8242	540290	0	0
2024-10-05 18:22:47			0	38633	0	0	0	21761	20350	159456	27227	1054340	46277	107993	0	0	8243	539745	0	0
2024-10-05 18:23:47			0	38633	0	0	0	21758	20330	159400	27145	1054278	46264	107992	0	0	8243	539805	0	0
2024-10-05 18:24:47			0	38626	0	0	0	21755	20330	159480	27467	1054269	46275	107991	0	0	8243	540077	0	0
2024-10-05 18:25:47			0	38632	0	0	0	21755	20340	159432	27332	1054233	46265	107991	0	0	8243	539814	0	0
2024-10-05 18:26:47			0	38638	0	0	0	21758	20350	159508	27282	1054278	46266	107992	0	0	8243	539550	0	0
2024-10-05 18:27:47			0	38630	0	0	0	21748	20330	159424	27412	1054225	46275	107988	0	0	8243	539921	0	0
2024-10-05 18:28:47			0	38639	0	0	0	21758	20320	159424	27204	1054260	46264	107992	0	0	8243	539601	0	0
2024-10-05 18:29:47			0	38657	0	0	0	21748	20330	159440	27145	1054295	46264	107988	0	0	8245	538872	0	0
2024-10-05 18:30:47			0	38632	0	0	0	21748	20330	159424	27232	1054251	46264	107988	0	0	8243	539843	0	0
2024-10-05 18:31:47			0	38636	0	0	0	21750	20330	159380	27157	1054251	46275	107989	0	0	8243	539688	0	0
2024-10-05 18:32:47			0	38641	0	0	0	21748	20330	159448	27215	1054251	46264	107988	0	0	8244	539494	0	0
2024-10-05 18:33:47			0	38641	0	0	0	21753	20330	159420	27248	1054295	46275	107990	0	0	8244	539494	0	0
2024-10-05 18:34:47			0	38651	0	0	0	21737	20330	159416	27178	1054242	46264	107984	0	0	8244	539105	0	0
2024-10-05 18:35:47			0	38634	0	0	0	21750	20330	159504	27206	1054269	46264	107989	0	0	8243	539766	0	0
2024-10-05 18:36:47			0	38631	0	0	0	21750	20320	159468	26949	1054286	46264	107989	0	0	8243	539912	0	0
2024-10-05 18:37:47			0	38634	0	0	0	21758	20320	159456	27142	1054233	46286	107992	0	0	8243	539796	0	0
2024-10-05 18:38:47			0	38642	0	0	0	21755	20330	159428	26759	1054189	46264	107991	0	0	8244	539455	0	0
2024-10-05 18:39:47			0	38623	0	0	0	21761	20320	159456	27166	1054233	46275	107993	0	0	8242	540223	0	0
2024-10-05 18:40:47			0	38620	0	0	0	21755	20320	159604	27007	1054260	46253	107991	0	0	8242	540340	0	0
2024-10-05 18:41:47			0	38593	0	0	0	21766	20330	159540	27059	1054242	46275	107995	0	0	8241	541362	0	0
2024-10-05 18:42:47			0	38585	0	0	0	21758	20320	159680	27372	1054233	46264	107992	0	0	8240	541703	0	0
2024-10-05 18:43:47			0	38592	0	0	0	21761	20330	159716	27092	1054251	46275	107993	0	0	8241	541401	0	0
2024-10-05 18:44:47			0	38583	0	0	0	21755	20320	159640	27372	1054233	46296	107991	0	0	8240	541781	0	0
2024-10-05 18:45:47			0	38585	0	0	0	21758	20320	159640	27144	1054233	46264	107992	0	0	8240	541703	0	0
2024-10-05 18:46:47			0	38579	0	0	0	21761	20310	159692	27072	1054242	46273	107993	0	0	8240	541967	0	0
2024-10-05 18:47:47			0	38580	0	0	0	21750	20330	159728	27433	1054295	46286	107989	0	0	8240	541868	0	0
2024-10-05 18:48:47			0	38560	0	0	0	21750	20320	159720	27005	1054224	46274	107989	0	0	8239	542678	0	0
2024-10-05 18:49:47			0	38568	0	0	0	21748	20320	159708	27211	1054251	46263	107988	0	0	8239	542366	0	0
2024-10-05 18:50:47			0	38577	0	0	0	21745	20320	159728	27046	1054251	46263	107987	0	0	8240	542015	0	0
2024-10-05 18:51:47			0	38566	0	0	0	21740	20310	159680	27211	1054269	46273	107985	0	0	8239	542474	0	0
2024-10-05 18:52:47			0	38545	0	0	0	21750	20320	159672	27369	1054145	46274	107989	0	0	8238	543264	0	0
2024-10-05 18:53:47			0	38553	0	0	0	21753	20320	159744	27060	1054251	46274	107990	0	0	8238	542951	0	0
2024-10-05 18:54:47			0	38551	0	0	0	21740	20320	159796	27159	1054224	46263	107985	0	0	8238	543030	0	0
2024-10-05 18:55:47			0	38556	0	0	0	21737	20310	159808	27303	1054206	46261	107984	0	0	8239	542864	0	0
2024-10-05 18:56:47			0	38541	0	0	0	21735	20310	159916	27436	1054206	46250	107983	0	0	8238	543450	0	0
2024-10-05 18:57:47			0	38562	0	0	0	21742	20310	159944	27365	1054215	46284	107986	0	0	8239	542630	0	0
2024-10-05 18:58:47			0	38517	0	0	0	21737	20310	159848	27582	1054162	46262	107984	0	0	8237	544388	0	0
2024-10-05 18:59:47			0	38524	0	0	0	21740	20310	159852	27201	1054233	46283	107985	0	0	8237	544114	0	0
2024-10-05 19:00:47			0	38506	0	0	0	21750	20310	159928	27317	1054233	46261	107989	0	0	8236	544818	0	0
2024-10-05 19:01:47			0	38519	0	0	0	21755	20320	159928	26944	1054251	46263	107991	0	0	8236	544279	0	0
2024-10-05 19:02:47			0	38493	0	0	0	21753	20320	160000	27187	1054198	46285	107990	0	0	8235	545296	0	0
2024-10-05 19:03:47			0	38506	0	0	0	21758	20310	160024	27097	1054215	46294	107992	0	0	8236	544818	0	0
2024-10-05 19:04:47			0	38498	0	0	0	21755	20310	159992	27190	1054233	46293	107991	0	0	8235	545131	0	0
2024-10-05 19:05:47			0	38494	0	0	0	21750	20320	159964	26928	1054224	46274	107989	0	0	8235	545257	0	0
2024-10-05 19:06:47			0	38495	0	0	0	21761	20320	160212	27022	1054251	46263	107993	0	0	8235	545218	0	0
2024-10-05 19:07:47			0	38487	0	0	0	21761	20310	160132	27319	1054189	46284	107993	0	0	8234	545561	0	0
2024-10-05 19:08:47			0	38488	0	0	0	21753	20320	160120	26953	1054251	46263	107990	0	0	8235	545492	0	0
2024-10-05 19:09:47			0	38490	0	0	0	21748	20330	160072	27109	1054269	46264	107988	0	0	8235	545384	0	0
2024-10-05 19:10:47			0	38476	0	0	0	21745	20320	160012	27242	1054286	46275	107987	0	0	8234	545962	0	0
2024-10-05 19:11:47			0	38477	0	0	0	21732	20330	160172	26937	1054269	46264	107982	0	0	8234	545893	0	0
2024-10-05 19:12:47			0	38472	0	0	0	21740	20320	160160	27192	1054224	46274	107985	0	0	8234	546119	0	0
2024-10-05 19:13:47			0	38467	0	0	0	21735	20320	160104	27147	1054277	46252	107983	0	0	8234	546314	0	0
2024-10-05 19:14:47			0	38465	0	0	0	21742	20320	160252	27289	1054198	46274	107986	0	0	8233	546393	0	0
2024-10-05 19:15:47			0	38456	0	0	0	21740	20310	160284	27358	1054180	46261	107985	0	0	8233	546776	0	0
2024-10-05 19:16:47			0	38453	0	0	0	21737	20310	160320	27332	1054215	46262	107984	0	0	8233	546893	0	0
2024-10-05 19:17:47			0	38463	0	0	0	21732	20310	160276	27001	1054162	46273	107982	0	0	8233	546501	0	0
2024-10-05 19:18:47			0	38461	0	0	0	21727	20310	160260	27156	1054153	46261	107980	0	0	8233	546580	0	0
2024-10-05 19:19:47			0	38444	0	0	0	21716	20300	160264	27159	1054224	46250	107976	0	0	8233	547276	0	0
2024-10-05 19:20:47			0	38454	0	0	0	21727	20320	160208	27331	1054251	46263	107980	0	0	8233	546824	0	0
2024-10-05 19:21:47			0	38441	0	0	0	21727	20310	160268	27248	1054153	46250	107980	0	0	8232	547364	0	0
2024-10-05 19:22:47			0	38458	0	0	0	21727	20310	160292	27371	1054153	46261	107980	0	0	8233	546697	0	0
2024-10-05 19:23:47			0	38442	0	0	0	21732	20300	160264	27230	1054056	46261	107982	0	0	8232	547355	0	0
2024-10-05 19:24:47			0	38463	0	0	0	21722	20300	160268	27277	1054198	46261	107978	0	0	8234	546532	0	0
2024-10-05 19:25:47			0	38452	0	0	0	21722	20300	160288	27022	1054118	46261	107978	0	0	8233	546963	0	0
2024-10-05 19:26:47			0	38451	0	0	0	21722	20300	160276	27298	1054162	46261	107978	0	0	8233	547002	0	0
2024-10-05 19:27:47			0	38438	0	0	0	21709	20300	160280	27435	1054144	46239	107973	0	0	8232	547512	0	0
2024-10-05 19:28:47			0	38442	0	0	0	21706	20300	160312	27523	1054109	46261	107972	0	0	8233	547355	0	0
2024-10-05 19:29:47			0	38438	0	0	0	21714	20290	160328	26970	1054064	46249	107975	0	0	8232	547542	0	0
2024-10-05 19:30:47			0	38415	0	0	0	21716	20290	160332	26935	1054073	46260	107976	0	0	8231	548445	0	0
2024-10-05 19:31:47			0	38428	0	0	0	21722	20290	160252	27353	1054100	46260	107978	0	0	8231	547935	0	0
2024-10-05 19:32:47			0	38433	0	0	0	21724	20300	160244	27147	1054144	46239	107979	0	0	8232	547708	0	0
2024-10-05 19:33:47			0	38420	0	0	0	21722	20290	160348	27029	1054153	46271	107978	0	0	8231	548249	0	0
2024-10-05 19:34:47			0	38423	0	0	0	21737	20290	160296	27457	1054153	46271	107984	0	0	8231	548131	0	0
2024-10-05 19:35:47			0	38415	0	0	0	21729	20290	160336	27438	1054126	46271	107981	0	0	8231	548445	0	0
2024-10-05 19:36:47			0	38423	0	0	0	21722	20290	160396	27189	1054153	46271	107978	0	0	8231	548131	0	0
2024-10-05 19:37:47			0	38424	0	0	0	21732	20290	160484	27213	1054126	46271	107982	0	0	8231	548092	0	0
2024-10-05 19:38:47			0	38410	0	0	0	21732	20300	160452	27102	1054135	46261	107982	0	0	8230	548611	0	0
2024-10-05 19:39:47			0	38421	0	0	0	21719	20290	160432	27140	1054153	46260	107977	0	0	8231	548209	0	0
2024-10-05 19:40:47			0	38416	0	0	0	21735	20290	160488	27078	1054206	46271	107983	0	0	8231	548406	0	0
2024-10-05 19:41:47			0	38384	0	0	0	21724	20300	160456	27227	1054091	46250	107979	0	0	8229	549633	0	0
2024-10-05 19:42:47			0	38385	0	0	0	21735	20310	160452	27204	1054233	46261	107983	0	0	8229	549563	0	0
2024-10-05 19:43:47			0	38406	0	0	0	21742	20310	160488	27613	1054206	46261	107986	0	0	8230	548738	0	0
2024-10-05 19:44:47			0	38394	0	0	0	21737	20300	160524	27559	1054144	46261	107984	0	0	8229	549240	0	0
2024-10-05 19:45:47			0	38384	0	0	0	21724	20300	160532	26911	1054135	46261	107979	0	0	8229	549633	0	0
2024-10-05 19:46:47			0	38399	0	0	0	21735	20300	160568	27001	1054162	46272	107983	0	0	8230	549043	0	0
2024-10-05 19:47:47			0	38386	0	0	0	21727	20300	160600	27147	1054198	46250	107980	0	0	8229	549554	0	0
2024-10-05 19:48:47			0	38396	0	0	0	21735	20300	160516	26915	1054171	46261	107983	0	0	8229	549161	0	0
2024-10-05 19:49:47			0	38387	0	0	0	21732	20300	160592	27109	1054144	46261	107982	0	0	8229	549515	0	0
2024-10-05 19:50:47			0	38365	0	0	0	21735	20300	160548	27277	1054171	46272	107983	0	0	8228	550380	0	0
2024-10-05 19:51:47			0	38373	0	0	0	21740	20310	160648	27041	1054153	46261	107985	0	0	8228	550035	0	0
2024-10-05 19:52:47			0	38360	0	0	0	21716	20300	160616	27064	1054109	46283	107976	0	0	8228	550577	0	0
2024-10-05 19:53:47			0	38356	0	0	0	21719	20300	160608	26897	1054162	46272	107977	0	0	8227	550735	0	0
2024-10-05 19:54:47			0	38351	0	0	0	21709	20300	160668	27291	1054144	46250	107973	0	0	8227	550932	0	0
2024-10-05 19:55:47			0	38353	0	0	0	21714	20300	160668	27137	1054144	46272	107975	0	0	8227	550853	0	0
2024-10-05 19:56:47			0	38320	0	0	0	21711	20300	160668	27265	1054118	46261	107974	0	0	8225	552153	0	0
2024-10-05 19:57:47			0	38336	0	0	0	21714	20290	160748	27034	1054064	46259	107975	0	0	8226	551553	0	0
2024-10-05 19:58:47			0	38340	0	0	0	21716	20290	160696	27090	1054171	46281	107976	0	0	8226	551395	0	0
2024-10-05 19:59:47			0	38322	0	0	0	21714	20300	160836	27256	1054162	46272	107975	0	0	8225	552075	0	0
2024-10-05 20:00:47			0	38324	0	0	0	21716	20290	160900	27261	1054126	46260	107976	0	0	8225	552026	0	0
2024-10-05 20:01:47			0	38309	0	0	0	21716	20300	160836	27118	1054109	46272	107976	0	0	8225	552587	0	0
2024-10-05 20:02:47			0	38305	0	0	0	21709	20290	160860	26955	1054144	46270	107973	0	0	8224	552776	0	0
2024-10-05 20:03:47			0	38299	0	0	0	21698	20290	160932	27067	1054091	46270	107969	0	0	8224	553012	0	0
2024-10-05 20:04:47			0	38298	0	0	0	21696	20290	160828	27138	1054100	46271	107968	0	0	8224	553052	0	0
2024-10-05 20:05:47			0	38291	0	0	0	21711	20280	160920	27248	1054029	46259	107974	0	0	8224	553359	0	0
2024-10-05 20:06:47			0	38272	0	0	0	21696	20280	160892	27130	1054082	46259	107968	0	0	8223	554110	0	0
2024-10-05 20:07:47			0	38284	0	0	0	21709	20290	160900	27272	1054091	46270	107973	0	0	8223	553605	0	0
2024-10-05 20:08:47			0	38284	0	0	0	21709	20280	160960	27284	1054002	46270	107973	0	0	8223	553635	0	0
2024-10-05 20:09:47			0	38285	0	0	0	21714	20280	160964	26804	1054029	46281	107975	0	0	8223	553596	0	0
2024-10-05 20:10:47			0	38295	0	0	0	21711	20280	160984	26908	1054082	46270	107974	0	0	8224	553201	0	0
2024-10-05 20:11:47			0	38324	0	0	0	21709	20290	160908	27308	1054038	46259	107973	0	0	8226	552026	0	0
2024-10-05 20:12:47			0	38313	0	0	0	21714	20270	160836	27177	1054064	46291	107975	0	0	8225	552521	0	0
2024-10-05 20:13:47			0	38319	0	0	0	21706	20280	160752	26798	1054082	46259	107972	0	0	8225	552254	0	0
2024-10-05 20:14:47			0	38340	0	0	0	21701	20280	160684	26823	1054082	46259	107970	0	0	8227	551426	0	0
2024-10-05 20:15:47			0	38333	0	0	0	21706	20270	160664	27163	1053984	46258	107972	0	0	8226	551732	0	0
2024-10-05 20:16:47			0	38337	0	0	0	21703	20280	160720	26904	1054082	46249	107971	0	0	8226	551544	0	0
2024-10-05 20:17:47			0	38339	0	0	0	21706	20290	160748	26981	1054011	46281	107972	0	0	8227	551435	0	0
2024-10-05 20:18:47			0	38337	0	0	0	21698	20280	160640	26755	1053949	46259	107969	0	0	8227	551544	0	0
2024-10-05 20:19:47			0	38328	0	0	0	21688	20280	160684	27395	1054002	46270	107965	0	0	8226	551899	0	0
2024-10-05 20:20:47			0	38317	0	0	0	21696	20270	160720	27069	1054002	46268	107968	0	0	8225	552363	0	0
2024-10-05 20:21:47			0	38330	0	0	0	21698	20280	160728	26852	1054073	46270	107969	0	0	8226	551820	0	0
2024-10-05 20:22:47			0	38332	0	0	0	21696	20280	160716	26944	1054046	46249	107968	0	0	8226	551741	0	0
2024-10-05 20:23:47			0	38301	0	0	0	21680	20280	160748	27048	1054055	46259	107962	0	0	8225	552964	0	0
2024-10-05 20:24:47			0	38308	0	0	0	21696	20270	160792	27024	1053984	46258	107968	0	0	8225	552718	0	0
2024-10-05 20:25:47			0	38309	0	0	0	21690	20270	160816	26802	1053984	46258	107966	0	0	8225	552679	0	0
2024-10-05 20:26:47			0	38314	0	0	0	21698	20270	160820	27140	1054011	46280	107969	0	0	8225	552482	0	0
2024-10-05 20:27:47			0	38320	0	0	0	21693	20270	160816	27142	1054029	46268	107967	0	0	8226	552245	0	0
2024-10-05 20:28:47			0	38319	0	0	0	21696	20280	160728	26901	1053967	46259	107968	0	0	8225	552254	0	0
2024-10-05 20:29:47			0	38329	0	0	0	21696	20270	160808	27149	1053984	46258	107968	0	0	8226	551890	0	0
2024-10-05 20:30:47			0	38315	0	0	0	21701	20280	160820	26811	1053993	46249	107970	0	0	8225	552412	0	0
2024-10-05 20:31:47			0	38332	0	0	0	21688	20260	160752	26968	1054046	46257	107965	0	0	8226	551802	0	0
2024-10-05 20:32:47			0	38319	0	0	0	21693	20270	160748	27066	1054038	46269	107967	0	0	8225	552284	0	0
2024-10-05 20:33:47			0	38326	0	0	0	21688	20270	160784	27431	1054038	46258	107965	0	0	8226	552008	0	0
2024-10-05 20:34:47			0	38325	0	0	0	21680	20270	160864	26965	1054002	46257	107962	0	0	8226	552048	0	0
2024-10-05 20:35:47			0	38308	0	0	0	21677	20260	160736	27320	1054037	46257	107961	0	0	8225	552749	0	0
2024-10-05 20:36:47			0	38312	0	0	0	21688	20260	160696	27481	1053967	46246	107965	0	0	8225	552591	0	0
2024-10-05 20:37:47			0	38320	0	0	0	21683	20260	160816	27175	1053931	46257	107963	0	0	8226	552275	0	0
2024-10-05 20:38:47			0	38328	0	0	0	21680	20270	160764	27130	1054002	46257	107962	0	0	8226	551929	0	0
2024-10-05 20:39:47			0	38317	0	0	0	21685	20260	160792	27307	1053967	46268	107964	0	0	8225	552394	0	0
2024-10-05 20:40:47			0	38323	0	0	0	21683	20260	160840	27237	1054020	46257	107963	0	0	8226	552157	0	0
2024-10-05 20:41:47			0	38316	0	0	0	21685	20260	160812	27471	1053967	46257	107964	0	0	8225	552433	0	0
2024-10-05 20:42:47			0	38313	0	0	0	21680	20260	160812	27265	1053940	46257	107962	0	0	8225	552552	0	0
2024-10-05 20:43:47			0	38311	0	0	0	21685	20260	160916	26949	1053931	46246	107964	0	0	8225	552630	0	0
2024-10-05 20:44:47			0	38322	0	0	0	21680	20260	160828	27222	1054020	46268	107962	0	0	8226	552197	0	0
2024-10-05 20:45:47			0	38297	0	0	0	21680	20260	160840	26972	1053984	46257	107962	0	0	8224	553183	0	0
2024-10-05 20:46:47			0	38311	0	0	0	21675	20240	160836	27102	1053913	46244	107960	0	0	8225	552691	0	0
2024-10-05 20:47:47			0	38305	0	0	0	21675	20250	160888	27374	1054002	46256	107960	0	0	8225	552898	0	0
2024-10-05 20:48:47			0	38303	0	0	0	21662	20260	160992	27284	1053904	46257	107955	0	0	8225	552946	0	0
2024-10-05 20:49:47			0	38293	0	0	0	21664	20260	160944	27464	1053940	46257	107956	0	0	8224	553341	0	0
2024-10-05 20:50:47			0	38302	0	0	0	21670	20250	160904	27275	1053895	46256	107958	0	0	8225	553016	0	0
2024-10-05 20:51:47			0	38281	0	0	0	21670	20260	160812	27424	1053887	46279	107958	0	0	8224	553815	0	0
2024-10-05 20:52:47			0	38313	0	0	0	21672	20250	160892	26961	1053895	46245	107959	0	0	8225	552582	0	0
2024-10-05 20:53:47			0	38300	0	0	0	21667	20250	160908	27280	1053895	46267	107957	0	0	8225	553095	0	0
2024-10-05 20:54:47			0	38306	0	0	0	21667	20250	160844	27145	1053895	46256	107957	0	0	8225	552858	0	0
2024-10-05 20:55:47			0	38299	0	0	0	21670	20250	160840	27194	1053922	46256	107958	0	0	8225	553135	0	0
2024-10-05 20:56:47			0	38289	0	0	0	21670	20260	160824	27083	1053931	46257	107958	0	0	8224	553499	0	0
2024-10-05 20:57:47			0	38282	0	0	0	21662	20240	160780	27156	1053878	46265	107955	0	0	8224	553837	0	0
2024-10-05 20:58:47			0	38294	0	0	0	21657	20240	160900	27204	1053887	46244	107953	0	0	8225	553363	0	0
2024-10-05 20:59:47			0	38276	0	0	0	21654	20250	160832	27260	1053922	46245	107952	0	0	8224	554043	0	0
2024-10-05 21:00:47			0	38278	0	0	0	21664	20260	160928	27367	1053878	46257	107956	0	0	8224	553934	0	0
2024-10-05 21:01:47			0	38278	0	0	0	21657	20230	160824	27547	1053842	46254	107953	0	0	8224	554025	0	0
2024-10-05 21:02:47			0	38277	0	0	0	21649	20230	160968	27334	1053816	46243	107950	0	0	8224	554065	0	0
2024-10-05 21:03:47			0	38264	0	0	0	21654	20240	160980	27147	1053771	46254	107952	0	0	8223	554548	0	0
2024-10-05 21:04:47			0	38267	0	0	0	21654	20230	161052	27126	1053842	46254	107952	0	0	8223	554460	0	0
2024-10-05 21:05:47			0	38263	0	0	0	21657	20240	160984	27183	1053904	46254	107953	0	0	8223	554588	0	0
2024-10-05 21:06:47			0	38273	0	0	0	21657	20230	161004	27131	1053833	46254	107953	0	0	8223	554223	0	0
2024-10-05 21:07:47			0	38288	0	0	0	21651	20230	160912	27022	1053816	46265	107951	0	0	8224	553630	0	0
2024-10-05 21:08:47			0	38287	0	0	0	21657	20230	161004	27010	1053860	46254	107953	0	0	8224	553670	0	0
2024-10-05 21:09:47			0	38281	0	0	0	21651	20230	160980	26812	1053816	46265	107951	0	0	8224	553907	0	0
2024-10-05 21:10:47			0	38285	0	0	0	21654	20230	160948	26852	1053780	46254	107952	0	0	8224	553749	0	0
2024-10-05 21:11:47			0	38288	0	0	0	21649	20230	160948	26894	1053789	46254	107950	0	0	8224	553630	0	0
2024-10-05 21:12:47			0	38287	0	0	0	21654	20230	160916	27168	1053833	46265	107952	0	0	8224	553670	0	0
2024-10-05 21:13:47			0	38296	0	0	0	21659	20240	160876	27263	1053851	46254	107954	0	0	8225	553284	0	0
2024-10-05 21:14:47			0	38279	0	0	0	21646	20230	160804	27376	1053807	46265	107949	0	0	8224	553986	0	0
2024-10-05 21:15:47			0	38301	0	0	0	21649	20230	160900	27206	1053842	46254	107950	0	0	8225	553117	0	0
2024-10-05 21:16:47			0	38302	0	0	0	21649	20230	160844	27334	1053842	46232	107950	0	0	8225	553077	0	0
2024-10-05 21:17:47			0	38287	0	0	0	21646	20220	160872	27095	1053824	46242	107949	0	0	8224	553700	0	0
2024-10-05 21:18:47			0	38299	0	0	0	21644	20230	160884	27029	1053860	46265	107948	0	0	8225	553196	0	0
2024-10-05 21:19:47			0	38299	0	0	0	21631	20220	160944	26994	1053815	46263	107943	0	0	8225	553226	0	0
2024-10-05 21:20:47			0	38281	0	0	0	21633	20220	160880	27286	1053762	46274	107944	0	0	8224	553938	0	0
2024-10-05 21:21:47			0	38272	0	0	0	21628	20220	160956	27293	1053771	46253	107942	0	0	8224	554293	0	0
2024-10-05 21:22:47			0	38268	0	0	0	21625	20210	160976	27533	1053780	46252	107941	0	0	8223	554482	0	0
2024-10-05 21:23:47			0	38267	0	0	0	21631	20210	160944	27208	1053744	46263	107943	0	0	8223	554522	0	0
2024-10-05 21:24:47			0	38269	0	0	0	21625	20210	161024	27260	1053780	46252	107941	0	0	8223	554442	0	0
2024-10-05 21:25:47			0	38275	0	0	0	21636	20220	161056	27455	1053736	46241	107945	0	0	8224	554175	0	0
2024-10-05 21:26:47			0	38266	0	0	0	21641	20200	161036	27272	1053762	46251	107947	0	0	8223	554592	0	0
2024-10-05 21:27:47			0	38273	0	0	0	21631	20210	161068	27062	1053806	46230	107943	0	0	8224	554284	0	0
2024-10-05 21:28:47			0	38294	0	0	0	21641	20210	161100	26897	1053717	46263	107947	0	0	8225	553454	0	0
2024-10-05 21:29:47			0	38278	0	0	0	21633	20210	161064	26991	1053726	46263	107944	0	0	8224	554087	0	0
2024-10-05 21:30:47			0	38272	0	0	0	21641	20210	161028	27237	1053744	46252	107947	0	0	8223	554324	0	0
2024-10-05 21:31:47			0	38270	0	0	0	21636	20210	161044	27365	1053726	46263	107945	0	0	8223	554403	0	0
2024-10-05 21:32:47			0	38284	0	0	0	21641	20200	161036	27303	1053708	46240	107947	0	0	8224	553880	0	0
2024-10-05 21:33:47			0	38275	0	0	0	21641	20220	161004	27017	1053815	46252	107947	0	0	8224	554175	0	0
2024-10-05 21:34:47			0	38283	0	0	0	21631	20210	161024	27121	1053691	46241	107943	0	0	8224	553889	0	0
2024-10-05 21:35:47			0	38287	0	0	0	21631	20210	160948	27041	1053717	46241	107943	0	0	8224	553731	0	0
2024-10-05 21:36:47			0	38288	0	0	0	21631	20200	161052	27126	1053708	46251	107943	0	0	8224	553722	0	0
2024-10-05 21:37:47			0	38276	0	0	0	21631	20210	161108	27182	1053753	46263	107943	0	0	8224	554166	0	0
2024-10-05 21:38:47			0	38276	0	0	0	21636	20210	161048	26899	1053753	46252	107945	0	0	8224	554166	0	0
2024-10-05 21:39:47			0	38286	0	0	0	21638	20200	161040	27232	1053735	46251	107946	0	0	8224	553801	0	0
2024-10-05 21:40:47			0	38284	0	0	0	21636	20210	161016	27012	1053726	46274	107945	0	0	8224	553849	0	0
2024-10-05 21:41:47			0	38300	0	0	0	21636	20200	161040	27176	1053735	46240	107945	0	0	8225	553248	0	0
2024-10-05 21:42:47			0	38297	0	0	0	21631	20200	161080	27123	1053708	46251	107943	0	0	8225	553366	0	0
2024-10-05 21:43:47			0	38280	0	0	0	21628	20200	161056	27003	1053708	46240	107942	0	0	8224	554038	0	0
2024-10-05 21:44:47			0	38302	0	0	0	21628	20210	161048	27256	1053717	46252	107942	0	0	8225	553138	0	0
2024-10-05 21:45:47			0	38271	0	0	0	21631	20200	161076	27144	1053673	46239	107943	0	0	8223	554394	0	0
2024-10-05 21:46:47			0	38276	0	0	0	21618	20200	161060	27059	1053655	46240	107938	0	0	8224	554196	0	0
2024-10-05 21:47:47			0	38275	0	0	0	21625	20200	161068	26989	1053673	46250	107941	0	0	8224	554236	0	0
2024-10-05 21:48:47			0	38287	0	0	0	21615	20200	161108	27422	1053735	46229	107937	0	0	8225	553762	0	0
2024-10-05 21:49:47			0	38264	0	0	0	21607	20200	161044	27220	1053708	46251	107934	0	0	8223	554671	0	0
2024-10-05 21:50:47			0	38273	0	0	0	21628	20200	161072	27102	1053673	46272	107942	0	0	8224	554315	0	0
2024-10-05 21:51:47			0	38266	0	0	0	21638	20180	161128	27045	1053699	46238	107946	0	0	8223	554653	0	0
2024-10-05 21:52:47			0	38281	0	0	0	21628	20200	161064	27086	1053726	46250	107942	0	0	8224	553999	0	0
2024-10-05 21:53:47			0	38297	0	0	0	21628	20190	161028	27029	1053691	46250	107942	0	0	8225	553397	0	0
2024-10-05 21:54:47			0	38298	0	0	0	21636	20200	160968	27079	1053673	46250	107945	0	0	8225	553327	0	0
2024-10-05 21:55:47			0	38296	0	0	0	21628	20190	160996	27237	1053717	46261	107942	0	0	8225	553436	0	0
2024-10-05 21:56:47			0	38319	0	0	0	21625	20200	161008	26949	1053708	46251	107941	0	0	8226	552498	0	0
2024-10-05 21:57:47			0	38324	0	0	0	21633	20200	160956	27201	1053673	46261	107944	0	0	8226	552300	0	0
2024-10-05 21:58:47			0	38307	0	0	0	21631	20200	160980	27152	1053762	46262	107943	0	0	8226	552971	0	0
2024-10-05 21:59:47			0	38305	0	0	0	21620	20190	160980	26949	1053717	46250	107939	0	0	8226	553081	0	0
2024-10-05 22:00:47			0	38313	0	0	0	21615	20200	160924	27242	1053682	46251	107937	0	0	8226	552735	0	0
2024-10-05 22:01:47			0	38315	0	0	0	21620	20200	160972	27154	1053726	46250	107939	0	0	8226	552656	0	0
2024-10-05 22:02:47			0	38288	0	0	0	21612	20190	160956	26989	1053682	46250	107936	0	0	8225	553753	0	0
2024-10-05 22:03:47			0	38307	0	0	0	21610	20200	161012	26797	1053708	46251	107935	0	0	8226	552971	0	0
2024-10-05 22:04:47			0	38300	0	0	0	21618	20200	160968	26738	1053726	46261	107938	0	0	8225	553248	0	0
2024-10-05 22:05:47			0	38305	0	0	0	21620	20200	160980	26878	1053700	46261	107939	0	0	8226	553050	0	0
2024-10-05 22:06:47			0	38298	0	0	0	21610	20190	160972	27000	1053682	46250	107935	0	0	8225	553357	0	0
2024-10-05 22:07:47			0	38295	0	0	0	21610	20190	160928	27114	1053629	46239	107935	0	0	8225	553476	0	0
2024-10-05 22:08:47			0	38310	0	0	0	21615	20190	160964	26817	1053637	46250	107937	0	0	8226	552883	0	0
2024-10-05 22:09:47			0	38338	0	0	0	21638	20190	160968	27005	1053655	46250	107946	0	0	8227	551779	0	0
2024-10-05 22:10:47			0	38332	0	0	0	21625	20190	160952	26883	1053708	46239	107941	0	0	8227	552015	0	0
2024-10-05 22:11:47			0	38344	0	0	0	21633	20190	160860	27254	1053708	46239	107944	0	0	8228	551542	0	0
2024-10-05 22:12:47			0	38331	0	0	0	21625	20190	160916	27424	1053708	46261	107941	0	0	8227	552055	0	0
2024-10-05 22:13:47			0	38347	0	0	0	21631	20190	160812	27086	1053664	46250	107943	0	0	8228	551424	0	0
2024-10-05 22:14:47			0	38331	0	0	0	21638	20190	160788	27078	1053717	46250	107946	0	0	8227	552055	0	0
2024-10-05 22:15:47			0	38361	0	0	0	21636	20200	160764	26901	1053708	46251	107945	0	0	8229	550842	0	0
2024-10-05 22:16:47			0	38350	0	0	0	21633	20190	160768	27215	1053717	46250	107944	0	0	8228	551306	0	0
2024-10-05 22:17:47			0	38366	0	0	0	21628	20190	160848	27003	1053744	46250	107942	0	0	8229	550675	0	0
2024-10-05 22:18:47			0	38336	0	0	0	21631	20190	160748	26922	1053691	46239	107943	0	0	8227	551858	0	0
2024-10-05 22:19:47			0	38343	0	0	0	21625	20190	160752	27039	1053691	46261	107941	0	0	8228	551582	0	0
2024-10-05 22:20:47			0	38338	0	0	0	21625	20200	160740	27159	1053753	46250	107941	0	0	8227	551748	0	0
2024-10-05 22:21:47			0	38346	0	0	0	21612	20200	160720	27124	1053708	46251	107936	0	0	8228	551433	0	0
2024-10-05 22:22:47			0	38338	0	0	0	21615	20190	160732	26949	1053637	46250	107937	0	0	8228	551779	0	0
2024-10-05 22:23:47			0	38349	0	0	0	21623	20190	160768	26915	1053637	46250	107940	0	0	8228	551345	0	0
2024-10-05 22:24:47			0	38341	0	0	0	21625	20190	160740	27305	1053691	46250	107941	0	0	8228	551661	0	0
2024-10-05 22:25:47			0	38338	0	0	0	21628	20200	160820	27053	1053700	46250	107942	0	0	8227	551748	0	0
2024-10-05 22:26:47			0	38337	0	0	0	21625	20190	160796	26857	1053691	46261	107941	0	0	8227	551818	0	0
2024-10-05 22:27:47			0	38357	0	0	0	21615	20190	160756	26958	1053655	46250	107937	0	0	8229	551030	0	0
2024-10-05 22:28:47			0	38348	0	0	0	21607	20200	160892	26948	1053700	46250	107934	0	0	8228	551354	0	0
2024-10-05 22:29:47			0	38348	0	0	0	21620	20190	160852	27088	1053682	46250	107939	0	0	8228	551385	0	0
2024-10-05 22:30:47			0	38336	0	0	0	21628	20190	160776	27026	1053708	46250	107942	0	0	8227	551858	0	0
2024-10-05 22:31:47			0	38357	0	0	0	21628	20190	160776	27213	1053717	46261	107942	0	0	8228	551030	0	0
2024-10-05 22:32:47			0	38359	0	0	0	21628	20190	160872	26753	1053717	46239	107942	0	0	8229	550951	0	0
2024-10-05 22:33:47			0	38343	0	0	0	21633	20200	160848	26963	1053762	46262	107944	0	0	8228	551551	0	0
2024-10-05 22:34:47			0	38353	0	0	0	21628	20190	160792	27081	1053691	46261	107942	0	0	8228	551187	0	0
2024-10-05 22:35:47			0	38344	0	0	0	21620	20190	160748	27034	1053664	46250	107939	0	0	8228	551542	0	0
2024-10-05 22:36:47			0	38351	0	0	0	21623	20200	160728	27192	1053700	46272	107940	0	0	8228	551236	0	0
2024-10-05 22:37:47			0	38351	0	0	0	21618	20200	160840	27090	1053700	46250	107938	0	0	8228	551236	0	0
2024-10-05 22:38:47			0	38342	0	0	0	21625	20190	160816	27209	1053637	46272	107941	0	0	8228	551621	0	0
2024-10-05 22:39:47			0	38341	0	0	0	21615	20200	160796	27022	1053700	46239	107937	0	0	8228	551630	0	0
2024-10-05 22:40:47			0	38335	0	0	0	21615	20190	160756	27372	1053708	46250	107937	0	0	8227	551897	0	0
2024-10-05 22:41:47			0	38347	0	0	0	21615	20190	160912	27327	1053637	46239	107937	0	0	8228	551424	0	0
2024-10-05 22:42:47			0	38331	0	0	0	21597	20180	160928	27372	1053611	46259	107930	0	0	8227	552085	0	0
2024-10-05 22:43:47			0	38349	0	0	0	21599	20190	160880	27093	1053637	46239	107931	0	0	8228	551345	0	0
2024-10-05 22:44:47			0	38329	0	0	0	21605	20180	160900	26975	1053620	46238	107933	0	0	8227	552164	0	0
2024-10-05 22:45:47			0	38314	0	0	0	21602	20190	160828	27170	1053682	46250	107932	0	0	8226	552726	0	0
2024-10-05 22:46:47			0	38310	0	0	0	21602	20180	160856	27312	1053620	46238	107932	0	0	8226	552914	0	0
2024-10-05 22:47:47			0	38330	0	0	0	21605	20180	160832	27085	1053673	46238	107933	0	0	8227	552125	0	0
2024-10-05 22:48:47			0	38311	0	0	0	21605	20180	160868	27090	1053611	46249	107933	0	0	8226	552875	0	0
2024-10-05 22:49:47			0	38317	0	0	0	21607	20190	160852	27428	1053682	46250	107934	0	0	8226	552607	0	0
2024-10-05 22:50:47			0	38327	0	0	0	21610	20190	160888	27124	1053602	46250	107935	0	0	8227	552213	0	0
2024-10-05 22:51:47			0	38327	0	0	0	21610	20180	160820	27480	1053637	46249	107935	0	0	8227	552243	0	0
2024-10-05 22:52:47			0	38328	0	0	0	21605	20180	160868	27507	1053637	46237	107933	0	0	8227	552204	0	0
2024-10-05 22:53:47			0	38306	0	0	0	21615	20180	160864	27220	1053646	46250	107937	0	0	8226	553072	0	0
2024-10-05 22:54:47			0	38327	0	0	0	21605	20190	160804	27206	1053655	46250	107933	0	0	8227	552213	0	0
2024-10-05 22:55:47			0	38340	0	0	0	21605	20180	160820	27209	1053611	46249	107933	0	0	8228	551730	0	0
2024-10-05 22:56:47			0	38337	0	0	0	21605	20180	160808	27090	1053531	46237	107933	0	0	8228	551849	0	0
2024-10-05 22:57:47			0	38329	0	0	0	21607	20170	160900	26986	1053628	46249	107934	0	0	8227	552195	0	0
2024-10-05 22:58:47			0	38350	0	0	0	21607	20170	160904	26993	1053628	46249	107934	0	0	8228	551367	0	0
2024-10-05 22:59:47			0	38334	0	0	0	21602	20170	160780	26764	1053549	46259	107932	0	0	8227	551997	0	0
2024-10-05 23:00:47			0	38341	0	0	0	21597	20170	160916	27045	1053628	46237	107930	0	0	8228	551721	0	0
2024-10-05 23:01:47			0	38335	0	0	0	21599	20180	160924	26828	1053611	46249	107931	0	0	8228	551928	0	0
2024-10-05 23:02:47			0	38344	0	0	0	21592	20170	160904	26774	1053540	46236	107928	0	0	8228	551603	0	0
2024-10-05 23:03:47			0	38323	0	0	0	21597	20170	160928	26850	1053593	46248	107930	0	0	8227	552431	0	0
2024-10-05 23:04:47			0	38313	0	0	0	21599	20170	160880	27216	1053602	46249	107931	0	0	8226	552826	0	0
2024-10-05 23:05:47			0	38326	0	0	0	21599	20170	160896	26797	1053602	46237	107931	0	0	8227	552313	0	0
2024-10-05 23:06:47			0	38325	0	0	0	21610	20180	160920	27203	1053611	46237	107935	0	0	8227	552322	0	0
2024-10-05 23:07:47			0	38330	0	0	0	21599	20170	160896	27048	1053575	46249	107931	0	0	8227	552155	0	0
2024-10-05 23:08:47			0	38311	0	0	0	21602	20160	160884	27263	1053531	46248	107932	0	0	8226	552936	0	0
2024-10-05 23:09:47			0	38336	0	0	0	21599	20170	160888	27296	1053593	46248	107931	0	0	8228	551919	0	0
2024-10-05 23:10:47			0	38319	0	0	0	21584	20170	160908	27116	1053575	46249	107925	0	0	8227	552589	0	0
2024-10-05 23:11:47			0	38325	0	0	0	21581	20170	160920	27130	1053593	46248	107924	0	0	8227	552353	0	0
2024-10-05 23:12:47			0	38303	0	0	0	21584	20170	160932	27060	1053593	46236	107925	0	0	8226	553221	0	0
2024-10-05 23:13:47			0	38315	0	0	0	21586	20170	160984	26955	1053522	46237	107926	0	0	8227	552747	0	0
2024-10-05 23:14:47			0	38314	0	0	0	21581	20160	161028	27142	1053504	46236	107924	0	0	8227	552817	0	0
2024-10-05 23:15:47			0	38310	0	0	0	21584	20160	160996	27116	1053557	46248	107925	0	0	8226	552975	0	0
2024-10-05 23:16:47			0	38303	0	0	0	21579	20170	161044	27102	1053540	46225	107923	0	0	8226	553221	0	0
2024-10-05 23:17:47			0	38312	0	0	0	21571	20150	161104	27388	1053477	46223	107920	0	0	8227	552927	0	0
2024-10-05 23:18:47			0	38304	0	0	0	21581	20150	161080	26899	1053486	46234	107924	0	0	8226	553243	0	0
2024-10-05 23:19:47			0	38304	0	0	0	21579	20160	161068	27277	1053469	46257	107923	0	0	8226	553212	0	0
2024-10-05 23:20:47			0	38299	0	0	0	21581	20160	161104	26975	1053522	46247	107924	0	0	8226	553409	0	0
2024-10-05 23:21:47			0	38310	0	0	0	21571	20150	161072	27192	1053513	46246	107920	0	0	8226	553006	0	0
2024-10-05 23:22:47			0	38286	0	0	0	21566	20150	161060	27107	1053504	46234	107918	0	0	8225	553954	0	0
2024-10-05 23:23:47			0	38296	0	0	0	21555	20150	161148	27039	1053477	46234	107914	0	0	8226	553559	0	0
2024-10-05 23:24:47			0	38287	0	0	0	21555	20160	161076	27071	1053442	46224	107914	0	0	8225	553884	0	0
2024-10-05 23:25:47			0	38267	0	0	0	21540	20150	161140	27346	1053504	46234	107908	0	0	8225	554705	0	0
2024-10-05 23:26:47			0	38251	0	0	0	21529	20130	161232	27163	1053424	46232	107904	0	0	8224	555400	0	0
2024-10-05 23:27:47			0	38250	0	0	0	21540	20140	161288	27227	1053406	46233	107908	0	0	8223	555409	0	0
2024-10-05 23:28:47			0	38230	0	0	0	21542	20150	161280	26935	1053451	46234	107909	0	0	8222	556170	0	0
2024-10-05 23:29:47			0	38229	0	0	0	21550	20130	161364	27104	1053335	46232	107912	0	0	8222	556271	0	0
2024-10-05 23:30:47			0	38230	0	0	0	21545	20130	161372	26934	1053397	46244	107910	0	0	8222	556232	0	0
2024-10-05 23:31:47			0	38228	0	0	0	21542	20130	161320	27296	1053362	46244	107909	0	0	8222	556311	0	0
2024-10-05 23:32:47			0	38196	0	0	0	21542	20120	161396	27261	1053326	46244	107909	0	0	8220	557611	0	0
2024-10-05 23:33:47			0	38223	0	0	0	21550	20130	161348	27012	1053388	46244	107912	0	0	8222	556509	0	0
2024-10-05 23:34:47			0	38227	0	0	0	21548	20120	161368	27334	1053406	46221	107911	0	0	8222	556381	0	0
2024-10-05 23:35:47			0	38215	0	0	0	21553	20120	161428	26838	1053380	46244	107913	0	0	8221	556857	0	0
2024-10-05 23:36:47			0	38191	0	0	0	21550	20120	161432	26922	1053406	46244	107912	0	0	8220	557809	0	0
2024-10-05 23:37:47			0	38209	0	0	0	21550	20120	161472	27157	1053353	46232	107912	0	0	8221	557095	0	0
2024-10-05 23:38:47			0	38225	0	0	0	21542	20120	161480	27220	1053371	46253	107909	0	0	8222	556461	0	0
2024-10-05 23:39:47			0	38196	0	0	0	21545	20120	161452	27180	1053397	46243	107910	0	0	8220	557611	0	0
2024-10-05 23:40:47			0	38176	0	0	0	21532	20120	161488	27405	1053380	46244	107905	0	0	8219	558405	0	0
2024-10-05 23:41:47			0	38176	0	0	0	21542	20110	161596	27298	1053415	46242	107909	0	0	8219	558436	0	0
2024-10-05 23:42:47			0	38180	0	0	0	21545	20120	161600	27523	1053344	46243	107910	0	0	8219	558246	0	0
2024-10-05 23:43:47			0	38165	0	0	0	21537	20120	161600	27168	1053450	46243	107907	0	0	8218	558842	0	0
2024-10-05 23:44:47			0	38145	0	0	0	21537	20120	161512	27350	1053317	46231	107907	0	0	8217	559638	0	0
2024-10-05 23:45:47			0	38127	0	0	0	21545	20120	161624	27384	1053300	46254	107910	0	0	8216	560354	0	0
2024-10-05 23:46:47			0	38131	0	0	0	21540	20110	161684	27396	1053335	46242	107908	0	0	8216	560226	0	0
2024-10-05 23:47:47			0	38128	0	0	0	21540	20110	161660	27046	1053335	46230	107908	0	0	8216	560345	0	0
2024-10-05 23:48:47			0	38116	0	0	0	21529	20120	161780	27326	1053291	46243	107904	0	0	8216	560792	0	0
2024-10-05 23:49:47			0	38102	0	0	0	21522	20110	161716	26991	1053255	46230	107901	0	0	8215	561381	0	0
2024-10-05 23:50:47			0	38092	0	0	0	21529	20110	161772	27150	1053282	46242	107904	0	0	8214	561780	0	0
2024-10-05 23:51:47			0	38084	0	0	0	21542	20110	161956	27133	1053273	46242	107909	0	0	8214	562099	0	0
2024-10-05 23:52:47			0	38065	0	0	0	21535	20110	161912	26993	1053353	46252	107906	0	0	8213	562857	0	0
2024-10-05 23:53:47			0	38048	0	0	0	21532	20110	161980	27315	1053326	46242	107905	0	0	8212	563536	0	0
2024-10-05 23:54:47			0	38051	0	0	0	21537	20100	162032	27182	1053282	46240	107907	0	0	8212	563447	0	0
2024-10-05 23:55:47			0	38057	0	0	0	21545	20110	162092	27450	1053273	46252	107910	0	0	8212	563177	0	0
2024-10-05 23:56:47			0	38057	0	0	0	21535	20110	162080	27281	1053326	46263	107906	0	0	8212	563177	0	0
2024-10-05 23:57:47			0	38041	0	0	0	21542	20110	162096	27232	1053326	46252	107909	0	0	8211	563816	0	0
2024-10-05 23:58:47			0	38030	0	0	0	21529	20110	162084	27263	1053282	46230	107904	0	0	8211	564256	0	0
2024-10-05 23:59:47			0	38026	0	0	0	21537	20100	162055	27322	1053344	46229	107907	0	0	8210	564447	0	0
2024-10-06 00:00:47			0	38013	0	0	0	21535	20110	162095	27090	1053273	46242	107906	0	0	8209	564936	0	0
2024-10-06 00:01:47			0	38035	0	0	0	21545	20100	162148	27346	1053317	46240	107910	0	0	8211	564087	0	0
2024-10-06 00:02:47			0	38027	0	0	0	21545	20100	162116	26878	1053238	46229	107910	0	0	8210	564407	0	0
2024-10-06 00:03:47			0	38047	0	0	0	21540	20100	162132	27241	1053264	46251	107908	0	0	8211	563607	0	0
2024-10-06 00:04:47			0	38038	0	0	0	21540	20110	162204	27237	1053379	46242	107908	0	0	8211	563936	0	0
2024-10-06 00:05:47			0	38025	0	0	0	21540	20100	162155	26838	1053264	46240	107908	0	0	8210	564487	0	0
2024-10-06 00:06:47			0	38006	0	0	0	21545	20100	162227	27100	1053255	46229	107910	0	0	8209	565247	0	0
2024-10-06 00:07:47			0	38001	0	0	0	21545	20110	162219	26939	1053300	46242	107910	0	0	8209	565416	0	0
2024-10-06 00:08:47			0	37994	0	0	0	21553	20110	162115	27076	1053309	46242	107913	0	0	8208	565696	0	0
2024-10-06 00:09:47			0	37999	0	0	0	21545	20110	162139	27029	1053282	46242	107910	0	0	8208	565496	0	0
2024-10-06 00:10:47			0	38009	0	0	0	21553	20110	162287	26897	1053326	46252	107913	0	0	8209	565096	0	0
2024-10-06 00:11:47			0	37991	0	0	0	21542	20120	162179	27133	1053371	46243	107909	0	0	8208	565785	0	0
2024-10-06 00:12:47			0	37996	0	0	0	21548	20110	162167	27154	1053379	46242	107911	0	0	8208	565616	0	0
2024-10-06 00:13:47			0	37998	0	0	0	21527	20110	162179	27166	1053326	46242	107903	0	0	8209	565536	0	0
2024-10-06 00:14:47			0	38007	0	0	0	21527	20110	162143	27454	1053273	46242	107903	0	0	8209	565176	0	0
2024-10-06 00:15:47			0	37997	0	0	0	21532	20110	162091	26896	1053282	46242	107905	0	0	8209	565576	0	0
2024-10-06 00:16:47			0	37996	0	0	0	21535	20100	162223	27192	1053291	46240	107906	0	0	8208	565648	0	0
2024-10-06 00:17:47			0	38005	0	0	0	21535	20100	162123	27135	1053282	46229	107906	0	0	8209	565287	0	0
2024-10-06 00:18:47			0	37994	0	0	0	21529	20100	161947	27322	1053317	46229	107904	0	0	8208	565728	0	0
2024-10-06 00:19:47			0	38013	0	0	0	21529	20100	162111	27253	1053282	46262	107904	0	0	8210	564967	0	0
2024-10-06 00:20:47			0	38016	0	0	0	21532	20100	162055	27301	1053255	46240	107905	0	0	8210	564847	0	0
2024-10-06 00:21:47			0	38034	0	0	0	21529	20100	162060	27286	1053335	46229	107904	0	0	8211	564127	0	0
2024-10-06 00:22:47			0	38026	0	0	0	21537	20100	162111	27260	1053291	46229	107907	0	0	8210	564447	0	0
2024-10-06 00:23:47			0	38034	0	0	0	21524	20100	162104	27350	1053344	46240	107902	0	0	8211	564127	0	0
2024-10-06 00:24:47			0	38037	0	0	0	21537	20090	162044	27312	1053299	46228	107907	0	0	8211	564038	0	0
2024-10-06 00:25:47			0	38050	0	0	0	21540	20100	162056	27197	1053291	46229	107908	0	0	8212	563487	0	0
2024-10-06 00:26:47			0	38064	0	0	0	21529	20100	161896	27192	1053291	46240	107904	0	0	8213	562928	0	0
2024-10-06 00:27:47			0	38047	0	0	0	21542	20100	161964	27171	1053308	46240	107909	0	0	8211	563607	0	0
2024-10-06 00:28:47			0	38052	0	0	0	21548	20100	162004	27142	1053255	46240	107911	0	0	8212	563407	0	0
2024-10-06 00:29:47			0	38051	0	0	0	21537	20110	161964	27345	1053300	46242	107907	0	0	8212	563416	0	0
2024-10-06 00:30:47			0	38060	0	0	0	21532	20100	161900	27131	1053335	46240	107905	0	0	8212	563088	0	0
2024-10-06 00:31:47			0	38069	0	0	0	21542	20100	161944	27145	1053291	46229	107909	0	0	8213	562728	0	0
2024-10-06 00:32:47			0	38086	0	0	0	21545	20100	162060	27372	1053238	46240	107910	0	0	8214	562050	0	0
2024-10-06 00:33:47			0	38080	0	0	0	21548	20100	161988	26935	1053317	46229	107911	0	0	8213	562289	0	0
2024-10-06 00:34:47			0	38065	0	0	0	21537	20100	162016	27253	1053291	46240	107907	0	0	8212	562888	0	0
2024-10-06 00:35:47			0	38077	0	0	0	21537	20110	162052	27391	1053335	46242	107907	0	0	8213	562378	0	0
2024-10-06 00:36:47			0	38069	0	0	0	21537	20110	162044	27305	1053300	46242	107907	0	0	8213	562697	0	0
2024-10-06 00:37:47			0	38082	0	0	0	21540	20100	162040	27388	1053335	46251	107908	0	0	8213	562209	0	0
2024-10-06 00:38:47			0	38063	0	0	0	21540	20100	162052	27301	1053317	46229	107908	0	0	8212	562968	0	0
2024-10-06 00:39:47			0	38058	0	0	0	21535	20110	161996	27066	1053309	46230	107906	0	0	8212	563137	0	0
2024-10-06 00:40:47			0	38064	0	0	0	21542	20110	161988	27583	1053255	46242	107909	0	0	8212	562897	0	0
2024-10-06 00:41:47			0	38056	0	0	0	21537	20100	162184	27133	1053370	46251	107907	0	0	8212	563248	0	0
2024-10-06 00:42:47			0	38078	0	0	0	21535	20100	162004	27452	1053264	46251	107906	0	0	8213	562369	0	0
2024-10-06 00:43:47			0	38067	0	0	0	21529	20110	162080	27163	1053335	46242	107904	0	0	8213	562777	0	0
2024-10-06 00:44:47			0	38060	0	0	0	21542	20100	162148	26996	1053317	46262	107909	0	0	8212	563088	0	0
2024-10-06 00:45:47			0	38072	0	0	0	21540	20100	161928	27329	1053291	46229	107908	0	0	8213	562609	0	0
2024-10-06 00:46:47			0	38057	0	0	0	21542	20100	161984	27071	1053317	46240	107909	0	0	8212	563208	0	0
2024-10-06 00:47:47			0	38078	0	0	0	21540	20100	162024	27365	1053291	46240	107908	0	0	8213	562369	0	0
2024-10-06 00:48:47			0	38091	0	0	0	21529	20110	161952	27422	1053353	46230	107904	0	0	8214	561820	0	0
2024-10-06 00:49:47			0	38080	0	0	0	21535	20100	161976	27381	1053291	46251	107906	0	0	8213	562289	0	0
2024-10-06 00:50:47			0	38082	0	0	0	21540	20110	161880	27343	1053326	46230	107908	0	0	8213	562178	0	0
2024-10-06 00:51:47			0	38080	0	0	0	21529	20100	161980	27308	1053255	46240	107904	0	0	8213	562289	0	0
2024-10-06 00:52:47			0	38074	0	0	0	21540	20100	161932	27393	1053291	46240	107908	0	0	8213	562529	0	0
2024-10-06 00:53:47			0	38089	0	0	0	21540	20100	161896	27391	1053291	46240	107908	0	0	8214	561930	0	0
2024-10-06 00:54:47			0	38085	0	0	0	21545	20100	161884	27312	1053335	46229	107910	0	0	8214	562090	0	0
2024-10-06 00:55:47			0	38117	0	0	0	21548	20110	161836	27190	1053309	46242	107911	0	0	8215	560783	0	0
2024-10-06 00:56:47			0	38109	0	0	0	21550	20110	161776	27500	1053326	46252	107912	0	0	8215	561102	0	0
2024-10-06 00:57:47			0	38142	0	0	0	21545	20100	161724	27417	1053291	46262	107910	0	0	8217	559819	0	0
2024-10-06 00:58:47			0	38114	0	0	0	21545	20120	161812	27183	1053371	46243	107910	0	0	8215	560872	0	0
2024-10-06 00:59:47			0	38132	0	0	0	21550	20110	161740	27258	1053353	46242	107912	0	0	8216	560186	0	0
2024-10-06 01:00:47			0	38133	0	0	0	21561	20110	161820	27594	1053362	46242	107916	0	0	8216	560146	0	0
2024-10-06 01:01:47			0	38146	0	0	0	21553	20120	161788	27459	1053397	46243	107913	0	0	8217	559598	0	0
2024-10-06 01:02:47			0	38145	0	0	0	21563	20110	161680	27272	1053388	46242	107917	0	0	8217	559668	0	0
2024-10-06 01:03:47			0	38163	0	0	0	21555	20120	161644	27765	1053424	46253	107914	0	0	8218	558922	0	0
2024-10-06 01:04:47			0	38150	0	0	0	21553	20120	161616	27509	1053397	46220	107913	0	0	8217	559439	0	0
2024-10-06 01:05:47			0	38157	0	0	0	21555	20110	161640	27326	1053415	46230	107914	0	0	8218	559191	0	0
2024-10-06 01:06:47			0	38161	0	0	0	21553	20120	161544	27516	1053459	46254	107913	0	0	8218	559001	0	0
2024-10-06 01:07:47			0	38180	0	0	0	21561	20120	161612	27237	1053397	46243	107916	0	0	8219	558246	0	0
2024-10-06 01:08:47			0	38183	0	0	0	21558	20120	161596	27388	1053433	46232	107915	0	0	8219	558127	0	0
2024-10-06 01:09:47			0	38174	0	0	0	21566	20120	161612	27265	1053397	46243	107918	0	0	8218	558485	0	0
2024-10-06 01:10:47			0	38163	0	0	0	21571	20130	161536	27364	1053388	46244	107920	0	0	8218	558891	0	0
2024-10-06 01:11:47			0	38142	0	0	0	21553	20120	161620	27265	1053424	46243	107913	0	0	8217	559757	0	0
2024-10-06 01:12:47			0	38161	0	0	0	21563	20120	161644	27462	1053433	46232	107917	0	0	8218	559001	0	0
2024-10-06 01:13:47			0	38169	0	0	0	21558	20110	161620	27268	1053388	46263	107915	0	0	8218	558714	0	0
2024-10-06 01:14:47			0	38161	0	0	0	21548	20120	161564	27509	1053371	46243	107911	0	0	8218	559001	0	0
2024-10-06 01:15:47			0	38183	0	0	0	21548	20120	161644	27161	1053353	46244	107911	0	0	8219	558127	0	0
2024-10-06 01:16:47			0	38145	0	0	0	21561	20120	161752	27079	1053371	46220	107916	0	0	8217	559638	0	0
2024-10-06 01:17:47			0	38159	0	0	0	21555	20120	161664	27351	1053371	46231	107914	0	0	8218	559081	0	0
2024-10-06 01:18:47			0	38146	0	0	0	21553	20130	161648	27396	1053442	46221	107913	0	0	8217	559567	0	0
2024-10-06 01:19:47			0	38137	0	0	0	21555	20120	161596	27322	1053406	46244	107914	0	0	8216	559956	0	0
2024-10-06 01:20:47			0	38156	0	0	0	21558	20120	161660	27327	1053344	46231	107915	0	0	8218	559200	0	0
2024-10-06 01:21:47			0	38169	0	0	0	21561	20130	161712	27199	1053362	46244	107916	0	0	8218	558653	0	0
2024-10-06 01:22:47			0	38166	0	0	0	21558	20120	161616	27133	1053371	46243	107915	0	0	8218	558802	0	0
2024-10-06 01:23:47			0	38147	0	0	0	21555	20120	161592	27474	1053371	46220	107914	0	0	8217	559558	0	0
2024-10-06 01:24:47			0	38145	0	0	0	21548	20120	161636	27180	1053424	46231	107911	0	0	8217	559638	0	0
2024-10-06 01:25:47			0	38148	0	0	0	21545	20120	161580	27055	1053371	46231	107910	0	0	8217	559518	0	0
2024-10-06 01:26:47			0	38143	0	0	0	21550	20120	161668	27414	1053353	46244	107912	0	0	8217	559717	0	0
2024-10-06 01:27:47			0	38140	0	0	0	21548	20120	161692	27417	1053371	46220	107911	0	0	8217	559837	0	0
2024-10-06 01:28:47			0	38127	0	0	0	21545	20120	161640	27403	1053380	46232	107910	0	0	8216	560354	0	0
2024-10-06 01:29:47			0	38142	0	0	0	21545	20120	161680	27256	1053300	46232	107910	0	0	8217	559757	0	0
2024-10-06 01:30:47			0	38133	0	0	0	21545	20110	161764	27313	1053362	46242	107910	0	0	8216	560146	0	0
2024-10-06 01:31:47			0	38124	0	0	0	21540	20120	161672	27583	1053344	46231	107908	0	0	8216	560473	0	0
2024-10-06 01:32:47			0	38131	0	0	0	21550	20120	161776	27196	1053397	46243	107912	0	0	8216	560195	0	0
2024-10-06 01:33:47			0	38106	0	0	0	21542	20120	161764	27253	1053344	46243	107909	0	0	8215	561191	0	0
2024-10-06 01:34:47			0	38123	0	0	0	21542	20130	161816	27189	1053388	46232	107909	0	0	8216	560482	0	0
2024-10-06 01:35:47			0	38111	0	0	0	21527	20120	161752	27327	1053344	46231	107903	0	0	8215	560991	0	0
2024-10-06 01:36:47			0	38119	0	0	0	21540	20120	161840	26987	1053317	46243	107908	0	0	8216	560673	0	0
2024-10-06 01:37:47			0	38115	0	0	0	21532	20120	161740	27303	1053317	46231	107905	0	0	8216	560832	0	0
2024-10-06 01:38:47			0	38125	0	0	0	21540	20110	161744	27220	1053309	46230	107908	0	0	8216	560465	0	0
2024-10-06 01:39:47			0	38137	0	0	0	21535	20110	161772	27059	1053326	46219	107906	0	0	8217	559987	0	0
2024-10-06 01:40:47			0	38147	0	0	0	21537	20100	161824	27100	1053317	46229	107907	0	0	8217	559620	0	0
2024-10-06 01:41:47			0	38154	0	0	0	21529	20110	161772	27346	1053379	46230	107904	0	0	8218	559310	0	0
2024-10-06 01:42:47			0	38115	0	0	0	21529	20110	161844	27301	1053326	46252	107904	0	0	8216	560863	0	0
2024-10-06 01:43:47			0	38121	0	0	0	21529	20100	161804	27393	1053344	46240	107904	0	0	8216	560655	0	0
2024-10-06 01:44:47			0	38128	0	0	0	21532	20100	161864	27232	1053317	46251	107905	0	0	8216	560376	0	0
2024-10-06 01:45:47			0	38117	0	0	0	21516	20100	161820	27180	1053317	46251	107899	0	0	8216	560814	0	0
2024-10-06 01:46:47			0	38102	0	0	0	21503	20100	161784	27156	1053291	46218	107894	0	0	8215	561412	0	0
2024-10-06 01:47:47			0	38110	0	0	0	21514	20100	161796	27308	1053282	46218	107898	0	0	8216	561093	0	0
2024-10-06 01:48:47			0	38100	0	0	0	21522	20100	161944	27111	1053255	46229	107901	0	0	8215	561492	0	0
2024-10-06 01:49:47			0	38088	0	0	0	21511	20110	162000	27109	1053273	46230	107897	0	0	8214	561939	0	0
2024-10-06 01:50:47			0	38087	0	0	0	21527	20090	161868	27535	1053184	46228	107903	0	0	8214	562041	0	0
2024-10-06 01:51:47			0	38097	0	0	0	21519	20100	161964	26961	1053282	46229	107900	0	0	8215	561611	0	0
2024-10-06 01:52:47			0	38096	0	0	0	21535	20090	161868	27066	1053264	46239	107906	0	0	8214	561682	0	0
2024-10-06 01:53:47			0	38077	0	0	0	21511	20090	161928	27177	1053246	46239	107897	0	0	8214	562440	0	0
2024-10-06 01:54:47			0	38088	0	0	0	21514	20090	161960	26918	1053273	46228	107898	0	0	8214	562001	0	0
2024-10-06 01:55:47			0	38068	0	0	0	21511	20090	162020	27308	1053299	46228	107897	0	0	8213	562799	0	0
2024-10-06 01:56:47			0	38055	0	0	0	21490	20090	161892	27377	1053210	46250	107889	0	0	8213	563319	0	0
2024-10-06 01:57:47			0	38059	0	0	0	21483	20090	161980	27338	1053184	46239	107886	0	0	8213	563159	0	0
2024-10-06 01:58:47			0	38072	0	0	0	21498	20090	162084	27383	1053193	46239	107892	0	0	8213	562640	0	0
2024-10-06 01:59:47			0	38077	0	0	0	21493	20070	162064	27204	1053130	46215	107890	0	0	8214	562502	0	0
2024-10-06 02:00:47			0	38079	0	0	0	21501	20080	162112	27098	1053202	46238	107893	0	0	8214	562391	0	0
2024-10-06 02:01:47			0	38076	0	0	0	21498	20080	162008	27150	1053246	46227	107892	0	0	8214	562511	0	0
2024-10-06 02:02:47			0	38090	0	0	0	21496	20080	162032	27190	1053193	46227	107891	0	0	8215	561952	0	0
2024-10-06 02:03:47			0	38073	0	0	0	21514	20070	162000	27176	1053201	46226	107898	0	0	8213	562662	0	0
2024-10-06 02:04:47			0	38074	0	0	0	21514	20080	161960	27398	1053246	46227	107898	0	0	8213	562591	0	0
2024-10-06 02:05:47			0	38077	0	0	0	21509	20080	162076	27315	1053193	46227	107896	0	0	8214	562471	0	0
2024-10-06 02:06:47			0	38082	0	0	0	21503	20070	161940	27043	1053184	46226	107894	0	0	8214	562303	0	0
2024-10-06 02:07:47			0	38070	0	0	0	21503	20080	161972	27303	1053193	46238	107894	0	0	8213	562751	0	0
2024-10-06 02:08:47			0	38065	0	0	0	21514	20080	162088	27403	1053219	46227	107898	0	0	8213	562950	0	0
2024-10-06 02:09:47			0	38054	0	0	0	21511	20070	162040	27298	1053210	46226	107897	0	0	8212	563421	0	0
2024-10-06 02:10:47			0	38066	0	0	0	21501	20080	162036	27124	1053193	46238	107893	0	0	8213	562910	0	0
2024-10-06 02:11:47			0	38062	0	0	0	21506	20080	162120	27298	1053175	46238	107895	0	0	8213	563070	0	0
2024-10-06 02:12:47			0	38058	0	0	0	21496	20080	162136	27166	1053193	46216	107891	0	0	8213	563230	0	0
2024-10-06 02:13:47			0	38064	0	0	0	21501	20070	162160	27150	1053157	46237	107893	0	0	8213	563021	0	0
2024-10-06 02:14:47			0	38044	0	0	0	21493	20070	162076	27209	1053228	46215	107890	0	0	8212	563820	0	0
2024-10-06 02:15:47			0	38041	0	0	0	21493	20070	162136	27256	1053148	46237	107890	0	0	8212	563940	0	0
2024-10-06 02:16:47			0	38023	0	0	0	21485	20070	162063	27431	1053130	46237	107887	0	0	8211	564660	0	0
2024-10-06 02:17:47			0	38034	0	0	0	21488	20070	162232	27483	1053122	46237	107888	0	0	8211	564220	0	0
2024-10-06 02:18:47			0	38041	0	0	0	21496	20070	162188	27246	1053130	46237	107891	0	0	8212	563940	0	0
2024-10-06 02:19:47			0	38028	0	0	0	21490	20070	162232	27472	1053122	46237	107889	0	0	8211	564460	0	0
2024-10-06 02:20:47			0	38032	0	0	0	21490	20070	162104	27126	1053122	46249	107889	0	0	8211	564300	0	0
2024-10-06 02:21:47			0	38029	0	0	0	21498	20070	162248	27391	1053130	46237	107892	0	0	8211	564420	0	0
2024-10-06 02:22:47			0	38026	0	0	0	21509	20080	162244	27239	1053139	46250	107896	0	0	8211	564509	0	0
2024-10-06 02:23:47			0	38031	0	0	0	21498	20070	162188	27415	1053157	46237	107892	0	0	8211	564340	0	0
2024-10-06 02:24:47			0	38023	0	0	0	21496	20070	162220	27175	1053175	46226	107891	0	0	8211	564660	0	0
2024-10-06 02:25:47			0	38042	0	0	0	21503	20070	162156	27225	1053184	46237	107894	0	0	8212	563900	0	0
2024-10-06 02:26:47			0	38035	0	0	0	21498	20070	162168	27372	1053157	46226	107892	0	0	8211	564180	0	0
2024-10-06 02:27:47			0	38029	0	0	0	21488	20060	162239	27568	1053192	46225	107888	0	0	8211	564451	0	0
2024-10-06 02:28:47			0	38025	0	0	0	21490	20070	162287	27022	1053157	46237	107889	0	0	8211	564580	0	0
2024-10-06 02:29:47			0	38007	0	0	0	21470	20070	162255	27124	1053122	46226	107881	0	0	8210	565301	0	0
2024-10-06 02:30:47			0	37990	0	0	0	21464	20070	162367	26944	1053104	46249	107879	0	0	8209	565981	0	0
2024-10-06 02:31:47			0	37975	0	0	0	21470	20060	162339	26977	1053086	46236	107881	0	0	8208	566614	0	0
2024-10-06 02:32:47			0	37994	0	0	0	21470	20060	162335	27183	1053104	46224	107881	0	0	8209	565853	0	0
2024-10-06 02:33:47			0	37973	0	0	0	21490	20060	162355	27111	1053086	46214	107889	0	0	8208	566694	0	0
2024-10-06 02:34:47			0	37975	0	0	0	21472	20060	162307	27317	1053113	46225	107882	0	0	8208	566614	0	0
2024-10-06 02:35:47			0	37987	0	0	0	21462	20060	162391	27086	1053060	46225	107878	0	0	8209	566133	0	0
2024-10-06 02:36:47			0	37969	0	0	0	21467	20060	162395	27175	1053077	46213	107880	0	0	8208	566855	0	0
2024-10-06 02:37:47			0	37961	0	0	0	21472	20050	162511	27168	1053068	46235	107882	0	0	8207	567207	0	0
2024-10-06 02:38:47			0	37941	0	0	0	21459	20050	162555	27251	1053042	46224	107877	0	0	8206	568010	0	0
2024-10-06 02:39:47			0	37926	0	0	0	21459	20050	162615	27183	1053033	46223	107877	0	0	8205	568613	0	0
2024-10-06 02:40:47			0	37942	0	0	0	21475	20050	162719	27403	1053059	46234	107883	0	0	8206	567970	0	0
2024-10-06 02:41:47			0	37934	0	0	0	21467	20050	162663	27232	1053086	46223	107880	0	0	8206	568291	0	0
2024-10-06 02:42:47			0	37925	0	0	0	21485	20050	162603	27081	1053006	46234	107887	0	0	8205	568653	0	0
2024-10-06 02:43:47			0	37942	0	0	0	21472	20050	162519	27124	1053059	46246	107882	0	0	8206	567970	0	0
2024-10-06 02:44:47			0	37950	0	0	0	21470	20050	162651	27005	1053042	46235	107881	0	0	8207	567648	0	0
2024-10-06 02:45:47			0	37945	0	0	0	21470	20040	162663	27008	1053015	46222	107881	0	0	8206	567881	0	0
2024-10-06 02:46:47			0	37938	0	0	0	21470	20050	162599	26830	1053059	46212	107881	0	0	8206	568130	0	0
2024-10-06 02:47:47			0	37934	0	0	0	21464	20050	162687	26816	1053033	46223	107879	0	0	8206	568291	0	0
2024-10-06 02:48:47			0	37935	0	0	0	21467	20050	162611	27294	1053086	46234	107880	0	0	8206	568251	0	0
2024-10-06 02:49:47			0	37946	0	0	0	21475	20040	162599	26889	1053024	46212	107883	0	0	8206	567840	0	0
2024-10-06 02:50:47			0	37919	0	0	0	21470	20050	162563	27128	1053033	46223	107881	0	0	8205	568894	0	0
2024-10-06 02:51:47			0	37934	0	0	0	21470	20050	162651	27173	1053059	46223	107881	0	0	8206	568291	0	0
2024-10-06 02:52:47			0	37926	0	0	0	21462	20040	162683	26970	1053050	46234	107878	0	0	8205	568644	0	0
2024-10-06 02:53:47			0	37912	0	0	0	21467	20040	162623	27017	1053015	46233	107880	0	0	8204	569207	0	0
2024-10-06 02:54:47			0	37926	0	0	0	21464	20040	162559	27249	1052988	46233	107879	0	0	8205	568644	0	0
2024-10-06 02:55:47			0	37926	0	0	0	21464	20040	162539	27036	1053050	46212	107879	0	0	8205	568644	0	0
2024-10-06 02:56:47			0	37938	0	0	0	21462	20040	162583	27026	1053024	46212	107878	0	0	8206	568162	0	0
2024-10-06 02:57:47			0	37933	0	0	0	21454	20040	162603	26852	1052988	46233	107875	0	0	8206	568363	0	0
2024-10-06 02:58:47			0	37925	0	0	0	21451	20030	162615	26816	1052979	46211	107874	0	0	8205	568715	0	0
2024-10-06 02:59:47			0	37929	0	0	0	21454	20040	162587	27090	1053024	46223	107875	0	0	8206	568523	0	0
2024-10-06 03:00:47			0	37930	0	0	0	21459	20040	162547	27144	1052988	46222	107877	0	0	8206	568483	0	0
2024-10-06 03:01:47			0	37931	0	0	0	21451	20030	162719	26864	1053033	46233	107874	0	0	8206	568474	0	0
2024-10-06 03:02:47			0	37934	0	0	0	21444	20040	162651	27024	1052988	46222	107871	0	0	8206	568322	0	0
2024-10-06 03:03:47			0	37907	0	0	0	21444	20030	162791	26951	1053006	46222	107871	0	0	8204	569439	0	0
2024-10-06 03:04:47			0	37921	0	0	0	21457	20030	162675	27403	1052926	46222	107876	0	0	8205	568876	0	0
2024-10-06 03:05:47			0	37916	0	0	0	21454	20020	162847	27204	1052962	46210	107875	0	0	8205	569109	0	0
2024-10-06 03:06:47			0	37874	0	0	0	21444	20020	162799	27208	1052979	46209	107871	0	0	8202	570799	0	0
2024-10-06 03:07:47			0	37877	0	0	0	21444	20030	162887	27211	1052944	46232	107871	0	0	8203	570647	0	0
2024-10-06 03:08:47			0	37892	0	0	0	21449	20020	162767	26963	1052935	46232	107873	0	0	8203	570074	0	0
2024-10-06 03:09:47			0	37894	0	0	0	21449	20020	162863	26951	1052962	46232	107873	0	0	8204	569994	0	0
2024-10-06 03:10:47			0	37888	0	0	0	21457	20030	162791	27142	1052953	46233	107876	0	0	8203	570204	0	0
2024-10-06 03:11:47			0	37879	0	0	0	21446	20020	162915	27190	1052988	46221	107872	0	0	8203	570598	0	0
2024-10-06 03:12:47			0	37879	0	0	0	21451	20030	162983	27043	1052970	46232	107874	0	0	8203	570566	0	0
2024-10-06 03:13:47			0	37891	0	0	0	21451	20020	162927	27348	1052953	46231	107874	0	0	8203	570115	0	0
2024-10-06 03:14:47			0	37863	0	0	0	21449	20020	163031	27277	1052988	46221	107873	0	0	8202	571243	0	0
2024-10-06 03:15:47			0	37864	0	0	0	21451	20020	162923	27197	1052926	46220	107874	0	0	8202	571202	0	0
2024-10-06 03:16:47			0	37862	0	0	0	21444	20020	162923	27457	1052926	46231	107871	0	0	8202	571283	0	0
2024-10-06 03:17:47			0	37853	0	0	0	21446	20020	162879	27255	1052979	46220	107872	0	0	8201	571646	0	0
2024-10-06 03:18:47			0	37843	0	0	0	21438	20020	162947	27235	1052962	46221	107869	0	0	8201	572049	0	0
2024-10-06 03:19:47			0	37839	0	0	0	21431	20020	162939	27175	1052882	46232	107866	0	0	8201	572210	0	0
2024-10-06 03:20:47			0	37849	0	0	0	21428	20020	163019	27199	1052926	46243	107865	0	0	8201	571807	0	0
2024-10-06 03:21:47			0	37848	0	0	0	21438	20020	163039	26911	1052935	46221	107869	0	0	8201	571847	0	0
2024-10-06 03:22:47			0	37824	0	0	0	21436	20020	163091	27215	1052962	46244	107868	0	0	8200	572816	0	0
2024-10-06 03:23:47			0	37830	0	0	0	21441	20010	163043	26828	1052891	46231	107870	0	0	8200	572605	0	0
2024-10-06 03:24:47			0	37843	0	0	0	21438	20020	162979	27209	1052900	46220	107869	0	0	8201	572049	0	0
2024-10-06 03:25:47			0	37837	0	0	0	21444	20020	163079	27112	1052926	46220	107871	0	0	8200	572291	0	0
2024-10-06 03:26:47			0	37853	0	0	0	21433	20010	163011	27008	1052935	46219	107867	0	0	8201	571677	0	0
2024-10-06 03:27:47			0	37861	0	0	0	21428	20010	163055	27208	1052970	46243	107865	0	0	8202	571355	0	0
2024-10-06 03:28:47			0	37862	0	0	0	21428	20020	162863	27272	1052873	46231	107865	0	0	8202	571283	0	0
2024-10-06 03:29:47			0	37855	0	0	0	21436	20010	162871	27102	1052935	46242	107868	0	0	8201	571597	0	0
2024-10-06 03:30:47			0	37849	0	0	0	21433	20020	162963	26989	1052926	46220	107867	0	0	8201	571807	0	0
2024-10-06 03:31:47			0	37884	0	0	0	21446	20020	162895	27124	1052953	46220	107872	0	0	8203	570396	0	0
2024-10-06 03:32:47			0	37881	0	0	0	21438	20010	162787	27410	1052891	46231	107869	0	0	8203	570549	0	0
2024-10-06 03:33:47			0	37905	0	0	0	21444	20010	162931	27050	1052908	46230	107871	0	0	8204	569583	0	0
2024-10-06 03:34:47			0	37887	0	0	0	21425	20010	162751	27260	1052882	46219	107864	0	0	8203	570307	0	0
2024-10-06 03:35:47			0	37879	0	0	0	21415	20010	162907	26748	1052917	46209	107860	0	0	8203	570629	0	0
2024-10-06 03:36:47			0	37868	0	0	0	21423	20010	162955	27500	1052828	46208	107863	0	0	8202	571072	0	0
2024-10-06 03:37:47			0	37869	0	0	0	21423	20000	162875	27192	1052864	46218	107863	0	0	8202	571064	0	0
2024-10-06 03:38:47			0	37853	0	0	0	21420	20000	162935	26972	1052926	46219	107862	0	0	8201	571709	0	0
2024-10-06 03:39:47			0	37857	0	0	0	21420	19990	162995	26842	1052828	46228	107862	0	0	8202	571579	0	0
2024-10-06 03:40:47			0	37852	0	0	0	21436	20000	163035	27098	1052864	46218	107868	0	0	8201	571749	0	0
2024-10-06 03:41:47			0	37844	0	0	0	21428	20000	162987	27170	1052820	46230	107865	0	0	8201	572072	0	0
2024-10-06 03:42:47			0	37852	0	0	0	21423	20000	163047	26956	1052864	46218	107863	0	0	8201	571749	0	0
2024-10-06 03:43:47			0	37854	0	0	0	21433	20000	162951	26961	1052864	46229	107867	0	0	8201	571668	0	0
2024-10-06 03:44:47			0	37852	0	0	0	21425	19990	162991	26991	1052855	46228	107864	0	0	8201	571781	0	0
2024-10-06 03:45:47			0	37867	0	0	0	21423	20020	162951	27189	1052926	46220	107863	0	0	8202	571081	0	0
2024-10-06 03:46:47			0	37866	0	0	0	21428	20000	162875	27124	1052899	46219	107865	0	0	8202	571185	0	0
2024-10-06 03:47:47			0	37855	0	0	0	21418	20020	162875	27050	1052926	46209	107861	0	0	8202	571565	0	0
2024-10-06 03:48:47			0	37863	0	0	0	21418	20000	162939	27027	1052864	46218	107861	0	0	8202	571306	0	0
2024-10-06 03:49:47			0	37870	0	0	0	21425	20000	162887	26817	1052757	46218	107864	0	0	8202	571023	0	0
2024-10-06 03:50:47			0	37858	0	0	0	21423	19990	162799	27182	1052828	46217	107863	0	0	8202	571539	0	0
2024-10-06 03:51:47			0	37865	0	0	0	21418	19990	162879	26812	1052846	46228	107861	0	0	8202	571256	0	0
2024-10-06 03:52:47			0	37872	0	0	0	21415	20000	163011	26805	1052811	46229	107860	0	0	8203	570943	0	0
2024-10-06 03:53:47			0	37860	0	0	0	21418	20000	162911	27218	1052784	46229	107861	0	0	8202	571426	0	0
2024-10-06 03:54:47			0	37866	0	0	0	21420	20000	162919	26956	1052793	46219	107862	0	0	8202	571185	0	0
2024-10-06 03:55:47			0	37849	0	0	0	21418	20000	163043	27029	1052837	46229	107861	0	0	8201	571870	0	0
2024-10-06 03:56:47			0	37845	0	0	0	21425	19990	163055	27069	1052802	46228	107864	0	0	8201	572063	0	0
2024-10-06 03:57:47			0	37864	0	0	0	21418	20000	162991	27055	1052873	46219	107861	0	0	8202	571265	0	0
2024-10-06 03:58:47			0	37853	0	0	0	21420	20000	162979	26998	1052837	46218	107862	0	0	8201	571709	0	0
2024-10-06 03:59:47			0	37846	0	0	0	21423	19990	162943	26882	1052873	46217	107863	0	0	8201	572023	0	0
2024-10-06 04:00:47			0	37843	0	0	0	21420	19990	163123	26797	1052793	46217	107862	0	0	8201	572144	0	0
2024-10-06 04:01:47			0	37831	0	0	0	21415	20000	162943	27067	1052837	46229	107860	0	0	8200	572596	0	0
2024-10-06 04:02:47			0	37834	0	0	0	21412	20000	163019	27258	1052837	46208	107859	0	0	8201	572476	0	0
2024-10-06 04:03:47			0	37845	0	0	0	21420	19990	163103	26873	1052828	46228	107862	0	0	8201	572063	0	0
2024-10-06 04:04:47			0	37833	0	0	0	21418	19990	163091	26868	1052793	46217	107861	0	0	8200	572547	0	0
2024-10-06 04:05:47			0	37839	0	0	0	21420	19990	163059	27232	1052802	46217	107862	0	0	8201	572305	0	0
2024-10-06 04:06:47			0	37849	0	0	0	21418	20000	163055	26876	1052784	46229	107861	0	0	8201	571870	0	0
2024-10-06 04:07:47			0	37833	0	0	0	21410	20000	163059	27092	1052837	46229	107858	0	0	8200	572516	0	0
2024-10-06 04:08:47			0	37848	0	0	0	21418	19990	163055	26939	1052855	46228	107861	0	0	8201	571942	0	0
2024-10-06 04:09:47			0	37857	0	0	0	21420	20000	163043	27263	1052811	46208	107862	0	0	8202	571547	0	0
2024-10-06 04:10:47			0	37846	0	0	0	21420	19990	163023	26876	1052802	46228	107862	0	0	8201	572023	0	0
2024-10-06 04:11:47			0	37833	0	0	0	21418	19990	163055	27083	1052855	46207	107861	0	0	8200	572547	0	0
2024-10-06 04:12:47			0	37842	0	0	0	21410	19980	163147	27033	1052784	46217	107858	0	0	8201	572216	0	0
2024-10-06 04:13:47			0	37833	0	0	0	21410	19990	163083	27315	1052828	46217	107858	0	0	8200	572547	0	0
2024-10-06 04:14:47			0	37851	0	0	0	21418	19990	163155	27367	1052766	46228	107861	0	0	8201	571821	0	0
2024-10-06 04:15:47			0	37820	0	0	0	21420	19990	163231	27322	1052828	46217	107862	0	0	8199	573072	0	0
2024-10-06 04:16:47			0	37819	0	0	0	21410	19990	163099	27095	1052793	46207	107858	0	0	8200	573113	0	0
2024-10-06 04:17:47			0	37833	0	0	0	21412	19990	163059	27324	1052793	46228	107859	0	0	8200	572547	0	0
2024-10-06 04:18:47			0	37834	0	0	0	21418	19990	163115	27173	1052793	46228	107861	0	0	8200	572507	0	0
2024-10-06 04:19:47			0	37829	0	0	0	21410	19990	163031	27531	1052819	46240	107858	0	0	8200	572709	0	0
2024-10-06 04:20:47			0	37826	0	0	0	21397	20000	163047	27253	1052837	46229	107853	0	0	8200	572798	0	0
2024-10-06 04:21:47			0	37815	0	0	0	21405	19990	163147	27381	1052793	46217	107856	0	0	8199	573274	0	0
2024-10-06 04:22:47			0	37815	0	0	0	21399	19980	163203	27242	1052757	46217	107854	0	0	8200	573306	0	0
2024-10-06 04:23:47			0	37789	0	0	0	21397	19990	163131	27441	1052766	46228	107853	0	0	8198	574325	0	0
2024-10-06 04:24:47			0	37798	0	0	0	21399	20000	163203	27239	1052811	46218	107854	0	0	8199	573930	0	0
2024-10-06 04:25:47			0	37802	0	0	0	21405	19990	163223	27371	1052766	46207	107856	0	0	8199	573800	0	0
2024-10-06 04:26:47			0	37782	0	0	0	21399	19980	163347	27325	1052775	46227	107854	0	0	8198	574640	0	0
2024-10-06 04:27:47			0	37781	0	0	0	21405	19980	163259	27208	1052731	46207	107856	0	0	8197	574681	0	0
2024-10-06 04:28:47			0	37775	0	0	0	21405	19980	163243	27339	1052775	46206	107856	0	0	8197	574924	0	0
2024-10-06 04:29:47			0	37802	0	0	0	21412	19980	163263	27270	1052784	46217	107859	0	0	8199	573831	0	0
2024-10-06 04:30:47			0	37801	0	0	0	21412	19980	163219	27260	1052748	46216	107859	0	0	8198	573872	0	0
2024-10-06 04:31:47			0	37807	0	0	0	21405	19980	163139	27306	1052784	46217	107856	0	0	8199	573629	0	0
2024-10-06 04:32:47			0	37798	0	0	0	21407	19980	163239	26961	1052837	46217	107857	0	0	8198	573993	0	0
2024-10-06 04:33:47			0	37784	0	0	0	21394	19970	163187	27175	1052766	46194	107852	0	0	8198	574591	0	0
2024-10-06 04:34:47			0	37784	0	0	0	21392	19970	163231	27301	1052793	46205	107851	0	0	8198	574591	0	0
2024-10-06 04:35:47			0	37791	0	0	0	21402	19980	163203	27294	1052722	46216	107855	0	0	8198	574276	0	0
2024-10-06 04:36:47			0	37801	0	0	0	21399	19980	163139	27312	1052775	46227	107854	0	0	8199	573872	0	0
2024-10-06 04:37:47			0	37803	0	0	0	21397	19980	163303	27050	1052722	46227	107853	0	0	8199	573791	0	0
2024-10-06 04:38:47			0	37777	0	0	0	21392	19970	163327	27260	1052739	46215	107851	0	0	8197	574874	0	0
2024-10-06 04:39:47			0	37774	0	0	0	21394	19970	163295	26956	1052713	46215	107852	0	0	8197	574996	0	0
2024-10-06 04:40:47			0	37795	0	0	0	21405	19980	163295	26968	1052722	46227	107856	0	0	8198	574115	0	0
2024-10-06 04:41:47			0	37778	0	0	0	21407	19970	163291	27105	1052713	46226	107857	0	0	8197	574834	0	0
2024-10-06 04:42:47			0	37775	0	0	0	21402	19970	163367	26850	1052677	46226	107855	0	0	8197	574955	0	0
2024-10-06 04:43:47			0	37754	0	0	0	21405	19970	163411	27348	1052730	46226	107856	0	0	8196	575806	0	0
2024-10-06 04:44:47			0	37768	0	0	0	21397	19970	163355	27343	1052766	46215	107853	0	0	8197	575239	0	0
2024-10-06 04:45:47			0	37760	0	0	0	21399	19970	163383	27043	1052713	46215	107854	0	0	8196	575563	0	0
2024-10-06 04:46:47			0	37776	0	0	0	21397	19970	163315	26935	1052793	46226	107853	0	0	8197	574915	0	0
2024-10-06 04:47:47			0	37761	0	0	0	21394	19980	163355	27376	1052748	46206	107852	0	0	8196	575491	0	0
2024-10-06 04:48:47			0	37759	0	0	0	21402	19970	163335	27215	1052704	46215	107855	0	0	8196	575603	0	0
2024-10-06 04:49:47			0	37758	0	0	0	21407	19970	163463	27043	1052660	46215	107857	0	0	8196	575644	0	0
2024-10-06 04:50:47			0	37741	0	0	0	21386	19970	163535	27293	1052739	46205	107849	0	0	8195	576333	0	0
2024-10-06 04:51:47			0	37761	0	0	0	21389	19970	163463	27043	1052650	46215	107850	0	0	8196	575522	0	0
2024-10-06 04:52:47			0	37742	0	0	0	21392	19970	163479	27362	1052713	46215	107851	0	0	8195	576292	0	0
2024-10-06 04:53:47			0	37746	0	0	0	21392	19970	163511	27270	1052757	46215	107851	0	0	8195	576130	0	0
2024-10-06 04:54:47			0	37756	0	0	0	21379	19970	163503	27244	1052677	46215	107846	0	0	8196	575725	0	0
2024-10-06 04:55:47			0	37718	0	0	0	21379	19970	163499	26918	1052677	46215	107846	0	0	8194	577266	0	0
2024-10-06 04:56:47			0	37724	0	0	0	21384	19970	163635	27052	1052730	46226	107848	0	0	8194	577022	0	0
2024-10-06 04:57:47			0	37728	0	0	0	21379	19970	163655	27199	1052730	46215	107846	0	0	8195	576860	0	0
2024-10-06 04:58:47			0	37733	0	0	0	21379	19970	163611	27369	1052704	46215	107846	0	0	8195	576657	0	0
2024-10-06 04:59:47			0	37717	0	0	0	21371	19970	163479	26970	1052704	46205	107843	0	0	8194	577306	0	0
2024-10-06 05:00:47			0	37715	0	0	0	21355	19960	163603	27341	1052615	46214	107837	0	0	8194	577419	0	0
2024-10-06 05:01:47			0	37704	0	0	0	21366	19950	163731	27008	1052650	46213	107841	0	0	8193	577898	0	0
2024-10-06 05:02:47			0	37689	0	0	0	21374	19950	163651	27230	1052686	46214	107844	0	0	8192	578507	0	0
2024-10-06 05:03:47			0	37698	0	0	0	21363	19940	163615	26819	1052588	46213	107840	0	0	8193	578173	0	0
2024-10-06 05:04:47			0	37688	0	0	0	21363	19950	163679	27000	1052571	46224	107840	0	0	8192	578548	0	0
2024-10-06 05:05:47			0	37672	0	0	0	21368	19950	163615	27213	1052597	46213	107842	0	0	8191	579199	0	0
2024-10-06 05:06:47			0	37694	0	0	0	21361	19950	163779	26816	1052624	46213	107839	0	0	8193	578304	0	0
2024-10-06 05:07:47			0	37697	0	0	0	21361	19950	163639	27066	1052650	46203	107839	0	0	8193	578182	0	0
2024-10-06 05:08:47			0	37693	0	0	0	21363	19940	163735	26913	1052588	46224	107840	0	0	8193	578377	0	0
2024-10-06 05:09:47			0	37694	0	0	0	21361	19940	163691	27140	1052606	46212	107839	0	0	8193	578336	0	0
2024-10-06 05:10:47			0	37702	0	0	0	21366	19950	163699	27303	1052597	46213	107841	0	0	8193	577979	0	0
2024-10-06 05:11:47			0	37688	0	0	0	21358	19930	163655	27414	1052624	46223	107838	0	0	8192	578612	0	0
2024-10-06 05:12:47			0	37695	0	0	0	21366	19930	163699	27367	1052570	46223	107841	0	0	8193	578327	0	0
2024-10-06 05:13:47			0	37689	0	0	0	21366	19940	163739	27072	1052588	46224	107841	0	0	8192	578539	0	0
2024-10-06 05:14:47			0	37686	0	0	0	21361	19940	163743	27135	1052615	46213	107839	0	0	8192	578661	0	0
2024-10-06 05:15:47			0	37683	0	0	0	21353	19940	163703	26946	1052606	46212	107836	0	0	8192	578783	0	0
2024-10-06 05:16:47			0	37669	0	0	0	21348	19940	163747	27215	1052615	46224	107834	0	0	8192	579353	0	0
2024-10-06 05:17:47			0	37685	0	0	0	21337	19930	163771	27268	1052570	46223	107830	0	0	8193	578734	0	0
2024-10-06 05:18:47			0	37690	0	0	0	21350	19940	163767	27256	1052579	46212	107835	0	0	8193	578499	0	0
2024-10-06 05:19:47			0	37694	0	0	0	21353	19930	163719	26928	1052561	46201	107836	0	0	8193	578368	0	0
2024-10-06 05:20:47			0	37681	0	0	0	21350	19920	163783	27248	1052499	46210	107835	0	0	8192	578928	0	0
2024-10-06 05:21:47			0	37681	0	0	0	21342	19920	163839	26951	1052490	46221	107832	0	0	8192	578928	0	0
2024-10-06 05:22:47			0	37681	0	0	0	21329	19930	163735	26982	1052544	46202	107827	0	0	8193	578896	0	0
2024-10-06 05:23:47			0	37663	0	0	0	21322	19920	163915	27116	1052473	46200	107824	0	0	8192	579661	0	0
2024-10-06 05:24:47			0	37657	0	0	0	21324	19930	163827	27128	1052508	46211	107825	0	0	8191	579873	0	0
2024-10-06 05:25:47			0	37661	0	0	0	21335	19930	163907	27175	1052429	46201	107829	0	0	8191	579710	0	0
2024-10-06 05:26:47			0	37664	0	0	0	21342	19910	163859	27033	1052482	46210	107832	0	0	8191	579652	0	0
2024-10-06 05:27:47			0	37655	0	0	0	21350	19910	163859	26883	1052499	46199	107835	0	0	8191	580018	0	0
2024-10-06 05:28:47			0	37664	0	0	0	21337	19920	163951	27241	1052499	46210	107830	0	0	8191	579620	0	0
2024-10-06 05:29:47			0	37659	0	0	0	21337	19920	163767	27568	1052517	46210	107830	0	0	8191	579823	0	0
2024-10-06 05:30:47			0	37654	0	0	0	21345	19910	163911	27053	1052455	46210	107833	0	0	8191	580059	0	0
2024-10-06 05:31:47			0	37669	0	0	0	21348	19930	163927	26955	1052561	46201	107834	0	0	8191	579385	0	0
2024-10-06 05:32:47			0	37657	0	0	0	21350	19920	163807	26951	1052490	46210	107835	0	0	8191	579905	0	0
2024-10-06 05:33:47			0	37637	0	0	0	21329	19920	163775	27561	1052490	46221	107827	0	0	8190	580719	0	0
2024-10-06 05:34:47			0	37659	0	0	0	21335	19910	163915	27239	1052508	46210	107829	0	0	8191	579855	0	0
2024-10-06 05:35:47			0	37657	0	0	0	21337	19920	163931	27362	1052517	46200	107830	0	0	8191	579905	0	0
2024-10-06 05:36:47			0	37639	0	0	0	21335	19900	163887	27010	1052464	46198	107829	0	0	8190	580702	0	0
2024-10-06 05:37:47			0	37648	0	0	0	21342	19920	163971	27152	1052517	46210	107832	0	0	8190	580271	0	0
2024-10-06 05:38:47			0	37635	0	0	0	21353	19920	163971	27261	1052464	46221	107836	0	0	8189	580801	0	0
2024-10-06 05:39:47			0	37632	0	0	0	21340	19910	163919	26965	1052482	46221	107831	0	0	8189	580955	0	0
2024-10-06 05:40:47			0	37635	0	0	0	21353	19910	164075	26939	1052482	46221	107836	0	0	8189	580833	0	0
2024-10-06 05:41:47			0	37628	0	0	0	21337	19910	164075	27202	1052499	46209	107830	0	0	8189	581118	0	0
2024-10-06 05:42:47			0	37639	0	0	0	21335	19920	164063	27234	1052464	46200	107829	0	0	8190	580638	0	0
2024-10-06 05:43:47			0	37619	0	0	0	21340	19920	164075	27365	1052544	46210	107831	0	0	8189	581453	0	0
2024-10-06 05:44:47			0	37642	0	0	0	21340	19910	164087	27149	1052482	46200	107831	0	0	8190	580548	0	0
2024-10-06 05:45:47			0	37617	0	0	0	21335	19910	164043	26991	1052482	46200	107829	0	0	8189	581567	0	0
2024-10-06 05:46:47			0	37631	0	0	0	21335	19910	164131	27182	1052473	46209	107829	0	0	8189	580996	0	0
2024-10-06 05:47:47			0	37626	0	0	0	21327	19910	164087	27329	1052482	46210	107826	0	0	8189	581200	0	0
2024-10-06 05:48:47			0	37630	0	0	0	21329	19920	164099	27327	1052437	46200	107827	0	0	8189	581005	0	0
2024-10-06 05:49:47			0	37628	0	0	0	21329	19900	164139	27327	1052411	46208	107827	0	0	8189	581150	0	0
2024-10-06 05:50:47			0	37609	0	0	0	21327	19910	164035	27263	1052482	46210	107826	0	0	8188	581893	0	0
2024-10-06 05:51:47			0	37610	0	0	0	21327	19900	164035	26961	1052411	46208	107826	0	0	8188	581884	0	0
2024-10-06 05:52:47			0	37607	0	0	0	21322	19910	164091	27038	1052446	46209	107824	0	0	8188	581975	0	0
2024-10-06 05:53:47			0	37597	0	0	0	21290	19900	164051	27306	1052411	46208	107812	0	0	8188	582415	0	0
2024-10-06 05:54:47			0	37600	0	0	0	21303	19910	164055	27353	1052420	46199	107817	0	0	8188	582260	0	0
2024-10-06 05:55:47			0	37605	0	0	0	21314	19900	164063	27256	1052437	46198	107821	0	0	8188	582088	0	0
2024-10-06 05:56:47			0	37612	0	0	0	21316	19890	164083	27353	1052419	46198	107822	0	0	8188	581835	0	0
2024-10-06 05:57:47			0	37629	0	0	0	21324	19900	164107	26979	1052349	46208	107825	0	0	8189	581109	0	0
2024-10-06 05:58:47			0	37624	0	0	0	21309	19900	163923	27381	1052411	46219	107819	0	0	8189	581313	0	0
2024-10-06 05:59:47			0	37647	0	0	0	21306	19890	163979	27124	1052384	46186	107818	0	0	8191	580408	0	0
2024-10-06 06:00:47			0	37630	0	0	0	21314	19890	163995	27390	1052393	46219	107821	0	0	8190	581101	0	0
2024-10-06 06:01:47			0	37630	0	0	0	21322	19890	163919	27020	1052419	46208	107824	0	0	8189	581101	0	0
2024-10-06 06:02:47			0	37632	0	0	0	21327	19890	163987	27319	1052410	46218	107826	0	0	8189	581019	0	0
2024-10-06 06:03:47			0	37636	0	0	0	21329	19890	163995	27317	1052366	46208	107827	0	0	8190	580856	0	0
2024-10-06 06:04:47			0	37622	0	0	0	21327	19890	164071	27415	1052393	46219	107826	0	0	8189	581427	0	0
2024-10-06 06:05:47			0	37641	0	0	0	21322	19900	164087	26975	1052455	46230	107824	0	0	8190	580620	0	0
2024-10-06 06:06:47			0	37629	0	0	0	21329	19890	163943	26958	1052366	46208	107827	0	0	8189	581141	0	0
2024-10-06 06:07:47			0	37643	0	0	0	21324	19890	163867	27235	1052393	46219	107825	0	0	8190	580571	0	0
2024-10-06 06:08:47			0	37634	0	0	0	21329	19900	164103	27145	1052402	46208	107827	0	0	8190	580906	0	0
2024-10-06 06:09:47			0	37635	0	0	0	21329	19900	164047	27015	1052375	46208	107827	0	0	8190	580865	0	0
2024-10-06 06:10:47			0	37611	0	0	0	21319	19890	163983	27150	1052446	46208	107823	0	0	8188	581876	0	0
2024-10-06 06:11:47			0	37626	0	0	0	21332	19890	164051	26876	1052446	46219	107828	0	0	8189	581264	0	0
2024-10-06 06:12:47			0	37632	0	0	0	21327	19900	163983	27095	1052349	46208	107826	0	0	8190	580987	0	0
2024-10-06 06:13:47			0	37615	0	0	0	21314	19890	164063	27060	1052419	46208	107821	0	0	8189	581712	0	0
2024-10-06 06:14:47			0	37615	0	0	0	21309	19890	163991	26896	1052410	46208	107819	0	0	8189	581712	0	0
2024-10-06 06:15:47			0	37617	0	0	0	21314	19890	164015	26918	1052340	46198	107821	0	0	8189	581631	0	0
2024-10-06 06:16:47			0	37600	0	0	0	21306	19890	163979	27022	1052366	46219	107818	0	0	8188	582325	0	0
2024-10-06 06:17:47			0	37599	0	0	0	21301	19880	164127	26998	1052348	46207	107816	0	0	8188	582397	0	0
2024-10-06 06:18:47			0	37590	0	0	0	21303	19890	164147	27305	1052331	46197	107817	0	0	8187	582733	0	0
2024-10-06 06:19:47			0	37569	0	0	0	21303	19890	164159	27206	1052357	46197	107817	0	0	8186	583591	0	0
2024-10-06 06:20:47			0	37596	0	0	0	21306	19890	164067	27029	1052331	46208	107818	0	0	8188	582488	0	0
2024-10-06 06:21:47			0	37606	0	0	0	21293	19880	164095	26906	1052286	46207	107813	0	0	8188	582112	0	0
2024-10-06 06:22:47			0	37590	0	0	0	21301	19890	164015	27097	1052331	46208	107816	0	0	8187	582733	0	0
2024-10-06 06:23:47			0	37595	0	0	0	21298	19880	164119	27138	1052348	46207	107815	0	0	8188	582561	0	0
2024-10-06 06:24:47			0	37586	0	0	0	21290	19870	164087	27202	1052357	46207	107812	0	0	8187	582960	0	0
2024-10-06 06:25:47			0	37594	0	0	0	21285	19880	164187	27008	1052269	46207	107810	0	0	8188	582601	0	0
2024-10-06 06:26:47			0	37599	0	0	0	21288	19870	164243	26778	1052268	46195	107811	0	0	8188	582430	0	0
2024-10-06 06:27:47			0	37610	0	0	0	21293	19870	164235	27104	1052277	46196	107813	0	0	8189	581980	0	0
2024-10-06 06:28:47			0	37620	0	0	0	21301	19870	164063	26941	1052322	46216	107816	0	0	8189	581573	0	0
2024-10-06 06:29:47			0	37615	0	0	0	21303	19870	164115	27215	1052304	46207	107817	0	0	8189	581776	0	0
2024-10-06 06:30:47			0	37631	0	0	0	21311	19870	164043	27457	1052357	46217	107820	0	0	8190	581124	0	0
2024-10-06 06:31:47			0	37632	0	0	0	21306	19860	164031	26864	1052286	46205	107818	0	0	8190	581115	0	0
2024-10-06 06:32:47			0	37611	0	0	0	21303	19870	164127	26920	1052277	46207	107817	0	0	8189	581940	0	0
2024-10-06 06:33:47			0	37614	0	0	0	21298	19880	164063	27183	1052260	46196	107815	0	0	8189	581785	0	0
2024-10-06 06:34:47			0	37608	0	0	0	21296	19860	164055	27265	1052233	46205	107814	0	0	8188	582094	0	0
2024-10-06 06:35:47			0	37587	0	0	0	21285	19870	164255	27083	1052304	46217	107810	0	0	8187	582919	0	0
2024-10-06 06:36:47			0	37601	0	0	0	21306	19870	164155	26705	1052304	46207	107818	0	0	8188	582348	0	0
2024-10-06 06:37:47			0	37599	0	0	0	21293	19870	164143	27272	1052295	46206	107813	0	0	8188	582430	0	0
2024-10-06 06:38:47			0	37574	0	0	0	21288	19870	164247	27274	1052322	46195	107811	0	0	8187	583451	0	0
2024-10-06 06:39:47			0	37577	0	0	0	21283	19870	164139	27097	1052215	46216	107809	0	0	8187	583328	0	0
2024-10-06 06:40:47			0	37569	0	0	0	21280	19870	164227	27093	1052251	46196	107808	0	0	8186	583655	0	0
2024-10-06 06:41:47			0	37544	0	0	0	21272	19870	164347	27260	1052215	46195	107805	0	0	8185	584678	0	0
2024-10-06 06:42:47			0	37539	0	0	0	21280	19870	164423	27142	1052198	46207	107808	0	0	8185	584882	0	0
2024-10-06 06:43:47			0	37538	0	0	0	21277	19860	164319	27303	1052180	46194	107807	0	0	8185	584956	0	0
2024-10-06 06:44:47			0	37554	0	0	0	21277	19860	164343	27531	1052251	46193	107807	0	0	8186	584301	0	0
2024-10-06 06:45:47			0	37564	0	0	0	21280	19860	164335	27767	1052180	46215	107808	0	0	8186	583892	0	0
2024-10-06 06:46:47			0	37574	0	0	0	21298	19870	164343	27360	1052268	46206	107815	0	0	8186	583451	0	0
2024-10-06 06:47:47			0	37614	0	0	0	21293	19860	164111	27286	1052233	46205	107813	0	0	8189	581849	0	0
2024-10-06 06:48:47			0	37606	0	0	0	21298	19860	164191	27386	1052233	46205	107815	0	0	8188	582176	0	0
2024-10-06 06:49:47			0	37625	0	0	0	21298	19870	164099	27409	1052295	46216	107815	0	0	8189	581369	0	0
2024-10-06 06:50:47			0	37639	0	0	0	21298	19860	164099	26875	1052251	46204	107815	0	0	8190	580830	0	0
2024-10-06 06:51:47			0	37606	0	0	0	21285	19860	164063	27251	1052286	46194	107810	0	0	8188	582176	0	0
2024-10-06 06:52:47			0	37617	0	0	0	21283	19860	164083	27183	1052277	46214	107809	0	0	8189	581727	0	0
2024-10-06 06:53:47			0	37579	0	0	0	21277	19870	164111	27074	1052251	46207	107807	0	0	8187	583247	0	0
2024-10-06 06:54:47			0	37573	0	0	0	21285	19870	164243	26972	1052215	46216	107810	0	0	8187	583492	0	0
2024-10-06 06:55:47			0	37565	0	0	0	21267	19860	164271	27163	1052197	46204	107803	0	0	8186	583851	0	0
2024-10-06 06:56:47			0	37565	0	0	0	21283	19860	164311	27310	1052260	46205	107809	0	0	8186	583851	0	0
2024-10-06 06:57:47			0	37552	0	0	0	21288	19860	164307	27595	1052251	46214	107811	0	0	8185	584383	0	0
2024-10-06 06:58:47			0	37582	0	0	0	21288	19860	164319	27190	1052304	46204	107811	0	0	8187	583156	0	0
2024-10-06 06:59:47			0	37584	0	0	0	21275	19860	164219	27203	1052251	46204	107806	0	0	8187	583074	0	0
2024-10-06 07:00:47			0	37578	0	0	0	21277	19860	164343	27156	1052251	46204	107807	0	0	8187	583319	0	0
2024-10-06 07:01:47			0	37570	0	0	0	21290	19860	164235	27124	1052224	46204	107812	0	0	8186	583646	0	0
2024-10-06 07:02:47			0	37567	0	0	0	21267	19860	164195	26948	1052206	46215	107803	0	0	8186	583769	0	0
2024-10-06 07:03:47			0	37585	0	0	0	21285	19860	164195	27272	1052233	46205	107810	0	0	8187	583033	0	0
2024-10-06 07:04:47			0	37581	0	0	0	21280	19860	164251	27237	1052277	46204	107808	0	0	8187	583197	0	0
2024-10-06 07:05:47			0	37601	0	0	0	21280	19850	164219	27213	1052242	46204	107808	0	0	8188	582412	0	0
2024-10-06 07:06:47			0	37567	0	0	0	21270	19850	164251	27157	1052153	46204	107804	0	0	8186	583801	0	0
2024-10-06 07:07:47			0	37562	0	0	0	21264	19860	164279	27166	1052233	46194	107802	0	0	8186	583974	0	0
2024-10-06 07:08:47			0	37576	0	0	0	21272	19860	164323	27313	1052197	46193	107805	0	0	8187	583401	0	0
2024-10-06 07:09:47			0	37581	0	0	0	21262	19850	164259	27041	1052162	46204	107801	0	0	8187	583229	0	0
2024-10-06 07:10:47			0	37574	0	0	0	21267	19850	164131	27126	1052180	46204	107803	0	0	8187	583515	0	0
2024-10-06 07:11:47			0	37587	0	0	0	21267	19850	164231	26682	1052162	46214	107803	0	0	8188	582984	0	0
2024-10-06 07:12:47			0	37584	0	0	0	21275	19840	164175	27206	1052171	46203	107806	0	0	8187	583138	0	0
2024-10-06 07:13:47			0	37607	0	0	0	21267	19850	164147	27267	1052242	46204	107803	0	0	8189	582167	0	0
2024-10-06 07:14:47			0	37595	0	0	0	21259	19860	164155	26941	1052206	46194	107800	0	0	8188	582625	0	0
2024-10-06 07:15:47			0	37609	0	0	0	21272	19850	164187	27171	1052215	46193	107805	0	0	8189	582085	0	0
2024-10-06 07:16:47			0	37607	0	0	0	21275	19840	164019	27255	1052171	46192	107806	0	0	8189	582199	0	0
2024-10-06 07:17:47			0	37613	0	0	0	21285	19850	164063	26835	1052162	46204	107810	0	0	8189	581922	0	0
2024-10-06 07:18:47			0	37627	0	0	0	21283	19850	164063	27071	1052259	46204	107809	0	0	8190	581351	0	0
2024-10-06 07:19:47			0	37626	0	0	0	21262	19850	164039	27109	1052189	46204	107801	0	0	8190	581392	0	0
2024-10-06 07:20:47			0	37633	0	0	0	21251	19850	163975	27441	1052189	46204	107797	0	0	8191	581107	0	0
2024-10-06 07:21:47			0	37626	0	0	0	21246	19850	164063	27372	1052189	46193	107795	0	0	8190	581392	0	0
2024-10-06 07:22:47			0	37607	0	0	0	21249	19850	164151	26993	1052153	46204	107796	0	0	8189	582167	0	0
2024-10-06 07:23:47			0	37602	0	0	0	21259	19850	164083	27137	1052206	46193	107800	0	0	8189	582371	0	0
2024-10-06 07:24:47			0	37636	0	0	0	21283	19830	164067	26913	1052126	46202	107809	0	0	8190	581048	0	0
2024-10-06 07:25:47			0	37618	0	0	0	21280	19840	164107	27341	1052135	46212	107808	0	0	8189	581750	0	0
2024-10-06 07:26:47			0	37634	0	0	0	21280	19850	164007	26972	1052153	46193	107808	0	0	8190	581066	0	0
2024-10-06 07:27:47			0	37648	0	0	0	21283	19840	164043	27182	1052171	46203	107809	0	0	8191	580527	0	0
2024-10-06 07:28:47			0	37644	0	0	0	21277	19840	163927	27102	1052197	46203	107807	0	0	8191	580690	0	0
2024-10-06 07:29:47			0	37642	0	0	0	21267	19850	164055	27024	1052206	46204	107803	0	0	8191	580740	0	0
2024-10-06 07:30:47			0	37622	0	0	0	21257	19850	163891	27256	1052153	46193	107799	0	0	8190	581555	0	0
2024-10-06 07:31:47			0	37618	0	0	0	21251	19850	164051	27220	1052206	46204	107797	0	0	8190	581718	0	0
2024-10-06 07:32:47			0	37632	0	0	0	21262	19840	163983	27282	1052161	46202	107801	0	0	8190	581179	0	0
2024-10-06 07:33:47			0	37629	0	0	0	21259	19840	164003	27415	1052197	46192	107800	0	0	8190	581301	0	0
2024-10-06 07:34:47			0	37626	0	0	0	21257	19850	164047	27248	1052135	46204	107799	0	0	8190	581392	0	0
2024-10-06 07:35:47			0	37626	0	0	0	21267	19840	164039	27350	1052171	46192	107803	0	0	8190	581424	0	0
2024-10-06 07:36:47			0	37634	0	0	0	21275	19840	163859	27220	1052171	46213	107806	0	0	8190	581098	0	0
2024-10-06 07:37:47			0	37693	0	0	0	21280	19840	163863	27364	1052161	46212	107808	0	0	8194	578695	0	0
2024-10-06 07:38:47			0	37673	0	0	0	21270	19840	163871	26727	1052215	46191	107804	0	0	8193	579509	0	0
2024-10-06 07:39:47			0	37690	0	0	0	21275	19850	163851	26928	1052206	46204	107806	0	0	8194	578786	0	0
2024-10-06 07:40:47			0	37684	0	0	0	21270	19840	163783	26831	1052215	46212	107804	0	0	8193	579062	0	0
2024-10-06 07:41:47			0	37686	0	0	0	21277	19840	163715	27334	1052197	46203	107807	0	0	8193	578980	0	0
2024-10-06 07:42:47			0	37684	0	0	0	21257	19840	163707	27256	1052144	46203	107799	0	0	8194	579062	0	0
2024-10-06 07:43:47			0	37681	0	0	0	21254	19840	163875	27024	1052161	46202	107798	0	0	8193	579184	0	0
2024-10-06 07:44:47			0	37672	0	0	0	21270	19850	163739	27093	1052153	46214	107804	0	0	8193	579518	0	0
2024-10-06 07:45:47			0	37677	0	0	0	21259	19850	163767	27511	1052153	46204	107800	0	0	8193	579314	0	0
2024-10-06 07:46:47			0	37672	0	0	0	21264	19840	163795	27183	1052188	46223	107802	0	0	8193	579550	0	0
2024-10-06 07:47:47			0	37683	0	0	0	21275	19850	163847	27246	1052233	46193	107806	0	0	8193	579070	0	0
2024-10-06 07:48:47			0	37701	0	0	0	21262	19850	163823	27395	1052153	46204	107801	0	0	8194	578338	0	0
2024-10-06 07:49:47			0	37701	0	0	0	21272	19850	163771	27400	1052242	46204	107805	0	0	8194	578338	0	0
2024-10-06 07:50:47			0	37699	0	0	0	21270	19840	163675	27081	1052144	46213	107804	0	0	8194	578452	0	0
2024-10-06 07:51:47			0	37705	0	0	0	21267	19850	163683	27090	1052180	46214	107803	0	0	8195	578176	0	0
2024-10-06 07:52:47			0	37707	0	0	0	21270	19840	163715	27209	1052161	46191	107804	0	0	8195	578126	0	0
2024-10-06 07:53:47			0	37714	0	0	0	21280	19840	163643	27315	1052197	46213	107808	0	0	8195	577842	0	0
2024-10-06 07:54:47			0	37720	0	0	0	21280	19850	163631	27286	1052189	46193	107808	0	0	8195	577566	0	0
2024-10-06 07:55:47			0	37745	0	0	0	21283	19840	163595	27171	1052135	46212	107809	0	0	8197	576584	0	0
2024-10-06 07:56:47			0	37746	0	0	0	21277	19850	163615	27078	1052206	46204	107807	0	0	8197	576511	0	0
2024-10-06 07:57:47			0	37737	0	0	0	21280	19840	163507	27409	1052188	46212	107808	0	0	8196	576908	0	0
2024-10-06 07:58:47			0	37758	0	0	0	21283	19840	163487	27346	1052118	46192	107809	0	0	8197	576056	0	0
2024-10-06 07:59:47			0	37754	0	0	0	21275	19840	163383	27118	1052171	46203	107806	0	0	8197	576219	0	0
2024-10-06 08:00:47			0	37780	0	0	0	21293	19840	163339	27308	1052197	46203	107813	0	0	8199	575165	0	0
2024-10-06 08:01:47			0	37783	0	0	0	21296	19850	163391	27135	1052233	46204	107814	0	0	8199	575012	0	0
2024-10-06 08:02:47			0	37792	0	0	0	21301	19850	163311	27131	1052215	46225	107816	0	0	8199	574647	0	0
2024-10-06 08:03:47			0	37785	0	0	0	21288	19850	163403	27197	1052242	46204	107811	0	0	8199	574931	0	0
2024-10-06 08:04:47			0	37778	0	0	0	21277	19850	163207	27209	1052215	46214	107807	0	0	8199	575214	0	0
2024-10-06 08:05:47			0	37784	0	0	0	21288	19850	163371	26941	1052242	46214	107811	0	0	8199	574971	0	0
2024-10-06 08:06:47			0	37793	0	0	0	21298	19870	163327	27201	1052295	46206	107815	0	0	8199	574544	0	0
2024-10-06 08:07:47			0	37802	0	0	0	21301	19860	163203	27312	1052251	46225	107816	0	0	8200	574211	0	0
2024-10-06 08:08:47			0	37820	0	0	0	21311	19870	163231	27204	1052322	46206	107820	0	0	8201	573452	0	0
2024-10-06 08:09:47			0	37840	0	0	0	21311	19860	163111	27076	1052313	46215	107820	0	0	8202	572675	0	0
2024-10-06 08:10:47			0	37838	0	0	0	21322	19870	162967	27270	1052348	46216	107824	0	0	8202	572724	0	0
2024-10-06 08:11:47			0	37862	0	0	0	21322	19870	163023	26814	1052384	46207	107824	0	0	8203	571755	0	0
2024-10-06 08:12:47			0	37880	0	0	0	21329	19870	162883	26871	1052357	46228	107827	0	0	8204	571029	0	0
2024-10-06 08:13:47			0	37883	0	0	0	21327	19870	162847	27183	1052401	46216	107826	0	0	8204	570909	0	0
2024-10-06 08:14:47			0	37913	0	0	0	21329	19870	162843	27086	1052410	46217	107827	0	0	8206	569700	0	0
2024-10-06 08:15:47			0	37901	0	0	0	21332	19880	162767	27001	1052393	46207	107828	0	0	8205	570152	0	0
2024-10-06 08:16:47			0	37914	0	0	0	21337	19880	162719	27003	1052419	46217	107830	0	0	8206	569628	0	0
2024-10-06 08:17:47			0	37931	0	0	0	21337	19880	162691	27303	1052428	46228	107830	0	0	8207	568945	0	0
2024-10-06 08:18:47			0	37946	0	0	0	21350	19890	162647	27452	1052419	46208	107835	0	0	8208	568310	0	0
2024-10-06 08:19:47			0	37959	0	0	0	21342	19890	162707	27249	1052499	46230	107832	0	0	8209	567788	0	0
2024-10-06 08:20:47			0	37958	0	0	0	21350	19890	162603	27350	1052552	46219	107835	0	0	8208	567828	0	0
2024-10-06 08:21:47			0	37975	0	0	0	21342	19900	162563	27078	1052535	46208	107832	0	0	8210	567114	0	0
2024-10-06 08:22:47			0	37970	0	0	0	21348	19900	162551	27145	1052508	46219	107834	0	0	8209	567315	0	0
2024-10-06 08:23:47			0	37982	0	0	0	21353	19900	162583	26984	1052464	46230	107836	0	0	8210	566833	0	0
2024-10-06 08:24:47			0	37979	0	0	0	21350	19900	162575	27213	1052517	46208	107835	0	0	8210	566954	0	0
2024-10-06 08:25:47			0	37990	0	0	0	21353	19900	162543	27261	1052517	46230	107836	0	0	8210	566512	0	0
2024-10-06 08:26:47			0	38019	0	0	0	21366	19910	162539	27112	1052588	46210	107841	0	0	8212	565319	0	0
2024-10-06 08:27:47			0	38006	0	0	0	21368	19910	162483	27526	1052535	46210	107842	0	0	8211	565840	0	0
2024-10-06 08:28:47			0	38013	0	0	0	21368	19910	162435	27320	1052535	46210	107842	0	0	8211	565559	0	0
2024-10-06 08:29:47			0	38020	0	0	0	21355	19920	162391	27402	1052579	46232	107837	0	0	8212	565247	0	0
2024-10-06 08:30:47			0	38019	0	0	0	21355	19920	162339	27320	1052606	46210	107837	0	0	8212	565288	0	0
2024-10-06 08:31:47			0	38013	0	0	0	21355	19920	162435	27178	1052544	46210	107837	0	0	8212	565528	0	0
2024-10-06 08:32:47			0	38035	0	0	0	21358	19920	162396	27308	1052597	46200	107838	0	0	8213	564647	0	0
2024-10-06 08:33:47			0	38024	0	0	0	21376	19920	162403	27159	1052553	46210	107845	0	0	8212	565087	0	0
2024-10-06 08:34:47			0	38029	0	0	0	21379	19930	162343	27178	1052624	46202	107846	0	0	8212	564856	0	0
2024-10-06 08:35:47			0	38048	0	0	0	21386	19930	162260	27220	1052668	46222	107849	0	0	8213	564096	0	0
2024-10-06 08:36:47			0	38040	0	0	0	21379	19930	162312	27232	1052641	46222	107846	0	0	8213	564416	0	0
2024-10-06 08:37:47			0	38059	0	0	0	21384	19930	162168	27159	1052650	46212	107848	0	0	8214	563656	0	0
2024-10-06 08:38:47			0	38065	0	0	0	21379	19940	162112	27258	1052712	46223	107846	0	0	8214	563385	0	0
2024-10-06 08:39:47			0	38081	0	0	0	21397	19950	162044	27388	1052659	46225	107853	0	0	8215	562715	0	0
2024-10-06 08:40:47			0	38060	0	0	0	21397	19940	162028	27298	1052641	46213	107853	0	0	8214	563585	0	0
2024-10-06 08:41:47			0	38094	0	0	0	21399	19940	162064	27189	1052695	46224	107854	0	0	8216	562227	0	0
2024-10-06 08:42:47			0	38089	0	0	0	21394	19940	162012	27478	1052739	46235	107852	0	0	8216	562426	0	0
2024-10-06 08:43:47			0	38101	0	0	0	21392	19950	162072	27119	1052757	46213	107851	0	0	8216	561916	0	0
2024-10-06 08:44:47			0	38105	0	0	0	21397	19950	162112	26797	1052677	46224	107853	0	0	8217	561757	0	0
2024-10-06 08:45:47			0	38098	0	0	0	21397	19960	162084	27416	1052721	46236	107853	0	0	8216	562005	0	0
2024-10-06 08:46:47			0	38107	0	0	0	21410	19950	161924	27253	1052739	46204	107858	0	0	8216	561677	0	0
2024-10-06 08:47:47			0	38122	0	0	0	21407	19970	161892	27222	1052783	46226	107857	0	0	8217	561017	0	0
2024-10-06 08:48:47			0	38123	0	0	0	21412	19960	161840	27272	1052774	46204	107859	0	0	8217	561008	0	0
2024-10-06 08:49:47			0	38121	0	0	0	21415	19970	161896	27060	1052730	46226	107860	0	0	8217	561057	0	0
2024-10-06 08:50:47			0	38125	0	0	0	21428	19970	161916	27121	1052810	46215	107865	0	0	8217	560897	0	0
2024-10-06 08:51:47			0	38120	0	0	0	21410	19970	162020	27348	1052872	46205	107858	0	0	8217	561097	0	0
2024-10-06 08:52:47			0	38122	0	0	0	21415	19970	161924	27464	1052846	46226	107860	0	0	8217	561017	0	0
2024-10-06 08:53:47			0	38137	0	0	0	21405	19980	161860	26989	1052802	46216	107856	0	0	8218	560388	0	0
2024-10-06 08:54:47			0	38123	0	0	0	21412	19970	161860	27417	1052793	46215	107859	0	0	8217	560977	0	0
2024-10-06 08:55:47			0	38116	0	0	0	21412	19970	162016	27511	1052783	46226	107859	0	0	8217	561256	0	0
2024-10-06 08:56:47			0	38121	0	0	0	21397	19970	161952	27256	1052766	46215	107853	0	0	8218	561057	0	0
2024-10-06 08:57:47			0	38119	0	0	0	21410	19970	161920	26927	1052819	46205	107858	0	0	8217	561137	0	0
2024-10-06 08:58:47			0	38117	0	0	0	21405	19990	161904	27024	1052873	46217	107856	0	0	8217	561154	0	0
2024-10-06 08:59:47			0	38127	0	0	0	21418	19970	161880	27043	1052766	46226	107861	0	0	8218	560818	0	0
2024-10-06 09:00:47			0	38119	0	0	0	21420	19970	161896	27177	1052819	46205	107862	0	0	8217	561137	0	0
2024-10-06 09:01:47			0	38151	0	0	0	21428	19980	161912	26998	1052864	46217	107865	0	0	8219	559831	0	0
2024-10-06 09:02:47			0	38167	0	0	0	21454	19980	161716	27282	1052908	46216	107875	0	0	8219	559194	0	0
2024-10-06 09:03:47			0	38182	0	0	0	21454	19990	161692	27135	1052873	46217	107875	0	0	8220	558567	0	0
2024-10-06 09:04:47			0	38218	0	0	0	21462	20010	161604	26996	1052961	46263	107878	0	0	8222	557076	0	0
2024-10-06 09:05:47			0	38212	0	0	0	21449	20000	161620	26837	1052997	46229	107873	0	0	8222	557345	0	0
2024-10-06 09:06:47			0	38227	0	0	0	21451	20000	161496	26993	1052917	46229	107874	0	0	8223	556750	0	0
2024-10-06 09:07:47			0	38208	0	0	0	21459	20020	161456	27476	1053006	46231	107877	0	0	8222	557442	0	0
2024-10-06 09:08:47			0	38213	0	0	0	21446	20000	161480	27320	1053006	46219	107872	0	0	8222	557305	0	0
2024-10-06 09:09:47			0	38214	0	0	0	21444	20000	161612	27149	1052952	46219	107871	0	0	8222	557265	0	0
2024-10-06 09:10:47			0	38222	0	0	0	21446	20010	161556	27317	1052961	46219	107872	0	0	8223	556917	0	0
2024-10-06 09:11:47			0	38235	0	0	0	21444	20010	161424	27211	1052988	46208	107871	0	0	8224	556402	0	0
2024-10-06 09:12:47			0	38217	0	0	0	21433	20010	161420	27377	1052935	46230	107867	0	0	8223	557116	0	0
2024-10-06 09:13:47			0	38206	0	0	0	21433	20010	161444	27396	1052988	46242	107867	0	0	8222	557552	0	0
2024-10-06 09:14:47			0	38203	0	0	0	21451	20000	161636	27107	1052952	46219	107874	0	0	8222	557702	0	0
2024-10-06 09:15:47			0	38216	0	0	0	21446	20020	161452	27397	1053006	46220	107872	0	0	8223	557125	0	0
2024-10-06 09:16:47			0	38211	0	0	0	21441	20010	161460	27454	1052988	46208	107870	0	0	8222	557354	0	0
2024-10-06 09:17:47			0	38216	0	0	0	21444	20010	161504	27320	1053023	46220	107871	0	0	8223	557155	0	0
2024-10-06 09:18:47			0	38220	0	0	0	21438	20010	161452	27206	1052961	46219	107869	0	0	8223	556997	0	0
2024-10-06 09:19:47			0	38210	0	0	0	21444	20010	161296	27138	1052997	46220	107871	0	0	8222	557393	0	0
2024-10-06 09:20:47			0	38225	0	0	0	21454	20010	161444	27642	1052997	46243	107875	0	0	8223	556798	0	0
2024-10-06 09:21:47			0	38226	0	0	0	21462	20020	161368	27699	1053041	46221	107878	0	0	8223	556728	0	0
2024-10-06 09:22:47			0	38231	0	0	0	21444	20020	161404	27248	1053006	46231	107871	0	0	8223	556530	0	0
2024-10-06 09:23:47			0	38230	0	0	0	21454	20020	161296	27206	1053006	46220	107875	0	0	8223	556569	0	0
2024-10-06 09:24:47			0	38253	0	0	0	21451	20020	161332	27147	1052962	46232	107874	0	0	8225	555658	0	0
2024-10-06 09:25:47			0	38243	0	0	0	21459	20020	161252	27189	1052953	46231	107877	0	0	8224	556054	0	0
2024-10-06 09:26:47			0	38258	0	0	0	21449	20010	161264	27419	1052970	46231	107873	0	0	8225	555490	0	0
2024-10-06 09:27:47			0	38257	0	0	0	21449	20020	161312	27414	1053041	46210	107873	0	0	8225	555499	0	0
2024-10-06 09:28:47			0	38255	0	0	0	21454	20020	161256	27183	1053032	46220	107875	0	0	8225	555578	0	0
2024-10-06 09:29:47			0	38263	0	0	0	21451	20020	161380	27428	1053068	46232	107874	0	0	8225	555261	0	0
2024-10-06 09:30:47			0	38270	0	0	0	21462	20020	161308	27407	1053068	46221	107878	0	0	8225	554984	0	0
2024-10-06 09:31:47			0	38271	0	0	0	21475	20030	161288	27614	1053077	46221	107883	0	0	8225	554914	0	0
2024-10-06 09:32:47			0	38281	0	0	0	21475	20030	161200	27383	1053103	46210	107883	0	0	8226	554518	0	0
2024-10-06 09:33:47			0	38282	0	0	0	21477	20030	161144	27317	1053103	46221	107884	0	0	8226	554479	0	0
2024-10-06 09:34:47			0	38291	0	0	0	21483	20030	161228	27533	1053077	46221	107886	0	0	8226	554123	0	0
2024-10-06 09:35:47			0	38310	0	0	0	21490	20030	161240	27353	1053139	46233	107889	0	0	8227	553372	0	0
2024-10-06 09:36:47			0	38294	0	0	0	21485	20030	161204	27197	1053086	46222	107887	0	0	8226	554004	0	0
2024-10-06 09:37:47			0	38299	0	0	0	21488	20040	161188	27383	1053148	46222	107888	0	0	8227	553776	0	0
2024-10-06 09:38:47			0	38307	0	0	0	21498	20050	161028	27403	1053228	46224	107892	0	0	8227	553429	0	0
2024-10-06 09:39:47			0	38299	0	0	0	21490	20050	161232	27339	1053166	46223	107889	0	0	8227	553745	0	0
2024-10-06 09:40:47			0	38289	0	0	0	21498	20050	161128	27452	1053192	46223	107892	0	0	8226	554141	0	0
2024-10-06 09:41:47			0	38303	0	0	0	21493	20050	161112	27267	1053192	46234	107890	0	0	8227	553587	0	0
2024-10-06 09:42:47			0	38308	0	0	0	21490	20050	161176	27381	1053228	46235	107889	0	0	8227	553390	0	0
2024-10-06 09:43:47			0	38301	0	0	0	21503	20060	161076	27355	1053184	46224	107894	0	0	8227	553636	0	0
2024-10-06 09:44:47			0	38298	0	0	0	21503	20060	161244	27244	1053184	46224	107894	0	0	8227	553754	0	0
2024-10-06 09:45:47			0	38286	0	0	0	21501	20060	161104	27743	1053184	46235	107893	0	0	8226	554229	0	0
2024-10-06 09:46:47			0	38305	0	0	0	21498	20060	161176	27256	1053263	46224	107892	0	0	8227	553478	0	0
2024-10-06 09:47:47			0	38291	0	0	0	21501	20060	161116	27126	1053246	46236	107893	0	0	8226	554031	0	0
2024-10-06 09:48:47			0	38304	0	0	0	21501	20060	161096	27562	1053237	46235	107893	0	0	8227	553517	0	0
2024-10-06 09:49:47			0	38310	0	0	0	21498	20070	161156	27293	1053228	46237	107892	0	0	8227	553250	0	0
2024-10-06 09:50:47			0	38304	0	0	0	21506	20070	161112	27362	1053308	46226	107895	0	0	8227	553487	0	0
2024-10-06 09:51:47			0	38321	0	0	0	21511	20070	161056	27234	1053281	46237	107897	0	0	8228	552815	0	0
2024-10-06 09:52:47			0	38312	0	0	0	21509	20070	161116	27554	1053370	46226	107896	0	0	8227	553171	0	0
2024-10-06 09:53:47			0	38327	0	0	0	21501	20070	161088	27379	1053263	46237	107893	0	0	8228	552578	0	0
2024-10-06 09:54:47			0	38325	0	0	0	21496	20070	161036	27447	1053255	46237	107891	0	0	8228	552657	0	0
2024-10-06 09:55:47			0	38326	0	0	0	21498	20070	161120	27180	1053317	46215	107892	0	0	8228	552618	0	0
2024-10-06 09:56:47			0	38333	0	0	0	21488	20070	161124	27230	1053281	46237	107888	0	0	8229	552342	0	0
2024-10-06 09:57:47			0	38337	0	0	0	21498	20070	161064	27454	1053281	46249	107892	0	0	8229	552184	0	0
2024-10-06 09:58:47			0	38337	0	0	0	21498	20080	160936	27550	1053352	46227	107892	0	0	8229	552153	0	0
2024-10-06 09:59:47			0	38342	0	0	0	21514	20080	160996	27469	1053325	46227	107898	0	0	8229	551956	0	0
2024-10-06 10:00:47			0	38331	0	0	0	21516	20080	160964	27213	1053308	46238	107899	0	0	8228	552390	0	0
2024-10-06 10:01:47			0	38325	0	0	0	21522	20080	160976	27620	1053325	46227	107901	0	0	8228	552627	0	0
2024-10-06 10:02:47			0	38321	0	0	0	21516	20070	160904	27415	1053290	46237	107899	0	0	8228	552815	0	0
2024-10-06 10:03:47			0	38330	0	0	0	21511	20090	160964	27343	1053343	46239	107897	0	0	8228	552399	0	0
2024-10-06 10:04:47			0	38329	0	0	0	21516	20080	160956	27345	1053299	46238	107899	0	0	8228	552469	0	0
2024-10-06 10:05:47			0	38327	0	0	0	21514	20080	161028	27246	1053352	46216	107898	0	0	8228	552548	0	0
2024-10-06 10:06:47			0	38320	0	0	0	21509	20080	160948	27469	1053352	46227	107896	0	0	8228	552824	0	0
2024-10-06 10:07:47			0	38324	0	0	0	21514	20080	160992	27476	1053352	46238	107898	0	0	8228	552666	0	0
2024-10-06 10:08:47			0	38321	0	0	0	21511	20090	161052	27234	1053423	46228	107897	0	0	8228	552754	0	0
2024-10-06 10:09:47			0	38330	0	0	0	21511	20090	161068	27535	1053370	46228	107897	0	0	8228	552399	0	0
2024-10-06 10:10:47			0	38325	0	0	0	21524	20090	160920	27409	1053370	46239	107902	0	0	8228	552596	0	0
2024-10-06 10:11:47			0	38329	0	0	0	21516	20090	160988	27426	1053370	46217	107899	0	0	8228	552439	0	0
2024-10-06 10:12:47			0	38325	0	0	0	21522	20080	160884	27379	1053334	46227	107901	0	0	8228	552627	0	0
2024-10-06 10:13:47			0	38319	0	0	0	21535	20090	160944	27369	1053370	46228	107906	0	0	8227	552833	0	0
2024-10-06 10:14:47			0	38320	0	0	0	21522	20090	160992	27362	1053353	46228	107901	0	0	8228	552794	0	0
2024-10-06 10:15:47			0	38318	0	0	0	21535	20090	160992	27248	1053343	46239	107906	0	0	8227	552873	0	0
2024-10-06 10:16:47			0	38328	0	0	0	21540	20090	160892	27208	1053379	46250	107908	0	0	8228	552478	0	0
2024-10-06 10:17:47			0	38342	0	0	0	21540	20100	160968	27345	1053468	46240	107908	0	0	8229	551895	0	0
2024-10-06 10:18:47			0	38323	0	0	0	21542	20100	161004	27379	1053441	46229	107909	0	0	8228	552645	0	0
2024-10-06 10:19:47			0	38339	0	0	0	21535	20100	161000	27216	1053415	46240	107906	0	0	8229	552013	0	0
2024-10-06 10:20:47			0	38323	0	0	0	21527	20100	160964	27071	1053388	46229	107903	0	0	8228	552645	0	0
2024-10-06 10:21:47			0	38324	0	0	0	21540	20090	161012	27274	1053406	46239	107908	0	0	8228	552636	0	0
2024-10-06 10:22:47			0	38321	0	0	0	21550	20090	160928	27230	1053370	46239	107912	0	0	8227	552754	0	0
2024-10-06 10:23:47			0	38340	0	0	0	21540	20100	160944	26951	1053397	46240	107908	0	0	8229	551974	0	0
2024-10-06 10:24:47			0	38371	0	0	0	21527	20100	160860	27372	1053424	46229	107903	0	0	8231	550752	0	0
2024-10-06 10:25:47			0	38377	0	0	0	21514	20090	160748	27402	1053406	46239	107898	0	0	8231	550546	0	0
2024-10-06 10:26:47			0	38394	0	0	0	21524	20090	160780	27303	1053406	46217	107902	0	0	8232	549877	0	0
2024-10-06 10:27:47			0	38374	0	0	0	21535	20100	160776	27085	1053424	46218	107906	0	0	8231	550634	0	0
2024-10-06 10:28:47			0	38399	0	0	0	21527	20100	160664	27308	1053397	46218	107903	0	0	8232	549650	0	0
2024-10-06 10:29:47			0	38411	0	0	0	21519	20100	160756	26979	1053415	46229	107900	0	0	8233	549178	0	0
2024-10-06 10:30:47			0	38401	0	0	0	21532	20080	160608	27379	1053334	46238	107905	0	0	8232	549632	0	0
2024-10-06 10:31:47			0	38410	0	0	0	21527	20100	160688	27142	1053388	46240	107903	0	0	8233	549217	0	0
2024-10-06 10:32:47			0	38410	0	0	0	21532	20100	160608	27154	1053424	46229	107905	0	0	8233	549217	0	0
2024-10-06 10:33:47			0	38412	0	0	0	21540	20100	160596	27128	1053441	46218	107908	0	0	8233	549138	0	0
2024-10-06 10:34:47			0	38399	0	0	0	21537	20100	160664	27048	1053450	46251	107907	0	0	8232	549650	0	0
2024-10-06 10:35:47			0	38399	0	0	0	21545	20100	160704	27282	1053424	46240	107910	0	0	8232	549650	0	0
2024-10-06 10:36:47			0	38379	0	0	0	21548	20110	160684	27118	1053433	46230	107911	0	0	8231	550407	0	0
2024-10-06 10:37:47			0	38396	0	0	0	21568	20110	160768	27410	1053512	46242	107919	0	0	8231	549737	0	0
2024-10-06 10:38:47			0	38388	0	0	0	21561	20100	160716	27131	1053494	46240	107916	0	0	8231	550083	0	0
2024-10-06 10:39:47			0	38403	0	0	0	21561	20110	160696	27251	1053468	46242	107916	0	0	8232	549462	0	0
2024-10-06 10:40:47			0	38386	0	0	0	21561	20110	160808	27436	1053495	46230	107916	0	0	8231	550131	0	0
2024-10-06 10:41:47			0	38374	0	0	0	21558	20120	160632	27275	1053504	46243	107915	0	0	8230	550573	0	0
2024-10-06 10:42:47			0	38366	0	0	0	21584	20120	160824	26993	1053459	46244	107925	0	0	8229	550888	0	0
2024-10-06 10:43:47			0	38363	0	0	0	21579	20120	160784	27379	1053557	46264	107923	0	0	8229	551006	0	0
2024-10-06 10:44:47			0	38406	0	0	0	21581	20120	160908	27159	1053504	46253	107924	0	0	8232	549314	0	0
2024-10-06 10:45:47			0	38381	0	0	0	21581	20120	160768	27274	1053566	46244	107924	0	0	8230	550297	0	0
2024-10-06 10:46:47			0	38370	0	0	0	21599	20130	160708	27390	1053654	46254	107931	0	0	8229	550700	0	0
2024-10-06 10:47:47			0	38384	0	0	0	21589	20140	160692	27313	1053672	46255	107927	0	0	8230	550119	0	0
2024-10-06 10:48:47			0	38378	0	0	0	21586	20140	160700	27364	1053681	46246	107926	0	0	8230	550355	0	0
2024-10-06 10:49:47			0	38384	0	0	0	21579	20130	160692	27126	1053557	46254	107923	0	0	8231	550149	0	0
2024-10-06 10:50:47			0	38386	0	0	0	21581	20140	160672	27249	1053592	46244	107924	0	0	8231	550040	0	0
2024-10-06 10:51:47			0	38373	0	0	0	21586	20130	160712	27308	1053716	46232	107926	0	0	8230	550582	0	0
2024-10-06 10:52:47			0	38395	0	0	0	21586	20140	160716	27310	1053601	46234	107926	0	0	8231	549686	0	0
2024-10-06 10:53:47			0	38408	0	0	0	21592	20150	160600	27289	1053646	46246	107928	0	0	8232	549144	0	0
2024-10-06 10:54:47			0	38419	0	0	0	21597	20150	160512	27486	1053663	46256	107930	0	0	8232	548712	0	0
2024-10-06 10:55:47			0	38433	0	0	0	21589	20150	160540	27383	1053646	46256	107927	0	0	8233	548162	0	0
2024-10-06 10:56:47			0	38426	0	0	0	21602	20150	160584	27524	1053690	46234	107932	0	0	8233	548437	0	0
2024-10-06 10:57:47			0	38431	0	0	0	21597	20160	160528	27107	1053708	46235	107930	0	0	8233	548210	0	0
2024-10-06 10:58:47			0	38432	0	0	0	21602	20150	160584	27325	1053752	46256	107932	0	0	8233	548201	0	0
2024-10-06 10:59:47			0	38430	0	0	0	21597	20150	160580	27523	1053672	46246	107930	0	0	8233	548280	0	0
2024-10-06 11:00:47			0	38465	0	0	0	21599	20160	160460	27289	1053734	46257	107931	0	0	8235	546876	0	0
2024-10-06 11:01:47			0	38457	0	0	0	21607	20160	160456	27293	1053761	46257	107934	0	0	8235	547190	0	0
2024-10-06 11:02:47			0	38460	0	0	0	21605	20160	160280	27474	1053788	46224	107933	0	0	8235	547072	0	0
2024-10-06 11:03:47			0	38481	0	0	0	21615	20160	160212	27459	1053788	46247	107937	0	0	8236	546249	0	0
2024-10-06 11:04:47			0	38515	0	0	0	21623	20160	160216	27578	1053823	46248	107940	0	0	8238	544917	0	0
2024-10-06 11:05:47			0	38514	0	0	0	21620	20180	160196	27206	1053850	46259	107939	0	0	8238	544896	0	0
2024-10-06 11:06:47			0	38518	0	0	0	21633	20180	160232	27126	1053823	46249	107944	0	0	8238	544739	0	0
2024-10-06 11:07:47			0	38526	0	0	0	21628	20170	160160	27308	1053894	46259	107942	0	0	8238	544457	0	0
2024-10-06 11:08:47			0	38532	0	0	0	21636	20180	160076	27509	1053797	46249	107945	0	0	8239	544192	0	0
2024-10-06 11:09:47			0	38544	0	0	0	21628	20190	160116	27433	1053841	46239	107942	0	0	8239	543693	0	0
2024-10-06 11:10:47			0	38567	0	0	0	21628	20190	160004	27277	1053841	46239	107942	0	0	8241	542795	0	0
2024-10-06 11:11:47			0	38540	0	0	0	21625	20190	159984	27471	1053841	46261	107941	0	0	8239	543849	0	0
2024-10-06 11:12:47			0	38536	0	0	0	21633	20190	160124	27621	1053974	46250	107944	0	0	8239	544006	0	0
2024-10-06 11:13:47			0	38515	0	0	0	21631	20180	160124	27145	1053859	46271	107943	0	0	8238	544857	0	0
2024-10-06 11:14:47			0	38492	0	0	0	21641	20190	160252	27261	1053894	46261	107947	0	0	8236	545727	0	0
2024-10-06 11:15:47			0	38474	0	0	0	21636	20200	160240	27441	1053939	46261	107945	0	0	8235	546402	0	0
2024-10-06 11:16:47			0	38509	0	0	0	21646	20200	160340	27428	1053939	46250	107949	0	0	8237	545032	0	0
2024-10-06 11:17:47			0	38508	0	0	0	21638	20200	160316	27646	1053912	46239	107946	0	0	8237	545071	0	0
2024-10-06 11:18:47			0	38498	0	0	0	21641	20190	160348	27001	1053983	46250	107947	0	0	8236	545492	0	0
2024-10-06 11:19:47			0	38498	0	0	0	21646	20200	160272	27253	1053992	46261	107949	0	0	8236	545462	0	0
2024-10-06 11:20:47			0	38479	0	0	0	21649	20200	160224	27585	1053965	46228	107950	0	0	8235	546206	0	0
2024-10-06 11:21:47			0	38480	0	0	0	21657	20190	160088	27637	1053930	46250	107953	0	0	8235	546197	0	0
2024-10-06 11:22:47			0	38481	0	0	0	21667	20210	160288	27448	1054010	46274	107957	0	0	8235	546098	0	0
2024-10-06 11:23:47			0	38490	0	0	0	21664	20210	160184	27258	1054072	46241	107956	0	0	8236	545745	0	0
2024-10-06 11:24:47			0	38498	0	0	0	21675	20220	160280	27564	1054037	46253	107960	0	0	8236	545402	0	0
2024-10-06 11:25:47			0	38531	0	0	0	21667	20210	160240	27341	1054045	46252	107957	0	0	8238	544141	0	0
2024-10-06 11:26:47			0	38544	0	0	0	21670	20220	160040	27362	1054055	46252	107958	0	0	8239	543603	0	0
2024-10-06 11:27:47			0	38562	0	0	0	21672	20230	159992	27469	1054099	46265	107959	0	0	8240	542870	0	0
2024-10-06 11:28:47			0	38592	0	0	0	21683	20220	159876	27159	1054081	46274	107963	0	0	8241	541730	0	0
2024-10-06 11:29:47			0	38583	0	0	0	21683	20230	159864	27409	1054073	46254	107963	0	0	8241	542051	0	0
2024-10-06 11:30:47			0	38586	0	0	0	21688	20220	159780	27365	1054064	46242	107965	0	0	8241	541964	0	0
2024-10-06 11:31:47			0	38567	0	0	0	21680	20230	159912	27829	1054135	46265	107962	0	0	8240	542675	0	0
2024-10-06 11:32:47			0	38560	0	0	0	21685	20240	159960	27604	1054117	46254	107964	0	0	8240	542918	0	0
2024-10-06 11:33:47			0	38580	0	0	0	21690	20240	160004	27364	1054153	46255	107966	0	0	8241	542138	0	0
2024-10-06 11:34:47			0	38552	0	0	0	21690	20240	159956	27568	1054206	46266	107966	0	0	8239	543230	0	0
2024-10-06 11:35:47			0	38569	0	0	0	21690	20250	160052	27505	1054188	46256	107966	0	0	8240	542537	0	0
2024-10-06 11:36:47			0	38564	0	0	0	21696	20240	160020	27405	1054197	46265	107968	0	0	8240	542762	0	0
2024-10-06 11:37:47			0	38576	0	0	0	21693	20240	160008	27698	1054170	46243	107967	0	0	8240	542294	0	0
2024-10-06 11:38:47			0	38558	0	0	0	21706	20240	160068	27727	1054153	46255	107972	0	0	8239	542996	0	0
2024-10-06 11:39:47			0	38558	0	0	0	21709	20260	160096	27338	1054197	46257	107973	0	0	8239	542936	0	0
2024-10-06 11:40:47			0	38576	0	0	0	21724	20270	160028	27272	1054241	46257	107979	0	0	8240	542204	0	0
2024-10-06 11:41:47			0	38593	0	0	0	21711	20270	159976	27433	1054224	46258	107974	0	0	8241	541541	0	0
2024-10-06 11:42:47			0	38602	0	0	0	21711	20270	159816	27613	1054268	46268	107974	0	0	8242	541190	0	0
2024-10-06 11:43:47			0	38606	0	0	0	21724	20270	159836	27222	1054250	46280	107979	0	0	8242	541035	0	0
2024-10-06 11:44:47			0	38626	0	0	0	21724	20270	159800	27301	1054303	46269	107979	0	0	8243	540256	0	0
2024-10-06 11:45:47			0	38623	0	0	0	21719	20270	159764	27588	1054295	46268	107977	0	0	8243	540373	0	0
2024-10-06 11:46:47			0	38625	0	0	0	21724	20280	159740	27137	1054348	46259	107979	0	0	8243	540265	0	0
2024-10-06 11:47:47			0	38642	0	0	0	21724	20270	159732	27185	1054303	46258	107979	0	0	8244	539633	0	0
2024-10-06 11:48:47			0	38661	0	0	0	21714	20290	159596	27332	1054357	46270	107975	0	0	8245	538835	0	0
2024-10-06 11:49:47			0	38656	0	0	0	21740	20290	159636	27256	1054277	46259	107985	0	0	8244	539030	0	0
2024-10-06 11:50:47			0	38641	0	0	0	21729	20300	159640	27511	1054410	46261	107981	0	0	8244	539583	0	0
2024-10-06 11:51:47			0	38645	0	0	0	21735	20280	159636	27218	1054321	46259	107983	0	0	8244	539487	0	0
2024-10-06 11:52:47			0	38633	0	0	0	21742	20290	159656	27358	1054339	46250	107986	0	0	8243	539924	0	0
2024-10-06 11:53:47			0	38622	0	0	0	21740	20300	159672	27416	1054384	46261	107985	0	0	8243	540322	0	0
2024-10-06 11:54:47			0	38639	0	0	0	21750	20300	159676	27431	1054455	46250	107989	0	0	8243	539661	0	0
2024-10-06 11:55:47			0	38631	0	0	0	21748	20290	159696	27396	1054392	46260	107988	0	0	8243	540002	0	0
2024-10-06 11:56:47			0	38652	0	0	0	21745	20290	159484	27448	1054392	46271	107987	0	0	8244	539185	0	0
2024-10-06 11:57:47			0	38668	0	0	0	21753	20300	159564	27637	1054410	46250	107990	0	0	8245	538534	0	0
2024-10-06 11:58:47			0	38671	0	0	0	21735	20310	159488	27454	1054446	46250	107983	0	0	8246	538387	0	0
2024-10-06 11:59:47			0	38668	0	0	0	21714	20310	159440	27666	1054508	46262	107975	0	0	8246	538504	0	0
2024-10-06 12:00:47			0	38656	0	0	0	21706	20320	159520	27355	1054437	46252	107972	0	0	8245	538940	0	0
2024-10-06 12:01:47			0	38643	0	0	0	21716	20300	159588	27557	1054437	46250	107976	0	0	8244	539505	0	0
2024-10-06 12:02:47			0	38640	0	0	0	21709	20310	159680	27576	1054375	46251	107973	0	0	8244	539592	0	0
2024-10-06 12:03:47			0	38622	0	0	0	21703	20300	159824	27589	1054455	46250	107971	0	0	8243	540322	0	0
2024-10-06 12:04:47			0	38583	0	0	0	21706	20300	159872	27268	1054384	46250	107972	0	0	8241	541841	0	0
2024-10-06 12:05:47			0	38576	0	0	0	21709	20300	159768	27352	1054330	46250	107973	0	0	8240	542114	0	0
2024-10-06 12:06:47			0	38563	0	0	0	21706	20300	159964	27805	1054428	46250	107972	0	0	8240	542621	0	0
2024-10-06 12:07:47			0	38584	0	0	0	21703	20300	159980	27403	1054375	46250	107971	0	0	8241	541802	0	0
2024-10-06 12:08:47			0	38545	0	0	0	21706	20300	159984	27606	1054330	46250	107972	0	0	8239	543324	0	0
2024-10-06 12:09:47			0	38549	0	0	0	21711	20300	160088	27504	1054322	46261	107974	0	0	8239	543168	0	0
2024-10-06 12:10:47			0	38547	0	0	0	21709	20290	160008	27279	1054366	46260	107973	0	0	8239	543276	0	0
2024-10-06 12:11:47			0	38553	0	0	0	21724	20290	159948	27476	1054313	46250	107979	0	0	8239	543041	0	0
2024-10-06 12:12:47			0	38542	0	0	0	21719	20300	159992	27729	1054375	46250	107977	0	0	8238	543441	0	0
2024-10-06 12:13:47			0	38534	0	0	0	21722	20300	160068	27258	1054401	46250	107978	0	0	8238	543753	0	0
2024-10-06 12:14:47			0	38543	0	0	0	21719	20300	160124	27367	1054410	46250	107977	0	0	8238	543402	0	0
2024-10-06 12:15:47			0	38547	0	0	0	21709	20300	159996	27407	1054410	46261	107973	0	0	8239	543246	0	0
2024-10-06 12:16:47			0	38545	0	0	0	21711	20290	160032	27580	1054392	46271	107974	0	0	8238	543354	0	0
2024-10-06 12:17:47			0	38546	0	0	0	21703	20290	160076	27355	1054366	46260	107971	0	0	8239	543315	0	0
2024-10-06 12:18:47			0	38547	0	0	0	21703	20300	160044	27703	1054375	46250	107971	0	0	8239	543246	0	0
2024-10-06 12:19:47			0	38535	0	0	0	21709	20290	160000	27083	1054383	46249	107973	0	0	8238	543744	0	0
2024-10-06 12:20:47			0	38558	0	0	0	21701	20290	160036	27644	1054339	46260	107970	0	0	8239	542846	0	0
2024-10-06 12:21:47			0	38586	0	0	0	21709	20300	160028	27282	1054375	46250	107973	0	0	8241	541724	0	0
2024-10-06 12:22:47			0	38577	0	0	0	21706	20290	159996	27459	1054392	46238	107972	0	0	8240	542105	0	0
2024-10-06 12:23:47			0	38583	0	0	0	21703	20290	159872	27802	1054304	46249	107971	0	0	8241	541871	0	0
2024-10-06 12:24:47			0	38563	0	0	0	21701	20290	160028	27320	1054330	46249	107970	0	0	8240	542651	0	0
2024-10-06 12:25:47			0	38573	0	0	0	21696	20290	159928	27163	1054313	46271	107968	0	0	8240	542261	0	0
2024-10-06 12:26:47			0	38557	0	0	0	21693	20290	159908	27384	1054330	46249	107967	0	0	8239	542885	0	0
2024-10-06 12:27:47			0	38548	0	0	0	21685	20280	159964	27407	1054348	46237	107964	0	0	8239	543267	0	0
2024-10-06 12:28:47			0	38545	0	0	0	21690	20290	160016	27301	1054313	46250	107966	0	0	8239	543354	0	0
2024-10-06 12:29:47			0	38549	0	0	0	21698	20280	160048	27303	1054268	46249	107969	0	0	8239	543228	0	0
2024-10-06 12:30:47			0	38540	0	0	0	21693	20290	160112	27235	1054277	46249	107967	0	0	8239	543549	0	0
2024-10-06 12:31:47			0	38535	0	0	0	21698	20280	160072	27462	1054321	46259	107969	0	0	8238	543774	0	0
2024-10-06 12:32:47			0	38541	0	0	0	21693	20280	159944	27509	1054321	46259	107967	0	0	8239	543540	0	0
2024-10-06 12:33:47			0	38544	0	0	0	21698	20280	159952	27112	1054268	46259	107969	0	0	8239	543423	0	0
2024-10-06 12:34:47			0	38569	0	0	0	21698	20280	159912	27137	1054268	46249	107969	0	0	8240	542447	0	0
2024-10-06 12:35:47			0	38546	0	0	0	21703	20280	159940	27644	1054206	46237	107971	0	0	8239	543345	0	0
2024-10-06 12:36:47			0	38578	0	0	0	21701	20280	159792	27211	1054312	46249	107970	0	0	8241	542096	0	0
2024-10-06 12:37:47			0	38590	0	0	0	21698	20280	159852	27642	1054286	46259	107969	0	0	8241	541628	0	0
2024-10-06 12:38:47			0	38609	0	0	0	21703	20280	159760	27661	1054259	46259	107971	0	0	8242	540888	0	0
2024-10-06 12:39:47			0	38624	0	0	0	21706	20280	159776	27064	1054312	46249	107972	0	0	8243	540304	0	0
2024-10-06 12:40:47			0	38619	0	0	0	21714	20280	159724	27303	1054312	46259	107975	0	0	8243	540499	0	0
2024-10-06 12:41:47			0	38634	0	0	0	21711	20280	159724	27027	1054295	46259	107974	0	0	8244	539915	0	0
2024-10-06 12:42:47			0	38630	0	0	0	21703	20280	159756	27497	1054375	46270	107971	0	0	8244	540070	0	0
2024-10-06 12:43:47			0	38648	0	0	0	21706	20280	159596	27505	1054312	46259	107972	0	0	8245	539370	0	0
2024-10-06 12:44:47			0	38643	0	0	0	21709	20280	159656	27725	1054295	46259	107973	0	0	8244	539565	0	0
2024-10-06 12:45:47			0	38633	0	0	0	21706	20290	159516	27562	1054304	46249	107972	0	0	8244	539924	0	0
2024-10-06 12:46:47			0	38624	0	0	0	21711	20280	159712	27203	1054321	46249	107974	0	0	8243	540304	0	0
2024-10-06 12:47:47			0	38648	0	0	0	21722	20280	159596	27464	1054312	46259	107978	0	0	8244	539370	0	0
2024-10-06 12:48:47			0	38632	0	0	0	21714	20280	159612	27649	1054348	46259	107975	0	0	8243	539993	0	0
2024-10-06 12:49:47			0	38652	0	0	0	21706	20300	159584	27495	1054428	46261	107972	0	0	8245	539155	0	0
2024-10-06 12:50:47			0	38671	0	0	0	21711	20280	159568	27396	1054401	46270	107974	0	0	8246	538476	0	0
2024-10-06 12:51:47			0	38663	0	0	0	21703	20290	159436	27564	1054339	46271	107971	0	0	8246	538758	0	0
2024-10-06 12:52:47			0	38672	0	0	0	21716	20290	159376	27235	1054330	46249	107976	0	0	8246	538408	0	0
2024-10-06 12:53:47			0	38693	0	0	0	21722	20300	159364	27154	1054375	46250	107978	0	0	8247	537563	0	0
2024-10-06 12:54:47			0	38704	0	0	0	21727	20290	159464	27251	1054392	46271	107980	0	0	8247	537166	0	0
2024-10-06 12:55:47			0	38714	0	0	0	21732	20280	159388	27547	1054401	46259	107982	0	0	8248	536808	0	0
2024-10-06 12:56:47			0	38696	0	0	0	21729	20290	159380	27466	1054419	46260	107981	0	0	8247	537476	0	0
2024-10-06 12:57:47			0	38707	0	0	0	21753	20300	159252	27355	1054463	46261	107990	0	0	8247	537020	0	0
2024-10-06 12:58:47			0	38709	0	0	0	21758	20310	159264	27750	1054499	46272	107992	0	0	8247	536913	0	0
2024-10-06 12:59:47			0	38704	0	0	0	21753	20310	159292	27436	1054579	46272	107990	0	0	8247	537107	0	0
2024-10-06 13:00:47			0	38714	0	0	0	21758	20310	159264	27554	1054526	46261	107992	0	0	8248	536719	0	0
2024-10-06 13:01:47			0	38725	0	0	0	21753	20310	159281	27147	1054481	46273	107990	0	0	8248	536293	0	0
2024-10-06 13:02:47			0	38723	0	0	0	21763	20320	159281	27672	1054552	46264	107994	0	0	8248	536341	0	0
2024-10-06 13:03:47			0	38736	0	0	0	21758	20320	159149	27530	1054543	46263	107992	0	0	8249	535837	0	0
2024-10-06 13:04:47			0	38757	0	0	0	21758	20330	159101	27391	1054535	46264	107992	0	0	8250	534995	0	0
2024-10-06 13:05:47			0	38766	0	0	0	21768	20330	159149	27126	1054597	46275	107996	0	0	8251	534647	0	0
2024-10-06 13:06:47			0	38784	0	0	0	21815	20330	158981	27118	1054614	46264	108014	0	0	8251	533951	0	0
2024-10-06 13:07:47			0	38842	0	0	0	21825	20340	158877	27518	1054659	46276	108018	0	0	8254	531684	0	0
2024-10-06 13:08:47			0	38899	0	0	0	21888	20350	158693	27524	1054739	46298	108042	0	0	8256	529460	0	0
2024-10-06 13:09:47			0	39022	0	0	0	21914	20360	158293	27675	1054881	46299	108052	0	0	8263	524716	0	0
2024-10-06 13:10:47			0	39034	0	0	0	21846	20380	158089	27545	1054979	46314	108026	0	0	8265	524199	0	0
2024-10-06 13:11:47			0	39041	0	0	0	21870	20390	158065	27466	1054961	46303	108035	0	0	8265	523902	0	0
2024-10-06 13:12:47			0	39067	0	0	0	21945	20400	157961	27479	1054979	46303	108064	0	0	8265	522881	0	0
2024-10-06 13:13:47			0	39073	0	0	0	21940	20400	157957	27566	1055095	46305	108062	0	0	8266	522652	0	0
2024-10-06 13:14:47			0	39079	0	0	0	21937	20430	158001	27457	1055113	46296	108061	0	0	8266	522337	0	0
2024-10-06 13:15:47			0	39107	0	0	0	21948	20430	157809	27590	1055193	46296	108065	0	0	8268	521270	0	0
2024-10-06 13:16:47			0	39128	0	0	0	21971	20430	157749	27341	1055202	46296	108074	0	0	8269	520470	0	0
2024-10-06 13:17:47			0	39107	0	0	0	21976	20450	157725	27454	1055255	46310	108076	0	0	8267	521212	0	0
2024-10-06 13:18:47			0	39084	0	0	0	21968	20460	157821	27362	1055353	46322	108073	0	0	8266	522059	0	0
2024-10-06 13:19:47			0	39085	0	0	0	21945	20470	157805	27405	1055371	46312	108064	0	0	8267	521993	0	0
2024-10-06 13:20:47			0	39100	0	0	0	21961	20480	157717	27980	1055371	46291	108070	0	0	8267	521392	0	0
2024-10-06 13:21:47			0	39111	0	0	0	21973	20490	157729	27365	1055433	46314	108075	0	0	8268	520945	0	0
2024-10-06 13:22:47			0	39115	0	0	0	21979	20500	157669	27248	1055434	46282	108077	0	0	8268	520763	0	0
2024-10-06 13:23:47			0	39120	0	0	0	21979	20500	157677	27490	1055425	46303	108077	0	0	8268	520573	0	0
2024-10-06 13:24:47			0	39162	0	0	0	21992	20500	157537	27490	1055451	46292	108082	0	0	8271	518977	0	0
2024-10-06 13:25:47			0	39167	0	0	0	21989	20520	157457	27301	1055407	46305	108081	0	0	8271	518730	0	0
2024-10-06 13:26:47			0	39177	0	0	0	21986	20520	157365	27149	1055514	46305	108080	0	0	8272	518350	0	0
2024-10-06 13:27:47			0	39195	0	0	0	21997	20510	157385	27384	1055478	46284	108084	0	0	8272	517696	0	0
2024-10-06 13:28:47			0	39213	0	0	0	21994	20530	157317	27079	1055531	46306	108083	0	0	8274	516956	0	0
2024-10-06 13:29:47			0	39205	0	0	0	21984	20530	157313	27308	1055594	46296	108079	0	0	8273	517259	0	0
2024-10-06 13:30:47			0	39199	0	0	0	21989	20530	157241	27355	1055514	46286	108081	0	0	8273	517487	0	0
2024-10-06 13:31:47			0	39204	0	0	0	21984	20530	157277	27279	1055567	46296	108079	0	0	8273	517298	0	0
2024-10-06 13:32:47			0	39178	0	0	0	21976	20550	157353	27128	1055585	46297	108076	0	0	8272	518226	0	0
2024-10-06 13:33:47			0	39174	0	0	0	21981	20540	157449	27111	1055549	46287	108078	0	0	8272	518407	0	0
2024-10-06 13:34:47			0	39161	0	0	0	21968	20530	157457	27552	1055514	46296	108073	0	0	8271	518929	0	0
2024-10-06 13:35:47			0	39169	0	0	0	21976	20550	157329	27518	1055594	46276	108076	0	0	8271	518568	0	0
2024-10-06 13:36:47			0	39152	0	0	0	21976	20550	157469	27428	1055647	46297	108076	0	0	8270	519213	0	0
2024-10-06 13:37:47			0	39171	0	0	0	21973	20560	157373	27552	1055629	46288	108075	0	0	8272	518463	0	0
2024-10-06 13:38:47			0	39174	0	0	0	21986	20550	157385	27329	1055594	46287	108080	0	0	8272	518378	0	0
2024-10-06 13:39:47			0	39188	0	0	0	21997	20550	157129	27486	1055647	46287	108084	0	0	8272	517847	0	0
2024-10-06 13:40:47			0	39203	0	0	0	21999	20560	157209	27365	1055603	46277	108085	0	0	8273	517250	0	0
2024-10-06 13:41:47			0	39220	0	0	0	21989	20560	157149	27500	1055629	46298	108081	0	0	8274	516605	0	0
2024-10-06 13:42:47			0	39194	0	0	0	21986	20560	157245	27509	1055665	46278	108080	0	0	8273	517591	0	0
2024-10-06 13:43:47			0	39206	0	0	0	21976	20560	157189	27421	1055629	46277	108076	0	0	8274	517136	0	0
2024-10-06 13:44:47			0	39183	0	0	0	21997	20560	157253	27573	1055665	46289	108084	0	0	8272	518008	0	0
2024-10-06 13:45:47			0	39212	0	0	0	22005	20560	157049	27521	1055612	46289	108087	0	0	8273	516908	0	0
2024-10-06 13:46:47			0	39241	0	0	0	22002	20560	157081	27566	1055745	46299	108086	0	0	8275	515811	0	0
2024-10-06 13:47:47			0	39269	0	0	0	22010	20570	156945	27607	1055736	46299	108089	0	0	8277	514723	0	0
2024-10-06 13:48:47			0	39259	0	0	0	22007	20570	156849	27407	1055709	46289	108088	0	0	8276	515101	0	0
2024-10-06 13:49:47			0	39269	0	0	0	22007	20580	156829	27661	1055780	46291	108088	0	0	8277	514695	0	0
2024-10-06 13:50:47			0	39254	0	0	0	21999	20580	156997	27377	1055798	46290	108085	0	0	8276	515262	0	0
2024-10-06 13:51:47			0	39249	0	0	0	22018	20580	157025	27495	1055718	46300	108092	0	0	8275	515451	0	0
2024-10-06 13:52:47			0	39264	0	0	0	22038	20580	156849	27317	1055745	46290	108100	0	0	8276	514884	0	0
2024-10-06 13:53:47			0	39314	0	0	0	22036	20590	156809	27360	1055763	46291	108099	0	0	8279	512968	0	0
2024-10-06 13:54:47			0	39323	0	0	0	22049	20590	156677	27547	1055799	46325	108104	0	0	8279	512628	0	0
2024-10-06 13:55:47			0	39350	0	0	0	22062	20590	156545	27679	1055949	46291	108109	0	0	8281	511611	0	0
2024-10-06 13:56:47			0	39405	0	0	0	22067	20600	156449	27360	1055887	46313	108111	0	0	8284	509514	0	0
2024-10-06 13:57:47			0	39380	0	0	0	22049	20610	156513	27267	1055959	46303	108104	0	0	8283	510426	0	0
2024-10-06 13:58:47			0	39356	0	0	0	22038	20610	156477	27659	1055905	46303	108100	0	0	8281	511329	0	0
2024-10-06 13:59:47			0	39355	0	0	0	22059	20620	156553	27256	1055950	46293	108108	0	0	8281	511338	0	0
2024-10-06 14:00:47			0	39373	0	0	0	22062	20620	156465	27282	1055985	46294	108109	0	0	8282	510661	0	0
2024-10-06 14:01:47			0	39418	0	0	0	22090	20610	156318	27308	1055941	46304	108120	0	0	8284	508998	0	0
2024-10-06 14:02:47			0	39479	0	0	0	22096	20620	156114	27260	1056039	46305	108122	0	0	8288	506683	0	0
2024-10-06 14:03:47			0	39472	0	0	0	22083	20620	156146	27521	1056065	46317	108117	0	0	8287	506945	0	0
2024-10-06 14:04:47			0	39454	0	0	0	22067	20640	156102	27360	1056039	46306	108111	0	0	8287	507563	0	0
2024-10-06 14:05:47			0	39408	0	0	0	22054	20640	156321	27447	1056039	46306	108106	0	0	8284	509289	0	0
2024-10-06 14:06:47			0	39410	0	0	0	22080	20630	156393	27753	1056003	46329	108116	0	0	8284	509242	0	0
2024-10-06 14:07:47			0	39435	0	0	0	22088	20650	156366	27562	1056066	46308	108119	0	0	8285	508247	0	0
2024-10-06 14:08:47			0	39413	0	0	0	22072	20650	156209	27523	1056136	46308	108113	0	0	8284	509073	0	0
2024-10-06 14:09:47			0	39399	0	0	0	22062	20650	156381	27795	1056110	46297	108109	0	0	8284	509599	0	0
2024-10-06 14:10:47			0	39365	0	0	0	22064	20650	156505	27402	1056145	46297	108110	0	0	8282	510877	0	0
2024-10-06 14:11:47			0	39372	0	0	0	22049	20660	156493	27498	1056181	46298	108104	0	0	8282	510585	0	0
2024-10-06 14:12:47			0	39318	0	0	0	22033	20650	156645	27566	1056145	46308	108098	0	0	8280	512647	0	0
2024-10-06 14:13:47			0	39320	0	0	0	22041	20640	156681	27412	1056101	46296	108101	0	0	8279	512600	0	0
2024-10-06 14:14:47			0	39328	0	0	0	22033	20650	156669	27826	1056110	46297	108098	0	0	8280	512270	0	0
2024-10-06 14:15:47			0	39298	0	0	0	22033	20660	156729	27637	1056128	46288	108098	0	0	8278	513372	0	0
2024-10-06 14:16:47			0	39295	0	0	0	22041	20650	156745	27663	1056136	46297	108101	0	0	8278	513514	0	0
2024-10-06 14:17:47			0	39311	0	0	0	22041	20650	156713	27670	1056057	46297	108101	0	0	8279	512911	0	0
2024-10-06 14:18:47			0	39287	0	0	0	22036	20650	156853	27608	1056057	46308	108099	0	0	8278	513816	0	0
2024-10-06 14:19:47			0	39271	0	0	0	22038	20650	156909	27473	1056083	46320	108100	0	0	8277	514420	0	0
2024-10-06 14:20:47			0	39247	0	0	0	22020	20650	156989	27675	1056066	46297	108093	0	0	8276	515327	0	0
2024-10-06 14:21:47			0	39219	0	0	0	22023	20650	157053	27428	1056030	46297	108094	0	0	8274	516386	0	0
2024-10-06 14:22:47			0	39202	0	0	0	22010	20650	157085	27859	1056066	46308	108089	0	0	8273	517030	0	0
2024-10-06 14:23:47			0	39186	0	0	0	22007	20650	157165	27466	1056030	46297	108088	0	0	8272	517636	0	0
2024-10-06 14:24:47			0	39172	0	0	0	22007	20640	157245	27673	1056048	46275	108088	0	0	8271	518196	0	0
2024-10-06 14:25:47			0	39143	0	0	0	22005	20640	157225	27822	1055915	46296	108087	0	0	8270	519296	0	0
2024-10-06 14:26:47			0	39137	0	0	0	22012	20630	157289	27383	1055950	46285	108090	0	0	8269	519553	0	0
2024-10-06 14:27:47			0	39134	0	0	0	22010	20640	157325	27500	1055986	46285	108089	0	0	8269	519638	0	0
2024-10-06 14:28:47			0	39125	0	0	0	21994	20630	157353	27595	1055897	46295	108083	0	0	8269	520009	0	0
2024-10-06 14:29:47			0	39108	0	0	0	22007	20620	157321	27339	1055852	46273	108088	0	0	8268	520684	0	0
2024-10-06 14:30:47			0	39117	0	0	0	22010	20620	157421	27417	1055852	46294	108089	0	0	8268	520342	0	0
2024-10-06 14:31:47			0	39115	0	0	0	22031	20620	157457	27732	1055923	46283	108097	0	0	8268	520418	0	0
2024-10-06 14:32:47			0	39142	0	0	0	22028	20630	157377	27656	1055941	46284	108096	0	0	8269	519363	0	0
2024-10-06 14:33:47			0	39127	0	0	0	22020	20620	157309	27495	1055923	46293	108093	0	0	8269	519962	0	0
2024-10-06 14:34:47			0	39139	0	0	0	22020	20620	157397	27495	1055879	46294	108093	0	0	8269	519506	0	0
2024-10-06 14:35:47			0	39134	0	0	0	22012	20620	157397	27696	1055923	46316	108090	0	0	8269	519696	0	0
2024-10-06 14:36:47			0	39123	0	0	0	22020	20620	157441	27677	1055879	46294	108093	0	0	8268	520114	0	0
2024-10-06 14:37:47			0	39122	0	0	0	22025	20620	157501	27623	1056012	46294	108095	0	0	8268	520152	0	0
2024-10-06 14:38:47			0	39124	0	0	0	22018	20620	157341	27583	1055932	46294	108092	0	0	8268	520076	0	0
2024-10-06 14:39:47			0	39172	0	0	0	22098	20630	157501	27519	1056048	46294	108123	0	0	8270	518224	0	0
2024-10-06 14:40:47			0	39226	0	0	0	22059	20620	157013	27460	1056012	46328	108108	0	0	8274	516207	0	0
2024-10-06 14:41:47			0	39256	0	0	0	22101	20640	156921	27594	1056065	46329	108124	0	0	8275	515015	0	0
2024-10-06 14:42:47			0	39352	0	0	0	22088	20630	156601	27753	1056110	46329	108119	0	0	8280	511423	0	0
2024-10-06 14:43:47			0	39334	0	0	0	22062	20630	156665	27562	1056083	46306	108109	0	0	8280	512100	0	0
2024-10-06 14:44:47			0	39291	0	0	0	22049	20650	156821	27703	1056083	46308	108104	0	0	8278	513665	0	0
2024-10-06 14:45:47			0	39272	0	0	0	22041	20650	156897	27788	1056083	46308	108101	0	0	8277	514382	0	0
2024-10-06 14:46:47			0	39228	0	0	0	22028	20640	157021	27758	1056048	46319	108096	0	0	8274	516074	0	0
2024-10-06 14:47:47			0	39203	0	0	0	22031	20640	157061	27486	1056012	46285	108097	0	0	8273	517021	0	0
2024-10-06 14:48:47			0	39201	0	0	0	22033	20630	157145	27376	1056003	46295	108098	0	0	8273	517125	0	0
2024-10-06 14:49:47			0	39171	0	0	0	22036	20630	157137	27466	1056030	46274	108099	0	0	8271	518262	0	0
2024-10-06 14:50:47			0	39191	0	0	0	22038	20640	157121	27258	1056039	46295	108100	0	0	8272	517475	0	0
2024-10-06 14:51:47			0	39193	0	0	0	22046	20640	157137	27618	1056039	46285	108103	0	0	8272	517400	0	0
2024-10-06 14:52:47			0	39205	0	0	0	22044	20630	157065	27502	1056003	46274	108102	0	0	8273	516973	0	0
2024-10-06 14:53:47			0	39229	0	0	0	22059	20630	156969	27514	1056003	46295	108108	0	0	8274	516065	0	0
2024-10-06 14:54:47			0	39251	0	0	0	22044	20640	156893	27594	1056021	46319	108102	0	0	8275	515204	0	0
2024-10-06 14:55:47			0	39220	0	0	0	22046	20640	156965	26870	1056101	46307	108103	0	0	8274	516377	0	0
2024-10-06 14:56:47			0	39235	0	0	0	22054	20650	156961	26996	1056136	46297	108106	0	0	8274	515781	0	0
2024-10-06 14:57:47			0	39193	0	0	0	22015	20640	157117	27031	1056021	46307	108091	0	0	8273	517400	0	0
2024-10-06 14:58:47			0	39155	0	0	0	22005	20640	157213	27289	1055959	46306	108087	0	0	8271	518841	0	0
2024-10-06 14:59:47			0	39149	0	0	0	22012	20640	157277	27033	1055959	46306	108090	0	0	8270	519069	0	0
2024-10-06 15:00:47			0	39140	0	0	0	22025	20630	157349	27268	1055941	46305	108095	0	0	8269	519439	0	0
2024-10-06 15:01:47			0	39134	0	0	0	22046	20620	157313	27041	1055950	46293	108103	0	0	8269	519696	0	0
2024-10-06 15:02:47			0	39199	0	0	0	22080	20630	157085	27081	1055968	46294	108116	0	0	8272	517201	0	0
2024-10-06 15:03:47			0	39272	0	0	0	22085	20620	156869	27095	1056012	46317	108118	0	0	8276	514468	0	0
2024-10-06 15:04:47			0	39290	0	0	0	22080	20620	156821	27001	1055985	46328	108116	0	0	8277	513788	0	0
2024-10-06 15:05:47			0	39304	0	0	0	22072	20630	156733	27215	1056110	46306	108113	0	0	8278	513231	0	0
2024-10-06 15:06:47			0	39313	0	0	0	22072	20640	156661	26927	1056065	46306	108113	0	0	8279	512864	0	0
2024-10-06 15:07:47			0	39327	0	0	0	22098	20640	156573	27265	1056101	46319	108123	0	0	8279	512336	0	0
2024-10-06 15:08:47			0	39368	0	0	0	22106	20650	156473	27038	1056119	46297	108126	0	0	8281	510764	0	0
2024-10-06 15:09:47			0	39375	0	0	0	22085	20660	156413	26873	1056181	46309	108118	0	0	8282	510473	0	0
2024-10-06 15:10:47			0	39353	0	0	0	22064	20650	156553	26897	1056199	46308	108110	0	0	8281	511328	0	0
2024-10-06 15:11:47			0	39350	0	0	0	22067	20650	156633	26920	1056145	46320	108111	0	0	8281	511441	0	0
2024-10-06 15:12:47			0	39333	0	0	0	22070	20640	156585	27360	1056101	46307	108112	0	0	8280	512110	0	0
2024-10-06 15:13:47			0	39346	0	0	0	22098	20660	156581	27083	1056181	46298	108123	0	0	8280	511564	0	0
2024-10-06 15:14:47			0	39350	0	0	0	22103	20660	156369	27066	1056128	46332	108125	0	0	8280	511413	0	0
2024-10-06 15:15:47			0	39372	0	0	0	22106	20660	156317	26951	1056181	46309	108126	0	0	8281	510585	0	0
2024-10-06 15:16:47			0	39367	0	0	0	22072	20660	156401	27083	1056208	46321	108113	0	0	8282	510773	0	0
2024-10-06 15:17:47			0	39335	0	0	0	22051	20660	156561	27078	1056181	46309	108105	0	0	8280	511978	0	0
2024-10-06 15:18:47			0	39280	0	0	0	22046	20660	156757	27178	1056163	46298	108103	0	0	8277	514052	0	0
2024-10-06 15:19:47			0	39224	0	0	0	22062	20670	156969	27147	1056172	46310	108109	0	0	8274	516140	0	0
2024-10-06 15:20:47			0	39226	0	0	0	22064	20660	156925	27086	1056101	46298	108110	0	0	8274	516093	0	0
2024-10-06 15:21:47			0	39230	0	0	0	22070	20660	156881	27118	1056137	46298	108112	0	0	8274	515941	0	0
2024-10-06 15:22:47			0	39251	0	0	0	22070	20670	156841	27215	1056234	46310	108112	0	0	8275	515119	0	0
2024-10-06 15:23:47			0	39255	0	0	0	22067	20670	156813	26965	1056172	46310	108111	0	0	8275	514968	0	0
2024-10-06 15:24:47			0	39244	0	0	0	22067	20660	156833	26847	1056190	46298	108111	0	0	8275	515412	0	0
2024-10-06 15:25:47			0	39269	0	0	0	22064	20670	156757	27138	1056146	46299	108110	0	0	8276	514439	0	0
2024-10-06 15:26:47			0	39280	0	0	0	22088	20670	156773	27046	1056172	46310	108119	0	0	8276	514023	0	0
2024-10-06 15:27:47			0	39316	0	0	0	22098	20670	156505	27074	1056208	46310	108123	0	0	8278	512665	0	0
2024-10-06 15:28:47			0	39362	0	0	0	22098	20670	156525	27171	1056234	46310	108123	0	0	8281	510933	0	0
2024-10-06 15:29:47			0	39375	0	0	0	22101	20670	156493	27178	1056226	46299	108124	0	0	8282	510444	0	0
2024-10-06 15:30:47			0	39393	0	0	0	22106	20670	156217	27244	1056261	46299	108126	0	0	8283	509768	0	0
2024-10-06 15:31:47			0	39441	0	0	0	22116	20670	156186	27352	1056279	46299	108130	0	0	8285	507966	0	0
2024-10-06 15:32:47			0	39477	0	0	0	22106	20680	155918	27301	1056226	46300	108126	0	0	8288	506590	0	0
2024-10-06 15:33:47			0	39504	0	0	0	22111	20670	155874	27197	1056261	46322	108128	0	0	8289	505607	0	0
2024-10-06 15:34:47			0	39498	0	0	0	22116	20690	155918	26927	1056341	46301	108130	0	0	8289	505776	0	0
2024-10-06 15:35:47			0	39511	0	0	0	22114	20680	155914	27383	1056323	46300	108129	0	0	8289	505318	0	0
2024-10-06 15:36:47			0	39529	0	0	0	22119	20680	155894	27178	1056252	46300	108131	0	0	8290	504645	0	0
2024-10-06 15:37:47			0	39541	0	0	0	22114	20690	155794	27062	1056314	46301	108129	0	0	8291	504169	0	0
2024-10-06 15:38:47			0	39549	0	0	0	22119	20690	155814	27336	1056368	46301	108131	0	0	8292	503871	0	0
2024-10-06 15:39:47			0	39583	0	0	0	22109	20680	155714	27079	1056243	46300	108127	0	0	8294	502630	0	0
2024-10-06 15:40:47			0	39611	0	0	0	22127	20690	155514	27190	1056314	46301	108134	0	0	8295	501560	0	0
2024-10-06 15:41:47			0	39631	0	0	0	22122	20680	155510	27135	1056332	46333	108132	0	0	8296	500844	0	0
2024-10-06 15:42:47			0	39674	0	0	0	22135	20690	155394	27672	1056288	46324	108137	0	0	8299	499218	0	0
2024-10-06 15:43:47			0	39676	0	0	0	22127	20690	155246	27698	1056323	46312	108134	0	0	8299	499144	0	0
2024-10-06 15:44:47			0	39622	0	0	0	22122	20700	155510	27374	1056465	46313	108132	0	0	8296	501123	0	0
2024-10-06 15:45:47			0	39593	0	0	0	22090	20700	155626	27353	1056332	46302	108120	0	0	8295	502202	0	0
2024-10-06 15:46:47			0	39533	0	0	0	22080	20700	155678	27659	1056368	46326	108116	0	0	8291	504440	0	0
2024-10-06 15:47:47			0	39505	0	0	0	22085	20710	155906	27274	1056324	46314	108118	0	0	8290	505458	0	0
2024-10-06 15:48:47			0	39476	0	0	0	22083	20700	155898	27126	1056315	46282	108117	0	0	8288	506571	0	0
2024-10-06 15:49:47			0	39467	0	0	0	22093	20690	156054	27268	1056297	46301	108121	0	0	8287	506936	0	0
2024-10-06 15:50:47			0	39498	0	0	0	22106	20680	155938	27573	1056306	46311	108126	0	0	8289	505804	0	0
2024-10-06 15:51:47			0	39538	0	0	0	22124	20690	155730	27331	1056350	46301	108133	0	0	8291	504281	0	0
2024-10-06 15:52:47			0	39615	0	0	0	22145	20690	155538	27699	1056297	46312	108141	0	0	8295	501411	0	0
2024-10-06 15:53:47			0	39688	0	0	0	22155	20700	155258	27511	1056412	46325	108145	0	0	8299	498671	0	0
2024-10-06 15:54:47			0	39741	0	0	0	22158	20700	155014	27410	1056368	46326	108146	0	0	8302	496707	0	0
2024-10-06 15:55:47			0	39788	0	0	0	22148	20710	154830	27282	1056430	46303	108142	0	0	8305	494942	0	0
2024-10-06 15:56:47			0	39781	0	0	0	22137	20710	154786	27594	1056457	46314	108138	0	0	8305	495200	0	0
2024-10-06 15:57:47			0	39744	0	0	0	22122	20710	155010	27343	1056430	46326	108132	0	0	8303	496569	0	0
2024-10-06 15:58:47			0	39684	0	0	0	22109	20710	155158	27545	1056403	46303	108127	0	0	8300	498792	0	0
2024-10-06 15:59:47			0	39653	0	0	0	22124	20710	155310	27201	1056386	46303	108133	0	0	8298	499943	0	0
2024-10-06 16:00:47			0	39658	0	0	0	22124	20720	155334	27187	1056422	46304	108133	0	0	8298	499729	0	0
2024-10-06 16:01:47			0	39637	0	0	0	22116	20700	155426	27203	1056395	46314	108130	0	0	8297	500565	0	0
2024-10-06 16:02:47			0	39635	0	0	0	22122	20720	155414	27289	1056448	46315	108132	0	0	8297	500584	0	0
2024-10-06 16:03:47			0	39660	0	0	0	22129	20720	155306	26946	1056448	46304	108135	0	0	8298	499655	0	0
2024-10-06 16:04:47			0	39691	0	0	0	22140	20710	155114	26951	1056386	46303	108139	0	0	8300	498532	0	0
2024-10-06 16:05:47			0	39732	0	0	0	22140	20720	155030	27116	1056395	46315	108139	0	0	8302	496985	0	0
2024-10-06 16:06:47			0	39726	0	0	0	22127	20720	154942	27281	1056422	46315	108134	0	0	8302	497207	0	0
2024-10-06 16:07:47			0	39685	0	0	0	22106	20710	155254	26991	1056403	46292	108126	0	0	8300	498755	0	0
2024-10-06 16:08:47			0	39657	0	0	0	22109	20710	155174	27093	1056386	46314	108127	0	0	8298	499794	0	0
2024-10-06 16:09:47			0	39644	0	0	0	22093	20710	155374	27331	1056439	46314	108121	0	0	8298	500277	0	0
2024-10-06 16:10:47			0	39579	0	0	0	22080	20710	155474	27566	1056403	46292	108116	0	0	8294	502696	0	0
2024-10-06 16:11:47			0	39581	0	0	0	22096	20700	155546	27097	1056341	46303	108122	0	0	8294	502649	0	0
2024-10-06 16:12:47			0	39574	0	0	0	22093	20700	155530	27466	1056332	46313	108121	0	0	8294	502910	0	0
2024-10-06 16:13:47			0	39569	0	0	0	22101	20710	155526	27196	1056377	46303	108124	0	0	8293	503069	0	0
2024-10-06 16:14:47			0	39576	0	0	0	22096	20700	155622	27393	1056332	46302	108122	0	0	8294	502836	0	0
2024-10-06 16:15:47			0	39605	0	0	0	22111	20690	155530	27460	1056270	46301	108128	0	0	8295	501783	0	0
2024-10-06 16:16:47			0	39680	0	0	0	22122	20690	155238	27587	1056261	46312	108132	0	0	8299	498995	0	0
2024-10-06 16:17:47			0	39701	0	0	0	22106	20700	155246	27332	1056359	46313	108126	0	0	8301	498189	0	0
2024-10-06 16:18:47			0	39701	0	0	0	22111	20700	155066	27398	1056341	46303	108128	0	0	8301	498189	0	0
2024-10-06 16:19:47			0	39689	0	0	0	22101	20690	155086	27646	1056297	46301	108124	0	0	8300	498662	0	0
2024-10-06 16:20:47			0	39718	0	0	0	22098	20690	155090	27402	1056350	46312	108123	0	0	8302	497586	0	0
2024-10-06 16:21:47			0	39708	0	0	0	22098	20700	155246	27398	1056359	46302	108123	0	0	8301	497929	0	0
2024-10-06 16:22:47			0	39705	0	0	0	22096	20690	155222	27332	1056297	46312	108122	0	0	8301	498068	0	0
2024-10-06 16:23:47			0	39647	0	0	0	22085	20690	155358	27322	1056314	46312	108118	0	0	8298	500221	0	0
2024-10-06 16:24:47			0	39647	0	0	0	22093	20690	155390	27685	1056270	46312	108121	0	0	8298	500221	0	0
2024-10-06 16:25:47			0	39641	0	0	0	22103	20700	155502	27242	1056332	46302	108125	0	0	8297	500416	0	0
2024-10-06 16:26:47			0	39629	0	0	0	22103	20690	155406	27163	1056297	46301	108125	0	0	8296	500890	0	0
2024-10-06 16:27:47			0	39670	0	0	0	22111	20680	155278	27296	1056332	46300	108128	0	0	8299	499394	0	0
2024-10-06 16:28:47			0	39648	0	0	0	22096	20690	155362	27355	1056288	46312	108122	0	0	8298	500184	0	0
2024-10-06 16:29:47			0	39620	0	0	0	22093	20690	155494	27293	1056244	46301	108121	0	0	8296	501225	0	0
2024-10-06 16:30:47			0	39618	0	0	0	22093	20670	155538	27293	1056288	46299	108121	0	0	8296	501355	0	0
2024-10-06 16:31:47			0	39657	0	0	0	22122	20690	155378	27066	1056297	46301	108132	0	0	8298	499849	0	0
2024-10-06 16:32:47			0	39633	0	0	0	22093	20690	155434	27017	1056288	46312	108121	0	0	8297	500741	0	0
2024-10-06 16:33:47			0	39654	0	0	0	22111	20690	155442	27232	1056270	46312	108128	0	0	8298	499961	0	0
2024-10-06 16:34:47			0	39713	0	0	0	22114	20670	155174	27341	1056314	46299	108129	0	0	8301	497827	0	0
2024-10-06 16:35:47			0	39772	0	0	0	22109	20690	154938	27203	1056394	46312	108127	0	0	8305	495588	0	0
2024-10-06 16:36:47			0	39851	0	0	0	22106	20680	154606	27308	1056306	46290	108126	0	0	8309	492699	0	0
2024-10-06 16:37:47			0	39877	0	0	0	22109	20690	154562	27274	1056350	46312	108127	0	0	8311	491715	0	0
2024-10-06 16:38:47			0	39875	0	0	0	22096	20690	154522	27012	1056261	46291	108122	0	0	8311	491788	0	0
2024-10-06 16:39:47			0	39880	0	0	0	22093	20690	154518	27334	1056341	46301	108121	0	0	8311	491604	0	0
2024-10-06 16:40:47			0	39902	0	0	0	22096	20680	154334	27291	1056306	46290	108122	0	0	8312	490822	0	0
2024-10-06 16:41:47			0	39922	0	0	0	22101	20680	154418	27379	1056297	46300	108124	0	0	8313	490087	0	0
2024-10-06 16:42:47			0	39861	0	0	0	22098	20690	154422	27291	1056261	46324	108123	0	0	8310	492304	0	0
2024-10-06 16:43:47			0	39878	0	0	0	22101	20680	154426	27296	1056199	46323	108124	0	0	8311	491705	0	0
2024-10-06 16:44:47			0	39887	0	0	0	22103	20680	154466	27554	1056350	46311	108125	0	0	8311	491374	0	0
2024-10-06 16:45:47			0	39906	0	0	0	22103	20690	154354	27554	1056288	46301	108125	0	0	8312	490648	0	0
2024-10-06 16:46:47			0	39840	0	0	0	22083	20680	154606	27573	1056243	46311	108117	0	0	8309	493105	0	0
2024-10-06 16:47:47			0	39785	0	0	0	22090	20680	154750	27734	1056279	46311	108120	0	0	8306	495135	0	0
2024-10-06 16:48:47			0	39798	0	0	0	22098	20690	154882	27810	1056297	46301	108123	0	0	8306	494627	0	0
2024-10-06 16:49:47			0	39777	0	0	0	22093	20680	154770	27306	1056226	46311	108121	0	0	8305	495430	0	0
2024-10-06 16:50:47			0	39777	0	0	0	22093	20670	154894	27350	1056261	46310	108121	0	0	8305	495458	0	0
2024-10-06 16:51:47			0	39750	0	0	0	22085	20680	154898	27345	1056217	46311	108118	0	0	8304	496429	0	0
2024-10-06 16:52:47			0	39754	0	0	0	22093	20670	154970	27306	1056226	46310	108121	0	0	8304	496308	0	0
2024-10-06 16:53:47			0	39757	0	0	0	22103	20670	154946	27358	1056234	46299	108125	0	0	8304	496197	0	0
2024-10-06 16:54:47			0	39768	0	0	0	22093	20680	154934	27774	1056279	46300	108121	0	0	8305	495763	0	0
2024-10-06 16:55:47			0	39777	0	0	0	22096	20670	154834	27241	1056279	46322	108122	0	0	8305	495458	0	0
2024-10-06 16:56:47			0	39795	0	0	0	22101	20670	154670	27255	1056226	46289	108124	0	0	8306	494793	0	0
2024-10-06 16:57:47			0	39824	0	0	0	22101	20680	154642	27319	1056323	46311	108124	0	0	8308	493695	0	0
2024-10-06 16:58:47			0	39838	0	0	0	22096	20670	154650	27255	1056208	46310	108122	0	0	8309	493206	0	0
2024-10-06 16:59:47			0	39834	0	0	0	22096	20670	154622	27024	1056279	46310	108122	0	0	8308	493353	0	0
2024-10-06 17:00:47			0	39845	0	0	0	22098	20670	154618	27190	1056261	46310	108123	0	0	8309	492948	0	0
2024-10-06 17:01:47			0	39873	0	0	0	22096	20680	154606	27286	1056252	46300	108122	0	0	8311	491889	0	0
2024-10-06 17:02:47			0	39837	0	0	0	22090	20680	154702	27391	1056217	46300	108120	0	0	8309	493215	0	0
2024-10-06 17:03:47			0	39820	0	0	0	22093	20670	154734	27178	1056288	46322	108121	0	0	8308	493870	0	0
2024-10-06 17:04:47			0	39764	0	0	0	22085	20670	154874	27261	1056261	46310	108118	0	0	8304	495938	0	0
2024-10-06 17:05:47			0	39755	0	0	0	22085	20670	154986	26961	1056172	46310	108118	0	0	8304	496271	0	0
2024-10-06 17:06:47			0	39741	0	0	0	22085	20670	155142	27041	1056252	46310	108118	0	0	8303	496789	0	0
2024-10-06 17:07:47			0	39717	0	0	0	22085	20670	155086	27421	1056181	46322	108118	0	0	8302	497679	0	0
2024-10-06 17:08:47			0	39697	0	0	0	22088	20670	155130	27597	1056279	46299	108119	0	0	8301	498420	0	0
2024-10-06 17:09:47			0	39704	0	0	0	22088	20660	155094	27251	1056217	46298	108119	0	0	8301	498188	0	0
2024-10-06 17:10:47			0	39702	0	0	0	22075	20660	155082	27268	1056190	46309	108114	0	0	8301	498262	0	0
2024-10-06 17:11:47			0	39668	0	0	0	22067	20670	155226	27372	1056261	46310	108111	0	0	8299	499496	0	0
2024-10-06 17:12:47			0	39638	0	0	0	22051	20670	155302	27377	1056172	46310	108105	0	0	8298	500611	0	0
2024-10-06 17:13:47			0	39626	0	0	0	22067	20670	155458	27307	1056172	46299	108111	0	0	8297	501057	0	0
2024-10-06 17:14:47			0	39622	0	0	0	22062	20660	155542	27197	1056101	46298	108109	0	0	8297	501234	0	0
2024-10-06 17:15:47			0	39599	0	0	0	22057	20650	155566	27038	1056092	46287	108107	0	0	8295	502118	0	0
2024-10-06 17:16:47			0	39591	0	0	0	22057	20660	155558	27348	1056101	46288	108107	0	0	8295	502388	0	0
2024-10-06 17:17:47			0	39567	0	0	0	22064	20660	155642	26937	1056101	46298	108110	0	0	8293	503283	0	0
2024-10-06 17:18:47			0	39577	0	0	0	22051	20660	155578	27118	1056101	46298	108105	0	0	8294	502910	0	0
2024-10-06 17:19:47			0	39603	0	0	0	22059	20650	155622	27187	1056057	46308	108108	0	0	8296	501969	0	0
2024-10-06 17:20:47			0	39594	0	0	0	22059	20640	155526	26963	1056074	46296	108108	0	0	8295	502332	0	0
2024-10-06 17:21:47			0	39618	0	0	0	22059	20650	155470	27121	1056110	46308	108108	0	0	8296	501410	0	0
2024-10-06 17:22:47			0	39608	0	0	0	22051	20650	155438	27355	1056092	46287	108105	0	0	8296	501783	0	0
2024-10-06 17:23:47			0	39636	0	0	0	22036	20640	155474	27251	1056065	46295	108099	0	0	8298	500768	0	0
2024-10-06 17:24:47			0	39610	0	0	0	22020	20640	155530	27435	1056048	46286	108093	0	0	8297	501736	0	0
2024-10-06 17:25:47			0	39593	0	0	0	21999	20630	155622	27393	1055870	46295	108085	0	0	8296	502397	0	0
2024-10-06 17:26:47			0	39543	0	0	0	21961	20630	155746	27355	1055888	46284	108070	0	0	8294	504262	0	0
2024-10-06 17:27:47			0	39480	0	0	0	21940	20610	155894	27473	1055808	46272	108062	0	0	8290	506673	0	0
2024-10-06 17:28:47			0	39468	0	0	0	21932	20600	156110	27431	1055737	46271	108059	0	0	8290	507151	0	0
2024-10-06 17:29:47			0	39345	0	0	0	21903	20590	156549	27048	1055692	46270	108048	0	0	8283	511799	0	0
2024-10-06 17:30:47			0	39241	0	0	0	21893	20580	156945	27178	1055585	46256	108044	0	0	8277	515753	0	0
2024-10-06 17:31:47			0	39165	0	0	0	21896	20560	157141	27289	1055505	46267	108045	0	0	8273	518691	0	0
2024-10-06 17:32:47			0	39074	0	0	0	21854	20560	157529	27320	1055505	46255	108029	0	0	8268	522152	0	0
2024-10-06 17:33:47			0	38992	0	0	0	21823	20550	157961	27159	1055452	46253	108017	0	0	8264	525311	0	0
2024-10-06 17:34:47			0	38893	0	0	0	21810	20510	158205	27171	1055239	46250	108012	0	0	8258	529223	0	0
2024-10-06 17:35:47			0	38825	0	0	0	21828	20510	158525	27341	1055212	46240	108019	0	0	8254	531839	0	0
2024-10-06 17:36:47			0	38827	0	0	0	21849	20490	158537	27173	1055221	46248	108027	0	0	8253	531821	0	0
2024-10-06 17:37:47			0	38852	0	0	0	21825	20480	158449	27170	1055123	46247	108018	0	0	8255	530887	0	0
2024-10-06 17:38:47			0	38844	0	0	0	21841	20480	158569	27201	1055096	46269	108024	0	0	8255	531195	0	0
2024-10-06 17:39:47			0	38819	0	0	0	21825	20460	158673	27403	1055167	46267	108018	0	0	8253	532217	0	0
2024-10-06 17:40:47			0	38813	0	0	0	21849	20460	158801	27218	1055060	46267	108027	0	0	8253	532449	0	0
2024-10-06 17:41:47			0	38914	0	0	0	21851	20460	158261	27187	1055140	46278	108028	0	0	8258	528562	0	0
2024-10-06 17:42:47			0	38946	0	0	0	21903	20440	158249	27490	1055113	46276	108048	0	0	8259	527393	0	0
2024-10-06 17:43:47			0	39099	0	0	0	21955	20450	157593	27334	1055184	46278	108068	0	0	8267	521517	0	0
2024-10-06 17:44:47			0	39184	0	0	0	21898	20460	157337	27244	1055273	46299	108046	0	0	8273	518256	0	0
2024-10-06 17:45:47			0	39121	0	0	0	21883	20460	157561	27263	1055273	46311	108040	0	0	8270	520650	0	0
2024-10-06 17:46:47			0	39105	0	0	0	21885	20450	157589	27308	1055264	46311	108041	0	0	8269	521288	0	0
2024-10-06 17:47:47			0	39087	0	0	0	21888	20460	157649	27516	1055256	46311	108042	0	0	8268	521945	0	0
2024-10-06 17:48:47			0	39105	0	0	0	21883	20460	157601	26934	1055256	46299	108040	0	0	8269	521260	0	0
2024-10-06 17:49:47			0	39119	0	0	0	21890	20460	157621	27338	1055282	46289	108043	0	0	8270	520727	0	0
2024-10-06 17:50:47			0	39114	0	0	0	21890	20460	157605	27069	1055246	46299	108043	0	0	8269	520917	0	0
2024-10-06 17:51:47			0	39122	0	0	0	21896	20450	157541	27414	1055229	46266	108045	0	0	8270	520641	0	0
2024-10-06 17:52:47			0	39153	0	0	0	21901	20460	157525	27206	1055220	46278	108047	0	0	8271	519434	0	0
2024-10-06 17:53:47			0	39137	0	0	0	21893	20460	157529	27312	1055220	46289	108044	0	0	8271	520042	0	0
2024-10-06 17:54:47			0	39111	0	0	0	21885	20450	157589	27519	1055237	46278	108041	0	0	8269	521060	0	0
2024-10-06 17:55:47			0	39071	0	0	0	21859	20460	157837	27306	1055193	46289	108031	0	0	8267	522555	0	0
2024-10-06 17:56:47			0	39029	0	0	0	21849	20460	157957	27466	1055113	46289	108027	0	0	8265	524158	0	0
2024-10-06 17:57:47			0	38983	0	0	0	21810	20450	158105	27374	1055069	46266	108012	0	0	8263	525946	0	0
2024-10-06 17:58:47			0	38916	0	0	0	21807	20440	158353	27189	1055051	46264	108011	0	0	8259	528544	0	0
2024-10-06 17:59:47			0	38901	0	0	0	21818	20440	158393	27410	1054998	46252	108015	0	0	8258	529120	0	0
2024-10-06 18:00:47			0	38923	0	0	0	21799	20430	158345	27433	1055086	46264	108008	0	0	8260	528305	0	0
2024-10-06 18:01:47			0	38886	0	0	0	21792	20420	158425	27121	1054944	46263	108005	0	0	8258	529755	0	0
2024-10-06 18:02:47			0	38836	0	0	0	21797	20410	158625	27083	1054953	46251	108007	0	0	8255	531709	0	0
2024-10-06 18:03:47			0	38863	0	0	0	21799	20410	158689	27062	1054873	46262	108008	0	0	8256	530669	0	0
2024-10-06 18:04:47			0	38849	0	0	0	21774	20410	158657	27235	1054811	46262	107998	0	0	8256	531208	0	0
2024-10-06 18:05:47			0	38821	0	0	0	21763	20400	158757	27175	1054899	46260	107994	0	0	8254	532317	0	0
2024-10-06 18:06:47			0	38773	0	0	0	21745	20400	158945	27211	1054846	46271	107987	0	0	8252	534170	0	0
2024-10-06 18:07:47			0	38710	0	0	0	21737	20390	159140	26977	1054775	46260	107984	0	0	8248	536637	0	0
2024-10-06 18:08:47			0	38695	0	0	0	21748	20380	159200	26755	1054757	46258	107988	0	0	8247	537248	0	0
2024-10-06 18:09:47			0	38683	0	0	0	21729	20370	159244	26974	1054695	46235	107981	0	0	8247	537743	0	0
2024-10-06 18:10:47			0	38679	0	0	0	21740	20350	159328	27118	1054633	46244	107985	0	0	8246	537958	0	0
2024-10-06 18:11:47			0	38689	0	0	0	21745	20350	159348	26897	1054624	46244	107987	0	0	8247	537570	0	0
2024-10-06 18:12:47			0	38743	0	0	0	21797	20340	159161	27163	1054562	46266	108007	0	0	8249	535507	0	0
2024-10-06 18:13:47			0	38823	0	0	0	21849	20330	158937	27074	1054588	46264	108027	0	0	8253	532445	0	0
2024-10-06 18:14:47			0	38883	0	0	0	21867	20340	158577	27365	1054606	46265	108034	0	0	8256	530105	0	0
2024-10-06 18:15:47			0	38909	0	0	0	21880	20330	158501	27255	1054623	46275	108039	0	0	8257	529134	0	0
2024-10-06 18:16:47			0	38947	0	0	0	21906	20340	158425	27431	1054712	46297	108049	0	0	8259	527646	0	0
2024-10-06 18:17:47			0	38937	0	0	0	21932	20340	158445	27001	1054792	46276	108059	0	0	8258	528030	0	0
2024-10-06 18:18:47			0	38974	0	0	0	21948	20360	158281	26906	1054828	46311	108065	0	0	8260	526553	0	0
2024-10-06 18:19:47			0	38975	0	0	0	21916	20370	158141	27057	1054899	46312	108053	0	0	8260	526485	0	0
2024-10-06 18:20:47			0	38988	0	0	0	21911	20370	158185	27102	1054952	46323	108051	0	0	8261	525987	0	0
2024-10-06 18:21:47			0	38995	0	0	0	21877	20370	158213	27107	1054899	46279	108038	0	0	8262	525719	0	0
2024-10-06 18:22:47			0	38966	0	0	0	21896	20370	158289	26838	1054846	46300	108045	0	0	8260	526830	0	0
2024-10-06 18:23:47			0	38955	0	0	0	21948	20380	158277	27147	1054899	46291	108065	0	0	8259	527223	0	0
2024-10-06 18:24:47			0	38965	0	0	0	21966	20370	158201	27261	1054935	46279	108072	0	0	8259	526868	0	0
2024-10-06 18:25:47			0	38981	0	0	0	21942	20390	158205	27126	1054961	46292	108063	0	0	8260	526197	0	0
2024-10-06 18:26:47			0	38966	0	0	0	21966	20390	158245	27289	1054908	46282	108072	0	0	8259	526772	0	0
2024-10-06 18:27:47			0	38987	0	0	0	21973	20390	158181	27343	1054961	46271	108075	0	0	8260	525968	0	0
2024-10-06 18:28:47			0	38991	0	0	0	21942	20390	158085	27104	1055050	46315	108063	0	0	8261	525814	0	0
2024-10-06 18:29:47			0	39006	0	0	0	21950	20400	158129	27055	1055059	46303	108066	0	0	8262	525211	0	0
2024-10-06 18:30:47			0	38982	0	0	0	21961	20410	158213	27033	1055112	46317	108070	0	0	8260	526101	0	0
2024-10-06 18:31:47			0	38994	0	0	0	21953	20420	158073	27327	1055175	46317	108067	0	0	8261	525613	0	0
2024-10-06 18:32:47			0	39000	0	0	0	21958	20430	158033	27261	1055193	46319	108069	0	0	8261	525354	0	0
2024-10-06 18:33:47			0	39035	0	0	0	21971	20430	158001	26979	1055219	46330	108074	0	0	8263	524016	0	0
2024-10-06 18:34:47			0	39061	0	0	0	21981	20440	157845	27211	1055237	46330	108078	0	0	8265	522994	0	0
2024-10-06 18:35:47			0	39053	0	0	0	21984	20430	157753	27012	1055255	46319	108079	0	0	8264	523328	0	0
2024-10-06 18:36:47			0	39084	0	0	0	21984	20450	157781	27218	1055291	46322	108079	0	0	8266	522088	0	0
2024-10-06 18:37:47			0	39082	0	0	0	21981	20450	157721	27019	1055344	46322	108078	0	0	8266	522165	0	0
2024-10-06 18:38:47			0	39074	0	0	0	21986	20460	157681	26779	1055406	46311	108080	0	0	8265	522441	0	0
2024-10-06 18:39:47			0	39117	0	0	0	21992	20480	157629	26984	1055451	46324	108082	0	0	8268	520745	0	0
2024-10-06 18:40:47			0	39109	0	0	0	21989	20480	157613	27083	1055424	46324	108081	0	0	8267	521050	0	0
2024-10-06 18:41:47			0	39116	0	0	0	21997	20500	157553	26986	1055504	46326	108084	0	0	8268	520726	0	0
2024-10-06 18:42:47			0	39107	0	0	0	21999	20500	157537	26837	1055593	46326	108085	0	0	8267	521068	0	0
2024-10-06 18:43:47			0	39123	0	0	0	22005	20510	157533	26795	1055576	46337	108087	0	0	8268	520430	0	0
2024-10-06 18:44:47			0	39143	0	0	0	21992	20510	157413	26741	1055611	46328	108082	0	0	8269	519670	0	0
2024-10-06 18:45:47			0	39133	0	0	0	21979	20510	157485	27086	1055496	46327	108077	0	0	8269	520050	0	0
2024-10-06 18:46:47			0	39136	0	0	0	21997	20520	157449	26930	1055514	46294	108084	0	0	8269	519907	0	0
2024-10-06 18:47:47			0	39159	0	0	0	21989	20510	157485	27211	1055558	46294	108081	0	0	8270	519062	0	0
2024-10-06 18:48:47			0	39147	0	0	0	22002	20520	157349	27138	1055593	46317	108086	0	0	8270	519489	0	0
2024-10-06 18:49:47			0	39158	0	0	0	21997	20530	157321	27244	1055611	46318	108084	0	0	8270	519043	0	0
2024-10-06 18:50:47			0	39163	0	0	0	21997	20520	157425	27062	1055647	46305	108084	0	0	8271	518882	0	0
2024-10-06 18:51:47			0	39151	0	0	0	21963	20520	157437	27180	1055629	46318	108071	0	0	8270	519337	0	0
2024-10-06 18:52:47			0	39109	0	0	0	21976	20520	157509	27409	1055549	46285	108076	0	0	8268	520934	0	0
2024-10-06 18:53:47			0	39082	0	0	0	21976	20520	157693	27345	1055576	46295	108076	0	0	8266	521963	0	0
2024-10-06 18:54:47			0	39065	0	0	0	21976	20520	157705	27015	1055523	46306	108076	0	0	8265	522611	0	0
2024-10-06 18:55:47			0	39055	0	0	0	21976	20530	157793	27222	1055585	46306	108076	0	0	8265	522963	0	0
2024-10-06 18:56:47			0	39028	0	0	0	21989	20520	157905	26944	1055540	46294	108081	0	0	8263	524022	0	0
2024-10-06 18:57:47			0	39047	0	0	0	21981	20530	157805	26911	1055673	46296	108078	0	0	8264	523268	0	0
2024-10-06 18:58:47			0	38987	0	0	0	21945	20530	157977	27334	1055585	46306	108064	0	0	8261	525561	0	0
2024-10-06 18:59:47			0	38943	0	0	0	21820	20530	158061	27090	1055478	46295	108016	0	0	8261	527246	0	0
2024-10-06 19:00:47			0	38888	0	0	0	21841	20510	158517	27072	1055292	46262	108024	0	0	8257	529415	0	0
2024-10-06 19:01:47			0	38865	0	0	0	21844	20500	158481	27260	1055292	46249	108025	0	0	8256	530328	0	0
2024-10-06 19:02:47			0	38871	0	0	0	21862	20490	158541	27074	1055309	46271	108032	0	0	8256	530127	0	0
2024-10-06 19:03:47			0	38856	0	0	0	21906	20480	158553	27327	1055291	46280	108049	0	0	8254	530733	0	0
2024-10-06 19:04:47			0	38858	0	0	0	21906	20470	158577	27109	1055274	46291	108049	0	0	8254	530686	0	0
2024-10-06 19:05:47			0	38863	0	0	0	21901	20480	158553	26965	1055238	46301	108047	0	0	8255	530464	0	0
2024-10-06 19:06:47			0	38868	0	0	0	21903	20480	158525	27235	1055345	46280	108048	0	0	8255	530272	0	0
2024-10-06 19:07:47			0	38852	0	0	0	21846	20490	158501	27229	1055309	46282	108026	0	0	8255	530858	0	0
2024-10-06 19:08:47			0	38837	0	0	0	21825	20460	158593	27157	1055096	46256	108018	0	0	8254	531524	0	0
2024-10-06 19:09:47			0	38857	0	0	0	21911	20450	158589	27365	1055051	46256	108051	0	0	8254	530783	0	0
2024-10-06 19:10:47			0	38880	0	0	0	21914	20440	158521	27015	1055113	46265	108052	0	0	8255	529927	0	0
2024-10-06 19:11:47			0	38880	0	0	0	21898	20440	158513	27001	1055193	46287	108046	0	0	8255	529927	0	0
2024-10-06 19:12:47			0	38885	0	0	0	21919	20450	158513	27478	1055237	46289	108054	0	0	8255	529706	0	0
2024-10-06 19:13:47			0	38891	0	0	0	21916	20440	158417	27189	1055246	46287	108053	0	0	8256	529505	0	0
2024-10-06 19:14:47			0	38915	0	0	0	21919	20460	158533	27322	1055246	46289	108054	0	0	8257	528524	0	0
2024-10-06 19:15:47			0	38940	0	0	0	21922	20450	158445	27182	1055264	46311	108055	0	0	8259	527594	0	0
2024-10-06 19:16:47			0	38931	0	0	0	21932	20460	158365	27398	1055326	46299	108059	0	0	8258	527910	0	0
2024-10-06 19:17:47			0	38940	0	0	0	21932	20460	158293	27341	1055309	46322	108059	0	0	8258	527565	0	0
2024-10-06 19:18:47			0	38955	0	0	0	21927	20470	158253	27208	1055327	46313	108057	0	0	8259	526961	0	0
2024-10-06 19:19:47			0	38956	0	0	0	21924	20470	158229	27378	1055327	46301	108056	0	0	8260	526922	0	0
2024-10-06 19:20:47			0	38966	0	0	0	21927	20490	158173	27287	1055327	46291	108057	0	0	8260	526481	0	0
2024-10-06 19:21:47			0	38988	0	0	0	21922	20480	158017	27107	1055345	46291	108055	0	0	8262	525668	0	0
2024-10-06 19:22:47			0	38984	0	0	0	21919	20480	158057	27180	1055318	46291	108054	0	0	8261	525821	0	0
2024-10-06 19:23:47			0	38990	0	0	0	21927	20480	158021	27159	1055398	46291	108057	0	0	8262	525591	0	0
2024-10-06 19:24:47			0	39010	0	0	0	21919	20470	157949	27360	1055371	46279	108054	0	0	8263	524855	0	0
2024-10-06 19:25:47			0	39030	0	0	0	21935	20470	157893	27230	1055344	46290	108060	0	0	8264	524091	0	0
2024-10-06 19:26:47			0	39044	0	0	0	21927	20480	157917	27279	1055371	46280	108057	0	0	8265	523528	0	0
2024-10-06 19:27:47			0	39030	0	0	0	21924	20480	157989	27180	1055362	46301	108056	0	0	8264	524062	0	0
2024-10-06 19:28:47			0	39005	0	0	0	21948	20490	157977	27268	1055380	46314	108065	0	0	8262	524988	0	0
2024-10-06 19:29:47			0	39035	0	0	0	21948	20480	157961	26897	1055424	46313	108065	0	0	8264	523871	0	0
2024-10-06 19:30:47			0	39053	0	0	0	21940	20490	157937	27156	1055380	46325	108062	0	0	8265	523155	0	0
2024-10-06 19:31:47			0	39023	0	0	0	21927	20480	158029	27229	1055371	46301	108057	0	0	8263	524330	0	0
2024-10-06 19:32:47			0	39039	0	0	0	21940	20480	157941	27180	1055371	46301	108062	0	0	8264	523718	0	0
2024-10-06 19:33:47			0	39049	0	0	0	21953	20490	157917	27313	1055416	46315	108067	0	0	8265	523308	0	0
2024-10-06 19:34:47			0	39089	0	0	0	21955	20490	157813	27199	1055442	46315	108068	0	0	8267	521782	0	0
2024-10-06 19:35:47			0	39132	0	0	0	21968	20490	157621	27353	1055460	46291	108073	0	0	8269	520146	0	0
2024-10-06 19:36:47			0	39140	0	0	0	21961	20490	157585	27268	1055469	46303	108070	0	0	8270	519842	0	0
2024-10-06 19:37:47			0	39152	0	0	0	21968	20510	157593	27445	1055496	46327	108073	0	0	8270	519328	0	0
2024-10-06 19:38:47			0	39136	0	0	0	21973	20500	157533	27137	1055513	46326	108075	0	0	8269	519965	0	0
2024-10-06 19:39:47			0	39098	0	0	0	21963	20520	157601	27301	1055514	46317	108071	0	0	8267	521353	0	0
2024-10-06 19:40:47			0	39037	0	0	0	21948	20510	157909	27100	1055531	46305	108065	0	0	8264	523708	0	0
2024-10-06 19:41:47			0	39008	0	0	0	21955	20510	158125	27369	1055505	46305	108068	0	0	8262	524816	0	0
2024-10-06 19:42:47			0	38963	0	0	0	21942	20520	158209	27274	1055460	46294	108063	0	0	8260	526508	0	0
2024-10-06 19:43:47			0	38934	0	0	0	21953	20510	158273	27043	1055558	46294	108067	0	0	8258	527649	0	0
2024-10-06 19:44:47			0	38917	0	0	0	21948	20520	158449	27022	1055629	46306	108065	0	0	8257	528272	0	0
2024-10-06 19:45:47			0	38892	0	0	0	21955	20520	158421	26987	1055496	46295	108068	0	0	8256	529232	0	0
2024-10-06 19:46:47			0	38882	0	0	0	21966	20510	158397	27376	1055478	46294	108072	0	0	8255	529645	0	0
2024-10-06 19:47:47			0	38876	0	0	0	21955	20520	158409	27206	1055487	46305	108068	0	0	8255	529847	0	0
2024-10-06 19:48:47			0	38889	0	0	0	21953	20520	158421	27291	1055540	46294	108067	0	0	8255	529347	0	0
2024-10-06 19:49:47			0	38892	0	0	0	21948	20520	158473	27383	1055549	46295	108065	0	0	8256	529232	0	0
2024-10-06 19:50:47			0	38878	0	0	0	21948	20520	158597	27301	1055487	46294	108065	0	0	8255	529770	0	0
2024-10-06 19:51:47			0	38923	0	0	0	21958	20510	158317	27098	1055478	46284	108069	0	0	8257	528071	0	0
2024-10-06 19:52:47			0	38978	0	0	0	21937	20510	158073	27187	1055531	46294	108061	0	0	8261	525963	0	0
2024-10-06 19:53:47			0	38982	0	0	0	21953	20510	158113	27060	1055505	46305	108067	0	0	8261	525810	0	0
2024-10-06 19:54:47			0	39017	0	0	0	21966	20510	157981	27691	1055558	46294	108072	0	0	8263	524472	0	0
2024-10-06 19:55:47			0	39052	0	0	0	21968	20520	157889	27447	1055487	46294	108073	0	0	8265	523106	0	0
2024-10-06 19:56:47			0	39048	0	0	0	21955	20520	157861	27357	1055540	46305	108068	0	0	8265	523259	0	0
2024-10-06 19:57:47			0	38991	0	0	0	21950	20510	157917	27429	1055505	46294	108066	0	0	8261	525466	0	0
2024-10-06 19:58:47			0	38974	0	0	0	21968	20510	158117	27185	1055531	46305	108073	0	0	8260	526116	0	0
2024-10-06 19:59:47			0	38975	0	0	0	21950	20510	158189	27187	1055505	46305	108066	0	0	8260	526078	0	0
2024-10-06 20:00:47			0	38944	0	0	0	21948	20510	158217	27346	1055531	46284	108065	0	0	8259	527266	0	0
2024-10-06 20:01:47			0	38934	0	0	0	21950	20500	158241	27085	1055460	46303	108066	0	0	8258	527678	0	0
2024-10-06 20:02:47			0	38913	0	0	0	21948	20510	158325	27199	1055389	46293	108065	0	0	8257	528455	0	0
2024-10-06 20:03:47			0	38898	0	0	0	21916	20510	158401	27053	1055389	46272	108053	0	0	8257	529031	0	0
2024-10-06 20:04:47			0	38853	0	0	0	21937	20510	158505	27588	1055389	46283	108061	0	0	8254	530761	0	0
2024-10-06 20:05:47			0	38867	0	0	0	21958	20490	158577	27488	1055380	46281	108069	0	0	8254	530281	0	0
2024-10-06 20:06:47			0	38886	0	0	0	21963	20490	158589	27433	1055416	46292	108071	0	0	8255	529550	0	0
2024-10-06 20:07:47			0	38890	0	0	0	21963	20490	158453	27460	1055407	46291	108071	0	0	8255	529397	0	0
2024-10-06 20:08:47			0	38880	0	0	0	21950	20490	158465	27507	1055469	46315	108066	0	0	8255	529781	0	0
2024-10-06 20:09:47			0	38847	0	0	0	21937	20500	158625	27410	1055425	46315	108061	0	0	8253	531021	0	0
2024-10-06 20:10:47			0	38843	0	0	0	21916	20490	158681	27372	1055416	46303	108053	0	0	8253	531204	0	0
2024-10-06 20:11:47			0	38849	0	0	0	21901	20490	158773	27170	1055336	46303	108047	0	0	8254	530973	0	0
2024-10-06 20:12:47			0	38846	0	0	0	21911	20490	158729	27428	1055309	46282	108051	0	0	8254	531089	0	0
2024-10-06 20:13:47			0	38816	0	0	0	21937	20490	158709	27519	1055309	46292	108061	0	0	8251	532245	0	0
2024-10-06 20:14:47			0	38806	0	0	0	21940	20490	158725	27159	1055354	46281	108062	0	0	8251	532630	0	0
2024-10-06 20:15:47			0	38804	0	0	0	21945	20480	158813	27556	1055371	46324	108064	0	0	8250	532737	0	0
2024-10-06 20:16:47			0	38777	0	0	0	21961	20480	159005	27095	1055424	46324	108070	0	0	8249	533779	0	0
2024-10-06 20:17:47			0	38787	0	0	0	21961	20490	158885	27459	1055389	46315	108070	0	0	8249	533363	0	0
2024-10-06 20:18:47			0	38799	0	0	0	21950	20490	158753	27421	1055522	46315	108066	0	0	8250	532900	0	0
2024-10-06 20:19:47			0	38786	0	0	0	21958	20500	158741	27319	1055487	46326	108069	0	0	8249	533372	0	0
2024-10-06 20:20:47			0	38829	0	0	0	21948	20510	158685	27421	1055416	46316	108065	0	0	8252	531685	0	0
2024-10-06 20:21:47			0	38799	0	0	0	21927	20520	158697	27241	1055434	46328	108057	0	0	8251	532812	0	0
2024-10-06 20:22:47			0	38787	0	0	0	21932	20500	158745	27336	1055434	46303	108059	0	0	8250	533334	0	0
2024-10-06 20:23:47			0	38778	0	0	0	21935	20500	158917	27473	1055434	46292	108060	0	0	8249	533681	0	0
2024-10-06 20:24:47			0	38759	0	0	0	21942	20500	158997	27362	1055434	46292	108063	0	0	8248	534415	0	0
2024-10-06 20:25:47			0	38739	0	0	0	21935	20490	158929	27253	1055416	46303	108060	0	0	8247	535218	0	0
2024-10-06 20:26:47			0	38745	0	0	0	21932	20500	158985	27319	1055380	46315	108059	0	0	8247	534956	0	0
2024-10-06 20:27:47			0	38743	0	0	0	21929	20500	158905	27526	1055451	46303	108058	0	0	8247	535034	0	0
2024-10-06 20:28:47			0	38751	0	0	0	21935	20500	158993	27213	1055460	46315	108060	0	0	8248	534724	0	0
2024-10-06 20:29:47			0	38733	0	0	0	21927	20500	158941	27048	1055398	46303	108057	0	0	8247	535420	0	0
2024-10-06 20:30:47			0	38737	0	0	0	21927	20500	158957	27008	1055434	46292	108057	0	0	8247	535266	0	0
2024-10-06 20:31:47			0	38740	0	0	0	21940	20500	158981	27190	1055434	46292	108062	0	0	8247	535150	0	0
2024-10-06 20:32:47			0	38739	0	0	0	21927	20500	159041	27149	1055407	46292	108057	0	0	8247	535188	0	0
2024-10-06 20:33:47			0	38727	0	0	0	21916	20500	158988	27180	1055460	46303	108053	0	0	8247	535653	0	0
2024-10-06 20:34:47			0	38731	0	0	0	21929	20500	159100	27041	1055371	46282	108058	0	0	8247	535498	0	0
2024-10-06 20:35:47			0	38708	0	0	0	21932	20490	159076	27256	1055389	46271	108059	0	0	8245	536418	0	0
2024-10-06 20:36:47			0	38709	0	0	0	21909	20500	159172	27346	1055345	46292	108050	0	0	8246	536350	0	0
2024-10-06 20:37:47			0	38721	0	0	0	21919	20490	159144	27230	1055380	46270	108054	0	0	8246	535915	0	0
2024-10-06 20:38:47			0	38686	0	0	0	21922	20490	159120	26968	1055416	46303	108055	0	0	8244	537270	0	0
2024-10-06 20:39:47			0	38686	0	0	0	21916	20490	159200	27199	1055354	46281	108053	0	0	8244	537270	0	0
2024-10-06 20:40:47			0	38670	0	0	0	21914	20480	159168	26753	1055345	46280	108052	0	0	8243	537921	0	0
2024-10-06 20:41:47			0	38687	0	0	0	21916	20490	159132	26989	1055354	46291	108053	0	0	8244	537232	0	0
2024-10-06 20:42:47			0	38673	0	0	0	21896	20490	159304	27201	1055354	46291	108045	0	0	8244	537774	0	0
2024-10-06 20:43:47			0	38683	0	0	0	21890	20490	159300	27258	1055354	46281	108043	0	0	8244	537387	0	0
2024-10-06 20:44:47			0	38652	0	0	0	21883	20480	159284	27140	1055318	46280	108040	0	0	8243	538619	0	0
2024-10-06 20:45:47			0	38645	0	0	0	21877	20460	159300	26863	1055256	46278	108038	0	0	8242	538951	0	0
2024-10-06 20:46:47			0	38633	0	0	0	21885	20460	159512	27116	1055220	46267	108041	0	0	8241	539417	0	0
2024-10-06 20:47:47			0	38603	0	0	0	21872	20460	159584	27241	1055202	46267	108036	0	0	8240	540584	0	0
2024-10-06 20:48:47			0	38605	0	0	0	21864	20450	159488	27190	1055237	46278	108033	0	0	8240	540536	0	0
2024-10-06 20:49:47			0	38583	0	0	0	21862	20450	159636	27074	1055237	46289	108032	0	0	8239	541392	0	0
2024-10-06 20:50:47			0	38579	0	0	0	21870	20450	159580	27287	1055211	46278	108035	0	0	8238	541548	0	0
2024-10-06 20:51:47			0	38576	0	0	0	21901	20450	159896	27107	1055211	46289	108047	0	0	8238	541665	0	0
2024-10-06 20:52:47			0	38566	0	0	0	21924	20450	159852	27208	1055291	46289	108056	0	0	8237	542055	0	0
2024-10-06 20:53:47			0	38536	0	0	0	21901	20450	159816	27034	1055264	46299	108047	0	0	8235	543225	0	0
2024-10-06 20:54:47			0	38527	0	0	0	21888	20450	159876	27324	1055264	46289	108042	0	0	8235	543576	0	0
2024-10-06 20:55:47			0	38525	0	0	0	21867	20460	159840	27419	1055309	46278	108034	0	0	8235	543624	0	0
2024-10-06 20:56:47			0	38525	0	0	0	21859	20460	159932	27327	1055256	46278	108031	0	0	8236	543624	0	0
2024-10-06 20:57:47			0	38515	0	0	0	21846	20460	159884	27464	1055220	46289	108026	0	0	8235	544015	0	0
2024-10-06 20:58:47			0	38504	0	0	0	21844	20450	159988	27324	1055175	46288	108025	0	0	8235	544475	0	0
2024-10-06 20:59:47			0	38527	0	0	0	21846	20450	159892	27083	1055158	46289	108026	0	0	8236	543576	0	0
2024-10-06 21:00:47			0	38548	0	0	0	21841	20440	159832	27353	1055113	46287	108024	0	0	8237	542787	0	0
2024-10-06 21:01:47			0	38540	0	0	0	21854	20440	159776	27447	1055140	46276	108029	0	0	8236	543099	0	0
2024-10-06 21:02:47			0	38544	0	0	0	21844	20440	159872	27168	1055104	46264	108025	0	0	8237	542943	0	0
2024-10-06 21:03:47			0	38509	0	0	0	21841	20430	159980	27216	1055095	46296	108024	0	0	8235	544340	0	0
2024-10-06 21:04:47			0	38519	0	0	0	21851	20440	160040	27060	1055113	46287	108028	0	0	8235	543919	0	0
2024-10-06 21:05:47			0	38486	0	0	0	21844	20430	160068	27036	1055149	46275	108025	0	0	8233	545239	0	0
2024-10-06 21:06:47			0	38472	0	0	0	21841	20430	160028	27133	1055140	46275	108024	0	0	8233	545787	0	0
2024-10-06 21:07:47			0	38482	0	0	0	21823	20430	160068	26942	1055086	46275	108017	0	0	8234	545395	0	0
2024-10-06 21:08:47			0	38492	0	0	0	21844	20430	159980	27362	1055069	46264	108025	0	0	8234	545004	0	0
2024-10-06 21:09:47			0	38482	0	0	0	21820	20430	160028	26965	1055113	46286	108016	0	0	8234	545395	0	0
2024-10-06 21:10:47			0	38486	0	0	0	21818	20420	160068	26951	1055077	46274	108015	0	0	8234	545269	0	0
2024-10-06 21:11:47			0	38471	0	0	0	21825	20420	160184	27317	1055122	46273	108018	0	0	8233	545856	0	0
2024-10-06 21:12:47			0	38448	0	0	0	21820	20420	160132	27012	1055024	46285	108016	0	0	8232	546757	0	0
2024-10-06 21:13:47			0	38445	0	0	0	21818	20420	160192	27098	1055131	46274	108015	0	0	8231	546875	0	0
2024-10-06 21:14:47			0	38451	0	0	0	21820	20410	160252	27265	1054971	46294	108016	0	0	8232	546670	0	0
2024-10-06 21:15:47			0	38437	0	0	0	21812	20410	160260	27319	1055006	46284	108013	0	0	8231	547218	0	0
2024-10-06 21:16:47			0	38423	0	0	0	21810	20410	160304	27313	1054997	46284	108012	0	0	8230	547768	0	0
2024-10-06 21:17:47			0	38415	0	0	0	21797	20410	160440	27074	1055024	46273	108007	0	0	8230	548081	0	0
2024-10-06 21:18:47			0	38396	0	0	0	21789	20410	160532	27045	1054997	46273	108004	0	0	8229	548828	0	0
2024-10-06 21:19:47			0	38398	0	0	0	21812	20400	160556	27282	1054962	46283	108013	0	0	8229	548779	0	0
2024-10-06 21:20:47			0	38391	0	0	0	21825	20410	160512	26816	1055024	46284	108018	0	0	8228	549024	0	0
2024-10-06 21:21:47			0	38384	0	0	0	21802	20400	160516	27170	1054926	46282	108009	0	0	8228	549329	0	0
2024-10-06 21:22:47			0	38375	0	0	0	21794	20400	160588	27175	1054979	46282	108006	0	0	8228	549683	0	0
2024-10-06 21:23:47			0	38340	0	0	0	21786	20390	160632	27232	1054917	46271	108003	0	0	8226	551091	0	0
2024-10-06 21:24:47			0	38341	0	0	0	21781	20400	160664	26982	1054908	46272	108001	0	0	8226	551021	0	0
2024-10-06 21:25:47			0	38351	0	0	0	21774	20400	160744	27398	1054926	46271	107998	0	0	8227	550627	0	0
2024-10-06 21:26:47			0	38350	0	0	0	21774	20400	160824	27005	1054873	46271	107998	0	0	8227	550667	0	0
2024-10-06 21:27:47			0	38317	0	0	0	21774	20380	160784	26854	1054899	46281	107998	0	0	8225	552028	0	0
2024-10-06 21:28:47			0	38294	0	0	0	21774	20380	160864	27131	1054846	46248	107998	0	0	8223	552935	0	0
2024-10-06 21:29:47			0	38318	0	0	0	21766	20380	160892	27033	1054864	46258	107995	0	0	8225	551988	0	0
2024-10-06 21:30:47			0	38304	0	0	0	21768	20360	160872	27298	1054784	46268	107996	0	0	8224	552601	0	0
2024-10-06 21:31:47			0	38291	0	0	0	21758	20360	160964	27386	1054757	46257	107992	0	0	8223	553114	0	0
2024-10-06 21:32:47			0	38276	0	0	0	21758	20360	161076	27277	1054757	46279	107992	0	0	8222	553707	0	0
2024-10-06 21:33:47			0	38269	0	0	0	21755	20350	161084	27324	1054739	46255	107991	0	0	8222	554014	0	0
2024-10-06 21:34:47			0	38258	0	0	0	21761	20360	161060	27152	1054784	46257	107993	0	0	8221	554418	0	0
2024-10-06 21:35:47			0	38261	0	0	0	21761	20340	161108	27019	1054748	46266	107993	0	0	8221	554361	0	0
2024-10-06 21:36:47			0	38282	0	0	0	21776	20360	161040	27164	1054775	46289	107999	0	0	8222	553470	0	0
2024-10-06 21:37:47			0	38277	0	0	0	21768	20340	161004	26734	1054695	46266	107996	0	0	8222	553728	0	0
2024-10-06 21:38:47			0	38290	0	0	0	21774	20340	161128	27078	1054748	46266	107998	0	0	8223	553215	0	0
2024-10-06 21:39:47			0	38260	0	0	0	21774	20350	161164	26771	1054810	46288	107998	0	0	8221	554370	0	0
2024-10-06 21:40:47			0	38250	0	0	0	21745	20350	161068	27123	1054784	46266	107987	0	0	8221	554765	0	0
2024-10-06 21:41:47			0	38231	0	0	0	21735	20340	161256	27194	1054721	46266	107983	0	0	8220	555548	0	0
2024-10-06 21:42:47			0	38196	0	0	0	21722	20340	161280	27081	1054606	46254	107978	0	0	8218	556934	0	0
2024-10-06 21:43:47			0	38162	0	0	0	21727	20330	161428	27090	1054677	46264	107980	0	0	8216	558314	0	0
2024-10-06 21:44:47			0	38150	0	0	0	21701	20330	161612	26958	1054641	46275	107970	0	0	8216	558790	0	0
2024-10-06 21:45:47			0	38124	0	0	0	21696	20330	161676	26979	1054544	46264	107968	0	0	8214	559824	0	0
2024-10-06 21:46:47			0	38096	0	0	0	21690	20320	161752	27213	1054552	46264	107966	0	0	8213	560969	0	0
2024-10-06 21:47:47			0	38078	0	0	0	21690	20310	161852	27213	1054481	46262	107966	0	0	8212	561718	0	0
2024-10-06 21:48:47			0	38064	0	0	0	21685	20300	161784	27436	1054463	46250	107964	0	0	8211	562307	0	0
2024-10-06 21:49:47			0	38061	0	0	0	21680	20310	161916	27232	1054499	46250	107962	0	0	8211	562395	0	0
2024-10-06 21:50:47			0	38058	0	0	0	21698	20300	161932	27012	1054437	46261	107969	0	0	8210	562546	0	0
2024-10-06 21:51:47			0	38066	0	0	0	21714	20300	161872	27081	1054428	46272	107975	0	0	8210	562227	0	0
2024-10-06 21:52:47			0	38108	0	0	0	21716	20280	161776	27208	1054401	46249	107976	0	0	8213	560615	0	0
2024-10-06 21:53:47			0	38114	0	0	0	21732	20290	161840	27180	1054437	46281	107982	0	0	8213	560346	0	0
2024-10-06 21:54:47			0	38126	0	0	0	21722	20290	161776	27059	1054472	46271	107978	0	0	8214	559868	0	0
2024-10-06 21:55:47			0	38144	0	0	0	21727	20290	161640	27307	1054579	46271	107980	0	0	8215	559152	0	0
2024-10-06 21:56:47			0	38143	0	0	0	21729	20300	161584	27111	1054508	46272	107981	0	0	8215	559161	0	0
2024-10-06 21:57:47			0	38162	0	0	0	21727	20300	161496	27377	1054596	46261	107980	0	0	8216	558406	0	0
2024-10-06 21:58:47			0	38169	0	0	0	21740	20300	161460	27284	1054596	46293	107985	0	0	8216	558129	0	0
2024-10-06 21:59:47			0	38186	0	0	0	21724	20290	161520	27194	1054552	46282	107979	0	0	8217	557484	0	0
2024-10-06 22:00:47			0	38161	0	0	0	21727	20300	161532	26942	1054570	46261	107980	0	0	8216	558446	0	0
2024-10-06 22:01:47			0	38170	0	0	0	21722	20300	161460	27248	1054543	46293	107978	0	0	8216	558089	0	0
2024-10-06 22:02:47			0	38192	0	0	0	21732	20290	161532	27265	1054525	46271	107982	0	0	8217	557246	0	0
2024-10-06 22:03:47			0	38176	0	0	0	21716	20300	161496	27244	1054570	46283	107976	0	0	8217	557851	0	0
2024-10-06 22:04:47			0	38163	0	0	0	21709	20300	161364	27358	1054481	46272	107973	0	0	8216	558367	0	0
2024-10-06 22:05:47			0	38158	0	0	0	21703	20290	161564	27128	1054499	46271	107971	0	0	8216	558596	0	0
2024-10-06 22:06:47			0	38153	0	0	0	21701	20300	161452	27062	1054481	46283	107970	0	0	8216	558764	0	0
2024-10-06 22:07:47			0	38162	0	0	0	21696	20290	161544	27241	1054446	46260	107968	0	0	8216	558437	0	0
2024-10-06 22:08:47			0	38156	0	0	0	21706	20290	161512	27530	1054463	46270	107972	0	0	8216	558676	0	0
2024-10-06 22:09:47			0	38167	0	0	0	21709	20290	161528	27384	1054490	46259	107973	0	0	8216	558239	0	0
2024-10-06 22:10:47			0	38172	0	0	0	21693	20290	161392	27355	1054525	46260	107967	0	0	8217	558040	0	0
2024-10-06 22:11:47			0	38169	0	0	0	21685	20290	161484	27156	1054472	46271	107964	0	0	8217	558159	0	0
2024-10-06 22:12:47			0	38162	0	0	0	21693	20290	161520	27374	1054410	46237	107967	0	0	8216	558437	0	0
2024-10-06 22:13:47			0	38168	0	0	0	21701	20290	161488	27268	1054463	46259	107970	0	0	8217	558199	0	0
2024-10-06 22:14:47			0	38171	0	0	0	21727	20290	161532	26797	1054463	46270	107980	0	0	8216	558080	0	0
2024-10-06 22:15:47			0	38198	0	0	0	21727	20290	161436	27334	1054516	46270	107980	0	0	8218	557009	0	0
2024-10-06 22:16:47			0	38180	0	0	0	21722	20290	161360	27166	1054525	46271	107978	0	0	8217	557723	0	0
2024-10-06 22:17:47			0	38193	0	0	0	21729	20300	161408	27176	1054508	46293	107981	0	0	8218	557176	0	0
2024-10-06 22:18:47			0	38199	0	0	0	21719	20290	161272	27386	1054516	46270	107977	0	0	8218	556969	0	0
2024-10-06 22:19:47			0	38230	0	0	0	21727	20300	161316	27324	1054508	46283	107980	0	0	8220	555710	0	0
2024-10-06 22:20:47			0	38247	0	0	0	21722	20290	161144	27452	1054543	46281	107978	0	0	8221	555068	0	0
2024-10-06 22:21:47			0	38267	0	0	0	21727	20290	161132	27364	1054516	46281	107980	0	0	8222	554277	0	0
2024-10-06 22:22:47			0	38266	0	0	0	21729	20290	161104	27495	1054525	46260	107981	0	0	8222	554316	0	0
2024-10-06 22:23:47			0	38267	0	0	0	21727	20300	161108	27452	1054543	46272	107980	0	0	8222	554246	0	0
2024-10-06 22:24:47			0	38278	0	0	0	21729	20290	161020	27102	1054499	46271	107981	0	0	8223	553842	0	0
2024-10-06 22:25:47			0	38289	0	0	0	21719	20290	160972	27059	1054570	46259	107977	0	0	8223	553407	0	0
2024-10-06 22:26:47			0	38288	0	0	0	21722	20290	160972	27149	1054579	46271	107978	0	0	8223	553447	0	0
2024-10-06 22:27:47			0	38289	0	0	0	21724	20290	160964	27384	1054525	46260	107979	0	0	8223	553407	0	0
2024-10-06 22:28:47			0	38290	0	0	0	21735	20300	161012	27403	1054543	46283	107983	0	0	8223	553337	0	0
2024-10-06 22:29:47			0	38274	0	0	0	21729	20300	161012	27137	1054587	46272	107981	0	0	8222	553969	0	0
2024-10-06 22:30:47			0	38288	0	0	0	21745	20300	161020	27324	1054596	46261	107987	0	0	8223	553416	0	0
2024-10-06 22:31:47			0	38313	0	0	0	21750	20300	161004	27090	1054587	46272	107989	0	0	8224	552430	0	0
2024-10-06 22:32:47			0	38314	0	0	0	21727	20290	160872	27327	1054499	46271	107980	0	0	8225	552421	0	0
2024-10-06 22:33:47			0	38325	0	0	0	21722	20300	160924	27071	1054561	46272	107978	0	0	8225	551956	0	0
2024-10-06 22:34:47			0	38307	0	0	0	21727	20300	160956	27156	1054614	46250	107980	0	0	8224	552666	0	0
2024-10-06 22:35:47			0	38307	0	0	0	21727	20310	160904	27479	1054552	46272	107980	0	0	8224	552636	0	0
2024-10-06 22:36:47			0	38295	0	0	0	21716	20300	160960	27081	1054561	46272	107976	0	0	8224	553140	0	0
2024-10-06 22:37:47			0	38316	0	0	0	21711	20300	160916	27163	1054490	46261	107974	0	0	8225	552311	0	0
2024-10-06 22:38:47			0	38332	0	0	0	21724	20300	161004	27173	1054508	46261	107979	0	0	8226	551680	0	0
2024-10-06 22:39:47			0	38305	0	0	0	21716	20300	160856	27505	1054517	46283	107976	0	0	8224	552745	0	0
2024-10-06 22:40:47			0	38328	0	0	0	21714	20290	160848	27348	1054525	46250	107975	0	0	8226	551868	0	0
2024-10-06 22:41:47			0	38344	0	0	0	21711	20290	160824	26942	1054525	46260	107974	0	0	8227	551238	0	0
2024-10-06 22:42:47			0	38333	0	0	0	21716	20290	160840	27010	1054472	46271	107976	0	0	8226	551671	0	0
2024-10-06 22:43:47			0	38320	0	0	0	21706	20290	160820	27088	1054499	46282	107972	0	0	8225	552184	0	0
2024-10-06 22:44:47			0	38333	0	0	0	21706	20300	160692	27168	1054508	46261	107972	0	0	8226	551641	0	0
2024-10-06 22:45:47			0	38331	0	0	0	21711	20290	160768	26908	1054525	46260	107974	0	0	8226	551750	0	0
2024-10-06 22:46:47			0	38322	0	0	0	21703	20290	160816	26939	1054499	46260	107971	0	0	8226	552105	0	0
2024-10-06 22:47:47			0	38338	0	0	0	21722	20290	160892	26923	1054463	46281	107978	0	0	8226	551474	0	0
2024-10-06 22:48:47			0	38333	0	0	0	21706	20290	160848	27005	1054516	46259	107972	0	0	8226	551671	0	0
2024-10-06 22:49:47			0	38350	0	0	0	21706	20290	160716	27438	1054499	46250	107972	0	0	8227	551002	0	0
2024-10-06 22:50:47			0	38355	0	0	0	21716	20280	160780	27164	1054419	46249	107976	0	0	8227	550835	0	0
2024-10-06 22:51:47			0	38355	0	0	0	21722	20290	160608	27260	1054525	46260	107978	0	0	8227	550805	0	0
2024-10-06 22:52:47			0	38356	0	0	0	21724	20280	160648	27190	1054534	46259	107979	0	0	8227	550796	0	0
2024-10-06 22:53:47			0	38373	0	0	0	21719	20290	160624	27121	1054525	46260	107977	0	0	8228	550096	0	0
2024-10-06 22:54:47			0	38383	0	0	0	21727	20280	160724	27242	1054508	46259	107980	0	0	8229	549733	0	0
2024-10-06 22:55:47			0	38379	0	0	0	21727	20290	160684	27116	1054552	46271	107980	0	0	8229	549860	0	0
2024-10-06 22:56:47			0	38381	0	0	0	21735	20280	160696	27414	1054499	46291	107983	0	0	8228	549812	0	0
2024-10-06 22:57:47			0	38397	0	0	0	21740	20290	160516	27287	1054543	46259	107985	0	0	8229	549152	0	0
2024-10-06 22:58:47			0	38408	0	0	0	21729	20290	160612	27277	1054516	46270	107981	0	0	8230	548720	0	0
2024-10-06 22:59:47			0	38396	0	0	0	21727	20300	160548	27429	1054534	46272	107980	0	0	8230	549161	0	0
2024-10-06 23:00:47			0	38409	0	0	0	21727	20290	160508	27201	1054570	46270	107980	0	0	8230	548681	0	0
2024-10-06 23:01:47			0	38407	0	0	0	21719	20300	160584	27433	1054596	46283	107977	0	0	8230	548729	0	0
2024-10-06 23:02:47			0	38392	0	0	0	21711	20300	160572	27003	1054543	46272	107974	0	0	8230	549318	0	0
2024-10-06 23:03:47			0	38376	0	0	0	21716	20290	160556	27107	1054516	46259	107976	0	0	8229	549978	0	0
2024-10-06 23:04:47			0	38383	0	0	0	21732	20300	160612	27183	1054534	46283	107982	0	0	8229	549672	0	0
2024-10-06 23:05:47			0	38403	0	0	0	21737	20290	160452	27287	1054543	46259	107984	0	0	8230	548916	0	0
2024-10-06 23:06:47			0	38409	0	0	0	21724	20300	160536	27324	1054587	46283	107979	0	0	8230	548650	0	0
2024-10-06 23:07:47			0	38403	0	0	0	21724	20300	160620	27057	1054596	46261	107979	0	0	8230	548886	0	0
2024-10-06 23:08:47			0	38399	0	0	0	21714	20300	160584	27293	1054561	46261	107975	0	0	8230	549043	0	0
2024-10-06 23:09:47			0	38393	0	0	0	21711	20310	160552	27237	1054579	46272	107974	0	0	8230	549249	0	0
2024-10-06 23:10:47			0	38396	0	0	0	21709	20290	160516	27281	1054499	46271	107973	0	0	8230	549191	0	0
2024-10-06 23:11:47			0	38391	0	0	0	21714	20290	160628	27234	1054490	46270	107975	0	0	8229	549388	0	0
2024-10-06 23:12:47			0	38373	0	0	0	21706	20290	160652	27092	1054525	46260	107972	0	0	8229	550096	0	0
2024-10-06 23:13:47			0	38377	0	0	0	21722	20290	160696	27372	1054525	46250	107978	0	0	8228	549939	0	0
2024-10-06 23:14:47			0	38363	0	0	0	21711	20290	160736	27170	1054499	46260	107974	0	0	8228	550490	0	0
2024-10-06 23:15:47			0	38368	0	0	0	21703	20280	160716	27386	1054481	46259	107971	0	0	8228	550323	0	0
2024-10-06 23:16:47			0	38353	0	0	0	21714	20280	160768	27163	1054481	46249	107975	0	0	8227	550914	0	0
2024-10-06 23:17:47			0	38361	0	0	0	21727	20280	160708	27182	1054534	46270	107980	0	0	8227	550599	0	0
2024-10-06 23:18:47			0	38355	0	0	0	21724	20290	160784	27322	1054516	46291	107979	0	0	8227	550805	0	0
2024-10-06 23:19:47			0	38360	0	0	0	21748	20280	160728	27147	1054561	46270	107988	0	0	8227	550638	0	0
2024-10-06 23:20:47			0	38372	0	0	0	21737	20290	160644	27178	1054516	46270	107984	0	0	8228	550135	0	0
2024-10-06 23:21:47			0	38357	0	0	0	21719	20290	160712	27242	1054605	46282	107977	0	0	8227	550726	0	0
2024-10-06 23:22:47			0	38356	0	0	0	21719	20290	160768	27097	1054570	46270	107977	0	0	8227	550765	0	0
2024-10-06 23:23:47			0	38359	0	0	0	21737	20290	160708	27360	1054499	46260	107984	0	0	8227	550647	0	0
2024-10-06 23:24:47			0	38357	0	0	0	21724	20300	160720	27157	1054561	46261	107979	0	0	8227	550695	0	0
2024-10-06 23:25:47			0	38359	0	0	0	21719	20300	160776	27410	1054508	46272	107977	0	0	8228	550617	0	0
2024-10-06 23:26:47			0	38347	0	0	0	21729	20290	160808	27400	1054525	46282	107981	0	0	8227	551120	0	0
2024-10-06 23:27:47			0	38324	0	0	0	21732	20290	160932	27076	1054596	46259	107982	0	0	8225	552026	0	0
2024-10-06 23:28:47			0	38353	0	0	0	21737	20300	160848	27535	1054561	46261	107984	0	0	8227	550853	0	0
2024-10-06 23:29:47			0	38329	0	0	0	21727	20300	160888	27237	1054596	46250	107980	0	0	8226	551799	0	0
2024-10-06 23:30:47			0	38327	0	0	0	21737	20310	160860	27157	1054552	46283	107984	0	0	8225	551847	0	0
2024-10-06 23:31:47			0	38326	0	0	0	21729	20300	160932	27175	1054534	46261	107981	0	0	8225	551917	0	0
2024-10-06 23:32:47			0	38326	0	0	0	21724	20290	160984	27114	1054552	46260	107979	0	0	8225	551947	0	0
2024-10-06 23:33:47			0	38290	0	0	0	21729	20300	160988	26915	1054561	46261	107981	0	0	8223	553337	0	0
2024-10-06 23:34:47			0	38301	0	0	0	21722	20310	160992	27215	1054552	46283	107978	0	0	8224	552873	0	0
2024-10-06 23:35:47			0	38298	0	0	0	21716	20300	161120	27010	1054570	46283	107976	0	0	8224	553021	0	0
2024-10-06 23:36:47			0	38282	0	0	0	21724	20300	161064	27502	1054534	46272	107979	0	0	8223	553653	0	0
2024-10-06 23:37:47			0	38285	0	0	0	21719	20300	161124	27374	1054587	46272	107977	0	0	8223	553535	0	0
2024-10-06 23:38:47			0	38255	0	0	0	21722	20300	161248	27183	1054587	46250	107978	0	0	8221	554720	0	0
2024-10-06 23:39:47			0	38250	0	0	0	21696	20300	161204	27041	1054587	46261	107968	0	0	8222	554918	0	0
2024-10-06 23:40:47			0	38232	0	0	0	21701	20290	161256	27268	1054472	46260	107970	0	0	8220	555661	0	0
2024-10-06 23:41:47			0	38223	0	0	0	21701	20290	161320	27554	1054499	46260	107970	0	0	8220	556018	0	0
2024-10-06 23:42:47			0	38217	0	0	0	21709	20290	161296	27358	1054463	46259	107973	0	0	8219	556255	0	0
2024-10-06 23:43:47			0	38234	0	0	0	21701	20290	161376	27343	1054516	46249	107970	0	0	8220	555582	0	0
2024-10-06 23:44:47			0	38222	0	0	0	21698	20290	161368	27360	1054463	46270	107969	0	0	8220	556057	0	0
2024-10-06 23:45:47			0	38204	0	0	0	21690	20290	161452	27157	1054499	46250	107966	0	0	8219	556771	0	0
2024-10-06 23:46:47			0	38222	0	0	0	21690	20280	161476	27185	1054481	46259	107966	0	0	8220	556088	0	0
2024-10-06 23:47:47			0	38189	0	0	0	21683	20270	161464	27170	1054436	46236	107963	0	0	8218	557427	0	0
2024-10-06 23:48:47			0	38199	0	0	0	21690	20280	161516	27242	1054472	46259	107966	0	0	8219	557000	0	0
2024-10-06 23:49:47			0	38171	0	0	0	21685	20280	161528	27348	1054419	46259	107964	0	0	8217	558111	0	0
2024-10-06 23:50:47			0	38186	0	0	0	21685	20270	161424	27114	1054383	46269	107964	0	0	8218	557546	0	0
2024-10-06 23:51:47			0	38214	0	0	0	21680	20270	161388	27291	1054348	46257	107962	0	0	8220	556436	0	0
2024-10-06 23:52:47			0	38251	0	0	0	21696	20270	161332	27229	1054383	46247	107968	0	0	8221	554971	0	0
2024-10-06 23:53:47			0	38285	0	0	0	21709	20270	161112	27279	1054436	46258	107973	0	0	8223	553627	0	0
2024-10-06 23:54:47			0	38334	0	0	0	21711	20260	160968	27416	1054419	46257	107974	0	0	8226	551723	0	0
2024-10-06 23:55:47			0	38360	0	0	0	21719	20280	160816	27092	1054508	46270	107977	0	0	8228	550638	0	0
2024-10-06 23:56:47			0	38388	0	0	0	21716	20260	160752	27471	1054472	46268	107976	0	0	8229	549597	0	0
2024-10-06 23:57:47			0	38399	0	0	0	21722	20280	160680	27227	1054472	46270	107978	0	0	8230	549104	0	0
2024-10-06 23:58:47			0	38425	0	0	0	21719	20280	160568	27369	1054508	46259	107977	0	0	8231	548083	0	0
2024-10-06 23:59:47			0	38443	0	0	0	21719	20290	160532	27379	1054525	46271	107977	0	0	8232	547346	0	0
2024-10-07 00:00:47			0	38452	0	0	0	21732	20280	160452	27178	1054508	46270	107982	0	0	8233	547023	0	0
2024-10-07 00:01:47			0	38436	0	0	0	21735	20290	160528	27372	1054516	46270	107983	0	0	8232	547621	0	0
2024-10-07 00:02:47			0	38450	0	0	0	21719	20280	160324	27254	1054508	46270	107977	0	0	8233	547102	0	0
2024-10-07 00:03:47			0	38454	0	0	0	21729	20290	160376	26970	1054516	46259	107981	0	0	8233	546915	0	0
2024-10-07 00:04:47			0	38473	0	0	0	21742	20280	160292	27490	1054534	46249	107986	0	0	8234	546200	0	0
2024-10-07 00:05:47			0	38464	0	0	0	21724	20280	160256	27026	1054508	46259	107979	0	0	8233	546553	0	0
2024-10-07 00:06:47			0	38477	0	0	0	21714	20290	160296	27395	1054596	46281	107975	0	0	8234	546013	0	0
2024-10-07 00:07:47			0	38478	0	0	0	21745	20290	160316	27066	1054499	46271	107987	0	0	8234	545974	0	0
2024-10-07 00:08:47			0	38484	0	0	0	21732	20280	160192	26939	1054561	46259	107982	0	0	8235	545769	0	0
2024-10-07 00:09:47			0	38473	0	0	0	21735	20290	160260	27298	1054570	46259	107983	0	0	8234	546170	0	0
2024-10-07 00:10:47			0	38466	0	0	0	21729	20290	160264	27178	1054552	46271	107981	0	0	8234	546444	0	0
2024-10-07 00:11:47			0	38458	0	0	0	21727	20300	160296	27121	1054534	46272	107980	0	0	8233	546728	0	0
2024-10-07 00:12:47			0	38469	0	0	0	21735	20290	160304	27222	1054596	46270	107983	0	0	8234	546327	0	0
2024-10-07 00:13:47			0	38462	0	0	0	21727	20300	160416	27286	1054587	46261	107980	0	0	8233	546571	0	0
2024-10-07 00:14:47			0	38463	0	0	0	21724	20300	160384	27088	1054570	46272	107979	0	0	8234	546532	0	0
2024-10-07 00:15:47			0	38455	0	0	0	21724	20300	160424	27355	1054570	46261	107979	0	0	8233	546845	0	0
2024-10-07 00:16:47			0	38448	0	0	0	21714	20300	160496	27305	1054561	46261	107975	0	0	8233	547120	0	0
2024-10-07 00:17:47			0	38449	0	0	0	21724	20300	160416	27322	1054543	46261	107979	0	0	8233	547080	0	0
2024-10-07 00:18:47			0	38465	0	0	0	21737	20300	160396	27218	1054587	46272	107984	0	0	8233	546453	0	0
2024-10-07 00:19:47			0	38459	0	0	0	21745	20290	160476	27213	1054605	46271	107987	0	0	8233	546719	0	0
2024-10-07 00:20:47			0	38479	0	0	0	21740	20300	160288	27154	1054623	46261	107985	0	0	8234	545905	0	0
2024-10-07 00:21:47			0	38489	0	0	0	21740	20300	160248	27419	1054650	46272	107985	0	0	8235	545513	0	0
2024-10-07 00:22:47			0	38492	0	0	0	21740	20310	160184	27175	1054641	46273	107985	0	0	8235	545366	0	0
2024-10-07 00:23:47			0	38470	0	0	0	21740	20300	160308	27086	1054596	46272	107985	0	0	8234	546257	0	0
2024-10-07 00:24:47			0	38498	0	0	0	21737	20310	160216	26727	1054632	46261	107984	0	0	8235	545131	0	0
2024-10-07 00:25:47			0	38505	0	0	0	21732	20300	160192	27306	1054561	46272	107982	0	0	8236	544887	0	0
2024-10-07 00:26:47			0	38495	0	0	0	21755	20310	160164	26984	1054659	46293	107991	0	0	8235	545248	0	0
2024-10-07 00:27:47			0	38505	0	0	0	21750	20310	160104	26956	1054588	46294	107989	0	0	8236	544857	0	0
2024-10-07 00:28:47			0	38515	0	0	0	21763	20300	160132	27152	1054650	46272	107994	0	0	8236	544496	0	0
2024-10-07 00:29:47			0	38522	0	0	0	21755	20300	160076	27275	1054676	46261	107991	0	0	8236	544222	0	0
2024-10-07 00:30:47			0	38538	0	0	0	21761	20310	160088	26994	1054667	46273	107993	0	0	8237	543567	0	0
2024-10-07 00:31:47			0	38524	0	0	0	21753	20320	160072	27017	1054676	46285	107990	0	0	8237	544084	0	0
2024-10-07 00:32:47			0	38524	0	0	0	21737	20320	160060	26883	1054676	46274	107984	0	0	8237	544084	0	0
2024-10-07 00:33:47			0	38516	0	0	0	21742	20320	160100	27486	1054712	46275	107986	0	0	8236	544397	0	0
2024-10-07 00:34:47			0	38504	0	0	0	21748	20310	160144	27178	1054641	46273	107988	0	0	8236	544896	0	0
2024-10-07 00:35:47			0	38512	0	0	0	21745	20310	160132	27486	1054614	46273	107987	0	0	8236	544583	0	0
2024-10-07 00:36:47			0	38507	0	0	0	21735	20320	160120	26984	1054703	46263	107983	0	0	8236	544749	0	0
2024-10-07 00:37:47			0	38507	0	0	0	21742	20320	160116	27251	1054703	46263	107986	0	0	8236	544749	0	0
2024-10-07 00:38:47			0	38510	0	0	0	21748	20310	160164	27074	1054641	46273	107988	0	0	8236	544661	0	0
2024-10-07 00:39:47			0	38490	0	0	0	21748	20310	160064	27157	1054641	46251	107988	0	0	8235	545444	0	0
2024-10-07 00:40:47			0	38502	0	0	0	21742	20320	160264	27102	1054632	46264	107986	0	0	8236	544944	0	0
2024-10-07 00:41:47			0	38501	0	0	0	21748	20310	160140	27166	1054667	46273	107988	0	0	8235	545014	0	0
2024-10-07 00:42:47			0	38508	0	0	0	21745	20310	160164	27111	1054641	46273	107987	0	0	8236	544740	0	0
2024-10-07 00:43:47			0	38487	0	0	0	21732	20320	160168	27046	1054703	46263	107982	0	0	8235	545531	0	0
2024-10-07 00:44:47			0	38476	0	0	0	21732	20310	160240	26890	1054614	46262	107982	0	0	8234	545992	0	0
2024-10-07 00:45:47			0	38484	0	0	0	21727	20310	160280	27255	1054667	46273	107980	0	0	8235	545679	0	0
2024-10-07 00:46:47			0	38486	0	0	0	21719	20310	160332	27218	1054588	46251	107977	0	0	8235	545600	0	0
2024-10-07 00:47:47			0	38476	0	0	0	21745	20310	160312	27208	1054659	46261	107987	0	0	8234	545992	0	0
2024-10-07 00:48:47			0	38486	0	0	0	21740	20310	160248	27022	1054667	46262	107985	0	0	8235	545600	0	0
2024-10-07 00:49:47			0	38494	0	0	0	21748	20330	160248	27149	1054614	46286	107988	0	0	8235	545227	0	0
2024-10-07 00:50:47			0	38497	0	0	0	21737	20310	160188	27595	1054579	46250	107984	0	0	8235	545170	0	0
2024-10-07 00:51:47			0	38501	0	0	0	21755	20310	160140	27237	1054632	46261	107991	0	0	8235	545014	0	0
2024-10-07 00:52:47			0	38495	0	0	0	21742	20310	160060	27015	1054641	46294	107986	0	0	8235	545248	0	0
2024-10-07 00:53:47			0	38495	0	0	0	21714	20310	160192	27000	1054659	46272	107975	0	0	8236	545248	0	0
2024-10-07 00:54:47			0	38470	0	0	0	21724	20320	160220	27483	1054650	46252	107979	0	0	8234	546197	0	0
2024-10-07 00:55:47			0	38472	0	0	0	21737	20320	160212	27294	1054676	46252	107984	0	0	8234	546119	0	0
2024-10-07 00:56:47			0	38475	0	0	0	21748	20310	160168	27213	1054667	46273	107988	0	0	8234	546031	0	0
2024-10-07 00:57:47			0	38474	0	0	0	21750	20310	160204	27168	1054641	46262	107989	0	0	8234	546070	0	0
2024-10-07 00:58:47			0	38481	0	0	0	21745	20310	160220	26956	1054632	46261	107987	0	0	8234	545796	0	0
2024-10-07 00:59:47			0	38487	0	0	0	21740	20310	160296	27199	1054659	46283	107985	0	0	8235	545561	0	0
2024-10-07 01:00:47			0	38469	0	0	0	21735	20320	160132	27015	1054623	46274	107983	0	0	8234	546236	0	0
2024-10-07 01:01:47			0	38479	0	0	0	21732	20320	160236	27279	1054623	46252	107982	0	0	8234	545844	0	0
2024-10-07 01:02:47			0	38488	0	0	0	21729	20310	160316	27100	1054632	46250	107981	0	0	8235	545522	0	0
2024-10-07 01:03:47			0	38473	0	0	0	21729	20310	160328	27064	1054614	46273	107981	0	0	8234	546110	0	0
2024-10-07 01:04:47			0	38482	0	0	0	21745	20320	160352	27235	1054650	46285	107987	0	0	8234	545727	0	0
2024-10-07 01:05:47			0	38503	0	0	0	21748	20310	160244	27112	1054659	46272	107988	0	0	8236	544935	0	0
2024-10-07 01:06:47			0	38484	0	0	0	21750	20310	160248	27005	1054747	46273	107989	0	0	8234	545679	0	0
2024-10-07 01:07:47			0	38487	0	0	0	21750	20310	160196	27085	1054579	46261	107989	0	0	8235	545561	0	0
2024-10-07 01:08:47			0	38493	0	0	0	21755	20320	160236	27072	1054703	46263	107991	0	0	8235	545296	0	0
2024-10-07 01:09:47			0	38506	0	0	0	21740	20320	160200	27168	1054676	46263	107985	0	0	8236	544788	0	0
2024-10-07 01:10:47			0	38506	0	0	0	21755	20320	160236	27474	1054685	46275	107991	0	0	8236	544788	0	0
2024-10-07 01:11:47			0	38494	0	0	0	21750	20320	160148	27144	1054703	46274	107989	0	0	8235	545257	0	0
2024-10-07 01:12:47			0	38479	0	0	0	21732	20310	160248	27429	1054605	46283	107982	0	0	8234	545875	0	0
2024-10-07 01:13:47			0	38499	0	0	0	21732	20310	160208	27138	1054659	46272	107982	0	0	8236	545092	0	0
2024-10-07 01:14:47			0	38469	0	0	0	21724	20310	160296	27362	1054632	46261	107979	0	0	8234	546266	0	0
2024-10-07 01:15:47			0	38475	0	0	0	21727	20300	160340	26951	1054623	46261	107980	0	0	8234	546061	0	0
2024-10-07 01:16:47			0	38456	0	0	0	21724	20300	160324	27069	1054623	46261	107979	0	0	8233	546806	0	0
2024-10-07 01:17:47			0	38461	0	0	0	21711	20310	160360	26942	1054632	46261	107974	0	0	8234	546580	0	0
2024-10-07 01:18:47			0	38460	0	0	0	21719	20320	160300	27353	1054623	46274	107977	0	0	8234	546589	0	0
2024-10-07 01:19:47			0	38475	0	0	0	21724	20310	160264	27327	1054632	46250	107979	0	0	8234	546031	0	0
2024-10-07 01:20:47			0	38464	0	0	0	21727	20310	160340	27164	1054605	46250	107980	0	0	8234	546462	0	0
2024-10-07 01:21:47			0	38465	0	0	0	21716	20300	160324	27012	1054596	46272	107976	0	0	8234	546453	0	0
2024-10-07 01:22:47			0	38454	0	0	0	21716	20300	160300	27419	1054570	46272	107976	0	0	8233	546884	0	0
2024-10-07 01:23:47			0	38430	0	0	0	21714	20300	160352	27180	1054561	46250	107975	0	0	8232	547826	0	0
2024-10-07 01:24:47			0	38454	0	0	0	21714	20300	160368	27235	1054596	46261	107975	0	0	8233	546884	0	0
2024-10-07 01:25:47			0	38463	0	0	0	21714	20300	160404	27407	1054561	46272	107975	0	0	8234	546532	0	0
2024-10-07 01:26:47			0	38434	0	0	0	21706	20300	160488	27100	1054650	46272	107972	0	0	8232	547669	0	0
2024-10-07 01:27:47			0	38419	0	0	0	21709	20290	160492	27138	1054499	46260	107973	0	0	8231	548288	0	0
2024-10-07 01:28:47			0	38431	0	0	0	21709	20290	160468	27140	1054552	46260	107973	0	0	8232	547817	0	0
2024-10-07 01:29:47			0	38434	0	0	0	21706	20290	160600	27357	1054499	46260	107972	0	0	8232	547699	0	0
2024-10-07 01:30:47			0	38419	0	0	0	21714	20290	160588	27308	1054525	46260	107975	0	0	8231	548288	0	0
2024-10-07 01:31:47			0	38410	0	0	0	21701	20300	160588	27431	1054570	46261	107970	0	0	8231	548611	0	0
2024-10-07 01:32:47			0	38399	0	0	0	21698	20290	160472	27189	1054490	46259	107969	0	0	8230	549074	0	0
2024-10-07 01:33:47			0	38407	0	0	0	21701	20290	160576	27055	1054516	46259	107970	0	0	8231	548759	0	0
2024-10-07 01:34:47			0	38398	0	0	0	21709	20280	160580	27038	1054481	46270	107973	0	0	8230	549143	0	0
2024-10-07 01:35:47			0	38421	0	0	0	21711	20280	160528	27027	1054481	46270	107974	0	0	8231	548240	0	0
2024-10-07 01:36:47			0	38426	0	0	0	21716	20290	160580	27256	1054525	46260	107976	0	0	8231	548013	0	0
2024-10-07 01:37:47			0	38418	0	0	0	21727	20290	160632	27216	1054543	46259	107980	0	0	8231	548327	0	0
2024-10-07 01:38:47			0	38428	0	0	0	21719	20290	160408	27454	1054525	46271	107977	0	0	8232	547935	0	0
2024-10-07 01:39:47			0	38431	0	0	0	21709	20280	160492	27157	1054561	46281	107973	0	0	8232	547847	0	0
2024-10-07 01:40:47			0	38425	0	0	0	21693	20300	160440	27327	1054508	46261	107967	0	0	8232	548022	0	0
2024-10-07 01:41:47			0	38411	0	0	0	21706	20290	160536	27149	1054490	46259	107972	0	0	8231	548602	0	0
2024-10-07 01:42:47			0	38410	0	0	0	21703	20280	160520	27131	1054561	46270	107971	0	0	8231	548672	0	0
2024-10-07 01:43:47			0	38407	0	0	0	21709	20290	160476	27078	1054472	46260	107973	0	0	8230	548759	0	0
2024-10-07 01:44:47			0	38421	0	0	0	21703	20270	160568	27060	1054436	46247	107971	0	0	8231	548270	0	0
2024-10-07 01:45:47			0	38410	0	0	0	21698	20280	160544	26904	1054525	46270	107969	0	0	8231	548672	0	0
2024-10-07 01:46:47			0	38422	0	0	0	21709	20280	160548	27346	1054499	46270	107973	0	0	8231	548200	0	0
2024-10-07 01:47:47			0	38402	0	0	0	21696	20280	160624	27222	1054472	46259	107968	0	0	8230	548986	0	0
2024-10-07 01:48:47			0	38409	0	0	0	21698	20280	160660	27222	1054481	46281	107969	0	0	8231	548711	0	0
2024-10-07 01:49:47			0	38426	0	0	0	21701	20280	160620	27583	1054508	46270	107970	0	0	8232	548043	0	0
2024-10-07 01:50:47			0	38394	0	0	0	21706	20280	160604	26968	1054428	46259	107972	0	0	8230	549300	0	0
2024-10-07 01:51:47			0	38405	0	0	0	21696	20280	160536	27341	1054472	46270	107968	0	0	8231	548868	0	0
2024-10-07 01:52:47			0	38380	0	0	0	21703	20270	160632	26987	1054436	46247	107971	0	0	8229	549881	0	0
2024-10-07 01:53:47			0	38390	0	0	0	21696	20280	160668	27248	1054472	46259	107968	0	0	8230	549458	0	0
2024-10-07 01:54:47			0	38386	0	0	0	21693	20270	160628	27486	1054463	46258	107967	0	0	8229	549645	0	0
2024-10-07 01:55:47			0	38398	0	0	0	21698	20270	160580	27460	1054516	46269	107969	0	0	8230	549174	0	0
2024-10-07 01:56:47			0	38393	0	0	0	21693	20270	160444	27253	1054463	46269	107967	0	0	8230	549370	0	0
2024-10-07 01:57:47			0	38389	0	0	0	21690	20260	160508	26974	1054419	46246	107966	0	0	8230	549558	0	0
2024-10-07 01:58:47			0	38411	0	0	0	21690	20260	160476	27182	1054498	46268	107966	0	0	8231	548693	0	0
2024-10-07 01:59:47			0	38416	0	0	0	21688	20270	160432	27201	1054463	46258	107965	0	0	8231	548466	0	0
2024-10-07 02:00:47			0	38404	0	0	0	21706	20270	160552	27211	1054463	46269	107972	0	0	8230	548938	0	0
2024-10-07 02:01:47			0	38409	0	0	0	21711	20270	160516	27398	1054436	46280	107974	0	0	8230	548741	0	0
2024-10-07 02:02:47			0	38415	0	0	0	21703	20270	160512	26961	1054454	46257	107971	0	0	8231	548505	0	0
2024-10-07 02:03:47			0	38410	0	0	0	21698	20260	160568	27194	1054445	46257	107969	0	0	8231	548732	0	0
2024-10-07 02:04:47			0	38416	0	0	0	21693	20280	160548	27367	1054419	46270	107967	0	0	8231	548436	0	0
2024-10-07 02:05:47			0	38408	0	0	0	21693	20270	160444	27203	1054436	46258	107967	0	0	8231	548780	0	0
2024-10-07 02:06:47			0	38400	0	0	0	21690	20280	160508	27187	1054525	46259	107966	0	0	8230	549064	0	0
2024-10-07 02:07:47			0	38404	0	0	0	21685	20260	160560	27360	1054419	46268	107964	0	0	8231	548968	0	0
2024-10-07 02:08:47			0	38398	0	0	0	21690	20270	160544	27312	1054410	46247	107966	0	0	8230	549174	0	0
2024-10-07 02:09:47			0	38375	0	0	0	21693	20270	160560	27293	1054436	46258	107967	0	0	8229	550078	0	0
2024-10-07 02:10:47			0	38369	0	0	0	21690	20260	160556	27372	1054472	46268	107966	0	0	8228	550345	0	0
2024-10-07 02:11:47			0	38390	0	0	0	21685	20260	160656	27228	1054419	46268	107964	0	0	8230	549518	0	0
2024-10-07 02:12:47			0	38398	0	0	0	21685	20260	160628	26979	1054472	46268	107964	0	0	8230	549204	0	0
2024-10-07 02:13:47			0	38380	0	0	0	21693	20260	160624	27381	1054436	46257	107967	0	0	8229	549912	0	0
2024-10-07 02:14:47			0	38383	0	0	0	21677	20270	160688	27201	1054463	46258	107961	0	0	8230	549763	0	0
2024-10-07 02:15:47			0	38365	0	0	0	21677	20260	160700	27098	1054392	46268	107961	0	0	8228	550502	0	0
2024-10-07 02:16:47			0	38368	0	0	0	21677	20260	160620	27076	1054383	46268	107961	0	0	8229	550384	0	0
2024-10-07 02:17:47			0	38348	0	0	0	21675	20260	160748	27277	1054356	46246	107960	0	0	8227	551172	0	0
2024-10-07 02:18:47			0	38342	0	0	0	21683	20260	160720	27111	1054356	46246	107963	0	0	8227	551408	0	0
2024-10-07 02:19:47			0	38351	0	0	0	21683	20260	160704	27194	1054419	46257	107963	0	0	8227	551053	0	0
2024-10-07 02:20:47			0	38355	0	0	0	21683	20260	160728	27223	1054392	46257	107963	0	0	8228	550896	0	0
2024-10-07 02:21:47			0	38375	0	0	0	21685	20270	160712	26793	1054401	46279	107964	0	0	8229	550078	0	0
2024-10-07 02:22:47			0	38376	0	0	0	21685	20260	160740	27216	1054410	46268	107964	0	0	8229	550069	0	0
2024-10-07 02:23:47			0	38350	0	0	0	21683	20260	160700	27294	1054419	46257	107963	0	0	8227	551093	0	0
2024-10-07 02:24:47			0	38349	0	0	0	21677	20250	160748	27187	1054374	46267	107961	0	0	8227	551163	0	0
2024-10-07 02:25:47			0	38340	0	0	0	21672	20260	160872	27336	1054392	46279	107959	0	0	8227	551487	0	0
2024-10-07 02:26:47			0	38343	0	0	0	21670	20260	160864	27119	1054383	46257	107958	0	0	8227	551369	0	0
2024-10-07 02:27:47			0	38333	0	0	0	21675	20250	160872	27371	1054374	46256	107960	0	0	8227	551793	0	0
2024-10-07 02:28:47			0	38350	0	0	0	21675	20260	160764	27088	1054312	46268	107960	0	0	8228	551093	0	0
2024-10-07 02:29:47			0	38348	0	0	0	21672	20260	160816	27173	1054383	46268	107959	0	0	8228	551172	0	0
2024-10-07 02:30:47			0	38357	0	0	0	21688	20260	160840	27133	1054392	46246	107965	0	0	8228	550817	0	0
2024-10-07 02:31:47			0	38334	0	0	0	21667	20260	160824	27176	1054356	46257	107957	0	0	8227	551723	0	0
2024-10-07 02:32:47			0	38356	0	0	0	21675	20260	160760	27057	1054383	46268	107960	0	0	8228	550857	0	0
2024-10-07 02:33:47			0	38349	0	0	0	21667	20260	160804	27390	1054383	46268	107957	0	0	8228	551132	0	0
2024-10-07 02:34:47			0	38341	0	0	0	21662	20240	160804	27248	1054392	46266	107955	0	0	8227	551508	0	0
2024-10-07 02:35:47			0	38348	0	0	0	21677	20260	160804	27225	1054356	46246	107961	0	0	8227	551172	0	0
2024-10-07 02:36:47			0	38341	0	0	0	21680	20240	160788	27281	1054339	46244	107962	0	0	8227	551508	0	0
2024-10-07 02:37:47			0	38354	0	0	0	21683	20260	160800	27289	1054410	46268	107963	0	0	8228	550935	0	0
2024-10-07 02:38:47			0	38366	0	0	0	21683	20260	160772	27239	1054410	46257	107963	0	0	8228	550463	0	0
2024-10-07 02:39:47			0	38339	0	0	0	21672	20260	160872	27015	1054436	46257	107959	0	0	8227	551526	0	0
2024-10-07 02:40:47			0	38355	0	0	0	21675	20240	160812	27185	1054365	46255	107960	0	0	8228	550957	0	0
2024-10-07 02:41:47			0	38356	0	0	0	21685	20250	160828	27086	1054321	46267	107964	0	0	8228	550887	0	0
2024-10-07 02:42:47			0	38353	0	0	0	21677	20240	160804	27057	1054365	46277	107961	0	0	8228	551035	0	0
2024-10-07 02:43:47			0	38346	0	0	0	21680	20240	160720	27365	1054339	46266	107962	0	0	8227	551311	0	0
2024-10-07 02:44:47			0	38345	0	0	0	21664	20240	160756	27345	1054365	46266	107956	0	0	8227	551351	0	0
2024-10-07 02:45:47			0	38353	0	0	0	21675	20240	160732	27097	1054392	46266	107960	0	0	8228	551035	0	0
2024-10-07 02:46:47			0	38344	0	0	0	21670	20240	160804	27083	1054409	46265	107958	0	0	8227	551390	0	0
2024-10-07 02:47:47			0	38362	0	0	0	21662	20250	160840	27218	1054348	46256	107955	0	0	8228	550651	0	0
2024-10-07 02:48:47			0	38355	0	0	0	21670	20260	160896	27357	1054330	46268	107958	0	0	8228	550896	0	0
2024-10-07 02:49:47			0	38348	0	0	0	21664	20260	160896	27152	1054339	46257	107956	0	0	8228	551172	0	0
2024-10-07 02:50:47			0	38328	0	0	0	21657	20250	161028	27066	1054348	46256	107953	0	0	8227	551990	0	0
2024-10-07 02:51:47			0	38314	0	0	0	21662	20260	161000	27564	1054250	46257	107955	0	0	8226	552512	0	0
2024-10-07 02:52:47			0	38322	0	0	0	21667	20240	161000	27074	1054303	46254	107957	0	0	8226	552258	0	0
2024-10-07 02:53:47			0	38310	0	0	0	21657	20240	161072	27244	1054312	46233	107953	0	0	8225	552731	0	0
2024-10-07 02:54:47			0	38318	0	0	0	21657	20240	161072	27000	1054356	46243	107953	0	0	8226	552415	0	0
2024-10-07 02:55:47			0	38313	0	0	0	21664	20230	160972	27230	1054268	46265	107956	0	0	8225	552643	0	0
2024-10-07 02:56:47			0	38310	0	0	0	21664	20240	160912	27196	1054330	46265	107956	0	0	8225	552731	0	0
2024-10-07 02:57:47			0	38307	0	0	0	21667	20240	161084	27251	1054339	46266	107957	0	0	8225	552849	0	0
2024-10-07 02:58:47			0	38319	0	0	0	21664	20240	161048	27216	1054303	46254	107956	0	0	8226	552376	0	0
2024-10-07 02:59:47			0	38314	0	0	0	21667	20240	160900	27268	1054356	46265	107957	0	0	8226	552573	0	0
2024-10-07 03:00:47			0	38320	0	0	0	21675	20240	160960	27319	1054285	46266	107960	0	0	8226	552336	0	0
2024-10-07 03:01:47			0	38327	0	0	0	21670	20230	161032	27039	1054241	46254	107958	0	0	8226	552091	0	0
2024-10-07 03:02:47			0	38317	0	0	0	21667	20240	160940	26965	1054303	46254	107957	0	0	8226	552455	0	0
2024-10-07 03:03:47			0	38322	0	0	0	21662	20240	160936	27168	1054330	46243	107955	0	0	8226	552258	0	0
2024-10-07 03:04:47			0	38330	0	0	0	21664	20240	160936	27043	1054276	46265	107956	0	0	8226	551942	0	0
2024-10-07 03:05:47			0	38333	0	0	0	21664	20240	160880	27270	1054356	46254	107956	0	0	8227	551824	0	0
2024-10-07 03:06:47			0	38330	0	0	0	21657	20230	160884	27454	1054321	46254	107953	0	0	8227	551972	0	0
2024-10-07 03:07:47			0	38324	0	0	0	21654	20240	160924	27258	1054330	46254	107952	0	0	8226	552178	0	0
2024-10-07 03:08:47			0	38317	0	0	0	21662	20240	160960	27258	1054223	46254	107955	0	0	8226	552455	0	0
2024-10-07 03:09:47			0	38317	0	0	0	21667	20240	160992	27287	1054330	46254	107957	0	0	8226	552455	0	0
2024-10-07 03:10:47			0	38313	0	0	0	21664	20230	160928	27547	1054347	46254	107956	0	0	8225	552643	0	0
2024-10-07 03:11:47			0	38301	0	0	0	21662	20240	161068	27355	1054303	46254	107955	0	0	8225	553086	0	0
2024-10-07 03:12:47			0	38292	0	0	0	21662	20240	161000	27208	1054303	46254	107955	0	0	8224	553442	0	0
2024-10-07 03:13:47			0	38314	0	0	0	21659	20230	161148	27407	1054268	46254	107954	0	0	8226	552604	0	0
2024-10-07 03:14:47			0	38306	0	0	0	21662	20230	160984	27175	1054374	46232	107955	0	0	8225	552919	0	0
2024-10-07 03:15:47			0	38302	0	0	0	21664	20230	161056	27348	1054294	46243	107956	0	0	8225	553077	0	0
2024-10-07 03:16:47			0	38313	0	0	0	21646	20230	161076	27171	1054294	46254	107949	0	0	8226	552643	0	0
2024-10-07 03:17:47			0	38293	0	0	0	21644	20240	161056	27118	1054330	46243	107948	0	0	8225	553402	0	0
2024-10-07 03:18:47			0	38290	0	0	0	21641	20230	161020	27050	1054268	46243	107947	0	0	8225	553551	0	0
2024-10-07 03:19:47			0	38283	0	0	0	21638	20240	161080	27083	1054276	46254	107946	0	0	8224	553797	0	0
2024-10-07 03:20:47			0	38292	0	0	0	21638	20230	161100	27258	1054268	46254	107946	0	0	8225	553472	0	0
2024-10-07 03:21:47			0	38288	0	0	0	21646	20230	161104	27192	1054347	46243	107949	0	0	8224	553630	0	0
2024-10-07 03:22:47			0	38277	0	0	0	21636	20230	161092	27402	1054241	46265	107945	0	0	8224	554065	0	0
2024-10-07 03:23:47			0	38288	0	0	0	21641	20220	161084	27377	1054214	46241	107947	0	0	8224	553661	0	0
2024-10-07 03:24:47			0	38279	0	0	0	21644	20230	161132	27102	1054259	46254	107948	0	0	8224	553986	0	0
2024-10-07 03:25:47			0	38284	0	0	0	21633	20210	161180	27241	1054223	46252	107944	0	0	8224	553849	0	0
2024-10-07 03:26:47			0	38261	0	0	0	21633	20220	161156	27185	1054188	46241	107944	0	0	8223	554728	0	0
2024-10-07 03:27:47			0	38268	0	0	0	21631	20210	161184	27282	1054178	46241	107943	0	0	8223	554482	0	0
2024-10-07 03:28:47			0	38240	0	0	0	21628	20210	161216	27502	1054178	46263	107942	0	0	8222	555590	0	0
2024-10-07 03:29:47			0	38248	0	0	0	21620	20220	161220	27230	1054188	46252	107939	0	0	8222	555243	0	0
2024-10-07 03:30:47			0	38229	0	0	0	21625	20200	161368	27206	1054160	46262	107941	0	0	8221	556056	0	0
2024-10-07 03:31:47			0	38234	0	0	0	21631	20210	161260	27310	1054196	46252	107943	0	0	8221	555828	0	0
2024-10-07 03:32:47			0	38234	0	0	0	21631	20210	161288	27265	1054223	46252	107943	0	0	8221	555828	0	0
2024-10-07 03:33:47			0	38245	0	0	0	21625	20200	161252	27244	1054152	46250	107941	0	0	8222	555423	0	0
2024-10-07 03:34:47			0	38246	0	0	0	21633	20210	161288	27074	1054205	46263	107944	0	0	8222	555353	0	0
2024-10-07 03:35:47			0	38229	0	0	0	21628	20210	161292	27072	1054196	46285	107942	0	0	8221	556026	0	0
2024-10-07 03:36:47			0	38250	0	0	0	21633	20200	161296	26904	1054152	46261	107944	0	0	8222	555225	0	0
2024-10-07 03:37:47			0	38251	0	0	0	21633	20190	161372	26948	1054169	46250	107944	0	0	8222	555216	0	0
2024-10-07 03:38:47			0	38232	0	0	0	21631	20200	161316	27189	1054152	46228	107943	0	0	8221	555938	0	0
2024-10-07 03:39:47			0	38249	0	0	0	21631	20200	161332	27159	1054214	46251	107943	0	0	8222	555264	0	0
2024-10-07 03:40:47			0	38239	0	0	0	21641	20200	161208	27083	1054160	46251	107947	0	0	8221	555660	0	0
2024-10-07 03:41:47			0	38255	0	0	0	21631	20200	161304	27239	1054125	46250	107943	0	0	8222	555027	0	0
2024-10-07 03:42:47			0	38244	0	0	0	21625	20210	161292	27281	1054196	46263	107941	0	0	8222	555432	0	0
2024-10-07 03:43:47			0	38250	0	0	0	21633	20200	161348	27220	1054125	46261	107944	0	0	8222	555225	0	0
2024-10-07 03:44:47			0	38240	0	0	0	21625	20200	161304	27324	1054187	46273	107941	0	0	8222	555621	0	0
2024-10-07 03:45:47			0	38240	0	0	0	21625	20200	161276	27123	1054187	46251	107941	0	0	8222	555621	0	0
2024-10-07 03:46:47			0	38242	0	0	0	21628	20210	161268	27528	1054169	46252	107942	0	0	8222	555511	0	0
2024-10-07 03:47:47			0	38243	0	0	0	21631	20210	161264	27111	1054169	46263	107943	0	0	8222	555471	0	0
2024-10-07 03:48:47			0	38247	0	0	0	21620	20200	161236	27036	1054107	46262	107939	0	0	8222	555343	0	0
2024-10-07 03:49:47			0	38252	0	0	0	21631	20190	161308	27313	1054089	46250	107943	0	0	8222	555176	0	0
2024-10-07 03:50:47			0	38248	0	0	0	21628	20200	161280	27090	1054152	46250	107942	0	0	8222	555304	0	0
2024-10-07 03:51:47			0	38263	0	0	0	21628	20200	161272	27383	1054178	46250	107942	0	0	8223	554710	0	0
2024-10-07 03:52:47			0	38260	0	0	0	21633	20200	161236	27656	1054152	46261	107944	0	0	8223	554829	0	0
2024-10-07 03:53:47			0	38274	0	0	0	21620	20190	161156	27277	1054143	46261	107939	0	0	8224	554306	0	0
2024-10-07 03:54:47			0	38237	0	0	0	21620	20200	161324	27384	1054152	46261	107939	0	0	8222	555740	0	0
2024-10-07 03:55:47			0	38259	0	0	0	21623	20190	161144	27100	1054116	46239	107940	0	0	8223	554899	0	0
2024-10-07 03:56:47			0	38249	0	0	0	21631	20200	161104	27234	1054125	46283	107943	0	0	8222	555264	0	0
2024-10-07 03:57:47			0	38258	0	0	0	21625	20200	161240	27360	1054178	46250	107941	0	0	8223	554908	0	0
2024-10-07 03:58:47			0	38258	0	0	0	21628	20190	161224	27242	1054160	46239	107942	0	0	8223	554939	0	0
2024-10-07 03:59:47			0	38262	0	0	0	21623	20200	161096	27563	1054098	46250	107940	0	0	8223	554750	0	0
2024-10-07 04:00:47			0	38263	0	0	0	21628	20190	161136	27412	1054169	46261	107942	0	0	8223	554741	0	0
2024-10-07 04:01:47			0	38266	0	0	0	21636	20200	161136	27384	1054178	46250	107945	0	0	8223	554592	0	0
2024-10-07 04:02:47			0	38248	0	0	0	21633	20210	161012	27267	1054143	46263	107944	0	0	8222	555273	0	0
2024-10-07 04:03:47			0	38261	0	0	0	21631	20200	161124	27357	1054205	46261	107943	0	0	8223	554789	0	0
2024-10-07 04:04:47			0	38296	0	0	0	21631	20200	161104	27157	1054125	46261	107943	0	0	8225	553406	0	0
2024-10-07 04:05:47			0	38287	0	0	0	21636	20200	161060	27194	1054152	46250	107945	0	0	8224	553762	0	0
2024-10-07 04:06:47			0	38276	0	0	0	21628	20200	161200	27209	1054205	46272	107942	0	0	8224	554196	0	0
2024-10-07 04:07:47			0	38293	0	0	0	21628	20200	161108	27015	1054205	46250	107942	0	0	8225	553524	0	0
2024-10-07 04:08:47			0	38299	0	0	0	21636	20200	161164	27251	1054240	46251	107945	0	0	8225	553287	0	0
2024-10-07 04:09:47			0	38290	0	0	0	21636	20200	161072	27230	1054160	46240	107945	0	0	8224	553643	0	0
2024-10-07 04:10:47			0	38293	0	0	0	21633	20200	161140	26960	1054205	46261	107944	0	0	8225	553524	0	0
2024-10-07 04:11:47			0	38290	0	0	0	21631	20210	161140	26994	1054169	46252	107943	0	0	8225	553612	0	0
2024-10-07 04:12:47			0	38272	0	0	0	21625	20200	161164	27209	1054187	46273	107941	0	0	8224	554354	0	0
2024-10-07 04:13:47			0	38284	0	0	0	21641	20200	161012	27211	1054134	46262	107947	0	0	8224	553880	0	0
2024-10-07 04:14:47			0	38295	0	0	0	21631	20210	161144	27237	1054196	46252	107943	0	0	8225	553415	0	0
2024-10-07 04:15:47			0	38291	0	0	0	21631	20200	161064	27149	1054134	46284	107943	0	0	8225	553603	0	0
2024-10-07 04:16:47			0	38299	0	0	0	21638	20200	161104	27189	1054187	46273	107946	0	0	8225	553287	0	0
2024-10-07 04:17:47			0	38292	0	0	0	21636	20200	161212	27144	1054231	46261	107945	0	0	8225	553564	0	0
2024-10-07 04:18:47			0	38299	0	0	0	21628	20190	161196	27171	1054134	46228	107942	0	0	8225	553318	0	0
2024-10-07 04:19:47			0	38278	0	0	0	21631	20200	161228	27183	1054152	46250	107943	0	0	8224	554117	0	0
2024-10-07 04:20:47			0	38280	0	0	0	21620	20200	161296	27348	1054107	46251	107939	0	0	8224	554038	0	0
2024-10-07 04:21:47			0	38255	0	0	0	21615	20200	161228	27215	1054152	46272	107937	0	0	8223	555027	0	0
2024-10-07 04:22:47			0	38247	0	0	0	21610	20190	161392	27476	1054089	46250	107935	0	0	8222	555374	0	0
2024-10-07 04:23:47			0	38246	0	0	0	21605	20200	161244	27249	1054152	46250	107933	0	0	8222	555383	0	0
2024-10-07 04:24:47			0	38230	0	0	0	21605	20200	161408	27445	1054098	46239	107933	0	0	8221	556017	0	0
2024-10-07 04:25:47			0	38235	0	0	0	21610	20190	161412	27279	1054107	46250	107935	0	0	8222	555849	0	0
2024-10-07 04:26:47			0	38252	0	0	0	21628	20190	161412	27048	1054134	46250	107942	0	0	8222	555176	0	0
2024-10-07 04:27:47			0	38256	0	0	0	21636	20200	161168	27230	1054152	46261	107945	0	0	8222	554987	0	0
2024-10-07 04:28:47			0	38266	0	0	0	21615	20190	161104	27473	1054116	46261	107937	0	0	8223	554622	0	0
2024-10-07 04:29:47			0	38276	0	0	0	21628	20190	161272	27253	1054116	46261	107942	0	0	8224	554227	0	0
2024-10-07 04:30:47			0	38278	0	0	0	21628	20200	161304	27041	1054152	46261	107942	0	0	8224	554117	0	0
2024-10-07 04:31:47			0	38280	0	0	0	21636	20190	161172	26994	1054081	46250	107945	0	0	8224	554069	0	0
2024-10-07 04:32:47			0	38282	0	0	0	21620	20190	161232	27313	1054143	46261	107939	0	0	8224	553990	0	0
2024-10-07 04:33:47			0	38256	0	0	0	21620	20200	161252	26920	1054125	46272	107939	0	0	8223	554987	0	0
2024-10-07 04:34:47			0	38262	0	0	0	21618	20190	161272	27097	1054143	46261	107938	0	0	8223	554781	0	0
2024-10-07 04:35:47			0	38254	0	0	0	21610	20190	161276	27272	1054134	46250	107935	0	0	8223	555097	0	0
2024-10-07 04:36:47			0	38242	0	0	0	21612	20190	161344	27128	1054116	46261	107936	0	0	8222	555572	0	0
2024-10-07 04:37:47			0	38255	0	0	0	21618	20190	161336	27175	1054081	46250	107938	0	0	8223	555058	0	0
2024-10-07 04:38:47			0	38245	0	0	0	21610	20190	161292	27142	1054134	46250	107935	0	0	8222	555453	0	0
2024-10-07 04:39:47			0	38266	0	0	0	21605	20180	161364	27048	1054151	46260	107933	0	0	8223	554653	0	0
2024-10-07 04:40:47			0	38234	0	0	0	21610	20190	161392	26812	1054134	46239	107935	0	0	8222	555889	0	0
2024-10-07 04:41:47			0	38232	0	0	0	21602	20180	161420	27230	1054072	46238	107932	0	0	8222	555999	0	0
2024-10-07 04:42:47			0	38248	0	0	0	21586	20180	161372	26913	1054072	46250	107926	0	0	8223	555365	0	0
2024-10-07 04:43:47			0	38236	0	0	0	21592	20180	161348	27263	1054063	46249	107928	0	0	8222	555840	0	0
2024-10-07 04:44:47			0	38238	0	0	0	21592	20180	161480	27296	1054045	46250	107928	0	0	8222	555761	0	0
2024-10-07 04:45:47			0	38240	0	0	0	21597	20180	161396	27154	1054116	46249	107930	0	0	8222	555682	0	0
2024-10-07 04:46:47			0	38216	0	0	0	21581	20180	161384	27545	1054009	46259	107924	0	0	8221	556633	0	0
2024-10-07 04:47:47			0	38204	0	0	0	21589	20160	161472	26916	1054036	46236	107927	0	0	8220	557170	0	0
2024-10-07 04:48:47			0	38214	0	0	0	21589	20170	161472	27088	1053974	46237	107927	0	0	8221	556743	0	0
2024-10-07 04:49:47			0	38192	0	0	0	21579	20170	161572	27081	1053965	46236	107923	0	0	8220	557616	0	0
2024-10-07 04:50:47			0	38184	0	0	0	21573	20160	161628	26849	1053974	46235	107921	0	0	8219	557964	0	0
2024-10-07 04:51:47			0	38181	0	0	0	21581	20150	161592	26906	1053991	46246	107924	0	0	8219	558114	0	0
2024-10-07 04:52:47			0	38177	0	0	0	21568	20160	161652	27102	1053956	46236	107919	0	0	8219	558242	0	0
2024-10-07 04:53:47			0	38168	0	0	0	21581	20160	161672	27144	1053947	46257	107924	0	0	8218	558600	0	0
2024-10-07 04:54:47			0	38158	0	0	0	21566	20160	161704	27386	1054000	46235	107918	0	0	8218	558997	0	0
2024-10-07 04:55:47			0	38159	0	0	0	21568	20160	161720	26805	1053921	46235	107919	0	0	8218	558957	0	0
2024-10-07 04:56:47			0	38172	0	0	0	21566	20160	161664	26875	1053947	46257	107918	0	0	8219	558441	0	0
2024-10-07 04:57:47			0	38145	0	0	0	21571	20140	161804	27145	1053885	46244	107920	0	0	8217	559576	0	0
2024-10-07 04:58:47			0	38169	0	0	0	21561	20150	161732	27282	1053876	46246	107916	0	0	8218	558591	0	0
2024-10-07 04:59:47			0	38155	0	0	0	21568	20140	161708	26904	1053885	46244	107919	0	0	8217	559178	0	0
2024-10-07 05:00:47			0	38148	0	0	0	21555	20160	161756	26922	1053974	46247	107914	0	0	8217	559395	0	0
2024-10-07 05:01:47			0	38143	0	0	0	21558	20150	161856	27235	1053832	46246	107915	0	0	8217	559624	0	0
2024-10-07 05:02:47			0	38136	0	0	0	21563	20150	161848	27039	1053858	46234	107917	0	0	8216	559903	0	0
2024-10-07 05:03:47			0	38137	0	0	0	21568	20130	161756	27124	1053903	46244	107919	0	0	8216	559925	0	0
2024-10-07 05:04:47			0	38149	0	0	0	21566	20140	161856	27144	1053858	46244	107918	0	0	8217	559417	0	0
2024-10-07 05:05:47			0	38141	0	0	0	21566	20140	161928	27062	1053885	46255	107918	0	0	8217	559735	0	0
2024-10-07 05:06:47			0	38134	0	0	0	21563	20150	161816	27170	1053903	46256	107917	0	0	8216	559983	0	0
2024-10-07 05:07:47			0	38125	0	0	0	21555	20130	161920	27220	1053823	46254	107914	0	0	8216	560403	0	0
2024-10-07 05:08:47			0	38108	0	0	0	21558	20130	161956	26889	1053849	46244	107915	0	0	8215	561080	0	0
2024-10-07 05:09:47			0	38098	0	0	0	21561	20130	162076	27001	1053876	46244	107916	0	0	8214	561478	0	0
2024-10-07 05:10:47			0	38101	0	0	0	21553	20140	161864	27260	1053805	46266	107913	0	0	8214	561328	0	0
2024-10-07 05:11:47			0	38102	0	0	0	21558	20140	161968	26752	1053805	46244	107915	0	0	8214	561288	0	0
2024-10-07 05:12:47			0	38090	0	0	0	21563	20130	161968	27078	1053867	46254	107917	0	0	8214	561797	0	0
2024-10-07 05:13:47			0	38100	0	0	0	21558	20130	162052	26816	1053814	46244	107915	0	0	8214	561399	0	0
2024-10-07 05:14:47			0	38104	0	0	0	21553	20130	161984	27013	1053840	46244	107913	0	0	8215	561239	0	0
2024-10-07 05:15:47			0	38100	0	0	0	21561	20130	161896	26896	1053867	46244	107916	0	0	8214	561399	0	0
2024-10-07 05:16:47			0	38107	0	0	0	21561	20120	161988	26798	1053805	46232	107916	0	0	8215	561151	0	0
2024-10-07 05:17:47			0	38098	0	0	0	21555	20130	161928	27012	1053840	46244	107914	0	0	8214	561478	0	0
2024-10-07 05:18:47			0	38092	0	0	0	21553	20130	162016	26717	1053867	46254	107913	0	0	8214	561718	0	0
2024-10-07 05:19:47			0	38103	0	0	0	21558	20130	161944	27144	1053876	46254	107915	0	0	8214	561279	0	0
2024-10-07 05:20:47			0	38119	0	0	0	21568	20130	161904	26805	1053903	46254	107919	0	0	8215	560642	0	0
2024-10-07 05:21:47			0	38114	0	0	0	21571	20120	161972	27159	1053858	46244	107920	0	0	8215	560872	0	0
2024-10-07 05:22:47			0	38107	0	0	0	21561	20130	161928	26864	1053840	46287	107916	0	0	8215	561120	0	0
2024-10-07 05:23:47			0	38120	0	0	0	21568	20140	161972	27041	1053894	46256	107919	0	0	8215	560571	0	0
2024-10-07 05:24:47			0	38117	0	0	0	21566	20130	161916	27255	1053876	46244	107918	0	0	8215	560721	0	0
2024-10-07 05:25:47			0	38100	0	0	0	21566	20130	161956	27012	1053894	46254	107918	0	0	8214	561399	0	0
2024-10-07 05:26:47			0	38121	0	0	0	21563	20130	161856	27022	1053894	46276	107917	0	0	8215	560562	0	0
2024-10-07 05:27:47			0	38110	0	0	0	21558	20130	161996	26793	1053894	46244	107915	0	0	8215	561000	0	0
2024-10-07 05:28:47			0	38111	0	0	0	21550	20130	161940	26942	1053876	46254	107912	0	0	8215	560960	0	0
2024-10-07 05:29:47			0	38111	0	0	0	21561	20130	161960	27119	1053823	46221	107916	0	0	8215	560960	0	0
2024-10-07 05:30:47			0	38089	0	0	0	21555	20130	161916	27013	1053823	46232	107914	0	0	8214	561837	0	0
2024-10-07 05:31:47			0	38091	0	0	0	21555	20130	162040	26720	1053867	46232	107914	0	0	8214	561758	0	0
2024-10-07 05:32:47			0	38107	0	0	0	21548	20130	162016	26892	1053814	46232	107911	0	0	8215	561120	0	0
2024-10-07 05:33:47			0	38095	0	0	0	21553	20130	162084	26857	1053787	46254	107913	0	0	8214	561598	0	0
2024-10-07 05:34:47			0	38103	0	0	0	21548	20130	161940	27135	1053814	46232	107911	0	0	8215	561279	0	0
2024-10-07 05:35:47			0	38113	0	0	0	21558	20120	162032	27312	1053849	46243	107915	0	0	8215	560912	0	0
2024-10-07 05:36:47			0	38099	0	0	0	21540	20130	162068	27177	1053796	46244	107908	0	0	8215	561439	0	0
2024-10-07 05:37:47			0	38078	0	0	0	21553	20120	162104	27213	1053805	46244	107913	0	0	8213	562307	0	0
2024-10-07 05:38:47			0	38083	0	0	0	21548	20130	162160	27133	1053743	46254	107911	0	0	8213	562077	0	0
2024-10-07 05:39:47			0	38052	0	0	0	21548	20120	162220	26967	1053805	46244	107911	0	0	8212	563345	0	0
2024-10-07 05:40:47			0	38054	0	0	0	21542	20110	162256	27365	1053787	46252	107909	0	0	8212	563296	0	0
2024-10-07 05:41:47			0	38040	0	0	0	21542	20120	162236	27209	1053823	46220	107909	0	0	8211	563825	0	0
2024-10-07 05:42:47			0	38037	0	0	0	21545	20120	162384	27239	1053796	46243	107910	0	0	8211	563945	0	0
2024-10-07 05:43:47			0	38028	0	0	0	21542	20120	162336	26996	1053778	46244	107909	0	0	8210	564304	0	0
2024-10-07 05:44:47			0	38036	0	0	0	21545	20110	162336	27138	1053707	46242	107910	0	0	8211	564016	0	0
2024-10-07 05:45:47			0	38018	0	0	0	21548	20110	162307	27180	1053787	46230	107911	0	0	8210	564736	0	0
2024-10-07 05:46:47			0	38016	0	0	0	21555	20110	162443	27182	1053787	46252	107914	0	0	8209	564816	0	0
2024-10-07 05:47:47			0	38024	0	0	0	21550	20130	162416	26743	1053823	46244	107912	0	0	8210	564433	0	0
2024-10-07 05:48:47			0	38006	0	0	0	21550	20120	162323	27223	1053796	46243	107912	0	0	8209	565185	0	0
2024-10-07 05:49:47			0	38002	0	0	0	21540	20120	162379	27223	1053769	46243	107908	0	0	8209	565345	0	0
2024-10-07 05:50:47			0	38019	0	0	0	21537	20120	162328	27053	1053832	46244	107907	0	0	8210	564664	0	0
2024-10-07 05:51:47			0	38011	0	0	0	21537	20120	162311	26724	1053823	46253	107907	0	0	8209	564985	0	0
2024-10-07 05:52:47			0	38020	0	0	0	21532	20110	162275	27159	1053778	46242	107905	0	0	8210	564656	0	0
2024-10-07 05:53:47			0	38028	0	0	0	21545	20110	162232	27116	1053752	46252	107910	0	0	8210	564336	0	0
2024-10-07 05:54:47			0	38034	0	0	0	21532	20110	162300	27135	1053760	46242	107905	0	0	8211	564096	0	0
2024-10-07 05:55:47			0	38038	0	0	0	21540	20120	162224	27187	1053796	46231	107908	0	0	8211	563905	0	0
2024-10-07 05:56:47			0	38041	0	0	0	21548	20120	162160	27067	1053796	46243	107911	0	0	8211	563785	0	0
2024-10-07 05:57:47			0	38055	0	0	0	21542	20110	162168	26887	1053734	46242	107909	0	0	8212	563256	0	0
2024-10-07 05:58:47			0	38043	0	0	0	21553	20110	162192	27010	1053760	46242	107913	0	0	8211	563736	0	0
2024-10-07 05:59:47			0	38038	0	0	0	21555	20120	162120	27069	1053796	46253	107914	0	0	8211	563905	0	0
2024-10-07 06:00:47			0	38070	0	0	0	21558	20110	162088	26899	1053787	46242	107915	0	0	8212	562657	0	0
2024-10-07 06:01:47			0	38083	0	0	0	21558	20110	162120	27145	1053805	46242	107915	0	0	8213	562139	0	0
2024-10-07 06:02:47			0	38058	0	0	0	21561	20130	162120	27015	1053814	46254	107916	0	0	8212	563075	0	0
2024-10-07 06:03:47			0	38060	0	0	0	21550	20120	162176	26873	1053778	46244	107912	0	0	8212	563026	0	0
2024-10-07 06:04:47			0	38052	0	0	0	21550	20120	162188	27374	1053832	46244	107912	0	0	8212	563345	0	0
2024-10-07 06:05:47			0	38027	0	0	0	21553	20110	162287	27166	1053760	46252	107913	0	0	8210	564376	0	0
2024-10-07 06:06:47			0	38034	0	0	0	21550	20120	162144	27001	1053805	46244	107912	0	0	8211	564064	0	0
2024-10-07 06:07:47			0	38050	0	0	0	21561	20120	162132	27119	1053796	46243	107916	0	0	8211	563425	0	0
2024-10-07 06:08:47			0	38054	0	0	0	21558	20130	162276	27218	1053814	46244	107915	0	0	8212	563234	0	0
2024-10-07 06:09:47			0	38069	0	0	0	21558	20110	162064	27185	1053805	46242	107915	0	0	8212	562697	0	0
2024-10-07 06:10:47			0	38082	0	0	0	21558	20120	162204	27319	1053849	46243	107915	0	0	8213	562147	0	0
2024-10-07 06:11:47			0	38055	0	0	0	21550	20120	162084	27305	1053823	46231	107912	0	0	8212	563225	0	0
2024-10-07 06:12:47			0	38063	0	0	0	21555	20110	162208	27140	1053787	46252	107914	0	0	8212	562937	0	0
2024-10-07 06:13:47			0	38061	0	0	0	21548	20120	162152	27222	1053902	46253	107911	0	0	8212	562986	0	0
2024-10-07 06:14:47			0	38043	0	0	0	21563	20120	162040	27142	1053796	46243	107917	0	0	8211	563705	0	0
2024-10-07 06:15:47			0	38051	0	0	0	21553	20120	162136	27488	1053858	46232	107913	0	0	8211	563385	0	0
2024-10-07 06:16:47			0	38054	0	0	0	21550	20120	162216	27462	1053796	46231	107912	0	0	8212	563265	0	0
2024-10-07 06:17:47			0	38057	0	0	0	21553	20120	162172	27203	1053716	46243	107913	0	0	8212	563145	0	0
2024-10-07 06:18:47			0	38050	0	0	0	21535	20120	162088	27379	1053743	46253	107906	0	0	8212	563425	0	0
2024-10-07 06:19:47			0	38044	0	0	0	21542	20120	162132	27647	1053823	46243	107909	0	0	8211	563665	0	0
2024-10-07 06:20:47			0	38061	0	0	0	21550	20120	162148	27618	1053832	46244	107912	0	0	8212	562986	0	0
2024-10-07 06:21:47			0	38044	0	0	0	21548	20120	162160	27308	1053778	46244	107911	0	0	8211	563665	0	0
2024-10-07 06:22:47			0	38067	0	0	0	21542	20120	162040	27336	1053823	46231	107909	0	0	8213	562746	0	0
2024-10-07 06:23:47			0	38052	0	0	0	21550	20110	161972	27549	1053787	46252	107912	0	0	8212	563376	0	0
2024-10-07 06:24:47			0	38067	0	0	0	21558	20120	161992	27228	1053823	46253	107915	0	0	8212	562746	0	0
2024-10-07 06:25:47			0	38060	0	0	0	21558	20120	161996	27433	1053769	46231	107915	0	0	8212	563026	0	0
2024-10-07 06:26:47			0	38081	0	0	0	21561	20130	161984	27126	1053867	46244	107916	0	0	8213	562156	0	0
2024-10-07 06:27:47			0	38075	0	0	0	21558	20120	161860	26981	1053849	46253	107915	0	0	8213	562427	0	0
2024-10-07 06:28:47			0	38075	0	0	0	21555	20120	161976	27228	1053796	46243	107914	0	0	8213	562427	0	0
2024-10-07 06:29:47			0	38080	0	0	0	21555	20130	161928	27338	1053814	46232	107914	0	0	8213	562196	0	0
2024-10-07 06:30:47			0	38095	0	0	0	21548	20130	161860	27268	1053814	46254	107911	0	0	8214	561598	0	0
2024-10-07 06:31:47			0	38082	0	0	0	21558	20120	161976	27001	1053805	46232	107915	0	0	8213	562147	0	0
2024-10-07 06:32:47			0	38097	0	0	0	21550	20130	161880	26977	1053814	46244	107912	0	0	8214	561518	0	0
2024-10-07 06:33:47			0	38097	0	0	0	21542	20120	161840	27038	1053805	46244	107909	0	0	8214	561549	0	0
2024-10-07 06:34:47			0	38076	0	0	0	21550	20120	161884	27033	1053805	46244	107912	0	0	8213	562387	0	0
2024-10-07 06:35:47			0	38094	0	0	0	21558	20120	161892	27189	1053805	46254	107915	0	0	8214	561669	0	0
2024-10-07 06:36:47			0	38092	0	0	0	21558	20120	161860	27242	1053823	46243	107915	0	0	8214	561749	0	0
2024-10-07 06:37:47			0	38102	0	0	0	21568	20120	161880	26991	1053885	46232	107919	0	0	8214	561350	0	0
2024-10-07 06:38:47			0	38114	0	0	0	21558	20120	161924	27017	1053849	46253	107915	0	0	8215	560872	0	0
2024-10-07 06:39:47			0	38119	0	0	0	21558	20120	161856	27452	1053832	46265	107915	0	0	8215	560673	0	0
2024-10-07 06:40:47			0	38123	0	0	0	21555	20120	161840	27078	1053805	46244	107914	0	0	8216	560513	0	0
2024-10-07 06:41:47			0	38113	0	0	0	21563	20130	161756	26854	1053814	46232	107917	0	0	8215	560881	0	0
2024-10-07 06:42:47			0	38144	0	0	0	21563	20120	161716	26850	1053832	46232	107917	0	0	8217	559677	0	0
2024-10-07 06:43:47			0	38132	0	0	0	21553	20120	161824	27341	1053858	46276	107913	0	0	8216	560155	0	0
2024-10-07 06:44:47			0	38116	0	0	0	21548	20120	161772	27161	1053876	46243	107911	0	0	8215	560792	0	0
2024-10-07 06:45:47			0	38109	0	0	0	21550	20120	161908	27331	1053805	46244	107912	0	0	8215	561071	0	0
2024-10-07 06:46:47			0	38110	0	0	0	21558	20120	161860	26923	1053796	46253	107915	0	0	8215	561031	0	0
2024-10-07 06:47:47			0	38129	0	0	0	21561	20120	161768	27194	1053832	46244	107916	0	0	8216	560274	0	0
2024-10-07 06:48:47			0	38122	0	0	0	21550	20130	161804	26927	1053840	46232	107912	0	0	8216	560522	0	0
2024-10-07 06:49:47			0	38122	0	0	0	21558	20110	161804	27175	1053787	46242	107915	0	0	8216	560584	0	0
2024-10-07 06:50:47			0	38125	0	0	0	21561	20120	161768	26972	1053832	46254	107916	0	0	8216	560434	0	0
2024-10-07 06:51:47			0	38142	0	0	0	21558	20120	161728	27341	1053849	46264	107915	0	0	8217	559757	0	0
2024-10-07 06:52:47			0	38138	0	0	0	21545	20110	161624	27289	1053831	46274	107910	0	0	8217	559947	0	0
2024-10-07 06:53:47			0	38167	0	0	0	21548	20120	161676	27149	1053823	46231	107911	0	0	8218	558763	0	0
2024-10-07 06:54:47			0	38168	0	0	0	21558	20120	161712	27086	1053858	46232	107915	0	0	8218	558723	0	0
2024-10-07 06:55:47			0	38168	0	0	0	21548	20130	161596	27209	1053867	46244	107911	0	0	8218	558692	0	0
2024-10-07 06:56:47			0	38161	0	0	0	21555	20130	161560	27180	1053867	46244	107914	0	0	8218	558970	0	0
2024-10-07 06:57:47			0	38162	0	0	0	21561	20120	161672	27187	1053796	46243	107916	0	0	8218	558962	0	0
2024-10-07 06:58:47			0	38162	0	0	0	21555	20120	161644	26981	1053849	46231	107914	0	0	8218	558962	0	0
2024-10-07 06:59:47			0	38159	0	0	0	21563	20120	161608	27213	1053832	46232	107917	0	0	8218	559081	0	0
2024-10-07 07:00:47			0	38163	0	0	0	21561	20120	161636	27462	1053885	46254	107916	0	0	8218	558922	0	0
2024-10-07 07:01:47			0	38152	0	0	0	21558	20120	161708	27147	1053832	46254	107915	0	0	8217	559359	0	0
2024-10-07 07:02:47			0	38166	0	0	0	21548	20130	161628	27093	1053814	46244	107911	0	0	8218	558772	0	0
2024-10-07 07:03:47			0	38153	0	0	0	21553	20120	161712	27213	1053858	46254	107913	0	0	8217	559319	0	0
2024-10-07 07:04:47			0	38166	0	0	0	21558	20130	161596	27261	1053787	46244	107915	0	0	8218	558772	0	0
2024-10-07 07:05:47			0	38175	0	0	0	21558	20110	161648	27554	1053867	46230	107915	0	0	8219	558476	0	0
2024-10-07 07:06:47			0	38158	0	0	0	21561	20120	161496	27225	1053796	46253	107916	0	0	8218	559121	0	0
2024-10-07 07:07:47			0	38180	0	0	0	21550	20130	161580	27341	1053814	46254	107912	0	0	8219	558215	0	0
2024-10-07 07:08:47			0	38179	0	0	0	21550	20120	161664	27298	1053858	46244	107912	0	0	8219	558286	0	0
2024-10-07 07:09:47			0	38167	0	0	0	21545	20120	161680	27135	1053832	46244	107910	0	0	8218	558763	0	0
2024-10-07 07:10:47			0	38153	0	0	0	21548	20130	161624	27336	1053867	46244	107911	0	0	8218	559288	0	0
2024-10-07 07:11:47			0	38156	0	0	0	21548	20120	161668	27353	1053805	46254	107911	0	0	8218	559200	0	0
2024-10-07 07:12:47			0	38156	0	0	0	21555	20120	161648	26932	1053832	46244	107914	0	0	8218	559200	0	0
2024-10-07 07:13:47			0	38150	0	0	0	21548	20120	161576	27118	1053805	46244	107911	0	0	8217	559439	0	0
2024-10-07 07:14:47			0	38161	0	0	0	21548	20130	161580	27194	1053840	46232	107911	0	0	8218	558970	0	0
2024-10-07 07:15:47			0	38168	0	0	0	21555	20120	161544	27031	1053823	46253	107914	0	0	8218	558723	0	0
2024-10-07 07:16:47			0	38174	0	0	0	21561	20130	161664	26920	1053814	46244	107916	0	0	8219	558454	0	0
2024-10-07 07:17:47			0	38185	0	0	0	21542	20120	161644	27098	1053832	46254	107909	0	0	8220	558048	0	0
2024-10-07 07:18:47			0	38198	0	0	0	21555	20120	161492	27417	1053876	46243	107914	0	0	8220	557531	0	0
2024-10-07 07:19:47			0	38192	0	0	0	21558	20120	161412	27119	1053876	46243	107915	0	0	8220	557770	0	0
2024-10-07 07:20:47			0	38197	0	0	0	21573	20110	161504	27280	1053840	46230	107921	0	0	8220	557602	0	0
2024-10-07 07:21:47			0	38202	0	0	0	21571	20120	161420	26928	1053823	46264	107920	0	0	8220	557373	0	0
2024-10-07 07:22:47			0	38223	0	0	0	21568	20130	161380	27137	1053840	46254	107919	0	0	8221	556509	0	0
2024-10-07 07:23:47			0	38222	0	0	0	21566	20130	161412	27338	1053867	46254	107918	0	0	8221	556549	0	0
2024-10-07 07:24:47			0	38223	0	0	0	21563	20120	161392	27197	1053885	46232	107917	0	0	8221	556540	0	0
2024-10-07 07:25:47			0	38234	0	0	0	21573	20120	161264	26837	1053911	46265	107921	0	0	8222	556104	0	0
2024-10-07 07:26:47			0	38223	0	0	0	21555	20120	161360	27100	1053876	46243	107914	0	0	8222	556540	0	0
2024-10-07 07:27:47			0	38222	0	0	0	21571	20130	161436	27131	1053849	46232	107920	0	0	8221	556549	0	0
2024-10-07 07:28:47			0	38220	0	0	0	21558	20130	161332	26856	1053956	46244	107915	0	0	8221	556628	0	0
2024-10-07 07:29:47			0	38235	0	0	0	21568	20130	161448	26974	1053903	46276	107919	0	0	8222	556033	0	0
2024-10-07 07:30:47			0	38225	0	0	0	21566	20130	161452	26817	1053920	46254	107918	0	0	8222	556430	0	0
2024-10-07 07:31:47			0	38210	0	0	0	21566	20130	161436	26986	1053920	46232	107918	0	0	8221	557025	0	0
2024-10-07 07:32:47			0	38199	0	0	0	21571	20140	161448	26927	1053938	46255	107920	0	0	8220	557430	0	0
2024-10-07 07:33:47			0	38198	0	0	0	21566	20130	161484	26958	1053823	46232	107918	0	0	8220	557501	0	0
2024-10-07 07:34:47			0	38207	0	0	0	21576	20130	161484	27055	1053929	46244	107922	0	0	8220	557144	0	0
2024-10-07 07:35:47			0	38199	0	0	0	21571	20130	161500	27360	1053929	46254	107920	0	0	8220	557461	0	0
2024-10-07 07:36:47			0	38194	0	0	0	21576	20130	161460	27175	1053947	46244	107922	0	0	8220	557660	0	0
2024-10-07 07:37:47			0	38205	0	0	0	21571	20130	161440	27265	1053867	46244	107920	0	0	8220	557223	0	0
2024-10-07 07:38:47			0	38192	0	0	0	21579	20130	161552	27048	1053929	46254	107923	0	0	8219	557739	0	0
2024-10-07 07:39:47			0	38200	0	0	0	21566	20140	161520	26896	1053885	46255	107918	0	0	8220	557391	0	0
2024-10-07 07:40:47			0	38202	0	0	0	21566	20150	161560	27123	1053912	46246	107918	0	0	8220	557281	0	0
2024-10-07 07:41:47			0	38188	0	0	0	21561	20150	161604	26955	1053929	46256	107916	0	0	8220	557836	0	0
2024-10-07 07:42:47			0	38182	0	0	0	21563	20140	161588	27204	1053938	46266	107917	0	0	8219	558105	0	0
2024-10-07 07:43:47			0	38181	0	0	0	21566	20130	161556	27105	1053894	46244	107918	0	0	8219	558176	0	0
2024-10-07 07:44:47			0	38168	0	0	0	21555	20130	161652	27050	1053876	46254	107914	0	0	8218	558692	0	0
2024-10-07 07:45:47			0	38162	0	0	0	21571	20140	161644	27215	1053885	46255	107920	0	0	8218	558900	0	0
2024-10-07 07:46:47			0	38184	0	0	0	21566	20130	161700	26941	1053849	46244	107918	0	0	8219	558057	0	0
2024-10-07 07:47:47			0	38170	0	0	0	21563	20130	161716	27105	1053894	46254	107917	0	0	8218	558613	0	0
2024-10-07 07:48:47			0	38180	0	0	0	21568	20140	161520	27147	1053911	46244	107919	0	0	8219	558185	0	0
2024-10-07 07:49:47			0	38184	0	0	0	21571	20130	161460	27329	1053920	46232	107920	0	0	8219	558057	0	0
2024-10-07 07:50:47			0	38186	0	0	0	21563	20130	161532	27088	1053956	46244	107917	0	0	8219	557977	0	0
2024-10-07 07:51:47			0	38174	0	0	0	21555	20130	161624	27386	1053867	46244	107914	0	0	8219	558454	0	0
2024-10-07 07:52:47			0	38169	0	0	0	21568	20130	161648	27206	1053903	46254	107919	0	0	8218	558653	0	0
2024-10-07 07:53:47			0	38161	0	0	0	21563	20130	161728	27164	1053894	46265	107917	0	0	8218	558970	0	0
2024-10-07 07:54:47			0	38164	0	0	0	21566	20150	161584	27332	1053956	46246	107918	0	0	8218	558789	0	0
2024-10-07 07:55:47			0	38158	0	0	0	21563	20130	161736	27398	1053894	46244	107917	0	0	8218	559090	0	0
2024-10-07 07:56:47			0	38172	0	0	0	21568	20130	161632	27242	1053867	46244	107919	0	0	8218	558533	0	0
2024-10-07 07:57:47			0	38165	0	0	0	21573	20140	161628	27015	1053911	46255	107921	0	0	8218	558781	0	0
2024-10-07 07:58:47			0	38163	0	0	0	21573	20130	161536	26934	1053903	46276	107921	0	0	8218	558891	0	0
2024-10-07 07:59:47			0	38178	0	0	0	21568	20140	161548	27105	1053965	46255	107919	0	0	8219	558264	0	0
2024-10-07 08:00:47			0	38172	0	0	0	21563	20130	161656	27130	1053903	46254	107917	0	0	8218	558533	0	0
2024-10-07 08:01:47			0	38165	0	0	0	21571	20140	161676	27327	1053938	46266	107920	0	0	8218	558781	0	0
2024-10-07 08:02:47			0	38177	0	0	0	21571	20130	161592	27135	1053920	46244	107920	0	0	8219	558335	0	0
2024-10-07 08:03:47			0	38177	0	0	0	21563	20130	161612	26906	1053929	46244	107917	0	0	8219	558335	0	0
2024-10-07 08:04:47			0	38164	0	0	0	21563	20130	161588	27331	1053876	46244	107917	0	0	8218	558851	0	0
2024-10-07 08:05:47			0	38164	0	0	0	21573	20140	161528	27213	1053885	46244	107921	0	0	8218	558820	0	0
2024-10-07 08:06:47			0	38159	0	0	0	21568	20150	161636	27000	1053982	46256	107919	0	0	8218	558988	0	0
2024-10-07 08:07:47			0	38177	0	0	0	21571	20140	161632	27109	1053911	46244	107920	0	0	8219	558304	0	0
2024-10-07 08:08:47			0	38163	0	0	0	21573	20140	161728	27251	1053965	46244	107921	0	0	8218	558860	0	0
2024-10-07 08:09:47			0	38154	0	0	0	21573	20150	161664	27138	1053929	46256	107921	0	0	8217	559187	0	0
2024-10-07 08:10:47			0	38160	0	0	0	21568	20140	161664	26967	1053965	46244	107919	0	0	8218	558979	0	0
2024-10-07 08:11:47			0	38153	0	0	0	21573	20140	161620	26897	1053938	46244	107921	0	0	8217	559258	0	0
2024-10-07 08:12:47			0	38177	0	0	0	21568	20130	161660	26798	1053903	46254	107919	0	0	8219	558335	0	0
2024-10-07 08:13:47			0	38148	0	0	0	21579	20130	161608	26941	1053903	46244	107923	0	0	8217	559487	0	0
2024-10-07 08:14:47			0	38170	0	0	0	21581	20150	161616	26849	1053956	46256	107924	0	0	8218	558551	0	0
2024-10-07 08:15:47			0	38180	0	0	0	21581	20130	161716	27237	1053956	46254	107924	0	0	8219	558215	0	0
2024-10-07 08:16:47			0	38153	0	0	0	21573	20150	161528	27196	1053929	46234	107921	0	0	8217	559227	0	0
2024-10-07 08:17:47			0	38169	0	0	0	21571	20140	161568	27320	1053965	46244	107920	0	0	8218	558622	0	0
2024-10-07 08:18:47			0	38162	0	0	0	21573	20130	161608	27130	1053903	46265	107921	0	0	8218	558931	0	0
2024-10-07 08:19:47			0	38167	0	0	0	21576	20130	161632	26840	1053929	46244	107922	0	0	8218	558732	0	0
2024-10-07 08:20:47			0	38160	0	0	0	21573	20140	161704	27225	1053911	46244	107921	0	0	8218	558979	0	0
2024-10-07 08:21:47			0	38152	0	0	0	21566	20150	161624	27130	1054009	46267	107918	0	0	8217	559267	0	0
2024-10-07 08:22:47			0	38151	0	0	0	21576	20140	161688	27258	1053947	46234	107922	0	0	8217	559337	0	0
2024-10-07 08:23:47			0	38143	0	0	0	21584	20150	161660	27010	1053956	46234	107925	0	0	8216	559624	0	0
2024-10-07 08:24:47			0	38154	0	0	0	21584	20150	161728	26769	1053956	46256	107925	0	0	8217	559187	0	0
2024-10-07 08:25:47			0	38177	0	0	0	21579	20150	161628	27116	1053982	46246	107923	0	0	8219	558273	0	0
2024-10-07 08:26:47			0	38193	0	0	0	21589	20150	161512	27100	1053956	46256	107927	0	0	8219	557638	0	0
2024-10-07 08:27:47			0	38201	0	0	0	21581	20150	161448	27180	1053982	46246	107924	0	0	8220	557320	0	0
2024-10-07 08:28:47			0	38202	0	0	0	21579	20160	161508	27242	1053947	46247	107923	0	0	8220	557250	0	0
2024-10-07 08:29:47			0	38200	0	0	0	21576	20150	161508	27379	1053991	46234	107922	0	0	8220	557360	0	0
2024-10-07 08:30:47			0	38189	0	0	0	21584	20150	161484	27248	1053965	46246	107925	0	0	8219	557797	0	0
2024-10-07 08:31:47			0	38216	0	0	0	21579	20150	161428	27062	1054009	46246	107923	0	0	8221	556725	0	0
2024-10-07 08:32:47			0	38237	0	0	0	21576	20160	161384	27185	1054027	46247	107922	0	0	8222	555862	0	0
2024-10-07 08:33:47			0	38208	0	0	0	21573	20150	161424	27248	1053956	46256	107921	0	0	8220	557043	0	0
2024-10-07 08:34:47			0	38223	0	0	0	21579	20150	161400	27109	1053965	46256	107923	0	0	8221	556448	0	0
2024-10-07 08:35:47			0	38214	0	0	0	21586	20150	161376	27135	1053991	46267	107926	0	0	8221	556805	0	0
2024-10-07 08:36:47			0	38221	0	0	0	21584	20160	161388	27260	1054036	46236	107925	0	0	8221	556496	0	0
2024-10-07 08:37:47			0	38233	0	0	0	21573	20150	161324	27272	1054018	46246	107921	0	0	8222	556051	0	0
2024-10-07 08:38:47			0	38219	0	0	0	21573	20160	161400	27287	1053974	46257	107921	0	0	8221	556576	0	0
2024-10-07 08:39:47			0	38229	0	0	0	21576	20150	161344	27388	1054009	46234	107922	0	0	8222	556210	0	0
2024-10-07 08:40:47			0	38196	0	0	0	21576	20150	161408	27279	1053991	46256	107922	0	0	8220	557519	0	0
2024-10-07 08:41:47			0	38239	0	0	0	21581	20150	161352	27036	1053965	46246	107924	0	0	8222	555814	0	0
2024-10-07 08:42:47			0	38217	0	0	0	21573	20160	161368	27374	1053974	46247	107921	0	0	8221	556655	0	0
2024-10-07 08:43:47			0	38236	0	0	0	21579	20160	161320	27190	1054000	46235	107923	0	0	8222	555902	0	0
2024-10-07 08:44:47			0	38238	0	0	0	21581	20150	161352	27121	1053982	46246	107924	0	0	8222	555853	0	0
2024-10-07 08:45:47			0	38210	0	0	0	21579	20140	161340	27010	1053965	46244	107923	0	0	8220	556994	0	0
2024-10-07 08:46:47			0	38233	0	0	0	21573	20140	161356	27319	1053947	46234	107921	0	0	8222	556082	0	0
2024-10-07 08:47:47			0	38212	0	0	0	21581	20150	161340	27409	1054009	46246	107924	0	0	8221	556884	0	0
2024-10-07 08:48:47			0	38225	0	0	0	21584	20150	161384	26748	1054036	46256	107925	0	0	8221	556368	0	0
2024-10-07 08:49:47			0	38227	0	0	0	21581	20150	161324	26958	1053982	46246	107924	0	0	8221	556289	0	0
2024-10-07 08:50:47			0	38258	0	0	0	21586	20160	161288	27078	1054000	46257	107926	0	0	8223	555031	0	0
2024-10-07 08:51:47			0	38253	0	0	0	21576	20150	161328	27391	1053929	46246	107922	0	0	8223	555259	0	0
2024-10-07 08:52:47			0	38256	0	0	0	21589	20160	161192	27336	1054054	46268	107927	0	0	8223	555110	0	0
2024-10-07 08:53:47			0	38257	0	0	0	21597	20160	161124	27445	1054000	46247	107930	0	0	8223	555070	0	0
2024-10-07 08:54:47			0	38292	0	0	0	21597	20160	161204	27294	1054062	46248	107930	0	0	8225	553686	0	0
2024-10-07 08:55:47			0	38301	0	0	0	21589	20160	161140	27505	1054000	46247	107927	0	0	8226	553331	0	0
2024-10-07 08:56:47			0	38293	0	0	0	21597	20150	161068	27523	1054036	46256	107930	0	0	8225	553677	0	0
2024-10-07 08:57:47			0	38288	0	0	0	21589	20150	161032	27435	1054018	46234	107927	0	0	8225	553875	0	0
2024-10-07 08:58:47			0	38277	0	0	0	21584	20150	161092	27192	1054018	46246	107925	0	0	8224	554310	0	0
2024-10-07 08:59:47			0	38280	0	0	0	21589	20160	161224	27135	1054054	46247	107927	0	0	8224	554160	0	0
2024-10-07 09:00:47			0	38256	0	0	0	21581	20160	161232	27052	1054054	46247	107924	0	0	8223	555110	0	0
2024-10-07 09:01:47			0	38252	0	0	0	21586	20150	161308	27351	1054018	46246	107926	0	0	8223	555299	0	0
2024-10-07 09:02:47			0	38256	0	0	0	21592	20150	161372	27149	1054036	46256	107928	0	0	8223	555140	0	0
2024-10-07 09:03:47			0	38254	0	0	0	21589	20150	161116	27320	1053965	46256	107927	0	0	8223	555220	0	0
2024-10-07 09:04:47			0	38273	0	0	0	21592	20160	161248	27388	1054009	46280	107928	0	0	8224	554437	0	0
2024-10-07 09:05:47			0	38267	0	0	0	21584	20160	161228	27338	1054036	46236	107925	0	0	8224	554675	0	0
2024-10-07 09:06:47			0	38254	0	0	0	21589	20160	161188	26883	1054036	46258	107927	0	0	8223	555189	0	0
2024-10-07 09:07:47			0	38274	0	0	0	21605	20170	161132	27116	1054045	46236	107933	0	0	8224	554367	0	0
2024-10-07 09:08:47			0	38299	0	0	0	21599	20160	161060	27267	1054027	46235	107931	0	0	8225	553409	0	0
2024-10-07 09:09:47			0	38294	0	0	0	21599	20170	161140	27202	1054071	46269	107931	0	0	8225	553577	0	0
2024-10-07 09:10:47			0	38315	0	0	0	21602	20170	160968	27369	1054098	46269	107932	0	0	8226	552747	0	0
2024-10-07 09:11:47			0	38339	0	0	0	21605	20170	160892	27235	1054080	46259	107933	0	0	8228	551800	0	0
2024-10-07 09:12:47			0	38330	0	0	0	21612	20180	160916	27391	1054142	46237	107936	0	0	8227	552125	0	0
2024-10-07 09:13:47			0	38334	0	0	0	21610	20170	160776	27414	1054098	46248	107935	0	0	8227	551997	0	0
2024-10-07 09:14:47			0	38337	0	0	0	21602	20170	160884	27272	1054133	46249	107932	0	0	8228	551879	0	0
2024-10-07 09:15:47			0	38340	0	0	0	21607	20170	160892	27180	1054107	46249	107934	0	0	8228	551761	0	0
2024-10-07 09:16:47			0	38340	0	0	0	21602	20170	160800	27183	1054107	46259	107932	0	0	8228	551761	0	0
2024-10-07 09:17:47			0	38328	0	0	0	21615	20170	160872	27481	1054107	46259	107937	0	0	8227	552234	0	0
2024-10-07 09:18:47			0	38346	0	0	0	21602	20170	160800	27254	1054125	46248	107932	0	0	8228	551524	0	0
2024-10-07 09:19:47			0	38344	0	0	0	21605	20170	160900	27086	1054071	46258	107933	0	0	8228	551603	0	0
2024-10-07 09:20:47			0	38359	0	0	0	21605	20170	160828	27140	1054133	46259	107933	0	0	8229	551012	0	0
2024-10-07 09:21:47			0	38341	0	0	0	21610	20180	160836	27239	1054098	46250	107935	0	0	8228	551691	0	0
2024-10-07 09:22:47			0	38358	0	0	0	21615	20170	160832	26982	1054107	46259	107937	0	0	8229	551051	0	0
2024-10-07 09:23:47			0	38345	0	0	0	21620	20170	160812	27107	1054133	46259	107939	0	0	8228	551564	0	0
2024-10-07 09:24:47			0	38366	0	0	0	21631	20170	160788	27052	1054151	46258	107943	0	0	8229	550736	0	0
2024-10-07 09:25:47			0	38372	0	0	0	21625	20180	160784	27204	1054196	46259	107941	0	0	8229	550469	0	0
2024-10-07 09:26:47			0	38384	0	0	0	21605	20180	160704	27133	1054231	46260	107933	0	0	8230	549997	0	0
2024-10-07 09:27:47			0	38393	0	0	0	21610	20180	160652	27208	1054231	46260	107935	0	0	8231	549643	0	0
2024-10-07 09:28:47			0	38385	0	0	0	21615	20190	160736	26920	1054160	46250	107937	0	0	8230	549928	0	0
2024-10-07 09:29:47			0	38385	0	0	0	21631	20190	160612	27419	1054187	46261	107943	0	0	8230	549928	0	0
2024-10-07 09:30:47			0	38389	0	0	0	21623	20190	160668	27320	1054213	46261	107940	0	0	8230	549770	0	0
2024-10-07 09:31:47			0	38382	0	0	0	21623	20190	160700	27327	1054249	46250	107940	0	0	8230	550046	0	0
2024-10-07 09:32:47			0	38394	0	0	0	21628	20190	160652	27346	1054240	46250	107942	0	0	8231	549573	0	0
2024-10-07 09:33:47			0	38398	0	0	0	21628	20190	160664	27324	1054213	46261	107942	0	0	8231	549416	0	0
2024-10-07 09:34:47			0	38422	0	0	0	21631	20190	160548	27215	1054196	46272	107943	0	0	8232	548473	0	0
2024-10-07 09:35:47			0	38422	0	0	0	21633	20190	160640	26861	1054240	46272	107944	0	0	8232	548473	0	0
2024-10-07 09:36:47			0	38434	0	0	0	21628	20190	160536	27467	1054187	46272	107942	0	0	8233	548002	0	0
2024-10-07 09:37:47			0	38423	0	0	0	21631	20190	160484	27159	1054249	46261	107943	0	0	8232	548434	0	0
2024-10-07 09:38:47			0	38430	0	0	0	21628	20180	160668	27310	1054178	46260	107942	0	0	8233	548189	0	0
2024-10-07 09:39:47			0	38432	0	0	0	21636	20200	160496	27310	1054231	46261	107945	0	0	8233	548050	0	0
2024-10-07 09:40:47			0	38424	0	0	0	21625	20200	160536	27239	1054240	46251	107941	0	0	8232	548364	0	0
2024-10-07 09:41:47			0	38413	0	0	0	21625	20200	160480	27260	1054258	46239	107941	0	0	8232	548796	0	0
2024-10-07 09:42:47			0	38419	0	0	0	21620	20190	160624	27362	1054222	46261	107939	0	0	8232	548591	0	0
2024-10-07 09:43:47			0	38394	0	0	0	21615	20200	160604	27282	1054205	46261	107937	0	0	8231	549543	0	0
2024-10-07 09:44:47			0	38412	0	0	0	21612	20200	160592	27000	1054205	46250	107936	0	0	8232	548835	0	0
2024-10-07 09:45:47			0	38405	0	0	0	21625	20200	160664	27374	1054152	46239	107941	0	0	8231	549111	0	0
2024-10-07 09:46:47			0	38407	0	0	0	21625	20190	160752	27358	1054196	46250	107941	0	0	8231	549062	0	0
2024-10-07 09:47:47			0	38399	0	0	0	21633	20200	160664	27415	1054231	46250	107944	0	0	8231	549346	0	0
2024-10-07 09:48:47			0	38410	0	0	0	21628	20190	160708	26899	1054222	46261	107942	0	0	8232	548944	0	0
2024-10-07 09:49:47			0	38408	0	0	0	21633	20200	160656	26864	1054258	46261	107944	0	0	8231	548993	0	0
2024-10-07 09:50:47			0	38428	0	0	0	21631	20200	160620	27256	1054240	46251	107943	0	0	8233	548207	0	0
2024-10-07 09:51:47			0	38413	0	0	0	21625	20180	160620	26698	1054205	46271	107941	0	0	8232	548857	0	0
2024-10-07 09:52:47			0	38413	0	0	0	21636	20190	160560	27178	1054222	46250	107945	0	0	8232	548827	0	0
2024-10-07 09:53:47			0	38430	0	0	0	21636	20200	160500	26998	1054293	46251	107945	0	0	8233	548128	0	0
2024-10-07 09:54:47			0	38442	0	0	0	21644	20200	160624	26925	1054231	46239	107948	0	0	8233	547657	0	0
2024-10-07 09:55:47			0	38428	0	0	0	21644	20190	160604	27069	1054249	46261	107948	0	0	8232	548237	0	0
2024-10-07 09:56:47			0	38413	0	0	0	21623	20200	160560	27135	1054240	46262	107940	0	0	8232	548796	0	0
2024-10-07 09:57:47			0	38426	0	0	0	21618	20200	160620	27055	1054214	46262	107938	0	0	8233	548285	0	0
2024-10-07 09:58:47			0	38432	0	0	0	21620	20200	160664	27189	1054205	46272	107939	0	0	8233	548050	0	0
2024-10-07 09:59:47			0	38434	0	0	0	21610	20200	160740	26812	1054231	46239	107935	0	0	8233	547971	0	0
2024-10-07 10:00:47			0	38432	0	0	0	21625	20200	160644	26955	1054205	46239	107941	0	0	8233	548050	0	0
2024-10-07 10:01:47			0	38428	0	0	0	21636	20190	160648	26937	1054187	46261	107945	0	0	8232	548237	0	0
2024-10-07 10:02:47			0	38426	0	0	0	21631	20200	160696	26896	1054311	46250	107943	0	0	8232	548285	0	0
2024-10-07 10:03:47			0	38420	0	0	0	21636	20200	160612	27104	1054258	46261	107945	0	0	8232	548521	0	0
2024-10-07 10:04:47			0	38420	0	0	0	21625	20200	160712	27116	1054240	46240	107941	0	0	8232	548521	0	0
2024-10-07 10:05:47			0	38439	0	0	0	21641	20190	160668	27066	1054222	46261	107947	0	0	8233	547805	0	0
2024-10-07 10:06:47			0	38434	0	0	0	21628	20190	160592	27170	1054222	46272	107942	0	0	8233	548002	0	0
2024-10-07 10:07:47			0	38443	0	0	0	21644	20200	160580	27230	1054258	46250	107948	0	0	8233	547618	0	0
2024-10-07 10:08:47			0	38443	0	0	0	21644	20210	160608	27069	1054249	46241	107948	0	0	8233	547588	0	0
2024-10-07 10:09:47			0	38422	0	0	0	21628	20200	160700	27222	1054231	46261	107942	0	0	8232	548443	0	0
2024-10-07 10:10:47			0	38434	0	0	0	21644	20200	160660	26890	1054284	46250	107948	0	0	8233	547971	0	0
2024-10-07 10:11:47			0	38436	0	0	0	21636	20190	160628	27118	1054249	46239	107945	0	0	8233	547923	0	0
2024-10-07 10:12:47			0	38434	0	0	0	21649	20200	160556	27149	1054311	46250	107950	0	0	8233	547971	0	0
2024-10-07 10:13:47			0	38437	0	0	0	21649	20200	160600	27111	1054284	46261	107950	0	0	8233	547853	0	0
2024-10-07 10:14:47			0	38432	0	0	0	21646	20210	160628	27095	1054276	46263	107949	0	0	8233	548020	0	0
2024-10-07 10:15:47			0	38417	0	0	0	21641	20210	160656	27097	1054276	46263	107947	0	0	8232	548609	0	0
2024-10-07 10:16:47			0	38439	0	0	0	21641	20200	160496	27402	1054293	46262	107947	0	0	8233	547775	0	0
2024-10-07 10:17:47			0	38439	0	0	0	21641	20210	160524	27358	1054276	46252	107947	0	0	8233	547745	0	0
2024-10-07 10:18:47			0	38437	0	0	0	21636	20220	160580	27206	1054303	46253	107945	0	0	8233	547793	0	0
2024-10-07 10:19:47			0	38423	0	0	0	21646	20200	160468	27398	1054293	46273	107949	0	0	8232	548403	0	0
2024-10-07 10:20:47			0	38441	0	0	0	21644	20200	160440	27114	1054267	46251	107948	0	0	8233	547696	0	0
2024-10-07 10:21:47			0	38441	0	0	0	21636	20210	160512	27038	1054249	46252	107945	0	0	8233	547666	0	0
2024-10-07 10:22:47			0	38440	0	0	0	21636	20210	160560	27301	1054276	46263	107945	0	0	8233	547706	0	0
2024-10-07 10:23:47			0	38424	0	0	0	21636	20210	160556	27358	1054356	46252	107945	0	0	8232	548334	0	0
2024-10-07 10:24:47			0	38446	0	0	0	21638	20200	160448	27183	1054320	46251	107946	0	0	8234	547500	0	0
2024-10-07 10:25:47			0	38452	0	0	0	21633	20200	160464	27112	1054293	46262	107944	0	0	8234	547265	0	0
2024-10-07 10:26:47			0	38456	0	0	0	21641	20200	160488	27045	1054231	46261	107947	0	0	8234	547108	0	0
2024-10-07 10:27:47			0	38454	0	0	0	21644	20200	160384	27268	1054258	46250	107948	0	0	8234	547186	0	0
2024-10-07 10:28:47			0	38466	0	0	0	21646	20210	160440	27369	1054409	46252	107949	0	0	8235	546686	0	0
2024-10-07 10:29:47			0	38453	0	0	0	21649	20210	160544	27646	1054311	46263	107950	0	0	8234	547195	0	0
2024-10-07 10:30:47			0	38462	0	0	0	21646	20210	160476	27310	1054258	46252	107949	0	0	8234	546842	0	0
2024-10-07 10:31:47			0	38449	0	0	0	21651	20210	160456	27357	1054329	46252	107951	0	0	8234	547352	0	0
2024-10-07 10:32:47			0	38450	0	0	0	21649	20210	160460	27365	1054329	46263	107950	0	0	8234	547313	0	0
2024-10-07 10:33:47			0	38464	0	0	0	21649	20200	160416	27609	1054320	46251	107950	0	0	8234	546794	0	0
2024-10-07 10:34:47			0	38446	0	0	0	21649	20220	160484	27105	1054374	46263	107950	0	0	8233	547440	0	0
2024-10-07 10:35:47			0	38448	0	0	0	21646	20210	160528	27431	1054364	46274	107949	0	0	8234	547391	0	0
2024-10-07 10:36:47			0	38435	0	0	0	21644	20210	160556	27130	1054311	46252	107948	0	0	8233	547902	0	0
2024-10-07 10:37:47			0	38442	0	0	0	21651	20210	160480	27157	1054338	46252	107951	0	0	8233	547627	0	0
2024-10-07 10:38:47			0	38424	0	0	0	21667	20210	160476	27535	1054391	46274	107957	0	0	8232	548334	0	0
2024-10-07 10:39:47			0	38436	0	0	0	21654	20230	160488	27218	1054418	46287	107952	0	0	8233	547802	0	0
2024-10-07 10:40:47			0	38428	0	0	0	21654	20220	160436	27173	1054347	46252	107952	0	0	8232	548146	0	0
2024-10-07 10:41:47			0	38447	0	0	0	21646	20210	160448	27154	1054391	46263	107949	0	0	8234	547431	0	0
2024-10-07 10:42:47			0	38462	0	0	0	21649	20220	160508	27076	1054329	46242	107950	0	0	8234	546812	0	0
2024-10-07 10:43:47			0	38461	0	0	0	21654	20220	160376	27377	1054329	46253	107952	0	0	8234	546851	0	0
2024-10-07 10:44:47			0	38479	0	0	0	21638	20210	160448	27199	1054364	46263	107946	0	0	8236	546176	0	0
2024-10-07 10:45:47			0	38454	0	0	0	21620	20220	160512	27284	1054383	46264	107939	0	0	8234	547126	0	0
2024-10-07 10:46:47			0	38491	0	0	0	21625	20210	160404	27145	1054364	46252	107941	0	0	8236	545706	0	0
2024-10-07 10:47:47			0	38463	0	0	0	21641	20210	160364	27455	1054311	46252	107947	0	0	8235	546803	0	0
2024-10-07 10:48:47			0	38458	0	0	0	21633	20210	160380	27175	1054276	46263	107944	0	0	8234	546999	0	0
2024-10-07 10:49:47			0	38477	0	0	0	21605	20210	160400	27509	1054311	46263	107933	0	0	8236	546254	0	0
2024-10-07 10:50:47			0	38480	0	0	0	21623	20210	160572	27334	1054311	46252	107940	0	0	8236	546137	0	0
2024-10-07 10:51:47			0	38475	0	0	0	21620	20210	160404	27339	1054249	46252	107939	0	0	8236	546333	0	0
2024-10-07 10:52:47			0	38472	0	0	0	21644	20210	160340	27453	1054302	46252	107948	0	0	8235	546450	0	0
2024-10-07 10:53:47			0	38477	0	0	0	21638	20200	160452	27118	1054373	46262	107946	0	0	8235	546285	0	0
2024-10-07 10:54:47			0	38477	0	0	0	21633	20210	160480	27083	1054302	46252	107944	0	0	8235	546254	0	0
2024-10-07 10:55:47			0	38457	0	0	0	21646	20210	160520	26871	1054311	46241	107949	0	0	8234	547039	0	0
2024-10-07 10:56:47			0	38470	0	0	0	21638	20210	160584	27055	1054285	46263	107946	0	0	8235	546529	0	0
2024-10-07 10:57:47			0	38456	0	0	0	21646	20210	160476	27216	1054382	46263	107949	0	0	8234	547078	0	0
2024-10-07 10:58:47			0	38472	0	0	0	21638	20210	160324	27293	1054364	46252	107946	0	0	8235	546450	0	0
2024-10-07 10:59:47			0	38484	0	0	0	21633	20200	160408	27390	1054320	46251	107944	0	0	8236	546010	0	0
2024-10-07 11:00:47			0	38493	0	0	0	21654	20210	160332	27426	1054356	46263	107952	0	0	8236	545628	0	0
2024-10-07 11:01:47			0	38478	0	0	0	21646	20210	160348	27509	1054329	46263	107949	0	0	8235	546215	0	0
2024-10-07 11:02:47			0	38482	0	0	0	21638	20220	160440	27296	1054356	46264	107946	0	0	8236	546028	0	0
2024-10-07 11:03:47			0	38485	0	0	0	21641	20220	160340	27431	1054329	46264	107947	0	0	8236	545911	0	0
2024-10-07 11:04:47			0	38487	0	0	0	21638	20210	160328	27296	1054338	46274	107946	0	0	8236	545863	0	0
2024-10-07 11:05:47			0	38482	0	0	0	21644	20210	160424	27409	1054338	46252	107948	0	0	8236	546059	0	0
2024-10-07 11:06:47			0	38479	0	0	0	21659	20210	160416	27396	1054329	46263	107954	0	0	8235	546176	0	0
2024-10-07 11:07:47			0	38459	0	0	0	21657	20210	160436	27282	1054329	46252	107953	0	0	8234	546960	0	0
2024-10-07 11:08:47			0	38467	0	0	0	21657	20200	160412	27244	1054373	46273	107953	0	0	8234	546677	0	0
2024-10-07 11:09:47			0	38473	0	0	0	21664	20210	160504	27275	1054356	46241	107956	0	0	8235	546411	0	0
2024-10-07 11:10:47			0	38482	0	0	0	21651	20220	160460	27377	1054427	46252	107951	0	0	8236	546028	0	0
2024-10-07 11:11:47			0	38490	0	0	0	21644	20220	160364	27220	1054436	46264	107948	0	0	8236	545715	0	0
2024-10-07 11:12:47			0	38506	0	0	0	21623	20220	160280	27526	1054329	46264	107940	0	0	8237	545089	0	0
2024-10-07 11:13:47			0	38505	0	0	0	21620	20210	160296	27445	1054302	46274	107939	0	0	8237	545158	0	0
2024-10-07 11:14:47			0	38513	0	0	0	21633	20220	160152	27505	1054356	46253	107944	0	0	8238	544815	0	0
2024-10-07 11:15:47			0	38530	0	0	0	21628	20210	160160	27338	1054356	46263	107942	0	0	8239	544180	0	0
2024-10-07 11:16:47			0	38523	0	0	0	21644	20210	160132	27352	1054302	46252	107948	0	0	8238	544454	0	0
2024-10-07 11:17:47			0	38533	0	0	0	21636	20210	160136	27485	1054329	46263	107945	0	0	8239	544063	0	0
2024-10-07 11:18:47			0	38529	0	0	0	21667	20210	160148	27345	1054364	46252	107957	0	0	8238	544219	0	0
2024-10-07 11:19:47			0	38535	0	0	0	21654	20220	160132	27483	1054347	46252	107952	0	0	8239	543955	0	0
2024-10-07 11:20:47			0	38529	0	0	0	21664	20220	160160	27504	1054321	46274	107956	0	0	8238	544189	0	0
2024-10-07 11:21:47			0	38535	0	0	0	21657	20220	160156	27327	1054400	46263	107953	0	0	8239	543955	0	0
2024-10-07 11:22:47			0	38545	0	0	0	21649	20230	160076	27291	1054365	46254	107950	0	0	8239	543534	0	0
2024-10-07 11:23:47			0	38541	0	0	0	21654	20230	160120	27230	1054365	46254	107952	0	0	8239	543690	0	0
2024-10-07 11:24:47			0	38540	0	0	0	21649	20220	160024	27111	1054374	46263	107950	0	0	8239	543759	0	0
2024-10-07 11:25:47			0	38539	0	0	0	21654	20230	160116	27202	1054427	46254	107952	0	0	8239	543768	0	0
2024-10-07 11:26:47			0	38543	0	0	0	21657	20230	160084	27324	1054347	46254	107953	0	0	8239	543612	0	0
2024-10-07 11:27:47			0	38563	0	0	0	21651	20230	160104	27377	1054374	46254	107951	0	0	8240	542831	0	0
2024-10-07 11:28:47			0	38536	0	0	0	21654	20210	160016	27543	1054391	46230	107952	0	0	8239	543946	0	0
2024-10-07 11:29:47			0	38550	0	0	0	21651	20220	160008	27203	1054329	46253	107951	0	0	8239	543368	0	0
2024-10-07 11:30:47			0	38575	0	0	0	21644	20230	160060	27415	1054427	46265	107948	0	0	8241	542363	0	0
2024-10-07 11:31:47			0	38587	0	0	0	21641	20220	159936	27315	1054400	46241	107947	0	0	8242	541924	0	0
2024-10-07 11:32:47			0	38592	0	0	0	21636	20220	159956	27440	1054409	46253	107945	0	0	8242	541730	0	0
2024-10-07 11:33:47			0	38585	0	0	0	21654	20220	159992	27341	1054347	46252	107952	0	0	8241	542003	0	0
2024-10-07 11:34:47			0	38594	0	0	0	21662	20230	159868	27493	1054427	46254	107955	0	0	8242	541622	0	0
2024-10-07 11:35:47			0	38595	0	0	0	21638	20230	159876	27284	1054392	46254	107946	0	0	8242	541583	0	0
2024-10-07 11:36:47			0	38624	0	0	0	21633	20220	159856	27206	1054383	46264	107944	0	0	8244	540483	0	0
2024-10-07 11:37:47			0	38627	0	0	0	21618	20230	159764	27107	1054312	46243	107938	0	0	8245	540336	0	0
2024-10-07 11:38:47			0	38637	0	0	0	21638	20220	159716	27267	1054294	46252	107946	0	0	8245	539977	0	0
2024-10-07 11:39:47			0	38632	0	0	0	21631	20220	159640	27403	1054383	46253	107943	0	0	8245	540171	0	0
2024-10-07 11:40:47			0	38643	0	0	0	21644	20210	159724	27611	1054364	46252	107948	0	0	8245	539773	0	0
2024-10-07 11:41:47			0	38630	0	0	0	21631	20210	159632	27310	1054364	46230	107943	0	0	8244	540279	0	0
2024-10-07 11:42:47			0	38651	0	0	0	21628	20210	159648	27353	1054276	46263	107942	0	0	8246	539462	0	0
2024-10-07 11:43:47			0	38648	0	0	0	21631	20210	159600	27209	1054356	46252	107943	0	0	8245	539579	0	0
2024-10-07 11:44:47			0	38658	0	0	0	21644	20210	159596	27381	1054311	46252	107948	0	0	8246	539190	0	0
2024-10-07 11:45:47			0	38655	0	0	0	21654	20210	159652	27182	1054382	46252	107952	0	0	8246	539307	0	0
2024-10-07 11:46:47			0	38654	0	0	0	21646	20210	159548	27206	1054338	46252	107949	0	0	8246	539345	0	0
2024-10-07 11:47:47			0	38679	0	0	0	21638	20210	159528	27300	1054338	46252	107946	0	0	8247	538374	0	0
2024-10-07 11:48:47			0	38681	0	0	0	21641	20210	159548	27249	1054285	46252	107947	0	0	8247	538296	0	0
2024-10-07 11:49:47			0	38669	0	0	0	21651	20200	159504	27050	1054373	46262	107951	0	0	8246	538792	0	0
2024-10-07 11:50:47			0	38669	0	0	0	21654	20210	159440	27334	1054338	46263	107952	0	0	8246	538762	0	0
2024-10-07 11:51:47			0	38664	0	0	0	21657	20220	159524	27379	1054347	46263	107953	0	0	8246	538927	0	0
2024-10-07 11:52:47			0	38672	0	0	0	21644	20210	159632	27393	1054338	46263	107948	0	0	8247	538646	0	0
2024-10-07 11:53:47			0	38677	0	0	0	21636	20220	159516	27268	1054374	46263	107945	0	0	8247	538422	0	0
2024-10-07 11:54:47			0	38680	0	0	0	21644	20210	159532	27317	1054364	46263	107948	0	0	8247	538335	0	0
2024-10-07 11:55:47			0	38691	0	0	0	21636	20220	159428	27533	1054347	46252	107945	0	0	8248	537878	0	0
2024-10-07 11:56:47			0	38692	0	0	0	21644	20210	159516	27606	1054364	46263	107948	0	0	8248	537869	0	0
2024-10-07 11:57:47			0	38700	0	0	0	21646	20210	159368	27336	1054364	46252	107949	0	0	8248	537559	0	0
2024-10-07 11:58:47			0	38690	0	0	0	21651	20210	159424	27130	1054311	46252	107951	0	0	8248	537947	0	0
2024-10-07 11:59:47			0	38694	0	0	0	21657	20220	159448	27376	1054374	46252	107953	0	0	8248	537762	0	0
2024-10-07 12:00:47			0	38695	0	0	0	21644	20220	159460	27251	1054374	46252	107948	0	0	8248	537723	0	0
2024-10-07 12:01:47			0	38704	0	0	0	21651	20220	159496	27656	1054347	46252	107951	0	0	8248	537374	0	0
2024-10-07 12:02:47			0	38692	0	0	0	21649	20210	159424	27206	1054391	46241	107950	0	0	8248	537869	0	0
2024-10-07 12:03:47			0	38710	0	0	0	21644	20210	159340	27474	1054391	46263	107948	0	0	8249	537171	0	0
2024-10-07 12:04:47			0	38741	0	0	0	21644	20220	159213	27343	1054347	46263	107948	0	0	8251	535939	0	0
2024-10-07 12:05:47			0	38747	0	0	0	21649	20220	159257	26954	1054356	46253	107950	0	0	8251	535707	0	0
2024-10-07 12:06:47			0	38763	0	0	0	21659	20220	159157	27251	1054383	46253	107954	0	0	8252	535088	0	0
2024-10-07 12:07:47			0	38777	0	0	0	21662	20220	159097	27176	1054347	46263	107955	0	0	8253	534546	0	0
2024-10-07 12:08:47			0	38764	0	0	0	21646	20220	159077	27222	1054400	46252	107949	0	0	8252	535049	0	0
2024-10-07 12:09:47			0	38782	0	0	0	21654	20230	159045	27334	1054418	46254	107952	0	0	8253	534323	0	0
2024-10-07 12:10:47			0	38771	0	0	0	21675	20230	159165	27294	1054418	46254	107960	0	0	8252	534749	0	0
2024-10-07 12:11:47			0	38773	0	0	0	21672	20230	159125	27362	1054454	46254	107959	0	0	8252	534671	0	0
2024-10-07 12:12:47			0	38764	0	0	0	21680	20230	159177	27537	1054418	46287	107962	0	0	8252	535019	0	0
2024-10-07 12:13:47			0	38754	0	0	0	21688	20230	159213	27410	1054480	46254	107965	0	0	8251	535406	0	0
2024-10-07 12:14:47			0	38742	0	0	0	21685	20240	159225	27156	1054489	46254	107964	0	0	8250	535842	0	0
2024-10-07 12:15:47			0	38739	0	0	0	21685	20240	159281	27416	1054569	46287	107964	0	0	8250	535958	0	0
2024-10-07 12:16:47			0	38731	0	0	0	21672	20240	159348	27455	1054436	46254	107959	0	0	8250	536268	0	0
2024-10-07 12:17:47			0	38733	0	0	0	21683	20240	159213	27504	1054436	46265	107963	0	0	8250	536190	0	0
2024-10-07 12:18:47			0	38757	0	0	0	21677	20240	159233	27270	1054525	46255	107961	0	0	8251	535261	0	0
2024-10-07 12:19:47			0	38748	0	0	0	21675	20240	159157	27478	1054498	46255	107960	0	0	8251	535609	0	0
2024-10-07 12:20:47			0	38757	0	0	0	21672	20240	159169	27485	1054436	46254	107959	0	0	8251	535261	0	0
2024-10-07 12:21:47			0	38771	0	0	0	21675	20240	159125	27557	1054498	46255	107960	0	0	8252	534719	0	0
2024-10-07 12:22:47			0	38780	0	0	0	21672	20240	159025	27334	1054498	46255	107959	0	0	8253	534371	0	0
2024-10-07 12:23:47			0	38815	0	0	0	21677	20240	158861	27599	1054489	46254	107961	0	0	8255	533019	0	0
2024-10-07 12:24:47			0	38852	0	0	0	21664	20230	158765	27206	1054445	46265	107956	0	0	8257	531621	0	0
2024-10-07 12:25:47			0	38882	0	0	0	21680	20240	158621	27417	1054472	46266	107962	0	0	8258	530436	0	0
2024-10-07 12:26:47			0	38863	0	0	0	21675	20240	158797	27168	1054472	46244	107960	0	0	8257	531168	0	0
2024-10-07 12:27:47			0	38852	0	0	0	21685	20240	158673	27192	1054498	46255	107964	0	0	8257	531592	0	0
2024-10-07 12:28:47			0	38832	0	0	0	21696	20240	158777	27291	1054472	46255	107968	0	0	8255	532363	0	0
2024-10-07 12:29:47			0	38851	0	0	0	21680	20240	158681	27291	1054472	46244	107962	0	0	8257	531630	0	0
2024-10-07 12:30:47			0	38872	0	0	0	21677	20240	158729	27251	1054445	46288	107961	0	0	8258	530821	0	0
2024-10-07 12:31:47			0	38916	0	0	0	21664	20250	158557	27353	1054560	46256	107956	0	0	8261	529099	0	0
2024-10-07 12:32:47			0	38939	0	0	0	21664	20240	158497	27289	1054409	46243	107956	0	0	8262	528245	0	0
2024-10-07 12:33:47			0	38946	0	0	0	21657	20240	158309	27460	1054436	46243	107953	0	0	8263	527976	0	0
2024-10-07 12:34:47			0	38965	0	0	0	21654	20240	158389	27315	1054498	46266	107952	0	0	8264	527247	0	0
2024-10-07 12:35:47			0	38996	0	0	0	21657	20240	158317	27114	1054516	46254	107953	0	0	8265	526059	0	0
2024-10-07 12:36:47			0	38965	0	0	0	21664	20240	158369	27147	1054489	46254	107956	0	0	8264	527247	0	0
2024-10-07 12:37:47			0	38988	0	0	0	21659	20240	158193	27436	1054489	46254	107954	0	0	8265	526365	0	0
2024-10-07 12:38:47			0	39000	0	0	0	21662	20240	158257	27395	1054436	46254	107955	0	0	8266	525906	0	0
2024-10-07 12:39:47			0	39009	0	0	0	21662	20230	158289	27722	1054454	46265	107955	0	0	8266	525590	0	0
2024-10-07 12:40:47			0	39006	0	0	0	21664	20230	158229	27313	1054427	46254	107956	0	0	8266	525705	0	0
2024-10-07 12:41:47			0	38996	0	0	0	21675	20230	158237	27229	1054507	46254	107960	0	0	8265	526088	0	0
2024-10-07 12:42:47			0	38983	0	0	0	21675	20240	158345	27246	1054436	46265	107960	0	0	8264	526557	0	0
2024-10-07 12:43:47			0	38985	0	0	0	21672	20240	158321	27045	1054489	46254	107959	0	0	8265	526480	0	0
2024-10-07 12:44:47			0	38995	0	0	0	21667	20240	158293	26925	1054463	46254	107957	0	0	8265	526097	0	0
2024-10-07 12:45:47			0	39002	0	0	0	21670	20240	158245	27396	1054498	46266	107958	0	0	8266	525829	0	0
2024-10-07 12:46:47			0	39024	0	0	0	21670	20240	158093	27308	1054498	46255	107958	0	0	8267	524987	0	0
2024-10-07 12:47:47			0	39047	0	0	0	21659	20230	158053	27296	1054445	46254	107954	0	0	8268	524136	0	0
2024-10-07 12:48:47			0	39033	0	0	0	21662	20250	158157	27059	1054507	46245	107955	0	0	8268	524614	0	0
2024-10-07 12:49:47			0	39042	0	0	0	21664	20250	158057	27185	1054454	46256	107956	0	0	8268	524270	0	0
2024-10-07 12:50:47			0	39088	0	0	0	21664	20240	158009	27550	1054516	46265	107956	0	0	8271	522542	0	0
2024-10-07 12:51:47			0	39078	0	0	0	21662	20240	157865	27414	1054498	46255	107955	0	0	8270	522923	0	0
2024-10-07 12:52:47			0	39073	0	0	0	21667	20240	158009	27131	1054436	46254	107957	0	0	8270	523114	0	0
2024-10-07 12:53:47			0	39071	0	0	0	21667	20230	158057	27377	1054445	46265	107957	0	0	8270	523219	0	0
2024-10-07 12:54:47			0	39061	0	0	0	21680	20240	157901	27403	1054525	46266	107962	0	0	8269	523572	0	0
2024-10-07 12:55:47			0	39053	0	0	0	21675	20230	158081	27360	1054480	46265	107960	0	0	8268	523907	0	0
2024-10-07 12:56:47			0	39073	0	0	0	21672	20240	158033	27079	1054516	46265	107959	0	0	8270	523114	0	0
2024-10-07 12:57:47			0	39077	0	0	0	21680	20240	157965	27402	1054498	46255	107962	0	0	8270	522962	0	0
2024-10-07 12:58:47			0	39068	0	0	0	21667	20240	158029	27230	1054463	46254	107957	0	0	8269	523305	0	0
2024-10-07 12:59:47			0	39086	0	0	0	21677	20230	157889	27234	1054507	46254	107961	0	0	8270	522647	0	0
2024-10-07 13:00:47			0	39099	0	0	0	21667	20240	157869	27391	1054472	46255	107957	0	0	8271	522122	0	0
2024-10-07 13:01:47			0	39102	0	0	0	21675	20260	157901	27098	1054543	46279	107960	0	0	8271	521950	0	0
2024-10-07 13:02:47			0	39072	0	0	0	21680	20260	157985	27081	1054489	46268	107962	0	0	8270	523095	0	0
2024-10-07 13:03:47			0	39050	0	0	0	21683	20240	158033	27414	1054551	46255	107963	0	0	8268	523993	0	0
2024-10-07 13:04:47			0	39014	0	0	0	21696	20260	158149	27495	1054516	46257	107968	0	0	8266	525312	0	0
2024-10-07 13:05:47			0	39008	0	0	0	21701	20240	158217	27562	1054551	46288	107970	0	0	8265	525599	0	0
2024-10-07 13:06:47			0	38962	0	0	0	21714	20260	158509	27306	1054516	46279	107975	0	0	8263	527304	0	0
2024-10-07 13:07:47			0	38914	0	0	0	21714	20240	158629	26932	1054578	46266	107975	0	0	8260	529205	0	0
2024-10-07 13:08:47			0	38868	0	0	0	21722	20260	158789	27192	1054543	46279	107978	0	0	8257	530917	0	0
2024-10-07 13:09:47			0	38845	0	0	0	21722	20260	158857	27367	1054578	46268	107978	0	0	8256	531803	0	0
2024-10-07 13:10:47			0	38836	0	0	0	21719	20260	158865	27234	1054622	46279	107977	0	0	8255	532150	0	0
2024-10-07 13:11:47			0	38820	0	0	0	21714	20270	158849	27045	1054640	46279	107975	0	0	8254	532738	0	0
2024-10-07 13:12:47			0	38840	0	0	0	21716	20270	158953	27326	1054614	46257	107976	0	0	8256	531966	0	0
2024-10-07 13:13:47			0	38814	0	0	0	21714	20270	159029	27072	1054649	46280	107975	0	0	8254	532969	0	0
2024-10-07 13:14:47			0	38799	0	0	0	21719	20270	158885	27365	1054587	46257	107977	0	0	8253	533548	0	0
2024-10-07 13:15:47			0	38805	0	0	0	21719	20270	158933	27289	1054596	46258	107977	0	0	8253	533317	0	0
2024-10-07 13:16:47			0	38793	0	0	0	21711	20260	159021	27289	1054631	46268	107974	0	0	8253	533810	0	0
2024-10-07 13:17:47			0	38787	0	0	0	21701	20270	159041	27466	1054649	46258	107970	0	0	8253	534012	0	0
2024-10-07 13:18:47			0	38773	0	0	0	21696	20260	159189	27376	1054658	46290	107968	0	0	8252	534583	0	0
2024-10-07 13:19:47			0	38767	0	0	0	21701	20270	159073	27402	1054596	46280	107970	0	0	8252	534785	0	0
2024-10-07 13:20:47			0	38767	0	0	0	21688	20270	159069	27284	1054649	46247	107965	0	0	8252	534785	0	0
2024-10-07 13:21:47			0	38770	0	0	0	21685	20270	159033	27448	1054596	46258	107964	0	0	8252	534669	0	0
2024-10-07 13:22:47			0	38816	0	0	0	21690	20270	159009	27260	1054614	46268	107966	0	0	8255	532892	0	0
2024-10-07 13:23:47			0	38794	0	0	0	21701	20260	158989	27279	1054578	46268	107970	0	0	8253	533771	0	0
2024-10-07 13:24:47			0	38803	0	0	0	21690	20270	159069	27112	1054587	46257	107966	0	0	8254	533394	0	0
2024-10-07 13:25:47			0	38814	0	0	0	21685	20270	159077	27168	1054623	46258	107964	0	0	8255	532969	0	0
2024-10-07 13:26:47			0	38783	0	0	0	21677	20260	158993	27450	1054578	46257	107961	0	0	8253	534196	0	0
2024-10-07 13:27:47			0	38800	0	0	0	21690	20260	158961	27544	1054605	46246	107966	0	0	8254	533539	0	0
2024-10-07 13:28:47			0	38812	0	0	0	21693	20260	158965	27157	1054631	46257	107967	0	0	8254	533076	0	0
2024-10-07 13:29:47			0	38823	0	0	0	21680	20270	158889	27322	1054587	46268	107962	0	0	8255	532622	0	0
2024-10-07 13:30:47			0	38785	0	0	0	21683	20270	158977	27516	1054614	46257	107963	0	0	8253	534089	0	0
2024-10-07 13:31:47			0	38793	0	0	0	21670	20270	158989	27569	1054587	46279	107958	0	0	8254	533780	0	0
2024-10-07 13:32:47			0	38790	0	0	0	21680	20260	158997	27618	1054578	46257	107962	0	0	8253	533926	0	0
2024-10-07 13:33:47			0	38831	0	0	0	21688	20260	158961	27474	1054605	46257	107965	0	0	8255	532343	0	0
2024-10-07 13:34:47			0	38896	0	0	0	21683	20250	158729	27789	1054587	46245	107963	0	0	8259	529868	0	0
2024-10-07 13:35:47			0	38953	0	0	0	21680	20270	158465	27569	1054587	46257	107962	0	0	8263	527620	0	0
2024-10-07 13:36:47			0	38979	0	0	0	21680	20260	158245	27485	1054569	46257	107962	0	0	8264	526652	0	0
2024-10-07 13:37:47			0	38972	0	0	0	21688	20270	158253	27635	1054560	46268	107965	0	0	8264	526891	0	0
2024-10-07 13:38:47			0	38979	0	0	0	21677	20260	158321	27287	1054498	46246	107961	0	0	8264	526652	0	0
2024-10-07 13:39:47			0	38925	0	0	0	21683	20260	158369	27371	1054525	46257	107963	0	0	8261	528724	0	0
2024-10-07 13:40:47			0	38923	0	0	0	21667	20260	158441	27732	1054605	46257	107957	0	0	8261	528801	0	0
2024-10-07 13:41:47			0	38909	0	0	0	21677	20260	158505	27410	1054489	46268	107961	0	0	8260	529339	0	0
2024-10-07 13:42:47			0	38904	0	0	0	21672	20260	158545	27614	1054578	46268	107959	0	0	8260	529531	0	0
2024-10-07 13:43:47			0	38907	0	0	0	21667	20250	158633	27524	1054507	46256	107957	0	0	8260	529445	0	0
2024-10-07 13:44:47			0	38903	0	0	0	21675	20260	158597	27104	1054525	46268	107960	0	0	8260	529570	0	0
2024-10-07 13:45:47			0	38908	0	0	0	21672	20270	158565	27521	1054534	46268	107959	0	0	8260	529348	0	0
2024-10-07 13:46:47			0	38925	0	0	0	21683	20260	158569	27436	1054543	46268	107963	0	0	8261	528724	0	0
2024-10-07 13:47:47			0	38947	0	0	0	21683	20260	158461	27809	1054516	46246	107963	0	0	8262	527879	0	0
2024-10-07 13:48:47			0	38963	0	0	0	21677	20250	158397	27462	1054534	46267	107961	0	0	8263	527294	0	0
2024-10-07 13:49:47			0	38947	0	0	0	21677	20250	158437	27895	1054560	46267	107961	0	0	8262	527909	0	0
2024-10-07 13:50:47			0	38936	0	0	0	21675	20250	158457	27493	1054507	46267	107960	0	0	8262	528331	0	0
2024-10-07 13:51:47			0	38936	0	0	0	21675	20250	158529	27563	1054560	46256	107960	0	0	8262	528331	0	0
2024-10-07 13:52:47			0	38919	0	0	0	21662	20260	158549	27386	1054543	46279	107955	0	0	8261	528955	0	0
2024-10-07 13:53:47			0	38924	0	0	0	21680	20250	158525	27367	1054507	46256	107962	0	0	8261	528792	0	0
2024-10-07 13:54:47			0	38919	0	0	0	21675	20250	158521	27767	1054534	46256	107960	0	0	8261	528984	0	0
2024-10-07 13:55:47			0	38917	0	0	0	21670	20260	158645	27685	1054552	46257	107958	0	0	8261	529031	0	0
2024-10-07 13:56:47			0	38915	0	0	0	21672	20260	158541	27402	1054516	46246	107959	0	0	8261	529108	0	0
2024-10-07 13:57:47			0	38938	0	0	0	21688	20250	158481	27460	1054534	46267	107965	0	0	8262	528254	0	0
2024-10-07 13:58:47			0	38963	0	0	0	21688	20250	158373	27497	1054587	46267	107965	0	0	8263	527294	0	0
2024-10-07 13:59:47			0	39013	0	0	0	21690	20260	158161	27524	1054543	46268	107966	0	0	8266	525350	0	0
2024-10-07 14:00:47			0	38971	0	0	0	21680	20250	158229	27334	1054613	46256	107962	0	0	8264	526988	0	0
2024-10-07 14:01:47			0	38929	0	0	0	21664	20260	158365	27692	1054596	46257	107956	0	0	8262	528570	0	0
2024-10-07 14:02:47			0	38899	0	0	0	21667	20260	158569	27419	1054516	46268	107957	0	0	8260	529724	0	0
2024-10-07 14:03:47			0	38885	0	0	0	21675	20260	158725	27526	1054569	46268	107960	0	0	8259	530262	0	0
2024-10-07 14:04:47			0	38888	0	0	0	21680	20260	158601	27351	1054569	46268	107962	0	0	8259	530147	0	0
2024-10-07 14:05:47			0	38909	0	0	0	21683	20260	158629	27331	1054596	46268	107963	0	0	8260	529339	0	0
2024-10-07 14:06:47			0	38913	0	0	0	21696	20250	158545	27251	1054667	46256	107968	0	0	8260	529214	0	0
2024-10-07 14:07:47			0	38923	0	0	0	21688	20250	158509	27215	1054613	46256	107965	0	0	8261	528830	0	0
2024-10-07 14:08:47			0	38918	0	0	0	21683	20260	158477	27635	1054525	46257	107963	0	0	8261	528993	0	0
2024-10-07 14:09:47			0	38908	0	0	0	21683	20250	158529	27308	1054560	46256	107963	0	0	8260	529407	0	0
2024-10-07 14:10:47			0	38923	0	0	0	21680	20250	158533	27462	1054560	46256	107962	0	0	8261	528830	0	0
2024-10-07 14:11:47			0	38924	0	0	0	21680	20270	158389	27204	1054640	46257	107962	0	0	8261	528733	0	0
2024-10-07 14:12:47			0	38957	0	0	0	21680	20270	158473	27277	1054560	46246	107962	0	0	8263	527466	0	0
2024-10-07 14:13:47			0	38966	0	0	0	21680	20270	158313	27388	1054560	46279	107962	0	0	8263	527121	0	0
2024-10-07 14:14:47			0	38952	0	0	0	21680	20260	158345	27500	1054605	46279	107962	0	0	8263	527687	0	0
2024-10-07 14:15:47			0	38926	0	0	0	21667	20260	158449	27296	1054552	46257	107957	0	0	8261	528686	0	0
2024-10-07 14:16:47			0	38912	0	0	0	21675	20250	158525	27502	1054560	46267	107960	0	0	8260	529253	0	0
2024-10-07 14:17:47			0	38899	0	0	0	21672	20260	158537	27426	1054596	46268	107959	0	0	8260	529724	0	0
2024-10-07 14:18:47			0	38897	0	0	0	21683	20260	158629	27353	1054596	46257	107963	0	0	8259	529800	0	0
2024-10-07 14:19:47			0	38929	0	0	0	21685	20260	158581	27526	1054543	46257	107964	0	0	8261	528570	0	0
2024-10-07 14:20:47			0	38957	0	0	0	21685	20260	158285	27511	1054578	46268	107964	0	0	8263	527496	0	0
2024-10-07 14:21:47			0	39005	0	0	0	21701	20260	158173	27225	1054622	46268	107970	0	0	8265	525656	0	0
2024-10-07 14:22:47			0	39024	0	0	0	21693	20270	158113	27443	1054587	46268	107967	0	0	8267	524900	0	0
2024-10-07 14:23:47			0	39034	0	0	0	21688	20260	158113	27410	1054622	46257	107965	0	0	8267	524546	0	0
2024-10-07 14:24:47			0	39034	0	0	0	21685	20260	158085	27507	1054622	46268	107964	0	0	8267	524546	0	0
2024-10-07 14:25:47			0	39041	0	0	0	21693	20270	158125	27329	1054640	46279	107967	0	0	8268	524250	0	0
2024-10-07 14:26:47			0	39058	0	0	0	21693	20270	158073	27183	1054667	46268	107967	0	0	8269	523600	0	0
2024-10-07 14:27:47			0	39056	0	0	0	21690	20260	157949	27518	1054631	46268	107966	0	0	8268	523706	0	0
2024-10-07 14:28:47			0	39061	0	0	0	21690	20260	157961	27428	1054622	46257	107966	0	0	8269	523515	0	0
2024-10-07 14:29:47			0	39047	0	0	0	21685	20270	157969	27339	1054640	46268	107964	0	0	8268	524021	0	0
2024-10-07 14:30:47			0	39044	0	0	0	21693	20270	158021	27718	1054623	46269	107967	0	0	8268	524135	0	0
2024-10-07 14:31:47			0	39022	0	0	0	21680	20270	157993	27398	1054596	46280	107962	0	0	8267	524976	0	0
2024-10-07 14:32:47			0	39039	0	0	0	21677	20280	158021	27731	1054631	46259	107961	0	0	8268	524297	0	0
2024-10-07 14:33:47			0	39010	0	0	0	21670	20260	158121	27369	1054578	46246	107958	0	0	8266	525465	0	0
2024-10-07 14:34:47			0	38987	0	0	0	21667	20270	158217	27215	1054560	46268	107957	0	0	8265	526316	0	0
2024-10-07 14:35:47			0	38991	0	0	0	21675	20270	158237	27583	1054587	46257	107960	0	0	8265	526163	0	0
2024-10-07 14:36:47			0	39004	0	0	0	21664	20270	158145	27185	1054534	46257	107956	0	0	8266	525665	0	0
2024-10-07 14:37:47			0	38993	0	0	0	21670	20260	158225	27507	1054552	46257	107958	0	0	8265	526116	0	0
2024-10-07 14:38:47			0	38975	0	0	0	21670	20260	158161	27488	1054605	46246	107958	0	0	8264	526805	0	0
2024-10-07 14:39:47			0	38977	0	0	0	21677	20260	158345	27514	1054631	46268	107961	0	0	8264	526729	0	0
2024-10-07 14:40:47			0	38975	0	0	0	21680	20240	158241	27609	1054551	46244	107962	0	0	8264	526864	0	0
2024-10-07 14:41:47			0	38991	0	0	0	21690	20250	158265	27218	1054587	46267	107966	0	0	8265	526221	0	0
2024-10-07 14:42:47			0	39039	0	0	0	21688	20260	158053	27232	1054596	46268	107965	0	0	8267	524355	0	0
2024-10-07 14:43:47			0	39037	0	0	0	21685	20260	158033	27521	1054649	46257	107964	0	0	8267	524432	0	0
2024-10-07 14:44:47			0	39018	0	0	0	21680	20270	158149	27466	1054560	46268	107962	0	0	8266	525129	0	0
2024-10-07 14:45:47			0	38998	0	0	0	21675	20260	158285	27263	1054552	46268	107960	0	0	8265	525924	0	0
2024-10-07 14:46:47			0	38966	0	0	0	21675	20250	158241	27476	1054534	46256	107960	0	0	8263	527180	0	0
2024-10-07 14:47:47			0	38967	0	0	0	21672	20260	158265	27341	1054552	46257	107959	0	0	8264	527112	0	0
2024-10-07 14:48:47			0	38958	0	0	0	21677	20270	158321	27364	1054560	46257	107961	0	0	8263	527428	0	0
2024-10-07 14:49:47			0	38976	0	0	0	21677	20260	158221	27402	1054516	46268	107961	0	0	8264	526767	0	0
2024-10-07 14:50:47			0	38989	0	0	0	21683	20260	158241	27350	1054622	46257	107963	0	0	8265	526269	0	0
2024-10-07 14:51:47			0	39015	0	0	0	21677	20260	158193	27371	1054605	46246	107961	0	0	8266	525273	0	0
2024-10-07 14:52:47			0	39033	0	0	0	21690	20260	158125	27346	1054631	46268	107966	0	0	8267	524585	0	0
2024-10-07 14:53:47			0	39031	0	0	0	21683	20260	158125	27156	1054631	46257	107963	0	0	8267	524661	0	0
2024-10-07 14:54:47			0	39008	0	0	0	21680	20250	158173	27479	1054560	46256	107962	0	0	8266	525570	0	0
2024-10-07 14:55:47			0	39011	0	0	0	21675	20260	158205	27317	1054605	46268	107960	0	0	8266	525426	0	0
2024-10-07 14:56:47			0	38997	0	0	0	21685	20260	158261	27384	1054569	46257	107964	0	0	8265	525962	0	0
2024-10-07 14:57:47			0	39007	0	0	0	21688	20260	158177	27206	1054605	46268	107965	0	0	8266	525579	0	0
2024-10-07 14:58:47			0	39006	0	0	0	21696	20270	158141	27507	1054623	46269	107968	0	0	8265	525589	0	0
2024-10-07 14:59:47			0	39017	0	0	0	21688	20260	158177	27211	1054605	46268	107965	0	0	8266	525197	0	0
2024-10-07 15:00:47			0	39064	0	0	0	21703	20270	158073	27362	1054640	46268	107971	0	0	8269	523371	0	0
2024-10-07 15:01:47			0	39077	0	0	0	21706	20270	157905	27528	1054667	46268	107972	0	0	8269	522875	0	0
2024-10-07 15:02:47			0	39097	0	0	0	21703	20270	157849	27329	1054676	46280	107971	0	0	8271	522112	0	0
2024-10-07 15:03:47			0	39099	0	0	0	21696	20270	157933	27395	1054667	46279	107968	0	0	8271	522036	0	0
2024-10-07 15:04:47			0	39066	0	0	0	21685	20260	157897	27507	1054658	46268	107964	0	0	8269	523324	0	0
2024-10-07 15:05:47			0	39078	0	0	0	21696	20270	157993	27386	1054640	46257	107968	0	0	8270	522837	0	0
2024-10-07 15:06:47			0	39050	0	0	0	21688	20270	157961	27372	1054623	46247	107965	0	0	8268	523906	0	0
2024-10-07 15:07:47			0	39055	0	0	0	21685	20280	158033	27689	1054631	46259	107964	0	0	8269	523686	0	0
2024-10-07 15:08:47			0	39042	0	0	0	21688	20280	157985	27277	1054667	46259	107965	0	0	8268	524183	0	0
2024-10-07 15:09:47			0	39042	0	0	0	21683	20270	158049	27552	1054623	46258	107963	0	0	8268	524212	0	0
2024-10-07 15:10:47			0	39054	0	0	0	21680	20280	158133	27353	1054685	46270	107962	0	0	8269	523724	0	0
2024-10-07 15:11:47			0	39040	0	0	0	21693	20260	158057	27424	1054658	46268	107967	0	0	8267	524317	0	0
2024-10-07 15:12:47			0	39050	0	0	0	21696	20270	158053	27781	1054649	46247	107968	0	0	8268	523906	0	0
2024-10-07 15:13:47			0	39084	0	0	0	21709	20270	157909	27440	1054623	46269	107973	0	0	8270	522608	0	0
2024-10-07 15:14:47			0	39099	0	0	0	21716	20270	157813	27727	1054702	46269	107976	0	0	8271	522036	0	0
2024-10-07 15:15:47			0	39114	0	0	0	21706	20280	157781	27826	1054667	46281	107972	0	0	8272	521435	0	0
2024-10-07 15:16:47			0	39087	0	0	0	21693	20280	157797	27665	1054658	46270	107967	0	0	8270	522464	0	0
2024-10-07 15:17:47			0	39100	0	0	0	21698	20280	157825	27293	1054694	46270	107969	0	0	8271	521969	0	0
2024-10-07 15:18:47			0	39089	0	0	0	21698	20280	157849	27552	1054685	46259	107969	0	0	8270	522388	0	0
2024-10-07 15:19:47			0	39075	0	0	0	21690	20270	157981	27627	1054702	46258	107966	0	0	8270	522951	0	0
2024-10-07 15:20:47			0	39076	0	0	0	21693	20280	157913	27255	1054658	46259	107967	0	0	8270	522884	0	0
2024-10-07 15:21:47			0	39056	0	0	0	21703	20280	158025	27678	1054720	46259	107971	0	0	8268	523648	0	0
2024-10-07 15:22:47			0	39059	0	0	0	21690	20290	157933	27592	1054703	46270	107966	0	0	8269	523504	0	0
2024-10-07 15:23:47			0	39075	0	0	0	21698	20280	158005	27599	1054658	46270	107969	0	0	8269	522922	0	0
2024-10-07 15:24:47			0	39046	0	0	0	21693	20280	158041	27251	1054738	46270	107967	0	0	8268	524030	0	0
2024-10-07 15:25:47			0	39045	0	0	0	21698	20290	157937	27343	1054703	46259	107969	0	0	8268	524039	0	0
2024-10-07 15:26:47			0	39061	0	0	0	21688	20280	157969	27338	1054720	46270	107965	0	0	8269	523457	0	0
2024-10-07 15:27:47			0	39051	0	0	0	21698	20280	158013	27462	1054711	46270	107969	0	0	8268	523839	0	0
2024-10-07 15:28:47			0	39039	0	0	0	21701	20280	158037	27267	1054658	46270	107970	0	0	8267	524297	0	0
2024-10-07 15:29:47			0	39038	0	0	0	21701	20290	158073	27476	1054703	46259	107970	0	0	8267	524307	0	0
2024-10-07 15:30:47			0	39066	0	0	0	21698	20280	158029	27331	1054711	46259	107969	0	0	8269	523266	0	0
2024-10-07 15:31:47			0	39087	0	0	0	21698	20280	157937	27440	1054658	46259	107969	0	0	8270	522464	0	0
2024-10-07 15:32:47			0	39063	0	0	0	21696	20280	157941	27296	1054711	46270	107968	0	0	8269	523380	0	0
2024-10-07 15:33:47			0	39053	0	0	0	21709	20280	157993	27424	1054667	46259	107973	0	0	8268	523762	0	0
2024-10-07 15:34:47			0	39062	0	0	0	21719	20280	157849	27235	1054747	46259	107977	0	0	8268	523419	0	0
2024-10-07 15:35:47			0	39070	0	0	0	21706	20290	157989	27549	1054703	46259	107972	0	0	8269	523084	0	0
2024-10-07 15:36:47			0	39062	0	0	0	21714	20290	158037	27265	1054738	46292	107975	0	0	8269	523390	0	0
2024-10-07 15:37:47			0	39066	0	0	0	21719	20280	157981	27327	1054720	46270	107977	0	0	8269	523266	0	0
2024-10-07 15:38:47			0	39088	0	0	0	21729	20290	157881	27736	1054738	46260	107981	0	0	8270	522397	0	0
2024-10-07 15:39:47			0	39113	0	0	0	21719	20280	157713	27345	1054711	46259	107977	0	0	8271	521473	0	0
2024-10-07 15:40:47			0	39110	0	0	0	21727	20290	157617	27242	1054711	46292	107980	0	0	8271	521559	0	0
2024-10-07 15:41:47			0	39103	0	0	0	21729	20290	157793	27403	1054756	46281	107981	0	0	8271	521826	0	0
2024-10-07 15:42:47			0	39117	0	0	0	21729	20290	157677	27646	1054756	46270	107981	0	0	8271	521292	0	0
2024-10-07 15:43:47			0	39125	0	0	0	21735	20290	157793	27627	1054765	46282	107983	0	0	8272	520987	0	0
2024-10-07 15:44:47			0	39133	0	0	0	21732	20300	157693	27805	1054836	46272	107982	0	0	8272	520654	0	0
2024-10-07 15:45:47			0	39138	0	0	0	21724	20290	157593	27694	1054818	46260	107979	0	0	8273	520492	0	0
2024-10-07 15:46:47			0	39164	0	0	0	21722	20300	157521	27452	1054809	46250	107978	0	0	8274	519475	0	0
2024-10-07 15:47:47			0	39158	0	0	0	21722	20300	157677	27422	1054729	46272	107978	0	0	8274	519703	0	0
2024-10-07 15:48:47			0	39150	0	0	0	21703	20280	157685	27483	1054720	46259	107971	0	0	8274	520064	0	0
2024-10-07 15:49:47			0	39116	0	0	0	21706	20290	157777	27679	1054711	46260	107972	0	0	8272	521330	0	0
2024-10-07 15:50:47			0	39086	0	0	0	21709	20300	157897	27293	1054747	46250	107973	0	0	8270	522445	0	0
2024-10-07 15:51:47			0	39099	0	0	0	21735	20300	157861	27429	1054747	46261	107983	0	0	8270	521949	0	0
2024-10-07 15:52:47			0	39137	0	0	0	21732	20290	157601	27227	1054765	46260	107982	0	0	8273	520530	0	0
2024-10-07 15:53:47			0	39139	0	0	0	21729	20290	157621	27677	1054809	46281	107981	0	0	8273	520454	0	0
2024-10-07 15:54:47			0	39149	0	0	0	21729	20300	157597	27381	1054774	46272	107981	0	0	8273	520045	0	0
2024-10-07 15:55:47			0	39168	0	0	0	21727	20300	157581	27538	1054862	46261	107980	0	0	8274	519323	0	0
2024-10-07 15:56:47			0	39149	0	0	0	21719	20300	157645	27563	1054756	46261	107977	0	0	8274	520045	0	0
2024-10-07 15:57:47			0	39111	0	0	0	21711	20300	157625	27514	1054836	46261	107974	0	0	8271	521492	0	0
2024-10-07 15:58:47			0	39105	0	0	0	21716	20300	157697	27495	1054862	46261	107976	0	0	8271	521721	0	0
2024-10-07 15:59:47			0	39105	0	0	0	21711	20290	157689	27517	1054791	46260	107974	0	0	8271	521749	0	0
2024-10-07 16:00:47			0	39094	0	0	0	21716	20300	157741	27396	1054694	46272	107976	0	0	8270	522140	0	0
2024-10-07 16:01:47			0	39079	0	0	0	21724	20300	157817	27424	1054800	46261	107979	0	0	8269	522712	0	0
2024-10-07 16:02:47			0	39109	0	0	0	21719	20290	157801	27597	1054818	46271	107977	0	0	8271	521597	0	0
2024-10-07 16:03:47			0	39091	0	0	0	21727	20300	157933	27485	1054774	46261	107980	0	0	8270	522254	0	0
2024-10-07 16:04:47			0	39098	0	0	0	21729	20300	157841	27590	1054783	46261	107981	0	0	8270	521987	0	0
2024-10-07 16:05:47			0	39086	0	0	0	21732	20290	157833	27410	1054791	46260	107982	0	0	8270	522474	0	0
2024-10-07 16:06:47			0	39113	0	0	0	21740	20300	157741	27481	1054774	46261	107985	0	0	8271	521416	0	0
2024-10-07 16:07:47			0	39103	0	0	0	21727	20300	157865	27459	1054747	46250	107980	0	0	8271	521797	0	0
2024-10-07 16:08:47			0	39095	0	0	0	21737	20300	157877	27479	1054783	46272	107984	0	0	8270	522102	0	0
2024-10-07 16:09:47			0	39089	0	0	0	21732	20300	157893	27180	1054853	46261	107982	0	0	8270	522330	0	0
2024-10-07 16:10:47			0	39086	0	0	0	21722	20310	157861	27338	1054818	46272	107978	0	0	8270	522416	0	0
2024-10-07 16:11:47			0	39105	0	0	0	21745	20300	157873	27300	1054800	46272	107987	0	0	8271	521721	0	0
2024-10-07 16:12:47			0	39108	0	0	0	21740	20300	157893	27253	1054827	46261	107985	0	0	8271	521606	0	0
2024-10-07 16:13:47			0	39098	0	0	0	21737	20300	157845	27043	1054809	46272	107984	0	0	8270	521987	0	0
2024-10-07 16:14:47			0	39068	0	0	0	21742	20300	158005	27291	1054809	46261	107986	0	0	8268	523132	0	0
2024-10-07 16:15:47			0	39072	0	0	0	21740	20310	157973	27303	1054791	46261	107985	0	0	8269	522950	0	0
2024-10-07 16:16:47			0	39056	0	0	0	21737	20310	157797	27291	1054818	46261	107984	0	0	8268	523561	0	0
2024-10-07 16:17:47			0	39077	0	0	0	21745	20320	157885	27277	1054809	46295	107987	0	0	8269	522731	0	0
2024-10-07 16:18:47			0	39067	0	0	0	21737	20300	157905	27630	1054853	46272	107984	0	0	8268	523170	0	0
2024-10-07 16:19:47			0	39066	0	0	0	21742	20320	157925	27015	1054836	46263	107986	0	0	8268	523150	0	0
2024-10-07 16:20:47			0	39057	0	0	0	21737	20310	157937	27371	1054791	46283	107984	0	0	8268	523523	0	0
2024-10-07 16:21:47			0	39064	0	0	0	21735	20300	157917	27204	1054836	46272	107983	0	0	8268	523285	0	0
2024-10-07 16:22:47			0	39056	0	0	0	21732	20310	157961	27393	1054845	46272	107982	0	0	8268	523561	0	0
2024-10-07 16:23:47			0	39046	0	0	0	21732	20310	157925	27234	1054800	46262	107982	0	0	8267	523943	0	0
2024-10-07 16:24:47			0	39062	0	0	0	21737	20310	157973	27346	1054827	46273	107984	0	0	8268	523332	0	0
2024-10-07 16:25:47			0	39058	0	0	0	21735	20300	158105	27235	1054836	46261	107983	0	0	8268	523514	0	0
2024-10-07 16:26:47			0	39066	0	0	0	21727	20310	157893	27277	1054791	46272	107980	0	0	8269	523179	0	0
2024-10-07 16:27:47			0	39063	0	0	0	21737	20310	157973	27327	1054845	46261	107984	0	0	8268	523294	0	0
2024-10-07 16:28:47			0	39084	0	0	0	21729	20310	157941	27341	1054845	46261	107981	0	0	8270	522492	0	0
2024-10-07 16:29:47			0	39068	0	0	0	21727	20300	157993	27421	1054809	46272	107980	0	0	8269	523132	0	0
2024-10-07 16:30:47			0	39076	0	0	0	21724	20310	157977	27367	1054845	46272	107979	0	0	8269	522798	0	0
2024-10-07 16:31:47			0	39058	0	0	0	21735	20310	157981	27022	1054818	46283	107983	0	0	8268	523485	0	0
2024-10-07 16:32:47			0	39044	0	0	0	21724	20310	157981	26984	1054818	46272	107979	0	0	8267	524020	0	0
2024-10-07 16:33:47			0	39049	0	0	0	21724	20310	157937	27268	1054845	46261	107979	0	0	8268	523828	0	0
2024-10-07 16:34:47			0	39052	0	0	0	21727	20300	158029	27145	1054809	46272	107980	0	0	8268	523743	0	0
2024-10-07 16:35:47			0	39062	0	0	0	21729	20310	157989	27284	1054818	46261	107981	0	0	8268	523332	0	0
2024-10-07 16:36:47			0	39053	0	0	0	21724	20300	157977	27170	1054809	46261	107979	0	0	8268	523704	0	0
2024-10-07 16:37:47			0	39031	0	0	0	21727	20310	158013	27326	1054845	46272	107980	0	0	8267	524516	0	0
2024-10-07 16:38:47			0	39069	0	0	0	21729	20300	158053	27490	1054853	46261	107981	0	0	8269	523094	0	0
2024-10-07 16:39:47			0	39036	0	0	0	21724	20300	157917	27365	1054809	46293	107979	0	0	8267	524354	0	0
2024-10-07 16:40:47			0	39066	0	0	0	21737	20310	158001	27630	1054818	46272	107984	0	0	8268	523179	0	0
2024-10-07 16:41:47			0	39063	0	0	0	21727	20300	157833	27402	1054836	46272	107980	0	0	8268	523323	0	0
2024-10-07 16:42:47			0	39058	0	0	0	21729	20300	157937	27320	1054836	46283	107981	0	0	8268	523514	0	0
2024-10-07 16:43:47			0	39074	0	0	0	21732	20310	157881	27164	1054818	46261	107982	0	0	8269	522874	0	0
2024-10-07 16:44:47			0	39085	0	0	0	21727	20300	157837	27531	1054827	46261	107980	0	0	8270	522483	0	0
2024-10-07 16:45:47			0	39078	0	0	0	21729	20310	157809	27426	1054791	46261	107981	0	0	8269	522721	0	0
2024-10-07 16:46:47			0	39090	0	0	0	21729	20300	157797	27164	1054747	46272	107981	0	0	8270	522292	0	0
2024-10-07 16:47:47			0	39080	0	0	0	21735	20300	157849	27426	1054783	46283	107983	0	0	8269	522674	0	0
2024-10-07 16:48:47			0	39086	0	0	0	21729	20310	157917	27679	1054845	46261	107981	0	0	8270	522416	0	0
2024-10-07 16:49:47			0	39067	0	0	0	21729	20310	157869	27795	1054791	46272	107981	0	0	8269	523141	0	0
2024-10-07 16:50:47			0	39064	0	0	0	21732	20310	158041	27731	1054791	46261	107982	0	0	8268	523256	0	0
2024-10-07 16:51:47			0	39065	0	0	0	21724	20310	157917	27396	1054791	46261	107979	0	0	8269	523217	0	0
2024-10-07 16:52:47			0	39050	0	0	0	21722	20300	157937	27410	1054774	46261	107978	0	0	8268	523819	0	0
2024-10-07 16:53:47			0	39058	0	0	0	21724	20300	158001	27583	1054827	46261	107979	0	0	8268	523514	0	0
2024-10-07 16:54:47			0	39021	0	0	0	21719	20300	158025	27680	1054809	46272	107977	0	0	8266	524928	0	0
2024-10-07 16:55:47			0	39028	0	0	0	21719	20300	158057	27523	1054800	46250	107977	0	0	8267	524660	0	0
2024-10-07 16:56:47			0	39014	0	0	0	21722	20300	158125	27479	1054783	46272	107978	0	0	8266	525195	0	0
2024-10-07 16:57:47			0	39019	0	0	0	21724	20300	158053	27270	1054809	46261	107979	0	0	8266	525004	0	0
2024-10-07 16:58:47			0	39026	0	0	0	21724	20300	158105	27189	1054800	46261	107979	0	0	8266	524737	0	0
2024-10-07 16:59:47			0	39017	0	0	0	21722	20310	158041	27731	1054791	46261	107978	0	0	8266	525052	0	0
2024-10-07 17:00:47			0	39025	0	0	0	21722	20300	158105	27473	1054747	46261	107978	0	0	8266	524775	0	0
2024-10-07 17:01:47			0	39017	0	0	0	21722	20300	158085	27326	1054783	46261	107978	0	0	8266	525081	0	0
2024-10-07 17:02:47			0	39028	0	0	0	21727	20290	158057	27197	1054765	46271	107980	0	0	8266	524689	0	0
2024-10-07 17:03:47			0	39019	0	0	0	21732	20300	158073	27235	1054836	46261	107982	0	0	8266	525004	0	0
2024-10-07 17:04:47			0	39029	0	0	0	21722	20290	158089	27208	1054765	46260	107978	0	0	8266	524651	0	0
2024-10-07 17:05:47			0	39021	0	0	0	21722	20300	158157	27429	1054720	46272	107978	0	0	8266	524928	0	0
2024-10-07 17:06:47			0	38996	0	0	0	21722	20300	158145	27524	1054800	46261	107978	0	0	8265	525885	0	0
2024-10-07 17:07:47			0	39019	0	0	0	21724	20300	158029	27145	1054783	46272	107979	0	0	8266	525004	0	0
2024-10-07 17:08:47			0	39018	0	0	0	21719	20300	158221	27388	1054880	46272	107977	0	0	8266	525042	0	0
2024-10-07 17:09:47			0	39011	0	0	0	21716	20300	158129	27393	1054800	46272	107976	0	0	8266	525310	0	0
2024-10-07 17:10:47			0	38993	0	0	0	21722	20300	158185	27332	1054827	46272	107978	0	0	8264	525999	0	0
2024-10-07 17:11:47			0	39001	0	0	0	21716	20290	158237	27433	1054818	46271	107976	0	0	8265	525722	0	0
2024-10-07 17:12:47			0	39005	0	0	0	21722	20310	158197	27305	1054845	46293	107978	0	0	8265	525511	0	0
2024-10-07 17:13:47			0	39013	0	0	0	21724	20290	158173	27313	1054765	46250	107979	0	0	8266	525263	0	0
2024-10-07 17:14:47			0	38989	0	0	0	21724	20300	158233	27007	1054827	46272	107979	0	0	8264	526153	0	0
2024-10-07 17:15:47			0	39017	0	0	0	21719	20300	158229	27201	1054800	46283	107977	0	0	8266	525081	0	0
2024-10-07 17:16:47			0	38996	0	0	0	21719	20300	158129	27296	1054827	46261	107977	0	0	8265	525885	0	0
2024-10-07 17:17:47			0	38990	0	0	0	21724	20300	158305	27320	1054720	46283	107979	0	0	8264	526114	0	0
2024-10-07 17:18:47			0	38977	0	0	0	21729	20300	158409	27097	1054783	46272	107981	0	0	8263	526612	0	0
2024-10-07 17:19:47			0	38978	0	0	0	21714	20300	158317	27071	1054774	46261	107975	0	0	8264	526574	0	0
2024-10-07 17:20:47			0	38987	0	0	0	21711	20290	158193	27182	1054756	46259	107974	0	0	8264	526258	0	0
2024-10-07 17:21:47			0	38966	0	0	0	21719	20290	158313	27001	1054765	46250	107977	0	0	8263	527063	0	0
2024-10-07 17:22:47			0	38985	0	0	0	21719	20300	158317	27062	1054756	46283	107977	0	0	8264	526306	0	0
2024-10-07 17:23:47			0	38988	0	0	0	21714	20300	158245	27126	1054800	46261	107975	0	0	8264	526191	0	0
2024-10-07 17:24:47			0	38979	0	0	0	21722	20290	158349	27403	1054818	46260	107978	0	0	8264	526565	0	0
2024-10-07 17:25:47			0	38975	0	0	0	21716	20300	158269	27013	1054809	46250	107976	0	0	8263	526689	0	0
2024-10-07 17:26:47			0	38991	0	0	0	21714	20290	158289	27105	1054765	46271	107975	0	0	8264	526105	0	0
2024-10-07 17:27:47			0	38975	0	0	0	21716	20290	158361	27242	1054818	46260	107976	0	0	8263	526718	0	0
2024-10-07 17:28:47			0	38957	0	0	0	21716	20290	158329	27116	1054756	46270	107976	0	0	8262	527408	0	0
2024-10-07 17:29:47			0	38990	0	0	0	21714	20290	158333	27415	1054729	46259	107975	0	0	8264	526143	0	0
2024-10-07 17:30:47			0	38990	0	0	0	21719	20280	158245	27514	1054800	46270	107977	0	0	8264	526172	0	0
2024-10-07 17:31:47			0	38990	0	0	0	21724	20300	158177	27345	1054800	46272	107979	0	0	8264	526114	0	0
2024-10-07 17:32:47			0	39000	0	0	0	21716	20290	158185	27234	1054765	46271	107976	0	0	8265	525760	0	0
2024-10-07 17:33:47			0	38998	0	0	0	21716	20290	158177	27339	1054791	46260	107976	0	0	8265	525837	0	0
2024-10-07 17:34:47			0	38997	0	0	0	21711	20300	158225	26840	1054747	46272	107974	0	0	8265	525846	0	0
2024-10-07 17:35:47			0	38996	0	0	0	21711	20290	158237	26970	1054765	46260	107974	0	0	8265	525914	0	0
2024-10-07 17:36:47			0	38997	0	0	0	21709	20290	158245	26953	1054729	46270	107973	0	0	8265	525875	0	0
2024-10-07 17:37:47			0	39009	0	0	0	21706	20290	158277	26991	1054703	46270	107972	0	0	8266	525416	0	0
2024-10-07 17:38:47			0	38990	0	0	0	21706	20290	158269	26734	1054756	46270	107972	0	0	8264	526143	0	0
2024-10-07 17:39:47			0	38952	0	0	0	21706	20290	158349	26826	1054756	46270	107972	0	0	8262	527600	0	0
2024-10-07 17:40:47			0	38965	0	0	0	21706	20290	158309	26791	1054782	46249	107972	0	0	8263	527101	0	0
2024-10-07 17:41:47			0	38977	0	0	0	21714	20290	158381	26906	1054729	46281	107975	0	0	8264	526641	0	0
2024-10-07 17:42:47			0	38995	0	0	0	21722	20290	158245	26923	1054738	46271	107978	0	0	8264	525952	0	0
2024-10-07 17:43:47			0	38985	0	0	0	21716	20290	158289	26819	1054729	46281	107976	0	0	8264	526335	0	0
2024-10-07 17:44:47			0	38974	0	0	0	21709	20280	158261	27118	1054791	46270	107973	0	0	8263	526786	0	0
2024-10-07 17:45:47			0	38988	0	0	0	21706	20290	158201	27239	1054756	46270	107972	0	0	8264	526220	0	0
2024-10-07 17:46:47			0	38960	0	0	0	21703	20280	158445	26987	1054711	46249	107971	0	0	8263	527322	0	0
2024-10-07 17:47:47			0	38949	0	0	0	21706	20290	158377	27041	1054676	46249	107972	0	0	8262	527715	0	0
2024-10-07 17:48:47			0	38942	0	0	0	21703	20290	158321	27493	1054738	46260	107971	0	0	8262	527984	0	0
2024-10-07 17:49:47			0	38961	0	0	0	21711	20280	158389	27272	1054800	46281	107974	0	0	8263	527284	0	0
2024-10-07 17:50:47			0	38952	0	0	0	21709	20290	158297	27164	1054765	46271	107973	0	0	8262	527600	0	0
2024-10-07 17:51:47			0	38945	0	0	0	21719	20280	158397	27490	1054720	46259	107977	0	0	8262	527898	0	0
2024-10-07 17:52:47			0	38933	0	0	0	21709	20290	158393	27403	1054782	46281	107973	0	0	8261	528329	0	0
2024-10-07 17:53:47			0	38952	0	0	0	21716	20280	158345	26729	1054720	46270	107976	0	0	8262	527629	0	0
2024-10-07 17:54:47			0	38951	0	0	0	21714	20280	158345	27242	1054720	46281	107975	0	0	8262	527667	0	0
2024-10-07 17:55:47			0	38921	0	0	0	21709	20280	158381	27246	1054711	46270	107973	0	0	8260	528819	0	0
2024-10-07 17:56:47			0	38938	0	0	0	21701	20280	158425	27469	1054711	46270	107970	0	0	8261	528166	0	0
2024-10-07 17:57:47			0	38936	0	0	0	21701	20280	158365	27260	1054747	46270	107970	0	0	8261	528243	0	0
2024-10-07 17:58:47			0	38919	0	0	0	21706	20280	158501	27488	1054747	46281	107972	0	0	8260	528896	0	0
2024-10-07 17:59:47			0	38893	0	0	0	21703	20280	158409	27467	1054720	46249	107971	0	0	8259	529896	0	0
2024-10-07 18:00:47			0	38915	0	0	0	21701	20280	158469	27390	1054711	46259	107970	0	0	8260	529050	0	0
2024-10-07 18:01:47			0	38935	0	0	0	21698	20270	158477	27353	1054676	46269	107969	0	0	8261	528311	0	0
2024-10-07 18:02:47			0	38934	0	0	0	21698	20280	158441	27159	1054720	46259	107969	0	0	8261	528320	0	0
2024-10-07 18:03:47			0	38934	0	0	0	21698	20280	158409	27578	1054605	46270	107969	0	0	8261	528320	0	0
2024-10-07 18:04:47			0	38932	0	0	0	21698	20270	158293	27164	1054702	46258	107969	0	0	8261	528426	0	0
2024-10-07 18:05:47			0	38938	0	0	0	21698	20280	158453	27381	1054738	46259	107969	0	0	8262	528166	0	0
2024-10-07 18:06:47			0	38929	0	0	0	21701	20280	158405	27069	1054711	46270	107970	0	0	8261	528512	0	0
2024-10-07 18:07:47			0	38936	0	0	0	21701	20270	158353	27183	1054676	46269	107970	0	0	8261	528272	0	0
2024-10-07 18:08:47			0	38923	0	0	0	21696	20270	158605	27187	1054702	46280	107968	0	0	8261	528772	0	0
2024-10-07 18:09:47			0	38920	0	0	0	21701	20280	158553	27206	1054658	46270	107970	0	0	8260	528858	0	0
2024-10-07 18:10:47			0	38929	0	0	0	21698	20280	158485	27163	1054711	46259	107969	0	0	8261	528512	0	0
2024-10-07 18:11:47			0	38929	0	0	0	21690	20270	158505	27251	1054676	46280	107966	0	0	8261	528541	0	0
2024-10-07 18:12:47			0	38912	0	0	0	21693	20280	158565	27197	1054711	46270	107967	0	0	8260	529165	0	0
2024-10-07 18:13:47			0	38896	0	0	0	21701	20270	158549	27218	1054693	46246	107970	0	0	8259	529810	0	0
2024-10-07 18:14:47			0	38908	0	0	0	21701	20270	158545	27590	1054676	46280	107970	0	0	8260	529348	0	0
2024-10-07 18:15:47			0	38905	0	0	0	21709	20270	158549	26909	1054702	46269	107973	0	0	8259	529464	0	0
2024-10-07 18:16:47			0	38911	0	0	0	21703	20270	158585	27348	1054623	46269	107971	0	0	8260	529233	0	0
2024-10-07 18:17:47			0	38903	0	0	0	21706	20270	158613	26932	1054756	46258	107972	0	0	8259	529540	0	0
2024-10-07 18:18:47			0	38902	0	0	0	21703	20270	158621	27118	1054702	46258	107971	0	0	8259	529579	0	0
2024-10-07 18:19:47			0	38916	0	0	0	21698	20270	158529	27206	1054729	46258	107969	0	0	8260	529041	0	0
2024-10-07 18:20:47			0	38893	0	0	0	21696	20280	158649	26875	1054685	46281	107968	0	0	8259	529896	0	0
2024-10-07 18:21:47			0	38907	0	0	0	21711	20270	158653	27130	1054756	46258	107974	0	0	8259	529387	0	0
2024-10-07 18:22:47			0	38902	0	0	0	21698	20270	158617	26949	1054676	46280	107969	0	0	8259	529579	0	0
2024-10-07 18:23:47			0	38898	0	0	0	21703	20260	158573	27305	1054658	46268	107971	0	0	8259	529762	0	0
2024-10-07 18:24:47			0	38896	0	0	0	21703	20270	158629	27124	1054676	46269	107971	0	0	8259	529810	0	0
2024-10-07 18:25:47			0	38904	0	0	0	21701	20270	158633	27177	1054729	46269	107970	0	0	8259	529502	0	0
2024-10-07 18:26:47			0	38893	0	0	0	21711	20270	158681	26993	1054676	46269	107974	0	0	8259	529925	0	0
2024-10-07 18:27:47			0	38923	0	0	0	21701	20280	158737	26946	1054747	46259	107970	0	0	8261	528743	0	0
2024-10-07 18:28:47			0	38885	0	0	0	21703	20280	158633	27038	1054685	46270	107971	0	0	8258	530204	0	0
2024-10-07 18:29:47			0	38889	0	0	0	21703	20260	158693	26856	1054658	46268	107971	0	0	8259	530108	0	0
2024-10-07 18:30:47			0	38881	0	0	0	21706	20280	158657	27286	1054711	46281	107972	0	0	8258	530357	0	0
2024-10-07 18:31:47			0	38887	0	0	0	21711	20270	158629	26979	1054676	46269	107974	0	0	8258	530156	0	0
2024-10-07 18:32:47			0	38860	0	0	0	21698	20280	158641	26946	1054747	46281	107969	0	0	8257	531166	0	0
2024-10-07 18:33:47			0	38883	0	0	0	21703	20280	158777	27150	1054685	46281	107971	0	0	8258	530281	0	0
2024-10-07 18:34:47			0	38878	0	0	0	21706	20270	158785	27322	1054729	46269	107972	0	0	8258	530502	0	0
2024-10-07 18:35:47			0	38865	0	0	0	21703	20280	158741	27345	1054685	46259	107971	0	0	8257	530973	0	0
2024-10-07 18:36:47			0	38845	0	0	0	21709	20270	158745	27291	1054800	46268	107973	0	0	8256	531773	0	0
2024-10-07 18:37:47			0	38865	0	0	0	21698	20270	158777	27310	1054747	46257	107969	0	0	8257	531003	0	0
2024-10-07 18:38:47			0	38856	0	0	0	21698	20270	158877	27090	1054693	46279	107969	0	0	8257	531350	0	0
2024-10-07 18:39:47			0	38840	0	0	0	21703	20280	158813	27346	1054685	46259	107971	0	0	8256	531937	0	0
2024-10-07 18:40:47			0	38836	0	0	0	21701	20270	158945	27376	1054693	46268	107970	0	0	8256	532121	0	0
2024-10-07 18:41:47			0	38826	0	0	0	21703	20270	158825	27509	1054702	46269	107971	0	0	8255	532506	0	0
2024-10-07 18:42:47			0	38836	0	0	0	21693	20270	158853	27488	1054729	46258	107967	0	0	8256	532121	0	0
2024-10-07 18:43:47			0	38827	0	0	0	21703	20270	158849	27201	1054720	46257	107971	0	0	8255	532468	0	0
2024-10-07 18:44:47			0	38820	0	0	0	21703	20280	158885	27062	1054720	46270	107971	0	0	8255	532708	0	0
2024-10-07 18:45:47			0	38815	0	0	0	21701	20260	158965	26906	1054711	46268	107970	0	0	8254	532960	0	0
2024-10-07 18:46:47			0	38823	0	0	0	21698	20270	158845	27402	1054729	46258	107969	0	0	8255	532622	0	0
2024-10-07 18:47:47			0	38839	0	0	0	21693	20270	158921	27263	1054676	46269	107967	0	0	8256	532005	0	0
2024-10-07 18:48:47			0	38819	0	0	0	21698	20270	159041	27244	1054702	46258	107969	0	0	8255	532776	0	0
2024-10-07 18:49:47			0	38829	0	0	0	21701	20270	158941	27145	1054649	46269	107970	0	0	8255	532390	0	0
2024-10-07 18:50:47			0	38815	0	0	0	21701	20260	158997	27078	1054685	46257	107970	0	0	8254	532960	0	0
2024-10-07 18:51:47			0	38816	0	0	0	21701	20270	158913	27067	1054693	46257	107970	0	0	8254	532892	0	0
2024-10-07 18:52:47			0	38796	0	0	0	21701	20280	159033	26923	1054711	46259	107970	0	0	8253	533635	0	0
2024-10-07 18:53:47			0	38808	0	0	0	21698	20270	159049	26906	1054667	46257	107969	0	0	8254	533201	0	0
2024-10-07 18:54:47			0	38817	0	0	0	21696	20270	158989	27022	1054747	46268	107968	0	0	8255	532853	0	0
2024-10-07 18:55:47			0	38816	0	0	0	21696	20270	158965	27109	1054693	46290	107968	0	0	8254	532892	0	0
2024-10-07 18:56:47			0	38805	0	0	0	21696	20270	159029	27055	1054640	46257	107968	0	0	8254	533317	0	0
2024-10-07 18:57:47			0	38796	0	0	0	21701	20270	158985	27272	1054667	46268	107970	0	0	8253	533664	0	0
2024-10-07 18:58:47			0	38809	0	0	0	21698	20260	159025	27180	1054631	46257	107969	0	0	8254	533192	0	0
2024-10-07 18:59:47			0	38807	0	0	0	21698	20260	159145	27319	1054676	46268	107969	0	0	8254	533269	0	0
2024-10-07 19:00:47			0	38798	0	0	0	21706	20270	159093	27372	1054693	46268	107972	0	0	8253	533587	0	0
2024-10-07 19:01:47			0	38793	0	0	0	21703	20260	159033	27092	1054738	46257	107971	0	0	8253	533810	0	0
2024-10-07 19:02:47			0	38796	0	0	0	21703	20270	158997	27369	1054702	46258	107971	0	0	8253	533664	0	0
2024-10-07 19:03:47			0	38789	0	0	0	21709	20280	159041	27440	1054711	46270	107973	0	0	8253	533905	0	0
2024-10-07 19:04:47			0	38799	0	0	0	21703	20270	159141	27441	1054720	46246	107971	0	0	8253	533548	0	0
2024-10-07 19:05:47			0	38789	0	0	0	21701	20270	159053	27111	1054693	46268	107970	0	0	8253	533935	0	0
2024-10-07 19:06:47			0	38770	0	0	0	21698	20270	158921	27277	1054693	46268	107969	0	0	8252	534669	0	0
2024-10-07 19:07:47			0	38780	0	0	0	21696	20270	159109	27098	1054693	46246	107968	0	0	8252	534283	0	0
2024-10-07 19:08:47			0	38779	0	0	0	21701	20270	159193	27211	1054720	46257	107970	0	0	8252	534321	0	0
2024-10-07 19:09:47			0	38778	0	0	0	21703	20270	159137	27306	1054640	46279	107971	0	0	8252	534360	0	0
2024-10-07 19:10:47			0	38766	0	0	0	21698	20280	159305	27244	1054685	46270	107969	0	0	8252	534795	0	0
2024-10-07 19:11:47			0	38755	0	0	0	21693	20260	159177	27480	1054658	46268	107967	0	0	8251	535279	0	0
2024-10-07 19:12:47			0	38756	0	0	0	21693	20260	159229	27464	1054711	46268	107967	0	0	8251	535240	0	0
2024-10-07 19:13:47			0	38748	0	0	0	21693	20260	159213	27263	1054658	46268	107967	0	0	8250	535550	0	0
2024-10-07 19:14:47			0	38731	0	0	0	21696	20270	159341	26946	1054667	46268	107968	0	0	8249	536179	0	0
2024-10-07 19:15:47			0	38727	0	0	0	21685	20270	159324	27123	1054720	46268	107964	0	0	8249	536334	0	0
2024-10-07 19:16:47			0	38713	0	0	0	21688	20270	159320	27234	1054676	46269	107965	0	0	8249	536876	0	0
2024-10-07 19:17:47			0	38716	0	0	0	21690	20260	159344	27232	1054685	46268	107966	0	0	8249	536790	0	0
2024-10-07 19:18:47			0	38712	0	0	0	21693	20260	159300	27031	1054676	46290	107967	0	0	8248	536945	0	0
2024-10-07 19:19:47			0	38710	0	0	0	21685	20270	159364	27149	1054720	46257	107964	0	0	8248	536993	0	0
2024-10-07 19:20:47			0	38711	0	0	0	21685	20250	159372	27026	1054693	46256	107964	0	0	8248	537013	0	0
2024-10-07 19:21:47			0	38703	0	0	0	21688	20260	159416	27569	1054658	46257	107965	0	0	8248	537294	0	0
2024-10-07 19:22:47			0	38695	0	0	0	21696	20260	159428	27282	1054578	46268	107968	0	0	8247	537604	0	0
2024-10-07 19:23:47			0	38697	0	0	0	21690	20260	159548	27346	1054685	46268	107966	0	0	8248	537527	0	0
2024-10-07 19:24:47			0	38688	0	0	0	21688	20260	159520	27426	1054622	46268	107965	0	0	8247	537876	0	0
2024-10-07 19:25:47			0	38683	0	0	0	21688	20260	159520	27235	1054631	46268	107965	0	0	8247	538070	0	0
2024-10-07 19:26:47			0	38665	0	0	0	21703	20260	159488	27336	1054711	46279	107971	0	0	8245	538769	0	0
2024-10-07 19:27:47			0	38675	0	0	0	21693	20270	159488	27171	1054693	46268	107967	0	0	8246	538351	0	0
2024-10-07 19:28:47			0	38684	0	0	0	21693	20270	159460	27050	1054693	46279	107967	0	0	8247	538002	0	0
2024-10-07 19:29:47			0	38683	0	0	0	21693	20260	159488	27301	1054605	46279	107967	0	0	8247	538070	0	0
2024-10-07 19:30:47			0	38674	0	0	0	21703	20270	159468	27274	1054729	46269	107971	0	0	8246	538390	0	0
2024-10-07 19:31:47			0	38674	0	0	0	21693	20260	159608	27320	1054658	46268	107967	0	0	8246	538420	0	0
2024-10-07 19:32:47			0	38648	0	0	0	21688	20270	159528	27621	1054667	46268	107965	0	0	8245	539400	0	0
2024-10-07 19:33:47			0	38664	0	0	0	21690	20260	159548	27038	1054676	46268	107966	0	0	8246	538808	0	0
2024-10-07 19:34:47			0	38647	0	0	0	21688	20260	159668	27352	1054676	46257	107965	0	0	8245	539469	0	0
2024-10-07 19:35:47			0	38647	0	0	0	21688	20270	159676	27015	1054667	46257	107965	0	0	8245	539439	0	0
2024-10-07 19:36:47			0	38652	0	0	0	21690	20260	159688	27433	1054631	46257	107966	0	0	8245	539274	0	0
2024-10-07 19:37:47			0	38636	0	0	0	21685	20270	159656	27384	1054640	46268	107964	0	0	8244	539867	0	0
2024-10-07 19:38:47			0	38627	0	0	0	21685	20260	159632	27223	1054631	46257	107964	0	0	8244	540247	0	0
2024-10-07 19:39:47			0	38630	0	0	0	21683	20260	159696	27367	1054631	46257	107963	0	0	8244	540130	0	0
2024-10-07 19:40:47			0	38623	0	0	0	21683	20260	159700	27095	1054676	46268	107963	0	0	8243	540402	0	0
2024-10-07 19:41:47			0	38629	0	0	0	21677	20260	159756	27199	1054649	46257	107961	0	0	8244	540169	0	0
2024-10-07 19:42:47			0	38634	0	0	0	21664	20260	159692	27003	1054676	46257	107956	0	0	8244	539974	0	0
2024-10-07 19:43:47			0	38630	0	0	0	21677	20260	159660	26998	1054649	46257	107961	0	0	8244	540130	0	0
2024-10-07 19:44:47			0	38609	0	0	0	21667	20250	159728	27211	1054693	46256	107957	0	0	8243	540977	0	0
2024-10-07 19:45:47			0	38618	0	0	0	21667	20250	159776	26961	1054640	46256	107957	0	0	8243	540627	0	0
2024-10-07 19:46:47			0	38612	0	0	0	21670	20260	159744	27187	1054569	46257	107958	0	0	8243	540831	0	0
2024-10-07 19:47:47			0	38615	0	0	0	21672	20240	159748	27180	1054605	46255	107959	0	0	8243	540774	0	0
2024-10-07 19:48:47			0	38614	0	0	0	21667	20250	159784	27251	1054587	46256	107957	0	0	8243	540783	0	0
2024-10-07 19:49:47			0	38622	0	0	0	21654	20240	159788	27251	1054542	46254	107952	0	0	8244	540501	0	0
2024-10-07 19:50:47			0	38600	0	0	0	21659	20240	159744	27102	1054569	46265	107954	0	0	8242	541358	0	0
2024-10-07 19:51:47			0	38599	0	0	0	21644	20240	159772	27166	1054525	46255	107948	0	0	8243	541397	0	0
2024-10-07 19:52:47			0	38598	0	0	0	21641	20240	159852	27263	1054542	46254	107947	0	0	8243	541436	0	0
2024-10-07 19:53:47			0	38572	0	0	0	21646	20230	159936	27369	1054471	46265	107949	0	0	8241	542480	0	0
2024-10-07 19:54:47			0	38571	0	0	0	21644	20230	159988	27403	1054445	46265	107948	0	0	8241	542519	0	0
2024-10-07 19:55:47			0	38563	0	0	0	21641	20220	160124	27421	1054489	46253	107947	0	0	8240	542861	0	0
2024-10-07 19:56:47			0	38556	0	0	0	21644	20220	160068	27265	1054489	46264	107948	0	0	8240	543134	0	0
2024-10-07 19:57:47			0	38552	0	0	0	21649	20220	160008	27104	1054453	46263	107950	0	0	8240	543290	0	0
2024-10-07 19:58:47			0	38558	0	0	0	21641	20220	160088	27116	1054436	46264	107947	0	0	8240	543056	0	0
2024-10-07 19:59:47			0	38552	0	0	0	21641	20210	160084	27274	1054418	46263	107947	0	0	8240	543320	0	0
2024-10-07 20:00:47			0	38559	0	0	0	21638	20210	160012	26989	1054462	46274	107946	0	0	8240	543047	0	0
2024-10-07 20:01:47			0	38573	0	0	0	21623	20210	160036	27133	1054471	46274	107940	0	0	8241	542500	0	0
2024-10-07 20:02:47			0	38567	0	0	0	21631	20220	160080	27121	1054453	46263	107943	0	0	8241	542705	0	0
2024-10-07 20:03:47			0	38582	0	0	0	21631	20210	160012	27187	1054462	46241	107943	0	0	8242	542149	0	0
2024-10-07 20:04:47			0	38577	0	0	0	21631	20210	160044	27232	1054409	46263	107943	0	0	8241	542344	0	0
2024-10-07 20:05:47			0	38553	0	0	0	21625	20210	159948	27329	1054382	46263	107941	0	0	8240	543281	0	0
2024-10-07 20:06:47			0	38559	0	0	0	21625	20210	160100	27272	1054418	46263	107941	0	0	8240	543047	0	0
2024-10-07 20:07:47			0	38569	0	0	0	21628	20200	160080	27374	1054400	46262	107942	0	0	8241	542687	0	0
2024-10-07 20:08:47			0	38546	0	0	0	21623	20210	160080	27253	1054435	46252	107940	0	0	8240	543555	0	0
2024-10-07 20:09:47			0	38523	0	0	0	21631	20210	160144	27265	1054364	46263	107943	0	0	8238	544454	0	0
2024-10-07 20:10:47			0	38535	0	0	0	21636	20210	160212	27341	1054382	46263	107945	0	0	8239	543985	0	0
2024-10-07 20:11:47			0	38510	0	0	0	21633	20210	160368	27114	1054409	46252	107944	0	0	8237	544962	0	0
2024-10-07 20:12:47			0	38494	0	0	0	21631	20200	160308	27547	1054453	46251	107943	0	0	8236	545619	0	0
2024-10-07 20:13:47			0	38494	0	0	0	21625	20200	160268	26802	1054391	46239	107941	0	0	8237	545619	0	0
2024-10-07 20:14:47			0	38507	0	0	0	21623	20200	160300	26963	1054400	46240	107940	0	0	8237	545110	0	0
2024-10-07 20:15:47			0	38501	0	0	0	21623	20200	160320	27488	1054417	46261	107940	0	0	8237	545345	0	0
2024-10-07 20:16:47			0	38510	0	0	0	21610	20200	160292	27658	1054364	46250	107935	0	0	8238	544992	0	0
2024-10-07 20:17:47			0	38502	0	0	0	21612	20210	160232	27370	1054391	46274	107936	0	0	8237	545275	0	0
2024-10-07 20:18:47			0	38515	0	0	0	21610	20210	160328	27564	1054382	46252	107935	0	0	8238	544767	0	0
2024-10-07 20:19:47			0	38531	0	0	0	21610	20180	160104	27509	1054258	46260	107935	0	0	8239	544231	0	0
2024-10-07 20:20:47			0	38538	0	0	0	21610	20200	160116	27550	1054364	46261	107935	0	0	8239	543897	0	0
2024-10-07 20:21:47			0	38539	0	0	0	21615	20190	160104	27390	1054346	46250	107937	0	0	8239	543888	0	0
2024-10-07 20:22:47			0	38553	0	0	0	21620	20190	160132	27334	1054329	46250	107939	0	0	8240	543341	0	0
2024-10-07 20:23:47			0	38576	0	0	0	21615	20190	160016	27569	1054320	46239	107937	0	0	8241	542443	0	0
2024-10-07 20:24:47			0	38552	0	0	0	21625	20190	159956	27255	1054329	46261	107941	0	0	8240	543380	0	0
2024-10-07 20:25:47			0	38584	0	0	0	21625	20180	160008	27460	1054258	46271	107941	0	0	8242	542161	0	0
2024-10-07 20:26:47			0	38593	0	0	0	21628	20180	160000	27407	1054337	46260	107942	0	0	8242	541810	0	0
2024-10-07 20:27:47			0	38595	0	0	0	21625	20190	159936	27566	1054293	46272	107941	0	0	8242	541702	0	0
2024-10-07 20:28:47			0	38595	0	0	0	21623	20200	159880	27350	1054400	46262	107940	0	0	8242	541672	0	0
2024-10-07 20:29:47			0	38599	0	0	0	21625	20190	159892	27027	1054426	46250	107941	0	0	8243	541546	0	0
2024-10-07 20:30:47			0	38592	0	0	0	21625	20190	159940	27379	1054320	46250	107941	0	0	8242	541819	0	0
2024-10-07 20:31:47			0	38610	0	0	0	21615	20190	159916	27346	1054346	46261	107937	0	0	8243	541118	0	0
2024-10-07 20:32:47			0	38614	0	0	0	21623	20190	159888	27123	1054373	46272	107940	0	0	8244	540962	0	0
2024-10-07 20:33:47			0	38610	0	0	0	21618	20190	159896	27393	1054355	46261	107938	0	0	8243	541118	0	0
2024-10-07 20:34:47			0	38590	0	0	0	21628	20200	159980	27213	1054338	46250	107942	0	0	8242	541867	0	0
2024-10-07 20:35:47			0	38600	0	0	0	21623	20180	159828	27338	1054382	46270	107940	0	0	8243	541537	0	0
2024-10-07 20:36:47			0	38594	0	0	0	21618	20190	159924	27183	1054355	46250	107938	0	0	8242	541741	0	0
2024-10-07 20:37:47			0	38607	0	0	0	21623	20180	159912	27324	1054364	46250	107940	0	0	8243	541265	0	0
2024-10-07 20:38:47			0	38581	0	0	0	21612	20190	159904	27218	1054346	46250	107936	0	0	8242	542248	0	0
2024-10-07 20:39:47			0	38591	0	0	0	21618	20200	160072	27412	1054364	46261	107938	0	0	8242	541828	0	0
2024-10-07 20:40:47			0	38592	0	0	0	21615	20180	160064	27218	1054284	46250	107937	0	0	8242	541849	0	0
2024-10-07 20:41:47			0	38588	0	0	0	21607	20180	160016	27147	1054391	46250	107934	0	0	8242	542005	0	0
2024-10-07 20:42:47			0	38599	0	0	0	21610	20180	159952	27222	1054337	46250	107935	0	0	8243	541576	0	0
2024-10-07 20:43:47			0	38574	0	0	0	21607	20170	160020	27189	1054320	46249	107934	0	0	8241	542581	0	0
2024-10-07 20:44:47			0	38592	0	0	0	21607	20190	160092	27379	1054346	46250	107934	0	0	8243	541819	0	0
2024-10-07 20:45:47			0	38596	0	0	0	21599	20180	159988	27213	1054311	46238	107931	0	0	8243	541693	0	0
2024-10-07 20:46:47			0	38597	0	0	0	21610	20180	159908	27057	1054275	46270	107935	0	0	8243	541654	0	0
2024-10-07 20:47:47			0	38598	0	0	0	21605	20180	159888	27492	1054337	46260	107933	0	0	8243	541615	0	0
2024-10-07 20:48:47			0	38607	0	0	0	21610	20190	159952	27329	1054355	46250	107935	0	0	8243	541235	0	0
2024-10-07 20:49:47			0	38597	0	0	0	21607	20180	159996	27261	1054337	46250	107934	0	0	8243	541654	0	0
2024-10-07 20:50:47			0	38576	0	0	0	21597	20180	159984	27118	1054302	46259	107930	0	0	8242	542473	0	0
2024-10-07 20:51:47			0	38555	0	0	0	21599	20180	160028	27524	1054275	46259	107931	0	0	8240	543293	0	0
2024-10-07 20:52:47			0	38543	0	0	0	21605	20170	160064	27119	1054266	46249	107933	0	0	8240	543792	0	0
2024-10-07 20:53:47			0	38562	0	0	0	21610	20180	160116	27258	1054337	46250	107935	0	0	8241	543020	0	0
2024-10-07 20:54:47			0	38559	0	0	0	21607	20180	160036	27059	1054284	46260	107934	0	0	8241	543137	0	0
2024-10-07 20:55:47			0	38567	0	0	0	21607	20180	160092	27178	1054275	46259	107934	0	0	8241	542825	0	0
2024-10-07 20:56:47			0	38558	0	0	0	21597	20170	160020	26956	1054240	46259	107930	0	0	8241	543206	0	0
2024-10-07 20:57:47			0	38569	0	0	0	21597	20180	160108	27306	1054302	46259	107930	0	0	8241	542747	0	0
2024-10-07 20:58:47			0	38572	0	0	0	21602	20170	160116	27182	1054258	46269	107932	0	0	8241	542659	0	0
2024-10-07 20:59:47			0	38569	0	0	0	21610	20180	160088	26894	1054355	46259	107935	0	0	8241	542747	0	0
2024-10-07 21:00:47			0	38558	0	0	0	21602	20180	160040	26928	1054275	46259	107932	0	0	8241	543176	0	0
2024-10-07 21:01:47			0	38544	0	0	0	21599	20170	160220	27074	1054266	46249	107931	0	0	8240	543753	0	0
2024-10-07 21:02:47			0	38552	0	0	0	21602	20170	160200	27353	1054258	46258	107932	0	0	8240	543440	0	0
2024-10-07 21:03:47			0	38551	0	0	0	21602	20170	160056	27045	1054320	46249	107932	0	0	8240	543479	0	0
2024-10-07 21:04:47			0	38549	0	0	0	21597	20180	160140	26974	1054302	46249	107930	0	0	8240	543528	0	0
2024-10-07 21:05:47			0	38547	0	0	0	21610	20180	160184	27312	1054284	46271	107935	0	0	8240	543606	0	0
2024-10-07 21:06:47			0	38557	0	0	0	21599	20170	160232	26951	1054284	46248	107931	0	0	8241	543245	0	0
2024-10-07 21:07:47			0	38557	0	0	0	21592	20170	160152	27305	1054258	46258	107928	0	0	8241	543245	0	0
2024-10-07 21:08:47			0	38553	0	0	0	21599	20170	160184	27213	1054266	46259	107931	0	0	8240	543401	0	0
2024-10-07 21:09:47			0	38556	0	0	0	21602	20170	160124	27320	1054293	46259	107932	0	0	8240	543284	0	0
2024-10-07 21:10:47			0	38559	0	0	0	21602	20170	160196	26844	1054258	46248	107932	0	0	8241	543167	0	0
2024-10-07 21:11:47			0	38550	0	0	0	21594	20170	160124	26925	1054284	46248	107929	0	0	8240	543519	0	0
2024-10-07 21:12:47			0	38550	0	0	0	21594	20170	160092	27036	1054231	46248	107929	0	0	8240	543519	0	0
2024-10-07 21:13:47			0	38542	0	0	0	21597	20170	160228	27223	1054266	46259	107930	0	0	8240	543831	0	0
2024-10-07 21:14:47			0	38523	0	0	0	21605	20160	160196	26771	1054275	46236	107933	0	0	8238	544604	0	0
2024-10-07 21:15:47			0	38538	0	0	0	21599	20160	160148	27161	1054213	46268	107931	0	0	8239	544018	0	0
2024-10-07 21:16:47			0	38530	0	0	0	21592	20170	160152	27071	1054231	46258	107928	0	0	8239	544300	0	0
2024-10-07 21:17:47			0	38514	0	0	0	21610	20160	160320	27156	1054213	46257	107935	0	0	8238	544956	0	0
2024-10-07 21:18:47			0	38529	0	0	0	21594	20170	160336	27253	1054311	46258	107929	0	0	8239	544339	0	0
2024-10-07 21:19:47			0	38503	0	0	0	21602	20160	160208	27109	1054213	46257	107932	0	0	8237	545387	0	0
2024-10-07 21:20:47			0	38485	0	0	0	21599	20160	160284	27142	1054186	46257	107931	0	0	8236	546092	0	0
2024-10-07 21:21:47			0	38501	0	0	0	21597	20160	160336	27374	1054293	46268	107930	0	0	8237	545465	0	0
2024-10-07 21:22:47			0	38479	0	0	0	21597	20170	160436	27114	1054258	46248	107930	0	0	8236	546297	0	0
2024-10-07 21:23:47			0	38476	0	0	0	21597	20170	160472	27154	1054231	46269	107930	0	0	8236	546414	0	0
2024-10-07 21:24:47			0	38465	0	0	0	21602	20170	160480	27339	1054266	46249	107932	0	0	8235	546846	0	0
2024-10-07 21:25:47			0	38460	0	0	0	21597	20170	160468	26660	1054258	46248	107930	0	0	8235	547042	0	0
2024-10-07 21:26:47			0	38476	0	0	0	21592	20170	160428	27452	1054284	46269	107928	0	0	8236	546414	0	0
2024-10-07 21:27:47			0	38467	0	0	0	21599	20150	160536	27178	1054257	46256	107931	0	0	8235	546827	0	0
2024-10-07 21:28:47			0	38464	0	0	0	21594	20160	160492	27426	1054249	46258	107929	0	0	8235	546915	0	0
2024-10-07 21:29:47			0	38454	0	0	0	21597	20160	160436	26812	1054275	46248	107930	0	0	8235	547307	0	0
2024-10-07 21:30:47			0	38466	0	0	0	21592	20160	160520	27280	1054302	46248	107928	0	0	8235	546836	0	0
2024-10-07 21:31:47			0	38460	0	0	0	21597	20170	160492	27249	1054284	46258	107930	0	0	8235	547042	0	0
2024-10-07 21:32:47			0	38451	0	0	0	21599	20170	160392	27255	1054231	46258	107931	0	0	8234	547395	0	0
2024-10-07 21:33:47			0	38458	0	0	0	21594	20170	160484	27178	1054284	46269	107929	0	0	8235	547120	0	0
2024-10-07 21:34:47			0	38441	0	0	0	21597	20160	160496	27119	1054266	46247	107930	0	0	8234	547817	0	0
2024-10-07 21:35:47			0	38442	0	0	0	21602	20170	160536	27081	1054266	46249	107932	0	0	8234	547748	0	0
2024-10-07 21:36:47			0	38461	0	0	0	21605	20160	160572	27140	1054249	46258	107933	0	0	8235	547033	0	0
2024-10-07 21:37:47			0	38455	0	0	0	21599	20170	160468	26987	1054231	46258	107931	0	0	8235	547238	0	0
2024-10-07 21:38:47			0	38461	0	0	0	21602	20170	160500	27324	1054293	46259	107932	0	0	8235	547002	0	0
2024-10-07 21:39:47			0	38437	0	0	0	21605	20170	160652	26807	1054258	46248	107933	0	0	8233	547944	0	0
2024-10-07 21:40:47			0	38432	0	0	0	21607	20160	160652	27246	1054275	46248	107934	0	0	8233	548171	0	0
2024-10-07 21:41:47			0	38409	0	0	0	21599	20170	160640	27232	1054311	46269	107931	0	0	8232	549044	0	0
2024-10-07 21:42:47			0	38418	0	0	0	21607	20160	160640	27348	1054275	46269	107934	0	0	8232	548721	0	0
2024-10-07 21:43:47			0	38412	0	0	0	21602	20160	160636	27206	1054249	46248	107932	0	0	8232	548957	0	0
2024-10-07 21:44:47			0	38421	0	0	0	21599	20170	160692	27100	1054293	46259	107931	0	0	8233	548573	0	0
2024-10-07 21:45:47			0	38415	0	0	0	21594	20160	160684	27092	1054275	46248	107929	0	0	8232	548839	0	0
2024-10-07 21:46:47			0	38401	0	0	0	21599	20170	160800	27384	1054240	46259	107931	0	0	8231	549359	0	0
2024-10-07 21:47:47			0	38396	0	0	0	21599	20170	160784	26948	1054266	46237	107931	0	0	8231	549555	0	0
2024-10-07 21:48:47			0	38411	0	0	0	21597	20170	160808	26890	1054258	46258	107930	0	0	8232	548966	0	0
2024-10-07 21:49:47			0	38413	0	0	0	21594	20160	160732	27331	1054240	46257	107929	0	0	8232	548917	0	0
2024-10-07 21:50:47			0	38406	0	0	0	21592	20170	160768	26930	1054231	46269	107928	0	0	8232	549162	0	0
2024-10-07 21:51:47			0	38401	0	0	0	21594	20160	160792	27265	1054195	46236	107929	0	0	8231	549389	0	0
2024-10-07 21:52:47			0	38397	0	0	0	21592	20150	160784	26887	1054204	46246	107928	0	0	8231	549577	0	0
2024-10-07 21:53:47			0	38407	0	0	0	21592	20170	160836	27182	1054213	46249	107928	0	0	8232	549123	0	0
2024-10-07 21:54:47			0	38386	0	0	0	21594	20160	160752	26956	1054213	46247	107929	0	0	8231	549979	0	0
2024-10-07 21:55:47			0	38414	0	0	0	21597	20160	160736	27048	1054275	46248	107930	0	0	8232	548878	0	0
2024-10-07 21:56:47			0	38393	0	0	0	21586	20160	160792	26951	1054249	46258	107926	0	0	8231	549704	0	0
2024-10-07 21:57:47			0	38396	0	0	0	21602	20160	160800	27320	1054266	46268	107932	0	0	8231	549586	0	0
2024-10-07 21:58:47			0	38393	0	0	0	21589	20170	160756	27287	1054240	46249	107927	0	0	8231	549673	0	0
2024-10-07 21:59:47			0	38401	0	0	0	21599	20160	160740	27177	1054186	46279	107931	0	0	8231	549389	0	0
2024-10-07 22:00:47			0	38405	0	0	0	21594	20160	160808	27124	1054213	46235	107929	0	0	8232	549232	0	0
2024-10-07 22:01:47			0	38390	0	0	0	21599	20170	160780	26913	1054337	46248	107931	0	0	8231	549791	0	0
2024-10-07 22:02:47			0	38397	0	0	0	21594	20170	160736	27386	1054284	46258	107929	0	0	8231	549516	0	0
2024-10-07 22:03:47			0	38417	0	0	0	21599	20160	160820	27112	1054266	46247	107931	0	0	8232	548760	0	0
2024-10-07 22:04:47			0	38426	0	0	0	21605	20170	160656	27261	1054364	46269	107933	0	0	8233	548376	0	0
2024-10-07 22:05:47			0	38395	0	0	0	21605	20170	160692	27509	1054284	46258	107933	0	0	8231	549595	0	0
2024-10-07 22:06:47			0	38405	0	0	0	21597	20170	160748	27223	1054258	46258	107930	0	0	8232	549202	0	0
2024-10-07 22:07:47			0	38400	0	0	0	21594	20170	160804	27272	1054240	46259	107929	0	0	8231	549398	0	0
2024-10-07 22:08:47			0	38389	0	0	0	21602	20170	160748	27251	1054284	46248	107932	0	0	8231	549831	0	0
2024-10-07 22:09:47			0	38397	0	0	0	21602	20170	160832	27326	1054266	46270	107932	0	0	8231	549516	0	0
2024-10-07 22:10:47			0	38383	0	0	0	21597	20170	160716	27048	1054284	46248	107930	0	0	8230	550067	0	0
2024-10-07 22:11:47			0	38376	0	0	0	21597	20170	160736	27060	1054284	46258	107930	0	0	8230	550342	0	0
2024-10-07 22:12:47			0	38378	0	0	0	21597	20170	160820	27062	1054258	46269	107930	0	0	8230	550264	0	0
2024-10-07 22:13:47			0	38374	0	0	0	21602	20160	160768	27144	1054275	46258	107932	0	0	8230	550452	0	0
2024-10-07 22:14:47			0	38363	0	0	0	21597	20170	160844	27012	1054284	46258	107930	0	0	8229	550854	0	0
2024-10-07 22:15:47			0	38361	0	0	0	21592	20160	160872	27121	1054266	46247	107928	0	0	8229	550964	0	0
2024-10-07 22:16:47			0	38355	0	0	0	21597	20160	160864	27078	1054293	46235	107930	0	0	8229	551200	0	0
2024-10-07 22:17:47			0	38348	0	0	0	21599	20170	160912	27227	1054231	46248	107931	0	0	8228	551445	0	0
2024-10-07 22:18:47			0	38346	0	0	0	21599	20170	160928	27138	1054346	46259	107931	0	0	8228	551524	0	0
2024-10-07 22:19:47			0	38362	0	0	0	21599	20170	160900	27241	1054240	46249	107931	0	0	8229	550894	0	0
2024-10-07 22:20:47			0	38357	0	0	0	21597	20160	160892	27229	1054266	46247	107930	0	0	8229	551121	0	0
2024-10-07 22:21:47			0	38358	0	0	0	21589	20160	160952	27202	1054249	46258	107927	0	0	8229	551082	0	0
2024-10-07 22:22:47			0	38353	0	0	0	21594	20160	160976	27218	1054249	46258	107929	0	0	8229	551279	0	0
2024-10-07 22:23:47			0	38354	0	0	0	21602	20160	160936	27254	1054319	46247	107932	0	0	8229	551239	0	0
2024-10-07 22:24:47			0	38349	0	0	0	21592	20170	160916	27119	1054240	46237	107928	0	0	8229	551406	0	0
2024-10-07 22:25:47			0	38355	0	0	0	21597	20170	160884	27015	1054284	46248	107930	0	0	8229	551170	0	0
2024-10-07 22:26:47			0	38351	0	0	0	21592	20170	161008	26660	1054258	46258	107928	0	0	8229	551327	0	0
2024-10-07 22:27:47			0	38345	0	0	0	21592	20160	160948	26939	1054222	46248	107928	0	0	8228	551594	0	0
2024-10-07 22:28:47			0	38369	0	0	0	21592	20170	160944	27244	1054337	46258	107928	0	0	8230	550618	0	0
2024-10-07 22:29:47			0	38371	0	0	0	21597	20160	160940	26982	1054293	46247	107930	0	0	8230	550570	0	0
2024-10-07 22:30:47			0	38350	0	0	0	21599	20170	160948	27007	1054284	46248	107931	0	0	8228	551367	0	0
2024-10-07 22:31:47			0	38337	0	0	0	21594	20160	161000	26871	1054275	46248	107929	0	0	8228	551910	0	0
2024-10-07 22:32:47			0	38329	0	0	0	21599	20160	160940	27289	1054293	46247	107931	0	0	8227	552225	0	0
2024-10-07 22:33:47			0	38336	0	0	0	21586	20160	161028	27050	1054240	46235	107926	0	0	8228	551949	0	0
2024-10-07 22:34:47			0	38327	0	0	0	21586	20150	160968	26955	1054231	46256	107926	0	0	8227	552335	0	0
2024-10-07 22:35:47			0	38349	0	0	0	21592	20160	160924	27265	1054240	46247	107928	0	0	8228	551437	0	0
2024-10-07 22:36:47			0	38344	0	0	0	21589	20160	160996	27310	1054293	46247	107927	0	0	8228	551634	0	0
2024-10-07 22:37:47			0	38368	0	0	0	21586	20160	160852	27130	1054240	46257	107926	0	0	8230	550688	0	0
2024-10-07 22:38:47			0	38362	0	0	0	21589	20160	160916	26805	1054240	46257	107927	0	0	8229	550924	0	0
2024-10-07 22:39:47			0	38365	0	0	0	21592	20170	160972	27111	1054311	46258	107928	0	0	8229	550776	0	0
2024-10-07 22:40:47			0	38346	0	0	0	21592	20160	160944	26967	1054249	46248	107928	0	0	8228	551555	0	0
2024-10-07 22:41:47			0	38341	0	0	0	21584	20160	160888	26819	1054213	46247	107925	0	0	8228	551752	0	0
2024-10-07 22:42:47			0	38330	0	0	0	21584	20160	160992	26908	1054249	46258	107925	0	0	8227	552186	0	0
2024-10-07 22:43:47			0	38333	0	0	0	21586	20160	161028	26918	1054266	46247	107926	0	0	8228	552067	0	0
2024-10-07 22:44:47			0	38328	0	0	0	21589	20150	160952	26908	1054178	46278	107927	0	0	8227	552295	0	0
2024-10-07 22:45:47			0	38335	0	0	0	21586	20160	161044	26854	1054222	46248	107926	0	0	8228	551989	0	0
2024-10-07 22:46:47			0	38341	0	0	0	21594	20160	160972	26927	1054293	46247	107929	0	0	8228	551752	0	0
2024-10-07 22:47:47			0	38339	0	0	0	21594	20160	161008	26989	1054275	46258	107929	0	0	8228	551831	0	0
2024-10-07 22:48:47			0	38333	0	0	0	21584	20170	160960	27112	1054258	46269	107925	0	0	8228	552037	0	0
2024-10-07 22:49:47			0	38333	0	0	0	21586	20160	161048	26733	1054195	46248	107926	0	0	8228	552067	0	0
2024-10-07 22:50:47			0	38325	0	0	0	21581	20150	161000	26790	1054204	46256	107924	0	0	8227	552414	0	0
2024-10-07 22:51:47			0	38336	0	0	0	21581	20160	160912	26925	1054213	46257	107924	0	0	8228	551949	0	0
2024-10-07 22:52:47			0	38341	0	0	0	21584	20160	160904	26852	1054195	46248	107925	0	0	8228	551752	0	0
2024-10-07 22:53:47			0	38329	0	0	0	21586	20150	160960	26876	1054231	46267	107926	0	0	8227	552256	0	0
2024-10-07 22:54:47			0	38316	0	0	0	21594	20150	160936	26868	1054178	46267	107929	0	0	8226	552769	0	0
2024-10-07 22:55:47			0	38318	0	0	0	21584	20150	161052	26941	1054178	46246	107925	0	0	8227	552690	0	0
2024-10-07 22:56:47			0	38309	0	0	0	21584	20160	161020	26986	1054222	46248	107925	0	0	8226	553015	0	0
2024-10-07 22:57:47			0	38294	0	0	0	21586	20150	161068	26878	1054231	46246	107926	0	0	8225	553638	0	0
2024-10-07 22:58:47			0	38304	0	0	0	21581	20160	160988	27001	1054328	46258	107924	0	0	8226	553212	0	0
2024-10-07 22:59:47			0	38301	0	0	0	21589	20160	161016	26981	1054240	46257	107927	0	0	8226	553331	0	0
2024-10-07 23:00:47			0	38294	0	0	0	21592	20160	161128	26713	1054213	46247	107928	0	0	8225	553607	0	0
2024-10-07 23:01:47			0	38294	0	0	0	21594	20160	161220	26956	1054213	46257	107929	0	0	8225	553607	0	0
2024-10-07 23:02:47			0	38289	0	0	0	21586	20160	161196	27190	1054213	46257	107926	0	0	8225	553805	0	0
2024-10-07 23:03:47			0	38277	0	0	0	21586	20150	161260	27255	1054231	46256	107926	0	0	8224	554310	0	0
2024-10-07 23:04:47			0	38274	0	0	0	21586	20160	161220	26927	1054275	46258	107926	0	0	8224	554398	0	0
2024-10-07 23:05:47			0	38264	0	0	0	21579	20160	161144	26712	1054249	46248	107923	0	0	8224	554793	0	0
2024-10-07 23:06:47			0	38266	0	0	0	21581	20150	161256	27034	1054257	46256	107924	0	0	8224	554745	0	0
2024-10-07 23:07:47			0	38271	0	0	0	21581	20150	161268	26899	1054204	46246	107924	0	0	8224	554547	0	0
2024-10-07 23:08:47			0	38260	0	0	0	21576	20150	161276	26989	1054204	46267	107922	0	0	8223	554982	0	0
2024-10-07 23:09:47			0	38265	0	0	0	21586	20150	161280	27069	1054231	46256	107926	0	0	8224	554784	0	0
2024-10-07 23:10:47			0	38243	0	0	0	21586	20160	161340	26897	1054186	46257	107926	0	0	8222	555625	0	0
2024-10-07 23:11:47			0	38256	0	0	0	21581	20160	161244	27144	1054213	46247	107924	0	0	8223	555110	0	0
2024-10-07 23:12:47			0	38267	0	0	0	21579	20150	161372	26937	1054231	46267	107923	0	0	8224	554705	0	0
2024-10-07 23:13:47			0	38262	0	0	0	21581	20150	161332	26993	1054257	46256	107924	0	0	8224	554903	0	0
2024-10-07 23:14:47			0	38241	0	0	0	21579	20150	161356	27147	1054204	46246	107923	0	0	8222	555734	0	0
2024-10-07 23:15:47			0	38255	0	0	0	21573	20150	161440	26852	1054204	46246	107921	0	0	8223	555180	0	0
2024-10-07 23:16:47			0	38228	0	0	0	21576	20150	161416	27138	1054284	46246	107922	0	0	8222	556249	0	0
2024-10-07 23:17:47			0	38251	0	0	0	21579	20150	161384	26838	1054195	46267	107923	0	0	8223	555338	0	0
2024-10-07 23:18:47			0	38227	0	0	0	21568	20150	161428	27020	1054204	46256	107919	0	0	8222	556289	0	0
2024-10-07 23:19:47			0	38232	0	0	0	21566	20150	161376	26875	1054204	46256	107918	0	0	8222	556091	0	0
2024-10-07 23:20:47			0	38215	0	0	0	21573	20160	161556	26944	1054266	46257	107921	0	0	8221	556734	0	0
2024-10-07 23:21:47			0	38225	0	0	0	21576	20150	161400	27104	1054195	46267	107922	0	0	8221	556368	0	0
2024-10-07 23:22:47			0	38214	0	0	0	21581	20140	161484	26873	1054177	46255	107924	0	0	8221	556835	0	0
2024-10-07 23:23:47			0	38229	0	0	0	21573	20150	161512	27052	1054222	46256	107921	0	0	8222	556210	0	0
2024-10-07 23:24:47			0	38236	0	0	0	21573	20140	161544	27225	1054151	46244	107921	0	0	8222	555963	0	0
2024-10-07 23:25:47			0	38233	0	0	0	21571	20150	161448	27107	1054222	46256	107920	0	0	8222	556051	0	0
2024-10-07 23:26:47			0	38238	0	0	0	21573	20150	161428	26887	1054195	46267	107921	0	0	8222	555853	0	0
2024-10-07 23:27:47			0	38242	0	0	0	21576	20140	161488	27039	1054204	46255	107922	0	0	8222	555725	0	0
2024-10-07 23:28:47			0	38227	0	0	0	21576	20150	161524	27124	1054204	46246	107922	0	0	8222	556289	0	0
2024-10-07 23:29:47			0	38213	0	0	0	21571	20140	161536	27228	1054177	46266	107920	0	0	8221	556875	0	0
2024-10-07 23:30:47			0	38200	0	0	0	21568	20120	161584	26856	1054151	46232	107919	0	0	8220	557452	0	0
2024-10-07 23:31:47			0	38196	0	0	0	21573	20150	161512	26856	1054169	46267	107921	0	0	8220	557519	0	0
2024-10-07 23:32:47			0	38197	0	0	0	21576	20130	161496	27196	1054159	46265	107922	0	0	8220	557541	0	0
2024-10-07 23:33:47			0	38213	0	0	0	21573	20140	161636	27090	1054177	46255	107921	0	0	8221	556875	0	0
2024-10-07 23:34:47			0	38209	0	0	0	21576	20140	161580	27039	1054151	46244	107922	0	0	8220	557034	0	0
2024-10-07 23:35:47			0	38208	0	0	0	21576	20140	161616	27222	1054204	46244	107922	0	0	8220	557073	0	0
2024-10-07 23:36:47			0	38202	0	0	0	21571	20150	161600	27303	1054257	46256	107920	0	0	8220	557281	0	0
2024-10-07 23:37:47			0	38179	0	0	0	21571	20130	161688	27154	1054106	46254	107920	0	0	8219	558255	0	0
2024-10-07 23:38:47			0	38182	0	0	0	21573	20140	161652	27154	1054151	46244	107921	0	0	8219	558105	0	0
2024-10-07 23:39:47			0	38172	0	0	0	21576	20150	161660	26854	1054222	46246	107922	0	0	8218	558472	0	0
2024-10-07 23:40:47			0	38181	0	0	0	21571	20150	161608	26989	1054142	46246	107920	0	0	8219	558114	0	0
2024-10-07 23:41:47			0	38185	0	0	0	21576	20140	161660	26889	1054177	46244	107922	0	0	8219	557986	0	0
2024-10-07 23:42:47			0	38188	0	0	0	21576	20140	161668	27197	1054204	46244	107922	0	0	8219	557867	0	0
2024-10-07 23:43:47			0	38194	0	0	0	21579	20130	161616	26975	1054195	46232	107923	0	0	8219	557660	0	0
2024-10-07 23:44:47			0	38205	0	0	0	21573	20140	161524	27086	1054133	46256	107921	0	0	8220	557192	0	0
2024-10-07 23:45:47			0	38197	0	0	0	21581	20150	161624	26902	1054169	46246	107924	0	0	8220	557479	0	0
2024-10-07 23:46:47			0	38189	0	0	0	21581	20140	161588	27001	1054231	46244	107924	0	0	8219	557827	0	0
2024-10-07 23:47:47			0	38189	0	0	0	21576	20130	161648	27267	1054195	46254	107922	0	0	8219	557858	0	0
2024-10-07 23:48:47			0	38175	0	0	0	21576	20130	161620	26771	1054115	46244	107922	0	0	8218	558414	0	0
2024-10-07 23:49:47			0	38180	0	0	0	21581	20140	161708	27020	1054204	46255	107924	0	0	8219	558185	0	0
2024-10-07 23:50:47			0	38196	0	0	0	21571	20140	161644	27121	1054231	46255	107920	0	0	8220	557549	0	0
2024-10-07 23:51:47			0	38177	0	0	0	21571	20140	161644	27305	1054204	46277	107920	0	0	8219	558304	0	0
2024-10-07 23:52:47			0	38171	0	0	0	21568	20130	161744	27039	1054195	46254	107919	0	0	8218	558573	0	0
2024-10-07 23:53:47			0	38180	0	0	0	21568	20150	161704	27026	1054195	46256	107919	0	0	8219	558154	0	0
2024-10-07 23:54:47			0	38157	0	0	0	21568	20150	161640	26896	1054204	46256	107919	0	0	8218	559068	0	0
2024-10-07 23:55:47			0	38168	0	0	0	21573	20140	161796	26975	1054151	46255	107921	0	0	8218	558661	0	0
2024-10-07 23:56:47			0	38151	0	0	0	21573	20140	161748	27128	1054177	46244	107921	0	0	8217	559337	0	0
2024-10-07 23:57:47			0	38156	0	0	0	21568	20150	161736	26899	1054248	46246	107919	0	0	8218	559108	0	0
2024-10-07 23:58:47			0	38158	0	0	0	21579	20130	161796	26785	1054168	46254	107923	0	0	8217	559090	0	0
2024-10-07 23:59:47			0	38140	0	0	0	21581	20140	161792	27031	1054151	46255	107924	0	0	8216	559775	0	0
2024-10-08 00:00:47			0	38135	0	0	0	21573	20130	161836	27147	1054159	46244	107921	0	0	8216	560005	0	0
2024-10-08 00:01:47			0	38159	0	0	0	21573	20150	161864	26986	1054195	46246	107921	0	0	8218	558988	0	0
2024-10-08 00:02:47			0	38123	0	0	0	21573	20130	161804	27130	1054222	46244	107921	0	0	8215	560482	0	0
2024-10-08 00:03:47			0	38142	0	0	0	21581	20150	161784	27190	1054169	46256	107924	0	0	8216	559664	0	0
2024-10-08 00:04:47			0	38143	0	0	0	21581	20140	161864	26726	1054231	46255	107924	0	0	8216	559655	0	0
2024-10-08 00:05:47			0	38146	0	0	0	21571	20150	161820	26844	1054169	46246	107920	0	0	8217	559505	0	0
2024-10-08 00:06:47			0	38140	0	0	0	21576	20140	161780	26932	1054204	46244	107922	0	0	8216	559775	0	0
2024-10-08 00:07:47			0	38133	0	0	0	21579	20140	161720	27249	1054160	46256	107923	0	0	8216	560053	0	0
2024-10-08 00:08:47			0	38149	0	0	0	21573	20150	161780	27078	1054222	46246	107921	0	0	8217	559386	0	0
2024-10-08 00:09:47			0	38131	0	0	0	21576	20150	161700	27093	1054222	46256	107922	0	0	8216	560102	0	0
2024-10-08 00:10:47			0	38140	0	0	0	21581	20140	161836	27206	1054257	46255	107924	0	0	8216	559775	0	0
2024-10-08 00:11:47			0	38142	0	0	0	21579	20140	161696	26972	1054177	46255	107923	0	0	8216	559695	0	0
2024-10-08 00:12:47			0	38135	0	0	0	21576	20140	161812	27242	1054204	46255	107922	0	0	8216	559974	0	0
2024-10-08 00:13:47			0	38131	0	0	0	21573	20150	161748	26804	1054275	46246	107921	0	0	8216	560102	0	0
2024-10-08 00:14:47			0	38131	0	0	0	21584	20140	161788	27109	1054177	46244	107925	0	0	8216	560133	0	0
2024-10-08 00:15:47			0	38148	0	0	0	21581	20140	161756	27149	1054231	46266	107924	0	0	8217	559457	0	0
2024-10-08 00:16:47			0	38119	0	0	0	21581	20150	161748	27152	1054204	46267	107924	0	0	8215	560580	0	0
2024-10-08 00:17:47			0	38126	0	0	0	21568	20140	161740	26847	1054231	46255	107919	0	0	8216	560332	0	0
2024-10-08 00:18:47			0	38119	0	0	0	21571	20140	161860	26889	1054204	46255	107920	0	0	8215	560611	0	0
2024-10-08 00:19:47			0	38091	0	0	0	21579	20130	161832	26892	1054222	46244	107923	0	0	8213	561758	0	0
2024-10-08 00:20:47			0	38106	0	0	0	21576	20150	161888	27305	1054248	46246	107922	0	0	8214	561098	0	0
2024-10-08 00:21:47			0	38101	0	0	0	21576	20150	161912	27197	1054257	46267	107922	0	0	8214	561297	0	0
2024-10-08 00:22:47			0	38100	0	0	0	21584	20150	161944	27041	1054195	46234	107925	0	0	8214	561337	0	0
2024-10-08 00:23:47			0	38117	0	0	0	21576	20150	161876	26939	1054257	46256	107922	0	0	8215	560659	0	0
2024-10-08 00:24:47			0	38095	0	0	0	21581	20150	161932	27019	1054169	46267	107924	0	0	8214	561536	0	0
2024-10-08 00:25:47			0	38085	0	0	0	21581	20130	161944	27445	1054186	46254	107924	0	0	8213	561997	0	0
2024-10-08 00:26:47			0	38085	0	0	0	21586	20150	162020	27119	1054248	46256	107926	0	0	8213	561935	0	0
2024-10-08 00:27:47			0	38076	0	0	0	21586	20150	161988	27367	1054222	46267	107926	0	0	8213	562294	0	0
2024-10-08 00:28:47			0	38112	0	0	0	21586	20140	161936	27024	1054284	46233	107926	0	0	8215	560890	0	0
2024-10-08 00:29:47			0	38120	0	0	0	21589	20150	161988	27267	1054310	46246	107927	0	0	8215	560540	0	0
2024-10-08 00:30:47			0	38097	0	0	0	21584	20150	162032	27086	1054275	46256	107925	0	0	8214	561456	0	0
2024-10-08 00:31:47			0	38120	0	0	0	21589	20150	161876	26996	1054275	46256	107927	0	0	8215	560540	0	0
2024-10-08 00:32:47			0	38122	0	0	0	21592	20150	161864	27220	1054204	46267	107928	0	0	8215	560460	0	0
2024-10-08 00:33:47			0	38100	0	0	0	21589	20140	161908	27138	1054204	46255	107927	0	0	8214	561368	0	0
2024-10-08 00:34:47			0	38105	0	0	0	21584	20150	161924	27128	1054257	46256	107925	0	0	8214	561138	0	0
2024-10-08 00:35:47			0	38119	0	0	0	21597	20160	161948	27079	1054213	46257	107930	0	0	8215	560549	0	0
2024-10-08 00:36:47			0	38114	0	0	0	21594	20150	161892	27222	1054248	46246	107929	0	0	8215	560779	0	0
2024-10-08 00:37:47			0	38127	0	0	0	21597	20150	161916	27081	1054257	46246	107930	0	0	8215	560261	0	0
2024-10-08 00:38:47			0	38123	0	0	0	21586	20150	161956	26923	1054257	46256	107926	0	0	8215	560420	0	0
2024-10-08 00:39:47			0	38116	0	0	0	21589	20150	162032	27178	1054257	46234	107927	0	0	8215	560699	0	0
2024-10-08 00:40:47			0	38122	0	0	0	21599	20150	161980	27289	1054222	46267	107931	0	0	8215	560460	0	0
2024-10-08 00:41:47			0	38117	0	0	0	21594	20150	161868	27137	1054222	46256	107929	0	0	8215	560659	0	0
2024-10-08 00:42:47			0	38112	0	0	0	21592	20150	161876	27229	1054222	46246	107928	0	0	8215	560859	0	0
2024-10-08 00:43:47			0	38099	0	0	0	21597	20160	161888	27157	1054266	46257	107930	0	0	8214	561346	0	0
2024-10-08 00:44:47			0	38126	0	0	0	21586	20150	161848	27353	1054284	46246	107926	0	0	8215	560301	0	0
2024-10-08 00:45:47			0	38111	0	0	0	21599	20160	161996	27230	1054266	46247	107931	0	0	8214	560867	0	0
2024-10-08 00:46:47			0	38108	0	0	0	21599	20150	161844	27211	1054257	46256	107931	0	0	8214	561018	0	0
2024-10-08 00:47:47			0	38125	0	0	0	21597	20160	161944	27279	1054293	46247	107930	0	0	8215	560310	0	0
2024-10-08 00:48:47			0	38131	0	0	0	21581	20160	161856	27334	1054346	46279	107924	0	0	8216	560071	0	0
2024-10-08 00:49:47			0	38128	0	0	0	21589	20160	161728	27222	1054319	46247	107927	0	0	8216	560191	0	0
2024-10-08 00:50:47			0	38110	0	0	0	21586	20150	161820	26904	1054284	46256	107926	0	0	8215	560938	0	0
2024-10-08 00:51:47			0	38129	0	0	0	21594	20160	161820	27270	1054319	46257	107929	0	0	8216	560151	0	0
2024-10-08 00:52:47			0	38120	0	0	0	21589	20160	161836	27133	1054293	46257	107927	0	0	8215	560509	0	0
2024-10-08 00:53:47			0	38118	0	0	0	21594	20160	161864	27121	1054275	46248	107929	0	0	8215	560589	0	0
2024-10-08 00:54:47			0	38124	0	0	0	21605	20160	161800	27275	1054266	46257	107933	0	0	8215	560350	0	0
2024-10-08 00:55:47			0	38113	0	0	0	21594	20160	161860	27265	1054355	46248	107929	0	0	8215	560788	0	0
2024-10-08 00:56:47			0	38120	0	0	0	21605	20160	161872	26870	1054319	46257	107933	0	0	8215	560509	0	0
2024-10-08 00:57:47			0	38126	0	0	0	21597	20170	161788	27045	1054337	46248	107930	0	0	8215	560239	0	0
2024-10-08 00:58:47			0	38152	0	0	0	21599	20170	161760	27329	1054364	46248	107931	0	0	8217	559205	0	0
2024-10-08 00:59:47			0	38142	0	0	0	21605	20170	161776	27209	1054311	46269	107933	0	0	8216	559603	0	0
2024-10-08 01:00:47			0	38140	0	0	0	21607	20160	161756	27208	1054302	46258	107934	0	0	8216	559713	0	0
2024-10-08 01:01:47			0	38147	0	0	0	21615	20160	161796	27166	1054275	46258	107937	0	0	8216	559435	0	0
2024-10-08 01:02:47			0	38151	0	0	0	21615	20180	161736	27036	1054355	46259	107937	0	0	8217	559214	0	0
2024-10-08 01:03:47			0	38164	0	0	0	21623	20170	161648	27090	1054320	46249	107940	0	0	8217	558728	0	0
2024-10-08 01:04:47			0	38183	0	0	0	21605	20170	161632	27213	1054373	46259	107933	0	0	8219	557973	0	0
2024-10-08 01:05:47			0	38166	0	0	0	21612	20180	161664	27402	1054355	46270	107936	0	0	8217	558618	0	0
2024-10-08 01:06:47			0	38184	0	0	0	21610	20170	161688	26798	1054444	46258	107935	0	0	8219	557933	0	0
2024-10-08 01:07:47			0	38174	0	0	0	21607	20170	161648	27232	1054337	46258	107934	0	0	8218	558331	0	0
2024-10-08 01:08:47			0	38152	0	0	0	21605	20170	161580	27015	1054346	46259	107933	0	0	8217	559205	0	0
2024-10-08 01:09:47			0	38169	0	0	0	21612	20170	161584	26866	1054320	46249	107936	0	0	8218	558529	0	0
2024-10-08 01:10:47			0	38172	0	0	0	21612	20170	161704	27263	1054364	46248	107936	0	0	8218	558410	0	0
2024-10-08 01:11:47			0	38165	0	0	0	21610	20170	161652	26904	1054346	46259	107935	0	0	8217	558688	0	0
2024-10-08 01:12:47			0	38175	0	0	0	21607	20170	161604	27090	1054337	46258	107934	0	0	8218	558291	0	0
2024-10-08 01:13:47			0	38164	0	0	0	21605	20170	161616	26833	1054364	46280	107933	0	0	8217	558728	0	0
2024-10-08 01:14:47			0	38171	0	0	0	21605	20180	161744	26935	1054329	46259	107933	0	0	8218	558419	0	0
2024-10-08 01:15:47			0	38163	0	0	0	21597	20170	161660	27296	1054284	46248	107930	0	0	8218	558768	0	0
2024-10-08 01:16:47			0	38150	0	0	0	21597	20180	161684	27133	1054355	46237	107930	0	0	8217	559253	0	0
2024-10-08 01:17:47			0	38159	0	0	0	21599	20180	161716	27003	1054337	46250	107931	0	0	8217	558896	0	0
2024-10-08 01:18:47			0	38153	0	0	0	21594	20170	161712	27112	1054337	46258	107929	0	0	8217	559165	0	0
2024-10-08 01:19:47			0	38144	0	0	0	21586	20180	161736	27043	1054329	46249	107926	0	0	8217	559492	0	0
2024-10-08 01:20:47			0	38152	0	0	0	21597	20170	161720	26859	1054426	46259	107930	0	0	8217	559205	0	0
2024-10-08 01:21:47			0	38135	0	0	0	21607	20160	161700	26958	1054302	46248	107934	0	0	8216	559912	0	0
2024-10-08 01:22:47			0	38130	0	0	0	21605	20170	161704	27142	1054364	46258	107933	0	0	8215	560080	0	0
2024-10-08 01:23:47			0	38149	0	0	0	21599	20160	161764	27069	1054328	46248	107931	0	0	8217	559355	0	0
2024-10-08 01:24:47			0	38139	0	0	0	21602	20170	161756	27062	1054346	46259	107932	0	0	8216	559722	0	0
2024-10-08 01:25:47			0	38157	0	0	0	21597	20170	161800	27001	1054320	46249	107930	0	0	8217	559006	0	0
2024-10-08 01:26:47			0	38152	0	0	0	21597	20160	161772	27102	1054266	46247	107930	0	0	8217	559236	0	0
2024-10-08 01:27:47			0	38147	0	0	0	21589	20170	161720	27166	1054337	46258	107927	0	0	8217	559404	0	0
2024-10-08 01:28:47			0	38137	0	0	0	21586	20170	161776	27008	1054320	46249	107926	0	0	8216	559801	0	0
2024-10-08 01:29:47			0	38144	0	0	0	21589	20160	161764	27291	1054302	46248	107927	0	0	8217	559554	0	0
2024-10-08 01:30:47			0	38150	0	0	0	21594	20160	161664	27041	1054302	46248	107929	0	0	8217	559315	0	0
2024-10-08 01:31:47			0	38151	0	0	0	21597	20160	161712	27069	1054346	46247	107930	0	0	8217	559275	0	0
2024-10-08 01:32:47			0	38148	0	0	0	21589	20160	161760	26797	1054302	46258	107927	0	0	8217	559395	0	0
2024-10-08 01:33:47			0	38132	0	0	0	21594	20160	161724	27135	1054319	46257	107929	0	0	8216	560031	0	0
2024-10-08 01:34:47			0	38115	0	0	0	21579	20160	161776	27026	1054293	46247	107923	0	0	8215	560708	0	0
2024-10-08 01:35:47			0	38129	0	0	0	21584	20160	161832	27027	1054319	46247	107925	0	0	8216	560151	0	0
2024-10-08 01:36:47			0	38106	0	0	0	21589	20160	161860	26809	1054266	46257	107927	0	0	8214	561067	0	0
2024-10-08 01:37:47			0	38147	0	0	0	21594	20160	161748	27027	1054302	46258	107929	0	0	8217	559435	0	0
2024-10-08 01:38:47			0	38128	0	0	0	21592	20150	161748	26885	1054257	46246	107928	0	0	8215	560221	0	0
2024-10-08 01:39:47			0	38138	0	0	0	21589	20160	161780	27078	1054275	46248	107927	0	0	8216	559793	0	0
2024-10-08 01:40:47			0	38114	0	0	0	21584	20160	161844	27352	1054319	46247	107925	0	0	8215	560748	0	0
2024-10-08 01:41:47			0	38091	0	0	0	21579	20160	161884	27064	1054249	46248	107923	0	0	8214	561665	0	0
2024-10-08 01:42:47			0	38094	0	0	0	21581	20150	161980	26817	1054231	46246	107924	0	0	8214	561576	0	0
2024-10-08 01:43:47			0	38093	0	0	0	21584	20160	162052	27012	1054319	46247	107925	0	0	8214	561585	0	0
2024-10-08 01:44:47			0	38093	0	0	0	21579	20150	161956	27111	1054284	46246	107923	0	0	8214	561616	0	0
2024-10-08 01:45:47			0	38099	0	0	0	21584	20150	162028	26979	1054284	46234	107925	0	0	8214	561377	0	0
2024-10-08 01:46:47			0	38072	0	0	0	21584	20150	162112	26906	1054257	46256	107925	0	0	8212	562454	0	0
2024-10-08 01:47:47			0	38066	0	0	0	21579	20150	162052	26868	1054248	46246	107923	0	0	8212	562693	0	0
2024-10-08 01:48:47			0	38055	0	0	0	21581	20150	162028	27246	1054222	46246	107924	0	0	8211	563132	0	0
2024-10-08 01:49:47			0	38086	0	0	0	21581	20140	161964	26977	1054231	46255	107924	0	0	8213	561926	0	0
2024-10-08 01:50:47			0	38093	0	0	0	21573	20160	162056	26953	1054240	46247	107921	0	0	8214	561585	0	0
2024-10-08 01:51:47			0	38095	0	0	0	21573	20150	161992	27255	1054231	46246	107921	0	0	8214	561536	0	0
2024-10-08 01:52:47			0	38078	0	0	0	21581	20160	161988	27001	1054266	46235	107924	0	0	8213	562183	0	0
2024-10-08 01:53:47			0	38088	0	0	0	21576	20150	161980	26942	1054231	46246	107922	0	0	8213	561815	0	0
2024-10-08 01:54:47			0	38089	0	0	0	21568	20140	161968	27093	1054204	46255	107919	0	0	8214	561806	0	0
2024-10-08 01:55:47			0	38085	0	0	0	21573	20140	161984	26875	1054213	46246	107921	0	0	8213	561966	0	0
2024-10-08 01:56:47			0	38062	0	0	0	21561	20150	162104	27078	1054257	46246	107916	0	0	8212	562853	0	0
2024-10-08 01:57:47			0	38074	0	0	0	21573	20150	161956	27267	1054248	46267	107921	0	0	8213	562374	0	0
2024-10-08 01:58:47			0	38066	0	0	0	21573	20160	161892	27076	1054240	46247	107921	0	0	8212	562662	0	0
2024-10-08 01:59:47			0	38097	0	0	0	21579	20150	162000	27149	1054231	46256	107923	0	0	8214	561456	0	0
2024-10-08 02:00:47			0	38100	0	0	0	21579	20160	162044	27112	1054186	46268	107923	0	0	8214	561306	0	0
2024-10-08 02:01:47			0	38118	0	0	0	21581	20150	161912	27060	1054222	46234	107924	0	0	8215	560620	0	0
2024-10-08 02:02:47			0	38127	0	0	0	21581	20150	161916	27098	1054231	46246	107924	0	0	8216	560261	0	0
2024-10-08 02:03:47			0	38139	0	0	0	21584	20150	161780	26975	1054302	46256	107925	0	0	8216	559784	0	0
2024-10-08 02:04:47			0	38115	0	0	0	21581	20150	161844	27090	1054195	46256	107924	0	0	8215	560739	0	0
2024-10-08 02:05:47			0	38129	0	0	0	21579	20150	161704	27017	1054204	46234	107923	0	0	8216	560182	0	0
2024-10-08 02:06:47			0	38153	0	0	0	21592	20130	161572	27194	1054222	46244	107928	0	0	8217	559288	0	0
2024-10-08 02:07:47			0	38183	0	0	0	21581	20140	161572	27159	1054204	46244	107924	0	0	8219	558066	0	0
2024-10-08 02:08:47			0	38167	0	0	0	21584	20150	161496	26939	1054231	46246	107925	0	0	8218	558670	0	0
2024-10-08 02:09:47			0	38190	0	0	0	21586	20150	161408	26804	1054310	46267	107926	0	0	8219	557757	0	0
2024-10-08 02:10:47			0	38209	0	0	0	21586	20150	161472	26951	1054231	46256	107926	0	0	8220	557003	0	0
2024-10-08 02:11:47			0	38205	0	0	0	21592	20150	161540	26977	1054337	46256	107928	0	0	8220	557161	0	0
2024-10-08 02:12:47			0	38217	0	0	0	21592	20150	161468	26946	1054231	46256	107928	0	0	8221	556686	0	0
2024-10-08 02:13:47			0	38211	0	0	0	21597	20160	161408	27017	1054222	46258	107930	0	0	8220	556893	0	0
2024-10-08 02:14:47			0	38200	0	0	0	21581	20150	161388	26913	1054284	46278	107924	0	0	8220	557360	0	0
2024-10-08 02:15:47			0	38204	0	0	0	21576	20150	161528	27258	1054248	46267	107922	0	0	8220	557201	0	0
2024-10-08 02:16:47			0	38212	0	0	0	21576	20150	161544	26890	1054337	46246	107922	0	0	8221	556884	0	0
2024-10-08 02:17:47			0	38216	0	0	0	21584	20150	161436	27119	1054257	46256	107925	0	0	8221	556725	0	0
2024-10-08 02:18:47			0	38225	0	0	0	21589	20160	161396	26805	1054293	46268	107927	0	0	8221	556338	0	0
2024-10-08 02:19:47			0	38212	0	0	0	21586	20150	161488	26984	1054275	46246	107926	0	0	8220	556884	0	0
2024-10-08 02:20:47			0	38229	0	0	0	21589	20150	161520	26922	1054337	46256	107927	0	0	8221	556210	0	0
2024-10-08 02:21:47			0	38200	0	0	0	21586	20150	161528	26991	1054310	46256	107926	0	0	8220	557360	0	0
2024-10-08 02:22:47			0	38194	0	0	0	21592	20160	161552	27126	1054293	46268	107928	0	0	8219	557567	0	0
2024-10-08 02:23:47			0	38209	0	0	0	21592	20150	161444	26864	1054275	46246	107928	0	0	8220	557003	0	0
2024-10-08 02:24:47			0	38193	0	0	0	21592	20140	161480	27322	1054284	46255	107928	0	0	8219	557668	0	0
2024-10-08 02:25:47			0	38187	0	0	0	21597	20150	161528	27211	1054231	46246	107930	0	0	8219	557876	0	0
2024-10-08 02:26:47			0	38202	0	0	0	21584	20160	161492	27135	1054266	46257	107925	0	0	8220	557250	0	0
2024-10-08 02:27:47			0	38176	0	0	0	21589	20160	161508	26974	1054240	46257	107927	0	0	8218	558282	0	0
2024-10-08 02:28:47			0	38162	0	0	0	21594	20150	161544	27008	1054231	46256	107929	0	0	8217	558869	0	0
2024-10-08 02:29:47			0	38164	0	0	0	21589	20160	161604	27026	1054240	46257	107927	0	0	8218	558759	0	0
2024-10-08 02:30:47			0	38149	0	0	0	21586	20150	161672	27182	1054231	46267	107926	0	0	8217	559386	0	0
2024-10-08 02:31:47			0	38155	0	0	0	21581	20150	161696	26856	1054248	46246	107924	0	0	8217	559147	0	0
2024-10-08 02:32:47			0	38155	0	0	0	21594	20150	161860	27140	1054275	46256	107929	0	0	8217	559147	0	0
2024-10-08 02:33:47			0	38139	0	0	0	21589	20160	161720	27111	1054328	46269	107927	0	0	8216	559753	0	0
2024-10-08 02:34:47			0	38130	0	0	0	21586	20160	161716	26889	1054213	46247	107926	0	0	8216	560111	0	0
2024-10-08 02:35:47			0	38151	0	0	0	21576	20160	161792	27105	1054302	46258	107922	0	0	8217	559275	0	0
2024-10-08 02:36:47			0	38119	0	0	0	21584	20150	161736	26984	1054284	46246	107925	0	0	8215	560580	0	0
2024-10-08 02:37:47			0	38119	0	0	0	21586	20150	161752	27036	1054284	46256	107926	0	0	8215	560580	0	0
2024-10-08 02:38:47			0	38128	0	0	0	21581	20160	161712	27171	1054293	46257	107924	0	0	8216	560191	0	0
2024-10-08 02:39:47			0	38130	0	0	0	21586	20160	161800	26986	1054240	46247	107926	0	0	8216	560111	0	0
2024-10-08 02:40:47			0	38130	0	0	0	21584	20150	161824	27227	1054275	46256	107925	0	0	8216	560142	0	0
2024-10-08 02:41:47			0	38121	0	0	0	21573	20140	161888	27001	1054257	46255	107921	0	0	8215	560531	0	0
2024-10-08 02:42:47			0	38117	0	0	0	21586	20150	161880	27142	1054231	46267	107926	0	0	8215	560659	0	0
2024-10-08 02:43:47			0	38092	0	0	0	21568	20150	161928	27208	1054257	46246	107919	0	0	8214	561656	0	0
2024-10-08 02:44:47			0	38102	0	0	0	21576	20150	161908	26915	1054275	46256	107922	0	0	8214	561257	0	0
2024-10-08 02:45:47			0	38079	0	0	0	21576	20130	161892	27201	1054222	46244	107922	0	0	8213	562236	0	0
2024-10-08 02:46:47			0	38096	0	0	0	21576	20150	161944	26970	1054284	46246	107922	0	0	8214	561496	0	0
2024-10-08 02:47:47			0	38074	0	0	0	21584	20150	161896	26682	1054248	46246	107925	0	0	8212	562374	0	0
2024-10-08 02:48:47			0	38067	0	0	0	21579	20130	162072	26746	1054248	46254	107923	0	0	8212	562715	0	0
2024-10-08 02:49:47			0	38069	0	0	0	21576	20150	162008	27268	1054231	46256	107922	0	0	8212	562573	0	0
2024-10-08 02:50:47			0	38070	0	0	0	21566	20140	162040	27223	1054293	46256	107918	0	0	8212	562564	0	0
2024-10-08 02:51:47			0	38062	0	0	0	21579	20150	162004	27098	1054248	46256	107923	0	0	8212	562853	0	0
2024-10-08 02:52:47			0	38064	0	0	0	21568	20150	162132	27282	1054284	46256	107919	0	0	8212	562773	0	0
2024-10-08 02:53:47			0	38053	0	0	0	21573	20140	162136	26889	1054177	46255	107921	0	0	8211	563243	0	0
2024-10-08 02:54:47			0	38041	0	0	0	21566	20130	162108	27289	1054168	46254	107918	0	0	8211	563754	0	0
2024-10-08 02:55:47			0	38038	0	0	0	21566	20140	162248	27036	1054177	46255	107918	0	0	8211	563842	0	0
2024-10-08 02:56:47			0	38024	0	0	0	21568	20130	162211	26817	1054186	46254	107919	0	0	8210	564433	0	0
2024-10-08 02:57:47			0	38016	0	0	0	21573	20140	162207	26890	1054231	46244	107921	0	0	8209	564722	0	0
2024-10-08 02:58:47			0	38026	0	0	0	21568	20140	162235	26805	1054204	46244	107919	0	0	8210	564322	0	0
2024-10-08 02:59:47			0	38025	0	0	0	21571	20130	162347	27086	1054168	46265	107920	0	0	8210	564393	0	0
2024-10-08 03:00:47			0	38034	0	0	0	21566	20130	162172	27303	1054168	46254	107918	0	0	8210	564033	0	0
2024-10-08 03:01:47			0	38037	0	0	0	21563	20140	162208	27109	1054177	46255	107917	0	0	8211	563882	0	0
2024-10-08 03:02:47			0	38017	0	0	0	21563	20130	162287	27095	1054186	46244	107917	0	0	8209	564713	0	0
2024-10-08 03:03:47			0	38003	0	0	0	21568	20130	162259	26993	1054168	46244	107919	0	0	8208	565274	0	0
2024-10-08 03:04:47			0	38005	0	0	0	21563	20130	162299	27086	1054195	46254	107917	0	0	8209	565194	0	0
2024-10-08 03:05:47			0	38005	0	0	0	21568	20140	162235	27069	1054204	46244	107919	0	0	8209	565162	0	0
2024-10-08 03:06:47			0	38016	0	0	0	21573	20130	162231	27163	1054195	46244	107921	0	0	8209	564753	0	0
2024-10-08 03:07:47			0	38011	0	0	0	21563	20130	162343	26871	1054195	46254	107917	0	0	8209	564953	0	0
2024-10-08 03:08:47			0	38021	0	0	0	21566	20150	162319	27100	1054248	46256	107918	0	0	8210	564491	0	0
2024-10-08 03:09:47			0	38011	0	0	0	21563	20140	162311	26972	1054151	46244	107917	0	0	8209	564922	0	0
2024-10-08 03:10:47			0	38024	0	0	0	21563	20130	162311	27020	1054195	46254	107917	0	0	8210	564433	0	0
2024-10-08 03:11:47			0	38022	0	0	0	21566	20130	162203	27076	1054213	46244	107918	0	0	8210	564513	0	0
2024-10-08 03:12:47			0	37996	0	0	0	21566	20130	162259	27157	1054248	46244	107918	0	0	8208	565554	0	0
2024-10-08 03:13:47			0	37999	0	0	0	21568	20130	162239	26790	1054159	46244	107919	0	0	8208	565434	0	0
2024-10-08 03:14:47			0	38036	0	0	0	21558	20130	162144	26861	1054248	46254	107915	0	0	8211	563953	0	0
2024-10-08 03:15:47			0	38030	0	0	0	21558	20130	162320	26941	1054186	46254	107915	0	0	8210	564193	0	0
2024-10-08 03:16:47			0	38021	0	0	0	21566	20120	162227	27225	1054177	46232	107918	0	0	8209	564584	0	0
2024-10-08 03:17:47			0	38024	0	0	0	21558	20130	162255	26833	1054195	46265	107915	0	0	8210	564433	0	0
2024-10-08 03:18:47			0	38032	0	0	0	21548	20130	162280	27050	1054159	46232	107911	0	0	8210	564113	0	0
2024-10-08 03:19:47			0	38015	0	0	0	21563	20130	162211	27064	1054186	46265	107917	0	0	8209	564793	0	0
2024-10-08 03:20:47			0	38014	0	0	0	21558	20130	162275	27072	1054159	46254	107915	0	0	8209	564833	0	0
2024-10-08 03:21:47			0	38009	0	0	0	21548	20130	162235	27111	1054186	46254	107911	0	0	8209	565033	0	0
2024-10-08 03:22:47			0	38020	0	0	0	21550	20120	162223	27005	1054151	46254	107912	0	0	8210	564624	0	0
2024-10-08 03:23:47			0	38012	0	0	0	21553	20130	162267	26960	1054133	46254	107913	0	0	8209	564913	0	0
2024-10-08 03:24:47			0	38008	0	0	0	21555	20130	162343	27111	1054106	46232	107914	0	0	8209	565074	0	0
2024-10-08 03:25:47			0	38012	0	0	0	21545	20120	162355	26835	1054151	46254	107910	0	0	8209	564944	0	0
2024-10-08 03:26:47			0	38005	0	0	0	21558	20120	162243	26928	1054115	46243	107915	0	0	8209	565225	0	0
2024-10-08 03:27:47			0	38004	0	0	0	21555	20120	162375	27182	1054097	46265	107914	0	0	8209	565265	0	0
2024-10-08 03:28:47			0	37992	0	0	0	21550	20120	162387	27124	1054168	46253	107912	0	0	8208	565745	0	0
2024-10-08 03:29:47			0	37987	0	0	0	21553	20120	162399	27107	1054097	46244	107913	0	0	8208	565946	0	0
2024-10-08 03:30:47			0	38006	0	0	0	21540	20110	162415	27313	1054106	46263	107908	0	0	8209	565216	0	0
2024-10-08 03:31:47			0	37990	0	0	0	21550	20120	162303	26889	1054151	46244	107912	0	0	8208	565825	0	0
2024-10-08 03:32:47			0	37995	0	0	0	21545	20120	162391	27050	1054115	46253	107910	0	0	8208	565625	0	0
2024-10-08 03:33:47			0	38008	0	0	0	21537	20110	162347	26963	1054080	46252	107907	0	0	8209	565136	0	0
2024-10-08 03:34:47			0	37986	0	0	0	21545	20120	162355	26981	1054115	46231	107910	0	0	8208	565986	0	0
2024-10-08 03:35:47			0	37987	0	0	0	21542	20110	162379	26826	1054097	46252	107909	0	0	8208	565977	0	0
2024-10-08 03:36:47			0	38005	0	0	0	21548	20110	162423	27076	1054106	46252	107911	0	0	8209	565256	0	0
2024-10-08 03:37:47			0	38010	0	0	0	21540	20110	162275	26830	1054097	46242	107908	0	0	8209	565056	0	0
2024-10-08 03:38:47			0	37999	0	0	0	21548	20110	162407	26956	1054026	46252	107911	0	0	8208	565496	0	0
2024-10-08 03:39:47			0	38003	0	0	0	21542	20110	162399	26849	1054071	46252	107909	0	0	8209	565336	0	0
2024-10-08 03:40:47			0	38007	0	0	0	21532	20110	162327	27159	1054097	46263	107905	0	0	8209	565176	0	0
2024-10-08 03:41:47			0	38010	0	0	0	21545	20110	162303	27145	1054053	46252	107910	0	0	8209	565056	0	0
2024-10-08 03:42:47			0	37996	0	0	0	21553	20120	162375	26765	1054062	46243	107913	0	0	8208	565585	0	0
2024-10-08 03:43:47			0	38001	0	0	0	21540	20110	162391	26802	1054124	46252	107908	0	0	8209	565416	0	0
2024-10-08 03:44:47			0	37985	0	0	0	21550	20120	162343	27270	1054088	46243	107912	0	0	8208	566026	0	0
2024-10-08 03:45:47			0	37990	0	0	0	21548	20120	162443	27123	1054142	46243	107911	0	0	8208	565825	0	0
2024-10-08 03:46:47			0	38001	0	0	0	21545	20110	162483	26845	1054097	46242	107910	0	0	8209	565416	0	0
2024-10-08 03:47:47			0	37988	0	0	0	21545	20110	162391	27242	1054106	46242	107910	0	0	8208	565937	0	0
2024-10-08 03:48:47			0	37987	0	0	0	21545	20120	162347	26942	1054168	46243	107910	0	0	8208	565946	0	0
2024-10-08 03:49:47			0	38000	0	0	0	21545	20110	162339	27138	1054133	46252	107910	0	0	8209	565456	0	0
2024-10-08 03:50:47			0	38000	0	0	0	21545	20110	162443	27222	1054133	46263	107910	0	0	8209	565456	0	0
2024-10-08 03:51:47			0	37988	0	0	0	21545	20110	162463	27144	1054097	46252	107910	0	0	8208	565937	0	0
2024-10-08 03:52:47			0	37979	0	0	0	21550	20110	162375	27086	1054071	46242	107912	0	0	8207	566297	0	0
2024-10-08 03:53:47			0	37983	0	0	0	21540	20110	162475	27152	1054044	46242	107908	0	0	8208	566137	0	0
2024-10-08 03:54:47			0	38009	0	0	0	21545	20110	162351	27017	1054133	46242	107910	0	0	8209	565096	0	0
2024-10-08 03:55:47			0	37988	0	0	0	21542	20120	162391	27185	1054142	46243	107909	0	0	8208	565906	0	0
2024-10-08 03:56:47			0	37987	0	0	0	21550	20120	162367	26998	1054088	46243	107912	0	0	8208	565946	0	0
2024-10-08 03:57:47			0	37986	0	0	0	21548	20110	162423	27121	1054124	46252	107911	0	0	8208	566017	0	0
2024-10-08 03:58:47			0	37980	0	0	0	21537	20110	162415	27001	1054071	46252	107907	0	0	8208	566257	0	0
2024-10-08 03:59:47			0	37995	0	0	0	21540	20120	162451	26930	1054088	46253	107908	0	0	8208	565625	0	0
2024-10-08 04:00:47			0	37972	0	0	0	21545	20110	162467	26837	1054097	46252	107910	0	0	8207	566578	0	0
2024-10-08 04:01:47			0	37987	0	0	0	21545	20100	162343	27204	1054062	46251	107910	0	0	8208	566008	0	0
2024-10-08 04:02:47			0	37991	0	0	0	21542	20120	162335	27209	1054115	46253	107909	0	0	8208	565785	0	0
2024-10-08 04:03:47			0	37993	0	0	0	21550	20110	162467	27109	1054080	46252	107912	0	0	8208	565736	0	0
2024-10-08 04:04:47			0	38002	0	0	0	21542	20110	162343	27305	1054071	46252	107909	0	0	8209	565376	0	0
2024-10-08 04:05:47			0	37988	0	0	0	21548	20100	162463	27296	1054088	46240	107911	0	0	8208	565968	0	0
2024-10-08 04:06:47			0	37986	0	0	0	21540	20110	162415	27072	1054097	46252	107908	0	0	8208	566017	0	0
2024-10-08 04:07:47			0	37980	0	0	0	21545	20100	162415	27107	1054062	46229	107910	0	0	8207	566289	0	0
2024-10-08 04:08:47			0	38003	0	0	0	21540	20110	162331	27043	1054106	46242	107908	0	0	8209	565336	0	0
2024-10-08 04:09:47			0	37973	0	0	0	21537	20110	162363	27138	1054097	46242	107907	0	0	8207	566538	0	0
2024-10-08 04:10:47			0	37989	0	0	0	21542	20110	162327	27100	1054053	46242	107909	0	0	8208	565897	0	0
2024-10-08 04:11:47			0	37996	0	0	0	21550	20110	162439	27422	1054044	46252	107912	0	0	8208	565616	0	0
2024-10-08 04:12:47			0	37997	0	0	0	21548	20110	162379	27286	1054150	46263	107911	0	0	8208	565576	0	0
2024-10-08 04:13:47			0	38000	0	0	0	21537	20100	162375	26913	1054088	46251	107907	0	0	8209	565487	0	0
2024-10-08 04:14:47			0	37986	0	0	0	21545	20110	162491	26864	1054071	46263	107910	0	0	8208	566017	0	0
2024-10-08 04:15:47			0	38002	0	0	0	21535	20100	162431	26974	1054035	46251	107906	0	0	8209	565407	0	0
2024-10-08 04:16:47			0	37993	0	0	0	21542	20110	162395	26948	1054080	46252	107909	0	0	8208	565736	0	0
2024-10-08 04:17:47			0	38021	0	0	0	21542	20110	162399	27119	1054044	46252	107909	0	0	8210	564616	0	0
2024-10-08 04:18:47			0	38013	0	0	0	21537	20100	162371	27157	1054062	46229	107907	0	0	8209	564967	0	0
2024-10-08 04:19:47			0	38005	0	0	0	21545	20110	162411	27253	1054080	46242	107910	0	0	8209	565256	0	0
2024-10-08 04:20:47			0	38006	0	0	0	21545	20100	162451	27112	1054062	46240	107910	0	0	8209	565247	0	0
2024-10-08 04:21:47			0	38011	0	0	0	21540	20110	162343	26930	1054080	46242	107908	0	0	8209	565016	0	0
2024-10-08 04:22:47			0	38022	0	0	0	21548	20110	162356	27031	1054097	46242	107911	0	0	8210	564576	0	0
2024-10-08 04:23:47			0	37987	0	0	0	21540	20110	162347	27074	1054106	46242	107908	0	0	8208	565977	0	0
2024-10-08 04:24:47			0	37995	0	0	0	21535	20100	162331	27098	1054115	46240	107906	0	0	8208	565688	0	0
2024-10-08 04:25:47			0	37991	0	0	0	21540	20110	162355	27348	1054044	46242	107908	0	0	8208	565816	0	0
2024-10-08 04:26:47			0	37983	0	0	0	21535	20110	162295	27118	1054071	46242	107906	0	0	8208	566137	0	0
2024-10-08 04:27:47			0	37984	0	0	0	21535	20110	162367	27088	1054026	46252	107906	0	0	8208	566097	0	0
2024-10-08 04:28:47			0	37993	0	0	0	21540	20110	162379	27078	1054097	46252	107908	0	0	8208	565736	0	0
2024-10-08 04:29:47			0	37986	0	0	0	21532	20110	162343	27118	1054097	46242	107905	0	0	8208	566017	0	0
2024-10-08 04:30:47			0	38015	0	0	0	21537	20110	162328	26833	1054097	46242	107907	0	0	8210	564856	0	0
2024-10-08 04:31:47			0	37995	0	0	0	21529	20100	162419	26922	1054026	46240	107904	0	0	8208	565688	0	0
2024-10-08 04:32:47			0	38005	0	0	0	21537	20110	162451	27185	1054071	46252	107907	0	0	8209	565256	0	0
2024-10-08 04:33:47			0	38014	0	0	0	21542	20110	162335	27293	1054071	46252	107909	0	0	8209	564896	0	0
2024-10-08 04:34:47			0	38014	0	0	0	21537	20100	162427	27204	1054088	46251	107907	0	0	8209	564927	0	0
2024-10-08 04:35:47			0	38035	0	0	0	21545	20100	162364	26925	1054062	46240	107910	0	0	8211	564087	0	0
2024-10-08 04:36:47			0	38030	0	0	0	21529	20100	162416	26993	1054141	46251	107904	0	0	8211	564287	0	0
2024-10-08 04:37:47			0	38013	0	0	0	21535	20100	162443	26885	1054088	46251	107906	0	0	8209	564967	0	0
2024-10-08 04:38:47			0	38016	0	0	0	21542	20110	162415	26767	1054097	46230	107909	0	0	8210	564816	0	0
2024-10-08 04:39:47			0	38035	0	0	0	21540	20110	162308	26687	1054071	46252	107908	0	0	8211	564056	0	0
2024-10-08 04:40:47			0	38036	0	0	0	21535	20100	162300	26765	1054115	46240	107906	0	0	8211	564047	0	0
2024-10-08 04:41:47			0	38027	0	0	0	21540	20110	162335	27060	1054053	46252	107908	0	0	8210	564376	0	0
2024-10-08 04:42:47			0	38041	0	0	0	21540	20100	162312	27038	1054053	46262	107908	0	0	8211	563847	0	0
2024-10-08 04:43:47			0	38031	0	0	0	21537	20100	162252	26901	1053982	46240	107907	0	0	8210	564247	0	0
2024-10-08 04:44:47			0	38047	0	0	0	21535	20100	162256	27256	1054079	46229	107906	0	0	8211	563607	0	0
2024-10-08 04:45:47			0	38063	0	0	0	21535	20100	162280	27119	1054026	46240	107906	0	0	8212	562968	0	0
2024-10-08 04:46:47			0	38053	0	0	0	21532	20100	162248	27234	1054053	46240	107905	0	0	8212	563367	0	0
2024-10-08 04:47:47			0	38044	0	0	0	21542	20100	162192	26932	1054053	46251	107909	0	0	8211	563727	0	0
2024-10-08 04:48:47			0	38038	0	0	0	21537	20100	162276	26902	1054115	46251	107907	0	0	8211	563967	0	0
2024-10-08 04:49:47			0	38055	0	0	0	21529	20120	162236	27152	1054115	46253	107904	0	0	8212	563225	0	0
2024-10-08 04:50:47			0	38042	0	0	0	21537	20090	162240	27182	1054070	46261	107907	0	0	8211	563838	0	0
2024-10-08 04:51:47			0	38028	0	0	0	21532	20090	162319	26821	1054044	46250	107905	0	0	8210	564398	0	0
2024-10-08 04:52:47			0	38020	0	0	0	21527	20100	162255	27026	1054062	46229	107903	0	0	8210	564687	0	0
2024-10-08 04:53:47			0	38018	0	0	0	21532	20100	162300	26828	1054115	46262	107905	0	0	8210	564767	0	0
2024-10-08 04:54:47			0	38028	0	0	0	21548	20100	162260	26852	1054115	46240	107911	0	0	8210	564367	0	0
2024-10-08 04:55:47			0	38025	0	0	0	21529	20090	162267	27100	1054017	46239	107904	0	0	8210	564518	0	0
2024-10-08 04:56:47			0	38024	0	0	0	21529	20110	162328	27255	1054071	46252	107904	0	0	8210	564496	0	0
2024-10-08 04:57:47			0	38024	0	0	0	21529	20100	162315	27187	1054026	46240	107904	0	0	8210	564527	0	0
2024-10-08 04:58:47			0	38043	0	0	0	21529	20100	162396	27227	1054115	46240	107904	0	0	8211	563767	0	0
2024-10-08 04:59:47			0	38023	0	0	0	21529	20100	162192	26928	1054000	46240	107904	0	0	8210	564567	0	0
2024-10-08 05:00:47			0	38029	0	0	0	21527	20100	162312	27334	1054026	46251	107903	0	0	8211	564327	0	0
2024-10-08 05:01:47			0	38019	0	0	0	21522	20100	162391	26909	1054000	46240	107901	0	0	8210	564727	0	0
2024-10-08 05:02:47			0	38029	0	0	0	21532	20100	162363	27187	1054053	46262	107905	0	0	8210	564327	0	0
2024-10-08 05:03:47			0	38024	0	0	0	21527	20090	162379	26934	1054070	46250	107903	0	0	8210	564558	0	0
2024-10-08 05:04:47			0	38009	0	0	0	21524	20100	162303	27036	1054088	46240	107902	0	0	8209	565127	0	0
2024-10-08 05:05:47			0	38029	0	0	0	21529	20100	162432	27244	1054053	46262	107904	0	0	8210	564327	0	0
2024-10-08 05:06:47			0	38026	0	0	0	21527	20090	162352	26835	1054061	46250	107903	0	0	8210	564478	0	0
2024-10-08 05:07:47			0	38045	0	0	0	21537	20100	162436	26873	1054088	46251	107907	0	0	8211	563687	0	0
2024-10-08 05:08:47			0	38045	0	0	0	21532	20090	162292	27019	1054017	46250	107905	0	0	8211	563718	0	0
2024-10-08 05:09:47			0	38060	0	0	0	21540	20100	162360	27291	1054000	46251	107908	0	0	8212	563088	0	0
2024-10-08 05:10:47			0	38049	0	0	0	21537	20090	162220	27263	1054044	46250	107907	0	0	8211	563558	0	0
2024-10-08 05:11:47			0	38055	0	0	0	21532	20100	162224	27043	1054026	46240	107905	0	0	8212	563287	0	0
2024-10-08 05:12:47			0	38043	0	0	0	21535	20110	162284	27227	1054097	46242	107906	0	0	8211	563736	0	0
2024-10-08 05:13:47			0	38032	0	0	0	21524	20100	162312	26934	1054053	46251	107902	0	0	8211	564207	0	0
2024-10-08 05:14:47			0	38007	0	0	0	21527	20100	162443	27242	1054053	46240	107903	0	0	8209	565207	0	0
2024-10-08 05:15:47			0	37988	0	0	0	21519	20100	162471	27046	1054000	46240	107900	0	0	8208	565968	0	0
2024-10-08 05:16:47			0	37983	0	0	0	21519	20100	162523	27005	1054035	46240	107900	0	0	8208	566168	0	0
2024-10-08 05:17:47			0	37975	0	0	0	21529	20100	162683	27187	1054026	46240	107904	0	0	8207	566489	0	0
2024-10-08 05:18:47			0	37952	0	0	0	21519	20090	162731	27241	1054044	46239	107900	0	0	8206	567443	0	0
2024-10-08 05:19:47			0	37931	0	0	0	21524	20090	162739	27218	1054008	46250	107902	0	0	8205	568286	0	0
2024-10-08 05:20:47			0	37955	0	0	0	21532	20100	162619	27033	1054000	46251	107905	0	0	8206	567291	0	0
2024-10-08 05:21:47			0	37979	0	0	0	21529	20100	162663	27088	1054000	46251	107904	0	0	8208	566329	0	0
2024-10-08 05:22:47			0	37976	0	0	0	21519	20100	162587	27208	1053973	46229	107900	0	0	8208	566449	0	0
2024-10-08 05:23:47			0	37966	0	0	0	21529	20100	162587	26852	1054000	46251	107904	0	0	8207	566850	0	0
2024-10-08 05:24:47			0	37947	0	0	0	21519	20090	162663	27197	1054017	46250	107900	0	0	8206	567644	0	0
2024-10-08 05:25:47			0	37959	0	0	0	21527	20090	162691	26909	1054070	46239	107903	0	0	8206	567162	0	0
2024-10-08 05:26:47			0	37953	0	0	0	21519	20080	162651	27083	1053999	46260	107900	0	0	8206	567434	0	0
2024-10-08 05:27:47			0	37951	0	0	0	21522	20090	162683	27274	1054061	46239	107901	0	0	8206	567483	0	0
2024-10-08 05:28:47			0	37949	0	0	0	21516	20090	162699	27050	1054061	46250	107899	0	0	8206	567563	0	0
2024-10-08 05:29:47			0	37942	0	0	0	21524	20090	162783	27438	1054061	46239	107902	0	0	8205	567844	0	0
2024-10-08 05:30:47			0	37948	0	0	0	21519	20090	162639	26866	1053964	46239	107900	0	0	8206	567603	0	0
2024-10-08 05:31:47			0	37959	0	0	0	21519	20090	162607	27130	1053981	46228	107900	0	0	8206	567162	0	0
2024-10-08 05:32:47			0	37977	0	0	0	21529	20090	162507	26975	1054044	46239	107904	0	0	8207	566440	0	0
2024-10-08 05:33:47			0	37979	0	0	0	21527	20090	162467	27104	1053937	46261	107903	0	0	8208	566360	0	0
2024-10-08 05:34:47			0	37985	0	0	0	21524	20090	162479	26953	1054017	46261	107902	0	0	8208	566119	0	0
2024-10-08 05:35:47			0	38007	0	0	0	21529	20100	162507	27017	1054053	46251	107904	0	0	8209	565207	0	0
2024-10-08 05:36:47			0	38029	0	0	0	21524	20090	162456	26795	1054017	46239	107902	0	0	8211	564358	0	0
2024-10-08 05:37:47			0	38045	0	0	0	21527	20090	162348	26710	1054044	46261	107903	0	0	8211	563718	0	0
2024-10-08 05:38:47			0	38034	0	0	0	21527	20100	162240	26736	1054053	46240	107903	0	0	8211	564127	0	0
2024-10-08 05:39:47			0	38043	0	0	0	21532	20090	162192	27170	1054017	46250	107905	0	0	8211	563798	0	0
2024-10-08 05:40:47			0	38032	0	0	0	21522	20090	162276	26826	1054008	46239	107901	0	0	8211	564238	0	0
2024-10-08 05:41:47			0	38042	0	0	0	21524	20080	162260	26778	1053990	46250	107902	0	0	8211	563869	0	0
2024-10-08 05:42:47			0	38027	0	0	0	21537	20100	162319	27052	1054053	46251	107907	0	0	8210	564407	0	0
2024-10-08 05:43:47			0	38054	0	0	0	21529	20090	162392	26774	1054044	46239	107904	0	0	8212	563359	0	0
2024-10-08 05:44:47			0	38052	0	0	0	21524	20090	162288	27088	1054044	46261	107902	0	0	8212	563438	0	0
2024-10-08 05:45:47			0	38063	0	0	0	21529	20090	162208	27268	1053955	46250	107904	0	0	8212	562999	0	0
2024-10-08 05:46:47			0	38068	0	0	0	21516	20090	162196	26696	1054044	46272	107899	0	0	8213	562799	0	0
2024-10-08 05:47:47			0	38070	0	0	0	21527	20090	162192	27064	1054017	46261	107903	0	0	8213	562720	0	0
2024-10-08 05:48:47			0	38049	0	0	0	21522	20090	162200	26866	1054088	46250	107901	0	0	8212	563558	0	0
2024-10-08 05:49:47			0	38053	0	0	0	21524	20080	162240	26680	1053946	46250	107902	0	0	8212	563429	0	0
2024-10-08 05:50:47			0	38044	0	0	0	21516	20090	162328	26705	1054044	46239	107899	0	0	8212	563758	0	0
2024-10-08 05:51:47			0	38049	0	0	0	21522	20090	162328	26861	1054017	46250	107901	0	0	8212	563558	0	0
2024-10-08 05:52:47			0	38067	0	0	0	21519	20090	162336	27154	1054008	46228	107900	0	0	8213	562839	0	0
2024-10-08 05:53:47			0	38047	0	0	0	21519	20090	162228	27071	1054035	46272	107900	0	0	8212	563638	0	0
2024-10-08 05:54:47			0	38059	0	0	0	21522	20080	162292	27142	1054043	46250	107901	0	0	8212	563190	0	0
2024-10-08 05:55:47			0	38052	0	0	0	21524	20090	162244	27241	1053928	46239	107902	0	0	8212	563438	0	0
2024-10-08 05:56:47			0	38055	0	0	0	21522	20090	162252	26951	1054008	46250	107901	0	0	8212	563319	0	0
2024-10-08 05:57:47			0	38049	0	0	0	21529	20090	162332	27046	1054017	46228	107904	0	0	8212	563558	0	0
2024-10-08 05:58:47			0	38055	0	0	0	21527	20080	162372	27211	1053937	46250	107903	0	0	8212	563350	0	0
2024-10-08 05:59:47			0	38056	0	0	0	21519	20090	162276	26942	1054061	46239	107900	0	0	8212	563279	0	0
2024-10-08 06:00:47			0	38049	0	0	0	21522	20090	162264	26937	1054044	46239	107901	0	0	8212	563558	0	0
2024-10-08 06:01:47			0	38041	0	0	0	21524	20090	162368	26975	1054061	46250	107902	0	0	8211	563878	0	0
2024-10-08 06:02:47			0	38025	0	0	0	21514	20090	162315	26854	1054035	46239	107898	0	0	8210	564518	0	0
2024-10-08 06:03:47			0	38044	0	0	0	21524	20090	162396	27090	1054008	46250	107902	0	0	8211	563758	0	0
2024-10-08 06:04:47			0	38036	0	0	0	21519	20090	162336	26698	1054061	46250	107900	0	0	8211	564078	0	0
2024-10-08 06:05:47			0	38040	0	0	0	21522	20080	162308	27182	1054052	46260	107901	0	0	8211	563949	0	0
2024-10-08 06:06:47			0	38050	0	0	0	21519	20080	162380	27211	1054026	46260	107900	0	0	8212	563549	0	0
2024-10-08 06:07:47			0	38041	0	0	0	21527	20070	162388	27100	1053981	46249	107903	0	0	8211	563940	0	0
2024-10-08 06:08:47			0	38043	0	0	0	21519	20090	162384	27343	1053991	46250	107900	0	0	8211	563798	0	0
2024-10-08 06:09:47			0	38044	0	0	0	21519	20090	162344	27092	1054017	46239	107900	0	0	8211	563758	0	0
2024-10-08 06:10:47			0	38051	0	0	0	21519	20080	162396	26923	1053972	46250	107900	0	0	8212	563510	0	0
2024-10-08 06:11:47			0	38046	0	0	0	21519	20080	162312	27362	1053972	46238	107900	0	0	8212	563709	0	0
2024-10-08 06:12:47			0	38060	0	0	0	21522	20080	162308	26908	1053999	46238	107901	0	0	8212	563150	0	0
2024-10-08 06:13:47			0	38046	0	0	0	21516	20080	162344	26821	1053990	46250	107899	0	0	8212	563709	0	0
2024-10-08 06:14:47			0	38037	0	0	0	21514	20090	162396	27024	1054070	46250	107898	0	0	8211	564038	0	0
2024-10-08 06:15:47			0	38044	0	0	0	21522	20080	162216	27057	1053972	46250	107901	0	0	8211	563789	0	0
2024-10-08 06:16:47			0	38030	0	0	0	21522	20080	162316	26946	1053972	46250	107901	0	0	8211	564349	0	0
2024-10-08 06:17:47			0	38045	0	0	0	21514	20080	162332	27248	1053990	46238	107898	0	0	8212	563749	0	0
2024-10-08 06:18:47			0	38048	0	0	0	21516	20080	162356	27168	1053999	46260	107899	0	0	8212	563629	0	0
2024-10-08 06:19:47			0	38043	0	0	0	21522	20090	162436	27050	1053981	46250	107901	0	0	8211	563798	0	0
2024-10-08 06:20:47			0	38042	0	0	0	21522	20080	162392	27227	1054017	46227	107901	0	0	8211	563869	0	0
2024-10-08 06:21:47			0	38038	0	0	0	21519	20090	162336	27124	1053981	46239	107900	0	0	8211	563998	0	0
2024-10-08 06:22:47			0	38027	0	0	0	21522	20080	162328	27187	1053999	46238	107901	0	0	8210	564469	0	0
2024-10-08 06:23:47			0	38037	0	0	0	21524	20090	162396	27367	1054044	46261	107902	0	0	8211	564038	0	0
2024-10-08 06:24:47			0	38048	0	0	0	21522	20090	162340	26797	1053981	46250	107901	0	0	8212	563598	0	0
2024-10-08 06:25:47			0	38051	0	0	0	21524	20100	162284	27279	1054053	46229	107902	0	0	8212	563447	0	0
2024-10-08 06:26:47			0	38019	0	0	0	21514	20080	162319	27296	1053963	46238	107898	0	0	8210	564789	0	0
2024-10-08 06:27:47			0	38016	0	0	0	21516	20080	162403	26927	1054043	46271	107899	0	0	8210	564909	0	0
2024-10-08 06:28:47			0	38035	0	0	0	21519	20080	162356	27308	1053999	46238	107900	0	0	8211	564149	0	0
2024-10-08 06:29:47			0	38024	0	0	0	21529	20080	162388	27092	1054017	46238	107904	0	0	8210	564589	0	0
2024-10-08 06:30:47			0	38022	0	0	0	21519	20090	162423	27260	1054017	46239	107900	0	0	8210	564638	0	0
2024-10-08 06:31:47			0	38028	0	0	0	21514	20090	162375	26868	1054061	46228	107898	0	0	8211	564398	0	0
2024-10-08 06:32:47			0	38021	0	0	0	21516	20080	162444	27362	1054026	46238	107899	0	0	8210	564709	0	0
2024-10-08 06:33:47			0	38028	0	0	0	21524	20090	162484	27149	1053991	46228	107902	0	0	8210	564398	0	0
2024-10-08 06:34:47			0	38020	0	0	0	21519	20090	162455	26986	1053955	46261	107900	0	0	8210	564718	0	0
2024-10-08 06:35:47			0	38013	0	0	0	21514	20080	162467	27111	1054079	46238	107898	0	0	8210	565029	0	0
2024-10-08 06:36:47			0	38015	0	0	0	21519	20090	162571	27182	1053981	46250	107900	0	0	8210	564918	0	0
2024-10-08 06:37:47			0	38005	0	0	0	21522	20090	162503	27199	1053991	46239	107901	0	0	8209	565318	0	0
2024-10-08 06:38:47			0	38012	0	0	0	21519	20080	162523	27204	1053990	46250	107900	0	0	8210	565069	0	0
2024-10-08 06:39:47			0	38012	0	0	0	21522	20080	162367	27293	1053946	46250	107901	0	0	8210	565069	0	0
2024-10-08 06:40:47			0	38014	0	0	0	21519	20080	162343	27027	1053963	46238	107900	0	0	8210	564989	0	0
2024-10-08 06:41:47			0	38007	0	0	0	21522	20080	162383	27341	1054052	46250	107901	0	0	8209	565269	0	0
2024-10-08 06:42:47			0	38020	0	0	0	21514	20080	162403	26852	1053999	46238	107898	0	0	8210	564749	0	0
2024-10-08 06:43:47			0	38007	0	0	0	21516	20090	162523	27279	1054008	46261	107899	0	0	8209	565238	0	0
2024-10-08 06:44:47			0	38003	0	0	0	21516	20080	162415	27024	1054026	46238	107899	0	0	8209	565430	0	0
2024-10-08 06:45:47			0	38009	0	0	0	21514	20080	162463	27301	1054026	46238	107898	0	0	8209	565189	0	0
2024-10-08 06:46:47			0	37992	0	0	0	21509	20080	162487	27362	1054026	46238	107896	0	0	8209	565870	0	0
2024-10-08 06:47:47			0	37984	0	0	0	21516	20080	162503	27013	1054052	46238	107899	0	0	8208	566191	0	0
2024-10-08 06:48:47			0	37991	0	0	0	21519	20080	162503	27234	1053999	46238	107900	0	0	8208	565910	0	0
2024-10-08 06:49:47			0	37984	0	0	0	21506	20080	162607	27055	1053963	46271	107895	0	0	8208	566191	0	0
2024-10-08 06:50:47			0	37979	0	0	0	21511	20080	162531	27402	1053963	46260	107897	0	0	8208	566391	0	0
2024-10-08 06:51:47			0	37974	0	0	0	21511	20070	162551	26913	1053981	46249	107897	0	0	8207	566623	0	0
2024-10-08 06:52:47			0	37974	0	0	0	21511	20080	162611	27251	1053946	46250	107897	0	0	8207	566592	0	0
2024-10-08 06:53:47			0	37969	0	0	0	21503	20080	162587	27454	1053910	46250	107894	0	0	8207	566792	0	0
2024-10-08 06:54:47			0	37968	0	0	0	21519	20080	162567	27228	1054017	46260	107900	0	0	8207	566832	0	0
2024-10-08 06:55:47			0	37957	0	0	0	21509	20080	162659	27441	1053990	46238	107896	0	0	8206	567274	0	0
2024-10-08 06:56:47			0	37962	0	0	0	21509	20090	162607	27303	1053955	46239	107896	0	0	8207	567042	0	0
2024-10-08 06:57:47			0	37967	0	0	0	21506	20090	162747	27045	1053955	46250	107895	0	0	8207	566841	0	0
2024-10-08 06:58:47			0	37944	0	0	0	21501	20080	162703	26963	1053937	46250	107893	0	0	8206	567795	0	0
2024-10-08 06:59:47			0	37941	0	0	0	21503	20080	162671	27109	1053990	46260	107894	0	0	8206	567916	0	0
2024-10-08 07:00:47			0	37955	0	0	0	21503	20080	162727	27079	1053946	46238	107894	0	0	8206	567354	0	0
2024-10-08 07:01:47			0	37947	0	0	0	21503	20070	162755	27083	1053928	46237	107894	0	0	8206	567706	0	0
2024-10-08 07:02:47			0	37958	0	0	0	21511	20080	162843	27081	1054017	46250	107897	0	0	8207	567233	0	0
2024-10-08 07:03:47			0	37937	0	0	0	21509	20090	162679	27138	1053955	46250	107896	0	0	8205	568045	0	0
2024-10-08 07:04:47			0	37943	0	0	0	21509	20080	162735	27031	1053972	46250	107896	0	0	8206	567836	0	0
2024-10-08 07:05:47			0	37940	0	0	0	21509	20080	162651	27201	1053963	46250	107896	0	0	8205	567956	0	0
2024-10-08 07:06:47			0	37930	0	0	0	21509	20080	162731	27109	1053990	46250	107896	0	0	8205	568358	0	0
2024-10-08 07:07:47			0	37918	0	0	0	21506	20080	162815	27325	1053910	46250	107895	0	0	8204	568840	0	0
2024-10-08 07:08:47			0	37931	0	0	0	21506	20080	162875	27085	1053990	46238	107895	0	0	8205	568318	0	0
2024-10-08 07:09:47			0	37924	0	0	0	21501	20070	162835	27412	1053946	46237	107893	0	0	8205	568630	0	0
2024-10-08 07:10:47			0	37922	0	0	0	21506	20080	162831	27410	1053963	46250	107895	0	0	8204	568679	0	0
2024-10-08 07:11:47			0	37920	0	0	0	21503	20070	162799	27364	1053955	46249	107894	0	0	8204	568791	0	0
2024-10-08 07:12:47			0	37923	0	0	0	21503	20080	162803	27428	1053910	46250	107894	0	0	8205	568639	0	0
2024-10-08 07:13:47			0	37914	0	0	0	21501	20080	162775	27343	1053937	46238	107893	0	0	8204	569001	0	0
2024-10-08 07:14:47			0	37933	0	0	0	21503	20070	162779	27492	1053981	46237	107894	0	0	8205	568269	0	0
2024-10-08 07:15:47			0	37915	0	0	0	21496	20070	162783	27298	1053955	46249	107891	0	0	8204	568992	0	0
2024-10-08 07:16:47			0	37920	0	0	0	21509	20070	162931	27352	1053972	46249	107896	0	0	8204	568791	0	0
2024-10-08 07:17:47			0	37915	0	0	0	21501	20080	162943	27187	1053963	46238	107893	0	0	8204	568960	0	0
2024-10-08 07:18:47			0	37913	0	0	0	21496	20070	162783	27045	1053946	46226	107891	0	0	8204	569072	0	0
2024-10-08 07:19:47			0	37896	0	0	0	21496	20060	162807	27371	1053990	46248	107891	0	0	8203	569788	0	0
2024-10-08 07:20:47			0	37890	0	0	0	21501	20070	162875	27227	1053901	46237	107893	0	0	8203	569998	0	0
2024-10-08 07:21:47			0	37877	0	0	0	21496	20070	162887	27223	1053839	46249	107891	0	0	8202	570521	0	0
2024-10-08 07:22:47			0	37888	0	0	0	21496	20070	162987	26994	1053955	46237	107891	0	0	8203	570078	0	0
2024-10-08 07:23:47			0	37883	0	0	0	21498	20070	163047	26984	1053955	46237	107892	0	0	8202	570279	0	0
2024-10-08 07:24:47			0	37868	0	0	0	21501	20070	163099	26901	1053928	46237	107893	0	0	8201	570884	0	0
2024-10-08 07:25:47			0	37866	0	0	0	21498	20070	163203	27107	1053866	46237	107892	0	0	8201	570964	0	0
2024-10-08 07:26:47			0	37866	0	0	0	21488	20070	163043	27242	1053946	46237	107888	0	0	8201	570964	0	0
2024-10-08 07:27:47			0	37853	0	0	0	21493	20070	163223	27300	1053928	46249	107890	0	0	8201	571488	0	0
2024-10-08 07:28:47			0	37860	0	0	0	21496	20070	163159	26915	1053919	46237	107891	0	0	8201	571206	0	0
2024-10-08 07:29:47			0	37846	0	0	0	21493	20060	163155	27135	1053910	46236	107890	0	0	8200	571802	0	0
2024-10-08 07:30:47			0	37863	0	0	0	21493	20060	163147	27303	1053901	46235	107890	0	0	8201	571117	0	0
2024-10-08 07:31:47			0	37866	0	0	0	21498	20070	163095	27277	1053919	46249	107892	0	0	8201	570964	0	0
2024-10-08 07:32:47			0	37844	0	0	0	21485	20070	163203	27464	1053946	46237	107887	0	0	8200	571851	0	0
2024-10-08 07:33:47			0	37815	0	0	0	21477	20080	163211	27223	1053937	46238	107884	0	0	8199	572990	0	0
2024-10-08 07:34:47			0	37812	0	0	0	21467	20070	163303	27291	1053919	46249	107880	0	0	8199	573143	0	0
2024-10-08 07:35:47			0	37785	0	0	0	21464	20050	163351	27277	1053892	46247	107879	0	0	8197	574297	0	0
2024-10-08 07:36:47			0	37773	0	0	0	21470	20060	163355	27248	1053821	46213	107881	0	0	8196	574751	0	0
2024-10-08 07:37:47			0	37772	0	0	0	21472	20050	163387	27433	1053857	46234	107882	0	0	8196	574823	0	0
2024-10-08 07:38:47			0	37775	0	0	0	21475	20050	163427	26958	1053830	46256	107883	0	0	8196	574702	0	0
2024-10-08 07:39:47			0	37771	0	0	0	21480	20050	163295	27170	1053866	46235	107885	0	0	8196	574864	0	0
2024-10-08 07:40:47			0	37783	0	0	0	21480	20040	163295	26994	1053768	46246	107885	0	0	8197	574410	0	0
2024-10-08 07:41:47			0	37776	0	0	0	21483	20060	163323	27329	1053875	46235	107886	0	0	8196	574630	0	0
2024-10-08 07:42:47			0	37785	0	0	0	21485	20050	163411	27154	1053883	46234	107887	0	0	8197	574297	0	0
2024-10-08 07:43:47			0	37801	0	0	0	21483	20060	163295	26944	1053875	46235	107886	0	0	8198	573619	0	0
2024-10-08 07:44:47			0	37788	0	0	0	21467	20050	163319	26748	1053830	46234	107880	0	0	8197	574176	0	0
2024-10-08 07:45:47			0	37754	0	0	0	21431	20040	163483	27209	1053795	46234	107866	0	0	8196	575584	0	0
2024-10-08 07:46:47			0	37700	0	0	0	21436	20040	163691	27293	1053742	46223	107868	0	0	8192	577774	0	0
2024-10-08 07:47:47			0	37685	0	0	0	21451	20050	163847	27317	1053777	46223	107874	0	0	8191	578351	0	0
2024-10-08 07:48:47			0	37662	0	0	0	21431	20040	163767	26932	1053795	46223	107866	0	0	8190	579318	0	0
2024-10-08 07:49:47			0	37650	0	0	0	21428	20040	163963	26942	1053733	46222	107865	0	0	8190	579806	0	0
2024-10-08 07:50:47			0	37638	0	0	0	21433	20040	164015	26961	1053706	46222	107867	0	0	8189	580295	0	0
2024-10-08 07:51:47			0	37647	0	0	0	21454	20040	163959	27147	1053706	46233	107875	0	0	8189	579928	0	0
2024-10-08 07:52:47			0	37642	0	0	0	21454	20030	164015	27306	1053768	46232	107875	0	0	8189	580164	0	0
2024-10-08 07:53:47			0	37647	0	0	0	21444	20020	163919	26953	1053706	46232	107871	0	0	8189	579992	0	0
2024-10-08 07:54:47			0	37647	0	0	0	21444	20020	163871	27357	1053732	46232	107871	0	0	8189	579992	0	0
2024-10-08 07:55:47			0	37642	0	0	0	21462	20030	163919	27261	1053697	46233	107878	0	0	8188	580164	0	0
2024-10-08 07:56:47			0	37647	0	0	0	21428	20030	163787	27438	1053741	46244	107865	0	0	8189	579960	0	0
2024-10-08 07:57:47			0	37620	0	0	0	21407	20020	163987	27542	1053679	46232	107857	0	0	8188	581092	0	0
2024-10-08 07:58:47			0	37598	0	0	0	21420	20020	164055	27348	1053697	46220	107862	0	0	8186	581989	0	0
2024-10-08 07:59:47			0	37588	0	0	0	21428	20030	164083	27008	1053688	46232	107865	0	0	8186	582365	0	0
2024-10-08 08:00:47			0	37577	0	0	0	21431	20010	164231	27249	1053661	46231	107866	0	0	8185	582878	0	0
2024-10-08 08:01:47			0	37601	0	0	0	21459	20020	164171	27215	1053697	46231	107877	0	0	8186	581866	0	0
2024-10-08 08:02:47			0	37617	0	0	0	21464	20020	164091	27374	1053759	46232	107879	0	0	8187	581214	0	0
2024-10-08 08:03:47			0	37641	0	0	0	21438	20020	163943	27055	1053750	46243	107869	0	0	8189	580237	0	0
2024-10-08 08:04:47			0	37620	0	0	0	21436	20010	164075	27005	1053715	46275	107868	0	0	8187	581124	0	0
2024-10-08 08:05:47			0	37620	0	0	0	21438	20020	164083	27275	1053679	46244	107869	0	0	8187	581092	0	0
2024-10-08 08:06:47			0	37581	0	0	0	21428	20020	164163	27173	1053697	46231	107865	0	0	8185	582683	0	0
2024-10-08 08:07:47			0	37585	0	0	0	21428	20020	164159	27383	1053670	46231	107865	0	0	8186	582519	0	0
2024-10-08 08:08:47			0	37575	0	0	0	21431	20010	164203	27109	1053608	46231	107866	0	0	8185	582960	0	0
2024-10-08 08:09:47			0	37566	0	0	0	21407	20000	164219	27332	1053590	46242	107857	0	0	8185	583360	0	0
2024-10-08 08:10:47			0	37538	0	0	0	21407	20010	164287	27275	1053599	46219	107857	0	0	8183	584472	0	0
2024-10-08 08:11:47			0	37519	0	0	0	21402	20000	164339	27039	1053617	46230	107855	0	0	8182	585282	0	0
2024-10-08 08:12:47			0	37503	0	0	0	21410	20000	164543	27150	1053581	46229	107858	0	0	8181	585938	0	0
2024-10-08 08:13:47			0	37509	0	0	0	21423	20000	164511	27291	1053608	46218	107863	0	0	8181	585692	0	0
2024-10-08 08:14:47			0	37517	0	0	0	21428	20000	164443	27036	1053581	46229	107865	0	0	8181	585364	0	0
2024-10-08 08:15:47			0	37546	0	0	0	21431	20000	164331	27213	1053581	46229	107866	0	0	8183	584177	0	0
2024-10-08 08:16:47			0	37525	0	0	0	21394	20000	164291	27079	1053590	46219	107852	0	0	8182	585036	0	0
2024-10-08 08:17:47			0	37503	0	0	0	21397	20000	164495	27071	1053555	46229	107853	0	0	8181	585938	0	0
2024-10-08 08:18:47			0	37487	0	0	0	21394	20000	164567	27126	1053528	46218	107852	0	0	8180	586593	0	0
2024-10-08 08:19:47			0	37487	0	0	0	21405	19990	164639	27573	1053519	46228	107856	0	0	8180	586626	0	0
2024-10-08 08:20:47			0	37447	0	0	0	21410	19980	164715	27149	1053528	46228	107858	0	0	8177	588300	0	0
2024-10-08 08:21:47			0	37490	0	0	0	21415	19990	164655	27249	1053590	46240	107860	0	0	8180	586503	0	0
2024-10-08 08:22:47			0	37500	0	0	0	21423	19980	164575	27239	1053608	46228	107863	0	0	8180	586125	0	0
2024-10-08 08:23:47			0	37517	0	0	0	21438	19990	164539	27260	1053599	46261	107869	0	0	8181	585396	0	0
2024-10-08 08:24:47			0	37539	0	0	0	21438	19990	164447	27372	1053599	46250	107869	0	0	8183	584496	0	0
2024-10-08 08:25:47			0	37547	0	0	0	21420	19990	164387	27327	1053564	46228	107862	0	0	8183	584169	0	0
2024-10-08 08:26:47			0	37551	0	0	0	21433	19980	164371	27133	1053581	46217	107867	0	0	8183	584037	0	0
2024-10-08 08:27:47			0	37564	0	0	0	21457	20000	164307	27166	1053635	46251	107876	0	0	8184	583441	0	0
2024-10-08 08:28:47			0	37595	0	0	0	21459	20000	164207	27194	1053670	46230	107877	0	0	8186	582175	0	0
2024-10-08 08:29:47			0	37618	0	0	0	21464	20010	164119	26878	1053794	46253	107879	0	0	8187	581205	0	0
2024-10-08 08:30:47			0	37661	0	0	0	21470	20000	163879	27433	1053697	46242	107881	0	0	8189	579486	0	0
2024-10-08 08:31:47			0	37696	0	0	0	21467	20020	163747	27234	1053732	46244	107880	0	0	8191	578000	0	0
2024-10-08 08:32:47			0	37717	0	0	0	21480	20010	163635	26948	1053732	46274	107885	0	0	8192	577179	0	0
2024-10-08 08:33:47			0	37753	0	0	0	21464	20020	163539	27303	1053723	46253	107879	0	0	8195	575688	0	0
2024-10-08 08:34:47			0	37748	0	0	0	21480	20020	163419	26989	1053803	46231	107885	0	0	8194	575890	0	0
2024-10-08 08:35:47			0	37777	0	0	0	21488	20030	163359	27319	1053768	46232	107888	0	0	8196	574684	0	0
2024-10-08 08:36:47			0	37815	0	0	0	21477	20020	163283	27067	1053786	46244	107884	0	0	8198	573180	0	0
2024-10-08 08:37:47			0	37832	0	0	0	21477	20030	163171	27393	1053857	46266	107884	0	0	8199	572461	0	0
2024-10-08 08:38:47			0	37837	0	0	0	21483	20040	163187	27001	1053874	46246	107886	0	0	8200	572228	0	0
2024-10-08 08:39:47			0	37868	0	0	0	21483	20030	163007	27326	1053803	46245	107886	0	0	8201	571009	0	0
2024-10-08 08:40:47			0	37862	0	0	0	21485	20030	162967	26975	1053848	46232	107887	0	0	8201	571251	0	0
2024-10-08 08:41:47			0	37862	0	0	0	21470	20040	162915	27310	1053795	46246	107881	0	0	8201	571220	0	0
2024-10-08 08:42:47			0	37865	0	0	0	21480	20050	163031	27428	1053804	46234	107885	0	0	8201	571067	0	0
2024-10-08 08:43:47			0	37858	0	0	0	21477	20030	162987	27140	1053857	46245	107884	0	0	8201	571413	0	0
2024-10-08 08:44:47			0	37843	0	0	0	21477	20050	163067	27282	1053892	46247	107884	0	0	8200	571955	0	0
2024-10-08 08:45:47			0	37854	0	0	0	21472	20050	163019	27289	1053866	46247	107882	0	0	8201	571511	0	0
2024-10-08 08:46:47			0	37842	0	0	0	21483	20050	163051	27490	1053883	46246	107886	0	0	8200	571995	0	0
2024-10-08 08:47:47			0	37851	0	0	0	21475	20050	162999	27512	1053883	46234	107883	0	0	8201	571632	0	0
2024-10-08 08:48:47			0	37874	0	0	0	21483	20050	162987	27204	1053883	46234	107886	0	0	8202	570705	0	0
2024-10-08 08:49:47			0	37858	0	0	0	21480	20040	162959	27222	1053848	46256	107885	0	0	8201	571381	0	0
2024-10-08 08:50:47			0	37860	0	0	0	21477	20040	162931	27410	1053848	46234	107884	0	0	8201	571300	0	0
2024-10-08 08:51:47			0	37850	0	0	0	21483	20050	163011	27261	1053892	46235	107886	0	0	8200	571672	0	0
2024-10-08 08:52:47			0	37829	0	0	0	21472	20050	162911	27646	1053866	46235	107882	0	0	8199	572520	0	0
2024-10-08 08:53:47			0	37835	0	0	0	21472	20050	163079	27185	1053857	46234	107882	0	0	8200	572277	0	0
2024-10-08 08:54:47			0	37837	0	0	0	21475	20040	163063	27364	1053848	46246	107883	0	0	8200	572228	0	0
2024-10-08 08:55:47			0	37822	0	0	0	21470	20050	163107	27324	1053857	46246	107881	0	0	8199	572802	0	0
2024-10-08 08:56:47			0	37828	0	0	0	21480	20040	163111	27029	1053821	46267	107885	0	0	8199	572591	0	0
2024-10-08 08:57:47			0	37842	0	0	0	21490	20050	162995	27421	1053857	46234	107889	0	0	8200	571995	0	0
2024-10-08 08:58:47			0	37861	0	0	0	21485	20050	162959	26970	1053945	46247	107887	0	0	8201	571229	0	0
2024-10-08 08:59:47			0	37862	0	0	0	21485	20050	163031	27300	1053919	46235	107887	0	0	8201	571188	0	0
2024-10-08 09:00:47			0	37873	0	0	0	21496	20050	162895	27166	1053883	46234	107891	0	0	8202	570745	0	0
2024-10-08 09:01:47			0	37874	0	0	0	21483	20040	162959	27083	1053928	46246	107886	0	0	8202	570736	0	0
2024-10-08 09:02:47			0	37867	0	0	0	21480	20050	162875	27093	1053883	46234	107885	0	0	8202	570987	0	0
2024-10-08 09:03:47			0	37863	0	0	0	21485	20050	162963	27353	1053857	46246	107887	0	0	8201	571148	0	0
2024-10-08 09:04:47			0	37874	0	0	0	21488	20050	162943	27524	1053919	46235	107888	0	0	8202	570705	0	0
2024-10-08 09:05:47			0	37864	0	0	0	21493	20060	162979	27457	1053901	46224	107890	0	0	8201	571076	0	0
2024-10-08 09:06:47			0	37884	0	0	0	21485	20050	162875	27400	1053910	46234	107887	0	0	8202	570302	0	0
2024-10-08 09:07:47			0	37890	0	0	0	21490	20060	162863	27159	1053910	46236	107889	0	0	8203	570029	0	0
2024-10-08 09:08:47			0	37900	0	0	0	21488	20050	162859	27279	1053883	46234	107888	0	0	8203	569658	0	0
2024-10-08 09:09:47			0	37904	0	0	0	21488	20060	162863	27351	1053928	46235	107888	0	0	8204	569466	0	0
2024-10-08 09:10:47			0	37907	0	0	0	21493	20050	162783	27343	1053919	46235	107890	0	0	8204	569376	0	0
2024-10-08 09:11:47			0	37905	0	0	0	21493	20060	162719	27670	1053910	46225	107890	0	0	8204	569426	0	0
2024-10-08 09:12:47			0	37925	0	0	0	21493	20050	162683	27230	1053883	46256	107890	0	0	8205	568653	0	0
2024-10-08 09:13:47			0	37948	0	0	0	21490	20050	162643	27249	1053945	46247	107889	0	0	8206	567729	0	0
2024-10-08 09:14:47			0	37948	0	0	0	21501	20060	162575	27310	1053884	46258	107893	0	0	8206	567697	0	0
2024-10-08 09:15:47			0	37956	0	0	0	21498	20070	162475	27208	1053919	46237	107892	0	0	8207	567345	0	0
2024-10-08 09:16:47			0	37960	0	0	0	21488	20060	162547	27518	1053928	46247	107888	0	0	8207	567216	0	0
2024-10-08 09:17:47			0	37987	0	0	0	21496	20060	162503	27156	1053981	46247	107891	0	0	8208	566133	0	0
2024-10-08 09:18:47			0	38004	0	0	0	21501	20060	162455	27521	1053937	46248	107893	0	0	8209	565452	0	0
2024-10-08 09:19:47			0	37999	0	0	0	21503	20060	162287	27317	1053990	46225	107894	0	0	8209	565652	0	0
2024-10-08 09:20:47			0	38012	0	0	0	21509	20060	162383	27322	1053963	46248	107896	0	0	8210	565132	0	0
2024-10-08 09:21:47			0	38002	0	0	0	21503	20070	162315	27246	1053946	46249	107894	0	0	8209	565501	0	0
2024-10-08 09:22:47			0	37995	0	0	0	21493	20070	162375	27177	1053892	46249	107890	0	0	8209	565781	0	0
2024-10-08 09:23:47			0	37998	0	0	0	21496	20070	162363	27310	1053972	46237	107891	0	0	8209	565661	0	0
2024-10-08 09:24:47			0	37990	0	0	0	21506	20070	162251	27317	1053955	46237	107895	0	0	8208	565981	0	0
2024-10-08 09:25:47			0	38009	0	0	0	21501	20070	162351	27376	1053972	46237	107893	0	0	8210	565221	0	0
2024-10-08 09:26:47			0	38023	0	0	0	21503	20070	162263	27104	1053946	46249	107894	0	0	8210	564660	0	0
2024-10-08 09:27:47			0	38014	0	0	0	21503	20080	162335	27345	1053990	46238	107894	0	0	8210	564989	0	0
2024-10-08 09:28:47			0	38023	0	0	0	21503	20060	162291	27588	1053990	46248	107894	0	0	8210	564691	0	0
2024-10-08 09:29:47			0	38016	0	0	0	21496	20070	162351	27182	1053972	46259	107891	0	0	8210	564940	0	0
2024-10-08 09:30:47			0	38030	0	0	0	21501	20070	162171	27336	1053999	46237	107893	0	0	8211	564380	0	0
2024-10-08 09:31:47			0	38045	0	0	0	21506	20070	162204	27203	1053981	46249	107895	0	0	8212	563780	0	0
2024-10-08 09:32:47			0	38071	0	0	0	21511	20060	162148	27213	1053990	46236	107897	0	0	8213	562773	0	0
2024-10-08 09:33:47			0	38069	0	0	0	21506	20070	162040	27504	1053928	46259	107895	0	0	8213	562821	0	0
2024-10-08 09:34:47			0	38083	0	0	0	21503	20070	162000	27026	1053928	46259	107894	0	0	8214	562263	0	0
2024-10-08 09:35:47			0	38090	0	0	0	21506	20070	162092	27639	1053955	46226	107895	0	0	8214	561983	0	0
2024-10-08 09:36:47			0	38103	0	0	0	21506	20070	162072	27360	1053955	46249	107895	0	0	8215	561465	0	0
2024-10-08 09:37:47			0	38088	0	0	0	21503	20070	162020	27365	1053999	46237	107894	0	0	8214	562063	0	0
2024-10-08 09:38:47			0	38095	0	0	0	21511	20070	162016	27159	1053972	46237	107897	0	0	8215	561784	0	0
2024-10-08 09:39:47			0	38095	0	0	0	21511	20070	161976	27258	1053955	46249	107897	0	0	8215	561784	0	0
2024-10-08 09:40:47			0	38113	0	0	0	21514	20070	162000	27412	1054025	46237	107898	0	0	8216	561066	0	0
2024-10-08 09:41:47			0	38137	0	0	0	21516	20070	161896	27568	1054008	46237	107899	0	0	8217	560110	0	0
2024-10-08 09:42:47			0	38129	0	0	0	21511	20080	161844	27379	1054043	46260	107897	0	0	8217	560398	0	0
2024-10-08 09:43:47			0	38138	0	0	0	21506	20070	161860	27300	1053981	46249	107895	0	0	8217	560071	0	0
2024-10-08 09:44:47			0	38148	0	0	0	21511	20070	161864	27357	1054034	46249	107897	0	0	8218	559673	0	0
2024-10-08 09:45:47			0	38154	0	0	0	21509	20070	161920	27123	1054025	46259	107896	0	0	8218	559434	0	0
2024-10-08 09:46:47			0	38138	0	0	0	21506	20070	161840	27161	1053981	46237	107895	0	0	8217	560071	0	0
2024-10-08 09:47:47			0	38148	0	0	0	21514	20070	161792	27183	1054034	46237	107898	0	0	8218	559673	0	0
2024-10-08 09:48:47			0	38167	0	0	0	21511	20070	161856	27209	1054025	46259	107897	0	0	8219	558917	0	0
2024-10-08 09:49:47			0	38157	0	0	0	21514	20080	161768	27322	1054017	46238	107898	0	0	8218	559284	0	0
2024-10-08 09:50:47			0	38164	0	0	0	21511	20080	161788	27190	1054017	46227	107897	0	0	8219	559005	0	0
2024-10-08 09:51:47			0	38179	0	0	0	21514	20080	161620	27306	1053990	46260	107898	0	0	8219	558409	0	0
2024-10-08 09:52:47			0	38190	0	0	0	21522	20090	161516	27592	1054061	46250	107901	0	0	8220	557941	0	0
2024-10-08 09:53:47			0	38239	0	0	0	21519	20080	161460	27528	1054017	46250	107900	0	0	8223	556028	0	0
2024-10-08 09:54:47			0	38242	0	0	0	21509	20080	161440	27281	1054017	46260	107896	0	0	8223	555909	0	0
2024-10-08 09:55:47			0	38266	0	0	0	21522	20080	161288	27388	1053990	46250	107901	0	0	8224	554959	0	0
2024-10-08 09:56:47			0	38274	0	0	0	21511	20080	161260	27410	1054026	46250	107897	0	0	8225	554642	0	0
2024-10-08 09:57:47			0	38279	0	0	0	21522	20090	161160	27543	1054035	46272	107901	0	0	8225	554414	0	0
2024-10-08 09:58:47			0	38283	0	0	0	21516	20090	161104	27284	1054114	46261	107899	0	0	8226	554256	0	0
2024-10-08 09:59:47			0	38310	0	0	0	21522	20080	161280	27315	1054105	46250	107901	0	0	8227	553219	0	0
2024-10-08 10:00:47			0	38309	0	0	0	21522	20080	161116	27197	1054096	46250	107901	0	0	8227	553259	0	0
2024-10-08 10:01:47			0	38308	0	0	0	21527	20090	161108	27298	1054114	46250	107903	0	0	8227	553268	0	0
2024-10-08 10:02:47			0	38289	0	0	0	21519	20080	161168	27300	1054017	46271	107900	0	0	8226	554049	0	0
2024-10-08 10:03:47			0	38311	0	0	0	21527	20100	161088	27495	1054053	46251	107903	0	0	8227	553119	0	0
2024-10-08 10:04:47			0	38312	0	0	0	21514	20090	161092	27310	1054061	46250	107898	0	0	8227	553110	0	0
2024-10-08 10:05:47			0	38311	0	0	0	21524	20090	161024	27152	1054070	46250	107902	0	0	8227	553149	0	0
2024-10-08 10:06:47			0	38314	0	0	0	21529	20080	161056	27452	1054105	46238	107904	0	0	8227	553061	0	0
2024-10-08 10:07:47			0	38325	0	0	0	21527	20090	161064	27326	1054150	46250	107903	0	0	8228	552596	0	0
2024-10-08 10:08:47			0	38324	0	0	0	21529	20100	161088	27448	1054079	46251	107904	0	0	8228	552605	0	0
2024-10-08 10:09:47			0	38332	0	0	0	21529	20090	161064	27665	1054061	46272	107904	0	0	8228	552320	0	0
2024-10-08 10:10:47			0	38341	0	0	0	21524	20090	161056	27450	1054150	46239	107902	0	0	8229	551965	0	0
2024-10-08 10:11:47			0	38346	0	0	0	21540	20100	160956	27443	1054159	46262	107908	0	0	8229	551737	0	0
2024-10-08 10:12:47			0	38365	0	0	0	21542	20100	160976	27550	1054053	46251	107909	0	0	8230	550988	0	0
2024-10-08 10:13:47			0	38380	0	0	0	21540	20090	160944	27521	1054177	46250	107908	0	0	8231	550428	0	0
2024-10-08 10:14:47			0	38377	0	0	0	21532	20100	160840	27322	1054159	46240	107905	0	0	8231	550516	0	0
2024-10-08 10:15:47			0	38382	0	0	0	21537	20100	160860	27041	1054212	46251	107907	0	0	8231	550319	0	0
2024-10-08 10:16:47			0	38373	0	0	0	21532	20100	160804	27294	1054106	46251	107905	0	0	8231	550673	0	0
2024-10-08 10:17:47			0	38385	0	0	0	21540	20100	160756	27466	1054186	46240	107908	0	0	8231	550201	0	0
2024-10-08 10:18:47			0	38411	0	0	0	21537	20100	160832	27547	1054141	46251	107907	0	0	8233	549178	0	0
2024-10-08 10:19:47			0	38402	0	0	0	21542	20100	160716	27190	1054195	46262	107909	0	0	8232	549532	0	0
2024-10-08 10:20:47			0	38401	0	0	0	21540	20110	160692	27516	1054177	46252	107908	0	0	8232	549541	0	0
2024-10-08 10:21:47			0	38425	0	0	0	21542	20100	160712	27500	1054159	46262	107909	0	0	8233	548627	0	0
2024-10-08 10:22:47			0	38425	0	0	0	21537	20100	160564	27272	1054168	46251	107907	0	0	8234	548627	0	0
2024-10-08 10:23:47			0	38432	0	0	0	21535	20110	160500	27294	1054230	46252	107906	0	0	8234	548322	0	0
2024-10-08 10:24:47			0	38439	0	0	0	21537	20100	160520	27152	1054195	46251	107907	0	0	8234	548077	0	0
2024-10-08 10:25:47			0	38474	0	0	0	21532	20110	160480	27071	1054203	46252	107905	0	0	8237	546674	0	0
2024-10-08 10:26:47			0	38446	0	0	0	21527	20110	160496	27431	1054124	46230	107903	0	0	8235	547772	0	0
2024-10-08 10:27:47			0	38429	0	0	0	21542	20110	160476	27384	1054203	46242	107909	0	0	8234	548440	0	0
2024-10-08 10:28:47			0	38438	0	0	0	21535	20090	160524	27253	1054167	46239	107906	0	0	8234	548147	0	0
2024-10-08 10:29:47			0	38434	0	0	0	21542	20100	160436	27241	1054106	46251	107909	0	0	8234	548274	0	0
2024-10-08 10:30:47			0	38449	0	0	0	21540	20100	160536	27111	1054088	46251	107908	0	0	8235	547685	0	0
2024-10-08 10:31:47			0	38460	0	0	0	21548	20110	160608	27272	1054124	46242	107911	0	0	8235	547223	0	0
2024-10-08 10:32:47			0	38453	0	0	0	21540	20110	160604	27440	1054230	46252	107908	0	0	8235	547497	0	0
2024-10-08 10:33:47			0	38459	0	0	0	21553	20110	160456	27180	1054212	46252	107913	0	0	8235	547262	0	0
2024-10-08 10:34:47			0	38471	0	0	0	21542	20110	160516	27357	1054257	46252	107909	0	0	8236	546791	0	0
2024-10-08 10:35:47			0	38472	0	0	0	21535	20100	160448	27152	1054141	46251	107906	0	0	8236	546782	0	0
2024-10-08 10:36:47			0	38483	0	0	0	21537	20110	160352	27199	1054177	46252	107907	0	0	8237	546321	0	0
2024-10-08 10:37:47			0	38487	0	0	0	21537	20110	160376	27147	1054203	46242	107907	0	0	8237	546164	0	0
2024-10-08 10:38:47			0	38492	0	0	0	21545	20100	160488	27218	1054195	46251	107910	0	0	8237	545998	0	0
2024-10-08 10:39:47			0	38499	0	0	0	21545	20110	160432	27088	1054177	46242	107910	0	0	8238	545694	0	0
2024-10-08 10:40:47			0	38493	0	0	0	21542	20110	160356	27222	1054230	46230	107909	0	0	8238	545929	0	0
2024-10-08 10:41:47			0	38487	0	0	0	21548	20110	160300	27062	1054230	46252	107911	0	0	8237	546164	0	0
2024-10-08 10:42:47			0	38492	0	0	0	21550	20100	160364	27088	1054221	46251	107912	0	0	8237	545998	0	0
2024-10-08 10:43:47			0	38486	0	0	0	21545	20100	160288	27052	1054195	46251	107910	0	0	8237	546233	0	0
2024-10-08 10:44:47			0	38504	0	0	0	21529	20110	160272	27516	1054203	46242	107904	0	0	8238	545498	0	0
2024-10-08 10:45:47			0	38490	0	0	0	21542	20110	160372	27301	1054239	46252	107909	0	0	8237	546046	0	0
2024-10-08 10:46:47			0	38479	0	0	0	21540	20100	160360	27313	1054168	46251	107908	0	0	8237	546508	0	0
2024-10-08 10:47:47			0	38474	0	0	0	21540	20110	160476	27166	1054203	46252	107908	0	0	8236	546674	0	0
2024-10-08 10:48:47			0	38464	0	0	0	21548	20110	160500	27490	1054203	46252	107911	0	0	8236	547066	0	0
2024-10-08 10:49:47			0	38482	0	0	0	21555	20110	160532	27396	1054212	46242	107914	0	0	8237	546360	0	0
2024-10-08 10:50:47			0	38477	0	0	0	21540	20110	160548	27379	1054177	46252	107908	0	0	8237	546556	0	0
2024-10-08 10:51:47			0	38476	0	0	0	21542	20110	160384	27303	1054230	46252	107909	0	0	8237	546595	0	0
2024-10-08 10:52:47			0	38471	0	0	0	21548	20110	160440	26984	1054212	46242	107911	0	0	8236	546791	0	0
2024-10-08 10:53:47			0	38459	0	0	0	21537	20100	160464	27251	1054248	46251	107907	0	0	8236	547292	0	0
2024-10-08 10:54:47			0	38485	0	0	0	21537	20100	160480	27472	1054186	46251	107907	0	0	8237	546272	0	0
2024-10-08 10:55:47			0	38474	0	0	0	21532	20110	160420	27308	1054177	46242	107905	0	0	8237	546674	0	0
2024-10-08 10:56:47			0	38476	0	0	0	21537	20100	160412	27180	1054195	46240	107907	0	0	8237	546625	0	0
2024-10-08 10:57:47			0	38455	0	0	0	21540	20120	160448	27190	1054195	46243	107908	0	0	8235	547389	0	0
2024-10-08 10:58:47			0	38457	0	0	0	21540	20100	160384	27351	1054141	46251	107908	0	0	8235	547371	0	0
2024-10-08 10:59:47			0	38463	0	0	0	21545	20110	160432	27438	1054177	46252	107910	0	0	8236	547105	0	0
2024-10-08 11:00:47			0	38480	0	0	0	21545	20110	160432	27459	1054159	46230	107910	0	0	8237	546438	0	0
2024-10-08 11:01:47			0	38489	0	0	0	21535	20100	160308	27469	1054159	46240	107906	0	0	8237	546116	0	0
2024-10-08 11:02:47			0	38490	0	0	0	21542	20110	160412	27202	1054239	46242	107909	0	0	8237	546046	0	0
2024-10-08 11:03:47			0	38485	0	0	0	21550	20110	160396	27502	1054203	46252	107912	0	0	8237	546242	0	0
2024-10-08 11:04:47			0	38505	0	0	0	21545	20110	160348	27504	1054186	46274	107910	0	0	8238	545459	0	0
2024-10-08 11:05:47			0	38494	0	0	0	21535	20100	160368	27939	1054195	46262	107906	0	0	8238	545920	0	0
2024-10-08 11:06:47			0	38510	0	0	0	21535	20100	160316	27582	1054168	46240	107906	0	0	8239	545293	0	0
2024-10-08 11:07:47			0	38504	0	0	0	21542	20100	160304	27585	1054141	46240	107909	0	0	8238	545528	0	0
2024-10-08 11:08:47			0	38505	0	0	0	21540	20120	160404	27307	1054221	46243	107908	0	0	8238	545429	0	0
2024-10-08 11:09:47			0	38504	0	0	0	21529	20100	160372	27393	1054168	46229	107904	0	0	8238	545528	0	0
2024-10-08 11:10:47			0	38515	0	0	0	21548	20110	160360	27232	1054203	46242	107911	0	0	8239	545067	0	0
2024-10-08 11:11:47			0	38512	0	0	0	21540	20100	160348	27473	1054195	46240	107908	0	0	8239	545215	0	0
2024-10-08 11:12:47			0	38511	0	0	0	21542	20120	160396	27507	1054168	46253	107909	0	0	8239	545194	0	0
2024-10-08 11:13:47			0	38541	0	0	0	21542	20110	160228	27504	1054203	46263	107909	0	0	8240	544050	0	0
2024-10-08 11:14:47			0	38524	0	0	0	21540	20110	160268	27455	1054203	46242	107908	0	0	8239	544715	0	0
2024-10-08 11:15:47			0	38525	0	0	0	21550	20100	160252	27152	1054141	46251	107912	0	0	8239	544706	0	0
2024-10-08 11:16:47			0	38519	0	0	0	21545	20120	160320	27329	1054221	46253	107910	0	0	8239	544881	0	0
2024-10-08 11:17:47			0	38558	0	0	0	21548	20100	160204	27592	1054195	46251	107911	0	0	8241	543416	0	0
2024-10-08 11:18:47			0	38541	0	0	0	21548	20120	160232	27192	1054257	46254	107911	0	0	8240	544020	0	0
2024-10-08 11:19:47			0	38540	0	0	0	21548	20110	160248	27305	1054283	46242	107911	0	0	8240	544089	0	0
2024-10-08 11:20:47			0	38565	0	0	0	21548	20110	160196	27426	1054203	46242	107911	0	0	8242	543112	0	0
2024-10-08 11:21:47			0	38565	0	0	0	21548	20110	160168	27256	1054230	46242	107911	0	0	8242	543112	0	0
2024-10-08 11:22:47			0	38562	0	0	0	21542	20120	160200	27815	1054257	46244	107909	0	0	8242	543200	0	0
2024-10-08 11:23:47			0	38562	0	0	0	21545	20110	160048	27504	1054203	46242	107910	0	0	8241	543230	0	0
2024-10-08 11:24:47			0	38565	0	0	0	21548	20120	160168	27249	1054328	46253	107911	0	0	8242	543083	0	0
2024-10-08 11:25:47			0	38578	0	0	0	21550	20120	159936	27284	1054221	46243	107912	0	0	8242	542575	0	0
2024-10-08 11:26:47			0	38566	0	0	0	21550	20110	160148	27114	1054239	46252	107912	0	0	8242	543073	0	0
2024-10-08 11:27:47			0	38577	0	0	0	21555	20120	160216	27376	1054248	46264	107914	0	0	8242	542614	0	0
2024-10-08 11:28:47			0	38576	0	0	0	21553	20120	160040	27144	1054275	46243	107913	0	0	8242	542653	0	0
2024-10-08 11:29:47			0	38570	0	0	0	21555	20120	160104	27632	1054275	46253	107914	0	0	8242	542887	0	0
2024-10-08 11:30:47			0	38606	0	0	0	21558	20110	160068	27256	1054283	46252	107915	0	0	8244	541513	0	0
2024-10-08 11:31:47			0	38608	0	0	0	21555	20120	160036	27124	1054275	46253	107914	0	0	8244	541405	0	0
2024-10-08 11:32:47			0	38585	0	0	0	21563	20100	159968	27526	1054248	46240	107917	0	0	8242	542362	0	0
2024-10-08 11:33:47			0	38617	0	0	0	21561	20120	159964	27462	1054283	46265	107916	0	0	8244	541054	0	0
2024-10-08 11:34:47			0	38626	0	0	0	21555	20110	160000	27284	1054292	46242	107914	0	0	8245	540733	0	0
2024-10-08 11:35:47			0	38636	0	0	0	21566	20120	160012	26786	1054275	46243	107918	0	0	8245	540314	0	0
2024-10-08 11:36:47			0	38624	0	0	0	21555	20120	159900	27315	1054283	46244	107914	0	0	8245	540781	0	0
2024-10-08 11:37:47			0	38627	0	0	0	21563	20130	159952	27161	1054319	46244	107917	0	0	8245	540635	0	0
2024-10-08 11:38:47			0	38631	0	0	0	21573	20130	159936	27642	1054319	46254	107921	0	0	8245	540479	0	0
2024-10-08 11:39:47			0	38628	0	0	0	21561	20130	159844	27374	1054266	46244	107916	0	0	8245	540596	0	0
2024-10-08 11:40:47			0	38655	0	0	0	21566	20120	159800	27616	1054283	46244	107918	0	0	8247	539575	0	0
2024-10-08 11:41:47			0	38676	0	0	0	21571	20120	159812	27466	1054310	46254	107920	0	0	8248	538758	0	0
2024-10-08 11:42:47			0	38679	0	0	0	21568	20120	159788	27097	1054275	46264	107919	0	0	8248	538641	0	0
2024-10-08 11:43:47			0	38678	0	0	0	21576	20130	159836	27388	1054355	46254	107922	0	0	8248	538650	0	0
2024-10-08 11:44:47			0	38676	0	0	0	21573	20130	159740	27263	1054346	46244	107921	0	0	8248	538728	0	0
2024-10-08 11:45:47			0	38681	0	0	0	21571	20130	159700	27391	1054346	46254	107920	0	0	8248	538534	0	0
2024-10-08 11:46:47			0	38681	0	0	0	21576	20140	159696	27505	1054337	46266	107922	0	0	8248	538504	0	0
2024-10-08 11:47:47			0	38692	0	0	0	21571	20120	159564	27327	1054328	46243	107920	0	0	8249	538136	0	0
2024-10-08 11:48:47			0	38706	0	0	0	21571	20130	159644	27706	1054346	46254	107920	0	0	8250	537563	0	0
2024-10-08 11:49:47			0	38687	0	0	0	21579	20130	159604	27369	1054346	46244	107923	0	0	8248	538301	0	0
2024-10-08 11:50:47			0	38695	0	0	0	21571	20130	159684	27364	1054408	46265	107920	0	0	8249	537990	0	0
2024-10-08 11:51:47			0	38694	0	0	0	21573	20130	159632	27505	1054355	46244	107921	0	0	8249	538029	0	0
2024-10-08 11:52:47			0	38712	0	0	0	21571	20140	159624	27517	1054337	46255	107920	0	0	8250	537301	0	0
2024-10-08 11:53:47			0	38700	0	0	0	21573	20130	159576	27324	1054408	46254	107921	0	0	8249	537796	0	0
2024-10-08 11:54:47			0	38715	0	0	0	21571	20140	159632	27660	1054417	46244	107920	0	0	8250	537184	0	0
2024-10-08 11:55:47			0	38709	0	0	0	21576	20130	159588	27862	1054381	46254	107922	0	0	8250	537447	0	0
2024-10-08 11:56:47			0	38724	0	0	0	21592	20140	159453	27398	1054417	46255	107928	0	0	8250	536835	0	0
2024-10-08 11:57:47			0	38734	0	0	0	21592	20140	159453	27497	1054363	46255	107928	0	0	8251	536447	0	0
2024-10-08 11:58:47			0	38753	0	0	0	21594	20150	159249	27185	1054434	46278	107929	0	0	8252	535682	0	0
2024-10-08 11:59:47			0	38766	0	0	0	21605	20150	159309	27422	1054514	46256	107933	0	0	8253	535178	0	0
2024-10-08 12:00:47			0	38774	0	0	0	21602	20150	159317	27925	1054497	46256	107932	0	0	8253	534869	0	0
2024-10-08 12:01:47			0	38782	0	0	0	21586	20160	159169	27556	1054479	46257	107926	0	0	8254	534530	0	0
2024-10-08 12:02:47			0	38773	0	0	0	21597	20160	159261	27478	1054426	46268	107930	0	0	8253	534878	0	0
2024-10-08 12:03:47			0	38790	0	0	0	21597	20150	159165	27157	1054470	46256	107930	0	0	8254	534250	0	0
2024-10-08 12:04:47			0	38795	0	0	0	21597	20160	159133	27419	1054514	46269	107930	0	0	8254	534027	0	0
2024-10-08 12:05:47			0	38814	0	0	0	21612	20170	159113	27251	1054470	46248	107936	0	0	8255	533264	0	0
2024-10-08 12:06:47			0	38834	0	0	0	21620	20160	159105	27410	1054479	46268	107939	0	0	8256	532521	0	0
2024-10-08 12:07:47			0	38847	0	0	0	21615	20160	158933	27668	1054506	46247	107937	0	0	8257	532019	0	0
2024-10-08 12:08:47			0	38865	0	0	0	21615	20170	158893	27275	1054577	46269	107937	0	0	8258	531296	0	0
2024-10-08 12:09:47			0	38852	0	0	0	21581	20160	158885	27350	1054461	46291	107924	0	0	8258	531826	0	0
2024-10-08 12:10:47			0	38833	0	0	0	21573	20170	158893	27331	1054497	46248	107921	0	0	8257	532530	0	0
2024-10-08 12:11:47			0	38851	0	0	0	21563	20170	158921	27457	1054444	46236	107917	0	0	8258	531836	0	0
2024-10-08 12:12:47			0	38853	0	0	0	21558	20170	158973	27654	1054444	46236	107915	0	0	8258	531759	0	0
2024-10-08 12:13:47			0	38829	0	0	0	21545	20150	158941	27628	1054390	46246	107910	0	0	8257	532743	0	0
2024-10-08 12:14:47			0	38858	0	0	0	21563	20160	158981	28011	1054373	46247	107917	0	0	8259	531595	0	0
2024-10-08 12:15:47			0	38840	0	0	0	21579	20150	159037	27601	1054417	46246	107923	0	0	8257	532319	0	0
2024-10-08 12:16:47			0	38860	0	0	0	21612	20150	158905	27566	1054417	46246	107936	0	0	8258	531547	0	0
2024-10-08 12:17:47			0	38895	0	0	0	21602	20150	158829	27454	1054408	46256	107932	0	0	8260	530199	0	0
2024-10-08 12:18:47			0	38907	0	0	0	21594	20150	158689	27455	1054470	46278	107929	0	0	8261	529737	0	0
2024-10-08 12:19:47			0	38908	0	0	0	21594	20160	158637	27116	1054506	46268	107929	0	0	8261	529670	0	0
2024-10-08 12:20:47			0	38933	0	0	0	21594	20170	158653	27379	1054523	46258	107929	0	0	8263	528680	0	0
2024-10-08 12:21:47			0	38916	0	0	0	21597	20160	158601	27421	1054461	46269	107930	0	0	8261	529362	0	0
2024-10-08 12:22:47			0	38924	0	0	0	21612	20170	158577	27289	1054550	46280	107936	0	0	8262	529025	0	0
2024-10-08 12:23:47			0	38929	0	0	0	21597	20170	158561	27452	1054532	46259	107930	0	0	8262	528833	0	0
2024-10-08 12:24:47			0	38941	0	0	0	21561	20170	158461	27576	1054479	46259	107916	0	0	8264	528372	0	0
2024-10-08 12:25:47			0	38916	0	0	0	21561	20170	158605	27705	1054479	46249	107916	0	0	8262	529333	0	0
2024-10-08 12:26:47			0	38901	0	0	0	21563	20160	158641	27770	1054479	46235	107917	0	0	8261	529939	0	0
2024-10-08 12:27:47			0	38911	0	0	0	21561	20160	158525	27609	1054426	46247	107916	0	0	8262	529554	0	0
2024-10-08 12:28:47			0	38904	0	0	0	21592	20150	158693	27763	1054434	46234	107928	0	0	8261	529853	0	0
2024-10-08 12:29:47			0	38946	0	0	0	21623	20160	158433	27673	1054452	46279	107940	0	0	8263	528209	0	0
2024-10-08 12:30:47			0	38973	0	0	0	21644	20150	158369	27578	1054470	46256	107948	0	0	8264	527202	0	0
2024-10-08 12:31:47			0	39015	0	0	0	21636	20170	158149	27675	1054577	46280	107945	0	0	8267	525534	0	0
2024-10-08 12:32:47			0	39023	0	0	0	21633	20180	158289	27338	1054594	46259	107944	0	0	8267	525199	0	0
2024-10-08 12:33:47			0	39034	0	0	0	21612	20180	158113	27131	1054541	46270	107936	0	0	8268	524778	0	0
2024-10-08 12:34:47			0	39030	0	0	0	21612	20180	158253	27159	1054621	46259	107936	0	0	8268	524931	0	0
2024-10-08 12:35:47			0	39018	0	0	0	21607	20180	158213	27242	1054603	46260	107934	0	0	8267	525390	0	0
2024-10-08 12:36:47			0	39007	0	0	0	21602	20180	158165	27493	1054568	46259	107932	0	0	8267	525812	0	0
2024-10-08 12:37:47			0	39017	0	0	0	21615	20170	158241	27514	1054559	46249	107937	0	0	8267	525458	0	0
2024-10-08 12:38:47			0	39008	0	0	0	21586	20180	158169	27130	1054497	46271	107926	0	0	8267	525773	0	0
2024-10-08 12:39:47			0	38986	0	0	0	21581	20180	158261	27364	1054594	46249	107924	0	0	8266	526616	0	0
2024-10-08 12:40:47			0	38974	0	0	0	21589	20170	158381	27222	1054479	46249	107927	0	0	8265	527106	0	0
2024-10-08 12:41:47			0	38976	0	0	0	21607	20180	158397	27194	1054568	46259	107934	0	0	8265	527000	0	0
2024-10-08 12:42:47			0	38992	0	0	0	21623	20180	158297	27296	1054594	46259	107940	0	0	8266	526386	0	0
2024-10-08 12:43:47			0	38996	0	0	0	21579	20180	158289	27287	1054603	46250	107923	0	0	8266	526233	0	0
2024-10-08 12:44:47			0	38993	0	0	0	21584	20170	158221	27554	1054479	46259	107925	0	0	8266	526377	0	0
2024-10-08 12:45:47			0	38990	0	0	0	21618	20180	158381	27133	1054568	46249	107938	0	0	8265	526463	0	0
2024-10-08 12:46:47			0	39051	0	0	0	21636	20180	158141	27419	1054630	46250	107945	0	0	8269	524128	0	0
2024-10-08 12:47:47			0	39081	0	0	0	21625	20180	158009	27476	1054568	46259	107941	0	0	8271	522982	0	0
2024-10-08 12:48:47			0	39046	0	0	0	21592	20180	158053	27291	1054630	46260	107928	0	0	8269	524319	0	0
2024-10-08 12:49:47			0	39038	0	0	0	21605	20180	158065	27607	1054550	46260	107933	0	0	8268	524625	0	0
2024-10-08 12:50:47			0	39069	0	0	0	21631	20180	158009	27112	1054550	46260	107943	0	0	8270	523440	0	0
2024-10-08 12:51:47			0	39115	0	0	0	21641	20190	157973	27602	1054639	46261	107947	0	0	8272	521656	0	0
2024-10-08 12:52:47			0	39127	0	0	0	21628	20190	157825	27357	1054639	46261	107942	0	0	8273	521199	0	0
2024-10-08 12:53:47			0	39129	0	0	0	21625	20190	157837	27327	1054648	46261	107941	0	0	8273	521123	0	0
2024-10-08 12:54:47			0	39135	0	0	0	21625	20190	157933	27215	1054648	46250	107941	0	0	8274	520894	0	0
2024-10-08 12:55:47			0	39127	0	0	0	21644	20190	157869	27540	1054612	46272	107948	0	0	8273	521199	0	0
2024-10-08 12:56:47			0	39156	0	0	0	21651	20200	157605	27263	1054666	46284	107951	0	0	8275	520066	0	0
2024-10-08 12:57:47			0	39192	0	0	0	21636	20190	157657	27352	1054665	46261	107945	0	0	8277	518726	0	0
2024-10-08 12:58:47			0	39179	0	0	0	21638	20200	157553	27464	1054657	46272	107946	0	0	8276	519191	0	0
2024-10-08 12:59:47			0	39200	0	0	0	21646	20200	157545	27498	1054683	46261	107949	0	0	8277	518393	0	0
2024-10-08 13:00:47			0	39196	0	0	0	21651	20210	157625	27230	1054701	46252	107951	0	0	8277	518517	0	0
2024-10-08 13:01:47			0	39243	0	0	0	21654	20200	157461	27156	1054639	46251	107952	0	0	8280	516762	0	0
2024-10-08 13:02:47			0	39252	0	0	0	21659	20200	157369	27341	1054692	46273	107954	0	0	8280	516421	0	0
2024-10-08 13:03:47			0	39239	0	0	0	21657	20200	157305	27469	1054639	46273	107953	0	0	8279	516914	0	0
2024-10-08 13:04:47			0	39244	0	0	0	21651	20210	157365	27535	1054657	46263	107951	0	0	8280	516695	0	0
2024-10-08 13:05:47			0	39243	0	0	0	21649	20220	157309	27197	1054835	46264	107950	0	0	8280	516705	0	0
2024-10-08 13:06:47			0	39243	0	0	0	21620	20210	157425	27383	1054675	46252	107939	0	0	8280	516733	0	0
2024-10-08 13:07:47			0	39201	0	0	0	21646	20210	157585	27398	1054728	46252	107949	0	0	8277	518327	0	0
2024-10-08 13:08:47			0	39211	0	0	0	21657	20200	157509	27699	1054657	46250	107953	0	0	8278	517976	0	0
2024-10-08 13:09:47			0	39259	0	0	0	21641	20220	157429	27725	1054728	46253	107947	0	0	8281	516099	0	0
2024-10-08 13:10:47			0	39257	0	0	0	21657	20210	157405	27741	1054675	46252	107953	0	0	8280	516203	0	0
2024-10-08 13:11:47			0	39263	0	0	0	21651	20210	157289	27390	1054737	46274	107951	0	0	8281	515975	0	0
2024-10-08 13:12:47			0	39258	0	0	0	21644	20200	157329	27580	1054666	46262	107948	0	0	8281	516193	0	0
2024-10-08 13:13:47			0	39225	0	0	0	21633	20210	157313	27942	1054737	46263	107944	0	0	8279	517416	0	0
2024-10-08 13:14:47			0	39232	0	0	0	21644	20210	157473	27668	1054728	46274	107948	0	0	8279	517150	0	0
2024-10-08 13:15:47			0	39220	0	0	0	21625	20210	157505	27757	1054754	46263	107941	0	0	8279	517606	0	0
2024-10-08 13:16:47			0	39222	0	0	0	21664	20210	157569	27500	1054728	46263	107956	0	0	8278	517530	0	0
2024-10-08 13:17:47			0	39254	0	0	0	21670	20210	157289	27428	1054790	46252	107958	0	0	8280	516316	0	0
2024-10-08 13:18:47			0	39277	0	0	0	21672	20200	157133	27455	1054692	46251	107959	0	0	8281	515474	0	0
2024-10-08 13:19:47			0	39297	0	0	0	21677	20210	157221	27322	1054763	46263	107961	0	0	8282	514689	0	0
2024-10-08 13:20:47			0	39302	0	0	0	21662	20210	157145	27549	1054790	46274	107955	0	0	8283	514500	0	0
2024-10-08 13:21:47			0	39270	0	0	0	21636	20220	157181	27194	1054746	46263	107945	0	0	8282	515682	0	0
2024-10-08 13:22:47			0	39239	0	0	0	21662	20220	157245	27490	1054773	46263	107955	0	0	8279	516856	0	0
2024-10-08 13:23:47			0	39267	0	0	0	21662	20230	157177	27142	1054826	46276	107955	0	0	8281	515767	0	0
2024-10-08 13:24:47			0	39285	0	0	0	21677	20220	157213	27281	1054808	46275	107961	0	0	8282	515114	0	0
2024-10-08 13:25:47			0	39306	0	0	0	21675	20220	157029	27308	1054808	46253	107960	0	0	8283	514320	0	0
2024-10-08 13:26:47			0	39326	0	0	0	21670	20230	157053	27325	1054844	46265	107958	0	0	8284	513536	0	0
2024-10-08 13:27:47			0	39314	0	0	0	21670	20230	157013	27310	1054826	46265	107958	0	0	8284	513989	0	0
2024-10-08 13:28:47			0	39298	0	0	0	21667	20220	157081	27230	1054808	46253	107957	0	0	8283	514622	0	0
2024-10-08 13:29:47			0	39292	0	0	0	21659	20230	157177	27279	1054764	46265	107954	0	0	8283	514821	0	0
2024-10-08 13:30:47			0	39260	0	0	0	21633	20230	157321	27372	1054790	46254	107944	0	0	8281	516032	0	0
2024-10-08 13:31:47			0	39225	0	0	0	21633	20220	157377	27372	1054799	46263	107944	0	0	8279	517387	0	0
2024-10-08 13:32:47			0	39187	0	0	0	21636	20220	157505	27286	1054666	46252	107945	0	0	8277	518830	0	0
2024-10-08 13:33:47			0	39203	0	0	0	21644	20230	157461	27426	1054790	46265	107948	0	0	8278	518194	0	0
2024-10-08 13:34:47			0	39211	0	0	0	21644	20220	157457	27639	1054755	46264	107948	0	0	8278	517919	0	0
2024-10-08 13:35:47			0	39191	0	0	0	21646	20220	157433	27422	1054719	46263	107949	0	0	8277	518678	0	0
2024-10-08 13:36:47			0	39197	0	0	0	21646	20220	157481	27410	1054755	46264	107949	0	0	8277	518450	0	0
2024-10-08 13:37:47			0	39227	0	0	0	21664	20210	157289	27447	1054790	46263	107956	0	0	8279	517340	0	0
2024-10-08 13:38:47			0	39225	0	0	0	21651	20220	157353	27350	1054773	46285	107951	0	0	8279	517387	0	0
2024-10-08 13:39:47			0	39202	0	0	0	21636	20210	157405	27554	1054710	46263	107945	0	0	8278	518289	0	0
2024-10-08 13:40:47			0	39212	0	0	0	21638	20230	157621	27322	1054737	46254	107946	0	0	8278	517852	0	0
2024-10-08 13:41:47			0	39192	0	0	0	21659	20220	157509	27281	1054781	46264	107954	0	0	8277	518640	0	0
2024-10-08 13:42:47			0	39245	0	0	0	21675	20220	157285	27364	1054799	46252	107960	0	0	8279	516629	0	0
2024-10-08 13:43:47			0	39226	0	0	0	21649	20230	157277	27326	1054817	46265	107950	0	0	8279	517321	0	0
2024-10-08 13:44:47			0	39232	0	0	0	21670	20230	157421	27554	1054764	46265	107958	0	0	8279	517093	0	0
2024-10-08 13:45:47			0	39264	0	0	0	21662	20210	157393	27505	1054843	46274	107955	0	0	8281	515938	0	0
2024-10-08 13:46:47			0	39258	0	0	0	21677	20230	157177	27362	1054773	46265	107961	0	0	8280	516108	0	0
2024-10-08 13:47:47			0	39299	0	0	0	21670	20230	157213	27652	1054853	46265	107958	0	0	8283	514556	0	0
2024-10-08 13:48:47			0	39302	0	0	0	21664	20230	157209	27750	1054844	46276	107956	0	0	8283	514443	0	0
2024-10-08 13:49:47			0	39305	0	0	0	21659	20230	157197	27447	1054799	46265	107954	0	0	8283	514329	0	0
2024-10-08 13:50:47			0	39268	0	0	0	21636	20230	157365	27479	1054844	46265	107945	0	0	8282	515729	0	0
2024-10-08 13:51:47			0	39213	0	0	0	21628	20220	157517	27464	1054808	46264	107942	0	0	8278	517843	0	0
2024-10-08 13:52:47			0	39173	0	0	0	21615	20220	157669	27829	1054746	46252	107937	0	0	8276	519362	0	0
2024-10-08 13:53:47			0	39150	0	0	0	21636	20220	157717	27282	1054702	46231	107945	0	0	8275	520237	0	0
2024-10-08 13:54:47			0	39155	0	0	0	21646	20220	157777	27443	1054719	46252	107949	0	0	8275	520047	0	0
2024-10-08 13:55:47			0	39159	0	0	0	21646	20210	157649	27324	1054684	46252	107949	0	0	8275	519923	0	0
2024-10-08 13:56:47			0	39162	0	0	0	21638	20220	157753	27518	1054746	46252	107946	0	0	8275	519780	0	0
2024-10-08 13:57:47			0	39157	0	0	0	21651	20230	157845	27317	1054764	46254	107951	0	0	8275	519942	0	0
2024-10-08 13:58:47			0	39159	0	0	0	21659	20220	157665	27369	1054773	46263	107954	0	0	8275	519894	0	0
2024-10-08 13:59:47			0	39180	0	0	0	21672	20220	157741	27367	1054773	46285	107959	0	0	8276	519096	0	0
2024-10-08 14:00:47			0	39194	0	0	0	21675	20210	157681	27519	1054790	46263	107960	0	0	8276	518593	0	0
2024-10-08 14:01:47			0	39197	0	0	0	21638	20230	157621	27608	1054790	46276	107946	0	0	8277	518422	0	0
2024-10-08 14:02:47			0	39166	0	0	0	21636	20220	157781	27334	1054755	46264	107945	0	0	8276	519628	0	0
2024-10-08 14:03:47			0	39145	0	0	0	21633	20220	157693	27300	1054719	46252	107944	0	0	8274	520427	0	0
2024-10-08 14:04:47			0	39101	0	0	0	21633	20220	157993	27346	1054728	46253	107944	0	0	8272	522103	0	0
2024-10-08 14:05:47			0	39104	0	0	0	21657	20210	158013	27294	1054737	46274	107953	0	0	8272	522018	0	0
2024-10-08 14:06:47			0	39117	0	0	0	21644	20210	157913	27673	1054781	46274	107948	0	0	8273	521522	0	0
2024-10-08 14:07:47			0	39132	0	0	0	21680	20220	157881	27500	1054773	46274	107962	0	0	8273	520922	0	0
2024-10-08 14:08:47			0	39160	0	0	0	21657	20210	157725	27602	1054763	46274	107953	0	0	8275	519885	0	0
2024-10-08 14:09:47			0	39135	0	0	0	21633	20210	157793	27724	1054728	46263	107944	0	0	8274	520837	0	0
2024-10-08 14:10:47			0	39112	0	0	0	21633	20220	157873	27666	1054755	46253	107944	0	0	8272	521684	0	0
2024-10-08 14:11:47			0	39122	0	0	0	21638	20210	157937	27514	1054701	46252	107946	0	0	8273	521332	0	0
2024-10-08 14:12:47			0	39098	0	0	0	21628	20200	158017	27843	1054666	46251	107942	0	0	8272	522276	0	0
2024-10-08 14:13:47			0	39076	0	0	0	21618	20210	158017	27390	1054675	46252	107938	0	0	8271	523086	0	0
2024-10-08 14:14:47			0	39046	0	0	0	21631	20210	158057	27421	1054621	46263	107943	0	0	8269	524232	0	0
2024-10-08 14:15:47			0	39062	0	0	0	21638	20210	158149	27668	1054701	46263	107946	0	0	8269	523621	0	0
2024-10-08 14:16:47			0	39047	0	0	0	21623	20200	158301	27597	1054710	46261	107940	0	0	8269	524223	0	0
2024-10-08 14:17:47			0	39053	0	0	0	21628	20200	158237	27569	1054683	46250	107942	0	0	8269	523994	0	0
2024-10-08 14:18:47			0	39053	0	0	0	21633	20210	158169	27350	1054675	46263	107944	0	0	8269	523965	0	0
2024-10-08 14:19:47			0	39050	0	0	0	21625	20200	158161	27381	1054666	46251	107941	0	0	8269	524109	0	0
2024-10-08 14:20:47			0	39016	0	0	0	21623	20200	158177	27433	1054710	46261	107940	0	0	8267	525409	0	0
2024-10-08 14:21:47			0	39054	0	0	0	21623	20190	158205	27523	1054701	46250	107940	0	0	8269	523984	0	0
2024-10-08 14:22:47			0	39040	0	0	0	21623	20210	158165	27471	1054648	46252	107940	0	0	8268	524462	0	0
2024-10-08 14:23:47			0	39027	0	0	0	21636	20200	158133	27651	1054639	46273	107945	0	0	8267	524988	0	0
2024-10-08 14:24:47			0	39052	0	0	0	21636	20200	158157	27300	1054666	46251	107945	0	0	8269	524032	0	0
2024-10-08 14:25:47			0	39040	0	0	0	21638	20200	158189	27497	1054657	46283	107946	0	0	8268	524491	0	0
2024-10-08 14:26:47			0	39043	0	0	0	21636	20210	158133	27483	1054701	46252	107945	0	0	8268	524347	0	0
2024-10-08 14:27:47			0	39046	0	0	0	21636	20200	158189	27505	1054630	46250	107945	0	0	8269	524261	0	0
2024-10-08 14:28:47			0	39047	0	0	0	21623	20200	158241	27727	1054657	46261	107940	0	0	8269	524223	0	0
2024-10-08 14:29:47			0	39035	0	0	0	21620	20190	158209	27403	1054674	46250	107939	0	0	8268	524711	0	0
2024-10-08 14:30:47			0	39027	0	0	0	21612	20200	158209	27357	1054612	46262	107936	0	0	8268	524988	0	0
2024-10-08 14:31:47			0	39018	0	0	0	21628	20200	158241	27355	1054657	46250	107942	0	0	8267	525332	0	0
2024-10-08 14:32:47			0	39023	0	0	0	21618	20200	158221	27654	1054683	46239	107938	0	0	8267	525141	0	0
2024-10-08 14:33:47			0	39011	0	0	0	21612	20190	158361	27471	1054648	46261	107936	0	0	8267	525629	0	0
2024-10-08 14:34:47			0	39012	0	0	0	21620	20190	158349	27580	1054612	46272	107939	0	0	8267	525591	0	0
2024-10-08 14:35:47			0	38983	0	0	0	21610	20190	158465	27410	1054648	46261	107935	0	0	8265	526702	0	0
2024-10-08 14:36:47			0	39001	0	0	0	21620	20180	158445	27402	1054577	46260	107939	0	0	8266	526041	0	0
2024-10-08 14:37:47			0	39001	0	0	0	21623	20190	158409	27253	1054692	46239	107940	0	0	8266	526012	0	0
2024-10-08 14:38:47			0	39009	0	0	0	21625	20190	158317	27171	1054648	46261	107941	0	0	8267	525706	0	0
2024-10-08 14:39:47			0	39020	0	0	0	21628	20190	158305	26906	1054701	46261	107942	0	0	8267	525285	0	0
2024-10-08 14:40:47			0	39029	0	0	0	21633	20190	158317	27378	1054621	46261	107944	0	0	8268	524941	0	0
2024-10-08 14:41:47			0	39018	0	0	0	21623	20190	158229	27152	1054719	46261	107940	0	0	8267	525361	0	0
2024-10-08 14:42:47			0	39031	0	0	0	21636	20200	158309	27365	1054630	46261	107945	0	0	8268	524835	0	0
2024-10-08 14:43:47			0	39026	0	0	0	21623	20190	158265	27339	1054648	46261	107940	0	0	8268	525055	0	0
2024-10-08 14:44:47			0	39037	0	0	0	21620	20190	158225	27303	1054639	46250	107939	0	0	8268	524635	0	0
2024-10-08 14:45:47			0	39019	0	0	0	21620	20190	158245	27154	1054701	46261	107939	0	0	8267	525323	0	0
2024-10-08 14:46:47			0	39010	0	0	0	21628	20200	158397	27255	1054630	46272	107942	0	0	8267	525639	0	0
2024-10-08 14:47:47			0	39015	0	0	0	21620	20190	158401	27637	1054674	46228	107939	0	0	8267	525476	0	0
2024-10-08 14:48:47			0	39016	0	0	0	21623	20190	158345	27208	1054648	46261	107940	0	0	8267	525438	0	0
2024-10-08 14:49:47			0	38990	0	0	0	21615	20180	158361	27222	1054603	46271	107937	0	0	8266	526463	0	0
2024-10-08 14:50:47			0	39014	0	0	0	21620	20190	158389	27692	1054612	46261	107939	0	0	8267	525515	0	0
2024-10-08 14:51:47			0	39006	0	0	0	21612	20200	158409	27180	1054683	46261	107936	0	0	8267	525792	0	0
2024-10-08 14:52:47			0	39020	0	0	0	21620	20190	158341	27386	1054701	46261	107939	0	0	8267	525285	0	0
2024-10-08 14:53:47			0	38995	0	0	0	21607	20190	158345	27213	1054586	46250	107934	0	0	8266	526242	0	0
2024-10-08 14:54:47			0	39017	0	0	0	21625	20200	158337	27339	1054630	46250	107941	0	0	8267	525371	0	0
2024-10-08 14:55:47			0	39036	0	0	0	21615	20190	158345	27391	1054674	46250	107937	0	0	8268	524673	0	0
2024-10-08 14:56:47			0	39017	0	0	0	21612	20180	158365	27095	1054656	46260	107936	0	0	8267	525429	0	0
2024-10-08 14:57:47			0	39018	0	0	0	21618	20190	158497	26882	1054612	46272	107938	0	0	8267	525361	0	0
2024-10-08 14:58:47			0	39026	0	0	0	21612	20200	158329	27222	1054630	46261	107936	0	0	8268	525026	0	0
2024-10-08 14:59:47			0	39019	0	0	0	21620	20190	158337	27218	1054621	46250	107939	0	0	8267	525323	0	0
2024-10-08 15:00:47			0	39025	0	0	0	21618	20190	158409	27367	1054621	46283	107938	0	0	8268	525093	0	0
2024-10-08 15:01:47			0	39034	0	0	0	21618	20180	158305	27083	1054603	46260	107938	0	0	8268	524778	0	0
2024-10-08 15:02:47			0	39020	0	0	0	21618	20180	158369	27516	1054630	46271	107938	0	0	8267	525314	0	0
2024-10-08 15:03:47			0	39034	0	0	0	21618	20180	158309	27206	1054541	46249	107938	0	0	8268	524778	0	0
2024-10-08 15:04:47			0	39029	0	0	0	21605	20180	158269	27343	1054603	46260	107933	0	0	8268	524969	0	0
2024-10-08 15:05:47			0	39020	0	0	0	21620	20180	158249	27604	1054568	46259	107939	0	0	8267	525314	0	0
2024-10-08 15:06:47			0	39037	0	0	0	21620	20200	158225	27651	1054683	46239	107939	0	0	8268	524606	0	0
2024-10-08 15:07:47			0	39026	0	0	0	21615	20190	158305	27256	1054559	46261	107937	0	0	8268	525055	0	0
2024-10-08 15:08:47			0	39014	0	0	0	21610	20180	158197	27476	1054621	46259	107935	0	0	8267	525544	0	0
2024-10-08 15:09:47			0	39028	0	0	0	21607	20190	158301	27173	1054639	46272	107934	0	0	8268	524979	0	0
2024-10-08 15:10:47			0	39017	0	0	0	21612	20180	158309	27041	1054568	46237	107936	0	0	8267	525429	0	0
2024-10-08 15:11:47			0	39001	0	0	0	21615	20190	158365	27481	1054648	46250	107937	0	0	8266	526012	0	0
2024-10-08 15:12:47			0	39017	0	0	0	21612	20190	158345	27197	1054586	46261	107936	0	0	8267	525400	0	0
2024-10-08 15:13:47			0	39019	0	0	0	21610	20180	158305	27578	1054550	46271	107935	0	0	8267	525352	0	0
2024-10-08 15:14:47			0	39026	0	0	0	21599	20170	158357	27275	1054585	46259	107931	0	0	8268	525113	0	0
2024-10-08 15:15:47			0	39000	0	0	0	21610	20170	158269	27530	1054532	46259	107935	0	0	8266	526109	0	0
2024-10-08 15:16:47			0	39015	0	0	0	21605	20180	158333	27142	1054594	46270	107933	0	0	8267	525505	0	0
2024-10-08 15:17:47			0	39017	0	0	0	21602	20170	158293	27488	1054585	46259	107932	0	0	8267	525458	0	0
2024-10-08 15:18:47			0	39012	0	0	0	21607	20180	158353	27507	1054594	46249	107934	0	0	8267	525620	0	0
2024-10-08 15:19:47			0	38982	0	0	0	21597	20180	158477	27260	1054541	46249	107930	0	0	8265	526770	0	0
2024-10-08 15:20:47			0	38976	0	0	0	21602	20180	158513	27062	1054541	46237	107932	0	0	8265	527000	0	0
2024-10-08 15:21:47			0	38980	0	0	0	21605	20180	158513	27156	1054541	46259	107933	0	0	8265	526846	0	0
2024-10-08 15:22:47			0	38992	0	0	0	21599	20180	158513	27013	1054550	46260	107931	0	0	8266	526386	0	0
2024-10-08 15:23:47			0	38982	0	0	0	21597	20180	158533	27131	1054577	46250	107930	0	0	8265	526770	0	0
2024-10-08 15:24:47			0	38968	0	0	0	21599	20180	158525	27190	1054594	46249	107931	0	0	8265	527307	0	0
2024-10-08 15:25:47			0	38961	0	0	0	21599	20170	158353	27045	1054577	46248	107931	0	0	8264	527604	0	0
2024-10-08 15:26:47			0	38982	0	0	0	21592	20170	158549	27265	1054585	46249	107928	0	0	8265	526799	0	0
2024-10-08 15:27:47			0	38976	0	0	0	21594	20170	158485	27367	1054523	46258	107929	0	0	8265	527029	0	0
2024-10-08 15:28:47			0	38961	0	0	0	21584	20160	158497	27220	1054461	46248	107925	0	0	8264	527633	0	0
2024-10-08 15:29:47			0	38971	0	0	0	21594	20160	158633	27509	1054532	46257	107929	0	0	8265	527250	0	0
2024-10-08 15:30:47			0	38957	0	0	0	21589	20170	158553	27202	1054523	46258	107927	0	0	8264	527758	0	0
2024-10-08 15:31:47			0	38962	0	0	0	21594	20160	158617	27294	1054541	46258	107929	0	0	8264	527595	0	0
2024-10-08 15:32:47			0	38980	0	0	0	21594	20170	158593	27353	1054523	46248	107929	0	0	8265	526875	0	0
2024-10-08 15:33:47			0	38974	0	0	0	21594	20170	158593	27327	1054550	46248	107929	0	0	8265	527106	0	0
2024-10-08 15:34:47			0	38978	0	0	0	21592	20170	158621	27197	1054550	46258	107928	0	0	8265	526952	0	0
2024-10-08 15:35:47			0	38976	0	0	0	21592	20160	158641	27239	1054514	46269	107928	0	0	8265	527058	0	0
2024-10-08 15:36:47			0	38958	0	0	0	21597	20160	158589	27381	1054506	46268	107930	0	0	8264	527749	0	0
2024-10-08 15:37:47			0	38987	0	0	0	21612	20150	158677	27327	1054603	46256	107936	0	0	8265	526665	0	0
2024-10-08 15:38:47			0	38967	0	0	0	21610	20170	158533	27495	1054550	46258	107935	0	0	8264	527374	0	0
2024-10-08 15:39:47			0	38982	0	0	0	21607	20170	158521	27294	1054559	46270	107934	0	0	8265	526799	0	0
2024-10-08 15:40:47			0	39005	0	0	0	21612	20160	158465	26927	1054568	46248	107936	0	0	8266	525946	0	0
2024-10-08 15:41:47			0	38992	0	0	0	21605	20170	158509	27086	1054550	46291	107933	0	0	8266	526415	0	0
2024-10-08 15:42:47			0	39002	0	0	0	21607	20170	158441	27293	1054630	46258	107934	0	0	8266	526032	0	0
2024-10-08 15:43:47			0	38999	0	0	0	21607	20170	158493	27057	1054550	46258	107934	0	0	8266	526147	0	0
2024-10-08 15:44:47			0	39004	0	0	0	21602	20170	158497	27119	1054603	46248	107932	0	0	8267	525955	0	0
2024-10-08 15:45:47			0	39004	0	0	0	21607	20170	158453	27384	1054577	46258	107934	0	0	8266	525955	0	0
2024-10-08 15:46:47			0	38991	0	0	0	21605	20170	158445	27211	1054585	46281	107933	0	0	8266	526454	0	0
2024-10-08 15:47:47			0	39001	0	0	0	21618	20170	158417	27114	1054559	46237	107938	0	0	8266	526071	0	0
2024-10-08 15:48:47			0	38988	0	0	0	21612	20170	158437	27170	1054559	46249	107936	0	0	8265	526569	0	0
2024-10-08 15:49:47			0	38997	0	0	0	21605	20170	158401	27046	1054559	46281	107933	0	0	8266	526224	0	0
2024-10-08 15:50:47			0	39011	0	0	0	21605	20170	158309	27320	1054523	46269	107933	0	0	8267	525687	0	0
2024-10-08 15:51:47			0	39007	0	0	0	21605	20170	158493	27296	1054585	46259	107933	0	0	8267	525841	0	0
2024-10-08 15:52:47			0	38995	0	0	0	21607	20170	158441	26975	1054523	46258	107934	0	0	8266	526300	0	0
2024-10-08 15:53:47			0	38988	0	0	0	21607	20170	158433	27206	1054550	46248	107934	0	0	8266	526569	0	0
2024-10-08 15:54:47			0	39010	0	0	0	21612	20170	158413	27185	1054630	46248	107936	0	0	8267	525726	0	0
2024-10-08 15:55:47			0	38998	0	0	0	21610	20170	158509	26965	1054577	46258	107935	0	0	8266	526185	0	0
2024-10-08 15:56:47			0	39009	0	0	0	21597	20160	158421	27135	1054568	46258	107930	0	0	8267	525793	0	0
2024-10-08 15:57:47			0	38983	0	0	0	21607	20170	158429	27161	1054532	46259	107934	0	0	8265	526760	0	0
2024-10-08 15:58:47			0	38992	0	0	0	21607	20180	158505	27090	1054568	46259	107934	0	0	8266	526386	0	0
2024-10-08 15:59:47			0	38989	0	0	0	21599	20170	158417	27300	1054639	46259	107931	0	0	8266	526530	0	0
2024-10-08 16:00:47			0	38984	0	0	0	21602	20190	158449	27372	1054586	46250	107932	0	0	8265	526664	0	0
2024-10-08 16:01:47			0	38984	0	0	0	21602	20170	158425	27438	1054559	46249	107932	0	0	8265	526722	0	0
2024-10-08 16:02:47			0	38968	0	0	0	21599	20170	158501	27324	1054577	46236	107931	0	0	8264	527336	0	0
2024-10-08 16:03:47			0	38958	0	0	0	21594	20170	158501	27128	1054523	46258	107929	0	0	8264	527719	0	0
2024-10-08 16:04:47			0	38951	0	0	0	21594	20160	158573	27121	1054621	46269	107929	0	0	8264	528017	0	0
2024-10-08 16:05:47			0	38940	0	0	0	21597	20170	158681	27289	1054523	46258	107930	0	0	8263	528411	0	0
2024-10-08 16:06:47			0	38945	0	0	0	21586	20160	158501	27255	1054479	46268	107926	0	0	8263	528248	0	0
2024-10-08 16:07:47			0	38948	0	0	0	21594	20160	158597	27057	1054594	46248	107929	0	0	8263	528132	0	0
2024-10-08 16:08:47			0	38943	0	0	0	21586	20170	158617	27142	1054577	46248	107926	0	0	8263	528295	0	0
2024-10-08 16:09:47			0	38956	0	0	0	21589	20160	158677	27523	1054532	46257	107927	0	0	8264	527825	0	0
2024-10-08 16:10:47			0	38918	0	0	0	21581	20160	158769	27053	1054506	46257	107924	0	0	8262	529285	0	0
2024-10-08 16:11:47			0	38928	0	0	0	21592	20160	158629	27013	1054479	46247	107928	0	0	8262	528901	0	0
2024-10-08 16:12:47			0	38920	0	0	0	21584	20160	158729	27287	1054568	46258	107925	0	0	8262	529208	0	0
2024-10-08 16:13:47			0	38924	0	0	0	21584	20150	158713	27211	1054443	46246	107925	0	0	8262	529084	0	0
2024-10-08 16:14:47			0	38922	0	0	0	21573	20160	158785	27303	1054426	46257	107921	0	0	8262	529131	0	0
2024-10-08 16:15:47			0	38912	0	0	0	21579	20150	158797	26996	1054497	46246	107923	0	0	8261	529545	0	0
2024-10-08 16:16:47			0	38898	0	0	0	21573	20160	158749	27206	1054479	46235	107921	0	0	8261	530055	0	0
2024-10-08 16:17:47			0	38915	0	0	0	21576	20160	158817	27590	1054514	46280	107922	0	0	8262	529401	0	0
2024-10-08 16:18:47			0	38897	0	0	0	21581	20140	158749	27260	1054443	46255	107924	0	0	8261	530151	0	0
2024-10-08 16:19:47			0	38900	0	0	0	21579	20160	158753	27365	1054452	46247	107923	0	0	8261	529977	0	0
2024-10-08 16:20:47			0	38894	0	0	0	21581	20150	158849	27410	1054434	46256	107924	0	0	8260	530238	0	0
2024-10-08 16:21:47			0	38902	0	0	0	21584	20150	158881	27471	1054470	46246	107925	0	0	8261	529930	0	0
2024-10-08 16:22:47			0	38887	0	0	0	21566	20150	158937	27348	1054461	46246	107918	0	0	8260	530507	0	0
2024-10-08 16:23:47			0	38892	0	0	0	21579	20150	158857	27497	1054434	46256	107923	0	0	8260	530315	0	0
2024-10-08 16:24:47			0	38889	0	0	0	21573	20140	158821	27519	1054417	46266	107921	0	0	8260	530459	0	0
2024-10-08 16:25:47			0	38885	0	0	0	21566	20160	158789	27291	1054452	46268	107918	0	0	8260	530555	0	0
2024-10-08 16:26:47			0	38883	0	0	0	21561	20140	158941	27435	1054470	46244	107916	0	0	8260	530691	0	0
2024-10-08 16:27:47			0	38879	0	0	0	21571	20140	158845	27279	1054417	46244	107920	0	0	8260	530844	0	0
2024-10-08 16:28:47			0	38893	0	0	0	21573	20130	158781	27194	1054408	46254	107921	0	0	8260	530335	0	0
2024-10-08 16:29:47			0	38883	0	0	0	21568	20150	158837	27180	1054443	46246	107919	0	0	8260	530661	0	0
2024-10-08 16:30:47			0	38882	0	0	0	21571	20140	158877	27364	1054443	46255	107920	0	0	8260	530729	0	0
2024-10-08 16:31:47			0	38886	0	0	0	21561	20130	158969	27222	1054434	46254	107916	0	0	8260	530604	0	0
2024-10-08 16:32:47			0	38871	0	0	0	21550	20150	159017	27502	1054461	46246	107912	0	0	8260	531124	0	0
2024-10-08 16:33:47			0	38863	0	0	0	21555	20140	158977	27218	1054417	46255	107914	0	0	8259	531461	0	0
2024-10-08 16:34:47			0	38860	0	0	0	21563	20140	159069	27462	1054390	46244	107917	0	0	8259	531577	0	0
2024-10-08 16:35:47			0	38857	0	0	0	21553	20130	158821	27298	1054434	46244	107913	0	0	8259	531722	0	0
2024-10-08 16:36:47			0	38853	0	0	0	21558	20130	158937	27396	1054346	46244	107915	0	0	8258	531876	0	0
2024-10-08 16:37:47			0	38848	0	0	0	21561	20130	158997	27556	1054399	46254	107916	0	0	8258	532069	0	0
2024-10-08 16:38:47			0	38830	0	0	0	21558	20130	158833	27535	1054381	46244	107915	0	0	8257	532763	0	0
2024-10-08 16:39:47			0	38845	0	0	0	21561	20130	158921	27270	1054399	46232	107916	0	0	8258	532185	0	0
2024-10-08 16:40:47			0	38851	0	0	0	21550	20130	158873	27691	1054381	46254	107912	0	0	8258	531953	0	0
2024-10-08 16:41:47			0	38836	0	0	0	21561	20130	158889	27374	1054346	46244	107916	0	0	8257	532532	0	0
2024-10-08 16:42:47			0	38843	0	0	0	21555	20130	158921	27324	1054381	46254	107914	0	0	8258	532262	0	0
2024-10-08 16:43:47			0	38836	0	0	0	21548	20130	158829	27286	1054372	46254	107911	0	0	8257	532532	0	0
2024-10-08 16:44:47			0	38835	0	0	0	21548	20130	158925	27326	1054408	46244	107911	0	0	8257	532570	0	0
2024-10-08 16:45:47			0	38834	0	0	0	21542	20120	159009	27208	1054301	46253	107909	0	0	8257	532638	0	0
2024-10-08 16:46:47			0	38828	0	0	0	21545	20120	158941	27455	1054363	46254	107910	0	0	8257	532870	0	0
2024-10-08 16:47:47			0	38835	0	0	0	21540	20120	158929	27440	1054275	46253	107908	0	0	8258	532600	0	0
2024-10-08 16:48:47			0	38822	0	0	0	21540	20120	159021	27222	1054337	46244	107908	0	0	8257	533102	0	0
2024-10-08 16:49:47			0	38817	0	0	0	21542	20120	159005	27170	1054301	46253	107909	0	0	8256	533295	0	0
2024-10-08 16:50:47			0	38829	0	0	0	21527	20110	158961	27537	1054283	46242	107903	0	0	8257	532861	0	0
2024-10-08 16:51:47			0	38828	0	0	0	21532	20120	158981	27312	1054301	46253	107905	0	0	8257	532870	0	0
2024-10-08 16:52:47			0	38842	0	0	0	21548	20120	159041	27428	1054328	46243	107911	0	0	8258	532330	0	0
2024-10-08 16:53:47			0	38827	0	0	0	21537	20110	159077	27284	1054239	46242	107907	0	0	8257	532938	0	0
2024-10-08 16:54:47			0	38837	0	0	0	21532	20110	159073	27339	1054292	46252	107905	0	0	8258	532552	0	0
2024-10-08 16:55:47			0	38835	0	0	0	21535	20100	158949	27504	1054301	46251	107906	0	0	8258	532659	0	0
2024-10-08 16:56:47			0	38832	0	0	0	21532	20110	158977	27329	1054266	46252	107905	0	0	8257	532745	0	0
2024-10-08 16:57:47			0	38817	0	0	0	21532	20110	158997	27230	1054257	46242	107905	0	0	8257	533324	0	0
2024-10-08 16:58:47			0	38821	0	0	0	21529	20100	159017	27239	1054248	46240	107904	0	0	8257	533199	0	0
2024-10-08 16:59:47			0	38825	0	0	0	21532	20100	159081	27071	1054274	46240	107905	0	0	8257	533045	0	0
2024-10-08 17:00:47			0	38810	0	0	0	21524	20090	159097	27478	1054203	46250	107902	0	0	8256	533654	0	0
2024-10-08 17:01:47			0	38818	0	0	0	21532	20090	159033	27391	1054230	46239	107905	0	0	8257	533344	0	0
2024-10-08 17:02:47			0	38803	0	0	0	21529	20100	159053	27150	1054186	46229	107904	0	0	8256	533895	0	0
2024-10-08 17:03:47			0	38808	0	0	0	21529	20100	159145	27435	1054212	46240	107904	0	0	8256	533701	0	0
2024-10-08 17:04:47			0	38793	0	0	0	21516	20090	159141	27419	1054230	46239	107899	0	0	8255	534311	0	0
2024-10-08 17:05:47			0	38800	0	0	0	21524	20100	159141	27275	1054221	46240	107902	0	0	8256	534011	0	0
2024-10-08 17:06:47			0	38781	0	0	0	21514	20100	159217	27339	1054168	46240	107898	0	0	8255	534746	0	0
2024-10-08 17:07:47			0	38788	0	0	0	21519	20090	159305	27272	1054221	46250	107900	0	0	8255	534504	0	0
2024-10-08 17:08:47			0	38771	0	0	0	21522	20090	159201	27613	1054230	46239	107901	0	0	8254	535162	0	0
2024-10-08 17:09:47			0	38774	0	0	0	21514	20090	159213	27376	1054203	46261	107898	0	0	8254	535046	0	0
2024-10-08 17:10:47			0	38773	0	0	0	21516	20090	159269	27505	1054256	46250	107899	0	0	8254	535085	0	0
2024-10-08 17:11:47			0	38761	0	0	0	21524	20090	159225	27367	1054221	46250	107902	0	0	8253	535549	0	0
2024-10-08 17:12:47			0	38759	0	0	0	21511	20090	159241	27393	1054230	46250	107897	0	0	8253	535627	0	0
2024-10-08 17:13:47			0	38772	0	0	0	21527	20090	159265	27635	1054221	46228	107903	0	0	8254	535123	0	0
2024-10-08 17:14:47			0	38784	0	0	0	21516	20090	159321	27173	1054256	46239	107899	0	0	8255	534659	0	0
2024-10-08 17:15:47			0	38768	0	0	0	21511	20080	159285	27331	1054176	46250	107897	0	0	8254	535308	0	0
2024-10-08 17:16:47			0	38775	0	0	0	21519	20090	159297	27666	1054221	46250	107900	0	0	8254	535007	0	0
2024-10-08 17:17:47			0	38767	0	0	0	21511	20080	159293	27138	1054158	46238	107897	0	0	8254	535346	0	0
2024-10-08 17:18:47			0	38761	0	0	0	21509	20080	159309	27727	1054096	46227	107896	0	0	8254	535579	0	0
2024-10-08 17:19:47			0	38762	0	0	0	21514	20080	159277	27632	1054079	46238	107898	0	0	8254	535540	0	0
2024-10-08 17:20:47			0	38771	0	0	0	21522	20090	159385	27081	1054167	46250	107901	0	0	8254	535162	0	0
2024-10-08 17:21:47			0	38774	0	0	0	21511	20080	159385	27628	1054123	46227	107897	0	0	8254	535075	0	0
2024-10-08 17:22:47			0	38775	0	0	0	21516	20090	159317	27412	1054194	46228	107899	0	0	8254	535007	0	0
2024-10-08 17:23:47			0	38748	0	0	0	21511	20080	159261	27161	1054105	46250	107897	0	0	8253	536082	0	0
2024-10-08 17:24:47			0	38757	0	0	0	21514	20080	159297	27327	1054203	46216	107898	0	0	8253	535734	0	0
2024-10-08 17:25:47			0	38754	0	0	0	21511	20080	159413	27597	1054123	46238	107897	0	0	8253	535850	0	0
2024-10-08 17:26:47			0	38729	0	0	0	21501	20080	159425	27395	1054176	46250	107893	0	0	8252	536819	0	0
2024-10-08 17:27:47			0	38736	0	0	0	21511	20080	159417	27204	1054176	46238	107897	0	0	8252	536548	0	0
2024-10-08 17:28:47			0	38751	0	0	0	21519	20080	159369	27410	1054176	46250	107900	0	0	8253	535966	0	0
2024-10-08 17:29:47			0	38751	0	0	0	21511	20080	159373	27333	1054158	46260	107897	0	0	8253	535966	0	0
2024-10-08 17:30:47			0	38754	0	0	0	21511	20090	159409	27294	1054194	46250	107897	0	0	8253	535820	0	0
2024-10-08 17:31:47			0	38754	0	0	0	21496	20080	159397	27512	1054096	46250	107891	0	0	8253	535850	0	0
2024-10-08 17:32:47			0	38742	0	0	0	21506	20070	159441	27611	1054114	46237	107895	0	0	8252	536345	0	0
2024-10-08 17:33:47			0	38760	0	0	0	21501	20080	159413	27322	1054265	46238	107893	0	0	8254	535618	0	0
2024-10-08 17:34:47			0	38758	0	0	0	21501	20080	159445	27272	1054150	46250	107893	0	0	8254	535695	0	0
2024-10-08 17:35:47			0	38745	0	0	0	21501	20070	159361	27434	1054141	46249	107893	0	0	8253	536228	0	0
2024-10-08 17:36:47			0	38751	0	0	0	21503	20080	159345	27367	1054185	46238	107894	0	0	8253	535966	0	0
2024-10-08 17:37:47			0	38757	0	0	0	21501	20080	159417	27303	1054123	46227	107893	0	0	8253	535734	0	0
2024-10-08 17:38:47			0	38764	0	0	0	21514	20080	159369	27365	1054150	46238	107898	0	0	8254	535463	0	0
2024-10-08 17:39:47			0	38732	0	0	0	21506	20080	159457	27443	1054132	46250	107895	0	0	8252	536703	0	0
2024-10-08 17:40:47			0	38727	0	0	0	21509	20070	159457	27147	1054132	46237	107896	0	0	8252	536926	0	0
2024-10-08 17:41:47			0	38715	0	0	0	21506	20080	159580	27478	1054150	46238	107895	0	0	8251	537362	0	0
2024-10-08 17:42:47			0	38715	0	0	0	21511	20080	159456	27173	1054150	46238	107897	0	0	8251	537362	0	0
2024-10-08 17:43:47			0	38704	0	0	0	21509	20080	159528	27409	1054096	46250	107896	0	0	8250	537789	0	0
2024-10-08 17:44:47			0	38708	0	0	0	21511	20070	159604	27388	1054167	46249	107897	0	0	8250	537663	0	0
2024-10-08 17:45:47			0	38712	0	0	0	21511	20070	159592	27559	1054141	46237	107897	0	0	8251	537508	0	0
2024-10-08 17:46:47			0	38735	0	0	0	21509	20080	159493	27441	1054123	46250	107896	0	0	8252	536586	0	0
2024-10-08 17:47:47			0	38733	0	0	0	21509	20080	159436	27687	1054123	46260	107896	0	0	8252	536664	0	0
2024-10-08 17:48:47			0	38743	0	0	0	21503	20080	159477	27230	1054150	46238	107894	0	0	8253	536276	0	0
2024-10-08 17:49:47			0	38734	0	0	0	21498	20070	159505	27435	1054141	46249	107892	0	0	8252	536655	0	0
2024-10-08 17:50:47			0	38730	0	0	0	21506	20060	159548	27386	1054096	46236	107895	0	0	8252	536839	0	0
2024-10-08 17:51:47			0	38734	0	0	0	21501	20070	159473	27150	1054079	46249	107893	0	0	8252	536655	0	0
2024-10-08 17:52:47			0	38708	0	0	0	21511	20080	159556	27440	1054123	46250	107897	0	0	8250	537634	0	0
2024-10-08 17:53:47			0	38725	0	0	0	21511	20070	159520	27268	1054114	46249	107897	0	0	8251	537004	0	0
2024-10-08 17:54:47			0	38722	0	0	0	21509	20080	159600	27492	1054150	46238	107896	0	0	8251	537090	0	0
2024-10-08 17:55:47			0	38712	0	0	0	21498	20080	159564	27426	1054123	46250	107892	0	0	8251	537478	0	0
2024-10-08 17:56:47			0	38720	0	0	0	21506	20080	159512	27434	1054150	46250	107895	0	0	8251	537168	0	0
2024-10-08 17:57:47			0	38723	0	0	0	21509	20070	159637	27528	1054105	46237	107896	0	0	8251	537081	0	0
2024-10-08 17:58:47			0	38725	0	0	0	21503	20070	159565	27486	1054167	46237	107894	0	0	8252	537004	0	0
2024-10-08 17:59:47			0	38731	0	0	0	21503	20070	159529	27379	1054114	46237	107894	0	0	8252	536771	0	0
2024-10-08 18:00:47			0	38741	0	0	0	21509	20070	159525	27438	1054061	46249	107896	0	0	8252	536383	0	0
2024-10-08 18:01:47			0	38732	0	0	0	21501	20080	159545	27428	1054123	46238	107893	0	0	8252	536703	0	0
2024-10-08 18:02:47			0	38746	0	0	0	21509	20070	159545	27374	1054141	46249	107896	0	0	8253	536190	0	0
2024-10-08 18:03:47			0	38741	0	0	0	21509	20060	159509	27329	1054096	46214	107896	0	0	8252	536413	0	0
2024-10-08 18:04:47			0	38720	0	0	0	21498	20070	159644	27287	1054079	46249	107892	0	0	8251	537198	0	0
2024-10-08 18:05:47			0	38719	0	0	0	21501	20070	159556	27130	1054087	46249	107893	0	0	8251	537236	0	0
2024-10-08 18:06:47			0	38711	0	0	0	21498	20070	159600	27196	1054141	46226	107892	0	0	8251	537547	0	0
2024-10-08 18:07:47			0	38711	0	0	0	21496	20070	159652	27504	1054079	46237	107891	0	0	8251	537547	0	0
2024-10-08 18:08:47			0	38689	0	0	0	21503	20070	159652	27666	1054114	46249	107894	0	0	8249	538401	0	0
2024-10-08 18:09:47			0	38706	0	0	0	21498	20070	159728	27562	1054141	46237	107892	0	0	8251	537741	0	0
2024-10-08 18:10:47			0	38708	0	0	0	21498	20070	159728	27403	1054105	46237	107892	0	0	8251	537663	0	0
2024-10-08 18:11:47			0	38708	0	0	0	21498	20060	159768	27443	1054070	46236	107892	0	0	8251	537693	0	0
2024-10-08 18:12:47			0	38698	0	0	0	21493	20070	159724	27587	1054105	46249	107890	0	0	8250	538052	0	0
2024-10-08 18:13:47			0	38689	0	0	0	21498	20060	159688	27267	1054061	46235	107892	0	0	8249	538431	0	0
2024-10-08 18:14:47			0	38690	0	0	0	21498	20070	159756	27289	1054079	46270	107892	0	0	8250	538363	0	0
2024-10-08 18:15:47			0	38694	0	0	0	21503	20080	159820	27405	1054096	46260	107894	0	0	8250	538177	0	0
2024-10-08 18:16:47			0	38693	0	0	0	21506	20070	159692	27119	1054105	46237	107895	0	0	8250	538246	0	0
2024-10-08 18:17:47			0	38683	0	0	0	21493	20060	159692	26941	1054034	46247	107890	0	0	8249	538664	0	0
2024-10-08 18:18:47			0	38673	0	0	0	21501	20070	159760	27499	1054052	46259	107893	0	0	8249	539023	0	0
2024-10-08 18:19:47			0	38689	0	0	0	21506	20070	159792	27336	1054079	46249	107895	0	0	8249	538401	0	0
2024-10-08 18:20:47			0	38668	0	0	0	21501	20060	159768	27324	1054114	46247	107893	0	0	8248	539247	0	0
2024-10-08 18:21:47			0	38682	0	0	0	21509	20070	159788	27017	1054105	46249	107896	0	0	8249	538673	0	0
2024-10-08 18:22:47			0	38663	0	0	0	21490	20070	159788	27137	1054132	46226	107889	0	0	8248	539412	0	0
2024-10-08 18:23:47			0	38661	0	0	0	21503	20070	159844	27416	1054105	46249	107894	0	0	8248	539490	0	0
2024-10-08 18:24:47			0	38657	0	0	0	21501	20070	159940	27255	1054141	46259	107893	0	0	8248	539645	0	0
2024-10-08 18:25:47			0	38663	0	0	0	21498	20070	159844	27039	1054079	46237	107892	0	0	8248	539412	0	0
2024-10-08 18:26:47			0	38659	0	0	0	21501	20070	159908	27405	1054105	46249	107893	0	0	8248	539568	0	0
2024-10-08 18:27:47			0	38652	0	0	0	21501	20060	159836	27397	1054016	46236	107893	0	0	8247	539870	0	0
2024-10-08 18:28:47			0	38650	0	0	0	21498	20070	159768	27242	1054132	46249	107892	0	0	8247	539918	0	0
2024-10-08 18:29:47			0	38653	0	0	0	21509	20060	159924	27265	1054123	46236	107896	0	0	8247	539831	0	0
2024-10-08 18:30:47			0	38656	0	0	0	21509	20060	159852	27053	1054016	46236	107896	0	0	8247	539714	0	0
2024-10-08 18:31:47			0	38657	0	0	0	21506	20060	159800	27187	1054096	46269	107895	0	0	8247	539675	0	0
2024-10-08 18:32:47			0	38653	0	0	0	21511	20060	159924	27178	1054096	46248	107897	0	0	8247	539831	0	0
2024-10-08 18:33:47			0	38671	0	0	0	21511	20070	159888	27097	1054158	46226	107897	0	0	8248	539101	0	0
2024-10-08 18:34:47			0	38684	0	0	0	21503	20070	159896	27310	1054132	46249	107894	0	0	8249	538596	0	0
2024-10-08 18:35:47			0	38672	0	0	0	21506	20060	159848	27194	1054096	46258	107895	0	0	8248	539092	0	0
2024-10-08 18:36:47			0	38660	0	0	0	21506	20060	159920	27647	1054061	46247	107895	0	0	8248	539559	0	0
2024-10-08 18:37:47			0	38674	0	0	0	21511	20070	159804	27327	1054079	46249	107897	0	0	8248	538984	0	0
2024-10-08 18:38:47			0	38665	0	0	0	21503	20070	159836	27131	1054132	46259	107894	0	0	8248	539334	0	0
2024-10-08 18:39:47			0	38678	0	0	0	21501	20060	159788	27429	1054096	46236	107893	0	0	8249	538859	0	0
2024-10-08 18:40:47			0	38661	0	0	0	21509	20060	159764	27268	1054087	46257	107896	0	0	8248	539520	0	0
2024-10-08 18:41:47			0	38678	0	0	0	21498	20070	159856	27170	1054132	46237	107892	0	0	8249	538829	0	0
2024-10-08 18:42:47			0	38661	0	0	0	21506	20070	159772	27428	1054105	46259	107895	0	0	8248	539490	0	0
2024-10-08 18:43:47			0	38674	0	0	0	21501	20060	159856	27396	1054096	46248	107893	0	0	8249	539014	0	0
2024-10-08 18:44:47			0	38661	0	0	0	21501	20060	159924	27569	1054070	46248	107893	0	0	8248	539520	0	0
2024-10-08 18:45:47			0	38663	0	0	0	21506	20070	159872	27443	1054079	46249	107895	0	0	8248	539412	0	0
2024-10-08 18:46:47			0	38651	0	0	0	21511	20080	159928	27343	1054150	46250	107897	0	0	8247	539849	0	0
2024-10-08 18:47:47			0	38663	0	0	0	21509	20070	159920	27258	1054132	46249	107896	0	0	8248	539412	0	0
2024-10-08 18:48:47			0	38653	0	0	0	21503	20060	159916	27502	1054149	46248	107894	0	0	8247	539831	0	0
2024-10-08 18:49:47			0	38657	0	0	0	21509	20060	159964	27308	1054070	46258	107896	0	0	8247	539675	0	0
2024-10-08 18:50:47			0	38653	0	0	0	21503	20070	159896	27138	1054132	46259	107894	0	0	8247	539801	0	0
2024-10-08 18:51:47			0	38659	0	0	0	21503	20060	159808	27235	1054061	46235	107894	0	0	8248	539597	0	0
2024-10-08 18:52:47			0	38644	0	0	0	21509	20070	159808	27364	1054132	46249	107896	0	0	8247	540152	0	0
2024-10-08 18:53:47			0	38662	0	0	0	21503	20080	159768	27180	1054150	46238	107894	0	0	8248	539421	0	0
2024-10-08 18:54:47			0	38680	0	0	0	21503	20070	159804	27303	1054079	46249	107894	0	0	8249	538751	0	0
2024-10-08 18:55:47			0	38650	0	0	0	21509	20070	159808	27213	1054105	46237	107896	0	0	8247	539918	0	0
2024-10-08 18:56:47			0	38664	0	0	0	21511	20070	159832	27320	1054141	46249	107897	0	0	8248	539373	0	0
2024-10-08 18:57:47			0	38643	0	0	0	21501	20070	159872	27277	1054105	46237	107893	0	0	8247	540190	0	0
2024-10-08 18:58:47			0	38652	0	0	0	21509	20070	159800	27272	1054105	46237	107896	0	0	8247	539840	0	0
2024-10-08 18:59:47			0	38649	0	0	0	21506	20070	159824	27362	1054167	46237	107895	0	0	8247	539957	0	0
2024-10-08 19:00:47			0	38652	0	0	0	21511	20080	159952	27313	1054176	46238	107897	0	0	8247	539810	0	0
2024-10-08 19:01:47			0	38663	0	0	0	21506	20070	159832	27267	1054141	46226	107895	0	0	8248	539412	0	0
2024-10-08 19:02:47			0	38646	0	0	0	21509	20070	159868	27467	1054141	46237	107896	0	0	8247	540074	0	0
2024-10-08 19:03:47			0	38654	0	0	0	21496	20070	159852	27526	1054167	46226	107891	0	0	8248	539762	0	0
2024-10-08 19:04:47			0	38638	0	0	0	21503	20060	159824	27604	1054123	46225	107894	0	0	8246	540415	0	0
2024-10-08 19:05:47			0	38638	0	0	0	21506	20070	159872	27338	1054105	46270	107895	0	0	8246	540385	0	0
2024-10-08 19:06:47			0	38645	0	0	0	21496	20070	159728	27398	1054167	46249	107891	0	0	8247	540113	0	0
2024-10-08 19:07:47			0	38638	0	0	0	21509	20060	159828	27267	1054070	46248	107896	0	0	8246	540415	0	0
2024-10-08 19:08:47			0	38641	0	0	0	21501	20070	159900	27222	1054158	46259	107893	0	0	8247	540268	0	0
2024-10-08 19:09:47			0	38630	0	0	0	21506	20070	159764	27523	1054132	46249	107895	0	0	8246	540697	0	0
2024-10-08 19:10:47			0	38635	0	0	0	21501	20080	159872	27371	1054150	46250	107893	0	0	8246	540472	0	0
2024-10-08 19:11:47			0	38625	0	0	0	21511	20070	159864	27090	1054132	46249	107897	0	0	8246	540892	0	0
2024-10-08 19:12:47			0	38638	0	0	0	21503	20070	159928	27272	1054105	46237	107894	0	0	8246	540385	0	0
2024-10-08 19:13:47			0	38638	0	0	0	21503	20070	159820	27497	1054158	46237	107894	0	0	8246	540385	0	0
2024-10-08 19:14:47			0	38641	0	0	0	21511	20070	159936	27417	1054141	46249	107897	0	0	8246	540268	0	0
2024-10-08 19:15:47			0	38616	0	0	0	21509	20070	159900	27263	1054114	46249	107896	0	0	8245	541242	0	0
2024-10-08 19:16:47			0	38628	0	0	0	21511	20080	160064	27164	1054176	46238	107897	0	0	8246	540745	0	0
2024-10-08 19:17:47			0	38612	0	0	0	21516	20070	159928	27272	1054158	46249	107899	0	0	8245	541398	0	0
2024-10-08 19:18:47			0	38597	0	0	0	21519	20080	159904	27621	1054176	46250	107900	0	0	8244	541953	0	0
2024-10-08 19:19:47			0	38606	0	0	0	21524	20080	159912	27253	1054185	46271	107902	0	0	8244	541602	0	0
2024-10-08 19:20:47			0	38613	0	0	0	21519	20090	160000	27327	1054221	46261	107900	0	0	8245	541299	0	0
2024-10-08 19:21:47			0	38596	0	0	0	21519	20090	159972	27216	1054221	46250	107900	0	0	8244	541962	0	0
2024-10-08 19:22:47			0	38591	0	0	0	21506	20080	160112	27471	1054123	46260	107895	0	0	8244	542187	0	0
2024-10-08 19:23:47			0	38581	0	0	0	21506	20080	160152	27072	1054185	46227	107895	0	0	8243	542577	0	0
2024-10-08 19:24:47			0	38576	0	0	0	21509	20080	160152	27376	1054150	46238	107896	0	0	8243	542773	0	0
2024-10-08 19:25:47			0	38581	0	0	0	21514	20070	160112	27500	1054087	46237	107898	0	0	8243	542607	0	0
2024-10-08 19:26:47			0	38565	0	0	0	21503	20080	160168	27119	1054150	46227	107894	0	0	8242	543202	0	0
2024-10-08 19:27:47			0	38562	0	0	0	21514	20070	160160	27185	1054167	46249	107898	0	0	8242	543349	0	0
2024-10-08 19:28:47			0	38543	0	0	0	21514	20070	160308	27317	1054132	46249	107898	0	0	8241	544092	0	0
2024-10-08 19:29:47			0	38566	0	0	0	21514	20080	160260	27079	1054176	46250	107898	0	0	8242	543163	0	0
2024-10-08 19:30:47			0	38556	0	0	0	21509	20080	160260	27352	1054150	46250	107896	0	0	8242	543554	0	0
2024-10-08 19:31:47			0	38537	0	0	0	21511	20080	160240	26972	1054123	46250	107897	0	0	8240	544297	0	0
2024-10-08 19:32:47			0	38549	0	0	0	21514	20080	160216	27543	1054150	46238	107898	0	0	8241	543828	0	0
2024-10-08 19:33:47			0	38546	0	0	0	21503	20080	160304	27582	1054203	46250	107894	0	0	8241	543945	0	0
2024-10-08 19:34:47			0	38547	0	0	0	21498	20070	160248	27268	1054141	46237	107892	0	0	8241	543936	0	0
2024-10-08 19:35:47			0	38517	0	0	0	21509	20070	160376	27350	1054211	46237	107896	0	0	8239	545109	0	0
2024-10-08 19:36:47			0	38529	0	0	0	21498	20080	160288	27329	1054096	46238	107892	0	0	8240	544610	0	0
2024-10-08 19:37:47			0	38532	0	0	0	21498	20070	160240	27209	1054087	46237	107892	0	0	8240	544522	0	0
2024-10-08 19:38:47			0	38550	0	0	0	21503	20070	160248	26991	1054141	46259	107894	0	0	8241	543818	0	0
2024-10-08 19:39:47			0	38536	0	0	0	21490	20080	160280	27270	1054150	46250	107889	0	0	8241	544336	0	0
2024-10-08 19:40:47			0	38574	0	0	0	21496	20080	160240	27332	1054185	46238	107891	0	0	8243	542851	0	0
2024-10-08 19:41:47			0	38562	0	0	0	21488	20070	160232	27227	1054132	46226	107888	0	0	8242	543349	0	0
2024-10-08 19:42:47			0	38548	0	0	0	21488	20070	160212	27569	1054087	46249	107888	0	0	8241	543897	0	0
2024-10-08 19:43:47			0	38574	0	0	0	21480	20070	160112	26967	1054114	46237	107885	0	0	8243	542881	0	0
2024-10-08 19:44:47			0	38587	0	0	0	21483	20060	160160	27362	1054070	46236	107886	0	0	8244	542403	0	0
2024-10-08 19:45:47			0	38591	0	0	0	21483	20060	160044	27263	1054123	46225	107886	0	0	8244	542247	0	0
2024-10-08 19:46:47			0	38595	0	0	0	21488	20060	159996	27315	1054087	46235	107888	0	0	8244	542091	0	0
2024-10-08 19:47:47			0	38614	0	0	0	21485	20060	160000	27412	1054096	46225	107887	0	0	8245	541350	0	0
2024-10-08 19:48:47			0	38628	0	0	0	21480	20060	159956	27441	1054043	46258	107885	0	0	8246	540804	0	0
2024-10-08 19:49:47			0	38633	0	0	0	21490	20060	159960	27296	1054061	46247	107889	0	0	8246	540610	0	0
2024-10-08 19:50:47			0	38631	0	0	0	21485	20060	159976	27324	1054061	46247	107887	0	0	8246	540688	0	0
2024-10-08 19:51:47			0	38626	0	0	0	21488	20050	159904	27230	1054052	46235	107888	0	0	8246	540912	0	0
2024-10-08 19:52:47			0	38644	0	0	0	21488	20050	159924	27433	1054078	46247	107888	0	0	8247	540211	0	0
2024-10-08 19:53:47			0	38648	0	0	0	21490	20060	159932	27098	1054034	46235	107889	0	0	8247	540026	0	0
2024-10-08 19:54:47			0	38668	0	0	0	21477	20060	159916	27218	1054034	46235	107884	0	0	8249	539247	0	0
2024-10-08 19:55:47			0	38643	0	0	0	21483	20050	159844	27350	1054016	46246	107886	0	0	8247	540250	0	0
2024-10-08 19:56:47			0	38646	0	0	0	21483	20050	159816	26991	1054052	46257	107886	0	0	8247	540133	0	0
2024-10-08 19:57:47			0	38640	0	0	0	21477	20060	159820	27275	1054087	46235	107884	0	0	8247	540337	0	0
2024-10-08 19:58:47			0	38653	0	0	0	21483	20060	159816	27455	1054087	46247	107886	0	0	8248	539831	0	0
2024-10-08 19:59:47			0	38653	0	0	0	21480	20050	159832	27331	1054052	46247	107885	0	0	8248	539861	0	0
2024-10-08 20:00:47			0	38642	0	0	0	21493	20050	159900	27564	1054052	46235	107890	0	0	8247	540289	0	0
2024-10-08 20:01:47			0	38658	0	0	0	21490	20050	159852	27388	1054052	46257	107889	0	0	8248	539666	0	0
2024-10-08 20:02:47			0	38642	0	0	0	21477	20050	159924	27241	1054025	46257	107884	0	0	8247	540289	0	0
2024-10-08 20:03:47			0	38650	0	0	0	21488	20050	159936	27176	1054052	46247	107888	0	0	8247	539977	0	0
2024-10-08 20:04:47			0	38647	0	0	0	21483	20050	159824	27218	1053999	46257	107886	0	0	8247	540094	0	0
2024-10-08 20:05:47			0	38658	0	0	0	21493	20060	159888	27471	1054087	46257	107890	0	0	8248	539636	0	0
2024-10-08 20:06:47			0	38648	0	0	0	21483	20050	159980	27317	1054069	46234	107886	0	0	8247	540055	0	0
2024-10-08 20:07:47			0	38629	0	0	0	21488	20050	159984	27478	1054025	46247	107888	0	0	8246	540795	0	0
2024-10-08 20:08:47			0	38644	0	0	0	21490	20050	160028	27161	1054078	46235	107889	0	0	8247	540211	0	0
2024-10-08 20:09:47			0	38646	0	0	0	21488	20060	159908	27391	1054087	46235	107888	0	0	8247	540103	0	0
2024-10-08 20:10:47			0	38629	0	0	0	21488	20050	159988	27234	1054052	46257	107888	0	0	8246	540795	0	0
2024-10-08 20:11:47			0	38628	0	0	0	21488	20050	160036	27034	1054078	46235	107888	0	0	8246	540834	0	0
2024-10-08 20:12:47			0	38615	0	0	0	21488	20050	160128	27281	1054096	46234	107888	0	0	8245	541341	0	0
2024-10-08 20:13:47			0	38616	0	0	0	21485	20060	160028	26934	1054061	46247	107887	0	0	8245	541272	0	0
2024-10-08 20:14:47			0	38611	0	0	0	21490	20050	160040	27308	1054025	46247	107889	0	0	8245	541497	0	0
2024-10-08 20:15:47			0	38620	0	0	0	21488	20050	160088	27400	1054105	46247	107888	0	0	8246	541146	0	0
2024-10-08 20:16:47			0	38607	0	0	0	21490	20060	160116	27244	1054061	46235	107889	0	0	8245	541623	0	0
2024-10-08 20:17:47			0	38619	0	0	0	21483	20050	160076	27282	1054078	46235	107886	0	0	8246	541185	0	0
2024-10-08 20:18:47			0	38582	0	0	0	21490	20060	160060	27261	1054123	46236	107889	0	0	8243	542598	0	0
2024-10-08 20:19:47			0	38598	0	0	0	21493	20050	160040	27307	1054025	46247	107890	0	0	8244	542004	0	0
2024-10-08 20:20:47			0	38600	0	0	0	21490	20060	160108	27332	1054087	46247	107889	0	0	8244	541896	0	0
2024-10-08 20:21:47			0	38602	0	0	0	21493	20060	160192	27244	1054061	46224	107890	0	0	8244	541818	0	0
2024-10-08 20:22:47			0	38585	0	0	0	21485	20050	160160	27263	1054052	46247	107887	0	0	8244	542511	0	0
2024-10-08 20:23:47			0	38597	0	0	0	21488	20050	160148	27216	1054052	46224	107888	0	0	8244	542043	0	0
2024-10-08 20:24:47			0	38599	0	0	0	21493	20050	160192	27135	1054123	46246	107890	0	0	8244	541965	0	0
2024-10-08 20:25:47			0	38596	0	0	0	21503	20060	160136	27473	1054123	46225	107894	0	0	8244	542052	0	0
2024-10-08 20:26:47			0	38583	0	0	0	21496	20060	160204	27180	1054087	46235	107891	0	0	8243	542559	0	0
2024-10-08 20:27:47			0	38582	0	0	0	21506	20060	160064	27043	1054176	46236	107895	0	0	8243	542598	0	0
2024-10-08 20:28:47			0	38596	0	0	0	21493	20050	160048	27039	1054158	46235	107890	0	0	8244	542082	0	0
2024-10-08 20:29:47			0	38609	0	0	0	21498	20050	160240	27180	1054052	46247	107892	0	0	8245	541575	0	0
2024-10-08 20:30:47			0	38591	0	0	0	21488	20060	160112	27386	1054114	46235	107888	0	0	8244	542247	0	0
2024-10-08 20:31:47			0	38595	0	0	0	21498	20050	160124	27312	1054105	46247	107892	0	0	8244	542121	0	0
2024-10-08 20:32:47			0	38588	0	0	0	21496	20060	160072	27341	1054149	46236	107891	0	0	8244	542364	0	0
2024-10-08 20:33:47			0	38567	0	0	0	21493	20050	160212	27229	1054158	46224	107890	0	0	8242	543214	0	0
2024-10-08 20:34:47			0	38582	0	0	0	21501	20060	160208	27348	1054087	46257	107893	0	0	8243	542598	0	0
2024-10-08 20:35:47			0	38580	0	0	0	21496	20060	160104	27199	1054123	46236	107891	0	0	8243	542676	0	0
2024-10-08 20:36:47			0	38568	0	0	0	21496	20070	160192	27183	1054167	46249	107891	0	0	8242	543115	0	0
2024-10-08 20:37:47			0	38586	0	0	0	21498	20060	160244	27079	1054176	46248	107892	0	0	8243	542442	0	0
2024-10-08 20:38:47			0	38565	0	0	0	21506	20060	160220	27130	1054123	46258	107895	0	0	8242	543262	0	0
2024-10-08 20:39:47			0	38589	0	0	0	21506	20070	160196	27246	1054158	46259	107895	0	0	8244	542295	0	0
2024-10-08 20:40:47			0	38583	0	0	0	21503	20060	160160	27213	1054194	46247	107894	0	0	8243	542559	0	0
2024-10-08 20:41:47			0	38577	0	0	0	21496	20060	160140	27332	1054096	46236	107891	0	0	8243	542794	0	0
2024-10-08 20:42:47			0	38582	0	0	0	21496	20060	160204	27454	1054176	46236	107891	0	0	8243	542598	0	0
2024-10-08 20:43:47			0	38581	0	0	0	21493	20060	160208	27412	1054123	46258	107890	0	0	8243	542637	0	0
2024-10-08 20:44:47			0	38584	0	0	0	21498	20070	160180	27573	1054158	46249	107892	0	0	8243	542490	0	0
2024-10-08 20:45:47			0	38577	0	0	0	21498	20060	160164	27523	1054149	46236	107892	0	0	8243	542794	0	0
2024-10-08 20:46:47			0	38577	0	0	0	21506	20060	160176	27135	1054203	46236	107895	0	0	8243	542794	0	0
2024-10-08 20:47:47			0	38574	0	0	0	21501	20060	160192	27400	1054176	46258	107893	0	0	8243	542911	0	0
2024-10-08 20:48:47			0	38581	0	0	0	21496	20070	160164	27039	1054185	46249	107891	0	0	8243	542607	0	0
2024-10-08 20:49:47			0	38570	0	0	0	21498	20060	160264	27204	1054140	46224	107892	0	0	8243	543067	0	0
2024-10-08 20:50:47			0	38555	0	0	0	21503	20050	160184	27197	1054158	46247	107894	0	0	8242	543683	0	0
2024-10-08 20:51:47			0	38580	0	0	0	21496	20070	160180	27249	1054132	46270	107891	0	0	8243	542646	0	0
2024-10-08 20:52:47			0	38577	0	0	0	21496	20060	160176	27324	1054149	46248	107891	0	0	8243	542794	0	0
2024-10-08 20:53:47			0	38567	0	0	0	21488	20070	160080	27618	1054079	46237	107888	0	0	8243	543154	0	0
2024-10-08 20:54:47			0	38573	0	0	0	21498	20060	160240	27218	1054123	46248	107892	0	0	8243	542950	0	0
2024-10-08 20:55:47			0	38562	0	0	0	21503	20060	160108	26981	1054123	46248	107894	0	0	8242	543379	0	0
2024-10-08 20:56:47			0	38550	0	0	0	21493	20060	160152	27180	1054140	46235	107890	0	0	8241	543848	0	0
2024-10-08 20:57:47			0	38556	0	0	0	21488	20050	160244	27388	1054105	46247	107888	0	0	8242	543644	0	0
2024-10-08 20:58:47			0	38546	0	0	0	21490	20070	160276	27280	1054211	46237	107889	0	0	8241	543975	0	0
2024-10-08 20:59:47			0	38546	0	0	0	21483	20070	160204	27372	1054132	46237	107886	0	0	8241	543975	0	0
2024-10-08 21:00:47			0	38548	0	0	0	21493	20070	160224	27355	1054194	46249	107890	0	0	8241	543897	0	0
2024-10-08 21:01:47			0	38542	0	0	0	21490	20050	160300	27112	1054105	46235	107889	0	0	8241	544191	0	0
2024-10-08 21:02:47			0	38535	0	0	0	21485	20070	160408	27059	1054132	46226	107887	0	0	8241	544405	0	0
2024-10-08 21:03:47			0	38547	0	0	0	21501	20060	160304	27194	1054123	46248	107893	0	0	8241	543966	0	0
2024-10-08 21:04:47			0	38539	0	0	0	21503	20060	160320	27173	1054203	46248	107894	0	0	8241	544279	0	0
2024-10-08 21:05:47			0	38530	0	0	0	21503	20070	160380	27369	1054158	46226	107894	0	0	8240	544601	0	0
2024-10-08 21:06:47			0	38529	0	0	0	21496	20060	160340	27098	1054149	46236	107891	0	0	8240	544670	0	0
2024-10-08 21:07:47			0	38515	0	0	0	21501	20060	160380	27530	1054140	46224	107893	0	0	8239	545218	0	0
2024-10-08 21:08:47			0	38515	0	0	0	21490	20070	160460	26986	1054158	46237	107889	0	0	8240	545188	0	0
2024-10-08 21:09:47			0	38523	0	0	0	21490	20060	160392	27171	1054114	46247	107889	0	0	8240	544905	0	0
2024-10-08 21:10:47			0	38519	0	0	0	21498	20070	160464	27147	1054158	46249	107892	0	0	8240	545031	0	0
2024-10-08 21:11:47			0	38508	0	0	0	21498	20060	160440	27346	1054114	46257	107892	0	0	8239	545492	0	0
2024-10-08 21:12:47			0	38524	0	0	0	21498	20060	160360	27483	1054123	46269	107892	0	0	8240	544866	0	0
2024-10-08 21:13:47			0	38528	0	0	0	21503	20070	160320	26932	1054105	46249	107894	0	0	8240	544679	0	0
2024-10-08 21:14:47			0	38521	0	0	0	21498	20060	160300	27164	1054140	46247	107892	0	0	8240	544983	0	0
2024-10-08 21:15:47			0	38510	0	0	0	21490	20070	160396	26994	1054079	46237	107889	0	0	8239	545383	0	0
2024-10-08 21:16:47			0	38498	0	0	0	21496	20050	160368	27149	1054105	46247	107891	0	0	8238	545914	0	0
2024-10-08 21:17:47			0	38492	0	0	0	21496	20070	160416	27357	1054114	46259	107891	0	0	8238	546088	0	0
2024-10-08 21:18:47			0	38501	0	0	0	21493	20060	160404	27147	1054087	46235	107890	0	0	8239	545766	0	0
2024-10-08 21:19:47			0	38492	0	0	0	21496	20060	160360	27327	1054149	46236	107891	0	0	8238	546119	0	0
2024-10-08 21:20:47			0	38480	0	0	0	21501	20070	160480	27175	1054158	46237	107893	0	0	8237	546559	0	0
2024-10-08 21:21:47			0	38492	0	0	0	21490	20060	160460	27306	1054140	46247	107889	0	0	8238	546119	0	0
2024-10-08 21:22:47			0	38489	0	0	0	21488	20070	160472	27336	1054185	46237	107888	0	0	8238	546206	0	0
2024-10-08 21:23:47			0	38510	0	0	0	21493	20060	160420	26987	1054114	46235	107890	0	0	8239	545414	0	0
2024-10-08 21:24:47			0	38486	0	0	0	21493	20070	160432	27119	1054079	46249	107890	0	0	8238	546324	0	0
2024-10-08 21:25:47			0	38504	0	0	0	21496	20050	160464	27140	1054078	46235	107891	0	0	8239	545679	0	0
2024-10-08 21:26:47			0	38516	0	0	0	21493	20060	160464	27147	1054140	46235	107890	0	0	8239	545179	0	0
2024-10-08 21:27:47			0	38474	0	0	0	21498	20060	160428	27414	1054061	46247	107892	0	0	8237	546824	0	0
2024-10-08 21:28:47			0	38490	0	0	0	21498	20050	160492	27332	1054078	46257	107892	0	0	8238	546227	0	0
2024-10-08 21:29:47			0	38508	0	0	0	21496	20060	160452	27187	1054096	46248	107891	0	0	8239	545492	0	0
2024-10-08 21:30:47			0	38495	0	0	0	21490	20060	160324	27253	1054203	46225	107889	0	0	8238	546001	0	0
2024-10-08 21:31:47			0	38506	0	0	0	21496	20060	160440	27388	1054114	46235	107891	0	0	8239	545570	0	0
2024-10-08 21:32:47			0	38499	0	0	0	21498	20060	160432	27138	1054123	46248	107892	0	0	8238	545844	0	0
2024-10-08 21:33:47			0	38485	0	0	0	21498	20060	160552	27287	1054061	46224	107892	0	0	8238	546393	0	0
2024-10-08 21:34:47			0	38512	0	0	0	21498	20060	160580	27409	1054149	46248	107892	0	0	8239	545335	0	0
2024-10-08 21:35:47			0	38517	0	0	0	21496	20060	160500	27114	1054176	46236	107891	0	0	8239	545139	0	0
2024-10-08 21:36:47			0	38508	0	0	0	21490	20060	160444	27232	1054096	46248	107889	0	0	8239	545492	0	0
2024-10-08 21:37:47			0	38522	0	0	0	21498	20060	160320	27031	1054167	46235	107892	0	0	8240	544944	0	0
2024-10-08 21:38:47			0	38513	0	0	0	21498	20070	160440	27095	1054132	46249	107892	0	0	8239	545266	0	0
2024-10-08 21:39:47			0	38496	0	0	0	21490	20060	160392	27232	1054123	46248	107889	0	0	8238	545962	0	0
2024-10-08 21:40:47			0	38502	0	0	0	21498	20070	160448	27152	1054105	46237	107892	0	0	8239	545697	0	0
2024-10-08 21:41:47			0	38515	0	0	0	21493	20060	160440	27031	1054140	46247	107890	0	0	8239	545218	0	0
2024-10-08 21:42:47			0	38512	0	0	0	21488	20060	160468	27303	1054149	46236	107888	0	0	8239	545335	0	0
2024-10-08 21:43:47			0	38502	0	0	0	21485	20060	160488	27137	1054123	46236	107887	0	0	8239	545727	0	0
2024-10-08 21:44:47			0	38497	0	0	0	21490	20060	160520	27402	1054149	46236	107889	0	0	8238	545923	0	0
2024-10-08 21:45:47			0	38496	0	0	0	21490	20070	160452	27381	1054079	46237	107889	0	0	8238	545932	0	0
2024-10-08 21:46:47			0	38463	0	0	0	21490	20060	160528	27588	1054149	46236	107889	0	0	8236	547256	0	0
2024-10-08 21:47:47			0	38451	0	0	0	21493	20050	160756	27386	1054105	46257	107890	0	0	8236	547757	0	0
2024-10-08 21:48:47			0	38454	0	0	0	21485	20050	160796	27327	1054158	46235	107887	0	0	8236	547640	0	0
2024-10-08 21:49:47			0	38432	0	0	0	21483	20060	160868	26989	1054176	46236	107886	0	0	8235	548473	0	0
2024-10-08 21:50:47			0	38415	0	0	0	21496	20060	160764	26889	1054123	46236	107891	0	0	8234	549142	0	0
2024-10-08 21:51:47			0	38412	0	0	0	21490	20050	160820	26935	1054132	46235	107889	0	0	8233	549290	0	0
2024-10-08 21:52:47			0	38402	0	0	0	21488	20060	160724	26894	1054087	46235	107888	0	0	8233	549653	0	0
2024-10-08 21:53:47			0	38401	0	0	0	21490	20060	160808	27150	1054096	46248	107889	0	0	8233	549692	0	0
2024-10-08 21:54:47			0	38390	0	0	0	21496	20070	161044	27116	1054105	46237	107891	0	0	8232	550095	0	0
2024-10-08 21:55:47			0	38371	0	0	0	21490	20060	160908	27203	1054061	46247	107889	0	0	8231	550874	0	0
2024-10-08 21:56:47			0	38367	0	0	0	21498	20050	160984	27182	1054132	46247	107892	0	0	8231	551061	0	0
2024-10-08 21:57:47			0	38385	0	0	0	21485	20060	160916	27190	1054123	46248	107887	0	0	8232	550322	0	0
2024-10-08 21:58:47			0	38374	0	0	0	21485	20060	160892	27015	1054167	46257	107887	0	0	8231	550755	0	0
2024-10-08 21:59:47			0	38351	0	0	0	21483	20060	160960	27149	1054149	46248	107886	0	0	8230	551662	0	0
2024-10-08 22:00:47			0	38371	0	0	0	21490	20060	160936	27078	1054123	46236	107889	0	0	8231	550874	0	0
2024-10-08 22:01:47			0	38375	0	0	0	21493	20060	160984	26743	1054123	46248	107890	0	0	8231	550716	0	0
2024-10-08 22:02:47			0	38386	0	0	0	21485	20060	161024	27256	1054123	46258	107887	0	0	8232	550283	0	0
2024-10-08 22:03:47			0	38389	0	0	0	21485	20050	161024	27062	1054105	46235	107887	0	0	8232	550195	0	0
2024-10-08 22:04:47			0	38398	0	0	0	21490	20060	160968	26885	1054167	46247	107889	0	0	8233	549810	0	0
2024-10-08 22:05:47			0	38403	0	0	0	21490	20060	160732	26918	1054167	46257	107889	0	0	8233	549614	0	0
2024-10-08 22:06:47			0	38385	0	0	0	21488	20060	160752	27131	1054176	46248	107888	0	0	8232	550322	0	0
2024-10-08 22:07:47			0	38412	0	0	0	21493	20060	160792	27152	1054140	46235	107890	0	0	8233	549260	0	0
2024-10-08 22:08:47			0	38403	0	0	0	21498	20060	160920	26982	1054114	46224	107892	0	0	8233	549614	0	0
2024-10-08 22:09:47			0	38407	0	0	0	21493	20060	160912	26850	1054149	46248	107890	0	0	8233	549456	0	0
2024-10-08 22:10:47			0	38406	0	0	0	21488	20060	160972	27128	1054070	46236	107888	0	0	8233	549496	0	0
2024-10-08 22:11:47			0	38429	0	0	0	21498	20050	160852	26883	1054149	46246	107892	0	0	8234	548621	0	0
2024-10-08 22:12:47			0	38448	0	0	0	21498	20050	160656	26944	1054132	46247	107892	0	0	8235	547875	0	0
2024-10-08 22:13:47			0	38458	0	0	0	21493	20050	160568	27076	1054105	46247	107890	0	0	8236	547482	0	0
2024-10-08 22:14:47			0	38488	0	0	0	21490	20060	160484	27263	1054087	46247	107889	0	0	8238	546275	0	0
2024-10-08 22:15:47			0	38489	0	0	0	21496	20060	160524	27012	1054149	46248	107891	0	0	8238	546236	0	0
2024-10-08 22:16:47			0	38498	0	0	0	21501	20060	160416	26861	1054123	46236	107893	0	0	8238	545884	0	0
2024-10-08 22:17:47			0	38501	0	0	0	21485	20060	160540	27097	1054114	46235	107887	0	0	8239	545766	0	0
2024-10-08 22:18:47			0	38513	0	0	0	21496	20060	160544	27306	1054087	46257	107891	0	0	8239	545296	0	0
2024-10-08 22:19:47			0	38509	0	0	0	21493	20060	160600	27549	1054140	46235	107890	0	0	8239	545453	0	0
2024-10-08 22:20:47			0	38478	0	0	0	21488	20050	160604	27157	1054105	46247	107888	0	0	8237	546698	0	0
2024-10-08 22:21:47			0	38459	0	0	0	21493	20060	160668	27185	1054114	46235	107890	0	0	8236	547413	0	0
2024-10-08 22:22:47			0	38449	0	0	0	21490	20060	160616	27071	1054176	46236	107889	0	0	8236	547805	0	0
2024-10-08 22:23:47			0	38428	0	0	0	21485	20070	160720	27170	1054105	46259	107887	0	0	8235	548600	0	0
2024-10-08 22:24:47			0	38423	0	0	0	21490	20060	160764	27339	1054087	46235	107889	0	0	8234	548827	0	0
2024-10-08 22:25:47			0	38396	0	0	0	21493	20060	160828	27090	1054140	46235	107890	0	0	8232	549889	0	0
2024-10-08 22:26:47			0	38409	0	0	0	21493	20060	160872	27144	1054167	46235	107890	0	0	8233	549378	0	0
2024-10-08 22:27:47			0	38397	0	0	0	21488	20060	160828	27128	1054167	46235	107888	0	0	8233	549850	0	0
2024-10-08 22:28:47			0	38395	0	0	0	21490	20060	160844	27081	1054167	46279	107889	0	0	8232	549928	0	0
2024-10-08 22:29:47			0	38381	0	0	0	21493	20050	160912	27272	1054123	46246	107890	0	0	8232	550510	0	0
2024-10-08 22:30:47			0	38373	0	0	0	21485	20060	161000	26786	1054096	46248	107887	0	0	8231	550795	0	0
2024-10-08 22:31:47			0	38368	0	0	0	21488	20060	160980	27133	1054087	46235	107888	0	0	8231	550992	0	0
2024-10-08 22:32:47			0	38368	0	0	0	21498	20050	160964	26911	1054132	46247	107892	0	0	8231	551022	0	0
2024-10-08 22:33:47			0	38369	0	0	0	21485	20070	160948	27303	1054132	46249	107887	0	0	8231	550922	0	0
2024-10-08 22:34:47			0	38387	0	0	0	21490	20050	160928	26963	1054105	46235	107889	0	0	8232	550274	0	0
2024-10-08 22:35:47			0	38406	0	0	0	21493	20060	160808	27256	1054123	46258	107890	0	0	8233	549496	0	0
2024-10-08 22:36:47			0	38402	0	0	0	21490	20060	160744	27227	1054123	46248	107889	0	0	8233	549653	0	0
2024-10-08 22:37:47			0	38386	0	0	0	21493	20050	160900	27272	1054123	46246	107890	0	0	8232	550313	0	0
2024-10-08 22:38:47			0	38386	0	0	0	21488	20060	160844	27147	1054114	46235	107888	0	0	8232	550283	0	0
2024-10-08 22:39:47			0	38351	0	0	0	21490	20060	160852	27071	1054176	46236	107889	0	0	8230	551662	0	0
2024-10-08 22:40:47			0	38351	0	0	0	21490	20060	161016	27343	1054140	46247	107889	0	0	8230	551662	0	0
2024-10-08 22:41:47			0	38366	0	0	0	21493	20060	160948	26935	1054114	46247	107890	0	0	8231	551071	0	0
2024-10-08 22:42:47			0	38362	0	0	0	21490	20070	160972	26958	1054158	46259	107889	0	0	8231	551198	0	0
2024-10-08 22:43:47			0	38366	0	0	0	21488	20060	160948	27334	1054176	46258	107888	0	0	8231	551071	0	0
2024-10-08 22:44:47			0	38370	0	0	0	21493	20060	160956	27202	1054176	46258	107890	0	0	8231	550913	0	0
2024-10-08 22:45:47			0	38364	0	0	0	21490	20050	160968	27201	1054158	46247	107889	0	0	8231	551180	0	0
2024-10-08 22:46:47			0	38358	0	0	0	21485	20060	161048	27196	1054087	46247	107887	0	0	8230	551386	0	0
2024-10-08 22:47:47			0	38325	0	0	0	21493	20060	161156	27171	1054114	46224	107890	0	0	8228	552688	0	0
2024-10-08 22:48:47			0	38354	0	0	0	21488	20060	161048	26941	1054167	46247	107888	0	0	8230	551544	0	0
2024-10-08 22:49:47			0	38361	0	0	0	21498	20060	161052	27341	1054167	46235	107892	0	0	8230	551268	0	0
2024-10-08 22:50:47			0	38366	0	0	0	21488	20040	161124	27303	1054114	46234	107888	0	0	8231	551131	0	0
2024-10-08 22:51:47			0	38331	0	0	0	21490	20060	161264	27140	1054140	46235	107889	0	0	8229	552451	0	0
2024-10-08 22:52:47			0	38285	0	0	0	21493	20070	161420	27095	1054158	46249	107890	0	0	8226	554238	0	0
2024-10-08 22:53:47			0	38253	0	0	0	21493	20060	161500	27249	1054140	46224	107890	0	0	8224	555535	0	0
2024-10-08 22:54:47			0	38281	0	0	0	21498	20060	161308	27398	1054203	46236	107892	0	0	8226	554427	0	0
2024-10-08 22:55:47			0	38332	0	0	0	21488	20060	161236	27313	1054176	46248	107888	0	0	8229	552411	0	0
2024-10-08 22:56:47			0	38367	0	0	0	21498	20060	161064	27211	1054140	46235	107892	0	0	8231	551031	0	0
2024-10-08 22:57:47			0	38396	0	0	0	21496	20060	161024	26955	1054167	46247	107891	0	0	8232	549889	0	0
2024-10-08 22:58:47			0	38375	0	0	0	21501	20060	160940	27071	1054149	46248	107893	0	0	8231	550716	0	0
2024-10-08 22:59:47			0	38369	0	0	0	21490	20060	161080	27493	1054123	46258	107889	0	0	8231	550952	0	0
2024-10-08 23:00:47			0	38369	0	0	0	21490	20040	160996	27296	1054114	46256	107889	0	0	8231	551013	0	0
2024-10-08 23:01:47			0	38365	0	0	0	21498	20060	161068	27249	1054123	46236	107892	0	0	8231	551110	0	0
2024-10-08 23:02:47			0	38361	0	0	0	21493	20060	161100	27104	1054140	46247	107890	0	0	8230	551268	0	0
2024-10-08 23:03:47			0	38368	0	0	0	21496	20060	160984	27150	1054176	46236	107891	0	0	8231	550992	0	0
2024-10-08 23:04:47			0	38414	0	0	0	21488	20070	160752	27034	1054167	46249	107888	0	0	8234	549151	0	0
2024-10-08 23:05:47			0	38437	0	0	0	21490	20050	160752	27112	1054096	46234	107889	0	0	8235	548307	0	0
2024-10-08 23:06:47			0	38459	0	0	0	21498	20060	160620	27213	1054149	46236	107892	0	0	8236	547413	0	0
2024-10-08 23:07:47			0	38460	0	0	0	21483	20060	160680	27208	1054176	46236	107886	0	0	8236	547374	0	0
2024-10-08 23:08:47			0	38466	0	0	0	21498	20060	160704	27144	1054167	46257	107892	0	0	8236	547138	0	0
2024-10-08 23:09:47			0	38462	0	0	0	21493	20060	160648	27218	1054096	46248	107890	0	0	8236	547295	0	0
2024-10-08 23:10:47			0	38453	0	0	0	21490	20060	160848	27019	1054114	46247	107889	0	0	8236	547648	0	0
2024-10-08 23:11:47			0	38421	0	0	0	21485	20060	160992	27633	1054114	46247	107887	0	0	8234	548906	0	0
2024-10-08 23:12:47			0	38409	0	0	0	21485	20060	160992	27209	1054123	46258	107887	0	0	8233	549378	0	0
2024-10-08 23:13:47			0	38325	0	0	0	21488	20050	161276	27634	1054078	46247	107888	0	0	8228	552718	0	0
2024-10-08 23:14:47			0	38262	0	0	0	21480	20050	161372	27177	1054096	46246	107885	0	0	8225	555209	0	0
2024-10-08 23:15:47			0	38230	0	0	0	21490	20050	161628	27441	1054078	46235	107889	0	0	8223	556477	0	0
2024-10-08 23:16:47			0	38208	0	0	0	21472	20050	161788	27305	1054105	46235	107882	0	0	8222	557350	0	0
2024-10-08 23:17:47			0	38190	0	0	0	21483	20050	161700	27135	1054043	46234	107886	0	0	8220	558065	0	0
2024-10-08 23:18:47			0	38184	0	0	0	21480	20060	161748	27341	1054140	46247	107885	0	0	8220	558272	0	0
2024-10-08 23:19:47			0	38177	0	0	0	21475	20050	161852	27476	1054132	46247	107883	0	0	8220	558581	0	0
2024-10-08 23:20:47			0	38119	0	0	0	21477	20050	161988	27409	1054078	46235	107884	0	0	8216	560889	0	0
2024-10-08 23:21:47			0	38126	0	0	0	21472	20040	162068	27067	1054114	46246	107882	0	0	8217	560641	0	0
2024-10-08 23:22:47			0	38092	0	0	0	21477	20040	162072	27362	1054078	46233	107884	0	0	8215	561997	0	0
2024-10-08 23:23:47			0	38051	0	0	0	21472	20040	162296	27353	1054034	46246	107882	0	0	8212	563634	0	0
2024-10-08 23:24:47			0	38019	0	0	0	21475	20040	162307	27253	1054087	46234	107883	0	0	8211	564914	0	0
2024-10-08 23:25:47			0	38060	0	0	0	21464	20060	162360	27343	1054087	46235	107879	0	0	8213	563212	0	0
2024-10-08 23:26:47			0	38056	0	0	0	21477	20040	162344	27452	1054034	46256	107884	0	0	8213	563434	0	0
2024-10-08 23:27:47			0	38071	0	0	0	21480	20050	162336	27086	1054123	46246	107885	0	0	8214	562804	0	0
2024-10-08 23:28:47			0	38095	0	0	0	21490	20050	162068	27480	1054096	46234	107889	0	0	8215	561846	0	0
2024-10-08 23:29:47			0	38096	0	0	0	21480	20040	162112	27145	1054087	46246	107885	0	0	8215	561837	0	0
2024-10-08 23:30:47			0	38067	0	0	0	21480	20050	162284	26915	1054043	46234	107885	0	0	8213	562963	0	0
2024-10-08 23:31:47			0	38053	0	0	0	21483	20040	162260	27512	1054078	46245	107886	0	0	8212	563554	0	0
2024-10-08 23:32:47			0	38036	0	0	0	21470	20050	162356	27556	1054052	46247	107881	0	0	8212	564202	0	0
2024-10-08 23:33:47			0	38059	0	0	0	21485	20050	162288	27284	1054123	46246	107887	0	0	8213	563283	0	0
2024-10-08 23:34:47			0	38064	0	0	0	21477	20040	162312	27376	1054087	46246	107884	0	0	8213	563114	0	0
2024-10-08 23:35:47			0	38075	0	0	0	21480	20040	162240	27540	1054034	46246	107885	0	0	8214	562675	0	0
2024-10-08 23:36:47			0	38075	0	0	0	21477	20050	162144	27402	1054043	46234	107884	0	0	8214	562644	0	0
2024-10-08 23:37:47			0	38065	0	0	0	21480	20030	162216	27100	1054043	46245	107885	0	0	8213	563106	0	0
2024-10-08 23:38:47			0	38080	0	0	0	21483	20050	162376	27218	1054069	46256	107886	0	0	8214	562444	0	0
2024-10-08 23:39:47			0	38087	0	0	0	21480	20050	162304	27343	1054096	46234	107885	0	0	8214	562165	0	0
2024-10-08 23:40:47			0	38088	0	0	0	21477	20050	162104	27263	1054123	46234	107884	0	0	8215	562125	0	0
2024-10-08 23:41:47			0	38076	0	0	0	21483	20040	162172	27379	1054105	46245	107886	0	0	8214	562635	0	0
2024-10-08 23:42:47			0	38077	0	0	0	21480	20050	162216	27428	1054096	46234	107885	0	0	8214	562564	0	0
2024-10-08 23:43:47			0	38119	0	0	0	21488	20040	162104	27592	1054105	46255	107888	0	0	8216	560920	0	0
2024-10-08 23:44:47			0	38121	0	0	0	21485	20040	162072	27275	1054131	46245	107887	0	0	8216	560840	0	0
2024-10-08 23:45:47			0	38131	0	0	0	21485	20050	162056	27282	1054105	46257	107887	0	0	8217	560411	0	0
2024-10-08 23:46:47			0	38142	0	0	0	21483	20050	162164	27268	1054078	46235	107886	0	0	8218	559973	0	0
2024-10-08 23:47:47			0	38150	0	0	0	21475	20050	162004	27019	1054132	46247	107883	0	0	8218	559655	0	0
2024-10-08 23:48:47			0	38133	0	0	0	21483	20050	162084	27256	1054123	46246	107886	0	0	8217	560331	0	0
2024-10-08 23:49:47			0	38136	0	0	0	21483	20040	162084	27371	1054078	46245	107886	0	0	8217	560243	0	0
2024-10-08 23:50:47			0	38148	0	0	0	21483	20050	162160	27213	1054078	46257	107886	0	0	8218	559734	0	0
2024-10-08 23:51:47			0	38129	0	0	0	21485	20050	162104	27320	1054069	46246	107887	0	0	8217	560491	0	0
2024-10-08 23:52:47			0	38128	0	0	0	21483	20040	162132	27185	1054087	46234	107886	0	0	8217	560562	0	0
2024-10-08 23:53:47			0	38127	0	0	0	21475	20050	162168	27391	1054096	46246	107883	0	0	8217	560570	0	0
2024-10-08 23:54:47			0	38119	0	0	0	21477	20040	162176	27409	1054087	46246	107884	0	0	8216	560920	0	0
2024-10-08 23:55:47			0	38117	0	0	0	21480	20040	162196	27287	1054078	46245	107885	0	0	8216	561000	0	0
2024-10-08 23:56:47			0	38117	0	0	0	21470	20040	162232	27116	1054114	46234	107881	0	0	8216	561000	0	0
2024-10-08 23:57:47			0	38107	0	0	0	21475	20050	162140	27076	1054069	46234	107883	0	0	8216	561367	0	0
2024-10-08 23:58:47			0	38115	0	0	0	21472	20050	162224	27350	1054123	46234	107882	0	0	8216	561048	0	0
2024-10-08 23:59:47			0	38122	0	0	0	21483	20040	162036	27201	1054131	46233	107886	0	0	8216	560800	0	0
2024-10-09 00:00:47			0	38125	0	0	0	21467	20040	162028	27104	1054087	46256	107880	0	0	8217	560681	0	0
2024-10-09 00:01:47			0	38131	0	0	0	21475	20040	162112	27280	1054105	46245	107883	0	0	8217	560442	0	0
2024-10-09 00:02:47			0	38142	0	0	0	21483	20040	162104	27409	1054114	46246	107886	0	0	8218	560004	0	0
2024-10-09 00:03:47			0	38158	0	0	0	21477	20040	161976	27086	1054114	46234	107884	0	0	8219	559367	0	0
2024-10-09 00:04:47			0	38164	0	0	0	21485	20050	162000	27222	1054096	46256	107887	0	0	8219	559098	0	0
2024-10-09 00:05:47			0	38147	0	0	0	21485	20050	161980	27253	1054043	46246	107887	0	0	8218	559774	0	0
2024-10-09 00:06:47			0	38150	0	0	0	21483	20050	161956	27381	1054096	46234	107886	0	0	8218	559655	0	0
2024-10-09 00:07:47			0	38174	0	0	0	21485	20050	161812	27409	1054096	46256	107887	0	0	8220	558700	0	0
2024-10-09 00:08:47			0	38161	0	0	0	21472	20050	161984	27203	1054078	46247	107882	0	0	8219	559217	0	0
2024-10-09 00:09:47			0	38147	0	0	0	21467	20050	161968	27388	1054149	46234	107880	0	0	8218	559774	0	0
2024-10-09 00:10:47			0	38142	0	0	0	21483	20040	162100	27159	1054052	46245	107886	0	0	8218	560004	0	0
2024-10-09 00:11:47			0	38141	0	0	0	21485	20050	161976	27644	1054096	46234	107887	0	0	8218	560013	0	0
2024-10-09 00:12:47			0	38167	0	0	0	21480	20050	161916	27448	1054096	46246	107885	0	0	8219	558979	0	0
2024-10-09 00:13:47			0	38155	0	0	0	21477	20040	161956	27229	1054060	46246	107884	0	0	8218	559487	0	0
2024-10-09 00:14:47			0	38138	0	0	0	21467	20040	162000	27512	1054105	46245	107880	0	0	8218	560163	0	0
2024-10-09 00:15:47			0	38129	0	0	0	21464	20050	162016	27516	1054105	46247	107879	0	0	8217	560491	0	0
2024-10-09 00:16:47			0	38130	0	0	0	21475	20040	162036	27275	1054060	46234	107883	0	0	8217	560482	0	0
2024-10-09 00:17:47			0	38149	0	0	0	21467	20040	162076	27079	1054034	46234	107880	0	0	8218	559725	0	0
2024-10-09 00:18:47			0	38136	0	0	0	21477	20040	162028	27426	1054034	46246	107884	0	0	8217	560243	0	0
2024-10-09 00:19:47			0	38138	0	0	0	21475	20050	162136	27581	1054043	46267	107883	0	0	8218	560132	0	0
2024-10-09 00:20:47			0	38138	0	0	0	21475	20030	162092	27300	1054069	46245	107883	0	0	8217	560194	0	0
2024-10-09 00:21:47			0	38154	0	0	0	21477	20040	161980	27092	1054007	46256	107884	0	0	8218	559526	0	0
2024-10-09 00:22:47			0	38159	0	0	0	21475	20050	161892	27228	1054069	46256	107883	0	0	8219	559297	0	0
2024-10-09 00:23:47			0	38185	0	0	0	21477	20050	161808	27319	1054123	46246	107884	0	0	8220	558263	0	0
2024-10-09 00:24:47			0	38202	0	0	0	21480	20040	161792	27079	1054087	46234	107885	0	0	8221	557619	0	0
2024-10-09 00:25:47			0	38189	0	0	0	21462	20040	161908	27398	1054078	46233	107878	0	0	8221	558135	0	0
2024-10-09 00:26:47			0	38193	0	0	0	21464	20040	161936	27324	1054052	46245	107879	0	0	8221	557976	0	0
2024-10-09 00:27:47			0	38171	0	0	0	21467	20050	161960	27291	1054043	46267	107880	0	0	8220	558820	0	0
2024-10-09 00:28:47			0	38167	0	0	0	21467	20040	161980	27244	1054060	46234	107880	0	0	8219	559009	0	0
2024-10-09 00:29:47			0	38139	0	0	0	21470	20040	162068	27234	1054034	46267	107881	0	0	8218	560123	0	0
2024-10-09 00:30:47			0	38141	0	0	0	21459	20040	162144	27400	1053998	46233	107877	0	0	8218	560044	0	0
2024-10-09 00:31:47			0	38159	0	0	0	21475	20040	162080	27377	1054025	46245	107883	0	0	8219	559328	0	0
2024-10-09 00:32:47			0	38161	0	0	0	21472	20040	162060	27260	1054060	46234	107882	0	0	8219	559248	0	0
2024-10-09 00:33:47			0	38164	0	0	0	21472	20040	162012	27476	1054078	46233	107882	0	0	8219	559129	0	0
2024-10-09 00:34:47			0	38164	0	0	0	21475	20040	161968	27118	1054105	46255	107883	0	0	8219	559129	0	0
2024-10-09 00:35:47			0	38167	0	0	0	21477	20040	161888	27092	1054034	46246	107884	0	0	8219	559009	0	0
2024-10-09 00:36:47			0	38207	0	0	0	21475	20040	161776	27459	1054078	46255	107883	0	0	8222	557420	0	0
2024-10-09 00:37:47			0	38206	0	0	0	21472	20040	161728	26870	1054052	46245	107882	0	0	8222	557460	0	0
2024-10-09 00:38:47			0	38206	0	0	0	21475	20050	161792	27232	1054069	46246	107883	0	0	8222	557429	0	0
2024-10-09 00:39:47			0	38196	0	0	0	21470	20050	161752	27203	1054096	46246	107881	0	0	8221	557826	0	0
2024-10-09 00:40:47			0	38190	0	0	0	21477	20030	161868	27291	1054096	46233	107884	0	0	8221	558126	0	0
2024-10-09 00:41:47			0	38185	0	0	0	21457	20040	161880	27116	1054078	46245	107876	0	0	8221	558294	0	0
2024-10-09 00:42:47			0	38174	0	0	0	21470	20030	161852	27291	1054122	46255	107881	0	0	8220	558762	0	0
2024-10-09 00:43:47			0	38187	0	0	0	21467	20040	161820	27353	1053998	46233	107880	0	0	8221	558214	0	0
2024-10-09 00:44:47			0	38181	0	0	0	21472	20030	161900	27220	1053963	46245	107882	0	0	8220	558484	0	0
2024-10-09 00:45:47			0	38185	0	0	0	21467	20040	161932	27149	1054087	46246	107880	0	0	8220	558294	0	0
2024-10-09 00:46:47			0	38192	0	0	0	21477	20040	161852	27086	1054052	46222	107884	0	0	8221	558016	0	0
2024-10-09 00:47:47			0	38178	0	0	0	21459	20040	161840	27270	1054078	46255	107877	0	0	8220	558572	0	0
2024-10-09 00:48:47			0	38189	0	0	0	21459	20030	161848	27351	1054007	46232	107877	0	0	8221	558166	0	0
2024-10-09 00:49:47			0	38164	0	0	0	21470	20040	161956	27069	1054052	46222	107881	0	0	8219	559129	0	0
2024-10-09 00:50:47			0	38160	0	0	0	21470	20040	161952	27182	1053998	46245	107881	0	0	8219	559288	0	0
2024-10-09 00:51:47			0	38173	0	0	0	21462	20030	161912	27338	1054016	46245	107878	0	0	8220	558802	0	0
2024-10-09 00:52:47			0	38161	0	0	0	21449	20040	161980	27588	1053998	46245	107873	0	0	8219	559248	0	0
2024-10-09 00:53:47			0	38168	0	0	0	21459	20030	161908	27078	1054069	46255	107877	0	0	8220	559000	0	0
2024-10-09 00:54:47			0	38178	0	0	0	21464	20030	161932	27300	1054043	46255	107879	0	0	8220	558603	0	0
2024-10-09 00:55:47			0	38171	0	0	0	21459	20030	162004	27348	1054043	46222	107877	0	0	8220	558881	0	0
2024-10-09 00:56:47			0	38157	0	0	0	21459	20040	161848	27267	1054078	46245	107877	0	0	8219	559407	0	0
2024-10-09 00:57:47			0	38151	0	0	0	21464	20030	161892	26908	1054096	46233	107879	0	0	8218	559677	0	0
2024-10-09 00:58:47			0	38178	0	0	0	21470	20030	162032	27216	1054069	46245	107881	0	0	8220	558603	0	0
2024-10-09 00:59:47			0	38165	0	0	0	21467	20030	161888	26750	1054007	46254	107880	0	0	8219	559120	0	0
2024-10-09 01:00:47			0	38164	0	0	0	21467	20030	161856	27199	1054069	46233	107880	0	0	8219	559159	0	0
2024-10-09 01:01:47			0	38164	0	0	0	21464	20040	161856	27353	1054052	46255	107879	0	0	8219	559129	0	0
2024-10-09 01:02:47			0	38184	0	0	0	21462	20020	161856	27022	1054051	46254	107878	0	0	8220	558395	0	0
2024-10-09 01:03:47			0	38172	0	0	0	21464	20030	161876	27213	1054096	46245	107879	0	0	8220	558841	0	0
2024-10-09 01:04:47			0	38171	0	0	0	21454	20030	161864	26774	1054060	46244	107875	0	0	8220	558881	0	0
2024-10-09 01:05:47			0	38175	0	0	0	21472	20020	161824	27197	1054025	46232	107882	0	0	8220	558753	0	0
2024-10-09 01:06:47			0	38165	0	0	0	21464	20030	161808	27149	1054007	46232	107879	0	0	8219	559120	0	0
2024-10-09 01:07:47			0	38168	0	0	0	21462	20040	161820	27164	1054025	46233	107878	0	0	8220	558970	0	0
2024-10-09 01:08:47			0	38177	0	0	0	21464	20030	161908	27222	1054034	46232	107879	0	0	8220	558643	0	0
2024-10-09 01:09:47			0	38184	0	0	0	21470	20030	161832	27175	1054060	46244	107881	0	0	8220	558365	0	0
2024-10-09 01:10:47			0	38177	0	0	0	21462	20030	161804	27034	1054007	46244	107878	0	0	8220	558643	0	0
2024-10-09 01:11:47			0	38183	0	0	0	21462	20030	161860	26972	1054016	46245	107878	0	0	8220	558404	0	0
2024-10-09 01:12:47			0	38185	0	0	0	21472	20030	161804	27310	1053989	46233	107882	0	0	8220	558325	0	0
2024-10-09 01:13:47			0	38180	0	0	0	21464	20030	161784	26748	1054016	46255	107879	0	0	8220	558523	0	0
2024-10-09 01:14:47			0	38172	0	0	0	21464	20030	161804	27223	1054016	46255	107879	0	0	8220	558841	0	0
2024-10-09 01:15:47			0	38195	0	0	0	21464	20030	161800	27069	1054016	46245	107879	0	0	8221	557928	0	0
2024-10-09 01:16:47			0	38176	0	0	0	21457	20040	161900	27131	1054078	46233	107876	0	0	8220	558652	0	0
2024-10-09 01:17:47			0	38152	0	0	0	21457	20030	161776	27313	1053989	46245	107876	0	0	8219	559637	0	0
2024-10-09 01:18:47			0	38170	0	0	0	21457	20020	161924	26939	1053998	46244	107876	0	0	8220	558952	0	0
2024-10-09 01:19:47			0	38171	0	0	0	21454	20020	161952	27291	1053998	46244	107875	0	0	8220	558912	0	0
2024-10-09 01:20:47			0	38155	0	0	0	21451	20030	161804	27218	1053963	46233	107874	0	0	8219	559518	0	0
2024-10-09 01:21:47			0	38151	0	0	0	21454	20030	161940	27300	1053989	46245	107875	0	0	8219	559677	0	0
2024-10-09 01:22:47			0	38146	0	0	0	21457	20040	162044	27157	1054025	46233	107876	0	0	8218	559845	0	0
2024-10-09 01:23:47			0	38147	0	0	0	21454	20020	161936	27440	1053998	46232	107875	0	0	8218	559867	0	0
2024-10-09 01:24:47			0	38145	0	0	0	21462	20030	162064	27346	1054016	46233	107878	0	0	8218	559915	0	0
2024-10-09 01:25:47			0	38151	0	0	0	21470	20030	161904	27540	1054016	46233	107881	0	0	8218	559677	0	0
2024-10-09 01:26:47			0	38159	0	0	0	21470	20020	162012	27355	1054025	46244	107881	0	0	8219	559389	0	0
2024-10-09 01:27:47			0	38148	0	0	0	21459	20030	161872	27298	1053981	46232	107877	0	0	8218	559796	0	0
2024-10-09 01:28:47			0	38158	0	0	0	21470	20030	161884	27213	1053981	46244	107881	0	0	8219	559398	0	0
2024-10-09 01:29:47			0	38165	0	0	0	21467	20030	161848	27072	1054016	46245	107880	0	0	8219	559120	0	0
2024-10-09 01:30:47			0	38173	0	0	0	21464	20030	161936	27062	1054060	46244	107879	0	0	8220	558802	0	0
2024-10-09 01:31:47			0	38159	0	0	0	21467	20030	161876	27303	1054034	46244	107880	0	0	8219	559358	0	0
2024-10-09 01:32:47			0	38179	0	0	0	21472	20030	161876	26897	1054060	46244	107882	0	0	8220	558563	0	0
2024-10-09 01:33:47			0	38167	0	0	0	21472	20030	161836	27230	1054069	46255	107882	0	0	8219	559040	0	0
2024-10-09 01:34:47			0	38185	0	0	0	21467	20040	161800	27050	1054052	46233	107880	0	0	8220	558294	0	0
2024-10-09 01:35:47			0	38190	0	0	0	21470	20040	161832	27024	1054078	46222	107881	0	0	8221	558095	0	0
2024-10-09 01:36:47			0	38207	0	0	0	21464	20040	161888	27060	1054060	46246	107879	0	0	8222	557420	0	0
2024-10-09 01:37:47			0	38188	0	0	0	21462	20030	161964	26955	1054069	46255	107878	0	0	8221	558206	0	0
2024-10-09 01:38:47			0	38182	0	0	0	21464	20040	161768	26953	1054078	46245	107879	0	0	8220	558413	0	0
2024-10-09 01:39:47			0	38190	0	0	0	21457	20030	161856	26892	1054043	46233	107876	0	0	8221	558126	0	0
2024-10-09 01:40:47			0	38170	0	0	0	21457	20030	161876	27300	1054007	46254	107876	0	0	8220	558921	0	0
2024-10-09 01:41:47			0	38169	0	0	0	21457	20040	161964	27249	1053998	46222	107876	0	0	8220	558930	0	0
2024-10-09 01:42:47			0	38156	0	0	0	21459	20030	161864	27256	1054034	46265	107877	0	0	8219	559478	0	0
2024-10-09 01:43:47			0	38170	0	0	0	21464	20030	161844	27121	1054069	46245	107879	0	0	8220	558921	0	0
2024-10-09 01:44:47			0	38162	0	0	0	21464	20030	161908	27434	1053989	46233	107879	0	0	8219	559239	0	0
2024-10-09 01:45:47			0	38181	0	0	0	21462	20030	161916	27010	1054043	46245	107878	0	0	8220	558484	0	0
2024-10-09 01:46:47			0	38168	0	0	0	21467	20030	161864	27159	1054113	46232	107880	0	0	8219	559000	0	0
2024-10-09 01:47:47			0	38178	0	0	0	21467	20040	161864	27352	1054052	46245	107880	0	0	8220	558572	0	0
2024-10-09 01:48:47			0	38176	0	0	0	21457	20030	161928	27433	1054043	46266	107876	0	0	8220	558682	0	0
2024-10-09 01:49:47			0	38173	0	0	0	21462	20030	161836	27331	1054087	46232	107878	0	0	8220	558802	0	0
2024-10-09 01:50:47			0	38174	0	0	0	21459	20020	161812	27180	1054042	46243	107877	0	0	8220	558793	0	0
2024-10-09 01:51:47			0	38172	0	0	0	21454	20030	161892	27284	1053963	46233	107875	0	0	8220	558841	0	0
2024-10-09 01:52:47			0	38178	0	0	0	21457	20020	161920	27263	1054025	46254	107876	0	0	8220	558634	0	0
2024-10-09 01:53:47			0	38166	0	0	0	21457	20030	161888	27234	1054007	46244	107876	0	0	8219	559080	0	0
2024-10-09 01:54:47			0	38179	0	0	0	21464	20030	161848	27277	1053927	46232	107879	0	0	8220	558563	0	0
2024-10-09 01:55:47			0	38178	0	0	0	21459	20030	161928	27170	1054034	46232	107877	0	0	8220	558603	0	0
2024-10-09 01:56:47			0	38181	0	0	0	21464	20030	161956	27286	1054007	46232	107879	0	0	8220	558484	0	0
2024-10-09 01:57:47			0	38177	0	0	0	21459	20030	161792	27282	1054096	46233	107877	0	0	8220	558643	0	0
2024-10-09 01:58:47			0	38177	0	0	0	21449	20020	161888	27116	1054016	46243	107873	0	0	8220	558674	0	0
2024-10-09 01:59:47			0	38190	0	0	0	21459	20020	161872	27216	1053998	46221	107877	0	0	8221	558157	0	0
2024-10-09 02:00:47			0	38180	0	0	0	21459	20030	161832	27322	1054034	46232	107877	0	0	8220	558523	0	0
2024-10-09 02:01:47			0	38188	0	0	0	21470	20030	161708	27282	1054043	46233	107881	0	0	8221	558206	0	0
2024-10-09 02:02:47			0	38214	0	0	0	21454	20020	161616	27235	1053972	46244	107875	0	0	8222	557204	0	0
2024-10-09 02:03:47			0	38206	0	0	0	21457	20030	161692	27183	1054034	46244	107876	0	0	8222	557491	0	0
2024-10-09 02:04:47			0	38220	0	0	0	21454	20030	161756	27140	1054034	46265	107875	0	0	8223	556935	0	0
2024-10-09 02:05:47			0	38191	0	0	0	21451	20020	161720	27124	1054016	46243	107874	0	0	8221	558117	0	0
2024-10-09 02:06:47			0	38186	0	0	0	21457	20020	161820	27220	1053945	46254	107876	0	0	8221	558316	0	0
2024-10-09 02:07:47			0	38202	0	0	0	21462	20020	161800	27398	1053998	46244	107878	0	0	8221	557680	0	0
2024-10-09 02:08:47			0	38201	0	0	0	21454	20030	161764	26909	1054007	46232	107875	0	0	8222	557689	0	0
2024-10-09 02:09:47			0	38203	0	0	0	21457	20020	161756	27239	1054016	46243	107876	0	0	8222	557641	0	0
2024-10-09 02:10:47			0	38214	0	0	0	21451	20020	161788	27225	1054042	46220	107874	0	0	8222	557204	0	0
2024-10-09 02:11:47			0	38206	0	0	0	21454	20030	161844	27291	1054034	46244	107875	0	0	8222	557491	0	0
2024-10-09 02:12:47			0	38212	0	0	0	21454	20020	161692	27105	1054042	46231	107875	0	0	8222	557283	0	0
2024-10-09 02:13:47			0	38216	0	0	0	21459	20030	161692	27298	1054034	46232	107877	0	0	8222	557094	0	0
2024-10-09 02:14:47			0	38227	0	0	0	21459	20030	161652	27241	1054007	46221	107877	0	0	8223	556657	0	0
2024-10-09 02:15:47			0	38234	0	0	0	21454	20020	161764	27254	1053910	46231	107875	0	0	8223	556411	0	0
2024-10-09 02:16:47			0	38210	0	0	0	21449	20020	161672	27244	1054016	46243	107873	0	0	8222	557363	0	0
2024-10-09 02:17:47			0	38203	0	0	0	21449	20010	161720	26993	1053945	46242	107873	0	0	8222	557671	0	0
2024-10-09 02:18:47			0	38199	0	0	0	21444	20020	161808	27083	1054025	46244	107871	0	0	8222	557799	0	0
2024-10-09 02:19:47			0	38193	0	0	0	21438	20030	161812	26942	1053981	46232	107869	0	0	8221	558007	0	0
2024-10-09 02:20:47			0	38198	0	0	0	21451	20010	161824	27064	1053954	46231	107874	0	0	8221	557870	0	0
2024-10-09 02:21:47			0	38190	0	0	0	21449	20020	161840	27201	1053989	46243	107873	0	0	8221	558157	0	0
2024-10-09 02:22:47			0	38205	0	0	0	21462	20030	161732	27256	1054034	46254	107878	0	0	8222	557530	0	0
2024-10-09 02:23:47			0	38223	0	0	0	21451	20020	161680	26894	1054016	46231	107874	0	0	8223	556847	0	0
2024-10-09 02:24:47			0	38224	0	0	0	21436	20020	161716	27265	1054016	46231	107868	0	0	8223	556807	0	0
2024-10-09 02:25:47			0	38198	0	0	0	21433	20020	161788	27045	1053989	46253	107867	0	0	8222	557839	0	0
2024-10-09 02:26:47			0	38187	0	0	0	21441	20010	161824	27277	1053927	46243	107870	0	0	8221	558307	0	0
2024-10-09 02:27:47			0	38179	0	0	0	21441	20020	161804	27161	1053936	46231	107870	0	0	8220	558594	0	0
2024-10-09 02:28:47			0	38186	0	0	0	21441	20010	161748	26998	1053980	46231	107870	0	0	8221	558346	0	0
2024-10-09 02:29:47			0	38190	0	0	0	21449	20020	161776	27178	1053989	46231	107873	0	0	8221	558157	0	0
2024-10-09 02:30:47			0	38201	0	0	0	21457	20020	161744	27036	1054016	46243	107876	0	0	8221	557720	0	0
2024-10-09 02:31:47			0	38217	0	0	0	21454	20010	161720	27213	1054007	46253	107875	0	0	8222	557116	0	0
2024-10-09 02:32:47			0	38241	0	0	0	21454	20020	161740	27161	1054042	46243	107875	0	0	8224	556133	0	0
2024-10-09 02:33:47			0	38231	0	0	0	21451	20020	161704	27374	1053989	46243	107874	0	0	8223	556530	0	0
2024-10-09 02:34:47			0	38219	0	0	0	21446	20020	161672	26706	1054016	46220	107872	0	0	8223	557006	0	0
2024-10-09 02:35:47			0	38209	0	0	0	21444	20020	161672	26838	1053998	46244	107871	0	0	8222	557402	0	0
2024-10-09 02:36:47			0	38185	0	0	0	21441	20010	161676	27286	1053954	46231	107870	0	0	8221	558386	0	0
2024-10-09 02:37:47			0	38179	0	0	0	21438	20010	161728	27079	1053971	46242	107869	0	0	8220	558625	0	0
2024-10-09 02:38:47			0	38192	0	0	0	21438	20020	161916	27424	1054016	46231	107869	0	0	8221	558077	0	0
2024-10-09 02:39:47			0	38179	0	0	0	21441	20000	161852	27274	1053936	46242	107870	0	0	8220	558656	0	0
2024-10-09 02:40:47			0	38182	0	0	0	21446	20010	161808	27497	1053901	46231	107872	0	0	8220	558506	0	0
2024-10-09 02:41:47			0	38200	0	0	0	21444	20010	161716	27492	1053918	46230	107871	0	0	8222	557790	0	0
2024-10-09 02:42:47			0	38185	0	0	0	21428	20000	161832	27364	1053936	46242	107865	0	0	8221	558417	0	0
2024-10-09 02:43:47			0	38188	0	0	0	21441	20000	161756	27244	1053909	46230	107870	0	0	8221	558298	0	0
2024-10-09 02:44:47			0	38183	0	0	0	21441	20000	161796	27215	1053883	46230	107870	0	0	8221	558497	0	0
2024-10-09 02:45:47			0	38186	0	0	0	21438	20010	161832	27405	1053918	46252	107869	0	0	8221	558346	0	0
2024-10-09 02:46:47			0	38180	0	0	0	21431	20010	161808	27052	1053998	46242	107866	0	0	8221	558585	0	0
2024-10-09 02:47:47			0	38181	0	0	0	21433	20010	161820	27369	1053927	46220	107867	0	0	8221	558545	0	0
2024-10-09 02:48:47			0	38175	0	0	0	21438	20000	161920	27308	1053963	46219	107869	0	0	8220	558815	0	0
2024-10-09 02:49:47			0	38182	0	0	0	21444	20000	161872	27241	1053954	46229	107871	0	0	8220	558536	0	0
2024-10-09 02:50:47			0	38191	0	0	0	21433	20000	161776	27085	1053963	46242	107867	0	0	8221	558179	0	0
2024-10-09 02:51:47			0	38190	0	0	0	21433	20010	161716	26975	1053927	46253	107867	0	0	8221	558188	0	0
2024-10-09 02:52:47			0	38195	0	0	0	21438	20000	161724	27234	1053909	46263	107869	0	0	8221	558020	0	0
2024-10-09 02:53:47			0	38197	0	0	0	21441	20010	161708	27007	1053918	46252	107870	0	0	8221	557910	0	0
2024-10-09 02:54:47			0	38211	0	0	0	21449	20000	161744	27024	1053909	46242	107873	0	0	8222	557385	0	0
2024-10-09 02:55:47			0	38232	0	0	0	21459	20000	161648	26994	1053909	46230	107877	0	0	8223	556551	0	0
2024-10-09 02:56:47			0	38222	0	0	0	21438	20010	161724	26738	1053954	46253	107869	0	0	8223	556917	0	0
2024-10-09 02:57:47			0	38213	0	0	0	21444	20010	161744	26868	1053918	46230	107871	0	0	8222	557274	0	0
2024-10-09 02:58:47			0	38228	0	0	0	21444	20010	161620	27102	1053980	46253	107871	0	0	8223	556679	0	0
2024-10-09 02:59:47			0	38206	0	0	0	21428	20010	161704	27138	1053927	46243	107865	0	0	8222	557552	0	0
2024-10-09 03:00:47			0	38197	0	0	0	21436	20010	161788	27213	1053971	46230	107868	0	0	8222	557910	0	0
2024-10-09 03:01:47			0	38203	0	0	0	21441	20010	161728	27230	1053901	46231	107870	0	0	8222	557671	0	0
2024-10-09 03:02:47			0	38204	0	0	0	21446	20000	161704	27220	1053963	46242	107872	0	0	8222	557662	0	0
2024-10-09 03:03:47			0	38201	0	0	0	21425	20000	161736	27060	1053909	46230	107864	0	0	8222	557781	0	0
2024-10-09 03:04:47			0	38197	0	0	0	21431	20010	161696	27244	1053918	46242	107866	0	0	8222	557910	0	0
2024-10-09 03:05:47			0	38200	0	0	0	21433	20000	161836	27003	1053900	46251	107867	0	0	8222	557821	0	0
2024-10-09 03:06:47			0	38209	0	0	0	21428	20000	161816	27144	1053900	46241	107865	0	0	8222	557464	0	0
2024-10-09 03:07:47			0	38203	0	0	0	21438	20010	161796	27182	1053874	46253	107869	0	0	8222	557671	0	0
2024-10-09 03:08:47			0	38196	0	0	0	21423	20010	161740	27124	1053892	46230	107863	0	0	8222	557949	0	0
2024-10-09 03:09:47			0	38206	0	0	0	21444	20000	161792	27010	1053927	46241	107871	0	0	8222	557583	0	0
2024-10-09 03:10:47			0	38209	0	0	0	21438	20000	161772	26935	1053900	46241	107869	0	0	8222	557464	0	0
2024-10-09 03:11:47			0	38203	0	0	0	21420	20000	161636	26998	1053883	46242	107862	0	0	8222	557702	0	0
2024-10-09 03:12:47			0	38210	0	0	0	21431	20000	161744	26944	1054016	46242	107866	0	0	8222	557424	0	0
2024-10-09 03:13:47			0	38210	0	0	0	21428	20000	161768	26847	1053963	46230	107865	0	0	8222	557424	0	0
2024-10-09 03:14:47			0	38197	0	0	0	21433	20000	161816	27173	1053883	46230	107867	0	0	8222	557940	0	0
2024-10-09 03:15:47			0	38193	0	0	0	21431	20010	161796	27230	1053865	46263	107866	0	0	8221	558068	0	0
2024-10-09 03:16:47			0	38217	0	0	0	21433	20000	161764	27322	1053883	46242	107867	0	0	8223	557146	0	0
2024-10-09 03:17:47			0	38204	0	0	0	21428	20010	161792	27067	1053918	46242	107865	0	0	8222	557632	0	0
2024-10-09 03:18:47			0	38190	0	0	0	21423	19990	161760	26935	1053918	46228	107863	0	0	8221	558249	0	0
2024-10-09 03:19:47			0	38211	0	0	0	21420	19990	161844	27026	1053891	46228	107862	0	0	8223	557415	0	0
2024-10-09 03:20:47			0	38207	0	0	0	21420	20000	161696	27133	1053900	46229	107862	0	0	8222	557543	0	0
2024-10-09 03:21:47			0	38212	0	0	0	21444	20000	161676	27185	1053936	46252	107871	0	0	8222	557345	0	0
2024-10-09 03:22:47			0	38198	0	0	0	21428	20000	161640	27277	1053874	46229	107865	0	0	8222	557901	0	0
2024-10-09 03:23:47			0	38230	0	0	0	21444	19990	161628	26767	1053865	46250	107871	0	0	8223	556661	0	0
2024-10-09 03:24:47			0	38223	0	0	0	21431	19990	161596	26755	1053918	46228	107866	0	0	8223	556939	0	0
2024-10-09 03:25:47			0	38227	0	0	0	21454	20000	161552	27329	1053900	46241	107875	0	0	8223	556750	0	0
2024-10-09 03:26:47			0	38220	0	0	0	21433	20000	161604	27237	1053936	46242	107867	0	0	8223	557027	0	0
2024-10-09 03:27:47			0	38216	0	0	0	21433	20000	161684	27066	1053927	46241	107867	0	0	8223	557186	0	0
2024-10-09 03:28:47			0	38231	0	0	0	21431	19990	161724	27105	1053918	46240	107866	0	0	8224	556622	0	0
2024-10-09 03:29:47			0	38230	0	0	0	21423	20000	161620	27258	1053936	46242	107863	0	0	8224	556631	0	0
2024-10-09 03:30:47			0	38227	0	0	0	21428	20000	161716	27293	1053900	46241	107865	0	0	8223	556750	0	0
2024-10-09 03:31:47			0	38223	0	0	0	21425	20000	161728	26811	1053900	46229	107864	0	0	8223	556908	0	0
2024-10-09 03:32:47			0	38218	0	0	0	21433	20000	161624	27322	1053927	46229	107867	0	0	8223	557107	0	0
2024-10-09 03:33:47			0	38226	0	0	0	21425	20000	161732	27066	1053927	46251	107864	0	0	8223	556789	0	0
2024-10-09 03:34:47			0	38228	0	0	0	21431	20000	161768	27303	1053954	46262	107866	0	0	8223	556710	0	0
2024-10-09 03:35:47			0	38252	0	0	0	21446	20000	161612	27336	1053936	46230	107872	0	0	8225	555759	0	0
2024-10-09 03:36:47			0	38243	0	0	0	21433	20000	161636	26941	1053980	46241	107867	0	0	8224	556115	0	0
2024-10-09 03:37:47			0	38242	0	0	0	21428	20000	161564	27090	1053900	46241	107865	0	0	8224	556155	0	0
2024-10-09 03:38:47			0	38262	0	0	0	21433	20000	161656	26835	1053989	46242	107867	0	0	8225	555362	0	0
2024-10-09 03:39:47			0	38234	0	0	0	21431	20000	161560	27149	1053883	46230	107866	0	0	8224	556472	0	0
2024-10-09 03:40:47			0	38244	0	0	0	21428	20000	161532	27296	1053900	46241	107865	0	0	8224	556076	0	0
2024-10-09 03:41:47			0	38234	0	0	0	21428	20000	161660	26991	1053874	46229	107865	0	0	8224	556472	0	0
2024-10-09 03:42:47			0	38218	0	0	0	21420	19990	161524	27015	1053945	46217	107862	0	0	8223	557137	0	0
2024-10-09 03:43:47			0	38231	0	0	0	21433	19990	161560	27013	1053936	46240	107867	0	0	8223	556622	0	0
2024-10-09 03:44:47			0	38235	0	0	0	21433	19990	161604	26887	1053918	46240	107867	0	0	8224	556463	0	0
2024-10-09 03:45:47			0	38228	0	0	0	21420	20000	161652	26935	1053927	46218	107862	0	0	8224	556710	0	0
2024-10-09 03:46:47			0	38235	0	0	0	21423	19990	161716	27081	1053865	46240	107863	0	0	8224	556463	0	0
2024-10-09 03:47:47			0	38223	0	0	0	21425	20000	161576	26807	1053874	46241	107864	0	0	8223	556908	0	0
2024-10-09 03:48:47			0	38225	0	0	0	21431	20000	161552	27045	1053900	46229	107866	0	0	8223	556829	0	0
2024-10-09 03:49:47			0	38229	0	0	0	21431	20010	161576	27225	1053971	46230	107866	0	0	8223	556640	0	0
2024-10-09 03:50:47			0	38221	0	0	0	21425	20000	161612	26967	1053927	46229	107864	0	0	8223	556988	0	0
2024-10-09 03:51:47			0	38217	0	0	0	21425	20000	161596	27635	1053883	46242	107864	0	0	8223	557146	0	0
2024-10-09 03:52:47			0	38229	0	0	0	21428	20000	161588	26870	1053900	46229	107865	0	0	8223	556670	0	0
2024-10-09 03:53:47			0	38223	0	0	0	21431	20000	161608	26625	1053900	46229	107866	0	0	8223	556908	0	0
2024-10-09 03:54:47			0	38223	0	0	0	21425	19990	161632	26944	1053891	46240	107864	0	0	8223	556939	0	0
2024-10-09 03:55:47			0	38226	0	0	0	21433	19990	161624	27177	1053918	46240	107867	0	0	8223	556820	0	0
2024-10-09 03:56:47			0	38221	0	0	0	21423	20000	161608	27130	1053963	46242	107863	0	0	8223	556988	0	0
2024-10-09 03:57:47			0	38232	0	0	0	21436	20010	161648	27088	1053892	46242	107868	0	0	8224	556521	0	0
2024-10-09 03:58:47			0	38240	0	0	0	21428	19990	161684	26804	1053891	46228	107865	0	0	8224	556265	0	0
2024-10-09 03:59:47			0	38226	0	0	0	21428	19990	161668	27052	1053936	46240	107865	0	0	8223	556820	0	0
2024-10-09 04:00:47			0	38230	0	0	0	21423	19990	161696	27052	1053936	46250	107863	0	0	8224	556661	0	0
2024-10-09 04:01:47			0	38224	0	0	0	21425	20000	161632	27215	1053900	46229	107864	0	0	8223	556869	0	0
2024-10-09 04:02:47			0	38220	0	0	0	21428	20000	161616	27455	1053900	46241	107865	0	0	8223	557027	0	0
2024-10-09 04:03:47			0	38225	0	0	0	21423	19990	161596	27185	1053891	46250	107863	0	0	8223	556860	0	0
2024-10-09 04:04:47			0	38222	0	0	0	21433	20000	161616	27001	1053936	46230	107867	0	0	8223	556948	0	0
2024-10-09 04:05:47			0	38214	0	0	0	21431	19990	161676	26873	1053891	46240	107866	0	0	8223	557296	0	0
2024-10-09 04:06:47			0	38215	0	0	0	21428	19990	161616	27083	1053883	46240	107865	0	0	8223	557256	0	0
2024-10-09 04:07:47			0	38210	0	0	0	21433	20000	161504	26906	1053900	46229	107867	0	0	8222	557424	0	0
2024-10-09 04:08:47			0	38232	0	0	0	21431	20000	161620	26783	1053874	46241	107866	0	0	8224	556551	0	0
2024-10-09 04:09:47			0	38226	0	0	0	21423	20000	161592	26918	1053900	46229	107863	0	0	8223	556789	0	0
2024-10-09 04:10:47			0	38224	0	0	0	21436	19990	161572	27015	1053918	46240	107868	0	0	8223	556899	0	0
2024-10-09 04:11:47			0	38236	0	0	0	21423	20000	161724	27230	1053980	46241	107863	0	0	8224	556393	0	0
2024-10-09 04:12:47			0	38219	0	0	0	21423	20010	161644	27098	1053945	46230	107863	0	0	8223	557036	0	0
2024-10-09 04:13:47			0	38227	0	0	0	21436	19990	161660	27170	1053891	46228	107868	0	0	8223	556780	0	0
2024-10-09 04:14:47			0	38227	0	0	0	21425	19990	161648	27020	1053918	46240	107864	0	0	8223	556780	0	0
2024-10-09 04:15:47			0	38227	0	0	0	21438	19990	161668	27334	1053891	46240	107869	0	0	8223	556780	0	0
2024-10-09 04:16:47			0	38220	0	0	0	21425	19990	161612	27227	1053918	46240	107864	0	0	8223	557058	0	0
2024-10-09 04:17:47			0	38215	0	0	0	21425	20000	161592	27291	1053936	46230	107864	0	0	8223	557226	0	0
2024-10-09 04:18:47			0	38227	0	0	0	21425	20000	161628	27364	1053874	46229	107864	0	0	8223	556750	0	0
2024-10-09 04:19:47			0	38211	0	0	0	21418	20000	161696	26830	1053954	46241	107861	0	0	8223	557385	0	0
2024-10-09 04:20:47			0	38222	0	0	0	21423	19990	161624	27505	1053945	46240	107863	0	0	8223	556979	0	0
2024-10-09 04:21:47			0	38215	0	0	0	21425	20000	161616	27244	1053927	46229	107864	0	0	8223	557226	0	0
2024-10-09 04:22:47			0	38214	0	0	0	21418	20000	161672	27279	1053847	46241	107861	0	0	8223	557265	0	0
2024-10-09 04:23:47			0	38220	0	0	0	21425	19990	161608	27293	1053945	46217	107864	0	0	8223	557058	0	0
2024-10-09 04:24:47			0	38221	0	0	0	21415	20000	161608	27270	1053900	46229	107860	0	0	8223	556988	0	0
2024-10-09 04:25:47			0	38204	0	0	0	21418	20000	161712	26930	1053900	46241	107861	0	0	8222	557662	0	0
2024-10-09 04:26:47			0	38196	0	0	0	21423	19990	161708	27182	1053883	46250	107863	0	0	8222	558011	0	0
2024-10-09 04:27:47			0	38207	0	0	0	21431	19990	161664	27248	1053891	46228	107866	0	0	8222	557574	0	0
2024-10-09 04:28:47			0	38217	0	0	0	21431	20000	161616	27369	1053900	46251	107866	0	0	8223	557146	0	0
2024-10-09 04:29:47			0	38218	0	0	0	21428	19990	161672	26833	1053891	46240	107865	0	0	8223	557137	0	0
2024-10-09 04:30:47			0	38221	0	0	0	21425	20000	161552	27008	1053927	46241	107864	0	0	8223	556988	0	0
2024-10-09 04:31:47			0	38194	0	0	0	21412	19990	161700	27020	1053865	46240	107859	0	0	8222	558090	0	0
2024-10-09 04:32:47			0	38195	0	0	0	21420	20000	161804	26993	1053927	46229	107862	0	0	8222	558020	0	0
2024-10-09 04:33:47			0	38205	0	0	0	21425	19990	161768	27192	1053856	46261	107864	0	0	8222	557653	0	0
2024-10-09 04:34:47			0	38217	0	0	0	21428	19980	161644	27204	1053820	46228	107865	0	0	8223	557208	0	0
2024-10-09 04:35:47			0	38213	0	0	0	21420	20000	161664	27175	1053900	46241	107862	0	0	8223	557305	0	0
2024-10-09 04:36:47			0	38208	0	0	0	21420	19990	161728	27126	1053891	46240	107862	0	0	8222	557534	0	0
2024-10-09 04:37:47			0	38200	0	0	0	21425	19990	161764	27034	1053891	46240	107864	0	0	8222	557852	0	0
2024-10-09 04:38:47			0	38195	0	0	0	21423	20000	161692	26965	1053900	46241	107863	0	0	8222	558020	0	0
2024-10-09 04:39:47			0	38183	0	0	0	21431	20000	161744	27100	1053874	46241	107866	0	0	8221	558497	0	0
2024-10-09 04:40:47			0	38195	0	0	0	21423	20000	161788	27360	1053847	46262	107863	0	0	8222	558020	0	0
2024-10-09 04:41:47			0	38195	0	0	0	21425	19990	161816	27150	1053829	46240	107864	0	0	8222	558051	0	0
2024-10-09 04:42:47			0	38190	0	0	0	21420	19990	161900	27104	1053856	46240	107862	0	0	8221	558249	0	0
2024-10-09 04:43:47			0	38172	0	0	0	21418	19990	161820	27452	1053838	46240	107861	0	0	8220	558965	0	0
2024-10-09 04:44:47			0	38174	0	0	0	21420	19990	161772	26816	1053829	46240	107862	0	0	8220	558885	0	0
2024-10-09 04:45:47			0	38163	0	0	0	21425	19990	161896	27019	1053829	46250	107864	0	0	8220	559323	0	0
2024-10-09 04:46:47			0	38186	0	0	0	21423	19990	161844	27048	1053838	46228	107863	0	0	8221	558408	0	0
2024-10-09 04:47:47			0	38176	0	0	0	21415	19990	161784	27190	1053909	46240	107860	0	0	8221	558806	0	0
2024-10-09 04:48:47			0	38187	0	0	0	21412	20000	161892	26968	1053900	46218	107859	0	0	8221	558338	0	0
2024-10-09 04:49:47			0	38147	0	0	0	21420	19980	161952	27334	1053900	46228	107862	0	0	8219	559990	0	0
2024-10-09 04:50:47			0	38165	0	0	0	21436	19990	161976	27260	1053865	46240	107868	0	0	8220	559243	0	0
2024-10-09 04:51:47			0	38177	0	0	0	21407	20000	161940	27152	1053874	46241	107857	0	0	8221	558735	0	0
2024-10-09 04:52:47			0	38170	0	0	0	21418	19990	161864	27296	1053838	46228	107861	0	0	8220	559044	0	0
2024-10-09 04:53:47			0	38171	0	0	0	21423	19980	161892	27281	1053874	46217	107863	0	0	8220	559035	0	0
2024-10-09 04:54:47			0	38170	0	0	0	21415	19990	161916	27159	1053883	46240	107860	0	0	8220	559044	0	0
2024-10-09 04:55:47			0	38170	0	0	0	21415	19990	161924	27350	1053883	46228	107860	0	0	8220	559044	0	0
2024-10-09 04:56:47			0	38164	0	0	0	21420	19980	161944	27010	1053820	46240	107862	0	0	8220	559314	0	0
2024-10-09 04:57:47			0	38180	0	0	0	21418	19990	161868	27185	1053829	46240	107861	0	0	8221	558647	0	0
2024-10-09 04:58:47			0	38171	0	0	0	21415	19990	161972	27223	1053829	46240	107860	0	0	8220	559004	0	0
2024-10-09 04:59:47			0	38181	0	0	0	21420	19990	162000	26889	1053829	46228	107862	0	0	8221	558607	0	0
2024-10-09 05:00:47			0	38180	0	0	0	21425	19980	161804	27088	1053812	46239	107864	0	0	8221	558677	0	0
2024-10-09 05:01:47			0	38181	0	0	0	21410	19980	161872	27145	1053794	46240	107858	0	0	8221	558638	0	0
2024-10-09 05:02:47			0	38184	0	0	0	21405	19990	161984	27232	1053856	46240	107856	0	0	8221	558488	0	0
2024-10-09 05:03:47			0	38175	0	0	0	21415	19990	161848	27360	1053856	46228	107860	0	0	8220	558845	0	0
2024-10-09 05:04:47			0	38175	0	0	0	21407	19990	161940	27476	1053829	46228	107857	0	0	8221	558845	0	0
2024-10-09 05:05:47			0	38160	0	0	0	21410	19990	161944	27419	1053865	46240	107858	0	0	8220	559442	0	0
2024-10-09 05:06:47			0	38171	0	0	0	21412	19990	161848	27107	1053829	46207	107859	0	0	8220	559004	0	0
2024-10-09 05:07:47			0	38179	0	0	0	21420	19980	161992	27107	1053874	46250	107862	0	0	8221	558717	0	0
2024-10-09 05:08:47			0	38183	0	0	0	21412	19990	161808	27315	1053856	46240	107859	0	0	8221	558527	0	0
2024-10-09 05:09:47			0	38166	0	0	0	21410	19990	161824	27289	1053803	46228	107858	0	0	8220	559203	0	0
2024-10-09 05:10:47			0	38187	0	0	0	21415	19980	161932	27118	1053874	46240	107860	0	0	8221	558399	0	0
2024-10-09 05:11:47			0	38175	0	0	0	21412	20000	161812	27005	1053821	46229	107859	0	0	8221	558815	0	0
2024-10-09 05:12:47			0	38172	0	0	0	21410	19990	161900	26968	1053891	46240	107858	0	0	8220	558965	0	0
2024-10-09 05:13:47			0	38183	0	0	0	21423	19990	161828	27079	1053829	46240	107863	0	0	8221	558527	0	0
2024-10-09 05:14:47			0	38189	0	0	0	21415	19980	161872	27227	1053874	46228	107860	0	0	8221	558320	0	0
2024-10-09 05:15:47			0	38170	0	0	0	21407	19990	161832	27239	1053856	46228	107857	0	0	8220	559044	0	0
2024-10-09 05:16:47			0	38180	0	0	0	21412	19990	161812	27100	1053909	46228	107859	0	0	8221	558647	0	0
2024-10-09 05:17:47			0	38172	0	0	0	21407	19980	161876	27343	1053865	46239	107857	0	0	8220	558995	0	0
2024-10-09 05:18:47			0	38192	0	0	0	21410	19970	161832	27119	1053829	46226	107858	0	0	8221	558231	0	0
2024-10-09 05:19:47			0	38173	0	0	0	21410	19980	161868	26951	1053874	46228	107858	0	0	8220	558956	0	0
2024-10-09 05:20:47			0	38172	0	0	0	21418	19980	161868	27202	1053794	46217	107861	0	0	8220	558995	0	0
2024-10-09 05:21:47			0	38190	0	0	0	21410	19980	161928	26831	1053812	46239	107858	0	0	8221	558280	0	0
2024-10-09 05:22:47			0	38167	0	0	0	21410	19980	161928	27078	1053847	46240	107858	0	0	8220	559194	0	0
2024-10-09 05:23:47			0	38173	0	0	0	21410	19980	161844	26871	1053812	46216	107858	0	0	8220	558956	0	0
2024-10-09 05:24:47			0	38189	0	0	0	21420	19980	161888	27057	1053820	46240	107862	0	0	8221	558320	0	0
2024-10-09 05:25:47			0	38188	0	0	0	21405	19980	161816	26885	1053820	46228	107856	0	0	8221	558359	0	0
2024-10-09 05:26:47			0	38172	0	0	0	21410	19990	161880	27119	1053829	46228	107858	0	0	8220	558965	0	0
2024-10-09 05:27:47			0	38178	0	0	0	21412	19990	161784	27092	1053803	46240	107859	0	0	8221	558726	0	0
2024-10-09 05:28:47			0	38196	0	0	0	21418	19990	161836	26892	1053883	46240	107861	0	0	8222	558011	0	0
2024-10-09 05:29:47			0	38209	0	0	0	21410	19980	161816	27105	1053847	46240	107858	0	0	8223	557525	0	0
2024-10-09 05:30:47			0	38200	0	0	0	21402	19980	161768	26961	1053820	46240	107855	0	0	8222	557883	0	0
2024-10-09 05:31:47			0	38184	0	0	0	21410	19990	161720	26989	1053803	46228	107858	0	0	8221	558488	0	0
2024-10-09 05:32:47			0	38194	0	0	0	21415	19980	161812	27085	1053900	46217	107860	0	0	8222	558121	0	0
2024-10-09 05:33:47			0	38195	0	0	0	21394	19970	161848	27093	1053767	46226	107852	0	0	8222	558112	0	0
2024-10-09 05:34:47			0	38203	0	0	0	21405	19990	161860	27071	1053856	46228	107856	0	0	8222	557733	0	0
2024-10-09 05:35:47			0	38196	0	0	0	21412	19970	161800	26850	1053803	46237	107859	0	0	8222	558072	0	0
2024-10-09 05:36:47			0	38201	0	0	0	21389	19980	161828	26823	1053838	46239	107850	0	0	8222	557843	0	0
2024-10-09 05:37:47			0	38195	0	0	0	21410	19980	161856	26745	1053874	46240	107858	0	0	8222	558081	0	0
2024-10-09 05:38:47			0	38199	0	0	0	21405	19980	161812	26748	1053785	46239	107856	0	0	8222	557922	0	0
2024-10-09 05:39:47			0	38212	0	0	0	21407	19980	161824	27163	1053794	46240	107857	0	0	8223	557406	0	0
2024-10-09 05:40:47			0	38198	0	0	0	21397	19980	161816	26767	1053767	46240	107853	0	0	8222	557962	0	0
2024-10-09 05:41:47			0	38188	0	0	0	21397	19970	161856	26996	1053829	46226	107853	0	0	8221	558390	0	0
2024-10-09 05:42:47			0	38195	0	0	0	21412	19970	161840	27069	1053767	46226	107859	0	0	8222	558112	0	0
2024-10-09 05:43:47			0	38201	0	0	0	21399	19980	161820	27100	1053847	46217	107854	0	0	8222	557843	0	0
2024-10-09 05:44:47			0	38188	0	0	0	21402	19980	161792	26713	1053891	46227	107855	0	0	8221	558359	0	0
2024-10-09 05:45:47			0	38198	0	0	0	21407	19970	161820	26960	1053803	46226	107857	0	0	8222	557993	0	0
2024-10-09 05:46:47			0	38187	0	0	0	21402	19980	161872	27194	1053812	46260	107855	0	0	8221	558399	0	0
2024-10-09 05:47:47			0	38181	0	0	0	21399	19980	161796	27282	1053812	46239	107854	0	0	8221	558638	0	0
2024-10-09 05:48:47			0	38198	0	0	0	21405	19970	161768	27085	1053882	46237	107856	0	0	8222	557993	0	0
2024-10-09 05:49:47			0	38190	0	0	0	21410	19980	161784	27306	1053865	46227	107858	0	0	8221	558280	0	0
2024-10-09 05:50:47			0	38208	0	0	0	21399	19980	161836	26828	1053847	46240	107854	0	0	8223	557565	0	0
2024-10-09 05:51:47			0	38183	0	0	0	21394	19970	161840	27022	1053776	46249	107852	0	0	8221	558589	0	0
2024-10-09 05:52:47			0	38162	0	0	0	21402	19970	161852	27130	1053767	46249	107855	0	0	8220	559424	0	0
2024-10-09 05:53:47			0	38188	0	0	0	21394	19970	161816	27118	1053793	46226	107852	0	0	8222	558390	0	0
2024-10-09 05:54:47			0	38186	0	0	0	21405	19960	161760	27322	1053784	46225	107856	0	0	8221	558500	0	0
2024-10-09 05:55:47			0	38203	0	0	0	21402	19970	161760	27383	1053803	46237	107855	0	0	8222	557794	0	0
2024-10-09 05:56:47			0	38205	0	0	0	21394	19960	161780	27166	1053731	46248	107852	0	0	8222	557746	0	0
2024-10-09 05:57:47			0	38204	0	0	0	21394	19980	161820	27102	1053758	46239	107852	0	0	8223	557724	0	0
2024-10-09 05:58:47			0	38210	0	0	0	21379	19970	161804	27005	1053803	46226	107846	0	0	8223	557516	0	0
2024-10-09 05:59:47			0	38203	0	0	0	21386	19970	161824	27083	1053749	46226	107849	0	0	8223	557794	0	0
2024-10-09 06:00:47			0	38194	0	0	0	21386	19980	161912	27279	1053838	46239	107849	0	0	8222	558121	0	0
2024-10-09 06:01:47			0	38196	0	0	0	21397	19970	161816	27237	1053803	46237	107853	0	0	8222	558072	0	0
2024-10-09 06:02:47			0	38204	0	0	0	21402	19970	161756	27026	1053749	46237	107855	0	0	8222	557755	0	0
2024-10-09 06:03:47			0	38189	0	0	0	21394	19960	161716	26831	1053758	46236	107852	0	0	8222	558381	0	0
2024-10-09 06:04:47			0	38222	0	0	0	21392	19970	161636	27114	1053740	46237	107851	0	0	8224	557040	0	0
2024-10-09 06:05:47			0	38200	0	0	0	21386	19970	161756	27064	1053767	46237	107849	0	0	8222	557913	0	0
2024-10-09 06:06:47			0	38198	0	0	0	21392	19960	161688	27088	1053758	46214	107851	0	0	8222	558024	0	0
2024-10-09 06:07:47			0	38183	0	0	0	21394	19970	161808	27022	1053687	46226	107852	0	0	8221	558589	0	0
2024-10-09 06:08:47			0	38198	0	0	0	21399	19950	161768	27183	1053802	46225	107854	0	0	8222	558054	0	0
2024-10-09 06:09:47			0	38210	0	0	0	21389	19960	161884	27237	1053758	46225	107850	0	0	8223	557547	0	0
2024-10-09 06:10:47			0	38198	0	0	0	21384	19970	161636	26911	1053767	46226	107848	0	0	8222	557993	0	0
2024-10-09 06:11:47			0	38198	0	0	0	21381	19960	161740	27138	1053784	46236	107847	0	0	8222	558024	0	0
2024-10-09 06:12:47			0	38196	0	0	0	21394	19960	161824	27355	1053758	46248	107852	0	0	8222	558103	0	0
2024-10-09 06:13:47			0	38204	0	0	0	21384	19960	161760	27308	1053731	46236	107848	0	0	8223	557785	0	0
2024-10-09 06:14:47			0	38191	0	0	0	21374	19960	161776	26838	1053758	46225	107844	0	0	8222	558302	0	0
2024-10-09 06:15:47			0	38188	0	0	0	21389	19970	161876	26774	1053740	46226	107850	0	0	8222	558390	0	0
2024-10-09 06:16:47			0	38205	0	0	0	21389	19970	161896	27201	1053740	46226	107850	0	0	8223	557715	0	0
2024-10-09 06:17:47			0	38199	0	0	0	21384	19960	161876	27415	1053731	46225	107848	0	0	8222	557984	0	0
2024-10-09 06:18:47			0	38198	0	0	0	21386	19950	161740	27241	1053775	46225	107849	0	0	8222	558054	0	0
2024-10-09 06:19:47			0	38209	0	0	0	21394	19950	161828	26876	1053740	46224	107852	0	0	8223	557618	0	0
2024-10-09 06:20:47			0	38226	0	0	0	21384	19960	161740	27454	1053705	46236	107848	0	0	8224	556912	0	0
2024-10-09 06:21:47			0	38218	0	0	0	21394	19950	161716	27303	1053775	46236	107852	0	0	8223	557260	0	0
2024-10-09 06:22:47			0	38208	0	0	0	21397	19970	161724	27178	1053767	46237	107853	0	0	8223	557596	0	0
2024-10-09 06:23:47			0	38225	0	0	0	21381	19960	161748	26750	1053731	46225	107847	0	0	8224	556952	0	0
2024-10-09 06:24:47			0	38227	0	0	0	21397	19950	161680	26816	1053749	46236	107853	0	0	8224	556903	0	0
2024-10-09 06:25:47			0	38252	0	0	0	21392	19960	161640	26968	1053811	46236	107851	0	0	8225	555881	0	0
2024-10-09 06:26:47			0	38240	0	0	0	21381	19950	161596	26925	1053722	46225	107847	0	0	8225	556387	0	0
2024-10-09 06:27:47			0	38239	0	0	0	21381	19950	161696	27131	1053767	46236	107847	0	0	8225	556427	0	0
2024-10-09 06:28:47			0	38214	0	0	0	21381	19950	161648	26934	1053660	46247	107847	0	0	8223	557419	0	0
2024-10-09 06:29:47			0	38210	0	0	0	21381	19960	161668	26977	1053758	46236	107847	0	0	8223	557547	0	0
2024-10-09 06:30:47			0	38219	0	0	0	21386	19950	161740	26986	1053740	46236	107849	0	0	8223	557220	0	0
2024-10-09 06:31:47			0	38227	0	0	0	21384	19940	161624	26901	1053678	46247	107848	0	0	8224	556934	0	0
2024-10-09 06:32:47			0	38231	0	0	0	21389	19950	161608	26974	1053669	46236	107850	0	0	8224	556744	0	0
2024-10-09 06:33:47			0	38252	0	0	0	21389	19950	161572	27095	1053802	46225	107850	0	0	8225	555912	0	0
2024-10-09 06:34:47			0	38252	0	0	0	21386	19960	161544	27140	1053731	46225	107849	0	0	8225	555881	0	0
2024-10-09 06:35:47			0	38254	0	0	0	21386	19960	161480	26783	1053758	46225	107849	0	0	8225	555802	0	0
2024-10-09 06:36:47			0	38261	0	0	0	21384	19950	161484	26960	1053696	46248	107848	0	0	8226	555555	0	0
2024-10-09 06:37:47			0	38288	0	0	0	21384	19960	161532	27124	1053758	46225	107848	0	0	8228	554456	0	0
2024-10-09 06:38:47			0	38284	0	0	0	21386	19960	161476	26977	1053705	46236	107849	0	0	8227	554614	0	0
2024-10-09 06:39:47			0	38275	0	0	0	21392	19960	161480	26970	1053731	46236	107851	0	0	8227	554970	0	0
2024-10-09 06:40:47			0	38302	0	0	0	21394	19970	161460	27100	1053714	46237	107852	0	0	8228	553871	0	0
2024-10-09 06:41:47			0	38293	0	0	0	21386	19950	161476	27168	1053713	46236	107849	0	0	8228	554288	0	0
2024-10-09 06:42:47			0	38309	0	0	0	21381	19960	161436	27206	1053731	46248	107847	0	0	8229	553625	0	0
2024-10-09 06:43:47			0	38308	0	0	0	21394	19950	161436	27001	1053687	46224	107852	0	0	8228	553695	0	0
2024-10-09 06:44:47			0	38310	0	0	0	21384	19950	161284	27244	1053687	46224	107848	0	0	8229	553616	0	0
2024-10-09 06:45:47			0	38324	0	0	0	21379	19950	161364	27015	1053713	46224	107846	0	0	8230	553063	0	0
2024-10-09 06:46:47			0	38328	0	0	0	21384	19950	161400	26916	1053775	46258	107848	0	0	8230	552905	0	0
2024-10-09 06:47:47			0	38316	0	0	0	21384	19950	161288	27062	1053740	46224	107848	0	0	8229	553379	0	0
2024-10-09 06:48:47			0	38339	0	0	0	21386	19950	161348	26955	1053749	46225	107849	0	0	8230	552470	0	0
2024-10-09 06:49:47			0	38331	0	0	0	21389	19950	161336	26811	1053696	46236	107850	0	0	8230	552786	0	0
2024-10-09 06:50:47			0	38345	0	0	0	21389	19950	161304	27092	1053696	46248	107850	0	0	8231	552233	0	0
2024-10-09 06:51:47			0	38330	0	0	0	21384	19950	161200	26920	1053740	46224	107848	0	0	8230	552826	0	0
2024-10-09 06:52:47			0	38335	0	0	0	21394	19950	161212	27291	1053687	46236	107852	0	0	8230	552628	0	0
2024-10-09 06:53:47			0	38329	0	0	0	21381	19950	161268	27234	1053696	46236	107847	0	0	8230	552865	0	0
2024-10-09 06:54:47			0	38339	0	0	0	21389	19960	161272	27043	1053758	46225	107850	0	0	8230	552440	0	0
2024-10-09 06:55:47			0	38324	0	0	0	21384	19960	161292	27072	1053678	46225	107848	0	0	8230	553032	0	0
2024-10-09 06:56:47			0	38340	0	0	0	21386	19950	161388	26984	1053713	46236	107849	0	0	8230	552431	0	0
2024-10-09 06:57:47			0	38349	0	0	0	21392	19940	161280	27071	1053731	46224	107851	0	0	8231	552106	0	0
2024-10-09 06:58:47			0	38338	0	0	0	21386	19950	161188	27081	1053722	46225	107849	0	0	8230	552510	0	0
2024-10-09 06:59:47			0	38346	0	0	0	21384	19950	161340	27307	1053713	46224	107848	0	0	8231	552194	0	0
2024-10-09 07:00:47			0	38350	0	0	0	21376	19950	161216	27119	1053722	46236	107845	0	0	8231	552036	0	0
2024-10-09 07:01:47			0	38346	0	0	0	21379	19950	161284	27265	1053713	46224	107846	0	0	8231	552194	0	0
2024-10-09 07:02:47			0	38354	0	0	0	21376	19950	161256	27407	1053713	46236	107845	0	0	8231	551878	0	0
2024-10-09 07:03:47			0	38351	0	0	0	21381	19950	161252	27436	1053713	46224	107847	0	0	8231	551997	0	0
2024-10-09 07:04:47			0	38348	0	0	0	21384	19950	161124	27384	1053767	46236	107848	0	0	8231	552115	0	0
2024-10-09 07:05:47			0	38349	0	0	0	21376	19950	161200	27045	1053802	46225	107845	0	0	8231	552076	0	0
2024-10-09 07:06:47			0	38356	0	0	0	21374	19950	161168	26781	1053722	46236	107844	0	0	8232	551799	0	0
2024-10-09 07:07:47			0	38355	0	0	0	21376	19950	161180	26823	1053722	46236	107845	0	0	8232	551839	0	0
2024-10-09 07:08:47			0	38337	0	0	0	21376	19950	161248	27359	1053713	46247	107845	0	0	8230	552549	0	0
2024-10-09 07:09:47			0	38349	0	0	0	21376	19950	161208	27334	1053696	46225	107845	0	0	8231	552076	0	0
2024-10-09 07:10:47			0	38351	0	0	0	21379	19950	161248	27396	1053696	46225	107846	0	0	8231	551997	0	0
2024-10-09 07:11:47			0	38356	0	0	0	21381	19950	161204	27190	1053669	46236	107847	0	0	8232	551799	0	0
2024-10-09 07:12:47			0	38361	0	0	0	21384	19940	161288	27218	1053731	46236	107848	0	0	8232	551633	0	0
2024-10-09 07:13:47			0	38354	0	0	0	21366	19940	161176	27511	1053704	46224	107841	0	0	8232	551909	0	0
2024-10-09 07:14:47			0	38362	0	0	0	21374	19950	161228	27105	1053696	46236	107844	0	0	8232	551563	0	0
2024-10-09 07:15:47			0	38345	0	0	0	21384	19950	161212	27036	1053660	46247	107848	0	0	8231	552233	0	0
2024-10-09 07:16:47			0	38363	0	0	0	21386	19940	161216	27277	1053731	46236	107849	0	0	8232	551554	0	0
2024-10-09 07:17:47			0	38344	0	0	0	21374	19950	161288	27201	1053713	46224	107844	0	0	8231	552273	0	0
2024-10-09 07:18:47			0	38349	0	0	0	21366	19950	161268	27334	1053634	46236	107841	0	0	8231	552076	0	0
2024-10-09 07:19:47			0	38342	0	0	0	21366	19940	161256	27062	1053704	46224	107841	0	0	8231	552382	0	0
2024-10-09 07:20:47			0	38329	0	0	0	21374	19950	161324	27109	1053634	46224	107844	0	0	8230	552865	0	0
2024-10-09 07:21:47			0	38345	0	0	0	21379	19940	161344	26750	1053678	46236	107846	0	0	8231	552264	0	0
2024-10-09 07:22:47			0	38342	0	0	0	21379	19940	161244	27055	1053696	46246	107846	0	0	8231	552382	0	0
2024-10-09 07:23:47			0	38333	0	0	0	21363	19940	161272	26975	1053651	46213	107840	0	0	8230	552738	0	0
2024-10-09 07:24:47			0	38332	0	0	0	21381	19930	161352	27206	1053687	46223	107847	0	0	8230	552808	0	0
2024-10-09 07:25:47			0	38350	0	0	0	21379	19940	161272	27218	1053669	46223	107846	0	0	8231	552067	0	0
2024-10-09 07:26:47			0	38341	0	0	0	21363	19940	161308	26779	1053696	46212	107840	0	0	8231	552422	0	0
2024-10-09 07:27:47			0	38349	0	0	0	21381	19930	161148	27251	1053660	46223	107847	0	0	8231	552136	0	0
2024-10-09 07:28:47			0	38369	0	0	0	21384	19940	161216	27230	1053758	46247	107848	0	0	8232	551317	0	0
2024-10-09 07:29:47			0	38363	0	0	0	21371	19950	161148	27234	1053713	46247	107843	0	0	8232	551523	0	0
2024-10-09 07:30:47			0	38371	0	0	0	21386	19950	161124	27041	1053713	46247	107849	0	0	8232	551208	0	0
2024-10-09 07:31:47			0	38372	0	0	0	21379	19940	161076	27355	1053704	46213	107846	0	0	8232	551199	0	0
2024-10-09 07:32:47			0	38353	0	0	0	21376	19940	161244	27327	1053704	46257	107845	0	0	8231	551948	0	0
2024-10-09 07:33:47			0	38354	0	0	0	21371	19950	161228	27196	1053687	46224	107843	0	0	8232	551878	0	0
2024-10-09 07:34:47			0	38378	0	0	0	21384	19950	161212	26987	1053713	46224	107848	0	0	8233	550932	0	0
2024-10-09 07:35:47			0	38370	0	0	0	21384	19940	161132	27064	1053642	46235	107848	0	0	8232	551278	0	0
2024-10-09 07:36:47			0	38371	0	0	0	21371	19940	161232	27121	1053669	46223	107843	0	0	8233	551238	0	0
2024-10-09 07:37:47			0	38391	0	0	0	21374	19950	161068	26857	1053713	46236	107844	0	0	8234	550420	0	0
2024-10-09 07:38:47			0	38377	0	0	0	21376	19930	161112	26883	1053687	46223	107845	0	0	8233	551032	0	0
2024-10-09 07:39:47			0	38372	0	0	0	21374	19940	161192	27209	1053678	46236	107844	0	0	8233	551199	0	0
2024-10-09 07:40:47			0	38360	0	0	0	21368	19940	161144	27038	1053722	46212	107842	0	0	8232	551672	0	0
2024-10-09 07:41:47			0	38372	0	0	0	21366	19940	161188	27123	1053731	46224	107841	0	0	8233	551199	0	0
2024-10-09 07:42:47			0	38366	0	0	0	21371	19930	161148	27166	1053740	46235	107843	0	0	8232	551466	0	0
2024-10-09 07:43:47			0	38372	0	0	0	21368	19940	161180	27308	1053696	46223	107842	0	0	8233	551199	0	0
2024-10-09 07:44:47			0	38354	0	0	0	21366	19940	161288	27178	1053696	46223	107841	0	0	8232	551909	0	0
2024-10-09 07:45:47			0	38340	0	0	0	21368	19920	161252	27112	1053669	46200	107842	0	0	8231	552522	0	0
2024-10-09 07:46:47			0	38367	0	0	0	21374	19940	161168	27431	1053669	46223	107844	0	0	8232	551396	0	0
2024-10-09 07:47:47			0	38377	0	0	0	21371	19940	161124	27164	1053696	46235	107843	0	0	8233	551002	0	0
2024-10-09 07:48:47			0	38371	0	0	0	21379	19940	161232	27066	1053784	46247	107846	0	0	8232	551238	0	0
2024-10-09 07:49:47			0	38369	0	0	0	21371	19930	161168	26942	1053740	46246	107843	0	0	8232	551347	0	0
2024-10-09 07:50:47			0	38376	0	0	0	21374	19950	161152	26982	1053740	46236	107844	0	0	8233	551011	0	0
2024-10-09 07:51:47			0	38383	0	0	0	21384	19940	161132	27253	1053696	46235	107848	0	0	8233	550765	0	0
2024-10-09 07:52:47			0	38396	0	0	0	21379	19950	160984	27294	1053687	46224	107846	0	0	8234	550223	0	0
2024-10-09 07:53:47			0	38401	0	0	0	21384	19940	160980	27135	1053678	46247	107848	0	0	8234	550056	0	0
2024-10-09 07:54:47			0	38403	0	0	0	21384	19940	160948	27364	1053758	46224	107848	0	0	8234	549977	0	0
2024-10-09 07:55:47			0	38389	0	0	0	21371	19930	160960	27450	1053713	46246	107843	0	0	8234	550559	0	0
2024-10-09 07:56:47			0	38403	0	0	0	21371	19940	160932	27131	1053704	46236	107843	0	0	8234	549977	0	0
2024-10-09 07:57:47			0	38415	0	0	0	21381	19940	161016	27260	1053722	46223	107847	0	0	8235	549505	0	0
2024-10-09 07:58:47			0	38410	0	0	0	21376	19940	160908	27187	1053731	46213	107845	0	0	8235	549702	0	0
2024-10-09 07:59:47			0	38426	0	0	0	21376	19940	160992	27008	1053696	46235	107845	0	0	8236	549072	0	0
2024-10-09 08:00:47			0	38419	0	0	0	21379	19950	160976	27050	1053740	46236	107846	0	0	8235	549317	0	0
2024-10-09 08:01:47			0	38423	0	0	0	21379	19940	160948	27092	1053704	46224	107846	0	0	8235	549190	0	0
2024-10-09 08:02:47			0	38424	0	0	0	21374	19950	160932	27215	1053767	46224	107844	0	0	8236	549121	0	0
2024-10-09 08:03:47			0	38413	0	0	0	21353	19940	160976	27331	1053722	46223	107836	0	0	8235	549584	0	0
2024-10-09 08:04:47			0	38414	0	0	0	21363	19940	160996	27163	1053651	46236	107840	0	0	8235	549544	0	0
2024-10-09 08:05:47			0	38388	0	0	0	21376	19950	161028	27405	1053660	46224	107845	0	0	8233	550538	0	0
2024-10-09 08:06:47			0	38409	0	0	0	21379	19940	160980	27351	1053758	46224	107846	0	0	8235	549741	0	0
2024-10-09 08:07:47			0	38408	0	0	0	21371	19950	160960	27085	1053660	46224	107843	0	0	8235	549750	0	0
2024-10-09 08:08:47			0	38407	0	0	0	21358	19940	160940	27189	1053651	46236	107838	0	0	8235	549820	0	0
2024-10-09 08:09:47			0	38401	0	0	0	21366	19940	160932	27074	1053722	46235	107841	0	0	8234	550056	0	0
2024-10-09 08:10:47			0	38415	0	0	0	21379	19940	160984	27239	1053731	46224	107846	0	0	8235	549505	0	0
2024-10-09 08:11:47			0	38432	0	0	0	21361	19940	160920	27038	1053731	46224	107839	0	0	8236	548836	0	0
2024-10-09 08:12:47			0	38417	0	0	0	21371	19930	160996	27039	1053740	46223	107843	0	0	8235	549457	0	0
2024-10-09 08:13:47			0	38423	0	0	0	21363	19930	161032	27230	1053687	46246	107840	0	0	8236	549221	0	0
2024-10-09 08:14:47			0	38431	0	0	0	21374	19940	160848	27178	1053651	46236	107844	0	0	8236	548876	0	0
2024-10-09 08:15:47			0	38433	0	0	0	21366	19940	160904	27431	1053696	46235	107841	0	0	8236	548797	0	0
2024-10-09 08:16:47			0	38430	0	0	0	21371	19940	160880	27268	1053642	46212	107843	0	0	8236	548915	0	0
2024-10-09 08:17:47			0	38438	0	0	0	21366	19940	160892	27163	1053722	46212	107841	0	0	8237	548600	0	0
2024-10-09 08:18:47			0	38431	0	0	0	21366	19940	160984	27216	1053722	46235	107841	0	0	8236	548876	0	0
2024-10-09 08:19:47			0	38445	0	0	0	21358	19930	160812	27246	1053633	46223	107838	0	0	8237	548355	0	0
2024-10-09 08:20:47			0	38450	0	0	0	21379	19930	160828	27358	1053713	46246	107846	0	0	8237	548159	0	0
2024-10-09 08:21:47			0	38454	0	0	0	21381	19940	160888	26833	1053669	46223	107847	0	0	8237	547972	0	0
2024-10-09 08:22:47			0	38462	0	0	0	21376	19940	160760	27357	1053669	46223	107845	0	0	8238	547657	0	0
2024-10-09 08:23:47			0	38479	0	0	0	21358	19940	160684	27384	1053696	46223	107838	0	0	8239	546990	0	0
2024-10-09 08:24:47			0	38462	0	0	0	21355	19930	160780	27048	1053687	46235	107837	0	0	8238	547688	0	0
2024-10-09 08:25:47			0	38462	0	0	0	21376	19940	160880	27293	1053696	46223	107845	0	0	8238	547657	0	0
2024-10-09 08:26:47			0	38462	0	0	0	21376	19940	160804	26960	1053696	46223	107845	0	0	8238	547657	0	0
2024-10-09 08:27:47			0	38480	0	0	0	21366	19930	160756	27182	1053687	46246	107841	0	0	8239	546981	0	0
2024-10-09 08:28:47			0	38482	0	0	0	21366	19940	160752	27348	1053784	46224	107841	0	0	8239	546872	0	0
2024-10-09 08:29:47			0	38474	0	0	0	21363	19940	160692	27232	1053642	46235	107840	0	0	8239	547186	0	0
2024-10-09 08:30:47			0	38481	0	0	0	21381	19940	160708	27118	1053722	46223	107847	0	0	8239	546912	0	0
2024-10-09 08:31:47			0	38483	0	0	0	21379	19940	160728	27275	1053704	46224	107846	0	0	8239	546833	0	0
2024-10-09 08:32:47			0	38495	0	0	0	21374	19940	160632	27185	1053704	46236	107844	0	0	8240	546363	0	0
2024-10-09 08:33:47			0	38488	0	0	0	21368	19940	160600	27046	1053704	46236	107842	0	0	8239	546637	0	0
2024-10-09 08:34:47			0	38510	0	0	0	21363	19940	160648	27414	1053704	46236	107840	0	0	8241	545774	0	0
2024-10-09 08:35:47			0	38482	0	0	0	21363	19930	160596	27275	1053687	46223	107840	0	0	8239	546903	0	0
2024-10-09 08:36:47			0	38515	0	0	0	21361	19940	160576	27197	1053704	46224	107839	0	0	8241	545579	0	0
2024-10-09 08:37:47			0	38492	0	0	0	21376	19940	160552	27119	1053696	46212	107845	0	0	8240	546480	0	0
2024-10-09 08:38:47			0	38535	0	0	0	21371	19930	160632	27138	1053633	46246	107843	0	0	8242	544825	0	0
2024-10-09 08:39:47			0	38530	0	0	0	21371	19930	160500	27052	1053740	46235	107843	0	0	8242	545021	0	0
2024-10-09 08:40:47			0	38533	0	0	0	21366	19940	160480	27371	1053722	46246	107841	0	0	8242	544874	0	0
2024-10-09 08:41:47			0	38544	0	0	0	21371	19940	160476	27069	1053731	46236	107843	0	0	8243	544443	0	0
2024-10-09 08:42:47			0	38529	0	0	0	21371	19930	160532	27187	1053687	46235	107843	0	0	8242	545060	0	0
2024-10-09 08:43:47			0	38543	0	0	0	21379	19940	160392	27339	1053731	46224	107846	0	0	8242	544482	0	0
2024-10-09 08:44:47			0	38559	0	0	0	21379	19940	160416	27201	1053775	46223	107846	0	0	8243	543856	0	0
2024-10-09 08:45:47			0	38572	0	0	0	21381	19930	160328	27253	1053660	46246	107847	0	0	8244	543378	0	0
2024-10-09 08:46:47			0	38582	0	0	0	21381	19950	160348	26989	1053749	46236	107847	0	0	8245	542928	0	0
2024-10-09 08:47:47			0	38577	0	0	0	21381	19950	160300	27107	1053740	46236	107847	0	0	8244	543123	0	0
2024-10-09 08:48:47			0	38579	0	0	0	21386	19940	160264	27258	1053811	46224	107849	0	0	8244	543075	0	0
2024-10-09 08:49:47			0	38586	0	0	0	21379	19940	160176	26998	1053758	46236	107846	0	0	8245	542801	0	0
2024-10-09 08:50:47			0	38591	0	0	0	21368	19950	160212	27291	1053696	46225	107842	0	0	8245	542576	0	0
2024-10-09 08:51:47			0	38601	0	0	0	21371	19940	160284	27086	1053749	46235	107843	0	0	8246	542216	0	0
2024-10-09 08:52:47			0	38591	0	0	0	21381	19940	160248	27003	1053669	46246	107847	0	0	8245	542606	0	0
2024-10-09 08:53:47			0	38592	0	0	0	21374	19940	160180	27372	1053749	46223	107844	0	0	8245	542567	0	0
2024-10-09 08:54:47			0	38595	0	0	0	21392	19940	160156	27388	1053749	46235	107851	0	0	8245	542450	0	0
2024-10-09 08:55:47			0	38614	0	0	0	21392	19940	160096	27121	1053731	46224	107851	0	0	8246	541708	0	0
2024-10-09 08:56:47			0	38615	0	0	0	21392	19950	160072	27192	1053802	46214	107851	0	0	8246	541639	0	0
2024-10-09 08:57:47			0	38612	0	0	0	21392	19940	160132	26935	1053802	46235	107851	0	0	8246	541786	0	0
2024-10-09 08:58:47			0	38604	0	0	0	21374	19940	160124	27476	1053731	46236	107844	0	0	8246	542098	0	0
2024-10-09 08:59:47			0	38640	0	0	0	21384	19950	160000	27092	1053740	46236	107848	0	0	8248	540665	0	0
2024-10-09 09:00:47			0	38625	0	0	0	21389	19940	159996	27069	1053784	46247	107850	0	0	8247	541279	0	0
2024-10-09 09:01:47			0	38642	0	0	0	21381	19950	159992	27351	1053775	46236	107847	0	0	8248	540587	0	0
2024-10-09 09:02:47			0	38648	0	0	0	21392	19930	160052	27381	1053820	46235	107851	0	0	8248	540413	0	0
2024-10-09 09:03:47			0	38645	0	0	0	21397	19950	159988	27367	1053740	46236	107853	0	0	8248	540470	0	0
2024-10-09 09:04:47			0	38660	0	0	0	21399	19950	160052	27230	1053775	46225	107854	0	0	8249	539886	0	0
2024-10-09 09:05:47			0	38648	0	0	0	21394	19950	160048	27390	1053793	46236	107852	0	0	8248	540353	0	0
2024-10-09 09:06:47			0	38669	0	0	0	21392	19950	159964	27350	1053802	46248	107851	0	0	8250	539536	0	0
2024-10-09 09:07:47			0	38667	0	0	0	21399	19960	159948	27121	1053811	46225	107854	0	0	8249	539584	0	0
2024-10-09 09:08:47			0	38676	0	0	0	21392	19950	159872	27383	1053802	46248	107851	0	0	8250	539263	0	0
2024-10-09 09:09:47			0	38680	0	0	0	21392	19960	159900	27424	1053811	46225	107851	0	0	8250	539078	0	0
2024-10-09 09:10:47			0	38705	0	0	0	21399	19960	159844	27621	1053784	46248	107854	0	0	8252	538106	0	0
2024-10-09 09:11:47			0	38705	0	0	0	21405	19950	159836	27111	1053855	46225	107856	0	0	8251	538136	0	0
2024-10-09 09:12:47			0	38704	0	0	0	21407	19950	159788	27057	1053829	46258	107857	0	0	8251	538175	0	0
2024-10-09 09:13:47			0	38695	0	0	0	21402	19970	159800	27272	1053873	46237	107855	0	0	8251	538465	0	0
2024-10-09 09:14:47			0	38695	0	0	0	21405	19970	159876	27486	1053829	46237	107856	0	0	8251	538465	0	0
2024-10-09 09:15:47			0	38710	0	0	0	21410	19970	159692	27189	1053846	46249	107858	0	0	8252	537882	0	0
2024-10-09 09:16:47			0	38722	0	0	0	21410	19970	159749	27128	1053882	46249	107858	0	0	8252	537416	0	0
2024-10-09 09:17:47			0	38737	0	0	0	21407	19970	159681	27320	1053909	46237	107857	0	0	8253	536834	0	0
2024-10-09 09:18:47			0	38725	0	0	0	21412	19980	159693	27194	1053891	46239	107859	0	0	8253	537270	0	0
2024-10-09 09:19:47			0	38737	0	0	0	21410	19970	159605	27469	1053900	46237	107858	0	0	8253	536834	0	0
2024-10-09 09:20:47			0	38740	0	0	0	21412	19970	159725	27480	1053873	46259	107859	0	0	8253	536718	0	0
2024-10-09 09:21:47			0	38741	0	0	0	21423	19980	159661	27466	1053918	46227	107863	0	0	8253	536649	0	0
2024-10-09 09:22:47			0	38748	0	0	0	21412	19960	159637	27339	1053891	46248	107859	0	0	8254	536437	0	0
2024-10-09 09:23:47			0	38759	0	0	0	21423	19970	159665	27362	1053935	46226	107863	0	0	8254	535981	0	0
2024-10-09 09:24:47			0	38758	0	0	0	21418	19980	159589	27345	1053944	46227	107861	0	0	8254	535990	0	0
2024-10-09 09:25:47			0	38754	0	0	0	21415	19970	159513	27350	1053909	46249	107860	0	0	8254	536175	0	0
2024-10-09 09:26:47			0	38775	0	0	0	21418	19990	159529	27592	1053945	46250	107861	0	0	8256	535302	0	0
2024-10-09 09:27:47			0	38772	0	0	0	21418	19980	159437	27576	1053891	46227	107861	0	0	8255	535448	0	0
2024-10-09 09:28:47			0	38755	0	0	0	21423	19980	159513	27374	1053953	46250	107863	0	0	8254	536107	0	0
2024-10-09 09:29:47			0	38785	0	0	0	21423	19980	159521	27481	1053927	46250	107863	0	0	8256	534945	0	0
2024-10-09 09:30:47			0	38761	0	0	0	21425	19980	159573	27197	1053944	46250	107864	0	0	8255	535874	0	0
2024-10-09 09:31:47			0	38783	0	0	0	21423	19980	159425	27378	1053980	46240	107863	0	0	8256	535022	0	0
2024-10-09 09:32:47			0	38752	0	0	0	21425	19980	159469	27124	1053927	46250	107864	0	0	8254	536223	0	0
2024-10-09 09:33:47			0	38777	0	0	0	21423	19990	159545	27531	1053998	46228	107863	0	0	8256	535225	0	0
2024-10-09 09:34:47			0	38779	0	0	0	21423	19980	159449	27315	1054007	46240	107863	0	0	8256	535177	0	0
2024-10-09 09:35:47			0	38799	0	0	0	21423	19990	159377	27431	1053989	46228	107863	0	0	8257	534373	0	0
2024-10-09 09:36:47			0	38781	0	0	0	21425	19990	159537	27419	1053962	46240	107864	0	0	8256	535070	0	0
2024-10-09 09:37:47			0	38814	0	0	0	21436	19990	159345	27533	1053971	46228	107868	0	0	8257	533793	0	0
2024-10-09 09:38:47			0	38815	0	0	0	21425	19980	159397	27422	1053953	46240	107864	0	0	8258	533784	0	0
2024-10-09 09:39:47			0	38807	0	0	0	21425	19980	159333	27415	1053953	46240	107864	0	0	8257	534093	0	0
2024-10-09 09:40:47			0	38790	0	0	0	21433	20000	159409	27414	1053980	46229	107867	0	0	8256	534692	0	0
2024-10-09 09:41:47			0	38799	0	0	0	21428	19990	159337	27204	1053945	46240	107865	0	0	8257	534373	0	0
2024-10-09 09:42:47			0	38791	0	0	0	21441	20000	159405	27225	1053927	46229	107870	0	0	8256	534653	0	0
2024-10-09 09:43:47			0	38796	0	0	0	21433	19990	159393	27478	1053998	46228	107867	0	0	8256	534489	0	0
2024-10-09 09:44:47			0	38812	0	0	0	21438	19990	159341	27372	1053998	46250	107869	0	0	8257	533871	0	0
2024-10-09 09:45:47			0	38811	0	0	0	21436	20000	159385	27440	1054042	46230	107868	0	0	8257	533880	0	0
2024-10-09 09:46:47			0	38804	0	0	0	21436	20000	159377	27334	1053989	46263	107868	0	0	8257	534151	0	0
2024-10-09 09:47:47			0	38819	0	0	0	21438	19990	159349	27407	1054024	46228	107869	0	0	8258	533600	0	0
2024-10-09 09:48:47			0	38827	0	0	0	21441	20000	159269	27305	1054042	46242	107870	0	0	8258	533261	0	0
2024-10-09 09:49:47			0	38849	0	0	0	21446	20000	159245	27568	1054007	46229	107872	0	0	8259	532412	0	0
2024-10-09 09:50:47			0	38840	0	0	0	21428	19990	159161	27490	1053998	46228	107865	0	0	8259	532789	0	0
2024-10-09 09:51:47			0	38830	0	0	0	21449	20000	159141	27517	1053989	46242	107873	0	0	8258	533145	0	0
2024-10-09 09:52:47			0	38835	0	0	0	21431	20010	159301	27336	1054051	46242	107866	0	0	8259	532923	0	0
2024-10-09 09:53:47			0	38855	0	0	0	21446	20010	159293	27067	1053998	46230	107872	0	0	8260	532151	0	0
2024-10-09 09:54:47			0	38842	0	0	0	21449	20000	159349	27142	1054007	46218	107873	0	0	8259	532682	0	0
2024-10-09 09:55:47			0	38848	0	0	0	21444	20000	159213	27665	1054033	46251	107871	0	0	8259	532450	0	0
2024-10-09 09:56:47			0	38846	0	0	0	21451	20000	159237	27248	1054095	46242	107874	0	0	8259	532528	0	0
2024-10-09 09:57:47			0	38834	0	0	0	21438	20010	159197	27197	1054078	46242	107869	0	0	8259	532962	0	0
2024-10-09 09:58:47			0	38817	0	0	0	21451	20010	159193	26942	1054087	46243	107874	0	0	8258	533618	0	0
2024-10-09 09:59:47			0	38845	0	0	0	21451	20010	159261	27204	1053980	46253	107874	0	0	8259	532537	0	0
2024-10-09 10:00:47			0	38829	0	0	0	21449	20020	159253	27270	1054096	46220	107873	0	0	8258	533125	0	0
2024-10-09 10:01:47			0	38846	0	0	0	21451	20010	159189	27145	1054025	46230	107874	0	0	8259	532498	0	0
2024-10-09 10:02:47			0	38846	0	0	0	21449	20010	159113	27580	1054060	46253	107873	0	0	8259	532498	0	0
2024-10-09 10:03:47			0	38868	0	0	0	21451	20020	159085	27086	1054105	46232	107874	0	0	8261	531620	0	0
2024-10-09 10:04:47			0	38875	0	0	0	21462	20010	158949	27409	1054051	46252	107878	0	0	8261	531380	0	0
2024-10-09 10:05:47			0	38877	0	0	0	21457	20020	159073	27098	1054069	46231	107876	0	0	8261	531273	0	0
2024-10-09 10:06:47			0	38868	0	0	0	21459	20010	159057	27312	1054087	46253	107877	0	0	8260	531649	0	0
2024-10-09 10:07:47			0	38875	0	0	0	21462	20020	159157	27246	1054131	46254	107878	0	0	8261	531350	0	0
2024-10-09 10:08:47			0	38873	0	0	0	21464	20020	159161	27369	1054078	46244	107879	0	0	8261	531427	0	0
2024-10-09 10:09:47			0	38854	0	0	0	21457	20020	159025	27256	1054105	46254	107876	0	0	8260	532160	0	0
2024-10-09 10:10:47			0	38857	0	0	0	21457	20020	159101	27448	1054105	46244	107876	0	0	8260	532045	0	0
2024-10-09 10:11:47			0	38876	0	0	0	21459	20030	158965	27135	1054167	46244	107877	0	0	8261	531282	0	0
2024-10-09 10:12:47			0	38888	0	0	0	21467	20020	159077	27248	1054078	46232	107880	0	0	8261	530849	0	0
2024-10-09 10:13:47			0	38884	0	0	0	21462	20020	158957	27164	1054105	46244	107878	0	0	8261	531003	0	0
2024-10-09 10:14:47			0	38866	0	0	0	21462	20020	159045	27680	1054175	46243	107878	0	0	8260	531697	0	0
2024-10-09 10:15:47			0	38888	0	0	0	21454	20020	159053	27209	1054105	46254	107875	0	0	8262	530849	0	0
2024-10-09 10:16:47			0	38906	0	0	0	21470	20020	158977	27474	1054149	46243	107881	0	0	8262	530156	0	0
2024-10-09 10:17:47			0	38889	0	0	0	21462	20030	158989	27362	1054113	46244	107878	0	0	8262	530781	0	0
2024-10-09 10:18:47			0	38912	0	0	0	21472	20040	158921	27405	1054184	46233	107882	0	0	8263	529867	0	0
2024-10-09 10:19:47			0	38901	0	0	0	21477	20030	158933	27402	1054202	46255	107884	0	0	8262	530319	0	0
2024-10-09 10:20:47			0	38933	0	0	0	21472	20030	158841	27383	1054167	46244	107882	0	0	8264	529088	0	0
2024-10-09 10:21:47			0	38926	0	0	0	21472	20040	158889	27192	1054158	46245	107882	0	0	8264	529328	0	0
2024-10-09 10:22:47			0	38924	0	0	0	21464	20030	158981	27239	1054149	46245	107879	0	0	8264	529434	0	0
2024-10-09 10:23:47			0	38902	0	0	0	21464	20030	158901	27358	1054176	46222	107879	0	0	8262	530281	0	0
2024-10-09 10:24:47			0	38918	0	0	0	21467	20040	158809	27621	1054184	46245	107880	0	0	8263	529636	0	0
2024-10-09 10:25:47			0	38930	0	0	0	21480	20030	158833	27202	1054176	46255	107885	0	0	8264	529203	0	0
2024-10-09 10:26:47			0	38931	0	0	0	21475	20030	158885	27677	1054229	46245	107883	0	0	8264	529165	0	0
2024-10-09 10:27:47			0	38923	0	0	0	21477	20030	158777	27535	1054149	46233	107884	0	0	8263	529473	0	0
2024-10-09 10:28:47			0	38936	0	0	0	21475	20040	158793	27545	1054167	46256	107883	0	0	8264	528943	0	0
2024-10-09 10:29:47			0	38927	0	0	0	21483	20030	158877	27199	1054202	46233	107886	0	0	8263	529319	0	0
2024-10-09 10:30:47			0	38946	0	0	0	21477	20050	158825	27398	1054229	46246	107884	0	0	8265	528530	0	0
2024-10-09 10:31:47			0	38925	0	0	0	21477	20040	158957	27296	1054211	46245	107884	0	0	8263	529366	0	0
2024-10-09 10:32:47			0	38926	0	0	0	21477	20040	158969	27220	1054105	46245	107884	0	0	8264	529328	0	0
2024-10-09 10:33:47			0	38932	0	0	0	21477	20030	158861	27008	1054176	46245	107884	0	0	8264	529126	0	0
2024-10-09 10:34:47			0	38921	0	0	0	21483	20050	158865	27512	1054229	46246	107886	0	0	8263	529491	0	0
2024-10-09 10:35:47			0	38949	0	0	0	21493	20050	158909	27646	1054282	46256	107890	0	0	8265	528415	0	0
2024-10-09 10:36:47			0	38930	0	0	0	21490	20050	158805	27391	1054229	46246	107889	0	0	8264	529145	0	0
2024-10-09 10:37:47			0	38951	0	0	0	21488	20050	158825	27424	1054255	46246	107888	0	0	8265	528338	0	0
2024-10-09 10:38:47			0	38966	0	0	0	21488	20050	158765	27428	1054282	46234	107888	0	0	8266	527762	0	0
2024-10-09 10:39:47			0	38957	0	0	0	21496	20050	158737	27220	1054282	46234	107891	0	0	8265	528107	0	0
2024-10-09 10:40:47			0	38963	0	0	0	21488	20050	158749	27251	1054264	46235	107888	0	0	8266	527877	0	0
2024-10-09 10:41:47			0	38967	0	0	0	21490	20060	158693	27405	1054273	46235	107889	0	0	8266	527694	0	0
2024-10-09 10:42:47			0	38989	0	0	0	21490	20050	158773	27306	1054344	46268	107889	0	0	8267	526879	0	0
2024-10-09 10:43:47			0	38953	0	0	0	21483	20050	158673	27410	1054318	46257	107886	0	0	8265	528261	0	0
2024-10-09 10:44:47			0	38949	0	0	0	21480	20060	158777	27409	1054300	46247	107885	0	0	8265	528385	0	0
2024-10-09 10:45:47			0	38945	0	0	0	21498	20040	158813	27272	1054300	46246	107892	0	0	8264	528597	0	0
2024-10-09 10:46:47			0	38924	0	0	0	21488	20050	158841	27293	1054229	46246	107888	0	0	8263	529376	0	0
2024-10-09 10:47:47			0	38949	0	0	0	21503	20050	158833	27067	1054318	46247	107894	0	0	8264	528415	0	0
2024-10-09 10:48:47			0	38965	0	0	0	21501	20050	158681	27301	1054264	46247	107893	0	0	8265	527800	0	0
2024-10-09 10:49:47			0	38981	0	0	0	21498	20060	158689	27189	1054327	46257	107892	0	0	8266	527157	0	0
2024-10-09 10:50:47			0	38990	0	0	0	21506	20060	158637	27402	1054309	46258	107895	0	0	8267	526812	0	0
2024-10-09 10:51:47			0	38992	0	0	0	21493	20070	158661	27081	1054291	46270	107890	0	0	8267	526706	0	0
2024-10-09 10:52:47			0	38974	0	0	0	21493	20070	158641	27310	1054344	46249	107890	0	0	8266	527396	0	0
2024-10-09 10:53:47			0	38979	0	0	0	21509	20060	158649	27606	1054309	46248	107896	0	0	8266	527234	0	0
2024-10-09 10:54:47			0	38987	0	0	0	21516	20060	158637	27227	1054282	46258	107899	0	0	8267	526927	0	0
2024-10-09 10:55:47			0	39007	0	0	0	21527	20070	158573	27474	1054398	46259	107903	0	0	8268	526131	0	0
2024-10-09 10:56:47			0	39023	0	0	0	21509	20060	158505	27279	1054389	46236	107896	0	0	8269	525547	0	0
2024-10-09 10:57:47			0	39012	0	0	0	21522	20080	158497	27069	1054415	46250	107901	0	0	8268	525910	0	0
2024-10-09 10:58:47			0	38988	0	0	0	21496	20080	158613	27369	1054336	46250	107891	0	0	8267	526830	0	0
2024-10-09 10:59:47			0	38956	0	0	0	21501	20070	158725	27241	1054380	46226	107893	0	0	8265	528087	0	0
2024-10-09 11:00:47			0	38973	0	0	0	21516	20070	158745	27305	1054371	46237	107899	0	0	8266	527435	0	0
2024-10-09 11:01:47			0	38973	0	0	0	21522	20070	158561	27208	1054406	46249	107901	0	0	8266	527435	0	0
2024-10-09 11:02:47			0	39010	0	0	0	21519	20070	158537	27343	1054353	46249	107900	0	0	8268	526016	0	0
2024-10-09 11:03:47			0	38989	0	0	0	21516	20080	158525	27282	1054362	46250	107899	0	0	8267	526792	0	0
2024-10-09 11:04:47			0	38996	0	0	0	21503	20070	158593	27346	1054486	46259	107894	0	0	8267	526553	0	0
2024-10-09 11:05:47			0	38995	0	0	0	21516	20070	158581	27564	1054433	46259	107899	0	0	8267	526591	0	0
2024-10-09 11:06:47			0	38973	0	0	0	21519	20070	158613	27587	1054371	46237	107900	0	0	8266	527435	0	0
2024-10-09 11:07:47			0	39012	0	0	0	21537	20080	158565	27303	1054442	46250	107907	0	0	8268	525910	0	0
2024-10-09 11:08:47			0	39015	0	0	0	21516	20080	158517	27379	1054424	46250	107899	0	0	8268	525795	0	0
2024-10-09 11:09:47			0	39002	0	0	0	21540	20080	158553	27460	1054398	46250	107908	0	0	8267	526293	0	0
2024-10-09 11:10:47			0	39002	0	0	0	21527	20080	158529	27360	1054495	46260	107903	0	0	8267	526293	0	0
2024-10-09 11:11:47			0	38971	0	0	0	21524	20080	158493	27569	1054478	46250	107902	0	0	8266	527482	0	0
2024-10-09 11:12:47			0	38988	0	0	0	21545	20090	158513	27057	1054469	46261	107910	0	0	8266	526801	0	0
2024-10-09 11:13:47			0	39031	0	0	0	21535	20080	158433	27274	1054442	46250	107906	0	0	8269	525183	0	0
2024-10-09 11:14:47			0	39028	0	0	0	21532	20080	158373	27559	1054424	46271	107905	0	0	8269	525297	0	0
2024-10-09 11:15:47			0	39034	0	0	0	21548	20090	158421	27197	1054513	46272	107911	0	0	8269	525039	0	0
2024-10-09 11:16:47			0	39027	0	0	0	21537	20090	158337	27455	1054469	46261	107907	0	0	8269	525307	0	0
2024-10-09 11:17:47			0	39015	0	0	0	21542	20090	158345	27341	1054469	46250	107909	0	0	8268	525766	0	0
2024-10-09 11:18:47			0	39023	0	0	0	21542	20090	158381	27409	1054522	46250	107909	0	0	8268	525460	0	0
2024-10-09 11:19:47			0	39036	0	0	0	21553	20100	158305	27315	1054567	46273	107913	0	0	8269	524933	0	0
2024-10-09 11:20:47			0	39048	0	0	0	21548	20090	158297	27620	1054460	46272	107911	0	0	8270	524503	0	0
2024-10-09 11:21:47			0	39043	0	0	0	21532	20100	158365	27687	1054531	46262	107905	0	0	8270	524666	0	0
2024-10-09 11:22:47			0	39007	0	0	0	21532	20100	158473	27654	1054540	46251	107905	0	0	8268	526044	0	0
2024-10-09 11:23:47			0	39005	0	0	0	21555	20100	158501	27419	1054505	46240	107914	0	0	8267	526120	0	0
2024-10-09 11:24:47			0	39030	0	0	0	21568	20110	158425	27569	1054558	46252	107919	0	0	8268	525134	0	0
2024-10-09 11:25:47			0	39059	0	0	0	21568	20110	158317	27611	1054629	46263	107919	0	0	8270	524025	0	0
2024-10-09 11:26:47			0	39088	0	0	0	21581	20110	158109	27410	1054611	46263	107924	0	0	8271	522917	0	0
2024-10-09 11:27:47			0	39085	0	0	0	21571	20110	158105	27376	1054664	46285	107920	0	0	8271	523031	0	0
2024-10-09 11:28:47			0	39084	0	0	0	21558	20120	158221	27675	1054602	46254	107915	0	0	8272	523041	0	0
2024-10-09 11:29:47			0	39073	0	0	0	21558	20110	158161	27474	1054602	46274	107915	0	0	8271	523490	0	0
2024-10-09 11:30:47			0	39057	0	0	0	21553	20120	158201	27561	1054594	46275	107913	0	0	8270	524072	0	0
2024-10-09 11:31:47			0	39039	0	0	0	21550	20110	158285	27566	1054585	46252	107912	0	0	8269	524789	0	0
2024-10-09 11:32:47			0	39040	0	0	0	21566	20110	158317	27334	1054585	46252	107918	0	0	8269	524751	0	0
2024-10-09 11:33:47			0	39033	0	0	0	21573	20110	158437	27499	1054611	46242	107921	0	0	8268	525019	0	0
2024-10-09 11:34:47			0	39041	0	0	0	21586	20120	158249	27119	1054629	46254	107926	0	0	8269	524684	0	0
2024-10-09 11:35:47			0	39078	0	0	0	21576	20120	158105	27251	1054682	46254	107922	0	0	8271	523270	0	0
2024-10-09 11:36:47			0	39098	0	0	0	21579	20130	158089	27460	1054718	46276	107923	0	0	8272	522477	0	0
2024-10-09 11:37:47			0	39080	0	0	0	21561	20140	158241	27471	1054682	46255	107916	0	0	8271	523136	0	0
2024-10-09 11:38:47			0	39043	0	0	0	21548	20130	158333	27310	1054674	46244	107911	0	0	8270	524579	0	0
2024-10-09 11:39:47			0	39025	0	0	0	21568	20130	158397	27223	1054638	46244	107919	0	0	8268	525267	0	0
2024-10-09 11:40:47			0	39072	0	0	0	21610	20130	158277	27133	1054718	46254	107935	0	0	8270	523470	0	0
2024-10-09 11:41:47			0	39114	0	0	0	21597	20150	158077	27499	1054780	46267	107930	0	0	8273	521809	0	0
2024-10-09 11:42:47			0	39141	0	0	0	21599	20140	157989	27409	1054736	46266	107931	0	0	8274	520809	0	0
2024-10-09 11:43:47			0	39143	0	0	0	21602	20150	157913	27462	1054753	46267	107932	0	0	8274	520704	0	0
2024-10-09 11:44:47			0	39145	0	0	0	21579	20140	157933	27538	1054709	46255	107923	0	0	8275	520657	0	0
2024-10-09 11:45:47			0	39137	0	0	0	21586	20150	158049	27279	1054727	46267	107926	0	0	8274	520933	0	0
2024-10-09 11:46:47			0	39114	0	0	0	21599	20140	158101	27710	1054736	46266	107931	0	0	8273	521838	0	0
2024-10-09 11:47:47			0	39128	0	0	0	21597	20150	158069	27393	1054753	46246	107930	0	0	8274	521276	0	0
2024-10-09 11:48:47			0	39145	0	0	0	21602	20160	157965	27345	1054825	46257	107932	0	0	8275	520600	0	0
2024-10-09 11:49:47			0	39139	0	0	0	21597	20160	157917	27639	1054692	46247	107930	0	0	8274	520828	0	0
2024-10-09 11:50:47			0	39141	0	0	0	21594	20160	157881	27526	1054754	46269	107929	0	0	8275	520752	0	0
2024-10-09 11:51:47			0	39136	0	0	0	21584	20160	158025	27417	1054825	46268	107925	0	0	8274	520942	0	0
2024-10-09 11:52:47			0	39113	0	0	0	21579	20170	157965	27338	1054763	46258	107923	0	0	8273	521790	0	0
2024-10-09 11:53:47			0	39099	0	0	0	21584	20160	157993	27320	1054771	46268	107925	0	0	8272	522353	0	0
2024-10-09 11:54:47			0	39089	0	0	0	21594	20160	158037	27665	1054718	46257	107929	0	0	8272	522734	0	0
2024-10-09 11:55:47			0	39129	0	0	0	21612	20160	157929	27176	1054807	46258	107936	0	0	8274	521209	0	0
2024-10-09 11:56:47			0	39148	0	0	0	21625	20160	157861	27536	1054833	46269	107941	0	0	8274	520485	0	0
2024-10-09 11:57:47			0	39166	0	0	0	21623	20160	157741	27436	1054833	46258	107940	0	0	8276	519800	0	0
2024-10-09 11:58:47			0	39210	0	0	0	21625	20170	157681	27253	1054842	46280	107941	0	0	8278	518100	0	0
2024-10-09 11:59:47			0	39192	0	0	0	21625	20170	157781	27189	1054825	46281	107941	0	0	8277	518783	0	0
2024-10-09 12:00:47			0	39188	0	0	0	21620	20170	157733	27138	1054851	46259	107939	0	0	8277	518935	0	0
2024-10-09 12:01:47			0	39193	0	0	0	21631	20170	157801	27441	1054851	46270	107943	0	0	8277	518745	0	0
2024-10-09 12:02:47			0	39205	0	0	0	21615	20170	157677	27537	1054878	46249	107937	0	0	8278	518289	0	0
2024-10-09 12:03:47			0	39208	0	0	0	21612	20180	157785	27232	1054887	46259	107936	0	0	8278	518147	0	0
2024-10-09 12:04:47			0	39211	0	0	0	21633	20180	157721	27436	1054887	46270	107944	0	0	8278	518033	0	0
2024-10-09 12:05:47			0	39220	0	0	0	21638	20180	157637	27479	1055002	46260	107946	0	0	8278	517691	0	0
2024-10-09 12:06:47			0	39212	0	0	0	21636	20180	157573	27317	1054922	46260	107945	0	0	8278	517995	0	0
2024-10-09 12:07:47			0	39250	0	0	0	21664	20180	157529	27474	1054922	46282	107956	0	0	8280	516553	0	0
2024-10-09 12:08:47			0	39291	0	0	0	21670	20190	157329	27590	1054958	46283	107958	0	0	8282	514972	0	0
2024-10-09 12:09:47			0	39309	0	0	0	21659	20190	157409	27724	1054993	46272	107954	0	0	8283	514292	0	0
2024-10-09 12:10:47			0	39306	0	0	0	21659	20200	157269	27505	1054985	46273	107954	0	0	8283	514377	0	0
2024-10-09 12:11:47			0	39299	0	0	0	21662	20200	157381	27156	1055002	46283	107955	0	0	8283	514642	0	0
2024-10-09 12:12:47			0	39282	0	0	0	21636	20200	157293	27372	1055011	46273	107945	0	0	8282	515285	0	0
2024-10-09 12:13:47			0	39275	0	0	0	21651	20210	157453	27594	1055020	46274	107951	0	0	8282	515521	0	0
2024-10-09 12:14:47			0	39257	0	0	0	21651	20200	157437	27208	1055011	46273	107951	0	0	8280	516231	0	0
2024-10-09 12:15:47			0	39271	0	0	0	21664	20210	157521	27379	1055003	46274	107956	0	0	8281	515673	0	0
2024-10-09 12:16:47			0	39274	0	0	0	21641	20210	157409	27509	1055047	46263	107947	0	0	8282	515559	0	0
2024-10-09 12:17:47			0	39238	0	0	0	21638	20200	157601	27346	1055011	46273	107946	0	0	8280	516951	0	0
2024-10-09 12:18:47			0	39224	0	0	0	21641	20220	157485	27540	1055038	46252	107947	0	0	8279	517425	0	0
2024-10-09 12:19:47			0	39249	0	0	0	21670	20210	157617	27488	1055020	46263	107958	0	0	8280	516506	0	0
2024-10-09 12:20:47			0	39276	0	0	0	21688	20220	157545	27227	1055118	46263	107965	0	0	8281	515455	0	0
2024-10-09 12:21:47			0	39310	0	0	0	21672	20210	157321	27211	1055109	46295	107959	0	0	8283	514197	0	0
2024-10-09 12:22:47			0	39303	0	0	0	21670	20220	157297	27272	1055154	46286	107958	0	0	8283	514433	0	0
2024-10-09 12:23:47			0	39309	0	0	0	21680	20230	157165	27542	1055145	46276	107962	0	0	8283	514178	0	0
2024-10-09 12:24:47			0	39319	0	0	0	21667	20220	157305	27379	1055154	46253	107957	0	0	8284	513829	0	0
2024-10-09 12:25:47			0	39317	0	0	0	21688	20230	157233	27537	1055163	46276	107965	0	0	8283	513876	0	0
2024-10-09 12:26:47			0	39316	0	0	0	21685	20240	157245	27459	1055101	46276	107964	0	0	8284	513885	0	0
2024-10-09 12:27:47			0	39308	0	0	0	21688	20230	157193	27512	1055172	46265	107965	0	0	8283	514216	0	0
2024-10-09 12:28:47			0	39324	0	0	0	21693	20240	157285	27357	1055296	46277	107967	0	0	8284	513583	0	0
2024-10-09 12:29:47			0	39317	0	0	0	21688	20240	157105	27621	1055260	46287	107965	0	0	8284	513848	0	0
2024-10-09 12:30:47			0	39324	0	0	0	21685	20240	157145	27680	1055207	46276	107964	0	0	8284	513583	0	0
2024-10-09 12:31:47			0	39327	0	0	0	21685	20240	157273	27365	1055287	46276	107964	0	0	8284	513470	0	0
2024-10-09 12:32:47			0	39305	0	0	0	21675	20250	157313	27324	1055278	46267	107960	0	0	8283	514273	0	0
2024-10-09 12:33:47			0	39341	0	0	0	21703	20250	157109	27677	1055198	46267	107971	0	0	8285	512913	0	0
2024-10-09 12:34:47			0	39336	0	0	0	21701	20250	157129	27310	1055225	46278	107970	0	0	8284	513102	0	0
2024-10-09 12:35:47			0	39337	0	0	0	21683	20260	157173	27436	1055296	46268	107963	0	0	8285	513036	0	0
2024-10-09 12:36:47			0	39345	0	0	0	21698	20260	157173	27466	1055270	46279	107969	0	0	8285	512734	0	0
2024-10-09 12:37:47			0	39318	0	0	0	21690	20250	157285	27448	1055225	46267	107966	0	0	8284	513781	0	0
2024-10-09 12:38:47			0	39337	0	0	0	21719	20260	157181	27291	1055296	46290	107977	0	0	8284	513036	0	0
2024-10-09 12:39:47			0	39332	0	0	0	21709	20270	157253	27336	1055332	46268	107973	0	0	8284	513196	0	0
2024-10-09 12:40:47			0	39370	0	0	0	21729	20260	157053	27448	1055349	46268	107981	0	0	8286	511791	0	0
2024-10-09 12:41:47			0	39415	0	0	0	21737	20270	156953	27414	1055358	46290	107984	0	0	8288	510068	0	0
2024-10-09 12:42:47			0	39405	0	0	0	21722	20270	156909	27687	1055385	46290	107978	0	0	8288	510445	0	0
2024-10-09 12:43:47			0	39398	0	0	0	21701	20280	156997	27447	1055403	46291	107970	0	0	8288	510680	0	0
2024-10-09 12:44:47			0	39406	0	0	0	21742	20280	156877	27334	1055358	46281	107986	0	0	8288	510379	0	0
2024-10-09 12:45:47			0	39438	0	0	0	21761	20280	156730	27436	1055429	46291	107993	0	0	8289	509175	0	0
2024-10-09 12:46:47			0	39472	0	0	0	21758	20280	156706	27578	1055491	46291	107992	0	0	8291	507899	0	0
2024-10-09 12:47:47			0	39498	0	0	0	21766	20290	156538	27305	1055509	46304	107995	0	0	8293	506896	0	0
2024-10-09 12:48:47			0	39499	0	0	0	21774	20290	156454	27282	1055562	46282	107998	0	0	8293	506858	0	0
2024-10-09 12:49:47			0	39518	0	0	0	21758	20300	156478	27260	1055501	46305	107992	0	0	8294	506118	0	0
2024-10-09 12:50:47			0	39512	0	0	0	21748	20300	156478	27611	1055554	46283	107988	0	0	8294	506343	0	0
2024-10-09 12:51:47			0	39519	0	0	0	21755	20300	156474	27689	1055501	46283	107991	0	0	8294	506081	0	0
2024-10-09 12:52:47			0	39511	0	0	0	21761	20310	156342	27166	1055563	46293	107993	0	0	8294	506352	0	0
2024-10-09 12:53:47			0	39495	0	0	0	21761	20320	156474	27003	1055554	46285	107993	0	0	8293	506924	0	0
2024-10-09 12:54:47			0	39501	0	0	0	21761	20310	156498	27654	1055572	46294	107993	0	0	8293	506727	0	0
2024-10-09 12:55:47			0	39543	0	0	0	21786	20310	156414	27393	1055642	46293	108003	0	0	8295	505155	0	0
2024-10-09 12:56:47			0	39570	0	0	0	21792	20320	156294	27433	1055643	46296	108005	0	0	8297	504118	0	0
2024-10-09 12:57:47			0	39536	0	0	0	21779	20320	156294	27512	1055669	46286	108000	0	0	8295	505389	0	0
2024-10-09 12:58:47			0	39567	0	0	0	21786	20320	156198	27469	1055643	46286	108003	0	0	8297	504230	0	0
2024-10-09 12:59:47			0	39561	0	0	0	21774	20320	156258	27493	1055669	46296	107998	0	0	8297	504454	0	0
2024-10-09 13:00:47			0	39541	0	0	0	21750	20320	156426	27339	1055669	46286	107989	0	0	8296	505202	0	0
2024-10-09 13:01:47			0	39553	0	0	0	21776	20330	156362	27384	1055634	46286	107999	0	0	8296	504725	0	0
2024-10-09 13:02:47			0	39572	0	0	0	21802	20330	156246	27296	1055731	46308	108009	0	0	8297	504015	0	0
2024-10-09 13:03:47			0	39571	0	0	0	21774	20340	156306	27258	1055732	46288	107998	0	0	8297	504024	0	0
2024-10-09 13:04:47			0	39566	0	0	0	21789	20330	156194	27268	1055607	46286	108004	0	0	8297	504239	0	0
2024-10-09 13:05:47			0	39604	0	0	0	21812	20340	156254	27637	1055732	46310	108013	0	0	8298	502793	0	0
2024-10-09 13:06:47			0	39603	0	0	0	21792	20340	156026	27440	1055732	46277	108005	0	0	8299	502830	0	0
2024-10-09 13:07:47			0	39610	0	0	0	21789	20340	156042	27455	1055732	46298	108004	0	0	8299	502569	0	0
2024-10-09 13:08:47			0	39600	0	0	0	21794	20340	156122	27509	1055732	46288	108006	0	0	8299	502942	0	0
2024-10-09 13:09:47			0	39603	0	0	0	21786	20350	156118	27519	1055803	46298	108003	0	0	8299	502802	0	0
2024-10-09 13:10:47			0	39609	0	0	0	21820	20360	155962	27313	1055785	46289	108016	0	0	8299	502551	0	0
2024-10-09 13:11:47			0	39638	0	0	0	21807	20370	155874	27436	1055830	46290	108011	0	0	8301	501442	0	0
2024-10-09 13:12:47			0	39639	0	0	0	21786	20350	155934	27248	1055803	46298	108003	0	0	8301	501460	0	0
2024-10-09 13:13:47			0	39613	0	0	0	21792	20370	156202	27227	1055777	46279	108005	0	0	8299	502374	0	0
2024-10-09 13:14:47			0	39603	0	0	0	21831	20360	156162	27670	1055821	46279	108020	0	0	8298	502774	0	0
2024-10-09 13:15:47			0	39606	0	0	0	21792	20360	155990	27338	1055821	46300	108005	0	0	8299	502662	0	0
2024-10-09 13:16:47			0	39613	0	0	0	21807	20360	156086	27234	1055785	46278	108011	0	0	8299	502402	0	0
2024-10-09 13:17:47			0	39597	0	0	0	21841	20360	156102	27595	1055794	46300	108024	0	0	8298	502998	0	0
2024-10-09 13:18:47			0	39627	0	0	0	21815	20370	156110	27388	1055856	46312	108014	0	0	8300	501852	0	0
2024-10-09 13:19:47			0	39631	0	0	0	21831	20370	156026	27540	1055910	46300	108020	0	0	8300	501703	0	0
2024-10-09 13:20:47			0	39642	0	0	0	21849	20370	155962	27561	1055892	46268	108027	0	0	8300	501293	0	0
2024-10-09 13:21:47			0	39674	0	0	0	21849	20380	155874	27583	1055910	46314	108027	0	0	8302	500075	0	0
2024-10-09 13:22:47			0	39646	0	0	0	21818	20380	155930	27263	1055874	46313	108015	0	0	8301	501117	0	0
2024-10-09 13:23:47			0	39659	0	0	0	21833	20390	155814	27326	1055892	46303	108021	0	0	8301	500605	0	0
2024-10-09 13:24:47			0	39661	0	0	0	21846	20390	155826	27400	1055892	46282	108026	0	0	8301	500531	0	0
2024-10-09 13:25:47			0	39666	0	0	0	21807	20380	155910	27372	1055937	46291	108011	0	0	8302	500372	0	0
2024-10-09 13:26:47			0	39641	0	0	0	21841	20380	155846	27279	1055910	46291	108024	0	0	8300	501303	0	0
2024-10-09 13:27:47			0	39663	0	0	0	21846	20390	155870	27502	1055972	46303	108026	0	0	8302	500456	0	0
2024-10-09 13:28:47			0	39680	0	0	0	21857	20390	155738	27571	1055972	46282	108030	0	0	8302	499824	0	0
2024-10-09 13:29:47			0	39672	0	0	0	21831	20390	155842	27658	1056061	46303	108020	0	0	8302	500121	0	0
2024-10-09 13:30:47			0	39670	0	0	0	21841	20400	155918	27483	1056043	46315	108024	0	0	8302	500168	0	0
2024-10-09 13:31:47			0	39680	0	0	0	21825	20410	155802	27211	1055955	46294	108018	0	0	8303	499769	0	0
2024-10-09 13:32:47			0	39650	0	0	0	21833	20400	155890	27251	1055990	46292	108021	0	0	8301	500912	0	0
2024-10-09 13:33:47			0	39639	0	0	0	21828	20400	155846	27209	1055999	46293	108019	0	0	8300	501322	0	0
2024-10-09 13:34:47			0	39652	0	0	0	21836	20390	155922	27251	1055972	46271	108022	0	0	8301	500865	0	0
2024-10-09 13:35:47			0	39661	0	0	0	21867	20390	155830	27241	1055981	46292	108034	0	0	8301	500531	0	0
2024-10-09 13:36:47			0	39665	0	0	0	21846	20400	155902	27391	1056052	46305	108026	0	0	8302	500354	0	0
2024-10-09 13:37:47			0	39655	0	0	0	21857	20400	155882	27083	1056025	46293	108030	0	0	8301	500726	0	0
2024-10-09 13:38:47			0	39701	0	0	0	21859	20410	155710	27395	1056061	46294	108031	0	0	8304	498989	0	0
2024-10-09 13:39:47			0	39670	0	0	0	21841	20420	155762	27164	1056026	46305	108024	0	0	8302	500113	0	0
2024-10-09 13:40:47			0	39689	0	0	0	21862	20410	155782	27260	1056043	46294	108032	0	0	8303	499434	0	0
2024-10-09 13:41:47			0	39682	0	0	0	21864	20410	155758	27569	1056061	46294	108033	0	0	8302	499694	0	0
2024-10-09 13:42:47			0	39702	0	0	0	21875	20420	155730	27308	1056115	46306	108037	0	0	8303	498924	0	0
2024-10-09 13:43:47			0	39723	0	0	0	21888	20420	155630	27334	1056115	46306	108042	0	0	8304	498144	0	0
2024-10-09 13:44:47			0	39740	0	0	0	21901	20430	155514	27454	1056177	46307	108047	0	0	8305	497486	0	0
2024-10-09 13:45:47			0	39775	0	0	0	21901	20430	155478	27301	1056186	46307	108047	0	0	8307	496190	0	0
2024-10-09 13:46:47			0	39765	0	0	0	21872	20430	155418	27260	1056177	46319	108036	0	0	8307	496560	0	0
2024-10-09 13:47:47			0	39731	0	0	0	21870	20430	155574	27350	1056133	46296	108035	0	0	8305	497820	0	0
2024-10-09 13:48:47			0	39714	0	0	0	21872	20440	155478	27367	1056168	46307	108036	0	0	8304	498423	0	0
2024-10-09 13:49:47			0	39768	0	0	0	21898	20430	155418	26984	1056124	46307	108046	0	0	8307	496449	0	0
2024-10-09 13:50:47			0	39777	0	0	0	21872	20440	155438	27232	1056168	46286	108036	0	0	8308	496088	0	0
2024-10-09 13:51:47			0	39739	0	0	0	21857	20430	155494	27381	1056159	46307	108030	0	0	8306	497524	0	0
2024-10-09 13:52:47			0	39724	0	0	0	21883	20430	155574	27267	1056186	46286	108040	0	0	8305	498080	0	0
2024-10-09 13:53:47			0	39764	0	0	0	21893	20420	155426	27246	1056168	46295	108044	0	0	8307	496625	0	0
2024-10-09 13:54:47			0	39773	0	0	0	21893	20450	155362	27538	1056160	46298	108044	0	0	8307	496209	0	0
2024-10-09 13:55:47			0	39792	0	0	0	21914	20450	155246	27400	1056239	46310	108052	0	0	8308	495506	0	0
2024-10-09 13:56:47			0	39810	0	0	0	21911	20460	155170	27185	1056320	46299	108051	0	0	8309	494813	0	0
2024-10-09 13:57:47			0	39819	0	0	0	21916	20460	155182	27353	1056293	46333	108053	0	0	8310	494481	0	0
2024-10-09 13:58:47			0	39825	0	0	0	21906	20460	155074	27422	1056284	46322	108049	0	0	8310	494259	0	0
2024-10-09 13:59:47			0	39815	0	0	0	21885	20460	155194	27495	1056310	46311	108041	0	0	8310	494628	0	0
2024-10-09 14:00:47			0	39786	0	0	0	21901	20460	155238	27698	1056231	46289	108047	0	0	8308	495701	0	0
2024-10-09 14:01:47			0	39809	0	0	0	21911	20460	155274	27313	1056266	46289	108051	0	0	8309	494850	0	0
2024-10-09 14:02:47			0	39832	0	0	0	21903	20460	155182	27249	1056337	46311	108048	0	0	8311	494000	0	0
2024-10-09 14:03:47			0	39821	0	0	0	21919	20460	155018	27543	1056346	46289	108054	0	0	8310	494407	0	0
2024-10-09 14:04:47			0	39841	0	0	0	21927	20460	155022	27145	1056293	46311	108057	0	0	8311	493668	0	0
2024-10-09 14:05:47			0	39876	0	0	0	21929	20470	154938	27459	1056329	46300	108058	0	0	8313	492350	0	0
2024-10-09 14:06:47			0	39858	0	0	0	21909	20490	154862	27332	1056364	46314	108050	0	0	8312	492959	0	0
2024-10-09 14:07:47			0	39830	0	0	0	21901	20480	155010	27599	1056355	46313	108047	0	0	8311	494020	0	0
2024-10-09 14:08:47			0	39828	0	0	0	21909	20470	155022	27568	1056311	46313	108050	0	0	8310	494121	0	0
2024-10-09 14:09:47			0	39827	0	0	0	21911	20470	155086	27178	1056258	46301	108051	0	0	8310	494158	0	0
2024-10-09 14:10:47			0	39811	0	0	0	21909	20460	155146	27293	1056320	46299	108050	0	0	8309	494776	0	0
2024-10-09 14:11:47			0	39809	0	0	0	21922	20470	155074	27255	1056417	46324	108055	0	0	8309	494823	0	0
2024-10-09 14:12:47			0	39846	0	0	0	21945	20470	154990	27533	1056382	46312	108064	0	0	8311	493456	0	0
2024-10-09 14:13:47			0	39861	0	0	0	21916	20480	154914	27488	1056373	46301	108053	0	0	8312	492876	0	0
2024-10-09 14:14:47			0	39870	0	0	0	21919	20490	154978	27329	1056444	46314	108054	0	0	8313	492517	0	0
2024-10-09 14:15:47			0	39832	0	0	0	21909	20490	154986	27523	1056364	46325	108050	0	0	8311	493919	0	0
2024-10-09 14:16:47			0	39812	0	0	0	21911	20490	155162	27670	1056427	46303	108051	0	0	8309	494657	0	0
2024-10-09 14:17:47			0	39782	0	0	0	21903	20490	155254	27228	1056338	46314	108048	0	0	8308	495766	0	0
2024-10-09 14:18:47			0	39784	0	0	0	21924	20490	155274	27504	1056418	46302	108056	0	0	8308	495692	0	0
2024-10-09 14:19:47			0	39791	0	0	0	21932	20480	155190	27583	1056382	46313	108059	0	0	8308	495461	0	0
2024-10-09 14:20:47			0	39822	0	0	0	21927	20480	155106	27199	1056382	46324	108057	0	0	8310	494315	0	0
2024-10-09 14:21:47			0	39883	0	0	0	21966	20490	154934	27300	1056480	46315	108072	0	0	8313	492038	0	0
2024-10-09 14:22:47			0	39903	0	0	0	21968	20490	154730	27620	1056506	46336	108073	0	0	8314	491301	0	0
2024-10-09 14:23:47			0	39963	0	0	0	21966	20500	154534	27561	1056524	46336	108072	0	0	8317	489069	0	0
2024-10-09 14:24:47			0	39958	0	0	0	21935	20510	154650	27512	1056453	46327	108060	0	0	8318	489225	0	0
2024-10-09 14:25:47			0	39948	0	0	0	21958	20500	154546	27590	1056515	46326	108069	0	0	8317	489620	0	0
2024-10-09 14:26:47			0	39938	0	0	0	21953	20500	154714	27500	1056524	46315	108067	0	0	8316	489987	0	0
2024-10-09 14:27:47			0	39935	0	0	0	21963	20510	154626	27578	1056516	46328	108071	0	0	8316	490070	0	0
2024-10-09 14:28:47			0	39968	0	0	0	21968	20510	154442	27588	1056542	46294	108073	0	0	8318	488858	0	0
2024-10-09 14:29:47			0	39993	0	0	0	21979	20520	154346	27400	1056560	46318	108077	0	0	8319	487914	0	0
2024-10-09 14:30:47			0	39990	0	0	0	21950	20520	154386	27535	1056587	46318	108066	0	0	8319	488024	0	0
2024-10-09 14:31:47			0	39982	0	0	0	21958	20520	154354	27329	1056613	46306	108069	0	0	8319	488317	0	0
2024-10-09 14:32:47			0	39993	0	0	0	21948	20530	154430	27864	1056569	46295	108065	0	0	8319	487887	0	0
2024-10-09 14:33:47			0	39959	0	0	0	21963	20520	154490	27400	1056551	46294	108071	0	0	8317	489161	0	0
2024-10-09 14:34:47			0	39988	0	0	0	21981	20520	154414	27332	1056560	46318	108078	0	0	8319	488097	0	0
2024-10-09 14:35:47			0	40013	0	0	0	21966	20520	154254	27213	1056613	46329	108072	0	0	8320	487181	0	0
2024-10-09 14:36:47			0	39977	0	0	0	21940	20520	154446	27601	1056533	46318	108062	0	0	8319	488501	0	0
2024-10-09 14:37:47			0	39965	0	0	0	21955	20520	154426	27476	1056480	46306	108068	0	0	8318	488941	0	0
2024-10-09 14:38:47			0	39963	0	0	0	21953	20520	154446	27533	1056551	46328	108067	0	0	8318	489015	0	0
2024-10-09 14:39:47			0	39984	0	0	0	21958	20520	154482	27274	1056578	46305	108069	0	0	8319	488244	0	0
2024-10-09 14:40:47			0	39990	0	0	0	21966	20530	154422	27370	1056649	46318	108072	0	0	8319	487997	0	0
2024-10-09 14:41:47			0	40023	0	0	0	21984	20520	154286	27256	1056666	46318	108079	0	0	8321	486815	0	0
2024-10-09 14:42:47			0	40042	0	0	0	21976	20520	154266	27497	1056658	46328	108076	0	0	8322	486119	0	0
2024-10-09 14:43:47			0	40012	0	0	0	21966	20550	154254	27599	1056711	46320	108072	0	0	8320	487137	0	0
2024-10-09 14:44:47			0	40014	0	0	0	21968	20530	154298	27597	1056578	46286	108073	0	0	8320	487117	0	0
2024-10-09 14:45:47			0	40021	0	0	0	21986	20530	154338	27225	1056684	46307	108080	0	0	8320	486861	0	0
2024-10-09 14:46:47			0	40014	0	0	0	21973	20530	154318	27632	1056631	46307	108075	0	0	8320	487117	0	0
2024-10-09 14:47:47			0	40046	0	0	0	21971	20550	154266	27521	1056738	46320	108074	0	0	8322	485892	0	0
2024-10-09 14:48:47			0	40012	0	0	0	21961	20550	154326	27691	1056596	46320	108070	0	0	8320	487137	0	0
2024-10-09 14:49:47			0	39992	0	0	0	21971	20530	154366	27133	1056605	46307	108074	0	0	8319	487924	0	0
2024-10-09 14:50:47			0	39998	0	0	0	21992	20540	154394	27727	1056693	46320	108082	0	0	8319	487677	0	0
2024-10-09 14:51:47			0	39997	0	0	0	21950	20540	154410	27294	1056613	46308	108066	0	0	8320	487713	0	0
2024-10-09 14:52:47			0	39995	0	0	0	21971	20550	154390	27237	1056676	46308	108074	0	0	8319	487760	0	0
2024-10-09 14:53:47			0	39992	0	0	0	21955	20550	154414	27547	1056622	46320	108068	0	0	8319	487870	0	0
2024-10-09 14:54:47			0	39992	0	0	0	21973	20540	154346	27268	1056667	46297	108075	0	0	8319	487897	0	0
2024-10-09 14:55:47			0	40004	0	0	0	21981	20550	154378	27248	1056631	46297	108078	0	0	8320	487430	0	0
2024-10-09 14:56:47			0	39988	0	0	0	21968	20530	154338	27502	1056684	46296	108073	0	0	8319	488070	0	0
2024-10-09 14:57:47			0	39998	0	0	0	21984	20550	154286	27327	1056702	46308	108079	0	0	8319	487650	0	0
2024-10-09 14:58:47			0	40014	0	0	0	21976	20550	154278	27274	1056764	46320	108076	0	0	8320	487064	0	0
2024-10-09 14:59:47			0	40003	0	0	0	21966	20550	154326	27403	1056596	46320	108072	0	0	8320	487467	0	0
2024-10-09 15:00:47			0	39994	0	0	0	21971	20540	154390	27597	1056667	46297	108074	0	0	8319	487823	0	0
2024-10-09 15:01:47			0	39972	0	0	0	21961	20540	154406	27395	1056613	46308	108070	0	0	8318	488630	0	0
2024-10-09 15:02:47			0	39957	0	0	0	21953	20530	154466	27498	1056605	46307	108067	0	0	8317	489208	0	0
2024-10-09 15:03:47			0	39948	0	0	0	21935	20550	154510	27412	1056729	46297	108060	0	0	8317	489484	0	0
2024-10-09 15:04:47			0	39909	0	0	0	21940	20540	154650	27530	1056613	46341	108062	0	0	8315	490945	0	0
2024-10-09 15:05:47			0	39862	0	0	0	21924	20540	154646	27338	1056534	46287	108056	0	0	8312	492676	0	0
2024-10-09 15:06:47			0	39830	0	0	0	21932	20530	154974	27376	1056542	46295	108059	0	0	8310	493883	0	0
2024-10-09 15:07:47			0	39824	0	0	0	21937	20530	154974	27521	1056569	46306	108061	0	0	8310	494105	0	0
2024-10-09 15:08:47			0	39823	0	0	0	21932	20520	154946	27241	1056551	46294	108059	0	0	8310	494169	0	0
2024-10-09 15:09:47			0	39795	0	0	0	21927	20520	155062	27351	1056533	46306	108057	0	0	8308	495204	0	0
2024-10-09 15:10:47			0	39775	0	0	0	21906	20510	155146	27272	1056489	46305	108049	0	0	8307	495970	0	0
2024-10-09 15:11:47			0	39757	0	0	0	21896	20510	155262	27417	1056427	46293	108045	0	0	8307	496637	0	0
2024-10-09 15:12:47			0	39746	0	0	0	21940	20510	155246	27887	1056507	46304	108062	0	0	8305	497044	0	0
2024-10-09 15:13:47			0	39761	0	0	0	21911	20510	155134	27504	1056507	46316	108051	0	0	8307	496489	0	0
2024-10-09 15:14:47			0	39735	0	0	0	21880	20510	155238	27197	1056533	46293	108039	0	0	8306	497452	0	0
2024-10-09 15:15:47			0	39723	0	0	0	21929	20500	155350	27341	1056498	46292	108058	0	0	8304	497924	0	0
2024-10-09 15:16:47			0	39761	0	0	0	21942	20500	155170	27606	1056498	46292	108063	0	0	8306	496516	0	0
2024-10-09 15:17:47			0	39774	0	0	0	21940	20510	155118	27386	1056516	46317	108062	0	0	8307	496008	0	0
2024-10-09 15:18:47			0	39755	0	0	0	21911	20510	155186	27199	1056489	46317	108051	0	0	8306	496711	0	0
2024-10-09 15:19:47			0	39778	0	0	0	21935	20510	155206	27223	1056453	46293	108060	0	0	8307	495859	0	0
2024-10-09 15:20:47			0	39779	0	0	0	21901	20510	155186	27566	1056480	46304	108047	0	0	8308	495823	0	0
2024-10-09 15:21:47			0	39712	0	0	0	21877	20510	155266	27327	1056427	46293	108038	0	0	8304	498305	0	0
2024-10-09 15:22:47			0	39714	0	0	0	21867	20500	155470	27327	1056391	46292	108034	0	0	8305	498258	0	0
2024-10-09 15:23:47			0	39687	0	0	0	21898	20480	155546	27564	1056382	46280	108046	0	0	8302	499315	0	0
2024-10-09 15:24:47			0	39689	0	0	0	21901	20490	155510	27632	1056364	46281	108047	0	0	8303	499214	0	0
2024-10-09 15:25:47			0	39726	0	0	0	21914	20480	155406	27045	1056382	46291	108052	0	0	8304	497868	0	0
2024-10-09 15:26:47			0	39727	0	0	0	21935	20480	155450	27291	1056329	46291	108060	0	0	8304	497831	0	0
2024-10-09 15:27:47			0	39731	0	0	0	21867	20480	155418	27334	1056355	46313	108034	0	0	8305	497683	0	0
2024-10-09 15:28:47			0	39691	0	0	0	21903	20480	155570	27379	1056355	46313	108048	0	0	8303	499167	0	0
2024-10-09 15:29:47			0	39733	0	0	0	21906	20480	155458	27402	1056382	46301	108049	0	0	8305	497608	0	0
2024-10-09 15:30:47			0	39728	0	0	0	21927	20490	155354	27642	1056364	46291	108057	0	0	8304	497766	0	0
2024-10-09 15:31:47			0	39763	0	0	0	21914	20490	155226	27336	1056480	46315	108052	0	0	8307	496470	0	0
2024-10-09 15:32:47			0	39747	0	0	0	21911	20490	155418	27192	1056391	46325	108051	0	0	8306	497062	0	0
2024-10-09 15:33:47			0	39720	0	0	0	21862	20480	155526	27222	1056382	46291	108032	0	0	8305	498090	0	0
2024-10-09 15:34:47			0	39719	0	0	0	21906	20480	155550	27369	1056382	46301	108049	0	0	8304	498127	0	0
2024-10-09 15:35:47			0	39737	0	0	0	21909	20480	155462	27590	1056373	46324	108050	0	0	8305	497460	0	0
2024-10-09 15:36:47			0	39767	0	0	0	21924	20480	155486	27260	1056400	46313	108056	0	0	8307	496349	0	0
2024-10-09 15:37:47			0	39752	0	0	0	21880	20480	155510	27189	1056409	46301	108039	0	0	8306	496904	0	0
2024-10-09 15:38:47			0	39693	0	0	0	21870	20480	155594	27614	1056382	46313	108035	0	0	8303	499093	0	0
2024-10-09 15:39:47			0	39697	0	0	0	21898	20470	155626	27762	1056417	46301	108046	0	0	8303	498972	0	0
2024-10-09 15:40:47			0	39721	0	0	0	21888	20490	155570	27500	1056391	46291	108042	0	0	8305	498026	0	0
2024-10-09 15:41:47			0	39717	0	0	0	21888	20490	155578	27542	1056320	46326	108042	0	0	8304	498174	0	0
2024-10-09 15:42:47			0	39658	0	0	0	21828	20470	155710	27306	1056275	46312	108019	0	0	8302	500421	0	0
2024-10-09 15:43:47			0	39628	0	0	0	21880	20470	155902	27514	1056196	46290	108039	0	0	8299	501537	0	0
2024-10-09 15:44:47			0	39628	0	0	0	21797	20460	155938	27668	1056187	46278	108007	0	0	8301	501565	0	0
2024-10-09 15:45:47			0	39617	0	0	0	21877	20460	155858	27498	1056284	46267	108038	0	0	8299	501975	0	0
2024-10-09 15:46:47			0	39648	0	0	0	21867	20440	155926	27606	1056230	46309	108034	0	0	8300	500876	0	0
2024-10-09 15:47:47			0	39668	0	0	0	21919	20450	155862	27469	1056222	46299	108054	0	0	8301	500104	0	0
2024-10-09 15:48:47			0	39688	0	0	0	21924	20460	155750	27452	1056310	46311	108056	0	0	8302	499333	0	0
2024-10-09 15:49:47			0	39705	0	0	0	21867	20460	155618	27585	1056373	46322	108034	0	0	8304	498702	0	0
2024-10-09 15:50:47			0	39675	0	0	0	21854	20460	155714	27493	1056284	46299	108029	0	0	8302	499816	0	0
2024-10-09 15:51:47			0	39649	0	0	0	21841	20460	155902	27713	1056266	46289	108024	0	0	8301	500783	0	0
2024-10-09 15:52:47			0	39599	0	0	0	21802	20460	155914	27623	1056177	46289	108009	0	0	8299	502646	0	0
2024-10-09 15:53:47			0	39594	0	0	0	21875	20450	156066	27514	1056213	46277	108037	0	0	8297	502860	0	0
2024-10-09 15:54:47			0	39624	0	0	0	21838	20450	155978	27421	1056213	46298	108023	0	0	8300	501742	0	0
2024-10-09 15:55:47			0	39625	0	0	0	21885	20440	156090	27445	1056204	46287	108041	0	0	8299	501732	0	0
2024-10-09 15:56:47			0	39625	0	0	0	21846	20440	156014	27473	1056230	46297	108026	0	0	8300	501732	0	0
2024-10-09 15:57:47			0	39615	0	0	0	21833	20450	156030	27334	1056213	46288	108021	0	0	8299	502077	0	0
2024-10-09 15:58:47			0	39651	0	0	0	21932	20440	155850	27343	1056230	46297	108059	0	0	8300	500764	0	0
2024-10-09 15:59:47			0	39738	0	0	0	21922	20460	155670	27362	1056364	46333	108055	0	0	8305	497478	0	0
2024-10-09 16:00:47			0	39752	0	0	0	21901	20460	155546	27168	1056390	46322	108047	0	0	8306	496959	0	0
2024-10-09 16:01:47			0	39752	0	0	0	21903	20470	155514	27180	1056355	46323	108048	0	0	8306	496932	0	0
2024-10-09 16:02:47			0	39766	0	0	0	21888	20470	155554	27175	1056275	46333	108042	0	0	8307	496413	0	0
2024-10-09 16:03:47			0	39712	0	0	0	21870	20470	155586	27305	1056275	46312	108035	0	0	8304	498415	0	0
2024-10-09 16:04:47			0	39715	0	0	0	21841	20460	155666	27230	1056320	46299	108024	0	0	8305	498331	0	0
2024-10-09 16:05:47			0	39680	0	0	0	21810	20460	155834	27057	1056266	46278	108012	0	0	8303	499631	0	0
2024-10-09 16:06:47			0	39662	0	0	0	21880	20460	155922	27500	1056257	46299	108039	0	0	8301	500300	0	0
2024-10-09 16:07:47			0	39682	0	0	0	21862	20460	155830	27322	1056284	46311	108032	0	0	8303	499556	0	0
2024-10-09 16:08:47			0	39662	0	0	0	21833	20450	155890	27424	1056248	46311	108021	0	0	8302	500328	0	0
2024-10-09 16:09:47			0	39634	0	0	0	21849	20450	155974	27229	1056168	46278	108027	0	0	8300	501369	0	0
2024-10-09 16:10:47			0	39642	0	0	0	21877	20450	155946	27433	1056186	46310	108038	0	0	8300	501072	0	0
2024-10-09 16:11:47			0	39641	0	0	0	21867	20440	156026	27386	1056151	46287	108034	0	0	8300	501137	0	0
2024-10-09 16:12:47			0	39664	0	0	0	21883	20450	155966	27516	1056266	46310	108040	0	0	8301	500253	0	0
2024-10-09 16:13:47			0	39667	0	0	0	21888	20450	155782	27495	1056266	46298	108042	0	0	8301	500141	0	0
2024-10-09 16:14:47			0	39673	0	0	0	21872	20450	155726	27547	1056266	46298	108036	0	0	8302	499918	0	0
2024-10-09 16:15:47			0	39672	0	0	0	21859	20450	155822	27300	1056301	46311	108031	0	0	8302	499956	0	0
2024-10-09 16:16:47			0	39682	0	0	0	21864	20440	155786	27431	1056257	46320	108033	0	0	8303	499612	0	0
2024-10-09 16:17:47			0	39692	0	0	0	21854	20450	155754	27417	1056355	46322	108029	0	0	8303	499212	0	0
2024-10-09 16:18:47			0	39681	0	0	0	21864	20450	155774	27360	1056213	46298	108033	0	0	8302	499621	0	0
2024-10-09 16:19:47			0	39682	0	0	0	21888	20440	155766	27362	1056230	46297	108042	0	0	8302	499612	0	0
2024-10-09 16:20:47			0	39687	0	0	0	21888	20450	155670	27112	1056275	46299	108042	0	0	8302	499398	0	0
2024-10-09 16:21:47			0	39708	0	0	0	21890	20460	155694	27623	1056310	46311	108043	0	0	8304	498591	0	0
2024-10-09 16:22:47			0	39735	0	0	0	21901	20450	155662	27535	1056293	46332	108047	0	0	8305	497617	0	0
2024-10-09 16:23:47			0	39724	0	0	0	21890	20450	155622	27656	1056328	46299	108043	0	0	8305	498025	0	0
2024-10-09 16:24:47			0	39706	0	0	0	21831	20460	155630	27483	1056346	46311	108020	0	0	8305	498665	0	0
2024-10-09 16:25:47			0	39687	0	0	0	21862	20440	155678	27559	1056284	46297	108032	0	0	8303	499426	0	0
2024-10-09 16:26:47			0	39680	0	0	0	21885	20450	155762	27433	1056239	46288	108041	0	0	8302	499658	0	0
2024-10-09 16:27:47			0	39698	0	0	0	21880	20450	155730	27448	1056266	46298	108039	0	0	8303	498990	0	0
2024-10-09 16:28:47			0	39690	0	0	0	21870	20450	155682	27457	1056266	46288	108035	0	0	8303	499287	0	0
2024-10-09 16:29:47			0	39685	0	0	0	21872	20440	155774	27137	1056257	46309	108036	0	0	8303	499500	0	0
2024-10-09 16:30:47			0	39660	0	0	0	21836	20450	155758	27614	1056239	46288	108022	0	0	8302	500402	0	0
2024-10-09 16:31:47			0	39643	0	0	0	21828	20460	155822	27237	1056177	46278	108019	0	0	8301	501007	0	0
2024-10-09 16:32:47			0	39637	0	0	0	21864	20440	156006	27017	1056177	46287	108033	0	0	8300	501285	0	0
2024-10-09 16:33:47			0	39655	0	0	0	21870	20440	155790	27064	1056177	46320	108035	0	0	8301	500616	0	0
2024-10-09 16:34:47			0	39642	0	0	0	21846	20430	155858	27013	1056212	46275	108026	0	0	8300	501127	0	0
2024-10-09 16:35:47			0	39614	0	0	0	21846	20430	155942	27441	1056159	46296	108026	0	0	8299	502170	0	0
2024-10-09 16:36:47			0	39596	0	0	0	21836	20440	155946	27422	1056088	46296	108022	0	0	8298	502813	0	0
2024-10-09 16:37:47			0	39603	0	0	0	21841	20430	156090	27022	1056106	46275	108024	0	0	8298	502580	0	0
2024-10-09 16:38:47			0	39626	0	0	0	21854	20430	155990	27140	1056177	46319	108029	0	0	8299	501723	0	0
2024-10-09 16:39:47			0	39620	0	0	0	21875	20430	155898	27232	1056186	46296	108037	0	0	8299	501946	0	0
2024-10-09 16:40:47			0	39655	0	0	0	21872	20430	155850	27364	1056212	46319	108036	0	0	8301	500643	0	0
2024-10-09 16:41:47			0	39656	0	0	0	21844	20430	155766	27138	1056212	46307	108025	0	0	8301	500606	0	0
2024-10-09 16:42:47			0	39632	0	0	0	21841	20440	155942	27088	1056168	46307	108024	0	0	8300	501471	0	0
2024-10-09 16:43:47			0	39627	0	0	0	21844	20440	156002	27050	1056221	46296	108025	0	0	8300	501658	0	0
2024-10-09 16:44:47			0	39605	0	0	0	21841	20430	155966	27455	1056159	46296	108024	0	0	8298	502505	0	0
2024-10-09 16:45:47			0	39589	0	0	0	21838	20420	156070	26987	1056115	46285	108023	0	0	8297	503130	0	0
2024-10-09 16:46:47			0	39597	0	0	0	21851	20430	156170	27478	1056177	46296	108028	0	0	8298	502804	0	0
2024-10-09 16:47:47			0	39562	0	0	0	21828	20420	156070	27223	1056141	46295	108019	0	0	8296	504138	0	0
2024-10-09 16:48:47			0	39543	0	0	0	21789	20420	156278	27317	1056035	46295	108004	0	0	8296	504848	0	0
2024-10-09 16:49:47			0	39516	0	0	0	21815	20410	156278	27377	1056017	46284	108014	0	0	8294	505886	0	0
2024-10-09 16:50:47			0	39528	0	0	0	21833	20410	156254	27183	1056070	46294	108021	0	0	8294	505437	0	0
2024-10-09 16:51:47			0	39511	0	0	0	21818	20410	156342	27488	1056088	46305	108015	0	0	8293	506073	0	0
2024-10-09 16:52:47			0	39517	0	0	0	21836	20400	156330	26854	1056079	46283	108022	0	0	8293	505876	0	0
2024-10-09 16:53:47			0	39521	0	0	0	21841	20400	156298	27255	1056079	46283	108024	0	0	8293	505726	0	0
2024-10-09 16:54:47			0	39516	0	0	0	21836	20410	156246	27164	1056097	46294	108022	0	0	8293	505886	0	0
2024-10-09 16:55:47			0	39522	0	0	0	21836	20410	156270	27293	1056097	46305	108022	0	0	8294	505661	0	0
2024-10-09 16:56:47			0	39491	0	0	0	21825	20410	156422	27279	1056070	46305	108018	0	0	8292	506822	0	0
2024-10-09 16:57:47			0	39482	0	0	0	21815	20410	156482	27348	1056061	46273	108014	0	0	8292	507159	0	0
2024-10-09 16:58:47			0	39465	0	0	0	21831	20410	156518	27230	1056043	46305	108020	0	0	8290	507797	0	0
2024-10-09 16:59:47			0	39459	0	0	0	21828	20400	156534	26918	1055999	46293	108019	0	0	8290	508050	0	0
2024-10-09 17:00:47			0	39460	0	0	0	21844	20410	156522	27066	1056114	46305	108025	0	0	8290	507984	0	0
2024-10-09 17:01:47			0	39475	0	0	0	21836	20400	156574	27161	1056123	46315	108022	0	0	8291	507450	0	0
2024-10-09 17:02:47			0	39463	0	0	0	21828	20400	156554	27234	1056043	46303	108019	0	0	8290	507900	0	0
2024-10-09 17:03:47			0	39446	0	0	0	21815	20410	156670	27293	1056008	46294	108014	0	0	8290	508509	0	0
2024-10-09 17:04:47			0	39423	0	0	0	21805	20410	156714	27322	1056034	46284	108010	0	0	8288	509373	0	0
2024-10-09 17:05:47			0	39400	0	0	0	21820	20410	156705	27445	1056008	46284	108016	0	0	8287	510238	0	0
2024-10-09 17:06:47			0	39423	0	0	0	21812	20400	156714	27395	1056043	46303	108013	0	0	8288	509401	0	0
2024-10-09 17:07:47			0	39412	0	0	0	21805	20400	156757	27351	1056017	46292	108010	0	0	8288	509815	0	0
2024-10-09 17:08:47			0	39405	0	0	0	21794	20390	156777	27107	1055972	46282	108006	0	0	8287	510106	0	0
2024-10-09 17:09:47			0	39389	0	0	0	21799	20390	156933	27095	1055981	46292	108008	0	0	8286	510708	0	0
2024-10-09 17:10:47			0	39395	0	0	0	21810	20390	156885	26883	1055981	46292	108012	0	0	8287	510482	0	0
2024-10-09 17:11:47			0	39395	0	0	0	21807	20390	156917	27183	1055928	46292	108011	0	0	8287	510482	0	0
2024-10-09 17:12:47			0	39392	0	0	0	21807	20380	156985	27237	1055990	46314	108011	0	0	8286	510624	0	0
2024-10-09 17:13:47			0	39356	0	0	0	21792	20380	156909	27119	1055928	46301	108005	0	0	8285	511979	0	0
2024-10-09 17:14:47			0	39356	0	0	0	21776	20380	157041	27239	1055937	46291	107999	0	0	8285	511979	0	0
2024-10-09 17:15:47			0	39349	0	0	0	21779	20380	156873	27298	1055901	46280	108000	0	0	8284	512243	0	0
2024-10-09 17:16:47			0	39324	0	0	0	21794	20380	156957	27097	1055910	46281	108006	0	0	8283	513186	0	0
2024-10-09 17:17:47			0	39332	0	0	0	21797	20370	157037	27098	1055919	46300	108007	0	0	8283	512913	0	0
2024-10-09 17:18:47			0	39337	0	0	0	21797	20370	157061	27003	1055936	46290	108007	0	0	8283	512724	0	0
2024-10-09 17:19:47			0	39347	0	0	0	21799	20370	156997	27279	1055856	46312	108008	0	0	8284	512347	0	0
2024-10-09 17:20:47			0	39345	0	0	0	21792	20380	156993	27059	1055928	46291	108005	0	0	8284	512394	0	0
2024-10-09 17:21:47			0	39368	0	0	0	21797	20370	157021	27213	1055883	46312	108007	0	0	8285	511555	0	0
2024-10-09 17:22:47			0	39339	0	0	0	21792	20390	157045	27066	1055945	46271	108005	0	0	8284	512592	0	0
2024-10-09 17:23:47			0	39328	0	0	0	21789	20380	157021	27230	1055874	46291	108004	0	0	8283	513035	0	0
2024-10-09 17:24:47			0	39339	0	0	0	21789	20370	157013	26847	1055883	46300	108004	0	0	8284	512648	0	0
2024-10-09 17:25:47			0	39345	0	0	0	21781	20370	157129	27045	1055892	46300	108001	0	0	8284	512422	0	0
2024-10-09 17:26:47			0	39325	0	0	0	21781	20360	157069	26831	1055865	46299	108001	0	0	8283	513205	0	0
2024-10-09 17:27:47			0	39327	0	0	0	21779	20360	157121	27232	1055821	46290	108000	0	0	8283	513130	0	0
2024-10-09 17:28:47			0	39320	0	0	0	21766	20370	157049	27419	1055839	46279	107995	0	0	8283	513365	0	0
2024-10-09 17:29:47			0	39323	0	0	0	21768	20370	157113	26939	1055777	46290	107996	0	0	8283	513252	0	0
2024-10-09 17:30:47			0	39321	0	0	0	21774	20350	157081	27218	1055776	46277	107998	0	0	8283	513384	0	0
2024-10-09 17:31:47			0	39305	0	0	0	21781	20350	157189	27229	1055830	46288	108001	0	0	8282	513989	0	0
2024-10-09 17:32:47			0	39319	0	0	0	21776	20360	157169	27324	1055821	46300	107999	0	0	8283	513432	0	0
2024-10-09 17:33:47			0	39315	0	0	0	21771	20350	157073	27013	1055741	46288	107997	0	0	8282	513611	0	0
2024-10-09 17:34:47			0	39329	0	0	0	21766	20340	157217	26781	1055803	46287	107995	0	0	8283	513111	0	0
2024-10-09 17:35:47			0	39301	0	0	0	21763	20340	157145	26989	1055759	46288	107994	0	0	8282	514168	0	0
2024-10-09 17:36:47			0	39304	0	0	0	21771	20350	157133	27053	1055776	46277	107997	0	0	8282	514026	0	0
2024-10-09 17:37:47			0	39298	0	0	0	21768	20360	157229	27031	1055785	46278	107996	0	0	8282	514225	0	0
2024-10-09 17:38:47			0	39303	0	0	0	21766	20350	157225	27298	1055794	46288	107995	0	0	8282	514064	0	0
2024-10-09 17:39:47			0	39299	0	0	0	21771	20340	157097	27218	1055759	46277	107997	0	0	8282	514244	0	0
2024-10-09 17:40:47			0	39312	0	0	0	21768	20340	157321	27081	1055749	46287	107996	0	0	8282	513753	0	0
2024-10-09 17:41:47			0	39302	0	0	0	21771	20350	157153	27090	1055847	46298	107997	0	0	8282	514102	0	0
2024-10-09 17:42:47			0	39315	0	0	0	21766	20350	157177	27133	1055714	46266	107995	0	0	8283	513611	0	0
2024-10-09 17:43:47			0	39310	0	0	0	21766	20340	157241	26760	1055732	46298	107995	0	0	8282	513828	0	0
2024-10-09 17:44:47			0	39301	0	0	0	21774	20340	157317	26798	1055749	46287	107998	0	0	8282	514168	0	0
2024-10-09 17:45:47			0	39302	0	0	0	21766	20340	157333	27078	1055749	46309	107995	0	0	8282	514131	0	0
2024-10-09 17:46:47			0	39297	0	0	0	21774	20340	157293	27267	1055812	46298	107998	0	0	8281	514319	0	0
2024-10-09 17:47:47			0	39305	0	0	0	21753	20330	157257	26896	1055714	46286	107990	0	0	8282	514045	0	0
2024-10-09 17:48:47			0	39296	0	0	0	21768	20350	157209	27079	1055741	46298	107996	0	0	8281	514329	0	0
2024-10-09 17:49:47			0	39282	0	0	0	21771	20350	157321	27168	1055768	46310	107997	0	0	8281	514858	0	0
2024-10-09 17:50:47			0	39275	0	0	0	21768	20340	157377	26963	1055749	46287	107996	0	0	8280	515151	0	0
2024-10-09 17:51:47			0	39275	0	0	0	21768	20340	157361	26837	1055696	46297	107996	0	0	8280	515151	0	0
2024-10-09 17:52:47			0	39272	0	0	0	21758	20340	157245	27074	1055749	46287	107992	0	0	8280	515265	0	0
2024-10-09 17:53:47			0	39268	0	0	0	21766	20340	157221	27182	1055705	46277	107995	0	0	8280	515416	0	0
2024-10-09 17:54:47			0	39256	0	0	0	21761	20330	157385	27022	1055661	46286	107993	0	0	8279	515899	0	0
2024-10-09 17:55:47			0	39294	0	0	0	21763	20350	157293	27104	1055741	46298	107994	0	0	8281	514404	0	0
2024-10-09 17:56:47			0	39280	0	0	0	21763	20330	157265	26859	1055731	46286	107994	0	0	8280	514991	0	0
2024-10-09 17:57:47			0	39287	0	0	0	21761	20330	157273	27100	1055705	46286	107993	0	0	8281	514726	0	0
2024-10-09 17:58:47			0	39262	0	0	0	21761	20330	157285	27332	1055705	46275	107993	0	0	8279	515672	0	0
2024-10-09 17:59:47			0	39273	0	0	0	21763	20330	157425	27093	1055678	46286	107994	0	0	8280	515255	0	0
2024-10-09 18:00:47			0	39252	0	0	0	21766	20320	157373	27282	1055669	46275	107995	0	0	8279	516079	0	0
2024-10-09 18:01:47			0	39263	0	0	0	21766	20330	157329	27102	1055758	46286	107995	0	0	8279	515634	0	0
2024-10-09 18:02:47			0	39243	0	0	0	21768	20320	157441	27017	1055669	46296	107996	0	0	8278	516420	0	0
2024-10-09 18:03:47			0	39255	0	0	0	21761	20330	157461	27038	1055714	46275	107993	0	0	8279	515936	0	0
2024-10-09 18:04:47			0	39223	0	0	0	21761	20330	157441	27227	1055740	46264	107993	0	0	8277	517149	0	0
2024-10-09 18:05:47			0	39236	0	0	0	21761	20330	157481	26868	1055705	46296	107993	0	0	8278	516656	0	0
2024-10-09 18:06:47			0	39251	0	0	0	21758	20330	157489	26908	1055705	46296	107992	0	0	8279	516088	0	0
2024-10-09 18:07:47			0	39229	0	0	0	21763	20330	157517	26849	1055740	46286	107994	0	0	8278	516921	0	0
2024-10-09 18:08:47			0	39225	0	0	0	21768	20340	157493	27154	1055723	46276	107996	0	0	8277	517045	0	0
2024-10-09 18:09:47			0	39233	0	0	0	21766	20340	157481	27015	1055749	46297	107995	0	0	8278	516741	0	0
2024-10-09 18:10:47			0	39234	0	0	0	21763	20340	157521	26781	1055723	46287	107994	0	0	8278	516703	0	0
2024-10-09 18:11:47			0	39238	0	0	0	21761	20330	157445	27338	1055714	46264	107993	0	0	8278	516580	0	0
2024-10-09 18:12:47			0	39234	0	0	0	21766	20330	157573	27066	1055661	46286	107995	0	0	8278	516732	0	0
2024-10-09 18:13:47			0	39223	0	0	0	21761	20330	157549	26795	1055714	46308	107993	0	0	8277	517149	0	0
2024-10-09 18:14:47			0	39202	0	0	0	21766	20330	157537	27119	1055731	46286	107995	0	0	8276	517946	0	0
2024-10-09 18:15:47			0	39224	0	0	0	21771	20330	157605	27237	1055740	46286	107997	0	0	8277	517111	0	0
2024-10-09 18:16:47			0	39201	0	0	0	21761	20330	157537	26960	1055758	46286	107993	0	0	8276	517983	0	0
2024-10-09 18:17:47			0	39218	0	0	0	21761	20330	157617	26902	1055705	46286	107993	0	0	8277	517339	0	0
2024-10-09 18:18:47			0	39213	0	0	0	21768	20330	157609	27034	1055767	46286	107996	0	0	8277	517528	0	0
2024-10-09 18:19:47			0	39211	0	0	0	21755	20330	157665	27220	1055687	46286	107991	0	0	8277	517604	0	0
2024-10-09 18:20:47			0	39209	0	0	0	21761	20330	157537	27126	1055758	46286	107993	0	0	8276	517680	0	0
2024-10-09 18:21:47			0	39198	0	0	0	21755	20320	157609	27166	1055669	46275	107991	0	0	8276	518126	0	0
2024-10-09 18:22:47			0	39180	0	0	0	21766	20320	157637	27072	1055696	46275	107995	0	0	8275	518809	0	0
2024-10-09 18:23:47			0	39176	0	0	0	21758	20320	157753	26975	1055669	46296	107992	0	0	8275	518961	0	0
2024-10-09 18:24:47			0	39159	0	0	0	21755	20330	157793	27062	1055705	46296	107991	0	0	8274	519579	0	0
2024-10-09 18:25:47			0	39165	0	0	0	21758	20330	157761	27085	1055740	46286	107992	0	0	8274	519351	0	0
2024-10-09 18:26:47			0	39177	0	0	0	21753	20330	157745	27033	1055661	46286	107990	0	0	8275	518895	0	0
2024-10-09 18:27:47			0	39151	0	0	0	21750	20330	157777	27012	1055758	46275	107989	0	0	8273	519883	0	0
2024-10-09 18:28:47			0	39143	0	0	0	21755	20330	157797	26767	1055687	46286	107991	0	0	8273	520187	0	0
2024-10-09 18:29:47			0	39147	0	0	0	21758	20320	157829	27060	1055696	46264	107992	0	0	8273	520064	0	0
2024-10-09 18:30:47			0	39149	0	0	0	21761	20330	157745	27074	1055652	46308	107993	0	0	8273	519959	0	0
2024-10-09 18:31:47			0	39155	0	0	0	21755	20330	157889	27242	1055705	46286	107991	0	0	8273	519731	0	0
2024-10-09 18:32:47			0	39143	0	0	0	21766	20330	157857	27126	1055705	46275	107995	0	0	8273	520187	0	0
2024-10-09 18:33:47			0	39121	0	0	0	21758	20330	157973	27357	1055705	46275	107992	0	0	8271	521025	0	0
2024-10-09 18:34:47			0	39109	0	0	0	21758	20330	158069	27274	1055714	46286	107992	0	0	8271	521482	0	0
2024-10-09 18:35:47			0	39112	0	0	0	21758	20320	157953	26996	1055669	46275	107992	0	0	8271	521396	0	0
2024-10-09 18:36:47			0	39129	0	0	0	21761	20320	157981	27351	1055669	46296	107993	0	0	8272	520749	0	0
2024-10-09 18:37:47			0	39121	0	0	0	21748	20330	157889	27334	1055652	46286	107988	0	0	8272	521025	0	0
2024-10-09 18:38:47			0	39125	0	0	0	21758	20320	158025	26984	1055669	46275	107992	0	0	8272	520901	0	0
2024-10-09 18:39:47			0	39121	0	0	0	21758	20320	157993	26873	1055643	46296	107992	0	0	8271	521053	0	0
2024-10-09 18:40:47			0	39098	0	0	0	21748	20320	158145	27098	1055643	46286	107988	0	0	8270	521930	0	0
2024-10-09 18:41:47			0	39112	0	0	0	21748	20320	158141	27282	1055687	46274	107988	0	0	8271	521396	0	0
2024-10-09 18:42:47			0	39075	0	0	0	21745	20320	158061	27336	1055660	46285	107987	0	0	8269	522807	0	0
2024-10-09 18:43:47			0	39066	0	0	0	21753	20330	158145	27112	1055678	46275	107990	0	0	8268	523121	0	0
2024-10-09 18:44:47			0	39075	0	0	0	21748	20320	158121	26779	1055714	46274	107988	0	0	8269	522807	0	0
2024-10-09 18:45:47			0	39077	0	0	0	21755	20320	158165	26935	1055634	46307	107991	0	0	8269	522731	0	0
2024-10-09 18:46:47			0	39069	0	0	0	21755	20330	158129	27142	1055652	46286	107991	0	0	8268	523007	0	0
2024-10-09 18:47:47			0	39052	0	0	0	21737	20330	158301	26814	1055652	46286	107984	0	0	8268	523656	0	0
2024-10-09 18:48:47			0	39007	0	0	0	21742	20310	158441	27203	1055642	46283	107986	0	0	8265	525434	0	0
2024-10-09 18:49:47			0	38932	0	0	0	21745	20320	158697	27246	1055696	46286	107987	0	0	8261	528280	0	0
2024-10-09 18:50:47			0	38971	0	0	0	21745	20320	158657	26885	1055616	46264	107987	0	0	8263	526784	0	0
2024-10-09 18:51:47			0	38986	0	0	0	21753	20320	158589	27294	1055607	46285	107990	0	0	8264	526209	0	0
2024-10-09 18:52:47			0	38986	0	0	0	21745	20330	158457	27260	1055625	46286	107987	0	0	8264	526180	0	0
2024-10-09 18:53:47			0	39004	0	0	0	21737	20310	158433	27138	1055589	46283	107984	0	0	8265	525549	0	0
2024-10-09 18:54:47			0	39001	0	0	0	21727	20310	158445	26960	1055651	46284	107980	0	0	8265	525664	0	0
2024-10-09 18:55:47			0	39008	0	0	0	21740	20310	158397	27204	1055651	46284	107985	0	0	8265	525396	0	0
2024-10-09 18:56:47			0	39004	0	0	0	21727	20310	158497	27119	1055642	46283	107980	0	0	8265	525549	0	0
2024-10-09 18:57:47			0	39006	0	0	0	21732	20310	158425	26896	1055589	46272	107982	0	0	8265	525473	0	0
2024-10-09 18:58:47			0	39002	0	0	0	21727	20310	158501	27223	1055625	46284	107980	0	0	8265	525626	0	0
2024-10-09 18:59:47			0	39029	0	0	0	21727	20310	158337	27182	1055616	46272	107980	0	0	8266	524593	0	0
2024-10-09 19:00:47			0	39012	0	0	0	21737	20310	158421	27133	1055616	46293	107984	0	0	8265	525243	0	0
2024-10-09 19:01:47			0	39024	0	0	0	21735	20310	158309	27100	1055536	46293	107983	0	0	8266	524784	0	0
2024-10-09 19:02:47			0	39029	0	0	0	21729	20310	158337	26812	1055616	46283	107981	0	0	8266	524593	0	0
2024-10-09 19:03:47			0	39028	0	0	0	21727	20300	158357	27086	1055554	46272	107980	0	0	8266	524660	0	0
2024-10-09 19:04:47			0	39024	0	0	0	21727	20310	158365	26812	1055625	46284	107980	0	0	8266	524784	0	0
2024-10-09 19:05:47			0	39033	0	0	0	21727	20310	158373	27173	1055572	46262	107980	0	0	8267	524440	0	0
2024-10-09 19:06:47			0	39025	0	0	0	21722	20300	158381	27010	1055634	46293	107978	0	0	8266	524775	0	0
2024-10-09 19:07:47			0	39047	0	0	0	21729	20310	158309	26896	1055598	46284	107981	0	0	8267	523905	0	0
2024-10-09 19:08:47			0	39041	0	0	0	21722	20300	158281	26906	1055554	46261	107978	0	0	8267	524163	0	0
2024-10-09 19:09:47			0	39041	0	0	0	21727	20300	158297	27180	1055598	46272	107980	0	0	8267	524163	0	0
2024-10-09 19:10:47			0	39024	0	0	0	21716	20300	158353	27112	1055545	46272	107976	0	0	8266	524813	0	0
2024-10-09 19:11:47			0	39029	0	0	0	21724	20290	158373	26967	1055483	46282	107979	0	0	8266	524651	0	0
2024-10-09 19:12:47			0	39035	0	0	0	21711	20290	158301	27194	1055536	46282	107974	0	0	8267	524421	0	0
2024-10-09 19:13:47			0	39022	0	0	0	21716	20290	158269	27133	1055536	46282	107976	0	0	8266	524918	0	0
2024-10-09 19:14:47			0	39026	0	0	0	21706	20290	158377	27248	1055509	46271	107972	0	0	8267	524765	0	0
2024-10-09 19:15:47			0	39000	0	0	0	21711	20290	158461	26974	1055536	46282	107974	0	0	8265	525760	0	0
2024-10-09 19:16:47			0	38973	0	0	0	21722	20290	158417	27300	1055509	46282	107978	0	0	8263	526795	0	0
2024-10-09 19:17:47			0	38995	0	0	0	21727	20300	158525	27348	1055518	46272	107980	0	0	8264	525923	0	0
2024-10-09 19:18:47			0	39007	0	0	0	21727	20300	158365	27159	1055545	46283	107980	0	0	8265	525463	0	0
2024-10-09 19:19:47			0	39015	0	0	0	21722	20290	158437	27260	1055483	46282	107978	0	0	8266	525186	0	0
2024-10-09 19:20:47			0	38992	0	0	0	21719	20280	158425	27013	1055491	46270	107977	0	0	8264	526096	0	0
2024-10-09 19:21:47			0	39025	0	0	0	21703	20280	158381	27069	1055518	46281	107971	0	0	8267	524833	0	0
2024-10-09 19:22:47			0	39013	0	0	0	21709	20290	158549	27090	1055536	46282	107973	0	0	8266	525263	0	0
2024-10-09 19:23:47			0	38995	0	0	0	21706	20290	158609	26901	1055580	46281	107972	0	0	8265	525952	0	0
2024-10-09 19:24:47			0	38999	0	0	0	21706	20300	158573	27284	1055545	46283	107972	0	0	8265	525770	0	0
2024-10-09 19:25:47			0	39000	0	0	0	21719	20280	158501	27074	1055518	46270	107977	0	0	8265	525789	0	0
2024-10-09 19:26:47			0	38996	0	0	0	21722	20280	158569	27124	1055482	46270	107978	0	0	8265	525943	0	0
2024-10-09 19:27:47			0	39014	0	0	0	21722	20290	158489	27159	1055509	46282	107978	0	0	8266	525224	0	0
2024-10-09 19:28:47			0	38998	0	0	0	21719	20290	158525	26883	1055483	46292	107977	0	0	8265	525837	0	0
2024-10-09 19:29:47			0	39005	0	0	0	21719	20280	158445	27026	1055491	46281	107977	0	0	8265	525598	0	0
2024-10-09 19:30:47			0	39022	0	0	0	21711	20290	158405	26790	1055554	46291	107974	0	0	8266	524918	0	0
2024-10-09 19:31:47			0	39002	0	0	0	21719	20290	158377	27121	1055580	46281	107977	0	0	8265	525684	0	0
2024-10-09 19:32:47			0	39017	0	0	0	21709	20290	158397	26883	1055536	46292	107973	0	0	8266	525110	0	0
2024-10-09 19:33:47			0	39026	0	0	0	21729	20280	158453	27062	1055491	46281	107981	0	0	8266	524794	0	0
2024-10-09 19:34:47			0	39074	0	0	0	21716	20290	158345	26823	1055500	46281	107976	0	0	8269	522932	0	0
2024-10-09 19:35:47			0	39063	0	0	0	21716	20280	158297	26934	1055465	46281	107976	0	0	8268	523380	0	0
2024-10-09 19:36:47			0	39079	0	0	0	21714	20300	158221	27218	1055518	46283	107975	0	0	8270	522712	0	0
2024-10-09 19:37:47			0	39064	0	0	0	21719	20290	158245	27095	1055527	46291	107977	0	0	8269	523313	0	0
2024-10-09 19:38:47			0	39070	0	0	0	21706	20290	158185	27041	1055474	46291	107972	0	0	8269	523084	0	0
2024-10-09 19:39:47			0	39051	0	0	0	21711	20270	158333	27119	1055500	46280	107974	0	0	8268	523868	0	0
2024-10-09 19:40:47			0	39055	0	0	0	21714	20280	158349	26778	1055536	46291	107975	0	0	8268	523686	0	0
2024-10-09 19:41:47			0	39029	0	0	0	21714	20290	158341	27274	1055509	46304	107975	0	0	8267	524651	0	0
2024-10-09 19:42:47			0	39045	0	0	0	21714	20270	158361	27203	1055527	46280	107975	0	0	8267	524097	0	0
2024-10-09 19:43:47			0	39051	0	0	0	21709	20290	158393	27116	1055500	46281	107973	0	0	8268	523810	0	0
2024-10-09 19:44:47			0	39038	0	0	0	21709	20280	158237	27334	1055518	46270	107973	0	0	8267	524336	0	0
2024-10-09 19:45:47			0	39054	0	0	0	21716	20290	158269	27095	1055554	46281	107976	0	0	8268	523695	0	0
2024-10-09 19:46:47			0	39051	0	0	0	21714	20290	158349	27085	1055527	46259	107975	0	0	8268	523810	0	0
2024-10-09 19:47:47			0	39042	0	0	0	21714	20290	158261	26941	1055509	46282	107975	0	0	8267	524154	0	0
2024-10-09 19:48:47			0	39036	0	0	0	21716	20280	158385	27189	1055562	46281	107976	0	0	8267	524412	0	0
2024-10-09 19:49:47			0	39032	0	0	0	21711	20280	158337	27194	1055518	46303	107974	0	0	8267	524565	0	0
2024-10-09 19:50:47			0	39049	0	0	0	21711	20280	158405	27161	1055518	46281	107974	0	0	8268	523915	0	0
2024-10-09 19:51:47			0	39052	0	0	0	21714	20280	158345	27088	1055518	46303	107975	0	0	8268	523801	0	0
2024-10-09 19:52:47			0	39044	0	0	0	21706	20280	158285	27066	1055518	46291	107972	0	0	8268	524106	0	0
2024-10-09 19:53:47			0	39021	0	0	0	21706	20270	158257	27156	1055474	46291	107972	0	0	8266	525015	0	0
2024-10-09 19:54:47			0	39035	0	0	0	21706	20280	158349	26977	1055518	46270	107972	0	0	8267	524450	0	0
2024-10-09 19:55:47			0	39016	0	0	0	21709	20290	158441	26925	1055554	46291	107973	0	0	8266	525148	0	0
2024-10-09 19:56:47			0	39012	0	0	0	21711	20280	158329	27255	1055545	46291	107974	0	0	8266	525330	0	0
2024-10-09 19:57:47			0	39025	0	0	0	21711	20280	158285	27197	1055491	46270	107974	0	0	8266	524833	0	0
2024-10-09 19:58:47			0	39015	0	0	0	21703	20280	158505	27003	1055518	46291	107971	0	0	8266	525215	0	0
2024-10-09 19:59:47			0	39001	0	0	0	21703	20290	158397	27112	1055474	46270	107971	0	0	8265	525722	0	0
2024-10-09 20:00:47			0	38982	0	0	0	21701	20280	158353	27088	1055429	46259	107970	0	0	8264	526479	0	0
2024-10-09 20:01:47			0	38983	0	0	0	21703	20280	158401	27275	1055456	46291	107971	0	0	8264	526441	0	0
2024-10-09 20:02:47			0	38955	0	0	0	21703	20280	158417	27256	1055491	46281	107971	0	0	8262	527514	0	0
2024-10-09 20:03:47			0	38948	0	0	0	21706	20280	158429	26925	1055456	46270	107972	0	0	8262	527783	0	0
2024-10-09 20:04:47			0	38944	0	0	0	21701	20270	158609	26850	1055420	46280	107970	0	0	8262	527965	0	0
2024-10-09 20:05:47			0	38926	0	0	0	21703	20260	158633	27109	1055456	46268	107971	0	0	8261	528686	0	0
2024-10-09 20:06:47			0	38917	0	0	0	21690	20270	158673	26830	1055447	46269	107966	0	0	8260	529002	0	0
2024-10-09 20:07:47			0	38917	0	0	0	21690	20280	158793	27260	1055429	46291	107966	0	0	8260	528973	0	0
2024-10-09 20:08:47			0	38877	0	0	0	21701	20280	158733	27033	1055482	46281	107970	0	0	8258	530512	0	0
2024-10-09 20:09:47			0	38892	0	0	0	21696	20280	158749	26911	1055482	46281	107968	0	0	8259	529934	0	0
2024-10-09 20:10:47			0	38878	0	0	0	21690	20270	158949	27225	1055465	46279	107966	0	0	8258	530502	0	0
2024-10-09 20:11:47			0	38853	0	0	0	21688	20270	158917	27185	1055447	46280	107965	0	0	8257	531465	0	0
2024-10-09 20:12:47			0	38854	0	0	0	21693	20270	158917	27460	1055438	46290	107967	0	0	8257	531427	0	0
2024-10-09 20:13:47			0	38849	0	0	0	21690	20270	158913	27260	1055474	46291	107966	0	0	8256	531619	0	0
2024-10-09 20:14:47			0	38844	0	0	0	21688	20260	158969	27128	1055456	46268	107965	0	0	8256	531841	0	0
2024-10-09 20:15:47			0	38857	0	0	0	21690	20270	158853	27360	1055438	46290	107966	0	0	8257	531311	0	0
2024-10-09 20:16:47			0	38853	0	0	0	21690	20270	158849	27372	1055447	46258	107966	0	0	8257	531465	0	0
2024-10-09 20:17:47			0	38840	0	0	0	21693	20260	158905	27124	1055394	46279	107967	0	0	8256	531996	0	0
2024-10-09 20:18:47			0	38844	0	0	0	21693	20260	158937	27246	1055482	46300	107967	0	0	8256	531841	0	0
2024-10-09 20:19:47			0	38858	0	0	0	21685	20260	158985	27324	1055376	46290	107964	0	0	8257	531302	0	0
2024-10-09 20:20:47			0	38849	0	0	0	21685	20250	158973	27464	1055385	46278	107964	0	0	8256	531678	0	0
2024-10-09 20:21:47			0	38839	0	0	0	21685	20260	159041	27402	1055456	46268	107964	0	0	8256	532034	0	0
2024-10-09 20:22:47			0	38812	0	0	0	21685	20270	158969	27130	1055420	46291	107964	0	0	8254	533046	0	0
2024-10-09 20:23:47			0	38820	0	0	0	21685	20260	159045	27272	1055429	46290	107964	0	0	8255	532767	0	0
2024-10-09 20:24:47			0	38825	0	0	0	21683	20260	159061	26902	1055429	46268	107963	0	0	8255	532574	0	0
2024-10-09 20:25:47			0	38815	0	0	0	21677	20270	159105	27159	1055411	46279	107961	0	0	8255	532931	0	0
2024-10-09 20:26:47			0	38813	0	0	0	21680	20260	159105	27111	1055376	46300	107962	0	0	8254	533037	0	0
2024-10-09 20:27:47			0	38814	0	0	0	21680	20260	159185	27064	1055429	46257	107962	0	0	8255	532999	0	0
2024-10-09 20:28:47			0	38797	0	0	0	21688	20250	159129	26944	1055411	46278	107965	0	0	8253	533685	0	0
2024-10-09 20:29:47			0	38796	0	0	0	21675	20260	159285	26876	1055340	46279	107960	0	0	8254	533694	0	0
2024-10-09 20:30:47			0	38815	0	0	0	21680	20250	159221	27003	1055385	46289	107962	0	0	8255	532990	0	0
2024-10-09 20:31:47			0	38794	0	0	0	21672	20250	159169	27232	1055438	46267	107959	0	0	8253	533801	0	0
2024-10-09 20:32:47			0	38787	0	0	0	21677	20260	159213	27305	1055394	46268	107961	0	0	8253	534042	0	0
2024-10-09 20:33:47			0	38788	0	0	0	21677	20260	159297	27268	1055349	46290	107961	0	0	8253	534003	0	0
2024-10-09 20:34:47			0	38795	0	0	0	21677	20250	159321	27171	1055278	46267	107961	0	0	8253	533762	0	0
2024-10-09 20:35:47			0	38790	0	0	0	21675	20260	159229	27202	1055394	46268	107960	0	0	8253	533926	0	0
2024-10-09 20:36:47			0	38792	0	0	0	21680	20260	159205	27055	1055340	46268	107962	0	0	8253	533848	0	0
2024-10-09 20:37:47			0	38771	0	0	0	21680	20240	159345	27039	1055393	46276	107962	0	0	8252	534719	0	0
2024-10-09 20:38:47			0	38763	0	0	0	21672	20240	159289	27244	1055402	46277	107959	0	0	8252	535029	0	0
2024-10-09 20:39:47			0	38774	0	0	0	21672	20250	159297	26986	1055385	46267	107959	0	0	8252	534574	0	0
2024-10-09 20:40:47			0	38754	0	0	0	21680	20250	159377	27024	1055385	46267	107962	0	0	8251	535347	0	0
2024-10-09 20:41:47			0	38743	0	0	0	21670	20250	159457	27253	1055411	46289	107958	0	0	8251	535773	0	0
2024-10-09 20:42:47			0	38760	0	0	0	21677	20250	159345	27258	1055358	46278	107961	0	0	8251	535115	0	0
2024-10-09 20:43:47			0	38758	0	0	0	21675	20250	159409	27034	1055358	46278	107960	0	0	8251	535193	0	0
2024-10-09 20:44:47			0	38747	0	0	0	21677	20240	159397	27229	1055367	46276	107961	0	0	8251	535648	0	0
2024-10-09 20:45:47			0	38719	0	0	0	21672	20250	159528	26941	1055358	46278	107959	0	0	8249	536703	0	0
2024-10-09 20:46:47			0	38726	0	0	0	21677	20240	159393	27310	1055349	46255	107961	0	0	8249	536461	0	0
2024-10-09 20:47:47			0	38709	0	0	0	21675	20250	159508	27161	1055358	46278	107960	0	0	8248	537091	0	0
2024-10-09 20:48:47			0	38720	0	0	0	21672	20250	159548	26902	1055385	46267	107959	0	0	8249	536664	0	0
2024-10-09 20:49:47			0	38712	0	0	0	21672	20240	159536	26981	1055376	46277	107959	0	0	8249	537004	0	0
2024-10-09 20:50:47			0	38699	0	0	0	21675	20240	159472	27022	1055340	46265	107960	0	0	8248	537508	0	0
2024-10-09 20:51:47			0	38696	0	0	0	21683	20240	159592	26710	1055296	46288	107963	0	0	8248	537625	0	0
2024-10-09 20:52:47			0	38708	0	0	0	21680	20250	159512	26793	1055385	46267	107962	0	0	8248	537130	0	0
2024-10-09 20:53:47			0	38732	0	0	0	21672	20250	159501	27300	1055358	46267	107959	0	0	8250	536199	0	0
2024-10-09 20:54:47			0	38736	0	0	0	21675	20240	159509	26981	1055340	46276	107960	0	0	8250	536074	0	0
2024-10-09 20:55:47			0	38729	0	0	0	21677	20240	159492	27241	1055269	46277	107961	0	0	8250	536345	0	0
2024-10-09 20:56:47			0	38730	0	0	0	21677	20240	159365	27104	1055367	46265	107961	0	0	8250	536306	0	0
2024-10-09 20:57:47			0	38752	0	0	0	21680	20240	159465	26923	1055349	46277	107962	0	0	8251	535454	0	0
2024-10-09 20:58:47			0	38727	0	0	0	21680	20240	159429	26852	1055287	46265	107962	0	0	8249	536423	0	0
2024-10-09 20:59:47			0	38740	0	0	0	21670	20230	159293	26811	1055331	46287	107958	0	0	8250	535949	0	0
2024-10-09 21:00:47			0	38740	0	0	0	21675	20240	159389	26993	1055340	46254	107960	0	0	8250	535919	0	0
2024-10-09 21:01:47			0	38742	0	0	0	21677	20230	159417	27144	1055296	46276	107961	0	0	8250	535871	0	0
2024-10-09 21:02:47			0	38743	0	0	0	21672	20230	159425	27022	1055349	46276	107959	0	0	8250	535832	0	0
2024-10-09 21:03:47			0	38721	0	0	0	21672	20240	159400	27327	1055367	46287	107959	0	0	8249	536655	0	0
2024-10-09 21:04:47			0	38742	0	0	0	21680	20240	159361	26778	1055296	46288	107962	0	0	8250	535842	0	0
2024-10-09 21:05:47			0	38754	0	0	0	21672	20240	159389	26977	1055376	46288	107959	0	0	8251	535377	0	0
2024-10-09 21:06:47			0	38714	0	0	0	21664	20240	159408	26705	1055367	46287	107956	0	0	8249	536927	0	0
2024-10-09 21:07:47			0	38703	0	0	0	21670	20260	159528	26927	1055394	46300	107958	0	0	8248	537294	0	0
2024-10-09 21:08:47			0	38712	0	0	0	21670	20240	159576	26935	1055260	46276	107958	0	0	8249	537004	0	0
2024-10-09 21:09:47			0	38663	0	0	0	21677	20230	159684	26710	1055305	46276	107961	0	0	8246	538936	0	0
2024-10-09 21:10:47			0	38638	0	0	0	21670	20240	159836	26878	1055314	46287	107958	0	0	8244	539878	0	0
2024-10-09 21:11:47			0	38627	0	0	0	21664	20230	159876	26927	1055331	46265	107956	0	0	8244	540336	0	0
2024-10-09 21:12:47			0	38632	0	0	0	21667	20230	159800	27041	1055331	46265	107957	0	0	8244	540142	0	0
2024-10-09 21:13:47			0	38656	0	0	0	21675	20230	159796	26720	1055331	46276	107960	0	0	8245	539208	0	0
2024-10-09 21:14:47			0	38653	0	0	0	21659	20240	159820	26981	1055314	46287	107954	0	0	8245	539295	0	0
2024-10-09 21:15:47			0	38679	0	0	0	21675	20240	159764	26739	1055287	46287	107960	0	0	8247	538285	0	0
2024-10-09 21:16:47			0	38679	0	0	0	21677	20240	159636	27071	1055349	46277	107961	0	0	8247	538285	0	0
2024-10-09 21:17:47			0	38689	0	0	0	21670	20230	159596	26793	1055305	46287	107958	0	0	8247	537926	0	0
2024-10-09 21:18:47			0	38689	0	0	0	21672	20230	159612	27027	1055305	46297	107959	0	0	8247	537926	0	0
2024-10-09 21:19:47			0	38681	0	0	0	21670	20240	159532	27012	1055287	46265	107958	0	0	8247	538207	0	0
2024-10-09 21:20:47			0	38683	0	0	0	21675	20240	159704	26745	1055314	46276	107960	0	0	8247	538129	0	0
2024-10-09 21:21:47			0	38673	0	0	0	21667	20240	159736	27192	1055367	46265	107957	0	0	8246	538518	0	0
2024-10-09 21:22:47			0	38649	0	0	0	21664	20230	159844	27072	1055331	46276	107956	0	0	8245	539480	0	0
2024-10-09 21:23:47			0	38636	0	0	0	21657	20230	159860	27329	1055331	46276	107953	0	0	8244	539986	0	0
2024-10-09 21:24:47			0	38636	0	0	0	21664	20220	159824	27029	1055313	46275	107956	0	0	8244	540016	0	0
2024-10-09 21:25:47			0	38630	0	0	0	21662	20230	159776	26817	1055278	46287	107955	0	0	8244	540219	0	0
2024-10-09 21:26:47			0	38626	0	0	0	21662	20230	159864	26854	1055322	46276	107955	0	0	8244	540375	0	0
2024-10-09 21:27:47			0	38632	0	0	0	21670	20230	159804	26897	1055269	46276	107958	0	0	8244	540142	0	0
2024-10-09 21:28:47			0	38645	0	0	0	21670	20230	159820	27071	1055322	46276	107958	0	0	8245	539636	0	0
2024-10-09 21:29:47			0	38632	0	0	0	21659	20230	159900	27126	1055278	46287	107954	0	0	8244	540142	0	0
2024-10-09 21:30:47			0	38623	0	0	0	21664	20230	159864	26769	1055278	46287	107956	0	0	8244	540492	0	0
2024-10-09 21:31:47			0	38656	0	0	0	21662	20230	159792	26759	1055278	46287	107955	0	0	8246	539208	0	0
2024-10-09 21:32:47			0	38643	0	0	0	21659	20230	159792	26904	1055331	46265	107954	0	0	8245	539714	0	0
2024-10-09 21:33:47			0	38646	0	0	0	21654	20230	159708	26979	1055331	46276	107952	0	0	8245	539597	0	0
2024-10-09 21:34:47			0	38638	0	0	0	21664	20230	159736	26745	1055349	46287	107956	0	0	8244	539908	0	0
2024-10-09 21:35:47			0	38644	0	0	0	21659	20230	159892	26937	1055322	46297	107954	0	0	8245	539675	0	0
2024-10-09 21:36:47			0	38631	0	0	0	21662	20230	159908	26753	1055269	46297	107955	0	0	8244	540181	0	0
2024-10-09 21:37:47			0	38620	0	0	0	21657	20230	159912	27007	1055269	46287	107953	0	0	8244	540609	0	0
2024-10-09 21:38:47			0	38584	0	0	0	21659	20230	159908	26719	1055322	46276	107954	0	0	8241	542012	0	0
2024-10-09 21:39:47			0	38593	0	0	0	21657	20230	160040	26731	1055331	46276	107953	0	0	8242	541661	0	0
2024-10-09 21:40:47			0	38575	0	0	0	21659	20220	160028	26785	1055287	46264	107954	0	0	8241	542393	0	0
2024-10-09 21:41:47			0	38564	0	0	0	21662	20230	160036	26960	1055305	46265	107955	0	0	8240	542792	0	0
2024-10-09 21:42:47			0	38565	0	0	0	21662	20230	160124	26981	1055242	46265	107955	0	0	8240	542753	0	0
2024-10-09 21:43:47			0	38565	0	0	0	21657	20230	160032	27041	1055305	46276	107953	0	0	8240	542753	0	0
2024-10-09 21:44:47			0	38548	0	0	0	21659	20230	160216	27140	1055269	46287	107954	0	0	8239	543417	0	0
2024-10-09 21:45:47			0	38533	0	0	0	21659	20230	160312	26906	1055296	46265	107954	0	0	8238	544003	0	0
2024-10-09 21:46:47			0	38543	0	0	0	21651	20220	160244	26972	1055287	46264	107951	0	0	8239	543642	0	0
2024-10-09 21:47:47			0	38550	0	0	0	21657	20230	160176	26979	1055322	46265	107953	0	0	8239	543339	0	0
2024-10-09 21:48:47			0	38561	0	0	0	21670	20230	160048	27088	1055296	46297	107958	0	0	8240	542909	0	0
2024-10-09 21:49:47			0	38566	0	0	0	21659	20230	160072	27222	1055242	46287	107954	0	0	8240	542714	0	0
2024-10-09 21:50:47			0	38575	0	0	0	21659	20230	160068	27024	1055296	46276	107954	0	0	8241	542363	0	0
2024-10-09 21:51:47			0	38578	0	0	0	21657	20230	160016	26864	1055242	46276	107953	0	0	8241	542246	0	0
2024-10-09 21:52:47			0	38560	0	0	0	21659	20240	160084	27227	1055314	46287	107954	0	0	8240	542918	0	0
2024-10-09 21:53:47			0	38569	0	0	0	21664	20240	160112	26987	1055314	46276	107956	0	0	8240	542567	0	0
2024-10-09 21:54:47			0	38563	0	0	0	21659	20220	160088	26996	1055260	46296	107954	0	0	8240	542861	0	0
2024-10-09 21:55:47			0	38571	0	0	0	21659	20230	160116	27140	1055251	46287	107954	0	0	8241	542519	0	0
2024-10-09 21:56:47			0	38548	0	0	0	21654	20220	160256	26949	1055260	46286	107952	0	0	8239	543447	0	0
2024-10-09 21:57:47			0	38558	0	0	0	21654	20230	160208	26994	1055331	46254	107952	0	0	8240	543026	0	0
2024-10-09 21:58:47			0	38518	0	0	0	21654	20220	160192	26991	1055234	46264	107952	0	0	8238	544619	0	0
2024-10-09 21:59:47			0	38527	0	0	0	21659	20210	160196	27150	1055348	46285	107954	0	0	8238	544297	0	0
2024-10-09 22:00:47			0	38545	0	0	0	21659	20230	160232	26859	1055305	46265	107954	0	0	8239	543534	0	0
2024-10-09 22:01:47			0	38529	0	0	0	21662	20230	160212	27201	1055278	46276	107955	0	0	8238	544159	0	0
2024-10-09 22:02:47			0	38527	0	0	0	21662	20230	160296	26830	1055322	46276	107955	0	0	8238	544237	0	0
2024-10-09 22:03:47			0	38492	0	0	0	21659	20220	160332	26849	1055287	46296	107954	0	0	8236	545637	0	0
2024-10-09 22:04:47			0	38483	0	0	0	21654	20230	160336	27114	1055278	46276	107952	0	0	8236	545959	0	0
2024-10-09 22:05:47			0	38502	0	0	0	21651	20220	160388	27013	1055313	46296	107951	0	0	8237	545245	0	0
2024-10-09 22:06:47			0	38487	0	0	0	21659	20230	160312	27111	1055269	46287	107954	0	0	8236	545802	0	0
2024-10-09 22:07:47			0	38488	0	0	0	21651	20230	160384	26984	1055322	46265	107951	0	0	8236	545763	0	0
2024-10-09 22:08:47			0	38490	0	0	0	21657	20220	160304	26840	1055278	46285	107953	0	0	8236	545715	0	0
2024-10-09 22:09:47			0	38531	0	0	0	21664	20220	160308	27083	1055260	46296	107956	0	0	8238	544111	0	0
2024-10-09 22:10:47			0	38528	0	0	0	21662	20220	160240	26961	1055287	46275	107955	0	0	8238	544228	0	0
2024-10-09 22:11:47			0	38531	0	0	0	21654	20230	160200	27100	1055305	46309	107952	0	0	8238	544081	0	0
2024-10-09 22:12:47			0	38525	0	0	0	21662	20220	160216	26951	1055358	46274	107955	0	0	8238	544345	0	0
2024-10-09 22:13:47			0	38521	0	0	0	21657	20230	160240	27222	1055269	46287	107953	0	0	8238	544472	0	0
2024-10-09 22:14:47			0	38500	0	0	0	21659	20230	160200	26573	1055296	46297	107954	0	0	8236	545293	0	0
2024-10-09 22:15:47			0	38492	0	0	0	21646	20220	160396	27131	1055251	46274	107949	0	0	8236	545637	0	0
2024-10-09 22:16:47			0	38486	0	0	0	21649	20230	160416	26838	1055331	46276	107950	0	0	8236	545842	0	0
2024-10-09 22:17:47			0	38448	0	0	0	21651	20220	160464	26960	1055278	46285	107951	0	0	8234	547361	0	0
2024-10-09 22:18:47			0	38439	0	0	0	21651	20220	160536	26974	1055260	46275	107951	0	0	8233	547715	0	0
2024-10-09 22:19:47			0	38432	0	0	0	21654	20220	160420	26991	1055260	46264	107952	0	0	8233	547989	0	0
2024-10-09 22:20:47			0	38452	0	0	0	21667	20220	160416	26748	1055251	46274	107957	0	0	8233	547204	0	0
2024-10-09 22:21:47			0	38486	0	0	0	21662	20220	160336	27053	1055287	46264	107955	0	0	8236	545872	0	0
2024-10-09 22:22:47			0	38464	0	0	0	21654	20220	160408	26913	1055287	46264	107952	0	0	8234	546734	0	0
2024-10-09 22:23:47			0	38474	0	0	0	21664	20220	160368	27199	1055287	46286	107956	0	0	8235	546342	0	0
2024-10-09 22:24:47			0	38473	0	0	0	21657	20220	160492	26975	1055287	46275	107953	0	0	8235	546381	0	0
2024-10-09 22:25:47			0	38445	0	0	0	21644	20230	160456	27107	1055242	46297	107948	0	0	8234	547449	0	0
2024-10-09 22:26:47			0	38434	0	0	0	21651	20220	160700	27241	1055313	46286	107951	0	0	8233	547911	0	0
2024-10-09 22:27:47			0	38442	0	0	0	21667	20220	160676	26982	1055287	46286	107957	0	0	8233	547597	0	0
2024-10-09 22:28:47			0	38433	0	0	0	21662	20230	160628	27204	1055322	46287	107955	0	0	8233	547920	0	0
2024-10-09 22:29:47			0	38439	0	0	0	21657	20220	160608	27114	1055287	46275	107953	0	0	8233	547715	0	0
2024-10-09 22:30:47			0	38430	0	0	0	21646	20230	160652	27310	1055216	46287	107949	0	0	8233	548038	0	0
2024-10-09 22:31:47			0	38427	0	0	0	21657	20230	160760	26958	1055322	46265	107953	0	0	8232	548155	0	0
2024-10-09 22:32:47			0	38410	0	0	0	21654	20210	160664	27376	1055268	46274	107952	0	0	8231	548884	0	0
2024-10-09 22:33:47			0	38412	0	0	0	21662	20210	160652	27053	1055295	46285	107955	0	0	8231	548805	0	0
2024-10-09 22:34:47			0	38419	0	0	0	21657	20220	160604	27185	1055260	46275	107953	0	0	8232	548500	0	0
2024-10-09 22:35:47			0	38418	0	0	0	21651	20220	160632	27197	1055260	46264	107951	0	0	8232	548539	0	0
2024-10-09 22:36:47			0	38418	0	0	0	21649	20220	160704	27246	1055313	46275	107950	0	0	8232	548539	0	0
2024-10-09 22:37:47			0	38428	0	0	0	21649	20220	160564	27282	1055304	46263	107950	0	0	8232	548146	0	0
2024-10-09 22:38:47			0	38426	0	0	0	21649	20220	160568	27069	1055384	46274	107950	0	0	8232	548225	0	0
2024-10-09 22:39:47			0	38399	0	0	0	21651	20230	160776	27239	1055322	46287	107951	0	0	8231	549256	0	0
2024-10-09 22:40:47			0	38421	0	0	0	21649	20230	160724	27232	1055251	46276	107950	0	0	8232	548391	0	0
2024-10-09 22:41:47			0	38410	0	0	0	21654	20220	160736	27291	1055304	46274	107952	0	0	8231	548853	0	0
2024-10-09 22:42:47			0	38430	0	0	0	21654	20230	160704	27334	1055296	46287	107952	0	0	8232	548038	0	0
2024-10-09 22:43:47			0	38426	0	0	0	21659	20210	160680	27209	1055268	46295	107954	0	0	8232	548255	0	0
2024-10-09 22:44:47			0	38405	0	0	0	21651	20230	160756	26850	1055322	46276	107951	0	0	8231	549020	0	0
2024-10-09 22:45:47			0	38407	0	0	0	21657	20220	160800	27317	1055304	46285	107953	0	0	8231	548971	0	0
2024-10-09 22:46:47			0	38403	0	0	0	21654	20210	160760	27043	1055242	46285	107952	0	0	8231	549159	0	0
2024-10-09 22:47:47			0	38397	0	0	0	21659	20230	160696	27159	1055189	46276	107954	0	0	8230	549334	0	0
2024-10-09 22:48:47			0	38408	0	0	0	21662	20220	160708	27124	1055198	46285	107955	0	0	8231	548932	0	0
2024-10-09 22:49:47			0	38420	0	0	0	21657	20220	160644	27104	1055287	46264	107953	0	0	8232	548461	0	0
2024-10-09 22:50:47			0	38426	0	0	0	21664	20230	160620	27237	1055322	46265	107956	0	0	8232	548195	0	0
2024-10-09 22:51:47			0	38410	0	0	0	21662	20230	160588	27260	1055242	46287	107955	0	0	8231	548823	0	0
2024-10-09 22:52:47			0	38441	0	0	0	21659	20230	160516	26811	1055296	46276	107954	0	0	8233	547606	0	0
2024-10-09 22:53:47			0	38411	0	0	0	21662	20220	160596	27171	1055287	46286	107955	0	0	8231	548814	0	0
2024-10-09 22:54:47			0	38425	0	0	0	21662	20230	160716	27036	1055322	46297	107955	0	0	8232	548234	0	0
2024-10-09 22:55:47			0	38408	0	0	0	21659	20220	160732	27161	1055251	46263	107954	0	0	8231	548932	0	0
2024-10-09 22:56:47			0	38414	0	0	0	21659	20220	160596	26968	1055287	46264	107954	0	0	8231	548696	0	0
2024-10-09 22:57:47			0	38416	0	0	0	21657	20230	160692	27119	1055322	46297	107953	0	0	8232	548587	0	0
2024-10-09 22:58:47			0	38395	0	0	0	21654	20220	160624	26762	1055260	46264	107952	0	0	8230	549443	0	0
2024-10-09 22:59:47			0	38394	0	0	0	21662	20230	160688	27007	1055269	46276	107955	0	0	8230	549452	0	0
2024-10-09 23:00:47			0	38411	0	0	0	21659	20230	160684	26800	1055349	46287	107954	0	0	8231	548784	0	0
2024-10-09 23:01:47			0	38421	0	0	0	21662	20210	160604	27204	1055242	46285	107955	0	0	8232	548451	0	0
2024-10-09 23:02:47			0	38434	0	0	0	21670	20220	160588	26925	1055287	46296	107958	0	0	8232	547911	0	0
2024-10-09 23:03:47			0	38444	0	0	0	21654	20230	160556	26745	1055358	46297	107952	0	0	8233	547488	0	0
2024-10-09 23:04:47			0	38446	0	0	0	21657	20220	160572	27067	1055313	46296	107953	0	0	8233	547440	0	0
2024-10-09 23:05:47			0	38450	0	0	0	21667	20240	160528	26578	1055314	46276	107957	0	0	8233	547222	0	0
2024-10-09 23:06:47			0	38419	0	0	0	21662	20230	160516	26935	1055349	46287	107955	0	0	8232	548470	0	0
2024-10-09 23:07:47			0	38401	0	0	0	21664	20230	160828	27168	1055349	46276	107956	0	0	8231	549177	0	0
2024-10-09 23:08:47			0	38415	0	0	0	21688	20230	160664	27046	1055322	46287	107965	0	0	8231	548627	0	0
2024-10-09 23:09:47			0	38426	0	0	0	21667	20240	160640	26847	1055393	46254	107957	0	0	8232	548164	0	0
2024-10-09 23:10:47			0	38438	0	0	0	21675	20230	160580	26809	1055331	46276	107960	0	0	8233	547724	0	0
2024-10-09 23:11:47			0	38444	0	0	0	21667	20230	160464	26856	1055358	46276	107957	0	0	8233	547488	0	0
2024-10-09 23:12:47			0	38472	0	0	0	21675	20230	160464	26915	1055349	46287	107960	0	0	8235	546390	0	0
2024-10-09 23:13:47			0	38484	0	0	0	21677	20230	160452	27138	1055358	46287	107961	0	0	8235	545920	0	0
2024-10-09 23:14:47			0	38507	0	0	0	21675	20240	160316	26901	1055367	46297	107960	0	0	8237	544989	0	0
2024-10-09 23:15:47			0	38505	0	0	0	21670	20230	160368	27275	1055375	46287	107958	0	0	8237	545098	0	0
2024-10-09 23:16:47			0	38515	0	0	0	21675	20240	160360	26979	1055420	46287	107960	0	0	8237	544676	0	0
2024-10-09 23:17:47			0	38512	0	0	0	21667	20240	160324	27039	1055367	46276	107957	0	0	8237	544794	0	0
2024-10-09 23:18:47			0	38518	0	0	0	21672	20240	160380	27092	1055322	46288	107959	0	0	8237	544559	0	0
2024-10-09 23:19:47			0	38522	0	0	0	21667	20230	160284	26899	1055331	46287	107957	0	0	8238	544433	0	0
2024-10-09 23:20:47			0	38510	0	0	0	21675	20240	160220	26967	1055393	46265	107960	0	0	8237	544872	0	0
2024-10-09 23:21:47			0	38543	0	0	0	21670	20240	160264	27114	1055367	46287	107958	0	0	8239	543582	0	0
2024-10-09 23:22:47			0	38516	0	0	0	21680	20240	160320	26817	1055367	46265	107962	0	0	8237	544637	0	0
2024-10-09 23:23:47			0	38550	0	0	0	21672	20250	160216	27220	1055358	46267	107959	0	0	8239	543279	0	0
2024-10-09 23:24:47			0	38541	0	0	0	21677	20230	160096	27052	1055411	46287	107961	0	0	8239	543690	0	0
2024-10-09 23:25:47			0	38530	0	0	0	21675	20240	160196	27350	1055393	46287	107960	0	0	8238	544090	0	0
2024-10-09 23:26:47			0	38550	0	0	0	21675	20240	160244	27069	1055455	46298	107960	0	0	8239	543309	0	0
2024-10-09 23:27:47			0	38526	0	0	0	21680	20250	160216	27043	1055411	46289	107962	0	0	8238	544216	0	0
2024-10-09 23:28:47			0	38525	0	0	0	21680	20240	160200	27128	1055420	46297	107962	0	0	8238	544285	0	0
2024-10-09 23:29:47			0	38524	0	0	0	21677	20240	160368	27098	1055402	46277	107961	0	0	8238	544325	0	0
2024-10-09 23:30:47			0	38517	0	0	0	21680	20240	160280	26922	1055393	46276	107962	0	0	8237	544598	0	0
2024-10-09 23:31:47			0	38488	0	0	0	21672	20240	160256	26896	1055402	46288	107959	0	0	8236	545733	0	0
2024-10-09 23:32:47			0	38501	0	0	0	21672	20250	160288	26981	1055411	46289	107959	0	0	8236	545194	0	0
2024-10-09 23:33:47			0	38486	0	0	0	21667	20240	160352	27041	1055367	46287	107957	0	0	8236	545811	0	0
2024-10-09 23:34:47			0	38492	0	0	0	21670	20240	160364	27176	1055429	46255	107958	0	0	8236	545576	0	0
2024-10-09 23:35:47			0	38492	0	0	0	21675	20250	160428	27194	1055358	46267	107960	0	0	8236	545546	0	0
2024-10-09 23:36:47			0	38500	0	0	0	21667	20240	160364	27152	1055376	46266	107957	0	0	8236	545263	0	0
2024-10-09 23:37:47			0	38485	0	0	0	21667	20240	160404	26949	1055429	46288	107957	0	0	8236	545851	0	0
2024-10-09 23:38:47			0	38482	0	0	0	21670	20240	160512	26975	1055322	46277	107958	0	0	8235	545968	0	0
2024-10-09 23:39:47			0	38460	0	0	0	21672	20230	160528	26930	1055358	46276	107959	0	0	8234	546860	0	0
2024-10-09 23:40:47			0	38460	0	0	0	21670	20240	160600	26779	1055393	46287	107958	0	0	8234	546830	0	0
2024-10-09 23:41:47			0	38463	0	0	0	21664	20230	160536	26765	1055358	46287	107956	0	0	8234	546743	0	0
2024-10-09 23:42:47			0	38446	0	0	0	21667	20230	160568	27124	1055331	46276	107957	0	0	8233	547410	0	0
2024-10-09 23:43:47			0	38472	0	0	0	21672	20230	160416	27010	1055411	46265	107959	0	0	8235	546390	0	0
2024-10-09 23:44:47			0	38451	0	0	0	21670	20230	160488	27215	1055358	46287	107958	0	0	8233	547213	0	0
2024-10-09 23:45:47			0	38442	0	0	0	21672	20240	160552	27085	1055340	46287	107959	0	0	8233	547536	0	0
2024-10-09 23:46:47			0	38451	0	0	0	21670	20240	160424	26913	1055393	46265	107958	0	0	8233	547183	0	0
2024-10-09 23:47:47			0	38439	0	0	0	21672	20230	160532	27386	1055384	46265	107959	0	0	8233	547684	0	0
2024-10-09 23:48:47			0	38430	0	0	0	21670	20240	160652	27029	1055402	46266	107958	0	0	8232	548007	0	0
2024-10-09 23:49:47			0	38438	0	0	0	21672	20240	160716	27060	1055340	46276	107959	0	0	8233	547693	0	0
2024-10-09 23:50:47			0	38423	0	0	0	21672	20230	160680	27060	1055358	46287	107959	0	0	8232	548312	0	0
2024-10-09 23:51:47			0	38452	0	0	0	21667	20230	160596	27157	1055331	46276	107957	0	0	8234	547174	0	0
2024-10-09 23:52:47			0	38449	0	0	0	21672	20240	160704	27003	1055322	46310	107959	0	0	8233	547262	0	0
2024-10-09 23:53:47			0	38440	0	0	0	21667	20240	160680	26769	1055340	46297	107957	0	0	8233	547615	0	0
2024-10-09 23:54:47			0	38463	0	0	0	21670	20240	160568	26906	1055340	46287	107958	0	0	8234	546713	0	0
2024-10-09 23:55:47			0	38463	0	0	0	21664	20230	160592	27137	1055331	46276	107956	0	0	8234	546743	0	0
2024-10-09 23:56:47			0	38481	0	0	0	21664	20230	160504	26743	1055331	46276	107956	0	0	8235	546038	0	0
2024-10-09 23:57:47			0	38470	0	0	0	21662	20240	160480	27459	1055340	46276	107955	0	0	8235	546438	0	0
2024-10-09 23:58:47			0	38475	0	0	0	21662	20240	160488	27388	1055314	46276	107955	0	0	8235	546242	0	0
2024-10-09 23:59:47			0	38454	0	0	0	21659	20230	160544	26830	1055269	46276	107954	0	0	8234	547096	0	0
2024-10-10 00:00:47			0	38445	0	0	0	21662	20240	160604	27083	1055340	46276	107955	0	0	8233	547419	0	0
2024-10-10 00:01:47			0	38428	0	0	0	21664	20230	160708	27182	1055331	46287	107956	0	0	8232	548116	0	0
2024-10-10 00:02:47			0	38425	0	0	0	21659	20230	160672	27007	1055349	46297	107954	0	0	8232	548234	0	0
2024-10-10 00:03:47			0	38437	0	0	0	21659	20230	160724	27189	1055349	46287	107954	0	0	8233	547763	0	0
2024-10-10 00:04:47			0	38416	0	0	0	21654	20220	160760	26835	1055313	46264	107952	0	0	8232	548618	0	0
2024-10-10 00:05:47			0	38410	0	0	0	21657	20240	160696	27322	1055340	46276	107953	0	0	8231	548793	0	0
2024-10-10 00:06:47			0	38407	0	0	0	21651	20230	160800	27107	1055322	46276	107951	0	0	8231	548941	0	0
2024-10-10 00:07:47			0	38406	0	0	0	21657	20230	160808	26824	1055296	46287	107953	0	0	8231	548980	0	0
2024-10-10 00:08:47			0	38406	0	0	0	21657	20210	160808	27130	1055286	46263	107953	0	0	8231	549041	0	0
2024-10-10 00:09:47			0	38385	0	0	0	21657	20220	160852	27064	1055313	46264	107953	0	0	8230	549836	0	0
2024-10-10 00:10:47			0	38369	0	0	0	21646	20220	160980	27280	1055278	46285	107949	0	0	8229	550466	0	0
2024-10-10 00:11:47			0	38368	0	0	0	21644	20220	160992	27170	1055304	46285	107948	0	0	8229	550506	0	0
2024-10-10 00:12:47			0	38347	0	0	0	21644	20220	160960	27424	1055331	46274	107948	0	0	8228	551333	0	0
2024-10-10 00:13:47			0	38306	0	0	0	21633	20220	161168	27256	1055234	46264	107944	0	0	8226	552950	0	0
2024-10-10 00:14:47			0	38291	0	0	0	21638	20220	161376	27362	1055251	46263	107946	0	0	8225	553542	0	0
2024-10-10 00:15:47			0	38266	0	0	0	21636	20210	161388	27381	1055153	46274	107945	0	0	8223	554561	0	0
2024-10-10 00:16:47			0	38271	0	0	0	21631	20200	161456	27093	1055224	46262	107943	0	0	8223	554394	0	0
2024-10-10 00:17:47			0	38251	0	0	0	21631	20220	161448	27183	1055207	46286	107943	0	0	8222	555124	0	0
2024-10-10 00:18:47			0	38240	0	0	0	21623	20210	161548	27055	1055268	46285	107940	0	0	8222	555590	0	0
2024-10-10 00:19:47			0	38205	0	0	0	21636	20210	161468	26953	1055233	46263	107945	0	0	8220	556977	0	0
2024-10-10 00:20:47			0	38194	0	0	0	21638	20200	161668	26965	1055144	46273	107946	0	0	8219	557444	0	0
2024-10-10 00:21:47			0	38174	0	0	0	21628	20210	161740	27230	1055233	46263	107942	0	0	8218	558207	0	0
2024-10-10 00:22:47			0	38163	0	0	0	21628	20210	161756	27253	1055215	46263	107942	0	0	8217	558644	0	0
2024-10-10 00:23:47			0	38146	0	0	0	21633	20200	161828	27229	1055224	46273	107944	0	0	8216	559351	0	0
2024-10-10 00:24:47			0	38127	0	0	0	21620	20200	161800	27339	1055215	46261	107939	0	0	8215	560107	0	0
2024-10-10 00:25:47			0	38144	0	0	0	21625	20200	161932	27182	1055224	46262	107941	0	0	8216	559430	0	0
2024-10-10 00:26:47			0	38113	0	0	0	21625	20200	161912	27391	1055189	46261	107941	0	0	8214	560664	0	0
2024-10-10 00:27:47			0	38128	0	0	0	21628	20190	161884	27329	1055233	46272	107942	0	0	8215	560098	0	0
2024-10-10 00:28:47			0	38124	0	0	0	21636	20200	161992	26993	1055189	46272	107945	0	0	8215	560226	0	0
2024-10-10 00:29:47			0	38126	0	0	0	21628	20190	162016	27020	1055100	46283	107942	0	0	8215	560177	0	0
2024-10-10 00:30:47			0	38113	0	0	0	21633	20190	161908	27215	1055206	46272	107944	0	0	8214	560695	0	0
2024-10-10 00:31:47			0	38113	0	0	0	21623	20200	161928	26986	1055189	46272	107940	0	0	8214	560664	0	0
2024-10-10 00:32:47			0	38138	0	0	0	21633	20200	161944	27133	1055135	46261	107944	0	0	8216	559669	0	0
2024-10-10 00:33:47			0	38120	0	0	0	21623	20190	161976	27300	1055117	46272	107940	0	0	8215	560416	0	0
2024-10-10 00:34:47			0	38123	0	0	0	21620	20200	161936	27352	1055224	46262	107939	0	0	8215	560266	0	0
2024-10-10 00:35:47			0	38135	0	0	0	21628	20200	161840	27085	1055171	46284	107942	0	0	8215	559788	0	0
2024-10-10 00:36:47			0	38135	0	0	0	21636	20200	161992	27260	1055215	46261	107945	0	0	8215	559788	0	0
2024-10-10 00:37:47			0	38128	0	0	0	21633	20190	162012	27208	1055197	46272	107944	0	0	8215	560098	0	0
2024-10-10 00:38:47			0	38131	0	0	0	21623	20190	161968	27145	1055180	46283	107940	0	0	8215	559978	0	0
2024-10-10 00:39:47			0	38136	0	0	0	21628	20190	162012	27100	1055224	46283	107942	0	0	8216	559779	0	0
2024-10-10 00:40:47			0	38098	0	0	0	21631	20190	162000	27230	1055197	46293	107943	0	0	8213	561293	0	0
2024-10-10 00:41:47			0	38113	0	0	0	21641	20190	161920	27260	1055153	46283	107947	0	0	8214	560695	0	0
2024-10-10 00:42:47			0	38093	0	0	0	21625	20190	161948	27112	1055180	46261	107941	0	0	8213	561492	0	0
2024-10-10 00:43:47			0	38121	0	0	0	21631	20200	161876	27194	1055189	46261	107943	0	0	8215	560346	0	0
2024-10-10 00:44:47			0	38104	0	0	0	21620	20200	162020	27067	1055135	46293	107939	0	0	8214	561022	0	0
2024-10-10 00:45:47			0	38121	0	0	0	21633	20200	162048	27218	1055215	46272	107944	0	0	8215	560346	0	0
2024-10-10 00:46:47			0	38114	0	0	0	21625	20190	161936	27549	1055153	46283	107941	0	0	8214	560655	0	0
2024-10-10 00:47:47			0	38111	0	0	0	21620	20190	161984	26916	1055171	46293	107939	0	0	8214	560775	0	0
2024-10-10 00:48:47			0	38110	0	0	0	21631	20180	161884	27090	1055188	46282	107943	0	0	8214	560845	0	0
2024-10-10 00:49:47			0	38095	0	0	0	21633	20190	162016	27220	1055126	46272	107944	0	0	8213	561412	0	0
2024-10-10 00:50:47			0	38132	0	0	0	21638	20190	161904	27279	1055206	46261	107946	0	0	8215	559939	0	0
2024-10-10 00:51:47			0	38131	0	0	0	21625	20200	161872	27008	1055109	46272	107941	0	0	8215	559947	0	0
2024-10-10 00:52:47			0	38126	0	0	0	21625	20190	161928	27383	1055126	46272	107941	0	0	8215	560177	0	0
2024-10-10 00:53:47			0	38144	0	0	0	21628	20200	161724	27105	1055189	46293	107942	0	0	8216	559430	0	0
2024-10-10 00:54:47			0	38111	0	0	0	21628	20190	161816	27554	1055126	46261	107942	0	0	8214	560775	0	0
2024-10-10 00:55:47			0	38126	0	0	0	21633	20190	161808	27149	1055180	46272	107944	0	0	8215	560177	0	0
2024-10-10 00:56:47			0	38138	0	0	0	21633	20200	161944	26882	1055189	46283	107944	0	0	8216	559669	0	0
2024-10-10 00:57:47			0	38124	0	0	0	21618	20200	161832	27358	1055215	46272	107938	0	0	8215	560226	0	0
2024-10-10 00:58:47			0	38122	0	0	0	21625	20200	161852	27046	1055215	46283	107941	0	0	8215	560306	0	0
2024-10-10 00:59:47			0	38127	0	0	0	21625	20200	161948	27131	1055215	46261	107941	0	0	8215	560107	0	0
2024-10-10 01:00:47			0	38120	0	0	0	21625	20190	161856	27329	1055180	46261	107941	0	0	8215	560416	0	0
2024-10-10 01:01:47			0	38133	0	0	0	21625	20200	161908	27206	1055109	46283	107941	0	0	8215	559868	0	0
2024-10-10 01:02:47			0	38105	0	0	0	21615	20180	161984	26890	1055188	46271	107937	0	0	8214	561045	0	0
2024-10-10 01:03:47			0	38080	0	0	0	21615	20190	161956	27277	1055197	46261	107937	0	0	8212	562010	0	0
2024-10-10 01:04:47			0	38085	0	0	0	21620	20200	161940	26974	1055189	46272	107939	0	0	8213	561780	0	0
2024-10-10 01:05:47			0	38072	0	0	0	21610	20190	162064	27208	1055206	46261	107935	0	0	8212	562329	0	0
2024-10-10 01:06:47			0	38085	0	0	0	21620	20190	162028	26939	1055117	46283	107939	0	0	8213	561811	0	0
2024-10-10 01:07:47			0	38062	0	0	0	21612	20180	162076	27213	1055082	46292	107936	0	0	8211	562759	0	0
2024-10-10 01:08:47			0	38057	0	0	0	21618	20180	162100	26996	1055188	46260	107938	0	0	8211	562959	0	0
2024-10-10 01:09:47			0	38055	0	0	0	21612	20180	162108	27060	1055055	46271	107936	0	0	8211	563039	0	0
2024-10-10 01:10:47			0	38061	0	0	0	21615	20190	162204	27367	1055180	46283	107937	0	0	8211	562768	0	0
2024-10-10 01:11:47			0	38046	0	0	0	21618	20180	162188	27410	1055082	46271	107938	0	0	8210	563398	0	0
2024-10-10 01:12:47			0	38049	0	0	0	21607	20180	162128	27417	1055073	46281	107934	0	0	8211	563279	0	0
2024-10-10 01:13:47			0	38027	0	0	0	21610	20190	162195	27327	1055197	46283	107935	0	0	8209	564127	0	0
2024-10-10 01:14:47			0	38053	0	0	0	21610	20170	162332	27315	1055064	46270	107935	0	0	8211	563150	0	0
2024-10-10 01:15:47			0	38039	0	0	0	21612	20190	162192	27301	1055091	46272	107936	0	0	8210	563647	0	0
2024-10-10 01:16:47			0	38045	0	0	0	21615	20180	162256	27293	1055082	46292	107937	0	0	8210	563438	0	0
2024-10-10 01:17:47			0	38038	0	0	0	21612	20180	162300	27000	1055135	46282	107936	0	0	8210	563718	0	0
2024-10-10 01:18:47			0	38033	0	0	0	21618	20170	162248	27229	1055011	46259	107938	0	0	8210	563949	0	0
2024-10-10 01:19:47			0	38037	0	0	0	21610	20180	162148	27010	1055179	46303	107935	0	0	8210	563758	0	0
2024-10-10 01:20:47			0	38054	0	0	0	21615	20170	162152	26925	1055144	46270	107937	0	0	8211	563110	0	0
2024-10-10 01:21:47			0	38042	0	0	0	21607	20180	162288	27201	1055126	46270	107934	0	0	8210	563558	0	0
2024-10-10 01:22:47			0	38031	0	0	0	21594	20180	162375	27039	1055206	46259	107929	0	0	8210	563998	0	0
2024-10-10 01:23:47			0	38027	0	0	0	21610	20180	162339	27083	1055073	46270	107935	0	0	8209	564158	0	0
2024-10-10 01:24:47			0	38019	0	0	0	21615	20170	162331	27161	1055091	46270	107937	0	0	8209	564509	0	0
2024-10-10 01:25:47			0	38021	0	0	0	21605	20170	162371	27003	1055091	46270	107933	0	0	8209	564429	0	0
2024-10-10 01:26:47			0	38006	0	0	0	21602	20170	162271	27156	1055055	46269	107932	0	0	8208	565029	0	0
2024-10-10 01:27:47			0	38002	0	0	0	21602	20170	162299	27428	1055037	46281	107932	0	0	8208	565189	0	0
2024-10-10 01:28:47			0	38011	0	0	0	21605	20180	162367	27277	1055020	46270	107933	0	0	8209	564797	0	0
2024-10-10 01:29:47			0	38020	0	0	0	21607	20170	162223	27253	1055037	46270	107934	0	0	8209	564469	0	0
2024-10-10 01:30:47			0	38011	0	0	0	21599	20170	162231	27199	1055108	46291	107931	0	0	8209	564829	0	0
2024-10-10 01:31:47			0	38011	0	0	0	21602	20170	162299	27208	1055144	46281	107932	0	0	8209	564829	0	0
2024-10-10 01:32:47			0	37996	0	0	0	21602	20170	162447	27386	1055091	46281	107932	0	0	8208	565429	0	0
2024-10-10 01:33:47			0	38001	0	0	0	21589	20180	162363	27386	1055153	46259	107927	0	0	8208	565198	0	0
2024-10-10 01:34:47			0	37991	0	0	0	21602	20180	162371	27123	1055082	46271	107932	0	0	8207	565598	0	0
2024-10-10 01:35:47			0	37973	0	0	0	21592	20170	162375	27185	1055117	46270	107928	0	0	8206	566350	0	0
2024-10-10 01:36:47			0	37965	0	0	0	21597	20170	162475	26956	1055135	46280	107930	0	0	8206	566671	0	0
2024-10-10 01:37:47			0	37964	0	0	0	21589	20160	162419	27246	1055020	46269	107927	0	0	8206	566743	0	0
2024-10-10 01:38:47			0	37955	0	0	0	21597	20170	162523	27395	1055064	46270	107930	0	0	8205	567072	0	0
2024-10-10 01:39:47			0	37937	0	0	0	21584	20170	162587	27369	1055029	46269	107925	0	0	8204	567794	0	0
2024-10-10 01:40:47			0	37926	0	0	0	21592	20160	162723	27348	1055011	46268	107928	0	0	8204	568268	0	0
2024-10-10 01:41:47			0	37940	0	0	0	21589	20170	162563	27180	1055002	46280	107927	0	0	8205	567674	0	0
2024-10-10 01:42:47			0	37956	0	0	0	21597	20160	162539	27029	1054993	46258	107930	0	0	8205	567063	0	0
2024-10-10 01:43:47			0	37958	0	0	0	21592	20170	162471	26963	1054975	46258	107928	0	0	8206	566952	0	0
2024-10-10 01:44:47			0	37965	0	0	0	21592	20170	162451	27204	1055002	46269	107928	0	0	8206	566671	0	0
2024-10-10 01:45:47			0	37960	0	0	0	21597	20160	162467	27310	1054966	46280	107930	0	0	8206	566903	0	0
2024-10-10 01:46:47			0	37957	0	0	0	21581	20160	162619	26987	1054984	46257	107924	0	0	8206	567023	0	0
2024-10-10 01:47:47			0	37962	0	0	0	21594	20170	162611	27393	1054975	46269	107929	0	0	8206	566791	0	0
2024-10-10 01:48:47			0	37944	0	0	0	21589	20160	162635	27156	1055020	46291	107927	0	0	8205	567545	0	0
2024-10-10 01:49:47			0	37945	0	0	0	21589	20160	162563	26981	1054966	46269	107927	0	0	8205	567505	0	0
2024-10-10 01:50:47			0	37916	0	0	0	21584	20160	162643	26918	1054957	46279	107925	0	0	8203	568669	0	0
2024-10-10 01:51:47			0	37936	0	0	0	21594	20160	162699	27130	1054966	46269	107929	0	0	8204	567866	0	0
2024-10-10 01:52:47			0	37940	0	0	0	21586	20160	162531	27026	1054984	46290	107926	0	0	8205	567705	0	0
2024-10-10 01:53:47			0	37929	0	0	0	21584	20150	162683	27293	1055002	46278	107925	0	0	8204	568178	0	0
2024-10-10 01:54:47			0	37957	0	0	0	21599	20160	162531	27166	1055011	46279	107931	0	0	8205	567023	0	0
2024-10-10 01:55:47			0	37975	0	0	0	21594	20150	162567	27322	1054949	46278	107929	0	0	8206	566333	0	0
2024-10-10 01:56:47			0	37999	0	0	0	21599	20150	162423	27180	1054975	46267	107931	0	0	8208	565371	0	0
2024-10-10 01:57:47			0	37994	0	0	0	21594	20170	162427	27112	1055002	46269	107929	0	0	8208	565509	0	0
2024-10-10 01:58:47			0	37987	0	0	0	21597	20160	162463	27048	1054984	46268	107930	0	0	8207	565821	0	0
2024-10-10 01:59:47			0	37993	0	0	0	21594	20160	162371	27105	1055020	46258	107929	0	0	8208	565580	0	0
2024-10-10 02:00:47			0	37976	0	0	0	21589	20160	162307	27168	1055037	46279	107927	0	0	8207	566261	0	0
2024-10-10 02:01:47			0	37997	0	0	0	21586	20160	162491	26757	1054966	46269	107926	0	0	8208	565420	0	0
2024-10-10 02:02:47			0	37984	0	0	0	21597	20160	162471	27227	1054966	46280	107930	0	0	8207	565941	0	0
2024-10-10 02:03:47			0	37973	0	0	0	21594	20160	162495	27248	1055011	46279	107929	0	0	8206	566382	0	0
2024-10-10 02:04:47			0	37998	0	0	0	21597	20160	162483	27395	1055020	46269	107930	0	0	8208	565380	0	0
2024-10-10 02:05:47			0	37987	0	0	0	21589	20160	162487	27253	1055037	46257	107927	0	0	8207	565821	0	0
2024-10-10 02:06:47			0	37994	0	0	0	21586	20150	162439	27372	1054975	46256	107926	0	0	8208	565572	0	0
2024-10-10 02:07:47			0	37980	0	0	0	21597	20150	162495	27364	1055002	46278	107930	0	0	8207	566132	0	0
2024-10-10 02:08:47			0	37992	0	0	0	21597	20160	162455	27114	1055046	46269	107930	0	0	8207	565620	0	0
2024-10-10 02:09:47			0	37986	0	0	0	21597	20160	162459	27324	1055011	46279	107930	0	0	8207	565861	0	0
2024-10-10 02:10:47			0	38001	0	0	0	21592	20160	162583	27157	1054931	46279	107928	0	0	8208	565260	0	0
2024-10-10 02:11:47			0	37997	0	0	0	21610	20160	162479	27307	1055064	46268	107935	0	0	8207	565420	0	0
2024-10-10 02:12:47			0	38008	0	0	0	21597	20160	162419	27114	1055037	46268	107930	0	0	8208	564980	0	0
2024-10-10 02:13:47			0	37997	0	0	0	21592	20150	162311	26887	1055002	46256	107928	0	0	8208	565451	0	0
2024-10-10 02:14:47			0	37998	0	0	0	21597	20160	162315	26876	1054984	46279	107930	0	0	8208	565380	0	0
2024-10-10 02:15:47			0	37996	0	0	0	21592	20160	162391	27211	1055064	46279	107928	0	0	8208	565460	0	0
2024-10-10 02:16:47			0	37991	0	0	0	21592	20170	162439	27046	1055002	46269	107928	0	0	8207	565629	0	0
2024-10-10 02:17:47			0	38014	0	0	0	21602	20160	162451	27064	1054957	46268	107932	0	0	8209	564740	0	0
2024-10-10 02:18:47			0	38011	0	0	0	21602	20160	162355	27185	1055011	46290	107932	0	0	8208	564860	0	0
2024-10-10 02:19:47			0	38018	0	0	0	21589	20170	162319	26887	1055082	46291	107927	0	0	8209	564549	0	0
2024-10-10 02:20:47			0	38012	0	0	0	21599	20160	162375	27045	1055073	46269	107931	0	0	8209	564820	0	0
2024-10-10 02:21:47			0	38026	0	0	0	21612	20160	162444	27138	1055046	46269	107936	0	0	8209	564260	0	0
2024-10-10 02:22:47			0	38035	0	0	0	21602	20150	162324	27142	1055046	46267	107932	0	0	8210	563931	0	0
2024-10-10 02:23:47			0	38034	0	0	0	21605	20160	162292	27486	1055073	46269	107933	0	0	8210	563940	0	0
2024-10-10 02:24:47			0	38048	0	0	0	21605	20170	162356	27419	1055135	46280	107933	0	0	8211	563350	0	0
2024-10-10 02:25:47			0	38063	0	0	0	21615	20160	162208	27211	1055064	46279	107937	0	0	8211	562782	0	0
2024-10-10 02:26:47			0	38059	0	0	0	21605	20170	162188	27081	1055064	46270	107933	0	0	8211	562910	0	0
2024-10-10 02:27:47			0	38060	0	0	0	21605	20170	162192	27339	1055064	46270	107933	0	0	8211	562870	0	0
2024-10-10 02:28:47			0	38044	0	0	0	21599	20170	162180	27046	1055055	46280	107931	0	0	8210	563509	0	0
2024-10-10 02:29:47			0	38057	0	0	0	21586	20160	162232	27272	1055046	46269	107926	0	0	8211	563021	0	0
2024-10-10 02:30:47			0	38052	0	0	0	21602	20170	162248	27079	1055117	46270	107932	0	0	8211	563190	0	0
2024-10-10 02:31:47			0	38062	0	0	0	21618	20170	162224	27244	1055029	46269	107938	0	0	8211	562790	0	0
2024-10-10 02:32:47			0	38078	0	0	0	21605	20170	162044	27298	1055117	46291	107933	0	0	8212	562152	0	0
2024-10-10 02:33:47			0	38077	0	0	0	21615	20170	162084	27126	1055117	46281	107937	0	0	8212	562192	0	0
2024-10-10 02:34:47			0	38076	0	0	0	21605	20170	162176	27171	1055091	46303	107933	0	0	8212	562232	0	0
2024-10-10 02:35:47			0	38083	0	0	0	21605	20170	162124	27211	1055064	46281	107933	0	0	8213	561953	0	0
2024-10-10 02:36:47			0	38088	0	0	0	21610	20170	162100	27339	1055064	46281	107935	0	0	8213	561753	0	0
2024-10-10 02:37:47			0	38089	0	0	0	21597	20180	162104	27241	1055073	46281	107930	0	0	8213	561682	0	0
2024-10-10 02:38:47			0	38056	0	0	0	21594	20170	162176	27092	1055082	46280	107929	0	0	8211	563030	0	0
2024-10-10 02:39:47			0	38047	0	0	0	21594	20170	162232	27390	1055170	46270	107929	0	0	8211	563389	0	0
2024-10-10 02:40:47			0	38050	0	0	0	21602	20170	162216	26928	1055029	46280	107932	0	0	8211	563270	0	0
2024-10-10 02:41:47			0	38056	0	0	0	21607	20170	162132	27301	1055055	46269	107934	0	0	8211	563030	0	0
2024-10-10 02:42:47			0	38067	0	0	0	21610	20170	162256	27041	1055029	46248	107935	0	0	8212	562591	0	0
2024-10-10 02:43:47			0	38050	0	0	0	21607	20170	162288	27393	1055002	46269	107934	0	0	8211	563270	0	0
2024-10-10 02:44:47			0	38052	0	0	0	21610	20180	162204	27074	1055073	46291	107935	0	0	8211	563159	0	0
2024-10-10 02:45:47			0	38037	0	0	0	21599	20170	162184	27371	1054984	46259	107931	0	0	8210	563789	0	0
2024-10-10 02:46:47			0	38046	0	0	0	21607	20170	162264	27045	1055082	46280	107934	0	0	8210	563429	0	0
2024-10-10 02:47:47			0	38069	0	0	0	21610	20170	162240	27232	1055135	46291	107935	0	0	8212	562511	0	0
2024-10-10 02:48:47			0	38058	0	0	0	21599	20170	162308	27182	1055144	46281	107931	0	0	8211	562950	0	0
2024-10-10 02:49:47			0	38046	0	0	0	21599	20170	162388	27331	1055144	46281	107931	0	0	8211	563429	0	0
2024-10-10 02:50:47			0	38032	0	0	0	21584	20160	162360	27003	1055046	46280	107925	0	0	8210	564020	0	0
2024-10-10 02:51:47			0	38003	0	0	0	21594	20160	162395	27265	1055073	46269	107929	0	0	8208	565180	0	0
2024-10-10 02:52:47			0	37986	0	0	0	21607	20170	162323	27092	1055055	46280	107934	0	0	8207	565830	0	0
2024-10-10 02:53:47			0	38018	0	0	0	21592	20170	162343	27336	1055144	46249	107928	0	0	8209	564549	0	0
2024-10-10 02:54:47			0	38013	0	0	0	21602	20170	162347	27405	1055082	46269	107932	0	0	8209	564749	0	0
2024-10-10 02:55:47			0	38031	0	0	0	21602	20180	162423	27341	1055020	46281	107932	0	0	8210	563998	0	0
2024-10-10 02:56:47			0	38007	0	0	0	21607	20170	162447	27175	1055144	46281	107934	0	0	8208	564989	0	0
2024-10-10 02:57:47			0	38002	0	0	0	21602	20170	162327	27237	1055082	46269	107932	0	0	8208	565189	0	0
2024-10-10 02:58:47			0	37997	0	0	0	21602	20180	162399	27093	1055073	46270	107932	0	0	8208	565358	0	0
2024-10-10 02:59:47			0	38002	0	0	0	21597	20180	162379	26916	1055073	46281	107930	0	0	8208	565158	0	0
2024-10-10 03:00:47			0	38002	0	0	0	21605	20180	162399	27196	1055082	46271	107933	0	0	8208	565158	0	0
2024-10-10 03:01:47			0	38000	0	0	0	21597	20170	162359	27383	1055055	46291	107930	0	0	8208	565269	0	0
2024-10-10 03:02:47			0	37996	0	0	0	21607	20160	162407	27098	1055073	46269	107934	0	0	8207	565460	0	0
2024-10-10 03:03:47			0	37989	0	0	0	21607	20170	162303	27055	1055091	46270	107934	0	0	8207	565709	0	0
2024-10-10 03:04:47			0	38017	0	0	0	21599	20170	162283	27206	1055161	46291	107931	0	0	8209	564589	0	0
2024-10-10 03:05:47			0	37998	0	0	0	21592	20160	162447	26961	1055046	46269	107928	0	0	8208	565380	0	0
2024-10-10 03:06:47			0	37988	0	0	0	21592	20160	162447	26953	1054993	46280	107928	0	0	8207	565781	0	0
2024-10-10 03:07:47			0	37989	0	0	0	21599	20170	162535	27246	1055135	46269	107931	0	0	8207	565709	0	0
2024-10-10 03:08:47			0	37986	0	0	0	21607	20160	162471	27289	1055037	46268	107934	0	0	8207	565861	0	0
2024-10-10 03:09:47			0	37996	0	0	0	21612	20160	162435	27265	1055073	46291	107936	0	0	8207	565460	0	0
2024-10-10 03:10:47			0	38004	0	0	0	21607	20170	162299	27268	1055029	46280	107934	0	0	8208	565109	0	0
2024-10-10 03:11:47			0	38013	0	0	0	21592	20180	162443	26802	1055073	46281	107928	0	0	8209	564718	0	0
2024-10-10 03:12:47			0	37995	0	0	0	21589	20180	162355	27059	1055046	46259	107927	0	0	8208	565438	0	0
2024-10-10 03:13:47			0	37991	0	0	0	21592	20160	162423	27019	1054966	46280	107928	0	0	8207	565660	0	0
2024-10-10 03:14:47			0	37977	0	0	0	21584	20160	162495	27289	1055020	46291	107925	0	0	8207	566221	0	0
2024-10-10 03:15:47			0	37966	0	0	0	21594	20150	162595	27414	1055019	46256	107929	0	0	8206	566694	0	0
2024-10-10 03:16:47			0	37961	0	0	0	21592	20160	162627	27156	1055020	46291	107928	0	0	8206	566863	0	0
2024-10-10 03:17:47			0	37962	0	0	0	21592	20160	162675	27396	1055064	46279	107928	0	0	8206	566823	0	0
2024-10-10 03:18:47			0	37979	0	0	0	21599	20170	162575	27241	1055029	46280	107931	0	0	8207	566110	0	0
2024-10-10 03:19:47			0	38000	0	0	0	21594	20160	162543	27026	1055011	46279	107929	0	0	8208	565300	0	0
2024-10-10 03:20:47			0	37990	0	0	0	21589	20160	162491	27081	1055037	46279	107927	0	0	8207	565701	0	0
2024-10-10 03:21:47			0	37976	0	0	0	21584	20170	162519	26941	1055055	46258	107925	0	0	8207	566230	0	0
2024-10-10 03:22:47			0	37967	0	0	0	21581	20160	162527	27225	1054984	46247	107924	0	0	8206	566622	0	0
2024-10-10 03:23:47			0	37968	0	0	0	21597	20150	162487	27355	1055028	46256	107930	0	0	8206	566613	0	0
2024-10-10 03:24:47			0	37975	0	0	0	21599	20160	162519	27157	1055046	46291	107931	0	0	8206	566302	0	0
2024-10-10 03:25:47			0	37980	0	0	0	21576	20160	162467	27329	1055046	46280	107922	0	0	8207	566101	0	0
2024-10-10 03:26:47			0	37969	0	0	0	21581	20150	162579	27036	1055126	46267	107924	0	0	8206	566573	0	0
2024-10-10 03:27:47			0	37971	0	0	0	21597	20160	162527	27320	1055037	46279	107930	0	0	8206	566462	0	0
2024-10-10 03:28:47			0	37973	0	0	0	21584	20160	162499	27178	1055037	46268	107925	0	0	8207	566382	0	0
2024-10-10 03:29:47			0	37993	0	0	0	21594	20160	162507	27310	1055046	46280	107929	0	0	8208	565580	0	0
2024-10-10 03:30:47			0	37963	0	0	0	21573	20150	162479	27274	1054975	46256	107921	0	0	8206	566814	0	0
2024-10-10 03:31:47			0	37976	0	0	0	21586	20160	162387	27416	1055037	46279	107926	0	0	8207	566261	0	0
2024-10-10 03:32:47			0	37961	0	0	0	21584	20160	162587	27381	1054984	46247	107925	0	0	8206	566863	0	0
2024-10-10 03:33:47			0	37973	0	0	0	21586	20150	162583	27097	1055002	46256	107926	0	0	8206	566413	0	0
2024-10-10 03:34:47			0	37991	0	0	0	21584	20150	162447	26913	1055028	46278	107925	0	0	8208	565692	0	0
2024-10-10 03:35:47			0	37987	0	0	0	21586	20160	162467	27215	1055046	46291	107926	0	0	8207	565821	0	0
2024-10-10 03:36:47			0	37992	0	0	0	21589	20160	162439	27180	1055046	46280	107927	0	0	8208	565620	0	0
2024-10-10 03:37:47			0	37993	0	0	0	21592	20160	162483	27260	1054984	46257	107928	0	0	8208	565580	0	0
2024-10-10 03:38:47			0	38007	0	0	0	21581	20140	162503	27076	1054948	46277	107924	0	0	8208	565082	0	0
2024-10-10 03:39:47			0	38012	0	0	0	21586	20150	162491	27436	1054993	46256	107926	0	0	8209	564851	0	0
2024-10-10 03:40:47			0	38012	0	0	0	21592	20160	162367	26994	1055037	46268	107928	0	0	8209	564820	0	0
2024-10-10 03:41:47			0	38013	0	0	0	21589	20160	162343	27102	1055046	46280	107927	0	0	8209	564780	0	0
2024-10-10 03:42:47			0	38014	0	0	0	21594	20160	162295	27275	1055011	46268	107929	0	0	8209	564740	0	0
2024-10-10 03:43:47			0	38034	0	0	0	21592	20150	162240	26987	1055055	46256	107928	0	0	8210	563971	0	0
2024-10-10 03:44:47			0	38032	0	0	0	21581	20160	162315	27267	1055046	46269	107924	0	0	8210	564020	0	0
2024-10-10 03:45:47			0	38013	0	0	0	21586	20150	162247	27126	1054966	46267	107926	0	0	8209	564811	0	0
2024-10-10 03:46:47			0	38013	0	0	0	21586	20160	162439	27282	1055020	46269	107926	0	0	8209	564780	0	0
2024-10-10 03:47:47			0	38022	0	0	0	21581	20150	162343	27498	1054949	46267	107924	0	0	8209	564451	0	0
2024-10-10 03:48:47			0	38002	0	0	0	21584	20140	162443	26961	1054984	46256	107925	0	0	8208	565283	0	0
2024-10-10 03:49:47			0	38006	0	0	0	21599	20150	162291	27145	1055055	46267	107931	0	0	8208	565091	0	0
2024-10-10 03:50:47			0	38033	0	0	0	21589	20160	162300	27128	1055073	46302	107927	0	0	8210	563980	0	0
2024-10-10 03:51:47			0	38034	0	0	0	21589	20160	162284	27182	1055037	46279	107927	0	0	8210	563940	0	0
2024-10-10 03:52:47			0	38050	0	0	0	21576	20160	162176	27048	1055011	46268	107922	0	0	8211	563301	0	0
2024-10-10 03:53:47			0	38037	0	0	0	21584	20160	162264	27031	1055011	46268	107925	0	0	8210	563820	0	0
2024-10-10 03:54:47			0	38060	0	0	0	21594	20160	162152	27168	1055011	46257	107929	0	0	8211	562901	0	0
2024-10-10 03:55:47			0	38064	0	0	0	21584	20160	162204	26996	1055073	46269	107925	0	0	8212	562742	0	0
2024-10-10 03:56:47			0	38059	0	0	0	21592	20160	162120	26717	1055037	46268	107928	0	0	8211	562941	0	0
2024-10-10 03:57:47			0	38060	0	0	0	21586	20150	162144	26800	1055028	46267	107926	0	0	8212	562932	0	0
2024-10-10 03:58:47			0	38077	0	0	0	21594	20160	162124	26899	1055020	46269	107929	0	0	8212	562223	0	0
2024-10-10 03:59:47			0	38063	0	0	0	21586	20160	162128	26939	1055011	46268	107926	0	0	8212	562782	0	0
2024-10-10 04:00:47			0	38096	0	0	0	21589	20160	162056	26899	1055037	46279	107927	0	0	8214	561465	0	0
2024-10-10 04:01:47			0	38074	0	0	0	21586	20160	162140	27203	1055090	46257	107926	0	0	8212	562343	0	0
2024-10-10 04:02:47			0	38060	0	0	0	21586	20150	162164	27123	1055028	46278	107926	0	0	8212	562932	0	0
2024-10-10 04:03:47			0	38085	0	0	0	21597	20160	162124	26975	1055037	46279	107930	0	0	8213	561904	0	0
2024-10-10 04:04:47			0	38099	0	0	0	21599	20150	162020	27384	1055055	46278	107931	0	0	8214	561377	0	0
2024-10-10 04:05:47			0	38109	0	0	0	21605	20150	162040	26897	1055028	46278	107933	0	0	8214	560978	0	0
2024-10-10 04:06:47			0	38087	0	0	0	21584	20170	162024	27293	1055029	46269	107925	0	0	8213	561793	0	0
2024-10-10 04:07:47			0	38092	0	0	0	21597	20170	162116	27161	1055029	46258	107930	0	0	8213	561594	0	0
2024-10-10 04:08:47			0	38112	0	0	0	21597	20160	162068	27360	1055037	46279	107930	0	0	8214	560828	0	0
2024-10-10 04:09:47			0	38114	0	0	0	21599	20160	162048	27182	1055117	46290	107931	0	0	8215	560748	0	0
2024-10-10 04:10:47			0	38107	0	0	0	21584	20150	161960	27301	1054975	46289	107925	0	0	8214	561058	0	0
2024-10-10 04:11:47			0	38097	0	0	0	21586	20160	162016	27320	1055011	46247	107926	0	0	8214	561425	0	0
2024-10-10 04:12:47			0	38104	0	0	0	21599	20170	161984	27227	1055055	46269	107931	0	0	8214	561115	0	0
2024-10-10 04:13:47			0	38126	0	0	0	21594	20160	161908	27270	1054966	46269	107929	0	0	8215	560270	0	0
2024-10-10 04:14:47			0	38116	0	0	0	21597	20170	161972	27305	1055055	46269	107930	0	0	8215	560637	0	0
2024-10-10 04:15:47			0	38127	0	0	0	21599	20160	162016	27197	1055037	46268	107931	0	0	8215	560230	0	0
2024-10-10 04:16:47			0	38122	0	0	0	21599	20150	161972	27093	1055019	46267	107931	0	0	8215	560460	0	0
2024-10-10 04:17:47			0	38121	0	0	0	21581	20150	162024	27015	1055002	46289	107924	0	0	8215	560500	0	0
2024-10-10 04:18:47			0	38115	0	0	0	21584	20160	162048	27215	1054993	46258	107925	0	0	8215	560708	0	0
2024-10-10 04:19:47			0	38093	0	0	0	21589	20150	162108	27223	1054975	46267	107927	0	0	8213	561616	0	0
2024-10-10 04:20:47			0	38107	0	0	0	21579	20160	162148	27140	1054984	46279	107923	0	0	8214	561027	0	0
2024-10-10 04:21:47			0	38094	0	0	0	21586	20160	162136	27118	1054984	46279	107926	0	0	8214	561545	0	0
2024-10-10 04:22:47			0	38101	0	0	0	21597	20160	162028	27131	1055117	46290	107930	0	0	8214	561266	0	0
2024-10-10 04:23:47			0	38111	0	0	0	21610	20170	162092	26979	1055055	46269	107935	0	0	8214	560837	0	0
2024-10-10 04:24:47			0	38139	0	0	0	21592	20160	162008	27227	1055126	46280	107928	0	0	8216	559753	0	0
2024-10-10 04:25:47			0	38143	0	0	0	21607	20160	161944	27192	1055037	46279	107934	0	0	8216	559594	0	0
2024-10-10 04:26:47			0	38161	0	0	0	21589	20160	161932	27402	1055117	46279	107927	0	0	8217	558878	0	0
2024-10-10 04:27:47			0	38145	0	0	0	21602	20160	161972	27561	1055046	46280	107932	0	0	8216	559514	0	0
2024-10-10 04:28:47			0	38140	0	0	0	21594	20160	161968	27086	1055011	46268	107929	0	0	8216	559713	0	0
2024-10-10 04:29:47			0	38116	0	0	0	21586	20160	161952	27230	1054984	46268	107926	0	0	8215	560668	0	0
2024-10-10 04:30:47			0	38108	0	0	0	21599	20160	161976	27701	1055011	46268	107931	0	0	8214	560987	0	0
2024-10-10 04:31:47			0	38116	0	0	0	21599	20150	162032	27301	1055019	46278	107931	0	0	8215	560699	0	0
2024-10-10 04:32:47			0	38143	0	0	0	21605	20150	161932	27367	1055028	46278	107933	0	0	8216	559624	0	0
2024-10-10 04:33:47			0	38111	0	0	0	21594	20150	162016	26981	1055002	46278	107929	0	0	8214	560898	0	0
2024-10-10 04:34:47			0	38119	0	0	0	21597	20160	162016	27407	1055037	46279	107930	0	0	8215	560549	0	0
2024-10-10 04:35:47			0	38115	0	0	0	21594	20160	162012	27199	1055064	46268	107929	0	0	8215	560708	0	0
2024-10-10 04:36:47			0	38126	0	0	0	21589	20160	161932	27036	1054984	46279	107927	0	0	8215	560270	0	0
2024-10-10 04:37:47			0	38132	0	0	0	21592	20160	161932	27289	1055064	46290	107928	0	0	8216	560031	0	0
2024-10-10 04:38:47			0	38133	0	0	0	21589	20160	162000	27135	1055020	46258	107927	0	0	8216	559992	0	0
2024-10-10 04:39:47			0	38115	0	0	0	21589	20170	162080	27088	1055082	46291	107927	0	0	8215	560677	0	0
2024-10-10 04:40:47			0	38105	0	0	0	21597	20160	162080	27244	1055020	46269	107930	0	0	8214	561107	0	0
2024-10-10 04:41:47			0	38115	0	0	0	21594	20160	162116	27072	1055073	46280	107929	0	0	8215	560708	0	0
2024-10-10 04:42:47			0	38123	0	0	0	21602	20160	162072	27100	1055046	46280	107932	0	0	8215	560389	0	0
2024-10-10 04:43:47			0	38113	0	0	0	21592	20160	162092	27057	1054993	46280	107928	0	0	8215	560788	0	0
2024-10-10 04:44:47			0	38131	0	0	0	21599	20160	162032	27050	1055046	46291	107931	0	0	8216	560071	0	0
2024-10-10 04:45:47			0	38124	0	0	0	21594	20160	162116	27419	1055064	46290	107929	0	0	8215	560350	0	0
2024-10-10 04:46:47			0	38122	0	0	0	21599	20160	162064	26991	1055117	46268	107931	0	0	8215	560429	0	0
2024-10-10 04:47:47			0	38108	0	0	0	21589	20170	162040	27320	1055055	46280	107927	0	0	8214	560956	0	0
2024-10-10 04:48:47			0	38101	0	0	0	21581	20170	161948	27149	1055055	46269	107924	0	0	8214	561235	0	0
2024-10-10 04:49:47			0	38110	0	0	0	21586	20150	162152	27350	1055028	46267	107926	0	0	8215	560938	0	0
2024-10-10 04:50:47			0	38101	0	0	0	21579	20160	162100	27277	1055011	46279	107923	0	0	8214	561266	0	0
2024-10-10 04:51:47			0	38099	0	0	0	21586	20150	162272	27206	1055019	46278	107926	0	0	8214	561377	0	0
2024-10-10 04:52:47			0	38085	0	0	0	21584	20160	162196	27203	1055090	46257	107925	0	0	8213	561904	0	0
2024-10-10 04:53:47			0	38091	0	0	0	21599	20160	162100	27220	1055046	46280	107931	0	0	8213	561665	0	0
2024-10-10 04:54:47			0	38108	0	0	0	21586	20160	162076	27260	1055020	46269	107926	0	0	8214	560987	0	0
2024-10-10 04:55:47			0	38088	0	0	0	21579	20160	162116	27346	1054993	46280	107923	0	0	8213	561784	0	0
2024-10-10 04:56:47			0	38104	0	0	0	21605	20150	162104	27367	1055019	46267	107933	0	0	8214	561177	0	0
2024-10-10 04:57:47			0	38096	0	0	0	21594	20150	162088	27317	1055028	46278	107929	0	0	8214	561496	0	0
2024-10-10 04:58:47			0	38104	0	0	0	21586	20160	162000	27048	1055020	46291	107926	0	0	8214	561146	0	0
2024-10-10 04:59:47			0	38107	0	0	0	21599	20150	162036	27085	1055019	46267	107931	0	0	8214	561058	0	0
2024-10-10 05:00:47			0	38104	0	0	0	21594	20160	162036	27215	1055099	46258	107929	0	0	8214	561146	0	0
2024-10-10 05:01:47			0	38112	0	0	0	21592	20160	162024	27265	1055153	46269	107928	0	0	8215	560828	0	0
2024-10-10 05:02:47			0	38102	0	0	0	21594	20160	162036	27241	1055117	46290	107929	0	0	8214	561226	0	0
2024-10-10 05:03:47			0	38087	0	0	0	21579	20150	162152	27102	1055002	46278	107923	0	0	8213	561855	0	0
2024-10-10 05:04:47			0	38062	0	0	0	21586	20160	162224	27204	1055037	46279	107926	0	0	8212	562822	0	0
2024-10-10 05:05:47			0	38090	0	0	0	21599	20160	162228	27270	1055046	46269	107931	0	0	8213	561704	0	0
2024-10-10 05:06:47			0	38071	0	0	0	21592	20150	162248	26935	1055081	46278	107928	0	0	8212	562493	0	0
2024-10-10 05:07:47			0	38087	0	0	0	21592	20160	162300	27370	1055153	46269	107928	0	0	8213	561824	0	0
2024-10-10 05:08:47			0	38083	0	0	0	21594	20150	162112	26989	1055002	46278	107929	0	0	8213	562015	0	0
2024-10-10 05:09:47			0	38087	0	0	0	21592	20160	162172	27272	1055037	46290	107928	0	0	8213	561824	0	0
2024-10-10 05:10:47			0	38097	0	0	0	21592	20160	162044	26975	1055037	46268	107928	0	0	8214	561425	0	0
2024-10-10 05:11:47			0	38090	0	0	0	21584	20170	162184	27140	1055161	46280	107925	0	0	8213	561673	0	0
2024-10-10 05:12:47			0	38071	0	0	0	21581	20160	162188	27083	1055064	46268	107924	0	0	8212	562462	0	0
2024-10-10 05:13:47			0	38070	0	0	0	21581	20170	162260	27464	1055029	46280	107924	0	0	8212	562471	0	0
2024-10-10 05:14:47			0	38058	0	0	0	21584	20160	162164	26960	1054984	46268	107925	0	0	8212	562981	0	0
2024-10-10 05:15:47			0	38078	0	0	0	21586	20160	162212	27293	1055064	46268	107926	0	0	8213	562183	0	0
2024-10-10 05:16:47			0	38051	0	0	0	21586	20160	162260	27357	1055099	46280	107926	0	0	8211	563261	0	0
2024-10-10 05:17:47			0	38072	0	0	0	21579	20160	162396	27050	1055020	46269	107923	0	0	8212	562422	0	0
2024-10-10 05:18:47			0	38079	0	0	0	21586	20160	162320	27281	1055020	46280	107926	0	0	8213	562143	0	0
2024-10-10 05:19:47			0	38051	0	0	0	21581	20160	162268	27041	1055046	46280	107924	0	0	8211	563261	0	0
2024-10-10 05:20:47			0	38053	0	0	0	21592	20150	162364	27124	1055002	46278	107928	0	0	8211	563212	0	0
2024-10-10 05:21:47			0	38065	0	0	0	21589	20160	162220	26993	1055037	46279	107927	0	0	8212	562702	0	0
2024-10-10 05:22:47			0	38084	0	0	0	21594	20160	162264	26981	1054984	46290	107929	0	0	8213	561944	0	0
2024-10-10 05:23:47			0	38054	0	0	0	21579	20170	162360	26882	1055055	46313	107923	0	0	8211	563110	0	0
2024-10-10 05:24:47			0	38040	0	0	0	21584	20150	162328	27083	1055002	46278	107925	0	0	8210	563731	0	0
2024-10-10 05:25:47			0	38039	0	0	0	21581	20150	162288	26960	1055019	46289	107924	0	0	8210	563771	0	0
2024-10-10 05:26:47			0	38026	0	0	0	21584	20150	162283	27571	1054975	46267	107925	0	0	8210	564291	0	0
2024-10-10 05:27:47			0	38030	0	0	0	21581	20160	162407	27331	1054957	46290	107924	0	0	8210	564100	0	0
2024-10-10 05:28:47			0	38020	0	0	0	21581	20150	162272	27313	1054966	46267	107924	0	0	8209	564531	0	0
2024-10-10 05:29:47			0	38026	0	0	0	21573	20150	162267	26923	1054993	46267	107921	0	0	8210	564291	0	0
2024-10-10 05:30:47			0	38032	0	0	0	21571	20160	162468	26920	1055117	46279	107920	0	0	8210	564020	0	0
2024-10-10 05:31:47			0	38019	0	0	0	21573	20150	162431	26986	1055028	46289	107921	0	0	8209	564571	0	0
2024-10-10 05:32:47			0	37999	0	0	0	21584	20150	162451	27194	1055002	46267	107925	0	0	8208	565371	0	0
2024-10-10 05:33:47			0	38014	0	0	0	21581	20150	162387	27388	1054993	46278	107924	0	0	8209	564771	0	0
2024-10-10 05:34:47			0	38013	0	0	0	21573	20140	162455	27286	1054975	46266	107921	0	0	8209	564842	0	0
2024-10-10 05:35:47			0	38016	0	0	0	21576	20150	162403	26991	1054966	46278	107922	0	0	8209	564691	0	0
2024-10-10 05:36:47			0	38007	0	0	0	21589	20140	162479	27137	1055001	46277	107927	0	0	8208	565082	0	0
2024-10-10 05:37:47			0	38017	0	0	0	21579	20140	162375	27048	1055028	46266	107923	0	0	8209	564682	0	0
2024-10-10 05:38:47			0	38016	0	0	0	21581	20150	162419	27258	1054993	46278	107924	0	0	8209	564691	0	0
2024-10-10 05:39:47			0	37999	0	0	0	21573	20150	162427	27265	1054993	46267	107921	0	0	8208	565371	0	0
2024-10-10 05:40:47			0	38005	0	0	0	21573	20150	162399	27135	1055108	46278	107921	0	0	8209	565131	0	0
2024-10-10 05:41:47			0	37987	0	0	0	21571	20140	162495	27260	1055001	46277	107920	0	0	8207	565883	0	0
2024-10-10 05:42:47			0	38006	0	0	0	21573	20140	162451	27646	1054948	46255	107921	0	0	8209	565122	0	0
2024-10-10 05:43:47			0	38007	0	0	0	21581	20150	162383	27343	1055002	46278	107924	0	0	8209	565051	0	0
2024-10-10 05:44:47			0	38003	0	0	0	21579	20150	162455	27251	1055019	46289	107923	0	0	8208	565211	0	0
2024-10-10 05:45:47			0	37990	0	0	0	21576	20150	162459	27339	1055019	46267	107922	0	0	8208	565732	0	0
2024-10-10 05:46:47			0	37990	0	0	0	21568	20150	162363	27289	1055002	46278	107919	0	0	8208	565732	0	0
2024-10-10 05:47:47			0	37981	0	0	0	21571	20140	162515	27142	1054895	46277	107920	0	0	8207	566124	0	0
2024-10-10 05:48:47			0	37982	0	0	0	21566	20130	162531	27280	1054939	46265	107918	0	0	8207	566115	0	0
2024-10-10 05:49:47			0	37984	0	0	0	21571	20150	162543	27092	1054966	46278	107920	0	0	8207	565972	0	0
2024-10-10 05:50:47			0	37983	0	0	0	21568	20130	162491	27059	1054966	46265	107919	0	0	8207	566075	0	0
2024-10-10 05:51:47			0	37980	0	0	0	21571	20130	162531	27521	1054984	46287	107920	0	0	8207	566195	0	0
2024-10-10 05:52:47			0	37983	0	0	0	21576	20140	162595	27358	1054948	46255	107922	0	0	8207	566043	0	0
2024-10-10 05:53:47			0	37960	0	0	0	21571	20130	162587	27346	1054966	46276	107920	0	0	8206	566997	0	0
2024-10-10 05:54:47			0	37965	0	0	0	21571	20130	162603	27376	1054939	46254	107920	0	0	8206	566796	0	0
2024-10-10 05:55:47			0	37972	0	0	0	21571	20140	162607	27265	1054948	46288	107920	0	0	8207	566484	0	0
2024-10-10 05:56:47			0	37977	0	0	0	21573	20150	162535	26996	1054993	46289	107921	0	0	8207	566253	0	0
2024-10-10 05:57:47			0	37971	0	0	0	21571	20140	162575	27104	1054975	46266	107920	0	0	8207	566524	0	0
2024-10-10 05:58:47			0	37951	0	0	0	21568	20140	162639	27114	1054895	46266	107919	0	0	8205	567327	0	0
2024-10-10 05:59:47			0	37958	0	0	0	21558	20140	162603	27218	1054922	46266	107915	0	0	8206	567046	0	0
2024-10-10 06:00:47			0	37954	0	0	0	21555	20130	162747	27310	1054957	46276	107914	0	0	8206	567238	0	0
2024-10-10 06:01:47			0	37950	0	0	0	21561	20130	162639	27429	1054957	46276	107916	0	0	8205	567398	0	0
2024-10-10 06:02:47			0	37962	0	0	0	21566	20130	162715	27324	1054939	46244	107918	0	0	8206	566917	0	0
2024-10-10 06:03:47			0	37953	0	0	0	21563	20130	162679	27313	1054913	46276	107917	0	0	8206	567278	0	0
2024-10-10 06:04:47			0	37947	0	0	0	21573	20130	162643	26864	1054886	46287	107921	0	0	8205	567518	0	0
2024-10-10 06:05:47			0	37961	0	0	0	21571	20150	162563	27322	1054913	46267	107920	0	0	8206	566894	0	0
2024-10-10 06:06:47			0	37955	0	0	0	21571	20130	162559	27067	1054939	46287	107920	0	0	8206	567197	0	0
2024-10-10 06:07:47			0	37971	0	0	0	21566	20140	162587	27616	1054948	46244	107918	0	0	8207	566524	0	0
2024-10-10 06:08:47			0	37952	0	0	0	21563	20130	162647	27105	1054877	46276	107917	0	0	8206	567318	0	0
2024-10-10 06:09:47			0	37953	0	0	0	21566	20130	162643	27239	1054939	46254	107918	0	0	8206	567278	0	0
2024-10-10 06:10:47			0	37941	0	0	0	21561	20130	162775	27253	1054913	46287	107916	0	0	8205	567759	0	0
2024-10-10 06:11:47			0	37944	0	0	0	21561	20140	162791	27187	1054895	46244	107916	0	0	8205	567607	0	0
2024-10-10 06:12:47			0	37921	0	0	0	21558	20130	162871	27182	1054930	46287	107915	0	0	8204	568562	0	0
2024-10-10 06:13:47			0	37917	0	0	0	21553	20130	162867	27197	1054877	46276	107913	0	0	8204	568723	0	0
2024-10-10 06:14:47			0	37910	0	0	0	21566	20130	162895	27074	1054904	46276	107918	0	0	8203	569005	0	0
2024-10-10 06:15:47			0	37899	0	0	0	21550	20130	162947	27215	1054904	46265	107912	0	0	8203	569447	0	0
2024-10-10 06:16:47			0	37898	0	0	0	21553	20130	162859	27457	1054904	46254	107913	0	0	8202	569487	0	0
2024-10-10 06:17:47			0	37897	0	0	0	21558	20130	162939	27209	1054877	46254	107915	0	0	8202	569527	0	0
2024-10-10 06:18:47			0	37902	0	0	0	21558	20130	162931	27112	1054957	46254	107915	0	0	8203	569326	0	0
2024-10-10 06:19:47			0	37903	0	0	0	21555	20130	162775	27241	1054930	46276	107914	0	0	8203	569286	0	0
2024-10-10 06:20:47			0	37901	0	0	0	21555	20120	162851	27235	1054895	46276	107914	0	0	8203	569398	0	0
2024-10-10 06:21:47			0	37881	0	0	0	21550	20120	163031	27241	1054859	46253	107912	0	0	8201	570203	0	0
2024-10-10 06:22:47			0	37859	0	0	0	21545	20130	162927	27313	1054957	46254	107910	0	0	8200	571057	0	0
2024-10-10 06:23:47			0	37873	0	0	0	21548	20120	162891	27280	1054913	46253	107911	0	0	8201	570525	0	0
2024-10-10 06:24:47			0	37851	0	0	0	21550	20120	162987	27124	1054948	46265	107912	0	0	8200	571411	0	0
2024-10-10 06:25:47			0	37864	0	0	0	21558	20130	162971	27268	1054904	46265	107915	0	0	8200	570856	0	0
2024-10-10 06:26:47			0	37890	0	0	0	21555	20120	162911	27377	1054886	46253	107914	0	0	8202	569840	0	0
2024-10-10 06:27:47			0	37882	0	0	0	21558	20120	162899	26982	1054886	46264	107915	0	0	8201	570162	0	0
2024-10-10 06:28:47			0	37896	0	0	0	21561	20120	163019	27057	1054895	46265	107916	0	0	8202	569599	0	0
2024-10-10 06:29:47			0	37896	0	0	0	21550	20120	162955	27001	1054833	46275	107912	0	0	8202	569599	0	0
2024-10-10 06:30:47			0	37889	0	0	0	21553	20110	162879	27491	1054850	46263	107913	0	0	8202	569912	0	0
2024-10-10 06:31:47			0	37885	0	0	0	21545	20110	162915	27294	1054842	46274	107910	0	0	8202	570073	0	0
2024-10-10 06:32:47			0	37878	0	0	0	21550	20120	162971	27128	1054895	46265	107912	0	0	8201	570324	0	0
2024-10-10 06:33:47			0	37869	0	0	0	21550	20110	163003	27189	1054877	46263	107912	0	0	8201	570717	0	0
2024-10-10 06:34:47			0	37886	0	0	0	21550	20120	162939	27254	1054833	46286	107912	0	0	8202	570001	0	0
2024-10-10 06:35:47			0	37866	0	0	0	21553	20120	162935	27189	1054913	46253	107913	0	0	8201	570807	0	0
2024-10-10 06:36:47			0	37870	0	0	0	21545	20120	163007	27213	1054895	46276	107910	0	0	8201	570646	0	0
2024-10-10 06:37:47			0	37883	0	0	0	21542	20120	162951	27255	1054859	46264	107909	0	0	8202	570122	0	0
2024-10-10 06:38:47			0	37851	0	0	0	21550	20120	163127	27126	1054913	46253	107912	0	0	8200	571411	0	0
2024-10-10 06:39:47			0	37857	0	0	0	21553	20100	163147	27196	1054806	46273	107913	0	0	8200	571232	0	0
2024-10-10 06:40:47			0	37863	0	0	0	21553	20110	163123	27150	1054957	46252	107913	0	0	8200	570959	0	0
2024-10-10 06:41:47			0	37862	0	0	0	21548	20120	162991	27322	1054913	46275	107911	0	0	8200	570968	0	0
2024-10-10 06:42:47			0	37867	0	0	0	21548	20110	163019	27140	1054921	46285	107911	0	0	8201	570798	0	0
2024-10-10 06:43:47			0	37859	0	0	0	21550	20120	162923	27251	1054859	46253	107912	0	0	8200	571089	0	0
2024-10-10 06:44:47			0	37848	0	0	0	21545	20110	163007	27277	1054895	46263	107910	0	0	8200	571564	0	0
2024-10-10 06:45:47			0	37859	0	0	0	21542	20110	163011	26876	1054850	46252	107909	0	0	8200	571120	0	0
2024-10-10 06:46:47			0	37855	0	0	0	21542	20120	163139	27521	1054913	46275	107909	0	0	8200	571250	0	0
2024-10-10 06:47:47			0	37852	0	0	0	21548	20110	163039	27107	1054868	46242	107911	0	0	8200	571402	0	0
2024-10-10 06:48:47			0	37851	0	0	0	21542	20110	163027	27305	1054895	46274	107909	0	0	8200	571443	0	0
2024-10-10 06:49:47			0	37855	0	0	0	21540	20110	163107	27381	1054842	46263	107908	0	0	8200	571281	0	0
2024-10-10 06:50:47			0	37831	0	0	0	21550	20110	163171	27225	1054842	46274	107912	0	0	8198	572249	0	0
2024-10-10 06:51:47			0	37834	0	0	0	21542	20100	163131	27390	1054833	46262	107909	0	0	8199	572160	0	0
2024-10-10 06:52:47			0	37822	0	0	0	21537	20110	163239	26949	1054815	46263	107907	0	0	8198	572613	0	0
2024-10-10 06:53:47			0	37835	0	0	0	21542	20110	163291	27677	1054797	46274	107909	0	0	8199	572088	0	0
2024-10-10 06:54:47			0	37802	0	0	0	21529	20110	163215	27185	1054797	46252	107904	0	0	8197	573420	0	0
2024-10-10 06:55:47			0	37814	0	0	0	21540	20100	163247	27098	1054833	46262	107908	0	0	8198	572967	0	0
2024-10-10 06:56:47			0	37815	0	0	0	21540	20110	163247	27201	1054850	46263	107908	0	0	8198	572895	0	0
2024-10-10 06:57:47			0	37806	0	0	0	21537	20110	163295	27000	1054797	46263	107907	0	0	8197	573259	0	0
2024-10-10 06:58:47			0	37818	0	0	0	21540	20110	163223	26961	1054797	46263	107908	0	0	8198	572774	0	0
2024-10-10 06:59:47			0	37806	0	0	0	21532	20100	163255	27079	1054779	46273	107905	0	0	8197	573290	0	0
2024-10-10 07:00:47			0	37804	0	0	0	21537	20100	163183	26960	1054833	46284	107907	0	0	8197	573371	0	0
2024-10-10 07:01:47			0	37783	0	0	0	21542	20100	163335	27345	1054886	46262	107909	0	0	8196	574220	0	0
2024-10-10 07:02:47			0	37807	0	0	0	21542	20100	163327	27029	1054859	46240	107909	0	0	8197	573250	0	0
2024-10-10 07:03:47			0	37804	0	0	0	21535	20110	163323	27204	1054815	46263	107906	0	0	8197	573339	0	0
2024-10-10 07:04:47			0	37807	0	0	0	21537	20100	163303	27481	1054833	46273	107907	0	0	8197	573250	0	0
2024-10-10 07:05:47			0	37811	0	0	0	21527	20100	163327	27377	1054833	46262	107903	0	0	8198	573088	0	0
2024-10-10 07:06:47			0	37812	0	0	0	21529	20100	163403	27116	1054753	46251	107904	0	0	8198	573048	0	0
2024-10-10 07:07:47			0	37804	0	0	0	21529	20100	163291	27308	1054779	46262	107904	0	0	8197	573371	0	0
2024-10-10 07:08:47			0	37788	0	0	0	21535	20110	163295	27220	1054815	46263	107906	0	0	8196	573986	0	0
2024-10-10 07:09:47			0	37791	0	0	0	21522	20100	163239	27229	1054833	46273	107901	0	0	8197	573896	0	0
2024-10-10 07:10:47			0	37805	0	0	0	21532	20090	163403	27249	1054815	46261	107905	0	0	8197	573362	0	0
2024-10-10 07:11:47			0	37786	0	0	0	21535	20100	163387	27284	1054771	46273	107906	0	0	8196	574099	0	0
2024-10-10 07:12:47			0	37772	0	0	0	21532	20100	163383	27284	1054824	46273	107905	0	0	8195	574665	0	0
2024-10-10 07:13:47			0	37782	0	0	0	21532	20100	163423	27062	1054824	46284	107905	0	0	8196	574260	0	0
2024-10-10 07:14:47			0	37761	0	0	0	21524	20100	163411	27369	1054806	46262	107902	0	0	8195	575110	0	0
2024-10-10 07:15:47			0	37775	0	0	0	21532	20110	163435	27235	1054797	46263	107905	0	0	8195	574512	0	0
2024-10-10 07:16:47			0	37771	0	0	0	21522	20090	163419	27138	1054841	46272	107901	0	0	8195	574737	0	0
2024-10-10 07:17:47			0	37776	0	0	0	21532	20100	163375	27287	1054806	46273	107905	0	0	8196	574503	0	0
2024-10-10 07:18:47			0	37784	0	0	0	21532	20100	163371	27445	1054806	46273	107905	0	0	8196	574179	0	0
2024-10-10 07:19:47			0	37772	0	0	0	21527	20090	163371	27374	1054735	46272	107903	0	0	8195	574696	0	0
2024-10-10 07:20:47			0	37769	0	0	0	21522	20100	163391	27377	1054797	46273	107901	0	0	8195	574786	0	0
2024-10-10 07:21:47			0	37755	0	0	0	21522	20100	163395	27275	1054771	46273	107901	0	0	8194	575353	0	0
2024-10-10 07:22:47			0	37774	0	0	0	21535	20100	163459	27623	1054771	46240	107906	0	0	8195	574584	0	0
2024-10-10 07:23:47			0	37784	0	0	0	21519	20100	163451	26930	1054797	46251	107900	0	0	8196	574179	0	0
2024-10-10 07:24:47			0	37774	0	0	0	21527	20090	163387	27024	1054815	46261	107903	0	0	8195	574616	0	0
2024-10-10 07:25:47			0	37768	0	0	0	21532	20100	163355	27182	1054859	46273	107905	0	0	8195	574827	0	0
2024-10-10 07:26:47			0	37771	0	0	0	21529	20100	163467	27180	1054744	46273	107904	0	0	8195	574705	0	0
2024-10-10 07:27:47			0	37785	0	0	0	21527	20100	163471	27118	1054771	46251	107903	0	0	8196	574139	0	0
2024-10-10 07:28:47			0	37779	0	0	0	21535	20090	163507	27168	1054762	46272	107906	0	0	8196	574413	0	0
2024-10-10 07:29:47			0	37766	0	0	0	21527	20100	163519	27327	1054797	46262	107903	0	0	8195	574908	0	0
2024-10-10 07:30:47			0	37759	0	0	0	21524	20100	163471	27294	1054771	46273	107902	0	0	8195	575191	0	0
2024-10-10 07:31:47			0	37768	0	0	0	21529	20090	163543	27280	1054762	46272	107904	0	0	8195	574858	0	0
2024-10-10 07:32:47			0	37760	0	0	0	21527	20100	163583	27083	1054771	46273	107903	0	0	8195	575150	0	0
2024-10-10 07:33:47			0	37753	0	0	0	21527	20090	163475	27452	1054762	46272	107903	0	0	8194	575466	0	0
2024-10-10 07:34:47			0	37764	0	0	0	21532	20100	163443	27230	1054779	46273	107905	0	0	8195	574988	0	0
2024-10-10 07:35:47			0	37750	0	0	0	21527	20090	163499	27086	1054762	46261	107903	0	0	8194	575587	0	0
2024-10-10 07:36:47			0	37771	0	0	0	21532	20100	163475	27270	1054824	46262	107905	0	0	8195	574705	0	0
2024-10-10 07:37:47			0	37755	0	0	0	21524	20100	163515	27381	1054824	46251	107902	0	0	8194	575353	0	0
2024-10-10 07:38:47			0	37760	0	0	0	21527	20090	163499	27171	1054815	46261	107903	0	0	8195	575182	0	0
2024-10-10 07:39:47			0	37762	0	0	0	21529	20090	163499	27034	1054815	46272	107904	0	0	8195	575101	0	0
2024-10-10 07:40:47			0	37745	0	0	0	21519	20090	163459	26998	1054815	46250	107900	0	0	8194	575790	0	0
2024-10-10 07:41:47			0	37750	0	0	0	21527	20110	163463	27265	1054815	46252	107903	0	0	8194	575524	0	0
2024-10-10 07:42:47			0	37759	0	0	0	21522	20100	163519	27251	1054797	46262	107901	0	0	8195	575191	0	0
2024-10-10 07:43:47			0	37749	0	0	0	21527	20090	163475	27227	1054788	46261	107903	0	0	8194	575627	0	0
2024-10-10 07:44:47			0	37754	0	0	0	21524	20100	163499	27157	1054850	46262	107902	0	0	8194	575393	0	0
2024-10-10 07:45:47			0	37758	0	0	0	21527	20090	163455	27332	1054841	46261	107903	0	0	8194	575263	0	0
2024-10-10 07:46:47			0	37775	0	0	0	21524	20100	163447	27464	1054753	46284	107902	0	0	8196	574543	0	0
2024-10-10 07:47:47			0	37765	0	0	0	21527	20100	163495	27190	1054797	46273	107903	0	0	8195	574948	0	0
2024-10-10 07:48:47			0	37771	0	0	0	21522	20080	163519	27043	1054796	46271	107901	0	0	8195	574769	0	0
2024-10-10 07:49:47			0	37770	0	0	0	21516	20090	163491	27203	1054832	46272	107899	0	0	8195	574777	0	0
2024-10-10 07:50:47			0	37766	0	0	0	21527	20090	163519	27258	1054752	46272	107903	0	0	8195	574939	0	0
2024-10-10 07:51:47			0	37782	0	0	0	21522	20090	163543	27293	1054788	46250	107901	0	0	8196	574292	0	0
2024-10-10 07:52:47			0	37753	0	0	0	21522	20090	163595	27065	1054815	46261	107901	0	0	8194	575466	0	0
2024-10-10 07:53:47			0	37736	0	0	0	21527	20090	163567	27386	1054762	46261	107903	0	0	8193	576154	0	0
2024-10-10 07:54:47			0	37755	0	0	0	21522	20100	163659	27053	1054824	46262	107901	0	0	8194	575353	0	0
2024-10-10 07:55:47			0	37753	0	0	0	21524	20090	163591	27067	1054805	46261	107902	0	0	8194	575466	0	0
2024-10-10 07:56:47			0	37750	0	0	0	21524	20090	163651	27128	1054805	46272	107902	0	0	8194	575587	0	0
2024-10-10 07:57:47			0	37745	0	0	0	21522	20100	163575	27137	1054797	46251	107901	0	0	8194	575758	0	0
2024-10-10 07:58:47			0	37746	0	0	0	21529	20080	163491	27369	1054743	46260	107904	0	0	8194	575781	0	0
2024-10-10 07:59:47			0	37743	0	0	0	21527	20090	163659	27383	1054788	46250	107903	0	0	8194	575871	0	0
2024-10-10 08:00:47			0	37736	0	0	0	21527	20080	163555	27027	1054770	46260	107903	0	0	8193	576186	0	0
2024-10-10 08:01:47			0	37764	0	0	0	21522	20100	163655	27050	1054824	46262	107901	0	0	8195	574988	0	0
2024-10-10 08:02:47			0	37753	0	0	0	21511	20080	163467	26970	1054743	46260	107897	0	0	8194	575497	0	0
2024-10-10 08:03:47			0	37767	0	0	0	21527	20100	163459	27142	1054771	46284	107903	0	0	8195	574867	0	0
2024-10-10 08:04:47			0	37758	0	0	0	21522	20090	163535	26920	1054779	46261	107901	0	0	8195	575263	0	0
2024-10-10 08:05:47			0	37768	0	0	0	21522	20080	163419	26870	1054743	46260	107901	0	0	8195	574890	0	0
2024-10-10 08:06:47			0	37780	0	0	0	21527	20100	163423	27249	1054824	46273	107903	0	0	8196	574341	0	0
2024-10-10 08:07:47			0	37781	0	0	0	21527	20090	163435	27209	1054779	46261	107903	0	0	8196	574332	0	0
2024-10-10 08:08:47			0	37782	0	0	0	21527	20090	163367	27010	1054752	46272	107903	0	0	8196	574292	0	0
2024-10-10 08:09:47			0	37795	0	0	0	21527	20090	163359	27112	1054735	46283	107903	0	0	8197	573766	0	0
2024-10-10 08:10:47			0	37773	0	0	0	21522	20090	163383	26993	1054779	46250	107901	0	0	8195	574656	0	0
2024-10-10 08:11:47			0	37769	0	0	0	21514	20080	163455	27008	1054734	46271	107898	0	0	8195	574850	0	0
2024-10-10 08:12:47			0	37778	0	0	0	21519	20090	163399	26956	1054868	46272	107900	0	0	8196	574454	0	0
2024-10-10 08:13:47			0	37793	0	0	0	21527	20080	163419	27358	1054770	46260	107903	0	0	8196	573879	0	0
2024-10-10 08:14:47			0	37786	0	0	0	21527	20080	163339	27307	1054743	46271	107903	0	0	8196	574162	0	0
2024-10-10 08:15:47			0	37792	0	0	0	21516	20090	163323	27229	1054735	46272	107899	0	0	8197	573888	0	0
2024-10-10 08:16:47			0	37782	0	0	0	21527	20090	163447	27149	1054788	46261	107903	0	0	8196	574292	0	0
2024-10-10 08:17:47			0	37799	0	0	0	21527	20090	163239	27203	1054779	46261	107903	0	0	8197	573605	0	0
2024-10-10 08:18:47			0	37812	0	0	0	21529	20080	163351	27594	1054796	46227	107904	0	0	8198	573111	0	0
2024-10-10 08:19:47			0	37832	0	0	0	21529	20080	163255	27255	1054743	46260	107904	0	0	8199	572304	0	0
2024-10-10 08:20:47			0	37839	0	0	0	21532	20090	163267	27327	1054788	46261	107905	0	0	8199	571990	0	0
2024-10-10 08:21:47			0	37858	0	0	0	21545	20090	163071	27281	1054868	46283	107910	0	0	8200	571223	0	0
2024-10-10 08:22:47			0	37892	0	0	0	21542	20090	163031	27124	1054779	46261	107909	0	0	8202	569854	0	0
2024-10-10 08:23:47			0	37897	0	0	0	21535	20080	162907	27118	1054796	46271	107906	0	0	8203	569685	0	0
2024-10-10 08:24:47			0	37897	0	0	0	21537	20090	162879	27066	1054788	46250	107907	0	0	8203	569653	0	0
2024-10-10 08:25:47			0	37941	0	0	0	21537	20100	162799	27334	1054779	46284	107907	0	0	8205	567853	0	0
2024-10-10 08:26:47			0	37929	0	0	0	21542	20090	162819	27502	1054815	46272	107909	0	0	8204	568367	0	0
2024-10-10 08:27:47			0	37944	0	0	0	21540	20100	162711	27298	1054797	46273	107908	0	0	8205	567733	0	0
2024-10-10 08:28:47			0	37942	0	0	0	21540	20100	162755	27362	1054886	46262	107908	0	0	8205	567813	0	0
2024-10-10 08:29:47			0	37945	0	0	0	21522	20100	162699	27312	1054779	46273	107901	0	0	8206	567693	0	0
2024-10-10 08:30:47			0	37921	0	0	0	21527	20090	162843	27493	1054788	46250	107903	0	0	8204	568688	0	0
2024-10-10 08:31:47			0	37916	0	0	0	21532	20100	162839	27346	1054859	46240	107905	0	0	8204	568858	0	0
2024-10-10 08:32:47			0	37923	0	0	0	21532	20100	162779	27369	1054797	46273	107905	0	0	8204	568576	0	0
2024-10-10 08:33:47			0	37931	0	0	0	21529	20090	162795	27538	1054815	46261	107904	0	0	8205	568286	0	0
2024-10-10 08:34:47			0	37939	0	0	0	21532	20100	162823	27298	1054753	46273	107905	0	0	8205	567934	0	0
2024-10-10 08:35:47			0	37916	0	0	0	21535	20090	162911	27339	1054815	46261	107906	0	0	8204	568889	0	0
2024-10-10 08:36:47			0	37926	0	0	0	21519	20100	162723	27171	1054771	46262	107900	0	0	8205	568456	0	0
2024-10-10 08:37:47			0	37942	0	0	0	21529	20100	162787	27008	1054797	46284	107904	0	0	8205	567813	0	0
2024-10-10 08:38:47			0	37940	0	0	0	21529	20090	162715	27315	1054788	46250	107904	0	0	8205	567925	0	0
2024-10-10 08:39:47			0	37960	0	0	0	21524	20090	162759	27124	1054805	46283	107902	0	0	8206	567122	0	0
2024-10-10 08:40:47			0	37963	0	0	0	21553	20100	162651	27462	1054806	46284	107913	0	0	8206	566970	0	0
2024-10-10 08:41:47			0	38015	0	0	0	21561	20090	162440	27090	1054868	46283	107916	0	0	8209	564918	0	0
2024-10-10 08:42:47			0	38045	0	0	0	21548	20100	162328	27232	1054886	46262	107911	0	0	8211	563687	0	0
2024-10-10 08:43:47			0	38030	0	0	0	21540	20100	162308	27133	1054859	46273	107908	0	0	8210	564287	0	0
2024-10-10 08:44:47			0	38057	0	0	0	21558	20100	162328	27426	1054806	46294	107915	0	0	8212	563208	0	0
2024-10-10 08:45:47			0	38104	0	0	0	21550	20100	162276	27438	1054850	46284	107912	0	0	8215	561332	0	0
2024-10-10 08:46:47			0	38122	0	0	0	21558	20100	161976	27355	1054886	46273	107915	0	0	8215	560615	0	0
2024-10-10 08:47:47			0	38166	0	0	0	21566	20100	162012	27291	1054886	46284	107918	0	0	8218	558864	0	0
2024-10-10 08:48:47			0	38203	0	0	0	21563	20110	161708	27170	1055037	46274	107917	0	0	8220	557364	0	0
2024-10-10 08:49:47			0	38238	0	0	0	21555	20110	161716	27372	1054895	46285	107914	0	0	8222	555976	0	0
2024-10-10 08:50:47			0	38213	0	0	0	21553	20120	161756	27216	1054886	46286	107913	0	0	8221	556936	0	0
2024-10-10 08:51:47			0	38204	0	0	0	21558	20120	161720	27453	1054913	46253	107915	0	0	8220	557293	0	0
2024-10-10 08:52:47			0	38206	0	0	0	21563	20120	161600	27410	1054966	46264	107917	0	0	8220	557214	0	0
2024-10-10 08:53:47			0	38192	0	0	0	21555	20110	161800	27701	1054877	46252	107914	0	0	8220	557800	0	0
2024-10-10 08:54:47			0	38206	0	0	0	21561	20120	161688	27639	1054948	46276	107916	0	0	8220	557214	0	0
2024-10-10 08:55:47			0	38220	0	0	0	21566	20110	161532	27493	1054904	46296	107918	0	0	8221	556689	0	0
2024-10-10 08:56:47			0	38233	0	0	0	21568	20120	161604	27512	1054939	46275	107919	0	0	8222	556143	0	0
2024-10-10 08:57:47			0	38235	0	0	0	21568	20120	161556	27364	1054948	46276	107919	0	0	8222	556064	0	0
2024-10-10 08:58:47			0	38223	0	0	0	21566	20130	161708	27578	1054984	46265	107918	0	0	8221	556509	0	0
2024-10-10 08:59:47			0	38218	0	0	0	21555	20120	161624	27407	1054922	46265	107914	0	0	8221	556738	0	0
2024-10-10 09:00:47			0	38233	0	0	0	21558	20120	161600	27353	1054913	46286	107915	0	0	8222	556143	0	0
2024-10-10 09:01:47			0	38232	0	0	0	21553	20110	161412	27440	1054957	46274	107913	0	0	8222	556214	0	0
2024-10-10 09:02:47			0	38233	0	0	0	21555	20120	161512	27396	1054975	46265	107914	0	0	8222	556143	0	0
2024-10-10 09:03:47			0	38209	0	0	0	21558	20130	161596	27234	1054904	46276	107915	0	0	8221	557064	0	0
2024-10-10 09:04:47			0	38214	0	0	0	21545	20120	161640	27294	1054913	46275	107910	0	0	8221	556897	0	0
2024-10-10 09:05:47			0	38187	0	0	0	21545	20120	161720	27303	1054859	46275	107910	0	0	8220	557968	0	0
2024-10-10 09:06:47			0	38200	0	0	0	21553	20110	161800	27251	1054957	46263	107913	0	0	8220	557483	0	0
2024-10-10 09:07:47			0	38223	0	0	0	21573	20110	161596	27568	1054904	46263	107921	0	0	8221	556570	0	0
2024-10-10 09:08:47			0	38275	0	0	0	21581	20110	161384	27507	1054930	46274	107924	0	0	8224	554511	0	0
2024-10-10 09:09:47			0	38342	0	0	0	21581	20130	161156	27379	1054930	46287	107924	0	0	8228	551804	0	0
2024-10-10 09:10:47			0	38374	0	0	0	21589	20130	160948	27272	1055063	46297	107927	0	0	8230	550543	0	0
2024-10-10 09:11:47			0	38422	0	0	0	21571	20130	160728	27464	1055063	46276	107920	0	0	8233	548654	0	0
2024-10-10 09:12:47			0	38409	0	0	0	21568	20130	160900	27301	1054993	46276	107919	0	0	8232	549165	0	0
2024-10-10 09:13:47			0	38393	0	0	0	21566	20130	160764	26896	1054966	46287	107918	0	0	8231	549795	0	0
2024-10-10 09:14:47			0	38366	0	0	0	21566	20150	160968	27440	1055002	46278	107918	0	0	8230	550797	0	0
2024-10-10 09:15:47			0	38357	0	0	0	21581	20140	160984	27646	1054975	46266	107924	0	0	8229	551182	0	0
2024-10-10 09:16:47			0	38379	0	0	0	21566	20140	160940	27296	1055001	46288	107918	0	0	8231	550315	0	0
2024-10-10 09:17:47			0	38364	0	0	0	21573	20130	160932	27341	1054993	46297	107921	0	0	8230	550937	0	0
2024-10-10 09:18:47			0	38391	0	0	0	21573	20130	160800	27279	1055072	46265	107921	0	0	8231	549874	0	0
2024-10-10 09:19:47			0	38386	0	0	0	21594	20150	160792	27322	1055108	46289	107929	0	0	8231	550009	0	0
2024-10-10 09:20:47			0	38441	0	0	0	21589	20140	160740	27561	1055001	46288	107927	0	0	8234	547878	0	0
2024-10-10 09:21:47			0	38440	0	0	0	21597	20150	160704	27552	1055108	46289	107930	0	0	8234	547887	0	0
2024-10-10 09:22:47			0	38456	0	0	0	21594	20150	160600	27331	1055108	46289	107929	0	0	8235	547259	0	0
2024-10-10 09:23:47			0	38478	0	0	0	21594	20150	160444	27383	1055152	46278	107929	0	0	8236	546396	0	0
2024-10-10 09:24:47			0	38495	0	0	0	21599	20160	160480	27393	1055117	46290	107931	0	0	8237	545700	0	0
2024-10-10 09:25:47			0	38522	0	0	0	21597	20150	160444	27336	1055179	46289	107930	0	0	8238	544673	0	0
2024-10-10 09:26:47			0	38515	0	0	0	21605	20140	160384	27251	1055134	46288	107933	0	0	8238	544977	0	0
2024-10-10 09:27:47			0	38500	0	0	0	21594	20150	160400	27701	1055135	46267	107929	0	0	8237	545534	0	0
2024-10-10 09:28:47			0	38504	0	0	0	21599	20150	160356	27599	1055135	46278	107931	0	0	8237	545378	0	0
2024-10-10 09:29:47			0	38511	0	0	0	21592	20160	160300	27369	1055144	46290	107928	0	0	8238	545073	0	0
2024-10-10 09:30:47			0	38502	0	0	0	21599	20160	160304	27322	1055073	46291	107931	0	0	8237	545426	0	0
2024-10-10 09:31:47			0	38525	0	0	0	21597	20160	160372	27367	1055206	46280	107930	0	0	8239	544526	0	0
2024-10-10 09:32:47			0	38518	0	0	0	21605	20160	160368	27405	1055179	46280	107933	0	0	8238	544800	0	0
2024-10-10 09:33:47			0	38526	0	0	0	21597	20150	160308	27277	1055188	46267	107930	0	0	8239	544517	0	0
2024-10-10 09:34:47			0	38543	0	0	0	21597	20160	160264	27095	1055144	46279	107930	0	0	8240	543822	0	0
2024-10-10 09:35:47			0	38535	0	0	0	21599	20160	160168	27220	1055179	46280	107931	0	0	8239	544135	0	0
2024-10-10 09:36:47			0	38544	0	0	0	21599	20160	160268	27154	1055179	46291	107931	0	0	8240	543783	0	0
2024-10-10 09:37:47			0	38536	0	0	0	21602	20170	160264	27232	1055188	46280	107932	0	0	8239	544066	0	0
2024-10-10 09:38:47			0	38551	0	0	0	21605	20160	160236	27329	1055144	46257	107933	0	0	8240	543510	0	0
2024-10-10 09:39:47			0	38534	0	0	0	21599	20170	160352	27282	1055161	46291	107931	0	0	8239	544144	0	0
2024-10-10 09:40:47			0	38530	0	0	0	21599	20160	160260	27095	1055126	46280	107931	0	0	8239	544330	0	0
2024-10-10 09:41:47			0	38545	0	0	0	21594	20170	160264	27270	1055241	46291	107929	0	0	8240	543714	0	0
2024-10-10 09:42:47			0	38540	0	0	0	21605	20170	160360	27384	1055161	46248	107933	0	0	8239	543909	0	0
2024-10-10 09:43:47			0	38531	0	0	0	21602	20170	160260	27495	1055197	46270	107932	0	0	8239	544261	0	0
2024-10-10 09:44:47			0	38513	0	0	0	21597	20160	160368	27578	1055197	46279	107930	0	0	8238	544995	0	0
2024-10-10 09:45:47			0	38505	0	0	0	21602	20170	160264	27649	1055197	46270	107932	0	0	8237	545278	0	0
2024-10-10 09:46:47			0	38511	0	0	0	21605	20170	160304	27329	1055170	46270	107933	0	0	8238	545043	0	0
2024-10-10 09:47:47			0	38501	0	0	0	21602	20180	160428	27414	1055153	46281	107932	0	0	8237	545405	0	0
2024-10-10 09:48:47			0	38482	0	0	0	21594	20180	160488	27460	1055206	46281	107929	0	0	8236	546149	0	0
2024-10-10 09:49:47			0	38491	0	0	0	21592	20170	160496	27431	1055161	46269	107928	0	0	8237	545826	0	0
2024-10-10 09:50:47			0	38469	0	0	0	21599	20170	160472	27357	1055188	46269	107931	0	0	8235	546689	0	0
2024-10-10 09:51:47			0	38473	0	0	0	21592	20170	160616	27533	1055215	46291	107928	0	0	8236	546532	0	0
2024-10-10 09:52:47			0	38472	0	0	0	21594	20160	160644	27654	1055126	46291	107929	0	0	8236	546601	0	0
2024-10-10 09:53:47			0	38459	0	0	0	21602	20160	160612	27272	1055179	46280	107932	0	0	8235	547111	0	0
2024-10-10 09:54:47			0	38471	0	0	0	21602	20160	160724	27211	1055153	46269	107932	0	0	8235	546640	0	0
2024-10-10 09:55:47			0	38448	0	0	0	21597	20170	160684	27493	1055215	46291	107930	0	0	8234	547512	0	0
2024-10-10 09:56:47			0	38447	0	0	0	21599	20170	160620	27001	1055197	46270	107931	0	0	8234	547552	0	0
2024-10-10 09:57:47			0	38447	0	0	0	21605	20170	160692	27393	1055215	46280	107933	0	0	8234	547552	0	0
2024-10-10 09:58:47			0	38443	0	0	0	21602	20160	160684	27630	1055153	46280	107932	0	0	8234	547739	0	0
2024-10-10 09:59:47			0	38428	0	0	0	21599	20170	160740	27326	1055215	46269	107931	0	0	8233	548298	0	0
2024-10-10 10:00:47			0	38421	0	0	0	21602	20170	160704	27412	1055224	46281	107932	0	0	8233	548573	0	0
2024-10-10 10:01:47			0	38416	0	0	0	21599	20170	160800	27435	1055188	46269	107931	0	0	8232	548769	0	0
2024-10-10 10:02:47			0	38393	0	0	0	21599	20170	160940	27573	1055135	46280	107931	0	0	8231	549673	0	0
2024-10-10 10:03:47			0	38382	0	0	0	21610	20170	160944	27599	1055135	46280	107935	0	0	8230	550106	0	0
2024-10-10 10:04:47			0	38383	0	0	0	21615	20170	160964	27802	1055197	46281	107937	0	0	8230	550067	0	0
2024-10-10 10:05:47			0	38382	0	0	0	21618	20170	160976	27940	1055268	46280	107938	0	0	8230	550106	0	0
2024-10-10 10:06:47			0	38414	0	0	0	21615	20170	160828	27673	1055197	46259	107937	0	0	8232	548848	0	0
2024-10-10 10:07:47			0	38419	0	0	0	21615	20170	160844	27455	1055250	46281	107937	0	0	8232	548651	0	0
2024-10-10 10:08:47			0	38419	0	0	0	21618	20170	160784	27633	1055250	46281	107938	0	0	8232	548651	0	0
2024-10-10 10:09:47			0	38413	0	0	0	21615	20180	160748	27642	1055215	46282	107937	0	0	8232	548857	0	0
2024-10-10 10:10:47			0	38422	0	0	0	21623	20190	160712	27810	1055277	46283	107940	0	0	8232	548473	0	0
2024-10-10 10:11:47			0	38446	0	0	0	21636	20180	160792	27464	1055286	46291	107945	0	0	8233	547561	0	0
2024-10-10 10:12:47			0	38429	0	0	0	21623	20180	160844	27414	1055295	46282	107940	0	0	8233	548228	0	0
2024-10-10 10:13:47			0	38395	0	0	0	21633	20180	160888	27630	1055259	46291	107944	0	0	8231	549564	0	0
2024-10-10 10:14:47			0	38416	0	0	0	21636	20180	160872	27448	1055268	46271	107945	0	0	8232	548739	0	0
2024-10-10 10:15:47			0	38437	0	0	0	21631	20190	160792	27511	1055304	46293	107943	0	0	8233	547884	0	0
2024-10-10 10:16:47			0	38469	0	0	0	21636	20190	160664	27715	1055250	46283	107945	0	0	8235	546628	0	0
2024-10-10 10:17:47			0	38466	0	0	0	21649	20190	160760	27416	1055339	46293	107950	0	0	8234	546746	0	0
2024-10-10 10:18:47			0	38467	0	0	0	21646	20190	160600	27407	1055277	46305	107949	0	0	8235	546707	0	0
2024-10-10 10:19:47			0	38496	0	0	0	21657	20200	160488	27724	1055348	46283	107953	0	0	8236	545540	0	0
2024-10-10 10:20:47			0	38519	0	0	0	21657	20190	160408	27339	1055366	46283	107953	0	0	8237	544670	0	0
2024-10-10 10:21:47			0	38529	0	0	0	21657	20200	160356	27362	1055428	46293	107953	0	0	8238	544249	0	0
2024-10-10 10:22:47			0	38533	0	0	0	21657	20200	160352	27497	1055357	46294	107953	0	0	8238	544093	0	0
2024-10-10 10:23:47			0	38571	0	0	0	21664	20210	160264	27599	1055393	46295	107956	0	0	8240	542579	0	0
2024-10-10 10:24:47			0	38590	0	0	0	21664	20210	160100	27514	1055508	46274	107956	0	0	8242	541837	0	0
2024-10-10 10:25:47			0	38605	0	0	0	21677	20200	160040	27987	1055463	46284	107961	0	0	8242	541283	0	0
2024-10-10 10:26:47			0	38607	0	0	0	21680	20220	160108	27448	1055473	46296	107962	0	0	8242	541145	0	0
2024-10-10 10:27:47			0	38624	0	0	0	21685	20220	159988	27595	1055517	46295	107964	0	0	8243	540483	0	0
2024-10-10 10:28:47			0	38669	0	0	0	21688	20230	159968	27959	1055508	46309	107965	0	0	8246	538703	0	0
2024-10-10 10:29:47			0	38672	0	0	0	21693	20230	159856	27894	1055588	46309	107967	0	0	8246	538586	0	0
2024-10-10 10:30:47			0	38673	0	0	0	21698	20240	159756	27668	1055553	46287	107969	0	0	8246	538518	0	0
2024-10-10 10:31:47			0	38689	0	0	0	21711	20230	159788	27840	1055517	46297	107974	0	0	8247	537926	0	0
2024-10-10 10:32:47			0	38704	0	0	0	21701	20240	159668	27543	1055615	46310	107970	0	0	8248	537315	0	0
2024-10-10 10:33:47			0	38718	0	0	0	21706	20250	159612	27762	1055624	46299	107972	0	0	8248	536742	0	0
2024-10-10 10:34:47			0	38738	0	0	0	21706	20250	159565	27802	1055597	46299	107972	0	0	8250	535967	0	0
2024-10-10 10:35:47			0	38750	0	0	0	21706	20240	159493	27783	1055615	46298	107972	0	0	8250	535532	0	0
2024-10-10 10:36:47			0	38754	0	0	0	21714	20260	159493	27817	1055633	46279	107975	0	0	8250	535318	0	0
2024-10-10 10:37:47			0	38761	0	0	0	21714	20260	159453	27509	1055722	46312	107975	0	0	8251	535047	0	0
2024-10-10 10:38:47			0	38782	0	0	0	21719	20260	159345	27348	1055642	46300	107977	0	0	8252	534235	0	0
2024-10-10 10:39:47			0	38781	0	0	0	21714	20260	159345	27904	1055642	46300	107975	0	0	8252	534274	0	0
2024-10-10 10:40:47			0	38784	0	0	0	21714	20270	159317	27878	1055651	46300	107975	0	0	8252	534128	0	0
2024-10-10 10:41:47			0	38761	0	0	0	21727	20270	159325	27861	1055713	46291	107980	0	0	8251	535017	0	0
2024-10-10 10:42:47			0	38767	0	0	0	21724	20280	159337	27737	1055784	46303	107979	0	0	8251	534756	0	0
2024-10-10 10:43:47			0	38770	0	0	0	21729	20280	159317	27390	1055722	46291	107981	0	0	8251	534640	0	0
2024-10-10 10:44:47			0	38742	0	0	0	21724	20280	159449	27398	1055757	46303	107979	0	0	8250	535723	0	0
2024-10-10 10:45:47			0	38742	0	0	0	21729	20290	159529	27282	1055793	46303	107981	0	0	8250	535694	0	0
2024-10-10 10:46:47			0	38741	0	0	0	21740	20280	159465	27397	1055731	46303	107985	0	0	8249	535762	0	0
2024-10-10 10:47:47			0	38766	0	0	0	21742	20280	159497	27353	1055757	46291	107986	0	0	8251	534795	0	0
2024-10-10 10:48:47			0	38787	0	0	0	21742	20290	159281	27524	1055740	46291	107986	0	0	8252	533953	0	0
2024-10-10 10:49:47			0	38808	0	0	0	21729	20290	159233	27618	1055793	46303	107981	0	0	8254	533142	0	0
2024-10-10 10:50:47			0	38811	0	0	0	21732	20290	159185	27239	1055775	46304	107982	0	0	8254	533026	0	0
2024-10-10 10:51:47			0	38845	0	0	0	21737	20300	159013	27310	1055811	46305	107984	0	0	8256	531685	0	0
2024-10-10 10:52:47			0	38854	0	0	0	21737	20300	158981	27509	1055837	46316	107984	0	0	8256	531339	0	0
2024-10-10 10:53:47			0	38887	0	0	0	21750	20300	158793	27540	1055846	46283	107989	0	0	8258	530068	0	0
2024-10-10 10:54:47			0	38908	0	0	0	21755	20300	158773	27192	1055811	46305	107991	0	0	8259	529260	0	0
2024-10-10 10:55:47			0	38922	0	0	0	21755	20290	158605	27289	1055908	46304	107991	0	0	8260	528752	0	0
2024-10-10 10:56:47			0	38916	0	0	0	21753	20300	158737	27329	1055820	46293	107990	0	0	8259	528953	0	0
2024-10-10 10:57:47			0	38942	0	0	0	21753	20310	158641	27414	1055882	46305	107990	0	0	8261	527925	0	0
2024-10-10 10:58:47			0	38931	0	0	0	21753	20300	158661	27303	1055873	46293	107990	0	0	8260	528377	0	0
2024-10-10 10:59:47			0	38947	0	0	0	21745	20310	158741	27159	1055838	46306	107987	0	0	8261	527734	0	0
2024-10-10 11:00:47			0	38946	0	0	0	21745	20310	158601	27206	1055829	46293	107987	0	0	8261	527772	0	0
2024-10-10 11:01:47			0	38946	0	0	0	21750	20320	158593	27367	1055953	46295	107989	0	0	8261	527743	0	0
2024-10-10 11:02:47			0	38954	0	0	0	21753	20310	158585	27346	1055908	46283	107990	0	0	8262	527465	0	0
2024-10-10 11:03:47			0	38984	0	0	0	21750	20320	158605	27398	1055873	46307	107989	0	0	8264	526286	0	0
2024-10-10 11:04:47			0	38971	0	0	0	21745	20310	158513	27149	1055882	46283	107987	0	0	8263	526813	0	0
2024-10-10 11:05:47			0	38975	0	0	0	21758	20320	158449	27008	1055847	46318	107992	0	0	8263	526631	0	0
2024-10-10 11:06:47			0	38995	0	0	0	21745	20310	158429	27332	1055917	46306	107987	0	0	8264	525894	0	0
2024-10-10 11:07:47			0	39037	0	0	0	21763	20320	158325	27326	1055926	46285	107994	0	0	8266	524258	0	0
2024-10-10 11:08:47			0	39014	0	0	0	21750	20310	158293	27131	1055917	46284	107989	0	0	8265	525166	0	0
2024-10-10 11:09:47			0	39026	0	0	0	21748	20310	158301	27196	1055917	46284	107988	0	0	8266	524708	0	0
2024-10-10 11:10:47			0	39026	0	0	0	21748	20320	158389	27223	1055900	46295	107988	0	0	8266	524679	0	0
2024-10-10 11:11:47			0	39011	0	0	0	21748	20320	158293	27093	1055988	46308	107988	0	0	8265	525252	0	0
2024-10-10 11:12:47			0	39021	0	0	0	21740	20320	158373	27339	1055847	46285	107985	0	0	8266	524870	0	0
2024-10-10 11:13:47			0	39008	0	0	0	21748	20320	158261	27339	1055900	46307	107988	0	0	8265	525367	0	0
2024-10-10 11:14:47			0	39003	0	0	0	21753	20310	158361	27315	1055864	46284	107990	0	0	8265	525587	0	0
2024-10-10 11:15:47			0	39016	0	0	0	21750	20320	158329	27013	1055909	46296	107989	0	0	8265	525061	0	0
2024-10-10 11:16:47			0	39017	0	0	0	21742	20310	158277	27478	1055864	46306	107986	0	0	8266	525052	0	0
2024-10-10 11:17:47			0	39018	0	0	0	21748	20320	158261	27403	1055873	46295	107988	0	0	8266	524984	0	0
2024-10-10 11:18:47			0	39012	0	0	0	21745	20310	158245	27573	1055935	46283	107987	0	0	8265	525243	0	0
2024-10-10 11:19:47			0	39009	0	0	0	21745	20310	158325	27253	1055891	46294	107987	0	0	8265	525358	0	0
2024-10-10 11:20:47			0	39017	0	0	0	21748	20310	158413	27415	1055891	46317	107988	0	0	8265	525052	0	0
2024-10-10 11:21:47			0	39024	0	0	0	21748	20310	158237	27383	1055864	46294	107988	0	0	8266	524784	0	0
2024-10-10 11:22:47			0	39027	0	0	0	21745	20310	158257	27348	1055917	46294	107987	0	0	8266	524669	0	0
2024-10-10 11:23:47			0	39033	0	0	0	21750	20310	158313	27403	1055855	46293	107989	0	0	8266	524440	0	0
2024-10-10 11:24:47			0	39019	0	0	0	21750	20310	158229	27426	1055891	46294	107989	0	0	8265	524975	0	0
2024-10-10 11:25:47			0	39023	0	0	0	21745	20310	158341	27156	1055838	46284	107987	0	0	8266	524822	0	0
2024-10-10 11:26:47			0	39002	0	0	0	21750	20310	158265	27334	1055917	46306	107989	0	0	8265	525626	0	0
2024-10-10 11:27:47			0	39018	0	0	0	21745	20320	158357	27381	1055935	46296	107987	0	0	8266	524984	0	0
2024-10-10 11:28:47			0	39011	0	0	0	21748	20320	158277	27306	1055962	46296	107988	0	0	8265	525252	0	0
2024-10-10 11:29:47			0	39018	0	0	0	21745	20310	158277	27391	1055935	46305	107987	0	0	8266	525013	0	0
2024-10-10 11:30:47			0	39029	0	0	0	21740	20320	158349	27274	1055926	46295	107985	0	0	8266	524564	0	0
2024-10-10 11:31:47			0	39021	0	0	0	21750	20310	158297	27222	1055917	46294	107989	0	0	8266	524899	0	0
2024-10-10 11:32:47			0	39025	0	0	0	21753	20330	158225	27150	1055944	46296	107990	0	0	8266	524688	0	0
2024-10-10 11:33:47			0	39019	0	0	0	21748	20320	158361	27492	1055909	46286	107988	0	0	8266	524946	0	0
2024-10-10 11:34:47			0	39016	0	0	0	21758	20320	158389	27384	1055873	46285	107992	0	0	8265	525061	0	0
2024-10-10 11:35:47			0	39039	0	0	0	21748	20320	158277	27490	1055909	46308	107988	0	0	8267	524181	0	0
2024-10-10 11:36:47			0	39006	0	0	0	21748	20310	158353	27473	1055917	46306	107988	0	0	8265	525473	0	0
2024-10-10 11:37:47			0	39005	0	0	0	21753	20320	158369	27649	1055988	46308	107990	0	0	8265	525482	0	0
2024-10-10 11:38:47			0	39027	0	0	0	21758	20320	158321	27422	1055926	46295	107992	0	0	8266	524640	0	0
2024-10-10 11:39:47			0	39029	0	0	0	21753	20310	158269	27497	1055891	46294	107990	0	0	8266	524593	0	0
2024-10-10 11:40:47			0	39045	0	0	0	21755	20320	158269	27303	1055909	46296	107991	0	0	8267	523952	0	0
2024-10-10 11:41:47			0	39040	0	0	0	21748	20330	158225	27371	1055971	46296	107988	0	0	8267	524114	0	0
2024-10-10 11:42:47			0	39043	0	0	0	21771	20330	158229	27324	1055971	46296	107997	0	0	8267	524000	0	0
2024-10-10 11:43:47			0	39069	0	0	0	21766	20320	158157	27251	1055962	46286	107995	0	0	8268	523036	0	0
2024-10-10 11:44:47			0	39061	0	0	0	21766	20330	158153	27275	1055944	46308	107995	0	0	8268	523312	0	0
2024-10-10 11:45:47			0	39056	0	0	0	21758	20330	158025	27211	1055997	46296	107992	0	0	8268	523503	0	0
2024-10-10 11:46:47			0	39076	0	0	0	21766	20320	158189	27301	1056006	46295	107995	0	0	8269	522769	0	0
2024-10-10 11:47:47			0	39073	0	0	0	21763	20320	158029	27479	1055988	46296	107994	0	0	8268	522883	0	0
2024-10-10 11:48:47			0	39071	0	0	0	21761	20330	158101	27121	1055971	46296	107993	0	0	8268	522931	0	0
2024-10-10 11:49:47			0	39071	0	0	0	21761	20330	158005	27203	1055971	46296	107993	0	0	8268	522931	0	0
2024-10-10 11:50:47			0	39083	0	0	0	21768	20330	158053	27192	1055997	46296	107996	0	0	8269	522473	0	0
2024-10-10 11:51:47			0	39084	0	0	0	21761	20330	158069	27514	1055980	46286	107993	0	0	8269	522435	0	0
2024-10-10 11:52:47			0	39077	0	0	0	21763	20340	157993	27369	1056042	46287	107994	0	0	8269	522673	0	0
2024-10-10 11:53:47			0	39070	0	0	0	21763	20330	157993	27779	1056006	46296	107994	0	0	8268	522969	0	0
2024-10-10 11:54:47			0	39087	0	0	0	21766	20330	158069	27419	1055971	46286	107995	0	0	8269	522320	0	0
2024-10-10 11:55:47			0	39091	0	0	0	21761	20330	158041	27279	1055971	46308	107993	0	0	8270	522168	0	0
2024-10-10 11:56:47			0	39096	0	0	0	21766	20340	157989	27673	1056042	46287	107995	0	0	8270	521948	0	0
2024-10-10 11:57:47			0	39100	0	0	0	21766	20340	157981	27274	1056068	46297	107995	0	0	8270	521796	0	0
2024-10-10 11:58:47			0	39091	0	0	0	21750	20330	157973	27222	1056060	46296	107989	0	0	8270	522168	0	0
2024-10-10 11:59:47			0	39077	0	0	0	21748	20330	158013	27469	1056060	46286	107988	0	0	8269	522702	0	0
2024-10-10 12:00:47			0	39063	0	0	0	21763	20330	157917	27286	1055997	46296	107994	0	0	8268	523236	0	0
2024-10-10 12:01:47			0	39073	0	0	0	21755	20330	157969	27455	1056006	46296	107991	0	0	8269	522854	0	0
2024-10-10 12:02:47			0	39094	0	0	0	21766	20330	158001	27469	1055971	46286	107995	0	0	8270	522053	0	0
2024-10-10 12:03:47			0	39114	0	0	0	21758	20330	157937	27400	1055944	46286	107992	0	0	8271	521291	0	0
2024-10-10 12:04:47			0	39104	0	0	0	21768	20320	157929	27322	1055988	46296	107996	0	0	8270	521701	0	0
2024-10-10 12:05:47			0	39106	0	0	0	21768	20340	157973	27776	1055989	46309	107996	0	0	8270	521567	0	0
2024-10-10 12:06:47			0	39128	0	0	0	21768	20330	157845	27691	1055918	46319	107996	0	0	8272	520758	0	0
2024-10-10 12:07:47			0	39143	0	0	0	21758	20330	157857	27357	1056024	46296	107992	0	0	8273	520187	0	0
2024-10-10 12:08:47			0	39137	0	0	0	21755	20340	157861	27569	1055989	46309	107991	0	0	8272	520387	0	0
2024-10-10 12:09:47			0	39119	0	0	0	21755	20330	157937	27672	1055944	46286	107991	0	0	8271	521101	0	0
2024-10-10 12:10:47			0	39118	0	0	0	21758	20330	157877	27625	1056024	46308	107992	0	0	8271	521139	0	0
2024-10-10 12:11:47			0	39128	0	0	0	21755	20330	157881	27429	1055953	46286	107991	0	0	8272	520758	0	0
2024-10-10 12:12:47			0	39131	0	0	0	21761	20330	157801	27609	1056006	46296	107993	0	0	8272	520644	0	0
2024-10-10 12:13:47			0	39117	0	0	0	21753	20330	157897	27237	1055971	46296	107990	0	0	8271	521177	0	0
2024-10-10 12:14:47			0	39121	0	0	0	21771	20330	157921	27409	1055971	46296	107997	0	0	8271	521025	0	0
2024-10-10 12:15:47			0	39148	0	0	0	21774	20330	157849	27287	1055971	46296	107998	0	0	8273	519997	0	0
2024-10-10 12:16:47			0	39162	0	0	0	21774	20330	157793	27088	1055980	46296	107998	0	0	8273	519465	0	0
2024-10-10 12:17:47			0	39148	0	0	0	21771	20330	157645	27345	1055997	46296	107997	0	0	8273	519997	0	0
2024-10-10 12:18:47			0	39165	0	0	0	21776	20330	157797	27185	1056024	46319	107999	0	0	8274	519351	0	0
2024-10-10 12:19:47			0	39188	0	0	0	21774	20340	157701	27398	1056095	46297	107998	0	0	8275	518448	0	0
2024-10-10 12:20:47			0	39186	0	0	0	21761	20340	157649	27346	1056025	46310	107993	0	0	8275	518524	0	0
2024-10-10 12:21:47			0	39138	0	0	0	21753	20330	157825	27454	1056024	46319	107990	0	0	8272	520377	0	0
2024-10-10 12:22:47			0	39131	0	0	0	21735	20340	157889	27426	1055935	46287	107983	0	0	8272	520615	0	0
2024-10-10 12:23:47			0	39105	0	0	0	21740	20330	157905	27350	1055971	46296	107985	0	0	8271	521634	0	0
2024-10-10 12:24:47			0	39135	0	0	0	21758	20330	157873	27357	1055918	46308	107992	0	0	8272	520492	0	0
2024-10-10 12:25:47			0	39115	0	0	0	21763	20330	157861	27229	1055971	46286	107994	0	0	8271	521253	0	0
2024-10-10 12:26:47			0	39141	0	0	0	21774	20330	157833	27313	1055953	46296	107998	0	0	8272	520263	0	0
2024-10-10 12:27:47			0	39155	0	0	0	21774	20340	157697	27571	1055989	46287	107998	0	0	8273	519702	0	0
2024-10-10 12:28:47			0	39160	0	0	0	21771	20330	157661	27355	1055971	46296	107997	0	0	8273	519541	0	0
2024-10-10 12:29:47			0	39172	0	0	0	21771	20330	157733	27575	1056033	46308	107997	0	0	8274	519085	0	0
2024-10-10 12:30:47			0	39182	0	0	0	21766	20340	157769	27874	1056015	46309	107995	0	0	8275	518676	0	0
2024-10-10 12:31:47			0	39160	0	0	0	21768	20330	157693	27024	1056024	46296	107996	0	0	8273	519541	0	0
2024-10-10 12:32:47			0	39184	0	0	0	21776	20330	157645	27235	1055980	46286	107999	0	0	8275	518629	0	0
2024-10-10 12:33:47			0	39182	0	0	0	21776	20330	157573	27197	1056033	46308	107999	0	0	8275	518705	0	0
2024-10-10 12:34:47			0	39171	0	0	0	21776	20330	157697	27183	1056033	46296	107999	0	0	8274	519123	0	0
2024-10-10 12:35:47			0	39165	0	0	0	21779	20340	157757	27460	1056068	46309	108000	0	0	8274	519322	0	0
2024-10-10 12:36:47			0	39176	0	0	0	21789	20340	157653	27020	1056068	46309	108004	0	0	8274	518904	0	0
2024-10-10 12:37:47			0	39168	0	0	0	21786	20340	157781	27104	1056051	46310	108003	0	0	8274	519208	0	0
2024-10-10 12:38:47			0	39178	0	0	0	21786	20340	157701	27398	1056078	46298	108003	0	0	8274	518828	0	0
2024-10-10 12:39:47			0	39172	0	0	0	21784	20340	157713	27286	1056068	46297	108002	0	0	8274	519056	0	0
2024-10-10 12:40:47			0	39166	0	0	0	21779	20340	157697	27556	1056051	46310	108000	0	0	8274	519284	0	0
2024-10-10 12:41:47			0	39159	0	0	0	21794	20350	157805	27395	1056096	46310	108006	0	0	8273	519521	0	0
2024-10-10 12:42:47			0	39137	0	0	0	21781	20340	157797	27206	1056104	46310	108001	0	0	8272	520387	0	0
2024-10-10 12:43:47			0	39142	0	0	0	21786	20350	157781	27352	1056122	46298	108003	0	0	8272	520168	0	0
2024-10-10 12:44:47			0	39133	0	0	0	21786	20370	157793	27436	1056122	46323	108003	0	0	8272	520453	0	0
2024-10-10 12:45:47			0	39146	0	0	0	21784	20360	157765	27384	1056131	46311	108002	0	0	8273	519987	0	0
2024-10-10 12:46:47			0	39147	0	0	0	21776	20360	157865	27507	1056051	46311	107999	0	0	8273	519949	0	0
2024-10-10 12:47:47			0	39160	0	0	0	21786	20350	157897	27341	1056149	46298	108003	0	0	8273	519483	0	0
2024-10-10 12:48:47			0	39123	0	0	0	21776	20360	157717	27410	1056140	46312	107999	0	0	8271	520862	0	0
2024-10-10 12:49:47			0	39144	0	0	0	21781	20360	157865	27253	1056060	46290	108001	0	0	8272	520063	0	0
2024-10-10 12:50:47			0	39142	0	0	0	21784	20350	157817	27460	1056060	46298	108002	0	0	8272	520168	0	0
2024-10-10 12:51:47			0	39128	0	0	0	21771	20360	157865	27341	1056060	46300	107997	0	0	8272	520672	0	0
2024-10-10 12:52:47			0	39128	0	0	0	21781	20340	157717	27345	1056015	46297	108001	0	0	8271	520729	0	0
2024-10-10 12:53:47			0	39125	0	0	0	21768	20350	157941	27261	1056140	46288	107996	0	0	8272	520815	0	0
2024-10-10 12:54:47			0	39116	0	0	0	21768	20350	157921	27026	1056060	46298	107996	0	0	8271	521157	0	0
2024-10-10 12:55:47			0	39087	0	0	0	21766	20340	158029	27263	1056068	46297	107995	0	0	8269	522291	0	0
2024-10-10 12:56:47			0	39097	0	0	0	21763	20340	157893	27232	1056025	46298	107994	0	0	8270	521910	0	0
2024-10-10 12:57:47			0	39083	0	0	0	21766	20340	158001	27319	1056078	46310	107995	0	0	8269	522444	0	0
2024-10-10 12:58:47			0	39084	0	0	0	21774	20360	157973	27203	1056078	46299	107998	0	0	8269	522348	0	0
2024-10-10 12:59:47			0	39096	0	0	0	21771	20340	158061	27282	1056042	46297	107997	0	0	8270	521948	0	0
2024-10-10 13:00:47			0	39074	0	0	0	21768	20340	158069	26897	1056104	46298	107996	0	0	8269	522787	0	0
2024-10-10 13:01:47			0	39080	0	0	0	21776	20340	158125	27045	1055971	46298	107999	0	0	8269	522558	0	0
2024-10-10 13:02:47			0	39093	0	0	0	21776	20340	158053	27390	1056025	46298	107999	0	0	8269	522063	0	0
2024-10-10 13:03:47			0	39097	0	0	0	21758	20340	158061	27138	1056068	46309	107992	0	0	8270	521910	0	0
2024-10-10 13:04:47			0	39078	0	0	0	21761	20340	158129	27180	1056042	46297	107993	0	0	8269	522635	0	0
2024-10-10 13:05:47			0	39067	0	0	0	21761	20340	157957	27208	1056131	46298	107993	0	0	8268	523054	0	0
2024-10-10 13:06:47			0	39073	0	0	0	21771	20340	158181	27124	1056122	46309	107997	0	0	8268	522825	0	0
2024-10-10 13:07:47			0	39066	0	0	0	21776	20340	158137	27196	1056068	46309	107999	0	0	8268	523092	0	0
2024-10-10 13:08:47			0	39074	0	0	0	21774	20340	158045	27003	1056015	46297	107998	0	0	8268	522787	0	0
2024-10-10 13:09:47			0	39104	0	0	0	21763	20340	157953	27261	1055998	46310	107994	0	0	8270	521643	0	0
2024-10-10 13:10:47			0	39092	0	0	0	21766	20330	157969	26974	1056086	46296	107995	0	0	8270	522130	0	0
2024-10-10 13:11:47			0	39107	0	0	0	21766	20340	158065	27166	1056068	46320	107995	0	0	8270	521529	0	0
2024-10-10 13:12:47			0	39082	0	0	0	21763	20330	158133	27315	1056033	46296	107994	0	0	8269	522511	0	0
2024-10-10 13:13:47			0	39082	0	0	0	21771	20330	158013	27535	1056033	46308	107997	0	0	8269	522511	0	0
2024-10-10 13:14:47			0	39055	0	0	0	21763	20340	158053	27492	1056042	46287	107994	0	0	8267	523512	0	0
2024-10-10 13:15:47			0	39077	0	0	0	21755	20330	158145	27606	1056006	46286	107991	0	0	8269	522702	0	0
2024-10-10 13:16:47			0	39071	0	0	0	21761	20340	158129	27119	1056015	46297	107993	0	0	8268	522902	0	0
2024-10-10 13:17:47			0	39086	0	0	0	21758	20320	158137	27093	1055962	46286	107992	0	0	8269	522387	0	0
2024-10-10 13:18:47			0	39063	0	0	0	21771	20340	158213	27275	1055998	46310	107997	0	0	8268	523207	0	0
2024-10-10 13:19:47			0	39074	0	0	0	21771	20340	158189	26935	1055989	46297	107997	0	0	8268	522787	0	0
2024-10-10 13:20:47			0	39068	0	0	0	21763	20330	158181	27202	1056033	46286	107994	0	0	8268	523045	0	0
2024-10-10 13:21:47			0	39032	0	0	0	21763	20330	158261	26934	1055997	46275	107994	0	0	8266	524420	0	0
2024-10-10 13:22:47			0	39009	0	0	0	21761	20330	158221	27391	1055997	46296	107993	0	0	8265	525300	0	0
2024-10-10 13:23:47			0	39024	0	0	0	21761	20340	158237	27074	1055962	46276	107993	0	0	8266	524697	0	0
2024-10-10 13:24:47			0	39037	0	0	0	21763	20330	158281	27447	1056006	46296	107994	0	0	8266	524229	0	0
2024-10-10 13:25:47			0	39041	0	0	0	21768	20340	158181	27462	1056068	46309	107996	0	0	8267	524047	0	0
2024-10-10 13:26:47			0	39049	0	0	0	21758	20330	158361	26781	1056006	46296	107992	0	0	8267	523771	0	0
2024-10-10 13:27:47			0	39031	0	0	0	21763	20330	158265	27357	1055953	46296	107994	0	0	8266	524458	0	0
2024-10-10 13:28:47			0	39018	0	0	0	21763	20340	158329	27488	1056015	46287	107994	0	0	8265	524926	0	0
2024-10-10 13:29:47			0	39030	0	0	0	21763	20330	158313	27241	1055953	46308	107994	0	0	8266	524497	0	0
2024-10-10 13:30:47			0	39011	0	0	0	21771	20330	158229	27178	1055997	46308	107997	0	0	8265	525223	0	0
2024-10-10 13:31:47			0	39024	0	0	0	21761	20330	158305	27338	1056006	46308	107993	0	0	8266	524726	0	0
2024-10-10 13:32:47			0	39026	0	0	0	21763	20330	158361	27017	1055980	46308	107994	0	0	8266	524650	0	0
2024-10-10 13:33:47			0	39035	0	0	0	21761	20340	158237	27102	1055989	46309	107993	0	0	8266	524277	0	0
2024-10-10 13:34:47			0	39007	0	0	0	21753	20330	158309	27131	1055997	46275	107990	0	0	8265	525376	0	0
2024-10-10 13:35:47			0	39014	0	0	0	21761	20330	158401	26925	1055953	46286	107993	0	0	8265	525108	0	0
2024-10-10 13:36:47			0	39015	0	0	0	21750	20330	158353	27012	1056006	46296	107989	0	0	8265	525070	0	0
2024-10-10 13:37:47			0	39013	0	0	0	21755	20320	158413	26955	1055988	46308	107991	0	0	8265	525176	0	0
2024-10-10 13:38:47			0	39004	0	0	0	21758	20330	158329	27208	1056006	46296	107992	0	0	8265	525491	0	0
2024-10-10 13:39:47			0	39012	0	0	0	21755	20330	158361	27192	1055971	46308	107991	0	0	8265	525185	0	0
2024-10-10 13:40:47			0	39011	0	0	0	21755	20320	158313	27393	1056015	46296	107991	0	0	8265	525252	0	0
2024-10-10 13:41:47			0	39002	0	0	0	21758	20320	158317	27225	1055988	46286	107992	0	0	8264	525597	0	0
2024-10-10 13:42:47			0	39000	0	0	0	21748	20320	158297	27033	1056042	46308	107988	0	0	8264	525673	0	0
2024-10-10 13:43:47			0	39008	0	0	0	21750	20330	158401	27175	1055971	46308	107989	0	0	8265	525338	0	0
2024-10-10 13:44:47			0	39010	0	0	0	21755	20320	158361	27343	1055988	46296	107991	0	0	8265	525291	0	0
2024-10-10 13:45:47			0	39006	0	0	0	21755	20330	158349	27053	1055971	46286	107991	0	0	8265	525415	0	0
2024-10-10 13:46:47			0	38996	0	0	0	21745	20320	158405	27128	1055962	46330	107987	0	0	8264	525826	0	0
2024-10-10 13:47:47			0	38996	0	0	0	21742	20330	158321	27338	1055980	46308	107986	0	0	8264	525797	0	0
2024-10-10 13:48:47			0	39004	0	0	0	21745	20320	158333	27372	1055909	46308	107987	0	0	8265	525520	0	0
2024-10-10 13:49:47			0	38999	0	0	0	21742	20330	158401	27388	1055971	46308	107986	0	0	8265	525682	0	0
2024-10-10 13:50:47			0	38988	0	0	0	21750	20320	158393	27374	1056015	46296	107989	0	0	8264	526133	0	0
2024-10-10 13:51:47			0	38984	0	0	0	21748	20320	158369	27339	1055900	46274	107988	0	0	8264	526286	0	0
2024-10-10 13:52:47			0	39014	0	0	0	21753	20330	158445	27345	1055918	46296	107990	0	0	8265	525108	0	0
2024-10-10 13:53:47			0	38987	0	0	0	21753	20320	158497	27386	1055953	46307	107990	0	0	8264	526171	0	0
2024-10-10 13:54:47			0	38995	0	0	0	21753	20330	158469	27168	1055918	46296	107990	0	0	8264	525836	0	0
2024-10-10 13:55:47			0	38969	0	0	0	21745	20320	158469	27275	1056006	46307	107987	0	0	8263	526861	0	0
2024-10-10 13:56:47			0	38977	0	0	0	21745	20310	158449	27589	1055935	46293	107987	0	0	8263	526583	0	0
2024-10-10 13:57:47			0	38970	0	0	0	21755	20320	158377	27230	1055926	46295	107991	0	0	8263	526822	0	0
2024-10-10 13:58:47			0	38984	0	0	0	21748	20320	158525	27322	1055962	46296	107988	0	0	8264	526286	0	0
2024-10-10 13:59:47			0	38974	0	0	0	21753	20330	158389	27306	1055980	46308	107990	0	0	8263	526640	0	0
2024-10-10 14:00:47			0	38972	0	0	0	21742	20310	158457	27606	1055917	46317	107986	0	0	8263	526775	0	0
2024-10-10 14:01:47			0	38980	0	0	0	21740	20310	158441	27353	1055944	46306	107985	0	0	8263	526468	0	0
2024-10-10 14:02:47			0	38970	0	0	0	21742	20320	158389	27329	1055935	46286	107986	0	0	8263	526822	0	0
2024-10-10 14:03:47			0	38964	0	0	0	21748	20320	158473	27426	1056006	46295	107988	0	0	8262	527052	0	0
2024-10-10 14:04:47			0	38968	0	0	0	21750	20310	158433	27098	1055891	46328	107989	0	0	8263	526928	0	0
2024-10-10 14:05:47			0	38983	0	0	0	21737	20320	158449	27398	1055926	46307	107984	0	0	8264	526324	0	0
2024-10-10 14:06:47			0	38981	0	0	0	21758	20320	158405	27568	1055926	46307	107992	0	0	8263	526401	0	0
2024-10-10 14:07:47			0	38982	0	0	0	21755	20310	158333	27346	1056024	46306	107991	0	0	8263	526392	0	0
2024-10-10 14:08:47			0	38985	0	0	0	21750	20310	158353	27569	1055944	46294	107989	0	0	8264	526277	0	0
2024-10-10 14:09:47			0	38968	0	0	0	21745	20320	158441	27275	1055980	46318	107987	0	0	8263	526899	0	0
2024-10-10 14:10:47			0	38964	0	0	0	21755	20330	158565	27293	1056006	46330	107991	0	0	8262	527023	0	0
2024-10-10 14:11:47			0	38966	0	0	0	21750	20320	158477	27383	1055980	46307	107989	0	0	8262	526976	0	0
2024-10-10 14:12:47			0	38983	0	0	0	21745	20320	158589	27405	1056015	46308	107987	0	0	8264	526324	0	0
2024-10-10 14:13:47			0	38981	0	0	0	21748	20330	158577	27237	1055997	46308	107988	0	0	8263	526372	0	0
2024-10-10 14:14:47			0	38954	0	0	0	21753	20320	158449	27258	1055980	46318	107990	0	0	8262	527436	0	0
2024-10-10 14:15:47			0	38987	0	0	0	21758	20320	158429	27213	1055962	46286	107992	0	0	8264	526171	0	0
2024-10-10 14:16:47			0	38988	0	0	0	21753	20320	158469	27445	1055962	46286	107990	0	0	8264	526133	0	0
2024-10-10 14:17:47			0	38959	0	0	0	21758	20310	158497	27138	1055971	46306	107992	0	0	8262	527273	0	0
2024-10-10 14:18:47			0	38962	0	0	0	21748	20320	158505	27149	1055988	46296	107988	0	0	8262	527129	0	0
2024-10-10 14:19:47			0	38966	0	0	0	21753	20310	158593	27317	1055944	46294	107990	0	0	8262	527005	0	0
2024-10-10 14:20:47			0	38957	0	0	0	21750	20320	158553	27478	1055988	46308	107989	0	0	8262	527321	0	0
2024-10-10 14:21:47			0	38959	0	0	0	21745	20310	158509	27396	1055908	46283	107987	0	0	8262	527273	0	0
2024-10-10 14:22:47			0	38981	0	0	0	21758	20320	158513	27033	1055988	46308	107992	0	0	8263	526401	0	0
2024-10-10 14:23:47			0	38979	0	0	0	21755	20320	158465	27090	1055988	46308	107991	0	0	8263	526477	0	0
2024-10-10 14:24:47			0	38983	0	0	0	21748	20320	158477	27142	1055988	46308	107988	0	0	8263	526324	0	0
2024-10-10 14:25:47			0	38983	0	0	0	21748	20320	158437	26800	1055962	46308	107988	0	0	8263	526324	0	0
2024-10-10 14:26:47			0	38979	0	0	0	21753	20320	158449	27293	1055926	46307	107990	0	0	8263	526477	0	0
2024-10-10 14:27:47			0	38973	0	0	0	21750	20320	158553	27097	1055935	46296	107989	0	0	8263	526707	0	0
2024-10-10 14:28:47			0	38978	0	0	0	21753	20320	158453	27145	1055988	46308	107990	0	0	8263	526516	0	0
2024-10-10 14:29:47			0	38991	0	0	0	21755	20320	158421	26927	1055900	46295	107991	0	0	8264	526018	0	0
2024-10-10 14:30:47			0	38974	0	0	0	21755	20320	158453	27033	1056042	46286	107991	0	0	8263	526669	0	0
2024-10-10 14:31:47			0	38983	0	0	0	21753	20330	158413	27345	1056033	46296	107990	0	0	8263	526295	0	0
2024-10-10 14:32:47			0	38976	0	0	0	21750	20320	158401	27163	1055980	46274	107989	0	0	8263	526592	0	0
2024-10-10 14:33:47			0	38983	0	0	0	21753	20320	158417	27095	1055962	46308	107990	0	0	8263	526324	0	0
2024-10-10 14:34:47			0	38973	0	0	0	21745	20330	158441	27320	1055997	46296	107987	0	0	8263	526678	0	0
2024-10-10 14:35:47			0	38998	0	0	0	21755	20320	158449	27199	1055988	46308	107991	0	0	8264	525750	0	0
2024-10-10 14:36:47			0	38988	0	0	0	21745	20320	158425	27163	1055953	46307	107987	0	0	8264	526133	0	0
2024-10-10 14:37:47			0	38985	0	0	0	21753	20320	158393	27227	1056015	46296	107990	0	0	8264	526248	0	0
2024-10-10 14:38:47			0	38993	0	0	0	21755	20310	158381	27154	1056024	46284	107991	0	0	8264	525970	0	0
2024-10-10 14:39:47			0	38991	0	0	0	21748	20320	158313	27358	1055988	46296	107988	0	0	8264	526018	0	0
2024-10-10 14:40:47			0	39004	0	0	0	21763	20320	158469	27251	1055988	46308	107994	0	0	8264	525520	0	0
2024-10-10 14:41:47			0	38987	0	0	0	21753	20320	158529	27396	1056006	46307	107990	0	0	8264	526171	0	0
2024-10-10 14:42:47			0	38988	0	0	0	21755	20320	158345	27357	1055953	46295	107991	0	0	8264	526133	0	0
2024-10-10 14:43:47			0	39003	0	0	0	21748	20320	158421	27246	1055988	46308	107988	0	0	8265	525558	0	0
2024-10-10 14:44:47			0	38995	0	0	0	21763	20320	158501	27267	1055988	46319	107994	0	0	8264	525865	0	0
2024-10-10 14:45:47			0	39002	0	0	0	21753	20320	158421	27448	1056006	46307	107990	0	0	8265	525597	0	0
2024-10-10 14:46:47			0	39003	0	0	0	21758	20320	158401	27374	1056015	46296	107992	0	0	8264	525558	0	0
2024-10-10 14:47:47			0	39008	0	0	0	21748	20330	158469	27000	1056051	46308	107988	0	0	8265	525338	0	0
2024-10-10 14:48:47			0	39000	0	0	0	21761	20330	158381	27164	1056077	46296	107993	0	0	8264	525644	0	0
2024-10-10 14:49:47			0	38988	0	0	0	21763	20320	158401	27542	1055953	46285	107994	0	0	8264	526133	0	0
2024-10-10 14:50:47			0	39002	0	0	0	21758	20310	158453	27215	1056024	46294	107992	0	0	8264	525626	0	0
2024-10-10 14:51:47			0	39012	0	0	0	21758	20320	158477	27428	1056068	46308	107992	0	0	8265	525214	0	0
2024-10-10 14:52:47			0	39001	0	0	0	21763	20320	158429	27057	1055980	46307	107994	0	0	8264	525635	0	0
2024-10-10 14:53:47			0	39007	0	0	0	21763	20320	158449	27372	1055980	46307	107994	0	0	8265	525405	0	0
2024-10-10 14:54:47			0	38998	0	0	0	21758	20330	158365	27310	1056033	46319	107992	0	0	8264	525721	0	0
2024-10-10 14:55:47			0	38994	0	0	0	21761	20320	158277	27303	1056068	46286	107993	0	0	8264	525903	0	0
2024-10-10 14:56:47			0	39005	0	0	0	21761	20320	158397	27277	1056042	46308	107993	0	0	8265	525482	0	0
2024-10-10 14:57:47			0	38989	0	0	0	21758	20320	158273	27298	1056015	46296	107992	0	0	8264	526094	0	0
2024-10-10 14:58:47			0	38992	0	0	0	21761	20330	158277	27476	1055997	46296	107993	0	0	8264	525950	0	0
2024-10-10 14:59:47			0	39019	0	0	0	21758	20330	158301	27072	1056086	46308	107992	0	0	8265	524917	0	0
2024-10-10 15:00:47			0	39000	0	0	0	21761	20320	158325	27426	1056068	46319	107993	0	0	8264	525673	0	0
2024-10-10 15:01:47			0	39006	0	0	0	21768	20330	158305	27232	1056024	46308	107996	0	0	8265	525415	0	0
2024-10-10 15:02:47			0	38991	0	0	0	21761	20330	158281	27211	1055997	46308	107993	0	0	8264	525989	0	0
2024-10-10 15:03:47			0	39002	0	0	0	21758	20310	158333	27260	1056024	46306	107992	0	0	8264	525626	0	0
2024-10-10 15:04:47			0	39002	0	0	0	21763	20330	158429	27227	1056024	46308	107994	0	0	8264	525568	0	0
2024-10-10 15:05:47			0	39003	0	0	0	21753	20320	158305	27275	1056015	46296	107990	0	0	8265	525558	0	0
2024-10-10 15:06:47			0	38987	0	0	0	21761	20330	158349	27372	1056051	46286	107993	0	0	8264	526142	0	0
2024-10-10 15:07:47			0	38996	0	0	0	21766	20320	158245	27573	1055962	46308	107995	0	0	8264	525826	0	0
2024-10-10 15:08:47			0	38997	0	0	0	21761	20340	158457	27383	1056051	46298	107993	0	0	8264	525730	0	0
2024-10-10 15:09:47			0	38987	0	0	0	21753	20330	158497	27284	1056033	46319	107990	0	0	8264	526142	0	0
2024-10-10 15:10:47			0	38985	0	0	0	21758	20320	158497	27303	1055988	46296	107992	0	0	8263	526248	0	0
2024-10-10 15:11:47			0	38987	0	0	0	21753	20330	158445	27303	1056024	46296	107990	0	0	8264	526142	0	0
2024-10-10 15:12:47			0	38988	0	0	0	21761	20320	158477	27371	1056015	46296	107993	0	0	8264	526133	0	0
2024-10-10 15:13:47			0	38988	0	0	0	21763	20330	158453	27327	1056077	46286	107994	0	0	8264	526104	0	0
2024-10-10 15:14:47			0	38989	0	0	0	21753	20330	158429	27218	1056033	46319	107990	0	0	8264	526065	0	0
2024-10-10 15:15:47			0	38986	0	0	0	21761	20330	158553	27076	1056086	46296	107993	0	0	8263	526180	0	0
2024-10-10 15:16:47			0	38997	0	0	0	21763	20330	158553	27466	1056006	46296	107994	0	0	8264	525759	0	0
2024-10-10 15:17:47			0	38983	0	0	0	21758	20320	158477	27334	1055988	46319	107992	0	0	8263	526324	0	0
2024-10-10 15:18:47			0	38983	0	0	0	21758	20330	158425	27235	1056086	46286	107992	0	0	8263	526295	0	0
2024-10-10 15:19:47			0	38970	0	0	0	21761	20330	158385	27263	1056033	46308	107993	0	0	8263	526793	0	0
2024-10-10 15:20:47			0	38979	0	0	0	21761	20320	158481	27386	1056042	46308	107993	0	0	8263	526477	0	0
2024-10-10 15:21:47			0	38980	0	0	0	21758	20330	158469	27177	1056051	46308	107992	0	0	8263	526410	0	0
2024-10-10 15:22:47			0	38980	0	0	0	21761	20330	158381	27202	1056051	46308	107993	0	0	8263	526410	0	0
2024-10-10 15:23:47			0	38964	0	0	0	21761	20320	158449	27211	1056015	46296	107993	0	0	8262	527052	0	0
2024-10-10 15:24:47			0	38962	0	0	0	21758	20330	158433	27005	1056077	46308	107992	0	0	8262	527100	0	0
2024-10-10 15:25:47			0	38972	0	0	0	21755	20320	158461	27223	1056042	46296	107991	0	0	8263	526746	0	0
2024-10-10 15:26:47			0	38975	0	0	0	21761	20330	158389	27294	1055997	46308	107993	0	0	8263	526602	0	0
2024-10-10 15:27:47			0	38981	0	0	0	21761	20330	158421	27102	1056077	46296	107993	0	0	8263	526372	0	0
2024-10-10 15:28:47			0	38991	0	0	0	21768	20330	158405	27168	1056060	46308	107996	0	0	8264	525989	0	0
2024-10-10 15:29:47			0	38991	0	0	0	21763	20320	158505	27121	1055988	46308	107994	0	0	8264	526018	0	0
2024-10-10 15:30:47			0	38996	0	0	0	21771	20320	158361	27168	1055988	46296	107997	0	0	8264	525826	0	0
2024-10-10 15:31:47			0	38990	0	0	0	21755	20330	158313	26828	1055997	46296	107991	0	0	8264	526027	0	0
2024-10-10 15:32:47			0	38993	0	0	0	21758	20340	158301	26989	1056042	46309	107992	0	0	8264	525883	0	0
2024-10-10 15:33:47			0	38997	0	0	0	21763	20320	158361	27111	1055980	46307	107994	0	0	8264	525788	0	0
2024-10-10 15:34:47			0	38975	0	0	0	21753	20330	158401	26923	1056024	46308	107990	0	0	8263	526602	0	0
2024-10-10 15:35:47			0	38991	0	0	0	21750	20330	158393	26942	1056060	46319	107989	0	0	8264	525989	0	0
2024-10-10 15:36:47			0	38968	0	0	0	21758	20330	158445	26899	1056051	46296	107992	0	0	8262	526870	0	0
2024-10-10 15:37:47			0	38979	0	0	0	21753	20320	158377	27126	1055988	46308	107990	0	0	8263	526477	0	0
2024-10-10 15:38:47			0	38969	0	0	0	21766	20320	158437	27166	1056042	46296	107995	0	0	8262	526861	0	0
2024-10-10 15:39:47			0	38958	0	0	0	21753	20330	158321	27107	1056006	46286	107990	0	0	8262	527253	0	0
2024-10-10 15:40:47			0	38977	0	0	0	21763	20320	158393	27131	1056042	46308	107994	0	0	8263	526554	0	0
2024-10-10 15:41:47			0	38967	0	0	0	21748	20320	158341	27157	1056042	46286	107988	0	0	8263	526937	0	0
2024-10-10 15:42:47			0	38962	0	0	0	21753	20320	158389	27170	1055980	46307	107990	0	0	8262	527129	0	0
2024-10-10 15:43:47			0	38950	0	0	0	21761	20320	158469	27156	1056006	46307	107993	0	0	8261	527589	0	0
2024-10-10 15:44:47			0	38958	0	0	0	21750	20320	158525	27081	1056042	46308	107989	0	0	8262	527283	0	0
2024-10-10 15:45:47			0	38953	0	0	0	21758	20320	158413	27039	1055988	46308	107992	0	0	8262	527474	0	0
2024-10-10 15:46:47			0	38944	0	0	0	21758	20310	158369	26840	1055997	46306	107992	0	0	8261	527849	0	0
2024-10-10 15:47:47			0	38967	0	0	0	21753	20320	158369	26965	1055988	46296	107990	0	0	8262	526937	0	0
2024-10-10 15:48:47			0	38976	0	0	0	21755	20320	158501	27102	1055988	46296	107991	0	0	8263	526592	0	0
2024-10-10 15:49:47			0	38984	0	0	0	21750	20320	158453	26713	1056015	46308	107989	0	0	8264	526286	0	0
2024-10-10 15:50:47			0	38955	0	0	0	21755	20320	158493	27220	1056015	46296	107991	0	0	8262	527397	0	0
2024-10-10 15:51:47			0	38971	0	0	0	21755	20310	158401	26788	1055935	46293	107991	0	0	8263	526813	0	0
2024-10-10 15:52:47			0	38957	0	0	0	21750	20320	158441	27128	1056015	46308	107989	0	0	8262	527321	0	0
2024-10-10 15:53:47			0	38974	0	0	0	21753	20320	158561	27372	1056015	46319	107990	0	0	8263	526669	0	0
2024-10-10 15:54:47			0	38963	0	0	0	21748	20320	158545	26989	1056015	46296	107988	0	0	8262	527091	0	0
2024-10-10 15:55:47			0	38952	0	0	0	21748	20330	158509	27149	1056024	46308	107988	0	0	8262	527483	0	0
2024-10-10 15:56:47			0	38939	0	0	0	21753	20320	158505	27067	1056015	46308	107990	0	0	8261	528011	0	0
2024-10-10 15:57:47			0	38967	0	0	0	21750	20320	158457	27098	1056015	46296	107989	0	0	8263	526937	0	0
2024-10-10 15:58:47			0	38970	0	0	0	21745	20310	158581	27079	1056050	46306	107987	0	0	8263	526851	0	0
2024-10-10 15:59:47			0	38950	0	0	0	21748	20310	158521	26847	1055997	46294	107988	0	0	8262	527619	0	0
2024-10-10 16:00:47			0	38952	0	0	0	21742	20310	158441	26890	1055935	46283	107986	0	0	8262	527542	0	0
2024-10-10 16:01:47			0	38936	0	0	0	21745	20320	158525	26804	1056006	46295	107987	0	0	8261	528127	0	0
2024-10-10 16:02:47			0	38949	0	0	0	21755	20310	158545	26982	1055962	46283	107991	0	0	8261	527657	0	0
2024-10-10 16:03:47			0	38942	0	0	0	21742	20320	158593	27062	1055953	46307	107986	0	0	8261	527896	0	0
2024-10-10 16:04:47			0	38941	0	0	0	21745	20310	158545	27239	1055944	46284	107987	0	0	8261	527964	0	0
2024-10-10 16:05:47			0	38943	0	0	0	21742	20310	158649	26972	1055997	46306	107986	0	0	8261	527887	0	0
2024-10-10 16:06:47			0	38951	0	0	0	21745	20320	158621	27203	1055980	46307	107987	0	0	8262	527551	0	0
2024-10-10 16:07:47			0	38945	0	0	0	21737	20320	158613	27116	1055953	46307	107984	0	0	8261	527781	0	0
2024-10-10 16:08:47			0	38944	0	0	0	21740	20310	158569	27199	1055962	46283	107985	0	0	8261	527849	0	0
2024-10-10 16:09:47			0	38931	0	0	0	21737	20320	158581	26882	1055980	46295	107984	0	0	8261	528319	0	0
2024-10-10 16:10:47			0	38942	0	0	0	21729	20310	158629	27367	1055935	46316	107981	0	0	8261	527925	0	0
2024-10-10 16:11:47			0	38959	0	0	0	21737	20310	158661	27372	1055962	46293	107984	0	0	8262	527273	0	0
2024-10-10 16:12:47			0	38929	0	0	0	21724	20310	158629	27267	1055935	46305	107979	0	0	8261	528425	0	0
2024-10-10 16:13:47			0	38916	0	0	0	21729	20320	158621	27244	1055953	46285	107981	0	0	8260	528895	0	0
2024-10-10 16:14:47			0	38919	0	0	0	21724	20310	158625	27305	1055891	46294	107979	0	0	8260	528809	0	0
2024-10-10 16:15:47			0	38917	0	0	0	21727	20300	158697	27045	1055953	46305	107980	0	0	8260	528915	0	0
2024-10-10 16:16:47			0	38900	0	0	0	21727	20310	158697	27173	1055908	46293	107980	0	0	8259	529539	0	0
2024-10-10 16:17:47			0	38923	0	0	0	21729	20300	158549	27008	1055900	46305	107981	0	0	8260	528684	0	0
2024-10-10 16:18:47			0	38914	0	0	0	21722	20300	158753	27211	1055917	46305	107978	0	0	8260	529030	0	0
2024-10-10 16:19:47			0	38912	0	0	0	21735	20300	158661	27045	1055900	46305	107983	0	0	8259	529107	0	0
2024-10-10 16:20:47			0	38918	0	0	0	21727	20310	158765	27206	1055908	46293	107980	0	0	8260	528847	0	0
2024-10-10 16:21:47			0	38900	0	0	0	21742	20290	158717	27424	1055935	46304	107986	0	0	8259	529597	0	0
2024-10-10 16:22:47			0	38894	0	0	0	21750	20310	158757	27448	1055962	46293	107989	0	0	8258	529770	0	0
2024-10-10 16:23:47			0	38906	0	0	0	21742	20300	158805	26946	1055891	46305	107986	0	0	8259	529338	0	0
2024-10-10 16:24:47			0	38896	0	0	0	21753	20310	158829	27116	1055962	46316	107990	0	0	8258	529693	0	0
2024-10-10 16:25:47			0	38886	0	0	0	21735	20310	158829	26996	1055962	46305	107983	0	0	8258	530077	0	0
2024-10-10 16:26:47			0	38896	0	0	0	21742	20310	158797	27251	1055935	46293	107986	0	0	8258	529693	0	0
2024-10-10 16:27:47			0	38891	0	0	0	21742	20310	158793	27447	1055935	46293	107986	0	0	8258	529885	0	0
2024-10-10 16:28:47			0	38903	0	0	0	21742	20310	158749	26935	1055917	46306	107986	0	0	8259	529423	0	0
2024-10-10 16:29:47			0	38906	0	0	0	21740	20310	158817	27313	1055997	46306	107985	0	0	8259	529308	0	0
2024-10-10 16:30:47			0	38897	0	0	0	21735	20310	158877	27230	1055988	46305	107983	0	0	8259	529654	0	0
2024-10-10 16:31:47			0	38903	0	0	0	21745	20310	158777	27332	1055997	46306	107987	0	0	8259	529423	0	0
2024-10-10 16:32:47			0	38904	0	0	0	21740	20310	158873	26868	1055962	46305	107985	0	0	8259	529385	0	0
2024-10-10 16:33:47			0	38897	0	0	0	21737	20300	158889	27000	1055926	46316	107984	0	0	8259	529683	0	0
2024-10-10 16:34:47			0	38901	0	0	0	21735	20300	158821	27237	1056006	46293	107983	0	0	8259	529530	0	0
2024-10-10 16:35:47			0	38886	0	0	0	21737	20300	158813	27223	1055900	46305	107984	0	0	8258	530107	0	0
2024-10-10 16:36:47			0	38895	0	0	0	21737	20300	158837	27249	1055953	46293	107984	0	0	8258	529760	0	0
2024-10-10 16:37:47			0	38912	0	0	0	21737	20290	158757	27206	1055926	46303	107984	0	0	8259	529136	0	0
2024-10-10 16:38:47			0	38909	0	0	0	21742	20300	158669	27215	1055926	46316	107986	0	0	8259	529222	0	0
2024-10-10 16:39:47			0	38910	0	0	0	21742	20310	158629	27272	1055962	46305	107986	0	0	8259	529154	0	0
2024-10-10 16:40:47			0	38909	0	0	0	21745	20300	158717	26941	1055979	46305	107987	0	0	8259	529222	0	0
2024-10-10 16:41:47			0	38909	0	0	0	21742	20310	158645	27275	1055944	46317	107986	0	0	8259	529193	0	0
2024-10-10 16:42:47			0	38920	0	0	0	21742	20310	158765	26977	1055971	46294	107986	0	0	8260	528770	0	0
2024-10-10 16:43:47			0	38914	0	0	0	21742	20310	158765	27258	1055971	46306	107986	0	0	8260	529001	0	0
2024-10-10 16:44:47			0	38917	0	0	0	21740	20310	158713	26913	1055935	46305	107985	0	0	8260	528885	0	0
2024-10-10 16:45:47			0	38904	0	0	0	21740	20320	158645	27329	1056006	46285	107985	0	0	8259	529356	0	0
2024-10-10 16:46:47			0	38920	0	0	0	21750	20320	158701	27062	1056006	46285	107989	0	0	8260	528741	0	0
2024-10-10 16:47:47			0	38914	0	0	0	21742	20310	158829	27431	1055988	46316	107986	0	0	8260	529001	0	0
2024-10-10 16:48:47			0	38899	0	0	0	21740	20310	158789	27126	1055971	46317	107985	0	0	8259	529577	0	0
2024-10-10 16:49:47			0	38907	0	0	0	21745	20300	158717	27076	1055926	46305	107987	0	0	8259	529299	0	0
2024-10-10 16:50:47			0	38899	0	0	0	21745	20320	158737	27202	1056059	46307	107987	0	0	8259	529548	0	0
2024-10-10 16:51:47			0	38909	0	0	0	21748	20310	158817	27293	1055971	46294	107988	0	0	8259	529193	0	0
2024-10-10 16:52:47			0	38886	0	0	0	21753	20310	158937	27090	1055962	46293	107990	0	0	8258	530077	0	0
2024-10-10 16:53:47			0	38881	0	0	0	21745	20300	158833	26871	1055953	46293	107987	0	0	8258	530299	0	0
2024-10-10 16:54:47			0	38892	0	0	0	21750	20320	158785	27154	1055980	46295	107989	0	0	8258	529817	0	0
2024-10-10 16:55:47			0	38877	0	0	0	21745	20310	158897	27024	1055997	46294	107987	0	0	8257	530424	0	0
2024-10-10 16:56:47			0	38892	0	0	0	21740	20310	158805	27133	1055944	46294	107985	0	0	8258	529846	0	0
2024-10-10 16:57:47			0	38898	0	0	0	21745	20310	158769	27017	1055997	46294	107987	0	0	8259	529616	0	0
2024-10-10 16:58:47			0	38892	0	0	0	21748	20300	158721	26864	1055926	46305	107988	0	0	8258	529876	0	0
2024-10-10 16:59:47			0	38912	0	0	0	21740	20300	158833	27197	1055979	46316	107985	0	0	8259	529107	0	0
2024-10-10 17:00:47			0	38920	0	0	0	21737	20320	158737	27050	1055980	46318	107984	0	0	8260	528741	0	0
2024-10-10 17:01:47			0	38914	0	0	0	21740	20320	158717	27348	1056006	46307	107985	0	0	8260	528971	0	0
2024-10-10 17:02:47			0	38922	0	0	0	21753	20310	158677	27019	1055971	46306	107990	0	0	8260	528693	0	0
2024-10-10 17:03:47			0	38904	0	0	0	21745	20300	158801	27204	1056006	46305	107987	0	0	8259	529414	0	0
2024-10-10 17:04:47			0	38907	0	0	0	21748	20320	158753	27197	1055988	46308	107988	0	0	8259	529240	0	0
2024-10-10 17:05:47			0	38905	0	0	0	21750	20310	158825	27372	1056024	46306	107989	0	0	8259	529347	0	0
2024-10-10 17:06:47			0	38915	0	0	0	21750	20320	158673	27074	1055980	46318	107989	0	0	8260	528933	0	0
2024-10-10 17:07:47			0	38924	0	0	0	21750	20320	158777	27300	1055980	46318	107989	0	0	8260	528587	0	0
2024-10-10 17:08:47			0	38924	0	0	0	21745	20320	158613	27554	1056042	46308	107987	0	0	8260	528587	0	0
2024-10-10 17:09:47			0	38934	0	0	0	21750	20320	158605	27204	1056015	46308	107989	0	0	8261	528203	0	0
2024-10-10 17:10:47			0	38907	0	0	0	21748	20320	158665	26861	1056033	46307	107988	0	0	8259	529240	0	0
2024-10-10 17:11:47			0	38929	0	0	0	21753	20310	158613	26762	1055997	46306	107990	0	0	8260	528425	0	0
2024-10-10 17:12:47			0	38916	0	0	0	21750	20320	158665	27310	1056033	46307	107989	0	0	8260	528895	0	0
2024-10-10 17:13:47			0	38923	0	0	0	21750	20320	158701	26733	1056033	46318	107989	0	0	8260	528626	0	0
2024-10-10 17:14:47			0	38916	0	0	0	21748	20310	158697	27012	1055997	46317	107988	0	0	8260	528924	0	0
2024-10-10 17:15:47			0	38905	0	0	0	21761	20320	158773	26838	1055988	46296	107993	0	0	8259	529317	0	0
2024-10-10 17:16:47			0	38878	0	0	0	21750	20320	158777	27045	1056033	46307	107989	0	0	8257	530356	0	0
2024-10-10 17:17:47			0	38878	0	0	0	21750	20320	158705	26864	1056015	46308	107989	0	0	8257	530356	0	0
2024-10-10 17:18:47			0	38886	0	0	0	21750	20320	158773	27138	1055953	46285	107989	0	0	8258	530048	0	0
2024-10-10 17:19:47			0	38911	0	0	0	21750	20320	158713	26890	1056033	46285	107989	0	0	8259	529087	0	0
2024-10-10 17:20:47			0	38911	0	0	0	21753	20320	158617	27241	1055988	46296	107990	0	0	8259	529087	0	0
2024-10-10 17:21:47			0	38919	0	0	0	21758	20320	158593	27255	1056006	46307	107992	0	0	8260	528779	0	0
2024-10-10 17:22:47			0	38925	0	0	0	21742	20310	158665	27183	1055997	46294	107986	0	0	8260	528578	0	0
2024-10-10 17:23:47			0	38926	0	0	0	21745	20320	158609	26868	1055980	46295	107987	0	0	8260	528511	0	0
2024-10-10 17:24:47			0	38939	0	0	0	21742	20320	158517	27052	1055962	46319	107986	0	0	8261	528011	0	0
2024-10-10 17:25:47			0	38927	0	0	0	21742	20320	158625	27189	1056006	46295	107986	0	0	8260	528472	0	0
2024-10-10 17:26:47			0	38910	0	0	0	21748	20320	158617	27118	1055962	46319	107988	0	0	8259	529125	0	0
2024-10-10 17:27:47			0	38931	0	0	0	21748	20320	158641	26752	1056006	46295	107988	0	0	8260	528319	0	0
2024-10-10 17:28:47			0	38925	0	0	0	21740	20320	158545	27031	1056006	46318	107985	0	0	8260	528549	0	0
2024-10-10 17:29:47			0	38926	0	0	0	21745	20310	158629	27131	1055962	46293	107987	0	0	8260	528540	0	0
2024-10-10 17:30:47			0	38930	0	0	0	21750	20320	158669	26956	1055962	46308	107989	0	0	8260	528357	0	0
2024-10-10 17:31:47			0	38937	0	0	0	21740	20310	158677	26989	1055971	46306	107985	0	0	8261	528117	0	0
2024-10-10 17:32:47			0	38926	0	0	0	21750	20310	158709	27083	1055997	46306	107989	0	0	8260	528540	0	0
2024-10-10 17:33:47			0	38926	0	0	0	21742	20320	158673	26970	1056015	46286	107986	0	0	8260	528511	0	0
2024-10-10 17:34:47			0	38918	0	0	0	21737	20310	158585	26786	1055944	46317	107984	0	0	8260	528847	0	0
2024-10-10 17:35:47			0	38918	0	0	0	21742	20310	158581	26887	1055971	46306	107986	0	0	8260	528847	0	0
2024-10-10 17:36:47			0	38928	0	0	0	21740	20310	158585	26844	1055997	46294	107985	0	0	8260	528463	0	0
2024-10-10 17:37:47			0	38916	0	0	0	21740	20310	158529	26781	1055971	46306	107985	0	0	8260	528924	0	0
2024-10-10 17:38:47			0	38915	0	0	0	21740	20320	158609	26883	1055926	46307	107985	0	0	8260	528933	0	0
2024-10-10 17:39:47			0	38921	0	0	0	21742	20300	158673	26795	1055979	46293	107986	0	0	8260	528761	0	0
2024-10-10 17:40:47			0	38898	0	0	0	21742	20310	158597	27057	1055997	46273	107986	0	0	8259	529616	0	0
2024-10-10 17:41:47			0	38888	0	0	0	21742	20310	158685	26857	1056015	46316	107986	0	0	8258	530000	0	0
2024-10-10 17:42:47			0	38893	0	0	0	21737	20310	158797	27159	1055962	46305	107984	0	0	8258	529808	0	0
2024-10-10 17:43:47			0	38880	0	0	0	21742	20320	158713	26781	1056015	46296	107986	0	0	8258	530279	0	0
2024-10-10 17:44:47			0	38878	0	0	0	21737	20310	158753	26880	1055997	46306	107984	0	0	8258	530385	0	0
2024-10-10 17:45:47			0	38894	0	0	0	21735	20320	158649	26946	1055980	46295	107983	0	0	8259	529740	0	0
2024-10-10 17:46:47			0	38900	0	0	0	21745	20310	158673	27097	1055962	46305	107987	0	0	8259	529539	0	0
2024-10-10 17:47:47			0	38901	0	0	0	21745	20310	158657	27072	1055944	46306	107987	0	0	8259	529500	0	0
2024-10-10 17:48:47			0	38912	0	0	0	21732	20310	158665	26908	1055971	46317	107982	0	0	8260	529078	0	0
2024-10-10 17:49:47			0	38893	0	0	0	21735	20310	158753	26918	1056015	46305	107983	0	0	8258	529808	0	0
2024-10-10 17:50:47			0	38906	0	0	0	21732	20310	158673	26625	1055971	46306	107982	0	0	8259	529308	0	0
2024-10-10 17:51:47			0	38902	0	0	0	21745	20300	158701	26918	1055953	46305	107987	0	0	8259	529491	0	0
2024-10-10 17:52:47			0	38900	0	0	0	21735	20320	158789	27046	1055953	46295	107983	0	0	8259	529510	0	0
2024-10-10 17:53:47			0	38904	0	0	0	21735	20300	158725	27258	1055979	46305	107983	0	0	8259	529414	0	0
2024-10-10 17:54:47			0	38907	0	0	0	21729	20310	158777	27085	1055962	46305	107981	0	0	8259	529270	0	0
2024-10-10 17:55:47			0	38902	0	0	0	21740	20310	158761	27085	1056015	46305	107985	0	0	8259	529462	0	0
2024-10-10 17:56:47			0	38884	0	0	0	21735	20310	158829	26844	1055988	46305	107983	0	0	8258	530154	0	0
2024-10-10 17:57:47			0	38874	0	0	0	21742	20310	158701	27095	1055988	46293	107986	0	0	8257	530539	0	0
2024-10-10 17:58:47			0	38897	0	0	0	21742	20310	158785	26982	1055962	46293	107986	0	0	8259	529654	0	0
2024-10-10 17:59:47			0	38882	0	0	0	21735	20300	158733	27086	1055970	46305	107983	0	0	8258	530260	0	0
2024-10-10 18:00:47			0	38888	0	0	0	21732	20300	158821	26648	1055979	46305	107982	0	0	8258	530030	0	0
2024-10-10 18:01:47			0	38887	0	0	0	21735	20310	158861	26821	1055935	46316	107983	0	0	8258	530039	0	0
2024-10-10 18:02:47			0	38880	0	0	0	21735	20300	158901	26779	1055926	46305	107983	0	0	8258	530337	0	0
2024-10-10 18:03:47			0	38876	0	0	0	21732	20310	158909	26734	1055988	46316	107982	0	0	8257	530462	0	0
2024-10-10 18:04:47			0	38903	0	0	0	21732	20300	158777	27000	1055970	46283	107982	0	0	8259	529453	0	0
2024-10-10 18:05:47			0	38874	0	0	0	21740	20310	158805	26785	1055944	46306	107985	0	0	8257	530539	0	0
2024-10-10 18:06:47			0	38883	0	0	0	21735	20300	158849	27201	1055917	46293	107983	0	0	8258	530222	0	0
2024-10-10 18:07:47			0	38884	0	0	0	21729	20300	158809	26667	1055926	46283	107981	0	0	8258	530183	0	0
2024-10-10 18:08:47			0	38901	0	0	0	21729	20310	158777	26958	1055935	46305	107981	0	0	8259	529500	0	0
2024-10-10 18:09:47			0	38892	0	0	0	21740	20310	158829	26923	1055962	46305	107985	0	0	8258	529846	0	0
2024-10-10 18:10:47			0	38893	0	0	0	21737	20300	158697	27072	1055953	46305	107984	0	0	8258	529837	0	0
2024-10-10 18:11:47			0	38881	0	0	0	21737	20310	158733	27159	1055962	46316	107984	0	0	8258	530270	0	0
2024-10-10 18:12:47			0	38890	0	0	0	21735	20300	158677	26953	1055953	46305	107983	0	0	8258	529953	0	0
2024-10-10 18:13:47			0	38890	0	0	0	21732	20300	158681	26819	1055979	46283	107982	0	0	8258	529953	0	0
2024-10-10 18:14:47			0	38899	0	0	0	21729	20310	158793	27112	1055935	46305	107981	0	0	8259	529577	0	0
2024-10-10 18:15:47			0	38879	0	0	0	21740	20290	158793	27154	1055908	46304	107985	0	0	8257	530405	0	0
2024-10-10 18:16:47			0	38872	0	0	0	21732	20300	158829	26779	1056006	46316	107982	0	0	8257	530645	0	0
2024-10-10 18:17:47			0	38877	0	0	0	21732	20310	158953	27227	1055908	46316	107982	0	0	8258	530424	0	0
2024-10-10 18:18:47			0	38869	0	0	0	21737	20300	158805	26765	1055917	46293	107984	0	0	8257	530761	0	0
2024-10-10 18:19:47			0	38884	0	0	0	21727	20300	158829	26774	1055926	46293	107980	0	0	8258	530183	0	0
2024-10-10 18:20:47			0	38875	0	0	0	21732	20310	158853	27147	1055962	46305	107982	0	0	8257	530501	0	0
2024-10-10 18:21:47			0	38867	0	0	0	21724	20300	158781	27287	1055979	46305	107979	0	0	8257	530838	0	0
2024-10-10 18:22:47			0	38870	0	0	0	21729	20300	158905	27159	1055944	46305	107981	0	0	8257	530722	0	0
2024-10-10 18:23:47			0	38871	0	0	0	21732	20300	158869	26743	1055953	46305	107982	0	0	8257	530684	0	0
2024-10-10 18:24:47			0	38867	0	0	0	21727	20300	158857	26783	1055953	46305	107980	0	0	8257	530838	0	0
2024-10-10 18:25:47			0	38876	0	0	0	21724	20310	158745	26857	1055962	46293	107979	0	0	8258	530462	0	0
2024-10-10 18:26:47			0	38882	0	0	0	21735	20300	158837	26922	1055891	46293	107983	0	0	8258	530260	0	0
2024-10-10 18:27:47			0	38879	0	0	0	21732	20290	158901	26908	1055961	46304	107982	0	0	8258	530405	0	0
2024-10-10 18:28:47			0	38871	0	0	0	21735	20300	158905	27034	1055917	46305	107983	0	0	8257	530684	0	0
2024-10-10 18:29:47			0	38863	0	0	0	21735	20300	158933	26998	1055970	46272	107983	0	0	8257	530992	0	0
2024-10-10 18:30:47			0	38894	0	0	0	21732	20290	158817	27209	1055935	46304	107982	0	0	8258	529828	0	0
2024-10-10 18:31:47			0	38876	0	0	0	21727	20300	158981	26798	1055953	46305	107980	0	0	8258	530491	0	0
2024-10-10 18:32:47			0	38878	0	0	0	21729	20300	158949	27064	1055926	46283	107981	0	0	8258	530414	0	0
2024-10-10 18:33:47			0	38871	0	0	0	21732	20300	158913	26700	1055953	46316	107982	0	0	8257	530684	0	0
2024-10-10 18:34:47			0	38871	0	0	0	21732	20310	158845	26880	1055908	46305	107982	0	0	8257	530655	0	0
2024-10-10 18:35:47			0	38851	0	0	0	21722	20300	158945	26967	1055944	46305	107978	0	0	8256	531454	0	0
2024-10-10 18:36:47			0	38856	0	0	0	21722	20300	158965	27010	1055944	46305	107978	0	0	8256	531262	0	0
2024-10-10 18:37:47			0	38859	0	0	0	21716	20300	158897	26951	1055926	46293	107976	0	0	8257	531146	0	0
2024-10-10 18:38:47			0	38849	0	0	0	21729	20300	158877	26791	1055900	46272	107981	0	0	8256	531531	0	0
2024-10-10 18:39:47			0	38853	0	0	0	21724	20290	158985	26769	1055961	46304	107979	0	0	8256	531406	0	0
2024-10-10 18:40:47			0	38865	0	0	0	21729	20300	158877	26731	1055917	46316	107981	0	0	8257	530915	0	0
2024-10-10 18:41:47			0	38885	0	0	0	21727	20300	158701	27118	1055891	46305	107980	0	0	8258	530145	0	0
2024-10-10 18:42:47			0	38854	0	0	0	21724	20300	158781	27183	1055873	46305	107979	0	0	8256	531339	0	0
2024-10-10 18:43:47			0	38868	0	0	0	21722	20300	158797	27241	1055917	46305	107978	0	0	8257	530799	0	0
2024-10-10 18:44:47			0	38863	0	0	0	21724	20300	158945	27062	1055864	46316	107979	0	0	8257	530992	0	0
2024-10-10 18:45:47			0	38856	0	0	0	21719	20310	158925	26727	1055988	46305	107977	0	0	8257	531232	0	0
2024-10-10 18:46:47			0	38858	0	0	0	21727	20300	158925	27176	1055900	46305	107980	0	0	8256	531184	0	0
2024-10-10 18:47:47			0	38894	0	0	0	21729	20300	158901	26918	1055917	46293	107981	0	0	8259	529799	0	0
2024-10-10 18:48:47			0	38875	0	0	0	21729	20290	158797	26727	1055935	46282	107981	0	0	8257	530559	0	0
2024-10-10 18:49:47			0	38860	0	0	0	21719	20290	158801	27131	1055882	46292	107977	0	0	8257	531137	0	0
2024-10-10 18:50:47			0	38872	0	0	0	21729	20290	158921	27241	1055952	46291	107981	0	0	8257	530675	0	0
2024-10-10 18:51:47			0	38850	0	0	0	21724	20290	158797	27336	1055908	46304	107979	0	0	8256	531522	0	0
2024-10-10 18:52:47			0	38848	0	0	0	21714	20280	158893	27182	1055890	46291	107975	0	0	8256	531628	0	0
2024-10-10 18:53:47			0	38867	0	0	0	21724	20300	158897	27201	1055900	46293	107979	0	0	8257	530838	0	0
2024-10-10 18:54:47			0	38880	0	0	0	21716	20290	158945	26920	1055855	46292	107976	0	0	8258	530367	0	0
2024-10-10 18:55:47			0	38856	0	0	0	21724	20300	158733	27114	1055926	46305	107979	0	0	8256	531262	0	0
2024-10-10 18:56:47			0	38860	0	0	0	21719	20290	158757	26972	1055908	46292	107977	0	0	8257	531137	0	0
2024-10-10 18:57:47			0	38868	0	0	0	21729	20300	158793	27189	1055864	46305	107981	0	0	8257	530799	0	0
2024-10-10 18:58:47			0	38867	0	0	0	21729	20280	158765	27046	1055917	46303	107981	0	0	8257	530896	0	0
2024-10-10 18:59:47			0	38863	0	0	0	21722	20300	158793	26967	1055944	46305	107978	0	0	8257	530992	0	0
2024-10-10 19:00:47			0	38851	0	0	0	21724	20290	158985	27348	1055899	46314	107979	0	0	8256	531483	0	0
2024-10-10 19:01:47			0	38851	0	0	0	21716	20290	158997	27064	1055926	46314	107976	0	0	8256	531483	0	0
2024-10-10 19:02:47			0	38842	0	0	0	21719	20290	159001	26949	1055908	46304	107977	0	0	8256	531830	0	0
2024-10-10 19:03:47			0	38836	0	0	0	21719	20290	159117	26960	1055882	46304	107977	0	0	8255	532062	0	0
2024-10-10 19:04:47			0	38840	0	0	0	21716	20290	159041	26795	1055899	46314	107976	0	0	8256	531907	0	0
2024-10-10 19:05:47			0	38808	0	0	0	21722	20290	159105	27123	1055908	46304	107978	0	0	8254	533142	0	0
2024-10-10 19:06:47			0	38806	0	0	0	21722	20290	159185	27242	1055935	46315	107978	0	0	8254	533219	0	0
2024-10-10 19:07:47			0	38801	0	0	0	21714	20290	159185	27203	1055899	46303	107975	0	0	8253	533412	0	0
2024-10-10 19:08:47			0	38778	0	0	0	21711	20300	159289	27260	1055891	46293	107974	0	0	8252	534271	0	0
2024-10-10 19:09:47			0	38761	0	0	0	21711	20290	159473	26948	1055899	46303	107974	0	0	8251	534958	0	0
2024-10-10 19:10:47			0	38753	0	0	0	21714	20290	159381	26949	1055935	46315	107975	0	0	8251	535268	0	0
2024-10-10 19:11:47			0	38729	0	0	0	21709	20280	159429	27135	1055881	46303	107973	0	0	8249	536227	0	0
2024-10-10 19:12:47			0	38739	0	0	0	21719	20290	159381	27069	1055873	46291	107977	0	0	8250	535810	0	0
2024-10-10 19:13:47			0	38728	0	0	0	21711	20280	159505	27121	1055943	46314	107974	0	0	8249	536265	0	0
2024-10-10 19:14:47			0	38762	0	0	0	21703	20280	159365	27376	1055837	46314	107971	0	0	8251	534949	0	0
2024-10-10 19:15:47			0	38737	0	0	0	21703	20290	159461	27206	1055846	46303	107971	0	0	8250	535887	0	0
2024-10-10 19:16:47			0	38735	0	0	0	21709	20290	159557	27095	1055899	46303	107973	0	0	8250	535965	0	0
2024-10-10 19:17:47			0	38742	0	0	0	21703	20280	159525	27055	1055837	46291	107971	0	0	8250	535723	0	0
2024-10-10 19:18:47			0	38723	0	0	0	21722	20280	159393	27170	1055828	46303	107978	0	0	8249	536459	0	0
2024-10-10 19:19:47			0	38727	0	0	0	21714	20280	159352	26923	1055881	46303	107975	0	0	8249	536304	0	0
2024-10-10 19:20:47			0	38743	0	0	0	21716	20270	159397	27272	1055846	46302	107976	0	0	8250	535714	0	0
2024-10-10 19:21:47			0	38743	0	0	0	21714	20280	159373	26998	1055864	46303	107975	0	0	8250	535685	0	0
2024-10-10 19:22:47			0	38731	0	0	0	21706	20290	159461	27284	1055935	46304	107972	0	0	8249	536120	0	0
2024-10-10 19:23:47			0	38730	0	0	0	21706	20280	159413	27265	1055828	46281	107972	0	0	8249	536188	0	0
2024-10-10 19:24:47			0	38702	0	0	0	21698	20280	159544	27246	1055802	46291	107969	0	0	8248	537273	0	0
2024-10-10 19:25:47			0	38678	0	0	0	21706	20270	159508	27144	1055846	46313	107972	0	0	8246	538234	0	0
2024-10-10 19:26:47			0	38683	0	0	0	21696	20280	159656	27046	1055881	46314	107968	0	0	8247	538011	0	0
2024-10-10 19:27:47			0	38666	0	0	0	21706	20290	159504	27229	1055899	46281	107972	0	0	8246	538641	0	0
2024-10-10 19:28:47			0	38678	0	0	0	21698	20280	159580	27190	1055802	46303	107969	0	0	8246	538205	0	0
2024-10-10 19:29:47			0	38664	0	0	0	21706	20280	159584	26885	1055837	46291	107972	0	0	8245	538748	0	0
2024-10-10 19:30:47			0	38663	0	0	0	21709	20280	159644	26909	1055811	46303	107973	0	0	8245	538787	0	0
2024-10-10 19:31:47			0	38670	0	0	0	21711	20280	159632	26953	1055837	46314	107974	0	0	8246	538515	0	0
2024-10-10 19:32:47			0	38670	0	0	0	21709	20280	159624	27369	1055837	46314	107973	0	0	8246	538515	0	0
2024-10-10 19:33:47			0	38662	0	0	0	21709	20280	159720	26922	1055864	46303	107973	0	0	8245	538826	0	0
2024-10-10 19:34:47			0	38658	0	0	0	21706	20270	159712	27144	1055899	46313	107972	0	0	8245	539011	0	0
2024-10-10 19:35:47			0	38652	0	0	0	21706	20270	159604	26772	1055872	46302	107972	0	0	8245	539245	0	0
2024-10-10 19:36:47			0	38675	0	0	0	21711	20270	159536	27208	1055793	46302	107974	0	0	8246	538351	0	0
2024-10-10 19:37:47			0	38688	0	0	0	21703	20270	159616	27048	1055810	46290	107971	0	0	8247	537846	0	0
2024-10-10 19:38:47			0	38682	0	0	0	21698	20280	159500	26902	1055890	46303	107969	0	0	8247	538049	0	0
2024-10-10 19:39:47			0	38681	0	0	0	21693	20270	159616	26816	1055739	46302	107967	0	0	8247	538118	0	0
2024-10-10 19:40:47			0	38681	0	0	0	21703	20270	159456	27190	1055872	46313	107971	0	0	8246	538118	0	0
2024-10-10 19:41:47			0	38684	0	0	0	21701	20270	159600	26944	1055793	46302	107970	0	0	8247	538002	0	0
2024-10-10 19:42:47			0	38670	0	0	0	21703	20270	159592	27315	1055819	46280	107971	0	0	8246	538545	0	0
2024-10-10 19:43:47			0	38672	0	0	0	21698	20280	159588	26987	1055802	46303	107969	0	0	8246	538438	0	0
2024-10-10 19:44:47			0	38667	0	0	0	21701	20270	159564	27206	1055837	46300	107970	0	0	8246	538662	0	0
2024-10-10 19:45:47			0	38662	0	0	0	21701	20260	159640	27315	1055828	46290	107970	0	0	8245	538886	0	0
2024-10-10 19:46:47			0	38668	0	0	0	21696	20270	159596	26922	1055757	46300	107968	0	0	8246	538623	0	0
2024-10-10 19:47:47			0	38683	0	0	0	21706	20270	159560	27157	1055819	46313	107972	0	0	8247	538040	0	0
2024-10-10 19:48:47			0	38660	0	0	0	21706	20280	159616	27270	1055828	46314	107972	0	0	8245	538904	0	0
2024-10-10 19:49:47			0	38660	0	0	0	21698	20270	159640	27208	1055810	46300	107969	0	0	8245	538934	0	0
2024-10-10 19:50:47			0	38684	0	0	0	21706	20270	159624	26719	1055846	46291	107972	0	0	8247	538002	0	0
2024-10-10 19:51:47			0	38680	0	0	0	21701	20280	159604	27078	1055855	46303	107970	0	0	8246	538127	0	0
2024-10-10 19:52:47			0	38694	0	0	0	21696	20260	159552	27525	1055801	46300	107968	0	0	8247	537643	0	0
2024-10-10 19:53:47			0	38673	0	0	0	21701	20270	159512	26979	1055819	46280	107970	0	0	8246	538429	0	0
2024-10-10 19:54:47			0	38679	0	0	0	21690	20270	159576	26821	1055793	46302	107966	0	0	8247	538196	0	0
2024-10-10 19:55:47			0	38685	0	0	0	21696	20270	159544	26961	1055819	46302	107968	0	0	8247	537963	0	0
2024-10-10 19:56:47			0	38667	0	0	0	21688	20260	159628	27066	1055828	46300	107965	0	0	8246	538691	0	0
2024-10-10 19:57:47			0	38661	0	0	0	21683	20280	159696	26840	1055748	46314	107963	0	0	8246	538865	0	0
2024-10-10 19:58:47			0	38664	0	0	0	21696	20260	159680	27312	1055775	46300	107968	0	0	8246	538808	0	0
2024-10-10 19:59:47			0	38641	0	0	0	21683	20260	159704	27050	1055748	46300	107963	0	0	8244	539702	0	0
2024-10-10 20:00:47			0	38677	0	0	0	21680	20270	159664	26928	1055810	46300	107962	0	0	8247	538273	0	0
2024-10-10 20:01:47			0	38672	0	0	0	21688	20270	159724	27123	1055810	46300	107965	0	0	8246	538467	0	0
2024-10-10 20:02:47			0	38643	0	0	0	21685	20260	159624	26892	1055775	46300	107964	0	0	8245	539624	0	0
2024-10-10 20:03:47			0	38660	0	0	0	21696	20260	159696	27126	1055801	46300	107968	0	0	8245	538963	0	0
2024-10-10 20:04:47			0	38665	0	0	0	21688	20270	159792	26993	1055793	46291	107965	0	0	8246	538739	0	0
2024-10-10 20:05:47			0	38652	0	0	0	21683	20260	159800	27142	1055722	46300	107963	0	0	8245	539274	0	0
2024-10-10 20:06:47			0	38631	0	0	0	21685	20270	159816	26979	1055810	46312	107964	0	0	8244	540061	0	0
2024-10-10 20:07:47			0	38618	0	0	0	21677	20260	159924	26826	1055766	46279	107961	0	0	8243	540597	0	0
2024-10-10 20:08:47			0	38630	0	0	0	21688	20250	159880	27046	1055730	46299	107965	0	0	8244	540160	0	0
2024-10-10 20:09:47			0	38630	0	0	0	21683	20270	159948	27192	1055784	46300	107963	0	0	8244	540100	0	0
2024-10-10 20:10:47			0	38615	0	0	0	21690	20260	159964	26849	1055766	46312	107966	0	0	8243	540714	0	0
2024-10-10 20:11:47			0	38609	0	0	0	21680	20250	159940	26989	1055730	46299	107962	0	0	8243	540977	0	0
2024-10-10 20:12:47			0	38598	0	0	0	21685	20260	160024	27268	1055766	46312	107964	0	0	8242	541376	0	0
2024-10-10 20:13:47			0	38603	0	0	0	21685	20260	160080	27254	1055739	46300	107964	0	0	8242	541181	0	0
2024-10-10 20:14:47			0	38584	0	0	0	21688	20270	160088	26956	1055810	46290	107965	0	0	8241	541892	0	0
2024-10-10 20:15:47			0	38624	0	0	0	21688	20260	159948	27166	1055722	46290	107965	0	0	8243	540363	0	0
2024-10-10 20:16:47			0	38587	0	0	0	21688	20260	159912	27220	1055801	46290	107965	0	0	8241	541805	0	0
2024-10-10 20:17:47			0	38607	0	0	0	21688	20250	159948	27338	1055783	46278	107965	0	0	8242	541055	0	0
2024-10-10 20:18:47			0	38611	0	0	0	21685	20260	159976	27157	1055792	46279	107964	0	0	8243	540870	0	0
2024-10-10 20:19:47			0	38607	0	0	0	21680	20260	159972	27289	1055722	46312	107962	0	0	8243	541025	0	0
2024-10-10 20:20:47			0	38597	0	0	0	21693	20260	159992	26847	1055766	46312	107967	0	0	8242	541415	0	0
2024-10-10 20:21:47			0	38610	0	0	0	21685	20250	160008	27039	1055837	46289	107964	0	0	8243	540938	0	0
2024-10-10 20:22:47			0	38620	0	0	0	21690	20260	159836	26713	1055792	46300	107966	0	0	8243	540519	0	0
2024-10-10 20:23:47			0	38608	0	0	0	21683	20260	159964	26918	1055766	46300	107963	0	0	8243	540986	0	0
2024-10-10 20:24:47			0	38590	0	0	0	21688	20260	159964	26968	1055739	46290	107965	0	0	8241	541688	0	0
2024-10-10 20:25:47			0	38598	0	0	0	21685	20260	160052	26790	1055686	46300	107964	0	0	8242	541376	0	0
2024-10-10 20:26:47			0	38603	0	0	0	21680	20260	159996	27260	1055775	46312	107962	0	0	8242	541181	0	0
2024-10-10 20:27:47			0	38604	0	0	0	21690	20260	160076	27197	1055739	46300	107966	0	0	8242	541142	0	0
2024-10-10 20:28:47			0	38598	0	0	0	21680	20240	159968	27088	1055721	46298	107962	0	0	8242	541436	0	0
2024-10-10 20:29:47			0	38602	0	0	0	21675	20260	160120	27065	1055766	46300	107960	0	0	8242	541220	0	0
2024-10-10 20:30:47			0	38591	0	0	0	21688	20250	160128	27057	1055704	46278	107965	0	0	8241	541679	0	0
2024-10-10 20:31:47			0	38583	0	0	0	21677	20260	160184	27039	1055739	46300	107961	0	0	8241	541961	0	0
2024-10-10 20:32:47			0	38576	0	0	0	21672	20240	160096	27211	1055721	46277	107959	0	0	8241	542294	0	0
2024-10-10 20:33:47			0	38572	0	0	0	21680	20250	160176	27036	1055730	46311	107962	0	0	8240	542420	0	0
2024-10-10 20:34:47			0	38595	0	0	0	21677	20240	160104	26889	1055766	46309	107961	0	0	8242	541553	0	0
2024-10-10 20:35:47			0	38586	0	0	0	21683	20240	160080	26819	1055748	46288	107963	0	0	8241	541904	0	0
2024-10-10 20:36:47			0	38607	0	0	0	21680	20260	160008	27244	1055739	46290	107962	0	0	8243	541025	0	0
2024-10-10 20:37:47			0	38595	0	0	0	21677	20250	160124	27199	1055757	46289	107961	0	0	8242	541523	0	0
2024-10-10 20:38:47			0	38577	0	0	0	21672	20260	159972	26689	1055766	46300	107959	0	0	8241	542195	0	0
2024-10-10 20:39:47			0	38597	0	0	0	21677	20240	159988	27105	1055739	46287	107961	0	0	8242	541475	0	0
2024-10-10 20:40:47			0	38599	0	0	0	21680	20250	160044	26826	1055730	46311	107962	0	0	8242	541367	0	0
2024-10-10 20:41:47			0	38590	0	0	0	21672	20240	160068	26949	1055668	46288	107959	0	0	8242	541748	0	0
2024-10-10 20:42:47			0	38597	0	0	0	21675	20240	160104	27255	1055721	46288	107960	0	0	8242	541475	0	0
2024-10-10 20:43:47			0	38595	0	0	0	21672	20250	160080	27135	1055704	46299	107959	0	0	8242	541523	0	0
2024-10-10 20:44:47			0	38591	0	0	0	21672	20250	160096	27183	1055651	46289	107959	0	0	8242	541679	0	0
2024-10-10 20:45:47			0	38563	0	0	0	21667	20240	160180	26956	1055642	46288	107957	0	0	8240	542801	0	0
2024-10-10 20:46:47			0	38579	0	0	0	21675	20250	160096	26970	1055730	46289	107960	0	0	8241	542147	0	0
2024-10-10 20:47:47			0	38555	0	0	0	21667	20250	160096	27145	1055677	46299	107957	0	0	8240	543083	0	0
2024-10-10 20:48:47			0	38547	0	0	0	21667	20240	160240	26876	1055721	46298	107957	0	0	8239	543426	0	0
2024-10-10 20:49:47			0	38545	0	0	0	21670	20240	160224	26715	1055766	46297	107958	0	0	8239	543504	0	0
2024-10-10 20:50:47			0	38526	0	0	0	21672	20240	160300	27229	1055695	46310	107959	0	0	8238	544246	0	0
2024-10-10 20:51:47			0	38546	0	0	0	21672	20240	160268	27000	1055766	46309	107959	0	0	8239	543465	0	0
2024-10-10 20:52:47			0	38546	0	0	0	21680	20240	160252	26975	1055659	46297	107962	0	0	8239	543465	0	0
2024-10-10 20:53:47			0	38547	0	0	0	21677	20240	160244	27121	1055739	46297	107961	0	0	8239	543426	0	0
2024-10-10 20:54:47			0	38524	0	0	0	21677	20240	160396	27152	1055739	46297	107961	0	0	8238	544325	0	0
2024-10-10 20:55:47			0	38533	0	0	0	21672	20240	160428	26835	1055695	46310	107959	0	0	8238	543973	0	0
2024-10-10 20:56:47			0	38525	0	0	0	21675	20240	160296	27225	1055712	46309	107960	0	0	8238	544285	0	0
2024-10-10 20:57:47			0	38519	0	0	0	21675	20240	160292	27223	1055686	46297	107960	0	0	8237	544520	0	0
2024-10-10 20:58:47			0	38543	0	0	0	21683	20250	160204	27263	1055730	46299	107963	0	0	8239	543552	0	0
2024-10-10 20:59:47			0	38538	0	0	0	21677	20240	160284	27131	1055721	46298	107961	0	0	8238	543777	0	0
2024-10-10 21:00:47			0	38575	0	0	0	21680	20250	160228	27317	1055730	46311	107962	0	0	8241	542303	0	0
2024-10-10 21:01:47			0	38563	0	0	0	21677	20240	160120	27152	1055766	46297	107961	0	0	8240	542801	0	0
2024-10-10 21:02:47			0	38590	0	0	0	21675	20240	160136	26863	1055695	46288	107960	0	0	8242	541748	0	0
2024-10-10 21:03:47			0	38561	0	0	0	21670	20240	160104	27013	1055712	46287	107958	0	0	8240	542879	0	0
2024-10-10 21:04:47			0	38575	0	0	0	21675	20240	160076	26906	1055712	46297	107960	0	0	8241	542333	0	0
2024-10-10 21:05:47			0	38585	0	0	0	21680	20250	160172	27202	1055757	46299	107962	0	0	8241	541913	0	0
2024-10-10 21:06:47			0	38578	0	0	0	21670	20240	160100	26859	1055739	46297	107958	0	0	8241	542216	0	0
2024-10-10 21:07:47			0	38617	0	0	0	21677	20250	160068	26986	1055730	46311	107961	0	0	8243	540666	0	0
2024-10-10 21:08:47			0	38606	0	0	0	21672	20240	160016	27150	1055748	46310	107959	0	0	8242	541124	0	0
2024-10-10 21:09:47			0	38605	0	0	0	21675	20240	160056	27284	1055659	46297	107960	0	0	8242	541163	0	0
2024-10-10 21:10:47			0	38617	0	0	0	21680	20250	160012	27034	1055783	46278	107962	0	0	8243	540666	0	0
2024-10-10 21:11:47			0	38626	0	0	0	21677	20250	159916	27225	1055757	46299	107961	0	0	8244	540316	0	0
2024-10-10 21:12:47			0	38635	0	0	0	21675	20240	159876	27274	1055739	46309	107960	0	0	8244	539995	0	0
2024-10-10 21:13:47			0	38632	0	0	0	21680	20240	159856	27007	1055766	46309	107962	0	0	8244	540112	0	0
2024-10-10 21:14:47			0	38617	0	0	0	21675	20240	160084	26918	1055712	46297	107960	0	0	8243	540696	0	0
2024-10-10 21:15:47			0	38621	0	0	0	21677	20250	160052	26996	1055730	46311	107961	0	0	8243	540510	0	0
2024-10-10 21:16:47			0	38591	0	0	0	21683	20240	160048	27048	1055766	46297	107963	0	0	8241	541709	0	0
2024-10-10 21:17:47			0	38614	0	0	0	21670	20250	160012	27001	1055677	46311	107958	0	0	8243	540783	0	0
2024-10-10 21:18:47			0	38607	0	0	0	21675	20240	160036	27027	1055712	46297	107960	0	0	8242	541085	0	0
2024-10-10 21:19:47			0	38608	0	0	0	21675	20240	160056	26958	1055712	46297	107960	0	0	8243	541046	0	0
2024-10-10 21:20:47			0	38606	0	0	0	21672	20240	160116	27383	1055775	46288	107959	0	0	8242	541124	0	0
2024-10-10 21:21:47			0	38605	0	0	0	21675	20240	159904	27121	1055668	46288	107960	0	0	8242	541163	0	0
2024-10-10 21:22:47			0	38605	0	0	0	21664	20240	160056	27177	1055739	46287	107956	0	0	8243	541163	0	0
2024-10-10 21:23:47			0	38593	0	0	0	21670	20240	160156	27168	1055739	46297	107958	0	0	8242	541631	0	0
2024-10-10 21:24:47			0	38587	0	0	0	21672	20240	160184	27270	1055739	46287	107959	0	0	8241	541865	0	0
2024-10-10 21:25:47			0	38587	0	0	0	21670	20230	160188	27105	1055650	46297	107958	0	0	8241	541895	0	0
2024-10-10 21:26:47			0	38575	0	0	0	21664	20240	160216	27123	1055686	46287	107956	0	0	8241	542333	0	0
2024-10-10 21:27:47			0	38581	0	0	0	21675	20240	160176	27071	1055659	46297	107960	0	0	8241	542099	0	0
2024-10-10 21:28:47			0	38574	0	0	0	21670	20240	160240	27119	1055739	46287	107958	0	0	8241	542372	0	0
2024-10-10 21:29:47			0	38558	0	0	0	21677	20250	160252	26913	1055783	46289	107961	0	0	8240	542966	0	0
2024-10-10 21:30:47			0	38567	0	0	0	21670	20230	160252	26738	1055721	46287	107958	0	0	8240	542675	0	0
2024-10-10 21:31:47			0	38568	0	0	0	21664	20240	160280	26934	1055721	46298	107956	0	0	8240	542606	0	0
2024-10-10 21:32:47			0	38548	0	0	0	21675	20240	160356	27159	1055721	46298	107960	0	0	8239	543387	0	0
2024-10-10 21:33:47			0	38537	0	0	0	21670	20230	160288	26974	1055730	46309	107958	0	0	8238	543846	0	0
2024-10-10 21:34:47			0	38549	0	0	0	21667	20230	160324	26991	1055748	46287	107957	0	0	8239	543378	0	0
2024-10-10 21:35:47			0	38542	0	0	0	21672	20240	160200	27007	1055686	46309	107959	0	0	8239	543621	0	0
2024-10-10 21:36:47			0	38551	0	0	0	21664	20230	160292	27062	1055757	46276	107956	0	0	8239	543300	0	0
2024-10-10 21:37:47			0	38535	0	0	0	21664	20240	160292	27182	1055766	46276	107956	0	0	8238	543894	0	0
2024-10-10 21:38:47			0	38554	0	0	0	21664	20230	160348	26956	1055703	46297	107956	0	0	8240	543182	0	0
2024-10-10 21:39:47			0	38569	0	0	0	21662	20230	160332	27180	1055677	46297	107955	0	0	8240	542597	0	0
2024-10-10 21:40:47			0	38550	0	0	0	21672	20240	160280	26873	1055739	46309	107959	0	0	8239	543309	0	0
2024-10-10 21:41:47			0	38590	0	0	0	21672	20240	160160	27327	1055686	46297	107959	0	0	8242	541748	0	0
2024-10-10 21:42:47			0	38585	0	0	0	21667	20230	160188	27059	1055721	46309	107957	0	0	8241	541973	0	0
2024-10-10 21:43:47			0	38580	0	0	0	21664	20230	160224	27218	1055695	46287	107956	0	0	8241	542168	0	0
2024-10-10 21:44:47			0	38577	0	0	0	21670	20230	160160	27192	1055677	46297	107958	0	0	8241	542285	0	0
2024-10-10 21:45:47			0	38570	0	0	0	21670	20240	160196	27300	1055659	46287	107958	0	0	8240	542528	0	0
2024-10-10 21:46:47			0	38570	0	0	0	21667	20230	160200	27185	1055677	46297	107957	0	0	8240	542558	0	0
2024-10-10 21:47:47			0	38582	0	0	0	21662	20240	160180	26915	1055686	46287	107955	0	0	8241	542060	0	0
2024-10-10 21:48:47			0	38573	0	0	0	21664	20240	160216	27074	1055712	46297	107956	0	0	8241	542411	0	0
2024-10-10 21:49:47			0	38571	0	0	0	21672	20230	160144	27189	1055695	46287	107959	0	0	8240	542519	0	0
2024-10-10 21:50:47			0	38593	0	0	0	21672	20240	160196	27284	1055739	46297	107959	0	0	8242	541631	0	0
2024-10-10 21:51:47			0	38586	0	0	0	21675	20240	160068	27343	1055712	46309	107960	0	0	8241	541904	0	0
2024-10-10 21:52:47			0	38582	0	0	0	21677	20240	160068	27197	1055766	46297	107961	0	0	8241	542060	0	0
2024-10-10 21:53:47			0	38584	0	0	0	21680	20230	160208	27201	1055730	46276	107962	0	0	8241	542012	0	0
2024-10-10 21:54:47			0	38574	0	0	0	21672	20230	160192	27045	1055721	46309	107959	0	0	8241	542402	0	0
2024-10-10 21:55:47			0	38571	0	0	0	21672	20240	160216	27421	1055712	46309	107959	0	0	8240	542489	0	0
2024-10-10 21:56:47			0	38561	0	0	0	21677	20240	160264	27376	1055739	46297	107961	0	0	8240	542879	0	0
2024-10-10 21:57:47			0	38576	0	0	0	21677	20240	160212	27289	1055721	46310	107961	0	0	8241	542294	0	0
2024-10-10 21:58:47			0	38583	0	0	0	21675	20240	160128	26984	1055739	46276	107960	0	0	8241	542021	0	0
2024-10-10 21:59:47			0	38554	0	0	0	21664	20240	160200	27085	1055748	46310	107956	0	0	8240	543152	0	0
2024-10-10 22:00:47			0	38556	0	0	0	21646	20230	160208	27178	1055703	46287	107949	0	0	8240	543104	0	0
2024-10-10 22:01:47			0	38570	0	0	0	21646	20240	160128	26998	1055686	46287	107949	0	0	8241	542528	0	0
2024-10-10 22:02:47			0	38565	0	0	0	21649	20240	160188	27390	1055686	46287	107950	0	0	8240	542723	0	0
2024-10-10 22:03:47			0	38586	0	0	0	21644	20240	160200	27067	1055659	46287	107948	0	0	8242	541904	0	0
2024-10-10 22:04:47			0	38579	0	0	0	21638	20230	160112	27059	1055668	46276	107946	0	0	8241	542207	0	0
2024-10-10 22:05:47			0	38606	0	0	0	21636	20230	160044	27189	1055588	46276	107945	0	0	8243	541154	0	0
2024-10-10 22:06:47			0	38592	0	0	0	21646	20220	160012	26979	1055623	46295	107949	0	0	8242	541730	0	0
2024-10-10 22:07:47			0	38621	0	0	0	21641	20230	160016	27144	1055562	46287	107947	0	0	8244	540570	0	0
2024-10-10 22:08:47			0	38611	0	0	0	21638	20220	159964	26956	1055650	46285	107946	0	0	8243	540989	0	0
2024-10-10 22:09:47			0	38618	0	0	0	21638	20220	159996	27435	1055579	46286	107946	0	0	8244	540717	0	0
2024-10-10 22:10:47			0	38618	0	0	0	21631	20210	160024	27144	1055588	46295	107943	0	0	8244	540746	0	0
2024-10-10 22:11:47			0	38644	0	0	0	21620	20200	159924	27036	1055534	46293	107939	0	0	8245	539764	0	0
2024-10-10 22:12:47			0	38634	0	0	0	21625	20200	159780	26901	1055508	46283	107941	0	0	8245	540153	0	0
2024-10-10 22:13:47			0	38670	0	0	0	21618	20220	159784	27145	1055491	46285	107938	0	0	8247	538694	0	0
2024-10-10 22:14:47			0	38686	0	0	0	21602	20210	159756	27112	1055525	46263	107932	0	0	8248	538102	0	0
2024-10-10 22:15:47			0	38688	0	0	0	21623	20200	159700	26733	1055490	46284	107940	0	0	8248	538054	0	0
2024-10-10 22:16:47			0	38716	0	0	0	21605	20200	159536	26986	1055543	46284	107933	0	0	8250	536968	0	0
2024-10-10 22:17:47			0	38736	0	0	0	21615	20200	159581	27232	1055454	46283	107937	0	0	8251	536192	0	0
2024-10-10 22:18:47			0	38748	0	0	0	21607	20190	159409	26987	1055499	46283	107934	0	0	8252	535757	0	0
2024-10-10 22:19:47			0	38744	0	0	0	21618	20190	159477	27197	1055445	46283	107938	0	0	8251	535912	0	0
2024-10-10 22:20:47			0	38755	0	0	0	21620	20190	159429	26991	1055463	46272	107939	0	0	8252	535486	0	0
2024-10-10 22:21:47			0	38751	0	0	0	21618	20190	159477	27390	1055463	46293	107938	0	0	8252	535641	0	0
2024-10-10 22:22:47			0	38729	0	0	0	21612	20190	159488	27157	1055472	46293	107936	0	0	8250	536493	0	0
2024-10-10 22:23:47			0	38727	0	0	0	21620	20190	159492	27199	1055490	46293	107939	0	0	8250	536571	0	0
2024-10-10 22:24:47			0	38724	0	0	0	21615	20190	159561	27027	1055445	46293	107937	0	0	8250	536687	0	0
2024-10-10 22:25:47			0	38704	0	0	0	21618	20190	159696	27320	1055499	46305	107938	0	0	8249	537463	0	0
2024-10-10 22:26:47			0	38704	0	0	0	21618	20190	159580	27396	1055437	46293	107938	0	0	8249	537463	0	0
2024-10-10 22:27:47			0	38709	0	0	0	21623	20180	159576	27319	1055454	46292	107940	0	0	8249	537298	0	0
2024-10-10 22:28:47			0	38718	0	0	0	21615	20190	159564	27417	1055463	46316	107937	0	0	8250	536920	0	0
2024-10-10 22:29:47			0	38728	0	0	0	21625	20190	159469	27282	1055516	46305	107941	0	0	8250	536532	0	0
2024-10-10 22:30:47			0	38721	0	0	0	21625	20180	159600	26864	1055498	46291	107941	0	0	8250	536833	0	0
2024-10-10 22:31:47			0	38717	0	0	0	21618	20190	159584	27164	1055516	46283	107938	0	0	8250	536959	0	0
2024-10-10 22:32:47			0	38725	0	0	0	21631	20190	159585	27166	1055437	46316	107943	0	0	8250	536648	0	0
2024-10-10 22:33:47			0	38723	0	0	0	21620	20190	159536	27067	1055490	46316	107939	0	0	8250	536726	0	0
2024-10-10 22:34:47			0	38723	0	0	0	21625	20200	159516	27343	1055508	46293	107941	0	0	8250	536696	0	0
2024-10-10 22:35:47			0	38687	0	0	0	21631	20180	159760	27177	1055507	46292	107943	0	0	8248	538152	0	0
2024-10-10 22:36:47			0	38702	0	0	0	21636	20190	159668	27060	1055543	46293	107945	0	0	8248	537540	0	0
2024-10-10 22:37:47			0	38696	0	0	0	21633	20190	159820	27150	1055499	46316	107944	0	0	8248	537773	0	0
2024-10-10 22:38:47			0	38660	0	0	0	21625	20190	159896	26682	1055516	46293	107941	0	0	8246	539172	0	0
2024-10-10 22:39:47			0	38667	0	0	0	21633	20190	159812	27071	1055490	46293	107944	0	0	8246	538900	0	0
2024-10-10 22:40:47			0	38649	0	0	0	21620	20180	159804	27220	1055481	46292	107939	0	0	8246	539629	0	0
2024-10-10 22:41:47			0	38673	0	0	0	21628	20190	159912	27033	1055490	46293	107942	0	0	8247	538666	0	0
2024-10-10 22:42:47			0	38655	0	0	0	21633	20190	159912	27007	1055552	46293	107944	0	0	8246	539366	0	0
2024-10-10 22:43:47			0	38689	0	0	0	21615	20190	159836	27010	1055525	46283	107937	0	0	8248	538045	0	0
2024-10-10 22:44:47			0	38679	0	0	0	21618	20190	159772	27163	1055463	46293	107938	0	0	8247	538433	0	0
2024-10-10 22:45:47			0	38676	0	0	0	21628	20190	159776	26847	1055552	46283	107942	0	0	8247	538550	0	0
2024-10-10 22:46:47			0	38678	0	0	0	21623	20180	159756	27076	1055481	46292	107940	0	0	8247	538502	0	0
2024-10-10 22:47:47			0	38684	0	0	0	21620	20180	159808	26838	1055481	46304	107939	0	0	8248	538269	0	0
2024-10-10 22:48:47			0	38677	0	0	0	21623	20190	159764	27154	1055499	46293	107940	0	0	8247	538511	0	0
2024-10-10 22:49:47			0	38688	0	0	0	21610	20180	159748	27197	1055481	46292	107935	0	0	8248	538114	0	0
2024-10-10 22:50:47			0	38679	0	0	0	21612	20190	159748	27194	1055463	46293	107936	0	0	8248	538433	0	0
2024-10-10 22:51:47			0	38688	0	0	0	21607	20190	159860	27367	1055437	46272	107934	0	0	8248	538084	0	0
2024-10-10 22:52:47			0	38668	0	0	0	21607	20190	159884	26942	1055490	46283	107934	0	0	8247	538861	0	0
2024-10-10 22:53:47			0	38653	0	0	0	21607	20180	159876	26901	1055419	46281	107934	0	0	8246	539474	0	0
2024-10-10 22:54:47			0	38665	0	0	0	21612	20180	159808	26975	1055454	46282	107936	0	0	8247	539007	0	0
2024-10-10 22:55:47			0	38656	0	0	0	21610	20180	159912	27163	1055445	46291	107935	0	0	8246	539357	0	0
2024-10-10 22:56:47			0	38656	0	0	0	21605	20180	159924	26878	1055392	46291	107933	0	0	8246	539357	0	0
2024-10-10 22:57:47			0	38637	0	0	0	21618	20180	159880	26953	1055454	46292	107938	0	0	8245	540096	0	0
2024-10-10 22:58:47			0	38641	0	0	0	21605	20190	159932	26984	1055490	46283	107933	0	0	8245	539911	0	0
2024-10-10 22:59:47			0	38620	0	0	0	21605	20160	160128	26899	1055392	46280	107933	0	0	8244	540818	0	0
2024-10-10 23:00:47			0	38584	0	0	0	21602	20170	160100	27256	1055383	46291	107932	0	0	8242	542191	0	0
2024-10-10 23:01:47			0	38572	0	0	0	21597	20180	160144	27466	1055401	46292	107930	0	0	8242	542629	0	0
2024-10-10 23:02:47			0	38549	0	0	0	21594	20170	160196	27098	1055463	46291	107929	0	0	8240	543558	0	0
2024-10-10 23:03:47			0	38566	0	0	0	21597	20170	160240	27026	1055356	46303	107930	0	0	8241	542894	0	0
2024-10-10 23:04:47			0	38573	0	0	0	21597	20170	160256	26974	1055321	46280	107930	0	0	8242	542620	0	0
2024-10-10 23:05:47			0	38565	0	0	0	21597	20180	160220	27419	1055392	46281	107930	0	0	8241	542903	0	0
2024-10-10 23:06:47			0	38547	0	0	0	21594	20170	160272	27303	1055356	46291	107929	0	0	8240	543636	0	0
2024-10-10 23:07:47			0	38550	0	0	0	21597	20160	160232	27239	1055365	46291	107930	0	0	8240	543549	0	0
2024-10-10 23:08:47			0	38563	0	0	0	21594	20170	160276	27202	1055348	46291	107929	0	0	8241	543011	0	0
2024-10-10 23:09:47			0	38564	0	0	0	21586	20170	160240	27130	1055383	46303	107926	0	0	8241	542972	0	0
2024-10-10 23:10:47			0	38561	0	0	0	21592	20160	160332	27248	1055418	46291	107928	0	0	8241	543119	0	0
2024-10-10 23:11:47			0	38565	0	0	0	21589	20160	160260	27109	1055392	46280	107927	0	0	8241	542963	0	0
2024-10-10 23:12:47			0	38548	0	0	0	21594	20160	160324	27015	1055418	46302	107929	0	0	8240	543627	0	0
2024-10-10 23:13:47			0	38574	0	0	0	21594	20160	160324	27187	1055330	46290	107929	0	0	8242	542611	0	0
2024-10-10 23:14:47			0	38557	0	0	0	21597	20160	160276	27448	1055303	46301	107930	0	0	8241	543275	0	0
2024-10-10 23:15:47			0	38568	0	0	0	21594	20170	160260	27190	1055383	46303	107929	0	0	8241	542815	0	0
2024-10-10 23:16:47			0	38581	0	0	0	21597	20160	160188	27277	1055339	46291	107930	0	0	8242	542338	0	0
2024-10-10 23:17:47			0	38606	0	0	0	21589	20170	160088	27019	1055374	46280	107927	0	0	8244	541333	0	0
2024-10-10 23:18:47			0	38589	0	0	0	21586	20170	160136	27263	1055401	46302	107926	0	0	8243	541996	0	0
2024-10-10 23:19:47			0	38585	0	0	0	21605	20160	160208	27298	1055277	46301	107933	0	0	8242	542182	0	0
2024-10-10 23:20:47			0	38563	0	0	0	21597	20160	160344	27036	1055339	46291	107930	0	0	8241	543041	0	0
2024-10-10 23:21:47			0	38531	0	0	0	21592	20170	160452	26812	1055348	46302	107928	0	0	8239	544261	0	0
2024-10-10 23:22:47			0	38556	0	0	0	21579	20170	160336	26989	1055348	46269	107923	0	0	8241	543284	0	0
2024-10-10 23:23:47			0	38569	0	0	0	21586	20150	160288	27003	1055347	46278	107926	0	0	8241	542836	0	0
2024-10-10 23:24:47			0	38550	0	0	0	21586	20160	160236	26930	1055330	46290	107926	0	0	8240	543549	0	0
2024-10-10 23:25:47			0	38519	0	0	0	21586	20160	160436	26812	1055418	46280	107926	0	0	8239	544760	0	0
2024-10-10 23:26:47			0	38538	0	0	0	21579	20150	160452	27329	1055321	46289	107923	0	0	8240	544048	0	0
2024-10-10 23:27:47			0	38510	0	0	0	21581	20160	160556	27085	1055303	46268	107924	0	0	8238	545113	0	0
2024-10-10 23:28:47			0	38489	0	0	0	21576	20160	160660	26948	1055303	46290	107922	0	0	8237	545935	0	0
2024-10-10 23:29:47			0	38459	0	0	0	21573	20160	160756	27220	1055330	46290	107921	0	0	8235	547111	0	0
2024-10-10 23:30:47			0	38455	0	0	0	21571	20140	160752	27052	1055294	46277	107920	0	0	8235	547328	0	0
2024-10-10 23:31:47			0	38455	0	0	0	21581	20170	160744	27388	1055374	46291	107924	0	0	8235	547238	0	0
2024-10-10 23:32:47			0	38457	0	0	0	21571	20150	160696	27479	1055268	46267	107920	0	0	8235	547220	0	0
2024-10-10 23:33:47			0	38465	0	0	0	21571	20140	160700	27154	1055329	46289	107920	0	0	8236	546936	0	0
2024-10-10 23:34:47			0	38447	0	0	0	21573	20150	160752	27144	1055312	46289	107921	0	0	8234	547612	0	0
2024-10-10 23:35:47			0	38455	0	0	0	21579	20140	160748	27062	1055321	46277	107923	0	0	8235	547328	0	0
2024-10-10 23:36:47			0	38454	0	0	0	21579	20130	160760	27284	1055312	46287	107923	0	0	8235	547398	0	0
2024-10-10 23:37:47			0	38452	0	0	0	21576	20150	160800	27147	1055294	46278	107922	0	0	8235	547416	0	0
2024-10-10 23:38:47			0	38454	0	0	0	21579	20140	160808	27372	1055267	46298	107923	0	0	8235	547368	0	0
2024-10-10 23:39:47			0	38462	0	0	0	21573	20150	160712	27282	1055312	46300	107921	0	0	8235	547023	0	0
2024-10-10 23:40:47			0	38451	0	0	0	21586	20140	160712	27306	1055294	46288	107926	0	0	8234	547485	0	0
2024-10-10 23:41:47			0	38447	0	0	0	21573	20140	160808	27327	1055241	46277	107921	0	0	8234	547642	0	0
2024-10-10 23:42:47			0	38464	0	0	0	21579	20150	160780	27312	1055338	46300	107923	0	0	8235	546945	0	0
2024-10-10 23:43:47			0	38452	0	0	0	21579	20140	160696	27464	1055294	46310	107923	0	0	8235	547446	0	0
2024-10-10 23:44:47			0	38451	0	0	0	21584	20150	160700	26955	1055285	46300	107925	0	0	8235	547455	0	0
2024-10-10 23:45:47			0	38468	0	0	0	21581	20130	160772	27248	1055258	46276	107924	0	0	8235	546849	0	0
2024-10-10 23:46:47			0	38455	0	0	0	21571	20140	160576	27144	1055267	46288	107920	0	0	8235	547328	0	0
2024-10-10 23:47:47			0	38472	0	0	0	21566	20150	160692	27345	1055285	46289	107918	0	0	8236	546631	0	0
2024-10-10 23:48:47			0	38466	0	0	0	21573	20140	160676	26828	1055267	46288	107921	0	0	8236	546897	0	0
2024-10-10 23:49:47			0	38460	0	0	0	21571	20150	160676	27046	1055312	46278	107920	0	0	8235	547102	0	0
2024-10-10 23:50:47			0	38475	0	0	0	21573	20150	160636	27277	1055285	46278	107921	0	0	8236	546514	0	0
2024-10-10 23:51:47			0	38464	0	0	0	21581	20130	160652	26847	1055249	46287	107924	0	0	8235	547005	0	0
2024-10-10 23:52:47			0	38454	0	0	0	21579	20150	160624	27216	1055285	46300	107923	0	0	8235	547337	0	0
2024-10-10 23:53:47			0	38447	0	0	0	21571	20130	160804	27055	1055223	46276	107920	0	0	8234	547673	0	0
2024-10-10 23:54:47			0	38424	0	0	0	21563	20140	160756	26949	1055294	46277	107917	0	0	8233	548546	0	0
2024-10-10 23:55:47			0	38389	0	0	0	21558	20130	160864	27246	1055232	46276	107915	0	0	8231	549952	0	0
2024-10-10 23:56:47			0	38371	0	0	0	21566	20140	161044	27239	1055241	46277	107918	0	0	8230	550631	0	0
2024-10-10 23:57:47			0	38362	0	0	0	21571	20130	161072	27211	1055196	46287	107920	0	0	8229	551015	0	0
2024-10-10 23:58:47			0	38334	0	0	0	21568	20150	161172	27189	1055259	46289	107919	0	0	8228	552058	0	0
2024-10-10 23:59:47			0	38325	0	0	0	21566	20140	161212	27027	1055214	46277	107918	0	0	8227	552444	0	0
2024-10-11 00:00:47			0	38324	0	0	0	21571	20130	161184	27168	1055249	46276	107920	0	0	8227	552514	0	0
2024-10-11 00:01:47			0	38322	0	0	0	21566	20130	161280	27376	1055258	46297	107918	0	0	8227	552593	0	0
2024-10-11 00:02:47			0	38301	0	0	0	21563	20140	161264	27249	1055241	46298	107917	0	0	8226	553392	0	0
2024-10-11 00:03:47			0	38304	0	0	0	21566	20140	161436	27177	1055267	46277	107918	0	0	8226	553273	0	0
2024-10-11 00:04:47			0	38299	0	0	0	21566	20130	161364	27166	1055223	46287	107918	0	0	8226	553501	0	0
2024-10-11 00:05:47			0	38303	0	0	0	21568	20140	161340	26857	1055241	46288	107919	0	0	8226	553313	0	0
2024-10-11 00:06:47			0	38293	0	0	0	21566	20130	161316	27150	1055223	46287	107918	0	0	8225	553738	0	0
2024-10-11 00:07:47			0	38293	0	0	0	21563	20130	161340	27277	1055232	46265	107917	0	0	8226	553738	0	0
2024-10-11 00:08:47			0	38284	0	0	0	21563	20120	161400	27201	1055214	46276	107917	0	0	8225	554125	0	0
2024-10-11 00:09:47			0	38296	0	0	0	21558	20130	161308	27206	1055232	46297	107915	0	0	8226	553620	0	0
2024-10-11 00:10:47			0	38278	0	0	0	21553	20130	161264	27460	1055205	46287	107913	0	0	8225	554331	0	0
2024-10-11 00:11:47			0	38267	0	0	0	21555	20130	161344	27412	1055196	46265	107914	0	0	8224	554767	0	0
2024-10-11 00:12:47			0	38277	0	0	0	21558	20120	161404	27312	1055187	46287	107915	0	0	8225	554401	0	0
2024-10-11 00:13:47			0	38258	0	0	0	21568	20130	161480	27034	1055196	46276	107919	0	0	8223	555123	0	0
2024-10-11 00:14:47			0	38254	0	0	0	21553	20130	161460	27190	1055196	46287	107913	0	0	8223	555281	0	0
2024-10-11 00:15:47			0	38264	0	0	0	21555	20120	161428	27034	1055178	46275	107914	0	0	8224	554916	0	0
2024-10-11 00:16:47			0	38258	0	0	0	21558	20130	161364	27052	1055223	46287	107915	0	0	8224	555123	0	0
2024-10-11 00:17:47			0	38267	0	0	0	21558	20130	161468	27242	1055196	46287	107915	0	0	8224	554767	0	0
2024-10-11 00:18:47			0	38256	0	0	0	21558	20130	161476	27291	1055276	46287	107915	0	0	8223	555202	0	0
2024-10-11 00:19:47			0	38246	0	0	0	21553	20120	161504	27582	1055214	46276	107913	0	0	8223	555628	0	0
2024-10-11 00:20:47			0	38248	0	0	0	21550	20120	161448	27171	1055187	46309	107912	0	0	8223	555549	0	0
2024-10-11 00:21:47			0	38251	0	0	0	21553	20120	161504	26956	1055214	46276	107913	0	0	8223	555430	0	0
2024-10-11 00:22:47			0	38249	0	0	0	21553	20120	161428	26946	1055241	46287	107913	0	0	8223	555510	0	0
2024-10-11 00:23:47			0	38229	0	0	0	21545	20110	161636	26698	1055170	46296	107910	0	0	8222	556333	0	0
2024-10-11 00:24:47			0	38232	0	0	0	21558	20120	161588	26833	1055205	46286	107915	0	0	8222	556183	0	0
2024-10-11 00:25:47			0	38217	0	0	0	21553	20120	161700	27071	1055205	46297	107913	0	0	8221	556778	0	0
2024-10-11 00:26:47			0	38227	0	0	0	21545	20120	161520	27308	1055214	46276	107910	0	0	8222	556381	0	0
2024-10-11 00:27:47			0	38227	0	0	0	21553	20120	161628	26998	1055152	46275	107913	0	0	8222	556381	0	0
2024-10-11 00:28:47			0	38211	0	0	0	21553	20120	161644	27196	1055161	46287	107913	0	0	8221	557016	0	0
2024-10-11 00:29:47			0	38227	0	0	0	21545	20120	161704	27315	1055178	46275	107910	0	0	8222	556381	0	0
2024-10-11 00:30:47			0	38231	0	0	0	21540	20120	161784	26949	1055161	46287	107908	0	0	8222	556223	0	0
2024-10-11 00:31:47			0	38237	0	0	0	21558	20110	161688	26779	1055187	46285	107915	0	0	8222	556016	0	0
2024-10-11 00:32:47			0	38217	0	0	0	21553	20120	161688	26932	1055205	46297	107913	0	0	8221	556778	0	0
2024-10-11 00:33:47			0	38222	0	0	0	21550	20110	161712	27248	1055187	46296	107912	0	0	8222	556610	0	0
2024-10-11 00:34:47			0	38224	0	0	0	21545	20110	161672	27251	1055196	46296	107910	0	0	8222	556531	0	0
2024-10-11 00:35:47			0	38222	0	0	0	21558	20120	161712	27046	1055152	46275	107915	0	0	8221	556579	0	0
2024-10-11 00:36:47			0	38223	0	0	0	21550	20120	161612	27339	1055187	46287	107912	0	0	8222	556540	0	0
2024-10-11 00:37:47			0	38227	0	0	0	21550	20110	161632	27275	1055170	46285	107912	0	0	8222	556412	0	0
2024-10-11 00:38:47			0	38210	0	0	0	21548	20120	161676	27190	1055178	46286	107911	0	0	8221	557055	0	0
2024-10-11 00:39:47			0	38205	0	0	0	21550	20120	161668	26816	1055125	46275	107912	0	0	8221	557254	0	0
2024-10-11 00:40:47			0	38207	0	0	0	21548	20110	161536	26854	1055134	46274	107911	0	0	8221	557205	0	0
2024-10-11 00:41:47			0	38196	0	0	0	21548	20110	161672	27033	1055143	46285	107911	0	0	8220	557642	0	0
2024-10-11 00:42:47			0	38209	0	0	0	21550	20110	161616	27060	1055187	46274	107912	0	0	8221	557126	0	0
2024-10-11 00:43:47			0	38182	0	0	0	21553	20120	161604	27076	1055125	46286	107913	0	0	8219	558167	0	0
2024-10-11 00:44:47			0	38189	0	0	0	21550	20110	161816	27329	1055143	46296	107912	0	0	8220	557920	0	0
2024-10-11 00:45:47			0	38185	0	0	0	21553	20110	161644	27041	1055143	46296	107913	0	0	8219	558078	0	0
2024-10-11 00:46:47			0	38180	0	0	0	21553	20120	161784	26857	1055152	46286	107913	0	0	8219	558246	0	0
2024-10-11 00:47:47			0	38185	0	0	0	21555	20120	161764	27249	1055205	46275	107914	0	0	8219	558048	0	0
2024-10-11 00:48:47			0	38185	0	0	0	21553	20110	161776	27118	1055196	46274	107913	0	0	8219	558078	0	0
2024-10-11 00:49:47			0	38176	0	0	0	21540	20110	161868	27116	1055161	46274	107908	0	0	8219	558436	0	0
2024-10-11 00:50:47			0	38167	0	0	0	21542	20120	161740	26892	1055125	46275	107909	0	0	8218	558763	0	0
2024-10-11 00:51:47			0	38164	0	0	0	21553	20110	161844	26856	1055090	46285	107913	0	0	8218	558913	0	0
2024-10-11 00:52:47			0	38160	0	0	0	21553	20110	161952	27178	1055196	46296	107913	0	0	8218	559072	0	0
2024-10-11 00:53:47			0	38149	0	0	0	21545	20100	161784	27317	1055072	46284	107910	0	0	8217	559540	0	0
2024-10-11 00:54:47			0	38153	0	0	0	21555	20110	161824	27199	1055196	46285	107914	0	0	8217	559350	0	0
2024-10-11 00:55:47			0	38149	0	0	0	21561	20120	161756	27175	1055205	46275	107916	0	0	8217	559478	0	0
2024-10-11 00:56:47			0	38155	0	0	0	21558	20110	161824	26861	1055196	46285	107915	0	0	8217	559271	0	0
2024-10-11 00:57:47			0	38157	0	0	0	21548	20110	161864	27166	1055187	46296	107911	0	0	8218	559191	0	0
2024-10-11 00:58:47			0	38155	0	0	0	21542	20110	161904	27176	1055196	46274	107909	0	0	8218	559271	0	0
2024-10-11 00:59:47			0	38135	0	0	0	21555	20110	161792	27066	1055170	46285	107914	0	0	8216	560066	0	0
2024-10-11 01:00:47			0	38136	0	0	0	21550	20110	161916	27229	1055170	46274	107912	0	0	8216	560027	0	0
2024-10-11 01:01:47			0	38142	0	0	0	21548	20120	161892	27131	1055125	46275	107911	0	0	8217	559757	0	0
2024-10-11 01:02:47			0	38137	0	0	0	21545	20120	161972	27079	1055161	46287	107910	0	0	8217	559956	0	0
2024-10-11 01:03:47			0	38119	0	0	0	21553	20110	161936	27152	1055214	46285	107913	0	0	8215	560704	0	0
2024-10-11 01:04:47			0	38131	0	0	0	21555	20110	161956	27303	1055223	46285	107914	0	0	8216	560226	0	0
2024-10-11 01:05:47			0	38148	0	0	0	21553	20120	161944	26849	1055178	46286	107913	0	0	8217	559518	0	0
2024-10-11 01:06:47			0	38135	0	0	0	21561	20120	161844	27220	1055125	46297	107916	0	0	8216	560036	0	0
2024-10-11 01:07:47			0	38147	0	0	0	21561	20120	161972	26984	1055161	46287	107916	0	0	8217	559558	0	0
2024-10-11 01:08:47			0	38148	0	0	0	21550	20120	161912	27227	1055178	46264	107912	0	0	8217	559518	0	0
2024-10-11 01:09:47			0	38129	0	0	0	21548	20120	162012	27294	1055241	46265	107911	0	0	8216	560274	0	0
2024-10-11 01:10:47			0	38113	0	0	0	21555	20110	161984	26920	1055187	46285	107914	0	0	8215	560943	0	0
2024-10-11 01:11:47			0	38118	0	0	0	21558	20120	161928	27124	1055152	46286	107915	0	0	8215	560712	0	0
2024-10-11 01:12:47			0	38115	0	0	0	21558	20110	161964	27176	1055134	46296	107915	0	0	8215	560863	0	0
2024-10-11 01:13:47			0	38125	0	0	0	21550	20110	162008	26915	1055170	46285	107912	0	0	8216	560465	0	0
2024-10-11 01:14:47			0	38124	0	0	0	21553	20120	161912	27242	1055152	46275	107913	0	0	8216	560473	0	0
2024-10-11 01:15:47			0	38129	0	0	0	21550	20110	161984	27180	1055196	46285	107912	0	0	8216	560305	0	0
2024-10-11 01:16:47			0	38108	0	0	0	21561	20120	161972	27345	1055178	46286	107916	0	0	8215	561111	0	0
2024-10-11 01:17:47			0	38119	0	0	0	21558	20110	162048	27026	1055170	46285	107915	0	0	8215	560704	0	0
2024-10-11 01:18:47			0	38117	0	0	0	21553	20120	161964	27137	1055258	46297	107913	0	0	8215	560752	0	0
2024-10-11 01:19:47			0	38121	0	0	0	21558	20120	162024	27265	1055241	46276	107915	0	0	8215	560593	0	0
2024-10-11 01:20:47			0	38114	0	0	0	21568	20110	162056	27353	1055196	46285	107919	0	0	8215	560903	0	0
2024-10-11 01:21:47			0	38125	0	0	0	21563	20110	162076	26791	1055196	46285	107917	0	0	8216	560465	0	0
2024-10-11 01:22:47			0	38120	0	0	0	21573	20120	161928	26987	1055294	46265	107921	0	0	8215	560633	0	0
2024-10-11 01:23:47			0	38110	0	0	0	21561	20120	162056	26935	1055187	46276	107916	0	0	8215	561031	0	0
2024-10-11 01:24:47			0	38109	0	0	0	21555	20120	162088	26852	1055267	46287	107914	0	0	8215	561071	0	0
2024-10-11 01:25:47			0	38111	0	0	0	21555	20130	162048	26880	1055276	46297	107914	0	0	8215	560960	0	0
2024-10-11 01:26:47			0	38099	0	0	0	21550	20120	162140	27114	1055205	46275	107912	0	0	8214	561470	0	0
2024-10-11 01:27:47			0	38114	0	0	0	21545	20130	162048	27383	1055223	46287	107910	0	0	8215	560841	0	0
2024-10-11 01:28:47			0	38113	0	0	0	21550	20120	162012	27298	1055214	46287	107912	0	0	8215	560912	0	0
2024-10-11 01:29:47			0	38110	0	0	0	21553	20120	162028	27267	1055214	46297	107913	0	0	8215	561031	0	0
2024-10-11 01:30:47			0	38107	0	0	0	21553	20120	162028	27400	1055214	46287	107913	0	0	8215	561151	0	0
2024-10-11 01:31:47			0	38093	0	0	0	21555	20130	161988	27048	1055223	46287	107914	0	0	8214	561678	0	0
2024-10-11 01:32:47			0	38102	0	0	0	21553	20120	162020	26930	1055125	46286	107913	0	0	8214	561350	0	0
2024-10-11 01:33:47			0	38104	0	0	0	21563	20120	162052	27137	1055232	46286	107917	0	0	8214	561270	0	0
2024-10-11 01:34:47			0	38097	0	0	0	21555	20130	162004	26887	1055249	46287	107914	0	0	8214	561518	0	0
2024-10-11 01:35:47			0	38085	0	0	0	21555	20120	162044	27339	1055178	46286	107914	0	0	8213	562028	0	0
2024-10-11 01:36:47			0	38089	0	0	0	21555	20100	162116	27083	1055125	46284	107914	0	0	8214	561930	0	0
2024-10-11 01:37:47			0	38083	0	0	0	21555	20110	161972	27079	1055143	46296	107914	0	0	8213	562139	0	0
2024-10-11 01:38:47			0	38094	0	0	0	21558	20120	162176	27357	1055187	46287	107915	0	0	8214	561669	0	0
2024-10-11 01:39:47			0	38095	0	0	0	21561	20120	162132	27225	1055232	46264	107916	0	0	8214	561629	0	0
2024-10-11 01:40:47			0	38112	0	0	0	21561	20130	162068	26989	1055196	46297	107916	0	0	8215	560920	0	0
2024-10-11 01:41:47			0	38096	0	0	0	21566	20120	162092	26979	1055241	46297	107918	0	0	8214	561589	0	0
2024-10-11 01:42:47			0	38100	0	0	0	21550	20120	162076	27274	1055205	46297	107912	0	0	8214	561430	0	0
2024-10-11 01:43:47			0	38110	0	0	0	21563	20120	162096	27272	1055178	46275	107917	0	0	8215	561031	0	0
2024-10-11 01:44:47			0	38096	0	0	0	21558	20120	162048	26989	1055241	46297	107915	0	0	8214	561589	0	0
2024-10-11 01:45:47			0	38103	0	0	0	21563	20120	162040	27137	1055214	46297	107917	0	0	8214	561310	0	0
2024-10-11 01:46:47			0	38109	0	0	0	21555	20120	162048	27209	1055178	46297	107914	0	0	8215	561071	0	0
2024-10-11 01:47:47			0	38110	0	0	0	21553	20130	162136	26909	1055205	46297	107913	0	0	8215	561000	0	0
2024-10-11 01:48:47			0	38097	0	0	0	21558	20120	162004	27227	1055205	46286	107915	0	0	8214	561549	0	0
2024-10-11 01:49:47			0	38089	0	0	0	21555	20120	162032	26757	1055241	46276	107914	0	0	8214	561868	0	0
2024-10-11 01:50:47			0	38118	0	0	0	21555	20110	161992	27182	1055161	46274	107914	0	0	8215	560743	0	0
2024-10-11 01:51:47			0	38096	0	0	0	21561	20120	162048	27317	1055232	46286	107916	0	0	8214	561589	0	0
2024-10-11 01:52:47			0	38117	0	0	0	21561	20120	162108	27298	1055161	46287	107916	0	0	8215	560752	0	0
2024-10-11 01:53:47			0	38110	0	0	0	21563	20130	162048	27069	1055249	46287	107917	0	0	8215	561000	0	0
2024-10-11 01:54:47			0	38109	0	0	0	21563	20130	162100	27209	1055232	46287	107917	0	0	8215	561040	0	0
2024-10-11 01:55:47			0	38088	0	0	0	21568	20130	162060	27142	1055258	46297	107919	0	0	8213	561877	0	0
2024-10-11 01:56:47			0	38114	0	0	0	21566	20120	162032	27234	1055214	46276	107918	0	0	8215	560872	0	0
2024-10-11 01:57:47			0	38113	0	0	0	21566	20130	162096	27046	1055205	46287	107918	0	0	8215	560881	0	0
2024-10-11 01:58:47			0	38099	0	0	0	21566	20130	162000	27031	1055249	46276	107918	0	0	8214	561439	0	0
2024-10-11 01:59:47			0	38125	0	0	0	21558	20120	162160	27267	1055267	46276	107915	0	0	8216	560434	0	0
2024-10-11 02:00:47			0	38095	0	0	0	21558	20120	162152	27166	1055214	46265	107915	0	0	8214	561629	0	0
2024-10-11 02:01:47			0	38125	0	0	0	21561	20120	162152	27137	1055178	46275	107916	0	0	8216	560434	0	0
2024-10-11 02:02:47			0	38102	0	0	0	21561	20130	162192	27092	1055223	46287	107916	0	0	8214	561319	0	0
2024-10-11 02:03:47			0	38107	0	0	0	21553	20130	162196	27286	1055223	46287	107913	0	0	8215	561120	0	0
2024-10-11 02:04:47			0	38093	0	0	0	21563	20120	162148	27024	1055214	46287	107917	0	0	8214	561709	0	0
2024-10-11 02:05:47			0	38108	0	0	0	21563	20130	162132	27104	1055258	46276	107917	0	0	8215	561080	0	0
2024-10-11 02:06:47			0	38115	0	0	0	21558	20130	162032	26946	1055223	46287	107915	0	0	8215	560801	0	0
2024-10-11 02:07:47			0	38107	0	0	0	21563	20120	162092	27270	1055214	46287	107917	0	0	8215	561151	0	0
2024-10-11 02:08:47			0	38124	0	0	0	21561	20130	162124	27248	1055258	46297	107916	0	0	8216	560443	0	0
2024-10-11 02:09:47			0	38110	0	0	0	21553	20120	162188	27024	1055205	46286	107913	0	0	8215	561031	0	0
2024-10-11 02:10:47			0	38113	0	0	0	21561	20120	162216	26972	1055214	46276	107916	0	0	8215	560912	0	0
2024-10-11 02:11:47			0	38114	0	0	0	21558	20120	162148	27213	1055214	46265	107915	0	0	8215	560872	0	0
2024-10-11 02:12:47			0	38101	0	0	0	21553	20130	162196	27163	1055232	46297	107913	0	0	8214	561359	0	0
2024-10-11 02:13:47			0	38104	0	0	0	21555	20120	162188	27183	1055267	46276	107914	0	0	8215	561270	0	0
2024-10-11 02:14:47			0	38106	0	0	0	21550	20120	162048	26755	1055214	46265	107912	0	0	8215	561191	0	0
2024-10-11 02:15:47			0	38094	0	0	0	21550	20110	162004	27050	1055196	46274	107912	0	0	8214	561700	0	0
2024-10-11 02:16:47			0	38100	0	0	0	21558	20130	162092	26866	1055249	46276	107915	0	0	8214	561399	0	0
2024-10-11 02:17:47			0	38097	0	0	0	21563	20120	162128	27171	1055187	46265	107917	0	0	8214	561549	0	0
2024-10-11 02:18:47			0	38094	0	0	0	21563	20120	162132	27355	1055205	46286	107917	0	0	8214	561669	0	0
2024-10-11 02:19:47			0	38087	0	0	0	21553	20120	162048	27183	1055187	46297	107913	0	0	8214	561948	0	0
2024-10-11 02:20:47			0	38095	0	0	0	21555	20120	162084	27305	1055214	46276	107914	0	0	8214	561629	0	0
2024-10-11 02:21:47			0	38096	0	0	0	21561	20130	162180	27348	1055232	46287	107916	0	0	8214	561558	0	0
2024-10-11 02:22:47			0	38096	0	0	0	21542	20120	162160	27190	1055258	46286	107909	0	0	8214	561589	0	0
2024-10-11 02:23:47			0	38106	0	0	0	21550	20120	162236	27211	1055178	46286	107912	0	0	8215	561191	0	0
2024-10-11 02:24:47			0	38101	0	0	0	21553	20120	162228	27114	1055258	46275	107913	0	0	8214	561390	0	0
2024-10-11 02:25:47			0	38086	0	0	0	21550	20130	162212	26779	1055249	46276	107912	0	0	8214	561957	0	0
2024-10-11 02:26:47			0	38105	0	0	0	21561	20130	162268	26946	1055276	46287	107916	0	0	8215	561199	0	0
2024-10-11 02:27:47			0	38108	0	0	0	21555	20120	162208	27604	1055214	46297	107914	0	0	8215	561111	0	0
2024-10-11 02:28:47			0	38105	0	0	0	21553	20120	162288	27128	1055205	46297	107913	0	0	8215	561230	0	0
2024-10-11 02:29:47			0	38092	0	0	0	21555	20120	162300	27435	1055241	46287	107914	0	0	8214	561749	0	0
2024-10-11 02:30:47			0	38085	0	0	0	21548	20120	162192	27467	1055205	46297	107911	0	0	8214	562028	0	0
2024-10-11 02:31:47			0	38079	0	0	0	21550	20130	162328	27289	1055179	46265	107912	0	0	8213	562236	0	0
2024-10-11 02:32:47			0	38085	0	0	0	21555	20120	162276	27478	1055232	46286	107914	0	0	8213	562028	0	0
2024-10-11 02:33:47			0	38091	0	0	0	21558	20120	162220	27298	1055232	46275	107915	0	0	8214	561789	0	0
2024-10-11 02:34:47			0	38101	0	0	0	21540	20110	162268	26852	1055170	46274	107908	0	0	8215	561421	0	0
2024-10-11 02:35:47			0	38079	0	0	0	21548	20120	162256	27171	1055214	46297	107911	0	0	8213	562267	0	0
2024-10-11 02:36:47			0	38101	0	0	0	21553	20120	162240	27000	1055214	46265	107913	0	0	8214	561390	0	0
2024-10-11 02:37:47			0	38100	0	0	0	21555	20110	162160	27062	1055161	46274	107914	0	0	8214	561461	0	0
2024-10-11 02:38:47			0	38105	0	0	0	21561	20120	162244	27038	1055205	46286	107916	0	0	8215	561230	0	0
2024-10-11 02:39:47			0	38103	0	0	0	21563	20120	162284	27187	1055232	46297	107917	0	0	8214	561310	0	0
2024-10-11 02:40:47			0	38115	0	0	0	21555	20110	162156	27156	1055223	46296	107914	0	0	8215	560863	0	0
2024-10-11 02:41:47			0	38103	0	0	0	21558	20120	162204	27015	1055152	46297	107915	0	0	8214	561310	0	0
2024-10-11 02:42:47			0	38101	0	0	0	21550	20120	162196	27296	1055161	46276	107912	0	0	8214	561390	0	0
2024-10-11 02:43:47			0	38104	0	0	0	21550	20120	162212	27339	1055187	46287	107912	0	0	8215	561270	0	0
2024-10-11 02:44:47			0	38102	0	0	0	21555	20120	162280	27206	1055205	46275	107914	0	0	8214	561350	0	0
2024-10-11 02:45:47			0	38111	0	0	0	21545	20120	162184	26927	1055232	46275	107910	0	0	8215	560991	0	0
2024-10-11 02:46:47			0	38101	0	0	0	21550	20120	162224	26934	1055214	46287	107912	0	0	8214	561390	0	0
2024-10-11 02:47:47			0	38094	0	0	0	21555	20110	162248	27319	1055170	46285	107914	0	0	8214	561700	0	0
2024-10-11 02:48:47			0	38093	0	0	0	21553	20120	162104	27225	1055205	46286	107913	0	0	8214	561709	0	0
2024-10-11 02:49:47			0	38108	0	0	0	21545	20120	162188	26923	1055205	46286	107910	0	0	8215	561111	0	0
2024-10-11 02:50:47			0	38098	0	0	0	21553	20110	162276	27249	1055170	46263	107913	0	0	8214	561540	0	0
2024-10-11 02:51:47			0	38111	0	0	0	21550	20120	162264	27235	1055187	46254	107912	0	0	8215	560991	0	0
2024-10-11 02:52:47			0	38121	0	0	0	21548	20110	162116	26675	1055214	46285	107911	0	0	8216	560624	0	0
2024-10-11 02:53:47			0	38120	0	0	0	21548	20110	162148	27343	1055196	46274	107911	0	0	8216	560664	0	0
2024-10-11 02:54:47			0	38092	0	0	0	21553	20120	162208	26772	1055232	46286	107913	0	0	8214	561749	0	0
2024-10-11 02:55:47			0	38106	0	0	0	21555	20110	162132	27157	1055196	46285	107914	0	0	8215	561222	0	0
2024-10-11 02:56:47			0	38099	0	0	0	21563	20110	162264	27060	1055170	46285	107917	0	0	8214	561501	0	0
2024-10-11 02:57:47			0	38112	0	0	0	21558	20120	162236	27111	1055152	46286	107915	0	0	8215	560951	0	0
2024-10-11 02:58:47			0	38105	0	0	0	21555	20110	162200	26935	1055223	46285	107914	0	0	8215	561261	0	0
2024-10-11 02:59:47			0	38109	0	0	0	21548	20120	162128	27171	1055232	46297	107911	0	0	8215	561071	0	0
2024-10-11 03:00:47			0	38121	0	0	0	21542	20110	162132	27213	1055196	46274	107909	0	0	8216	560624	0	0
2024-10-11 03:01:47			0	38105	0	0	0	21558	20110	162312	27175	1055196	46285	107915	0	0	8215	561261	0	0
2024-10-11 03:02:47			0	38097	0	0	0	21550	20120	162208	26935	1055178	46275	107912	0	0	8214	561549	0	0
2024-10-11 03:03:47			0	38101	0	0	0	21550	20120	162216	27209	1055205	46275	107912	0	0	8214	561390	0	0
2024-10-11 03:04:47			0	38092	0	0	0	21558	20110	162208	27045	1055214	46274	107915	0	0	8214	561780	0	0
2024-10-11 03:05:47			0	38100	0	0	0	21550	20120	162260	27209	1055178	46275	107912	0	0	8214	561430	0	0
2024-10-11 03:06:47			0	38089	0	0	0	21540	20110	162276	26993	1055196	46274	107908	0	0	8214	561899	0	0
2024-10-11 03:07:47			0	38106	0	0	0	21542	20120	162264	27001	1055178	46286	107909	0	0	8215	561191	0	0
2024-10-11 03:08:47			0	38080	0	0	0	21542	20120	162176	27230	1055178	46286	107909	0	0	8213	562227	0	0
2024-10-11 03:09:47			0	38072	0	0	0	21540	20110	162244	27289	1055143	46296	107908	0	0	8213	562578	0	0
2024-10-11 03:10:47			0	38087	0	0	0	21545	20110	162224	27098	1055161	46285	107910	0	0	8214	561979	0	0
2024-10-11 03:11:47			0	38091	0	0	0	21550	20110	162372	26956	1055214	46296	107912	0	0	8214	561820	0	0
2024-10-11 03:12:47			0	38082	0	0	0	21542	20110	162248	27301	1055187	46274	107909	0	0	8213	562178	0	0
2024-10-11 03:13:47			0	38079	0	0	0	21540	20110	162288	27131	1055187	46274	107908	0	0	8213	562298	0	0
2024-10-11 03:14:47			0	38084	0	0	0	21540	20110	162308	27083	1055170	46285	107908	0	0	8214	562099	0	0
2024-10-11 03:15:47			0	38083	0	0	0	21548	20110	162288	27293	1055187	46274	107911	0	0	8213	562139	0	0
2024-10-11 03:16:47			0	38087	0	0	0	21545	20110	162260	26892	1055170	46285	107910	0	0	8214	561979	0	0
2024-10-11 03:17:47			0	38083	0	0	0	21545	20110	162248	26902	1055170	46296	107910	0	0	8213	562139	0	0
2024-10-11 03:18:47			0	38071	0	0	0	21542	20110	162324	27135	1055187	46274	107909	0	0	8213	562618	0	0
2024-10-11 03:19:47			0	38082	0	0	0	21542	20110	162248	27393	1055161	46274	107909	0	0	8213	562178	0	0
2024-10-11 03:20:47			0	38069	0	0	0	21550	20110	162280	26850	1055170	46285	107912	0	0	8213	562697	0	0
2024-10-11 03:21:47			0	38074	0	0	0	21550	20110	162284	27069	1055161	46274	107912	0	0	8213	562498	0	0
2024-10-11 03:22:47			0	38080	0	0	0	21548	20110	162268	27260	1055223	46274	107911	0	0	8213	562258	0	0
2024-10-11 03:23:47			0	38092	0	0	0	21548	20110	162260	27436	1055116	46285	107911	0	0	8214	561780	0	0
2024-10-11 03:24:47			0	38078	0	0	0	21555	20100	162188	27161	1055178	46273	107914	0	0	8213	562369	0	0
2024-10-11 03:25:47			0	38110	0	0	0	21555	20110	162316	26876	1055214	46285	107914	0	0	8215	561062	0	0
2024-10-11 03:26:47			0	38099	0	0	0	21561	20110	162312	27142	1055223	46274	107916	0	0	8214	561501	0	0
2024-10-11 03:27:47			0	38087	0	0	0	21553	20120	162304	26908	1055258	46308	107913	0	0	8214	561948	0	0
2024-10-11 03:28:47			0	38106	0	0	0	21568	20120	162116	26778	1055258	46286	107919	0	0	8214	561191	0	0
2024-10-11 03:29:47			0	38100	0	0	0	21561	20120	162100	27027	1055241	46287	107916	0	0	8214	561430	0	0
2024-10-11 03:30:47			0	38123	0	0	0	21576	20120	162212	27057	1055241	46297	107922	0	0	8215	560513	0	0
2024-10-11 03:31:47			0	38127	0	0	0	21573	20120	162216	26899	1055258	46297	107921	0	0	8216	560354	0	0
2024-10-11 03:32:47			0	38111	0	0	0	21568	20130	162204	27119	1055276	46287	107919	0	0	8215	560960	0	0
2024-10-11 03:33:47			0	38108	0	0	0	21561	20120	162096	27313	1055232	46308	107916	0	0	8215	561111	0	0
2024-10-11 03:34:47			0	38101	0	0	0	21555	20130	162136	26835	1055303	46287	107914	0	0	8214	561359	0	0
2024-10-11 03:35:47			0	38103	0	0	0	21558	20120	162100	26928	1055241	46287	107915	0	0	8214	561310	0	0
2024-10-11 03:36:47			0	38105	0	0	0	21558	20130	162156	27029	1055276	46297	107915	0	0	8215	561199	0	0
2024-10-11 03:37:47			0	38091	0	0	0	21566	20130	162280	27137	1055249	46276	107918	0	0	8214	561758	0	0
2024-10-11 03:38:47			0	38095	0	0	0	21548	20130	162236	27175	1055223	46297	107911	0	0	8214	561598	0	0
2024-10-11 03:39:47			0	38092	0	0	0	21542	20120	162360	27007	1055214	46287	107909	0	0	8214	561749	0	0
2024-10-11 03:40:47			0	38084	0	0	0	21555	20120	162208	27237	1055205	46275	107914	0	0	8213	562068	0	0
2024-10-11 03:41:47			0	38083	0	0	0	21550	20130	162184	27268	1055249	46297	107912	0	0	8213	562077	0	0
2024-10-11 03:42:47			0	38102	0	0	0	21563	20130	162156	27296	1055249	46276	107917	0	0	8214	561319	0	0
2024-10-11 03:43:47			0	38117	0	0	0	21566	20110	162132	27007	1055249	46296	107918	0	0	8215	560783	0	0
2024-10-11 03:44:47			0	38107	0	0	0	21553	20120	162136	27183	1055294	46287	107913	0	0	8215	561151	0	0
2024-10-11 03:45:47			0	38105	0	0	0	21563	20130	162200	27223	1055196	46287	107917	0	0	8215	561199	0	0
2024-10-11 03:46:47			0	38101	0	0	0	21568	20120	162248	26982	1055241	46297	107919	0	0	8214	561390	0	0
2024-10-11 03:47:47			0	38115	0	0	0	21561	20120	162244	27121	1055232	46297	107916	0	0	8215	560832	0	0
2024-10-11 03:48:47			0	38087	0	0	0	21558	20120	162140	27152	1055258	46286	107915	0	0	8213	561948	0	0
2024-10-11 03:49:47			0	38106	0	0	0	21553	20120	162272	27251	1055294	46297	107913	0	0	8215	561191	0	0
2024-10-11 03:50:47			0	38091	0	0	0	21555	20120	162224	27225	1055187	46276	107914	0	0	8214	561789	0	0
2024-10-11 03:51:47			0	38088	0	0	0	21555	20120	162272	26927	1055232	46286	107914	0	0	8214	561908	0	0
2024-10-11 03:52:47			0	38086	0	0	0	21548	20120	162276	27424	1055241	46265	107911	0	0	8214	561988	0	0
2024-10-11 03:53:47			0	38081	0	0	0	21548	20130	162216	27102	1055249	46276	107911	0	0	8213	562156	0	0
2024-10-11 03:54:47			0	38068	0	0	0	21558	20120	162328	27213	1055258	46275	107915	0	0	8212	562706	0	0
2024-10-11 03:55:47			0	38077	0	0	0	21563	20120	162312	27213	1055241	46297	107917	0	0	8213	562347	0	0
2024-10-11 03:56:47			0	38065	0	0	0	21566	20120	162324	27081	1055294	46287	107918	0	0	8212	562826	0	0
2024-10-11 03:57:47			0	38099	0	0	0	21568	20120	162232	27341	1055258	46297	107919	0	0	8214	561470	0	0
2024-10-11 03:58:47			0	38071	0	0	0	21553	20120	162252	27460	1055294	46287	107913	0	0	8213	562586	0	0
2024-10-11 03:59:47			0	38076	0	0	0	21550	20130	162320	27256	1055196	46287	107912	0	0	8213	562356	0	0
2024-10-11 04:00:47			0	38057	0	0	0	21550	20120	162360	27227	1055241	46254	107912	0	0	8212	563145	0	0
2024-10-11 04:01:47			0	38074	0	0	0	21553	20120	162296	27213	1055267	46297	107913	0	0	8213	562467	0	0
2024-10-11 04:02:47			0	38061	0	0	0	21548	20110	162288	27327	1055223	46274	107911	0	0	8212	563017	0	0
2024-10-11 04:03:47			0	38067	0	0	0	21545	20110	162356	27092	1055223	46285	107910	0	0	8212	562777	0	0
2024-10-11 04:04:47			0	38059	0	0	0	21548	20120	162424	27170	1055214	46276	107911	0	0	8212	563066	0	0
2024-10-11 04:05:47			0	38067	0	0	0	21545	20120	162384	27183	1055187	46276	107910	0	0	8213	562746	0	0
2024-10-11 04:06:47			0	38053	0	0	0	21548	20120	162460	27055	1055205	46286	107911	0	0	8212	563305	0	0
2024-10-11 04:07:47			0	38037	0	0	0	21545	20120	162432	27111	1055178	46275	107910	0	0	8211	563945	0	0
2024-10-11 04:08:47			0	38055	0	0	0	21548	20110	162480	27190	1055196	46274	107911	0	0	8212	563256	0	0
2024-10-11 04:09:47			0	38046	0	0	0	21537	20110	162436	27268	1055134	46285	107907	0	0	8211	563616	0	0
2024-10-11 04:10:47			0	38031	0	0	0	21537	20100	162423	27149	1055125	46284	107907	0	0	8210	564247	0	0
2024-10-11 04:11:47			0	38052	0	0	0	21540	20110	162412	27286	1055170	46285	107908	0	0	8212	563376	0	0
2024-10-11 04:12:47			0	38036	0	0	0	21535	20100	162436	27085	1055152	46284	107906	0	0	8211	564047	0	0
2024-10-11 04:13:47			0	38037	0	0	0	21537	20100	162416	27298	1055205	46294	107907	0	0	8211	564007	0	0
2024-10-11 04:14:47			0	38024	0	0	0	21542	20110	162356	27015	1055134	46263	107909	0	0	8210	564496	0	0
2024-10-11 04:15:47			0	38047	0	0	0	21532	20110	162296	26956	1055170	46285	107905	0	0	8212	563576	0	0
2024-10-11 04:16:47			0	38038	0	0	0	21540	20110	162452	27109	1055161	46296	107908	0	0	8211	563936	0	0
2024-10-11 04:17:47			0	38040	0	0	0	21532	20110	162508	27060	1055161	46285	107905	0	0	8211	563856	0	0
2024-10-11 04:18:47			0	38035	0	0	0	21545	20110	162416	26753	1055161	46285	107910	0	0	8211	564056	0	0
2024-10-11 04:19:47			0	38043	0	0	0	21535	20100	162512	27083	1055205	46284	107906	0	0	8211	563767	0	0
2024-10-11 04:20:47			0	38028	0	0	0	21527	20100	162427	27305	1055178	46273	107903	0	0	8210	564367	0	0
2024-10-11 04:21:47			0	38034	0	0	0	21532	20110	162432	26967	1055107	46274	107905	0	0	8211	564096	0	0
2024-10-11 04:22:47			0	38052	0	0	0	21529	20100	162424	27138	1055125	46273	107904	0	0	8212	563407	0	0
2024-10-11 04:23:47			0	38023	0	0	0	21529	20100	162447	27223	1055178	46273	107904	0	0	8210	564567	0	0
2024-10-11 04:24:47			0	38036	0	0	0	21529	20100	162380	27171	1055143	46273	107904	0	0	8211	564047	0	0
2024-10-11 04:25:47			0	38029	0	0	0	21535	20100	162456	27287	1055090	46273	107906	0	0	8210	564327	0	0
2024-10-11 04:26:47			0	38040	0	0	0	21532	20100	162432	27398	1055152	46262	107905	0	0	8211	563887	0	0
2024-10-11 04:27:47			0	38026	0	0	0	21537	20110	162459	27241	1055134	46274	107907	0	0	8210	564415	0	0
2024-10-11 04:28:47			0	38023	0	0	0	21529	20100	162475	27407	1055125	46294	107904	0	0	8210	564567	0	0
2024-10-11 04:29:47			0	38037	0	0	0	21527	20100	162472	27371	1055116	46284	107903	0	0	8211	564007	0	0
2024-10-11 04:30:47			0	38009	0	0	0	21524	20090	162539	27168	1055107	46283	107902	0	0	8209	565158	0	0
2024-10-11 04:31:47			0	38016	0	0	0	21535	20100	162523	27164	1055152	46294	107906	0	0	8210	564847	0	0
2024-10-11 04:32:47			0	38026	0	0	0	21522	20090	162487	27171	1055098	46293	107901	0	0	8210	564478	0	0
2024-10-11 04:33:47			0	38014	0	0	0	21524	20090	162431	27248	1055124	46283	107902	0	0	8210	564958	0	0
2024-10-11 04:34:47			0	38002	0	0	0	21529	20100	162531	27163	1055116	46273	107904	0	0	8209	565407	0	0
2024-10-11 04:35:47			0	38010	0	0	0	21519	20100	162415	27171	1055116	46294	107900	0	0	8210	565087	0	0
2024-10-11 04:36:47			0	38007	0	0	0	21529	20090	162487	27163	1055098	46283	107904	0	0	8209	565238	0	0
2024-10-11 04:37:47			0	38013	0	0	0	21537	20100	162499	27422	1055143	46284	107907	0	0	8209	564967	0	0
2024-10-11 04:38:47			0	38030	0	0	0	21524	20100	162440	27460	1055125	46273	107902	0	0	8211	564287	0	0
2024-10-11 04:39:47			0	38034	0	0	0	21514	20090	162452	27229	1055081	46283	107898	0	0	8211	564158	0	0
2024-10-11 04:40:47			0	38023	0	0	0	21511	20100	162407	26993	1055090	46273	107897	0	0	8210	564567	0	0
2024-10-11 04:41:47			0	38014	0	0	0	21527	20080	162451	26902	1055062	46292	107903	0	0	8210	564989	0	0
2024-10-11 04:42:47			0	38015	0	0	0	21532	20090	162367	26961	1055045	46272	107905	0	0	8210	564918	0	0
2024-10-11 04:43:47			0	38031	0	0	0	21516	20090	162392	26715	1055071	46250	107899	0	0	8211	564278	0	0
2024-10-11 04:44:47			0	38018	0	0	0	21519	20090	162487	26850	1055098	46293	107900	0	0	8210	564798	0	0
2024-10-11 04:45:47			0	38030	0	0	0	21516	20080	162263	26994	1055089	46271	107899	0	0	8211	564349	0	0
2024-10-11 04:46:47			0	38027	0	0	0	21519	20090	162416	26885	1055081	46283	107900	0	0	8210	564438	0	0
2024-10-11 04:47:47			0	38030	0	0	0	21524	20080	162476	27107	1055116	46282	107902	0	0	8211	564349	0	0
2024-10-11 04:48:47			0	38028	0	0	0	21519	20080	162343	27060	1055036	46282	107900	0	0	8211	564429	0	0
2024-10-11 04:49:47			0	38040	0	0	0	21509	20080	162308	27286	1054929	46282	107896	0	0	8211	563949	0	0
2024-10-11 04:50:47			0	38039	0	0	0	21514	20090	162408	27090	1055071	46272	107898	0	0	8211	563958	0	0
2024-10-11 04:51:47			0	38021	0	0	0	21514	20080	162375	27078	1055080	46271	107898	0	0	8210	564709	0	0
2024-10-11 04:52:47			0	38043	0	0	0	21514	20090	162252	27467	1055107	46305	107898	0	0	8212	563798	0	0
2024-10-11 04:53:47			0	38049	0	0	0	21503	20090	162316	26953	1055124	46283	107894	0	0	8212	563558	0	0
2024-10-11 04:54:47			0	38037	0	0	0	21516	20090	162312	27390	1055071	46283	107899	0	0	8211	564038	0	0
2024-10-11 04:55:47			0	38034	0	0	0	21516	20080	162264	26920	1055036	46282	107899	0	0	8211	564189	0	0
2024-10-11 04:56:47			0	38030	0	0	0	21509	20090	162340	27176	1055124	46283	107896	0	0	8211	564318	0	0
2024-10-11 04:57:47			0	38023	0	0	0	21509	20090	162356	26875	1055124	46293	107896	0	0	8210	564598	0	0
2024-10-11 04:58:47			0	38021	0	0	0	21506	20090	162447	27112	1055071	46272	107895	0	0	8210	564678	0	0
2024-10-11 04:59:47			0	38016	0	0	0	21511	20080	162399	27114	1055036	46271	107897	0	0	8210	564909	0	0
2024-10-11 05:00:47			0	38037	0	0	0	21511	20080	162388	27154	1055107	46271	107897	0	0	8211	564069	0	0
2024-10-11 05:01:47			0	38030	0	0	0	21501	20080	162368	26892	1055027	46282	107893	0	0	8211	564349	0	0
2024-10-11 05:02:47			0	38017	0	0	0	21498	20080	162391	27218	1055027	46292	107892	0	0	8210	564869	0	0
2024-10-11 05:03:47			0	38032	0	0	0	21503	20080	162332	26977	1054921	46271	107894	0	0	8211	564269	0	0
2024-10-11 05:04:47			0	38026	0	0	0	21493	20080	162280	26970	1055062	46271	107890	0	0	8211	564509	0	0
2024-10-11 05:05:47			0	38015	0	0	0	21490	20070	162407	26918	1055018	46270	107889	0	0	8210	564980	0	0
2024-10-11 05:06:47			0	38026	0	0	0	21485	20070	162407	26793	1055009	46270	107887	0	0	8211	564540	0	0
2024-10-11 05:07:47			0	38036	0	0	0	21483	20060	162256	27166	1055000	46280	107886	0	0	8211	564171	0	0
2024-10-11 05:08:47			0	38040	0	0	0	21490	20070	162312	27140	1054982	46270	107889	0	0	8212	563980	0	0
2024-10-11 05:09:47			0	38048	0	0	0	21488	20070	162336	27150	1054982	46270	107888	0	0	8212	563660	0	0
2024-10-11 05:10:47			0	38048	0	0	0	21498	20070	162376	27053	1054982	46281	107892	0	0	8212	563660	0	0
2024-10-11 05:11:47			0	38044	0	0	0	21488	20070	162340	26828	1055036	46281	107888	0	0	8212	563820	0	0
2024-10-11 05:12:47			0	38054	0	0	0	21496	20060	162304	26672	1054965	46279	107891	0	0	8212	563452	0	0
2024-10-11 05:13:47			0	38040	0	0	0	21485	20060	162244	26785	1054973	46258	107887	0	0	8212	564011	0	0
2024-10-11 05:14:47			0	38049	0	0	0	21490	20060	162432	27242	1054885	46257	107889	0	0	8212	563652	0	0
2024-10-11 05:15:47			0	38049	0	0	0	21485	20070	162372	26883	1054956	46281	107887	0	0	8212	563620	0	0
2024-10-11 05:16:47			0	38055	0	0	0	21485	20060	162360	26587	1054973	46269	107887	0	0	8213	563412	0	0
2024-10-11 05:17:47			0	38049	0	0	0	21475	20060	162388	26982	1054973	46248	107883	0	0	8212	563652	0	0
2024-10-11 05:18:47			0	38043	0	0	0	21496	20050	162356	26948	1054973	46289	107891	0	0	8212	563923	0	0
2024-10-11 05:19:47			0	38040	0	0	0	21480	20060	162380	27367	1055044	46290	107885	0	0	8212	564011	0	0
2024-10-11 05:20:47			0	38025	0	0	0	21477	20050	162395	27000	1054876	46268	107884	0	0	8211	564642	0	0
2024-10-11 05:21:47			0	38037	0	0	0	21490	20050	162444	27133	1055009	46279	107889	0	0	8211	564162	0	0
2024-10-11 05:22:47			0	38038	0	0	0	21480	20060	162460	27007	1054911	46268	107885	0	0	8212	564091	0	0
2024-10-11 05:23:47			0	38047	0	0	0	21483	20050	162412	27206	1054982	46268	107886	0	0	8212	563763	0	0
2024-10-11 05:24:47			0	38024	0	0	0	21496	20050	162575	27038	1054849	46290	107891	0	0	8211	564683	0	0
2024-10-11 05:25:47			0	38037	0	0	0	21490	20050	162392	27249	1054849	46279	107889	0	0	8211	564162	0	0
2024-10-11 05:26:47			0	38025	0	0	0	21498	20050	162423	27203	1054867	46289	107892	0	0	8211	564642	0	0
2024-10-11 05:27:47			0	38014	0	0	0	21498	20050	162503	27235	1054956	46268	107892	0	0	8210	565083	0	0
2024-10-11 05:28:47			0	38023	0	0	0	21485	20060	162515	27474	1054938	46279	107887	0	0	8211	564691	0	0
2024-10-11 05:29:47			0	38029	0	0	0	21472	20050	162464	26951	1054947	46278	107882	0	0	8211	564482	0	0
2024-10-11 05:30:47			0	38018	0	0	0	21459	20050	162431	26951	1054849	46268	107877	0	0	8211	564922	0	0
2024-10-11 05:31:47			0	37999	0	0	0	21462	20050	162471	27031	1054867	46256	107878	0	0	8210	565683	0	0
2024-10-11 05:32:47			0	38008	0	0	0	21462	20050	162515	27029	1054823	46268	107878	0	0	8210	565323	0	0
2024-10-11 05:33:47			0	38004	0	0	0	21464	20040	162563	26835	1054911	46278	107879	0	0	8210	565514	0	0
2024-10-11 05:34:47			0	38018	0	0	0	21472	20040	162539	27052	1054929	46277	107882	0	0	8211	564954	0	0
2024-10-11 05:35:47			0	38016	0	0	0	21483	20040	162507	27107	1054822	46266	107886	0	0	8210	565034	0	0
2024-10-11 05:36:47			0	38045	0	0	0	21467	20050	162460	26739	1054920	46278	107880	0	0	8212	563843	0	0
2024-10-11 05:37:47			0	38029	0	0	0	21457	20040	162567	27183	1054822	46255	107876	0	0	8211	564514	0	0
2024-10-11 05:38:47			0	38040	0	0	0	21464	20040	162532	27135	1054876	46266	107879	0	0	8212	564074	0	0
2024-10-11 05:39:47			0	38042	0	0	0	21459	20040	162472	26918	1054796	46277	107877	0	0	8212	563994	0	0
2024-10-11 05:40:47			0	38041	0	0	0	21493	20030	162564	27057	1054813	46266	107890	0	0	8211	564065	0	0
2024-10-11 05:41:47			0	38048	0	0	0	21470	20030	162424	27270	1054840	46266	107881	0	0	8212	563785	0	0
2024-10-11 05:42:47			0	38039	0	0	0	21470	20040	162352	27086	1054849	46277	107881	0	0	8212	564113	0	0
2024-10-11 05:43:47			0	38038	0	0	0	21464	20040	162372	26866	1054849	46266	107879	0	0	8212	564154	0	0
2024-10-11 05:44:47			0	38034	0	0	0	21475	20030	162456	26861	1054805	46276	107883	0	0	8211	564345	0	0
2024-10-11 05:45:47			0	38048	0	0	0	21527	20030	162540	26946	1054920	46277	107903	0	0	8211	563785	0	0
2024-10-11 05:46:47			0	38051	0	0	0	21503	20040	162516	26856	1054876	46288	107894	0	0	8212	563634	0	0
2024-10-11 05:47:47			0	38054	0	0	0	21496	20040	162416	27237	1054902	46288	107891	0	0	8212	563514	0	0
2024-10-11 05:48:47			0	38043	0	0	0	21451	20040	162332	27277	1054902	46277	107874	0	0	8212	563954	0	0
2024-10-11 05:49:47			0	38061	0	0	0	21470	20040	162320	27339	1054796	46288	107881	0	0	8213	563234	0	0
2024-10-11 05:50:47			0	38065	0	0	0	21483	20040	162332	27383	1054796	46277	107886	0	0	8213	563074	0	0
2024-10-11 05:51:47			0	38060	0	0	0	21464	20040	162492	27410	1054822	46277	107879	0	0	8213	563274	0	0
2024-10-11 05:52:47			0	38047	0	0	0	21459	20030	162332	27331	1054813	46277	107877	0	0	8212	563825	0	0
2024-10-11 05:53:47			0	38053	0	0	0	21483	20030	162384	27071	1054760	46277	107886	0	0	8212	563585	0	0
2024-10-11 05:54:47			0	38059	0	0	0	21472	20030	162312	27043	1054840	46266	107882	0	0	8213	563345	0	0
2024-10-11 05:55:47			0	38062	0	0	0	21472	20020	162260	27230	1054796	46276	107882	0	0	8213	563256	0	0
2024-10-11 05:56:47			0	38061	0	0	0	21493	20030	162236	27355	1054805	46276	107890	0	0	8213	563265	0	0
2024-10-11 05:57:47			0	38054	0	0	0	21514	20030	162372	27197	1054840	46277	107898	0	0	8212	563545	0	0
2024-10-11 05:58:47			0	38067	0	0	0	21472	20030	162448	27166	1054920	46288	107882	0	0	8213	563025	0	0
2024-10-11 05:59:47			0	38060	0	0	0	21472	20040	162360	26889	1054849	46277	107882	0	0	8213	563274	0	0
2024-10-11 06:00:47			0	38042	0	0	0	21477	20040	162392	26998	1054849	46277	107884	0	0	8212	563994	0	0
2024-10-11 06:01:47			0	38022	0	0	0	21480	20030	162451	27346	1054946	46277	107885	0	0	8211	564825	0	0
2024-10-11 06:02:47			0	38032	0	0	0	21488	20040	162424	26979	1054849	46288	107888	0	0	8211	564393	0	0
2024-10-11 06:03:47			0	38029	0	0	0	21496	20040	162528	27201	1054929	46277	107891	0	0	8211	564514	0	0
2024-10-11 06:04:47			0	38035	0	0	0	21493	20050	162388	27194	1054982	46279	107890	0	0	8211	564242	0	0
2024-10-11 06:05:47			0	38043	0	0	0	21503	20040	162448	27436	1054911	46289	107894	0	0	8211	563954	0	0
2024-10-11 06:06:47			0	38044	0	0	0	21483	20050	162428	27241	1054956	46290	107886	0	0	8212	563883	0	0
2024-10-11 06:07:47			0	38041	0	0	0	21483	20030	162488	27263	1054867	46277	107886	0	0	8212	564065	0	0
2024-10-11 06:08:47			0	38041	0	0	0	21467	20040	162488	27154	1054911	46278	107880	0	0	8212	564034	0	0
2024-10-11 06:09:47			0	38031	0	0	0	21457	20040	162536	27268	1054831	46267	107876	0	0	8212	564434	0	0
2024-10-11 06:10:47			0	38019	0	0	0	21475	20040	162555	27100	1054849	46277	107883	0	0	8211	564914	0	0
2024-10-11 06:11:47			0	38024	0	0	0	21475	20040	162636	27007	1054849	46277	107883	0	0	8211	564714	0	0
2024-10-11 06:12:47			0	38011	0	0	0	21483	20040	162611	27109	1054796	46277	107886	0	0	8210	565234	0	0
2024-10-11 06:13:47			0	37996	0	0	0	21475	20050	162495	27315	1054893	46267	107883	0	0	8209	565804	0	0
2024-10-11 06:14:47			0	37996	0	0	0	21470	20030	162611	27272	1054813	46288	107881	0	0	8209	565866	0	0
2024-10-11 06:15:47			0	37978	0	0	0	21467	20040	162635	27194	1054902	46266	107880	0	0	8208	566556	0	0
2024-10-11 06:16:47			0	38005	0	0	0	21480	20040	162635	26861	1054902	46277	107885	0	0	8210	565474	0	0
2024-10-11 06:17:47			0	38003	0	0	0	21462	20040	162727	26838	1054938	46278	107878	0	0	8210	565554	0	0
2024-10-11 06:18:47			0	37982	0	0	0	21477	20040	162711	27239	1054831	46278	107884	0	0	8208	566396	0	0
2024-10-11 06:19:47			0	37980	0	0	0	21480	20040	162679	26743	1054902	46288	107885	0	0	8208	566476	0	0
2024-10-11 06:20:47			0	37977	0	0	0	21488	20040	162683	27095	1054929	46277	107888	0	0	8208	566596	0	0
2024-10-11 06:21:47			0	37975	0	0	0	21472	20040	162711	26741	1054911	46278	107882	0	0	8208	566677	0	0
2024-10-11 06:22:47			0	37974	0	0	0	21477	20040	162703	26795	1054911	46278	107884	0	0	8208	566717	0	0
2024-10-11 06:23:47			0	37978	0	0	0	21501	20050	162751	27249	1054867	46289	107893	0	0	8208	566525	0	0
2024-10-11 06:24:47			0	37986	0	0	0	21498	20040	162655	26824	1054858	46278	107892	0	0	8208	566236	0	0
2024-10-11 06:25:47			0	37983	0	0	0	21503	20050	162639	26835	1054920	46278	107894	0	0	8208	566324	0	0
2024-10-11 06:26:47			0	37984	0	0	0	21519	20050	162643	27145	1054920	46278	107900	0	0	8208	566284	0	0
2024-10-11 06:27:47			0	37991	0	0	0	21485	20050	162615	27097	1054982	46290	107887	0	0	8209	566004	0	0
2024-10-11 06:28:47			0	37994	0	0	0	21493	20060	162643	26738	1054965	46257	107890	0	0	8209	565853	0	0
2024-10-11 06:29:47			0	37966	0	0	0	21503	20050	162767	26925	1054947	46267	107894	0	0	8207	567006	0	0
2024-10-11 06:30:47			0	37996	0	0	0	21498	20050	162691	27152	1054956	46290	107892	0	0	8209	565804	0	0
2024-10-11 06:31:47			0	37981	0	0	0	21509	20050	162735	26923	1054982	46290	107896	0	0	8208	566405	0	0
2024-10-11 06:32:47			0	37982	0	0	0	21488	20060	162695	26798	1054965	46268	107888	0	0	8208	566334	0	0
2024-10-11 06:33:47			0	37986	0	0	0	21475	20050	162663	27163	1054956	46268	107883	0	0	8209	566204	0	0
2024-10-11 06:34:47			0	37975	0	0	0	21467	20060	162651	27015	1054965	46257	107880	0	0	8208	566614	0	0
2024-10-11 06:35:47			0	37974	0	0	0	21475	20050	162699	27029	1054982	46247	107883	0	0	8208	566685	0	0
2024-10-11 06:36:47			0	37957	0	0	0	21511	20040	162739	27092	1054911	46267	107897	0	0	8206	567399	0	0
2024-10-11 06:37:47			0	37993	0	0	0	21527	20040	162719	26708	1054938	46278	107903	0	0	8208	565955	0	0
2024-10-11 06:38:47			0	37988	0	0	0	21524	20060	162599	26925	1054991	46301	107902	0	0	8208	566093	0	0
2024-10-11 06:39:47			0	37987	0	0	0	21493	20060	162563	26840	1055027	46291	107890	0	0	8208	566133	0	0
2024-10-11 06:40:47			0	37994	0	0	0	21470	20050	162611	26790	1055009	46301	107881	0	0	8209	565884	0	0
2024-10-11 06:41:47			0	37975	0	0	0	21483	20060	162687	27173	1055000	46269	107886	0	0	8208	566614	0	0
2024-10-11 06:42:47			0	37991	0	0	0	21470	20050	162639	27090	1054947	46267	107881	0	0	8209	566004	0	0
2024-10-11 06:43:47			0	37975	0	0	0	21454	20040	162595	26956	1054911	46267	107875	0	0	8208	566677	0	0
2024-10-11 06:44:47			0	38004	0	0	0	21475	20050	162595	26993	1054840	46256	107883	0	0	8210	565483	0	0
2024-10-11 06:45:47			0	38016	0	0	0	21472	20040	162575	26609	1054805	46278	107882	0	0	8210	565034	0	0
2024-10-11 06:46:47			0	38013	0	0	0	21480	20040	162543	26994	1054778	46267	107885	0	0	8210	565154	0	0
2024-10-11 06:47:47			0	38010	0	0	0	21462	20040	162427	26955	1054849	46288	107878	0	0	8210	565274	0	0
2024-10-11 06:48:47			0	38015	0	0	0	21522	20040	162659	26674	1054911	46267	107901	0	0	8210	565074	0	0
2024-10-11 06:49:47			0	38032	0	0	0	21483	20030	162536	26660	1054787	46288	107886	0	0	8211	564425	0	0
2024-10-11 06:50:47			0	38017	0	0	0	21496	20030	162483	27022	1054920	46277	107891	0	0	8210	565025	0	0
2024-10-11 06:51:47			0	38023	0	0	0	21475	20040	162531	26739	1054831	46278	107883	0	0	8211	564754	0	0
2024-10-11 06:52:47			0	38009	0	0	0	21519	20040	162547	26642	1054964	46278	107900	0	0	8209	565314	0	0
2024-10-11 06:53:47			0	38022	0	0	0	21532	20040	162444	27027	1054938	46267	107905	0	0	8210	564794	0	0
2024-10-11 06:54:47			0	38014	0	0	0	21501	20050	162603	26871	1054920	46278	107893	0	0	8210	565083	0	0
2024-10-11 06:55:47			0	38024	0	0	0	21537	20050	162524	26656	1055000	46289	107907	0	0	8210	564683	0	0
2024-10-11 06:56:47			0	38032	0	0	0	21522	20050	162488	26944	1054982	46301	107901	0	0	8211	564362	0	0
2024-10-11 06:57:47			0	38040	0	0	0	21540	20060	162436	27248	1055018	46268	107908	0	0	8211	564011	0	0
2024-10-11 06:58:47			0	38035	0	0	0	21563	20060	162460	27213	1055027	46291	107917	0	0	8210	564211	0	0
2024-10-11 06:59:47			0	38038	0	0	0	21553	20060	162492	26889	1055133	46291	107913	0	0	8210	564091	0	0
2024-10-11 07:00:47			0	38072	0	0	0	21555	20070	162388	26875	1055098	46291	107914	0	0	8212	562702	0	0
2024-10-11 07:01:47			0	38069	0	0	0	21537	20080	162428	26849	1055186	46292	107907	0	0	8213	562790	0	0
2024-10-11 07:02:47			0	38080	0	0	0	21501	20080	162272	26727	1055053	46292	107893	0	0	8214	562351	0	0
2024-10-11 07:03:47			0	38054	0	0	0	21501	20070	162256	26706	1055009	46259	107893	0	0	8212	563421	0	0
2024-10-11 07:04:47			0	38062	0	0	0	21516	20070	162240	26986	1055044	46281	107899	0	0	8213	563101	0	0
2024-10-11 07:05:47			0	38072	0	0	0	21555	20070	162256	27017	1055098	46270	107914	0	0	8212	562702	0	0
2024-10-11 07:06:47			0	38057	0	0	0	21532	20070	162212	27076	1055071	46281	107905	0	0	8212	563301	0	0
2024-10-11 07:07:47			0	38057	0	0	0	21573	20070	162252	27256	1055124	46291	107921	0	0	8211	563301	0	0
2024-10-11 07:08:47			0	38076	0	0	0	21532	20080	162144	26833	1055107	46292	107905	0	0	8213	562511	0	0
2024-10-11 07:09:47			0	38056	0	0	0	21548	20080	162272	27209	1055080	46282	107911	0	0	8212	563310	0	0
2024-10-11 07:10:47			0	38071	0	0	0	21532	20080	162244	27019	1055107	46292	107905	0	0	8213	562711	0	0
2024-10-11 07:11:47			0	38071	0	0	0	21573	20080	162180	27069	1055213	46282	107921	0	0	8212	562711	0	0
2024-10-11 07:12:47			0	38095	0	0	0	21535	20090	162164	26819	1055151	46316	107906	0	0	8214	561722	0	0
2024-10-11 07:13:47			0	38079	0	0	0	21537	20080	162152	27322	1055107	46282	107907	0	0	8213	562391	0	0
2024-10-11 07:14:47			0	38081	0	0	0	21514	20080	162188	26958	1055080	46292	107898	0	0	8214	562311	0	0
2024-10-11 07:15:47			0	38076	0	0	0	21496	20080	162208	27163	1055080	46271	107891	0	0	8214	562511	0	0
2024-10-11 07:16:47			0	38082	0	0	0	21524	20080	162216	27046	1055116	46260	107902	0	0	8214	562272	0	0
2024-10-11 07:17:47			0	38094	0	0	0	21540	20070	162180	26961	1055124	46291	107908	0	0	8214	561824	0	0
2024-10-11 07:18:47			0	38114	0	0	0	21545	20080	162080	27124	1055169	46271	107910	0	0	8215	560996	0	0
2024-10-11 07:19:47			0	38113	0	0	0	21532	20090	162100	26689	1055151	46305	107905	0	0	8215	561004	0	0
2024-10-11 07:20:47			0	38105	0	0	0	21550	20080	162076	26880	1055186	46292	107912	0	0	8215	561354	0	0
2024-10-11 07:21:47			0	38129	0	0	0	21527	20090	162024	27230	1055257	46305	107903	0	0	8216	560367	0	0
2024-10-11 07:22:47			0	38123	0	0	0	21524	20100	162132	26634	1055196	46284	107902	0	0	8216	560575	0	0
2024-10-11 07:23:47			0	38092	0	0	0	21511	20100	162160	26637	1055090	46284	107897	0	0	8214	561811	0	0
2024-10-11 07:24:47			0	38083	0	0	0	21506	20080	162252	26549	1055169	46282	107895	0	0	8214	562232	0	0
2024-10-11 07:25:47			0	38097	0	0	0	21519	20090	162204	27033	1055124	46283	107900	0	0	8215	561642	0	0
2024-10-11 07:26:47			0	38088	0	0	0	21501	20080	162240	26746	1055107	46282	107893	0	0	8214	562032	0	0
2024-10-11 07:27:47			0	38076	0	0	0	21485	20080	162224	26819	1055053	46282	107887	0	0	8214	562511	0	0
2024-10-11 07:28:47			0	38071	0	0	0	21506	20080	162288	27298	1055107	46260	107895	0	0	8213	562711	0	0
2024-10-11 07:29:47			0	38077	0	0	0	21488	20080	162244	26797	1055080	46260	107888	0	0	8214	562471	0	0
2024-10-11 07:30:47			0	38051	0	0	0	21472	20080	162284	26665	1055000	46292	107882	0	0	8213	563510	0	0
2024-10-11 07:31:47			0	38038	0	0	0	21475	20080	162412	27300	1055053	46271	107883	0	0	8212	564029	0	0
2024-10-11 07:32:47			0	38030	0	0	0	21488	20070	162528	27045	1054956	46281	107888	0	0	8211	564380	0	0
2024-10-11 07:33:47			0	38043	0	0	0	21493	20060	162460	27279	1054965	46279	107890	0	0	8212	563891	0	0
2024-10-11 07:34:47			0	38037	0	0	0	21503	20060	162428	27126	1055027	46269	107894	0	0	8211	564131	0	0
2024-10-11 07:35:47			0	38043	0	0	0	21498	20060	162412	27057	1055027	46280	107892	0	0	8212	563891	0	0
2024-10-11 07:36:47			0	38041	0	0	0	21490	20060	162408	26861	1055080	46302	107889	0	0	8212	563971	0	0
2024-10-11 07:37:47			0	38039	0	0	0	21498	20060	162464	26788	1054991	46247	107892	0	0	8211	564051	0	0
2024-10-11 07:38:47			0	38032	0	0	0	21496	20070	162416	27161	1054956	46291	107891	0	0	8211	564300	0	0
2024-10-11 07:39:47			0	38039	0	0	0	21493	20060	162456	26842	1055044	46279	107890	0	0	8211	564051	0	0
2024-10-11 07:40:47			0	38036	0	0	0	21498	20070	162360	27182	1055044	46281	107892	0	0	8211	564140	0	0
2024-10-11 07:41:47			0	38035	0	0	0	21485	20060	162384	26811	1055000	46280	107887	0	0	8211	564211	0	0
2024-10-11 07:42:47			0	38053	0	0	0	21488	20060	162428	26885	1055053	46269	107888	0	0	8212	563492	0	0
2024-10-11 07:43:47			0	38057	0	0	0	21488	20070	162440	27310	1054991	46281	107888	0	0	8213	563301	0	0
2024-10-11 07:44:47			0	38049	0	0	0	21493	20050	162472	27353	1054876	46268	107890	0	0	8212	563683	0	0
2024-10-11 07:45:47			0	38049	0	0	0	21488	20070	162436	27145	1055009	46281	107888	0	0	8212	563620	0	0
2024-10-11 07:46:47			0	38039	0	0	0	21483	20070	162444	27197	1055009	46270	107886	0	0	8212	564020	0	0
2024-10-11 07:47:47			0	38044	0	0	0	21485	20060	162484	26939	1054965	46268	107887	0	0	8212	563851	0	0
2024-10-11 07:48:47			0	38047	0	0	0	21493	20060	162388	27249	1055018	46290	107890	0	0	8212	563731	0	0
2024-10-11 07:49:47			0	38036	0	0	0	21467	20060	162496	27124	1054991	46279	107880	0	0	8212	564171	0	0
2024-10-11 07:50:47			0	38046	0	0	0	21467	20050	162476	27187	1054876	46279	107880	0	0	8212	563803	0	0
2024-10-11 07:51:47			0	38019	0	0	0	21475	20050	162595	26861	1054920	46289	107883	0	0	8211	564883	0	0
2024-10-11 07:52:47			0	38022	0	0	0	21462	20060	162563	27220	1055027	46280	107878	0	0	8211	564731	0	0
2024-10-11 07:53:47			0	38020	0	0	0	21470	20050	162587	27062	1054982	46279	107881	0	0	8211	564842	0	0
2024-10-11 07:54:47			0	38020	0	0	0	21454	20050	162527	26809	1054920	46267	107875	0	0	8211	564842	0	0
2024-10-11 07:55:47			0	37993	0	0	0	21451	20050	162551	26906	1054920	46256	107874	0	0	8209	565924	0	0
2024-10-11 07:56:47			0	37991	0	0	0	21441	20050	162583	26937	1054814	46267	107870	0	0	8210	566004	0	0
2024-10-11 07:57:47			0	37996	0	0	0	21441	20040	162555	27052	1054849	46255	107870	0	0	8210	565835	0	0
2024-10-11 07:58:47			0	37976	0	0	0	21454	20030	162659	27154	1054920	46277	107875	0	0	8208	566668	0	0
2024-10-11 07:59:47			0	37989	0	0	0	21446	20030	162735	27050	1054813	46277	107872	0	0	8209	566147	0	0
2024-10-11 08:00:47			0	38000	0	0	0	21457	20020	162671	26706	1054822	46254	107876	0	0	8210	565737	0	0
2024-10-11 08:01:47			0	37987	0	0	0	21441	20030	162595	26830	1054813	46288	107870	0	0	8209	566227	0	0
2024-10-11 08:02:47			0	37992	0	0	0	21444	20030	162663	26986	1054805	46265	107871	0	0	8209	566026	0	0
2024-10-11 08:03:47			0	37994	0	0	0	21457	20030	162659	27208	1054787	46277	107876	0	0	8209	565946	0	0
2024-10-11 08:04:47			0	37982	0	0	0	21444	20030	162671	27223	1054805	46265	107871	0	0	8209	566427	0	0
2024-10-11 08:05:47			0	37991	0	0	0	21454	20010	162595	27045	1054804	46275	107875	0	0	8209	566129	0	0
2024-10-11 08:06:47			0	37997	0	0	0	21446	20030	162623	26908	1054805	46276	107872	0	0	8210	565826	0	0
2024-10-11 08:07:47			0	37987	0	0	0	21436	20020	162595	27215	1054742	46265	107868	0	0	8209	566258	0	0
2024-10-11 08:08:47			0	37977	0	0	0	21446	20020	162687	26876	1054742	46276	107872	0	0	8208	566659	0	0
2024-10-11 08:09:47			0	37985	0	0	0	21446	20020	162767	26916	1054787	46253	107872	0	0	8209	566338	0	0
2024-10-11 08:10:47			0	37985	0	0	0	21433	20020	162739	26791	1054787	46275	107867	0	0	8209	566338	0	0
2024-10-11 08:11:47			0	37990	0	0	0	21433	20030	162695	26984	1054805	46276	107867	0	0	8209	566106	0	0
2024-10-11 08:12:47			0	37967	0	0	0	21433	20020	162719	27180	1054734	46275	107867	0	0	8208	567060	0	0
2024-10-11 08:13:47			0	37998	0	0	0	21420	20010	162675	27024	1054769	46252	107862	0	0	8210	565848	0	0
2024-10-11 08:14:47			0	37990	0	0	0	21407	20020	162711	27039	1054707	46286	107857	0	0	8210	566138	0	0
2024-10-11 08:15:47			0	37995	0	0	0	21410	20000	162635	26955	1054733	46263	107858	0	0	8210	566000	0	0
2024-10-11 08:16:47			0	37990	0	0	0	21431	20010	162667	26802	1054742	46252	107866	0	0	8209	566169	0	0
2024-10-11 08:17:47			0	37975	0	0	0	21415	20000	162703	26987	1054645	46273	107860	0	0	8209	566802	0	0
2024-10-11 08:18:47			0	37979	0	0	0	21418	20000	162795	26960	1054671	46262	107861	0	0	8209	566641	0	0
2024-10-11 08:19:47			0	37977	0	0	0	21420	20000	162759	27131	1054698	46262	107862	0	0	8209	566721	0	0
2024-10-11 08:20:47			0	37967	0	0	0	21418	20000	162595	26991	1054698	46284	107861	0	0	8208	567123	0	0
2024-10-11 08:21:47			0	37973	0	0	0	21423	20000	162655	26826	1054680	46285	107863	0	0	8209	566882	0	0
2024-10-11 08:22:47			0	37985	0	0	0	21418	20000	162599	26814	1054654	46285	107861	0	0	8209	566401	0	0
2024-10-11 08:23:47			0	37972	0	0	0	21418	19990	162651	27383	1054662	46261	107861	0	0	8209	566953	0	0
2024-10-11 08:24:47			0	37982	0	0	0	21425	19990	162619	26774	1054636	46272	107864	0	0	8209	566552	0	0
2024-10-11 08:25:47			0	37977	0	0	0	21412	20000	162695	26817	1054645	46284	107859	0	0	8209	566721	0	0
2024-10-11 08:26:47			0	37985	0	0	0	21418	19990	162635	27107	1054636	46283	107861	0	0	8209	566432	0	0
2024-10-11 08:27:47			0	37979	0	0	0	21423	20000	162631	27118	1054654	46285	107863	0	0	8209	566641	0	0
2024-10-11 08:28:47			0	37983	0	0	0	21410	20000	162671	27024	1054645	46273	107858	0	0	8209	566481	0	0
2024-10-11 08:29:47			0	37974	0	0	0	21405	19990	162671	27267	1054636	46272	107856	0	0	8209	566873	0	0
2024-10-11 08:30:47			0	37957	0	0	0	21407	19990	162707	27374	1054689	46272	107857	0	0	8208	567555	0	0
2024-10-11 08:31:47			0	37948	0	0	0	21397	19990	162695	27462	1054600	46272	107853	0	0	8207	567916	0	0
2024-10-11 08:32:47			0	37951	0	0	0	21402	19990	162695	27154	1054600	46261	107855	0	0	8208	567796	0	0
2024-10-11 08:33:47			0	37981	0	0	0	21402	19990	162663	27000	1054627	46272	107855	0	0	8209	566592	0	0
2024-10-11 08:34:47			0	37989	0	0	0	21407	19980	162667	27235	1054618	46272	107857	0	0	8210	566303	0	0
2024-10-11 08:35:47			0	37973	0	0	0	21402	19990	162771	27085	1054627	46272	107855	0	0	8209	566913	0	0
2024-10-11 08:36:47			0	37977	0	0	0	21407	19980	162775	27055	1054582	46260	107857	0	0	8209	566784	0	0
2024-10-11 08:37:47			0	37973	0	0	0	21405	19980	162655	26875	1054618	46272	107856	0	0	8209	566944	0	0
2024-10-11 08:38:47			0	37994	0	0	0	21394	19980	162611	26790	1054565	46272	107852	0	0	8210	566102	0	0
2024-10-11 08:39:47			0	37977	0	0	0	21402	19990	162611	26955	1054627	46261	107855	0	0	8209	566753	0	0
2024-10-11 08:40:47			0	37997	0	0	0	21410	19970	162735	27017	1054600	46270	107858	0	0	8210	566013	0	0
2024-10-11 08:41:47			0	38003	0	0	0	21423	19980	162583	27048	1054582	46250	107863	0	0	8210	565742	0	0
2024-10-11 08:42:47			0	38012	0	0	0	21402	19970	162567	26823	1054573	46270	107855	0	0	8211	565412	0	0
2024-10-11 08:43:47			0	38001	0	0	0	21402	19980	162575	27178	1054618	46272	107855	0	0	8210	565822	0	0
2024-10-11 08:44:47			0	37993	0	0	0	21402	19980	162687	27270	1054591	46283	107855	0	0	8210	566142	0	0
2024-10-11 08:45:47			0	38007	0	0	0	21397	19980	162599	27168	1054565	46272	107853	0	0	8211	565581	0	0
2024-10-11 08:46:47			0	37981	0	0	0	21394	19980	162551	27176	1054582	46260	107852	0	0	8209	566623	0	0
2024-10-11 08:47:47			0	38010	0	0	0	21397	19980	162547	26986	1054556	46292	107853	0	0	8211	565461	0	0
2024-10-11 08:48:47			0	37997	0	0	0	21392	19970	162655	27059	1054520	46270	107851	0	0	8210	566013	0	0
2024-10-11 08:49:47			0	37999	0	0	0	21415	19970	162687	27229	1054600	46270	107860	0	0	8210	565933	0	0
2024-10-11 08:50:47			0	37978	0	0	0	21412	19980	162635	26727	1054556	46271	107859	0	0	8209	566744	0	0
2024-10-11 08:51:47			0	38016	0	0	0	21407	19970	162607	27059	1054600	46270	107857	0	0	8211	565252	0	0
2024-10-11 08:52:47			0	37990	0	0	0	21394	19970	162571	27017	1054600	46281	107852	0	0	8210	566294	0	0
2024-10-11 08:53:47			0	38018	0	0	0	21402	19980	162583	26805	1054582	46282	107855	0	0	8211	565141	0	0
2024-10-11 08:54:47			0	37996	0	0	0	21420	19980	162579	27059	1054556	46271	107862	0	0	8210	566022	0	0
2024-10-11 08:55:47			0	38000	0	0	0	21420	19980	162643	26837	1054582	46271	107862	0	0	8210	565862	0	0
2024-10-11 08:56:47			0	38002	0	0	0	21405	19970	162603	27251	1054627	46270	107856	0	0	8210	565813	0	0
2024-10-11 08:57:47			0	38002	0	0	0	21412	19980	162615	26804	1054662	46271	107859	0	0	8210	565782	0	0
2024-10-11 08:58:47			0	37993	0	0	0	21405	19970	162503	26946	1054573	46281	107856	0	0	8210	566173	0	0
2024-10-11 08:59:47			0	38000	0	0	0	21405	19970	162567	27036	1054494	46259	107856	0	0	8210	565893	0	0
2024-10-11 09:00:47			0	37998	0	0	0	21405	19980	162639	27234	1054635	46271	107856	0	0	8210	565942	0	0
2024-10-11 09:01:47			0	38000	0	0	0	21407	19980	162567	27182	1054609	46271	107857	0	0	8210	565862	0	0
2024-10-11 09:02:47			0	38020	0	0	0	21420	19980	162559	26934	1054556	46282	107862	0	0	8211	565061	0	0
2024-10-11 09:03:47			0	37994	0	0	0	21425	19970	162607	27163	1054627	46291	107864	0	0	8210	566133	0	0
2024-10-11 09:04:47			0	38017	0	0	0	21425	19980	162575	27286	1054565	46283	107864	0	0	8211	565181	0	0
2024-10-11 09:05:47			0	38024	0	0	0	21433	19980	162491	27360	1054662	46282	107867	0	0	8211	564901	0	0
2024-10-11 09:06:47			0	38031	0	0	0	21454	19990	162511	27478	1054706	46283	107875	0	0	8211	564589	0	0
2024-10-11 09:07:47			0	38051	0	0	0	21462	19990	162372	27450	1054689	46294	107878	0	0	8212	563789	0	0
2024-10-11 09:08:47			0	38058	0	0	0	21438	20000	162368	27374	1054707	46274	107869	0	0	8213	563478	0	0
2024-10-11 09:09:47			0	38046	0	0	0	21425	19990	162360	27454	1054689	46272	107864	0	0	8213	563989	0	0
2024-10-11 09:10:47			0	38053	0	0	0	21423	20000	162356	27443	1054671	46273	107863	0	0	8213	563678	0	0
2024-10-11 09:11:47			0	38051	0	0	0	21423	19990	162404	27001	1054715	46283	107863	0	0	8213	563789	0	0
2024-10-11 09:12:47			0	38042	0	0	0	21418	20000	162372	27372	1054698	46284	107861	0	0	8213	564118	0	0
2024-10-11 09:13:47			0	38029	0	0	0	21407	20000	162315	27216	1054707	46274	107857	0	0	8212	564638	0	0
2024-10-11 09:14:47			0	38048	0	0	0	21405	19990	162368	27282	1054706	46272	107856	0	0	8213	563909	0	0
2024-10-11 09:15:47			0	38046	0	0	0	21399	19990	162392	27055	1054636	46272	107854	0	0	8213	563989	0	0
2024-10-11 09:16:47			0	38025	0	0	0	21392	19980	162407	27034	1054618	46261	107851	0	0	8212	564860	0	0
2024-10-11 09:17:47			0	38020	0	0	0	21389	19980	162395	27248	1054591	46250	107850	0	0	8212	565061	0	0
2024-10-11 09:18:47			0	38051	0	0	0	21394	19980	162396	26949	1054635	46260	107852	0	0	8214	563820	0	0
2024-10-11 09:19:47			0	38041	0	0	0	21405	19990	162336	27403	1054583	46272	107856	0	0	8213	564189	0	0
2024-10-11 09:20:47			0	38030	0	0	0	21394	19980	162280	27397	1054556	46250	107852	0	0	8212	564660	0	0
2024-10-11 09:21:47			0	38050	0	0	0	21392	19980	162328	27417	1054609	46271	107851	0	0	8213	563860	0	0
2024-10-11 09:22:47			0	38044	0	0	0	21397	19990	162356	27178	1054627	46272	107853	0	0	8213	564069	0	0
2024-10-11 09:23:47			0	38043	0	0	0	21405	19970	162340	27209	1054600	46281	107856	0	0	8213	564171	0	0
2024-10-11 09:24:47			0	38034	0	0	0	21407	19980	162416	27315	1054609	46260	107857	0	0	8212	564500	0	0
2024-10-11 09:25:47			0	38064	0	0	0	21412	19980	162380	27422	1054582	46271	107859	0	0	8214	563301	0	0
2024-10-11 09:26:47			0	38060	0	0	0	21405	19970	162280	27246	1054564	46259	107856	0	0	8214	563492	0	0
2024-10-11 09:27:47			0	38072	0	0	0	21428	19970	162260	27497	1054627	46281	107865	0	0	8214	563012	0	0
2024-10-11 09:28:47			0	38064	0	0	0	21410	19980	162308	27310	1054635	46271	107858	0	0	8214	563301	0	0
2024-10-11 09:29:47			0	38074	0	0	0	21418	19980	162152	26920	1054635	46271	107861	0	0	8214	562901	0	0
2024-10-11 09:30:47			0	38081	0	0	0	21423	19980	162172	27582	1054618	46272	107863	0	0	8215	562622	0	0
2024-10-11 09:31:47			0	38070	0	0	0	21418	19970	162252	27182	1054653	46259	107861	0	0	8214	563092	0	0
2024-10-11 09:32:47			0	38071	0	0	0	21418	19980	162248	27180	1054618	46250	107861	0	0	8214	563021	0	0
2024-10-11 09:33:47			0	38088	0	0	0	21402	19990	162092	27017	1054653	46261	107855	0	0	8216	562311	0	0
2024-10-11 09:34:47			0	38095	0	0	0	21436	19980	162192	27050	1054565	46283	107868	0	0	8215	562063	0	0
2024-10-11 09:35:47			0	38087	0	0	0	21423	19980	162208	27367	1054662	46271	107863	0	0	8215	562382	0	0
2024-10-11 09:36:47			0	38102	0	0	0	21420	19990	162108	27466	1054689	46283	107862	0	0	8216	561752	0	0
2024-10-11 09:37:47			0	38116	0	0	0	21459	19980	162044	27298	1054635	46282	107877	0	0	8216	561225	0	0
2024-10-11 09:38:47			0	38121	0	0	0	21425	19980	162072	27131	1054671	46305	107864	0	0	8217	561026	0	0
2024-10-11 09:39:47			0	38131	0	0	0	21420	19980	162036	27258	1054662	46282	107862	0	0	8218	560627	0	0
2024-10-11 09:40:47			0	38139	0	0	0	21425	19990	162036	27428	1054715	46283	107864	0	0	8218	560278	0	0
2024-10-11 09:41:47			0	38145	0	0	0	21436	19990	161872	27123	1054653	46261	107868	0	0	8218	560039	0	0
2024-10-11 09:42:47			0	38143	0	0	0	21431	19990	161944	27376	1054680	46283	107866	0	0	8218	560119	0	0
2024-10-11 09:43:47			0	38144	0	0	0	21423	19990	161952	27270	1054689	46261	107863	0	0	8219	560079	0	0
2024-10-11 09:44:47			0	38150	0	0	0	21425	19990	161996	27412	1054689	46272	107864	0	0	8219	559840	0	0
2024-10-11 09:45:47			0	38156	0	0	0	21423	19990	161956	27436	1054653	46261	107863	0	0	8219	559601	0	0
2024-10-11 09:46:47			0	38153	0	0	0	21423	19990	161976	27338	1054742	46261	107863	0	0	8219	559720	0	0
2024-10-11 09:47:47			0	38169	0	0	0	21444	19990	161888	27177	1054689	46283	107871	0	0	8220	559084	0	0
2024-10-11 09:48:47			0	38182	0	0	0	21449	19990	161876	27512	1054715	46283	107873	0	0	8220	558567	0	0
2024-10-11 09:49:47			0	38190	0	0	0	21444	20000	161820	27346	1054680	46285	107871	0	0	8221	558218	0	0
2024-10-11 09:50:47			0	38178	0	0	0	21446	20000	161828	27260	1054733	46263	107872	0	0	8220	558695	0	0
2024-10-11 09:51:47			0	38204	0	0	0	21433	20000	161780	27173	1054760	46296	107867	0	0	8222	557662	0	0
2024-10-11 09:52:47			0	38178	0	0	0	21428	20000	161732	27400	1054698	46273	107865	0	0	8220	558695	0	0
2024-10-11 09:53:47			0	38172	0	0	0	21433	20010	161876	27490	1054716	46274	107867	0	0	8220	558903	0	0
2024-10-11 09:54:47			0	38184	0	0	0	21436	20000	161808	27301	1054751	46273	107868	0	0	8221	558457	0	0
2024-10-11 09:55:47			0	38194	0	0	0	21446	20000	161832	27105	1054751	46284	107872	0	0	8221	558060	0	0
2024-10-11 09:56:47			0	38208	0	0	0	21454	20000	161860	27282	1054760	46285	107875	0	0	8222	557504	0	0
2024-10-11 09:57:47			0	38231	0	0	0	21467	20000	161712	27237	1054786	46274	107880	0	0	8223	556591	0	0
2024-10-11 09:58:47			0	38234	0	0	0	21462	20000	161812	27371	1054786	46296	107878	0	0	8223	556472	0	0
2024-10-11 09:59:47			0	38238	0	0	0	21470	20010	161704	27287	1054875	46296	107881	0	0	8223	556283	0	0
2024-10-11 10:00:47			0	38252	0	0	0	21464	20020	161612	27066	1054760	46275	107879	0	0	8224	555697	0	0
2024-10-11 10:01:47			0	38245	0	0	0	21457	20020	161796	27395	1054893	46264	107876	0	0	8224	555975	0	0
2024-10-11 10:02:47			0	38241	0	0	0	21457	20030	161776	27170	1054884	46287	107876	0	0	8224	556102	0	0
2024-10-11 10:03:47			0	38229	0	0	0	21446	20010	161732	27531	1054804	46275	107872	0	0	8223	556640	0	0
2024-10-11 10:04:47			0	38231	0	0	0	21470	20010	161700	27351	1054858	46275	107881	0	0	8223	556560	0	0
2024-10-11 10:05:47			0	38224	0	0	0	21457	20020	161760	27284	1054796	46276	107876	0	0	8223	556807	0	0
2024-10-11 10:06:47			0	38216	0	0	0	21477	20020	161736	27088	1054875	46265	107884	0	0	8222	557125	0	0
2024-10-11 10:07:47			0	38237	0	0	0	21490	20020	161676	27364	1054866	46286	107889	0	0	8223	556292	0	0
2024-10-11 10:08:47			0	38243	0	0	0	21509	20020	161632	26975	1054893	46286	107896	0	0	8223	556054	0	0
2024-10-11 10:09:47			0	38299	0	0	0	21490	20020	161552	27445	1054955	46287	107889	0	0	8227	553837	0	0
2024-10-11 10:10:47			0	38284	0	0	0	21472	20030	161492	27156	1054937	46287	107882	0	0	8226	554400	0	0
2024-10-11 10:11:47			0	38276	0	0	0	21475	20030	161572	27372	1054937	46276	107883	0	0	8226	554716	0	0
2024-10-11 10:12:47			0	38281	0	0	0	21462	20020	161528	27386	1054955	46287	107878	0	0	8226	554549	0	0
2024-10-11 10:13:47			0	38290	0	0	0	21470	20030	161560	27284	1054920	46288	107881	0	0	8226	554162	0	0
2024-10-11 10:14:47			0	38301	0	0	0	21470	20030	161520	27228	1054946	46266	107881	0	0	8227	553728	0	0
2024-10-11 10:15:47			0	38301	0	0	0	21467	20030	161448	27201	1054964	46287	107880	0	0	8227	553728	0	0
2024-10-11 10:16:47			0	38323	0	0	0	21475	20030	161456	27339	1054911	46276	107883	0	0	8228	552858	0	0
2024-10-11 10:17:47			0	38331	0	0	0	21480	20020	161248	27320	1054955	46276	107885	0	0	8229	552573	0	0
2024-10-11 10:18:47			0	38341	0	0	0	21472	20030	161248	27253	1054867	46277	107882	0	0	8229	552148	0	0
2024-10-11 10:19:47			0	38337	0	0	0	21475	20030	161292	26906	1054973	46277	107883	0	0	8229	552305	0	0
2024-10-11 10:20:47			0	38339	0	0	0	21498	20040	161196	27244	1055009	46288	107892	0	0	8229	552196	0	0
2024-10-11 10:21:47			0	38347	0	0	0	21485	20030	161148	27147	1054946	46299	107887	0	0	8230	551911	0	0
2024-10-11 10:22:47			0	38335	0	0	0	21498	20040	161300	27085	1054982	46277	107892	0	0	8229	552354	0	0
2024-10-11 10:23:47			0	38335	0	0	0	21485	20040	161232	27270	1054991	46289	107887	0	0	8229	552354	0	0
2024-10-11 10:24:47			0	38348	0	0	0	21483	20040	161204	27232	1054964	46289	107886	0	0	8230	551841	0	0
2024-10-11 10:25:47			0	38341	0	0	0	21496	20050	161220	27168	1055062	46290	107891	0	0	8229	552087	0	0
2024-10-11 10:26:47			0	38371	0	0	0	21503	20050	161108	26842	1054973	46278	107894	0	0	8231	550904	0	0
2024-10-11 10:27:47			0	38388	0	0	0	21519	20050	161096	26923	1055035	46290	107900	0	0	8231	550234	0	0
2024-10-11 10:28:47			0	38385	0	0	0	21514	20040	161068	27102	1054964	46289	107898	0	0	8231	550383	0	0
2024-10-11 10:29:47			0	38385	0	0	0	21490	20050	161016	26901	1055035	46290	107889	0	0	8232	550352	0	0
2024-10-11 10:30:47			0	38386	0	0	0	21485	20060	160944	27234	1055044	46290	107887	0	0	8232	550283	0	0
2024-10-11 10:31:47			0	38382	0	0	0	21485	20060	161028	27095	1055071	46290	107887	0	0	8232	550440	0	0
2024-10-11 10:32:47			0	38386	0	0	0	21498	20050	161036	27265	1055053	46278	107892	0	0	8232	550313	0	0
2024-10-11 10:33:47			0	38384	0	0	0	21485	20050	161124	27358	1055000	46278	107887	0	0	8232	550392	0	0
2024-10-11 10:34:47			0	38399	0	0	0	21498	20060	161136	27092	1055080	46269	107892	0	0	8233	549771	0	0
2024-10-11 10:35:47			0	38398	0	0	0	21467	20050	161072	27332	1055053	46278	107880	0	0	8233	549841	0	0
2024-10-11 10:36:47			0	38385	0	0	0	21467	20050	161072	27211	1054947	46278	107880	0	0	8232	550352	0	0
2024-10-11 10:37:47			0	38364	0	0	0	21509	20050	161092	27578	1055000	46289	107896	0	0	8230	551180	0	0
2024-10-11 10:38:47			0	38379	0	0	0	21509	20060	161084	26998	1055044	46279	107896	0	0	8231	550558	0	0
2024-10-11 10:39:47			0	38378	0	0	0	21501	20070	161124	27256	1055089	46281	107893	0	0	8231	550567	0	0
2024-10-11 10:40:47			0	38376	0	0	0	21503	20050	161084	27379	1055062	46290	107894	0	0	8231	550707	0	0
2024-10-11 10:41:47			0	38383	0	0	0	21514	20060	161080	27156	1055124	46279	107898	0	0	8231	550401	0	0
2024-10-11 10:42:47			0	38382	0	0	0	21514	20060	161216	27038	1055106	46269	107898	0	0	8231	550440	0	0
2024-10-11 10:43:47			0	38384	0	0	0	21509	20050	161192	27239	1055115	46290	107896	0	0	8231	550392	0	0
2024-10-11 10:44:47			0	38387	0	0	0	21488	20060	161120	27298	1055053	46291	107888	0	0	8232	550243	0	0
2024-10-11 10:45:47			0	38376	0	0	0	21488	20070	161228	27208	1055062	46270	107888	0	0	8231	550646	0	0
2024-10-11 10:46:47			0	38370	0	0	0	21503	20050	161232	27005	1055088	46290	107894	0	0	8231	550943	0	0
2024-10-11 10:47:47			0	38379	0	0	0	21488	20060	161124	27391	1055044	46279	107888	0	0	8232	550558	0	0
2024-10-11 10:48:47			0	38383	0	0	0	21467	20070	161208	27034	1055044	46281	107880	0	0	8232	550370	0	0
2024-10-11 10:49:47			0	38378	0	0	0	21477	20060	161228	27351	1055044	46268	107884	0	0	8232	550598	0	0
2024-10-11 10:50:47			0	38358	0	0	0	21498	20060	161260	27092	1055018	46279	107892	0	0	8230	551386	0	0
2024-10-11 10:51:47			0	38377	0	0	0	21483	20050	161152	27454	1055000	46278	107886	0	0	8231	550668	0	0
2024-10-11 10:52:47			0	38366	0	0	0	21498	20060	161212	27163	1055018	46279	107892	0	0	8231	551071	0	0
2024-10-11 10:53:47			0	38381	0	0	0	21488	20050	161164	27388	1055000	46278	107888	0	0	8232	550510	0	0
2024-10-11 10:54:47			0	38374	0	0	0	21483	20060	161132	27111	1055018	46279	107886	0	0	8231	550755	0	0
2024-10-11 10:55:47			0	38369	0	0	0	21464	20060	161184	27138	1055044	46279	107879	0	0	8231	550952	0	0
2024-10-11 10:56:47			0	38357	0	0	0	21457	20050	161220	27345	1054956	46279	107876	0	0	8231	551456	0	0
2024-10-11 10:57:47			0	38349	0	0	0	21454	20050	161160	27301	1054982	46268	107875	0	0	8230	551771	0	0
2024-10-11 10:58:47			0	38356	0	0	0	21441	20040	161272	27267	1054902	46266	107870	0	0	8231	551526	0	0
2024-10-11 10:59:47			0	38356	0	0	0	21454	20050	161196	27180	1054840	46256	107875	0	0	8231	551495	0	0
2024-10-11 11:00:47			0	38363	0	0	0	21459	20040	161156	27111	1054849	46277	107877	0	0	8231	551250	0	0
2024-10-11 11:01:47			0	38361	0	0	0	21475	20040	161268	27177	1054982	46277	107883	0	0	8231	551328	0	0
2024-10-11 11:02:47			0	38358	0	0	0	21467	20030	161140	27301	1054884	46276	107880	0	0	8231	551477	0	0
2024-10-11 11:03:47			0	38395	0	0	0	21462	20030	161116	27345	1054911	46287	107878	0	0	8233	550019	0	0
2024-10-11 11:04:47			0	38390	0	0	0	21488	20040	161128	27391	1055035	46277	107888	0	0	8232	550186	0	0
2024-10-11 11:05:47			0	38402	0	0	0	21475	20040	161012	27206	1054991	46278	107883	0	0	8233	549714	0	0
2024-10-11 11:06:47			0	38430	0	0	0	21472	20040	160896	27274	1054938	46278	107882	0	0	8235	548612	0	0
2024-10-11 11:07:47			0	38419	0	0	0	21464	20040	160968	27128	1054938	46267	107879	0	0	8234	549045	0	0
2024-10-11 11:08:47			0	38437	0	0	0	21506	20030	160980	27249	1054920	46288	107895	0	0	8234	548368	0	0
2024-10-11 11:09:47			0	38419	0	0	0	21485	20040	160832	26963	1054982	46288	107887	0	0	8234	549045	0	0
2024-10-11 11:10:47			0	38432	0	0	0	21477	20040	160924	27144	1054964	46278	107884	0	0	8235	548534	0	0
2024-10-11 11:11:47			0	38449	0	0	0	21480	20050	160824	27310	1055000	46278	107885	0	0	8236	547836	0	0
2024-10-11 11:12:47			0	38439	0	0	0	21483	20040	160872	26996	1054982	46277	107886	0	0	8235	548259	0	0
2024-10-11 11:13:47			0	38462	0	0	0	21475	20050	160768	27268	1054947	46289	107883	0	0	8237	547325	0	0
2024-10-11 11:14:47			0	38457	0	0	0	21480	20040	160748	27069	1055009	46277	107885	0	0	8236	547552	0	0
2024-10-11 11:15:47			0	38482	0	0	0	21485	20040	160616	27255	1054991	46278	107887	0	0	8238	546571	0	0
2024-10-11 11:16:47			0	38502	0	0	0	21477	20040	160716	27112	1054964	46278	107884	0	0	8239	545787	0	0
2024-10-11 11:17:47			0	38500	0	0	0	21472	20040	160668	27102	1054938	46289	107882	0	0	8239	545865	0	0
2024-10-11 11:18:47			0	38492	0	0	0	21490	20040	160544	26991	1054991	46300	107889	0	0	8238	546179	0	0
2024-10-11 11:19:47			0	38503	0	0	0	21514	20030	160548	27166	1054973	46277	107898	0	0	8238	545778	0	0
2024-10-11 11:20:47			0	38506	0	0	0	21524	20050	160588	27173	1055026	46289	107902	0	0	8238	545600	0	0
2024-10-11 11:21:47			0	38528	0	0	0	21529	20050	160520	27171	1055106	46289	107904	0	0	8240	544739	0	0
2024-10-11 11:22:47			0	38549	0	0	0	21524	20050	160432	27556	1055088	46301	107902	0	0	8241	543918	0	0
2024-10-11 11:23:47			0	38570	0	0	0	21506	20060	160364	27235	1055071	46290	107895	0	0	8242	543067	0	0
2024-10-11 11:24:47			0	38581	0	0	0	21511	20060	160260	27249	1055071	46290	107897	0	0	8243	542637	0	0
2024-10-11 11:25:47			0	38585	0	0	0	21516	20060	160232	27072	1055097	46301	107899	0	0	8243	542481	0	0
2024-10-11 11:26:47			0	38575	0	0	0	21511	20060	160228	27362	1055106	46291	107897	0	0	8243	542872	0	0
2024-10-11 11:27:47			0	38604	0	0	0	21524	20070	160248	27557	1055062	46291	107902	0	0	8244	541710	0	0
2024-10-11 11:28:47			0	38621	0	0	0	21516	20060	160112	27376	1055160	46291	107899	0	0	8245	541077	0	0
2024-10-11 11:29:47			0	38628	0	0	0	21529	20070	160072	27440	1055177	46281	107904	0	0	8245	540775	0	0
2024-10-11 11:30:47			0	38641	0	0	0	21542	20060	160076	27741	1055160	46291	107909	0	0	8246	540298	0	0
2024-10-11 11:31:47			0	38640	0	0	0	21542	20070	159944	27530	1055231	46281	107909	0	0	8246	540307	0	0
2024-10-11 11:32:47			0	38645	0	0	0	21550	20090	159980	27505	1055284	46293	107912	0	0	8246	540053	0	0
2024-10-11 11:33:47			0	38647	0	0	0	21550	20090	159868	27602	1055257	46283	107912	0	0	8246	539975	0	0
2024-10-11 11:34:47			0	38680	0	0	0	21558	20090	159868	27625	1055284	46293	107915	0	0	8248	538692	0	0
2024-10-11 11:35:47			0	38706	0	0	0	21571	20090	159744	27547	1055320	46293	107920	0	0	8249	537682	0	0
2024-10-11 11:36:47			0	38708	0	0	0	21568	20100	159740	27533	1055302	46294	107919	0	0	8250	537574	0	0
2024-10-11 11:37:47			0	38712	0	0	0	21589	20100	159812	27159	1055302	46317	107927	0	0	8249	537419	0	0
2024-10-11 11:38:47			0	38710	0	0	0	21579	20110	159772	27282	1055382	46285	107923	0	0	8250	537467	0	0
2024-10-11 11:39:47			0	38704	0	0	0	21592	20110	159808	27090	1055400	46296	107928	0	0	8249	537700	0	0
2024-10-11 11:40:47			0	38709	0	0	0	21589	20110	159744	27204	1055373	46307	107927	0	0	8249	537506	0	0
2024-10-11 11:41:47			0	38716	0	0	0	21592	20110	159736	27701	1055489	46307	107928	0	0	8250	537234	0	0
2024-10-11 11:42:47			0	38728	0	0	0	21586	20130	159753	27376	1055489	46297	107926	0	0	8251	536710	0	0
2024-10-11 11:43:47			0	38720	0	0	0	21599	20130	159776	27421	1055515	46297	107931	0	0	8250	537020	0	0
2024-10-11 11:44:47			0	38734	0	0	0	21602	20130	159605	27345	1055489	46297	107932	0	0	8251	536477	0	0
2024-10-11 11:45:47			0	38763	0	0	0	21612	20130	159505	27239	1055489	46297	107936	0	0	8252	535354	0	0
2024-10-11 11:46:47			0	38760	0	0	0	21610	20140	159493	27512	1055560	46310	107935	0	0	8252	535440	0	0
2024-10-11 11:47:47			0	38770	0	0	0	21612	20150	159525	27255	1055551	46289	107936	0	0	8253	535024	0	0
2024-10-11 11:48:47			0	38789	0	0	0	21615	20150	159441	27105	1055560	46311	107937	0	0	8254	534289	0	0
2024-10-11 11:49:47			0	38780	0	0	0	21625	20160	159413	27381	1055596	46312	107941	0	0	8253	534607	0	0
2024-10-11 11:50:47			0	38772	0	0	0	21620	20170	159229	27391	1055622	46325	107939	0	0	8253	534887	0	0
2024-10-11 11:51:47			0	38774	0	0	0	21631	20160	159373	27308	1055622	46301	107943	0	0	8253	534839	0	0
2024-10-11 11:52:47			0	38777	0	0	0	21623	20160	159465	27244	1055605	46313	107940	0	0	8253	534723	0	0
2024-10-11 11:53:47			0	38783	0	0	0	21625	20170	159513	27090	1055729	46303	107941	0	0	8253	534462	0	0
2024-10-11 11:54:47			0	38756	0	0	0	21633	20170	159525	27500	1055649	46314	107944	0	0	8252	535506	0	0
2024-10-11 11:55:47			0	38749	0	0	0	21633	20180	159465	27383	1055693	46304	107944	0	0	8251	535748	0	0
2024-10-11 11:56:47			0	38750	0	0	0	21636	20190	159561	27491	1055738	46316	107945	0	0	8251	535680	0	0
2024-10-11 11:57:47			0	38744	0	0	0	21628	20190	159629	27124	1055702	46305	107942	0	0	8251	535912	0	0
2024-10-11 11:58:47			0	38736	0	0	0	21636	20190	159673	27467	1055711	46293	107945	0	0	8250	536222	0	0
2024-10-11 11:59:47			0	38780	0	0	0	21636	20190	159357	27173	1055756	46305	107945	0	0	8253	534519	0	0
2024-10-11 12:00:47			0	38733	0	0	0	21631	20190	159457	27289	1055756	46293	107943	0	0	8250	536338	0	0
2024-10-11 12:01:47			0	38731	0	0	0	21641	20180	159461	26807	1055747	46304	107947	0	0	8250	536445	0	0
2024-10-11 12:02:47			0	38748	0	0	0	21651	20200	159649	26875	1055747	46293	107951	0	0	8251	535727	0	0
2024-10-11 12:03:47			0	38762	0	0	0	21651	20190	159549	27360	1055765	46293	107951	0	0	8252	535215	0	0
2024-10-11 12:04:47			0	38779	0	0	0	21654	20200	159385	26838	1055773	46305	107952	0	0	8253	534528	0	0
2024-10-11 12:05:47			0	38775	0	0	0	21644	20200	159481	27140	1055782	46306	107948	0	0	8253	534682	0	0
2024-10-11 12:06:47			0	38759	0	0	0	21651	20210	159505	27405	1055845	46295	107951	0	0	8252	535272	0	0
2024-10-11 12:07:47			0	38761	0	0	0	21664	20200	159357	27310	1055756	46294	107956	0	0	8251	535224	0	0
2024-10-11 12:08:47			0	38743	0	0	0	21646	20210	159421	26937	1055800	46295	107949	0	0	8251	535892	0	0
2024-10-11 12:09:47			0	38716	0	0	0	21623	20200	159452	27248	1055809	46294	107940	0	0	8250	536968	0	0
2024-10-11 12:10:47			0	38709	0	0	0	21654	20210	159656	27085	1055800	46295	107952	0	0	8249	537209	0	0
2024-10-11 12:11:47			0	38714	0	0	0	21651	20210	159532	27272	1055827	46307	107951	0	0	8249	537015	0	0
2024-10-11 12:12:47			0	38725	0	0	0	21654	20210	159612	27128	1055845	46307	107952	0	0	8250	536589	0	0
2024-10-11 12:13:47			0	38743	0	0	0	21649	20200	159537	27234	1055782	46306	107950	0	0	8251	535921	0	0
2024-10-11 12:14:47			0	38756	0	0	0	21651	20210	159437	27055	1055827	46285	107951	0	0	8251	535388	0	0
2024-10-11 12:15:47			0	38765	0	0	0	21641	20200	159449	27277	1055782	46306	107947	0	0	8252	535069	0	0
2024-10-11 12:16:47			0	38729	0	0	0	21646	20210	159513	27017	1055818	46295	107949	0	0	8250	536434	0	0
2024-10-11 12:17:47			0	38724	0	0	0	21638	20220	159512	27315	1055863	46307	107946	0	0	8250	536598	0	0
2024-10-11 12:18:47			0	38709	0	0	0	21631	20210	159668	27364	1055747	46307	107943	0	0	8249	537209	0	0
2024-10-11 12:19:47			0	38686	0	0	0	21633	20220	159728	27416	1055863	46295	107944	0	0	8248	538072	0	0
2024-10-11 12:20:47			0	38713	0	0	0	21654	20220	159664	27081	1055863	46307	107952	0	0	8249	537025	0	0
2024-10-11 12:21:47			0	38709	0	0	0	21657	20210	159664	27422	1055827	46307	107953	0	0	8249	537209	0	0
2024-10-11 12:22:47			0	38765	0	0	0	21677	20210	159573	26932	1055818	46307	107961	0	0	8252	535040	0	0
2024-10-11 12:23:47			0	38774	0	0	0	21657	20220	159321	27644	1055916	46307	107953	0	0	8252	534662	0	0
2024-10-11 12:24:47			0	38771	0	0	0	21646	20210	159501	27176	1055827	46295	107949	0	0	8252	534808	0	0
2024-10-11 12:25:47			0	38741	0	0	0	21649	20220	159501	27289	1055845	46319	107950	0	0	8251	535939	0	0
2024-10-11 12:26:47			0	38735	0	0	0	21646	20230	159464	27573	1055801	46297	107949	0	0	8250	536142	0	0
2024-10-11 12:27:47			0	38731	0	0	0	21654	20230	159505	27706	1055881	46320	107952	0	0	8250	536297	0	0
2024-10-11 12:28:47			0	38726	0	0	0	21638	20230	159589	27469	1055810	46297	107946	0	0	8250	536491	0	0
2024-10-11 12:29:47			0	38716	0	0	0	21651	20230	159532	27157	1055907	46297	107951	0	0	8249	536879	0	0
2024-10-11 12:30:47			0	38714	0	0	0	21636	20210	159476	27168	1055800	46295	107945	0	0	8249	537015	0	0
2024-10-11 12:31:47			0	38713	0	0	0	21641	20220	159668	27312	1055819	46296	107947	0	0	8249	537025	0	0
2024-10-11 12:32:47			0	38719	0	0	0	21654	20220	159544	27242	1055845	46296	107952	0	0	8249	536792	0	0
2024-10-11 12:33:47			0	38726	0	0	0	21649	20210	159589	27379	1055827	46295	107950	0	0	8250	536550	0	0
2024-10-11 12:34:47			0	38708	0	0	0	21628	20220	159592	27227	1055845	46319	107942	0	0	8249	537219	0	0
2024-10-11 12:35:47			0	38692	0	0	0	21633	20220	159592	26984	1055898	46319	107944	0	0	8248	537839	0	0
2024-10-11 12:36:47			0	38712	0	0	0	21641	20220	159664	26982	1055845	46296	107947	0	0	8249	537063	0	0
2024-10-11 12:37:47			0	38698	0	0	0	21636	20220	159616	27164	1055872	46296	107945	0	0	8248	537606	0	0
2024-10-11 12:38:47			0	38689	0	0	0	21628	20220	159616	26922	1055845	46308	107942	0	0	8248	537956	0	0
2024-10-11 12:39:47			0	38690	0	0	0	21636	20220	159488	27147	1055819	46296	107945	0	0	8248	537917	0	0
2024-10-11 12:40:47			0	38699	0	0	0	21649	20220	159608	26946	1055845	46308	107950	0	0	8248	537568	0	0
2024-10-11 12:41:47			0	38707	0	0	0	21646	20230	159444	27348	1055854	46309	107949	0	0	8249	537228	0	0
2024-10-11 12:42:47			0	38712	0	0	0	21644	20220	159516	26965	1055845	46286	107948	0	0	8249	537063	0	0
2024-10-11 12:43:47			0	38712	0	0	0	21662	20210	159560	27029	1055907	46274	107955	0	0	8249	537093	0	0
2024-10-11 12:44:47			0	38714	0	0	0	21657	20220	159476	27043	1055810	46307	107953	0	0	8249	536986	0	0
2024-10-11 12:45:47			0	38723	0	0	0	21657	20230	159452	27270	1055854	46320	107953	0	0	8250	536607	0	0
2024-10-11 12:46:47			0	38722	0	0	0	21662	20230	159404	26909	1055916	46309	107955	0	0	8249	536646	0	0
2024-10-11 12:47:47			0	38750	0	0	0	21651	20220	159529	27279	1055898	46296	107951	0	0	8251	535591	0	0
2024-10-11 12:48:47			0	38747	0	0	0	21667	20230	159381	27428	1055854	46309	107957	0	0	8251	535677	0	0
2024-10-11 12:49:47			0	38768	0	0	0	21657	20230	159453	27209	1055890	46309	107953	0	0	8252	534865	0	0
2024-10-11 12:50:47			0	38755	0	0	0	21664	20220	159389	26975	1055845	46308	107956	0	0	8251	535397	0	0
2024-10-11 12:51:47			0	38762	0	0	0	21672	20230	159269	27371	1055863	46297	107959	0	0	8252	535097	0	0
2024-10-11 12:52:47			0	38776	0	0	0	21667	20240	159225	27462	1055899	46309	107957	0	0	8252	534526	0	0
2024-10-11 12:53:47			0	38807	0	0	0	21659	20240	159265	27258	1055952	46309	107954	0	0	8254	533328	0	0
2024-10-11 12:54:47			0	38790	0	0	0	21667	20240	159261	27218	1055978	46309	107957	0	0	8253	533985	0	0
2024-10-11 12:55:47			0	38797	0	0	0	21662	20230	159281	27154	1055960	46309	107955	0	0	8254	533744	0	0
2024-10-11 12:56:47			0	38792	0	0	0	21664	20240	159277	26977	1055952	46309	107956	0	0	8253	533907	0	0
2024-10-11 12:57:47			0	38800	0	0	0	21677	20240	159253	27371	1055952	46309	107961	0	0	8254	533598	0	0
2024-10-11 12:58:47			0	38809	0	0	0	21677	20240	159197	27272	1055925	46309	107961	0	0	8254	533251	0	0
2024-10-11 12:59:47			0	38815	0	0	0	21680	20240	159101	27492	1055987	46310	107962	0	0	8255	533019	0	0
2024-10-11 13:00:47			0	38824	0	0	0	21680	20240	159145	27036	1056014	46321	107962	0	0	8255	532672	0	0
2024-10-11 13:01:47			0	38834	0	0	0	21677	20240	159045	27566	1056005	46320	107961	0	0	8256	532286	0	0
2024-10-11 13:02:47			0	38833	0	0	0	21675	20240	159089	27064	1055961	46298	107960	0	0	8256	532324	0	0
2024-10-11 13:03:47			0	38820	0	0	0	21667	20250	159085	27369	1055996	46299	107957	0	0	8255	532797	0	0
2024-10-11 13:04:47			0	38815	0	0	0	21662	20240	159153	27350	1056005	46297	107955	0	0	8255	533019	0	0
2024-10-11 13:05:47			0	38812	0	0	0	21664	20250	159201	27355	1055970	46311	107956	0	0	8255	533105	0	0
2024-10-11 13:06:47			0	38813	0	0	0	21670	20260	159189	27588	1055979	46300	107958	0	0	8255	533037	0	0
2024-10-11 13:07:47			0	38815	0	0	0	21659	20260	159201	27639	1056041	46312	107954	0	0	8255	532960	0	0
2024-10-11 13:08:47			0	38805	0	0	0	21667	20260	159189	27272	1055961	46300	107957	0	0	8254	533346	0	0
2024-10-11 13:09:47			0	38800	0	0	0	21667	20240	159245	27417	1055961	46298	107957	0	0	8254	533598	0	0
2024-10-11 13:10:47			0	38798	0	0	0	21667	20250	159201	27185	1055970	46299	107957	0	0	8254	533646	0	0
2024-10-11 13:11:47			0	38792	0	0	0	21662	20250	159181	27183	1055970	46299	107955	0	0	8254	533878	0	0
2024-10-11 13:12:47			0	38780	0	0	0	21667	20260	159233	27194	1056058	46312	107957	0	0	8253	534312	0	0
2024-10-11 13:13:47			0	38784	0	0	0	21659	20260	159273	27301	1056058	46290	107954	0	0	8253	534157	0	0
2024-10-11 13:14:47			0	38783	0	0	0	21667	20270	159229	27353	1056050	46312	107957	0	0	8253	534167	0	0
2024-10-11 13:15:47			0	38758	0	0	0	21662	20260	159233	27199	1056032	46312	107955	0	0	8252	535163	0	0
2024-10-11 13:16:47			0	38775	0	0	0	21667	20260	159293	27611	1056014	46312	107957	0	0	8253	534505	0	0
2024-10-11 13:17:47			0	38760	0	0	0	21664	20250	159253	27474	1055996	46299	107956	0	0	8252	535115	0	0
2024-10-11 13:18:47			0	38775	0	0	0	21698	20240	159193	27275	1055987	46310	107969	0	0	8252	534564	0	0
2024-10-11 13:19:47			0	38798	0	0	0	21690	20260	159089	27469	1056094	46323	107966	0	0	8253	533616	0	0
2024-10-11 13:20:47			0	38805	0	0	0	21685	20260	158989	27237	1056041	46312	107964	0	0	8254	533346	0	0
2024-10-11 13:21:47			0	38797	0	0	0	21683	20260	159113	27367	1056094	46312	107963	0	0	8254	533655	0	0
2024-10-11 13:22:47			0	38807	0	0	0	21680	20260	159057	27310	1056014	46312	107962	0	0	8254	533269	0	0
2024-10-11 13:23:47			0	38809	0	0	0	21690	20260	159149	27352	1056085	46300	107966	0	0	8254	533192	0	0
2024-10-11 13:24:47			0	38809	0	0	0	21706	20270	159141	27327	1056129	46300	107972	0	0	8254	533162	0	0
2024-10-11 13:25:47			0	38801	0	0	0	21701	20260	159141	27536	1056067	46312	107970	0	0	8253	533501	0	0
2024-10-11 13:26:47			0	38825	0	0	0	21716	20270	159093	27223	1056138	46302	107976	0	0	8255	532545	0	0
2024-10-11 13:27:47			0	38838	0	0	0	21711	20260	159001	27457	1056174	46323	107974	0	0	8255	532073	0	0
2024-10-11 13:28:47			0	38862	0	0	0	21737	20280	159001	27466	1056200	46314	107984	0	0	8256	531089	0	0
2024-10-11 13:29:47			0	38868	0	0	0	21745	20280	158913	27293	1056263	46314	107987	0	0	8257	530858	0	0
2024-10-11 13:30:47			0	38886	0	0	0	21729	20280	158821	27197	1056263	46325	107981	0	0	8258	530165	0	0
2024-10-11 13:31:47			0	38888	0	0	0	21724	20300	158909	27521	1056263	46316	107979	0	0	8258	530030	0	0
2024-10-11 13:32:47			0	38886	0	0	0	21727	20290	158901	27390	1056254	46315	107980	0	0	8258	530136	0	0
2024-10-11 13:33:47			0	38873	0	0	0	21724	20300	158833	27614	1056316	46316	107979	0	0	8257	530607	0	0
2024-10-11 13:34:47			0	38888	0	0	0	21722	20300	158833	27194	1056245	46305	107978	0	0	8258	530030	0	0
2024-10-11 13:35:47			0	38882	0	0	0	21709	20300	158685	27403	1056316	46316	107973	0	0	8258	530260	0	0
2024-10-11 13:36:47			0	38895	0	0	0	21727	20300	158809	27443	1056316	46305	107980	0	0	8259	529760	0	0
2024-10-11 13:37:47			0	38880	0	0	0	21750	20300	158801	27093	1056272	46316	107989	0	0	8257	530337	0	0
2024-10-11 13:38:47			0	38918	0	0	0	21745	20300	158737	27376	1056272	46316	107987	0	0	8260	528876	0	0
2024-10-11 13:39:47			0	38882	0	0	0	21693	20310	158765	27133	1056254	46293	107967	0	0	8259	530231	0	0
2024-10-11 13:40:47			0	38827	0	0	0	21693	20300	158933	27235	1056298	46293	107967	0	0	8255	532379	0	0
2024-10-11 13:41:47			0	38822	0	0	0	21706	20300	158921	27199	1056236	46293	107972	0	0	8255	532572	0	0
2024-10-11 13:42:47			0	38844	0	0	0	21709	20290	158937	27038	1056254	46292	107973	0	0	8256	531753	0	0
2024-10-11 13:43:47			0	38849	0	0	0	21709	20300	158981	27241	1056183	46305	107973	0	0	8256	531531	0	0
2024-10-11 13:44:47			0	38834	0	0	0	21709	20290	158917	27015	1056201	46292	107973	0	0	8255	532139	0	0
2024-10-11 13:45:47			0	38819	0	0	0	21701	20290	159085	27454	1056139	46314	107970	0	0	8255	532717	0	0
2024-10-11 13:46:47			0	38826	0	0	0	21703	20300	159001	27588	1056210	46293	107971	0	0	8255	532418	0	0
2024-10-11 13:47:47			0	38827	0	0	0	21709	20290	159009	27474	1056121	46292	107973	0	0	8255	532409	0	0
2024-10-11 13:48:47			0	38826	0	0	0	21701	20300	158957	27365	1056183	46316	107970	0	0	8255	532418	0	0
2024-10-11 13:49:47			0	38827	0	0	0	21698	20290	158989	27275	1056192	46303	107969	0	0	8255	532409	0	0
2024-10-11 13:50:47			0	38833	0	0	0	21690	20290	158941	27405	1056165	46291	107966	0	0	8256	532177	0	0
2024-10-11 13:51:47			0	38802	0	0	0	21683	20290	159041	27573	1056148	46304	107963	0	0	8254	533374	0	0
2024-10-11 13:52:47			0	38808	0	0	0	21693	20290	159077	27443	1056174	46292	107967	0	0	8254	533142	0	0
2024-10-11 13:53:47			0	38835	0	0	0	21719	20290	159061	27483	1056227	46304	107977	0	0	8255	532100	0	0
2024-10-11 13:54:47			0	38833	0	0	0	21716	20290	158973	27528	1056254	46304	107976	0	0	8255	532177	0	0
2024-10-11 13:55:47			0	38834	0	0	0	21706	20290	159013	27417	1056254	46326	107972	0	0	8255	532139	0	0
2024-10-11 13:56:47			0	38838	0	0	0	21696	20290	159037	27611	1056201	46315	107968	0	0	8256	531984	0	0
2024-10-11 13:57:47			0	38834	0	0	0	21711	20300	158965	27462	1056236	46316	107974	0	0	8255	532109	0	0
2024-10-11 13:58:47			0	38836	0	0	0	21696	20300	158933	27486	1056298	46316	107968	0	0	8256	532032	0	0
2024-10-11 13:59:47			0	38836	0	0	0	21693	20300	159029	27521	1056272	46305	107967	0	0	8256	532032	0	0
2024-10-11 14:00:47			0	38830	0	0	0	21698	20300	159005	27585	1056289	46305	107969	0	0	8255	532264	0	0
2024-10-11 14:01:47			0	38839	0	0	0	21693	20300	159077	27386	1056325	46316	107967	0	0	8256	531917	0	0
2024-10-11 14:02:47			0	38823	0	0	0	21703	20290	159013	27417	1056254	46304	107971	0	0	8255	532563	0	0
2024-10-11 14:03:47			0	38834	0	0	0	21709	20300	158969	27190	1056298	46316	107973	0	0	8255	532109	0	0
2024-10-11 14:04:47			0	38832	0	0	0	21716	20300	159061	27367	1056272	46316	107976	0	0	8255	532187	0	0
2024-10-11 14:05:47			0	38846	0	0	0	21722	20310	159005	27369	1056281	46316	107978	0	0	8256	531617	0	0
2024-10-11 14:06:47			0	38852	0	0	0	21761	20300	158885	27279	1056272	46327	107993	0	0	8256	531416	0	0
2024-10-11 14:07:47			0	38885	0	0	0	21779	20310	158813	27284	1056387	46327	108000	0	0	8257	530116	0	0
2024-10-11 14:08:47			0	38949	0	0	0	21789	20310	158713	26908	1056414	46327	108004	0	0	8261	527657	0	0
2024-10-11 14:09:47			0	38950	0	0	0	21802	20320	158537	27202	1056441	46319	108009	0	0	8261	527589	0	0
2024-10-11 14:10:47			0	38978	0	0	0	21805	20320	158465	27171	1056467	46319	108010	0	0	8262	526516	0	0
2024-10-11 14:11:47			0	38990	0	0	0	21805	20340	158349	26786	1056494	46320	108010	0	0	8263	525998	0	0
2024-10-11 14:12:47			0	39005	0	0	0	21805	20330	158317	27329	1056485	46319	108010	0	0	8264	525453	0	0
2024-10-11 14:13:47			0	38997	0	0	0	21807	20340	158285	27260	1056521	46331	108011	0	0	8263	525730	0	0
2024-10-11 14:14:47			0	38986	0	0	0	21735	20350	158397	27230	1056512	46321	107983	0	0	8264	526122	0	0
2024-10-11 14:15:47			0	38923	0	0	0	21701	20340	158633	27315	1056450	46310	107970	0	0	8261	528567	0	0
2024-10-11 14:16:47			0	38872	0	0	0	21696	20340	158693	27178	1056397	46310	107968	0	0	8258	530528	0	0
2024-10-11 14:17:47			0	38863	0	0	0	21690	20330	158817	27415	1056325	46286	107966	0	0	8258	530904	0	0
2024-10-11 14:18:47			0	38861	0	0	0	21696	20320	158829	27154	1056299	46307	107968	0	0	8257	531010	0	0
2024-10-11 14:19:47			0	38842	0	0	0	21696	20320	158933	27249	1056254	46296	107968	0	0	8256	531742	0	0
2024-10-11 14:20:47			0	38824	0	0	0	21703	20320	158917	27364	1056272	46285	107971	0	0	8255	532436	0	0
2024-10-11 14:21:47			0	38857	0	0	0	21714	20320	158969	27308	1056219	46295	107975	0	0	8257	531164	0	0
2024-10-11 14:22:47			0	38852	0	0	0	21714	20300	158885	27293	1056298	46305	107975	0	0	8256	531416	0	0
2024-10-11 14:23:47			0	38847	0	0	0	21701	20310	158949	27393	1056290	46294	107970	0	0	8256	531579	0	0
2024-10-11 14:24:47			0	38827	0	0	0	21696	20310	158945	27417	1056228	46305	107968	0	0	8255	532350	0	0
2024-10-11 14:25:47			0	38816	0	0	0	21693	20310	159033	27121	1056174	46316	107967	0	0	8255	532774	0	0
2024-10-11 14:26:47			0	38805	0	0	0	21709	20310	159009	27026	1056290	46294	107973	0	0	8254	533199	0	0
2024-10-11 14:27:47			0	38805	0	0	0	21698	20310	159097	27079	1056228	46305	107969	0	0	8254	533199	0	0
2024-10-11 14:28:47			0	38785	0	0	0	21683	20310	159177	27345	1056201	46283	107963	0	0	8253	533971	0	0
2024-10-11 14:29:47			0	38797	0	0	0	21690	20300	159173	27616	1056219	46305	107966	0	0	8254	533537	0	0
2024-10-11 14:30:47			0	38777	0	0	0	21690	20310	159185	27381	1056334	46316	107966	0	0	8252	534281	0	0
2024-10-11 14:31:47			0	38772	0	0	0	21685	20300	159225	27569	1056192	46305	107964	0	0	8252	534503	0	0
2024-10-11 14:32:47			0	38764	0	0	0	21688	20300	159201	27194	1056236	46305	107965	0	0	8252	534813	0	0
2024-10-11 14:33:47			0	38744	0	0	0	21688	20300	159293	27573	1056183	46293	107965	0	0	8251	535587	0	0
2024-10-11 14:34:47			0	38768	0	0	0	21714	20290	159249	27315	1056165	46314	107975	0	0	8251	534687	0	0
2024-10-11 14:35:47			0	38783	0	0	0	21714	20290	159133	27388	1056227	46315	107975	0	0	8252	534108	0	0
2024-10-11 14:36:47			0	38792	0	0	0	21709	20290	159157	27319	1056227	46315	107973	0	0	8253	533760	0	0
2024-10-11 14:37:47			0	38796	0	0	0	21698	20310	159065	27435	1056228	46316	107969	0	0	8253	533546	0	0
2024-10-11 14:38:47			0	38803	0	0	0	21693	20290	159037	27277	1056192	46314	107967	0	0	8254	533335	0	0
2024-10-11 14:39:47			0	38814	0	0	0	21698	20290	158973	27552	1056245	46281	107969	0	0	8254	532910	0	0
2024-10-11 14:40:47			0	38823	0	0	0	21696	20290	159025	27436	1056227	46315	107968	0	0	8255	532563	0	0
2024-10-11 14:41:47			0	38811	0	0	0	21688	20300	159005	27131	1056183	46305	107965	0	0	8254	532997	0	0
2024-10-11 14:42:47			0	38829	0	0	0	21698	20290	159013	27521	1056148	46304	107969	0	0	8255	532332	0	0
2024-10-11 14:43:47			0	38821	0	0	0	21706	20300	159085	27149	1056236	46305	107972	0	0	8255	532611	0	0
2024-10-11 14:44:47			0	38837	0	0	0	21724	20290	158905	27495	1056174	46315	107979	0	0	8255	532023	0	0
2024-10-11 14:45:47			0	38864	0	0	0	21737	20290	158965	27415	1056254	46315	107984	0	0	8257	530983	0	0
2024-10-11 14:46:47			0	38857	0	0	0	21714	20300	158857	27621	1056263	46316	107975	0	0	8257	531223	0	0
2024-10-11 14:47:47			0	38858	0	0	0	21696	20300	158861	27490	1056245	46316	107968	0	0	8257	531184	0	0
2024-10-11 14:48:47			0	38856	0	0	0	21703	20300	158909	27467	1056210	46305	107971	0	0	8257	531262	0	0
2024-10-11 14:49:47			0	38833	0	0	0	21701	20300	158961	27386	1056236	46293	107970	0	0	8255	532148	0	0
2024-10-11 14:50:47			0	38819	0	0	0	21703	20290	159001	27156	1056254	46304	107971	0	0	8255	532717	0	0
2024-10-11 14:51:47			0	38845	0	0	0	21693	20300	158905	27358	1056183	46327	107967	0	0	8256	531685	0	0
2024-10-11 14:52:47			0	38826	0	0	0	21701	20300	158921	27332	1056183	46283	107970	0	0	8255	532418	0	0
2024-10-11 14:53:47			0	38832	0	0	0	21711	20300	159069	27310	1056183	46293	107974	0	0	8255	532187	0	0
2024-10-11 14:54:47			0	38831	0	0	0	21724	20280	159009	27743	1056236	46303	107979	0	0	8255	532284	0	0
2024-10-11 14:55:47			0	38817	0	0	0	21716	20300	159077	27343	1056236	46305	107976	0	0	8254	532765	0	0
2024-10-11 14:56:47			0	38834	0	0	0	21709	20300	158937	27535	1056272	46305	107973	0	0	8255	532109	0	0
2024-10-11 14:57:47			0	38847	0	0	0	21714	20300	158981	27428	1056298	46316	107975	0	0	8256	531608	0	0
2024-10-11 14:58:47			0	38863	0	0	0	21709	20300	158945	27611	1056325	46327	107973	0	0	8257	530992	0	0
2024-10-11 14:59:47			0	38842	0	0	0	21714	20300	158929	27675	1056183	46305	107975	0	0	8256	531801	0	0
2024-10-11 15:00:47			0	38861	0	0	0	21706	20290	158873	27396	1056254	46315	107972	0	0	8257	531098	0	0
2024-10-11 15:01:47			0	38842	0	0	0	21716	20300	158853	27443	1056263	46305	107976	0	0	8256	531801	0	0
2024-10-11 15:02:47			0	38822	0	0	0	21706	20300	158969	27585	1056325	46305	107972	0	0	8255	532572	0	0
2024-10-11 15:03:47			0	38822	0	0	0	21711	20300	158997	27415	1056183	46316	107974	0	0	8255	532572	0	0
2024-10-11 15:04:47			0	38815	0	0	0	21703	20290	159085	27308	1056201	46304	107971	0	0	8254	532872	0	0
2024-10-11 15:05:47			0	38796	0	0	0	21698	20290	159105	27550	1056218	46314	107969	0	0	8253	533605	0	0
2024-10-11 15:06:47			0	38800	0	0	0	21706	20290	159073	27263	1056227	46304	107972	0	0	8253	533451	0	0
2024-10-11 15:07:47			0	38817	0	0	0	21703	20290	159101	27455	1056139	46303	107971	0	0	8254	532795	0	0
2024-10-11 15:08:47			0	38805	0	0	0	21711	20290	159061	27379	1056174	46304	107974	0	0	8254	533258	0	0
2024-10-11 15:09:47			0	38819	0	0	0	21696	20290	158937	27547	1056227	46315	107968	0	0	8255	532717	0	0
2024-10-11 15:10:47			0	38813	0	0	0	21706	20290	158881	27405	1056174	46304	107972	0	0	8254	532949	0	0
2024-10-11 15:11:47			0	38833	0	0	0	21706	20290	158897	27383	1056218	46291	107972	0	0	8255	532177	0	0
2024-10-11 15:12:47			0	38850	0	0	0	21706	20280	158969	27412	1056130	46291	107972	0	0	8256	531551	0	0
2024-10-11 15:13:47			0	38851	0	0	0	21701	20290	158985	27407	1056245	46291	107970	0	0	8256	531483	0	0
2024-10-11 15:14:47			0	38833	0	0	0	21703	20290	159045	27677	1056192	46303	107971	0	0	8255	532177	0	0
2024-10-11 15:15:47			0	38813	0	0	0	21716	20300	159021	27588	1056183	46305	107976	0	0	8254	532920	0	0
2024-10-11 15:16:47			0	38809	0	0	0	21709	20280	159045	27274	1056209	46281	107973	0	0	8254	533133	0	0
2024-10-11 15:17:47			0	38825	0	0	0	21706	20290	159069	27497	1056192	46303	107972	0	0	8255	532486	0	0
2024-10-11 15:18:47			0	38825	0	0	0	21703	20290	159053	27400	1056245	46314	107971	0	0	8255	532486	0	0
2024-10-11 15:19:47			0	38835	0	0	0	21709	20290	158997	27246	1056280	46315	107973	0	0	8255	532100	0	0
2024-10-11 15:20:47			0	38842	0	0	0	21709	20290	159033	27320	1056254	46315	107973	0	0	8256	531830	0	0
2024-10-11 15:21:47			0	38840	0	0	0	21711	20290	158937	27429	1056254	46292	107974	0	0	8256	531907	0	0
2024-10-11 15:22:47			0	38843	0	0	0	21709	20290	158965	27352	1056334	46304	107973	0	0	8256	531792	0	0
2024-10-11 15:23:47			0	38860	0	0	0	21709	20290	158929	27211	1056245	46314	107973	0	0	8257	531137	0	0
2024-10-11 15:24:47			0	38841	0	0	0	21724	20290	158913	27079	1056218	46314	107979	0	0	8256	531869	0	0
2024-10-11 15:25:47			0	38847	0	0	0	21716	20290	159065	27360	1056272	46303	107976	0	0	8256	531638	0	0
2024-10-11 15:26:47			0	38848	0	0	0	21724	20290	158941	27562	1056280	46304	107979	0	0	8256	531599	0	0
2024-10-11 15:27:47			0	38862	0	0	0	21722	20300	158909	27511	1056352	46305	107978	0	0	8257	531030	0	0
2024-10-11 15:28:47			0	38847	0	0	0	21722	20300	158953	27345	1056289	46293	107978	0	0	8256	531608	0	0
2024-10-11 15:29:47			0	38831	0	0	0	21709	20310	158929	27242	1056254	46305	107973	0	0	8255	532196	0	0
2024-10-11 15:30:47			0	38829	0	0	0	21701	20300	159097	27168	1056289	46293	107970	0	0	8255	532302	0	0
2024-10-11 15:31:47			0	38834	0	0	0	21716	20300	159029	27248	1056263	46293	107976	0	0	8255	532109	0	0
2024-10-11 15:32:47			0	38825	0	0	0	21714	20290	159065	27140	1056280	46292	107975	0	0	8255	532486	0	0
2024-10-11 15:33:47			0	38818	0	0	0	21706	20300	159121	27390	1056325	46305	107972	0	0	8255	532727	0	0
2024-10-11 15:34:47			0	38796	0	0	0	21693	20300	159173	27332	1056245	46293	107967	0	0	8253	533576	0	0
2024-10-11 15:35:47			0	38780	0	0	0	21709	20300	159193	27476	1056245	46316	107973	0	0	8252	534194	0	0
2024-10-11 15:36:47			0	38768	0	0	0	21703	20300	159273	27369	1056316	46305	107971	0	0	8252	534658	0	0
2024-10-11 15:37:47			0	38759	0	0	0	21709	20290	159249	27364	1056165	46303	107973	0	0	8251	535036	0	0
2024-10-11 15:38:47			0	38777	0	0	0	21714	20290	159269	27142	1056245	46303	107975	0	0	8252	534340	0	0
2024-10-11 15:39:47			0	38770	0	0	0	21711	20300	159233	27225	1056263	46293	107974	0	0	8252	534581	0	0
2024-10-11 15:40:47			0	38788	0	0	0	21701	20290	159253	27402	1056227	46292	107970	0	0	8253	533915	0	0
2024-10-11 15:41:47			0	38765	0	0	0	21706	20300	159165	27336	1056210	46305	107972	0	0	8251	534774	0	0
2024-10-11 15:42:47			0	38748	0	0	0	21706	20290	159357	27441	1056227	46304	107972	0	0	8250	535461	0	0
2024-10-11 15:43:47			0	38771	0	0	0	21703	20300	159309	27287	1056183	46316	107971	0	0	8252	534542	0	0
2024-10-11 15:44:47			0	38769	0	0	0	21714	20290	159349	27289	1056280	46292	107975	0	0	8251	534649	0	0
2024-10-11 15:45:47			0	38776	0	0	0	21716	20300	159293	27279	1056289	46305	107976	0	0	8252	534349	0	0
2024-10-11 15:46:47			0	38795	0	0	0	21737	20290	159169	27383	1056280	46304	107984	0	0	8253	533644	0	0
2024-10-11 15:47:47			0	38807	0	0	0	21737	20290	159021	27381	1056280	46315	107984	0	0	8253	533181	0	0
2024-10-11 15:48:47			0	38835	0	0	0	21745	20310	159001	27147	1056307	46316	107987	0	0	8255	532041	0	0
2024-10-11 15:49:47			0	38844	0	0	0	21742	20300	158985	27352	1056378	46316	107986	0	0	8255	531724	0	0
2024-10-11 15:50:47			0	38833	0	0	0	21722	20310	158833	27348	1056361	46305	107978	0	0	8255	532119	0	0
2024-10-11 15:51:47			0	38835	0	0	0	21716	20300	158969	27367	1056431	46316	107976	0	0	8255	532071	0	0
2024-10-11 15:52:47			0	38820	0	0	0	21709	20310	158889	27090	1056281	46316	107973	0	0	8255	532620	0	0
2024-10-11 15:53:47			0	38819	0	0	0	21711	20300	158945	27109	1056352	46305	107974	0	0	8254	532688	0	0
2024-10-11 15:54:47			0	38822	0	0	0	21714	20300	158949	27438	1056352	46316	107975	0	0	8255	532572	0	0
2024-10-11 15:55:47			0	38809	0	0	0	21722	20310	158965	27052	1056334	46305	107978	0	0	8254	533045	0	0
2024-10-11 15:56:47			0	38824	0	0	0	21724	20300	159041	27336	1056369	46305	107979	0	0	8255	532495	0	0
2024-10-11 15:57:47			0	38829	0	0	0	21722	20300	158929	27500	1056289	46316	107978	0	0	8255	532302	0	0
2024-10-11 15:58:47			0	38833	0	0	0	21722	20300	158913	27376	1056369	46316	107978	0	0	8255	532148	0	0
2024-10-11 15:59:47			0	38822	0	0	0	21719	20300	158849	27350	1056298	46305	107977	0	0	8255	532572	0	0
2024-10-11 16:00:47			0	38819	0	0	0	21719	20310	158905	27055	1056361	46316	107977	0	0	8254	532659	0	0
2024-10-11 16:01:47			0	38830	0	0	0	21719	20310	158945	27211	1056316	46317	107977	0	0	8255	532234	0	0
2024-10-11 16:02:47			0	38844	0	0	0	21719	20310	158857	27523	1056307	46305	107977	0	0	8256	531694	0	0
2024-10-11 16:03:47			0	38830	0	0	0	21714	20300	159009	27409	1056325	46283	107975	0	0	8255	532264	0	0
2024-10-11 16:04:47			0	38824	0	0	0	21716	20300	158949	27554	1056298	46305	107976	0	0	8255	532495	0	0
2024-10-11 16:05:47			0	38837	0	0	0	21722	20300	158901	27372	1056325	46293	107978	0	0	8255	531994	0	0
2024-10-11 16:06:47			0	38855	0	0	0	21729	20310	158833	27261	1056369	46294	107981	0	0	8256	531271	0	0
2024-10-11 16:07:47			0	38865	0	0	0	21732	20320	158733	27331	1056378	46295	107982	0	0	8257	530856	0	0
2024-10-11 16:08:47			0	38882	0	0	0	21742	20300	158741	27076	1056352	46305	107986	0	0	8258	530260	0	0
2024-10-11 16:09:47			0	38914	0	0	0	21737	20300	158625	27161	1056378	46305	107984	0	0	8260	529030	0	0
2024-10-11 16:10:47			0	38928	0	0	0	21740	20310	158561	27265	1056316	46317	107985	0	0	8260	528463	0	0
2024-10-11 16:11:47			0	38916	0	0	0	21714	20300	158481	27258	1056316	46305	107975	0	0	8260	528953	0	0
2024-10-11 16:12:47			0	38893	0	0	0	21701	20310	158645	27388	1056316	46294	107970	0	0	8259	529808	0	0
2024-10-11 16:13:47			0	38888	0	0	0	21701	20310	158693	27653	1056316	46306	107970	0	0	8259	530000	0	0
2024-10-11 16:14:47			0	38879	0	0	0	21696	20300	158745	27300	1056298	46293	107968	0	0	8258	530376	0	0
2024-10-11 16:15:47			0	38861	0	0	0	21706	20300	158889	27225	1056298	46293	107972	0	0	8257	531069	0	0
2024-10-11 16:16:47			0	38826	0	0	0	21714	20300	158941	27542	1056289	46293	107975	0	0	8255	532418	0	0
2024-10-11 16:17:47			0	38861	0	0	0	21722	20300	158881	27157	1056263	46305	107978	0	0	8257	531069	0	0
2024-10-11 16:18:47			0	38861	0	0	0	21729	20300	158853	27374	1056316	46305	107981	0	0	8257	531069	0	0
2024-10-11 16:19:47			0	38844	0	0	0	21722	20290	158789	27270	1056298	46314	107978	0	0	8256	531753	0	0
2024-10-11 16:20:47			0	38866	0	0	0	21719	20300	158869	27462	1056325	46316	107977	0	0	8257	530876	0	0
2024-10-11 16:21:47			0	38867	0	0	0	21732	20300	158873	27235	1056352	46305	107982	0	0	8257	530838	0	0
2024-10-11 16:22:47			0	38854	0	0	0	21727	20300	158921	27284	1056378	46305	107980	0	0	8256	531339	0	0
2024-10-11 16:23:47			0	38836	0	0	0	21724	20300	158925	27538	1056289	46316	107979	0	0	8255	532032	0	0
2024-10-11 16:24:47			0	38825	0	0	0	21722	20300	159001	27303	1056396	46316	107978	0	0	8255	532456	0	0
2024-10-11 16:25:47			0	38806	0	0	0	21719	20300	159025	27282	1056325	46327	107977	0	0	8254	533190	0	0
2024-10-11 16:26:47			0	38803	0	0	0	21724	20300	159097	27455	1056298	46316	107979	0	0	8253	533306	0	0
2024-10-11 16:27:47			0	38814	0	0	0	21722	20300	159085	27447	1056352	46305	107978	0	0	8254	532881	0	0
2024-10-11 16:28:47			0	38803	0	0	0	21719	20300	159073	27111	1056316	46293	107977	0	0	8253	533306	0	0
2024-10-11 16:29:47			0	38812	0	0	0	21722	20300	159065	27346	1056272	46327	107978	0	0	8254	532958	0	0
2024-10-11 16:30:47			0	38798	0	0	0	21719	20290	158989	27561	1056254	46304	107977	0	0	8253	533528	0	0
2024-10-11 16:31:47			0	38812	0	0	0	21735	20300	159033	27265	1056289	46305	107983	0	0	8254	532958	0	0
2024-10-11 16:32:47			0	38825	0	0	0	21729	20300	158945	27528	1056236	46316	107981	0	0	8255	532456	0	0
2024-10-11 16:33:47			0	38813	0	0	0	21722	20290	158953	27684	1056334	46292	107978	0	0	8254	532949	0	0
2024-10-11 16:34:47			0	38823	0	0	0	21724	20300	159033	27429	1056352	46316	107979	0	0	8255	532534	0	0
2024-10-11 16:35:47			0	38837	0	0	0	21719	20310	159057	27161	1056334	46316	107977	0	0	8255	531964	0	0
2024-10-11 16:36:47			0	38802	0	0	0	21727	20300	158989	27338	1056316	46293	107980	0	0	8253	533344	0	0
2024-10-11 16:37:47			0	38818	0	0	0	21714	20310	158973	27192	1056361	46305	107975	0	0	8254	532697	0	0
2024-10-11 16:38:47			0	38828	0	0	0	21732	20300	158997	27467	1056316	46316	107982	0	0	8255	532341	0	0
2024-10-11 16:39:47			0	38819	0	0	0	21719	20300	159005	26939	1056316	46305	107977	0	0	8254	532688	0	0
2024-10-11 16:40:47			0	38828	0	0	0	21716	20290	159101	27443	1056298	46291	107976	0	0	8255	532370	0	0
2024-10-11 16:41:47			0	38795	0	0	0	21709	20310	159129	27341	1056307	46305	107973	0	0	8253	533585	0	0
2024-10-11 16:42:47			0	38788	0	0	0	21709	20300	159077	27232	1056316	46316	107973	0	0	8253	533885	0	0
2024-10-11 16:43:47			0	38796	0	0	0	21709	20290	159097	27147	1056254	46304	107973	0	0	8253	533605	0	0
2024-10-11 16:44:47			0	38796	0	0	0	21714	20300	159201	27405	1056343	46316	107975	0	0	8253	533576	0	0
2024-10-11 16:45:47			0	38782	0	0	0	21716	20290	159217	27111	1056307	46315	107976	0	0	8252	534146	0	0
2024-10-11 16:46:47			0	38801	0	0	0	21711	20290	159137	27770	1056280	46315	107974	0	0	8253	533412	0	0
2024-10-11 16:47:47			0	38781	0	0	0	21709	20290	159029	27581	1056254	46304	107973	0	0	8252	534185	0	0
2024-10-11 16:48:47			0	38787	0	0	0	21711	20290	159173	27443	1056254	46315	107974	0	0	8253	533953	0	0
2024-10-11 16:49:47			0	38811	0	0	0	21711	20290	159173	27540	1056307	46304	107974	0	0	8254	533026	0	0
2024-10-11 16:50:47			0	38806	0	0	0	21716	20290	159153	27440	1056307	46326	107976	0	0	8254	533219	0	0
2024-10-11 16:51:47			0	38799	0	0	0	21719	20300	159041	27183	1056183	46283	107977	0	0	8253	533460	0	0
2024-10-11 16:52:47			0	38819	0	0	0	21719	20290	159089	27381	1056165	46303	107977	0	0	8254	532717	0	0
2024-10-11 16:53:47			0	38815	0	0	0	21719	20290	158949	27235	1056334	46304	107977	0	0	8254	532872	0	0
2024-10-11 16:54:47			0	38821	0	0	0	21716	20290	158997	27251	1056254	46315	107976	0	0	8254	532640	0	0
2024-10-11 16:55:47			0	38841	0	0	0	21722	20300	158889	27097	1056289	46316	107978	0	0	8256	531840	0	0
2024-10-11 16:56:47			0	38845	0	0	0	21714	20280	158941	27170	1056236	46314	107975	0	0	8256	531744	0	0
2024-10-11 16:57:47			0	38849	0	0	0	21711	20290	158873	27526	1056280	46304	107974	0	0	8256	531561	0	0
2024-10-11 16:58:47			0	38837	0	0	0	21719	20290	158961	27222	1056334	46304	107977	0	0	8255	532023	0	0
2024-10-11 16:59:47			0	38842	0	0	0	21722	20300	158921	27469	1056289	46305	107978	0	0	8256	531801	0	0
2024-10-11 17:00:47			0	38828	0	0	0	21722	20300	158889	27372	1056289	46316	107978	0	0	8255	532341	0	0
2024-10-11 17:01:47			0	38842	0	0	0	21716	20290	158929	27147	1056272	46314	107976	0	0	8256	531830	0	0
2024-10-11 17:02:47			0	38852	0	0	0	21722	20300	158921	27353	1056343	46305	107978	0	0	8256	531416	0	0
2024-10-11 17:03:47			0	38839	0	0	0	21724	20300	158873	27350	1056272	46316	107979	0	0	8255	531917	0	0
2024-10-11 17:04:47			0	38854	0	0	0	21722	20290	158861	27435	1056334	46304	107978	0	0	8256	531368	0	0
2024-10-11 17:05:47			0	38847	0	0	0	21722	20280	158861	27140	1056316	46314	107978	0	0	8256	531667	0	0
2024-10-11 17:06:47			0	38860	0	0	0	21729	20300	158753	27170	1056289	46305	107981	0	0	8257	531107	0	0
2024-10-11 17:07:47			0	38887	0	0	0	21714	20300	158701	27576	1056289	46316	107975	0	0	8258	530068	0	0
2024-10-11 17:08:47			0	38881	0	0	0	21727	20290	158733	26908	1056307	46282	107980	0	0	8258	530328	0	0
2024-10-11 17:09:47			0	38885	0	0	0	21719	20300	158689	27215	1056325	46293	107977	0	0	8258	530145	0	0
2024-10-11 17:10:47			0	38876	0	0	0	21722	20300	158677	27140	1056325	46305	107978	0	0	8258	530491	0	0
2024-10-11 17:11:47			0	38881	0	0	0	21716	20290	158729	27390	1056307	46315	107976	0	0	8258	530328	0	0
2024-10-11 17:12:47			0	38894	0	0	0	21719	20300	158637	27270	1056316	46293	107977	0	0	8259	529799	0	0
2024-10-11 17:13:47			0	38880	0	0	0	21716	20300	158633	26953	1056289	46316	107976	0	0	8258	530337	0	0
2024-10-11 17:14:47			0	38893	0	0	0	21716	20300	158677	27232	1056316	46305	107976	0	0	8259	529837	0	0
2024-10-11 17:15:47			0	38894	0	0	0	21716	20300	158657	27227	1056343	46316	107976	0	0	8259	529799	0	0
2024-10-11 17:16:47			0	38915	0	0	0	21716	20290	158653	27263	1056307	46282	107976	0	0	8260	529021	0	0
2024-10-11 17:17:47			0	38891	0	0	0	21716	20300	158721	27557	1056298	46305	107976	0	0	8259	529914	0	0
2024-10-11 17:18:47			0	38916	0	0	0	21724	20290	158653	27131	1056272	46291	107979	0	0	8260	528982	0	0
2024-10-11 17:19:47			0	38920	0	0	0	21719	20290	158601	27043	1056307	46304	107977	0	0	8260	528829	0	0
2024-10-11 17:20:47			0	38918	0	0	0	21732	20300	158621	27178	1056352	46316	107982	0	0	8260	528876	0	0
2024-10-11 17:21:47			0	38933	0	0	0	21732	20300	158505	27438	1056298	46316	107982	0	0	8261	528300	0	0
2024-10-11 17:22:47			0	38928	0	0	0	21722	20290	158609	27646	1056334	46304	107978	0	0	8261	528521	0	0
2024-10-11 17:23:47			0	38950	0	0	0	21722	20300	158561	27571	1056289	46327	107978	0	0	8262	527648	0	0
2024-10-11 17:24:47			0	38950	0	0	0	21719	20290	158453	27398	1056272	46303	107977	0	0	8262	527677	0	0
2024-10-11 17:25:47			0	38960	0	0	0	21719	20290	158381	27353	1056280	46315	107977	0	0	8263	527293	0	0
2024-10-11 17:26:47			0	38942	0	0	0	21716	20300	158421	27608	1056263	46327	107976	0	0	8262	527954	0	0
2024-10-11 17:27:47			0	38939	0	0	0	21709	20290	158453	27400	1056254	46292	107973	0	0	8261	528099	0	0
2024-10-11 17:28:47			0	38938	0	0	0	21711	20300	158609	27227	1056325	46305	107974	0	0	8261	528108	0	0
2024-10-11 17:29:47			0	38929	0	0	0	21709	20300	158517	27232	1056298	46293	107973	0	0	8261	528454	0	0
2024-10-11 17:30:47			0	38912	0	0	0	21709	20300	158665	27105	1056316	46305	107973	0	0	8260	529107	0	0
2024-10-11 17:31:47			0	38909	0	0	0	21706	20280	158657	27448	1056280	46303	107972	0	0	8260	529280	0	0
2024-10-11 17:32:47			0	38888	0	0	0	21709	20290	158649	27168	1056218	46325	107973	0	0	8258	530059	0	0
2024-10-11 17:33:47			0	38885	0	0	0	21698	20290	158721	27355	1056201	46292	107969	0	0	8259	530174	0	0
2024-10-11 17:34:47			0	38885	0	0	0	21701	20290	158681	27585	1056201	46304	107970	0	0	8258	530174	0	0
2024-10-11 17:35:47			0	38895	0	0	0	21698	20290	158785	27291	1056139	46291	107969	0	0	8259	529790	0	0
2024-10-11 17:36:47			0	38878	0	0	0	21703	20280	158729	27483	1056263	46314	107971	0	0	8258	530473	0	0
2024-10-11 17:37:47			0	38896	0	0	0	21706	20290	158789	27426	1056254	46315	107972	0	0	8259	529751	0	0
2024-10-11 17:38:47			0	38897	0	0	0	21711	20280	158709	27180	1056183	46303	107974	0	0	8259	529742	0	0
2024-10-11 17:39:47			0	38894	0	0	0	21711	20280	158673	27255	1056289	46314	107974	0	0	8259	529857	0	0
2024-10-11 17:40:47			0	38908	0	0	0	21709	20280	158573	27227	1056156	46303	107973	0	0	8260	529319	0	0
2024-10-11 17:41:47			0	38915	0	0	0	21706	20290	158589	27327	1056245	46314	107972	0	0	8260	529021	0	0
2024-10-11 17:42:47			0	38920	0	0	0	21709	20280	158629	27180	1056254	46303	107973	0	0	8260	528858	0	0
2024-10-11 17:43:47			0	38897	0	0	0	21696	20280	158633	27239	1056316	46314	107968	0	0	8259	529742	0	0
2024-10-11 17:44:47			0	38901	0	0	0	21709	20280	158661	27298	1056227	46314	107973	0	0	8259	529588	0	0
2024-10-11 17:45:47			0	38880	0	0	0	21693	20280	158737	27145	1056254	46314	107967	0	0	8258	530396	0	0
2024-10-11 17:46:47			0	38879	0	0	0	21698	20280	158737	27429	1056200	46314	107969	0	0	8258	530434	0	0
2024-10-11 17:47:47			0	38860	0	0	0	21696	20280	158853	27144	1056227	46314	107968	0	0	8257	531166	0	0
2024-10-11 17:48:47			0	38864	0	0	0	21693	20280	158785	26941	1056236	46314	107967	0	0	8257	531012	0	0
2024-10-11 17:49:47			0	38833	0	0	0	21693	20270	158849	27111	1056218	46313	107967	0	0	8255	532236	0	0
2024-10-11 17:50:47			0	38833	0	0	0	21683	20270	158913	27383	1056192	46302	107963	0	0	8256	532236	0	0
2024-10-11 17:51:47			0	38827	0	0	0	21683	20270	158989	27317	1056138	46302	107963	0	0	8255	532468	0	0
2024-10-11 17:52:47			0	38832	0	0	0	21685	20280	159025	27315	1056209	46314	107964	0	0	8256	532245	0	0
2024-10-11 17:53:47			0	38809	0	0	0	21680	20270	158985	27180	1056129	46300	107962	0	0	8254	533162	0	0
2024-10-11 17:54:47			0	38816	0	0	0	21685	20260	159081	27369	1056094	46312	107964	0	0	8255	532921	0	0
2024-10-11 17:55:47			0	38810	0	0	0	21683	20270	159081	27248	1056138	46291	107963	0	0	8254	533124	0	0
2024-10-11 17:56:47			0	38816	0	0	0	21683	20270	159085	27338	1056129	46312	107963	0	0	8255	532892	0	0
2024-10-11 17:57:47			0	38815	0	0	0	21685	20260	159109	27303	1056147	46312	107964	0	0	8255	532960	0	0
2024-10-11 17:58:47			0	38829	0	0	0	21685	20260	158985	27128	1056200	46312	107964	0	0	8255	532420	0	0
2024-10-11 17:59:47			0	38813	0	0	0	21685	20260	158997	27208	1056147	46300	107964	0	0	8254	533037	0	0
2024-10-11 18:00:47			0	38813	0	0	0	21683	20260	159017	27450	1056094	46312	107963	0	0	8254	533037	0	0
2024-10-11 18:01:47			0	38807	0	0	0	21683	20260	159065	26814	1056120	46312	107963	0	0	8254	533269	0	0
2024-10-11 18:02:47			0	38797	0	0	0	21680	20260	158989	27149	1056085	46312	107962	0	0	8254	533655	0	0
2024-10-11 18:03:47			0	38794	0	0	0	21683	20260	158953	27000	1056085	46300	107963	0	0	8253	533771	0	0
2024-10-11 18:04:47			0	38812	0	0	0	21688	20260	159001	27289	1056111	46300	107965	0	0	8254	533076	0	0
2024-10-11 18:05:47			0	38802	0	0	0	21677	20260	158997	27329	1056165	46300	107961	0	0	8254	533462	0	0
2024-10-11 18:06:47			0	38774	0	0	0	21677	20260	159049	27182	1056120	46312	107961	0	0	8252	534544	0	0
2024-10-11 18:07:47			0	38802	0	0	0	21675	20260	159133	27144	1056041	46312	107960	0	0	8254	533462	0	0
2024-10-11 18:08:47			0	38816	0	0	0	21672	20260	159161	27057	1056120	46300	107959	0	0	8255	532921	0	0
2024-10-11 18:09:47			0	38814	0	0	0	21680	20250	159001	27034	1056129	46299	107962	0	0	8255	533028	0	0
2024-10-11 18:10:47			0	38836	0	0	0	21683	20250	159077	27074	1056076	46311	107963	0	0	8256	532179	0	0
2024-10-11 18:11:47			0	38863	0	0	0	21677	20260	158885	27071	1056085	46312	107961	0	0	8257	531109	0	0
2024-10-11 18:12:47			0	38874	0	0	0	21680	20260	158845	27357	1056165	46300	107962	0	0	8258	530685	0	0
2024-10-11 18:13:47			0	38890	0	0	0	21690	20260	158853	27246	1056085	46300	107966	0	0	8259	530070	0	0
2024-10-11 18:14:47			0	38872	0	0	0	21683	20250	158809	27144	1056049	46299	107963	0	0	8258	530792	0	0
2024-10-11 18:15:47			0	38869	0	0	0	21688	20250	158865	26953	1056156	46311	107965	0	0	8258	530907	0	0
2024-10-11 18:16:47			0	38869	0	0	0	21680	20260	158813	27095	1056111	46323	107962	0	0	8258	530878	0	0
2024-10-11 18:17:47			0	38878	0	0	0	21672	20260	158737	27090	1056165	46312	107959	0	0	8258	530532	0	0
2024-10-11 18:18:47			0	38897	0	0	0	21685	20260	158785	27234	1056111	46312	107964	0	0	8259	529800	0	0
2024-10-11 18:19:47			0	38873	0	0	0	21685	20250	158777	27170	1056049	46311	107964	0	0	8258	530753	0	0
2024-10-11 18:20:47			0	38888	0	0	0	21683	20250	158773	26906	1056049	46311	107963	0	0	8259	530176	0	0
2024-10-11 18:21:47			0	38886	0	0	0	21688	20260	158765	27150	1056111	46290	107965	0	0	8259	530224	0	0
2024-10-11 18:22:47			0	38894	0	0	0	21688	20260	158653	27098	1056085	46300	107965	0	0	8259	529916	0	0
2024-10-11 18:23:47			0	38918	0	0	0	21688	20260	158641	26722	1056120	46312	107965	0	0	8260	528993	0	0
2024-10-11 18:24:47			0	38914	0	0	0	21675	20260	158669	27107	1056200	46300	107960	0	0	8260	529147	0	0
2024-10-11 18:25:47			0	38905	0	0	0	21680	20250	158657	26809	1056076	46299	107962	0	0	8260	529522	0	0
2024-10-11 18:26:47			0	38903	0	0	0	21672	20250	158765	27031	1056103	46322	107959	0	0	8260	529599	0	0
2024-10-11 18:27:47			0	38900	0	0	0	21683	20240	158745	27180	1056094	46310	107963	0	0	8259	529743	0	0
2024-10-11 18:28:47			0	38899	0	0	0	21677	20250	158769	26880	1056076	46311	107961	0	0	8260	529753	0	0
2024-10-11 18:29:47			0	38899	0	0	0	21672	20260	158713	27130	1056005	46300	107959	0	0	8260	529724	0	0
2024-10-11 18:30:47			0	38891	0	0	0	21667	20240	158785	27060	1056040	46321	107957	0	0	8259	530090	0	0
2024-10-11 18:31:47			0	38906	0	0	0	21677	20240	158761	27078	1056014	46288	107961	0	0	8260	529513	0	0
2024-10-11 18:32:47			0	38896	0	0	0	21683	20240	158745	27041	1056058	46297	107963	0	0	8259	529897	0	0
2024-10-11 18:33:47			0	38873	0	0	0	21683	20240	158741	27242	1056031	46297	107963	0	0	8258	530783	0	0
2024-10-11 18:34:47			0	38896	0	0	0	21677	20260	158805	27315	1056138	46300	107961	0	0	8259	529839	0	0
2024-10-11 18:35:47			0	38870	0	0	0	21680	20240	158769	27222	1056085	46309	107962	0	0	8258	530898	0	0
2024-10-11 18:36:47			0	38882	0	0	0	21680	20250	158845	27261	1056103	46311	107962	0	0	8258	530407	0	0
2024-10-11 18:37:47			0	38893	0	0	0	21664	20240	158789	27294	1055978	46297	107956	0	0	8259	530013	0	0
2024-10-11 18:38:47			0	38904	0	0	0	21672	20240	158761	27275	1056067	46298	107959	0	0	8260	529590	0	0
2024-10-11 18:39:47			0	38910	0	0	0	21670	20250	158733	27170	1056103	46322	107958	0	0	8260	529330	0	0
2024-10-11 18:40:47			0	38928	0	0	0	21670	20240	158681	27147	1055978	46297	107958	0	0	8261	528667	0	0
2024-10-11 18:41:47			0	38905	0	0	0	21675	20240	158717	27248	1056040	46288	107960	0	0	8260	529551	0	0
2024-10-11 18:42:47			0	38897	0	0	0	21680	20250	158777	27287	1056103	46299	107962	0	0	8259	529830	0	0
2024-10-11 18:43:47			0	38890	0	0	0	21672	20260	158801	27114	1056032	46312	107959	0	0	8259	530070	0	0
2024-10-11 18:44:47			0	38875	0	0	0	21685	20250	158893	27038	1056049	46299	107964	0	0	8258	530676	0	0
2024-10-11 18:45:47			0	38876	0	0	0	21672	20240	158881	27149	1056067	46310	107959	0	0	8258	530667	0	0
2024-10-11 18:46:47			0	38878	0	0	0	21683	20250	158865	27175	1056103	46311	107963	0	0	8258	530561	0	0
2024-10-11 18:47:47			0	38859	0	0	0	21680	20240	158857	26859	1055987	46310	107962	0	0	8257	531322	0	0
2024-10-11 18:48:47			0	38882	0	0	0	21683	20240	158785	27081	1056067	46310	107963	0	0	8258	530436	0	0
2024-10-11 18:49:47			0	38899	0	0	0	21675	20250	158697	27147	1056049	46311	107960	0	0	8260	529753	0	0
2024-10-11 18:50:47			0	38910	0	0	0	21667	20250	158693	27105	1056049	46322	107957	0	0	8260	529330	0	0
2024-10-11 18:51:47			0	38916	0	0	0	21670	20240	158581	27246	1056067	46310	107958	0	0	8261	529128	0	0
2024-10-11 18:52:47			0	38903	0	0	0	21675	20240	158565	27098	1056031	46287	107960	0	0	8260	529628	0	0
2024-10-11 18:53:47			0	38926	0	0	0	21677	20240	158569	27124	1056031	46309	107961	0	0	8261	528744	0	0
2024-10-11 18:54:47			0	38920	0	0	0	21667	20250	158649	27116	1056156	46299	107957	0	0	8261	528945	0	0
2024-10-11 18:55:47			0	38920	0	0	0	21675	20240	158641	27284	1056067	46288	107960	0	0	8261	528975	0	0
2024-10-11 18:56:47			0	38906	0	0	0	21664	20240	158721	27055	1056031	46309	107956	0	0	8260	529513	0	0
2024-10-11 18:57:47			0	38896	0	0	0	21670	20240	158681	27333	1056058	46297	107958	0	0	8259	529897	0	0
2024-10-11 18:58:47			0	38897	0	0	0	21664	20240	158725	26989	1056031	46309	107956	0	0	8260	529859	0	0
2024-10-11 18:59:47			0	38863	0	0	0	21659	20240	158805	27173	1055952	46309	107954	0	0	8258	531168	0	0
2024-10-11 19:00:47			0	38875	0	0	0	21654	20240	158921	27053	1056058	46297	107952	0	0	8258	530706	0	0
2024-10-11 19:01:47			0	38875	0	0	0	21662	20230	158957	27189	1055996	46309	107955	0	0	8258	530735	0	0
2024-10-11 19:02:47			0	38846	0	0	0	21651	20240	158805	27118	1056031	46297	107951	0	0	8257	531823	0	0
2024-10-11 19:03:47			0	38831	0	0	0	21646	20230	158905	27112	1055934	46297	107949	0	0	8256	532431	0	0
2024-10-11 19:04:47			0	38834	0	0	0	21641	20230	159017	27017	1055960	46287	107947	0	0	8256	532315	0	0
2024-10-11 19:05:47			0	38824	0	0	0	21628	20220	158917	27121	1055943	46295	107942	0	0	8256	532730	0	0
2024-10-11 19:06:47			0	38859	0	0	0	21646	20230	158933	26928	1055916	46309	107949	0	0	8258	531351	0	0
2024-10-11 19:07:47			0	38864	0	0	0	21651	20220	158857	27218	1055943	46285	107951	0	0	8258	531188	0	0
2024-10-11 19:08:47			0	38880	0	0	0	21644	20210	158789	27223	1055907	46307	107948	0	0	8259	530601	0	0
2024-10-11 19:09:47			0	38889	0	0	0	21644	20220	158709	27332	1055889	46307	107948	0	0	8259	530225	0	0
2024-10-11 19:10:47			0	38879	0	0	0	21631	20210	158801	26875	1055907	46307	107943	0	0	8259	530639	0	0
2024-10-11 19:11:47			0	38887	0	0	0	21644	20210	158809	27190	1055898	46318	107948	0	0	8259	530331	0	0
2024-10-11 19:12:47			0	38887	0	0	0	21638	20210	158685	27112	1055924	46318	107946	0	0	8259	530331	0	0
2024-10-11 19:13:47			0	38884	0	0	0	21651	20210	158781	27121	1055924	46285	107951	0	0	8259	530447	0	0
2024-10-11 19:14:47			0	38883	0	0	0	21644	20210	158753	26981	1055951	46307	107948	0	0	8259	530486	0	0
2024-10-11 19:15:47			0	38876	0	0	0	21649	20210	158785	27079	1055924	46295	107950	0	0	8258	530755	0	0
2024-10-11 19:16:47			0	38866	0	0	0	21651	20220	158853	27045	1055916	46307	107951	0	0	8258	531111	0	0
2024-10-11 19:17:47			0	38850	0	0	0	21644	20210	158757	27338	1055907	46307	107948	0	0	8257	531757	0	0
2024-10-11 19:18:47			0	38858	0	0	0	21641	20210	158933	27119	1055880	46307	107947	0	0	8258	531448	0	0
2024-10-11 19:19:47			0	38853	0	0	0	21638	20210	158869	27419	1055845	46295	107946	0	0	8257	531641	0	0
2024-10-11 19:20:47			0	38851	0	0	0	21636	20210	158921	27448	1055951	46318	107945	0	0	8257	531718	0	0
2024-10-11 19:21:47			0	38846	0	0	0	21641	20210	158897	27196	1055907	46307	107947	0	0	8257	531911	0	0
2024-10-11 19:22:47			0	38842	0	0	0	21633	20210	159049	26953	1055907	46295	107944	0	0	8257	532065	0	0
2024-10-11 19:23:47			0	38817	0	0	0	21638	20210	159021	27100	1055898	46295	107946	0	0	8255	533030	0	0
2024-10-11 19:24:47			0	38830	0	0	0	21633	20210	159029	27223	1055871	46285	107944	0	0	8256	532528	0	0
2024-10-11 19:25:47			0	38814	0	0	0	21644	20210	159037	27339	1055898	46295	107948	0	0	8255	533146	0	0
2024-10-11 19:26:47			0	38796	0	0	0	21636	20200	159121	27241	1055809	46294	107945	0	0	8254	533871	0	0
2024-10-11 19:27:47			0	38784	0	0	0	21644	20210	159077	27358	1055853	46307	107948	0	0	8253	534305	0	0
2024-10-11 19:28:47			0	38789	0	0	0	21631	20210	159189	26949	1055951	46307	107943	0	0	8254	534112	0	0
2024-10-11 19:29:47			0	38796	0	0	0	21638	20200	159261	27163	1055853	46305	107946	0	0	8254	533871	0	0
2024-10-11 19:30:47			0	38800	0	0	0	21636	20210	159113	27180	1055871	46295	107945	0	0	8254	533687	0	0
2024-10-11 19:31:47			0	38797	0	0	0	21631	20200	159109	27241	1055853	46293	107943	0	0	8254	533832	0	0
2024-10-11 19:32:47			0	38783	0	0	0	21628	20210	159217	27230	1055907	46307	107942	0	0	8253	534344	0	0
2024-10-11 19:33:47			0	38773	0	0	0	21625	20200	159221	27320	1055880	46283	107941	0	0	8253	534760	0	0
2024-10-11 19:34:47			0	38782	0	0	0	21628	20200	159309	27159	1055880	46305	107942	0	0	8253	534412	0	0
2024-10-11 19:35:47			0	38755	0	0	0	21628	20200	159313	27203	1055809	46306	107942	0	0	8252	535456	0	0
2024-10-11 19:36:47			0	38760	0	0	0	21618	20200	159261	26831	1055862	46306	107938	0	0	8252	535263	0	0
2024-10-11 19:37:47			0	38766	0	0	0	21633	20190	159297	27315	1055889	46293	107944	0	0	8252	535060	0	0
2024-10-11 19:38:47			0	38779	0	0	0	21631	20200	159221	27281	1055836	46294	107943	0	0	8253	534528	0	0
2024-10-11 19:39:47			0	38796	0	0	0	21633	20200	159225	27353	1055915	46284	107944	0	0	8254	533871	0	0
2024-10-11 19:40:47			0	38787	0	0	0	21641	20200	159161	27374	1055906	46293	107947	0	0	8253	534219	0	0
2024-10-11 19:41:47			0	38786	0	0	0	21638	20200	159133	27149	1055880	46305	107946	0	0	8253	534257	0	0
2024-10-11 19:42:47			0	38778	0	0	0	21623	20200	159033	27483	1055827	46293	107940	0	0	8253	534566	0	0
2024-10-11 19:43:47			0	38777	0	0	0	21625	20200	159201	27279	1055853	46293	107941	0	0	8253	534605	0	0
2024-10-11 19:44:47			0	38794	0	0	0	21610	20200	159313	27192	1055800	46305	107935	0	0	8254	533948	0	0
2024-10-11 19:45:47			0	38774	0	0	0	21610	20200	159265	27289	1055827	46305	107935	0	0	8253	534721	0	0
2024-10-11 19:46:47			0	38782	0	0	0	21615	20200	159257	27180	1055809	46306	107937	0	0	8254	534412	0	0
2024-10-11 19:47:47			0	38771	0	0	0	21607	20190	159245	27137	1055791	46305	107934	0	0	8253	534867	0	0
2024-10-11 19:48:47			0	38770	0	0	0	21615	20180	159277	27429	1055791	46281	107937	0	0	8253	534935	0	0
2024-10-11 19:49:47			0	38775	0	0	0	21620	20180	159317	27008	1055800	46304	107939	0	0	8253	534741	0	0
2024-10-11 19:50:47			0	38763	0	0	0	21612	20190	159337	27119	1055791	46305	107936	0	0	8252	535176	0	0
2024-10-11 19:51:47			0	38765	0	0	0	21615	20180	159345	26955	1055800	46304	107937	0	0	8252	535128	0	0
2024-10-11 19:52:47			0	38756	0	0	0	21605	20190	159281	27315	1055871	46305	107933	0	0	8252	535447	0	0
2024-10-11 19:53:47			0	38757	0	0	0	21612	20180	159341	27286	1055747	46304	107936	0	0	8252	535438	0	0
2024-10-11 19:54:47			0	38746	0	0	0	21615	20180	159349	27320	1055800	46304	107937	0	0	8251	535864	0	0
2024-10-11 19:55:47			0	38747	0	0	0	21615	20190	159317	27241	1055756	46293	107937	0	0	8251	535796	0	0
2024-10-11 19:56:47			0	38760	0	0	0	21610	20180	159325	27274	1055747	46304	107935	0	0	8252	535322	0	0
2024-10-11 19:57:47			0	38745	0	0	0	21620	20180	159397	27230	1055738	46303	107939	0	0	8251	535903	0	0
2024-10-11 19:58:47			0	38725	0	0	0	21602	20180	159445	27253	1055764	46291	107932	0	0	8250	536678	0	0
2024-10-11 19:59:47			0	38708	0	0	0	21602	20180	159428	26949	1055773	46304	107932	0	0	8249	537337	0	0
2024-10-11 20:00:47			0	38729	0	0	0	21605	20200	159337	27118	1055827	46305	107933	0	0	8251	536464	0	0
2024-10-11 20:01:47			0	38726	0	0	0	21592	20170	159432	27100	1055702	46303	107928	0	0	8251	536669	0	0
2024-10-11 20:02:47			0	38734	0	0	0	21602	20180	159520	27329	1055711	46303	107932	0	0	8251	536329	0	0
2024-10-11 20:03:47			0	38749	0	0	0	21615	20180	159457	27396	1055720	46304	107937	0	0	8252	535748	0	0
2024-10-11 20:04:47			0	38740	0	0	0	21594	20170	159345	27384	1055720	46302	107929	0	0	8251	536126	0	0
2024-10-11 20:05:47			0	38731	0	0	0	21589	20170	159477	27213	1055729	46291	107927	0	0	8251	536475	0	0
2024-10-11 20:06:47			0	38733	0	0	0	21592	20170	159449	27007	1055773	46302	107928	0	0	8251	536397	0	0
2024-10-11 20:07:47			0	38733	0	0	0	21589	20170	159404	27081	1055702	46281	107927	0	0	8251	536397	0	0
2024-10-11 20:08:47			0	38724	0	0	0	21594	20170	159544	27072	1055755	46303	107929	0	0	8250	536746	0	0
2024-10-11 20:09:47			0	38689	0	0	0	21592	20180	159492	27291	1055738	46291	107928	0	0	8248	538075	0	0
2024-10-11 20:10:47			0	38706	0	0	0	21581	20180	159512	27303	1055711	46291	107924	0	0	8250	537415	0	0
2024-10-11 20:11:47			0	38711	0	0	0	21576	20170	159492	27441	1055640	46291	107922	0	0	8250	537251	0	0
2024-10-11 20:12:47			0	38719	0	0	0	21586	20160	159528	27173	1055684	46302	107926	0	0	8250	536970	0	0
2024-10-11 20:13:47			0	38719	0	0	0	21592	20160	159496	27296	1055631	46280	107928	0	0	8250	536970	0	0
2024-10-11 20:14:47			0	38732	0	0	0	21592	20160	159509	27123	1055631	46291	107928	0	0	8251	536466	0	0
2024-10-11 20:15:47			0	38734	0	0	0	21594	20160	159441	27206	1055631	46302	107929	0	0	8251	536388	0	0
2024-10-11 20:16:47			0	38716	0	0	0	21592	20160	159536	27412	1055658	46302	107928	0	0	8250	537086	0	0
2024-10-11 20:17:47			0	38718	0	0	0	21589	20160	159420	27493	1055649	46312	107927	0	0	8250	537009	0	0
2024-10-11 20:18:47			0	38725	0	0	0	21592	20160	159504	27628	1055649	46301	107928	0	0	8250	536737	0	0
2024-10-11 20:19:47			0	38720	0	0	0	21576	20160	159408	27415	1055675	46290	107922	0	0	8250	536931	0	0
2024-10-11 20:20:47			0	38744	0	0	0	21576	20160	159437	27530	1055711	46291	107922	0	0	8252	536001	0	0
2024-10-11 20:21:47			0	38746	0	0	0	21573	20160	159409	27128	1055658	46291	107921	0	0	8252	535923	0	0
2024-10-11 20:22:47			0	38738	0	0	0	21573	20160	159409	27218	1055649	46290	107921	0	0	8251	536233	0	0
2024-10-11 20:23:47			0	38748	0	0	0	21566	20160	159397	27307	1055649	46301	107918	0	0	8252	535846	0	0
2024-10-11 20:24:47			0	38728	0	0	0	21571	20150	159417	27265	1055613	46300	107920	0	0	8251	536650	0	0
2024-10-11 20:25:47			0	38736	0	0	0	21573	20150	159433	27281	1055551	46289	107921	0	0	8251	536340	0	0
2024-10-11 20:26:47			0	38724	0	0	0	21568	20150	159460	27253	1055657	46300	107919	0	0	8251	536806	0	0
2024-10-11 20:27:47			0	38724	0	0	0	21571	20150	159496	27234	1055578	46289	107920	0	0	8251	536806	0	0
2024-10-11 20:28:47			0	38734	0	0	0	21576	20150	159441	27277	1055631	46289	107922	0	0	8251	536418	0	0
2024-10-11 20:29:47			0	38735	0	0	0	21579	20140	159425	27112	1055613	46277	107923	0	0	8251	536409	0	0
2024-10-11 20:30:47			0	38734	0	0	0	21576	20150	159485	27312	1055578	46300	107922	0	0	8251	536418	0	0
2024-10-11 20:31:47			0	38743	0	0	0	21576	20150	159541	27602	1055604	46300	107922	0	0	8252	536069	0	0
2024-10-11 20:32:47			0	38731	0	0	0	21571	20150	159485	27253	1055613	46289	107920	0	0	8251	536534	0	0
2024-10-11 20:33:47			0	38724	0	0	0	21581	20140	159572	27402	1055586	46298	107924	0	0	8250	536835	0	0
2024-10-11 20:34:47			0	38732	0	0	0	21576	20150	159453	27450	1055551	46300	107922	0	0	8251	536495	0	0
2024-10-11 20:35:47			0	38719	0	0	0	21576	20140	159536	27350	1055533	46288	107922	0	0	8250	537029	0	0
2024-10-11 20:36:47			0	38734	0	0	0	21571	20140	159417	27244	1055613	46298	107920	0	0	8251	536447	0	0
2024-10-11 20:37:47			0	38743	0	0	0	21576	20140	159465	27197	1055560	46298	107922	0	0	8252	536099	0	0
2024-10-11 20:38:47			0	38717	0	0	0	21576	20150	159484	27150	1055551	46300	107922	0	0	8250	537077	0	0
2024-10-11 20:39:47			0	38725	0	0	0	21571	20130	159565	26830	1055631	46297	107920	0	0	8251	536826	0	0
2024-10-11 20:40:47			0	38712	0	0	0	21563	20130	159580	27228	1055577	46287	107917	0	0	8250	537330	0	0
2024-10-11 20:41:47			0	38684	0	0	0	21555	20140	159608	27192	1055560	46288	107914	0	0	8249	538388	0	0
2024-10-11 20:42:47			0	38674	0	0	0	21566	20140	159692	27038	1055613	46288	107918	0	0	8248	538776	0	0
2024-10-11 20:43:47			0	38682	0	0	0	21561	20130	159676	27012	1055595	46287	107916	0	0	8248	538495	0	0
2024-10-11 20:44:47			0	38673	0	0	0	21558	20130	159728	27308	1055551	46297	107915	0	0	8248	538845	0	0
2024-10-11 20:45:47			0	38679	0	0	0	21563	20130	159680	27150	1055542	46287	107917	0	0	8248	538612	0	0
2024-10-11 20:46:47			0	38676	0	0	0	21545	20120	159680	26946	1055506	46297	107910	0	0	8248	538758	0	0
2024-10-11 20:47:47			0	38679	0	0	0	21548	20130	159676	27033	1055471	46287	107911	0	0	8248	538612	0	0
2024-10-11 20:48:47			0	38678	0	0	0	21555	20130	159752	26958	1055524	46287	107914	0	0	8248	538650	0	0
2024-10-11 20:49:47			0	38686	0	0	0	21561	20120	159804	27152	1055533	46297	107916	0	0	8248	538369	0	0
2024-10-11 20:50:47			0	38694	0	0	0	21568	20130	159700	27034	1055551	46297	107919	0	0	8249	538029	0	0
2024-10-11 20:51:47			0	38684	0	0	0	21568	20120	159700	26781	1055560	46287	107919	0	0	8248	538447	0	0
2024-10-11 20:52:47			0	38665	0	0	0	21561	20130	159740	26951	1055622	46309	107916	0	0	8247	539156	0	0
2024-10-11 20:53:47			0	38691	0	0	0	21555	20130	159688	27038	1055524	46297	107914	0	0	8249	538145	0	0
2024-10-11 20:54:47			0	38676	0	0	0	21561	20130	159756	27074	1055595	46287	107916	0	0	8248	538728	0	0
2024-10-11 20:55:47			0	38677	0	0	0	21555	20120	159776	27071	1055586	46265	107914	0	0	8248	538719	0	0
2024-10-11 20:56:47			0	38648	0	0	0	21561	20120	159688	27130	1055533	46287	107916	0	0	8246	539847	0	0
2024-10-11 20:57:47			0	38655	0	0	0	21548	20120	159780	27145	1055533	46297	107911	0	0	8247	539575	0	0
2024-10-11 20:58:47			0	38645	0	0	0	21553	20120	159720	27022	1055533	46309	107913	0	0	8246	539964	0	0
2024-10-11 20:59:47			0	38634	0	0	0	21553	20140	159752	26845	1055586	46298	107913	0	0	8246	540332	0	0
2024-10-11 21:00:47			0	38625	0	0	0	21550	20120	159756	27022	1055533	46287	107912	0	0	8245	540742	0	0
2024-10-11 21:01:47			0	38631	0	0	0	21548	20130	159836	27156	1055515	46276	107911	0	0	8246	540479	0	0
2024-10-11 21:02:47			0	38640	0	0	0	21553	20120	159888	26993	1055524	46297	107913	0	0	8246	540158	0	0
2024-10-11 21:03:47			0	38624	0	0	0	21542	20130	159984	27261	1055515	46287	107909	0	0	8245	540751	0	0
2024-10-11 21:04:47			0	38641	0	0	0	21542	20120	159860	26852	1055524	46297	107909	0	0	8246	540119	0	0
2024-10-11 21:05:47			0	38622	0	0	0	21542	20110	159940	26797	1055515	46296	107909	0	0	8245	540889	0	0
2024-10-11 21:06:47			0	38633	0	0	0	21540	20110	159964	27537	1055480	46285	107908	0	0	8246	540461	0	0
2024-10-11 21:07:47			0	38621	0	0	0	21542	20110	159988	27234	1055489	46296	107909	0	0	8245	540928	0	0
2024-10-11 21:08:47			0	38604	0	0	0	21535	20120	159952	27199	1055551	46297	107906	0	0	8244	541561	0	0
2024-10-11 21:09:47			0	38592	0	0	0	21537	20110	160096	27232	1055462	46274	107907	0	0	8243	542059	0	0
2024-10-11 21:10:47			0	38595	0	0	0	21529	20110	160136	27168	1055489	46307	107904	0	0	8244	541941	0	0
2024-10-11 21:11:47			0	38570	0	0	0	21540	20100	160224	27053	1055417	46294	107908	0	0	8242	542947	0	0
2024-10-11 21:12:47			0	38554	0	0	0	21535	20110	160300	27313	1055435	46296	107906	0	0	8241	543542	0	0
2024-10-11 21:13:47			0	38537	0	0	0	21535	20110	160360	27421	1055462	46296	107906	0	0	8240	544207	0	0
2024-10-11 21:14:47			0	38541	0	0	0	21529	20110	160384	27206	1055453	46285	107904	0	0	8241	544050	0	0
2024-10-11 21:15:47			0	38549	0	0	0	21529	20110	160296	27332	1055435	46296	107904	0	0	8241	543738	0	0
2024-10-11 21:16:47			0	38538	0	0	0	21522	20110	160384	27367	1055373	46285	107901	0	0	8240	544168	0	0
2024-10-11 21:17:47			0	38540	0	0	0	21529	20110	160364	27137	1055373	46274	107904	0	0	8240	544089	0	0
2024-10-11 21:18:47			0	38537	0	0	0	21524	20100	160204	27140	1055417	46273	107902	0	0	8240	544237	0	0
2024-10-11 21:19:47			0	38524	0	0	0	21514	20100	160360	27358	1055364	46284	107898	0	0	8240	544745	0	0
2024-10-11 21:20:47			0	38522	0	0	0	21509	20100	160436	27256	1055409	46284	107896	0	0	8240	544824	0	0
2024-10-11 21:21:47			0	38504	0	0	0	21511	20100	160488	26909	1055355	46284	107897	0	0	8239	545528	0	0
2024-10-11 21:22:47			0	38494	0	0	0	21514	20090	160508	27072	1055364	46293	107898	0	0	8238	545950	0	0
2024-10-11 21:23:47			0	38506	0	0	0	21503	20100	160476	27182	1055409	46273	107894	0	0	8239	545450	0	0
2024-10-11 21:24:47			0	38500	0	0	0	21498	20100	160500	26949	1055329	46284	107892	0	0	8239	545685	0	0
2024-10-11 21:25:47			0	38512	0	0	0	21506	20100	160424	27441	1055329	46294	107895	0	0	8239	545215	0	0
2024-10-11 21:26:47			0	38500	0	0	0	21503	20090	160388	27325	1055320	46283	107894	0	0	8238	545715	0	0
2024-10-11 21:27:47			0	38514	0	0	0	21501	20080	160400	27289	1055302	46282	107893	0	0	8239	545197	0	0
2024-10-11 21:28:47			0	38524	0	0	0	21493	20080	160320	27412	1055266	46292	107890	0	0	8240	544805	0	0
2024-10-11 21:29:47			0	38519	0	0	0	21490	20080	160300	27140	1055240	46282	107889	0	0	8240	545001	0	0
2024-10-11 21:30:47			0	38511	0	0	0	21488	20070	160368	27060	1055231	46281	107888	0	0	8239	545344	0	0
2024-10-11 21:31:47			0	38542	0	0	0	21485	20080	160316	27130	1055240	46282	107887	0	0	8241	544101	0	0
2024-10-11 21:32:47			0	38543	0	0	0	21490	20070	160364	27124	1055284	46281	107889	0	0	8241	544092	0	0
2024-10-11 21:33:47			0	38540	0	0	0	21490	20070	160260	27199	1055248	46291	107889	0	0	8241	544209	0	0
2024-10-11 21:34:47			0	38530	0	0	0	21485	20070	160356	27265	1055257	46281	107887	0	0	8240	544601	0	0
2024-10-11 21:35:47			0	38543	0	0	0	21480	20070	160368	26993	1055248	46281	107885	0	0	8241	544092	0	0
2024-10-11 21:36:47			0	38561	0	0	0	21490	20070	160228	27102	1055248	46281	107889	0	0	8242	543389	0	0
2024-10-11 21:37:47			0	38555	0	0	0	21480	20070	160184	26930	1055204	46259	107885	0	0	8242	543623	0	0
2024-10-11 21:38:47			0	38566	0	0	0	21477	20070	160180	27232	1055231	46291	107884	0	0	8243	543193	0	0
2024-10-11 21:39:47			0	38539	0	0	0	21475	20070	160260	26842	1055168	46291	107883	0	0	8241	544248	0	0
2024-10-11 21:40:47			0	38539	0	0	0	21480	20060	160376	27176	1055186	46280	107885	0	0	8241	544279	0	0
2024-10-11 21:41:47			0	38552	0	0	0	21485	20060	160380	27391	1055239	46280	107887	0	0	8242	543770	0	0
2024-10-11 21:42:47			0	38544	0	0	0	21483	20060	160200	26890	1055177	46290	107886	0	0	8241	544083	0	0
2024-10-11 21:43:47			0	38554	0	0	0	21480	20050	160264	27310	1055195	46279	107885	0	0	8242	543722	0	0
2024-10-11 21:44:47			0	38556	0	0	0	21485	20060	160348	27263	1055230	46279	107887	0	0	8242	543614	0	0
2024-10-11 21:45:47			0	38540	0	0	0	21472	20060	160460	27015	1055204	46290	107882	0	0	8241	544239	0	0
2024-10-11 21:46:47			0	38543	0	0	0	21477	20050	160328	27258	1055221	46279	107884	0	0	8241	544152	0	0
2024-10-11 21:47:47			0	38548	0	0	0	21480	20060	160420	26994	1055204	46279	107885	0	0	8242	543927	0	0
2024-10-11 21:48:47			0	38544	0	0	0	21477	20060	160412	27268	1055124	46290	107884	0	0	8241	544083	0	0
2024-10-11 21:49:47			0	38538	0	0	0	21475	20050	160380	27038	1055133	46289	107883	0	0	8241	544348	0	0
2024-10-11 21:50:47			0	38531	0	0	0	21472	20040	160328	27066	1055124	46289	107882	0	0	8241	544652	0	0
2024-10-11 21:51:47			0	38521	0	0	0	21477	20050	160360	27196	1055142	46279	107884	0	0	8240	545013	0	0
2024-10-11 21:52:47			0	38527	0	0	0	21477	20050	160336	27209	1055159	46300	107884	0	0	8240	544778	0	0
2024-10-11 21:53:47			0	38557	0	0	0	21480	20040	160452	27409	1055177	46289	107885	0	0	8242	543635	0	0
2024-10-11 21:54:47			0	38533	0	0	0	21472	20050	160444	27085	1055212	46278	107882	0	0	8241	544543	0	0
2024-10-11 21:55:47			0	38525	0	0	0	21475	20050	160564	27248	1055186	46278	107883	0	0	8240	544856	0	0
2024-10-11 21:56:47			0	38538	0	0	0	21480	20050	160460	27267	1055186	46278	107885	0	0	8241	544348	0	0
2024-10-11 21:57:47			0	38550	0	0	0	21480	20050	160444	27286	1055159	46278	107885	0	0	8242	543878	0	0
2024-10-11 21:58:47			0	38532	0	0	0	21472	20040	160432	27109	1055204	46278	107882	0	0	8241	544612	0	0
2024-10-11 21:59:47			0	38536	0	0	0	21472	20040	160476	27140	1055204	46278	107882	0	0	8241	544456	0	0
2024-10-11 22:00:47			0	38544	0	0	0	21464	20040	160364	27057	1055177	46289	107879	0	0	8241	544143	0	0
2024-10-11 22:01:47			0	38520	0	0	0	21464	20040	160520	27244	1055204	46289	107879	0	0	8240	545082	0	0
2024-10-11 22:02:47			0	38507	0	0	0	21457	20030	160484	27189	1055159	46288	107876	0	0	8239	545621	0	0
2024-10-11 22:03:47			0	38510	0	0	0	21470	20040	160408	26894	1055088	46277	107881	0	0	8239	545474	0	0
2024-10-11 22:04:47			0	38510	0	0	0	21470	20040	160480	26842	1055150	46289	107881	0	0	8239	545474	0	0
2024-10-11 22:05:47			0	38513	0	0	0	21464	20030	160484	27163	1055106	46288	107879	0	0	8240	545386	0	0
2024-10-11 22:06:47			0	38518	0	0	0	21470	20040	160388	27199	1055097	46289	107881	0	0	8240	545160	0	0
2024-10-11 22:07:47			0	38498	0	0	0	21472	20050	160400	26845	1055133	46289	107882	0	0	8239	545914	0	0
2024-10-11 22:08:47			0	38501	0	0	0	21467	20040	160516	26847	1055150	46289	107880	0	0	8239	545826	0	0
2024-10-11 22:09:47			0	38510	0	0	0	21467	20050	160424	26941	1055133	46278	107880	0	0	8240	545444	0	0
2024-10-11 22:10:47			0	38511	0	0	0	21475	20040	160488	26909	1055097	46300	107883	0	0	8239	545434	0	0
2024-10-11 22:11:47			0	38519	0	0	0	21475	20040	160524	27279	1055177	46289	107883	0	0	8240	545121	0	0
2024-10-11 22:12:47			0	38518	0	0	0	21462	20040	160464	27289	1055177	46278	107878	0	0	8240	545160	0	0
2024-10-11 22:13:47			0	38515	0	0	0	21462	20040	160488	27157	1055150	46289	107878	0	0	8240	545278	0	0
2024-10-11 22:14:47			0	38516	0	0	0	21459	20040	160480	26894	1055124	46267	107877	0	0	8240	545239	0	0
2024-10-11 22:15:47			0	38531	0	0	0	21462	20040	160444	27085	1055141	46299	107878	0	0	8241	544652	0	0
2024-10-11 22:16:47			0	38493	0	0	0	21459	20030	160588	26908	1055124	46287	107877	0	0	8239	546170	0	0
2024-10-11 22:17:47			0	38508	0	0	0	21459	20030	160580	26844	1055106	46277	107877	0	0	8239	545582	0	0
2024-10-11 22:18:47			0	38497	0	0	0	21449	20040	160540	27282	1055141	46288	107873	0	0	8239	545983	0	0
2024-10-11 22:19:47			0	38504	0	0	0	21454	20040	160472	27319	1055115	46288	107875	0	0	8239	545709	0	0
2024-10-11 22:20:47			0	38484	0	0	0	21454	20040	160612	26961	1055115	46288	107875	0	0	8238	546492	0	0
2024-10-11 22:21:47			0	38474	0	0	0	21449	20030	160620	27005	1055079	46277	107873	0	0	8238	546915	0	0
2024-10-11 22:22:47			0	38479	0	0	0	21451	20030	160720	27086	1055044	46265	107874	0	0	8238	546719	0	0
2024-10-11 22:23:47			0	38477	0	0	0	21433	20030	160532	26857	1055017	46254	107867	0	0	8238	546797	0	0
2024-10-11 22:24:47			0	38463	0	0	0	21438	20030	160712	26953	1055097	46265	107869	0	0	8237	547347	0	0
2024-10-11 22:25:47			0	38440	0	0	0	21428	20030	160668	27017	1055026	46277	107865	0	0	8236	548250	0	0
2024-10-11 22:26:47			0	38441	0	0	0	21428	20020	160664	26875	1054999	46286	107865	0	0	8236	548241	0	0
2024-10-11 22:27:47			0	38447	0	0	0	21433	20030	160732	26665	1055044	46254	107867	0	0	8236	547975	0	0
2024-10-11 22:28:47			0	38437	0	0	0	21433	20020	160724	26994	1054973	46275	107867	0	0	8236	548398	0	0
2024-10-11 22:29:47			0	38440	0	0	0	21446	20020	160784	26932	1055035	46265	107872	0	0	8236	548280	0	0
2024-10-11 22:30:47			0	38447	0	0	0	21441	20020	160804	27133	1055079	46275	107870	0	0	8236	548005	0	0
2024-10-11 22:31:47			0	38456	0	0	0	21438	20020	160744	27020	1055008	46265	107869	0	0	8237	547651	0	0
2024-10-11 22:32:47			0	38442	0	0	0	21444	20010	160856	27111	1054911	46286	107871	0	0	8236	548232	0	0
2024-10-11 22:33:47			0	38439	0	0	0	21441	20020	160728	27209	1055053	46275	107870	0	0	8236	548319	0	0
2024-10-11 22:34:47			0	38451	0	0	0	21449	20000	160844	27149	1055026	46285	107873	0	0	8236	547908	0	0
2024-10-11 22:35:47			0	38437	0	0	0	21436	20000	160788	26972	1054973	46285	107868	0	0	8236	548458	0	0
2024-10-11 22:36:47			0	38450	0	0	0	21431	20020	160900	27293	1054999	46297	107866	0	0	8236	547887	0	0
2024-10-11 22:37:47			0	38425	0	0	0	21436	20010	160816	26859	1055044	46286	107868	0	0	8235	548900	0	0
2024-10-11 22:38:47			0	38402	0	0	0	21436	20010	160856	27308	1054981	46274	107868	0	0	8234	549804	0	0
2024-10-11 22:39:47			0	38417	0	0	0	21428	20010	160836	27150	1055044	46286	107865	0	0	8235	549214	0	0
2024-10-11 22:40:47			0	38411	0	0	0	21431	20010	160848	26769	1054937	46286	107866	0	0	8234	549450	0	0
2024-10-11 22:41:47			0	38418	0	0	0	21438	20010	160956	27208	1055008	46263	107869	0	0	8234	549175	0	0
2024-10-11 22:42:47			0	38409	0	0	0	21425	20010	160936	27098	1055008	46263	107864	0	0	8234	549529	0	0
2024-10-11 22:43:47			0	38407	0	0	0	21423	20010	160912	26975	1054928	46274	107863	0	0	8234	549608	0	0
2024-10-11 22:44:47			0	38415	0	0	0	21431	20010	161032	26902	1054990	46275	107866	0	0	8234	549293	0	0
2024-10-11 22:45:47			0	38381	0	0	0	21412	20010	160884	27168	1054902	46285	107859	0	0	8233	550631	0	0
2024-10-11 22:46:47			0	38378	0	0	0	21418	20010	161068	27072	1054990	46286	107861	0	0	8232	550750	0	0
2024-10-11 22:47:47			0	38379	0	0	0	21420	20010	161080	27154	1054902	46285	107862	0	0	8232	550710	0	0
2024-10-11 22:48:47			0	38385	0	0	0	21423	20000	161048	27263	1054910	46295	107863	0	0	8233	550504	0	0
2024-10-11 22:49:47			0	38385	0	0	0	21420	20000	160980	27156	1054910	46273	107862	0	0	8233	550504	0	0
2024-10-11 22:50:47			0	38377	0	0	0	21415	20000	161072	27274	1054973	46285	107860	0	0	8232	550819	0	0
2024-10-11 22:51:47			0	38380	0	0	0	21418	20000	161004	27377	1054964	46273	107861	0	0	8233	550701	0	0
2024-10-11 22:52:47			0	38363	0	0	0	21425	20000	161072	27301	1054937	46295	107864	0	0	8231	551371	0	0
2024-10-11 22:53:47			0	38372	0	0	0	21420	20000	161100	27064	1054910	46273	107862	0	0	8232	551016	0	0
2024-10-11 22:54:47			0	38366	0	0	0	21420	20000	161064	27244	1054964	46273	107862	0	0	8232	551253	0	0
2024-10-11 22:55:47			0	38373	0	0	0	21420	20000	161128	27008	1054937	46284	107862	0	0	8232	550977	0	0
2024-10-11 22:56:47			0	38373	0	0	0	21428	20000	161204	27111	1054893	46263	107865	0	0	8232	550977	0	0
2024-10-11 22:57:47			0	38370	0	0	0	21425	20000	161148	27001	1054910	46284	107864	0	0	8232	551095	0	0
2024-10-11 22:58:47			0	38348	0	0	0	21415	20000	161248	27123	1054990	46273	107860	0	0	8231	551963	0	0
2024-10-11 22:59:47			0	38341	0	0	0	21407	20000	161288	27020	1054893	46274	107857	0	0	8230	552239	0	0
2024-10-11 23:00:47			0	38317	0	0	0	21407	20000	161316	26974	1054910	46273	107857	0	0	8229	553187	0	0
2024-10-11 23:01:47			0	38314	0	0	0	21412	20000	161144	27034	1054884	46251	107859	0	0	8229	553305	0	0
2024-10-11 23:02:47			0	38333	0	0	0	21407	20000	161156	27486	1054910	46284	107857	0	0	8230	552555	0	0
2024-10-11 23:03:47			0	38336	0	0	0	21418	19990	161244	27229	1054839	46272	107861	0	0	8230	552467	0	0
2024-10-11 23:04:47			0	38319	0	0	0	21410	19980	161312	26955	1054910	46272	107858	0	0	8229	553169	0	0
2024-10-11 23:05:47			0	38300	0	0	0	21410	19990	161316	27012	1054866	46272	107858	0	0	8228	553889	0	0
2024-10-11 23:06:47			0	38308	0	0	0	21410	19990	161312	26774	1054848	46272	107858	0	0	8228	553573	0	0
2024-10-11 23:07:47			0	38305	0	0	0	21397	19990	161220	27312	1054901	46272	107853	0	0	8228	553691	0	0
2024-10-11 23:08:47			0	38293	0	0	0	21402	19990	161284	27017	1054893	46272	107855	0	0	8228	554166	0	0
2024-10-11 23:09:47			0	38297	0	0	0	21399	19990	161440	27372	1054839	46261	107854	0	0	8228	554008	0	0
2024-10-11 23:10:47			0	38290	0	0	0	21402	19990	161384	27235	1054875	46283	107855	0	0	8227	554285	0	0
2024-10-11 23:11:47			0	38295	0	0	0	21402	19980	161416	27267	1054830	46261	107855	0	0	8228	554118	0	0
2024-10-11 23:12:47			0	38290	0	0	0	21415	19990	161396	27339	1054893	46261	107860	0	0	8227	554285	0	0
2024-10-11 23:13:47			0	38290	0	0	0	21415	19980	161524	27291	1054857	46283	107860	0	0	8227	554315	0	0
2024-10-11 23:14:47			0	38275	0	0	0	21405	19980	161404	27409	1054875	46282	107856	0	0	8226	554909	0	0
2024-10-11 23:15:47			0	38280	0	0	0	21410	19980	161364	27308	1054884	46261	107858	0	0	8227	554711	0	0
2024-10-11 23:16:47			0	38278	0	0	0	21407	19980	161412	27043	1054804	46283	107857	0	0	8227	554790	0	0
2024-10-11 23:17:47			0	38295	0	0	0	21407	19980	161356	27036	1054857	46283	107857	0	0	8228	554118	0	0
2024-10-11 23:18:47			0	38277	0	0	0	21407	19990	161308	27329	1054839	46283	107857	0	0	8227	554799	0	0
2024-10-11 23:19:47			0	38274	0	0	0	21407	19980	161436	27130	1054804	46272	107857	0	0	8226	554948	0	0
2024-10-11 23:20:47			0	38277	0	0	0	21410	19980	161384	27227	1054804	46261	107858	0	0	8227	554830	0	0
2024-10-11 23:21:47			0	38279	0	0	0	21412	19980	161324	27289	1054848	46271	107859	0	0	8227	554751	0	0
2024-10-11 23:22:47			0	38261	0	0	0	21410	19970	161488	26828	1054803	46281	107858	0	0	8226	555494	0	0
2024-10-11 23:23:47			0	38287	0	0	0	21418	19970	161380	27192	1054750	46281	107861	0	0	8227	554465	0	0
2024-10-11 23:24:47			0	38303	0	0	0	21418	19980	161332	27112	1054875	46282	107861	0	0	8228	553801	0	0
2024-10-11 23:25:47			0	38292	0	0	0	21407	19980	161444	26863	1054884	46250	107857	0	0	8227	554236	0	0
2024-10-11 23:26:47			0	38298	0	0	0	21410	19990	161328	27029	1054893	46283	107858	0	0	8228	553968	0	0
2024-10-11 23:27:47			0	38286	0	0	0	21420	19970	161416	27017	1054866	46281	107862	0	0	8227	554504	0	0
2024-10-11 23:28:47			0	38278	0	0	0	21399	19980	161324	27239	1054830	46283	107854	0	0	8227	554790	0	0
2024-10-11 23:29:47			0	38249	0	0	0	21399	19990	161416	27222	1054866	46261	107854	0	0	8225	555908	0	0
2024-10-11 23:30:47			0	38236	0	0	0	21405	19970	161412	27235	1054839	46281	107856	0	0	8224	556485	0	0
2024-10-11 23:31:47			0	38241	0	0	0	21407	19980	161540	27298	1054848	46271	107857	0	0	8224	556256	0	0
2024-10-11 23:32:47			0	38244	0	0	0	21402	19980	161584	27208	1054822	46282	107855	0	0	8225	556137	0	0
2024-10-11 23:33:47			0	38217	0	0	0	21402	19980	161604	27206	1054848	46271	107855	0	0	8223	557208	0	0
2024-10-11 23:34:47			0	38227	0	0	0	21397	19970	161636	27029	1054856	46259	107853	0	0	8224	556842	0	0
2024-10-11 23:35:47			0	38221	0	0	0	21376	19980	161592	27222	1054830	46272	107845	0	0	8224	557049	0	0
2024-10-11 23:36:47			0	38223	0	0	0	21389	19970	161568	26870	1054803	46270	107850	0	0	8224	557000	0	0
2024-10-11 23:37:47			0	38228	0	0	0	21389	19980	161556	27208	1054848	46271	107850	0	0	8224	556771	0	0
2024-10-11 23:38:47			0	38216	0	0	0	21389	19980	161632	26920	1054822	46282	107850	0	0	8223	557247	0	0
2024-10-11 23:39:47			0	38210	0	0	0	21392	19970	161604	27041	1054777	46270	107851	0	0	8223	557516	0	0
2024-10-11 23:40:47			0	38202	0	0	0	21379	19980	161760	27003	1054742	46282	107846	0	0	8223	557803	0	0
2024-10-11 23:41:47			0	38189	0	0	0	21384	19970	161740	27111	1054777	46270	107848	0	0	8222	558351	0	0
2024-10-11 23:42:47			0	38170	0	0	0	21392	19960	161788	27033	1054768	46269	107851	0	0	8220	559137	0	0
2024-10-11 23:43:47			0	38162	0	0	0	21389	19970	161764	27057	1054750	46281	107850	0	0	8220	559424	0	0
2024-10-11 23:44:47			0	38179	0	0	0	21386	19960	161740	27031	1054768	46269	107849	0	0	8221	558779	0	0
2024-10-11 23:45:47			0	38175	0	0	0	21389	19960	161712	27438	1054768	46269	107850	0	0	8221	558938	0	0
2024-10-11 23:46:47			0	38187	0	0	0	21392	19970	161820	27338	1054813	46281	107851	0	0	8222	558430	0	0
2024-10-11 23:47:47			0	38178	0	0	0	21397	19960	161856	27357	1054794	46280	107853	0	0	8221	558818	0	0
2024-10-11 23:48:47			0	38159	0	0	0	21384	19970	161936	27020	1054724	46270	107848	0	0	8220	559544	0	0
2024-10-11 23:49:47			0	38180	0	0	0	21384	19970	161856	27027	1054777	46281	107848	0	0	8221	558708	0	0
2024-10-11 23:50:47			0	38164	0	0	0	21384	19950	161852	27523	1054759	46280	107848	0	0	8220	559406	0	0
2024-10-11 23:51:47			0	38159	0	0	0	21381	19960	161832	27341	1054768	46258	107847	0	0	8220	559574	0	0
2024-10-11 23:52:47			0	38150	0	0	0	21376	19950	161944	27441	1054785	46269	107845	0	0	8220	559963	0	0
2024-10-11 23:53:47			0	38139	0	0	0	21389	19950	161972	27239	1054697	46268	107850	0	0	8219	560401	0	0
2024-10-11 23:54:47			0	38168	0	0	0	21384	19950	161928	27246	1054812	46258	107848	0	0	8220	559247	0	0
2024-10-11 23:55:47			0	38160	0	0	0	21374	19950	161856	27357	1054670	46279	107844	0	0	8220	559565	0	0
2024-10-11 23:56:47			0	38178	0	0	0	21368	19950	161808	27251	1054785	46269	107842	0	0	8221	558849	0	0
2024-10-11 23:57:47			0	38183	0	0	0	21376	19950	161756	27332	1054697	46268	107845	0	0	8221	558651	0	0
2024-10-11 23:58:47			0	38165	0	0	0	21381	19950	161812	27178	1054697	46268	107847	0	0	8220	559366	0	0
2024-10-11 23:59:47			0	38180	0	0	0	21384	19950	161864	27206	1054776	46257	107848	0	0	8221	558770	0	0
2024-10-12 00:00:47			0	38179	0	0	0	21384	19940	161752	26984	1054714	46279	107848	0	0	8221	558840	0	0
2024-10-12 00:01:47			0	38168	0	0	0	21381	19950	161880	27057	1054653	46280	107847	0	0	8220	559247	0	0
2024-10-12 00:02:47			0	38167	0	0	0	21392	19960	161768	27078	1054688	46280	107851	0	0	8220	559256	0	0
2024-10-12 00:03:47			0	38193	0	0	0	21389	19960	161864	27246	1054794	46280	107850	0	0	8222	558222	0	0
2024-10-12 00:04:47			0	38187	0	0	0	21392	19950	161844	27034	1054759	46280	107851	0	0	8221	558492	0	0
2024-10-12 00:05:47			0	38180	0	0	0	21389	19950	161920	27071	1054759	46269	107850	0	0	8221	558770	0	0
2024-10-12 00:06:47			0	38183	0	0	0	21392	19950	161896	27284	1054785	46269	107851	0	0	8221	558651	0	0
2024-10-12 00:07:47			0	38185	0	0	0	21392	19970	161772	27227	1054777	46270	107851	0	0	8221	558509	0	0
2024-10-12 00:08:47			0	38198	0	0	0	21407	19950	161740	27284	1054697	46290	107857	0	0	8222	558054	0	0
2024-10-12 00:09:47			0	38193	0	0	0	21394	19950	161684	27142	1054785	46280	107852	0	0	8222	558253	0	0
2024-10-12 00:10:47			0	38193	0	0	0	21379	19960	161720	27272	1054794	46280	107846	0	0	8222	558222	0	0
2024-10-12 00:11:47			0	38189	0	0	0	21363	19950	161728	27202	1054679	46280	107840	0	0	8222	558412	0	0
2024-10-12 00:12:47			0	38188	0	0	0	21366	19950	161752	27379	1054759	46269	107841	0	0	8222	558452	0	0
2024-10-12 00:13:47			0	38189	0	0	0	21363	19950	161728	27443	1054706	46258	107840	0	0	8222	558412	0	0
2024-10-12 00:14:47			0	38184	0	0	0	21381	19950	161688	27253	1054750	46268	107847	0	0	8221	558611	0	0
2024-10-12 00:15:47			0	38199	0	0	0	21389	19940	161792	27346	1054768	46279	107850	0	0	8222	558045	0	0
2024-10-12 00:16:47			0	38186	0	0	0	21374	19940	161796	27416	1054741	46268	107844	0	0	8222	558562	0	0
2024-10-12 00:17:47			0	38188	0	0	0	21394	19950	161816	27166	1054750	46257	107852	0	0	8221	558452	0	0
2024-10-12 00:18:47			0	38184	0	0	0	21389	19950	161704	27235	1054706	46280	107850	0	0	8221	558611	0	0
2024-10-12 00:19:47			0	38174	0	0	0	21355	19950	161784	27081	1054732	46280	107837	0	0	8221	559008	0	0
2024-10-12 00:20:47			0	38187	0	0	0	21374	19950	161924	27369	1054759	46258	107844	0	0	8222	558492	0	0
2024-10-12 00:21:47			0	38177	0	0	0	21394	19950	161860	27398	1054750	46257	107852	0	0	8221	558889	0	0
2024-10-12 00:22:47			0	38176	0	0	0	21358	19940	161780	27227	1054652	46267	107838	0	0	8221	558960	0	0
2024-10-12 00:23:47			0	38157	0	0	0	21319	19940	161800	27234	1054688	46257	107823	0	0	8221	559716	0	0
2024-10-12 00:24:47			0	38161	0	0	0	21324	19940	161860	27168	1054768	46247	107825	0	0	8221	559556	0	0
2024-10-12 00:25:47			0	38125	0	0	0	21322	19930	161932	27329	1054555	46255	107824	0	0	8219	561021	0	0
2024-10-12 00:26:47			0	38145	0	0	0	21337	19930	162072	27317	1054581	46255	107830	0	0	8220	560224	0	0
2024-10-12 00:27:47			0	38134	0	0	0	21340	19930	161976	27234	1054581	46255	107831	0	0	8219	560663	0	0
2024-10-12 00:28:47			0	38137	0	0	0	21332	19930	162000	27289	1054537	46267	107828	0	0	8219	560543	0	0
2024-10-12 00:29:47			0	38138	0	0	0	21340	19920	162004	27329	1054572	46265	107831	0	0	8219	560534	0	0
2024-10-12 00:30:47			0	38126	0	0	0	21358	19920	161912	26991	1054510	46244	107838	0	0	8218	561012	0	0
2024-10-12 00:31:47			0	38143	0	0	0	21361	19920	161816	27048	1054563	46265	107839	0	0	8219	560335	0	0
2024-10-12 00:32:47			0	38149	0	0	0	21374	19910	161840	27267	1054581	46265	107844	0	0	8219	560127	0	0
2024-10-12 00:33:47			0	38175	0	0	0	21368	19920	161856	27092	1054625	46276	107842	0	0	8221	559061	0	0
2024-10-12 00:34:47			0	38185	0	0	0	21374	19930	161896	27220	1054581	46277	107844	0	0	8222	558633	0	0
2024-10-12 00:35:47			0	38163	0	0	0	21371	19930	161848	27182	1054634	46277	107843	0	0	8220	559508	0	0
2024-10-12 00:36:47			0	38162	0	0	0	21371	19920	161940	27251	1054652	46265	107843	0	0	8220	559578	0	0
2024-10-12 00:37:47			0	38169	0	0	0	21355	19920	162108	27364	1054625	46276	107837	0	0	8221	559300	0	0
2024-10-12 00:38:47			0	38151	0	0	0	21348	19920	162024	27071	1054643	46276	107834	0	0	8220	560016	0	0
2024-10-12 00:39:47			0	38148	0	0	0	21348	19930	162044	26883	1054608	46266	107834	0	0	8220	560105	0	0
2024-10-12 00:40:47			0	38121	0	0	0	21342	19930	162004	26849	1054617	46267	107832	0	0	8218	561181	0	0
2024-10-12 00:41:47			0	38142	0	0	0	21348	19920	162148	27196	1054537	46276	107834	0	0	8219	560375	0	0
2024-10-12 00:42:47			0	38097	0	0	0	21348	19930	162148	26987	1054555	46266	107834	0	0	8217	562138	0	0
2024-10-12 00:43:47			0	38092	0	0	0	21353	19930	162264	26915	1054581	46255	107836	0	0	8216	562338	0	0
2024-10-12 00:44:47			0	38103	0	0	0	21345	19930	162176	27287	1054564	46267	107833	0	0	8217	561899	0	0
2024-10-12 00:45:47			0	38106	0	0	0	21345	19920	162064	27443	1054599	46265	107833	0	0	8217	561810	0	0
2024-10-12 00:46:47			0	38125	0	0	0	21335	19920	162080	27320	1054563	46287	107829	0	0	8219	561052	0	0
2024-10-12 00:47:47			0	38100	0	0	0	21316	19920	162240	27293	1054484	46254	107822	0	0	8217	562049	0	0
2024-10-12 00:48:47			0	38101	0	0	0	21316	19910	162208	27066	1054528	46254	107822	0	0	8217	562040	0	0
2024-10-12 00:49:47			0	38107	0	0	0	21332	19910	162184	26984	1054448	46276	107828	0	0	8218	561801	0	0
2024-10-12 00:50:47			0	38083	0	0	0	21322	19910	162304	27279	1054519	46264	107824	0	0	8216	562759	0	0
2024-10-12 00:51:47			0	38086	0	0	0	21322	19910	162200	27282	1054475	46254	107824	0	0	8216	562639	0	0
2024-10-12 00:52:47			0	38102	0	0	0	21319	19900	162200	27486	1054483	46263	107823	0	0	8217	562031	0	0
2024-10-12 00:53:47			0	38093	0	0	0	21311	19900	162268	27421	1054537	46242	107820	0	0	8217	562391	0	0
2024-10-12 00:54:47			0	38090	0	0	0	21322	19900	162212	27538	1054501	46274	107824	0	0	8217	562510	0	0
2024-10-12 00:55:47			0	38077	0	0	0	21319	19900	162256	26965	1054395	46263	107823	0	0	8216	563030	0	0
2024-10-12 00:56:47			0	38097	0	0	0	21316	19890	162236	27102	1054439	46263	107822	0	0	8217	562262	0	0
2024-10-12 00:57:47			0	38087	0	0	0	21314	19890	162228	27419	1054430	46273	107821	0	0	8217	562661	0	0
2024-10-12 00:58:47			0	38084	0	0	0	21319	19900	162220	27526	1054457	46263	107823	0	0	8216	562750	0	0
2024-10-12 00:59:47			0	38073	0	0	0	21319	19900	162204	27097	1054475	46274	107823	0	0	8216	563189	0	0
2024-10-12 01:00:47			0	38072	0	0	0	21319	19890	162380	27396	1054404	46273	107823	0	0	8216	563260	0	0
2024-10-12 01:01:47			0	38071	0	0	0	21319	19890	162368	27358	1054439	46263	107823	0	0	8216	563300	0	0
2024-10-12 01:02:47			0	38066	0	0	0	21324	19900	162244	27171	1054528	46274	107825	0	0	8215	563469	0	0
2024-10-12 01:03:47			0	38054	0	0	0	21322	19890	162344	26984	1054430	46241	107824	0	0	8215	563980	0	0
2024-10-12 01:04:47			0	38066	0	0	0	21324	19900	162332	27123	1054501	46263	107825	0	0	8215	563469	0	0
2024-10-12 01:05:47			0	38067	0	0	0	21319	19890	162352	27343	1054439	46252	107823	0	0	8215	563460	0	0
2024-10-12 01:06:47			0	38073	0	0	0	21306	19900	162296	27229	1054475	46263	107818	0	0	8216	563189	0	0
2024-10-12 01:07:47			0	38089	0	0	0	21311	19890	162348	27081	1054439	46263	107820	0	0	8217	562581	0	0
2024-10-12 01:08:47			0	38061	0	0	0	21322	19900	162200	26935	1054421	46263	107824	0	0	8215	563669	0	0
2024-10-12 01:09:47			0	38059	0	0	0	21324	19880	162288	27164	1054421	46272	107825	0	0	8215	563811	0	0
2024-10-12 01:10:47			0	38071	0	0	0	21324	19890	162252	27157	1054466	46263	107825	0	0	8215	563300	0	0
2024-10-12 01:11:47			0	38059	0	0	0	21337	19900	162236	27033	1054448	46263	107830	0	0	8215	563749	0	0
2024-10-12 01:12:47			0	38065	0	0	0	21337	19890	162372	27377	1054439	46252	107830	0	0	8215	563540	0	0
2024-10-12 01:13:47			0	38062	0	0	0	21329	19900	162348	27017	1054421	46274	107827	0	0	8215	563629	0	0
2024-10-12 01:14:47			0	38041	0	0	0	21337	19900	162324	26927	1054421	46263	107830	0	0	8214	564469	0	0
2024-10-12 01:15:47			0	38064	0	0	0	21335	19890	162344	27306	1054466	46274	107829	0	0	8215	563580	0	0
2024-10-12 01:16:47			0	38046	0	0	0	21324	19890	162456	27386	1054492	46285	107825	0	0	8214	564300	0	0
2024-10-12 01:17:47			0	38038	0	0	0	21335	19890	162480	26982	1054519	46274	107829	0	0	8213	564620	0	0
2024-10-12 01:18:47			0	38047	0	0	0	21335	19890	162452	27206	1054519	46263	107829	0	0	8214	564260	0	0
2024-10-12 01:19:47			0	38043	0	0	0	21335	19890	162412	27116	1054545	46263	107829	0	0	8214	564420	0	0
2024-10-12 01:20:47			0	38032	0	0	0	21332	19900	162528	26814	1054510	46274	107828	0	0	8213	564829	0	0
2024-10-12 01:21:47			0	38034	0	0	0	21329	19890	162492	27097	1054430	46262	107827	0	0	8213	564780	0	0
2024-10-12 01:22:47			0	38029	0	0	0	21327	19890	162524	27024	1054492	46274	107826	0	0	8213	564981	0	0
2024-10-12 01:23:47			0	38026	0	0	0	21319	19900	162496	27107	1054475	46252	107823	0	0	8213	565069	0	0
2024-10-12 01:24:47			0	38036	0	0	0	21311	19900	162468	27178	1054395	46263	107820	0	0	8214	564669	0	0
2024-10-12 01:25:47			0	38028	0	0	0	21272	19890	162451	27204	1054439	46252	107805	0	0	8214	565021	0	0
2024-10-12 01:26:47			0	38045	0	0	0	21290	19890	162428	26941	1054439	46263	107812	0	0	8215	564340	0	0
2024-10-12 01:27:47			0	38054	0	0	0	21285	19900	162400	27066	1054368	46252	107810	0	0	8215	563949	0	0
2024-10-12 01:28:47			0	38056	0	0	0	21293	19890	162432	27121	1054350	46251	107813	0	0	8215	563900	0	0
2024-10-12 01:29:47			0	38048	0	0	0	21301	19880	162464	26883	1054315	46250	107816	0	0	8214	564251	0	0
2024-10-12 01:30:47			0	38036	0	0	0	21288	19880	162372	27098	1054315	46250	107811	0	0	8214	564731	0	0
2024-10-12 01:31:47			0	38053	0	0	0	21290	19870	162432	27251	1054350	46261	107812	0	0	8215	564082	0	0
2024-10-12 01:32:47			0	38037	0	0	0	21293	19880	162400	27350	1054359	46250	107813	0	0	8214	564691	0	0
2024-10-12 01:33:47			0	38037	0	0	0	21288	19880	162504	27256	1054359	46261	107811	0	0	8214	564691	0	0
2024-10-12 01:34:47			0	38028	0	0	0	21288	19870	162548	27272	1054377	46261	107811	0	0	8213	565083	0	0
2024-10-12 01:35:47			0	38021	0	0	0	21275	19870	162483	27034	1054377	46250	107806	0	0	8213	565363	0	0
2024-10-12 01:36:47			0	38022	0	0	0	21277	19860	162608	27166	1054253	46249	107807	0	0	8213	565354	0	0
2024-10-12 01:37:47			0	38016	0	0	0	21267	19860	162567	27192	1054332	46259	107803	0	0	8213	565595	0	0
2024-10-12 01:38:47			0	38016	0	0	0	21267	19860	162583	27152	1054279	46249	107803	0	0	8213	565595	0	0
2024-10-12 01:39:47			0	38016	0	0	0	21270	19860	162591	27062	1054297	46258	107804	0	0	8213	565595	0	0
2024-10-12 01:40:47			0	37992	0	0	0	21272	19860	162711	26972	1054199	46259	107805	0	0	8212	566557	0	0
2024-10-12 01:41:47			0	37996	0	0	0	21264	19850	162595	27393	1054235	46248	107802	0	0	8212	566428	0	0
2024-10-12 01:42:47			0	38006	0	0	0	21264	19850	162627	27201	1054182	46248	107802	0	0	8212	566027	0	0
2024-10-12 01:43:47			0	37998	0	0	0	21277	19860	162723	27109	1054270	46258	107807	0	0	8212	566316	0	0
2024-10-12 01:44:47			0	37989	0	0	0	21277	19850	162735	27124	1054288	46237	107807	0	0	8211	566709	0	0
2024-10-12 01:45:47			0	37977	0	0	0	21275	19850	162767	26727	1054279	46269	107806	0	0	8211	567190	0	0
2024-10-12 01:46:47			0	37982	0	0	0	21264	19850	162759	26731	1054252	46269	107802	0	0	8211	566989	0	0
2024-10-12 01:47:47			0	37971	0	0	0	21270	19850	162763	27296	1054208	46258	107804	0	0	8210	567431	0	0
2024-10-12 01:48:47			0	37964	0	0	0	21277	19850	162727	27263	1054226	46248	107807	0	0	8210	567712	0	0
2024-10-12 01:49:47			0	37964	0	0	0	21280	19850	162891	27033	1054252	46258	107808	0	0	8210	567712	0	0
2024-10-12 01:50:47			0	37942	0	0	0	21283	19850	162883	26963	1054288	46269	107809	0	0	8208	568596	0	0
2024-10-12 01:51:47			0	37964	0	0	0	21290	19840	162935	27377	1054270	46268	107812	0	0	8210	567743	0	0
2024-10-12 01:52:47			0	37931	0	0	0	21293	19850	163059	27053	1054279	46258	107813	0	0	8208	569039	0	0
2024-10-12 01:53:47			0	37932	0	0	0	21290	19860	163063	26863	1054323	46258	107812	0	0	8208	568967	0	0
2024-10-12 01:54:47			0	37909	0	0	0	21290	19840	163003	27357	1054297	46257	107812	0	0	8206	569955	0	0
2024-10-12 01:55:47			0	37927	0	0	0	21277	19850	162995	27166	1054341	46269	107807	0	0	8208	569199	0	0
2024-10-12 01:56:47			0	37927	0	0	0	21277	19850	162999	27409	1054252	46258	107807	0	0	8208	569199	0	0
2024-10-12 01:57:47			0	37915	0	0	0	21288	19850	162995	27211	1054235	46248	107811	0	0	8207	569682	0	0
2024-10-12 01:58:47			0	37914	0	0	0	21290	19850	162931	27383	1054261	46258	107812	0	0	8207	569723	0	0
2024-10-12 01:59:47			0	37908	0	0	0	21293	19850	163047	26856	1054252	46269	107813	0	0	8206	569964	0	0
2024-10-12 02:00:47			0	37932	0	0	0	21283	19860	162991	27230	1054270	46258	107809	0	0	8208	568967	0	0
2024-10-12 02:01:47			0	37922	0	0	0	21285	19860	162927	27149	1054385	46270	107810	0	0	8207	569369	0	0
2024-10-12 02:02:47			0	37944	0	0	0	21283	19850	162891	26807	1054252	46258	107809	0	0	8208	568516	0	0
2024-10-12 02:03:47			0	37940	0	0	0	21283	19840	162775	27294	1054217	46257	107809	0	0	8208	568708	0	0
2024-10-12 02:04:47			0	37941	0	0	0	21283	19860	162831	27097	1054270	46225	107809	0	0	8208	568605	0	0
2024-10-12 02:05:47			0	37943	0	0	0	21283	19850	162843	27031	1054288	46258	107809	0	0	8208	568556	0	0
2024-10-12 02:06:47			0	37935	0	0	0	21272	19840	163063	27133	1054270	46257	107805	0	0	8208	568909	0	0
2024-10-12 02:07:47			0	37931	0	0	0	21264	19850	163019	27029	1054226	46258	107802	0	0	8208	569039	0	0
2024-10-12 02:08:47			0	37925	0	0	0	21264	19840	162875	27180	1054243	46236	107802	0	0	8208	569311	0	0
2024-10-12 02:09:47			0	37925	0	0	0	21264	19850	162967	27222	1054261	46269	107802	0	0	8208	569280	0	0
2024-10-12 02:10:47			0	37913	0	0	0	21267	19850	163023	27144	1054226	46258	107803	0	0	8207	569763	0	0
2024-10-12 02:11:47			0	37930	0	0	0	21267	19850	162987	27020	1054288	46237	107803	0	0	8208	569079	0	0
2024-10-12 02:12:47			0	37919	0	0	0	21275	19850	163123	27362	1054252	46258	107806	0	0	8207	569521	0	0
2024-10-12 02:13:47			0	37916	0	0	0	21283	19850	163027	26993	1054226	46248	107809	0	0	8207	569642	0	0
2024-10-12 02:14:47			0	37905	0	0	0	21270	19850	163035	27353	1054279	46258	107804	0	0	8206	570085	0	0
2024-10-12 02:15:47			0	37946	0	0	0	21277	19850	163059	27102	1054279	46258	107807	0	0	8209	568435	0	0
2024-10-12 02:16:47			0	37918	0	0	0	21275	19850	162995	27157	1054261	46269	107806	0	0	8207	569562	0	0
2024-10-12 02:17:47			0	37924	0	0	0	21283	19840	163067	27369	1054270	46268	107809	0	0	8207	569352	0	0
2024-10-12 02:18:47			0	37924	0	0	0	21275	19850	163011	27365	1054226	46248	107806	0	0	8207	569320	0	0
2024-10-12 02:19:47			0	37909	0	0	0	21280	19850	163031	27124	1054288	46269	107808	0	0	8206	569924	0	0
2024-10-12 02:20:47			0	37921	0	0	0	21285	19840	162967	27190	1054164	46257	107810	0	0	8207	569472	0	0
2024-10-12 02:21:47			0	37917	0	0	0	21270	19840	163055	27118	1054243	46257	107804	0	0	8207	569633	0	0
2024-10-12 02:22:47			0	37896	0	0	0	21272	19840	163003	27254	1054217	46247	107805	0	0	8206	570479	0	0
2024-10-12 02:23:47			0	37913	0	0	0	21272	19840	163111	27268	1054243	46247	107805	0	0	8207	569794	0	0
2024-10-12 02:24:47			0	37885	0	0	0	21270	19840	163079	26915	1054243	46247	107804	0	0	8205	570922	0	0
2024-10-12 02:25:47			0	37879	0	0	0	21267	19840	163167	27052	1054270	46247	107803	0	0	8205	571164	0	0
2024-10-12 02:26:47			0	37888	0	0	0	21270	19840	163147	26904	1054243	46247	107804	0	0	8205	570801	0	0
2024-10-12 02:27:47			0	37856	0	0	0	21270	19830	163215	26941	1054225	46235	107804	0	0	8203	572124	0	0
2024-10-12 02:28:47			0	37863	0	0	0	21257	19840	163235	27569	1054243	46247	107799	0	0	8204	571810	0	0
2024-10-12 02:29:47			0	37860	0	0	0	21270	19850	163115	27204	1054199	46225	107804	0	0	8204	571899	0	0
2024-10-12 02:30:47			0	37873	0	0	0	21272	19840	163223	27034	1054217	46257	107805	0	0	8204	571406	0	0
2024-10-12 02:31:47			0	37889	0	0	0	21267	19850	163259	27319	1054226	46248	107803	0	0	8206	570730	0	0
2024-10-12 02:32:47			0	37885	0	0	0	21275	19840	163059	27072	1054217	46257	107806	0	0	8205	570922	0	0
2024-10-12 02:33:47			0	37899	0	0	0	21280	19840	163075	27563	1054243	46257	107808	0	0	8206	570358	0	0
2024-10-12 02:34:47			0	37889	0	0	0	21267	19850	163195	27436	1054279	46248	107803	0	0	8206	570730	0	0
2024-10-12 02:35:47			0	37878	0	0	0	21262	19840	163115	27312	1054208	46267	107801	0	0	8205	571205	0	0
2024-10-12 02:36:47			0	37874	0	0	0	21262	19830	163119	27402	1054225	46267	107801	0	0	8205	571397	0	0
2024-10-12 02:37:47			0	37861	0	0	0	21270	19840	163131	27357	1054261	46267	107804	0	0	8204	571890	0	0
2024-10-12 02:38:47			0	37865	0	0	0	21259	19840	163207	27308	1054208	46246	107800	0	0	8204	571729	0	0
2024-10-12 02:39:47			0	37876	0	0	0	21272	19840	163259	27114	1054208	46256	107805	0	0	8205	571285	0	0
2024-10-12 02:40:47			0	37858	0	0	0	21267	19840	163159	27190	1054181	46256	107803	0	0	8204	572011	0	0
2024-10-12 02:41:47			0	37883	0	0	0	21270	19840	163231	27105	1054234	46256	107804	0	0	8205	571003	0	0
2024-10-12 02:42:47			0	37870	0	0	0	21272	19830	163071	27452	1054252	46267	107805	0	0	8204	571559	0	0
2024-10-12 02:43:47			0	37852	0	0	0	21272	19840	163227	27232	1054261	46246	107805	0	0	8203	572253	0	0
2024-10-12 02:44:47			0	37879	0	0	0	21264	19840	163263	27149	1054208	46256	107802	0	0	8205	571164	0	0
2024-10-12 02:45:47			0	37866	0	0	0	21272	19840	163239	27090	1054243	46257	107805	0	0	8204	571688	0	0
2024-10-12 02:46:47			0	37862	0	0	0	21283	19840	163215	27364	1054243	46257	107809	0	0	8204	571850	0	0
2024-10-12 02:47:47			0	37872	0	0	0	21264	19840	163187	27443	1054243	46268	107802	0	0	8205	571446	0	0
2024-10-12 02:48:47			0	37870	0	0	0	21254	19840	163103	27215	1054208	46256	107798	0	0	8205	571527	0	0
2024-10-12 02:49:47			0	37845	0	0	0	21246	19830	163307	27409	1054199	46256	107795	0	0	8203	572568	0	0
2024-10-12 02:50:47			0	37859	0	0	0	21270	19830	163351	27173	1054199	46246	107804	0	0	8204	572002	0	0
2024-10-12 02:51:47			0	37871	0	0	0	21277	19840	163203	27327	1054164	46257	107807	0	0	8204	571487	0	0
2024-10-12 02:52:47			0	37874	0	0	0	21272	19840	163127	27352	1054181	46267	107805	0	0	8205	571366	0	0
2024-10-12 02:53:47			0	37870	0	0	0	21257	19840	163183	27308	1054217	46257	107799	0	0	8205	571527	0	0
2024-10-12 02:54:47			0	37869	0	0	0	21254	19840	163183	27213	1054208	46256	107798	0	0	8205	571568	0	0
2024-10-12 02:55:47			0	37857	0	0	0	21275	19840	163199	27301	1054217	46268	107806	0	0	8203	572052	0	0
2024-10-12 02:56:47			0	37862	0	0	0	21257	19830	163187	27170	1054199	46256	107799	0	0	8204	571881	0	0
2024-10-12 02:57:47			0	37856	0	0	0	21257	19840	163283	27220	1054208	46256	107799	0	0	8204	572092	0	0
2024-10-12 02:58:47			0	37832	0	0	0	21254	19830	163351	27270	1054225	46256	107798	0	0	8202	573093	0	0
2024-10-12 02:59:47			0	37835	0	0	0	21262	19830	163287	27168	1054199	46267	107801	0	0	8202	572972	0	0
2024-10-12 03:00:47			0	37842	0	0	0	21270	19830	163295	27255	1054190	46256	107804	0	0	8203	572689	0	0
2024-10-12 03:01:47			0	37834	0	0	0	21267	19840	163355	27088	1054208	46256	107803	0	0	8202	572981	0	0
2024-10-12 03:02:47			0	37839	0	0	0	21257	19840	163339	27067	1054190	46257	107799	0	0	8203	572778	0	0
2024-10-12 03:03:47			0	37831	0	0	0	21262	19840	163335	27500	1054234	46246	107801	0	0	8202	573102	0	0
2024-10-12 03:04:47			0	37823	0	0	0	21254	19830	163363	27391	1054172	46246	107798	0	0	8202	573457	0	0
2024-10-12 03:05:47			0	37831	0	0	0	21264	19830	163335	27220	1054172	46256	107802	0	0	8202	573133	0	0
2024-10-12 03:06:47			0	37853	0	0	0	21280	19830	163375	27284	1054172	46267	107808	0	0	8203	572245	0	0
2024-10-12 03:07:47			0	37870	0	0	0	21264	19840	163211	27296	1054208	46267	107802	0	0	8204	571527	0	0
2024-10-12 03:08:47			0	37870	0	0	0	21275	19830	163123	27156	1054199	46256	107806	0	0	8204	571559	0	0
2024-10-12 03:09:47			0	37893	0	0	0	21275	19840	163007	27010	1054243	46268	107806	0	0	8206	570600	0	0
2024-10-12 03:10:47			0	37902	0	0	0	21267	19840	163067	27261	1054164	46236	107803	0	0	8206	570237	0	0
2024-10-12 03:11:47			0	37899	0	0	0	21262	19820	163067	26925	1054207	46255	107801	0	0	8206	570421	0	0
2024-10-12 03:12:47			0	37891	0	0	0	21264	19840	163131	27303	1054270	46257	107802	0	0	8206	570681	0	0
2024-10-12 03:13:47			0	37888	0	0	0	21270	19830	163071	27263	1054172	46256	107804	0	0	8205	570833	0	0
2024-10-12 03:14:47			0	37886	0	0	0	21277	19840	163171	27034	1054217	46257	107807	0	0	8205	570882	0	0
2024-10-12 03:15:47			0	37867	0	0	0	21264	19820	163047	27046	1054225	46233	107802	0	0	8204	571711	0	0
2024-10-12 03:16:47			0	37894	0	0	0	21259	19840	163123	27218	1054190	46257	107800	0	0	8206	570560	0	0
2024-10-12 03:17:47			0	37910	0	0	0	21254	19830	163087	27031	1054163	46256	107798	0	0	8207	569947	0	0
2024-10-12 03:18:47			0	37896	0	0	0	21262	19830	163047	27234	1054252	46256	107801	0	0	8206	570510	0	0
2024-10-12 03:19:47			0	37900	0	0	0	21267	19840	163171	27024	1054234	46246	107803	0	0	8206	570318	0	0
2024-10-12 03:20:47			0	37883	0	0	0	21264	19840	163151	27324	1054181	46256	107802	0	0	8205	571003	0	0
2024-10-12 03:21:47			0	37890	0	0	0	21267	19820	163139	27251	1054154	46266	107803	0	0	8205	570784	0	0
2024-10-12 03:22:47			0	37890	0	0	0	21270	19830	163107	27102	1054172	46256	107804	0	0	8205	570752	0	0
2024-10-12 03:23:47			0	37906	0	0	0	21277	19820	163019	27364	1054128	46277	107807	0	0	8206	570139	0	0
2024-10-12 03:24:47			0	37925	0	0	0	21272	19840	163019	27268	1054261	46235	107805	0	0	8208	569311	0	0
2024-10-12 03:25:47			0	37930	0	0	0	21270	19840	162935	27665	1054190	46247	107804	0	0	8208	569110	0	0
2024-10-12 03:26:47			0	37951	0	0	0	21259	19830	162943	27209	1054252	46267	107800	0	0	8209	568297	0	0
2024-10-12 03:27:47			0	37955	0	0	0	21275	19830	162803	27083	1054216	46246	107806	0	0	8209	568136	0	0
2024-10-12 03:28:47			0	37964	0	0	0	21283	19830	162739	27384	1054225	46267	107809	0	0	8210	567775	0	0
2024-10-12 03:29:47			0	37982	0	0	0	21267	19840	162711	27417	1054208	46246	107803	0	0	8211	567021	0	0
2024-10-12 03:30:47			0	37980	0	0	0	21270	19840	162915	27175	1054270	46268	107804	0	0	8211	567101	0	0
2024-10-12 03:31:47			0	37980	0	0	0	21285	19830	162823	27066	1054172	46256	107810	0	0	8210	567132	0	0
2024-10-12 03:32:47			0	37955	0	0	0	21288	19850	162795	27293	1054279	46258	107811	0	0	8209	568074	0	0
2024-10-12 03:33:47			0	37982	0	0	0	21296	19840	162803	27157	1054287	46246	107814	0	0	8210	567021	0	0
2024-10-12 03:34:47			0	38000	0	0	0	21301	19840	162695	27310	1054287	46267	107816	0	0	8211	566298	0	0
2024-10-12 03:35:47			0	37994	0	0	0	21288	19850	162595	27334	1054314	46291	107811	0	0	8211	566508	0	0
2024-10-12 03:36:47			0	37987	0	0	0	21283	19850	162707	27289	1054252	46280	107809	0	0	8211	566789	0	0
2024-10-12 03:37:47			0	37976	0	0	0	21280	19850	162723	27225	1054368	46269	107808	0	0	8210	567230	0	0
2024-10-12 03:38:47			0	37973	0	0	0	21293	19850	162831	27310	1054288	46269	107813	0	0	8210	567351	0	0
2024-10-12 03:39:47			0	37987	0	0	0	21301	19860	162743	27301	1054350	46258	107816	0	0	8211	566757	0	0
2024-10-12 03:40:47			0	37994	0	0	0	21301	19850	162647	27116	1054332	46258	107816	0	0	8211	566508	0	0
2024-10-12 03:41:47			0	38019	0	0	0	21283	19850	162663	27256	1054314	46258	107809	0	0	8213	565506	0	0
2024-10-12 03:42:47			0	38002	0	0	0	21301	19870	162639	27419	1054315	46250	107816	0	0	8212	566125	0	0
2024-10-12 03:43:47			0	38013	0	0	0	21298	19850	162611	27185	1054332	46258	107815	0	0	8212	565746	0	0
2024-10-12 03:44:47			0	38021	0	0	0	21296	19840	162503	27348	1054323	46257	107814	0	0	8213	565457	0	0
2024-10-12 03:45:47			0	38039	0	0	0	21314	19860	162656	27322	1054403	46248	107821	0	0	8214	564673	0	0
2024-10-12 03:46:47			0	38044	0	0	0	21306	19860	162472	27296	1054359	46259	107818	0	0	8214	564473	0	0
2024-10-12 03:47:47			0	38050	0	0	0	21303	19870	162520	27452	1054368	46260	107817	0	0	8214	564202	0	0
2024-10-12 03:48:47			0	38035	0	0	0	21303	19870	162576	27052	1054456	46261	107817	0	0	8214	564803	0	0
2024-10-12 03:49:47			0	38038	0	0	0	21296	19870	162572	27189	1054368	46260	107814	0	0	8214	564683	0	0
2024-10-12 03:50:47			0	38030	0	0	0	21303	19870	162599	27076	1054394	46260	107817	0	0	8213	565003	0	0
2024-10-12 03:51:47			0	38037	0	0	0	21301	19870	162512	27097	1054368	46250	107816	0	0	8214	564723	0	0
2024-10-12 03:52:47			0	38028	0	0	0	21293	19870	162480	27388	1054394	46260	107813	0	0	8213	565083	0	0
2024-10-12 03:53:47			0	38039	0	0	0	21298	19860	162488	26849	1054359	46259	107815	0	0	8214	564673	0	0
2024-10-12 03:54:47			0	38030	0	0	0	21293	19870	162556	26897	1054368	46271	107813	0	0	8213	565003	0	0
2024-10-12 03:55:47			0	38037	0	0	0	21309	19880	162592	27255	1054395	46261	107819	0	0	8214	564691	0	0
2024-10-12 03:56:47			0	38034	0	0	0	21311	19870	162516	27294	1054368	46260	107820	0	0	8213	564842	0	0
2024-10-12 03:57:47			0	38059	0	0	0	21322	19870	162368	27452	1054315	46260	107824	0	0	8215	563842	0	0
2024-10-12 03:58:47			0	38071	0	0	0	21311	19870	162296	27466	1054377	46250	107820	0	0	8216	563362	0	0
2024-10-12 03:59:47			0	38075	0	0	0	21316	19880	162368	27429	1054439	46250	107822	0	0	8216	563172	0	0
2024-10-12 04:00:47			0	38055	0	0	0	21319	19870	162356	27246	1054377	46272	107823	0	0	8215	564002	0	0
2024-10-12 04:01:47			0	38091	0	0	0	21319	19870	162340	27109	1054430	46261	107823	0	0	8217	562563	0	0
2024-10-12 04:02:47			0	38080	0	0	0	21322	19880	162356	27239	1054448	46261	107824	0	0	8216	562972	0	0
2024-10-12 04:03:47			0	38087	0	0	0	21348	19870	162284	27211	1054456	46272	107834	0	0	8216	562723	0	0
2024-10-12 04:04:47			0	38097	0	0	0	21358	19880	162200	27516	1054545	46261	107838	0	0	8216	562293	0	0
2024-10-12 04:05:47			0	38132	0	0	0	21348	19880	162096	27076	1054501	46261	107834	0	0	8219	560897	0	0
2024-10-12 04:06:47			0	38150	0	0	0	21327	19890	162136	27255	1054510	46273	107826	0	0	8220	560149	0	0
2024-10-12 04:07:47			0	38140	0	0	0	21314	19890	161984	27261	1054492	46274	107821	0	0	8220	560547	0	0
2024-10-12 04:08:47			0	38141	0	0	0	21329	19890	162044	27062	1054510	46273	107827	0	0	8220	560507	0	0
2024-10-12 04:09:47			0	38130	0	0	0	21306	19900	162000	27081	1054501	46263	107818	0	0	8219	560915	0	0
2024-10-12 04:10:47			0	38098	0	0	0	21316	19890	162100	27291	1054519	46274	107822	0	0	8217	562222	0	0
2024-10-12 04:11:47			0	38110	0	0	0	21319	19890	162220	26925	1054510	46262	107823	0	0	8218	561743	0	0
2024-10-12 04:12:47			0	38099	0	0	0	21322	19900	162272	27294	1054475	46263	107824	0	0	8217	562151	0	0
2024-10-12 04:13:47			0	38105	0	0	0	21319	19890	162236	27126	1054492	46274	107823	0	0	8218	561943	0	0
2024-10-12 04:14:47			0	38100	0	0	0	21309	19890	162228	27012	1054492	46263	107819	0	0	8217	562142	0	0
2024-10-12 04:15:47			0	38093	0	0	0	21311	19890	162260	27001	1054439	46274	107820	0	0	8217	562422	0	0
2024-10-12 04:16:47			0	38097	0	0	0	21316	19890	162232	26963	1054492	46263	107822	0	0	8217	562262	0	0
2024-10-12 04:17:47			0	38093	0	0	0	21316	19890	162160	26986	1054439	46263	107822	0	0	8217	562422	0	0
2024-10-12 04:18:47			0	38100	0	0	0	21327	19890	162264	27130	1054483	46273	107826	0	0	8217	562142	0	0
2024-10-12 04:19:47			0	38097	0	0	0	21324	19880	162276	27038	1054448	46272	107825	0	0	8217	562293	0	0
2024-10-12 04:20:47			0	38088	0	0	0	21311	19890	162268	27241	1054466	46274	107820	0	0	8217	562621	0	0
2024-10-12 04:21:47			0	38094	0	0	0	21324	19890	162248	27053	1054492	46274	107825	0	0	8217	562382	0	0
2024-10-12 04:22:47			0	38098	0	0	0	21316	19890	162104	27260	1054457	46251	107822	0	0	8217	562222	0	0
2024-10-12 04:23:47			0	38105	0	0	0	21314	19890	162288	27196	1054466	46263	107821	0	0	8218	561943	0	0
2024-10-12 04:24:47			0	38097	0	0	0	21340	19890	162212	27048	1054466	46274	107831	0	0	8217	562262	0	0
2024-10-12 04:25:47			0	38127	0	0	0	21332	19890	162160	27251	1054466	46263	107828	0	0	8219	561065	0	0
2024-10-12 04:26:47			0	38118	0	0	0	21329	19890	162120	27027	1054492	46274	107827	0	0	8218	561424	0	0
2024-10-12 04:27:47			0	38145	0	0	0	21329	19890	162080	26894	1054466	46252	107827	0	0	8220	560348	0	0
2024-10-12 04:28:47			0	38114	0	0	0	21332	19890	162084	27024	1054536	46262	107828	0	0	8218	561583	0	0
2024-10-12 04:29:47			0	38109	0	0	0	21311	19900	162100	27086	1054510	46263	107820	0	0	8218	561752	0	0
2024-10-12 04:30:47			0	38100	0	0	0	21316	19890	162260	27161	1054483	46251	107822	0	0	8217	562142	0	0
2024-10-12 04:31:47			0	38083	0	0	0	21311	19880	162248	27152	1054474	46261	107820	0	0	8216	562852	0	0
2024-10-12 04:32:47			0	38098	0	0	0	21309	19890	162208	27119	1054466	46252	107819	0	0	8217	562222	0	0
2024-10-12 04:33:47			0	38075	0	0	0	21322	19890	162304	27119	1054519	46263	107824	0	0	8216	563141	0	0
2024-10-12 04:34:47			0	38096	0	0	0	21316	19880	162264	27062	1054474	46272	107822	0	0	8217	562333	0	0
2024-10-12 04:35:47			0	38100	0	0	0	21319	19890	162228	27010	1054519	46263	107823	0	0	8217	562142	0	0
2024-10-12 04:36:47			0	38087	0	0	0	21309	19890	162276	27308	1054439	46263	107819	0	0	8217	562661	0	0
2024-10-12 04:37:47			0	38074	0	0	0	21311	19880	162336	27038	1054501	46272	107820	0	0	8216	563211	0	0
2024-10-12 04:38:47			0	38047	0	0	0	21309	19890	162456	27286	1054457	46251	107819	0	0	8214	564260	0	0
2024-10-12 04:39:47			0	38044	0	0	0	21314	19890	162512	26904	1054492	46263	107821	0	0	8214	564380	0	0
2024-10-12 04:40:47			0	38049	0	0	0	21311	19890	162444	27268	1054466	46263	107820	0	0	8214	564180	0	0
2024-10-12 04:41:47			0	38041	0	0	0	21311	19880	162440	27384	1054448	46261	107820	0	0	8214	564531	0	0
2024-10-12 04:42:47			0	38055	0	0	0	21322	19880	162388	27000	1054439	46261	107824	0	0	8215	563971	0	0
2024-10-12 04:43:47			0	38052	0	0	0	21309	19890	162456	27246	1054430	46273	107819	0	0	8215	564060	0	0
2024-10-12 04:44:47			0	38069	0	0	0	21322	19880	162396	26909	1054465	46272	107824	0	0	8215	563411	0	0
2024-10-12 04:45:47			0	38074	0	0	0	21327	19880	162392	27119	1054474	46261	107826	0	0	8216	563211	0	0
2024-10-12 04:46:47			0	38068	0	0	0	21319	19880	162352	26788	1054465	46272	107823	0	0	8215	563451	0	0
2024-10-12 04:47:47			0	38052	0	0	0	21322	19880	162432	27000	1054465	46261	107824	0	0	8214	564091	0	0
2024-10-12 04:48:47			0	38048	0	0	0	21324	19890	162524	27111	1054457	46251	107825	0	0	8214	564220	0	0
2024-10-12 04:49:47			0	38027	0	0	0	21319	19890	162623	27253	1054377	46262	107823	0	0	8213	565061	0	0
2024-10-12 04:50:47			0	38016	0	0	0	21327	19880	162571	27244	1054492	46272	107826	0	0	8212	565532	0	0
2024-10-12 04:51:47			0	38029	0	0	0	21322	19890	162552	27041	1054510	46273	107824	0	0	8213	564981	0	0
2024-10-12 04:52:47			0	38044	0	0	0	21324	19890	162436	27005	1054510	46262	107825	0	0	8214	564380	0	0
2024-10-12 04:53:47			0	38062	0	0	0	21322	19880	162492	27255	1054501	46272	107824	0	0	8215	563691	0	0
2024-10-12 04:54:47			0	38078	0	0	0	21322	19890	162308	27041	1054545	46274	107824	0	0	8216	563021	0	0
2024-10-12 04:55:47			0	38099	0	0	0	21319	19890	162284	27052	1054519	46263	107823	0	0	8217	562182	0	0
2024-10-12 04:56:47			0	38097	0	0	0	21327	19880	162248	27046	1054448	46272	107826	0	0	8217	562293	0	0
2024-10-12 04:57:47			0	38101	0	0	0	21329	19890	162196	27088	1054510	46251	107827	0	0	8217	562102	0	0
2024-10-12 04:58:47			0	38111	0	0	0	21329	19880	162212	27343	1054501	46261	107827	0	0	8218	561734	0	0
2024-10-12 04:59:47			0	38123	0	0	0	21332	19900	162188	27150	1054528	46263	107828	0	0	8218	561194	0	0
2024-10-12 05:00:47			0	38129	0	0	0	21327	19900	162176	26595	1054581	46274	107826	0	0	8219	560954	0	0
2024-10-12 05:01:47			0	38154	0	0	0	21335	19890	162060	27000	1054510	46262	107829	0	0	8220	559989	0	0
2024-10-12 05:02:47			0	38146	0	0	0	21332	19890	161992	26700	1054545	46263	107828	0	0	8220	560308	0	0
2024-10-12 05:03:47			0	38138	0	0	0	21332	19890	162028	27050	1054536	46262	107828	0	0	8219	560627	0	0
2024-10-12 05:04:47			0	38147	0	0	0	21324	19880	162060	27234	1054501	46261	107825	0	0	8220	560299	0	0
2024-10-12 05:05:47			0	38144	0	0	0	21327	19900	162076	27105	1054581	46252	107826	0	0	8220	560357	0	0
2024-10-12 05:06:47			0	38138	0	0	0	21332	19900	162080	27147	1054590	46252	107828	0	0	8219	560596	0	0
2024-10-12 05:07:47			0	38136	0	0	0	21322	19890	162088	27131	1054545	46252	107824	0	0	8219	560706	0	0
2024-10-12 05:08:47			0	38117	0	0	0	21319	19890	162052	27124	1054536	46273	107823	0	0	8218	561464	0	0
2024-10-12 05:09:47			0	38120	0	0	0	21327	19890	162184	26922	1054545	46263	107826	0	0	8218	561344	0	0
2024-10-12 05:10:47			0	38122	0	0	0	21342	19890	162176	27218	1054572	46263	107832	0	0	8218	561264	0	0
2024-10-12 05:11:47			0	38141	0	0	0	21337	19900	162108	27095	1054554	46263	107830	0	0	8219	560476	0	0
2024-10-12 05:12:47			0	38149	0	0	0	21340	19890	162056	26809	1054519	46274	107831	0	0	8220	560189	0	0
2024-10-12 05:13:47			0	38153	0	0	0	21342	19890	162068	27092	1054652	46263	107832	0	0	8220	560029	0	0
2024-10-12 05:14:47			0	38191	0	0	0	21340	19900	161916	27145	1054554	46274	107831	0	0	8222	558486	0	0
2024-10-12 05:15:47			0	38198	0	0	0	21337	19910	161756	26828	1054572	46275	107830	0	0	8223	558177	0	0
2024-10-12 05:16:47			0	38198	0	0	0	21335	19900	161780	27015	1054501	46263	107829	0	0	8223	558208	0	0
2024-10-12 05:17:47			0	38209	0	0	0	21348	19890	161744	27161	1054572	46252	107834	0	0	8223	557802	0	0
2024-10-12 05:18:47			0	38221	0	0	0	21348	19900	161848	26897	1054581	46263	107834	0	0	8224	557295	0	0
2024-10-12 05:19:47			0	38238	0	0	0	21353	19910	161768	27066	1054608	46276	107836	0	0	8225	556589	0	0
2024-10-12 05:20:47			0	38242	0	0	0	21358	19910	161724	27092	1054572	46264	107838	0	0	8225	556431	0	0
2024-10-12 05:21:47			0	38245	0	0	0	21358	19910	161708	27215	1054608	46276	107838	0	0	8225	556312	0	0
2024-10-12 05:22:47			0	38258	0	0	0	21358	19910	161644	27239	1054608	46276	107838	0	0	8226	555796	0	0
2024-10-12 05:23:47			0	38270	0	0	0	21366	19910	161716	27083	1054599	46264	107841	0	0	8227	555321	0	0
2024-10-12 05:24:47			0	38273	0	0	0	21361	19910	161588	26883	1054599	46286	107839	0	0	8227	555202	0	0
2024-10-12 05:25:47			0	38281	0	0	0	21358	19910	161688	27313	1054705	46264	107838	0	0	8227	554885	0	0
2024-10-12 05:26:47			0	38277	0	0	0	21363	19910	161704	27130	1054599	46275	107840	0	0	8227	555044	0	0
2024-10-12 05:27:47			0	38272	0	0	0	21355	19920	161612	27043	1054732	46276	107837	0	0	8227	555211	0	0
2024-10-12 05:28:47			0	38283	0	0	0	21342	19910	161572	27251	1054634	46265	107832	0	0	8228	554806	0	0
2024-10-12 05:29:47			0	38282	0	0	0	21342	19910	161488	26975	1054625	46264	107832	0	0	8228	554846	0	0
2024-10-12 05:30:47			0	38268	0	0	0	21342	19900	161640	27066	1054670	46274	107832	0	0	8227	555431	0	0
2024-10-12 05:31:47			0	38273	0	0	0	21345	19920	161544	27053	1054652	46244	107833	0	0	8227	555172	0	0
2024-10-12 05:32:47			0	38246	0	0	0	21345	19910	161600	27105	1054608	46276	107833	0	0	8225	556272	0	0
2024-10-12 05:33:47			0	38241	0	0	0	21342	19910	161636	27157	1054546	46275	107832	0	0	8225	556470	0	0
2024-10-12 05:34:47			0	38242	0	0	0	21332	19910	161740	27104	1054608	46265	107828	0	0	8225	556431	0	0
2024-10-12 05:35:47			0	38217	0	0	0	21335	19910	161716	27230	1054625	46275	107829	0	0	8224	557423	0	0
2024-10-12 05:36:47			0	38209	0	0	0	21329	19910	161708	27131	1054678	46264	107827	0	0	8224	557740	0	0
2024-10-12 05:37:47			0	38199	0	0	0	21340	19900	161824	26798	1054590	46274	107831	0	0	8223	558168	0	0
2024-10-12 05:38:47			0	38219	0	0	0	21337	19910	161828	26897	1054652	46264	107830	0	0	8224	557343	0	0
2024-10-12 05:39:47			0	38221	0	0	0	21337	19910	161896	27126	1054572	46243	107830	0	0	8224	557264	0	0
2024-10-12 05:40:47			0	38232	0	0	0	21350	19920	161736	26960	1054652	46265	107835	0	0	8225	556797	0	0
2024-10-12 05:41:47			0	38242	0	0	0	21345	19910	161728	27017	1054608	46276	107833	0	0	8225	556431	0	0
2024-10-12 05:42:47			0	38250	0	0	0	21350	19910	161732	27097	1054608	46276	107835	0	0	8226	556114	0	0
2024-10-12 05:43:47			0	38273	0	0	0	21348	19910	161604	27268	1054599	46275	107834	0	0	8227	555202	0	0
2024-10-12 05:44:47			0	38253	0	0	0	21353	19900	161704	26831	1054670	46274	107836	0	0	8226	556025	0	0
2024-10-12 05:45:47			0	38254	0	0	0	21361	19910	161616	26968	1054714	46276	107839	0	0	8226	555955	0	0
2024-10-12 05:46:47			0	38280	0	0	0	21368	19910	161516	27206	1054608	46265	107842	0	0	8227	554925	0	0
2024-10-12 05:47:47			0	38295	0	0	0	21376	19910	161504	26833	1054687	46287	107845	0	0	8228	554331	0	0
2024-10-12 05:48:47			0	38300	0	0	0	21376	19920	161604	27293	1054705	46276	107845	0	0	8228	554103	0	0
2024-10-12 05:49:47			0	38327	0	0	0	21368	19920	161476	27126	1054723	46298	107842	0	0	8230	553036	0	0
2024-10-12 05:50:47			0	38313	0	0	0	21374	19920	161416	27261	1054705	46265	107844	0	0	8229	553589	0	0
2024-10-12 05:51:47			0	38317	0	0	0	21366	19930	161296	27161	1054634	46277	107841	0	0	8229	553400	0	0
2024-10-12 05:52:47			0	38332	0	0	0	21368	19920	161404	27267	1054696	46276	107842	0	0	8230	552838	0	0
2024-10-12 05:53:47			0	38336	0	0	0	21366	19920	161248	27300	1054732	46265	107841	0	0	8230	552680	0	0
2024-10-12 05:54:47			0	38333	0	0	0	21366	19910	161352	26920	1054608	46276	107841	0	0	8230	552829	0	0
2024-10-12 05:55:47			0	38344	0	0	0	21366	19920	161268	27010	1054652	46265	107841	0	0	8231	552364	0	0
2024-10-12 05:56:47			0	38345	0	0	0	21366	19920	161200	27185	1054732	46265	107841	0	0	8231	552325	0	0
2024-10-12 05:57:47			0	38370	0	0	0	21358	19940	161112	26923	1054679	46267	107838	0	0	8233	551278	0	0
2024-10-12 05:58:47			0	38377	0	0	0	21353	19930	161076	26970	1054714	46277	107836	0	0	8233	551032	0	0
2024-10-12 05:59:47			0	38392	0	0	0	21350	19920	161176	27000	1054723	46276	107835	0	0	8234	550471	0	0
2024-10-12 06:00:47			0	38379	0	0	0	21361	19910	161084	26965	1054608	46276	107839	0	0	8233	551014	0	0
2024-10-12 06:01:47			0	38389	0	0	0	21355	19930	161012	27249	1054741	46288	107837	0	0	8234	550559	0	0
2024-10-12 06:02:47			0	38419	0	0	0	21355	19930	161048	27208	1054723	46267	107837	0	0	8236	549378	0	0
2024-10-12 06:03:47			0	38406	0	0	0	21366	19920	160944	26731	1054705	46254	107841	0	0	8235	549920	0	0
2024-10-12 06:04:47			0	38425	0	0	0	21358	19920	160940	27036	1054617	46265	107838	0	0	8236	549172	0	0
2024-10-12 06:05:47			0	38436	0	0	0	21368	19930	160912	27145	1054741	46277	107842	0	0	8236	548709	0	0
2024-10-12 06:06:47			0	38432	0	0	0	21358	19920	160912	26880	1054696	46287	107838	0	0	8236	548897	0	0
2024-10-12 06:07:47			0	38433	0	0	0	21345	19920	160964	27197	1054758	46276	107833	0	0	8236	548858	0	0
2024-10-12 06:08:47			0	38423	0	0	0	21345	19920	160912	27279	1054652	46276	107833	0	0	8236	549251	0	0
2024-10-12 06:09:47			0	38425	0	0	0	21353	19920	160940	27524	1054732	46276	107836	0	0	8236	549172	0	0
2024-10-12 06:10:47			0	38413	0	0	0	21353	19920	160956	27012	1054625	46276	107836	0	0	8235	549644	0	0
2024-10-12 06:11:47			0	38422	0	0	0	21358	19920	160952	26958	1054732	46265	107838	0	0	8236	549290	0	0
2024-10-12 06:12:47			0	38415	0	0	0	21340	19920	161072	27029	1054705	46254	107831	0	0	8236	549566	0	0
2024-10-12 06:13:47			0	38399	0	0	0	21345	19920	161084	27313	1054732	46276	107833	0	0	8235	550196	0	0
2024-10-12 06:14:47			0	38402	0	0	0	21345	19920	161092	27046	1054705	46254	107833	0	0	8235	550077	0	0
2024-10-12 06:15:47			0	38371	0	0	0	21350	19920	161176	26984	1054732	46254	107835	0	0	8233	551299	0	0
2024-10-12 06:16:47			0	38366	0	0	0	21345	19910	161184	26955	1054714	46265	107833	0	0	8233	551526	0	0
2024-10-12 06:17:47			0	38361	0	0	0	21340	19920	161124	26882	1054705	46287	107831	0	0	8232	551693	0	0
2024-10-12 06:18:47			0	38359	0	0	0	21348	19910	161184	27348	1054572	46264	107834	0	0	8232	551803	0	0
2024-10-12 06:19:47			0	38347	0	0	0	21340	19910	161244	27216	1054581	46276	107831	0	0	8231	552276	0	0
2024-10-12 06:20:47			0	38346	0	0	0	21335	19920	161280	27133	1054732	46265	107829	0	0	8232	552285	0	0
2024-10-12 06:21:47			0	38334	0	0	0	21342	19920	161340	27128	1054617	46265	107832	0	0	8231	552759	0	0
2024-10-12 06:22:47			0	38331	0	0	0	21332	19910	161276	27000	1054608	46254	107828	0	0	8231	552908	0	0
2024-10-12 06:23:47			0	38329	0	0	0	21340	19910	161288	27218	1054678	46264	107831	0	0	8230	552987	0	0
2024-10-12 06:24:47			0	38329	0	0	0	21335	19910	161348	27241	1054687	46276	107829	0	0	8231	552987	0	0
2024-10-12 06:25:47			0	38338	0	0	0	21332	19910	161340	27196	1054599	46264	107828	0	0	8231	552632	0	0
2024-10-12 06:26:47			0	38309	0	0	0	21327	19900	161372	27303	1054590	46252	107826	0	0	8229	553808	0	0
2024-10-12 06:27:47			0	38295	0	0	0	21332	19910	161400	27348	1054687	46276	107828	0	0	8229	554331	0	0
2024-10-12 06:28:47			0	38324	0	0	0	21342	19910	161408	26901	1054572	46264	107832	0	0	8230	553185	0	0
2024-10-12 06:29:47			0	38344	0	0	0	21358	19910	161344	27209	1054652	46264	107838	0	0	8231	552395	0	0
2024-10-12 06:30:47			0	38367	0	0	0	21342	19910	161248	27246	1054678	46264	107832	0	0	8233	551487	0	0
2024-10-12 06:31:47			0	38370	0	0	0	21335	19910	161136	27046	1054599	46275	107829	0	0	8233	551369	0	0
2024-10-12 06:32:47			0	38342	0	0	0	21350	19910	161236	26817	1054625	46286	107835	0	0	8231	552474	0	0
2024-10-12 06:33:47			0	38358	0	0	0	21348	19910	161172	27118	1054678	46275	107834	0	0	8232	551842	0	0
2024-10-12 06:34:47			0	38363	0	0	0	21350	19910	161176	26876	1054705	46275	107835	0	0	8232	551645	0	0
2024-10-12 06:35:47			0	38373	0	0	0	21358	19920	161256	27105	1054652	46265	107838	0	0	8233	551220	0	0
2024-10-12 06:36:47			0	38379	0	0	0	21358	19920	161128	27064	1054696	46276	107838	0	0	8233	550983	0	0
2024-10-12 06:37:47			0	38377	0	0	0	21348	19920	161152	27079	1054696	46287	107834	0	0	8233	551062	0	0
2024-10-12 06:38:47			0	38374	0	0	0	21355	19920	161180	27020	1054617	46276	107837	0	0	8233	551181	0	0
2024-10-12 06:39:47			0	38387	0	0	0	21348	19920	161088	27272	1054617	46287	107834	0	0	8234	550668	0	0
2024-10-12 06:40:47			0	38377	0	0	0	21345	19920	161192	27135	1054590	46276	107833	0	0	8233	551062	0	0
2024-10-12 06:41:47			0	38352	0	0	0	21340	19910	161092	27197	1054687	46265	107831	0	0	8232	552079	0	0
2024-10-12 06:42:47			0	38365	0	0	0	21335	19910	161216	27015	1054634	46254	107829	0	0	8233	551566	0	0
2024-10-12 06:43:47			0	38355	0	0	0	21335	19920	161280	27352	1054679	46276	107829	0	0	8232	551930	0	0
2024-10-12 06:44:47			0	38359	0	0	0	21332	19910	161332	27267	1054608	46276	107828	0	0	8232	551803	0	0
2024-10-12 06:45:47			0	38359	0	0	0	21345	19920	161244	27123	1054617	46254	107833	0	0	8232	551772	0	0
2024-10-12 06:46:47			0	38365	0	0	0	21348	19910	161268	27545	1054687	46265	107834	0	0	8232	551566	0	0
2024-10-12 06:47:47			0	38371	0	0	0	21345	19910	161272	27441	1054572	46286	107833	0	0	8233	551329	0	0
2024-10-12 06:48:47			0	38367	0	0	0	21355	19910	161296	27480	1054687	46254	107837	0	0	8232	551487	0	0
2024-10-12 06:49:47			0	38362	0	0	0	21355	19910	161272	27216	1054652	46275	107837	0	0	8232	551684	0	0
2024-10-12 06:50:47			0	38375	0	0	0	21342	19910	161220	27130	1054634	46287	107832	0	0	8233	551172	0	0
2024-10-12 06:51:47			0	38353	0	0	0	21348	19910	161156	27261	1054555	46276	107834	0	0	8232	552039	0	0
2024-10-12 06:52:47			0	38361	0	0	0	21355	19920	161212	26902	1054643	46276	107837	0	0	8232	551693	0	0
2024-10-12 06:53:47			0	38377	0	0	0	21355	19910	161208	27208	1054599	46275	107837	0	0	8233	551093	0	0
2024-10-12 06:54:47			0	38369	0	0	0	21350	19910	161292	27588	1054608	46276	107835	0	0	8233	551408	0	0
2024-10-12 06:55:47			0	38364	0	0	0	21340	19920	161280	27443	1054652	46276	107831	0	0	8233	551575	0	0
2024-10-12 06:56:47			0	38363	0	0	0	21353	19910	161240	27194	1054634	46276	107836	0	0	8232	551645	0	0
2024-10-12 06:57:47			0	38366	0	0	0	21345	19920	161120	27150	1054696	46265	107833	0	0	8233	551496	0	0
2024-10-12 06:58:47			0	38359	0	0	0	21348	19920	161260	26967	1054643	46265	107834	0	0	8232	551772	0	0
2024-10-12 06:59:47			0	38369	0	0	0	21348	19910	161296	27209	1054687	46276	107834	0	0	8233	551408	0	0
2024-10-12 07:00:47			0	38365	0	0	0	21348	19920	161372	27223	1054749	46276	107834	0	0	8232	551535	0	0
2024-10-12 07:01:47			0	38363	0	0	0	21355	19910	161336	27170	1054581	46265	107837	0	0	8232	551645	0	0
2024-10-12 07:02:47			0	38367	0	0	0	21358	19910	161332	27265	1054572	46264	107838	0	0	8232	551487	0	0
2024-10-12 07:03:47			0	38352	0	0	0	21353	19910	161328	27310	1054687	46276	107836	0	0	8232	552079	0	0
2024-10-12 07:04:47			0	38347	0	0	0	21353	19910	161264	27325	1054687	46265	107836	0	0	8231	552276	0	0
2024-10-12 07:05:47			0	38343	0	0	0	21348	19920	161260	27164	1054643	46276	107834	0	0	8231	552404	0	0
2024-10-12 07:06:47			0	38362	0	0	0	21340	19910	161296	27027	1054714	46276	107831	0	0	8232	551684	0	0
2024-10-12 07:07:47			0	38345	0	0	0	21345	19910	161312	27190	1054634	46265	107833	0	0	8231	552355	0	0
2024-10-12 07:08:47			0	38358	0	0	0	21340	19910	161316	26963	1054661	46254	107831	0	0	8232	551842	0	0
2024-10-12 07:09:47			0	38361	0	0	0	21337	19920	161264	27213	1054643	46265	107830	0	0	8232	551693	0	0
2024-10-12 07:10:47			0	38327	0	0	0	21337	19910	161336	27017	1054608	46276	107830	0	0	8230	553066	0	0
2024-10-12 07:11:47			0	38345	0	0	0	21340	19910	161368	27223	1054625	46275	107831	0	0	8231	552355	0	0
2024-10-12 07:12:47			0	38351	0	0	0	21337	19910	161280	27244	1054608	46265	107830	0	0	8232	552118	0	0
2024-10-12 07:13:47			0	38328	0	0	0	21337	19920	161408	27076	1054679	46265	107830	0	0	8230	552996	0	0
2024-10-12 07:14:47			0	38326	0	0	0	21348	19910	161436	27069	1054581	46265	107834	0	0	8230	553106	0	0
2024-10-12 07:15:47			0	38328	0	0	0	21353	19900	161448	27050	1054554	46263	107836	0	0	8230	553057	0	0
2024-10-12 07:16:47			0	38349	0	0	0	21350	19910	161492	27372	1054599	46275	107835	0	0	8231	552197	0	0
2024-10-12 07:17:47			0	38338	0	0	0	21337	19910	161420	26994	1054634	46276	107830	0	0	8231	552632	0	0
2024-10-12 07:18:47			0	38316	0	0	0	21340	19920	161496	27286	1054643	46276	107831	0	0	8230	553470	0	0
2024-10-12 07:19:47			0	38316	0	0	0	21342	19910	161460	27064	1054599	46264	107832	0	0	8230	553501	0	0
2024-10-12 07:20:47			0	38312	0	0	0	21350	19910	161460	27173	1054687	46265	107835	0	0	8229	553659	0	0
2024-10-12 07:21:47			0	38316	0	0	0	21340	19920	161404	27062	1054617	46287	107831	0	0	8230	553470	0	0
2024-10-12 07:22:47			0	38313	0	0	0	21329	19910	161536	27081	1054555	46265	107827	0	0	8230	553619	0	0
2024-10-12 07:23:47			0	38319	0	0	0	21329	19910	161460	27237	1054625	46253	107827	0	0	8230	553382	0	0
2024-10-12 07:24:47			0	38313	0	0	0	21316	19910	161424	27505	1054555	46265	107822	0	0	8230	553619	0	0
2024-10-12 07:25:47			0	38315	0	0	0	21319	19910	161520	26975	1054581	46254	107823	0	0	8230	553540	0	0
2024-10-12 07:26:47			0	38293	0	0	0	21314	19900	161500	26708	1054563	46252	107821	0	0	8229	554441	0	0
2024-10-12 07:27:47			0	38296	0	0	0	21306	19890	161496	27204	1054572	46274	107818	0	0	8229	554353	0	0
2024-10-12 07:28:47			0	38290	0	0	0	21314	19910	161560	27083	1054519	46264	107821	0	0	8229	554529	0	0
2024-10-12 07:29:47			0	38273	0	0	0	21309	19900	161540	27123	1054537	46263	107819	0	0	8228	555233	0	0
2024-10-12 07:30:47			0	38296	0	0	0	21322	19910	161528	27083	1054546	46253	107824	0	0	8229	554292	0	0
2024-10-12 07:31:47			0	38296	0	0	0	21335	19890	161536	27062	1054536	46251	107829	0	0	8229	554353	0	0
2024-10-12 07:32:47			0	38291	0	0	0	21322	19900	161528	27083	1054616	46263	107824	0	0	8228	554520	0	0
2024-10-12 07:33:47			0	38283	0	0	0	21327	19890	161496	26809	1054572	46263	107826	0	0	8228	554867	0	0
2024-10-12 07:34:47			0	38288	0	0	0	21327	19900	161568	26885	1054554	46263	107826	0	0	8228	554639	0	0
2024-10-12 07:35:47			0	38301	0	0	0	21311	19900	161480	26844	1054554	46274	107820	0	0	8229	554125	0	0
2024-10-12 07:36:47			0	38304	0	0	0	21322	19900	161444	27270	1054554	46274	107824	0	0	8229	554006	0	0
2024-10-12 07:37:47			0	38301	0	0	0	21319	19900	161444	27374	1054528	46252	107823	0	0	8229	554125	0	0
2024-10-12 07:38:47			0	38308	0	0	0	21319	19890	161444	27473	1054572	46274	107823	0	0	8229	553878	0	0
2024-10-12 07:39:47			0	38315	0	0	0	21324	19900	161496	27213	1054581	46274	107825	0	0	8230	553571	0	0
2024-10-12 07:40:47			0	38305	0	0	0	21324	19890	161572	27267	1054519	46263	107825	0	0	8229	553997	0	0
2024-10-12 07:41:47			0	38300	0	0	0	21324	19900	161484	27218	1054607	46274	107825	0	0	8229	554164	0	0
2024-10-12 07:42:47			0	38297	0	0	0	21316	19890	161512	26857	1054545	46263	107822	0	0	8229	554313	0	0
2024-10-12 07:43:47			0	38305	0	0	0	21314	19890	161492	27022	1054492	46274	107821	0	0	8229	553997	0	0
2024-10-12 07:44:47			0	38301	0	0	0	21309	19900	161412	27022	1054501	46285	107819	0	0	8229	554125	0	0
2024-10-12 07:45:47			0	38311	0	0	0	21314	19900	161452	27223	1054554	46263	107821	0	0	8230	553729	0	0
2024-10-12 07:46:47			0	38301	0	0	0	21303	19890	161576	27050	1054545	46263	107817	0	0	8229	554155	0	0
2024-10-12 07:47:47			0	38288	0	0	0	21314	19880	161524	27196	1054501	46261	107821	0	0	8228	554700	0	0
2024-10-12 07:48:47			0	38297	0	0	0	21309	19890	161516	27046	1054510	46273	107819	0	0	8229	554313	0	0
2024-10-12 07:49:47			0	38298	0	0	0	21309	19880	161548	27538	1054527	46261	107819	0	0	8229	554304	0	0
2024-10-12 07:50:47			0	38309	0	0	0	21309	19890	161492	27424	1054545	46263	107819	0	0	8230	553839	0	0
2024-10-12 07:51:47			0	38315	0	0	0	21306	19890	161484	27187	1054457	46262	107818	0	0	8230	553601	0	0
2024-10-12 07:52:47			0	38284	0	0	0	21296	19880	161524	27303	1054448	46261	107814	0	0	8228	554858	0	0
2024-10-12 07:53:47			0	38316	0	0	0	21301	19880	161460	26871	1054474	46261	107816	0	0	8230	553592	0	0
2024-10-12 07:54:47			0	38304	0	0	0	21309	19880	161476	27360	1054465	46261	107819	0	0	8229	554067	0	0
2024-10-12 07:55:47			0	38305	0	0	0	21298	19880	161584	27327	1054439	46272	107815	0	0	8230	554027	0	0
2024-10-12 07:56:47			0	38306	0	0	0	21306	19880	161516	27253	1054492	46261	107818	0	0	8230	553988	0	0
2024-10-12 07:57:47			0	38317	0	0	0	21296	19880	161432	27352	1054439	46261	107814	0	0	8230	553553	0	0
2024-10-12 07:58:47			0	38316	0	0	0	21290	19880	161464	27001	1054448	46272	107812	0	0	8230	553592	0	0
2024-10-12 07:59:47			0	38316	0	0	0	21296	19870	161436	27215	1054430	46283	107814	0	0	8230	553623	0	0
2024-10-12 08:00:47			0	38324	0	0	0	21303	19890	161444	27053	1054457	46273	107817	0	0	8231	553246	0	0
2024-10-12 08:01:47			0	38314	0	0	0	21301	19880	161500	27012	1054492	46272	107816	0	0	8230	553671	0	0
2024-10-12 08:02:47			0	38340	0	0	0	21301	19870	161388	27166	1054394	46271	107816	0	0	8232	552674	0	0
2024-10-12 08:03:47			0	38320	0	0	0	21314	19880	161424	27339	1054474	46272	107821	0	0	8230	553434	0	0
2024-10-12 08:04:47			0	38326	0	0	0	21306	19880	161444	27255	1054448	46261	107818	0	0	8231	553197	0	0
2024-10-12 08:05:47			0	38334	0	0	0	21314	19880	161392	27199	1054519	46261	107821	0	0	8231	552881	0	0
2024-10-12 08:06:47			0	38335	0	0	0	21296	19870	161420	26975	1054430	46261	107814	0	0	8231	552872	0	0
2024-10-12 08:07:47			0	38353	0	0	0	21298	19870	161380	27246	1054448	46260	107815	0	0	8232	552161	0	0
2024-10-12 08:08:47			0	38354	0	0	0	21288	19880	161444	26878	1054465	46261	107811	0	0	8233	552091	0	0
2024-10-12 08:09:47			0	38341	0	0	0	21296	19870	161448	27130	1054430	46261	107814	0	0	8232	552635	0	0
2024-10-12 08:10:47			0	38347	0	0	0	21293	19880	161508	27090	1054474	46261	107813	0	0	8232	552368	0	0
2024-10-12 08:11:47			0	38349	0	0	0	21293	19870	161396	27111	1054474	46260	107813	0	0	8232	552319	0	0
2024-10-12 08:12:47			0	38337	0	0	0	21301	19870	161400	27154	1054456	46261	107816	0	0	8231	552793	0	0
2024-10-12 08:13:47			0	38352	0	0	0	21293	19870	161312	26981	1054483	46272	107813	0	0	8232	552201	0	0
2024-10-12 08:14:47			0	38342	0	0	0	21288	19860	161352	27367	1054385	46259	107811	0	0	8232	552626	0	0
2024-10-12 08:15:47			0	38364	0	0	0	21290	19880	161404	26833	1054386	46261	107812	0	0	8233	551697	0	0
2024-10-12 08:16:47			0	38358	0	0	0	21306	19870	161276	27095	1054421	46260	107818	0	0	8233	551964	0	0
2024-10-12 08:17:47			0	38373	0	0	0	21296	19870	161292	27213	1054430	46250	107814	0	0	8234	551372	0	0
2024-10-12 08:18:47			0	38372	0	0	0	21306	19870	161284	26935	1054403	46272	107818	0	0	8233	551411	0	0
2024-10-12 08:19:47			0	38358	0	0	0	21306	19860	161332	27015	1054518	46238	107818	0	0	8232	551994	0	0
2024-10-12 08:20:47			0	38384	0	0	0	21309	19870	161248	27234	1054474	46260	107819	0	0	8234	550938	0	0
2024-10-12 08:21:47			0	38356	0	0	0	21298	19880	161376	27386	1054501	46261	107815	0	0	8233	552012	0	0
2024-10-12 08:22:47			0	38370	0	0	0	21306	19870	161360	26981	1054483	46250	107818	0	0	8233	551490	0	0
2024-10-12 08:23:47			0	38370	0	0	0	21303	19870	161280	27092	1054421	46271	107817	0	0	8233	551490	0	0
2024-10-12 08:24:47			0	38388	0	0	0	21290	19870	161332	26896	1054456	46272	107812	0	0	8235	550781	0	0
2024-10-12 08:25:47			0	38381	0	0	0	21298	19880	161388	27069	1054421	46250	107815	0	0	8234	551026	0	0
2024-10-12 08:26:47			0	38373	0	0	0	21298	19870	161228	27090	1054456	46272	107815	0	0	8234	551372	0	0
2024-10-12 08:27:47			0	38377	0	0	0	21290	19870	161260	27140	1054456	46250	107812	0	0	8234	551214	0	0
2024-10-12 08:28:47			0	38384	0	0	0	21298	19880	161196	27161	1054439	46250	107815	0	0	8234	550908	0	0
2024-10-12 08:29:47			0	38365	0	0	0	21296	19870	161172	27050	1054456	46272	107814	0	0	8233	551687	0	0
2024-10-12 08:30:47			0	38374	0	0	0	21288	19870	161164	27010	1054421	46250	107811	0	0	8234	551333	0	0
2024-10-12 08:31:47			0	38367	0	0	0	21293	19870	161260	27171	1054430	46261	107813	0	0	8233	551609	0	0
2024-10-12 08:32:47			0	38385	0	0	0	21293	19870	161176	27090	1054448	46260	107813	0	0	8234	550899	0	0
2024-10-12 08:33:47			0	38384	0	0	0	21303	19860	161264	27078	1054412	46259	107817	0	0	8234	550969	0	0
2024-10-12 08:34:47			0	38387	0	0	0	21296	19860	161168	27164	1054412	46259	107814	0	0	8234	550850	0	0
2024-10-12 08:35:47			0	38386	0	0	0	21296	19870	161164	27010	1054456	46272	107814	0	0	8234	550859	0	0
2024-10-12 08:36:47			0	38394	0	0	0	21298	19870	161188	27393	1054510	46261	107815	0	0	8235	550544	0	0
2024-10-12 08:37:47			0	38396	0	0	0	21285	19870	161252	26878	1054448	46260	107810	0	0	8235	550465	0	0
2024-10-12 08:38:47			0	38391	0	0	0	21288	19860	161200	26942	1054439	46259	107811	0	0	8235	550693	0	0
2024-10-12 08:39:47			0	38381	0	0	0	21296	19870	161248	27345	1054430	46261	107814	0	0	8234	551057	0	0
2024-10-12 08:40:47			0	38375	0	0	0	21288	19870	161160	27215	1054368	46260	107811	0	0	8234	551293	0	0
2024-10-12 08:41:47			0	38392	0	0	0	21296	19870	161176	27319	1054421	46260	107814	0	0	8235	550623	0	0
2024-10-12 08:42:47			0	38388	0	0	0	21301	19870	161200	27320	1054483	46272	107816	0	0	8234	550781	0	0
2024-10-12 08:43:47			0	38405	0	0	0	21296	19860	161136	27150	1054439	46259	107814	0	0	8235	550141	0	0
2024-10-12 08:44:47			0	38394	0	0	0	21301	19870	161200	26935	1054430	46272	107816	0	0	8235	550544	0	0
2024-10-12 08:45:47			0	38398	0	0	0	21293	19870	161032	27248	1054430	46250	107813	0	0	8235	550387	0	0
2024-10-12 08:46:47			0	38380	0	0	0	21296	19860	161144	27190	1054492	46259	107814	0	0	8234	551126	0	0
2024-10-12 08:47:47			0	38388	0	0	0	21293	19870	161216	26811	1054448	46260	107813	0	0	8235	550781	0	0
2024-10-12 08:48:47			0	38367	0	0	0	21293	19870	161260	27265	1054448	46282	107813	0	0	8233	551609	0	0
2024-10-12 08:49:47			0	38388	0	0	0	21296	19870	161204	26994	1054483	46261	107814	0	0	8234	550781	0	0
2024-10-12 08:50:47			0	38374	0	0	0	21290	19870	161132	27093	1054474	46260	107812	0	0	8234	551333	0	0
2024-10-12 08:51:47			0	38398	0	0	0	21293	19870	161144	27133	1054483	46250	107813	0	0	8235	550387	0	0
2024-10-12 08:52:47			0	38398	0	0	0	21309	19870	161224	27351	1054430	46250	107819	0	0	8235	550387	0	0
2024-10-12 08:53:47			0	38367	0	0	0	21296	19870	161252	27020	1054474	46260	107814	0	0	8233	551609	0	0
2024-10-12 08:54:47			0	38357	0	0	0	21306	19870	161288	27138	1054421	46271	107818	0	0	8232	552003	0	0
2024-10-12 08:55:47			0	38342	0	0	0	21316	19870	161388	27246	1054501	46250	107822	0	0	8231	552595	0	0
2024-10-12 08:56:47			0	38348	0	0	0	21303	19860	161400	27275	1054465	46259	107817	0	0	8232	552389	0	0
2024-10-12 08:57:47			0	38353	0	0	0	21303	19870	161332	27319	1054501	46250	107817	0	0	8232	552161	0	0
2024-10-12 08:58:47			0	38363	0	0	0	21309	19880	161332	27338	1054492	46261	107819	0	0	8233	551736	0	0
2024-10-12 08:59:47			0	38379	0	0	0	21311	19870	161176	27043	1054510	46261	107820	0	0	8234	551135	0	0
2024-10-12 09:00:47			0	38369	0	0	0	21309	19870	161192	27228	1054483	46261	107819	0	0	8233	551530	0	0
2024-10-12 09:01:47			0	38385	0	0	0	21301	19880	161236	27201	1054519	46261	107816	0	0	8234	550868	0	0
2024-10-12 09:02:47			0	38389	0	0	0	21303	19870	161184	27282	1054536	46272	107817	0	0	8234	550741	0	0
2024-10-12 09:03:47			0	38392	0	0	0	21311	19880	161220	27088	1054519	46250	107820	0	0	8234	550593	0	0
2024-10-12 09:04:47			0	38398	0	0	0	21301	19880	161228	27183	1054545	46261	107816	0	0	8235	550356	0	0
2024-10-12 09:05:47			0	38394	0	0	0	21314	19880	161192	27112	1054501	46261	107821	0	0	8235	550514	0	0
2024-10-12 09:06:47			0	38394	0	0	0	21309	19880	161108	27372	1054519	46261	107819	0	0	8235	550514	0	0
2024-10-12 09:07:47			0	38396	0	0	0	21311	19880	161108	27294	1054492	46261	107820	0	0	8235	550435	0	0
2024-10-12 09:08:47			0	38381	0	0	0	21309	19880	161088	27260	1054545	46261	107819	0	0	8234	551026	0	0
2024-10-12 09:09:47			0	38405	0	0	0	21314	19880	161088	27417	1054545	46261	107821	0	0	8235	550081	0	0
2024-10-12 09:10:47			0	38419	0	0	0	21316	19880	161160	27294	1054501	46272	107822	0	0	8236	549529	0	0
2024-10-12 09:11:47			0	38414	0	0	0	21303	19880	161024	27206	1054492	46261	107817	0	0	8236	549726	0	0
2024-10-12 09:12:47			0	38418	0	0	0	21306	19880	161072	27216	1054439	46261	107818	0	0	8236	549569	0	0
2024-10-12 09:13:47			0	38426	0	0	0	21301	19880	161124	27396	1054501	46261	107816	0	0	8237	549254	0	0
2024-10-12 09:14:47			0	38414	0	0	0	21303	19880	161052	27365	1054501	46261	107817	0	0	8236	549726	0	0
2024-10-12 09:15:47			0	38428	0	0	0	21293	19870	161068	27163	1054448	46260	107813	0	0	8237	549205	0	0
2024-10-12 09:16:47			0	38442	0	0	0	21290	19880	161080	27222	1054519	46272	107812	0	0	8238	548625	0	0
2024-10-12 09:17:47			0	38407	0	0	0	21298	19880	161072	27296	1054465	46261	107815	0	0	8236	550002	0	0
2024-10-12 09:18:47			0	38408	0	0	0	21309	19880	161072	27421	1054492	46272	107819	0	0	8235	549962	0	0
2024-10-12 09:19:47			0	38408	0	0	0	21293	19880	161172	27156	1054519	46261	107813	0	0	8236	549962	0	0
2024-10-12 09:20:47			0	38418	0	0	0	21298	19880	161112	27223	1054439	46261	107815	0	0	8236	549569	0	0
2024-10-12 09:21:47			0	38417	0	0	0	21314	19880	161104	27381	1054492	46261	107821	0	0	8236	549608	0	0
2024-10-12 09:22:47			0	38402	0	0	0	21303	19880	161040	27651	1054492	46261	107817	0	0	8235	550199	0	0
2024-10-12 09:23:47			0	38414	0	0	0	21309	19880	161044	27448	1054492	46261	107819	0	0	8236	549726	0	0
2024-10-12 09:24:47			0	38441	0	0	0	21316	19880	160972	27360	1054572	46261	107822	0	0	8237	548664	0	0
2024-10-12 09:25:47			0	38424	0	0	0	21303	19880	161040	27085	1054519	46261	107817	0	0	8236	549333	0	0
2024-10-12 09:26:47			0	38437	0	0	0	21296	19880	160980	27173	1054527	46261	107814	0	0	8237	548821	0	0
2024-10-12 09:27:47			0	38414	0	0	0	21311	19880	161024	27435	1054501	46261	107820	0	0	8236	549726	0	0
2024-10-12 09:28:47			0	38420	0	0	0	21314	19880	160984	27319	1054554	46272	107821	0	0	8236	549490	0	0
2024-10-12 09:29:47			0	38431	0	0	0	21309	19880	161104	27203	1054519	46272	107819	0	0	8237	549057	0	0
2024-10-12 09:30:47			0	38433	0	0	0	21301	19880	161008	27476	1054465	46250	107816	0	0	8237	548979	0	0
2024-10-12 09:31:47			0	38431	0	0	0	21301	19880	161016	27157	1054545	46250	107816	0	0	8237	549057	0	0
2024-10-12 09:32:47			0	38414	0	0	0	21296	19880	161060	27216	1054545	46261	107814	0	0	8236	549726	0	0
2024-10-12 09:33:47			0	38426	0	0	0	21309	19880	161048	27559	1054519	46272	107819	0	0	8237	549254	0	0
2024-10-12 09:34:47			0	38428	0	0	0	21322	19880	161000	27549	1054439	46250	107824	0	0	8236	549175	0	0
2024-10-12 09:35:47			0	38428	0	0	0	21322	19880	160960	27150	1054554	46272	107824	0	0	8236	549175	0	0
2024-10-12 09:36:47			0	38413	0	0	0	21316	19880	161056	27530	1054554	46261	107822	0	0	8236	549766	0	0
2024-10-12 09:37:47			0	38419	0	0	0	21322	19880	161096	27391	1054527	46272	107824	0	0	8236	549529	0	0
2024-10-12 09:38:47			0	38431	0	0	0	21322	19880	161072	27455	1054545	46272	107824	0	0	8237	549057	0	0
2024-10-12 09:39:47			0	38439	0	0	0	21327	19890	160956	27171	1054563	46262	107826	0	0	8237	548712	0	0
2024-10-12 09:40:47			0	38439	0	0	0	21322	19880	160968	27157	1054554	46272	107824	0	0	8237	548743	0	0
2024-10-12 09:41:47			0	38450	0	0	0	21327	19880	160908	27095	1054554	46261	107826	0	0	8238	548310	0	0
2024-10-12 09:42:47			0	38442	0	0	0	21319	19890	160896	27350	1054536	46262	107823	0	0	8237	548594	0	0
2024-10-12 09:43:47			0	38450	0	0	0	21324	19880	160760	27533	1054554	46261	107825	0	0	8238	548310	0	0
2024-10-12 09:44:47			0	38469	0	0	0	21324	19890	160872	27623	1054590	46262	107825	0	0	8239	547533	0	0
2024-10-12 09:45:47			0	38458	0	0	0	21327	19890	160808	27351	1054598	46263	107826	0	0	8238	547966	0	0
2024-10-12 09:46:47			0	38472	0	0	0	21335	19880	160744	27326	1054554	46261	107829	0	0	8239	547446	0	0
2024-10-12 09:47:47			0	38470	0	0	0	21342	19890	160844	27197	1054563	46262	107832	0	0	8239	547494	0	0
2024-10-12 09:48:47			0	38466	0	0	0	21335	19890	160872	27332	1054678	46274	107829	0	0	8238	547651	0	0
2024-10-12 09:49:47			0	38464	0	0	0	21335	19890	160804	27228	1054572	46263	107829	0	0	8238	547730	0	0
2024-10-12 09:50:47			0	38486	0	0	0	21342	19900	160772	27613	1054661	46242	107832	0	0	8240	546836	0	0
2024-10-12 09:51:47			0	38484	0	0	0	21345	19900	160760	27343	1054687	46263	107833	0	0	8239	546914	0	0
2024-10-12 09:52:47			0	38493	0	0	0	21350	19900	160816	27275	1054687	46263	107835	0	0	8240	546561	0	0
2024-10-12 09:53:47			0	38513	0	0	0	21348	19900	160748	27289	1054661	46263	107834	0	0	8241	545777	0	0
2024-10-12 09:54:47			0	38494	0	0	0	21348	19900	160672	27564	1054696	46274	107834	0	0	8240	546522	0	0
2024-10-12 09:55:47			0	38493	0	0	0	21348	19890	160692	27573	1054652	46274	107834	0	0	8240	546591	0	0
2024-10-12 09:56:47			0	38486	0	0	0	21350	19900	160756	27471	1054696	46274	107835	0	0	8239	546836	0	0
2024-10-12 09:57:47			0	38485	0	0	0	21350	19910	160712	27490	1054705	46264	107835	0	0	8239	546845	0	0
2024-10-12 09:58:47			0	38507	0	0	0	21355	19900	160684	27460	1054696	46242	107837	0	0	8241	546012	0	0
2024-10-12 09:59:47			0	38498	0	0	0	21363	19910	160752	27561	1054741	46276	107840	0	0	8240	546335	0	0
2024-10-12 10:00:47			0	38485	0	0	0	21361	19910	160696	27319	1054767	46265	107839	0	0	8239	546845	0	0
2024-10-12 10:01:47			0	38496	0	0	0	21366	19910	160764	27500	1054687	46265	107841	0	0	8240	546414	0	0
2024-10-12 10:02:47			0	38501	0	0	0	21361	19910	160836	27530	1054732	46275	107839	0	0	8240	546218	0	0
2024-10-12 10:03:47			0	38497	0	0	0	21363	19930	160716	27538	1054794	46277	107840	0	0	8240	546314	0	0
2024-10-12 10:04:47			0	38479	0	0	0	21376	19910	160792	27410	1054687	46254	107845	0	0	8239	547081	0	0
2024-10-12 10:05:47			0	38508	0	0	0	21371	19930	160764	27699	1054829	46256	107843	0	0	8240	545883	0	0
2024-10-12 10:06:47			0	38492	0	0	0	21371	19930	160672	27616	1054820	46266	107843	0	0	8240	546510	0	0
2024-10-12 10:07:47			0	38497	0	0	0	21376	19930	160704	27429	1054776	46278	107845	0	0	8240	546314	0	0
2024-10-12 10:08:47			0	38514	0	0	0	21384	19930	160764	27410	1054874	46277	107848	0	0	8241	545648	0	0
2024-10-12 10:09:47			0	38501	0	0	0	21381	19930	160756	27400	1054829	46278	107847	0	0	8240	546157	0	0
2024-10-12 10:10:47			0	38514	0	0	0	21386	19920	160712	27203	1054785	46265	107849	0	0	8241	545678	0	0
2024-10-12 10:11:47			0	38505	0	0	0	21384	19940	160688	27374	1054812	46267	107848	0	0	8240	545970	0	0
2024-10-12 10:12:47			0	38506	0	0	0	21386	19950	160780	27312	1054936	46279	107849	0	0	8240	545901	0	0
2024-10-12 10:13:47			0	38507	0	0	0	21399	19950	160692	27216	1054909	46279	107854	0	0	8240	545862	0	0
2024-10-12 10:14:47			0	38521	0	0	0	21399	19940	160688	27203	1054865	46267	107854	0	0	8241	545343	0	0
2024-10-12 10:15:47			0	38514	0	0	0	21399	19940	160680	27346	1054847	46279	107854	0	0	8240	545618	0	0
2024-10-12 10:16:47			0	38515	0	0	0	21405	19950	160596	27244	1054892	46269	107856	0	0	8240	545549	0	0
2024-10-12 10:17:47			0	38513	0	0	0	21392	19960	160724	27476	1054874	46280	107851	0	0	8241	545597	0	0
2024-10-12 10:18:47			0	38517	0	0	0	21402	19950	160692	27438	1054945	46269	107855	0	0	8241	545470	0	0
2024-10-12 10:19:47			0	38508	0	0	0	21394	19960	160584	27542	1054927	46280	107852	0	0	8240	545793	0	0
2024-10-12 10:20:47			0	38531	0	0	0	21410	19960	160548	27364	1054954	46258	107858	0	0	8241	544892	0	0
2024-10-12 10:21:47			0	38527	0	0	0	21397	19950	160596	27580	1054971	46280	107853	0	0	8241	545078	0	0
2024-10-12 10:22:47			0	38526	0	0	0	21405	19950	160592	27661	1054892	46269	107856	0	0	8241	545118	0	0
2024-10-12 10:23:47			0	38523	0	0	0	21405	19970	160608	27559	1054989	46281	107856	0	0	8241	545175	0	0
2024-10-12 10:24:47			0	38519	0	0	0	21410	19970	160636	27536	1054936	46281	107858	0	0	8241	545332	0	0
2024-10-12 10:25:47			0	38519	0	0	0	21402	19960	160592	27556	1054954	46280	107855	0	0	8241	545362	0	0
2024-10-12 10:26:47			0	38529	0	0	0	21415	19970	160448	27450	1054989	46281	107860	0	0	8241	544940	0	0
2024-10-12 10:27:47			0	38534	0	0	0	21405	19970	160516	27341	1054945	46270	107856	0	0	8242	544744	0	0
2024-10-12 10:28:47			0	38542	0	0	0	21423	19970	160540	27809	1054936	46291	107863	0	0	8242	544431	0	0
2024-10-12 10:29:47			0	38544	0	0	0	21418	19980	160464	27486	1054981	46260	107861	0	0	8242	544323	0	0
2024-10-12 10:30:47			0	38542	0	0	0	21415	19980	160556	27526	1055016	46283	107860	0	0	8242	544401	0	0
2024-10-12 10:31:47			0	38533	0	0	0	21418	19980	160524	27516	1054981	46271	107861	0	0	8241	544754	0	0
2024-10-12 10:32:47			0	38549	0	0	0	21418	19980	160560	27339	1055008	46282	107861	0	0	8242	544128	0	0
2024-10-12 10:33:47			0	38523	0	0	0	21418	19980	160528	27599	1054981	46282	107861	0	0	8241	545145	0	0
2024-10-12 10:34:47			0	38541	0	0	0	21418	19980	160484	27327	1055034	46271	107861	0	0	8242	544440	0	0
2024-10-12 10:35:47			0	38532	0	0	0	21433	19970	160576	27486	1055052	46281	107867	0	0	8241	544823	0	0
2024-10-12 10:36:47			0	38518	0	0	0	21425	19990	160556	27421	1055052	46272	107864	0	0	8240	545311	0	0
2024-10-12 10:37:47			0	38544	0	0	0	21436	19990	160572	27462	1055061	46283	107868	0	0	8242	544293	0	0
2024-10-12 10:38:47			0	38559	0	0	0	21431	19990	160476	27762	1055105	46283	107866	0	0	8243	543707	0	0
2024-10-12 10:39:47			0	38545	0	0	0	21431	19990	160420	27718	1055052	46272	107866	0	0	8242	544254	0	0
2024-10-12 10:40:47			0	38566	0	0	0	21438	20000	160472	27789	1055096	46284	107869	0	0	8243	543403	0	0
2024-10-12 10:41:47			0	38556	0	0	0	21431	19990	160408	27640	1055052	46272	107866	0	0	8243	543824	0	0
2024-10-12 10:42:47			0	38546	0	0	0	21431	20000	160484	27386	1055132	46285	107866	0	0	8242	544185	0	0
2024-10-12 10:43:47			0	38552	0	0	0	21446	19990	160468	27478	1055141	46283	107872	0	0	8242	543980	0	0
2024-10-12 10:44:47			0	38565	0	0	0	21433	20000	160452	27244	1055123	46284	107867	0	0	8243	543442	0	0
2024-10-12 10:45:47			0	38545	0	0	0	21441	20000	160400	27625	1055096	46295	107870	0	0	8242	544224	0	0
2024-10-12 10:46:47			0	38549	0	0	0	21446	20000	160508	27208	1055132	46285	107872	0	0	8242	544068	0	0
2024-10-12 10:47:47			0	38548	0	0	0	21451	20010	160480	27559	1055141	46274	107874	0	0	8242	544077	0	0
2024-10-12 10:48:47			0	38562	0	0	0	21441	20000	160468	27390	1055132	46274	107870	0	0	8243	543559	0	0
2024-10-12 10:49:47			0	38558	0	0	0	21444	20010	160460	27339	1055168	46274	107871	0	0	8243	543686	0	0
2024-10-12 10:50:47			0	38558	0	0	0	21438	20010	160452	27277	1055194	46285	107869	0	0	8243	543686	0	0
2024-10-12 10:51:47			0	38564	0	0	0	21444	20010	160508	27497	1055203	46286	107871	0	0	8243	543451	0	0
2024-10-12 10:52:47			0	38543	0	0	0	21444	20020	160500	27286	1055239	46297	107871	0	0	8242	544242	0	0
2024-10-12 10:53:47			0	38546	0	0	0	21459	20020	160492	27268	1055132	46286	107877	0	0	8242	544125	0	0
2024-10-12 10:54:47			0	38570	0	0	0	21459	20010	160432	27476	1055168	46274	107877	0	0	8243	543217	0	0
2024-10-12 10:55:47			0	38567	0	0	0	21454	20010	160416	27414	1055176	46286	107875	0	0	8243	543334	0	0
2024-10-12 10:56:47			0	38569	0	0	0	21441	20020	160432	27201	1055239	46286	107870	0	0	8243	543226	0	0
2024-10-12 10:57:47			0	38580	0	0	0	21446	20020	160484	27313	1055239	46286	107872	0	0	8244	542796	0	0
2024-10-12 10:58:47			0	38575	0	0	0	21449	20010	160312	27388	1055150	46264	107873	0	0	8243	543021	0	0
2024-10-12 10:59:47			0	38592	0	0	0	21451	20020	160252	27301	1055185	46286	107874	0	0	8244	542328	0	0
2024-10-12 11:00:47			0	38571	0	0	0	21454	20010	160312	27362	1055230	46286	107875	0	0	8243	543178	0	0
2024-10-12 11:01:47			0	38580	0	0	0	21459	20020	160172	27374	1055212	46275	107877	0	0	8244	542796	0	0
2024-10-12 11:02:47			0	38606	0	0	0	21457	20030	160196	27433	1055256	46287	107876	0	0	8245	541752	0	0
2024-10-12 11:03:47			0	38611	0	0	0	21459	20030	160216	27170	1055256	46287	107877	0	0	8245	541557	0	0
2024-10-12 11:04:47			0	38605	0	0	0	21457	20020	160076	27334	1055194	46276	107876	0	0	8245	541820	0	0
2024-10-12 11:05:47			0	38611	0	0	0	21459	20020	160124	27452	1055248	46287	107877	0	0	8245	541586	0	0
2024-10-12 11:06:47			0	38595	0	0	0	21454	20020	160128	27121	1055239	46286	107875	0	0	8245	542210	0	0
2024-10-12 11:07:47			0	38588	0	0	0	21449	20020	160204	27280	1055248	46265	107873	0	0	8244	542484	0	0
2024-10-12 11:08:47			0	38590	0	0	0	21454	20030	160276	27246	1055256	46287	107875	0	0	8244	542376	0	0
2024-10-12 11:09:47			0	38569	0	0	0	21459	20020	160296	27183	1055185	46286	107877	0	0	8243	543226	0	0
2024-10-12 11:10:47			0	38562	0	0	0	21459	20020	160236	27241	1055265	46286	107877	0	0	8243	543499	0	0
2024-10-12 11:11:47			0	38584	0	0	0	21462	20030	160300	27272	1055203	46276	107878	0	0	8244	542610	0	0
2024-10-12 11:12:47			0	38582	0	0	0	21457	20020	160236	27111	1055221	46298	107876	0	0	8244	542718	0	0
2024-10-12 11:13:47			0	38583	0	0	0	21464	20030	160380	27232	1055230	46298	107879	0	0	8244	542649	0	0
2024-10-12 11:14:47			0	38564	0	0	0	21467	20030	160328	27289	1055203	46287	107880	0	0	8243	543391	0	0
2024-10-12 11:15:47			0	38586	0	0	0	21467	20030	160204	27267	1055310	46265	107880	0	0	8244	542532	0	0
2024-10-12 11:16:47			0	38560	0	0	0	21462	20030	160340	27701	1055283	46287	107878	0	0	8242	543547	0	0
2024-10-12 11:17:47			0	38552	0	0	0	21457	20020	160516	27464	1055274	46276	107876	0	0	8242	543890	0	0
2024-10-12 11:18:47			0	38567	0	0	0	21470	20030	160296	27367	1055319	46288	107881	0	0	8243	543274	0	0
2024-10-12 11:19:47			0	38585	0	0	0	21483	20030	160144	27303	1055319	46288	107886	0	0	8244	542571	0	0
2024-10-12 11:20:47			0	38608	0	0	0	21475	20030	160228	27069	1055345	46288	107883	0	0	8245	541673	0	0
2024-10-12 11:21:47			0	38619	0	0	0	21475	20030	160088	27173	1055345	46288	107883	0	0	8246	541245	0	0
2024-10-12 11:22:47			0	38616	0	0	0	21483	20040	160184	27421	1055354	46288	107886	0	0	8245	541332	0	0
2024-10-12 11:23:47			0	38599	0	0	0	21490	20030	160088	27367	1055319	46288	107889	0	0	8244	542025	0	0
2024-10-12 11:24:47			0	38605	0	0	0	21490	20040	160112	27592	1055390	46289	107889	0	0	8245	541761	0	0
2024-10-12 11:25:47			0	38612	0	0	0	21496	20030	160092	27440	1055372	46299	107891	0	0	8245	541518	0	0
2024-10-12 11:26:47			0	38640	0	0	0	21496	20050	160096	27395	1055434	46301	107891	0	0	8247	540367	0	0
2024-10-12 11:27:47			0	38638	0	0	0	21509	20050	160064	27379	1055372	46289	107896	0	0	8246	540445	0	0
2024-10-12 11:28:47			0	38647	0	0	0	21501	20050	160028	27088	1055381	46290	107893	0	0	8247	540094	0	0
2024-10-12 11:29:47			0	38643	0	0	0	21496	20050	159984	27320	1055434	46290	107891	0	0	8247	540250	0	0
2024-10-12 11:30:47			0	38653	0	0	0	21498	20060	159964	27315	1055443	46290	107892	0	0	8247	539831	0	0
2024-10-12 11:31:47			0	38658	0	0	0	21503	20060	159936	27322	1055443	46301	107894	0	0	8248	539636	0	0
2024-10-12 11:32:47			0	38684	0	0	0	21509	20060	159848	27355	1055443	46290	107896	0	0	8249	538625	0	0
2024-10-12 11:33:47			0	38701	0	0	0	21506	20050	159752	27121	1055407	46279	107895	0	0	8250	537995	0	0
2024-10-12 11:34:47			0	38711	0	0	0	21514	20060	159724	27256	1055505	46302	107898	0	0	8250	537577	0	0
2024-10-12 11:35:47			0	38710	0	0	0	21514	20070	159712	27294	1055434	46291	107898	0	0	8250	537586	0	0
2024-10-12 11:36:47			0	38745	0	0	0	21514	20070	159585	27332	1055487	46291	107898	0	0	8253	536228	0	0
2024-10-12 11:37:47			0	38732	0	0	0	21522	20060	159572	27064	1055470	46312	107901	0	0	8252	536762	0	0
2024-10-12 11:38:47			0	38739	0	0	0	21514	20060	159573	27133	1055505	46291	107898	0	0	8252	536490	0	0
2024-10-12 11:39:47			0	38762	0	0	0	21522	20060	159393	27253	1055532	46280	107901	0	0	8253	535599	0	0
2024-10-12 11:40:47			0	38765	0	0	0	21527	20080	159305	27564	1055479	46304	107903	0	0	8253	535424	0	0
2024-10-12 11:41:47			0	38786	0	0	0	21535	20080	159361	27409	1055585	46292	107906	0	0	8255	534611	0	0
2024-10-12 11:42:47			0	38785	0	0	0	21532	20080	159349	27822	1055514	46292	107905	0	0	8255	534650	0	0
2024-10-12 11:43:47			0	38805	0	0	0	21527	20080	159297	27478	1055532	46292	107903	0	0	8256	533876	0	0
2024-10-12 11:44:47			0	38805	0	0	0	21532	20080	159281	27379	1055559	46292	107905	0	0	8256	533876	0	0
2024-10-12 11:45:47			0	38806	0	0	0	21527	20080	159317	27576	1055559	46292	107903	0	0	8256	533838	0	0
2024-10-12 11:46:47			0	38798	0	0	0	21532	20080	159365	27639	1055541	46292	107905	0	0	8255	534147	0	0
2024-10-12 11:47:47			0	38798	0	0	0	21522	20090	159309	27251	1055603	46293	107901	0	0	8256	534117	0	0
2024-10-12 11:48:47			0	38806	0	0	0	21527	20090	159373	27123	1055603	46293	107903	0	0	8256	533808	0	0
2024-10-12 11:49:47			0	38808	0	0	0	21540	20090	159337	27656	1055612	46293	107908	0	0	8256	533731	0	0
2024-10-12 11:50:47			0	38840	0	0	0	21537	20100	159205	27410	1055604	46294	107907	0	0	8258	532466	0	0
2024-10-12 11:51:47			0	38817	0	0	0	21532	20090	159137	27279	1055603	46293	107905	0	0	8256	533383	0	0
2024-10-12 11:52:47			0	38819	0	0	0	21524	20080	159161	27604	1055594	46292	107902	0	0	8257	533335	0	0
2024-10-12 11:53:47			0	38814	0	0	0	21535	20090	159273	27736	1055550	46305	107906	0	0	8256	533499	0	0
2024-10-12 11:54:47			0	38816	0	0	0	21535	20090	159265	27431	1055665	46293	107906	0	0	8256	533422	0	0
2024-10-12 11:55:47			0	38808	0	0	0	21527	20100	159305	27350	1055621	46284	107903	0	0	8256	533701	0	0
2024-10-12 11:56:47			0	38803	0	0	0	21535	20090	159245	27345	1055586	46272	107906	0	0	8256	533924	0	0
2024-10-12 11:57:47			0	38799	0	0	0	21532	20090	159189	27289	1055576	46293	107905	0	0	8255	534079	0	0
2024-10-12 11:58:47			0	38843	0	0	0	21537	20100	159161	27706	1055657	46294	107907	0	0	8258	532350	0	0
2024-10-12 11:59:47			0	38879	0	0	0	21545	20090	159021	27448	1055665	46316	107910	0	0	8260	530991	0	0
2024-10-12 12:00:47			0	38848	0	0	0	21542	20100	159149	27550	1055648	46294	107909	0	0	8258	532157	0	0
2024-10-12 12:01:47			0	38858	0	0	0	21537	20100	159025	27272	1055621	46306	107907	0	0	8259	531771	0	0
2024-10-12 12:02:47			0	38847	0	0	0	21545	20100	159125	27845	1055621	46294	107910	0	0	8258	532195	0	0
2024-10-12 12:03:47			0	38845	0	0	0	21542	20100	159213	27445	1055683	46294	107909	0	0	8258	532273	0	0
2024-10-12 12:04:47			0	38851	0	0	0	21545	20110	159085	27393	1055621	46307	107910	0	0	8258	532012	0	0
2024-10-12 12:05:47			0	38862	0	0	0	21555	20100	158961	27588	1055657	46294	107914	0	0	8259	531617	0	0
2024-10-12 12:06:47			0	38896	0	0	0	21555	20090	158829	27263	1055630	46293	107914	0	0	8261	530336	0	0
2024-10-12 12:07:47			0	38935	0	0	0	21558	20110	158757	27611	1055666	46307	107915	0	0	8263	528778	0	0
2024-10-12 12:08:47			0	38955	0	0	0	21563	20110	158693	27156	1055728	46285	107917	0	0	8264	528009	0	0
2024-10-12 12:09:47			0	38986	0	0	0	21566	20110	158633	27450	1055719	46285	107918	0	0	8266	526820	0	0
2024-10-12 12:10:47			0	39001	0	0	0	21566	20120	158433	27547	1055790	46286	107918	0	0	8267	526216	0	0
2024-10-12 12:11:47			0	39006	0	0	0	21566	20110	158449	27512	1055754	46307	107918	0	0	8267	526053	0	0
2024-10-12 12:12:47			0	39024	0	0	0	21568	20110	158477	27698	1055808	46307	107919	0	0	8268	525364	0	0
2024-10-12 12:13:47			0	39024	0	0	0	21566	20110	158437	27376	1055754	46296	107918	0	0	8268	525364	0	0
2024-10-12 12:14:47			0	39028	0	0	0	21566	20130	158341	27481	1055808	46297	107918	0	0	8268	525153	0	0
2024-10-12 12:15:47			0	39051	0	0	0	21571	20120	158329	27715	1055790	46297	107920	0	0	8270	524302	0	0
2024-10-12 12:16:47			0	39042	0	0	0	21571	20130	158349	27341	1055781	46287	107920	0	0	8269	524617	0	0
2024-10-12 12:17:47			0	39061	0	0	0	21568	20130	158381	27644	1055808	46297	107919	0	0	8270	523890	0	0
2024-10-12 12:18:47			0	39081	0	0	0	21586	20130	158201	27516	1055817	46309	107926	0	0	8271	523126	0	0
2024-10-12 12:19:47			0	39078	0	0	0	21573	20130	158345	27301	1055834	46297	107921	0	0	8271	523241	0	0
2024-10-12 12:20:47			0	39102	0	0	0	21579	20130	158149	27338	1055781	46287	107923	0	0	8272	522325	0	0
2024-10-12 12:21:47			0	39121	0	0	0	21579	20130	158085	27729	1055843	46309	107923	0	0	8274	521600	0	0
2024-10-12 12:22:47			0	39136	0	0	0	21584	20140	158089	27050	1055826	46310	107925	0	0	8274	521000	0	0
2024-10-12 12:23:47			0	39140	0	0	0	21586	20140	157985	27514	1055826	46298	107926	0	0	8275	520847	0	0
2024-10-12 12:24:47			0	39152	0	0	0	21592	20150	157937	27640	1055799	46300	107928	0	0	8275	520362	0	0
2024-10-12 12:25:47			0	39199	0	0	0	21599	20150	157877	27557	1055826	46300	107931	0	0	8278	518574	0	0
2024-10-12 12:26:47			0	39198	0	0	0	21594	20140	157825	27653	1055861	46311	107929	0	0	8278	518641	0	0
2024-10-12 12:27:47			0	39209	0	0	0	21597	20160	157625	27720	1055861	46301	107930	0	0	8278	518166	0	0
2024-10-12 12:28:47			0	39243	0	0	0	21599	20150	157617	27630	1055870	46322	107931	0	0	8280	516904	0	0
2024-10-12 12:29:47			0	39248	0	0	0	21610	20150	157425	27419	1055950	46289	107935	0	0	8280	516715	0	0
2024-10-12 12:30:47			0	39273	0	0	0	21610	20150	157485	27466	1055923	46322	107935	0	0	8282	515768	0	0
2024-10-12 12:31:47			0	39291	0	0	0	21612	20150	157421	27346	1055985	46300	107936	0	0	8283	515086	0	0
2024-10-12 12:32:47			0	39296	0	0	0	21602	20160	157317	27459	1055968	46312	107932	0	0	8283	514869	0	0
2024-10-12 12:33:47			0	39301	0	0	0	21612	20160	157385	27588	1055994	46312	107936	0	0	8284	514679	0	0
2024-10-12 12:34:47			0	39282	0	0	0	21610	20160	157365	27563	1055924	46302	107935	0	0	8282	515398	0	0
2024-10-12 12:35:47			0	39272	0	0	0	21607	20170	157449	27651	1056065	46324	107934	0	0	8282	515749	0	0
2024-10-12 12:36:47			0	39267	0	0	0	21612	20160	157449	27710	1055950	46302	107936	0	0	8282	515966	0	0
2024-10-12 12:37:47			0	39273	0	0	0	21623	20160	157433	27291	1056003	46291	107940	0	0	8282	515739	0	0
2024-10-12 12:38:47			0	39291	0	0	0	21618	20170	157409	27791	1056021	46303	107938	0	0	8283	515029	0	0
2024-10-12 12:39:47			0	39276	0	0	0	21618	20180	157453	27350	1056030	46314	107938	0	0	8282	515569	0	0
2024-10-12 12:40:47			0	39285	0	0	0	21612	20180	157409	27620	1056039	46315	107936	0	0	8283	515228	0	0
2024-10-12 12:41:47			0	39270	0	0	0	21615	20180	157473	27556	1056083	46303	107937	0	0	8282	515796	0	0
2024-10-12 12:42:47			0	39224	0	0	0	21612	20180	157597	27734	1056083	46303	107936	0	0	8279	517540	0	0
2024-10-12 12:43:47			0	39226	0	0	0	21607	20170	157669	27698	1056012	46302	107934	0	0	8279	517492	0	0
2024-10-12 12:44:47			0	39210	0	0	0	21610	20170	157725	27744	1056101	46303	107935	0	0	8278	518100	0	0
2024-10-12 12:45:47			0	39198	0	0	0	21618	20190	157585	27718	1056101	46293	107938	0	0	8278	518498	0	0
2024-10-12 12:46:47			0	39228	0	0	0	21625	20180	157601	27595	1056110	46314	107941	0	0	8279	517388	0	0
2024-10-12 12:47:47			0	39230	0	0	0	21623	20190	157565	27762	1056075	46293	107940	0	0	8279	517283	0	0
2024-10-12 12:48:47			0	39236	0	0	0	21618	20180	157569	27523	1056083	46303	107938	0	0	8280	517084	0	0
2024-10-12 12:49:47			0	39232	0	0	0	21625	20180	157605	27680	1056057	46291	107941	0	0	8279	517236	0	0
2024-10-12 12:50:47			0	39205	0	0	0	21618	20190	157645	27540	1056154	46316	107938	0	0	8278	518232	0	0
2024-10-12 12:51:47			0	39199	0	0	0	21628	20180	157789	27365	1056066	46292	107942	0	0	8277	518489	0	0
2024-10-12 12:52:47			0	39178	0	0	0	21631	20190	157781	27675	1056110	46293	107943	0	0	8276	519258	0	0
2024-10-12 12:53:47			0	39160	0	0	0	21636	20190	157833	27398	1056154	46305	107945	0	0	8275	519942	0	0
2024-10-12 12:54:47			0	39165	0	0	0	21633	20200	157817	27263	1056146	46305	107944	0	0	8275	519724	0	0
2024-10-12 12:55:47			0	39201	0	0	0	21651	20190	157665	27486	1056110	46305	107951	0	0	8277	518384	0	0
2024-10-12 12:56:47			0	39256	0	0	0	21657	20200	157641	27538	1056199	46293	107953	0	0	8280	516269	0	0
2024-10-12 12:57:47			0	39284	0	0	0	21646	20190	157585	27803	1056110	46305	107949	0	0	8282	515237	0	0
2024-10-12 12:58:47			0	39252	0	0	0	21636	20190	157481	27566	1056137	46316	107945	0	0	8280	516449	0	0
2024-10-12 12:59:47			0	39223	0	0	0	21636	20200	157569	27549	1056234	46294	107945	0	0	8279	517520	0	0
2024-10-12 13:00:47			0	39212	0	0	0	21641	20210	157585	27760	1056217	46329	107947	0	0	8278	517909	0	0
2024-10-12 13:01:47			0	39222	0	0	0	21644	20210	157581	27881	1056137	46318	107948	0	0	8279	517530	0	0
2024-10-12 13:02:47			0	39256	0	0	0	21659	20200	157549	27564	1056234	46306	107954	0	0	8280	516269	0	0
2024-10-12 13:03:47			0	39281	0	0	0	21659	20210	157401	27564	1056137	46318	107954	0	0	8282	515294	0	0
2024-10-12 13:04:47			0	39317	0	0	0	21667	20210	157281	27710	1056226	46307	107957	0	0	8284	513933	0	0
2024-10-12 13:05:47			0	39317	0	0	0	21662	20210	157309	27562	1056226	46318	107955	0	0	8284	513933	0	0
2024-10-12 13:06:47			0	39353	0	0	0	21680	20210	157125	27736	1056252	46318	107962	0	0	8286	512573	0	0
2024-10-12 13:07:47			0	39384	0	0	0	21680	20210	156985	27925	1056297	46318	107962	0	0	8287	511405	0	0
2024-10-12 13:08:47			0	39420	0	0	0	21690	20220	156849	27514	1056297	46308	107966	0	0	8289	510021	0	0
2024-10-12 13:09:47			0	39464	0	0	0	21685	20230	156670	27911	1056386	46309	107964	0	0	8292	508339	0	0
2024-10-12 13:10:47			0	39478	0	0	0	21680	20230	156702	27731	1056280	46320	107962	0	0	8293	507814	0	0
2024-10-12 13:11:47			0	39400	0	0	0	21675	20230	156837	27932	1056359	46320	107960	0	0	8288	510745	0	0
2024-10-12 13:12:47			0	39386	0	0	0	21680	20230	156989	27575	1056368	46309	107962	0	0	8288	511273	0	0
2024-10-12 13:13:47			0	39366	0	0	0	21672	20240	157057	27526	1056351	46320	107959	0	0	8287	511998	0	0
2024-10-12 13:14:47			0	39349	0	0	0	21672	20230	157201	27552	1056395	46309	107959	0	0	8286	512668	0	0
2024-10-12 13:15:47			0	39348	0	0	0	21672	20240	157225	27569	1056324	46309	107959	0	0	8286	512677	0	0
2024-10-12 13:16:47			0	39346	0	0	0	21685	20240	157185	27703	1056324	46309	107964	0	0	8285	512753	0	0
2024-10-12 13:17:47			0	39383	0	0	0	21685	20250	157061	27672	1056342	46333	107964	0	0	8287	511329	0	0
2024-10-12 13:18:47			0	39398	0	0	0	21685	20240	157009	27826	1056360	46310	107964	0	0	8288	510793	0	0
2024-10-12 13:19:47			0	39424	0	0	0	21693	20250	156846	27580	1056395	46333	107967	0	0	8290	509786	0	0
2024-10-12 13:20:47			0	39447	0	0	0	21698	20250	156826	27566	1056368	46322	107969	0	0	8291	508922	0	0
2024-10-12 13:21:47			0	39404	0	0	0	21685	20260	156914	27395	1056377	46312	107964	0	0	8289	510510	0	0
2024-10-12 13:22:47			0	39360	0	0	0	21672	20250	157173	27412	1056395	46322	107959	0	0	8286	512196	0	0
2024-10-12 13:23:47			0	39272	0	0	0	21659	20260	157353	27701	1056431	46300	107954	0	0	8281	515492	0	0
2024-10-12 13:24:47			0	39221	0	0	0	21664	20260	157725	27710	1056431	46300	107956	0	0	8278	517425	0	0
2024-10-12 13:25:47			0	39192	0	0	0	21675	20260	157853	27807	1056377	46323	107960	0	0	8277	518525	0	0
2024-10-12 13:26:47			0	39205	0	0	0	21683	20260	157697	27727	1056377	46290	107963	0	0	8277	518032	0	0
2024-10-12 13:27:47			0	39162	0	0	0	21664	20240	157789	27599	1056360	46310	107956	0	0	8275	519723	0	0
2024-10-12 13:28:47			0	39145	0	0	0	21675	20260	157841	27781	1056377	46312	107960	0	0	8274	520312	0	0
2024-10-12 13:29:47			0	39186	0	0	0	21677	20250	157801	27502	1056422	46299	107961	0	0	8276	518782	0	0
2024-10-12 13:30:47			0	39186	0	0	0	21675	20240	157677	27632	1056306	46310	107960	0	0	8276	518811	0	0
2024-10-12 13:31:47			0	39207	0	0	0	21677	20240	157685	27609	1056297	46309	107961	0	0	8277	518013	0	0
2024-10-12 13:32:47			0	39174	0	0	0	21670	20240	157741	27421	1056351	46297	107958	0	0	8276	519267	0	0
2024-10-12 13:33:47			0	39167	0	0	0	21677	20240	157825	27462	1056360	46310	107961	0	0	8275	519533	0	0
2024-10-12 13:34:47			0	39155	0	0	0	21662	20240	157869	27666	1056333	46298	107955	0	0	8275	519989	0	0
2024-10-12 13:35:47			0	39142	0	0	0	21664	20240	157849	27597	1056377	46297	107956	0	0	8274	520484	0	0
2024-10-12 13:36:47			0	39155	0	0	0	21677	20240	157905	27315	1056386	46310	107961	0	0	8274	519989	0	0
2024-10-12 13:37:47			0	39135	0	0	0	21677	20240	157873	27597	1056360	46321	107961	0	0	8273	520750	0	0
2024-10-12 13:38:47			0	39153	0	0	0	21685	20240	157873	27699	1056306	46310	107964	0	0	8274	520065	0	0
2024-10-12 13:39:47			0	39162	0	0	0	21683	20240	157821	27535	1056360	46310	107963	0	0	8275	519723	0	0
2024-10-12 13:40:47			0	39148	0	0	0	21683	20250	157937	27395	1056368	46322	107963	0	0	8274	520227	0	0
2024-10-12 13:41:47			0	39133	0	0	0	21690	20240	157985	27588	1056351	46297	107966	0	0	8273	520827	0	0
2024-10-12 13:42:47			0	39139	0	0	0	21701	20240	157953	27563	1056404	46309	107970	0	0	8273	520598	0	0
2024-10-12 13:43:47			0	39172	0	0	0	21706	20250	157757	27708	1056448	46311	107972	0	0	8275	519314	0	0
2024-10-12 13:44:47			0	39166	0	0	0	21706	20250	157793	27476	1056422	46311	107972	0	0	8275	519542	0	0
2024-10-12 13:45:47			0	39190	0	0	0	21711	20260	157741	27521	1056351	46312	107974	0	0	8276	518601	0	0
2024-10-12 13:46:47			0	39188	0	0	0	21722	20250	157797	27428	1056448	46311	107978	0	0	8276	518706	0	0
2024-10-12 13:47:47			0	39180	0	0	0	21724	20270	157737	27582	1056475	46323	107979	0	0	8275	518953	0	0
2024-10-12 13:48:47			0	39209	0	0	0	21753	20270	157781	27519	1056502	46312	107990	0	0	8276	517851	0	0
2024-10-12 13:49:47			0	39215	0	0	0	21742	20270	157689	27682	1056564	46313	107986	0	0	8277	517624	0	0
2024-10-12 13:50:47			0	39192	0	0	0	21750	20270	157689	27869	1056581	46333	107989	0	0	8275	518497	0	0
2024-10-12 13:51:47			0	39194	0	0	0	21768	20290	157657	27434	1056591	46325	107996	0	0	8275	518364	0	0
2024-10-12 13:52:47			0	39254	0	0	0	21774	20290	157421	27495	1056653	46336	107998	0	0	8279	516088	0	0
2024-10-12 13:53:47			0	39297	0	0	0	21776	20290	157253	27419	1056679	46336	107999	0	0	8281	514461	0	0
2024-10-12 13:54:47			0	39323	0	0	0	21776	20290	157169	27909	1056697	46346	107999	0	0	8283	513479	0	0
2024-10-12 13:55:47			0	39323	0	0	0	21781	20310	157149	27883	1056733	46337	108001	0	0	8283	513422	0	0
2024-10-12 13:56:47			0	39331	0	0	0	21779	20310	157249	27303	1056759	46327	108000	0	0	8283	513120	0	0
2024-10-12 13:57:47			0	39279	0	0	0	21774	20320	157293	27906	1056804	46329	107998	0	0	8280	515057	0	0
2024-10-12 13:58:47			0	39242	0	0	0	21776	20320	157473	27537	1056751	46329	107999	0	0	8278	516457	0	0
2024-10-12 13:59:47			0	39232	0	0	0	21792	20330	157521	27639	1056848	46330	108005	0	0	8277	516808	0	0
2024-10-12 14:00:47			0	39176	0	0	0	21794	20330	157837	27590	1056848	46340	108006	0	0	8274	518933	0	0
2024-10-12 14:01:47			0	39126	0	0	0	21794	20330	157917	27874	1056857	46340	108006	0	0	8271	520834	0	0
2024-10-12 14:02:47			0	39073	0	0	0	21810	20330	158105	27765	1056857	46330	108012	0	0	8268	522854	0	0
2024-10-12 14:03:47			0	39053	0	0	0	21802	20340	158149	27481	1056902	46321	108009	0	0	8267	523589	0	0
2024-10-12 14:04:47			0	39077	0	0	0	21820	20350	158037	27651	1056920	46332	108016	0	0	8268	522644	0	0
2024-10-12 14:05:47			0	39065	0	0	0	21825	20360	158169	27757	1056956	46333	108018	0	0	8267	523073	0	0
2024-10-12 14:06:47			0	39049	0	0	0	21823	20360	158209	27521	1056965	46333	108017	0	0	8266	523684	0	0
2024-10-12 14:07:47			0	39002	0	0	0	21823	20360	158329	27904	1056929	46354	108017	0	0	8263	525481	0	0
2024-10-12 14:08:47			0	38979	0	0	0	21825	20360	158393	27386	1056956	46333	108018	0	0	8262	526361	0	0
2024-10-12 14:09:47			0	38993	0	0	0	21828	20370	158377	27545	1057000	46333	108019	0	0	8263	525796	0	0
2024-10-12 14:10:47			0	38969	0	0	0	21825	20370	158473	27414	1057027	46344	108018	0	0	8262	526715	0	0
2024-10-12 14:11:47			0	38960	0	0	0	21831	20370	158605	27642	1057062	46333	108020	0	0	8261	527060	0	0
2024-10-12 14:12:47			0	38953	0	0	0	21838	20390	158461	27861	1057089	46326	108023	0	0	8261	527270	0	0
2024-10-12 14:13:47			0	38935	0	0	0	21838	20380	158497	27396	1057133	46335	108023	0	0	8259	527990	0	0
2024-10-12 14:14:47			0	38945	0	0	0	21844	20390	158445	27618	1057169	46336	108025	0	0	8260	527577	0	0
2024-10-12 14:15:47			0	38927	0	0	0	21851	20400	158589	27774	1057107	46336	108028	0	0	8259	528239	0	0
2024-10-12 14:16:47			0	38944	0	0	0	21841	20390	158541	27512	1057125	46326	108024	0	0	8260	527615	0	0
2024-10-12 14:17:47			0	38983	0	0	0	21841	20390	158417	27595	1057151	46336	108024	0	0	8262	526121	0	0
2024-10-12 14:18:47			0	39000	0	0	0	21841	20400	158277	27802	1057107	46336	108024	0	0	8263	525441	0	0
2024-10-12 14:19:47			0	38972	0	0	0	21841	20400	158333	27765	1057187	46336	108024	0	0	8262	526513	0	0
2024-10-12 14:20:47			0	38975	0	0	0	21838	20400	158269	27743	1057196	46348	108023	0	0	8262	526398	0	0
2024-10-12 14:21:47			0	38990	0	0	0	21836	20400	158381	27505	1057160	46326	108022	0	0	8263	525824	0	0
2024-10-12 14:22:47			0	38977	0	0	0	21851	20410	158257	27530	1057098	46349	108028	0	0	8262	526292	0	0
2024-10-12 14:23:47			0	38948	0	0	0	21859	20410	158485	27466	1057161	46338	108031	0	0	8260	527404	0	0
2024-10-12 14:24:47			0	38889	0	0	0	21859	20400	158549	27164	1057143	46337	108031	0	0	8257	529698	0	0
2024-10-12 14:25:47			0	38889	0	0	0	21857	20410	158613	27426	1057152	46328	108030	0	0	8257	529669	0	0
2024-10-12 14:26:47			0	38920	0	0	0	21849	20420	158477	27500	1057232	46350	108027	0	0	8259	528449	0	0
2024-10-12 14:27:47			0	38969	0	0	0	21862	20420	158369	27817	1057250	46349	108032	0	0	8261	526570	0	0
2024-10-12 14:28:47			0	38955	0	0	0	21867	20420	158461	27828	1057232	46350	108034	0	0	8260	527106	0	0
2024-10-12 14:29:47			0	38949	0	0	0	21872	20430	158585	27530	1057268	46330	108036	0	0	8260	527307	0	0
2024-10-12 14:30:47			0	38944	0	0	0	21890	20430	158457	27658	1057241	46351	108043	0	0	8259	527499	0	0
2024-10-12 14:31:47			0	38960	0	0	0	21885	20430	158473	27467	1057250	46340	108041	0	0	8260	526885	0	0
2024-10-12 14:32:47			0	38962	0	0	0	21888	20430	158505	27364	1057303	46340	108042	0	0	8260	526809	0	0
2024-10-12 14:33:47			0	38965	0	0	0	21888	20440	158505	27497	1057259	46330	108042	0	0	8261	526665	0	0
2024-10-12 14:34:47			0	38954	0	0	0	21898	20430	158381	27454	1057330	46340	108046	0	0	8260	527115	0	0
2024-10-12 14:35:47			0	39003	0	0	0	21888	20440	158329	27715	1057365	46330	108042	0	0	8263	525210	0	0
2024-10-12 14:36:47			0	38987	0	0	0	21896	20440	158361	27682	1057348	46341	108045	0	0	8262	525822	0	0
2024-10-12 14:37:47			0	38979	0	0	0	21896	20450	158329	27396	1057383	46342	108045	0	0	8261	526099	0	0
2024-10-12 14:38:47			0	38978	0	0	0	21906	20450	158349	27530	1057366	46343	108049	0	0	8261	526138	0	0
2024-10-12 14:39:47			0	38949	0	0	0	21903	20450	158429	27415	1057436	46342	108048	0	0	8259	527249	0	0
2024-10-12 14:40:47			0	38955	0	0	0	21901	20450	158441	27731	1057410	46342	108047	0	0	8260	527019	0	0
2024-10-12 14:41:47			0	38963	0	0	0	21906	20460	158353	27883	1057410	46333	108049	0	0	8260	526683	0	0
2024-10-12 14:42:47			0	38959	0	0	0	21914	20460	158361	27659	1057517	46343	108052	0	0	8260	526836	0	0
2024-10-12 14:43:47			0	38951	0	0	0	21896	20460	158305	27400	1057437	46343	108045	0	0	8260	527143	0	0
2024-10-12 14:44:47			0	38963	0	0	0	21903	20460	158429	27507	1057428	46343	108048	0	0	8260	526683	0	0
2024-10-12 14:45:47			0	38945	0	0	0	21914	20470	158445	27684	1057455	46345	108052	0	0	8259	527344	0	0
2024-10-12 14:46:47			0	38921	0	0	0	21916	20470	158541	27398	1057446	46333	108053	0	0	8258	528264	0	0
2024-10-12 14:47:47			0	38922	0	0	0	21909	20470	158529	27521	1057499	46344	108050	0	0	8258	528226	0	0
2024-10-12 14:48:47			0	38933	0	0	0	21919	20480	158553	27848	1057411	46345	108054	0	0	8258	527775	0	0
2024-10-12 14:49:47			0	38938	0	0	0	21906	20470	158461	27530	1057455	46345	108049	0	0	8259	527612	0	0
2024-10-12 14:50:47			0	38937	0	0	0	21919	20480	158541	27623	1057517	46334	108054	0	0	8259	527621	0	0
2024-10-12 14:51:47			0	38932	0	0	0	21916	20480	158549	27672	1057526	46334	108053	0	0	8258	527813	0	0
2024-10-12 14:52:47			0	38914	0	0	0	21914	20490	158577	27557	1057482	46346	108052	0	0	8257	528475	0	0
2024-10-12 14:53:47			0	38912	0	0	0	21909	20480	158561	27722	1057526	46334	108050	0	0	8257	528581	0	0
2024-10-12 14:54:47			0	38912	0	0	0	21898	20490	158549	27485	1057535	46346	108046	0	0	8258	528552	0	0
2024-10-12 14:55:47			0	38902	0	0	0	21901	20490	158593	27490	1057535	46335	108047	0	0	8257	528936	0	0
2024-10-12 14:56:47			0	38887	0	0	0	21901	20490	158621	27338	1057482	46346	108047	0	0	8256	529512	0	0
2024-10-12 14:57:47			0	38884	0	0	0	21898	20490	158665	27215	1057482	46346	108046	0	0	8256	529627	0	0
2024-10-12 14:58:47			0	38888	0	0	0	21888	20480	158685	27575	1057544	46334	108042	0	0	8256	529503	0	0
2024-10-12 14:59:47			0	38885	0	0	0	21896	20470	158693	27746	1057473	46323	108045	0	0	8256	529647	0	0
2024-10-12 15:00:47			0	38875	0	0	0	21896	20490	158689	27621	1057482	46335	108045	0	0	8255	529973	0	0
2024-10-12 15:01:47			0	38870	0	0	0	21890	20480	158745	27587	1057473	46324	108043	0	0	8255	530195	0	0
2024-10-12 15:02:47			0	38871	0	0	0	21898	20470	158697	27640	1057446	46333	108046	0	0	8255	530186	0	0
2024-10-12 15:03:47			0	38846	0	0	0	21901	20470	158769	27734	1057419	46344	108047	0	0	8254	531148	0	0
2024-10-12 15:04:47			0	38885	0	0	0	21903	20480	158837	27537	1057446	46334	108048	0	0	8256	529618	0	0
2024-10-12 15:05:47			0	38872	0	0	0	21906	20470	158753	27533	1057526	46323	108049	0	0	8255	530147	0	0
2024-10-12 15:06:47			0	38876	0	0	0	21906	20480	158645	27864	1057499	46334	108049	0	0	8255	529964	0	0
2024-10-12 15:07:47			0	38888	0	0	0	21906	20480	158589	27554	1057473	46334	108049	0	0	8256	529503	0	0
2024-10-12 15:08:47			0	38883	0	0	0	21911	20480	158721	27869	1057464	46345	108051	0	0	8256	529695	0	0
2024-10-12 15:09:47			0	38903	0	0	0	21896	20490	158569	27684	1057535	46346	108045	0	0	8257	528897	0	0
2024-10-12 15:10:47			0	38911	0	0	0	21890	20470	158561	27633	1057455	46345	108043	0	0	8258	528648	0	0
2024-10-12 15:11:47			0	38941	0	0	0	21875	20480	158357	27422	1057490	46345	108037	0	0	8260	527468	0	0
2024-10-12 15:12:47			0	38961	0	0	0	21877	20470	158345	27390	1057455	46324	108038	0	0	8261	526731	0	0
2024-10-12 15:13:47			0	38963	0	0	0	21872	20470	158229	27517	1057446	46333	108036	0	0	8261	526654	0	0
2024-10-12 15:14:47			0	38977	0	0	0	21872	20480	158341	27590	1057499	46334	108036	0	0	8262	526089	0	0
2024-10-12 15:15:47			0	38966	0	0	0	21893	20480	158265	27672	1057464	46334	108044	0	0	8261	526510	0	0
2024-10-12 15:16:47			0	38967	0	0	0	21896	20480	158349	27750	1057446	46345	108045	0	0	8261	526472	0	0
2024-10-12 15:17:47			0	38970	0	0	0	21916	20480	158261	27441	1057446	46345	108053	0	0	8261	526357	0	0
2024-10-12 15:18:47			0	38943	0	0	0	21932	20480	158445	27703	1057464	46345	108059	0	0	8259	527391	0	0
2024-10-12 15:19:47			0	38919	0	0	0	21898	20480	158617	27653	1057526	46334	108046	0	0	8258	528312	0	0
2024-10-12 15:20:47			0	38915	0	0	0	21898	20480	158481	27685	1057553	46345	108046	0	0	8258	528466	0	0
2024-10-12 15:21:47			0	38904	0	0	0	21911	20490	158541	27812	1057544	46347	108051	0	0	8257	528859	0	0
2024-10-12 15:22:47			0	38890	0	0	0	21919	20490	158573	27784	1057517	46347	108054	0	0	8256	529397	0	0
2024-10-12 15:23:47			0	38900	0	0	0	21911	20490	158545	27562	1057508	46357	108051	0	0	8257	529012	0	0
2024-10-12 15:24:47			0	38881	0	0	0	21898	20480	158517	27892	1057526	46334	108046	0	0	8256	529772	0	0
2024-10-12 15:25:47			0	38872	0	0	0	21898	20490	158541	27781	1057535	46325	108046	0	0	8255	530088	0	0
2024-10-12 15:26:47			0	38831	0	0	0	21877	20490	158829	27699	1057455	46335	108038	0	0	8253	531667	0	0
2024-10-12 15:27:47			0	38794	0	0	0	21880	20490	159133	27805	1057482	46346	108039	0	0	8251	533093	0	0
2024-10-12 15:28:47			0	38784	0	0	0	21877	20490	159013	27748	1057544	46326	108038	0	0	8250	533479	0	0
2024-10-12 15:29:47			0	38765	0	0	0	21875	20490	159065	27880	1057508	46335	108037	0	0	8249	534213	0	0
2024-10-12 15:30:47			0	38752	0	0	0	21877	20480	159209	27835	1057446	46334	108038	0	0	8249	534745	0	0
2024-10-12 15:31:47			0	38739	0	0	0	21883	20480	159213	27774	1057420	46334	108040	0	0	8248	535248	0	0
2024-10-12 15:32:47			0	38739	0	0	0	21890	20470	159193	27996	1057446	46333	108043	0	0	8248	535277	0	0
2024-10-12 15:33:47			0	38745	0	0	0	21883	20470	159097	27864	1057481	46334	108040	0	0	8248	535045	0	0
2024-10-12 15:34:47			0	38753	0	0	0	21890	20480	159093	27762	1057490	46356	108043	0	0	8248	534706	0	0
2024-10-12 15:35:47			0	38760	0	0	0	21890	20480	159021	27840	1057411	46334	108043	0	0	8249	534436	0	0
2024-10-12 15:36:47			0	38783	0	0	0	21903	20470	159009	27965	1057499	46333	108048	0	0	8250	533577	0	0
2024-10-12 15:37:47			0	38791	0	0	0	21890	20480	158941	27777	1057499	46345	108043	0	0	8251	533238	0	0
2024-10-12 15:38:47			0	38761	0	0	0	21883	20470	159013	27562	1057526	46344	108040	0	0	8249	534427	0	0
2024-10-12 15:39:47			0	38736	0	0	0	21880	20470	159009	27822	1057481	46345	108039	0	0	8248	535393	0	0
2024-10-12 15:40:47			0	38739	0	0	0	21893	20480	159065	27471	1057437	46334	108044	0	0	8248	535248	0	0
2024-10-12 15:41:47			0	38747	0	0	0	21885	20470	159069	27663	1057446	46355	108041	0	0	8248	534968	0	0
2024-10-12 15:42:47			0	38735	0	0	0	21893	20470	159141	27779	1057446	46344	108044	0	0	8247	535432	0	0
2024-10-12 15:43:47			0	38749	0	0	0	21888	20470	159157	27769	1057481	46356	108042	0	0	8248	534890	0	0
2024-10-12 15:44:47			0	38724	0	0	0	21859	20470	159233	27725	1057526	46344	108031	0	0	8247	535858	0	0
2024-10-12 15:45:47			0	38709	0	0	0	21875	20460	159312	27666	1057464	46343	108037	0	0	8246	536468	0	0
2024-10-12 15:46:47			0	38700	0	0	0	21867	20470	159288	27457	1057428	46334	108034	0	0	8246	536787	0	0
2024-10-12 15:47:47			0	38685	0	0	0	21888	20470	159324	27514	1057455	46334	108042	0	0	8244	537369	0	0
2024-10-12 15:48:47			0	38696	0	0	0	21890	20470	159400	27495	1057446	46333	108043	0	0	8245	536942	0	0
2024-10-12 15:49:47			0	38695	0	0	0	21888	20470	159376	27750	1057419	46344	108042	0	0	8245	536981	0	0
2024-10-12 15:50:47			0	38717	0	0	0	21903	20470	159320	27353	1057419	46333	108048	0	0	8246	536129	0	0
2024-10-12 15:51:47			0	38751	0	0	0	21922	20470	159157	27866	1057481	46324	108055	0	0	8248	534813	0	0
2024-10-12 15:52:47			0	38798	0	0	0	21927	20470	159009	27731	1057473	46323	108057	0	0	8250	532998	0	0
2024-10-12 15:53:47			0	38784	0	0	0	21909	20470	158977	27265	1057526	46344	108050	0	0	8250	533538	0	0
2024-10-12 15:54:47			0	38785	0	0	0	21919	20480	159045	27828	1057553	46334	108054	0	0	8250	533470	0	0
2024-10-12 15:55:47			0	38805	0	0	0	21911	20470	158933	27857	1057526	46333	108051	0	0	8251	532728	0	0
2024-10-12 15:56:47			0	38815	0	0	0	21929	20480	158945	27587	1057553	46356	108058	0	0	8251	532313	0	0
2024-10-12 15:57:47			0	38836	0	0	0	21924	20490	158853	27571	1057562	46346	108056	0	0	8253	531474	0	0
2024-10-12 15:58:47			0	38845	0	0	0	21929	20490	158825	27699	1057588	46357	108058	0	0	8253	531127	0	0
2024-10-12 15:59:47			0	38863	0	0	0	21929	20490	158829	27659	1057562	46335	108058	0	0	8254	530435	0	0
2024-10-12 16:00:47			0	38876	0	0	0	21924	20490	158773	27760	1057624	46336	108056	0	0	8255	529935	0	0
2024-10-12 16:01:47			0	38883	0	0	0	21929	20490	158733	27492	1057562	46325	108058	0	0	8255	529666	0	0
2024-10-12 16:02:47			0	38878	0	0	0	21896	20500	158705	27663	1057642	46336	108045	0	0	8256	529829	0	0
2024-10-12 16:03:47			0	38848	0	0	0	21903	20490	158757	27637	1057535	46335	108048	0	0	8254	531012	0	0
2024-10-12 16:04:47			0	38801	0	0	0	21903	20490	158929	27661	1057570	46347	108048	0	0	8251	532823	0	0
2024-10-12 16:05:47			0	38804	0	0	0	21911	20490	158905	27476	1057570	46336	108051	0	0	8251	532707	0	0
2024-10-12 16:06:47			0	38811	0	0	0	21906	20500	158889	27521	1057579	46347	108049	0	0	8252	532408	0	0
2024-10-12 16:07:47			0	38820	0	0	0	21906	20490	158833	27713	1057650	46347	108049	0	0	8252	532091	0	0
2024-10-12 16:08:47			0	38824	0	0	0	21916	20490	158901	27485	1057588	46335	108053	0	0	8252	531936	0	0
2024-10-12 16:09:47			0	38812	0	0	0	21906	20500	158909	27355	1057606	46336	108049	0	0	8252	532369	0	0
2024-10-12 16:10:47			0	38829	0	0	0	21896	20490	158897	27289	1057544	46358	108045	0	0	8253	531744	0	0
2024-10-12 16:11:47			0	38773	0	0	0	21896	20490	158921	27294	1057535	46335	108045	0	0	8250	533904	0	0
2024-10-12 16:12:47			0	38806	0	0	0	21896	20480	158965	27348	1057579	46345	108045	0	0	8251	532660	0	0
2024-10-12 16:13:47			0	38805	0	0	0	21898	20480	158993	27383	1057553	46334	108046	0	0	8251	532698	0	0
2024-10-12 16:14:47			0	38790	0	0	0	21914	20490	158921	27583	1057588	46346	108052	0	0	8250	533248	0	0
2024-10-12 16:15:47			0	38799	0	0	0	21898	20480	158905	27679	1057579	46334	108046	0	0	8251	532930	0	0
2024-10-12 16:16:47			0	38782	0	0	0	21890	20480	159001	27483	1057526	46334	108043	0	0	8250	533586	0	0
2024-10-12 16:17:47			0	38752	0	0	0	21867	20480	159129	27550	1057499	46356	108034	0	0	8249	534745	0	0
2024-10-12 16:18:47			0	38729	0	0	0	21864	20490	159189	27772	1057517	46336	108033	0	0	8248	535605	0	0
2024-10-12 16:19:47			0	38730	0	0	0	21851	20470	159253	27365	1057419	46323	108028	0	0	8248	535625	0	0
2024-10-12 16:20:47			0	38717	0	0	0	21849	20480	159296	27409	1057411	46313	108027	0	0	8247	536099	0	0
2024-10-12 16:21:47			0	38709	0	0	0	21880	20470	159356	27680	1057419	46333	108039	0	0	8246	536439	0	0
2024-10-12 16:22:47			0	38734	0	0	0	21867	20460	159237	27315	1057401	46322	108034	0	0	8248	535500	0	0
2024-10-12 16:23:47			0	38725	0	0	0	21857	20460	159212	27628	1057428	46343	108030	0	0	8247	535849	0	0
2024-10-12 16:24:47			0	38727	0	0	0	21859	20460	159152	27393	1057384	46322	108031	0	0	8247	535771	0	0
2024-10-12 16:25:47			0	38725	0	0	0	21867	20460	159249	27317	1057374	46333	108034	0	0	8247	535849	0	0
2024-10-12 16:26:47			0	38729	0	0	0	21854	20450	159313	27426	1057366	46333	108029	0	0	8248	535723	0	0
2024-10-12 16:27:47			0	38730	0	0	0	21864	20460	159324	27286	1057357	46333	108033	0	0	8247	535655	0	0
2024-10-12 16:28:47			0	38725	0	0	0	21864	20460	159324	27410	1057348	46343	108033	0	0	8247	535849	0	0
2024-10-12 16:29:47			0	38745	0	0	0	21862	20450	159337	27287	1057339	46333	108032	0	0	8248	535104	0	0
2024-10-12 16:30:47			0	38733	0	0	0	21862	20460	159221	27360	1057401	46354	108032	0	0	8248	535539	0	0
2024-10-12 16:31:47			0	38744	0	0	0	21859	20450	159105	27391	1057366	46333	108031	0	0	8248	535143	0	0
2024-10-12 16:32:47			0	38759	0	0	0	21867	20460	159141	27251	1057321	46333	108034	0	0	8249	534533	0	0
2024-10-12 16:33:47			0	38786	0	0	0	21864	20450	159105	27241	1057357	46332	108033	0	0	8251	533520	0	0
2024-10-12 16:34:47			0	38774	0	0	0	21888	20440	159093	27492	1057339	46340	108042	0	0	8250	534013	0	0
2024-10-12 16:35:47			0	38788	0	0	0	21896	20450	159009	27888	1057366	46333	108045	0	0	8250	533443	0	0
2024-10-12 16:36:47			0	38813	0	0	0	21890	20440	158969	27568	1057401	46341	108043	0	0	8252	532508	0	0
2024-10-12 16:37:47			0	38821	0	0	0	21893	20450	158893	27338	1057419	46354	108044	0	0	8252	532170	0	0
2024-10-12 16:38:47			0	38837	0	0	0	21888	20450	158897	27225	1057463	46332	108042	0	0	8253	531553	0	0
2024-10-12 16:39:47			0	38849	0	0	0	21893	20450	158829	27544	1057392	46354	108044	0	0	8254	531091	0	0
2024-10-12 16:40:47			0	38841	0	0	0	21898	20460	158697	27550	1057464	46343	108046	0	0	8253	531370	0	0
2024-10-12 16:41:47			0	38855	0	0	0	21883	20460	158661	27367	1057464	46343	108040	0	0	8254	530831	0	0
2024-10-12 16:42:47			0	38885	0	0	0	21872	20460	158557	27372	1057454	46343	108036	0	0	8256	529677	0	0
2024-10-12 16:43:47			0	38906	0	0	0	21888	20470	158577	27691	1057499	46333	108042	0	0	8257	528841	0	0
2024-10-12 16:44:47			0	38894	0	0	0	21890	20460	158481	27277	1057437	46343	108043	0	0	8257	529331	0	0
2024-10-12 16:45:47			0	38898	0	0	0	21883	20460	158465	27326	1057437	46354	108040	0	0	8257	529177	0	0
2024-10-12 16:46:47			0	38907	0	0	0	21885	20460	158473	27414	1057437	46333	108041	0	0	8257	528831	0	0
2024-10-12 16:47:47			0	38932	0	0	0	21888	20450	158465	27557	1057525	46333	108042	0	0	8259	527901	0	0
2024-10-12 16:48:47			0	38952	0	0	0	21901	20460	158329	27580	1057454	46343	108047	0	0	8260	527105	0	0
2024-10-12 16:49:47			0	38940	0	0	0	21888	20460	158389	27223	1057490	46333	108042	0	0	8259	527565	0	0
2024-10-12 16:50:47			0	38930	0	0	0	21883	20470	158349	27535	1057419	46344	108040	0	0	8259	527919	0	0
2024-10-12 16:51:47			0	38945	0	0	0	21872	20450	158457	27225	1057419	46333	108036	0	0	8260	527402	0	0
2024-10-12 16:52:47			0	38924	0	0	0	21872	20470	158465	27362	1057526	46333	108036	0	0	8259	528149	0	0
2024-10-12 16:53:47			0	38921	0	0	0	21875	20460	158405	27175	1057454	46333	108037	0	0	8258	528294	0	0
2024-10-12 16:54:47			0	38916	0	0	0	21877	20460	158545	27268	1057437	46354	108038	0	0	8258	528486	0	0
2024-10-12 16:55:47			0	38925	0	0	0	21880	20440	158441	27242	1057401	46320	108039	0	0	8258	528199	0	0
2024-10-12 16:56:47			0	38916	0	0	0	21864	20460	158485	27227	1057357	46333	108033	0	0	8258	528486	0	0
2024-10-12 16:57:47			0	38903	0	0	0	21877	20460	158481	27500	1057401	46343	108038	0	0	8257	528985	0	0
2024-10-12 16:58:47			0	38924	0	0	0	21862	20460	158501	27410	1057410	46343	108032	0	0	8259	528179	0	0
2024-10-12 16:59:47			0	38867	0	0	0	21862	20460	158593	27462	1057437	46333	108032	0	0	8255	530369	0	0
2024-10-12 17:00:47			0	38868	0	0	0	21851	20450	158625	27263	1057366	46333	108028	0	0	8256	530360	0	0
2024-10-12 17:01:47			0	38851	0	0	0	21862	20450	158657	27665	1057312	46333	108032	0	0	8254	531014	0	0
2024-10-12 17:02:47			0	38847	0	0	0	21854	20440	158749	27481	1057321	46331	108029	0	0	8254	531197	0	0
2024-10-12 17:03:47			0	38847	0	0	0	21854	20450	158813	27336	1057357	46332	108029	0	0	8254	531168	0	0
2024-10-12 17:04:47			0	38838	0	0	0	21854	20440	158777	27185	1057321	46331	108029	0	0	8254	531544	0	0
2024-10-12 17:05:47			0	38859	0	0	0	21849	20430	158685	27407	1057294	46330	108027	0	0	8255	530765	0	0
2024-10-12 17:06:47			0	38840	0	0	0	21841	20440	158829	27206	1057285	46319	108024	0	0	8254	531467	0	0
2024-10-12 17:07:47			0	38841	0	0	0	21849	20430	158921	27585	1057303	46319	108027	0	0	8254	531458	0	0
2024-10-12 17:08:47			0	38828	0	0	0	21854	20440	158913	27069	1057259	46330	108029	0	0	8253	531929	0	0
2024-10-12 17:09:47			0	38836	0	0	0	21854	20430	158937	27263	1057268	46330	108029	0	0	8254	531650	0	0
2024-10-12 17:10:47			0	38809	0	0	0	21849	20430	158973	27595	1057250	46330	108027	0	0	8252	532691	0	0
2024-10-12 17:11:47			0	38830	0	0	0	21864	20430	158977	27142	1057347	46330	108033	0	0	8253	531881	0	0
2024-10-12 17:12:47			0	38852	0	0	0	21867	20430	158801	27071	1057356	46340	108034	0	0	8254	531034	0	0
2024-10-12 17:13:47			0	38872	0	0	0	21864	20430	158741	27248	1057276	46330	108033	0	0	8256	530264	0	0
2024-10-12 17:14:47			0	38893	0	0	0	21854	20430	158729	27159	1057276	46340	108029	0	0	8257	529457	0	0
2024-10-12 17:15:47			0	38836	0	0	0	21841	20430	158765	27492	1057268	46340	108024	0	0	8254	531650	0	0
2024-10-12 17:16:47			0	38876	0	0	0	21857	20430	158757	27291	1057276	46330	108030	0	0	8256	530110	0	0
2024-10-12 17:17:47			0	38870	0	0	0	21851	20430	158765	27410	1057268	46330	108028	0	0	8256	530341	0	0
2024-10-12 17:18:47			0	38902	0	0	0	21864	20420	158621	27301	1057232	46329	108033	0	0	8257	529140	0	0
2024-10-12 17:19:47			0	38931	0	0	0	21854	20430	158609	27301	1057303	46340	108029	0	0	8259	527998	0	0
2024-10-12 17:20:47			0	38900	0	0	0	21846	20420	158557	27045	1057285	46329	108026	0	0	8257	529217	0	0
2024-10-12 17:21:47			0	38912	0	0	0	21844	20420	158605	27187	1057285	46329	108025	0	0	8258	528756	0	0
2024-10-12 17:22:47			0	38922	0	0	0	21825	20420	158597	27235	1057285	46329	108018	0	0	8259	528372	0	0
2024-10-12 17:23:47			0	38873	0	0	0	21831	20420	158677	27078	1057259	46329	108020	0	0	8256	530255	0	0
2024-10-12 17:24:47			0	38883	0	0	0	21844	20420	158609	27246	1057276	46338	108025	0	0	8256	529871	0	0
2024-10-12 17:25:47			0	38871	0	0	0	21820	20420	158577	27109	1057196	46338	108016	0	0	8256	530332	0	0
2024-10-12 17:26:47			0	38874	0	0	0	21802	20420	158613	27492	1057259	46329	108009	0	0	8257	530217	0	0
2024-10-12 17:27:47			0	38895	0	0	0	21807	20410	158605	27679	1057187	46317	108011	0	0	8258	529438	0	0
2024-10-12 17:28:47			0	38897	0	0	0	21789	20400	158601	27144	1057169	46337	108004	0	0	8258	529391	0	0
2024-10-12 17:29:47			0	38855	0	0	0	21784	20400	158717	27438	1057116	46316	108002	0	0	8256	531007	0	0
2024-10-12 17:30:47			0	38887	0	0	0	21781	20400	158653	27079	1057116	46305	108001	0	0	8258	529775	0	0
2024-10-12 17:31:47			0	38875	0	0	0	21784	20410	158745	27509	1057072	46328	108002	0	0	8257	530208	0	0
2024-10-12 17:32:47			0	38864	0	0	0	21786	20380	158769	27367	1057027	46314	108003	0	0	8256	530719	0	0
2024-10-12 17:33:47			0	38852	0	0	0	21789	20390	158713	27332	1057009	46336	108004	0	0	8255	531151	0	0
2024-10-12 17:34:47			0	38835	0	0	0	21776	20380	158865	27041	1057000	46325	107999	0	0	8255	531836	0	0
2024-10-12 17:35:47			0	38865	0	0	0	21792	20380	158873	27298	1057080	46314	108005	0	0	8256	530680	0	0
2024-10-12 17:36:47			0	38862	0	0	0	21784	20380	158785	27272	1056965	46334	108002	0	0	8256	530796	0	0
2024-10-12 17:37:47			0	38854	0	0	0	21784	20380	158805	27095	1056947	46325	108002	0	0	8256	531104	0	0
2024-10-12 17:38:47			0	38853	0	0	0	21776	20370	158893	27242	1057009	46333	107999	0	0	8256	531172	0	0
2024-10-12 17:39:47			0	38836	0	0	0	21774	20370	158897	27248	1057000	46323	107998	0	0	8255	531827	0	0
2024-10-12 17:40:47			0	38837	0	0	0	21789	20370	158917	27144	1056929	46300	108004	0	0	8255	531788	0	0
2024-10-12 17:41:47			0	38802	0	0	0	21789	20370	158941	27426	1057009	46333	108004	0	0	8252	533138	0	0
2024-10-12 17:42:47			0	38836	0	0	0	21774	20380	158953	27507	1056991	46334	107998	0	0	8255	531797	0	0
2024-10-12 17:43:47			0	38825	0	0	0	21784	20350	158921	27312	1057026	46321	108002	0	0	8254	532309	0	0
2024-10-12 17:44:47			0	38856	0	0	0	21792	20380	158881	27001	1056991	46324	108005	0	0	8256	531027	0	0
2024-10-12 17:45:47			0	38847	0	0	0	21786	20360	158841	26842	1056965	46333	108003	0	0	8255	531432	0	0
2024-10-12 17:46:47			0	38880	0	0	0	21766	20360	158689	27523	1056991	46333	107995	0	0	8257	530162	0	0
2024-10-12 17:47:47			0	38874	0	0	0	21779	20360	158673	26885	1056991	46323	108000	0	0	8257	530392	0	0
2024-10-12 17:48:47			0	38851	0	0	0	21779	20370	158813	27329	1057009	46344	108000	0	0	8256	531249	0	0
2024-10-12 17:49:47			0	38857	0	0	0	21784	20360	158901	26830	1057009	46322	108002	0	0	8256	531047	0	0
2024-10-12 17:50:47			0	38846	0	0	0	21792	20360	158845	26975	1056991	46333	108005	0	0	8255	531471	0	0
2024-10-12 17:51:47			0	38857	0	0	0	21781	20370	158745	27675	1057000	46323	108001	0	0	8256	531018	0	0
2024-10-12 17:52:47			0	38876	0	0	0	21784	20350	158893	26958	1056991	46332	108002	0	0	8257	530345	0	0
2024-10-12 17:53:47			0	38841	0	0	0	21784	20360	158797	26942	1056938	46323	108002	0	0	8255	531663	0	0
2024-10-12 17:54:47			0	38880	0	0	0	21786	20360	158825	27294	1056965	46323	108003	0	0	8257	530162	0	0
2024-10-12 17:55:47			0	38878	0	0	0	21792	20340	158745	27227	1056955	46332	108005	0	0	8257	530297	0	0
2024-10-12 17:56:47			0	38905	0	0	0	21799	20360	158669	27345	1056956	46322	108008	0	0	8258	529200	0	0
2024-10-12 17:57:47			0	38912	0	0	0	21802	20370	158669	27364	1057027	46344	108009	0	0	8259	528902	0	0
2024-10-12 17:58:47			0	38925	0	0	0	21799	20360	158685	27587	1056902	46333	108008	0	0	8259	528432	0	0
2024-10-12 17:59:47			0	38923	0	0	0	21789	20360	158689	27263	1057035	46322	108004	0	0	8259	528509	0	0
2024-10-12 18:00:47			0	38875	0	0	0	21771	20360	158837	27265	1056991	46323	107997	0	0	8257	530354	0	0
2024-10-12 18:01:47			0	38873	0	0	0	21763	20360	158933	27300	1056965	46323	107994	0	0	8257	530431	0	0
2024-10-12 18:02:47			0	38852	0	0	0	21763	20360	158817	27564	1056902	46311	107994	0	0	8256	531239	0	0
2024-10-12 18:03:47			0	38817	0	0	0	21766	20350	158925	27374	1056885	46310	107995	0	0	8254	532618	0	0
2024-10-12 18:04:47			0	38820	0	0	0	21771	20360	158917	27203	1056876	46333	107997	0	0	8254	532473	0	0
2024-10-12 18:05:47			0	38824	0	0	0	21771	20350	159065	27215	1056973	46321	107997	0	0	8254	532348	0	0
2024-10-12 18:06:47			0	38826	0	0	0	21771	20350	158957	27528	1056920	46321	107997	0	0	8254	532271	0	0
2024-10-12 18:07:47			0	38810	0	0	0	21776	20360	159145	27197	1056982	46322	107999	0	0	8253	532859	0	0
2024-10-12 18:08:47			0	38820	0	0	0	21766	20350	158965	27329	1056991	46321	107995	0	0	8254	532502	0	0
2024-10-12 18:09:47			0	38803	0	0	0	21768	20360	159033	27412	1056956	46322	107996	0	0	8253	533129	0	0
2024-10-12 18:10:47			0	38818	0	0	0	21763	20340	159081	27105	1056929	46310	107994	0	0	8254	532609	0	0
2024-10-12 18:11:47			0	38803	0	0	0	21761	20350	159085	27199	1056938	46321	107993	0	0	8253	533158	0	0
2024-10-12 18:12:47			0	38802	0	0	0	21766	20340	159013	27282	1056929	46321	107995	0	0	8253	533226	0	0
2024-10-12 18:13:47			0	38813	0	0	0	21758	20340	159021	27291	1056902	46332	107992	0	0	8254	532802	0	0
2024-10-12 18:14:47			0	38818	0	0	0	21766	20340	159001	27201	1056840	46331	107995	0	0	8254	532609	0	0
2024-10-12 18:15:47			0	38825	0	0	0	21766	20350	158997	27260	1056858	46310	107995	0	0	8254	532309	0	0
2024-10-12 18:16:47			0	38811	0	0	0	21766	20340	159101	27048	1056929	46321	107995	0	0	8253	532879	0	0
2024-10-12 18:17:47			0	38812	0	0	0	21774	20340	159001	27352	1056866	46320	107998	0	0	8253	532840	0	0
2024-10-12 18:18:47			0	38817	0	0	0	21771	20340	158937	27064	1056893	46320	107997	0	0	8254	532647	0	0
2024-10-12 18:19:47			0	38846	0	0	0	21748	20340	158957	27303	1056902	46321	107988	0	0	8256	531529	0	0
2024-10-12 18:20:47			0	38839	0	0	0	21742	20330	158889	27092	1056857	46319	107986	0	0	8255	531828	0	0
2024-10-12 18:21:47			0	38835	0	0	0	21735	20340	158977	27253	1056813	46320	107983	0	0	8255	531953	0	0
2024-10-12 18:22:47			0	38811	0	0	0	21735	20340	159009	27109	1056840	46320	107983	0	0	8254	532879	0	0
2024-10-12 18:23:47			0	38812	0	0	0	21740	20320	159021	27154	1056840	46319	107985	0	0	8254	532899	0	0
2024-10-12 18:24:47			0	38839	0	0	0	21750	20330	158889	27379	1056822	46296	107989	0	0	8255	531828	0	0
2024-10-12 18:25:47			0	38829	0	0	0	21748	20320	159037	27013	1056813	46308	107988	0	0	8255	532243	0	0
2024-10-12 18:26:47			0	38849	0	0	0	21748	20320	158921	27171	1056760	46319	107988	0	0	8256	531472	0	0
2024-10-12 18:27:47			0	38835	0	0	0	21737	20320	158881	27126	1056813	46308	107984	0	0	8255	532012	0	0
2024-10-12 18:28:47			0	38825	0	0	0	21745	20320	158993	27116	1056813	46330	107987	0	0	8254	532398	0	0
2024-10-12 18:29:47			0	38821	0	0	0	21740	20320	158961	27298	1056777	46318	107985	0	0	8254	532552	0	0
2024-10-12 18:30:47			0	38822	0	0	0	21745	20320	158901	27239	1056751	46329	107987	0	0	8254	532514	0	0
2024-10-12 18:31:47			0	38832	0	0	0	21742	20310	158941	27317	1056768	46328	107986	0	0	8255	532157	0	0
2024-10-12 18:32:47			0	38834	0	0	0	21742	20330	158957	27332	1056742	46308	107986	0	0	8255	532021	0	0
2024-10-12 18:33:47			0	38824	0	0	0	21740	20310	159029	27298	1056742	46317	107985	0	0	8254	532466	0	0
2024-10-12 18:34:47			0	38822	0	0	0	21732	20300	159105	27345	1056724	46316	107982	0	0	8254	532572	0	0
2024-10-12 18:35:47			0	38811	0	0	0	21724	20310	159097	27339	1056715	46328	107979	0	0	8254	532967	0	0
2024-10-12 18:36:47			0	38816	0	0	0	21732	20310	159029	27440	1056715	46306	107982	0	0	8254	532774	0	0
2024-10-12 18:37:47			0	38807	0	0	0	21735	20320	158981	27455	1056724	46318	107983	0	0	8253	533092	0	0
2024-10-12 18:38:47			0	38800	0	0	0	21727	20310	159077	27329	1056768	46328	107980	0	0	8253	533392	0	0
2024-10-12 18:39:47			0	38793	0	0	0	21735	20310	159017	27630	1056706	46327	107983	0	0	8253	533662	0	0
2024-10-12 18:40:47			0	38814	0	0	0	21729	20310	159097	27270	1056786	46305	107981	0	0	8254	532852	0	0
2024-10-12 18:41:47			0	38796	0	0	0	21729	20300	159017	27145	1056697	46316	107981	0	0	8253	533576	0	0
2024-10-12 18:42:47			0	38798	0	0	0	21727	20310	159045	27164	1056680	46327	107980	0	0	8253	533469	0	0
2024-10-12 18:43:47			0	38803	0	0	0	21727	20300	159025	27365	1056671	46316	107980	0	0	8253	533306	0	0
2024-10-12 18:44:47			0	38787	0	0	0	21722	20300	159113	27255	1056742	46305	107978	0	0	8252	533924	0	0
2024-10-12 18:45:47			0	38759	0	0	0	21719	20290	159217	27187	1056653	46315	107977	0	0	8251	535036	0	0
2024-10-12 18:46:47			0	38755	0	0	0	21719	20290	159317	27480	1056679	46315	107977	0	0	8251	535190	0	0
2024-10-12 18:47:47			0	38728	0	0	0	21722	20310	159385	27319	1056706	46316	107978	0	0	8249	536177	0	0
2024-10-12 18:48:47			0	38715	0	0	0	21716	20290	159368	27294	1056706	46315	107976	0	0	8248	536740	0	0
2024-10-12 18:49:47			0	38689	0	0	0	21716	20300	159444	27625	1056688	46327	107976	0	0	8247	537718	0	0
2024-10-12 18:50:47			0	38684	0	0	0	21714	20290	159652	27595	1056679	46315	107975	0	0	8247	537942	0	0
2024-10-12 18:51:47			0	38662	0	0	0	21709	20300	159728	27443	1056671	46327	107973	0	0	8245	538767	0	0
2024-10-12 18:52:47			0	38670	0	0	0	21716	20290	159552	27488	1056653	46315	107976	0	0	8246	538486	0	0
2024-10-12 18:53:47			0	38677	0	0	0	21706	20290	159644	27393	1056679	46315	107972	0	0	8246	538214	0	0
2024-10-12 18:54:47			0	38682	0	0	0	21711	20290	159536	27376	1056626	46326	107974	0	0	8246	538020	0	0
2024-10-12 18:55:47			0	38696	0	0	0	21709	20290	159436	27429	1056653	46315	107973	0	0	8247	537476	0	0
2024-10-12 18:56:47			0	38692	0	0	0	21714	20280	159372	26908	1056608	46325	107975	0	0	8247	537661	0	0
2024-10-12 18:57:47			0	38696	0	0	0	21709	20290	159444	27396	1056600	46304	107973	0	0	8247	537476	0	0
2024-10-12 18:58:47			0	38684	0	0	0	21711	20290	159416	27093	1056644	46314	107974	0	0	8247	537942	0	0
2024-10-12 18:59:47			0	38706	0	0	0	21716	20290	159368	27388	1056538	46291	107976	0	0	8248	537088	0	0
2024-10-12 19:00:47			0	38714	0	0	0	21711	20300	159388	27286	1056609	46316	107974	0	0	8248	536749	0	0
2024-10-12 19:01:47			0	38716	0	0	0	21709	20280	159464	27367	1056635	46325	107973	0	0	8248	536731	0	0
2024-10-12 19:02:47			0	38709	0	0	0	21711	20280	159364	27194	1056661	46314	107974	0	0	8248	537002	0	0
2024-10-12 19:03:47			0	38710	0	0	0	21714	20290	159456	27261	1056644	46325	107975	0	0	8248	536933	0	0
2024-10-12 19:04:47			0	38710	0	0	0	21703	20290	159588	27140	1056617	46314	107971	0	0	8248	536933	0	0
2024-10-12 19:05:47			0	38710	0	0	0	21709	20280	159620	27400	1056582	46335	107973	0	0	8248	536963	0	0
2024-10-12 19:06:47			0	38680	0	0	0	21706	20290	159484	27093	1056564	46314	107972	0	0	8246	538097	0	0
2024-10-12 19:07:47			0	38686	0	0	0	21701	20280	159520	27438	1056520	46325	107970	0	0	8247	537894	0	0
2024-10-12 19:08:47			0	38696	0	0	0	21709	20280	159584	27502	1056582	46325	107973	0	0	8247	537506	0	0
2024-10-12 19:09:47			0	38690	0	0	0	21701	20290	159540	27203	1056644	46314	107970	0	0	8247	537709	0	0
2024-10-12 19:10:47			0	38697	0	0	0	21711	20290	159620	27083	1056564	46303	107974	0	0	8247	537438	0	0
2024-10-12 19:11:47			0	38676	0	0	0	21703	20290	159580	27282	1056538	46314	107971	0	0	8246	538253	0	0
2024-10-12 19:12:47			0	38663	0	0	0	21701	20280	159640	27152	1056573	46314	107970	0	0	8245	538787	0	0
2024-10-12 19:13:47			0	38665	0	0	0	21714	20290	159740	27107	1056644	46303	107975	0	0	8245	538680	0	0
2024-10-12 19:14:47			0	38663	0	0	0	21703	20290	159712	27170	1056564	46325	107971	0	0	8246	538758	0	0
2024-10-12 19:15:47			0	38665	0	0	0	21709	20280	159740	27369	1056573	46335	107973	0	0	8245	538710	0	0
2024-10-12 19:16:47			0	38658	0	0	0	21698	20280	159752	27228	1056573	46314	107969	0	0	8245	538982	0	0
2024-10-12 19:17:47			0	38678	0	0	0	21701	20270	159764	27086	1056537	46324	107970	0	0	8246	538234	0	0
2024-10-12 19:18:47			0	38687	0	0	0	21698	20280	159732	27230	1056529	46303	107969	0	0	8247	537855	0	0
2024-10-12 19:19:47			0	38694	0	0	0	21693	20280	159676	27336	1056546	46314	107967	0	0	8247	537584	0	0
2024-10-12 19:20:47			0	38674	0	0	0	21703	20270	159628	27303	1056537	46324	107971	0	0	8246	538390	0	0
2024-10-12 19:21:47			0	38677	0	0	0	21698	20270	159704	27072	1056528	46323	107969	0	0	8246	538273	0	0
2024-10-12 19:22:47			0	38641	0	0	0	21690	20260	159864	26915	1056493	46323	107966	0	0	8244	539702	0	0
2024-10-12 19:23:47			0	38611	0	0	0	21696	20270	159952	27502	1056502	46323	107968	0	0	8243	540840	0	0
2024-10-12 19:24:47			0	38602	0	0	0	21698	20270	160048	27187	1056528	46312	107969	0	0	8242	541190	0	0
2024-10-12 19:25:47			0	38603	0	0	0	21693	20270	160100	27405	1056502	46300	107967	0	0	8242	541151	0	0
2024-10-12 19:26:47			0	38601	0	0	0	21698	20260	160092	27225	1056599	46300	107969	0	0	8242	541259	0	0
2024-10-12 19:27:47			0	38618	0	0	0	21696	20270	159984	27343	1056528	46312	107968	0	0	8243	540567	0	0
2024-10-12 19:28:47			0	38622	0	0	0	21688	20260	160024	27116	1056546	46312	107965	0	0	8243	540441	0	0
2024-10-12 19:29:47			0	38624	0	0	0	21696	20260	159908	27293	1056510	46312	107968	0	0	8243	540363	0	0
2024-10-12 19:30:47			0	38622	0	0	0	21693	20270	160064	27187	1056590	46324	107967	0	0	8243	540411	0	0
2024-10-12 19:31:47			0	38603	0	0	0	21685	20270	159940	27256	1056555	46312	107964	0	0	8242	541151	0	0
2024-10-12 19:32:47			0	38619	0	0	0	21688	20260	159956	27053	1056519	46312	107965	0	0	8243	540558	0	0
2024-10-12 19:33:47			0	38620	0	0	0	21690	20260	159968	27286	1056457	46323	107966	0	0	8243	540519	0	0
2024-10-12 19:34:47			0	38625	0	0	0	21698	20260	159860	27291	1056493	46323	107969	0	0	8243	540325	0	0
2024-10-12 19:35:47			0	38642	0	0	0	21693	20270	159844	27417	1056528	46300	107967	0	0	8244	539633	0	0
2024-10-12 19:36:47			0	38649	0	0	0	21685	20270	159808	27455	1056502	46312	107964	0	0	8245	539361	0	0
2024-10-12 19:37:47			0	38670	0	0	0	21683	20260	159784	27324	1056546	46312	107963	0	0	8246	538575	0	0
2024-10-12 19:38:47			0	38668	0	0	0	21685	20260	159652	27369	1056493	46300	107964	0	0	8246	538653	0	0
2024-10-12 19:39:47			0	38659	0	0	0	21685	20260	159668	26998	1056493	46312	107964	0	0	8245	539002	0	0
2024-10-12 19:40:47			0	38670	0	0	0	21672	20260	159652	26982	1056493	46312	107959	0	0	8246	538575	0	0
2024-10-12 19:41:47			0	38671	0	0	0	21670	20260	159712	27336	1056457	46323	107958	0	0	8246	538536	0	0
2024-10-12 19:42:47			0	38682	0	0	0	21672	20250	159620	27348	1056475	46311	107959	0	0	8247	538139	0	0
2024-10-12 19:43:47			0	38673	0	0	0	21667	20260	159640	27469	1056457	46323	107957	0	0	8247	538458	0	0
2024-10-12 19:44:47			0	38685	0	0	0	21659	20250	159612	27384	1056448	46322	107954	0	0	8247	538022	0	0
2024-10-12 19:45:47			0	38669	0	0	0	21662	20250	159580	27298	1056528	46311	107955	0	0	8246	538644	0	0
2024-10-12 19:46:47			0	38686	0	0	0	21659	20260	159688	27514	1056457	46300	107954	0	0	8247	537954	0	0
2024-10-12 19:47:47			0	38669	0	0	0	21659	20250	159820	27263	1056422	46311	107954	0	0	8246	538644	0	0
2024-10-12 19:48:47			0	38666	0	0	0	21657	20240	159800	27093	1056430	46287	107953	0	0	8246	538790	0	0
2024-10-12 19:49:47			0	38647	0	0	0	21651	20250	159812	27443	1056422	46311	107951	0	0	8245	539499	0	0
2024-10-12 19:50:47			0	38635	0	0	0	21657	20240	159836	27293	1056377	46309	107953	0	0	8244	539995	0	0
2024-10-12 19:51:47			0	38633	0	0	0	21644	20230	159820	27284	1056333	46309	107948	0	0	8244	540103	0	0
2024-10-12 19:52:47			0	38624	0	0	0	21638	20230	159948	26922	1056333	46297	107946	0	0	8244	540453	0	0
2024-10-12 19:53:47			0	38622	0	0	0	21638	20220	159984	26897	1056350	46308	107946	0	0	8244	540561	0	0
2024-10-12 19:54:47			0	38625	0	0	0	21633	20230	160000	27521	1056306	46276	107944	0	0	8244	540414	0	0
2024-10-12 19:55:47			0	38621	0	0	0	21631	20230	159988	27074	1056315	46309	107943	0	0	8244	540570	0	0
2024-10-12 19:56:47			0	38617	0	0	0	21633	20230	159872	27277	1056333	46320	107944	0	0	8244	540726	0	0
2024-10-12 19:57:47			0	38609	0	0	0	21631	20220	160064	27438	1056315	46307	107943	0	0	8243	541067	0	0
2024-10-12 19:58:47			0	38606	0	0	0	21638	20210	160036	27298	1056332	46295	107946	0	0	8243	541214	0	0
2024-10-12 19:59:47			0	38600	0	0	0	21628	20200	160064	27405	1056288	46306	107942	0	0	8243	541478	0	0
2024-10-12 20:00:47			0	38585	0	0	0	21633	20210	160112	27459	1056305	46307	107944	0	0	8242	542032	0	0
2024-10-12 20:01:47			0	38578	0	0	0	21631	20210	160048	27333	1056332	46295	107943	0	0	8241	542305	0	0
2024-10-12 20:02:47			0	38577	0	0	0	21628	20210	160040	27137	1056252	46295	107942	0	0	8241	542344	0	0
2024-10-12 20:03:47			0	38589	0	0	0	21625	20210	159968	27126	1056270	46329	107941	0	0	8242	541876	0	0
2024-10-12 20:04:47			0	38572	0	0	0	21628	20210	160128	27237	1056270	46307	107942	0	0	8241	542540	0	0
2024-10-12 20:05:47			0	38570	0	0	0	21625	20210	160172	27121	1056243	46318	107941	0	0	8241	542618	0	0
2024-10-12 20:06:47			0	38566	0	0	0	21625	20200	160144	27166	1056234	46317	107941	0	0	8241	542804	0	0
2024-10-12 20:07:47			0	38572	0	0	0	21620	20200	160152	27138	1056261	46306	107939	0	0	8241	542570	0	0
2024-10-12 20:08:47			0	38578	0	0	0	21618	20200	160236	27142	1056252	46305	107938	0	0	8242	542335	0	0
2024-10-12 20:09:47			0	38571	0	0	0	21607	20180	160172	27450	1056119	46304	107934	0	0	8241	542668	0	0
2024-10-12 20:10:47			0	38576	0	0	0	21620	20190	160104	26925	1056270	46316	107939	0	0	8241	542443	0	0
2024-10-12 20:11:47			0	38592	0	0	0	21615	20200	160192	27029	1056252	46305	107937	0	0	8242	541789	0	0
2024-10-12 20:12:47			0	38592	0	0	0	21610	20200	160156	27249	1056199	46305	107935	0	0	8243	541789	0	0
2024-10-12 20:13:47			0	38586	0	0	0	21615	20190	160092	27048	1056261	46293	107937	0	0	8242	542053	0	0
2024-10-12 20:14:47			0	38605	0	0	0	21612	20200	160136	27218	1056172	46305	107936	0	0	8243	541283	0	0
2024-10-12 20:15:47			0	38578	0	0	0	21618	20190	160088	27402	1056217	46305	107938	0	0	8242	542365	0	0
2024-10-12 20:16:47			0	38565	0	0	0	21618	20180	160184	27450	1056172	46315	107938	0	0	8241	542903	0	0
2024-10-12 20:17:47			0	38572	0	0	0	21615	20190	160216	27150	1056154	46316	107937	0	0	8241	542600	0	0
2024-10-12 20:18:47			0	38545	0	0	0	21605	20190	160244	26930	1056190	46316	107933	0	0	8240	543654	0	0
2024-10-12 20:19:47			0	38555	0	0	0	21607	20180	160244	26909	1056172	46315	107934	0	0	8240	543293	0	0
2024-10-12 20:20:47			0	38556	0	0	0	21607	20190	160260	27100	1056181	46316	107934	0	0	8240	543224	0	0
2024-10-12 20:21:47			0	38557	0	0	0	21612	20180	160236	27005	1056199	46304	107936	0	0	8240	543215	0	0
2024-10-12 20:22:47			0	38539	0	0	0	21615	20190	160272	27027	1056208	46305	107937	0	0	8239	543888	0	0
2024-10-12 20:23:47			0	38557	0	0	0	21618	20180	160192	27178	1056137	46303	107938	0	0	8240	543215	0	0
2024-10-12 20:24:47			0	38573	0	0	0	21602	20190	160272	26979	1056181	46316	107932	0	0	8242	542560	0	0
2024-10-12 20:25:47			0	38540	0	0	0	21597	20180	160252	27312	1056137	46303	107930	0	0	8240	543879	0	0
2024-10-12 20:26:47			0	38545	0	0	0	21612	20180	160272	26908	1056137	46314	107936	0	0	8240	543684	0	0
2024-10-12 20:27:47			0	38558	0	0	0	21610	20180	160236	27024	1056163	46314	107935	0	0	8240	543176	0	0
2024-10-12 20:28:47			0	38559	0	0	0	21610	20190	160276	27010	1056181	46305	107935	0	0	8241	543107	0	0
2024-10-12 20:29:47			0	38538	0	0	0	21615	20180	160280	27055	1056110	46314	107937	0	0	8239	543958	0	0
2024-10-12 20:30:47			0	38542	0	0	0	21610	20170	160308	27059	1056101	46303	107935	0	0	8239	543831	0	0
2024-10-12 20:31:47			0	38538	0	0	0	21605	20170	160344	27249	1056128	46314	107933	0	0	8239	543987	0	0
2024-10-12 20:32:47			0	38557	0	0	0	21597	20180	160316	27286	1056145	46315	107930	0	0	8241	543215	0	0
2024-10-12 20:33:47			0	38537	0	0	0	21597	20170	160252	26826	1056119	46324	107930	0	0	8239	544027	0	0
2024-10-12 20:34:47			0	38545	0	0	0	21597	20180	160216	27312	1056137	46303	107930	0	0	8240	543684	0	0
2024-10-12 20:35:47			0	38549	0	0	0	21597	20170	160312	27296	1056092	46313	107930	0	0	8240	543558	0	0
2024-10-12 20:36:47			0	38540	0	0	0	21592	20170	160364	27131	1056065	46302	107928	0	0	8240	543909	0	0
2024-10-12 20:37:47			0	38558	0	0	0	21597	20180	160288	27426	1056137	46303	107930	0	0	8241	543176	0	0
2024-10-12 20:38:47			0	38553	0	0	0	21597	20170	160300	27215	1056092	46302	107930	0	0	8240	543401	0	0
2024-10-12 20:39:47			0	38550	0	0	0	21592	20160	160244	27383	1056083	46302	107928	0	0	8240	543549	0	0
2024-10-12 20:40:47			0	38539	0	0	0	21599	20170	160324	27275	1056119	46313	107931	0	0	8240	543948	0	0
2024-10-12 20:41:47			0	38557	0	0	0	21592	20170	160332	27093	1056092	46302	107928	0	0	8241	543245	0	0
2024-10-12 20:42:47			0	38540	0	0	0	21599	20170	160344	27270	1056074	46281	107931	0	0	8240	543909	0	0
2024-10-12 20:43:47			0	38527	0	0	0	21584	20180	160336	27275	1056057	46303	107925	0	0	8239	544387	0	0
2024-10-12 20:44:47			0	38529	0	0	0	21584	20170	160408	27784	1056145	46313	107925	0	0	8239	544339	0	0
2024-10-12 20:45:47			0	38530	0	0	0	21592	20170	160368	27300	1056039	46313	107928	0	0	8239	544300	0	0
2024-10-12 20:46:47			0	38528	0	0	0	21584	20170	160420	27547	1056119	46302	107925	0	0	8239	544378	0	0
2024-10-12 20:47:47			0	38510	0	0	0	21584	20160	160484	27374	1056056	46313	107925	0	0	8238	545113	0	0
2024-10-12 20:48:47			0	38501	0	0	0	21586	20160	160468	27383	1056048	46312	107926	0	0	8237	545465	0	0
2024-10-12 20:49:47			0	38496	0	0	0	21579	20150	160512	27396	1056039	46300	107923	0	0	8237	545691	0	0
2024-10-12 20:50:47			0	38487	0	0	0	21581	20150	160468	27326	1056092	46300	107924	0	0	8237	546043	0	0
2024-10-12 20:51:47			0	38480	0	0	0	21576	20160	160448	27306	1056056	46313	107922	0	0	8236	546288	0	0
2024-10-12 20:52:47			0	38478	0	0	0	21581	20150	160564	27383	1056039	46300	107924	0	0	8236	546396	0	0
2024-10-12 20:53:47			0	38462	0	0	0	21579	20150	160640	27469	1056003	46300	107923	0	0	8235	547023	0	0
2024-10-12 20:54:47			0	38465	0	0	0	21573	20150	160748	27241	1055976	46300	107921	0	0	8236	546906	0	0
2024-10-12 20:55:47			0	38457	0	0	0	21579	20150	160580	27097	1056012	46311	107923	0	0	8235	547220	0	0
2024-10-12 20:56:47			0	38477	0	0	0	21571	20150	160668	27334	1056039	46300	107920	0	0	8236	546435	0	0
2024-10-12 20:57:47			0	38442	0	0	0	21579	20160	160696	26939	1056074	46301	107923	0	0	8234	547778	0	0
2024-10-12 20:58:47			0	38439	0	0	0	21581	20150	160712	27313	1056030	46300	107924	0	0	8234	547926	0	0
2024-10-12 20:59:47			0	38458	0	0	0	21576	20150	160584	27140	1056003	46311	107922	0	0	8235	547180	0	0
2024-10-12 21:00:47			0	38463	0	0	0	21586	20150	160516	27536	1056039	46311	107926	0	0	8235	546984	0	0
2024-10-12 21:01:47			0	38463	0	0	0	21586	20150	160632	27467	1055923	46300	107926	0	0	8235	546984	0	0
2024-10-12 21:02:47			0	38458	0	0	0	21566	20150	160644	27150	1055976	46289	107918	0	0	8235	547180	0	0
2024-10-12 21:03:47			0	38462	0	0	0	21573	20150	160648	27434	1055879	46311	107921	0	0	8235	547023	0	0
2024-10-12 21:04:47			0	38489	0	0	0	21576	20150	160632	27395	1055985	46322	107922	0	0	8237	545965	0	0
2024-10-12 21:05:47			0	38478	0	0	0	21573	20140	160524	27438	1055932	46310	107921	0	0	8236	546426	0	0
2024-10-12 21:06:47			0	38463	0	0	0	21566	20150	160568	27229	1056003	46300	107918	0	0	8236	546984	0	0
2024-10-12 21:07:47			0	38473	0	0	0	21566	20150	160620	27327	1055976	46289	107918	0	0	8236	546592	0	0
2024-10-12 21:08:47			0	38479	0	0	0	21571	20140	160556	27383	1055932	46298	107920	0	0	8236	546387	0	0
2024-10-12 21:09:47			0	38480	0	0	0	21566	20130	160596	27338	1056003	46297	107918	0	0	8236	546378	0	0
2024-10-12 21:10:47			0	38477	0	0	0	21566	20130	160584	27175	1055923	46309	107918	0	0	8236	546496	0	0
2024-10-12 21:11:47			0	38490	0	0	0	21568	20140	160632	27008	1055985	46298	107919	0	0	8237	545956	0	0
2024-10-12 21:12:47			0	38492	0	0	0	21566	20140	160592	27218	1056012	46310	107918	0	0	8237	545878	0	0
2024-10-12 21:13:47			0	38488	0	0	0	21566	20130	160504	27268	1055994	46309	107918	0	0	8237	546065	0	0
2024-10-12 21:14:47			0	38492	0	0	0	21561	20140	160524	27045	1055985	46310	107916	0	0	8237	545878	0	0
2024-10-12 21:15:47			0	38500	0	0	0	21563	20130	160556	27284	1055896	46297	107917	0	0	8238	545595	0	0
2024-10-12 21:16:47			0	38507	0	0	0	21563	20130	160532	27246	1055967	46297	107917	0	0	8238	545320	0	0
2024-10-12 21:17:47			0	38503	0	0	0	21576	20130	160444	27093	1055923	46287	107922	0	0	8238	545477	0	0
2024-10-12 21:18:47			0	38514	0	0	0	21573	20140	160456	27294	1056012	46298	107921	0	0	8238	545016	0	0
2024-10-12 21:19:47			0	38506	0	0	0	21573	20130	160528	27192	1055888	46309	107921	0	0	8238	545360	0	0
2024-10-12 21:20:47			0	38494	0	0	0	21566	20140	160580	27305	1055959	46298	107918	0	0	8237	545799	0	0
2024-10-12 21:21:47			0	38507	0	0	0	21573	20130	160376	27199	1055941	46297	107921	0	0	8238	545320	0	0
2024-10-12 21:22:47			0	38517	0	0	0	21571	20130	160436	26942	1055967	46297	107920	0	0	8239	544929	0	0
2024-10-12 21:23:47			0	38528	0	0	0	21566	20130	160356	27545	1055923	46309	107918	0	0	8239	544499	0	0
2024-10-12 21:24:47			0	38526	0	0	0	21568	20130	160324	27007	1055941	46297	107919	0	0	8239	544577	0	0
2024-10-12 21:25:47			0	38511	0	0	0	21571	20130	160384	27291	1055896	46309	107920	0	0	8238	545164	0	0
2024-10-12 21:26:47			0	38504	0	0	0	21563	20140	160476	27499	1055985	46321	107917	0	0	8238	545408	0	0
2024-10-12 21:27:47			0	38487	0	0	0	21568	20130	160504	27284	1055870	46309	107919	0	0	8237	546104	0	0
2024-10-12 21:28:47			0	38490	0	0	0	21568	20130	160520	27086	1055896	46297	107919	0	0	8237	545986	0	0
2024-10-12 21:29:47			0	38495	0	0	0	21568	20130	160564	27383	1056003	46309	107919	0	0	8237	545790	0	0
2024-10-12 21:30:47			0	38498	0	0	0	21571	20120	160536	26812	1055932	46287	107920	0	0	8237	545703	0	0
2024-10-12 21:31:47			0	38485	0	0	0	21563	20130	160588	27402	1055994	46309	107917	0	0	8237	546182	0	0
2024-10-12 21:32:47			0	38461	0	0	0	21566	20130	160672	27019	1055967	46297	107918	0	0	8235	547123	0	0
2024-10-12 21:33:47			0	38455	0	0	0	21568	20140	160748	27255	1055905	46298	107919	0	0	8235	547328	0	0
2024-10-12 21:34:47			0	38429	0	0	0	21558	20120	160832	27223	1055958	46309	107915	0	0	8234	548410	0	0
2024-10-12 21:35:47			0	38416	0	0	0	21553	20150	160796	27140	1055976	46300	107913	0	0	8233	548830	0	0
2024-10-12 21:36:47			0	38404	0	0	0	21550	20130	160848	27251	1055861	46320	107912	0	0	8232	549362	0	0
2024-10-12 21:37:47			0	38401	0	0	0	21540	20120	160868	26993	1055852	46309	107908	0	0	8232	549510	0	0
2024-10-12 21:38:47			0	38376	0	0	0	21529	20120	160928	27052	1055825	46297	107904	0	0	8231	550494	0	0
2024-10-12 21:39:47			0	38381	0	0	0	21529	20120	160968	27222	1055870	46297	107904	0	0	8231	550297	0	0
2024-10-12 21:40:47			0	38359	0	0	0	21535	20120	161008	26996	1055843	46297	107906	0	0	8230	551164	0	0
2024-10-12 21:41:47			0	38329	0	0	0	21535	20120	161028	27326	1055923	46286	107906	0	0	8228	552347	0	0
2024-10-12 21:42:47			0	38366	0	0	0	21516	20120	161136	27415	1055843	46319	107899	0	0	8231	550888	0	0
2024-10-12 21:43:47			0	38393	0	0	0	21522	20100	161044	27415	1055790	46294	107901	0	0	8232	549886	0	0
2024-10-12 21:44:47			0	38377	0	0	0	21506	20110	160888	27291	1055772	46274	107895	0	0	8231	550485	0	0
2024-10-12 21:45:47			0	38353	0	0	0	21509	20100	161076	27163	1055736	46306	107896	0	0	8230	551461	0	0
2024-10-12 21:46:47			0	38353	0	0	0	21519	20100	160964	27149	1055790	46294	107900	0	0	8230	551461	0	0
2024-10-12 21:47:47			0	38347	0	0	0	21514	20100	161064	27157	1055736	46273	107898	0	0	8229	551698	0	0
2024-10-12 21:48:47			0	38381	0	0	0	21503	20090	161072	27017	1055692	46293	107894	0	0	8232	550389	0	0
2024-10-12 21:49:47			0	38355	0	0	0	21506	20090	161036	27222	1055692	46305	107895	0	0	8230	551413	0	0
2024-10-12 21:50:47			0	38351	0	0	0	21509	20090	161168	27282	1055665	46293	107896	0	0	8230	551571	0	0
2024-10-12 21:51:47			0	38353	0	0	0	21509	20090	161032	27041	1055736	46293	107896	0	0	8230	551492	0	0
2024-10-12 21:52:47			0	38345	0	0	0	21511	20090	161120	27251	1055683	46293	107897	0	0	8229	551807	0	0
2024-10-12 21:53:47			0	38340	0	0	0	21509	20090	161184	27171	1055709	46293	107896	0	0	8229	552004	0	0
2024-10-12 21:54:47			0	38327	0	0	0	21516	20090	161140	26854	1055692	46305	107899	0	0	8228	552518	0	0
2024-10-12 21:55:47			0	38322	0	0	0	21516	20090	161316	27083	1055736	46305	107899	0	0	8228	552715	0	0
2024-10-12 21:56:47			0	38323	0	0	0	21524	20080	161200	26939	1055700	46304	107902	0	0	8228	552706	0	0
2024-10-12 21:57:47			0	38326	0	0	0	21514	20090	161248	27258	1055683	46293	107898	0	0	8228	552557	0	0
2024-10-12 21:58:47			0	38345	0	0	0	21519	20070	161308	27273	1055709	46303	107900	0	0	8229	551868	0	0
2024-10-12 21:59:47			0	38337	0	0	0	21519	20090	161216	27067	1055683	46293	107900	0	0	8229	552123	0	0
2024-10-12 22:00:47			0	38329	0	0	0	21516	20090	161284	27249	1055736	46305	107899	0	0	8228	552439	0	0
2024-10-12 22:01:47			0	38339	0	0	0	21503	20090	161324	27422	1055736	46305	107894	0	0	8229	552044	0	0
2024-10-12 22:02:47			0	38322	0	0	0	21519	20080	161272	27001	1055718	46292	107900	0	0	8228	552745	0	0
2024-10-12 22:03:47			0	38310	0	0	0	21509	20090	161340	27183	1055709	46305	107896	0	0	8227	553189	0	0
2024-10-12 22:04:47			0	38294	0	0	0	21511	20080	161348	27201	1055665	46282	107897	0	0	8226	553852	0	0
2024-10-12 22:05:47			0	38292	0	0	0	21509	20080	161372	27479	1055691	46304	107896	0	0	8226	553931	0	0
2024-10-12 22:06:47			0	38312	0	0	0	21506	20080	161312	27180	1055700	46282	107895	0	0	8227	553140	0	0
2024-10-12 22:07:47			0	38300	0	0	0	21501	20080	161288	27315	1055665	46292	107893	0	0	8227	553614	0	0
2024-10-12 22:08:47			0	38293	0	0	0	21483	20070	161340	27358	1055682	46303	107886	0	0	8227	553922	0	0
2024-10-12 22:09:47			0	38293	0	0	0	21483	20080	161308	27209	1055674	46292	107886	0	0	8227	553891	0	0
2024-10-12 22:10:47			0	38292	0	0	0	21483	20080	161400	27038	1055665	46282	107886	0	0	8227	553931	0	0
2024-10-12 22:11:47			0	38269	0	0	0	21493	20070	161408	26887	1055656	46281	107890	0	0	8225	554871	0	0
2024-10-12 22:12:47			0	38259	0	0	0	21488	20070	161400	26892	1055594	46291	107888	0	0	8225	555267	0	0
2024-10-12 22:13:47			0	38256	0	0	0	21490	20070	161544	27118	1055567	46291	107889	0	0	8224	555386	0	0
2024-10-12 22:14:47			0	38244	0	0	0	21488	20070	161604	27163	1055647	46291	107888	0	0	8224	555861	0	0
2024-10-12 22:15:47			0	38258	0	0	0	21490	20060	161596	26981	1055585	46291	107889	0	0	8224	555337	0	0
2024-10-12 22:16:47			0	38244	0	0	0	21490	20070	161500	27000	1055629	46303	107889	0	0	8224	555861	0	0
2024-10-12 22:17:47			0	38245	0	0	0	21493	20060	161536	27185	1055558	46302	107890	0	0	8224	555852	0	0
2024-10-12 22:18:47			0	38234	0	0	0	21490	20060	161584	27109	1055603	46312	107889	0	0	8223	556288	0	0
2024-10-12 22:19:47			0	38255	0	0	0	21493	20060	161464	27137	1055558	46280	107890	0	0	8224	555456	0	0
2024-10-12 22:20:47			0	38271	0	0	0	21490	20070	161340	27296	1055594	46281	107889	0	0	8225	554792	0	0
2024-10-12 22:21:47			0	38251	0	0	0	21493	20060	161448	27334	1055611	46302	107890	0	0	8224	555614	0	0
2024-10-12 22:22:47			0	38253	0	0	0	21485	20060	161476	27213	1055576	46290	107887	0	0	8224	555535	0	0
2024-10-12 22:23:47			0	38253	0	0	0	21480	20060	161500	26970	1055585	46291	107885	0	0	8224	555535	0	0
2024-10-12 22:24:47			0	38249	0	0	0	21485	20060	161572	27336	1055585	46302	107887	0	0	8224	555693	0	0
2024-10-12 22:25:47			0	38238	0	0	0	21483	20070	161600	27438	1055620	46291	107886	0	0	8223	556099	0	0
2024-10-12 22:26:47			0	38235	0	0	0	21485	20060	161620	27265	1055549	46290	107887	0	0	8223	556248	0	0
2024-10-12 22:27:47			0	38233	0	0	0	21480	20050	161572	27409	1055514	46290	107885	0	0	8223	556358	0	0
2024-10-12 22:28:47			0	38215	0	0	0	21477	20060	161636	27244	1055549	46312	107884	0	0	8222	557041	0	0
2024-10-12 22:29:47			0	38229	0	0	0	21475	20060	161564	27332	1055603	46290	107883	0	0	8223	556486	0	0
2024-10-12 22:30:47			0	38210	0	0	0	21472	20050	161696	26887	1055558	46289	107882	0	0	8222	557271	0	0
2024-10-12 22:31:47			0	38202	0	0	0	21475	20050	161732	26939	1055514	46301	107883	0	0	8221	557588	0	0
2024-10-12 22:32:47			0	38190	0	0	0	21470	20050	161720	27093	1055514	46301	107881	0	0	8221	558065	0	0
2024-10-12 22:33:47			0	38190	0	0	0	21480	20060	161828	27268	1055549	46290	107885	0	0	8221	558034	0	0
2024-10-12 22:34:47			0	38177	0	0	0	21464	20060	161764	27239	1055496	46301	107879	0	0	8220	558550	0	0
2024-10-12 22:35:47			0	38185	0	0	0	21472	20050	161716	27095	1055487	46290	107882	0	0	8220	558263	0	0
2024-10-12 22:36:47			0	38194	0	0	0	21464	20040	161680	27069	1055514	46288	107879	0	0	8221	557936	0	0
2024-10-12 22:37:47			0	38191	0	0	0	21475	20040	161744	26923	1055549	46289	107883	0	0	8221	558055	0	0
2024-10-12 22:38:47			0	38180	0	0	0	21470	20050	161812	27112	1055531	46278	107881	0	0	8220	558462	0	0
2024-10-12 22:39:47			0	38162	0	0	0	21459	20050	161888	27211	1055478	46300	107877	0	0	8219	559177	0	0
2024-10-12 22:40:47			0	38164	0	0	0	21459	20040	161776	27360	1055496	46289	107877	0	0	8219	559129	0	0
2024-10-12 22:41:47			0	38174	0	0	0	21457	20040	161816	27248	1055523	46289	107876	0	0	8220	558731	0	0
2024-10-12 22:42:47			0	38149	0	0	0	21457	20040	161964	27050	1055514	46288	107876	0	0	8218	559725	0	0
2024-10-12 22:43:47			0	38162	0	0	0	21451	20040	161900	27343	1055469	46289	107874	0	0	8219	559208	0	0
2024-10-12 22:44:47			0	38144	0	0	0	21457	20030	161992	27282	1055425	46288	107876	0	0	8218	559955	0	0
2024-10-12 22:45:47			0	38150	0	0	0	21454	20030	161936	27268	1055443	46287	107875	0	0	8219	559716	0	0
2024-10-12 22:46:47			0	38154	0	0	0	21464	20030	161964	27168	1055451	46288	107879	0	0	8219	559557	0	0
2024-10-12 22:47:47			0	38163	0	0	0	21454	20030	161928	27197	1055443	46287	107875	0	0	8219	559199	0	0
2024-10-12 22:48:47			0	38144	0	0	0	21454	20030	161964	27705	1055505	46288	107875	0	0	8218	559955	0	0
2024-10-12 22:49:47			0	38173	0	0	0	21454	20030	161908	27275	1055425	46299	107875	0	0	8220	558802	0	0
2024-10-12 22:50:47			0	38188	0	0	0	21457	20040	161828	27197	1055540	46288	107876	0	0	8221	558175	0	0
2024-10-12 22:51:47			0	38180	0	0	0	21457	20020	161888	27229	1055434	46287	107876	0	0	8220	558554	0	0
2024-10-12 22:52:47			0	38195	0	0	0	21454	20030	161884	27124	1055416	46276	107875	0	0	8221	557928	0	0
2024-10-12 22:53:47			0	38201	0	0	0	21457	20040	161768	27057	1055460	46299	107876	0	0	8222	557658	0	0
2024-10-12 22:54:47			0	38202	0	0	0	21446	20040	161812	27177	1055567	46288	107872	0	0	8222	557619	0	0
2024-10-12 22:55:47			0	38202	0	0	0	21459	20030	161812	27215	1055469	46276	107877	0	0	8222	557650	0	0
2024-10-12 22:56:47			0	38184	0	0	0	21459	20020	161996	27029	1055460	46298	107877	0	0	8220	558395	0	0
2024-10-12 22:57:47			0	38210	0	0	0	21454	20030	161836	26918	1055389	46287	107875	0	0	8222	557332	0	0
2024-10-12 22:58:47			0	38206	0	0	0	21462	20020	161836	27261	1055460	46287	107878	0	0	8222	557521	0	0
2024-10-12 22:59:47			0	38189	0	0	0	21451	20030	161808	27008	1055478	46288	107874	0	0	8221	558166	0	0
2024-10-12 23:00:47			0	38204	0	0	0	21454	20030	162004	26993	1055451	46288	107875	0	0	8222	557570	0	0
2024-10-12 23:01:47			0	38174	0	0	0	21449	20020	161992	27116	1055451	46297	107873	0	0	8220	558793	0	0
2024-10-12 23:02:47			0	38192	0	0	0	21449	20020	161960	27196	1055434	46287	107873	0	0	8221	558077	0	0
2024-10-12 23:03:47			0	38163	0	0	0	21454	20030	162008	27275	1055469	46287	107875	0	0	8219	559199	0	0
2024-10-12 23:04:47			0	38190	0	0	0	21451	20020	161920	27114	1055434	46276	107874	0	0	8221	558157	0	0
2024-10-12 23:05:47			0	38172	0	0	0	21454	20030	162004	26944	1055425	46288	107875	0	0	8220	558841	0	0
2024-10-12 23:06:47			0	38171	0	0	0	21457	20030	161956	27497	1055478	46277	107876	0	0	8220	558881	0	0
2024-10-12 23:07:47			0	38166	0	0	0	21449	20030	162020	27291	1055451	46277	107873	0	0	8220	559080	0	0
2024-10-12 23:08:47			0	38134	0	0	0	21438	20030	161992	27031	1055389	46287	107869	0	0	8218	560353	0	0
2024-10-12 23:09:47			0	38125	0	0	0	21444	20020	162056	27154	1055425	46297	107871	0	0	8217	560743	0	0
2024-10-12 23:10:47			0	38124	0	0	0	21451	20030	162032	27319	1055451	46299	107874	0	0	8217	560752	0	0
2024-10-12 23:11:47			0	38131	0	0	0	21441	20020	162080	27260	1055460	46287	107870	0	0	8218	560504	0	0
2024-10-12 23:12:47			0	38137	0	0	0	21451	20030	162068	27260	1055283	46276	107874	0	0	8218	560234	0	0
2024-10-12 23:13:47			0	38144	0	0	0	21444	20020	162084	27202	1055434	46298	107871	0	0	8218	559986	0	0
2024-10-12 23:14:47			0	38176	0	0	0	21436	20020	161984	27306	1055371	46297	107868	0	0	8220	558713	0	0
2024-10-12 23:15:47			0	38186	0	0	0	21438	20020	162028	27320	1055398	46286	107869	0	0	8221	558316	0	0
2024-10-12 23:16:47			0	38200	0	0	0	21441	20020	161828	27050	1055478	46286	107870	0	0	8222	557760	0	0
2024-10-12 23:17:47			0	38199	0	0	0	21438	20020	161792	27396	1055371	46286	107869	0	0	8222	557799	0	0
2024-10-12 23:18:47			0	38214	0	0	0	21438	20020	161888	27163	1055371	46275	107869	0	0	8223	557204	0	0
2024-10-12 23:19:47			0	38187	0	0	0	21425	20010	161852	27377	1055363	46286	107864	0	0	8221	558307	0	0
2024-10-12 23:20:47			0	38199	0	0	0	21420	20020	161880	27277	1055380	46287	107862	0	0	8222	557799	0	0
2024-10-12 23:21:47			0	38178	0	0	0	21431	20010	161876	27085	1055354	46274	107866	0	0	8220	558664	0	0
2024-10-12 23:22:47			0	38175	0	0	0	21420	20010	161848	27246	1055336	46275	107862	0	0	8221	558784	0	0
2024-10-12 23:23:47			0	38170	0	0	0	21428	20010	161908	26854	1055300	46296	107865	0	0	8220	558983	0	0
2024-10-12 23:24:47			0	38186	0	0	0	21428	20000	161876	27173	1055291	46285	107865	0	0	8221	558377	0	0
2024-10-12 23:25:47			0	38176	0	0	0	21441	20000	161848	26925	1055398	46296	107870	0	0	8220	558775	0	0
2024-10-12 23:26:47			0	38183	0	0	0	21436	20000	161976	27059	1055336	46295	107868	0	0	8221	558497	0	0
2024-10-12 23:27:47			0	38165	0	0	0	21438	20010	161948	27199	1055354	46285	107869	0	0	8220	559181	0	0
2024-10-12 23:28:47			0	38171	0	0	0	21433	20010	161984	27196	1055283	46308	107867	0	0	8220	558943	0	0
2024-10-12 23:29:47			0	38169	0	0	0	21438	20000	161944	26890	1055318	46296	107869	0	0	8220	559053	0	0
2024-10-12 23:30:47			0	38158	0	0	0	21444	20000	162004	27272	1055371	46296	107871	0	0	8219	559491	0	0
2024-10-12 23:31:47			0	38153	0	0	0	21438	20010	162020	26781	1055300	46285	107869	0	0	8219	559659	0	0
2024-10-12 23:32:47			0	38161	0	0	0	21436	20010	161964	27203	1055363	46308	107868	0	0	8219	559341	0	0
2024-10-12 23:33:47			0	38159	0	0	0	21431	20020	162036	27277	1055318	46297	107866	0	0	8219	559389	0	0
2024-10-12 23:34:47			0	38154	0	0	0	21441	20010	161960	27235	1055363	46297	107870	0	0	8219	559619	0	0
2024-10-12 23:35:47			0	38163	0	0	0	21425	20010	162028	26972	1055300	46296	107864	0	0	8220	559261	0	0
2024-10-12 23:36:47			0	38146	0	0	0	21425	20000	162004	27130	1055283	46295	107864	0	0	8219	559968	0	0
2024-10-12 23:37:47			0	38161	0	0	0	21431	20000	162096	26880	1055318	46285	107866	0	0	8219	559371	0	0
2024-10-12 23:38:47			0	38146	0	0	0	21436	20000	161984	27256	1055345	46285	107868	0	0	8218	559968	0	0
2024-10-12 23:39:47			0	38160	0	0	0	21433	20010	162032	27086	1055380	46285	107867	0	0	8219	559380	0	0
2024-10-12 23:40:47			0	38143	0	0	0	21438	20010	161992	26982	1055354	46296	107869	0	0	8218	560057	0	0
2024-10-12 23:41:47			0	38164	0	0	0	21433	20010	161956	27254	1055407	46285	107867	0	0	8220	559221	0	0
2024-10-12 23:42:47			0	38160	0	0	0	21433	20000	161992	26956	1055371	46285	107867	0	0	8219	559411	0	0
2024-10-12 23:43:47			0	38178	0	0	0	21433	20010	162060	27369	1055389	46275	107867	0	0	8220	558664	0	0
2024-10-12 23:44:47			0	38167	0	0	0	21433	20010	161944	27263	1055363	46286	107867	0	0	8220	559102	0	0
2024-10-12 23:45:47			0	38164	0	0	0	21438	20010	161924	27407	1055407	46285	107869	0	0	8220	559221	0	0
2024-10-12 23:46:47			0	38189	0	0	0	21441	20010	161804	26961	1055416	46297	107870	0	0	8221	558227	0	0
2024-10-12 23:47:47			0	38216	0	0	0	21418	20000	161928	27376	1055345	46296	107861	0	0	8223	557186	0	0
2024-10-12 23:48:47			0	38194	0	0	0	21418	20010	161888	27623	1055327	46285	107861	0	0	8222	558029	0	0
2024-10-12 23:49:47			0	38197	0	0	0	21428	20010	161904	27315	1055363	46275	107865	0	0	8222	557910	0	0
2024-10-12 23:50:47			0	38198	0	0	0	21428	19990	161916	27074	1055274	46272	107865	0	0	8222	557931	0	0
2024-10-12 23:51:47			0	38189	0	0	0	21428	20000	161812	27272	1055318	46296	107865	0	0	8221	558258	0	0
2024-10-12 23:52:47			0	38188	0	0	0	21436	20000	161912	27450	1055318	46285	107868	0	0	8221	558298	0	0
2024-10-12 23:53:47			0	38191	0	0	0	21428	20000	161908	27289	1055283	46273	107865	0	0	8221	558179	0	0
2024-10-12 23:54:47			0	38181	0	0	0	21428	20010	161980	27364	1055327	46285	107865	0	0	8221	558545	0	0
2024-10-12 23:55:47			0	38210	0	0	0	21418	20000	161912	27343	1055309	46295	107861	0	0	8223	557424	0	0
2024-10-12 23:56:47			0	38178	0	0	0	21418	20000	161968	27253	1055283	46284	107861	0	0	8221	558695	0	0
2024-10-12 23:57:47			0	38156	0	0	0	21423	19990	161948	27500	1055247	46283	107863	0	0	8219	559601	0	0
2024-10-12 23:58:47			0	38180	0	0	0	21428	20000	161928	26993	1055256	46284	107865	0	0	8221	558616	0	0
2024-10-12 23:59:47			0	38180	0	0	0	21428	20000	161964	27180	1055203	46273	107865	0	0	8221	558616	0	0
2024-10-13 00:00:47			0	38181	0	0	0	21425	20000	161896	27171	1055291	46274	107864	0	0	8221	558576	0	0
2024-10-13 00:01:47			0	38187	0	0	0	21425	19990	161832	27414	1055300	46294	107864	0	0	8221	558368	0	0
2024-10-13 00:02:47			0	38194	0	0	0	21418	19990	161896	27374	1055247	46294	107861	0	0	8222	558090	0	0
2024-10-13 00:03:47			0	38176	0	0	0	21420	19990	161904	27282	1055318	46283	107862	0	0	8220	558806	0	0
2024-10-13 00:04:47			0	38193	0	0	0	21425	20000	161892	27433	1055362	46295	107864	0	0	8221	558099	0	0
2024-10-13 00:05:47			0	38174	0	0	0	21420	20000	161748	27781	1055309	46295	107862	0	0	8220	558854	0	0
2024-10-13 00:06:47			0	38194	0	0	0	21425	19990	161928	27112	1055327	46272	107864	0	0	8221	558090	0	0
2024-10-13 00:07:47			0	38192	0	0	0	21428	20000	161980	27244	1055283	46295	107865	0	0	8221	558139	0	0
2024-10-13 00:08:47			0	38194	0	0	0	21425	20000	161912	27287	1055283	46295	107864	0	0	8221	558060	0	0
2024-10-13 00:09:47			0	38177	0	0	0	21436	19990	161948	27163	1055300	46261	107868	0	0	8220	558766	0	0
2024-10-13 00:10:47			0	38197	0	0	0	21418	19990	161800	27538	1055344	46272	107861	0	0	8222	557971	0	0
2024-10-13 00:11:47			0	38172	0	0	0	21431	20000	161932	27178	1055336	46284	107866	0	0	8220	558934	0	0
2024-10-13 00:12:47			0	38186	0	0	0	21428	19990	161908	27192	1055353	46294	107865	0	0	8221	558408	0	0
2024-10-13 00:13:47			0	38182	0	0	0	21428	19990	161940	27457	1055220	46294	107865	0	0	8221	558567	0	0
2024-10-13 00:14:47			0	38194	0	0	0	21420	20000	161860	27074	1055309	46284	107862	0	0	8222	558060	0	0
2024-10-13 00:15:47			0	38199	0	0	0	21418	19990	161920	27405	1055300	46294	107861	0	0	8222	557892	0	0
2024-10-13 00:16:47			0	38190	0	0	0	21420	19990	161940	27358	1055291	46294	107862	0	0	8221	558249	0	0
2024-10-13 00:17:47			0	38195	0	0	0	21407	19980	161948	27055	1055327	46292	107857	0	0	8222	558081	0	0
2024-10-13 00:18:47			0	38197	0	0	0	21418	19990	161860	27258	1055274	46283	107861	0	0	8222	557971	0	0
2024-10-13 00:19:47			0	38185	0	0	0	21415	19990	161840	26998	1055211	46272	107860	0	0	8221	558448	0	0
2024-10-13 00:20:47			0	38190	0	0	0	21415	19990	161848	27383	1055274	46283	107860	0	0	8221	558249	0	0
2024-10-13 00:21:47			0	38159	0	0	0	21418	19990	161940	27100	1055274	46272	107861	0	0	8220	559482	0	0
2024-10-13 00:22:47			0	38183	0	0	0	21410	19990	161932	27095	1055300	46283	107858	0	0	8221	558527	0	0
2024-10-13 00:23:47			0	38186	0	0	0	21412	19990	161904	27128	1055265	46283	107859	0	0	8221	558408	0	0
2024-10-13 00:24:47			0	38175	0	0	0	21415	19990	161816	27261	1055211	46272	107860	0	0	8220	558845	0	0
2024-10-13 00:25:47			0	38152	0	0	0	21402	19990	161868	27317	1055220	46294	107855	0	0	8219	559760	0	0
2024-10-13 00:26:47			0	38194	0	0	0	21402	19980	161856	27105	1055247	46282	107855	0	0	8222	558121	0	0
2024-10-13 00:27:47			0	38161	0	0	0	21402	19990	161948	27360	1055291	46283	107855	0	0	8220	559402	0	0
2024-10-13 00:28:47			0	38194	0	0	0	21412	19980	161904	27338	1055229	46272	107859	0	0	8222	558121	0	0
2024-10-13 00:29:47			0	38203	0	0	0	21402	19980	161920	27180	1055203	46294	107855	0	0	8222	557764	0	0
2024-10-13 00:30:47			0	38195	0	0	0	21402	19990	161804	27045	1055265	46283	107855	0	0	8222	558051	0	0
2024-10-13 00:31:47			0	38215	0	0	0	21410	19980	161864	27100	1055256	46283	107858	0	0	8223	557287	0	0
2024-10-13 00:32:47			0	38197	0	0	0	21402	19980	161792	27383	1055256	46283	107855	0	0	8222	558002	0	0
2024-10-13 00:33:47			0	38216	0	0	0	21410	19980	161780	26998	1055194	46282	107858	0	0	8223	557247	0	0
2024-10-13 00:34:47			0	38192	0	0	0	21399	19980	161756	26934	1055220	46282	107854	0	0	8222	558201	0	0
2024-10-13 00:35:47			0	38195	0	0	0	21392	19980	161920	27216	1055229	46283	107851	0	0	8222	558081	0	0
2024-10-13 00:36:47			0	38166	0	0	0	21392	19970	161960	26944	1055158	46291	107851	0	0	8220	559265	0	0
2024-10-13 00:37:47			0	38179	0	0	0	21392	19980	161944	27164	1055220	46271	107851	0	0	8221	558717	0	0
2024-10-13 00:38:47			0	38182	0	0	0	21397	19980	161932	26927	1055140	46292	107853	0	0	8221	558598	0	0
2024-10-13 00:39:47			0	38193	0	0	0	21392	19980	161852	27020	1055167	46282	107851	0	0	8222	558161	0	0
2024-10-13 00:40:47			0	38183	0	0	0	21397	19960	161876	27064	1055246	46280	107853	0	0	8221	558620	0	0
2024-10-13 00:41:47			0	38191	0	0	0	21394	19970	161896	27088	1055202	46281	107852	0	0	8222	558271	0	0
2024-10-13 00:42:47			0	38190	0	0	0	21394	19970	162004	27154	1055202	46291	107852	0	0	8222	558311	0	0
2024-10-13 00:43:47			0	38184	0	0	0	21386	19970	161972	26767	1055238	46291	107849	0	0	8221	558549	0	0
2024-10-13 00:44:47			0	38166	0	0	0	21394	19960	161940	27267	1055166	46291	107852	0	0	8220	559296	0	0
2024-10-13 00:45:47			0	38179	0	0	0	21386	19970	161876	27234	1055175	46270	107849	0	0	8221	558748	0	0
2024-10-13 00:46:47			0	38159	0	0	0	21381	19960	162072	26949	1055140	46291	107847	0	0	8220	559574	0	0
2024-10-13 00:47:47			0	38156	0	0	0	21392	19980	162052	27137	1055140	46282	107851	0	0	8220	559632	0	0
2024-10-13 00:48:47			0	38156	0	0	0	21389	19970	162044	27251	1055202	46281	107850	0	0	8220	559663	0	0
2024-10-13 00:49:47			0	38140	0	0	0	21384	19960	162064	27076	1055166	46291	107848	0	0	8219	560331	0	0
2024-10-13 00:50:47			0	38138	0	0	0	21399	19960	162012	27024	1055166	46269	107854	0	0	8218	560410	0	0
2024-10-13 00:51:47			0	38141	0	0	0	21392	19970	161980	27161	1055149	46291	107851	0	0	8219	560260	0	0
2024-10-13 00:52:47			0	38127	0	0	0	21397	19960	162088	27059	1055166	46280	107853	0	0	8218	560849	0	0
2024-10-13 00:53:47			0	38142	0	0	0	21389	19960	162040	26805	1055140	46280	107850	0	0	8219	560251	0	0
2024-10-13 00:54:47			0	38147	0	0	0	21394	19960	162156	27081	1055166	46291	107852	0	0	8219	560052	0	0
2024-10-13 00:55:47			0	38113	0	0	0	21389	19970	162176	27177	1055149	46291	107850	0	0	8217	561376	0	0
2024-10-13 00:56:47			0	38133	0	0	0	21392	19960	162272	27171	1055140	46280	107851	0	0	8218	560610	0	0
2024-10-13 00:57:47			0	38106	0	0	0	21379	19970	162180	27374	1055149	46281	107846	0	0	8217	561655	0	0
2024-10-13 00:58:47			0	38097	0	0	0	21376	19970	162168	26934	1055175	46281	107845	0	0	8216	562014	0	0
2024-10-13 00:59:47			0	38071	0	0	0	21386	19970	162264	27005	1055096	46291	107849	0	0	8215	563052	0	0
2024-10-13 01:00:47			0	38075	0	0	0	21371	19970	162292	27326	1055122	46281	107843	0	0	8215	562892	0	0
2024-10-13 01:01:47			0	38067	0	0	0	21386	19970	162424	27417	1055149	46281	107849	0	0	8215	563212	0	0
2024-10-13 01:02:47			0	38060	0	0	0	21368	19960	162392	27326	1055087	46269	107842	0	0	8214	563523	0	0
2024-10-13 01:03:47			0	38047	0	0	0	21376	19940	162516	26975	1055113	46290	107845	0	0	8213	564105	0	0
2024-10-13 01:04:47			0	38044	0	0	0	21379	19950	162416	27029	1055104	46291	107846	0	0	8213	564194	0	0
2024-10-13 01:05:47			0	38045	0	0	0	21381	19960	162436	26991	1055060	46269	107847	0	0	8213	564123	0	0
2024-10-13 01:06:47			0	38055	0	0	0	21366	19950	162496	26791	1055078	46280	107841	0	0	8214	563754	0	0
2024-10-13 01:07:47			0	38057	0	0	0	21371	19960	162492	27164	1055113	46269	107843	0	0	8214	563643	0	0
2024-10-13 01:08:47			0	38040	0	0	0	21374	19950	162500	27118	1055131	46280	107844	0	0	8213	564354	0	0
2024-10-13 01:09:47			0	38070	0	0	0	21381	19940	162432	27152	1055113	46279	107847	0	0	8215	563185	0	0
2024-10-13 01:10:47			0	38072	0	0	0	21371	19950	162440	27102	1055078	46280	107843	0	0	8215	563074	0	0
2024-10-13 01:11:47			0	38053	0	0	0	21368	19940	162516	27180	1055033	46268	107842	0	0	8214	563865	0	0
2024-10-13 01:12:47			0	38037	0	0	0	21368	19950	162548	27218	1055051	46291	107842	0	0	8213	564474	0	0
2024-10-13 01:13:47			0	38034	0	0	0	21358	19940	162512	27133	1055113	46279	107838	0	0	8213	564625	0	0
2024-10-13 01:14:47			0	38027	0	0	0	21355	19950	162552	27147	1055042	46290	107837	0	0	8213	564874	0	0
2024-10-13 01:15:47			0	38030	0	0	0	21366	19930	162515	27329	1055042	46278	107841	0	0	8213	564816	0	0
2024-10-13 01:16:47			0	38053	0	0	0	21366	19940	162508	27498	1055060	46268	107841	0	0	8214	563865	0	0
2024-10-13 01:17:47			0	38031	0	0	0	21368	19940	162484	27369	1055113	46279	107842	0	0	8213	564745	0	0
2024-10-13 01:18:47			0	38058	0	0	0	21366	19940	162376	27369	1055051	46289	107841	0	0	8214	563665	0	0
2024-10-13 01:19:47			0	38067	0	0	0	21358	19940	162332	27050	1055024	46300	107838	0	0	8215	563305	0	0
2024-10-13 01:20:47			0	38057	0	0	0	21355	19940	162448	27251	1055051	46278	107837	0	0	8214	563705	0	0
2024-10-13 01:21:47			0	38056	0	0	0	21355	19930	162480	27171	1054989	46267	107837	0	0	8214	563776	0	0
2024-10-13 01:22:47			0	38031	0	0	0	21353	19930	162539	27159	1055015	46278	107836	0	0	8213	564776	0	0
2024-10-13 01:23:47			0	38049	0	0	0	21358	19930	162512	27178	1055015	46278	107838	0	0	8214	564056	0	0
2024-10-13 01:24:47			0	38036	0	0	0	21355	19930	162544	27163	1055042	46278	107837	0	0	8213	564576	0	0
2024-10-13 01:25:47			0	38005	0	0	0	21350	19930	162603	27386	1054962	46278	107835	0	0	8211	565817	0	0
2024-10-13 01:26:47			0	37991	0	0	0	21353	19930	162683	27095	1055015	46278	107836	0	0	8210	566378	0	0
2024-10-13 01:27:47			0	37978	0	0	0	21353	19940	162635	27239	1055051	46278	107836	0	0	8210	566869	0	0
2024-10-13 01:28:47			0	37987	0	0	0	21350	19930	162759	27504	1054927	46277	107835	0	0	8210	566539	0	0
2024-10-13 01:29:47			0	37991	0	0	0	21340	19930	162727	27263	1054989	46267	107831	0	0	8211	566378	0	0
2024-10-13 01:30:47			0	37966	0	0	0	21345	19920	162727	27452	1054944	46287	107833	0	0	8209	567413	0	0
2024-10-13 01:31:47			0	37971	0	0	0	21350	19920	162847	27377	1054971	46287	107835	0	0	8209	567212	0	0
2024-10-13 01:32:47			0	37983	0	0	0	21340	19930	162851	27258	1054953	46288	107831	0	0	8210	566699	0	0
2024-10-13 01:33:47			0	37940	0	0	0	21342	19920	162887	27301	1054944	46265	107832	0	0	8208	568457	0	0
2024-10-13 01:34:47			0	37964	0	0	0	21340	19920	162903	27493	1054918	46276	107831	0	0	8209	567493	0	0
2024-10-13 01:35:47			0	37934	0	0	0	21342	19920	162935	27372	1054944	46287	107832	0	0	8207	568699	0	0
2024-10-13 01:36:47			0	37924	0	0	0	21337	19920	162995	27450	1054936	46265	107830	0	0	8207	569101	0	0
2024-10-13 01:37:47			0	37910	0	0	0	21327	19920	163019	27152	1054962	46287	107826	0	0	8206	569664	0	0
2024-10-13 01:38:47			0	37894	0	0	0	21335	19930	163047	27201	1054927	46277	107829	0	0	8205	570277	0	0
2024-10-13 01:39:47			0	37888	0	0	0	21340	19920	163035	27255	1054909	46265	107831	0	0	8205	570550	0	0
2024-10-13 01:40:47			0	37898	0	0	0	21337	19920	163175	27260	1054989	46276	107830	0	0	8205	570147	0	0
2024-10-13 01:41:47			0	37889	0	0	0	21350	19910	163147	27029	1054900	46276	107835	0	0	8204	570541	0	0
2024-10-13 01:42:47			0	37877	0	0	0	21337	19920	163107	27384	1054909	46287	107830	0	0	8204	570993	0	0
2024-10-13 01:43:47			0	37868	0	0	0	21348	19910	163175	27175	1054918	46286	107834	0	0	8203	571387	0	0
2024-10-13 01:44:47			0	37886	0	0	0	21342	19910	163227	27319	1054980	46287	107832	0	0	8204	570662	0	0
2024-10-13 01:45:47			0	37889	0	0	0	21350	19910	163259	27416	1054927	46287	107835	0	0	8204	570541	0	0
2024-10-13 01:46:47			0	37879	0	0	0	21350	19900	163159	27260	1054935	46274	107835	0	0	8204	570975	0	0
2024-10-13 01:47:47			0	37904	0	0	0	21340	19920	163155	27338	1054962	46265	107831	0	0	8205	569905	0	0
2024-10-13 01:48:47			0	37886	0	0	0	21335	19910	163135	27379	1054944	46275	107829	0	0	8204	570662	0	0
2024-10-13 01:49:47			0	37882	0	0	0	21345	19910	163107	27602	1054944	46264	107833	0	0	8204	570823	0	0
2024-10-13 01:50:47			0	37895	0	0	0	21345	19910	163155	27289	1054891	46275	107833	0	0	8205	570299	0	0
2024-10-13 01:51:47			0	37888	0	0	0	21335	19920	163159	27111	1054936	46287	107829	0	0	8205	570550	0	0
2024-10-13 01:52:47			0	37875	0	0	0	21329	19910	163227	27360	1054891	46286	107827	0	0	8204	571105	0	0
2024-10-13 01:53:47			0	37890	0	0	0	21337	19920	163171	27296	1054936	46265	107830	0	0	8205	570469	0	0
2024-10-13 01:54:47			0	37886	0	0	0	21337	19910	163175	27211	1054927	46287	107830	0	0	8204	570662	0	0
2024-10-13 01:55:47			0	37884	0	0	0	21327	19910	163251	27083	1054864	46286	107826	0	0	8204	570742	0	0
2024-10-13 01:56:47			0	37882	0	0	0	21327	19900	163299	27168	1054909	46252	107826	0	0	8204	570854	0	0
2024-10-13 01:57:47			0	37871	0	0	0	21335	19900	163303	27498	1054909	46274	107829	0	0	8204	571298	0	0
2024-10-13 01:58:47			0	37861	0	0	0	21327	19900	163331	27020	1054873	46274	107826	0	0	8203	571701	0	0
2024-10-13 01:59:47			0	37870	0	0	0	21340	19910	163319	27194	1054918	46275	107831	0	0	8203	571307	0	0
2024-10-13 02:00:47			0	37863	0	0	0	21335	19910	163327	27111	1054873	46287	107829	0	0	8203	571589	0	0
2024-10-13 02:01:47			0	37853	0	0	0	21340	19910	163339	27528	1054891	46275	107831	0	0	8202	571992	0	0
2024-10-13 02:02:47			0	37872	0	0	0	21335	19890	163303	27331	1054864	46274	107829	0	0	8204	571289	0	0
2024-10-13 02:03:47			0	37866	0	0	0	21329	19900	163379	27196	1054829	46285	107827	0	0	8203	571500	0	0
2024-10-13 02:04:47			0	37854	0	0	0	21329	19900	163355	27497	1054882	46285	107827	0	0	8203	571984	0	0
2024-10-13 02:05:47			0	37867	0	0	0	21332	19910	163455	27400	1054891	46275	107828	0	0	8203	571428	0	0
2024-10-13 02:06:47			0	37870	0	0	0	21329	19900	163299	27265	1054882	46274	107827	0	0	8204	571338	0	0
2024-10-13 02:07:47			0	37860	0	0	0	21332	19900	163255	27365	1054820	46285	107828	0	0	8203	571742	0	0
2024-10-13 02:08:47			0	37881	0	0	0	21322	19910	163275	27055	1054864	46275	107824	0	0	8204	570863	0	0
2024-10-13 02:09:47			0	37881	0	0	0	21332	19900	163191	27112	1054847	46274	107828	0	0	8204	570895	0	0
2024-10-13 02:10:47			0	37890	0	0	0	21327	19900	163155	27421	1054873	46274	107826	0	0	8205	570532	0	0
2024-10-13 02:11:47			0	37866	0	0	0	21327	19900	163111	27248	1054856	46274	107826	0	0	8203	571500	0	0
2024-10-13 02:12:47			0	37866	0	0	0	21316	19900	163099	27260	1054856	46274	107822	0	0	8204	571500	0	0
2024-10-13 02:13:47			0	37890	0	0	0	21327	19900	163231	27471	1054873	46274	107826	0	0	8205	570532	0	0
2024-10-13 02:14:47			0	37884	0	0	0	21316	19900	163091	27168	1054820	46274	107822	0	0	8205	570774	0	0
2024-10-13 02:15:47			0	37880	0	0	0	21324	19900	163255	27371	1054900	46285	107825	0	0	8204	570935	0	0
2024-10-13 02:16:47			0	37884	0	0	0	21324	19890	163227	27111	1054785	46274	107825	0	0	8204	570805	0	0
2024-10-13 02:17:47			0	37865	0	0	0	21314	19900	163243	27270	1054847	46274	107821	0	0	8204	571540	0	0
2024-10-13 02:18:47			0	37855	0	0	0	21322	19900	163259	27509	1054873	46274	107824	0	0	8203	571943	0	0
2024-10-13 02:19:47			0	37838	0	0	0	21324	19890	163275	27338	1054838	46285	107825	0	0	8202	572661	0	0
2024-10-13 02:20:47			0	37839	0	0	0	21316	19890	163267	27381	1054855	46273	107822	0	0	8202	572621	0	0
2024-10-13 02:21:47			0	37841	0	0	0	21322	19900	163243	27159	1054847	46274	107824	0	0	8202	572508	0	0
2024-10-13 02:22:47			0	37846	0	0	0	21322	19900	163195	27327	1054793	46274	107824	0	0	8202	572307	0	0
2024-10-13 02:23:47			0	37830	0	0	0	21327	19890	163315	27156	1054758	46274	107826	0	0	8201	572984	0	0
2024-10-13 02:24:47			0	37835	0	0	0	21322	19880	163379	27147	1054846	46250	107824	0	0	8202	572814	0	0
2024-10-13 02:25:47			0	37847	0	0	0	21324	19890	163415	27142	1054864	46252	107825	0	0	8202	572298	0	0
2024-10-13 02:26:47			0	37817	0	0	0	21316	19890	163435	27218	1054785	46285	107822	0	0	8201	573510	0	0
2024-10-13 02:27:47			0	37817	0	0	0	21314	19880	163415	27580	1054793	46283	107821	0	0	8201	573541	0	0
2024-10-13 02:28:47			0	37837	0	0	0	21322	19890	163363	27305	1054855	46284	107824	0	0	8202	572701	0	0
2024-10-13 02:29:47			0	37846	0	0	0	21316	19890	163443	27039	1054802	46284	107822	0	0	8202	572338	0	0
2024-10-13 02:30:47			0	37863	0	0	0	21324	19890	163299	27215	1054908	46284	107825	0	0	8203	571652	0	0
2024-10-13 02:31:47			0	37849	0	0	0	21332	19900	163315	27431	1054847	46274	107828	0	0	8202	572185	0	0
2024-10-13 02:32:47			0	37857	0	0	0	21322	19890	163243	27580	1054829	46284	107824	0	0	8203	571894	0	0
2024-10-13 02:33:47			0	37869	0	0	0	21324	19890	163251	27223	1054811	46285	107825	0	0	8204	571410	0	0
2024-10-13 02:34:47			0	37857	0	0	0	21311	19890	163227	27416	1054776	46273	107820	0	0	8203	571894	0	0
2024-10-13 02:35:47			0	37862	0	0	0	21314	19890	163311	27407	1054838	46285	107821	0	0	8203	571692	0	0
2024-10-13 02:36:47			0	37859	0	0	0	21314	19890	163315	27183	1054811	46285	107821	0	0	8203	571813	0	0
2024-10-13 02:37:47			0	37851	0	0	0	21306	19890	163283	27190	1054785	46252	107818	0	0	8203	572136	0	0
2024-10-13 02:38:47			0	37865	0	0	0	21311	19890	163263	27180	1054776	46273	107820	0	0	8204	571571	0	0
2024-10-13 02:39:47			0	37840	0	0	0	21301	19890	163283	27033	1054838	46285	107816	0	0	8202	572580	0	0
2024-10-13 02:40:47			0	37821	0	0	0	21301	19880	163355	27277	1054811	46283	107816	0	0	8201	573380	0	0
2024-10-13 02:41:47			0	37802	0	0	0	21306	19880	163499	27189	1054820	46283	107818	0	0	8200	574148	0	0
2024-10-13 02:42:47			0	37806	0	0	0	21301	19880	163503	27187	1054784	46272	107816	0	0	8200	573986	0	0
2024-10-13 02:43:47			0	37768	0	0	0	21293	19890	163615	26935	1054776	46262	107813	0	0	8198	575492	0	0
2024-10-13 02:44:47			0	37774	0	0	0	21293	19890	163647	27241	1054829	46262	107813	0	0	8198	575250	0	0
2024-10-13 02:45:47			0	37762	0	0	0	21293	19870	163779	27232	1054722	46272	107813	0	0	8198	575799	0	0
2024-10-13 02:46:47			0	37721	0	0	0	21298	19870	163739	27116	1054802	46272	107815	0	0	8195	577462	0	0
2024-10-13 02:47:47			0	37714	0	0	0	21298	19880	163779	27253	1054767	46272	107815	0	0	8195	577715	0	0
2024-10-13 02:48:47			0	37725	0	0	0	21293	19880	163751	27211	1054758	46272	107813	0	0	8196	577268	0	0
2024-10-13 02:49:47			0	37740	0	0	0	21290	19880	163883	27395	1054758	46261	107812	0	0	8196	576659	0	0
2024-10-13 02:50:47			0	37754	0	0	0	21288	19880	163695	27416	1054758	46283	107811	0	0	8197	576092	0	0
2024-10-13 02:51:47			0	37745	0	0	0	21288	19870	163727	27395	1054713	46282	107811	0	0	8197	576488	0	0
2024-10-13 02:52:47			0	37756	0	0	0	21290	19870	163715	27055	1054696	46261	107812	0	0	8197	576042	0	0
2024-10-13 02:53:47			0	37773	0	0	0	21290	19880	163759	26772	1054758	46272	107812	0	0	8198	575322	0	0
2024-10-13 02:54:47			0	37757	0	0	0	21283	19870	163675	27261	1054749	46272	107809	0	0	8198	576002	0	0
2024-10-13 02:55:47			0	37767	0	0	0	21285	19870	163639	26968	1054722	46283	107810	0	0	8198	575596	0	0
2024-10-13 02:56:47			0	37768	0	0	0	21301	19870	163571	27019	1054740	46271	107816	0	0	8198	575556	0	0
2024-10-13 02:57:47			0	37807	0	0	0	21298	19870	163535	27008	1054713	46282	107815	0	0	8200	573977	0	0
2024-10-13 02:58:47			0	37857	0	0	0	21301	19860	163371	27329	1054749	46269	107816	0	0	8203	571989	0	0
2024-10-13 02:59:47			0	37842	0	0	0	21309	19870	163383	27104	1054713	46282	107819	0	0	8202	572563	0	0
2024-10-13 03:00:47			0	37842	0	0	0	21301	19870	163323	27069	1054749	46272	107816	0	0	8202	572563	0	0
2024-10-13 03:01:47			0	37861	0	0	0	21301	19870	163339	27267	1054749	46272	107816	0	0	8203	571796	0	0
2024-10-13 03:02:47			0	37855	0	0	0	21309	19870	163239	27055	1054740	46271	107819	0	0	8203	572038	0	0
2024-10-13 03:03:47			0	37876	0	0	0	21306	19870	163287	26939	1054722	46261	107818	0	0	8204	571191	0	0
2024-10-13 03:04:47			0	37872	0	0	0	21301	19860	163315	27319	1054669	46269	107816	0	0	8204	571383	0	0
2024-10-13 03:05:47			0	37881	0	0	0	21301	19880	163107	27499	1054758	46272	107816	0	0	8205	570958	0	0
2024-10-13 03:06:47			0	37869	0	0	0	21303	19870	163187	27357	1054696	46283	107817	0	0	8204	571473	0	0
2024-10-13 03:07:47			0	37873	0	0	0	21311	19870	163239	27196	1054775	46272	107820	0	0	8204	571312	0	0
2024-10-13 03:08:47			0	37869	0	0	0	21293	19870	163219	27379	1054696	46283	107813	0	0	8204	571473	0	0
2024-10-13 03:09:47			0	37882	0	0	0	21285	19870	163207	27313	1054696	46283	107810	0	0	8205	570949	0	0
2024-10-13 03:10:47			0	37854	0	0	0	21285	19870	163219	27538	1054740	46271	107810	0	0	8203	572078	0	0
2024-10-13 03:11:47			0	37878	0	0	0	21293	19870	163143	27346	1054713	46271	107813	0	0	8205	571110	0	0
2024-10-13 03:12:47			0	37878	0	0	0	21290	19870	163135	27203	1054713	46260	107812	0	0	8205	571110	0	0
2024-10-13 03:13:47			0	37871	0	0	0	21293	19860	163207	27163	1054722	46269	107813	0	0	8204	571424	0	0
2024-10-13 03:14:47			0	37862	0	0	0	21296	19870	163227	27237	1054722	46261	107814	0	0	8204	571755	0	0
2024-10-13 03:15:47			0	37861	0	0	0	21296	19870	163283	27471	1054740	46271	107814	0	0	8203	571796	0	0
2024-10-13 03:16:47			0	37854	0	0	0	21290	19860	163267	27300	1054731	46281	107812	0	0	8203	572110	0	0
2024-10-13 03:17:47			0	37867	0	0	0	21288	19870	163411	27251	1054766	46271	107811	0	0	8204	571554	0	0
2024-10-13 03:18:47			0	37845	0	0	0	21290	19860	163347	27374	1054678	46270	107812	0	0	8203	572473	0	0
2024-10-13 03:19:47			0	37844	0	0	0	21285	19850	163311	27147	1054686	46269	107810	0	0	8203	572545	0	0
2024-10-13 03:20:47			0	37879	0	0	0	21293	19860	163307	27284	1054678	46259	107813	0	0	8205	571101	0	0
2024-10-13 03:21:47			0	37866	0	0	0	21280	19870	163171	27095	1054740	46271	107808	0	0	8204	571594	0	0
2024-10-13 03:22:47			0	37886	0	0	0	21283	19870	163163	27182	1054660	46271	107809	0	0	8205	570788	0	0
2024-10-13 03:23:47			0	37873	0	0	0	21277	19860	163143	27405	1054695	46269	107807	0	0	8204	571343	0	0
2024-10-13 03:24:47			0	37880	0	0	0	21288	19860	163119	27104	1054757	46270	107811	0	0	8205	571061	0	0
2024-10-13 03:25:47			0	37879	0	0	0	21275	19860	163163	27268	1054678	46281	107806	0	0	8205	571101	0	0
2024-10-13 03:26:47			0	37885	0	0	0	21277	19860	163291	27286	1054722	46258	107807	0	0	8205	570859	0	0
2024-10-13 03:27:47			0	37880	0	0	0	21283	19860	163195	27355	1054695	46269	107809	0	0	8205	571061	0	0
2024-10-13 03:28:47			0	37864	0	0	0	21283	19860	163203	27268	1054678	46270	107809	0	0	8204	571706	0	0
2024-10-13 03:29:47			0	37868	0	0	0	21277	19860	163203	27455	1054669	46269	107807	0	0	8204	571545	0	0
2024-10-13 03:30:47			0	37862	0	0	0	21280	19850	163295	27454	1054713	46269	107808	0	0	8204	571818	0	0
2024-10-13 03:31:47			0	37848	0	0	0	21277	19860	163403	27348	1054695	46280	107807	0	0	8203	572352	0	0
2024-10-13 03:32:47			0	37852	0	0	0	21283	19860	163319	27144	1054642	46269	107809	0	0	8203	572190	0	0
2024-10-13 03:33:47			0	37834	0	0	0	21280	19860	163283	27358	1054669	46280	107808	0	0	8202	572917	0	0
2024-10-13 03:34:47			0	37852	0	0	0	21283	19860	163327	27351	1054695	46258	107809	0	0	8203	572190	0	0
2024-10-13 03:35:47			0	37829	0	0	0	21277	19860	163495	27192	1054669	46280	107807	0	0	8202	573119	0	0
2024-10-13 03:36:47			0	37833	0	0	0	21272	19850	163595	27635	1054678	46280	107805	0	0	8202	572989	0	0
2024-10-13 03:37:47			0	37829	0	0	0	21275	19860	163507	27260	1054669	46269	107806	0	0	8202	573119	0	0
2024-10-13 03:38:47			0	37830	0	0	0	21275	19860	163435	27244	1054695	46269	107806	0	0	8202	573079	0	0
2024-10-13 03:39:47			0	37858	0	0	0	21272	19850	163351	27142	1054651	46258	107805	0	0	8204	571980	0	0
2024-10-13 03:40:47			0	37846	0	0	0	21270	19850	163351	27549	1054633	46280	107804	0	0	8203	572464	0	0
2024-10-13 03:41:47			0	37840	0	0	0	21270	19850	163323	27137	1054633	46258	107804	0	0	8203	572707	0	0
2024-10-13 03:42:47			0	37840	0	0	0	21270	19850	163571	27390	1054624	46269	107804	0	0	8203	572707	0	0
2024-10-13 03:43:47			0	37828	0	0	0	21275	19850	163523	27150	1054624	46248	107806	0	0	8202	573191	0	0
2024-10-13 03:44:47			0	37838	0	0	0	21272	19850	163595	27396	1054678	46280	107805	0	0	8202	572787	0	0
2024-10-13 03:45:47			0	37826	0	0	0	21267	19840	163551	27213	1054669	46257	107803	0	0	8202	573304	0	0
2024-10-13 03:46:47			0	37836	0	0	0	21267	19850	163531	27225	1054607	46269	107803	0	0	8202	572868	0	0
2024-10-13 03:47:47			0	37847	0	0	0	21272	19850	163583	27533	1054660	46269	107805	0	0	8203	572424	0	0
2024-10-13 03:48:47			0	37817	0	0	0	21267	19840	163555	27289	1054589	46268	107803	0	0	8201	573668	0	0
2024-10-13 03:49:47			0	37831	0	0	0	21259	19840	163507	27229	1054642	46268	107800	0	0	8202	573102	0	0
2024-10-13 03:50:47			0	37833	0	0	0	21272	19850	163491	27248	1054651	46269	107805	0	0	8202	572989	0	0
2024-10-13 03:51:47			0	37812	0	0	0	21257	19850	163519	27434	1054624	46269	107799	0	0	8201	573838	0	0
2024-10-13 03:52:47			0	37811	0	0	0	21264	19850	163683	27272	1054624	46269	107802	0	0	8201	573879	0	0
2024-10-13 03:53:47			0	37812	0	0	0	21257	19840	163691	27280	1054562	46268	107799	0	0	8201	573870	0	0
2024-10-13 03:54:47			0	37820	0	0	0	21259	19840	163651	27190	1054589	46268	107800	0	0	8202	573546	0	0
2024-10-13 03:55:47			0	37834	0	0	0	21264	19850	163615	27403	1054598	46269	107802	0	0	8202	572949	0	0
2024-10-13 03:56:47			0	37812	0	0	0	21264	19830	163587	27097	1054597	46267	107802	0	0	8201	573901	0	0
2024-10-13 03:57:47			0	37808	0	0	0	21264	19840	163679	27467	1054589	46268	107802	0	0	8201	574032	0	0
2024-10-13 03:58:47			0	37812	0	0	0	21264	19840	163595	27438	1054589	46279	107802	0	0	8201	573870	0	0
2024-10-13 03:59:47			0	37794	0	0	0	21264	19840	163703	27300	1054500	46267	107802	0	0	8200	574598	0	0
2024-10-13 04:00:47			0	37797	0	0	0	21267	19840	163627	27428	1054589	46257	107803	0	0	8200	574477	0	0
2024-10-13 04:01:47			0	37778	0	0	0	21262	19840	163775	27157	1054642	46268	107801	0	0	8199	575246	0	0
2024-10-13 04:02:47			0	37773	0	0	0	21262	19840	163855	27119	1054606	46256	107801	0	0	8199	575448	0	0
2024-10-13 04:03:47			0	37744	0	0	0	21257	19840	163891	27241	1054615	46268	107799	0	0	8197	576624	0	0
2024-10-13 04:04:47			0	37736	0	0	0	21262	19840	163951	27443	1054553	46256	107801	0	0	8197	576949	0	0
2024-10-13 04:05:47			0	37725	0	0	0	21246	19830	163935	27447	1054597	46256	107795	0	0	8196	577427	0	0
2024-10-13 04:06:47			0	37713	0	0	0	21244	19840	164079	27469	1054606	46256	107794	0	0	8195	577883	0	0
2024-10-13 04:07:47			0	37710	0	0	0	21251	19840	164023	27433	1054589	46257	107797	0	0	8195	578005	0	0
2024-10-13 04:08:47			0	37690	0	0	0	21254	19830	164151	27569	1054544	46267	107798	0	0	8194	578849	0	0
2024-10-13 04:09:47			0	37699	0	0	0	21249	19840	163999	27332	1054580	46256	107796	0	0	8195	578452	0	0
2024-10-13 04:10:47			0	37687	0	0	0	21244	19830	164119	27116	1054571	46267	107794	0	0	8194	578971	0	0
2024-10-13 04:11:47			0	37679	0	0	0	21244	19830	164203	27469	1054491	46256	107794	0	0	8193	579297	0	0
2024-10-13 04:12:47			0	37667	0	0	0	21244	19820	164119	27421	1054553	46255	107794	0	0	8193	579817	0	0
2024-10-13 04:13:47			0	37654	0	0	0	21251	19810	164255	27682	1054535	46254	107797	0	0	8192	580379	0	0
2024-10-13 04:14:47			0	37650	0	0	0	21241	19830	164295	27097	1054544	46278	107793	0	0	8192	580478	0	0
2024-10-13 04:15:47			0	37646	0	0	0	21251	19830	164387	27281	1054491	46267	107797	0	0	8191	580641	0	0
2024-10-13 04:16:47			0	37639	0	0	0	21244	19820	164255	27118	1054464	46265	107794	0	0	8191	580958	0	0
2024-10-13 04:17:47			0	37647	0	0	0	21233	19820	164467	27256	1054544	46265	107790	0	0	8192	580632	0	0
2024-10-13 04:18:47			0	37660	0	0	0	21254	19820	164343	27433	1054446	46255	107798	0	0	8192	580102	0	0
2024-10-13 04:19:47			0	37646	0	0	0	21249	19830	164363	27391	1054562	46267	107796	0	0	8191	580641	0	0
2024-10-13 04:20:47			0	37634	0	0	0	21251	19820	164439	27436	1054544	46265	107797	0	0	8191	581162	0	0
2024-10-13 04:21:47			0	37639	0	0	0	21249	19820	164359	27345	1054517	46276	107796	0	0	8191	580958	0	0
2024-10-13 04:22:47			0	37643	0	0	0	21249	19820	164351	27220	1054517	46254	107796	0	0	8191	580795	0	0
2024-10-13 04:23:47			0	37634	0	0	0	21249	19830	164435	27332	1054571	46278	107796	0	0	8191	581130	0	0
2024-10-13 04:24:47			0	37667	0	0	0	21270	19810	164227	27265	1054508	46265	107804	0	0	8192	579849	0	0
2024-10-13 04:25:47			0	37670	0	0	0	21270	19820	164319	27258	1054544	46276	107804	0	0	8192	579695	0	0
2024-10-13 04:26:47			0	37704	0	0	0	21272	19830	164251	27478	1054562	46278	107805	0	0	8194	578280	0	0
2024-10-13 04:27:47			0	37688	0	0	0	21277	19830	164063	27521	1054571	46267	107807	0	0	8193	578931	0	0
2024-10-13 04:28:47			0	37712	0	0	0	21262	19830	164183	27383	1054588	46267	107801	0	0	8195	577955	0	0
2024-10-13 04:29:47			0	37707	0	0	0	21270	19840	164227	27280	1054589	46279	107804	0	0	8195	578126	0	0
2024-10-13 04:30:47			0	37715	0	0	0	21275	19840	164023	27215	1054580	46256	107806	0	0	8195	577801	0	0
2024-10-13 04:31:47			0	37748	0	0	0	21270	19840	163991	27526	1054580	46246	107804	0	0	8197	576462	0	0
2024-10-13 04:32:47			0	37759	0	0	0	21283	19840	163991	27092	1054633	46278	107809	0	0	8198	576016	0	0
2024-10-13 04:33:47			0	37763	0	0	0	21275	19830	163883	27088	1054571	46267	107806	0	0	8198	575885	0	0
2024-10-13 04:34:47			0	37762	0	0	0	21275	19830	164019	27528	1054624	46278	107806	0	0	8198	575926	0	0
2024-10-13 04:35:47			0	37762	0	0	0	21283	19840	163915	27116	1054606	46256	107809	0	0	8198	575894	0	0
2024-10-13 04:36:47			0	37782	0	0	0	21277	19840	163767	27535	1054606	46267	107807	0	0	8199	575084	0	0
2024-10-13 04:37:47			0	37778	0	0	0	21290	19850	163835	27076	1054624	46280	107812	0	0	8199	575214	0	0
2024-10-13 04:38:47			0	37771	0	0	0	21283	19850	163887	27519	1054678	46291	107809	0	0	8198	575498	0	0
2024-10-13 04:39:47			0	37785	0	0	0	21290	19840	163815	27419	1054695	46268	107812	0	0	8199	574962	0	0
2024-10-13 04:40:47			0	37772	0	0	0	21277	19840	163735	27358	1054669	46279	107807	0	0	8198	575489	0	0
2024-10-13 04:41:47			0	37787	0	0	0	21290	19840	163771	27244	1054606	46290	107812	0	0	8199	574881	0	0
2024-10-13 04:42:47			0	37784	0	0	0	21283	19850	163711	27409	1054678	46291	107809	0	0	8199	574971	0	0
2024-10-13 04:43:47			0	37779	0	0	0	21283	19850	163775	27464	1054651	46269	107809	0	0	8199	575174	0	0
2024-10-13 04:44:47			0	37782	0	0	0	21272	19850	163799	27149	1054651	46258	107805	0	0	8199	575052	0	0
2024-10-13 04:45:47			0	37795	0	0	0	21290	19850	163755	27614	1054686	46280	107812	0	0	8200	574526	0	0
2024-10-13 04:46:47			0	37792	0	0	0	21288	19850	163699	27138	1054624	46269	107811	0	0	8199	574647	0	0
2024-10-13 04:47:47			0	37807	0	0	0	21280	19840	163755	27261	1054659	46267	107808	0	0	8200	574072	0	0
2024-10-13 04:48:47			0	37805	0	0	0	21288	19850	163687	27440	1054686	46269	107811	0	0	8200	574121	0	0
2024-10-13 04:49:47			0	37798	0	0	0	21290	19850	163599	27026	1054713	46280	107812	0	0	8200	574405	0	0
2024-10-13 04:50:47			0	37808	0	0	0	21275	19850	163675	27284	1054766	46269	107806	0	0	8201	574000	0	0
2024-10-13 04:51:47			0	37800	0	0	0	21293	19850	163635	27284	1054651	46291	107813	0	0	8200	574324	0	0
2024-10-13 04:52:47			0	37811	0	0	0	21290	19850	163623	27275	1054704	46258	107812	0	0	8201	573879	0	0
2024-10-13 04:53:47			0	37807	0	0	0	21285	19850	163671	27542	1054757	46269	107810	0	0	8200	574040	0	0
2024-10-13 04:54:47			0	37799	0	0	0	21293	19850	163687	27152	1054713	46269	107813	0	0	8200	574364	0	0
2024-10-13 04:55:47			0	37804	0	0	0	21288	19860	163587	27128	1054704	46281	107811	0	0	8200	574130	0	0
2024-10-13 04:56:47			0	37810	0	0	0	21303	19860	163611	27223	1054695	46280	107817	0	0	8200	573887	0	0
2024-10-13 04:57:47			0	37831	0	0	0	21290	19860	163479	27267	1054722	46280	107812	0	0	8202	573038	0	0
2024-10-13 04:58:47			0	37826	0	0	0	21277	19850	163491	27409	1054713	46258	107807	0	0	8202	573272	0	0
2024-10-13 04:59:47			0	37822	0	0	0	21280	19850	163403	27483	1054740	46280	107808	0	0	8201	573434	0	0
2024-10-13 05:00:47			0	37822	0	0	0	21288	19860	163515	27571	1054749	46280	107811	0	0	8201	573402	0	0
2024-10-13 05:01:47			0	37813	0	0	0	21293	19850	163535	27244	1054660	46269	107813	0	0	8201	573798	0	0
2024-10-13 05:02:47			0	37826	0	0	0	21293	19860	163495	27377	1054678	46281	107813	0	0	8201	573241	0	0
2024-10-13 05:03:47			0	37845	0	0	0	21298	19860	163395	27405	1054722	46269	107815	0	0	8202	572473	0	0
2024-10-13 05:04:47			0	37836	0	0	0	21293	19850	163491	27440	1054713	46269	107813	0	0	8202	572868	0	0
2024-10-13 05:05:47			0	37852	0	0	0	21293	19860	163467	27441	1054722	46269	107813	0	0	8203	572190	0	0
2024-10-13 05:06:47			0	37866	0	0	0	21288	19870	163387	27312	1054766	46271	107811	0	0	8204	571594	0	0
2024-10-13 05:07:47			0	37896	0	0	0	21296	19860	163271	27261	1054731	46270	107814	0	0	8205	570416	0	0
2024-10-13 05:08:47			0	37886	0	0	0	21298	19870	163223	27313	1054766	46271	107815	0	0	8205	570788	0	0
2024-10-13 05:09:47			0	37889	0	0	0	21290	19870	163207	27180	1054793	46271	107812	0	0	8205	570667	0	0
2024-10-13 05:10:47			0	37906	0	0	0	21293	19870	163263	27156	1054722	46272	107813	0	0	8206	569982	0	0
2024-10-13 05:11:47			0	37905	0	0	0	21293	19860	163299	27661	1054757	46270	107813	0	0	8206	570054	0	0
2024-10-13 05:12:47			0	37922	0	0	0	21301	19850	163159	27471	1054740	46269	107816	0	0	8207	569401	0	0
2024-10-13 05:13:47			0	37922	0	0	0	21296	19860	163191	27462	1054704	46270	107814	0	0	8207	569369	0	0
2024-10-13 05:14:47			0	37935	0	0	0	21288	19870	163147	27599	1054740	46271	107811	0	0	8208	568815	0	0
2024-10-13 05:15:47			0	37922	0	0	0	21280	19870	163215	27312	1054713	46271	107808	0	0	8207	569338	0	0
2024-10-13 05:16:47			0	37906	0	0	0	21283	19870	163191	27208	1054766	46271	107809	0	0	8206	569982	0	0
2024-10-13 05:17:47			0	37907	0	0	0	21290	19860	163123	27566	1054731	46259	107812	0	0	8206	569973	0	0
2024-10-13 05:18:47			0	37928	0	0	0	21296	19860	163151	27402	1054757	46270	107814	0	0	8207	569128	0	0
2024-10-13 05:19:47			0	37944	0	0	0	21296	19870	163055	27234	1054766	46271	107814	0	0	8208	568453	0	0
2024-10-13 05:20:47			0	37951	0	0	0	21296	19870	163127	27164	1054775	46272	107814	0	0	8209	568172	0	0
2024-10-13 05:21:47			0	37969	0	0	0	21296	19860	162967	27303	1054704	46270	107814	0	0	8210	567480	0	0
2024-10-13 05:22:47			0	37993	0	0	0	21301	19860	162867	27524	1054695	46258	107816	0	0	8211	566517	0	0
2024-10-13 05:23:47			0	37983	0	0	0	21298	19860	162835	27576	1054757	46281	107815	0	0	8211	566918	0	0
2024-10-13 05:24:47			0	38002	0	0	0	21298	19870	162823	27576	1054713	46260	107815	0	0	8212	566125	0	0
2024-10-13 05:25:47			0	37997	0	0	0	21288	19860	162711	27159	1054749	46269	107811	0	0	8212	566356	0	0
2024-10-13 05:26:47			0	37999	0	0	0	21296	19870	162843	27261	1054749	46272	107814	0	0	8212	566245	0	0
2024-10-13 05:27:47			0	38007	0	0	0	21293	19870	162751	27267	1054775	46272	107813	0	0	8212	565924	0	0
2024-10-13 05:28:47			0	38000	0	0	0	21293	19870	162931	27274	1054828	46283	107813	0	0	8212	566205	0	0
2024-10-13 05:29:47			0	38011	0	0	0	21290	19870	162783	27265	1054775	46272	107812	0	0	8212	565764	0	0
2024-10-13 05:30:47			0	38007	0	0	0	21285	19860	162879	27086	1054757	46270	107810	0	0	8212	565955	0	0
2024-10-13 05:31:47			0	38001	0	0	0	21298	19870	162759	27268	1054766	46271	107815	0	0	8212	566165	0	0
2024-10-13 05:32:47			0	38001	0	0	0	21296	19870	162775	27242	1054749	46283	107814	0	0	8212	566165	0	0
2024-10-13 05:33:47			0	38035	0	0	0	21290	19860	162708	27528	1054757	46270	107812	0	0	8214	564834	0	0
2024-10-13 05:34:47			0	38048	0	0	0	21288	19860	162684	27102	1054757	46270	107811	0	0	8215	564313	0	0
2024-10-13 05:35:47			0	38053	0	0	0	21296	19870	162632	27048	1054749	46261	107814	0	0	8215	564082	0	0
2024-10-13 05:36:47			0	38033	0	0	0	21293	19870	162608	27339	1054793	46271	107813	0	0	8214	564883	0	0
2024-10-13 05:37:47			0	38051	0	0	0	21293	19860	162592	27175	1054784	46270	107813	0	0	8215	564193	0	0
2024-10-13 05:38:47			0	38055	0	0	0	21290	19860	162584	27350	1054757	46270	107812	0	0	8215	564033	0	0
2024-10-13 05:39:47			0	38100	0	0	0	21303	19870	162504	27086	1054846	46260	107817	0	0	8217	562204	0	0
2024-10-13 05:40:47			0	38097	0	0	0	21290	19860	162452	27128	1054757	46270	107812	0	0	8217	562355	0	0
2024-10-13 05:41:47			0	38091	0	0	0	21293	19870	162476	27291	1054802	46283	107813	0	0	8217	562563	0	0
2024-10-13 05:42:47			0	38064	0	0	0	21293	19870	162508	27360	1054775	46272	107813	0	0	8215	563642	0	0
2024-10-13 05:43:47			0	38065	0	0	0	21293	19860	162524	27322	1054757	46270	107813	0	0	8216	563633	0	0
2024-10-13 05:44:47			0	38060	0	0	0	21290	19870	162572	27078	1054740	46282	107812	0	0	8215	563802	0	0
2024-10-13 05:45:47			0	38065	0	0	0	21288	19860	162496	27154	1054731	46270	107811	0	0	8216	563633	0	0
2024-10-13 05:46:47			0	38070	0	0	0	21283	19870	162532	27137	1054802	46272	107809	0	0	8216	563402	0	0
2024-10-13 05:47:47			0	38048	0	0	0	21290	19870	162472	27315	1054775	46261	107812	0	0	8215	564282	0	0
2024-10-13 05:48:47			0	38069	0	0	0	21285	19860	162552	27072	1054722	46269	107810	0	0	8216	563473	0	0
2024-10-13 05:49:47			0	38062	0	0	0	21296	19870	162476	27102	1054740	46271	107814	0	0	8215	563722	0	0
2024-10-13 05:50:47			0	38078	0	0	0	21290	19870	162480	27357	1054713	46282	107812	0	0	8216	563083	0	0
2024-10-13 05:51:47			0	38076	0	0	0	21285	19870	162352	27362	1054766	46271	107810	0	0	8216	563163	0	0
2024-10-13 05:52:47			0	38084	0	0	0	21283	19860	162464	27258	1054775	46269	107809	0	0	8217	562874	0	0
2024-10-13 05:53:47			0	38089	0	0	0	21277	19860	162440	27319	1054757	46270	107807	0	0	8217	562674	0	0
2024-10-13 05:54:47			0	38087	0	0	0	21283	19860	162428	27116	1054704	46270	107809	0	0	8217	562754	0	0
2024-10-13 05:55:47			0	38088	0	0	0	21290	19860	162376	27267	1054695	46258	107812	0	0	8217	562714	0	0
2024-10-13 05:56:47			0	38084	0	0	0	21283	19860	162532	27235	1054704	46270	107809	0	0	8217	562874	0	0
2024-10-13 05:57:47			0	38097	0	0	0	21280	19860	162360	26975	1054722	46269	107808	0	0	8218	562355	0	0
2024-10-13 05:58:47			0	38084	0	0	0	21283	19860	162516	27301	1054625	46292	107809	0	0	8217	562874	0	0
2024-10-13 05:59:47			0	38081	0	0	0	21285	19860	162452	26989	1054704	46281	107810	0	0	8217	562994	0	0
2024-10-13 06:00:47			0	38063	0	0	0	21264	19860	162552	27168	1054695	46269	107802	0	0	8216	563713	0	0
2024-10-13 06:01:47			0	38068	0	0	0	21275	19870	162496	27185	1054766	46271	107806	0	0	8216	563482	0	0
2024-10-13 06:02:47			0	38069	0	0	0	21275	19850	162488	27282	1054713	46269	107806	0	0	8216	563504	0	0
2024-10-13 06:03:47			0	38078	0	0	0	21280	19860	162404	27275	1054695	46280	107808	0	0	8216	563114	0	0
2024-10-13 06:04:47			0	38063	0	0	0	21275	19860	162568	27149	1054669	46280	107806	0	0	8216	563713	0	0
2024-10-13 06:05:47			0	38067	0	0	0	21280	19860	162516	27007	1054757	46270	107808	0	0	8216	563553	0	0
2024-10-13 06:06:47			0	38067	0	0	0	21275	19850	162568	27417	1054713	46269	107806	0	0	8216	563584	0	0
2024-10-13 06:07:47			0	38063	0	0	0	21277	19860	162648	27208	1054757	46270	107807	0	0	8216	563713	0	0
2024-10-13 06:08:47			0	38069	0	0	0	21280	19860	162568	27232	1054695	46269	107808	0	0	8216	563473	0	0
2024-10-13 06:09:47			0	38068	0	0	0	21275	19860	162472	27161	1054722	46258	107806	0	0	8216	563513	0	0
2024-10-13 06:10:47			0	38057	0	0	0	21262	19860	162520	27379	1054695	46280	107801	0	0	8216	563953	0	0
2024-10-13 06:11:47			0	38063	0	0	0	21275	19850	162492	27386	1054686	46269	107806	0	0	8216	563744	0	0
2024-10-13 06:12:47			0	38052	0	0	0	21285	19860	162556	27533	1054678	46270	107810	0	0	8215	564153	0	0
2024-10-13 06:13:47			0	38056	0	0	0	21277	19850	162456	27015	1054678	46269	107807	0	0	8215	564024	0	0
2024-10-13 06:14:47			0	38073	0	0	0	21275	19850	162516	26982	1054660	46269	107806	0	0	8216	563345	0	0
2024-10-13 06:15:47			0	38079	0	0	0	21280	19850	162608	27177	1054713	46269	107808	0	0	8217	563105	0	0
2024-10-13 06:16:47			0	38076	0	0	0	21280	19850	162548	27142	1054678	46269	107808	0	0	8216	563225	0	0
2024-10-13 06:17:47			0	38065	0	0	0	21277	19850	162584	27239	1054713	46269	107807	0	0	8216	563664	0	0
2024-10-13 06:18:47			0	38047	0	0	0	21277	19860	162580	27135	1054722	46269	107807	0	0	8215	564353	0	0
2024-10-13 06:19:47			0	38061	0	0	0	21288	19850	162616	27095	1054686	46280	107811	0	0	8215	563824	0	0
2024-10-13 06:20:47			0	38044	0	0	0	21280	19860	162744	27338	1054669	46269	107808	0	0	8214	564473	0	0
2024-10-13 06:21:47			0	38036	0	0	0	21267	19840	162764	27298	1054669	46279	107803	0	0	8214	564856	0	0
2024-10-13 06:22:47			0	38044	0	0	0	21262	19850	162684	27216	1054660	46280	107801	0	0	8215	564505	0	0
2024-10-13 06:23:47			0	38052	0	0	0	21267	19840	162692	27329	1054695	46279	107803	0	0	8215	564216	0	0
2024-10-13 06:24:47			0	38051	0	0	0	21267	19850	162660	27072	1054678	46280	107803	0	0	8215	564224	0	0
2024-10-13 06:25:47			0	38044	0	0	0	21270	19850	162728	27097	1054598	46258	107804	0	0	8215	564505	0	0
2024-10-13 06:26:47			0	38045	0	0	0	21275	19860	162696	27140	1054722	46280	107806	0	0	8215	564433	0	0
2024-10-13 06:27:47			0	38050	0	0	0	21277	19850	162688	27315	1054678	46280	107807	0	0	8215	564264	0	0
2024-10-13 06:28:47			0	38032	0	0	0	21280	19840	162739	27097	1054642	46257	107808	0	0	8214	565016	0	0
2024-10-13 06:29:47			0	38040	0	0	0	21280	19850	162804	26942	1054678	46258	107808	0	0	8214	564665	0	0
2024-10-13 06:30:47			0	38068	0	0	0	21272	19850	162644	27154	1054598	46269	107805	0	0	8216	563544	0	0
2024-10-13 06:31:47			0	38049	0	0	0	21270	19840	162620	27225	1054695	46268	107804	0	0	8215	564336	0	0
2024-10-13 06:32:47			0	38037	0	0	0	21264	19840	162588	27365	1054669	46268	107802	0	0	8214	564816	0	0
2024-10-13 06:33:47			0	38049	0	0	0	21272	19840	162716	27275	1054669	46279	107805	0	0	8215	564336	0	0
2024-10-13 06:34:47			0	38027	0	0	0	21257	19850	162707	26961	1054678	46258	107799	0	0	8214	565185	0	0
2024-10-13 06:35:47			0	38037	0	0	0	21270	19850	162728	27327	1054660	46258	107804	0	0	8214	564785	0	0
2024-10-13 06:36:47			0	38037	0	0	0	21262	19840	162656	27173	1054615	46268	107801	0	0	8214	564816	0	0
2024-10-13 06:37:47			0	38040	0	0	0	21262	19840	162624	27440	1054669	46268	107801	0	0	8214	564696	0	0
2024-10-13 06:38:47			0	38035	0	0	0	21254	19850	162720	27279	1054678	46269	107798	0	0	8214	564865	0	0
2024-10-13 06:39:47			0	38041	0	0	0	21259	19840	162692	26946	1054589	46268	107800	0	0	8215	564656	0	0
2024-10-13 06:40:47			0	38036	0	0	0	21257	19840	162676	27008	1054633	46267	107799	0	0	8214	564856	0	0
2024-10-13 06:41:47			0	38045	0	0	0	21264	19850	162692	27287	1054678	46269	107802	0	0	8215	564465	0	0
2024-10-13 06:42:47			0	38051	0	0	0	21270	19840	162612	27001	1054686	46267	107804	0	0	8215	564256	0	0
2024-10-13 06:43:47			0	38039	0	0	0	21254	19840	162680	27020	1054589	46257	107798	0	0	8215	564736	0	0
2024-10-13 06:44:47			0	38047	0	0	0	21249	19840	162620	26965	1054669	46257	107796	0	0	8215	564415	0	0
2024-10-13 06:45:47			0	38044	0	0	0	21257	19840	162564	26882	1054580	46267	107799	0	0	8215	564536	0	0
2024-10-13 06:46:47			0	38041	0	0	0	21257	19830	162504	27242	1054571	46267	107799	0	0	8215	564687	0	0
2024-10-13 06:47:47			0	38051	0	0	0	21264	19840	162632	27253	1054642	46247	107802	0	0	8215	564256	0	0
2024-10-13 06:48:47			0	38053	0	0	0	21267	19840	162668	27445	1054580	46267	107803	0	0	8215	564175	0	0
2024-10-13 06:49:47			0	38057	0	0	0	21259	19830	162660	27530	1054624	46256	107800	0	0	8215	564047	0	0
2024-10-13 06:50:47			0	38048	0	0	0	21244	19830	162628	27197	1054624	46267	107794	0	0	8215	564407	0	0
2024-10-13 06:51:47			0	38051	0	0	0	21254	19850	162664	27072	1054624	46269	107798	0	0	8215	564224	0	0
2024-10-13 06:52:47			0	38034	0	0	0	21251	19820	162652	27277	1054597	46265	107797	0	0	8214	564998	0	0
2024-10-13 06:53:47			0	38068	0	0	0	21251	19830	162644	27400	1054641	46267	107797	0	0	8216	563607	0	0
2024-10-13 06:54:47			0	38055	0	0	0	21249	19830	162648	27625	1054615	46267	107796	0	0	8216	564126	0	0
2024-10-13 06:55:47			0	38042	0	0	0	21238	19830	162588	27339	1054571	46278	107792	0	0	8215	564647	0	0
2024-10-13 06:56:47			0	38052	0	0	0	21246	19840	162580	27130	1054526	46278	107795	0	0	8215	564216	0	0
2024-10-13 06:57:47			0	38057	0	0	0	21254	19830	162616	27277	1054571	46267	107798	0	0	8216	564047	0	0
2024-10-13 06:58:47			0	38062	0	0	0	21244	19840	162592	27150	1054580	46256	107794	0	0	8216	563815	0	0
2024-10-13 06:59:47			0	38054	0	0	0	21246	19820	162676	27055	1054544	46244	107795	0	0	8215	564198	0	0
2024-10-13 07:00:47			0	38053	0	0	0	21241	19820	162672	27384	1054544	46265	107793	0	0	8215	564238	0	0
2024-10-13 07:01:47			0	38042	0	0	0	21246	19830	162624	27157	1054588	46290	107795	0	0	8215	564647	0	0
2024-10-13 07:02:47			0	38063	0	0	0	21244	19820	162592	27313	1054491	46265	107794	0	0	8216	563838	0	0
2024-10-13 07:03:47			0	38071	0	0	0	21246	19820	162536	26996	1054517	46254	107795	0	0	8216	563518	0	0
2024-10-13 07:04:47			0	38076	0	0	0	21244	19820	162548	27166	1054606	46277	107794	0	0	8217	563318	0	0
2024-10-13 07:05:47			0	38064	0	0	0	21244	19810	162516	27396	1054588	46254	107794	0	0	8216	563829	0	0
2024-10-13 07:06:47			0	38089	0	0	0	21246	19810	162516	27435	1054561	46254	107795	0	0	8217	562829	0	0
2024-10-13 07:07:47			0	38075	0	0	0	21254	19820	162536	27334	1054579	46277	107798	0	0	8217	563358	0	0
2024-10-13 07:08:47			0	38098	0	0	0	21241	19820	162520	27275	1054553	46277	107793	0	0	8218	562439	0	0
2024-10-13 07:09:47			0	38069	0	0	0	21236	19810	162428	27341	1054526	46265	107791	0	0	8216	563629	0	0
2024-10-13 07:10:47			0	38080	0	0	0	21238	19830	162544	27402	1054535	46256	107792	0	0	8217	563127	0	0
2024-10-13 07:11:47			0	38083	0	0	0	21244	19820	162428	27121	1054570	46244	107794	0	0	8217	563038	0	0
2024-10-13 07:12:47			0	38098	0	0	0	21238	19820	162376	27327	1054553	46255	107792	0	0	8218	562439	0	0
2024-10-13 07:13:47			0	38105	0	0	0	21238	19810	162440	27268	1054526	46265	107792	0	0	8219	562190	0	0
2024-10-13 07:14:47			0	38105	0	0	0	21246	19820	162360	27206	1054544	46265	107795	0	0	8218	562159	0	0
2024-10-13 07:15:47			0	38094	0	0	0	21246	19810	162264	27150	1054588	46276	107795	0	0	8218	562629	0	0
2024-10-13 07:16:47			0	38091	0	0	0	21244	19820	162364	27109	1054553	46277	107794	0	0	8218	562718	0	0
2024-10-13 07:17:47			0	38084	0	0	0	21249	19810	162232	27170	1054561	46265	107796	0	0	8217	563029	0	0
2024-10-13 07:18:47			0	38084	0	0	0	21244	19810	162332	27196	1054455	46276	107794	0	0	8217	563029	0	0
2024-10-13 07:19:47			0	38099	0	0	0	21241	19820	162420	27284	1054517	46265	107793	0	0	8218	562399	0	0
2024-10-13 07:20:47			0	38091	0	0	0	21236	19810	162388	27306	1054561	46265	107791	0	0	8218	562749	0	0
2024-10-13 07:21:47			0	38075	0	0	0	21244	19810	162448	27403	1054535	46265	107794	0	0	8217	563389	0	0
2024-10-13 07:22:47			0	38083	0	0	0	21249	19820	162304	27270	1054570	46265	107796	0	0	8217	563038	0	0
2024-10-13 07:23:47			0	38091	0	0	0	21238	19810	162388	26923	1054535	46276	107792	0	0	8218	562749	0	0
2024-10-13 07:24:47			0	38091	0	0	0	21238	19810	162312	27281	1054561	46265	107792	0	0	8218	562749	0	0
2024-10-13 07:25:47			0	38077	0	0	0	21236	19820	162424	27062	1054570	46265	107791	0	0	8217	563278	0	0
2024-10-13 07:26:47			0	38087	0	0	0	21233	19810	162456	27045	1054473	46254	107790	0	0	8218	562909	0	0
2024-10-13 07:27:47			0	38092	0	0	0	21228	19810	162356	26996	1054499	46265	107788	0	0	8218	562709	0	0
2024-10-13 07:28:47			0	38077	0	0	0	21233	19800	162428	27055	1054517	46264	107790	0	0	8217	563340	0	0
2024-10-13 07:29:47			0	38090	0	0	0	21238	19810	162456	27194	1054579	46265	107792	0	0	8218	562789	0	0
2024-10-13 07:30:47			0	38076	0	0	0	21241	19810	162520	27059	1054455	46254	107793	0	0	8217	563349	0	0
2024-10-13 07:31:47			0	38071	0	0	0	21228	19810	162476	26873	1054508	46254	107788	0	0	8217	563549	0	0
2024-10-13 07:32:47			0	38069	0	0	0	21215	19810	162504	27312	1054535	46265	107783	0	0	8217	563629	0	0
2024-10-13 07:33:47			0	38072	0	0	0	21223	19810	162428	27293	1054455	46254	107786	0	0	8217	563509	0	0
2024-10-13 07:34:47			0	38073	0	0	0	21215	19810	162456	27294	1054455	46244	107783	0	0	8217	563469	0	0
2024-10-13 07:35:47			0	38073	0	0	0	21215	19810	162556	26830	1054446	46254	107783	0	0	8217	563469	0	0
2024-10-13 07:36:47			0	38086	0	0	0	21236	19810	162520	27190	1054446	46244	107791	0	0	8217	562949	0	0
2024-10-13 07:37:47			0	38094	0	0	0	21238	19800	162468	27194	1054508	46263	107792	0	0	8218	562660	0	0
2024-10-13 07:38:47			0	38067	0	0	0	21244	19800	162464	27074	1054411	46264	107794	0	0	8216	563740	0	0
2024-10-13 07:39:47			0	38087	0	0	0	21228	19810	162420	27081	1054526	46254	107788	0	0	8218	562909	0	0
2024-10-13 07:40:47			0	38079	0	0	0	21236	19790	162368	27135	1054499	46251	107791	0	0	8217	563291	0	0
2024-10-13 07:41:47			0	38080	0	0	0	21225	19810	162352	26866	1054499	46265	107787	0	0	8217	563189	0	0
2024-10-13 07:42:47			0	38085	0	0	0	21220	19810	162396	27046	1054473	46265	107785	0	0	8218	562989	0	0
2024-10-13 07:43:47			0	38091	0	0	0	21205	19800	162432	27357	1054411	46264	107779	0	0	8218	562780	0	0
2024-10-13 07:44:47			0	38083	0	0	0	21202	19800	162460	26941	1054375	46263	107778	0	0	8218	563100	0	0
2024-10-13 07:45:47			0	38089	0	0	0	21223	19800	162448	27265	1054402	46274	107786	0	0	8218	562860	0	0
2024-10-13 07:46:47			0	38098	0	0	0	21225	19790	162380	26927	1054499	46262	107787	0	0	8218	562532	0	0
2024-10-13 07:47:47			0	38091	0	0	0	21225	19790	162432	27190	1054419	46262	107787	0	0	8218	562811	0	0
2024-10-13 07:48:47			0	38071	0	0	0	21236	19800	162352	27005	1054482	46252	107791	0	0	8217	563580	0	0
2024-10-13 07:49:47			0	38088	0	0	0	21236	19800	162384	27303	1054570	46253	107791	0	0	8218	562900	0	0
2024-10-13 07:50:47			0	38084	0	0	0	21231	19800	162364	27046	1054508	46263	107789	0	0	8217	563060	0	0
2024-10-13 07:51:47			0	38096	0	0	0	21236	19790	162380	27109	1054499	46273	107791	0	0	8218	562612	0	0
2024-10-13 07:52:47			0	38103	0	0	0	21238	19810	162392	27310	1054446	46265	107792	0	0	8218	562270	0	0
2024-10-13 07:53:47			0	38096	0	0	0	21236	19800	162408	27301	1054437	46253	107791	0	0	8218	562581	0	0
2024-10-13 07:54:47			0	38100	0	0	0	21236	19800	162384	27216	1054517	46275	107791	0	0	8218	562421	0	0
2024-10-13 07:55:47			0	38088	0	0	0	21241	19800	162428	27078	1054482	46263	107793	0	0	8217	562900	0	0
2024-10-13 07:56:47			0	38100	0	0	0	21236	19800	162304	26972	1054464	46264	107791	0	0	8218	562421	0	0
2024-10-13 07:57:47			0	38077	0	0	0	21231	19790	162276	27237	1054499	46251	107789	0	0	8217	563371	0	0
2024-10-13 07:58:47			0	38089	0	0	0	21228	19790	162368	27249	1054419	46273	107788	0	0	8218	562891	0	0
2024-10-13 07:59:47			0	38099	0	0	0	21236	19800	162260	27315	1054411	46275	107791	0	0	8218	562461	0	0
2024-10-13 08:00:47			0	38102	0	0	0	21241	19800	162324	27298	1054437	46253	107793	0	0	8218	562341	0	0
2024-10-13 08:01:47			0	38103	0	0	0	21241	19800	162344	27078	1054517	46253	107793	0	0	8218	562301	0	0
2024-10-13 08:02:47			0	38112	0	0	0	21236	19800	162312	27267	1054517	46253	107791	0	0	8219	561942	0	0
2024-10-13 08:03:47			0	38111	0	0	0	21244	19810	162244	27246	1054499	46254	107794	0	0	8219	561951	0	0
2024-10-13 08:04:47			0	38103	0	0	0	21233	19800	162424	27090	1054437	46253	107790	0	0	8218	562301	0	0
2024-10-13 08:05:47			0	38108	0	0	0	21233	19810	162364	27074	1054508	46265	107790	0	0	8219	562070	0	0
2024-10-13 08:06:47			0	38083	0	0	0	21236	19800	162300	27294	1054411	46253	107791	0	0	8217	563100	0	0
2024-10-13 08:07:47			0	38086	0	0	0	21225	19800	162384	27066	1054517	46264	107787	0	0	8218	562980	0	0
2024-10-13 08:08:47			0	38093	0	0	0	21218	19810	162476	27209	1054499	46254	107784	0	0	8218	562669	0	0
2024-10-13 08:09:47			0	38093	0	0	0	21220	19800	162476	26845	1054517	46264	107785	0	0	8218	562700	0	0
2024-10-13 08:10:47			0	38092	0	0	0	21223	19800	162440	27251	1054411	46275	107786	0	0	8218	562740	0	0
2024-10-13 08:11:47			0	38087	0	0	0	21225	19810	162372	27263	1054526	46265	107787	0	0	8218	562909	0	0
2024-10-13 08:12:47			0	38079	0	0	0	21220	19800	162308	27223	1054482	46252	107785	0	0	8217	563260	0	0
2024-10-13 08:13:47			0	38083	0	0	0	21225	19800	162476	26994	1054517	46264	107787	0	0	8217	563100	0	0
2024-10-13 08:14:47			0	38080	0	0	0	21223	19800	162396	26922	1054508	46252	107786	0	0	8217	563220	0	0
2024-10-13 08:15:47			0	38043	0	0	0	21225	19800	162532	27251	1054490	46275	107787	0	0	8215	564700	0	0
2024-10-13 08:16:47			0	38028	0	0	0	21223	19800	162759	27150	1054508	46252	107786	0	0	8214	565301	0	0
2024-10-13 08:17:47			0	38053	0	0	0	21231	19800	162592	27388	1054455	46263	107789	0	0	8216	564300	0	0
2024-10-13 08:18:47			0	38050	0	0	0	21223	19800	162536	27251	1054490	46264	107786	0	0	8216	564420	0	0
2024-10-13 08:19:47			0	38067	0	0	0	21223	19800	162500	27102	1054508	46252	107786	0	0	8217	563740	0	0
2024-10-13 08:20:47			0	38062	0	0	0	21220	19800	162424	27109	1054455	46274	107785	0	0	8216	563940	0	0
2024-10-13 08:21:47			0	38075	0	0	0	21215	19800	162396	27365	1054517	46275	107783	0	0	8217	563420	0	0
2024-10-13 08:22:47			0	38081	0	0	0	21228	19800	162324	27043	1054517	46264	107788	0	0	8217	563180	0	0
2024-10-13 08:23:47			0	38058	0	0	0	21223	19800	162464	27086	1054508	46252	107786	0	0	8216	564100	0	0
2024-10-13 08:24:47			0	38071	0	0	0	21228	19800	162448	27145	1054508	46263	107788	0	0	8217	563580	0	0
2024-10-13 08:25:47			0	38079	0	0	0	21212	19800	162516	27116	1054508	46263	107782	0	0	8217	563260	0	0
2024-10-13 08:26:47			0	38089	0	0	0	21225	19800	162460	26972	1054490	46264	107787	0	0	8218	562860	0	0
2024-10-13 08:27:47			0	38045	0	0	0	21238	19810	162528	27060	1054553	46265	107792	0	0	8215	564589	0	0
2024-10-13 08:28:47			0	38070	0	0	0	21228	19800	162412	27208	1054455	46252	107788	0	0	8217	563620	0	0
2024-10-13 08:29:47			0	38053	0	0	0	21233	19790	162456	27076	1054411	46273	107790	0	0	8215	564331	0	0
2024-10-13 08:30:47			0	38083	0	0	0	21223	19800	162532	27150	1054490	46264	107786	0	0	8217	563100	0	0
2024-10-13 08:31:47			0	38068	0	0	0	21231	19800	162356	26946	1054428	46252	107789	0	0	8216	563700	0	0
2024-10-13 08:32:47			0	38074	0	0	0	21236	19790	162440	27241	1054499	46251	107791	0	0	8217	563491	0	0
2024-10-13 08:33:47			0	38062	0	0	0	21231	19800	162448	27405	1054535	46242	107789	0	0	8216	563940	0	0
2024-10-13 08:34:47			0	38070	0	0	0	21231	19790	162316	27138	1054419	46251	107789	0	0	8217	563651	0	0
2024-10-13 08:35:47			0	38073	0	0	0	21220	19790	162380	27248	1054517	46251	107785	0	0	8217	563531	0	0
2024-10-13 08:36:47			0	38081	0	0	0	21223	19800	162468	27092	1054482	46274	107786	0	0	8217	563180	0	0
2024-10-13 08:37:47			0	38080	0	0	0	21225	19790	162396	27282	1054473	46273	107787	0	0	8217	563251	0	0
2024-10-13 08:38:47			0	38069	0	0	0	21233	19790	162472	27410	1054552	46262	107790	0	0	8216	563691	0	0
2024-10-13 08:39:47			0	38083	0	0	0	21231	19790	162356	27109	1054473	46262	107789	0	0	8217	563131	0	0
2024-10-13 08:40:47			0	38073	0	0	0	21223	19800	162320	27248	1054482	46263	107786	0	0	8217	563500	0	0
2024-10-13 08:41:47			0	38100	0	0	0	21228	19800	162440	27294	1054535	46285	107788	0	0	8218	562421	0	0
2024-10-13 08:42:47			0	38106	0	0	0	21220	19810	162392	27015	1054499	46265	107785	0	0	8219	562150	0	0
2024-10-13 08:43:47			0	38082	0	0	0	21210	19800	162388	27005	1054428	46274	107781	0	0	8218	563140	0	0
2024-10-13 08:44:47			0	38083	0	0	0	21220	19800	162396	27008	1054437	46264	107785	0	0	8218	563100	0	0
2024-10-13 08:45:47			0	38076	0	0	0	21223	19800	162412	27170	1054517	46253	107786	0	0	8217	563380	0	0
2024-10-13 08:46:47			0	38082	0	0	0	21231	19800	162472	27412	1054490	46253	107789	0	0	8217	563140	0	0
2024-10-13 08:47:47			0	38082	0	0	0	21218	19800	162428	27398	1054508	46263	107784	0	0	8218	563140	0	0
2024-10-13 08:48:47			0	38074	0	0	0	21210	19800	162428	27485	1054428	46263	107781	0	0	8217	563460	0	0
2024-10-13 08:49:47			0	38074	0	0	0	21210	19790	162376	26920	1054499	46262	107781	0	0	8217	563491	0	0
2024-10-13 08:50:47			0	38084	0	0	0	21205	19790	162444	27029	1054393	46262	107779	0	0	8218	563091	0	0
2024-10-13 08:51:47			0	38087	0	0	0	21212	19790	162424	27417	1054464	46273	107782	0	0	8218	562971	0	0
2024-10-13 08:52:47			0	38085	0	0	0	21212	19790	162344	27081	1054357	46262	107782	0	0	8218	563051	0	0
2024-10-13 08:53:47			0	38084	0	0	0	21212	19780	162388	27281	1054455	46251	107782	0	0	8218	563122	0	0
2024-10-13 08:54:47			0	38078	0	0	0	21223	19790	162432	27594	1054464	46262	107786	0	0	8217	563331	0	0
2024-10-13 08:55:47			0	38097	0	0	0	21210	19790	162388	27329	1054473	46284	107781	0	0	8218	562572	0	0
2024-10-13 08:56:47			0	38074	0	0	0	21220	19780	162396	27253	1054455	46241	107785	0	0	8217	563522	0	0
2024-10-13 08:57:47			0	38092	0	0	0	21220	19790	162432	27131	1054464	46262	107785	0	0	8218	562771	0	0
2024-10-13 08:58:47			0	38079	0	0	0	21212	19790	162376	27208	1054464	46262	107782	0	0	8217	563291	0	0
2024-10-13 08:59:47			0	38093	0	0	0	21225	19800	162512	27149	1054437	46264	107787	0	0	8218	562700	0	0
2024-10-13 09:00:47			0	38108	0	0	0	21210	19790	162328	27289	1054384	46262	107781	0	0	8219	562132	0	0
2024-10-13 09:01:47			0	38102	0	0	0	21220	19790	162344	27116	1054526	46262	107785	0	0	8219	562372	0	0
2024-10-13 09:02:47			0	38099	0	0	0	21220	19790	162432	27263	1054393	46273	107785	0	0	8218	562492	0	0
2024-10-13 09:03:47			0	38110	0	0	0	21220	19780	162308	27173	1054481	46262	107785	0	0	8219	562083	0	0
2024-10-13 09:04:47			0	38110	0	0	0	21220	19790	162360	27293	1054499	46262	107785	0	0	8219	562053	0	0
2024-10-13 09:05:47			0	38110	0	0	0	21218	19790	162320	27284	1054384	46273	107784	0	0	8219	562053	0	0
2024-10-13 09:06:47			0	38113	0	0	0	21225	19790	162292	27274	1054464	46262	107787	0	0	8219	561933	0	0
2024-10-13 09:07:47			0	38086	0	0	0	21218	19800	162276	27159	1054517	46264	107784	0	0	8218	562980	0	0
2024-10-13 09:08:47			0	38118	0	0	0	21228	19800	162276	27402	1054508	46252	107788	0	0	8219	561702	0	0
2024-10-13 09:09:47			0	38087	0	0	0	21220	19790	162392	27131	1054490	46273	107785	0	0	8218	562971	0	0
2024-10-13 09:10:47			0	38096	0	0	0	21223	19800	162328	27256	1054508	46252	107786	0	0	8218	562581	0	0
2024-10-13 09:11:47			0	38117	0	0	0	21228	19800	162268	27422	1054482	46274	107788	0	0	8219	561742	0	0
2024-10-13 09:12:47			0	38121	0	0	0	21223	19800	162336	27504	1054508	46252	107786	0	0	8220	561583	0	0
2024-10-13 09:13:47			0	38115	0	0	0	21225	19790	162260	27362	1054473	46262	107787	0	0	8219	561853	0	0
2024-10-13 09:14:47			0	38125	0	0	0	21215	19790	162176	27409	1054517	46262	107783	0	0	8220	561454	0	0
2024-10-13 09:15:47			0	38142	0	0	0	21212	19800	162132	27242	1054428	46252	107782	0	0	8221	560745	0	0
2024-10-13 09:16:47			0	38150	0	0	0	21220	19800	162088	27202	1054508	46242	107785	0	0	8221	560426	0	0
2024-10-13 09:17:47			0	38156	0	0	0	21223	19790	162048	27211	1054499	46251	107786	0	0	8222	560218	0	0
2024-10-13 09:18:47			0	38158	0	0	0	21215	19790	162144	27048	1054393	46262	107783	0	0	8222	560139	0	0
2024-10-13 09:19:47			0	38158	0	0	0	21231	19800	162052	27332	1054508	46263	107789	0	0	8222	560108	0	0
2024-10-13 09:20:47			0	38172	0	0	0	21225	19800	162176	27036	1054544	46264	107787	0	0	8223	559550	0	0
2024-10-13 09:21:47			0	38170	0	0	0	21212	19790	162068	27161	1054526	46251	107782	0	0	8223	559661	0	0
2024-10-13 09:22:47			0	38172	0	0	0	21218	19800	162108	27228	1054482	46252	107784	0	0	8223	559550	0	0
2024-10-13 09:23:47			0	38186	0	0	0	21212	19800	161976	27592	1054535	46242	107782	0	0	8224	558993	0	0
2024-10-13 09:24:47			0	38196	0	0	0	21218	19800	161908	27202	1054482	46263	107784	0	0	8224	558595	0	0
2024-10-13 09:25:47			0	38186	0	0	0	21225	19800	162048	27575	1054482	46263	107787	0	0	8224	558993	0	0
2024-10-13 09:26:47			0	38194	0	0	0	21238	19780	161960	27476	1054481	46273	107792	0	0	8224	558736	0	0
2024-10-13 09:27:47			0	38212	0	0	0	21231	19800	161940	27550	1054535	46263	107789	0	0	8225	557959	0	0
2024-10-13 09:28:47			0	38213	0	0	0	21244	19790	161964	27263	1054517	46262	107794	0	0	8225	557950	0	0
2024-10-13 09:29:47			0	38209	0	0	0	21241	19800	161876	27462	1054508	46263	107793	0	0	8225	558079	0	0
2024-10-13 09:30:47			0	38225	0	0	0	21246	19810	161840	27289	1054499	46276	107795	0	0	8225	557412	0	0
2024-10-13 09:31:47			0	38235	0	0	0	21249	19800	161856	27336	1054561	46274	107796	0	0	8226	557046	0	0
2024-10-13 09:32:47			0	38234	0	0	0	21238	19800	161788	27209	1054570	46264	107792	0	0	8226	557086	0	0
2024-10-13 09:33:47			0	38239	0	0	0	21233	19800	161824	27322	1054490	46275	107790	0	0	8226	556887	0	0
2024-10-13 09:34:47			0	38244	0	0	0	21233	19800	161828	27409	1054517	46253	107790	0	0	8227	556689	0	0
2024-10-13 09:35:47			0	38242	0	0	0	21233	19810	161828	27190	1054526	46254	107790	0	0	8227	556737	0	0
2024-10-13 09:36:47			0	38263	0	0	0	21244	19800	161844	27424	1054517	46264	107794	0	0	8228	555935	0	0
2024-10-13 09:37:47			0	38233	0	0	0	21233	19810	161752	27422	1054499	46254	107790	0	0	8226	557095	0	0
2024-10-13 09:38:47			0	38250	0	0	0	21238	19810	161764	27438	1054579	46254	107792	0	0	8227	556420	0	0
2024-10-13 09:39:47			0	38251	0	0	0	21231	19800	161612	27239	1054544	46264	107789	0	0	8227	556411	0	0
2024-10-13 09:40:47			0	38261	0	0	0	21228	19800	161688	27192	1054490	46264	107788	0	0	8228	556014	0	0
2024-10-13 09:41:47			0	38249	0	0	0	21233	19810	161716	27275	1054615	46265	107790	0	0	8227	556460	0	0
2024-10-13 09:42:47			0	38250	0	0	0	21228	19800	161596	27550	1054544	46275	107788	0	0	8227	556451	0	0
2024-10-13 09:43:47			0	38272	0	0	0	21246	19810	161596	27358	1054535	46254	107795	0	0	8228	555548	0	0
2024-10-13 09:44:47			0	38267	0	0	0	21249	19800	161700	27308	1054535	46252	107796	0	0	8228	555777	0	0
2024-10-13 09:45:47			0	38275	0	0	0	21257	19810	161632	27209	1054579	46276	107799	0	0	8228	555429	0	0
2024-10-13 09:46:47			0	38276	0	0	0	21225	19820	161556	27199	1054544	46276	107787	0	0	8229	555359	0	0
2024-10-13 09:47:47			0	38278	0	0	0	21246	19810	161640	27190	1054526	46276	107795	0	0	8229	555310	0	0
2024-10-13 09:48:47			0	38276	0	0	0	21249	19810	161620	27220	1054588	46265	107796	0	0	8228	555389	0	0
2024-10-13 09:49:47			0	38264	0	0	0	21249	19800	161612	27353	1054544	46264	107796	0	0	8228	555895	0	0
2024-10-13 09:50:47			0	38258	0	0	0	21254	19820	161640	27698	1054570	46276	107798	0	0	8227	556072	0	0
2024-10-13 09:51:47			0	38265	0	0	0	21251	19810	161556	27568	1054606	46276	107797	0	0	8228	555825	0	0
2024-10-13 09:52:47			0	38256	0	0	0	21249	19810	161664	27267	1054588	46276	107796	0	0	8227	556182	0	0
2024-10-13 09:53:47			0	38249	0	0	0	21257	19820	161692	27142	1054597	46265	107799	0	0	8227	556429	0	0
2024-10-13 09:54:47			0	38253	0	0	0	21270	19820	161756	27300	1054597	46265	107804	0	0	8227	556271	0	0
2024-10-13 09:55:47			0	38270	0	0	0	21267	19830	161688	27383	1054677	46267	107803	0	0	8228	555566	0	0
2024-10-13 09:56:47			0	38242	0	0	0	21272	19820	161616	27255	1054677	46265	107805	0	0	8226	556707	0	0
2024-10-13 09:57:47			0	38279	0	0	0	21272	19810	161556	27424	1054668	46276	107805	0	0	8228	555270	0	0
2024-10-13 09:58:47			0	38283	0	0	0	21277	19830	161548	27450	1054677	46278	107807	0	0	8228	555051	0	0
2024-10-13 09:59:47			0	38271	0	0	0	21288	19830	161504	27547	1054650	46267	107811	0	0	8228	555526	0	0
2024-10-13 10:00:47			0	38276	0	0	0	21288	19830	161500	27395	1054703	46278	107811	0	0	8228	555328	0	0
2024-10-13 10:01:47			0	38270	0	0	0	21283	19820	161548	27312	1054712	46277	107809	0	0	8228	555596	0	0
2024-10-13 10:02:47			0	38289	0	0	0	21283	19850	161580	27571	1054704	46280	107809	0	0	8229	554752	0	0
2024-10-13 10:03:47			0	38291	0	0	0	21275	19840	161588	27133	1054739	46278	107806	0	0	8229	554703	0	0
2024-10-13 10:04:47			0	38295	0	0	0	21283	19850	161548	27281	1054731	46269	107809	0	0	8229	554515	0	0
2024-10-13 10:05:47			0	38308	0	0	0	21290	19860	161456	27559	1054802	46269	107812	0	0	8230	553970	0	0
2024-10-13 10:06:47			0	38306	0	0	0	21290	19850	161492	27144	1054731	46280	107812	0	0	8230	554079	0	0
2024-10-13 10:07:47			0	38296	0	0	0	21293	19850	161480	27694	1054810	46280	107813	0	0	8229	554475	0	0
2024-10-13 10:08:47			0	38323	0	0	0	21296	19860	161472	27156	1054775	46269	107814	0	0	8231	553376	0	0
2024-10-13 10:09:47			0	38313	0	0	0	21293	19850	161392	27293	1054819	46280	107813	0	0	8230	553803	0	0
2024-10-13 10:10:47			0	38310	0	0	0	21298	19850	161432	27223	1054793	46269	107815	0	0	8230	553921	0	0
2024-10-13 10:11:47			0	38304	0	0	0	21293	19860	161380	27196	1054855	46269	107813	0	0	8230	554128	0	0
2024-10-13 10:12:47			0	38310	0	0	0	21293	19860	161512	27135	1054837	46270	107813	0	0	8230	553891	0	0
2024-10-13 10:13:47			0	38317	0	0	0	21298	19860	161372	27391	1054828	46280	107815	0	0	8230	553614	0	0
2024-10-13 10:14:47			0	38333	0	0	0	21290	19860	161268	27300	1054864	46259	107812	0	0	8231	552981	0	0
2024-10-13 10:15:47			0	38344	0	0	0	21309	19860	161224	27263	1054828	46280	107819	0	0	8232	552547	0	0
2024-10-13 10:16:47			0	38351	0	0	0	21306	19860	161316	26942	1054811	46270	107818	0	0	8232	552270	0	0
2024-10-13 10:17:47			0	38335	0	0	0	21306	19870	161280	27237	1054899	46293	107818	0	0	8231	552872	0	0
2024-10-13 10:18:47			0	38352	0	0	0	21309	19870	161348	27185	1054873	46260	107819	0	0	8232	552201	0	0
2024-10-13 10:19:47			0	38359	0	0	0	21303	19870	161192	27289	1054873	46282	107817	0	0	8233	551924	0	0
2024-10-13 10:20:47			0	38353	0	0	0	21309	19860	161268	27457	1054864	46270	107819	0	0	8232	552191	0	0
2024-10-13 10:21:47			0	38371	0	0	0	21314	19870	161260	27397	1054855	46272	107821	0	0	8233	551451	0	0
2024-10-13 10:22:47			0	38357	0	0	0	21316	19880	161156	27429	1054917	46261	107822	0	0	8232	551973	0	0
2024-10-13 10:23:47			0	38376	0	0	0	21311	19870	161172	27201	1054882	46283	107820	0	0	8234	551254	0	0
2024-10-13 10:24:47			0	38382	0	0	0	21314	19890	161204	27341	1054935	46284	107821	0	0	8234	550956	0	0
2024-10-13 10:25:47			0	38385	0	0	0	21322	19870	161188	27490	1054935	46272	107824	0	0	8234	550899	0	0
2024-10-13 10:26:47			0	38379	0	0	0	21322	19880	161120	27459	1054979	46272	107824	0	0	8234	551105	0	0
2024-10-13 10:27:47			0	38386	0	0	0	21327	19880	161132	27405	1054917	46272	107826	0	0	8234	550829	0	0
2024-10-13 10:28:47			0	38381	0	0	0	21324	19890	161232	27434	1054935	46273	107825	0	0	8234	550996	0	0
2024-10-13 10:29:47			0	38396	0	0	0	21332	19890	161100	27642	1054988	46273	107828	0	0	8234	550405	0	0
2024-10-13 10:30:47			0	38388	0	0	0	21324	19880	161148	27334	1054953	46283	107825	0	0	8234	550750	0	0
2024-10-13 10:31:47			0	38390	0	0	0	21329	19890	161124	27178	1054988	46273	107827	0	0	8234	550641	0	0
2024-10-13 10:32:47			0	38390	0	0	0	21324	19880	161120	27026	1054900	46261	107825	0	0	8234	550671	0	0
2024-10-13 10:33:47			0	38400	0	0	0	21332	19890	161084	27757	1054962	46284	107828	0	0	8235	550247	0	0
2024-10-13 10:34:47			0	38388	0	0	0	21329	19900	161148	27409	1055006	46274	107827	0	0	8234	550689	0	0
2024-10-13 10:35:47			0	38405	0	0	0	21322	19900	161168	27440	1054953	46274	107824	0	0	8235	550020	0	0
2024-10-13 10:36:47			0	38401	0	0	0	21335	19900	161184	27585	1054988	46285	107829	0	0	8235	550177	0	0
2024-10-13 10:37:47			0	38399	0	0	0	21327	19900	161184	27232	1054953	46274	107826	0	0	8235	550256	0	0
2024-10-13 10:38:47			0	38413	0	0	0	21335	19900	161108	27469	1055015	46263	107829	0	0	8235	549705	0	0
2024-10-13 10:39:47			0	38400	0	0	0	21327	19900	161112	27609	1055015	46285	107826	0	0	8235	550217	0	0
2024-10-13 10:40:47			0	38390	0	0	0	21329	19900	161108	27575	1055015	46285	107827	0	0	8234	550611	0	0
2024-10-13 10:41:47			0	38403	0	0	0	21350	19900	161140	27448	1055015	46274	107835	0	0	8235	550099	0	0
2024-10-13 10:42:47			0	38404	0	0	0	21337	19910	161068	27289	1055024	46275	107830	0	0	8235	550029	0	0
2024-10-13 10:43:47			0	38394	0	0	0	21353	19910	161048	27274	1055059	46298	107836	0	0	8234	550423	0	0
2024-10-13 10:44:47			0	38395	0	0	0	21342	19890	161048	27294	1055024	46296	107832	0	0	8234	550444	0	0
2024-10-13 10:45:47			0	38397	0	0	0	21342	19900	161080	27241	1055059	46285	107832	0	0	8234	550335	0	0
2024-10-13 10:46:47			0	38393	0	0	0	21348	19920	161140	27357	1055068	46276	107834	0	0	8234	550432	0	0
2024-10-13 10:47:47			0	38397	0	0	0	21350	19920	161088	27371	1055068	46276	107835	0	0	8234	550274	0	0
2024-10-13 10:48:47			0	38382	0	0	0	21355	19920	161084	27580	1055095	46276	107837	0	0	8233	550865	0	0
2024-10-13 10:49:47			0	38402	0	0	0	21345	19910	161048	27521	1055077	46275	107833	0	0	8235	550108	0	0
2024-10-13 10:50:47			0	38391	0	0	0	21345	19910	161056	27552	1055059	46287	107833	0	0	8234	550541	0	0
2024-10-13 10:51:47			0	38402	0	0	0	21345	19910	161000	27384	1055086	46276	107833	0	0	8235	550108	0	0
2024-10-13 10:52:47			0	38404	0	0	0	21340	19920	161104	27646	1055104	46276	107831	0	0	8235	549999	0	0
2024-10-13 10:53:47			0	38387	0	0	0	21350	19910	161008	27635	1055113	46276	107835	0	0	8234	550699	0	0
2024-10-13 10:54:47			0	38411	0	0	0	21350	19920	161012	27582	1055051	46265	107835	0	0	8235	549723	0	0
2024-10-13 10:55:47			0	38400	0	0	0	21342	19910	161096	27821	1055059	46276	107832	0	0	8235	550186	0	0
2024-10-13 10:56:47			0	38383	0	0	0	21353	19920	161144	27689	1055130	46287	107836	0	0	8233	550826	0	0
2024-10-13 10:57:47			0	38376	0	0	0	21350	19930	161140	27644	1055113	46288	107835	0	0	8233	551071	0	0
2024-10-13 10:58:47			0	38396	0	0	0	21350	19930	161088	27627	1055086	46277	107835	0	0	8234	550283	0	0
2024-10-13 10:59:47			0	38396	0	0	0	21353	19910	161132	27746	1055113	46276	107836	0	0	8234	550344	0	0
2024-10-13 11:00:47			0	38376	0	0	0	21358	19920	161184	27618	1055130	46276	107838	0	0	8233	551102	0	0
2024-10-13 11:01:47			0	38374	0	0	0	21358	19920	161144	27256	1055077	46276	107838	0	0	8233	551181	0	0
2024-10-13 11:02:47			0	38391	0	0	0	21363	19910	161120	27725	1055113	46287	107840	0	0	8234	550541	0	0
2024-10-13 11:03:47			0	38375	0	0	0	21361	19930	161132	27570	1055139	46277	107839	0	0	8233	551111	0	0
2024-10-13 11:04:47			0	38381	0	0	0	21366	19930	161056	27265	1055086	46288	107841	0	0	8233	550874	0	0
2024-10-13 11:05:47			0	38407	0	0	0	21371	19940	161012	27547	1055237	46278	107843	0	0	8235	549820	0	0
2024-10-13 11:06:47			0	38422	0	0	0	21366	19940	161008	27613	1055131	46278	107841	0	0	8236	549230	0	0
2024-10-13 11:07:47			0	38427	0	0	0	21363	19920	160976	27708	1055130	46276	107840	0	0	8236	549094	0	0
2024-10-13 11:08:47			0	38438	0	0	0	21374	19920	160964	27521	1055130	46287	107844	0	0	8236	548661	0	0
2024-10-13 11:09:47			0	38429	0	0	0	21366	19940	160936	27904	1055210	46289	107841	0	0	8236	548954	0	0
2024-10-13 11:10:47			0	38444	0	0	0	21374	19930	160932	27374	1055148	46267	107844	0	0	8237	548395	0	0
2024-10-13 11:11:47			0	38457	0	0	0	21368	19940	160940	27736	1055193	46290	107842	0	0	8238	547854	0	0
2024-10-13 11:12:47			0	38438	0	0	0	21368	19940	160960	27334	1055193	46279	107842	0	0	8236	548600	0	0
2024-10-13 11:13:47			0	38439	0	0	0	21371	19940	160892	27145	1055210	46278	107843	0	0	8236	548561	0	0
2024-10-13 11:14:47			0	38446	0	0	0	21363	19940	160860	27545	1055210	46278	107840	0	0	8237	548286	0	0
2024-10-13 11:15:47			0	38458	0	0	0	21371	19940	160872	27537	1055219	46279	107843	0	0	8238	547815	0	0
2024-10-13 11:16:47			0	38467	0	0	0	21371	19940	160848	27242	1055193	46279	107843	0	0	8238	547461	0	0
2024-10-13 11:17:47			0	38457	0	0	0	21368	19940	160844	27230	1055246	46257	107842	0	0	8238	547854	0	0
2024-10-13 11:18:47			0	38454	0	0	0	21381	19940	160888	27490	1055131	46289	107847	0	0	8237	547972	0	0
2024-10-13 11:19:47			0	38472	0	0	0	21376	19940	160808	27350	1055210	46289	107845	0	0	8238	547265	0	0
2024-10-13 11:20:47			0	38503	0	0	0	21374	19940	160688	27168	1055237	46278	107844	0	0	8240	546049	0	0
2024-10-13 11:21:47			0	38527	0	0	0	21384	19940	160580	27336	1055193	46301	107848	0	0	8241	545108	0	0
2024-10-13 11:22:47			0	38549	0	0	0	21374	19940	160452	27433	1055184	46289	107844	0	0	8243	544248	0	0
2024-10-13 11:23:47			0	38562	0	0	0	21386	19950	160596	27571	1055175	46279	107849	0	0	8243	543709	0	0
2024-10-13 11:24:47			0	38548	0	0	0	21376	19950	160352	27564	1055281	46279	107845	0	0	8243	544257	0	0
2024-10-13 11:25:47			0	38567	0	0	0	21386	19950	160420	27421	1055281	46301	107849	0	0	8244	543514	0	0
2024-10-13 11:26:47			0	38579	0	0	0	21389	19940	160356	27428	1055246	46279	107850	0	0	8244	543075	0	0
2024-10-13 11:27:47			0	38594	0	0	0	21384	19950	160288	27561	1055228	46279	107848	0	0	8245	542459	0	0
2024-10-13 11:28:47			0	38595	0	0	0	21384	19950	160260	27281	1055255	46290	107848	0	0	8245	542420	0	0
2024-10-13 11:29:47			0	38593	0	0	0	21384	19950	160264	27486	1055228	46290	107848	0	0	8245	542498	0	0
2024-10-13 11:30:47			0	38588	0	0	0	21394	19950	160176	27473	1055335	46290	107852	0	0	8245	542693	0	0
2024-10-13 11:31:47			0	38628	0	0	0	21397	19950	160148	27348	1055281	46301	107853	0	0	8247	541133	0	0
2024-10-13 11:32:47			0	38626	0	0	0	21399	19950	160076	27062	1055290	46280	107854	0	0	8247	541211	0	0
2024-10-13 11:33:47			0	38651	0	0	0	21407	19950	160144	27398	1055344	46291	107857	0	0	8248	540236	0	0
2024-10-13 11:34:47			0	38701	0	0	0	21415	19960	159948	27258	1055326	46280	107860	0	0	8251	538262	0	0
2024-10-13 11:35:47			0	38757	0	0	0	21415	19970	159693	27379	1055335	46291	107860	0	0	8254	536059	0	0
2024-10-13 11:36:47			0	38804	0	0	0	21420	19970	159461	27533	1055335	46270	107862	0	0	8257	534239	0	0
2024-10-13 11:37:47			0	38837	0	0	0	21415	19970	159489	27410	1055388	46291	107860	0	0	8259	532963	0	0
2024-10-13 11:38:47			0	38854	0	0	0	21420	19980	159181	27265	1055353	46292	107862	0	0	8260	532278	0	0
2024-10-13 11:39:47			0	38899	0	0	0	21438	19980	159025	27587	1055433	46292	107869	0	0	8262	530543	0	0
2024-10-13 11:40:47			0	38922	0	0	0	21423	19980	158877	27258	1055380	46292	107863	0	0	8264	529657	0	0
2024-10-13 11:41:47			0	38878	0	0	0	21425	19980	159189	27317	1055380	46304	107864	0	0	8261	531352	0	0
2024-10-13 11:42:47			0	38825	0	0	0	21410	19990	159405	27675	1055477	46294	107858	0	0	8259	533368	0	0
2024-10-13 11:43:47			0	38812	0	0	0	21405	19980	159429	27402	1055389	46283	107856	0	0	8258	533900	0	0
2024-10-13 11:44:47			0	38796	0	0	0	21410	19980	159417	27156	1055406	46292	107858	0	0	8257	534519	0	0
2024-10-13 11:45:47			0	38784	0	0	0	21407	19980	159657	27429	1055433	46292	107857	0	0	8256	534983	0	0
2024-10-13 11:46:47			0	38753	0	0	0	21412	19990	159681	27507	1055433	46294	107859	0	0	8254	536155	0	0
2024-10-13 11:47:47			0	38729	0	0	0	21399	19990	159684	27505	1055398	46294	107854	0	0	8253	537085	0	0
2024-10-13 11:48:47			0	38723	0	0	0	21410	19990	159744	27599	1055344	46283	107858	0	0	8253	537318	0	0
2024-10-13 11:49:47			0	38704	0	0	0	21412	20000	159796	27703	1055362	46284	107859	0	0	8252	538026	0	0
2024-10-13 11:50:47			0	38682	0	0	0	21420	19990	159792	27549	1055380	46283	107862	0	0	8250	538911	0	0
2024-10-13 11:51:47			0	38711	0	0	0	21436	19980	159656	27341	1055442	46294	107868	0	0	8251	537814	0	0
2024-10-13 11:52:47			0	38756	0	0	0	21433	19990	159641	27440	1055406	46283	107867	0	0	8254	536038	0	0
2024-10-13 11:53:47			0	38784	0	0	0	21444	20000	159481	27521	1055495	46284	107871	0	0	8256	534924	0	0
2024-10-13 11:54:47			0	38804	0	0	0	21451	20000	159377	27654	1055469	46295	107874	0	0	8257	534151	0	0
2024-10-13 11:55:47			0	38849	0	0	0	21462	20000	159217	27421	1055451	46296	107878	0	0	8259	532412	0	0
2024-10-13 11:56:47			0	38890	0	0	0	21472	20000	159001	27490	1055557	46285	107882	0	0	8261	530831	0	0
2024-10-13 11:57:47			0	38930	0	0	0	21459	20010	158881	27578	1055540	46296	107877	0	0	8264	529262	0	0
2024-10-13 11:58:47			0	38962	0	0	0	21475	20010	158689	27609	1055566	46296	107883	0	0	8266	528032	0	0
2024-10-13 11:59:47			0	38973	0	0	0	21470	20000	158549	27554	1055584	46296	107881	0	0	8266	527638	0	0
2024-10-13 12:00:47			0	38972	0	0	0	21459	20020	158613	27170	1055584	46297	107877	0	0	8266	527619	0	0
2024-10-13 12:01:47			0	38972	0	0	0	21459	20020	158581	27258	1055611	46297	107877	0	0	8266	527619	0	0
2024-10-13 12:02:47			0	38954	0	0	0	21459	20030	158693	27504	1055664	46310	107877	0	0	8265	528281	0	0
2024-10-13 12:03:47			0	38962	0	0	0	21483	20020	158769	27422	1055664	46297	107886	0	0	8265	528003	0	0
2024-10-13 12:04:47			0	38964	0	0	0	21498	20040	158673	27481	1055646	46310	107892	0	0	8265	527868	0	0
2024-10-13 12:05:47			0	38979	0	0	0	21485	20040	158609	27454	1055779	46299	107887	0	0	8266	527292	0	0
2024-10-13 12:06:47			0	38940	0	0	0	21480	20040	158729	27568	1055762	46311	107885	0	0	8264	528790	0	0
2024-10-13 12:07:47			0	38910	0	0	0	21467	20050	158833	27438	1055744	46311	107880	0	0	8263	529914	0	0
2024-10-13 12:08:47			0	38868	0	0	0	21467	20040	159037	27587	1055735	46311	107880	0	0	8260	531561	0	0
2024-10-13 12:09:47			0	38859	0	0	0	21467	20050	159025	27326	1055771	46300	107880	0	0	8260	531879	0	0
2024-10-13 12:10:47			0	38866	0	0	0	21472	20050	159009	27448	1055718	46289	107882	0	0	8260	531609	0	0
2024-10-13 12:11:47			0	38877	0	0	0	21483	20050	158881	27346	1055744	46300	107886	0	0	8261	531185	0	0
2024-10-13 12:12:47			0	38911	0	0	0	21490	20060	158761	27661	1055815	46290	107889	0	0	8263	529847	0	0
2024-10-13 12:13:47			0	38911	0	0	0	21490	20060	158881	27488	1055851	46313	107889	0	0	8263	529847	0	0
2024-10-13 12:14:47			0	38940	0	0	0	21506	20070	158753	27659	1055869	46303	107895	0	0	8264	528702	0	0
2024-10-13 12:15:47			0	38949	0	0	0	21519	20060	158629	27488	1055771	46313	107900	0	0	8264	528385	0	0
2024-10-13 12:16:47			0	38961	0	0	0	21516	20080	158661	27448	1055904	46304	107899	0	0	8265	527866	0	0
2024-10-13 12:17:47			0	38962	0	0	0	21522	20070	158485	27274	1055922	46303	107901	0	0	8265	527857	0	0
2024-10-13 12:18:47			0	38990	0	0	0	21514	20070	158569	27263	1055948	46303	107898	0	0	8267	526782	0	0
2024-10-13 12:19:47			0	39009	0	0	0	21524	20080	158489	27722	1055940	46315	107902	0	0	8268	526025	0	0
2024-10-13 12:20:47			0	39048	0	0	0	21532	20090	158329	27298	1056028	46305	107905	0	0	8270	524503	0	0
2024-10-13 12:21:47			0	39056	0	0	0	21503	20090	158205	27448	1055949	46316	107894	0	0	8271	524197	0	0
2024-10-13 12:22:47			0	39020	0	0	0	21511	20090	158377	27410	1055975	46293	107897	0	0	8269	525575	0	0
2024-10-13 12:23:47			0	39011	0	0	0	21532	20080	158313	27563	1055966	46292	107905	0	0	8268	525949	0	0
2024-10-13 12:24:47			0	39051	0	0	0	21537	20080	158317	27543	1056046	46282	107907	0	0	8270	524417	0	0
2024-10-13 12:25:47			0	39094	0	0	0	21558	20090	158037	27415	1055984	46293	107915	0	0	8272	522745	0	0
2024-10-13 12:26:47			0	39171	0	0	0	21566	20100	157689	27248	1056073	46306	107918	0	0	8277	519782	0	0
2024-10-13 12:27:47			0	39219	0	0	0	21566	20100	157645	27428	1056073	46294	107918	0	0	8279	517958	0	0
2024-10-13 12:28:47			0	39237	0	0	0	21563	20100	157465	27237	1056082	46294	107917	0	0	8280	517275	0	0
2024-10-13 12:29:47			0	39278	0	0	0	21571	20110	157373	27500	1056144	46307	107920	0	0	8283	515692	0	0
2024-10-13 12:30:47			0	39328	0	0	0	21584	20100	157221	27545	1056162	46306	107925	0	0	8285	513829	0	0
2024-10-13 12:31:47			0	39349	0	0	0	21561	20120	157137	27433	1056171	46309	107916	0	0	8287	512979	0	0
2024-10-13 12:32:47			0	39284	0	0	0	21555	20120	157317	27336	1056171	46309	107914	0	0	8283	515436	0	0
2024-10-13 12:33:47			0	39245	0	0	0	21561	20120	157465	27320	1056171	46297	107916	0	0	8281	516914	0	0
2024-10-13 12:34:47			0	39231	0	0	0	21568	20120	157577	27398	1056091	46309	107919	0	0	8280	517445	0	0
2024-10-13 12:35:47			0	39267	0	0	0	21584	20120	157357	27845	1056171	46309	107925	0	0	8282	516080	0	0
2024-10-13 12:36:47			0	39322	0	0	0	21592	20130	157169	27364	1056180	46297	107928	0	0	8285	513971	0	0
2024-10-13 12:37:47			0	39375	0	0	0	21605	20140	157057	27369	1056251	46321	107933	0	0	8288	511941	0	0
2024-10-13 12:38:47			0	39419	0	0	0	21612	20140	156846	27651	1056278	46310	107936	0	0	8290	510284	0	0
2024-10-13 12:39:47			0	39411	0	0	0	21597	20140	156897	27628	1056304	46321	107930	0	0	8290	510585	0	0
2024-10-13 12:40:47			0	39393	0	0	0	21589	20150	156949	27531	1056296	46322	107927	0	0	8289	511235	0	0
2024-10-13 12:41:47			0	39380	0	0	0	21589	20160	157001	27666	1056313	46312	107927	0	0	8288	511696	0	0
2024-10-13 12:42:47			0	39356	0	0	0	21586	20140	157113	27542	1056251	46310	107926	0	0	8287	512658	0	0
2024-10-13 12:43:47			0	39356	0	0	0	21586	20160	156997	27353	1056260	46290	107926	0	0	8287	512602	0	0
2024-10-13 12:44:47			0	39383	0	0	0	21610	20150	156901	27338	1056278	46311	107935	0	0	8288	511612	0	0
2024-10-13 12:45:47			0	39412	0	0	0	21610	20160	156933	27725	1056322	46302	107935	0	0	8290	510491	0	0
2024-10-13 12:46:47			0	39419	0	0	0	21605	20160	156898	27672	1056349	46302	107933	0	0	8290	510228	0	0
2024-10-13 12:47:47			0	39372	0	0	0	21573	20170	156977	27549	1056331	46313	107921	0	0	8288	511970	0	0
2024-10-13 12:48:47			0	39280	0	0	0	21568	20170	157197	27454	1056331	46302	107919	0	0	8283	515446	0	0
2024-10-13 12:49:47			0	39250	0	0	0	21568	20170	157425	27481	1056305	46280	107919	0	0	8281	516582	0	0
2024-10-13 12:50:47			0	39227	0	0	0	21558	20160	157497	27441	1056269	46291	107915	0	0	8280	517483	0	0
2024-10-13 12:51:47			0	39213	0	0	0	21553	20160	157629	27495	1056234	46301	107913	0	0	8279	518014	0	0
2024-10-13 12:52:47			0	39163	0	0	0	21561	20150	157789	27595	1056189	46289	107916	0	0	8276	519943	0	0
2024-10-13 12:53:47			0	39134	0	0	0	21555	20160	157877	27460	1056207	46290	107914	0	0	8275	521019	0	0
2024-10-13 12:54:47			0	39114	0	0	0	21555	20160	157965	27287	1056207	46290	107914	0	0	8274	521781	0	0
2024-10-13 12:55:47			0	39098	0	0	0	21545	20140	158089	27488	1056225	46288	107910	0	0	8273	522449	0	0
2024-10-13 12:56:47			0	39078	0	0	0	21553	20150	158129	27431	1056189	46289	107913	0	0	8272	523183	0	0
2024-10-13 12:57:47			0	39074	0	0	0	21568	20150	158169	27116	1056189	46300	107919	0	0	8271	523336	0	0
2024-10-13 12:58:47			0	39085	0	0	0	21573	20140	158065	27571	1056251	46310	107921	0	0	8272	522945	0	0
2024-10-13 12:59:47			0	39085	0	0	0	21571	20150	157981	27293	1056296	46311	107920	0	0	8272	522916	0	0
2024-10-13 13:00:47			0	39086	0	0	0	21573	20160	158089	27457	1056260	46312	107921	0	0	8272	522849	0	0
2024-10-13 13:01:47			0	39060	0	0	0	21584	20150	158281	27171	1056251	46311	107925	0	0	8270	523871	0	0
2024-10-13 13:02:47			0	39102	0	0	0	21584	20160	158061	27663	1056287	46312	107925	0	0	8272	522238	0	0
2024-10-13 13:03:47			0	39090	0	0	0	21579	20150	158125	27230	1056305	46300	107923	0	0	8272	522725	0	0
2024-10-13 13:04:47			0	39100	0	0	0	21607	20160	157925	27395	1056287	46301	107934	0	0	8272	522315	0	0
2024-10-13 13:05:47			0	39157	0	0	0	21625	20170	157873	27372	1056385	46324	107941	0	0	8275	520114	0	0
2024-10-13 13:06:47			0	39223	0	0	0	21623	20170	157589	27611	1056411	46324	107940	0	0	8279	517606	0	0
2024-10-13 13:07:47			0	39202	0	0	0	21623	20180	157625	27680	1056456	46335	107940	0	0	8278	518375	0	0
2024-10-13 13:08:47			0	39225	0	0	0	21612	20190	157617	27601	1056473	46316	107936	0	0	8279	517473	0	0
2024-10-13 13:09:47			0	39224	0	0	0	21610	20200	157573	27452	1056518	46327	107935	0	0	8279	517482	0	0
2024-10-13 13:10:47			0	39208	0	0	0	21620	20170	157545	27557	1056420	46325	107939	0	0	8278	518175	0	0
2024-10-13 13:11:47			0	39212	0	0	0	21602	20180	157633	27331	1056438	46304	107932	0	0	8279	517995	0	0
2024-10-13 13:12:47			0	39194	0	0	0	21589	20190	157553	27171	1056482	46316	107927	0	0	8278	518650	0	0
2024-10-13 13:13:47			0	39166	0	0	0	21599	20190	157713	27679	1056429	46305	107931	0	0	8276	519714	0	0
2024-10-13 13:14:47			0	39171	0	0	0	21597	20190	157733	27443	1056473	46316	107930	0	0	8276	519524	0	0
2024-10-13 13:15:47			0	39201	0	0	0	21615	20180	157669	27346	1056465	46315	107937	0	0	8278	518413	0	0
2024-10-13 13:16:47			0	39217	0	0	0	21612	20200	157557	27268	1056545	46293	107936	0	0	8279	517748	0	0
2024-10-13 13:17:47			0	39232	0	0	0	21615	20190	157629	27516	1056456	46316	107937	0	0	8280	517207	0	0
2024-10-13 13:18:47			0	39208	0	0	0	21597	20200	157613	27104	1056474	46306	107930	0	0	8279	518090	0	0
2024-10-13 13:19:47			0	39213	0	0	0	21602	20190	157481	27569	1056403	46293	107932	0	0	8279	517928	0	0
2024-10-13 13:20:47			0	39198	0	0	0	21599	20200	157573	27651	1056438	46293	107931	0	0	8278	518469	0	0
2024-10-13 13:21:47			0	39186	0	0	0	21605	20190	157657	27460	1056420	46305	107933	0	0	8277	518954	0	0
2024-10-13 13:22:47			0	39181	0	0	0	21612	20190	157577	27339	1056394	46316	107936	0	0	8277	519144	0	0
2024-10-13 13:23:47			0	39210	0	0	0	21615	20180	157501	27531	1056438	46304	107937	0	0	8278	518071	0	0
2024-10-13 13:24:47			0	39220	0	0	0	21607	20200	157529	27364	1056438	46305	107934	0	0	8279	517634	0	0
2024-10-13 13:25:47			0	39207	0	0	0	21610	20190	157621	27438	1056482	46305	107935	0	0	8278	518156	0	0
2024-10-13 13:26:47			0	39183	0	0	0	21599	20190	157613	27159	1056447	46305	107931	0	0	8277	519068	0	0
2024-10-13 13:27:47			0	39208	0	0	0	21607	20190	157593	27500	1056429	46293	107934	0	0	8278	518118	0	0
2024-10-13 13:28:47			0	39195	0	0	0	21610	20190	157505	27469	1056447	46305	107935	0	0	8278	518612	0	0
2024-10-13 13:29:47			0	39238	0	0	0	21610	20190	157585	27829	1056447	46305	107935	0	0	8280	516980	0	0
2024-10-13 13:30:47			0	39236	0	0	0	21612	20190	157445	27331	1056482	46327	107936	0	0	8280	517056	0	0
2024-10-13 13:31:47			0	39215	0	0	0	21597	20200	157549	27562	1056465	46305	107930	0	0	8279	517824	0	0
2024-10-13 13:32:47			0	39205	0	0	0	21618	20200	157697	27419	1056465	46293	107938	0	0	8278	518203	0	0
2024-10-13 13:33:47			0	39218	0	0	0	21605	20190	157473	27322	1056394	46305	107933	0	0	8279	517739	0	0
2024-10-13 13:34:47			0	39238	0	0	0	21607	20190	157581	27388	1056509	46316	107934	0	0	8280	516980	0	0
2024-10-13 13:35:47			0	39202	0	0	0	21599	20200	157681	27388	1056465	46316	107931	0	0	8278	518317	0	0
2024-10-13 13:36:47			0	39195	0	0	0	21602	20200	157693	27156	1056465	46305	107932	0	0	8278	518583	0	0
2024-10-13 13:37:47			0	39216	0	0	0	21605	20200	157621	27109	1056465	46305	107933	0	0	8279	517786	0	0
2024-10-13 13:38:47			0	39210	0	0	0	21605	20190	157617	27668	1056376	46293	107933	0	0	8279	518042	0	0
2024-10-13 13:39:47			0	39196	0	0	0	21628	20200	157625	26994	1056491	46293	107942	0	0	8277	518545	0	0
2024-10-13 13:40:47			0	39257	0	0	0	21636	20190	157521	27583	1056500	46305	107945	0	0	8281	516260	0	0
2024-10-13 13:41:47			0	39252	0	0	0	21620	20200	157393	26955	1056571	46316	107939	0	0	8281	516421	0	0
2024-10-13 13:42:47			0	39269	0	0	0	21612	20200	157357	27435	1056500	46328	107936	0	0	8282	515777	0	0
2024-10-13 13:43:47			0	39231	0	0	0	21610	20200	157481	27523	1056571	46293	107935	0	0	8280	517217	0	0
2024-10-13 13:44:47			0	39250	0	0	0	21618	20200	157413	27464	1056518	46305	107938	0	0	8281	516496	0	0
2024-10-13 13:45:47			0	39244	0	0	0	21628	20210	157465	27322	1056562	46307	107942	0	0	8280	516695	0	0
2024-10-13 13:46:47			0	39240	0	0	0	21612	20200	157497	27564	1056527	46317	107936	0	0	8280	516875	0	0
2024-10-13 13:47:47			0	39239	0	0	0	21644	20210	157389	27535	1056571	46318	107948	0	0	8280	516885	0	0
2024-10-13 13:48:47			0	39286	0	0	0	21631	20210	157301	27395	1056562	46318	107943	0	0	8283	515105	0	0
2024-10-13 13:49:47			0	39299	0	0	0	21625	20210	157321	27485	1056571	46318	107941	0	0	8283	514613	0	0
2024-10-13 13:50:47			0	39330	0	0	0	21659	20210	157085	27428	1056598	46318	107954	0	0	8285	513441	0	0
2024-10-13 13:51:47			0	39353	0	0	0	21657	20200	156965	27242	1056607	46328	107953	0	0	8286	512602	0	0
2024-10-13 13:52:47			0	39409	0	0	0	21685	20220	156805	27505	1056616	46319	107964	0	0	8289	510435	0	0
2024-10-13 13:53:47			0	39473	0	0	0	21672	20220	156614	27182	1056696	46319	107959	0	0	8293	508029	0	0
2024-10-13 13:54:47			0	39434	0	0	0	21641	20230	156606	27642	1056732	46331	107947	0	0	8291	509466	0	0
2024-10-13 13:55:47			0	39411	0	0	0	21638	20230	156737	27578	1056661	46320	107946	0	0	8290	510331	0	0
2024-10-13 13:56:47			0	39379	0	0	0	21641	20230	156921	27531	1056608	46297	107947	0	0	8288	511536	0	0
2024-10-13 13:57:47			0	39408	0	0	0	21641	20230	156865	27246	1056652	46320	107947	0	0	8290	510444	0	0
2024-10-13 13:58:47			0	39373	0	0	0	21615	20220	156981	27289	1056590	46308	107937	0	0	8288	511791	0	0
2024-10-13 13:59:47			0	39353	0	0	0	21657	20220	156997	27419	1056590	46296	107953	0	0	8286	512545	0	0
2024-10-13 14:00:47			0	39447	0	0	0	21677	20230	156702	27509	1056661	46320	107961	0	0	8291	508978	0	0
2024-10-13 14:01:47			0	39483	0	0	0	21696	20240	156442	27519	1056749	46297	107968	0	0	8293	507598	0	0
2024-10-13 14:02:47			0	39619	0	0	0	21722	20240	155962	27364	1056732	46321	107978	0	0	8300	502511	0	0
2024-10-13 14:03:47			0	39711	0	0	0	21711	20240	155662	27604	1056758	46332	107974	0	0	8306	499086	0	0
2024-10-13 14:04:47			0	39758	0	0	0	21711	20250	155478	27237	1056821	46322	107974	0	0	8309	497314	0	0
2024-10-13 14:05:47			0	39771	0	0	0	21719	20260	155426	27431	1056830	46333	107977	0	0	8309	496804	0	0
2024-10-13 14:06:47			0	39785	0	0	0	21688	20260	155474	27473	1056812	46333	107965	0	0	8311	496286	0	0
2024-10-13 14:07:47			0	39690	0	0	0	21662	20270	155674	27673	1056821	46323	107955	0	0	8306	499784	0	0
2024-10-13 14:08:47			0	39586	0	0	0	21638	20260	156102	27357	1056732	46312	107946	0	0	8300	503687	0	0
2024-10-13 14:09:47			0	39556	0	0	0	21659	20260	156146	27289	1056776	46300	107954	0	0	8298	504808	0	0
2024-10-13 14:10:47			0	39550	0	0	0	21664	20250	156290	27327	1056688	46311	107956	0	0	8297	505060	0	0
2024-10-13 14:11:47			0	39560	0	0	0	21664	20260	156210	27447	1056697	46323	107956	0	0	8298	504658	0	0
2024-10-13 14:12:47			0	39557	0	0	0	21670	20260	156206	27199	1056723	46312	107958	0	0	8298	504771	0	0
2024-10-13 14:13:47			0	39548	0	0	0	21659	20240	156242	27689	1056732	46310	107954	0	0	8297	505163	0	0
2024-10-13 14:14:47			0	39485	0	0	0	21649	20250	156502	27457	1056688	46299	107950	0	0	8294	507495	0	0
2024-10-13 14:15:47			0	39484	0	0	0	21654	20250	156462	27599	1056767	46322	107952	0	0	8294	507533	0	0
2024-10-13 14:16:47			0	39527	0	0	0	21659	20260	156350	27313	1056670	46312	107954	0	0	8296	505893	0	0
2024-10-13 14:17:47			0	39515	0	0	0	21657	20240	156298	27416	1056723	46320	107953	0	0	8295	506398	0	0
2024-10-13 14:18:47			0	39471	0	0	0	21644	20240	156450	27507	1056670	46309	107948	0	0	8293	508048	0	0
2024-10-13 14:19:47			0	39444	0	0	0	21651	20240	156610	27464	1056670	46309	107951	0	0	8291	509062	0	0
2024-10-13 14:20:47			0	39493	0	0	0	21662	20250	156498	27227	1056741	46322	107955	0	0	8294	507195	0	0
2024-10-13 14:21:47			0	39519	0	0	0	21675	20240	156382	27142	1056758	46321	107960	0	0	8295	506249	0	0
2024-10-13 14:22:47			0	39549	0	0	0	21680	20250	156158	27284	1056794	46322	107962	0	0	8297	505098	0	0
2024-10-13 14:23:47			0	39508	0	0	0	21662	20240	156342	27512	1056723	46331	107955	0	0	8295	506661	0	0
2024-10-13 14:24:47			0	39498	0	0	0	21677	20250	156490	27677	1056688	46311	107961	0	0	8294	507007	0	0
2024-10-13 14:25:47			0	39567	0	0	0	21693	20250	156150	27701	1056794	46322	107967	0	0	8298	504424	0	0
2024-10-13 14:26:47			0	39645	0	0	0	21696	20250	155782	27517	1056767	46333	107968	0	0	8302	501514	0	0
2024-10-13 14:27:47			0	39638	0	0	0	21701	20260	155978	27457	1056785	46333	107970	0	0	8302	501747	0	0
2024-10-13 14:28:47			0	39676	0	0	0	21696	20270	155746	27277	1056901	46333	107968	0	0	8304	500304	0	0
2024-10-13 14:29:47			0	39686	0	0	0	21685	20270	155690	27467	1056936	46324	107964	0	0	8305	499932	0	0
2024-10-13 14:30:47			0	39677	0	0	0	21722	20270	155714	27371	1056874	46323	107978	0	0	8304	500267	0	0
2024-10-13 14:31:47			0	39814	0	0	0	21735	20280	155262	27649	1056954	46325	107983	0	0	8312	495158	0	0
2024-10-13 14:32:47			0	39823	0	0	0	21711	20290	155206	27809	1056857	46325	107974	0	0	8313	494797	0	0
2024-10-13 14:33:47			0	39819	0	0	0	21701	20280	155182	27831	1056901	46325	107970	0	0	8312	494973	0	0
2024-10-13 14:34:47			0	39743	0	0	0	21667	20290	155478	27528	1056936	46325	107957	0	0	8309	497760	0	0
2024-10-13 14:35:47			0	39621	0	0	0	21638	20280	155910	27722	1056839	46325	107946	0	0	8302	502325	0	0
2024-10-13 14:36:47			0	39509	0	0	0	21625	20280	156354	27538	1056732	46314	107941	0	0	8296	506511	0	0
2024-10-13 14:37:47			0	39458	0	0	0	21641	20270	156434	27805	1056750	46302	107947	0	0	8293	508452	0	0
2024-10-13 14:38:47			0	39488	0	0	0	21657	20260	156438	27656	1056759	46300	107953	0	0	8294	507354	0	0
2024-10-13 14:39:47			0	39499	0	0	0	21696	20260	156322	27660	1056750	46312	107968	0	0	8294	506942	0	0
2024-10-13 14:40:47			0	39608	0	0	0	21696	20260	155974	27326	1056759	46312	107968	0	0	8300	502865	0	0
2024-10-13 14:41:47			0	39671	0	0	0	21722	20260	155878	27357	1056812	46312	107978	0	0	8304	500518	0	0
2024-10-13 14:42:47			0	39778	0	0	0	21719	20260	155598	27481	1056830	46323	107977	0	0	8310	496545	0	0
2024-10-13 14:43:47			0	39864	0	0	0	21732	20270	155246	27665	1056821	46312	107982	0	0	8315	493337	0	0
2024-10-13 14:44:47			0	39762	0	0	0	21675	20270	155394	27441	1056883	46313	107960	0	0	8310	497110	0	0
2024-10-13 14:45:47			0	39679	0	0	0	21651	20270	155754	27538	1056768	46312	107951	0	0	8305	500193	0	0
2024-10-13 14:46:47			0	39595	0	0	0	21646	20270	156018	27899	1056768	46312	107949	0	0	8300	503323	0	0
2024-10-13 14:47:47			0	39514	0	0	0	21646	20260	156270	27661	1056705	46312	107949	0	0	8296	506380	0	0
2024-10-13 14:48:47			0	39481	0	0	0	21646	20260	156550	27156	1056679	46290	107949	0	0	8294	507617	0	0
2024-10-13 14:49:47			0	39477	0	0	0	21657	20260	156558	27471	1056697	46300	107953	0	0	8293	507767	0	0
2024-10-13 14:50:47			0	39495	0	0	0	21670	20240	156442	27518	1056758	46310	107958	0	0	8294	507148	0	0
2024-10-13 14:51:47			0	39513	0	0	0	21680	20240	156386	27795	1056758	46310	107962	0	0	8295	506473	0	0
2024-10-13 14:52:47			0	39559	0	0	0	21685	20260	156174	27568	1056723	46312	107964	0	0	8298	504696	0	0
2024-10-13 14:53:47			0	39551	0	0	0	21677	20250	156370	27469	1056688	46311	107961	0	0	8297	505023	0	0
2024-10-13 14:54:47			0	39523	0	0	0	21662	20250	156366	27509	1056714	46311	107955	0	0	8296	506071	0	0
2024-10-13 14:55:47			0	39522	0	0	0	21667	20260	156486	27268	1056750	46312	107957	0	0	8296	506080	0	0
2024-10-13 14:56:47			0	39526	0	0	0	21672	20250	156346	27561	1056767	46322	107959	0	0	8296	505958	0	0
2024-10-13 14:57:47			0	39523	0	0	0	21670	20240	156374	27611	1056679	46321	107958	0	0	8296	506099	0	0
2024-10-13 14:58:47			0	39519	0	0	0	21680	20250	156302	27717	1056741	46333	107962	0	0	8295	506221	0	0
2024-10-13 14:59:47			0	39578	0	0	0	21696	20250	156090	27433	1056767	46322	107968	0	0	8299	504014	0	0
2024-10-13 15:00:47			0	39600	0	0	0	21690	20250	156162	27583	1056767	46311	107966	0	0	8300	503192	0	0
2024-10-13 15:01:47			0	39616	0	0	0	21703	20240	155938	27422	1056812	46342	107971	0	0	8301	502623	0	0
2024-10-13 15:02:47			0	39643	0	0	0	21709	20260	155890	27412	1056812	46333	107973	0	0	8302	501560	0	0
2024-10-13 15:03:47			0	39684	0	0	0	21703	20260	155734	27183	1056892	46333	107971	0	0	8305	500034	0	0
2024-10-13 15:04:47			0	39714	0	0	0	21711	20260	155662	27492	1056838	46333	107974	0	0	8306	498919	0	0
2024-10-13 15:05:47			0	39670	0	0	0	21703	20260	155806	27646	1056812	46300	107971	0	0	8304	500555	0	0
2024-10-13 15:06:47			0	39675	0	0	0	21690	20270	155762	27450	1056856	46334	107966	0	0	8304	500341	0	0
2024-10-13 15:07:47			0	39678	0	0	0	21693	20280	155894	27419	1056812	46314	107967	0	0	8304	500202	0	0
2024-10-13 15:08:47			0	39685	0	0	0	21711	20270	155842	27128	1056856	46324	107974	0	0	8305	499969	0	0
2024-10-13 15:09:47			0	39657	0	0	0	21706	20270	155802	27255	1056847	46323	107972	0	0	8303	501011	0	0
2024-10-13 15:10:47			0	39672	0	0	0	21703	20270	155826	27234	1056856	46313	107971	0	0	8304	500453	0	0
2024-10-13 15:11:47			0	39640	0	0	0	21701	20280	155810	27483	1056901	46335	107970	0	0	8302	501617	0	0
2024-10-13 15:12:47			0	39637	0	0	0	21703	20280	155706	27696	1056865	46314	107971	0	0	8302	501729	0	0
2024-10-13 15:13:47			0	39613	0	0	0	21680	20270	156030	27310	1056883	46313	107962	0	0	8301	502651	0	0
2024-10-13 15:14:47			0	39560	0	0	0	21664	20290	156166	27341	1056857	46314	107956	0	0	8298	504575	0	0
2024-10-13 15:15:47			0	39542	0	0	0	21690	20280	156206	27396	1056848	46325	107966	0	0	8297	505276	0	0
2024-10-13 15:16:47			0	39613	0	0	0	21722	20270	156006	27583	1056883	46302	107978	0	0	8300	502651	0	0
2024-10-13 15:17:47			0	39615	0	0	0	21698	20280	155898	27623	1056874	46325	107969	0	0	8301	502549	0	0
2024-10-13 15:18:47			0	39564	0	0	0	21685	20270	156154	27621	1056874	46312	107964	0	0	8298	504481	0	0
2024-10-13 15:19:47			0	39571	0	0	0	21706	20270	156086	27500	1056883	46324	107972	0	0	8298	504219	0	0
2024-10-13 15:20:47			0	39594	0	0	0	21693	20280	156114	27783	1056892	46314	107967	0	0	8300	503332	0	0
2024-10-13 15:21:47			0	39559	0	0	0	21677	20280	156190	27640	1056865	46314	107961	0	0	8298	504640	0	0
2024-10-13 15:22:47			0	39506	0	0	0	21683	20280	156350	27680	1056812	46325	107963	0	0	8295	506624	0	0
2024-10-13 15:23:47			0	39493	0	0	0	21680	20290	156450	27685	1056857	46325	107962	0	0	8294	507083	0	0
2024-10-13 15:24:47			0	39504	0	0	0	21680	20290	156366	27602	1056857	46335	107962	0	0	8295	506671	0	0
2024-10-13 15:25:47			0	39465	0	0	0	21683	20280	156442	27535	1056839	46325	107963	0	0	8292	508161	0	0
2024-10-13 15:26:47			0	39522	0	0	0	21696	20280	156326	27258	1056848	46314	107968	0	0	8295	506024	0	0
2024-10-13 15:27:47			0	39517	0	0	0	21716	20280	156242	27256	1056839	46314	107976	0	0	8295	506212	0	0
2024-10-13 15:28:47			0	39565	0	0	0	21719	20280	156002	27222	1056892	46325	107977	0	0	8298	504416	0	0
2024-10-13 15:29:47			0	39580	0	0	0	21690	20280	156010	27161	1056901	46325	107966	0	0	8299	503855	0	0
2024-10-13 15:30:47			0	39561	0	0	0	21698	20280	156178	27246	1056892	46314	107969	0	0	8298	504565	0	0
2024-10-13 15:31:47			0	39526	0	0	0	21680	20290	156170	27313	1056857	46325	107962	0	0	8296	505847	0	0
2024-10-13 15:32:47			0	39484	0	0	0	21662	20280	156474	27350	1056786	46303	107955	0	0	8294	507448	0	0
2024-10-13 15:33:47			0	39460	0	0	0	21685	20280	156554	27448	1056892	46325	107964	0	0	8292	508349	0	0
2024-10-13 15:34:47			0	39516	0	0	0	21706	20270	156290	27426	1056777	46313	107972	0	0	8295	506277	0	0
2024-10-13 15:35:47			0	39553	0	0	0	21722	20290	156146	27396	1056857	46335	107978	0	0	8297	504836	0	0
2024-10-13 15:36:47			0	39552	0	0	0	21688	20290	156210	27249	1056963	46314	107965	0	0	8297	504874	0	0
2024-10-13 15:37:47			0	39590	0	0	0	21727	20290	156030	27291	1056919	46326	107980	0	0	8299	503454	0	0
2024-10-13 15:38:47			0	39623	0	0	0	21719	20300	155962	27360	1056928	46337	107977	0	0	8301	502195	0	0
2024-10-13 15:39:47			0	39672	0	0	0	21727	20280	155682	27175	1056945	46335	107980	0	0	8304	500425	0	0
2024-10-13 15:40:47			0	39704	0	0	0	21719	20280	155670	27322	1056901	46314	107977	0	0	8306	499236	0	0
2024-10-13 15:41:47			0	39686	0	0	0	21714	20290	155694	27282	1056999	46326	107975	0	0	8305	499877	0	0
2024-10-13 15:42:47			0	39641	0	0	0	21698	20290	155846	27672	1056963	46325	107969	0	0	8302	501552	0	0
2024-10-13 15:43:47			0	39556	0	0	0	21680	20290	156054	27185	1056883	46325	107962	0	0	8298	504724	0	0
2024-10-13 15:44:47			0	39516	0	0	0	21675	20290	156350	27261	1056910	46314	107960	0	0	8295	506221	0	0
2024-10-13 15:45:47			0	39500	0	0	0	21683	20290	156362	27403	1056945	46326	107963	0	0	8294	506821	0	0
2024-10-13 15:46:47			0	39547	0	0	0	21703	20290	156170	27222	1056839	46326	107971	0	0	8297	505061	0	0
2024-10-13 15:47:47			0	39532	0	0	0	21709	20290	156294	27371	1056892	46315	107973	0	0	8296	505622	0	0
2024-10-13 15:48:47			0	39669	0	0	0	21750	20290	155742	27327	1056910	46314	107989	0	0	8303	500509	0	0
2024-10-13 15:49:47			0	39734	0	0	0	21732	20290	155422	27405	1056963	46325	107982	0	0	8307	498094	0	0
2024-10-13 15:50:47			0	39806	0	0	0	21755	20290	155174	27422	1056936	46325	107991	0	0	8311	495426	0	0
2024-10-13 15:51:47			0	39892	0	0	0	21742	20290	154978	27524	1057016	46346	107986	0	0	8316	492250	0	0
2024-10-13 15:52:47			0	39935	0	0	0	21753	20300	154790	27416	1057034	46327	107990	0	0	8318	490639	0	0
2024-10-13 15:53:47			0	39912	0	0	0	21737	20290	154786	27326	1057052	46315	107984	0	0	8317	491513	0	0
2024-10-13 15:54:47			0	39868	0	0	0	21714	20300	154958	27012	1056990	46348	107975	0	0	8315	493108	0	0
2024-10-13 15:55:47			0	39735	0	0	0	21672	20300	155406	27282	1056910	46327	107959	0	0	8308	498029	0	0
2024-10-13 15:56:47			0	39611	0	0	0	21664	20300	155826	27433	1056875	46316	107956	0	0	8301	502643	0	0
2024-10-13 15:57:47			0	39582	0	0	0	21677	20280	156014	27396	1056901	46314	107961	0	0	8299	503781	0	0
2024-10-13 15:58:47			0	39560	0	0	0	21696	20300	156126	27428	1056928	46305	107968	0	0	8298	504547	0	0
2024-10-13 15:59:47			0	39559	0	0	0	21683	20280	156098	27341	1056848	46314	107963	0	0	8298	504640	0	0
2024-10-13 16:00:47			0	39509	0	0	0	21677	20280	156190	27582	1056848	46314	107961	0	0	8295	506511	0	0
2024-10-13 16:01:47			0	39468	0	0	0	21651	20270	156498	27277	1056856	46302	107951	0	0	8293	508077	0	0
2024-10-13 16:02:47			0	39391	0	0	0	21636	20270	156825	27474	1056777	46302	107945	0	0	8289	510972	0	0
2024-10-13 16:03:47			0	39349	0	0	0	21667	20270	156813	27336	1056821	46300	107957	0	0	8286	512555	0	0
2024-10-13 16:04:47			0	39348	0	0	0	21649	20280	156885	27575	1056839	46303	107950	0	0	8286	512564	0	0
2024-10-13 16:05:47			0	39322	0	0	0	21659	20270	156985	26984	1056794	46300	107954	0	0	8284	513574	0	0
2024-10-13 16:06:47			0	39301	0	0	0	21657	20270	157129	27575	1056821	46323	107953	0	0	8283	514367	0	0
2024-10-13 16:07:47			0	39261	0	0	0	21636	20260	157333	27298	1056785	46323	107945	0	0	8281	515909	0	0
2024-10-13 16:08:47			0	39269	0	0	0	21646	20260	157265	27412	1056723	46323	107949	0	0	8282	515606	0	0
2024-10-13 16:09:47			0	39303	0	0	0	21685	20250	157257	27235	1056741	46322	107964	0	0	8283	514348	0	0
2024-10-13 16:10:47			0	39272	0	0	0	21654	20260	157109	27209	1056732	46323	107952	0	0	8282	515492	0	0
2024-10-13 16:11:47			0	39284	0	0	0	21654	20260	157121	27346	1056750	46333	107952	0	0	8282	515038	0	0
2024-10-13 16:12:47			0	39269	0	0	0	21672	20270	157221	27319	1056768	46312	107959	0	0	8281	515577	0	0
2024-10-13 16:13:47			0	39359	0	0	0	21677	20260	156953	27436	1056785	46312	107961	0	0	8286	512206	0	0
2024-10-13 16:14:47			0	39365	0	0	0	21667	20260	156909	27367	1056803	46323	107957	0	0	8287	511979	0	0
2024-10-13 16:15:47			0	39358	0	0	0	21672	20270	156961	27339	1056803	46334	107959	0	0	8286	512215	0	0
2024-10-13 16:16:47			0	39413	0	0	0	21696	20260	156690	27284	1056785	46312	107968	0	0	8289	510172	0	0
2024-10-13 16:17:47			0	39442	0	0	0	21670	20270	156710	27412	1056883	46324	107958	0	0	8291	509053	0	0
2024-10-13 16:18:47			0	39380	0	0	0	21646	20270	156797	27242	1056856	46313	107949	0	0	8288	511386	0	0
2024-10-13 16:19:47			0	39418	0	0	0	21690	20260	156709	27393	1056830	46323	107966	0	0	8289	509984	0	0
2024-10-13 16:20:47			0	39424	0	0	0	21680	20270	156802	27112	1056803	46302	107962	0	0	8290	509730	0	0
2024-10-13 16:21:47			0	39378	0	0	0	21664	20270	156789	27587	1056821	46312	107956	0	0	8288	511461	0	0
2024-10-13 16:22:47			0	39450	0	0	0	21698	20260	156650	27348	1056830	46323	107969	0	0	8291	508781	0	0
2024-10-13 16:23:47			0	39507	0	0	0	21680	20260	156422	27348	1056838	46323	107962	0	0	8295	506642	0	0
2024-10-13 16:24:47			0	39477	0	0	0	21677	20270	156530	27429	1056847	46323	107961	0	0	8293	507739	0	0
2024-10-13 16:25:47			0	39464	0	0	0	21680	20270	156630	27284	1056830	46324	107962	0	0	8292	508227	0	0
2024-10-13 16:26:47			0	39531	0	0	0	21709	20260	156286	27213	1056803	46323	107973	0	0	8296	505743	0	0
2024-10-13 16:27:47			0	39522	0	0	0	21685	20270	156366	27203	1056847	46312	107964	0	0	8296	506052	0	0
2024-10-13 16:28:47			0	39583	0	0	0	21714	20280	156158	27433	1056839	46314	107975	0	0	8299	503743	0	0
2024-10-13 16:29:47			0	39582	0	0	0	21664	20280	156098	27369	1056918	46314	107956	0	0	8299	503781	0	0
2024-10-13 16:30:47			0	39520	0	0	0	21675	20280	156358	27476	1056865	46325	107960	0	0	8296	506099	0	0
2024-10-13 16:31:47			0	39462	0	0	0	21667	20280	156554	27216	1056892	46314	107957	0	0	8292	508274	0	0
2024-10-13 16:32:47			0	39433	0	0	0	21657	20260	156630	27234	1056732	46312	107953	0	0	8291	509420	0	0
2024-10-13 16:33:47			0	39413	0	0	0	21654	20260	156737	27111	1056776	46312	107952	0	0	8290	510172	0	0
2024-10-13 16:34:47			0	39415	0	0	0	21672	20260	156722	27362	1056803	46312	107959	0	0	8290	510096	0	0
2024-10-13 16:35:47			0	39387	0	0	0	21654	20270	156789	27204	1056847	46323	107952	0	0	8288	511122	0	0
2024-10-13 16:36:47			0	39363	0	0	0	21667	20260	156869	27093	1056785	46300	107957	0	0	8287	512055	0	0
2024-10-13 16:37:47			0	39435	0	0	0	21680	20250	156750	27454	1056767	46311	107962	0	0	8291	509372	0	0
2024-10-13 16:38:47			0	39484	0	0	0	21690	20260	156510	27239	1056776	46323	107966	0	0	8293	507504	0	0
2024-10-13 16:39:47			0	39570	0	0	0	21703	20260	156258	27369	1056803	46323	107971	0	0	8298	504285	0	0
2024-10-13 16:40:47			0	39590	0	0	0	21688	20260	155982	27365	1056838	46344	107965	0	0	8299	503537	0	0
2024-10-13 16:41:47			0	39596	0	0	0	21701	20260	156038	27170	1056865	46312	107970	0	0	8300	503313	0	0
2024-10-13 16:42:47			0	39542	0	0	0	21657	20260	156234	27102	1056830	46312	107953	0	0	8297	505332	0	0
2024-10-13 16:43:47			0	39452	0	0	0	21654	20270	156602	27412	1056821	46312	107952	0	0	8292	508678	0	0
2024-10-13 16:44:47			0	39448	0	0	0	21667	20260	156522	27194	1056732	46312	107957	0	0	8292	508856	0	0
2024-10-13 16:45:47			0	39489	0	0	0	21685	20250	156514	27126	1056767	46322	107964	0	0	8294	507345	0	0
2024-10-13 16:46:47			0	39468	0	0	0	21670	20250	156562	27448	1056821	46311	107958	0	0	8293	508133	0	0
2024-10-13 16:47:47			0	39418	0	0	0	21654	20250	156701	27426	1056767	46311	107952	0	0	8290	510012	0	0
2024-10-13 16:48:47			0	39366	0	0	0	21654	20250	156909	27315	1056688	46299	107952	0	0	8287	511970	0	0
2024-10-13 16:49:47			0	39349	0	0	0	21657	20250	156817	27348	1056714	46311	107953	0	0	8286	512611	0	0
2024-10-13 16:50:47			0	39309	0	0	0	21651	20240	157065	27379	1056705	46321	107951	0	0	8284	514150	0	0
2024-10-13 16:51:47			0	39326	0	0	0	21667	20240	156981	27320	1056696	46297	107957	0	0	8284	513508	0	0
2024-10-13 16:52:47			0	39337	0	0	0	21659	20240	156965	27256	1056749	46309	107954	0	0	8285	513092	0	0
2024-10-13 16:53:47			0	39355	0	0	0	21672	20260	156989	27140	1056750	46312	107959	0	0	8286	512356	0	0
2024-10-13 16:54:47			0	39424	0	0	0	21677	20250	156678	27078	1056794	46311	107961	0	0	8290	509786	0	0
2024-10-13 16:55:47			0	39462	0	0	0	21675	20240	156534	27159	1056679	46332	107960	0	0	8292	508386	0	0
2024-10-13 16:56:47			0	39493	0	0	0	21675	20250	156454	27357	1056714	46322	107960	0	0	8294	507195	0	0
2024-10-13 16:57:47			0	39463	0	0	0	21664	20240	156522	27620	1056732	46321	107956	0	0	8292	508349	0	0
2024-10-13 16:58:47			0	39447	0	0	0	21664	20240	156634	27244	1056679	46310	107956	0	0	8291	508950	0	0
2024-10-13 16:59:47			0	39393	0	0	0	21664	20240	156861	27019	1056679	46321	107956	0	0	8288	510981	0	0
2024-10-13 17:00:47			0	39413	0	0	0	21670	20250	156681	27142	1056741	46311	107958	0	0	8289	510200	0	0
2024-10-13 17:01:47			0	39400	0	0	0	21677	20240	156705	27152	1056723	46320	107961	0	0	8289	510717	0	0
2024-10-13 17:02:47			0	39451	0	0	0	21690	20240	156662	27246	1056723	46320	107966	0	0	8291	508799	0	0
2024-10-13 17:03:47			0	39459	0	0	0	21672	20240	156574	27157	1056785	46321	107959	0	0	8292	508499	0	0
2024-10-13 17:04:47			0	39439	0	0	0	21670	20250	156650	27170	1056794	46322	107958	0	0	8291	509222	0	0
2024-10-13 17:05:47			0	39417	0	0	0	21670	20260	156633	27331	1056679	46323	107958	0	0	8290	510021	0	0
2024-10-13 17:06:47			0	39383	0	0	0	21667	20260	156905	27015	1056697	46312	107957	0	0	8288	511301	0	0
2024-10-13 17:07:47			0	39395	0	0	0	21664	20240	156853	27242	1056625	46321	107956	0	0	8288	510906	0	0
2024-10-13 17:08:47			0	39371	0	0	0	21651	20240	156981	27280	1056670	46320	107951	0	0	8287	511810	0	0
2024-10-13 17:09:47			0	39315	0	0	0	21641	20240	157213	27260	1056732	46310	107947	0	0	8284	513923	0	0
2024-10-13 17:10:47			0	39304	0	0	0	21646	20240	157221	27178	1056723	46297	107949	0	0	8283	514339	0	0
2024-10-13 17:11:47			0	39320	0	0	0	21662	20230	157077	27185	1056625	46309	107955	0	0	8284	513763	0	0
2024-10-13 17:12:47			0	39349	0	0	0	21664	20220	157005	27388	1056563	46308	107956	0	0	8286	512696	0	0
2024-10-13 17:13:47			0	39388	0	0	0	21667	20230	156865	27320	1056714	46320	107957	0	0	8288	511197	0	0
2024-10-13 17:14:47			0	39405	0	0	0	21672	20240	156909	27286	1056696	46309	107959	0	0	8289	510529	0	0
2024-10-13 17:15:47			0	39394	0	0	0	21657	20230	156845	27419	1056732	46320	107953	0	0	8288	510971	0	0
2024-10-13 17:16:47			0	39384	0	0	0	21664	20250	156993	26968	1056794	46322	107956	0	0	8288	511292	0	0
2024-10-13 17:17:47			0	39338	0	0	0	21641	20240	157145	27097	1056670	46320	107947	0	0	8286	513054	0	0
2024-10-13 17:18:47			0	39258	0	0	0	21623	20230	157389	27402	1056661	46309	107940	0	0	8281	516108	0	0
2024-10-13 17:19:47			0	39207	0	0	0	21644	20230	157637	27251	1056661	46309	107948	0	0	8278	518042	0	0
2024-10-13 17:20:47			0	39205	0	0	0	21628	20230	157497	27128	1056687	46320	107942	0	0	8278	518118	0	0
2024-10-13 17:21:47			0	39181	0	0	0	21631	20220	157637	27255	1056643	46308	107943	0	0	8277	519058	0	0
2024-10-13 17:22:47			0	39167	0	0	0	21628	20230	157681	27329	1056705	46309	107942	0	0	8276	519562	0	0
2024-10-13 17:23:47			0	39149	0	0	0	21631	20230	157765	27059	1056599	46309	107943	0	0	8275	520246	0	0
2024-10-13 17:24:47			0	39137	0	0	0	21636	20230	157789	26859	1056599	46320	107945	0	0	8274	520703	0	0
2024-10-13 17:25:47			0	39174	0	0	0	21625	20220	157725	27246	1056607	46295	107941	0	0	8276	519324	0	0
2024-10-13 17:26:47			0	39130	0	0	0	21631	20220	157921	27365	1056669	46330	107943	0	0	8274	520998	0	0
2024-10-13 17:27:47			0	39091	0	0	0	21607	20220	158029	27024	1056607	46307	107934	0	0	8272	522485	0	0
2024-10-13 17:28:47			0	39071	0	0	0	21620	20220	158209	27300	1056581	46307	107939	0	0	8270	523248	0	0
2024-10-13 17:29:47			0	39083	0	0	0	21646	20210	158201	26994	1056598	46307	107949	0	0	8271	522819	0	0
2024-10-13 17:30:47			0	39143	0	0	0	21649	20220	157925	27248	1056581	46307	107950	0	0	8274	520503	0	0
2024-10-13 17:31:47			0	39183	0	0	0	21651	20220	157741	27228	1056660	46307	107951	0	0	8276	518982	0	0
2024-10-13 17:32:47			0	39223	0	0	0	21651	20210	157549	26993	1056589	46307	107951	0	0	8279	517492	0	0
2024-10-13 17:33:47			0	39194	0	0	0	21638	20220	157673	26894	1056616	46319	107946	0	0	8277	518564	0	0
2024-10-13 17:34:47			0	39186	0	0	0	21641	20220	157777	27374	1056616	46308	107947	0	0	8277	518868	0	0
2024-10-13 17:35:47			0	39175	0	0	0	21641	20210	157677	27053	1056571	46307	107947	0	0	8276	519315	0	0
2024-10-13 17:36:47			0	39179	0	0	0	21628	20210	157805	27502	1056571	46318	107942	0	0	8276	519163	0	0
2024-10-13 17:37:47			0	39157	0	0	0	21636	20210	157681	27261	1056625	46307	107945	0	0	8275	519999	0	0
2024-10-13 17:38:47			0	39170	0	0	0	21641	20200	157809	27417	1056527	46306	107947	0	0	8276	519533	0	0
2024-10-13 17:39:47			0	39174	0	0	0	21646	20210	157645	27237	1056562	46318	107949	0	0	8276	519353	0	0
2024-10-13 17:40:47			0	39158	0	0	0	21628	20210	157773	27249	1056536	46307	107942	0	0	8275	519961	0	0
2024-10-13 17:41:47			0	39150	0	0	0	21625	20210	157849	27201	1056616	46318	107941	0	0	8275	520265	0	0
2024-10-13 17:42:47			0	39137	0	0	0	21615	20200	157833	27249	1056527	46317	107937	0	0	8274	520789	0	0
2024-10-13 17:43:47			0	39097	0	0	0	21623	20210	157973	27270	1056571	46307	107940	0	0	8272	522285	0	0
2024-10-13 17:44:47			0	39101	0	0	0	21636	20200	157973	27588	1056527	46306	107945	0	0	8272	522161	0	0
2024-10-13 17:45:47			0	39127	0	0	0	21631	20210	157997	27351	1056642	46318	107943	0	0	8273	521141	0	0
2024-10-13 17:46:47			0	39152	0	0	0	21649	20200	157857	27300	1056474	46317	107950	0	0	8274	520218	0	0
2024-10-13 17:47:47			0	39168	0	0	0	21641	20210	157821	27455	1056598	46318	107947	0	0	8276	519581	0	0
2024-10-13 17:48:47			0	39165	0	0	0	21636	20210	157805	27213	1056562	46307	107945	0	0	8275	519695	0	0
2024-10-13 17:49:47			0	39145	0	0	0	21636	20210	157765	27319	1056589	46329	107945	0	0	8274	520456	0	0
2024-10-13 17:50:47			0	39125	0	0	0	21628	20210	157829	27083	1056625	46329	107942	0	0	8273	521218	0	0
2024-10-13 17:51:47			0	39092	0	0	0	21628	20210	157921	27495	1056589	46307	107942	0	0	8271	522476	0	0
2024-10-13 17:52:47			0	39097	0	0	0	21636	20200	158041	27052	1056580	46317	107945	0	0	8271	522314	0	0
2024-10-13 17:53:47			0	39121	0	0	0	21638	20210	157985	27289	1056616	46318	107946	0	0	8273	521370	0	0
2024-10-13 17:54:47			0	39128	0	0	0	21631	20200	157921	27407	1056571	46316	107943	0	0	8273	521132	0	0
2024-10-13 17:55:47			0	39135	0	0	0	21628	20210	157885	27300	1056536	46307	107942	0	0	8274	520837	0	0
2024-10-13 17:56:47			0	39130	0	0	0	21631	20210	157869	27263	1056589	46318	107943	0	0	8274	521027	0	0
2024-10-13 17:57:47			0	39122	0	0	0	21633	20200	157937	27381	1056571	46316	107944	0	0	8273	521361	0	0
2024-10-13 17:58:47			0	39120	0	0	0	21628	20200	158033	27647	1056571	46327	107942	0	0	8273	521437	0	0
2024-10-13 17:59:47			0	39083	0	0	0	21631	20200	158001	27481	1056474	46317	107943	0	0	8271	522848	0	0
2024-10-13 18:00:47			0	39092	0	0	0	21623	20200	158029	27204	1056545	46305	107940	0	0	8271	522505	0	0
2024-10-13 18:01:47			0	39103	0	0	0	21633	20200	158077	27379	1056518	46316	107944	0	0	8272	522085	0	0
2024-10-13 18:02:47			0	39095	0	0	0	21633	20200	158017	27180	1056545	46316	107944	0	0	8271	522390	0	0
2024-10-13 18:03:47			0	39096	0	0	0	21638	20200	158101	27255	1056500	46306	107946	0	0	8271	522352	0	0
2024-10-13 18:04:47			0	39088	0	0	0	21631	20190	158161	27315	1056509	46316	107943	0	0	8271	522686	0	0
2024-10-13 18:05:47			0	39059	0	0	0	21631	20200	158161	27192	1056545	46316	107943	0	0	8269	523765	0	0
2024-10-13 18:06:47			0	39053	0	0	0	21636	20190	158241	27039	1056482	46316	107945	0	0	8269	524023	0	0
2024-10-13 18:07:47			0	39036	0	0	0	21628	20200	158241	27267	1056607	46306	107942	0	0	8268	524644	0	0
2024-10-13 18:08:47			0	39051	0	0	0	21631	20200	158289	27402	1056545	46305	107943	0	0	8269	524070	0	0
2024-10-13 18:09:47			0	39001	0	0	0	21625	20200	158377	27248	1056527	46328	107941	0	0	8266	525983	0	0
2024-10-13 18:10:47			0	39001	0	0	0	21628	20200	158513	27289	1056527	46306	107942	0	0	8266	525983	0	0
2024-10-13 18:11:47			0	38975	0	0	0	21631	20200	158473	26972	1056491	46305	107943	0	0	8264	526980	0	0
2024-10-13 18:12:47			0	38963	0	0	0	21615	20200	158493	27289	1056545	46316	107937	0	0	8264	527440	0	0
2024-10-13 18:13:47			0	38983	0	0	0	21615	20190	158525	27168	1056615	46316	107937	0	0	8265	526702	0	0
2024-10-13 18:14:47			0	38972	0	0	0	21625	20200	158473	27294	1056500	46317	107941	0	0	8264	527095	0	0
2024-10-13 18:15:47			0	38978	0	0	0	21633	20190	158577	27189	1056536	46316	107944	0	0	8265	526894	0	0
2024-10-13 18:16:47			0	38989	0	0	0	21623	20200	158601	27305	1056491	46316	107940	0	0	8265	526443	0	0
2024-10-13 18:17:47			0	38958	0	0	0	21625	20190	158629	27183	1056527	46305	107941	0	0	8264	527661	0	0
2024-10-13 18:18:47			0	38964	0	0	0	21618	20190	158533	27287	1056562	46316	107938	0	0	8264	527431	0	0
2024-10-13 18:19:47			0	38957	0	0	0	21620	20180	158577	27424	1056509	46314	107939	0	0	8264	527729	0	0
2024-10-13 18:20:47			0	38953	0	0	0	21618	20200	158537	26977	1056518	46305	107938	0	0	8263	527824	0	0
2024-10-13 18:21:47			0	38947	0	0	0	21623	20190	158645	27372	1056500	46305	107940	0	0	8263	528083	0	0
2024-10-13 18:22:47			0	38919	0	0	0	21618	20190	158693	27076	1056527	46316	107938	0	0	8261	529159	0	0
2024-10-13 18:23:47			0	38897	0	0	0	21615	20180	158741	26819	1056438	46304	107937	0	0	8260	530034	0	0
2024-10-13 18:24:47			0	38903	0	0	0	21615	20190	158781	27287	1056509	46327	107937	0	0	8261	529774	0	0
2024-10-13 18:25:47			0	38888	0	0	0	21620	20190	158925	27360	1056482	46305	107939	0	0	8260	530352	0	0
2024-10-13 18:26:47			0	38876	0	0	0	21612	20190	158877	27142	1056500	46327	107936	0	0	8259	530814	0	0
2024-10-13 18:27:47			0	38885	0	0	0	21618	20180	158917	27119	1056482	46314	107938	0	0	8259	530496	0	0
2024-10-13 18:28:47			0	38874	0	0	0	21620	20190	158945	27095	1056473	46316	107939	0	0	8259	530891	0	0
2024-10-13 18:29:47			0	38878	0	0	0	21618	20180	159045	27048	1056509	46303	107938	0	0	8259	530766	0	0
2024-10-13 18:30:47			0	38856	0	0	0	21607	20180	158961	27223	1056518	46315	107934	0	0	8258	531614	0	0
2024-10-13 18:31:47			0	38863	0	0	0	21618	20190	159073	26944	1056482	46293	107938	0	0	8258	531315	0	0
2024-10-13 18:32:47			0	38854	0	0	0	21607	20190	159097	27367	1056447	46316	107934	0	0	8258	531661	0	0
2024-10-13 18:33:47			0	38868	0	0	0	21612	20180	158989	27095	1056465	46315	107936	0	0	8258	531151	0	0
2024-10-13 18:34:47			0	38869	0	0	0	21607	20190	159109	27168	1056473	46316	107934	0	0	8259	531083	0	0
2024-10-13 18:35:47			0	38867	0	0	0	21610	20190	159001	27282	1056473	46316	107935	0	0	8259	531160	0	0
2024-10-13 18:36:47			0	38865	0	0	0	21605	20190	159125	27277	1056473	46316	107933	0	0	8258	531237	0	0
2024-10-13 18:37:47			0	38866	0	0	0	21615	20180	159029	26896	1056438	46326	107937	0	0	8258	531228	0	0
2024-10-13 18:38:47			0	38841	0	0	0	21615	20180	159065	26927	1056429	46314	107937	0	0	8257	532192	0	0
2024-10-13 18:39:47			0	38828	0	0	0	21615	20180	159121	27147	1056456	46303	107937	0	0	8256	532694	0	0
2024-10-13 18:40:47			0	38826	0	0	0	21605	20180	159117	27086	1056429	46314	107933	0	0	8256	532771	0	0
2024-10-13 18:41:47			0	38818	0	0	0	21605	20170	159141	27144	1056447	46325	107933	0	0	8256	533109	0	0
2024-10-13 18:42:47			0	38810	0	0	0	21610	20180	159237	27166	1056429	46314	107935	0	0	8255	533389	0	0
2024-10-13 18:43:47			0	38794	0	0	0	21605	20170	159193	26913	1056438	46313	107933	0	0	8254	534036	0	0
2024-10-13 18:44:47			0	38782	0	0	0	21607	20180	159357	26935	1056429	46303	107934	0	0	8254	534471	0	0
2024-10-13 18:45:47			0	38770	0	0	0	21607	20170	159461	26989	1056447	46314	107934	0	0	8253	534964	0	0
2024-10-13 18:46:47			0	38761	0	0	0	21607	20170	159441	26993	1056447	46314	107934	0	0	8252	535313	0	0
2024-10-13 18:47:47			0	38763	0	0	0	21607	20180	159381	27409	1056402	46314	107934	0	0	8252	535206	0	0
2024-10-13 18:48:47			0	38768	0	0	0	21607	20170	159349	27313	1056385	46313	107934	0	0	8253	535042	0	0
2024-10-13 18:49:47			0	38754	0	0	0	21607	20170	159405	27066	1056411	46313	107934	0	0	8252	535584	0	0
2024-10-13 18:50:47			0	38758	0	0	0	21602	20170	159465	27334	1056438	46313	107932	0	0	8252	535429	0	0
2024-10-13 18:51:47			0	38764	0	0	0	21610	20170	159337	27116	1056420	46314	107935	0	0	8252	535197	0	0
2024-10-13 18:52:47			0	38773	0	0	0	21599	20170	159417	26955	1056385	46324	107931	0	0	8253	534848	0	0
2024-10-13 18:53:47			0	38739	0	0	0	21602	20170	159525	27490	1056447	46314	107932	0	0	8251	536165	0	0
2024-10-13 18:54:47			0	38727	0	0	0	21607	20170	159677	27230	1056393	46303	107934	0	0	8250	536630	0	0
2024-10-13 18:55:47			0	38698	0	0	0	21597	20170	159720	27072	1056367	46303	107930	0	0	8249	537755	0	0
2024-10-13 18:56:47			0	38675	0	0	0	21592	20170	159732	26783	1056438	46302	107928	0	0	8248	538648	0	0
2024-10-13 18:57:47			0	38637	0	0	0	21597	20170	159836	26993	1056420	46314	107930	0	0	8245	540126	0	0
2024-10-13 18:58:47			0	38633	0	0	0	21592	20160	159808	26948	1056402	46302	107928	0	0	8245	540312	0	0
2024-10-13 18:59:47			0	38648	0	0	0	21599	20160	159852	26819	1056402	46313	107931	0	0	8246	539728	0	0
2024-10-13 19:00:47			0	38649	0	0	0	21599	20160	159820	26857	1056420	46312	107931	0	0	8246	539689	0	0
2024-10-13 19:01:47			0	38636	0	0	0	21602	20170	159800	26887	1056438	46302	107932	0	0	8245	540165	0	0
2024-10-13 19:02:47			0	38631	0	0	0	21607	20150	159896	27185	1056358	46311	107934	0	0	8245	540419	0	0
2024-10-13 19:03:47			0	38644	0	0	0	21599	20160	159872	27062	1056429	46313	107931	0	0	8246	539883	0	0
2024-10-13 19:04:47			0	38656	0	0	0	21594	20160	159756	26963	1056349	46302	107929	0	0	8246	539417	0	0
2024-10-13 19:05:47			0	38628	0	0	0	21589	20170	159832	27345	1056411	46313	107927	0	0	8245	540476	0	0
2024-10-13 19:06:47			0	38618	0	0	0	21589	20160	159840	27024	1056402	46313	107927	0	0	8244	540896	0	0
2024-10-13 19:07:47			0	38621	0	0	0	21599	20160	159904	27152	1056349	46302	107931	0	0	8244	540779	0	0
2024-10-13 19:08:47			0	38606	0	0	0	21589	20160	159808	27079	1056376	46313	107927	0	0	8244	541363	0	0
2024-10-13 19:09:47			0	38602	0	0	0	21589	20160	159924	27367	1056393	46312	107927	0	0	8243	541519	0	0
2024-10-13 19:10:47			0	38599	0	0	0	21592	20160	159956	26984	1056393	46312	107928	0	0	8243	541636	0	0
2024-10-13 19:11:47			0	38596	0	0	0	21594	20170	160020	27022	1056393	46303	107929	0	0	8243	541723	0	0
2024-10-13 19:12:47			0	38599	0	0	0	21592	20160	160120	26998	1056420	46312	107928	0	0	8243	541636	0	0
2024-10-13 19:13:47			0	38571	0	0	0	21594	20160	160112	27008	1056367	46312	107929	0	0	8241	542728	0	0
2024-10-13 19:14:47			0	38569	0	0	0	21586	20160	160112	27197	1056313	46312	107926	0	0	8241	542806	0	0
2024-10-13 19:15:47			0	38568	0	0	0	21589	20160	160020	26871	1056349	46291	107927	0	0	8241	542845	0	0
2024-10-13 19:16:47			0	38564	0	0	0	21586	20160	160108	27109	1056349	46313	107926	0	0	8241	543002	0	0
2024-10-13 19:17:47			0	38566	0	0	0	21599	20160	160124	26961	1056420	46312	107931	0	0	8241	542924	0	0
2024-10-13 19:18:47			0	38568	0	0	0	21586	20160	160144	27026	1056367	46312	107926	0	0	8241	542845	0	0
2024-10-13 19:19:47			0	38554	0	0	0	21586	20150	160220	27119	1056322	46322	107926	0	0	8241	543422	0	0
2024-10-13 19:20:47			0	38543	0	0	0	21584	20150	160220	27234	1056251	46311	107925	0	0	8240	543852	0	0
2024-10-13 19:21:47			0	38550	0	0	0	21581	20150	160164	27393	1056305	46311	107924	0	0	8240	543578	0	0
2024-10-13 19:22:47			0	38567	0	0	0	21581	20150	160188	27234	1056358	46289	107924	0	0	8241	542914	0	0
2024-10-13 19:23:47			0	38540	0	0	0	21573	20150	160200	27417	1056322	46311	107921	0	0	8240	543969	0	0
2024-10-13 19:24:47			0	38555	0	0	0	21573	20150	160204	27467	1056384	46300	107921	0	0	8241	543383	0	0
2024-10-13 19:25:47			0	38557	0	0	0	21576	20150	160096	27460	1056242	46311	107922	0	0	8241	543305	0	0
2024-10-13 19:26:47			0	38556	0	0	0	21573	20150	160188	27580	1056242	46311	107921	0	0	8241	543344	0	0
2024-10-13 19:27:47			0	38560	0	0	0	21579	20130	160280	27486	1056242	46297	107923	0	0	8241	543248	0	0
2024-10-13 19:28:47			0	38573	0	0	0	21571	20140	160200	27104	1056304	46310	107920	0	0	8242	542710	0	0
2024-10-13 19:29:47			0	38582	0	0	0	21576	20150	160164	27208	1056296	46311	107922	0	0	8242	542329	0	0
2024-10-13 19:30:47			0	38576	0	0	0	21568	20140	160144	27064	1056251	46310	107919	0	0	8242	542593	0	0
2024-10-13 19:31:47			0	38602	0	0	0	21584	20130	160032	27220	1056260	46297	107925	0	0	8243	541609	0	0
2024-10-13 19:32:47			0	38607	0	0	0	21576	20150	159900	27022	1056322	46311	107922	0	0	8244	541354	0	0
2024-10-13 19:33:47			0	38613	0	0	0	21581	20130	159868	27415	1056295	46309	107924	0	0	8244	541180	0	0
2024-10-13 19:34:47			0	38651	0	0	0	21579	20130	159904	27022	1056295	46331	107923	0	0	8246	539700	0	0
2024-10-13 19:35:47			0	38702	0	0	0	21581	20140	159756	27015	1056278	46310	107924	0	0	8249	537689	0	0
2024-10-13 19:36:47			0	38712	0	0	0	21573	20140	159720	26899	1056366	46300	107921	0	0	8250	537301	0	0
2024-10-13 19:37:47			0	38715	0	0	0	21579	20140	159496	26961	1056304	46321	107923	0	0	8250	537184	0	0
2024-10-13 19:38:47			0	38719	0	0	0	21576	20130	159592	26970	1056269	46320	107922	0	0	8250	537059	0	0
2024-10-13 19:39:47			0	38700	0	0	0	21581	20140	159636	27216	1056225	46321	107924	0	0	8249	537766	0	0
2024-10-13 19:40:47			0	38678	0	0	0	21568	20130	159628	27298	1056286	46309	107919	0	0	8248	538650	0	0
2024-10-13 19:41:47			0	38654	0	0	0	21561	20130	159788	27258	1056286	46320	107916	0	0	8247	539584	0	0
2024-10-13 19:42:47			0	38671	0	0	0	21563	20140	159736	27296	1056278	46310	107917	0	0	8248	538893	0	0
2024-10-13 19:43:47			0	38685	0	0	0	21573	20130	159688	27050	1056269	46297	107921	0	0	8248	538379	0	0
2024-10-13 19:44:47			0	38719	0	0	0	21568	20140	159592	27144	1056225	46321	107919	0	0	8250	537029	0	0
2024-10-13 19:45:47			0	38742	0	0	0	21566	20140	159549	27053	1056304	46298	107918	0	0	8252	536137	0	0
2024-10-13 19:46:47			0	38748	0	0	0	21573	20140	159433	27137	1056251	46310	107921	0	0	8252	535905	0	0
2024-10-13 19:47:47			0	38768	0	0	0	21576	20130	159385	27251	1056180	46320	107922	0	0	8253	535160	0	0
2024-10-13 19:48:47			0	38761	0	0	0	21573	20150	159409	27095	1056296	46322	107921	0	0	8253	535372	0	0
2024-10-13 19:49:47			0	38777	0	0	0	21566	20130	159397	27192	1056260	46309	107918	0	0	8254	534812	0	0
2024-10-13 19:50:47			0	38775	0	0	0	21573	20140	159405	27076	1056225	46310	107921	0	0	8254	534860	0	0
2024-10-13 19:51:47			0	38774	0	0	0	21573	20140	159345	27422	1056331	46298	107921	0	0	8254	534898	0	0
2024-10-13 19:52:47			0	38768	0	0	0	21571	20130	159241	27234	1056260	46297	107920	0	0	8253	535160	0	0
2024-10-13 19:53:47			0	38779	0	0	0	21563	20130	159205	27033	1056233	46297	107917	0	0	8254	534734	0	0
2024-10-13 19:54:47			0	38803	0	0	0	21576	20120	159165	27097	1056277	46320	107922	0	0	8255	533836	0	0
2024-10-13 19:55:47			0	38810	0	0	0	21576	20130	159285	27050	1056233	46309	107922	0	0	8256	533536	0	0
2024-10-13 19:56:47			0	38832	0	0	0	21571	20140	159181	27001	1056278	46310	107920	0	0	8257	532657	0	0
2024-10-13 19:57:47			0	38835	0	0	0	21579	20140	159069	27138	1056251	46310	107923	0	0	8257	532541	0	0
2024-10-13 19:58:47			0	38864	0	0	0	21573	20130	159013	27438	1056233	46320	107921	0	0	8259	531452	0	0
2024-10-13 19:59:47			0	38863	0	0	0	21576	20130	158977	27279	1056269	46309	107922	0	0	8259	531490	0	0
2024-10-13 20:00:47			0	38864	0	0	0	21571	20130	159025	27059	1056295	46309	107920	0	0	8259	531452	0	0
2024-10-13 20:01:47			0	38863	0	0	0	21566	20140	159053	27111	1056278	46332	107918	0	0	8259	531461	0	0
2024-10-13 20:02:47			0	38874	0	0	0	21576	20130	158953	26942	1056242	46309	107922	0	0	8259	531066	0	0
2024-10-13 20:03:47			0	38883	0	0	0	21563	20140	159001	27263	1056278	46310	107917	0	0	8260	530691	0	0
2024-10-13 20:04:47			0	38870	0	0	0	21555	20130	159049	26842	1056269	46320	107914	0	0	8259	531221	0	0
2024-10-13 20:05:47			0	38886	0	0	0	21568	20130	158989	27138	1056269	46297	107919	0	0	8260	530604	0	0
2024-10-13 20:06:47			0	38905	0	0	0	21558	20120	158901	26857	1056251	46309	107915	0	0	8261	529902	0	0
2024-10-13 20:07:47			0	38929	0	0	0	21566	20120	158845	27052	1056198	46297	107918	0	0	8263	528979	0	0
2024-10-13 20:08:47			0	38918	0	0	0	21568	20130	158773	26809	1056233	46309	107919	0	0	8262	529373	0	0
2024-10-13 20:09:47			0	38940	0	0	0	21555	20130	158745	27093	1056286	46309	107914	0	0	8263	528527	0	0
2024-10-13 20:10:47			0	38931	0	0	0	21558	20130	158773	26776	1056216	46331	107915	0	0	8263	528873	0	0
2024-10-13 20:11:47			0	38938	0	0	0	21555	20120	158729	27327	1056242	46308	107914	0	0	8263	528633	0	0
2024-10-13 20:12:47			0	38962	0	0	0	21555	20120	158753	27409	1056251	46320	107914	0	0	8265	527711	0	0
2024-10-13 20:13:47			0	38971	0	0	0	21563	20120	158653	27156	1056277	46309	107917	0	0	8265	527366	0	0
2024-10-13 20:14:47			0	38969	0	0	0	21555	20120	158661	27176	1056242	46319	107914	0	0	8265	527443	0	0
2024-10-13 20:15:47			0	38976	0	0	0	21576	20130	158689	27045	1056269	46320	107922	0	0	8265	527145	0	0
2024-10-13 20:16:47			0	38965	0	0	0	21568	20130	158649	26802	1056286	46297	107919	0	0	8265	527567	0	0
2024-10-13 20:17:47			0	38976	0	0	0	21568	20120	158673	26946	1056251	46297	107919	0	0	8265	527174	0	0
2024-10-13 20:18:47			0	38969	0	0	0	21563	20130	158733	26804	1056233	46309	107917	0	0	8265	527414	0	0
2024-10-13 20:19:47			0	38959	0	0	0	21563	20130	158705	27071	1056322	46309	107917	0	0	8264	527797	0	0
2024-10-13 20:20:47			0	38935	0	0	0	21558	20130	158825	27242	1056242	46320	107915	0	0	8263	528719	0	0
2024-10-13 20:21:47			0	38945	0	0	0	21563	20120	158693	27088	1056224	46309	107917	0	0	8264	528364	0	0
2024-10-13 20:22:47			0	38940	0	0	0	21566	20130	158761	27102	1056286	46320	107918	0	0	8263	528527	0	0
2024-10-13 20:23:47			0	38930	0	0	0	21571	20120	158801	27329	1056242	46308	107920	0	0	8263	528941	0	0
2024-10-13 20:24:47			0	38931	0	0	0	21550	20120	158877	27078	1056189	46330	107912	0	0	8263	528902	0	0
2024-10-13 20:25:47			0	38922	0	0	0	21548	20120	158853	27379	1056198	46320	107911	0	0	8262	529248	0	0
2024-10-13 20:26:47			0	38934	0	0	0	21553	20120	158925	27178	1056215	46297	107913	0	0	8263	528787	0	0
2024-10-13 20:27:47			0	38920	0	0	0	21563	20120	158893	26835	1056224	46309	107917	0	0	8262	529325	0	0
2024-10-13 20:28:47			0	38902	0	0	0	21548	20120	158901	27308	1056189	46286	107911	0	0	8261	530018	0	0
2024-10-13 20:29:47			0	38892	0	0	0	21553	20120	158949	27192	1056198	46309	107913	0	0	8261	530403	0	0
2024-10-13 20:30:47			0	38896	0	0	0	21555	20120	158949	26991	1056189	46308	107914	0	0	8261	530248	0	0
2024-10-13 20:31:47			0	38889	0	0	0	21553	20120	159013	27305	1056198	46309	107913	0	0	8260	530518	0	0
2024-10-13 20:32:47			0	38890	0	0	0	21545	20120	158997	27213	1056171	46287	107910	0	0	8261	530480	0	0
2024-10-13 20:33:47			0	38900	0	0	0	21545	20120	159001	27062	1056215	46297	107910	0	0	8261	530094	0	0
2024-10-13 20:34:47			0	38895	0	0	0	21545	20120	159005	27085	1056162	46319	107910	0	0	8261	530287	0	0
2024-10-13 20:35:47			0	38905	0	0	0	21545	20120	158969	27144	1056136	46308	107910	0	0	8262	529902	0	0
2024-10-13 20:36:47			0	38884	0	0	0	21550	20120	159009	26939	1056215	46308	107912	0	0	8260	530711	0	0
2024-10-13 20:37:47			0	38869	0	0	0	21550	20120	158977	27213	1056198	46309	107912	0	0	8259	531288	0	0
2024-10-13 20:38:47			0	38880	0	0	0	21545	20120	158921	27346	1056189	46308	107910	0	0	8260	530865	0	0
2024-10-13 20:39:47			0	38878	0	0	0	21548	20110	158993	27007	1056144	46296	107911	0	0	8260	530971	0	0
2024-10-13 20:40:47			0	38893	0	0	0	21553	20120	159049	26878	1056242	46297	107913	0	0	8261	530364	0	0
2024-10-13 20:41:47			0	38865	0	0	0	21553	20110	159085	27064	1056171	46307	107913	0	0	8259	531472	0	0
2024-10-13 20:42:47			0	38862	0	0	0	21553	20110	159153	27170	1056180	46307	107913	0	0	8259	531588	0	0
2024-10-13 20:43:47			0	38872	0	0	0	21550	20110	159141	27043	1056206	46318	107912	0	0	8259	531202	0	0
2024-10-13 20:44:47			0	38859	0	0	0	21548	20120	159145	27119	1056118	46297	107911	0	0	8259	531674	0	0
2024-10-13 20:45:47			0	38852	0	0	0	21553	20110	159149	26979	1056127	46296	107913	0	0	8258	531973	0	0
2024-10-13 20:46:47			0	38845	0	0	0	21548	20120	159189	27320	1056224	46309	107911	0	0	8258	532214	0	0
2024-10-13 20:47:47			0	38852	0	0	0	21550	20100	159273	27223	1056162	46317	107912	0	0	8258	532002	0	0
2024-10-13 20:48:47			0	38835	0	0	0	21548	20110	159205	27305	1056206	46307	107911	0	0	8257	532629	0	0
2024-10-13 20:49:47			0	38826	0	0	0	21553	20120	159221	27332	1056215	46308	107913	0	0	8257	532947	0	0
2024-10-13 20:50:47			0	38833	0	0	0	21548	20120	159321	27357	1056242	46297	107911	0	0	8257	532677	0	0
2024-10-13 20:51:47			0	38832	0	0	0	21553	20110	159293	27620	1056180	46307	107913	0	0	8257	532745	0	0
2024-10-13 20:52:47			0	38818	0	0	0	21548	20110	159277	27424	1056224	46307	107911	0	0	8256	533286	0	0
2024-10-13 20:53:47			0	38804	0	0	0	21548	20110	159305	27133	1056171	46307	107911	0	0	8256	533827	0	0
2024-10-13 20:54:47			0	38801	0	0	0	21545	20110	159333	27260	1056180	46307	107910	0	0	8255	533943	0	0
2024-10-13 20:55:47			0	38784	0	0	0	21548	20110	159381	27345	1056153	46296	107911	0	0	8254	534600	0	0
2024-10-13 20:56:47			0	38793	0	0	0	21550	20100	159453	27305	1056135	46284	107912	0	0	8255	534281	0	0
2024-10-13 20:57:47			0	38781	0	0	0	21545	20110	159481	27105	1056206	46285	107910	0	0	8254	534716	0	0
2024-10-13 20:58:47			0	38785	0	0	0	21548	20100	159409	27204	1056135	46306	107911	0	0	8254	534591	0	0
2024-10-13 20:59:47			0	38781	0	0	0	21553	20110	159453	26923	1056224	46296	107913	0	0	8254	534716	0	0
2024-10-13 21:00:47			0	38771	0	0	0	21553	20110	159541	27251	1056197	46307	107913	0	0	8254	535103	0	0
2024-10-13 21:01:47			0	38766	0	0	0	21553	20110	159481	27386	1056153	46307	107913	0	0	8253	535297	0	0
2024-10-13 21:02:47			0	38750	0	0	0	21553	20100	159601	27079	1056162	46317	107913	0	0	8252	535946	0	0
2024-10-13 21:03:47			0	38758	0	0	0	21553	20110	159557	27230	1056171	46307	107913	0	0	8253	535606	0	0
2024-10-13 21:04:47			0	38744	0	0	0	21553	20110	159441	27331	1056153	46307	107913	0	0	8252	536149	0	0
2024-10-13 21:05:47			0	38751	0	0	0	21545	20100	159537	27319	1056215	46306	107910	0	0	8252	535907	0	0
2024-10-13 21:06:47			0	38723	0	0	0	21548	20100	159632	27277	1056188	46306	107911	0	0	8251	536992	0	0
2024-10-13 21:07:47			0	38737	0	0	0	21548	20110	159657	27000	1056144	46307	107911	0	0	8252	536420	0	0
2024-10-13 21:08:47			0	38740	0	0	0	21542	20100	159629	27500	1056135	46317	107909	0	0	8252	536333	0	0
2024-10-13 21:09:47			0	38720	0	0	0	21540	20100	159624	27296	1056135	46306	107908	0	0	8251	537109	0	0
2024-10-13 21:10:47			0	38718	0	0	0	21548	20110	159632	27039	1056206	46318	107911	0	0	8251	537157	0	0
2024-10-13 21:11:47			0	38705	0	0	0	21553	20110	159664	27190	1056118	46307	107913	0	0	8250	537661	0	0
2024-10-13 21:12:47			0	38707	0	0	0	21555	20110	159764	27150	1056171	46307	107914	0	0	8250	537584	0	0
2024-10-13 21:13:47			0	38699	0	0	0	21553	20110	159744	27098	1056197	46318	107913	0	0	8249	537894	0	0
2024-10-13 21:14:47			0	38680	0	0	0	21553	20110	159684	27261	1056144	46307	107913	0	0	8248	538632	0	0
2024-10-13 21:15:47			0	38666	0	0	0	21555	20110	159760	27020	1056180	46307	107914	0	0	8247	539176	0	0
2024-10-13 21:16:47			0	38681	0	0	0	21553	20110	159784	27131	1056180	46318	107913	0	0	8248	538593	0	0
2024-10-13 21:17:47			0	38672	0	0	0	21553	20110	159744	27114	1056180	46307	107913	0	0	8248	538943	0	0
2024-10-13 21:18:47			0	38672	0	0	0	21566	20110	159792	27500	1056233	46307	107918	0	0	8248	538943	0	0
2024-10-13 21:19:47			0	38661	0	0	0	21555	20110	159868	27033	1056197	46296	107914	0	0	8247	539371	0	0
2024-10-13 21:20:47			0	38646	0	0	0	21548	20120	159800	26953	1056171	46320	107911	0	0	8246	539925	0	0
2024-10-13 21:21:47			0	38670	0	0	0	21561	20110	159964	27443	1056260	46307	107916	0	0	8248	539021	0	0
2024-10-13 21:22:47			0	38652	0	0	0	21550	20120	159936	27033	1056215	46308	107912	0	0	8247	539691	0	0
2024-10-13 21:23:47			0	38659	0	0	0	21555	20110	159940	26970	1056233	46307	107914	0	0	8247	539449	0	0
2024-10-13 21:24:47			0	38646	0	0	0	21550	20100	159856	27293	1056215	46294	107912	0	0	8246	539984	0	0
2024-10-13 21:25:47			0	38645	0	0	0	21537	20120	159900	27270	1056162	46308	107907	0	0	8247	539964	0	0
2024-10-13 21:26:47			0	38645	0	0	0	21542	20110	160004	27064	1056206	46296	107909	0	0	8246	539993	0	0
2024-10-13 21:27:47			0	38636	0	0	0	21540	20110	159940	27261	1056197	46296	107908	0	0	8246	540344	0	0
2024-10-13 21:28:47			0	38644	0	0	0	21542	20100	159912	26897	1056188	46294	107909	0	0	8246	540062	0	0
2024-10-13 21:29:47			0	38641	0	0	0	21561	20110	159984	27033	1056171	46307	107916	0	0	8246	540149	0	0
2024-10-13 21:30:47			0	38641	0	0	0	21558	20110	159888	27104	1056206	46307	107915	0	0	8246	540149	0	0
2024-10-13 21:31:47			0	38636	0	0	0	21555	20110	159876	27128	1056197	46307	107914	0	0	8246	540344	0	0
2024-10-13 21:32:47			0	38650	0	0	0	21550	20110	159996	27336	1056180	46307	107912	0	0	8247	539799	0	0
2024-10-13 21:33:47			0	38624	0	0	0	21550	20110	160064	27237	1056171	46307	107912	0	0	8245	540811	0	0
2024-10-13 21:34:47			0	38636	0	0	0	21553	20110	160040	27107	1056206	46318	107913	0	0	8246	540344	0	0
2024-10-13 21:35:47			0	38633	0	0	0	21542	20110	159924	27258	1056224	46307	107909	0	0	8246	540461	0	0
2024-10-13 21:36:47			0	38612	0	0	0	21545	20110	160052	27046	1056233	46296	107910	0	0	8244	541279	0	0
2024-10-13 21:37:47			0	38603	0	0	0	21540	20120	160008	26923	1056189	46308	107908	0	0	8244	541600	0	0
2024-10-13 21:38:47			0	38614	0	0	0	21553	20110	160072	27138	1056206	46307	107913	0	0	8244	541201	0	0
2024-10-13 21:39:47			0	38616	0	0	0	21561	20110	160124	27265	1056224	46296	107916	0	0	8244	541123	0	0
2024-10-13 21:40:47			0	38590	0	0	0	21550	20110	160056	27345	1056206	46307	107912	0	0	8243	542137	0	0
2024-10-13 21:41:47			0	38585	0	0	0	21555	20110	160072	27294	1056206	46318	107914	0	0	8243	542332	0	0
2024-10-13 21:42:47			0	38584	0	0	0	21558	20110	160088	27327	1056233	46296	107915	0	0	8243	542371	0	0
2024-10-13 21:43:47			0	38607	0	0	0	21561	20110	160032	26866	1056224	46296	107916	0	0	8244	541474	0	0
2024-10-13 21:44:47			0	38589	0	0	0	21558	20120	160152	27133	1056215	46308	107915	0	0	8243	542146	0	0
2024-10-13 21:45:47			0	38592	0	0	0	21558	20120	160108	27280	1056224	46309	107915	0	0	8243	542029	0	0
2024-10-13 21:46:47			0	38585	0	0	0	21566	20120	160188	27078	1056295	46308	107918	0	0	8243	542302	0	0
2024-10-13 21:47:47			0	38607	0	0	0	21568	20110	160168	27118	1056206	46318	107919	0	0	8244	541474	0	0
2024-10-13 21:48:47			0	38599	0	0	0	21561	20110	160164	27112	1056206	46307	107916	0	0	8243	541786	0	0
2024-10-13 21:49:47			0	38616	0	0	0	21555	20120	160172	27177	1056242	46308	107914	0	0	8245	541093	0	0
2024-10-13 21:50:47			0	38593	0	0	0	21553	20110	160144	27319	1056206	46307	107913	0	0	8243	542020	0	0
2024-10-13 21:51:47			0	38589	0	0	0	21561	20110	160068	27001	1056171	46296	107916	0	0	8243	542176	0	0
2024-10-13 21:52:47			0	38583	0	0	0	21561	20140	160132	27440	1056225	46310	107916	0	0	8243	542320	0	0
2024-10-13 21:53:47			0	38591	0	0	0	21558	20120	160212	27107	1056251	46297	107915	0	0	8243	542068	0	0
2024-10-13 21:54:47			0	38594	0	0	0	21558	20120	160180	27232	1056198	46309	107915	0	0	8243	541951	0	0
2024-10-13 21:55:47			0	38571	0	0	0	21542	20120	160148	27268	1056277	46297	107909	0	0	8242	542848	0	0
2024-10-13 21:56:47			0	38582	0	0	0	21535	20120	160200	27322	1056251	46309	107906	0	0	8243	542419	0	0
2024-10-13 21:57:47			0	38577	0	0	0	21548	20120	160172	26956	1056215	46297	107911	0	0	8242	542614	0	0
2024-10-13 21:58:47			0	38586	0	0	0	21553	20120	160204	27079	1056268	46308	107913	0	0	8243	542263	0	0
2024-10-13 21:59:47			0	38597	0	0	0	21548	20110	160224	27232	1056153	46296	107911	0	0	8243	541863	0	0
2024-10-13 22:00:47			0	38573	0	0	0	21553	20120	160136	27180	1056215	46308	107913	0	0	8242	542770	0	0
2024-10-13 22:01:47			0	38573	0	0	0	21555	20110	160172	27575	1056260	46296	107914	0	0	8242	542800	0	0
2024-10-13 22:02:47			0	38583	0	0	0	21561	20120	160176	27104	1056251	46297	107916	0	0	8242	542380	0	0
2024-10-13 22:03:47			0	38577	0	0	0	21550	20120	160092	27038	1056215	46297	107912	0	0	8242	542614	0	0
2024-10-13 22:04:47			0	38585	0	0	0	21558	20120	160100	27066	1056268	46308	107915	0	0	8243	542302	0	0
2024-10-13 22:05:47			0	38576	0	0	0	21566	20110	160252	27152	1056286	46318	107918	0	0	8242	542683	0	0
2024-10-13 22:06:47			0	38571	0	0	0	21548	20120	160172	27157	1056268	46308	107911	0	0	8242	542848	0	0
2024-10-13 22:07:47			0	38564	0	0	0	21555	20120	160168	27213	1056268	46308	107914	0	0	8241	543121	0	0
2024-10-13 22:08:47			0	38557	0	0	0	21553	20120	160304	27196	1056251	46320	107913	0	0	8241	543395	0	0
2024-10-13 22:09:47			0	38556	0	0	0	21555	20110	160228	26981	1056233	46318	107914	0	0	8241	543464	0	0
2024-10-13 22:10:47			0	38551	0	0	0	21553	20120	160332	27234	1056224	46320	107913	0	0	8241	543629	0	0
2024-10-13 22:11:47			0	38574	0	0	0	21555	20110	160280	27348	1056206	46307	107914	0	0	8242	542761	0	0
2024-10-13 22:12:47			0	38571	0	0	0	21550	20130	160236	27192	1056286	46331	107912	0	0	8242	542818	0	0
2024-10-13 22:13:47			0	38569	0	0	0	21550	20110	160260	27293	1056206	46307	107912	0	0	8242	542956	0	0
2024-10-13 22:14:47			0	38577	0	0	0	21555	20110	160264	26961	1056233	46296	107914	0	0	8242	542644	0	0
2024-10-13 22:15:47			0	38573	0	0	0	21550	20120	160312	27272	1056251	46297	107912	0	0	8242	542770	0	0
2024-10-13 22:16:47			0	38567	0	0	0	21561	20120	160336	27031	1056242	46319	107916	0	0	8242	543004	0	0
2024-10-13 22:17:47			0	38567	0	0	0	21553	20120	160380	27111	1056268	46297	107913	0	0	8242	543004	0	0
2024-10-13 22:18:47			0	38561	0	0	0	21558	20110	160276	27213	1056206	46307	107915	0	0	8241	543269	0	0
2024-10-13 22:19:47			0	38548	0	0	0	21553	20120	160452	27076	1056277	46297	107913	0	0	8241	543747	0	0
2024-10-13 22:20:47			0	38555	0	0	0	21553	20110	160308	27178	1056233	46318	107913	0	0	8241	543503	0	0
2024-10-13 22:21:47			0	38549	0	0	0	21555	20120	160292	27046	1056268	46308	107914	0	0	8241	543708	0	0
2024-10-13 22:22:47			0	38545	0	0	0	21553	20110	160348	27326	1056206	46307	107913	0	0	8240	543894	0	0
2024-10-13 22:23:47			0	38554	0	0	0	21555	20110	160388	27000	1056206	46307	107914	0	0	8241	543542	0	0
2024-10-13 22:24:47			0	38543	0	0	0	21553	20110	160372	26982	1056224	46307	107913	0	0	8240	543972	0	0
2024-10-13 22:25:47			0	38508	0	0	0	21540	20120	160456	27055	1056189	46297	107908	0	0	8238	545311	0	0
2024-10-13 22:26:47			0	38536	0	0	0	21550	20110	160504	26889	1056260	46318	107912	0	0	8240	544246	0	0
2024-10-13 22:27:47			0	38539	0	0	0	21542	20120	160464	27142	1056215	46308	107909	0	0	8240	544098	0	0
2024-10-13 22:28:47			0	38542	0	0	0	21550	20110	160376	27263	1056260	46307	107912	0	0	8240	544011	0	0
2024-10-13 22:29:47			0	38524	0	0	0	21548	20110	160428	27194	1056153	46307	107911	0	0	8239	544715	0	0
2024-10-13 22:30:47			0	38538	0	0	0	21545	20110	160312	27329	1056180	46307	107910	0	0	8240	544168	0	0
2024-10-13 22:31:47			0	38524	0	0	0	21555	20110	160524	27213	1056224	46307	107914	0	0	8239	544715	0	0
2024-10-13 22:32:47			0	38518	0	0	0	21548	20110	160444	27039	1056224	46307	107911	0	0	8239	544950	0	0
2024-10-13 22:33:47			0	38528	0	0	0	21545	20110	160500	27362	1056127	46307	107910	0	0	8240	544559	0	0
2024-10-13 22:34:47			0	38544	0	0	0	21545	20110	160588	27360	1056206	46296	107910	0	0	8240	543933	0	0
2024-10-13 22:35:47			0	38521	0	0	0	21550	20110	160484	27379	1056144	46329	107912	0	0	8239	544833	0	0
2024-10-13 22:36:47			0	38508	0	0	0	21550	20100	160460	27225	1056162	46306	107912	0	0	8238	545372	0	0
2024-10-13 22:37:47			0	38513	0	0	0	21545	20120	160336	26876	1056136	46308	107910	0	0	8239	545116	0	0
2024-10-13 22:38:47			0	38522	0	0	0	21553	20100	160360	27202	1056162	46294	107913	0	0	8239	544824	0	0
2024-10-13 22:39:47			0	38531	0	0	0	21540	20120	160392	27064	1056171	46320	107908	0	0	8240	544411	0	0
2024-10-13 22:40:47			0	38520	0	0	0	21542	20110	160492	27296	1056197	46318	107909	0	0	8239	544872	0	0
2024-10-13 22:41:47			0	38523	0	0	0	21545	20110	160512	27005	1056197	46296	107910	0	0	8239	544754	0	0
2024-10-13 22:42:47			0	38536	0	0	0	21548	20110	160460	27100	1056224	46307	107911	0	0	8240	544246	0	0
2024-10-13 22:43:47			0	38518	0	0	0	21537	20100	160452	27272	1056188	46306	107907	0	0	8239	544980	0	0
2024-10-13 22:44:47			0	38517	0	0	0	21548	20110	160460	26904	1056224	46307	107911	0	0	8239	544989	0	0
2024-10-13 22:45:47			0	38521	0	0	0	21550	20120	160504	27300	1056215	46308	107912	0	0	8239	544802	0	0
2024-10-13 22:46:47			0	38513	0	0	0	21545	20120	160496	27067	1056215	46308	107910	0	0	8239	545116	0	0
2024-10-13 22:47:47			0	38519	0	0	0	21545	20110	160608	27038	1056206	46296	107910	0	0	8239	544911	0	0
2024-10-13 22:48:47			0	38514	0	0	0	21548	20120	160516	27372	1056189	46308	107911	0	0	8239	545076	0	0
2024-10-13 22:49:47			0	38496	0	0	0	21537	20110	160516	27350	1056171	46307	107907	0	0	8238	545811	0	0
2024-10-13 22:50:47			0	38475	0	0	0	21550	20100	160592	27017	1056206	46294	107912	0	0	8236	546665	0	0
2024-10-13 22:51:47			0	38481	0	0	0	21545	20110	160612	27255	1056260	46318	107910	0	0	8237	546399	0	0
2024-10-13 22:52:47			0	38484	0	0	0	21537	20100	160600	27045	1056215	46317	107907	0	0	8237	546312	0	0
2024-10-13 22:53:47			0	38475	0	0	0	21548	20100	160580	26989	1056162	46306	107911	0	0	8236	546665	0	0
2024-10-13 22:54:47			0	38478	0	0	0	21545	20110	160592	27000	1056224	46307	107910	0	0	8237	546517	0	0
2024-10-13 22:55:47			0	38467	0	0	0	21540	20110	160588	27204	1056224	46296	107908	0	0	8236	546948	0	0
2024-10-13 22:56:47			0	38478	0	0	0	21545	20110	160556	27362	1056171	46307	107910	0	0	8237	546517	0	0
2024-10-13 22:57:47			0	38445	0	0	0	21535	20110	160652	27039	1056251	46307	107906	0	0	8235	547811	0	0
2024-10-13 22:58:47			0	38461	0	0	0	21553	20110	160620	27000	1056171	46296	107913	0	0	8235	547184	0	0
2024-10-13 22:59:47			0	38468	0	0	0	21548	20110	160624	27175	1056224	46307	107911	0	0	8236	546909	0	0
2024-10-13 23:00:47			0	38462	0	0	0	21550	20110	160740	26823	1056180	46307	107912	0	0	8236	547144	0	0
2024-10-13 23:01:47			0	38460	0	0	0	21542	20110	160620	27114	1056144	46296	107909	0	0	8236	547223	0	0
2024-10-13 23:02:47			0	38458	0	0	0	21548	20110	160576	26998	1056197	46318	107911	0	0	8235	547301	0	0
2024-10-13 23:03:47			0	38479	0	0	0	21540	20110	160568	27116	1056171	46329	107908	0	0	8237	546478	0	0
2024-10-13 23:04:47			0	38480	0	0	0	21537	20110	160628	27455	1056171	46296	107907	0	0	8237	546438	0	0
2024-10-13 23:05:47			0	38486	0	0	0	21545	20110	160620	27237	1056127	46307	107910	0	0	8237	546203	0	0
2024-10-13 23:06:47			0	38481	0	0	0	21540	20100	160692	26941	1056188	46306	107908	0	0	8237	546429	0	0
2024-10-13 23:07:47			0	38489	0	0	0	21545	20110	160628	26942	1056171	46307	107910	0	0	8237	546086	0	0
2024-10-13 23:08:47			0	38503	0	0	0	21535	20110	160608	27027	1056144	46318	107906	0	0	8238	545537	0	0
2024-10-13 23:09:47			0	38498	0	0	0	21537	20100	160532	27341	1056188	46306	107907	0	0	8238	545763	0	0
2024-10-13 23:10:47			0	38504	0	0	0	21532	20110	160584	26960	1056144	46318	107905	0	0	8238	545498	0	0
2024-10-13 23:11:47			0	38509	0	0	0	21535	20110	160544	27223	1056171	46296	107906	0	0	8239	545302	0	0
2024-10-13 23:12:47			0	38500	0	0	0	21537	20110	160476	27078	1056180	46296	107907	0	0	8238	545655	0	0
2024-10-13 23:13:47			0	38519	0	0	0	21532	20100	160476	27319	1056188	46306	107905	0	0	8239	544941	0	0
2024-10-13 23:14:47			0	38511	0	0	0	21540	20100	160480	27303	1056188	46317	107908	0	0	8239	545254	0	0
2024-10-13 23:15:47			0	38499	0	0	0	21537	20100	160468	27050	1056180	46306	107907	0	0	8238	545724	0	0
2024-10-13 23:16:47			0	38512	0	0	0	21537	20110	160500	27140	1056180	46307	107907	0	0	8239	545185	0	0
2024-10-13 23:17:47			0	38506	0	0	0	21548	20110	160580	27163	1056118	46307	107911	0	0	8238	545420	0	0
2024-10-13 23:18:47			0	38484	0	0	0	21542	20100	160528	27055	1056153	46306	107909	0	0	8237	546312	0	0
2024-10-13 23:19:47			0	38459	0	0	0	21527	20100	160552	27241	1056188	46306	107903	0	0	8236	547292	0	0
2024-10-13 23:20:47			0	38465	0	0	0	21535	20100	160660	27322	1056188	46306	107906	0	0	8236	547057	0	0
2024-10-13 23:21:47			0	38468	0	0	0	21527	20100	160696	27171	1056109	46317	107903	0	0	8236	546939	0	0
2024-10-13 23:22:47			0	38485	0	0	0	21535	20100	160724	27017	1056162	46306	107906	0	0	8237	546272	0	0
2024-10-13 23:23:47			0	38487	0	0	0	21535	20100	160664	26904	1056153	46294	107906	0	0	8237	546194	0	0
2024-10-13 23:24:47			0	38462	0	0	0	21524	20100	160696	27041	1056162	46294	107902	0	0	8236	547174	0	0
2024-10-13 23:25:47			0	38475	0	0	0	21532	20100	160580	26946	1056109	46306	107905	0	0	8237	546665	0	0
2024-10-13 23:26:47			0	38477	0	0	0	21524	20100	160520	27095	1056135	46306	107902	0	0	8237	546586	0	0
2024-10-13 23:27:47			0	38465	0	0	0	21522	20100	160628	27187	1056073	46306	107901	0	0	8236	547057	0	0
2024-10-13 23:28:47			0	38458	0	0	0	21529	20090	160720	26944	1056091	46316	107904	0	0	8236	547362	0	0
2024-10-13 23:29:47			0	38448	0	0	0	21522	20100	160656	27405	1056047	46284	107901	0	0	8235	547724	0	0
2024-10-13 23:30:47			0	38440	0	0	0	21519	20090	160768	27239	1056081	46293	107900	0	0	8235	548068	0	0
2024-10-13 23:31:47			0	38439	0	0	0	21519	20090	160788	27341	1056081	46305	107900	0	0	8235	548108	0	0
2024-10-13 23:32:47			0	38431	0	0	0	21516	20090	160868	27213	1056135	46316	107899	0	0	8234	548422	0	0
2024-10-13 23:33:47			0	38419	0	0	0	21522	20090	160808	27196	1056108	46305	107901	0	0	8233	548894	0	0
2024-10-13 23:34:47			0	38412	0	0	0	21524	20090	160804	27031	1056135	46293	107902	0	0	8233	549169	0	0
2024-10-13 23:35:47			0	38407	0	0	0	21516	20090	160752	26944	1056081	46305	107899	0	0	8233	549365	0	0
2024-10-13 23:36:47			0	38407	0	0	0	21516	20090	160892	27161	1056064	46305	107899	0	0	8233	549365	0	0
2024-10-13 23:37:47			0	38402	0	0	0	21509	20090	160880	27362	1056055	46305	107896	0	0	8233	549562	0	0
2024-10-13 23:38:47			0	38415	0	0	0	21514	20080	160964	27140	1056073	46304	107898	0	0	8233	549081	0	0
2024-10-13 23:39:47			0	38393	0	0	0	21511	20080	160880	27196	1056073	46315	107897	0	0	8232	549946	0	0
2024-10-13 23:40:47			0	38390	0	0	0	21511	20090	161004	26824	1056081	46316	107897	0	0	8232	550034	0	0
2024-10-13 23:41:47			0	38384	0	0	0	21516	20080	160908	27092	1056073	46304	107899	0	0	8231	550301	0	0
2024-10-13 23:42:47			0	38379	0	0	0	21514	20090	161024	27234	1056108	46305	107898	0	0	8231	550467	0	0
2024-10-13 23:43:47			0	38377	0	0	0	21514	20080	160980	27464	1056019	46304	107898	0	0	8231	550576	0	0
2024-10-13 23:44:47			0	38383	0	0	0	21506	20080	161028	27433	1056037	46292	107895	0	0	8232	550340	0	0
2024-10-13 23:45:47			0	38392	0	0	0	21522	20080	160952	27492	1056037	46304	107901	0	0	8232	549986	0	0
2024-10-13 23:46:47			0	38405	0	0	0	21516	20090	160896	27422	1056108	46305	107899	0	0	8233	549444	0	0
2024-10-13 23:47:47			0	38405	0	0	0	21516	20070	161020	27178	1056055	46303	107899	0	0	8233	549505	0	0
2024-10-13 23:48:47			0	38408	0	0	0	21519	20080	160916	27310	1056117	46292	107900	0	0	8233	549356	0	0
2024-10-13 23:49:47			0	38405	0	0	0	21522	20080	160928	27500	1056126	46292	107901	0	0	8233	549474	0	0
2024-10-13 23:50:47			0	38406	0	0	0	21516	20090	161008	27379	1056108	46316	107899	0	0	8233	549405	0	0
2024-10-13 23:51:47			0	38387	0	0	0	21514	20080	160876	27093	1056010	46304	107898	0	0	8232	550183	0	0
2024-10-13 23:52:47			0	38399	0	0	0	21514	20080	161004	27357	1056037	46304	107898	0	0	8232	549710	0	0
2024-10-13 23:53:47			0	38382	0	0	0	21514	20080	160960	27152	1056064	46315	107898	0	0	8231	550380	0	0
2024-10-13 23:54:47			0	38378	0	0	0	21516	20080	161008	27308	1056117	46304	107899	0	0	8231	550537	0	0
2024-10-13 23:55:47			0	38380	0	0	0	21514	20080	160964	27358	1056064	46315	107898	0	0	8231	550458	0	0
2024-10-13 23:56:47			0	38370	0	0	0	21514	20080	161004	27107	1056037	46292	107898	0	0	8231	550852	0	0
2024-10-13 23:57:47			0	38365	0	0	0	21509	20080	161056	27112	1056037	46304	107896	0	0	8230	551049	0	0
2024-10-13 23:58:47			0	38365	0	0	0	21514	20070	161080	27020	1056081	46314	107898	0	0	8230	551079	0	0
2024-10-13 23:59:47			0	38349	0	0	0	21519	20070	161032	27222	1056028	46303	107900	0	0	8229	551710	0	0
2024-10-14 00:00:47			0	38361	0	0	0	21514	20080	161156	26928	1056010	46304	107898	0	0	8230	551207	0	0
2024-10-14 00:01:47			0	38350	0	0	0	21519	20080	161056	27208	1056064	46304	107900	0	0	8229	551641	0	0
2024-10-14 00:02:47			0	38357	0	0	0	21514	20080	161120	27223	1056117	46304	107898	0	0	8230	551365	0	0
2024-10-14 00:03:47			0	38345	0	0	0	21514	20080	161112	27306	1056117	46304	107898	0	0	8229	551838	0	0
2024-10-14 00:04:47			0	38318	0	0	0	21511	20080	161224	27074	1056090	46304	107897	0	0	8228	552903	0	0
2024-10-14 00:05:47			0	38321	0	0	0	21516	20080	161252	27261	1056064	46304	107899	0	0	8228	552785	0	0
2024-10-14 00:06:47			0	38310	0	0	0	21522	20080	161272	27187	1056099	46304	107901	0	0	8227	553219	0	0
2024-10-14 00:07:47			0	38299	0	0	0	21514	20070	161284	26738	1056028	46303	107898	0	0	8226	553684	0	0
2024-10-14 00:08:47			0	38298	0	0	0	21511	20080	161272	27260	1056117	46292	107897	0	0	8226	553693	0	0
2024-10-14 00:09:47			0	38295	0	0	0	21506	20090	161268	27041	1056064	46293	107895	0	0	8226	553781	0	0
2024-10-14 00:10:47			0	38271	0	0	0	21509	20080	161444	27005	1056073	46304	107896	0	0	8225	554761	0	0
2024-10-14 00:11:47			0	38255	0	0	0	21511	20080	161496	26955	1056064	46304	107897	0	0	8224	555395	0	0
2024-10-14 00:12:47			0	38241	0	0	0	21509	20090	161508	26960	1056028	46293	107896	0	0	8223	555918	0	0
2024-10-14 00:13:47			0	38259	0	0	0	21519	20090	161484	27071	1056028	46316	107900	0	0	8224	555206	0	0
2024-10-14 00:14:47			0	38259	0	0	0	21524	20080	161468	26977	1056037	46304	107902	0	0	8224	555236	0	0
2024-10-14 00:15:47			0	38263	0	0	0	21519	20080	161496	27138	1056090	46315	107900	0	0	8224	555078	0	0
2024-10-14 00:16:47			0	38266	0	0	0	21524	20080	161572	27001	1056064	46315	107902	0	0	8224	554959	0	0
2024-10-14 00:17:47			0	38284	0	0	0	21516	20080	161416	27170	1056099	46304	107899	0	0	8226	554247	0	0
2024-10-14 00:18:47			0	38290	0	0	0	21516	20080	161476	27192	1056046	46304	107899	0	0	8226	554010	0	0
2024-10-14 00:19:47			0	38278	0	0	0	21516	20090	161404	27320	1056055	46305	107899	0	0	8225	554454	0	0
2024-10-14 00:20:47			0	38284	0	0	0	21511	20080	161472	27261	1056019	46304	107897	0	0	8226	554247	0	0
2024-10-14 00:21:47			0	38261	0	0	0	21506	20080	161592	27119	1056064	46304	107895	0	0	8224	555157	0	0
2024-10-14 00:22:47			0	38230	0	0	0	21519	20080	161696	27010	1056046	46304	107900	0	0	8222	556385	0	0
2024-10-14 00:23:47			0	38228	0	0	0	21516	20080	161568	26994	1056064	46292	107899	0	0	8222	556464	0	0
2024-10-14 00:24:47			0	38225	0	0	0	21514	20080	161700	27345	1056037	46304	107898	0	0	8222	556583	0	0
2024-10-14 00:25:47			0	38207	0	0	0	21511	20080	161728	26908	1056037	46326	107897	0	0	8221	557297	0	0
2024-10-14 00:26:47			0	38185	0	0	0	21506	20080	161816	27201	1056090	46304	107895	0	0	8220	558171	0	0
2024-10-14 00:27:47			0	38183	0	0	0	21506	20080	161828	27225	1056010	46304	107895	0	0	8220	558250	0	0
2024-10-14 00:28:47			0	38158	0	0	0	21514	20080	161912	27164	1055984	46292	107898	0	0	8218	559244	0	0
2024-10-14 00:29:47			0	38154	0	0	0	21509	20080	161848	27324	1056010	46292	107896	0	0	8218	559403	0	0
2024-10-14 00:30:47			0	38141	0	0	0	21506	20090	161908	27277	1056081	46316	107895	0	0	8217	559889	0	0
2024-10-14 00:31:47			0	38152	0	0	0	21498	20080	161916	27116	1055984	46315	107892	0	0	8218	559483	0	0
2024-10-14 00:32:47			0	38152	0	0	0	21503	20070	161892	27367	1056001	46303	107894	0	0	8218	559513	0	0
2024-10-14 00:33:47			0	38175	0	0	0	21501	20070	161944	27246	1055975	46291	107893	0	0	8219	558599	0	0
2024-10-14 00:34:47			0	38175	0	0	0	21509	20070	161832	27197	1056019	46303	107896	0	0	8219	558599	0	0
2024-10-14 00:35:47			0	38167	0	0	0	21509	20070	161836	27258	1056072	46303	107896	0	0	8219	558917	0	0
2024-10-14 00:36:47			0	38167	0	0	0	21509	20080	161788	27209	1055984	46304	107896	0	0	8219	558886	0	0
2024-10-14 00:37:47			0	38177	0	0	0	21516	20070	161872	27171	1056019	46291	107899	0	0	8219	558520	0	0
2024-10-14 00:38:47			0	38170	0	0	0	21514	20070	161896	26960	1056046	46291	107898	0	0	8219	558798	0	0
2024-10-14 00:39:47			0	38176	0	0	0	21516	20080	161896	27369	1056064	46304	107899	0	0	8219	558528	0	0
2024-10-14 00:40:47			0	38174	0	0	0	21501	20070	161916	26951	1056055	46291	107893	0	0	8219	558639	0	0
2024-10-14 00:41:47			0	38142	0	0	0	21514	20080	161972	26875	1056046	46304	107898	0	0	8217	559881	0	0
2024-10-14 00:42:47			0	38140	0	0	0	21514	20070	161920	27355	1056028	46303	107898	0	0	8217	559991	0	0
2024-10-14 00:43:47			0	38136	0	0	0	21514	20080	162008	27234	1055993	46315	107898	0	0	8217	560119	0	0
2024-10-14 00:44:47			0	38137	0	0	0	21509	20070	161968	26975	1056055	46303	107896	0	0	8217	560110	0	0
2024-10-14 00:45:47			0	38148	0	0	0	21514	20070	162072	27048	1056028	46303	107898	0	0	8218	559673	0	0
2024-10-14 00:46:47			0	38136	0	0	0	21501	20080	161980	27178	1056090	46292	107893	0	0	8217	560119	0	0
2024-10-14 00:47:47			0	38146	0	0	0	21509	20080	162028	26970	1056010	46292	107896	0	0	8218	559721	0	0
2024-10-14 00:48:47			0	38163	0	0	0	21516	20070	161956	27147	1055993	46303	107899	0	0	8218	559076	0	0
2024-10-14 00:49:47			0	38122	0	0	0	21506	20070	162076	26923	1056072	46314	107895	0	0	8216	560708	0	0
2024-10-14 00:50:47			0	38120	0	0	0	21501	20080	162028	27350	1056019	46304	107893	0	0	8216	560756	0	0
2024-10-14 00:51:47			0	38141	0	0	0	21506	20070	162100	27301	1056055	46303	107895	0	0	8217	559951	0	0
2024-10-14 00:52:47			0	38138	0	0	0	21506	20080	162008	27390	1056143	46292	107895	0	0	8217	560040	0	0
2024-10-14 00:53:47			0	38125	0	0	0	21501	20070	162040	27241	1056028	46303	107893	0	0	8216	560588	0	0
2024-10-14 00:54:47			0	38089	0	0	0	21501	20080	162200	27163	1056143	46304	107893	0	0	8214	561992	0	0
2024-10-14 00:55:47			0	38086	0	0	0	21511	20070	162276	27010	1056046	46303	107897	0	0	8214	562143	0	0
2024-10-14 00:56:47			0	38093	0	0	0	21503	20080	162308	27178	1056037	46304	107894	0	0	8215	561833	0	0
2024-10-14 00:57:47			0	38071	0	0	0	21503	20070	162380	27164	1055993	46314	107894	0	0	8213	562742	0	0
2024-10-14 00:58:47			0	38084	0	0	0	21501	20070	162276	26880	1056019	46314	107893	0	0	8214	562223	0	0
2024-10-14 00:59:47			0	38076	0	0	0	21506	20070	162308	27093	1056072	46291	107895	0	0	8214	562542	0	0
2024-10-14 01:00:47			0	38081	0	0	0	21524	20070	162184	27317	1056055	46291	107902	0	0	8213	562342	0	0
2024-10-14 01:01:47			0	38103	0	0	0	21516	20070	162152	27326	1056081	46314	107899	0	0	8215	561465	0	0
2024-10-14 01:02:47			0	38100	0	0	0	21509	20070	162096	27206	1056055	46303	107896	0	0	8215	561585	0	0
2024-10-14 01:03:47			0	38117	0	0	0	21516	20080	162044	27322	1056064	46304	107899	0	0	8216	560876	0	0
2024-10-14 01:04:47			0	38115	0	0	0	21514	20070	162004	27327	1056019	46314	107898	0	0	8216	560987	0	0
2024-10-14 01:05:47			0	38103	0	0	0	21509	20080	162096	27282	1056090	46304	107896	0	0	8215	561434	0	0
2024-10-14 01:06:47			0	38116	0	0	0	21506	20070	162152	26946	1056055	46303	107895	0	0	8216	560947	0	0
2024-10-14 01:07:47			0	38093	0	0	0	21506	20070	162164	27209	1055975	46303	107895	0	0	8215	561864	0	0
2024-10-14 01:08:47			0	38113	0	0	0	21511	20060	162244	27289	1056010	46302	107897	0	0	8216	561097	0	0
2024-10-14 01:09:47			0	38128	0	0	0	21498	20080	162216	26951	1056064	46315	107892	0	0	8217	560438	0	0
2024-10-14 01:10:47			0	38112	0	0	0	21511	20070	162200	27286	1056001	46303	107897	0	0	8216	561106	0	0
2024-10-14 01:11:47			0	38106	0	0	0	21490	20080	162168	27111	1055984	46292	107889	0	0	8216	561314	0	0
2024-10-14 01:12:47			0	38098	0	0	0	21506	20070	162164	27067	1056125	46303	107895	0	0	8215	561664	0	0
2024-10-14 01:13:47			0	38104	0	0	0	21509	20070	162228	27355	1056001	46303	107896	0	0	8215	561425	0	0
2024-10-14 01:14:47			0	38098	0	0	0	21511	20070	162140	27066	1056055	46314	107897	0	0	8215	561664	0	0
2024-10-14 01:15:47			0	38116	0	0	0	21498	20080	162212	27542	1056037	46304	107892	0	0	8216	560916	0	0
2024-10-14 01:16:47			0	38076	0	0	0	21488	20070	162160	27076	1056001	46325	107888	0	0	8214	562542	0	0
2024-10-14 01:17:47			0	38060	0	0	0	21496	20070	162368	26875	1056072	46303	107891	0	0	8213	563181	0	0
2024-10-14 01:18:47			0	38048	0	0	0	21503	20080	162300	27215	1056064	46304	107894	0	0	8212	563629	0	0
2024-10-14 01:19:47			0	38059	0	0	0	21509	20080	162276	27213	1056037	46326	107896	0	0	8212	563190	0	0
2024-10-14 01:20:47			0	38041	0	0	0	21509	20060	162432	27071	1056010	46324	107896	0	0	8211	563971	0	0
2024-10-14 01:21:47			0	38032	0	0	0	21511	20080	162468	27256	1056064	46304	107897	0	0	8211	564269	0	0
2024-10-14 01:22:47			0	38056	0	0	0	21509	20070	162404	27039	1056046	46303	107896	0	0	8212	563341	0	0
2024-10-14 01:23:47			0	38067	0	0	0	21506	20080	162372	27060	1056090	46315	107895	0	0	8213	562870	0	0
2024-10-14 01:24:47			0	38059	0	0	0	21511	20080	162320	27121	1056037	46315	107897	0	0	8212	563190	0	0
2024-10-14 01:25:47			0	38070	0	0	0	21503	20080	162320	27085	1056037	46304	107894	0	0	8213	562751	0	0
2024-10-14 01:26:47			0	38071	0	0	0	21506	20070	162188	27419	1056055	46291	107895	0	0	8213	562742	0	0
2024-10-14 01:27:47			0	38074	0	0	0	21509	20070	162368	27331	1056028	46291	107896	0	0	8213	562622	0	0
2024-10-14 01:28:47			0	38067	0	0	0	21506	20080	162260	27445	1056064	46315	107895	0	0	8213	562870	0	0
2024-10-14 01:29:47			0	38057	0	0	0	21511	20080	162252	27443	1056046	46304	107897	0	0	8212	563270	0	0
2024-10-14 01:30:47			0	38094	0	0	0	21511	20070	162180	27190	1056046	46303	107897	0	0	8214	561824	0	0
2024-10-14 01:31:47			0	38096	0	0	0	21514	20080	162128	27027	1056064	46304	107898	0	0	8215	561713	0	0
2024-10-14 01:32:47			0	38109	0	0	0	21501	20080	162048	27466	1056037	46292	107893	0	0	8216	561195	0	0
2024-10-14 01:33:47			0	38121	0	0	0	21516	20080	161980	27137	1056037	46304	107899	0	0	8216	560717	0	0
2024-10-14 01:34:47			0	38130	0	0	0	21511	20080	162056	27260	1056037	46304	107897	0	0	8217	560358	0	0
2024-10-14 01:35:47			0	38119	0	0	0	21514	20080	162132	27105	1056064	46304	107898	0	0	8216	560796	0	0
2024-10-14 01:36:47			0	38122	0	0	0	21511	20070	162104	26984	1056081	46303	107897	0	0	8216	560708	0	0
2024-10-14 01:37:47			0	38099	0	0	0	21506	20070	161992	26968	1056081	46303	107895	0	0	8215	561625	0	0
2024-10-14 01:38:47			0	38104	0	0	0	21514	20070	162004	26941	1056108	46303	107898	0	0	8215	561425	0	0
2024-10-14 01:39:47			0	38099	0	0	0	21506	20070	161996	26863	1056055	46303	107895	0	0	8215	561625	0	0
2024-10-14 01:40:47			0	38104	0	0	0	21509	20070	162164	27222	1056055	46303	107896	0	0	8215	561425	0	0
2024-10-14 01:41:47			0	38110	0	0	0	21506	20080	162204	27203	1056064	46292	107895	0	0	8216	561155	0	0
2024-10-14 01:42:47			0	38100	0	0	0	21509	20080	162184	27284	1056010	46304	107896	0	0	8215	561554	0	0
2024-10-14 01:43:47			0	38084	0	0	0	21506	20070	162144	27027	1056081	46303	107895	0	0	8214	562223	0	0
2024-10-14 01:44:47			0	38087	0	0	0	21496	20080	162232	27053	1056073	46304	107891	0	0	8214	562072	0	0
2024-10-14 01:45:47			0	38084	0	0	0	21503	20070	162196	27241	1056055	46303	107894	0	0	8214	562223	0	0
2024-10-14 01:46:47			0	38072	0	0	0	21503	20070	162228	27170	1056001	46303	107894	0	0	8213	562702	0	0
2024-10-14 01:47:47			0	38061	0	0	0	21503	20070	162356	27230	1056028	46303	107894	0	0	8213	563141	0	0
2024-10-14 01:48:47			0	38067	0	0	0	21509	20070	162192	27074	1056055	46303	107896	0	0	8213	562901	0	0
2024-10-14 01:49:47			0	38048	0	0	0	21501	20070	162416	27202	1055966	46303	107893	0	0	8212	563660	0	0
2024-10-14 01:50:47			0	38040	0	0	0	21490	20070	162384	27562	1055993	46303	107889	0	0	8212	563980	0	0
2024-10-14 01:51:47			0	38036	0	0	0	21493	20070	162592	27046	1056028	46291	107890	0	0	8211	564140	0	0
2024-10-14 01:52:47			0	38019	0	0	0	21490	20070	162603	27111	1055993	46303	107889	0	0	8210	564820	0	0
2024-10-14 01:53:47			0	38010	0	0	0	21488	20070	162691	26913	1055993	46303	107888	0	0	8210	565181	0	0
2024-10-14 01:54:47			0	37998	0	0	0	21490	20060	162739	26814	1055984	46291	107889	0	0	8209	565692	0	0
2024-10-14 01:55:47			0	37979	0	0	0	21498	20070	162671	27194	1055993	46303	107892	0	0	8208	566422	0	0
2024-10-14 01:56:47			0	37968	0	0	0	21488	20060	162655	27116	1056001	46323	107888	0	0	8207	566895	0	0
2024-10-14 01:57:47			0	37955	0	0	0	21490	20070	162699	27100	1055966	46303	107889	0	0	8207	567385	0	0
2024-10-14 01:58:47			0	37958	0	0	0	21490	20060	162803	27041	1055984	46302	107889	0	0	8207	567296	0	0
2024-10-14 01:59:47			0	37959	0	0	0	21485	20060	162831	27020	1055984	46291	107887	0	0	8207	567256	0	0
2024-10-14 02:00:47			0	37942	0	0	0	21488	20060	162799	27144	1056010	46313	107888	0	0	8206	567938	0	0
2024-10-14 02:01:47			0	37942	0	0	0	21480	20060	162851	26987	1055948	46312	107885	0	0	8206	567938	0	0
2024-10-14 02:02:47			0	37921	0	0	0	21483	20070	162859	27114	1055975	46303	107886	0	0	8205	568751	0	0
2024-10-14 02:03:47			0	37923	0	0	0	21488	20060	162867	27022	1055957	46302	107888	0	0	8205	568702	0	0
2024-10-14 02:04:47			0	37909	0	0	0	21483	20060	162979	26838	1055895	46290	107886	0	0	8204	569265	0	0
2024-10-14 02:05:47			0	37922	0	0	0	21480	20070	163019	27312	1055939	46303	107885	0	0	8205	568710	0	0
2024-10-14 02:06:47			0	37903	0	0	0	21470	20060	162883	27197	1056010	46302	107881	0	0	8204	569506	0	0
2024-10-14 02:07:47			0	37893	0	0	0	21470	20050	162855	27358	1055913	46290	107881	0	0	8203	569940	0	0
2024-10-14 02:08:47			0	37904	0	0	0	21470	20050	162955	27351	1055913	46290	107881	0	0	8204	569497	0	0
2024-10-14 02:09:47			0	37859	0	0	0	21459	20060	163095	27147	1055930	46302	107877	0	0	8201	571278	0	0
2024-10-14 02:10:47			0	37854	0	0	0	21467	20050	163203	27260	1055913	46301	107880	0	0	8201	571511	0	0
2024-10-14 02:11:47			0	37868	0	0	0	21467	20050	163159	27289	1055850	46289	107880	0	0	8202	570947	0	0
2024-10-14 02:12:47			0	37845	0	0	0	21477	20050	163195	26871	1055913	46301	107884	0	0	8200	571874	0	0
2024-10-14 02:13:47			0	37841	0	0	0	21467	20050	163163	27220	1055904	46300	107880	0	0	8200	572035	0	0
2024-10-14 02:14:47			0	37851	0	0	0	21464	20050	163199	27145	1055939	46290	107879	0	0	8201	571632	0	0
2024-10-14 02:15:47			0	37800	0	0	0	21459	20030	163355	27187	1055877	46299	107877	0	0	8198	573754	0	0
2024-10-14 02:16:47			0	37817	0	0	0	21470	20040	163311	27126	1055868	46300	107881	0	0	8199	573036	0	0
2024-10-14 02:17:47			0	37801	0	0	0	21467	20050	163355	27034	1055904	46300	107880	0	0	8198	573650	0	0
2024-10-14 02:18:47			0	37818	0	0	0	21459	20050	163255	26944	1055904	46289	107877	0	0	8199	572964	0	0
2024-10-14 02:19:47			0	37829	0	0	0	21467	20040	163415	27121	1055859	46299	107880	0	0	8199	572551	0	0
2024-10-14 02:20:47			0	37812	0	0	0	21472	20040	163367	27576	1055886	46299	107882	0	0	8198	573237	0	0
2024-10-14 02:21:47			0	37815	0	0	0	21464	20040	163239	27390	1055895	46300	107879	0	0	8199	573116	0	0
2024-10-14 02:22:47			0	37790	0	0	0	21454	20030	163307	26916	1055850	46299	107875	0	0	8197	574158	0	0
2024-10-14 02:23:47			0	37809	0	0	0	21464	20040	163367	27092	1055886	46288	107879	0	0	8198	573359	0	0
2024-10-14 02:24:47			0	37786	0	0	0	21462	20040	163455	27078	1055886	46299	107878	0	0	8197	574289	0	0
2024-10-14 02:25:47			0	37771	0	0	0	21467	20030	163487	27036	1055841	46298	107880	0	0	8196	574927	0	0
2024-10-14 02:26:47			0	37770	0	0	0	21462	20040	163623	27164	1055833	46310	107878	0	0	8196	574936	0	0
2024-10-14 02:27:47			0	37744	0	0	0	21459	20030	163655	27071	1055868	46287	107877	0	0	8195	576021	0	0
2024-10-14 02:28:47			0	37718	0	0	0	21441	20040	163747	27074	1055895	46311	107870	0	0	8193	577043	0	0
2024-10-14 02:29:47			0	37676	0	0	0	21449	20040	163991	26870	1055859	46310	107873	0	0	8191	578749	0	0
2024-10-14 02:30:47			0	37679	0	0	0	21444	20030	163875	26932	1055788	46287	107871	0	0	8191	578659	0	0
2024-10-14 02:31:47			0	37646	0	0	0	21438	20030	164127	26833	1055841	46287	107869	0	0	8189	580001	0	0
2024-10-14 02:32:47			0	37616	0	0	0	21457	20030	164147	27121	1055824	46299	107876	0	0	8187	581223	0	0
2024-10-14 02:33:47			0	37643	0	0	0	21454	20040	164103	27267	1055806	46277	107875	0	0	8189	580091	0	0
2024-10-14 02:34:47			0	37662	0	0	0	21433	20020	163899	26870	1055806	46298	107867	0	0	8190	579382	0	0
2024-10-14 02:35:47			0	37646	0	0	0	21446	20030	164123	26928	1055815	46287	107872	0	0	8189	580001	0	0
2024-10-14 02:36:47			0	37644	0	0	0	21441	20030	164023	27066	1055815	46298	107870	0	0	8189	580082	0	0
2024-10-14 02:37:47			0	37609	0	0	0	21431	20020	164143	27123	1055832	46287	107866	0	0	8187	581540	0	0
2024-10-14 02:38:47			0	37628	0	0	0	21446	20020	164247	27164	1055832	46287	107872	0	0	8188	580766	0	0
2024-10-14 02:39:47			0	37634	0	0	0	21441	20030	164139	27293	1055815	46298	107870	0	0	8188	580489	0	0
2024-10-14 02:40:47			0	37638	0	0	0	21433	20020	164099	26956	1055690	46286	107867	0	0	8189	580359	0	0
2024-10-14 02:41:47			0	37630	0	0	0	21438	20030	164003	26981	1055815	46298	107869	0	0	8188	580652	0	0
2024-10-14 02:42:47			0	37647	0	0	0	21457	20020	163979	27204	1055797	46286	107876	0	0	8189	579992	0	0
2024-10-14 02:43:47			0	37658	0	0	0	21451	20020	164075	27093	1055823	46308	107874	0	0	8190	579545	0	0
2024-10-14 02:44:47			0	37663	0	0	0	21446	20020	163959	27102	1055770	46297	107872	0	0	8190	579341	0	0
2024-10-14 02:45:47			0	37636	0	0	0	21433	20020	164031	27246	1055797	46308	107867	0	0	8189	580440	0	0
2024-10-14 02:46:47			0	37633	0	0	0	21446	20020	164167	27192	1055797	46297	107872	0	0	8188	580562	0	0
2024-10-14 02:47:47			0	37629	0	0	0	21444	20020	164079	27346	1055797	46297	107871	0	0	8188	580725	0	0
2024-10-14 02:48:47			0	37623	0	0	0	21436	20010	164151	27085	1055805	46296	107868	0	0	8188	581002	0	0
2024-10-14 02:49:47			0	37602	0	0	0	21431	20020	164327	27253	1055744	46297	107866	0	0	8187	581826	0	0
2024-10-14 02:50:47			0	37575	0	0	0	21431	20020	164507	27112	1055779	46309	107866	0	0	8185	582928	0	0
2024-10-14 02:51:47			0	37510	0	0	0	21420	20010	164599	27039	1055681	46308	107862	0	0	8181	585618	0	0
2024-10-14 02:52:47			0	37510	0	0	0	21441	20010	164571	26845	1055655	46286	107870	0	0	8181	585618	0	0
2024-10-14 02:53:47			0	37535	0	0	0	21431	20010	164579	27114	1055681	46308	107866	0	0	8183	584595	0	0
2024-10-14 02:54:47			0	37544	0	0	0	21431	20010	164455	27338	1055761	46297	107866	0	0	8183	584227	0	0
2024-10-14 02:55:47			0	37548	0	0	0	21441	20000	164451	27230	1055770	46296	107870	0	0	8183	584095	0	0
2024-10-14 02:56:47			0	37578	0	0	0	21446	20010	164387	27371	1055788	46308	107872	0	0	8185	582837	0	0
2024-10-14 02:57:47			0	37579	0	0	0	21420	20010	164291	26928	1055681	46297	107862	0	0	8185	582797	0	0
2024-10-14 02:58:47			0	37548	0	0	0	21418	20000	164471	27000	1055628	46306	107861	0	0	8183	584095	0	0
2024-10-14 02:59:47			0	37541	0	0	0	21433	20010	164411	27364	1055655	46286	107867	0	0	8183	584349	0	0
2024-10-14 03:00:47			0	37543	0	0	0	21433	20000	164507	27230	1055681	46306	107867	0	0	8183	584300	0	0
2024-10-14 03:01:47			0	37572	0	0	0	21436	20010	164287	27137	1055673	46296	107868	0	0	8185	583082	0	0
2024-10-14 03:02:47			0	37577	0	0	0	21428	20000	164267	27202	1055743	46296	107865	0	0	8185	582910	0	0
2024-10-14 03:03:47			0	37564	0	0	0	21433	20000	164407	27121	1055717	46296	107867	0	0	8184	583441	0	0
2024-10-14 03:04:47			0	37557	0	0	0	21433	20000	164359	27277	1055743	46296	107867	0	0	8184	583728	0	0
2024-10-14 03:05:47			0	37582	0	0	0	21431	20010	164431	27097	1055673	46296	107866	0	0	8185	582674	0	0
2024-10-14 03:06:47			0	37591	0	0	0	21433	20000	164311	27144	1055743	46307	107867	0	0	8186	582339	0	0
2024-10-14 03:07:47			0	37587	0	0	0	21438	20000	164279	27542	1055717	46296	107869	0	0	8185	582502	0	0
2024-10-14 03:08:47			0	37596	0	0	0	21438	20000	164211	27351	1055743	46307	107869	0	0	8186	582135	0	0
2024-10-14 03:09:47			0	37607	0	0	0	21444	20000	164167	27478	1055770	46296	107871	0	0	8187	581686	0	0
2024-10-14 03:10:47			0	37607	0	0	0	21441	20000	164239	27471	1055743	46307	107870	0	0	8187	581686	0	0
2024-10-14 03:11:47			0	37577	0	0	0	21436	19990	164343	27273	1055725	46294	107868	0	0	8185	582942	0	0
2024-10-14 03:12:47			0	37586	0	0	0	21433	20010	164367	27403	1055788	46308	107867	0	0	8185	582511	0	0
2024-10-14 03:13:47			0	37564	0	0	0	21438	20010	164343	27182	1055779	46296	107869	0	0	8184	583409	0	0
2024-10-14 03:14:47			0	37586	0	0	0	21438	20000	164347	27320	1055797	46296	107869	0	0	8185	582543	0	0
2024-10-14 03:15:47			0	37562	0	0	0	21441	20010	164419	27386	1055779	46307	107870	0	0	8184	583491	0	0
2024-10-14 03:16:47			0	37559	0	0	0	21441	20000	164415	27466	1055734	46306	107870	0	0	8184	583646	0	0
2024-10-14 03:17:47			0	37542	0	0	0	21438	20010	164503	27258	1055726	46296	107869	0	0	8183	584309	0	0
2024-10-14 03:18:47			0	37541	0	0	0	21436	20010	164363	27211	1055726	46318	107868	0	0	8183	584349	0	0
2024-10-14 03:19:47			0	37563	0	0	0	21438	20010	164411	27348	1055761	46308	107869	0	0	8184	583450	0	0
2024-10-14 03:20:47			0	37579	0	0	0	21438	20010	164363	27203	1055752	46296	107869	0	0	8185	582797	0	0
2024-10-14 03:21:47			0	37620	0	0	0	21441	20010	164143	27334	1055814	46286	107870	0	0	8187	581124	0	0
2024-10-14 03:22:47			0	37631	0	0	0	21451	20010	164039	27144	1055752	46296	107874	0	0	8188	580676	0	0
2024-10-14 03:23:47			0	37660	0	0	0	21449	20010	163959	27376	1055788	46286	107873	0	0	8190	579495	0	0
2024-10-14 03:24:47			0	37709	0	0	0	21444	20010	163791	27034	1055788	46308	107871	0	0	8193	577504	0	0
2024-10-14 03:25:47			0	37712	0	0	0	21454	20010	163687	27443	1055894	46286	107875	0	0	8193	577382	0	0
2024-10-14 03:26:47			0	37724	0	0	0	21449	20000	163703	27220	1055770	46318	107873	0	0	8193	576927	0	0
2024-10-14 03:27:47			0	37723	0	0	0	21449	20000	163687	26944	1055823	46296	107873	0	0	8193	576968	0	0
2024-10-14 03:28:47			0	37750	0	0	0	21451	20000	163627	27197	1055743	46307	107874	0	0	8195	575873	0	0
2024-10-14 03:29:47			0	37760	0	0	0	21444	20010	163543	27352	1055814	46297	107871	0	0	8196	575436	0	0
2024-10-14 03:30:47			0	37734	0	0	0	21438	20010	163647	27213	1055814	46297	107869	0	0	8194	576490	0	0
2024-10-14 03:31:47			0	37749	0	0	0	21446	20020	163659	27013	1055770	46297	107872	0	0	8195	575850	0	0
2024-10-14 03:32:47			0	37739	0	0	0	21454	20020	163591	27280	1055770	46297	107875	0	0	8194	576255	0	0
2024-10-14 03:33:47			0	37731	0	0	0	21444	20020	163691	27504	1055823	46286	107871	0	0	8194	576579	0	0
2024-10-14 03:34:47			0	37703	0	0	0	21420	20020	163747	27182	1055797	46297	107862	0	0	8193	577716	0	0
2024-10-14 03:35:47			0	37665	0	0	0	21425	20010	163875	27166	1055779	46285	107864	0	0	8190	579292	0	0
2024-10-14 03:36:47			0	37638	0	0	0	21423	20010	164067	27223	1055655	46308	107863	0	0	8189	580391	0	0
2024-10-14 03:37:47			0	37636	0	0	0	21428	20020	164059	27431	1055770	46297	107865	0	0	8189	580440	0	0
2024-10-14 03:38:47			0	37610	0	0	0	21415	20000	164135	27135	1055690	46296	107860	0	0	8187	581564	0	0
2024-10-14 03:39:47			0	37612	0	0	0	21433	20010	164127	27329	1055761	46308	107867	0	0	8187	581450	0	0
2024-10-14 03:40:47			0	37617	0	0	0	21433	20010	164067	27294	1055779	46296	107867	0	0	8187	581246	0	0
2024-10-14 03:41:47			0	37669	0	0	0	21436	20010	163995	27116	1055779	46307	107868	0	0	8190	579129	0	0
2024-10-14 03:42:47			0	37683	0	0	0	21438	20010	163915	27019	1055726	46307	107869	0	0	8191	578560	0	0
2024-10-14 03:43:47			0	37724	0	0	0	21436	20010	163755	27388	1055761	46286	107868	0	0	8194	576895	0	0
2024-10-14 03:44:47			0	37737	0	0	0	21433	20010	163655	27234	1055726	46285	107867	0	0	8194	576368	0	0
2024-10-14 03:45:47			0	37741	0	0	0	21441	20010	163747	27566	1055752	46296	107870	0	0	8195	576206	0	0
2024-10-14 03:46:47			0	37752	0	0	0	21444	20010	163619	27488	1055673	46285	107871	0	0	8195	575760	0	0
2024-10-14 03:47:47			0	37765	0	0	0	21441	20010	163531	27317	1055779	46296	107870	0	0	8196	575233	0	0
2024-10-14 03:48:47			0	37760	0	0	0	21441	20010	163631	27118	1055788	46308	107870	0	0	8196	575436	0	0
2024-10-14 03:49:47			0	37719	0	0	0	21431	20010	163715	27287	1055673	46296	107866	0	0	8193	577098	0	0
2024-10-14 03:50:47			0	37696	0	0	0	21431	20010	163791	27336	1055735	46297	107866	0	0	8192	578032	0	0
2024-10-14 03:51:47			0	37707	0	0	0	21425	20000	163807	27448	1055743	46296	107864	0	0	8193	577617	0	0
2024-10-14 03:52:47			0	37717	0	0	0	21428	20010	163711	27145	1055699	46296	107865	0	0	8193	577179	0	0
2024-10-14 03:53:47			0	37733	0	0	0	21431	20000	163615	27251	1055664	46296	107866	0	0	8194	576562	0	0
2024-10-14 03:54:47			0	37733	0	0	0	21438	20010	163695	27329	1055726	46296	107869	0	0	8194	576530	0	0
2024-10-14 03:55:47			0	37750	0	0	0	21433	20000	163663	27317	1055690	46296	107867	0	0	8195	575873	0	0
2024-10-14 03:56:47			0	37759	0	0	0	21438	20000	163639	26703	1055717	46307	107869	0	0	8196	575508	0	0
2024-10-14 03:57:47			0	37770	0	0	0	21441	20000	163591	27081	1055637	46307	107870	0	0	8196	575063	0	0
2024-10-14 03:58:47			0	37737	0	0	0	21431	20000	163715	26955	1055717	46296	107866	0	0	8194	576400	0	0
2024-10-14 03:59:47			0	37728	0	0	0	21425	20000	163707	27201	1055770	46307	107864	0	0	8194	576765	0	0
2024-10-14 04:00:47			0	37720	0	0	0	21436	20010	163767	27062	1055673	46296	107868	0	0	8193	577057	0	0
2024-10-14 04:01:47			0	37718	0	0	0	21438	19990	163723	27313	1055646	46294	107869	0	0	8193	577202	0	0
2024-10-14 04:02:47			0	37705	0	0	0	21444	20000	163703	27083	1055637	46318	107871	0	0	8192	577698	0	0
2024-10-14 04:03:47			0	37722	0	0	0	21438	20000	163743	27177	1055761	46306	107869	0	0	8193	577008	0	0
2024-10-14 04:04:47			0	37721	0	0	0	21446	19990	163879	27343	1055725	46283	107872	0	0	8193	577080	0	0
2024-10-14 04:05:47			0	37716	0	0	0	21436	20000	163727	27317	1055743	46296	107868	0	0	8193	577252	0	0
2024-10-14 04:06:47			0	37720	0	0	0	21431	20000	163735	27105	1055734	46295	107866	0	0	8193	577089	0	0
2024-10-14 04:07:47			0	37731	0	0	0	21436	20010	163767	27218	1055699	46285	107868	0	0	8194	576611	0	0
2024-10-14 04:08:47			0	37723	0	0	0	21438	20010	163803	27325	1055788	46319	107869	0	0	8194	576936	0	0
2024-10-14 04:09:47			0	37727	0	0	0	21444	20010	163799	27083	1055673	46296	107871	0	0	8194	576773	0	0
2024-10-14 04:10:47			0	37701	0	0	0	21436	20010	163811	27391	1055779	46285	107868	0	0	8192	577829	0	0
2024-10-14 04:11:47			0	37725	0	0	0	21436	20000	163787	27140	1055717	46296	107868	0	0	8194	576886	0	0
2024-10-14 04:12:47			0	37741	0	0	0	21449	20010	163639	27168	1055699	46296	107873	0	0	8194	576206	0	0
2024-10-14 04:13:47			0	37746	0	0	0	21438	20010	163655	27260	1055752	46296	107869	0	0	8195	576003	0	0
2024-10-14 04:14:47			0	37750	0	0	0	21436	20010	163587	27402	1055761	46319	107868	0	0	8195	575841	0	0
2024-10-14 04:15:47			0	37767	0	0	0	21441	20010	163583	27478	1055788	46297	107870	0	0	8196	575152	0	0
2024-10-14 04:16:47			0	37757	0	0	0	21438	20000	163643	27218	1055717	46296	107869	0	0	8196	575589	0	0
2024-10-14 04:17:47			0	37751	0	0	0	21446	20010	163635	27092	1055761	46297	107872	0	0	8195	575801	0	0
2024-10-14 04:18:47			0	37780	0	0	0	21444	20010	163547	27020	1055726	46307	107871	0	0	8197	574626	0	0
2024-10-14 04:19:47			0	37793	0	0	0	21446	20010	163427	27008	1055814	46286	107872	0	0	8198	574100	0	0
2024-10-14 04:20:47			0	37837	0	0	0	21446	20020	163291	27097	1055770	46308	107872	0	0	8200	572291	0	0
2024-10-14 04:21:47			0	37816	0	0	0	21446	20010	163295	26965	1055814	46308	107872	0	0	8199	573171	0	0
2024-10-14 04:22:47			0	37814	0	0	0	21449	20010	163251	27327	1055779	46307	107873	0	0	8199	573252	0	0
2024-10-14 04:23:47			0	37828	0	0	0	21449	20020	163275	27249	1055797	46297	107873	0	0	8200	572655	0	0
2024-10-14 04:24:47			0	37793	0	0	0	21441	20010	163227	27204	1055761	46297	107870	0	0	8198	574100	0	0
2024-10-14 04:25:47			0	37768	0	0	0	21436	20020	163427	27291	1055744	46308	107868	0	0	8196	575080	0	0
2024-10-14 04:26:47			0	37770	0	0	0	21441	20010	163487	27227	1055788	46297	107870	0	0	8196	575031	0	0
2024-10-14 04:27:47			0	37769	0	0	0	21433	20020	163539	27431	1055770	46319	107867	0	0	8196	575040	0	0
2024-10-14 04:28:47			0	37765	0	0	0	21444	20000	163587	27334	1055664	46307	107871	0	0	8196	575265	0	0
2024-10-14 04:29:47			0	37759	0	0	0	21446	20010	163495	27455	1055788	46286	107872	0	0	8196	575476	0	0
2024-10-14 04:30:47			0	37782	0	0	0	21446	20010	163483	27260	1055735	46297	107872	0	0	8197	574545	0	0
2024-10-14 04:31:47			0	37760	0	0	0	21441	20010	163507	27166	1055779	46296	107870	0	0	8196	575436	0	0
2024-10-14 04:32:47			0	37762	0	0	0	21446	20010	163587	27452	1055779	46285	107872	0	0	8196	575355	0	0
2024-10-14 04:33:47			0	37746	0	0	0	21438	20010	163479	27447	1055788	46297	107869	0	0	8195	576003	0	0
2024-10-14 04:34:47			0	37751	0	0	0	21425	20020	163551	27523	1055744	46308	107864	0	0	8195	575769	0	0
2024-10-14 04:35:47			0	37735	0	0	0	21438	20010	163563	27163	1055788	46297	107869	0	0	8194	576449	0	0
2024-10-14 04:36:47			0	37738	0	0	0	21433	20000	163679	27234	1055770	46307	107867	0	0	8194	576359	0	0
2024-10-14 04:37:47			0	37752	0	0	0	21441	20010	163607	27171	1055805	46296	107870	0	0	8195	575760	0	0
2024-10-14 04:38:47			0	37736	0	0	0	21436	20000	163599	27258	1055743	46307	107868	0	0	8194	576440	0	0
2024-10-14 04:39:47			0	37722	0	0	0	21428	20010	163583	27104	1055779	46307	107865	0	0	8194	576976	0	0
2024-10-14 04:40:47			0	37720	0	0	0	21444	20020	163599	27074	1055797	46297	107871	0	0	8193	577026	0	0
2024-10-14 04:41:47			0	37730	0	0	0	21438	20010	163615	27022	1055699	46307	107869	0	0	8194	576652	0	0
2024-10-14 04:42:47			0	37729	0	0	0	21433	20010	163727	27260	1055726	46307	107867	0	0	8194	576692	0	0
2024-10-14 04:43:47			0	37737	0	0	0	21433	20000	163699	27100	1055770	46296	107867	0	0	8194	576400	0	0
2024-10-14 04:44:47			0	37723	0	0	0	21431	20010	163639	27218	1055752	46285	107866	0	0	8194	576936	0	0
2024-10-14 04:45:47			0	37732	0	0	0	21431	20000	163671	27313	1055655	46295	107866	0	0	8194	576602	0	0
2024-10-14 04:46:47			0	37730	0	0	0	21428	20020	163671	27313	1055770	46297	107865	0	0	8194	576620	0	0
2024-10-14 04:47:47			0	37710	0	0	0	21436	20000	163611	27326	1055664	46296	107868	0	0	8193	577495	0	0
2024-10-14 04:48:47			0	37725	0	0	0	21433	20000	163659	27499	1055717	46307	107867	0	0	8194	576886	0	0
2024-10-14 04:49:47			0	37718	0	0	0	21428	20010	163559	27102	1055761	46308	107865	0	0	8193	577139	0	0
2024-10-14 04:50:47			0	37714	0	0	0	21428	20010	163559	27062	1055788	46297	107865	0	0	8193	577301	0	0
2024-10-14 04:51:47			0	37732	0	0	0	21433	20000	163659	27203	1055664	46296	107867	0	0	8194	576602	0	0
2024-10-14 04:52:47			0	37719	0	0	0	21444	20010	163643	27282	1055752	46285	107871	0	0	8193	577098	0	0
2024-10-14 04:53:47			0	37741	0	0	0	21441	20000	163663	27334	1055717	46285	107870	0	0	8195	576237	0	0
2024-10-14 04:54:47			0	37743	0	0	0	21444	20000	163623	27086	1055743	46307	107871	0	0	8195	576156	0	0
2024-10-14 04:55:47			0	37741	0	0	0	21444	20010	163599	27098	1055779	46318	107871	0	0	8195	576206	0	0
2024-10-14 04:56:47			0	37724	0	0	0	21444	20000	163643	26880	1055743	46318	107871	0	0	8193	576927	0	0
2024-10-14 04:57:47			0	37734	0	0	0	21436	20000	163639	26906	1055717	46296	107868	0	0	8194	576521	0	0
2024-10-14 04:58:47			0	37736	0	0	0	21436	20010	163639	26864	1055805	46307	107868	0	0	8194	576408	0	0
2024-10-14 04:59:47			0	37725	0	0	0	21446	20010	163667	27215	1055735	46308	107872	0	0	8194	576855	0	0
2024-10-14 05:00:47			0	37742	0	0	0	21438	20000	163583	26967	1055797	46296	107869	0	0	8195	576197	0	0
2024-10-14 05:01:47			0	37742	0	0	0	21438	20010	163619	27126	1055779	46296	107869	0	0	8195	576165	0	0
2024-10-14 05:02:47			0	37740	0	0	0	21441	20010	163627	27379	1055814	46286	107870	0	0	8194	576246	0	0
2024-10-14 05:03:47			0	37737	0	0	0	21433	20000	163567	27064	1055770	46296	107867	0	0	8194	576400	0	0
2024-10-14 05:04:47			0	37721	0	0	0	21446	20000	163683	26920	1055761	46306	107872	0	0	8193	577049	0	0
2024-10-14 05:05:47			0	37727	0	0	0	21433	20010	163703	27258	1055788	46297	107867	0	0	8194	576773	0	0
2024-10-14 05:06:47			0	37727	0	0	0	21441	20010	163783	26975	1055752	46285	107870	0	0	8194	576773	0	0
2024-10-14 05:07:47			0	37720	0	0	0	21438	20010	163767	27300	1055752	46296	107869	0	0	8193	577057	0	0
2024-10-14 05:08:47			0	37714	0	0	0	21444	20000	163775	27039	1055717	46307	107871	0	0	8193	577333	0	0
2024-10-14 05:09:47			0	37732	0	0	0	21451	20000	163755	27142	1055743	46307	107874	0	0	8194	576602	0	0
2024-10-14 05:10:47			0	37708	0	0	0	21436	20010	163815	27235	1055752	46296	107868	0	0	8193	577544	0	0
2024-10-14 05:11:47			0	37701	0	0	0	21438	20010	163715	27348	1055788	46297	107869	0	0	8192	577829	0	0
2024-10-14 05:12:47			0	37687	0	0	0	21441	20010	163687	27199	1055788	46297	107870	0	0	8191	578397	0	0
2024-10-14 05:13:47			0	37717	0	0	0	21441	20000	163687	27282	1055797	46285	107870	0	0	8193	577211	0	0
2024-10-14 05:14:47			0	37714	0	0	0	21444	20000	163699	26998	1055743	46307	107871	0	0	8193	577333	0	0
2024-10-14 05:15:47			0	37725	0	0	0	21438	20010	163715	27298	1055814	46308	107869	0	0	8194	576855	0	0
2024-10-14 05:16:47			0	37715	0	0	0	21436	20010	163631	27291	1055788	46308	107868	0	0	8193	577260	0	0
2024-10-14 05:17:47			0	37715	0	0	0	21438	20000	163671	27248	1055743	46296	107869	0	0	8193	577292	0	0
2024-10-14 05:18:47			0	37708	0	0	0	21444	20010	163655	27003	1055761	46319	107871	0	0	8193	577544	0	0
2024-10-14 05:19:47			0	37727	0	0	0	21441	20010	163739	27005	1055779	46285	107870	0	0	8194	576773	0	0
2024-10-14 05:20:47			0	37713	0	0	0	21433	20010	163711	27369	1055805	46296	107867	0	0	8193	577341	0	0
2024-10-14 05:21:47			0	37710	0	0	0	21438	20010	163731	27022	1055735	46297	107869	0	0	8193	577463	0	0
2024-10-14 05:22:47			0	37719	0	0	0	21436	20010	163763	27109	1055779	46285	107868	0	0	8193	577098	0	0
2024-10-14 05:23:47			0	37702	0	0	0	21436	20010	163779	27414	1055681	46286	107868	0	0	8192	577788	0	0
2024-10-14 05:24:47			0	37694	0	0	0	21428	20010	163743	27500	1055726	46296	107865	0	0	8192	578113	0	0
2024-10-14 05:25:47			0	37700	0	0	0	21431	20000	163783	27474	1055770	46296	107866	0	0	8192	577901	0	0
2024-10-14 05:26:47			0	37690	0	0	0	21438	20000	163731	27564	1055734	46295	107869	0	0	8192	578307	0	0
2024-10-14 05:27:47			0	37698	0	0	0	21433	20010	163727	27284	1055779	46307	107867	0	0	8192	577950	0	0
2024-10-14 05:28:47			0	37684	0	0	0	21436	20010	163771	27438	1055761	46286	107868	0	0	8191	578519	0	0
2024-10-14 05:29:47			0	37686	0	0	0	21436	20010	163835	27377	1055788	46308	107868	0	0	8191	578438	0	0
2024-10-14 05:30:47			0	37680	0	0	0	21423	20010	163879	27332	1055805	46296	107863	0	0	8191	578682	0	0
2024-10-14 05:31:47			0	37693	0	0	0	21438	20000	163935	27409	1055770	46307	107869	0	0	8192	578185	0	0
2024-10-14 05:32:47			0	37677	0	0	0	21436	20010	163827	27171	1055761	46308	107868	0	0	8191	578804	0	0
2024-10-14 05:33:47			0	37664	0	0	0	21425	20010	163891	27222	1055761	46297	107864	0	0	8190	579332	0	0
2024-10-14 05:34:47			0	37682	0	0	0	21423	20010	163939	27211	1055708	46297	107863	0	0	8191	578601	0	0
2024-10-14 05:35:47			0	37678	0	0	0	21423	20000	163811	27374	1055761	46306	107863	0	0	8191	578795	0	0
2024-10-14 05:36:47			0	37684	0	0	0	21428	20000	163803	27329	1055717	46296	107865	0	0	8191	578551	0	0
2024-10-14 05:37:47			0	37670	0	0	0	21418	20010	163887	27154	1055752	46307	107861	0	0	8191	579088	0	0
2024-10-14 05:38:47			0	37668	0	0	0	21423	20000	163883	27130	1055708	46284	107863	0	0	8190	579202	0	0
2024-10-14 05:39:47			0	37665	0	0	0	21428	20000	163923	27306	1055734	46295	107865	0	0	8190	579324	0	0
2024-10-14 05:40:47			0	37634	0	0	0	21428	20000	164059	27170	1055655	46295	107865	0	0	8188	580586	0	0
2024-10-14 05:41:47			0	37655	0	0	0	21418	20000	164035	27267	1055708	46295	107861	0	0	8190	579731	0	0
2024-10-14 05:42:47			0	37668	0	0	0	21428	20010	164015	27429	1055761	46308	107865	0	0	8190	579170	0	0
2024-10-14 05:43:47			0	37663	0	0	0	21425	20000	163951	27261	1055708	46295	107864	0	0	8190	579405	0	0
2024-10-14 05:44:47			0	37668	0	0	0	21425	20000	163883	27019	1055770	46296	107864	0	0	8190	579202	0	0
2024-10-14 05:45:47			0	37659	0	0	0	21431	19990	163991	27001	1055663	46294	107866	0	0	8190	579600	0	0
2024-10-14 05:46:47			0	37645	0	0	0	21423	20000	164055	27140	1055770	46285	107863	0	0	8189	580138	0	0
2024-10-14 05:47:47			0	37643	0	0	0	21423	20000	164059	27576	1055717	46307	107863	0	0	8189	580219	0	0
2024-10-14 05:48:47			0	37625	0	0	0	21423	20000	164147	27396	1055734	46306	107863	0	0	8188	580952	0	0
2024-10-14 05:49:47			0	37634	0	0	0	21420	20000	164171	27398	1055761	46295	107862	0	0	8189	580586	0	0
2024-10-14 05:50:47			0	37639	0	0	0	21415	20000	164039	27443	1055655	46295	107860	0	0	8189	580382	0	0
2024-10-14 05:51:47			0	37632	0	0	0	21420	20000	164007	27095	1055655	46295	107862	0	0	8188	580667	0	0
2024-10-14 05:52:47			0	37615	0	0	0	21418	19980	164131	27445	1055628	46294	107861	0	0	8187	581424	0	0
2024-10-14 05:53:47			0	37630	0	0	0	21410	19990	164135	27310	1055752	46294	107858	0	0	8188	580780	0	0
2024-10-14 05:54:47			0	37611	0	0	0	21418	20000	164111	27812	1055655	46295	107861	0	0	8187	581523	0	0
2024-10-14 05:55:47			0	37632	0	0	0	21407	19990	164127	27334	1055725	46294	107857	0	0	8189	580699	0	0
2024-10-14 05:56:47			0	37604	0	0	0	21412	19990	164191	27249	1055725	46305	107859	0	0	8187	581840	0	0
2024-10-14 05:57:47			0	37621	0	0	0	21412	20000	164059	26894	1055655	46284	107859	0	0	8188	581115	0	0
2024-10-14 05:58:47			0	37642	0	0	0	21407	19990	164047	27251	1055699	46294	107857	0	0	8189	580292	0	0
2024-10-14 05:59:47			0	37649	0	0	0	21418	19990	163999	27135	1055637	46283	107861	0	0	8189	580007	0	0
2024-10-14 06:00:47			0	37653	0	0	0	21402	19990	163991	27294	1055637	46305	107855	0	0	8190	579844	0	0
2024-10-14 06:01:47			0	37649	0	0	0	21412	19990	164015	27197	1055610	46294	107859	0	0	8190	580007	0	0
2024-10-14 06:02:47			0	37633	0	0	0	21384	19990	164003	26925	1055610	46294	107848	0	0	8189	580658	0	0
2024-10-14 06:03:47			0	37620	0	0	0	21376	19980	164079	27142	1055592	46282	107845	0	0	8188	581220	0	0
2024-10-14 06:04:47			0	37604	0	0	0	21363	19980	164159	27185	1055513	46292	107840	0	0	8188	581872	0	0
2024-10-14 06:05:47			0	37590	0	0	0	21355	19970	164307	27046	1055441	46270	107837	0	0	8187	582476	0	0
2024-10-14 06:06:47			0	37573	0	0	0	21358	19970	164311	27327	1055504	46281	107838	0	0	8186	583170	0	0
2024-10-14 06:07:47			0	37558	0	0	0	21381	19950	164339	26901	1055503	46280	107847	0	0	8184	583848	0	0
2024-10-14 06:08:47			0	37653	0	0	0	21407	19960	163947	27201	1055432	46302	107857	0	0	8190	579940	0	0
2024-10-14 06:09:47			0	37767	0	0	0	21423	19950	163575	27187	1055503	46291	107863	0	0	8196	575343	0	0
2024-10-14 06:10:47			0	37869	0	0	0	21425	19950	163159	27112	1055556	46313	107864	0	0	8202	571221	0	0
2024-10-14 06:11:47			0	37932	0	0	0	21425	19970	162751	27098	1055583	46303	107864	0	0	8206	568622	0	0
2024-10-14 06:12:47			0	38008	0	0	0	21420	19970	162515	27303	1055610	46314	107862	0	0	8210	565572	0	0
2024-10-14 06:13:47			0	38029	0	0	0	21384	19970	162511	27046	1055637	46303	107848	0	0	8212	564732	0	0
2024-10-14 06:14:47			0	37916	0	0	0	21350	19970	162847	26885	1055557	46303	107835	0	0	8206	569266	0	0
2024-10-14 06:15:47			0	37839	0	0	0	21363	19970	163143	27104	1055521	46291	107840	0	0	8201	572368	0	0
2024-10-14 06:16:47			0	37757	0	0	0	21355	19970	163487	27197	1055468	46291	107837	0	0	8197	575684	0	0
2024-10-14 06:17:47			0	37728	0	0	0	21337	19960	163663	27177	1055432	46291	107830	0	0	8195	576892	0	0
2024-10-14 06:18:47			0	37657	0	0	0	21345	19950	164135	27249	1055414	46279	107833	0	0	8191	579809	0	0
2024-10-14 06:19:47			0	37610	0	0	0	21342	19950	164155	27038	1055414	46279	107832	0	0	8188	581724	0	0
2024-10-14 06:20:47			0	37648	0	0	0	21374	19940	164119	27078	1055405	46279	107844	0	0	8190	580207	0	0
2024-10-14 06:21:47			0	37738	0	0	0	21392	19940	163595	27265	1055503	46311	107851	0	0	8195	576550	0	0
2024-10-14 06:22:47			0	37818	0	0	0	21399	19940	163283	27170	1055459	46290	107854	0	0	8200	573311	0	0
2024-10-14 06:23:47			0	37848	0	0	0	21384	19950	163175	27350	1055450	46302	107848	0	0	8202	572068	0	0
2024-10-14 06:24:47			0	37819	0	0	0	21379	19950	163263	27279	1055530	46302	107846	0	0	8200	573239	0	0
2024-10-14 06:25:47			0	37840	0	0	0	21389	19950	163195	27272	1055530	46291	107850	0	0	8201	572391	0	0
2024-10-14 06:26:47			0	37829	0	0	0	21381	19950	163263	27315	1055503	46302	107847	0	0	8201	572835	0	0
2024-10-14 06:27:47			0	37819	0	0	0	21376	19950	163315	27024	1055476	46302	107845	0	0	8200	573239	0	0
2024-10-14 06:28:47			0	37831	0	0	0	21368	19950	163299	27396	1055494	46290	107842	0	0	8201	572754	0	0
2024-10-14 06:29:47			0	37865	0	0	0	21361	19950	163123	27374	1055468	46279	107839	0	0	8203	571382	0	0
2024-10-14 06:30:47			0	37919	0	0	0	21350	19950	162831	27239	1055494	46290	107835	0	0	8206	569208	0	0
2024-10-14 06:31:47			0	37998	0	0	0	21337	19950	162583	27078	1055494	46290	107830	0	0	8211	566035	0	0
2024-10-14 06:32:47			0	38028	0	0	0	21348	19940	162468	27398	1055379	46268	107834	0	0	8213	564865	0	0
2024-10-14 06:33:47			0	38059	0	0	0	21342	19930	162228	27176	1055299	46277	107832	0	0	8215	563656	0	0
2024-10-14 06:34:47			0	38085	0	0	0	21337	19930	162204	27369	1055352	46277	107830	0	0	8216	562617	0	0
2024-10-14 06:35:47			0	38052	0	0	0	21340	19930	162340	27268	1055405	46277	107831	0	0	8214	563936	0	0
2024-10-14 06:36:47			0	38004	0	0	0	21337	19930	162475	27150	1055388	46289	107830	0	0	8211	565857	0	0
2024-10-14 06:37:47			0	38056	0	0	0	21353	19920	162388	27168	1055316	46298	107836	0	0	8214	563807	0	0
2024-10-14 06:38:47			0	38055	0	0	0	21358	19920	162256	27185	1055334	46287	107838	0	0	8214	563847	0	0
2024-10-14 06:39:47			0	38057	0	0	0	21348	19930	162392	27216	1055379	46288	107834	0	0	8214	563736	0	0
2024-10-14 06:40:47			0	38045	0	0	0	21345	19930	162432	27419	1055405	46299	107833	0	0	8214	564216	0	0
2024-10-14 06:41:47			0	38055	0	0	0	21345	19930	162364	27199	1055414	46289	107833	0	0	8214	563816	0	0
2024-10-14 06:42:47			0	38049	0	0	0	21350	19920	162464	26840	1055370	46287	107835	0	0	8214	564087	0	0
2024-10-14 06:43:47			0	38027	0	0	0	21342	19930	162527	27013	1055405	46288	107832	0	0	8213	564936	0	0
2024-10-14 06:44:47			0	38019	0	0	0	21348	19920	162519	26896	1055343	46309	107834	0	0	8212	565288	0	0
2024-10-14 06:45:47			0	38014	0	0	0	21337	19930	162575	27246	1055432	46288	107830	0	0	8212	565457	0	0
2024-10-14 06:46:47			0	38052	0	0	0	21350	19910	162488	27074	1055352	46276	107835	0	0	8214	563998	0	0
2024-10-14 06:47:47			0	38079	0	0	0	21340	19920	162412	26871	1055370	46287	107831	0	0	8216	562888	0	0
2024-10-14 06:48:47			0	38082	0	0	0	21332	19930	162360	26965	1055379	46288	107828	0	0	8216	562737	0	0
2024-10-14 06:49:47			0	38079	0	0	0	21337	19920	162332	26866	1055316	46287	107830	0	0	8216	562888	0	0
2024-10-14 06:50:47			0	38109	0	0	0	21335	19910	162212	27286	1055299	46287	107829	0	0	8218	561721	0	0
2024-10-14 06:51:47			0	38085	0	0	0	21332	19930	162196	26826	1055352	46277	107828	0	0	8216	562617	0	0
2024-10-14 06:52:47			0	38128	0	0	0	21332	19910	162140	27202	1055378	46298	107828	0	0	8219	560963	0	0
2024-10-14 06:53:47			0	38117	0	0	0	21327	19910	162084	26961	1055299	46276	107826	0	0	8218	561402	0	0
2024-10-14 06:54:47			0	38133	0	0	0	21327	19920	162116	27098	1055254	46298	107826	0	0	8219	560733	0	0
2024-10-14 06:55:47			0	38132	0	0	0	21332	19910	162048	27050	1055290	46286	107828	0	0	8219	560804	0	0
2024-10-14 06:56:47			0	38148	0	0	0	21327	19920	162020	27436	1055281	46287	107826	0	0	8220	560136	0	0
2024-10-14 06:57:47			0	38156	0	0	0	21337	19910	162016	26856	1055316	46286	107830	0	0	8220	559848	0	0
2024-10-14 06:58:47			0	38172	0	0	0	21335	19910	161924	27246	1055290	46275	107829	0	0	8221	559211	0	0
2024-10-14 06:59:47			0	38180	0	0	0	21329	19910	161948	27355	1055299	46309	107827	0	0	8222	558893	0	0
2024-10-14 07:00:47			0	38167	0	0	0	21340	19900	161972	27390	1055298	46296	107831	0	0	8221	559441	0	0
2024-10-14 07:01:47			0	38176	0	0	0	21337	19910	161896	26979	1055263	46286	107830	0	0	8222	559052	0	0
2024-10-14 07:02:47			0	38179	0	0	0	21327	19910	161988	27166	1055272	46287	107826	0	0	8222	558933	0	0
2024-10-14 07:03:47			0	38167	0	0	0	21322	19910	161936	27046	1055290	46297	107824	0	0	8221	559410	0	0
2024-10-14 07:04:47			0	38157	0	0	0	21332	19900	162148	27324	1055254	46296	107828	0	0	8220	559839	0	0
2024-10-14 07:05:47			0	38168	0	0	0	21329	19910	161984	26925	1055237	46275	107827	0	0	8221	559370	0	0
2024-10-14 07:06:47			0	38171	0	0	0	21322	19900	162036	27022	1055281	46285	107824	0	0	8221	559282	0	0
2024-10-14 07:07:47			0	38164	0	0	0	21322	19910	161992	27355	1055316	46275	107824	0	0	8221	559529	0	0
2024-10-14 07:08:47			0	38160	0	0	0	21324	19900	162020	27147	1055254	46263	107825	0	0	8221	559720	0	0
2024-10-14 07:09:47			0	38161	0	0	0	21316	19900	161976	27001	1055307	46285	107822	0	0	8221	559680	0	0
2024-10-14 07:10:47			0	38145	0	0	0	21316	19900	161972	27344	1055219	46285	107822	0	0	8220	560317	0	0
2024-10-14 07:11:47			0	38140	0	0	0	21309	19910	162056	27511	1055263	46286	107819	0	0	8220	560485	0	0
2024-10-14 07:12:47			0	38136	0	0	0	21298	19890	162064	27199	1055210	46285	107815	0	0	8220	560706	0	0
2024-10-14 07:13:47			0	38121	0	0	0	21296	19890	162124	27178	1055210	46285	107814	0	0	8219	561304	0	0
2024-10-14 07:14:47			0	38121	0	0	0	21296	19890	162148	27435	1055183	46263	107814	0	0	8219	561304	0	0
2024-10-14 07:15:47			0	38099	0	0	0	21280	19890	162044	27388	1055157	46274	107808	0	0	8218	562182	0	0
2024-10-14 07:16:47			0	38080	0	0	0	21277	19900	162220	27260	1055165	46274	107807	0	0	8217	562910	0	0
2024-10-14 07:17:47			0	38085	0	0	0	21262	19880	162292	27161	1055156	46283	107801	0	0	8217	562772	0	0
2024-10-14 07:18:47			0	38068	0	0	0	21272	19880	162368	27118	1055130	46272	107805	0	0	8216	563451	0	0
2024-10-14 07:19:47			0	38027	0	0	0	21254	19870	162544	27367	1055006	46271	107798	0	0	8214	565123	0	0
2024-10-14 07:20:47			0	37993	0	0	0	21272	19880	162611	27260	1055130	46272	107805	0	0	8212	566454	0	0
2024-10-14 07:21:47			0	37976	0	0	0	21264	19870	162711	27176	1055032	46271	107802	0	0	8211	567168	0	0
2024-10-14 07:22:47			0	37970	0	0	0	21280	19860	162935	27248	1054997	46292	107808	0	0	8210	567440	0	0
2024-10-14 07:23:47			0	37959	0	0	0	21288	19870	162831	26873	1055085	46282	107811	0	0	8209	567850	0	0
2024-10-14 07:24:47			0	37969	0	0	0	21332	19860	162899	27242	1055067	46280	107828	0	0	8209	567480	0	0
2024-10-14 07:25:47			0	37975	0	0	0	21306	19860	162935	26918	1055103	46292	107818	0	0	8210	567239	0	0
2024-10-14 07:26:47			0	37984	0	0	0	21301	19860	162871	27128	1055050	46292	107816	0	0	8211	566878	0	0
2024-10-14 07:27:47			0	37988	0	0	0	21314	19860	162767	27178	1055050	46292	107821	0	0	8211	566717	0	0
2024-10-14 07:28:47			0	37968	0	0	0	21314	19870	162799	27303	1055085	46293	107821	0	0	8209	567489	0	0
2024-10-14 07:29:47			0	37994	0	0	0	21337	19870	162931	26908	1055121	46294	107830	0	0	8211	566446	0	0
2024-10-14 07:30:47			0	38009	0	0	0	21335	19870	162831	27189	1055174	46294	107829	0	0	8212	565844	0	0
2024-10-14 07:31:47			0	38005	0	0	0	21355	19880	162863	27015	1055272	46294	107837	0	0	8211	565973	0	0
2024-10-14 07:32:47			0	37982	0	0	0	21363	19880	162883	27066	1055289	46294	107840	0	0	8210	566896	0	0
2024-10-14 07:33:47			0	37989	0	0	0	21368	19890	162915	27105	1055334	46295	107842	0	0	8210	566584	0	0
2024-10-14 07:34:47			0	37963	0	0	0	21363	19890	162911	27046	1055360	46306	107840	0	0	8208	567627	0	0
2024-10-14 07:35:47			0	37959	0	0	0	21374	19890	162987	27140	1055289	46307	107844	0	0	8208	567788	0	0
2024-10-14 07:36:47			0	37939	0	0	0	21381	19890	163023	27197	1055369	46318	107847	0	0	8207	568592	0	0
2024-10-14 07:37:47			0	37910	0	0	0	21386	19910	163083	27274	1055396	46308	107849	0	0	8205	569695	0	0
2024-10-14 07:38:47			0	37933	0	0	0	21381	19910	163047	27237	1055405	46298	107847	0	0	8206	568770	0	0
2024-10-14 07:39:47			0	37949	0	0	0	21386	19910	163035	27209	1055396	46319	107849	0	0	8207	568127	0	0
2024-10-14 07:40:47			0	37940	0	0	0	21386	19920	162907	27026	1055440	46309	107849	0	0	8207	568457	0	0
2024-10-14 07:41:47			0	37953	0	0	0	21389	19920	162879	27111	1055449	46298	107850	0	0	8208	567935	0	0
2024-10-14 07:42:47			0	37982	0	0	0	21389	19920	162711	27128	1055467	46309	107850	0	0	8209	566771	0	0
2024-10-14 07:43:47			0	37977	0	0	0	21376	19930	162731	27395	1055467	46300	107845	0	0	8209	566940	0	0
2024-10-14 07:44:47			0	38009	0	0	0	21386	19930	162739	27464	1055441	46289	107849	0	0	8211	565657	0	0
2024-10-14 07:45:47			0	38040	0	0	0	21394	19930	162544	27260	1055441	46300	107852	0	0	8213	564416	0	0
2024-10-14 07:46:47			0	38052	0	0	0	21397	19930	162536	27220	1055538	46299	107853	0	0	8213	563936	0	0
2024-10-14 07:47:47			0	38086	0	0	0	21399	19930	162428	26967	1055520	46311	107854	0	0	8215	562577	0	0
2024-10-14 07:48:47			0	38112	0	0	0	21402	19950	162288	27469	1055521	46301	107855	0	0	8217	561478	0	0
2024-10-14 07:49:47			0	38124	0	0	0	21394	19950	162232	27249	1055530	46280	107852	0	0	8218	560999	0	0
2024-10-14 07:50:47			0	38132	0	0	0	21392	19950	162104	27268	1055530	46302	107851	0	0	8218	560680	0	0
2024-10-14 07:51:47			0	38129	0	0	0	21384	19950	162124	27168	1055503	46302	107848	0	0	8218	560800	0	0
2024-10-14 07:52:47			0	38140	0	0	0	21394	19950	162192	27026	1055547	46301	107852	0	0	8219	560362	0	0
2024-10-14 07:53:47			0	38159	0	0	0	21386	19950	161960	27360	1055530	46302	107849	0	0	8220	559605	0	0
2024-10-14 07:54:47			0	38177	0	0	0	21402	19940	161996	27092	1055538	46290	107855	0	0	8221	558920	0	0
2024-10-14 07:55:47			0	38208	0	0	0	21389	19960	162016	27480	1055592	46280	107850	0	0	8223	557627	0	0
2024-10-14 07:56:47			0	38199	0	0	0	21399	19950	161996	27218	1055547	46301	107854	0	0	8222	558015	0	0
2024-10-14 07:57:47			0	38204	0	0	0	21402	19950	161952	27326	1055556	46302	107855	0	0	8222	557816	0	0
2024-10-14 07:58:47			0	38200	0	0	0	21407	19950	161892	27267	1055609	46313	107857	0	0	8222	557975	0	0
2024-10-14 07:59:47			0	38205	0	0	0	21389	19950	161932	27182	1055521	46301	107850	0	0	8223	557776	0	0
2024-10-14 08:00:47			0	38176	0	0	0	21381	19950	162032	27355	1055530	46302	107847	0	0	8221	558929	0	0
2024-10-14 08:01:47			0	38170	0	0	0	21392	19960	161952	27039	1055539	46291	107851	0	0	8220	559137	0	0
2024-10-14 08:02:47			0	38169	0	0	0	21397	19970	161868	26941	1055601	46303	107853	0	0	8220	559146	0	0
2024-10-14 08:03:47			0	38187	0	0	0	21415	19970	161904	27308	1055574	46291	107860	0	0	8221	558430	0	0
2024-10-14 08:04:47			0	38200	0	0	0	21410	19970	161748	27301	1055574	46291	107858	0	0	8222	557913	0	0
2024-10-14 08:05:47			0	38202	0	0	0	21399	19970	161832	27078	1055627	46281	107854	0	0	8222	557834	0	0
2024-10-14 08:06:47			0	38200	0	0	0	21412	19950	161788	27085	1055609	46302	107859	0	0	8222	557975	0	0
2024-10-14 08:07:47			0	38216	0	0	0	21420	19970	161864	27154	1055680	46281	107862	0	0	8223	557278	0	0
2024-10-14 08:08:47			0	38227	0	0	0	21418	19970	161812	26918	1055627	46291	107861	0	0	8223	556842	0	0
2024-10-14 08:09:47			0	38228	0	0	0	21420	19970	161648	27303	1055601	46303	107862	0	0	8223	556802	0	0
2024-10-14 08:10:47			0	38246	0	0	0	21412	19970	161608	26960	1055663	46303	107859	0	0	8225	556088	0	0
2024-10-14 08:11:47			0	38254	0	0	0	21410	19980	161656	27012	1055619	46292	107858	0	0	8225	555740	0	0
2024-10-14 08:12:47			0	38249	0	0	0	21410	19980	161752	27197	1055761	46294	107858	0	0	8225	555939	0	0
2024-10-14 08:13:47			0	38235	0	0	0	21405	19970	161652	27433	1055690	46303	107856	0	0	8224	556524	0	0
2024-10-14 08:14:47			0	38219	0	0	0	21410	19980	161656	27203	1055681	46283	107858	0	0	8223	557128	0	0
2024-10-14 08:15:47			0	38215	0	0	0	21415	19980	161752	27133	1055628	46305	107860	0	0	8223	557287	0	0
2024-10-14 08:16:47			0	38220	0	0	0	21397	19970	161812	27206	1055627	46291	107853	0	0	8223	557119	0	0
2024-10-14 08:17:47			0	38220	0	0	0	21402	19980	161728	27274	1055734	46294	107855	0	0	8223	557089	0	0
2024-10-14 08:18:47			0	38207	0	0	0	21410	19980	161588	27251	1055619	46282	107858	0	0	8222	557605	0	0
2024-10-14 08:19:47			0	38225	0	0	0	21407	19980	161692	26991	1055628	46305	107857	0	0	8224	556890	0	0
2024-10-14 08:20:47			0	38220	0	0	0	21399	19980	161768	27313	1055619	46292	107854	0	0	8223	557089	0	0
2024-10-14 08:21:47			0	38190	0	0	0	21407	19970	161836	27275	1055663	46281	107857	0	0	8221	558311	0	0
2024-10-14 08:22:47			0	38202	0	0	0	21415	19970	161736	27048	1055663	46303	107860	0	0	8222	557834	0	0
2024-10-14 08:23:47			0	38206	0	0	0	21407	19980	161804	27242	1055645	46292	107857	0	0	8222	557644	0	0
2024-10-14 08:24:47			0	38197	0	0	0	21412	19970	161768	27001	1055690	46291	107859	0	0	8222	558033	0	0
2024-10-14 08:25:47			0	38222	0	0	0	21418	19980	161752	26961	1055725	46292	107861	0	0	8223	557009	0	0
2024-10-14 08:26:47			0	38217	0	0	0	21418	19980	161716	27234	1055681	46305	107861	0	0	8223	557208	0	0
2024-10-14 08:27:47			0	38225	0	0	0	21433	19970	161704	27062	1055637	46303	107867	0	0	8223	556921	0	0
2024-10-14 08:28:47			0	38222	0	0	0	21431	19980	161732	27197	1055654	46305	107866	0	0	8223	557009	0	0
2024-10-14 08:29:47			0	38234	0	0	0	21423	19990	161600	27062	1055717	46305	107863	0	0	8224	556503	0	0
2024-10-14 08:30:47			0	38245	0	0	0	21428	19990	161648	27161	1055770	46305	107865	0	0	8224	556067	0	0
2024-10-14 08:31:47			0	38226	0	0	0	21431	19990	161656	27320	1055663	46305	107866	0	0	8223	556820	0	0
2024-10-14 08:32:47			0	38253	0	0	0	21431	19990	161648	27313	1055725	46294	107866	0	0	8225	555750	0	0
2024-10-14 08:33:47			0	38262	0	0	0	21436	19980	161560	27156	1055699	46292	107868	0	0	8225	555424	0	0
2024-10-14 08:34:47			0	38271	0	0	0	21428	19990	161488	27092	1055770	46294	107865	0	0	8226	555037	0	0
2024-10-14 08:35:47			0	38282	0	0	0	21425	20000	161516	27426	1055734	46328	107864	0	0	8227	554571	0	0
2024-10-14 08:36:47			0	38268	0	0	0	21418	19990	161488	27081	1055752	46305	107861	0	0	8226	555155	0	0
2024-10-14 08:37:47			0	38274	0	0	0	21423	19990	161540	27076	1055699	46294	107863	0	0	8226	554918	0	0
2024-10-14 08:38:47			0	38260	0	0	0	21425	19990	161548	27303	1055725	46294	107864	0	0	8225	555472	0	0
2024-10-14 08:39:47			0	38254	0	0	0	21431	20010	161616	27218	1055673	46307	107866	0	0	8225	555648	0	0
2024-10-14 08:40:47			0	38260	0	0	0	21431	20000	161564	27293	1055788	46306	107866	0	0	8225	555442	0	0
2024-10-14 08:41:47			0	38262	0	0	0	21428	19990	161572	27022	1055752	46294	107865	0	0	8225	555393	0	0
2024-10-14 08:42:47			0	38270	0	0	0	21425	20000	161528	27164	1055788	46295	107864	0	0	8226	555046	0	0
2024-10-14 08:43:47			0	38301	0	0	0	21433	19990	161524	27007	1055743	46305	107867	0	0	8228	553850	0	0
2024-10-14 08:44:47			0	38290	0	0	0	21428	19990	161492	27350	1055770	46305	107865	0	0	8227	554285	0	0
2024-10-14 08:45:47			0	38279	0	0	0	21436	19990	161640	27315	1055725	46305	107868	0	0	8226	554720	0	0
2024-10-14 08:46:47			0	38278	0	0	0	21441	19990	161472	27102	1055752	46305	107870	0	0	8226	554760	0	0
2024-10-14 08:47:47			0	38286	0	0	0	21431	20000	161440	27402	1055797	46296	107866	0	0	8227	554412	0	0
2024-10-14 08:48:47			0	38285	0	0	0	21425	20010	161480	27000	1055779	46307	107864	0	0	8227	554421	0	0
2024-10-14 08:49:47			0	38272	0	0	0	21423	19990	161516	27308	1055752	46305	107863	0	0	8226	554997	0	0
2024-10-14 08:50:47			0	38266	0	0	0	21415	20000	161572	27249	1055770	46296	107860	0	0	8226	555204	0	0
2024-10-14 08:51:47			0	38243	0	0	0	21418	20000	161548	27351	1055823	46318	107861	0	0	8224	556115	0	0
2024-10-14 08:52:47			0	38252	0	0	0	21418	20000	161592	27222	1055770	46285	107861	0	0	8225	555759	0	0
2024-10-14 08:53:47			0	38242	0	0	0	21425	20000	161588	27239	1055734	46284	107864	0	0	8224	556155	0	0
2024-10-14 08:54:47			0	38250	0	0	0	21425	20000	161624	27422	1055734	46295	107864	0	0	8225	555838	0	0
2024-10-14 08:55:47			0	38275	0	0	0	21428	19990	161556	27388	1055796	46294	107865	0	0	8226	554878	0	0
2024-10-14 08:56:47			0	38288	0	0	0	21425	19990	161548	27045	1055725	46305	107864	0	0	8227	554364	0	0
2024-10-14 08:57:47			0	38284	0	0	0	21418	19990	161444	27235	1055752	46305	107861	0	0	8227	554522	0	0
2024-10-14 08:58:47			0	38296	0	0	0	21428	19990	161408	26897	1055752	46283	107865	0	0	8227	554047	0	0
2024-10-14 08:59:47			0	38302	0	0	0	21423	19990	161476	27305	1055743	46316	107863	0	0	8228	553810	0	0
2024-10-14 09:00:47			0	38309	0	0	0	21431	19990	161504	27511	1055752	46294	107866	0	0	8228	553533	0	0
2024-10-14 09:01:47			0	38307	0	0	0	21431	20000	161476	27360	1055770	46307	107866	0	0	8228	553582	0	0
2024-10-14 09:02:47			0	38301	0	0	0	21436	20000	161376	27315	1055814	46295	107868	0	0	8228	553819	0	0
2024-10-14 09:03:47			0	38287	0	0	0	21428	20000	161484	27369	1055761	46306	107865	0	0	8227	554373	0	0
2024-10-14 09:04:47			0	38300	0	0	0	21425	19990	161488	27550	1055725	46305	107864	0	0	8228	553889	0	0
2024-10-14 09:05:47			0	38296	0	0	0	21418	19990	161580	27308	1055699	46316	107861	0	0	8228	554047	0	0
2024-10-14 09:06:47			0	38291	0	0	0	21433	20000	161528	26998	1055743	46296	107867	0	0	8227	554215	0	0
2024-10-14 09:07:47			0	38277	0	0	0	21433	19990	161460	27071	1055699	46294	107867	0	0	8226	554799	0	0
2024-10-14 09:08:47			0	38287	0	0	0	21428	20000	161480	27518	1055761	46295	107865	0	0	8227	554373	0	0
2024-10-14 09:09:47			0	38294	0	0	0	21425	20000	161484	27239	1055761	46306	107864	0	0	8227	554096	0	0
2024-10-14 09:10:47			0	38284	0	0	0	21433	20000	161508	27393	1055788	46306	107867	0	0	8227	554491	0	0
2024-10-14 09:11:47			0	38306	0	0	0	21423	19990	161400	27538	1055752	46316	107863	0	0	8228	553652	0	0
2024-10-14 09:12:47			0	38302	0	0	0	21423	20000	161404	27317	1055761	46306	107863	0	0	8228	553780	0	0
2024-10-14 09:13:47			0	38291	0	0	0	21428	19990	161392	27336	1055717	46305	107865	0	0	8227	554245	0	0
2024-10-14 09:14:47			0	38292	0	0	0	21428	19990	161344	27492	1055752	46305	107865	0	0	8227	554206	0	0
2024-10-14 09:15:47			0	38289	0	0	0	21431	19990	161572	27067	1055743	46294	107866	0	0	8227	554324	0	0
2024-10-14 09:16:47			0	38258	0	0	0	21436	20000	161560	27203	1055823	46296	107868	0	0	8225	555521	0	0
2024-10-14 09:17:47			0	38245	0	0	0	21431	20000	161604	27608	1055788	46295	107866	0	0	8224	556036	0	0
2024-10-14 09:18:47			0	38245	0	0	0	21433	20000	161744	27038	1055788	46295	107867	0	0	8224	556036	0	0
2024-10-14 09:19:47			0	38264	0	0	0	21433	20000	161596	27154	1055841	46295	107867	0	0	8225	555283	0	0
2024-10-14 09:20:47			0	38258	0	0	0	21433	20000	161552	27001	1055770	46296	107867	0	0	8225	555521	0	0
2024-10-14 09:21:47			0	38256	0	0	0	21407	20000	161624	27319	1055770	46307	107857	0	0	8225	555600	0	0
2024-10-14 09:22:47			0	38227	0	0	0	21402	20000	161760	27227	1055743	46296	107855	0	0	8224	556750	0	0
2024-10-14 09:23:47			0	38212	0	0	0	21415	20000	161808	27159	1055788	46295	107860	0	0	8223	557345	0	0
2024-10-14 09:24:47			0	38190	0	0	0	21402	19990	161784	27239	1055725	46294	107855	0	0	8222	558249	0	0
2024-10-14 09:25:47			0	38185	0	0	0	21379	20000	161760	27362	1055655	46295	107846	0	0	8222	558417	0	0
2024-10-14 09:26:47			0	38179	0	0	0	21381	20000	161868	27332	1055655	46295	107847	0	0	8221	558656	0	0
2024-10-14 09:27:47			0	38171	0	0	0	21392	19990	161960	27457	1055637	46283	107851	0	0	8221	559004	0	0
2024-10-14 09:28:47			0	38161	0	0	0	21397	19980	161956	27293	1055575	46305	107853	0	0	8220	559433	0	0
2024-10-14 09:29:47			0	38171	0	0	0	21389	19990	161960	27206	1055717	46294	107850	0	0	8221	559004	0	0
2024-10-14 09:30:47			0	38168	0	0	0	21415	19980	162024	27112	1055619	46292	107860	0	0	8220	559155	0	0
2024-10-14 09:31:47			0	38169	0	0	0	21441	19980	162044	27137	1055601	46305	107870	0	0	8220	559115	0	0
2024-10-14 09:32:47			0	38160	0	0	0	21459	19970	161956	27317	1055716	46303	107877	0	0	8219	559504	0	0
2024-10-14 09:33:47			0	38163	0	0	0	21462	19980	161880	27209	1055708	46305	107878	0	0	8219	559354	0	0
2024-10-14 09:34:47			0	38158	0	0	0	21472	19980	161976	27175	1055761	46316	107882	0	0	8218	559552	0	0
2024-10-14 09:35:47			0	38175	0	0	0	21470	19990	162032	27254	1055832	46316	107881	0	0	8220	558845	0	0
2024-10-14 09:36:47			0	38185	0	0	0	21462	20000	161896	27386	1055761	46328	107878	0	0	8220	558417	0	0
2024-10-14 09:37:47			0	38172	0	0	0	21449	20000	161816	27138	1055788	46306	107873	0	0	8220	558934	0	0
2024-10-14 09:38:47			0	38175	0	0	0	21402	20000	161868	27305	1055823	46307	107855	0	0	8221	558815	0	0
2024-10-14 09:39:47			0	38173	0	0	0	21418	20010	161804	27206	1055752	46296	107861	0	0	8220	558863	0	0
2024-10-14 09:40:47			0	38175	0	0	0	21428	20010	161880	27249	1055779	46296	107865	0	0	8220	558784	0	0
2024-10-14 09:41:47			0	38191	0	0	0	21444	20000	161876	26993	1055788	46306	107871	0	0	8221	558179	0	0
2024-10-14 09:42:47			0	38191	0	0	0	21441	20000	161836	27331	1055761	46306	107870	0	0	8221	558179	0	0
2024-10-14 09:43:47			0	38205	0	0	0	21454	20000	161844	27246	1055823	46296	107875	0	0	8222	557623	0	0
2024-10-14 09:44:47			0	38203	0	0	0	21470	20000	161784	27485	1055823	46307	107881	0	0	8221	557702	0	0
2024-10-14 09:45:47			0	38215	0	0	0	21464	20010	161776	27229	1055859	46307	107879	0	0	8222	557195	0	0
2024-10-14 09:46:47			0	38216	0	0	0	21475	20020	161820	27260	1055930	46319	107883	0	0	8222	557125	0	0
2024-10-14 09:47:47			0	38225	0	0	0	21475	20020	161696	27424	1055930	46319	107883	0	0	8223	556768	0	0
2024-10-14 09:48:47			0	38242	0	0	0	21485	20020	161672	27498	1055930	46319	107887	0	0	8223	556093	0	0
2024-10-14 09:49:47			0	38248	0	0	0	21490	20030	161668	27410	1055948	46298	107889	0	0	8224	555825	0	0
2024-10-14 09:50:47			0	38264	0	0	0	21488	20030	161612	27512	1056001	46320	107888	0	0	8225	555191	0	0
2024-10-14 09:51:47			0	38271	0	0	0	21485	20030	161644	27369	1055948	46309	107887	0	0	8225	554914	0	0
2024-10-14 09:52:47			0	38259	0	0	0	21480	20030	161608	27223	1055983	46299	107885	0	0	8225	555389	0	0
2024-10-14 09:53:47			0	38267	0	0	0	21475	20040	161544	27395	1055912	46310	107883	0	0	8225	555042	0	0
2024-10-14 09:54:47			0	38250	0	0	0	21485	20030	161504	27466	1055957	46310	107887	0	0	8224	555746	0	0
2024-10-14 09:55:47			0	38276	0	0	0	21488	20040	161560	27424	1055965	46321	107888	0	0	8225	554686	0	0
2024-10-14 09:56:47			0	38264	0	0	0	21490	20030	161448	27434	1055983	46310	107889	0	0	8225	555191	0	0
2024-10-14 09:57:47			0	38278	0	0	0	21488	20040	161600	27400	1055992	46310	107888	0	0	8226	554607	0	0
2024-10-14 09:58:47			0	38276	0	0	0	21488	20030	161560	27287	1055983	46310	107888	0	0	8225	554716	0	0
2024-10-14 09:59:47			0	38272	0	0	0	21496	20040	161496	27234	1056028	46322	107891	0	0	8225	554844	0	0
2024-10-14 10:00:47			0	38304	0	0	0	21493	20040	161424	27156	1055974	46311	107890	0	0	8227	553578	0	0
2024-10-14 10:01:47			0	38280	0	0	0	21493	20050	161576	27102	1056037	46300	107890	0	0	8226	554497	0	0
2024-10-14 10:02:47			0	38290	0	0	0	21496	20050	161436	27064	1056063	46322	107891	0	0	8226	554101	0	0
2024-10-14 10:03:47			0	38293	0	0	0	21496	20050	161468	27142	1056090	46311	107891	0	0	8226	553983	0	0
2024-10-14 10:04:47			0	38308	0	0	0	21503	20050	161344	27383	1056010	46311	107894	0	0	8227	553390	0	0
2024-10-14 10:05:47			0	38338	0	0	0	21501	20050	161364	27261	1056045	46323	107893	0	0	8229	552205	0	0
2024-10-14 10:06:47			0	38304	0	0	0	21496	20050	161376	27480	1056099	46312	107891	0	0	8227	553548	0	0
2024-10-14 10:07:47			0	38333	0	0	0	21496	20050	161264	27403	1056063	46300	107891	0	0	8229	552403	0	0
2024-10-14 10:08:47			0	38342	0	0	0	21496	20050	161280	27166	1056037	46311	107891	0	0	8229	552047	0	0
2024-10-14 10:09:47			0	38342	0	0	0	21493	20060	161308	27698	1056081	46312	107890	0	0	8229	552017	0	0
2024-10-14 10:10:47			0	38342	0	0	0	21501	20050	161248	27433	1056063	46311	107893	0	0	8229	552047	0	0
2024-10-14 10:11:47			0	38342	0	0	0	21496	20050	161236	27571	1056099	46301	107891	0	0	8229	552047	0	0
2024-10-14 10:12:47			0	38341	0	0	0	21477	20050	161244	27514	1056010	46311	107884	0	0	8229	552087	0	0
2024-10-14 10:13:47			0	38328	0	0	0	21459	20040	161184	27405	1056072	46310	107877	0	0	8229	552630	0	0
2024-10-14 10:14:47			0	38320	0	0	0	21464	20040	161236	27661	1056028	46300	107879	0	0	8228	552946	0	0
2024-10-14 10:15:47			0	38313	0	0	0	21483	20050	161300	27396	1055957	46300	107886	0	0	8228	553192	0	0
2024-10-14 10:16:47			0	38327	0	0	0	21483	20030	161304	27277	1055957	46299	107886	0	0	8228	552700	0	0
2024-10-14 10:17:47			0	38326	0	0	0	21485	20040	161244	27196	1056028	46289	107887	0	0	8228	552709	0	0
2024-10-14 10:18:47			0	38331	0	0	0	21464	20040	161256	27209	1055992	46310	107879	0	0	8229	552512	0	0
2024-10-14 10:19:47			0	38308	0	0	0	21438	20040	161264	27421	1055912	46310	107869	0	0	8228	553420	0	0
2024-10-14 10:20:47			0	38279	0	0	0	21431	20040	161336	27358	1055939	46299	107866	0	0	8227	554567	0	0
2024-10-14 10:21:47			0	38282	0	0	0	21420	20030	161352	27642	1055894	46287	107862	0	0	8227	554479	0	0
2024-10-14 10:22:47			0	38263	0	0	0	21412	20020	161476	27473	1055859	46276	107859	0	0	8226	555261	0	0
2024-10-14 10:23:47			0	38267	0	0	0	21402	20010	161544	27821	1055814	46286	107855	0	0	8226	555134	0	0
2024-10-14 10:24:47			0	38232	0	0	0	21407	20010	161612	27301	1055788	46275	107857	0	0	8224	556521	0	0
2024-10-14 10:25:47			0	38244	0	0	0	21399	20010	161576	27445	1055805	46285	107854	0	0	8225	556045	0	0
2024-10-14 10:26:47			0	38235	0	0	0	21394	20000	161744	27324	1055770	46285	107852	0	0	8224	556432	0	0
2024-10-14 10:27:47			0	38220	0	0	0	21407	19990	161620	27279	1055752	46294	107857	0	0	8223	557058	0	0
2024-10-14 10:28:47			0	38218	0	0	0	21397	19990	161616	27540	1055752	46294	107853	0	0	8223	557137	0	0
2024-10-14 10:29:47			0	38221	0	0	0	21399	20000	161868	27260	1055734	46306	107854	0	0	8224	556988	0	0
2024-10-14 10:30:47			0	38232	0	0	0	21402	19990	161656	27287	1055672	46305	107855	0	0	8224	556582	0	0
2024-10-14 10:31:47			0	38206	0	0	0	21407	19990	161704	27360	1055699	46294	107857	0	0	8222	557614	0	0
2024-10-14 10:32:47			0	38202	0	0	0	21420	19990	161784	27164	1055646	46294	107862	0	0	8222	557773	0	0
2024-10-14 10:33:47			0	38198	0	0	0	21420	19990	161844	27609	1055646	46305	107862	0	0	8222	557931	0	0
2024-10-14 10:34:47			0	38218	0	0	0	21415	19980	161728	27305	1055734	46294	107860	0	0	8223	557168	0	0
2024-10-14 10:35:47			0	38198	0	0	0	21412	19990	161748	27521	1055779	46305	107859	0	0	8222	557931	0	0
2024-10-14 10:36:47			0	38203	0	0	0	21415	20000	161636	27435	1055708	46306	107860	0	0	8222	557702	0	0
2024-10-14 10:37:47			0	38195	0	0	0	21402	19990	161764	27260	1055752	46305	107855	0	0	8222	558051	0	0
2024-10-14 10:38:47			0	38194	0	0	0	21407	19980	161764	27185	1055761	46283	107857	0	0	8222	558121	0	0
2024-10-14 10:39:47			0	38200	0	0	0	21410	19990	161780	27419	1055743	46294	107858	0	0	8222	557852	0	0
2024-10-14 10:40:47			0	38194	0	0	0	21412	19980	161844	27448	1055708	46294	107859	0	0	8222	558121	0	0
2024-10-14 10:41:47			0	38180	0	0	0	21418	19990	161748	27059	1055717	46316	107861	0	0	8221	558647	0	0
2024-10-14 10:42:47			0	38179	0	0	0	21423	19990	161824	27371	1055717	46305	107863	0	0	8221	558686	0	0
2024-10-14 10:43:47			0	38199	0	0	0	21428	19980	161780	27348	1055734	46294	107865	0	0	8222	557922	0	0
2024-10-14 10:44:47			0	38187	0	0	0	21431	19980	161896	27208	1055787	46305	107866	0	0	8221	558399	0	0
2024-10-14 10:45:47			0	38170	0	0	0	21425	19990	161876	27211	1055752	46294	107864	0	0	8220	559044	0	0
2024-10-14 10:46:47			0	38160	0	0	0	21428	19990	161884	27315	1055832	46294	107865	0	0	8219	559442	0	0
2024-10-14 10:47:47			0	38156	0	0	0	21425	20000	161912	27307	1055761	46317	107864	0	0	8219	559570	0	0
2024-10-14 10:48:47			0	38155	0	0	0	21431	19990	161980	27255	1055752	46316	107866	0	0	8219	559641	0	0
2024-10-14 10:49:47			0	38167	0	0	0	21425	20000	161884	27274	1055814	46284	107864	0	0	8220	559133	0	0
2024-10-14 10:50:47			0	38165	0	0	0	21428	19990	161956	27421	1055779	46294	107865	0	0	8220	559243	0	0
2024-10-14 10:51:47			0	38162	0	0	0	21412	19990	161904	27498	1055743	46305	107859	0	0	8220	559363	0	0
2024-10-14 10:52:47			0	38177	0	0	0	21418	19990	161828	27107	1055717	46305	107861	0	0	8221	558766	0	0
2024-10-14 10:53:47			0	38180	0	0	0	21418	19990	161868	27211	1055770	46316	107861	0	0	8221	558647	0	0
2024-10-14 10:54:47			0	38198	0	0	0	21423	19990	161916	27339	1055752	46305	107863	0	0	8222	557931	0	0
2024-10-14 10:55:47			0	38216	0	0	0	21425	19990	161816	27350	1055796	46294	107864	0	0	8223	557217	0	0
2024-10-14 10:56:47			0	38222	0	0	0	21415	19990	161740	27362	1055752	46305	107860	0	0	8223	556979	0	0
2024-10-14 10:57:47			0	38220	0	0	0	21410	19990	161724	27261	1055725	46294	107858	0	0	8223	557058	0	0
2024-10-14 10:58:47			0	38215	0	0	0	21402	19980	161728	27043	1055752	46292	107855	0	0	8223	557287	0	0
2024-10-14 10:59:47			0	38217	0	0	0	21402	19990	161784	27412	1055752	46294	107855	0	0	8223	557177	0	0
2024-10-14 11:00:47			0	38196	0	0	0	21394	19990	161816	27149	1055717	46294	107852	0	0	8222	558011	0	0
2024-10-14 11:01:47			0	38177	0	0	0	21397	19990	161892	27289	1055717	46283	107853	0	0	8221	558766	0	0
2024-10-14 11:02:47			0	38170	0	0	0	21397	19990	161804	27182	1055743	46283	107853	0	0	8221	559044	0	0
2024-10-14 11:03:47			0	38168	0	0	0	21397	19980	161876	27194	1055699	46292	107853	0	0	8220	559155	0	0
2024-10-14 11:04:47			0	38155	0	0	0	21399	19970	161920	27175	1055716	46291	107854	0	0	8220	559703	0	0
2024-10-14 11:05:47			0	38185	0	0	0	21410	19970	161924	27336	1055680	46281	107858	0	0	8221	558509	0	0
2024-10-14 11:06:47			0	38177	0	0	0	21407	19970	161980	27454	1055637	46291	107857	0	0	8221	558828	0	0
2024-10-14 11:07:47			0	38174	0	0	0	21394	19980	161872	27066	1055628	46294	107852	0	0	8221	558916	0	0
2024-10-14 11:08:47			0	38174	0	0	0	21399	19980	161968	26970	1055654	46305	107854	0	0	8221	558916	0	0
2024-10-14 11:09:47			0	38161	0	0	0	21402	19970	161896	27062	1055637	46291	107855	0	0	8220	559464	0	0
2024-10-14 11:10:47			0	38146	0	0	0	21389	19980	161932	26878	1055699	46304	107850	0	0	8219	560030	0	0
2024-10-14 11:11:47			0	38155	0	0	0	21389	19970	162004	27152	1055716	46291	107850	0	0	8220	559703	0	0
2024-10-14 11:12:47			0	38138	0	0	0	21384	19970	162008	27326	1055690	46303	107848	0	0	8219	560379	0	0
2024-10-14 11:13:47			0	38140	0	0	0	21386	19960	162012	27274	1055671	46302	107849	0	0	8219	560331	0	0
2024-10-14 11:14:47			0	38141	0	0	0	21389	19970	162000	27289	1055601	46291	107850	0	0	8219	560260	0	0
2024-10-14 11:15:47			0	38149	0	0	0	21386	19970	162012	27137	1055601	46291	107849	0	0	8219	559942	0	0
2024-10-14 11:16:47			0	38137	0	0	0	21381	19970	162028	26956	1055548	46291	107847	0	0	8219	560419	0	0
2024-10-14 11:17:47			0	38141	0	0	0	21384	19970	162060	27145	1055521	46291	107848	0	0	8219	560260	0	0
2024-10-14 11:18:47			0	38141	0	0	0	21386	19950	162028	27332	1055583	46291	107849	0	0	8219	560322	0	0
2024-10-14 11:19:47			0	38143	0	0	0	21392	19960	162080	27216	1055512	46302	107851	0	0	8219	560211	0	0
2024-10-14 11:20:47			0	38138	0	0	0	21394	19950	162064	27409	1055609	46302	107852	0	0	8218	560441	0	0
2024-10-14 11:21:47			0	38120	0	0	0	21394	19970	162048	27393	1055654	46291	107852	0	0	8218	561097	0	0
2024-10-14 11:22:47			0	38126	0	0	0	21402	19970	162068	27639	1055601	46303	107855	0	0	8218	560858	0	0
2024-10-14 11:23:47			0	38134	0	0	0	21399	19950	162100	27360	1055583	46291	107854	0	0	8218	560601	0	0
2024-10-14 11:24:47			0	38118	0	0	0	21402	19970	162040	27220	1055601	46303	107855	0	0	8217	561176	0	0
2024-10-14 11:25:47			0	38127	0	0	0	21392	19960	162144	27197	1055671	46302	107851	0	0	8218	560849	0	0
2024-10-14 11:26:47			0	38114	0	0	0	21405	19970	162144	27312	1055680	46291	107856	0	0	8217	561336	0	0
2024-10-14 11:27:47			0	38106	0	0	0	21402	19970	162216	27381	1055680	46303	107855	0	0	8217	561655	0	0
2024-10-14 11:28:47			0	38117	0	0	0	21394	19970	162156	27492	1055680	46291	107852	0	0	8217	561216	0	0
2024-10-14 11:29:47			0	38098	0	0	0	21397	19970	162268	27281	1055610	46291	107853	0	0	8216	561974	0	0
2024-10-14 11:30:47			0	38107	0	0	0	21394	19970	162120	27124	1055627	46303	107852	0	0	8217	561615	0	0
2024-10-14 11:31:47			0	38123	0	0	0	21394	19980	161996	27279	1055645	46292	107852	0	0	8218	560946	0	0
2024-10-14 11:32:47			0	38113	0	0	0	21399	19970	162144	27642	1055583	46291	107854	0	0	8217	561376	0	0
2024-10-14 11:33:47			0	38137	0	0	0	21399	19960	162080	27538	1055671	46291	107854	0	0	8218	560450	0	0
2024-10-14 11:34:47			0	38123	0	0	0	21405	19970	162060	27142	1055521	46325	107856	0	0	8218	560977	0	0
2024-10-14 11:35:47			0	38137	0	0	0	21402	19970	162040	27402	1055654	46291	107855	0	0	8218	560419	0	0
2024-10-14 11:36:47			0	38135	0	0	0	21394	19970	162028	27422	1055654	46281	107852	0	0	8218	560499	0	0
2024-10-14 11:37:47			0	38132	0	0	0	21399	19980	162072	27154	1055699	46292	107854	0	0	8218	560588	0	0
2024-10-14 11:38:47			0	38142	0	0	0	21410	19980	162092	27086	1055699	46315	107858	0	0	8219	560189	0	0
2024-10-14 11:39:47			0	38147	0	0	0	21410	19980	162112	27187	1055672	46315	107858	0	0	8219	559990	0	0
2024-10-14 11:40:47			0	38171	0	0	0	21407	19980	162000	27410	1055699	46292	107857	0	0	8220	559035	0	0
2024-10-14 11:41:47			0	38155	0	0	0	21412	19980	162000	27350	1055619	46292	107859	0	0	8219	559672	0	0
2024-10-14 11:42:47			0	38167	0	0	0	21420	19970	161920	27412	1055734	46291	107862	0	0	8220	559225	0	0
2024-10-14 11:43:47			0	38181	0	0	0	21436	19970	161968	27651	1055707	46314	107868	0	0	8220	558669	0	0
2024-10-14 11:44:47			0	38181	0	0	0	21425	19990	161808	27464	1055779	46305	107864	0	0	8221	558607	0	0
2024-10-14 11:45:47			0	38176	0	0	0	21433	19980	161876	27329	1055725	46315	107867	0	0	8220	558836	0	0
2024-10-14 11:46:47			0	38188	0	0	0	21441	19980	161796	27658	1055778	46304	107870	0	0	8221	558359	0	0
2024-10-14 11:47:47			0	38213	0	0	0	21431	19990	161852	27206	1055796	46316	107866	0	0	8222	557336	0	0
2024-10-14 11:48:47			0	38206	0	0	0	21433	19980	161756	27547	1055787	46316	107867	0	0	8222	557644	0	0
2024-10-14 11:49:47			0	38211	0	0	0	21449	19990	161812	27157	1055796	46305	107873	0	0	8222	557415	0	0
2024-10-14 11:50:47			0	38238	0	0	0	21444	19990	161644	27334	1055805	46316	107871	0	0	8224	556344	0	0
2024-10-14 11:51:47			0	38236	0	0	0	21444	19990	161708	27649	1055805	46305	107871	0	0	8224	556423	0	0
2024-10-14 11:52:47			0	38220	0	0	0	21451	19990	161752	27402	1055858	46305	107874	0	0	8223	557058	0	0
2024-10-14 11:53:47			0	38236	0	0	0	21441	20000	161600	27277	1055841	46306	107870	0	0	8224	556393	0	0
2024-10-14 11:54:47			0	38248	0	0	0	21444	20000	161580	27440	1055788	46306	107871	0	0	8224	555917	0	0
2024-10-14 11:55:47			0	38252	0	0	0	21446	20010	161608	27355	1055912	46296	107872	0	0	8225	555728	0	0
2024-10-14 11:56:47			0	38249	0	0	0	21438	20010	161516	27462	1055868	46308	107869	0	0	8225	555847	0	0
2024-10-14 11:57:47			0	38255	0	0	0	21444	20010	161576	27576	1055832	46307	107871	0	0	8225	555609	0	0
2024-10-14 11:58:47			0	38259	0	0	0	21444	20010	161576	27621	1055859	46307	107871	0	0	8225	555451	0	0
2024-10-14 11:59:47			0	38270	0	0	0	21438	20010	161536	27447	1055832	46285	107869	0	0	8226	555015	0	0
2024-10-14 12:00:47			0	38277	0	0	0	21438	20000	161380	27426	1055823	46307	107869	0	0	8226	554768	0	0
2024-10-14 12:01:47			0	38293	0	0	0	21446	20010	161388	27331	1055814	46297	107872	0	0	8227	554105	0	0
2024-10-14 12:02:47			0	38310	0	0	0	21444	20010	161372	27852	1055841	46308	107871	0	0	8228	553433	0	0
2024-10-14 12:03:47			0	38308	0	0	0	21444	20010	161344	27696	1055912	46307	107871	0	0	8228	553512	0	0
2024-10-14 12:04:47			0	38322	0	0	0	21454	20010	161180	27727	1055859	46307	107875	0	0	8229	552959	0	0
2024-10-14 12:05:47			0	38326	0	0	0	21454	20010	161240	27405	1055868	46308	107875	0	0	8229	552801	0	0
2024-10-14 12:06:47			0	38348	0	0	0	21436	20000	161248	27421	1055850	46307	107868	0	0	8230	551963	0	0
2024-10-14 12:07:47			0	38344	0	0	0	21451	20020	161116	27595	1055876	46297	107874	0	0	8230	552060	0	0
2024-10-14 12:08:47			0	38376	0	0	0	21451	20010	161088	27672	1055912	46307	107874	0	0	8232	550828	0	0
2024-10-14 12:09:47			0	38371	0	0	0	21451	20020	161180	27215	1055903	46308	107874	0	0	8232	550995	0	0
2024-10-14 12:10:47			0	38398	0	0	0	21454	20010	161128	27549	1055912	46296	107875	0	0	8233	549962	0	0
2024-10-14 12:11:47			0	38403	0	0	0	21449	20020	160960	27620	1055876	46297	107873	0	0	8233	549735	0	0
2024-10-14 12:12:47			0	38395	0	0	0	21451	20020	160976	27346	1055965	46309	107874	0	0	8233	550050	0	0
2024-10-14 12:13:47			0	38418	0	0	0	21451	20020	161024	27331	1055965	46298	107874	0	0	8234	549145	0	0
2024-10-14 12:14:47			0	38385	0	0	0	21454	20020	160940	27497	1055903	46319	107875	0	0	8232	550444	0	0
2024-10-14 12:15:47			0	38401	0	0	0	21446	20020	161020	27440	1055912	46298	107872	0	0	8233	549814	0	0
2024-10-14 12:16:47			0	38384	0	0	0	21444	20020	160876	27441	1055912	46298	107871	0	0	8232	550483	0	0
2024-10-14 12:17:47			0	38396	0	0	0	21451	20020	160920	27379	1055939	46309	107874	0	0	8233	550010	0	0
2024-10-14 12:18:47			0	38413	0	0	0	21462	20020	160884	27741	1055903	46297	107878	0	0	8234	549341	0	0
2024-10-14 12:19:47			0	38418	0	0	0	21449	20020	160940	27620	1055930	46308	107873	0	0	8234	549145	0	0
2024-10-14 12:20:47			0	38404	0	0	0	21446	20030	160900	27611	1055974	46309	107872	0	0	8234	549665	0	0
2024-10-14 12:21:47			0	38429	0	0	0	21459	20010	160916	27268	1055921	46297	107877	0	0	8235	548742	0	0
2024-10-14 12:22:47			0	38418	0	0	0	21454	20020	160800	27575	1055939	46298	107875	0	0	8234	549145	0	0
2024-10-14 12:23:47			0	38410	0	0	0	21462	20020	160808	27623	1055956	46308	107878	0	0	8234	549459	0	0
2024-10-14 12:24:47			0	38412	0	0	0	21459	20030	160892	27537	1055974	46309	107877	0	0	8234	549350	0	0
2024-10-14 12:25:47			0	38432	0	0	0	21459	20020	160912	27607	1056009	46319	107877	0	0	8235	548594	0	0
2024-10-14 12:26:47			0	38426	0	0	0	21454	20020	160812	27426	1055912	46309	107875	0	0	8235	548830	0	0
2024-10-14 12:27:47			0	38445	0	0	0	21459	20020	160808	27388	1055956	46308	107877	0	0	8236	548083	0	0
2024-10-14 12:28:47			0	38448	0	0	0	21462	20030	160756	27263	1055974	46298	107878	0	0	8236	547935	0	0
2024-10-14 12:29:47			0	38461	0	0	0	21462	20020	160736	27679	1055939	46320	107878	0	0	8237	547455	0	0
2024-10-14 12:30:47			0	38458	0	0	0	21464	20020	160736	27386	1056018	46320	107879	0	0	8236	547573	0	0
2024-10-14 12:31:47			0	38469	0	0	0	21475	20020	160728	27476	1056018	46298	107883	0	0	8237	547141	0	0
2024-10-14 12:32:47			0	38483	0	0	0	21467	20030	160624	27232	1056001	46298	107880	0	0	8238	546562	0	0
2024-10-14 12:33:47			0	38496	0	0	0	21467	20040	160560	27559	1055992	46299	107880	0	0	8239	546022	0	0
2024-10-14 12:34:47			0	38497	0	0	0	21470	20030	160552	27592	1055957	46310	107881	0	0	8239	546013	0	0
2024-10-14 12:35:47			0	38509	0	0	0	21470	20040	160456	27492	1056045	46299	107881	0	0	8239	545513	0	0
2024-10-14 12:36:47			0	38527	0	0	0	21467	20030	160396	27528	1056001	46320	107880	0	0	8240	544838	0	0
2024-10-14 12:37:47			0	38519	0	0	0	21477	20050	160384	27554	1055983	46311	107884	0	0	8240	545091	0	0
2024-10-14 12:38:47			0	38539	0	0	0	21464	20040	160436	27369	1055965	46310	107879	0	0	8241	544339	0	0
2024-10-14 12:39:47			0	38557	0	0	0	21472	20030	160284	27511	1056054	46320	107882	0	0	8242	543665	0	0
2024-10-14 12:40:47			0	38543	0	0	0	21477	20040	160356	27651	1056028	46322	107884	0	0	8241	544182	0	0
2024-10-14 12:41:47			0	38577	0	0	0	21477	20030	160260	27511	1055983	46299	107884	0	0	8243	542883	0	0
2024-10-14 12:42:47			0	38577	0	0	0	21477	20040	160188	27805	1056028	46311	107884	0	0	8243	542853	0	0
2024-10-14 12:43:47			0	38589	0	0	0	21475	20040	160248	27673	1056028	46300	107883	0	0	8244	542385	0	0
2024-10-14 12:44:47			0	38596	0	0	0	21480	20050	160172	27800	1056010	46322	107885	0	0	8244	542082	0	0
2024-10-14 12:45:47			0	38592	0	0	0	21480	20040	160184	27757	1056028	46311	107885	0	0	8244	542268	0	0
2024-10-14 12:46:47			0	38614	0	0	0	21483	20040	160048	27627	1056072	46310	107886	0	0	8245	541410	0	0
2024-10-14 12:47:47			0	38623	0	0	0	21477	20050	160116	27998	1056063	46289	107884	0	0	8246	541029	0	0
2024-10-14 12:48:47			0	38615	0	0	0	21485	20050	160044	27372	1056125	46323	107887	0	0	8245	541341	0	0
2024-10-14 12:49:47			0	38629	0	0	0	21480	20050	159884	27386	1056116	46311	107885	0	0	8246	540795	0	0
2024-10-14 12:50:47			0	38639	0	0	0	21485	20050	159872	27334	1056116	46300	107887	0	0	8247	540406	0	0
2024-10-14 12:51:47			0	38647	0	0	0	21483	20060	159920	27509	1056081	46312	107886	0	0	8247	540065	0	0
2024-10-14 12:52:47			0	38641	0	0	0	21483	20050	159896	27647	1056099	46301	107886	0	0	8247	540328	0	0
2024-10-14 12:53:47			0	38664	0	0	0	21493	20060	159928	27640	1056108	46301	107890	0	0	8248	539403	0	0
2024-10-14 12:54:47			0	38657	0	0	0	21488	20050	159824	27679	1056099	46323	107888	0	0	8248	539705	0	0
2024-10-14 12:55:47			0	38671	0	0	0	21496	20060	159852	27606	1056134	46312	107891	0	0	8248	539131	0	0
2024-10-14 12:56:47			0	38665	0	0	0	21496	20060	159984	27471	1056090	46302	107891	0	0	8248	539364	0	0
2024-10-14 12:57:47			0	38661	0	0	0	21490	20070	159816	27568	1056125	46314	107889	0	0	8248	539490	0	0
2024-10-14 12:58:47			0	38672	0	0	0	21485	20060	159856	27533	1056081	46312	107887	0	0	8249	539092	0	0
2024-10-14 12:59:47			0	38648	0	0	0	21496	20060	159812	27416	1056081	46312	107891	0	0	8247	540026	0	0
2024-10-14 13:00:47			0	38665	0	0	0	21490	20050	159828	27684	1056099	46301	107889	0	0	8248	539394	0	0
2024-10-14 13:01:47			0	38675	0	0	0	21493	20050	159736	27578	1056037	46322	107890	0	0	8249	539005	0	0
2024-10-14 13:02:47			0	38688	0	0	0	21498	20050	159716	27545	1056099	46312	107892	0	0	8249	538500	0	0
2024-10-14 13:03:47			0	38682	0	0	0	21490	20060	159748	27694	1056090	46302	107889	0	0	8249	538703	0	0
2024-10-14 13:04:47			0	38683	0	0	0	21480	20050	159760	27474	1056045	46323	107885	0	0	8249	538694	0	0
2024-10-14 13:05:47			0	38654	0	0	0	21483	20060	159776	27372	1056037	46313	107886	0	0	8248	539792	0	0
2024-10-14 13:06:47			0	38650	0	0	0	21459	20050	159932	27400	1056072	46301	107877	0	0	8248	539977	0	0
2024-10-14 13:07:47			0	38647	0	0	0	21470	20060	159956	27727	1056134	46301	107881	0	0	8247	540065	0	0
2024-10-14 13:08:47			0	38615	0	0	0	21464	20050	159960	27479	1055992	46312	107879	0	0	8246	541341	0	0
2024-10-14 13:09:47			0	38624	0	0	0	21464	20050	159984	27876	1056072	46312	107879	0	0	8246	540990	0	0
2024-10-14 13:10:47			0	38615	0	0	0	21475	20050	160028	28168	1056037	46300	107883	0	0	8246	541341	0	0
2024-10-14 13:11:47			0	38630	0	0	0	21477	20050	160044	27703	1056019	46312	107884	0	0	8246	540756	0	0
2024-10-14 13:12:47			0	38650	0	0	0	21472	20050	159880	28057	1056063	46300	107882	0	0	8248	539977	0	0
2024-10-14 13:13:47			0	38653	0	0	0	21483	20040	159916	27970	1056107	46311	107886	0	0	8248	539891	0	0
2024-10-14 13:14:47			0	38688	0	0	0	21496	20050	159860	27774	1056099	46312	107891	0	0	8249	538500	0	0
2024-10-14 13:15:47			0	38681	0	0	0	21488	20050	159800	27495	1056143	46311	107888	0	0	8249	538772	0	0
2024-10-14 13:16:47			0	38686	0	0	0	21485	20050	159728	27500	1056125	46312	107887	0	0	8249	538577	0	0
2024-10-14 13:17:47			0	38686	0	0	0	21488	20060	159756	27850	1056161	46323	107888	0	0	8249	538548	0	0
2024-10-14 13:18:47			0	38670	0	0	0	21477	20050	159864	27614	1056037	46300	107884	0	0	8249	539200	0	0
2024-10-14 13:19:47			0	38680	0	0	0	21488	20040	159796	27798	1056134	46311	107888	0	0	8249	538840	0	0
2024-10-14 13:20:47			0	38690	0	0	0	21485	20050	159688	27659	1056072	46312	107887	0	0	8250	538422	0	0
2024-10-14 13:21:47			0	38682	0	0	0	21488	20050	159788	27815	1056099	46301	107888	0	0	8249	538733	0	0
2024-10-14 13:22:47			0	38688	0	0	0	21488	20050	159764	27805	1056072	46312	107888	0	0	8250	538500	0	0
2024-10-14 13:23:47			0	38689	0	0	0	21493	20050	159768	27763	1056143	46311	107890	0	0	8250	538461	0	0
2024-10-14 13:24:47			0	38688	0	0	0	21493	20060	159632	27339	1056134	46323	107890	0	0	8249	538470	0	0
2024-10-14 13:25:47			0	38679	0	0	0	21496	20060	159816	27602	1056117	46302	107891	0	0	8249	538820	0	0
2024-10-14 13:26:47			0	38711	0	0	0	21511	20060	159764	27628	1056143	46324	107897	0	0	8251	537577	0	0
2024-10-14 13:27:47			0	38711	0	0	0	21509	20060	159644	27395	1056143	46302	107896	0	0	8251	537577	0	0
2024-10-14 13:28:47			0	38733	0	0	0	21503	20070	159665	27616	1056099	46303	107894	0	0	8252	536693	0	0
2024-10-14 13:29:47			0	38711	0	0	0	21503	20070	159524	27305	1056179	46314	107894	0	0	8251	537547	0	0
2024-10-14 13:30:47			0	38728	0	0	0	21501	20060	159673	27594	1056170	46302	107893	0	0	8252	536917	0	0
2024-10-14 13:31:47			0	38734	0	0	0	21503	20070	159593	27571	1056152	46303	107894	0	0	8252	536655	0	0
2024-10-14 13:32:47			0	38720	0	0	0	21498	20060	159684	27459	1056170	46345	107892	0	0	8251	537227	0	0
2024-10-14 13:33:47			0	38713	0	0	0	21503	20070	159640	27431	1056188	46314	107894	0	0	8251	537469	0	0
2024-10-14 13:34:47			0	38710	0	0	0	21496	20070	159624	27462	1056125	46314	107891	0	0	8251	537586	0	0
2024-10-14 13:35:47			0	38703	0	0	0	21496	20070	159748	27329	1056152	46314	107891	0	0	8250	537858	0	0
2024-10-14 13:36:47			0	38724	0	0	0	21501	20070	159613	27533	1056188	46325	107893	0	0	8252	537043	0	0
2024-10-14 13:37:47			0	38732	0	0	0	21511	20060	159516	27718	1056161	46312	107897	0	0	8252	536762	0	0
2024-10-14 13:38:47			0	38749	0	0	0	21514	20070	159497	27776	1056134	46314	107898	0	0	8253	536073	0	0
2024-10-14 13:39:47			0	38733	0	0	0	21501	20070	159541	27547	1056241	46314	107893	0	0	8252	536693	0	0
2024-10-14 13:40:47			0	38744	0	0	0	21498	20070	159473	27443	1056241	46325	107892	0	0	8253	536267	0	0
2024-10-14 13:41:47			0	38733	0	0	0	21498	20080	159408	27244	1056223	46304	107892	0	0	8252	536664	0	0
2024-10-14 13:42:47			0	38734	0	0	0	21498	20080	159505	27248	1056170	46326	107892	0	0	8252	536625	0	0
2024-10-14 13:43:47			0	38740	0	0	0	21511	20080	159553	27433	1056223	46304	107897	0	0	8252	536392	0	0
2024-10-14 13:44:47			0	38743	0	0	0	21506	20070	159569	27644	1056205	46325	107895	0	0	8253	536306	0	0
2024-10-14 13:45:47			0	38731	0	0	0	21493	20080	159533	27441	1056197	46315	107890	0	0	8252	536741	0	0
2024-10-14 13:46:47			0	38714	0	0	0	21488	20080	159608	27504	1056250	46304	107888	0	0	8251	537401	0	0
2024-10-14 13:47:47			0	38725	0	0	0	21506	20080	159593	27315	1056170	46326	107895	0	0	8252	536974	0	0
2024-10-14 13:48:47			0	38721	0	0	0	21503	20080	159592	27547	1056197	46304	107894	0	0	8251	537129	0	0
2024-10-14 13:49:47			0	38763	0	0	0	21514	20080	159585	27575	1056170	46315	107898	0	0	8254	535501	0	0
2024-10-14 13:50:47			0	38759	0	0	0	21511	20070	159461	27358	1056285	46314	107897	0	0	8253	535686	0	0
2024-10-14 13:51:47			0	38748	0	0	0	21503	20080	159421	27568	1056250	46315	107894	0	0	8253	536082	0	0
2024-10-14 13:52:47			0	38739	0	0	0	21506	20080	159641	27651	1056170	46326	107895	0	0	8252	536431	0	0
2024-10-14 13:53:47			0	38739	0	0	0	21501	20080	159561	27573	1056197	46304	107893	0	0	8252	536431	0	0
2024-10-14 13:54:47			0	38738	0	0	0	21498	20070	159757	27762	1056188	46314	107892	0	0	8252	536500	0	0
2024-10-14 13:55:47			0	38719	0	0	0	21498	20070	159788	27684	1056161	46325	107892	0	0	8251	537236	0	0
2024-10-14 13:56:47			0	38709	0	0	0	21490	20080	159596	27433	1056197	46304	107889	0	0	8251	537595	0	0
2024-10-14 13:57:47			0	38687	0	0	0	21485	20080	159804	27296	1056170	46304	107887	0	0	8250	538449	0	0
2024-10-14 13:58:47			0	38683	0	0	0	21483	20080	159860	27435	1056223	46304	107886	0	0	8249	538605	0	0
2024-10-14 13:59:47			0	38683	0	0	0	21488	20080	159852	27569	1056259	46315	107888	0	0	8249	538605	0	0
2024-10-14 14:00:47			0	38675	0	0	0	21501	20070	159768	27450	1056134	46314	107893	0	0	8249	538945	0	0
2024-10-14 14:01:47			0	38698	0	0	0	21511	20080	159800	27495	1056197	46304	107897	0	0	8250	538022	0	0
2024-10-14 14:02:47			0	38699	0	0	0	21506	20080	159768	27585	1056197	46292	107895	0	0	8250	537983	0	0
2024-10-14 14:03:47			0	38750	0	0	0	21516	20070	159577	27528	1056214	46314	107899	0	0	8253	536034	0	0
2024-10-14 14:04:47			0	38742	0	0	0	21506	20070	159585	27403	1056214	46314	107895	0	0	8252	536345	0	0
2024-10-14 14:05:47			0	38749	0	0	0	21503	20080	159565	27637	1056303	46304	107894	0	0	8253	536044	0	0
2024-10-14 14:06:47			0	38741	0	0	0	21511	20080	159593	27474	1056197	46315	107897	0	0	8252	536354	0	0
2024-10-14 14:07:47			0	38726	0	0	0	21514	20080	159548	27635	1056205	46315	107898	0	0	8251	536935	0	0
2024-10-14 14:08:47			0	38753	0	0	0	21519	20080	159425	27493	1056276	46304	107900	0	0	8253	535889	0	0
2024-10-14 14:09:47			0	38744	0	0	0	21524	20090	159441	27203	1056303	46316	107902	0	0	8252	536208	0	0
2024-10-14 14:10:47			0	38767	0	0	0	21516	20090	159389	27679	1056321	46316	107899	0	0	8254	535317	0	0
2024-10-14 14:11:47			0	38790	0	0	0	21532	20090	159289	27630	1056321	46316	107905	0	0	8255	534427	0	0
2024-10-14 14:12:47			0	38794	0	0	0	21542	20090	159333	27426	1056347	46305	107909	0	0	8255	534272	0	0
2024-10-14 14:13:47			0	38789	0	0	0	21537	20100	159249	27661	1056312	46317	107907	0	0	8255	534436	0	0
2024-10-14 14:14:47			0	38769	0	0	0	21529	20090	159341	27384	1056357	46316	107904	0	0	8254	535239	0	0
2024-10-14 14:15:47			0	38780	0	0	0	21535	20100	159305	27540	1056392	46317	107906	0	0	8254	534784	0	0
2024-10-14 14:16:47			0	38786	0	0	0	21532	20100	159269	27696	1056312	46306	107905	0	0	8255	534552	0	0
2024-10-14 14:17:47			0	38779	0	0	0	21537	20090	159357	27547	1056357	46327	107907	0	0	8254	534852	0	0
2024-10-14 14:18:47			0	38764	0	0	0	21548	20090	159301	27670	1056330	46305	107911	0	0	8253	535433	0	0
2024-10-14 14:19:47			0	38784	0	0	0	21542	20100	159389	27743	1056339	46328	107909	0	0	8254	534629	0	0
2024-10-14 14:20:47			0	38785	0	0	0	21529	20100	159425	27873	1056339	46317	107904	0	0	8255	534591	0	0
2024-10-14 14:21:47			0	38777	0	0	0	21545	20100	159333	27869	1056375	46328	107910	0	0	8254	534900	0	0
2024-10-14 14:22:47			0	38797	0	0	0	21553	20110	159217	27492	1056392	46318	107913	0	0	8255	534097	0	0
2024-10-14 14:23:47			0	38791	0	0	0	21555	20100	159185	27661	1056401	46317	107914	0	0	8255	534359	0	0
2024-10-14 14:24:47			0	38790	0	0	0	21548	20110	159217	27445	1056383	46329	107911	0	0	8255	534368	0	0
2024-10-14 14:25:47			0	38793	0	0	0	21553	20110	159265	27848	1056446	46307	107913	0	0	8255	534252	0	0
2024-10-14 14:26:47			0	38800	0	0	0	21550	20110	159305	27673	1056446	46318	107912	0	0	8255	533981	0	0
2024-10-14 14:27:47			0	38788	0	0	0	21545	20110	159297	27448	1056516	46318	107910	0	0	8255	534445	0	0
2024-10-14 14:28:47			0	38774	0	0	0	21545	20100	159473	27689	1056454	46328	107910	0	0	8254	535016	0	0
2024-10-14 14:29:47			0	38737	0	0	0	21548	20120	159405	27448	1056410	46297	107911	0	0	8252	536390	0	0
2024-10-14 14:30:47			0	38739	0	0	0	21561	20120	159429	27755	1056410	46320	107916	0	0	8252	536313	0	0
2024-10-14 14:31:47			0	38757	0	0	0	21558	20120	159469	27850	1056455	46319	107915	0	0	8253	535615	0	0
2024-10-14 14:32:47			0	38753	0	0	0	21555	20130	159421	27658	1056472	46331	107914	0	0	8253	535741	0	0
2024-10-14 14:33:47			0	38755	0	0	0	21555	20120	159377	27633	1056464	46320	107914	0	0	8253	535693	0	0
2024-10-14 14:34:47			0	38768	0	0	0	21568	20130	159369	27395	1056526	46331	107919	0	0	8253	535160	0	0
2024-10-14 14:35:47			0	38769	0	0	0	21561	20140	159361	27940	1056490	46332	107916	0	0	8253	535092	0	0
2024-10-14 14:36:47			0	38778	0	0	0	21568	20120	159321	27847	1056455	46340	107919	0	0	8254	534803	0	0
2024-10-14 14:37:47			0	38811	0	0	0	21568	20130	159209	27708	1056552	46331	107919	0	0	8256	533497	0	0
2024-10-14 14:38:47			0	38812	0	0	0	21563	20130	159265	27685	1056526	46320	107917	0	0	8256	533459	0	0
2024-10-14 14:39:47			0	38796	0	0	0	21555	20130	159233	27524	1056499	46320	107914	0	0	8255	534077	0	0
2024-10-14 14:40:47			0	38805	0	0	0	21568	20130	159297	27395	1056535	46309	107919	0	0	8255	533729	0	0
2024-10-14 14:41:47			0	38829	0	0	0	21581	20120	159121	27604	1056517	46309	107924	0	0	8256	532831	0	0
2024-10-14 14:42:47			0	38877	0	0	0	21597	20140	158945	27352	1056544	46321	107930	0	0	8259	530922	0	0
2024-10-14 14:43:47			0	38924	0	0	0	21599	20140	158749	27431	1056597	46332	107931	0	0	8262	529113	0	0
2024-10-14 14:44:47			0	38954	0	0	0	21581	20150	158593	27789	1056641	46311	107924	0	0	8264	527931	0	0
2024-10-14 14:45:47			0	38933	0	0	0	21584	20140	158705	27358	1056623	46342	107925	0	0	8263	528767	0	0
2024-10-14 14:46:47			0	38935	0	0	0	21586	20150	158601	27616	1056624	46322	107926	0	0	8263	528661	0	0
2024-10-14 14:47:47			0	38997	0	0	0	21602	20160	158533	27850	1056659	46333	107932	0	0	8266	526253	0	0
2024-10-14 14:48:47			0	38982	0	0	0	21592	20160	158501	27464	1056668	46324	107928	0	0	8265	526828	0	0
2024-10-14 14:49:47			0	38970	0	0	0	21589	20150	158497	27883	1056624	46311	107927	0	0	8265	527317	0	0
2024-10-14 14:50:47			0	38985	0	0	0	21599	20160	158517	27300	1056659	46323	107931	0	0	8265	526713	0	0
2024-10-14 14:51:47			0	39005	0	0	0	21581	20150	158461	27334	1056650	46322	107924	0	0	8267	525975	0	0
2024-10-14 14:52:47			0	39004	0	0	0	21597	20160	158437	27320	1056641	46324	107930	0	0	8267	525985	0	0
2024-10-14 14:53:47			0	39020	0	0	0	21594	20160	158401	27554	1056659	46323	107929	0	0	8268	525372	0	0
2024-10-14 14:54:47			0	39024	0	0	0	21599	20170	158361	27518	1056704	46324	107931	0	0	8268	525190	0	0
2024-10-14 14:55:47			0	39043	0	0	0	21602	20160	158265	28036	1056668	46324	107932	0	0	8269	524492	0	0
2024-10-14 14:56:47			0	39066	0	0	0	21592	20170	158281	27789	1056677	46324	107928	0	0	8270	523584	0	0
2024-10-14 14:57:47			0	39076	0	0	0	21607	20160	158209	27296	1056686	46323	107934	0	0	8271	523231	0	0
2024-10-14 14:58:47			0	39126	0	0	0	21620	20180	157973	27507	1056748	46325	107939	0	0	8273	521266	0	0
2024-10-14 14:59:47			0	39149	0	0	0	21623	20160	157761	27838	1056695	46313	107940	0	0	8275	520447	0	0
2024-10-14 15:00:47			0	39182	0	0	0	21620	20180	157757	27694	1056757	46347	107939	0	0	8277	519134	0	0
2024-10-14 15:01:47			0	39193	0	0	0	21633	20170	157645	27581	1056713	46335	107944	0	0	8277	518745	0	0
2024-10-14 15:02:47			0	39217	0	0	0	21625	20180	157617	27838	1056837	46326	107941	0	0	8279	517805	0	0
2024-10-14 15:03:47			0	39229	0	0	0	21636	20190	157429	27835	1056819	46337	107945	0	0	8279	517321	0	0
2024-10-14 15:04:47			0	39259	0	0	0	21638	20180	157513	27798	1056837	46326	107946	0	0	8281	516212	0	0
2024-10-14 15:05:47			0	39262	0	0	0	21636	20200	157369	27705	1056864	46327	107945	0	0	8281	516042	0	0
2024-10-14 15:06:47			0	39271	0	0	0	21633	20190	157533	27431	1056855	46316	107944	0	0	8282	515729	0	0
2024-10-14 15:07:47			0	39250	0	0	0	21631	20200	157537	27128	1056837	46337	107943	0	0	8280	516496	0	0
2024-10-14 15:08:47			0	39219	0	0	0	21628	20200	157577	27654	1056810	46327	107942	0	0	8279	517672	0	0
2024-10-14 15:09:47			0	39237	0	0	0	21631	20200	157593	27500	1056873	46328	107943	0	0	8280	516989	0	0
2024-10-14 15:10:47			0	39242	0	0	0	21628	20190	157501	27729	1056855	46316	107942	0	0	8280	516828	0	0
2024-10-14 15:11:47			0	39292	0	0	0	21638	20200	157369	27835	1056837	46327	107946	0	0	8283	514906	0	0
2024-10-14 15:12:47			0	39303	0	0	0	21641	20200	157329	27852	1056784	46327	107947	0	0	8283	514490	0	0
2024-10-14 15:13:47			0	39284	0	0	0	21641	20190	157241	27535	1056855	46316	107947	0	0	8282	515237	0	0
2024-10-14 15:14:47			0	39380	0	0	0	21651	20210	157013	27500	1056944	46329	107951	0	0	8288	511555	0	0
2024-10-14 15:15:47			0	39399	0	0	0	21657	20210	156933	27509	1056908	46339	107953	0	0	8289	510840	0	0
2024-10-14 15:16:47			0	39421	0	0	0	21657	20210	156882	27455	1056961	46318	107953	0	0	8290	510011	0	0
2024-10-14 15:17:47			0	39365	0	0	0	21638	20210	156993	27237	1056944	46329	107946	0	0	8287	512121	0	0
2024-10-14 15:18:47			0	39374	0	0	0	21644	20220	156985	27606	1056962	46340	107948	0	0	8287	511753	0	0
2024-10-14 15:19:47			0	39328	0	0	0	21644	20210	156977	27736	1056917	46329	107948	0	0	8285	513517	0	0
2024-10-14 15:20:47			0	39322	0	0	0	21641	20220	157137	27599	1056935	46330	107947	0	0	8285	513715	0	0
2024-10-14 15:21:47			0	39304	0	0	0	21651	20220	157153	27362	1056909	46330	107951	0	0	8283	514396	0	0
2024-10-14 15:22:47			0	39352	0	0	0	21664	20230	157177	27906	1056953	46320	107956	0	0	8286	512554	0	0
2024-10-14 15:23:47			0	39357	0	0	0	21657	20230	156937	27523	1056918	46331	107953	0	0	8286	512366	0	0
2024-10-14 15:24:47			0	39325	0	0	0	21654	20220	157045	27795	1056962	46319	107952	0	0	8284	513602	0	0
2024-10-14 15:25:47			0	39363	0	0	0	21651	20230	156989	27467	1056997	46331	107951	0	0	8287	512140	0	0
2024-10-14 15:26:47			0	39386	0	0	0	21654	20220	156957	27398	1056962	46319	107952	0	0	8288	511301	0	0
2024-10-14 15:27:47			0	39371	0	0	0	21649	20230	157033	27509	1057006	46320	107950	0	0	8287	511838	0	0
2024-10-14 15:28:47			0	39369	0	0	0	21654	20220	157041	27319	1056935	46319	107952	0	0	8287	511942	0	0
2024-10-14 15:29:47			0	39371	0	0	0	21651	20220	157029	27769	1056953	46318	107951	0	0	8287	511866	0	0
2024-10-14 15:30:47			0	39369	0	0	0	21657	20230	156993	27599	1056980	46331	107953	0	0	8287	511913	0	0
2024-10-14 15:31:47			0	39359	0	0	0	21657	20230	157037	27618	1056997	46331	107953	0	0	8286	512290	0	0
2024-10-14 15:32:47			0	39348	0	0	0	21646	20240	157025	27338	1057024	46332	107949	0	0	8286	512677	0	0
2024-10-14 15:33:47			0	39336	0	0	0	21654	20230	157137	27332	1056971	46309	107952	0	0	8285	513158	0	0
2024-10-14 15:34:47			0	39338	0	0	0	21659	20230	157133	27530	1056980	46341	107954	0	0	8285	513083	0	0
2024-10-14 15:35:47			0	39344	0	0	0	21662	20230	157157	27490	1056997	46320	107955	0	0	8285	512856	0	0
2024-10-14 15:36:47			0	39347	0	0	0	21654	20230	157125	27346	1056997	46309	107952	0	0	8286	512743	0	0
2024-10-14 15:37:47			0	39361	0	0	0	21667	20230	157017	27362	1057006	46331	107957	0	0	8286	512215	0	0
2024-10-14 15:38:47			0	39360	0	0	0	21649	20240	157193	27611	1057069	46331	107950	0	0	8287	512224	0	0
2024-10-14 15:39:47			0	39324	0	0	0	21651	20240	157161	27386	1057042	46320	107951	0	0	8285	513583	0	0
2024-10-14 15:40:47			0	39294	0	0	0	21641	20230	157221	27128	1056980	46331	107947	0	0	8283	514745	0	0
2024-10-14 15:41:47			0	39291	0	0	0	21636	20230	157225	27100	1056944	46331	107945	0	0	8283	514859	0	0
2024-10-14 15:42:47			0	39305	0	0	0	21649	20240	157153	27190	1056998	46321	107950	0	0	8283	514301	0	0
2024-10-14 15:43:47			0	39303	0	0	0	21649	20220	157149	27383	1056980	46339	107950	0	0	8283	514433	0	0
2024-10-14 15:44:47			0	39315	0	0	0	21667	20220	157153	27386	1056980	46329	107957	0	0	8284	513980	0	0
2024-10-14 15:45:47			0	39317	0	0	0	21654	20240	157217	27248	1056989	46320	107952	0	0	8284	513848	0	0
2024-10-14 15:46:47			0	39295	0	0	0	21654	20240	157185	27507	1057042	46320	107952	0	0	8283	514679	0	0
2024-10-14 15:47:47			0	39303	0	0	0	21651	20230	157281	27467	1057077	46320	107951	0	0	8283	514405	0	0
2024-10-14 15:48:47			0	39283	0	0	0	21636	20240	157397	26998	1057015	46341	107945	0	0	8282	515133	0	0
2024-10-14 15:49:47			0	39269	0	0	0	21654	20240	157389	27732	1056998	46332	107952	0	0	8281	515663	0	0
2024-10-14 15:50:47			0	39287	0	0	0	21654	20230	157305	27235	1056997	46341	107952	0	0	8282	515010	0	0
2024-10-14 15:51:47			0	39298	0	0	0	21662	20230	157297	27166	1057006	46341	107955	0	0	8283	514594	0	0
2024-10-14 15:52:47			0	39311	0	0	0	21670	20250	157213	27338	1057007	46322	107958	0	0	8284	514046	0	0
2024-10-14 15:53:47			0	39310	0	0	0	21672	20240	157369	27076	1057042	46331	107959	0	0	8283	514112	0	0
2024-10-14 15:54:47			0	39281	0	0	0	21680	20240	157265	27488	1057015	46331	107962	0	0	8282	515209	0	0
2024-10-14 15:55:47			0	39295	0	0	0	21667	20230	157217	27313	1057006	46341	107957	0	0	8283	514708	0	0
2024-10-14 15:56:47			0	39288	0	0	0	21667	20260	157313	27241	1057095	46333	107957	0	0	8282	514887	0	0
2024-10-14 15:57:47			0	39284	0	0	0	21664	20230	157301	27190	1057033	46341	107956	0	0	8282	515124	0	0
2024-10-14 15:58:47			0	39294	0	0	0	21670	20240	157285	27119	1057015	46331	107958	0	0	8282	514717	0	0
2024-10-14 15:59:47			0	39271	0	0	0	21672	20240	157337	27457	1057015	46331	107959	0	0	8281	515587	0	0
2024-10-14 16:00:47			0	39279	0	0	0	21664	20240	157305	27092	1057051	46321	107956	0	0	8282	515284	0	0
2024-10-14 16:01:47			0	39294	0	0	0	21664	20240	157305	27203	1057042	46341	107956	0	0	8283	514717	0	0
2024-10-14 16:02:47			0	39312	0	0	0	21680	20240	157121	27274	1057015	46341	107962	0	0	8283	514036	0	0
2024-10-14 16:03:47			0	39304	0	0	0	21693	20240	157101	27185	1057078	46332	107967	0	0	8283	514339	0	0
2024-10-14 16:04:47			0	39339	0	0	0	21696	20260	157013	27150	1057175	46344	107968	0	0	8285	512960	0	0
2024-10-14 16:05:47			0	39352	0	0	0	21701	20240	157033	27192	1057078	46342	107970	0	0	8285	512526	0	0
2024-10-14 16:06:47			0	39394	0	0	0	21709	20240	157013	27298	1057157	46332	107973	0	0	8288	510943	0	0
2024-10-14 16:07:47			0	39397	0	0	0	21709	20270	156845	27282	1057220	46323	107973	0	0	8288	510746	0	0
2024-10-14 16:08:47			0	39408	0	0	0	21722	20260	156813	27507	1057184	46323	107978	0	0	8288	510360	0	0
2024-10-14 16:09:47			0	39476	0	0	0	21722	20270	156618	27339	1057220	46333	107978	0	0	8292	507777	0	0
2024-10-14 16:10:47			0	39475	0	0	0	21719	20260	156658	27384	1057228	46344	107977	0	0	8292	507842	0	0
2024-10-14 16:11:47			0	39429	0	0	0	21724	20270	156690	27416	1057175	46324	107979	0	0	8290	509542	0	0
2024-10-14 16:12:47			0	39421	0	0	0	21716	20280	156778	27419	1057211	46335	107976	0	0	8289	509814	0	0
2024-10-14 16:13:47			0	39410	0	0	0	21716	20270	156942	27005	1057202	46334	107976	0	0	8289	510256	0	0
2024-10-14 16:14:47			0	39364	0	0	0	21709	20270	156897	27010	1057229	46334	107973	0	0	8286	511989	0	0
2024-10-14 16:15:47			0	39324	0	0	0	21701	20280	157081	27249	1057220	46335	107970	0	0	8284	513470	0	0
2024-10-14 16:16:47			0	39286	0	0	0	21711	20280	157345	27026	1057184	46346	107974	0	0	8282	514906	0	0
2024-10-14 16:17:47			0	39265	0	0	0	21709	20280	157237	27590	1057211	46325	107973	0	0	8280	515700	0	0
2024-10-14 16:18:47			0	39290	0	0	0	21714	20280	157201	27509	1057238	46346	107975	0	0	8282	514754	0	0
2024-10-14 16:19:47			0	39301	0	0	0	21716	20290	157269	27372	1057282	46335	107976	0	0	8282	514310	0	0
2024-10-14 16:20:47			0	39300	0	0	0	21722	20280	157161	26998	1057247	46335	107978	0	0	8282	514376	0	0
2024-10-14 16:21:47			0	39332	0	0	0	21722	20290	157145	27261	1057202	46335	107978	0	0	8284	513139	0	0
2024-10-14 16:22:47			0	39303	0	0	0	21709	20280	157173	27502	1057247	46325	107973	0	0	8283	514263	0	0
2024-10-14 16:23:47			0	39294	0	0	0	21709	20280	157097	27419	1057184	46335	107973	0	0	8282	514603	0	0
2024-10-14 16:24:47			0	39281	0	0	0	21709	20290	157221	27291	1057229	46335	107973	0	0	8281	515066	0	0
2024-10-14 16:25:47			0	39300	0	0	0	21709	20280	157133	27497	1057220	46335	107973	0	0	8282	514376	0	0
2024-10-14 16:26:47			0	39303	0	0	0	21703	20290	157209	27358	1057202	46346	107971	0	0	8283	514235	0	0
2024-10-14 16:27:47			0	39308	0	0	0	21698	20290	157173	27417	1057176	46325	107969	0	0	8283	514046	0	0
2024-10-14 16:28:47			0	39279	0	0	0	21696	20280	157297	27327	1057167	46346	107968	0	0	8281	515171	0	0
2024-10-14 16:29:47			0	39293	0	0	0	21703	20270	157193	27580	1057166	46323	107971	0	0	8282	514669	0	0
2024-10-14 16:30:47			0	39287	0	0	0	21709	20280	157273	27530	1057220	46346	107973	0	0	8282	514868	0	0
2024-10-14 16:31:47			0	39286	0	0	0	21701	20280	157241	27246	1057167	46346	107970	0	0	8282	514906	0	0
2024-10-14 16:32:47			0	39312	0	0	0	21709	20280	157357	27144	1057193	46335	107973	0	0	8283	513923	0	0
2024-10-14 16:33:47			0	39302	0	0	0	21711	20280	157153	27403	1057184	46325	107974	0	0	8282	514301	0	0
2024-10-14 16:34:47			0	39304	0	0	0	21711	20280	157185	27588	1057131	46335	107974	0	0	8283	514225	0	0
2024-10-14 16:35:47			0	39305	0	0	0	21703	20280	157277	27537	1057193	46325	107971	0	0	8283	514187	0	0
2024-10-14 16:36:47			0	39324	0	0	0	21706	20290	157197	27384	1057202	46335	107972	0	0	8284	513441	0	0
2024-10-14 16:37:47			0	39328	0	0	0	21722	20280	157197	27390	1057238	46335	107978	0	0	8284	513319	0	0
2024-10-14 16:38:47			0	39327	0	0	0	21716	20280	157157	27270	1057220	46346	107976	0	0	8284	513356	0	0
2024-10-14 16:39:47			0	39341	0	0	0	21722	20290	157025	27618	1057238	46347	107978	0	0	8285	512800	0	0
2024-10-14 16:40:47			0	39351	0	0	0	21716	20280	157049	27255	1057238	46346	107976	0	0	8285	512451	0	0
2024-10-14 16:41:47			0	39362	0	0	0	21724	20280	157089	27315	1057220	46346	107979	0	0	8286	512036	0	0
2024-10-14 16:42:47			0	39349	0	0	0	21716	20290	157061	27391	1057309	46346	107976	0	0	8285	512498	0	0
2024-10-14 16:43:47			0	39359	0	0	0	21719	20290	156949	27275	1057211	46326	107977	0	0	8286	512121	0	0
2024-10-14 16:44:47			0	39353	0	0	0	21722	20290	156889	27519	1057256	46335	107978	0	0	8285	512347	0	0
2024-10-14 16:45:47			0	39408	0	0	0	21727	20290	156853	27415	1057256	46335	107980	0	0	8288	510275	0	0
2024-10-14 16:46:47			0	39421	0	0	0	21735	20290	156678	27675	1057344	46347	107983	0	0	8289	509786	0	0
2024-10-14 16:47:47			0	39429	0	0	0	21732	20300	156738	27232	1057353	46337	107982	0	0	8290	509457	0	0
2024-10-14 16:48:47			0	39430	0	0	0	21735	20300	156690	27611	1057327	46337	107983	0	0	8290	509420	0	0
2024-10-14 16:49:47			0	39430	0	0	0	21732	20300	156658	27391	1057309	46337	107982	0	0	8290	509420	0	0
2024-10-14 16:50:47			0	39457	0	0	0	21735	20300	156678	27324	1057300	46348	107983	0	0	8291	508405	0	0
2024-10-14 16:51:47			0	39460	0	0	0	21742	20300	156550	27041	1057353	46348	107986	0	0	8291	508293	0	0
2024-10-14 16:52:47			0	39458	0	0	0	21748	20300	156594	27237	1057282	46327	107988	0	0	8291	508368	0	0
2024-10-14 16:53:47			0	39500	0	0	0	21745	20290	156570	27119	1057318	46347	107987	0	0	8293	506821	0	0
2024-10-14 16:54:47			0	39496	0	0	0	21742	20300	156362	27395	1057336	46337	107986	0	0	8293	506943	0	0
2024-10-14 16:55:47			0	39504	0	0	0	21737	20300	156362	27417	1057362	46327	107984	0	0	8294	506643	0	0
2024-10-14 16:56:47			0	39488	0	0	0	21750	20310	156382	27429	1057371	46348	107989	0	0	8293	507214	0	0
2024-10-14 16:57:47			0	39490	0	0	0	21745	20300	156466	27350	1057362	46337	107987	0	0	8293	507167	0	0
2024-10-14 16:58:47			0	39504	0	0	0	21742	20300	156466	27422	1057327	46348	107986	0	0	8294	506643	0	0
2024-10-14 16:59:47			0	39487	0	0	0	21737	20300	156518	27364	1057327	46316	107984	0	0	8293	507280	0	0
2024-10-14 17:00:47			0	39442	0	0	0	21729	20300	156602	27220	1057309	46337	107981	0	0	8290	508969	0	0
2024-10-14 17:01:47			0	39452	0	0	0	21740	20300	156574	27407	1057389	46337	107985	0	0	8291	508593	0	0
2024-10-14 17:02:47			0	39422	0	0	0	21722	20300	156706	27428	1057309	46337	107978	0	0	8289	509720	0	0
2024-10-14 17:03:47			0	39449	0	0	0	21735	20310	156690	27329	1057371	46337	107983	0	0	8291	508678	0	0
2024-10-14 17:04:47			0	39439	0	0	0	21737	20310	156726	27284	1057380	46338	107984	0	0	8290	509053	0	0
2024-10-14 17:05:47			0	39441	0	0	0	21742	20310	156802	27327	1057371	46327	107986	0	0	8290	508978	0	0
2024-10-14 17:06:47			0	39466	0	0	0	21735	20310	156646	27388	1057380	46328	107983	0	0	8292	508040	0	0
2024-10-14 17:07:47			0	39465	0	0	0	21737	20290	156542	27523	1057371	46336	107984	0	0	8291	508133	0	0
2024-10-14 17:08:47			0	39471	0	0	0	21732	20310	156550	27524	1057371	46337	107982	0	0	8292	507852	0	0
2024-10-14 17:09:47			0	39470	0	0	0	21732	20300	156510	27112	1057362	46360	107982	0	0	8292	507918	0	0
2024-10-14 17:10:47			0	39460	0	0	0	21737	20310	156622	27306	1057371	46337	107984	0	0	8291	508265	0	0
2024-10-14 17:11:47			0	39444	0	0	0	21732	20300	156638	26965	1057362	46348	107982	0	0	8290	508894	0	0
2024-10-14 17:12:47			0	39441	0	0	0	21729	20300	156686	27339	1057309	46327	107981	0	0	8290	509006	0	0
2024-10-14 17:13:47			0	39400	0	0	0	21729	20300	156829	27429	1057336	46337	107981	0	0	8288	510548	0	0
2024-10-14 17:14:47			0	39383	0	0	0	21719	20300	156893	27409	1057327	46337	107977	0	0	8287	511188	0	0
2024-10-14 17:15:47			0	39344	0	0	0	21727	20300	157097	27332	1057220	46337	107980	0	0	8285	512658	0	0
2024-10-14 17:16:47			0	39367	0	0	0	21732	20300	156909	27248	1057282	46337	107982	0	0	8286	511791	0	0
2024-10-14 17:17:47			0	39340	0	0	0	21709	20300	156997	27518	1057336	46337	107973	0	0	8285	512809	0	0
2024-10-14 17:18:47			0	39323	0	0	0	21714	20300	157129	27509	1057282	46348	107975	0	0	8284	513451	0	0
2024-10-14 17:19:47			0	39303	0	0	0	21716	20290	157145	27474	1057344	46336	107976	0	0	8282	514235	0	0
2024-10-14 17:20:47			0	39287	0	0	0	21711	20300	157181	27478	1057282	46348	107974	0	0	8282	514811	0	0
2024-10-14 17:21:47			0	39283	0	0	0	21722	20300	157193	27248	1057300	46348	107978	0	0	8281	514962	0	0
2024-10-14 17:22:47			0	39269	0	0	0	21722	20290	157273	27251	1057318	46336	107978	0	0	8280	515520	0	0
2024-10-14 17:23:47			0	39282	0	0	0	21716	20300	157297	27270	1057309	46348	107976	0	0	8281	515000	0	0
2024-10-14 17:24:47			0	39256	0	0	0	21709	20290	157325	27007	1057291	46336	107973	0	0	8280	516013	0	0
2024-10-14 17:25:47			0	39260	0	0	0	21709	20290	157361	27088	1057291	46336	107973	0	0	8280	515861	0	0
2024-10-14 17:26:47			0	39254	0	0	0	21706	20290	157457	27561	1057264	46336	107972	0	0	8280	516088	0	0
2024-10-14 17:27:47			0	39225	0	0	0	21714	20280	157473	27248	1057273	46335	107975	0	0	8278	517216	0	0
2024-10-14 17:28:47			0	39249	0	0	0	21722	20290	157481	27419	1057282	46335	107978	0	0	8279	516278	0	0
2024-10-14 17:29:47			0	39257	0	0	0	21719	20290	157373	27357	1057256	46325	107977	0	0	8280	515975	0	0
2024-10-14 17:30:47			0	39258	0	0	0	21724	20290	157369	27232	1057229	46335	107979	0	0	8280	515937	0	0
2024-10-14 17:31:47			0	39271	0	0	0	21732	20290	157281	27033	1057318	46347	107982	0	0	8280	515445	0	0
2024-10-14 17:32:47			0	39267	0	0	0	21719	20290	157393	27294	1057282	46325	107977	0	0	8280	515596	0	0
2024-10-14 17:33:47			0	39287	0	0	0	21727	20290	157153	27043	1057238	46326	107980	0	0	8281	514840	0	0
2024-10-14 17:34:47			0	39291	0	0	0	21714	20290	157313	27196	1057309	46335	107975	0	0	8282	514688	0	0
2024-10-14 17:35:47			0	39283	0	0	0	21706	20290	157289	27500	1057264	46336	107972	0	0	8281	514991	0	0
2024-10-14 17:36:47			0	39278	0	0	0	21716	20300	157241	27360	1057247	46327	107976	0	0	8281	515152	0	0
2024-10-14 17:37:47			0	39292	0	0	0	21706	20300	157193	27111	1057300	46327	107972	0	0	8282	514622	0	0
2024-10-14 17:38:47			0	39293	0	0	0	21709	20290	157197	27157	1057264	46336	107973	0	0	8282	514613	0	0
2024-10-14 17:39:47			0	39302	0	0	0	21701	20290	157089	27481	1057309	46335	107970	0	0	8283	514272	0	0
2024-10-14 17:40:47			0	39281	0	0	0	21703	20290	157153	27291	1057291	46326	107971	0	0	8281	515066	0	0
2024-10-14 17:41:47			0	39304	0	0	0	21696	20290	157233	27180	1057344	46326	107968	0	0	8283	514197	0	0
2024-10-14 17:42:47			0	39304	0	0	0	21709	20280	157229	27374	1057247	46335	107973	0	0	8283	514225	0	0
2024-10-14 17:43:47			0	39299	0	0	0	21706	20280	157333	27270	1057264	46335	107972	0	0	8282	514414	0	0
2024-10-14 17:44:47			0	39275	0	0	0	21703	20290	157293	27203	1057264	46336	107971	0	0	8281	515293	0	0
2024-10-14 17:45:47			0	39251	0	0	0	21703	20290	157349	27150	1057202	46335	107971	0	0	8280	516202	0	0
2024-10-14 17:46:47			0	39262	0	0	0	21690	20280	157377	27485	1057193	46346	107966	0	0	8280	515814	0	0
2024-10-14 17:47:47			0	39270	0	0	0	21685	20280	157309	26873	1057220	46325	107964	0	0	8281	515511	0	0
2024-10-14 17:48:47			0	39261	0	0	0	21685	20280	157325	27296	1057220	46325	107964	0	0	8280	515852	0	0
2024-10-14 17:49:47			0	39260	0	0	0	21688	20290	157357	27360	1057229	46346	107965	0	0	8280	515861	0	0
2024-10-14 17:50:47			0	39262	0	0	0	21685	20270	157333	27289	1057149	46334	107964	0	0	8281	515842	0	0
2024-10-14 17:51:47			0	39228	0	0	0	21685	20280	157421	27443	1057158	46335	107964	0	0	8279	517102	0	0
2024-10-14 17:52:47			0	39240	0	0	0	21670	20270	157433	27105	1057175	46345	107958	0	0	8279	516676	0	0
2024-10-14 17:53:47			0	39205	0	0	0	21680	20270	157589	27371	1057149	46345	107962	0	0	8277	518003	0	0
2024-10-14 17:54:47			0	39219	0	0	0	21680	20270	157701	27185	1057087	46333	107962	0	0	8278	517472	0	0
2024-10-14 17:55:47			0	39240	0	0	0	21672	20260	157561	27488	1057175	46323	107959	0	0	8279	516704	0	0
2024-10-14 17:56:47			0	39205	0	0	0	21680	20250	157597	27466	1057060	46322	107962	0	0	8277	518060	0	0
2024-10-14 17:57:47			0	39204	0	0	0	21683	20260	157685	27294	1057158	46323	107963	0	0	8277	518070	0	0
2024-10-14 17:58:47			0	39180	0	0	0	21675	20270	157765	27542	1057087	46333	107960	0	0	8276	518953	0	0
2024-10-14 17:59:47			0	39180	0	0	0	21664	20260	157837	27467	1057069	46312	107956	0	0	8276	518981	0	0
2024-10-14 18:00:47			0	39153	0	0	0	21657	20260	157845	27296	1057131	46333	107953	0	0	8275	520008	0	0
2024-10-14 18:01:47			0	39151	0	0	0	21667	20260	157941	27338	1057131	46344	107957	0	0	8274	520084	0	0
2024-10-14 18:02:47			0	39145	0	0	0	21670	20260	157965	27192	1057095	46323	107958	0	0	8274	520312	0	0
2024-10-14 18:03:47			0	39142	0	0	0	21657	20260	157969	27467	1057078	46333	107953	0	0	8274	520426	0	0
2024-10-14 18:04:47			0	39101	0	0	0	21657	20240	157985	27530	1057051	46332	107953	0	0	8272	522046	0	0
2024-10-14 18:05:47			0	39102	0	0	0	21651	20240	158133	27317	1057069	46341	107951	0	0	8272	522008	0	0
2024-10-14 18:06:47			0	39102	0	0	0	21664	20260	158089	27369	1057095	46333	107956	0	0	8272	521950	0	0
2024-10-14 18:07:47			0	39103	0	0	0	21664	20250	158097	27644	1057113	46333	107956	0	0	8272	521941	0	0
2024-10-14 18:08:47			0	39111	0	0	0	21667	20240	158013	27267	1057104	46332	107957	0	0	8272	521665	0	0
2024-10-14 18:09:47			0	39110	0	0	0	21664	20260	158013	27296	1057069	46323	107956	0	0	8272	521645	0	0
2024-10-14 18:10:47			0	39128	0	0	0	21659	20240	158029	27267	1057078	46332	107954	0	0	8273	521017	0	0
2024-10-14 18:11:47			0	39115	0	0	0	21654	20250	158045	27452	1057033	46333	107952	0	0	8272	521483	0	0
2024-10-14 18:12:47			0	39073	0	0	0	21636	20240	158185	27438	1056998	46332	107945	0	0	8270	523114	0	0
2024-10-14 18:13:47			0	39020	0	0	0	21638	20240	158337	27029	1056989	46331	107946	0	0	8267	525140	0	0
2024-10-14 18:14:47			0	39029	0	0	0	21646	20230	158369	27313	1056980	46320	107949	0	0	8267	524825	0	0
2024-10-14 18:15:47			0	39003	0	0	0	21649	20230	158473	27443	1057060	46331	107950	0	0	8266	525820	0	0
2024-10-14 18:16:47			0	38946	0	0	0	21636	20240	158593	27367	1056998	46332	107945	0	0	8263	527976	0	0
2024-10-14 18:17:47			0	38947	0	0	0	21636	20230	158693	27230	1057006	46309	107945	0	0	8263	527967	0	0
2024-10-14 18:18:47			0	38933	0	0	0	21633	20230	158657	27211	1056997	46331	107944	0	0	8262	528504	0	0
2024-10-14 18:19:47			0	38897	0	0	0	21623	20220	158837	27227	1056989	46330	107940	0	0	8260	529917	0	0
2024-10-14 18:20:47			0	38863	0	0	0	21620	20230	159041	27365	1056918	46320	107939	0	0	8258	531197	0	0
2024-10-14 18:21:47			0	38832	0	0	0	21623	20220	159177	27640	1056953	46329	107940	0	0	8256	532422	0	0
2024-10-14 18:22:47			0	38842	0	0	0	21623	20230	159061	27303	1056971	46331	107940	0	0	8257	532007	0	0
2024-10-14 18:23:47			0	38816	0	0	0	21636	20220	159193	27298	1056909	46340	107945	0	0	8255	533039	0	0
2024-10-14 18:24:47			0	38800	0	0	0	21615	20220	159209	27341	1056873	46318	107937	0	0	8255	533657	0	0
2024-10-14 18:25:47			0	38782	0	0	0	21620	20200	159301	27350	1056926	46328	107939	0	0	8253	534412	0	0
2024-10-14 18:26:47			0	38786	0	0	0	21620	20200	159473	27407	1056819	46317	107939	0	0	8254	534257	0	0
2024-10-14 18:27:47			0	38763	0	0	0	21610	20200	159369	27459	1056819	46317	107935	0	0	8253	535147	0	0
2024-10-14 18:28:47			0	38769	0	0	0	21620	20210	159389	27201	1056855	46307	107939	0	0	8253	534885	0	0
2024-10-14 18:29:47			0	38767	0	0	0	21620	20210	159341	26974	1056882	46339	107939	0	0	8253	534963	0	0
2024-10-14 18:30:47			0	38787	0	0	0	21628	20200	159309	27376	1056837	46316	107942	0	0	8254	534219	0	0
2024-10-14 18:31:47			0	38808	0	0	0	21620	20200	159221	27526	1056873	46328	107939	0	0	8255	533407	0	0
2024-10-14 18:32:47			0	38835	0	0	0	21623	20200	159077	27170	1056890	46337	107940	0	0	8256	532365	0	0
2024-10-14 18:33:47			0	38812	0	0	0	21620	20200	159285	27157	1056926	46338	107939	0	0	8255	533253	0	0
2024-10-14 18:34:47			0	38801	0	0	0	21615	20200	159205	27372	1056873	46338	107937	0	0	8255	533677	0	0
2024-10-14 18:35:47			0	38775	0	0	0	21605	20190	159253	27327	1056819	46327	107933	0	0	8253	534712	0	0
2024-10-14 18:36:47			0	38793	0	0	0	21618	20190	159365	27116	1056855	46327	107938	0	0	8254	534016	0	0
2024-10-14 18:37:47			0	38773	0	0	0	21620	20190	159461	27218	1056846	46327	107939	0	0	8253	534789	0	0
2024-10-14 18:38:47			0	38790	0	0	0	21612	20190	159325	27258	1056801	46316	107936	0	0	8254	534132	0	0
2024-10-14 18:39:47			0	38773	0	0	0	21615	20180	159321	27687	1056810	46336	107937	0	0	8253	534819	0	0
2024-10-14 18:40:47			0	38787	0	0	0	21615	20180	159413	27222	1056863	46336	107937	0	0	8254	534278	0	0
2024-10-14 18:41:47			0	38768	0	0	0	21612	20180	159393	27400	1056863	46326	107936	0	0	8253	535012	0	0
2024-10-14 18:42:47			0	38741	0	0	0	21615	20180	159421	27410	1056854	46325	107937	0	0	8251	536058	0	0
2024-10-14 18:43:47			0	38722	0	0	0	21615	20180	159436	27192	1056828	46335	107937	0	0	8250	536794	0	0
2024-10-14 18:44:47			0	38730	0	0	0	21607	20180	159533	27204	1056837	46326	107934	0	0	8251	536484	0	0
2024-10-14 18:45:47			0	38723	0	0	0	21618	20180	159469	27313	1056801	46325	107938	0	0	8250	536755	0	0
2024-10-14 18:46:47			0	38728	0	0	0	21615	20180	159449	27497	1056810	46336	107937	0	0	8250	536562	0	0
2024-10-14 18:47:47			0	38746	0	0	0	21620	20190	159597	27225	1056819	46327	107939	0	0	8251	535835	0	0
2024-10-14 18:48:47			0	38754	0	0	0	21620	20190	159609	27378	1056846	46337	107939	0	0	8252	535525	0	0
2024-10-14 18:49:47			0	38744	0	0	0	21623	20170	159497	27294	1056819	46325	107940	0	0	8251	535971	0	0
2024-10-14 18:50:47			0	38739	0	0	0	21625	20180	159445	27020	1056908	46314	107941	0	0	8251	536135	0	0
2024-10-14 18:51:47			0	38734	0	0	0	21623	20180	159488	27064	1056837	46336	107940	0	0	8251	536329	0	0
2024-10-14 18:52:47			0	38737	0	0	0	21623	20180	159525	27190	1056837	46326	107940	0	0	8251	536213	0	0
2024-10-14 18:53:47			0	38755	0	0	0	21623	20180	159333	27293	1056828	46335	107940	0	0	8252	535516	0	0
2024-10-14 18:54:47			0	38755	0	0	0	21623	20190	159453	27282	1056801	46327	107940	0	0	8252	535486	0	0
2024-10-14 18:55:47			0	38760	0	0	0	21623	20180	159469	27000	1056863	46326	107940	0	0	8252	535322	0	0
2024-10-14 18:56:47			0	38742	0	0	0	21618	20190	159437	27189	1056819	46337	107938	0	0	8251	535989	0	0
2024-10-14 18:57:47			0	38769	0	0	0	21625	20190	159365	27100	1056828	46327	107941	0	0	8253	534944	0	0
2024-10-14 18:58:47			0	38770	0	0	0	21633	20180	159345	27419	1056863	46326	107944	0	0	8252	534935	0	0
2024-10-14 18:59:47			0	38785	0	0	0	21638	20190	159325	27360	1056855	46337	107946	0	0	8253	534325	0	0
2024-10-14 19:00:47			0	38769	0	0	0	21636	20190	159305	27185	1056926	46337	107945	0	0	8252	534944	0	0
2024-10-14 19:01:47			0	38773	0	0	0	21631	20190	159285	27291	1056828	46337	107943	0	0	8253	534789	0	0
2024-10-14 19:02:47			0	38769	0	0	0	21625	20190	159261	27138	1056881	46327	107941	0	0	8253	534944	0	0
2024-10-14 19:03:47			0	38774	0	0	0	21638	20190	159209	27358	1056899	46327	107946	0	0	8253	534751	0	0
2024-10-14 19:04:47			0	38781	0	0	0	21623	20200	159429	27367	1056864	46337	107940	0	0	8253	534451	0	0
2024-10-14 19:05:47			0	38781	0	0	0	21602	20200	159373	27303	1056899	46306	107932	0	0	8254	534451	0	0
2024-10-14 19:06:47			0	38752	0	0	0	21615	20180	159301	27007	1056837	46336	107937	0	0	8252	535632	0	0
2024-10-14 19:07:47			0	38761	0	0	0	21602	20190	159329	27286	1056828	46316	107932	0	0	8252	535254	0	0
2024-10-14 19:08:47			0	38753	0	0	0	21602	20180	159353	27133	1056863	46336	107932	0	0	8252	535593	0	0
2024-10-14 19:09:47			0	38771	0	0	0	21615	20190	159293	27111	1056801	46327	107937	0	0	8253	534867	0	0
2024-10-14 19:10:47			0	38773	0	0	0	21618	20180	159241	27222	1056837	46326	107938	0	0	8253	534819	0	0
2024-10-14 19:11:47			0	38789	0	0	0	21620	20190	159265	27109	1056819	46316	107939	0	0	8254	534171	0	0
2024-10-14 19:12:47			0	38808	0	0	0	21633	20190	159149	27085	1056793	46327	107944	0	0	8255	533436	0	0
2024-10-14 19:13:47			0	38850	0	0	0	21633	20190	159077	27327	1056801	46327	107944	0	0	8257	531816	0	0
2024-10-14 19:14:47			0	38860	0	0	0	21633	20180	159041	27313	1056784	46336	107944	0	0	8258	531459	0	0
2024-10-14 19:15:47			0	38832	0	0	0	21620	20190	159057	27296	1056846	46337	107939	0	0	8256	532510	0	0
2024-10-14 19:16:47			0	38818	0	0	0	21623	20190	159341	27239	1056828	46327	107940	0	0	8255	533050	0	0
2024-10-14 19:17:47			0	38786	0	0	0	21607	20180	159325	27305	1056810	46326	107934	0	0	8254	534316	0	0
2024-10-14 19:18:47			0	38757	0	0	0	21615	20190	159393	27098	1056819	46327	107937	0	0	8252	535409	0	0
2024-10-14 19:19:47			0	38746	0	0	0	21599	20190	159313	27249	1056828	46327	107931	0	0	8252	535835	0	0
2024-10-14 19:20:47			0	38748	0	0	0	21592	20190	159429	27144	1056766	46316	107928	0	0	8252	535757	0	0
2024-10-14 19:21:47			0	38721	0	0	0	21592	20180	159568	27237	1056757	46315	107928	0	0	8250	536833	0	0
2024-10-14 19:22:47			0	38708	0	0	0	21584	20170	159604	26821	1056739	46314	107925	0	0	8250	537367	0	0
2024-10-14 19:23:47			0	38692	0	0	0	21594	20180	159768	27307	1056721	46335	107929	0	0	8249	537958	0	0
2024-10-14 19:24:47			0	38691	0	0	0	21584	20180	159636	27216	1056748	46335	107925	0	0	8249	537997	0	0
2024-10-14 19:25:47			0	38692	0	0	0	21586	20160	159672	26873	1056695	46313	107926	0	0	8249	538018	0	0
2024-10-14 19:26:47			0	38690	0	0	0	21594	20170	159800	27222	1056730	46313	107929	0	0	8248	538066	0	0
2024-10-14 19:27:47			0	38689	0	0	0	21597	20170	159744	27111	1056704	46324	107930	0	0	8248	538104	0	0
2024-10-14 19:28:47			0	38671	0	0	0	21589	20170	159672	27242	1056659	46325	107927	0	0	8247	538804	0	0
2024-10-14 19:29:47			0	38680	0	0	0	21592	20160	159752	27343	1056721	46313	107928	0	0	8248	538484	0	0
2024-10-14 19:30:47			0	38687	0	0	0	21594	20160	159664	27272	1056721	46324	107929	0	0	8248	538212	0	0
2024-10-14 19:31:47			0	38685	0	0	0	21597	20170	159672	26904	1056704	46324	107930	0	0	8248	538260	0	0
2024-10-14 19:32:47			0	38678	0	0	0	21599	20170	159792	26961	1056677	46324	107931	0	0	8248	538532	0	0
2024-10-14 19:33:47			0	38692	0	0	0	21592	20160	159748	27384	1056748	46324	107928	0	0	8248	538018	0	0
2024-10-14 19:34:47			0	38698	0	0	0	21615	20170	159712	26915	1056704	46324	107937	0	0	8249	537755	0	0
2024-10-14 19:35:47			0	38726	0	0	0	21610	20160	159712	27201	1056739	46333	107935	0	0	8250	536698	0	0
2024-10-14 19:36:47			0	38727	0	0	0	21610	20170	159593	27235	1056704	46334	107935	0	0	8250	536630	0	0
2024-10-14 19:37:47			0	38737	0	0	0	21610	20170	159405	27097	1056757	46324	107935	0	0	8251	536242	0	0
2024-10-14 19:38:47			0	38735	0	0	0	21602	20170	159333	27282	1056792	46335	107932	0	0	8251	536320	0	0
2024-10-14 19:39:47			0	38744	0	0	0	21602	20170	159421	27336	1056766	46335	107932	0	0	8251	535971	0	0
2024-10-14 19:40:47			0	38730	0	0	0	21597	20170	159497	27175	1056757	46324	107930	0	0	8251	536514	0	0
2024-10-14 19:41:47			0	38734	0	0	0	21586	20180	159525	27324	1056695	46335	107926	0	0	8251	536329	0	0
2024-10-14 19:42:47			0	38716	0	0	0	21579	20170	159612	27105	1056766	46314	107923	0	0	8250	537057	0	0
2024-10-14 19:43:47			0	38714	0	0	0	21579	20180	159648	26981	1056748	46325	107923	0	0	8250	537104	0	0
2024-10-14 19:44:47			0	38704	0	0	0	21573	20170	159636	27267	1056730	46313	107921	0	0	8250	537522	0	0
2024-10-14 19:45:47			0	38685	0	0	0	21568	20170	159724	27291	1056677	46324	107919	0	0	8249	538260	0	0
2024-10-14 19:46:47			0	38696	0	0	0	21555	20160	159752	27222	1056748	46324	107914	0	0	8249	537862	0	0
2024-10-14 19:47:47			0	38685	0	0	0	21561	20160	159740	27234	1056686	46323	107916	0	0	8249	538289	0	0
2024-10-14 19:48:47			0	38697	0	0	0	21566	20160	159760	27261	1056686	46323	107918	0	0	8249	537823	0	0
2024-10-14 19:49:47			0	38687	0	0	0	21563	20160	159724	27367	1056659	46323	107917	0	0	8249	538212	0	0
2024-10-14 19:50:47			0	38691	0	0	0	21561	20150	159732	27379	1056561	46311	107916	0	0	8249	538086	0	0
2024-10-14 19:51:47			0	38683	0	0	0	21561	20140	159704	27100	1056597	46321	107916	0	0	8248	538427	0	0
2024-10-14 19:52:47			0	38688	0	0	0	21555	20150	159700	27326	1056615	46322	107914	0	0	8249	538203	0	0
2024-10-14 19:53:47			0	38700	0	0	0	21558	20140	159692	27294	1056623	46321	107915	0	0	8249	537766	0	0
2024-10-14 19:54:47			0	38689	0	0	0	21553	20140	159592	27286	1056623	46321	107913	0	0	8249	538194	0	0
2024-10-14 19:55:47			0	38686	0	0	0	21550	20130	159648	27518	1056588	46331	107912	0	0	8249	538340	0	0
2024-10-14 19:56:47			0	38692	0	0	0	21558	20130	159684	27046	1056508	46320	107915	0	0	8249	538107	0	0
2024-10-14 19:57:47			0	38699	0	0	0	21553	20130	159704	27142	1056579	46320	107913	0	0	8249	537835	0	0
2024-10-14 19:58:47			0	38677	0	0	0	21550	20140	159704	27197	1056597	46321	107912	0	0	8248	538660	0	0
2024-10-14 19:59:47			0	38697	0	0	0	21553	20120	159668	26982	1056570	46331	107913	0	0	8249	537942	0	0
2024-10-14 20:00:47			0	38696	0	0	0	21555	20130	159760	26955	1056579	46320	107914	0	0	8249	537951	0	0
2024-10-14 20:01:47			0	38698	0	0	0	21550	20120	159772	27220	1056490	46320	107912	0	0	8249	537903	0	0
2024-10-14 20:02:47			0	38680	0	0	0	21558	20120	159760	26942	1056517	46297	107915	0	0	8248	538603	0	0
2024-10-14 20:03:47			0	38698	0	0	0	21558	20120	159776	27170	1056437	46309	107915	0	0	8249	537903	0	0
2024-10-14 20:04:47			0	38696	0	0	0	21561	20120	159716	27052	1056490	46320	107916	0	0	8249	537981	0	0
2024-10-14 20:05:47			0	38696	0	0	0	21558	20120	159572	27209	1056543	46297	107915	0	0	8249	537981	0	0
2024-10-14 20:06:47			0	38707	0	0	0	21561	20120	159596	27138	1056561	46319	107916	0	0	8250	537554	0	0
2024-10-14 20:07:47			0	38686	0	0	0	21566	20120	159644	27301	1056543	46320	107918	0	0	8248	538369	0	0
2024-10-14 20:08:47			0	38694	0	0	0	21566	20120	159732	27078	1056534	46319	107918	0	0	8249	538059	0	0
2024-10-14 20:09:47			0	38684	0	0	0	21558	20120	159712	27310	1056508	46319	107915	0	0	8248	538447	0	0
2024-10-14 20:10:47			0	38707	0	0	0	21555	20120	159732	27393	1056508	46319	107914	0	0	8250	537554	0	0
2024-10-14 20:11:47			0	38670	0	0	0	21568	20120	159812	27090	1056543	46331	107919	0	0	8247	538991	0	0
2024-10-14 20:12:47			0	38685	0	0	0	21561	20130	159860	26802	1056526	46320	107916	0	0	8248	538379	0	0
2024-10-14 20:13:47			0	38672	0	0	0	21563	20120	159692	27362	1056508	46319	107917	0	0	8248	538913	0	0
2024-10-14 20:14:47			0	38686	0	0	0	21561	20120	159760	27381	1056481	46330	107916	0	0	8248	538369	0	0
2024-10-14 20:15:47			0	38653	0	0	0	21561	20110	159844	27081	1056525	46318	107916	0	0	8247	539682	0	0
2024-10-14 20:16:47			0	38674	0	0	0	21555	20120	159932	27045	1056543	46331	107914	0	0	8248	538836	0	0
2024-10-14 20:17:47			0	38673	0	0	0	21563	20120	159824	27180	1056561	46319	107917	0	0	8248	538875	0	0
2024-10-14 20:18:47			0	38607	0	0	0	21566	20130	160036	26894	1056499	46331	107918	0	0	8244	541414	0	0
2024-10-14 20:19:47			0	38642	0	0	0	21561	20120	159948	26975	1056517	46309	107916	0	0	8246	540080	0	0
2024-10-14 20:20:47			0	38646	0	0	0	21561	20120	159860	27291	1056517	46320	107916	0	0	8246	539925	0	0
2024-10-14 20:21:47			0	38631	0	0	0	21561	20120	159780	26915	1056534	46330	107916	0	0	8245	540509	0	0
2024-10-14 20:22:47			0	38642	0	0	0	21563	20120	159904	26908	1056534	46319	107917	0	0	8246	540080	0	0
2024-10-14 20:23:47			0	38648	0	0	0	21553	20130	159856	27234	1056579	46331	107913	0	0	8246	539817	0	0
2024-10-14 20:24:47			0	38638	0	0	0	21563	20120	159772	27126	1056508	46330	107917	0	0	8246	540236	0	0
2024-10-14 20:25:47			0	38629	0	0	0	21566	20120	159948	27072	1056570	46331	107918	0	0	8245	540586	0	0
2024-10-14 20:26:47			0	38615	0	0	0	21566	20120	160000	27156	1056534	46319	107918	0	0	8244	541132	0	0
2024-10-14 20:27:47			0	38631	0	0	0	21555	20120	159896	27031	1056508	46319	107914	0	0	8245	540509	0	0
2024-10-14 20:28:47			0	38637	0	0	0	21548	20120	160108	27085	1056570	46309	107911	0	0	8246	540275	0	0
2024-10-14 20:29:47			0	38628	0	0	0	21558	20120	160036	27222	1056543	46331	107915	0	0	8245	540625	0	0
2024-10-14 20:30:47			0	38648	0	0	0	21561	20130	159908	27248	1056526	46320	107916	0	0	8246	539817	0	0
2024-10-14 20:31:47			0	38635	0	0	0	21558	20120	159940	27305	1056534	46319	107915	0	0	8246	540353	0	0
2024-10-14 20:32:47			0	38630	0	0	0	21563	20130	159916	27147	1056588	46320	107917	0	0	8245	540518	0	0
2024-10-14 20:33:47			0	38650	0	0	0	21558	20120	159916	27048	1056534	46308	107915	0	0	8246	539769	0	0
2024-10-14 20:34:47			0	38640	0	0	0	21561	20120	159928	27201	1056596	46331	107916	0	0	8246	540158	0	0
2024-10-14 20:35:47			0	38645	0	0	0	21571	20120	159868	27024	1056596	46331	107920	0	0	8246	539964	0	0
2024-10-14 20:36:47			0	38640	0	0	0	21568	20130	159880	27322	1056605	46331	107919	0	0	8246	540128	0	0
2024-10-14 20:37:47			0	38638	0	0	0	21558	20120	159928	27138	1056534	46319	107915	0	0	8246	540236	0	0
2024-10-14 20:38:47			0	38644	0	0	0	21563	20130	159916	27341	1056561	46320	107917	0	0	8246	539973	0	0
2024-10-14 20:39:47			0	38632	0	0	0	21566	20130	159800	27059	1056526	46341	107918	0	0	8245	540440	0	0
2024-10-14 20:40:47			0	38637	0	0	0	21563	20140	159880	27189	1056579	46333	107917	0	0	8246	540215	0	0
2024-10-14 20:41:47			0	38647	0	0	0	21566	20130	159840	27201	1056588	46320	107918	0	0	8246	539856	0	0
2024-10-14 20:42:47			0	38641	0	0	0	21563	20130	159856	27157	1056579	46331	107917	0	0	8246	540090	0	0
2024-10-14 20:43:47			0	38641	0	0	0	21573	20120	159872	27350	1056596	46331	107921	0	0	8246	540119	0	0
2024-10-14 20:44:47			0	38644	0	0	0	21571	20130	159860	27242	1056552	46331	107920	0	0	8246	539973	0	0
2024-10-14 20:45:47			0	38654	0	0	0	21571	20120	159928	26982	1056596	46331	107920	0	0	8246	539613	0	0
2024-10-14 20:46:47			0	38659	0	0	0	21568	20120	159852	27166	1056570	46320	107919	0	0	8247	539419	0	0
2024-10-14 20:47:47			0	38636	0	0	0	21566	20130	159920	27611	1056605	46331	107918	0	0	8246	540284	0	0
2024-10-14 20:48:47			0	38653	0	0	0	21566	20130	159920	27048	1056552	46320	107918	0	0	8247	539623	0	0
2024-10-14 20:49:47			0	38638	0	0	0	21566	20120	159948	27076	1056570	46320	107918	0	0	8246	540236	0	0
2024-10-14 20:50:47			0	38663	0	0	0	21571	20120	159816	27187	1056596	46331	107920	0	0	8247	539263	0	0
2024-10-14 20:51:47			0	38649	0	0	0	21573	20120	159804	27013	1056570	46331	107921	0	0	8246	539808	0	0
2024-10-14 20:52:47			0	38641	0	0	0	21571	20130	159824	27105	1056588	46331	107920	0	0	8246	540090	0	0
2024-10-14 20:53:47			0	38623	0	0	0	21571	20120	159932	27178	1056561	46330	107920	0	0	8245	540820	0	0
2024-10-14 20:54:47			0	38634	0	0	0	21566	20130	160000	27170	1056579	46320	107918	0	0	8245	540362	0	0
2024-10-14 20:55:47			0	38596	0	0	0	21566	20140	160060	27060	1056570	46332	107918	0	0	8243	541813	0	0
2024-10-14 20:56:47			0	38585	0	0	0	21563	20130	160160	27036	1056641	46331	107917	0	0	8243	542272	0	0
2024-10-14 20:57:47			0	38589	0	0	0	21566	20120	160132	27102	1056570	46331	107918	0	0	8243	542146	0	0
2024-10-14 20:58:47			0	38614	0	0	0	21561	20130	160176	27267	1056552	46320	107916	0	0	8244	541141	0	0
2024-10-14 20:59:47			0	38590	0	0	0	21561	20140	160092	27189	1056570	46321	107916	0	0	8243	542047	0	0
2024-10-14 21:00:47			0	38591	0	0	0	21563	20130	160092	26817	1056605	46309	107917	0	0	8243	542038	0	0
2024-10-14 21:01:47			0	38605	0	0	0	21558	20130	160164	27190	1056526	46320	107915	0	0	8244	541492	0	0
2024-10-14 21:02:47			0	38601	0	0	0	21558	20120	160052	26861	1056508	46330	107915	0	0	8244	541678	0	0
2024-10-14 21:03:47			0	38584	0	0	0	21545	20120	160084	26892	1056543	46309	107910	0	0	8243	542341	0	0
2024-10-14 21:04:47			0	38587	0	0	0	21555	20130	160164	27282	1056579	46320	107914	0	0	8243	542194	0	0
2024-10-14 21:05:47			0	38592	0	0	0	21542	20130	160076	27199	1056526	46320	107909	0	0	8243	541999	0	0
2024-10-14 21:06:47			0	38599	0	0	0	21545	20120	160136	26967	1056534	46319	107910	0	0	8244	541756	0	0
2024-10-14 21:07:47			0	38594	0	0	0	21548	20130	160120	27005	1056526	46331	107911	0	0	8243	541921	0	0
2024-10-14 21:08:47			0	38590	0	0	0	21545	20120	160084	27003	1056561	46319	107910	0	0	8243	542107	0	0
2024-10-14 21:09:47			0	38599	0	0	0	21548	20120	160080	26729	1056570	46320	107911	0	0	8244	541756	0	0
2024-10-14 21:10:47			0	38584	0	0	0	21558	20120	160080	26908	1056587	46319	107915	0	0	8243	542341	0	0
2024-10-14 21:11:47			0	38583	0	0	0	21558	20120	160108	26932	1056517	46320	107915	0	0	8243	542380	0	0
2024-10-14 21:12:47			0	38588	0	0	0	21548	20120	160156	27022	1056481	46319	107911	0	0	8243	542185	0	0
2024-10-14 21:13:47			0	38579	0	0	0	21550	20120	160176	27199	1056464	46309	107912	0	0	8242	542536	0	0
2024-10-14 21:14:47			0	38577	0	0	0	21553	20120	160088	26935	1056508	46319	107913	0	0	8242	542614	0	0
2024-10-14 21:15:47			0	38560	0	0	0	21550	20120	160072	27199	1056481	46340	107912	0	0	8241	543278	0	0
2024-10-14 21:16:47			0	38561	0	0	0	21548	20120	160144	27168	1056517	46309	107911	0	0	8241	543239	0	0
2024-10-14 21:17:47			0	38566	0	0	0	21548	20110	160244	27376	1056472	46307	107911	0	0	8242	543073	0	0
2024-10-14 21:18:47			0	38557	0	0	0	21553	20110	160236	27131	1056499	46329	107913	0	0	8241	543425	0	0
2024-10-14 21:19:47			0	38528	0	0	0	21553	20110	160228	27306	1056472	46318	107913	0	0	8239	544559	0	0
2024-10-14 21:20:47			0	38530	0	0	0	21545	20110	160388	27281	1056499	46318	107910	0	0	8240	544480	0	0
2024-10-14 21:21:47			0	38546	0	0	0	21542	20110	160276	26972	1056437	46318	107909	0	0	8241	543855	0	0
2024-10-14 21:22:47			0	38527	0	0	0	21548	20120	160344	27031	1056534	46319	107911	0	0	8239	544568	0	0
2024-10-14 21:23:47			0	38534	0	0	0	21558	20110	160412	26941	1056472	46329	107915	0	0	8240	544324	0	0
2024-10-14 21:24:47			0	38518	0	0	0	21540	20120	160308	27045	1056481	46308	107908	0	0	8239	544920	0	0
2024-10-14 21:25:47			0	38524	0	0	0	21545	20100	160316	26889	1056454	46328	107910	0	0	8239	544745	0	0
2024-10-14 21:26:47			0	38535	0	0	0	21553	20100	160224	27237	1056472	46328	107913	0	0	8240	544315	0	0
2024-10-14 21:27:47			0	38526	0	0	0	21545	20100	160364	27048	1056481	46317	107910	0	0	8239	544667	0	0
2024-10-14 21:28:47			0	38531	0	0	0	21553	20110	160308	27251	1056516	46318	107913	0	0	8240	544441	0	0
2024-10-14 21:29:47			0	38538	0	0	0	21555	20100	160320	27180	1056507	46317	107914	0	0	8240	544198	0	0
2024-10-14 21:30:47			0	38553	0	0	0	21561	20110	160300	27079	1056463	46329	107916	0	0	8241	543581	0	0
2024-10-14 21:31:47			0	38540	0	0	0	21548	20120	160304	27313	1056481	46330	107911	0	0	8240	544059	0	0
2024-10-14 21:32:47			0	38534	0	0	0	21548	20110	160324	27284	1056463	46307	107911	0	0	8240	544324	0	0
2024-10-14 21:33:47			0	38532	0	0	0	21555	20110	160400	26982	1056525	46318	107914	0	0	8240	544402	0	0
2024-10-14 21:34:47			0	38543	0	0	0	21542	20110	160384	27166	1056463	46318	107909	0	0	8240	543972	0	0
2024-10-14 21:35:47			0	38519	0	0	0	21537	20100	160432	26828	1056454	46317	107907	0	0	8239	544941	0	0
2024-10-14 21:36:47			0	38531	0	0	0	21540	20110	160276	27379	1056437	46307	107908	0	0	8240	544441	0	0
2024-10-14 21:37:47			0	38518	0	0	0	21545	20110	160392	27142	1056463	46329	107910	0	0	8239	544950	0	0
2024-10-14 21:38:47			0	38504	0	0	0	21553	20110	160472	27166	1056446	46329	107913	0	0	8238	545498	0	0
2024-10-14 21:39:47			0	38512	0	0	0	21558	20100	160432	27138	1056507	46317	107915	0	0	8238	545215	0	0
2024-10-14 21:40:47			0	38490	0	0	0	21540	20110	160528	27164	1056552	46318	107908	0	0	8237	546046	0	0
2024-10-14 21:41:47			0	38500	0	0	0	21548	20100	160528	27450	1056481	46306	107911	0	0	8238	545685	0	0
2024-10-14 21:42:47			0	38489	0	0	0	21542	20100	160584	27079	1056454	46328	107909	0	0	8237	546116	0	0
2024-10-14 21:43:47			0	38481	0	0	0	21550	20100	160576	27234	1056454	46317	107912	0	0	8237	546429	0	0
2024-10-14 21:44:47			0	38477	0	0	0	21545	20100	160564	27007	1056534	46328	107910	0	0	8236	546586	0	0
2024-10-14 21:45:47			0	38463	0	0	0	21545	20110	160644	27326	1056490	46318	107910	0	0	8236	547105	0	0
2024-10-14 21:46:47			0	38474	0	0	0	21553	20110	160736	27358	1056516	46318	107913	0	0	8236	546674	0	0
2024-10-14 21:47:47			0	38464	0	0	0	21548	20120	160592	27114	1056561	46352	107911	0	0	8236	547036	0	0
2024-10-14 21:48:47			0	38448	0	0	0	21548	20100	160676	27163	1056472	46317	107911	0	0	8235	547724	0	0
2024-10-14 21:49:47			0	38456	0	0	0	21548	20110	160776	27235	1056490	46329	107911	0	0	8235	547380	0	0
2024-10-14 21:50:47			0	38448	0	0	0	21553	20110	160796	27287	1056525	46329	107913	0	0	8235	547694	0	0
2024-10-14 21:51:47			0	38432	0	0	0	21545	20110	160712	27244	1056490	46329	107910	0	0	8234	548322	0	0
2024-10-14 21:52:47			0	38421	0	0	0	21548	20110	160776	27118	1056516	46318	107911	0	0	8233	548754	0	0
2024-10-14 21:53:47			0	38404	0	0	0	21553	20110	161004	27322	1056490	46307	107913	0	0	8232	549423	0	0
2024-10-14 21:54:47			0	38402	0	0	0	21561	20110	160940	27008	1056516	46329	107916	0	0	8232	549501	0	0
2024-10-14 21:55:47			0	38393	0	0	0	21545	20100	160956	27213	1056454	46317	107910	0	0	8232	549886	0	0
2024-10-14 21:56:47			0	38375	0	0	0	21542	20110	160928	27313	1056516	46307	107909	0	0	8231	550564	0	0
2024-10-14 21:57:47			0	38375	0	0	0	21550	20120	160904	27227	1056508	46319	107912	0	0	8231	550534	0	0
2024-10-14 21:58:47			0	38359	0	0	0	21548	20110	161052	27307	1056525	46307	107911	0	0	8230	551194	0	0
2024-10-14 21:59:47			0	38355	0	0	0	21555	20110	161148	27206	1056570	46318	107914	0	0	8229	551352	0	0
2024-10-14 22:00:47			0	38341	0	0	0	21561	20110	161064	27298	1056490	46329	107916	0	0	8228	551904	0	0
2024-10-14 22:01:47			0	38344	0	0	0	21566	20120	160996	27338	1056534	46308	107918	0	0	8228	551755	0	0
2024-10-14 22:02:47			0	38363	0	0	0	21568	20110	161016	27241	1056472	46339	107919	0	0	8229	551037	0	0
2024-10-14 22:03:47			0	38373	0	0	0	21566	20110	161068	27196	1056516	46318	107918	0	0	8230	550643	0	0
2024-10-14 22:04:47			0	38358	0	0	0	21576	20110	161244	27308	1056596	46329	107922	0	0	8229	551234	0	0
2024-10-14 22:05:47			0	38338	0	0	0	21568	20120	161232	26975	1056543	46331	107919	0	0	8228	551992	0	0
2024-10-14 22:06:47			0	38343	0	0	0	21576	20110	161128	27274	1056543	46329	107922	0	0	8228	551825	0	0
2024-10-14 22:07:47			0	38367	0	0	0	21579	20110	161068	27317	1056552	46329	107923	0	0	8230	550879	0	0
2024-10-14 22:08:47			0	38374	0	0	0	21579	20120	161048	26899	1056650	46320	107923	0	0	8230	550573	0	0
2024-10-14 22:09:47			0	38386	0	0	0	21576	20130	160944	27377	1056605	46331	107922	0	0	8231	550070	0	0
2024-10-14 22:10:47			0	38400	0	0	0	21573	20110	160872	27208	1056605	46329	107921	0	0	8232	549580	0	0
2024-10-14 22:11:47			0	38414	0	0	0	21579	20130	160796	27157	1056632	46331	107923	0	0	8232	548969	0	0
2024-10-14 22:12:47			0	38440	0	0	0	21571	20120	160668	27170	1056587	46330	107920	0	0	8234	547978	0	0
2024-10-14 22:13:47			0	38434	0	0	0	21568	20120	160716	27296	1056596	46331	107919	0	0	8234	548213	0	0
2024-10-14 22:14:47			0	38428	0	0	0	21558	20130	160796	27251	1056605	46331	107915	0	0	8234	548419	0	0
2024-10-14 22:15:47			0	38441	0	0	0	21555	20110	160800	27000	1056579	46318	107914	0	0	8234	547968	0	0
2024-10-14 22:16:47			0	38403	0	0	0	21568	20130	160848	27289	1056552	46320	107919	0	0	8232	549401	0	0
2024-10-14 22:17:47			0	38362	0	0	0	21576	20120	160924	27130	1056596	46309	107922	0	0	8229	551046	0	0
2024-10-14 22:18:47			0	38336	0	0	0	21576	20120	161060	27310	1056570	46320	107922	0	0	8228	552071	0	0
2024-10-14 22:19:47			0	38332	0	0	0	21586	20120	161148	26795	1056623	46341	107926	0	0	8227	552229	0	0
2024-10-14 22:20:47			0	38317	0	0	0	21592	20120	161248	27223	1056623	46331	107928	0	0	8226	552821	0	0
2024-10-14 22:21:47			0	38275	0	0	0	21584	20130	161280	27048	1056605	46331	107925	0	0	8224	554450	0	0
2024-10-14 22:22:47			0	38292	0	0	0	21581	20130	161352	27182	1056605	46320	107924	0	0	8225	553778	0	0
2024-10-14 22:23:47			0	38297	0	0	0	21573	20130	161264	27261	1056605	46331	107921	0	0	8226	553580	0	0
2024-10-14 22:24:47			0	38292	0	0	0	21581	20140	161208	26897	1056623	46332	107924	0	0	8225	553747	0	0
2024-10-14 22:25:47			0	38288	0	0	0	21576	20120	161184	27024	1056596	46320	107922	0	0	8225	553967	0	0
2024-10-14 22:26:47			0	38314	0	0	0	21576	20130	161152	27260	1056605	46320	107922	0	0	8227	552909	0	0
2024-10-14 22:27:47			0	38331	0	0	0	21573	20130	161076	27183	1056535	46331	107921	0	0	8228	552238	0	0
2024-10-14 22:28:47			0	38320	0	0	0	21579	20130	161100	26837	1056659	46320	107923	0	0	8227	552672	0	0
2024-10-14 22:29:47			0	38321	0	0	0	21568	20140	161256	27225	1056650	46342	107919	0	0	8227	552602	0	0
2024-10-14 22:30:47			0	38321	0	0	0	21566	20130	161140	27144	1056579	46341	107918	0	0	8227	552632	0	0
2024-10-14 22:31:47			0	38321	0	0	0	21561	20120	161252	27092	1056543	46320	107916	0	0	8227	552663	0	0
2024-10-14 22:32:47			0	38329	0	0	0	21563	20130	161208	27182	1056614	46331	107917	0	0	8228	552317	0	0
2024-10-14 22:33:47			0	38292	0	0	0	21553	20120	161176	27270	1056543	46341	107913	0	0	8226	553808	0	0
2024-10-14 22:34:47			0	38292	0	0	0	21540	20120	161224	26892	1056490	46331	107908	0	0	8226	553808	0	0
2024-10-14 22:35:47			0	38285	0	0	0	21540	20120	161308	27272	1056543	46320	107908	0	0	8225	554085	0	0
2024-10-14 22:36:47			0	38292	0	0	0	21532	20110	161188	26961	1056446	46329	107905	0	0	8226	553839	0	0
2024-10-14 22:37:47			0	38266	0	0	0	21524	20110	161268	26729	1056499	46307	107902	0	0	8225	554867	0	0
2024-10-14 22:38:47			0	38264	0	0	0	21524	20110	161424	27022	1056525	46307	107902	0	0	8224	554946	0	0
2024-10-14 22:39:47			0	38245	0	0	0	21519	20110	161504	27246	1056446	46329	107900	0	0	8223	555699	0	0
2024-10-14 22:40:47			0	38252	0	0	0	21524	20100	161616	26876	1056472	46317	107902	0	0	8224	555452	0	0
2024-10-14 22:41:47			0	38250	0	0	0	21519	20100	161472	27197	1056428	46317	107900	0	0	8224	555531	0	0
2024-10-14 22:42:47			0	38260	0	0	0	21529	20100	161512	26975	1056392	46306	107904	0	0	8224	555135	0	0
2024-10-14 22:43:47			0	38267	0	0	0	21527	20100	161504	26941	1056472	46328	107903	0	0	8224	554858	0	0
2024-10-14 22:44:47			0	38246	0	0	0	21532	20100	161492	26946	1056419	46317	107905	0	0	8223	555690	0	0
2024-10-14 22:45:47			0	38237	0	0	0	21514	20100	161544	26890	1056445	46338	107898	0	0	8223	556046	0	0
2024-10-14 22:46:47			0	38255	0	0	0	21522	20090	161700	27090	1056401	46327	107901	0	0	8224	555364	0	0
2024-10-14 22:47:47			0	38243	0	0	0	21532	20090	161588	27109	1056410	46327	107905	0	0	8223	555839	0	0
2024-10-14 22:48:47			0	38239	0	0	0	21519	20090	161556	26951	1056463	46327	107900	0	0	8223	555998	0	0
2024-10-14 22:49:47			0	38235	0	0	0	21527	20090	161592	27052	1056436	46327	107903	0	0	8223	556156	0	0
2024-10-14 22:50:47			0	38233	0	0	0	21524	20100	161500	27300	1056392	46317	107902	0	0	8223	556205	0	0
2024-10-14 22:51:47			0	38253	0	0	0	21537	20100	161448	27046	1056445	46338	107907	0	0	8224	555413	0	0
2024-10-14 22:52:47			0	38273	0	0	0	21532	20090	161408	27253	1056374	46316	107905	0	0	8225	554651	0	0
2024-10-14 22:53:47			0	38267	0	0	0	21527	20100	161404	27088	1056445	46328	107903	0	0	8224	554858	0	0
2024-10-14 22:54:47			0	38290	0	0	0	21537	20090	161376	27227	1056436	46316	107907	0	0	8226	553979	0	0
2024-10-14 22:55:47			0	38284	0	0	0	21529	20100	161400	27223	1056472	46294	107904	0	0	8225	554186	0	0
2024-10-14 22:56:47			0	38273	0	0	0	21529	20090	161356	27163	1056401	46316	107904	0	0	8225	554651	0	0
2024-10-14 22:57:47			0	38278	0	0	0	21527	20090	161332	27227	1056401	46316	107903	0	0	8225	554454	0	0
2024-10-14 22:58:47			0	38273	0	0	0	21532	20100	161484	27100	1056419	46317	107905	0	0	8225	554621	0	0
2024-10-14 22:59:47			0	38286	0	0	0	21527	20100	161420	27005	1056472	46317	107903	0	0	8226	554107	0	0
2024-10-14 23:00:47			0	38284	0	0	0	21524	20080	161456	27092	1056418	46326	107902	0	0	8225	554247	0	0
2024-10-14 23:01:47			0	38283	0	0	0	21519	20090	161404	27041	1056347	46316	107900	0	0	8226	554256	0	0
2024-10-14 23:02:47			0	38289	0	0	0	21527	20090	161276	27126	1056454	46316	107903	0	0	8226	554019	0	0
2024-10-14 23:03:47			0	38277	0	0	0	21529	20090	161428	27213	1056347	46327	107904	0	0	8225	554493	0	0
2024-10-14 23:04:47			0	38283	0	0	0	21519	20080	161412	27140	1056462	46315	107900	0	0	8225	554286	0	0
2024-10-14 23:05:47			0	38296	0	0	0	21514	20090	161436	27204	1056480	46316	107898	0	0	8226	553742	0	0
2024-10-14 23:06:47			0	38303	0	0	0	21514	20090	161212	27199	1056427	46327	107898	0	0	8227	553465	0	0
2024-10-14 23:07:47			0	38322	0	0	0	21509	20080	161280	27267	1056383	46315	107896	0	0	8228	552745	0	0
2024-10-14 23:08:47			0	38298	0	0	0	21519	20080	161328	27208	1056392	46315	107900	0	0	8226	553693	0	0
2024-10-14 23:09:47			0	38313	0	0	0	21519	20080	161292	26974	1056409	46326	107900	0	0	8227	553101	0	0
2024-10-14 23:10:47			0	38325	0	0	0	21514	20090	161292	27152	1056436	46316	107898	0	0	8228	552596	0	0
2024-10-14 23:11:47			0	38292	0	0	0	21522	20080	161280	27019	1056418	46315	107901	0	0	8226	553931	0	0
2024-10-14 23:12:47			0	38281	0	0	0	21519	20090	161420	27029	1056401	46316	107900	0	0	8225	554335	0	0
2024-10-14 23:13:47			0	38279	0	0	0	21516	20090	161356	27145	1056401	46305	107899	0	0	8225	554414	0	0
2024-10-14 23:14:47			0	38282	0	0	0	21514	20090	161412	27253	1056436	46337	107898	0	0	8226	554295	0	0
2024-10-14 23:15:47			0	38276	0	0	0	21511	20080	161416	27142	1056383	46326	107897	0	0	8225	554563	0	0
2024-10-14 23:16:47			0	38250	0	0	0	21514	20080	161612	27019	1056338	46304	107898	0	0	8224	555593	0	0
2024-10-14 23:17:47			0	38255	0	0	0	21519	20070	161572	26934	1056400	46314	107900	0	0	8224	555425	0	0
2024-10-14 23:18:47			0	38232	0	0	0	21519	20080	161576	27326	1056383	46326	107900	0	0	8222	556306	0	0
2024-10-14 23:19:47			0	38245	0	0	0	21519	20080	161608	27045	1056383	46336	107900	0	0	8223	555791	0	0
2024-10-14 23:20:47			0	38259	0	0	0	21506	20080	161592	27168	1056418	46315	107895	0	0	8224	555236	0	0
2024-10-14 23:21:47			0	38249	0	0	0	21511	20080	161516	26913	1056418	46315	107897	0	0	8224	555632	0	0
2024-10-14 23:22:47			0	38254	0	0	0	21509	20080	161616	27137	1056329	46315	107896	0	0	8224	555434	0	0
2024-10-14 23:23:47			0	38258	0	0	0	21511	20090	161564	26892	1056374	46316	107897	0	0	8224	555245	0	0
2024-10-14 23:24:47			0	38274	0	0	0	21514	20080	161508	27291	1056392	46315	107898	0	0	8225	554642	0	0
2024-10-14 23:25:47			0	38280	0	0	0	21516	20090	161556	27137	1056330	46327	107899	0	0	8225	554374	0	0
2024-10-14 23:26:47			0	38298	0	0	0	21516	20080	161412	27185	1056392	46315	107899	0	0	8226	553693	0	0
2024-10-14 23:27:47			0	38294	0	0	0	21506	20090	161320	27256	1056401	46305	107895	0	0	8226	553821	0	0
2024-10-14 23:28:47			0	38276	0	0	0	21519	20080	161304	27300	1056383	46315	107900	0	0	8225	554563	0	0
2024-10-14 23:29:47			0	38293	0	0	0	21519	20090	161368	27230	1056401	46305	107900	0	0	8226	553860	0	0
2024-10-14 23:30:47			0	38267	0	0	0	21519	20080	161472	26831	1056329	46315	107900	0	0	8225	554920	0	0
2024-10-14 23:31:47			0	38293	0	0	0	21511	20080	161408	27171	1056392	46326	107897	0	0	8226	553891	0	0
2024-10-14 23:32:47			0	38291	0	0	0	21519	20080	161412	26941	1056383	46326	107900	0	0	8226	553970	0	0
2024-10-14 23:33:47			0	38253	0	0	0	21519	20080	161468	27229	1056338	46304	107900	0	0	8224	555474	0	0
2024-10-14 23:34:47			0	38245	0	0	0	21519	20080	161508	27308	1056383	46315	107900	0	0	8223	555791	0	0
2024-10-14 23:35:47			0	38241	0	0	0	21529	20090	161432	27147	1056321	46327	107904	0	0	8223	555918	0	0
2024-10-14 23:36:47			0	38243	0	0	0	21522	20080	161544	27265	1056409	46326	107901	0	0	8223	555870	0	0
2024-10-14 23:37:47			0	38251	0	0	0	21522	20080	161612	26882	1056409	46315	107901	0	0	8224	555553	0	0
2024-10-14 23:38:47			0	38241	0	0	0	21522	20080	161528	27241	1056383	46315	107901	0	0	8223	555949	0	0
2024-10-14 23:39:47			0	38230	0	0	0	21516	20080	161552	27007	1056383	46315	107899	0	0	8222	556385	0	0
2024-10-14 23:40:47			0	38244	0	0	0	21514	20080	161516	27159	1056409	46336	107898	0	0	8223	555830	0	0
2024-10-14 23:41:47			0	38251	0	0	0	21514	20080	161548	27034	1056418	46326	107898	0	0	8224	555553	0	0
2024-10-14 23:42:47			0	38276	0	0	0	21511	20080	161336	27409	1056329	46336	107897	0	0	8225	554563	0	0
2024-10-14 23:43:47			0	38313	0	0	0	21519	20070	161316	27229	1056374	46325	107900	0	0	8227	553131	0	0
2024-10-14 23:44:47			0	38308	0	0	0	21524	20090	161320	27105	1056454	46316	107902	0	0	8227	553268	0	0
2024-10-14 23:45:47			0	38329	0	0	0	21514	20080	161280	27183	1056392	46315	107898	0	0	8228	552469	0	0
2024-10-14 23:46:47			0	38306	0	0	0	21519	20080	161288	27282	1056392	46315	107900	0	0	8227	553377	0	0
2024-10-14 23:47:47			0	38300	0	0	0	21516	20080	161268	27196	1056383	46326	107899	0	0	8227	553614	0	0
2024-10-14 23:48:47			0	38306	0	0	0	21516	20080	161356	27001	1056392	46304	107899	0	0	8227	553377	0	0
2024-10-14 23:49:47			0	38298	0	0	0	21509	20090	161412	27289	1056427	46316	107896	0	0	8227	553663	0	0
2024-10-14 23:50:47			0	38297	0	0	0	21516	20080	161388	27031	1056392	46304	107899	0	0	8226	553733	0	0
2024-10-14 23:51:47			0	38312	0	0	0	21503	20080	161256	27301	1056409	46315	107894	0	0	8227	553140	0	0
2024-10-14 23:52:47			0	38324	0	0	0	21516	20080	161364	27254	1056356	46326	107899	0	0	8228	552666	0	0
2024-10-14 23:53:47			0	38325	0	0	0	21498	20080	161248	27329	1056383	46304	107892	0	0	8228	552627	0	0
2024-10-14 23:54:47			0	38322	0	0	0	21503	20070	161316	27326	1056365	46314	107894	0	0	8228	552776	0	0
2024-10-14 23:55:47			0	38350	0	0	0	21501	20070	161176	27199	1056347	46325	107893	0	0	8230	551671	0	0
2024-10-14 23:56:47			0	38345	0	0	0	21498	20070	161144	27222	1056374	46314	107892	0	0	8229	551868	0	0
2024-10-14 23:57:47			0	38351	0	0	0	21493	20080	161228	26875	1056329	46315	107890	0	0	8230	551601	0	0
2024-10-14 23:58:47			0	38357	0	0	0	21488	20070	161188	27282	1056338	46325	107888	0	0	8230	551395	0	0
2024-10-14 23:59:47			0	38358	0	0	0	21498	20070	161164	26946	1056347	46335	107892	0	0	8230	551355	0	0
2024-10-15 00:00:47			0	38353	0	0	0	21485	20070	161072	27405	1056347	46314	107887	0	0	8230	551553	0	0
2024-10-15 00:01:47			0	38375	0	0	0	21480	20070	160992	27206	1056312	46303	107885	0	0	8231	550686	0	0
2024-10-15 00:02:47			0	38384	0	0	0	21485	20070	161112	26887	1056321	46303	107887	0	0	8232	550331	0	0
2024-10-15 00:03:47			0	38368	0	0	0	21477	20070	161076	26935	1056258	46325	107884	0	0	8231	550961	0	0
2024-10-15 00:04:47			0	38378	0	0	0	21475	20070	161040	27326	1056267	46314	107883	0	0	8232	550567	0	0
2024-10-15 00:05:47			0	38372	0	0	0	21483	20060	161064	27085	1056329	46313	107886	0	0	8231	550834	0	0
2024-10-15 00:06:47			0	38388	0	0	0	21488	20060	161104	27215	1056329	46313	107888	0	0	8232	550204	0	0
2024-10-15 00:07:47			0	38357	0	0	0	21488	20060	161152	27192	1056241	46312	107888	0	0	8230	551425	0	0
2024-10-15 00:08:47			0	38351	0	0	0	21485	20060	161184	27072	1056267	46301	107887	0	0	8230	551662	0	0
2024-10-15 00:09:47			0	38362	0	0	0	21485	20060	161260	27085	1056241	46312	107887	0	0	8231	551228	0	0
2024-10-15 00:10:47			0	38328	0	0	0	21483	20060	161244	27291	1056303	46302	107886	0	0	8229	552569	0	0
2024-10-15 00:11:47			0	38305	0	0	0	21480	20060	161304	27128	1056223	46324	107885	0	0	8227	553478	0	0
2024-10-15 00:12:47			0	38318	0	0	0	21490	20070	161404	26791	1056285	46325	107889	0	0	8228	552934	0	0
2024-10-15 00:13:47			0	38307	0	0	0	21490	20070	161328	27069	1056258	46325	107889	0	0	8227	553368	0	0
2024-10-15 00:14:47			0	38302	0	0	0	21485	20060	161308	27192	1056294	46323	107887	0	0	8227	553596	0	0
2024-10-15 00:15:47			0	38310	0	0	0	21483	20060	161388	27511	1056276	46313	107886	0	0	8228	553280	0	0
2024-10-15 00:16:47			0	38302	0	0	0	21498	20050	161424	27209	1056232	46312	107892	0	0	8227	553627	0	0
2024-10-15 00:17:47			0	38296	0	0	0	21496	20060	161480	27166	1056241	46323	107891	0	0	8227	553833	0	0
2024-10-15 00:18:47			0	38308	0	0	0	21488	20050	161512	26993	1056232	46323	107888	0	0	8227	553390	0	0
2024-10-15 00:19:47			0	38277	0	0	0	21488	20050	161552	27111	1056285	46312	107888	0	0	8226	554616	0	0
2024-10-15 00:20:47			0	38301	0	0	0	21496	20060	161552	27157	1056294	46312	107891	0	0	8227	553636	0	0
2024-10-15 00:21:47			0	38274	0	0	0	21496	20060	161496	27248	1056276	46313	107891	0	0	8225	554704	0	0
2024-10-15 00:22:47			0	38256	0	0	0	21490	20050	161692	26868	1056223	46311	107889	0	0	8224	555447	0	0
2024-10-15 00:23:47			0	38268	0	0	0	21496	20050	161584	27024	1056258	46301	107891	0	0	8225	554972	0	0
2024-10-15 00:24:47			0	38264	0	0	0	21493	20050	161612	27114	1056258	46312	107890	0	0	8225	555130	0	0
2024-10-15 00:25:47			0	38260	0	0	0	21506	20060	161624	26759	1056294	46323	107895	0	0	8224	555258	0	0
2024-10-15 00:26:47			0	38251	0	0	0	21511	20060	161716	27130	1056320	46323	107897	0	0	8224	555614	0	0
2024-10-15 00:27:47			0	38215	0	0	0	21503	20060	161796	27130	1056267	46312	107894	0	0	8222	557041	0	0
2024-10-15 00:28:47			0	38212	0	0	0	21503	20060	161868	27291	1056382	46324	107894	0	0	8221	557160	0	0
2024-10-15 00:29:47			0	38197	0	0	0	21503	20070	161832	27048	1056258	46314	107894	0	0	8221	557725	0	0
2024-10-15 00:30:47			0	38189	0	0	0	21496	20060	161844	27041	1056356	46313	107891	0	0	8220	558073	0	0
2024-10-15 00:31:47			0	38181	0	0	0	21501	20070	161932	27379	1056285	46325	107893	0	0	8220	558360	0	0
2024-10-15 00:32:47			0	38188	0	0	0	21501	20070	161908	26896	1056312	46314	107893	0	0	8220	558082	0	0
2024-10-15 00:33:47			0	38183	0	0	0	21496	20070	161864	26951	1056294	46314	107891	0	0	8220	558281	0	0
2024-10-15 00:34:47			0	38175	0	0	0	21503	20060	162016	27166	1056276	46313	107894	0	0	8219	558630	0	0
2024-10-15 00:35:47			0	38186	0	0	0	21493	20070	161988	27055	1056258	46314	107890	0	0	8220	558162	0	0
2024-10-15 00:36:47			0	38184	0	0	0	21493	20070	161896	26961	1056285	46314	107890	0	0	8220	558241	0	0
2024-10-15 00:37:47			0	38181	0	0	0	21488	20070	162004	27097	1056312	46314	107888	0	0	8220	558360	0	0
2024-10-15 00:38:47			0	38212	0	0	0	21490	20060	161856	27239	1056267	46301	107889	0	0	8222	557160	0	0
2024-10-15 00:39:47			0	38206	0	0	0	21493	20060	161872	27222	1056329	46302	107890	0	0	8221	557398	0	0
2024-10-15 00:40:47			0	38212	0	0	0	21493	20070	161888	27372	1056285	46325	107890	0	0	8222	557130	0	0
2024-10-15 00:41:47			0	38218	0	0	0	21498	20060	161876	27320	1056241	46323	107892	0	0	8222	556922	0	0
2024-10-15 00:42:47			0	38198	0	0	0	21488	20060	161840	27287	1056249	46313	107888	0	0	8221	557716	0	0
2024-10-15 00:43:47			0	38214	0	0	0	21483	20060	161784	27147	1056249	46313	107886	0	0	8222	557081	0	0
2024-10-15 00:44:47			0	38203	0	0	0	21493	20070	161840	27275	1056258	46314	107890	0	0	8221	557487	0	0
2024-10-15 00:45:47			0	38187	0	0	0	21498	20050	161908	27033	1056258	46312	107892	0	0	8220	558184	0	0
2024-10-15 00:46:47			0	38169	0	0	0	21485	20050	162084	27230	1056258	46323	107887	0	0	8219	558899	0	0
2024-10-15 00:47:47			0	38180	0	0	0	21480	20060	161940	27303	1056249	46324	107885	0	0	8220	558431	0	0
2024-10-15 00:48:47			0	38195	0	0	0	21472	20060	161928	27090	1056276	46302	107882	0	0	8221	557835	0	0
2024-10-15 00:49:47			0	38214	0	0	0	21470	20050	161836	27175	1056232	46323	107881	0	0	8222	557112	0	0
2024-10-15 00:50:47			0	38213	0	0	0	21475	20060	161776	27239	1056294	46301	107883	0	0	8222	557121	0	0
2024-10-15 00:51:47			0	38197	0	0	0	21477	20060	161824	27192	1056320	46301	107884	0	0	8221	557756	0	0
2024-10-15 00:52:47			0	38212	0	0	0	21485	20050	161880	27267	1056258	46323	107887	0	0	8222	557191	0	0
2024-10-15 00:53:47			0	38221	0	0	0	21488	20050	161864	27535	1056232	46301	107888	0	0	8222	556834	0	0
2024-10-15 00:54:47			0	38206	0	0	0	21475	20050	161812	27398	1056232	46323	107883	0	0	8222	557429	0	0
2024-10-15 00:55:47			0	38189	0	0	0	21490	20050	161944	27196	1056276	46311	107889	0	0	8220	558104	0	0
2024-10-15 00:56:47			0	38188	0	0	0	21496	20050	161912	27133	1056232	46323	107891	0	0	8220	558144	0	0
2024-10-15 00:57:47			0	38176	0	0	0	21485	20060	161880	27093	1056267	46323	107887	0	0	8220	558590	0	0
2024-10-15 00:58:47			0	38164	0	0	0	21490	20060	162008	27194	1056241	46312	107889	0	0	8219	559067	0	0
2024-10-15 00:59:47			0	38172	0	0	0	21477	20050	161940	26932	1056249	46311	107884	0	0	8220	558780	0	0
2024-10-15 01:00:47			0	38186	0	0	0	21488	20060	161968	27293	1056267	46312	107888	0	0	8220	558193	0	0
2024-10-15 01:01:47			0	38198	0	0	0	21483	20050	161844	27098	1056285	46312	107886	0	0	8221	557747	0	0
2024-10-15 01:02:47			0	38220	0	0	0	21480	20050	161828	27119	1056223	46311	107885	0	0	8222	556874	0	0
2024-10-15 01:03:47			0	38189	0	0	0	21480	20060	161824	27098	1056267	46323	107885	0	0	8221	558073	0	0
2024-10-15 01:04:47			0	38209	0	0	0	21485	20050	161836	27358	1056232	46312	107887	0	0	8222	557310	0	0
2024-10-15 01:05:47			0	38184	0	0	0	21488	20050	161972	27176	1056232	46301	107888	0	0	8220	558303	0	0
2024-10-15 01:06:47			0	38197	0	0	0	21480	20050	161888	27130	1056232	46301	107885	0	0	8221	557787	0	0
2024-10-15 01:07:47			0	38193	0	0	0	21475	20050	161968	27353	1056178	46312	107883	0	0	8221	557945	0	0
2024-10-15 01:08:47			0	38186	0	0	0	21480	20050	161876	27092	1056205	46312	107885	0	0	8220	558223	0	0
2024-10-15 01:09:47			0	38193	0	0	0	21477	20050	161864	27057	1056223	46300	107884	0	0	8221	557945	0	0
2024-10-15 01:10:47			0	38197	0	0	0	21464	20040	161864	27168	1056240	46311	107879	0	0	8221	557817	0	0
2024-10-15 01:11:47			0	38186	0	0	0	21475	20050	161896	27253	1056205	46323	107883	0	0	8220	558223	0	0
2024-10-15 01:12:47			0	38199	0	0	0	21467	20050	161896	27045	1056258	46323	107880	0	0	8221	557707	0	0
2024-10-15 01:13:47			0	38193	0	0	0	21472	20050	161788	27291	1056232	46312	107882	0	0	8221	557945	0	0
2024-10-15 01:14:47			0	38168	0	0	0	21475	20050	161932	27360	1056196	46322	107883	0	0	8219	558939	0	0
2024-10-15 01:15:47			0	38169	0	0	0	21475	20050	161860	26979	1056249	46311	107883	0	0	8219	558899	0	0
2024-10-15 01:16:47			0	38151	0	0	0	21477	20050	161988	27131	1056223	46322	107884	0	0	8218	559615	0	0
2024-10-15 01:17:47			0	38155	0	0	0	21488	20040	162016	27277	1056187	46311	107888	0	0	8218	559487	0	0
2024-10-15 01:18:47			0	38131	0	0	0	21480	20040	161968	26897	1056214	46311	107885	0	0	8217	560442	0	0
2024-10-15 01:19:47			0	38149	0	0	0	21483	20040	162016	27393	1056178	46310	107886	0	0	8218	559725	0	0
2024-10-15 01:20:47			0	38148	0	0	0	21475	20050	162076	27222	1056169	46322	107883	0	0	8218	559734	0	0
2024-10-15 01:21:47			0	38134	0	0	0	21475	20040	161984	27261	1056240	46311	107883	0	0	8217	560323	0	0
2024-10-15 01:22:47			0	38146	0	0	0	21472	20040	162108	27267	1056214	46311	107882	0	0	8218	559845	0	0
2024-10-15 01:23:47			0	38120	0	0	0	21464	20040	162124	27020	1056178	46332	107879	0	0	8217	560880	0	0
2024-10-15 01:24:47			0	38097	0	0	0	21475	20040	162272	27386	1056187	46311	107883	0	0	8215	561797	0	0
2024-10-15 01:25:47			0	38097	0	0	0	21467	20040	162324	27204	1056178	46310	107880	0	0	8215	561797	0	0
2024-10-15 01:26:47			0	38072	0	0	0	21470	20050	162284	27265	1056276	46322	107881	0	0	8214	562764	0	0
2024-10-15 01:27:47			0	38069	0	0	0	21464	20050	162364	27414	1056249	46311	107879	0	0	8214	562884	0	0
2024-10-15 01:28:47			0	38068	0	0	0	21462	20040	162404	27417	1056152	46321	107878	0	0	8214	562955	0	0
2024-10-15 01:29:47			0	38056	0	0	0	21470	20040	162440	27516	1056214	46322	107881	0	0	8213	563434	0	0
2024-10-15 01:30:47			0	38032	0	0	0	21457	20040	162500	27275	1056205	46321	107876	0	0	8212	564393	0	0
2024-10-15 01:31:47			0	38039	0	0	0	21454	20040	162672	27062	1056125	46310	107875	0	0	8212	564113	0	0
2024-10-15 01:32:47			0	38016	0	0	0	21467	20040	162615	27417	1056205	46310	107880	0	0	8210	565034	0	0
2024-10-15 01:33:47			0	38001	0	0	0	21467	20040	162471	27261	1056178	46310	107880	0	0	8210	565634	0	0
2024-10-15 01:34:47			0	38004	0	0	0	21449	20040	162539	27138	1056125	46299	107873	0	0	8210	565514	0	0
2024-10-15 01:35:47			0	38007	0	0	0	21449	20030	162551	27258	1056143	46321	107873	0	0	8210	565425	0	0
2024-10-15 01:36:47			0	38011	0	0	0	21451	20030	162583	27435	1056169	46310	107874	0	0	8210	565265	0	0
2024-10-15 01:37:47			0	37998	0	0	0	21449	20030	162471	27170	1056134	46320	107873	0	0	8210	565786	0	0
2024-10-15 01:38:47			0	37983	0	0	0	21457	20040	162535	27000	1056125	46321	107876	0	0	8209	566356	0	0
2024-10-15 01:39:47			0	37991	0	0	0	21451	20040	162479	26948	1056178	46321	107874	0	0	8209	566035	0	0
2024-10-15 01:40:47			0	38005	0	0	0	21451	20020	162511	26887	1056178	46331	107874	0	0	8210	565537	0	0
2024-10-15 01:41:47			0	38001	0	0	0	21459	20030	162539	27225	1056143	46310	107877	0	0	8210	565666	0	0
2024-10-15 01:42:47			0	37985	0	0	0	21454	20030	162503	26873	1056143	46310	107875	0	0	8209	566307	0	0
2024-10-15 01:43:47			0	38004	0	0	0	21459	20030	162611	26805	1056116	46310	107877	0	0	8210	565545	0	0
2024-10-15 01:44:47			0	37992	0	0	0	21454	20030	162643	27159	1056196	46321	107875	0	0	8209	566026	0	0
2024-10-15 01:45:47			0	37986	0	0	0	21459	20030	162575	27244	1056160	46320	107877	0	0	8209	566267	0	0
2024-10-15 01:46:47			0	37985	0	0	0	21449	20040	162595	27326	1056152	46321	107873	0	0	8209	566276	0	0
2024-10-15 01:47:47			0	37997	0	0	0	21459	20030	162579	27190	1056169	46310	107877	0	0	8209	565826	0	0
2024-10-15 01:48:47			0	37987	0	0	0	21457	20020	162587	27111	1056125	46309	107876	0	0	8209	566258	0	0
2024-10-15 01:49:47			0	37983	0	0	0	21459	20040	162599	27177	1056125	46321	107877	0	0	8209	566356	0	0
2024-10-15 01:50:47			0	37984	0	0	0	21457	20020	162555	26984	1056098	46309	107876	0	0	8209	566378	0	0
2024-10-15 01:51:47			0	37972	0	0	0	21454	20020	162583	27209	1056116	46319	107875	0	0	8208	566859	0	0
2024-10-15 01:52:47			0	37982	0	0	0	21459	20040	162739	27171	1056098	46299	107877	0	0	8209	566396	0	0
2024-10-15 01:53:47			0	37980	0	0	0	21451	20040	162583	27256	1056178	46332	107874	0	0	8209	566476	0	0
2024-10-15 01:54:47			0	37974	0	0	0	21454	20030	162711	27421	1056187	46309	107875	0	0	8208	566748	0	0
2024-10-15 01:55:47			0	37999	0	0	0	21449	20030	162655	27357	1056116	46310	107873	0	0	8210	565746	0	0
2024-10-15 01:56:47			0	37987	0	0	0	21457	20030	162559	27521	1056116	46321	107876	0	0	8209	566227	0	0
2024-10-15 01:57:47			0	37969	0	0	0	21457	20030	162639	27260	1056107	46320	107876	0	0	8208	566948	0	0
2024-10-15 01:58:47			0	37990	0	0	0	21451	20020	162603	27027	1056178	46331	107874	0	0	8209	566138	0	0
2024-10-15 01:59:47			0	37983	0	0	0	21451	20020	162547	26996	1056072	46320	107874	0	0	8209	566418	0	0
2024-10-15 02:00:47			0	38019	0	0	0	21449	20030	162444	26991	1056107	46320	107873	0	0	8211	564945	0	0
2024-10-15 02:01:47			0	38026	0	0	0	21444	20030	162540	27093	1056089	46321	107871	0	0	8211	564665	0	0
2024-10-15 02:02:47			0	38028	0	0	0	21444	20020	162456	27303	1056072	46309	107871	0	0	8211	564616	0	0
2024-10-15 02:03:47			0	38012	0	0	0	21451	20020	162379	27533	1056072	46320	107874	0	0	8210	565256	0	0
2024-10-15 02:04:47			0	38012	0	0	0	21444	20020	162455	27229	1056125	46309	107871	0	0	8211	565256	0	0
2024-10-15 02:05:47			0	37984	0	0	0	21444	20020	162591	27241	1056125	46309	107871	0	0	8209	566378	0	0
2024-10-15 02:06:47			0	37989	0	0	0	21451	20030	162583	27119	1056160	46320	107874	0	0	8209	566147	0	0
2024-10-15 02:07:47			0	37982	0	0	0	21449	20030	162491	27320	1056081	46309	107873	0	0	8209	566427	0	0
2024-10-15 02:08:47			0	37995	0	0	0	21441	20010	162503	27512	1056107	46319	107870	0	0	8210	565968	0	0
2024-10-15 02:09:47			0	37989	0	0	0	21438	20020	162491	27358	1056063	46308	107869	0	0	8209	566178	0	0
2024-10-15 02:10:47			0	37980	0	0	0	21438	20020	162559	27357	1056098	46309	107869	0	0	8209	566539	0	0
2024-10-15 02:11:47			0	37988	0	0	0	21433	20020	162695	27182	1056089	46308	107867	0	0	8209	566218	0	0
2024-10-15 02:12:47			0	37980	0	0	0	21438	20020	162587	27346	1056116	46319	107869	0	0	8209	566539	0	0
2024-10-15 02:13:47			0	37982	0	0	0	21438	20020	162603	26935	1056098	46309	107869	0	0	8209	566458	0	0
2024-10-15 02:14:47			0	37976	0	0	0	21431	20010	162687	26904	1056098	46307	107866	0	0	8209	566730	0	0
2024-10-15 02:15:47			0	37981	0	0	0	21436	20010	162623	26981	1056054	46308	107868	0	0	8209	566530	0	0
2024-10-15 02:16:47			0	37989	0	0	0	21433	20020	162747	27305	1056098	46309	107867	0	0	8209	566178	0	0
2024-10-15 02:17:47			0	37986	0	0	0	21431	20010	162539	27027	1056080	46297	107866	0	0	8209	566329	0	0
2024-10-15 02:18:47			0	37980	0	0	0	21436	20010	162667	27010	1056027	46297	107868	0	0	8209	566570	0	0
2024-10-15 02:19:47			0	37973	0	0	0	21428	20010	162603	27126	1056080	46308	107865	0	0	8208	566851	0	0
2024-10-15 02:20:47			0	37994	0	0	0	21438	20010	162575	27391	1056071	46318	107869	0	0	8210	566009	0	0
2024-10-15 02:21:47			0	37994	0	0	0	21436	20010	162599	27157	1056045	46307	107868	0	0	8210	566009	0	0
2024-10-15 02:22:47			0	38012	0	0	0	21425	20010	162491	27017	1056018	46318	107864	0	0	8211	565287	0	0
2024-10-15 02:23:47			0	38012	0	0	0	21444	20000	162431	27170	1056009	46307	107871	0	0	8210	565319	0	0
2024-10-15 02:24:47			0	38017	0	0	0	21444	20020	162455	27201	1056063	46319	107871	0	0	8211	565056	0	0
2024-10-15 02:25:47			0	38016	0	0	0	21441	20010	162395	27083	1056000	46297	107870	0	0	8211	565127	0	0
2024-10-15 02:26:47			0	38031	0	0	0	21433	20020	162432	27050	1056063	46308	107867	0	0	8212	564496	0	0
2024-10-15 02:27:47			0	38034	0	0	0	21441	20010	162408	27178	1056054	46308	107870	0	0	8212	564407	0	0
2024-10-15 02:28:47			0	38032	0	0	0	21441	20010	162456	27144	1056027	46330	107870	0	0	8212	564487	0	0
2024-10-15 02:29:47			0	38026	0	0	0	21428	20000	162448	27597	1056062	46307	107865	0	0	8212	564758	0	0
2024-10-15 02:30:47			0	38020	0	0	0	21433	20010	162519	27052	1056045	46307	107867	0	0	8211	564967	0	0
2024-10-15 02:31:47			0	38002	0	0	0	21441	20000	162527	27076	1055956	46329	107870	0	0	8210	565719	0	0
2024-10-15 02:32:47			0	38017	0	0	0	21428	20000	162467	27171	1056062	46318	107865	0	0	8211	565118	0	0
2024-10-15 02:33:47			0	38014	0	0	0	21436	20010	162591	27092	1056018	46318	107868	0	0	8211	565207	0	0
2024-10-15 02:34:47			0	37987	0	0	0	21428	20010	162579	27429	1056071	46318	107865	0	0	8209	566289	0	0
2024-10-15 02:35:47			0	37985	0	0	0	21436	20000	162631	27102	1056062	46318	107868	0	0	8209	566401	0	0
2024-10-15 02:36:47			0	37975	0	0	0	21423	20010	162635	27523	1056054	46308	107863	0	0	8209	566770	0	0
2024-10-15 02:37:47			0	37961	0	0	0	21433	20010	162671	27031	1056018	46318	107867	0	0	8208	567332	0	0
2024-10-15 02:38:47			0	37957	0	0	0	21425	20010	162755	27331	1056054	46319	107864	0	0	8208	567493	0	0
2024-10-15 02:39:47			0	37977	0	0	0	21431	20000	162655	27112	1056009	46307	107866	0	0	8209	566721	0	0
2024-10-15 02:40:47			0	37963	0	0	0	21433	20010	162767	27020	1056018	46307	107867	0	0	8208	567252	0	0
2024-10-15 02:41:47			0	37976	0	0	0	21431	20000	162739	27386	1056062	46307	107866	0	0	8209	566761	0	0
2024-10-15 02:42:47			0	37951	0	0	0	21431	20000	162755	27287	1055974	46306	107866	0	0	8207	567765	0	0
2024-10-15 02:43:47			0	37944	0	0	0	21431	20010	162723	27329	1055992	46307	107866	0	0	8207	568015	0	0
2024-10-15 02:44:47			0	37939	0	0	0	21438	20000	162783	27263	1056000	46317	107869	0	0	8206	568247	0	0
2024-10-15 02:45:47			0	37919	0	0	0	21433	20000	162843	27074	1056036	46307	107867	0	0	8205	569051	0	0
2024-10-15 02:46:47			0	37923	0	0	0	21444	20000	162823	27126	1056000	46317	107871	0	0	8205	568890	0	0
2024-10-15 02:47:47			0	37902	0	0	0	21441	20000	162835	27215	1056036	46307	107870	0	0	8204	569735	0	0
2024-10-15 02:48:47			0	37918	0	0	0	21431	20000	162907	27168	1056027	46317	107866	0	0	8205	569091	0	0
2024-10-15 02:49:47			0	37907	0	0	0	21438	20000	163003	27048	1056107	46317	107869	0	0	8204	569533	0	0
2024-10-15 02:50:47			0	37888	0	0	0	21431	20000	162931	26715	1056027	46317	107866	0	0	8203	570298	0	0
2024-10-15 02:51:47			0	37881	0	0	0	21431	20000	162983	27263	1055983	46318	107866	0	0	8203	570580	0	0
2024-10-15 02:52:47			0	37882	0	0	0	21431	20000	162943	27168	1056009	46307	107866	0	0	8203	570540	0	0
2024-10-15 02:53:47			0	37903	0	0	0	21446	19990	162947	27119	1055991	46316	107872	0	0	8204	569726	0	0
2024-10-15 02:54:47			0	37866	0	0	0	21431	19990	163043	26928	1055991	46294	107866	0	0	8202	571216	0	0
2024-10-15 02:55:47			0	37876	0	0	0	21438	20000	163023	27147	1056000	46295	107869	0	0	8203	570782	0	0
2024-10-15 02:56:47			0	37879	0	0	0	21431	20000	163099	27074	1056009	46307	107866	0	0	8203	570661	0	0
2024-10-15 02:57:47			0	37869	0	0	0	21431	20010	163011	27066	1056027	46297	107866	0	0	8202	571032	0	0
2024-10-15 02:58:47			0	37852	0	0	0	21438	20010	163135	27114	1056045	46307	107869	0	0	8201	571718	0	0
2024-10-15 02:59:47			0	37843	0	0	0	21438	20000	163195	27322	1056036	46318	107869	0	0	8201	572112	0	0
2024-10-15 03:00:47			0	37849	0	0	0	21441	20000	163235	26958	1056053	46317	107870	0	0	8201	571870	0	0
2024-10-15 03:01:47			0	37851	0	0	0	21436	20010	163175	26814	1056045	46339	107868	0	0	8201	571758	0	0
2024-10-15 03:02:47			0	37847	0	0	0	21441	20010	163199	26927	1055992	46307	107870	0	0	8201	571919	0	0
2024-10-15 03:03:47			0	37837	0	0	0	21433	20010	163151	26996	1056045	46307	107867	0	0	8200	572323	0	0
2024-10-15 03:04:47			0	37829	0	0	0	21433	20010	163187	26942	1055992	46307	107867	0	0	8200	572646	0	0
2024-10-15 03:05:47			0	37845	0	0	0	21428	20000	163155	27241	1056036	46307	107865	0	0	8201	572032	0	0
2024-10-15 03:06:47			0	37846	0	0	0	21436	20000	163155	26986	1056027	46317	107868	0	0	8201	571991	0	0
2024-10-15 03:07:47			0	37843	0	0	0	21423	20000	163135	26786	1056009	46307	107863	0	0	8201	572112	0	0
2024-10-15 03:08:47			0	37829	0	0	0	21428	20000	163167	27270	1056062	46307	107865	0	0	8200	572677	0	0
2024-10-15 03:09:47			0	37849	0	0	0	21420	20000	163147	27293	1056009	46307	107862	0	0	8201	571870	0	0
2024-10-15 03:10:47			0	37843	0	0	0	21423	20000	163219	27315	1056009	46318	107863	0	0	8201	572112	0	0
2024-10-15 03:11:47			0	37836	0	0	0	21418	20010	163235	27081	1056018	46296	107861	0	0	8201	572363	0	0
2024-10-15 03:12:47			0	37820	0	0	0	21425	20000	163255	27119	1055974	46306	107864	0	0	8199	573041	0	0
2024-10-15 03:13:47			0	37857	0	0	0	21433	20000	163159	26982	1055920	46306	107867	0	0	8202	571547	0	0
2024-10-15 03:14:47			0	37831	0	0	0	21428	20000	163215	26913	1056009	46296	107865	0	0	8200	572596	0	0
2024-10-15 03:15:47			0	37829	0	0	0	21423	19990	163195	27102	1055991	46327	107863	0	0	8200	572709	0	0
2024-10-15 03:16:47			0	37793	0	0	0	21423	20000	163371	27348	1055947	46295	107863	0	0	8198	574132	0	0
2024-10-15 03:17:47			0	37813	0	0	0	21420	20000	163435	27436	1056027	46295	107862	0	0	8199	573324	0	0
2024-10-15 03:18:47			0	37805	0	0	0	21425	19990	163407	27079	1055982	46316	107864	0	0	8199	573679	0	0
2024-10-15 03:19:47			0	37768	0	0	0	21420	20000	163343	27443	1056027	46306	107862	0	0	8196	575144	0	0
2024-10-15 03:20:47			0	37759	0	0	0	21418	20000	163403	27046	1055974	46295	107861	0	0	8196	575508	0	0
2024-10-15 03:21:47			0	37732	0	0	0	21410	20000	163559	27109	1055947	46317	107858	0	0	8195	576602	0	0
2024-10-15 03:22:47			0	37766	0	0	0	21410	20000	163547	26939	1055929	46318	107858	0	0	8197	575225	0	0
2024-10-15 03:23:47			0	37745	0	0	0	21412	19990	163527	27345	1055903	46305	107859	0	0	8195	576107	0	0
2024-10-15 03:24:47			0	37734	0	0	0	21399	19980	163663	27163	1055938	46315	107854	0	0	8195	576585	0	0
2024-10-15 03:25:47			0	37736	0	0	0	21399	19990	163623	27079	1055965	46316	107854	0	0	8195	576472	0	0
2024-10-15 03:26:47			0	37736	0	0	0	21389	19980	163703	26906	1055885	46304	107850	0	0	8195	576504	0	0
2024-10-15 03:27:47			0	37717	0	0	0	21394	19990	163647	27074	1055956	46294	107852	0	0	8194	577243	0	0
2024-10-15 03:28:47			0	37743	0	0	0	21386	19980	163655	27481	1055920	46305	107849	0	0	8195	576220	0	0
2024-10-15 03:29:47			0	37766	0	0	0	21394	19980	163551	27376	1055858	46304	107852	0	0	8197	575288	0	0
2024-10-15 03:30:47			0	37784	0	0	0	21397	19980	163479	27189	1055885	46326	107853	0	0	8198	574559	0	0
2024-10-15 03:31:47			0	37785	0	0	0	21389	19970	163479	27116	1055893	46303	107850	0	0	8198	574551	0	0
2024-10-15 03:32:47			0	37774	0	0	0	21389	19970	163527	27249	1055876	46303	107850	0	0	8197	574996	0	0
2024-10-15 03:33:47			0	37757	0	0	0	21384	19980	163595	27289	1055885	46304	107848	0	0	8196	575653	0	0
2024-10-15 03:34:47			0	37760	0	0	0	21394	19970	163615	27020	1055876	46303	107852	0	0	8196	575563	0	0
2024-10-15 03:35:47			0	37749	0	0	0	21394	19950	163587	27355	1055849	46291	107852	0	0	8196	576072	0	0
2024-10-15 03:36:47			0	37747	0	0	0	21389	19980	163523	26949	1055885	46304	107850	0	0	8196	576058	0	0
2024-10-15 03:37:47			0	37763	0	0	0	21397	19970	163635	27209	1055813	46303	107853	0	0	8196	575441	0	0
2024-10-15 03:38:47			0	37745	0	0	0	21389	19970	163531	27102	1055866	46303	107850	0	0	8195	576171	0	0
2024-10-15 03:39:47			0	37724	0	0	0	21392	19970	163683	27149	1055866	46314	107851	0	0	8194	577022	0	0
2024-10-15 03:40:47			0	37711	0	0	0	21389	19980	163647	27220	1055885	46315	107850	0	0	8194	577518	0	0
2024-10-15 03:41:47			0	37726	0	0	0	21389	19970	163747	27199	1055840	46303	107850	0	0	8194	576941	0	0
2024-10-15 03:42:47			0	37719	0	0	0	21394	19980	163755	26819	1055885	46304	107852	0	0	8194	577193	0	0
2024-10-15 03:43:47			0	37707	0	0	0	21392	19950	163759	27287	1055840	46301	107851	0	0	8193	577776	0	0
2024-10-15 03:44:47			0	37703	0	0	0	21384	19970	163775	27123	1055840	46314	107848	0	0	8193	577875	0	0
2024-10-15 03:45:47			0	37693	0	0	0	21392	19970	163823	27060	1055840	46314	107851	0	0	8192	578281	0	0
2024-10-15 03:46:47			0	37686	0	0	0	21394	19970	163823	27060	1055823	46303	107852	0	0	8192	578566	0	0
2024-10-15 03:47:47			0	37693	0	0	0	21394	19970	163839	27152	1055866	46303	107852	0	0	8192	578281	0	0
2024-10-15 03:48:47			0	37709	0	0	0	21402	19970	163899	26885	1055866	46314	107855	0	0	8193	577631	0	0
2024-10-15 03:49:47			0	37687	0	0	0	21399	19970	163831	26753	1055849	46325	107854	0	0	8192	578525	0	0
2024-10-15 03:50:47			0	37733	0	0	0	21405	19970	163743	27159	1055876	46303	107856	0	0	8195	576657	0	0
2024-10-15 03:51:47			0	37731	0	0	0	21399	19950	163735	26994	1055849	46313	107854	0	0	8194	576802	0	0
2024-10-15 03:52:47			0	37721	0	0	0	21384	19970	163659	27088	1055929	46291	107848	0	0	8194	577144	0	0
2024-10-15 03:53:47			0	37721	0	0	0	21407	19980	163799	27251	1055885	46315	107857	0	0	8194	577112	0	0
2024-10-15 03:54:47			0	37699	0	0	0	21389	19960	163879	27057	1055858	46291	107850	0	0	8193	578069	0	0
2024-10-15 03:55:47			0	37692	0	0	0	21397	19960	163863	27074	1055831	46302	107853	0	0	8192	578354	0	0
2024-10-15 03:56:47			0	37704	0	0	0	21405	19970	163783	26948	1055813	46314	107856	0	0	8193	577834	0	0
2024-10-15 03:57:47			0	37711	0	0	0	21397	19960	163779	27048	1055858	46313	107853	0	0	8193	577582	0	0
2024-10-15 03:58:47			0	37712	0	0	0	21399	19970	163879	27000	1055866	46303	107854	0	0	8193	577509	0	0
2024-10-15 03:59:47			0	37716	0	0	0	21392	19980	163859	27045	1055938	46304	107851	0	0	8194	577315	0	0
2024-10-15 04:00:47			0	37727	0	0	0	21407	19970	163799	27010	1055920	46314	107857	0	0	8194	576901	0	0
2024-10-15 04:01:47			0	37737	0	0	0	21407	19970	163747	27131	1055849	46303	107857	0	0	8195	576495	0	0
2024-10-15 04:02:47			0	37727	0	0	0	21410	19960	163731	26935	1055858	46302	107858	0	0	8194	576932	0	0
2024-10-15 04:03:47			0	37756	0	0	0	21405	19970	163683	27296	1055876	46314	107856	0	0	8196	575725	0	0
2024-10-15 04:04:47			0	37779	0	0	0	21410	19980	163599	26918	1055885	46304	107858	0	0	8197	574762	0	0
2024-10-15 04:05:47			0	37782	0	0	0	21418	19970	163507	27386	1055866	46314	107861	0	0	8197	574672	0	0
2024-10-15 04:06:47			0	37789	0	0	0	21418	19960	163467	27071	1055937	46302	107861	0	0	8198	574420	0	0
2024-10-15 04:07:47			0	37785	0	0	0	21405	19970	163523	27232	1055902	46303	107856	0	0	8198	574551	0	0
2024-10-15 04:08:47			0	37790	0	0	0	21412	19970	163507	27300	1055866	46303	107859	0	0	8198	574348	0	0
2024-10-15 04:09:47			0	37784	0	0	0	21415	19970	163603	27031	1055920	46303	107860	0	0	8197	574591	0	0
2024-10-15 04:10:47			0	37801	0	0	0	21441	19970	163487	27248	1055955	46314	107870	0	0	8198	573904	0	0
2024-10-15 04:11:47			0	37793	0	0	0	21433	19980	163447	27348	1055885	46326	107867	0	0	8198	574195	0	0
2024-10-15 04:12:47			0	37799	0	0	0	21431	19980	163395	27452	1055938	46315	107866	0	0	8198	573953	0	0
2024-10-15 04:13:47			0	37811	0	0	0	21428	19970	163419	27398	1055982	46314	107865	0	0	8199	573499	0	0
2024-10-15 04:14:47			0	37820	0	0	0	21428	19980	163359	27171	1055938	46304	107865	0	0	8199	573104	0	0
2024-10-15 04:15:47			0	37807	0	0	0	21444	19980	163427	27189	1055973	46316	107871	0	0	8198	573629	0	0
2024-10-15 04:16:47			0	37807	0	0	0	21441	19990	163415	27157	1056036	46316	107870	0	0	8198	573598	0	0
2024-10-15 04:17:47			0	37787	0	0	0	21428	19980	163407	27279	1055964	46326	107865	0	0	8197	574438	0	0
2024-10-15 04:18:47			0	37800	0	0	0	21423	19980	163451	27370	1056000	46327	107863	0	0	8198	573912	0	0
2024-10-15 04:19:47			0	37789	0	0	0	21428	19980	163503	27315	1056053	46305	107865	0	0	8197	574357	0	0
2024-10-15 04:20:47			0	37783	0	0	0	21425	19990	163471	27147	1055991	46316	107864	0	0	8197	574568	0	0
2024-10-15 04:21:47			0	37775	0	0	0	21436	19990	163655	27275	1055991	46305	107868	0	0	8197	574892	0	0
2024-10-15 04:22:47			0	37772	0	0	0	21433	19980	163671	27547	1055947	46316	107867	0	0	8196	575045	0	0
2024-10-15 04:23:47			0	37766	0	0	0	21436	19980	163663	27157	1056000	46327	107868	0	0	8196	575288	0	0
2024-10-15 04:24:47			0	37758	0	0	0	21433	19990	163603	27315	1055991	46305	107867	0	0	8196	575580	0	0
2024-10-15 04:25:47			0	37754	0	0	0	21441	19990	163663	27267	1055991	46305	107870	0	0	8195	575742	0	0
2024-10-15 04:26:47			0	37795	0	0	0	21470	20000	163479	27422	1056027	46317	107881	0	0	8197	574051	0	0
2024-10-15 04:27:47			0	37803	0	0	0	21464	19990	163423	27235	1056018	46327	107879	0	0	8198	573759	0	0
2024-10-15 04:28:47			0	37843	0	0	0	21431	20000	163319	27182	1056027	46317	107866	0	0	8201	572112	0	0
2024-10-15 04:29:47			0	37820	0	0	0	21420	19990	163367	27145	1056018	46305	107862	0	0	8199	573072	0	0
2024-10-15 04:30:47			0	37807	0	0	0	21420	19990	163423	27187	1055991	46305	107862	0	0	8199	573598	0	0
2024-10-15 04:31:47			0	37805	0	0	0	21449	19990	163455	27057	1055965	46305	107873	0	0	8198	573679	0	0
2024-10-15 04:32:47			0	37842	0	0	0	21470	19990	163295	27351	1055991	46316	107881	0	0	8200	572184	0	0
2024-10-15 04:33:47			0	37908	0	0	0	21480	19990	162903	27319	1055991	46316	107885	0	0	8204	569525	0	0
2024-10-15 04:34:47			0	37952	0	0	0	21483	19990	162691	27085	1056018	46316	107886	0	0	8206	567756	0	0
2024-10-15 04:35:47			0	37981	0	0	0	21485	20000	162587	27201	1056080	46317	107887	0	0	8208	566561	0	0
2024-10-15 04:36:47			0	38023	0	0	0	21488	19980	162603	27166	1056027	46305	107888	0	0	8210	564941	0	0
2024-10-15 04:37:47			0	38020	0	0	0	21485	20000	162491	27402	1056089	46318	107887	0	0	8210	564998	0	0
2024-10-15 04:38:47			0	38032	0	0	0	21493	20010	162500	27157	1056071	46318	107890	0	0	8211	564487	0	0
2024-10-15 04:39:47			0	38033	0	0	0	21475	20010	162516	27142	1056098	46329	107883	0	0	8211	564447	0	0
2024-10-15 04:40:47			0	38040	0	0	0	21449	20000	162648	27564	1056089	46318	107873	0	0	8212	564198	0	0
2024-10-15 04:41:47			0	37962	0	0	0	21423	20010	162707	27414	1056124	46307	107863	0	0	8208	567292	0	0
2024-10-15 04:42:47			0	37951	0	0	0	21436	20000	162807	27473	1056009	46307	107868	0	0	8207	567765	0	0
2024-10-15 04:43:47			0	37939	0	0	0	21418	20000	162759	27317	1055947	46306	107861	0	0	8207	568247	0	0
2024-10-15 04:44:47			0	37910	0	0	0	21405	20000	162863	27336	1055947	46295	107856	0	0	8205	569413	0	0
2024-10-15 04:45:47			0	37898	0	0	0	21402	19990	162939	27300	1055991	46305	107855	0	0	8204	569927	0	0
2024-10-15 04:46:47			0	37883	0	0	0	21407	19990	163203	27341	1055938	46283	107857	0	0	8203	570531	0	0
2024-10-15 04:47:47			0	37857	0	0	0	21423	19990	163207	27293	1055903	46305	107863	0	0	8202	571579	0	0
2024-10-15 04:48:47			0	37854	0	0	0	21433	19980	163231	27332	1056000	46305	107867	0	0	8201	571731	0	0
2024-10-15 04:49:47			0	37875	0	0	0	21457	19980	163151	27251	1055938	46304	107876	0	0	8202	570885	0	0
2024-10-15 04:50:47			0	37892	0	0	0	21472	19980	163147	27319	1056044	46326	107882	0	0	8203	570200	0	0
2024-10-15 04:51:47			0	37913	0	0	0	21488	19990	163051	27215	1056036	46316	107888	0	0	8204	569324	0	0
2024-10-15 04:52:47			0	37954	0	0	0	21483	19990	162815	27263	1056062	46316	107886	0	0	8206	567676	0	0
2024-10-15 04:53:47			0	37993	0	0	0	21496	20000	162663	27303	1056062	46339	107891	0	0	8208	566080	0	0
2024-10-15 04:54:47			0	37981	0	0	0	21485	20010	162547	27369	1056124	46318	107887	0	0	8208	566530	0	0
2024-10-15 04:55:47			0	38013	0	0	0	21493	20000	162631	27367	1056195	46329	107890	0	0	8210	565279	0	0
2024-10-15 04:56:47			0	38046	0	0	0	21496	20020	162516	27336	1056196	46330	107891	0	0	8212	563896	0	0
2024-10-15 04:57:47			0	38041	0	0	0	21501	20020	162364	27275	1056196	46340	107893	0	0	8211	564096	0	0
2024-10-15 04:58:47			0	38065	0	0	0	21493	20020	162236	27249	1056231	46331	107890	0	0	8213	563137	0	0
2024-10-15 04:59:47			0	38083	0	0	0	21506	20030	162212	27232	1056267	46331	107895	0	0	8214	562387	0	0
2024-10-15 05:00:47			0	38089	0	0	0	21506	20040	162272	27434	1056258	46321	107895	0	0	8214	562116	0	0
2024-10-15 05:01:47			0	38096	0	0	0	21501	20030	162212	27405	1056302	46332	107893	0	0	8215	561868	0	0
2024-10-15 05:02:47			0	38110	0	0	0	21496	20040	162112	27137	1056311	46332	107891	0	0	8216	561279	0	0
2024-10-15 05:03:47			0	38081	0	0	0	21493	20040	162196	27150	1056258	46342	107890	0	0	8214	562436	0	0
2024-10-15 05:04:47			0	38080	0	0	0	21472	20040	162264	27137	1056338	46332	107882	0	0	8214	562475	0	0
2024-10-15 05:05:47			0	38045	0	0	0	21436	20030	162336	27119	1056240	46298	107868	0	0	8213	563905	0	0
2024-10-15 05:06:47			0	37998	0	0	0	21389	20030	162435	27343	1056143	46310	107850	0	0	8211	565786	0	0
2024-10-15 05:07:47			0	37953	0	0	0	21379	20020	162763	27223	1056089	46297	107846	0	0	8208	567622	0	0
2024-10-15 05:08:47			0	37894	0	0	0	21355	20010	162951	27377	1056054	46286	107837	0	0	8205	570025	0	0
2024-10-15 05:09:47			0	37862	0	0	0	21342	20010	163103	27183	1055947	46297	107832	0	0	8203	571314	0	0
2024-10-15 05:10:47			0	37816	0	0	0	21358	20000	163275	27457	1055920	46295	107838	0	0	8200	573202	0	0
2024-10-15 05:11:47			0	37796	0	0	0	21381	19980	163491	27459	1055840	46283	107847	0	0	8199	574074	0	0
2024-10-15 05:12:47			0	37772	0	0	0	21423	19990	163575	27398	1055849	46294	107863	0	0	8197	575013	0	0
2024-10-15 05:13:47			0	37816	0	0	0	21454	19970	163383	27130	1055876	46303	107875	0	0	8199	573297	0	0
2024-10-15 05:14:47			0	37888	0	0	0	21475	19980	163155	27123	1055938	46304	107883	0	0	8203	570361	0	0
2024-10-15 05:15:47			0	37915	0	0	0	21480	19980	162963	27053	1056000	46316	107885	0	0	8204	569274	0	0
2024-10-15 05:16:47			0	37949	0	0	0	21470	19980	162871	27246	1056027	46327	107881	0	0	8206	567908	0	0
2024-10-15 05:17:47			0	37957	0	0	0	21441	19990	162855	27182	1056009	46327	107870	0	0	8207	567555	0	0
2024-10-15 05:18:47			0	37950	0	0	0	21407	19980	162779	27135	1055973	46305	107857	0	0	8207	567867	0	0
2024-10-15 05:19:47			0	37901	0	0	0	21358	19980	163111	27336	1055894	46294	107838	0	0	8205	569838	0	0
2024-10-15 05:20:47			0	37855	0	0	0	21345	19980	163199	27315	1055894	46294	107833	0	0	8203	571691	0	0
2024-10-15 05:21:47			0	37806	0	0	0	21335	19970	163551	27313	1055823	46291	107829	0	0	8200	573701	0	0
2024-10-15 05:22:47			0	37773	0	0	0	21342	19960	163711	27261	1055804	46280	107832	0	0	8198	575068	0	0
2024-10-15 05:23:47			0	37760	0	0	0	21329	19950	163671	27543	1055707	46279	107827	0	0	8197	575626	0	0
2024-10-15 05:24:47			0	37720	0	0	0	21319	19940	163727	27362	1055724	46290	107823	0	0	8195	577280	0	0
2024-10-15 05:25:47			0	37693	0	0	0	21314	19930	163983	27183	1055653	46278	107821	0	0	8193	578409	0	0
2024-10-15 05:26:47			0	37694	0	0	0	21311	19950	163991	27118	1055707	46290	107820	0	0	8194	578304	0	0
2024-10-15 05:27:47			0	37674	0	0	0	21316	19930	164027	27471	1055680	46289	107822	0	0	8192	579181	0	0
2024-10-15 05:28:47			0	37662	0	0	0	21322	19930	163967	27436	1055671	46288	107824	0	0	8192	579669	0	0
2024-10-15 05:29:47			0	37677	0	0	0	21329	19930	163887	27204	1055574	46300	107827	0	0	8192	579059	0	0
2024-10-15 05:30:47			0	37693	0	0	0	21322	19910	163999	27286	1055644	46298	107824	0	0	8193	578472	0	0
2024-10-15 05:31:47			0	37686	0	0	0	21314	19910	163995	27481	1055591	46287	107821	0	0	8193	578757	0	0
2024-10-15 05:32:47			0	37688	0	0	0	21319	19910	163911	27242	1055644	46298	107823	0	0	8193	578676	0	0
2024-10-15 05:33:47			0	37670	0	0	0	21319	19910	164011	27007	1055662	46297	107823	0	0	8192	579408	0	0
2024-10-15 05:34:47			0	37658	0	0	0	21319	19910	164035	26949	1055582	46297	107823	0	0	8191	579896	0	0
2024-10-15 05:35:47			0	37666	0	0	0	21314	19900	164107	27135	1055546	46307	107821	0	0	8192	579602	0	0
2024-10-15 05:36:47			0	37667	0	0	0	21314	19910	164167	27062	1055582	46297	107821	0	0	8192	579530	0	0
2024-10-15 05:37:47			0	37653	0	0	0	21311	19880	164187	27260	1055537	46294	107820	0	0	8191	580196	0	0
2024-10-15 05:38:47			0	37633	0	0	0	21314	19890	164107	27284	1055555	46307	107821	0	0	8190	580978	0	0
2024-10-15 05:39:47			0	37655	0	0	0	21314	19890	164211	27280	1055555	46307	107821	0	0	8191	580082	0	0
2024-10-15 05:40:47			0	37647	0	0	0	21309	19890	164163	26932	1055582	46307	107819	0	0	8191	580408	0	0
2024-10-15 05:41:47			0	37643	0	0	0	21303	19890	164207	27270	1055546	46295	107817	0	0	8191	580571	0	0
2024-10-15 05:42:47			0	37642	0	0	0	21309	19890	164107	26840	1055555	46296	107819	0	0	8190	580612	0	0
2024-10-15 05:43:47			0	37644	0	0	0	21303	19900	164179	26831	1055484	46307	107817	0	0	8191	580498	0	0
2024-10-15 05:44:47			0	37629	0	0	0	21311	19880	164223	27241	1055537	46294	107820	0	0	8190	581173	0	0
2024-10-15 05:45:47			0	37636	0	0	0	21303	19880	164203	26991	1055582	46294	107817	0	0	8190	580888	0	0
2024-10-15 05:46:47			0	37624	0	0	0	21306	19890	164171	27372	1055520	46284	107818	0	0	8189	581345	0	0
2024-10-15 05:47:47			0	37641	0	0	0	21306	19890	164207	27182	1055413	46317	107818	0	0	8190	580652	0	0
2024-10-15 05:48:47			0	37629	0	0	0	21298	19880	164191	27673	1055458	46294	107815	0	0	8190	581173	0	0
2024-10-15 05:49:47			0	37609	0	0	0	21309	19880	164263	27225	1055449	46283	107819	0	0	8188	581989	0	0
2024-10-15 05:50:47			0	37624	0	0	0	21309	19880	164351	27388	1055537	46305	107819	0	0	8189	581377	0	0
2024-10-15 05:51:47			0	37605	0	0	0	21314	19890	164375	27038	1055502	46296	107821	0	0	8188	582120	0	0
2024-10-15 05:52:47			0	37621	0	0	0	21309	19870	164395	27003	1055440	46294	107819	0	0	8189	581532	0	0
2024-10-15 05:53:47			0	37623	0	0	0	21311	19890	164379	27208	1055413	46306	107820	0	0	8189	581386	0	0
2024-10-15 05:54:47			0	37616	0	0	0	21306	19880	164375	27284	1055422	46305	107818	0	0	8189	581704	0	0
2024-10-15 05:55:47			0	37607	0	0	0	21306	19880	164375	27072	1055449	46327	107818	0	0	8188	582071	0	0
2024-10-15 05:56:47			0	37618	0	0	0	21309	19870	164399	27263	1055440	46294	107819	0	0	8189	581654	0	0
2024-10-15 05:57:47			0	37594	0	0	0	21314	19880	164403	27090	1055537	46283	107821	0	0	8187	582601	0	0
2024-10-15 05:58:47			0	37596	0	0	0	21316	19880	164255	27331	1055484	46305	107822	0	0	8187	582520	0	0
2024-10-15 05:59:47			0	37594	0	0	0	21316	19880	164351	27059	1055528	46305	107822	0	0	8187	582601	0	0
2024-10-15 06:00:47			0	37628	0	0	0	21316	19880	164299	27364	1055449	46305	107822	0	0	8189	581214	0	0
2024-10-15 06:01:47			0	37636	0	0	0	21311	19880	164175	27390	1055395	46305	107820	0	0	8190	580888	0	0
2024-10-15 06:02:47			0	37670	0	0	0	21309	19880	164151	27223	1055502	46305	107819	0	0	8192	579504	0	0
2024-10-15 06:03:47			0	37697	0	0	0	21309	19880	164027	27282	1055458	46305	107819	0	0	8194	578405	0	0
2024-10-15 06:04:47			0	37689	0	0	0	21309	19870	164083	27244	1055546	46294	107819	0	0	8193	578763	0	0
2024-10-15 06:05:47			0	37707	0	0	0	21314	19870	163927	26961	1055493	46305	107821	0	0	8194	578031	0	0
2024-10-15 06:06:47			0	37734	0	0	0	21311	19880	163911	27308	1055528	46294	107820	0	0	8196	576903	0	0
2024-10-15 06:07:47			0	37716	0	0	0	21319	19890	163859	27206	1055546	46295	107823	0	0	8195	577602	0	0
2024-10-15 06:08:47			0	37744	0	0	0	21314	19880	163779	27095	1055564	46272	107821	0	0	8196	576497	0	0
2024-10-15 06:09:47			0	37730	0	0	0	21309	19880	163811	26972	1055449	46305	107819	0	0	8196	577065	0	0
2024-10-15 06:10:47			0	37747	0	0	0	21311	19880	163807	27019	1055458	46305	107820	0	0	8197	576375	0	0
2024-10-15 06:11:47			0	37762	0	0	0	21316	19890	163703	27244	1055546	46306	107822	0	0	8197	575736	0	0
2024-10-15 06:12:47			0	37769	0	0	0	21322	19880	163695	27258	1055449	46294	107824	0	0	8198	575484	0	0
2024-10-15 06:13:47			0	37755	0	0	0	21311	19880	163767	27137	1055564	46294	107820	0	0	8197	576051	0	0
2024-10-15 06:14:47			0	37753	0	0	0	21316	19880	163795	27171	1055537	46305	107822	0	0	8197	576132	0	0
2024-10-15 06:15:47			0	37777	0	0	0	21319	19880	163743	27471	1055484	46294	107823	0	0	8198	575160	0	0
2024-10-15 06:16:47			0	37793	0	0	0	21319	19880	163667	27251	1055449	46294	107823	0	0	8199	574512	0	0
2024-10-15 06:17:47			0	37793	0	0	0	21314	19880	163611	27059	1055511	46294	107821	0	0	8199	574512	0	0
2024-10-15 06:18:47			0	37793	0	0	0	21309	19880	163543	27114	1055449	46294	107819	0	0	8199	574512	0	0
2024-10-15 06:19:47			0	37817	0	0	0	21309	19880	163651	27310	1055511	46305	107819	0	0	8201	573541	0	0
2024-10-15 06:20:47			0	37796	0	0	0	21316	19880	163559	27239	1055458	46305	107822	0	0	8199	574390	0	0
2024-10-15 06:21:47			0	37824	0	0	0	21309	19880	163519	27109	1055528	46283	107819	0	0	8201	573258	0	0
2024-10-15 06:22:47			0	37830	0	0	0	21314	19880	163543	26953	1055537	46294	107821	0	0	8201	573016	0	0
2024-10-15 06:23:47			0	37832	0	0	0	21309	19870	163495	27163	1055431	46293	107819	0	0	8202	572967	0	0
2024-10-15 06:24:47			0	37817	0	0	0	21301	19880	163427	27012	1055528	46305	107816	0	0	8201	573541	0	0
2024-10-15 06:25:47			0	37833	0	0	0	21303	19880	163407	27343	1055528	46305	107817	0	0	8202	572895	0	0
2024-10-15 06:26:47			0	37830	0	0	0	21306	19880	163403	27370	1055537	46294	107818	0	0	8202	573016	0	0
2024-10-15 06:27:47			0	37807	0	0	0	21303	19880	163427	27124	1055502	46294	107817	0	0	8200	573946	0	0
2024-10-15 06:28:47			0	37801	0	0	0	21311	19880	163499	26934	1055475	46294	107820	0	0	8200	574188	0	0
2024-10-15 06:29:47			0	37786	0	0	0	21296	19880	163527	27074	1055449	46294	107814	0	0	8199	574795	0	0
2024-10-15 06:30:47			0	37804	0	0	0	21306	19880	163403	27403	1055528	46283	107818	0	0	8200	574067	0	0
2024-10-15 06:31:47			0	37813	0	0	0	21296	19880	163435	27206	1055475	46294	107814	0	0	8201	573703	0	0
2024-10-15 06:32:47			0	37845	0	0	0	21311	19880	163459	27092	1055458	46305	107820	0	0	8202	572410	0	0
2024-10-15 06:33:47			0	37837	0	0	0	21309	19870	163463	27173	1055519	46294	107819	0	0	8202	572764	0	0
2024-10-15 06:34:47			0	37827	0	0	0	21298	19870	163367	27256	1055519	46294	107815	0	0	8201	573169	0	0
2024-10-15 06:35:47			0	37855	0	0	0	21306	19870	163303	27015	1055466	46294	107818	0	0	8203	572038	0	0
2024-10-15 06:36:47			0	37864	0	0	0	21298	19870	163351	26916	1055431	46282	107815	0	0	8204	571675	0	0
2024-10-15 06:37:47			0	37859	0	0	0	21301	19880	163331	27258	1055404	46294	107816	0	0	8203	571845	0	0
2024-10-15 06:38:47			0	37854	0	0	0	21306	19870	163303	27189	1055440	46305	107818	0	0	8203	572078	0	0
2024-10-15 06:39:47			0	37863	0	0	0	21301	19870	163363	27183	1055519	46294	107816	0	0	8204	571715	0	0
2024-10-15 06:40:47			0	37867	0	0	0	21290	19870	163315	27313	1055511	46293	107812	0	0	8204	571554	0	0
2024-10-15 06:41:47			0	37852	0	0	0	21293	19870	163259	27358	1055511	46293	107813	0	0	8203	572159	0	0
2024-10-15 06:42:47			0	37864	0	0	0	21290	19860	163299	27286	1055475	46314	107812	0	0	8204	571706	0	0
2024-10-15 06:43:47			0	37902	0	0	0	21293	19870	163159	27320	1055440	46294	107813	0	0	8206	570143	0	0
2024-10-15 06:44:47			0	37916	0	0	0	21288	19870	163147	27209	1055387	46294	107811	0	0	8207	569579	0	0
2024-10-15 06:45:47			0	37936	0	0	0	21280	19870	162995	27194	1055404	46304	107808	0	0	8208	568775	0	0
2024-10-15 06:46:47			0	37952	0	0	0	21285	19870	162947	27256	1055431	46293	107810	0	0	8209	568132	0	0
2024-10-15 06:47:47			0	37950	0	0	0	21290	19870	162863	27104	1055387	46294	107812	0	0	8209	568212	0	0
2024-10-15 06:48:47			0	37953	0	0	0	21290	19860	162979	26856	1055386	46302	107812	0	0	8209	568123	0	0
2024-10-15 06:49:47			0	37954	0	0	0	21288	19860	163027	27124	1055395	46314	107811	0	0	8209	568083	0	0
2024-10-15 06:50:47			0	37959	0	0	0	21293	19860	163019	27159	1055386	46313	107813	0	0	8209	567882	0	0
2024-10-15 06:51:47			0	37949	0	0	0	21288	19850	162903	27001	1055377	46280	107811	0	0	8209	568315	0	0
2024-10-15 06:52:47			0	37952	0	0	0	21290	19860	162947	27275	1055422	46281	107812	0	0	8209	568163	0	0
2024-10-15 06:53:47			0	37942	0	0	0	21301	19860	162963	27128	1055475	46292	107816	0	0	8208	568565	0	0
2024-10-15 06:54:47			0	37923	0	0	0	21285	19860	163051	27166	1055395	46292	107810	0	0	8207	569329	0	0
2024-10-15 06:55:47			0	37933	0	0	0	21290	19860	163059	27353	1055413	46280	107812	0	0	8208	568927	0	0
2024-10-15 06:56:47			0	37928	0	0	0	21280	19860	163107	27164	1055360	46291	107808	0	0	8208	569128	0	0
2024-10-15 06:57:47			0	37920	0	0	0	21288	19860	163023	27607	1055439	46302	107811	0	0	8207	569450	0	0
2024-10-15 06:58:47			0	37923	0	0	0	21288	19850	163103	27393	1055351	46313	107811	0	0	8207	569360	0	0
2024-10-15 06:59:47			0	37889	0	0	0	21285	19860	163151	27022	1055360	46302	107810	0	0	8205	570698	0	0
2024-10-15 07:00:47			0	37901	0	0	0	21285	19860	163343	27253	1055422	46314	107810	0	0	8206	570215	0	0
2024-10-15 07:01:47			0	37872	0	0	0	21288	19860	163355	26944	1055413	46280	107811	0	0	8204	571383	0	0
2024-10-15 07:02:47			0	37842	0	0	0	21290	19860	163415	27367	1055360	46302	107812	0	0	8202	572594	0	0
2024-10-15 07:03:47			0	37848	0	0	0	21280	19850	163363	27294	1055351	46302	107808	0	0	8203	572383	0	0
2024-10-15 07:04:47			0	37822	0	0	0	21293	19860	163451	27071	1055360	46302	107813	0	0	8201	573402	0	0
2024-10-15 07:05:47			0	37825	0	0	0	21285	19860	163455	27199	1055369	46292	107810	0	0	8201	573281	0	0
2024-10-15 07:06:47			0	37819	0	0	0	21288	19860	163407	27090	1055360	46291	107811	0	0	8201	573524	0	0
2024-10-15 07:07:47			0	37799	0	0	0	21277	19870	163539	27066	1055404	46315	107807	0	0	8200	574301	0	0
2024-10-15 07:08:47			0	37796	0	0	0	21283	19850	163567	27263	1055351	46302	107809	0	0	8200	574485	0	0
2024-10-15 07:09:47			0	37819	0	0	0	21283	19860	163467	27048	1055386	46302	107809	0	0	8201	573524	0	0
2024-10-15 07:10:47			0	37823	0	0	0	21275	19860	163535	27294	1055342	46292	107806	0	0	8202	573362	0	0
2024-10-15 07:11:47			0	37810	0	0	0	21280	19860	163463	27216	1055475	46292	107808	0	0	8201	573887	0	0
2024-10-15 07:12:47			0	37813	0	0	0	21288	19860	163467	27138	1055413	46291	107811	0	0	8201	573766	0	0
2024-10-15 07:13:47			0	37820	0	0	0	21280	19860	163403	26989	1055333	46302	107808	0	0	8201	573483	0	0
2024-10-15 07:14:47			0	37819	0	0	0	21285	19860	163531	27379	1055360	46291	107810	0	0	8201	573524	0	0
2024-10-15 07:15:47			0	37832	0	0	0	21270	19860	163511	27280	1055369	46303	107804	0	0	8202	572998	0	0
2024-10-15 07:16:47			0	37821	0	0	0	21275	19850	163499	26996	1055377	46280	107806	0	0	8201	573474	0	0
2024-10-15 07:17:47			0	37831	0	0	0	21283	19860	163495	27338	1055360	46291	107809	0	0	8202	573038	0	0
2024-10-15 07:18:47			0	37815	0	0	0	21283	19850	163563	27343	1055324	46302	107809	0	0	8201	573717	0	0
2024-10-15 07:19:47			0	37815	0	0	0	21280	19850	163555	27350	1055351	46302	107808	0	0	8201	573717	0	0
2024-10-15 07:20:47			0	37797	0	0	0	21277	19860	163559	27069	1055369	46292	107807	0	0	8200	574413	0	0
2024-10-15 07:21:47			0	37812	0	0	0	21277	19850	163495	27036	1055298	46280	107807	0	0	8201	573838	0	0
2024-10-15 07:22:47			0	37807	0	0	0	21277	19840	163507	27199	1055386	46290	107807	0	0	8200	574072	0	0
2024-10-15 07:23:47			0	37819	0	0	0	21285	19850	163499	27107	1055351	46291	107810	0	0	8201	573555	0	0
2024-10-15 07:24:47			0	37831	0	0	0	21283	19860	163479	27450	1055413	46302	107809	0	0	8202	573038	0	0
2024-10-15 07:25:47			0	37802	0	0	0	21277	19850	163607	27116	1055342	46291	107807	0	0	8200	574243	0	0
2024-10-15 07:26:47			0	37818	0	0	0	21277	19850	163531	27197	1055289	46291	107807	0	0	8201	573596	0	0
2024-10-15 07:27:47			0	37795	0	0	0	21275	19850	163679	27024	1055377	46291	107806	0	0	8200	574526	0	0
2024-10-15 07:28:47			0	37793	0	0	0	21267	19850	163719	27241	1055351	46302	107803	0	0	8200	574607	0	0
2024-10-15 07:29:47			0	37791	0	0	0	21270	19850	163723	27237	1055342	46291	107804	0	0	8200	574688	0	0
2024-10-15 07:30:47			0	37795	0	0	0	21272	19850	163619	27345	1055404	46280	107805	0	0	8200	574526	0	0
2024-10-15 07:31:47			0	37802	0	0	0	21270	19850	163711	27320	1055342	46302	107804	0	0	8200	574243	0	0
2024-10-15 07:32:47			0	37802	0	0	0	21270	19860	163567	27447	1055307	46291	107804	0	0	8200	574211	0	0
2024-10-15 07:33:47			0	37801	0	0	0	21267	19840	163603	27216	1055333	46301	107803	0	0	8200	574315	0	0
2024-10-15 07:34:47			0	37801	0	0	0	21267	19850	163575	27317	1055289	46280	107803	0	0	8200	574283	0	0
2024-10-15 07:35:47			0	37802	0	0	0	21270	19840	163667	27256	1055324	46278	107804	0	0	8200	574274	0	0
2024-10-15 07:36:47			0	37816	0	0	0	21259	19840	163535	27334	1055306	46279	107800	0	0	8201	573708	0	0
2024-10-15 07:37:47			0	37829	0	0	0	21259	19840	163483	26908	1055270	46290	107800	0	0	8202	573183	0	0
2024-10-15 07:38:47			0	37863	0	0	0	21257	19840	163351	27008	1055350	46290	107799	0	0	8204	571810	0	0
2024-10-15 07:39:47			0	37884	0	0	0	21254	19840	163347	27265	1055360	46290	107798	0	0	8205	570963	0	0
2024-10-15 07:40:47			0	37895	0	0	0	21257	19840	163231	27034	1055280	46290	107799	0	0	8206	570519	0	0
2024-10-15 07:41:47			0	37900	0	0	0	21254	19850	163179	27128	1055209	46291	107798	0	0	8206	570286	0	0
2024-10-15 07:42:47			0	37878	0	0	0	21251	19830	163295	27190	1055262	46290	107797	0	0	8205	571236	0	0
2024-10-15 07:43:47			0	37876	0	0	0	21251	19830	163387	27183	1055262	46290	107797	0	0	8205	571317	0	0
2024-10-15 07:44:47			0	37832	0	0	0	21246	19840	163371	27287	1055244	46267	107795	0	0	8202	573061	0	0
2024-10-15 07:45:47			0	37857	0	0	0	21246	19830	163351	27140	1055262	46300	107795	0	0	8204	572083	0	0
2024-10-15 07:46:47			0	37856	0	0	0	21249	19830	163359	27371	1055279	46300	107796	0	0	8204	572124	0	0
2024-10-15 07:47:47			0	37866	0	0	0	21246	19820	163347	27395	1055217	46289	107795	0	0	8204	571751	0	0
2024-10-15 07:48:47			0	37869	0	0	0	21246	19830	163131	27421	1055262	46300	107795	0	0	8205	571599	0	0
2024-10-15 07:49:47			0	37922	0	0	0	21246	19830	163119	27216	1055226	46278	107795	0	0	8208	569463	0	0
2024-10-15 07:50:47			0	37966	0	0	0	21249	19820	162851	27078	1055244	46289	107796	0	0	8210	567726	0	0
2024-10-15 07:51:47			0	38003	0	0	0	21251	19830	162823	27176	1055235	46300	107797	0	0	8212	566209	0	0
2024-10-15 07:52:47			0	38030	0	0	0	21246	19820	162680	27365	1055235	46287	107795	0	0	8214	565158	0	0
2024-10-15 07:53:47			0	38037	0	0	0	21244	19810	162636	27336	1055173	46287	107794	0	0	8214	564909	0	0
2024-10-15 07:54:47			0	38065	0	0	0	21249	19810	162528	26951	1055190	46298	107796	0	0	8216	563789	0	0
2024-10-15 07:55:47			0	38085	0	0	0	21246	19820	162528	27183	1055235	46298	107795	0	0	8217	562958	0	0
2024-10-15 07:56:47			0	38103	0	0	0	21246	19820	162372	26644	1055244	46289	107795	0	0	8218	562239	0	0
2024-10-15 07:57:47			0	38099	0	0	0	21238	19820	162356	27196	1055217	46299	107792	0	0	8218	562399	0	0
2024-10-15 07:58:47			0	38101	0	0	0	21254	19810	162452	27123	1055252	46287	107798	0	0	8218	562350	0	0
2024-10-15 07:59:47			0	38126	0	0	0	21244	19820	162356	27060	1055208	46287	107794	0	0	8220	561321	0	0
2024-10-15 08:00:47			0	38117	0	0	0	21238	19810	162264	26849	1055199	46309	107792	0	0	8219	561711	0	0
2024-10-15 08:01:47			0	38127	0	0	0	21244	19810	162304	27237	1055173	46298	107794	0	0	8220	561312	0	0
2024-10-15 08:02:47			0	38114	0	0	0	21241	19800	162376	27137	1055181	46286	107793	0	0	8219	561862	0	0
2024-10-15 08:03:47			0	38119	0	0	0	21249	19820	162232	26955	1055208	46287	107796	0	0	8219	561601	0	0
2024-10-15 08:04:47			0	38115	0	0	0	21251	19810	162332	26937	1055199	46287	107797	0	0	8219	561791	0	0
2024-10-15 08:05:47			0	38105	0	0	0	21246	19810	162276	27308	1055199	46287	107795	0	0	8218	562190	0	0
2024-10-15 08:06:47			0	38115	0	0	0	21241	19820	162368	27204	1055235	46287	107793	0	0	8219	561760	0	0
2024-10-15 08:07:47			0	38131	0	0	0	21241	19810	162288	27357	1055199	46298	107793	0	0	8220	561153	0	0
2024-10-15 08:08:47			0	38142	0	0	0	21244	19820	162260	27124	1055182	46309	107794	0	0	8221	560684	0	0
2024-10-15 08:09:47			0	38136	0	0	0	21241	19810	162240	26951	1055146	46298	107793	0	0	8220	560953	0	0
2024-10-15 08:10:47			0	38133	0	0	0	21244	19810	162248	27164	1055217	46287	107794	0	0	8220	561073	0	0
2024-10-15 08:11:47			0	38133	0	0	0	21241	19810	162184	27514	1055173	46276	107793	0	0	8220	561073	0	0
2024-10-15 08:12:47			0	38135	0	0	0	21246	19810	162280	26923	1055173	46287	107795	0	0	8220	560993	0	0
2024-10-15 08:13:47			0	38142	0	0	0	21241	19810	162296	27398	1055137	46287	107793	0	0	8221	560714	0	0
2024-10-15 08:14:47			0	38138	0	0	0	21246	19820	162336	27112	1055208	46298	107795	0	0	8220	560843	0	0
2024-10-15 08:15:47			0	38125	0	0	0	21249	19820	162288	27150	1055208	46298	107796	0	0	8220	561361	0	0
2024-10-15 08:16:47			0	38141	0	0	0	21249	19810	162244	27313	1055111	46298	107796	0	0	8220	560754	0	0
2024-10-15 08:17:47			0	38155	0	0	0	21241	19810	162260	27216	1055279	46287	107793	0	0	8221	560196	0	0
2024-10-15 08:18:47			0	38144	0	0	0	21244	19800	162228	27339	1055119	46296	107794	0	0	8221	560665	0	0
2024-10-15 08:19:47			0	38143	0	0	0	21246	19820	162272	27386	1055208	46298	107795	0	0	8221	560643	0	0
2024-10-15 08:20:47			0	38140	0	0	0	21246	19820	162280	27090	1055261	46287	107795	0	0	8221	560763	0	0
2024-10-15 08:21:47			0	38155	0	0	0	21244	19810	162304	27398	1055173	46309	107794	0	0	8221	560196	0	0
2024-10-15 08:22:47			0	38148	0	0	0	21246	19810	162264	27289	1055226	46298	107795	0	0	8221	560475	0	0
2024-10-15 08:23:47			0	38130	0	0	0	21238	19810	162272	27533	1055199	46287	107792	0	0	8220	561193	0	0
2024-10-15 08:24:47			0	38167	0	0	0	21238	19810	162144	27327	1055226	46287	107792	0	0	8222	559719	0	0
2024-10-15 08:25:47			0	38150	0	0	0	21249	19820	162216	27048	1055314	46298	107796	0	0	8221	560365	0	0
2024-10-15 08:26:47			0	38147	0	0	0	21249	19800	162228	27409	1055155	46286	107796	0	0	8221	560546	0	0
2024-10-15 08:27:47			0	38143	0	0	0	21254	19810	162180	27244	1055173	46287	107798	0	0	8221	560674	0	0
2024-10-15 08:28:47			0	38143	0	0	0	21251	19810	162216	27687	1055164	46287	107797	0	0	8221	560674	0	0
2024-10-15 08:29:47			0	38155	0	0	0	21246	19820	162204	27296	1055314	46298	107795	0	0	8221	560166	0	0
2024-10-15 08:30:47			0	38159	0	0	0	21246	19810	162208	27428	1055243	46298	107795	0	0	8222	560037	0	0
2024-10-15 08:31:47			0	38155	0	0	0	21249	19830	162220	27095	1055279	46290	107796	0	0	8221	560135	0	0
2024-10-15 08:32:47			0	38149	0	0	0	21257	19810	162184	27112	1055173	46287	107799	0	0	8221	560435	0	0
2024-10-15 08:33:47			0	38161	0	0	0	21251	19820	162200	26982	1055261	46298	107797	0	0	8222	559926	0	0
2024-10-15 08:34:47			0	38161	0	0	0	21244	19810	162160	27150	1055226	46287	107794	0	0	8222	559957	0	0
2024-10-15 08:35:47			0	38150	0	0	0	21259	19810	162156	27429	1055226	46287	107800	0	0	8221	560395	0	0
2024-10-15 08:36:47			0	38150	0	0	0	21244	19810	162280	27272	1055199	46309	107794	0	0	8221	560395	0	0
2024-10-15 08:37:47			0	38150	0	0	0	21257	19810	162248	27203	1055252	46287	107799	0	0	8221	560395	0	0
2024-10-15 08:38:47			0	38146	0	0	0	21251	19810	162184	27336	1055199	46287	107797	0	0	8221	560555	0	0
2024-10-15 08:39:47			0	38133	0	0	0	21249	19810	162316	27118	1055199	46287	107796	0	0	8220	561073	0	0
2024-10-15 08:40:47			0	38149	0	0	0	21246	19810	162216	27301	1055190	46298	107795	0	0	8221	560435	0	0
2024-10-15 08:41:47			0	38131	0	0	0	21244	19820	162272	27249	1055217	46277	107794	0	0	8220	561122	0	0
2024-10-15 08:42:47			0	38145	0	0	0	21241	19810	162296	27331	1055226	46298	107793	0	0	8221	560595	0	0
2024-10-15 08:43:47			0	38116	0	0	0	21246	19810	162308	27324	1055252	46298	107795	0	0	8219	561751	0	0
2024-10-15 08:44:47			0	38131	0	0	0	21244	19810	162240	27267	1055173	46287	107794	0	0	8220	561153	0	0
2024-10-15 08:45:47			0	38107	0	0	0	21249	19820	162380	27124	1055208	46276	107796	0	0	8219	562080	0	0
2024-10-15 08:46:47			0	38120	0	0	0	21246	19810	162400	27279	1055199	46287	107795	0	0	8219	561592	0	0
2024-10-15 08:47:47			0	38108	0	0	0	21251	19810	162376	27237	1055226	46276	107797	0	0	8219	562070	0	0
2024-10-15 08:48:47			0	38104	0	0	0	21246	19810	162316	27557	1055199	46287	107795	0	0	8218	562230	0	0
2024-10-15 08:49:47			0	38102	0	0	0	21241	19810	162296	27189	1055173	46287	107793	0	0	8218	562310	0	0
2024-10-15 08:50:47			0	38115	0	0	0	21251	19810	162324	27228	1055190	46287	107797	0	0	8219	561791	0	0
2024-10-15 08:51:47			0	38104	0	0	0	21236	19820	162388	27234	1055270	46289	107791	0	0	8219	562199	0	0
2024-10-15 08:52:47			0	38121	0	0	0	21246	19810	162280	26970	1055252	46298	107795	0	0	8219	561552	0	0
2024-10-15 08:53:47			0	38111	0	0	0	21244	19820	162348	27197	1055208	46287	107794	0	0	8219	561920	0	0
2024-10-15 08:54:47			0	38113	0	0	0	21257	19810	162368	27350	1055226	46287	107799	0	0	8219	561871	0	0
2024-10-15 08:55:47			0	38110	0	0	0	21244	19820	162440	27216	1055208	46276	107794	0	0	8219	561960	0	0
2024-10-15 08:56:47			0	38115	0	0	0	21246	19810	162372	27097	1055146	46287	107795	0	0	8219	561791	0	0
2024-10-15 08:57:47			0	38103	0	0	0	21238	19810	162392	27041	1055252	46287	107792	0	0	8218	562270	0	0
2024-10-15 08:58:47			0	38119	0	0	0	21236	19810	162468	27154	1055146	46298	107791	0	0	8219	561632	0	0
2024-10-15 08:59:47			0	38106	0	0	0	21231	19810	162472	27450	1055243	46298	107789	0	0	8219	562150	0	0
2024-10-15 09:00:47			0	38111	0	0	0	21244	19800	162376	27064	1055208	46297	107794	0	0	8219	561982	0	0
2024-10-15 09:01:47			0	38104	0	0	0	21233	19800	162348	27424	1055075	46286	107790	0	0	8219	562261	0	0
2024-10-15 09:02:47			0	38082	0	0	0	21238	19810	162332	27263	1055190	46309	107792	0	0	8217	563109	0	0
2024-10-15 09:03:47			0	38103	0	0	0	21231	19810	162368	27072	1055190	46298	107789	0	0	8219	562270	0	0
2024-10-15 09:04:47			0	38109	0	0	0	21238	19810	162496	27045	1055173	46287	107792	0	0	8219	562031	0	0
2024-10-15 09:05:47			0	38095	0	0	0	21244	19810	162344	27227	1055190	46298	107794	0	0	8218	562590	0	0
2024-10-15 09:06:47			0	38083	0	0	0	21236	19800	162452	27050	1055181	46286	107791	0	0	8217	563100	0	0
2024-10-15 09:07:47			0	38080	0	0	0	21238	19810	162364	27121	1055199	46298	107792	0	0	8217	563189	0	0
2024-10-15 09:08:47			0	38081	0	0	0	21223	19810	162400	27020	1055173	46287	107786	0	0	8217	563149	0	0
2024-10-15 09:09:47			0	38092	0	0	0	21228	19800	162500	26946	1055146	46296	107788	0	0	8218	562740	0	0
2024-10-15 09:10:47			0	38077	0	0	0	21236	19800	162464	27204	1055128	46286	107791	0	0	8217	563340	0	0
2024-10-15 09:11:47			0	38089	0	0	0	21228	19810	162500	27149	1055217	46298	107788	0	0	8218	562829	0	0
2024-10-15 09:12:47			0	38082	0	0	0	21228	19800	162480	27109	1055199	46307	107788	0	0	8217	563140	0	0
2024-10-15 09:13:47			0	38082	0	0	0	21228	19810	162528	27119	1055217	46298	107788	0	0	8217	563109	0	0
2024-10-15 09:14:47			0	38075	0	0	0	21241	19800	162592	27244	1055119	46285	107793	0	0	8217	563420	0	0
2024-10-15 09:15:47			0	38064	0	0	0	21236	19810	162508	27076	1055164	46287	107791	0	0	8216	563829	0	0
2024-10-15 09:16:47			0	38076	0	0	0	21236	19800	162648	27170	1055172	46274	107791	0	0	8217	563380	0	0
2024-10-15 09:17:47			0	38059	0	0	0	21241	19810	162636	26972	1055217	46298	107793	0	0	8216	564029	0	0
2024-10-15 09:18:47			0	38070	0	0	0	21249	19810	162588	27312	1055173	46287	107796	0	0	8216	563589	0	0
2024-10-15 09:19:47			0	38064	0	0	0	21241	19810	162536	27039	1055164	46287	107793	0	0	8216	563829	0	0
2024-10-15 09:20:47			0	38053	0	0	0	21238	19800	162608	27230	1055181	46286	107792	0	0	8215	564300	0	0
2024-10-15 09:21:47			0	38078	0	0	0	21238	19790	162624	27034	1055163	46284	107792	0	0	8217	563331	0	0
2024-10-15 09:22:47			0	38054	0	0	0	21238	19800	162544	27241	1055119	46307	107792	0	0	8216	564260	0	0
2024-10-15 09:23:47			0	38081	0	0	0	21244	19810	162428	27414	1055279	46276	107794	0	0	8217	563149	0	0
2024-10-15 09:24:47			0	38078	0	0	0	21236	19810	162480	27130	1055190	46276	107791	0	0	8217	563269	0	0
2024-10-15 09:25:47			0	38098	0	0	0	21246	19810	162508	26915	1055173	46309	107795	0	0	8218	562470	0	0
2024-10-15 09:26:47			0	38050	0	0	0	21251	19810	162520	27027	1055164	46298	107797	0	0	8215	564389	0	0
2024-10-15 09:27:47			0	38080	0	0	0	21246	19810	162432	27150	1055164	46287	107795	0	0	8217	563189	0	0
2024-10-15 09:28:47			0	38078	0	0	0	21244	19800	162588	27223	1055155	46286	107794	0	0	8217	563300	0	0
2024-10-15 09:29:47			0	38066	0	0	0	21241	19810	162596	26960	1055164	46298	107793	0	0	8216	563749	0	0
2024-10-15 09:30:47			0	38068	0	0	0	21246	19820	162676	27365	1055208	46298	107795	0	0	8216	563638	0	0
2024-10-15 09:31:47			0	38059	0	0	0	21238	19810	162592	27133	1055173	46298	107792	0	0	8216	564029	0	0
2024-10-15 09:32:47			0	38044	0	0	0	21238	19810	162788	26809	1055199	46287	107792	0	0	8215	564629	0	0
2024-10-15 09:33:47			0	38073	0	0	0	21244	19810	162600	26745	1055252	46298	107794	0	0	8217	563469	0	0
2024-10-15 09:34:47			0	38073	0	0	0	21241	19800	162584	26951	1055181	46286	107793	0	0	8217	563500	0	0
2024-10-15 09:35:47			0	38057	0	0	0	21241	19800	162656	26828	1055208	46275	107793	0	0	8216	564140	0	0
2024-10-15 09:36:47			0	38052	0	0	0	21244	19800	162684	27124	1055146	46285	107794	0	0	8215	564340	0	0
2024-10-15 09:37:47			0	38055	0	0	0	21241	19810	162652	27206	1055164	46298	107793	0	0	8216	564189	0	0
2024-10-15 09:38:47			0	38052	0	0	0	21251	19810	162592	27417	1055190	46298	107797	0	0	8215	564309	0	0
2024-10-15 09:39:47			0	38057	0	0	0	21246	19810	162568	27121	1055137	46276	107795	0	0	8216	564109	0	0
2024-10-15 09:40:47			0	38049	0	0	0	21246	19810	162584	27171	1055270	46287	107795	0	0	8215	564429	0	0
2024-10-15 09:41:47			0	38062	0	0	0	21238	19810	162564	27256	1055279	46309	107792	0	0	8216	563909	0	0
2024-10-15 09:42:47			0	38057	0	0	0	21249	19810	162704	27272	1055173	46298	107796	0	0	8216	564109	0	0
2024-10-15 09:43:47			0	38053	0	0	0	21246	19810	162704	27274	1055226	46287	107795	0	0	8215	564269	0	0
2024-10-15 09:44:47			0	38051	0	0	0	21246	19810	162668	27135	1055217	46287	107795	0	0	8215	564349	0	0
2024-10-15 09:45:47			0	38065	0	0	0	21249	19820	162644	27204	1055208	46276	107796	0	0	8216	563758	0	0
2024-10-15 09:46:47			0	38068	0	0	0	21254	19800	162688	27036	1055261	46286	107798	0	0	8216	563700	0	0
2024-10-15 09:47:47			0	38052	0	0	0	21251	19810	162620	27298	1055217	46298	107797	0	0	8215	564309	0	0
2024-10-15 09:48:47			0	38062	0	0	0	21244	19810	162564	26979	1055252	46298	107794	0	0	8216	563909	0	0
2024-10-15 09:49:47			0	38053	0	0	0	21244	19800	162544	27015	1055102	46286	107794	0	0	8215	564300	0	0
2024-10-15 09:50:47			0	38073	0	0	0	21254	19820	162696	27229	1055235	46276	107798	0	0	8216	563438	0	0
2024-10-15 09:51:47			0	38065	0	0	0	21244	19830	162752	27208	1055279	46290	107794	0	0	8216	563727	0	0
2024-10-15 09:52:47			0	38059	0	0	0	21251	19810	162620	27293	1055199	46287	107797	0	0	8216	564029	0	0
2024-10-15 09:53:47			0	38061	0	0	0	21251	19810	162600	26928	1055199	46309	107797	0	0	8216	563949	0	0
2024-10-15 09:54:47			0	38033	0	0	0	21257	19810	162624	27100	1055243	46298	107799	0	0	8214	565069	0	0
2024-10-15 09:55:47			0	38041	0	0	0	21254	19820	162596	27241	1055288	46309	107798	0	0	8215	564718	0	0
2024-10-15 09:56:47			0	38039	0	0	0	21251	19830	162624	27293	1055306	46311	107797	0	0	8215	564767	0	0
2024-10-15 09:57:47			0	38048	0	0	0	21246	19820	162612	27017	1055235	46276	107795	0	0	8215	564438	0	0
2024-10-15 09:58:47			0	38056	0	0	0	21251	19830	162624	27194	1055306	46290	107797	0	0	8216	564087	0	0
2024-10-15 09:59:47			0	38059	0	0	0	21257	19820	162536	27352	1055288	46298	107799	0	0	8216	563998	0	0
2024-10-15 10:00:47			0	38052	0	0	0	21249	19820	162504	26963	1055297	46299	107796	0	0	8215	564278	0	0
2024-10-15 10:01:47			0	38047	0	0	0	21257	19810	162492	27244	1055279	46298	107799	0	0	8215	564509	0	0
2024-10-15 10:02:47			0	38064	0	0	0	21259	19830	162620	27005	1055306	46290	107800	0	0	8216	563767	0	0
2024-10-15 10:03:47			0	38050	0	0	0	21262	19820	162532	26805	1055288	46298	107801	0	0	8215	564358	0	0
2024-10-15 10:04:47			0	38083	0	0	0	21264	19820	162472	26830	1055314	46276	107802	0	0	8217	563038	0	0
2024-10-15 10:05:47			0	38139	0	0	0	21267	19830	162208	26828	1055332	46300	107803	0	0	8220	560772	0	0
2024-10-15 10:06:47			0	38195	0	0	0	21267	19820	162004	27081	1055270	46310	107803	0	0	8223	558574	0	0
2024-10-15 10:07:47			0	38234	0	0	0	21270	19830	161884	27426	1055368	46290	107804	0	0	8226	556994	0	0
2024-10-15 10:08:47			0	38248	0	0	0	21275	19830	161824	27267	1055359	46300	107806	0	0	8226	556438	0	0
2024-10-15 10:09:47			0	38265	0	0	0	21277	19820	161740	26967	1055341	46276	107807	0	0	8227	555795	0	0
2024-10-15 10:10:47			0	38295	0	0	0	21272	19840	161588	27249	1055333	46301	107805	0	0	8229	554545	0	0
2024-10-15 10:11:47			0	38279	0	0	0	21280	19820	161600	26876	1055350	46310	107808	0	0	8228	555240	0	0
2024-10-15 10:12:47			0	38277	0	0	0	21280	19840	161612	27196	1055333	46301	107808	0	0	8228	555258	0	0
2024-10-15 10:13:47			0	38278	0	0	0	21277	19830	161644	27183	1055315	46300	107807	0	0	8228	555249	0	0
2024-10-15 10:14:47			0	38272	0	0	0	21283	19840	161688	27277	1055377	46300	107809	0	0	8228	555456	0	0
2024-10-15 10:15:47			0	38278	0	0	0	21285	19840	161772	27057	1055377	46290	107810	0	0	8228	555218	0	0
2024-10-15 10:16:47			0	38266	0	0	0	21283	19840	161672	27138	1055360	46290	107809	0	0	8227	555694	0	0
2024-10-15 10:17:47			0	38270	0	0	0	21277	19850	161736	27232	1055448	46302	107807	0	0	8228	555505	0	0
2024-10-15 10:18:47			0	38287	0	0	0	21280	19850	161728	27232	1055422	46302	107808	0	0	8229	554831	0	0
2024-10-15 10:19:47			0	38289	0	0	0	21290	19850	161700	27203	1055351	46291	107812	0	0	8229	554752	0	0
2024-10-15 10:20:47			0	38265	0	0	0	21283	19850	161744	27275	1055368	46302	107809	0	0	8227	555703	0	0
2024-10-15 10:21:47			0	38249	0	0	0	21283	19840	161708	26970	1055360	46290	107809	0	0	8226	556368	0	0
2024-10-15 10:22:47			0	38276	0	0	0	21283	19860	161764	27509	1055439	46280	107809	0	0	8228	555236	0	0
2024-10-15 10:23:47			0	38275	0	0	0	21293	19850	161728	27242	1055404	46291	107813	0	0	8228	555306	0	0
2024-10-15 10:24:47			0	38273	0	0	0	21288	19840	161760	27279	1055360	46312	107811	0	0	8228	555416	0	0
2024-10-15 10:25:47			0	38287	0	0	0	21288	19860	161656	27053	1055369	46303	107811	0	0	8229	554801	0	0
2024-10-15 10:26:47			0	38304	0	0	0	21301	19850	161572	27275	1055404	46302	107816	0	0	8229	554158	0	0
2024-10-15 10:27:47			0	38313	0	0	0	21298	19860	161572	27168	1055413	46291	107815	0	0	8230	553772	0	0
2024-10-15 10:28:47			0	38306	0	0	0	21303	19860	161604	27319	1055528	46292	107817	0	0	8229	554049	0	0
2024-10-15 10:29:47			0	38326	0	0	0	21296	19860	161584	27133	1055502	46292	107814	0	0	8231	553258	0	0
2024-10-15 10:30:47			0	38307	0	0	0	21303	19860	161512	27229	1055395	46303	107817	0	0	8230	554009	0	0
2024-10-15 10:31:47			0	38332	0	0	0	21306	19860	161392	27362	1055519	46291	107818	0	0	8231	553021	0	0
2024-10-15 10:32:47			0	38348	0	0	0	21298	19860	161412	27353	1055475	46303	107815	0	0	8232	552389	0	0
2024-10-15 10:33:47			0	38373	0	0	0	21301	19860	161332	27412	1055493	46302	107816	0	0	8233	551402	0	0
2024-10-15 10:34:47			0	38397	0	0	0	21296	19870	161208	27365	1055484	46315	107814	0	0	8235	550426	0	0
2024-10-15 10:35:47			0	38417	0	0	0	21303	19870	161076	27201	1055404	46315	107817	0	0	8236	549638	0	0
2024-10-15 10:36:47			0	38422	0	0	0	21303	19870	160980	27384	1055546	46316	107817	0	0	8236	549442	0	0
2024-10-15 10:37:47			0	38454	0	0	0	21301	19870	160980	27112	1055537	46304	107816	0	0	8238	548183	0	0
2024-10-15 10:38:47			0	38468	0	0	0	21314	19860	160796	27268	1055502	46303	107821	0	0	8239	547663	0	0
2024-10-15 10:39:47			0	38514	0	0	0	21319	19870	160748	27390	1055599	46305	107823	0	0	8241	545828	0	0
2024-10-15 10:40:47			0	38532	0	0	0	21319	19870	160656	27265	1055511	46293	107823	0	0	8242	545123	0	0
2024-10-15 10:41:47			0	38562	0	0	0	21319	19880	160532	27100	1055617	46294	107823	0	0	8244	543919	0	0
2024-10-15 10:42:47			0	38578	0	0	0	21322	19880	160564	27343	1055582	46294	107824	0	0	8245	543293	0	0
2024-10-15 10:43:47			0	38612	0	0	0	21314	19880	160376	27286	1055564	46294	107821	0	0	8247	541966	0	0
2024-10-15 10:44:47			0	38594	0	0	0	21314	19880	160332	26953	1055582	46305	107821	0	0	8246	542668	0	0
2024-10-15 10:45:47			0	38580	0	0	0	21327	19890	160412	27123	1055555	46318	107826	0	0	8245	543185	0	0
2024-10-15 10:46:47			0	38629	0	0	0	21332	19890	160396	27140	1055573	46317	107828	0	0	8248	541272	0	0
2024-10-15 10:47:47			0	38609	0	0	0	21332	19890	160300	27180	1055599	46295	107828	0	0	8247	542053	0	0
2024-10-15 10:48:47			0	38621	0	0	0	21327	19890	160232	27088	1055546	46317	107826	0	0	8248	541585	0	0
2024-10-15 10:49:47			0	38633	0	0	0	21327	19890	160252	27215	1055599	46284	107826	0	0	8248	541117	0	0
2024-10-15 10:50:47			0	38632	0	0	0	21329	19890	160136	27336	1055679	46295	107827	0	0	8248	541155	0	0
2024-10-15 10:51:47			0	38643	0	0	0	21327	19890	160268	27138	1055653	46306	107826	0	0	8249	540727	0	0
2024-10-15 10:52:47			0	38638	0	0	0	21342	19900	160192	26941	1055706	46296	107832	0	0	8248	540892	0	0
2024-10-15 10:53:47			0	38637	0	0	0	21348	19890	160308	26946	1055635	46307	107834	0	0	8248	540961	0	0
2024-10-15 10:54:47			0	38639	0	0	0	21353	19900	160144	27130	1055679	46307	107836	0	0	8248	540853	0	0
2024-10-15 10:55:47			0	38652	0	0	0	21361	19890	160204	27443	1055688	46296	107839	0	0	8249	540376	0	0
2024-10-15 10:56:47			0	38657	0	0	0	21350	19900	160280	27197	1055759	46296	107835	0	0	8249	540152	0	0
2024-10-15 10:57:47			0	38667	0	0	0	21358	19900	160244	27145	1055706	46296	107838	0	0	8250	539762	0	0
2024-10-15 10:58:47			0	38663	0	0	0	21371	19900	160124	26981	1055724	46307	107843	0	0	8249	539918	0	0
2024-10-15 10:59:47			0	38660	0	0	0	21366	19900	160020	27104	1055733	46318	107841	0	0	8249	540035	0	0
2024-10-15 11:00:47			0	38694	0	0	0	21371	19920	160052	27274	1055733	46298	107843	0	0	8251	538652	0	0
2024-10-15 11:01:47			0	38687	0	0	0	21381	19910	160052	27069	1055768	46319	107847	0	0	8251	538954	0	0
2024-10-15 11:02:47			0	38676	0	0	0	21374	19920	160008	27072	1055795	46309	107844	0	0	8250	539353	0	0
2024-10-15 11:03:47			0	38691	0	0	0	21379	19910	159960	27402	1055804	46309	107846	0	0	8251	538799	0	0
2024-10-15 11:04:47			0	38702	0	0	0	21384	19930	159868	27421	1055839	46311	107848	0	0	8252	538312	0	0
2024-10-15 11:05:47			0	38709	0	0	0	21379	19910	159876	27133	1055857	46309	107846	0	0	8252	538099	0	0
2024-10-15 11:06:47			0	38704	0	0	0	21392	19930	159912	27528	1055910	46310	107851	0	0	8252	538234	0	0
2024-10-15 11:07:47			0	38718	0	0	0	21381	19930	159912	27402	1055830	46310	107847	0	0	8253	537690	0	0
2024-10-15 11:08:47			0	38736	0	0	0	21386	19930	159873	27377	1055866	46311	107849	0	0	8254	536992	0	0
2024-10-15 11:09:47			0	38739	0	0	0	21394	19930	159821	27189	1055866	46311	107852	0	0	8254	536875	0	0
2024-10-15 11:10:47			0	38744	0	0	0	21397	19940	159725	27256	1055901	46322	107853	0	0	8254	536652	0	0
2024-10-15 11:11:47			0	38728	0	0	0	21407	19940	159736	27081	1055884	46312	107857	0	0	8253	537272	0	0
2024-10-15 11:12:47			0	38721	0	0	0	21399	19940	159768	27147	1055857	46301	107854	0	0	8252	537544	0	0
2024-10-15 11:13:47			0	38749	0	0	0	21402	19940	159737	26996	1055937	46301	107855	0	0	8254	536458	0	0
2024-10-15 11:14:47			0	38754	0	0	0	21412	19940	159797	26987	1055937	46301	107859	0	0	8254	536264	0	0
2024-10-15 11:15:47			0	38736	0	0	0	21412	19940	159757	27020	1055884	46323	107859	0	0	8253	536962	0	0
2024-10-15 11:16:47			0	38754	0	0	0	21415	19950	159725	27239	1055973	46312	107860	0	0	8254	536234	0	0
2024-10-15 11:17:47			0	38768	0	0	0	21407	19950	159765	27417	1056035	46324	107857	0	0	8255	535691	0	0
2024-10-15 11:18:47			0	38772	0	0	0	21412	19960	159737	27364	1055990	46324	107859	0	0	8255	535507	0	0
2024-10-15 11:19:47			0	38758	0	0	0	21418	19970	159677	27390	1056026	46314	107861	0	0	8254	536020	0	0
2024-10-15 11:20:47			0	38769	0	0	0	21415	19950	159721	27364	1055981	46324	107860	0	0	8255	535653	0	0
2024-10-15 11:21:47			0	38768	0	0	0	21423	19980	159677	27479	1056018	46304	107863	0	0	8255	535603	0	0
2024-10-15 11:22:47			0	38772	0	0	0	21420	19970	159529	27528	1056035	46314	107862	0	0	8255	535478	0	0
2024-10-15 11:23:47			0	38786	0	0	0	21425	19970	159649	27102	1056035	46325	107864	0	0	8256	534935	0	0
2024-10-15 11:24:47			0	38779	0	0	0	21423	19970	159533	27272	1056035	46314	107863	0	0	8256	535206	0	0
2024-10-15 11:25:47			0	38778	0	0	0	21428	19980	159681	27303	1056071	46304	107865	0	0	8255	535216	0	0
2024-10-15 11:26:47			0	38795	0	0	0	21428	19980	159465	27223	1056053	46305	107865	0	0	8256	534558	0	0
2024-10-15 11:27:47			0	38789	0	0	0	21433	19990	159577	27379	1056062	46316	107867	0	0	8256	534760	0	0
2024-10-15 11:28:47			0	38785	0	0	0	21436	19990	159425	27253	1056089	46327	107868	0	0	8256	534915	0	0
2024-10-15 11:29:47			0	38794	0	0	0	21438	19980	159545	27338	1056097	46292	107869	0	0	8256	534596	0	0
2024-10-15 11:30:47			0	38779	0	0	0	21441	19990	159553	27492	1056115	46305	107870	0	0	8255	535147	0	0
2024-10-15 11:31:47			0	38791	0	0	0	21457	19990	159569	27066	1056168	46305	107876	0	0	8256	534683	0	0
2024-10-15 11:32:47			0	38773	0	0	0	21457	19990	159561	27493	1056089	46305	107876	0	0	8255	535380	0	0
2024-10-15 11:33:47			0	38770	0	0	0	21441	20000	159645	27313	1056133	46306	107870	0	0	8255	535466	0	0
2024-10-15 11:34:47			0	38761	0	0	0	21438	20000	159621	27540	1056160	46317	107869	0	0	8254	535815	0	0
2024-10-15 11:35:47			0	38773	0	0	0	21431	20000	159717	27118	1056133	46306	107866	0	0	8255	535350	0	0
2024-10-15 11:36:47			0	38761	0	0	0	21438	20010	159609	27201	1056151	46296	107869	0	0	8254	535786	0	0
2024-10-15 11:37:47			0	38767	0	0	0	21438	20000	159569	27294	1056222	46318	107869	0	0	8255	535583	0	0
2024-10-15 11:38:47			0	38776	0	0	0	21428	20000	159593	27374	1056142	46307	107865	0	0	8255	535234	0	0
2024-10-15 11:39:47			0	38753	0	0	0	21420	20010	159553	27516	1056231	46318	107862	0	0	8254	536096	0	0
2024-10-15 11:40:47			0	38758	0	0	0	21428	20000	159629	27365	1056142	46307	107865	0	0	8254	535931	0	0
2024-10-15 11:41:47			0	38783	0	0	0	21412	20000	159605	27331	1056142	46307	107859	0	0	8256	534963	0	0
2024-10-15 11:42:47			0	38746	0	0	0	21418	20000	159621	27500	1056169	46307	107861	0	0	8254	536397	0	0
2024-10-15 11:43:47			0	38756	0	0	0	21418	20010	159553	27521	1056133	46319	107861	0	0	8255	535979	0	0
2024-10-15 11:44:47			0	38744	0	0	0	21418	20010	159665	27590	1056133	46330	107861	0	0	8254	536445	0	0
2024-10-15 11:45:47			0	38751	0	0	0	21410	20010	159605	27400	1056160	46330	107858	0	0	8254	536173	0	0
2024-10-15 11:46:47			0	38730	0	0	0	21420	20010	159652	27291	1056160	46308	107862	0	0	8253	536987	0	0
2024-10-15 11:47:47			0	38735	0	0	0	21402	20000	159701	27744	1056142	46307	107855	0	0	8254	536823	0	0
2024-10-15 11:48:47			0	38718	0	0	0	21389	20000	159740	27561	1056089	46318	107850	0	0	8253	537483	0	0
2024-10-15 11:49:47			0	38689	0	0	0	21386	20000	159792	27396	1056089	46296	107849	0	0	8251	538609	0	0
2024-10-15 11:50:47			0	38684	0	0	0	21386	20000	160032	27150	1056089	46307	107849	0	0	8251	538804	0	0
2024-10-15 11:51:47			0	38685	0	0	0	21392	20000	160048	27362	1056142	46296	107851	0	0	8251	538765	0	0
2024-10-15 11:52:47			0	38682	0	0	0	21381	20000	159980	27405	1056089	46307	107847	0	0	8251	538881	0	0
2024-10-15 11:53:47			0	38674	0	0	0	21381	19990	160000	27310	1056071	46305	107847	0	0	8250	539222	0	0
2024-10-15 11:54:47			0	38655	0	0	0	21381	19990	160028	27274	1056009	46305	107847	0	0	8249	539962	0	0
2024-10-15 11:55:47			0	38643	0	0	0	21376	19990	160068	27024	1056062	46305	107845	0	0	8249	540429	0	0
2024-10-15 11:56:47			0	38653	0	0	0	21368	19980	160036	27216	1056018	46304	107842	0	0	8249	540069	0	0
2024-10-15 11:57:47			0	38663	0	0	0	21374	19980	160124	27013	1055964	46304	107844	0	0	8250	539680	0	0
2024-10-15 11:58:47			0	38648	0	0	0	21376	19980	160008	27445	1055991	46292	107845	0	0	8249	540264	0	0
2024-10-15 11:59:47			0	38642	0	0	0	21374	19980	160136	27284	1056053	46316	107844	0	0	8248	540498	0	0
2024-10-15 12:00:47			0	38640	0	0	0	21368	19970	160112	27320	1055946	46291	107842	0	0	8248	540605	0	0
2024-10-15 12:01:47			0	38642	0	0	0	21374	19970	160160	27414	1056009	46291	107844	0	0	8248	540527	0	0
2024-10-15 12:02:47			0	38622	0	0	0	21374	19980	160132	27424	1056027	46294	107844	0	0	8247	541277	0	0
2024-10-15 12:03:47			0	38622	0	0	0	21371	19980	160140	27326	1055938	46304	107843	0	0	8247	541277	0	0
2024-10-15 12:04:47			0	38617	0	0	0	21368	19950	160108	27509	1055849	46291	107842	0	0	8247	541561	0	0
2024-10-15 12:05:47			0	38609	0	0	0	21374	19970	160132	27460	1055946	46291	107844	0	0	8247	541814	0	0
2024-10-15 12:06:47			0	38623	0	0	0	21374	19950	160172	27105	1055955	46313	107844	0	0	8247	541327	0	0
2024-10-15 12:07:47			0	38589	0	0	0	21384	19970	160144	27441	1055920	46303	107848	0	0	8245	542594	0	0
2024-10-15 12:08:47			0	38582	0	0	0	21371	19950	160168	27105	1055875	46313	107843	0	0	8245	542928	0	0
2024-10-15 12:09:47			0	38580	0	0	0	21374	19950	160236	27383	1055928	46313	107844	0	0	8245	543006	0	0
2024-10-15 12:10:47			0	38576	0	0	0	21376	19950	160280	27312	1055919	46301	107845	0	0	8244	543162	0	0
2024-10-15 12:11:47			0	38596	0	0	0	21374	19950	160256	27435	1055902	46302	107844	0	0	8246	542381	0	0
2024-10-15 12:12:47			0	38605	0	0	0	21374	19960	160312	27729	1055964	46302	107844	0	0	8246	542000	0	0
2024-10-15 12:13:47			0	38597	0	0	0	21384	19950	160240	27549	1055955	46313	107848	0	0	8246	542342	0	0
2024-10-15 12:14:47			0	38606	0	0	0	21389	19960	160256	27279	1055937	46313	107850	0	0	8246	541961	0	0
2024-10-15 12:15:47			0	38614	0	0	0	21381	19950	160176	27332	1055973	46312	107847	0	0	8247	541679	0	0
2024-10-15 12:16:47			0	38609	0	0	0	21384	19960	160164	27644	1055937	46313	107848	0	0	8246	541844	0	0
2024-10-15 12:17:47			0	38609	0	0	0	21384	19960	160168	27220	1055937	46291	107848	0	0	8246	541844	0	0
2024-10-15 12:18:47			0	38601	0	0	0	21392	19960	160176	27637	1055990	46291	107851	0	0	8246	542156	0	0
2024-10-15 12:19:47			0	38602	0	0	0	21386	19960	160108	27417	1055937	46324	107849	0	0	8246	542117	0	0
2024-10-15 12:20:47			0	38599	0	0	0	21399	19970	160272	27197	1055999	46303	107854	0	0	8245	542204	0	0
2024-10-15 12:21:47			0	38604	0	0	0	21389	19970	160188	27390	1055946	46314	107850	0	0	8246	542009	0	0
2024-10-15 12:22:47			0	38592	0	0	0	21392	19960	160184	27403	1055990	46291	107851	0	0	8245	542507	0	0
2024-10-15 12:23:47			0	38590	0	0	0	21397	19970	160232	27064	1055920	46303	107853	0	0	8245	542555	0	0
2024-10-15 12:24:47			0	38603	0	0	0	21399	19960	160240	27372	1055937	46313	107854	0	0	8246	542078	0	0
2024-10-15 12:25:47			0	38622	0	0	0	21394	19960	160276	27355	1055937	46302	107852	0	0	8247	541337	0	0
2024-10-15 12:26:47			0	38607	0	0	0	21392	19950	160204	27249	1055981	46302	107851	0	0	8246	541952	0	0
2024-10-15 12:27:47			0	38621	0	0	0	21402	19970	160172	27609	1056035	46303	107855	0	0	8247	541346	0	0
2024-10-15 12:28:47			0	38613	0	0	0	21399	19970	160136	27398	1055999	46314	107854	0	0	8246	541658	0	0
2024-10-15 12:29:47			0	38639	0	0	0	21399	19980	160112	27358	1056097	46315	107854	0	0	8248	540614	0	0
2024-10-15 12:30:47			0	38617	0	0	0	21399	19970	160172	27504	1056079	46314	107854	0	0	8247	541502	0	0
2024-10-15 12:31:47			0	38624	0	0	0	21399	19980	160232	27649	1056097	46326	107854	0	0	8247	541199	0	0
2024-10-15 12:32:47			0	38620	0	0	0	21397	19970	160168	27170	1056142	46314	107853	0	0	8247	541385	0	0
2024-10-15 12:33:47			0	38608	0	0	0	21405	19970	160160	27315	1056088	46314	107856	0	0	8246	541853	0	0
2024-10-15 12:34:47			0	38620	0	0	0	21407	19980	160312	27554	1056053	46305	107857	0	0	8247	541355	0	0
2024-10-15 12:35:47			0	38618	0	0	0	21418	19980	160280	27202	1056053	46316	107861	0	0	8246	541433	0	0
2024-10-15 12:36:47			0	38620	0	0	0	21425	19980	160156	27772	1056071	46315	107864	0	0	8246	541355	0	0
2024-10-15 12:37:47			0	38620	0	0	0	21420	19990	160088	27431	1056115	46305	107862	0	0	8246	541325	0	0
2024-10-15 12:38:47			0	38644	0	0	0	21418	19990	160000	27750	1056089	46316	107861	0	0	8248	540390	0	0
2024-10-15 12:39:47			0	38649	0	0	0	21423	19980	160060	27550	1056133	46316	107863	0	0	8248	540225	0	0
2024-10-15 12:40:47			0	38677	0	0	0	21431	19990	160016	27495	1056142	46316	107866	0	0	8250	539106	0	0
2024-10-15 12:41:47			0	38675	0	0	0	21438	19990	160000	27672	1056151	46327	107869	0	0	8249	539183	0	0
2024-10-15 12:42:47			0	38671	0	0	0	21438	20000	159924	27835	1056169	46329	107869	0	0	8249	539309	0	0
2024-10-15 12:43:47			0	38691	0	0	0	21444	20000	159940	27497	1056239	46317	107871	0	0	8250	538531	0	0
2024-10-15 12:44:47			0	38696	0	0	0	21441	20000	159908	27795	1056186	46317	107870	0	0	8251	538337	0	0
2024-10-15 12:45:47			0	38718	0	0	0	21446	20000	159876	27665	1056195	46318	107872	0	0	8252	537483	0	0
2024-10-15 12:46:47			0	38714	0	0	0	21457	20010	159744	27441	1056231	46318	107876	0	0	8251	537608	0	0
2024-10-15 12:47:47			0	38713	0	0	0	21451	20010	159780	27537	1056231	46318	107874	0	0	8251	537647	0	0
2024-10-15 12:48:47			0	38701	0	0	0	21454	20020	159836	27497	1056302	46330	107875	0	0	8251	538084	0	0
2024-10-15 12:49:47			0	38708	0	0	0	21454	20020	159888	27481	1056284	46320	107875	0	0	8251	537812	0	0
2024-10-15 12:50:47			0	38713	0	0	0	21459	20020	159784	27435	1056382	46319	107877	0	0	8251	537618	0	0
2024-10-15 12:51:47			0	38726	0	0	0	21472	20030	159829	27516	1056320	46331	107882	0	0	8252	537083	0	0
2024-10-15 12:52:47			0	38757	0	0	0	21477	20030	159629	27614	1056373	46320	107884	0	0	8254	535881	0	0
2024-10-15 12:53:47			0	38787	0	0	0	21493	20040	159509	27523	1056320	46333	107890	0	0	8255	534690	0	0
2024-10-15 12:54:47			0	38798	0	0	0	21498	20040	159405	27379	1056391	46332	107892	0	0	8256	534265	0	0
2024-10-15 12:55:47			0	38837	0	0	0	21506	20040	159261	27369	1056391	46321	107895	0	0	8258	532758	0	0
2024-10-15 12:56:47			0	38867	0	0	0	21522	20040	159161	27355	1056417	46332	107901	0	0	8259	531600	0	0
2024-10-15 12:57:47			0	38876	0	0	0	21522	20050	159145	27460	1056471	46333	107901	0	0	8260	531224	0	0
2024-10-15 12:58:47			0	38896	0	0	0	21522	20050	159125	27362	1056488	46333	107901	0	0	8261	530453	0	0
2024-10-15 12:59:47			0	38898	0	0	0	21527	20060	159033	27445	1056462	46324	107903	0	0	8261	530347	0	0
2024-10-15 13:00:47			0	38914	0	0	0	21529	20070	158937	27360	1056577	46335	107904	0	0	8262	529702	0	0
2024-10-15 13:01:47			0	38909	0	0	0	21548	20070	158941	27317	1056524	46325	107911	0	0	8261	529894	0	0
2024-10-15 13:02:47			0	38921	0	0	0	21550	20070	158953	27384	1056586	46325	107912	0	0	8262	529433	0	0
2024-10-15 13:03:47			0	38907	0	0	0	21561	20080	159041	27000	1056569	46326	107916	0	0	8261	529942	0	0
2024-10-15 13:04:47			0	38896	0	0	0	21558	20080	159013	27185	1056622	46336	107915	0	0	8261	530366	0	0
2024-10-15 13:05:47			0	38885	0	0	0	21571	20090	158969	27232	1056693	46327	107920	0	0	8260	530760	0	0
2024-10-15 13:06:47			0	38900	0	0	0	21566	20080	158981	27350	1056711	46326	107918	0	0	8261	530211	0	0
2024-10-15 13:07:47			0	38893	0	0	0	21555	20090	159013	27246	1056666	46337	107914	0	0	8261	530452	0	0
2024-10-15 13:08:47			0	38907	0	0	0	21558	20100	159009	27679	1056658	46338	107915	0	0	8261	529884	0	0
2024-10-15 13:09:47			0	38897	0	0	0	21563	20090	159033	27767	1056676	46348	107917	0	0	8261	530298	0	0
2024-10-15 13:10:47			0	38869	0	0	0	21561	20100	158985	27376	1056720	46328	107916	0	0	8259	531347	0	0
2024-10-15 13:11:47			0	38877	0	0	0	21573	20100	159037	27776	1056773	46317	107921	0	0	8259	531039	0	0
2024-10-15 13:12:47			0	38877	0	0	0	21568	20110	159065	27339	1056729	46339	107919	0	0	8259	531010	0	0
2024-10-15 13:13:47			0	38872	0	0	0	21576	20120	159097	27524	1056800	46330	107922	0	0	8259	531173	0	0
2024-10-15 13:14:47			0	38870	0	0	0	21566	20120	159053	27630	1056836	46341	107918	0	0	8259	531250	0	0
2024-10-15 13:15:47			0	38849	0	0	0	21571	20130	159061	27320	1056845	46320	107920	0	0	8258	532030	0	0
2024-10-15 13:16:47			0	38840	0	0	0	21561	20120	159125	27587	1056809	46331	107916	0	0	8257	532407	0	0
2024-10-15 13:17:47			0	38849	0	0	0	21571	20120	159197	27540	1056783	46320	107920	0	0	8258	532060	0	0
2024-10-15 13:18:47			0	38877	0	0	0	21566	20130	159073	27616	1056791	46341	107918	0	0	8260	530951	0	0
2024-10-15 13:19:47			0	38870	0	0	0	21579	20130	159109	27720	1056774	46331	107923	0	0	8259	531221	0	0
2024-10-15 13:20:47			0	38884	0	0	0	21581	20130	158993	27362	1056854	46320	107924	0	0	8260	530681	0	0
2024-10-15 13:21:47			0	38894	0	0	0	21589	20130	158913	27409	1056845	46331	107927	0	0	8260	530296	0	0
2024-10-15 13:22:47			0	38925	0	0	0	21592	20140	158877	27543	1056916	46353	107928	0	0	8262	529075	0	0
2024-10-15 13:23:47			0	38934	0	0	0	21594	20150	158705	27433	1056907	46343	107929	0	0	8262	528699	0	0
2024-10-15 13:24:47			0	38976	0	0	0	21592	20140	158661	27649	1056863	46342	107928	0	0	8265	527116	0	0
2024-10-15 13:25:47			0	38979	0	0	0	21597	20150	158605	27682	1056863	46343	107930	0	0	8265	526972	0	0
2024-10-15 13:26:47			0	38985	0	0	0	21605	20130	158573	27767	1056907	46341	107933	0	0	8265	526800	0	0
2024-10-15 13:27:47			0	38987	0	0	0	21610	20150	158597	27426	1056943	46333	107935	0	0	8265	526665	0	0
2024-10-15 13:28:47			0	39014	0	0	0	21623	20170	158545	27402	1056978	46335	107940	0	0	8267	525573	0	0
2024-10-15 13:29:47			0	39032	0	0	0	21625	20160	158481	27698	1057014	46334	107941	0	0	8268	524913	0	0
2024-10-15 13:30:47			0	39047	0	0	0	21628	20170	158485	27569	1057005	46346	107942	0	0	8269	524310	0	0
2024-10-15 13:31:47			0	39065	0	0	0	21628	20180	158349	27788	1057067	46335	107942	0	0	8270	523593	0	0
2024-10-15 13:32:47			0	39077	0	0	0	21641	20180	158357	27345	1057094	46346	107947	0	0	8270	523135	0	0
2024-10-15 13:33:47			0	39068	0	0	0	21633	20180	158197	27438	1057076	46326	107944	0	0	8270	523478	0	0
2024-10-15 13:34:47			0	39091	0	0	0	21638	20190	158153	27677	1057085	46337	107946	0	0	8271	522572	0	0
2024-10-15 13:35:47			0	39095	0	0	0	21636	20180	158033	27580	1057103	46347	107945	0	0	8271	522448	0	0
2024-10-15 13:36:47			0	39082	0	0	0	21644	20180	158189	27300	1057103	46336	107948	0	0	8270	522944	0	0
2024-10-15 13:37:47			0	39097	0	0	0	21638	20190	158221	27289	1057174	46348	107946	0	0	8271	522343	0	0
2024-10-15 13:38:47			0	39087	0	0	0	21631	20190	158281	27313	1057138	46337	107943	0	0	8271	522724	0	0
2024-10-15 13:39:47			0	39064	0	0	0	21633	20200	158261	27419	1057156	46337	107944	0	0	8270	523573	0	0
2024-10-15 13:40:47			0	39053	0	0	0	21636	20210	158321	27235	1057121	46339	107945	0	0	8269	523965	0	0
2024-10-15 13:41:47			0	39041	0	0	0	21644	20200	158217	27282	1057130	46337	107948	0	0	8268	524452	0	0
2024-10-15 13:42:47			0	39043	0	0	0	21638	20200	158313	27322	1057156	46327	107946	0	0	8268	524376	0	0
2024-10-15 13:43:47			0	39047	0	0	0	21644	20200	158305	27246	1057165	46349	107948	0	0	8268	524223	0	0
2024-10-15 13:44:47			0	39056	0	0	0	21646	20200	158309	27107	1057165	46338	107949	0	0	8269	523879	0	0
2024-10-15 13:45:47			0	39053	0	0	0	21651	20210	158245	27507	1057147	46362	107951	0	0	8269	523965	0	0
2024-10-15 13:46:47			0	39109	0	0	0	21649	20210	158157	27391	1057174	46362	107950	0	0	8272	521827	0	0
2024-10-15 13:47:47			0	39103	0	0	0	21657	20210	158085	27391	1057201	46339	107953	0	0	8272	522056	0	0
2024-10-15 13:48:47			0	39081	0	0	0	21649	20210	158185	27514	1057210	46350	107950	0	0	8270	522895	0	0
2024-10-15 13:49:47			0	39073	0	0	0	21644	20210	158097	27005	1057236	46350	107948	0	0	8270	523201	0	0
2024-10-15 13:50:47			0	39077	0	0	0	21641	20210	158245	27293	1057236	46329	107947	0	0	8270	523048	0	0
2024-10-15 13:51:47			0	39016	0	0	0	21644	20210	158357	27319	1057183	46329	107948	0	0	8267	525380	0	0
2024-10-15 13:52:47			0	39020	0	0	0	21649	20210	158421	27348	1057210	46329	107950	0	0	8267	525227	0	0
2024-10-15 13:53:47			0	39039	0	0	0	21644	20220	158257	27199	1057228	46330	107948	0	0	8268	524471	0	0
2024-10-15 13:54:47			0	39051	0	0	0	21657	20220	158377	27521	1057175	46340	107953	0	0	8269	524012	0	0
2024-10-15 13:55:47			0	39054	0	0	0	21659	20210	158277	27388	1057183	46350	107954	0	0	8269	523927	0	0
2024-10-15 13:56:47			0	39078	0	0	0	21657	20220	158133	27260	1057201	46340	107953	0	0	8270	522981	0	0
2024-10-15 13:57:47			0	39114	0	0	0	21636	20230	158097	27289	1057272	46352	107945	0	0	8273	521579	0	0
2024-10-15 13:58:47			0	39056	0	0	0	21636	20220	158249	27294	1057175	46330	107945	0	0	8269	523821	0	0
2024-10-15 13:59:47			0	39075	0	0	0	21646	20230	158233	27545	1057290	46331	107949	0	0	8270	523067	0	0
2024-10-15 14:00:47			0	39083	0	0	0	21651	20220	158193	27232	1057228	46330	107951	0	0	8270	522790	0	0
2024-10-15 14:01:47			0	39063	0	0	0	21644	20220	158129	27424	1057201	46340	107948	0	0	8269	523554	0	0
2024-10-15 14:02:47			0	39066	0	0	0	21644	20210	158225	27390	1057236	46329	107948	0	0	8270	523468	0	0
2024-10-15 14:03:47			0	39105	0	0	0	21664	20220	158025	27687	1057219	46329	107956	0	0	8272	521951	0	0
2024-10-15 14:04:47			0	39088	0	0	0	21644	20230	158137	27587	1057263	46341	107948	0	0	8271	522571	0	0
2024-10-15 14:05:47			0	39027	0	0	0	21628	20230	158357	27384	1057246	46341	107942	0	0	8268	524901	0	0
2024-10-15 14:06:47			0	38985	0	0	0	21633	20230	158509	27402	1057237	46331	107944	0	0	8265	526509	0	0
2024-10-15 14:07:47			0	38957	0	0	0	21618	20220	158705	27331	1057166	46329	107938	0	0	8264	527612	0	0
2024-10-15 14:08:47			0	38933	0	0	0	21625	20220	158753	27322	1057192	46329	107941	0	0	8262	528534	0	0
2024-10-15 14:09:47			0	38907	0	0	0	21618	20210	158893	27557	1057210	46329	107938	0	0	8261	529562	0	0
2024-10-15 14:10:47			0	38860	0	0	0	21618	20210	158969	27386	1057121	46329	107938	0	0	8258	531371	0	0
2024-10-15 14:11:47			0	38842	0	0	0	21612	20210	159081	27289	1057130	46329	107936	0	0	8257	532065	0	0
2024-10-15 14:12:47			0	38840	0	0	0	21615	20200	159261	27554	1057085	46317	107937	0	0	8257	532172	0	0
2024-10-15 14:13:47			0	38825	0	0	0	21625	20200	159317	27339	1057103	46316	107941	0	0	8256	532751	0	0
2024-10-15 14:14:47			0	38841	0	0	0	21633	20200	159245	27673	1057085	46349	107944	0	0	8257	532133	0	0
2024-10-15 14:15:47			0	38841	0	0	0	21636	20190	159145	27239	1057121	46337	107945	0	0	8257	532163	0	0
2024-10-15 14:16:47			0	38864	0	0	0	21636	20210	158981	27424	1057147	46329	107945	0	0	8258	531217	0	0
2024-10-15 14:17:47			0	38888	0	0	0	21641	20210	158965	27452	1057174	46339	107947	0	0	8259	530293	0	0
2024-10-15 14:18:47			0	38906	0	0	0	21641	20210	158901	27575	1057174	46339	107947	0	0	8260	529601	0	0
2024-10-15 14:19:47			0	38926	0	0	0	21641	20210	158757	27777	1057147	46329	107947	0	0	8262	528832	0	0
2024-10-15 14:20:47			0	38940	0	0	0	21644	20200	158769	27862	1057156	46337	107948	0	0	8262	528323	0	0
2024-10-15 14:21:47			0	38952	0	0	0	21649	20210	158713	27822	1057147	46350	107950	0	0	8263	527833	0	0
2024-10-15 14:22:47			0	38952	0	0	0	21657	20210	158729	27798	1057227	46339	107953	0	0	8263	527833	0	0
2024-10-15 14:23:47			0	38988	0	0	0	21654	20210	158477	27708	1057201	46350	107952	0	0	8265	526452	0	0
2024-10-15 14:24:47			0	39002	0	0	0	21651	20220	158513	27656	1057228	46363	107951	0	0	8266	525887	0	0
2024-10-15 14:25:47			0	38972	0	0	0	21641	20220	158581	27734	1057281	46340	107947	0	0	8264	527037	0	0
2024-10-15 14:26:47			0	38984	0	0	0	21651	20220	158557	27727	1057245	46339	107951	0	0	8265	526577	0	0
2024-10-15 14:27:47			0	38953	0	0	0	21649	20230	158641	27883	1057210	46341	107950	0	0	8263	527737	0	0
2024-10-15 14:28:47			0	38973	0	0	0	21670	20230	158673	27602	1057263	46341	107958	0	0	8264	526969	0	0
2024-10-15 14:29:47			0	39000	0	0	0	21724	20220	158521	27737	1057334	46363	107979	0	0	8264	525964	0	0
2024-10-15 14:30:47			0	38982	0	0	0	21761	20230	158537	27504	1057396	46364	107993	0	0	8263	526624	0	0
2024-10-15 14:31:47			0	38984	0	0	0	21799	20250	158685	27926	1057512	46366	108008	0	0	8262	526489	0	0
2024-10-15 14:32:47			0	38857	0	0	0	21810	20270	159137	27431	1057512	46377	108012	0	0	8255	531311	0	0
2024-10-15 14:33:47			0	38824	0	0	0	21820	20270	159077	27606	1057654	46378	108016	0	0	8253	532583	0	0
2024-10-15 14:34:47			0	38809	0	0	0	21825	20290	159265	27479	1057717	46370	108018	0	0	8252	533104	0	0
2024-10-15 14:35:47			0	38786	0	0	0	21825	20300	159301	27592	1057814	46371	108018	0	0	8251	533962	0	0
2024-10-15 14:36:47			0	38727	0	0	0	21831	20310	159516	27682	1057823	46360	108020	0	0	8247	536215	0	0
2024-10-15 14:37:47			0	38713	0	0	0	21841	20320	159716	27488	1057797	46374	108024	0	0	8246	536728	0	0
2024-10-15 14:38:47			0	38709	0	0	0	21846	20330	159552	27798	1057868	46363	108026	0	0	8246	536854	0	0
2024-10-15 14:39:47			0	38774	0	0	0	21807	20330	159257	27552	1057948	46374	108011	0	0	8250	534338	0	0
2024-10-15 14:40:47			0	38884	0	0	0	21779	20340	158773	27843	1057966	46375	108000	0	0	8257	530066	0	0
2024-10-15 14:41:47			0	38979	0	0	0	21771	20340	158469	27351	1057940	46365	107997	0	0	8263	526419	0	0
2024-10-15 14:42:47			0	39026	0	0	0	21763	20370	158253	27802	1058011	46377	107994	0	0	8266	524534	0	0
2024-10-15 14:43:47			0	39058	0	0	0	21753	20360	158125	27436	1057896	46355	107990	0	0	8268	523340	0	0
2024-10-15 14:44:47			0	39091	0	0	0	21763	20370	158141	27445	1057905	46355	107994	0	0	8270	522052	0	0
2024-10-15 14:45:47			0	39089	0	0	0	21761	20360	157957	27569	1057887	46354	107993	0	0	8270	522157	0	0
2024-10-15 14:46:47			0	39114	0	0	0	21753	20360	157897	27717	1057869	46355	107990	0	0	8271	521205	0	0
2024-10-15 14:47:47			0	39132	0	0	0	21735	20360	157781	27703	1057896	46355	107983	0	0	8273	520520	0	0
2024-10-15 14:48:47			0	39138	0	0	0	21719	20360	157845	27543	1057807	46354	107977	0	0	8273	520291	0	0
2024-10-15 14:49:47			0	39111	0	0	0	21701	20340	157841	27774	1057860	46342	107970	0	0	8272	521377	0	0
2024-10-15 14:50:47			0	39097	0	0	0	21693	20360	158013	27417	1057816	46344	107967	0	0	8271	521852	0	0
2024-10-15 14:51:47			0	39068	0	0	0	21690	20350	158117	27467	1057824	46342	107966	0	0	8270	522987	0	0
2024-10-15 14:52:47			0	39073	0	0	0	21688	20350	158293	27372	1057798	46342	107965	0	0	8270	522796	0	0
2024-10-15 14:53:47			0	39030	0	0	0	21683	20340	158277	27403	1057753	46332	107963	0	0	8267	524468	0	0
2024-10-15 14:54:47			0	39018	0	0	0	21672	20330	158345	27440	1057735	46330	107959	0	0	8267	524955	0	0
2024-10-15 14:55:47			0	38984	0	0	0	21672	20330	158429	27587	1057708	46319	107959	0	0	8265	526257	0	0
2024-10-15 14:56:47			0	38968	0	0	0	21667	20330	158497	27701	1057682	46319	107957	0	0	8264	526870	0	0
2024-10-15 14:57:47			0	38940	0	0	0	21672	20320	158585	27492	1057717	46330	107959	0	0	8262	527973	0	0
2024-10-15 14:58:47			0	38931	0	0	0	21688	20310	158577	27523	1057531	46327	107965	0	0	8261	528348	0	0
2024-10-15 14:59:47			0	38931	0	0	0	21683	20300	158617	27255	1057575	46337	107963	0	0	8261	528377	0	0
2024-10-15 15:00:47			0	38919	0	0	0	21703	20310	158705	27357	1057619	46338	107971	0	0	8260	528809	0	0
2024-10-15 15:01:47			0	38943	0	0	0	21706	20300	158641	27765	1057593	46337	107972	0	0	8262	527916	0	0
2024-10-15 15:02:47			0	38973	0	0	0	21719	20300	158497	27852	1057655	46327	107977	0	0	8263	526766	0	0
2024-10-15 15:03:47			0	38989	0	0	0	21722	20310	158417	27481	1057637	46360	107978	0	0	8264	526124	0	0
2024-10-15 15:04:47			0	39025	0	0	0	21724	20310	158385	27466	1057610	46348	107979	0	0	8266	524746	0	0
2024-10-15 15:05:47			0	39061	0	0	0	21740	20300	158105	27536	1057628	46348	107985	0	0	8268	523399	0	0
2024-10-15 15:06:47			0	39053	0	0	0	21735	20310	158157	27642	1057717	46371	107983	0	0	8268	523676	0	0
2024-10-15 15:07:47			0	39052	0	0	0	21732	20310	158121	27445	1057637	46360	107982	0	0	8268	523714	0	0
2024-10-15 15:08:47			0	39047	0	0	0	21735	20310	158161	27621	1057752	46361	107983	0	0	8267	523905	0	0
2024-10-15 15:09:47			0	39054	0	0	0	21737	20310	158117	27869	1057726	46338	107984	0	0	8268	523637	0	0
2024-10-15 15:10:47			0	39057	0	0	0	21737	20310	158173	27720	1057690	46348	107984	0	0	8268	523523	0	0
2024-10-15 15:11:47			0	39062	0	0	0	21735	20300	158277	27826	1057708	46337	107983	0	0	8268	523361	0	0
2024-10-15 15:12:47			0	39044	0	0	0	21737	20310	158157	27677	1057699	46338	107984	0	0	8267	524020	0	0
2024-10-15 15:13:47			0	39064	0	0	0	21742	20310	158093	27786	1057699	46361	107986	0	0	8268	523256	0	0
2024-10-15 15:14:47			0	39086	0	0	0	21753	20310	158001	27666	1057752	46361	107990	0	0	8269	522416	0	0
2024-10-15 15:15:47			0	39096	0	0	0	21735	20320	157945	27892	1057761	46350	107983	0	0	8270	522006	0	0
2024-10-15 15:16:47			0	39055	0	0	0	21709	20320	158109	27597	1057770	46351	107973	0	0	8268	523570	0	0
2024-10-15 15:17:47			0	39026	0	0	0	21711	20320	158233	27902	1057655	46350	107974	0	0	8267	524679	0	0
2024-10-15 15:18:47			0	39014	0	0	0	21716	20320	158297	27601	1057717	46340	107976	0	0	8266	525137	0	0
2024-10-15 15:19:47			0	39026	0	0	0	21737	20320	158345	27476	1057735	46350	107984	0	0	8266	524679	0	0
2024-10-15 15:20:47			0	39023	0	0	0	21753	20320	158305	27320	1057682	46350	107990	0	0	8266	524793	0	0
2024-10-15 15:21:47			0	39061	0	0	0	21742	20320	158137	27536	1057744	46340	107986	0	0	8268	523341	0	0
2024-10-15 15:22:47			0	39081	0	0	0	21727	20320	158141	27554	1057682	46350	107980	0	0	8270	522578	0	0
2024-10-15 15:23:47			0	39082	0	0	0	21732	20320	158125	27457	1057717	46363	107982	0	0	8270	522540	0	0
2024-10-15 15:24:47			0	39056	0	0	0	21722	20310	158189	27410	1057726	46338	107978	0	0	8268	523561	0	0
2024-10-15 15:25:47			0	39022	0	0	0	21711	20320	158241	27620	1057664	46340	107974	0	0	8266	524831	0	0
2024-10-15 15:26:47			0	39019	0	0	0	21693	20300	158297	27609	1057575	46360	107967	0	0	8266	525004	0	0
2024-10-15 15:27:47			0	38990	0	0	0	21711	20300	158485	27438	1057655	46348	107974	0	0	8264	526114	0	0
2024-10-15 15:28:47			0	39001	0	0	0	21735	20310	158349	27481	1057584	46327	107983	0	0	8265	525664	0	0
2024-10-15 15:29:47			0	39033	0	0	0	21745	20320	158241	27471	1057708	46339	107987	0	0	8266	524411	0	0
2024-10-15 15:30:47			0	39061	0	0	0	21737	20310	158137	27393	1057637	46348	107984	0	0	8268	523370	0	0
2024-10-15 15:31:47			0	39071	0	0	0	21742	20310	158029	27300	1057673	46361	107986	0	0	8269	522988	0	0
2024-10-15 15:32:47			0	39119	0	0	0	21753	20310	158069	27734	1057664	46360	107990	0	0	8271	521158	0	0
2024-10-15 15:33:47			0	39123	0	0	0	21761	20320	158009	27777	1057708	46362	107993	0	0	8271	520977	0	0
2024-10-15 15:34:47			0	39110	0	0	0	21748	20310	157973	27597	1057699	46361	107988	0	0	8271	521501	0	0
2024-10-15 15:35:47			0	39123	0	0	0	21748	20310	157957	27417	1057726	46361	107988	0	0	8272	521006	0	0
2024-10-15 15:36:47			0	39108	0	0	0	21735	20320	157937	27450	1057717	46351	107983	0	0	8271	521549	0	0
2024-10-15 15:37:47			0	39121	0	0	0	21742	20320	158017	27471	1057708	46350	107986	0	0	8272	521053	0	0
2024-10-15 15:38:47			0	39115	0	0	0	21792	20310	157917	27350	1057699	46372	108005	0	0	8270	521311	0	0
2024-10-15 15:39:47			0	39142	0	0	0	21812	20330	157981	27246	1057779	46351	108013	0	0	8272	520225	0	0
2024-10-15 15:40:47			0	39190	0	0	0	21797	20330	157753	27365	1057868	46374	108007	0	0	8275	518401	0	0
2024-10-15 15:41:47			0	39194	0	0	0	21792	20350	157745	27497	1057904	46375	108005	0	0	8275	518192	0	0
2024-10-15 15:42:47			0	39183	0	0	0	21776	20350	157645	27530	1057815	46365	107999	0	0	8275	518610	0	0
2024-10-15 15:43:47			0	39186	0	0	0	21755	20340	157701	27585	1057886	46353	107991	0	0	8275	518524	0	0
2024-10-15 15:44:47			0	39172	0	0	0	21755	20340	157717	27590	1057833	46365	107991	0	0	8274	519056	0	0
2024-10-15 15:45:47			0	39171	0	0	0	21742	20350	157685	27351	1057869	46365	107986	0	0	8275	519065	0	0
2024-10-15 15:46:47			0	39163	0	0	0	21745	20340	157617	27230	1057806	46342	107987	0	0	8274	519398	0	0
2024-10-15 15:47:47			0	39181	0	0	0	21755	20340	157681	27426	1057850	46341	107991	0	0	8275	518714	0	0
2024-10-15 15:48:47			0	39171	0	0	0	21761	20340	157633	27405	1057913	46353	107993	0	0	8274	519094	0	0
2024-10-15 15:49:47			0	39165	0	0	0	21766	20340	157709	27557	1057860	46353	107995	0	0	8274	519322	0	0
2024-10-15 15:50:47			0	39192	0	0	0	21758	20340	157677	27526	1057797	46352	107992	0	0	8276	518296	0	0
2024-10-15 15:51:47			0	39181	0	0	0	21755	20340	157725	27249	1057913	46342	107991	0	0	8275	518714	0	0
2024-10-15 15:52:47			0	39180	0	0	0	21755	20340	157665	27003	1057806	46353	107991	0	0	8275	518752	0	0
2024-10-15 15:53:47			0	39213	0	0	0	21753	20340	157645	27390	1057797	46352	107990	0	0	8277	517500	0	0
2024-10-15 15:54:47			0	39204	0	0	0	21766	20340	157689	27170	1057833	46375	107995	0	0	8276	517841	0	0
2024-10-15 15:55:47			0	39220	0	0	0	21755	20350	157633	27601	1057815	46353	107991	0	0	8277	517205	0	0
2024-10-15 15:56:47			0	39210	0	0	0	21758	20350	157597	27343	1057869	46365	107992	0	0	8277	517585	0	0
2024-10-15 15:57:47			0	39203	0	0	0	21742	20340	157573	27379	1057806	46342	107986	0	0	8276	517879	0	0
2024-10-15 15:58:47			0	39192	0	0	0	21748	20330	157585	27462	1057841	46351	107988	0	0	8276	518325	0	0
2024-10-15 15:59:47			0	39185	0	0	0	21755	20340	157645	27440	1057850	46352	107991	0	0	8275	518562	0	0
2024-10-15 16:00:47			0	39185	0	0	0	21742	20340	157645	27350	1057850	46352	107986	0	0	8275	518562	0	0
2024-10-15 16:01:47			0	39199	0	0	0	21750	20340	157609	27358	1057806	46353	107989	0	0	8276	518031	0	0
2024-10-15 16:02:47			0	39197	0	0	0	21753	20340	157653	27524	1057913	46365	107990	0	0	8276	518107	0	0
2024-10-15 16:03:47			0	39189	0	0	0	21750	20340	157669	27471	1057860	46365	107989	0	0	8275	518410	0	0
2024-10-15 16:04:47			0	39200	0	0	0	21748	20330	157553	27227	1057788	46363	107988	0	0	8276	518021	0	0
2024-10-15 16:05:47			0	39221	0	0	0	21740	20340	157545	27523	1057886	46332	107985	0	0	8278	517196	0	0
2024-10-15 16:06:47			0	39216	0	0	0	21735	20340	157557	27199	1057833	46342	107983	0	0	8277	517386	0	0
2024-10-15 16:07:47			0	39202	0	0	0	21740	20340	157653	27071	1057797	46331	107985	0	0	8276	517917	0	0
2024-10-15 16:08:47			0	39189	0	0	0	21732	20340	157637	27322	1057833	46342	107982	0	0	8276	518410	0	0
2024-10-15 16:09:47			0	39202	0	0	0	21735	20340	157649	27521	1057771	46352	107983	0	0	8276	517917	0	0
2024-10-15 16:10:47			0	39189	0	0	0	21729	20330	157749	27326	1057841	46330	107981	0	0	8276	518439	0	0
2024-10-15 16:11:47			0	39185	0	0	0	21732	20330	157685	27604	1057806	46351	107982	0	0	8276	518591	0	0
2024-10-15 16:12:47			0	39180	0	0	0	21732	20330	157701	27417	1057788	46351	107982	0	0	8275	518781	0	0
2024-10-15 16:13:47			0	39166	0	0	0	21732	20330	157717	27190	1057762	46340	107982	0	0	8274	519313	0	0
2024-10-15 16:14:47			0	39168	0	0	0	21727	20330	157805	27517	1057753	46363	107980	0	0	8275	519237	0	0
2024-10-15 16:15:47			0	39160	0	0	0	21729	20330	157801	27308	1057832	46351	107981	0	0	8274	519541	0	0
2024-10-15 16:16:47			0	39169	0	0	0	21732	20330	157793	27372	1057815	46363	107982	0	0	8275	519199	0	0
2024-10-15 16:17:47			0	39137	0	0	0	21732	20330	157841	27255	1057762	46351	107982	0	0	8273	520416	0	0
2024-10-15 16:18:47			0	39155	0	0	0	21724	20330	157809	27230	1057841	46363	107979	0	0	8274	519731	0	0
2024-10-15 16:19:47			0	39168	0	0	0	21729	20340	157877	27267	1057797	46352	107981	0	0	8275	519208	0	0
2024-10-15 16:20:47			0	39146	0	0	0	21732	20330	157925	27338	1057841	46340	107982	0	0	8273	520073	0	0
2024-10-15 16:21:47			0	39146	0	0	0	21732	20340	157833	27145	1057797	46352	107982	0	0	8273	520044	0	0
2024-10-15 16:22:47			0	39140	0	0	0	21732	20340	157897	27521	1057824	46352	107982	0	0	8273	520273	0	0
2024-10-15 16:23:47			0	39132	0	0	0	21732	20330	157977	27471	1057788	46351	107982	0	0	8272	520606	0	0
2024-10-15 16:24:47			0	39137	0	0	0	21722	20330	157945	27403	1057753	46340	107978	0	0	8273	520416	0	0
2024-10-15 16:25:47			0	39128	0	0	0	21719	20330	157957	27128	1057841	46340	107977	0	0	8272	520758	0	0
2024-10-15 16:26:47			0	39128	0	0	0	21711	20330	158013	27157	1057753	46351	107974	0	0	8273	520758	0	0
2024-10-15 16:27:47			0	39126	0	0	0	21729	20330	157961	27124	1057726	46351	107981	0	0	8272	520834	0	0
2024-10-15 16:28:47			0	39146	0	0	0	21735	20320	157889	27355	1057770	46351	107983	0	0	8273	520102	0	0
2024-10-15 16:29:47			0	39147	0	0	0	21742	20320	157941	27339	1057717	46351	107986	0	0	8273	520064	0	0
2024-10-15 16:30:47			0	39128	0	0	0	21740	20330	157925	27112	1057779	46363	107985	0	0	8272	520758	0	0
2024-10-15 16:31:47			0	39136	0	0	0	21727	20330	157909	27204	1057815	46351	107980	0	0	8273	520453	0	0
2024-10-15 16:32:47			0	39131	0	0	0	21737	20330	157885	27209	1057779	46363	107984	0	0	8272	520644	0	0
2024-10-15 16:33:47			0	39127	0	0	0	21740	20330	158001	27083	1057762	46351	107985	0	0	8272	520796	0	0
2024-10-15 16:34:47			0	39139	0	0	0	21753	20330	157893	27163	1057779	46340	107990	0	0	8272	520339	0	0
2024-10-15 16:35:47			0	39134	0	0	0	21758	20340	157853	27140	1057797	46364	107992	0	0	8272	520501	0	0
2024-10-15 16:36:47			0	39142	0	0	0	21774	20340	157917	27405	1057860	46353	107998	0	0	8272	520197	0	0
2024-10-15 16:37:47			0	39155	0	0	0	21755	20340	157797	27157	1057824	46364	107991	0	0	8273	519702	0	0
2024-10-15 16:38:47			0	39168	0	0	0	21758	20340	157821	27189	1057797	46364	107992	0	0	8274	519208	0	0
2024-10-15 16:39:47			0	39157	0	0	0	21742	20340	157801	27034	1057886	46365	107986	0	0	8274	519626	0	0
2024-10-15 16:40:47			0	39132	0	0	0	21763	20350	157813	27118	1057878	46353	107994	0	0	8272	520548	0	0
2024-10-15 16:41:47			0	39149	0	0	0	21766	20350	157801	27022	1057931	46365	107995	0	0	8273	519902	0	0
2024-10-15 16:42:47			0	39162	0	0	0	21766	20340	157745	27255	1057860	46353	107995	0	0	8274	519436	0	0
2024-10-15 16:43:47			0	39171	0	0	0	21763	20340	157789	27213	1057886	46353	107994	0	0	8274	519094	0	0
2024-10-15 16:44:47			0	39121	0	0	0	21792	20350	157981	27277	1057904	46365	108005	0	0	8271	520967	0	0
2024-10-15 16:45:47			0	39001	0	0	0	21794	20360	158357	27450	1057940	46376	108006	0	0	8264	525519	0	0
2024-10-15 16:46:47			0	39019	0	0	0	21781	20340	158265	26994	1057860	46353	108001	0	0	8265	524888	0	0
2024-10-15 16:47:47			0	39017	0	0	0	21792	20350	158305	27440	1057878	46353	108005	0	0	8265	524936	0	0
2024-10-15 16:48:47			0	38965	0	0	0	21784	20350	158549	27104	1057948	46353	108002	0	0	8262	526927	0	0
2024-10-15 16:49:47			0	38911	0	0	0	21789	20340	158701	27272	1057886	46353	108004	0	0	8259	529028	0	0
2024-10-15 16:50:47			0	38865	0	0	0	21776	20350	158869	27255	1057815	46353	107999	0	0	8256	530768	0	0
2024-10-15 16:51:47			0	38823	0	0	0	21776	20340	158957	27322	1057886	46353	107999	0	0	8254	532416	0	0
2024-10-15 16:52:47			0	38816	0	0	0	21766	20340	159129	26970	1057850	46352	107995	0	0	8254	532686	0	0
2024-10-15 16:53:47			0	38797	0	0	0	21761	20340	159045	27220	1057860	46353	107993	0	0	8253	533419	0	0
2024-10-15 16:54:47			0	38762	0	0	0	21758	20360	159161	27216	1057807	46343	107992	0	0	8251	534713	0	0
2024-10-15 16:55:47			0	38749	0	0	0	21779	20340	159209	27294	1057771	46341	108000	0	0	8249	535275	0	0
2024-10-15 16:56:47			0	38768	0	0	0	21781	20350	159277	27008	1057815	46342	108001	0	0	8251	534510	0	0
2024-10-15 16:57:47			0	38809	0	0	0	21774	20350	158985	27227	1057869	46365	107998	0	0	8253	532927	0	0
2024-10-15 16:58:47			0	38885	0	0	0	21784	20340	158713	27255	1057860	46365	108002	0	0	8257	530028	0	0
2024-10-15 16:59:47			0	38987	0	0	0	21805	20360	158329	27270	1057833	46366	108010	0	0	8263	526055	0	0
2024-10-15 17:00:47			0	39073	0	0	0	21807	20350	158073	27092	1057869	46365	108011	0	0	8268	522796	0	0
2024-10-15 17:01:47			0	39139	0	0	0	21794	20340	157937	27216	1057913	46365	108006	0	0	8272	520311	0	0
2024-10-15 17:02:47			0	39103	0	0	0	21815	20360	157917	27339	1057913	46354	108014	0	0	8269	521624	0	0
2024-10-15 17:03:47			0	39106	0	0	0	21820	20360	157945	26930	1057887	46366	108016	0	0	8270	521510	0	0
2024-10-15 17:04:47			0	39141	0	0	0	21820	20360	157769	27019	1057922	46355	108016	0	0	8272	520177	0	0
2024-10-15 17:05:47			0	39171	0	0	0	21807	20370	157625	27043	1057905	46377	108011	0	0	8274	519008	0	0
2024-10-15 17:06:47			0	39181	0	0	0	21794	20360	157669	27319	1057896	46355	108006	0	0	8274	518657	0	0
2024-10-15 17:07:47			0	39180	0	0	0	21781	20350	157577	26852	1057904	46353	108001	0	0	8274	518723	0	0
2024-10-15 17:08:47			0	39170	0	0	0	21786	20370	157649	27071	1057931	46377	108003	0	0	8274	519046	0	0
2024-10-15 17:09:47			0	39168	0	0	0	21789	20360	157749	27154	1058002	46355	108004	0	0	8274	519151	0	0
2024-10-15 17:10:47			0	39156	0	0	0	21797	20360	157673	26975	1057975	46367	108007	0	0	8273	519607	0	0
2024-10-15 17:11:47			0	39182	0	0	0	21812	20370	157565	27187	1057993	46367	108013	0	0	8274	518590	0	0
2024-10-15 17:12:47			0	39232	0	0	0	21807	20370	157449	27187	1057984	46367	108011	0	0	8277	516694	0	0
2024-10-15 17:13:47			0	39239	0	0	0	21807	20370	157353	27232	1058073	46355	108011	0	0	8278	516429	0	0
2024-10-15 17:14:47			0	39239	0	0	0	21779	20360	157457	27279	1057975	46355	108000	0	0	8278	516457	0	0
2024-10-15 17:15:47			0	39185	0	0	0	21753	20370	157501	27000	1057940	46344	107990	0	0	8275	518476	0	0
2024-10-15 17:16:47			0	39151	0	0	0	21742	20380	157677	27001	1058038	46369	107986	0	0	8274	519739	0	0
2024-10-15 17:17:47			0	39121	0	0	0	21755	20370	157833	26967	1057958	46355	107991	0	0	8272	520910	0	0
2024-10-15 17:18:47			0	39098	0	0	0	21784	20370	157949	27199	1057958	46367	108002	0	0	8270	521786	0	0
2024-10-15 17:19:47			0	39082	0	0	0	21789	20380	157857	27031	1058038	46358	108004	0	0	8269	522367	0	0
2024-10-15 17:20:47			0	39075	0	0	0	21761	20370	157953	26930	1057967	46355	107993	0	0	8269	522662	0	0
2024-10-15 17:21:47			0	39084	0	0	0	21750	20370	157933	27199	1057967	46355	107989	0	0	8270	522319	0	0
2024-10-15 17:22:47			0	39055	0	0	0	21750	20370	158045	27307	1057958	46367	107989	0	0	8268	523426	0	0
2024-10-15 17:23:47			0	39030	0	0	0	21740	20370	158193	27131	1057967	46367	107985	0	0	8267	524381	0	0
2024-10-15 17:24:47			0	39024	0	0	0	21766	20380	158309	27069	1057976	46345	107995	0	0	8266	524581	0	0
2024-10-15 17:25:47			0	38998	0	0	0	21753	20370	158269	26930	1057940	46367	107990	0	0	8264	525605	0	0
2024-10-15 17:26:47			0	39012	0	0	0	21737	20370	158225	27149	1057984	46333	107984	0	0	8266	525069	0	0
2024-10-15 17:27:47			0	38984	0	0	0	21729	20370	158333	27147	1057931	46344	107981	0	0	8264	526141	0	0
2024-10-15 17:28:47			0	38984	0	0	0	21758	20360	158385	26866	1057896	46355	107992	0	0	8264	526170	0	0
2024-10-15 17:29:47			0	38982	0	0	0	21776	20360	158329	27334	1057949	46344	107999	0	0	8263	526246	0	0
2024-10-15 17:30:47			0	39014	0	0	0	21776	20360	158249	26779	1057896	46344	107999	0	0	8265	525021	0	0
2024-10-15 17:31:47			0	39062	0	0	0	21781	20360	158065	27003	1057922	46344	108001	0	0	8268	523187	0	0
2024-10-15 17:32:47			0	39099	0	0	0	21774	20360	158021	27267	1057887	46354	107998	0	0	8270	521776	0	0
2024-10-15 17:33:47			0	39080	0	0	0	21758	20360	157989	27267	1057860	46354	107992	0	0	8269	522500	0	0
2024-10-15 17:34:47			0	39072	0	0	0	21763	20360	157973	27244	1057887	46343	107994	0	0	8269	522806	0	0
2024-10-15 17:35:47			0	39071	0	0	0	21774	20360	158065	27177	1057913	46354	107998	0	0	8268	522844	0	0
2024-10-15 17:36:47			0	39051	0	0	0	21758	20350	157993	27256	1057869	46353	107992	0	0	8267	523636	0	0
2024-10-15 17:37:47			0	39053	0	0	0	21748	20360	158053	26991	1057940	46343	107988	0	0	8268	523531	0	0
2024-10-15 17:38:47			0	39023	0	0	0	21745	20350	158189	27137	1057815	46353	107987	0	0	8266	524706	0	0
2024-10-15 17:39:47			0	38999	0	0	0	21732	20360	158221	26922	1057780	46366	107982	0	0	8265	525595	0	0
2024-10-15 17:40:47			0	38988	0	0	0	21750	20340	158421	27329	1057833	46342	107989	0	0	8264	526075	0	0
2024-10-15 17:41:47			0	38972	0	0	0	21761	20340	158369	27426	1057886	46353	107993	0	0	8263	526688	0	0
2024-10-15 17:42:47			0	38985	0	0	0	21763	20340	158433	27038	1057850	46352	107994	0	0	8263	526189	0	0
2024-10-15 17:43:47			0	38979	0	0	0	21753	20330	158397	27284	1057815	46351	107990	0	0	8263	526448	0	0
2024-10-15 17:44:47			0	38995	0	0	0	21740	20350	158245	27189	1057842	46342	107985	0	0	8264	525778	0	0
2024-10-15 17:45:47			0	38993	0	0	0	21724	20340	158317	27230	1057824	46352	107979	0	0	8265	525883	0	0
2024-10-15 17:46:47			0	38982	0	0	0	21724	20340	158369	27260	1057886	46342	107979	0	0	8264	526305	0	0
2024-10-15 17:47:47			0	38989	0	0	0	21722	20330	158353	26902	1057762	46351	107978	0	0	8264	526065	0	0
2024-10-15 17:48:47			0	38990	0	0	0	21722	20320	158385	26847	1057717	46330	107978	0	0	8264	526056	0	0
2024-10-15 17:49:47			0	38983	0	0	0	21719	20330	158445	27293	1057779	46340	107977	0	0	8264	526295	0	0
2024-10-15 17:50:47			0	38973	0	0	0	21716	20330	158409	27180	1057708	46340	107976	0	0	8263	526678	0	0
2024-10-15 17:51:47			0	38957	0	0	0	21724	20330	158477	27168	1057779	46351	107979	0	0	8262	527292	0	0
2024-10-15 17:52:47			0	38956	0	0	0	21727	20320	158517	27447	1057717	46351	107980	0	0	8262	527359	0	0
2024-10-15 17:53:47			0	38966	0	0	0	21724	20320	158545	27098	1057717	46340	107979	0	0	8263	526976	0	0
2024-10-15 17:54:47			0	38947	0	0	0	21716	20320	158493	27213	1057708	46350	107976	0	0	8262	527705	0	0
2024-10-15 17:55:47			0	38937	0	0	0	21722	20330	158561	27053	1057753	46351	107978	0	0	8261	528059	0	0
2024-10-15 17:56:47			0	38933	0	0	0	21722	20330	158573	27010	1057682	46340	107978	0	0	8261	528213	0	0
2024-10-15 17:57:47			0	38940	0	0	0	21716	20310	158689	27093	1057664	46327	107976	0	0	8261	528002	0	0
2024-10-15 17:58:47			0	38916	0	0	0	21724	20320	158661	27171	1057770	46351	107979	0	0	8260	528895	0	0
2024-10-15 17:59:47			0	38935	0	0	0	21727	20300	158697	27090	1057628	46327	107980	0	0	8261	528223	0	0
2024-10-15 18:00:47			0	38927	0	0	0	21719	20310	158753	27433	1057717	46348	107977	0	0	8261	528501	0	0
2024-10-15 18:01:47			0	38935	0	0	0	21716	20300	158725	27140	1057681	46360	107976	0	0	8261	528223	0	0
2024-10-15 18:02:47			0	38919	0	0	0	21724	20300	158661	26915	1057681	46348	107979	0	0	8260	528838	0	0
2024-10-15 18:03:47			0	38914	0	0	0	21732	20300	158681	26942	1057655	46360	107982	0	0	8260	529030	0	0
2024-10-15 18:04:47			0	38929	0	0	0	21727	20300	158609	27421	1057628	46348	107980	0	0	8261	528454	0	0
2024-10-15 18:05:47			0	38936	0	0	0	21722	20310	158553	27086	1057752	46361	107978	0	0	8261	528156	0	0
2024-10-15 18:06:47			0	38950	0	0	0	21719	20310	158585	27300	1057664	46360	107977	0	0	8262	527619	0	0
2024-10-15 18:07:47			0	38948	0	0	0	21716	20310	158605	27300	1057637	46348	107976	0	0	8262	527695	0	0
2024-10-15 18:08:47			0	38939	0	0	0	21714	20300	158657	27232	1057655	46337	107975	0	0	8261	528070	0	0
2024-10-15 18:09:47			0	38927	0	0	0	21722	20310	158725	27189	1057673	46349	107978	0	0	8261	528501	0	0
2024-10-15 18:10:47			0	38927	0	0	0	21729	20300	158725	27034	1057646	46348	107981	0	0	8260	528531	0	0
2024-10-15 18:11:47			0	38914	0	0	0	21729	20300	158693	27026	1057655	46348	107981	0	0	8260	529030	0	0
2024-10-15 18:12:47			0	38934	0	0	0	21727	20300	158677	27310	1057681	46337	107980	0	0	8261	528262	0	0
2024-10-15 18:13:47			0	38939	0	0	0	21735	20300	158609	27126	1057655	46371	107983	0	0	8261	528070	0	0
2024-10-15 18:14:47			0	38935	0	0	0	21732	20300	158653	27081	1057708	46348	107982	0	0	8261	528223	0	0
2024-10-15 18:15:47			0	38907	0	0	0	21722	20310	158653	26892	1057717	46348	107978	0	0	8259	529270	0	0
2024-10-15 18:16:47			0	38919	0	0	0	21722	20300	158633	26925	1057672	46348	107978	0	0	8260	528838	0	0
2024-10-15 18:17:47			0	38939	0	0	0	21716	20300	158725	27081	1057672	46360	107976	0	0	8261	528070	0	0
2024-10-15 18:18:47			0	38929	0	0	0	21722	20300	158709	27130	1057708	46348	107978	0	0	8261	528454	0	0
2024-10-15 18:19:47			0	38918	0	0	0	21727	20300	158661	27159	1057655	46337	107980	0	0	8260	528876	0	0
2024-10-15 18:20:47			0	38904	0	0	0	21722	20310	158729	27590	1057664	46348	107978	0	0	8259	529385	0	0
2024-10-15 18:21:47			0	38902	0	0	0	21722	20310	158761	27046	1057664	46360	107978	0	0	8259	529462	0	0
2024-10-15 18:22:47			0	38893	0	0	0	21711	20300	158773	26949	1057646	46348	107974	0	0	8259	529837	0	0
2024-10-15 18:23:47			0	38893	0	0	0	21716	20300	158829	26791	1057655	46348	107976	0	0	8259	529837	0	0
2024-10-15 18:24:47			0	38895	0	0	0	21724	20300	158833	26916	1057681	46360	107979	0	0	8259	529760	0	0
2024-10-15 18:25:47			0	38888	0	0	0	21732	20300	158941	27424	1057681	46360	107982	0	0	8258	530030	0	0
2024-10-15 18:26:47			0	38870	0	0	0	21722	20300	158841	27202	1057646	46360	107978	0	0	8257	530722	0	0
2024-10-15 18:27:47			0	38866	0	0	0	21719	20310	158965	27069	1057673	46338	107977	0	0	8257	530847	0	0
2024-10-15 18:28:47			0	38856	0	0	0	21722	20300	158961	26844	1057681	46348	107978	0	0	8256	531262	0	0
2024-10-15 18:29:47			0	38850	0	0	0	21714	20290	158961	27092	1057663	46359	107975	0	0	8256	531522	0	0
2024-10-15 18:30:47			0	38840	0	0	0	21714	20300	158969	26752	1057646	46360	107975	0	0	8256	531878	0	0
2024-10-15 18:31:47			0	38827	0	0	0	21722	20300	159017	27306	1057602	46348	107978	0	0	8255	532379	0	0
2024-10-15 18:32:47			0	38822	0	0	0	21727	20300	159017	27045	1057619	46348	107980	0	0	8254	532572	0	0
2024-10-15 18:33:47			0	38833	0	0	0	21727	20300	158989	27124	1057672	46360	107980	0	0	8255	532148	0	0
2024-10-15 18:34:47			0	38814	0	0	0	21737	20300	158969	27421	1057699	46348	107984	0	0	8254	532881	0	0
2024-10-15 18:35:47			0	38856	0	0	0	21737	20300	158973	27038	1057681	46371	107984	0	0	8256	531262	0	0
2024-10-15 18:36:47			0	38873	0	0	0	21737	20290	158857	27109	1057548	46346	107984	0	0	8257	530636	0	0
2024-10-15 18:37:47			0	38879	0	0	0	21729	20310	158781	27261	1057664	46360	107981	0	0	8258	530347	0	0
2024-10-15 18:38:47			0	38892	0	0	0	21735	20310	158741	27308	1057637	46337	107983	0	0	8258	529846	0	0
2024-10-15 18:39:47			0	38904	0	0	0	21737	20300	158845	27346	1057681	46360	107984	0	0	8259	529414	0	0
2024-10-15 18:40:47			0	38897	0	0	0	21729	20310	158817	26975	1057637	46348	107981	0	0	8259	529654	0	0
2024-10-15 18:41:47			0	38900	0	0	0	21735	20310	158797	27149	1057664	46337	107983	0	0	8259	529539	0	0
2024-10-15 18:42:47			0	38907	0	0	0	21737	20300	158801	27353	1057681	46348	107984	0	0	8259	529299	0	0
2024-10-15 18:43:47			0	38892	0	0	0	21735	20310	158781	26993	1057690	46360	107983	0	0	8258	529846	0	0
2024-10-15 18:44:47			0	38897	0	0	0	21735	20310	158801	26840	1057637	46348	107983	0	0	8259	529654	0	0
2024-10-15 18:45:47			0	38884	0	0	0	21729	20300	158805	27237	1057681	46348	107981	0	0	8258	530183	0	0
2024-10-15 18:46:47			0	38877	0	0	0	21724	20300	158877	26870	1057672	46348	107979	0	0	8258	530453	0	0
2024-10-15 18:47:47			0	38869	0	0	0	21727	20300	159045	27230	1057655	46337	107980	0	0	8257	530761	0	0
2024-10-15 18:48:47			0	38840	0	0	0	21714	20300	158965	26632	1057646	46348	107975	0	0	8256	531878	0	0
2024-10-15 18:49:47			0	38818	0	0	0	21711	20300	159153	26889	1057699	46371	107974	0	0	8254	532727	0	0
2024-10-15 18:50:47			0	38813	0	0	0	21714	20290	159193	27111	1057637	46359	107975	0	0	8254	532949	0	0
2024-10-15 18:51:47			0	38821	0	0	0	21709	20310	159145	26830	1057610	46348	107973	0	0	8255	532581	0	0
2024-10-15 18:52:47			0	38806	0	0	0	21706	20290	159245	27265	1057637	46347	107972	0	0	8254	533219	0	0
2024-10-15 18:53:47			0	38769	0	0	0	21706	20290	159345	27232	1057654	46346	107972	0	0	8252	534649	0	0
2024-10-15 18:54:47			0	38801	0	0	0	21698	20290	159177	27367	1057610	46359	107969	0	0	8254	533412	0	0
2024-10-15 18:55:47			0	38829	0	0	0	21698	20290	159109	27093	1057601	46346	107969	0	0	8255	532332	0	0
2024-10-15 18:56:47			0	38821	0	0	0	21698	20290	159161	27124	1057601	46335	107969	0	0	8255	532640	0	0
2024-10-15 18:57:47			0	38821	0	0	0	21701	20280	159161	27187	1057557	46346	107970	0	0	8255	532670	0	0
2024-10-15 18:58:47			0	38832	0	0	0	21698	20280	159061	27211	1057619	46346	107969	0	0	8255	532245	0	0
2024-10-15 18:59:47			0	38837	0	0	0	21701	20280	159001	26909	1057566	46346	107970	0	0	8256	532052	0	0
2024-10-15 19:00:47			0	38852	0	0	0	21703	20270	159009	27076	1057601	46345	107971	0	0	8256	531504	0	0
2024-10-15 19:01:47			0	38844	0	0	0	21696	20280	159141	26774	1057539	46346	107968	0	0	8256	531783	0	0
2024-10-15 19:02:47			0	38870	0	0	0	21693	20270	158969	26863	1057521	46357	107967	0	0	8258	530810	0	0
2024-10-15 19:03:47			0	38892	0	0	0	21706	20270	158961	27332	1057521	46345	107972	0	0	8259	529964	0	0
2024-10-15 19:04:47			0	38880	0	0	0	21696	20280	158969	27296	1057592	46358	107968	0	0	8258	530396	0	0
2024-10-15 19:05:47			0	38889	0	0	0	21688	20270	158885	27053	1057521	46345	107965	0	0	8259	530079	0	0
2024-10-15 19:06:47			0	38890	0	0	0	21685	20270	158917	27182	1057539	46344	107964	0	0	8259	530041	0	0
2024-10-15 19:07:47			0	38876	0	0	0	21685	20260	158849	26885	1057503	46344	107964	0	0	8258	530609	0	0
2024-10-15 19:08:47			0	38862	0	0	0	21683	20270	158897	27242	1057512	46333	107963	0	0	8257	531118	0	0
2024-10-15 19:09:47			0	38882	0	0	0	21688	20270	158893	26927	1057512	46344	107965	0	0	8258	530348	0	0
2024-10-15 19:10:47			0	38882	0	0	0	21677	20270	158973	26975	1057486	46333	107961	0	0	8259	530348	0	0
2024-10-15 19:11:47			0	38876	0	0	0	21683	20270	158969	27138	1057459	46356	107963	0	0	8258	530579	0	0
2024-10-15 19:12:47			0	38853	0	0	0	21680	20260	158965	26854	1057503	46356	107962	0	0	8257	531494	0	0
2024-10-15 19:13:47			0	38844	0	0	0	21685	20270	158973	27150	1057512	46356	107964	0	0	8256	531812	0	0
2024-10-15 19:14:47			0	38864	0	0	0	21680	20270	158941	27059	1057486	46344	107962	0	0	8258	531041	0	0
2024-10-15 19:15:47			0	38797	0	0	0	21688	20260	159257	27159	1057450	46344	107965	0	0	8253	533655	0	0
2024-10-15 19:16:47			0	38754	0	0	0	21693	20260	159389	27284	1057477	46344	107967	0	0	8251	535318	0	0
2024-10-15 19:17:47			0	38764	0	0	0	21696	20260	159385	27298	1057468	46344	107968	0	0	8251	534931	0	0
2024-10-15 19:18:47			0	38764	0	0	0	21690	20260	159297	27121	1057477	46356	107966	0	0	8251	534931	0	0
2024-10-15 19:19:47			0	38776	0	0	0	21693	20260	159269	27001	1057521	46356	107967	0	0	8252	534467	0	0
2024-10-15 19:20:47			0	38772	0	0	0	21693	20270	159361	26873	1057459	46356	107967	0	0	8252	534592	0	0
2024-10-15 19:21:47			0	38780	0	0	0	21688	20250	159305	27415	1057459	46354	107965	0	0	8252	534342	0	0
2024-10-15 19:22:47			0	38746	0	0	0	21693	20260	159337	27365	1057415	46356	107967	0	0	8250	535628	0	0
2024-10-15 19:23:47			0	38743	0	0	0	21696	20250	159409	27345	1057485	46343	107968	0	0	8250	535773	0	0
2024-10-15 19:24:47			0	38753	0	0	0	21698	20250	159357	27201	1057485	46343	107969	0	0	8251	535386	0	0
2024-10-15 19:25:47			0	38753	0	0	0	21688	20260	159405	27580	1057423	46356	107965	0	0	8251	535357	0	0
2024-10-15 19:26:47			0	38751	0	0	0	21683	20250	159377	27229	1057459	46354	107963	0	0	8251	535464	0	0
2024-10-15 19:27:47			0	38755	0	0	0	21688	20250	159357	27251	1057485	46354	107965	0	0	8251	535309	0	0
2024-10-15 19:28:47			0	38742	0	0	0	21688	20260	159317	27365	1057450	46356	107965	0	0	8250	535782	0	0
2024-10-15 19:29:47			0	38764	0	0	0	21693	20260	159345	26901	1057468	46344	107967	0	0	8251	534931	0	0
2024-10-15 19:30:47			0	38748	0	0	0	21701	20270	159481	26920	1057459	46356	107970	0	0	8250	535520	0	0
2024-10-15 19:31:47			0	38727	0	0	0	21698	20260	159541	27039	1057548	46367	107969	0	0	8249	536363	0	0
2024-10-15 19:32:47			0	38700	0	0	0	21693	20260	159664	26970	1057415	46344	107967	0	0	8248	537410	0	0
2024-10-15 19:33:47			0	38689	0	0	0	21701	20260	159656	27190	1057450	46356	107970	0	0	8247	537837	0	0
2024-10-15 19:34:47			0	38662	0	0	0	21703	20260	159704	27133	1057441	46344	107971	0	0	8245	538886	0	0
2024-10-15 19:35:47			0	38684	0	0	0	21709	20260	159728	27220	1057477	46367	107973	0	0	8246	538031	0	0
2024-10-15 19:36:47			0	38680	0	0	0	21698	20270	159680	27339	1057521	46357	107969	0	0	8246	538157	0	0
2024-10-15 19:37:47			0	38682	0	0	0	21696	20260	159752	27149	1057477	46356	107968	0	0	8247	538109	0	0
2024-10-15 19:38:47			0	38672	0	0	0	21696	20250	159736	27145	1057459	46354	107968	0	0	8246	538527	0	0
2024-10-15 19:39:47			0	38665	0	0	0	21703	20270	159672	27123	1057539	46356	107971	0	0	8246	538739	0	0
2024-10-15 19:40:47			0	38659	0	0	0	21698	20260	159812	26993	1057423	46356	107969	0	0	8245	539002	0	0
2024-10-15 19:41:47			0	38634	0	0	0	21693	20280	159840	27485	1057504	46346	107967	0	0	8244	539915	0	0
2024-10-15 19:42:47			0	38632	0	0	0	21706	20260	159876	26847	1057556	46356	107972	0	0	8244	540052	0	0
2024-10-15 19:43:47			0	38652	0	0	0	21706	20260	159824	26878	1057477	46356	107972	0	0	8245	539274	0	0
2024-10-15 19:44:47			0	38662	0	0	0	21703	20270	159804	27152	1057539	46356	107971	0	0	8245	538856	0	0
2024-10-15 19:45:47			0	38654	0	0	0	21711	20260	159856	26970	1057556	46344	107974	0	0	8245	539197	0	0
2024-10-15 19:46:47			0	38644	0	0	0	21711	20260	159944	26937	1057477	46356	107974	0	0	8244	539585	0	0
2024-10-15 19:47:47			0	38663	0	0	0	21703	20260	159772	27088	1057521	46344	107971	0	0	8245	538847	0	0
2024-10-15 19:48:47			0	38634	0	0	0	21703	20280	159760	27020	1057557	46369	107971	0	0	8244	539915	0	0
2024-10-15 19:49:47			0	38639	0	0	0	21698	20260	159856	27078	1057521	46344	107969	0	0	8244	539780	0	0
2024-10-15 19:50:47			0	38647	0	0	0	21690	20270	159728	27126	1057539	46356	107966	0	0	8245	539439	0	0
2024-10-15 19:51:47			0	38656	0	0	0	21693	20260	159708	27001	1057530	46356	107967	0	0	8245	539119	0	0
2024-10-15 19:52:47			0	38694	0	0	0	21688	20270	159632	27381	1057521	46345	107965	0	0	8247	537613	0	0
2024-10-15 19:53:47			0	38700	0	0	0	21693	20260	159552	27104	1057583	46356	107967	0	0	8248	537410	0	0
2024-10-15 19:54:47			0	38714	0	0	0	21696	20260	159572	27307	1057521	46344	107968	0	0	8248	536867	0	0
2024-10-15 19:55:47			0	38716	0	0	0	21701	20260	159428	27317	1057530	46356	107970	0	0	8248	536790	0	0
2024-10-15 19:56:47			0	38706	0	0	0	21701	20270	159532	27119	1057628	46345	107970	0	0	8248	537148	0	0
2024-10-15 19:57:47			0	38740	0	0	0	21698	20260	159517	26963	1057503	46344	107969	0	0	8250	535860	0	0
2024-10-15 19:58:47			0	38722	0	0	0	21711	20270	159380	27085	1057574	46357	107974	0	0	8249	536528	0	0
2024-10-15 19:59:47			0	38722	0	0	0	21706	20270	159488	27182	1057521	46357	107972	0	0	8249	536528	0	0
2024-10-15 20:00:47			0	38727	0	0	0	21703	20270	159473	27005	1057539	46333	107971	0	0	8249	536334	0	0
2024-10-15 20:01:47			0	38747	0	0	0	21696	20270	159381	27178	1057601	46345	107968	0	0	8250	535559	0	0
2024-10-15 20:02:47			0	38763	0	0	0	21698	20270	159365	27265	1057521	46357	107969	0	0	8251	534940	0	0
2024-10-15 20:03:47			0	38772	0	0	0	21701	20270	159349	27268	1057521	46345	107970	0	0	8252	534592	0	0
2024-10-15 20:04:47			0	38755	0	0	0	21693	20270	159453	27258	1057521	46357	107967	0	0	8251	535250	0	0
2024-10-15 20:05:47			0	38771	0	0	0	21690	20260	159433	27220	1057556	46356	107966	0	0	8252	534660	0	0
2024-10-15 20:06:47			0	38792	0	0	0	21690	20260	159321	27199	1057556	46333	107966	0	0	8253	533848	0	0
2024-10-15 20:07:47			0	38777	0	0	0	21690	20260	159269	27485	1057530	46344	107966	0	0	8252	534428	0	0
2024-10-15 20:08:47			0	38798	0	0	0	21690	20260	159197	27230	1057441	46333	107966	0	0	8253	533616	0	0
2024-10-15 20:09:47			0	38782	0	0	0	21698	20270	159405	27256	1057512	46356	107969	0	0	8252	534205	0	0
2024-10-15 20:10:47			0	38777	0	0	0	21698	20260	159197	27301	1057450	46344	107969	0	0	8252	534428	0	0
2024-10-15 20:11:47			0	38779	0	0	0	21698	20270	159257	27260	1057512	46344	107969	0	0	8252	534321	0	0
2024-10-15 20:12:47			0	38767	0	0	0	21696	20260	159277	27485	1057503	46344	107968	0	0	8252	534815	0	0
2024-10-15 20:13:47			0	38754	0	0	0	21688	20260	159297	27320	1057494	46344	107965	0	0	8251	535318	0	0
2024-10-15 20:14:47			0	38756	0	0	0	21698	20260	159277	27116	1057503	46356	107969	0	0	8251	535240	0	0
2024-10-15 20:15:47			0	38770	0	0	0	21675	20260	159313	26897	1057477	46344	107960	0	0	8252	534699	0	0
2024-10-15 20:16:47			0	38768	0	0	0	21683	20250	159405	27189	1057512	46343	107963	0	0	8252	534806	0	0
2024-10-15 20:17:47			0	38768	0	0	0	21680	20250	159365	26871	1057459	46354	107962	0	0	8252	534806	0	0
2024-10-15 20:18:47			0	38767	0	0	0	21672	20260	159325	26918	1057468	46356	107959	0	0	8252	534815	0	0
2024-10-15 20:19:47			0	38774	0	0	0	21670	20250	159389	26840	1057432	46354	107958	0	0	8252	534574	0	0
2024-10-15 20:20:47			0	38772	0	0	0	21680	20250	159465	27275	1057485	46366	107962	0	0	8252	534651	0	0
2024-10-15 20:21:47			0	38749	0	0	0	21683	20240	159401	27289	1057503	46332	107963	0	0	8251	535570	0	0
2024-10-15 20:22:47			0	38684	0	0	0	21670	20260	159744	27064	1057530	46344	107958	0	0	8247	538031	0	0
2024-10-15 20:23:47			0	38707	0	0	0	21677	20240	159656	26805	1057494	46341	107961	0	0	8248	537198	0	0
2024-10-15 20:24:47			0	38720	0	0	0	21690	20240	159705	27230	1057441	46352	107966	0	0	8249	536694	0	0
2024-10-15 20:25:47			0	38717	0	0	0	21680	20260	159600	26942	1057494	46367	107962	0	0	8249	536751	0	0
2024-10-15 20:26:47			0	38726	0	0	0	21677	20240	159609	27388	1057476	46353	107961	0	0	8249	536461	0	0
2024-10-15 20:27:47			0	38708	0	0	0	21685	20250	159596	27319	1057512	46354	107964	0	0	8248	537130	0	0
2024-10-15 20:28:47			0	38715	0	0	0	21688	20240	159648	26675	1057423	46365	107965	0	0	8249	536888	0	0
2024-10-15 20:29:47			0	38717	0	0	0	21688	20250	159644	27107	1057459	46343	107965	0	0	8249	536781	0	0
2024-10-15 20:30:47			0	38735	0	0	0	21701	20240	159545	27267	1057476	46342	107970	0	0	8250	536113	0	0
2024-10-15 20:31:47			0	38738	0	0	0	21693	20240	159581	27022	1057467	46352	107967	0	0	8250	535997	0	0
2024-10-15 20:32:47			0	38743	0	0	0	21690	20260	159533	27299	1057494	46333	107966	0	0	8250	535744	0	0
2024-10-15 20:33:47			0	38734	0	0	0	21696	20250	159533	27229	1057432	46354	107968	0	0	8250	536122	0	0
2024-10-15 20:34:47			0	38718	0	0	0	21701	20260	159648	26960	1057494	46356	107970	0	0	8249	536712	0	0
2024-10-15 20:35:47			0	38752	0	0	0	21701	20250	159433	26887	1057432	46366	107970	0	0	8251	535425	0	0
2024-10-15 20:36:47			0	38753	0	0	0	21696	20260	159473	27232	1057521	46356	107968	0	0	8251	535357	0	0
2024-10-15 20:37:47			0	38762	0	0	0	21696	20260	159537	27066	1057503	46344	107968	0	0	8251	535008	0	0
2024-10-15 20:38:47			0	38756	0	0	0	21701	20250	159457	27109	1057485	46343	107970	0	0	8251	535270	0	0
2024-10-15 20:39:47			0	38771	0	0	0	21701	20250	159405	27071	1057485	46354	107970	0	0	8252	534690	0	0
2024-10-15 20:40:47			0	38722	0	0	0	21703	20260	159572	27270	1057494	46344	107971	0	0	8249	536557	0	0
2024-10-15 20:41:47			0	38716	0	0	0	21698	20270	159440	27130	1057486	46356	107969	0	0	8249	536760	0	0
2024-10-15 20:42:47			0	38724	0	0	0	21698	20260	159544	27144	1057530	46367	107969	0	0	8249	536480	0	0
2024-10-15 20:43:47			0	38708	0	0	0	21701	20240	159544	27140	1057450	46353	107970	0	0	8248	537159	0	0
2024-10-15 20:44:47			0	38710	0	0	0	21696	20250	159588	27185	1057432	46366	107968	0	0	8248	537052	0	0
2024-10-15 20:45:47			0	38684	0	0	0	21693	20260	159732	27057	1057530	46356	107967	0	0	8247	538031	0	0
2024-10-15 20:46:47			0	38659	0	0	0	21683	20260	159796	27206	1057521	46344	107963	0	0	8245	539002	0	0
2024-10-15 20:47:47			0	38630	0	0	0	21685	20260	159928	26738	1057494	46344	107964	0	0	8244	540130	0	0
2024-10-15 20:48:47			0	38618	0	0	0	21685	20260	159936	27088	1057494	46356	107964	0	0	8243	540597	0	0
2024-10-15 20:49:47			0	38612	0	0	0	21680	20250	160032	27377	1057512	46343	107962	0	0	8243	540861	0	0
2024-10-15 20:50:47			0	38591	0	0	0	21680	20240	160108	27327	1057397	46353	107962	0	0	8241	541709	0	0
2024-10-15 20:51:47			0	38572	0	0	0	21680	20250	160160	27057	1057459	46343	107962	0	0	8240	542420	0	0
2024-10-15 20:52:47			0	38535	0	0	0	21685	20250	160240	26942	1057432	46343	107964	0	0	8238	543864	0	0
2024-10-15 20:53:47			0	38516	0	0	0	21683	20260	160460	27339	1057494	46356	107963	0	0	8237	544577	0	0
2024-10-15 20:54:47			0	38513	0	0	0	21672	20260	160484	27336	1057556	46356	107959	0	0	8237	544694	0	0
2024-10-15 20:55:47			0	38487	0	0	0	21670	20260	160476	26817	1057530	46356	107958	0	0	8236	545712	0	0
2024-10-15 20:56:47			0	38481	0	0	0	21680	20250	160480	27145	1057485	46354	107962	0	0	8235	545977	0	0
2024-10-15 20:57:47			0	38483	0	0	0	21672	20240	160536	27164	1057441	46364	107959	0	0	8235	545929	0	0
2024-10-15 20:58:47			0	38447	0	0	0	21672	20260	160656	26870	1057530	46356	107959	0	0	8233	547280	0	0
2024-10-15 20:59:47			0	38435	0	0	0	21670	20250	160692	27185	1057459	46354	107958	0	0	8233	547781	0	0
2024-10-15 21:00:47			0	38395	0	0	0	21677	20260	160816	27303	1057441	46367	107961	0	0	8230	549322	0	0
2024-10-15 21:01:47			0	38389	0	0	0	21675	20240	160916	27137	1057423	46353	107960	0	0	8230	549618	0	0
2024-10-15 21:02:47			0	38373	0	0	0	21667	20250	160948	27358	1057432	46354	107957	0	0	8229	550217	0	0
2024-10-15 21:03:47			0	38358	0	0	0	21685	20240	161016	27244	1057450	46342	107964	0	0	8228	550838	0	0
2024-10-15 21:04:47			0	38340	0	0	0	21672	20230	161200	27223	1057405	46341	107959	0	0	8227	551578	0	0
2024-10-15 21:05:47			0	38343	0	0	0	21672	20230	161072	27144	1057458	46352	107959	0	0	8227	551460	0	0
2024-10-15 21:06:47			0	38333	0	0	0	21670	20240	161160	27022	1057441	46331	107958	0	0	8227	551824	0	0
2024-10-15 21:07:47			0	38345	0	0	0	21670	20240	161036	27079	1057397	46342	107958	0	0	8227	551351	0	0
2024-10-15 21:08:47			0	38343	0	0	0	21670	20240	161020	26996	1057450	46332	107958	0	0	8227	551430	0	0
2024-10-15 21:09:47			0	38353	0	0	0	21664	20230	160940	27391	1057379	46352	107956	0	0	8228	551066	0	0
2024-10-15 21:10:47			0	38355	0	0	0	21670	20240	160996	27294	1057476	46353	107958	0	0	8228	550957	0	0
2024-10-15 21:11:47			0	38347	0	0	0	21664	20230	161128	27405	1057405	46341	107956	0	0	8227	551302	0	0
2024-10-15 21:12:47			0	38314	0	0	0	21667	20230	161252	27235	1057326	46352	107957	0	0	8225	552604	0	0
2024-10-15 21:13:47			0	38304	0	0	0	21662	20230	161244	27256	1057370	46341	107955	0	0	8225	552998	0	0
2024-10-15 21:14:47			0	38290	0	0	0	21664	20220	161228	27128	1057334	46340	107956	0	0	8224	553582	0	0
2024-10-15 21:15:47			0	38300	0	0	0	21659	20240	161252	26989	1057397	46342	107954	0	0	8225	553126	0	0
2024-10-15 21:16:47			0	38285	0	0	0	21670	20230	161280	27294	1057405	46341	107958	0	0	8224	553749	0	0
2024-10-15 21:17:47			0	38306	0	0	0	21664	20230	161232	27045	1057352	46352	107956	0	0	8225	552919	0	0
2024-10-15 21:18:47			0	38302	0	0	0	21654	20230	161348	27163	1057450	46341	107952	0	0	8225	553077	0	0
2024-10-15 21:19:47			0	38303	0	0	0	21651	20240	161176	27194	1057361	46341	107951	0	0	8225	553007	0	0
2024-10-15 21:20:47			0	38316	0	0	0	21654	20230	161256	26863	1057370	46352	107952	0	0	8226	552525	0	0
2024-10-15 21:21:47			0	38303	0	0	0	21651	20230	161264	27196	1057343	46352	107951	0	0	8225	553038	0	0
2024-10-15 21:22:47			0	38306	0	0	0	21657	20230	161276	27263	1057317	46341	107953	0	0	8225	552919	0	0
2024-10-15 21:23:47			0	38315	0	0	0	21649	20220	161272	27286	1057334	46351	107950	0	0	8226	552595	0	0
2024-10-15 21:24:47			0	38304	0	0	0	21644	20220	161184	27223	1057325	46350	107948	0	0	8225	553029	0	0
2024-10-15 21:25:47			0	38301	0	0	0	21646	20220	161252	27088	1057361	46351	107949	0	0	8225	553147	0	0
2024-10-15 21:26:47			0	38313	0	0	0	21646	20210	161312	27315	1057289	46339	107949	0	0	8226	552704	0	0
2024-10-15 21:27:47			0	38290	0	0	0	21631	20220	161308	27383	1057299	46350	107943	0	0	8225	553582	0	0
2024-10-15 21:28:47			0	38292	0	0	0	21633	20210	161248	27154	1057289	46339	107944	0	0	8225	553533	0	0
2024-10-15 21:29:47			0	38327	0	0	0	21636	20210	161188	27286	1057236	46350	107945	0	0	8227	552152	0	0
2024-10-15 21:30:47			0	38339	0	0	0	21631	20210	161048	27107	1057307	46339	107943	0	0	8227	551678	0	0
2024-10-15 21:31:47			0	38340	0	0	0	21631	20210	161084	26866	1057236	46339	107943	0	0	8228	551639	0	0
2024-10-15 21:32:47			0	38349	0	0	0	21631	20210	161000	27033	1057227	46329	107943	0	0	8228	551284	0	0
2024-10-15 21:33:47			0	38347	0	0	0	21633	20210	161048	27093	1057227	46339	107944	0	0	8228	551363	0	0
2024-10-15 21:34:47			0	38360	0	0	0	21631	20210	161072	27138	1057280	46362	107943	0	0	8229	550851	0	0
2024-10-15 21:35:47			0	38358	0	0	0	21631	20200	160984	26977	1057209	46348	107943	0	0	8229	550960	0	0
2024-10-15 21:36:47			0	38362	0	0	0	21620	20200	161076	27157	1057156	46337	107939	0	0	8229	550803	0	0
2024-10-15 21:37:47			0	38373	0	0	0	21615	20190	160976	26878	1057200	46348	107937	0	0	8230	550400	0	0
2024-10-15 21:38:47			0	38344	0	0	0	21615	20200	160996	27301	1057209	46337	107937	0	0	8228	551512	0	0
2024-10-15 21:39:47			0	38376	0	0	0	21631	20200	161084	27078	1057209	46337	107943	0	0	8230	550251	0	0
2024-10-15 21:40:47			0	38355	0	0	0	21618	20190	160980	27085	1057165	46348	107938	0	0	8229	551109	0	0
2024-10-15 21:41:47			0	38372	0	0	0	21623	20190	161000	26748	1057218	46348	107940	0	0	8229	550439	0	0
2024-10-15 21:42:47			0	38371	0	0	0	21620	20200	160896	27265	1057183	46360	107939	0	0	8229	550448	0	0
2024-10-15 21:43:47			0	38357	0	0	0	21623	20190	161016	27154	1057174	46337	107940	0	0	8229	551030	0	0
2024-10-15 21:44:47			0	38360	0	0	0	21620	20180	160980	26913	1057129	46326	107939	0	0	8229	550942	0	0
2024-10-15 21:45:47			0	38358	0	0	0	21628	20180	161072	27201	1057182	46336	107942	0	0	8228	551021	0	0
2024-10-15 21:46:47			0	38349	0	0	0	21633	20190	161028	26713	1057191	46348	107944	0	0	8228	551345	0	0
2024-10-15 21:47:47			0	38350	0	0	0	21625	20180	161072	27197	1057182	46336	107941	0	0	8228	551336	0	0
2024-10-15 21:48:47			0	38337	0	0	0	21623	20180	161080	27000	1057209	46336	107940	0	0	8227	551849	0	0
2024-10-15 21:49:47			0	38327	0	0	0	21620	20180	161104	26781	1057147	46335	107939	0	0	8227	552243	0	0
2024-10-15 21:50:47			0	38326	0	0	0	21623	20180	161172	26793	1057209	46336	107940	0	0	8227	552283	0	0
2024-10-15 21:51:47			0	38333	0	0	0	21620	20180	161156	27293	1057094	46346	107939	0	0	8227	552006	0	0
2024-10-15 21:52:47			0	38324	0	0	0	21625	20180	161188	27485	1057182	46359	107941	0	0	8227	552361	0	0
2024-10-15 21:53:47			0	38316	0	0	0	21618	20190	161168	26939	1057165	46337	107938	0	0	8226	552647	0	0
2024-10-15 21:54:47			0	38296	0	0	0	21625	20170	161176	27213	1057165	46335	107941	0	0	8225	553497	0	0
2024-10-15 21:55:47			0	38305	0	0	0	21620	20180	161300	26939	1057147	46358	107939	0	0	8226	553111	0	0
2024-10-15 21:56:47			0	38302	0	0	0	21623	20180	161304	26970	1057156	46336	107940	0	0	8225	553230	0	0
2024-10-15 21:57:47			0	38295	0	0	0	21620	20190	161352	26776	1057174	46348	107939	0	0	8225	553476	0	0
2024-10-15 21:58:47			0	38290	0	0	0	21618	20180	161356	27024	1057182	46359	107938	0	0	8225	553704	0	0
2024-10-15 21:59:47			0	38274	0	0	0	21623	20190	161364	26734	1057191	46337	107940	0	0	8224	554306	0	0
2024-10-15 22:00:47			0	38282	0	0	0	21618	20180	161376	27249	1057200	46346	107938	0	0	8224	554020	0	0
2024-10-15 22:01:47			0	38283	0	0	0	21618	20180	161372	27093	1057147	46335	107938	0	0	8224	553981	0	0
2024-10-15 22:02:47			0	38280	0	0	0	21620	20180	161316	27249	1057120	46335	107939	0	0	8224	554099	0	0
2024-10-15 22:03:47			0	38292	0	0	0	21620	20180	161356	26948	1057129	46336	107939	0	0	8225	553625	0	0
2024-10-15 22:04:47			0	38287	0	0	0	21618	20190	161396	26844	1057138	46348	107938	0	0	8225	553792	0	0
2024-10-15 22:05:47			0	38298	0	0	0	21615	20180	161288	26930	1057209	46336	107937	0	0	8225	553388	0	0
2024-10-15 22:06:47			0	38311	0	0	0	21607	20180	161228	26977	1057120	46335	107934	0	0	8226	552875	0	0
2024-10-15 22:07:47			0	38304	0	0	0	21620	20180	161320	26981	1057120	46346	107939	0	0	8225	553151	0	0
2024-10-15 22:08:47			0	38301	0	0	0	21612	20180	161308	27301	1057147	46335	107936	0	0	8225	553269	0	0
2024-10-15 22:09:47			0	38312	0	0	0	21605	20180	161252	26960	1057156	46336	107933	0	0	8226	552835	0	0
2024-10-15 22:10:47			0	38313	0	0	0	21584	20180	161208	27081	1057147	46358	107925	0	0	8227	552796	0	0
2024-10-15 22:11:47			0	38332	0	0	0	21586	20180	161188	27331	1057094	46358	107926	0	0	8228	552046	0	0
2024-10-15 22:12:47			0	38334	0	0	0	21602	20170	161252	27118	1057111	46335	107932	0	0	8227	551997	0	0
2024-10-15 22:13:47			0	38316	0	0	0	21605	20170	161184	27156	1057138	46346	107933	0	0	8226	552708	0	0
2024-10-15 22:14:47			0	38322	0	0	0	21599	20180	161136	27332	1057041	46358	107931	0	0	8227	552440	0	0
2024-10-15 22:15:47			0	38307	0	0	0	21610	20170	161256	27052	1057049	46345	107935	0	0	8226	553063	0	0
2024-10-15 22:16:47			0	38303	0	0	0	21607	20170	161260	27320	1057049	46345	107934	0	0	8226	553221	0	0
2024-10-15 22:17:47			0	38300	0	0	0	21599	20170	161272	27294	1057129	46357	107931	0	0	8226	553340	0	0
2024-10-15 22:18:47			0	38299	0	0	0	21605	20170	161248	27189	1057129	46334	107933	0	0	8225	553379	0	0
2024-10-15 22:19:47			0	38270	0	0	0	21602	20170	161300	27005	1057076	46345	107932	0	0	8224	554525	0	0
2024-10-15 22:20:47			0	38299	0	0	0	21599	20170	161248	26850	1057138	46346	107931	0	0	8225	553379	0	0
2024-10-15 22:21:47			0	38324	0	0	0	21597	20170	161140	27164	1057138	46358	107930	0	0	8227	552392	0	0
2024-10-15 22:22:47			0	38338	0	0	0	21602	20170	161160	27237	1057049	46334	107932	0	0	8228	551840	0	0
2024-10-15 22:23:47			0	38368	0	0	0	21602	20160	161060	27493	1057014	46334	107932	0	0	8229	550688	0	0
2024-10-15 22:24:47			0	38341	0	0	0	21597	20160	161096	27274	1057067	46334	107930	0	0	8228	551752	0	0
2024-10-15 22:25:47			0	38334	0	0	0	21584	20170	161156	27403	1057076	46345	107925	0	0	8228	551997	0	0
2024-10-15 22:26:47			0	38334	0	0	0	21566	20160	161236	26844	1057014	46345	107918	0	0	8228	552028	0	0
2024-10-15 22:27:47			0	38326	0	0	0	21584	20160	161124	26981	1057040	46334	107925	0	0	8227	552344	0	0
2024-10-15 22:28:47			0	38307	0	0	0	21592	20160	161312	26824	1056978	46344	107928	0	0	8226	553094	0	0
2024-10-15 22:29:47			0	38308	0	0	0	21589	20160	161296	26974	1057014	46345	107927	0	0	8226	553054	0	0
2024-10-15 22:30:47			0	38292	0	0	0	21592	20160	161276	27209	1057040	46334	107928	0	0	8225	553686	0	0
2024-10-15 22:31:47			0	38272	0	0	0	21599	20160	161336	27039	1057005	46323	107931	0	0	8224	554477	0	0
2024-10-15 22:32:47			0	38280	0	0	0	21592	20160	161316	27144	1057031	46333	107928	0	0	8224	554160	0	0
2024-10-15 22:33:47			0	38278	0	0	0	21592	20150	161372	27147	1057022	46355	107928	0	0	8224	554270	0	0
2024-10-15 22:34:47			0	38271	0	0	0	21584	20150	161392	26746	1056996	46311	107925	0	0	8224	554547	0	0
2024-10-15 22:35:47			0	38285	0	0	0	21584	20150	161400	26961	1056969	46355	107925	0	0	8225	553993	0	0
2024-10-15 22:36:47			0	38286	0	0	0	21594	20150	161388	26972	1056996	46343	107929	0	0	8225	553954	0	0
2024-10-15 22:37:47			0	38248	0	0	0	21581	20150	161408	26819	1056960	46343	107924	0	0	8223	555457	0	0
2024-10-15 22:38:47			0	38213	0	0	0	21584	20150	161692	27194	1057049	46333	107925	0	0	8221	556844	0	0
2024-10-15 22:39:47			0	38214	0	0	0	21568	20160	161592	27090	1057031	46344	107919	0	0	8221	556774	0	0
2024-10-15 22:40:47			0	38235	0	0	0	21568	20150	161616	26887	1056934	46333	107919	0	0	8222	555972	0	0
2024-10-15 22:41:47			0	38275	0	0	0	21555	20130	161488	26762	1056951	46341	107914	0	0	8225	554450	0	0
2024-10-15 22:42:47			0	38250	0	0	0	21571	20140	161436	27173	1056898	46322	107920	0	0	8223	555409	0	0
2024-10-15 22:43:47			0	38262	0	0	0	21561	20140	161456	27168	1056916	46332	107916	0	0	8224	554934	0	0
2024-10-15 22:44:47			0	38255	0	0	0	21558	20140	161480	26805	1056916	46332	107915	0	0	8223	555211	0	0
2024-10-15 22:45:47			0	38270	0	0	0	21548	20130	161424	27131	1056933	46341	107911	0	0	8224	554648	0	0
2024-10-15 22:46:47			0	38252	0	0	0	21548	20130	161388	26894	1056898	46341	107911	0	0	8223	555360	0	0
2024-10-15 22:47:47			0	38253	0	0	0	21545	20130	161412	26828	1056871	46341	107910	0	0	8224	555321	0	0
2024-10-15 22:48:47			0	38272	0	0	0	21535	20130	161504	26948	1056880	46320	107906	0	0	8225	554569	0	0
2024-10-15 22:49:47			0	38270	0	0	0	21535	20120	161324	27189	1056907	46340	107906	0	0	8225	554678	0	0
2024-10-15 22:50:47			0	38274	0	0	0	21542	20130	161324	27015	1056827	46331	107909	0	0	8225	554490	0	0
2024-10-15 22:51:47			0	38273	0	0	0	21540	20130	161384	27048	1056871	46331	107908	0	0	8225	554529	0	0
2024-10-15 22:52:47			0	38260	0	0	0	21540	20120	161364	27111	1056809	46331	107908	0	0	8224	555074	0	0
2024-10-15 22:53:47			0	38277	0	0	0	21545	20110	161464	26816	1056818	46329	107910	0	0	8225	554432	0	0
2024-10-15 22:54:47			0	38244	0	0	0	21542	20110	161432	27105	1056818	46329	107909	0	0	8223	555738	0	0
2024-10-15 22:55:47			0	38249	0	0	0	21537	20130	161480	27268	1056924	46331	107907	0	0	8223	555479	0	0
2024-10-15 22:56:47			0	38242	0	0	0	21545	20110	161596	26993	1056835	46339	107910	0	0	8223	555817	0	0
2024-10-15 22:57:47			0	38227	0	0	0	21540	20110	161516	27464	1056862	46339	107908	0	0	8222	556412	0	0
2024-10-15 22:58:47			0	38216	0	0	0	21540	20110	161660	27232	1056844	46329	107908	0	0	8221	556848	0	0
2024-10-15 22:59:47			0	38221	0	0	0	21537	20110	161548	27107	1056835	46339	107907	0	0	8222	556650	0	0
2024-10-15 23:00:47			0	38217	0	0	0	21540	20110	161720	27280	1056844	46329	107908	0	0	8221	556808	0	0
2024-10-15 23:01:47			0	38209	0	0	0	21535	20110	161668	26791	1056782	46339	107906	0	0	8221	557126	0	0
2024-10-15 23:02:47			0	38196	0	0	0	21540	20110	161716	27130	1056844	46339	107908	0	0	8220	557642	0	0
2024-10-15 23:03:47			0	38189	0	0	0	21542	20110	161760	27230	1056844	46329	107909	0	0	8220	557920	0	0
2024-10-15 23:04:47			0	38188	0	0	0	21535	20100	161808	26863	1056747	46328	107906	0	0	8220	557990	0	0
2024-10-15 23:05:47			0	38169	0	0	0	21532	20110	161856	26788	1056835	46339	107905	0	0	8219	558714	0	0
2024-10-15 23:06:47			0	38153	0	0	0	21540	20110	161928	27135	1056756	46329	107908	0	0	8218	559350	0	0
2024-10-15 23:07:47			0	38158	0	0	0	21540	20100	161812	27502	1056826	46328	107908	0	0	8218	559182	0	0
2024-10-15 23:08:47			0	38162	0	0	0	21529	20100	161772	27265	1056738	46338	107904	0	0	8218	559023	0	0
2024-10-15 23:09:47			0	38160	0	0	0	21527	20110	161952	27053	1056782	46318	107903	0	0	8218	559072	0	0
2024-10-15 23:10:47			0	38149	0	0	0	21519	20100	161976	26974	1056764	46328	107900	0	0	8218	559540	0	0
2024-10-15 23:11:47			0	38145	0	0	0	21519	20100	161996	27194	1056773	46338	107900	0	0	8217	559699	0	0
2024-10-15 23:12:47			0	38141	0	0	0	21519	20090	162036	27166	1056729	46337	107900	0	0	8217	559889	0	0
2024-10-15 23:13:47			0	38144	0	0	0	21527	20100	161992	27234	1056738	46328	107903	0	0	8217	559739	0	0
2024-10-15 23:14:47			0	38146	0	0	0	21516	20100	161940	26811	1056818	46328	107899	0	0	8218	559660	0	0
2024-10-15 23:15:47			0	38136	0	0	0	21511	20100	161988	26946	1056764	46338	107897	0	0	8217	560057	0	0
2024-10-15 23:16:47			0	38139	0	0	0	21516	20090	162020	27090	1056729	46337	107899	0	0	8217	559969	0	0
2024-10-15 23:17:47			0	38176	0	0	0	21509	20090	161964	27286	1056720	46337	107896	0	0	8219	558498	0	0
2024-10-15 23:18:47			0	38144	0	0	0	21514	20090	161944	27227	1056773	46337	107898	0	0	8217	559770	0	0
2024-10-15 23:19:47			0	38135	0	0	0	21511	20090	162000	27320	1056693	46327	107897	0	0	8217	560128	0	0
2024-10-15 23:20:47			0	38133	0	0	0	21509	20090	161976	27196	1056666	46327	107896	0	0	8217	560208	0	0
2024-10-15 23:21:47			0	38140	0	0	0	21511	20090	162160	27208	1056666	46337	107897	0	0	8217	559929	0	0
2024-10-15 23:22:47			0	38127	0	0	0	21511	20090	162092	27062	1056676	46327	107897	0	0	8217	560447	0	0
2024-10-15 23:23:47			0	38112	0	0	0	21514	20080	162156	27180	1056781	46326	107898	0	0	8216	561075	0	0
2024-10-15 23:24:47			0	38102	0	0	0	21514	20080	162244	27112	1056684	46326	107898	0	0	8215	561474	0	0
2024-10-15 23:25:47			0	38100	0	0	0	21511	20080	162204	27171	1056711	46315	107897	0	0	8215	561554	0	0
2024-10-15 23:26:47			0	38091	0	0	0	21511	20080	162200	27189	1056702	46336	107897	0	0	8214	561913	0	0
2024-10-15 23:27:47			0	38106	0	0	0	21511	20090	162268	27251	1056640	46337	107897	0	0	8215	561283	0	0
2024-10-15 23:28:47			0	38092	0	0	0	21506	20080	162272	27008	1056648	46326	107895	0	0	8214	561873	0	0
2024-10-15 23:29:47			0	38083	0	0	0	21503	20070	162296	26975	1056666	46335	107894	0	0	8214	562263	0	0
2024-10-15 23:30:47			0	38116	0	0	0	21509	20080	162364	26927	1056657	46326	107896	0	0	8216	560916	0	0
2024-10-15 23:31:47			0	38114	0	0	0	21501	20070	162188	27043	1056666	46325	107893	0	0	8216	561026	0	0
2024-10-15 23:32:47			0	38118	0	0	0	21488	20080	162244	26946	1056675	46336	107888	0	0	8216	560836	0	0
2024-10-15 23:33:47			0	38138	0	0	0	21498	20080	162116	27088	1056648	46315	107892	0	0	8217	560040	0	0
2024-10-15 23:34:47			0	38131	0	0	0	21498	20080	162100	26937	1056595	46326	107892	0	0	8217	560318	0	0
2024-10-15 23:35:47			0	38144	0	0	0	21498	20080	162144	27036	1056595	46326	107892	0	0	8218	559801	0	0
2024-10-15 23:36:47			0	38142	0	0	0	21496	20070	162088	27039	1056613	46335	107891	0	0	8218	559911	0	0
2024-10-15 23:37:47			0	38152	0	0	0	21496	20060	162116	27078	1056675	46313	107891	0	0	8218	559544	0	0
2024-10-15 23:38:47			0	38141	0	0	0	21496	20070	162108	27277	1056604	46335	107891	0	0	8217	559951	0	0
2024-10-15 23:39:47			0	38158	0	0	0	21488	20070	162124	26896	1056604	46325	107888	0	0	8219	559275	0	0
2024-10-15 23:40:47			0	38144	0	0	0	21488	20080	162100	27182	1056595	46336	107888	0	0	8218	559801	0	0
2024-10-15 23:41:47			0	38137	0	0	0	21493	20070	162124	26928	1056666	46325	107890	0	0	8217	560110	0	0
2024-10-15 23:42:47			0	38116	0	0	0	21488	20060	162056	27130	1056622	46334	107888	0	0	8216	560978	0	0
2024-10-15 23:43:47			0	38118	0	0	0	21496	20070	162200	27010	1056551	46335	107891	0	0	8216	560867	0	0
2024-10-15 23:44:47			0	38132	0	0	0	21488	20070	162136	26909	1056604	46325	107888	0	0	8217	560310	0	0
2024-10-15 23:45:47			0	38104	0	0	0	21485	20070	162184	27093	1056604	46335	107887	0	0	8216	561425	0	0
2024-10-15 23:46:47			0	38095	0	0	0	21477	20050	162184	27182	1056515	46322	107884	0	0	8215	561846	0	0
2024-10-15 23:47:47			0	38101	0	0	0	21490	20050	162252	27142	1056551	46323	107889	0	0	8215	561607	0	0
2024-10-15 23:48:47			0	38096	0	0	0	21485	20060	162200	27059	1056560	46333	107887	0	0	8215	561775	0	0
2024-10-15 23:49:47			0	38077	0	0	0	21493	20040	162232	27177	1056480	46333	107890	0	0	8214	562595	0	0
2024-10-15 23:50:47			0	38074	0	0	0	21488	20060	162268	26854	1056542	46334	107888	0	0	8214	562653	0	0
2024-10-15 23:51:47			0	38069	0	0	0	21488	20060	162332	27123	1056533	46323	107888	0	0	8213	562853	0	0
2024-10-15 23:52:47			0	38083	0	0	0	21480	20050	162292	27095	1056551	46333	107885	0	0	8214	562325	0	0
2024-10-15 23:53:47			0	38074	0	0	0	21485	20050	162260	27265	1056568	46333	107887	0	0	8214	562684	0	0
2024-10-15 23:54:47			0	38090	0	0	0	21477	20040	162152	27355	1056559	46333	107884	0	0	8215	562076	0	0
2024-10-15 23:55:47			0	38110	0	0	0	21470	20050	162144	27052	1056497	46323	107881	0	0	8216	561248	0	0
2024-10-15 23:56:47			0	38117	0	0	0	21472	20050	162124	27218	1056497	46333	107882	0	0	8216	560969	0	0
2024-10-15 23:57:47			0	38118	0	0	0	21472	20050	162000	26889	1056542	46343	107882	0	0	8216	560929	0	0
2024-10-15 23:58:47			0	38121	0	0	0	21483	20050	162064	27062	1056568	46322	107886	0	0	8216	560810	0	0
2024-10-15 23:59:47			0	38122	0	0	0	21472	20050	162028	26831	1056488	46333	107882	0	0	8217	560770	0	0
2024-10-16 00:00:47			0	38125	0	0	0	21477	20050	162108	26932	1056542	46333	107884	0	0	8217	560650	0	0
2024-10-16 00:01:47			0	38121	0	0	0	21477	20050	162136	27170	1056515	46333	107884	0	0	8217	560810	0	0
2024-10-16 00:02:47			0	38104	0	0	0	21488	20050	162128	27213	1056551	46323	107888	0	0	8215	561487	0	0
2024-10-16 00:03:47			0	38113	0	0	0	21480	20050	162084	27246	1056551	46323	107885	0	0	8216	561128	0	0
2024-10-16 00:04:47			0	38132	0	0	0	21483	20040	161964	27114	1056533	46322	107886	0	0	8217	560402	0	0
2024-10-16 00:05:47			0	38153	0	0	0	21475	20050	162004	27111	1056488	46322	107883	0	0	8218	559535	0	0
2024-10-16 00:06:47			0	38167	0	0	0	21485	20040	161940	27041	1056533	46333	107887	0	0	8219	559009	0	0
2024-10-16 00:07:47			0	38144	0	0	0	21475	20040	161940	27516	1056506	46322	107883	0	0	8218	559924	0	0
2024-10-16 00:08:47			0	38148	0	0	0	21475	20040	162040	27182	1056506	46322	107883	0	0	8218	559765	0	0
2024-10-16 00:09:47			0	38132	0	0	0	21480	20050	162052	27128	1056515	46322	107885	0	0	8217	560371	0	0
2024-10-16 00:10:47			0	38132	0	0	0	21475	20050	161964	27393	1056542	46333	107883	0	0	8217	560371	0	0
2024-10-16 00:11:47			0	38134	0	0	0	21480	20050	162032	27041	1056462	46322	107885	0	0	8217	560292	0	0
2024-10-16 00:12:47			0	38136	0	0	0	21464	20050	162084	27391	1056462	46333	107879	0	0	8218	560212	0	0
2024-10-16 00:13:47			0	38115	0	0	0	21472	20040	162100	26974	1056506	46311	107882	0	0	8216	561079	0	0
2024-10-16 00:14:47			0	38134	0	0	0	21464	20040	162132	27147	1056506	46333	107879	0	0	8217	560323	0	0
2024-10-16 00:15:47			0	38117	0	0	0	21475	20040	162108	26897	1056559	46322	107883	0	0	8216	561000	0	0
2024-10-16 00:16:47			0	38118	0	0	0	21467	20040	162272	27296	1056524	46332	107880	0	0	8216	560960	0	0
2024-10-16 00:17:47			0	38113	0	0	0	21464	20040	162184	27216	1056480	46333	107879	0	0	8216	561159	0	0
2024-10-16 00:18:47			0	38106	0	0	0	21470	20050	162152	27230	1056515	46343	107881	0	0	8216	561407	0	0
2024-10-16 00:19:47			0	38126	0	0	0	21467	20040	162228	27237	1056444	46321	107880	0	0	8217	560641	0	0
2024-10-16 00:20:47			0	38101	0	0	0	21472	20040	162212	27062	1056480	46343	107882	0	0	8215	561637	0	0
2024-10-16 00:21:47			0	38101	0	0	0	21464	20040	162284	27055	1056497	46332	107879	0	0	8216	561637	0	0
2024-10-16 00:22:47			0	38097	0	0	0	21464	20050	162312	27123	1056488	46333	107879	0	0	8215	561766	0	0
2024-10-16 00:23:47			0	38087	0	0	0	21467	20030	162316	27765	1056462	46321	107880	0	0	8215	562227	0	0
2024-10-16 00:24:47			0	38081	0	0	0	21472	20030	162364	27114	1056488	46321	107882	0	0	8214	562467	0	0
2024-10-16 00:25:47			0	38073	0	0	0	21462	20040	162324	27460	1056506	46343	107878	0	0	8214	562755	0	0
2024-10-16 00:26:47			0	38052	0	0	0	21467	20040	162420	27211	1056453	46333	107880	0	0	8213	563594	0	0
2024-10-16 00:27:47			0	38042	0	0	0	21457	20040	162460	27403	1056444	46332	107876	0	0	8212	563994	0	0
2024-10-16 00:28:47			0	38049	0	0	0	21462	20030	162508	27154	1056462	46321	107878	0	0	8212	563745	0	0
2024-10-16 00:29:47			0	38031	0	0	0	21459	20030	162500	27386	1056488	46321	107877	0	0	8211	564465	0	0
2024-10-16 00:30:47			0	38019	0	0	0	21459	20040	162611	27272	1056506	46333	107877	0	0	8211	564914	0	0
2024-10-16 00:31:47			0	38019	0	0	0	21459	20030	162679	27059	1056488	46321	107877	0	0	8211	564945	0	0
2024-10-16 00:32:47			0	38015	0	0	0	21457	20030	162683	27235	1056408	46321	107876	0	0	8211	565105	0	0
2024-10-16 00:33:47			0	38002	0	0	0	21459	20030	162607	26845	1056453	46331	107877	0	0	8210	565626	0	0
2024-10-16 00:34:47			0	38047	0	0	0	21462	20020	162492	27274	1056417	46320	107878	0	0	8212	563856	0	0
2024-10-16 00:35:47			0	38067	0	0	0	21462	20020	162344	26935	1056391	46331	107878	0	0	8213	563057	0	0
2024-10-16 00:36:47			0	38082	0	0	0	21462	20030	162380	27360	1056488	46332	107878	0	0	8214	562427	0	0
2024-10-16 00:37:47			0	38080	0	0	0	21454	20040	162372	27085	1056444	46332	107875	0	0	8214	562475	0	0
2024-10-16 00:38:47			0	38120	0	0	0	21462	20030	162288	26845	1056453	46331	107878	0	0	8217	560911	0	0
2024-10-16 00:39:47			0	38119	0	0	0	21462	20030	162180	27312	1056426	46320	107878	0	0	8217	560951	0	0
2024-10-16 00:40:47			0	38122	0	0	0	21454	20040	162200	27216	1056497	46321	107875	0	0	8217	560800	0	0
2024-10-16 00:41:47			0	38124	0	0	0	21444	20030	162140	27010	1056453	46331	107871	0	0	8217	560752	0	0
2024-10-16 00:42:47			0	38134	0	0	0	21454	20020	162208	27062	1056444	46309	107875	0	0	8218	560384	0	0
2024-10-16 00:43:47			0	38136	0	0	0	21464	20020	162148	27180	1056461	46319	107879	0	0	8218	560305	0	0
2024-10-16 00:44:47			0	38129	0	0	0	21462	20020	162072	27199	1056470	46331	107878	0	0	8217	560583	0	0
2024-10-16 00:45:47			0	38094	0	0	0	21462	20030	162196	27211	1056426	46331	107878	0	0	8215	561948	0	0
2024-10-16 00:46:47			0	38099	0	0	0	21467	20020	162240	27079	1056391	46341	107880	0	0	8215	561779	0	0
2024-10-16 00:47:47			0	38097	0	0	0	21457	20020	162264	26786	1056417	46320	107876	0	0	8215	561859	0	0
2024-10-16 00:48:47			0	38076	0	0	0	21451	20020	162308	26805	1056444	46320	107874	0	0	8214	562697	0	0
2024-10-16 00:49:47			0	38071	0	0	0	21446	20020	162336	27159	1056435	46330	107872	0	0	8214	562897	0	0
2024-10-16 00:50:47			0	38074	0	0	0	21444	20030	162296	27331	1056453	46320	107871	0	0	8214	562746	0	0
2024-10-16 00:51:47			0	38089	0	0	0	21451	20020	162292	26963	1056391	46331	107874	0	0	8215	562178	0	0
2024-10-16 00:52:47			0	38098	0	0	0	21451	20020	162348	27052	1056417	46331	107874	0	0	8215	561819	0	0
2024-10-16 00:53:47			0	38088	0	0	0	21454	20030	162388	27001	1056382	46332	107875	0	0	8215	562187	0	0
2024-10-16 00:54:47			0	38054	0	0	0	21449	20020	162328	27105	1056417	46320	107873	0	0	8213	563576	0	0
2024-10-16 00:55:47			0	38081	0	0	0	21454	20030	162288	27185	1056399	46320	107875	0	0	8214	562467	0	0
2024-10-16 00:56:47			0	38084	0	0	0	21459	20010	162324	26994	1056373	46319	107877	0	0	8214	562409	0	0
2024-10-16 00:57:47			0	38088	0	0	0	21451	20020	162284	27365	1056382	46340	107874	0	0	8215	562218	0	0
2024-10-16 00:58:47			0	38085	0	0	0	21446	20030	162332	27535	1056399	46320	107872	0	0	8215	562307	0	0
2024-10-16 00:59:47			0	38106	0	0	0	21441	20020	162192	27298	1056470	46309	107870	0	0	8216	561500	0	0
2024-10-16 01:00:47			0	38094	0	0	0	21449	20020	162224	27088	1056435	46308	107873	0	0	8215	561979	0	0
2024-10-16 01:01:47			0	38106	0	0	0	21449	20020	162284	27031	1056435	46340	107873	0	0	8216	561500	0	0
2024-10-16 01:02:47			0	38088	0	0	0	21449	20000	162304	27170	1056381	46318	107873	0	0	8215	562280	0	0
2024-10-16 01:03:47			0	38079	0	0	0	21451	20020	162312	26934	1056382	46330	107874	0	0	8214	562577	0	0
2024-10-16 01:04:47			0	38060	0	0	0	21449	20010	162336	27112	1056426	46319	107873	0	0	8213	563367	0	0
2024-10-16 01:05:47			0	38056	0	0	0	21431	20010	162372	26890	1056373	46330	107866	0	0	8213	563527	0	0
2024-10-16 01:06:47			0	38057	0	0	0	21433	20010	162356	26970	1056373	46330	107867	0	0	8213	563487	0	0
2024-10-16 01:07:47			0	38051	0	0	0	21436	20000	162460	26838	1056435	46329	107868	0	0	8213	563758	0	0
2024-10-16 01:08:47			0	38035	0	0	0	21441	20010	162440	26785	1056337	46318	107870	0	0	8212	564367	0	0
2024-10-16 01:09:47			0	38046	0	0	0	21449	20010	162516	27062	1056311	46307	107873	0	0	8212	563927	0	0
2024-10-16 01:10:47			0	38038	0	0	0	21446	20010	162604	27237	1056319	46319	107872	0	0	8212	564247	0	0
2024-10-16 01:11:47			0	38043	0	0	0	21444	20010	162540	27133	1056364	46318	107871	0	0	8212	564047	0	0
2024-10-16 01:12:47			0	38023	0	0	0	21446	20020	162531	27372	1056355	46319	107872	0	0	8211	564816	0	0
2024-10-16 01:13:47			0	38014	0	0	0	21441	20010	162587	27081	1056311	46318	107870	0	0	8211	565207	0	0
2024-10-16 01:14:47			0	38017	0	0	0	21444	20000	162579	27055	1056355	46318	107871	0	0	8211	565118	0	0
2024-10-16 01:15:47			0	38004	0	0	0	21451	20010	162591	27048	1056346	46319	107874	0	0	8210	565608	0	0
2024-10-16 01:16:47			0	37993	0	0	0	21451	20010	162643	27145	1056311	46339	107874	0	0	8209	566049	0	0
2024-10-16 01:17:47			0	38009	0	0	0	21457	20020	162611	27445	1056382	46330	107876	0	0	8210	565376	0	0
2024-10-16 01:18:47			0	37999	0	0	0	21454	20010	162651	27308	1056346	46319	107875	0	0	8210	565808	0	0
2024-10-16 01:19:47			0	38014	0	0	0	21464	20010	162659	26837	1056373	46330	107879	0	0	8210	565207	0	0
2024-10-16 01:20:47			0	37990	0	0	0	21457	20010	162691	27431	1056373	46340	107876	0	0	8209	566169	0	0
2024-10-16 01:21:47			0	37984	0	0	0	21451	20020	162635	27059	1056417	46331	107874	0	0	8209	566378	0	0
2024-10-16 01:22:47			0	37978	0	0	0	21446	20020	162635	27164	1056470	46331	107872	0	0	8209	566619	0	0
2024-10-16 01:23:47			0	37990	0	0	0	21446	20020	162679	27180	1056382	46319	107872	0	0	8209	566138	0	0
2024-10-16 01:24:47			0	37980	0	0	0	21438	20020	162599	26925	1056382	46330	107869	0	0	8209	566539	0	0
2024-10-16 01:25:47			0	38000	0	0	0	21441	20010	162647	27045	1056399	46319	107870	0	0	8210	565768	0	0
2024-10-16 01:26:47			0	37979	0	0	0	21441	20020	162695	26942	1056382	46319	107870	0	0	8209	566579	0	0
2024-10-16 01:27:47			0	37968	0	0	0	21457	20010	162819	27078	1056373	46330	107876	0	0	8208	567051	0	0
2024-10-16 01:28:47			0	37951	0	0	0	21462	20020	162743	27310	1056364	46320	107878	0	0	8207	567702	0	0
2024-10-16 01:29:47			0	37961	0	0	0	21449	20020	162795	26781	1056382	46319	107873	0	0	8207	567301	0	0
2024-10-16 01:30:47			0	37971	0	0	0	21441	20010	162823	27039	1056373	46330	107870	0	0	8208	566931	0	0
2024-10-16 01:31:47			0	37969	0	0	0	21436	20020	162743	27289	1056337	46331	107868	0	0	8208	566980	0	0
2024-10-16 01:32:47			0	37981	0	0	0	21436	20010	162739	26896	1056346	46352	107868	0	0	8209	566530	0	0
2024-10-16 01:33:47			0	37969	0	0	0	21420	20010	162779	26811	1056311	46307	107862	0	0	8208	567011	0	0
2024-10-16 01:34:47			0	37966	0	0	0	21415	20000	162671	26904	1056328	46329	107860	0	0	8208	567163	0	0
2024-10-16 01:35:47			0	37964	0	0	0	21415	20000	162787	27161	1056319	46317	107860	0	0	8208	567243	0	0
2024-10-16 01:36:47			0	37966	0	0	0	21423	20000	162739	27121	1056319	46328	107863	0	0	8208	567163	0	0
2024-10-16 01:37:47			0	37946	0	0	0	21428	20010	162655	26800	1056346	46319	107865	0	0	8207	567934	0	0
2024-10-16 01:38:47			0	37976	0	0	0	21420	20000	162791	26831	1056355	46329	107862	0	0	8209	566761	0	0
2024-10-16 01:39:47			0	37963	0	0	0	21407	19990	162759	26821	1056204	46316	107857	0	0	8208	567314	0	0
2024-10-16 01:40:47			0	37949	0	0	0	21394	19990	162835	27104	1056284	46305	107852	0	0	8208	567876	0	0
2024-10-16 01:41:47			0	37960	0	0	0	21407	19990	162863	26764	1056231	46305	107857	0	0	8208	567435	0	0
2024-10-16 01:42:47			0	37971	0	0	0	21428	19980	162691	26906	1056213	46327	107865	0	0	8208	567025	0	0
2024-10-16 01:43:47			0	37991	0	0	0	21444	19980	162655	27092	1056266	46316	107871	0	0	8209	566222	0	0
2024-10-16 01:44:47			0	38000	0	0	0	21472	19990	162651	26918	1056222	46305	107882	0	0	8209	565831	0	0
2024-10-16 01:45:47			0	38005	0	0	0	21480	19990	162595	27119	1056222	46327	107885	0	0	8209	565630	0	0
2024-10-16 01:46:47			0	38012	0	0	0	21498	19990	162547	27303	1056301	46316	107892	0	0	8210	565350	0	0
2024-10-16 01:47:47			0	38010	0	0	0	21506	19990	162535	27201	1056363	46337	107895	0	0	8209	565430	0	0
2024-10-16 01:48:47			0	38006	0	0	0	21511	19990	162575	27045	1056310	46337	107897	0	0	8209	565590	0	0
2024-10-16 01:49:47			0	38013	0	0	0	21498	20010	162483	27124	1056390	46339	107892	0	0	8210	565247	0	0
2024-10-16 01:50:47			0	38023	0	0	0	21514	20010	162567	27255	1056426	46340	107898	0	0	8210	564847	0	0
2024-10-16 01:51:47			0	38005	0	0	0	21516	20010	162487	27140	1056399	46352	107899	0	0	8209	565568	0	0
2024-10-16 01:52:47			0	38020	0	0	0	21516	20010	162543	26882	1056426	46340	107899	0	0	8210	564967	0	0
2024-10-16 01:53:47			0	38017	0	0	0	21516	20020	162615	27130	1056514	46352	107899	0	0	8210	565056	0	0
2024-10-16 01:54:47			0	38007	0	0	0	21522	20020	162491	27324	1056523	46341	107901	0	0	8209	565457	0	0
2024-10-16 01:55:47			0	38016	0	0	0	21524	20040	162443	26889	1056559	46333	107902	0	0	8210	565034	0	0
2024-10-16 01:56:47			0	37997	0	0	0	21514	20040	162543	27312	1056533	46355	107898	0	0	8209	565795	0	0
2024-10-16 01:57:47			0	37993	0	0	0	21524	20030	162623	27173	1056621	46332	107902	0	0	8208	565986	0	0
2024-10-16 01:58:47			0	37949	0	0	0	21524	20040	162787	27020	1056657	46342	107902	0	0	8206	567720	0	0
2024-10-16 01:59:47			0	37936	0	0	0	21532	20060	162723	27119	1056666	46344	107905	0	0	8205	568179	0	0
2024-10-16 02:00:47			0	37941	0	0	0	21522	20050	162863	27048	1056648	46343	107901	0	0	8205	568010	0	0
2024-10-16 02:01:47			0	37919	0	0	0	21535	20060	162963	26915	1056746	46344	107906	0	0	8204	568863	0	0
2024-10-16 02:02:47			0	37923	0	0	0	21537	20060	162819	27020	1056701	46334	107907	0	0	8204	568702	0	0
2024-10-16 02:03:47			0	37916	0	0	0	21537	20070	162879	27157	1056684	46346	107907	0	0	8204	568952	0	0
2024-10-16 02:04:47			0	37922	0	0	0	21522	20070	162819	26765	1056657	46325	107901	0	0	8204	568710	0	0
2024-10-16 02:05:47			0	37923	0	0	0	21498	20060	162839	27242	1056622	46324	107892	0	0	8205	568702	0	0
2024-10-16 02:06:47			0	37911	0	0	0	21511	20060	162815	27005	1056648	46334	107897	0	0	8204	569184	0	0
2024-10-16 02:07:47			0	37923	0	0	0	21511	20060	162799	27197	1056595	46334	107897	0	0	8204	568702	0	0
2024-10-16 02:08:47			0	37975	0	0	0	21527	20050	162691	27336	1056630	46323	107903	0	0	8207	566645	0	0
2024-10-16 02:09:47			0	37964	0	0	0	21527	20060	162711	27338	1056639	46344	107903	0	0	8207	567055	0	0
2024-10-16 02:10:47			0	37993	0	0	0	21529	20050	162603	26953	1056604	46344	107904	0	0	8208	565924	0	0
2024-10-16 02:11:47			0	38000	0	0	0	21524	20060	162571	26991	1056639	46333	107902	0	0	8209	565612	0	0
2024-10-16 02:12:47			0	37995	0	0	0	21529	20060	162619	27270	1056666	46333	107904	0	0	8208	565812	0	0
2024-10-16 02:13:47			0	38011	0	0	0	21514	20070	162615	27190	1056710	46346	107898	0	0	8210	565140	0	0
2024-10-16 02:14:47			0	38021	0	0	0	21529	20070	162472	27000	1056684	46335	107904	0	0	8210	564740	0	0
2024-10-16 02:15:47			0	37993	0	0	0	21527	20070	162515	27083	1056684	46325	107903	0	0	8208	565861	0	0
2024-10-16 02:16:47			0	38000	0	0	0	21522	20070	162567	27010	1056693	46346	107901	0	0	8209	565581	0	0
2024-10-16 02:17:47			0	38016	0	0	0	21522	20060	162543	26798	1056622	46357	107901	0	0	8210	564972	0	0
2024-10-16 02:18:47			0	38008	0	0	0	21524	20070	162459	27171	1056746	46335	107902	0	0	8209	565261	0	0
2024-10-16 02:19:47			0	38026	0	0	0	21519	20080	162367	27220	1056675	46336	107900	0	0	8210	564509	0	0
2024-10-16 02:20:47			0	38006	0	0	0	21522	20070	162467	27076	1056746	46314	107901	0	0	8209	565341	0	0
2024-10-16 02:21:47			0	38015	0	0	0	21532	20080	162479	27095	1056702	46315	107905	0	0	8210	564949	0	0
2024-10-16 02:22:47			0	38030	0	0	0	21532	20080	162392	27445	1056702	46336	107905	0	0	8210	564349	0	0
2024-10-16 02:23:47			0	38022	0	0	0	21524	20080	162431	27549	1056702	46336	107902	0	0	8210	564669	0	0
2024-10-16 02:24:47			0	38033	0	0	0	21524	20080	162375	27038	1056755	46336	107902	0	0	8211	564229	0	0
2024-10-16 02:25:47			0	38028	0	0	0	21501	20080	162319	27277	1056702	46315	107893	0	0	8211	564429	0	0
2024-10-16 02:26:47			0	38020	0	0	0	21470	20070	162351	27334	1056684	46325	107881	0	0	8211	564780	0	0
2024-10-16 02:27:47			0	38001	0	0	0	21454	20060	162403	27182	1056568	46313	107875	0	0	8210	565572	0	0
2024-10-16 02:28:47			0	37986	0	0	0	21436	20060	162571	27241	1056639	46301	107868	0	0	8209	566173	0	0
2024-10-16 02:29:47			0	37969	0	0	0	21407	20050	162639	27081	1056435	46311	107857	0	0	8209	566886	0	0
2024-10-16 02:30:47			0	37927	0	0	0	21410	20040	162871	27248	1056471	46310	107858	0	0	8206	568604	0	0
2024-10-16 02:31:47			0	37895	0	0	0	21407	20030	162871	27145	1056382	46299	107857	0	0	8204	569922	0	0
2024-10-16 02:32:47			0	37880	0	0	0	21392	20030	163047	26783	1056355	46321	107851	0	0	8204	570526	0	0
2024-10-16 02:33:47			0	37880	0	0	0	21381	20030	163087	27414	1056320	46309	107847	0	0	8204	570526	0	0
2024-10-16 02:34:47			0	37865	0	0	0	21379	20020	163035	27353	1056302	46308	107846	0	0	8203	571162	0	0
2024-10-16 02:35:47			0	37842	0	0	0	21389	20010	163167	27055	1056240	46308	107850	0	0	8201	572121	0	0
2024-10-16 02:36:47			0	37844	0	0	0	21386	20010	163103	27235	1056284	46318	107849	0	0	8202	572040	0	0
2024-10-16 02:37:47			0	37844	0	0	0	21384	20000	163147	27258	1056195	46318	107848	0	0	8202	572072	0	0
2024-10-16 02:38:47			0	37862	0	0	0	21394	20000	163139	26771	1056248	46296	107852	0	0	8202	571346	0	0
2024-10-16 02:39:47			0	37868	0	0	0	21384	20000	163235	27086	1056275	46307	107848	0	0	8203	571104	0	0
2024-10-16 02:40:47			0	37863	0	0	0	21381	20000	163115	27462	1056195	46329	107847	0	0	8203	571306	0	0
2024-10-16 02:41:47			0	37869	0	0	0	21374	19990	163083	27244	1056222	46316	107844	0	0	8203	571095	0	0
2024-10-16 02:42:47			0	37870	0	0	0	21366	19980	163131	27189	1056159	46316	107841	0	0	8203	571086	0	0
2024-10-16 02:43:47			0	37864	0	0	0	21355	19980	163151	27005	1056159	46305	107837	0	0	8203	571328	0	0
2024-10-16 02:44:47			0	37859	0	0	0	21363	19960	163247	27107	1056123	46313	107840	0	0	8203	571593	0	0
2024-10-16 02:45:47			0	37813	0	0	0	21363	19960	163271	27215	1056123	46324	107840	0	0	8200	573450	0	0
2024-10-16 02:46:47			0	37820	0	0	0	21371	19970	163383	27064	1056132	46314	107843	0	0	8200	573136	0	0
2024-10-16 02:47:47			0	37825	0	0	0	21379	19970	163267	27005	1056106	46314	107846	0	0	8200	572934	0	0
2024-10-16 02:48:47			0	37822	0	0	0	21376	19950	163287	26760	1056088	46324	107845	0	0	8200	573118	0	0
2024-10-16 02:49:47			0	37828	0	0	0	21381	19950	163183	27227	1056088	46313	107847	0	0	8200	572876	0	0
2024-10-16 02:50:47			0	37860	0	0	0	21379	19970	163115	26948	1056079	46314	107846	0	0	8202	571521	0	0
2024-10-16 02:51:47			0	37853	0	0	0	21381	19950	163207	27128	1056079	46323	107847	0	0	8202	571866	0	0
2024-10-16 02:52:47			0	37860	0	0	0	21381	19950	163171	27386	1056079	46323	107847	0	0	8202	571584	0	0
2024-10-16 02:53:47			0	37851	0	0	0	21381	19950	163159	26908	1056079	46333	107847	0	0	8202	571947	0	0
2024-10-16 02:54:47			0	37865	0	0	0	21386	19950	163195	27039	1056132	46333	107849	0	0	8203	571382	0	0
2024-10-16 02:55:47			0	37866	0	0	0	21379	19950	163147	27133	1056105	46323	107846	0	0	8203	571342	0	0
2024-10-16 02:56:47			0	37876	0	0	0	21376	19950	163083	26906	1056114	46313	107845	0	0	8203	570939	0	0
2024-10-16 02:57:47			0	37910	0	0	0	21376	19950	163015	27256	1056105	46312	107845	0	0	8205	569570	0	0
2024-10-16 02:58:47			0	37896	0	0	0	21379	19940	162983	27010	1056070	46312	107846	0	0	8204	570165	0	0
2024-10-16 02:59:47			0	37897	0	0	0	21371	19950	162975	26979	1056114	46334	107843	0	0	8205	570093	0	0
2024-10-16 03:00:47			0	37907	0	0	0	21374	19950	162847	27171	1056079	46323	107844	0	0	8205	569690	0	0
2024-10-16 03:01:47			0	37925	0	0	0	21379	19950	162879	26890	1056079	46323	107846	0	0	8206	568966	0	0
2024-10-16 03:02:47			0	37929	0	0	0	21371	19940	162927	27170	1056034	46322	107843	0	0	8207	568837	0	0
2024-10-16 03:03:47			0	37912	0	0	0	21363	19940	163007	27100	1056070	46323	107840	0	0	8206	569521	0	0
2024-10-16 03:04:47			0	37902	0	0	0	21368	19950	162923	27173	1056052	46323	107842	0	0	8205	569892	0	0
2024-10-16 03:05:47			0	37911	0	0	0	21371	19950	162975	27142	1056052	46312	107843	0	0	8206	569530	0	0
2024-10-16 03:06:47			0	37908	0	0	0	21363	19940	163063	26953	1056008	46322	107840	0	0	8205	569682	0	0
2024-10-16 03:07:47			0	37903	0	0	0	21361	19930	162979	26935	1056025	46311	107839	0	0	8205	569914	0	0
2024-10-16 03:08:47			0	37897	0	0	0	21355	19930	163063	27147	1056052	46322	107837	0	0	8205	570156	0	0
2024-10-16 03:09:47			0	37913	0	0	0	21363	19940	163039	27053	1056034	46322	107840	0	0	8206	569480	0	0
2024-10-16 03:10:47			0	37912	0	0	0	21361	19940	162967	27254	1055981	46311	107839	0	0	8206	569521	0	0
2024-10-16 03:11:47			0	37892	0	0	0	21355	19930	163039	27074	1056052	46311	107837	0	0	8205	570357	0	0
2024-10-16 03:12:47			0	37904	0	0	0	21358	19940	163047	27258	1055981	46322	107838	0	0	8205	569843	0	0
2024-10-16 03:13:47			0	37908	0	0	0	21361	19940	163199	27345	1056008	46322	107839	0	0	8205	569682	0	0
2024-10-16 03:14:47			0	37897	0	0	0	21355	19930	163127	27138	1055999	46333	107837	0	0	8205	570156	0	0
2024-10-16 03:15:47			0	37877	0	0	0	21361	19930	163167	27097	1055937	46310	107839	0	0	8204	570962	0	0
2024-10-16 03:16:47			0	37874	0	0	0	21361	19920	163231	27376	1056008	46320	107839	0	0	8203	571114	0	0
2024-10-16 03:17:47			0	37843	0	0	0	21358	19930	163179	27123	1055963	46321	107838	0	0	8202	572333	0	0
2024-10-16 03:18:47			0	37864	0	0	0	21345	19920	163211	27177	1055972	46309	107833	0	0	8203	571517	0	0
2024-10-16 03:19:47			0	37845	0	0	0	21345	19930	163271	27305	1055990	46310	107833	0	0	8202	572252	0	0
2024-10-16 03:20:47			0	37881	0	0	0	21342	19920	163211	27067	1055919	46309	107832	0	0	8204	570832	0	0
2024-10-16 03:21:47			0	37868	0	0	0	21329	19920	163311	26769	1055928	46331	107827	0	0	8204	571356	0	0
2024-10-16 03:22:47			0	37845	0	0	0	21329	19920	163259	26632	1055945	46298	107827	0	0	8202	572284	0	0
2024-10-16 03:23:47			0	37854	0	0	0	21332	19920	163327	26967	1055928	46320	107828	0	0	8203	571921	0	0
2024-10-16 03:24:47			0	37863	0	0	0	21329	19910	163167	26880	1055874	46319	107827	0	0	8203	571589	0	0
2024-10-16 03:25:47			0	37861	0	0	0	21329	19920	163223	26937	1055839	46331	107827	0	0	8203	571638	0	0
2024-10-16 03:26:47			0	37854	0	0	0	21332	19920	163259	27020	1055928	46309	107828	0	0	8203	571921	0	0
2024-10-16 03:27:47			0	37856	0	0	0	21335	19900	163199	27230	1055945	46307	107829	0	0	8203	571903	0	0
2024-10-16 03:28:47			0	37834	0	0	0	21340	19910	163187	26984	1055901	46330	107831	0	0	8201	572760	0	0
2024-10-16 03:29:47			0	37837	0	0	0	21340	19900	163247	27171	1055910	46329	107831	0	0	8201	572670	0	0
2024-10-16 03:30:47			0	37820	0	0	0	21337	19900	163423	26882	1055892	46307	107830	0	0	8200	573357	0	0
2024-10-16 03:31:47			0	37829	0	0	0	21340	19910	163459	27027	1055901	46308	107831	0	0	8201	572962	0	0
2024-10-16 03:32:47			0	37811	0	0	0	21324	19910	163515	27164	1055901	46319	107825	0	0	8200	573689	0	0
2024-10-16 03:33:47			0	37795	0	0	0	21322	19910	163499	26791	1055874	46330	107824	0	0	8199	574336	0	0
2024-10-16 03:34:47			0	37804	0	0	0	21316	19900	163531	27206	1055883	46318	107822	0	0	8200	574004	0	0
2024-10-16 03:35:47			0	37787	0	0	0	21303	19900	163587	27270	1055830	46307	107817	0	0	8199	574691	0	0
2024-10-16 03:36:47			0	37833	0	0	0	21296	19900	163391	27050	1055830	46307	107814	0	0	8202	572831	0	0
2024-10-16 03:37:47			0	37891	0	0	0	21296	19890	163139	27201	1055768	46318	107814	0	0	8205	570523	0	0
2024-10-16 03:38:47			0	37931	0	0	0	21288	19890	162959	26894	1055785	46295	107811	0	0	8208	568913	0	0
2024-10-16 03:39:47			0	37950	0	0	0	21288	19880	162923	27072	1055714	46305	107811	0	0	8209	568181	0	0
2024-10-16 03:40:47			0	37963	0	0	0	21293	19890	162759	26857	1055706	46317	107813	0	0	8210	567627	0	0
2024-10-16 03:41:47			0	38001	0	0	0	21285	19880	162747	26949	1055697	46316	107810	0	0	8212	566134	0	0
2024-10-16 03:42:47			0	38030	0	0	0	21285	19870	162512	27410	1055732	46316	107810	0	0	8214	565003	0	0
2024-10-16 03:43:47			0	38062	0	0	0	21283	19870	162444	27313	1055670	46315	107809	0	0	8216	563722	0	0
2024-10-16 03:44:47			0	38116	0	0	0	21277	19870	162232	26807	1055732	46305	107807	0	0	8219	561566	0	0
2024-10-16 03:45:47			0	38149	0	0	0	21285	19870	162176	27326	1055723	46315	107810	0	0	8221	560250	0	0
2024-10-16 03:46:47			0	38179	0	0	0	21303	19870	161948	27436	1055696	46304	107817	0	0	8222	559056	0	0
2024-10-16 03:47:47			0	38232	0	0	0	21309	19870	161784	27336	1055670	46304	107819	0	0	8225	556950	0	0
2024-10-16 03:48:47			0	38255	0	0	0	21309	19870	161648	27164	1055750	46304	107819	0	0	8226	556038	0	0
2024-10-16 03:49:47			0	38279	0	0	0	21306	19870	161624	27052	1055750	46315	107818	0	0	8228	555087	0	0
2024-10-16 03:50:47			0	38297	0	0	0	21306	19860	161460	27118	1055679	46313	107818	0	0	8229	554405	0	0
2024-10-16 03:51:47			0	38309	0	0	0	21306	19870	161488	27447	1055750	46326	107818	0	0	8230	553900	0	0
2024-10-16 03:52:47			0	38305	0	0	0	21309	19870	161424	27350	1055785	46316	107819	0	0	8229	554058	0	0
2024-10-16 03:53:47			0	38326	0	0	0	21309	19860	161420	27081	1055714	46325	107819	0	0	8231	553258	0	0
2024-10-16 03:54:47			0	38329	0	0	0	21306	19870	161412	27029	1055696	46315	107818	0	0	8231	553109	0	0
2024-10-16 03:55:47			0	38317	0	0	0	21309	19870	161340	27343	1055750	46326	107819	0	0	8230	553583	0	0
2024-10-16 03:56:47			0	38310	0	0	0	21306	19870	161364	27614	1055750	46315	107818	0	0	8230	553860	0	0
2024-10-16 03:57:47			0	38330	0	0	0	21298	19870	161388	27059	1055750	46326	107815	0	0	8231	553069	0	0
2024-10-16 03:58:47			0	38324	0	0	0	21306	19870	161372	27493	1055705	46316	107818	0	0	8231	553306	0	0
2024-10-16 03:59:47			0	38322	0	0	0	21306	19880	161352	26894	1055768	46316	107818	0	0	8230	553355	0	0
2024-10-16 04:00:47			0	38324	0	0	0	21309	19870	161340	27263	1055759	46316	107819	0	0	8230	553306	0	0
2024-10-16 04:01:47			0	38341	0	0	0	21301	19870	161360	27246	1055723	46304	107816	0	0	8232	552635	0	0
2024-10-16 04:02:47			0	38324	0	0	0	21309	19870	161216	27364	1055723	46336	107819	0	0	8230	553306	0	0
2024-10-16 04:03:47			0	38329	0	0	0	21293	19870	161288	27138	1055705	46305	107813	0	0	8231	553109	0	0
2024-10-16 04:04:47			0	38334	0	0	0	21296	19870	161344	26852	1055696	46326	107814	0	0	8231	552911	0	0
2024-10-16 04:05:47			0	38340	0	0	0	21296	19870	161312	27192	1055679	46327	107814	0	0	8232	552674	0	0
2024-10-16 04:06:47			0	38333	0	0	0	21290	19870	161324	27246	1055723	46304	107812	0	0	8231	552951	0	0
2024-10-16 04:07:47			0	38312	0	0	0	21303	19870	161300	27215	1055705	46327	107817	0	0	8230	553781	0	0
2024-10-16 04:08:47			0	38319	0	0	0	21298	19870	161352	27332	1055696	46304	107815	0	0	8230	553504	0	0
2024-10-16 04:09:47			0	38311	0	0	0	21290	19860	161480	27306	1055705	46313	107812	0	0	8230	553851	0	0
2024-10-16 04:10:47			0	38310	0	0	0	21288	19880	161384	27251	1055714	46305	107811	0	0	8230	553829	0	0
2024-10-16 04:11:47			0	38317	0	0	0	21293	19870	161464	27272	1055723	46304	107813	0	0	8230	553583	0	0
2024-10-16 04:12:47			0	38325	0	0	0	21301	19860	161468	27327	1055741	46325	107816	0	0	8231	553297	0	0
2024-10-16 04:13:47			0	38332	0	0	0	21296	19870	161340	27097	1055705	46305	107814	0	0	8231	552990	0	0
2024-10-16 04:14:47			0	38315	0	0	0	21293	19870	161440	27201	1055670	46315	107813	0	0	8230	553662	0	0
2024-10-16 04:15:47			0	38306	0	0	0	21288	19860	161540	27215	1055661	46325	107811	0	0	8230	554049	0	0
2024-10-16 04:16:47			0	38300	0	0	0	21290	19860	161436	26932	1055688	46292	107812	0	0	8229	554286	0	0
2024-10-16 04:17:47			0	38293	0	0	0	21283	19870	161476	27310	1055670	46315	107809	0	0	8229	554533	0	0
2024-10-16 04:18:47			0	38291	0	0	0	21288	19860	161512	27036	1055679	46313	107811	0	0	8229	554642	0	0
2024-10-16 04:19:47			0	38300	0	0	0	21288	19870	161500	27003	1055696	46304	107811	0	0	8229	554256	0	0
2024-10-16 04:20:47			0	38300	0	0	0	21280	19860	161572	26958	1055679	46302	107808	0	0	8230	554286	0	0
2024-10-16 04:21:47			0	38299	0	0	0	21275	19860	161396	27223	1055679	46291	107806	0	0	8230	554326	0	0
2024-10-16 04:22:47			0	38294	0	0	0	21288	19860	161584	27274	1055714	46292	107811	0	0	8229	554524	0	0
2024-10-16 04:23:47			0	38282	0	0	0	21280	19850	161420	27175	1055617	46302	107808	0	0	8228	555029	0	0
2024-10-16 04:24:47			0	38296	0	0	0	21285	19860	161504	26984	1055679	46313	107810	0	0	8229	554444	0	0
2024-10-16 04:25:47			0	38286	0	0	0	21283	19860	161488	26882	1055652	46313	107809	0	0	8229	554840	0	0
2024-10-16 04:26:47			0	38278	0	0	0	21285	19860	161612	27275	1055652	46313	107810	0	0	8228	555157	0	0
2024-10-16 04:27:47			0	38302	0	0	0	21280	19850	161592	27277	1055643	46302	107808	0	0	8230	554238	0	0
2024-10-16 04:28:47			0	38299	0	0	0	21272	19850	161640	27088	1055643	46302	107805	0	0	8230	554356	0	0
2024-10-16 04:29:47			0	38293	0	0	0	21272	19870	161600	27176	1055670	46304	107805	0	0	8229	554533	0	0
2024-10-16 04:30:47			0	38302	0	0	0	21280	19850	161504	27069	1055554	46302	107808	0	0	8230	554238	0	0
2024-10-16 04:31:47			0	38306	0	0	0	21277	19840	161464	27182	1055572	46312	107807	0	0	8230	554110	0	0
2024-10-16 04:32:47			0	38320	0	0	0	21275	19850	161428	27334	1055581	46291	107806	0	0	8231	553526	0	0
2024-10-16 04:33:47			0	38327	0	0	0	21280	19850	161500	27007	1055643	46302	107808	0	0	8231	553249	0	0
2024-10-16 04:34:47			0	38318	0	0	0	21280	19840	161540	26824	1055572	46323	107808	0	0	8230	553635	0	0
2024-10-16 04:35:47			0	38325	0	0	0	21267	19850	161364	27038	1055634	46313	107803	0	0	8231	553328	0	0
2024-10-16 04:36:47			0	38319	0	0	0	21280	19840	161360	27228	1055572	46312	107808	0	0	8231	553596	0	0
2024-10-16 04:37:47			0	38306	0	0	0	21267	19850	161500	27268	1055643	46302	107803	0	0	8230	554079	0	0
2024-10-16 04:38:47			0	38307	0	0	0	21270	19850	161512	27026	1055661	46313	107804	0	0	8230	554040	0	0
2024-10-16 04:39:47			0	38284	0	0	0	21270	19850	161592	26922	1055634	46302	107804	0	0	8229	554950	0	0
2024-10-16 04:40:47			0	38278	0	0	0	21275	19840	161472	27067	1055652	46301	107806	0	0	8228	555218	0	0
2024-10-16 04:41:47			0	38292	0	0	0	21270	19840	161596	27357	1055625	46301	107804	0	0	8229	554664	0	0
2024-10-16 04:42:47			0	38274	0	0	0	21270	19840	161484	27229	1055563	46300	107804	0	0	8228	555377	0	0
2024-10-16 04:43:47			0	38295	0	0	0	21262	19840	161436	27083	1055572	46301	107801	0	0	8229	554545	0	0
2024-10-16 04:44:47			0	38306	0	0	0	21267	19840	161468	27123	1055625	46312	107803	0	0	8230	554110	0	0
2024-10-16 04:45:47			0	38297	0	0	0	21270	19840	161580	27033	1055643	46311	107804	0	0	8229	554466	0	0
2024-10-16 04:46:47			0	38312	0	0	0	21270	19840	161508	27194	1055536	46311	107804	0	0	8230	553873	0	0
2024-10-16 04:47:47			0	38312	0	0	0	21267	19840	161456	26989	1055510	46333	107803	0	0	8230	553873	0	0
2024-10-16 04:48:47			0	38287	0	0	0	21262	19840	161616	27322	1055572	46301	107801	0	0	8229	554862	0	0
2024-10-16 04:49:47			0	38289	0	0	0	21264	19830	161596	27573	1055580	46300	107802	0	0	8229	554813	0	0
2024-10-16 04:50:47			0	38292	0	0	0	21264	19830	161512	27157	1055607	46300	107802	0	0	8229	554695	0	0
2024-10-16 04:51:47			0	38300	0	0	0	21270	19840	161468	27339	1055589	46300	107804	0	0	8230	554347	0	0
2024-10-16 04:52:47			0	38308	0	0	0	21270	19840	161440	27088	1055572	46312	107804	0	0	8230	554031	0	0
2024-10-16 04:53:47			0	38320	0	0	0	21259	19850	161416	27398	1055581	46313	107800	0	0	8231	553526	0	0
2024-10-16 04:54:47			0	38301	0	0	0	21257	19840	161480	27675	1055589	46311	107799	0	0	8230	554308	0	0
2024-10-16 04:55:47			0	38276	0	0	0	21262	19830	161600	27149	1055571	46300	107801	0	0	8228	555328	0	0
2024-10-16 04:56:47			0	38276	0	0	0	21257	19840	161556	27130	1055563	46300	107799	0	0	8228	555297	0	0
2024-10-16 04:57:47			0	38270	0	0	0	21262	19820	161552	27064	1055642	46299	107801	0	0	8228	555596	0	0
2024-10-16 04:58:47			0	38265	0	0	0	21257	19850	161628	27022	1055608	46324	107799	0	0	8228	555703	0	0
2024-10-16 04:59:47			0	38265	0	0	0	21257	19830	161684	27057	1055607	46300	107799	0	0	8228	555764	0	0
2024-10-16 05:00:47			0	38271	0	0	0	21270	19830	161704	26830	1055607	46311	107804	0	0	8228	555526	0	0
2024-10-16 05:01:47			0	38305	0	0	0	21272	19830	161616	27133	1055527	46300	107805	0	0	8230	554180	0	0
2024-10-16 05:02:47			0	38275	0	0	0	21272	19830	161636	27095	1055598	46311	107805	0	0	8228	555368	0	0
2024-10-16 05:03:47			0	38297	0	0	0	21277	19840	161544	27409	1055572	46323	107807	0	0	8229	554466	0	0
2024-10-16 05:04:47			0	38309	0	0	0	21277	19830	161616	27518	1055571	46311	107807	0	0	8230	554022	0	0
2024-10-16 05:05:47			0	38313	0	0	0	21280	19840	161388	27331	1055616	46322	107808	0	0	8230	553833	0	0
2024-10-16 05:06:47			0	38306	0	0	0	21290	19840	161436	27483	1055616	46311	107812	0	0	8230	554110	0	0
2024-10-16 05:07:47			0	38319	0	0	0	21290	19840	161468	27211	1055616	46300	107812	0	0	8230	553596	0	0
2024-10-16 05:08:47			0	38319	0	0	0	21301	19850	161564	27069	1055661	46302	107816	0	0	8230	553565	0	0
2024-10-16 05:09:47			0	38312	0	0	0	21272	19850	161436	26987	1055687	46313	107805	0	0	8230	553842	0	0
2024-10-16 05:10:47			0	38331	0	0	0	21290	19850	161312	27287	1055687	46324	107812	0	0	8231	553091	0	0
2024-10-16 05:11:47			0	38328	0	0	0	21293	19850	161392	26982	1055670	46313	107813	0	0	8231	553209	0	0
2024-10-16 05:12:47			0	38329	0	0	0	21296	19840	161340	26920	1055652	46312	107814	0	0	8231	553200	0	0
2024-10-16 05:13:47			0	38363	0	0	0	21283	19840	161336	27140	1055652	46301	107809	0	0	8233	551858	0	0
2024-10-16 05:14:47			0	38360	0	0	0	21275	19850	161384	27048	1055696	46313	107806	0	0	8233	551946	0	0
2024-10-16 05:15:47			0	38342	0	0	0	21288	19850	161316	26882	1055661	46302	107811	0	0	8232	552656	0	0
2024-10-16 05:16:47			0	38340	0	0	0	21285	19850	161320	26772	1055581	46313	107810	0	0	8232	552735	0	0
2024-10-16 05:17:47			0	38355	0	0	0	21293	19850	161320	26798	1055617	46313	107813	0	0	8232	552143	0	0
2024-10-16 05:18:47			0	38359	0	0	0	21290	19850	161280	27192	1055670	46302	107812	0	0	8233	551985	0	0
2024-10-16 05:19:47			0	38371	0	0	0	21293	19850	161116	26847	1055643	46302	107813	0	0	8233	551512	0	0
2024-10-16 05:20:47			0	38384	0	0	0	21298	19850	161228	26838	1055581	46302	107815	0	0	8234	550999	0	0
2024-10-16 05:21:47			0	38347	0	0	0	21303	19850	161244	27192	1055714	46313	107817	0	0	8232	552459	0	0
2024-10-16 05:22:47			0	38355	0	0	0	21309	19850	161236	26996	1055661	46313	107819	0	0	8232	552143	0	0
2024-10-16 05:23:47			0	38355	0	0	0	21301	19850	161124	27395	1055670	46313	107816	0	0	8232	552143	0	0
2024-10-16 05:24:47			0	38373	0	0	0	21309	19860	161212	27362	1055741	46314	107819	0	0	8233	551402	0	0
2024-10-16 05:25:47			0	38376	0	0	0	21301	19860	161252	27305	1055732	46313	107816	0	0	8234	551284	0	0
2024-10-16 05:26:47			0	38380	0	0	0	21311	19850	161096	27497	1055696	46313	107820	0	0	8234	551157	0	0
2024-10-16 05:27:47			0	38373	0	0	0	21316	19860	161168	27376	1055741	46314	107822	0	0	8233	551402	0	0
2024-10-16 05:28:47			0	38374	0	0	0	21314	19860	161100	27476	1055705	46313	107821	0	0	8233	551363	0	0
2024-10-16 05:29:47			0	38395	0	0	0	21314	19870	161128	27358	1055785	46316	107821	0	0	8235	550505	0	0
2024-10-16 05:30:47			0	38384	0	0	0	21311	19870	161220	27604	1055705	46327	107820	0	0	8234	550938	0	0
2024-10-16 05:31:47			0	38376	0	0	0	21309	19870	161160	27455	1055759	46305	107819	0	0	8234	551254	0	0
2024-10-16 05:32:47			0	38374	0	0	0	21309	19880	161220	27355	1055741	46305	107819	0	0	8233	551302	0	0
2024-10-16 05:33:47			0	38362	0	0	0	21311	19870	161296	27256	1055785	46316	107820	0	0	8233	551806	0	0
2024-10-16 05:34:47			0	38351	0	0	0	21306	19870	161300	27336	1055732	46305	107818	0	0	8232	552240	0	0
2024-10-16 05:35:47			0	38324	0	0	0	21303	19870	161372	27244	1055812	46316	107817	0	0	8231	553306	0	0
2024-10-16 05:36:47			0	38324	0	0	0	21298	19870	161276	26979	1055785	46316	107815	0	0	8231	553306	0	0
2024-10-16 05:37:47			0	38334	0	0	0	21303	19870	161372	27230	1055785	46316	107817	0	0	8231	552911	0	0
2024-10-16 05:38:47			0	38330	0	0	0	21290	19870	161380	27353	1055705	46305	107812	0	0	8231	553069	0	0
2024-10-16 05:39:47			0	38310	0	0	0	21288	19870	161424	27433	1055812	46294	107811	0	0	8230	553860	0	0
2024-10-16 05:40:47			0	38298	0	0	0	21277	19870	161396	27312	1055750	46315	107807	0	0	8230	554335	0	0
2024-10-16 05:41:47			0	38301	0	0	0	21283	19870	161552	27149	1055750	46315	107809	0	0	8230	554216	0	0
2024-10-16 05:42:47			0	38287	0	0	0	21290	19870	161472	27388	1055723	46315	107812	0	0	8229	554770	0	0
2024-10-16 05:43:47			0	38277	0	0	0	21298	19860	161596	27597	1055679	46313	107815	0	0	8228	555197	0	0
2024-10-16 05:44:47			0	38281	0	0	0	21293	19870	161496	27711	1055723	46315	107813	0	0	8228	555008	0	0
2024-10-16 05:45:47			0	38281	0	0	0	21293	19860	161652	27376	1055652	46313	107813	0	0	8228	555038	0	0
2024-10-16 05:46:47			0	38250	0	0	0	21288	19860	161624	27293	1055705	46291	107811	0	0	8226	556267	0	0
2024-10-16 05:47:47			0	38244	0	0	0	21285	19870	161616	27261	1055723	46293	107810	0	0	8226	556474	0	0
2024-10-16 05:48:47			0	38239	0	0	0	21290	19860	161648	27265	1055732	46302	107812	0	0	8226	556703	0	0
2024-10-16 05:49:47			0	38246	0	0	0	21293	19870	161628	27514	1055696	46304	107813	0	0	8226	556395	0	0
2024-10-16 05:50:47			0	38249	0	0	0	21280	19860	161744	27229	1055679	46302	107808	0	0	8227	556306	0	0
2024-10-16 05:51:47			0	38229	0	0	0	21283	19860	161772	27519	1055652	46324	107809	0	0	8225	557100	0	0
2024-10-16 05:52:47			0	38216	0	0	0	21277	19850	161848	27533	1055643	46302	107807	0	0	8225	557647	0	0
2024-10-16 05:53:47			0	38207	0	0	0	21285	19850	161748	27485	1055723	46302	107810	0	0	8224	558004	0	0
2024-10-16 05:54:47			0	38207	0	0	0	21277	19850	161944	27441	1055670	46302	107807	0	0	8224	558004	0	0
2024-10-16 05:55:47			0	38189	0	0	0	21272	19860	161956	27093	1055661	46303	107805	0	0	8223	558689	0	0
2024-10-16 05:56:47			0	38182	0	0	0	21264	19850	161956	27298	1055687	46313	107802	0	0	8223	558998	0	0
2024-10-16 05:57:47			0	38187	0	0	0	21280	19850	161868	27083	1055696	46313	107808	0	0	8223	558799	0	0
2024-10-16 05:58:47			0	38199	0	0	0	21280	19850	161880	27364	1055696	46302	107808	0	0	8224	558322	0	0
2024-10-16 05:59:47			0	38209	0	0	0	21277	19860	162016	27168	1055705	46313	107807	0	0	8224	557894	0	0
2024-10-16 06:00:47			0	38180	0	0	0	21275	19850	162036	27130	1055670	46313	107806	0	0	8223	559078	0	0
2024-10-16 06:01:47			0	38158	0	0	0	21264	19850	161940	27575	1055643	46302	107802	0	0	8221	559953	0	0
2024-10-16 06:02:47			0	38169	0	0	0	21277	19850	162016	27275	1055723	46302	107807	0	0	8222	559516	0	0
2024-10-16 06:03:47			0	38182	0	0	0	21272	19850	162028	27157	1055670	46324	107805	0	0	8223	558998	0	0
2024-10-16 06:04:47			0	38151	0	0	0	21270	19840	162168	27293	1055705	46301	107804	0	0	8221	560263	0	0
2024-10-16 06:05:47			0	38130	0	0	0	21277	19840	162184	27220	1055625	46301	107807	0	0	8220	561100	0	0
2024-10-16 06:06:47			0	38128	0	0	0	21275	19850	162280	27223	1055661	46302	107806	0	0	8219	561149	0	0
2024-10-16 06:07:47			0	38113	0	0	0	21280	19850	162276	27171	1055617	46302	107808	0	0	8219	561747	0	0
2024-10-16 06:08:47			0	38092	0	0	0	21280	19850	162252	27000	1055634	46313	107808	0	0	8217	562586	0	0
2024-10-16 06:09:47			0	38086	0	0	0	21277	19850	162388	27215	1055749	46313	107807	0	0	8217	562825	0	0
2024-10-16 06:10:47			0	38097	0	0	0	21275	19850	162268	27180	1055670	46302	107806	0	0	8218	562386	0	0
2024-10-16 06:11:47			0	38093	0	0	0	21288	19850	162352	27383	1055670	46302	107811	0	0	8217	562546	0	0
2024-10-16 06:12:47			0	38083	0	0	0	21267	19840	162232	27293	1055678	46312	107803	0	0	8217	562976	0	0
2024-10-16 06:13:47			0	38087	0	0	0	21275	19850	162364	27300	1055661	46291	107806	0	0	8217	562785	0	0
2024-10-16 06:14:47			0	38080	0	0	0	21280	19850	162384	27607	1055661	46324	107808	0	0	8217	563065	0	0
2024-10-16 06:15:47			0	38049	0	0	0	21298	19850	162420	27298	1055670	46302	107815	0	0	8214	564304	0	0
2024-10-16 06:16:47			0	38044	0	0	0	21298	19840	162488	27159	1055669	46311	107815	0	0	8214	564536	0	0
2024-10-16 06:17:47			0	38042	0	0	0	21293	19850	162552	27268	1055714	46324	107813	0	0	8214	564585	0	0
2024-10-16 06:18:47			0	38048	0	0	0	21298	19850	162592	27281	1055687	46313	107815	0	0	8214	564344	0	0
2024-10-16 06:19:47			0	38024	0	0	0	21298	19860	162608	27064	1055705	46302	107815	0	0	8213	565274	0	0
2024-10-16 06:20:47			0	38016	0	0	0	21296	19860	162659	27244	1055679	46313	107814	0	0	8213	565595	0	0
2024-10-16 06:21:47			0	38021	0	0	0	21298	19850	162707	27362	1055740	46324	107815	0	0	8213	565426	0	0
2024-10-16 06:22:47			0	38023	0	0	0	21296	19860	162631	27059	1055714	46314	107814	0	0	8213	565314	0	0
2024-10-16 06:23:47			0	38006	0	0	0	21285	19850	162707	26996	1055670	46324	107810	0	0	8212	566027	0	0
2024-10-16 06:24:47			0	37999	0	0	0	21290	19860	162687	27239	1055679	46313	107812	0	0	8212	566276	0	0
2024-10-16 06:25:47			0	37985	0	0	0	21290	19860	162803	27390	1055758	46313	107812	0	0	8211	566838	0	0
2024-10-16 06:26:47			0	38007	0	0	0	21283	19860	162767	27332	1055705	46313	107809	0	0	8212	565955	0	0
2024-10-16 06:27:47			0	37978	0	0	0	21277	19860	162751	27319	1055741	46314	107807	0	0	8211	567119	0	0
2024-10-16 06:28:47			0	37979	0	0	0	21296	19850	162691	27215	1055749	46302	107814	0	0	8210	567110	0	0
2024-10-16 06:29:47			0	37976	0	0	0	21296	19850	162847	27386	1055776	46302	107814	0	0	8210	567230	0	0
2024-10-16 06:30:47			0	37971	0	0	0	21301	19870	162851	27199	1055723	46315	107816	0	0	8210	567368	0	0
2024-10-16 06:31:47			0	37964	0	0	0	21290	19850	162855	27286	1055749	46302	107812	0	0	8210	567712	0	0
2024-10-16 06:32:47			0	37957	0	0	0	21285	19860	162931	27017	1055732	46313	107810	0	0	8209	567962	0	0
2024-10-16 06:33:47			0	37958	0	0	0	21290	19850	162875	27310	1055749	46302	107812	0	0	8209	567953	0	0
2024-10-16 06:34:47			0	37951	0	0	0	21290	19850	163043	27007	1055670	46313	107812	0	0	8209	568234	0	0
2024-10-16 06:35:47			0	37930	0	0	0	21277	19860	163043	26975	1055741	46303	107807	0	0	8208	569047	0	0
2024-10-16 06:36:47			0	37943	0	0	0	21277	19850	163027	27213	1055670	46313	107807	0	0	8209	568556	0	0
2024-10-16 06:37:47			0	37933	0	0	0	21272	19850	163051	27317	1055670	46302	107805	0	0	8208	568958	0	0
2024-10-16 06:38:47			0	37927	0	0	0	21283	19850	162967	27353	1055670	46313	107809	0	0	8207	569199	0	0
2024-10-16 06:39:47			0	37937	0	0	0	21285	19860	163079	27211	1055705	46302	107810	0	0	8208	568766	0	0
2024-10-16 06:40:47			0	37938	0	0	0	21280	19850	163095	27248	1055634	46302	107808	0	0	8208	568757	0	0
2024-10-16 06:41:47			0	37933	0	0	0	21277	19850	163119	27393	1055749	46302	107807	0	0	8208	568958	0	0
2024-10-16 06:42:47			0	37933	0	0	0	21270	19860	163079	27053	1055634	46303	107804	0	0	8208	568927	0	0
2024-10-16 06:43:47			0	37920	0	0	0	21270	19850	163187	27348	1055661	46302	107804	0	0	8207	569481	0	0
2024-10-16 06:44:47			0	37915	0	0	0	21283	19850	163155	27429	1055696	46313	107809	0	0	8207	569682	0	0
2024-10-16 06:45:47			0	37925	0	0	0	21275	19840	163215	27267	1055678	46290	107806	0	0	8207	569311	0	0
2024-10-16 06:46:47			0	37907	0	0	0	21277	19840	163179	27199	1055678	46301	107807	0	0	8206	570036	0	0
2024-10-16 06:47:47			0	37906	0	0	0	21280	19850	163175	26916	1055661	46302	107808	0	0	8206	570045	0	0
2024-10-16 06:48:47			0	37889	0	0	0	21275	19850	163247	27416	1055634	46302	107806	0	0	8205	570730	0	0
2024-10-16 06:49:47			0	37898	0	0	0	21272	19850	163251	27608	1055696	46302	107805	0	0	8206	570367	0	0
2024-10-16 06:50:47			0	37896	0	0	0	21270	19850	163379	27045	1055670	46291	107804	0	0	8206	570448	0	0
2024-10-16 06:51:47			0	37877	0	0	0	21280	19850	163379	27185	1055723	46313	107808	0	0	8205	571213	0	0
2024-10-16 06:52:47			0	37885	0	0	0	21277	19850	163407	26923	1055661	46291	107807	0	0	8205	570891	0	0
2024-10-16 06:53:47			0	37887	0	0	0	21288	19850	163331	27090	1055634	46302	107811	0	0	8205	570810	0	0
2024-10-16 06:54:47			0	37890	0	0	0	21283	19850	163291	27630	1055661	46313	107809	0	0	8205	570689	0	0
2024-10-16 06:55:47			0	37879	0	0	0	21277	19850	163303	27182	1055643	46313	107807	0	0	8205	571133	0	0
2024-10-16 06:56:47			0	37880	0	0	0	21280	19850	163379	27225	1055617	46291	107808	0	0	8205	571092	0	0
2024-10-16 06:57:47			0	37861	0	0	0	21277	19850	163315	27118	1055661	46302	107807	0	0	8204	571859	0	0
2024-10-16 06:58:47			0	37868	0	0	0	21283	19840	163391	27123	1055705	46301	107809	0	0	8204	571608	0	0
2024-10-16 06:59:47			0	37867	0	0	0	21275	19850	163303	27260	1055661	46313	107806	0	0	8204	571617	0	0
2024-10-16 07:00:47			0	37869	0	0	0	21272	19840	163379	27201	1055599	46301	107805	0	0	8204	571568	0	0
2024-10-16 07:01:47			0	37853	0	0	0	21306	19860	163407	27150	1055652	46302	107818	0	0	8203	572150	0	0
2024-10-16 07:02:47			0	37847	0	0	0	21301	19850	163391	26840	1055687	46313	107816	0	0	8202	572424	0	0
2024-10-16 07:03:47			0	37877	0	0	0	21293	19850	163283	27255	1055661	46313	107813	0	0	8204	571213	0	0
2024-10-16 07:04:47			0	37876	0	0	0	21280	19840	163411	27223	1055705	46333	107808	0	0	8204	571285	0	0
2024-10-16 07:05:47			0	37857	0	0	0	21298	19850	163363	27036	1055723	46302	107815	0	0	8203	572020	0	0
2024-10-16 07:06:47			0	37856	0	0	0	21324	19850	163555	27072	1055723	46313	107825	0	0	8203	572061	0	0
2024-10-16 07:07:47			0	37855	0	0	0	21324	19850	163427	26883	1055740	46313	107825	0	0	8203	572101	0	0
2024-10-16 07:08:47			0	37868	0	0	0	21337	19860	163467	27241	1055785	46324	107830	0	0	8203	571545	0	0
2024-10-16 07:09:47			0	37872	0	0	0	21361	19860	163347	27203	1055794	46314	107839	0	0	8203	571383	0	0
2024-10-16 07:10:47			0	37864	0	0	0	21366	19860	163287	27225	1055900	46314	107841	0	0	8202	571706	0	0
2024-10-16 07:11:47			0	37865	0	0	0	21355	19880	163423	27043	1055883	46327	107837	0	0	8203	571603	0	0
2024-10-16 07:12:47			0	37895	0	0	0	21412	19880	163403	27396	1055927	46337	107859	0	0	8204	570394	0	0
2024-10-16 07:13:47			0	37902	0	0	0	21415	19880	163299	27149	1055936	46337	107860	0	0	8204	570112	0	0
2024-10-16 07:14:47			0	37912	0	0	0	21410	19890	163207	27267	1056007	46339	107858	0	0	8205	569678	0	0
2024-10-16 07:15:47			0	37923	0	0	0	21425	19900	163263	27450	1056078	46329	107864	0	0	8205	569204	0	0
2024-10-16 07:16:47			0	37923	0	0	0	21420	19910	163139	27209	1056096	46331	107862	0	0	8205	569172	0	0
2024-10-16 07:17:47			0	37912	0	0	0	21415	19910	163043	27256	1056043	46341	107860	0	0	8205	569615	0	0
2024-10-16 07:18:47			0	37933	0	0	0	21402	19910	163171	27079	1056069	46331	107855	0	0	8206	568770	0	0
2024-10-16 07:19:47			0	37916	0	0	0	21402	19930	163215	27339	1056096	46321	107855	0	0	8205	569391	0	0
2024-10-16 07:20:47			0	37915	0	0	0	21392	19930	163131	27244	1056105	46322	107851	0	0	8205	569431	0	0
2024-10-16 07:21:47			0	37889	0	0	0	21399	19920	163027	27357	1056167	46320	107854	0	0	8204	570510	0	0
2024-10-16 07:22:47			0	37918	0	0	0	21394	19920	163171	27315	1056167	46320	107852	0	0	8205	569342	0	0
2024-10-16 07:23:47			0	37893	0	0	0	21402	19940	163191	27410	1056141	46333	107855	0	0	8204	570285	0	0
2024-10-16 07:24:47			0	37874	0	0	0	21392	19940	163115	27131	1056167	46322	107851	0	0	8203	571051	0	0
2024-10-16 07:25:47			0	37881	0	0	0	21371	19940	163147	27445	1056141	46311	107843	0	0	8204	570769	0	0
2024-10-16 07:26:47			0	37892	0	0	0	21371	19940	163155	27303	1056141	46322	107843	0	0	8204	570326	0	0
2024-10-16 07:27:47			0	37888	0	0	0	21358	19940	163235	27199	1056176	46323	107838	0	0	8204	570487	0	0
2024-10-16 07:28:47			0	37868	0	0	0	21353	19940	163175	26946	1056114	46322	107836	0	0	8203	571293	0	0
2024-10-16 07:29:47			0	37878	0	0	0	21348	19950	163203	27391	1056079	46312	107834	0	0	8204	570858	0	0
2024-10-16 07:30:47			0	37857	0	0	0	21361	19930	163315	27116	1056096	46310	107839	0	0	8202	571768	0	0
2024-10-16 07:31:47			0	37867	0	0	0	21340	19940	163279	27095	1056123	46301	107831	0	0	8203	571333	0	0
2024-10-16 07:32:47			0	37852	0	0	0	21350	19930	163283	27410	1056123	46299	107835	0	0	8202	571970	0	0
2024-10-16 07:33:47			0	37851	0	0	0	21348	19940	163303	27246	1056061	46322	107834	0	0	8202	571979	0	0
2024-10-16 07:34:47			0	37854	0	0	0	21353	19940	163327	27072	1056061	46311	107836	0	0	8202	571858	0	0
2024-10-16 07:35:47			0	37842	0	0	0	21353	19930	163279	27360	1056079	46322	107836	0	0	8202	572373	0	0
2024-10-16 07:36:47			0	37832	0	0	0	21368	19920	163395	26948	1056061	46309	107842	0	0	8201	572809	0	0
2024-10-16 07:37:47			0	37846	0	0	0	21363	19930	163243	27275	1056052	46322	107840	0	0	8202	572212	0	0
2024-10-16 07:38:47			0	37838	0	0	0	21353	19940	163291	27109	1056061	46333	107836	0	0	8201	572503	0	0
2024-10-16 07:39:47			0	37850	0	0	0	21350	19940	163355	27107	1056061	46322	107835	0	0	8202	572019	0	0
2024-10-16 07:40:47			0	37861	0	0	0	21355	19930	163383	27364	1056052	46311	107837	0	0	8203	571607	0	0
2024-10-16 07:41:47			0	37842	0	0	0	21342	19930	163375	27474	1056070	46321	107832	0	0	8202	572373	0	0
2024-10-16 07:42:47			0	37848	0	0	0	21332	19920	163347	27708	1056061	46309	107828	0	0	8202	572163	0	0
2024-10-16 07:43:47			0	37847	0	0	0	21342	19930	163363	27507	1056052	46311	107832	0	0	8202	572172	0	0
2024-10-16 07:44:47			0	37833	0	0	0	21335	19910	163419	27277	1055963	46309	107829	0	0	8201	572800	0	0
2024-10-16 07:45:47			0	37842	0	0	0	21327	19920	163447	27031	1056008	46298	107826	0	0	8202	572405	0	0
2024-10-16 07:46:47			0	37821	0	0	0	21316	19920	163347	27090	1055954	46298	107822	0	0	8201	573253	0	0
2024-10-16 07:47:47			0	37829	0	0	0	21319	19910	163339	27393	1056016	46309	107823	0	0	8201	572962	0	0
2024-10-16 07:48:47			0	37827	0	0	0	21319	19910	163403	27206	1055990	46298	107823	0	0	8201	573042	0	0
2024-10-16 07:49:47			0	37824	0	0	0	21316	19910	163463	27102	1055990	46309	107822	0	0	8201	573163	0	0
2024-10-16 07:50:47			0	37816	0	0	0	21319	19910	163467	27112	1055910	46309	107823	0	0	8201	573487	0	0
2024-10-16 07:51:47			0	37814	0	0	0	21303	19900	163475	27098	1055919	46307	107817	0	0	8201	573599	0	0
2024-10-16 07:52:47			0	37814	0	0	0	21311	19910	163483	27152	1055874	46308	107820	0	0	8201	573568	0	0
2024-10-16 07:53:47			0	37822	0	0	0	21306	19900	163487	27339	1055892	46318	107818	0	0	8201	573276	0	0
2024-10-16 07:54:47			0	37820	0	0	0	21306	19890	163559	27119	1055927	46318	107818	0	0	8201	573388	0	0
2024-10-16 07:55:47			0	37796	0	0	0	21311	19900	163567	27255	1055892	46296	107820	0	0	8200	574327	0	0
2024-10-16 07:56:47			0	37799	0	0	0	21311	19900	163487	27105	1055972	46318	107820	0	0	8200	574206	0	0
2024-10-16 07:57:47			0	37808	0	0	0	21311	19900	163643	27079	1055919	46307	107820	0	0	8200	573842	0	0
2024-10-16 07:58:47			0	37797	0	0	0	21314	19890	163595	27201	1055874	46307	107821	0	0	8199	574318	0	0
2024-10-16 07:59:47			0	37782	0	0	0	21322	19890	163543	27133	1055865	46306	107824	0	0	8198	574925	0	0
2024-10-16 08:00:47			0	37792	0	0	0	21306	19890	163547	27331	1055901	46318	107818	0	0	8199	574521	0	0
2024-10-16 08:01:47			0	37791	0	0	0	21301	19890	163567	27255	1055848	46318	107816	0	0	8199	574561	0	0
2024-10-16 08:02:47			0	37774	0	0	0	21288	19890	163615	27095	1055892	46295	107811	0	0	8199	575250	0	0
2024-10-16 08:03:47			0	37794	0	0	0	21290	19890	163519	27154	1055874	46285	107812	0	0	8200	574440	0	0
2024-10-16 08:04:47			0	37790	0	0	0	21296	19890	163659	27300	1055874	46307	107814	0	0	8199	574602	0	0
2024-10-16 08:05:47			0	37762	0	0	0	21301	19890	163607	27100	1055812	46306	107816	0	0	8198	575736	0	0
2024-10-16 08:06:47			0	37757	0	0	0	21306	19880	163607	27036	1055803	46305	107818	0	0	8197	575970	0	0
2024-10-16 08:07:47			0	37764	0	0	0	21303	19880	163651	27216	1055803	46305	107817	0	0	8198	575686	0	0
2024-10-16 08:08:47			0	37775	0	0	0	21303	19880	163747	27024	1055856	46305	107817	0	0	8198	575241	0	0
2024-10-16 08:09:47			0	37770	0	0	0	21309	19870	163739	27284	1055785	46305	107819	0	0	8198	575475	0	0
2024-10-16 08:10:47			0	37789	0	0	0	21314	19880	163591	27180	1055830	46316	107821	0	0	8199	574674	0	0
2024-10-16 08:11:47			0	37766	0	0	0	21324	19880	163539	27235	1055856	46305	107825	0	0	8197	575605	0	0
2024-10-16 08:12:47			0	37788	0	0	0	21309	19890	163543	27116	1055892	46306	107819	0	0	8199	574683	0	0
2024-10-16 08:13:47			0	37788	0	0	0	21316	19880	163487	27282	1055883	46327	107822	0	0	8199	574714	0	0
2024-10-16 08:14:47			0	37796	0	0	0	21311	19870	163627	27305	1055865	46294	107820	0	0	8199	574422	0	0
2024-10-16 08:15:47			0	37817	0	0	0	21319	19870	163487	27045	1055891	46316	107823	0	0	8200	573573	0	0
2024-10-16 08:16:47			0	37807	0	0	0	21314	19890	163491	27272	1055865	46328	107821	0	0	8200	573914	0	0
2024-10-16 08:17:47			0	37814	0	0	0	21329	19890	163531	27251	1055874	46307	107827	0	0	8200	573631	0	0
2024-10-16 08:18:47			0	37816	0	0	0	21340	19890	163435	27043	1055918	46306	107831	0	0	8200	573550	0	0
2024-10-16 08:19:47			0	37824	0	0	0	21335	19890	163463	27331	1055927	46318	107829	0	0	8201	573227	0	0
2024-10-16 08:20:47			0	37838	0	0	0	21340	19890	163499	27289	1055892	46317	107831	0	0	8201	572661	0	0
2024-10-16 08:21:47			0	37877	0	0	0	21353	19880	163363	27248	1055963	46327	107836	0	0	8203	571119	0	0
2024-10-16 08:22:47			0	37869	0	0	0	21342	19900	163303	27428	1056016	46318	107832	0	0	8203	571379	0	0
2024-10-16 08:23:47			0	37888	0	0	0	21389	19890	163231	27074	1056034	46329	107850	0	0	8204	570644	0	0
2024-10-16 08:24:47			0	37915	0	0	0	21402	19910	163131	27282	1056087	46340	107855	0	0	8205	569494	0	0
2024-10-16 08:25:47			0	37928	0	0	0	21386	19910	163119	27159	1056069	46331	107849	0	0	8206	568971	0	0
2024-10-16 08:26:47			0	37950	0	0	0	21381	19910	162919	27329	1056034	46340	107847	0	0	8207	568087	0	0
2024-10-16 08:27:47			0	37941	0	0	0	21332	19920	162923	27057	1056131	46320	107828	0	0	8208	568417	0	0
2024-10-16 08:28:47			0	37954	0	0	0	21329	19920	162787	27050	1056034	46320	107827	0	0	8209	567895	0	0
2024-10-16 08:29:47			0	37936	0	0	0	21332	19910	162995	26902	1056069	46320	107828	0	0	8207	568649	0	0
2024-10-16 08:30:47			0	37926	0	0	0	21335	19930	163011	26967	1056052	46322	107829	0	0	8207	568989	0	0
2024-10-16 08:31:47			0	37892	0	0	0	21358	19930	163167	27315	1056123	46321	107838	0	0	8205	570357	0	0
2024-10-16 08:32:47			0	37915	0	0	0	21368	19920	163159	27147	1056034	46331	107842	0	0	8206	569463	0	0
2024-10-16 08:33:47			0	37888	0	0	0	21366	19920	163103	27079	1056078	46309	107841	0	0	8204	570550	0	0
2024-10-16 08:34:47			0	37906	0	0	0	21366	19930	163175	27204	1056123	46321	107841	0	0	8205	569794	0	0
2024-10-16 08:35:47			0	37890	0	0	0	21353	19930	163183	27112	1056132	46333	107836	0	0	8204	570438	0	0
2024-10-16 08:36:47			0	37883	0	0	0	21353	19930	163203	27092	1056132	46333	107836	0	0	8204	570720	0	0
2024-10-16 08:37:47			0	37882	0	0	0	21358	19930	163183	27338	1056132	46311	107838	0	0	8204	570760	0	0
2024-10-16 08:38:47			0	37883	0	0	0	21363	19920	163195	27390	1056087	46331	107840	0	0	8204	570751	0	0
2024-10-16 08:39:47			0	37874	0	0	0	21368	19930	163195	27296	1056105	46311	107842	0	0	8203	571082	0	0
2024-10-16 08:40:47			0	37878	0	0	0	21366	19940	163167	26935	1056114	46322	107841	0	0	8204	570890	0	0
2024-10-16 08:41:47			0	37855	0	0	0	21363	19930	163211	27005	1056079	46311	107840	0	0	8202	571849	0	0
2024-10-16 08:42:47			0	37868	0	0	0	21363	19930	163147	26847	1056132	46322	107840	0	0	8203	571324	0	0
2024-10-16 08:43:47			0	37868	0	0	0	21363	19930	163167	27041	1056132	46322	107840	0	0	8203	571324	0	0
2024-10-16 08:44:47			0	37880	0	0	0	21361	19930	163143	26734	1056070	46321	107839	0	0	8204	570841	0	0
2024-10-16 08:45:47			0	37868	0	0	0	21350	19930	163179	26941	1056105	46322	107835	0	0	8203	571324	0	0
2024-10-16 08:46:47			0	37887	0	0	0	21358	19930	163179	27149	1056043	46321	107838	0	0	8204	570559	0	0
2024-10-16 08:47:47			0	37876	0	0	0	21345	19930	163135	27208	1056132	46300	107833	0	0	8204	571002	0	0
2024-10-16 08:48:47			0	37892	0	0	0	21337	19930	163087	26965	1056043	46310	107830	0	0	8205	570357	0	0
2024-10-16 08:49:47			0	37877	0	0	0	21337	19930	163159	27319	1056052	46311	107830	0	0	8204	570962	0	0
2024-10-16 08:50:47			0	37874	0	0	0	21340	19930	163175	27138	1056025	46300	107831	0	0	8204	571082	0	0
2024-10-16 08:51:47			0	37877	0	0	0	21340	19930	163123	27074	1056052	46311	107831	0	0	8204	570962	0	0
2024-10-16 08:52:47			0	37882	0	0	0	21337	19920	163119	27274	1056025	46309	107830	0	0	8204	570792	0	0
2024-10-16 08:53:47			0	37883	0	0	0	21335	19930	163147	27298	1056070	46299	107829	0	0	8204	570720	0	0
2024-10-16 08:54:47			0	37880	0	0	0	21327	19920	163175	27008	1056034	46331	107826	0	0	8204	570872	0	0
2024-10-16 08:55:47			0	37884	0	0	0	21332	19920	163107	26979	1056052	46320	107828	0	0	8204	570711	0	0
2024-10-16 08:56:47			0	37885	0	0	0	21324	19920	163183	27203	1056034	46309	107825	0	0	8205	570671	0	0
2024-10-16 08:57:47			0	37892	0	0	0	21319	19920	163115	26883	1055999	46320	107823	0	0	8205	570389	0	0
2024-10-16 08:58:47			0	37876	0	0	0	21316	19900	163091	27180	1055972	46318	107822	0	0	8204	571096	0	0
2024-10-16 08:59:47			0	37884	0	0	0	21329	19910	163191	27282	1055990	46309	107827	0	0	8204	570742	0	0
2024-10-16 09:00:47			0	37860	0	0	0	21324	19910	163203	27254	1056060	46308	107825	0	0	8203	571710	0	0
2024-10-16 09:01:47			0	37860	0	0	0	21337	19900	163203	27234	1055963	46296	107830	0	0	8203	571742	0	0
2024-10-16 09:02:47			0	37872	0	0	0	21335	19910	163135	26844	1055990	46309	107829	0	0	8204	571226	0	0
2024-10-16 09:03:47			0	37862	0	0	0	21324	19900	163223	27109	1055998	46318	107825	0	0	8203	571661	0	0
2024-10-16 09:04:47			0	37867	0	0	0	21335	19900	163155	27005	1055998	46318	107829	0	0	8203	571459	0	0
2024-10-16 09:05:47			0	37890	0	0	0	21332	19910	163243	27334	1055981	46308	107828	0	0	8205	570501	0	0
2024-10-16 09:06:47			0	37898	0	0	0	21340	19900	163115	27391	1055972	46296	107831	0	0	8205	570210	0	0
2024-10-16 09:07:47			0	37890	0	0	0	21332	19910	163111	27410	1056069	46298	107828	0	0	8205	570501	0	0
2024-10-16 09:08:47			0	37895	0	0	0	21337	19910	163111	27159	1056016	46298	107830	0	0	8205	570299	0	0
2024-10-16 09:09:47			0	37906	0	0	0	21358	19900	163131	27012	1056025	46318	107838	0	0	8205	569888	0	0
2024-10-16 09:10:47			0	37896	0	0	0	21363	19920	163043	27202	1056052	46320	107840	0	0	8205	570228	0	0
2024-10-16 09:11:47			0	37909	0	0	0	21379	19920	163019	27357	1056105	46331	107846	0	0	8205	569704	0	0
2024-10-16 09:12:47			0	37920	0	0	0	21389	19910	163083	27270	1056043	46320	107850	0	0	8206	569293	0	0
2024-10-16 09:13:47			0	37897	0	0	0	21389	19920	163083	27275	1056114	46331	107850	0	0	8204	570187	0	0
2024-10-16 09:14:47			0	37908	0	0	0	21386	19920	163139	26974	1056114	46331	107849	0	0	8205	569744	0	0
2024-10-16 09:15:47			0	37929	0	0	0	21394	19920	163003	27386	1056140	46320	107852	0	0	8206	568900	0	0
2024-10-16 09:16:47			0	37926	0	0	0	21392	19930	162939	27332	1056185	46343	107851	0	0	8206	568989	0	0
2024-10-16 09:17:47			0	37942	0	0	0	21397	19930	162951	27791	1056132	46322	107853	0	0	8207	568345	0	0
2024-10-16 09:18:47			0	37961	0	0	0	21384	19920	162831	27460	1056087	46341	107848	0	0	8208	567614	0	0
2024-10-16 09:19:47			0	37961	0	0	0	21374	19930	162727	27232	1056185	46322	107844	0	0	8208	567582	0	0
2024-10-16 09:20:47			0	37979	0	0	0	21363	19940	162691	27291	1056176	46333	107840	0	0	8210	566829	0	0
2024-10-16 09:21:47			0	37996	0	0	0	21374	19950	162639	27379	1056221	46324	107844	0	0	8210	566116	0	0
2024-10-16 09:22:47			0	38002	0	0	0	21361	19940	162643	27144	1056150	46333	107839	0	0	8211	565906	0	0
2024-10-16 09:23:47			0	38006	0	0	0	21376	19940	162631	27509	1056203	46312	107845	0	0	8211	565746	0	0
2024-10-16 09:24:47			0	38018	0	0	0	21392	19950	162575	27490	1056274	46313	107851	0	0	8211	565234	0	0
2024-10-16 09:25:47			0	38029	0	0	0	21389	19940	162548	27095	1056229	46312	107850	0	0	8212	564825	0	0
2024-10-16 09:26:47			0	38029	0	0	0	21381	19950	162603	27343	1056238	46323	107847	0	0	8212	564794	0	0
2024-10-16 09:27:47			0	38050	0	0	0	21381	19950	162500	27331	1056159	46312	107847	0	0	8214	563954	0	0
2024-10-16 09:28:47			0	38044	0	0	0	21363	19950	162508	27279	1056185	46323	107840	0	0	8213	564194	0	0
2024-10-16 09:29:47			0	38063	0	0	0	21371	19940	162448	27275	1056176	46323	107843	0	0	8214	563465	0	0
2024-10-16 09:30:47			0	38055	0	0	0	21381	19950	162328	27334	1056247	46334	107847	0	0	8214	563754	0	0
2024-10-16 09:31:47			0	38077	0	0	0	21386	19950	162512	27360	1056221	46324	107849	0	0	8215	562874	0	0
2024-10-16 09:32:47			0	38075	0	0	0	21389	19950	162428	27294	1056221	46324	107850	0	0	8215	562954	0	0
2024-10-16 09:33:47			0	38083	0	0	0	21389	19950	162300	27435	1056274	46324	107850	0	0	8215	562635	0	0
2024-10-16 09:34:47			0	38095	0	0	0	21389	19950	162380	27326	1056212	46312	107850	0	0	8216	562156	0	0
2024-10-16 09:35:47			0	38100	0	0	0	21402	19960	162344	27386	1056256	46324	107855	0	0	8216	561925	0	0
2024-10-16 09:36:47			0	38108	0	0	0	21407	19960	162472	27161	1056230	46324	107857	0	0	8217	561606	0	0
2024-10-16 09:37:47			0	38104	0	0	0	21402	19970	162284	27248	1056274	46335	107855	0	0	8216	561735	0	0
2024-10-16 09:38:47			0	38111	0	0	0	21407	19970	162236	27121	1056292	46314	107857	0	0	8217	561456	0	0
2024-10-16 09:39:47			0	38125	0	0	0	21415	19970	162216	27410	1056328	46325	107860	0	0	8217	560897	0	0
2024-10-16 09:40:47			0	38118	0	0	0	21418	19970	162340	27473	1056318	46335	107861	0	0	8217	561176	0	0
2024-10-16 09:41:47			0	38133	0	0	0	21418	19980	162108	27190	1056337	46336	107861	0	0	8218	560548	0	0
2024-10-16 09:42:47			0	38159	0	0	0	21415	19970	162124	27390	1056318	46325	107860	0	0	8219	559544	0	0
2024-10-16 09:43:47			0	38149	0	0	0	21412	19980	162096	27682	1056319	46316	107859	0	0	8219	559911	0	0
2024-10-16 09:44:47			0	38175	0	0	0	21397	19980	162060	27438	1056363	46336	107853	0	0	8221	558876	0	0
2024-10-16 09:45:47			0	38160	0	0	0	21392	19980	162028	27623	1056337	46315	107851	0	0	8220	559473	0	0
2024-10-16 09:46:47			0	38145	0	0	0	21381	19980	162036	27530	1056337	46326	107847	0	0	8219	560070	0	0
2024-10-16 09:47:47			0	38159	0	0	0	21386	19980	162028	27557	1056372	46337	107849	0	0	8220	559513	0	0
2024-10-16 09:48:47			0	38171	0	0	0	21399	19980	161964	27575	1056257	46326	107854	0	0	8220	559035	0	0
2024-10-16 09:49:47			0	38180	0	0	0	21381	19990	161860	27519	1056301	46316	107847	0	0	8221	558647	0	0
2024-10-16 09:50:47			0	38160	0	0	0	21392	19980	161896	27403	1056372	46327	107851	0	0	8220	559473	0	0
2024-10-16 09:51:47			0	38186	0	0	0	21386	19980	161796	27490	1056337	46326	107849	0	0	8222	558439	0	0
2024-10-16 09:52:47			0	38200	0	0	0	21384	19980	161912	27369	1056257	46304	107848	0	0	8222	557883	0	0
2024-10-16 09:53:47			0	38187	0	0	0	21371	19980	161800	27711	1056230	46315	107843	0	0	8222	558399	0	0
2024-10-16 09:54:47			0	38192	0	0	0	21374	19980	161800	27005	1056230	46304	107844	0	0	8222	558201	0	0
2024-10-16 09:55:47			0	38215	0	0	0	21374	19970	161816	27310	1056318	46325	107844	0	0	8223	557318	0	0
2024-10-16 09:56:47			0	38200	0	0	0	21366	19980	161684	27436	1056257	46326	107841	0	0	8223	557883	0	0
2024-10-16 09:57:47			0	38224	0	0	0	21371	19970	161712	27549	1056185	46314	107843	0	0	8224	556961	0	0
2024-10-16 09:58:47			0	38209	0	0	0	21379	19970	161704	27199	1056239	46325	107846	0	0	8223	557556	0	0
2024-10-16 09:59:47			0	38240	0	0	0	21384	19970	161684	27313	1056239	46303	107848	0	0	8225	556326	0	0
2024-10-16 10:00:47			0	38239	0	0	0	21384	19950	161640	27209	1056194	46313	107848	0	0	8225	556427	0	0
2024-10-16 10:01:47			0	38256	0	0	0	21381	19970	161744	27237	1056248	46325	107847	0	0	8226	555692	0	0
2024-10-16 10:02:47			0	38264	0	0	0	21397	19980	161668	27260	1056257	46315	107853	0	0	8226	555344	0	0
2024-10-16 10:03:47			0	38255	0	0	0	21394	19970	161672	27438	1056239	46314	107852	0	0	8225	555732	0	0
2024-10-16 10:04:47			0	38259	0	0	0	21394	19970	161580	26934	1056239	46303	107852	0	0	8226	555573	0	0
2024-10-16 10:05:47			0	38274	0	0	0	21386	19980	161556	27310	1056292	46305	107849	0	0	8227	554948	0	0
2024-10-16 10:06:47			0	38260	0	0	0	21392	19970	161540	27227	1056328	46335	107851	0	0	8226	555534	0	0
2024-10-16 10:07:47			0	38266	0	0	0	21386	19950	161680	27124	1056247	46302	107849	0	0	8226	555357	0	0
2024-10-16 10:08:47			0	38239	0	0	0	21381	19970	161652	27131	1056239	46325	107847	0	0	8225	556366	0	0
2024-10-16 10:09:47			0	38259	0	0	0	21381	19960	161660	27222	1056256	46313	107847	0	0	8226	555604	0	0
2024-10-16 10:10:47			0	38237	0	0	0	21389	19950	161732	27059	1056300	46324	107850	0	0	8224	556506	0	0
2024-10-16 10:11:47			0	38205	0	0	0	21397	19960	161836	27118	1056230	46324	107853	0	0	8222	557746	0	0
2024-10-16 10:12:47			0	38196	0	0	0	21402	19950	161876	27268	1056238	46312	107855	0	0	8222	558134	0	0
2024-10-16 10:13:47			0	38181	0	0	0	21407	19960	161896	27412	1056230	46334	107857	0	0	8221	558699	0	0
2024-10-16 10:14:47			0	38187	0	0	0	21402	19970	161892	27424	1056265	46314	107855	0	0	8221	558430	0	0
2024-10-16 10:15:47			0	38192	0	0	0	21407	19970	161960	27067	1056265	46314	107857	0	0	8222	558231	0	0
2024-10-16 10:16:47			0	38187	0	0	0	21410	19970	161872	27313	1056354	46314	107858	0	0	8221	558430	0	0
2024-10-16 10:17:47			0	38173	0	0	0	21410	19970	161956	27246	1056301	46303	107858	0	0	8220	558987	0	0
2024-10-16 10:18:47			0	38189	0	0	0	21418	19980	161900	27223	1056390	46326	107861	0	0	8221	558320	0	0
2024-10-16 10:19:47			0	38201	0	0	0	21410	19970	161768	27393	1056328	46314	107858	0	0	8222	557874	0	0
2024-10-16 10:20:47			0	38204	0	0	0	21418	19970	161864	27149	1056265	46325	107861	0	0	8222	557755	0	0
2024-10-16 10:21:47			0	38216	0	0	0	21418	19980	161840	27220	1056372	46337	107861	0	0	8223	557247	0	0
2024-10-16 10:22:47			0	38217	0	0	0	21407	19980	161716	27277	1056363	46326	107857	0	0	8223	557208	0	0
2024-10-16 10:23:47			0	38215	0	0	0	21423	19980	161776	27123	1056292	46337	107863	0	0	8223	557287	0	0
2024-10-16 10:24:47			0	38237	0	0	0	21423	19970	161672	27213	1056328	46335	107863	0	0	8224	556445	0	0
2024-10-16 10:25:47			0	38238	0	0	0	21428	19990	161652	27334	1056354	46337	107865	0	0	8224	556344	0	0
2024-10-16 10:26:47			0	38250	0	0	0	21431	19990	161560	27286	1056328	46327	107866	0	0	8225	555868	0	0
2024-10-16 10:27:47			0	38272	0	0	0	21428	19990	161572	27580	1056408	46337	107865	0	0	8226	554997	0	0
2024-10-16 10:28:47			0	38275	0	0	0	21433	19980	161492	27419	1056346	46349	107867	0	0	8226	554909	0	0
2024-10-16 10:29:47			0	38285	0	0	0	21438	19990	161584	27322	1056390	46327	107869	0	0	8227	554482	0	0
2024-10-16 10:30:47			0	38276	0	0	0	21444	20010	161488	27279	1056443	46329	107871	0	0	8226	554777	0	0
2024-10-16 10:31:47			0	38283	0	0	0	21454	20000	161604	27246	1056479	46338	107875	0	0	8226	554531	0	0
2024-10-16 10:32:47			0	38296	0	0	0	21449	20000	161448	27331	1056452	46338	107873	0	0	8227	554017	0	0
2024-10-16 10:33:47			0	38320	0	0	0	21449	20000	161428	27341	1056479	46338	107873	0	0	8228	553068	0	0
2024-10-16 10:34:47			0	38313	0	0	0	21446	20010	161380	27441	1056470	46339	107872	0	0	8228	553314	0	0
2024-10-16 10:35:47			0	38314	0	0	0	21464	20010	161372	27222	1056550	46329	107879	0	0	8228	553275	0	0
2024-10-16 10:36:47			0	38282	0	0	0	21464	20010	161420	27372	1056506	46340	107879	0	0	8226	554540	0	0
2024-10-16 10:37:47			0	38263	0	0	0	21464	20020	161624	27433	1056594	46330	107879	0	0	8225	555261	0	0
2024-10-16 10:38:47			0	38225	0	0	0	21462	20010	161648	27395	1056523	46339	107878	0	0	8223	556798	0	0
2024-10-16 10:39:47			0	38231	0	0	0	21467	20020	161632	27289	1056541	46330	107880	0	0	8223	556530	0	0
2024-10-16 10:40:47			0	38263	0	0	0	21462	20020	161576	27557	1056550	46331	107878	0	0	8225	555261	0	0
2024-10-16 10:41:47			0	38277	0	0	0	21472	20030	161476	27476	1056612	46331	107882	0	0	8226	554677	0	0
2024-10-16 10:42:47			0	38296	0	0	0	21462	20020	161404	27393	1056550	46341	107878	0	0	8227	553956	0	0
2024-10-16 10:43:47			0	38285	0	0	0	21475	20030	161460	27329	1056612	46331	107883	0	0	8226	554360	0	0
2024-10-16 10:44:47			0	38277	0	0	0	21475	20030	161488	27488	1056621	46342	107883	0	0	8226	554677	0	0
2024-10-16 10:45:47			0	38277	0	0	0	21477	20030	161452	27369	1056595	46332	107884	0	0	8226	554677	0	0
2024-10-16 10:46:47			0	38285	0	0	0	21488	20040	161500	27358	1056612	46333	107888	0	0	8226	554330	0	0
2024-10-16 10:47:47			0	38311	0	0	0	21483	20030	161416	27372	1056639	46331	107886	0	0	8228	553332	0	0
2024-10-16 10:48:47			0	38325	0	0	0	21493	20040	161320	27428	1056603	46332	107890	0	0	8228	552749	0	0
2024-10-16 10:49:47			0	38352	0	0	0	21488	20050	161308	27580	1056701	46333	107888	0	0	8230	551653	0	0
2024-10-16 10:50:47			0	38365	0	0	0	21493	20040	161020	27211	1056639	46343	107890	0	0	8231	551171	0	0
2024-10-16 10:51:47			0	38411	0	0	0	21490	20050	160944	27218	1056737	46344	107889	0	0	8233	549329	0	0
2024-10-16 10:52:47			0	38428	0	0	0	21501	20050	160900	27369	1056728	46333	107893	0	0	8234	548661	0	0
2024-10-16 10:53:47			0	38439	0	0	0	21498	20060	160892	27275	1056719	46333	107892	0	0	8235	548198	0	0
2024-10-16 10:54:47			0	38459	0	0	0	21509	20050	160772	27433	1056710	46344	107896	0	0	8236	547443	0	0
2024-10-16 10:55:47			0	38459	0	0	0	21509	20050	160652	27277	1056701	46333	107896	0	0	8236	547443	0	0
2024-10-16 10:56:47			0	38501	0	0	0	21503	20050	160528	27350	1056790	46344	107894	0	0	8238	545796	0	0
2024-10-16 10:57:47			0	38518	0	0	0	21514	20060	160580	27329	1056772	46333	107898	0	0	8239	545100	0	0
2024-10-16 10:58:47			0	38541	0	0	0	21514	20070	160372	27557	1056790	46346	107898	0	0	8241	544170	0	0
2024-10-16 10:59:47			0	38528	0	0	0	21522	20070	160472	27682	1056763	46335	107901	0	0	8240	544679	0	0
2024-10-16 11:00:47			0	38540	0	0	0	21516	20060	160444	27270	1056781	46345	107899	0	0	8240	544239	0	0
2024-10-16 11:01:47			0	38550	0	0	0	21514	20070	160348	27523	1056852	46335	107898	0	0	8241	543818	0	0
2024-10-16 11:02:47			0	38554	0	0	0	21519	20070	160288	27310	1056826	46346	107900	0	0	8241	543662	0	0
2024-10-16 11:03:47			0	38589	0	0	0	21529	20070	160276	27144	1056799	46335	107904	0	0	8243	542295	0	0
2024-10-16 11:04:47			0	38591	0	0	0	21529	20080	160148	27374	1056888	46336	107904	0	0	8243	542187	0	0
2024-10-16 11:05:47			0	38608	0	0	0	21527	20080	160076	27490	1056835	46326	107903	0	0	8244	541524	0	0
2024-10-16 11:06:47			0	38624	0	0	0	21529	20080	160040	27377	1056808	46347	107904	0	0	8245	540901	0	0
2024-10-16 11:07:47			0	38623	0	0	0	21535	20080	160084	27298	1056870	46347	107906	0	0	8245	540940	0	0
2024-10-16 11:08:47			0	38631	0	0	0	21535	20080	160040	27218	1056870	46347	107906	0	0	8246	540628	0	0
2024-10-16 11:09:47			0	38634	0	0	0	21532	20080	160072	27497	1056897	46347	107905	0	0	8246	540511	0	0
2024-10-16 11:10:47			0	38632	0	0	0	21535	20090	160056	27412	1056906	46337	107906	0	0	8246	540559	0	0
2024-10-16 11:11:47			0	38617	0	0	0	21537	20090	160040	27192	1056906	46348	107907	0	0	8245	541144	0	0
2024-10-16 11:12:47			0	38627	0	0	0	21537	20100	160140	27396	1056950	46338	107907	0	0	8245	540724	0	0
2024-10-16 11:13:47			0	38603	0	0	0	21532	20100	160112	27350	1056933	46338	107905	0	0	8244	541659	0	0
2024-10-16 11:14:47			0	38601	0	0	0	21527	20100	160112	27665	1056933	46338	107903	0	0	8244	541737	0	0
2024-10-16 11:15:47			0	38581	0	0	0	21522	20100	160192	27466	1056950	46328	107901	0	0	8243	542518	0	0
2024-10-16 11:16:47			0	38603	0	0	0	21527	20100	160228	27613	1056897	46328	107903	0	0	8244	541659	0	0
2024-10-16 11:17:47			0	38597	0	0	0	21535	20090	160192	27204	1056915	46327	107906	0	0	8244	541923	0	0
2024-10-16 11:18:47			0	38613	0	0	0	21532	20100	160068	27415	1056897	46338	107905	0	0	8245	541270	0	0
2024-10-16 11:19:47			0	38626	0	0	0	21545	20090	159964	27358	1056915	46348	107910	0	0	8245	540793	0	0
2024-10-16 11:20:47			0	38639	0	0	0	21529	20100	160104	27497	1056950	46349	107904	0	0	8246	540257	0	0
2024-10-16 11:21:47			0	38662	0	0	0	21537	20100	160012	27334	1056933	46328	107907	0	0	8247	539362	0	0
2024-10-16 11:22:47			0	38655	0	0	0	21537	20100	159992	27779	1056950	46328	107907	0	0	8247	539634	0	0
2024-10-16 11:23:47			0	38648	0	0	0	21537	20100	159992	27505	1056950	46349	107907	0	0	8247	539906	0	0
2024-10-16 11:24:47			0	38659	0	0	0	21537	20100	159952	27518	1056897	46349	107907	0	0	8247	539478	0	0
2024-10-16 11:25:47			0	38649	0	0	0	21542	20100	159980	27336	1056977	46338	107909	0	0	8247	539868	0	0
2024-10-16 11:26:47			0	38641	0	0	0	21535	20100	159936	27713	1056933	46328	107906	0	0	8246	540179	0	0
2024-10-16 11:27:47			0	38649	0	0	0	21537	20100	160012	27623	1057013	46349	107907	0	0	8247	539868	0	0
2024-10-16 11:28:47			0	38670	0	0	0	21532	20100	159812	27500	1056897	46328	107905	0	0	8248	539051	0	0
2024-10-16 11:29:47			0	38669	0	0	0	21529	20100	159836	27249	1056950	46338	107904	0	0	8248	539090	0	0
2024-10-16 11:30:47			0	38676	0	0	0	21532	20100	159820	27326	1056977	46328	107905	0	0	8248	538818	0	0
2024-10-16 11:31:47			0	38687	0	0	0	21527	20100	159864	27779	1056959	46328	107903	0	0	8249	538390	0	0
2024-10-16 11:32:47			0	38666	0	0	0	21532	20100	159832	27225	1056977	46328	107905	0	0	8248	539206	0	0
2024-10-16 11:33:47			0	38680	0	0	0	21535	20090	159932	27580	1056862	46327	107906	0	0	8248	538692	0	0
2024-10-16 11:34:47			0	38668	0	0	0	21532	20100	159900	27383	1056897	46338	107905	0	0	8248	539129	0	0
2024-10-16 11:35:47			0	38676	0	0	0	21532	20090	159972	27609	1056862	46316	107905	0	0	8248	538847	0	0
2024-10-16 11:36:47			0	38675	0	0	0	21522	20100	159956	27590	1056950	46328	107901	0	0	8248	538856	0	0
2024-10-16 11:37:47			0	38641	0	0	0	21514	20090	160000	27315	1056862	46337	107898	0	0	8247	540209	0	0
2024-10-16 11:38:47			0	38623	0	0	0	21516	20100	160200	27661	1056897	46349	107899	0	0	8245	540880	0	0
2024-10-16 11:39:47			0	38594	0	0	0	21519	20090	160296	27498	1056862	46348	107900	0	0	8244	542040	0	0
2024-10-16 11:40:47			0	38591	0	0	0	21509	20090	160388	27371	1056809	46337	107896	0	0	8244	542157	0	0
2024-10-16 11:41:47			0	38566	0	0	0	21498	20100	160296	27447	1056871	46328	107892	0	0	8242	543103	0	0
2024-10-16 11:42:47			0	38559	0	0	0	21503	20090	160428	27542	1056826	46327	107894	0	0	8242	543407	0	0
2024-10-16 11:43:47			0	38563	0	0	0	21506	20090	160308	27185	1056862	46337	107895	0	0	8242	543250	0	0
2024-10-16 11:44:47			0	38565	0	0	0	21514	20080	160356	27327	1056835	46347	107898	0	0	8242	543202	0	0
2024-10-16 11:45:47			0	38553	0	0	0	21506	20090	160492	27606	1056879	46327	107895	0	0	8242	543641	0	0
2024-10-16 11:46:47			0	38568	0	0	0	21516	20080	160424	27535	1056817	46336	107899	0	0	8242	543085	0	0
2024-10-16 11:47:47			0	38567	0	0	0	21519	20090	160404	27762	1056888	46337	107900	0	0	8242	543094	0	0
2024-10-16 11:48:47			0	38576	0	0	0	21511	20090	160344	27679	1056879	46348	107897	0	0	8243	542743	0	0
2024-10-16 11:49:47			0	38578	0	0	0	21522	20080	160204	27576	1056861	46336	107901	0	0	8243	542695	0	0
2024-10-16 11:50:47			0	38586	0	0	0	21522	20090	160208	27679	1056879	46337	107901	0	0	8243	542352	0	0
2024-10-16 11:51:47			0	38584	0	0	0	21522	20090	160264	27526	1056888	46327	107901	0	0	8243	542431	0	0
2024-10-16 11:52:47			0	38604	0	0	0	21524	20090	160204	27680	1056888	46348	107902	0	0	8244	541650	0	0
2024-10-16 11:53:47			0	38608	0	0	0	21529	20080	160180	27552	1056897	46336	107904	0	0	8244	541524	0	0
2024-10-16 11:54:47			0	38602	0	0	0	21537	20090	160220	27592	1057021	46348	107907	0	0	8244	541728	0	0
2024-10-16 11:55:47			0	38626	0	0	0	21545	20090	160156	27265	1056942	46348	107910	0	0	8245	540793	0	0
2024-10-16 11:56:47			0	38600	0	0	0	21550	20100	160204	27464	1056950	46338	107912	0	0	8244	541777	0	0
2024-10-16 11:57:47			0	38626	0	0	0	21550	20100	160156	27573	1056959	46349	107912	0	0	8245	540763	0	0
2024-10-16 11:58:47			0	38631	0	0	0	21553	20100	160080	27396	1056959	46338	107913	0	0	8245	540568	0	0
2024-10-16 11:59:47			0	38648	0	0	0	21548	20100	159864	27580	1056986	46338	107911	0	0	8246	539906	0	0
2024-10-16 12:00:47			0	38672	0	0	0	21555	20110	159904	27388	1056995	46339	107914	0	0	8248	538943	0	0
2024-10-16 12:01:47			0	38706	0	0	0	21550	20100	159784	27675	1057039	46328	107912	0	0	8250	537652	0	0
2024-10-16 12:02:47			0	38699	0	0	0	21558	20110	159688	27421	1056995	46339	107915	0	0	8249	537894	0	0
2024-10-16 12:03:47			0	38739	0	0	0	21561	20110	159649	27229	1056968	46351	107916	0	0	8252	536342	0	0
2024-10-16 12:04:47			0	38737	0	0	0	21561	20110	159609	27239	1057057	46351	107916	0	0	8251	536420	0	0
2024-10-16 12:05:47			0	38758	0	0	0	21561	20120	159617	27554	1057128	46341	107916	0	0	8253	535577	0	0
2024-10-16 12:06:47			0	38756	0	0	0	21568	20110	159581	27670	1057110	46351	107919	0	0	8252	535684	0	0
2024-10-16 12:07:47			0	38771	0	0	0	21561	20120	159525	27874	1057039	46340	107916	0	0	8253	535073	0	0
2024-10-16 12:08:47			0	38761	0	0	0	21568	20120	159533	27537	1057048	46352	107919	0	0	8253	535461	0	0
2024-10-16 12:09:47			0	38758	0	0	0	21566	20130	159541	27701	1057031	46341	107918	0	0	8253	535547	0	0
2024-10-16 12:10:47			0	38749	0	0	0	21568	20130	159569	27409	1057084	46341	107919	0	0	8252	535896	0	0
2024-10-16 12:11:47			0	38794	0	0	0	21573	20120	159449	27713	1057102	46352	107921	0	0	8255	534184	0	0
2024-10-16 12:12:47			0	38827	0	0	0	21579	20120	159285	27777	1057102	46341	107923	0	0	8256	532909	0	0
2024-10-16 12:13:47			0	38850	0	0	0	21579	20120	159245	27530	1057102	46341	107923	0	0	8258	532021	0	0
2024-10-16 12:14:47			0	38849	0	0	0	21579	20130	159189	27530	1057093	46341	107923	0	0	8258	532030	0	0
2024-10-16 12:15:47			0	38837	0	0	0	21581	20140	159289	27750	1057102	46353	107924	0	0	8257	532464	0	0
2024-10-16 12:16:47			0	38836	0	0	0	21573	20140	159237	27438	1057155	46342	107921	0	0	8257	532503	0	0
2024-10-16 12:17:47			0	38826	0	0	0	21579	20140	159357	27464	1057128	46353	107923	0	0	8256	532888	0	0
2024-10-16 12:18:47			0	38823	0	0	0	21566	20140	159329	27338	1057128	46332	107918	0	0	8256	533004	0	0
2024-10-16 12:19:47			0	38829	0	0	0	21581	20130	159341	27731	1057120	46352	107924	0	0	8257	532802	0	0
2024-10-16 12:20:47			0	38839	0	0	0	21568	20150	159185	27398	1057200	46355	107919	0	0	8257	532357	0	0
2024-10-16 12:21:47			0	38857	0	0	0	21589	20140	159169	27183	1057208	46353	107927	0	0	8258	531692	0	0
2024-10-16 12:22:47			0	38855	0	0	0	21586	20130	159221	27492	1057120	46341	107926	0	0	8258	531799	0	0
2024-10-16 12:23:47			0	38869	0	0	0	21584	20140	159073	27845	1057208	46353	107925	0	0	8259	531230	0	0
2024-10-16 12:24:47			0	38856	0	0	0	21592	20150	159045	27275	1057093	46333	107928	0	0	8258	531702	0	0
2024-10-16 12:25:47			0	38855	0	0	0	21584	20150	159165	27493	1057253	46333	107925	0	0	8258	531740	0	0
2024-10-16 12:26:47			0	38844	0	0	0	21581	20140	159301	27762	1057261	46342	107924	0	0	8257	532194	0	0
2024-10-16 12:27:47			0	38854	0	0	0	21594	20150	159217	27405	1057146	46355	107929	0	0	8258	531779	0	0
2024-10-16 12:28:47			0	38849	0	0	0	21599	20150	159097	27248	1057235	46343	107931	0	0	8257	531972	0	0
2024-10-16 12:29:47			0	38873	0	0	0	21592	20150	158981	27166	1057226	46355	107928	0	0	8259	531046	0	0
2024-10-16 12:30:47			0	38871	0	0	0	21610	20150	159025	27237	1057235	46343	107935	0	0	8259	531124	0	0
2024-10-16 12:31:47			0	38881	0	0	0	21605	20160	159013	27199	1057271	46356	107933	0	0	8259	530709	0	0
2024-10-16 12:32:47			0	38883	0	0	0	21612	20160	158961	27149	1057244	46344	107936	0	0	8259	530632	0	0
2024-10-16 12:33:47			0	38931	0	0	0	21620	20170	158813	27393	1057289	46357	107939	0	0	8262	528756	0	0
2024-10-16 12:34:47			0	38899	0	0	0	21612	20170	158909	27426	1057395	46345	107936	0	0	8260	529987	0	0
2024-10-16 12:35:47			0	38890	0	0	0	21618	20160	158849	27196	1057280	46357	107938	0	0	8260	530362	0	0
2024-10-16 12:36:47			0	38922	0	0	0	21610	20170	158797	27274	1057342	46334	107935	0	0	8262	529102	0	0
2024-10-16 12:37:47			0	38903	0	0	0	21615	20170	158933	27443	1057351	46346	107937	0	0	8260	529833	0	0
2024-10-16 12:38:47			0	38896	0	0	0	21610	20170	158857	27294	1057377	46346	107935	0	0	8260	530102	0	0
2024-10-16 12:39:47			0	38905	0	0	0	21610	20180	158985	27457	1057395	46359	107935	0	0	8261	529727	0	0
2024-10-16 12:40:47			0	38897	0	0	0	21610	20170	158873	27724	1057324	46335	107935	0	0	8260	530064	0	0
2024-10-16 12:41:47			0	38880	0	0	0	21612	20170	158957	27677	1057351	46346	107936	0	0	8259	530718	0	0
2024-10-16 12:42:47			0	38895	0	0	0	21612	20170	158933	27753	1057342	46357	107936	0	0	8260	530141	0	0
2024-10-16 12:43:47			0	38885	0	0	0	21612	20170	158793	27235	1057324	46358	107936	0	0	8259	530526	0	0
2024-10-16 12:44:47			0	38890	0	0	0	21610	20170	158805	27190	1057351	46346	107935	0	0	8260	530333	0	0
2024-10-16 12:45:47			0	38905	0	0	0	21602	20170	158853	27435	1057289	46345	107932	0	0	8261	529756	0	0
2024-10-16 12:46:47			0	38902	0	0	0	21612	20180	158901	27509	1057422	46347	107936	0	0	8260	529842	0	0
2024-10-16 12:47:47			0	38905	0	0	0	21612	20180	158825	27623	1057369	46336	107936	0	0	8261	529727	0	0
2024-10-16 12:48:47			0	38920	0	0	0	21610	20180	158773	27535	1057360	46358	107935	0	0	8262	529150	0	0
2024-10-16 12:49:47			0	38888	0	0	0	21610	20180	158885	27623	1057306	46346	107935	0	0	8260	530381	0	0
2024-10-16 12:50:47			0	38886	0	0	0	21612	20190	159049	27807	1057324	46348	107936	0	0	8260	530429	0	0
2024-10-16 12:51:47			0	38866	0	0	0	21610	20180	159029	27400	1057315	46359	107935	0	0	8258	531228	0	0
2024-10-16 12:52:47			0	38901	0	0	0	21615	20180	158929	27350	1057342	46347	107937	0	0	8260	529881	0	0
2024-10-16 12:53:47			0	38900	0	0	0	21620	20180	158809	27711	1057395	46359	107939	0	0	8260	529919	0	0
2024-10-16 12:54:47			0	38887	0	0	0	21618	20180	158957	27556	1057360	46335	107938	0	0	8259	530419	0	0
2024-10-16 12:55:47			0	38903	0	0	0	21612	20180	158977	27675	1057369	46347	107936	0	0	8261	529804	0	0
2024-10-16 12:56:47			0	38916	0	0	0	21612	20190	158909	27767	1057378	46360	107936	0	0	8261	529274	0	0
2024-10-16 12:57:47			0	38897	0	0	0	21615	20190	158941	27597	1057386	46348	107937	0	0	8260	530005	0	0
2024-10-16 12:58:47			0	38873	0	0	0	21615	20190	158973	27467	1057360	46348	107937	0	0	8259	530929	0	0
2024-10-16 12:59:47			0	38852	0	0	0	21618	20180	159049	27393	1057369	46336	107938	0	0	8257	531768	0	0
2024-10-16 13:00:47			0	38850	0	0	0	21620	20190	159057	27428	1057333	46348	107939	0	0	8257	531816	0	0
2024-10-16 13:01:47			0	38860	0	0	0	21620	20180	159169	27543	1057395	46347	107939	0	0	8258	531459	0	0
2024-10-16 13:02:47			0	38828	0	0	0	21612	20180	159137	27364	1057395	46336	107936	0	0	8256	532694	0	0
2024-10-16 13:03:47			0	38832	0	0	0	21618	20180	159189	27192	1057395	46347	107938	0	0	8256	532539	0	0
2024-10-16 13:04:47			0	38812	0	0	0	21620	20190	159237	27412	1057386	46360	107939	0	0	8255	533282	0	0
2024-10-16 13:05:47			0	38823	0	0	0	21610	20190	159233	27479	1057386	46337	107935	0	0	8256	532857	0	0
2024-10-16 13:06:47			0	38825	0	0	0	21612	20200	159201	27582	1057475	46337	107936	0	0	8256	532751	0	0
2024-10-16 13:07:47			0	38814	0	0	0	21620	20180	159213	27369	1057395	46347	107939	0	0	8255	533234	0	0
2024-10-16 13:08:47			0	38798	0	0	0	21628	20190	159229	27015	1057386	46348	107942	0	0	8254	533823	0	0
2024-10-16 13:09:47			0	38815	0	0	0	21628	20190	159233	27301	1057440	46360	107942	0	0	8255	533166	0	0
2024-10-16 13:10:47			0	38801	0	0	0	21625	20190	159297	27322	1057457	46337	107941	0	0	8254	533707	0	0
2024-10-16 13:11:47			0	38798	0	0	0	21618	20190	159209	27178	1057431	46348	107938	0	0	8254	533823	0	0
2024-10-16 13:12:47			0	38806	0	0	0	21633	20200	159309	27142	1057449	46348	107944	0	0	8255	533484	0	0
2024-10-16 13:13:47			0	38802	0	0	0	21633	20190	159217	27428	1057440	46348	107944	0	0	8254	533668	0	0
2024-10-16 13:14:47			0	38803	0	0	0	21628	20190	159237	27144	1057431	46337	107942	0	0	8254	533630	0	0
2024-10-16 13:15:47			0	38814	0	0	0	21631	20200	159265	27383	1057475	46348	107943	0	0	8255	533175	0	0
2024-10-16 13:16:47			0	38830	0	0	0	21620	20200	159221	27258	1057431	46349	107939	0	0	8256	532558	0	0
2024-10-16 13:17:47			0	38813	0	0	0	21631	20200	159141	27447	1057369	46348	107943	0	0	8255	533214	0	0
2024-10-16 13:18:47			0	38824	0	0	0	21628	20190	159041	27421	1057493	46348	107942	0	0	8256	532819	0	0
2024-10-16 13:19:47			0	38843	0	0	0	21631	20200	158953	27128	1057395	46360	107943	0	0	8257	532056	0	0
2024-10-16 13:20:47			0	38869	0	0	0	21636	20200	158897	27149	1057449	46371	107945	0	0	8258	531054	0	0
2024-10-16 13:21:47			0	38908	0	0	0	21631	20200	158829	27272	1057458	46349	107943	0	0	8261	529553	0	0
2024-10-16 13:22:47			0	38935	0	0	0	21633	20200	158737	27594	1057484	46361	107944	0	0	8262	528515	0	0
2024-10-16 13:23:47			0	38951	0	0	0	21633	20200	158665	27424	1057511	46349	107944	0	0	8263	527901	0	0
2024-10-16 13:24:47			0	38961	0	0	0	21644	20200	158597	27571	1057369	46348	107948	0	0	8263	527517	0	0
2024-10-16 13:25:47			0	38983	0	0	0	21641	20210	158581	27213	1057467	46350	107947	0	0	8265	526644	0	0
2024-10-16 13:26:47			0	38978	0	0	0	21641	20200	158541	27255	1057475	46360	107947	0	0	8264	526865	0	0
2024-10-16 13:27:47			0	38955	0	0	0	21646	20210	158469	27414	1057467	46350	107949	0	0	8263	527718	0	0
2024-10-16 13:28:47			0	38933	0	0	0	21628	20200	158661	27562	1057422	46348	107942	0	0	8262	528592	0	0
2024-10-16 13:29:47			0	38944	0	0	0	21638	20200	158761	27590	1057458	46349	107946	0	0	8263	528169	0	0
2024-10-16 13:30:47			0	38924	0	0	0	21636	20200	158845	27229	1057475	46360	107945	0	0	8261	528938	0	0
2024-10-16 13:31:47			0	38866	0	0	0	21636	20200	158937	27630	1057431	46349	107945	0	0	8258	531169	0	0
2024-10-16 13:32:47			0	38892	0	0	0	21644	20210	159041	27443	1057440	46350	107948	0	0	8259	530139	0	0
2024-10-16 13:33:47			0	38859	0	0	0	21638	20210	158981	27225	1057493	46350	107946	0	0	8258	531410	0	0
2024-10-16 13:34:47			0	38838	0	0	0	21631	20200	159033	27343	1057511	46338	107943	0	0	8257	532249	0	0
2024-10-16 13:35:47			0	38866	0	0	0	21636	20200	158909	27552	1057511	46338	107945	0	0	8258	531169	0	0
2024-10-16 13:36:47			0	38908	0	0	0	21633	20200	158905	27393	1057449	46337	107944	0	0	8261	529553	0	0
2024-10-16 13:37:47			0	38927	0	0	0	21638	20200	158785	27258	1057484	46349	107946	0	0	8262	528822	0	0
2024-10-16 13:38:47			0	38936	0	0	0	21644	20200	158789	27398	1057431	46372	107948	0	0	8262	528477	0	0
2024-10-16 13:39:47			0	38947	0	0	0	21644	20200	158629	27072	1057484	46349	107948	0	0	8263	528054	0	0
2024-10-16 13:40:47			0	38941	0	0	0	21644	20210	158609	27557	1057440	46329	107948	0	0	8262	528255	0	0
2024-10-16 13:41:47			0	38956	0	0	0	21638	20200	158653	27152	1057484	46361	107946	0	0	8263	527709	0	0
2024-10-16 13:42:47			0	38971	0	0	0	21636	20210	158625	27312	1057467	46350	107945	0	0	8264	527104	0	0
2024-10-16 13:43:47			0	38979	0	0	0	21646	20200	158565	27246	1057537	46361	107949	0	0	8264	526826	0	0
2024-10-16 13:44:47			0	38984	0	0	0	21636	20210	158549	27376	1057546	46373	107945	0	0	8265	526606	0	0
2024-10-16 13:45:47			0	38998	0	0	0	21641	20210	158497	27124	1057493	46362	107947	0	0	8266	526069	0	0
2024-10-16 13:46:47			0	39032	0	0	0	21638	20210	158357	27239	1057546	46339	107946	0	0	8268	524768	0	0
2024-10-16 13:47:47			0	39014	0	0	0	21636	20210	158405	27637	1057546	46362	107945	0	0	8267	525457	0	0
2024-10-16 13:48:47			0	39017	0	0	0	21636	20210	158465	27206	1057546	46350	107945	0	0	8267	525342	0	0
2024-10-16 13:49:47			0	39011	0	0	0	21638	20200	158521	27334	1057458	46361	107946	0	0	8266	525600	0	0
2024-10-16 13:50:47			0	39010	0	0	0	21633	20210	158389	27400	1057449	46350	107944	0	0	8267	525610	0	0
2024-10-16 13:51:47			0	39016	0	0	0	21636	20210	158361	27537	1057467	46350	107945	0	0	8267	525380	0	0
2024-10-16 13:52:47			0	39028	0	0	0	21633	20200	158369	27241	1057511	46338	107944	0	0	8268	524950	0	0
2024-10-16 13:53:47			0	39033	0	0	0	21636	20210	158445	27324	1057467	46350	107945	0	0	8268	524729	0	0
2024-10-16 13:54:47			0	39049	0	0	0	21644	20210	158413	27725	1057546	46362	107948	0	0	8269	524118	0	0
2024-10-16 13:55:47			0	39059	0	0	0	21638	20200	158149	27450	1057528	46360	107946	0	0	8269	523765	0	0
2024-10-16 13:56:47			0	39071	0	0	0	21638	20200	158125	27286	1057511	46349	107946	0	0	8270	523306	0	0
2024-10-16 13:57:47			0	39105	0	0	0	21649	20210	158209	27370	1057529	46362	107950	0	0	8272	521980	0	0
2024-10-16 13:58:47			0	39140	0	0	0	21649	20210	157885	27521	1057520	46350	107950	0	0	8274	520646	0	0
2024-10-16 13:59:47			0	39167	0	0	0	21646	20220	157829	27455	1057458	46350	107949	0	0	8275	519590	0	0
2024-10-16 14:00:47			0	39146	0	0	0	21644	20220	157909	27258	1057538	46350	107948	0	0	8274	520389	0	0
2024-10-16 14:01:47			0	39121	0	0	0	21651	20210	157989	27559	1057467	46362	107951	0	0	8273	521370	0	0
2024-10-16 14:02:47			0	39127	0	0	0	21644	20210	157993	27514	1057529	46339	107948	0	0	8273	521141	0	0
2024-10-16 14:03:47			0	39111	0	0	0	21646	20220	158089	27800	1057494	46363	107949	0	0	8272	521722	0	0
2024-10-16 14:04:47			0	39094	0	0	0	21649	20200	158165	27317	1057484	46361	107950	0	0	8271	522428	0	0
2024-10-16 14:05:47			0	39082	0	0	0	21657	20220	158209	27220	1057538	46362	107953	0	0	8270	522828	0	0
2024-10-16 14:06:47			0	39094	0	0	0	21644	20220	158149	27625	1057538	46350	107948	0	0	8271	522370	0	0
2024-10-16 14:07:47			0	39107	0	0	0	21657	20210	158169	27429	1057555	46350	107953	0	0	8272	521904	0	0
2024-10-16 14:08:47			0	39095	0	0	0	21657	20210	158069	27746	1057582	46350	107953	0	0	8271	522361	0	0
2024-10-16 14:09:47			0	39082	0	0	0	21651	20210	158129	27422	1057529	46350	107951	0	0	8270	522857	0	0
2024-10-16 14:10:47			0	39102	0	0	0	21657	20210	158089	27642	1057555	46350	107953	0	0	8271	522094	0	0
2024-10-16 14:11:47			0	39107	0	0	0	21664	20220	158117	27656	1057547	46363	107956	0	0	8272	521875	0	0
2024-10-16 14:12:47			0	39105	0	0	0	21659	20220	158113	27467	1057538	46362	107954	0	0	8272	521951	0	0
2024-10-16 14:13:47			0	39105	0	0	0	21657	20220	158057	27868	1057591	46362	107953	0	0	8272	521951	0	0
2024-10-16 14:14:47			0	39094	0	0	0	21654	20210	158081	27454	1057529	46362	107952	0	0	8271	522399	0	0
2024-10-16 14:15:47			0	39076	0	0	0	21657	20220	158129	27836	1057547	46374	107953	0	0	8270	523057	0	0
2024-10-16 14:16:47			0	39083	0	0	0	21651	20230	158109	27687	1057609	46352	107951	0	0	8271	522761	0	0
2024-10-16 14:17:47			0	39075	0	0	0	21657	20220	158173	27644	1057600	46363	107953	0	0	8270	523096	0	0
2024-10-16 14:18:47			0	39064	0	0	0	21657	20220	158229	27535	1057547	46351	107953	0	0	8269	523516	0	0
2024-10-16 14:19:47			0	39061	0	0	0	21664	20230	158365	27372	1057583	46352	107956	0	0	8269	523601	0	0
2024-10-16 14:20:47			0	39037	0	0	0	21659	20220	158433	27644	1057520	46351	107954	0	0	8268	524548	0	0
2024-10-16 14:21:47			0	39040	0	0	0	21654	20210	158301	27592	1057582	46362	107952	0	0	8268	524462	0	0
2024-10-16 14:22:47			0	39062	0	0	0	21654	20210	158269	27568	1057555	46350	107952	0	0	8269	523621	0	0
2024-10-16 14:23:47			0	39082	0	0	0	21667	20230	158237	27343	1057609	46364	107957	0	0	8270	522799	0	0
2024-10-16 14:24:47			0	39061	0	0	0	21659	20230	158217	27627	1057609	46352	107954	0	0	8269	523601	0	0
2024-10-16 14:25:47			0	39079	0	0	0	21662	20220	158177	27552	1057627	46363	107955	0	0	8270	522943	0	0
2024-10-16 14:26:47			0	39086	0	0	0	21659	20220	158017	27417	1057627	46351	107954	0	0	8271	522676	0	0
2024-10-16 14:27:47			0	39088	0	0	0	21667	20230	158205	27362	1057636	46341	107957	0	0	8271	522571	0	0
2024-10-16 14:28:47			0	39087	0	0	0	21667	20230	158105	27684	1057618	46352	107957	0	0	8270	522609	0	0
2024-10-16 14:29:47			0	39105	0	0	0	21675	20230	158049	27757	1057583	46352	107960	0	0	8271	521922	0	0
2024-10-16 14:30:47			0	39121	0	0	0	21667	20240	157933	27741	1057680	46364	107957	0	0	8273	521284	0	0
2024-10-16 14:31:47			0	39114	0	0	0	21672	20230	158105	27819	1057645	46352	107959	0	0	8272	521579	0	0
2024-10-16 14:32:47			0	39110	0	0	0	21672	20230	158061	27677	1057565	46352	107959	0	0	8272	521732	0	0
2024-10-16 14:33:47			0	39103	0	0	0	21675	20240	157961	27630	1057627	46364	107960	0	0	8271	521970	0	0
2024-10-16 14:34:47			0	39125	0	0	0	21662	20240	157993	27722	1057627	46352	107955	0	0	8273	521131	0	0
2024-10-16 14:35:47			0	39115	0	0	0	21670	20240	157925	27545	1057627	46352	107958	0	0	8272	521512	0	0
2024-10-16 14:36:47			0	39150	0	0	0	21677	20240	157773	27679	1057636	46353	107961	0	0	8274	520179	0	0
2024-10-16 14:37:47			0	39160	0	0	0	21670	20230	157741	27646	1057618	46352	107958	0	0	8275	519828	0	0
2024-10-16 14:38:47			0	39179	0	0	0	21667	20240	157737	27654	1057627	46352	107957	0	0	8276	519077	0	0
2024-10-16 14:39:47			0	39169	0	0	0	21672	20240	157705	27836	1057627	46352	107959	0	0	8275	519457	0	0
2024-10-16 14:40:47			0	39201	0	0	0	21680	20240	157749	27573	1057680	46352	107962	0	0	8277	518241	0	0
2024-10-16 14:41:47			0	39212	0	0	0	21672	20240	157629	27338	1057663	46365	107959	0	0	8278	517823	0	0
2024-10-16 14:42:47			0	39209	0	0	0	21672	20240	157649	27454	1057636	46365	107959	0	0	8278	517937	0	0
2024-10-16 14:43:47			0	39177	0	0	0	21680	20240	157741	27784	1057627	46352	107962	0	0	8276	519153	0	0
2024-10-16 14:44:47			0	39203	0	0	0	21670	20240	157645	27564	1057680	46364	107958	0	0	8277	518165	0	0
2024-10-16 14:45:47			0	39252	0	0	0	21680	20250	157545	27573	1057725	46366	107962	0	0	8280	516278	0	0
2024-10-16 14:46:47			0	39288	0	0	0	21685	20240	157445	27616	1057707	46364	107964	0	0	8282	514944	0	0
2024-10-16 14:47:47			0	39278	0	0	0	21680	20250	157349	27592	1057618	46354	107962	0	0	8281	515294	0	0
2024-10-16 14:48:47			0	39256	0	0	0	21683	20250	157461	27275	1057725	46366	107963	0	0	8280	516127	0	0
2024-10-16 14:49:47			0	39304	0	0	0	21683	20250	157277	27783	1057725	46366	107963	0	0	8283	514310	0	0
2024-10-16 14:50:47			0	39391	0	0	0	21690	20240	156965	27731	1057680	46352	107966	0	0	8288	511056	0	0
2024-10-16 14:51:47			0	39427	0	0	0	21690	20240	156726	27500	1057733	46352	107966	0	0	8290	509701	0	0
2024-10-16 14:52:47			0	39465	0	0	0	21693	20260	156606	27741	1057734	46367	107967	0	0	8292	508217	0	0
2024-10-16 14:53:47			0	39504	0	0	0	21698	20240	156486	27301	1057769	46365	107969	0	0	8294	506811	0	0
2024-10-16 14:54:47			0	39553	0	0	0	21696	20260	156338	27651	1057760	46367	107968	0	0	8297	504920	0	0
2024-10-16 14:55:47			0	39549	0	0	0	21690	20270	156386	27727	1057752	46367	107966	0	0	8297	505042	0	0
2024-10-16 14:56:47			0	39553	0	0	0	21688	20270	156274	27533	1057778	46344	107965	0	0	8297	504892	0	0
2024-10-16 14:57:47			0	39539	0	0	0	21696	20260	156298	28067	1057743	46356	107968	0	0	8296	505444	0	0
2024-10-16 14:58:47			0	39551	0	0	0	21693	20250	156438	27588	1057725	46343	107967	0	0	8297	505023	0	0
2024-10-16 14:59:47			0	39583	0	0	0	21696	20270	156238	27613	1057734	46368	107968	0	0	8299	503771	0	0
2024-10-16 15:00:47			0	39617	0	0	0	21698	20260	156078	27694	1057707	46367	107969	0	0	8301	502530	0	0
2024-10-16 15:01:47			0	39634	0	0	0	21693	20270	156010	27949	1057725	46367	107967	0	0	8302	501868	0	0
2024-10-16 15:02:47			0	39673	0	0	0	21696	20270	155894	28102	1057778	46356	107968	0	0	8304	500416	0	0
2024-10-16 15:03:47			0	39709	0	0	0	21703	20260	155742	27881	1057796	46367	107971	0	0	8306	499105	0	0
2024-10-16 15:04:47			0	39733	0	0	0	21703	20270	155682	27907	1057752	46356	107971	0	0	8307	498186	0	0
2024-10-16 15:05:47			0	39738	0	0	0	21711	20260	155598	27979	1057769	46367	107974	0	0	8308	498028	0	0
2024-10-16 15:06:47			0	39784	0	0	0	21696	20260	155498	27383	1057796	46356	107968	0	0	8310	496323	0	0
2024-10-16 15:07:47			0	39786	0	0	0	21701	20270	155390	27786	1057734	46357	107970	0	0	8311	496221	0	0
2024-10-16 15:08:47			0	39801	0	0	0	21709	20270	155298	27815	1057814	46368	107973	0	0	8311	495666	0	0
2024-10-16 15:09:47			0	39803	0	0	0	21706	20270	155250	27705	1057778	46356	107972	0	0	8311	495592	0	0
2024-10-16 15:10:47			0	39823	0	0	0	21711	20270	155354	27691	1057787	46357	107974	0	0	8313	494852	0	0
2024-10-16 15:11:47			0	39818	0	0	0	21711	20270	155314	27795	1057814	46368	107974	0	0	8312	495037	0	0
2024-10-16 15:12:47			0	39792	0	0	0	21698	20270	155430	28060	1057752	46367	107969	0	0	8311	495999	0	0
2024-10-16 15:13:47			0	39773	0	0	0	21714	20280	155458	27848	1057849	46358	107975	0	0	8310	496675	0	0
2024-10-16 15:14:47			0	39796	0	0	0	21714	20270	155326	27691	1057725	46377	107975	0	0	8311	495851	0	0
2024-10-16 15:15:47			0	39834	0	0	0	21716	20270	155318	27540	1057778	46377	107976	0	0	8313	494445	0	0
2024-10-16 15:16:47			0	39844	0	0	0	21724	20270	155182	27758	1057814	46368	107979	0	0	8314	494076	0	0
2024-10-16 15:17:47			0	39892	0	0	0	21722	20270	155038	27711	1057805	46356	107978	0	0	8316	492305	0	0
2024-10-16 15:18:47			0	39910	0	0	0	21732	20280	155034	27850	1057858	46379	107982	0	0	8317	491614	0	0
2024-10-16 15:19:47			0	39946	0	0	0	21724	20280	154930	27900	1057823	46369	107979	0	0	8319	490289	0	0
2024-10-16 15:20:47			0	39981	0	0	0	21745	20280	154822	27531	1057858	46369	107987	0	0	8321	489002	0	0
2024-10-16 15:21:47			0	39977	0	0	0	21737	20280	154614	27809	1057823	46369	107984	0	0	8321	489149	0	0
2024-10-16 15:22:47			0	40000	0	0	0	21742	20290	154626	27647	1057920	46390	107986	0	0	8322	488278	0	0
2024-10-16 15:23:47			0	39990	0	0	0	21737	20280	154638	27556	1057911	46379	107984	0	0	8322	488672	0	0
2024-10-16 15:24:47			0	40004	0	0	0	21742	20290	154658	27443	1057876	46370	107986	0	0	8323	488131	0	0
2024-10-16 15:25:47			0	40041	0	0	0	21740	20290	154554	27762	1057920	46379	107985	0	0	8325	486774	0	0
2024-10-16 15:26:47			0	40063	0	0	0	21745	20300	154386	27637	1057938	46371	107987	0	0	8326	485942	0	0
2024-10-16 15:27:47			0	40086	0	0	0	21748	20290	154278	27561	1057983	46359	107988	0	0	8327	485127	0	0
2024-10-16 15:28:47			0	40117	0	0	0	21742	20290	154255	27802	1057929	46370	107986	0	0	8329	483994	0	0
2024-10-16 15:29:47			0	40108	0	0	0	21745	20290	154183	27402	1057903	46359	107987	0	0	8328	484323	0	0
2024-10-16 15:30:47			0	40118	0	0	0	21742	20300	154147	27777	1057938	46371	107986	0	0	8329	483931	0	0
2024-10-16 15:31:47			0	40107	0	0	0	21748	20300	154239	27353	1057885	46360	107988	0	0	8328	484333	0	0
2024-10-16 15:32:47			0	40111	0	0	0	21740	20300	154231	27376	1057938	46371	107985	0	0	8329	484187	0	0
2024-10-16 15:33:47			0	40060	0	0	0	21727	20300	154418	27698	1057965	46360	107980	0	0	8326	486051	0	0
2024-10-16 15:34:47			0	39979	0	0	0	21711	20300	154606	27232	1057867	46381	107974	0	0	8322	489022	0	0
2024-10-16 15:35:47			0	39968	0	0	0	21714	20300	154770	27590	1057885	46360	107975	0	0	8321	489426	0	0
2024-10-16 15:36:47			0	39975	0	0	0	21714	20290	154646	27564	1057894	46369	107975	0	0	8321	489196	0	0
2024-10-16 15:37:47			0	39992	0	0	0	21711	20280	154646	27400	1057832	46358	107974	0	0	8322	488598	0	0
2024-10-16 15:38:47			0	40021	0	0	0	21727	20280	154570	27497	1057902	46358	107980	0	0	8324	487534	0	0
2024-10-16 15:39:47			0	40005	0	0	0	21724	20290	154590	27713	1057947	46358	107979	0	0	8323	488094	0	0
2024-10-16 15:40:47			0	40024	0	0	0	21727	20290	154494	27460	1057867	46358	107980	0	0	8324	487397	0	0
2024-10-16 15:41:47			0	40046	0	0	0	21711	20280	154506	27466	1057911	46369	107974	0	0	8325	486618	0	0
2024-10-16 15:42:47			0	39998	0	0	0	21709	20280	154754	27861	1057796	46379	107973	0	0	8323	488378	0	0
2024-10-16 15:43:47			0	39999	0	0	0	21722	20280	154670	27450	1057823	46358	107978	0	0	8323	488341	0	0
2024-10-16 15:44:47			0	39965	0	0	0	21724	20290	154746	27192	1057841	46358	107979	0	0	8321	489563	0	0
2024-10-16 15:45:47			0	39977	0	0	0	21722	20280	154754	27346	1057858	46346	107978	0	0	8321	489149	0	0
2024-10-16 15:46:47			0	39957	0	0	0	21735	20290	154882	27469	1057814	46358	107983	0	0	8320	489857	0	0
2024-10-16 15:47:47			0	39967	0	0	0	21729	20290	154774	27410	1057867	46346	107981	0	0	8321	489490	0	0
2024-10-16 15:48:47			0	39991	0	0	0	21722	20280	154702	27194	1057858	46369	107978	0	0	8322	488635	0	0
2024-10-16 15:49:47			0	40009	0	0	0	21719	20280	154554	27637	1057885	46369	107977	0	0	8323	487974	0	0
2024-10-16 15:50:47			0	40030	0	0	0	21714	20280	154574	27428	1057849	46358	107975	0	0	8324	487204	0	0
2024-10-16 15:51:47			0	40039	0	0	0	21716	20280	154602	27403	1057823	46369	107976	0	0	8325	486874	0	0
2024-10-16 15:52:47			0	40050	0	0	0	21716	20290	154482	27263	1057894	46358	107976	0	0	8326	486445	0	0
2024-10-16 15:53:47			0	40056	0	0	0	21711	20290	154326	27258	1057841	46358	107974	0	0	8326	486225	0	0
2024-10-16 15:54:47			0	40047	0	0	0	21719	20280	154442	27412	1057832	46369	107977	0	0	8325	486581	0	0
2024-10-16 15:55:47			0	40049	0	0	0	21719	20280	154382	27393	1057770	46358	107977	0	0	8325	486508	0	0
2024-10-16 15:56:47			0	40039	0	0	0	21724	20280	154446	27208	1057876	46346	107979	0	0	8325	486874	0	0
2024-10-16 15:57:47			0	40017	0	0	0	21724	20290	154642	27305	1057867	46379	107979	0	0	8324	487654	0	0
2024-10-16 15:58:47			0	39969	0	0	0	21724	20280	154738	27327	1057805	46346	107979	0	0	8321	489443	0	0
2024-10-16 15:59:47			0	39928	0	0	0	21727	20280	154898	27377	1057885	46379	107980	0	0	8318	490951	0	0
2024-10-16 16:00:47			0	39941	0	0	0	21724	20290	154922	27476	1057894	46369	107979	0	0	8319	490445	0	0
2024-10-16 16:01:47			0	39963	0	0	0	21722	20280	154750	27253	1057885	46369	107978	0	0	8320	489663	0	0
2024-10-16 16:02:47			0	39984	0	0	0	21719	20280	154590	27341	1057832	46379	107977	0	0	8322	488892	0	0
2024-10-16 16:03:47			0	39976	0	0	0	21722	20290	154698	27540	1057920	46369	107978	0	0	8321	489159	0	0
2024-10-16 16:04:47			0	39982	0	0	0	21722	20280	154626	27270	1057832	46369	107978	0	0	8322	488966	0	0
2024-10-16 16:05:47			0	39981	0	0	0	21722	20280	154722	27367	1057823	46369	107978	0	0	8321	489002	0	0
2024-10-16 16:06:47			0	39978	0	0	0	21727	20280	154606	27112	1057805	46358	107980	0	0	8321	489112	0	0
2024-10-16 16:07:47			0	39977	0	0	0	21716	20270	154814	27613	1057840	46334	107976	0	0	8321	489176	0	0
2024-10-16 16:08:47			0	39954	0	0	0	21706	20280	154790	27253	1057849	46369	107972	0	0	8320	489994	0	0
2024-10-16 16:09:47			0	39934	0	0	0	21701	20280	154906	27360	1057743	46369	107970	0	0	8319	490730	0	0
2024-10-16 16:10:47			0	39896	0	0	0	21690	20270	155070	27772	1057734	46357	107966	0	0	8317	492157	0	0
2024-10-16 16:11:47			0	39863	0	0	0	21696	20270	155190	27315	1057752	46367	107968	0	0	8315	493374	0	0
2024-10-16 16:12:47			0	39827	0	0	0	21680	20270	155214	27317	1057725	46344	107962	0	0	8313	494704	0	0
2024-10-16 16:13:47			0	39809	0	0	0	21683	20260	155386	27478	1057734	46356	107963	0	0	8312	495397	0	0
2024-10-16 16:14:47			0	39778	0	0	0	21690	20260	155394	27422	1057680	46344	107966	0	0	8310	496545	0	0
2024-10-16 16:15:47			0	39762	0	0	0	21709	20240	155494	27355	1057654	46364	107973	0	0	8309	497193	0	0
2024-10-16 16:16:47			0	39728	0	0	0	21711	20250	155646	27331	1057698	46343	107974	0	0	8307	498427	0	0
2024-10-16 16:17:47			0	39657	0	0	0	21719	20240	155934	27414	1057716	46365	107977	0	0	8303	501094	0	0
2024-10-16 16:18:47			0	39629	0	0	0	21711	20250	156118	27204	1057725	46366	107974	0	0	8301	502110	0	0
2024-10-16 16:19:47			0	39609	0	0	0	21714	20260	156126	27497	1057734	46377	107975	0	0	8300	502828	0	0
2024-10-16 16:20:47			0	39599	0	0	0	21722	20250	156262	27175	1057725	46376	107978	0	0	8299	503229	0	0
2024-10-16 16:21:47			0	39581	0	0	0	21729	20250	156238	27209	1057778	46366	107981	0	0	8298	503901	0	0
2024-10-16 16:22:47			0	39594	0	0	0	21719	20250	156186	27580	1057778	46376	107977	0	0	8299	503416	0	0
2024-10-16 16:23:47			0	39644	0	0	0	21727	20260	156026	27204	1057760	46377	107980	0	0	8302	501523	0	0
2024-10-16 16:24:47			0	39677	0	0	0	21732	20260	155794	27447	1057760	46377	107982	0	0	8304	500295	0	0
2024-10-16 16:25:47			0	39675	0	0	0	21742	20260	155870	27315	1057769	46377	107986	0	0	8303	500369	0	0
2024-10-16 16:26:47			0	39614	0	0	0	21735	20260	156114	27360	1057822	46356	107983	0	0	8300	502642	0	0
2024-10-16 16:27:47			0	39580	0	0	0	21735	20270	156210	27265	1057867	46378	107983	0	0	8298	503883	0	0
2024-10-16 16:28:47			0	39555	0	0	0	21732	20270	156410	27377	1057814	46378	107982	0	0	8297	504817	0	0
2024-10-16 16:29:47			0	39505	0	0	0	21727	20280	156554	27284	1057876	46379	107980	0	0	8294	506661	0	0
2024-10-16 16:30:47			0	39480	0	0	0	21724	20270	156554	27526	1057805	46367	107979	0	0	8292	507627	0	0
2024-10-16 16:31:47			0	39447	0	0	0	21724	20270	156794	27628	1057867	46389	107979	0	0	8291	508865	0	0
2024-10-16 16:32:47			0	39442	0	0	0	21722	20270	156826	27492	1057858	46388	107978	0	0	8290	509053	0	0
2024-10-16 16:33:47			0	39439	0	0	0	21729	20280	156762	27627	1057796	46369	107981	0	0	8290	509138	0	0
2024-10-16 16:34:47			0	39429	0	0	0	21727	20280	156730	27313	1057832	46390	107980	0	0	8290	509514	0	0
2024-10-16 16:35:47			0	39412	0	0	0	21735	20280	156858	27319	1057911	46369	107983	0	0	8288	510153	0	0
2024-10-16 16:36:47			0	39421	0	0	0	21729	20290	156778	27452	1057920	46379	107981	0	0	8289	509786	0	0
2024-10-16 16:37:47			0	39417	0	0	0	21729	20300	156805	27502	1057912	46381	107981	0	0	8289	509909	0	0
2024-10-16 16:38:47			0	39408	0	0	0	21732	20280	156853	27450	1057911	46379	107982	0	0	8288	510303	0	0
2024-10-16 16:39:47			0	39417	0	0	0	21735	20290	156821	27303	1057920	46358	107983	0	0	8289	509937	0	0
2024-10-16 16:40:47			0	39399	0	0	0	21735	20290	156781	26968	1057920	46379	107983	0	0	8288	510614	0	0
2024-10-16 16:41:47			0	39412	0	0	0	21729	20290	156925	27479	1057956	46359	107981	0	0	8289	510125	0	0
2024-10-16 16:42:47			0	39376	0	0	0	21724	20290	156929	27530	1057929	46359	107979	0	0	8287	511480	0	0
2024-10-16 16:43:47			0	39355	0	0	0	21732	20280	157081	27157	1057858	46358	107982	0	0	8285	512300	0	0
2024-10-16 16:44:47			0	39369	0	0	0	21716	20290	157073	27123	1057894	46358	107976	0	0	8286	511744	0	0
2024-10-16 16:45:47			0	39357	0	0	0	21719	20280	157021	27062	1057911	46369	107977	0	0	8285	512224	0	0
2024-10-16 16:46:47			0	39330	0	0	0	21722	20290	157193	27003	1057920	46369	107978	0	0	8284	513215	0	0
2024-10-16 16:47:47			0	39334	0	0	0	21716	20290	157053	27161	1057894	46390	107976	0	0	8284	513064	0	0
2024-10-16 16:48:47			0	39322	0	0	0	21719	20290	157221	27365	1057876	46370	107977	0	0	8283	513517	0	0
2024-10-16 16:49:47			0	39337	0	0	0	21714	20290	157145	27519	1057920	46369	107975	0	0	8284	512951	0	0
2024-10-16 16:50:47			0	39296	0	0	0	21714	20290	157165	27566	1057920	46369	107975	0	0	8282	514499	0	0
2024-10-16 16:51:47			0	39303	0	0	0	21706	20280	157141	27320	1057885	46369	107972	0	0	8283	514263	0	0
2024-10-16 16:52:47			0	39297	0	0	0	21711	20290	157177	27268	1057920	46379	107974	0	0	8282	514461	0	0
2024-10-16 16:53:47			0	39277	0	0	0	21703	20280	157265	27112	1057938	46358	107971	0	0	8281	515246	0	0
2024-10-16 16:54:47			0	39263	0	0	0	21706	20290	157317	27407	1057867	46369	107972	0	0	8280	515748	0	0
2024-10-16 16:55:47			0	39249	0	0	0	21709	20280	157349	27235	1057902	46358	107973	0	0	8279	516306	0	0
2024-10-16 16:56:47			0	39203	0	0	0	21701	20290	157513	27187	1057814	46358	107970	0	0	8277	518022	0	0
2024-10-16 16:57:47			0	39181	0	0	0	21696	20290	157609	27528	1057823	46370	107968	0	0	8276	518857	0	0
2024-10-16 16:58:47			0	39171	0	0	0	21688	20280	157693	27206	1057885	46358	107965	0	0	8275	519266	0	0
2024-10-16 16:59:47			0	39140	0	0	0	21693	20290	157821	27490	1057814	46369	107967	0	0	8273	520416	0	0
2024-10-16 17:00:47			0	39140	0	0	0	21688	20280	157857	27514	1057858	46369	107965	0	0	8273	520445	0	0
2024-10-16 17:01:47			0	39143	0	0	0	21703	20270	157813	27673	1057761	46368	107971	0	0	8273	520360	0	0
2024-10-16 17:02:47			0	39152	0	0	0	21703	20280	157585	27175	1057849	46358	107971	0	0	8274	519988	0	0
2024-10-16 17:03:47			0	39175	0	0	0	21701	20280	157637	27336	1057823	46358	107970	0	0	8275	519114	0	0
2024-10-16 17:04:47			0	39168	0	0	0	21706	20270	157713	27170	1057787	46368	107972	0	0	8275	519409	0	0
2024-10-16 17:05:47			0	39195	0	0	0	21698	20280	157581	27303	1057743	46369	107969	0	0	8276	518354	0	0
2024-10-16 17:06:47			0	39186	0	0	0	21706	20270	157645	27216	1057840	46368	107972	0	0	8276	518725	0	0
2024-10-16 17:07:47			0	39179	0	0	0	21693	20280	157613	27564	1057858	46358	107967	0	0	8276	518962	0	0
2024-10-16 17:08:47			0	39166	0	0	0	21690	20290	157565	27260	1057814	46369	107966	0	0	8275	519427	0	0
2024-10-16 17:09:47			0	39155	0	0	0	21690	20280	157621	27192	1057876	46346	107966	0	0	8274	519874	0	0
2024-10-16 17:10:47			0	39154	0	0	0	21696	20270	157745	27509	1057867	46368	107968	0	0	8274	519941	0	0
2024-10-16 17:11:47			0	39166	0	0	0	21703	20270	157693	27566	1057840	46345	107971	0	0	8275	519485	0	0
2024-10-16 17:12:47			0	39160	0	0	0	21701	20270	157637	27573	1057867	46368	107970	0	0	8274	519713	0	0
2024-10-16 17:13:47			0	39178	0	0	0	21698	20270	157665	27447	1057814	46357	107969	0	0	8275	519029	0	0
2024-10-16 17:14:47			0	39181	0	0	0	21698	20270	157649	27377	1057805	46367	107969	0	0	8276	518915	0	0
2024-10-16 17:15:47			0	39173	0	0	0	21706	20280	157657	27218	1057849	46379	107972	0	0	8275	519190	0	0
2024-10-16 17:16:47			0	39191	0	0	0	21698	20270	157589	27140	1057911	46367	107969	0	0	8276	518535	0	0
2024-10-16 17:17:47			0	39195	0	0	0	21706	20280	157513	27315	1057876	46379	107972	0	0	8276	518354	0	0
2024-10-16 17:18:47			0	39195	0	0	0	21709	20280	157557	27416	1057902	46358	107973	0	0	8276	518354	0	0
2024-10-16 17:19:47			0	39214	0	0	0	21714	20280	157625	27604	1057902	46369	107975	0	0	8277	517633	0	0
2024-10-16 17:20:47			0	39242	0	0	0	21722	20270	157569	27227	1057893	46357	107978	0	0	8279	516600	0	0
2024-10-16 17:21:47			0	39253	0	0	0	21724	20280	157445	27407	1057858	46390	107979	0	0	8279	516155	0	0
2024-10-16 17:22:47			0	39266	0	0	0	21724	20290	157369	27606	1057920	46390	107979	0	0	8280	515634	0	0
2024-10-16 17:23:47			0	39261	0	0	0	21716	20270	157393	27488	1057858	46377	107976	0	0	8280	515880	0	0
2024-10-16 17:24:47			0	39218	0	0	0	21709	20280	157493	27505	1057911	46379	107973	0	0	8278	517481	0	0
2024-10-16 17:25:47			0	39209	0	0	0	21706	20280	157557	27154	1057885	46358	107972	0	0	8277	517823	0	0
2024-10-16 17:26:47			0	39217	0	0	0	21711	20280	157613	27329	1057876	46369	107974	0	0	8278	517519	0	0
2024-10-16 17:27:47			0	39198	0	0	0	21722	20290	157585	27438	1057947	46379	107978	0	0	8276	518212	0	0
2024-10-16 17:28:47			0	39226	0	0	0	21716	20290	157461	27175	1057929	46370	107976	0	0	8278	517149	0	0
2024-10-16 17:29:47			0	39224	0	0	0	21716	20280	157541	27189	1057938	46369	107976	0	0	8278	517254	0	0
2024-10-16 17:30:47			0	39217	0	0	0	21714	20290	157541	27003	1057947	46358	107975	0	0	8278	517491	0	0
2024-10-16 17:31:47			0	39200	0	0	0	21719	20280	157697	27393	1057902	46369	107977	0	0	8276	518164	0	0
2024-10-16 17:32:47			0	39192	0	0	0	21719	20290	157613	27312	1057929	46370	107977	0	0	8276	518440	0	0
2024-10-16 17:33:47			0	39197	0	0	0	21719	20280	157513	27130	1057885	46369	107977	0	0	8276	518278	0	0
2024-10-16 17:34:47			0	39197	0	0	0	21722	20280	157629	27473	1057911	46369	107978	0	0	8276	518278	0	0
2024-10-16 17:35:47			0	39192	0	0	0	21714	20290	157645	27632	1057867	46369	107975	0	0	8276	518440	0	0
2024-10-16 17:36:47			0	39192	0	0	0	21711	20280	157617	27504	1057858	46369	107974	0	0	8276	518468	0	0
2024-10-16 17:37:47			0	39183	0	0	0	21711	20280	157741	27410	1057911	46379	107974	0	0	8276	518810	0	0
2024-10-16 17:38:47			0	39179	0	0	0	21706	20290	157773	27310	1057956	46359	107972	0	0	8275	518933	0	0
2024-10-16 17:39:47			0	39169	0	0	0	21711	20290	157761	27677	1057920	46358	107974	0	0	8275	519313	0	0
2024-10-16 17:40:47			0	39141	0	0	0	21701	20280	157789	27343	1057876	46379	107970	0	0	8273	520407	0	0
2024-10-16 17:41:47			0	39140	0	0	0	21706	20290	157789	27215	1057894	46379	107972	0	0	8273	520416	0	0
2024-10-16 17:42:47			0	39125	0	0	0	21703	20300	157841	27524	1057912	46381	107971	0	0	8272	520959	0	0
2024-10-16 17:43:47			0	39137	0	0	0	21701	20280	157781	27416	1057911	46358	107970	0	0	8273	520559	0	0
2024-10-16 17:44:47			0	39119	0	0	0	21703	20280	157961	27201	1057885	46358	107971	0	0	8272	521245	0	0
2024-10-16 17:45:47			0	39122	0	0	0	21703	20270	157961	27098	1057858	46367	107971	0	0	8272	521159	0	0
2024-10-16 17:46:47			0	39151	0	0	0	21709	20290	157981	27305	1057867	46369	107973	0	0	8274	519998	0	0
2024-10-16 17:47:47			0	39133	0	0	0	21701	20290	157977	27116	1057894	46369	107970	0	0	8273	520683	0	0
2024-10-16 17:48:47			0	39147	0	0	0	21709	20280	157949	27521	1057885	46358	107973	0	0	8273	520179	0	0
2024-10-16 17:49:47			0	39144	0	0	0	21706	20290	157765	27460	1057929	46359	107972	0	0	8273	520264	0	0
2024-10-16 17:50:47			0	39137	0	0	0	21716	20280	157841	27312	1057902	46369	107976	0	0	8273	520559	0	0
2024-10-16 17:51:47			0	39163	0	0	0	21711	20280	157945	27144	1057876	46369	107974	0	0	8274	519570	0	0
2024-10-16 17:52:47			0	39128	0	0	0	21706	20280	157981	27192	1057902	46358	107972	0	0	8272	520902	0	0
2024-10-16 17:53:47			0	39108	0	0	0	21706	20290	158105	27088	1057867	46358	107972	0	0	8271	521635	0	0
2024-10-16 17:54:47			0	39076	0	0	0	21706	20280	158241	27306	1057885	46379	107972	0	0	8269	522884	0	0
2024-10-16 17:55:47			0	39039	0	0	0	21701	20280	158365	27128	1057876	46369	107970	0	0	8267	524297	0	0
2024-10-16 17:56:47			0	39004	0	0	0	21690	20280	158449	27176	1057885	46346	107966	0	0	8266	525636	0	0
2024-10-16 17:57:47			0	38995	0	0	0	21698	20280	158417	27192	1057876	46369	107969	0	0	8265	525981	0	0
2024-10-16 17:58:47			0	39021	0	0	0	21698	20270	158385	27291	1057761	46368	107969	0	0	8266	525015	0	0
2024-10-16 17:59:47			0	39043	0	0	0	21703	20280	158437	27358	1057849	46369	107971	0	0	8268	524145	0	0
2024-10-16 18:00:47			0	39025	0	0	0	21709	20280	158321	27208	1057858	46369	107973	0	0	8266	524833	0	0
2024-10-16 18:01:47			0	38985	0	0	0	21703	20280	158485	27407	1057902	46369	107971	0	0	8264	526364	0	0
2024-10-16 18:02:47			0	38979	0	0	0	21703	20270	158493	27211	1057867	46357	107971	0	0	8264	526623	0	0
2024-10-16 18:03:47			0	38967	0	0	0	21701	20280	158549	27440	1057823	46379	107970	0	0	8263	527054	0	0
2024-10-16 18:04:47			0	38947	0	0	0	21701	20280	158597	27100	1057823	46369	107970	0	0	8262	527821	0	0
2024-10-16 18:05:47			0	38953	0	0	0	21696	20270	158649	27251	1057893	46368	107968	0	0	8262	527620	0	0
2024-10-16 18:06:47			0	38963	0	0	0	21696	20270	158585	27126	1057840	46368	107968	0	0	8263	527236	0	0
2024-10-16 18:07:47			0	38951	0	0	0	21698	20270	158557	27258	1057814	46368	107969	0	0	8262	527697	0	0
2024-10-16 18:08:47			0	38950	0	0	0	21698	20270	158581	27332	1057831	46356	107969	0	0	8262	527735	0	0
2024-10-16 18:09:47			0	38976	0	0	0	21701	20270	158529	27386	1057893	46357	107970	0	0	8264	526738	0	0
2024-10-16 18:10:47			0	38972	0	0	0	21696	20270	158565	27307	1057911	46367	107968	0	0	8264	526891	0	0
2024-10-16 18:11:47			0	38952	0	0	0	21696	20280	158629	27227	1057849	46358	107968	0	0	8262	527629	0	0
2024-10-16 18:12:47			0	38912	0	0	0	21693	20280	158721	27007	1057823	46358	107967	0	0	8260	529165	0	0
2024-10-16 18:13:47			0	38892	0	0	0	21701	20270	158809	27379	1057787	46368	107970	0	0	8259	529964	0	0
2024-10-16 18:14:47			0	38896	0	0	0	21693	20270	158873	27244	1057858	46356	107967	0	0	8259	529810	0	0
2024-10-16 18:15:47			0	38935	0	0	0	21696	20270	158585	27325	1057840	46357	107968	0	0	8261	528311	0	0
2024-10-16 18:16:47			0	38945	0	0	0	21690	20270	158617	27144	1057840	46368	107966	0	0	8262	527927	0	0
2024-10-16 18:17:47			0	38963	0	0	0	21696	20260	158473	27163	1057822	46356	107968	0	0	8263	527265	0	0
2024-10-16 18:18:47			0	39004	0	0	0	21696	20270	158401	27161	1057831	46367	107968	0	0	8265	525665	0	0
2024-10-16 18:19:47			0	38992	0	0	0	21696	20260	158377	27260	1057822	46367	107968	0	0	8265	526154	0	0
2024-10-16 18:20:47			0	38960	0	0	0	21693	20270	158501	27008	1057805	46356	107967	0	0	8263	527351	0	0
2024-10-16 18:21:47			0	38926	0	0	0	21696	20260	158561	27124	1057822	46344	107968	0	0	8261	528686	0	0
2024-10-16 18:22:47			0	38898	0	0	0	21690	20260	158737	27093	1057822	46367	107966	0	0	8259	529762	0	0
2024-10-16 18:23:47			0	38909	0	0	0	21690	20260	158757	27246	1057769	46356	107966	0	0	8260	529339	0	0
2024-10-16 18:24:47			0	38941	0	0	0	21693	20260	158681	27133	1057822	46377	107967	0	0	8262	528110	0	0
2024-10-16 18:25:47			0	38966	0	0	0	21693	20260	158549	27029	1057769	46377	107967	0	0	8263	527150	0	0
2024-10-16 18:26:47			0	38967	0	0	0	21688	20260	158537	27052	1057822	46367	107965	0	0	8263	527112	0	0
2024-10-16 18:27:47			0	38989	0	0	0	21688	20260	158485	27223	1057787	46377	107965	0	0	8265	526269	0	0
2024-10-16 18:28:47			0	38974	0	0	0	21685	20260	158581	27074	1057822	46356	107964	0	0	8264	526844	0	0
2024-10-16 18:29:47			0	38948	0	0	0	21688	20260	158645	27109	1057813	46367	107965	0	0	8262	527841	0	0
2024-10-16 18:30:47			0	38896	0	0	0	21680	20270	158713	27332	1057858	46367	107962	0	0	8259	529810	0	0
2024-10-16 18:31:47			0	38854	0	0	0	21685	20260	158973	27209	1057734	46356	107964	0	0	8257	531456	0	0
2024-10-16 18:32:47			0	38859	0	0	0	21688	20260	158945	27083	1057813	46356	107965	0	0	8257	531263	0	0
2024-10-16 18:33:47			0	38845	0	0	0	21677	20260	159081	27275	1057787	46367	107961	0	0	8256	531803	0	0
2024-10-16 18:34:47			0	38840	0	0	0	21690	20260	159065	27095	1057787	46356	107966	0	0	8256	531996	0	0
2024-10-16 18:35:47			0	38822	0	0	0	21677	20260	159121	27248	1057743	46377	107961	0	0	8255	532690	0	0
2024-10-16 18:36:47			0	38788	0	0	0	21683	20260	159253	27339	1057769	46367	107963	0	0	8253	534003	0	0
2024-10-16 18:37:47			0	38749	0	0	0	21675	20260	159261	27022	1057760	46367	107960	0	0	8251	535511	0	0
2024-10-16 18:38:47			0	38730	0	0	0	21683	20260	159401	27327	1057787	46367	107963	0	0	8250	536247	0	0
2024-10-16 18:39:47			0	38734	0	0	0	21672	20250	159469	27218	1057751	46366	107959	0	0	8250	536122	0	0
2024-10-16 18:40:47			0	38735	0	0	0	21680	20260	159457	27412	1057707	46377	107962	0	0	8250	536053	0	0
2024-10-16 18:41:47			0	38784	0	0	0	21683	20240	159385	27365	1057742	46365	107963	0	0	8253	534216	0	0
2024-10-16 18:42:47			0	38816	0	0	0	21683	20260	159105	27301	1057796	46377	107963	0	0	8255	532921	0	0
2024-10-16 18:43:47			0	38818	0	0	0	21675	20260	159125	27441	1057734	46367	107960	0	0	8255	532844	0	0
2024-10-16 18:44:47			0	38801	0	0	0	21688	20240	159169	27234	1057769	46375	107965	0	0	8254	533560	0	0
2024-10-16 18:45:47			0	38816	0	0	0	21675	20260	159021	27005	1057680	46356	107960	0	0	8255	532921	0	0
2024-10-16 18:46:47			0	38799	0	0	0	21685	20260	159169	27371	1057760	46367	107964	0	0	8254	533578	0	0
2024-10-16 18:47:47			0	38775	0	0	0	21690	20250	159357	27239	1057751	46343	107966	0	0	8252	534535	0	0
2024-10-16 18:48:47			0	38762	0	0	0	21675	20240	159229	27050	1057636	46353	107960	0	0	8252	535067	0	0
2024-10-16 18:49:47			0	38783	0	0	0	21672	20250	159161	27379	1057725	46354	107959	0	0	8253	534226	0	0
2024-10-16 18:50:47			0	38791	0	0	0	21677	20250	159165	27216	1057698	46376	107961	0	0	8253	533916	0	0
2024-10-16 18:51:47			0	38833	0	0	0	21667	20240	159093	27033	1057716	46365	107957	0	0	8256	532324	0	0
2024-10-16 18:52:47			0	38803	0	0	0	21675	20240	159085	27197	1057716	46365	107960	0	0	8254	533482	0	0
2024-10-16 18:53:47			0	38799	0	0	0	21670	20240	159121	27053	1057716	46365	107958	0	0	8254	533637	0	0
2024-10-16 18:54:47			0	38826	0	0	0	21670	20250	159081	27060	1057672	46376	107958	0	0	8255	532565	0	0
2024-10-16 18:55:47			0	38836	0	0	0	21677	20240	159105	27206	1057663	46365	107961	0	0	8256	532209	0	0
2024-10-16 18:56:47			0	38832	0	0	0	21675	20240	159001	27450	1057680	46364	107960	0	0	8256	532363	0	0
2024-10-16 18:57:47			0	38814	0	0	0	21667	20240	158977	27286	1057680	46352	107957	0	0	8255	533058	0	0
2024-10-16 18:58:47			0	38808	0	0	0	21662	20250	159153	27282	1057725	46366	107955	0	0	8254	533260	0	0
2024-10-16 18:59:47			0	38796	0	0	0	21670	20240	159217	27046	1057716	46375	107958	0	0	8254	533753	0	0
2024-10-16 19:00:47			0	38780	0	0	0	21670	20230	159249	27105	1057715	46364	107958	0	0	8253	534401	0	0
2024-10-16 19:01:47			0	38763	0	0	0	21659	20240	159345	27202	1057663	46365	107954	0	0	8252	535029	0	0
2024-10-16 19:02:47			0	38781	0	0	0	21670	20240	159333	27248	1057707	46375	107958	0	0	8253	534333	0	0
2024-10-16 19:03:47			0	38783	0	0	0	21672	20230	159249	27312	1057671	46364	107959	0	0	8253	534285	0	0
2024-10-16 19:04:47			0	38803	0	0	0	21667	20240	159173	27474	1057716	46365	107957	0	0	8254	533482	0	0
2024-10-16 19:05:47			0	38752	0	0	0	21662	20230	159313	27345	1057645	46375	107955	0	0	8251	535484	0	0
2024-10-16 19:06:47			0	38728	0	0	0	21662	20220	159473	27369	1057653	46363	107955	0	0	8250	536443	0	0
2024-10-16 19:07:47			0	38718	0	0	0	21662	20240	159452	27237	1057680	46364	107955	0	0	8249	536772	0	0
2024-10-16 19:08:47			0	38742	0	0	0	21670	20230	159325	27466	1057636	46364	107958	0	0	8250	535871	0	0
2024-10-16 19:09:47			0	38760	0	0	0	21662	20230	159333	27445	1057698	46364	107955	0	0	8252	535174	0	0
2024-10-16 19:10:47			0	38748	0	0	0	21657	20230	159437	27286	1057636	46352	107953	0	0	8251	535639	0	0
2024-10-16 19:11:47			0	38696	0	0	0	21667	20230	159608	27524	1057671	46364	107957	0	0	8248	537655	0	0
2024-10-16 19:12:47			0	38685	0	0	0	21664	20230	159604	27455	1057609	46352	107956	0	0	8247	538082	0	0
2024-10-16 19:13:47			0	38675	0	0	0	21667	20230	159732	27199	1057636	46375	107957	0	0	8247	538470	0	0
2024-10-16 19:14:47			0	38673	0	0	0	21657	20230	159680	27303	1057689	46364	107953	0	0	8247	538547	0	0
2024-10-16 19:15:47			0	38669	0	0	0	21670	20230	159760	27312	1057671	46352	107958	0	0	8246	538703	0	0
2024-10-16 19:16:47			0	38655	0	0	0	21662	20240	159744	27183	1057680	46364	107955	0	0	8246	539217	0	0
2024-10-16 19:17:47			0	38657	0	0	0	21649	20230	159880	27144	1057689	46364	107950	0	0	8246	539169	0	0
2024-10-16 19:18:47			0	38645	0	0	0	21657	20210	159816	27303	1057608	46362	107953	0	0	8245	539695	0	0
2024-10-16 19:19:47			0	38653	0	0	0	21659	20220	159856	27239	1057680	46363	107954	0	0	8245	539355	0	0
2024-10-16 19:20:47			0	38649	0	0	0	21657	20230	159920	27352	1057609	46375	107953	0	0	8245	539480	0	0
2024-10-16 19:21:47			0	38657	0	0	0	21662	20230	159828	27372	1057636	46364	107955	0	0	8246	539169	0	0
2024-10-16 19:22:47			0	38632	0	0	0	21654	20220	159868	27046	1057591	46350	107952	0	0	8244	540171	0	0
2024-10-16 19:23:47			0	38653	0	0	0	21651	20220	159816	27244	1057653	46351	107951	0	0	8245	539355	0	0
2024-10-16 19:24:47			0	38676	0	0	0	21662	20230	159736	27211	1057609	46352	107955	0	0	8247	538431	0	0
2024-10-16 19:25:47			0	38672	0	0	0	21659	20220	159740	27137	1057591	46373	107954	0	0	8246	538616	0	0
2024-10-16 19:26:47			0	38671	0	0	0	21662	20220	159740	27220	1057600	46363	107955	0	0	8246	538655	0	0
2024-10-16 19:27:47			0	38670	0	0	0	21641	20220	159696	26994	1057627	46363	107947	0	0	8247	538694	0	0
2024-10-16 19:28:47			0	38671	0	0	0	21646	20220	159732	27469	1057644	46350	107949	0	0	8247	538655	0	0
2024-10-16 19:29:47			0	38654	0	0	0	21646	20220	159816	27545	1057600	46363	107949	0	0	8246	539316	0	0
2024-10-16 19:30:47			0	38657	0	0	0	21628	20220	159780	27296	1057600	46363	107942	0	0	8246	539199	0	0
2024-10-16 19:31:47			0	38666	0	0	0	21628	20210	159808	27390	1057573	46339	107942	0	0	8247	538879	0	0
2024-10-16 19:32:47			0	38664	0	0	0	21633	20210	159868	27371	1057582	46350	107944	0	0	8246	538957	0	0
2024-10-16 19:33:47			0	38647	0	0	0	21612	20210	159804	27279	1057555	46362	107936	0	0	8246	539618	0	0
2024-10-16 19:34:47			0	38666	0	0	0	21612	20210	159844	27223	1057520	46350	107936	0	0	8247	538879	0	0
2024-10-16 19:35:47			0	38629	0	0	0	21607	20200	159816	27319	1057502	46348	107934	0	0	8245	540348	0	0
2024-10-16 19:36:47			0	38629	0	0	0	21612	20200	159872	27305	1057528	46360	107936	0	0	8245	540348	0	0
2024-10-16 19:37:47			0	38606	0	0	0	21607	20200	159908	27183	1057555	46348	107934	0	0	8243	541244	0	0
2024-10-16 19:38:47			0	38609	0	0	0	21623	20200	160028	27440	1057484	46328	107940	0	0	8243	541127	0	0
2024-10-16 19:39:47			0	38585	0	0	0	21623	20180	160128	27308	1057422	46359	107940	0	0	8242	542122	0	0
2024-10-16 19:40:47			0	38596	0	0	0	21620	20190	160060	27398	1057457	46360	107939	0	0	8243	541663	0	0
2024-10-16 19:41:47			0	38587	0	0	0	21625	20190	160044	27438	1057466	46360	107941	0	0	8242	542014	0	0
2024-10-16 19:42:47			0	38561	0	0	0	21618	20190	160200	27251	1057493	46348	107938	0	0	8241	543029	0	0
2024-10-16 19:43:47			0	38581	0	0	0	21623	20190	160104	27053	1057484	46348	107940	0	0	8242	542248	0	0
2024-10-16 19:44:47			0	38599	0	0	0	21631	20190	159988	27057	1057484	46348	107943	0	0	8243	541546	0	0
2024-10-16 19:45:47			0	38588	0	0	0	21631	20180	159972	27220	1057448	46359	107943	0	0	8242	542005	0	0
2024-10-16 19:46:47			0	38581	0	0	0	21623	20190	160120	27140	1057484	46348	107940	0	0	8242	542248	0	0
2024-10-16 19:47:47			0	38588	0	0	0	21628	20190	160184	27052	1057457	46348	107942	0	0	8242	541975	0	0
2024-10-16 19:48:47			0	38583	0	0	0	21631	20200	160180	27263	1057475	46371	107943	0	0	8242	542140	0	0
2024-10-16 19:49:47			0	38567	0	0	0	21625	20180	160220	27189	1057475	46347	107941	0	0	8241	542825	0	0
2024-10-16 19:50:47			0	38550	0	0	0	21623	20190	160228	27327	1057484	46348	107940	0	0	8240	543458	0	0
2024-10-16 19:51:47			0	38544	0	0	0	21620	20190	160272	27157	1057431	46360	107939	0	0	8240	543693	0	0
2024-10-16 19:52:47			0	38541	0	0	0	21628	20190	160228	27178	1057511	46348	107942	0	0	8239	543810	0	0
2024-10-16 19:53:47			0	38538	0	0	0	21618	20170	160452	27483	1057404	46358	107938	0	0	8239	543987	0	0
2024-10-16 19:54:47			0	38524	0	0	0	21628	20180	160404	27241	1057528	46370	107942	0	0	8238	544505	0	0
2024-10-16 19:55:47			0	38497	0	0	0	21623	20190	160432	27220	1057457	46360	107940	0	0	8237	545531	0	0
2024-10-16 19:56:47			0	38499	0	0	0	21628	20190	160556	27183	1057440	46360	107942	0	0	8237	545453	0	0
2024-10-16 19:57:47			0	38494	0	0	0	21625	20180	160504	27185	1057466	46358	107941	0	0	8236	545679	0	0
2024-10-16 19:58:47			0	38479	0	0	0	21628	20180	160512	27140	1057448	46359	107942	0	0	8236	546267	0	0
2024-10-16 19:59:47			0	38463	0	0	0	21625	20180	160556	27218	1057493	46358	107941	0	0	8235	546894	0	0
2024-10-16 20:00:47			0	38469	0	0	0	21623	20190	160568	27275	1057511	46337	107940	0	0	8235	546628	0	0
2024-10-16 20:01:47			0	38437	0	0	0	21618	20180	160588	27111	1057528	46370	107938	0	0	8233	547914	0	0
2024-10-16 20:02:47			0	38438	0	0	0	21625	20190	160560	26946	1057484	46360	107941	0	0	8233	547845	0	0
2024-10-16 20:03:47			0	38453	0	0	0	21618	20190	160716	27196	1057466	46348	107938	0	0	8234	547256	0	0
2024-10-16 20:04:47			0	38434	0	0	0	21618	20200	160660	27197	1057475	46360	107938	0	0	8233	547971	0	0
2024-10-16 20:05:47			0	38453	0	0	0	21620	20180	160696	27060	1057475	46359	107939	0	0	8234	547286	0	0
2024-10-16 20:06:47			0	38448	0	0	0	21620	20180	160696	27308	1057555	46359	107939	0	0	8234	547482	0	0
2024-10-16 20:07:47			0	38423	0	0	0	21615	20180	160712	27062	1057466	46358	107937	0	0	8232	548464	0	0
2024-10-16 20:08:47			0	38433	0	0	0	21620	20190	160780	27074	1057511	46360	107939	0	0	8233	548041	0	0
2024-10-16 20:09:47			0	38419	0	0	0	21623	20190	160816	26923	1057511	46371	107940	0	0	8232	548591	0	0
2024-10-16 20:10:47			0	38427	0	0	0	21625	20180	160772	27053	1057475	46359	107941	0	0	8233	548307	0	0
2024-10-16 20:11:47			0	38409	0	0	0	21625	20190	160848	27353	1057457	46360	107941	0	0	8232	548984	0	0
2024-10-16 20:12:47			0	38395	0	0	0	21618	20180	160812	27005	1057448	46359	107938	0	0	8231	549564	0	0
2024-10-16 20:13:47			0	38378	0	0	0	21620	20190	160904	27116	1057511	46348	107939	0	0	8230	550203	0	0
2024-10-16 20:14:47			0	38384	0	0	0	21615	20190	160868	26941	1057493	46348	107937	0	0	8230	549967	0	0
2024-10-16 20:15:47			0	38390	0	0	0	21615	20190	160824	26944	1057404	46360	107937	0	0	8231	549731	0	0
2024-10-16 20:16:47			0	38372	0	0	0	21618	20180	160868	27208	1057448	46359	107938	0	0	8229	550469	0	0
2024-10-16 20:17:47			0	38372	0	0	0	21618	20190	161044	27390	1057457	46348	107938	0	0	8230	550439	0	0
2024-10-16 20:18:47			0	38375	0	0	0	21615	20180	161012	27550	1057448	46359	107937	0	0	8230	550351	0	0
2024-10-16 20:19:47			0	38366	0	0	0	21615	20180	161056	27208	1057493	46369	107937	0	0	8229	550706	0	0
2024-10-16 20:20:47			0	38354	0	0	0	21615	20190	161148	27069	1057484	46371	107937	0	0	8229	551148	0	0
2024-10-16 20:21:47			0	38355	0	0	0	21610	20180	161088	27130	1057528	46347	107935	0	0	8229	551139	0	0
2024-10-16 20:22:47			0	38334	0	0	0	21605	20180	161120	27305	1057448	46370	107933	0	0	8227	551967	0	0
2024-10-16 20:23:47			0	38324	0	0	0	21610	20190	161104	27237	1057484	46360	107935	0	0	8227	552331	0	0
2024-10-16 20:24:47			0	38344	0	0	0	21610	20180	161140	26935	1057413	46358	107935	0	0	8228	551573	0	0
2024-10-16 20:25:47			0	38328	0	0	0	21612	20180	161188	27041	1057448	46347	107936	0	0	8227	552204	0	0
2024-10-16 20:26:47			0	38330	0	0	0	21610	20180	161188	27007	1057439	46358	107935	0	0	8227	552125	0	0
2024-10-16 20:27:47			0	38327	0	0	0	21612	20180	161140	27331	1057422	46359	107936	0	0	8227	552243	0	0
2024-10-16 20:28:47			0	38324	0	0	0	21607	20180	161192	27064	1057439	46358	107934	0	0	8227	552361	0	0
2024-10-16 20:29:47			0	38331	0	0	0	21612	20180	161120	27232	1057448	46347	107936	0	0	8227	552085	0	0
2024-10-16 20:30:47			0	38343	0	0	0	21599	20170	161124	26960	1057457	46358	107931	0	0	8228	551643	0	0
2024-10-16 20:31:47			0	38312	0	0	0	21615	20170	161148	27348	1057457	46369	107937	0	0	8226	552866	0	0
2024-10-16 20:32:47			0	38309	0	0	0	21610	20180	161204	27095	1057413	46358	107935	0	0	8226	552954	0	0
2024-10-16 20:33:47			0	38322	0	0	0	21610	20180	161180	27270	1057519	46358	107935	0	0	8227	552440	0	0
2024-10-16 20:34:47			0	38332	0	0	0	21607	20170	161156	27241	1057457	46358	107934	0	0	8227	552076	0	0
2024-10-16 20:35:47			0	38321	0	0	0	21620	20170	161088	27142	1057448	46345	107939	0	0	8226	552510	0	0
2024-10-16 20:36:47			0	38344	0	0	0	21610	20170	161144	27048	1057457	46335	107935	0	0	8228	551603	0	0
2024-10-16 20:37:47			0	38331	0	0	0	21605	20180	161108	27189	1057448	46347	107933	0	0	8227	552085	0	0
2024-10-16 20:38:47			0	38324	0	0	0	21612	20180	161164	26989	1057439	46346	107936	0	0	8227	552361	0	0
2024-10-16 20:39:47			0	38317	0	0	0	21605	20170	161072	26958	1057448	46357	107933	0	0	8226	552668	0	0
2024-10-16 20:40:47			0	38318	0	0	0	21602	20170	161160	27249	1057404	46346	107932	0	0	8227	552629	0	0
2024-10-16 20:41:47			0	38304	0	0	0	21602	20170	161372	26908	1057448	46345	107932	0	0	8226	553181	0	0
2024-10-16 20:42:47			0	38308	0	0	0	21599	20170	161268	26984	1057421	46334	107931	0	0	8226	553024	0	0
2024-10-16 20:43:47			0	38304	0	0	0	21605	20170	161196	27027	1057448	46368	107933	0	0	8226	553181	0	0
2024-10-16 20:44:47			0	38296	0	0	0	21605	20170	161248	27095	1057421	46357	107933	0	0	8225	553497	0	0
2024-10-16 20:45:47			0	38290	0	0	0	21597	20170	161240	27088	1057484	46346	107930	0	0	8225	553735	0	0
2024-10-16 20:46:47			0	38291	0	0	0	21607	20170	161256	27433	1057377	46369	107934	0	0	8225	553695	0	0
2024-10-16 20:47:47			0	38281	0	0	0	21607	20170	161256	27225	1057421	46368	107934	0	0	8224	554090	0	0
2024-10-16 20:48:47			0	38294	0	0	0	21605	20170	161240	27241	1057395	46368	107933	0	0	8225	553577	0	0
2024-10-16 20:49:47			0	38268	0	0	0	21599	20160	161252	27312	1057404	46356	107931	0	0	8224	554635	0	0
2024-10-16 20:50:47			0	38302	0	0	0	21586	20170	161200	27284	1057368	46368	107926	0	0	8226	553261	0	0
2024-10-16 20:51:47			0	38314	0	0	0	21599	20170	161096	27253	1057421	46357	107931	0	0	8226	552787	0	0
2024-10-16 20:52:47			0	38323	0	0	0	21597	20160	161100	27260	1057386	46357	107930	0	0	8227	552462	0	0
2024-10-16 20:53:47			0	38318	0	0	0	21597	20160	161144	27123	1057404	46356	107930	0	0	8227	552659	0	0
2024-10-16 20:54:47			0	38293	0	0	0	21594	20170	161256	27227	1057404	46346	107929	0	0	8225	553616	0	0
2024-10-16 20:55:47			0	38301	0	0	0	21586	20160	161352	27521	1057386	46357	107926	0	0	8226	553331	0	0
2024-10-16 20:56:47			0	38291	0	0	0	21589	20170	161284	27329	1057421	46368	107927	0	0	8225	553695	0	0
2024-10-16 20:57:47			0	38289	0	0	0	21584	20170	161432	27062	1057315	46357	107925	0	0	8225	553774	0	0
2024-10-16 20:58:47			0	38263	0	0	0	21584	20160	161432	26830	1057413	46345	107925	0	0	8224	554833	0	0
2024-10-16 20:59:47			0	38255	0	0	0	21584	20150	161436	27168	1057395	46355	107925	0	0	8223	555180	0	0
2024-10-16 21:00:47			0	38253	0	0	0	21584	20160	161516	27189	1057306	46357	107925	0	0	8223	555229	0	0
2024-10-16 21:01:47			0	38260	0	0	0	21576	20160	161484	27036	1057404	46344	107922	0	0	8224	554952	0	0
2024-10-16 21:02:47			0	38248	0	0	0	21579	20150	161424	27036	1057341	46355	107923	0	0	8223	555457	0	0
2024-10-16 21:03:47			0	38257	0	0	0	21566	20150	161392	27301	1057262	46355	107918	0	0	8223	555101	0	0
2024-10-16 21:04:47			0	38278	0	0	0	21571	20150	161436	27133	1057359	46355	107920	0	0	8225	554270	0	0
2024-10-16 21:05:47			0	38265	0	0	0	21566	20150	161376	27124	1057288	46355	107918	0	0	8224	554784	0	0
2024-10-16 21:06:47			0	38285	0	0	0	21568	20150	161496	27064	1057332	46366	107919	0	0	8225	553993	0	0
2024-10-16 21:07:47			0	38267	0	0	0	21571	20150	161448	27076	1057315	46333	107920	0	0	8224	554705	0	0
2024-10-16 21:08:47			0	38265	0	0	0	21566	20150	161508	27618	1057306	46343	107918	0	0	8224	554784	0	0
2024-10-16 21:09:47			0	38265	0	0	0	21563	20140	161472	27343	1057288	46365	107917	0	0	8224	554815	0	0
2024-10-16 21:10:47			0	38277	0	0	0	21561	20140	161316	27213	1057235	46353	107916	0	0	8225	554340	0	0
2024-10-16 21:11:47			0	38271	0	0	0	21558	20140	161368	26937	1057208	46353	107915	0	0	8224	554578	0	0
2024-10-16 21:12:47			0	38307	0	0	0	21553	20150	161320	27230	1057226	46355	107913	0	0	8227	553124	0	0
2024-10-16 21:13:47			0	38291	0	0	0	21563	20140	161256	27228	1057261	46353	107917	0	0	8225	553787	0	0
2024-10-16 21:14:47			0	38300	0	0	0	21555	20130	161300	26918	1057226	46352	107914	0	0	8226	553462	0	0
2024-10-16 21:15:47			0	38297	0	0	0	21553	20130	161296	27102	1057243	46341	107913	0	0	8226	553580	0	0
2024-10-16 21:16:47			0	38308	0	0	0	21550	20130	161372	27029	1057146	46341	107912	0	0	8227	553146	0	0
2024-10-16 21:17:47			0	38312	0	0	0	21550	20130	161224	27208	1057137	46352	107912	0	0	8227	552988	0	0
2024-10-16 21:18:47			0	38320	0	0	0	21548	20120	161240	27112	1057172	46352	107911	0	0	8227	552702	0	0
2024-10-16 21:19:47			0	38304	0	0	0	21550	20120	161352	27443	1057181	46352	107912	0	0	8226	553334	0	0
2024-10-16 21:20:47			0	38305	0	0	0	21553	20120	161284	27156	1057199	46330	107913	0	0	8226	553295	0	0
2024-10-16 21:21:47			0	38314	0	0	0	21555	20120	161348	27180	1057128	46352	107914	0	0	8227	552939	0	0
2024-10-16 21:22:47			0	38323	0	0	0	21545	20120	161304	27308	1057146	46340	107910	0	0	8228	552584	0	0
2024-10-16 21:23:47			0	38320	0	0	0	21553	20120	161308	26986	1057119	46340	107913	0	0	8227	552702	0	0
2024-10-16 21:24:47			0	38301	0	0	0	21540	20110	161324	27034	1057190	46339	107908	0	0	8226	553483	0	0
2024-10-16 21:25:47			0	38306	0	0	0	21540	20100	161276	27189	1057119	46338	107908	0	0	8227	553316	0	0
2024-10-16 21:26:47			0	38307	0	0	0	21540	20110	161264	27270	1057155	46351	107908	0	0	8227	553246	0	0
2024-10-16 21:27:47			0	38330	0	0	0	21545	20110	161328	27201	1057128	46339	107910	0	0	8228	552338	0	0
2024-10-16 21:28:47			0	38316	0	0	0	21545	20120	161360	27213	1057075	46341	107910	0	0	8227	552860	0	0
2024-10-16 21:29:47			0	38305	0	0	0	21550	20110	161428	26981	1057137	46351	107912	0	0	8226	553325	0	0
2024-10-16 21:30:47			0	38300	0	0	0	21540	20110	161392	27220	1057155	46362	107908	0	0	8226	553523	0	0
2024-10-16 21:31:47			0	38279	0	0	0	21545	20110	161408	27412	1057137	46351	107910	0	0	8225	554353	0	0
2024-10-16 21:32:47			0	38260	0	0	0	21542	20100	161524	27145	1057092	46349	107909	0	0	8224	555135	0	0
2024-10-16 21:33:47			0	38255	0	0	0	21537	20110	161572	27119	1057101	46351	107907	0	0	8224	555303	0	0
2024-10-16 21:34:47			0	38251	0	0	0	21540	20100	161636	27199	1057110	46338	107908	0	0	8223	555492	0	0
2024-10-16 21:35:47			0	38279	0	0	0	21540	20100	161500	27140	1057172	46338	107908	0	0	8225	554383	0	0
2024-10-16 21:36:47			0	38257	0	0	0	21537	20100	161636	27284	1057066	46349	107907	0	0	8224	555254	0	0
2024-10-16 21:37:47			0	38254	0	0	0	21542	20110	161484	27469	1057155	46351	107909	0	0	8224	555342	0	0
2024-10-16 21:38:47			0	38267	0	0	0	21529	20100	161532	27317	1057039	46328	107904	0	0	8224	554858	0	0
2024-10-16 21:39:47			0	38268	0	0	0	21519	20100	161544	27319	1057057	46328	107900	0	0	8225	554819	0	0
2024-10-16 21:40:47			0	38289	0	0	0	21524	20090	161404	27248	1057048	46337	107902	0	0	8226	554019	0	0
2024-10-16 21:41:47			0	38300	0	0	0	21516	20090	161388	27059	1057101	46337	107899	0	0	8227	553584	0	0
2024-10-16 21:42:47			0	38291	0	0	0	21529	20090	161448	27208	1057048	46348	107904	0	0	8226	553939	0	0
2024-10-16 21:43:47			0	38309	0	0	0	21522	20100	161340	27448	1057004	46349	107901	0	0	8227	553198	0	0
2024-10-16 21:44:47			0	38290	0	0	0	21516	20100	161384	27263	1057030	46349	107899	0	0	8226	553948	0	0
2024-10-16 21:45:47			0	38317	0	0	0	21529	20100	161432	27260	1057013	46338	107904	0	0	8227	552882	0	0
2024-10-16 21:46:47			0	38320	0	0	0	21527	20100	161448	27249	1057039	46349	107903	0	0	8228	552763	0	0
2024-10-16 21:47:47			0	38310	0	0	0	21527	20090	161300	27185	1057048	46360	107903	0	0	8227	553189	0	0
2024-10-16 21:48:47			0	38280	0	0	0	21537	20100	161340	27213	1057057	46338	107907	0	0	8225	554344	0	0
2024-10-16 21:49:47			0	38283	0	0	0	21527	20090	161468	27190	1057065	46337	107903	0	0	8225	554256	0	0
2024-10-16 21:50:47			0	38270	0	0	0	21527	20090	161500	27374	1057048	46348	107903	0	0	8225	554770	0	0
2024-10-16 21:51:47			0	38284	0	0	0	21532	20090	161488	27294	1057021	46348	107905	0	0	8225	554216	0	0
2024-10-16 21:52:47			0	38277	0	0	0	21522	20090	161484	27078	1057048	46348	107901	0	0	8225	554493	0	0
2024-10-16 21:53:47			0	38276	0	0	0	21519	20090	161560	27005	1056995	46337	107900	0	0	8225	554533	0	0
2024-10-16 21:54:47			0	38296	0	0	0	21535	20090	161624	26861	1056995	46348	107906	0	0	8226	553742	0	0
2024-10-16 21:55:47			0	38291	0	0	0	21524	20080	161624	27052	1057021	46359	107902	0	0	8226	553970	0	0
2024-10-16 21:56:47			0	38291	0	0	0	21519	20090	161456	27346	1057021	46348	107900	0	0	8226	553939	0	0
2024-10-16 21:57:47			0	38273	0	0	0	21522	20100	161452	26963	1057030	46349	107901	0	0	8225	554621	0	0
2024-10-16 21:58:47			0	38303	0	0	0	21516	20090	161388	27204	1056985	46360	107899	0	0	8227	553465	0	0
2024-10-16 21:59:47			0	38289	0	0	0	21522	20090	161400	27175	1056995	46337	107901	0	0	8226	554019	0	0
2024-10-16 22:00:47			0	38311	0	0	0	21514	20080	161460	26991	1057021	46347	107898	0	0	8227	553180	0	0
2024-10-16 22:01:47			0	38318	0	0	0	21529	20080	161360	26826	1057021	46336	107904	0	0	8227	552903	0	0
2024-10-16 22:02:47			0	38313	0	0	0	21511	20080	161444	27095	1057003	46347	107897	0	0	8227	553101	0	0
2024-10-16 22:03:47			0	38296	0	0	0	21516	20080	161436	27048	1056976	46326	107899	0	0	8226	553772	0	0
2024-10-16 22:04:47			0	38289	0	0	0	21514	20080	161440	27086	1056976	46347	107898	0	0	8226	554049	0	0
2024-10-16 22:05:47			0	38300	0	0	0	21514	20080	161448	26729	1056950	46336	107898	0	0	8227	553614	0	0
2024-10-16 22:06:47			0	38291	0	0	0	21524	20080	161472	26764	1056967	46359	107902	0	0	8226	553970	0	0
2024-10-16 22:07:47			0	38252	0	0	0	21516	20080	161576	27241	1056976	46359	107899	0	0	8224	555513	0	0
2024-10-16 22:08:47			0	38271	0	0	0	21522	20080	161524	27177	1056950	46347	107901	0	0	8225	554761	0	0
2024-10-16 22:09:47			0	38267	0	0	0	21514	20080	161532	26932	1057021	46347	107898	0	0	8225	554920	0	0
2024-10-16 22:10:47			0	38274	0	0	0	21506	20090	161512	27365	1057012	46337	107895	0	0	8225	554612	0	0
2024-10-16 22:11:47			0	38265	0	0	0	21503	20070	161496	27256	1056932	46335	107894	0	0	8225	555029	0	0
2024-10-16 22:12:47			0	38289	0	0	0	21501	20090	161420	26901	1056985	46337	107893	0	0	8226	554019	0	0
2024-10-16 22:13:47			0	38305	0	0	0	21501	20080	161372	27211	1057030	46347	107893	0	0	8227	553417	0	0
2024-10-16 22:14:47			0	38307	0	0	0	21506	20080	161368	27150	1056941	46347	107895	0	0	8227	553338	0	0
2024-10-16 22:15:47			0	38303	0	0	0	21511	20070	161348	26746	1056932	46346	107897	0	0	8227	553526	0	0
2024-10-16 22:16:47			0	38301	0	0	0	21501	20070	161432	26750	1056932	46335	107893	0	0	8227	553605	0	0
2024-10-16 22:17:47			0	38299	0	0	0	21503	20070	161324	27026	1056985	46346	107894	0	0	8227	553684	0	0
2024-10-16 22:18:47			0	38318	0	0	0	21503	20070	161316	27114	1056985	46346	107894	0	0	8228	552934	0	0
2024-10-16 22:19:47			0	38344	0	0	0	21501	20070	161272	27185	1057012	46346	107893	0	0	8229	551908	0	0
2024-10-16 22:20:47			0	38331	0	0	0	21503	20080	161228	26833	1056941	46347	107894	0	0	8229	552390	0	0
2024-10-16 22:21:47			0	38337	0	0	0	21501	20070	161296	27248	1056896	46335	107893	0	0	8229	552184	0	0
2024-10-16 22:22:47			0	38342	0	0	0	21503	20080	161232	27220	1056967	46347	107894	0	0	8229	551956	0	0
2024-10-16 22:23:47			0	38353	0	0	0	21506	20070	161196	27223	1056923	46335	107895	0	0	8230	551553	0	0
2024-10-16 22:24:47			0	38336	0	0	0	21496	20070	161228	27033	1056923	46346	107891	0	0	8229	552223	0	0
2024-10-16 22:25:47			0	38344	0	0	0	21498	20070	161228	27180	1056905	46346	107892	0	0	8229	551908	0	0
2024-10-16 22:26:47			0	38300	0	0	0	21498	20070	161360	26889	1056932	46346	107892	0	0	8227	553645	0	0
2024-10-16 22:27:47			0	38267	0	0	0	21501	20060	161528	26729	1056914	46345	107893	0	0	8225	554981	0	0
2024-10-16 22:28:47			0	38243	0	0	0	21511	20070	161572	26968	1056950	46335	107897	0	0	8223	555901	0	0
2024-10-16 22:29:47			0	38236	0	0	0	21503	20060	161656	26996	1056914	46334	107894	0	0	8223	556209	0	0
2024-10-16 22:30:47			0	38223	0	0	0	21503	20070	161604	26880	1056896	46358	107894	0	0	8222	556693	0	0
2024-10-16 22:31:47			0	38220	0	0	0	21501	20070	161724	26968	1056905	46346	107893	0	0	8222	556812	0	0
2024-10-16 22:32:47			0	38222	0	0	0	21503	20070	161704	27050	1056923	46335	107894	0	0	8222	556733	0	0
2024-10-16 22:33:47			0	38232	0	0	0	21503	20060	161736	27234	1056941	46345	107894	0	0	8223	556367	0	0
2024-10-16 22:34:47			0	38229	0	0	0	21501	20070	161644	26724	1056950	46335	107893	0	0	8223	556455	0	0
2024-10-16 22:35:47			0	38263	0	0	0	21496	20060	161536	26986	1056914	46345	107891	0	0	8225	555139	0	0
2024-10-16 22:36:47			0	38268	0	0	0	21493	20070	161604	26918	1056950	46346	107890	0	0	8225	554910	0	0
2024-10-16 22:37:47			0	38227	0	0	0	21490	20070	161668	27157	1056896	46346	107889	0	0	8223	556535	0	0
2024-10-16 22:38:47			0	38202	0	0	0	21488	20060	161832	27230	1056887	46334	107888	0	0	8221	557557	0	0
2024-10-16 22:39:47			0	38222	0	0	0	21483	20060	161752	27255	1056852	46344	107886	0	0	8222	556764	0	0
2024-10-16 22:40:47			0	38205	0	0	0	21493	20060	161832	26930	1056879	46344	107890	0	0	8221	557438	0	0
2024-10-16 22:41:47			0	38196	0	0	0	21483	20060	161864	26961	1056825	46333	107886	0	0	8221	557796	0	0
2024-10-16 22:42:47			0	38199	0	0	0	21480	20060	161752	27164	1056861	46345	107885	0	0	8221	557676	0	0
2024-10-16 22:43:47			0	38200	0	0	0	21480	20060	161840	26989	1056905	46323	107885	0	0	8221	557637	0	0
2024-10-16 22:44:47			0	38201	0	0	0	21480	20050	161820	27149	1056870	46333	107885	0	0	8221	557628	0	0
2024-10-16 22:45:47			0	38186	0	0	0	21475	20060	161892	27400	1056879	46333	107883	0	0	8220	558193	0	0
2024-10-16 22:46:47			0	38196	0	0	0	21483	20050	161900	27128	1056834	46343	107886	0	0	8221	557826	0	0
2024-10-16 22:47:47			0	38185	0	0	0	21477	20070	161860	27305	1056870	46325	107884	0	0	8220	558202	0	0
2024-10-16 22:48:47			0	38193	0	0	0	21483	20050	161944	27071	1056816	46333	107886	0	0	8221	557945	0	0
2024-10-16 22:49:47			0	38179	0	0	0	21480	20050	161892	27279	1056834	46343	107885	0	0	8220	558502	0	0
2024-10-16 22:50:47			0	38204	0	0	0	21475	20050	161924	26944	1056861	46355	107883	0	0	8221	557509	0	0
2024-10-16 22:51:47			0	38191	0	0	0	21480	20060	161884	27022	1056852	46333	107885	0	0	8221	557994	0	0
2024-10-16 22:52:47			0	38165	0	0	0	21480	20050	162008	27045	1056870	46333	107885	0	0	8219	559058	0	0
2024-10-16 22:53:47			0	38153	0	0	0	21475	20050	162000	27251	1056870	46333	107883	0	0	8218	559535	0	0
2024-10-16 22:54:47			0	38168	0	0	0	21475	20040	162036	26871	1056798	46333	107883	0	0	8219	558970	0	0
2024-10-16 22:55:47			0	38165	0	0	0	21470	20040	161980	26982	1056798	46322	107881	0	0	8219	559089	0	0
2024-10-16 22:56:47			0	38158	0	0	0	21472	20040	162024	27043	1056763	46342	107882	0	0	8219	559367	0	0
2024-10-16 22:57:47			0	38163	0	0	0	21475	20040	162020	27424	1056843	46332	107883	0	0	8219	559168	0	0
2024-10-16 22:58:47			0	38156	0	0	0	21472	20050	161996	27053	1056807	46343	107882	0	0	8219	559416	0	0
2024-10-16 22:59:47			0	38164	0	0	0	21472	20040	162032	27279	1056869	46342	107882	0	0	8219	559129	0	0
2024-10-16 23:00:47			0	38159	0	0	0	21480	20050	161992	27039	1056834	46333	107885	0	0	8219	559297	0	0
2024-10-16 23:01:47			0	38143	0	0	0	21477	20040	162000	27267	1056790	46332	107884	0	0	8218	559964	0	0
2024-10-16 23:02:47			0	38150	0	0	0	21470	20040	162028	27329	1056816	46342	107881	0	0	8218	559686	0	0
2024-10-16 23:03:47			0	38134	0	0	0	21475	20040	162068	26981	1056816	46332	107883	0	0	8217	560323	0	0
2024-10-16 23:04:47			0	38145	0	0	0	21470	20040	162004	27234	1056825	46343	107881	0	0	8218	559885	0	0
2024-10-16 23:05:47			0	38143	0	0	0	21472	20040	161912	27062	1056852	46333	107882	0	0	8218	559964	0	0
2024-10-16 23:06:47			0	38145	0	0	0	21467	20030	162020	26863	1056807	46332	107880	0	0	8218	559915	0	0
2024-10-16 23:07:47			0	38165	0	0	0	21467	20030	162012	26994	1056727	46342	107880	0	0	8219	559120	0	0
2024-10-16 23:08:47			0	38174	0	0	0	21470	20040	161872	26804	1056790	46342	107881	0	0	8220	558731	0	0
2024-10-16 23:09:47			0	38153	0	0	0	21472	20030	162068	27353	1056781	46342	107882	0	0	8218	559597	0	0
2024-10-16 23:10:47			0	38161	0	0	0	21464	20040	161996	27381	1056852	46343	107879	0	0	8219	559248	0	0
2024-10-16 23:11:47			0	38166	0	0	0	21470	20040	161928	26939	1056798	46343	107881	0	0	8219	559049	0	0
2024-10-16 23:12:47			0	38161	0	0	0	21477	20030	161944	26871	1056834	46342	107884	0	0	8219	559279	0	0
2024-10-16 23:13:47			0	38164	0	0	0	21467	20030	161964	27074	1056781	46321	107880	0	0	8219	559159	0	0
2024-10-16 23:14:47			0	38154	0	0	0	21467	20030	162064	27244	1056754	46342	107880	0	0	8219	559557	0	0
2024-10-16 23:15:47			0	38154	0	0	0	21464	20040	161944	27324	1056825	46343	107879	0	0	8219	559526	0	0
2024-10-16 23:16:47			0	38150	0	0	0	21467	20040	162040	27241	1056816	46342	107880	0	0	8218	559686	0	0
2024-10-16 23:17:47			0	38143	0	0	0	21467	20030	162124	27194	1056781	46342	107880	0	0	8218	559995	0	0
2024-10-16 23:18:47			0	38145	0	0	0	21464	20030	162048	27185	1056781	46342	107879	0	0	8218	559915	0	0
2024-10-16 23:19:47			0	38143	0	0	0	21472	20030	162056	26904	1056807	46332	107882	0	0	8218	559995	0	0
2024-10-16 23:20:47			0	38157	0	0	0	21457	20040	162112	27126	1056825	46333	107876	0	0	8219	559407	0	0
2024-10-16 23:21:47			0	38149	0	0	0	21464	20030	162080	27248	1056781	46342	107879	0	0	8218	559756	0	0
2024-10-16 23:22:47			0	38157	0	0	0	21451	20040	162000	27227	1056790	46332	107874	0	0	8219	559407	0	0
2024-10-16 23:23:47			0	38140	0	0	0	21459	20040	162096	27353	1056816	46342	107877	0	0	8218	560084	0	0
2024-10-16 23:24:47			0	38149	0	0	0	21467	20030	162088	27150	1056798	46341	107880	0	0	8218	559756	0	0
2024-10-16 23:25:47			0	38141	0	0	0	21457	20030	162104	27092	1056807	46342	107876	0	0	8218	560075	0	0
2024-10-16 23:26:47			0	38152	0	0	0	21467	20040	162036	26811	1056790	46332	107880	0	0	8218	559606	0	0
2024-10-16 23:27:47			0	38156	0	0	0	21464	20040	162060	27511	1056816	46332	107879	0	0	8219	559447	0	0
2024-10-16 23:28:47			0	38147	0	0	0	21467	20030	162144	27150	1056754	46354	107880	0	0	8218	559836	0	0
2024-10-16 23:29:47			0	38126	0	0	0	21451	20030	161976	27152	1056807	46332	107874	0	0	8217	560672	0	0
2024-10-16 23:30:47			0	38137	0	0	0	21462	20030	162124	27015	1056798	46320	107878	0	0	8218	560234	0	0
2024-10-16 23:31:47			0	38120	0	0	0	21457	20030	162104	27279	1056727	46342	107876	0	0	8217	560911	0	0
2024-10-16 23:32:47			0	38127	0	0	0	21467	20030	162192	27445	1056754	46332	107880	0	0	8217	560632	0	0
2024-10-16 23:33:47			0	38110	0	0	0	21467	20040	162160	27275	1056763	46342	107880	0	0	8216	561279	0	0
2024-10-16 23:34:47			0	38105	0	0	0	21462	20030	162260	27048	1056772	46331	107878	0	0	8216	561509	0	0
2024-10-16 23:35:47			0	38116	0	0	0	21454	20030	162112	27053	1056754	46321	107875	0	0	8217	561071	0	0
2024-10-16 23:36:47			0	38114	0	0	0	21457	20030	162260	27178	1056798	46353	107876	0	0	8216	561150	0	0
2024-10-16 23:37:47			0	38109	0	0	0	21459	20030	162244	27329	1056745	46341	107877	0	0	8216	561349	0	0
2024-10-16 23:38:47			0	38112	0	0	0	21459	20030	162188	27098	1056754	46332	107877	0	0	8216	561230	0	0
2024-10-16 23:39:47			0	38113	0	0	0	21454	20030	162228	26972	1056772	46353	107875	0	0	8216	561190	0	0
2024-10-16 23:40:47			0	38127	0	0	0	21449	20020	162152	27170	1056710	46331	107873	0	0	8217	560663	0	0
2024-10-16 23:41:47			0	38128	0	0	0	21446	20030	162176	27187	1056639	46331	107872	0	0	8217	560592	0	0
2024-10-16 23:42:47			0	38119	0	0	0	21459	20030	162144	26977	1056718	46341	107877	0	0	8217	560951	0	0
2024-10-16 23:43:47			0	38129	0	0	0	21451	20020	162084	27388	1056736	46331	107874	0	0	8217	560583	0	0
2024-10-16 23:44:47			0	38136	0	0	0	21444	20020	162052	27164	1056763	46320	107871	0	0	8218	560305	0	0
2024-10-16 23:45:47			0	38134	0	0	0	21451	20020	162160	27128	1056710	46341	107874	0	0	8218	560384	0	0
2024-10-16 23:46:47			0	38135	0	0	0	21454	20030	162072	26923	1056772	46331	107875	0	0	8218	560314	0	0
2024-10-16 23:47:47			0	38152	0	0	0	21449	20030	162112	27045	1056727	46342	107873	0	0	8219	559637	0	0
2024-10-16 23:48:47			0	38147	0	0	0	21459	20020	162032	27251	1056674	46330	107877	0	0	8218	559867	0	0
2024-10-16 23:49:47			0	38152	0	0	0	21457	20020	162124	27010	1056710	46331	107876	0	0	8219	559668	0	0
2024-10-16 23:50:47			0	38135	0	0	0	21451	20020	162088	27164	1056736	46353	107874	0	0	8218	560345	0	0
2024-10-16 23:51:47			0	38150	0	0	0	21449	20030	162080	27176	1056745	46331	107873	0	0	8219	559716	0	0
2024-10-16 23:52:47			0	38157	0	0	0	21459	20010	162116	27227	1056665	46340	107877	0	0	8219	559500	0	0
2024-10-16 23:53:47			0	38156	0	0	0	21464	20030	162060	27180	1056745	46353	107879	0	0	8219	559478	0	0
2024-10-16 23:54:47			0	38159	0	0	0	21457	20020	162032	27104	1056763	46320	107876	0	0	8219	559389	0	0
2024-10-16 23:55:47			0	38161	0	0	0	21446	20020	162120	27225	1056816	46320	107872	0	0	8219	559310	0	0
2024-10-16 23:56:47			0	38142	0	0	0	21451	20020	162088	27015	1056674	46340	107874	0	0	8218	560066	0	0
2024-10-16 23:57:47			0	38136	0	0	0	21449	20030	162216	27313	1056745	46353	107873	0	0	8218	560274	0	0
2024-10-16 23:58:47			0	38101	0	0	0	21441	20020	162216	27220	1056789	46341	107870	0	0	8216	561699	0	0
2024-10-16 23:59:47			0	38105	0	0	0	21449	20010	162332	27331	1056665	46330	107873	0	0	8216	561571	0	0
2024-10-17 00:00:47			0	38105	0	0	0	21446	20020	162336	26970	1056674	46340	107872	0	0	8216	561540	0	0
2024-10-17 00:01:47			0	38083	0	0	0	21451	20020	162260	27505	1056710	46331	107874	0	0	8215	562418	0	0
2024-10-17 00:02:47			0	38077	0	0	0	21449	20020	162308	27352	1056754	46340	107873	0	0	8214	562657	0	0
2024-10-17 00:03:47			0	38099	0	0	0	21444	20020	162284	27277	1056674	46340	107871	0	0	8216	561779	0	0
2024-10-17 00:04:47			0	38087	0	0	0	21451	20020	162304	27183	1056727	46330	107874	0	0	8215	562258	0	0
2024-10-17 00:05:47			0	38088	0	0	0	21444	20010	162304	27213	1056656	46329	107871	0	0	8215	562249	0	0
2024-10-17 00:06:47			0	38075	0	0	0	21446	20020	162392	27329	1056710	46331	107872	0	0	8214	562737	0	0
2024-10-17 00:07:47			0	38080	0	0	0	21454	20010	162364	27062	1056692	46340	107875	0	0	8214	562568	0	0
2024-10-17 00:08:47			0	38093	0	0	0	21446	20010	162364	27177	1056665	46330	107872	0	0	8215	562050	0	0
2024-10-17 00:09:47			0	38082	0	0	0	21449	20010	162344	27041	1056656	46318	107873	0	0	8215	562489	0	0
2024-10-17 00:10:47			0	38080	0	0	0	21459	20010	162400	27085	1056745	46330	107877	0	0	8214	562568	0	0
2024-10-17 00:11:47			0	38076	0	0	0	21464	20020	162396	27242	1056701	46340	107879	0	0	8214	562697	0	0
2024-10-17 00:12:47			0	38055	0	0	0	21462	20020	162424	27258	1056789	46341	107878	0	0	8213	563536	0	0
2024-10-17 00:13:47			0	38049	0	0	0	21464	20020	162540	27147	1056701	46352	107879	0	0	8212	563776	0	0
2024-10-17 00:14:47			0	38047	0	0	0	21449	20030	162600	27331	1056692	46341	107873	0	0	8213	563825	0	0
2024-10-17 00:15:47			0	38039	0	0	0	21459	20020	162580	26854	1056727	46340	107877	0	0	8212	564176	0	0
2024-10-17 00:16:47			0	38017	0	0	0	21462	20020	162607	26641	1056674	46352	107878	0	0	8211	565056	0	0
2024-10-17 00:17:47			0	38035	0	0	0	21464	20010	162508	27093	1056692	46340	107879	0	0	8212	564367	0	0
2024-10-17 00:18:47			0	38017	0	0	0	21462	20010	162619	27027	1056692	46352	107878	0	0	8211	565087	0	0
2024-10-17 00:19:47			0	38013	0	0	0	21467	20010	162687	26765	1056692	46352	107880	0	0	8210	565247	0	0
2024-10-17 00:20:47			0	38041	0	0	0	21467	20010	162608	27072	1056718	46352	107880	0	0	8212	564127	0	0
2024-10-17 00:21:47			0	38039	0	0	0	21467	20020	162524	27182	1056727	46340	107880	0	0	8212	564176	0	0
2024-10-17 00:22:47			0	38033	0	0	0	21457	20020	162560	26847	1056789	46341	107876	0	0	8212	564416	0	0
2024-10-17 00:23:47			0	38034	0	0	0	21475	20020	162500	26911	1056701	46340	107883	0	0	8211	564376	0	0
2024-10-17 00:24:47			0	38032	0	0	0	21462	20020	162428	26791	1056763	46353	107878	0	0	8211	564456	0	0
2024-10-17 00:25:47			0	38059	0	0	0	21459	20020	162408	27130	1056710	46341	107877	0	0	8213	563376	0	0
2024-10-17 00:26:47			0	38051	0	0	0	21462	20030	162420	26795	1056718	46331	107878	0	0	8213	563665	0	0
2024-10-17 00:27:47			0	38048	0	0	0	21449	20020	162476	27353	1056780	46340	107873	0	0	8213	563816	0	0
2024-10-17 00:28:47			0	38052	0	0	0	21446	20020	162424	26733	1056754	46330	107872	0	0	8213	563656	0	0
2024-10-17 00:29:47			0	38045	0	0	0	21454	20020	162448	27007	1056710	46331	107875	0	0	8212	563936	0	0
2024-10-17 00:30:47			0	38046	0	0	0	21446	20020	162468	26693	1056789	46341	107872	0	0	8213	563896	0	0
2024-10-17 00:31:47			0	38054	0	0	0	21457	20010	162448	27045	1056638	46340	107876	0	0	8213	563607	0	0
2024-10-17 00:32:47			0	38035	0	0	0	21454	20020	162516	26883	1056754	46330	107875	0	0	8212	564336	0	0
2024-10-17 00:33:47			0	38047	0	0	0	21454	20010	162516	26889	1056718	46340	107875	0	0	8212	563887	0	0
2024-10-17 00:34:47			0	38042	0	0	0	21457	20020	162508	26897	1056816	46331	107876	0	0	8212	564056	0	0
2024-10-17 00:35:47			0	38011	0	0	0	21459	20020	162531	26687	1056763	46341	107877	0	0	8210	565296	0	0
2024-10-17 00:36:47			0	38033	0	0	0	21459	20020	162580	26961	1056754	46352	107877	0	0	8212	564416	0	0
2024-10-17 00:37:47			0	38036	0	0	0	21459	20020	162444	27022	1056780	46340	107877	0	0	8212	564296	0	0
2024-10-17 00:38:47			0	38035	0	0	0	21451	20010	162492	27144	1056745	46340	107874	0	0	8212	564367	0	0
2024-10-17 00:39:47			0	38035	0	0	0	21457	20020	162488	26764	1056727	46319	107876	0	0	8212	564336	0	0
2024-10-17 00:40:47			0	38051	0	0	0	21462	20020	162464	26750	1056754	46340	107878	0	0	8213	563696	0	0
2024-10-17 00:41:47			0	38059	0	0	0	21459	20020	162520	26680	1056754	46330	107877	0	0	8213	563376	0	0
2024-10-17 00:42:47			0	38048	0	0	0	21454	20020	162428	27215	1056763	46331	107875	0	0	8213	563816	0	0
2024-10-17 00:43:47			0	38059	0	0	0	21457	20020	162512	26863	1056763	46341	107876	0	0	8213	563376	0	0
2024-10-17 00:44:47			0	38026	0	0	0	21457	20010	162527	27111	1056692	46352	107876	0	0	8211	564727	0	0
2024-10-17 00:45:47			0	38041	0	0	0	21459	20020	162560	26961	1056780	46340	107877	0	0	8212	564096	0	0
2024-10-17 00:46:47			0	38018	0	0	0	21462	20020	162591	26972	1056727	46340	107878	0	0	8211	565016	0	0
2024-10-17 00:47:47			0	38036	0	0	0	21457	20020	162620	27265	1056789	46341	107876	0	0	8212	564296	0	0
2024-10-17 00:48:47			0	38033	0	0	0	21472	20010	162520	27170	1056718	46330	107882	0	0	8211	564447	0	0
2024-10-17 00:49:47			0	38055	0	0	0	21477	20010	162488	27164	1056745	46340	107884	0	0	8212	563567	0	0
2024-10-17 00:50:47			0	38048	0	0	0	21464	20010	162368	26785	1056771	46352	107879	0	0	8212	563847	0	0
2024-10-17 00:51:47			0	38094	0	0	0	21475	20020	162380	26847	1056763	46331	107883	0	0	8215	561979	0	0
2024-10-17 00:52:47			0	38083	0	0	0	21475	20030	162360	26788	1056798	46341	107883	0	0	8214	562387	0	0
2024-10-17 00:53:47			0	38068	0	0	0	21488	20030	162320	27100	1056772	46341	107888	0	0	8213	562986	0	0
2024-10-17 00:54:47			0	38092	0	0	0	21477	20020	162320	26715	1056789	46331	107884	0	0	8215	562059	0	0
2024-10-17 00:55:47			0	38091	0	0	0	21475	20030	162360	26979	1056851	46353	107883	0	0	8215	562068	0	0
2024-10-17 00:56:47			0	38081	0	0	0	21475	20030	162304	26824	1056825	46341	107883	0	0	8214	562467	0	0
2024-10-17 00:57:47			0	38107	0	0	0	21477	20030	162256	26627	1056825	46331	107884	0	0	8216	561429	0	0
2024-10-17 00:58:47			0	38080	0	0	0	21475	20040	162316	26743	1056843	46332	107883	0	0	8214	562475	0	0
2024-10-17 00:59:47			0	38082	0	0	0	21462	20030	162304	26828	1056781	46332	107878	0	0	8214	562427	0	0
2024-10-17 01:00:47			0	38087	0	0	0	21475	20020	162280	26689	1056807	46340	107883	0	0	8214	562258	0	0
2024-10-17 01:01:47			0	38098	0	0	0	21472	20020	162212	27109	1056789	46341	107882	0	0	8215	561819	0	0
2024-10-17 01:02:47			0	38102	0	0	0	21475	20030	162304	26746	1056798	46320	107883	0	0	8215	561629	0	0
2024-10-17 01:03:47			0	38082	0	0	0	21475	20020	162240	27095	1056763	46341	107883	0	0	8214	562458	0	0
2024-10-17 01:04:47			0	38083	0	0	0	21475	20030	162304	26915	1056825	46341	107883	0	0	8214	562387	0	0
2024-10-17 01:05:47			0	38090	0	0	0	21475	20020	162304	26871	1056789	46320	107883	0	0	8215	562138	0	0
2024-10-17 01:06:47			0	38091	0	0	0	21459	20030	162224	27178	1056745	46331	107877	0	0	8215	562068	0	0
2024-10-17 01:07:47			0	38091	0	0	0	21472	20040	162304	27107	1056843	46332	107882	0	0	8215	562037	0	0
2024-10-17 01:08:47			0	38095	0	0	0	21470	20030	162356	27119	1056825	46341	107881	0	0	8215	561908	0	0
2024-10-17 01:09:47			0	38100	0	0	0	21472	20030	162284	26889	1056825	46353	107882	0	0	8215	561708	0	0
2024-10-17 01:10:47			0	38095	0	0	0	21464	20030	162428	26838	1056798	46341	107879	0	0	8215	561908	0	0
2024-10-17 01:11:47			0	38085	0	0	0	21464	20030	162424	27039	1056825	46331	107879	0	0	8215	562307	0	0
2024-10-17 01:12:47			0	38061	0	0	0	21470	20030	162460	26765	1056754	46332	107881	0	0	8213	563265	0	0
2024-10-17 01:13:47			0	38042	0	0	0	21457	20030	162532	26710	1056781	46354	107876	0	0	8212	564025	0	0
2024-10-17 01:14:47			0	38045	0	0	0	21462	20020	162416	27119	1056816	46341	107878	0	0	8212	563936	0	0
2024-10-17 01:15:47			0	38017	0	0	0	21459	20030	162503	26977	1056754	46342	107877	0	0	8211	565025	0	0
2024-10-17 01:16:47			0	38016	0	0	0	21454	20030	162555	27069	1056754	46332	107875	0	0	8211	565065	0	0
2024-10-17 01:17:47			0	38018	0	0	0	21441	20020	162559	26844	1056763	46341	107870	0	0	8211	565016	0	0
2024-10-17 01:18:47			0	37991	0	0	0	21451	20030	162719	26778	1056718	46341	107874	0	0	8209	566066	0	0
2024-10-17 01:19:47			0	37971	0	0	0	21451	20020	162623	26642	1056763	46341	107874	0	0	8208	566899	0	0
2024-10-17 01:20:47			0	37970	0	0	0	21451	20020	162703	26760	1056736	46331	107874	0	0	8208	566940	0	0
2024-10-17 01:21:47			0	37981	0	0	0	21454	20020	162727	27029	1056683	46320	107875	0	0	8209	566498	0	0
2024-10-17 01:22:47			0	37982	0	0	0	21454	20020	162819	27263	1056710	46341	107875	0	0	8209	566458	0	0
2024-10-17 01:23:47			0	37967	0	0	0	21449	20010	162819	27102	1056718	46319	107873	0	0	8208	567091	0	0
2024-10-17 01:24:47			0	37959	0	0	0	21446	20020	162811	26816	1056736	46341	107872	0	0	8207	567381	0	0
2024-10-17 01:25:47			0	37942	0	0	0	21449	20020	162863	27093	1056701	46340	107873	0	0	8206	568064	0	0
2024-10-17 01:26:47			0	37942	0	0	0	21449	20020	162999	26830	1056789	46331	107873	0	0	8206	568064	0	0
2024-10-17 01:27:47			0	37929	0	0	0	21446	20010	162891	26965	1056656	46339	107872	0	0	8206	568617	0	0
2024-10-17 01:28:47			0	37943	0	0	0	21457	20020	162847	27026	1056736	46331	107876	0	0	8206	568023	0	0
2024-10-17 01:29:47			0	37955	0	0	0	21451	20020	162867	27060	1056754	46330	107874	0	0	8207	567542	0	0
2024-10-17 01:30:47			0	37962	0	0	0	21454	20020	162875	26800	1056727	46330	107875	0	0	8207	567261	0	0
2024-10-17 01:31:47			0	37951	0	0	0	21454	20020	162775	26632	1056727	46330	107875	0	0	8207	567702	0	0
2024-10-17 01:32:47			0	37951	0	0	0	21451	20020	162803	27088	1056754	46352	107874	0	0	8207	567702	0	0
2024-10-17 01:33:47			0	37949	0	0	0	21454	20020	162807	27187	1056727	46330	107875	0	0	8207	567782	0	0
2024-10-17 01:34:47			0	37936	0	0	0	21454	20010	162811	26753	1056665	46340	107875	0	0	8206	568336	0	0
2024-10-17 01:35:47			0	37942	0	0	0	21449	20020	162843	27215	1056736	46353	107873	0	0	8206	568064	0	0
2024-10-17 01:36:47			0	37937	0	0	0	21449	20010	162887	26923	1056762	46339	107873	0	0	8206	568296	0	0
2024-10-17 01:37:47			0	37938	0	0	0	21459	20020	162855	27036	1056710	46341	107877	0	0	8206	568224	0	0
2024-10-17 01:38:47			0	37960	0	0	0	21459	20020	162831	27249	1056754	46330	107877	0	0	8207	567341	0	0
2024-10-17 01:39:47			0	37978	0	0	0	21462	20020	162851	27093	1056754	46340	107878	0	0	8208	566619	0	0
2024-10-17 01:40:47			0	37977	0	0	0	21459	20020	162651	27079	1056701	46340	107877	0	0	8208	566659	0	0
2024-10-17 01:41:47			0	37989	0	0	0	21459	20020	162619	27286	1056674	46352	107877	0	0	8209	566178	0	0
2024-10-17 01:42:47			0	37991	0	0	0	21459	20010	162655	27274	1056771	46340	107877	0	0	8209	566129	0	0
2024-10-17 01:43:47			0	37997	0	0	0	21462	20020	162623	27092	1056780	46352	107878	0	0	8209	565857	0	0
2024-10-17 01:44:47			0	37996	0	0	0	21457	20020	162699	26715	1056763	46353	107876	0	0	8209	565897	0	0
2024-10-17 01:45:47			0	37968	0	0	0	21464	20020	162723	27065	1056736	46341	107879	0	0	8208	567020	0	0
2024-10-17 01:46:47			0	37972	0	0	0	21459	20020	162647	27206	1056763	46331	107877	0	0	8208	566859	0	0
2024-10-17 01:47:47			0	37981	0	0	0	21454	20020	162667	26920	1056647	46330	107875	0	0	8209	566498	0	0
2024-10-17 01:48:47			0	37970	0	0	0	21457	20030	162763	27130	1056745	46341	107876	0	0	8208	566908	0	0
2024-10-17 01:49:47			0	37970	0	0	0	21459	20020	162759	27130	1056754	46352	107877	0	0	8208	566940	0	0
2024-10-17 01:50:47			0	37985	0	0	0	21457	20020	162707	26863	1056754	46330	107876	0	0	8209	566338	0	0
2024-10-17 01:51:47			0	37970	0	0	0	21457	20010	162775	27026	1056771	46352	107876	0	0	8208	566971	0	0
2024-10-17 01:52:47			0	37984	0	0	0	21462	20020	162799	26986	1056789	46341	107878	0	0	8209	566378	0	0
2024-10-17 01:53:47			0	37990	0	0	0	21459	20020	162663	27104	1056727	46340	107877	0	0	8209	566138	0	0
2024-10-17 01:54:47			0	38006	0	0	0	21464	20020	162603	26687	1056701	46340	107879	0	0	8210	565497	0	0
2024-10-17 01:55:47			0	38021	0	0	0	21462	20010	162524	26934	1056718	46330	107878	0	0	8211	564927	0	0
2024-10-17 01:56:47			0	38004	0	0	0	21459	20020	162583	27159	1056833	46340	107877	0	0	8210	565577	0	0
2024-10-17 01:57:47			0	38009	0	0	0	21457	20020	162535	27222	1056736	46353	107876	0	0	8210	565376	0	0
2024-10-17 01:58:47			0	38018	0	0	0	21451	20020	162524	27005	1056780	46352	107874	0	0	8211	565016	0	0
2024-10-17 01:59:47			0	38018	0	0	0	21457	20020	162567	26899	1056763	46331	107876	0	0	8211	565016	0	0
2024-10-17 02:00:47			0	38005	0	0	0	21464	20020	162595	27093	1056754	46352	107879	0	0	8210	565537	0	0
2024-10-17 02:01:47			0	38017	0	0	0	21454	20030	162555	27112	1056745	46341	107875	0	0	8211	565025	0	0
2024-10-17 02:02:47			0	38022	0	0	0	21446	20020	162487	27244	1056763	46341	107872	0	0	8211	564856	0	0
2024-10-17 02:03:47			0	38033	0	0	0	21457	20020	162600	27098	1056727	46340	107876	0	0	8212	564416	0	0
2024-10-17 02:04:47			0	38033	0	0	0	21449	20010	162492	26901	1056745	46330	107873	0	0	8212	564447	0	0
2024-10-17 02:05:47			0	38006	0	0	0	21446	20010	162631	27013	1056692	46340	107872	0	0	8210	565528	0	0
2024-10-17 02:06:47			0	38018	0	0	0	21438	20020	162647	27053	1056701	46340	107869	0	0	8211	565016	0	0
2024-10-17 02:07:47			0	37982	0	0	0	21449	20020	162671	27133	1056763	46331	107873	0	0	8209	566458	0	0
2024-10-17 02:08:47			0	37980	0	0	0	21451	20020	162707	27102	1056701	46330	107874	0	0	8209	566539	0	0
2024-10-17 02:09:47			0	37985	0	0	0	21449	20010	162775	27317	1056718	46352	107873	0	0	8209	566369	0	0
2024-10-17 02:10:47			0	37999	0	0	0	21454	20010	162639	27265	1056692	46340	107875	0	0	8210	565808	0	0
2024-10-17 02:11:47			0	38013	0	0	0	21454	20020	162603	26844	1056701	46352	107875	0	0	8210	565216	0	0
2024-10-17 02:12:47			0	38024	0	0	0	21449	20010	162599	27124	1056745	46330	107873	0	0	8211	564807	0	0
2024-10-17 02:13:47			0	38031	0	0	0	21449	20020	162491	26748	1056780	46330	107873	0	0	8212	564496	0	0
2024-10-17 02:14:47			0	38022	0	0	0	21436	20010	162567	27145	1056736	46339	107868	0	0	8211	564887	0	0
2024-10-17 02:15:47			0	38006	0	0	0	21441	20010	162607	27071	1056718	46330	107870	0	0	8210	565528	0	0
2024-10-17 02:16:47			0	38009	0	0	0	21444	20020	162691	26797	1056763	46353	107871	0	0	8210	565376	0	0
2024-10-17 02:17:47			0	37985	0	0	0	21438	20010	162663	27072	1056718	46330	107869	0	0	8209	566369	0	0
2024-10-17 02:18:47			0	37985	0	0	0	21444	20010	162683	26741	1056683	46329	107871	0	0	8209	566369	0	0
2024-10-17 02:19:47			0	37961	0	0	0	21444	20010	162795	26930	1056692	46340	107871	0	0	8208	567332	0	0
2024-10-17 02:20:47			0	37966	0	0	0	21438	20010	162831	27131	1056692	46340	107869	0	0	8208	567131	0	0
2024-10-17 02:21:47			0	37953	0	0	0	21454	20010	162839	27229	1056683	46329	107875	0	0	8207	567653	0	0
2024-10-17 02:22:47			0	37954	0	0	0	21436	20020	162863	27234	1056674	46319	107868	0	0	8207	567582	0	0
2024-10-17 02:23:47			0	37959	0	0	0	21438	20010	162847	27277	1056656	46351	107869	0	0	8207	567412	0	0
2024-10-17 02:24:47			0	37963	0	0	0	21446	20010	162715	27312	1056709	46351	107872	0	0	8208	567252	0	0
2024-10-17 02:25:47			0	37972	0	0	0	21444	20010	162755	27300	1056603	46351	107871	0	0	8208	566891	0	0
2024-10-17 02:26:47			0	37972	0	0	0	21444	20010	162819	27279	1056683	46329	107871	0	0	8208	566891	0	0
2024-10-17 02:27:47			0	37980	0	0	0	21441	20010	162659	27176	1056692	46340	107870	0	0	8209	566570	0	0
2024-10-17 02:28:47			0	37983	0	0	0	21444	20010	162739	27462	1056709	46318	107871	0	0	8209	566449	0	0
2024-10-17 02:29:47			0	37993	0	0	0	21446	20020	162635	27310	1056727	46340	107872	0	0	8209	566017	0	0
2024-10-17 02:30:47			0	37998	0	0	0	21451	20010	162679	27126	1056718	46352	107874	0	0	8210	565848	0	0
2024-10-17 02:31:47			0	37979	0	0	0	21451	20010	162583	27166	1056718	46340	107874	0	0	8208	566610	0	0
2024-10-17 02:32:47			0	37994	0	0	0	21446	20010	162547	27085	1056683	46329	107872	0	0	8209	566009	0	0
2024-10-17 02:33:47			0	38004	0	0	0	21444	20000	162639	26816	1056727	46318	107871	0	0	8210	565639	0	0
2024-10-17 02:34:47			0	38010	0	0	0	21446	20010	162667	26984	1056745	46340	107872	0	0	8210	565368	0	0
2024-10-17 02:35:47			0	38006	0	0	0	21444	20010	162615	26941	1056736	46329	107871	0	0	8210	565528	0	0
2024-10-17 02:36:47			0	38006	0	0	0	21441	20000	162499	26960	1056674	46329	107870	0	0	8210	565559	0	0
2024-10-17 02:37:47			0	37991	0	0	0	21451	20020	162603	27180	1056647	46340	107874	0	0	8209	566097	0	0
2024-10-17 02:38:47			0	37998	0	0	0	21444	20010	162475	27088	1056718	46340	107871	0	0	8210	565848	0	0
2024-10-17 02:39:47			0	37996	0	0	0	21441	20010	162531	26946	1056736	46329	107870	0	0	8210	565928	0	0
2024-10-17 02:40:47			0	37976	0	0	0	21438	20010	162691	26909	1056692	46340	107869	0	0	8208	566730	0	0
2024-10-17 02:41:47			0	37967	0	0	0	21438	20010	162759	26868	1056709	46339	107869	0	0	8208	567091	0	0
2024-10-17 02:42:47			0	37974	0	0	0	21438	20010	162715	27140	1056683	46339	107869	0	0	8208	566810	0	0
2024-10-17 02:43:47			0	37950	0	0	0	21438	20010	162783	27048	1056736	46339	107869	0	0	8207	567774	0	0
2024-10-17 02:44:47			0	37957	0	0	0	21433	20010	162819	26864	1056736	46318	107867	0	0	8207	567493	0	0
2024-10-17 02:45:47			0	37933	0	0	0	21415	20000	162887	27202	1056612	46350	107860	0	0	8206	568488	0	0
2024-10-17 02:46:47			0	37929	0	0	0	21402	20000	162983	27086	1056700	46318	107855	0	0	8206	568649	0	0
2024-10-17 02:47:47			0	37888	0	0	0	21386	19990	163087	27339	1056549	46327	107849	0	0	8204	570330	0	0
2024-10-17 02:48:47			0	37874	0	0	0	21399	19990	163043	26981	1056576	46316	107854	0	0	8203	570894	0	0
2024-10-17 02:49:47			0	37892	0	0	0	21410	19990	163079	26913	1056629	46327	107858	0	0	8204	570169	0	0
2024-10-17 02:50:47			0	37883	0	0	0	21368	20000	163115	26899	1056612	46328	107842	0	0	8204	570500	0	0
2024-10-17 02:51:47			0	37852	0	0	0	21363	19980	163111	27150	1056532	46337	107840	0	0	8202	571812	0	0
2024-10-17 02:52:47			0	37852	0	0	0	21353	19980	163327	26790	1056505	46337	107836	0	0	8202	571812	0	0
2024-10-17 02:53:47			0	37829	0	0	0	21332	19980	163395	27194	1056416	46326	107828	0	0	8201	572741	0	0
2024-10-17 02:54:47			0	37795	0	0	0	21324	19970	163467	27093	1056434	46314	107825	0	0	8200	574146	0	0
2024-10-17 02:55:47			0	37772	0	0	0	21327	19960	163627	26866	1056389	46302	107826	0	0	8198	575109	0	0
2024-10-17 02:56:47			0	37750	0	0	0	21319	19950	163767	27036	1056327	46324	107823	0	0	8197	576032	0	0
2024-10-17 02:57:47			0	37748	0	0	0	21332	19950	163707	27192	1056327	46324	107828	0	0	8197	576113	0	0
2024-10-17 02:58:47			0	37734	0	0	0	21340	19940	163739	27144	1056327	46322	107831	0	0	8196	576712	0	0
2024-10-17 02:59:47			0	37706	0	0	0	21345	19930	163739	27175	1056309	46321	107833	0	0	8194	577880	0	0
2024-10-17 03:00:47			0	37706	0	0	0	21355	19930	163895	27144	1056265	46322	107837	0	0	8194	577880	0	0
2024-10-17 03:01:47			0	37719	0	0	0	21371	19930	163847	26970	1056291	46333	107843	0	0	8194	577352	0	0
2024-10-17 03:02:47			0	37711	0	0	0	21366	19940	163923	27260	1056327	46333	107841	0	0	8194	577646	0	0
2024-10-17 03:03:47			0	37735	0	0	0	21368	19920	163899	26880	1056300	46341	107842	0	0	8195	576735	0	0
2024-10-17 03:04:47			0	37725	0	0	0	21350	19920	163863	27237	1056300	46341	107835	0	0	8195	577141	0	0
2024-10-17 03:05:47			0	37706	0	0	0	21363	19930	163903	27123	1056344	46333	107840	0	0	8193	577880	0	0
2024-10-17 03:06:47			0	37700	0	0	0	21371	19930	164015	27090	1056309	46321	107843	0	0	8193	578124	0	0
2024-10-17 03:07:47			0	37711	0	0	0	21371	19930	163967	27199	1056362	46332	107843	0	0	8194	577677	0	0
2024-10-17 03:08:47			0	37705	0	0	0	21376	19930	163879	27173	1056424	46333	107845	0	0	8193	577921	0	0
2024-10-17 03:09:47			0	37714	0	0	0	21376	19930	163935	27114	1056398	46333	107845	0	0	8194	577555	0	0
2024-10-17 03:10:47			0	37710	0	0	0	21389	19940	163967	26981	1056406	46343	107850	0	0	8193	577686	0	0
2024-10-17 03:11:47			0	37707	0	0	0	21384	19930	163939	27196	1056424	46343	107848	0	0	8193	577840	0	0
2024-10-17 03:12:47			0	37707	0	0	0	21384	19930	163851	27012	1056398	46333	107848	0	0	8193	577840	0	0
2024-10-17 03:13:47			0	37699	0	0	0	21394	19940	163839	27104	1056415	46323	107852	0	0	8193	578133	0	0
2024-10-17 03:14:47			0	37725	0	0	0	21405	19940	163963	27059	1056415	46344	107856	0	0	8194	577077	0	0
2024-10-17 03:15:47			0	37714	0	0	0	21394	19940	163859	27097	1056406	46343	107852	0	0	8193	577524	0	0
2024-10-17 03:16:47			0	37716	0	0	0	21397	19940	163863	27029	1056406	46333	107853	0	0	8193	577443	0	0
2024-10-17 03:17:47			0	37697	0	0	0	21394	19940	163887	27045	1056389	46333	107852	0	0	8192	578214	0	0
2024-10-17 03:18:47			0	37680	0	0	0	21389	19940	164103	26991	1056495	46344	107850	0	0	8191	578905	0	0
2024-10-17 03:19:47			0	37690	0	0	0	21394	19940	164095	27081	1056406	46333	107852	0	0	8192	578499	0	0
2024-10-17 03:20:47			0	37679	0	0	0	21381	19940	164075	27119	1056389	46333	107847	0	0	8192	578946	0	0
2024-10-17 03:21:47			0	37666	0	0	0	21389	19940	164063	27118	1056415	46344	107850	0	0	8191	579475	0	0
2024-10-17 03:22:47			0	37681	0	0	0	21379	19940	164135	27209	1056415	46323	107846	0	0	8192	578864	0	0
2024-10-17 03:23:47			0	37679	0	0	0	21386	19940	164007	27124	1056433	46333	107849	0	0	8191	578946	0	0
2024-10-17 03:24:47			0	37677	0	0	0	21376	19940	164087	27017	1056380	46333	107845	0	0	8192	579027	0	0
2024-10-17 03:25:47			0	37646	0	0	0	21366	19940	164091	27242	1056469	46323	107841	0	0	8190	580289	0	0
2024-10-17 03:26:47			0	37668	0	0	0	21366	19940	164131	27062	1056362	46333	107841	0	0	8191	579393	0	0
2024-10-17 03:27:47			0	37661	0	0	0	21311	19930	164155	26883	1056344	46322	107820	0	0	8192	579710	0	0
2024-10-17 03:28:47			0	37645	0	0	0	21316	19940	164115	26918	1056327	46311	107822	0	0	8191	580329	0	0
2024-10-17 03:29:47			0	37651	0	0	0	21340	19930	164119	27222	1056282	46321	107831	0	0	8191	580117	0	0
2024-10-17 03:30:47			0	37637	0	0	0	21366	19930	164251	27133	1056344	46322	107841	0	0	8189	580687	0	0
2024-10-17 03:31:47			0	37643	0	0	0	21374	19930	164207	27203	1056256	46321	107844	0	0	8190	580443	0	0
2024-10-17 03:32:47			0	37655	0	0	0	21394	19930	164171	26804	1056318	46333	107852	0	0	8190	579954	0	0
2024-10-17 03:33:47			0	37675	0	0	0	21407	19920	164051	27206	1056273	46341	107857	0	0	8191	579172	0	0
2024-10-17 03:34:47			0	37685	0	0	0	21425	19930	164099	27180	1056309	46321	107864	0	0	8191	578734	0	0
2024-10-17 03:35:47			0	37710	0	0	0	21420	19920	163959	27282	1056406	46341	107862	0	0	8193	577750	0	0
2024-10-17 03:36:47			0	37738	0	0	0	21418	19930	163891	26828	1056415	46342	107861	0	0	8194	576582	0	0
2024-10-17 03:37:47			0	37744	0	0	0	21431	19940	163867	26720	1056460	46343	107866	0	0	8195	576307	0	0
2024-10-17 03:38:47			0	37764	0	0	0	21433	19930	163755	27067	1056424	46333	107867	0	0	8196	575528	0	0
2024-10-17 03:39:47			0	37790	0	0	0	21431	19940	163611	27204	1056469	46333	107866	0	0	8197	574443	0	0
2024-10-17 03:40:47			0	37786	0	0	0	21438	19950	163435	27119	1056504	46367	107869	0	0	8197	574574	0	0
2024-10-17 03:41:47			0	37789	0	0	0	21433	19950	163467	26894	1056513	46357	107867	0	0	8197	574452	0	0
2024-10-17 03:42:47			0	37812	0	0	0	21425	19960	163615	27076	1056549	46345	107864	0	0	8199	573490	0	0
2024-10-17 03:43:47			0	37797	0	0	0	21431	19960	163503	27209	1056602	46334	107866	0	0	8198	574097	0	0
2024-10-17 03:44:47			0	37833	0	0	0	21436	19970	163431	27222	1056531	46335	107868	0	0	8200	572610	0	0
2024-10-17 03:45:47			0	37809	0	0	0	21431	19970	163463	27495	1056593	46335	107866	0	0	8199	573580	0	0
2024-10-17 03:46:47			0	37821	0	0	0	21438	19970	163487	27010	1056584	46346	107869	0	0	8199	573095	0	0
2024-10-17 03:47:47			0	37811	0	0	0	21438	19970	163475	27357	1056611	46335	107869	0	0	8199	573499	0	0
2024-10-17 03:48:47			0	37825	0	0	0	21446	19980	163407	27308	1056656	46347	107872	0	0	8199	572902	0	0
2024-10-17 03:49:47			0	37816	0	0	0	21438	19990	163391	27364	1056673	46349	107869	0	0	8199	573234	0	0
2024-10-17 03:50:47			0	37828	0	0	0	21433	19990	163435	27102	1056594	46337	107867	0	0	8200	572749	0	0
2024-10-17 03:51:47			0	37823	0	0	0	21436	19980	163495	27015	1056558	46349	107868	0	0	8199	572983	0	0
2024-10-17 03:52:47			0	37805	0	0	0	21438	19990	163423	27492	1056594	46337	107869	0	0	8198	573679	0	0
2024-10-17 03:53:47			0	37826	0	0	0	21433	19990	163495	27076	1056647	46349	107867	0	0	8200	572830	0	0
2024-10-17 03:54:47			0	37800	0	0	0	21433	19990	163479	27390	1056594	46349	107867	0	0	8198	573881	0	0
2024-10-17 03:55:47			0	37807	0	0	0	21436	19990	163439	27062	1056700	46360	107868	0	0	8198	573598	0	0
2024-10-17 03:56:47			0	37819	0	0	0	21438	19990	163479	27000	1056673	46337	107869	0	0	8199	573113	0	0
2024-10-17 03:57:47			0	37805	0	0	0	21444	20000	163459	27197	1056691	46328	107871	0	0	8198	573647	0	0
2024-10-17 03:58:47			0	37793	0	0	0	21444	20000	163555	27216	1056691	46350	107871	0	0	8198	574132	0	0
2024-10-17 03:59:47			0	37768	0	0	0	21438	19990	163527	27209	1056709	46337	107869	0	0	8196	575175	0	0
2024-10-17 04:00:47			0	37778	0	0	0	21436	19990	163603	26715	1056709	46337	107868	0	0	8197	574771	0	0
2024-10-17 04:01:47			0	37798	0	0	0	21438	20000	163603	27242	1056718	46350	107869	0	0	8198	573930	0	0
2024-10-17 04:02:47			0	37780	0	0	0	21444	20000	163527	27201	1056727	46351	107871	0	0	8197	574658	0	0
2024-10-17 04:03:47			0	37807	0	0	0	21436	20000	163547	27097	1056691	46350	107868	0	0	8199	573566	0	0
2024-10-17 04:04:47			0	37832	0	0	0	21441	20010	163463	27097	1056736	46339	107870	0	0	8200	572525	0	0
2024-10-17 04:05:47			0	37812	0	0	0	21438	20000	163411	27145	1056691	46350	107869	0	0	8199	573364	0	0
2024-10-17 04:06:47			0	37821	0	0	0	21438	20000	163527	27232	1056674	46339	107869	0	0	8199	573000	0	0
2024-10-17 04:07:47			0	37799	0	0	0	21433	20010	163487	27050	1056745	46340	107867	0	0	8198	573858	0	0
2024-10-17 04:08:47			0	37806	0	0	0	21428	20000	163419	27086	1056647	46351	107865	0	0	8199	573606	0	0
2024-10-17 04:09:47			0	37801	0	0	0	21433	20010	163383	26920	1056709	46339	107867	0	0	8198	573777	0	0
2024-10-17 04:10:47			0	37807	0	0	0	21428	20010	163451	27256	1056709	46339	107865	0	0	8199	573534	0	0
2024-10-17 04:11:47			0	37803	0	0	0	21431	20010	163407	27095	1056709	46339	107866	0	0	8198	573696	0	0
2024-10-17 04:12:47			0	37813	0	0	0	21428	19990	163379	27258	1056682	46327	107865	0	0	8199	573355	0	0
2024-10-17 04:13:47			0	37853	0	0	0	21436	20000	163507	27320	1056665	46317	107868	0	0	8201	571709	0	0
2024-10-17 04:14:47			0	37812	0	0	0	21441	20000	163383	27010	1056665	46350	107870	0	0	8199	573364	0	0
2024-10-17 04:15:47			0	37837	0	0	0	21431	20000	163351	27076	1056665	46338	107866	0	0	8200	572354	0	0
2024-10-17 04:16:47			0	37863	0	0	0	21433	19990	163343	27300	1056656	46349	107867	0	0	8202	571337	0	0
2024-10-17 04:17:47			0	37864	0	0	0	21425	20000	163175	27305	1056700	46329	107864	0	0	8202	571265	0	0
2024-10-17 04:18:47			0	37876	0	0	0	21428	20010	163119	27034	1056683	46339	107865	0	0	8203	570750	0	0
2024-10-17 04:19:47			0	37875	0	0	0	21436	20000	163127	27067	1056647	46351	107868	0	0	8203	570822	0	0
2024-10-17 04:20:47			0	37872	0	0	0	21433	20000	163183	27213	1056745	46338	107867	0	0	8202	570943	0	0
2024-10-17 04:21:47			0	37865	0	0	0	21436	20000	163275	27435	1056745	46328	107868	0	0	8202	571225	0	0
2024-10-17 04:22:47			0	37861	0	0	0	21425	19990	163379	26993	1056682	46327	107864	0	0	8202	571418	0	0
2024-10-17 04:23:47			0	37868	0	0	0	21425	19990	163211	26838	1056656	46337	107864	0	0	8202	571135	0	0
2024-10-17 04:24:47			0	37819	0	0	0	21423	20000	163351	27150	1056647	46351	107863	0	0	8199	573081	0	0
2024-10-17 04:25:47			0	37791	0	0	0	21425	20000	163415	27036	1056691	46350	107864	0	0	8198	574213	0	0
2024-10-17 04:26:47			0	37798	0	0	0	21428	20000	163355	27452	1056691	46350	107865	0	0	8198	573930	0	0
2024-10-17 04:27:47			0	37801	0	0	0	21420	20000	163303	27417	1056700	46339	107862	0	0	8198	573809	0	0
2024-10-17 04:28:47			0	37830	0	0	0	21431	19990	163379	27107	1056629	46349	107866	0	0	8200	572668	0	0
2024-10-17 04:29:47			0	37842	0	0	0	21433	20000	163287	26998	1056665	46361	107867	0	0	8201	572153	0	0
2024-10-17 04:30:47			0	37840	0	0	0	21428	19990	163291	27237	1056603	46337	107865	0	0	8201	572265	0	0
2024-10-17 04:31:47			0	37851	0	0	0	21436	20000	163155	27239	1056665	46338	107868	0	0	8201	571789	0	0
2024-10-17 04:32:47			0	37867	0	0	0	21428	20000	163195	27305	1056647	46329	107865	0	0	8202	571144	0	0
2024-10-17 04:33:47			0	37869	0	0	0	21431	20000	163247	27020	1056621	46339	107866	0	0	8202	571064	0	0
2024-10-17 04:34:47			0	37872	0	0	0	21425	20000	163231	27222	1056727	46329	107864	0	0	8203	570943	0	0
2024-10-17 04:35:47			0	37883	0	0	0	21420	20000	163291	27300	1056691	46338	107862	0	0	8203	570500	0	0
2024-10-17 04:36:47			0	37865	0	0	0	21425	19990	163219	27022	1056656	46349	107864	0	0	8202	571256	0	0
2024-10-17 04:37:47			0	37860	0	0	0	21420	20000	163151	26674	1056638	46350	107862	0	0	8202	571426	0	0
2024-10-17 04:38:47			0	37859	0	0	0	21420	20000	163323	27277	1056647	46339	107862	0	0	8202	571467	0	0
2024-10-17 04:39:47			0	37836	0	0	0	21418	19990	163239	27050	1056656	46337	107861	0	0	8200	572426	0	0
2024-10-17 04:40:47			0	37864	0	0	0	21423	19990	163275	27175	1056629	46327	107863	0	0	8202	571297	0	0
2024-10-17 04:41:47			0	37850	0	0	0	21410	19990	163239	26817	1056567	46337	107858	0	0	8201	571861	0	0
2024-10-17 04:42:47			0	37848	0	0	0	21425	20000	163175	27060	1056612	46350	107864	0	0	8201	571911	0	0
2024-10-17 04:43:47			0	37837	0	0	0	21412	19990	163307	26967	1056656	46337	107859	0	0	8201	572386	0	0
2024-10-17 04:44:47			0	37849	0	0	0	21420	19990	163267	26863	1056629	46349	107862	0	0	8201	571902	0	0
2024-10-17 04:45:47			0	37813	0	0	0	21415	20000	163235	26800	1056612	46328	107860	0	0	8199	573324	0	0
2024-10-17 04:46:47			0	37825	0	0	0	21418	20000	163415	26942	1056638	46328	107861	0	0	8200	572839	0	0
2024-10-17 04:47:47			0	37825	0	0	0	21415	20000	163419	26998	1056612	46338	107860	0	0	8200	572839	0	0
2024-10-17 04:48:47			0	37827	0	0	0	21420	19980	163383	27105	1056611	46327	107862	0	0	8200	572821	0	0
2024-10-17 04:49:47			0	37825	0	0	0	21418	19990	163275	27284	1056620	46349	107861	0	0	8200	572870	0	0
2024-10-17 04:50:47			0	37829	0	0	0	21415	19990	163343	27067	1056629	46349	107860	0	0	8200	572709	0	0
2024-10-17 04:51:47			0	37815	0	0	0	21418	19990	163407	27046	1056594	46327	107861	0	0	8199	573274	0	0
2024-10-17 04:52:47			0	37828	0	0	0	21423	19990	163391	26804	1056656	46337	107863	0	0	8200	572749	0	0
2024-10-17 04:53:47			0	37834	0	0	0	21418	19980	163463	27180	1056532	46337	107861	0	0	8200	572539	0	0
2024-10-17 04:54:47			0	37815	0	0	0	21423	19980	163435	26963	1056602	46336	107863	0	0	8199	573306	0	0
2024-10-17 04:55:47			0	37819	0	0	0	21420	19990	163515	27092	1056620	46337	107862	0	0	8199	573113	0	0
2024-10-17 04:56:47			0	37797	0	0	0	21412	19990	163459	27159	1056594	46337	107859	0	0	8198	574002	0	0
2024-10-17 04:57:47			0	37803	0	0	0	21412	19980	163519	27194	1056638	46327	107859	0	0	8199	573791	0	0
2024-10-17 04:58:47			0	37806	0	0	0	21412	19990	163471	27360	1056567	46337	107859	0	0	8199	573638	0	0
2024-10-17 04:59:47			0	37807	0	0	0	21407	19980	163479	27131	1056576	46336	107857	0	0	8199	573629	0	0
2024-10-17 05:00:47			0	37796	0	0	0	21418	19990	163447	26816	1056514	46349	107861	0	0	8198	574042	0	0
2024-10-17 05:01:47			0	37799	0	0	0	21415	19980	163427	27227	1056629	46326	107860	0	0	8198	573953	0	0
2024-10-17 05:02:47			0	37803	0	0	0	21412	19980	163455	27216	1056611	46337	107859	0	0	8199	573791	0	0
2024-10-17 05:03:47			0	37804	0	0	0	21412	19980	163527	27116	1056665	46337	107859	0	0	8199	573750	0	0
2024-10-17 05:04:47			0	37812	0	0	0	21410	19970	163467	26826	1056567	46346	107858	0	0	8199	573459	0	0
2024-10-17 05:05:47			0	37828	0	0	0	21415	19980	163523	26868	1056576	46336	107860	0	0	8200	572781	0	0
2024-10-17 05:06:47			0	37829	0	0	0	21415	19980	163415	26767	1056611	46349	107860	0	0	8200	572741	0	0
2024-10-17 05:07:47			0	37844	0	0	0	21412	19980	163251	26979	1056638	46337	107859	0	0	8201	572135	0	0
2024-10-17 05:08:47			0	37864	0	0	0	21410	19980	163223	27024	1056549	46336	107858	0	0	8202	571328	0	0
2024-10-17 05:09:47			0	37892	0	0	0	21420	19980	163179	27059	1056611	46349	107862	0	0	8204	570200	0	0
2024-10-17 05:10:47			0	37881	0	0	0	21418	19980	163191	26956	1056585	46337	107861	0	0	8203	570643	0	0
2024-10-17 05:11:47			0	37894	0	0	0	21428	19980	163155	27175	1056611	46337	107865	0	0	8204	570120	0	0
2024-10-17 05:12:47			0	37895	0	0	0	21410	19990	163171	26795	1056541	46327	107858	0	0	8204	570048	0	0
2024-10-17 05:13:47			0	37888	0	0	0	21412	19980	163191	26833	1056585	46337	107859	0	0	8204	570361	0	0
2024-10-17 05:14:47			0	37882	0	0	0	21405	19980	163183	27024	1056611	46337	107856	0	0	8203	570603	0	0
2024-10-17 05:15:47			0	37867	0	0	0	21412	19990	163255	27227	1056567	46337	107859	0	0	8202	571176	0	0
2024-10-17 05:16:47			0	37866	0	0	0	21407	19980	163275	27317	1056611	46337	107857	0	0	8202	571248	0	0
2024-10-17 05:17:47			0	37847	0	0	0	21410	19990	163235	27071	1056594	46349	107858	0	0	8201	571982	0	0
2024-10-17 05:18:47			0	37856	0	0	0	21405	19980	163319	27017	1056549	46347	107856	0	0	8202	571651	0	0
2024-10-17 05:19:47			0	37865	0	0	0	21410	19980	163271	27225	1056602	46326	107858	0	0	8202	571288	0	0
2024-10-17 05:20:47			0	37843	0	0	0	21407	19980	163227	27274	1056585	46327	107857	0	0	8201	572175	0	0
2024-10-17 05:21:47			0	37844	0	0	0	21410	19980	163379	26791	1056576	46336	107858	0	0	8201	572135	0	0
2024-10-17 05:22:47			0	37833	0	0	0	21405	19980	163391	26864	1056558	46327	107856	0	0	8200	572579	0	0
2024-10-17 05:23:47			0	37852	0	0	0	21402	19980	163319	27289	1056523	46347	107855	0	0	8202	571812	0	0
2024-10-17 05:24:47			0	37839	0	0	0	21407	19980	163355	26819	1056549	46347	107857	0	0	8201	572337	0	0
2024-10-17 05:25:47			0	37854	0	0	0	21407	19980	163371	26987	1056602	46336	107857	0	0	8202	571731	0	0
2024-10-17 05:26:47			0	37844	0	0	0	21410	19970	163395	26918	1056540	46335	107858	0	0	8201	572166	0	0
2024-10-17 05:27:47			0	37847	0	0	0	21412	19960	163423	27253	1056549	46334	107859	0	0	8201	572077	0	0
2024-10-17 05:28:47			0	37860	0	0	0	21405	19980	163351	27027	1056611	46327	107856	0	0	8202	571489	0	0
2024-10-17 05:29:47			0	37854	0	0	0	21402	19970	163363	26746	1056593	46346	107855	0	0	8202	571763	0	0
2024-10-17 05:30:47			0	37845	0	0	0	21397	19970	163235	27159	1056611	46335	107853	0	0	8201	572126	0	0
2024-10-17 05:31:47			0	37856	0	0	0	21407	19980	163259	27197	1056549	46347	107857	0	0	8202	571651	0	0
2024-10-17 05:32:47			0	37855	0	0	0	21405	19980	163279	27409	1056638	46337	107856	0	0	8202	571691	0	0
2024-10-17 05:33:47			0	37845	0	0	0	21405	19970	163207	26861	1056558	46335	107856	0	0	8201	572126	0	0
2024-10-17 05:34:47			0	37849	0	0	0	21397	19980	163279	27294	1056602	46347	107853	0	0	8202	571933	0	0
2024-10-17 05:35:47			0	37863	0	0	0	21399	19970	163283	27386	1056540	46346	107854	0	0	8202	571400	0	0
2024-10-17 05:36:47			0	37855	0	0	0	21402	19980	163331	27421	1056549	46336	107855	0	0	8202	571691	0	0
2024-10-17 05:37:47			0	37842	0	0	0	21397	19980	163395	27206	1056611	46327	107853	0	0	8201	572216	0	0
2024-10-17 05:38:47			0	37839	0	0	0	21407	19980	163375	27398	1056602	46347	107857	0	0	8201	572337	0	0
2024-10-17 05:39:47			0	37845	0	0	0	21399	19970	163411	27085	1056558	46335	107854	0	0	8201	572126	0	0
2024-10-17 05:40:47			0	37858	0	0	0	21402	19970	163263	27128	1056514	46325	107855	0	0	8202	571602	0	0
2024-10-17 05:41:47			0	37837	0	0	0	21405	19980	163279	27211	1056576	46326	107856	0	0	8201	572417	0	0
2024-10-17 05:42:47			0	37847	0	0	0	21402	19970	163427	27206	1056567	46335	107855	0	0	8201	572045	0	0
2024-10-17 05:43:47			0	37834	0	0	0	21397	19970	163315	27100	1056540	46335	107853	0	0	8201	572570	0	0
2024-10-17 05:44:47			0	37829	0	0	0	21402	19980	163287	27072	1056602	46336	107855	0	0	8200	572741	0	0
2024-10-17 05:45:47			0	37845	0	0	0	21397	19970	163207	27334	1056611	46335	107853	0	0	8201	572126	0	0
2024-10-17 05:46:47			0	37843	0	0	0	21392	19970	163379	27211	1056567	46346	107851	0	0	8201	572207	0	0
2024-10-17 05:47:47			0	37841	0	0	0	21397	19970	163279	27353	1056487	46346	107853	0	0	8201	572288	0	0
2024-10-17 05:48:47			0	37830	0	0	0	21392	19970	163423	26927	1056504	46335	107851	0	0	8200	572732	0	0
2024-10-17 05:49:47			0	37798	0	0	0	21394	19970	163427	27320	1056504	46335	107852	0	0	8199	574025	0	0
2024-10-17 05:50:47			0	37814	0	0	0	21384	19970	163407	27144	1056504	46314	107848	0	0	8200	573378	0	0
2024-10-17 05:51:47			0	37798	0	0	0	21384	19970	163503	27274	1056531	46335	107848	0	0	8199	574025	0	0
2024-10-17 05:52:47			0	37797	0	0	0	21389	19970	163515	27282	1056540	46325	107850	0	0	8199	574065	0	0
2024-10-17 05:53:47			0	37779	0	0	0	21389	19950	163587	27229	1056460	46324	107850	0	0	8197	574857	0	0
2024-10-17 05:54:47			0	37773	0	0	0	21392	19950	163823	27334	1056513	46334	107851	0	0	8197	575100	0	0
2024-10-17 05:55:47			0	37772	0	0	0	21386	19960	163623	27105	1056495	46345	107849	0	0	8197	575109	0	0
2024-10-17 05:56:47			0	37766	0	0	0	21384	19960	163691	27038	1056522	46334	107848	0	0	8197	575352	0	0
2024-10-17 05:57:47			0	37772	0	0	0	21394	19970	163695	26939	1056558	46325	107852	0	0	8197	575077	0	0
2024-10-17 05:58:47			0	37779	0	0	0	21389	19960	163591	27050	1056522	46313	107850	0	0	8197	574825	0	0
2024-10-17 05:59:47			0	37785	0	0	0	21384	19960	163579	27138	1056522	46324	107848	0	0	8198	574582	0	0
2024-10-17 06:00:47			0	37779	0	0	0	21381	19950	163515	27163	1056478	46333	107847	0	0	8198	574857	0	0
2024-10-17 06:01:47			0	37770	0	0	0	21392	19950	163711	27222	1056504	46333	107851	0	0	8197	575221	0	0
2024-10-17 06:02:47			0	37751	0	0	0	21386	19950	163711	27175	1056540	46345	107849	0	0	8196	575991	0	0
2024-10-17 06:03:47			0	37743	0	0	0	21392	19960	163923	27098	1056495	46345	107851	0	0	8195	576284	0	0
2024-10-17 06:04:47			0	37761	0	0	0	21397	19950	163687	26946	1056540	46345	107853	0	0	8196	575586	0	0
2024-10-17 06:05:47			0	37764	0	0	0	21389	19950	163655	27244	1056531	46333	107850	0	0	8197	575464	0	0
2024-10-17 06:06:47			0	37767	0	0	0	21386	19960	163699	26934	1056549	46345	107849	0	0	8197	575311	0	0
2024-10-17 06:07:47			0	37755	0	0	0	21381	19950	163703	27255	1056486	46345	107847	0	0	8196	575829	0	0
2024-10-17 06:08:47			0	37757	0	0	0	21389	19960	163715	27305	1056495	46334	107850	0	0	8196	575716	0	0
2024-10-17 06:09:47			0	37755	0	0	0	21397	19950	163775	27041	1056460	46334	107853	0	0	8196	575829	0	0
2024-10-17 06:10:47			0	37770	0	0	0	21392	19950	163671	26896	1056540	46345	107851	0	0	8197	575221	0	0
2024-10-17 06:11:47			0	37754	0	0	0	21392	19950	163591	27211	1056540	46334	107851	0	0	8196	575869	0	0
2024-10-17 06:12:47			0	37749	0	0	0	21389	19950	163723	27150	1056504	46323	107850	0	0	8196	576072	0	0
2024-10-17 06:13:47			0	37743	0	0	0	21394	19950	163731	27072	1056460	46334	107852	0	0	8195	576315	0	0
2024-10-17 06:14:47			0	37742	0	0	0	21392	19950	163747	27213	1056486	46334	107851	0	0	8195	576356	0	0
2024-10-17 06:15:47			0	37738	0	0	0	21386	19950	163775	27173	1056513	46334	107849	0	0	8195	576518	0	0
2024-10-17 06:16:47			0	37757	0	0	0	21389	19950	163703	26975	1056513	46334	107850	0	0	8196	575748	0	0
2024-10-17 06:17:47			0	37728	0	0	0	21389	19970	163715	27154	1056531	46335	107850	0	0	8194	576860	0	0
2024-10-17 06:18:47			0	37725	0	0	0	21384	19950	163719	26981	1056513	46334	107848	0	0	8194	577045	0	0
2024-10-17 06:19:47			0	37763	0	0	0	21384	19950	163659	27124	1056513	46324	107848	0	0	8197	575505	0	0
2024-10-17 06:20:47			0	37750	0	0	0	21394	19950	163723	27081	1056513	46334	107852	0	0	8196	576032	0	0
2024-10-17 06:21:47			0	37794	0	0	0	21389	19960	163623	27130	1056495	46324	107850	0	0	8198	574218	0	0
2024-10-17 06:22:47			0	37770	0	0	0	21394	19950	163515	27324	1056540	46345	107852	0	0	8197	575221	0	0
2024-10-17 06:23:47			0	37778	0	0	0	21397	19970	163559	27053	1056504	46325	107853	0	0	8197	574834	0	0
2024-10-17 06:24:47			0	37777	0	0	0	21394	19950	163547	27232	1056540	46334	107852	0	0	8197	574938	0	0
2024-10-17 06:25:47			0	37781	0	0	0	21402	19950	163611	26738	1056540	46334	107855	0	0	8197	574776	0	0
2024-10-17 06:26:47			0	37765	0	0	0	21394	19960	163587	27008	1056549	46345	107852	0	0	8197	575392	0	0
2024-10-17 06:27:47			0	37766	0	0	0	21394	19950	163587	27227	1056513	46334	107852	0	0	8197	575383	0	0
2024-10-17 06:28:47			0	37778	0	0	0	21389	19950	163639	27196	1056540	46324	107850	0	0	8197	574897	0	0
2024-10-17 06:29:47			0	37776	0	0	0	21394	19950	163587	26925	1056566	46324	107852	0	0	8197	574978	0	0
2024-10-17 06:30:47			0	37764	0	0	0	21392	19950	163599	27000	1056566	46334	107851	0	0	8196	575464	0	0
2024-10-17 06:31:47			0	37780	0	0	0	21397	19960	163663	26998	1056522	46334	107853	0	0	8197	574785	0	0
2024-10-17 06:32:47			0	37751	0	0	0	21392	19970	163659	26837	1056514	46346	107851	0	0	8196	575928	0	0
2024-10-17 06:33:47			0	37747	0	0	0	21394	19960	163763	26993	1056549	46345	107852	0	0	8195	576121	0	0
2024-10-17 06:34:47			0	37719	0	0	0	21394	19950	163723	27145	1056486	46324	107852	0	0	8194	577289	0	0
2024-10-17 06:35:47			0	37704	0	0	0	21386	19970	163819	27223	1056558	46335	107849	0	0	8193	577834	0	0
2024-10-17 06:36:47			0	37684	0	0	0	21384	19970	163875	27126	1056531	46325	107848	0	0	8192	578647	0	0
2024-10-17 06:37:47			0	37660	0	0	0	21386	19970	163999	27050	1056531	46346	107849	0	0	8191	579623	0	0
2024-10-17 06:38:47			0	37654	0	0	0	21384	19960	164095	27095	1056522	46334	107848	0	0	8190	579899	0	0
2024-10-17 06:39:47			0	37650	0	0	0	21389	19950	164135	27067	1056504	46333	107850	0	0	8190	580094	0	0
2024-10-17 06:40:47			0	37652	0	0	0	21386	19970	164143	27069	1056531	46325	107849	0	0	8190	579948	0	0
2024-10-17 06:41:47			0	37653	0	0	0	21389	19950	164087	27263	1056513	46334	107850	0	0	8190	579972	0	0
2024-10-17 06:42:47			0	37676	0	0	0	21381	19950	163963	26984	1056504	46333	107847	0	0	8191	579036	0	0
2024-10-17 06:43:47			0	37705	0	0	0	21386	19960	163919	27140	1056495	46334	107849	0	0	8193	577825	0	0
2024-10-17 06:44:47			0	37694	0	0	0	21386	19950	163899	27079	1056486	46324	107849	0	0	8192	578304	0	0
2024-10-17 06:45:47			0	37720	0	0	0	21389	19960	163883	27038	1056549	46313	107850	0	0	8194	577216	0	0
2024-10-17 06:46:47			0	37724	0	0	0	21392	19960	163787	27218	1056495	46324	107851	0	0	8194	577054	0	0
2024-10-17 06:47:47			0	37714	0	0	0	21389	19950	163779	26887	1056557	46333	107850	0	0	8194	577492	0	0
2024-10-17 06:48:47			0	37738	0	0	0	21392	19960	163779	26864	1056495	46345	107851	0	0	8195	576486	0	0
2024-10-17 06:49:47			0	37763	0	0	0	21389	19950	163639	27244	1056486	46345	107850	0	0	8196	575505	0	0
2024-10-17 06:50:47			0	37731	0	0	0	21394	19960	163679	27270	1056522	46334	107852	0	0	8195	576770	0	0
2024-10-17 06:51:47			0	37750	0	0	0	21381	19950	163651	27364	1056513	46334	107847	0	0	8196	576032	0	0
2024-10-17 06:52:47			0	37743	0	0	0	21384	19960	163627	27454	1056469	46324	107848	0	0	8195	576284	0	0
2024-10-17 06:53:47			0	37756	0	0	0	21386	19960	163675	27251	1056522	46345	107849	0	0	8196	575757	0	0
2024-10-17 06:54:47			0	37747	0	0	0	21394	19950	163691	27152	1056566	46324	107852	0	0	8195	576153	0	0
2024-10-17 06:55:47			0	37737	0	0	0	21389	19950	163643	27459	1056486	46334	107850	0	0	8195	576559	0	0
2024-10-17 06:56:47			0	37739	0	0	0	21389	19950	163699	27159	1056513	46345	107850	0	0	8195	576478	0	0
2024-10-17 06:57:47			0	37722	0	0	0	21386	19950	163723	27270	1056593	46345	107849	0	0	8194	577167	0	0
2024-10-17 06:58:47			0	37702	0	0	0	21384	19950	163703	26927	1056584	46344	107848	0	0	8193	577979	0	0
2024-10-17 06:59:47			0	37696	0	0	0	21384	19950	163783	27268	1056513	46324	107848	0	0	8193	578223	0	0
2024-10-17 07:00:47			0	37690	0	0	0	21392	19950	163999	26896	1056513	46334	107851	0	0	8192	578467	0	0
2024-10-17 07:01:47			0	37687	0	0	0	21389	19950	164059	26944	1056513	46345	107850	0	0	8192	578589	0	0
2024-10-17 07:02:47			0	37678	0	0	0	21384	19950	163967	26882	1056460	46334	107848	0	0	8192	578954	0	0
2024-10-17 07:03:47			0	37655	0	0	0	21381	19950	164007	26824	1056478	46312	107847	0	0	8190	579890	0	0
2024-10-17 07:04:47			0	37650	0	0	0	21386	19960	164103	27275	1056602	46334	107849	0	0	8190	580062	0	0
2024-10-17 07:05:47			0	37646	0	0	0	21389	19950	164087	27254	1056540	46324	107850	0	0	8190	580257	0	0
2024-10-17 07:06:47			0	37646	0	0	0	21389	19960	164183	26824	1056628	46334	107850	0	0	8190	580225	0	0
2024-10-17 07:07:47			0	37637	0	0	0	21394	19950	164195	27121	1056540	46334	107852	0	0	8189	580623	0	0
2024-10-17 07:08:47			0	37626	0	0	0	21384	19950	164307	27112	1056557	46323	107848	0	0	8188	581072	0	0
2024-10-17 07:09:47			0	37628	0	0	0	21386	19950	164235	27315	1056460	46345	107849	0	0	8189	580990	0	0
2024-10-17 07:10:47			0	37597	0	0	0	21384	19950	164311	26946	1056460	46324	107848	0	0	8187	582254	0	0
2024-10-17 07:11:47			0	37584	0	0	0	21384	19950	164431	27112	1056540	46334	107848	0	0	8186	582785	0	0
2024-10-17 07:12:47			0	37572	0	0	0	21381	19950	164379	27060	1056486	46334	107847	0	0	8185	583275	0	0
2024-10-17 07:13:47			0	37575	0	0	0	21392	19950	164447	26896	1056593	46345	107851	0	0	8185	583153	0	0
2024-10-17 07:14:47			0	37568	0	0	0	21394	19950	164499	26920	1056504	46333	107852	0	0	8185	583439	0	0
2024-10-17 07:15:47			0	37559	0	0	0	21386	19950	164435	26845	1056478	46333	107849	0	0	8184	583807	0	0
2024-10-17 07:16:47			0	37570	0	0	0	21392	19960	164447	27192	1056522	46334	107851	0	0	8185	583325	0	0
2024-10-17 07:17:47			0	37560	0	0	0	21389	19950	164443	27166	1056513	46334	107850	0	0	8184	583766	0	0
2024-10-17 07:18:47			0	37576	0	0	0	21389	19940	164415	27135	1056548	46312	107850	0	0	8185	583144	0	0
2024-10-17 07:19:47			0	37579	0	0	0	21389	19940	164327	27183	1056469	46333	107850	0	0	8186	583022	0	0
2024-10-17 07:20:47			0	37581	0	0	0	21392	19950	164495	27246	1056513	46345	107851	0	0	8186	582908	0	0
2024-10-17 07:21:47			0	37596	0	0	0	21394	19950	164367	27183	1056593	46324	107852	0	0	8186	582295	0	0
2024-10-17 07:22:47			0	37591	0	0	0	21386	19950	164387	27159	1056513	46334	107849	0	0	8186	582499	0	0
2024-10-17 07:23:47			0	37569	0	0	0	21386	19950	164443	27124	1056478	46344	107849	0	0	8185	583398	0	0
2024-10-17 07:24:47			0	37571	0	0	0	21376	19950	164455	27031	1056566	46334	107845	0	0	8185	583316	0	0
2024-10-17 07:25:47			0	37546	0	0	0	21376	19950	164555	26831	1056486	46324	107845	0	0	8184	584338	0	0
2024-10-17 07:26:47			0	37562	0	0	0	21376	19950	164515	27053	1056504	46333	107845	0	0	8185	583684	0	0
2024-10-17 07:27:47			0	37549	0	0	0	21379	19950	164451	26899	1056424	46333	107846	0	0	8184	584215	0	0
2024-10-17 07:28:47			0	37535	0	0	0	21376	19950	164599	26866	1056451	46323	107845	0	0	8183	584788	0	0
2024-10-17 07:29:47			0	37523	0	0	0	21374	19950	164655	26934	1056478	46323	107844	0	0	8182	585280	0	0
2024-10-17 07:30:47			0	37522	0	0	0	21371	19950	164659	27019	1056513	46345	107843	0	0	8182	585321	0	0
2024-10-17 07:31:47			0	37546	0	0	0	21371	19950	164619	27116	1056451	46333	107843	0	0	8184	584338	0	0
2024-10-17 07:32:47			0	37540	0	0	0	21363	19940	164547	27036	1056469	46333	107840	0	0	8184	584616	0	0
2024-10-17 07:33:47			0	37551	0	0	0	21376	19940	164639	27267	1056406	46322	107845	0	0	8184	584166	0	0
2024-10-17 07:34:47			0	37532	0	0	0	21371	19950	164655	27402	1056424	46323	107843	0	0	8183	584911	0	0
2024-10-17 07:35:47			0	37534	0	0	0	21374	19940	164543	27249	1056460	46333	107844	0	0	8183	584861	0	0
2024-10-17 07:36:47			0	37545	0	0	0	21376	19950	164631	26866	1056478	46344	107845	0	0	8184	584379	0	0
2024-10-17 07:37:47			0	37556	0	0	0	21371	19940	164467	27022	1056522	46323	107843	0	0	8184	583961	0	0
2024-10-17 07:38:47			0	37578	0	0	0	21376	19940	164447	27286	1056442	46356	107845	0	0	8186	583062	0	0
2024-10-17 07:39:47			0	37592	0	0	0	21379	19930	164267	27289	1056451	46333	107846	0	0	8186	582523	0	0
2024-10-17 07:40:47			0	37621	0	0	0	21374	19940	164375	27053	1056469	46344	107844	0	0	8188	581307	0	0
2024-10-17 07:41:47			0	37627	0	0	0	21374	19950	164263	26819	1056478	46333	107844	0	0	8189	581031	0	0
2024-10-17 07:42:47			0	37639	0	0	0	21379	19940	164215	26979	1056495	46333	107846	0	0	8189	580574	0	0
2024-10-17 07:43:47			0	37635	0	0	0	21381	19940	164203	27135	1056539	46333	107847	0	0	8189	580737	0	0
2024-10-17 07:44:47			0	37655	0	0	0	21386	19940	164127	27194	1056522	46344	107849	0	0	8190	579922	0	0
2024-10-17 07:45:47			0	37655	0	0	0	21386	19940	164147	27102	1056495	46333	107849	0	0	8190	579922	0	0
2024-10-17 07:46:47			0	37660	0	0	0	21366	19940	164075	27022	1056442	46323	107841	0	0	8191	579719	0	0
2024-10-17 07:47:47			0	37640	0	0	0	21374	19940	164215	27204	1056486	46322	107844	0	0	8189	580533	0	0
2024-10-17 07:48:47			0	37642	0	0	0	21371	19940	164135	27072	1056469	46323	107843	0	0	8190	580452	0	0
2024-10-17 07:49:47			0	37649	0	0	0	21368	19940	164207	26883	1056495	46323	107842	0	0	8190	580167	0	0
2024-10-17 07:50:47			0	37636	0	0	0	21368	19940	164227	27196	1056495	46323	107842	0	0	8189	580696	0	0
2024-10-17 07:51:47			0	37640	0	0	0	21371	19940	164111	27010	1056469	46333	107843	0	0	8189	580533	0	0
2024-10-17 07:52:47			0	37642	0	0	0	21363	19940	164171	26788	1056415	46333	107840	0	0	8190	580452	0	0
2024-10-17 07:53:47			0	37675	0	0	0	21366	19940	164007	26849	1056353	46333	107841	0	0	8192	579109	0	0
2024-10-17 07:54:47			0	37680	0	0	0	21379	19940	164063	27041	1056406	46333	107846	0	0	8192	578905	0	0
2024-10-17 07:55:47			0	37724	0	0	0	21366	19940	163855	27355	1056460	46333	107841	0	0	8194	577118	0	0
2024-10-17 07:56:47			0	37751	0	0	0	21379	19940	163747	27100	1056486	46333	107846	0	0	8196	576023	0	0
2024-10-17 07:57:47			0	37759	0	0	0	21374	19940	163635	27024	1056460	46333	107844	0	0	8196	575699	0	0
2024-10-17 07:58:47			0	37786	0	0	0	21381	19940	163519	27168	1056415	46323	107847	0	0	8198	574605	0	0
2024-10-17 07:59:47			0	37794	0	0	0	21384	19940	163539	27260	1056539	46355	107848	0	0	8198	574282	0	0
2024-10-17 08:00:47			0	37809	0	0	0	21368	19950	163435	27308	1056451	46333	107842	0	0	8200	573643	0	0
2024-10-17 08:01:47			0	37815	0	0	0	21384	19940	163387	27092	1056522	46333	107848	0	0	8200	573432	0	0
2024-10-17 08:02:47			0	37815	0	0	0	21379	19940	163327	27057	1056522	46333	107846	0	0	8200	573432	0	0
2024-10-17 08:03:47			0	37815	0	0	0	21379	19940	163347	27100	1056460	46343	107846	0	0	8200	573432	0	0
2024-10-17 08:04:47			0	37817	0	0	0	21381	19940	163435	26677	1056469	46323	107847	0	0	8200	573352	0	0
2024-10-17 08:05:47			0	37830	0	0	0	21381	19940	163335	27142	1056433	46333	107847	0	0	8201	572826	0	0
2024-10-17 08:06:47			0	37840	0	0	0	21376	19950	163355	27263	1056504	46333	107845	0	0	8201	572391	0	0
2024-10-17 08:07:47			0	37860	0	0	0	21379	19950	163247	27083	1056513	46334	107846	0	0	8202	571584	0	0
2024-10-17 08:08:47			0	37856	0	0	0	21379	19950	163243	26939	1056513	46324	107846	0	0	8202	571745	0	0
2024-10-17 08:09:47			0	37854	0	0	0	21374	19940	163391	27199	1056486	46333	107844	0	0	8202	571858	0	0
2024-10-17 08:10:47			0	37820	0	0	0	21374	19950	163407	26960	1056486	46345	107844	0	0	8200	573199	0	0
2024-10-17 08:11:47			0	37832	0	0	0	21374	19940	163491	26883	1056460	46322	107844	0	0	8201	572746	0	0
2024-10-17 08:12:47			0	37800	0	0	0	21376	19940	163535	26923	1056433	46333	107845	0	0	8199	574039	0	0
2024-10-17 08:13:47			0	37813	0	0	0	21371	19940	163579	27244	1056406	46333	107843	0	0	8200	573513	0	0
2024-10-17 08:14:47			0	37833	0	0	0	21368	19950	163447	27414	1056504	46323	107842	0	0	8201	572674	0	0
2024-10-17 08:15:47			0	37829	0	0	0	21374	19940	163479	27166	1056495	46333	107844	0	0	8201	572867	0	0
2024-10-17 08:16:47			0	37814	0	0	0	21368	19940	163455	27062	1056495	46333	107842	0	0	8200	573473	0	0
2024-10-17 08:17:47			0	37823	0	0	0	21368	19930	163423	27166	1056451	46322	107842	0	0	8200	573141	0	0
2024-10-17 08:18:47			0	37808	0	0	0	21374	19930	163491	27211	1056415	46321	107844	0	0	8199	573747	0	0
2024-10-17 08:19:47			0	37814	0	0	0	21379	19940	163539	27320	1056380	46333	107846	0	0	8200	573473	0	0
2024-10-17 08:20:47			0	37813	0	0	0	21368	19940	163423	27078	1056495	46323	107842	0	0	8200	573513	0	0
2024-10-17 08:21:47			0	37827	0	0	0	21371	19940	163495	27322	1056460	46322	107843	0	0	8201	572948	0	0
2024-10-17 08:22:47			0	37817	0	0	0	21376	19940	163571	27237	1056469	46323	107845	0	0	8200	573352	0	0
2024-10-17 08:23:47			0	37832	0	0	0	21374	19940	163371	27114	1056513	46322	107844	0	0	8201	572746	0	0
2024-10-17 08:24:47			0	37831	0	0	0	21376	19940	163379	27138	1056486	46322	107845	0	0	8201	572786	0	0
2024-10-17 08:25:47			0	37839	0	0	0	21368	19950	163391	26785	1056513	46345	107842	0	0	8201	572431	0	0
2024-10-17 08:26:47			0	37835	0	0	0	21376	19940	163383	27086	1056495	46323	107845	0	0	8201	572624	0	0
2024-10-17 08:27:47			0	37837	0	0	0	21368	19940	163383	27071	1056433	46343	107842	0	0	8201	572544	0	0
2024-10-17 08:28:47			0	37835	0	0	0	21374	19930	163375	26875	1056424	46333	107844	0	0	8201	572656	0	0
2024-10-17 08:29:47			0	37846	0	0	0	21381	19930	163243	27180	1056442	46342	107847	0	0	8201	572212	0	0
2024-10-17 08:30:47			0	37855	0	0	0	21371	19930	163291	26890	1056451	46322	107843	0	0	8202	571849	0	0
2024-10-17 08:31:47			0	37855	0	0	0	21371	19930	163307	26856	1056424	46322	107843	0	0	8202	571849	0	0
2024-10-17 08:32:47			0	37868	0	0	0	21368	19940	163251	27324	1056486	46333	107842	0	0	8203	571293	0	0
2024-10-17 08:33:47			0	37863	0	0	0	21371	19920	163319	27272	1056406	46320	107843	0	0	8203	571558	0	0
2024-10-17 08:34:47			0	37870	0	0	0	21374	19940	163259	27225	1056460	46322	107844	0	0	8203	571212	0	0
2024-10-17 08:35:47			0	37880	0	0	0	21374	19930	163279	27168	1056442	46321	107844	0	0	8204	570841	0	0
2024-10-17 08:36:47			0	37883	0	0	0	21374	19940	163231	27234	1056469	46344	107844	0	0	8204	570688	0	0
2024-10-17 08:37:47			0	37878	0	0	0	21368	19940	163223	27222	1056433	46333	107842	0	0	8204	570890	0	0
2024-10-17 08:38:47			0	37882	0	0	0	21374	19940	163235	27097	1056460	46333	107844	0	0	8204	570729	0	0
2024-10-17 08:39:47			0	37881	0	0	0	21374	19940	163215	27391	1056460	46333	107844	0	0	8204	570769	0	0
2024-10-17 08:40:47			0	37885	0	0	0	21381	19940	163147	27118	1056486	46322	107847	0	0	8204	570608	0	0
2024-10-17 08:41:47			0	37902	0	0	0	21379	19940	163151	27105	1056460	46343	107846	0	0	8205	569923	0	0
2024-10-17 08:42:47			0	37926	0	0	0	21381	19940	163091	26906	1056442	46333	107847	0	0	8206	568958	0	0
2024-10-17 08:43:47			0	37914	0	0	0	21374	19940	163143	27182	1056469	46333	107844	0	0	8206	569440	0	0
2024-10-17 08:44:47			0	37913	0	0	0	21379	19940	163027	27043	1056460	46333	107846	0	0	8205	569480	0	0
2024-10-17 08:45:47			0	37922	0	0	0	21379	19940	163139	27220	1056495	46333	107846	0	0	8206	569118	0	0
2024-10-17 08:46:47			0	37924	0	0	0	21376	19940	162983	27362	1056486	46333	107845	0	0	8206	569038	0	0
2024-10-17 08:47:47			0	37928	0	0	0	21371	19940	162963	27300	1056460	46322	107843	0	0	8206	568877	0	0
2024-10-17 08:48:47			0	37945	0	0	0	21371	19940	163055	27261	1056513	46322	107843	0	0	8207	568194	0	0
2024-10-17 08:49:47			0	37932	0	0	0	21376	19930	163003	27133	1056477	46333	107845	0	0	8207	568748	0	0
2024-10-17 08:50:47			0	37923	0	0	0	21376	19930	163039	27294	1056477	46333	107845	0	0	8206	569109	0	0
2024-10-17 08:51:47			0	37942	0	0	0	21379	19950	162819	27409	1056531	46333	107846	0	0	8207	568283	0	0
2024-10-17 08:52:47			0	37964	0	0	0	21379	19940	162855	27203	1056486	46333	107846	0	0	8208	567431	0	0
2024-10-17 08:53:47			0	37940	0	0	0	21379	19940	162883	27126	1056442	46323	107846	0	0	8207	568395	0	0
2024-10-17 08:54:47			0	37962	0	0	0	21374	19950	162891	26993	1056478	46344	107844	0	0	8208	567480	0	0
2024-10-17 08:55:47			0	37967	0	0	0	21371	19940	162875	27020	1056495	46323	107843	0	0	8209	567310	0	0
2024-10-17 08:56:47			0	37981	0	0	0	21379	19940	162855	27119	1056469	46344	107846	0	0	8209	566748	0	0
2024-10-17 08:57:47			0	37966	0	0	0	21379	19940	162855	27303	1056469	46323	107846	0	0	8209	567350	0	0
2024-10-17 08:58:47			0	37966	0	0	0	21368	19940	162903	27185	1056469	46344	107842	0	0	8209	567350	0	0
2024-10-17 08:59:47			0	37988	0	0	0	21381	19940	162735	27498	1056469	46333	107847	0	0	8210	566468	0	0
2024-10-17 09:00:47			0	38014	0	0	0	21379	19940	162711	27104	1056522	46333	107846	0	0	8211	565425	0	0
2024-10-17 09:01:47			0	37994	0	0	0	21368	19940	162719	27440	1056495	46323	107842	0	0	8210	566227	0	0
2024-10-17 09:02:47			0	37994	0	0	0	21376	19940	162663	27017	1056513	46322	107845	0	0	8210	566227	0	0
2024-10-17 09:03:47			0	37998	0	0	0	21368	19940	162659	27272	1056486	46322	107842	0	0	8211	566067	0	0
2024-10-17 09:04:47			0	38009	0	0	0	21371	19940	162667	27307	1056548	46333	107843	0	0	8211	565626	0	0
2024-10-17 09:05:47			0	38022	0	0	0	21374	19940	162575	27377	1056460	46333	107844	0	0	8212	565105	0	0
2024-10-17 09:06:47			0	38050	0	0	0	21379	19940	162532	27282	1056460	46333	107846	0	0	8214	563985	0	0
2024-10-17 09:07:47			0	38061	0	0	0	21379	19950	162560	27371	1056531	46344	107846	0	0	8214	563514	0	0
2024-10-17 09:08:47			0	38067	0	0	0	21374	19940	162472	27036	1056486	46343	107844	0	0	8215	563305	0	0
2024-10-17 09:09:47			0	38080	0	0	0	21386	19950	162352	27185	1056451	46344	107849	0	0	8215	562755	0	0
2024-10-17 09:10:47			0	38081	0	0	0	21389	19940	162320	27085	1056495	46333	107850	0	0	8215	562746	0	0
2024-10-17 09:11:47			0	38099	0	0	0	21386	19950	162348	27147	1056531	46333	107849	0	0	8216	561996	0	0
2024-10-17 09:12:47			0	38112	0	0	0	21384	19950	162224	27313	1056531	46323	107848	0	0	8217	561478	0	0
2024-10-17 09:13:47			0	38112	0	0	0	21386	19950	162300	27156	1056504	46356	107849	0	0	8217	561478	0	0
2024-10-17 09:14:47			0	38119	0	0	0	21386	19950	162252	27351	1056504	46323	107849	0	0	8218	561198	0	0
2024-10-17 09:15:47			0	38125	0	0	0	21384	19950	162292	27157	1056513	46334	107848	0	0	8218	560959	0	0
2024-10-17 09:16:47			0	38118	0	0	0	21386	19940	162356	27270	1056513	46322	107849	0	0	8217	561269	0	0
2024-10-17 09:17:47			0	38118	0	0	0	21384	19950	162224	27355	1056486	46324	107848	0	0	8217	561238	0	0
2024-10-17 09:18:47			0	38143	0	0	0	21394	19940	162144	26935	1056522	46333	107852	0	0	8219	560273	0	0
2024-10-17 09:19:47			0	38162	0	0	0	21394	19950	162092	26873	1056531	46333	107852	0	0	8220	559486	0	0
2024-10-17 09:20:47			0	38139	0	0	0	21394	19950	162164	27026	1056531	46344	107852	0	0	8219	560401	0	0
2024-10-17 09:21:47			0	38160	0	0	0	21386	19940	162052	27300	1056522	46323	107849	0	0	8220	559596	0	0
2024-10-17 09:22:47			0	38168	0	0	0	21394	19950	162064	27313	1056584	46333	107852	0	0	8220	559247	0	0
2024-10-17 09:23:47			0	38170	0	0	0	21386	19940	161976	27248	1056522	46356	107849	0	0	8220	559198	0	0
2024-10-17 09:24:47			0	38188	0	0	0	21389	19950	161960	27220	1056531	46333	107850	0	0	8222	558452	0	0
2024-10-17 09:25:47			0	38200	0	0	0	21384	19950	161928	27350	1056584	46333	107848	0	0	8222	557975	0	0
2024-10-17 09:26:47			0	38190	0	0	0	21386	19950	161888	27358	1056531	46344	107849	0	0	8222	558372	0	0
2024-10-17 09:27:47			0	38213	0	0	0	21394	19950	161852	27396	1056504	46344	107852	0	0	8223	557459	0	0
2024-10-17 09:28:47			0	38197	0	0	0	21392	19950	161960	27334	1056478	46344	107851	0	0	8222	558094	0	0
2024-10-17 09:29:47			0	38212	0	0	0	21397	19950	161840	27197	1056531	46333	107853	0	0	8223	557498	0	0
2024-10-17 09:30:47			0	38226	0	0	0	21386	19960	161832	27436	1056549	46324	107849	0	0	8224	556912	0	0
2024-10-17 09:31:47			0	38222	0	0	0	21389	19960	161896	27502	1056575	46324	107850	0	0	8224	557071	0	0
2024-10-17 09:32:47			0	38229	0	0	0	21394	19950	161724	27371	1056593	46345	107852	0	0	8224	556824	0	0
2024-10-17 09:33:47			0	38233	0	0	0	21394	19950	161732	27473	1056513	46345	107852	0	0	8224	556665	0	0
2024-10-17 09:34:47			0	38222	0	0	0	21397	19950	161764	27313	1056593	46324	107853	0	0	8223	557101	0	0
2024-10-17 09:35:47			0	38221	0	0	0	21394	19960	161812	27104	1056549	46334	107852	0	0	8223	557110	0	0
2024-10-17 09:36:47			0	38238	0	0	0	21399	19970	161848	27507	1056637	46335	107854	0	0	8224	556405	0	0
2024-10-17 09:37:47			0	38208	0	0	0	21392	19950	161800	27235	1056557	46333	107851	0	0	8223	557657	0	0
2024-10-17 09:38:47			0	38222	0	0	0	21399	19960	161864	27239	1056602	46345	107854	0	0	8223	557071	0	0
2024-10-17 09:39:47			0	38214	0	0	0	21397	19950	161744	27029	1056593	46334	107853	0	0	8223	557419	0	0
2024-10-17 09:40:47			0	38231	0	0	0	21399	19960	161808	26970	1056602	46334	107854	0	0	8224	556714	0	0
2024-10-17 09:41:47			0	38224	0	0	0	21392	19960	161768	27071	1056628	46345	107851	0	0	8224	556991	0	0
2024-10-17 09:42:47			0	38243	0	0	0	21392	19950	161796	26941	1056540	46334	107851	0	0	8225	556268	0	0
2024-10-17 09:43:47			0	38225	0	0	0	21399	19960	161856	26906	1056602	46324	107854	0	0	8224	556952	0	0
2024-10-17 09:44:47			0	38218	0	0	0	21405	19970	161860	27267	1056558	46335	107856	0	0	8223	557199	0	0
2024-10-17 09:45:47			0	38241	0	0	0	21407	19970	161816	27111	1056611	46335	107857	0	0	8224	556286	0	0
2024-10-17 09:46:47			0	38247	0	0	0	21397	19970	161844	27235	1056584	46325	107853	0	0	8225	556049	0	0
2024-10-17 09:47:47			0	38241	0	0	0	21397	19960	161788	27308	1056549	46324	107853	0	0	8225	556317	0	0
2024-10-17 09:48:47			0	38243	0	0	0	21405	19970	161796	27152	1056584	46335	107856	0	0	8225	556207	0	0
2024-10-17 09:49:47			0	38229	0	0	0	21397	19970	161764	26998	1056611	46346	107853	0	0	8224	556762	0	0
2024-10-17 09:50:47			0	38229	0	0	0	21407	19970	161676	27230	1056637	46346	107857	0	0	8224	556762	0	0
2024-10-17 09:51:47			0	38252	0	0	0	21407	19960	161752	27298	1056575	46334	107857	0	0	8225	555881	0	0
2024-10-17 09:52:47			0	38260	0	0	0	21405	19970	161700	27478	1056620	46335	107856	0	0	8226	555534	0	0
2024-10-17 09:53:47			0	38261	0	0	0	21405	19960	161656	27462	1056708	46334	107856	0	0	8226	555524	0	0
2024-10-17 09:54:47			0	38277	0	0	0	21405	19980	161604	27384	1056656	46347	107856	0	0	8227	554830	0	0
2024-10-17 09:55:47			0	38261	0	0	0	21405	19970	161576	27417	1056647	46335	107856	0	0	8226	555494	0	0
2024-10-17 09:56:47			0	38255	0	0	0	21405	19970	161592	27312	1056664	46346	107856	0	0	8225	555732	0	0
2024-10-17 09:57:47			0	38260	0	0	0	21405	19970	161504	27661	1056611	46325	107856	0	0	8226	555534	0	0
2024-10-17 09:58:47			0	38262	0	0	0	21418	19970	161616	27372	1056664	46335	107861	0	0	8225	555454	0	0
2024-10-17 09:59:47			0	38248	0	0	0	21407	19980	161548	27261	1056656	46347	107857	0	0	8225	555978	0	0
2024-10-17 10:00:47			0	38278	0	0	0	21410	19970	161588	27088	1056611	46346	107858	0	0	8227	554821	0	0
2024-10-17 10:01:47			0	38272	0	0	0	21418	19980	161588	27270	1056629	46326	107861	0	0	8226	555028	0	0
2024-10-17 10:02:47			0	38263	0	0	0	21407	19970	161636	27171	1056637	46335	107857	0	0	8226	555415	0	0
2024-10-17 10:03:47			0	38266	0	0	0	21412	19970	161656	27559	1056611	46335	107859	0	0	8226	555296	0	0
2024-10-17 10:04:47			0	38254	0	0	0	21412	19970	161692	27246	1056637	46325	107859	0	0	8225	555771	0	0
2024-10-17 10:05:47			0	38281	0	0	0	21410	19980	161616	27495	1056682	46315	107858	0	0	8227	554671	0	0
2024-10-17 10:06:47			0	38276	0	0	0	21418	19970	161620	27152	1056611	46346	107861	0	0	8226	554900	0	0
2024-10-17 10:07:47			0	38280	0	0	0	21407	19980	161584	27119	1056638	46337	107857	0	0	8227	554711	0	0
2024-10-17 10:08:47			0	38285	0	0	0	21412	19980	161512	27334	1056656	46347	107859	0	0	8227	554513	0	0
2024-10-17 10:09:47			0	38309	0	0	0	21420	19990	161492	26831	1056736	46327	107862	0	0	8228	553533	0	0
2024-10-17 10:10:47			0	38290	0	0	0	21407	19980	161516	27270	1056656	46347	107857	0	0	8227	554315	0	0
2024-10-17 10:11:47			0	38295	0	0	0	21412	19980	161528	27128	1056665	46349	107859	0	0	8228	554118	0	0
2024-10-17 10:12:47			0	38300	0	0	0	21410	19980	161504	27393	1056656	46326	107858	0	0	8228	553920	0	0
2024-10-17 10:13:47			0	38303	0	0	0	21423	19980	161604	27013	1056691	46337	107863	0	0	8228	553801	0	0
2024-10-17 10:14:47			0	38309	0	0	0	21412	19980	161576	27001	1056665	46327	107859	0	0	8228	553564	0	0
2024-10-17 10:15:47			0	38298	0	0	0	21423	19980	161568	26975	1056665	46349	107863	0	0	8228	553999	0	0
2024-10-17 10:16:47			0	38293	0	0	0	21420	19970	161556	27013	1056700	46335	107862	0	0	8227	554227	0	0
2024-10-17 10:17:47			0	38302	0	0	0	21407	19980	161480	27194	1056629	46347	107857	0	0	8228	553841	0	0
2024-10-17 10:18:47			0	38303	0	0	0	21423	19980	161476	27109	1056718	46349	107863	0	0	8228	553801	0	0
2024-10-17 10:19:47			0	38294	0	0	0	21412	19980	161416	27152	1056691	46327	107859	0	0	8227	554157	0	0
2024-10-17 10:20:47			0	38297	0	0	0	21412	19990	161572	27007	1056753	46327	107859	0	0	8228	554008	0	0
2024-10-17 10:21:47			0	38312	0	0	0	21415	19980	161468	27206	1056718	46349	107860	0	0	8228	553445	0	0
2024-10-17 10:22:47			0	38304	0	0	0	21418	19980	161468	27034	1056682	46359	107861	0	0	8228	553762	0	0
2024-10-17 10:23:47			0	38307	0	0	0	21412	19980	161428	26996	1056691	46337	107859	0	0	8228	553643	0	0
2024-10-17 10:24:47			0	38302	0	0	0	21423	19980	161528	26953	1056718	46337	107863	0	0	8228	553841	0	0
2024-10-17 10:25:47			0	38306	0	0	0	21423	19980	161468	27274	1056656	46336	107863	0	0	8228	553683	0	0
2024-10-17 10:26:47			0	38326	0	0	0	21423	19990	161552	27166	1056700	46349	107863	0	0	8229	552862	0	0
2024-10-17 10:27:47			0	38307	0	0	0	21423	19980	161492	27223	1056718	46337	107863	0	0	8228	553643	0	0
2024-10-17 10:28:47			0	38319	0	0	0	21428	19990	161448	27277	1056736	46337	107865	0	0	8229	553138	0	0
2024-10-17 10:29:47			0	38313	0	0	0	21428	19980	161620	26902	1056718	46349	107865	0	0	8228	553406	0	0
2024-10-17 10:30:47			0	38311	0	0	0	21423	19990	161464	27052	1056762	46349	107863	0	0	8228	553454	0	0
2024-10-17 10:31:47			0	38308	0	0	0	21420	20000	161496	27121	1056718	46338	107862	0	0	8228	553542	0	0
2024-10-17 10:32:47			0	38304	0	0	0	21425	19980	161400	27086	1056735	46336	107864	0	0	8228	553762	0	0
2024-10-17 10:33:47			0	38310	0	0	0	21431	20000	161536	27339	1056771	46338	107866	0	0	8228	553463	0	0
2024-10-17 10:34:47			0	38302	0	0	0	21425	19990	161480	26883	1056727	46337	107864	0	0	8228	553810	0	0
2024-10-17 10:35:47			0	38301	0	0	0	21441	20000	161424	27331	1056691	46338	107870	0	0	8227	553819	0	0
2024-10-17 10:36:47			0	38315	0	0	0	21441	19990	161544	27229	1056753	46327	107870	0	0	8228	553296	0	0
2024-10-17 10:37:47			0	38327	0	0	0	21431	19990	161444	27242	1056753	46337	107866	0	0	8229	552822	0	0
2024-10-17 10:38:47			0	38321	0	0	0	21438	20000	161472	27348	1056780	46351	107869	0	0	8229	553029	0	0
2024-10-17 10:39:47			0	38330	0	0	0	21431	20000	161520	27310	1056727	46351	107866	0	0	8229	552673	0	0
2024-10-17 10:40:47			0	38327	0	0	0	21436	19990	161580	27372	1056736	46327	107868	0	0	8229	552822	0	0
2024-10-17 10:41:47			0	38314	0	0	0	21438	20000	161492	27300	1056807	46339	107869	0	0	8228	553305	0	0
2024-10-17 10:42:47			0	38320	0	0	0	21444	20000	161580	27563	1056877	46350	107871	0	0	8229	553068	0	0
2024-10-17 10:43:47			0	38318	0	0	0	21441	20010	161380	27419	1056789	46339	107870	0	0	8229	553117	0	0
2024-10-17 10:44:47			0	38313	0	0	0	21444	20000	161452	27163	1056807	46351	107871	0	0	8228	553345	0	0
2024-10-17 10:45:47			0	38326	0	0	0	21433	20000	161420	27424	1056798	46338	107867	0	0	8229	552831	0	0
2024-10-17 10:46:47			0	38323	0	0	0	21436	20000	161316	27124	1056780	46339	107868	0	0	8229	552950	0	0
2024-10-17 10:47:47			0	38340	0	0	0	21444	20000	161368	27277	1056807	46339	107871	0	0	8230	552278	0	0
2024-10-17 10:48:47			0	38344	0	0	0	21446	20010	161324	27154	1056816	46339	107872	0	0	8230	552090	0	0
2024-10-17 10:49:47			0	38342	0	0	0	21441	20010	161272	27313	1056842	46339	107870	0	0	8230	552169	0	0
2024-10-17 10:50:47			0	38338	0	0	0	21441	20010	161340	27234	1056869	46339	107870	0	0	8230	552327	0	0
2024-10-17 10:51:47			0	38329	0	0	0	21449	20010	161344	27081	1056825	46340	107873	0	0	8229	552682	0	0
2024-10-17 10:52:47			0	38344	0	0	0	21449	20010	161320	27180	1056816	46351	107873	0	0	8230	552090	0	0
2024-10-17 10:53:47			0	38350	0	0	0	21441	20000	161384	27026	1056833	46339	107870	0	0	8230	551884	0	0
2024-10-17 10:54:47			0	38354	0	0	0	21444	20010	161356	27154	1056842	46339	107871	0	0	8231	551696	0	0
2024-10-17 10:55:47			0	38325	0	0	0	21438	20000	161272	27187	1056833	46351	107869	0	0	8229	552871	0	0
2024-10-17 10:56:47			0	38337	0	0	0	21441	20010	161380	27402	1056851	46352	107870	0	0	8230	552366	0	0
2024-10-17 10:57:47			0	38357	0	0	0	21438	20010	161264	27301	1056825	46340	107869	0	0	8231	551577	0	0
2024-10-17 10:58:47			0	38364	0	0	0	21444	20010	161332	26885	1056825	46352	107871	0	0	8231	551302	0	0
2024-10-17 10:59:47			0	38342	0	0	0	21441	20020	161320	27407	1056913	46352	107870	0	0	8230	552139	0	0
2024-10-17 11:00:47			0	38339	0	0	0	21444	20010	161372	27621	1056878	46340	107871	0	0	8230	552287	0	0
2024-10-17 11:01:47			0	38349	0	0	0	21449	20010	161328	27270	1056851	46352	107873	0	0	8230	551893	0	0
2024-10-17 11:02:47			0	38345	0	0	0	21446	20010	161280	27383	1056878	46330	107872	0	0	8230	552051	0	0
2024-10-17 11:03:47			0	38342	0	0	0	21441	20010	161420	27310	1056816	46351	107870	0	0	8230	552169	0	0
2024-10-17 11:04:47			0	38316	0	0	0	21451	20010	161464	27182	1056869	46351	107874	0	0	8228	553196	0	0
2024-10-17 11:05:47			0	38319	0	0	0	21449	20010	161364	27326	1056851	46330	107873	0	0	8228	553077	0	0
2024-10-17 11:06:47			0	38320	0	0	0	21446	20010	161392	27422	1056851	46340	107872	0	0	8229	553038	0	0
2024-10-17 11:07:47			0	38319	0	0	0	21451	20030	161484	27485	1056851	46353	107874	0	0	8229	553016	0	0
2024-10-17 11:08:47			0	38338	0	0	0	21451	20010	161492	27216	1056878	46340	107874	0	0	8230	552327	0	0
2024-10-17 11:09:47			0	38318	0	0	0	21444	20010	161396	27204	1056851	46352	107871	0	0	8228	553117	0	0
2024-10-17 11:10:47			0	38309	0	0	0	21451	20020	161364	27339	1056833	46352	107874	0	0	8228	553442	0	0
2024-10-17 11:11:47			0	38321	0	0	0	21457	20020	161404	27441	1056887	46340	107876	0	0	8228	552968	0	0
2024-10-17 11:12:47			0	38346	0	0	0	21462	20020	161352	27379	1056913	46352	107878	0	0	8230	551981	0	0
2024-10-17 11:13:47			0	38333	0	0	0	21467	20020	161300	27204	1056869	46341	107880	0	0	8229	552494	0	0
2024-10-17 11:14:47			0	38357	0	0	0	21462	20020	161276	27341	1056940	46340	107878	0	0	8231	551547	0	0
2024-10-17 11:15:47			0	38372	0	0	0	21477	20020	161264	27164	1056887	46352	107884	0	0	8231	550956	0	0
2024-10-17 11:16:47			0	38393	0	0	0	21477	20020	161176	27329	1056940	46340	107884	0	0	8232	550128	0	0
2024-10-17 11:17:47			0	38397	0	0	0	21480	20020	161048	27294	1056913	46352	107885	0	0	8233	549971	0	0
2024-10-17 11:18:47			0	38388	0	0	0	21475	20020	161040	27400	1056887	46363	107883	0	0	8232	550325	0	0
2024-10-17 11:19:47			0	38406	0	0	0	21485	20020	161040	27500	1056896	46331	107887	0	0	8233	549617	0	0
2024-10-17 11:20:47			0	38403	0	0	0	21490	20030	161064	27680	1056958	46353	107889	0	0	8233	549705	0	0
2024-10-17 11:21:47			0	38417	0	0	0	21490	20030	161032	27164	1056993	46342	107889	0	0	8234	549154	0	0
2024-10-17 11:22:47			0	38423	0	0	0	21496	20030	161024	27275	1057020	46342	107891	0	0	8234	548918	0	0
2024-10-17 11:23:47			0	38438	0	0	0	21483	20040	161024	27587	1057002	46365	107886	0	0	8235	548298	0	0
2024-10-17 11:24:47			0	38438	0	0	0	21485	20040	160868	27225	1057064	46355	107887	0	0	8235	548298	0	0
2024-10-17 11:25:47			0	38453	0	0	0	21493	20050	160900	27209	1057047	46333	107890	0	0	8236	547679	0	0
2024-10-17 11:26:47			0	38451	0	0	0	21496	20040	160816	27142	1056985	46333	107891	0	0	8236	547787	0	0
2024-10-17 11:27:47			0	38461	0	0	0	21501	20060	160760	27263	1057011	46367	107893	0	0	8236	547334	0	0
2024-10-17 11:28:47			0	38452	0	0	0	21498	20050	160828	27429	1057047	46355	107892	0	0	8236	547718	0	0
2024-10-17 11:29:47			0	38461	0	0	0	21501	20040	160740	27327	1057091	46343	107893	0	0	8236	547395	0	0
2024-10-17 11:30:47			0	38468	0	0	0	21498	20050	160656	27588	1057100	46355	107892	0	0	8237	547090	0	0
2024-10-17 11:31:47			0	38485	0	0	0	21496	20050	160796	27731	1057100	46355	107891	0	0	8238	546423	0	0
2024-10-17 11:32:47			0	38501	0	0	0	21498	20050	160616	27279	1057109	46344	107892	0	0	8238	545796	0	0
2024-10-17 11:33:47			0	38515	0	0	0	21509	20050	160524	27454	1057109	46356	107896	0	0	8239	545248	0	0
2024-10-17 11:34:47			0	38535	0	0	0	21506	20060	160576	27533	1057091	46356	107895	0	0	8240	544435	0	0
2024-10-17 11:35:47			0	38533	0	0	0	21516	20060	160508	27438	1057171	46356	107899	0	0	8240	544513	0	0
2024-10-17 11:36:47			0	38531	0	0	0	21519	20070	160452	27185	1057136	46369	107900	0	0	8240	544561	0	0
2024-10-17 11:37:47			0	38547	0	0	0	21509	20060	160520	27429	1057074	46357	107896	0	0	8241	543966	0	0
2024-10-17 11:38:47			0	38545	0	0	0	21509	20060	160476	27455	1057118	46344	107896	0	0	8241	544044	0	0
2024-10-17 11:39:47			0	38568	0	0	0	21514	20060	160364	27569	1057180	46345	107898	0	0	8242	543145	0	0
2024-10-17 11:40:47			0	38563	0	0	0	21516	20060	160388	27204	1057153	46357	107899	0	0	8242	543340	0	0
2024-10-17 11:41:47			0	38560	0	0	0	21516	20070	160448	27424	1057162	46369	107899	0	0	8242	543428	0	0
2024-10-17 11:42:47			0	38572	0	0	0	21532	20070	160296	27467	1057145	46346	107905	0	0	8242	542959	0	0
2024-10-17 11:43:47			0	38584	0	0	0	21522	20070	160340	27339	1057189	46358	107901	0	0	8243	542490	0	0
2024-10-17 11:44:47			0	38589	0	0	0	21522	20070	160364	27345	1057171	46346	107901	0	0	8243	542295	0	0
2024-10-17 11:45:47			0	38607	0	0	0	21527	20070	160296	27088	1057136	46358	107903	0	0	8244	541593	0	0
2024-10-17 11:46:47			0	38598	0	0	0	21524	20080	160276	27076	1057180	46359	107902	0	0	8244	541914	0	0
2024-10-17 11:47:47			0	38595	0	0	0	21527	20070	160332	27376	1057224	46346	107903	0	0	8244	542061	0	0
2024-10-17 11:48:47			0	38599	0	0	0	21524	20080	160296	27235	1057207	46347	107902	0	0	8244	541875	0	0
2024-10-17 11:49:47			0	38590	0	0	0	21524	20080	160324	27284	1057260	46347	107902	0	0	8243	542226	0	0
2024-10-17 11:50:47			0	38600	0	0	0	21532	20080	160248	27301	1057180	46347	107905	0	0	8244	541836	0	0
2024-10-17 11:51:47			0	38607	0	0	0	21527	20070	160360	27454	1057278	46358	107903	0	0	8244	541593	0	0
2024-10-17 11:52:47			0	38582	0	0	0	21522	20080	160308	27332	1057207	46359	107901	0	0	8243	542539	0	0
2024-10-17 11:53:47			0	38601	0	0	0	21529	20090	160236	27298	1057234	46360	107904	0	0	8244	541767	0	0
2024-10-17 11:54:47			0	38608	0	0	0	21535	20090	160228	27407	1057314	46360	107906	0	0	8244	541494	0	0
2024-10-17 11:55:47			0	38593	0	0	0	21524	20080	160264	27339	1057242	46359	107902	0	0	8244	542109	0	0
2024-10-17 11:56:47			0	38584	0	0	0	21535	20080	160152	27341	1057216	46359	107906	0	0	8243	542460	0	0
2024-10-17 11:57:47			0	38594	0	0	0	21535	20090	160128	27557	1057287	46360	107906	0	0	8243	542040	0	0
2024-10-17 11:58:47			0	38610	0	0	0	21535	20100	160052	27144	1057270	46361	107906	0	0	8244	541386	0	0
2024-10-17 11:59:47			0	38635	0	0	0	21540	20090	160112	27350	1057287	46348	107908	0	0	8246	540442	0	0
2024-10-17 12:00:47			0	38623	0	0	0	21537	20090	160028	26998	1057314	46360	107907	0	0	8245	540910	0	0
2024-10-17 12:01:47			0	38629	0	0	0	21535	20100	160016	27492	1057296	46349	107906	0	0	8246	540646	0	0
2024-10-17 12:02:47			0	38652	0	0	0	21548	20090	160100	27232	1057314	46348	107911	0	0	8247	539781	0	0
2024-10-17 12:03:47			0	38632	0	0	0	21542	20090	160124	27393	1057287	46371	107909	0	0	8246	540559	0	0
2024-10-17 12:04:47			0	38632	0	0	0	21548	20100	160092	27026	1057358	46372	107911	0	0	8245	540529	0	0
2024-10-17 12:05:47			0	38643	0	0	0	21545	20090	160056	26849	1057287	46360	107910	0	0	8246	540131	0	0
2024-10-17 12:06:47			0	38653	0	0	0	21537	20100	160116	27012	1057332	46361	107907	0	0	8247	539712	0	0
2024-10-17 12:07:47			0	38628	0	0	0	21537	20100	160072	27092	1057332	46361	107907	0	0	8245	540685	0	0
2024-10-17 12:08:47			0	38632	0	0	0	21535	20110	160104	27293	1057314	46362	107906	0	0	8246	540499	0	0
2024-10-17 12:09:47			0	38635	0	0	0	21542	20100	160016	26911	1057332	46349	107909	0	0	8246	540413	0	0
2024-10-17 12:10:47			0	38634	0	0	0	21542	20110	160044	27192	1057261	46362	107909	0	0	8246	540422	0	0
2024-10-17 12:11:47			0	38628	0	0	0	21535	20110	160080	27355	1057287	46362	107906	0	0	8246	540655	0	0
2024-10-17 12:12:47			0	38639	0	0	0	21532	20100	160052	27118	1057332	46361	107905	0	0	8246	540257	0	0
2024-10-17 12:13:47			0	38630	0	0	0	21537	20110	160084	27374	1057314	46362	107907	0	0	8246	540577	0	0
2024-10-17 12:14:47			0	38639	0	0	0	21548	20100	160132	26951	1057296	46349	107911	0	0	8246	540257	0	0
2024-10-17 12:15:47			0	38639	0	0	0	21542	20100	160016	27118	1057252	46349	107909	0	0	8246	540257	0	0
2024-10-17 12:16:47			0	38628	0	0	0	21540	20100	160052	27594	1057305	46361	107908	0	0	8245	540685	0	0
2024-10-17 12:17:47			0	38640	0	0	0	21548	20100	160036	27438	1057332	46338	107911	0	0	8246	540218	0	0
2024-10-17 12:18:47			0	38644	0	0	0	21548	20110	159916	27163	1057341	46351	107911	0	0	8246	540032	0	0
2024-10-17 12:19:47			0	38662	0	0	0	21548	20110	159912	27675	1057323	46351	107911	0	0	8247	539332	0	0
2024-10-17 12:20:47			0	38677	0	0	0	21550	20110	159944	27490	1057367	46351	107912	0	0	8248	538749	0	0
2024-10-17 12:21:47			0	38714	0	0	0	21558	20110	159872	27303	1057367	46351	107915	0	0	8250	537312	0	0
2024-10-17 12:22:47			0	38711	0	0	0	21555	20100	159748	27590	1057332	46361	107914	0	0	8250	537458	0	0
2024-10-17 12:23:47			0	38720	0	0	0	21555	20110	159716	27531	1057367	46362	107914	0	0	8251	537079	0	0
2024-10-17 12:24:47			0	38731	0	0	0	21571	20110	159617	27734	1057350	46351	107920	0	0	8251	536653	0	0
2024-10-17 12:25:47			0	38746	0	0	0	21566	20110	159585	27296	1057429	46362	107918	0	0	8252	536071	0	0
2024-10-17 12:26:47			0	38735	0	0	0	21568	20120	159625	27675	1057438	46363	107919	0	0	8251	536468	0	0
2024-10-17 12:27:47			0	38755	0	0	0	21561	20120	159637	27409	1057394	46364	107916	0	0	8253	535693	0	0
2024-10-17 12:28:47			0	38753	0	0	0	21573	20120	159569	27543	1057447	46352	107921	0	0	8252	535770	0	0
2024-10-17 12:29:47			0	38764	0	0	0	21566	20130	159549	27346	1057456	46364	107918	0	0	8253	535315	0	0
2024-10-17 12:30:47			0	38760	0	0	0	21573	20130	159565	27687	1057430	46364	107921	0	0	8253	535470	0	0
2024-10-17 12:31:47			0	38774	0	0	0	21571	20110	159597	27543	1057376	46351	107920	0	0	8253	534987	0	0
2024-10-17 12:32:47			0	38760	0	0	0	21566	20120	159681	27281	1057527	46341	107918	0	0	8253	535499	0	0
2024-10-17 12:33:47			0	38743	0	0	0	21573	20130	159585	27351	1057430	46352	107921	0	0	8252	536128	0	0
2024-10-17 12:34:47			0	38742	0	0	0	21573	20130	159597	27391	1057456	46364	107921	0	0	8252	536167	0	0
2024-10-17 12:35:47			0	38763	0	0	0	21571	20130	159573	27614	1057509	46375	107920	0	0	8253	535354	0	0
2024-10-17 12:36:47			0	38789	0	0	0	21586	20120	159465	27791	1057447	46352	107926	0	0	8254	534377	0	0
2024-10-17 12:37:47			0	38788	0	0	0	21573	20130	159433	27481	1057483	46352	107921	0	0	8254	534386	0	0
2024-10-17 12:38:47			0	38800	0	0	0	21581	20130	159329	27306	1057492	46352	107924	0	0	8255	533922	0	0
2024-10-17 12:39:47			0	38817	0	0	0	21581	20130	159189	27635	1057465	46352	107924	0	0	8256	533265	0	0
2024-10-17 12:40:47			0	38840	0	0	0	21586	20150	159193	27732	1057545	46376	107926	0	0	8257	532319	0	0
2024-10-17 12:41:47			0	38837	0	0	0	21589	20150	159213	27772	1057519	46376	107927	0	0	8257	532434	0	0
2024-10-17 12:42:47			0	38836	0	0	0	21586	20150	159349	27821	1057554	46366	107926	0	0	8257	532473	0	0
2024-10-17 12:43:47			0	38824	0	0	0	21586	20160	159373	27628	1057590	46344	107926	0	0	8256	532907	0	0
2024-10-17 12:44:47			0	38814	0	0	0	21584	20150	159277	27677	1057634	46355	107925	0	0	8256	533322	0	0
2024-10-17 12:45:47			0	38829	0	0	0	21589	20150	159245	27412	1057581	46376	107927	0	0	8256	532743	0	0
2024-10-17 12:46:47			0	38829	0	0	0	21592	20150	159277	27561	1057572	46366	107928	0	0	8256	532743	0	0
2024-10-17 12:47:47			0	38830	0	0	0	21594	20150	159269	27339	1057625	46355	107929	0	0	8256	532705	0	0
2024-10-17 12:48:47			0	38819	0	0	0	21586	20160	159285	27410	1057616	46367	107926	0	0	8256	533100	0	0
2024-10-17 12:49:47			0	38826	0	0	0	21592	20170	159269	27312	1057634	46357	107928	0	0	8256	532800	0	0
2024-10-17 12:50:47			0	38808	0	0	0	21592	20160	159177	27388	1057643	46367	107928	0	0	8255	533525	0	0
2024-10-17 12:51:47			0	38822	0	0	0	21581	20160	159337	27440	1057572	46368	107924	0	0	8256	532984	0	0
2024-10-17 12:52:47			0	38804	0	0	0	21584	20160	159273	27526	1057563	46356	107925	0	0	8255	533679	0	0
2024-10-17 12:53:47			0	38822	0	0	0	21592	20170	159321	27303	1057661	46368	107928	0	0	8256	532955	0	0
2024-10-17 12:54:47			0	38805	0	0	0	21597	20160	159261	27571	1057669	46356	107930	0	0	8255	533641	0	0
2024-10-17 12:55:47			0	38833	0	0	0	21607	20160	159269	27410	1057678	46378	107934	0	0	8256	532559	0	0
2024-10-17 12:56:47			0	38847	0	0	0	21633	20160	159157	27699	1057625	46357	107944	0	0	8257	532019	0	0
2024-10-17 12:57:47			0	38841	0	0	0	21628	20160	159137	27507	1057678	46378	107942	0	0	8257	532251	0	0
2024-10-17 12:58:47			0	38856	0	0	0	21641	20170	159081	27460	1057670	46358	107947	0	0	8257	531643	0	0
2024-10-17 12:59:47			0	38862	0	0	0	21636	20180	159069	27376	1057785	46379	107945	0	0	8258	531382	0	0
2024-10-17 13:00:47			0	38850	0	0	0	21612	20180	159053	27448	1057785	46369	107936	0	0	8257	531845	0	0
2024-10-17 13:01:47			0	38843	0	0	0	21620	20180	159049	27492	1057767	46380	107939	0	0	8257	532115	0	0
2024-10-17 13:02:47			0	38869	0	0	0	21644	20180	159149	27438	1057758	46358	107948	0	0	8258	531113	0	0
2024-10-17 13:03:47			0	38876	0	0	0	21670	20190	158949	27640	1057830	46371	107958	0	0	8258	530814	0	0
2024-10-17 13:04:47			0	38893	0	0	0	21693	20210	159045	27474	1057892	46373	107967	0	0	8259	530101	0	0
2024-10-17 13:05:47			0	38872	0	0	0	21690	20200	159037	27483	1057927	46381	107966	0	0	8257	530938	0	0
2024-10-17 13:06:47			0	38880	0	0	0	21696	20210	159053	27521	1057892	46394	107968	0	0	8258	530601	0	0
2024-10-17 13:07:47			0	38879	0	0	0	21693	20210	159065	27559	1057928	46394	107967	0	0	8258	530639	0	0
2024-10-17 13:08:47			0	38865	0	0	0	21703	20220	159041	27410	1057937	46383	107971	0	0	8257	531149	0	0
2024-10-17 13:09:47			0	38870	0	0	0	21685	20230	158953	27608	1057981	46385	107964	0	0	8258	530928	0	0
2024-10-17 13:10:47			0	38872	0	0	0	21685	20230	159029	27189	1058035	46396	107964	0	0	8258	530850	0	0
2024-10-17 13:11:47			0	38868	0	0	0	21693	20230	158905	27604	1058017	46385	107967	0	0	8257	531005	0	0
2024-10-17 13:12:47			0	38864	0	0	0	21701	20240	158969	27069	1058026	46385	107970	0	0	8257	531129	0	0
2024-10-17 13:13:47			0	38908	0	0	0	21716	20260	158885	27358	1058088	46388	107976	0	0	8259	529377	0	0
2024-10-17 13:14:47			0	38887	0	0	0	21706	20250	158897	27621	1058070	46398	107972	0	0	8258	530214	0	0
2024-10-17 13:15:47			0	38899	0	0	0	21714	20240	158885	27282	1058088	46386	107975	0	0	8259	529782	0	0
2024-10-17 13:16:47			0	38918	0	0	0	21714	20260	158801	27466	1058062	46388	107975	0	0	8260	528993	0	0
2024-10-17 13:17:47			0	38911	0	0	0	21732	20270	158841	27679	1058177	46388	107982	0	0	8259	529233	0	0
2024-10-17 13:18:47			0	38922	0	0	0	21724	20260	158789	27312	1058141	46367	107979	0	0	8260	528839	0	0
2024-10-17 13:19:47			0	38930	0	0	0	21748	20260	158745	27528	1058133	46377	107988	0	0	8260	528532	0	0
2024-10-17 13:20:47			0	38996	0	0	0	21768	20270	158453	27471	1058186	46389	107996	0	0	8264	525972	0	0
2024-10-17 13:21:47			0	39041	0	0	0	21753	20280	158381	27661	1058257	46401	107990	0	0	8267	524221	0	0
2024-10-17 13:22:47			0	39034	0	0	0	21753	20280	158341	27497	1058231	46401	107990	0	0	8266	524489	0	0
2024-10-17 13:23:47			0	39056	0	0	0	21768	20290	158237	27554	1058346	46390	107996	0	0	8267	523619	0	0
2024-10-17 13:24:47			0	39070	0	0	0	21781	20290	158321	27204	1058319	46390	108001	0	0	8268	523084	0	0
2024-10-17 13:25:47			0	39063	0	0	0	21786	20290	158233	27357	1058355	46391	108003	0	0	8267	523352	0	0
2024-10-17 13:26:47			0	39074	0	0	0	21802	20300	158201	27235	1058399	46392	108009	0	0	8268	522903	0	0
2024-10-17 13:27:47			0	39103	0	0	0	21820	20310	158105	27436	1058488	46371	108016	0	0	8269	521768	0	0
2024-10-17 13:28:47			0	39146	0	0	0	21823	20310	157909	27012	1058470	46393	108017	0	0	8272	520131	0	0
2024-10-17 13:29:47			0	39162	0	0	0	21805	20340	157829	27365	1058489	46396	108010	0	0	8273	519436	0	0
2024-10-17 13:30:47			0	39188	0	0	0	21807	20330	157649	27177	1058560	46406	108011	0	0	8274	518477	0	0
2024-10-17 13:31:47			0	39191	0	0	0	21797	20350	157645	27788	1058534	46386	108007	0	0	8275	518306	0	0
2024-10-17 13:32:47			0	39190	0	0	0	21802	20350	157681	27656	1058569	46419	108009	0	0	8275	518344	0	0
2024-10-17 13:33:47			0	39220	0	0	0	21802	20340	157601	27549	1058551	46386	108009	0	0	8276	517234	0	0
2024-10-17 13:34:47			0	39210	0	0	0	21797	20340	157689	27431	1058525	46386	108007	0	0	8276	517613	0	0
2024-10-17 13:35:47			0	39225	0	0	0	21812	20340	157537	27588	1058551	46386	108013	0	0	8277	517045	0	0
2024-10-17 13:36:47			0	39237	0	0	0	21825	20370	157441	27284	1058676	46388	108018	0	0	8277	516504	0	0
2024-10-17 13:37:47			0	39270	0	0	0	21833	20360	157393	27511	1058614	46399	108021	0	0	8279	515283	0	0
2024-10-17 13:38:47			0	39272	0	0	0	21846	20370	157401	27149	1058702	46399	108026	0	0	8279	515179	0	0
2024-10-17 13:39:47			0	39280	0	0	0	21836	20380	157301	27357	1058694	46389	108022	0	0	8279	514848	0	0
2024-10-17 13:40:47			0	39290	0	0	0	21849	20380	157293	27701	1058694	46389	108027	0	0	8280	514470	0	0
2024-10-17 13:41:47			0	39290	0	0	0	21859	20380	157285	27379	1058720	46400	108031	0	0	8280	514470	0	0
2024-10-17 13:42:47			0	39324	0	0	0	21859	20390	157201	27374	1058765	46391	108031	0	0	8282	513158	0	0
2024-10-17 13:43:47			0	39332	0	0	0	21864	20390	157161	27561	1058747	46402	108033	0	0	8282	512856	0	0
2024-10-17 13:44:47			0	39317	0	0	0	21867	20390	157109	27296	1058925	46391	108034	0	0	8281	513422	0	0
2024-10-17 13:45:47			0	39330	0	0	0	21880	20390	157061	27197	1058791	46402	108039	0	0	8282	512931	0	0
2024-10-17 13:46:47			0	39340	0	0	0	21890	20400	157069	27474	1058836	46414	108043	0	0	8282	512526	0	0
2024-10-17 13:47:47			0	39346	0	0	0	21890	20420	157037	27306	1058899	46416	108043	0	0	8283	512243	0	0
2024-10-17 13:48:47			0	39343	0	0	0	21890	20410	157069	27521	1058907	46416	108043	0	0	8282	512384	0	0
2024-10-17 13:49:47			0	39371	0	0	0	21893	20420	156921	27620	1058908	46427	108044	0	0	8284	511301	0	0
2024-10-17 13:50:47			0	39356	0	0	0	21901	20430	156925	27367	1058943	46395	108047	0	0	8283	511838	0	0
2024-10-17 13:51:47			0	39344	0	0	0	21906	20430	157081	27528	1059006	46384	108049	0	0	8282	512290	0	0
2024-10-17 13:52:47			0	39338	0	0	0	21896	20440	157009	27748	1058970	46396	108045	0	0	8282	512488	0	0
2024-10-17 13:53:47			0	39343	0	0	0	21885	20440	157033	27796	1059041	46406	108041	0	0	8283	512300	0	0
2024-10-17 13:54:47			0	39334	0	0	0	21903	20440	157061	27821	1059015	46395	108048	0	0	8282	512639	0	0
2024-10-17 13:55:47			0	39322	0	0	0	21909	20440	157005	27958	1059103	46396	108050	0	0	8281	513091	0	0
2024-10-17 13:56:47			0	39329	0	0	0	21927	20450	157177	27838	1059041	46420	108057	0	0	8281	512799	0	0
2024-10-17 13:57:47			0	39317	0	0	0	21922	20450	157229	27308	1059095	46420	108055	0	0	8280	513252	0	0
2024-10-17 13:58:47			0	39321	0	0	0	21935	20460	157201	27930	1059140	46409	108060	0	0	8281	513073	0	0
2024-10-17 13:59:47			0	39321	0	0	0	21940	20460	157157	27727	1059210	46409	108062	0	0	8280	513073	0	0
2024-10-17 14:00:47			0	39292	0	0	0	21955	20470	157193	27656	1059255	46410	108068	0	0	8279	514139	0	0
2024-10-17 14:01:47			0	39196	0	0	0	21981	20480	157613	27642	1059255	46411	108078	0	0	8273	517744	0	0
2024-10-17 14:02:47			0	39132	0	0	0	21981	20490	157741	27336	1059238	46412	108078	0	0	8269	520146	0	0
2024-10-17 14:03:47			0	39037	0	0	0	21997	20500	158165	27550	1059389	46402	108084	0	0	8263	523737	0	0
2024-10-17 14:04:47			0	38998	0	0	0	21979	20500	158345	27642	1059362	46435	108077	0	0	8261	525227	0	0
2024-10-17 14:05:47			0	38920	0	0	0	21989	20510	158557	27654	1059433	46425	108081	0	0	8257	528186	0	0
2024-10-17 14:06:47			0	38928	0	0	0	21992	20520	158641	27604	1059424	46426	108082	0	0	8257	527850	0	0
2024-10-17 14:07:47			0	38925	0	0	0	21981	20520	158597	27604	1059460	46416	108078	0	0	8257	527965	0	0
2024-10-17 14:08:47			0	38936	0	0	0	21976	20530	158533	27635	1059442	46427	108076	0	0	8258	527514	0	0
2024-10-17 14:09:47			0	38895	0	0	0	21992	20530	158633	27862	1059505	46428	108082	0	0	8255	529087	0	0
2024-10-17 14:10:47			0	38836	0	0	0	21981	20530	158901	27685	1059469	46427	108078	0	0	8252	531357	0	0
2024-10-17 14:11:47			0	38799	0	0	0	21971	20540	158913	27776	1059487	46407	108074	0	0	8250	532753	0	0
2024-10-17 14:12:47			0	38814	0	0	0	21976	20540	158921	27547	1059460	46407	108076	0	0	8251	532175	0	0
2024-10-17 14:13:47			0	38860	0	0	0	21971	20540	158673	27621	1059434	46418	108074	0	0	8254	530403	0	0
2024-10-17 14:14:47			0	38896	0	0	0	21966	20550	158625	27894	1059469	46407	108072	0	0	8256	528991	0	0
2024-10-17 14:15:47			0	38935	0	0	0	21961	20550	158421	27885	1059531	46407	108070	0	0	8258	527494	0	0
2024-10-17 14:16:47			0	38967	0	0	0	21976	20540	158353	27319	1059434	46407	108076	0	0	8260	526297	0	0
2024-10-17 14:17:47			0	39032	0	0	0	21971	20560	158153	27498	1059496	46398	108074	0	0	8264	523754	0	0
2024-10-17 14:18:47			0	39029	0	0	0	21966	20540	158073	27493	1059434	46418	108072	0	0	8263	523926	0	0
2024-10-17 14:19:47			0	38969	0	0	0	21961	20550	158257	27313	1059469	46418	108070	0	0	8260	526191	0	0
2024-10-17 14:20:47			0	38927	0	0	0	21966	20560	158505	27488	1059461	46397	108072	0	0	8258	527772	0	0
2024-10-17 14:21:47			0	38867	0	0	0	21958	20530	158741	27327	1059425	46395	108069	0	0	8254	530164	0	0
2024-10-17 14:22:47			0	38803	0	0	0	21953	20530	158957	27545	1059451	46406	108067	0	0	8250	532628	0	0
2024-10-17 14:23:47			0	38746	0	0	0	21955	20540	159125	27582	1059460	46418	108068	0	0	8247	534800	0	0
2024-10-17 14:24:47			0	38710	0	0	0	21950	20540	159404	27578	1059460	46385	108066	0	0	8245	536192	0	0
2024-10-17 14:25:47			0	38655	0	0	0	21955	20540	159452	27225	1059434	46418	108068	0	0	8242	538324	0	0
2024-10-17 14:26:47			0	38657	0	0	0	21955	20520	159484	27327	1059380	46394	108068	0	0	8242	538306	0	0
2024-10-17 14:27:47			0	38639	0	0	0	21963	20530	159684	27478	1059425	46395	108071	0	0	8241	538975	0	0
2024-10-17 14:28:47			0	38607	0	0	0	21958	20530	159728	27656	1059389	46405	108069	0	0	8239	540219	0	0
2024-10-17 14:29:47			0	38616	0	0	0	21961	20530	159696	27403	1059442	46416	108070	0	0	8239	539869	0	0
2024-10-17 14:30:47			0	38605	0	0	0	21961	20540	159884	27215	1059434	46407	108070	0	0	8239	540267	0	0
2024-10-17 14:31:47			0	38596	0	0	0	21963	20530	159820	27640	1059345	46395	108071	0	0	8238	540647	0	0
2024-10-17 14:32:47			0	38601	0	0	0	21953	20530	159708	27116	1059389	46427	108067	0	0	8239	540452	0	0
2024-10-17 14:33:47			0	38596	0	0	0	21961	20530	159912	27192	1059425	46406	108070	0	0	8238	540647	0	0
2024-10-17 14:34:47			0	38577	0	0	0	21963	20530	159848	27144	1059398	46406	108071	0	0	8237	541387	0	0
2024-10-17 14:35:47			0	38582	0	0	0	21955	20530	159816	27303	1059442	46394	108068	0	0	8238	541192	0	0
2024-10-17 14:36:47			0	38585	0	0	0	21958	20520	159888	27371	1059487	46405	108069	0	0	8238	541105	0	0
2024-10-17 14:37:47			0	38589	0	0	0	21968	20530	159760	27339	1059451	46406	108073	0	0	8238	540919	0	0
2024-10-17 14:38:47			0	38601	0	0	0	21976	20540	159804	27492	1059460	46418	108076	0	0	8238	540422	0	0
2024-10-17 14:39:47			0	38619	0	0	0	21971	20530	159712	27281	1059416	46405	108074	0	0	8239	539752	0	0
2024-10-17 14:40:47			0	38633	0	0	0	21968	20530	159612	27154	1059478	46417	108073	0	0	8240	539208	0	0
2024-10-17 14:41:47			0	38643	0	0	0	21968	20540	159652	27242	1059460	46418	108073	0	0	8241	538790	0	0
2024-10-17 14:42:47			0	38644	0	0	0	21976	20530	159572	27379	1059398	46417	108076	0	0	8241	538781	0	0
2024-10-17 14:43:47			0	38633	0	0	0	21971	20540	159608	27168	1059460	46429	108074	0	0	8240	539178	0	0
2024-10-17 14:44:47			0	38638	0	0	0	21966	20550	159688	27100	1059478	46418	108072	0	0	8241	538954	0	0
2024-10-17 14:45:47			0	38617	0	0	0	21973	20540	159652	27284	1059487	46418	108075	0	0	8239	539800	0	0
2024-10-17 14:46:47			0	38617	0	0	0	21966	20530	159576	27291	1059425	46417	108072	0	0	8239	539830	0	0
2024-10-17 14:47:47			0	38625	0	0	0	21981	20550	159596	27388	1059531	46396	108078	0	0	8240	539459	0	0
2024-10-17 14:48:47			0	38632	0	0	0	21968	20550	159688	27358	1059443	46407	108073	0	0	8240	539187	0	0
2024-10-17 14:49:47			0	38633	0	0	0	21971	20540	159836	27140	1059460	46418	108074	0	0	8240	539178	0	0
2024-10-17 14:50:47			0	38632	0	0	0	21948	20550	159668	27303	1059496	46396	108065	0	0	8241	539187	0	0
2024-10-17 14:51:47			0	38662	0	0	0	21950	20550	159540	27138	1059469	46407	108066	0	0	8242	538023	0	0
2024-10-17 14:52:47			0	38669	0	0	0	21966	20550	159480	27422	1059389	46396	108072	0	0	8243	537751	0	0
2024-10-17 14:53:47			0	38666	0	0	0	21963	20550	159516	27183	1059469	46396	108071	0	0	8242	537868	0	0
2024-10-17 14:54:47			0	38676	0	0	0	21973	20530	159540	27255	1059478	46406	108075	0	0	8243	537539	0	0
2024-10-17 14:55:47			0	38677	0	0	0	21961	20540	159380	27189	1059460	46418	108070	0	0	8243	537471	0	0
2024-10-17 14:56:47			0	38702	0	0	0	21955	20550	159416	27263	1059416	46418	108068	0	0	8245	536472	0	0
2024-10-17 14:57:47			0	38724	0	0	0	21961	20540	159264	27590	1059434	46418	108070	0	0	8246	535650	0	0
2024-10-17 14:58:47			0	38739	0	0	0	21958	20530	159161	27531	1059469	46416	108069	0	0	8247	535100	0	0
2024-10-17 14:59:47			0	38766	0	0	0	21973	20540	159145	27426	1059460	46429	108075	0	0	8248	534027	0	0
2024-10-17 15:00:47			0	38731	0	0	0	21973	20550	159213	27393	1059558	46418	108075	0	0	8246	535350	0	0
2024-10-17 15:01:47			0	38716	0	0	0	21984	20550	159412	27384	1059496	46407	108079	0	0	8245	535930	0	0
2024-10-17 15:02:47			0	38683	0	0	0	21986	20550	159540	27251	1059443	46396	108080	0	0	8243	537208	0	0
2024-10-17 15:03:47			0	38654	0	0	0	21981	20550	159612	27457	1059496	46418	108078	0	0	8241	538333	0	0
2024-10-17 15:04:47			0	38633	0	0	0	21979	20550	159600	27345	1059496	46418	108077	0	0	8240	539149	0	0
2024-10-17 15:05:47			0	38643	0	0	0	21976	20550	159780	27371	1059522	46418	108076	0	0	8241	538760	0	0
2024-10-17 15:06:47			0	38662	0	0	0	21976	20550	159584	27433	1059452	46407	108076	0	0	8242	538023	0	0
2024-10-17 15:07:47			0	38684	0	0	0	21961	20550	159496	27606	1059505	46407	108070	0	0	8244	537170	0	0
2024-10-17 15:08:47			0	38699	0	0	0	21961	20550	159424	27001	1059505	46407	108070	0	0	8244	536588	0	0
2024-10-17 15:09:47			0	38689	0	0	0	21961	20550	159480	27211	1059478	46396	108070	0	0	8244	536976	0	0
2024-10-17 15:10:47			0	38708	0	0	0	21966	20550	159424	27469	1059443	46407	108072	0	0	8245	536240	0	0
2024-10-17 15:11:47			0	38711	0	0	0	21963	20550	159404	27144	1059496	46407	108071	0	0	8245	536124	0	0
2024-10-17 15:12:47			0	38696	0	0	0	21973	20540	159320	27166	1059487	46407	108075	0	0	8244	536734	0	0
2024-10-17 15:13:47			0	38728	0	0	0	21966	20540	159285	27429	1059487	46407	108072	0	0	8246	535496	0	0
2024-10-17 15:14:47			0	38744	0	0	0	21963	20550	159217	27352	1059496	46407	108071	0	0	8247	534847	0	0
2024-10-17 15:15:47			0	38757	0	0	0	21966	20550	159085	27293	1059505	46418	108072	0	0	8248	534345	0	0
2024-10-17 15:16:47			0	38793	0	0	0	21968	20550	159053	27332	1059478	46418	108073	0	0	8250	532955	0	0
2024-10-17 15:17:47			0	38787	0	0	0	21976	20550	159061	27303	1059496	46407	108076	0	0	8249	533186	0	0
2024-10-17 15:18:47			0	38788	0	0	0	21989	20550	159105	27282	1059522	46418	108081	0	0	8249	533148	0	0
2024-10-17 15:19:47			0	38778	0	0	0	21979	20560	159177	27371	1059523	46420	108077	0	0	8249	533504	0	0
2024-10-17 15:20:47			0	38763	0	0	0	21984	20560	159161	27142	1059567	46419	108079	0	0	8248	534083	0	0
2024-10-17 15:21:47			0	38770	0	0	0	21979	20550	159113	27440	1059611	46407	108077	0	0	8248	533843	0	0
2024-10-17 15:22:47			0	38786	0	0	0	21979	20560	159189	27343	1059549	46431	108077	0	0	8249	533196	0	0
2024-10-17 15:23:47			0	38777	0	0	0	21989	20560	159153	27445	1059620	46419	108081	0	0	8248	533543	0	0
2024-10-17 15:24:47			0	38761	0	0	0	21976	20560	159221	27156	1059620	46419	108076	0	0	8248	534161	0	0
2024-10-17 15:25:47			0	38758	0	0	0	21984	20560	159205	27588	1059523	46420	108079	0	0	8247	534277	0	0
2024-10-17 15:26:47			0	38762	0	0	0	21989	20560	159229	27319	1059629	46420	108081	0	0	8248	534122	0	0
2024-10-17 15:27:47			0	38730	0	0	0	21984	20560	159257	27313	1059567	46419	108079	0	0	8246	535359	0	0
2024-10-17 15:28:47			0	38728	0	0	0	21989	20570	159221	27093	1059612	46431	108081	0	0	8246	535407	0	0
2024-10-17 15:29:47			0	38742	0	0	0	21981	20570	159137	27176	1059612	46409	108078	0	0	8247	534865	0	0
2024-10-17 15:30:47			0	38714	0	0	0	21986	20560	159316	27317	1059603	46409	108080	0	0	8245	535978	0	0
2024-10-17 15:31:47			0	38708	0	0	0	21997	20570	159380	27327	1059674	46420	108084	0	0	8244	536181	0	0
2024-10-17 15:32:47			0	38708	0	0	0	21979	20570	159320	27150	1059638	46442	108077	0	0	8245	536181	0	0
2024-10-17 15:33:47			0	38711	0	0	0	21986	20580	159356	27282	1059656	46421	108080	0	0	8245	536035	0	0
2024-10-17 15:34:47			0	38696	0	0	0	21989	20580	159316	27488	1059630	46399	108081	0	0	8244	536616	0	0
2024-10-17 15:35:47			0	38710	0	0	0	21979	20560	159300	27107	1059620	46408	108077	0	0	8245	536133	0	0
2024-10-17 15:36:47			0	38692	0	0	0	21984	20560	159312	27046	1059603	46409	108079	0	0	8244	536830	0	0
2024-10-17 15:37:47			0	38667	0	0	0	21971	20570	159516	27398	1059585	46409	108074	0	0	8242	537769	0	0
2024-10-17 15:38:47			0	38629	0	0	0	21984	20570	159600	27569	1059647	46431	108079	0	0	8240	539244	0	0
2024-10-17 15:39:47			0	38626	0	0	0	21989	20570	159600	27597	1059585	46420	108081	0	0	8240	539361	0	0
2024-10-17 15:40:47			0	38655	0	0	0	22002	20580	159560	27776	1059665	46400	108086	0	0	8241	538205	0	0
2024-10-17 15:41:47			0	38681	0	0	0	21997	20570	159512	27587	1059594	46409	108084	0	0	8243	537227	0	0
2024-10-17 15:42:47			0	38691	0	0	0	22005	20580	159344	27741	1059656	46421	108087	0	0	8243	536809	0	0
2024-10-17 15:43:47			0	38692	0	0	0	22012	20580	159468	27606	1059692	46422	108090	0	0	8243	536770	0	0
2024-10-17 15:44:47			0	38683	0	0	0	22020	20580	159376	27760	1059718	46411	108093	0	0	8243	537119	0	0
2024-10-17 15:45:47			0	38687	0	0	0	22018	20580	159412	27682	1059718	46422	108092	0	0	8243	536964	0	0
2024-10-17 15:46:47			0	38718	0	0	0	22020	20580	159416	27703	1059665	46411	108093	0	0	8245	535764	0	0
2024-10-17 15:47:47			0	38691	0	0	0	22020	20600	159392	27613	1059746	46412	108093	0	0	8243	536750	0	0
2024-10-17 15:48:47			0	38678	0	0	0	22028	20600	159360	27741	1059719	46423	108096	0	0	8242	537254	0	0
2024-10-17 15:49:47			0	38684	0	0	0	22044	20590	159444	27498	1059737	46423	108102	0	0	8242	537051	0	0
2024-10-17 15:50:47			0	38684	0	0	0	22044	20600	159504	27770	1059834	46413	108102	0	0	8242	537021	0	0
2024-10-17 15:51:47			0	38672	0	0	0	22041	20590	159512	27571	1059843	46434	108101	0	0	8242	537516	0	0
2024-10-17 15:52:47			0	38673	0	0	0	22028	20600	159576	27395	1059755	46413	108096	0	0	8242	537447	0	0
2024-10-17 15:53:47			0	38664	0	0	0	22018	20610	159448	27696	1059772	46425	108092	0	0	8242	537767	0	0
2024-10-17 15:54:47			0	38677	0	0	0	21997	20610	159364	27842	1059710	46413	108084	0	0	8243	537263	0	0
2024-10-17 15:55:47			0	38705	0	0	0	21997	20600	159328	27814	1059755	46413	108084	0	0	8244	536208	0	0
2024-10-17 15:56:47			0	38715	0	0	0	22005	20600	159328	27440	1059701	46413	108087	0	0	8245	535821	0	0
2024-10-17 15:57:47			0	38714	0	0	0	22007	20610	159324	27566	1059710	46402	108088	0	0	8245	535830	0	0
2024-10-17 15:58:47			0	38714	0	0	0	21999	20600	159220	27552	1059781	46413	108085	0	0	8245	535859	0	0
2024-10-17 15:59:47			0	38722	0	0	0	21999	20600	159256	27467	1059692	46412	108085	0	0	8245	535550	0	0
2024-10-17 16:00:47			0	38740	0	0	0	22007	20600	159193	27507	1059746	46423	108088	0	0	8246	534854	0	0
2024-10-17 16:01:47			0	38737	0	0	0	22005	20580	159149	27310	1059612	46411	108087	0	0	8246	535029	0	0
2024-10-17 16:02:47			0	38747	0	0	0	21999	20600	159257	27732	1059728	46424	108085	0	0	8247	534583	0	0
2024-10-17 16:03:47			0	38721	0	0	0	21984	20600	159188	27235	1059692	46423	108079	0	0	8246	535589	0	0
2024-10-17 16:04:47			0	38721	0	0	0	21994	20600	159248	27466	1059613	46412	108083	0	0	8245	535589	0	0
2024-10-17 16:05:47			0	38741	0	0	0	22005	20590	159249	27381	1059621	46400	108087	0	0	8246	534845	0	0
2024-10-17 16:06:47			0	38751	0	0	0	22012	20590	159185	27196	1059710	46412	108090	0	0	8247	534458	0	0
2024-10-17 16:07:47			0	38750	0	0	0	22012	20580	159169	27455	1059638	46411	108090	0	0	8247	534527	0	0
2024-10-17 16:08:47			0	38786	0	0	0	22007	20590	158989	27294	1059710	46423	108088	0	0	8249	533107	0	0
2024-10-17 16:09:47			0	38789	0	0	0	22002	20590	159093	27383	1059647	46422	108086	0	0	8249	532991	0	0
2024-10-17 16:10:47			0	38780	0	0	0	22005	20590	159081	27031	1059727	46422	108087	0	0	8249	533339	0	0
2024-10-17 16:11:47			0	38790	0	0	0	22007	20600	159029	27331	1059639	46423	108088	0	0	8249	532923	0	0
2024-10-17 16:12:47			0	38786	0	0	0	22015	20590	159009	26987	1059683	46423	108091	0	0	8249	533107	0	0
2024-10-17 16:13:47			0	38805	0	0	0	22015	20590	159077	27391	1059710	46423	108091	0	0	8250	532374	0	0
2024-10-17 16:14:47			0	38813	0	0	0	22015	20590	158925	27204	1059701	46433	108091	0	0	8250	532066	0	0
2024-10-17 16:15:47			0	38821	0	0	0	22010	20590	158801	27239	1059683	46423	108089	0	0	8251	531758	0	0
2024-10-17 16:16:47			0	38832	0	0	0	22012	20580	158821	27282	1059665	46422	108090	0	0	8251	531364	0	0
2024-10-17 16:17:47			0	38814	0	0	0	22010	20600	158897	27339	1059719	46412	108089	0	0	8250	531998	0	0
2024-10-17 16:18:47			0	38806	0	0	0	22005	20590	159001	27227	1059701	46411	108087	0	0	8250	532336	0	0
2024-10-17 16:19:47			0	38826	0	0	0	22002	20580	158945	27379	1059745	46411	108086	0	0	8251	531595	0	0
2024-10-17 16:20:47			0	38831	0	0	0	22007	20590	158985	27263	1059657	46401	108088	0	0	8251	531373	0	0
2024-10-17 16:21:47			0	38859	0	0	0	21999	20580	158877	27301	1059630	46410	108085	0	0	8253	530325	0	0
2024-10-17 16:22:47			0	38880	0	0	0	21994	20590	158749	27090	1059683	46401	108083	0	0	8255	529488	0	0
2024-10-17 16:23:47			0	38904	0	0	0	21997	20590	158653	27074	1059630	46423	108084	0	0	8256	528566	0	0
2024-10-17 16:24:47			0	38890	0	0	0	21999	20590	158721	26942	1059647	46422	108085	0	0	8255	529104	0	0
2024-10-17 16:25:47			0	38896	0	0	0	21992	20580	158637	27241	1059638	46411	108082	0	0	8255	528903	0	0
2024-10-17 16:26:47			0	38908	0	0	0	21997	20580	158637	27588	1059656	46421	108084	0	0	8256	528442	0	0
2024-10-17 16:27:47			0	38900	0	0	0	21997	20590	158513	27758	1059701	46411	108084	0	0	8256	528720	0	0
2024-10-17 16:28:47			0	38887	0	0	0	21986	20580	158733	27133	1059612	46400	108080	0	0	8255	529248	0	0
2024-10-17 16:29:47			0	38891	0	0	0	21989	20570	158813	27211	1059594	46409	108081	0	0	8255	529124	0	0
2024-10-17 16:30:47			0	38875	0	0	0	21997	20570	158805	27244	1059621	46420	108084	0	0	8254	529739	0	0
2024-10-17 16:31:47			0	38885	0	0	0	21981	20570	158769	27152	1059621	46398	108078	0	0	8255	529355	0	0
2024-10-17 16:32:47			0	38883	0	0	0	21986	20570	158669	27289	1059594	46420	108080	0	0	8255	529431	0	0
2024-10-17 16:33:47			0	38886	0	0	0	21986	20580	158793	27232	1059683	46410	108080	0	0	8255	529287	0	0
2024-10-17 16:34:47			0	38884	0	0	0	21997	20570	158885	27301	1059621	46431	108084	0	0	8255	529393	0	0
2024-10-17 16:35:47			0	38840	0	0	0	21986	20580	158969	27564	1059603	46410	108080	0	0	8252	531056	0	0
2024-10-17 16:36:47			0	38827	0	0	0	21994	20580	158965	27585	1059576	46421	108083	0	0	8251	531556	0	0
2024-10-17 16:37:47			0	38810	0	0	0	21989	20580	158993	27144	1059603	46410	108081	0	0	8251	532211	0	0
2024-10-17 16:38:47			0	38819	0	0	0	21986	20570	159049	27203	1059621	46420	108080	0	0	8251	531894	0	0
2024-10-17 16:39:47			0	38790	0	0	0	21976	20570	159065	27569	1059594	46420	108076	0	0	8250	533012	0	0
2024-10-17 16:40:47			0	38770	0	0	0	21986	20560	159037	27307	1059603	46409	108080	0	0	8248	533813	0	0
2024-10-17 16:41:47			0	38792	0	0	0	21989	20570	159029	27138	1059638	46420	108081	0	0	8249	532935	0	0
2024-10-17 16:42:47			0	38803	0	0	0	21989	20560	159081	27175	1059620	46408	108081	0	0	8250	532540	0	0
2024-10-17 16:43:47			0	38827	0	0	0	21994	20560	158993	27241	1059549	46420	108083	0	0	8251	531615	0	0
2024-10-17 16:44:47			0	38851	0	0	0	21979	20580	158757	27277	1059656	46410	108077	0	0	8253	530632	0	0
2024-10-17 16:45:47			0	38875	0	0	0	21984	20560	158781	27324	1059656	46420	108079	0	0	8254	529768	0	0
2024-10-17 16:46:47			0	38868	0	0	0	21984	20570	158733	27332	1059567	46409	108079	0	0	8254	530008	0	0
2024-10-17 16:47:47			0	38870	0	0	0	21979	20560	158773	27291	1059603	46409	108077	0	0	8254	529960	0	0
2024-10-17 16:48:47			0	38866	0	0	0	21979	20570	158849	27220	1059585	46420	108077	0	0	8254	530085	0	0
2024-10-17 16:49:47			0	38878	0	0	0	21984	20560	158745	27329	1059576	46398	108079	0	0	8254	529653	0	0
2024-10-17 16:50:47			0	38844	0	0	0	21981	20560	158813	27154	1059576	46409	108078	0	0	8253	530960	0	0
2024-10-17 16:51:47			0	38846	0	0	0	21979	20550	158921	27256	1059611	46429	108077	0	0	8253	530913	0	0
2024-10-17 16:52:47			0	38863	0	0	0	21979	20560	158825	27124	1059603	46420	108077	0	0	8254	530229	0	0
2024-10-17 16:53:47			0	38890	0	0	0	21986	20570	158749	27203	1059612	46409	108080	0	0	8255	529162	0	0
2024-10-17 16:54:47			0	38877	0	0	0	21973	20560	158801	27332	1059576	46398	108075	0	0	8255	529691	0	0
2024-10-17 16:55:47			0	38877	0	0	0	21973	20560	158805	26772	1059523	46420	108075	0	0	8255	529691	0	0
2024-10-17 16:56:47			0	38905	0	0	0	21968	20560	158757	27365	1059576	46409	108073	0	0	8256	528616	0	0
2024-10-17 16:57:47			0	38883	0	0	0	21981	20550	158717	27471	1059505	46407	108078	0	0	8255	529490	0	0
2024-10-17 16:58:47			0	38897	0	0	0	21973	20550	158701	27118	1059505	46418	108075	0	0	8256	528952	0	0
2024-10-17 16:59:47			0	38901	0	0	0	21966	20560	158717	27308	1059549	46420	108072	0	0	8256	528769	0	0
2024-10-17 17:00:47			0	38866	0	0	0	21968	20560	158709	27189	1059523	46409	108073	0	0	8254	530114	0	0
2024-10-17 17:01:47			0	38863	0	0	0	21958	20550	158689	27476	1059531	46418	108069	0	0	8254	530259	0	0
2024-10-17 17:02:47			0	38867	0	0	0	21971	20550	158685	27454	1059522	46418	108074	0	0	8254	530105	0	0
2024-10-17 17:03:47			0	38866	0	0	0	21958	20560	158797	27088	1059576	46420	108069	0	0	8254	530114	0	0
2024-10-17 17:04:47			0	38870	0	0	0	21961	20560	158809	27026	1059567	46419	108070	0	0	8254	529960	0	0
2024-10-17 17:05:47			0	38883	0	0	0	21966	20560	158757	27116	1059514	46397	108072	0	0	8255	529461	0	0
2024-10-17 17:06:47			0	38872	0	0	0	21968	20540	158761	27260	1059513	46418	108073	0	0	8254	529942	0	0
2024-10-17 17:07:47			0	38878	0	0	0	21973	20550	158757	27543	1059558	46407	108075	0	0	8255	529682	0	0
2024-10-17 17:08:47			0	38877	0	0	0	21984	20550	158729	27320	1059531	46407	108079	0	0	8254	529721	0	0
2024-10-17 17:09:47			0	38890	0	0	0	21968	20560	158637	27083	1059567	46419	108073	0	0	8255	529192	0	0
2024-10-17 17:10:47			0	38907	0	0	0	21971	20550	158765	27185	1059522	46418	108074	0	0	8256	528568	0	0
2024-10-17 17:11:47			0	38896	0	0	0	21971	20550	158665	26902	1059585	46418	108074	0	0	8256	528991	0	0
2024-10-17 17:12:47			0	38890	0	0	0	21973	20540	158637	26918	1059513	46407	108075	0	0	8255	529250	0	0
2024-10-17 17:13:47			0	38882	0	0	0	21973	20550	158681	27189	1059531	46418	108075	0	0	8255	529528	0	0
2024-10-17 17:14:47			0	38888	0	0	0	21968	20550	158629	27175	1059469	46418	108073	0	0	8255	529298	0	0
2024-10-17 17:15:47			0	38897	0	0	0	21976	20560	158657	27031	1059540	46419	108076	0	0	8256	528923	0	0
2024-10-17 17:16:47			0	38878	0	0	0	21966	20550	158693	27185	1059549	46418	108072	0	0	8255	529682	0	0
2024-10-17 17:17:47			0	38879	0	0	0	21963	20550	158797	26922	1059443	46407	108071	0	0	8255	529644	0	0
2024-10-17 17:18:47			0	38890	0	0	0	21973	20540	158781	26972	1059513	46418	108075	0	0	8255	529250	0	0
2024-10-17 17:19:47			0	38907	0	0	0	21973	20550	158597	26894	1059549	46396	108075	0	0	8256	528568	0	0
2024-10-17 17:20:47			0	38926	0	0	0	21966	20530	158665	27163	1059469	46427	108072	0	0	8257	527898	0	0
2024-10-17 17:21:47			0	38933	0	0	0	21961	20550	158601	26892	1059496	46418	108070	0	0	8258	527571	0	0
2024-10-17 17:22:47			0	38957	0	0	0	21958	20540	158469	27105	1059513	46407	108069	0	0	8259	526680	0	0
2024-10-17 17:23:47			0	38981	0	0	0	21961	20540	158469	27178	1059434	46396	108070	0	0	8261	525761	0	0
2024-10-17 17:24:47			0	38994	0	0	0	21968	20530	158293	26979	1059531	46406	108073	0	0	8261	525293	0	0
2024-10-17 17:25:47			0	39006	0	0	0	21973	20530	158237	27020	1059505	46406	108075	0	0	8262	524834	0	0
2024-10-17 17:26:47			0	39015	0	0	0	21971	20550	158153	27150	1059469	46418	108074	0	0	8263	524432	0	0
2024-10-17 17:27:47			0	39049	0	0	0	21973	20550	158137	27232	1059496	46429	108075	0	0	8265	523134	0	0
2024-10-17 17:28:47			0	39003	0	0	0	21968	20540	158193	27033	1059460	46429	108073	0	0	8262	524920	0	0
2024-10-17 17:29:47			0	39009	0	0	0	21976	20550	158289	27244	1059531	46407	108076	0	0	8262	524662	0	0
2024-10-17 17:30:47			0	38988	0	0	0	21973	20550	158381	27272	1059496	46418	108075	0	0	8261	525464	0	0
2024-10-17 17:31:47			0	38970	0	0	0	21968	20540	158417	26852	1059487	46407	108073	0	0	8260	526182	0	0
2024-10-17 17:32:47			0	38967	0	0	0	21968	20540	158333	27105	1059540	46418	108073	0	0	8260	526297	0	0
2024-10-17 17:33:47			0	38958	0	0	0	21968	20540	158325	26956	1059434	46418	108073	0	0	8259	526642	0	0
2024-10-17 17:34:47			0	38952	0	0	0	21968	20540	158477	27209	1059513	46418	108073	0	0	8259	526872	0	0
2024-10-17 17:35:47			0	38937	0	0	0	21963	20550	158537	26930	1059496	46418	108071	0	0	8258	527417	0	0
2024-10-17 17:36:47			0	38923	0	0	0	21953	20540	158573	26993	1059434	46396	108067	0	0	8258	527983	0	0
2024-10-17 17:37:47			0	38918	0	0	0	21961	20540	158537	27118	1059513	46418	108070	0	0	8257	528175	0	0
2024-10-17 17:38:47			0	38905	0	0	0	21961	20530	158625	26946	1059451	46417	108070	0	0	8256	528703	0	0
2024-10-17 17:39:47			0	38911	0	0	0	21955	20540	158633	26965	1059513	46429	108068	0	0	8257	528444	0	0
2024-10-17 17:40:47			0	38883	0	0	0	21958	20550	158741	27216	1059496	46418	108069	0	0	8255	529490	0	0
2024-10-17 17:41:47			0	38887	0	0	0	21953	20520	158769	27261	1059460	46405	108067	0	0	8255	529424	0	0
2024-10-17 17:42:47			0	38881	0	0	0	21958	20530	158661	27173	1059451	46395	108069	0	0	8255	529625	0	0
2024-10-17 17:43:47			0	38870	0	0	0	21948	20530	158657	27253	1059442	46394	108065	0	0	8254	530048	0	0
2024-10-17 17:44:47			0	38888	0	0	0	21950	20540	158677	27000	1059407	46418	108066	0	0	8256	529327	0	0
2024-10-17 17:45:47			0	38884	0	0	0	21953	20530	158713	27119	1059416	46405	108067	0	0	8255	529510	0	0
2024-10-17 17:46:47			0	38889	0	0	0	21950	20520	158769	27069	1059407	46427	108066	0	0	8255	529347	0	0
2024-10-17 17:47:47			0	38893	0	0	0	21945	20510	158773	27074	1059362	46404	108064	0	0	8256	529223	0	0
2024-10-17 17:48:47			0	38902	0	0	0	21950	20520	158777	27003	1059371	46404	108066	0	0	8256	528848	0	0
2024-10-17 17:49:47			0	38895	0	0	0	21950	20520	158729	27081	1059433	46405	108066	0	0	8256	529117	0	0
2024-10-17 17:50:47			0	38882	0	0	0	21942	20520	158781	26942	1059407	46394	108063	0	0	8255	529616	0	0
2024-10-17 17:51:47			0	38890	0	0	0	21955	20510	158693	26996	1059442	46404	108068	0	0	8255	529338	0	0
2024-10-17 17:52:47			0	38898	0	0	0	21948	20530	158585	26606	1059469	46416	108065	0	0	8256	528972	0	0
2024-10-17 17:53:47			0	38885	0	0	0	21945	20520	158709	26937	1059407	46416	108064	0	0	8255	529501	0	0
2024-10-17 17:54:47			0	38897	0	0	0	21948	20520	158785	27149	1059371	46404	108065	0	0	8256	529040	0	0
2024-10-17 17:55:47			0	38890	0	0	0	21942	20520	158609	26805	1059398	46393	108063	0	0	8256	529309	0	0
2024-10-17 17:56:47			0	38891	0	0	0	21935	20530	158777	26812	1059398	46406	108060	0	0	8256	529241	0	0
2024-10-17 17:57:47			0	38882	0	0	0	21940	20520	158821	27095	1059371	46415	108062	0	0	8255	529616	0	0
2024-10-17 17:58:47			0	38849	0	0	0	21937	20510	158825	27034	1059336	46415	108061	0	0	8253	530915	0	0
2024-10-17 17:59:47			0	38869	0	0	0	21945	20520	158917	26741	1059354	46416	108064	0	0	8254	530116	0	0
2024-10-17 18:00:47			0	38848	0	0	0	21942	20510	158845	27161	1059389	46404	108063	0	0	8253	530953	0	0
2024-10-17 18:01:47			0	38824	0	0	0	21929	20510	158993	27017	1059336	46404	108058	0	0	8252	531877	0	0
2024-10-17 18:02:47			0	38816	0	0	0	21937	20520	159053	27140	1059354	46416	108061	0	0	8251	532156	0	0
2024-10-17 18:03:47			0	38819	0	0	0	21942	20520	159109	27093	1059371	46426	108063	0	0	8252	532041	0	0
2024-10-17 18:04:47			0	38839	0	0	0	21935	20510	159037	27114	1059380	46425	108060	0	0	8253	531300	0	0
2024-10-17 18:05:47			0	38827	0	0	0	21942	20510	159025	27041	1059442	46415	108063	0	0	8252	531762	0	0
2024-10-17 18:06:47			0	38834	0	0	0	21935	20510	158957	27166	1059300	46414	108060	0	0	8253	531492	0	0
2024-10-17 18:07:47			0	38843	0	0	0	21942	20510	158873	27055	1059309	46404	108063	0	0	8253	531146	0	0
2024-10-17 18:08:47			0	38844	0	0	0	21940	20500	158849	27055	1059344	46414	108062	0	0	8253	531136	0	0
2024-10-17 18:09:47			0	38854	0	0	0	21940	20510	158833	26705	1059362	46393	108062	0	0	8254	530722	0	0
2024-10-17 18:10:47			0	38837	0	0	0	21940	20500	159029	27201	1059291	46402	108062	0	0	8253	531406	0	0
2024-10-17 18:11:47			0	38756	0	0	0	21937	20500	159221	26878	1059318	46402	108061	0	0	8248	534531	0	0
2024-10-17 18:12:47			0	38683	0	0	0	21922	20510	159576	26949	1059327	46414	108055	0	0	8244	537327	0	0
2024-10-17 18:13:47			0	38657	0	0	0	21924	20510	159632	27131	1059353	46425	108056	0	0	8242	538336	0	0
2024-10-17 18:14:47			0	38659	0	0	0	21942	20510	159700	27154	1059362	46404	108063	0	0	8242	538258	0	0
2024-10-17 18:15:47			0	38644	0	0	0	21940	20500	159756	26977	1059371	46424	108062	0	0	8241	538870	0	0
2024-10-17 18:16:47			0	38629	0	0	0	21953	20500	159792	26960	1059371	46414	108067	0	0	8240	539453	0	0
2024-10-17 18:17:47			0	38625	0	0	0	21963	20500	159892	27301	1059389	46414	108071	0	0	8240	539609	0	0
2024-10-17 18:18:47			0	38596	0	0	0	21948	20510	159992	27265	1059380	46403	108065	0	0	8238	540707	0	0
2024-10-17 18:19:47			0	38604	0	0	0	21937	20510	159788	26967	1059406	46425	108061	0	0	8239	540395	0	0
2024-10-17 18:20:47			0	38591	0	0	0	21953	20520	159856	27005	1059398	46415	108067	0	0	8238	540871	0	0
2024-10-17 18:21:47			0	38598	0	0	0	21945	20510	159748	27213	1059362	46426	108064	0	0	8239	540629	0	0
2024-10-17 18:22:47			0	38620	0	0	0	21948	20520	159744	26717	1059460	46416	108065	0	0	8240	539743	0	0
2024-10-17 18:23:47			0	38634	0	0	0	21942	20520	159704	27157	1059371	46415	108063	0	0	8241	539199	0	0
2024-10-17 18:24:47			0	38636	0	0	0	21932	20510	159676	27161	1059389	46415	108059	0	0	8241	539151	0	0
2024-10-17 18:25:47			0	38658	0	0	0	21929	20510	159600	26819	1059380	46392	108058	0	0	8242	538297	0	0
2024-10-17 18:26:47			0	38691	0	0	0	21929	20520	159548	26941	1059398	46393	108058	0	0	8244	536987	0	0
2024-10-17 18:27:47			0	38692	0	0	0	21929	20500	159532	26819	1059344	46414	108058	0	0	8244	537008	0	0
2024-10-17 18:28:47			0	38682	0	0	0	21922	20490	159512	26960	1059353	46402	108055	0	0	8244	537425	0	0
2024-10-17 18:29:47			0	38683	0	0	0	21924	20510	159572	27000	1059336	46404	108056	0	0	8244	537327	0	0
2024-10-17 18:30:47			0	38671	0	0	0	21929	20510	159512	27154	1059300	46403	108058	0	0	8243	537793	0	0
2024-10-17 18:31:47			0	38678	0	0	0	21924	20500	159556	26989	1059335	46402	108056	0	0	8244	537551	0	0
2024-10-17 18:32:47			0	38647	0	0	0	21914	20500	159688	27085	1059318	46414	108052	0	0	8242	538754	0	0
2024-10-17 18:33:47			0	38628	0	0	0	21914	20500	159792	27010	1059291	46402	108052	0	0	8241	539492	0	0
2024-10-17 18:34:47			0	38628	0	0	0	21914	20500	159876	26906	1059309	46391	108052	0	0	8241	539492	0	0
2024-10-17 18:35:47			0	38606	0	0	0	21914	20490	159816	27005	1059273	46402	108052	0	0	8240	540377	0	0
2024-10-17 18:36:47			0	38611	0	0	0	21901	20500	159872	27145	1059282	46402	108047	0	0	8240	540153	0	0
2024-10-17 18:37:47			0	38584	0	0	0	21919	20490	160016	26882	1059264	46412	108054	0	0	8238	541234	0	0
2024-10-17 18:38:47			0	38568	0	0	0	21914	20490	160072	26863	1059211	46401	108052	0	0	8237	541857	0	0
2024-10-17 18:39:47			0	38554	0	0	0	21911	20490	160200	27097	1059300	46402	108051	0	0	8237	542403	0	0
2024-10-17 18:40:47			0	38540	0	0	0	21916	20490	160136	27199	1059264	46412	108053	0	0	8236	542949	0	0
2024-10-17 18:41:47			0	38529	0	0	0	21916	20490	160088	27017	1059264	46412	108053	0	0	8235	543378	0	0
2024-10-17 18:42:47			0	38542	0	0	0	21919	20490	160072	27033	1059238	46401	108054	0	0	8236	542871	0	0
2024-10-17 18:43:47			0	38529	0	0	0	21916	20490	160144	26923	1059291	46412	108053	0	0	8235	543378	0	0
2024-10-17 18:44:47			0	38556	0	0	0	21914	20490	160020	27180	1059291	46401	108052	0	0	8237	542325	0	0
2024-10-17 18:45:47			0	38557	0	0	0	21911	20480	160036	27048	1059255	46400	108051	0	0	8237	542316	0	0
2024-10-17 18:46:47			0	38559	0	0	0	21919	20490	160108	26731	1059291	46423	108054	0	0	8237	542208	0	0
2024-10-17 18:47:47			0	38554	0	0	0	21919	20460	160000	27170	1059219	46420	108054	0	0	8236	542493	0	0
2024-10-17 18:48:47			0	38567	0	0	0	21922	20490	160140	27185	1059291	46434	108055	0	0	8237	541896	0	0
2024-10-17 18:49:47			0	38559	0	0	0	21914	20480	160036	26887	1059220	46400	108052	0	0	8237	542238	0	0
2024-10-17 18:50:47			0	38583	0	0	0	21916	20480	159980	26790	1059255	46400	108053	0	0	8238	541302	0	0
2024-10-17 18:51:47			0	38586	0	0	0	21929	20490	159972	26856	1059220	46414	108058	0	0	8238	541156	0	0
2024-10-17 18:52:47			0	38604	0	0	0	21922	20490	159936	27057	1059264	46412	108055	0	0	8239	540455	0	0
2024-10-17 18:53:47			0	38604	0	0	0	21924	20470	159940	27256	1059237	46411	108056	0	0	8239	540515	0	0
2024-10-17 18:54:47			0	38613	0	0	0	21927	20470	159900	27149	1059281	46410	108057	0	0	8240	540165	0	0
2024-10-17 18:55:47			0	38607	0	0	0	21932	20490	159776	27227	1059317	46412	108059	0	0	8239	540338	0	0
2024-10-17 18:56:47			0	38640	0	0	0	21932	20490	159736	26901	1059300	46402	108059	0	0	8241	539056	0	0
2024-10-17 18:57:47			0	38630	0	0	0	21924	20490	159792	27114	1059291	46401	108056	0	0	8241	539444	0	0
2024-10-17 18:58:47			0	38613	0	0	0	21919	20500	159796	27071	1059282	46414	108054	0	0	8240	540075	0	0
2024-10-17 18:59:47			0	38621	0	0	0	21927	20480	159908	27036	1059308	46411	108057	0	0	8240	539824	0	0
2024-10-17 19:00:47			0	38611	0	0	0	21916	20490	159928	26769	1059344	46401	108053	0	0	8240	540183	0	0
2024-10-17 19:01:47			0	38617	0	0	0	21919	20490	159800	26927	1059273	46414	108054	0	0	8240	539949	0	0
2024-10-17 19:02:47			0	38590	0	0	0	21922	20490	159876	26687	1059344	46401	108055	0	0	8238	541000	0	0
2024-10-17 19:03:47			0	38614	0	0	0	21922	20490	159900	26757	1059291	46423	108055	0	0	8240	540066	0	0
2024-10-17 19:04:47			0	38617	0	0	0	21927	20490	159780	27069	1059300	46414	108057	0	0	8240	539949	0	0
2024-10-17 19:05:47			0	38622	0	0	0	21922	20500	159884	26819	1059282	46414	108055	0	0	8240	539725	0	0
2024-10-17 19:06:47			0	38620	0	0	0	21922	20490	159764	27022	1059326	46414	108055	0	0	8240	539833	0	0
2024-10-17 19:07:47			0	38618	0	0	0	21922	20500	159804	26986	1059282	46402	108055	0	0	8240	539881	0	0
2024-10-17 19:08:47			0	38628	0	0	0	21924	20490	159832	27104	1059264	46423	108056	0	0	8241	539522	0	0
2024-10-17 19:09:47			0	38621	0	0	0	21911	20490	159988	27140	1059300	46414	108051	0	0	8240	539794	0	0
2024-10-17 19:10:47			0	38589	0	0	0	21914	20490	159932	26752	1059353	46414	108052	0	0	8239	541039	0	0
2024-10-17 19:11:47			0	38591	0	0	0	21906	20480	160072	27024	1059282	46400	108049	0	0	8239	540991	0	0
2024-10-17 19:12:47			0	38578	0	0	0	21893	20500	159932	27097	1059309	46414	108044	0	0	8238	541437	0	0
2024-10-17 19:13:47			0	38558	0	0	0	21896	20480	160020	27045	1059202	46400	108045	0	0	8237	542277	0	0
2024-10-17 19:14:47			0	38554	0	0	0	21893	20480	160100	27069	1059202	46422	108044	0	0	8237	542433	0	0
2024-10-17 19:15:47			0	38545	0	0	0	21896	20480	160120	27050	1059229	46389	108045	0	0	8236	542784	0	0
2024-10-17 19:16:47			0	38539	0	0	0	21888	20470	160116	26908	1059202	46388	108042	0	0	8236	543048	0	0
2024-10-17 19:17:47			0	38521	0	0	0	21885	20460	160244	26949	1059104	46387	108041	0	0	8235	543780	0	0
2024-10-17 19:18:47			0	38521	0	0	0	21890	20480	160272	26906	1059202	46411	108043	0	0	8235	543720	0	0
2024-10-17 19:19:47			0	38501	0	0	0	21883	20460	160156	26998	1059157	46398	108040	0	0	8234	544562	0	0
2024-10-17 19:20:47			0	38512	0	0	0	21880	20470	160228	27059	1059148	46410	108039	0	0	8235	544102	0	0
2024-10-17 19:21:47			0	38522	0	0	0	21875	20470	160372	27131	1059202	46388	108037	0	0	8235	543711	0	0
2024-10-17 19:22:47			0	38490	0	0	0	21880	20460	160428	26875	1059157	46387	108039	0	0	8233	544992	0	0
2024-10-17 19:23:47			0	38504	0	0	0	21877	20450	160332	27145	1059121	46420	108038	0	0	8234	544475	0	0
2024-10-17 19:24:47			0	38505	0	0	0	21875	20450	160328	26790	1059095	46387	108037	0	0	8234	544436	0	0
2024-10-17 19:25:47			0	38489	0	0	0	21877	20450	160388	26864	1059095	46387	108038	0	0	8233	545061	0	0
2024-10-17 19:26:47			0	38489	0	0	0	21875	20460	160272	27052	1059050	46398	108037	0	0	8233	545031	0	0
2024-10-17 19:27:47			0	38504	0	0	0	21872	20450	160232	27111	1059068	46398	108036	0	0	8234	544475	0	0
2024-10-17 19:28:47			0	38500	0	0	0	21870	20460	160372	27147	1059130	46387	108035	0	0	8234	544601	0	0
2024-10-17 19:29:47			0	38485	0	0	0	21859	20450	160400	27046	1059068	46409	108031	0	0	8233	545218	0	0
2024-10-17 19:30:47			0	38512	0	0	0	21867	20450	160292	26838	1059086	46397	108034	0	0	8235	544162	0	0
2024-10-17 19:31:47			0	38503	0	0	0	21854	20450	160304	27027	1059086	46408	108029	0	0	8234	544514	0	0
2024-10-17 19:32:47			0	38518	0	0	0	21854	20450	160240	27159	1059032	46419	108029	0	0	8235	543928	0	0
2024-10-17 19:33:47			0	38518	0	0	0	21862	20440	160340	27057	1059023	46407	108032	0	0	8235	543958	0	0
2024-10-17 19:34:47			0	38517	0	0	0	21849	20440	160280	27348	1059041	46395	108027	0	0	8235	543997	0	0
2024-10-17 19:35:47			0	38531	0	0	0	21846	20430	160168	27201	1059006	46395	108026	0	0	8236	543480	0	0
2024-10-17 19:36:47			0	38525	0	0	0	21867	20440	160264	26925	1059015	46406	108034	0	0	8235	543684	0	0
2024-10-17 19:37:47			0	38524	0	0	0	21864	20430	160236	27126	1058997	46395	108033	0	0	8235	543754	0	0
2024-10-17 19:38:47			0	38513	0	0	0	21864	20440	160308	27088	1059023	46396	108033	0	0	8235	544153	0	0
2024-10-17 19:39:47			0	38526	0	0	0	21859	20440	160340	27175	1059041	46406	108031	0	0	8236	543645	0	0
2024-10-17 19:40:47			0	38504	0	0	0	21851	20430	160244	26889	1058952	46406	108028	0	0	8234	544535	0	0
2024-10-17 19:41:47			0	38504	0	0	0	21851	20430	160288	26757	1059059	46395	108028	0	0	8234	544535	0	0
2024-10-17 19:42:47			0	38514	0	0	0	21846	20430	160312	27078	1059006	46395	108026	0	0	8235	544144	0	0
2024-10-17 19:43:47			0	38492	0	0	0	21849	20430	160424	27053	1059023	46395	108027	0	0	8234	545004	0	0
2024-10-17 19:44:47			0	38492	0	0	0	21846	20430	160364	26986	1058943	46395	108026	0	0	8234	545004	0	0
2024-10-17 19:45:47			0	38503	0	0	0	21844	20430	160428	27147	1058899	46406	108025	0	0	8234	544574	0	0
2024-10-17 19:46:47			0	38495	0	0	0	21846	20420	160276	26861	1058988	46394	108026	0	0	8234	544917	0	0
2024-10-17 19:47:47			0	38492	0	0	0	21849	20420	160412	27001	1058925	46416	108027	0	0	8234	545034	0	0
2024-10-17 19:48:47			0	38478	0	0	0	21846	20410	160392	27124	1058916	46416	108026	0	0	8233	545612	0	0
2024-10-17 19:49:47			0	38467	0	0	0	21836	20420	160372	27111	1058908	46427	108022	0	0	8232	546013	0	0
2024-10-17 19:50:47			0	38449	0	0	0	21849	20420	160464	27185	1058934	46394	108027	0	0	8231	546718	0	0
2024-10-17 19:51:47			0	38463	0	0	0	21846	20410	160400	27287	1058863	46416	108026	0	0	8232	546200	0	0
2024-10-17 19:52:47			0	38467	0	0	0	21833	20410	160448	27261	1058960	46393	108021	0	0	8232	546043	0	0
2024-10-17 19:53:47			0	38457	0	0	0	21838	20430	160460	27149	1058917	46406	108023	0	0	8232	546374	0	0
2024-10-17 19:54:47			0	38461	0	0	0	21820	20400	160444	26918	1058872	46403	108016	0	0	8232	546308	0	0
2024-10-17 19:55:47			0	38454	0	0	0	21823	20420	160440	27097	1058908	46394	108017	0	0	8232	546522	0	0
2024-10-17 19:56:47			0	38464	0	0	0	21831	20410	160444	26870	1058881	46404	108020	0	0	8232	546160	0	0
2024-10-17 19:57:47			0	38452	0	0	0	21825	20410	160432	27012	1058854	46404	108018	0	0	8232	546630	0	0
2024-10-17 19:58:47			0	38467	0	0	0	21820	20410	160552	27010	1058881	46382	108016	0	0	8233	546043	0	0
2024-10-17 19:59:47			0	38467	0	0	0	21828	20400	160520	26972	1058845	46392	108019	0	0	8232	546073	0	0
2024-10-17 20:00:47			0	38472	0	0	0	21831	20410	160524	27213	1058854	46393	108020	0	0	8233	545847	0	0
2024-10-17 20:01:47			0	38472	0	0	0	21836	20400	160424	26927	1058898	46414	108022	0	0	8233	545877	0	0
2024-10-17 20:02:47			0	38474	0	0	0	21836	20410	160476	26939	1058854	46404	108022	0	0	8233	545769	0	0
2024-10-17 20:03:47			0	38471	0	0	0	21833	20400	160544	27255	1058863	46414	108021	0	0	8233	545916	0	0
2024-10-17 20:04:47			0	38456	0	0	0	21823	20410	160420	27253	1058854	46404	108017	0	0	8232	546474	0	0
2024-10-17 20:05:47			0	38468	0	0	0	21828	20400	160560	27007	1058845	46392	108019	0	0	8233	546034	0	0
2024-10-17 20:06:47			0	38455	0	0	0	21825	20390	160448	27220	1058854	46402	108018	0	0	8232	546573	0	0
2024-10-17 20:07:47			0	38464	0	0	0	21823	20400	160480	27118	1058792	46392	108017	0	0	8232	546191	0	0
2024-10-17 20:08:47			0	38457	0	0	0	21831	20400	160540	27237	1058809	46424	108020	0	0	8232	546465	0	0
2024-10-17 20:09:47			0	38448	0	0	0	21825	20390	160648	26868	1058818	46402	108018	0	0	8231	546848	0	0
2024-10-17 20:10:47			0	38448	0	0	0	21828	20400	160640	27157	1058818	46392	108019	0	0	8231	546817	0	0
2024-10-17 20:11:47			0	38458	0	0	0	21820	20400	160580	26883	1058836	46402	108016	0	0	8232	546426	0	0
2024-10-17 20:12:47			0	38454	0	0	0	21828	20390	160648	27081	1058854	46402	108019	0	0	8232	546613	0	0
2024-10-17 20:13:47			0	38464	0	0	0	21823	20390	160620	26944	1058845	46414	108017	0	0	8232	546221	0	0
2024-10-17 20:14:47			0	38448	0	0	0	21825	20390	160688	27057	1058871	46414	108018	0	0	8231	546848	0	0
2024-10-17 20:15:47			0	38436	0	0	0	21831	20400	160724	26904	1058809	46391	108020	0	0	8231	547288	0	0
2024-10-17 20:16:47			0	38436	0	0	0	21833	20400	160636	27133	1058809	46414	108021	0	0	8231	547288	0	0
2024-10-17 20:17:47			0	38448	0	0	0	21841	20390	160600	26955	1058827	46414	108024	0	0	8231	546848	0	0
2024-10-17 20:18:47			0	38453	0	0	0	21841	20400	160612	27034	1058818	46403	108024	0	0	8231	546621	0	0
2024-10-17 20:19:47			0	38460	0	0	0	21846	20390	160676	27050	1058845	46402	108026	0	0	8232	546377	0	0
2024-10-17 20:20:47			0	38467	0	0	0	21849	20410	160632	27159	1058907	46404	108027	0	0	8232	546043	0	0
2024-10-17 20:21:47			0	38457	0	0	0	21841	20400	160540	27303	1058863	46414	108024	0	0	8232	546465	0	0
2024-10-17 20:22:47			0	38469	0	0	0	21838	20400	160600	27090	1058836	46414	108023	0	0	8232	545995	0	0
2024-10-17 20:23:47			0	38470	0	0	0	21846	20400	160564	26987	1058951	46403	108026	0	0	8232	545956	0	0
2024-10-17 20:24:47			0	38474	0	0	0	21833	20400	160460	27015	1058872	46425	108021	0	0	8233	545799	0	0
2024-10-17 20:25:47			0	38483	0	0	0	21846	20400	160504	27161	1058836	46402	108026	0	0	8233	545447	0	0
2024-10-17 20:26:47			0	38464	0	0	0	21844	20400	160444	27043	1058863	46402	108025	0	0	8232	546191	0	0
2024-10-17 20:27:47			0	38474	0	0	0	21851	20400	160504	27137	1058872	46403	108028	0	0	8232	545799	0	0
2024-10-17 20:28:47			0	38478	0	0	0	21849	20410	160496	26951	1058907	46404	108027	0	0	8233	545612	0	0
2024-10-17 20:29:47			0	38469	0	0	0	21857	20400	160548	27175	1058872	46414	108030	0	0	8232	545995	0	0
2024-10-17 20:30:47			0	38484	0	0	0	21859	20400	160488	26932	1058889	46414	108031	0	0	8233	545407	0	0
2024-10-17 20:31:47			0	38473	0	0	0	21862	20410	160584	26762	1058890	46404	108032	0	0	8232	545808	0	0
2024-10-17 20:32:47			0	38469	0	0	0	21872	20410	160492	27111	1058881	46416	108036	0	0	8232	545965	0	0
2024-10-17 20:33:47			0	38474	0	0	0	21875	20410	160424	26599	1058960	46416	108037	0	0	8232	545769	0	0
2024-10-17 20:34:47			0	38481	0	0	0	21875	20410	160424	26968	1058996	46416	108037	0	0	8233	545495	0	0
2024-10-17 20:35:47			0	38480	0	0	0	21875	20410	160544	26793	1058969	46404	108037	0	0	8232	545534	0	0
2024-10-17 20:36:47			0	38475	0	0	0	21877	20420	160468	27275	1059005	46404	108038	0	0	8232	545700	0	0
2024-10-17 20:37:47			0	38466	0	0	0	21880	20420	160580	26805	1059014	46416	108039	0	0	8232	546052	0	0
2024-10-17 20:38:47			0	38488	0	0	0	21885	20430	160396	26809	1059023	46417	108041	0	0	8233	545161	0	0
2024-10-17 20:39:47			0	38469	0	0	0	21877	20420	160516	26887	1059067	46405	108038	0	0	8232	545934	0	0
2024-10-17 20:40:47			0	38479	0	0	0	21883	20430	160440	26930	1059006	46417	108040	0	0	8232	545513	0	0
2024-10-17 20:41:47			0	38467	0	0	0	21880	20430	160564	27066	1058997	46406	108039	0	0	8232	545983	0	0
2024-10-17 20:42:47			0	38473	0	0	0	21877	20430	160580	27211	1059032	46417	108038	0	0	8232	545748	0	0
2024-10-17 20:43:47			0	38457	0	0	0	21870	20430	160564	27114	1059006	46406	108035	0	0	8231	546374	0	0
2024-10-17 20:44:47			0	38462	0	0	0	21857	20430	160584	27029	1059032	46417	108030	0	0	8232	546178	0	0
2024-10-17 20:45:47			0	38437	0	0	0	21851	20430	160452	27005	1059032	46395	108028	0	0	8230	547158	0	0
2024-10-17 20:46:47			0	38442	0	0	0	21849	20420	160588	26934	1059014	46394	108027	0	0	8231	546992	0	0
2024-10-17 20:47:47			0	38433	0	0	0	21846	20420	160588	27079	1058988	46394	108026	0	0	8230	547345	0	0
2024-10-17 20:48:47			0	38426	0	0	0	21846	20420	160688	27313	1058908	46394	108026	0	0	8230	547620	0	0
2024-10-17 20:49:47			0	38453	0	0	0	21857	20420	160772	27168	1059014	46394	108030	0	0	8231	546561	0	0
2024-10-17 20:50:47			0	38441	0	0	0	21872	20420	160716	26710	1059014	46416	108036	0	0	8230	547031	0	0
2024-10-17 20:51:47			0	38425	0	0	0	21864	20410	160816	27039	1058916	46416	108033	0	0	8229	547689	0	0
2024-10-17 20:52:47			0	38419	0	0	0	21870	20420	160692	27092	1059014	46405	108035	0	0	8229	547894	0	0
2024-10-17 20:53:47			0	38420	0	0	0	21851	20430	160656	27097	1059023	46395	108028	0	0	8229	547825	0	0
2024-10-17 20:54:47			0	38434	0	0	0	21851	20420	160744	27041	1058979	46404	108028	0	0	8230	547306	0	0
2024-10-17 20:55:47			0	38426	0	0	0	21851	20410	160736	27229	1058996	46404	108028	0	0	8230	547650	0	0
2024-10-17 20:56:47			0	38416	0	0	0	21857	20420	160772	27026	1058925	46404	108030	0	0	8229	548012	0	0
2024-10-17 20:57:47			0	38374	0	0	0	21857	20430	160888	27209	1058997	46428	108030	0	0	8227	549631	0	0
2024-10-17 20:58:47			0	38356	0	0	0	21849	20420	160976	27043	1058934	46405	108027	0	0	8226	550370	0	0
2024-10-17 20:59:47			0	38326	0	0	0	21846	20420	161236	26871	1058934	46416	108026	0	0	8224	551551	0	0
2024-10-17 21:00:47			0	38329	0	0	0	21846	20430	161292	27156	1058926	46406	108026	0	0	8224	551402	0	0
2024-10-17 21:01:47			0	38304	0	0	0	21851	20420	161256	27168	1059014	46416	108028	0	0	8223	552418	0	0
2024-10-17 21:02:47			0	38292	0	0	0	21857	20410	161204	26840	1058996	46404	108030	0	0	8222	552922	0	0
2024-10-17 21:03:47			0	38285	0	0	0	21854	20410	161180	27052	1058969	46416	108029	0	0	8221	553198	0	0
2024-10-17 21:04:47			0	38292	0	0	0	21854	20420	161288	27107	1058979	46404	108029	0	0	8222	552892	0	0
2024-10-17 21:05:47			0	38292	0	0	0	21854	20420	161244	26863	1059014	46416	108029	0	0	8222	552892	0	0
2024-10-17 21:06:47			0	38299	0	0	0	21846	20420	161220	27187	1058979	46404	108026	0	0	8222	552616	0	0
2024-10-17 21:07:47			0	38304	0	0	0	21841	20420	161152	26842	1058979	46416	108024	0	0	8223	552418	0	0
2024-10-17 21:08:47			0	38296	0	0	0	21841	20410	161232	27104	1058890	46404	108024	0	0	8222	552764	0	0
2024-10-17 21:09:47			0	38299	0	0	0	21836	20420	161288	27357	1058925	46404	108022	0	0	8223	552616	0	0
2024-10-17 21:10:47			0	38282	0	0	0	21825	20420	161160	26911	1058979	46393	108018	0	0	8222	553286	0	0
2024-10-17 21:11:47			0	38302	0	0	0	21823	20410	161324	27137	1058969	46404	108017	0	0	8223	552528	0	0
2024-10-17 21:12:47			0	38327	0	0	0	21802	20420	161152	27393	1058881	46416	108009	0	0	8225	551512	0	0
2024-10-17 21:13:47			0	38357	0	0	0	21786	20410	161016	27024	1058907	46393	108003	0	0	8227	550361	0	0
2024-10-17 21:14:47			0	38357	0	0	0	21781	20410	160956	27137	1058890	46382	108001	0	0	8227	550361	0	0
2024-10-17 21:15:47			0	38389	0	0	0	21774	20410	161064	27150	1058827	46404	107998	0	0	8229	549103	0	0
2024-10-17 21:16:47			0	38390	0	0	0	21768	20390	160828	27215	1058827	46370	107996	0	0	8229	549124	0	0
2024-10-17 21:17:47			0	38393	0	0	0	21771	20390	160872	27180	1058774	46380	107997	0	0	8229	549006	0	0
2024-10-17 21:18:47			0	38390	0	0	0	21768	20390	160888	27294	1058765	46370	107996	0	0	8229	549124	0	0
2024-10-17 21:19:47			0	38397	0	0	0	21781	20380	160872	27216	1058756	46379	108001	0	0	8229	548879	0	0
2024-10-17 21:20:47			0	38395	0	0	0	21776	20390	160836	27007	1058765	46402	107999	0	0	8229	548928	0	0
2024-10-17 21:21:47			0	38392	0	0	0	21774	20370	160856	26968	1058685	46388	107998	0	0	8229	549106	0	0
2024-10-17 21:22:47			0	38406	0	0	0	21781	20380	160876	27381	1058614	46378	108001	0	0	8230	548526	0	0
2024-10-17 21:23:47			0	38386	0	0	0	21774	20370	160852	27126	1058649	46399	107998	0	0	8228	549342	0	0
2024-10-17 21:24:47			0	38385	0	0	0	21776	20370	160780	27346	1058623	46399	107999	0	0	8228	549381	0	0
2024-10-17 21:25:47			0	38388	0	0	0	21766	20360	160860	27156	1058587	46399	107995	0	0	8229	549294	0	0
2024-10-17 21:26:47			0	38390	0	0	0	21779	20350	160848	26993	1058543	46397	108000	0	0	8229	549245	0	0
2024-10-17 21:27:47			0	38398	0	0	0	21776	20360	160880	27180	1058667	46388	107999	0	0	8229	548901	0	0
2024-10-17 21:28:47			0	38382	0	0	0	21774	20370	160816	26948	1058569	46399	107998	0	0	8228	549499	0	0
2024-10-17 21:29:47			0	38383	0	0	0	21771	20360	160804	27300	1058552	46387	107997	0	0	8228	549490	0	0
2024-10-17 21:30:47			0	38393	0	0	0	21768	20360	160844	27005	1058578	46398	107996	0	0	8229	549097	0	0
2024-10-17 21:31:47			0	38377	0	0	0	21768	20340	160932	27043	1058578	46397	107996	0	0	8228	549787	0	0
2024-10-17 21:32:47			0	38384	0	0	0	21771	20360	160920	27116	1058640	46388	107997	0	0	8228	549451	0	0
2024-10-17 21:33:47			0	38358	0	0	0	21766	20350	160996	27033	1058569	46397	107995	0	0	8227	550504	0	0
2024-10-17 21:34:47			0	38384	0	0	0	21753	20340	160948	27350	1058525	46397	107990	0	0	8229	549512	0	0
2024-10-17 21:35:47			0	38372	0	0	0	21737	20360	160856	27246	1058614	46410	107984	0	0	8228	549923	0	0
2024-10-17 21:36:47			0	38372	0	0	0	21745	20340	160940	27348	1058515	46396	107987	0	0	8228	549983	0	0
2024-10-17 21:37:47			0	38358	0	0	0	21737	20340	160920	27119	1058578	46386	107984	0	0	8227	550534	0	0
2024-10-17 21:38:47			0	38375	0	0	0	21729	20340	160896	27620	1058489	46385	107981	0	0	8228	549865	0	0
2024-10-17 21:39:47			0	38361	0	0	0	21737	20340	160916	27098	1058471	46386	107984	0	0	8228	550416	0	0
2024-10-17 21:40:47			0	38368	0	0	0	21732	20340	160920	27284	1058436	46396	107982	0	0	8228	550141	0	0
2024-10-17 21:41:47			0	38369	0	0	0	21727	20330	160920	27109	1058418	46384	107980	0	0	8228	550132	0	0
2024-10-17 21:42:47			0	38373	0	0	0	21735	20320	160920	27208	1058409	46395	107983	0	0	8228	550005	0	0
2024-10-17 21:43:47			0	38381	0	0	0	21724	20320	160992	27086	1058435	46395	107979	0	0	8229	549690	0	0
2024-10-17 21:44:47			0	38372	0	0	0	21716	20320	160976	27026	1058426	46394	107976	0	0	8228	550044	0	0
2024-10-17 21:45:47			0	38380	0	0	0	21709	20310	160956	27286	1058391	46404	107973	0	0	8229	549760	0	0
2024-10-17 21:46:47			0	38390	0	0	0	21693	20320	160864	26991	1058462	46384	107967	0	0	8230	549336	0	0
2024-10-17 21:47:47			0	38388	0	0	0	21690	20310	160880	27133	1058355	46371	107966	0	0	8230	549445	0	0
2024-10-17 21:48:47			0	38381	0	0	0	21696	20300	160896	27474	1058293	46381	107968	0	0	8229	549751	0	0
2024-10-17 21:49:47			0	38396	0	0	0	21709	20300	160872	27367	1058311	46381	107973	0	0	8230	549161	0	0
2024-10-17 21:50:47			0	38392	0	0	0	21703	20300	160840	27310	1058311	46371	107971	0	0	8230	549318	0	0
2024-10-17 21:51:47			0	38375	0	0	0	21698	20290	160960	27345	1058302	46370	107969	0	0	8229	550017	0	0
2024-10-17 21:52:47			0	38388	0	0	0	21701	20290	160976	27053	1058266	46379	107970	0	0	8229	549506	0	0
2024-10-17 21:53:47			0	38388	0	0	0	21683	20300	160952	27201	1058373	46381	107963	0	0	8230	549476	0	0
2024-10-17 21:54:47			0	38385	0	0	0	21683	20290	161088	27249	1058319	46379	107963	0	0	8230	549624	0	0
2024-10-17 21:55:47			0	38369	0	0	0	21693	20290	160972	27116	1058266	46379	107967	0	0	8229	550253	0	0
2024-10-17 21:56:47			0	38381	0	0	0	21680	20290	160944	27033	1058266	46390	107962	0	0	8229	549781	0	0
2024-10-17 21:57:47			0	38378	0	0	0	21677	20280	160860	27296	1058337	46379	107961	0	0	8229	549930	0	0
2024-10-17 21:58:47			0	38363	0	0	0	21672	20280	160832	27171	1058204	46369	107959	0	0	8228	550520	0	0
2024-10-17 21:59:47			0	38371	0	0	0	21670	20270	161048	27324	1058177	46367	107958	0	0	8229	550236	0	0
2024-10-17 22:00:47			0	38370	0	0	0	21664	20270	161032	27176	1058186	46378	107956	0	0	8229	550275	0	0
2024-10-17 22:01:47			0	38352	0	0	0	21664	20270	161004	27105	1058159	46378	107956	0	0	8228	550984	0	0
2024-10-17 22:02:47			0	38352	0	0	0	21662	20270	161048	27407	1058177	46367	107955	0	0	8228	550984	0	0
2024-10-17 22:03:47			0	38353	0	0	0	21657	20270	161048	27048	1058186	46378	107953	0	0	8228	550944	0	0
2024-10-17 22:04:47			0	38370	0	0	0	21649	20260	160996	27163	1058141	46388	107950	0	0	8229	550305	0	0
2024-10-17 22:05:47			0	38352	0	0	0	21662	20240	161028	27067	1058115	46375	107955	0	0	8228	551075	0	0
2024-10-17 22:06:47			0	38349	0	0	0	21657	20240	161128	27008	1058061	46375	107953	0	0	8228	551193	0	0
2024-10-17 22:07:47			0	38353	0	0	0	21657	20250	161112	27126	1058097	46376	107953	0	0	8228	551005	0	0
2024-10-17 22:08:47			0	38352	0	0	0	21664	20250	161128	26819	1058097	46387	107956	0	0	8228	551044	0	0
2024-10-17 22:09:47			0	38354	0	0	0	21659	20240	161256	27384	1058141	46397	107954	0	0	8228	550996	0	0
2024-10-17 22:10:47			0	38348	0	0	0	21651	20240	161084	27204	1058106	46385	107951	0	0	8228	551232	0	0
2024-10-17 22:11:47			0	38345	0	0	0	21644	20250	161176	26996	1058070	46366	107948	0	0	8228	551320	0	0
2024-10-17 22:12:47			0	38356	0	0	0	21649	20230	161160	27142	1058070	46375	107950	0	0	8228	550948	0	0
2024-10-17 22:13:47			0	38349	0	0	0	21651	20250	161076	27131	1058044	46376	107951	0	0	8228	551163	0	0
2024-10-17 22:14:47			0	38339	0	0	0	21654	20240	161100	26956	1058052	46385	107952	0	0	8227	551587	0	0
2024-10-17 22:15:47			0	38355	0	0	0	21641	20240	161108	27100	1058088	46375	107947	0	0	8228	550957	0	0
2024-10-17 22:16:47			0	38342	0	0	0	21646	20230	161060	27069	1058070	46375	107949	0	0	8227	551499	0	0
2024-10-17 22:17:47			0	38330	0	0	0	21654	20230	161224	27251	1058088	46396	107952	0	0	8227	551972	0	0
2024-10-17 22:18:47			0	38334	0	0	0	21651	20230	161260	26949	1058035	46396	107951	0	0	8227	551815	0	0
2024-10-17 22:19:47			0	38341	0	0	0	21654	20230	161188	26956	1058008	46385	107952	0	0	8227	551539	0	0
2024-10-17 22:20:47			0	38316	0	0	0	21657	20220	161180	27007	1058052	46384	107953	0	0	8226	552555	0	0
2024-10-17 22:21:47			0	38326	0	0	0	21654	20230	161132	27161	1058008	46396	107952	0	0	8226	552130	0	0
2024-10-17 22:22:47			0	38341	0	0	0	21657	20230	161140	26625	1058044	46385	107953	0	0	8227	551539	0	0
2024-10-17 22:23:47			0	38323	0	0	0	21654	20230	161144	27005	1058061	46375	107952	0	0	8226	552248	0	0
2024-10-17 22:24:47			0	38337	0	0	0	21657	20220	161212	26847	1057972	46395	107953	0	0	8227	551727	0	0
2024-10-17 22:25:47			0	38340	0	0	0	21657	20230	161140	27339	1058088	46385	107953	0	0	8227	551578	0	0
2024-10-17 22:26:47			0	38313	0	0	0	21664	20220	161196	26923	1058026	46384	107956	0	0	8225	552674	0	0
2024-10-17 22:27:47			0	38327	0	0	0	21654	20230	161164	26901	1058061	46396	107952	0	0	8226	552091	0	0
2024-10-17 22:28:47			0	38325	0	0	0	21659	20230	161284	26857	1058061	46385	107954	0	0	8226	552170	0	0
2024-10-17 22:29:47			0	38306	0	0	0	21677	20220	161372	27097	1058079	46374	107961	0	0	8225	552950	0	0
2024-10-17 22:30:47			0	38318	0	0	0	21680	20230	161320	26797	1058088	46385	107962	0	0	8225	552446	0	0
2024-10-17 22:31:47			0	38314	0	0	0	21693	20230	161360	27308	1058061	46375	107967	0	0	8225	552604	0	0
2024-10-17 22:32:47			0	38315	0	0	0	21693	20240	161340	26944	1058159	46396	107967	0	0	8225	552534	0	0
2024-10-17 22:33:47			0	38319	0	0	0	21703	20230	161456	27024	1058150	46407	107971	0	0	8225	552406	0	0
2024-10-17 22:34:47			0	38307	0	0	0	21724	20240	161412	27294	1058168	46365	107979	0	0	8224	552849	0	0
2024-10-17 22:35:47			0	38294	0	0	0	21724	20250	161544	27355	1058203	46409	107979	0	0	8223	553332	0	0
2024-10-17 22:36:47			0	38269	0	0	0	21727	20240	161616	27289	1058194	46397	107980	0	0	8222	554351	0	0
2024-10-17 22:37:47			0	38243	0	0	0	21729	20260	161624	26814	1058266	46388	107981	0	0	8220	555318	0	0
2024-10-17 22:38:47			0	38243	0	0	0	21729	20250	161648	26960	1058230	46387	107981	0	0	8220	555349	0	0
2024-10-17 22:39:47			0	38225	0	0	0	21722	20260	161512	27215	1058248	46388	107978	0	0	8219	556031	0	0
2024-10-17 22:40:47			0	38206	0	0	0	21719	20270	161600	27163	1058283	46399	107977	0	0	8218	556753	0	0
2024-10-17 22:41:47			0	38220	0	0	0	21724	20280	161656	27350	1058284	46390	107979	0	0	8219	556167	0	0
2024-10-17 22:42:47			0	38224	0	0	0	21719	20270	161668	27277	1058239	46400	107977	0	0	8219	556040	0	0
2024-10-17 22:43:47			0	38200	0	0	0	21735	20270	161668	27170	1058283	46388	107983	0	0	8218	556991	0	0
2024-10-17 22:44:47			0	38213	0	0	0	21735	20270	161788	27199	1058292	46412	107983	0	0	8219	556475	0	0
2024-10-17 22:45:47			0	38195	0	0	0	21727	20280	161780	27038	1058248	46390	107980	0	0	8218	557158	0	0
2024-10-17 22:46:47			0	38195	0	0	0	21719	20270	161808	27284	1058266	46389	107977	0	0	8218	557189	0	0
2024-10-17 22:47:47			0	38202	0	0	0	21724	20280	161712	27331	1058257	46390	107979	0	0	8218	556881	0	0
2024-10-17 22:48:47			0	38198	0	0	0	21714	20280	161728	27201	1058337	46390	107975	0	0	8218	557039	0	0
2024-10-17 22:49:47			0	38193	0	0	0	21719	20280	161796	27263	1058248	46379	107977	0	0	8218	557238	0	0
2024-10-17 22:50:47			0	38192	0	0	0	21722	20280	161748	27218	1058275	46390	107978	0	0	8218	557277	0	0
2024-10-17 22:51:47			0	38196	0	0	0	21709	20280	161808	27213	1058284	46390	107973	0	0	8218	557119	0	0
2024-10-17 22:52:47			0	38186	0	0	0	21714	20280	161792	27249	1058337	46390	107975	0	0	8217	557515	0	0
2024-10-17 22:53:47			0	38176	0	0	0	21727	20280	161772	27249	1058231	46390	107980	0	0	8217	557912	0	0
2024-10-17 22:54:47			0	38172	0	0	0	21719	20280	161760	27249	1058310	46369	107977	0	0	8216	558071	0	0
2024-10-17 22:55:47			0	38184	0	0	0	21724	20280	161808	27263	1058248	46390	107979	0	0	8217	557595	0	0
2024-10-17 22:56:47			0	38185	0	0	0	21732	20290	161856	26901	1058373	46379	107982	0	0	8217	557524	0	0
2024-10-17 22:57:47			0	38193	0	0	0	21722	20280	161812	27109	1058310	46390	107978	0	0	8218	557238	0	0
2024-10-17 22:58:47			0	38186	0	0	0	21729	20280	161744	27111	1058275	46390	107981	0	0	8217	557515	0	0
2024-10-17 22:59:47			0	38195	0	0	0	21722	20280	161752	27102	1058337	46390	107978	0	0	8218	557158	0	0
2024-10-17 23:00:47			0	38213	0	0	0	21732	20280	161664	27268	1058328	46379	107982	0	0	8219	556445	0	0
2024-10-17 23:01:47			0	38225	0	0	0	21724	20290	161628	27161	1058319	46379	107979	0	0	8220	555939	0	0
2024-10-17 23:02:47			0	38196	0	0	0	21722	20290	161616	27256	1058319	46390	107978	0	0	8218	557088	0	0
2024-10-17 23:03:47			0	38212	0	0	0	21716	20280	161696	27569	1058337	46379	107976	0	0	8219	556484	0	0
2024-10-17 23:04:47			0	38207	0	0	0	21719	20270	161708	27319	1058292	46389	107977	0	0	8218	556713	0	0
2024-10-17 23:05:47			0	38222	0	0	0	21711	20290	161648	27289	1058293	46401	107974	0	0	8220	556057	0	0
2024-10-17 23:06:47			0	38213	0	0	0	21709	20280	161644	27171	1058310	46390	107973	0	0	8219	556445	0	0
2024-10-17 23:07:47			0	38241	0	0	0	21706	20280	161552	27405	1058284	46369	107972	0	0	8221	555336	0	0
2024-10-17 23:08:47			0	38244	0	0	0	21706	20280	161540	27232	1058284	46379	107972	0	0	8221	555217	0	0
2024-10-17 23:09:47			0	38233	0	0	0	21709	20270	161636	26850	1058266	46378	107973	0	0	8220	555683	0	0
2024-10-17 23:10:47			0	38236	0	0	0	21709	20270	161552	27336	1058346	46389	107973	0	0	8220	555564	0	0
2024-10-17 23:11:47			0	38239	0	0	0	21709	20280	161620	27062	1058284	46390	107973	0	0	8221	555415	0	0
2024-10-17 23:12:47			0	38235	0	0	0	21711	20280	161544	27265	1058284	46390	107974	0	0	8220	555573	0	0
2024-10-17 23:13:47			0	38243	0	0	0	21703	20280	161556	27303	1058248	46390	107971	0	0	8221	555257	0	0
2024-10-17 23:14:47			0	38243	0	0	0	21711	20270	161588	26963	1058292	46389	107974	0	0	8221	555287	0	0
2024-10-17 23:15:47			0	38246	0	0	0	21709	20270	161468	27351	1058292	46378	107973	0	0	8221	555169	0	0
2024-10-17 23:16:47			0	38250	0	0	0	21709	20270	161532	27015	1058283	46377	107973	0	0	8221	555010	0	0
2024-10-17 23:17:47			0	38247	0	0	0	21706	20280	161552	27154	1058328	46379	107972	0	0	8221	555098	0	0
2024-10-17 23:18:47			0	38269	0	0	0	21709	20270	161596	27041	1058239	46389	107973	0	0	8222	554259	0	0
2024-10-17 23:19:47			0	38259	0	0	0	21714	20270	161428	27154	1058230	46388	107975	0	0	8222	554654	0	0
2024-10-17 23:20:47			0	38250	0	0	0	21709	20270	161528	27126	1058266	46389	107973	0	0	8221	555010	0	0
2024-10-17 23:21:47			0	38246	0	0	0	21706	20270	161636	27055	1058266	46378	107972	0	0	8221	555169	0	0
2024-10-17 23:22:47			0	38246	0	0	0	21696	20280	161544	27289	1058284	46390	107968	0	0	8221	555138	0	0
2024-10-17 23:23:47			0	38241	0	0	0	21709	20280	161600	27124	1058301	46379	107973	0	0	8221	555336	0	0
2024-10-17 23:24:47			0	38251	0	0	0	21714	20280	161516	27130	1058248	46390	107975	0	0	8221	554940	0	0
2024-10-17 23:25:47			0	38258	0	0	0	21706	20270	161536	27232	1058319	46378	107972	0	0	8222	554694	0	0
2024-10-17 23:26:47			0	38261	0	0	0	21711	20270	161580	26991	1058283	46388	107974	0	0	8222	554575	0	0
2024-10-17 23:27:47			0	38229	0	0	0	21711	20270	161444	27066	1058257	46388	107974	0	0	8220	555841	0	0
2024-10-17 23:28:47			0	38238	0	0	0	21716	20280	161508	27081	1058248	46379	107976	0	0	8220	555455	0	0
2024-10-17 23:29:47			0	38255	0	0	0	21706	20270	161568	27196	1058310	46388	107972	0	0	8222	554812	0	0
2024-10-17 23:30:47			0	38252	0	0	0	21714	20270	161540	27128	1058239	46389	107975	0	0	8221	554931	0	0
2024-10-17 23:31:47			0	38253	0	0	0	21698	20280	161488	27279	1058328	46379	107969	0	0	8222	554861	0	0
2024-10-17 23:32:47			0	38264	0	0	0	21714	20270	161484	27332	1058319	46389	107975	0	0	8222	554456	0	0
2024-10-17 23:33:47			0	38262	0	0	0	21722	20280	161428	27043	1058301	46390	107978	0	0	8222	554505	0	0
2024-10-17 23:34:47			0	38267	0	0	0	21714	20270	161428	27421	1058266	46378	107975	0	0	8222	554338	0	0
2024-10-17 23:35:47			0	38269	0	0	0	21711	20280	161432	27312	1058328	46390	107974	0	0	8222	554228	0	0
2024-10-17 23:36:47			0	38264	0	0	0	21703	20280	161488	27121	1058310	46379	107971	0	0	8222	554426	0	0
2024-10-17 23:37:47			0	38230	0	0	0	21703	20290	161588	26994	1058346	46390	107971	0	0	8220	555741	0	0
2024-10-17 23:38:47			0	38216	0	0	0	21693	20270	161676	26795	1058266	46389	107967	0	0	8219	556357	0	0
2024-10-17 23:39:47			0	38200	0	0	0	21698	20270	161744	27209	1058230	46377	107969	0	0	8218	556991	0	0
2024-10-17 23:40:47			0	38180	0	0	0	21703	20270	161788	26817	1058283	46377	107971	0	0	8217	557784	0	0
2024-10-17 23:41:47			0	38188	0	0	0	21714	20280	161724	26918	1058248	46390	107975	0	0	8218	557436	0	0
2024-10-17 23:42:47			0	38196	0	0	0	21698	20280	161680	27265	1058248	46390	107969	0	0	8218	557119	0	0
2024-10-17 23:43:47			0	38192	0	0	0	21703	20270	161716	27017	1058230	46377	107971	0	0	8218	557308	0	0
2024-10-17 23:44:47			0	38202	0	0	0	21706	20270	161744	27026	1058292	46389	107972	0	0	8218	556912	0	0
2024-10-17 23:45:47			0	38213	0	0	0	21701	20270	161696	27033	1058292	46378	107970	0	0	8219	556475	0	0
2024-10-17 23:46:47			0	38187	0	0	0	21709	20270	161712	26748	1058257	46388	107973	0	0	8217	557506	0	0
2024-10-17 23:47:47			0	38232	0	0	0	21716	20280	161692	27223	1058301	46379	107976	0	0	8220	555692	0	0
2024-10-17 23:48:47			0	38243	0	0	0	21706	20280	161696	27460	1058301	46413	107972	0	0	8221	555257	0	0
2024-10-17 23:49:47			0	38214	0	0	0	21698	20270	161740	26909	1058266	46389	107969	0	0	8219	556436	0	0
2024-10-17 23:50:47			0	38198	0	0	0	21703	20280	161696	27235	1058275	46401	107971	0	0	8218	557039	0	0
2024-10-17 23:51:47			0	38189	0	0	0	21703	20280	161748	27220	1058275	46379	107971	0	0	8218	557396	0	0
2024-10-17 23:52:47			0	38205	0	0	0	21706	20270	161748	27358	1058292	46378	107972	0	0	8219	556792	0	0
2024-10-17 23:53:47			0	38204	0	0	0	21693	20270	161656	27124	1058283	46377	107967	0	0	8219	556832	0	0
2024-10-17 23:54:47			0	38199	0	0	0	21701	20280	161772	27166	1058275	46390	107970	0	0	8218	557000	0	0
2024-10-17 23:55:47			0	38189	0	0	0	21698	20270	161752	27320	1058292	46400	107969	0	0	8218	557427	0	0
2024-10-17 23:56:47			0	38201	0	0	0	21701	20270	161724	27057	1058213	46389	107970	0	0	8218	556951	0	0
2024-10-17 23:57:47			0	38248	0	0	0	21703	20270	161532	27300	1058230	46388	107971	0	0	8221	555089	0	0
2024-10-17 23:58:47			0	38269	0	0	0	21693	20270	161472	27064	1058257	46388	107967	0	0	8223	554259	0	0
2024-10-17 23:59:47			0	38271	0	0	0	21696	20270	161432	27003	1058257	46367	107968	0	0	8223	554180	0	0
2024-10-18 00:00:47			0	38286	0	0	0	21690	20270	161400	27201	1058213	46378	107966	0	0	8224	553587	0	0
2024-10-18 00:01:47			0	38274	0	0	0	21698	20270	161480	27090	1058292	46389	107969	0	0	8223	554061	0	0
2024-10-18 00:02:47			0	38256	0	0	0	21701	20270	161560	27260	1058257	46399	107970	0	0	8222	554773	0	0
2024-10-18 00:03:47			0	38254	0	0	0	21693	20260	161680	27235	1058221	46399	107967	0	0	8222	554883	0	0
2024-10-18 00:04:47			0	38258	0	0	0	21690	20270	161620	26984	1058257	46399	107966	0	0	8222	554694	0	0
2024-10-18 00:05:47			0	38231	0	0	0	21696	20270	161656	27104	1058266	46378	107968	0	0	8220	555762	0	0
2024-10-18 00:06:47			0	38231	0	0	0	21701	20270	161648	26989	1058257	46388	107970	0	0	8220	555762	0	0
2024-10-18 00:07:47			0	38248	0	0	0	21698	20270	161588	27319	1058204	46377	107969	0	0	8221	555089	0	0
2024-10-18 00:08:47			0	38268	0	0	0	21701	20270	161500	27258	1058239	46400	107970	0	0	8222	554298	0	0
2024-10-18 00:09:47			0	38274	0	0	0	21698	20260	161452	26880	1058248	46377	107969	0	0	8223	554092	0	0
2024-10-18 00:10:47			0	38298	0	0	0	21701	20260	161348	27171	1058248	46377	107970	0	0	8224	553144	0	0
2024-10-18 00:11:47			0	38329	0	0	0	21698	20260	161276	27133	1058221	46377	107969	0	0	8226	551921	0	0
2024-10-18 00:12:47			0	38332	0	0	0	21698	20270	161176	27339	1058266	46378	107969	0	0	8226	551772	0	0
2024-10-18 00:13:47			0	38325	0	0	0	21693	20260	161212	27237	1058239	46388	107967	0	0	8226	552078	0	0
2024-10-18 00:14:47			0	38326	0	0	0	21701	20270	161180	27183	1058213	46389	107970	0	0	8226	552008	0	0
2024-10-18 00:15:47			0	38317	0	0	0	21680	20260	161240	27208	1058195	46399	107962	0	0	8226	552394	0	0
2024-10-18 00:16:47			0	38294	0	0	0	21690	20270	161264	27277	1058319	46400	107966	0	0	8224	553271	0	0
2024-10-18 00:17:47			0	38298	0	0	0	21685	20260	161372	27131	1058212	46388	107964	0	0	8224	553144	0	0
2024-10-18 00:18:47			0	38304	0	0	0	21685	20270	161520	27237	1058213	46378	107964	0	0	8225	552876	0	0
2024-10-18 00:19:47			0	38304	0	0	0	21696	20250	161408	27249	1058177	46376	107968	0	0	8224	552937	0	0
2024-10-18 00:20:47			0	38278	0	0	0	21688	20270	161388	26958	1058177	46399	107965	0	0	8223	553903	0	0
2024-10-18 00:21:47			0	38276	0	0	0	21677	20260	161444	26826	1058221	46388	107961	0	0	8223	554013	0	0
2024-10-18 00:22:47			0	38280	0	0	0	21685	20260	161400	27142	1058168	46377	107964	0	0	8223	553855	0	0
2024-10-18 00:23:47			0	38276	0	0	0	21677	20260	161496	27119	1058195	46377	107961	0	0	8223	554013	0	0
2024-10-18 00:24:47			0	38274	0	0	0	21677	20260	161444	26955	1058212	46388	107961	0	0	8223	554092	0	0
2024-10-18 00:25:47			0	38270	0	0	0	21680	20250	161456	27294	1058177	46387	107962	0	0	8223	554280	0	0
2024-10-18 00:26:47			0	38260	0	0	0	21677	20260	161592	27010	1058159	46399	107961	0	0	8222	554645	0	0
2024-10-18 00:27:47			0	38261	0	0	0	21690	20260	161464	27275	1058168	46388	107966	0	0	8222	554606	0	0
2024-10-18 00:28:47			0	38268	0	0	0	21690	20260	161420	26927	1058186	46399	107966	0	0	8223	554329	0	0
2024-10-18 00:29:47			0	38260	0	0	0	21675	20260	161572	27204	1058221	46388	107960	0	0	8222	554645	0	0
2024-10-18 00:30:47			0	38239	0	0	0	21664	20260	161464	26876	1058212	46377	107956	0	0	8221	555476	0	0
2024-10-18 00:31:47			0	38220	0	0	0	21659	20240	161472	27237	1058141	46386	107954	0	0	8220	556290	0	0
2024-10-18 00:32:47			0	38206	0	0	0	21659	20250	161632	27395	1058150	46398	107954	0	0	8219	556814	0	0
2024-10-18 00:33:47			0	38182	0	0	0	21662	20240	161772	26956	1058185	46364	107955	0	0	8218	557797	0	0
2024-10-18 00:34:47			0	38195	0	0	0	21659	20240	161764	26873	1058141	46375	107954	0	0	8219	557281	0	0
2024-10-18 00:35:47			0	38204	0	0	0	21662	20240	161732	27019	1058132	46364	107955	0	0	8219	556924	0	0
2024-10-18 00:36:47			0	38201	0	0	0	21667	20250	161684	27098	1058150	46376	107957	0	0	8219	557013	0	0
2024-10-18 00:37:47			0	38205	0	0	0	21670	20250	161652	27348	1058124	46376	107958	0	0	8219	556854	0	0
2024-10-18 00:38:47			0	38200	0	0	0	21667	20230	161588	27022	1058150	46385	107957	0	0	8219	557114	0	0
2024-10-18 00:39:47			0	38226	0	0	0	21659	20240	161608	27022	1058132	46385	107954	0	0	8220	556052	0	0
2024-10-18 00:40:47			0	38226	0	0	0	21670	20240	161560	26958	1058132	46385	107958	0	0	8220	556052	0	0
2024-10-18 00:41:47			0	38231	0	0	0	21670	20240	161656	26937	1058106	46396	107958	0	0	8221	555854	0	0
2024-10-18 00:42:47			0	38218	0	0	0	21670	20250	161596	26786	1058124	46387	107958	0	0	8220	556339	0	0
2024-10-18 00:43:47			0	38218	0	0	0	21667	20240	161576	26625	1058115	46386	107957	0	0	8220	556370	0	0
2024-10-18 00:44:47			0	38223	0	0	0	21670	20240	161680	27046	1058159	46385	107958	0	0	8220	556171	0	0
2024-10-18 00:45:47			0	38216	0	0	0	21664	20240	161696	27104	1058106	46385	107956	0	0	8220	556449	0	0
2024-10-18 00:46:47			0	38214	0	0	0	21664	20240	161644	26759	1058132	46385	107956	0	0	8220	556528	0	0
2024-10-18 00:47:47			0	38214	0	0	0	21675	20240	161728	27022	1058159	46396	107960	0	0	8220	556528	0	0
2024-10-18 00:48:47			0	38193	0	0	0	21667	20230	161584	26991	1058123	46385	107957	0	0	8218	557391	0	0
2024-10-18 00:49:47			0	38201	0	0	0	21662	20240	161668	27100	1058106	46385	107955	0	0	8219	557043	0	0
2024-10-18 00:50:47			0	38199	0	0	0	21672	20240	161796	27310	1058106	46396	107959	0	0	8219	557123	0	0
2024-10-18 00:51:47			0	38199	0	0	0	21662	20240	161664	27294	1058168	46386	107955	0	0	8219	557123	0	0
2024-10-18 00:52:47			0	38197	0	0	0	21675	20230	161780	26864	1058097	46396	107960	0	0	8218	557233	0	0
2024-10-18 00:53:47			0	38169	0	0	0	21670	20240	161792	27135	1058159	46396	107958	0	0	8217	558313	0	0
2024-10-18 00:54:47			0	38155	0	0	0	21662	20240	161968	27391	1058115	46375	107955	0	0	8216	558870	0	0
2024-10-18 00:55:47			0	38126	0	0	0	21659	20240	162044	27105	1058132	46375	107954	0	0	8215	560023	0	0
2024-10-18 00:56:47			0	38107	0	0	0	21654	20240	162160	27157	1058115	46386	107952	0	0	8214	560779	0	0
2024-10-18 00:57:47			0	38081	0	0	0	21644	20240	162096	27305	1058079	46396	107948	0	0	8212	561815	0	0
2024-10-18 00:58:47			0	38089	0	0	0	21659	20240	162156	27116	1058106	46375	107954	0	0	8212	561496	0	0
2024-10-18 00:59:47			0	38099	0	0	0	21664	20240	162148	27149	1058052	46385	107956	0	0	8213	561098	0	0
2024-10-18 01:00:47			0	38102	0	0	0	21659	20230	162140	27315	1058044	46385	107954	0	0	8213	561009	0	0
2024-10-18 01:01:47			0	38115	0	0	0	21659	20230	162144	27360	1058141	46375	107954	0	0	8214	560491	0	0
2024-10-18 01:02:47			0	38111	0	0	0	21651	20240	162104	27209	1058132	46385	107951	0	0	8214	560620	0	0
2024-10-18 01:03:47			0	38107	0	0	0	21649	20240	162120	27300	1058088	46365	107950	0	0	8214	560779	0	0
2024-10-18 01:04:47			0	38094	0	0	0	21651	20230	162108	27215	1058088	46396	107951	0	0	8213	561328	0	0
2024-10-18 01:05:47			0	38100	0	0	0	21657	20220	162116	27161	1058026	46374	107953	0	0	8213	561120	0	0
2024-10-18 01:06:47			0	38116	0	0	0	21646	20230	162032	27116	1058097	46385	107949	0	0	8214	560452	0	0
2024-10-18 01:07:47			0	38109	0	0	0	21636	20230	162044	27296	1058035	46375	107945	0	0	8214	560730	0	0
2024-10-18 01:08:47			0	38120	0	0	0	21638	20230	162224	26958	1058070	46375	107946	0	0	8215	560293	0	0
2024-10-18 01:09:47			0	38099	0	0	0	21631	20230	162160	27045	1058035	46396	107943	0	0	8213	561129	0	0
2024-10-18 01:10:47			0	38094	0	0	0	21628	20220	162180	27138	1058052	46384	107942	0	0	8213	561359	0	0
2024-10-18 01:11:47			0	38083	0	0	0	21625	20220	162228	27308	1057972	46384	107941	0	0	8213	561798	0	0
2024-10-18 01:12:47			0	38069	0	0	0	21628	20220	162268	27213	1058026	46384	107942	0	0	8212	562356	0	0
2024-10-18 01:13:47			0	38061	0	0	0	21620	20210	162392	26759	1057981	46383	107939	0	0	8211	562706	0	0
2024-10-18 01:14:47			0	38062	0	0	0	21607	20210	162344	27249	1057981	46383	107934	0	0	8212	562666	0	0
2024-10-18 01:15:47			0	38055	0	0	0	21599	20210	162364	26889	1057972	46362	107931	0	0	8211	562946	0	0
2024-10-18 01:16:47			0	38059	0	0	0	21602	20200	162320	27189	1057936	46361	107932	0	0	8211	562817	0	0
2024-10-18 01:17:47			0	38068	0	0	0	21602	20200	162316	27203	1057927	46392	107932	0	0	8212	562458	0	0
2024-10-18 01:18:47			0	38068	0	0	0	21602	20200	162272	27334	1057901	46371	107932	0	0	8212	562458	0	0
2024-10-18 01:19:47			0	38077	0	0	0	21584	20190	162304	26989	1057918	46381	107925	0	0	8213	562130	0	0
2024-10-18 01:20:47			0	38076	0	0	0	21589	20200	162176	27381	1057847	46381	107927	0	0	8213	562139	0	0
2024-10-18 01:21:47			0	38072	0	0	0	21584	20180	162292	27085	1057812	46379	107925	0	0	8212	562360	0	0
2024-10-18 01:22:47			0	38077	0	0	0	21594	20180	162288	27343	1057838	46390	107929	0	0	8213	562161	0	0
2024-10-18 01:23:47			0	38058	0	0	0	21602	20180	162256	27010	1057794	46370	107932	0	0	8211	562919	0	0
2024-10-18 01:24:47			0	38089	0	0	0	21605	20180	162288	27248	1057838	46358	107933	0	0	8213	561682	0	0
2024-10-18 01:25:47			0	38083	0	0	0	21612	20180	162296	27124	1057900	46380	107936	0	0	8213	561922	0	0
2024-10-18 01:26:47			0	38080	0	0	0	21610	20190	162280	27196	1057883	46381	107935	0	0	8213	562010	0	0
2024-10-18 01:27:47			0	38062	0	0	0	21615	20180	162304	27251	1057874	46380	107937	0	0	8211	562759	0	0
2024-10-18 01:28:47			0	38080	0	0	0	21610	20180	162296	27443	1057865	46379	107935	0	0	8212	562041	0	0
2024-10-18 01:29:47			0	38076	0	0	0	21610	20180	162304	27694	1057891	46379	107935	0	0	8212	562201	0	0
2024-10-18 01:30:47			0	38066	0	0	0	21605	20180	162360	27286	1057865	46390	107933	0	0	8212	562600	0	0
2024-10-18 01:31:47			0	38086	0	0	0	21602	20190	162348	27142	1057856	46371	107932	0	0	8213	561771	0	0
2024-10-18 01:32:47			0	38066	0	0	0	21589	20180	162328	27145	1057838	46369	107927	0	0	8212	562600	0	0
2024-10-18 01:33:47			0	38084	0	0	0	21599	20170	162196	27057	1057856	46390	107931	0	0	8213	561913	0	0
2024-10-18 01:34:47			0	38090	0	0	0	21586	20180	162164	27076	1057865	46379	107926	0	0	8213	561642	0	0
2024-10-18 01:35:47			0	38080	0	0	0	21597	20180	162316	27209	1057812	46379	107930	0	0	8213	562041	0	0
2024-10-18 01:36:47			0	38080	0	0	0	21594	20170	162340	26622	1057776	46379	107929	0	0	8213	562072	0	0
2024-10-18 01:37:47			0	38076	0	0	0	21589	20170	162276	27050	1057820	46368	107927	0	0	8213	562232	0	0
2024-10-18 01:38:47			0	38061	0	0	0	21594	20170	162380	27327	1057829	46369	107929	0	0	8212	562830	0	0
2024-10-18 01:39:47			0	38053	0	0	0	21597	20170	162296	26968	1057829	46379	107930	0	0	8211	563150	0	0
2024-10-18 01:40:47			0	38041	0	0	0	21612	20170	162328	27443	1057856	46379	107936	0	0	8210	563629	0	0
2024-10-18 01:41:47			0	38060	0	0	0	21607	20180	162428	27199	1057838	46379	107934	0	0	8211	562839	0	0
2024-10-18 01:42:47			0	38064	0	0	0	21597	20170	162368	27206	1057776	46369	107930	0	0	8212	562711	0	0
2024-10-18 01:43:47			0	38076	0	0	0	21589	20180	162192	27386	1057847	46380	107927	0	0	8213	562201	0	0
2024-10-18 01:44:47			0	38079	0	0	0	21589	20170	162232	27280	1057794	46368	107927	0	0	8213	562112	0	0
2024-10-18 01:45:47			0	38087	0	0	0	21581	20180	162240	27062	1057785	46390	107924	0	0	8213	561762	0	0
2024-10-18 01:46:47			0	38096	0	0	0	21584	20170	162248	27104	1057856	46379	107925	0	0	8214	561434	0	0
2024-10-18 01:47:47			0	38086	0	0	0	21594	20180	162236	27033	1057838	46379	107929	0	0	8213	561802	0	0
2024-10-18 01:48:47			0	38071	0	0	0	21589	20170	162336	26981	1057794	46368	107927	0	0	8212	562431	0	0
2024-10-18 01:49:47			0	38061	0	0	0	21584	20170	162332	27244	1057803	46379	107925	0	0	8212	562830	0	0
2024-10-18 01:50:47			0	38079	0	0	0	21589	20170	162284	26864	1057767	46368	107927	0	0	8213	562112	0	0
2024-10-18 01:51:47			0	38051	0	0	0	21592	20160	162372	26974	1057802	46367	107928	0	0	8211	563261	0	0
2024-10-18 01:52:47			0	38041	0	0	0	21589	20160	162328	27118	1057802	46377	107927	0	0	8210	563660	0	0
2024-10-18 01:53:47			0	38023	0	0	0	21589	20170	162459	26854	1057741	46368	107927	0	0	8209	564349	0	0
2024-10-18 01:54:47			0	38022	0	0	0	21581	20170	162416	26918	1057741	46378	107924	0	0	8210	564389	0	0
2024-10-18 01:55:47			0	38045	0	0	0	21571	20160	162480	26890	1057758	46368	107920	0	0	8211	563501	0	0
2024-10-18 01:56:47			0	38039	0	0	0	21573	20160	162476	27229	1057758	46368	107921	0	0	8211	563740	0	0
2024-10-18 01:57:47			0	38028	0	0	0	21579	20170	162448	27466	1057714	46368	107923	0	0	8210	564149	0	0
2024-10-18 01:58:47			0	38033	0	0	0	21579	20160	162480	26974	1057723	46367	107923	0	0	8210	563980	0	0
2024-10-18 01:59:47			0	38034	0	0	0	21581	20160	162404	27350	1057758	46368	107924	0	0	8210	563940	0	0
2024-10-18 02:00:47			0	38044	0	0	0	21579	20150	162476	27230	1057687	46387	107923	0	0	8211	563572	0	0
2024-10-18 02:01:47			0	38049	0	0	0	21573	20160	162416	27043	1057749	46377	107921	0	0	8211	563341	0	0
2024-10-18 02:02:47			0	38035	0	0	0	21553	20150	162504	26934	1057714	46376	107913	0	0	8211	563931	0	0
2024-10-18 02:03:47			0	38043	0	0	0	21553	20150	162396	27052	1057634	46366	107913	0	0	8211	563612	0	0
2024-10-18 02:04:47			0	38038	0	0	0	21561	20150	162492	27208	1057661	46376	107916	0	0	8211	563811	0	0
2024-10-18 02:05:47			0	38047	0	0	0	21561	20150	162340	27112	1057652	46376	107916	0	0	8211	563452	0	0
2024-10-18 02:06:47			0	38034	0	0	0	21573	20140	162416	27291	1057660	46375	107921	0	0	8210	564002	0	0
2024-10-18 02:07:47			0	38042	0	0	0	21558	20140	162496	27310	1057660	46365	107915	0	0	8211	563683	0	0
2024-10-18 02:08:47			0	38074	0	0	0	21563	20130	162440	26868	1057678	46364	107917	0	0	8213	562436	0	0
2024-10-18 02:09:47			0	38063	0	0	0	21566	20150	162492	27112	1057652	46366	107918	0	0	8212	562813	0	0
2024-10-18 02:10:47			0	38049	0	0	0	21561	20140	162388	27102	1057660	46375	107916	0	0	8211	563403	0	0
2024-10-18 02:11:47			0	38047	0	0	0	21566	20130	162416	27204	1057669	46375	107918	0	0	8211	563514	0	0
2024-10-18 02:12:47			0	38052	0	0	0	21566	20140	162540	27296	1057687	46375	107918	0	0	8211	563283	0	0
2024-10-18 02:13:47			0	38059	0	0	0	21563	20140	162508	26876	1057660	46365	107917	0	0	8212	563004	0	0
2024-10-18 02:14:47			0	38048	0	0	0	21568	20130	162544	27076	1057616	46375	107919	0	0	8211	563474	0	0
2024-10-18 02:15:47			0	38043	0	0	0	21558	20130	162436	27171	1057651	46375	107915	0	0	8211	563674	0	0
2024-10-18 02:16:47			0	38052	0	0	0	21555	20130	162464	27272	1057669	46375	107914	0	0	8212	563314	0	0
2024-10-18 02:17:47			0	38052	0	0	0	21558	20130	162444	27507	1057642	46364	107915	0	0	8211	563314	0	0
2024-10-18 02:18:47			0	38057	0	0	0	21568	20130	162432	27303	1057678	46375	107919	0	0	8212	563114	0	0
2024-10-18 02:19:47			0	38041	0	0	0	21579	20120	162556	27015	1057580	46375	107923	0	0	8210	563785	0	0
2024-10-18 02:20:47			0	38012	0	0	0	21581	20130	162627	27253	1057678	46375	107924	0	0	8209	564913	0	0
2024-10-18 02:21:47			0	38007	0	0	0	21571	20130	162599	26909	1057704	46385	107920	0	0	8209	565114	0	0
2024-10-18 02:22:47			0	38010	0	0	0	21563	20150	162667	27026	1057705	46376	107917	0	0	8209	564931	0	0
2024-10-18 02:23:47			0	38011	0	0	0	21566	20120	162579	27102	1057687	46375	107918	0	0	8209	564985	0	0
2024-10-18 02:24:47			0	38020	0	0	0	21561	20130	162551	27296	1057704	46375	107916	0	0	8210	564593	0	0
2024-10-18 02:25:47			0	38033	0	0	0	21563	20130	162600	27104	1057678	46375	107917	0	0	8210	564073	0	0
2024-10-18 02:26:47			0	38017	0	0	0	21568	20140	162503	27277	1057660	46365	107919	0	0	8209	564682	0	0
2024-10-18 02:27:47			0	38011	0	0	0	21571	20130	162547	27010	1057678	46364	107920	0	0	8209	564953	0	0
2024-10-18 02:28:47			0	38021	0	0	0	21576	20130	162627	27230	1057625	46385	107922	0	0	8209	564553	0	0
2024-10-18 02:29:47			0	38036	0	0	0	21568	20120	162592	27282	1057607	46375	107919	0	0	8210	563985	0	0
2024-10-18 02:30:47			0	38009	0	0	0	21573	20130	162539	26876	1057651	46364	107921	0	0	8209	565033	0	0
2024-10-18 02:31:47			0	38030	0	0	0	21555	20140	162440	27033	1057740	46375	107914	0	0	8210	564162	0	0
2024-10-18 02:32:47			0	38027	0	0	0	21568	20130	162524	27222	1057731	46375	107919	0	0	8210	564313	0	0
2024-10-18 02:33:47			0	38040	0	0	0	21561	20150	162536	27388	1057678	46376	107916	0	0	8211	563731	0	0
2024-10-18 02:34:47			0	38034	0	0	0	21563	20130	162468	26935	1057625	46375	107917	0	0	8210	564033	0	0
2024-10-18 02:35:47			0	38033	0	0	0	21579	20140	162548	27341	1057687	46375	107923	0	0	8210	564042	0	0
2024-10-18 02:36:47			0	38022	0	0	0	21579	20130	162575	27251	1057678	46375	107923	0	0	8209	564513	0	0
2024-10-18 02:37:47			0	38024	0	0	0	21584	20130	162603	27161	1057704	46352	107925	0	0	8209	564433	0	0
2024-10-18 02:38:47			0	38027	0	0	0	21579	20130	162623	26949	1057758	46396	107923	0	0	8210	564313	0	0
2024-10-18 02:39:47			0	38029	0	0	0	21576	20130	162476	27152	1057731	46364	107922	0	0	8210	564233	0	0
2024-10-18 02:40:47			0	38027	0	0	0	21571	20130	162555	26960	1057678	46375	107920	0	0	8210	564313	0	0
2024-10-18 02:41:47			0	38021	0	0	0	21579	20130	162623	27242	1057704	46375	107923	0	0	8209	564553	0	0
2024-10-18 02:42:47			0	38030	0	0	0	21581	20130	162584	26996	1057651	46364	107924	0	0	8210	564193	0	0
2024-10-18 02:43:47			0	38032	0	0	0	21579	20130	162568	27041	1057704	46375	107923	0	0	8210	564113	0	0
2024-10-18 02:44:47			0	38040	0	0	0	21573	20130	162556	27003	1057678	46364	107921	0	0	8211	563794	0	0
2024-10-18 02:45:47			0	38026	0	0	0	21579	20130	162520	27057	1057731	46385	107923	0	0	8210	564353	0	0
2024-10-18 02:46:47			0	38037	0	0	0	21581	20140	162512	26930	1057660	46375	107924	0	0	8210	563882	0	0
2024-10-18 02:47:47			0	38042	0	0	0	21579	20130	162488	27232	1057651	46375	107923	0	0	8211	563714	0	0
2024-10-18 02:48:47			0	38056	0	0	0	21581	20140	162476	27284	1057687	46365	107924	0	0	8211	563123	0	0
2024-10-18 02:49:47			0	38031	0	0	0	21576	20140	162484	27308	1057687	46365	107922	0	0	8210	564122	0	0
2024-10-18 02:50:47			0	38023	0	0	0	21576	20130	162636	27124	1057678	46364	107922	0	0	8209	564473	0	0
2024-10-18 02:51:47			0	38016	0	0	0	21584	20130	162607	27409	1057704	46364	107925	0	0	8209	564753	0	0
2024-10-18 02:52:47			0	37991	0	0	0	21581	20130	162719	27263	1057678	46375	107924	0	0	8208	565754	0	0
2024-10-18 02:53:47			0	37992	0	0	0	21571	20130	162687	27177	1057695	46364	107920	0	0	8208	565714	0	0
2024-10-18 02:54:47			0	37982	0	0	0	21568	20130	162719	27362	1057678	46385	107919	0	0	8207	566115	0	0
2024-10-18 02:55:47			0	38002	0	0	0	21568	20140	162767	27124	1057660	46365	107919	0	0	8208	565283	0	0
2024-10-18 02:56:47			0	37972	0	0	0	21561	20130	162743	27086	1057678	46375	107916	0	0	8207	566516	0	0
2024-10-18 02:57:47			0	37964	0	0	0	21571	20130	162751	26911	1057616	46364	107920	0	0	8206	566836	0	0
2024-10-18 02:58:47			0	37974	0	0	0	21573	20130	162783	27220	1057616	46375	107921	0	0	8207	566435	0	0
2024-10-18 02:59:47			0	37968	0	0	0	21573	20130	162659	27116	1057669	46364	107921	0	0	8206	566676	0	0
2024-10-18 03:00:47			0	37983	0	0	0	21573	20130	162763	27000	1057642	46375	107921	0	0	8207	566075	0	0
2024-10-18 03:01:47			0	37975	0	0	0	21571	20130	162711	27072	1057669	46375	107920	0	0	8207	566395	0	0
2024-10-18 03:02:47			0	38002	0	0	0	21561	20130	162699	27229	1057642	46385	107916	0	0	8208	565314	0	0
2024-10-18 03:03:47			0	38014	0	0	0	21563	20130	162575	26786	1057669	46364	107917	0	0	8209	564833	0	0
2024-10-18 03:04:47			0	38013	0	0	0	21561	20140	162531	26762	1057687	46375	107916	0	0	8209	564842	0	0
2024-10-18 03:05:47			0	38005	0	0	0	21573	20140	162627	27124	1057634	46375	107921	0	0	8209	565162	0	0
2024-10-18 03:06:47			0	38030	0	0	0	21566	20120	162636	26993	1057624	46363	107918	0	0	8210	564225	0	0
2024-10-18 03:07:47			0	38026	0	0	0	21566	20120	162611	27350	1057571	46384	107918	0	0	8210	564384	0	0
2024-10-18 03:08:47			0	38023	0	0	0	21571	20130	162515	27504	1057669	46364	107920	0	0	8210	564473	0	0
2024-10-18 03:09:47			0	38003	0	0	0	21558	20130	162547	27112	1057651	46364	107915	0	0	8209	565274	0	0
2024-10-18 03:10:47			0	38022	0	0	0	21573	20130	162487	27029	1057651	46364	107921	0	0	8209	564513	0	0
2024-10-18 03:11:47			0	38032	0	0	0	21566	20130	162528	27031	1057695	46375	107918	0	0	8210	564113	0	0
2024-10-18 03:12:47			0	38033	0	0	0	21566	20130	162556	26949	1057642	46364	107918	0	0	8210	564073	0	0
2024-10-18 03:13:47			0	38011	0	0	0	21568	20120	162607	27170	1057633	46375	107919	0	0	8209	564985	0	0
2024-10-18 03:14:47			0	38032	0	0	0	21563	20130	162580	27291	1057589	46385	107917	0	0	8210	564113	0	0
2024-10-18 03:15:47			0	38039	0	0	0	21561	20120	162440	27038	1057607	46375	107916	0	0	8211	563865	0	0
2024-10-18 03:16:47			0	38057	0	0	0	21555	20120	162396	26967	1057633	46385	107914	0	0	8212	563145	0	0
2024-10-18 03:17:47			0	38051	0	0	0	21558	20120	162336	27093	1057660	46375	107915	0	0	8211	563385	0	0
2024-10-18 03:18:47			0	38058	0	0	0	21561	20120	162388	27177	1057651	46374	107916	0	0	8212	563106	0	0
2024-10-18 03:19:47			0	38075	0	0	0	21558	20130	162320	27438	1057589	46385	107915	0	0	8213	562396	0	0
2024-10-18 03:20:47			0	38087	0	0	0	21558	20120	162304	27393	1057607	46364	107915	0	0	8213	561948	0	0
2024-10-18 03:21:47			0	38086	0	0	0	21561	20120	162228	26913	1057580	46375	107916	0	0	8213	561988	0	0
2024-10-18 03:22:47			0	38083	0	0	0	21558	20130	162360	27350	1057642	46375	107915	0	0	8213	562077	0	0
2024-10-18 03:23:47			0	38071	0	0	0	21558	20120	162312	27296	1057633	46375	107915	0	0	8213	562586	0	0
2024-10-18 03:24:47			0	38060	0	0	0	21553	20120	162368	26922	1057598	46363	107913	0	0	8212	563026	0	0
2024-10-18 03:25:47			0	38061	0	0	0	21555	20120	162500	27383	1057624	46352	107914	0	0	8212	562986	0	0
2024-10-18 03:26:47			0	38034	0	0	0	21553	20120	162432	26963	1057571	46374	107913	0	0	8210	564064	0	0
2024-10-18 03:27:47			0	37991	0	0	0	21548	20110	162579	26687	1057589	46373	107911	0	0	8208	565816	0	0
2024-10-18 03:28:47			0	37999	0	0	0	21561	20120	162571	26925	1057598	46374	107916	0	0	8208	565465	0	0
2024-10-18 03:29:47			0	37984	0	0	0	21542	20110	162683	27017	1057615	46362	107909	0	0	8208	566097	0	0
2024-10-18 03:30:47			0	37957	0	0	0	21550	20120	162791	27196	1057571	46374	107912	0	0	8206	567148	0	0
2024-10-18 03:31:47			0	37955	0	0	0	21555	20110	162887	27069	1057642	46383	107914	0	0	8206	567260	0	0
2024-10-18 03:32:47			0	37953	0	0	0	21545	20120	162839	27152	1057554	46385	107910	0	0	8206	567309	0	0
2024-10-18 03:33:47			0	37935	0	0	0	21550	20110	162903	27100	1057553	46362	107912	0	0	8205	568063	0	0
2024-10-18 03:34:47			0	37922	0	0	0	21545	20110	162887	26916	1057615	46362	107910	0	0	8204	568585	0	0
2024-10-18 03:35:47			0	37933	0	0	0	21545	20110	162895	27279	1057580	46373	107910	0	0	8205	568143	0	0
2024-10-18 03:36:47			0	37951	0	0	0	21555	20110	162975	26993	1057615	46373	107914	0	0	8205	567420	0	0
2024-10-18 03:37:47			0	37932	0	0	0	21550	20110	162855	27386	1057562	46373	107912	0	0	8204	568183	0	0
2024-10-18 03:38:47			0	37961	0	0	0	21548	20110	162795	27157	1057589	46362	107911	0	0	8206	567019	0	0
2024-10-18 03:39:47			0	37962	0	0	0	21550	20120	162799	26918	1057545	46363	107912	0	0	8206	566948	0	0
2024-10-18 03:40:47			0	37952	0	0	0	21550	20110	162787	27062	1057562	46373	107912	0	0	8206	567380	0	0
2024-10-18 03:41:47			0	37947	0	0	0	21550	20110	162931	27119	1057536	46383	107912	0	0	8205	567581	0	0
2024-10-18 03:42:47			0	37941	0	0	0	21550	20120	162819	26913	1057624	46363	107912	0	0	8205	567790	0	0
2024-10-18 03:43:47			0	37915	0	0	0	21545	20110	162895	27248	1057633	46362	107910	0	0	8204	568866	0	0
2024-10-18 03:44:47			0	37947	0	0	0	21550	20100	162943	26819	1057491	46372	107912	0	0	8205	567612	0	0
2024-10-18 03:45:47			0	37940	0	0	0	21542	20110	162959	26896	1057509	46351	107909	0	0	8205	567862	0	0
2024-10-18 03:46:47			0	37926	0	0	0	21540	20110	162871	27208	1057580	46362	107908	0	0	8204	568424	0	0
2024-10-18 03:47:47			0	37926	0	0	0	21535	20110	162971	27170	1057536	46373	107906	0	0	8204	568424	0	0
2024-10-18 03:48:47			0	37918	0	0	0	21540	20110	162975	27154	1057527	46373	107908	0	0	8204	568746	0	0
2024-10-18 03:49:47			0	37901	0	0	0	21535	20100	162971	27326	1057518	46361	107906	0	0	8203	569461	0	0
2024-10-18 03:50:47			0	37906	0	0	0	21535	20100	163007	27067	1057465	46372	107906	0	0	8203	569260	0	0
2024-10-18 03:51:47			0	37908	0	0	0	21537	20100	163051	27062	1057544	46361	107907	0	0	8203	569179	0	0
2024-10-18 03:52:47			0	37901	0	0	0	21527	20110	163027	27319	1057527	46373	107903	0	0	8203	569429	0	0
2024-10-18 03:53:47			0	37915	0	0	0	21537	20100	163075	27121	1057456	46361	107907	0	0	8204	568898	0	0
2024-10-18 03:54:47			0	37904	0	0	0	21535	20100	163083	26852	1057491	46361	107906	0	0	8203	569340	0	0
2024-10-18 03:55:47			0	37929	0	0	0	21529	20090	162987	27256	1057491	46360	107904	0	0	8205	568367	0	0
2024-10-18 03:56:47			0	37904	0	0	0	21532	20090	163035	27310	1057473	46348	107905	0	0	8203	569372	0	0
2024-10-18 03:57:47			0	37900	0	0	0	21540	20100	163027	26739	1057544	46361	107908	0	0	8203	569501	0	0
2024-10-18 03:58:47			0	37915	0	0	0	21537	20090	163107	27176	1057491	46360	107907	0	0	8204	568929	0	0
2024-10-18 03:59:47			0	37902	0	0	0	21524	20090	163039	27086	1057526	46360	107902	0	0	8203	569452	0	0
2024-10-18 04:00:47			0	37904	0	0	0	21532	20100	163011	27274	1057518	46372	107905	0	0	8203	569340	0	0
2024-10-18 04:01:47			0	37902	0	0	0	21535	20100	163151	26902	1057518	46372	107906	0	0	8203	569420	0	0
2024-10-18 04:02:47			0	37875	0	0	0	21537	20100	163043	27270	1057518	46361	107907	0	0	8201	570507	0	0
2024-10-18 04:03:47			0	37863	0	0	0	21545	20100	163171	27303	1057544	46372	107910	0	0	8200	570991	0	0
2024-10-18 04:04:47			0	37893	0	0	0	21532	20100	163003	27230	1057571	46372	107905	0	0	8202	569782	0	0
2024-10-18 04:05:47			0	37873	0	0	0	21537	20090	163211	27300	1057526	46371	107907	0	0	8201	570619	0	0
2024-10-18 04:06:47			0	37873	0	0	0	21537	20100	163119	27116	1057518	46372	107907	0	0	8201	570588	0	0
2024-10-18 04:07:47			0	37874	0	0	0	21529	20110	163219	27312	1057500	46362	107904	0	0	8201	570516	0	0
2024-10-18 04:08:47			0	37887	0	0	0	21540	20110	163179	27244	1057500	46373	107908	0	0	8202	569993	0	0
2024-10-18 04:09:47			0	37884	0	0	0	21537	20100	163083	27270	1057562	46361	107907	0	0	8202	570145	0	0
2024-10-18 04:10:47			0	37872	0	0	0	21535	20090	163099	26986	1057526	46371	107906	0	0	8201	570659	0	0
2024-10-18 04:11:47			0	37856	0	0	0	21542	20100	163135	27163	1057535	46361	107909	0	0	8200	571273	0	0
2024-10-18 04:12:47			0	37860	0	0	0	21532	20100	163223	27133	1057482	46372	107905	0	0	8200	571111	0	0
2024-10-18 04:13:47			0	37853	0	0	0	21540	20090	163287	27270	1057500	46348	107908	0	0	8200	571425	0	0
2024-10-18 04:14:47			0	37845	0	0	0	21532	20090	163163	27367	1057526	46381	107905	0	0	8200	571748	0	0
2024-10-18 04:15:47			0	37839	0	0	0	21537	20100	163231	27296	1057535	46361	107907	0	0	8199	571958	0	0
2024-10-18 04:16:47			0	37831	0	0	0	21535	20100	163343	26916	1057518	46361	107906	0	0	8199	572281	0	0
2024-10-18 04:17:47			0	37822	0	0	0	21535	20090	163335	27550	1057447	46381	107906	0	0	8198	572676	0	0
2024-10-18 04:18:47			0	37832	0	0	0	21527	20090	163287	27194	1057473	46371	107903	0	0	8199	572272	0	0
2024-10-18 04:19:47			0	37844	0	0	0	21535	20090	163359	27164	1057473	46381	107906	0	0	8199	571788	0	0
2024-10-18 04:20:47			0	37840	0	0	0	21522	20090	163331	26994	1057464	46371	107901	0	0	8199	571949	0	0
2024-10-18 04:21:47			0	37830	0	0	0	21535	20090	163419	26996	1057526	46371	107906	0	0	8199	572353	0	0
2024-10-18 04:22:47			0	37800	0	0	0	21535	20090	163455	27019	1057553	46348	107906	0	0	8197	573564	0	0
2024-10-18 04:23:47			0	37792	0	0	0	21529	20090	163567	27227	1057500	46360	107904	0	0	8196	573888	0	0
2024-10-18 04:24:47			0	37789	0	0	0	21529	20100	163495	27126	1057509	46382	107904	0	0	8196	573977	0	0
2024-10-18 04:25:47			0	37779	0	0	0	21524	20100	163519	27116	1057509	46372	107902	0	0	8196	574382	0	0
2024-10-18 04:26:47			0	37780	0	0	0	21524	20090	163607	27182	1057491	46371	107902	0	0	8196	574373	0	0
2024-10-18 04:27:47			0	37777	0	0	0	21524	20090	163479	27033	1057500	46371	107902	0	0	8196	574494	0	0
2024-10-18 04:28:47			0	37800	0	0	0	21527	20090	163519	27251	1057464	46371	107903	0	0	8197	573564	0	0
2024-10-18 04:29:47			0	37790	0	0	0	21527	20090	163375	27263	1057464	46371	107903	0	0	8196	573968	0	0
2024-10-18 04:30:47			0	37794	0	0	0	21524	20090	163351	27343	1057500	46371	107902	0	0	8197	573807	0	0
2024-10-18 04:31:47			0	37804	0	0	0	21529	20090	163459	27201	1057473	46381	107904	0	0	8197	573403	0	0
2024-10-18 04:32:47			0	37807	0	0	0	21519	20090	163435	27429	1057491	46371	107900	0	0	8198	573282	0	0
2024-10-18 04:33:47			0	37790	0	0	0	21516	20090	163407	26729	1057517	46360	107899	0	0	8197	573968	0	0
2024-10-18 04:34:47			0	37796	0	0	0	21516	20090	163443	27119	1057517	46381	107899	0	0	8197	573726	0	0
2024-10-18 04:35:47			0	37789	0	0	0	21516	20090	163467	27284	1057464	46360	107899	0	0	8196	574009	0	0
2024-10-18 04:36:47			0	37774	0	0	0	21519	20070	163503	27284	1057437	46369	107900	0	0	8195	574679	0	0
2024-10-18 04:37:47			0	37769	0	0	0	21514	20090	163707	27305	1057437	46381	107898	0	0	8195	574818	0	0
2024-10-18 04:38:47			0	37754	0	0	0	21511	20080	163635	27476	1057535	46359	107897	0	0	8194	575457	0	0
2024-10-18 04:39:47			0	37750	0	0	0	21519	20080	163723	27407	1057482	46370	107900	0	0	8194	575619	0	0
2024-10-18 04:40:47			0	37740	0	0	0	21522	20080	163683	27320	1057455	46359	107901	0	0	8193	576024	0	0
2024-10-18 04:41:47			0	37731	0	0	0	21522	20090	163731	26984	1057473	46371	107901	0	0	8193	576357	0	0
2024-10-18 04:42:47			0	37732	0	0	0	21527	20080	163731	27260	1057508	46370	107903	0	0	8193	576348	0	0
2024-10-18 04:43:47			0	37724	0	0	0	21527	20080	163663	27308	1057482	46370	107903	0	0	8192	576672	0	0
2024-10-18 04:44:47			0	37735	0	0	0	21522	20090	163707	27050	1057500	46371	107901	0	0	8193	576195	0	0
2024-10-18 04:45:47			0	37739	0	0	0	21514	20080	163771	26967	1057446	46370	107898	0	0	8194	576065	0	0
2024-10-18 04:46:47			0	37716	0	0	0	21522	20070	163735	27218	1057490	46369	107901	0	0	8192	577029	0	0
2024-10-18 04:47:47			0	37720	0	0	0	21514	20080	163839	27492	1057419	46380	107898	0	0	8192	576835	0	0
2024-10-18 04:48:47			0	37725	0	0	0	21516	20080	163731	27138	1057446	46370	107899	0	0	8193	576632	0	0
2024-10-18 04:49:47			0	37724	0	0	0	21519	20080	163691	26949	1057446	46380	107900	0	0	8193	576672	0	0
2024-10-18 04:50:47			0	37721	0	0	0	21535	20080	163819	27039	1057428	46370	107906	0	0	8192	576794	0	0
2024-10-18 04:51:47			0	37727	0	0	0	21524	20080	163783	27230	1057455	46380	107902	0	0	8193	576551	0	0
2024-10-18 04:52:47			0	37717	0	0	0	21522	20080	163775	27109	1057473	46359	107901	0	0	8192	576956	0	0
2024-10-18 04:53:47			0	37726	0	0	0	21527	20090	163771	27031	1057491	46381	107903	0	0	8193	576560	0	0
2024-10-18 04:54:47			0	37726	0	0	0	21524	20080	163719	27033	1057446	46370	107902	0	0	8193	576591	0	0
2024-10-18 04:55:47			0	37732	0	0	0	21514	20090	163695	27034	1057447	46371	107898	0	0	8193	576316	0	0
2024-10-18 04:56:47			0	37735	0	0	0	21519	20080	163735	27164	1057446	46391	107900	0	0	8193	576226	0	0
2024-10-18 04:57:47			0	37741	0	0	0	21514	20090	163675	27357	1057464	46360	107898	0	0	8194	575951	0	0
2024-10-18 04:58:47			0	37733	0	0	0	21511	20070	163747	27346	1057437	46369	107897	0	0	8193	576339	0	0
2024-10-18 04:59:47			0	37740	0	0	0	21501	20080	163659	27230	1057428	46370	107893	0	0	8194	576024	0	0
2024-10-18 05:00:47			0	37744	0	0	0	21519	20080	163651	27251	1057402	46380	107900	0	0	8194	575862	0	0
2024-10-18 05:01:47			0	37742	0	0	0	21519	20090	163643	27206	1057526	46371	107900	0	0	8194	575911	0	0
2024-10-18 05:02:47			0	37736	0	0	0	21511	20080	163651	27227	1057419	46370	107897	0	0	8193	576186	0	0
2024-10-18 05:03:47			0	37741	0	0	0	21511	20080	163679	27105	1057393	46370	107897	0	0	8194	575983	0	0
2024-10-18 05:04:47			0	37732	0	0	0	21511	20070	163683	27478	1057428	46369	107897	0	0	8193	576380	0	0
2024-10-18 05:05:47			0	37723	0	0	0	21503	20070	163619	26928	1057428	46358	107894	0	0	8193	576745	0	0
2024-10-18 05:06:47			0	37729	0	0	0	21516	20080	163799	26913	1057393	46380	107899	0	0	8193	576470	0	0
2024-10-18 05:07:47			0	37727	0	0	0	21506	20080	163683	27050	1057366	46359	107895	0	0	8193	576551	0	0
2024-10-18 05:08:47			0	37729	0	0	0	21514	20080	163687	27196	1057393	46370	107898	0	0	8193	576470	0	0
2024-10-18 05:09:47			0	37732	0	0	0	21506	20080	163747	27111	1057419	46370	107895	0	0	8193	576348	0	0
2024-10-18 05:10:47			0	37733	0	0	0	21509	20070	163779	27227	1057410	46379	107896	0	0	8193	576339	0	0
2024-10-18 05:11:47			0	37724	0	0	0	21503	20070	163847	27398	1057437	46358	107894	0	0	8193	576704	0	0
2024-10-18 05:12:47			0	37741	0	0	0	21501	20070	163663	27274	1057331	46379	107893	0	0	8194	576015	0	0
2024-10-18 05:13:47			0	37729	0	0	0	21493	20070	163687	27345	1057384	46369	107890	0	0	8193	576502	0	0
2024-10-18 05:14:47			0	37715	0	0	0	21506	20070	163803	26819	1057357	46369	107895	0	0	8192	577069	0	0
2024-10-18 05:15:47			0	37718	0	0	0	21503	20070	163895	27168	1057402	46379	107894	0	0	8192	576948	0	0
2024-10-18 05:16:47			0	37720	0	0	0	21501	20070	163811	27128	1057384	46369	107893	0	0	8193	576866	0	0
2024-10-18 05:17:47			0	37703	0	0	0	21514	20070	163843	27147	1057428	46369	107898	0	0	8191	577556	0	0
2024-10-18 05:18:47			0	37693	0	0	0	21509	20080	163823	27131	1057419	46370	107896	0	0	8191	577930	0	0
2024-10-18 05:19:47			0	37705	0	0	0	21503	20060	163831	26674	1057339	46378	107894	0	0	8192	577507	0	0
2024-10-18 05:20:47			0	37702	0	0	0	21511	20080	163839	27229	1057366	46370	107897	0	0	8191	577565	0	0
2024-10-18 05:21:47			0	37697	0	0	0	21501	20060	163919	27287	1057393	46378	107893	0	0	8191	577832	0	0
2024-10-18 05:22:47			0	37692	0	0	0	21511	20060	163983	26911	1057330	46367	107897	0	0	8191	578035	0	0
2024-10-18 05:23:47			0	37720	0	0	0	21501	20070	163827	26963	1057384	46358	107893	0	0	8193	576866	0	0
2024-10-18 05:24:47			0	37699	0	0	0	21503	20070	163859	27140	1057375	46358	107894	0	0	8191	577719	0	0
2024-10-18 05:25:47			0	37703	0	0	0	21503	20070	163839	26764	1057428	46369	107894	0	0	8192	577556	0	0
2024-10-18 05:26:47			0	37699	0	0	0	21503	20070	163899	26875	1057402	46379	107894	0	0	8191	577719	0	0
2024-10-18 05:27:47			0	37692	0	0	0	21501	20070	163911	27249	1057402	46346	107893	0	0	8191	578003	0	0
2024-10-18 05:28:47			0	37708	0	0	0	21506	20060	163783	27100	1057393	46357	107895	0	0	8192	577385	0	0
2024-10-18 05:29:47			0	37713	0	0	0	21501	20070	163931	26779	1057375	46379	107893	0	0	8192	577150	0	0
2024-10-18 05:30:47			0	37716	0	0	0	21509	20060	163819	27088	1057393	46357	107896	0	0	8192	577061	0	0
2024-10-18 05:31:47			0	37727	0	0	0	21503	20070	163811	26930	1057410	46379	107894	0	0	8193	576583	0	0
2024-10-18 05:32:47			0	37719	0	0	0	21511	20060	163803	27019	1057393	46378	107897	0	0	8192	576939	0	0
2024-10-18 05:33:47			0	37710	0	0	0	21503	20070	163755	27272	1057357	46369	107894	0	0	8192	577272	0	0
2024-10-18 05:34:47			0	37722	0	0	0	21511	20070	163915	26963	1057464	46358	107897	0	0	8193	576785	0	0
2024-10-18 05:35:47			0	37705	0	0	0	21498	20060	163851	26970	1057366	46368	107892	0	0	8192	577507	0	0
2024-10-18 05:36:47			0	37718	0	0	0	21506	20060	163835	27034	1057366	46368	107895	0	0	8192	576979	0	0
2024-10-18 05:37:47			0	37725	0	0	0	21509	20070	163807	26854	1057384	46369	107896	0	0	8193	576664	0	0
2024-10-18 05:38:47			0	37714	0	0	0	21496	20060	163759	26776	1057410	46377	107891	0	0	8192	577142	0	0
2024-10-18 05:39:47			0	37727	0	0	0	21506	20060	163767	27279	1057393	46389	107895	0	0	8193	576614	0	0
2024-10-18 05:40:47			0	37724	0	0	0	21506	20060	163739	27121	1057393	46368	107895	0	0	8193	576736	0	0
2024-10-18 05:41:47			0	37742	0	0	0	21501	20070	163707	27211	1057375	46358	107893	0	0	8194	575975	0	0
2024-10-18 05:42:47			0	37756	0	0	0	21501	20070	163691	27211	1057348	46379	107893	0	0	8195	575407	0	0
2024-10-18 05:43:47			0	37748	0	0	0	21506	20070	163651	27171	1057437	46369	107895	0	0	8194	575731	0	0
2024-10-18 05:44:47			0	37766	0	0	0	21506	20070	163687	27046	1057384	46358	107895	0	0	8195	575003	0	0
2024-10-18 05:45:47			0	37769	0	0	0	21509	20070	163615	27251	1057402	46358	107896	0	0	8195	574881	0	0
2024-10-18 05:46:47			0	37759	0	0	0	21506	20070	163515	27161	1057410	46358	107895	0	0	8195	575286	0	0
2024-10-18 05:47:47			0	37770	0	0	0	21501	20070	163487	26831	1057384	46379	107893	0	0	8196	574841	0	0
2024-10-18 05:48:47			0	37788	0	0	0	21501	20070	163535	26863	1057357	46369	107893	0	0	8197	574113	0	0
2024-10-18 05:49:47			0	37797	0	0	0	21506	20060	163451	26949	1057366	46368	107895	0	0	8197	573780	0	0
2024-10-18 05:50:47			0	37781	0	0	0	21509	20070	163503	26769	1057455	46369	107896	0	0	8196	574396	0	0
2024-10-18 05:51:47			0	37784	0	0	0	21498	20060	163499	27277	1057366	46368	107892	0	0	8196	574306	0	0
2024-10-18 05:52:47			0	37786	0	0	0	21506	20060	163499	27050	1057330	46367	107895	0	0	8196	574225	0	0
2024-10-18 05:53:47			0	37800	0	0	0	21496	20070	163487	27064	1057384	46379	107891	0	0	8197	573628	0	0
2024-10-18 05:54:47			0	37828	0	0	0	21506	20060	163315	27003	1057366	46368	107895	0	0	8199	572528	0	0
2024-10-18 05:55:47			0	37821	0	0	0	21506	20080	163327	27216	1057393	46370	107895	0	0	8199	572748	0	0
2024-10-18 05:56:47			0	37835	0	0	0	21503	20060	163379	27090	1057384	46367	107894	0	0	8199	572246	0	0
2024-10-18 05:57:47			0	37832	0	0	0	21501	20070	163247	27128	1057348	46358	107893	0	0	8199	572335	0	0
2024-10-18 05:58:47			0	37858	0	0	0	21509	20070	163191	27059	1057348	46390	107896	0	0	8201	571286	0	0
2024-10-18 05:59:47			0	37873	0	0	0	21503	20060	163127	27126	1057384	46377	107894	0	0	8202	570714	0	0
2024-10-18 06:00:47			0	37869	0	0	0	21509	20070	163059	26906	1057375	46369	107896	0	0	8201	570843	0	0
2024-10-18 06:01:47			0	37891	0	0	0	21509	20060	162991	27053	1057330	46377	107896	0	0	8203	569989	0	0
2024-10-18 06:02:47			0	37898	0	0	0	21506	20060	162987	26856	1057366	46378	107895	0	0	8203	569707	0	0
2024-10-18 06:03:47			0	37929	0	0	0	21496	20070	162911	27112	1057384	46369	107891	0	0	8205	568429	0	0
2024-10-18 06:04:47			0	37920	0	0	0	21498	20060	163079	26970	1057339	46368	107892	0	0	8204	568822	0	0
2024-10-18 06:05:47			0	37928	0	0	0	21501	20070	162967	27062	1057357	46358	107893	0	0	8205	568469	0	0
2024-10-18 06:06:47			0	37922	0	0	0	21493	20080	162911	27312	1057393	46380	107890	0	0	8205	568679	0	0
2024-10-18 06:07:47			0	37918	0	0	0	21498	20050	163019	27398	1057401	46356	107892	0	0	8204	568934	0	0
2024-10-18 06:08:47			0	37901	0	0	0	21498	20060	163079	27286	1057419	46357	107892	0	0	8203	569586	0	0
2024-10-18 06:09:47			0	37886	0	0	0	21496	20060	163155	27150	1057393	46368	107891	0	0	8202	570190	0	0
2024-10-18 06:10:47			0	37890	0	0	0	21501	20070	163139	27329	1057357	46358	107893	0	0	8203	569998	0	0
2024-10-18 06:11:47			0	37869	0	0	0	21488	20060	163239	27133	1057366	46368	107888	0	0	8202	570875	0	0
2024-10-18 06:12:47			0	37873	0	0	0	21496	20060	163191	27287	1057313	46378	107891	0	0	8202	570714	0	0
2024-10-18 06:13:47			0	37865	0	0	0	21490	20070	163291	27211	1057348	46358	107889	0	0	8201	571004	0	0
2024-10-18 06:14:47			0	37877	0	0	0	21488	20060	163215	27336	1057357	46356	107888	0	0	8202	570553	0	0
2024-10-18 06:15:47			0	37863	0	0	0	21496	20060	163191	26948	1057366	46378	107891	0	0	8201	571117	0	0
2024-10-18 06:16:47			0	37881	0	0	0	21493	20060	163267	27244	1057304	46367	107890	0	0	8202	570391	0	0
2024-10-18 06:17:47			0	37877	0	0	0	21501	20060	163187	27095	1057304	46356	107893	0	0	8202	570553	0	0
2024-10-18 06:18:47			0	37864	0	0	0	21501	20060	163175	27069	1057419	46357	107893	0	0	8201	571076	0	0
2024-10-18 06:19:47			0	37874	0	0	0	21498	20060	163203	27189	1057366	46368	107892	0	0	8202	570673	0	0
2024-10-18 06:20:47			0	37876	0	0	0	21485	20060	163327	27540	1057339	46368	107887	0	0	8202	570593	0	0
2024-10-18 06:21:47			0	37847	0	0	0	21488	20060	163271	27348	1057286	46368	107888	0	0	8200	571762	0	0
2024-10-18 06:22:47			0	37845	0	0	0	21493	20060	163375	27419	1057366	46357	107890	0	0	8200	571842	0	0
2024-10-18 06:23:47			0	37852	0	0	0	21485	20060	163507	27170	1057330	46367	107887	0	0	8201	571560	0	0
2024-10-18 06:24:47			0	37835	0	0	0	21480	20050	163471	27057	1057313	46355	107885	0	0	8200	572277	0	0
2024-10-18 06:25:47			0	37810	0	0	0	21477	20050	163399	27275	1057321	46367	107884	0	0	8198	573287	0	0
2024-10-18 06:26:47			0	37811	0	0	0	21475	20050	163547	27419	1057286	46343	107883	0	0	8198	573246	0	0
2024-10-18 06:27:47			0	37782	0	0	0	21480	20060	163643	27350	1057277	46367	107885	0	0	8197	574387	0	0
2024-10-18 06:28:47			0	37774	0	0	0	21488	20060	163631	27317	1057251	46344	107888	0	0	8196	574711	0	0
2024-10-18 06:29:47			0	37782	0	0	0	21472	20050	163667	27327	1057366	46366	107882	0	0	8197	574419	0	0
2024-10-18 06:30:47			0	37786	0	0	0	21480	20060	163607	27441	1057277	46377	107885	0	0	8197	574225	0	0
2024-10-18 06:31:47			0	37791	0	0	0	21488	20050	163579	27268	1057295	46367	107888	0	0	8197	574055	0	0
2024-10-18 06:32:47			0	37800	0	0	0	21485	20050	163503	26909	1057366	46376	107887	0	0	8197	573691	0	0
2024-10-18 06:33:47			0	37777	0	0	0	21480	20060	163463	27095	1057313	46357	107885	0	0	8196	574589	0	0
2024-10-18 06:34:47			0	37744	0	0	0	21477	20050	163719	27490	1057286	46376	107884	0	0	8194	575957	0	0
2024-10-18 06:35:47			0	37743	0	0	0	21472	20050	163931	26953	1057313	46376	107882	0	0	8194	575998	0	0
2024-10-18 06:36:47			0	37725	0	0	0	21472	20050	163931	27140	1057286	46366	107882	0	0	8193	576727	0	0
2024-10-18 06:37:47			0	37702	0	0	0	21475	20040	163931	27130	1057250	46366	107883	0	0	8192	577692	0	0
2024-10-18 06:38:47			0	37677	0	0	0	21472	20040	164083	26911	1057277	46366	107882	0	0	8190	578708	0	0
2024-10-18 06:39:47			0	37672	0	0	0	21480	20040	163991	27298	1057250	46366	107885	0	0	8190	578911	0	0
2024-10-18 06:40:47			0	37693	0	0	0	21475	20040	164027	27422	1057330	46355	107883	0	0	8191	578058	0	0
2024-10-18 06:41:47			0	37724	0	0	0	21483	20050	163859	27036	1057286	46376	107886	0	0	8193	576768	0	0
2024-10-18 06:42:47			0	37730	0	0	0	21483	20050	163831	27336	1057259	46355	107886	0	0	8193	576525	0	0
2024-10-18 06:43:47			0	37769	0	0	0	21480	20040	163739	27220	1057241	46365	107885	0	0	8196	574976	0	0
2024-10-18 06:44:47			0	37758	0	0	0	21470	20040	163763	27326	1057268	46375	107881	0	0	8195	575422	0	0
2024-10-18 06:45:47			0	37767	0	0	0	21467	20040	163759	27187	1057268	46365	107880	0	0	8196	575057	0	0
2024-10-18 06:46:47			0	37775	0	0	0	21470	20050	163707	27253	1057259	46366	107881	0	0	8196	574702	0	0
2024-10-18 06:47:47			0	37760	0	0	0	21470	20040	163631	26967	1057171	46376	107881	0	0	8195	575341	0	0
2024-10-18 06:48:47			0	37752	0	0	0	21470	20040	163719	26961	1057241	46354	107881	0	0	8195	575665	0	0
2024-10-18 06:49:47			0	37767	0	0	0	21457	20040	163763	26955	1057215	46342	107876	0	0	8196	575057	0	0
2024-10-18 06:50:47			0	37755	0	0	0	21464	20040	163715	27189	1057215	46365	107879	0	0	8195	575543	0	0
2024-10-18 06:51:47			0	37747	0	0	0	21462	20040	163735	27407	1057250	46366	107878	0	0	8195	575867	0	0
2024-10-18 06:52:47			0	37751	0	0	0	21467	20040	163711	26993	1057188	46354	107880	0	0	8195	575705	0	0
2024-10-18 06:53:47			0	37740	0	0	0	21472	20040	163783	27324	1057215	46365	107882	0	0	8194	576151	0	0
2024-10-18 06:54:47			0	37736	0	0	0	21457	20040	163723	27147	1057268	46365	107876	0	0	8194	576313	0	0
2024-10-18 06:55:47			0	37755	0	0	0	21459	20030	163767	27232	1057259	46354	107877	0	0	8195	575575	0	0
2024-10-18 06:56:47			0	37732	0	0	0	21459	20030	163847	27218	1057250	46353	107877	0	0	8194	576507	0	0
2024-10-18 06:57:47			0	37717	0	0	0	21449	20030	163895	27230	1057197	46375	107873	0	0	8193	577116	0	0
2024-10-18 06:58:47			0	37695	0	0	0	21451	20030	164007	27128	1057170	46364	107874	0	0	8192	578009	0	0
2024-10-18 06:59:47			0	37681	0	0	0	21449	20030	164175	27026	1057170	46353	107873	0	0	8191	578577	0	0
2024-10-18 07:00:47			0	37633	0	0	0	21451	20020	164243	27156	1057188	46353	107874	0	0	8188	580562	0	0
2024-10-18 07:01:47			0	37630	0	0	0	21449	20020	164315	27301	1057179	46363	107873	0	0	8188	580684	0	0
2024-10-18 07:02:47			0	37615	0	0	0	21441	20030	164295	27396	1057170	46375	107870	0	0	8187	581264	0	0
2024-10-18 07:03:47			0	37589	0	0	0	21444	20010	164387	27036	1057064	46352	107871	0	0	8185	582388	0	0
2024-10-18 07:04:47			0	37572	0	0	0	21444	20020	164407	27298	1057161	46341	107871	0	0	8185	583050	0	0
2024-10-18 07:05:47			0	37587	0	0	0	21444	20010	164451	27310	1057117	46363	107871	0	0	8185	582470	0	0
2024-10-18 07:06:47			0	37587	0	0	0	21433	20020	164479	27258	1057135	46364	107867	0	0	8186	582438	0	0
2024-10-18 07:07:47			0	37567	0	0	0	21441	20020	164591	27270	1057108	46364	107870	0	0	8184	583254	0	0
2024-10-18 07:08:47			0	37552	0	0	0	21444	20020	164559	27227	1057099	46363	107871	0	0	8183	583868	0	0
2024-10-18 07:09:47			0	37582	0	0	0	21451	20010	164511	26934	1057143	46363	107874	0	0	8185	582674	0	0
2024-10-18 07:10:47			0	37628	0	0	0	21449	20020	164363	27102	1057188	46353	107873	0	0	8188	580766	0	0
2024-10-18 07:11:47			0	37645	0	0	0	21459	20020	164279	27277	1057126	46363	107877	0	0	8189	580074	0	0
2024-10-18 07:12:47			0	37682	0	0	0	21457	20020	164163	27199	1057152	46384	107876	0	0	8191	578569	0	0
2024-10-18 07:13:47			0	37695	0	0	0	21457	20010	163983	27183	1057170	46374	107876	0	0	8192	578072	0	0
2024-10-18 07:14:47			0	37710	0	0	0	21454	20010	163915	26996	1057143	46340	107875	0	0	8193	577463	0	0
2024-10-18 07:15:47			0	37718	0	0	0	21449	20010	163783	27178	1057090	46363	107873	0	0	8193	577139	0	0
2024-10-18 07:16:47			0	37732	0	0	0	21462	20020	163747	27280	1057135	46353	107878	0	0	8194	576539	0	0
2024-10-18 07:17:47			0	37764	0	0	0	21457	20020	163679	27199	1057126	46363	107876	0	0	8196	575242	0	0
2024-10-18 07:18:47			0	37801	0	0	0	21464	20030	163439	27213	1057144	46364	107879	0	0	8198	573714	0	0
2024-10-18 07:19:47			0	37803	0	0	0	21462	20020	163547	27168	1057152	46374	107878	0	0	8198	573664	0	0
2024-10-18 07:20:47			0	37798	0	0	0	21462	20020	163655	27130	1057152	46374	107878	0	0	8198	573867	0	0
2024-10-18 07:21:47			0	37789	0	0	0	21459	20020	163587	27301	1057232	46374	107877	0	0	8197	574230	0	0
2024-10-18 07:22:47			0	37784	0	0	0	21457	20030	163679	27050	1057117	46375	107876	0	0	8197	574401	0	0
2024-10-18 07:23:47			0	37740	0	0	0	21449	20030	163815	27327	1057153	46354	107873	0	0	8194	576183	0	0
2024-10-18 07:24:47			0	37737	0	0	0	21449	20020	163939	27074	1057152	46374	107873	0	0	8194	576336	0	0
2024-10-18 07:25:47			0	37669	0	0	0	21438	20020	164039	27261	1057179	46374	107869	0	0	8190	579097	0	0
2024-10-18 07:26:47			0	37637	0	0	0	21441	20020	164207	27492	1057206	46374	107870	0	0	8188	580399	0	0
2024-10-18 07:27:47			0	37645	0	0	0	21446	20020	164199	27249	1057126	46374	107872	0	0	8189	580074	0	0
2024-10-18 07:28:47			0	37691	0	0	0	21454	20010	164091	27137	1057170	46352	107875	0	0	8191	578235	0	0
2024-10-18 07:29:47			0	37696	0	0	0	21462	20010	163955	27312	1057161	46362	107878	0	0	8192	578032	0	0
2024-10-18 07:30:47			0	37730	0	0	0	21454	20020	163871	27324	1057188	46364	107875	0	0	8194	576620	0	0
2024-10-18 07:31:47			0	37768	0	0	0	21451	20020	163631	27244	1057135	46364	107874	0	0	8196	575080	0	0
2024-10-18 07:32:47			0	37808	0	0	0	21459	20020	163519	27142	1057135	46364	107877	0	0	8198	573462	0	0
2024-10-18 07:33:47			0	37838	0	0	0	21457	20010	163391	27208	1057117	46374	107876	0	0	8200	572282	0	0
2024-10-18 07:34:47			0	37857	0	0	0	21454	20020	163355	26894	1057161	46375	107875	0	0	8201	571484	0	0
2024-10-18 07:35:47			0	37872	0	0	0	21451	20020	163283	27234	1057126	46363	107874	0	0	8202	570880	0	0
2024-10-18 07:36:47			0	37880	0	0	0	21457	20020	163131	27031	1057135	46353	107876	0	0	8203	570557	0	0
2024-10-18 07:37:47			0	37900	0	0	0	21459	20020	163123	27263	1057179	46374	107877	0	0	8204	569752	0	0
2024-10-18 07:38:47			0	37901	0	0	0	21457	20020	163199	27249	1057188	46364	107876	0	0	8204	569712	0	0
2024-10-18 07:39:47			0	37897	0	0	0	21454	20020	163167	27265	1057206	46352	107875	0	0	8204	569873	0	0
2024-10-18 07:40:47			0	37901	0	0	0	21449	20020	163155	26883	1057206	46374	107873	0	0	8204	569712	0	0
2024-10-18 07:41:47			0	37880	0	0	0	21449	20020	163247	26783	1057161	46375	107873	0	0	8203	570557	0	0
2024-10-18 07:42:47			0	37856	0	0	0	21446	20010	163243	27281	1057143	46352	107872	0	0	8201	571556	0	0
2024-10-18 07:43:47			0	37853	0	0	0	21449	20020	163343	27206	1057188	46364	107873	0	0	8201	571646	0	0
2024-10-18 07:44:47			0	37866	0	0	0	21446	20020	163335	27111	1057179	46363	107872	0	0	8202	571122	0	0
2024-10-18 07:45:47			0	37824	0	0	0	21459	20020	163527	27046	1057161	46375	107877	0	0	8199	572816	0	0
2024-10-18 07:46:47			0	37806	0	0	0	21451	20020	163631	27242	1057188	46364	107874	0	0	8198	573543	0	0
2024-10-18 07:47:47			0	37766	0	0	0	21451	20020	163683	27235	1057179	46363	107874	0	0	8196	575161	0	0
2024-10-18 07:48:47			0	37738	0	0	0	21444	20010	163911	27111	1057117	46352	107871	0	0	8194	576327	0	0
2024-10-18 07:49:47			0	37710	0	0	0	21438	20020	163863	26687	1057099	46363	107869	0	0	8193	577431	0	0
2024-10-18 07:50:47			0	37666	0	0	0	21436	20020	164103	27076	1057152	46352	107868	0	0	8190	579219	0	0
2024-10-18 07:51:47			0	37669	0	0	0	21446	20010	164263	27183	1057090	46363	107872	0	0	8190	579129	0	0
2024-10-18 07:52:47			0	37665	0	0	0	21446	20010	164143	27053	1057108	46362	107872	0	0	8190	579292	0	0
2024-10-18 07:53:47			0	37692	0	0	0	21444	20010	164007	27095	1057170	46374	107871	0	0	8192	578194	0	0
2024-10-18 07:54:47			0	37687	0	0	0	21444	20010	163955	27121	1057117	46352	107871	0	0	8191	578397	0	0
2024-10-18 07:55:47			0	37680	0	0	0	21444	20010	163971	27086	1057135	46351	107871	0	0	8191	578682	0	0
2024-10-18 07:56:47			0	37679	0	0	0	21436	20010	164039	27038	1057135	46362	107868	0	0	8191	578722	0	0
2024-10-18 07:57:47			0	37696	0	0	0	21431	20010	164023	27175	1057143	46352	107866	0	0	8192	578032	0	0
2024-10-18 07:58:47			0	37707	0	0	0	21436	20000	163935	27218	1057152	46351	107868	0	0	8193	577617	0	0
2024-10-18 07:59:47			0	37713	0	0	0	21431	20000	163907	27395	1057099	46339	107866	0	0	8193	577373	0	0
2024-10-18 08:00:47			0	37693	0	0	0	21436	20010	163955	27307	1057108	46362	107868	0	0	8192	578153	0	0
2024-10-18 08:01:47			0	37679	0	0	0	21428	20010	163987	27043	1057117	46363	107865	0	0	8191	578722	0	0
2024-10-18 08:02:47			0	37653	0	0	0	21428	20010	164159	27074	1057108	46373	107865	0	0	8190	579780	0	0
2024-10-18 08:03:47			0	37617	0	0	0	21428	20010	164283	27215	1057135	46362	107865	0	0	8187	581246	0	0
2024-10-18 08:04:47			0	37572	0	0	0	21420	20010	164419	26811	1057117	46363	107862	0	0	8185	583082	0	0
2024-10-18 08:05:47			0	37580	0	0	0	21420	20010	164563	27332	1057055	46362	107862	0	0	8185	582756	0	0
2024-10-18 08:06:47			0	37545	0	0	0	21423	20000	164667	27339	1057037	46350	107863	0	0	8183	584218	0	0
2024-10-18 08:07:47			0	37531	0	0	0	21418	20010	164723	27317	1057081	46362	107861	0	0	8182	584759	0	0
2024-10-18 08:08:47			0	37537	0	0	0	21423	20000	164679	27185	1057090	46372	107863	0	0	8183	584545	0	0
2024-10-18 08:09:47			0	37557	0	0	0	21425	19990	164727	27246	1057028	46360	107864	0	0	8184	583760	0	0
2024-10-18 08:10:47			0	37550	0	0	0	21423	20000	164623	27066	1057037	46361	107863	0	0	8183	584014	0	0
2024-10-18 08:11:47			0	37582	0	0	0	21428	19990	164531	27156	1056992	46360	107865	0	0	8185	582738	0	0
2024-10-18 08:12:47			0	37589	0	0	0	21423	20000	164523	26783	1057090	46372	107863	0	0	8186	582420	0	0
2024-10-18 08:13:47			0	37605	0	0	0	21425	19990	164463	27145	1057055	46371	107864	0	0	8187	581800	0	0
2024-10-18 08:14:47			0	37587	0	0	0	21425	20000	164527	27282	1057117	46361	107864	0	0	8186	582502	0	0
2024-10-18 08:15:47			0	37580	0	0	0	21423	19990	164567	27003	1057108	46371	107863	0	0	8185	582820	0	0
2024-10-18 08:16:47			0	37562	0	0	0	21407	19990	164591	27038	1057046	46349	107857	0	0	8184	583555	0	0
2024-10-18 08:17:47			0	37551	0	0	0	21399	20000	164619	26989	1057046	46351	107854	0	0	8184	583973	0	0
2024-10-18 08:18:47			0	37529	0	0	0	21394	19990	164739	27182	1057055	46349	107852	0	0	8183	584905	0	0
2024-10-18 08:19:47			0	37527	0	0	0	21397	19990	164707	27267	1057028	46360	107853	0	0	8183	584987	0	0
2024-10-18 08:20:47			0	37523	0	0	0	21402	19980	164687	27076	1056948	46359	107855	0	0	8182	585183	0	0
2024-10-18 08:21:47			0	37534	0	0	0	21407	19990	164691	27248	1056966	46371	107857	0	0	8183	584700	0	0
2024-10-18 08:22:47			0	37524	0	0	0	21405	19990	164763	26937	1056966	46371	107856	0	0	8182	585110	0	0
2024-10-18 08:23:47			0	37521	0	0	0	21412	19980	164855	27183	1057001	46359	107859	0	0	8182	585265	0	0
2024-10-18 08:24:47			0	37542	0	0	0	21412	19980	164755	27421	1056948	46347	107859	0	0	8183	584405	0	0
2024-10-18 08:25:47			0	37536	0	0	0	21407	19980	164603	27126	1056983	46349	107857	0	0	8183	584651	0	0
2024-10-18 08:26:47			0	37557	0	0	0	21397	19980	164563	27164	1056895	46347	107853	0	0	8184	583792	0	0
2024-10-18 08:27:47			0	37560	0	0	0	21405	19980	164515	27183	1057037	46371	107856	0	0	8184	583669	0	0
2024-10-18 08:28:47			0	37579	0	0	0	21402	19970	164567	27372	1056992	46358	107855	0	0	8185	582925	0	0
2024-10-18 08:29:47			0	37602	0	0	0	21412	19980	164519	26923	1056948	46359	107859	0	0	8187	581954	0	0
2024-10-18 08:30:47			0	37605	0	0	0	21410	19980	164447	27102	1057028	46359	107858	0	0	8187	581832	0	0
2024-10-18 08:31:47			0	37614	0	0	0	21402	19970	164459	27076	1056939	46358	107855	0	0	8188	581497	0	0
2024-10-18 08:32:47			0	37603	0	0	0	21407	19980	164547	27168	1056957	46371	107857	0	0	8187	581913	0	0
2024-10-18 08:33:47			0	37594	0	0	0	21407	19970	164347	27013	1056956	46358	107857	0	0	8186	582313	0	0
2024-10-18 08:34:47			0	37618	0	0	0	21410	19980	164375	27268	1057028	46359	107858	0	0	8188	581302	0	0
2024-10-18 08:35:47			0	37633	0	0	0	21402	19970	164287	27244	1056956	46335	107855	0	0	8189	580722	0	0
2024-10-18 08:36:47			0	37622	0	0	0	21394	19970	164255	27495	1056966	46358	107852	0	0	8188	581170	0	0
2024-10-18 08:37:47			0	37598	0	0	0	21399	19980	164359	27069	1056948	46359	107854	0	0	8187	582117	0	0
2024-10-18 08:38:47			0	37610	0	0	0	21402	19970	164271	27350	1056939	46358	107855	0	0	8187	581660	0	0
2024-10-18 08:39:47			0	37643	0	0	0	21415	19960	164199	27268	1056921	46345	107860	0	0	8189	580347	0	0
2024-10-18 08:40:47			0	37664	0	0	0	21420	19980	164023	27390	1057001	46359	107862	0	0	8190	579428	0	0
2024-10-18 08:41:47			0	37674	0	0	0	21407	19980	164115	27156	1057001	46347	107857	0	0	8191	579021	0	0
2024-10-18 08:42:47			0	37681	0	0	0	21410	19970	164067	27048	1056966	46369	107858	0	0	8191	578769	0	0
2024-10-18 08:43:47			0	37690	0	0	0	21415	19970	164087	27033	1056966	46358	107860	0	0	8192	578403	0	0
2024-10-18 08:44:47			0	37679	0	0	0	21405	19970	164107	27055	1056966	46358	107856	0	0	8191	578850	0	0
2024-10-18 08:45:47			0	37682	0	0	0	21407	19980	164147	27291	1057001	46370	107857	0	0	8191	578696	0	0
2024-10-18 08:46:47			0	37687	0	0	0	21402	19980	164311	27144	1056983	46360	107855	0	0	8192	578493	0	0
2024-10-18 08:47:47			0	37654	0	0	0	21397	19980	164131	26823	1056930	46360	107853	0	0	8190	579835	0	0
2024-10-18 08:48:47			0	37658	0	0	0	21392	19980	164363	27237	1057001	46359	107851	0	0	8190	579672	0	0
2024-10-18 08:49:47			0	37648	0	0	0	21394	19970	164243	27260	1056939	46346	107852	0	0	8190	580111	0	0
2024-10-18 08:50:47			0	37637	0	0	0	21392	19980	164311	27074	1057001	46359	107851	0	0	8189	580527	0	0
2024-10-18 08:51:47			0	37612	0	0	0	21394	19970	164391	27265	1056912	46358	107852	0	0	8188	581578	0	0
2024-10-18 08:52:47			0	37620	0	0	0	21394	19970	164455	27265	1056912	46358	107852	0	0	8188	581252	0	0
2024-10-18 08:53:47			0	37645	0	0	0	21407	19980	164335	27431	1056975	46359	107857	0	0	8189	580202	0	0
2024-10-18 08:54:47			0	37652	0	0	0	21412	19970	164239	27052	1056876	46379	107859	0	0	8190	579948	0	0
2024-10-18 08:55:47			0	37700	0	0	0	21410	19970	164131	27187	1056939	46358	107858	0	0	8192	577997	0	0
2024-10-18 08:56:47			0	37679	0	0	0	21399	19970	164139	27114	1056966	46358	107854	0	0	8191	578850	0	0
2024-10-18 08:57:47			0	37694	0	0	0	21399	19970	164099	27197	1056939	46358	107854	0	0	8192	578240	0	0
2024-10-18 08:58:47			0	37700	0	0	0	21402	19970	164139	27305	1056930	46358	107855	0	0	8193	577997	0	0
2024-10-18 08:59:47			0	37701	0	0	0	21410	19980	164083	27497	1057001	46359	107858	0	0	8193	577924	0	0
2024-10-18 09:00:47			0	37708	0	0	0	21412	19980	164171	27435	1057001	46347	107859	0	0	8193	577640	0	0
2024-10-18 09:01:47			0	37724	0	0	0	21407	19980	164023	26965	1056975	46359	107857	0	0	8194	576991	0	0
2024-10-18 09:02:47			0	37747	0	0	0	21405	19970	163975	27348	1057019	46358	107856	0	0	8195	576090	0	0
2024-10-18 09:03:47			0	37735	0	0	0	21407	19970	163955	27213	1057009	46358	107857	0	0	8195	576576	0	0
2024-10-18 09:04:47			0	37728	0	0	0	21407	19970	163799	27012	1056992	46369	107857	0	0	8194	576860	0	0
2024-10-18 09:05:47			0	37757	0	0	0	21418	19980	163883	27189	1057054	46359	107861	0	0	8196	575653	0	0
2024-10-18 09:06:47			0	37745	0	0	0	21420	19970	163875	27414	1057036	46369	107862	0	0	8195	576171	0	0
2024-10-18 09:07:47			0	37773	0	0	0	21410	19960	163755	27149	1056974	46368	107858	0	0	8197	575068	0	0
2024-10-18 09:08:47			0	37771	0	0	0	21415	19970	163895	27367	1056992	46358	107860	0	0	8197	575117	0	0
2024-10-18 09:09:47			0	37780	0	0	0	21410	19980	163815	27173	1056948	46370	107858	0	0	8197	574721	0	0
2024-10-18 09:10:47			0	37772	0	0	0	21402	19980	163783	27229	1057001	46347	107855	0	0	8197	575045	0	0
2024-10-18 09:11:47			0	37783	0	0	0	21405	19980	163799	27197	1057081	46359	107856	0	0	8198	574600	0	0
2024-10-18 09:12:47			0	37781	0	0	0	21415	19980	163783	26965	1057001	46347	107860	0	0	8197	574681	0	0
2024-10-18 09:13:47			0	37786	0	0	0	21418	19980	163703	27067	1057054	46359	107861	0	0	8197	574479	0	0
2024-10-18 09:14:47			0	37793	0	0	0	21415	19970	163675	27358	1056992	46358	107860	0	0	8198	574227	0	0
2024-10-18 09:15:47			0	37808	0	0	0	21418	19980	163663	27396	1057010	46360	107861	0	0	8199	573589	0	0
2024-10-18 09:16:47			0	37798	0	0	0	21415	19970	163631	27180	1057019	46358	107860	0	0	8198	574025	0	0
2024-10-18 09:17:47			0	37819	0	0	0	21420	19970	163631	27187	1056992	46358	107862	0	0	8199	573176	0	0
2024-10-18 09:18:47			0	37818	0	0	0	21412	19980	163443	27303	1057010	46360	107859	0	0	8199	573185	0	0
2024-10-18 09:19:47			0	37827	0	0	0	21418	19990	163559	27187	1056992	46360	107861	0	0	8200	572790	0	0
2024-10-18 09:20:47			0	37827	0	0	0	21415	19980	163511	26859	1057010	46371	107860	0	0	8200	572821	0	0
2024-10-18 09:21:47			0	37832	0	0	0	21418	19980	163631	27069	1057010	46360	107861	0	0	8200	572619	0	0
2024-10-18 09:22:47			0	37798	0	0	0	21418	19980	163591	27312	1057001	46336	107861	0	0	8198	573993	0	0
2024-10-18 09:23:47			0	37817	0	0	0	21410	19980	163603	27403	1056983	46360	107858	0	0	8199	573225	0	0
2024-10-18 09:24:47			0	37811	0	0	0	21399	19990	163599	27029	1056992	46360	107854	0	0	8199	573436	0	0
2024-10-18 09:25:47			0	37800	0	0	0	21405	19980	163679	27428	1057037	46360	107856	0	0	8199	573912	0	0
2024-10-18 09:26:47			0	37781	0	0	0	21405	19990	163731	27161	1057019	46349	107856	0	0	8197	574649	0	0
2024-10-18 09:27:47			0	37783	0	0	0	21412	19970	163743	26961	1056983	46369	107859	0	0	8197	574632	0	0
2024-10-18 09:28:47			0	37782	0	0	0	21412	19980	163707	27140	1057001	46370	107859	0	0	8197	574640	0	0
2024-10-18 09:29:47			0	37785	0	0	0	21415	19980	163647	27185	1057037	46371	107860	0	0	8197	574519	0	0
2024-10-18 09:30:47			0	37800	0	0	0	21420	19980	163711	27144	1056948	46359	107862	0	0	8198	573912	0	0
2024-10-18 09:31:47			0	37800	0	0	0	21407	19980	163751	27209	1057001	46370	107857	0	0	8198	573912	0	0
2024-10-18 09:32:47			0	37800	0	0	0	21410	19980	163735	27123	1057028	46347	107858	0	0	8198	573912	0	0
2024-10-18 09:33:47			0	37799	0	0	0	21412	19980	163739	27289	1056983	46349	107859	0	0	8198	573953	0	0
2024-10-18 09:34:47			0	37791	0	0	0	21402	19980	163695	27256	1057001	46359	107855	0	0	8198	574276	0	0
2024-10-18 09:35:47			0	37799	0	0	0	21412	19980	163763	27433	1057037	46360	107859	0	0	8198	573953	0	0
2024-10-18 09:36:47			0	37779	0	0	0	21407	19980	163663	27114	1057001	46359	107857	0	0	8197	574762	0	0
2024-10-18 09:37:47			0	37787	0	0	0	21407	19970	163647	27319	1056939	46346	107857	0	0	8198	574470	0	0
2024-10-18 09:38:47			0	37785	0	0	0	21405	19970	163723	27563	1057019	46358	107856	0	0	8198	574551	0	0
2024-10-18 09:39:47			0	37762	0	0	0	21407	19980	163783	27580	1056983	46360	107857	0	0	8196	575450	0	0
2024-10-18 09:40:47			0	37745	0	0	0	21405	19980	163835	27140	1056975	46347	107856	0	0	8195	576139	0	0
2024-10-18 09:41:47			0	37768	0	0	0	21402	19970	163755	27654	1057019	46369	107855	0	0	8197	575239	0	0
2024-10-18 09:42:47			0	37742	0	0	0	21394	19960	163787	27414	1056974	46368	107852	0	0	8195	576324	0	0
2024-10-18 09:43:47			0	37720	0	0	0	21384	19970	163939	27235	1056983	46358	107848	0	0	8194	577185	0	0
2024-10-18 09:44:47			0	37715	0	0	0	21394	19970	163923	27261	1056886	46358	107852	0	0	8194	577388	0	0
2024-10-18 09:45:47			0	37707	0	0	0	21402	19970	164023	27189	1056983	46335	107855	0	0	8193	577712	0	0
2024-10-18 09:46:47			0	37695	0	0	0	21389	19950	164035	27258	1056903	46344	107850	0	0	8192	578263	0	0
2024-10-18 09:47:47			0	37717	0	0	0	21405	19970	164007	27066	1056939	46369	107856	0	0	8194	577306	0	0
2024-10-18 09:48:47			0	37722	0	0	0	21392	19960	163947	27377	1056894	46357	107851	0	0	8194	577135	0	0
2024-10-18 09:49:47			0	37736	0	0	0	21397	19970	163899	27270	1056966	46346	107853	0	0	8195	576536	0	0
2024-10-18 09:50:47			0	37749	0	0	0	21405	19960	163811	27544	1056921	46345	107856	0	0	8195	576040	0	0
2024-10-18 09:51:47			0	37765	0	0	0	21412	19970	163871	27419	1056956	46369	107859	0	0	8196	575360	0	0
2024-10-18 09:52:47			0	37791	0	0	0	21418	19970	163883	27447	1056992	46369	107861	0	0	8198	574308	0	0
2024-10-18 09:53:47			0	37787	0	0	0	21418	19960	163707	27230	1056921	46357	107861	0	0	8197	574501	0	0
2024-10-18 09:54:47			0	37807	0	0	0	21418	19970	163675	27246	1057019	46358	107861	0	0	8199	573661	0	0
2024-10-18 09:55:47			0	37837	0	0	0	21423	19960	163735	27293	1056974	46357	107863	0	0	8200	572480	0	0
2024-10-18 09:56:47			0	37827	0	0	0	21418	19970	163531	26987	1056992	46369	107861	0	0	8200	572853	0	0
2024-10-18 09:57:47			0	37834	0	0	0	21410	19980	163523	27112	1056957	46360	107858	0	0	8200	572539	0	0
2024-10-18 09:58:47			0	37843	0	0	0	21423	19980	163555	27286	1057010	46360	107863	0	0	8201	572175	0	0
2024-10-18 09:59:47			0	37854	0	0	0	21418	19980	163427	27218	1057028	46359	107861	0	0	8201	571731	0	0
2024-10-18 10:00:47			0	37863	0	0	0	21415	19980	163447	27085	1057001	46370	107860	0	0	8202	571369	0	0
2024-10-18 10:01:47			0	37864	0	0	0	21423	19980	163375	27199	1057028	46370	107863	0	0	8202	571328	0	0
2024-10-18 10:02:47			0	37854	0	0	0	21418	19980	163391	27329	1057001	46370	107861	0	0	8201	571731	0	0
2024-10-18 10:03:47			0	37865	0	0	0	21415	19980	163423	26970	1057063	46360	107860	0	0	8202	571288	0	0
2024-10-18 10:04:47			0	37858	0	0	0	21418	19990	163327	27258	1057072	46360	107861	0	0	8202	571539	0	0
2024-10-18 10:05:47			0	37857	0	0	0	21425	19980	163335	27440	1057090	46360	107864	0	0	8202	571611	0	0
2024-10-18 10:06:47			0	37866	0	0	0	21425	19970	163255	27251	1057045	46369	107864	0	0	8202	571279	0	0
2024-10-18 10:07:47			0	37888	0	0	0	21423	19980	163171	27284	1057063	46360	107863	0	0	8203	570361	0	0
2024-10-18 10:08:47			0	37926	0	0	0	21431	19980	163131	27284	1057081	46359	107866	0	0	8206	568832	0	0
2024-10-18 10:09:47			0	37914	0	0	0	21425	19990	163151	27345	1057108	46371	107864	0	0	8205	569283	0	0
2024-10-18 10:10:47			0	37909	0	0	0	21428	19980	163175	27163	1057037	46371	107865	0	0	8205	569516	0	0
2024-10-18 10:11:47			0	37916	0	0	0	21423	19990	163151	27029	1057099	46360	107863	0	0	8205	569203	0	0
2024-10-18 10:12:47			0	37906	0	0	0	21428	19980	163119	27249	1057063	46360	107865	0	0	8204	569637	0	0
2024-10-18 10:13:47			0	37933	0	0	0	21433	19990	163159	27467	1057099	46349	107867	0	0	8206	568519	0	0
2024-10-18 10:14:47			0	37945	0	0	0	21428	19990	163087	27003	1057072	46360	107865	0	0	8207	568037	0	0
2024-10-18 10:15:47			0	37937	0	0	0	21438	19990	163103	27248	1057099	46381	107869	0	0	8206	568359	0	0
2024-10-18 10:16:47			0	37951	0	0	0	21420	19990	163083	27396	1057134	46360	107862	0	0	8207	567796	0	0
2024-10-18 10:17:47			0	37940	0	0	0	21441	19990	163031	26854	1057072	46360	107870	0	0	8206	568238	0	0
2024-10-18 10:18:47			0	37949	0	0	0	21431	19990	163079	27258	1057081	46371	107866	0	0	8207	567876	0	0
2024-10-18 10:19:47			0	37950	0	0	0	21431	19990	162911	26993	1057081	46349	107866	0	0	8207	567836	0	0
2024-10-18 10:20:47			0	37955	0	0	0	21433	19980	162923	26759	1057063	46349	107867	0	0	8207	567667	0	0
2024-10-18 10:21:47			0	37952	0	0	0	21431	19980	163063	26687	1057116	46360	107866	0	0	8207	567787	0	0
2024-10-18 10:22:47			0	37955	0	0	0	21423	19990	162975	26856	1057099	46360	107863	0	0	8207	567635	0	0
2024-10-18 10:23:47			0	37961	0	0	0	21436	19990	162839	26720	1057108	46371	107868	0	0	8208	567395	0	0
2024-10-18 10:24:47			0	37936	0	0	0	21428	19990	162919	27183	1057072	46360	107865	0	0	8206	568399	0	0
2024-10-18 10:25:47			0	37965	0	0	0	21438	19990	162883	27020	1057055	46360	107869	0	0	8208	567234	0	0
2024-10-18 10:26:47			0	37970	0	0	0	21438	20000	162743	27291	1057063	46372	107869	0	0	8208	567002	0	0
2024-10-18 10:27:47			0	37971	0	0	0	21436	19990	162807	27277	1057134	46371	107868	0	0	8208	566993	0	0
2024-10-18 10:28:47			0	37994	0	0	0	21433	20000	162811	27203	1057090	46372	107867	0	0	8210	566040	0	0
2024-10-18 10:29:47			0	38013	0	0	0	21444	19990	162775	27005	1057081	46360	107871	0	0	8210	565310	0	0
2024-10-18 10:30:47			0	38006	0	0	0	21438	20000	162659	27092	1057170	46361	107869	0	0	8210	565559	0	0
2024-10-18 10:31:47			0	38001	0	0	0	21441	20010	162591	27066	1057143	46374	107870	0	0	8210	565728	0	0
2024-10-18 10:32:47			0	38043	0	0	0	21438	19990	162544	27176	1057108	46371	107869	0	0	8212	564109	0	0
2024-10-18 10:33:47			0	38032	0	0	0	21444	20000	162656	26977	1057143	46350	107871	0	0	8212	564518	0	0
2024-10-18 10:34:47			0	38040	0	0	0	21438	20000	162620	26896	1057090	46361	107869	0	0	8212	564198	0	0
2024-10-18 10:35:47			0	38060	0	0	0	21444	20000	162488	27223	1057126	46362	107871	0	0	8213	563398	0	0
2024-10-18 10:36:47			0	38040	0	0	0	21444	20000	162544	26790	1057126	46362	107871	0	0	8212	564198	0	0
2024-10-18 10:37:47			0	38048	0	0	0	21446	20000	162644	26998	1057063	46361	107872	0	0	8213	563878	0	0
2024-10-18 10:38:47			0	38019	0	0	0	21444	20010	162703	27241	1057161	46373	107871	0	0	8211	565007	0	0
2024-10-18 10:39:47			0	38026	0	0	0	21441	20000	162643	26904	1057090	46338	107870	0	0	8211	564758	0	0
2024-10-18 10:40:47			0	38014	0	0	0	21433	19990	162619	27227	1057125	46360	107867	0	0	8211	565270	0	0
2024-10-18 10:41:47			0	38026	0	0	0	21441	20010	162640	27265	1057161	46362	107870	0	0	8211	564727	0	0
2024-10-18 10:42:47			0	38011	0	0	0	21441	19990	162703	27118	1057108	46371	107870	0	0	8210	565390	0	0
2024-10-18 10:43:47			0	38018	0	0	0	21444	20000	162731	27050	1057152	46362	107871	0	0	8211	565078	0	0
2024-10-18 10:44:47			0	38033	0	0	0	21436	20000	162639	26788	1057152	46351	107868	0	0	8212	564478	0	0
2024-10-18 10:45:47			0	38018	0	0	0	21444	20010	162643	26902	1057188	46362	107871	0	0	8211	565047	0	0
2024-10-18 10:46:47			0	38024	0	0	0	21433	20010	162807	27234	1057161	46351	107867	0	0	8211	564807	0	0
2024-10-18 10:47:47			0	38019	0	0	0	21438	20010	162675	27203	1057161	46351	107869	0	0	8211	565007	0	0
2024-10-18 10:48:47			0	38008	0	0	0	21441	20000	162755	27303	1057126	46362	107870	0	0	8210	565479	0	0
2024-10-18 10:49:47			0	38014	0	0	0	21438	20000	162716	27334	1057117	46372	107869	0	0	8211	565239	0	0
2024-10-18 10:50:47			0	38006	0	0	0	21441	20000	162623	27102	1057126	46373	107870	0	0	8210	565559	0	0
2024-10-18 10:51:47			0	38017	0	0	0	21433	20000	162655	27409	1057223	46372	107867	0	0	8211	565118	0	0
2024-10-18 10:52:47			0	38023	0	0	0	21444	20000	162631	27381	1057143	46372	107871	0	0	8211	564878	0	0
2024-10-18 10:53:47			0	38045	0	0	0	21444	20000	162628	27128	1057090	46372	107871	0	0	8212	563998	0	0
2024-10-18 10:54:47			0	38025	0	0	0	21446	20000	162639	27324	1057170	46372	107872	0	0	8211	564798	0	0
2024-10-18 10:55:47			0	38040	0	0	0	21441	20010	162708	27405	1057161	46373	107870	0	0	8212	564167	0	0
2024-10-18 10:56:47			0	38031	0	0	0	21446	20010	162615	27211	1057143	46352	107872	0	0	8212	564527	0	0
2024-10-18 10:57:47			0	38032	0	0	0	21446	20010	162700	27331	1057197	46352	107872	0	0	8212	564487	0	0
2024-10-18 10:58:47			0	38021	0	0	0	21436	20000	162783	27312	1057179	46362	107868	0	0	8211	564958	0	0
2024-10-18 10:59:47			0	38024	0	0	0	21441	20010	162595	27220	1057170	46363	107870	0	0	8211	564807	0	0
2024-10-18 11:00:47			0	38043	0	0	0	21444	20010	162620	27383	1057161	46362	107871	0	0	8212	564047	0	0
2024-10-18 11:01:47			0	38025	0	0	0	21446	20010	162619	27100	1057170	46363	107872	0	0	8211	564767	0	0
2024-10-18 11:02:47			0	38040	0	0	0	21438	20000	162536	26847	1057223	46372	107869	0	0	8212	564198	0	0
2024-10-18 11:03:47			0	38041	0	0	0	21449	20010	162580	27090	1057188	46373	107873	0	0	8212	564127	0	0
2024-10-18 11:04:47			0	38060	0	0	0	21446	20010	162564	27064	1057214	46351	107872	0	0	8213	563367	0	0
2024-10-18 11:05:47			0	38052	0	0	0	21451	20000	162636	27357	1057232	46362	107874	0	0	8213	563718	0	0
2024-10-18 11:06:47			0	38047	0	0	0	21446	20010	162564	27229	1057161	46362	107872	0	0	8213	563887	0	0
2024-10-18 11:07:47			0	38049	0	0	0	21438	20010	162592	27277	1057170	46374	107869	0	0	8213	563807	0	0
2024-10-18 11:08:47			0	38062	0	0	0	21441	20010	162584	27371	1057188	46362	107870	0	0	8214	563287	0	0
2024-10-18 11:09:47			0	38050	0	0	0	21441	20010	162700	27149	1057214	46383	107870	0	0	8213	563767	0	0
2024-10-18 11:10:47			0	38048	0	0	0	21446	20020	162652	27272	1057206	46352	107872	0	0	8213	563816	0	0
2024-10-18 11:11:47			0	38044	0	0	0	21451	20000	162636	27183	1057152	46362	107874	0	0	8212	564038	0	0
2024-10-18 11:12:47			0	38027	0	0	0	21436	20010	162679	27663	1057143	46374	107868	0	0	8212	564687	0	0
2024-10-18 11:13:47			0	38017	0	0	0	21446	20010	162636	27505	1057135	46362	107872	0	0	8211	565087	0	0
2024-10-18 11:14:47			0	38016	0	0	0	21449	20010	162703	27218	1057161	46373	107873	0	0	8211	565127	0	0
2024-10-18 11:15:47			0	38012	0	0	0	21441	20020	162635	27393	1057206	46363	107870	0	0	8211	565256	0	0
2024-10-18 11:16:47			0	38005	0	0	0	21446	20010	162603	27580	1057143	46363	107872	0	0	8210	565568	0	0
2024-10-18 11:17:47			0	38007	0	0	0	21451	20010	162711	27293	1057161	46351	107874	0	0	8210	565488	0	0
2024-10-18 11:18:47			0	37998	0	0	0	21446	20010	162739	27196	1057161	46362	107872	0	0	8210	565848	0	0
2024-10-18 11:19:47			0	38011	0	0	0	21441	20000	162771	27569	1057196	46361	107870	0	0	8210	565359	0	0
2024-10-18 11:20:47			0	37997	0	0	0	21444	20010	162763	27085	1057214	46373	107871	0	0	8210	565888	0	0
2024-10-18 11:21:47			0	38013	0	0	0	21451	20020	162631	27225	1057206	46352	107874	0	0	8210	565216	0	0
2024-10-18 11:22:47			0	38018	0	0	0	21451	20010	162631	26923	1057170	46363	107874	0	0	8211	565047	0	0
2024-10-18 11:23:47			0	38023	0	0	0	21441	20010	162675	27066	1057241	46383	107870	0	0	8211	564847	0	0
2024-10-18 11:24:47			0	38034	0	0	0	21457	20010	162636	27196	1057223	46363	107876	0	0	8212	564407	0	0
2024-10-18 11:25:47			0	38017	0	0	0	21446	20020	162551	27426	1057206	46363	107872	0	0	8211	565056	0	0
2024-10-18 11:26:47			0	38040	0	0	0	21454	20010	162472	27173	1057161	46362	107875	0	0	8212	564167	0	0
2024-10-18 11:27:47			0	38043	0	0	0	21449	20020	162556	27303	1057179	46374	107873	0	0	8212	564016	0	0
2024-10-18 11:28:47			0	38047	0	0	0	21446	20010	162608	27467	1057170	46374	107872	0	0	8213	563887	0	0
2024-10-18 11:29:47			0	38030	0	0	0	21441	20020	162584	27253	1057179	46363	107870	0	0	8212	564536	0	0
2024-10-18 11:30:47			0	38043	0	0	0	21451	20010	162636	27216	1057170	46374	107874	0	0	8212	564047	0	0
2024-10-18 11:31:47			0	38038	0	0	0	21451	20020	162804	27107	1057232	46374	107874	0	0	8212	564216	0	0
2024-10-18 11:32:47			0	38032	0	0	0	21451	20010	162612	27008	1057197	46363	107874	0	0	8212	564487	0	0
2024-10-18 11:33:47			0	38016	0	0	0	21457	20010	162776	27310	1057214	46362	107876	0	0	8211	565127	0	0
2024-10-18 11:34:47			0	38013	0	0	0	21449	20010	162691	27126	1057197	46352	107873	0	0	8210	565247	0	0
2024-10-18 11:35:47			0	38018	0	0	0	21449	20010	162695	27022	1057223	46363	107873	0	0	8211	565047	0	0
2024-10-18 11:36:47			0	38005	0	0	0	21446	20010	162719	27325	1057214	46373	107872	0	0	8210	565568	0	0
2024-10-18 11:37:47			0	38011	0	0	0	21449	20020	162775	27409	1057206	46363	107873	0	0	8210	565296	0	0
2024-10-18 11:38:47			0	37987	0	0	0	21451	20010	162807	27358	1057267	46362	107874	0	0	8209	566289	0	0
2024-10-18 11:39:47			0	38004	0	0	0	21446	20010	162863	27391	1057197	46352	107872	0	0	8210	565608	0	0
2024-10-18 11:40:47			0	38000	0	0	0	21444	20010	162931	27263	1057197	46363	107871	0	0	8210	565768	0	0
2024-10-18 11:41:47			0	38007	0	0	0	21451	20010	162871	27436	1057135	46373	107874	0	0	8210	565488	0	0
2024-10-18 11:42:47			0	37980	0	0	0	21446	20010	162847	27045	1057170	46363	107872	0	0	8209	566570	0	0
2024-10-18 11:43:47			0	37983	0	0	0	21449	20020	162843	27229	1057206	46363	107873	0	0	8209	566418	0	0
2024-10-18 11:44:47			0	37985	0	0	0	21446	20010	162983	27286	1057214	46373	107872	0	0	8209	566369	0	0
2024-10-18 11:45:47			0	37983	0	0	0	21441	20010	163003	27263	1057170	46384	107870	0	0	8209	566449	0	0
2024-10-18 11:46:47			0	37990	0	0	0	21451	20000	162959	27485	1057179	46373	107874	0	0	8209	566200	0	0
2024-10-18 11:47:47			0	37994	0	0	0	21449	20010	162871	27185	1057223	46363	107873	0	0	8209	566009	0	0
2024-10-18 11:48:47			0	37993	0	0	0	21449	20010	162875	27263	1057197	46374	107873	0	0	8209	566049	0	0
2024-10-18 11:49:47			0	37996	0	0	0	21446	20010	162807	27498	1057214	46362	107872	0	0	8210	565928	0	0
2024-10-18 11:50:47			0	37989	0	0	0	21436	20010	162851	27497	1057223	46374	107868	0	0	8209	566209	0	0
2024-10-18 11:51:47			0	37994	0	0	0	21451	20000	162851	27206	1057152	46351	107874	0	0	8209	566040	0	0
2024-10-18 11:52:47			0	38013	0	0	0	21451	20010	162875	27583	1057170	46363	107874	0	0	8210	565247	0	0
2024-10-18 11:53:47			0	38000	0	0	0	21454	20010	162923	27530	1057241	46362	107875	0	0	8210	565768	0	0
2024-10-18 11:54:47			0	38005	0	0	0	21449	20010	162827	27758	1057223	46363	107873	0	0	8210	565568	0	0
2024-10-18 11:55:47			0	38031	0	0	0	21457	20010	162692	27324	1057188	46362	107876	0	0	8211	564527	0	0
2024-10-18 11:56:47			0	38041	0	0	0	21462	20020	162728	27517	1057241	46364	107878	0	0	8212	564096	0	0
2024-10-18 11:57:47			0	38047	0	0	0	21459	20010	162580	27538	1057214	46362	107877	0	0	8212	563887	0	0
2024-10-18 11:58:47			0	38051	0	0	0	21451	20020	162608	27338	1057232	46374	107874	0	0	8213	563696	0	0
2024-10-18 11:59:47			0	38048	0	0	0	21457	20020	162772	27516	1057179	46374	107876	0	0	8212	563816	0	0
2024-10-18 12:00:47			0	38052	0	0	0	21454	20020	162708	27379	1057241	46364	107875	0	0	8213	563656	0	0
2024-10-18 12:01:47			0	38047	0	0	0	21454	20020	162664	27367	1057268	46375	107875	0	0	8212	563856	0	0
2024-10-18 12:02:47			0	38054	0	0	0	21459	20010	162620	27215	1057250	46374	107877	0	0	8213	563607	0	0
2024-10-18 12:03:47			0	38060	0	0	0	21464	20020	162476	27161	1057259	46374	107879	0	0	8213	563336	0	0
2024-10-18 12:04:47			0	38080	0	0	0	21462	20010	162512	27696	1057250	46352	107878	0	0	8214	562568	0	0
2024-10-18 12:05:47			0	38098	0	0	0	21462	20020	162404	27390	1057285	46352	107878	0	0	8215	561819	0	0
2024-10-18 12:06:47			0	38075	0	0	0	21459	20020	162476	27360	1057294	46375	107877	0	0	8214	562737	0	0
2024-10-18 12:07:47			0	38105	0	0	0	21464	20020	162496	27111	1057339	46374	107879	0	0	8216	561540	0	0
2024-10-18 12:08:47			0	38092	0	0	0	21467	20020	162476	27403	1057268	46375	107880	0	0	8215	562059	0	0
2024-10-18 12:09:47			0	38100	0	0	0	21462	20020	162480	27595	1057268	46375	107878	0	0	8215	561739	0	0
2024-10-18 12:10:47			0	38105	0	0	0	21467	20020	162412	27362	1057259	46363	107880	0	0	8216	561540	0	0
2024-10-18 12:11:47			0	38108	0	0	0	21467	20030	162372	27227	1057365	46365	107880	0	0	8216	561389	0	0
2024-10-18 12:12:47			0	38124	0	0	0	21470	20030	162404	27492	1057303	46375	107881	0	0	8217	560752	0	0
2024-10-18 12:13:47			0	38131	0	0	0	21472	20030	162384	27533	1057224	46364	107882	0	0	8217	560473	0	0
2024-10-18 12:14:47			0	38130	0	0	0	21470	20030	162356	27255	1057277	46375	107881	0	0	8217	560513	0	0
2024-10-18 12:15:47			0	38122	0	0	0	21480	20030	162380	27462	1057312	46365	107885	0	0	8216	560831	0	0
2024-10-18 12:16:47			0	38135	0	0	0	21483	20030	162380	27538	1057303	46364	107886	0	0	8217	560314	0	0
2024-10-18 12:17:47			0	38142	0	0	0	21480	20030	162184	27659	1057303	46364	107885	0	0	8218	560035	0	0
2024-10-18 12:18:47			0	38143	0	0	0	21485	20020	162216	27595	1057321	46364	107887	0	0	8218	560026	0	0
2024-10-18 12:19:47			0	38142	0	0	0	21490	20030	162264	27509	1057312	46375	107889	0	0	8217	560035	0	0
2024-10-18 12:20:47			0	38172	0	0	0	21496	20040	162152	27265	1057295	46375	107891	0	0	8219	558811	0	0
2024-10-18 12:21:47			0	38178	0	0	0	21490	20050	162112	27481	1057366	46376	107889	0	0	8220	558541	0	0
2024-10-18 12:22:47			0	38168	0	0	0	21498	20040	162148	27459	1057374	46365	107892	0	0	8219	558970	0	0
2024-10-18 12:23:47			0	38178	0	0	0	21490	20040	162108	27388	1057410	46387	107889	0	0	8220	558572	0	0
2024-10-18 12:24:47			0	38170	0	0	0	21503	20060	162084	27606	1057437	46388	107894	0	0	8219	558829	0	0
2024-10-18 12:25:47			0	38175	0	0	0	21509	20040	162096	27260	1057428	46365	107896	0	0	8219	558691	0	0
2024-10-18 12:26:47			0	38170	0	0	0	21498	20040	162088	27758	1057436	46376	107892	0	0	8219	558890	0	0
2024-10-18 12:27:47			0	38199	0	0	0	21501	20050	162108	27473	1057392	46366	107893	0	0	8221	557707	0	0
2024-10-18 12:28:47			0	38181	0	0	0	21503	20060	162160	27353	1057410	46367	107894	0	0	8220	558391	0	0
2024-10-18 12:29:47			0	38175	0	0	0	21509	20050	162108	27353	1057481	46377	107896	0	0	8219	558661	0	0
2024-10-18 12:30:47			0	38187	0	0	0	21501	20060	162076	27460	1057410	46377	107893	0	0	8220	558153	0	0
2024-10-18 12:31:47			0	38205	0	0	0	21514	20060	161920	27611	1057410	46377	107898	0	0	8221	557438	0	0
2024-10-18 12:32:47			0	38195	0	0	0	21506	20060	162020	27405	1057419	46378	107895	0	0	8220	557835	0	0
2024-10-18 12:33:47			0	38205	0	0	0	21501	20070	162000	27519	1057534	46390	107893	0	0	8221	557407	0	0
2024-10-18 12:34:47			0	38218	0	0	0	21506	20070	161904	27526	1057517	46369	107895	0	0	8222	556892	0	0
2024-10-18 12:35:47			0	38207	0	0	0	21506	20070	161916	27249	1057481	46358	107895	0	0	8221	557328	0	0
2024-10-18 12:36:47			0	38220	0	0	0	21501	20060	161904	27248	1057526	46368	107893	0	0	8222	556843	0	0
2024-10-18 12:37:47			0	38235	0	0	0	21501	20060	161912	27324	1057463	46377	107893	0	0	8223	556248	0	0
2024-10-18 12:38:47			0	38241	0	0	0	21509	20070	161900	27216	1057490	46358	107896	0	0	8223	555980	0	0
2024-10-18 12:39:47			0	38229	0	0	0	21503	20080	161864	27201	1057526	46380	107894	0	0	8223	556425	0	0
2024-10-18 12:40:47			0	38240	0	0	0	21501	20070	161952	27241	1057561	46379	107893	0	0	8223	556019	0	0
2024-10-18 12:41:47			0	38245	0	0	0	21509	20070	161908	27164	1057481	46379	107896	0	0	8223	555821	0	0
2024-10-18 12:42:47			0	38222	0	0	0	21511	20070	161828	27599	1057455	46379	107897	0	0	8222	556733	0	0
2024-10-18 12:43:47			0	38263	0	0	0	21511	20070	161756	27298	1057490	46369	107897	0	0	8224	555108	0	0
2024-10-18 12:44:47			0	38259	0	0	0	21519	20070	161704	27705	1057455	46358	107900	0	0	8224	555267	0	0
2024-10-18 12:45:47			0	38266	0	0	0	21519	20080	161744	27305	1057526	46380	107900	0	0	8224	554959	0	0
2024-10-18 12:46:47			0	38272	0	0	0	21516	20080	161624	27415	1057499	46380	107899	0	0	8225	554722	0	0
2024-10-18 12:47:47			0	38278	0	0	0	21516	20080	161600	27346	1057552	46380	107899	0	0	8225	554484	0	0
2024-10-18 12:48:47			0	38287	0	0	0	21519	20070	161584	27441	1057534	46390	107900	0	0	8226	554159	0	0
2024-10-18 12:49:47			0	38287	0	0	0	21519	20080	161640	27398	1057473	46380	107900	0	0	8226	554128	0	0
2024-10-18 12:50:47			0	38304	0	0	0	21509	20080	161620	27111	1057526	46370	107896	0	0	8227	553456	0	0
2024-10-18 12:51:47			0	38313	0	0	0	21522	20080	161592	27454	1057526	46370	107901	0	0	8227	553101	0	0
2024-10-18 12:52:47			0	38302	0	0	0	21522	20080	161604	27485	1057579	46370	107901	0	0	8227	553535	0	0
2024-10-18 12:53:47			0	38310	0	0	0	21527	20080	161528	27345	1057606	46370	107903	0	0	8227	553219	0	0
2024-10-18 12:54:47			0	38316	0	0	0	21522	20080	161584	27255	1057561	46370	107901	0	0	8227	552982	0	0
2024-10-18 12:55:47			0	38320	0	0	0	21522	20080	161604	27549	1057588	46370	107901	0	0	8228	552824	0	0
2024-10-18 12:56:47			0	38318	0	0	0	21527	20080	161572	27130	1057615	46359	107903	0	0	8227	552903	0	0
2024-10-18 12:57:47			0	38321	0	0	0	21527	20080	161540	27415	1057561	46370	107903	0	0	8228	552785	0	0
2024-10-18 12:58:47			0	38330	0	0	0	21519	20090	161512	27203	1057597	46371	107900	0	0	8228	552399	0	0
2024-10-18 12:59:47			0	38340	0	0	0	21524	20090	161460	27142	1057517	46392	107902	0	0	8229	552004	0	0
2024-10-18 13:00:47			0	38327	0	0	0	21532	20090	161408	27355	1057633	46371	107905	0	0	8228	552518	0	0
2024-10-18 13:01:47			0	38333	0	0	0	21532	20090	161460	27479	1057633	46381	107905	0	0	8228	552281	0	0
2024-10-18 13:02:47			0	38350	0	0	0	21527	20090	161448	27267	1057606	46381	107903	0	0	8229	551610	0	0
2024-10-18 13:03:47			0	38333	0	0	0	21532	20090	161500	27183	1057623	46381	107905	0	0	8228	552281	0	0
2024-10-18 13:04:47			0	38347	0	0	0	21529	20090	161400	27275	1057677	46371	107904	0	0	8229	551728	0	0
2024-10-18 13:05:47			0	38353	0	0	0	21519	20090	161292	27312	1057633	46381	107900	0	0	8230	551492	0	0
2024-10-18 13:06:47			0	38353	0	0	0	21529	20100	161360	27339	1057615	46361	107904	0	0	8230	551461	0	0
2024-10-18 13:07:47			0	38358	0	0	0	21527	20090	161336	27249	1057633	46371	107903	0	0	8230	551295	0	0
2024-10-18 13:08:47			0	38366	0	0	0	21529	20090	161292	27459	1057623	46381	107904	0	0	8230	550979	0	0
2024-10-18 13:09:47			0	38374	0	0	0	21537	20100	161328	27071	1057642	46382	107907	0	0	8231	550634	0	0
2024-10-18 13:10:47			0	38348	0	0	0	21532	20090	161388	26864	1057650	46360	107905	0	0	8229	551689	0	0
2024-10-18 13:11:47			0	38351	0	0	0	21535	20100	161336	27000	1057615	46372	107906	0	0	8229	551540	0	0
2024-10-18 13:12:47			0	38353	0	0	0	21535	20100	161304	27419	1057624	46361	107906	0	0	8229	551461	0	0
2024-10-18 13:13:47			0	38370	0	0	0	21548	20090	161292	27374	1057553	46381	107911	0	0	8230	550822	0	0
2024-10-18 13:14:47			0	38366	0	0	0	21527	20100	161296	26894	1057642	46372	107903	0	0	8230	550949	0	0
2024-10-18 13:15:47			0	38367	0	0	0	21519	20100	161240	27459	1057642	46382	107900	0	0	8230	550910	0	0
2024-10-18 13:16:47			0	38369	0	0	0	21540	20100	161284	27275	1057677	46372	107908	0	0	8230	550831	0	0
2024-10-18 13:17:47			0	38363	0	0	0	21535	20090	161316	27557	1057633	46371	107906	0	0	8230	551098	0	0
2024-10-18 13:18:47			0	38374	0	0	0	21540	20100	161244	27346	1057730	46393	107908	0	0	8231	550634	0	0
2024-10-18 13:19:47			0	38408	0	0	0	21540	20100	161152	27338	1057668	46393	107908	0	0	8233	549296	0	0
2024-10-18 13:20:47			0	38409	0	0	0	21532	20100	161104	27175	1057668	46361	107905	0	0	8233	549256	0	0
2024-10-18 13:21:47			0	38423	0	0	0	21537	20100	161080	27157	1057642	46372	107907	0	0	8233	548706	0	0
2024-10-18 13:22:47			0	38403	0	0	0	21537	20100	161164	27022	1057668	46372	107907	0	0	8232	549492	0	0
2024-10-18 13:23:47			0	38412	0	0	0	21519	20100	161048	27260	1057642	46372	107900	0	0	8233	549138	0	0
2024-10-18 13:24:47			0	38415	0	0	0	21527	20100	161144	27270	1057615	46382	107903	0	0	8233	549020	0	0
2024-10-18 13:25:47			0	38406	0	0	0	21522	20100	161192	27286	1057668	46372	107901	0	0	8233	549374	0	0
2024-10-18 13:26:47			0	38399	0	0	0	21519	20100	161280	27339	1057642	46349	107900	0	0	8232	549650	0	0
2024-10-18 13:27:47			0	38387	0	0	0	21506	20090	161156	27235	1057570	46371	107895	0	0	8232	550152	0	0
2024-10-18 13:28:47			0	38395	0	0	0	21511	20090	161256	27012	1057606	46360	107897	0	0	8232	549837	0	0
2024-10-18 13:29:47			0	38390	0	0	0	21514	20080	161256	27300	1057561	46370	107898	0	0	8232	550065	0	0
2024-10-18 13:30:47			0	38389	0	0	0	21511	20090	161288	27303	1057553	46381	107897	0	0	8232	550074	0	0
2024-10-18 13:31:47			0	38388	0	0	0	21529	20080	161172	27144	1057588	46370	107904	0	0	8231	550143	0	0
2024-10-18 13:32:47			0	38382	0	0	0	21524	20080	161156	27332	1057579	46370	107902	0	0	8231	550380	0	0
2024-10-18 13:33:47			0	38419	0	0	0	21516	20100	161136	27163	1057589	46372	107899	0	0	8234	548863	0	0
2024-10-18 13:34:47			0	38402	0	0	0	21516	20080	161204	27258	1057615	46370	107899	0	0	8232	549592	0	0
2024-10-18 13:35:47			0	38404	0	0	0	21511	20090	161156	27519	1057659	46371	107897	0	0	8233	549483	0	0
2024-10-18 13:36:47			0	38407	0	0	0	21519	20080	161264	26897	1057588	46380	107900	0	0	8233	549396	0	0
2024-10-18 13:37:47			0	38416	0	0	0	21519	20090	161212	27060	1057544	46371	107900	0	0	8233	549011	0	0
2024-10-18 13:38:47			0	38390	0	0	0	21509	20080	161204	27209	1057615	46359	107896	0	0	8232	550065	0	0
2024-10-18 13:39:47			0	38394	0	0	0	21516	20090	161156	27222	1057623	46371	107899	0	0	8232	549877	0	0
2024-10-18 13:40:47			0	38391	0	0	0	21519	20080	161120	26991	1057535	46380	107900	0	0	8232	550025	0	0
2024-10-18 13:41:47			0	38414	0	0	0	21516	20090	161120	26859	1057623	46381	107899	0	0	8233	549090	0	0
2024-10-18 13:42:47			0	38418	0	0	0	21524	20090	161156	27164	1057633	46360	107902	0	0	8233	548933	0	0
2024-10-18 13:43:47			0	38408	0	0	0	21527	20080	161196	27196	1057561	46370	107903	0	0	8233	549356	0	0
2024-10-18 13:44:47			0	38408	0	0	0	21522	20080	161108	27150	1057615	46359	107901	0	0	8233	549356	0	0
2024-10-18 13:45:47			0	38411	0	0	0	21527	20080	161164	27107	1057552	46380	107903	0	0	8233	549238	0	0
2024-10-18 13:46:47			0	38417	0	0	0	21532	20100	161160	27206	1057642	46361	107905	0	0	8233	548942	0	0
2024-10-18 13:47:47			0	38432	0	0	0	21527	20090	161120	27244	1057597	46381	107903	0	0	8234	548383	0	0
2024-10-18 13:48:47			0	38400	0	0	0	21529	20090	161096	27121	1057633	46392	107904	0	0	8232	549641	0	0
2024-10-18 13:49:47			0	38427	0	0	0	21527	20090	161144	27150	1057570	46381	107903	0	0	8234	548579	0	0
2024-10-18 13:50:47			0	38431	0	0	0	21527	20090	161176	27069	1057606	46371	107903	0	0	8234	548422	0	0
2024-10-18 13:51:47			0	38426	0	0	0	21522	20090	161124	27154	1057623	46381	107901	0	0	8234	548618	0	0
2024-10-18 13:52:47			0	38401	0	0	0	21532	20090	161164	27126	1057570	46403	107905	0	0	8232	549601	0	0
2024-10-18 13:53:47			0	38399	0	0	0	21522	20090	161092	27393	1057606	46360	107901	0	0	8232	549680	0	0
2024-10-18 13:54:47			0	38412	0	0	0	21527	20090	161032	27135	1057633	46381	107903	0	0	8233	549169	0	0
2024-10-18 13:55:47			0	38412	0	0	0	21529	20080	161036	27497	1057615	46380	107904	0	0	8233	549199	0	0
2024-10-18 13:56:47			0	38402	0	0	0	21524	20090	161016	27308	1057606	46371	107902	0	0	8232	549562	0	0
2024-10-18 13:57:47			0	38415	0	0	0	21524	20100	160972	27331	1057562	46382	107902	0	0	8233	549020	0	0
2024-10-18 13:58:47			0	38431	0	0	0	21532	20090	161044	27556	1057606	46392	107905	0	0	8234	548422	0	0
2024-10-18 13:59:47			0	38417	0	0	0	21527	20090	160944	27343	1057580	46381	107903	0	0	8233	548972	0	0
2024-10-18 14:00:47			0	38416	0	0	0	21527	20080	161008	27166	1057632	46370	107903	0	0	8233	549042	0	0
2024-10-18 14:01:47			0	38428	0	0	0	21519	20090	160820	27133	1057606	46360	107900	0	0	8234	548540	0	0
2024-10-18 14:02:47			0	38426	0	0	0	21522	20090	160964	27109	1057570	46371	107901	0	0	8234	548618	0	0
2024-10-18 14:03:47			0	38415	0	0	0	21519	20090	160956	27260	1057597	46371	107900	0	0	8233	549051	0	0
2024-10-18 14:04:47			0	38412	0	0	0	21535	20090	161024	26939	1057580	46371	107906	0	0	8233	549169	0	0
2024-10-18 14:05:47			0	38401	0	0	0	21540	20090	160956	27147	1057633	46371	107908	0	0	8232	549601	0	0
2024-10-18 14:06:47			0	38414	0	0	0	21540	20100	160968	27305	1057624	46361	107908	0	0	8233	549060	0	0
2024-10-18 14:07:47			0	38415	0	0	0	21540	20100	160976	27568	1057695	46382	107908	0	0	8233	549020	0	0
2024-10-18 14:08:47			0	38411	0	0	0	21540	20090	160948	27227	1057606	46381	107908	0	0	8233	549208	0	0
2024-10-18 14:09:47			0	38429	0	0	0	21537	20100	160800	27052	1057615	46393	107907	0	0	8234	548470	0	0
2024-10-18 14:10:47			0	38430	0	0	0	21548	20090	160952	27201	1057633	46381	107911	0	0	8234	548461	0	0
2024-10-18 14:11:47			0	38422	0	0	0	21532	20090	160908	27107	1057686	46371	107905	0	0	8233	548776	0	0
2024-10-18 14:12:47			0	38420	0	0	0	21540	20100	160956	27189	1057695	46393	107908	0	0	8233	548824	0	0
2024-10-18 14:13:47			0	38423	0	0	0	21532	20090	160992	27298	1057650	46381	107905	0	0	8234	548736	0	0
2024-10-18 14:14:47			0	38443	0	0	0	21532	20090	160908	27215	1057633	46381	107905	0	0	8235	547950	0	0
2024-10-18 14:15:47			0	38433	0	0	0	21542	20100	160960	27440	1057704	46372	107909	0	0	8234	548313	0	0
2024-10-18 14:16:47			0	38466	0	0	0	21555	20110	160908	27402	1057660	46351	107914	0	0	8236	546987	0	0
2024-10-18 14:17:47			0	38434	0	0	0	21548	20100	160848	27180	1057642	46372	107911	0	0	8234	548274	0	0
2024-10-18 14:18:47			0	38445	0	0	0	21535	20100	160920	27088	1057748	46382	107906	0	0	8235	547842	0	0
2024-10-18 14:19:47			0	38431	0	0	0	21540	20100	160876	27000	1057704	46382	107908	0	0	8234	548392	0	0
2024-10-18 14:20:47			0	38463	0	0	0	21535	20090	160832	27126	1057606	46381	107906	0	0	8236	547165	0	0
2024-10-18 14:21:47			0	38439	0	0	0	21535	20100	160884	27175	1057721	46372	107906	0	0	8234	548077	0	0
2024-10-18 14:22:47			0	38449	0	0	0	21535	20110	160808	27346	1057686	46373	107906	0	0	8235	547654	0	0
2024-10-18 14:23:47			0	38455	0	0	0	21535	20100	160908	27367	1057668	46382	107906	0	0	8235	547449	0	0
2024-10-18 14:24:47			0	38445	0	0	0	21545	20100	160848	27507	1057677	46372	107910	0	0	8235	547842	0	0
2024-10-18 14:25:47			0	38465	0	0	0	21535	20110	160852	27272	1057713	46394	107906	0	0	8236	547027	0	0
2024-10-18 14:26:47			0	38445	0	0	0	21537	20100	160772	27350	1057615	46382	107907	0	0	8235	547842	0	0
2024-10-18 14:27:47			0	38467	0	0	0	21540	20110	160848	27357	1057660	46373	107908	0	0	8236	546948	0	0
2024-10-18 14:28:47			0	38452	0	0	0	21532	20100	160864	27358	1057677	46372	107905	0	0	8235	547567	0	0
2024-10-18 14:29:47			0	38453	0	0	0	21537	20090	160812	27175	1057659	46371	107907	0	0	8235	547558	0	0
2024-10-18 14:30:47			0	38459	0	0	0	21532	20100	160812	27147	1057704	46372	107905	0	0	8236	547292	0	0
2024-10-18 14:31:47			0	38446	0	0	0	21532	20100	160760	27045	1057668	46382	107905	0	0	8235	547802	0	0
2024-10-18 14:32:47			0	38464	0	0	0	21532	20100	160820	27076	1057695	46382	107905	0	0	8236	547096	0	0
2024-10-18 14:33:47			0	38463	0	0	0	21524	20100	160808	27547	1057721	46382	107902	0	0	8236	547135	0	0
2024-10-18 14:34:47			0	38477	0	0	0	21532	20100	160776	27206	1057695	46382	107905	0	0	8237	546586	0	0
2024-10-18 14:35:47			0	38480	0	0	0	21540	20100	160784	27133	1057642	46372	107908	0	0	8237	546469	0	0
2024-10-18 14:36:47			0	38476	0	0	0	21532	20090	160736	27332	1057659	46381	107905	0	0	8237	546655	0	0
2024-10-18 14:37:47			0	38487	0	0	0	21537	20100	160716	27163	1057677	46382	107907	0	0	8237	546194	0	0
2024-10-18 14:38:47			0	38480	0	0	0	21529	20100	160724	27170	1057615	46382	107904	0	0	8237	546469	0	0
2024-10-18 14:39:47			0	38475	0	0	0	21524	20100	160648	27124	1057642	46382	107902	0	0	8237	546665	0	0
2024-10-18 14:40:47			0	38488	0	0	0	21527	20100	160628	27216	1057677	46372	107903	0	0	8237	546155	0	0
2024-10-18 14:41:47			0	38478	0	0	0	21519	20100	160764	27339	1057589	46382	107900	0	0	8237	546547	0	0
2024-10-18 14:42:47			0	38487	0	0	0	21527	20100	160720	27338	1057668	46372	107903	0	0	8237	546194	0	0
2024-10-18 14:43:47			0	38482	0	0	0	21527	20100	160784	27102	1057615	46372	107903	0	0	8237	546390	0	0
2024-10-18 14:44:47			0	38490	0	0	0	21535	20100	160600	27126	1057668	46361	107906	0	0	8237	546077	0	0
2024-10-18 14:45:47			0	38487	0	0	0	21522	20100	160604	27505	1057624	46382	107901	0	0	8237	546194	0	0
2024-10-18 14:46:47			0	38478	0	0	0	21532	20090	160640	27270	1057633	46348	107905	0	0	8237	546577	0	0
2024-10-18 14:47:47			0	38497	0	0	0	21527	20100	160772	27440	1057668	46361	107903	0	0	8238	545802	0	0
2024-10-18 14:48:47			0	38501	0	0	0	21532	20090	160776	27332	1057606	46371	107905	0	0	8238	545676	0	0
2024-10-18 14:49:47			0	38500	0	0	0	21529	20090	160664	27222	1057659	46371	107904	0	0	8238	545715	0	0
2024-10-18 14:50:47			0	38496	0	0	0	21532	20090	160692	27497	1057623	46381	107905	0	0	8238	545872	0	0
2024-10-18 14:51:47			0	38485	0	0	0	21535	20100	160612	27545	1057624	46382	107906	0	0	8237	546272	0	0
2024-10-18 14:52:47			0	38513	0	0	0	21532	20090	160620	27543	1057659	46381	107905	0	0	8239	545206	0	0
2024-10-18 14:53:47			0	38490	0	0	0	21535	20090	160664	27535	1057659	46371	107906	0	0	8237	546107	0	0
2024-10-18 14:54:47			0	38503	0	0	0	21516	20090	160716	27078	1057633	46381	107899	0	0	8238	545597	0	0
2024-10-18 14:55:47			0	38491	0	0	0	21527	20100	160656	26942	1057677	46382	107903	0	0	8238	546037	0	0
2024-10-18 14:56:47			0	38504	0	0	0	21532	20090	160640	27123	1057606	46371	107905	0	0	8238	545558	0	0
2024-10-18 14:57:47			0	38514	0	0	0	21527	20100	160696	27102	1057668	46382	107903	0	0	8239	545137	0	0
2024-10-18 14:58:47			0	38493	0	0	0	21522	20100	160696	27130	1057642	46361	107901	0	0	8238	545959	0	0
2024-10-18 14:59:47			0	38483	0	0	0	21527	20100	160632	27251	1057642	46372	107903	0	0	8237	546351	0	0
2024-10-18 15:00:47			0	38480	0	0	0	21524	20090	160744	27460	1057606	46371	107902	0	0	8237	546499	0	0
2024-10-18 15:01:47			0	38498	0	0	0	21532	20090	160724	27251	1057633	46381	107905	0	0	8238	545793	0	0
2024-10-18 15:02:47			0	38500	0	0	0	21537	20100	160712	27298	1057642	46393	107907	0	0	8238	545685	0	0
2024-10-18 15:03:47			0	38502	0	0	0	21537	20090	160644	27495	1057650	46392	107907	0	0	8238	545637	0	0
2024-10-18 15:04:47			0	38505	0	0	0	21527	20100	160628	27294	1057668	46382	107903	0	0	8238	545489	0	0
2024-10-18 15:05:47			0	38492	0	0	0	21532	20100	160692	27523	1057695	46382	107905	0	0	8238	545998	0	0
2024-10-18 15:06:47			0	38500	0	0	0	21532	20100	160636	27549	1057668	46382	107905	0	0	8238	545685	0	0
2024-10-18 15:07:47			0	38502	0	0	0	21527	20100	160636	27388	1057651	46372	107903	0	0	8238	545606	0	0
2024-10-18 15:08:47			0	38492	0	0	0	21529	20100	160752	27104	1057668	46372	107904	0	0	8238	545998	0	0
2024-10-18 15:09:47			0	38501	0	0	0	21529	20100	160692	27431	1057642	46372	107904	0	0	8238	545646	0	0
2024-10-18 15:10:47			0	38499	0	0	0	21529	20100	160708	27490	1057695	46382	107904	0	0	8238	545724	0	0
2024-10-18 15:11:47			0	38499	0	0	0	21532	20090	160772	27372	1057553	46360	107905	0	0	8238	545754	0	0
2024-10-18 15:12:47			0	38501	0	0	0	21535	20100	160680	27646	1057571	46393	107906	0	0	8238	545646	0	0
2024-10-18 15:13:47			0	38489	0	0	0	21535	20090	160724	27568	1057686	46371	107906	0	0	8237	546146	0	0
2024-10-18 15:14:47			0	38502	0	0	0	21529	20090	160740	27215	1057686	46381	107904	0	0	8238	545637	0	0
2024-10-18 15:15:47			0	38496	0	0	0	21529	20090	160672	27190	1057686	46360	107904	0	0	8238	545872	0	0
2024-10-18 15:16:47			0	38497	0	0	0	21529	20100	160660	27294	1057668	46372	107904	0	0	8238	545802	0	0
2024-10-18 15:17:47			0	38491	0	0	0	21532	20090	160664	27268	1057623	46371	107905	0	0	8237	546067	0	0
2024-10-18 15:18:47			0	38505	0	0	0	21535	20090	160660	27131	1057633	46360	107906	0	0	8238	545519	0	0
2024-10-18 15:19:47			0	38496	0	0	0	21529	20090	160612	27422	1057633	46371	107904	0	0	8238	545872	0	0
2024-10-18 15:20:47			0	38504	0	0	0	21537	20100	160560	27630	1057668	46382	107907	0	0	8238	545528	0	0
2024-10-18 15:21:47			0	38510	0	0	0	21537	20090	160564	27415	1057686	46381	107907	0	0	8239	545323	0	0
2024-10-18 15:22:47			0	38506	0	0	0	21535	20100	160620	27436	1057730	46372	107906	0	0	8238	545450	0	0
2024-10-18 15:23:47			0	38505	0	0	0	21537	20100	160652	27229	1057615	46372	107907	0	0	8238	545489	0	0
2024-10-18 15:24:47			0	38507	0	0	0	21548	20100	160600	27530	1057695	46372	107911	0	0	8238	545411	0	0
2024-10-18 15:25:47			0	38522	0	0	0	21545	20090	160576	27036	1057686	46371	107910	0	0	8239	544854	0	0
2024-10-18 15:26:47			0	38526	0	0	0	21532	20100	160620	27355	1057704	46372	107905	0	0	8240	544667	0	0
2024-10-18 15:27:47			0	38507	0	0	0	21537	20100	160568	27111	1057730	46382	107907	0	0	8238	545411	0	0
2024-10-18 15:28:47			0	38531	0	0	0	21540	20100	160552	26880	1057730	46382	107908	0	0	8240	544471	0	0
2024-10-18 15:29:47			0	38525	0	0	0	21548	20110	160528	27171	1057739	46373	107911	0	0	8239	544676	0	0
2024-10-18 15:30:47			0	38547	0	0	0	21542	20100	160400	27469	1057704	46372	107909	0	0	8241	543846	0	0
2024-10-18 15:31:47			0	38548	0	0	0	21553	20110	160412	27414	1057739	46383	107913	0	0	8241	543777	0	0
2024-10-18 15:32:47			0	38547	0	0	0	21548	20100	160512	27459	1057730	46382	107911	0	0	8241	543846	0	0
2024-10-18 15:33:47			0	38543	0	0	0	21545	20100	160476	27429	1057730	46382	107910	0	0	8240	544002	0	0
2024-10-18 15:34:47			0	38539	0	0	0	21548	20100	160504	27807	1057801	46372	107911	0	0	8240	544158	0	0
2024-10-18 15:35:47			0	38544	0	0	0	21540	20100	160464	27282	1057704	46372	107908	0	0	8240	543963	0	0
2024-10-18 15:36:47			0	38533	0	0	0	21553	20110	160432	27197	1057739	46383	107913	0	0	8240	544363	0	0
2024-10-18 15:37:47			0	38537	0	0	0	21545	20110	160564	27597	1057695	46373	107910	0	0	8240	544207	0	0
2024-10-18 15:38:47			0	38542	0	0	0	21555	20110	160468	27355	1057775	46383	107914	0	0	8240	544011	0	0
2024-10-18 15:39:47			0	38536	0	0	0	21540	20120	160436	27419	1057704	46363	107908	0	0	8240	544216	0	0
2024-10-18 15:40:47			0	38537	0	0	0	21548	20100	160484	27466	1057748	46372	107911	0	0	8240	544237	0	0
2024-10-18 15:41:47			0	38541	0	0	0	21545	20110	160436	27121	1057686	46373	107910	0	0	8240	544050	0	0
2024-10-18 15:42:47			0	38547	0	0	0	21545	20100	160460	27689	1057704	46382	107910	0	0	8241	543846	0	0
2024-10-18 15:43:47			0	38541	0	0	0	21542	20110	160476	27279	1057748	46373	107909	0	0	8240	544050	0	0
2024-10-18 15:44:47			0	38530	0	0	0	21548	20100	160432	27500	1057704	46372	107911	0	0	8240	544511	0	0
2024-10-18 15:45:47			0	38537	0	0	0	21553	20110	160456	27118	1057766	46373	107913	0	0	8240	544207	0	0
2024-10-18 15:46:47			0	38548	0	0	0	21548	20110	160504	27578	1057766	46373	107911	0	0	8241	543777	0	0
2024-10-18 15:47:47			0	38557	0	0	0	21548	20110	160376	27492	1057739	46373	107911	0	0	8241	543425	0	0
2024-10-18 15:48:47			0	38545	0	0	0	21553	20100	160496	27272	1057730	46382	107913	0	0	8240	543924	0	0
2024-10-18 15:49:47			0	38536	0	0	0	21555	20110	160432	27518	1057739	46383	107914	0	0	8240	544246	0	0
2024-10-18 15:50:47			0	38558	0	0	0	21555	20120	160548	27350	1057784	46395	107914	0	0	8241	543356	0	0
2024-10-18 15:51:47			0	38552	0	0	0	21553	20120	160504	27390	1057757	46395	107913	0	0	8241	543590	0	0
2024-10-18 15:52:47			0	38550	0	0	0	21550	20110	160380	27093	1057713	46383	107912	0	0	8241	543698	0	0
2024-10-18 15:53:47			0	38565	0	0	0	21566	20120	160472	27594	1057784	46384	107918	0	0	8241	543083	0	0
2024-10-18 15:54:47			0	38570	0	0	0	21558	20120	160268	27334	1057810	46374	107915	0	0	8242	542887	0	0
2024-10-18 15:55:47			0	38577	0	0	0	21563	20120	160396	27599	1057784	46384	107917	0	0	8242	542614	0	0
2024-10-18 15:56:47			0	38572	0	0	0	21550	20120	160504	27118	1057793	46375	107912	0	0	8242	542809	0	0
2024-10-18 15:57:47			0	38571	0	0	0	21548	20120	160228	27481	1057757	46384	107911	0	0	8242	542848	0	0
2024-10-18 15:58:47			0	38564	0	0	0	21545	20120	160372	27673	1057731	46384	107910	0	0	8242	543121	0	0
2024-10-18 15:59:47			0	38559	0	0	0	21553	20120	160244	27554	1057784	46374	107913	0	0	8241	543317	0	0
2024-10-18 16:00:47			0	38566	0	0	0	21545	20120	160424	27241	1057757	46374	107910	0	0	8242	543043	0	0
2024-10-18 16:01:47			0	38575	0	0	0	21550	20110	160432	27500	1057828	46373	107912	0	0	8242	542722	0	0
2024-10-18 16:02:47			0	38567	0	0	0	21553	20120	160292	27291	1057810	46395	107913	0	0	8242	543004	0	0
2024-10-18 16:03:47			0	38578	0	0	0	21553	20120	160308	27505	1057819	46364	107913	0	0	8242	542575	0	0
2024-10-18 16:04:47			0	38562	0	0	0	21545	20120	160424	27540	1057810	46384	107910	0	0	8242	543200	0	0
2024-10-18 16:05:47			0	38558	0	0	0	21555	20120	160436	27367	1057766	46385	107914	0	0	8241	543356	0	0
2024-10-18 16:06:47			0	38572	0	0	0	21553	20120	160432	27595	1057793	46375	107913	0	0	8242	542809	0	0
2024-10-18 16:07:47			0	38558	0	0	0	21548	20130	160408	27422	1057749	46375	107911	0	0	8241	543326	0	0
2024-10-18 16:08:47			0	38549	0	0	0	21555	20120	160452	27670	1057810	46374	107914	0	0	8241	543708	0	0
2024-10-18 16:09:47			0	38550	0	0	0	21563	20120	160376	27353	1057819	46375	107917	0	0	8241	543668	0	0
2024-10-18 16:10:47			0	38559	0	0	0	21555	20110	160392	27476	1057775	46373	107914	0	0	8241	543347	0	0
2024-10-18 16:11:47			0	38563	0	0	0	21553	20110	160464	27256	1057775	46373	107913	0	0	8241	543191	0	0
2024-10-18 16:12:47			0	38568	0	0	0	21550	20110	160424	27384	1057775	46373	107912	0	0	8242	542995	0	0
2024-10-18 16:13:47			0	38544	0	0	0	21558	20110	160332	27229	1057775	46373	107915	0	0	8240	543933	0	0
2024-10-18 16:14:47			0	38562	0	0	0	21561	20120	160512	27416	1057784	46374	107916	0	0	8241	543200	0	0
2024-10-18 16:15:47			0	38555	0	0	0	21558	20120	160468	27244	1057793	46385	107915	0	0	8241	543473	0	0
2024-10-18 16:16:47			0	38548	0	0	0	21555	20120	160468	27556	1057846	46375	107914	0	0	8241	543747	0	0
2024-10-18 16:17:47			0	38556	0	0	0	21553	20120	160480	27713	1057731	46384	107913	0	0	8241	543434	0	0
2024-10-18 16:18:47			0	38543	0	0	0	21555	20120	160420	27403	1057846	46375	107914	0	0	8240	543942	0	0
2024-10-18 16:19:47			0	38544	0	0	0	21550	20110	160380	27185	1057775	46362	107912	0	0	8240	543933	0	0
2024-10-18 16:20:47			0	38547	0	0	0	21553	20120	160472	27668	1057810	46384	107913	0	0	8241	543786	0	0
2024-10-18 16:21:47			0	38555	0	0	0	21550	20120	160456	27653	1057766	46375	107912	0	0	8241	543473	0	0
2024-10-18 16:22:47			0	38547	0	0	0	21555	20120	160472	27326	1057837	46395	107914	0	0	8240	543786	0	0
2024-10-18 16:23:47			0	38537	0	0	0	21555	20110	160516	27543	1057775	46373	107914	0	0	8240	544207	0	0
2024-10-18 16:24:47			0	38560	0	0	0	21545	20130	160444	27583	1057828	46375	107910	0	0	8241	543248	0	0
2024-10-18 16:25:47			0	38554	0	0	0	21548	20120	160516	27386	1057757	46384	107911	0	0	8241	543512	0	0
2024-10-18 16:26:47			0	38529	0	0	0	21558	20120	160496	27476	1057704	46374	107915	0	0	8239	544489	0	0
2024-10-18 16:27:47			0	38525	0	0	0	21545	20110	160500	27478	1057802	46362	107910	0	0	8239	544676	0	0
2024-10-18 16:28:47			0	38567	0	0	0	21555	20120	160600	27426	1057784	46384	107914	0	0	8242	543004	0	0
2024-10-18 16:29:47			0	38544	0	0	0	21558	20120	160452	27400	1057766	46364	107915	0	0	8240	543903	0	0
2024-10-18 16:30:47			0	38564	0	0	0	21555	20120	160400	27272	1057766	46407	107914	0	0	8241	543121	0	0
2024-10-18 16:31:47			0	38564	0	0	0	21563	20110	160400	27604	1057739	46373	107917	0	0	8241	543151	0	0
2024-10-18 16:32:47			0	38565	0	0	0	21555	20120	160280	27365	1057810	46374	107914	0	0	8242	543083	0	0
2024-10-18 16:33:47			0	38572	0	0	0	21558	20120	160444	27294	1057810	46384	107915	0	0	8242	542809	0	0
2024-10-18 16:34:47			0	38571	0	0	0	21558	20120	160352	27414	1057819	46385	107915	0	0	8242	542848	0	0
2024-10-18 16:35:47			0	38567	0	0	0	21558	20120	160400	27518	1057810	46374	107915	0	0	8242	543004	0	0
2024-10-18 16:36:47			0	38570	0	0	0	21553	20130	160324	27620	1057837	46385	107913	0	0	8242	542857	0	0
2024-10-18 16:37:47			0	38567	0	0	0	21555	20120	160380	27543	1057766	46385	107914	0	0	8242	543004	0	0
2024-10-18 16:38:47			0	38564	0	0	0	21548	20130	160388	27609	1057802	46396	107911	0	0	8242	543092	0	0
2024-10-18 16:39:47			0	38562	0	0	0	21555	20120	160384	27300	1057810	46384	107914	0	0	8241	543200	0	0
2024-10-18 16:40:47			0	38530	0	0	0	21542	20120	160484	27327	1057766	46375	107909	0	0	8240	544450	0	0
2024-10-18 16:41:47			0	38555	0	0	0	21550	20120	160448	27684	1057784	46363	107912	0	0	8241	543473	0	0
2024-10-18 16:42:47			0	38549	0	0	0	21550	20120	160388	27725	1057784	46384	107912	0	0	8241	543708	0	0
2024-10-18 16:43:47			0	38548	0	0	0	21558	20120	160424	27343	1057810	46363	107915	0	0	8240	543747	0	0
2024-10-18 16:44:47			0	38570	0	0	0	21561	20120	160432	27313	1057810	46384	107916	0	0	8242	542887	0	0
2024-10-18 16:45:47			0	38581	0	0	0	21550	20120	160408	27455	1057757	46384	107912	0	0	8243	542458	0	0
2024-10-18 16:46:47			0	38565	0	0	0	21550	20110	160436	27390	1057766	46373	107912	0	0	8242	543112	0	0
2024-10-18 16:47:47			0	38561	0	0	0	21548	20110	160376	27647	1057775	46383	107911	0	0	8241	543269	0	0
2024-10-18 16:48:47			0	38564	0	0	0	21558	20130	160368	27286	1057802	46385	107915	0	0	8241	543092	0	0
2024-10-18 16:49:47			0	38571	0	0	0	21550	20120	160372	27431	1057793	46385	107912	0	0	8242	542848	0	0
2024-10-18 16:50:47			0	38563	0	0	0	21563	20110	160512	27448	1057775	46373	107917	0	0	8241	543191	0	0
2024-10-18 16:51:47			0	38568	0	0	0	21555	20110	160416	27227	1057775	46373	107914	0	0	8242	542995	0	0
2024-10-18 16:52:47			0	38585	0	0	0	21555	20120	160432	27255	1057784	46384	107914	0	0	8243	542302	0	0
2024-10-18 16:53:47			0	38554	0	0	0	21555	20120	160392	27327	1057757	46384	107914	0	0	8241	543512	0	0
2024-10-18 16:54:47			0	38565	0	0	0	21550	20120	160360	27531	1057837	46374	107912	0	0	8242	543083	0	0
2024-10-18 16:55:47			0	38537	0	0	0	21558	20120	160416	27251	1057793	46375	107915	0	0	8240	544177	0	0
2024-10-18 16:56:47			0	38571	0	0	0	21555	20130	160348	27287	1057775	46375	107914	0	0	8242	542818	0	0
2024-10-18 16:57:47			0	38572	0	0	0	21550	20120	160404	26963	1057810	46384	107912	0	0	8242	542809	0	0
2024-10-18 16:58:47			0	38558	0	0	0	21553	20130	160340	27320	1057802	46375	107913	0	0	8241	543326	0	0
2024-10-18 16:59:47			0	38567	0	0	0	21545	20120	160384	27614	1057810	46374	107910	0	0	8242	543004	0	0
2024-10-18 17:00:47			0	38529	0	0	0	21548	20120	160460	27403	1057793	46385	107911	0	0	8240	544489	0	0
2024-10-18 17:01:47			0	38538	0	0	0	21550	20110	160408	27398	1057766	46373	107912	0	0	8240	544168	0	0
2024-10-18 17:02:47			0	38556	0	0	0	21548	20120	160484	27391	1057819	46396	107911	0	0	8241	543434	0	0
2024-10-18 17:03:47			0	38545	0	0	0	21550	20120	160488	27248	1057757	46384	107912	0	0	8240	543864	0	0
2024-10-18 17:04:47			0	38547	0	0	0	21553	20120	160468	27211	1057810	46374	107913	0	0	8241	543786	0	0
2024-10-18 17:05:47			0	38557	0	0	0	21550	20120	160416	27521	1057793	46385	107912	0	0	8241	543395	0	0
2024-10-18 17:06:47			0	38526	0	0	0	21563	20120	160372	27376	1057793	46375	107917	0	0	8239	544607	0	0
2024-10-18 17:07:47			0	38563	0	0	0	21555	20120	160412	27327	1057837	46374	107914	0	0	8241	543161	0	0
2024-10-18 17:08:47			0	38562	0	0	0	21558	20120	160464	27171	1057757	46374	107915	0	0	8241	543200	0	0
2024-10-18 17:09:47			0	38569	0	0	0	21555	20120	160408	27448	1057873	46396	107914	0	0	8242	542926	0	0
2024-10-18 17:10:47			0	38569	0	0	0	21550	20120	160444	27552	1057784	46395	107912	0	0	8242	542926	0	0
2024-10-18 17:11:47			0	38542	0	0	0	21550	20120	160448	27253	1057793	46396	107912	0	0	8240	543981	0	0
2024-10-18 17:12:47			0	38543	0	0	0	21558	20120	160368	27218	1057757	46384	107915	0	0	8240	543942	0	0
2024-10-18 17:13:47			0	38543	0	0	0	21550	20120	160328	27543	1057819	46375	107912	0	0	8240	543942	0	0
2024-10-18 17:14:47			0	38553	0	0	0	21555	20120	160464	27563	1057810	46374	107914	0	0	8241	543551	0	0
2024-10-18 17:15:47			0	38550	0	0	0	21563	20120	160452	27429	1057864	46374	107917	0	0	8241	543668	0	0
2024-10-18 17:16:47			0	38544	0	0	0	21553	20120	160476	27450	1057810	46395	107913	0	0	8240	543903	0	0
2024-10-18 17:17:47			0	38565	0	0	0	21553	20120	160408	27535	1057837	46384	107913	0	0	8242	543083	0	0
2024-10-18 17:18:47			0	38546	0	0	0	21558	20110	160448	27464	1057722	46383	107915	0	0	8240	543855	0	0
2024-10-18 17:19:47			0	38552	0	0	0	21550	20120	160500	27350	1057810	46384	107912	0	0	8241	543590	0	0
2024-10-18 17:20:47			0	38549	0	0	0	21550	20120	160416	27322	1057784	46395	107912	0	0	8241	543708	0	0
2024-10-18 17:21:47			0	38561	0	0	0	21548	20130	160468	26965	1057828	46385	107911	0	0	8241	543209	0	0
2024-10-18 17:22:47			0	38543	0	0	0	21553	20120	160484	26972	1057837	46384	107913	0	0	8240	543942	0	0
2024-10-18 17:23:47			0	38531	0	0	0	21548	20110	160476	27407	1057775	46373	107911	0	0	8240	544441	0	0
2024-10-18 17:24:47			0	38537	0	0	0	21555	20110	160504	27251	1057802	46373	107914	0	0	8240	544207	0	0
2024-10-18 17:25:47			0	38535	0	0	0	21550	20110	160440	27428	1057775	46373	107912	0	0	8240	544285	0	0
2024-10-18 17:26:47			0	38500	0	0	0	21542	20120	160524	27189	1057784	46374	107909	0	0	8238	545625	0	0
2024-10-18 17:27:47			0	38522	0	0	0	21545	20110	160500	27227	1057748	46383	107910	0	0	8239	544793	0	0
2024-10-18 17:28:47			0	38515	0	0	0	21545	20120	160476	27275	1057810	46363	107910	0	0	8239	545037	0	0
2024-10-18 17:29:47			0	38518	0	0	0	21553	20120	160480	27173	1057810	46384	107913	0	0	8239	544920	0	0
2024-10-18 17:30:47			0	38532	0	0	0	21550	20110	160532	27533	1057748	46383	107912	0	0	8240	544402	0	0
2024-10-18 17:31:47			0	38540	0	0	0	21548	20120	160464	27338	1057784	46384	107911	0	0	8240	544059	0	0
2024-10-18 17:32:47			0	38533	0	0	0	21542	20120	160628	27396	1057784	46395	107909	0	0	8240	544333	0	0
2024-10-18 17:33:47			0	38526	0	0	0	21548	20110	160556	27279	1057748	46383	107911	0	0	8239	544637	0	0
2024-10-18 17:34:47			0	38522	0	0	0	21555	20120	160496	27048	1057793	46396	107914	0	0	8239	544763	0	0
2024-10-18 17:35:47			0	38518	0	0	0	21550	20110	160640	27225	1057766	46373	107912	0	0	8239	544950	0	0
2024-10-18 17:36:47			0	38515	0	0	0	21545	20120	160412	27119	1057757	46384	107910	0	0	8239	545037	0	0
2024-10-18 17:37:47			0	38525	0	0	0	21548	20110	160384	27249	1057748	46394	107911	0	0	8239	544676	0	0
2024-10-18 17:38:47			0	38540	0	0	0	21548	20110	160456	27267	1057775	46383	107911	0	0	8240	544089	0	0
2024-10-18 17:39:47			0	38532	0	0	0	21548	20130	160520	27203	1057749	46385	107911	0	0	8240	544342	0	0
2024-10-18 17:40:47			0	38548	0	0	0	21548	20110	160444	27256	1057775	46383	107911	0	0	8241	543777	0	0
2024-10-18 17:41:47			0	38520	0	0	0	21550	20110	160388	26968	1057793	46383	107912	0	0	8239	544872	0	0
2024-10-18 17:42:47			0	38525	0	0	0	21548	20110	160476	27329	1057775	46373	107911	0	0	8239	544676	0	0
2024-10-18 17:43:47			0	38516	0	0	0	21545	20120	160536	27261	1057757	46384	107910	0	0	8239	544998	0	0
2024-10-18 17:44:47			0	38542	0	0	0	21550	20110	160432	26908	1057802	46394	107912	0	0	8240	544011	0	0
2024-10-18 17:45:47			0	38528	0	0	0	21540	20110	160444	27149	1057739	46383	107908	0	0	8240	544559	0	0
2024-10-18 17:46:47			0	38539	0	0	0	21545	20110	160512	27098	1057775	46383	107910	0	0	8240	544128	0	0
2024-10-18 17:47:47			0	38531	0	0	0	21548	20110	160484	27242	1057739	46383	107911	0	0	8240	544441	0	0
2024-10-18 17:48:47			0	38524	0	0	0	21545	20110	160412	27398	1057793	46373	107910	0	0	8239	544715	0	0
2024-10-18 17:49:47			0	38517	0	0	0	21548	20110	160544	26986	1057739	46383	107911	0	0	8239	544989	0	0
2024-10-18 17:50:47			0	38549	0	0	0	21550	20110	160452	27495	1057766	46383	107912	0	0	8241	543738	0	0
2024-10-18 17:51:47			0	38532	0	0	0	21550	20100	160472	27275	1057784	46372	107912	0	0	8240	544432	0	0
2024-10-18 17:52:47			0	38525	0	0	0	21540	20110	160520	27211	1057739	46383	107908	0	0	8239	544676	0	0
2024-10-18 17:53:47			0	38535	0	0	0	21540	20110	160464	27265	1057793	46373	107908	0	0	8240	544285	0	0
2024-10-18 17:54:47			0	38528	0	0	0	21537	20100	160432	27348	1057757	46372	107907	0	0	8240	544589	0	0
2024-10-18 17:55:47			0	38529	0	0	0	21550	20100	160496	27571	1057730	46382	107912	0	0	8239	544550	0	0
2024-10-18 17:56:47			0	38523	0	0	0	21545	20100	160532	27336	1057730	46372	107910	0	0	8239	544784	0	0
2024-10-18 17:57:47			0	38518	0	0	0	21548	20100	160532	27253	1057721	46382	107911	0	0	8239	544980	0	0
2024-10-18 17:58:47			0	38500	0	0	0	21550	20100	160616	27376	1057730	46393	107912	0	0	8238	545685	0	0
2024-10-18 17:59:47			0	38514	0	0	0	21545	20100	160500	27474	1057730	46372	107910	0	0	8239	545137	0	0
2024-10-18 18:00:47			0	38509	0	0	0	21548	20100	160496	27428	1057757	46382	107911	0	0	8238	545332	0	0
2024-10-18 18:01:47			0	38503	0	0	0	21550	20110	160616	27064	1057713	46394	107912	0	0	8238	545537	0	0
2024-10-18 18:02:47			0	38515	0	0	0	21542	20110	160560	27130	1057748	46394	107909	0	0	8239	545067	0	0
2024-10-18 18:03:47			0	38510	0	0	0	21545	20110	160648	27402	1057766	46383	107910	0	0	8238	545263	0	0
2024-10-18 18:04:47			0	38496	0	0	0	21535	20110	160596	26967	1057713	46383	107906	0	0	8238	545811	0	0
2024-10-18 18:05:47			0	38504	0	0	0	21553	20100	160532	27346	1057704	46372	107913	0	0	8238	545528	0	0
2024-10-18 18:06:47			0	38494	0	0	0	21542	20110	160572	27370	1057722	46362	107909	0	0	8238	545890	0	0
2024-10-18 18:07:47			0	38487	0	0	0	21542	20110	160568	27213	1057713	46383	107909	0	0	8237	546164	0	0
2024-10-18 18:08:47			0	38474	0	0	0	21545	20100	160700	26956	1057695	46382	107910	0	0	8236	546704	0	0
2024-10-18 18:09:47			0	38493	0	0	0	21537	20100	160544	27433	1057695	46372	107907	0	0	8238	545959	0	0
2024-10-18 18:10:47			0	38492	0	0	0	21537	20110	160696	27154	1057739	46383	107907	0	0	8238	545968	0	0
2024-10-18 18:11:47			0	38477	0	0	0	21545	20100	160680	27575	1057757	46382	107910	0	0	8236	546586	0	0
2024-10-18 18:12:47			0	38487	0	0	0	21548	20100	160636	27393	1057730	46382	107911	0	0	8237	546194	0	0
2024-10-18 18:13:47			0	38483	0	0	0	21532	20100	160744	27246	1057730	46372	107905	0	0	8237	546351	0	0
2024-10-18 18:14:47			0	38481	0	0	0	21540	20100	160708	27277	1057730	46382	107908	0	0	8237	546429	0	0
2024-10-18 18:15:47			0	38475	0	0	0	21542	20110	160740	27286	1057739	46383	107909	0	0	8236	546635	0	0
2024-10-18 18:16:47			0	38456	0	0	0	21535	20100	160752	27402	1057730	46382	107906	0	0	8235	547410	0	0
2024-10-18 18:17:47			0	38468	0	0	0	21535	20100	160676	27059	1057695	46382	107906	0	0	8236	546939	0	0
2024-10-18 18:18:47			0	38460	0	0	0	21537	20100	160744	27307	1057677	46372	107907	0	0	8236	547253	0	0
2024-10-18 18:19:47			0	38448	0	0	0	21540	20100	160800	27242	1057748	46393	107908	0	0	8235	547724	0	0
2024-10-18 18:20:47			0	38449	0	0	0	21532	20110	160804	27379	1057686	46383	107905	0	0	8235	547654	0	0
2024-10-18 18:21:47			0	38452	0	0	0	21535	20110	160848	27111	1057766	46383	107906	0	0	8235	547537	0	0
2024-10-18 18:22:47			0	38444	0	0	0	21535	20100	160860	27142	1057757	46382	107906	0	0	8235	547881	0	0
2024-10-18 18:23:47			0	38445	0	0	0	21529	20100	160796	27013	1057704	46361	107904	0	0	8235	547842	0	0
2024-10-18 18:24:47			0	38449	0	0	0	21529	20090	160844	27433	1057659	46360	107904	0	0	8235	547715	0	0
2024-10-18 18:25:47			0	38453	0	0	0	21540	20100	160756	27298	1057704	46393	107908	0	0	8235	547528	0	0
2024-10-18 18:26:47			0	38446	0	0	0	21524	20100	160816	27215	1057704	46372	107902	0	0	8235	547802	0	0
2024-10-18 18:27:47			0	38419	0	0	0	21540	20100	160792	27428	1057651	46382	107908	0	0	8233	548863	0	0
2024-10-18 18:28:47			0	38445	0	0	0	21529	20090	160912	27223	1057686	46381	107904	0	0	8235	547872	0	0
2024-10-18 18:29:47			0	38418	0	0	0	21532	20100	160952	27374	1057677	46382	107905	0	0	8233	548902	0	0
2024-10-18 18:30:47			0	38415	0	0	0	21522	20100	160980	27398	1057695	46372	107901	0	0	8233	549020	0	0
2024-10-18 18:31:47			0	38411	0	0	0	21529	20100	160996	27270	1057677	46382	107904	0	0	8233	549178	0	0
2024-10-18 18:32:47			0	38414	0	0	0	21529	20090	160940	27239	1057686	46371	107904	0	0	8233	549090	0	0
2024-10-18 18:33:47			0	38415	0	0	0	21524	20090	160936	27339	1057650	46371	107902	0	0	8233	549051	0	0
2024-10-18 18:34:47			0	38405	0	0	0	21527	20090	160908	27445	1057703	46392	107903	0	0	8233	549444	0	0
2024-10-18 18:35:47			0	38404	0	0	0	21535	20090	160988	27171	1057659	46381	107906	0	0	8232	549483	0	0
2024-10-18 18:36:47			0	38391	0	0	0	21537	20090	161052	27415	1057677	46371	107907	0	0	8232	549995	0	0
2024-10-18 18:37:47			0	38406	0	0	0	21527	20100	161008	27277	1057748	46372	107903	0	0	8233	549374	0	0
2024-10-18 18:38:47			0	38400	0	0	0	21524	20100	161088	27267	1057695	46404	107902	0	0	8232	549610	0	0
2024-10-18 18:39:47			0	38406	0	0	0	21527	20090	161000	27275	1057686	46381	107903	0	0	8233	549405	0	0
2024-10-18 18:40:47			0	38405	0	0	0	21535	20090	161004	27135	1057739	46381	107906	0	0	8232	549444	0	0
2024-10-18 18:41:47			0	38402	0	0	0	21529	20090	160972	27159	1057623	46392	107904	0	0	8232	549562	0	0
2024-10-18 18:42:47			0	38398	0	0	0	21529	20090	161040	27203	1057677	46392	107904	0	0	8232	549719	0	0
2024-10-18 18:43:47			0	38375	0	0	0	21535	20090	161064	27268	1057703	46371	107906	0	0	8231	550625	0	0
2024-10-18 18:44:47			0	38394	0	0	0	21537	20090	161048	27405	1057677	46371	107907	0	0	8232	549877	0	0
2024-10-18 18:45:47			0	38381	0	0	0	21537	20090	161092	27467	1057677	46392	107907	0	0	8231	550389	0	0
2024-10-18 18:46:47			0	38386	0	0	0	21532	20090	161108	27448	1057739	46392	107905	0	0	8231	550192	0	0
2024-10-18 18:47:47			0	38394	0	0	0	21529	20090	161128	27523	1057659	46371	107904	0	0	8232	549877	0	0
2024-10-18 18:48:47			0	38386	0	0	0	21532	20090	161224	27343	1057739	46371	107905	0	0	8231	550192	0	0
2024-10-18 18:49:47			0	38366	0	0	0	21537	20100	161220	27319	1057695	46372	107907	0	0	8230	550949	0	0
2024-10-18 18:50:47			0	38359	0	0	0	21529	20090	161208	27131	1057650	46360	107904	0	0	8230	551255	0	0
2024-10-18 18:51:47			0	38374	0	0	0	21532	20090	161212	27170	1057623	46371	107905	0	0	8231	550664	0	0
2024-10-18 18:52:47			0	38369	0	0	0	21527	20090	161176	27229	1057713	46381	107903	0	0	8230	550861	0	0
2024-10-18 18:53:47			0	38366	0	0	0	21535	20090	161188	27235	1057766	46381	107906	0	0	8230	550979	0	0
2024-10-18 18:54:47			0	38347	0	0	0	21529	20090	161180	27149	1057739	46381	107904	0	0	8229	551728	0	0
2024-10-18 18:55:47			0	38373	0	0	0	21527	20090	161192	27256	1057713	46371	107903	0	0	8231	550704	0	0
2024-10-18 18:56:47			0	38352	0	0	0	21535	20090	161256	27447	1057756	46381	107906	0	0	8229	551531	0	0
2024-10-18 18:57:47			0	38366	0	0	0	21529	20080	161228	27497	1057721	46380	107904	0	0	8230	551010	0	0
2024-10-18 18:58:47			0	38359	0	0	0	21529	20090	161236	27415	1057686	46381	107904	0	0	8230	551255	0	0
2024-10-18 18:59:47			0	38361	0	0	0	21527	20090	161272	27038	1057677	46371	107903	0	0	8230	551176	0	0
2024-10-18 19:00:47			0	38352	0	0	0	21529	20090	161188	27313	1057703	46371	107904	0	0	8229	551531	0	0
2024-10-18 19:01:47			0	38372	0	0	0	21537	20090	161236	27152	1057677	46371	107907	0	0	8230	550743	0	0
2024-10-18 19:02:47			0	38369	0	0	0	21529	20090	161252	26989	1057739	46392	107904	0	0	8230	550861	0	0
2024-10-18 19:03:47			0	38368	0	0	0	21529	20090	161180	27209	1057659	46392	107904	0	0	8230	550901	0	0
2024-10-18 19:04:47			0	38361	0	0	0	21529	20090	161188	27255	1057659	46392	107904	0	0	8230	551176	0	0
2024-10-18 19:05:47			0	38373	0	0	0	21527	20090	161292	27225	1057766	46381	107903	0	0	8231	550704	0	0
2024-10-18 19:06:47			0	38373	0	0	0	21527	20090	161296	26963	1057686	46392	107903	0	0	8231	550704	0	0
2024-10-18 19:07:47			0	38354	0	0	0	21529	20090	161192	27187	1057713	46381	107904	0	0	8230	551452	0	0
2024-10-18 19:08:47			0	38366	0	0	0	21529	20100	161252	26991	1057730	46382	107904	0	0	8230	550949	0	0
2024-10-18 19:09:47			0	38366	0	0	0	21527	20080	161248	27059	1057668	46370	107903	0	0	8230	551010	0	0
2024-10-18 19:10:47			0	38372	0	0	0	21529	20090	161200	26975	1057686	46381	107904	0	0	8231	550743	0	0
2024-10-18 19:11:47			0	38383	0	0	0	21529	20090	161244	26967	1057703	46371	107904	0	0	8231	550310	0	0
2024-10-18 19:12:47			0	38326	0	0	0	21532	20090	161248	27105	1057677	46381	107905	0	0	8228	552557	0	0
2024-10-18 19:13:47			0	38347	0	0	0	21540	20090	161344	27145	1057713	46360	107908	0	0	8229	551728	0	0
2024-10-18 19:14:47			0	38341	0	0	0	21529	20090	161412	26802	1057713	46381	107904	0	0	8229	551965	0	0
2024-10-18 19:15:47			0	38330	0	0	0	21532	20100	161312	27147	1057695	46382	107905	0	0	8228	552368	0	0
2024-10-18 19:16:47			0	38321	0	0	0	21532	20090	161312	26870	1057703	46381	107905	0	0	8228	552754	0	0
2024-10-18 19:17:47			0	38335	0	0	0	21532	20090	161308	27109	1057713	46381	107905	0	0	8228	552202	0	0
2024-10-18 19:18:47			0	38328	0	0	0	21529	20090	161400	27034	1057730	46381	107904	0	0	8228	552478	0	0
2024-10-18 19:19:47			0	38325	0	0	0	21527	20090	161344	27216	1057650	46371	107903	0	0	8228	552596	0	0
2024-10-18 19:20:47			0	38326	0	0	0	21527	20090	161376	27206	1057659	46371	107903	0	0	8228	552557	0	0
2024-10-18 19:21:47			0	38316	0	0	0	21529	20090	161412	27595	1057686	46360	107904	0	0	8227	552952	0	0
2024-10-18 19:22:47			0	38321	0	0	0	21527	20090	161412	27350	1057606	46371	107903	0	0	8228	552754	0	0
2024-10-18 19:23:47			0	38324	0	0	0	21529	20090	161384	27383	1057650	46381	107904	0	0	8228	552636	0	0
2024-10-18 19:24:47			0	38322	0	0	0	21527	20080	161396	27639	1057668	46380	107903	0	0	8228	552745	0	0
2024-10-18 19:25:47			0	38320	0	0	0	21532	20090	161372	27249	1057677	46371	107905	0	0	8227	552794	0	0
2024-10-18 19:26:47			0	38338	0	0	0	21532	20090	161424	27329	1057713	46371	107905	0	0	8229	552083	0	0
2024-10-18 19:27:47			0	38312	0	0	0	21535	20100	161348	27371	1057748	46393	107906	0	0	8227	553079	0	0
2024-10-18 19:28:47			0	38336	0	0	0	21532	20090	161356	27263	1057650	46381	107905	0	0	8228	552162	0	0
2024-10-18 19:29:47			0	38309	0	0	0	21529	20090	161300	27381	1057677	46371	107904	0	0	8227	553228	0	0
2024-10-18 19:30:47			0	38324	0	0	0	21527	20090	161324	27255	1057703	46381	107903	0	0	8228	552636	0	0
2024-10-18 19:31:47			0	38301	0	0	0	21535	20090	161340	27185	1057703	46371	107906	0	0	8226	553544	0	0
2024-10-18 19:32:47			0	38317	0	0	0	21532	20100	161344	26935	1057748	46372	107905	0	0	8227	552882	0	0
2024-10-18 19:33:47			0	38314	0	0	0	21540	20100	161372	27261	1057748	46382	107908	0	0	8227	553000	0	0
2024-10-18 19:34:47			0	38322	0	0	0	21532	20090	161304	27187	1057739	46381	107905	0	0	8228	552715	0	0
2024-10-18 19:35:47			0	38319	0	0	0	21532	20090	161396	26935	1057713	46392	107905	0	0	8227	552833	0	0
2024-10-18 19:36:47			0	38325	0	0	0	21529	20080	161468	27145	1057694	46370	107904	0	0	8228	552627	0	0
2024-10-18 19:37:47			0	38304	0	0	0	21524	20090	161444	26909	1057739	46371	107902	0	0	8227	553426	0	0
2024-10-18 19:38:47			0	38300	0	0	0	21535	20080	161332	27242	1057668	46402	107906	0	0	8226	553614	0	0
2024-10-18 19:39:47			0	38296	0	0	0	21529	20090	161324	27303	1057739	46381	107904	0	0	8226	553742	0	0
2024-10-18 19:40:47			0	38309	0	0	0	21535	20090	161320	27597	1057739	46371	107906	0	0	8227	553228	0	0
2024-10-18 19:41:47			0	38300	0	0	0	21535	20090	161448	27152	1057677	46371	107906	0	0	8226	553584	0	0
2024-10-18 19:42:47			0	38319	0	0	0	21527	20090	161344	27090	1057739	46381	107903	0	0	8227	552833	0	0
2024-10-18 19:43:47			0	38303	0	0	0	21527	20090	161404	27164	1057703	46381	107903	0	0	8227	553465	0	0
2024-10-18 19:44:47			0	38307	0	0	0	21529	20080	161344	27614	1057668	46380	107904	0	0	8227	553338	0	0
2024-10-18 19:45:47			0	38293	0	0	0	21527	20080	161372	27511	1057668	46359	107903	0	0	8226	553891	0	0
2024-10-18 19:46:47			0	38315	0	0	0	21524	20100	161340	27436	1057748	46372	107902	0	0	8227	552961	0	0
2024-10-18 19:47:47			0	38321	0	0	0	21532	20090	161292	27185	1057739	46371	107905	0	0	8228	552754	0	0
2024-10-18 19:48:47			0	38327	0	0	0	21527	20090	161276	27237	1057713	46381	107903	0	0	8228	552518	0	0
2024-10-18 19:49:47			0	38333	0	0	0	21524	20090	161332	27267	1057659	46381	107902	0	0	8228	552281	0	0
2024-10-18 19:50:47			0	38346	0	0	0	21529	20090	161344	27371	1057713	46371	107904	0	0	8229	551768	0	0
2024-10-18 19:51:47			0	38330	0	0	0	21529	20090	161208	27135	1057739	46371	107904	0	0	8228	552399	0	0
2024-10-18 19:52:47			0	38340	0	0	0	21529	20100	161268	26928	1057721	46372	107904	0	0	8229	551974	0	0
2024-10-18 19:53:47			0	38346	0	0	0	21524	20090	161248	27093	1057703	46381	107902	0	0	8229	551768	0	0
2024-10-18 19:54:47			0	38351	0	0	0	21522	20090	161256	27372	1057677	46381	107901	0	0	8229	551571	0	0
2024-10-18 19:55:47			0	38336	0	0	0	21527	20100	161276	26925	1057695	46372	107903	0	0	8229	552132	0	0
2024-10-18 19:56:47			0	38342	0	0	0	21524	20080	161220	27241	1057721	46391	107902	0	0	8229	551956	0	0
2024-10-18 19:57:47			0	38341	0	0	0	21524	20090	161236	27467	1057756	46371	107902	0	0	8229	551965	0	0
2024-10-18 19:58:47			0	38351	0	0	0	21532	20090	161304	27339	1057703	46371	107905	0	0	8229	551571	0	0
2024-10-18 19:59:47			0	38343	0	0	0	21524	20080	161300	27066	1057721	46380	107902	0	0	8229	551917	0	0
2024-10-18 20:00:47			0	38363	0	0	0	21529	20080	161208	27173	1057659	46370	107904	0	0	8230	551128	0	0
2024-10-18 20:01:47			0	38358	0	0	0	21527	20090	161256	27227	1057730	46381	107903	0	0	8230	551295	0	0
2024-10-18 20:02:47			0	38361	0	0	0	21527	20090	161204	27097	1057713	46392	107903	0	0	8230	551176	0	0
2024-10-18 20:03:47			0	38345	0	0	0	21519	20090	161360	27026	1057730	46381	107900	0	0	8229	551807	0	0
2024-10-18 20:04:47			0	38351	0	0	0	21524	20080	161224	27218	1057641	46380	107902	0	0	8229	551601	0	0
2024-10-18 20:05:47			0	38353	0	0	0	21527	20080	161220	27374	1057694	46370	107903	0	0	8229	551522	0	0
2024-10-18 20:06:47			0	38361	0	0	0	21524	20090	161232	27466	1057677	46381	107902	0	0	8230	551176	0	0
2024-10-18 20:07:47			0	38345	0	0	0	21527	20080	161224	27222	1057668	46380	107903	0	0	8229	551838	0	0
2024-10-18 20:08:47			0	38348	0	0	0	21527	20090	161284	27490	1057756	46381	107903	0	0	8229	551689	0	0
2024-10-18 20:09:47			0	38340	0	0	0	21524	20090	161236	27268	1057730	46371	107902	0	0	8229	552004	0	0
2024-10-18 20:10:47			0	38328	0	0	0	21524	20080	161228	27298	1057641	46380	107902	0	0	8228	552508	0	0
2024-10-18 20:11:47			0	38329	0	0	0	21516	20090	161308	27185	1057713	46371	107899	0	0	8228	552439	0	0
2024-10-18 20:12:47			0	38315	0	0	0	21527	20080	161356	27105	1057694	46380	107903	0	0	8227	553022	0	0
2024-10-18 20:13:47			0	38347	0	0	0	21514	20080	161428	27235	1057641	46370	107898	0	0	8229	551759	0	0
2024-10-18 20:14:47			0	38321	0	0	0	21522	20080	161412	27137	1057668	46370	107901	0	0	8228	552785	0	0
2024-10-18 20:15:47			0	38314	0	0	0	21527	20080	161356	27481	1057685	46380	107903	0	0	8227	553061	0	0
2024-10-18 20:16:47			0	38328	0	0	0	21532	20080	161280	27112	1057588	46380	107905	0	0	8228	552508	0	0
2024-10-18 20:17:47			0	38322	0	0	0	21524	20080	161396	27246	1057659	46391	107902	0	0	8228	552745	0	0
2024-10-18 20:18:47			0	38313	0	0	0	21516	20090	161476	27263	1057703	46381	107899	0	0	8227	553070	0	0
2024-10-18 20:19:47			0	38320	0	0	0	21524	20080	161456	27029	1057668	46391	107902	0	0	8228	552824	0	0
2024-10-18 20:20:47			0	38320	0	0	0	21522	20090	161384	27457	1057703	46381	107901	0	0	8228	552794	0	0
2024-10-18 20:21:47			0	38310	0	0	0	21522	20080	161436	27514	1057579	46380	107901	0	0	8227	553219	0	0
2024-10-18 20:22:47			0	38327	0	0	0	21516	20080	161368	27293	1057641	46380	107899	0	0	8228	552548	0	0
2024-10-18 20:23:47			0	38329	0	0	0	21522	20080	161380	27140	1057668	46380	107901	0	0	8228	552469	0	0
2024-10-18 20:24:47			0	38324	0	0	0	21509	20080	161384	27306	1057659	46380	107896	0	0	8228	552666	0	0
2024-10-18 20:25:47			0	38332	0	0	0	21522	20070	161436	27130	1057650	46369	107901	0	0	8228	552381	0	0
2024-10-18 20:26:47			0	38318	0	0	0	21511	20080	161340	26864	1057641	46380	107897	0	0	8228	552903	0	0
2024-10-18 20:27:47			0	38333	0	0	0	21501	20080	161244	27246	1057632	46380	107893	0	0	8229	552311	0	0
2024-10-18 20:28:47			0	38332	0	0	0	21506	20080	161260	27289	1057606	46359	107895	0	0	8229	552350	0	0
2024-10-18 20:29:47			0	38332	0	0	0	21516	20070	161280	27216	1057597	46379	107899	0	0	8228	552381	0	0
2024-10-18 20:30:47			0	38315	0	0	0	21516	20080	161340	27185	1057606	46370	107899	0	0	8227	553022	0	0
2024-10-18 20:31:47			0	38328	0	0	0	21503	20080	161320	27215	1057659	46370	107894	0	0	8228	552508	0	0
2024-10-18 20:32:47			0	38315	0	0	0	21511	20070	161300	27417	1057641	46379	107897	0	0	8227	553052	0	0
2024-10-18 20:33:47			0	38337	0	0	0	21514	20070	161372	27431	1057597	46358	107898	0	0	8229	552184	0	0
2024-10-18 20:34:47			0	38320	0	0	0	21511	20070	161364	27569	1057597	46379	107897	0	0	8228	552855	0	0
2024-10-18 20:35:47			0	38345	0	0	0	21503	20080	161332	27338	1057552	46370	107894	0	0	8229	551838	0	0
2024-10-18 20:36:47			0	38321	0	0	0	21511	20070	161412	27454	1057588	46379	107897	0	0	8228	552815	0	0
2024-10-18 20:37:47			0	38329	0	0	0	21509	20070	161292	27329	1057597	46379	107896	0	0	8228	552500	0	0
2024-10-18 20:38:47			0	38329	0	0	0	21506	20070	161352	27447	1057570	46379	107895	0	0	8228	552500	0	0
2024-10-18 20:39:47			0	38327	0	0	0	21516	20070	161384	27386	1057641	46369	107899	0	0	8228	552578	0	0
2024-10-18 20:40:47			0	38327	0	0	0	21509	20080	161384	27448	1057579	46391	107896	0	0	8228	552548	0	0
2024-10-18 20:41:47			0	38316	0	0	0	21509	20070	161476	27171	1057597	46369	107896	0	0	8228	553013	0	0
2024-10-18 20:42:47			0	38301	0	0	0	21509	20080	161432	27008	1057632	46370	107896	0	0	8227	553575	0	0
2024-10-18 20:43:47			0	38307	0	0	0	21511	20070	161436	27098	1057623	46390	107897	0	0	8227	553368	0	0
2024-10-18 20:44:47			0	38310	0	0	0	21501	20070	161472	27220	1057623	46379	107893	0	0	8227	553250	0	0
2024-10-18 20:45:47			0	38304	0	0	0	21506	20080	161520	27313	1057659	46370	107895	0	0	8227	553456	0	0
2024-10-18 20:46:47			0	38307	0	0	0	21506	20070	161392	27613	1057534	46369	107895	0	0	8227	553368	0	0
2024-10-18 20:47:47			0	38311	0	0	0	21511	20070	161380	27319	1057614	46379	107897	0	0	8227	553210	0	0
2024-10-18 20:48:47			0	38315	0	0	0	21506	20080	161364	27258	1057632	46380	107895	0	0	8228	553022	0	0
2024-10-18 20:49:47			0	38312	0	0	0	21511	20080	161424	27208	1057632	46391	107897	0	0	8227	553140	0	0
2024-10-18 20:50:47			0	38292	0	0	0	21516	20070	161468	27675	1057588	46379	107899	0	0	8226	553961	0	0
2024-10-18 20:51:47			0	38285	0	0	0	21519	20070	161508	27417	1057614	46369	107900	0	0	8226	554238	0	0
2024-10-18 20:52:47			0	38275	0	0	0	21522	20070	161532	27175	1057614	46379	107901	0	0	8225	554633	0	0
2024-10-18 20:53:47			0	38269	0	0	0	21522	20070	161592	27027	1057597	46390	107901	0	0	8225	554871	0	0
2024-10-18 20:54:47			0	38274	0	0	0	21516	20080	161600	27268	1057721	46380	107899	0	0	8225	554642	0	0
2024-10-18 20:55:47			0	38268	0	0	0	21514	20080	161644	27118	1057685	46380	107898	0	0	8225	554880	0	0
2024-10-18 20:56:47			0	38260	0	0	0	21522	20070	161580	27287	1057597	46379	107901	0	0	8224	555227	0	0
2024-10-18 20:57:47			0	38262	0	0	0	21514	20080	161604	27208	1057659	46370	107898	0	0	8224	555117	0	0
2024-10-18 20:58:47			0	38262	0	0	0	21522	20080	161620	27086	1057632	46391	107901	0	0	8224	555117	0	0
2024-10-18 20:59:47			0	38259	0	0	0	21519	20070	161688	27294	1057650	46358	107900	0	0	8224	555267	0	0
2024-10-18 21:00:47			0	38256	0	0	0	21519	20080	161580	27187	1057685	46380	107900	0	0	8224	555355	0	0
2024-10-18 21:01:47			0	38262	0	0	0	21524	20080	161584	27152	1057685	46359	107902	0	0	8224	555117	0	0
2024-10-18 21:02:47			0	38259	0	0	0	21522	20080	161700	27251	1057632	46380	107901	0	0	8224	555236	0	0
2024-10-18 21:03:47			0	38233	0	0	0	21524	20080	161728	27171	1057659	46391	107902	0	0	8222	556266	0	0
2024-10-18 21:04:47			0	38221	0	0	0	21532	20080	161788	27303	1057685	46391	107905	0	0	8222	556742	0	0
2024-10-18 21:05:47			0	38221	0	0	0	21527	20080	161792	26790	1057685	46380	107903	0	0	8222	556742	0	0
2024-10-18 21:06:47			0	38201	0	0	0	21527	20080	161860	27175	1057685	46391	107903	0	0	8221	557535	0	0
2024-10-18 21:07:47			0	38184	0	0	0	21519	20080	161896	27327	1057712	46380	107900	0	0	8220	558211	0	0
2024-10-18 21:08:47			0	38179	0	0	0	21532	20080	161952	27104	1057685	46380	107905	0	0	8219	558409	0	0
2024-10-18 21:09:47			0	38175	0	0	0	21522	20080	161916	27275	1057694	46391	107901	0	0	8219	558568	0	0
2024-10-18 21:10:47			0	38167	0	0	0	21522	20080	161908	27031	1057668	46380	107901	0	0	8219	558886	0	0
2024-10-18 21:11:47			0	38172	0	0	0	21519	20090	162024	27329	1057677	46381	107900	0	0	8219	558656	0	0
2024-10-18 21:12:47			0	38176	0	0	0	21514	20080	162004	26939	1057668	46380	107898	0	0	8219	558528	0	0
2024-10-18 21:13:47			0	38165	0	0	0	21524	20080	162020	26972	1057685	46370	107902	0	0	8218	558966	0	0
2024-10-18 21:14:47			0	38200	0	0	0	21514	20090	161952	27313	1057756	46381	107898	0	0	8221	557544	0	0
2024-10-18 21:15:47			0	38192	0	0	0	21519	20070	161908	27352	1057650	46379	107900	0	0	8220	557924	0	0
2024-10-18 21:16:47			0	38186	0	0	0	21511	20080	161880	27467	1057659	46380	107897	0	0	8220	558131	0	0
2024-10-18 21:17:47			0	38219	0	0	0	21516	20070	161892	27157	1057730	46379	107899	0	0	8222	556852	0	0
2024-10-18 21:18:47			0	38217	0	0	0	21514	20080	161888	27064	1057694	46370	107898	0	0	8222	556901	0	0
2024-10-18 21:19:47			0	38222	0	0	0	21511	20080	161792	27175	1057641	46391	107897	0	0	8222	556702	0	0
2024-10-18 21:20:47			0	38207	0	0	0	21522	20080	161960	27296	1057694	46380	107901	0	0	8221	557297	0	0
2024-10-18 21:21:47			0	38200	0	0	0	21509	20070	161920	27364	1057623	46369	107896	0	0	8221	557606	0	0
2024-10-18 21:22:47			0	38191	0	0	0	21511	20090	161996	27092	1057623	46381	107897	0	0	8220	557902	0	0
2024-10-18 21:23:47			0	38176	0	0	0	21514	20080	161964	27256	1057712	46380	107898	0	0	8219	558528	0	0
2024-10-18 21:24:47			0	38171	0	0	0	21519	20070	162040	27142	1057703	46390	107900	0	0	8219	558758	0	0
2024-10-18 21:25:47			0	38169	0	0	0	21511	20070	162008	27093	1057676	46369	107897	0	0	8219	558838	0	0
2024-10-18 21:26:47			0	38182	0	0	0	21516	20080	161992	27396	1057632	46380	107899	0	0	8220	558290	0	0
2024-10-18 21:27:47			0	38186	0	0	0	21511	20080	161892	27294	1057712	46370	107897	0	0	8220	558131	0	0
2024-10-18 21:28:47			0	38197	0	0	0	21516	20070	161948	27140	1057623	46379	107899	0	0	8220	557725	0	0
2024-10-18 21:29:47			0	38183	0	0	0	21514	20080	161936	27386	1057659	46370	107898	0	0	8220	558250	0	0
2024-10-18 21:30:47			0	38185	0	0	0	21516	20080	161972	27175	1057641	46380	107899	0	0	8220	558171	0	0
2024-10-18 21:31:47			0	38184	0	0	0	21509	20070	162028	27166	1057650	46369	107896	0	0	8220	558241	0	0
2024-10-18 21:32:47			0	38169	0	0	0	21511	20070	162028	27300	1057676	46369	107897	0	0	8219	558838	0	0
2024-10-18 21:33:47			0	38184	0	0	0	21514	20080	161988	27339	1057606	46370	107898	0	0	8220	558211	0	0
2024-10-18 21:34:47			0	38195	0	0	0	21511	20070	161968	27348	1057650	46379	107897	0	0	8220	557804	0	0
2024-10-18 21:35:47			0	38188	0	0	0	21511	20070	161988	27367	1057676	46379	107897	0	0	8220	558082	0	0
2024-10-18 21:36:47			0	38179	0	0	0	21511	20080	162008	27538	1057685	46370	107897	0	0	8220	558409	0	0
2024-10-18 21:37:47			0	38173	0	0	0	21516	20070	162004	27296	1057623	46379	107899	0	0	8219	558678	0	0
2024-10-18 21:38:47			0	38157	0	0	0	21506	20080	162160	27386	1057668	46370	107895	0	0	8218	559284	0	0
2024-10-18 21:39:47			0	38167	0	0	0	21506	20080	162148	27178	1057659	46380	107895	0	0	8219	558886	0	0
2024-10-18 21:40:47			0	38144	0	0	0	21511	20070	162188	27322	1057650	46369	107897	0	0	8217	559832	0	0
2024-10-18 21:41:47			0	38147	0	0	0	21514	20070	162156	27213	1057641	46379	107898	0	0	8218	559712	0	0
2024-10-18 21:42:47			0	38162	0	0	0	21514	20070	162236	27279	1057597	46390	107898	0	0	8218	559116	0	0
2024-10-18 21:43:47			0	38142	0	0	0	21511	20070	162220	27307	1057597	46379	107897	0	0	8217	559911	0	0
2024-10-18 21:44:47			0	38157	0	0	0	21514	20070	162132	26949	1057641	46379	107898	0	0	8218	559315	0	0
2024-10-18 21:45:47			0	38153	0	0	0	21506	20070	162080	27138	1057623	46369	107895	0	0	8218	559474	0	0
2024-10-18 21:46:47			0	38172	0	0	0	21509	20070	162060	27203	1057597	46390	107896	0	0	8219	558718	0	0
2024-10-18 21:47:47			0	38162	0	0	0	21501	20070	161992	27100	1057623	46369	107893	0	0	8219	559116	0	0
2024-10-18 21:48:47			0	38176	0	0	0	21503	20080	162024	27116	1057668	46380	107894	0	0	8219	558528	0	0
2024-10-18 21:49:47			0	38166	0	0	0	21501	20070	162080	27138	1057623	46369	107893	0	0	8219	558957	0	0
2024-10-18 21:50:47			0	38178	0	0	0	21501	20070	162048	27194	1057641	46379	107893	0	0	8220	558480	0	0
2024-10-18 21:51:47			0	38160	0	0	0	21493	20070	162092	27445	1057588	46379	107890	0	0	8219	559195	0	0
2024-10-18 21:52:47			0	38150	0	0	0	21503	20060	162016	27175	1057543	46388	107894	0	0	8218	559624	0	0
2024-10-18 21:53:47			0	38169	0	0	0	21498	20070	162012	26904	1057614	46390	107892	0	0	8219	558838	0	0
2024-10-18 21:54:47			0	38154	0	0	0	21501	20080	162040	27374	1057632	46380	107893	0	0	8218	559403	0	0
2024-10-18 21:55:47			0	38161	0	0	0	21506	20070	162028	27381	1057597	46379	107895	0	0	8218	559155	0	0
2024-10-18 21:56:47			0	38167	0	0	0	21498	20070	162088	27384	1057561	46379	107892	0	0	8219	558917	0	0
2024-10-18 21:57:47			0	38159	0	0	0	21498	20070	162132	27182	1057614	46379	107892	0	0	8219	559235	0	0
2024-10-18 21:58:47			0	38164	0	0	0	21498	20060	162088	27282	1057570	46377	107892	0	0	8219	559067	0	0
2024-10-18 21:59:47			0	38158	0	0	0	21493	20070	162056	26913	1057561	46379	107890	0	0	8219	559275	0	0
2024-10-18 22:00:47			0	38143	0	0	0	21498	20060	162192	27161	1057570	46377	107892	0	0	8218	559902	0	0
2024-10-18 22:01:47			0	38142	0	0	0	21503	20060	162068	27331	1057579	46378	107894	0	0	8217	559942	0	0
2024-10-18 22:02:47			0	38142	0	0	0	21501	20070	162128	27433	1057561	46379	107893	0	0	8217	559911	0	0
2024-10-18 22:03:47			0	38175	0	0	0	21498	20060	162124	27502	1057543	46377	107892	0	0	8219	558630	0	0
2024-10-18 22:04:47			0	38183	0	0	0	21496	20070	162104	27258	1057561	46379	107891	0	0	8220	558281	0	0
2024-10-18 22:05:47			0	38172	0	0	0	21498	20060	162040	27398	1057570	46367	107892	0	0	8219	558749	0	0
2024-10-18 22:06:47			0	38163	0	0	0	21498	20050	162040	26970	1057534	46377	107892	0	0	8219	559138	0	0
2024-10-18 22:07:47			0	38187	0	0	0	21501	20070	162008	27338	1057561	46369	107893	0	0	8220	558122	0	0
2024-10-18 22:08:47			0	38205	0	0	0	21493	20060	161852	27156	1057517	46377	107890	0	0	8221	557438	0	0
2024-10-18 22:09:47			0	38180	0	0	0	21496	20060	161880	27156	1057605	46378	107891	0	0	8220	558431	0	0
2024-10-18 22:10:47			0	38192	0	0	0	21488	20060	161844	26953	1057517	46367	107888	0	0	8221	557954	0	0
2024-10-18 22:11:47			0	38199	0	0	0	21488	20060	161936	27123	1057596	46367	107888	0	0	8221	557676	0	0
2024-10-18 22:12:47			0	38220	0	0	0	21496	20050	161992	27234	1057605	46376	107891	0	0	8222	556874	0	0
2024-10-18 22:13:47			0	38205	0	0	0	21485	20060	161876	27138	1057596	46377	107887	0	0	8221	557438	0	0
2024-10-18 22:14:47			0	38213	0	0	0	21488	20050	161992	27027	1057587	46367	107888	0	0	8222	557151	0	0
2024-10-18 22:15:47			0	38202	0	0	0	21493	20060	161904	27235	1057605	46378	107890	0	0	8221	557557	0	0
2024-10-18 22:16:47			0	38195	0	0	0	21493	20050	161956	27192	1057614	46388	107890	0	0	8221	557866	0	0
2024-10-18 22:17:47			0	38213	0	0	0	21488	20060	161968	27390	1057543	46367	107888	0	0	8222	557121	0	0
2024-10-18 22:18:47			0	38205	0	0	0	21490	20060	161916	27291	1057596	46388	107889	0	0	8221	557438	0	0
2024-10-18 22:19:47			0	38213	0	0	0	21490	20060	161872	27426	1057552	46389	107889	0	0	8222	557121	0	0
2024-10-18 22:20:47			0	38216	0	0	0	21493	20060	161796	27256	1057526	46378	107890	0	0	8222	557002	0	0
2024-10-18 22:21:47			0	38215	0	0	0	21488	20050	161916	27097	1057525	46366	107888	0	0	8222	557072	0	0
2024-10-18 22:22:47			0	38199	0	0	0	21485	20050	161880	27249	1057552	46376	107887	0	0	8221	557707	0	0
2024-10-18 22:23:47			0	38202	0	0	0	21496	20060	161848	27377	1057570	46377	107891	0	0	8221	557557	0	0
2024-10-18 22:24:47			0	38186	0	0	0	21490	20060	161876	27260	1057526	46357	107889	0	0	8220	558193	0	0
2024-10-18 22:25:47			0	38185	0	0	0	21483	20050	161928	27137	1057534	46377	107886	0	0	8220	558263	0	0
2024-10-18 22:26:47			0	38193	0	0	0	21483	20050	161996	27161	1057587	46367	107886	0	0	8221	557945	0	0
2024-10-18 22:27:47			0	38164	0	0	0	21483	20060	161916	27194	1057543	46377	107886	0	0	8219	559067	0	0
2024-10-18 22:28:47			0	38190	0	0	0	21488	20060	162172	27355	1057543	46377	107888	0	0	8220	558034	0	0
2024-10-18 22:29:47			0	38170	0	0	0	21477	20060	162092	27055	1057517	46367	107884	0	0	8219	558829	0	0
2024-10-18 22:30:47			0	38161	0	0	0	21477	20050	162136	27289	1057499	46376	107884	0	0	8219	559217	0	0
2024-10-18 22:31:47			0	38166	0	0	0	21483	20050	162084	27260	1057552	46376	107886	0	0	8219	559018	0	0
2024-10-18 22:32:47			0	38134	0	0	0	21483	20050	162124	27303	1057508	46377	107886	0	0	8217	560292	0	0
2024-10-18 22:33:47			0	38142	0	0	0	21477	20050	162236	26956	1057508	46377	107884	0	0	8218	559973	0	0
2024-10-18 22:34:47			0	38137	0	0	0	21472	20050	162188	27649	1057472	46366	107882	0	0	8218	560172	0	0
2024-10-18 22:35:47			0	38129	0	0	0	21483	20050	162220	27313	1057552	46376	107886	0	0	8217	560491	0	0
2024-10-18 22:36:47			0	38111	0	0	0	21483	20050	162268	27194	1057499	46376	107886	0	0	8216	561208	0	0
2024-10-18 22:37:47			0	38145	0	0	0	21488	20050	162300	27331	1057578	46366	107888	0	0	8218	559854	0	0
2024-10-18 22:38:47			0	38127	0	0	0	21485	20050	162136	27135	1057499	46376	107887	0	0	8217	560570	0	0
2024-10-18 22:39:47			0	38123	0	0	0	21483	20050	162284	27008	1057525	46366	107886	0	0	8217	560730	0	0
2024-10-18 22:40:47			0	38121	0	0	0	21480	20050	162288	27196	1057525	46355	107885	0	0	8216	560810	0	0
2024-10-18 22:41:47			0	38124	0	0	0	21472	20050	162248	27194	1057552	46387	107882	0	0	8217	560690	0	0
2024-10-18 22:42:47			0	38116	0	0	0	21485	20040	162244	27159	1057490	46366	107887	0	0	8216	561040	0	0
2024-10-18 22:43:47			0	38094	0	0	0	21477	20050	162308	27277	1057454	46377	107884	0	0	8215	561886	0	0
2024-10-18 22:44:47			0	38108	0	0	0	21475	20050	162356	27383	1057508	46377	107883	0	0	8216	561327	0	0
2024-10-18 22:45:47			0	38084	0	0	0	21470	20050	162396	27242	1057561	46377	107881	0	0	8214	562285	0	0
2024-10-18 22:46:47			0	38068	0	0	0	21475	20040	162360	27031	1057481	46386	107883	0	0	8213	562955	0	0
2024-10-18 22:47:47			0	38085	0	0	0	21470	20050	162448	27301	1057499	46366	107881	0	0	8215	562245	0	0
2024-10-18 22:48:47			0	38053	0	0	0	21472	20050	162524	27284	1057499	46376	107882	0	0	8213	563523	0	0
2024-10-18 22:49:47			0	38062	0	0	0	21477	20050	162468	27403	1057472	46366	107884	0	0	8213	563163	0	0
2024-10-18 22:50:47			0	38065	0	0	0	21472	20050	162576	26963	1057525	46376	107882	0	0	8213	563043	0	0
2024-10-18 22:51:47			0	38052	0	0	0	21477	20040	162524	27412	1057481	46375	107884	0	0	8212	563594	0	0
2024-10-18 22:52:47			0	38056	0	0	0	21475	20040	162552	27197	1057454	46375	107883	0	0	8213	563434	0	0
2024-10-18 22:53:47			0	38068	0	0	0	21477	20050	162512	27298	1057552	46376	107884	0	0	8213	562924	0	0
2024-10-18 22:54:47			0	38068	0	0	0	21480	20040	162456	27204	1057490	46387	107885	0	0	8213	562955	0	0
2024-10-18 22:55:47			0	38071	0	0	0	21480	20050	162516	27095	1057499	46376	107885	0	0	8214	562804	0	0
2024-10-18 22:56:47			0	38059	0	0	0	21483	20050	162484	27289	1057445	46387	107886	0	0	8213	563283	0	0
2024-10-18 22:57:47			0	38066	0	0	0	21470	20040	162524	27164	1057516	46376	107881	0	0	8213	563034	0	0
2024-10-18 22:58:47			0	38047	0	0	0	21480	20050	162492	27173	1057454	46367	107885	0	0	8212	563763	0	0
2024-10-18 22:59:47			0	38055	0	0	0	21485	20040	162448	27272	1057481	46365	107887	0	0	8212	563474	0	0
2024-10-18 23:00:47			0	38065	0	0	0	21472	20040	162432	27362	1057516	46366	107882	0	0	8213	563074	0	0
2024-10-18 23:01:47			0	38068	0	0	0	21477	20050	162452	27407	1057499	46376	107884	0	0	8213	562924	0	0
2024-10-18 23:02:47			0	38069	0	0	0	21472	20050	162400	27493	1057499	46376	107882	0	0	8214	562884	0	0
2024-10-18 23:03:47			0	38051	0	0	0	21475	20050	162384	27215	1057552	46366	107883	0	0	8212	563603	0	0
2024-10-18 23:04:47			0	38062	0	0	0	21470	20040	162408	27473	1057481	46365	107881	0	0	8213	563194	0	0
2024-10-18 23:05:47			0	38050	0	0	0	21464	20040	162508	27135	1057516	46366	107879	0	0	8213	563674	0	0
2024-10-18 23:06:47			0	38058	0	0	0	21467	20040	162516	27166	1057543	46376	107880	0	0	8213	563354	0	0
2024-10-18 23:07:47			0	38057	0	0	0	21467	20040	162552	27204	1057436	46376	107880	0	0	8213	563394	0	0
2024-10-18 23:08:47			0	38048	0	0	0	21472	20040	162572	27131	1057507	46354	107882	0	0	8212	563754	0	0
2024-10-18 23:09:47			0	38065	0	0	0	21464	20040	162512	27138	1057481	46375	107879	0	0	8213	563074	0	0
2024-10-18 23:10:47			0	38083	0	0	0	21477	20040	162428	27403	1057481	46375	107884	0	0	8214	562356	0	0
2024-10-18 23:11:47			0	38075	0	0	0	21470	20030	162444	26939	1057472	46375	107881	0	0	8214	562706	0	0
2024-10-18 23:12:47			0	38096	0	0	0	21475	20040	162388	27105	1057490	46376	107883	0	0	8215	561837	0	0
2024-10-18 23:13:47			0	38099	0	0	0	21480	20040	162312	27142	1057454	46375	107885	0	0	8215	561717	0	0
2024-10-18 23:14:47			0	38120	0	0	0	21493	20030	162304	27364	1057436	46353	107890	0	0	8216	560911	0	0
2024-10-18 23:15:47			0	38113	0	0	0	21467	20040	162284	27086	1057534	46375	107880	0	0	8216	561159	0	0
2024-10-18 23:16:47			0	38117	0	0	0	21480	20040	162308	27400	1057534	46386	107885	0	0	8216	561000	0	0
2024-10-18 23:17:47			0	38129	0	0	0	21470	20040	162280	27509	1057490	46387	107881	0	0	8217	560522	0	0
2024-10-18 23:18:47			0	38138	0	0	0	21477	20040	162192	27563	1057516	46376	107884	0	0	8218	560163	0	0
2024-10-18 23:19:47			0	38141	0	0	0	21483	20050	162244	27180	1057525	46387	107886	0	0	8218	560013	0	0
2024-10-18 23:20:47			0	38150	0	0	0	21475	20050	162236	27303	1057552	46376	107883	0	0	8218	559655	0	0
2024-10-18 23:21:47			0	38154	0	0	0	21485	20050	162072	27097	1057578	46376	107887	0	0	8218	559496	0	0
2024-10-18 23:22:47			0	38156	0	0	0	21483	20030	162192	27150	1057498	46386	107886	0	0	8218	559478	0	0
2024-10-18 23:23:47			0	38153	0	0	0	21480	20040	162072	26790	1057490	46376	107885	0	0	8218	559566	0	0
2024-10-18 23:24:47			0	38156	0	0	0	21488	20050	162060	27365	1057525	46376	107888	0	0	8218	559416	0	0
2024-10-18 23:25:47			0	38189	0	0	0	21480	20050	162044	27211	1057534	46367	107885	0	0	8220	558104	0	0
2024-10-18 23:26:47			0	38179	0	0	0	21480	20040	161992	27215	1057490	46387	107885	0	0	8220	558532	0	0
2024-10-18 23:27:47			0	38194	0	0	0	21483	20040	161932	27308	1057534	46375	107886	0	0	8221	557936	0	0
2024-10-18 23:28:47			0	38197	0	0	0	21475	20040	162012	27078	1057490	46366	107883	0	0	8221	557817	0	0
2024-10-18 23:29:47			0	38196	0	0	0	21485	20030	161980	27185	1057551	46365	107887	0	0	8221	557888	0	0
2024-10-18 23:30:47			0	38206	0	0	0	21490	20060	161876	27213	1057570	46377	107889	0	0	8221	557398	0	0
2024-10-18 23:31:47			0	38202	0	0	0	21483	20030	161904	27097	1057445	46386	107886	0	0	8221	557650	0	0
2024-10-18 23:32:47			0	38200	0	0	0	21485	20050	161932	26958	1057525	46366	107887	0	0	8221	557667	0	0
2024-10-18 23:33:47			0	38199	0	0	0	21480	20050	161948	27235	1057552	46376	107885	0	0	8221	557707	0	0
2024-10-18 23:34:47			0	38179	0	0	0	21475	20040	161980	27173	1057481	46386	107883	0	0	8220	558532	0	0
2024-10-18 23:35:47			0	38142	0	0	0	21467	20040	162104	26968	1057516	46376	107880	0	0	8218	560004	0	0
2024-10-18 23:36:47			0	38132	0	0	0	21475	20040	162180	27447	1057490	46376	107883	0	0	8217	560402	0	0
2024-10-18 23:37:47			0	38112	0	0	0	21472	20040	162332	26838	1057463	46366	107882	0	0	8216	561199	0	0
2024-10-18 23:38:47			0	38101	0	0	0	21464	20040	162304	27234	1057534	46365	107879	0	0	8216	561637	0	0
2024-10-18 23:39:47			0	38099	0	0	0	21472	20020	162300	27074	1057454	46385	107882	0	0	8215	561779	0	0
2024-10-18 23:40:47			0	38113	0	0	0	21480	20050	162328	27196	1057499	46366	107885	0	0	8216	561128	0	0
2024-10-18 23:41:47			0	38122	0	0	0	21472	20040	162164	27528	1057516	46366	107882	0	0	8217	560800	0	0
2024-10-18 23:42:47			0	38137	0	0	0	21470	20040	162200	27138	1057463	46376	107881	0	0	8218	560203	0	0
2024-10-18 23:43:47			0	38120	0	0	0	21467	20040	162272	26922	1057516	46376	107880	0	0	8217	560880	0	0
2024-10-18 23:44:47			0	38108	0	0	0	21467	20040	162352	27422	1057507	46375	107880	0	0	8216	561358	0	0
2024-10-18 23:45:47			0	38085	0	0	0	21464	20030	162412	26989	1057498	46375	107879	0	0	8215	562307	0	0
2024-10-18 23:46:47			0	38078	0	0	0	21464	20040	162340	27286	1057507	46375	107879	0	0	8214	562555	0	0
2024-10-18 23:47:47			0	38074	0	0	0	21472	20040	162356	27331	1057516	46376	107882	0	0	8214	562715	0	0
2024-10-18 23:48:47			0	38108	0	0	0	21472	20040	162164	27168	1057560	46375	107882	0	0	8216	561358	0	0
2024-10-18 23:49:47			0	38139	0	0	0	21480	20040	162196	27090	1057507	46386	107885	0	0	8218	560123	0	0
2024-10-18 23:50:47			0	38148	0	0	0	21472	20040	162096	27312	1057507	46386	107882	0	0	8218	559765	0	0
2024-10-18 23:51:47			0	38178	0	0	0	21472	20030	162044	27046	1057516	46375	107882	0	0	8220	558603	0	0
2024-10-18 23:52:47			0	38197	0	0	0	21483	20040	161924	27225	1057507	46375	107886	0	0	8221	557817	0	0
2024-10-18 23:53:47			0	38196	0	0	0	21475	20040	161912	26755	1057490	46376	107883	0	0	8221	557857	0	0
2024-10-18 23:54:47			0	38220	0	0	0	21470	20040	161888	27263	1057534	46365	107881	0	0	8222	556904	0	0
2024-10-18 23:55:47			0	38200	0	0	0	21485	20040	161868	27190	1057507	46375	107887	0	0	8221	557698	0	0
2024-10-18 23:56:47			0	38207	0	0	0	21477	20040	161744	27232	1057534	46375	107884	0	0	8222	557420	0	0
2024-10-18 23:57:47			0	38233	0	0	0	21483	20050	161756	27066	1057578	46376	107886	0	0	8223	556358	0	0
2024-10-18 23:58:47			0	38220	0	0	0	21477	20040	161968	27391	1057490	46387	107884	0	0	8222	556904	0	0
2024-10-18 23:59:47			0	38222	0	0	0	21475	20040	161836	27312	1057463	46376	107883	0	0	8222	556825	0	0
2024-10-19 00:00:47			0	38236	0	0	0	21472	20030	161872	26927	1057472	46397	107882	0	0	8223	556301	0	0
2024-10-19 00:01:47			0	38214	0	0	0	21483	20040	161916	27183	1057490	46366	107886	0	0	8222	557142	0	0
2024-10-19 00:02:47			0	38225	0	0	0	21472	20040	161996	27365	1057481	46386	107882	0	0	8223	556706	0	0
2024-10-19 00:03:47			0	38202	0	0	0	21475	20040	161864	26856	1057490	46376	107883	0	0	8221	557619	0	0
2024-10-19 00:04:47			0	38209	0	0	0	21470	20040	161884	27289	1057543	46376	107881	0	0	8222	557341	0	0
2024-10-19 00:05:47			0	38211	0	0	0	21472	20040	162020	27287	1057490	46366	107882	0	0	8222	557262	0	0
2024-10-19 00:06:47			0	38206	0	0	0	21475	20050	161932	27402	1057525	46376	107883	0	0	8222	557429	0	0
2024-10-19 00:07:47			0	38217	0	0	0	21480	20040	161948	27197	1057490	46376	107885	0	0	8222	557023	0	0
2024-10-19 00:08:47			0	38218	0	0	0	21472	20040	161900	27298	1057507	46386	107882	0	0	8222	556984	0	0
2024-10-19 00:09:47			0	38224	0	0	0	21470	20040	161884	27277	1057516	46376	107881	0	0	8223	556746	0	0
2024-10-19 00:10:47			0	38228	0	0	0	21480	20030	161784	27222	1057445	46365	107885	0	0	8223	556618	0	0
2024-10-19 00:11:47			0	38225	0	0	0	21475	20040	161840	27517	1057507	46365	107883	0	0	8223	556706	0	0
2024-10-19 00:12:47			0	38218	0	0	0	21470	20040	161932	26970	1057516	46398	107881	0	0	8222	556984	0	0
2024-10-19 00:13:47			0	38226	0	0	0	21477	20040	161952	27415	1057490	46376	107884	0	0	8223	556666	0	0
2024-10-19 00:14:47			0	38213	0	0	0	21475	20030	161904	26970	1057472	46365	107883	0	0	8222	557213	0	0
2024-10-19 00:15:47			0	38206	0	0	0	21467	20030	161896	26996	1057498	46354	107880	0	0	8222	557491	0	0
2024-10-19 00:16:47			0	38198	0	0	0	21472	20040	161996	26913	1057463	46366	107882	0	0	8221	557778	0	0
2024-10-19 00:17:47			0	38178	0	0	0	21477	20040	162120	27208	1057543	46376	107884	0	0	8220	558572	0	0
2024-10-19 00:18:47			0	38161	0	0	0	21462	20040	162048	26956	1057507	46375	107878	0	0	8219	559248	0	0
2024-10-19 00:19:47			0	38133	0	0	0	21464	20040	162032	27137	1057560	46365	107879	0	0	8217	560362	0	0
2024-10-19 00:20:47			0	38142	0	0	0	21462	20030	162180	27046	1057498	46375	107878	0	0	8218	560035	0	0
2024-10-19 00:21:47			0	38140	0	0	0	21462	20040	162148	27284	1057507	46375	107878	0	0	8218	560084	0	0
2024-10-19 00:22:47			0	38131	0	0	0	21472	20040	162096	26968	1057507	46375	107882	0	0	8217	560442	0	0
2024-10-19 00:23:47			0	38118	0	0	0	21467	20030	162164	27429	1057498	46375	107880	0	0	8216	560991	0	0
2024-10-19 00:24:47			0	38119	0	0	0	21464	20030	162280	27194	1057472	46365	107879	0	0	8217	560951	0	0
2024-10-19 00:25:47			0	38100	0	0	0	21457	20040	162316	27312	1057454	46375	107876	0	0	8216	561677	0	0
2024-10-19 00:26:47			0	38057	0	0	0	21462	20020	162480	27164	1057427	46364	107878	0	0	8213	563456	0	0
2024-10-19 00:27:47			0	38041	0	0	0	21454	20030	162524	27017	1057472	46365	107875	0	0	8212	564065	0	0
2024-10-19 00:28:47			0	38032	0	0	0	21451	20030	162584	27159	1057489	46375	107874	0	0	8212	564425	0	0
2024-10-19 00:29:47			0	38016	0	0	0	21449	20030	162631	27362	1057445	46375	107873	0	0	8211	565065	0	0
2024-10-19 00:30:47			0	37990	0	0	0	21444	20020	162699	27078	1057480	46364	107871	0	0	8209	566138	0	0
2024-10-19 00:31:47			0	37986	0	0	0	21449	20030	162791	27012	1057356	46375	107873	0	0	8209	566267	0	0
2024-10-19 00:32:47			0	37956	0	0	0	21446	20030	162859	27336	1057410	46364	107872	0	0	8207	567470	0	0
2024-10-19 00:33:47			0	37955	0	0	0	21454	20020	162859	27244	1057418	46374	107875	0	0	8207	567542	0	0
2024-10-19 00:34:47			0	37940	0	0	0	21438	20020	162927	27097	1057348	46375	107869	0	0	8206	568144	0	0
2024-10-19 00:35:47			0	37927	0	0	0	21438	20020	162927	27225	1057374	46375	107869	0	0	8206	568666	0	0
2024-10-19 00:36:47			0	37941	0	0	0	21441	20010	162995	27242	1057383	46363	107870	0	0	8206	568135	0	0
2024-10-19 00:37:47			0	37930	0	0	0	21433	20010	162983	27131	1057356	46374	107867	0	0	8206	568577	0	0
2024-10-19 00:38:47			0	37927	0	0	0	21444	20020	163023	26946	1057365	46363	107871	0	0	8206	568666	0	0
2024-10-19 00:39:47			0	37919	0	0	0	21441	20010	163067	27086	1057383	46374	107870	0	0	8205	569019	0	0
2024-10-19 00:40:47			0	37938	0	0	0	21441	20010	163023	27192	1057374	46373	107870	0	0	8206	568256	0	0
2024-10-19 00:41:47			0	37906	0	0	0	21446	20000	163107	27055	1057338	46362	107872	0	0	8204	569574	0	0
2024-10-19 00:42:47			0	37931	0	0	0	21433	20010	163107	27249	1057330	46363	107867	0	0	8206	568537	0	0
2024-10-19 00:43:47			0	37915	0	0	0	21438	20010	163019	27512	1057409	46363	107869	0	0	8205	569180	0	0
2024-10-19 00:44:47			0	37902	0	0	0	21449	20000	163115	27353	1057285	46373	107873	0	0	8204	569735	0	0
2024-10-19 00:45:47			0	37887	0	0	0	21441	20010	163155	27043	1057330	46384	107870	0	0	8203	570307	0	0
2024-10-19 00:46:47			0	37902	0	0	0	21431	20010	163219	27478	1057356	46363	107866	0	0	8204	569703	0	0
2024-10-19 00:47:47			0	37891	0	0	0	21438	20010	163227	27189	1057303	46352	107869	0	0	8203	570146	0	0
2024-10-19 00:48:47			0	37872	0	0	0	21438	20000	163227	27138	1057356	46372	107869	0	0	8202	570943	0	0
2024-10-19 00:49:47			0	37867	0	0	0	21433	20010	163323	27260	1057294	46373	107867	0	0	8202	571113	0	0
2024-10-19 00:50:47			0	37850	0	0	0	21436	20010	163255	27144	1057303	46363	107868	0	0	8201	571798	0	0
2024-10-19 00:51:47			0	37864	0	0	0	21433	20010	163355	27267	1057356	46374	107867	0	0	8202	571234	0	0
2024-10-19 00:52:47			0	37871	0	0	0	21428	20000	163307	27095	1057338	46373	107865	0	0	8202	570983	0	0
2024-10-19 00:53:47			0	37872	0	0	0	21436	19990	163283	27298	1057374	46381	107868	0	0	8202	570974	0	0
2024-10-19 00:54:47			0	37859	0	0	0	21433	20000	163303	26823	1057329	46372	107867	0	0	8202	571467	0	0
2024-10-19 00:55:47			0	37854	0	0	0	21436	20000	163259	27291	1057338	46383	107868	0	0	8201	571668	0	0
2024-10-19 00:56:47			0	37868	0	0	0	21438	20000	163331	27057	1057285	46373	107869	0	0	8202	571104	0	0
2024-10-19 00:57:47			0	37864	0	0	0	21436	20020	163243	27294	1057365	46374	107868	0	0	8202	571202	0	0
2024-10-19 00:58:47			0	37867	0	0	0	21433	20010	163255	27289	1057321	46351	107867	0	0	8202	571113	0	0
2024-10-19 00:59:47			0	37867	0	0	0	21441	20010	163339	27203	1057400	46383	107870	0	0	8202	571113	0	0
2024-10-19 01:00:47			0	37884	0	0	0	21441	20010	163327	27483	1057374	46373	107870	0	0	8203	570428	0	0
2024-10-19 01:01:47			0	37883	0	0	0	21436	20010	163323	27131	1057383	46384	107868	0	0	8203	570468	0	0
2024-10-19 01:02:47			0	37865	0	0	0	21428	20010	163407	27166	1057427	46373	107865	0	0	8202	571193	0	0
2024-10-19 01:03:47			0	37860	0	0	0	21425	20000	163515	26958	1057356	46361	107864	0	0	8202	571426	0	0
2024-10-19 01:04:47			0	37846	0	0	0	21420	20000	163463	27116	1057312	46362	107862	0	0	8201	571991	0	0
2024-10-19 01:05:47			0	37837	0	0	0	21431	20000	163543	26967	1057338	46362	107866	0	0	8200	572354	0	0
2024-10-19 01:06:47			0	37834	0	0	0	21423	20000	163491	27291	1057356	46361	107863	0	0	8200	572476	0	0
2024-10-19 01:07:47			0	37837	0	0	0	21428	20000	163563	27223	1057312	46362	107865	0	0	8200	572354	0	0
2024-10-19 01:08:47			0	37811	0	0	0	21428	20000	163583	26890	1057365	46373	107865	0	0	8199	573404	0	0
2024-10-19 01:09:47			0	37811	0	0	0	21425	20000	163455	27346	1057312	46362	107864	0	0	8199	573404	0	0
2024-10-19 01:10:47			0	37810	0	0	0	21431	20000	163527	26996	1057382	46382	107866	0	0	8199	573445	0	0
2024-10-19 01:11:47			0	37798	0	0	0	21423	20000	163679	27448	1057276	46372	107863	0	0	8198	573930	0	0
2024-10-19 01:12:47			0	37790	0	0	0	21423	19990	163623	27235	1057294	46381	107863	0	0	8198	574285	0	0
2024-10-19 01:13:47			0	37784	0	0	0	21428	20000	163659	27057	1057303	46372	107865	0	0	8197	574496	0	0
2024-10-19 01:14:47			0	37802	0	0	0	21423	19990	163563	27282	1057294	46371	107863	0	0	8198	573800	0	0
2024-10-19 01:15:47			0	37793	0	0	0	21418	19990	163603	27339	1057347	46371	107861	0	0	8198	574164	0	0
2024-10-19 01:16:47			0	37810	0	0	0	21423	19980	163395	27154	1057302	46371	107863	0	0	8199	573508	0	0
2024-10-19 01:17:47			0	37833	0	0	0	21428	19990	163475	27144	1057311	46381	107865	0	0	8200	572547	0	0
2024-10-19 01:18:47			0	37823	0	0	0	21423	19990	163467	27312	1057267	46360	107863	0	0	8200	572951	0	0
2024-10-19 01:19:47			0	37810	0	0	0	21423	20000	163447	27229	1057303	46372	107863	0	0	8199	573445	0	0
2024-10-19 01:20:47			0	37797	0	0	0	21415	19990	163623	27317	1057294	46371	107860	0	0	8198	574002	0	0
2024-10-19 01:21:47			0	37805	0	0	0	21418	19990	163599	27175	1057347	46349	107861	0	0	8199	573679	0	0
2024-10-19 01:22:47			0	37805	0	0	0	21402	19980	163543	27319	1057276	46381	107855	0	0	8199	573710	0	0
2024-10-19 01:23:47			0	37836	0	0	0	21405	19990	163547	27263	1057285	46381	107856	0	0	8201	572426	0	0
2024-10-19 01:24:47			0	37856	0	0	0	21402	19980	163539	27137	1057223	46360	107855	0	0	8202	571651	0	0
2024-10-19 01:25:47			0	37940	0	0	0	21379	19990	163035	27287	1057258	46371	107846	0	0	8207	568238	0	0
2024-10-19 01:26:47			0	37991	0	0	0	21397	19970	162891	27225	1057152	46358	107853	0	0	8210	566254	0	0
2024-10-19 01:27:47			0	38019	0	0	0	21402	19970	162791	27272	1057205	46346	107855	0	0	8211	565132	0	0
2024-10-19 01:28:47			0	38015	0	0	0	21402	19980	162748	27100	1057161	46359	107855	0	0	8211	565261	0	0
2024-10-19 01:29:47			0	38015	0	0	0	21402	19980	162863	27225	1057196	46371	107855	0	0	8211	565261	0	0
2024-10-19 01:30:47			0	37987	0	0	0	21402	19980	162707	27220	1057170	46371	107855	0	0	8210	566383	0	0
2024-10-19 01:31:47			0	37974	0	0	0	21405	19970	162807	27235	1057195	46369	107856	0	0	8209	566935	0	0
2024-10-19 01:32:47			0	37970	0	0	0	21402	19980	162907	26814	1057196	46371	107855	0	0	8209	567065	0	0
2024-10-19 01:33:47			0	37961	0	0	0	21397	19970	162915	27308	1057178	46369	107853	0	0	8208	567457	0	0
2024-10-19 01:34:47			0	38011	0	0	0	21397	19970	162823	27079	1057169	46358	107853	0	0	8211	565452	0	0
2024-10-19 01:35:47			0	38061	0	0	0	21394	19970	162580	27267	1057195	46369	107852	0	0	8214	563452	0	0
2024-10-19 01:36:47			0	38129	0	0	0	21399	19970	162284	27118	1057178	46369	107854	0	0	8218	560738	0	0
2024-10-19 01:37:47			0	38187	0	0	0	21399	19980	161952	27171	1057214	46370	107854	0	0	8221	558399	0	0
2024-10-19 01:38:47			0	38227	0	0	0	21397	19980	161920	27353	1057161	46347	107853	0	0	8224	556811	0	0
2024-10-19 01:39:47			0	38232	0	0	0	21405	19970	161936	27360	1057195	46358	107856	0	0	8224	556643	0	0
2024-10-19 01:40:47			0	38206	0	0	0	21392	19970	161980	27190	1057222	46369	107851	0	0	8223	557675	0	0
2024-10-19 01:41:47			0	38218	0	0	0	21399	19970	161972	27029	1057142	46369	107854	0	0	8223	557199	0	0
2024-10-19 01:42:47			0	38221	0	0	0	21394	19970	162028	27293	1057205	46369	107852	0	0	8223	557080	0	0
2024-10-19 01:43:47			0	38199	0	0	0	21405	19970	161972	27154	1057222	46358	107856	0	0	8222	557953	0	0
2024-10-19 01:44:47			0	38219	0	0	0	21397	19970	161904	27183	1057178	46379	107853	0	0	8223	557159	0	0
2024-10-19 01:45:47			0	38213	0	0	0	21405	19970	161940	27208	1057116	46369	107856	0	0	8223	557397	0	0
2024-10-19 01:46:47			0	38231	0	0	0	21402	19970	161912	27183	1057169	46369	107855	0	0	8224	556683	0	0
2024-10-19 01:47:47			0	38205	0	0	0	21397	19950	162012	27161	1057231	46368	107853	0	0	8222	557776	0	0
2024-10-19 01:48:47			0	38212	0	0	0	21392	19970	162060	27164	1057205	46369	107851	0	0	8223	557437	0	0
2024-10-19 01:49:47			0	38201	0	0	0	21392	19970	162044	27095	1057169	46369	107851	0	0	8222	557874	0	0
2024-10-19 01:50:47			0	38204	0	0	0	21394	19950	162136	27062	1057169	46388	107852	0	0	8222	557816	0	0
2024-10-19 01:51:47			0	38187	0	0	0	21386	19960	162200	26932	1057186	46378	107849	0	0	8222	558461	0	0
2024-10-19 01:52:47			0	38179	0	0	0	21397	19960	162152	26835	1057186	46368	107853	0	0	8221	558779	0	0
2024-10-19 01:53:47			0	38191	0	0	0	21397	19970	162084	26967	1057152	46369	107853	0	0	8222	558271	0	0
2024-10-19 01:54:47			0	38211	0	0	0	21399	19970	162056	26993	1057205	46369	107854	0	0	8223	557477	0	0
2024-10-19 01:55:47			0	38206	0	0	0	21394	19960	162040	27137	1057186	46357	107852	0	0	8223	557706	0	0
2024-10-19 01:56:47			0	38191	0	0	0	21399	19950	162040	27036	1057124	46345	107854	0	0	8222	558332	0	0
2024-10-19 01:57:47			0	38169	0	0	0	21405	19950	162224	26967	1057098	46378	107856	0	0	8220	559207	0	0
2024-10-19 01:58:47			0	38170	0	0	0	21412	19980	162220	26993	1057187	46370	107859	0	0	8220	559075	0	0
2024-10-19 01:59:47			0	38169	0	0	0	21394	19970	162272	27197	1057205	46358	107852	0	0	8220	559146	0	0
2024-10-19 02:00:47			0	38187	0	0	0	21405	19960	162168	27121	1057186	46345	107856	0	0	8221	558461	0	0
2024-10-19 02:01:47			0	38217	0	0	0	21392	19970	162048	27081	1057231	46369	107851	0	0	8223	557238	0	0
2024-10-19 02:02:47			0	38249	0	0	0	21405	19960	161916	27095	1057160	46357	107856	0	0	8225	556000	0	0
2024-10-19 02:03:47			0	38273	0	0	0	21405	19960	161920	27036	1057160	46368	107856	0	0	8226	555049	0	0
2024-10-19 02:04:47			0	38274	0	0	0	21405	19970	161820	27130	1057249	46369	107856	0	0	8226	554979	0	0
2024-10-19 02:05:47			0	38305	0	0	0	21410	19970	161812	26946	1057222	46369	107858	0	0	8228	553753	0	0
2024-10-19 02:06:47			0	38303	0	0	0	21399	19970	161676	26963	1057152	46379	107854	0	0	8228	553832	0	0
2024-10-19 02:07:47			0	38292	0	0	0	21402	19970	161560	27150	1057205	46358	107855	0	0	8227	554267	0	0
2024-10-19 02:08:47			0	38331	0	0	0	21399	19980	161488	27149	1057134	46370	107854	0	0	8230	552695	0	0
2024-10-19 02:09:47			0	38341	0	0	0	21402	19970	161396	27371	1057222	46379	107855	0	0	8230	552330	0	0
2024-10-19 02:10:47			0	38361	0	0	0	21399	19970	161460	27237	1057222	46369	107854	0	0	8232	551541	0	0
2024-10-19 02:11:47			0	38356	0	0	0	21399	19950	161416	26925	1057124	46368	107854	0	0	8231	551799	0	0
2024-10-19 02:12:47			0	38369	0	0	0	21399	19970	161372	27182	1057169	46358	107854	0	0	8232	551226	0	0
2024-10-19 02:13:47			0	38377	0	0	0	21407	19970	161344	27291	1057249	46379	107857	0	0	8232	550911	0	0
2024-10-19 02:14:47			0	38387	0	0	0	21397	19960	161296	27090	1057186	46357	107853	0	0	8233	550547	0	0
2024-10-19 02:15:47			0	38404	0	0	0	21394	19970	161184	26854	1057142	46369	107852	0	0	8234	549847	0	0
2024-10-19 02:16:47			0	38420	0	0	0	21399	19970	161184	27300	1057195	46358	107854	0	0	8235	549217	0	0
2024-10-19 02:17:47			0	38415	0	0	0	21399	19960	161168	27052	1057160	46357	107854	0	0	8235	549444	0	0
2024-10-19 02:18:47			0	38406	0	0	0	21394	19970	161168	26998	1057169	46358	107852	0	0	8234	549768	0	0
2024-10-19 02:19:47			0	38394	0	0	0	21402	19950	161204	27166	1057204	46368	107855	0	0	8233	550301	0	0
2024-10-19 02:20:47			0	38387	0	0	0	21399	19970	161212	27298	1057195	46358	107854	0	0	8233	550516	0	0
2024-10-19 02:21:47			0	38369	0	0	0	21394	19950	161300	27381	1057151	46368	107852	0	0	8232	551287	0	0
2024-10-19 02:22:47			0	38372	0	0	0	21399	19960	161356	26942	1057160	46368	107854	0	0	8232	551138	0	0
2024-10-19 02:23:47			0	38363	0	0	0	21397	19960	161536	27130	1057213	46357	107853	0	0	8232	551493	0	0
2024-10-19 02:24:47			0	38345	0	0	0	21399	19960	161460	27223	1057186	46345	107854	0	0	8231	552203	0	0
2024-10-19 02:25:47			0	38332	0	0	0	21394	19950	161564	27019	1057151	46368	107852	0	0	8230	552747	0	0
2024-10-19 02:26:47			0	38354	0	0	0	21399	19970	161516	27209	1057195	46346	107854	0	0	8231	551817	0	0
2024-10-19 02:27:47			0	38354	0	0	0	21392	19970	161480	27053	1057178	46369	107851	0	0	8231	551817	0	0
2024-10-19 02:28:47			0	38361	0	0	0	21381	19960	161444	26974	1057133	46368	107847	0	0	8232	551572	0	0
2024-10-19 02:29:47			0	38378	0	0	0	21394	19970	161432	26842	1057169	46369	107852	0	0	8233	550871	0	0
2024-10-19 02:30:47			0	38405	0	0	0	21386	19960	161344	27305	1057107	46368	107849	0	0	8234	549838	0	0
2024-10-19 02:31:47			0	38435	0	0	0	21381	19950	161244	27362	1057142	46367	107847	0	0	8236	548688	0	0
2024-10-19 02:32:47			0	38428	0	0	0	21381	19950	161084	27093	1057195	46344	107847	0	0	8236	548963	0	0
2024-10-19 02:33:47			0	38434	0	0	0	21381	19950	161144	26925	1057071	46368	107847	0	0	8236	548727	0	0
2024-10-19 02:34:47			0	38441	0	0	0	21376	19950	161164	27485	1057098	46368	107845	0	0	8237	548452	0	0
2024-10-19 02:35:47			0	38446	0	0	0	21376	19950	161000	27147	1057098	46357	107845	0	0	8237	548256	0	0
2024-10-19 02:36:47			0	38442	0	0	0	21381	19950	161048	27450	1057124	46368	107847	0	0	8237	548413	0	0
2024-10-19 02:37:47			0	38454	0	0	0	21371	19950	161100	27034	1057142	46367	107843	0	0	8237	547942	0	0
2024-10-19 02:38:47			0	38444	0	0	0	21384	19930	161188	27235	1057062	46355	107848	0	0	8237	548395	0	0
2024-10-19 02:39:47			0	38447	0	0	0	21374	19940	161076	26953	1057071	46366	107844	0	0	8237	548247	0	0
2024-10-19 02:40:47			0	38441	0	0	0	21371	19940	161104	26986	1057044	46366	107843	0	0	8237	548482	0	0
2024-10-19 02:41:47			0	38469	0	0	0	21381	19940	161052	27076	1057071	46366	107847	0	0	8238	547383	0	0
2024-10-19 02:42:47			0	38451	0	0	0	21371	19940	161176	27223	1057071	46355	107843	0	0	8237	548089	0	0
2024-10-19 02:43:47			0	38418	0	0	0	21374	19940	161092	27204	1057098	46366	107844	0	0	8235	549387	0	0
2024-10-19 02:44:47			0	38410	0	0	0	21381	19940	161112	27267	1057044	46355	107847	0	0	8235	549702	0	0
2024-10-19 02:45:47			0	38426	0	0	0	21376	19940	161200	27102	1057106	46367	107845	0	0	8236	549072	0	0
2024-10-19 02:46:47			0	38398	0	0	0	21381	19940	161232	27182	1057071	46355	107847	0	0	8234	550174	0	0
2024-10-19 02:47:47			0	38401	0	0	0	21379	19950	161328	27216	1057115	46367	107846	0	0	8234	550026	0	0
2024-10-19 02:48:47			0	38389	0	0	0	21386	19940	161332	27121	1057071	46366	107849	0	0	8233	550529	0	0
2024-10-19 02:49:47			0	38386	0	0	0	21379	19940	161340	27241	1057053	46356	107846	0	0	8233	550647	0	0
2024-10-19 02:50:47			0	38389	0	0	0	21376	19950	161300	27286	1057062	46356	107845	0	0	8234	550498	0	0
2024-10-19 02:51:47			0	38372	0	0	0	21379	19940	161424	27260	1057080	46377	107846	0	0	8232	551199	0	0
2024-10-19 02:52:47			0	38366	0	0	0	21374	19940	161428	27230	1057106	46367	107844	0	0	8232	551435	0	0
2024-10-19 02:53:47			0	38368	0	0	0	21374	19940	161448	27263	1057098	46366	107844	0	0	8232	551356	0	0
2024-10-19 02:54:47			0	38358	0	0	0	21374	19950	161584	27227	1057062	46367	107844	0	0	8232	551720	0	0
2024-10-19 02:55:47			0	38352	0	0	0	21379	19950	161572	27407	1057089	46367	107846	0	0	8231	551957	0	0
2024-10-19 02:56:47			0	38349	0	0	0	21368	19930	161576	27274	1057062	46355	107842	0	0	8231	552136	0	0
2024-10-19 02:57:47			0	38351	0	0	0	21379	19950	161508	27296	1057089	46377	107846	0	0	8231	551997	0	0
2024-10-19 02:58:47			0	38346	0	0	0	21371	19940	161492	27072	1057098	46355	107843	0	0	8231	552224	0	0
2024-10-19 02:59:47			0	38339	0	0	0	21381	19940	161468	27124	1057071	46366	107847	0	0	8230	552501	0	0
2024-10-19 03:00:47			0	38339	0	0	0	21368	19950	161584	27093	1057062	46356	107842	0	0	8231	552470	0	0
2024-10-19 03:01:47			0	38318	0	0	0	21376	19930	161488	27287	1057062	46355	107845	0	0	8229	553361	0	0
2024-10-19 03:02:47			0	38337	0	0	0	21374	19940	161580	27020	1057080	46367	107844	0	0	8230	552580	0	0
2024-10-19 03:03:47			0	38353	0	0	0	21366	19930	161472	26981	1057009	46355	107841	0	0	8231	551979	0	0
2024-10-19 03:04:47			0	38334	0	0	0	21366	19930	161536	27041	1057035	46355	107841	0	0	8230	552729	0	0
2024-10-19 03:05:47			0	38332	0	0	0	21363	19930	161500	26993	1057009	46366	107840	0	0	8230	552808	0	0
2024-10-19 03:06:47			0	38329	0	0	0	21355	19930	161496	26937	1057062	46366	107837	0	0	8230	552926	0	0
2024-10-19 03:07:47			0	38308	0	0	0	21358	19940	161584	27118	1057018	46366	107838	0	0	8229	553726	0	0
2024-10-19 03:08:47			0	38328	0	0	0	21355	19940	161604	27213	1057080	46356	107837	0	0	8230	552935	0	0
2024-10-19 03:09:47			0	38337	0	0	0	21366	19940	161612	27066	1056991	46366	107841	0	0	8231	552580	0	0
2024-10-19 03:10:47			0	38325	0	0	0	21366	19930	161612	27150	1057053	46354	107841	0	0	8230	553084	0	0
2024-10-19 03:11:47			0	38344	0	0	0	21366	19940	161576	27256	1056991	46366	107841	0	0	8231	552303	0	0
2024-10-19 03:12:47			0	38353	0	0	0	21363	19920	161540	27235	1056991	46364	107840	0	0	8232	552009	0	0
2024-10-19 03:13:47			0	38334	0	0	0	21368	19930	161416	27232	1057000	46365	107842	0	0	8230	552729	0	0
2024-10-19 03:14:47			0	38344	0	0	0	21366	19930	161464	27201	1057035	46343	107841	0	0	8231	552334	0	0
2024-10-19 03:15:47			0	38366	0	0	0	21361	19930	161428	27232	1057035	46376	107839	0	0	8232	551466	0	0
2024-10-19 03:16:47			0	38370	0	0	0	21371	19920	161376	26876	1057018	46364	107843	0	0	8232	551338	0	0
2024-10-19 03:17:47			0	38375	0	0	0	21371	19930	161360	26922	1057026	46365	107843	0	0	8233	551111	0	0
2024-10-19 03:18:47			0	38383	0	0	0	21366	19930	161308	27067	1057026	46354	107841	0	0	8233	550795	0	0
2024-10-19 03:19:47			0	38380	0	0	0	21374	19930	161316	26785	1057009	46366	107844	0	0	8233	550914	0	0
2024-10-19 03:20:47			0	38388	0	0	0	21376	19930	161448	27246	1057062	46366	107845	0	0	8233	550598	0	0
2024-10-19 03:21:47			0	38385	0	0	0	21371	19940	161320	27320	1057124	46366	107843	0	0	8233	550686	0	0
2024-10-19 03:22:47			0	38381	0	0	0	21381	19930	161360	27242	1057080	46365	107847	0	0	8233	550874	0	0
2024-10-19 03:23:47			0	38373	0	0	0	21374	19940	161328	27218	1057098	46366	107844	0	0	8233	551159	0	0
2024-10-19 03:24:47			0	38365	0	0	0	21374	19940	161272	27300	1057044	46366	107844	0	0	8232	551475	0	0
2024-10-19 03:25:47			0	38380	0	0	0	21381	19940	161324	27348	1057080	46377	107847	0	0	8233	550883	0	0
2024-10-19 03:26:47			0	38384	0	0	0	21368	19930	161276	27043	1057009	46376	107842	0	0	8233	550756	0	0
2024-10-19 03:27:47			0	38374	0	0	0	21386	19940	161372	27258	1057160	46367	107849	0	0	8232	551120	0	0
2024-10-19 03:28:47			0	38366	0	0	0	21384	19940	161348	27176	1057044	46366	107848	0	0	8232	551435	0	0
2024-10-19 03:29:47			0	38386	0	0	0	21374	19930	161344	27166	1057115	46366	107844	0	0	8233	550677	0	0
2024-10-19 03:30:47			0	38378	0	0	0	21379	19940	161344	27254	1057106	46356	107846	0	0	8233	550962	0	0
2024-10-19 03:31:47			0	38375	0	0	0	21381	19940	161172	27112	1057106	46356	107847	0	0	8233	551080	0	0
2024-10-19 03:32:47			0	38373	0	0	0	21389	19940	161336	27199	1057151	46366	107850	0	0	8232	551159	0	0
2024-10-19 03:33:47			0	38387	0	0	0	21376	19950	161268	26975	1057142	46367	107845	0	0	8233	550577	0	0
2024-10-19 03:34:47			0	38387	0	0	0	21374	19940	161260	27280	1057071	46376	107844	0	0	8233	550608	0	0
2024-10-19 03:35:47			0	38387	0	0	0	21368	19940	161276	27133	1057053	46356	107842	0	0	8233	550608	0	0
2024-10-19 03:36:47			0	38378	0	0	0	21376	19940	161300	27085	1057071	46366	107845	0	0	8233	550962	0	0
2024-10-19 03:37:47			0	38387	0	0	0	21381	19940	161256	26948	1057160	46356	107847	0	0	8233	550608	0	0
2024-10-19 03:38:47			0	38380	0	0	0	21386	19940	161172	27005	1057080	46377	107849	0	0	8233	550883	0	0
2024-10-19 03:39:47			0	38384	0	0	0	21381	19940	161244	27298	1057106	46367	107847	0	0	8233	550726	0	0
2024-10-19 03:40:47			0	38375	0	0	0	21379	19940	161308	26965	1057106	46367	107846	0	0	8233	551080	0	0
2024-10-19 03:41:47			0	38350	0	0	0	21368	19940	161316	26866	1057071	46366	107842	0	0	8231	552067	0	0
2024-10-19 03:42:47			0	38362	0	0	0	21355	19940	161328	26899	1057106	46367	107837	0	0	8232	551593	0	0
2024-10-19 03:43:47			0	38353	0	0	0	21371	19950	161344	26998	1057089	46356	107843	0	0	8232	551918	0	0
2024-10-19 03:44:47			0	38356	0	0	0	21361	19940	161352	27133	1057044	46366	107839	0	0	8232	551830	0	0
2024-10-19 03:45:47			0	38357	0	0	0	21371	19930	161332	27192	1057089	46355	107843	0	0	8232	551821	0	0
2024-10-19 03:46:47			0	38365	0	0	0	21371	19930	161360	27164	1057053	46354	107843	0	0	8232	551505	0	0
2024-10-19 03:47:47			0	38382	0	0	0	21374	19930	161300	26883	1057035	46355	107844	0	0	8233	550835	0	0
2024-10-19 03:48:47			0	38361	0	0	0	21379	19940	161312	26868	1057098	46355	107846	0	0	8232	551633	0	0
2024-10-19 03:49:47			0	38377	0	0	0	21371	19930	161476	27275	1057035	46366	107843	0	0	8233	551032	0	0
2024-10-19 03:50:47			0	38368	0	0	0	21379	19930	161348	27336	1057089	46366	107846	0	0	8232	551387	0	0
2024-10-19 03:51:47			0	38363	0	0	0	21368	19940	161324	27222	1057151	46366	107842	0	0	8232	551554	0	0
2024-10-19 03:52:47			0	38357	0	0	0	21371	19920	161304	26882	1057071	46364	107843	0	0	8232	551851	0	0
2024-10-19 03:53:47			0	38353	0	0	0	21368	19940	161292	27095	1057018	46355	107842	0	0	8232	551948	0	0
2024-10-19 03:54:47			0	38364	0	0	0	21363	19940	161332	27007	1057071	46355	107840	0	0	8232	551514	0	0
2024-10-19 03:55:47			0	38357	0	0	0	21374	19940	161420	27331	1057098	46355	107844	0	0	8232	551790	0	0
2024-10-19 03:56:47			0	38339	0	0	0	21371	19930	161428	27268	1057026	46365	107843	0	0	8231	552531	0	0
2024-10-19 03:57:47			0	38345	0	0	0	21368	19930	161388	27228	1057035	46343	107842	0	0	8231	552294	0	0
2024-10-19 03:58:47			0	38346	0	0	0	21379	19930	161420	27001	1057089	46376	107846	0	0	8231	552255	0	0
2024-10-19 03:59:47			0	38362	0	0	0	21374	19930	161408	27324	1057089	46355	107844	0	0	8232	551624	0	0
2024-10-19 04:00:47			0	38348	0	0	0	21371	19930	161456	27105	1057009	46366	107843	0	0	8231	552176	0	0
2024-10-19 04:01:47			0	38355	0	0	0	21366	19930	161384	26968	1057080	46365	107841	0	0	8232	551900	0	0
2024-10-19 04:02:47			0	38353	0	0	0	21368	19940	161372	26994	1057027	46356	107842	0	0	8232	551948	0	0
2024-10-19 04:03:47			0	38340	0	0	0	21374	19940	161484	26948	1057098	46366	107844	0	0	8231	552461	0	0
2024-10-19 04:04:47			0	38354	0	0	0	21374	19940	161396	26883	1057098	46355	107844	0	0	8231	551909	0	0
2024-10-19 04:05:47			0	38346	0	0	0	21366	19940	161368	27100	1057133	46367	107841	0	0	8231	552224	0	0
2024-10-19 04:06:47			0	38359	0	0	0	21366	19930	161416	27124	1057062	46376	107841	0	0	8232	551742	0	0
2024-10-19 04:07:47			0	38352	0	0	0	21363	19930	161396	26932	1057000	46365	107840	0	0	8231	552018	0	0
2024-10-19 04:08:47			0	38350	0	0	0	21366	19930	161428	26958	1057009	46376	107841	0	0	8231	552097	0	0
2024-10-19 04:09:47			0	38334	0	0	0	21376	19930	161380	27083	1057080	46365	107845	0	0	8230	552729	0	0
2024-10-19 04:10:47			0	38335	0	0	0	21363	19930	161452	27234	1057062	46366	107840	0	0	8230	552689	0	0
2024-10-19 04:11:47			0	38355	0	0	0	21361	19940	161364	26897	1057071	46355	107839	0	0	8232	551869	0	0
2024-10-19 04:12:47			0	38333	0	0	0	21374	19920	161592	27135	1057035	46353	107844	0	0	8230	552799	0	0
2024-10-19 04:13:47			0	38315	0	0	0	21374	19930	161524	27258	1057035	46343	107844	0	0	8229	553479	0	0
2024-10-19 04:14:47			0	38315	0	0	0	21368	19930	161548	26698	1057035	46355	107842	0	0	8229	553479	0	0
2024-10-19 04:15:47			0	38313	0	0	0	21371	19930	161540	27218	1057053	46375	107843	0	0	8229	553558	0	0
2024-10-19 04:16:47			0	38317	0	0	0	21381	19930	161624	26864	1057026	46365	107847	0	0	8229	553400	0	0
2024-10-19 04:17:47			0	38316	0	0	0	21374	19940	161632	26824	1057044	46366	107844	0	0	8229	553409	0	0
2024-10-19 04:18:47			0	38314	0	0	0	21363	19920	161556	27067	1057097	46353	107840	0	0	8229	553549	0	0
2024-10-19 04:19:47			0	38301	0	0	0	21363	19930	161608	26941	1057080	46354	107840	0	0	8229	554033	0	0
2024-10-19 04:20:47			0	38308	0	0	0	21368	19930	161652	26982	1057053	46365	107842	0	0	8229	553756	0	0
2024-10-19 04:21:47			0	38293	0	0	0	21366	19930	161636	27166	1057089	46376	107841	0	0	8228	554349	0	0
2024-10-19 04:22:47			0	38303	0	0	0	21361	19930	161640	26977	1057053	46365	107839	0	0	8229	553954	0	0
2024-10-19 04:23:47			0	38273	0	0	0	21363	19930	161684	26904	1057115	46387	107840	0	0	8227	555141	0	0
2024-10-19 04:24:47			0	38287	0	0	0	21366	19930	161728	26965	1057062	46366	107841	0	0	8228	554587	0	0
2024-10-19 04:25:47			0	38279	0	0	0	21363	19930	161696	27072	1057062	46366	107840	0	0	8227	554903	0	0
2024-10-19 04:26:47			0	38265	0	0	0	21371	19930	161796	27000	1057035	46366	107843	0	0	8226	555458	0	0
2024-10-19 04:27:47			0	38246	0	0	0	21358	19930	161876	27201	1057115	46366	107838	0	0	8225	556211	0	0
2024-10-19 04:28:47			0	38274	0	0	0	21368	19920	161768	26847	1056991	46364	107842	0	0	8227	555132	0	0
2024-10-19 04:29:47			0	38251	0	0	0	21361	19930	161776	27029	1057062	46376	107839	0	0	8226	556013	0	0
2024-10-19 04:30:47			0	38253	0	0	0	21361	19930	161892	26942	1057009	46376	107839	0	0	8226	555933	0	0
2024-10-19 04:31:47			0	38256	0	0	0	21368	19930	161908	26876	1057053	46375	107842	0	0	8226	555814	0	0
2024-10-19 04:32:47			0	38250	0	0	0	21358	19920	161904	26804	1057071	46364	107838	0	0	8226	556083	0	0
2024-10-19 04:33:47			0	38235	0	0	0	21361	19930	161860	27145	1057053	46354	107839	0	0	8225	556647	0	0
2024-10-19 04:34:47			0	38252	0	0	0	21350	19920	161860	27284	1056991	46341	107835	0	0	8226	556004	0	0
2024-10-19 04:35:47			0	38238	0	0	0	21363	19930	161960	27031	1057026	46354	107840	0	0	8225	556528	0	0
2024-10-19 04:36:47			0	38218	0	0	0	21363	19920	161880	27329	1057009	46353	107840	0	0	8224	557352	0	0
2024-10-19 04:37:47			0	38230	0	0	0	21358	19920	162056	27452	1057044	46364	107838	0	0	8224	556876	0	0
2024-10-19 04:38:47			0	38229	0	0	0	21361	19910	161920	27053	1057000	46353	107839	0	0	8224	556946	0	0
2024-10-19 04:39:47			0	38232	0	0	0	21358	19920	162052	27294	1057071	46364	107838	0	0	8224	556797	0	0
2024-10-19 04:40:47			0	38224	0	0	0	21361	19920	161992	27559	1056982	46353	107839	0	0	8224	557114	0	0
2024-10-19 04:41:47			0	38226	0	0	0	21355	19930	161904	27204	1057026	46365	107837	0	0	8224	557004	0	0
2024-10-19 04:42:47			0	38229	0	0	0	21358	19920	161992	27277	1057044	46364	107838	0	0	8224	556916	0	0
2024-10-19 04:43:47			0	38227	0	0	0	21358	19910	161984	27109	1057000	46353	107838	0	0	8224	557026	0	0
2024-10-19 04:44:47			0	38218	0	0	0	21358	19920	161976	27433	1056955	46364	107838	0	0	8224	557352	0	0
2024-10-19 04:45:47			0	38216	0	0	0	21358	19920	162056	27166	1057062	46364	107838	0	0	8224	557432	0	0
2024-10-19 04:46:47			0	38205	0	0	0	21350	19920	161936	27362	1056964	46353	107835	0	0	8223	557869	0	0
2024-10-19 04:47:47			0	38205	0	0	0	21353	19920	162000	27180	1057009	46353	107836	0	0	8223	557869	0	0
2024-10-19 04:48:47			0	38208	0	0	0	21353	19910	162020	27248	1056937	46352	107836	0	0	8223	557780	0	0
2024-10-19 04:49:47			0	38212	0	0	0	21348	19910	162088	26930	1056920	46375	107834	0	0	8223	557621	0	0
2024-10-19 04:50:47			0	38205	0	0	0	21350	19920	162036	27270	1056955	46364	107835	0	0	8223	557869	0	0
2024-10-19 04:51:47			0	38205	0	0	0	21348	19920	162032	27197	1056938	46353	107834	0	0	8223	557869	0	0
2024-10-19 04:52:47			0	38191	0	0	0	21348	19920	162088	27462	1056955	46353	107834	0	0	8222	558425	0	0
2024-10-19 04:53:47			0	38191	0	0	0	21345	19910	162036	27256	1057017	46363	107833	0	0	8222	558456	0	0
2024-10-19 04:54:47			0	38196	0	0	0	21342	19920	162088	27312	1056991	46364	107832	0	0	8223	558226	0	0
2024-10-19 04:55:47			0	38199	0	0	0	21358	19920	162236	26994	1057009	46375	107838	0	0	8223	558107	0	0
2024-10-19 04:56:47			0	38191	0	0	0	21353	19910	162220	27187	1057000	46364	107836	0	0	8222	558456	0	0
2024-10-19 04:57:47			0	38192	0	0	0	21358	19910	162168	27291	1056964	46363	107838	0	0	8222	558416	0	0
2024-10-19 04:58:47			0	38188	0	0	0	21355	19910	162052	27119	1056973	46375	107837	0	0	8222	558575	0	0
2024-10-19 04:59:47			0	38166	0	0	0	21345	19920	162108	27261	1057009	46364	107833	0	0	8221	559419	0	0
2024-10-19 05:00:47			0	38172	0	0	0	21350	19910	162264	27216	1056991	46352	107835	0	0	8221	559211	0	0
2024-10-19 05:01:47			0	38149	0	0	0	21353	19910	162244	27144	1057026	46364	107836	0	0	8220	560127	0	0
2024-10-19 05:02:47			0	38144	0	0	0	21348	19910	162408	27204	1057026	46375	107834	0	0	8219	560326	0	0
2024-10-19 05:03:47			0	38139	0	0	0	21345	19920	162316	27093	1057009	46353	107833	0	0	8219	560494	0	0
2024-10-19 05:04:47			0	38131	0	0	0	21348	19910	162368	27253	1056937	46352	107834	0	0	8219	560844	0	0
2024-10-19 05:05:47			0	38149	0	0	0	21350	19910	162392	27069	1056964	46363	107835	0	0	8220	560127	0	0
2024-10-19 05:06:47			0	38158	0	0	0	21337	19910	162300	27109	1056964	46352	107830	0	0	8220	559768	0	0
2024-10-19 05:07:47			0	38152	0	0	0	21335	19920	162268	26842	1056982	46341	107829	0	0	8220	559976	0	0
2024-10-19 05:08:47			0	38159	0	0	0	21345	19910	162316	26812	1056937	46363	107833	0	0	8220	559729	0	0
2024-10-19 05:09:47			0	38156	0	0	0	21340	19910	162304	27244	1056991	46352	107831	0	0	8220	559848	0	0
2024-10-19 05:10:47			0	38155	0	0	0	21337	19900	162308	27036	1056929	46362	107830	0	0	8220	559919	0	0
2024-10-19 05:11:47			0	38170	0	0	0	21350	19900	162388	26946	1056955	46339	107835	0	0	8221	559322	0	0
2024-10-19 05:12:47			0	38155	0	0	0	21348	19910	162324	27027	1056937	46374	107834	0	0	8220	559888	0	0
2024-10-19 05:13:47			0	38163	0	0	0	21355	19900	162304	27121	1056982	46362	107837	0	0	8220	559600	0	0
2024-10-19 05:14:47			0	38161	0	0	0	21345	19910	162336	27211	1056964	46363	107833	0	0	8220	559649	0	0
2024-10-19 05:15:47			0	38171	0	0	0	21355	19910	162180	27312	1056991	46352	107837	0	0	8221	559251	0	0
2024-10-19 05:16:47			0	38175	0	0	0	21342	19900	162328	26911	1056982	46351	107832	0	0	8221	559123	0	0
2024-10-19 05:17:47			0	38174	0	0	0	21355	19910	162240	27234	1056991	46352	107837	0	0	8221	559132	0	0
2024-10-19 05:18:47			0	38172	0	0	0	21350	19900	162268	26975	1056929	46351	107835	0	0	8221	559242	0	0
2024-10-19 05:19:47			0	38174	0	0	0	21348	19910	162404	26831	1056964	46374	107834	0	0	8221	559132	0	0
2024-10-19 05:20:47			0	38163	0	0	0	21348	19910	162316	26828	1056920	46353	107834	0	0	8221	559569	0	0
2024-10-19 05:21:47			0	38179	0	0	0	21345	19920	162376	26845	1056982	46364	107833	0	0	8222	558902	0	0
2024-10-19 05:22:47			0	38193	0	0	0	21350	19910	162312	26871	1057017	46352	107835	0	0	8222	558376	0	0
2024-10-19 05:23:47			0	38175	0	0	0	21345	19920	162248	27237	1056929	46364	107833	0	0	8221	559061	0	0
2024-10-19 05:24:47			0	38159	0	0	0	21340	19920	162332	27033	1057062	46364	107831	0	0	8221	559698	0	0
2024-10-19 05:25:47			0	38160	0	0	0	21337	19910	162300	27050	1057000	46353	107830	0	0	8221	559689	0	0
2024-10-19 05:26:47			0	38166	0	0	0	21337	19920	162324	27274	1056982	46364	107830	0	0	8221	559419	0	0
2024-10-19 05:27:47			0	38156	0	0	0	21340	19910	162360	27277	1057000	46341	107831	0	0	8220	559848	0	0
2024-10-19 05:28:47			0	38160	0	0	0	21350	19910	162396	27400	1056973	46364	107835	0	0	8220	559689	0	0
2024-10-19 05:29:47			0	38149	0	0	0	21350	19910	162304	27140	1056937	46374	107835	0	0	8220	560127	0	0
2024-10-19 05:30:47			0	38153	0	0	0	21345	19910	162396	27312	1056991	46352	107833	0	0	8220	559967	0	0
2024-10-19 05:31:47			0	38134	0	0	0	21345	19910	162384	27232	1056911	46363	107833	0	0	8219	560724	0	0
2024-10-19 05:32:47			0	38144	0	0	0	21345	19910	162368	27350	1056964	46374	107833	0	0	8220	560326	0	0
2024-10-19 05:33:47			0	38131	0	0	0	21350	19910	162296	27083	1056937	46363	107835	0	0	8219	560844	0	0
2024-10-19 05:34:47			0	38117	0	0	0	21353	19910	162400	27067	1056991	46363	107836	0	0	8218	561402	0	0
2024-10-19 05:35:47			0	38116	0	0	0	21348	19920	162452	27244	1056982	46353	107834	0	0	8218	561411	0	0
2024-10-19 05:36:47			0	38136	0	0	0	21348	19910	162448	27206	1056991	46363	107834	0	0	8219	560644	0	0
2024-10-19 05:37:47			0	38126	0	0	0	21348	19920	162436	27234	1057009	46375	107834	0	0	8218	561012	0	0
2024-10-19 05:38:47			0	38134	0	0	0	21358	19910	162420	27497	1056964	46374	107838	0	0	8219	560724	0	0
2024-10-19 05:39:47			0	38141	0	0	0	21345	19920	162408	27332	1056929	46375	107833	0	0	8219	560414	0	0
2024-10-19 05:40:47			0	38121	0	0	0	21353	19910	162500	27020	1056991	46352	107836	0	0	8218	561242	0	0
2024-10-19 05:41:47			0	38135	0	0	0	21353	19910	162460	27178	1056991	46363	107836	0	0	8219	560684	0	0
2024-10-19 05:42:47			0	38120	0	0	0	21353	19910	162544	27403	1056991	46352	107836	0	0	8218	561282	0	0
2024-10-19 05:43:47			0	38107	0	0	0	21353	19900	162500	27274	1057008	46383	107836	0	0	8217	561832	0	0
2024-10-19 05:44:47			0	38106	0	0	0	21350	19920	162468	27467	1057009	46375	107835	0	0	8217	561810	0	0
2024-10-19 05:45:47			0	38120	0	0	0	21345	19910	162476	27447	1056946	46364	107833	0	0	8218	561282	0	0
2024-10-19 05:46:47			0	38130	0	0	0	21355	19910	162416	27235	1056946	46353	107837	0	0	8219	560884	0	0
2024-10-19 05:47:47			0	38113	0	0	0	21345	19910	162380	27345	1056973	46375	107833	0	0	8218	561562	0	0
2024-10-19 05:48:47			0	38127	0	0	0	21340	19920	162408	27048	1057009	46364	107831	0	0	8219	560972	0	0
2024-10-19 05:49:47			0	38096	0	0	0	21345	19910	162480	27209	1056973	46375	107833	0	0	8217	562240	0	0
2024-10-19 05:50:47			0	38088	0	0	0	21340	19920	162652	26974	1056982	46364	107831	0	0	8216	562528	0	0
2024-10-19 05:51:47			0	38076	0	0	0	21342	19910	162612	27325	1056946	46375	107832	0	0	8216	563039	0	0
2024-10-19 05:52:47			0	38075	0	0	0	21342	19920	162676	27286	1056982	46353	107832	0	0	8216	563047	0	0
2024-10-19 05:53:47			0	38066	0	0	0	21345	19910	162508	27248	1056991	46352	107833	0	0	8215	563438	0	0
2024-10-19 05:54:47			0	38056	0	0	0	21335	19900	162600	27180	1056982	46362	107829	0	0	8214	563869	0	0
2024-10-19 05:55:47			0	38058	0	0	0	21348	19900	162672	26941	1056982	46362	107834	0	0	8214	563789	0	0
2024-10-19 05:56:47			0	38064	0	0	0	21342	19900	162696	27013	1056999	46362	107832	0	0	8215	563549	0	0
2024-10-19 05:57:47			0	38064	0	0	0	21350	19900	162612	27017	1056902	46362	107835	0	0	8215	563549	0	0
2024-10-19 05:58:47			0	38055	0	0	0	21342	19910	162724	26745	1056964	46352	107832	0	0	8214	563878	0	0
2024-10-19 05:59:47			0	38057	0	0	0	21340	19900	162656	27053	1057008	46362	107831	0	0	8214	563829	0	0
2024-10-19 06:00:47			0	38057	0	0	0	21342	19910	162676	27064	1056973	46341	107832	0	0	8214	563798	0	0
2024-10-19 06:01:47			0	38063	0	0	0	21340	19910	162524	27371	1057000	46364	107831	0	0	8215	563558	0	0
2024-10-19 06:02:47			0	38048	0	0	0	21342	19900	162660	27296	1056902	46362	107832	0	0	8214	564189	0	0
2024-10-19 06:03:47			0	38062	0	0	0	21340	19900	162584	27074	1056973	46351	107831	0	0	8215	563629	0	0
2024-10-19 06:04:47			0	38056	0	0	0	21348	19900	162636	27064	1056955	46362	107834	0	0	8214	563869	0	0
2024-10-19 06:05:47			0	38077	0	0	0	21350	19920	162472	27602	1056955	46364	107835	0	0	8216	562968	0	0
2024-10-19 06:06:47			0	38067	0	0	0	21340	19910	162552	27279	1057026	46353	107831	0	0	8215	563398	0	0
2024-10-19 06:07:47			0	38067	0	0	0	21348	19910	162616	27341	1056973	46375	107834	0	0	8215	563398	0	0
2024-10-19 06:08:47			0	38072	0	0	0	21342	19910	162764	27093	1056911	46363	107832	0	0	8215	563198	0	0
2024-10-19 06:09:47			0	38062	0	0	0	21350	19900	162684	27211	1056982	46362	107835	0	0	8215	563629	0	0
2024-10-19 06:10:47			0	38070	0	0	0	21345	19900	162560	27303	1056929	46351	107833	0	0	8215	563309	0	0
2024-10-19 06:11:47			0	38063	0	0	0	21348	19910	162596	27341	1056991	46363	107834	0	0	8215	563558	0	0
2024-10-19 06:12:47			0	38064	0	0	0	21342	19910	162560	27241	1056973	46364	107832	0	0	8215	563518	0	0
2024-10-19 06:13:47			0	38070	0	0	0	21345	19910	162580	27319	1056973	46364	107833	0	0	8215	563278	0	0
2024-10-19 06:14:47			0	38054	0	0	0	21342	19910	162552	27157	1056964	46352	107832	0	0	8214	563918	0	0
2024-10-19 06:15:47			0	38067	0	0	0	21340	19910	162604	27383	1057000	46353	107831	0	0	8215	563398	0	0
2024-10-19 06:16:47			0	38073	0	0	0	21348	19920	162600	27332	1057009	46364	107834	0	0	8215	563127	0	0
2024-10-19 06:17:47			0	38040	0	0	0	21329	19910	162720	27123	1056946	46364	107827	0	0	8214	564478	0	0
2024-10-19 06:18:47			0	38026	0	0	0	21353	19900	162731	27396	1056955	46362	107836	0	0	8212	565069	0	0
2024-10-19 06:19:47			0	38020	0	0	0	21342	19910	162683	27280	1056991	46374	107832	0	0	8212	565279	0	0
2024-10-19 06:20:47			0	38016	0	0	0	21342	19910	162779	27277	1056920	46364	107832	0	0	8212	565439	0	0
2024-10-19 06:21:47			0	38012	0	0	0	21340	19900	162775	27131	1056982	46362	107831	0	0	8212	565630	0	0
2024-10-19 06:22:47			0	37994	0	0	0	21345	19910	162771	27312	1056973	46364	107833	0	0	8211	566321	0	0
2024-10-19 06:23:47			0	38004	0	0	0	21350	19910	162799	27031	1057017	46363	107835	0	0	8211	565920	0	0
2024-10-19 06:24:47			0	38002	0	0	0	21348	19900	162755	27234	1056982	46351	107834	0	0	8211	566031	0	0
2024-10-19 06:25:47			0	37997	0	0	0	21342	19910	162779	27457	1057017	46352	107832	0	0	8211	566200	0	0
2024-10-19 06:26:47			0	38003	0	0	0	21340	19900	162731	27488	1056893	46362	107831	0	0	8211	565991	0	0
2024-10-19 06:27:47			0	38018	0	0	0	21340	19910	162804	27280	1056937	46352	107831	0	0	8212	565359	0	0
2024-10-19 06:28:47			0	38017	0	0	0	21340	19910	162767	27194	1056991	46363	107831	0	0	8212	565399	0	0
2024-10-19 06:29:47			0	38001	0	0	0	21342	19900	162823	27578	1056955	46351	107832	0	0	8211	566071	0	0
2024-10-19 06:30:47			0	37982	0	0	0	21340	19910	162847	27313	1057000	46353	107831	0	0	8210	566802	0	0
2024-10-19 06:31:47			0	37988	0	0	0	21342	19910	162995	27327	1056964	46363	107832	0	0	8210	566561	0	0
2024-10-19 06:32:47			0	37989	0	0	0	21340	19920	162979	27183	1056955	46364	107831	0	0	8211	566490	0	0
2024-10-19 06:33:47			0	37999	0	0	0	21337	19910	162931	27498	1056973	46364	107830	0	0	8211	566120	0	0
2024-10-19 06:34:47			0	37976	0	0	0	21337	19910	162967	27580	1056964	46363	107830	0	0	8210	567043	0	0
2024-10-19 06:35:47			0	37981	0	0	0	21340	19900	162967	27365	1056946	46362	107831	0	0	8210	566873	0	0
2024-10-19 06:36:47			0	37960	0	0	0	21348	19910	163007	27261	1056937	46352	107834	0	0	8209	567685	0	0
2024-10-19 06:37:47			0	37958	0	0	0	21337	19900	163047	27206	1056929	46362	107830	0	0	8209	567797	0	0
2024-10-19 06:38:47			0	37953	0	0	0	21345	19900	163079	27441	1057035	46362	107833	0	0	8208	567998	0	0
2024-10-19 06:39:47			0	37948	0	0	0	21335	19910	163027	27533	1056937	46363	107829	0	0	8208	568167	0	0
2024-10-19 06:40:47			0	37925	0	0	0	21345	19920	163075	27326	1056902	46353	107833	0	0	8207	569060	0	0
2024-10-19 06:41:47			0	37957	0	0	0	21350	19910	163143	27345	1056964	46352	107835	0	0	8208	567806	0	0
2024-10-19 06:42:47			0	37956	0	0	0	21335	19900	163119	27048	1056902	46362	107829	0	0	8209	567877	0	0
2024-10-19 06:43:47			0	37945	0	0	0	21345	19910	163103	27476	1056911	46352	107833	0	0	8208	568288	0	0
2024-10-19 06:44:47			0	37951	0	0	0	21337	19910	163027	27272	1056946	46375	107830	0	0	8208	568047	0	0
2024-10-19 06:45:47			0	37959	0	0	0	21337	19910	163007	27156	1056937	46363	107830	0	0	8209	567725	0	0
2024-10-19 06:46:47			0	37944	0	0	0	21332	19910	163115	27050	1056973	46353	107828	0	0	8208	568328	0	0
2024-10-19 06:47:47			0	37943	0	0	0	21340	19900	163135	27154	1056929	46351	107831	0	0	8208	568399	0	0
2024-10-19 06:48:47			0	37934	0	0	0	21348	19910	163163	27576	1056964	46352	107834	0	0	8207	568730	0	0
2024-10-19 06:49:47			0	37927	0	0	0	21327	19900	163235	27495	1056955	46362	107826	0	0	8207	569043	0	0
2024-10-19 06:50:47			0	37931	0	0	0	21337	19890	163207	27336	1056857	46351	107830	0	0	8207	568913	0	0
2024-10-19 06:51:47			0	37937	0	0	0	21335	19890	163127	27670	1056911	46362	107829	0	0	8207	568672	0	0
2024-10-19 06:52:47			0	37920	0	0	0	21340	19910	163175	27298	1056937	46363	107831	0	0	8206	569293	0	0
2024-10-19 06:53:47			0	37915	0	0	0	21335	19900	163179	27303	1056982	46362	107829	0	0	8206	569525	0	0
2024-10-19 06:54:47			0	37916	0	0	0	21342	19910	163139	27265	1056964	46352	107832	0	0	8206	569454	0	0
2024-10-19 06:55:47			0	37915	0	0	0	21335	19900	163199	27379	1056929	46351	107829	0	0	8206	569525	0	0
2024-10-19 06:56:47			0	37915	0	0	0	21335	19900	163251	27111	1057008	46373	107829	0	0	8206	569525	0	0
2024-10-19 06:57:47			0	37902	0	0	0	21332	19910	163215	27105	1056991	46374	107828	0	0	8205	570017	0	0
2024-10-19 06:58:47			0	37882	0	0	0	21332	19900	163163	26982	1056982	46362	107828	0	0	8204	570854	0	0
2024-10-19 06:59:47			0	37890	0	0	0	21335	19900	163299	27168	1056929	46351	107829	0	0	8205	570532	0	0
2024-10-19 07:00:47			0	37920	0	0	0	21332	19900	163291	27175	1056955	46351	107828	0	0	8206	569324	0	0
2024-10-19 07:01:47			0	37903	0	0	0	21340	19900	163183	26972	1056929	46373	107831	0	0	8205	570008	0	0
2024-10-19 07:02:47			0	37909	0	0	0	21329	19900	163223	27407	1056982	46362	107827	0	0	8206	569767	0	0
2024-10-19 07:03:47			0	37909	0	0	0	21327	19910	163255	27258	1056991	46363	107826	0	0	8206	569736	0	0
2024-10-19 07:04:47			0	37897	0	0	0	21324	19900	163399	27104	1056955	46339	107825	0	0	8205	570250	0	0
2024-10-19 07:05:47			0	37907	0	0	0	21322	19900	163267	27376	1056955	46339	107824	0	0	8206	569847	0	0
2024-10-19 07:06:47			0	37903	0	0	0	21327	19900	163295	27216	1056920	46351	107826	0	0	8206	570008	0	0
2024-10-19 07:07:47			0	37903	0	0	0	21327	19900	163359	27374	1056955	46362	107826	0	0	8206	570008	0	0
2024-10-19 07:08:47			0	37908	0	0	0	21327	19900	163303	27447	1056893	46362	107826	0	0	8206	569807	0	0
2024-10-19 07:09:47			0	37898	0	0	0	21337	19900	163347	27095	1056920	46351	107830	0	0	8205	570210	0	0
2024-10-19 07:10:47			0	37891	0	0	0	21327	19900	163379	27255	1056920	46362	107826	0	0	8205	570492	0	0
2024-10-19 07:11:47			0	37879	0	0	0	21335	19890	163331	27072	1056955	46372	107829	0	0	8204	571007	0	0
2024-10-19 07:12:47			0	37902	0	0	0	21329	19900	163319	27190	1056982	46373	107827	0	0	8205	570049	0	0
2024-10-19 07:13:47			0	37914	0	0	0	21335	19890	163303	27090	1056849	46350	107829	0	0	8206	569597	0	0
2024-10-19 07:14:47			0	37899	0	0	0	21329	19900	163315	27100	1056955	46362	107827	0	0	8205	570170	0	0
2024-10-19 07:15:47			0	37875	0	0	0	21322	19900	163379	27293	1056920	46362	107824	0	0	8204	571137	0	0
2024-10-19 07:16:47			0	37882	0	0	0	21316	19900	163443	27557	1056920	46373	107822	0	0	8205	570854	0	0
2024-10-19 07:17:47			0	37886	0	0	0	21327	19900	163431	27265	1056982	46351	107826	0	0	8205	570693	0	0
2024-10-19 07:18:47			0	37881	0	0	0	21324	19890	163411	27319	1056875	46350	107825	0	0	8204	570926	0	0
2024-10-19 07:19:47			0	37855	0	0	0	21327	19900	163371	27313	1056920	46362	107826	0	0	8203	571943	0	0
2024-10-19 07:20:47			0	37849	0	0	0	21324	19900	163503	27291	1056893	46351	107825	0	0	8202	572185	0	0
2024-10-19 07:21:47			0	37835	0	0	0	21316	19900	163531	27027	1056920	46362	107822	0	0	8202	572751	0	0
2024-10-19 07:22:47			0	37837	0	0	0	21322	19890	163451	27339	1056831	46339	107824	0	0	8202	572701	0	0
2024-10-19 07:23:47			0	37847	0	0	0	21316	19900	163615	27431	1056893	46351	107822	0	0	8202	572266	0	0
2024-10-19 07:24:47			0	37856	0	0	0	21324	19890	163555	27326	1056884	46351	107825	0	0	8203	571935	0	0
2024-10-19 07:25:47			0	37870	0	0	0	21324	19890	163491	27157	1056884	46351	107825	0	0	8204	571370	0	0
2024-10-19 07:26:47			0	37861	0	0	0	21327	19900	163411	27088	1056920	46362	107826	0	0	8203	571701	0	0
2024-10-19 07:27:47			0	37852	0	0	0	21311	19890	163491	27305	1056875	46372	107820	0	0	8203	572096	0	0
2024-10-19 07:28:47			0	37873	0	0	0	21322	19890	163379	27746	1056911	46362	107824	0	0	8204	571249	0	0
2024-10-19 07:29:47			0	37863	0	0	0	21327	19890	163595	26951	1056902	46361	107826	0	0	8203	571652	0	0
2024-10-19 07:30:47			0	37872	0	0	0	21322	19900	163463	27261	1056866	46362	107824	0	0	8204	571258	0	0
2024-10-19 07:31:47			0	37849	0	0	0	21319	19890	163419	27244	1056831	46373	107823	0	0	8202	572217	0	0
2024-10-19 07:32:47			0	37878	0	0	0	21324	19890	163519	27109	1056849	46350	107825	0	0	8204	571047	0	0
2024-10-19 07:33:47			0	37852	0	0	0	21322	19900	163595	27364	1056920	46339	107824	0	0	8203	572064	0	0
2024-10-19 07:34:47			0	37856	0	0	0	21314	19890	163519	27135	1056911	46339	107821	0	0	8203	571935	0	0
2024-10-19 07:35:47			0	37836	0	0	0	21319	19890	163595	27267	1056911	46339	107823	0	0	8202	572742	0	0
2024-10-19 07:36:47			0	37861	0	0	0	21322	19890	163631	27424	1056875	46361	107824	0	0	8203	571733	0	0
2024-10-19 07:37:47			0	37852	0	0	0	21316	19890	163663	27209	1056875	46350	107822	0	0	8203	572096	0	0
2024-10-19 07:38:47			0	37835	0	0	0	21319	19880	163655	27502	1056840	46360	107823	0	0	8202	572814	0	0
2024-10-19 07:39:47			0	37827	0	0	0	21319	19890	163615	27088	1056928	46361	107823	0	0	8201	573105	0	0
2024-10-19 07:40:47			0	37814	0	0	0	21303	19890	163639	26987	1056875	46361	107817	0	0	8201	573631	0	0
2024-10-19 07:41:47			0	37795	0	0	0	21316	19890	163703	27039	1056822	46361	107822	0	0	8199	574399	0	0
2024-10-19 07:42:47			0	37800	0	0	0	21316	19880	163731	27365	1056937	46349	107822	0	0	8200	574229	0	0
2024-10-19 07:43:47			0	37801	0	0	0	21303	19890	163663	26892	1056902	46350	107817	0	0	8200	574157	0	0
2024-10-19 07:44:47			0	37803	0	0	0	21314	19890	163703	27543	1056875	46350	107821	0	0	8200	574076	0	0
2024-10-19 07:45:47			0	37819	0	0	0	21327	19890	163647	26909	1056928	46361	107826	0	0	8201	573429	0	0
2024-10-19 07:46:47			0	37829	0	0	0	21322	19890	163623	27360	1056902	46350	107824	0	0	8201	573025	0	0
2024-10-19 07:47:47			0	37833	0	0	0	21319	19890	163623	27478	1056849	46361	107823	0	0	8202	572863	0	0
2024-10-19 07:48:47			0	37834	0	0	0	21316	19880	163623	27102	1056866	46349	107822	0	0	8202	572854	0	0
2024-10-19 07:49:47			0	37847	0	0	0	21322	19880	163631	27390	1056866	46360	107824	0	0	8202	572329	0	0
2024-10-19 07:50:47			0	37847	0	0	0	21314	19870	163651	27209	1056822	46349	107821	0	0	8202	572361	0	0
2024-10-19 07:51:47			0	37826	0	0	0	21322	19880	163631	27230	1056866	46349	107824	0	0	8201	573177	0	0
2024-10-19 07:52:47			0	37842	0	0	0	21316	19880	163643	27152	1056840	46360	107822	0	0	8202	572531	0	0
2024-10-19 07:53:47			0	37825	0	0	0	21309	19890	163675	27187	1056875	46361	107819	0	0	8201	573186	0	0
2024-10-19 07:54:47			0	37810	0	0	0	21314	19890	163711	27189	1056875	46372	107821	0	0	8200	573793	0	0
2024-10-19 07:55:47			0	37816	0	0	0	21303	19880	163751	27360	1056919	46360	107817	0	0	8201	573582	0	0
2024-10-19 07:56:47			0	37811	0	0	0	21314	19880	163735	26996	1056866	46360	107821	0	0	8200	573784	0	0
2024-10-19 07:57:47			0	37804	0	0	0	21306	19880	163699	27189	1056777	46371	107818	0	0	8200	574067	0	0
2024-10-19 07:58:47			0	37800	0	0	0	21301	19880	163675	27246	1056831	46349	107816	0	0	8200	574229	0	0
2024-10-19 07:59:47			0	37789	0	0	0	21303	19880	163727	27332	1056804	46371	107817	0	0	8199	574674	0	0
2024-10-19 08:00:47			0	37802	0	0	0	21309	19880	163775	27239	1056866	46349	107819	0	0	8200	574148	0	0
2024-10-19 08:01:47			0	37802	0	0	0	21314	19880	163735	27559	1056813	46360	107821	0	0	8200	574148	0	0
2024-10-19 08:02:47			0	37813	0	0	0	21309	19880	163715	27152	1056893	46349	107819	0	0	8200	573703	0	0
2024-10-19 08:03:47			0	37829	0	0	0	21309	19880	163731	27625	1056866	46360	107819	0	0	8201	573056	0	0
2024-10-19 08:04:47			0	37811	0	0	0	21314	19880	163639	27486	1056866	46349	107821	0	0	8200	573784	0	0
2024-10-19 08:05:47			0	37839	0	0	0	21324	19880	163591	27362	1056919	46371	107825	0	0	8202	572652	0	0
2024-10-19 08:06:47			0	37837	0	0	0	21332	19880	163527	27050	1056884	46360	107828	0	0	8201	572733	0	0
2024-10-19 08:07:47			0	37846	0	0	0	21332	19890	163587	27609	1056902	46372	107828	0	0	8202	572338	0	0
2024-10-19 08:08:47			0	37860	0	0	0	21332	19890	163479	27206	1056902	46382	107828	0	0	8203	571773	0	0
2024-10-19 08:09:47			0	37840	0	0	0	21335	19890	163439	27369	1056911	46351	107829	0	0	8202	572580	0	0
2024-10-19 08:10:47			0	37862	0	0	0	21329	19880	163471	27464	1056946	46371	107827	0	0	8203	571724	0	0
2024-10-19 08:11:47			0	37854	0	0	0	21329	19900	163479	27175	1056946	46362	107827	0	0	8203	571984	0	0
2024-10-19 08:12:47			0	37862	0	0	0	21329	19890	163487	27263	1056937	46362	107827	0	0	8203	571692	0	0
2024-10-19 08:13:47			0	37865	0	0	0	21335	19900	163519	27183	1056946	46351	107829	0	0	8203	571540	0	0
2024-10-19 08:14:47			0	37850	0	0	0	21319	19890	163495	27289	1056928	46361	107823	0	0	8203	572177	0	0
2024-10-19 08:15:47			0	37854	0	0	0	21329	19890	163503	27274	1056928	46361	107827	0	0	8203	572015	0	0
2024-10-19 08:16:47			0	37823	0	0	0	21319	19900	163511	27549	1056920	46351	107823	0	0	8201	573235	0	0
2024-10-19 08:17:47			0	37845	0	0	0	21332	19890	163507	27454	1056911	46351	107828	0	0	8202	572378	0	0
2024-10-19 08:18:47			0	37852	0	0	0	21327	19890	163559	27336	1056964	46362	107826	0	0	8203	572096	0	0
2024-10-19 08:19:47			0	37843	0	0	0	21324	19890	163511	27542	1056911	46362	107825	0	0	8202	572459	0	0
2024-10-19 08:20:47			0	37840	0	0	0	21319	19880	163567	27241	1056919	46360	107823	0	0	8202	572612	0	0
2024-10-19 08:21:47			0	37825	0	0	0	21303	19890	163535	27187	1056875	46372	107817	0	0	8201	573186	0	0
2024-10-19 08:22:47			0	37838	0	0	0	21309	19880	163671	27296	1056866	46349	107819	0	0	8202	572693	0	0
2024-10-19 08:23:47			0	37833	0	0	0	21301	19890	163551	27562	1056849	46350	107816	0	0	8202	572863	0	0
2024-10-19 08:24:47			0	37829	0	0	0	21298	19880	163639	27045	1056857	46349	107815	0	0	8202	573056	0	0
2024-10-19 08:25:47			0	37823	0	0	0	21301	19880	163631	27353	1056840	46349	107816	0	0	8201	573299	0	0
2024-10-19 08:26:47			0	37836	0	0	0	21303	19890	163667	27090	1056795	46350	107817	0	0	8202	572742	0	0
2024-10-19 08:27:47			0	37841	0	0	0	21306	19890	163691	27369	1056928	46361	107818	0	0	8202	572540	0	0
2024-10-19 08:28:47			0	37837	0	0	0	21298	19890	163663	27287	1056857	46351	107815	0	0	8202	572701	0	0
2024-10-19 08:29:47			0	37827	0	0	0	21306	19860	163631	27190	1056777	46358	107818	0	0	8201	573200	0	0
2024-10-19 08:30:47			0	37826	0	0	0	21303	19880	163599	27189	1056831	46371	107817	0	0	8201	573177	0	0
2024-10-19 08:31:47			0	37823	0	0	0	21314	19880	163571	27208	1056813	46349	107821	0	0	8201	573299	0	0
2024-10-19 08:32:47			0	37842	0	0	0	21306	19890	163587	27362	1056875	46361	107818	0	0	8202	572500	0	0
2024-10-19 08:33:47			0	37843	0	0	0	21311	19870	163615	27362	1056795	46360	107820	0	0	8202	572522	0	0
2024-10-19 08:34:47			0	37850	0	0	0	21311	19880	163583	27396	1056840	46360	107820	0	0	8203	572208	0	0
2024-10-19 08:35:47			0	37841	0	0	0	21311	19880	163631	27431	1056813	46360	107820	0	0	8202	572571	0	0
2024-10-19 08:36:47			0	37834	0	0	0	21314	19870	163691	27114	1056813	46359	107821	0	0	8202	572886	0	0
2024-10-19 08:37:47			0	37848	0	0	0	21316	19890	163551	27308	1056822	46372	107822	0	0	8202	572257	0	0
2024-10-19 08:38:47			0	37855	0	0	0	21319	19870	163627	27447	1056848	46371	107823	0	0	8203	572038	0	0
2024-10-19 08:39:47			0	37851	0	0	0	21322	19880	163559	27498	1056831	46360	107824	0	0	8202	572168	0	0
2024-10-19 08:40:47			0	37845	0	0	0	21316	19880	163587	27343	1056893	46360	107822	0	0	8202	572410	0	0
2024-10-19 08:41:47			0	37853	0	0	0	21332	19880	163491	27355	1056919	46349	107828	0	0	8202	572087	0	0
2024-10-19 08:42:47			0	37844	0	0	0	21314	19890	163531	27293	1056937	46373	107821	0	0	8202	572419	0	0
2024-10-19 08:43:47			0	37868	0	0	0	21322	19890	163579	27480	1056902	46361	107824	0	0	8204	571450	0	0
2024-10-19 08:44:47			0	37853	0	0	0	21322	19890	163443	27111	1056902	46361	107824	0	0	8203	572056	0	0
2024-10-19 08:45:47			0	37859	0	0	0	21319	19880	163519	27291	1056840	46360	107823	0	0	8203	571845	0	0
2024-10-19 08:46:47			0	37837	0	0	0	21324	19880	163571	27274	1056866	46349	107825	0	0	8202	572733	0	0
2024-10-19 08:47:47			0	37839	0	0	0	21322	19880	163571	27182	1056840	46349	107824	0	0	8202	572652	0	0
2024-10-19 08:48:47			0	37850	0	0	0	21324	19890	163527	27431	1056928	46361	107825	0	0	8202	572177	0	0
2024-10-19 08:49:47			0	37853	0	0	0	21327	19880	163499	27234	1056893	46360	107826	0	0	8203	572087	0	0
2024-10-19 08:50:47			0	37850	0	0	0	21324	19880	163551	27685	1056893	46371	107825	0	0	8202	572208	0	0
2024-10-19 08:51:47			0	37854	0	0	0	21329	19890	163523	27555	1056875	46350	107827	0	0	8203	572015	0	0
2024-10-19 08:52:47			0	37857	0	0	0	21329	19880	163587	27417	1056866	46360	107827	0	0	8203	571926	0	0
2024-10-19 08:53:47			0	37871	0	0	0	21327	19880	163463	27192	1056919	46349	107826	0	0	8204	571361	0	0
2024-10-19 08:54:47			0	37858	0	0	0	21324	19890	163443	27265	1056928	46372	107825	0	0	8203	571854	0	0
2024-10-19 08:55:47			0	37844	0	0	0	21324	19880	163487	27095	1056866	46349	107825	0	0	8202	572450	0	0
2024-10-19 08:56:47			0	37851	0	0	0	21329	19900	163523	27071	1056946	46339	107827	0	0	8202	572105	0	0
2024-10-19 08:57:47			0	37855	0	0	0	21324	19900	163503	27275	1056920	46339	107825	0	0	8203	571943	0	0
2024-10-19 08:58:47			0	37864	0	0	0	21329	19890	163539	27350	1056964	46362	107827	0	0	8203	571612	0	0
2024-10-19 08:59:47			0	37848	0	0	0	21335	19890	163471	27192	1056884	46362	107829	0	0	8202	572257	0	0
2024-10-19 09:00:47			0	37851	0	0	0	21324	19890	163479	27268	1056875	46361	107825	0	0	8202	572136	0	0
2024-10-19 09:01:47			0	37855	0	0	0	21342	19890	163563	27287	1056955	46350	107832	0	0	8202	571975	0	0
2024-10-19 09:02:47			0	37856	0	0	0	21340	19900	163555	27374	1056999	46373	107831	0	0	8203	571903	0	0
2024-10-19 09:03:47			0	37863	0	0	0	21337	19890	163523	27391	1056928	46372	107830	0	0	8203	571652	0	0
2024-10-19 09:04:47			0	37871	0	0	0	21337	19890	163511	27393	1056990	46362	107830	0	0	8203	571330	0	0
2024-10-19 09:05:47			0	37852	0	0	0	21342	19890	163503	27464	1056937	46373	107832	0	0	8202	572096	0	0
2024-10-19 09:06:47			0	37877	0	0	0	21335	19890	163455	27235	1056902	46361	107829	0	0	8204	571088	0	0
2024-10-19 09:07:47			0	37857	0	0	0	21345	19900	163455	27578	1056999	46362	107833	0	0	8203	571863	0	0
2024-10-19 09:08:47			0	37860	0	0	0	21332	19900	163427	27443	1056946	46362	107828	0	0	8203	571742	0	0
2024-10-19 09:09:47			0	37870	0	0	0	21335	19890	163511	27229	1056937	46351	107829	0	0	8203	571370	0	0
2024-10-19 09:10:47			0	37871	0	0	0	21337	19890	163443	27454	1056937	46351	107830	0	0	8203	571330	0	0
2024-10-19 09:11:47			0	37875	0	0	0	21324	19900	163487	27543	1056946	46362	107825	0	0	8204	571137	0	0
2024-10-19 09:12:47			0	37870	0	0	0	21335	19890	163571	27457	1056937	46362	107829	0	0	8203	571370	0	0
2024-10-19 09:13:47			0	37863	0	0	0	21340	19900	163375	27199	1056973	46383	107831	0	0	8203	571621	0	0
2024-10-19 09:14:47			0	37876	0	0	0	21340	19900	163419	27519	1056973	46383	107831	0	0	8204	571096	0	0
2024-10-19 09:15:47			0	37863	0	0	0	21324	19900	163447	27296	1056955	46362	107825	0	0	8203	571621	0	0
2024-10-19 09:16:47			0	37881	0	0	0	21342	19900	163495	27469	1056955	46362	107832	0	0	8204	570895	0	0
2024-10-19 09:17:47			0	37873	0	0	0	21337	19900	163463	27774	1056946	46362	107830	0	0	8204	571217	0	0
2024-10-19 09:18:47			0	37882	0	0	0	21322	19900	163395	27419	1056982	46362	107824	0	0	8204	570854	0	0
2024-10-19 09:19:47			0	37875	0	0	0	21324	19900	163487	27601	1056946	46362	107825	0	0	8204	571137	0	0
2024-10-19 09:20:47			0	37881	0	0	0	21329	19890	163439	27220	1056955	46338	107827	0	0	8204	570926	0	0
2024-10-19 09:21:47			0	37880	0	0	0	21319	19890	163487	27164	1056955	46338	107823	0	0	8204	570966	0	0
2024-10-19 09:22:47			0	37891	0	0	0	21329	19890	163423	27549	1056937	46373	107827	0	0	8205	570523	0	0
2024-10-19 09:23:47			0	37875	0	0	0	21332	19890	163431	27360	1056911	46362	107828	0	0	8204	571168	0	0
2024-10-19 09:24:47			0	37890	0	0	0	21337	19900	163443	27604	1056929	46351	107830	0	0	8205	570532	0	0
2024-10-19 09:25:47			0	37904	0	0	0	21329	19900	163439	27152	1057008	46362	107827	0	0	8206	569968	0	0
2024-10-19 09:26:47			0	37887	0	0	0	21316	19890	163471	27281	1056964	46351	107822	0	0	8205	570684	0	0
2024-10-19 09:27:47			0	37874	0	0	0	21319	19890	163375	27112	1056911	46362	107823	0	0	8204	571208	0	0
2024-10-19 09:28:47			0	37891	0	0	0	21335	19890	163399	27215	1056911	46373	107829	0	0	8205	570523	0	0
2024-10-19 09:29:47			0	37893	0	0	0	21327	19890	163363	27369	1056964	46351	107826	0	0	8205	570443	0	0
2024-10-19 09:30:47			0	37904	0	0	0	21322	19890	163491	27590	1056937	46362	107824	0	0	8206	570000	0	0
2024-10-19 09:31:47			0	37911	0	0	0	21335	19890	163339	27232	1056990	46351	107829	0	0	8206	569718	0	0
2024-10-19 09:32:47			0	37914	0	0	0	21324	19900	163431	27448	1056973	46362	107825	0	0	8206	569566	0	0
2024-10-19 09:33:47			0	37907	0	0	0	21329	19890	163375	27374	1056964	46351	107827	0	0	8206	569879	0	0
2024-10-19 09:34:47			0	37926	0	0	0	21322	19890	163367	27048	1056955	46350	107824	0	0	8207	569114	0	0
2024-10-19 09:35:47			0	37900	0	0	0	21329	19880	163327	26883	1056866	46371	107827	0	0	8205	570192	0	0
2024-10-19 09:36:47			0	37901	0	0	0	21327	19900	163303	27582	1056929	46362	107826	0	0	8205	570089	0	0
2024-10-19 09:37:47			0	37920	0	0	0	21329	19900	163311	27371	1056973	46383	107827	0	0	8207	569324	0	0
2024-10-19 09:38:47			0	37917	0	0	0	21337	19890	163283	27192	1056902	46361	107830	0	0	8206	569476	0	0
2024-10-19 09:39:47			0	37933	0	0	0	21335	19900	163307	27481	1056946	46362	107829	0	0	8207	568801	0	0
2024-10-19 09:40:47			0	37916	0	0	0	21329	19900	163335	27258	1056946	46362	107827	0	0	8206	569485	0	0
2024-10-19 09:41:47			0	37928	0	0	0	21329	19900	163263	27476	1056929	46351	107827	0	0	8207	569002	0	0
2024-10-19 09:42:47			0	37927	0	0	0	21329	19900	163255	27261	1057052	46373	107827	0	0	8207	569043	0	0
2024-10-19 09:43:47			0	37925	0	0	0	21329	19900	163283	27339	1057035	46362	107827	0	0	8207	569123	0	0
2024-10-19 09:44:47			0	37940	0	0	0	21335	19890	163243	27164	1056990	46362	107829	0	0	8208	568551	0	0
2024-10-19 09:45:47			0	37935	0	0	0	21340	19890	163259	27274	1056964	46362	107831	0	0	8207	568752	0	0
2024-10-19 09:46:47			0	37930	0	0	0	21345	19900	163183	27575	1056946	46351	107833	0	0	8207	568922	0	0
2024-10-19 09:47:47			0	37937	0	0	0	21342	19900	163207	27450	1056973	46362	107832	0	0	8207	568641	0	0
2024-10-19 09:48:47			0	37946	0	0	0	21337	19900	163211	27396	1056982	46373	107830	0	0	8208	568279	0	0
2024-10-19 09:49:47			0	37948	0	0	0	21337	19890	163207	27081	1056964	46373	107830	0	0	8208	568230	0	0
2024-10-19 09:50:47			0	37955	0	0	0	21348	19900	163235	27088	1056946	46373	107834	0	0	8208	567917	0	0
2024-10-19 09:51:47			0	37957	0	0	0	21358	19910	163159	27320	1056991	46363	107838	0	0	8208	567806	0	0
2024-10-19 09:52:47			0	37973	0	0	0	21350	19910	163235	27211	1057053	46364	107835	0	0	8209	567163	0	0
2024-10-19 09:53:47			0	37960	0	0	0	21345	19920	163187	26930	1057035	46353	107833	0	0	8209	567654	0	0
2024-10-19 09:54:47			0	37969	0	0	0	21348	19910	163123	27126	1057026	46364	107834	0	0	8209	567324	0	0
2024-10-19 09:55:47			0	37990	0	0	0	21355	19920	163099	27192	1057071	46375	107837	0	0	8210	566450	0	0
2024-10-19 09:56:47			0	37994	0	0	0	21353	19900	162955	27144	1057008	46373	107836	0	0	8210	566352	0	0
2024-10-19 09:57:47			0	38013	0	0	0	21350	19910	162916	27196	1056991	46374	107835	0	0	8212	565559	0	0
2024-10-19 09:58:47			0	38026	0	0	0	21350	19920	162835	27208	1057062	46375	107835	0	0	8213	565007	0	0
2024-10-19 09:59:47			0	38031	0	0	0	21353	19910	162840	27391	1057070	46363	107836	0	0	8213	564838	0	0
2024-10-19 10:00:47			0	38054	0	0	0	21366	19900	162752	27222	1057008	46351	107841	0	0	8214	563949	0	0
2024-10-19 10:01:47			0	38067	0	0	0	21384	19920	162768	27039	1057071	46364	107848	0	0	8214	563367	0	0
2024-10-19 10:02:47			0	38065	0	0	0	21386	19910	162648	27299	1057017	46363	107849	0	0	8214	563478	0	0
2024-10-19 10:03:47			0	38112	0	0	0	21384	19920	162632	26708	1057124	46375	107848	0	0	8217	561570	0	0
2024-10-19 10:04:47			0	38135	0	0	0	21410	19930	162508	27033	1057133	46386	107858	0	0	8218	560623	0	0
2024-10-19 10:05:47			0	38153	0	0	0	21407	19930	162384	27118	1057168	46376	107857	0	0	8219	559906	0	0
2024-10-19 10:06:47			0	38187	0	0	0	21394	19940	162268	27128	1057204	46366	107852	0	0	8221	558522	0	0
2024-10-19 10:07:47			0	38189	0	0	0	21405	19930	162172	27291	1057195	46376	107856	0	0	8221	558474	0	0
2024-10-19 10:08:47			0	38197	0	0	0	21397	19950	162196	26866	1057222	46367	107853	0	0	8222	558094	0	0
2024-10-19 10:09:47			0	38212	0	0	0	21402	19940	162172	27206	1057204	46387	107855	0	0	8223	557529	0	0
2024-10-19 10:10:47			0	38247	0	0	0	21415	19940	162016	26665	1057230	46387	107860	0	0	8224	556140	0	0
2024-10-19 10:11:47			0	38254	0	0	0	21407	19950	161924	27076	1057301	46367	107857	0	0	8225	555832	0	0
2024-10-19 10:12:47			0	38261	0	0	0	21399	19940	161948	27215	1057239	46377	107854	0	0	8226	555586	0	0
2024-10-19 10:13:47			0	38250	0	0	0	21397	19940	161960	27133	1057239	46367	107853	0	0	8225	556022	0	0
2024-10-19 10:14:47			0	38234	0	0	0	21389	19950	162012	27216	1057275	46377	107850	0	0	8224	556625	0	0
2024-10-19 10:15:47			0	38249	0	0	0	21402	19950	162028	27135	1057275	46388	107855	0	0	8225	556031	0	0
2024-10-19 10:16:47			0	38235	0	0	0	21412	19950	162016	27396	1057257	46368	107859	0	0	8224	556586	0	0
2024-10-19 10:17:47			0	38243	0	0	0	21405	19950	161988	27284	1057257	46357	107856	0	0	8224	556268	0	0
2024-10-19 10:18:47			0	38255	0	0	0	21405	19970	161984	27000	1057258	46379	107856	0	0	8225	555732	0	0
2024-10-19 10:19:47			0	38261	0	0	0	21405	19960	162052	27112	1057266	46368	107856	0	0	8226	555524	0	0
2024-10-19 10:20:47			0	38247	0	0	0	21405	19960	161884	27327	1057240	46378	107856	0	0	8225	556079	0	0
2024-10-19 10:21:47			0	38265	0	0	0	21407	19970	161924	27564	1057355	46379	107857	0	0	8226	555335	0	0
2024-10-19 10:22:47			0	38254	0	0	0	21405	19960	161888	27339	1057293	46368	107856	0	0	8225	555802	0	0
2024-10-19 10:23:47			0	38272	0	0	0	21405	19970	161940	27332	1057355	46358	107856	0	0	8226	555058	0	0
2024-10-19 10:24:47			0	38270	0	0	0	21407	19960	161856	27081	1057293	46368	107857	0	0	8226	555168	0	0
2024-10-19 10:25:47			0	38255	0	0	0	21407	19960	161976	27274	1057293	46357	107857	0	0	8225	555762	0	0
2024-10-19 10:26:47			0	38250	0	0	0	21405	19970	161968	27308	1057328	46369	107856	0	0	8225	555930	0	0
2024-10-19 10:27:47			0	38266	0	0	0	21392	19970	161952	27419	1057275	46369	107851	0	0	8226	555296	0	0
2024-10-19 10:28:47			0	38257	0	0	0	21397	19970	161868	27326	1057302	46379	107853	0	0	8226	555652	0	0
2024-10-19 10:29:47			0	38261	0	0	0	21402	19960	161852	27355	1057266	46368	107855	0	0	8226	555524	0	0
2024-10-19 10:30:47			0	38267	0	0	0	21394	19970	162008	27282	1057355	46358	107852	0	0	8226	555256	0	0
2024-10-19 10:31:47			0	38250	0	0	0	21402	19970	161912	27152	1057302	46369	107855	0	0	8225	555930	0	0
2024-10-19 10:32:47			0	38266	0	0	0	21399	19970	161856	26854	1057328	46358	107854	0	0	8226	555296	0	0
2024-10-19 10:33:47			0	38247	0	0	0	21405	19970	161912	26793	1057311	46369	107856	0	0	8225	556049	0	0
2024-10-19 10:34:47			0	38264	0	0	0	21394	19970	161928	27454	1057302	46369	107852	0	0	8226	555375	0	0
2024-10-19 10:35:47			0	38275	0	0	0	21410	19980	161848	27182	1057240	46380	107858	0	0	8226	554909	0	0
2024-10-19 10:36:47			0	38273	0	0	0	21405	19970	161820	27305	1057285	46369	107856	0	0	8226	555019	0	0
2024-10-19 10:37:47			0	38275	0	0	0	21415	19950	161860	27130	1057310	46357	107860	0	0	8226	555001	0	0
2024-10-19 10:38:47			0	38254	0	0	0	21412	19980	161892	27149	1057293	46370	107859	0	0	8225	555740	0	0
2024-10-19 10:39:47			0	38282	0	0	0	21407	19980	161840	26965	1057293	46380	107857	0	0	8227	554632	0	0
2024-10-19 10:40:47			0	38274	0	0	0	21407	19970	161940	26927	1057311	46358	107857	0	0	8226	554979	0	0
2024-10-19 10:41:47			0	38272	0	0	0	21412	19980	161860	27575	1057347	46391	107859	0	0	8226	555028	0	0
2024-10-19 10:42:47			0	38268	0	0	0	21412	19970	161780	27315	1057364	46358	107859	0	0	8226	555217	0	0
2024-10-19 10:43:47			0	38282	0	0	0	21420	19980	161696	27196	1057320	46380	107862	0	0	8227	554632	0	0
2024-10-19 10:44:47			0	38277	0	0	0	21412	19970	161720	27320	1057355	46369	107859	0	0	8226	554860	0	0
2024-10-19 10:45:47			0	38293	0	0	0	21415	19970	161784	27371	1057328	46379	107860	0	0	8227	554227	0	0
2024-10-19 10:46:47			0	38298	0	0	0	21412	19970	161696	27119	1057355	46379	107859	0	0	8228	554029	0	0
2024-10-19 10:47:47			0	38289	0	0	0	21412	19990	161712	27239	1057338	46360	107859	0	0	8227	554324	0	0
2024-10-19 10:48:47			0	38299	0	0	0	21407	19980	161732	27372	1057426	46336	107857	0	0	8228	553959	0	0
2024-10-19 10:49:47			0	38321	0	0	0	21402	19980	161668	27415	1057320	46370	107855	0	0	8229	553090	0	0
2024-10-19 10:50:47			0	38333	0	0	0	21402	19980	161648	27124	1057320	46370	107855	0	0	8230	552616	0	0
2024-10-19 10:51:47			0	38339	0	0	0	21405	19980	161636	27441	1057293	46380	107856	0	0	8230	552379	0	0
2024-10-19 10:52:47			0	38337	0	0	0	21399	19970	161628	27118	1057285	46379	107854	0	0	8230	552488	0	0
2024-10-19 10:53:47			0	38350	0	0	0	21418	19980	161436	27183	1057373	46380	107861	0	0	8231	551945	0	0
2024-10-19 10:54:47			0	38353	0	0	0	21412	19970	161600	27454	1057391	46369	107859	0	0	8231	551857	0	0
2024-10-19 10:55:47			0	38368	0	0	0	21428	19970	161572	27085	1057364	46369	107865	0	0	8232	551265	0	0
2024-10-19 10:56:47			0	38336	0	0	0	21415	19980	161564	27635	1057373	46370	107860	0	0	8230	552497	0	0
2024-10-19 10:57:47			0	38341	0	0	0	21431	19980	161520	27654	1057382	46381	107866	0	0	8230	552300	0	0
2024-10-19 10:58:47			0	38349	0	0	0	21431	19980	161584	27550	1057400	46380	107866	0	0	8230	551984	0	0
2024-10-19 10:59:47			0	38338	0	0	0	21431	19980	161568	27438	1057409	46360	107866	0	0	8230	552418	0	0
2024-10-19 11:00:47			0	38351	0	0	0	21433	19980	161464	27100	1057409	46360	107867	0	0	8230	551905	0	0
2024-10-19 11:01:47			0	38345	0	0	0	21436	19990	161496	27419	1057453	46371	107868	0	0	8230	552112	0	0
2024-10-19 11:02:47			0	38345	0	0	0	21433	19990	161568	27223	1057471	46371	107867	0	0	8230	552112	0	0
2024-10-19 11:03:47			0	38356	0	0	0	21436	19980	161504	27189	1057409	46381	107868	0	0	8231	551708	0	0
2024-10-19 11:04:47			0	38357	0	0	0	21438	19990	161620	27588	1057480	46371	107869	0	0	8231	551638	0	0
2024-10-19 11:05:47			0	38362	0	0	0	21441	19980	161492	27443	1057462	46371	107870	0	0	8231	551472	0	0
2024-10-19 11:06:47			0	38357	0	0	0	21444	19990	161544	27124	1057471	46371	107871	0	0	8231	551638	0	0
2024-10-19 11:07:47			0	38361	0	0	0	21444	19990	161448	27331	1057427	46381	107871	0	0	8231	551480	0	0
2024-10-19 11:08:47			0	38362	0	0	0	21446	20000	161456	27339	1057436	46382	107872	0	0	8231	551411	0	0
2024-10-19 11:09:47			0	38362	0	0	0	21454	20010	161516	27111	1057480	46373	107875	0	0	8231	551380	0	0
2024-10-19 11:10:47			0	38353	0	0	0	21454	20010	161424	27564	1057507	46373	107875	0	0	8230	551735	0	0
2024-10-19 11:11:47			0	38379	0	0	0	21454	20000	161292	27296	1057498	46383	107875	0	0	8232	550741	0	0
2024-10-19 11:12:47			0	38390	0	0	0	21454	20000	161304	27601	1057578	46362	107875	0	0	8232	550307	0	0
2024-10-19 11:13:47			0	38392	0	0	0	21457	20010	161368	27509	1057533	46373	107876	0	0	8233	550198	0	0
2024-10-19 11:14:47			0	38399	0	0	0	21457	20010	161360	27270	1057542	46384	107876	0	0	8233	549923	0	0
2024-10-19 11:15:47			0	38385	0	0	0	21470	20000	161400	27457	1057524	46373	107881	0	0	8232	550504	0	0
2024-10-19 11:16:47			0	38380	0	0	0	21457	20010	161420	27260	1057542	46384	107876	0	0	8232	550671	0	0
2024-10-19 11:17:47			0	38389	0	0	0	21467	20010	161448	27436	1057542	46374	107880	0	0	8232	550316	0	0
2024-10-19 11:18:47			0	38384	0	0	0	21470	20010	161348	27429	1057516	46384	107881	0	0	8232	550513	0	0
2024-10-19 11:19:47			0	38404	0	0	0	21459	20020	161404	27355	1057534	46375	107877	0	0	8233	549696	0	0
2024-10-19 11:20:47			0	38398	0	0	0	21464	20010	161416	27663	1057586	46383	107879	0	0	8233	549962	0	0
2024-10-19 11:21:47			0	38395	0	0	0	21470	20020	161448	27383	1057534	46385	107881	0	0	8233	550050	0	0
2024-10-19 11:22:47			0	38374	0	0	0	21464	20020	161476	27902	1057640	46385	107879	0	0	8231	550877	0	0
2024-10-19 11:23:47			0	38387	0	0	0	21477	20030	161456	27632	1057596	46375	107884	0	0	8232	550334	0	0
2024-10-19 11:24:47			0	38381	0	0	0	21488	20030	161368	27333	1057622	46385	107888	0	0	8232	550571	0	0
2024-10-19 11:25:47			0	38370	0	0	0	21485	20020	161336	27817	1057587	46375	107887	0	0	8231	551035	0	0
2024-10-19 11:26:47			0	38372	0	0	0	21477	20030	161444	27685	1057649	46375	107884	0	0	8231	550925	0	0
2024-10-19 11:27:47			0	38351	0	0	0	21480	20050	161460	27552	1057658	46387	107885	0	0	8230	551692	0	0
2024-10-19 11:28:47			0	38351	0	0	0	21490	20030	161512	27383	1057631	46375	107889	0	0	8230	551753	0	0
2024-10-19 11:29:47			0	38346	0	0	0	21480	20030	161496	27717	1057649	46385	107885	0	0	8230	551950	0	0
2024-10-19 11:30:47			0	38370	0	0	0	21485	20040	161504	27661	1057667	46365	107887	0	0	8231	550974	0	0
2024-10-19 11:31:47			0	38369	0	0	0	21493	20040	161472	27272	1057649	46376	107890	0	0	8231	551013	0	0
2024-10-19 11:32:47			0	38383	0	0	0	21501	20050	161504	27360	1057711	46366	107893	0	0	8232	550431	0	0
2024-10-19 11:33:47			0	38376	0	0	0	21498	20030	161404	27588	1057658	46386	107892	0	0	8231	550768	0	0
2024-10-19 11:34:47			0	38368	0	0	0	21506	20050	161396	27355	1057711	46366	107895	0	0	8231	551022	0	0
2024-10-19 11:35:47			0	38362	0	0	0	21506	20040	161484	27431	1057720	46397	107895	0	0	8230	551289	0	0
2024-10-19 11:36:47			0	38377	0	0	0	21498	20050	161428	27400	1057764	46387	107892	0	0	8231	550668	0	0
2024-10-19 11:37:47			0	38384	0	0	0	21493	20040	161384	27410	1057702	46387	107890	0	0	8232	550422	0	0
2024-10-19 11:38:47			0	38407	0	0	0	21514	20050	161292	27218	1057764	46366	107898	0	0	8233	549486	0	0
2024-10-19 11:39:47			0	38422	0	0	0	21501	20050	161236	27371	1057747	46388	107893	0	0	8234	548897	0	0
2024-10-19 11:40:47			0	38428	0	0	0	21485	20050	161120	27182	1057738	46387	107887	0	0	8234	548661	0	0
2024-10-19 11:41:47			0	38440	0	0	0	21490	20050	161092	27149	1057747	46388	107889	0	0	8235	548189	0	0
2024-10-19 11:42:47			0	38456	0	0	0	21485	20060	160988	27528	1057809	46367	107887	0	0	8236	547531	0	0
2024-10-19 11:43:47			0	38470	0	0	0	21485	20050	161004	27194	1057720	46367	107887	0	0	8237	547011	0	0
2024-10-19 11:44:47			0	38478	0	0	0	21485	20060	160912	27055	1057756	46377	107887	0	0	8237	546667	0	0
2024-10-19 11:45:47			0	38490	0	0	0	21490	20050	160912	27215	1057658	46376	107889	0	0	8238	546227	0	0
2024-10-19 11:46:47			0	38479	0	0	0	21493	20050	160816	27270	1057711	46366	107890	0	0	8237	546658	0	0
2024-10-19 11:47:47			0	38490	0	0	0	21477	20050	160888	27395	1057685	46366	107884	0	0	8238	546227	0	0
2024-10-19 11:48:47			0	38516	0	0	0	21493	20050	160872	27630	1057720	46377	107890	0	0	8239	545209	0	0
2024-10-19 11:49:47			0	38493	0	0	0	21488	20060	160852	27454	1057765	46378	107888	0	0	8238	546079	0	0
2024-10-19 11:50:47			0	38492	0	0	0	21475	20060	160824	27256	1057703	46388	107883	0	0	8238	546119	0	0
2024-10-19 11:51:47			0	38513	0	0	0	21480	20060	160828	27345	1057729	46377	107885	0	0	8240	545296	0	0
2024-10-19 11:52:47			0	38475	0	0	0	21480	20050	160832	27391	1057720	46367	107885	0	0	8237	546815	0	0
2024-10-19 11:53:47			0	38465	0	0	0	21480	20050	160880	27516	1057711	46376	107885	0	0	8237	547208	0	0
2024-10-19 11:54:47			0	38445	0	0	0	21475	20050	161040	27409	1057694	46377	107883	0	0	8236	547993	0	0
2024-10-19 11:55:47			0	38438	0	0	0	21472	20050	161164	27377	1057747	46388	107882	0	0	8235	548268	0	0
2024-10-19 11:56:47			0	38454	0	0	0	21475	20050	161044	27531	1057747	46377	107883	0	0	8236	547640	0	0
2024-10-19 11:57:47			0	38432	0	0	0	21480	20060	161140	27433	1057756	46377	107885	0	0	8235	548473	0	0
2024-10-19 11:58:47			0	38434	0	0	0	21475	20050	161140	27346	1057694	46377	107883	0	0	8235	548425	0	0
2024-10-19 11:59:47			0	38426	0	0	0	21485	20050	161184	27144	1057685	46376	107887	0	0	8234	548739	0	0
2024-10-19 12:00:47			0	38440	0	0	0	21483	20050	161212	27412	1057658	46366	107886	0	0	8235	548189	0	0
2024-10-19 12:01:47			0	38434	0	0	0	21483	20050	161128	27625	1057720	46367	107886	0	0	8235	548425	0	0
2024-10-19 12:02:47			0	38422	0	0	0	21475	20050	161184	27301	1057632	46387	107883	0	0	8234	548897	0	0
2024-10-19 12:03:47			0	38415	0	0	0	21480	20050	161352	27154	1057685	46398	107885	0	0	8234	549172	0	0
2024-10-19 12:04:47			0	38387	0	0	0	21490	20040	161256	27391	1057702	46376	107889	0	0	8232	550304	0	0
2024-10-19 12:05:47			0	38390	0	0	0	21490	20050	161280	27376	1057685	46376	107889	0	0	8232	550156	0	0
2024-10-19 12:06:47			0	38419	0	0	0	21496	20040	161252	26974	1057702	46387	107891	0	0	8234	549045	0	0
2024-10-19 12:07:47			0	38406	0	0	0	21496	20050	161168	27319	1057773	46367	107891	0	0	8233	549526	0	0
2024-10-19 12:08:47			0	38415	0	0	0	21498	20060	161264	27078	1057782	46377	107892	0	0	8233	549142	0	0
2024-10-19 12:09:47			0	38405	0	0	0	21498	20050	161336	27227	1057694	46388	107892	0	0	8233	549565	0	0
2024-10-19 12:10:47			0	38430	0	0	0	21488	20060	161204	26939	1057729	46388	107888	0	0	8235	548552	0	0
2024-10-19 12:11:47			0	38444	0	0	0	21506	20050	161316	27015	1057685	46376	107895	0	0	8235	548032	0	0
2024-10-19 12:12:47			0	38443	0	0	0	21519	20050	161196	27024	1057773	46388	107900	0	0	8235	548071	0	0
2024-10-19 12:13:47			0	38473	0	0	0	21524	20060	161036	27081	1057836	46399	107902	0	0	8236	546864	0	0
2024-10-19 12:14:47			0	38490	0	0	0	21532	20070	160960	27123	1057827	46390	107905	0	0	8237	546167	0	0
2024-10-19 12:15:47			0	38505	0	0	0	21550	20080	160884	27170	1057827	46391	107912	0	0	8238	545549	0	0
2024-10-19 12:16:47			0	38508	0	0	0	21545	20070	160844	26984	1057907	46390	107910	0	0	8238	545462	0	0
2024-10-19 12:17:47			0	38527	0	0	0	21558	20060	160772	27277	1057871	46389	107915	0	0	8239	544748	0	0
2024-10-19 12:18:47			0	38538	0	0	0	21550	20090	160732	27138	1057916	46392	107912	0	0	8240	544228	0	0
2024-10-19 12:19:47			0	38523	0	0	0	21535	20090	160692	27124	1057916	46392	107906	0	0	8239	544814	0	0
2024-10-19 12:20:47			0	38524	0	0	0	21550	20090	160764	27213	1057978	46392	107912	0	0	8239	544775	0	0
2024-10-19 12:21:47			0	38539	0	0	0	21537	20080	160664	27291	1057951	46380	107907	0	0	8240	544218	0	0
2024-10-19 12:22:47			0	38552	0	0	0	21537	20090	160756	27218	1057889	46381	107907	0	0	8241	543680	0	0
2024-10-19 12:23:47			0	38514	0	0	0	21535	20090	160664	27170	1057899	46381	107906	0	0	8239	545167	0	0
2024-10-19 12:24:47			0	38526	0	0	0	21550	20090	160740	27244	1058005	46381	107912	0	0	8239	544697	0	0
2024-10-19 12:25:47			0	38545	0	0	0	21537	20090	160672	27196	1057925	46392	107907	0	0	8241	543954	0	0
2024-10-19 12:26:47			0	38526	0	0	0	21545	20110	160736	27204	1057979	46394	107910	0	0	8239	544637	0	0
2024-10-19 12:27:47			0	38541	0	0	0	21527	20100	160716	27228	1057961	46393	107903	0	0	8241	544080	0	0
2024-10-19 12:28:47			0	38517	0	0	0	21527	20100	160768	26968	1057987	46404	107903	0	0	8239	545019	0	0
2024-10-19 12:29:47			0	38517	0	0	0	21511	20100	160752	27001	1057917	46393	107897	0	0	8239	545019	0	0
2024-10-19 12:30:47			0	38504	0	0	0	21509	20080	160824	26909	1057907	46380	107896	0	0	8239	545588	0	0
2024-10-19 12:31:47			0	38515	0	0	0	21501	20090	160996	27064	1057899	46381	107893	0	0	8239	545127	0	0
2024-10-19 12:32:47			0	38493	0	0	0	21506	20100	160856	27043	1057908	46382	107895	0	0	8238	545959	0	0
2024-10-19 12:33:47			0	38476	0	0	0	21511	20080	160888	27275	1057880	46380	107897	0	0	8237	546686	0	0
2024-10-19 12:34:47			0	38466	0	0	0	21506	20090	160872	27182	1057889	46392	107895	0	0	8236	547048	0	0
2024-10-19 12:35:47			0	38473	0	0	0	21509	20090	161052	27085	1057836	46371	107896	0	0	8237	546773	0	0
2024-10-19 12:36:47			0	38478	0	0	0	21503	20090	160900	27012	1057863	46392	107894	0	0	8237	546577	0	0
2024-10-19 12:37:47			0	38492	0	0	0	21514	20080	160944	27274	1057818	46391	107898	0	0	8238	546058	0	0
2024-10-19 12:38:47			0	38485	0	0	0	21511	20090	160856	27287	1057889	46381	107897	0	0	8237	546303	0	0
2024-10-19 12:39:47			0	38478	0	0	0	21527	20080	160976	27365	1057934	46380	107903	0	0	8237	546607	0	0
2024-10-19 12:40:47			0	38510	0	0	0	21535	20080	160880	27402	1057827	46370	107906	0	0	8238	545353	0	0
2024-10-19 12:41:47			0	38517	0	0	0	21524	20100	160720	27163	1057881	46404	107902	0	0	8239	545019	0	0
2024-10-19 12:42:47			0	38502	0	0	0	21519	20080	160692	27078	1057898	46391	107900	0	0	8238	545667	0	0
2024-10-19 12:43:47			0	38500	0	0	0	21509	20070	160760	27017	1057862	46390	107896	0	0	8238	545775	0	0
2024-10-19 12:44:47			0	38503	0	0	0	21506	20080	160780	27580	1057880	46380	107895	0	0	8239	545628	0	0
2024-10-19 12:45:47			0	38495	0	0	0	21514	20080	160748	27253	1057907	46380	107898	0	0	8238	545941	0	0
2024-10-19 12:46:47			0	38496	0	0	0	21506	20080	160896	27140	1057845	46380	107895	0	0	8238	545902	0	0
2024-10-19 12:47:47			0	38485	0	0	0	21506	20080	160740	27072	1057845	46380	107895	0	0	8238	546333	0	0
2024-10-19 12:48:47			0	38496	0	0	0	21501	20080	160800	27220	1057871	46380	107893	0	0	8238	545902	0	0
2024-10-19 12:49:47			0	38480	0	0	0	21501	20080	160756	27365	1057925	46380	107893	0	0	8237	546529	0	0
2024-10-19 12:50:47			0	38479	0	0	0	21496	20070	160920	27116	1057809	46379	107891	0	0	8237	546598	0	0
2024-10-19 12:51:47			0	38488	0	0	0	21498	20070	160840	27008	1057862	46369	107892	0	0	8238	546245	0	0
2024-10-19 12:52:47			0	38445	0	0	0	21498	20080	160876	27422	1057845	46391	107892	0	0	8235	547902	0	0
2024-10-19 12:53:47			0	38467	0	0	0	21503	20080	160928	27185	1057898	46380	107894	0	0	8237	547039	0	0
2024-10-19 12:54:47			0	38479	0	0	0	21503	20070	160988	27081	1057836	46369	107894	0	0	8237	546598	0	0
2024-10-19 12:55:47			0	38473	0	0	0	21503	20080	160904	27322	1057845	46380	107894	0	0	8237	546803	0	0
2024-10-19 12:56:47			0	38465	0	0	0	21514	20080	160872	27232	1057845	46402	107898	0	0	8236	547117	0	0
2024-10-19 12:57:47			0	38474	0	0	0	21514	20070	160812	27050	1057836	46379	107898	0	0	8237	546794	0	0
2024-10-19 12:58:47			0	38480	0	0	0	21511	20080	160824	27098	1057898	46391	107897	0	0	8237	546529	0	0
2024-10-19 12:59:47			0	38474	0	0	0	21514	20080	160932	27267	1057871	46370	107898	0	0	8237	546764	0	0
2024-10-19 13:00:47			0	38465	0	0	0	21498	20080	160820	27326	1057792	46370	107892	0	0	8236	547117	0	0
2024-10-19 13:01:47			0	38460	0	0	0	21503	20070	160872	27149	1057809	46379	107894	0	0	8236	547344	0	0
2024-10-19 13:02:47			0	38484	0	0	0	21506	20070	160896	27474	1057862	46379	107895	0	0	8237	546402	0	0
2024-10-19 13:03:47			0	38462	0	0	0	21501	20070	160928	27391	1057809	46379	107893	0	0	8236	547265	0	0
2024-10-19 13:04:47			0	38451	0	0	0	21506	20080	160928	27268	1057818	46370	107895	0	0	8236	547667	0	0
2024-10-19 13:05:47			0	38457	0	0	0	21503	20070	160888	27332	1057827	46379	107894	0	0	8236	547461	0	0
2024-10-19 13:06:47			0	38481	0	0	0	21516	20070	160932	26981	1057827	46379	107899	0	0	8237	546520	0	0
2024-10-19 13:07:47			0	38471	0	0	0	21516	20080	160804	27230	1057827	46380	107899	0	0	8237	546882	0	0
2024-10-19 13:08:47			0	38489	0	0	0	21524	20070	160768	27405	1057809	46379	107902	0	0	8237	546206	0	0
2024-10-19 13:09:47			0	38494	0	0	0	21524	20080	160724	27138	1057871	46380	107902	0	0	8238	545980	0	0
2024-10-19 13:10:47			0	38525	0	0	0	21527	20080	160752	27166	1057871	46380	107903	0	0	8240	544766	0	0
2024-10-19 13:11:47			0	38562	0	0	0	21537	20080	160488	27547	1057898	46391	107907	0	0	8241	543319	0	0
2024-10-19 13:12:47			0	38589	0	0	0	21535	20080	160408	27244	1057960	46391	107906	0	0	8243	542265	0	0
2024-10-19 13:13:47			0	38597	0	0	0	21535	20090	160312	27027	1057942	46392	107906	0	0	8244	541923	0	0
2024-10-19 13:14:47			0	38582	0	0	0	21524	20080	160432	27206	1057951	46391	107902	0	0	8243	542539	0	0
2024-10-19 13:15:47			0	38555	0	0	0	21519	20090	160504	26759	1057925	46381	107900	0	0	8241	543563	0	0
2024-10-19 13:16:47			0	38558	0	0	0	21514	20080	160496	26965	1057871	46370	107898	0	0	8242	543476	0	0
2024-10-19 13:17:47			0	38541	0	0	0	21522	20080	160608	27315	1057960	46380	107901	0	0	8241	544140	0	0
2024-10-19 13:18:47			0	38529	0	0	0	21519	20090	160556	27178	1057889	46392	107900	0	0	8240	544580	0	0
2024-10-19 13:19:47			0	38547	0	0	0	21524	20080	160500	27479	1057960	46402	107902	0	0	8241	543906	0	0
2024-10-19 13:20:47			0	38553	0	0	0	21524	20090	160528	27194	1057899	46392	107902	0	0	8241	543641	0	0
2024-10-19 13:21:47			0	38559	0	0	0	21522	20090	160572	27039	1057916	46392	107901	0	0	8242	543407	0	0
2024-10-19 13:22:47			0	38565	0	0	0	21524	20100	160508	27223	1057908	46393	107902	0	0	8242	543142	0	0
2024-10-19 13:23:47			0	38572	0	0	0	21535	20090	160364	27524	1057925	46392	107906	0	0	8242	542899	0	0
2024-10-19 13:24:47			0	38592	0	0	0	21532	20090	160364	26894	1057916	46392	107905	0	0	8243	542118	0	0
2024-10-19 13:25:47			0	38600	0	0	0	21527	20100	160292	27163	1057943	46393	107903	0	0	8244	541777	0	0
2024-10-19 13:26:47			0	38595	0	0	0	21524	20080	160304	27161	1057960	46370	107902	0	0	8244	542031	0	0
2024-10-19 13:27:47			0	38585	0	0	0	21516	20080	160288	27097	1057907	46370	107899	0	0	8243	542421	0	0
2024-10-19 13:28:47			0	38581	0	0	0	21529	20080	160368	26963	1057934	46391	107904	0	0	8243	542577	0	0
2024-10-19 13:29:47			0	38575	0	0	0	21519	20090	160356	27355	1057969	46381	107900	0	0	8243	542782	0	0
2024-10-19 13:30:47			0	38565	0	0	0	21511	20080	160452	27312	1057960	46370	107897	0	0	8242	543202	0	0
2024-10-19 13:31:47			0	38544	0	0	0	21506	20090	160452	27215	1057899	46381	107895	0	0	8241	543993	0	0
2024-10-19 13:32:47			0	38541	0	0	0	21516	20080	160612	27410	1057925	46380	107899	0	0	8241	544140	0	0
2024-10-19 13:33:47			0	38548	0	0	0	21506	20080	160520	27454	1057907	46380	107895	0	0	8241	543867	0	0
2024-10-19 13:34:47			0	38533	0	0	0	21522	20080	160544	27263	1057898	46380	107901	0	0	8240	544453	0	0
2024-10-19 13:35:47			0	38526	0	0	0	21511	20080	160656	27547	1057898	46380	107897	0	0	8240	544727	0	0
2024-10-19 13:36:47			0	38522	0	0	0	21509	20080	160684	27248	1057934	46380	107896	0	0	8240	544884	0	0
2024-10-19 13:37:47			0	38503	0	0	0	21511	20080	160716	27287	1057871	46380	107897	0	0	8238	545628	0	0
2024-10-19 13:38:47			0	38527	0	0	0	21503	20080	160676	27580	1057845	46370	107894	0	0	8240	544688	0	0
2024-10-19 13:39:47			0	38516	0	0	0	21503	20080	160632	27232	1057925	46370	107894	0	0	8239	545118	0	0
2024-10-19 13:40:47			0	38542	0	0	0	21506	20070	160548	27124	1057836	46369	107895	0	0	8241	544131	0	0
2024-10-19 13:41:47			0	38535	0	0	0	21503	20080	160548	27308	1057818	46370	107894	0	0	8240	544375	0	0
2024-10-19 13:42:47			0	38543	0	0	0	21506	20090	160608	27282	1057889	46392	107895	0	0	8241	544032	0	0
2024-10-19 13:43:47			0	38545	0	0	0	21501	20080	160600	27123	1057827	46380	107893	0	0	8241	543984	0	0
2024-10-19 13:44:47			0	38549	0	0	0	21506	20070	160644	26996	1057800	46390	107895	0	0	8241	543858	0	0
2024-10-19 13:45:47			0	38539	0	0	0	21511	20070	160704	27403	1057862	46379	107897	0	0	8241	544248	0	0
2024-10-19 13:46:47			0	38540	0	0	0	21514	20070	160624	27152	1057783	46379	107898	0	0	8241	544209	0	0
2024-10-19 13:47:47			0	38541	0	0	0	21519	20070	160596	27097	1057836	46369	107900	0	0	8241	544170	0	0
2024-10-19 13:48:47			0	38540	0	0	0	21501	20080	160636	27445	1057871	46391	107893	0	0	8241	544179	0	0
2024-10-19 13:49:47			0	38535	0	0	0	21506	20080	160600	27305	1057898	46380	107895	0	0	8240	544375	0	0
2024-10-19 13:50:47			0	38528	0	0	0	21516	20080	160540	27270	1057818	46391	107899	0	0	8240	544649	0	0
2024-10-19 13:51:47			0	38535	0	0	0	21509	20070	160628	26944	1057862	46401	107896	0	0	8240	544405	0	0
2024-10-19 13:52:47			0	38532	0	0	0	21503	20070	160584	27071	1057836	46369	107894	0	0	8240	544522	0	0
2024-10-19 13:53:47			0	38520	0	0	0	21509	20070	160612	27104	1057853	46379	107896	0	0	8239	544992	0	0
2024-10-19 13:54:47			0	38528	0	0	0	21509	20080	160644	26897	1057818	46370	107896	0	0	8240	544649	0	0
2024-10-19 13:55:47			0	38535	0	0	0	21522	20070	160604	27166	1057853	46390	107901	0	0	8240	544405	0	0
2024-10-19 13:56:47			0	38529	0	0	0	21527	20070	160484	27095	1057933	46390	107903	0	0	8240	544640	0	0
2024-10-19 13:57:47			0	38535	0	0	0	21524	20070	160560	27313	1057880	46390	107902	0	0	8240	544405	0	0
2024-10-19 13:58:47			0	38535	0	0	0	21519	20070	160604	27168	1057889	46401	107900	0	0	8240	544405	0	0
2024-10-19 13:59:47			0	38526	0	0	0	21524	20070	160624	27223	1057889	46379	107902	0	0	8240	544757	0	0
2024-10-19 14:00:47			0	38537	0	0	0	21522	20080	160604	27208	1057854	46402	107901	0	0	8240	544297	0	0
2024-10-19 14:01:47			0	38552	0	0	0	21522	20080	160500	27170	1057898	46391	107901	0	0	8241	543710	0	0
2024-10-19 14:02:47			0	38539	0	0	0	21529	20070	160532	27326	1057942	46379	107904	0	0	8240	544248	0	0
2024-10-19 14:03:47			0	38544	0	0	0	21527	20080	160560	27010	1057951	46380	107903	0	0	8241	544023	0	0
2024-10-19 14:04:47			0	38543	0	0	0	21535	20070	160544	27569	1057862	46390	107906	0	0	8240	544092	0	0
2024-10-19 14:05:47			0	38565	0	0	0	21532	20080	160568	27034	1057898	46380	107905	0	0	8242	543202	0	0
2024-10-19 14:06:47			0	38559	0	0	0	21527	20080	160588	27196	1057907	46391	107903	0	0	8241	543437	0	0
2024-10-19 14:07:47			0	38549	0	0	0	21532	20080	160488	27286	1057907	46402	107905	0	0	8241	543828	0	0
2024-10-19 14:08:47			0	38560	0	0	0	21535	20080	160516	27258	1057871	46380	107906	0	0	8241	543398	0	0
2024-10-19 14:09:47			0	38561	0	0	0	21532	20090	160544	27358	1057942	46392	107905	0	0	8242	543329	0	0
2024-10-19 14:10:47			0	38554	0	0	0	21529	20100	160436	26967	1057987	46393	107904	0	0	8241	543572	0	0
2024-10-19 14:11:47			0	38584	0	0	0	21537	20090	160484	27215	1057916	46381	107907	0	0	8243	542431	0	0
2024-10-19 14:12:47			0	38562	0	0	0	21537	20090	160456	27339	1057925	46371	107907	0	0	8242	543290	0	0
2024-10-19 14:13:47			0	38569	0	0	0	21532	20090	160472	27287	1058005	46392	107905	0	0	8242	543016	0	0
2024-10-19 14:14:47			0	38560	0	0	0	21540	20080	160408	27388	1057898	46380	107908	0	0	8241	543398	0	0
2024-10-19 14:15:47			0	38561	0	0	0	21532	20090	160416	27336	1057978	46392	107905	0	0	8242	543329	0	0
2024-10-19 14:16:47			0	38571	0	0	0	21532	20090	160372	27300	1057969	46392	107905	0	0	8242	542938	0	0
2024-10-19 14:17:47			0	38579	0	0	0	21537	20090	160436	27533	1058005	46392	107907	0	0	8243	542626	0	0
2024-10-19 14:18:47			0	38575	0	0	0	21537	20090	160452	27163	1058005	46381	107907	0	0	8242	542782	0	0
2024-10-19 14:19:47			0	38577	0	0	0	21537	20090	160348	27658	1057969	46381	107907	0	0	8242	542704	0	0
2024-10-19 14:20:47			0	38572	0	0	0	21537	20090	160408	27069	1057996	46392	107907	0	0	8242	542899	0	0
2024-10-19 14:21:47			0	38568	0	0	0	21537	20100	160460	27144	1058014	46404	107907	0	0	8242	543025	0	0
2024-10-19 14:22:47			0	38587	0	0	0	21537	20090	160320	27161	1058005	46371	107907	0	0	8243	542313	0	0
2024-10-19 14:23:47			0	38590	0	0	0	21522	20090	160384	27270	1058005	46392	107901	0	0	8243	542196	0	0
2024-10-19 14:24:47			0	38589	0	0	0	21542	20100	160384	27493	1057961	46382	107909	0	0	8243	542205	0	0
2024-10-19 14:25:47			0	38578	0	0	0	21535	20100	160448	27306	1058049	46393	107906	0	0	8243	542635	0	0
2024-10-19 14:26:47			0	38572	0	0	0	21532	20100	160364	27369	1058014	46382	107905	0	0	8242	542869	0	0
2024-10-19 14:27:47			0	38604	0	0	0	21524	20100	160396	27377	1057987	46382	107902	0	0	8244	541620	0	0
2024-10-19 14:28:47			0	38584	0	0	0	21537	20090	160376	27017	1057978	46381	107907	0	0	8243	542431	0	0
2024-10-19 14:29:47			0	38587	0	0	0	21540	20100	160420	27412	1058041	46393	107908	0	0	8243	542283	0	0
2024-10-19 14:30:47			0	38578	0	0	0	21537	20100	160444	27209	1057987	46393	107907	0	0	8243	542635	0	0
2024-10-19 14:31:47			0	38566	0	0	0	21542	20100	160472	27422	1057961	46393	107909	0	0	8242	543103	0	0
2024-10-19 14:32:47			0	38582	0	0	0	21535	20100	160368	27301	1057987	46404	107906	0	0	8243	542479	0	0
2024-10-19 14:33:47			0	38585	0	0	0	21545	20090	160364	27324	1058005	46392	107910	0	0	8243	542392	0	0
2024-10-19 14:34:47			0	38585	0	0	0	21542	20090	160300	27216	1058005	46381	107909	0	0	8243	542392	0	0
2024-10-19 14:35:47			0	38595	0	0	0	21545	20100	160332	27497	1058014	46393	107910	0	0	8243	541971	0	0
2024-10-19 14:36:47			0	38610	0	0	0	21548	20100	160280	27287	1058023	46393	107911	0	0	8244	541386	0	0
2024-10-19 14:37:47			0	38625	0	0	0	21545	20110	160224	27379	1058032	46394	107910	0	0	8245	540772	0	0
2024-10-19 14:38:47			0	38623	0	0	0	21548	20110	160228	27336	1058005	46383	107911	0	0	8245	540850	0	0
2024-10-19 14:39:47			0	38652	0	0	0	21553	20100	160260	27331	1058023	46404	107913	0	0	8247	539751	0	0
2024-10-19 14:40:47			0	38638	0	0	0	21550	20110	160212	27557	1058032	46406	107912	0	0	8246	540266	0	0
2024-10-19 14:41:47			0	38643	0	0	0	21553	20100	160144	27566	1058014	46382	107913	0	0	8246	540101	0	0
2024-10-19 14:42:47			0	38620	0	0	0	21561	20100	160228	27190	1058041	46393	107916	0	0	8245	540997	0	0
2024-10-19 14:43:47			0	38647	0	0	0	21548	20110	160176	27253	1058085	46394	107911	0	0	8246	539916	0	0
2024-10-19 14:44:47			0	38631	0	0	0	21558	20100	160176	27455	1058076	46393	107915	0	0	8245	540568	0	0
2024-10-19 14:45:47			0	38634	0	0	0	21555	20110	160136	27083	1058121	46394	107914	0	0	8246	540422	0	0
2024-10-19 14:46:47			0	38631	0	0	0	21558	20100	160188	27322	1058049	46393	107915	0	0	8245	540568	0	0
2024-10-19 14:47:47			0	38622	0	0	0	21553	20100	160128	27067	1058103	46393	107913	0	0	8245	540919	0	0
2024-10-19 14:48:47			0	38623	0	0	0	21548	20110	160228	27372	1058112	46383	107911	0	0	8245	540850	0	0
2024-10-19 14:49:47			0	38617	0	0	0	21558	20120	160320	27180	1058076	46374	107915	0	0	8245	541054	0	0
2024-10-19 14:50:47			0	38622	0	0	0	21558	20100	160296	27237	1058023	46404	107915	0	0	8245	540919	0	0
2024-10-19 14:51:47			0	38639	0	0	0	21545	20120	160324	27575	1058050	46395	107910	0	0	8246	540197	0	0
2024-10-19 14:52:47			0	38635	0	0	0	21548	20110	160248	27516	1058067	46383	107911	0	0	8246	540383	0	0
2024-10-19 14:53:47			0	38632	0	0	0	21550	20110	160116	27345	1058067	46362	107912	0	0	8245	540499	0	0
2024-10-19 14:54:47			0	38635	0	0	0	21555	20110	160156	27459	1058067	46406	107914	0	0	8246	540383	0	0
2024-10-19 14:55:47			0	38641	0	0	0	21561	20120	160252	27550	1058139	46396	107916	0	0	8246	540119	0	0
2024-10-19 14:56:47			0	38625	0	0	0	21558	20120	160236	27547	1058156	46384	107915	0	0	8245	540742	0	0
2024-10-19 14:57:47			0	38638	0	0	0	21561	20120	160124	27440	1058103	46395	107916	0	0	8246	540236	0	0
2024-10-19 14:58:47			0	38644	0	0	0	21568	20110	160200	27647	1058094	46383	107919	0	0	8246	540032	0	0
2024-10-19 14:59:47			0	38649	0	0	0	21566	20120	160172	27594	1058112	46396	107918	0	0	8246	539808	0	0
2024-10-19 15:00:47			0	38653	0	0	0	21579	20120	160064	27793	1058130	46384	107923	0	0	8246	539652	0	0
2024-10-19 15:01:47			0	38674	0	0	0	21571	20130	160084	27689	1058174	46375	107920	0	0	8248	538806	0	0
2024-10-19 15:02:47			0	38683	0	0	0	21579	20120	159892	27325	1058245	46407	107923	0	0	8248	538486	0	0
2024-10-19 15:03:47			0	38696	0	0	0	21576	20130	159848	27372	1058236	46407	107922	0	0	8249	537951	0	0
2024-10-19 15:04:47			0	38705	0	0	0	21579	20140	159864	27613	1058192	46397	107923	0	0	8249	537572	0	0
2024-10-19 15:05:47			0	38722	0	0	0	21576	20130	159668	27552	1058121	46396	107922	0	0	8250	536942	0	0
2024-10-19 15:06:47			0	38733	0	0	0	21573	20130	159701	27685	1058254	46407	107921	0	0	8251	536516	0	0
2024-10-19 15:07:47			0	38738	0	0	0	21571	20140	159805	27426	1058192	46397	107920	0	0	8251	536293	0	0
2024-10-19 15:08:47			0	38752	0	0	0	21579	20150	159733	27301	1058210	46387	107923	0	0	8252	535721	0	0
2024-10-19 15:09:47			0	38762	0	0	0	21584	20140	159581	27312	1058192	46397	107925	0	0	8253	535363	0	0
2024-10-19 15:10:47			0	38774	0	0	0	21584	20140	159549	27334	1058165	46408	107925	0	0	8253	534898	0	0
2024-10-19 15:11:47			0	38771	0	0	0	21584	20140	159505	27367	1058228	46387	107925	0	0	8253	535014	0	0
2024-10-19 15:12:47			0	38797	0	0	0	21592	20140	159501	27248	1058245	46397	107928	0	0	8255	534009	0	0
2024-10-19 15:13:47			0	38789	0	0	0	21589	20140	159561	27281	1058272	46375	107927	0	0	8254	534318	0	0
2024-10-19 15:14:47			0	38789	0	0	0	21589	20130	159541	27182	1058183	46385	107927	0	0	8254	534348	0	0
2024-10-19 15:15:47			0	38797	0	0	0	21589	20150	159557	27272	1058236	46387	107927	0	0	8255	533979	0	0
2024-10-19 15:16:47			0	38763	0	0	0	21586	20150	159605	27448	1058290	46398	107926	0	0	8253	535295	0	0
2024-10-19 15:17:47			0	38763	0	0	0	21586	20150	159633	27364	1058245	46398	107926	0	0	8253	535295	0	0
2024-10-19 15:18:47			0	38755	0	0	0	21594	20160	159701	27531	1058254	46399	107929	0	0	8252	535575	0	0
2024-10-19 15:19:47			0	38747	0	0	0	21589	20150	159769	27144	1058236	46398	107927	0	0	8252	535914	0	0
2024-10-19 15:20:47			0	38742	0	0	0	21599	20150	159749	27312	1058290	46398	107931	0	0	8251	536108	0	0
2024-10-19 15:21:47			0	38721	0	0	0	21594	20150	159728	27277	1058236	46398	107929	0	0	8250	536922	0	0
2024-10-19 15:22:47			0	38742	0	0	0	21594	20150	159701	27197	1058236	46398	107929	0	0	8251	536108	0	0
2024-10-19 15:23:47			0	38739	0	0	0	21584	20150	159697	27440	1058272	46387	107925	0	0	8251	536224	0	0
2024-10-19 15:24:47			0	38752	0	0	0	21579	20150	159757	27062	1058290	46387	107923	0	0	8252	535721	0	0
2024-10-19 15:25:47			0	38760	0	0	0	21584	20160	159641	26890	1058254	46399	107925	0	0	8253	535381	0	0
2024-10-19 15:26:47			0	38730	0	0	0	21584	20160	159652	27114	1058228	46377	107925	0	0	8251	536543	0	0
2024-10-19 15:27:47			0	38728	0	0	0	21586	20160	159697	27305	1058334	46388	107926	0	0	8251	536621	0	0
2024-10-19 15:28:47			0	38734	0	0	0	21579	20150	159792	27232	1058352	46387	107923	0	0	8251	536418	0	0
2024-10-19 15:29:47			0	38719	0	0	0	21579	20160	159744	27353	1058308	46388	107923	0	0	8250	536970	0	0
2024-10-19 15:30:47			0	38735	0	0	0	21586	20150	159745	27436	1058272	46398	107926	0	0	8251	536379	0	0
2024-10-19 15:31:47			0	38729	0	0	0	21592	20160	159697	27281	1058308	46388	107928	0	0	8251	536582	0	0
2024-10-19 15:32:47			0	38737	0	0	0	21597	20160	159681	27274	1058281	46399	107930	0	0	8251	536272	0	0
2024-10-19 15:33:47			0	38742	0	0	0	21597	20150	159737	27396	1058352	46387	107930	0	0	8251	536108	0	0
2024-10-19 15:34:47			0	38774	0	0	0	21605	20160	159669	27300	1058334	46399	107933	0	0	8253	534839	0	0
2024-10-19 15:35:47			0	38768	0	0	0	21602	20160	159625	27355	1058317	46400	107932	0	0	8253	535071	0	0
2024-10-19 15:36:47			0	38765	0	0	0	21594	20160	159589	27083	1058308	46399	107929	0	0	8253	535188	0	0
2024-10-19 15:37:47			0	38775	0	0	0	21597	20150	159573	26948	1058299	46398	107930	0	0	8253	534830	0	0
2024-10-19 15:38:47			0	38765	0	0	0	21597	20160	159545	27076	1058254	46411	107930	0	0	8253	535188	0	0
2024-10-19 15:39:47			0	38759	0	0	0	21594	20150	159521	27034	1058325	46410	107929	0	0	8252	535449	0	0
2024-10-19 15:40:47			0	38757	0	0	0	21586	20160	159625	27074	1058290	46389	107926	0	0	8252	535497	0	0
2024-10-19 15:41:47			0	38774	0	0	0	21589	20160	159701	27066	1058263	46378	107927	0	0	8253	534839	0	0
2024-10-19 15:42:47			0	38760	0	0	0	21599	20160	159657	27246	1058343	46400	107931	0	0	8252	535381	0	0
2024-10-19 15:43:47			0	38763	0	0	0	21592	20170	159629	27072	1058326	46389	107928	0	0	8253	535235	0	0
2024-10-19 15:44:47			0	38756	0	0	0	21594	20160	159637	26968	1058370	46400	107929	0	0	8252	535536	0	0
2024-10-19 15:45:47			0	38746	0	0	0	21584	20170	159745	26760	1058308	46390	107925	0	0	8252	535894	0	0
2024-10-19 15:46:47			0	38761	0	0	0	21579	20160	159693	27071	1058290	46389	107923	0	0	8253	535342	0	0
2024-10-19 15:47:47			0	38741	0	0	0	21592	20170	159693	27223	1058326	46389	107928	0	0	8251	536087	0	0
2024-10-19 15:48:47			0	38731	0	0	0	21584	20160	159705	27069	1058334	46388	107925	0	0	8251	536505	0	0
2024-10-19 15:49:47			0	38746	0	0	0	21586	20170	159749	27026	1058299	46400	107926	0	0	8252	535894	0	0
2024-10-19 15:50:47			0	38729	0	0	0	21576	20170	159757	27057	1058272	46389	107922	0	0	8251	536552	0	0
2024-10-19 15:51:47			0	38747	0	0	0	21586	20150	159725	27069	1058192	46376	107926	0	0	8252	535914	0	0
2024-10-19 15:52:47			0	38742	0	0	0	21589	20140	159765	26901	1058281	46398	107927	0	0	8251	536137	0	0
2024-10-19 15:53:47			0	38720	0	0	0	21594	20150	159768	27088	1058299	46410	107929	0	0	8250	536961	0	0
2024-10-19 15:54:47			0	38716	0	0	0	21586	20150	159740	27357	1058219	46376	107926	0	0	8250	537116	0	0
2024-10-19 15:55:47			0	38704	0	0	0	21586	20150	159800	27055	1058263	46387	107926	0	0	8249	537581	0	0
2024-10-19 15:56:47			0	38726	0	0	0	21586	20150	159813	27130	1058210	46398	107926	0	0	8251	536728	0	0
2024-10-19 15:57:47			0	38725	0	0	0	21592	20150	159785	27100	1058378	46398	107928	0	0	8250	536767	0	0
2024-10-19 15:58:47			0	38723	0	0	0	21584	20150	159673	27090	1058210	46387	107925	0	0	8250	536844	0	0
2024-10-19 15:59:47			0	38724	0	0	0	21586	20150	159728	27092	1058245	46398	107926	0	0	8250	536806	0	0
2024-10-19 16:00:47			0	38723	0	0	0	21581	20160	159712	26972	1058290	46400	107924	0	0	8250	536815	0	0
2024-10-19 16:01:47			0	38714	0	0	0	21579	20150	159768	26849	1058263	46410	107923	0	0	8250	537193	0	0
2024-10-19 16:02:47			0	38714	0	0	0	21579	20150	159824	27124	1058272	46398	107923	0	0	8250	537193	0	0
2024-10-19 16:03:47			0	38716	0	0	0	21579	20140	159828	26942	1058192	46386	107923	0	0	8250	537145	0	0
2024-10-19 16:04:47			0	38720	0	0	0	21581	20150	159912	27072	1058192	46387	107924	0	0	8250	536961	0	0
2024-10-19 16:05:47			0	38706	0	0	0	21576	20160	159944	27114	1058254	46399	107922	0	0	8250	537474	0	0
2024-10-19 16:06:47			0	38689	0	0	0	21576	20150	159936	27154	1058236	46387	107922	0	0	8249	538164	0	0
2024-10-19 16:07:47			0	38702	0	0	0	21581	20150	159924	26989	1058166	46387	107924	0	0	8249	537659	0	0
2024-10-19 16:08:47			0	38716	0	0	0	21579	20150	159884	27086	1058192	46398	107923	0	0	8250	537116	0	0
2024-10-19 16:09:47			0	38711	0	0	0	21586	20150	159808	27294	1058210	46410	107926	0	0	8250	537310	0	0
2024-10-19 16:10:47			0	38715	0	0	0	21597	20160	159784	27100	1058317	46412	107930	0	0	8250	537125	0	0
2024-10-19 16:11:47			0	38739	0	0	0	21586	20160	159753	26965	1058308	46399	107926	0	0	8251	536195	0	0
2024-10-19 16:12:47			0	38734	0	0	0	21589	20150	159753	27100	1058263	46398	107927	0	0	8251	536418	0	0
2024-10-19 16:13:47			0	38720	0	0	0	21586	20150	159888	27284	1058369	46410	107926	0	0	8250	536961	0	0
2024-10-19 16:14:47			0	38716	0	0	0	21589	20140	159740	27057	1058325	46397	107927	0	0	8250	537145	0	0
2024-10-19 16:15:47			0	38724	0	0	0	21584	20150	159820	27164	1058316	46387	107925	0	0	8250	536806	0	0
2024-10-19 16:16:47			0	38719	0	0	0	21581	20150	159828	27183	1058192	46398	107924	0	0	8250	536999	0	0
2024-10-19 16:17:47			0	38713	0	0	0	21586	20150	159852	26771	1058325	46398	107926	0	0	8250	537232	0	0
2024-10-19 16:18:47			0	38710	0	0	0	21586	20130	159840	26705	1058156	46396	107926	0	0	8250	537408	0	0
2024-10-19 16:19:47			0	38733	0	0	0	21584	20150	159745	27305	1058272	46410	107925	0	0	8251	536457	0	0
2024-10-19 16:20:47			0	38756	0	0	0	21584	20150	159653	26890	1058236	46387	107925	0	0	8252	535566	0	0
2024-10-19 16:21:47			0	38775	0	0	0	21581	20140	159665	26975	1058298	46375	107924	0	0	8253	534860	0	0
2024-10-19 16:22:47			0	38777	0	0	0	21581	20140	159629	27459	1058192	46375	107924	0	0	8254	534782	0	0
2024-10-19 16:23:47			0	38777	0	0	0	21579	20160	159549	27022	1058281	46399	107923	0	0	8254	534723	0	0
2024-10-19 16:24:47			0	38768	0	0	0	21576	20150	159573	27076	1058210	46398	107922	0	0	8253	535101	0	0
2024-10-19 16:25:47			0	38755	0	0	0	21581	20140	159693	27192	1058201	46398	107924	0	0	8252	535634	0	0
2024-10-19 16:26:47			0	38729	0	0	0	21576	20140	159749	26928	1058272	46397	107922	0	0	8251	536641	0	0
2024-10-19 16:27:47			0	38725	0	0	0	21573	20150	159864	27147	1058236	46387	107921	0	0	8251	536767	0	0
2024-10-19 16:28:47			0	38716	0	0	0	21571	20150	159936	27038	1058245	46398	107920	0	0	8250	537116	0	0
2024-10-19 16:29:47			0	38718	0	0	0	21579	20150	159816	27258	1058192	46398	107923	0	0	8250	537038	0	0
2024-10-19 16:30:47			0	38680	0	0	0	21586	20130	159912	26873	1058210	46396	107926	0	0	8248	538573	0	0
2024-10-19 16:31:47			0	38706	0	0	0	21579	20150	159832	27192	1058183	46387	107923	0	0	8249	537504	0	0
2024-10-19 16:32:47			0	38706	0	0	0	21594	20130	159796	26856	1058183	46385	107929	0	0	8249	537563	0	0
2024-10-19 16:33:47			0	38718	0	0	0	21589	20150	159820	26944	1058236	46387	107927	0	0	8250	537038	0	0
2024-10-19 16:34:47			0	38715	0	0	0	21581	20150	159772	27268	1058263	46387	107924	0	0	8250	537155	0	0
2024-10-19 16:35:47			0	38716	0	0	0	21589	20150	159724	27060	1058210	46398	107927	0	0	8250	537116	0	0
2024-10-19 16:36:47			0	38704	0	0	0	21589	20150	159772	27319	1058245	46387	107927	0	0	8249	537581	0	0
2024-10-19 16:37:47			0	38706	0	0	0	21584	20150	159804	27255	1058325	46387	107925	0	0	8249	537504	0	0
2024-10-19 16:38:47			0	38717	0	0	0	21579	20150	159852	27019	1058272	46398	107923	0	0	8250	537077	0	0
2024-10-19 16:39:47			0	38716	0	0	0	21579	20150	159768	27390	1058325	46387	107923	0	0	8250	537116	0	0
2024-10-19 16:40:47			0	38711	0	0	0	21579	20140	159824	27294	1058219	46397	107923	0	0	8250	537340	0	0
2024-10-19 16:41:47			0	38697	0	0	0	21581	20140	159904	26828	1058201	46387	107924	0	0	8249	537883	0	0
2024-10-19 16:42:47			0	38707	0	0	0	21584	20130	159796	27182	1058210	46407	107925	0	0	8249	537524	0	0
2024-10-19 16:43:47			0	38724	0	0	0	21579	20140	159860	27119	1058174	46376	107923	0	0	8250	536835	0	0
2024-10-19 16:44:47			0	38699	0	0	0	21579	20150	159872	27232	1058210	46398	107923	0	0	8249	537775	0	0
2024-10-19 16:45:47			0	38713	0	0	0	21576	20140	159848	27022	1058139	46386	107922	0	0	8250	537262	0	0
2024-10-19 16:46:47			0	38715	0	0	0	21581	20140	159752	27225	1058165	46397	107924	0	0	8250	537184	0	0
2024-10-19 16:47:47			0	38714	0	0	0	21581	20140	159880	27261	1058219	46397	107924	0	0	8250	537223	0	0
2024-10-19 16:48:47			0	38705	0	0	0	21558	20130	159884	27216	1058130	46396	107915	0	0	8250	537602	0	0
2024-10-19 16:49:47			0	38693	0	0	0	21566	20150	159900	27218	1058236	46387	107918	0	0	8249	538008	0	0
2024-10-19 16:50:47			0	38699	0	0	0	21576	20140	159904	27156	1058192	46386	107922	0	0	8249	537805	0	0
2024-10-19 16:51:47			0	38676	0	0	0	21571	20140	159900	27246	1058139	46386	107920	0	0	8248	538699	0	0
2024-10-19 16:52:47			0	38660	0	0	0	21568	20140	159968	27116	1058192	46397	107919	0	0	8247	539321	0	0
2024-10-19 16:53:47			0	38652	0	0	0	21561	20130	160024	27131	1058183	46407	107916	0	0	8247	539662	0	0
2024-10-19 16:54:47			0	38668	0	0	0	21561	20130	159972	27196	1058147	46407	107916	0	0	8247	539039	0	0
2024-10-19 16:55:47			0	38657	0	0	0	21568	20140	159968	27001	1058165	46397	107919	0	0	8247	539437	0	0
2024-10-19 16:56:47			0	38663	0	0	0	21568	20130	159980	26850	1058156	46385	107919	0	0	8247	539234	0	0
2024-10-19 16:57:47			0	38638	0	0	0	21566	20140	160156	27111	1058165	46397	107918	0	0	8246	540176	0	0
2024-10-19 16:58:47			0	38642	0	0	0	21561	20130	160096	27197	1058156	46385	107916	0	0	8246	540051	0	0
2024-10-19 16:59:47			0	38641	0	0	0	21566	20130	160148	26876	1058147	46375	107918	0	0	8246	540090	0	0
2024-10-19 17:00:47			0	38653	0	0	0	21571	20140	160208	27376	1058192	46386	107920	0	0	8246	539593	0	0
2024-10-19 17:01:47			0	38653	0	0	0	21568	20130	160096	27391	1058121	46385	107919	0	0	8246	539623	0	0
2024-10-19 17:02:47			0	38657	0	0	0	21566	20130	160040	27254	1058147	46385	107918	0	0	8247	539467	0	0
2024-10-19 17:03:47			0	38668	0	0	0	21561	20130	160144	27020	1058130	46396	107916	0	0	8247	539039	0	0
2024-10-19 17:04:47			0	38650	0	0	0	21563	20130	160180	27083	1058130	46407	107917	0	0	8246	539739	0	0
2024-10-19 17:05:47			0	38638	0	0	0	21571	20140	160084	27258	1058219	46386	107920	0	0	8246	540176	0	0
2024-10-19 17:06:47			0	38627	0	0	0	21563	20130	160164	27197	1058130	46396	107917	0	0	8245	540635	0	0
2024-10-19 17:07:47			0	38646	0	0	0	21571	20130	160108	27074	1058174	46396	107920	0	0	8246	539895	0	0
2024-10-19 17:08:47			0	38661	0	0	0	21558	20130	160048	26965	1058121	46385	107915	0	0	8247	539311	0	0
2024-10-19 17:09:47			0	38666	0	0	0	21555	20120	160004	26975	1058139	46396	107914	0	0	8247	539147	0	0
2024-10-19 17:10:47			0	38668	0	0	0	21540	20130	160012	27159	1058183	46396	107908	0	0	8248	539039	0	0
2024-10-19 17:11:47			0	38690	0	0	0	21540	20120	159956	27351	1058112	46385	107908	0	0	8249	538214	0	0
2024-10-19 17:12:47			0	38690	0	0	0	21542	20130	159832	26852	1058068	46396	107909	0	0	8249	538184	0	0
2024-10-19 17:13:47			0	38700	0	0	0	21545	20120	159784	27234	1058076	46395	107910	0	0	8250	537826	0	0
2024-10-19 17:14:47			0	38692	0	0	0	21553	20120	159992	27057	1058085	46375	107913	0	0	8249	538136	0	0
2024-10-19 17:15:47			0	38700	0	0	0	21548	20110	159952	27440	1058041	46394	107911	0	0	8249	537855	0	0
2024-10-19 17:16:47			0	38686	0	0	0	21558	20120	160008	26798	1058076	46384	107915	0	0	8249	538369	0	0
2024-10-19 17:17:47			0	38686	0	0	0	21555	20110	159972	27332	1058067	46394	107914	0	0	8249	538399	0	0
2024-10-19 17:18:47			0	38670	0	0	0	21553	20110	160068	27147	1058032	46373	107913	0	0	8248	539021	0	0
2024-10-19 17:19:47			0	38671	0	0	0	21558	20110	160064	27182	1058121	46394	107915	0	0	8248	538982	0	0
2024-10-19 17:20:47			0	38659	0	0	0	21555	20110	160024	27286	1058094	46394	107914	0	0	8247	539449	0	0
2024-10-19 17:21:47			0	38650	0	0	0	21553	20120	160048	27232	1058103	46395	107913	0	0	8247	539769	0	0
2024-10-19 17:22:47			0	38665	0	0	0	21550	20120	160076	27043	1058076	46406	107912	0	0	8247	539186	0	0
2024-10-19 17:23:47			0	38659	0	0	0	21545	20110	160128	27431	1058094	46383	107910	0	0	8247	539449	0	0
2024-10-19 17:24:47			0	38638	0	0	0	21537	20110	160112	27092	1058067	46383	107907	0	0	8246	540266	0	0
2024-10-19 17:25:47			0	38642	0	0	0	21548	20120	160108	27242	1058076	46384	107911	0	0	8246	540080	0	0
2024-10-19 17:26:47			0	38645	0	0	0	21542	20120	160068	27180	1058165	46385	107909	0	0	8246	539964	0	0
2024-10-19 17:27:47			0	38651	0	0	0	21553	20120	160256	27222	1058076	46395	107913	0	0	8247	539730	0	0
2024-10-19 17:28:47			0	38639	0	0	0	21550	20110	160196	27100	1058094	46394	107912	0	0	8246	540227	0	0
2024-10-19 17:29:47			0	38640	0	0	0	21550	20110	160188	27161	1058121	46394	107912	0	0	8246	540188	0	0
2024-10-19 17:30:47			0	38630	0	0	0	21548	20110	160204	27015	1058067	46383	107911	0	0	8245	540577	0	0
2024-10-19 17:31:47			0	38625	0	0	0	21548	20120	160124	27312	1058130	46384	107911	0	0	8245	540742	0	0
2024-10-19 17:32:47			0	38636	0	0	0	21542	20120	160180	26956	1058130	46384	107909	0	0	8246	540314	0	0
2024-10-19 17:33:47			0	38616	0	0	0	21545	20120	160128	27338	1058130	46384	107910	0	0	8245	541093	0	0
2024-10-19 17:34:47			0	38615	0	0	0	21545	20120	160096	26916	1058103	46384	107910	0	0	8245	541132	0	0
2024-10-19 17:35:47			0	38615	0	0	0	21540	20110	160204	27438	1058085	46383	107908	0	0	8245	541162	0	0
2024-10-19 17:36:47			0	38625	0	0	0	21535	20110	160232	27039	1058094	46394	107906	0	0	8245	540772	0	0
2024-10-19 17:37:47			0	38612	0	0	0	21540	20110	160204	27095	1058058	46383	107908	0	0	8244	541279	0	0
2024-10-19 17:38:47			0	38604	0	0	0	21537	20110	160164	27142	1058085	46383	107907	0	0	8244	541591	0	0
2024-10-19 17:39:47			0	38608	0	0	0	21537	20100	160220	27052	1058014	46382	107907	0	0	8244	541464	0	0
2024-10-19 17:40:47			0	38610	0	0	0	21537	20100	160200	27088	1058049	46372	107907	0	0	8244	541386	0	0
2024-10-19 17:41:47			0	38613	0	0	0	21537	20100	160200	27059	1058049	46372	107907	0	0	8245	541270	0	0
2024-10-19 17:42:47			0	38612	0	0	0	21537	20100	160184	27012	1058049	46382	107907	0	0	8244	541309	0	0
2024-10-19 17:43:47			0	38606	0	0	0	21532	20100	160196	27111	1058041	46382	107905	0	0	8244	541543	0	0
2024-10-19 17:44:47			0	38606	0	0	0	21532	20090	160220	27177	1057996	46403	107905	0	0	8244	541572	0	0
2024-10-19 17:45:47			0	38604	0	0	0	21532	20110	160252	27081	1058058	46406	107905	0	0	8244	541591	0	0
2024-10-19 17:46:47			0	38597	0	0	0	21532	20090	160336	27116	1058005	46381	107905	0	0	8244	541923	0	0
2024-10-19 17:47:47			0	38608	0	0	0	21529	20090	160332	27145	1058032	46403	107904	0	0	8244	541494	0	0
2024-10-19 17:48:47			0	38602	0	0	0	21535	20090	160316	27128	1057978	46392	107906	0	0	8244	541728	0	0
2024-10-19 17:49:47			0	38585	0	0	0	21529	20090	160352	27443	1057996	46381	107904	0	0	8243	542392	0	0
2024-10-19 17:50:47			0	38594	0	0	0	21522	20090	160356	27220	1058022	46381	107901	0	0	8244	542040	0	0
2024-10-19 17:51:47			0	38576	0	0	0	21519	20100	160416	27239	1057987	46382	107900	0	0	8243	542713	0	0
2024-10-19 17:52:47			0	38577	0	0	0	21522	20090	160332	27261	1057996	46392	107901	0	0	8243	542704	0	0
2024-10-19 17:53:47			0	38595	0	0	0	21527	20090	160356	27083	1058005	46381	107903	0	0	8244	542001	0	0
2024-10-19 17:54:47			0	38586	0	0	0	21522	20080	160392	27052	1057960	46380	107901	0	0	8243	542382	0	0
2024-10-19 17:55:47			0	38564	0	0	0	21535	20090	160480	27142	1057996	46392	107906	0	0	8242	543211	0	0
2024-10-19 17:56:47			0	38573	0	0	0	21524	20090	160372	26878	1057996	46392	107902	0	0	8242	542860	0	0
2024-10-19 17:57:47			0	38563	0	0	0	21529	20080	160356	26993	1058031	46380	107904	0	0	8242	543280	0	0
2024-10-19 17:58:47			0	38554	0	0	0	21524	20090	160396	27118	1057996	46381	107902	0	0	8241	543602	0	0
2024-10-19 17:59:47			0	38575	0	0	0	21522	20090	160480	26882	1057996	46392	107901	0	0	8243	542782	0	0
2024-10-19 18:00:47			0	38555	0	0	0	21527	20090	160512	26700	1057996	46392	107903	0	0	8241	543563	0	0
2024-10-19 18:01:47			0	38556	0	0	0	21519	20090	160336	27064	1057996	46381	107900	0	0	8241	543524	0	0
2024-10-19 18:02:47			0	38564	0	0	0	21522	20090	160532	26771	1058032	46381	107901	0	0	8242	543211	0	0
2024-10-19 18:03:47			0	38563	0	0	0	21516	20080	160556	26769	1057987	46402	107899	0	0	8242	543280	0	0
2024-10-19 18:04:47			0	38549	0	0	0	21516	20080	160436	27159	1057978	46391	107899	0	0	8241	543828	0	0
2024-10-19 18:05:47			0	38567	0	0	0	21514	20080	160472	27034	1057987	46380	107898	0	0	8242	543124	0	0
2024-10-19 18:06:47			0	38553	0	0	0	21519	20090	160452	26809	1057942	46381	107900	0	0	8241	543641	0	0
2024-10-19 18:07:47			0	38542	0	0	0	21511	20090	160424	27098	1057942	46403	107897	0	0	8241	544071	0	0
2024-10-19 18:08:47			0	38549	0	0	0	21514	20090	160488	26956	1057925	46381	107898	0	0	8241	543798	0	0
2024-10-19 18:09:47			0	38558	0	0	0	21503	20080	160464	27315	1057951	46380	107894	0	0	8242	543476	0	0
2024-10-19 18:10:47			0	38531	0	0	0	21511	20070	160492	26901	1057942	46390	107897	0	0	8240	544561	0	0
2024-10-19 18:11:47			0	38559	0	0	0	21506	20080	160432	27109	1057898	46370	107895	0	0	8242	543437	0	0
2024-10-19 18:12:47			0	38530	0	0	0	21501	20080	160548	27024	1057934	46391	107893	0	0	8240	544571	0	0
2024-10-19 18:13:47			0	38546	0	0	0	21511	20070	160596	27157	1057942	46369	107897	0	0	8241	543975	0	0
2024-10-19 18:14:47			0	38533	0	0	0	21511	20080	160580	27050	1057925	46391	107897	0	0	8240	544453	0	0
2024-10-19 18:15:47			0	38518	0	0	0	21511	20080	160684	27100	1057951	46391	107897	0	0	8239	545040	0	0
2024-10-19 18:16:47			0	38528	0	0	0	21522	20080	160540	27046	1057951	46380	107901	0	0	8240	544649	0	0
2024-10-19 18:17:47			0	38522	0	0	0	21522	20080	160644	27133	1057898	46380	107901	0	0	8239	544884	0	0
2024-10-19 18:18:47			0	38524	0	0	0	21519	20080	160660	27197	1057978	46391	107900	0	0	8240	544805	0	0
2024-10-19 18:19:47			0	38505	0	0	0	21514	20080	160632	27159	1057925	46391	107898	0	0	8239	545549	0	0
2024-10-19 18:20:47			0	38521	0	0	0	21516	20080	160624	27135	1057987	46402	107899	0	0	8239	544923	0	0
2024-10-19 18:21:47			0	38521	0	0	0	21519	20080	160684	27071	1057925	46391	107900	0	0	8239	544923	0	0
2024-10-19 18:22:47			0	38514	0	0	0	21503	20080	160660	26951	1057951	46391	107894	0	0	8239	545197	0	0
2024-10-19 18:23:47			0	38526	0	0	0	21506	20070	160644	27022	1057960	46379	107895	0	0	8240	544757	0	0
2024-10-19 18:24:47			0	38517	0	0	0	21514	20070	160568	26928	1057880	46379	107898	0	0	8239	545109	0	0
2024-10-19 18:25:47			0	38530	0	0	0	21524	20070	160632	27026	1057880	46390	107902	0	0	8240	544601	0	0
2024-10-19 18:26:47			0	38526	0	0	0	21519	20080	160588	27012	1057880	46391	107900	0	0	8240	544727	0	0
2024-10-19 18:27:47			0	38529	0	0	0	21514	20070	160712	27111	1057969	46390	107898	0	0	8240	544640	0	0
2024-10-19 18:28:47			0	38518	0	0	0	21519	20070	160636	27180	1057916	46390	107900	0	0	8239	545070	0	0
2024-10-19 18:29:47			0	38518	0	0	0	21511	20070	160660	27209	1057916	46390	107897	0	0	8239	545070	0	0
2024-10-19 18:30:47			0	38513	0	0	0	21524	20070	160624	27223	1057942	46390	107902	0	0	8239	545266	0	0
2024-10-19 18:31:47			0	38513	0	0	0	21522	20070	160676	26719	1057916	46390	107901	0	0	8239	545266	0	0
2024-10-19 18:32:47			0	38520	0	0	0	21511	20070	160620	27220	1057907	46390	107897	0	0	8239	544992	0	0
2024-10-19 18:33:47			0	38520	0	0	0	21516	20080	160780	27230	1057951	46380	107899	0	0	8239	544962	0	0
2024-10-19 18:34:47			0	38503	0	0	0	21516	20080	160640	27208	1057987	46391	107899	0	0	8238	545628	0	0
2024-10-19 18:35:47			0	38509	0	0	0	21519	20070	160624	26899	1057916	46390	107900	0	0	8239	545423	0	0
2024-10-19 18:36:47			0	38510	0	0	0	21519	20070	160716	27124	1057969	46379	107900	0	0	8239	545383	0	0
2024-10-19 18:37:47			0	38491	0	0	0	21514	20070	160780	27071	1057916	46390	107898	0	0	8238	546128	0	0
2024-10-19 18:38:47			0	38500	0	0	0	21522	20060	160760	27521	1057951	46368	107901	0	0	8238	545805	0	0
2024-10-19 18:39:47			0	38509	0	0	0	21514	20080	160864	27066	1057951	46370	107898	0	0	8239	545393	0	0
2024-10-19 18:40:47			0	38505	0	0	0	21522	20070	160736	27064	1057933	46390	107901	0	0	8238	545579	0	0
2024-10-19 18:41:47			0	38477	0	0	0	21516	20070	160832	26788	1057862	46379	107899	0	0	8237	546677	0	0
2024-10-19 18:42:47			0	38496	0	0	0	21516	20080	160872	27007	1057925	46380	107899	0	0	8238	545902	0	0
2024-10-19 18:43:47			0	38483	0	0	0	21511	20070	160768	27301	1057916	46390	107897	0	0	8237	546441	0	0
2024-10-19 18:44:47			0	38470	0	0	0	21516	20070	160908	27274	1057889	46379	107899	0	0	8236	546951	0	0
2024-10-19 18:45:47			0	38478	0	0	0	21511	20070	160904	26960	1057889	46379	107897	0	0	8237	546637	0	0
2024-10-19 18:46:47			0	38469	0	0	0	21516	20070	160876	27215	1057942	46379	107899	0	0	8236	546990	0	0
2024-10-19 18:47:47			0	38479	0	0	0	21524	20070	160808	27237	1057942	46379	107902	0	0	8237	546598	0	0
2024-10-19 18:48:47			0	38460	0	0	0	21514	20070	160764	26785	1057916	46390	107898	0	0	8236	547344	0	0
2024-10-19 18:49:47			0	38476	0	0	0	21519	20070	160896	27019	1057969	46369	107900	0	0	8237	546716	0	0
2024-10-19 18:50:47			0	38475	0	0	0	21516	20080	160864	27097	1057960	46380	107899	0	0	8237	546725	0	0
2024-10-19 18:51:47			0	38456	0	0	0	21509	20070	160768	27111	1057916	46390	107896	0	0	8236	547500	0	0
2024-10-19 18:52:47			0	38456	0	0	0	21514	20080	160796	26970	1057951	46380	107898	0	0	8236	547470	0	0
2024-10-19 18:53:47			0	38459	0	0	0	21511	20070	160832	26928	1057942	46379	107897	0	0	8236	547383	0	0
2024-10-19 18:54:47			0	38453	0	0	0	21514	20080	160912	26890	1057951	46380	107898	0	0	8236	547588	0	0
2024-10-19 18:55:47			0	38448	0	0	0	21516	20080	160896	27206	1057978	46380	107899	0	0	8235	547784	0	0
2024-10-19 18:56:47			0	38463	0	0	0	21519	20070	161020	27130	1057933	46379	107900	0	0	8236	547226	0	0
2024-10-19 18:57:47			0	38463	0	0	0	21511	20070	160904	27140	1057916	46390	107897	0	0	8236	547226	0	0
2024-10-19 18:58:47			0	38451	0	0	0	21506	20080	160928	27199	1057925	46391	107895	0	0	8236	547667	0	0
2024-10-19 18:59:47			0	38450	0	0	0	21509	20070	160900	27300	1057916	46379	107896	0	0	8235	547736	0	0
2024-10-19 19:00:47			0	38465	0	0	0	21503	20070	160812	27235	1057969	46379	107894	0	0	8236	547147	0	0
2024-10-19 19:01:47			0	38440	0	0	0	21509	20070	160996	27039	1057933	46390	107896	0	0	8235	548129	0	0
2024-10-19 19:02:47			0	38435	0	0	0	21509	20070	160900	27218	1057853	46401	107896	0	0	8235	548325	0	0
2024-10-19 19:03:47			0	38435	0	0	0	21506	20080	160924	27145	1057925	46402	107895	0	0	8235	548295	0	0
2024-10-19 19:04:47			0	38420	0	0	0	21503	20060	160916	27173	1057898	46389	107894	0	0	8234	548945	0	0
2024-10-19 19:05:47			0	38446	0	0	0	21509	20070	160916	27197	1057880	46390	107896	0	0	8235	547893	0	0
2024-10-19 19:06:47			0	38426	0	0	0	21503	20070	160908	27178	1057889	46401	107894	0	0	8234	548679	0	0
2024-10-19 19:07:47			0	38426	0	0	0	21509	20080	160928	27241	1057871	46380	107896	0	0	8234	548649	0	0
2024-10-19 19:08:47			0	38445	0	0	0	21509	20070	160892	27098	1057916	46379	107896	0	0	8235	547932	0	0
2024-10-19 19:09:47			0	38446	0	0	0	21503	20070	160852	27149	1057933	46390	107894	0	0	8235	547893	0	0
2024-10-19 19:10:47			0	38442	0	0	0	21506	20070	160936	26972	1057889	46379	107895	0	0	8235	548050	0	0
2024-10-19 19:11:47			0	38442	0	0	0	21506	20080	160956	27100	1057951	46380	107895	0	0	8235	548020	0	0
2024-10-19 19:12:47			0	38444	0	0	0	21501	20080	160840	26939	1057898	46380	107893	0	0	8235	547941	0	0
2024-10-19 19:13:47			0	38467	0	0	0	21501	20060	160784	27300	1057951	46400	107893	0	0	8236	547099	0	0
2024-10-19 19:14:47			0	38441	0	0	0	21493	20060	160812	27097	1057845	46378	107890	0	0	8235	548120	0	0
2024-10-19 19:15:47			0	38453	0	0	0	21493	20070	160872	26982	1057827	46390	107890	0	0	8236	547618	0	0
2024-10-19 19:16:47			0	38436	0	0	0	21498	20060	160820	27343	1057871	46389	107892	0	0	8235	548316	0	0
2024-10-19 19:17:47			0	38437	0	0	0	21501	20060	160780	27237	1057898	46368	107893	0	0	8235	548277	0	0
2024-10-19 19:18:47			0	38461	0	0	0	21498	20070	160876	27325	1057960	46390	107892	0	0	8236	547304	0	0
2024-10-19 19:19:47			0	38454	0	0	0	21506	20070	160784	27300	1057880	46390	107895	0	0	8236	547579	0	0
2024-10-19 19:20:47			0	38459	0	0	0	21509	20060	160924	27301	1057889	46377	107896	0	0	8236	547413	0	0
2024-10-19 19:21:47			0	38454	0	0	0	21503	20070	160788	27457	1057853	46369	107894	0	0	8236	547579	0	0
2024-10-19 19:22:47			0	38451	0	0	0	21501	20060	160900	27078	1057898	46400	107893	0	0	8236	547727	0	0
2024-10-19 19:23:47			0	38453	0	0	0	21506	20060	160968	27474	1057898	46400	107895	0	0	8236	547648	0	0
2024-10-19 19:24:47			0	38421	0	0	0	21498	20060	160900	27055	1057942	46388	107892	0	0	8234	548906	0	0
2024-10-19 19:25:47			0	38429	0	0	0	21503	20060	160956	27076	1057924	46389	107894	0	0	8234	548591	0	0
2024-10-19 19:26:47			0	38430	0	0	0	21506	20060	160964	27341	1057871	46412	107895	0	0	8234	548552	0	0
2024-10-19 19:27:47			0	38435	0	0	0	21511	20070	161032	27248	1057960	46390	107897	0	0	8234	548325	0	0
2024-10-19 19:28:47			0	38437	0	0	0	21506	20070	161064	27230	1057907	46390	107895	0	0	8235	548247	0	0
2024-10-19 19:29:47			0	38426	0	0	0	21501	20060	160928	27232	1057845	46389	107893	0	0	8234	548709	0	0
2024-10-19 19:30:47			0	38415	0	0	0	21511	20070	160956	27258	1057933	46379	107897	0	0	8233	549111	0	0
2024-10-19 19:31:47			0	38438	0	0	0	21509	20060	160892	27346	1057862	46388	107896	0	0	8235	548238	0	0
2024-10-19 19:32:47			0	38442	0	0	0	21506	20070	160980	27208	1057889	46379	107895	0	0	8235	548050	0	0
2024-10-19 19:33:47			0	38431	0	0	0	21498	20060	161040	27230	1057942	46377	107892	0	0	8234	548513	0	0
2024-10-19 19:34:47			0	38398	0	0	0	21503	20060	161144	27182	1057889	46377	107894	0	0	8232	549810	0	0
2024-10-19 19:35:47			0	38406	0	0	0	21498	20070	161040	27298	1057907	46390	107892	0	0	8233	549465	0	0
2024-10-19 19:36:47			0	38399	0	0	0	21496	20060	161104	27317	1057951	46378	107891	0	0	8233	549771	0	0
2024-10-19 19:37:47			0	38377	0	0	0	21493	20060	161128	27322	1057871	46400	107890	0	0	8231	550637	0	0
2024-10-19 19:38:47			0	38385	0	0	0	21496	20070	161152	27140	1057862	46390	107891	0	0	8232	550292	0	0
2024-10-19 19:39:47			0	38382	0	0	0	21496	20050	161100	27133	1057853	46367	107891	0	0	8232	550471	0	0
2024-10-19 19:40:47			0	38384	0	0	0	21496	20060	161164	27078	1057889	46377	107891	0	0	8232	550362	0	0
2024-10-19 19:41:47			0	38382	0	0	0	21493	20060	161148	27455	1057889	46377	107890	0	0	8232	550440	0	0
2024-10-19 19:42:47			0	38367	0	0	0	21490	20050	161100	27057	1057906	46388	107889	0	0	8231	551061	0	0
2024-10-19 19:43:47			0	38383	0	0	0	21485	20060	161108	27284	1057862	46377	107887	0	0	8232	550401	0	0
2024-10-19 19:44:47			0	38377	0	0	0	21483	20050	161228	27448	1057880	46388	107886	0	0	8231	550668	0	0
2024-10-19 19:45:47			0	38389	0	0	0	21490	20060	161076	27402	1057836	46388	107889	0	0	8232	550165	0	0
2024-10-19 19:46:47			0	38386	0	0	0	21488	20060	161188	27138	1057862	46367	107888	0	0	8232	550283	0	0
2024-10-19 19:47:47			0	38375	0	0	0	21483	20050	161224	27289	1057853	46388	107886	0	0	8231	550746	0	0
2024-10-19 19:48:47			0	38383	0	0	0	21496	20050	161316	27185	1057818	46387	107891	0	0	8232	550431	0	0
2024-10-19 19:49:47			0	38377	0	0	0	21485	20060	161244	27072	1057862	46367	107887	0	0	8231	550637	0	0
2024-10-19 19:50:47			0	38390	0	0	0	21467	20050	161136	27109	1057791	46376	107880	0	0	8232	550156	0	0
2024-10-19 19:51:47			0	38368	0	0	0	21472	20050	161208	27057	1057827	46388	107882	0	0	8231	551022	0	0
2024-10-19 19:52:47			0	38388	0	0	0	21462	20060	161164	27441	1057809	46367	107878	0	0	8233	550204	0	0
2024-10-19 19:53:47			0	38364	0	0	0	21464	20050	161288	27320	1057827	46377	107879	0	0	8231	551180	0	0
2024-10-19 19:54:47			0	38355	0	0	0	21472	20050	161288	26982	1057827	46377	107882	0	0	8230	551535	0	0
2024-10-19 19:55:47			0	38372	0	0	0	21472	20040	161272	27175	1057809	46376	107882	0	0	8231	550895	0	0
2024-10-19 19:56:47			0	38381	0	0	0	21467	20050	161296	27265	1057738	46387	107880	0	0	8232	550510	0	0
2024-10-19 19:57:47			0	38379	0	0	0	21470	20040	161160	27213	1057809	46376	107881	0	0	8232	550619	0	0
2024-10-19 19:58:47			0	38383	0	0	0	21477	20050	161272	26975	1057791	46366	107884	0	0	8232	550431	0	0
2024-10-19 19:59:47			0	38380	0	0	0	21485	20040	161220	27258	1057755	46376	107887	0	0	8232	550580	0	0
2024-10-19 20:00:47			0	38379	0	0	0	21472	20050	161200	26991	1057844	46376	107882	0	0	8232	550589	0	0
2024-10-19 20:01:47			0	38368	0	0	0	21477	20040	161184	27145	1057809	46387	107884	0	0	8231	551053	0	0
2024-10-19 20:02:47			0	38361	0	0	0	21467	20050	161144	27256	1057818	46376	107880	0	0	8231	551298	0	0
2024-10-19 20:03:47			0	38363	0	0	0	21464	20040	161224	26909	1057755	46376	107879	0	0	8231	551250	0	0
2024-10-19 20:04:47			0	38361	0	0	0	21459	20050	161172	27331	1057791	46387	107877	0	0	8231	551298	0	0
2024-10-19 20:05:47			0	38363	0	0	0	21462	20040	161260	27064	1057809	46376	107878	0	0	8231	551250	0	0
2024-10-19 20:06:47			0	38376	0	0	0	21467	20040	161272	26909	1057773	46386	107880	0	0	8232	550737	0	0
2024-10-19 20:07:47			0	38377	0	0	0	21464	20040	161256	27228	1057826	46386	107879	0	0	8232	550698	0	0
2024-10-19 20:08:47			0	38365	0	0	0	21457	20030	161236	27440	1057764	46375	107876	0	0	8231	551201	0	0
2024-10-19 20:09:47			0	38370	0	0	0	21454	20040	161224	27213	1057693	46386	107875	0	0	8231	550974	0	0
2024-10-19 20:10:47			0	38349	0	0	0	21467	20030	161248	27301	1057729	46385	107880	0	0	8230	551832	0	0
2024-10-19 20:11:47			0	38351	0	0	0	21462	20030	161396	27384	1057764	46386	107878	0	0	8230	551753	0	0
2024-10-19 20:12:47			0	38364	0	0	0	21467	20040	161300	27029	1057773	46397	107880	0	0	8231	551210	0	0
2024-10-19 20:13:47			0	38370	0	0	0	21457	20030	161408	27107	1057764	46375	107876	0	0	8231	551004	0	0
2024-10-19 20:14:47			0	38375	0	0	0	21446	20030	161304	27326	1057791	46375	107872	0	0	8232	550807	0	0
2024-10-19 20:15:47			0	38368	0	0	0	21457	20040	161304	27024	1057720	46365	107876	0	0	8231	551053	0	0
2024-10-19 20:16:47			0	38379	0	0	0	21457	20030	161300	27199	1057764	46375	107876	0	0	8232	550649	0	0
2024-10-19 20:17:47			0	38374	0	0	0	21454	20020	161284	27635	1057666	46385	107875	0	0	8232	550877	0	0
2024-10-19 20:18:47			0	38375	0	0	0	21457	20030	161320	27350	1057702	46385	107876	0	0	8232	550807	0	0
2024-10-19 20:19:47			0	38375	0	0	0	21451	20020	161252	27104	1057746	46375	107874	0	0	8232	550837	0	0
2024-10-19 20:20:47			0	38397	0	0	0	21457	20020	161200	26981	1057720	46396	107876	0	0	8233	549971	0	0
2024-10-19 20:21:47			0	38385	0	0	0	21459	20020	161260	27005	1057711	46384	107877	0	0	8232	550444	0	0
2024-10-19 20:22:47			0	38388	0	0	0	21459	20030	161312	27171	1057738	46375	107877	0	0	8232	550295	0	0
2024-10-19 20:23:47			0	38379	0	0	0	21457	20020	161308	27206	1057764	46374	107876	0	0	8232	550680	0	0
2024-10-19 20:24:47			0	38387	0	0	0	21454	20020	161324	27225	1057737	46374	107875	0	0	8232	550365	0	0
2024-10-19 20:25:47			0	38384	0	0	0	21459	20030	161264	27379	1057702	46364	107877	0	0	8232	550453	0	0
2024-10-19 20:26:47			0	38402	0	0	0	21459	20020	161208	27055	1057658	46384	107877	0	0	8233	549774	0	0
2024-10-19 20:27:47			0	38396	0	0	0	21457	20020	161232	27367	1057773	46375	107876	0	0	8233	550010	0	0
2024-10-19 20:28:47			0	38398	0	0	0	21451	20030	161208	27282	1057738	46386	107874	0	0	8233	549901	0	0
2024-10-19 20:29:47			0	38397	0	0	0	21449	20010	161244	27239	1057622	46374	107873	0	0	8233	550001	0	0
2024-10-19 20:30:47			0	38389	0	0	0	21446	20020	161224	27036	1057693	46385	107872	0	0	8233	550286	0	0
2024-10-19 20:31:47			0	38392	0	0	0	21449	20010	161216	27246	1057640	46383	107873	0	0	8233	550198	0	0
2024-10-19 20:32:47			0	38389	0	0	0	21444	20020	161232	27443	1057711	46374	107871	0	0	8233	550286	0	0
2024-10-19 20:33:47			0	38403	0	0	0	21438	20020	161256	27055	1057737	46374	107869	0	0	8234	549735	0	0
2024-10-19 20:34:47			0	38377	0	0	0	21451	20010	161260	27218	1057675	46384	107874	0	0	8232	550789	0	0
2024-10-19 20:35:47			0	38379	0	0	0	21449	20020	161296	27133	1057693	46375	107873	0	0	8232	550680	0	0
2024-10-19 20:36:47			0	38380	0	0	0	21449	20010	161284	27078	1057675	46363	107873	0	0	8232	550671	0	0
2024-10-19 20:37:47			0	38383	0	0	0	21441	20020	161260	27438	1057658	46374	107870	0	0	8232	550522	0	0
2024-10-19 20:38:47			0	38388	0	0	0	21444	20010	161336	27538	1057622	46384	107871	0	0	8233	550356	0	0
2024-10-19 20:39:47			0	38394	0	0	0	21436	20010	161240	27081	1057595	46374	107868	0	0	8233	550119	0	0
2024-10-19 20:40:47			0	38381	0	0	0	21438	20020	161332	27232	1057631	46374	107869	0	0	8232	550601	0	0
2024-10-19 20:41:47			0	38388	0	0	0	21438	20010	161212	27234	1057649	46384	107869	0	0	8233	550356	0	0
2024-10-19 20:42:47			0	38399	0	0	0	21436	20020	161296	27137	1057604	46384	107868	0	0	8233	549892	0	0
2024-10-19 20:43:47			0	38387	0	0	0	21438	20000	161256	27041	1057657	46394	107869	0	0	8233	550425	0	0
2024-10-19 20:44:47			0	38390	0	0	0	21438	20010	161288	27097	1057640	46383	107869	0	0	8233	550277	0	0
2024-10-19 20:45:47			0	38375	0	0	0	21425	20000	161248	27081	1057631	46373	107864	0	0	8232	550898	0	0
2024-10-19 20:46:47			0	38407	0	0	0	21438	20000	161272	27078	1057622	46382	107869	0	0	8234	549638	0	0
2024-10-19 20:47:47			0	38395	0	0	0	21431	20010	161248	27242	1057595	46395	107866	0	0	8233	550080	0	0
2024-10-19 20:48:47			0	38389	0	0	0	21433	20000	161320	27390	1057578	46373	107867	0	0	8233	550347	0	0
2024-10-19 20:49:47			0	38382	0	0	0	21431	20010	161256	27249	1057675	46374	107866	0	0	8232	550592	0	0
2024-10-19 20:50:47			0	38383	0	0	0	21436	20000	161244	27485	1057631	46373	107868	0	0	8232	550583	0	0
2024-10-19 20:51:47			0	38386	0	0	0	21431	20010	161288	26894	1057666	46383	107866	0	0	8233	550434	0	0
2024-10-19 20:52:47			0	38375	0	0	0	21423	20000	161252	27154	1057622	46382	107863	0	0	8232	550898	0	0
2024-10-19 20:53:47			0	38375	0	0	0	21436	20000	161276	27163	1057631	46394	107868	0	0	8232	550898	0	0
2024-10-19 20:54:47			0	38391	0	0	0	21431	20000	161244	27218	1057595	46393	107866	0	0	8233	550268	0	0
2024-10-19 20:55:47			0	38359	0	0	0	21433	20000	161320	27267	1057684	46383	107867	0	0	8231	551529	0	0
2024-10-19 20:56:47			0	38367	0	0	0	21441	19990	161332	27190	1057613	46381	107870	0	0	8231	551244	0	0
2024-10-19 20:57:47			0	38375	0	0	0	21441	20010	161252	27085	1057613	46394	107870	0	0	8232	550868	0	0
2024-10-19 20:58:47			0	38378	0	0	0	21441	20010	161296	27450	1057640	46373	107870	0	0	8232	550750	0	0
2024-10-19 20:59:47			0	38365	0	0	0	21436	20000	161360	27204	1057648	46382	107868	0	0	8231	551292	0	0
2024-10-19 21:00:47			0	38354	0	0	0	21425	20010	161380	27303	1057640	46383	107864	0	0	8231	551696	0	0
2024-10-19 21:01:47			0	38348	0	0	0	21428	19990	161412	27530	1057613	46371	107865	0	0	8230	551993	0	0
2024-10-19 21:02:47			0	38343	0	0	0	21425	20000	161356	27492	1057595	46382	107864	0	0	8230	552160	0	0
2024-10-19 21:03:47			0	38330	0	0	0	21425	20000	161420	27371	1057604	46383	107864	0	0	8229	552673	0	0
2024-10-19 21:04:47			0	38329	0	0	0	21431	20000	161464	27542	1057684	46373	107866	0	0	8229	552713	0	0
2024-10-19 21:05:47			0	38336	0	0	0	21438	20000	161484	27438	1057684	46373	107869	0	0	8230	552436	0	0
2024-10-19 21:06:47			0	38317	0	0	0	21436	20010	161496	27471	1057613	46373	107868	0	0	8229	553156	0	0
2024-10-19 21:07:47			0	38309	0	0	0	21428	19990	161580	27450	1057560	46403	107865	0	0	8228	553533	0	0
2024-10-19 21:08:47			0	38344	0	0	0	21425	20000	161540	27341	1057595	46382	107864	0	0	8230	552121	0	0
2024-10-19 21:09:47			0	38321	0	0	0	21436	20000	161560	27033	1057595	46382	107868	0	0	8229	553029	0	0
2024-10-19 21:10:47			0	38325	0	0	0	21433	20000	161516	27381	1057648	46372	107867	0	0	8229	552871	0	0
2024-10-19 21:11:47			0	38309	0	0	0	21433	20000	161632	27045	1057569	46382	107867	0	0	8228	553503	0	0
2024-10-19 21:12:47			0	38300	0	0	0	21420	20000	161624	27144	1057595	46382	107862	0	0	8228	553859	0	0
2024-10-19 21:13:47			0	38309	0	0	0	21425	19990	161616	27112	1057639	46360	107864	0	0	8228	553533	0	0
2024-10-19 21:14:47			0	38307	0	0	0	21428	20000	161660	27144	1057569	46382	107865	0	0	8228	553582	0	0
2024-10-19 21:15:47			0	38294	0	0	0	21431	20000	161672	27033	1057569	46372	107866	0	0	8227	554096	0	0
2024-10-19 21:16:47			0	38289	0	0	0	21433	20000	161716	26892	1057631	46383	107867	0	0	8227	554294	0	0
2024-10-19 21:17:47			0	38319	0	0	0	21425	20000	161596	27241	1057622	46372	107864	0	0	8229	553108	0	0
2024-10-19 21:18:47			0	38286	0	0	0	21418	20000	161604	27275	1057569	46382	107861	0	0	8227	554412	0	0
2024-10-19 21:19:47			0	38277	0	0	0	21418	19980	161592	26963	1057595	46371	107861	0	0	8226	554830	0	0
2024-10-19 21:20:47			0	38270	0	0	0	21412	19990	161632	27128	1057560	46371	107859	0	0	8226	555076	0	0
2024-10-19 21:21:47			0	38293	0	0	0	21410	19990	161640	27220	1057560	46371	107858	0	0	8228	554166	0	0
2024-10-19 21:22:47			0	38271	0	0	0	21415	19990	161724	26974	1057497	46371	107860	0	0	8226	555037	0	0
2024-10-19 21:23:47			0	38269	0	0	0	21399	19990	161620	27358	1057551	46371	107854	0	0	8226	555116	0	0
2024-10-19 21:24:47			0	38261	0	0	0	21397	19980	161796	27225	1057462	46360	107853	0	0	8226	555463	0	0
2024-10-19 21:25:47			0	38245	0	0	0	21397	19990	161884	27317	1057533	46360	107853	0	0	8225	556067	0	0
2024-10-19 21:26:47			0	38240	0	0	0	21394	19980	161856	26961	1057480	46359	107852	0	0	8225	556295	0	0
2024-10-19 21:27:47			0	38227	0	0	0	21389	19980	161924	27059	1057506	46380	107850	0	0	8224	556811	0	0
2024-10-19 21:28:47			0	38233	0	0	0	21389	19970	161920	27156	1057417	46358	107850	0	0	8224	556604	0	0
2024-10-19 21:29:47			0	38233	0	0	0	21384	19980	161816	27218	1057400	46370	107848	0	0	8224	556573	0	0
2024-10-19 21:30:47			0	38232	0	0	0	21379	19970	161860	26981	1057471	46358	107846	0	0	8224	556643	0	0
2024-10-19 21:31:47			0	38247	0	0	0	21381	19960	161800	27161	1057452	46378	107847	0	0	8225	556079	0	0
2024-10-19 21:32:47			0	38226	0	0	0	21381	19970	161880	27003	1057497	46379	107847	0	0	8224	556881	0	0
2024-10-19 21:33:47			0	38215	0	0	0	21376	19960	161896	27267	1057426	46378	107845	0	0	8223	557349	0	0
2024-10-19 21:34:47			0	38217	0	0	0	21379	19960	161900	27041	1057373	46357	107846	0	0	8223	557269	0	0
2024-10-19 21:35:47			0	38215	0	0	0	21376	19950	161984	27242	1057390	46378	107845	0	0	8223	557379	0	0
2024-10-19 21:36:47			0	38200	0	0	0	21379	19950	161920	27481	1057381	46356	107846	0	0	8222	557975	0	0
2024-10-19 21:37:47			0	38215	0	0	0	21381	19950	161956	27377	1057301	46367	107847	0	0	8223	557379	0	0
2024-10-19 21:38:47			0	38209	0	0	0	21371	19960	161972	27000	1057373	46368	107843	0	0	8223	557587	0	0
2024-10-19 21:39:47			0	38198	0	0	0	21376	19950	162080	27208	1057301	46356	107845	0	0	8222	558054	0	0
2024-10-19 21:40:47			0	38197	0	0	0	21376	19940	161996	27383	1057372	46367	107845	0	0	8222	558125	0	0
2024-10-19 21:41:47			0	38186	0	0	0	21376	19950	162112	27138	1057364	46357	107845	0	0	8222	558531	0	0
2024-10-19 21:42:47			0	38189	0	0	0	21374	19950	162184	27462	1057443	46368	107844	0	0	8222	558412	0	0
2024-10-19 21:43:47			0	38205	0	0	0	21381	19950	162076	27102	1057390	46378	107847	0	0	8223	557776	0	0
2024-10-19 21:44:47			0	38186	0	0	0	21374	19950	162124	27327	1057381	46367	107844	0	0	8222	558531	0	0
2024-10-19 21:45:47			0	38168	0	0	0	21371	19940	162152	27227	1057372	46367	107843	0	0	8221	559278	0	0
2024-10-19 21:46:47			0	38172	0	0	0	21374	19940	162236	27310	1057319	46367	107844	0	0	8221	559119	0	0
2024-10-19 21:47:47			0	38189	0	0	0	21374	19930	162132	27138	1057381	46366	107844	0	0	8222	558474	0	0
2024-10-19 21:48:47			0	38188	0	0	0	21371	19940	162120	27377	1057266	46377	107843	0	0	8222	558483	0	0
2024-10-19 21:49:47			0	38184	0	0	0	21361	19930	162160	27033	1057345	46375	107839	0	0	8222	558672	0	0
2024-10-19 21:50:47			0	38197	0	0	0	21368	19940	162132	27180	1057284	46366	107842	0	0	8222	558125	0	0
2024-10-19 21:51:47			0	38196	0	0	0	21363	19940	162124	27216	1057284	46366	107840	0	0	8222	558165	0	0
2024-10-19 21:52:47			0	38187	0	0	0	21371	19940	162116	27464	1057310	46355	107843	0	0	8222	558522	0	0
2024-10-19 21:53:47			0	38185	0	0	0	21361	19940	162016	27135	1057337	46366	107839	0	0	8222	558602	0	0
2024-10-19 21:54:47			0	38186	0	0	0	21363	19930	162108	27204	1057328	46366	107840	0	0	8222	558593	0	0
2024-10-19 21:55:47			0	38176	0	0	0	21363	19940	162160	27547	1057363	46376	107840	0	0	8221	558960	0	0
2024-10-19 21:56:47			0	38188	0	0	0	21361	19940	162120	27580	1057310	46376	107839	0	0	8222	558483	0	0
2024-10-19 21:57:47			0	38186	0	0	0	21371	19930	162044	27528	1057319	46365	107843	0	0	8222	558593	0	0
2024-10-19 21:58:47			0	38188	0	0	0	21363	19940	162108	27386	1057390	46376	107840	0	0	8222	558483	0	0
2024-10-19 21:59:47			0	38199	0	0	0	21371	19940	162096	27410	1057310	46355	107843	0	0	8222	558045	0	0
2024-10-19 22:00:47			0	38178	0	0	0	21374	19930	162068	27161	1057381	46376	107844	0	0	8221	558911	0	0
2024-10-19 22:01:47			0	38186	0	0	0	21376	19940	162028	27319	1057310	46376	107845	0	0	8222	558562	0	0
2024-10-19 22:02:47			0	38196	0	0	0	21363	19930	162060	27164	1057301	46376	107840	0	0	8222	558195	0	0
2024-10-19 22:03:47			0	38200	0	0	0	21348	19930	162032	27310	1057354	46366	107834	0	0	8223	558036	0	0
2024-10-19 22:04:47			0	38199	0	0	0	21363	19940	162052	27232	1057310	46366	107840	0	0	8223	558045	0	0
2024-10-19 22:05:47			0	38194	0	0	0	21366	19930	161960	27223	1057221	46366	107841	0	0	8222	558275	0	0
2024-10-19 22:06:47			0	38175	0	0	0	21345	19940	162112	27429	1057372	46356	107833	0	0	8221	559000	0	0
2024-10-19 22:07:47			0	38178	0	0	0	21348	19930	162092	27105	1057266	46375	107834	0	0	8222	558911	0	0
2024-10-19 22:08:47			0	38173	0	0	0	21337	19940	161996	27369	1057230	46355	107830	0	0	8221	559079	0	0
2024-10-19 22:09:47			0	38155	0	0	0	21342	19920	162124	27398	1057230	46375	107832	0	0	8220	559857	0	0
2024-10-19 22:10:47			0	38176	0	0	0	21337	19930	162128	27038	1057266	46354	107830	0	0	8222	558991	0	0
2024-10-19 22:11:47			0	38158	0	0	0	21350	19920	162140	27310	1057274	46364	107835	0	0	8220	559737	0	0
2024-10-19 22:12:47			0	38169	0	0	0	21353	19930	162152	27107	1057292	46354	107836	0	0	8221	559269	0	0
2024-10-19 22:13:47			0	38175	0	0	0	21348	19920	162168	27208	1057221	46375	107834	0	0	8221	559061	0	0
2024-10-19 22:14:47			0	38173	0	0	0	21361	19920	162136	27052	1057283	46375	107839	0	0	8221	559141	0	0
2024-10-19 22:15:47			0	38189	0	0	0	21353	19930	162088	27196	1057292	46375	107836	0	0	8222	558474	0	0
2024-10-19 22:16:47			0	38176	0	0	0	21337	19930	162100	27293	1057239	46365	107830	0	0	8222	558991	0	0
2024-10-19 22:17:47			0	38187	0	0	0	21342	19920	162084	27294	1057221	46385	107832	0	0	8222	558584	0	0
2024-10-19 22:18:47			0	38186	0	0	0	21342	19920	162088	27310	1057257	46353	107832	0	0	8222	558624	0	0
2024-10-19 22:19:47			0	38194	0	0	0	21345	19910	162108	26908	1057239	46364	107833	0	0	8222	558336	0	0
2024-10-19 22:20:47			0	38209	0	0	0	21350	19920	162056	27400	1057248	46353	107835	0	0	8223	557710	0	0
2024-10-19 22:21:47			0	38201	0	0	0	21350	19910	162020	27189	1057292	46375	107835	0	0	8223	558058	0	0
2024-10-19 22:22:47			0	38211	0	0	0	21348	19920	161996	27015	1057195	46375	107834	0	0	8223	557630	0	0
2024-10-19 22:23:47			0	38224	0	0	0	21353	19910	161956	27131	1057159	46364	107836	0	0	8224	557145	0	0
2024-10-19 22:24:47			0	38227	0	0	0	21361	19920	161976	27319	1057204	46364	107839	0	0	8224	556995	0	0
2024-10-19 22:25:47			0	38217	0	0	0	21337	19920	161876	27170	1057195	46375	107830	0	0	8224	557392	0	0
2024-10-19 22:26:47			0	38219	0	0	0	21337	19920	161936	27322	1057204	46364	107830	0	0	8224	557313	0	0
2024-10-19 22:27:47			0	38209	0	0	0	21350	19920	161952	27064	1057195	46375	107835	0	0	8223	557710	0	0
2024-10-19 22:28:47			0	38234	0	0	0	21342	19920	162028	27097	1057221	46375	107832	0	0	8225	556717	0	0
2024-10-19 22:29:47			0	38242	0	0	0	21348	19910	161820	27118	1057212	46375	107834	0	0	8225	556431	0	0
2024-10-19 22:30:47			0	38251	0	0	0	21335	19920	161844	27227	1057248	46375	107829	0	0	8226	556043	0	0
2024-10-19 22:31:47			0	38247	0	0	0	21335	19910	161888	27066	1057186	46364	107829	0	0	8226	556232	0	0
2024-10-19 22:32:47			0	38251	0	0	0	21337	19910	161868	27374	1057212	46364	107830	0	0	8226	556074	0	0
2024-10-19 22:33:47			0	38235	0	0	0	21332	19910	161832	27076	1057212	46364	107828	0	0	8225	556708	0	0
2024-10-19 22:34:47			0	38246	0	0	0	21348	19910	161916	27020	1057203	46374	107834	0	0	8225	556272	0	0
2024-10-19 22:35:47			0	38248	0	0	0	21345	19910	161724	27109	1057186	46364	107833	0	0	8226	556193	0	0
2024-10-19 22:36:47			0	38258	0	0	0	21342	19920	161780	27173	1057274	46385	107832	0	0	8226	555766	0	0
2024-10-19 22:37:47			0	38279	0	0	0	21358	19920	161732	27088	1057257	46353	107838	0	0	8227	554934	0	0
2024-10-19 22:38:47			0	38288	0	0	0	21363	19920	161736	26896	1057248	46385	107840	0	0	8228	554578	0	0
2024-10-19 22:39:47			0	38277	0	0	0	21350	19920	161772	26977	1057221	46375	107835	0	0	8227	555013	0	0
2024-10-19 22:40:47			0	38287	0	0	0	21350	19920	161804	27123	1057230	46364	107835	0	0	8228	554617	0	0
2024-10-19 22:41:47			0	38283	0	0	0	21350	19920	161644	27045	1057283	46364	107835	0	0	8228	554776	0	0
2024-10-19 22:42:47			0	38285	0	0	0	21340	19910	161720	27012	1057239	46364	107831	0	0	8228	554727	0	0
2024-10-19 22:43:47			0	38289	0	0	0	21342	19910	161732	27039	1057283	46374	107832	0	0	8228	554569	0	0
2024-10-19 22:44:47			0	38294	0	0	0	21345	19920	161576	27173	1057248	46364	107833	0	0	8228	554340	0	0
2024-10-19 22:45:47			0	38291	0	0	0	21348	19920	161664	27248	1057274	46364	107834	0	0	8228	554459	0	0
2024-10-19 22:46:47			0	38296	0	0	0	21345	19910	161696	27140	1057212	46353	107833	0	0	8228	554292	0	0
2024-10-19 22:47:47			0	38301	0	0	0	21348	19910	161644	27090	1057239	46375	107834	0	0	8229	554094	0	0
2024-10-19 22:48:47			0	38283	0	0	0	21337	19910	161796	27121	1057239	46364	107830	0	0	8228	554806	0	0
2024-10-19 22:49:47			0	38298	0	0	0	21329	19920	161728	27229	1057248	46353	107827	0	0	8229	554182	0	0
2024-10-19 22:50:47			0	38272	0	0	0	21355	19910	161736	27138	1057230	46374	107837	0	0	8227	555242	0	0
2024-10-19 22:51:47			0	38304	0	0	0	21350	19910	161616	27079	1057265	46353	107835	0	0	8229	553975	0	0
2024-10-19 22:52:47			0	38299	0	0	0	21353	19910	161680	27152	1057177	46384	107836	0	0	8228	554173	0	0
2024-10-19 22:53:47			0	38310	0	0	0	21345	19900	161588	27015	1057194	46373	107833	0	0	8229	553768	0	0
2024-10-19 22:54:47			0	38311	0	0	0	21335	19910	161536	27185	1057230	46374	107829	0	0	8229	553698	0	0
2024-10-19 22:55:47			0	38298	0	0	0	21348	19900	161584	27234	1057194	46351	107834	0	0	8228	554243	0	0
2024-10-19 22:56:47			0	38304	0	0	0	21345	19910	161640	26961	1057212	46375	107833	0	0	8229	553975	0	0
2024-10-19 22:57:47			0	38322	0	0	0	21342	19910	161548	27074	1057265	46353	107832	0	0	8230	553264	0	0
2024-10-19 22:58:47			0	38307	0	0	0	21348	19920	161556	26961	1057274	46385	107834	0	0	8229	553826	0	0
2024-10-19 22:59:47			0	38317	0	0	0	21348	19910	161684	26974	1057239	46353	107834	0	0	8230	553461	0	0
2024-10-19 23:00:47			0	38311	0	0	0	21345	19910	161604	26765	1057203	46374	107833	0	0	8229	553698	0	0
2024-10-19 23:01:47			0	38310	0	0	0	21332	19910	161640	27055	1057212	46364	107828	0	0	8229	553738	0	0
2024-10-19 23:02:47			0	38301	0	0	0	21329	19920	161692	27112	1057221	46375	107827	0	0	8229	554063	0	0
2024-10-19 23:03:47			0	38293	0	0	0	21350	19910	161768	27166	1057203	46352	107835	0	0	8228	554410	0	0
2024-10-19 23:04:47			0	38294	0	0	0	21348	19920	161652	26871	1057248	46364	107834	0	0	8228	554340	0	0
2024-10-19 23:05:47			0	38307	0	0	0	21350	19910	161752	27031	1057203	46374	107835	0	0	8229	553857	0	0
2024-10-19 23:06:47			0	38291	0	0	0	21355	19910	161744	26866	1057230	46374	107837	0	0	8228	554490	0	0
2024-10-19 23:07:47			0	38290	0	0	0	21340	19920	161708	27017	1057221	46364	107831	0	0	8228	554499	0	0
2024-10-19 23:08:47			0	38291	0	0	0	21337	19910	161720	27088	1057186	46375	107830	0	0	8228	554490	0	0
2024-10-19 23:09:47			0	38288	0	0	0	21340	19910	161816	26993	1057203	46374	107831	0	0	8228	554608	0	0
2024-10-19 23:10:47			0	38276	0	0	0	21350	19910	161852	26901	1057177	46374	107835	0	0	8227	555083	0	0
2024-10-19 23:11:47			0	38290	0	0	0	21335	19910	161748	26906	1057256	46374	107829	0	0	8228	554529	0	0
2024-10-19 23:12:47			0	38282	0	0	0	21350	19910	161780	26823	1057239	46364	107835	0	0	8228	554846	0	0
2024-10-19 23:13:47			0	38275	0	0	0	21340	19910	161780	26590	1057186	46364	107831	0	0	8227	555123	0	0
2024-10-19 23:14:47			0	38282	0	0	0	21335	19900	161800	26694	1057168	46383	107829	0	0	8228	554876	0	0
2024-10-19 23:15:47			0	38278	0	0	0	21335	19910	161736	26984	1057186	46353	107829	0	0	8228	555004	0	0
2024-10-19 23:16:47			0	38259	0	0	0	21329	19910	161860	27123	1057177	46363	107827	0	0	8227	555757	0	0
2024-10-19 23:17:47			0	38271	0	0	0	21335	19900	161736	26930	1057141	46351	107829	0	0	8227	555312	0	0
2024-10-19 23:18:47			0	38272	0	0	0	21327	19900	161820	26845	1057159	46362	107826	0	0	8227	555272	0	0
2024-10-19 23:19:47			0	38272	0	0	0	21340	19900	161844	27192	1057141	46351	107831	0	0	8227	555272	0	0
2024-10-19 23:20:47			0	38256	0	0	0	21340	19900	161936	26989	1057159	46362	107831	0	0	8226	555906	0	0
2024-10-19 23:21:47			0	38260	0	0	0	21335	19900	161832	27119	1057168	46351	107829	0	0	8226	555748	0	0
2024-10-19 23:22:47			0	38277	0	0	0	21345	19900	161708	26674	1057185	46351	107833	0	0	8227	555074	0	0
2024-10-19 23:23:47			0	38264	0	0	0	21335	19910	161804	26788	1057203	46363	107829	0	0	8227	555559	0	0
2024-10-19 23:24:47			0	38268	0	0	0	21332	19910	161796	26717	1057159	46364	107828	0	0	8227	555400	0	0
2024-10-19 23:25:47			0	38261	0	0	0	21337	19910	161724	27095	1057230	46374	107830	0	0	8227	555678	0	0
2024-10-19 23:26:47			0	38253	0	0	0	21335	19900	161744	26896	1057185	46373	107829	0	0	8226	556025	0	0
2024-10-19 23:27:47			0	38278	0	0	0	21332	19900	161940	27137	1057141	46373	107828	0	0	8228	555035	0	0
2024-10-19 23:28:47			0	38264	0	0	0	21332	19900	161844	26963	1057194	46373	107828	0	0	8227	555589	0	0
2024-10-19 23:29:47			0	38253	0	0	0	21335	19900	161904	27112	1057168	46362	107829	0	0	8226	556025	0	0
2024-10-19 23:30:47			0	38257	0	0	0	21345	19890	161796	27213	1057150	46373	107833	0	0	8226	555897	0	0
2024-10-19 23:31:47			0	38262	0	0	0	21342	19910	161744	27180	1057177	46363	107832	0	0	8226	555638	0	0
2024-10-19 23:32:47			0	38249	0	0	0	21342	19900	161756	27239	1057194	46362	107832	0	0	8226	556184	0	0
2024-10-19 23:33:47			0	38261	0	0	0	21345	19900	161876	27072	1057185	46373	107833	0	0	8226	555708	0	0
2024-10-19 23:34:47			0	38245	0	0	0	21348	19910	161900	26901	1057177	46363	107834	0	0	8225	556312	0	0
2024-10-19 23:35:47			0	38255	0	0	0	21337	19900	161864	26824	1057168	46362	107830	0	0	8226	555946	0	0
2024-10-19 23:36:47			0	38240	0	0	0	21340	19900	161924	27013	1057194	46373	107831	0	0	8225	556541	0	0
2024-10-19 23:37:47			0	38235	0	0	0	21322	19900	161840	27249	1057168	46362	107824	0	0	8225	556739	0	0
2024-10-19 23:38:47			0	38260	0	0	0	21329	19900	161928	27013	1057106	46373	107827	0	0	8227	555748	0	0
2024-10-19 23:39:47			0	38241	0	0	0	21329	19900	161916	26816	1057132	46351	107827	0	0	8225	556501	0	0
2024-10-19 23:40:47			0	38231	0	0	0	21314	19900	161908	26866	1057239	46362	107821	0	0	8225	556898	0	0
2024-10-19 23:41:47			0	38247	0	0	0	21329	19900	161888	26932	1057132	46362	107827	0	0	8226	556263	0	0
2024-10-19 23:42:47			0	38236	0	0	0	21329	19900	161936	26965	1057141	46362	107827	0	0	8225	556699	0	0
2024-10-19 23:43:47			0	38253	0	0	0	21335	19900	161840	27175	1057141	46362	107829	0	0	8226	556025	0	0
2024-10-19 23:44:47			0	38250	0	0	0	21337	19890	161812	26927	1057070	46373	107830	0	0	8226	556175	0	0
2024-10-19 23:45:47			0	38249	0	0	0	21340	19900	162000	27050	1057168	46373	107831	0	0	8226	556184	0	0
2024-10-19 23:46:47			0	38242	0	0	0	21337	19890	161896	26892	1057203	46362	107830	0	0	8225	556492	0	0
2024-10-19 23:47:47			0	38239	0	0	0	21332	19900	162004	27100	1057185	46362	107828	0	0	8225	556580	0	0
2024-10-19 23:48:47			0	38230	0	0	0	21324	19900	161856	26816	1057159	46373	107825	0	0	8225	556938	0	0
2024-10-19 23:49:47			0	38257	0	0	0	21322	19900	161944	27038	1057194	46373	107824	0	0	8226	555867	0	0
2024-10-19 23:50:47			0	38244	0	0	0	21311	19900	161916	27150	1057168	46351	107820	0	0	8226	556382	0	0
2024-10-19 23:51:47			0	38230	0	0	0	21329	19900	161912	27107	1057106	46373	107827	0	0	8225	556938	0	0
2024-10-19 23:52:47			0	38226	0	0	0	21322	19890	161884	27100	1057097	46362	107824	0	0	8225	557127	0	0
2024-10-19 23:53:47			0	38235	0	0	0	21332	19890	161924	27100	1057150	46362	107828	0	0	8225	556770	0	0
2024-10-19 23:54:47			0	38247	0	0	0	21303	19900	161960	26963	1057185	46373	107817	0	0	8226	556263	0	0
2024-10-19 23:55:47			0	38221	0	0	0	21319	19890	161844	27126	1057150	46373	107823	0	0	8224	557325	0	0
2024-10-19 23:56:47			0	38237	0	0	0	21316	19900	161904	27173	1057132	46339	107822	0	0	8225	556660	0	0
2024-10-19 23:57:47			0	38230	0	0	0	21319	19880	161876	26961	1057105	46349	107823	0	0	8225	556999	0	0
2024-10-19 23:58:47			0	38238	0	0	0	21327	19900	162020	27052	1057106	46373	107826	0	0	8225	556620	0	0
2024-10-19 23:59:47			0	38238	0	0	0	21316	19890	161924	27038	1057088	46361	107822	0	0	8225	556651	0	0
2024-10-20 00:00:47			0	38248	0	0	0	21322	19890	161856	26828	1057061	46361	107824	0	0	8226	556254	0	0
2024-10-20 00:01:47			0	38239	0	0	0	21319	19890	161912	27182	1057070	46362	107823	0	0	8225	556611	0	0
2024-10-20 00:02:47			0	38239	0	0	0	21322	19890	161980	27313	1057123	46362	107824	0	0	8225	556611	0	0
2024-10-20 00:03:47			0	38259	0	0	0	21316	19890	161928	27260	1057114	46372	107822	0	0	8227	555818	0	0
2024-10-20 00:04:47			0	38234	0	0	0	21319	19880	161956	26956	1057123	46360	107823	0	0	8225	556840	0	0
2024-10-20 00:05:47			0	38251	0	0	0	21309	19890	161960	26998	1057114	46361	107819	0	0	8226	556135	0	0
2024-10-20 00:06:47			0	38231	0	0	0	21314	19890	161924	27223	1057097	46362	107821	0	0	8225	556928	0	0
2024-10-20 00:07:47			0	38255	0	0	0	21311	19880	161840	26935	1057079	46360	107820	0	0	8226	556007	0	0
2024-10-20 00:08:47			0	38251	0	0	0	21314	19880	161916	27098	1057105	46381	107821	0	0	8226	556166	0	0
2024-10-20 00:09:47			0	38246	0	0	0	21314	19890	161852	27072	1057176	46362	107821	0	0	8226	556334	0	0
2024-10-20 00:10:47			0	38237	0	0	0	21324	19880	161996	27057	1057079	46360	107825	0	0	8225	556721	0	0
2024-10-20 00:11:47			0	38260	0	0	0	21319	19880	161980	27218	1057105	46371	107823	0	0	8227	555809	0	0
2024-10-20 00:12:47			0	38233	0	0	0	21311	19890	161908	27137	1057114	46361	107820	0	0	8225	556849	0	0
2024-10-20 00:13:47			0	38250	0	0	0	21316	19890	161992	27223	1057061	46372	107822	0	0	8226	556175	0	0
2024-10-20 00:14:47			0	38220	0	0	0	21314	19880	161952	27154	1057052	46371	107821	0	0	8224	557396	0	0
2024-10-20 00:15:47			0	38242	0	0	0	21322	19890	161956	26871	1057088	46361	107824	0	0	8226	556492	0	0
2024-10-20 00:16:47			0	38242	0	0	0	21327	19880	161988	27261	1057132	46349	107826	0	0	8225	556523	0	0
2024-10-20 00:17:47			0	38236	0	0	0	21311	19880	161896	27241	1057070	46360	107820	0	0	8225	556761	0	0
2024-10-20 00:18:47			0	38235	0	0	0	21301	19890	161916	27324	1057097	46362	107816	0	0	8225	556770	0	0
2024-10-20 00:19:47			0	38223	0	0	0	21303	19880	161924	27140	1057105	46360	107817	0	0	8225	557277	0	0
2024-10-20 00:20:47			0	38215	0	0	0	21309	19880	161852	27251	1057096	46371	107819	0	0	8224	557594	0	0
2024-10-20 00:21:47			0	38220	0	0	0	21309	19880	161908	27182	1057070	46360	107819	0	0	8224	557396	0	0
2024-10-20 00:22:47			0	38231	0	0	0	21311	19880	161916	26993	1057096	46360	107820	0	0	8225	556959	0	0
2024-10-20 00:23:47			0	38214	0	0	0	21306	19880	161880	27157	1057052	46371	107818	0	0	8224	557634	0	0
2024-10-20 00:24:47			0	38220	0	0	0	21314	19890	161996	27272	1057035	46372	107821	0	0	8224	557365	0	0
2024-10-20 00:25:47			0	38219	0	0	0	21314	19890	162040	26982	1057114	46382	107821	0	0	8224	557405	0	0
2024-10-20 00:26:47			0	38224	0	0	0	21303	19880	161960	27201	1057096	46371	107817	0	0	8225	557237	0	0
2024-10-20 00:27:47			0	38204	0	0	0	21290	19880	161964	27391	1057052	46360	107812	0	0	8224	558031	0	0
2024-10-20 00:28:47			0	38207	0	0	0	21306	19880	162036	27339	1057079	46381	107818	0	0	8224	557912	0	0
2024-10-20 00:29:47			0	38213	0	0	0	21306	19880	162024	27369	1057052	46371	107818	0	0	8224	557674	0	0
2024-10-20 00:30:47			0	38204	0	0	0	21306	19870	162096	27343	1057087	46349	107818	0	0	8224	558062	0	0
2024-10-20 00:31:47			0	38217	0	0	0	21303	19870	162068	27138	1057008	46371	107817	0	0	8224	557546	0	0
2024-10-20 00:32:47			0	38219	0	0	0	21296	19880	161968	27114	1057123	46360	107814	0	0	8225	557436	0	0
2024-10-20 00:33:47			0	38219	0	0	0	21303	19880	162064	27144	1057043	46381	107817	0	0	8224	557436	0	0
2024-10-20 00:34:47			0	38219	0	0	0	21303	19880	161976	27331	1057070	46381	107817	0	0	8224	557436	0	0
2024-10-20 00:35:47			0	38217	0	0	0	21298	19880	162064	27017	1057096	46360	107815	0	0	8224	557515	0	0
2024-10-20 00:36:47			0	38208	0	0	0	21301	19880	162012	27041	1057105	46360	107816	0	0	8224	557872	0	0
2024-10-20 00:37:47			0	38204	0	0	0	21311	19870	162096	27225	1057078	46359	107820	0	0	8223	558062	0	0
2024-10-20 00:38:47			0	38219	0	0	0	21303	19880	162040	27005	1057017	46360	107817	0	0	8224	557436	0	0
2024-10-20 00:39:47			0	38198	0	0	0	21303	19880	162100	27137	1057043	46371	107817	0	0	8223	558270	0	0
2024-10-20 00:40:47			0	38217	0	0	0	21298	19870	162112	26975	1057034	46371	107815	0	0	8224	557546	0	0
2024-10-20 00:41:47			0	38207	0	0	0	21283	19870	162052	27260	1057061	46360	107809	0	0	8224	557943	0	0
2024-10-20 00:42:47			0	38197	0	0	0	21293	19870	161996	26984	1057034	46371	107813	0	0	8223	558340	0	0
2024-10-20 00:43:47			0	38194	0	0	0	21296	19870	161912	27248	1056981	46381	107814	0	0	8223	558460	0	0
2024-10-20 00:44:47			0	38195	0	0	0	21290	19870	162164	27022	1057025	46359	107812	0	0	8223	558420	0	0
2024-10-20 00:45:47			0	38200	0	0	0	21290	19880	162176	27289	1057026	46349	107812	0	0	8224	558190	0	0
2024-10-20 00:46:47			0	38194	0	0	0	21303	19870	162132	27192	1056999	46370	107817	0	0	8223	558460	0	0
2024-10-20 00:47:47			0	38187	0	0	0	21293	19860	162084	27034	1057070	46369	107813	0	0	8223	558769	0	0
2024-10-20 00:48:47			0	38180	0	0	0	21288	19870	162116	27036	1056955	46371	107811	0	0	8222	559016	0	0
2024-10-20 00:49:47			0	38203	0	0	0	21293	19870	162168	27190	1056999	46359	107813	0	0	8224	558102	0	0
2024-10-20 00:50:47			0	38200	0	0	0	21296	19870	162084	26831	1057052	46348	107814	0	0	8223	558221	0	0
2024-10-20 00:51:47			0	38177	0	0	0	21301	19860	162100	26942	1056990	46369	107816	0	0	8222	559166	0	0
2024-10-20 00:52:47			0	38188	0	0	0	21306	19870	162152	26968	1056981	46381	107818	0	0	8223	558698	0	0
2024-10-20 00:53:47			0	38187	0	0	0	21306	19860	162192	27020	1057043	46358	107818	0	0	8222	558769	0	0
2024-10-20 00:54:47			0	38184	0	0	0	21298	19860	162220	27204	1057007	46368	107815	0	0	8222	558888	0	0
2024-10-20 00:55:47			0	38202	0	0	0	21296	19870	162204	27414	1057034	46360	107814	0	0	8224	558142	0	0
2024-10-20 00:56:47			0	38200	0	0	0	21280	19870	162124	27001	1057025	46370	107808	0	0	8224	558221	0	0
2024-10-20 00:57:47			0	38177	0	0	0	21288	19850	162252	27128	1056998	46357	107811	0	0	8222	559197	0	0
2024-10-20 00:58:47			0	38191	0	0	0	21285	19870	162216	27081	1056972	46359	107810	0	0	8223	558579	0	0
2024-10-20 00:59:47			0	38207	0	0	0	21288	19850	162224	27244	1057025	46378	107811	0	0	8224	558004	0	0
2024-10-20 01:00:47			0	38196	0	0	0	21296	19860	162160	27043	1056990	46369	107814	0	0	8223	558411	0	0
2024-10-20 01:01:47			0	38203	0	0	0	21293	19860	162204	27235	1056981	46357	107813	0	0	8224	558133	0	0
2024-10-20 01:02:47			0	38209	0	0	0	21296	19860	162124	27010	1056901	46357	107814	0	0	8224	557894	0	0
2024-10-20 01:03:47			0	38179	0	0	0	21288	19860	162128	27429	1056963	46358	107811	0	0	8222	559087	0	0
2024-10-20 01:04:47			0	38191	0	0	0	21277	19860	162148	27232	1056990	46369	107807	0	0	8223	558609	0	0
2024-10-20 01:05:47			0	38188	0	0	0	21288	19860	162200	27256	1056963	46358	107811	0	0	8223	558729	0	0
2024-10-20 01:06:47			0	38198	0	0	0	21288	19860	162172	27388	1056954	46345	107811	0	0	8223	558331	0	0
2024-10-20 01:07:47			0	38197	0	0	0	21290	19860	162212	26998	1056901	46368	107812	0	0	8223	558371	0	0
2024-10-20 01:08:47			0	38200	0	0	0	21290	19860	162220	27175	1056928	46345	107812	0	0	8223	558252	0	0
2024-10-20 01:09:47			0	38198	0	0	0	21293	19870	162120	27053	1056972	46359	107813	0	0	8223	558300	0	0
2024-10-20 01:10:47			0	38187	0	0	0	21288	19850	162244	27244	1056990	46378	107811	0	0	8223	558799	0	0
2024-10-20 01:11:47			0	38183	0	0	0	21296	19860	162148	27138	1056963	46358	107814	0	0	8222	558928	0	0
2024-10-20 01:12:47			0	38192	0	0	0	21290	19860	162232	27235	1057016	46369	107812	0	0	8223	558570	0	0
2024-10-20 01:13:47			0	38185	0	0	0	21285	19850	162124	27026	1056945	46357	107810	0	0	8223	558879	0	0
2024-10-20 01:14:47			0	38191	0	0	0	21290	19860	162200	27263	1056963	46358	107812	0	0	8223	558609	0	0
2024-10-20 01:15:47			0	38181	0	0	0	21280	19860	162232	27133	1057007	46368	107808	0	0	8223	559007	0	0
2024-10-20 01:16:47			0	38191	0	0	0	21277	19870	162228	27067	1056972	46359	107807	0	0	8223	558579	0	0
2024-10-20 01:17:47			0	38176	0	0	0	21277	19850	162268	27024	1056945	46357	107807	0	0	8222	559237	0	0
2024-10-20 01:18:47			0	38187	0	0	0	21283	19850	162124	27128	1056972	46368	107809	0	0	8223	558799	0	0
2024-10-20 01:19:47			0	38180	0	0	0	21283	19850	162076	27010	1056919	46345	107809	0	0	8222	559078	0	0
2024-10-20 01:20:47			0	38192	0	0	0	21280	19860	162136	27246	1056954	46357	107808	0	0	8223	558570	0	0
2024-10-20 01:21:47			0	38185	0	0	0	21296	19860	162112	27223	1056981	46368	107814	0	0	8223	558848	0	0
2024-10-20 01:22:47			0	38200	0	0	0	21303	19850	162144	27145	1056945	46368	107817	0	0	8223	558283	0	0
2024-10-20 01:23:47			0	38205	0	0	0	21298	19860	162108	27067	1057034	46368	107815	0	0	8224	558053	0	0
2024-10-20 01:24:47			0	38197	0	0	0	21309	19860	162108	27116	1056981	46389	107819	0	0	8223	558371	0	0
2024-10-20 01:25:47			0	38204	0	0	0	21290	19870	162080	27192	1057052	46359	107812	0	0	8224	558062	0	0
2024-10-20 01:26:47			0	38213	0	0	0	21298	19860	162120	26774	1057043	46358	107815	0	0	8224	557735	0	0
2024-10-20 01:27:47			0	38206	0	0	0	21296	19860	162116	27010	1057043	46379	107814	0	0	8224	558013	0	0
2024-10-20 01:28:47			0	38199	0	0	0	21288	19850	162168	27265	1057052	46357	107811	0	0	8223	558322	0	0
2024-10-20 01:29:47			0	38202	0	0	0	21303	19860	162108	27135	1057034	46368	107817	0	0	8223	558172	0	0
2024-10-20 01:30:47			0	38210	0	0	0	21288	19850	162104	26951	1056998	46357	107811	0	0	8224	557885	0	0
2024-10-20 01:31:47			0	38207	0	0	0	21293	19860	162104	27178	1057007	46357	107813	0	0	8224	557974	0	0
2024-10-20 01:32:47			0	38180	0	0	0	21288	19860	162088	27218	1057061	46357	107811	0	0	8222	559047	0	0
2024-10-20 01:33:47			0	38196	0	0	0	21290	19860	162212	27163	1057070	46358	107812	0	0	8223	558411	0	0
2024-10-20 01:34:47			0	38183	0	0	0	21301	19850	162072	27355	1056990	46357	107816	0	0	8222	558959	0	0
2024-10-20 01:35:47			0	38226	0	0	0	21290	19870	162136	27213	1056972	46380	107812	0	0	8225	557188	0	0
2024-10-20 01:36:47			0	38214	0	0	0	21298	19870	162140	27072	1056999	46370	107815	0	0	8224	557665	0	0
2024-10-20 01:37:47			0	38205	0	0	0	21288	19860	162056	27196	1057007	46368	107811	0	0	8224	558053	0	0
2024-10-20 01:38:47			0	38213	0	0	0	21301	19870	162116	26984	1057025	46370	107816	0	0	8224	557704	0	0
2024-10-20 01:39:47			0	38207	0	0	0	21290	19860	162068	27204	1057043	46369	107812	0	0	8224	557974	0	0
2024-10-20 01:40:47			0	38212	0	0	0	21293	19860	162112	27074	1056981	46357	107813	0	0	8224	557775	0	0
2024-10-20 01:41:47			0	38213	0	0	0	21293	19870	161996	27331	1056972	46370	107813	0	0	8224	557704	0	0
2024-10-20 01:42:47			0	38195	0	0	0	21288	19860	162108	27057	1056937	46369	107811	0	0	8223	558451	0	0
2024-10-20 01:43:47			0	38205	0	0	0	21293	19870	162068	27313	1057087	46371	107813	0	0	8224	558022	0	0
2024-10-20 01:44:47			0	38201	0	0	0	21288	19860	162168	26925	1057016	46358	107811	0	0	8224	558212	0	0
2024-10-20 01:45:47			0	38210	0	0	0	21285	19850	162144	27260	1056972	46378	107810	0	0	8224	557885	0	0
2024-10-20 01:46:47			0	38201	0	0	0	21285	19870	162088	27145	1056972	46359	107810	0	0	8224	558181	0	0
2024-10-20 01:47:47			0	38190	0	0	0	21288	19860	162152	27317	1057016	46369	107811	0	0	8223	558649	0	0
2024-10-20 01:48:47			0	38196	0	0	0	21283	19860	162108	27019	1057007	46357	107809	0	0	8223	558411	0	0
2024-10-20 01:49:47			0	38192	0	0	0	21277	19860	162068	27159	1056990	46358	107807	0	0	8223	558570	0	0
2024-10-20 01:50:47			0	38184	0	0	0	21290	19860	162112	27242	1056928	46368	107812	0	0	8223	558888	0	0
2024-10-20 01:51:47			0	38196	0	0	0	21288	19860	162172	27204	1057070	46346	107811	0	0	8223	558411	0	0
2024-10-20 01:52:47			0	38189	0	0	0	21309	19860	162152	27303	1057007	46357	107819	0	0	8223	558689	0	0
2024-10-20 01:53:47			0	38190	0	0	0	21290	19850	162044	27229	1056945	46357	107812	0	0	8223	558680	0	0
2024-10-20 01:54:47			0	38197	0	0	0	21290	19860	162168	27057	1056990	46369	107812	0	0	8223	558371	0	0
2024-10-20 01:55:47			0	38191	0	0	0	21290	19860	162212	26977	1057043	46358	107812	0	0	8223	558609	0	0
2024-10-20 01:56:47			0	38198	0	0	0	21288	19860	162164	27376	1056954	46368	107811	0	0	8223	558331	0	0
2024-10-20 01:57:47			0	38180	0	0	0	21293	19860	162120	27026	1057016	46346	107813	0	0	8222	559047	0	0
2024-10-20 01:58:47			0	38196	0	0	0	21296	19860	162120	27279	1057070	46346	107814	0	0	8223	558411	0	0
2024-10-20 01:59:47			0	38184	0	0	0	21280	19850	162164	26982	1056945	46368	107808	0	0	8223	558919	0	0
2024-10-20 02:00:47			0	38176	0	0	0	21288	19850	162240	27038	1057025	46368	107811	0	0	8222	559237	0	0
2024-10-20 02:01:47			0	38174	0	0	0	21275	19850	162308	27189	1056972	46357	107806	0	0	8222	559317	0	0
2024-10-20 02:02:47			0	38167	0	0	0	21283	19850	162204	27272	1056998	46357	107809	0	0	8222	559595	0	0
2024-10-20 02:03:47			0	38181	0	0	0	21277	19860	162316	27157	1056954	46368	107807	0	0	8223	559007	0	0
2024-10-20 02:04:47			0	38174	0	0	0	21280	19850	162332	27003	1056998	46345	107808	0	0	8222	559317	0	0
2024-10-20 02:05:47			0	38155	0	0	0	21288	19850	162332	27066	1056945	46357	107811	0	0	8221	560073	0	0
2024-10-20 02:06:47			0	38163	0	0	0	21288	19860	162356	27327	1056954	46345	107811	0	0	8221	559724	0	0
2024-10-20 02:07:47			0	38147	0	0	0	21283	19850	162364	27268	1056990	46368	107809	0	0	8220	560392	0	0
2024-10-20 02:08:47			0	38149	0	0	0	21288	19860	162292	27128	1056963	46369	107811	0	0	8221	560281	0	0
2024-10-20 02:09:47			0	38169	0	0	0	21283	19850	162280	27138	1056972	46389	107809	0	0	8222	559516	0	0
2024-10-20 02:10:47			0	38160	0	0	0	21275	19850	162380	26951	1057025	46357	107806	0	0	8221	559874	0	0
2024-10-20 02:11:47			0	38159	0	0	0	21288	19850	162424	26939	1056972	46357	107811	0	0	8221	559914	0	0
2024-10-20 02:12:47			0	38138	0	0	0	21285	19850	162304	27365	1056945	46378	107810	0	0	8220	560750	0	0
2024-10-20 02:13:47			0	38134	0	0	0	21298	19850	162248	27213	1056892	46368	107815	0	0	8219	560910	0	0
2024-10-20 02:14:47			0	38146	0	0	0	21285	19850	162392	27346	1056972	46357	107810	0	0	8220	560431	0	0
2024-10-20 02:15:47			0	38136	0	0	0	21277	19850	162384	27260	1056936	46378	107807	0	0	8220	560830	0	0
2024-10-20 02:16:47			0	38148	0	0	0	21283	19850	162372	27130	1056945	46368	107809	0	0	8221	560352	0	0
2024-10-20 02:17:47			0	38127	0	0	0	21280	19850	162376	27180	1056945	46357	107808	0	0	8219	561189	0	0
2024-10-20 02:18:47			0	38128	0	0	0	21277	19850	162308	27355	1056936	46357	107807	0	0	8219	561149	0	0
2024-10-20 02:19:47			0	38113	0	0	0	21280	19840	162408	27348	1056954	46356	107808	0	0	8218	561778	0	0
2024-10-20 02:20:47			0	38118	0	0	0	21280	19850	162432	27317	1056945	46368	107808	0	0	8219	561548	0	0
2024-10-20 02:21:47			0	38127	0	0	0	21267	19840	162456	26918	1056901	46356	107803	0	0	8220	561220	0	0
2024-10-20 02:22:47			0	38103	0	0	0	21275	19840	162524	27046	1056927	46356	107806	0	0	8218	562177	0	0
2024-10-20 02:23:47			0	38118	0	0	0	21280	19840	162620	27128	1056874	46367	107808	0	0	8219	561579	0	0
2024-10-20 02:24:47			0	38113	0	0	0	21272	19860	162508	27286	1056901	46345	107805	0	0	8219	561716	0	0
2024-10-20 02:25:47			0	38099	0	0	0	21277	19850	162552	27170	1056972	46357	107807	0	0	8218	562306	0	0
2024-10-20 02:26:47			0	38114	0	0	0	21262	19850	162644	27237	1056936	46357	107801	0	0	8219	561707	0	0
2024-10-20 02:27:47			0	38108	0	0	0	21267	19840	162560	26812	1056927	46356	107803	0	0	8218	561978	0	0
2024-10-20 02:28:47			0	38102	0	0	0	21267	19840	162604	27190	1056821	46367	107803	0	0	8218	562217	0	0
2024-10-20 02:29:47			0	38095	0	0	0	21267	19840	162588	27364	1056918	46366	107803	0	0	8218	562497	0	0
2024-10-20 02:30:47			0	38103	0	0	0	21264	19840	162516	27223	1056891	46366	107802	0	0	8218	562177	0	0
2024-10-20 02:31:47			0	38096	0	0	0	21264	19830	162548	27199	1056856	46355	107802	0	0	8218	562488	0	0
2024-10-20 02:32:47			0	38110	0	0	0	21275	19830	162524	27274	1056900	46355	107806	0	0	8218	561929	0	0
2024-10-20 02:33:47			0	38092	0	0	0	21262	19840	162584	27100	1056901	46356	107801	0	0	8218	562617	0	0
2024-10-20 02:34:47			0	38079	0	0	0	21264	19830	162636	27531	1056909	46355	107802	0	0	8217	563167	0	0
2024-10-20 02:35:47			0	38091	0	0	0	21257	19820	162736	27152	1056838	46365	107799	0	0	8217	562718	0	0
2024-10-20 02:36:47			0	38083	0	0	0	21264	19830	162680	26854	1056856	46344	107802	0	0	8217	563007	0	0
2024-10-20 02:37:47			0	38087	0	0	0	21257	19830	162672	27102	1056829	46355	107799	0	0	8217	562847	0	0
2024-10-20 02:38:47			0	38078	0	0	0	21264	19840	162740	27315	1056838	46355	107802	0	0	8217	563176	0	0
2024-10-20 02:39:47			0	38077	0	0	0	21259	19830	162680	27133	1056883	46355	107800	0	0	8217	563247	0	0
2024-10-20 02:40:47			0	38098	0	0	0	21257	19830	162708	26993	1056847	46355	107799	0	0	8218	562408	0	0
2024-10-20 02:41:47			0	38082	0	0	0	21254	19840	162712	27022	1056865	46355	107798	0	0	8217	563016	0	0
2024-10-20 02:42:47			0	38081	0	0	0	21262	19820	162564	26920	1056785	46342	107801	0	0	8217	563118	0	0
2024-10-20 02:43:47			0	38088	0	0	0	21262	19810	162624	27123	1056820	46353	107801	0	0	8217	562869	0	0
2024-10-20 02:44:47			0	38086	0	0	0	21264	19820	162548	27033	1056856	46364	107802	0	0	8217	562918	0	0
2024-10-20 02:45:47			0	38080	0	0	0	21251	19830	162596	26807	1056883	46355	107797	0	0	8217	563127	0	0
2024-10-20 02:46:47			0	38108	0	0	0	21259	19830	162688	27088	1056820	46355	107800	0	0	8218	562009	0	0
2024-10-20 02:47:47			0	38086	0	0	0	21257	19830	162620	27086	1056856	46355	107799	0	0	8217	562887	0	0
2024-10-20 02:48:47			0	38079	0	0	0	21264	19840	162620	26833	1056812	46355	107802	0	0	8217	563136	0	0
2024-10-20 02:49:47			0	38068	0	0	0	21259	19830	162472	27189	1056856	46333	107800	0	0	8216	563607	0	0
2024-10-20 02:50:47			0	38057	0	0	0	21249	19820	162700	27166	1056803	46353	107796	0	0	8216	564078	0	0
2024-10-20 02:51:47			0	38065	0	0	0	21249	19820	162704	27161	1056749	46353	107796	0	0	8216	563758	0	0
2024-10-20 02:52:47			0	38058	0	0	0	21251	19830	162788	27261	1056803	46355	107797	0	0	8216	564007	0	0
2024-10-20 02:53:47			0	38046	0	0	0	21246	19810	162712	27112	1056767	46364	107795	0	0	8215	564549	0	0
2024-10-20 02:54:47			0	38041	0	0	0	21254	19820	162756	26899	1056749	46353	107798	0	0	8215	564718	0	0
2024-10-20 02:55:47			0	38046	0	0	0	21241	19820	162828	27248	1056856	46341	107793	0	0	8215	564518	0	0
2024-10-20 02:56:47			0	38047	0	0	0	21241	19810	162796	27201	1056740	46364	107793	0	0	8215	564509	0	0
2024-10-20 02:57:47			0	38044	0	0	0	21238	19810	162768	27241	1056794	46353	107792	0	0	8215	564629	0	0
2024-10-20 02:58:47			0	38022	0	0	0	21241	19820	162895	27189	1056776	46353	107793	0	0	8214	565479	0	0
2024-10-20 02:59:47			0	38027	0	0	0	21238	19820	162903	27168	1056776	46364	107792	0	0	8214	565279	0	0
2024-10-20 03:00:47			0	38032	0	0	0	21246	19820	162852	27171	1056856	46353	107795	0	0	8214	565078	0	0
2024-10-20 03:01:47			0	38028	0	0	0	21246	19810	162787	27263	1056767	46353	107795	0	0	8214	565270	0	0
2024-10-20 03:02:47			0	38049	0	0	0	21244	19810	162812	27319	1056838	46364	107794	0	0	8215	564429	0	0
2024-10-20 03:03:47			0	38037	0	0	0	21241	19810	162884	27010	1056794	46353	107793	0	0	8215	564909	0	0
2024-10-20 03:04:47			0	38019	0	0	0	21236	19810	162883	27192	1056731	46341	107791	0	0	8214	565630	0	0
2024-10-20 03:05:47			0	38039	0	0	0	21241	19810	162824	27086	1056794	46353	107793	0	0	8215	564829	0	0
2024-10-20 03:06:47			0	38036	0	0	0	21233	19820	162908	26856	1056776	46353	107790	0	0	8215	564918	0	0
2024-10-20 03:07:47			0	38028	0	0	0	21236	19810	162983	27069	1056678	46364	107791	0	0	8214	565270	0	0
2024-10-20 03:08:47			0	38027	0	0	0	21241	19810	163019	27029	1056785	46353	107793	0	0	8214	565310	0	0
2024-10-20 03:09:47			0	38013	0	0	0	21233	19810	163055	27230	1056705	46353	107790	0	0	8213	565871	0	0
2024-10-20 03:10:47			0	38004	0	0	0	21238	19810	163003	27277	1056714	46364	107792	0	0	8213	566232	0	0
2024-10-20 03:11:47			0	38014	0	0	0	21233	19800	163119	26960	1056749	46363	107790	0	0	8213	565862	0	0
2024-10-20 03:12:47			0	38013	0	0	0	21236	19800	163019	27265	1056749	46363	107791	0	0	8213	565902	0	0
2024-10-20 03:13:47			0	38018	0	0	0	21223	19810	162991	27294	1056714	46353	107786	0	0	8214	565670	0	0
2024-10-20 03:14:47			0	38019	0	0	0	21236	19810	162959	27647	1056785	46364	107791	0	0	8214	565630	0	0
2024-10-20 03:15:47			0	38035	0	0	0	21225	19800	162912	27549	1056714	46351	107787	0	0	8215	565020	0	0
2024-10-20 03:16:47			0	38026	0	0	0	21225	19800	162872	27571	1056723	46363	107787	0	0	8214	565381	0	0
2024-10-20 03:17:47			0	38042	0	0	0	21225	19800	162956	27166	1056696	46363	107787	0	0	8215	564740	0	0
2024-10-20 03:18:47			0	38036	0	0	0	21241	19800	162816	27102	1056660	46362	107793	0	0	8214	564980	0	0
2024-10-20 03:19:47			0	38030	0	0	0	21223	19800	162919	27334	1056723	46352	107786	0	0	8214	565221	0	0
2024-10-20 03:20:47			0	38031	0	0	0	21236	19790	162964	27376	1056749	46338	107791	0	0	8214	565212	0	0
2024-10-20 03:21:47			0	38038	0	0	0	21231	19800	162704	27171	1056714	46362	107789	0	0	8215	564900	0	0
2024-10-20 03:22:47			0	38044	0	0	0	21231	19800	162632	27365	1056687	46351	107789	0	0	8215	564660	0	0
2024-10-20 03:23:47			0	38057	0	0	0	21236	19800	162660	27329	1056696	46352	107791	0	0	8216	564140	0	0
2024-10-20 03:24:47			0	38087	0	0	0	21244	19800	162624	27467	1056749	46363	107794	0	0	8217	562940	0	0
2024-10-20 03:25:47			0	38082	0	0	0	21241	19790	162672	27177	1056731	46361	107793	0	0	8217	563171	0	0
2024-10-20 03:26:47			0	38089	0	0	0	21241	19800	162692	27528	1056714	46362	107793	0	0	8218	562860	0	0
2024-10-20 03:27:47			0	38069	0	0	0	21233	19800	162664	27230	1056793	46351	107790	0	0	8216	563660	0	0
2024-10-20 03:28:47			0	38081	0	0	0	21233	19800	162576	27144	1056767	46351	107790	0	0	8217	563180	0	0
2024-10-20 03:29:47			0	38075	0	0	0	21238	19800	162628	27398	1056776	46363	107792	0	0	8217	563420	0	0
2024-10-20 03:30:47			0	38066	0	0	0	21236	19800	162668	27024	1056749	46340	107791	0	0	8216	563780	0	0
2024-10-20 03:31:47			0	38060	0	0	0	21233	19800	162700	27447	1056749	46352	107790	0	0	8216	564020	0	0
2024-10-20 03:32:47			0	38042	0	0	0	21228	19790	162688	27163	1056731	46372	107788	0	0	8215	564771	0	0
2024-10-20 03:33:47			0	38051	0	0	0	21236	19800	162788	27369	1056687	46362	107791	0	0	8215	564380	0	0
2024-10-20 03:34:47			0	38053	0	0	0	21233	19790	162772	27421	1056758	46361	107790	0	0	8215	564331	0	0
2024-10-20 03:35:47			0	38067	0	0	0	21238	19800	162780	26916	1056714	46362	107792	0	0	8216	563740	0	0
2024-10-20 03:36:47			0	38055	0	0	0	21238	19800	162744	27189	1056687	46362	107792	0	0	8216	564220	0	0
2024-10-20 03:37:47			0	38047	0	0	0	21238	19800	162684	27341	1056749	46352	107792	0	0	8215	564540	0	0
2024-10-20 03:38:47			0	38037	0	0	0	21241	19800	162788	27041	1056749	46352	107793	0	0	8214	564940	0	0
2024-10-20 03:39:47			0	38034	0	0	0	21233	19800	162728	27280	1056749	46352	107790	0	0	8214	565060	0	0
2024-10-20 03:40:47			0	38046	0	0	0	21236	19800	162744	27223	1056749	46352	107791	0	0	8215	564580	0	0
2024-10-20 03:41:47			0	38062	0	0	0	21241	19800	162588	27320	1056776	46352	107793	0	0	8216	563940	0	0
2024-10-20 03:42:47			0	38045	0	0	0	21238	19810	162692	27268	1056705	46353	107792	0	0	8215	564589	0	0
2024-10-20 03:43:47			0	38052	0	0	0	21233	19790	162804	27251	1056731	46372	107790	0	0	8215	564371	0	0
2024-10-20 03:44:47			0	38031	0	0	0	21238	19790	162668	27346	1056758	46350	107792	0	0	8214	565212	0	0
2024-10-20 03:45:47			0	38043	0	0	0	21233	19790	162796	27251	1056811	46361	107790	0	0	8215	564731	0	0
2024-10-20 03:46:47			0	38033	0	0	0	21236	19800	162732	27135	1056696	46352	107791	0	0	8214	565100	0	0
2024-10-20 03:47:47			0	38043	0	0	0	21238	19800	162784	27291	1056776	46363	107792	0	0	8215	564700	0	0
2024-10-20 03:48:47			0	38035	0	0	0	21241	19790	162784	27334	1056731	46350	107793	0	0	8214	565052	0	0
2024-10-20 03:49:47			0	38028	0	0	0	21238	19800	162836	27177	1056767	46362	107792	0	0	8214	565301	0	0
2024-10-20 03:50:47			0	38035	0	0	0	21236	19790	162728	27211	1056705	46361	107791	0	0	8214	565052	0	0
2024-10-20 03:51:47			0	38022	0	0	0	21238	19800	162800	27189	1056740	46362	107792	0	0	8214	565541	0	0
2024-10-20 03:52:47			0	38026	0	0	0	21231	19810	162919	27346	1056785	46341	107789	0	0	8214	565350	0	0
2024-10-20 03:53:47			0	38009	0	0	0	21231	19800	162967	27081	1056660	46362	107789	0	0	8213	566062	0	0
2024-10-20 03:54:47			0	38022	0	0	0	21228	19790	162935	27372	1056651	46350	107788	0	0	8214	565572	0	0
2024-10-20 03:55:47			0	37992	0	0	0	21210	19790	162867	27329	1056696	46361	107781	0	0	8212	566775	0	0
2024-10-20 03:56:47			0	37998	0	0	0	21218	19800	162975	27329	1056740	46351	107784	0	0	8213	566503	0	0
2024-10-20 03:57:47			0	37987	0	0	0	21215	19790	163011	27189	1056678	46350	107783	0	0	8212	566976	0	0
2024-10-20 03:58:47			0	37968	0	0	0	21207	19800	163103	27227	1056740	46351	107780	0	0	8211	567708	0	0
2024-10-20 03:59:47			0	37972	0	0	0	21202	19790	163059	27502	1056678	46350	107778	0	0	8211	567578	0	0
2024-10-20 04:00:47			0	37973	0	0	0	21215	19800	163023	27338	1056687	46351	107783	0	0	8211	567507	0	0
2024-10-20 04:01:47			0	37984	0	0	0	21210	19790	163055	27429	1056643	46350	107781	0	0	8212	567096	0	0
2024-10-20 04:02:47			0	37962	0	0	0	21223	19780	163083	27319	1056660	46338	107786	0	0	8210	568011	0	0
2024-10-20 04:03:47			0	37985	0	0	0	21218	19790	162995	27227	1056705	46361	107784	0	0	8212	567056	0	0
2024-10-20 04:04:47			0	37985	0	0	0	21218	19780	162959	27410	1056687	46338	107784	0	0	8212	567088	0	0
2024-10-20 04:05:47			0	37994	0	0	0	21225	19790	163067	27161	1056643	46361	107787	0	0	8212	566695	0	0
2024-10-20 04:06:47			0	37985	0	0	0	21212	19780	163059	27121	1056651	46349	107782	0	0	8212	567088	0	0
2024-10-20 04:07:47			0	38001	0	0	0	21215	19780	163067	27474	1056660	46361	107783	0	0	8213	566446	0	0
2024-10-20 04:08:47			0	38009	0	0	0	21212	19780	163047	27033	1056687	46350	107782	0	0	8213	566125	0	0
2024-10-20 04:09:47			0	37992	0	0	0	21197	19780	162943	27300	1056678	46349	107776	0	0	8212	566807	0	0
2024-10-20 04:10:47			0	37978	0	0	0	21212	19780	163115	27289	1056598	46349	107782	0	0	8211	567369	0	0
2024-10-20 04:11:47			0	37995	0	0	0	21220	19780	162983	26897	1056660	46361	107785	0	0	8212	566686	0	0
2024-10-20 04:12:47			0	37988	0	0	0	21225	19790	162967	27242	1056722	46361	107787	0	0	8212	566936	0	0
2024-10-20 04:13:47			0	38020	0	0	0	21223	19780	162903	26967	1056660	46361	107786	0	0	8214	565684	0	0
2024-10-20 04:14:47			0	38009	0	0	0	21218	19780	162939	27114	1056713	46350	107784	0	0	8213	566125	0	0
2024-10-20 04:15:47			0	37999	0	0	0	21197	19780	163063	27291	1056651	46349	107776	0	0	8213	566526	0	0
2024-10-20 04:16:47			0	37990	0	0	0	21205	19790	163031	27268	1056669	46350	107779	0	0	8212	566856	0	0
2024-10-20 04:17:47			0	37987	0	0	0	21207	19780	163147	27414	1056634	46372	107780	0	0	8212	567007	0	0
2024-10-20 04:18:47			0	37971	0	0	0	21199	19770	163155	27272	1056669	46359	107777	0	0	8211	567681	0	0
2024-10-20 04:19:47			0	37975	0	0	0	21207	19780	163095	27258	1056660	46338	107780	0	0	8211	567489	0	0
2024-10-20 04:20:47			0	37957	0	0	0	21207	19790	163123	27222	1056696	46338	107780	0	0	8210	568181	0	0
2024-10-20 04:21:47			0	37966	0	0	0	21205	19780	163095	27312	1056598	46349	107779	0	0	8211	567851	0	0
2024-10-20 04:22:47			0	37967	0	0	0	21210	19780	163135	27320	1056678	46349	107781	0	0	8211	567811	0	0
2024-10-20 04:23:47			0	37955	0	0	0	21197	19780	163171	27124	1056554	46350	107776	0	0	8210	568293	0	0
2024-10-20 04:24:47			0	37952	0	0	0	21197	19780	163115	26890	1056625	46360	107776	0	0	8210	568413	0	0
2024-10-20 04:25:47			0	37955	0	0	0	21181	19760	163127	27064	1056598	46359	107770	0	0	8210	568355	0	0
2024-10-20 04:26:47			0	37950	0	0	0	21181	19770	163211	27213	1056642	46336	107770	0	0	8210	568525	0	0
2024-10-20 04:27:47			0	37926	0	0	0	21194	19770	163163	27294	1056500	46336	107775	0	0	8209	569491	0	0
2024-10-20 04:28:47			0	37925	0	0	0	21187	19770	163307	27467	1056580	46326	107772	0	0	8209	569531	0	0
2024-10-20 04:29:47			0	37909	0	0	0	21179	19760	163275	27173	1056518	46336	107769	0	0	8208	570206	0	0
2024-10-20 04:30:47			0	37909	0	0	0	21189	19750	163323	27279	1056553	46345	107773	0	0	8208	570238	0	0
2024-10-20 04:31:47			0	37912	0	0	0	21189	19770	163291	27334	1056580	46336	107773	0	0	8208	570054	0	0
2024-10-20 04:32:47			0	37923	0	0	0	21184	19760	163327	27145	1056571	46348	107771	0	0	8209	569643	0	0
2024-10-20 04:33:47			0	37895	0	0	0	21181	19760	163355	26967	1056545	46359	107770	0	0	8207	570771	0	0
2024-10-20 04:34:47			0	37917	0	0	0	21187	19760	163371	27498	1056571	46359	107772	0	0	8208	569884	0	0
2024-10-20 04:35:47			0	37885	0	0	0	21179	19760	163395	27371	1056536	46358	107769	0	0	8206	571174	0	0
2024-10-20 04:36:47			0	37900	0	0	0	21189	19760	163347	27322	1056571	46348	107773	0	0	8207	570569	0	0
2024-10-20 04:37:47			0	37903	0	0	0	21192	19760	163419	27121	1056483	46347	107774	0	0	8207	570448	0	0
2024-10-20 04:38:47			0	37922	0	0	0	21207	19760	163379	27154	1056518	46359	107780	0	0	8208	569683	0	0
2024-10-20 04:39:47			0	37917	0	0	0	21202	19760	163323	27227	1056562	46358	107778	0	0	8208	569884	0	0
2024-10-20 04:40:47			0	37914	0	0	0	21197	19760	163363	27345	1056571	46348	107776	0	0	8208	570005	0	0
2024-10-20 04:41:47			0	37927	0	0	0	21189	19750	163351	27429	1056553	46357	107773	0	0	8209	569513	0	0
2024-10-20 04:42:47			0	37933	0	0	0	21189	19750	163367	27095	1056553	46357	107773	0	0	8209	569272	0	0
2024-10-20 04:43:47			0	37930	0	0	0	21205	19760	163375	27326	1056589	46347	107779	0	0	8209	569361	0	0
2024-10-20 04:44:47			0	37928	0	0	0	21199	19770	163335	27135	1056633	46348	107777	0	0	8209	569410	0	0
2024-10-20 04:45:47			0	37896	0	0	0	21179	19760	163231	27039	1056589	46347	107769	0	0	8207	570730	0	0
2024-10-20 04:46:47			0	37910	0	0	0	21184	19760	163415	27161	1056536	46347	107771	0	0	8208	570166	0	0
2024-10-20 04:47:47			0	37902	0	0	0	21184	19760	163343	27301	1056545	46348	107771	0	0	8207	570489	0	0
2024-10-20 04:48:47			0	37905	0	0	0	21189	19760	163351	26887	1056571	46348	107773	0	0	8207	570368	0	0
2024-10-20 04:49:47			0	37904	0	0	0	21187	19760	163299	27053	1056571	46348	107772	0	0	8207	570408	0	0
2024-10-20 04:50:47			0	37900	0	0	0	21184	19760	163263	27327	1056545	46348	107771	0	0	8207	570569	0	0
2024-10-20 04:51:47			0	37891	0	0	0	21187	19760	163375	27027	1056615	46347	107772	0	0	8207	570932	0	0
2024-10-20 04:52:47			0	37896	0	0	0	21187	19760	163371	27376	1056589	46347	107772	0	0	8207	570730	0	0
2024-10-20 04:53:47			0	37899	0	0	0	21194	19760	163347	27053	1056615	46369	107775	0	0	8207	570610	0	0
2024-10-20 04:54:47			0	37910	0	0	0	21187	19760	163295	27296	1056589	46347	107772	0	0	8208	570166	0	0
2024-10-20 04:55:47			0	37892	0	0	0	21187	19750	163459	27131	1056553	46345	107772	0	0	8207	570923	0	0
2024-10-20 04:56:47			0	37898	0	0	0	21187	19760	163275	27088	1056589	46347	107772	0	0	8207	570650	0	0
2024-10-20 04:57:47			0	37896	0	0	0	21197	19760	163499	27090	1056536	46347	107776	0	0	8207	570730	0	0
2024-10-20 04:58:47			0	37902	0	0	0	21197	19760	163351	27352	1056536	46347	107776	0	0	8207	570489	0	0
2024-10-20 04:59:47			0	37912	0	0	0	21192	19760	163331	27116	1056509	46358	107774	0	0	8208	570086	0	0
2024-10-20 05:00:47			0	37898	0	0	0	21212	19760	163343	27274	1056536	46358	107782	0	0	8207	570650	0	0
2024-10-20 05:01:47			0	37920	0	0	0	21205	19760	163315	27234	1056562	46347	107779	0	0	8208	569764	0	0
2024-10-20 05:02:47			0	37920	0	0	0	21202	19760	163239	27123	1056562	46358	107778	0	0	8208	569764	0	0
2024-10-20 05:03:47			0	37931	0	0	0	21202	19770	163287	27452	1056580	46348	107778	0	0	8209	569289	0	0
2024-10-20 05:04:47			0	37917	0	0	0	21187	19760	163319	27438	1056598	46348	107772	0	0	8208	569884	0	0
2024-10-20 05:05:47			0	37921	0	0	0	21192	19760	163347	27485	1056562	46358	107774	0	0	8208	569723	0	0
2024-10-20 05:06:47			0	37922	0	0	0	21189	19770	163327	27180	1056633	46359	107773	0	0	8208	569652	0	0
2024-10-20 05:07:47			0	37905	0	0	0	21197	19760	163371	27355	1056545	46359	107776	0	0	8207	570368	0	0
2024-10-20 05:08:47			0	37902	0	0	0	21194	19760	163387	27360	1056562	46358	107775	0	0	8207	570489	0	0
2024-10-20 05:09:47			0	37897	0	0	0	21197	19760	163419	27495	1056545	46348	107776	0	0	8207	570690	0	0
2024-10-20 05:10:47			0	37901	0	0	0	21194	19760	163375	27215	1056545	46359	107775	0	0	8207	570529	0	0
2024-10-20 05:11:47			0	37888	0	0	0	21187	19750	163383	26970	1056571	46357	107772	0	0	8206	571084	0	0
2024-10-20 05:12:47			0	37883	0	0	0	21192	19750	163547	27409	1056518	46345	107774	0	0	8206	571286	0	0
2024-10-20 05:13:47			0	37874	0	0	0	21179	19760	163523	27085	1056518	46336	107769	0	0	8206	571618	0	0
2024-10-20 05:14:47			0	37883	0	0	0	21179	19770	163439	27043	1056500	46359	107769	0	0	8206	571223	0	0
2024-10-20 05:15:47			0	37888	0	0	0	21184	19760	163547	27126	1056615	46347	107771	0	0	8206	571053	0	0
2024-10-20 05:16:47			0	37887	0	0	0	21184	19750	163471	27265	1056474	46345	107771	0	0	8206	571125	0	0
2024-10-20 05:17:47			0	37877	0	0	0	21171	19740	163375	27331	1056509	46345	107766	0	0	8206	571560	0	0
2024-10-20 05:18:47			0	37877	0	0	0	21189	19750	163483	27135	1056527	46345	107773	0	0	8206	571528	0	0
2024-10-20 05:19:47			0	37861	0	0	0	21179	19740	163439	27407	1056509	46345	107769	0	0	8205	572205	0	0
2024-10-20 05:20:47			0	37885	0	0	0	21181	19750	163415	27119	1056527	46334	107770	0	0	8206	571205	0	0
2024-10-20 05:21:47			0	37876	0	0	0	21184	19760	163483	27434	1056562	46358	107771	0	0	8206	571537	0	0
2024-10-20 05:22:47			0	37886	0	0	0	21184	19750	163499	26979	1056580	46334	107771	0	0	8206	571165	0	0
2024-10-20 05:23:47			0	37862	0	0	0	21181	19760	163579	27492	1056536	46347	107770	0	0	8205	572102	0	0
2024-10-20 05:24:47			0	37878	0	0	0	21179	19750	163447	27020	1056580	46357	107769	0	0	8206	571488	0	0
2024-10-20 05:25:47			0	37893	0	0	0	21194	19750	163383	27204	1056474	46357	107775	0	0	8207	570883	0	0
2024-10-20 05:26:47			0	37881	0	0	0	21194	19750	163367	27275	1056633	46334	107775	0	0	8206	571367	0	0
2024-10-20 05:27:47			0	37879	0	0	0	21197	19750	163491	27332	1056544	46378	107776	0	0	8206	571447	0	0
2024-10-20 05:28:47			0	37910	0	0	0	21189	19750	163447	27332	1056518	46345	107773	0	0	8208	570198	0	0
2024-10-20 05:29:47			0	37900	0	0	0	21194	19750	163415	27322	1056580	46345	107775	0	0	8207	570601	0	0
2024-10-20 05:30:47			0	37925	0	0	0	21197	19750	163279	27050	1056527	46357	107776	0	0	8208	569594	0	0
2024-10-20 05:31:47			0	37903	0	0	0	21199	19750	163407	27066	1056544	46368	107777	0	0	8207	570480	0	0
2024-10-20 05:32:47			0	37919	0	0	0	21197	19750	163355	27256	1056544	46334	107776	0	0	8208	569835	0	0
2024-10-20 05:33:47			0	37912	0	0	0	21189	19750	163375	27317	1056571	46345	107773	0	0	8208	570117	0	0
2024-10-20 05:34:47			0	37912	0	0	0	21194	19750	163371	27371	1056580	46357	107775	0	0	8208	570117	0	0
2024-10-20 05:35:47			0	37914	0	0	0	21197	19750	163335	27176	1056553	46357	107776	0	0	8208	570036	0	0
2024-10-20 05:36:47			0	37927	0	0	0	21197	19760	163327	27357	1056562	46347	107776	0	0	8209	569482	0	0
2024-10-20 05:37:47			0	37942	0	0	0	21194	19760	163303	27083	1056677	46348	107775	0	0	8209	568878	0	0
2024-10-20 05:38:47			0	37952	0	0	0	21202	19760	163247	27417	1056545	46359	107778	0	0	8210	568476	0	0
2024-10-20 05:39:47			0	37945	0	0	0	21199	19750	163167	27431	1056553	46345	107777	0	0	8210	568789	0	0
2024-10-20 05:40:47			0	37949	0	0	0	21192	19760	163263	27334	1056536	46347	107774	0	0	8210	568597	0	0
2024-10-20 05:41:47			0	37925	0	0	0	21181	19750	163283	27390	1056553	46334	107770	0	0	8209	569594	0	0
2024-10-20 05:42:47			0	37925	0	0	0	21189	19750	163351	27282	1056553	46357	107773	0	0	8209	569594	0	0
2024-10-20 05:43:47			0	37928	0	0	0	21202	19760	163235	27530	1056598	46359	107778	0	0	8209	569441	0	0
2024-10-20 05:44:47			0	37949	0	0	0	21199	19760	163195	26955	1056562	46358	107777	0	0	8210	568597	0	0
2024-10-20 05:45:47			0	37956	0	0	0	21199	19760	163151	27230	1056651	46348	107777	0	0	8210	568315	0	0
2024-10-20 05:46:47			0	37972	0	0	0	21194	19760	163039	26994	1056562	46347	107775	0	0	8211	567672	0	0
2024-10-20 05:47:47			0	37987	0	0	0	21194	19760	163107	27246	1056598	46326	107775	0	0	8212	567070	0	0
2024-10-20 05:48:47			0	37956	0	0	0	21202	19760	163115	26996	1056589	46347	107778	0	0	8210	568315	0	0
2024-10-20 05:49:47			0	37993	0	0	0	21205	19770	163031	27031	1056607	46359	107779	0	0	8212	566798	0	0
2024-10-20 05:50:47			0	37996	0	0	0	21199	19770	162987	27118	1056633	46348	107777	0	0	8213	566677	0	0
2024-10-20 05:51:47			0	37992	0	0	0	21197	19770	162999	27253	1056580	46348	107776	0	0	8212	566838	0	0
2024-10-20 05:52:47			0	38000	0	0	0	21202	19760	162879	27228	1056598	46348	107778	0	0	8213	566548	0	0
2024-10-20 05:53:47			0	38005	0	0	0	21197	19760	162939	27062	1056598	46359	107776	0	0	8213	566347	0	0
2024-10-20 05:54:47			0	37998	0	0	0	21197	19760	162991	27357	1056624	46348	107776	0	0	8213	566628	0	0
2024-10-20 05:55:47			0	38007	0	0	0	21202	19770	163003	27206	1056589	46348	107778	0	0	8213	566236	0	0
2024-10-20 05:56:47			0	38017	0	0	0	21199	19770	163003	27275	1056642	46336	107777	0	0	8214	565835	0	0
2024-10-20 05:57:47			0	38017	0	0	0	21202	19760	162891	27350	1056651	46359	107778	0	0	8214	565866	0	0
2024-10-20 05:58:47			0	38009	0	0	0	21194	19760	163003	27294	1056571	46348	107775	0	0	8213	566187	0	0
2024-10-20 05:59:47			0	38019	0	0	0	21202	19760	162987	27277	1056598	46336	107778	0	0	8214	565786	0	0
2024-10-20 06:00:47			0	38015	0	0	0	21207	19770	163007	27133	1056616	46359	107780	0	0	8214	565915	0	0
2024-10-20 06:01:47			0	38023	0	0	0	21205	19770	163127	27246	1056642	46348	107779	0	0	8214	565595	0	0
2024-10-20 06:02:47			0	37995	0	0	0	21202	19760	163095	27306	1056483	46347	107778	0	0	8212	566749	0	0
2024-10-20 06:03:47			0	38007	0	0	0	21199	19760	163075	27267	1056598	46370	107777	0	0	8213	566267	0	0
2024-10-20 06:04:47			0	37995	0	0	0	21202	19770	163119	27498	1056607	46348	107778	0	0	8213	566717	0	0
2024-10-20 06:05:47			0	37996	0	0	0	21205	19770	163031	27308	1056642	46348	107779	0	0	8213	566677	0	0
2024-10-20 06:06:47			0	38008	0	0	0	21197	19760	162967	27509	1056624	46359	107776	0	0	8213	566227	0	0
2024-10-20 06:07:47			0	37994	0	0	0	21199	19760	162919	27426	1056651	46359	107777	0	0	8212	566789	0	0
2024-10-20 06:08:47			0	38005	0	0	0	21197	19760	163075	27235	1056651	46359	107776	0	0	8213	566347	0	0
2024-10-20 06:09:47			0	38029	0	0	0	21202	19760	162979	27419	1056562	46358	107778	0	0	8214	565385	0	0
2024-10-20 06:10:47			0	38005	0	0	0	21199	19770	163039	27282	1056633	46359	107777	0	0	8213	566316	0	0
2024-10-20 06:11:47			0	37994	0	0	0	21197	19760	163007	27341	1056598	46348	107776	0	0	8212	566789	0	0
2024-10-20 06:12:47			0	38005	0	0	0	21194	19770	163011	27126	1056633	46336	107775	0	0	8213	566316	0	0
2024-10-20 06:13:47			0	38005	0	0	0	21199	19770	162963	27083	1056660	46348	107777	0	0	8213	566316	0	0
2024-10-20 06:14:47			0	38010	0	0	0	21197	19770	162875	27334	1056642	46348	107776	0	0	8213	566116	0	0
2024-10-20 06:15:47			0	38014	0	0	0	21194	19770	163111	27338	1056563	46348	107775	0	0	8214	565955	0	0
2024-10-20 06:16:47			0	38008	0	0	0	21199	19770	163019	27301	1056616	46359	107777	0	0	8213	566196	0	0
2024-10-20 06:17:47			0	38003	0	0	0	21202	19760	163107	27559	1056677	46359	107778	0	0	8213	566428	0	0
2024-10-20 06:18:47			0	38000	0	0	0	21202	19770	163019	27450	1056633	46359	107778	0	0	8213	566517	0	0
2024-10-20 06:19:47			0	38014	0	0	0	21202	19760	162911	27166	1056677	46348	107778	0	0	8214	565986	0	0
2024-10-20 06:20:47			0	38012	0	0	0	21205	19770	162907	27175	1056616	46359	107779	0	0	8213	566035	0	0
2024-10-20 06:21:47			0	38013	0	0	0	21205	19760	162871	27013	1056598	46370	107779	0	0	8213	566027	0	0
2024-10-20 06:22:47			0	38007	0	0	0	21194	19760	163035	27175	1056651	46348	107775	0	0	8213	566267	0	0
2024-10-20 06:23:47			0	37993	0	0	0	21187	19770	162943	27313	1056660	46359	107772	0	0	8213	566798	0	0
2024-10-20 06:24:47			0	37999	0	0	0	21197	19760	162931	27022	1056589	46358	107776	0	0	8213	566588	0	0
2024-10-20 06:25:47			0	37987	0	0	0	21194	19760	162907	27067	1056669	46369	107775	0	0	8212	567070	0	0
2024-10-20 06:26:47			0	37974	0	0	0	21187	19760	163011	27017	1056598	46326	107772	0	0	8211	567592	0	0
2024-10-20 06:27:47			0	37986	0	0	0	21197	19760	163107	27078	1056562	46347	107776	0	0	8212	567110	0	0
2024-10-20 06:28:47			0	37974	0	0	0	21189	19760	163043	27400	1056615	46347	107773	0	0	8211	567592	0	0
2024-10-20 06:29:47			0	37984	0	0	0	21192	19760	162951	27490	1056562	46358	107774	0	0	8212	567190	0	0
2024-10-20 06:30:47			0	37997	0	0	0	21197	19770	162951	27235	1056536	46348	107776	0	0	8213	566637	0	0
2024-10-20 06:31:47			0	38004	0	0	0	21205	19770	163039	27144	1056589	46336	107779	0	0	8213	566356	0	0
2024-10-20 06:32:47			0	37998	0	0	0	21202	19770	162995	27386	1056607	46348	107778	0	0	8213	566597	0	0
2024-10-20 06:33:47			0	37994	0	0	0	21194	19760	163011	27431	1056598	46336	107775	0	0	8213	566789	0	0
2024-10-20 06:34:47			0	38009	0	0	0	21192	19770	163023	27177	1056616	46348	107774	0	0	8214	566156	0	0
2024-10-20 06:35:47			0	37985	0	0	0	21189	19770	163127	27434	1056607	46336	107773	0	0	8212	567119	0	0
2024-10-20 06:36:47			0	37986	0	0	0	21192	19760	163059	27251	1056598	46359	107774	0	0	8212	567110	0	0
2024-10-20 06:37:47			0	37988	0	0	0	21199	19760	163035	27159	1056615	46358	107777	0	0	8212	567030	0	0
2024-10-20 06:38:47			0	37975	0	0	0	21194	19760	163039	27566	1056615	46369	107775	0	0	8211	567552	0	0
2024-10-20 06:39:47			0	37981	0	0	0	21194	19750	163031	27100	1056606	46357	107775	0	0	8212	567342	0	0
2024-10-20 06:40:47			0	37972	0	0	0	21192	19760	163055	27133	1056624	46348	107774	0	0	8211	567672	0	0
2024-10-20 06:41:47			0	37971	0	0	0	21189	19760	163167	27060	1056624	46359	107773	0	0	8211	567712	0	0
2024-10-20 06:42:47			0	37996	0	0	0	21197	19750	163035	27287	1056606	46345	107776	0	0	8213	566740	0	0
2024-10-20 06:43:47			0	37998	0	0	0	21202	19770	163111	27301	1056607	46359	107778	0	0	8213	566597	0	0
2024-10-20 06:44:47			0	37962	0	0	0	21194	19760	163015	27140	1056651	46359	107775	0	0	8211	568074	0	0
2024-10-20 06:45:47			0	37980	0	0	0	21199	19760	163051	27372	1056624	46359	107777	0	0	8212	567351	0	0
2024-10-20 06:46:47			0	37977	0	0	0	21202	19750	163071	27232	1056633	46368	107778	0	0	8211	567502	0	0
2024-10-20 06:47:47			0	37993	0	0	0	21210	19760	163027	27225	1056562	46358	107781	0	0	8212	566829	0	0
2024-10-20 06:48:47			0	37994	0	0	0	21197	19760	163123	27374	1056598	46348	107776	0	0	8212	566789	0	0
2024-10-20 06:49:47			0	37979	0	0	0	21189	19760	163035	27119	1056571	46348	107773	0	0	8212	567391	0	0
2024-10-20 06:50:47			0	37990	0	0	0	21199	19760	163035	27253	1056562	46358	107777	0	0	8212	566949	0	0
2024-10-20 06:51:47			0	37982	0	0	0	21194	19760	163091	27367	1056624	46348	107775	0	0	8212	567271	0	0
2024-10-20 06:52:47			0	37978	0	0	0	21197	19760	163051	27502	1056624	46359	107776	0	0	8212	567431	0	0
2024-10-20 06:53:47			0	37990	0	0	0	21194	19760	163023	27547	1056562	46358	107775	0	0	8212	566949	0	0
2024-10-20 06:54:47			0	37994	0	0	0	21197	19760	163011	27554	1056615	46358	107776	0	0	8212	566789	0	0
2024-10-20 06:55:47			0	37992	0	0	0	21192	19760	163103	27270	1056624	46380	107774	0	0	8212	566869	0	0
2024-10-20 06:56:47			0	37982	0	0	0	21192	19770	163015	27197	1056580	46359	107774	0	0	8212	567239	0	0
2024-10-20 06:57:47			0	37990	0	0	0	21189	19760	163119	27317	1056571	46336	107773	0	0	8212	566949	0	0
2024-10-20 06:58:47			0	37996	0	0	0	21187	19760	163167	27450	1056624	46348	107772	0	0	8213	566709	0	0
2024-10-20 06:59:47			0	37959	0	0	0	21179	19760	163175	27319	1056624	46336	107769	0	0	8211	568195	0	0
2024-10-20 07:00:47			0	37971	0	0	0	21187	19770	163151	27137	1056554	46348	107772	0	0	8211	567681	0	0
2024-10-20 07:01:47			0	37974	0	0	0	21189	19750	163139	27173	1056544	46345	107773	0	0	8211	567623	0	0
2024-10-20 07:02:47			0	37974	0	0	0	21205	19760	163091	27256	1056624	46348	107779	0	0	8211	567592	0	0
2024-10-20 07:03:47			0	37973	0	0	0	21187	19760	163159	27377	1056669	46347	107772	0	0	8211	567632	0	0
2024-10-20 07:04:47			0	37976	0	0	0	21181	19760	163067	27253	1056589	46335	107770	0	0	8212	567511	0	0
2024-10-20 07:05:47			0	37967	0	0	0	21192	19760	163139	27464	1056598	46359	107774	0	0	8211	567873	0	0
2024-10-20 07:06:47			0	37973	0	0	0	21194	19760	163103	27405	1056562	46358	107775	0	0	8211	567632	0	0
2024-10-20 07:07:47			0	37957	0	0	0	21192	19750	163115	27613	1056544	46345	107774	0	0	8210	568306	0	0
2024-10-20 07:08:47			0	37960	0	0	0	21184	19770	163155	27178	1056589	46348	107771	0	0	8211	568123	0	0
2024-10-20 07:09:47			0	37961	0	0	0	21181	19760	163039	27234	1056615	46335	107770	0	0	8211	568114	0	0
2024-10-20 07:10:47			0	37964	0	0	0	21184	19760	163091	27388	1056509	46347	107771	0	0	8211	567994	0	0
2024-10-20 07:11:47			0	37954	0	0	0	21187	19760	163251	27228	1056483	46347	107772	0	0	8210	568396	0	0
2024-10-20 07:12:47			0	37951	0	0	0	21192	19750	163355	27557	1056553	46345	107774	0	0	8210	568547	0	0
2024-10-20 07:13:47			0	37974	0	0	0	21212	19760	163291	27258	1056536	46347	107782	0	0	8211	567592	0	0
2024-10-20 07:14:47			0	37968	0	0	0	21199	19760	163267	27261	1056669	46347	107777	0	0	8211	567833	0	0
2024-10-20 07:15:47			0	37949	0	0	0	21192	19760	163355	27161	1056669	46369	107774	0	0	8210	568597	0	0
2024-10-20 07:16:47			0	37979	0	0	0	21194	19760	163243	27034	1056624	46348	107775	0	0	8212	567391	0	0
2024-10-20 07:17:47			0	37985	0	0	0	21205	19750	163211	27274	1056580	46357	107779	0	0	8212	567181	0	0
2024-10-20 07:18:47			0	37974	0	0	0	21194	19760	163275	27267	1056562	46347	107775	0	0	8211	567592	0	0
2024-10-20 07:19:47			0	37971	0	0	0	21205	19760	163239	27320	1056651	46359	107779	0	0	8211	567712	0	0
2024-10-20 07:20:47			0	37969	0	0	0	21197	19750	163259	27228	1056606	46357	107776	0	0	8211	567824	0	0
2024-10-20 07:21:47			0	37972	0	0	0	21187	19760	163291	27182	1056562	46369	107772	0	0	8211	567672	0	0
2024-10-20 07:22:47			0	37967	0	0	0	21187	19760	163315	27334	1056589	46347	107772	0	0	8211	567873	0	0
2024-10-20 07:23:47			0	37946	0	0	0	21184	19760	163255	27092	1056677	46348	107771	0	0	8210	568717	0	0
2024-10-20 07:24:47			0	37961	0	0	0	21174	19750	163335	27150	1056580	46334	107767	0	0	8211	568145	0	0
2024-10-20 07:25:47			0	37936	0	0	0	21181	19760	163359	27060	1056589	46347	107770	0	0	8209	569119	0	0
2024-10-20 07:26:47			0	37944	0	0	0	21179	19750	163471	26863	1056553	46357	107769	0	0	8210	568829	0	0
2024-10-20 07:27:47			0	37940	0	0	0	21184	19760	163375	27398	1056589	46335	107771	0	0	8210	568959	0	0
2024-10-20 07:28:47			0	37939	0	0	0	21179	19750	163375	27267	1056527	46345	107769	0	0	8210	569030	0	0
2024-10-20 07:29:47			0	37937	0	0	0	21179	19760	163431	27336	1056624	46348	107769	0	0	8209	569079	0	0
2024-10-20 07:30:47			0	37935	0	0	0	21179	19760	163435	27757	1056562	46335	107769	0	0	8209	569160	0	0
2024-10-20 07:31:47			0	37918	0	0	0	21189	19750	163443	27379	1056553	46368	107773	0	0	8208	569875	0	0
2024-10-20 07:32:47			0	37913	0	0	0	21184	19760	163355	27440	1056589	46347	107771	0	0	8208	570045	0	0
2024-10-20 07:33:47			0	37936	0	0	0	21179	19750	163415	27493	1056518	46345	107769	0	0	8209	569151	0	0
2024-10-20 07:34:47			0	37937	0	0	0	21168	19750	163311	27230	1056553	46357	107765	0	0	8210	569111	0	0
2024-10-20 07:35:47			0	37934	0	0	0	21163	19750	163423	27500	1056606	46324	107763	0	0	8209	569231	0	0
2024-10-20 07:36:47			0	37917	0	0	0	21168	19740	163495	27121	1056509	46345	107765	0	0	8208	569947	0	0
2024-10-20 07:37:47			0	37923	0	0	0	21161	19740	163475	27170	1056509	46345	107762	0	0	8209	569705	0	0
2024-10-20 07:38:47			0	37918	0	0	0	21176	19750	163487	27435	1056553	46334	107768	0	0	8208	569875	0	0
2024-10-20 07:39:47			0	37918	0	0	0	21174	19740	163495	27222	1056535	46334	107767	0	0	8208	569907	0	0
2024-10-20 07:40:47			0	37926	0	0	0	21181	19750	163303	27336	1056544	46368	107770	0	0	8209	569553	0	0
2024-10-20 07:41:47			0	37941	0	0	0	21184	19740	163379	27300	1056535	46368	107771	0	0	8209	568981	0	0
2024-10-20 07:42:47			0	37936	0	0	0	21184	19750	163323	27379	1056571	46345	107771	0	0	8209	569151	0	0
2024-10-20 07:43:47			0	37944	0	0	0	21192	19750	163255	27528	1056624	46345	107774	0	0	8210	568829	0	0
2024-10-20 07:44:47			0	37957	0	0	0	21184	19740	163383	27568	1056562	46368	107771	0	0	8210	568337	0	0
2024-10-20 07:45:47			0	37953	0	0	0	21189	19750	163255	27500	1056580	46345	107773	0	0	8210	568467	0	0
2024-10-20 07:46:47			0	37952	0	0	0	21187	19750	163315	27086	1056518	46345	107772	0	0	8210	568507	0	0
2024-10-20 07:47:47			0	37934	0	0	0	21179	19750	163275	27244	1056624	46345	107769	0	0	8209	569231	0	0
2024-10-20 07:48:47			0	37934	0	0	0	21181	19750	163471	27668	1056544	46357	107770	0	0	8209	569231	0	0
2024-10-20 07:49:47			0	37933	0	0	0	21189	19750	163415	27072	1056553	46345	107773	0	0	8209	569272	0	0
2024-10-20 07:50:47			0	37906	0	0	0	21166	19750	163415	27357	1056580	46357	107764	0	0	8208	570359	0	0
2024-10-20 07:51:47			0	37922	0	0	0	21179	19750	163419	27211	1056500	46357	107769	0	0	8209	569714	0	0
2024-10-20 07:52:47			0	37910	0	0	0	21174	19750	163519	27079	1056597	46345	107767	0	0	8208	570198	0	0
2024-10-20 07:53:47			0	37919	0	0	0	21187	19750	163431	27293	1056553	46345	107772	0	0	8208	569835	0	0
2024-10-20 07:54:47			0	37918	0	0	0	21189	19750	163379	27175	1056491	46357	107773	0	0	8208	569875	0	0
2024-10-20 07:55:47			0	37929	0	0	0	21176	19760	163315	27634	1056483	46335	107768	0	0	8209	569401	0	0
2024-10-20 07:56:47			0	37925	0	0	0	21181	19760	163395	27457	1056589	46347	107770	0	0	8209	569562	0	0
2024-10-20 07:57:47			0	37919	0	0	0	21189	19750	163403	27147	1056527	46368	107773	0	0	8208	569835	0	0
2024-10-20 07:58:47			0	37921	0	0	0	21199	19750	163411	26975	1056597	46357	107777	0	0	8208	569755	0	0
2024-10-20 07:59:47			0	37933	0	0	0	21189	19750	163431	27462	1056580	46345	107773	0	0	8209	569272	0	0
2024-10-20 08:00:47			0	37943	0	0	0	21189	19750	163295	27261	1056660	46357	107773	0	0	8210	568869	0	0
2024-10-20 08:01:47			0	37936	0	0	0	21187	19750	163319	26885	1056606	46345	107772	0	0	8209	569151	0	0
2024-10-20 08:02:47			0	37944	0	0	0	21184	19750	163391	27093	1056633	46345	107771	0	0	8210	568829	0	0
2024-10-20 08:03:47			0	37942	0	0	0	21184	19750	163367	27072	1056580	46345	107771	0	0	8210	568909	0	0
2024-10-20 08:04:47			0	37919	0	0	0	21181	19750	163583	27171	1056571	46368	107770	0	0	8208	569835	0	0
2024-10-20 08:05:47			0	37920	0	0	0	21184	19750	163595	26942	1056606	46345	107771	0	0	8208	569795	0	0
2024-10-20 08:06:47			0	37937	0	0	0	21181	19750	163503	27197	1056633	46345	107770	0	0	8209	569111	0	0
2024-10-20 08:07:47			0	37920	0	0	0	21179	19760	163459	27261	1056562	46358	107769	0	0	8208	569764	0	0
2024-10-20 08:08:47			0	37923	0	0	0	21192	19760	163383	27524	1056642	46358	107774	0	0	8208	569643	0	0
2024-10-20 08:09:47			0	37937	0	0	0	21181	19760	163355	27365	1056571	46348	107770	0	0	8209	569079	0	0
2024-10-20 08:10:47			0	37926	0	0	0	21189	19750	163343	27255	1056633	46345	107773	0	0	8209	569553	0	0
2024-10-20 08:11:47			0	37912	0	0	0	21192	19750	163363	27010	1056553	46357	107774	0	0	8208	570117	0	0
2024-10-20 08:12:47			0	37942	0	0	0	21192	19750	163411	27388	1056571	46345	107774	0	0	8209	568909	0	0
2024-10-20 08:13:47			0	37921	0	0	0	21189	19760	163443	27317	1056651	46359	107773	0	0	8208	569723	0	0
2024-10-20 08:14:47			0	37940	0	0	0	21192	19760	163475	27267	1056562	46369	107774	0	0	8209	568959	0	0
2024-10-20 08:15:47			0	37932	0	0	0	21192	19760	163407	27268	1056624	46348	107774	0	0	8209	569280	0	0
2024-10-20 08:16:47			0	37930	0	0	0	21207	19750	163415	27171	1056606	46357	107780	0	0	8209	569392	0	0
2024-10-20 08:17:47			0	37950	0	0	0	21192	19750	163287	27400	1056660	46357	107774	0	0	8210	568588	0	0
2024-10-20 08:18:47			0	37948	0	0	0	21189	19760	163403	27300	1056624	46348	107773	0	0	8210	568637	0	0
2024-10-20 08:19:47			0	37947	0	0	0	21184	19760	163343	27066	1056615	46347	107771	0	0	8210	568677	0	0
2024-10-20 08:20:47			0	37927	0	0	0	21184	19760	163383	27609	1056571	46348	107771	0	0	8209	569482	0	0
2024-10-20 08:21:47			0	37940	0	0	0	21181	19750	163367	27124	1056597	46357	107770	0	0	8210	568990	0	0
2024-10-20 08:22:47			0	37942	0	0	0	21192	19750	163287	27161	1056553	46345	107774	0	0	8209	568909	0	0
2024-10-20 08:23:47			0	37941	0	0	0	21179	19760	163355	27034	1056598	46348	107769	0	0	8210	568918	0	0
2024-10-20 08:24:47			0	37945	0	0	0	21184	19760	163307	27074	1056562	46347	107771	0	0	8210	568757	0	0
2024-10-20 08:25:47			0	37942	0	0	0	21199	19770	163315	26974	1056660	46336	107777	0	0	8209	568847	0	0
2024-10-20 08:26:47			0	37952	0	0	0	21189	19750	163171	27060	1056553	46345	107773	0	0	8210	568507	0	0
2024-10-20 08:27:47			0	37953	0	0	0	21202	19760	163231	27066	1056562	46358	107778	0	0	8210	568436	0	0
2024-10-20 08:28:47			0	37969	0	0	0	21197	19760	163147	27265	1056642	46347	107776	0	0	8211	567793	0	0
2024-10-20 08:29:47			0	37990	0	0	0	21189	19760	163059	27121	1056642	46369	107773	0	0	8212	566949	0	0
2024-10-20 08:30:47			0	37975	0	0	0	21199	19760	163143	27332	1056651	46336	107777	0	0	8211	567552	0	0
2024-10-20 08:31:47			0	37974	0	0	0	21192	19760	163155	27298	1056598	46348	107774	0	0	8211	567592	0	0
2024-10-20 08:32:47			0	37979	0	0	0	21181	19760	163063	27170	1056677	46359	107770	0	0	8212	567391	0	0
2024-10-20 08:33:47			0	37975	0	0	0	21194	19760	163131	27419	1056651	46348	107775	0	0	8211	567552	0	0
2024-10-20 08:34:47			0	37981	0	0	0	21205	19760	163027	27092	1056677	46348	107779	0	0	8212	567311	0	0
2024-10-20 08:35:47			0	37982	0	0	0	21207	19760	163003	27168	1056695	46347	107780	0	0	8212	567271	0	0
2024-10-20 08:36:47			0	38003	0	0	0	21215	19760	162935	27405	1056651	46348	107783	0	0	8213	566428	0	0
2024-10-20 08:37:47			0	38002	0	0	0	21215	19760	162843	27248	1056704	46348	107783	0	0	8213	566468	0	0
2024-10-20 08:38:47			0	38002	0	0	0	21210	19760	162843	27202	1056704	46359	107781	0	0	8213	566468	0	0
2024-10-20 08:39:47			0	38004	0	0	0	21212	19770	162807	27514	1056660	46370	107782	0	0	8213	566356	0	0
2024-10-20 08:40:47			0	38018	0	0	0	21215	19770	162804	27428	1056695	46359	107783	0	0	8214	565795	0	0
2024-10-20 08:41:47			0	38021	0	0	0	21218	19780	162828	27390	1056704	46349	107784	0	0	8214	565644	0	0
2024-10-20 08:42:47			0	38027	0	0	0	21218	19770	162763	27563	1056722	46359	107784	0	0	8214	565434	0	0
2024-10-20 08:43:47			0	38050	0	0	0	21215	19770	162716	27118	1056669	46348	107783	0	0	8216	564513	0	0
2024-10-20 08:44:47			0	38048	0	0	0	21223	19780	162748	27313	1056713	46338	107786	0	0	8215	564562	0	0
2024-10-20 08:45:47			0	38054	0	0	0	21215	19770	162732	27362	1056695	46348	107783	0	0	8216	564353	0	0
2024-10-20 08:46:47			0	38030	0	0	0	21207	19780	162728	27333	1056713	46350	107780	0	0	8215	565283	0	0
2024-10-20 08:47:47			0	38046	0	0	0	21205	19770	162700	27230	1056722	46348	107779	0	0	8215	564673	0	0
2024-10-20 08:48:47			0	38048	0	0	0	21205	19770	162796	27485	1056722	46336	107779	0	0	8216	564593	0	0
2024-10-20 08:49:47			0	38041	0	0	0	21215	19780	162856	27415	1056651	46349	107783	0	0	8215	564842	0	0
2024-10-20 08:50:47			0	38049	0	0	0	21220	19780	162692	27248	1056687	46350	107785	0	0	8215	564522	0	0
2024-10-20 08:51:47			0	38056	0	0	0	21205	19770	162652	27277	1056775	46359	107779	0	0	8216	564273	0	0
2024-10-20 08:52:47			0	38060	0	0	0	21210	19780	162708	27360	1056687	46361	107781	0	0	8216	564082	0	0
2024-10-20 08:53:47			0	38041	0	0	0	21212	19780	162684	27400	1056731	46349	107782	0	0	8215	564842	0	0
2024-10-20 08:54:47			0	38070	0	0	0	21205	19780	162636	27670	1056704	46360	107779	0	0	8217	563682	0	0
2024-10-20 08:55:47			0	38077	0	0	0	21212	19780	162536	27338	1056678	46360	107782	0	0	8217	563402	0	0
2024-10-20 08:56:47			0	38079	0	0	0	21210	19780	162688	27255	1056704	46360	107781	0	0	8217	563322	0	0
2024-10-20 08:57:47			0	38067	0	0	0	21218	19770	162668	27265	1056695	46348	107784	0	0	8216	563833	0	0
2024-10-20 08:58:47			0	38076	0	0	0	21212	19770	162736	26972	1056669	46359	107782	0	0	8217	563473	0	0
2024-10-20 08:59:47			0	38074	0	0	0	21215	19770	162604	26991	1056749	46336	107783	0	0	8217	563553	0	0
2024-10-20 09:00:47			0	38080	0	0	0	21202	19780	162512	27112	1056757	46360	107778	0	0	8218	563282	0	0
2024-10-20 09:01:47			0	38086	0	0	0	21210	19780	162608	27052	1056704	46360	107781	0	0	8218	563042	0	0
2024-10-20 09:02:47			0	38099	0	0	0	21205	19770	162512	27339	1056722	46348	107779	0	0	8219	562554	0	0
2024-10-20 09:03:47			0	38093	0	0	0	21212	19780	162512	27417	1056678	46349	107782	0	0	8218	562762	0	0
2024-10-20 09:04:47			0	38110	0	0	0	21218	19770	162548	27663	1056695	46336	107784	0	0	8219	562114	0	0
2024-10-20 09:05:47			0	38125	0	0	0	21223	19780	162484	27060	1056766	46361	107786	0	0	8220	561485	0	0
2024-10-20 09:06:47			0	38114	0	0	0	21210	19770	162472	27332	1056695	46348	107781	0	0	8219	561955	0	0
2024-10-20 09:07:47			0	38120	0	0	0	21223	19780	162420	27190	1056740	46361	107786	0	0	8220	561684	0	0
2024-10-20 09:08:47			0	38115	0	0	0	21220	19780	162444	27336	1056757	46349	107785	0	0	8219	561884	0	0
2024-10-20 09:09:47			0	38126	0	0	0	21220	19780	162288	27192	1056757	46349	107785	0	0	8220	561445	0	0
2024-10-20 09:10:47			0	38149	0	0	0	21220	19790	162312	27144	1056722	46361	107785	0	0	8221	560497	0	0
2024-10-20 09:11:47			0	38124	0	0	0	21220	19780	162392	27208	1056740	46350	107785	0	0	8220	561525	0	0
2024-10-20 09:12:47			0	38130	0	0	0	21215	19770	162324	27460	1056775	46359	107783	0	0	8220	561316	0	0
2024-10-20 09:13:47			0	38128	0	0	0	21218	19780	162396	27339	1056731	46337	107784	0	0	8220	561365	0	0
2024-10-20 09:14:47			0	38143	0	0	0	21218	19790	162340	27511	1056784	46338	107784	0	0	8221	560736	0	0
2024-10-20 09:15:47			0	38129	0	0	0	21220	19780	162420	27351	1056766	46338	107785	0	0	8220	561325	0	0
2024-10-20 09:16:47			0	38143	0	0	0	21225	19790	162328	27144	1056775	46350	107787	0	0	8221	560736	0	0
2024-10-20 09:17:47			0	38143	0	0	0	21220	19790	162268	27329	1056775	46350	107785	0	0	8221	560736	0	0
2024-10-20 09:18:47			0	38143	0	0	0	21218	19780	162304	27345	1056766	46361	107784	0	0	8221	560767	0	0
2024-10-20 09:19:47			0	38158	0	0	0	21218	19790	162312	27376	1056784	46350	107784	0	0	8222	560139	0	0
2024-10-20 09:20:47			0	38144	0	0	0	21220	19780	162328	27178	1056793	46361	107785	0	0	8221	560727	0	0
2024-10-20 09:21:47			0	38154	0	0	0	21212	19780	162316	27142	1056766	46350	107782	0	0	8222	560329	0	0
2024-10-20 09:22:47			0	38158	0	0	0	21212	19790	162340	27220	1056722	46350	107782	0	0	8222	560139	0	0
2024-10-20 09:23:47			0	38153	0	0	0	21212	19780	162336	27313	1056740	46350	107782	0	0	8222	560369	0	0
2024-10-20 09:24:47			0	38168	0	0	0	21223	19790	162340	27157	1056775	46350	107786	0	0	8222	559740	0	0
2024-10-20 09:25:47			0	38153	0	0	0	21220	19770	162256	27036	1056722	46370	107785	0	0	8222	560399	0	0
2024-10-20 09:26:47			0	38173	0	0	0	21225	19780	162204	27516	1056820	46372	107787	0	0	8223	559572	0	0
2024-10-20 09:27:47			0	38166	0	0	0	21228	19780	162348	27369	1056766	46350	107788	0	0	8222	559851	0	0
2024-10-20 09:28:47			0	38185	0	0	0	21212	19790	162272	27234	1056758	46350	107782	0	0	8224	559064	0	0
2024-10-20 09:29:47			0	38181	0	0	0	21218	19780	162268	27537	1056766	46361	107784	0	0	8223	559254	0	0
2024-10-20 09:30:47			0	38167	0	0	0	21218	19790	162316	27055	1056775	46361	107784	0	0	8222	559780	0	0
2024-10-20 09:31:47			0	38172	0	0	0	21225	19780	162240	27260	1056757	46360	107787	0	0	8223	559612	0	0
2024-10-20 09:32:47			0	38172	0	0	0	21223	19780	162224	27152	1056740	46350	107786	0	0	8223	559612	0	0
2024-10-20 09:33:47			0	38168	0	0	0	21220	19780	162340	27478	1056793	46350	107785	0	0	8222	559771	0	0
2024-10-20 09:34:47			0	38194	0	0	0	21207	19780	162228	27459	1056784	46349	107780	0	0	8224	558736	0	0
2024-10-20 09:35:47			0	38181	0	0	0	21218	19780	162248	27222	1056740	46361	107784	0	0	8223	559254	0	0
2024-10-20 09:36:47			0	38178	0	0	0	21225	19780	162312	26835	1056740	46350	107787	0	0	8223	559373	0	0
2024-10-20 09:37:47			0	38183	0	0	0	21236	19780	162224	27400	1056740	46361	107791	0	0	8223	559174	0	0
2024-10-20 09:38:47			0	38197	0	0	0	21249	19800	162188	27348	1056793	46362	107796	0	0	8224	558556	0	0
2024-10-20 09:39:47			0	38199	0	0	0	21262	19780	162188	27369	1056766	46372	107801	0	0	8224	558538	0	0
2024-10-20 09:40:47			0	38193	0	0	0	21259	19790	162180	27383	1056864	46361	107800	0	0	8223	558745	0	0
2024-10-20 09:41:47			0	38189	0	0	0	21251	19800	162260	27464	1056873	46362	107797	0	0	8223	558874	0	0
2024-10-20 09:42:47			0	38203	0	0	0	21244	19800	162240	27400	1056882	46363	107794	0	0	8224	558317	0	0
2024-10-20 09:43:47			0	38223	0	0	0	21249	19800	162184	27294	1056855	46363	107796	0	0	8225	557522	0	0
2024-10-20 09:44:47			0	38197	0	0	0	21246	19800	162152	27196	1056855	46363	107795	0	0	8224	558556	0	0
2024-10-20 09:45:47			0	38200	0	0	0	21238	19810	162192	27341	1056838	46364	107792	0	0	8224	558406	0	0
2024-10-20 09:46:47			0	38189	0	0	0	21238	19800	162112	27166	1056846	46351	107792	0	0	8223	558874	0	0
2024-10-20 09:47:47			0	38222	0	0	0	21231	19790	162192	27194	1056838	46338	107789	0	0	8225	557593	0	0
2024-10-20 09:48:47			0	38219	0	0	0	21236	19800	162072	27466	1056846	46362	107791	0	0	8225	557681	0	0
2024-10-20 09:49:47			0	38217	0	0	0	21236	19810	162156	27421	1056864	46341	107791	0	0	8225	557730	0	0
2024-10-20 09:50:47			0	38195	0	0	0	21238	19800	162048	27571	1056802	46352	107792	0	0	8224	558635	0	0
2024-10-20 09:51:47			0	38202	0	0	0	21251	19800	162012	27566	1056829	46352	107797	0	0	8224	558357	0	0
2024-10-20 09:52:47			0	38224	0	0	0	21246	19800	161988	27400	1056829	46363	107795	0	0	8225	557483	0	0
2024-10-20 09:53:47			0	38227	0	0	0	21246	19790	162108	27428	1056838	46350	107795	0	0	8226	557394	0	0
2024-10-20 09:54:47			0	38240	0	0	0	21249	19800	161988	27048	1056855	46363	107796	0	0	8226	556847	0	0
2024-10-20 09:55:47			0	38234	0	0	0	21257	19810	161980	27616	1056873	46353	107799	0	0	8226	557055	0	0
2024-10-20 09:56:47			0	38227	0	0	0	21264	19810	161888	27492	1056900	46353	107802	0	0	8225	557333	0	0
2024-10-20 09:57:47			0	38228	0	0	0	21267	19810	162020	27469	1056918	46375	107803	0	0	8225	557293	0	0
2024-10-20 09:58:47			0	38242	0	0	0	21262	19820	161920	27440	1056935	46364	107801	0	0	8226	556707	0	0
2024-10-20 09:59:47			0	38238	0	0	0	21262	19810	161972	27661	1056864	46364	107801	0	0	8226	556896	0	0
2024-10-20 10:00:47			0	38238	0	0	0	21262	19810	161968	27438	1056926	46364	107801	0	0	8226	556896	0	0
2024-10-20 10:01:47			0	38236	0	0	0	21249	19820	161816	27376	1056935	46353	107796	0	0	8226	556945	0	0
2024-10-20 10:02:47			0	38248	0	0	0	21262	19820	161852	27180	1056909	46375	107801	0	0	8227	556469	0	0
2024-10-20 10:03:47			0	38250	0	0	0	21262	19820	161816	27568	1056882	46364	107801	0	0	8227	556389	0	0
2024-10-20 10:04:47			0	38257	0	0	0	21262	19820	161756	27280	1056891	46365	107801	0	0	8227	556112	0	0
2024-10-20 10:05:47			0	38255	0	0	0	21267	19820	161784	27562	1056935	46364	107803	0	0	8227	556191	0	0
2024-10-20 10:06:47			0	38269	0	0	0	21272	19820	161808	27472	1056909	46364	107805	0	0	8228	555636	0	0
2024-10-20 10:07:47			0	38272	0	0	0	21264	19820	161788	27119	1056935	46375	107802	0	0	8228	555517	0	0
2024-10-20 10:08:47			0	38268	0	0	0	21272	19820	161768	27416	1056909	46364	107805	0	0	8228	555676	0	0
2024-10-20 10:09:47			0	38276	0	0	0	21272	19830	161816	27575	1056989	46366	107805	0	0	8228	555328	0	0
2024-10-20 10:10:47			0	38287	0	0	0	21275	19820	161748	27833	1056962	46375	107806	0	0	8229	554923	0	0
2024-10-20 10:11:47			0	38300	0	0	0	21275	19830	161696	27334	1056980	46366	107806	0	0	8229	554378	0	0
2024-10-20 10:12:47			0	38289	0	0	0	21277	19830	161624	27731	1057006	46355	107807	0	0	8229	554813	0	0
2024-10-20 10:13:47			0	38289	0	0	0	21280	19840	161760	27750	1057051	46344	107808	0	0	8229	554783	0	0
2024-10-20 10:14:47			0	38301	0	0	0	21280	19830	161632	27438	1056980	46366	107808	0	0	8229	554338	0	0
2024-10-20 10:15:47			0	38309	0	0	0	21290	19840	161684	27802	1056998	46366	107812	0	0	8230	553991	0	0
2024-10-20 10:16:47			0	38284	0	0	0	21288	19840	161680	27467	1057051	46366	107811	0	0	8228	554981	0	0
2024-10-20 10:17:47			0	38305	0	0	0	21283	19830	161628	27414	1056989	46366	107809	0	0	8230	554180	0	0
2024-10-20 10:18:47			0	38305	0	0	0	21293	19840	161756	27490	1057087	46367	107813	0	0	8230	554149	0	0
2024-10-20 10:19:47			0	38313	0	0	0	21293	19850	161672	27315	1057096	46389	107813	0	0	8230	553803	0	0
2024-10-20 10:20:47			0	38302	0	0	0	21288	19850	161684	27563	1057043	46368	107811	0	0	8229	554238	0	0
2024-10-20 10:21:47			0	38285	0	0	0	21293	19840	161680	27157	1057060	46367	107813	0	0	8228	554941	0	0
2024-10-20 10:22:47			0	38307	0	0	0	21298	19850	161604	27372	1057078	46357	107815	0	0	8230	554040	0	0
2024-10-20 10:23:47			0	38290	0	0	0	21301	19840	161628	27301	1057060	46367	107816	0	0	8229	554743	0	0
2024-10-20 10:24:47			0	38326	0	0	0	21293	19840	161604	27293	1057087	46367	107813	0	0	8231	553319	0	0
2024-10-20 10:25:47			0	38312	0	0	0	21301	19850	161676	27171	1057043	46357	107816	0	0	8230	553842	0	0
2024-10-20 10:26:47			0	38317	0	0	0	21298	19860	161664	27284	1057114	46368	107815	0	0	8230	553614	0	0
2024-10-20 10:27:47			0	38312	0	0	0	21293	19850	161596	27213	1057131	46357	107813	0	0	8230	553842	0	0
2024-10-20 10:28:47			0	38306	0	0	0	21293	19860	161536	27388	1057123	46358	107813	0	0	8230	554049	0	0
2024-10-20 10:29:47			0	38314	0	0	0	21293	19860	161656	27324	1057061	46368	107813	0	0	8230	553732	0	0
2024-10-20 10:30:47			0	38318	0	0	0	21293	19860	161672	27415	1057087	46357	107813	0	0	8230	553574	0	0
2024-10-20 10:31:47			0	38320	0	0	0	21301	19860	161512	27431	1057114	46378	107816	0	0	8230	553495	0	0
2024-10-20 10:32:47			0	38330	0	0	0	21301	19870	161620	27433	1057132	46370	107816	0	0	8231	553069	0	0
2024-10-20 10:33:47			0	38345	0	0	0	21306	19860	161508	27251	1057123	46369	107818	0	0	8232	552507	0	0
2024-10-20 10:34:47			0	38331	0	0	0	21301	19860	161564	27405	1057149	46369	107816	0	0	8231	553060	0	0
2024-10-20 10:35:47			0	38346	0	0	0	21303	19860	161548	27377	1057114	46357	107817	0	0	8232	552468	0	0
2024-10-20 10:36:47			0	38340	0	0	0	21303	19870	161444	27277	1057185	46370	107817	0	0	8232	552674	0	0
2024-10-20 10:37:47			0	38354	0	0	0	21316	19860	161536	27241	1057149	46369	107822	0	0	8232	552152	0	0
2024-10-20 10:38:47			0	38363	0	0	0	21316	19850	161436	27255	1057184	46368	107822	0	0	8233	551827	0	0
2024-10-20 10:39:47			0	38350	0	0	0	21316	19860	161532	27140	1057149	46369	107822	0	0	8232	552310	0	0
2024-10-20 10:40:47			0	38354	0	0	0	21324	19870	161484	27436	1057220	46371	107825	0	0	8232	552122	0	0
2024-10-20 10:41:47			0	38360	0	0	0	21335	19880	161448	27341	1057203	46360	107829	0	0	8232	551854	0	0
2024-10-20 10:42:47			0	38364	0	0	0	21335	19870	161412	27185	1057185	46370	107829	0	0	8232	551727	0	0
2024-10-20 10:43:47			0	38382	0	0	0	21329	19880	161284	27410	1057229	46371	107827	0	0	8234	550987	0	0
2024-10-20 10:44:47			0	38364	0	0	0	21324	19870	161328	27343	1057220	46371	107825	0	0	8233	551727	0	0
2024-10-20 10:45:47			0	38374	0	0	0	21329	19880	161256	27864	1057265	46371	107827	0	0	8233	551302	0	0
2024-10-20 10:46:47			0	38403	0	0	0	21335	19870	161328	27166	1057194	46381	107829	0	0	8235	550190	0	0
2024-10-20 10:47:47			0	38383	0	0	0	21335	19880	161352	27588	1057238	46360	107829	0	0	8234	550947	0	0
2024-10-20 10:48:47			0	38377	0	0	0	21332	19880	161340	27640	1057318	46360	107828	0	0	8233	551184	0	0
2024-10-20 10:49:47			0	38386	0	0	0	21335	19890	161316	27498	1057300	46372	107829	0	0	8234	550799	0	0
2024-10-20 10:50:47			0	38391	0	0	0	21345	19890	161344	27095	1057336	46373	107833	0	0	8234	550602	0	0
2024-10-20 10:51:47			0	38379	0	0	0	21337	19890	161300	27429	1057274	46361	107830	0	0	8233	551075	0	0
2024-10-20 10:52:47			0	38389	0	0	0	21335	19890	161300	27435	1057283	46362	107829	0	0	8234	550680	0	0
2024-10-20 10:53:47			0	38398	0	0	0	21337	19900	161232	27447	1057265	46383	107830	0	0	8234	550296	0	0
2024-10-20 10:54:47			0	38406	0	0	0	21337	19890	161256	27722	1057283	46383	107830	0	0	8235	550011	0	0
2024-10-20 10:55:47			0	38403	0	0	0	21340	19900	161204	27744	1057292	46383	107831	0	0	8235	550099	0	0
2024-10-20 10:56:47			0	38396	0	0	0	21348	19890	161256	27609	1057274	46361	107834	0	0	8234	550405	0	0
2024-10-20 10:57:47			0	38407	0	0	0	21345	19900	161232	27585	1057274	46373	107833	0	0	8235	549941	0	0
2024-10-20 10:58:47			0	38418	0	0	0	21350	19900	161236	27396	1057327	46362	107835	0	0	8235	549508	0	0
2024-10-20 10:59:47			0	38419	0	0	0	21348	19900	161220	27479	1057318	46351	107834	0	0	8236	549469	0	0
2024-10-20 11:00:47			0	38436	0	0	0	21353	19900	161188	27452	1057354	46373	107836	0	0	8236	548800	0	0
2024-10-20 11:01:47			0	38429	0	0	0	21345	19910	161068	27350	1057389	46363	107833	0	0	8236	549045	0	0
2024-10-20 11:02:47			0	38429	0	0	0	21350	19900	161184	27371	1057345	46373	107835	0	0	8236	549075	0	0
2024-10-20 11:03:47			0	38425	0	0	0	21355	19900	161068	27331	1057380	46373	107837	0	0	8236	549233	0	0
2024-10-20 11:04:47			0	38414	0	0	0	21350	19900	161104	27424	1057380	46362	107835	0	0	8235	549666	0	0
2024-10-20 11:05:47			0	38434	0	0	0	21350	19910	161060	27367	1057363	46363	107835	0	0	8236	548848	0	0
2024-10-20 11:06:47			0	38439	0	0	0	21342	19910	161100	27597	1057372	46375	107832	0	0	8237	548652	0	0
2024-10-20 11:07:47			0	38453	0	0	0	21353	19910	161056	27346	1057451	46364	107836	0	0	8237	548102	0	0
2024-10-20 11:08:47			0	38427	0	0	0	21368	19910	161128	27644	1057363	46374	107842	0	0	8236	549124	0	0
2024-10-20 11:09:47			0	38454	0	0	0	21376	19910	161048	27514	1057478	46375	107845	0	0	8237	548062	0	0
2024-10-20 11:10:47			0	38441	0	0	0	21371	19920	161104	27395	1057407	46364	107843	0	0	8237	548543	0	0
2024-10-20 11:11:47			0	38455	0	0	0	21384	19910	161080	27206	1057478	46375	107848	0	0	8237	548023	0	0
2024-10-20 11:12:47			0	38447	0	0	0	21379	19920	161028	27597	1057390	46385	107846	0	0	8237	548307	0	0
2024-10-20 11:13:47			0	38441	0	0	0	21381	19920	161036	27343	1057469	46364	107847	0	0	8236	548543	0	0
2024-10-20 11:14:47			0	38458	0	0	0	21366	19930	161136	27341	1057505	46386	107841	0	0	8238	547845	0	0
2024-10-20 11:15:47			0	38445	0	0	0	21384	19930	160972	27512	1057452	46386	107848	0	0	8237	548355	0	0
2024-10-20 11:16:47			0	38468	0	0	0	21368	19930	161016	27100	1057514	46376	107842	0	0	8238	547452	0	0
2024-10-20 11:17:47			0	38471	0	0	0	21379	19930	160896	27426	1057434	46376	107846	0	0	8238	547334	0	0
2024-10-20 11:18:47			0	38486	0	0	0	21371	19940	160828	27277	1057505	46367	107843	0	0	8239	546715	0	0
2024-10-20 11:19:47			0	38484	0	0	0	21379	19930	160900	27770	1057461	46376	107846	0	0	8239	546824	0	0
2024-10-20 11:20:47			0	38491	0	0	0	21376	19930	160932	27607	1057567	46376	107845	0	0	8239	546549	0	0
2024-10-20 11:21:47			0	38472	0	0	0	21381	19930	160844	27272	1057452	46365	107847	0	0	8238	547295	0	0
2024-10-20 11:22:47			0	38482	0	0	0	21376	19930	160920	27258	1057461	46376	107845	0	0	8239	546903	0	0
2024-10-20 11:23:47			0	38492	0	0	0	21389	19930	160892	27367	1057487	46387	107850	0	0	8239	546510	0	0
2024-10-20 11:24:47			0	38485	0	0	0	21399	19930	160864	27599	1057487	46366	107854	0	0	8239	546785	0	0
2024-10-20 11:25:47			0	38473	0	0	0	21379	19940	160948	27498	1057505	46377	107846	0	0	8238	547226	0	0
2024-10-20 11:26:47			0	38495	0	0	0	21384	19940	160860	27267	1057532	46377	107848	0	0	8240	546363	0	0
2024-10-20 11:27:47			0	38482	0	0	0	21386	19940	160876	27476	1057549	46366	107849	0	0	8239	546872	0	0
2024-10-20 11:28:47			0	38491	0	0	0	21386	19930	160892	27459	1057514	46366	107849	0	0	8239	546549	0	0
2024-10-20 11:29:47			0	38489	0	0	0	21384	19940	160804	27372	1057611	46377	107848	0	0	8239	546598	0	0
2024-10-20 11:30:47			0	38501	0	0	0	21394	19940	160792	27658	1057558	46377	107852	0	0	8240	546127	0	0
2024-10-20 11:31:47			0	38510	0	0	0	21407	19950	160708	27609	1057576	46389	107857	0	0	8240	545744	0	0
2024-10-20 11:32:47			0	38536	0	0	0	21410	19950	160736	27471	1057541	46377	107858	0	0	8242	544726	0	0
2024-10-20 11:33:47			0	38524	0	0	0	21410	19950	160788	27390	1057541	46388	107858	0	0	8241	545196	0	0
2024-10-20 11:34:47			0	38531	0	0	0	21410	19950	160852	27445	1057541	46388	107858	0	0	8241	544922	0	0
2024-10-20 11:35:47			0	38544	0	0	0	21405	19960	160700	27691	1057612	46378	107856	0	0	8242	544383	0	0
2024-10-20 11:36:47			0	38548	0	0	0	21410	19960	160616	27490	1057665	46368	107858	0	0	8242	544227	0	0
2024-10-20 11:37:47			0	38550	0	0	0	21412	19960	160576	27355	1057612	46368	107859	0	0	8242	544148	0	0
2024-10-20 11:38:47			0	38547	0	0	0	21420	19960	160588	27507	1057612	46378	107862	0	0	8242	544266	0	0
2024-10-20 11:39:47			0	38558	0	0	0	21420	19970	160528	27538	1057594	46401	107862	0	0	8243	543806	0	0
2024-10-20 11:40:47			0	38574	0	0	0	21438	19970	160500	27627	1057736	46379	107869	0	0	8243	543180	0	0
2024-10-20 11:41:47			0	38582	0	0	0	21425	19980	160532	27698	1057719	46380	107864	0	0	8244	542838	0	0
2024-10-20 11:42:47			0	38583	0	0	0	21433	19980	160456	27512	1057745	46380	107867	0	0	8244	542799	0	0
2024-10-20 11:43:47			0	38602	0	0	0	21436	19980	160540	27275	1057745	46391	107868	0	0	8245	542057	0	0
2024-10-20 11:44:47			0	38616	0	0	0	21436	19980	160480	27651	1057719	46380	107868	0	0	8246	541511	0	0
2024-10-20 11:45:47			0	38594	0	0	0	21438	19990	160420	27381	1057746	46381	107869	0	0	8245	542339	0	0
2024-10-20 11:46:47			0	38609	0	0	0	21436	19990	160436	27346	1057710	46381	107868	0	0	8246	541754	0	0
2024-10-20 11:47:47			0	38605	0	0	0	21433	19990	160388	27642	1057710	46381	107867	0	0	8245	541910	0	0
2024-10-20 11:48:47			0	38598	0	0	0	21446	19990	160416	27509	1057763	46371	107872	0	0	8245	542183	0	0
2024-10-20 11:49:47			0	38603	0	0	0	21449	19980	160328	27746	1057772	46380	107873	0	0	8245	542018	0	0
2024-10-20 11:50:47			0	38605	0	0	0	21446	20000	160436	27436	1057834	46393	107872	0	0	8245	541880	0	0
2024-10-20 11:51:47			0	38630	0	0	0	21446	19990	160360	27244	1057772	46381	107872	0	0	8247	540935	0	0
2024-10-20 11:52:47			0	38631	0	0	0	21446	20000	160292	27689	1057817	46394	107872	0	0	8247	540866	0	0
2024-10-20 11:53:47			0	38608	0	0	0	21459	20000	160184	27592	1057843	46383	107877	0	0	8245	541763	0	0
2024-10-20 11:54:47			0	38626	0	0	0	21464	20000	160280	27455	1057834	46382	107879	0	0	8246	541061	0	0
2024-10-20 11:55:47			0	38625	0	0	0	21483	20000	160304	27381	1057843	46383	107886	0	0	8246	541100	0	0
2024-10-20 11:56:47			0	38620	0	0	0	21477	20010	160260	27454	1057852	46383	107884	0	0	8246	541265	0	0
2024-10-20 11:57:47			0	38626	0	0	0	21472	20020	160252	28050	1057923	46384	107882	0	0	8246	541002	0	0
2024-10-20 11:58:47			0	38613	0	0	0	21467	20020	160280	27711	1057923	46395	107880	0	0	8245	541508	0	0
2024-10-20 11:59:47			0	38630	0	0	0	21470	20030	160304	27402	1057888	46396	107881	0	0	8246	540816	0	0
2024-10-20 12:00:47			0	38628	0	0	0	21470	20020	160344	27519	1057932	46385	107881	0	0	8246	540924	0	0
2024-10-20 12:01:47			0	38624	0	0	0	21459	20030	160244	27665	1057888	46407	107877	0	0	8246	541050	0	0
2024-10-20 12:02:47			0	38637	0	0	0	21457	20020	160180	27751	1057897	46395	107876	0	0	8247	540573	0	0
2024-10-20 12:03:47			0	38640	0	0	0	21464	20020	160228	27514	1057906	46385	107879	0	0	8247	540456	0	0
2024-10-20 12:04:47			0	38629	0	0	0	21464	20020	160148	27315	1057950	46374	107879	0	0	8246	540885	0	0
2024-10-20 12:05:47			0	38648	0	0	0	21472	20020	160196	27687	1057870	46384	107882	0	0	8247	540145	0	0
2024-10-20 12:06:47			0	38654	0	0	0	21485	20020	160168	27362	1057923	46384	107887	0	0	8247	539911	0	0
2024-10-20 12:07:47			0	38671	0	0	0	21475	20030	160112	27620	1057950	46386	107883	0	0	8249	539220	0	0
2024-10-20 12:08:47			0	38666	0	0	0	21480	20030	160040	27481	1057950	46397	107885	0	0	8248	539414	0	0
2024-10-20 12:09:47			0	38670	0	0	0	21483	20040	160028	27511	1058012	46397	107886	0	0	8249	539229	0	0
2024-10-20 12:10:47			0	38679	0	0	0	21477	20030	159952	27500	1057994	46396	107884	0	0	8249	538909	0	0
2024-10-20 12:11:47			0	38698	0	0	0	21488	20040	159920	27640	1057959	46397	107888	0	0	8250	538141	0	0
2024-10-20 12:12:47			0	38692	0	0	0	21477	20030	160060	27550	1057977	46375	107884	0	0	8250	538403	0	0
2024-10-20 12:13:47			0	38679	0	0	0	21480	20030	159992	27611	1057977	46397	107885	0	0	8249	538909	0	0
2024-10-20 12:14:47			0	38695	0	0	0	21483	20050	160008	27706	1058057	46387	107886	0	0	8250	538228	0	0
2024-10-20 12:15:47			0	38709	0	0	0	21480	20040	159944	27505	1057986	46397	107885	0	0	8251	537714	0	0
2024-10-20 12:16:47			0	38712	0	0	0	21488	20040	159968	27661	1057959	46375	107888	0	0	8251	537597	0	0
2024-10-20 12:17:47			0	38700	0	0	0	21483	20040	159920	27552	1057933	46386	107886	0	0	8250	538063	0	0
2024-10-20 12:18:47			0	38727	0	0	0	21485	20040	159837	27743	1058021	46387	107887	0	0	8252	537015	0	0
2024-10-20 12:19:47			0	38736	0	0	0	21488	20040	159893	27881	1058092	46386	107888	0	0	8252	536666	0	0
2024-10-20 12:20:47			0	38723	0	0	0	21485	20040	159880	27514	1057959	46386	107887	0	0	8252	537170	0	0
2024-10-20 12:21:47			0	38737	0	0	0	21485	20050	159837	27680	1058083	46387	107887	0	0	8252	536598	0	0
2024-10-20 12:22:47			0	38740	0	0	0	21483	20060	159845	27476	1058022	46377	107886	0	0	8253	536452	0	0
2024-10-20 12:23:47			0	38746	0	0	0	21493	20050	159833	27547	1058110	46387	107890	0	0	8253	536249	0	0
2024-10-20 12:24:47			0	38731	0	0	0	21493	20040	159764	27203	1058048	46398	107890	0	0	8252	536860	0	0
2024-10-20 12:25:47			0	38748	0	0	0	21493	20040	159741	27460	1058048	46387	107890	0	0	8253	536201	0	0
2024-10-20 12:26:47			0	38774	0	0	0	21501	20040	159689	27352	1058048	46410	107893	0	0	8254	535194	0	0
2024-10-20 12:27:47			0	38770	0	0	0	21493	20050	159793	27590	1058030	46387	107890	0	0	8254	535319	0	0
2024-10-20 12:28:47			0	38769	0	0	0	21490	20050	159649	27550	1058092	46388	107889	0	0	8254	535358	0	0
2024-10-20 12:29:47			0	38764	0	0	0	21503	20050	159553	27234	1058092	46388	107894	0	0	8254	535551	0	0
2024-10-20 12:30:47			0	38764	0	0	0	21490	20050	159753	27398	1058110	46376	107889	0	0	8254	535551	0	0
2024-10-20 12:31:47			0	38766	0	0	0	21498	20060	159817	27346	1058022	46388	107892	0	0	8254	535444	0	0
2024-10-20 12:32:47			0	38771	0	0	0	21506	20050	159589	27684	1058066	46411	107895	0	0	8254	535280	0	0
2024-10-20 12:33:47			0	38750	0	0	0	21498	20060	159705	27665	1058022	46399	107892	0	0	8253	536064	0	0
2024-10-20 12:34:47			0	38773	0	0	0	21501	20060	159681	27300	1057995	46399	107893	0	0	8254	535173	0	0
2024-10-20 12:35:47			0	38782	0	0	0	21503	20060	159613	27220	1058155	46388	107894	0	0	8255	534825	0	0
2024-10-20 12:36:47			0	38764	0	0	0	21503	20060	159593	27472	1058164	46389	107894	0	0	8254	535522	0	0
2024-10-20 12:37:47			0	38767	0	0	0	21496	20070	159673	27731	1058199	46401	107891	0	0	8254	535376	0	0
2024-10-20 12:38:47			0	38748	0	0	0	21498	20050	159721	27421	1058092	46377	107892	0	0	8253	536171	0	0
2024-10-20 12:39:47			0	38747	0	0	0	21496	20050	159665	27130	1058092	46377	107891	0	0	8253	536210	0	0
2024-10-20 12:40:47			0	38777	0	0	0	21501	20050	159637	27438	1058172	46399	107893	0	0	8255	535048	0	0
2024-10-20 12:41:47			0	38747	0	0	0	21501	20050	159681	27177	1058146	46388	107893	0	0	8253	536210	0	0
2024-10-20 12:42:47			0	38761	0	0	0	21503	20060	159597	27428	1058128	46388	107894	0	0	8254	535638	0	0
2024-10-20 12:43:47			0	38780	0	0	0	21514	20060	159649	27606	1058075	46399	107898	0	0	8255	534902	0	0
2024-10-20 12:44:47			0	38798	0	0	0	21509	20050	159533	27343	1058066	46399	107896	0	0	8256	534235	0	0
2024-10-20 12:45:47			0	38794	0	0	0	21503	20070	159553	27370	1058093	46401	107894	0	0	8256	534331	0	0
2024-10-20 12:46:47			0	38803	0	0	0	21511	20070	159649	27517	1058173	46390	107897	0	0	8256	533983	0	0
2024-10-20 12:47:47			0	38787	0	0	0	21501	20070	159533	27722	1058146	46401	107893	0	0	8255	534602	0	0
2024-10-20 12:48:47			0	38801	0	0	0	21506	20060	159509	27320	1058084	46389	107895	0	0	8256	534090	0	0
2024-10-20 12:49:47			0	38806	0	0	0	21506	20070	159621	27255	1058208	46390	107895	0	0	8256	533867	0	0
2024-10-20 12:50:47			0	38807	0	0	0	21519	20070	159481	27505	1058235	46390	107900	0	0	8256	533828	0	0
2024-10-20 12:51:47			0	38817	0	0	0	21524	20070	159513	27883	1058173	46390	107902	0	0	8257	533442	0	0
2024-10-20 12:52:47			0	38804	0	0	0	21519	20070	159469	27405	1058235	46390	107900	0	0	8256	533944	0	0
2024-10-20 12:53:47			0	38816	0	0	0	21509	20080	159377	27621	1058244	46391	107896	0	0	8257	533451	0	0
2024-10-20 12:54:47			0	38815	0	0	0	21516	20070	159489	27720	1058208	46401	107899	0	0	8257	533519	0	0
2024-10-20 12:55:47			0	38827	0	0	0	21519	20070	159485	27360	1058208	46401	107900	0	0	8257	533056	0	0
2024-10-20 12:56:47			0	38824	0	0	0	21509	20070	159417	27282	1058181	46390	107896	0	0	8257	533171	0	0
2024-10-20 12:57:47			0	38835	0	0	0	21511	20080	159393	27211	1058270	46402	107897	0	0	8258	532717	0	0
2024-10-20 12:58:47			0	38835	0	0	0	21519	20080	159389	27441	1058226	46402	107900	0	0	8258	532717	0	0
2024-10-20 12:59:47			0	38851	0	0	0	21506	20080	159313	27441	1058217	46402	107895	0	0	8259	532100	0	0
2024-10-20 13:00:47			0	38868	0	0	0	21532	20080	159261	27476	1058279	46391	107905	0	0	8259	531444	0	0
2024-10-20 13:01:47			0	38893	0	0	0	21545	20090	159269	27275	1058351	46415	107910	0	0	8261	530452	0	0
2024-10-20 13:02:47			0	38917	0	0	0	21542	20080	159121	27431	1058306	46391	107909	0	0	8262	529557	0	0
2024-10-20 13:03:47			0	38937	0	0	0	21532	20090	159081	27317	1058341	46403	107905	0	0	8263	528759	0	0
2024-10-20 13:04:47			0	38955	0	0	0	21537	20090	159033	27594	1058297	46392	107907	0	0	8264	528067	0	0
2024-10-20 13:05:47			0	38977	0	0	0	21540	20100	158957	27460	1058413	46416	107908	0	0	8266	527194	0	0
2024-10-20 13:06:47			0	38970	0	0	0	21545	20090	158929	27684	1058341	46403	107910	0	0	8265	527492	0	0
2024-10-20 13:07:47			0	38991	0	0	0	21555	20100	158813	27582	1058360	46404	107914	0	0	8266	526657	0	0
2024-10-20 13:08:47			0	38991	0	0	0	21553	20100	158737	27431	1058368	46404	107913	0	0	8266	526657	0	0
2024-10-20 13:09:47			0	38960	0	0	0	21540	20100	158769	27391	1058422	46393	107908	0	0	8265	527846	0	0
2024-10-20 13:10:47			0	38994	0	0	0	21532	20090	158697	27731	1058324	46403	107905	0	0	8267	526571	0	0
2024-10-20 13:11:47			0	38994	0	0	0	21548	20100	158773	27685	1058342	46393	107911	0	0	8267	526542	0	0
2024-10-20 13:12:47			0	39038	0	0	0	21566	20100	158613	27590	1058306	46393	107918	0	0	8269	524857	0	0
2024-10-20 13:13:47			0	39076	0	0	0	21568	20100	158509	27524	1058306	46382	107919	0	0	8271	523404	0	0
2024-10-20 13:14:47			0	39083	0	0	0	21573	20110	158429	27464	1058378	46416	107921	0	0	8271	523108	0	0
2024-10-20 13:15:47			0	39087	0	0	0	21579	20110	158389	27350	1058493	46406	107923	0	0	8271	522955	0	0
2024-10-20 13:16:47			0	39101	0	0	0	21561	20110	158361	27345	1058457	46406	107916	0	0	8273	522421	0	0
2024-10-20 13:17:47			0	39083	0	0	0	21527	20110	158377	27235	1058440	46406	107903	0	0	8272	523108	0	0
2024-10-20 13:18:47			0	39071	0	0	0	21573	20120	158441	27443	1058475	46406	107921	0	0	8271	523537	0	0
2024-10-20 13:19:47			0	39093	0	0	0	21579	20110	158305	27282	1058457	46394	107923	0	0	8272	522726	0	0
2024-10-20 13:20:47			0	39120	0	0	0	21592	20120	158201	27173	1058484	46407	107928	0	0	8273	521667	0	0
2024-10-20 13:21:47			0	39148	0	0	0	21597	20110	158157	26993	1058546	46406	107930	0	0	8275	520629	0	0
2024-10-20 13:22:47			0	39177	0	0	0	21594	20130	157961	27201	1058573	46407	107929	0	0	8277	519468	0	0
2024-10-20 13:23:47			0	39196	0	0	0	21592	20130	158009	27613	1058599	46407	107928	0	0	8278	518746	0	0
2024-10-20 13:24:47			0	39213	0	0	0	21597	20150	157937	27452	1058609	46410	107930	0	0	8279	518043	0	0
2024-10-20 13:25:47			0	39200	0	0	0	21605	20140	157929	27334	1058591	46397	107933	0	0	8278	518565	0	0
2024-10-20 13:26:47			0	39226	0	0	0	21607	20140	157893	27376	1058617	46408	107934	0	0	8279	517578	0	0
2024-10-20 13:27:47			0	39277	0	0	0	21628	20160	157773	27500	1058627	46399	107942	0	0	8282	515588	0	0
2024-10-20 13:28:47			0	39339	0	0	0	21633	20150	157565	27659	1058644	46398	107944	0	0	8285	513272	0	0
2024-10-20 13:29:47			0	39332	0	0	0	21636	20160	157401	27435	1058769	46422	107945	0	0	8285	513508	0	0
2024-10-20 13:30:47			0	39350	0	0	0	21636	20170	157253	27582	1058724	46422	107945	0	0	8286	512800	0	0
2024-10-20 13:31:47			0	39385	0	0	0	21638	20170	157229	27874	1058751	46412	107946	0	0	8288	511480	0	0
2024-10-20 13:32:47			0	39356	0	0	0	21638	20170	157341	27715	1058698	46412	107946	0	0	8286	512573	0	0
2024-10-20 13:33:47			0	39340	0	0	0	21651	20170	157405	27223	1058760	46413	107951	0	0	8285	513177	0	0
2024-10-20 13:34:47			0	39325	0	0	0	21654	20180	157389	27483	1058804	46424	107952	0	0	8284	513715	0	0
2024-10-20 13:35:47			0	39317	0	0	0	21657	20190	157485	27279	1058813	46415	107953	0	0	8284	513989	0	0
2024-10-20 13:36:47			0	39322	0	0	0	21657	20190	157369	27386	1058876	46415	107953	0	0	8284	513800	0	0
2024-10-20 13:37:47			0	39334	0	0	0	21667	20200	157393	27303	1058867	46416	107957	0	0	8285	513319	0	0
2024-10-20 13:38:47			0	39340	0	0	0	21659	20200	157249	27284	1058858	46425	107954	0	0	8285	513092	0	0
2024-10-20 13:39:47			0	39327	0	0	0	21662	20200	157237	27287	1058867	46404	107955	0	0	8284	513583	0	0
2024-10-20 13:40:47			0	39322	0	0	0	21664	20210	157393	27441	1058876	46405	107956	0	0	8284	513744	0	0
2024-10-20 13:41:47			0	39316	0	0	0	21675	20210	157481	27614	1058956	46416	107960	0	0	8284	513970	0	0
2024-10-20 13:42:47			0	39336	0	0	0	21672	20210	157405	27429	1058938	46427	107959	0	0	8285	513215	0	0
2024-10-20 13:43:47			0	39343	0	0	0	21685	20210	157305	27194	1058991	46416	107964	0	0	8285	512951	0	0
2024-10-20 13:44:47			0	39370	0	0	0	21688	20230	157265	27417	1058992	46429	107965	0	0	8287	511876	0	0
2024-10-20 13:45:47			0	39417	0	0	0	21696	20220	156989	27362	1058974	46405	107968	0	0	8289	510134	0	0
2024-10-20 13:46:47			0	39486	0	0	0	21701	20230	156698	27613	1059018	46440	107970	0	0	8293	507513	0	0
2024-10-20 13:47:47			0	39544	0	0	0	21690	20230	156542	27341	1059081	46429	107966	0	0	8297	505340	0	0
2024-10-20 13:48:47			0	39536	0	0	0	21706	20240	156554	27390	1059063	46407	107972	0	0	8296	505612	0	0
2024-10-20 13:49:47			0	39565	0	0	0	21696	20250	156530	27462	1059108	46409	107968	0	0	8298	504499	0	0
2024-10-20 13:50:47			0	39577	0	0	0	21703	20240	156410	27569	1059090	46418	107971	0	0	8298	504079	0	0
2024-10-20 13:51:47			0	39604	0	0	0	21714	20240	156278	27450	1059125	46408	107975	0	0	8300	503070	0	0
2024-10-20 13:52:47			0	39589	0	0	0	21714	20240	156330	27274	1059072	46430	107975	0	0	8299	503630	0	0
2024-10-20 13:53:47			0	39594	0	0	0	21714	20250	156310	27312	1059134	46431	107975	0	0	8299	503416	0	0
2024-10-20 13:54:47			0	39594	0	0	0	21719	20270	156418	27640	1059188	46443	107977	0	0	8299	503360	0	0
2024-10-20 13:55:47			0	39551	0	0	0	21729	20260	156558	27512	1059125	46432	107981	0	0	8296	504995	0	0
2024-10-20 13:56:47			0	39488	0	0	0	21714	20260	156702	27310	1059117	46432	107975	0	0	8293	507354	0	0
2024-10-20 13:57:47			0	39444	0	0	0	21719	20270	156878	27547	1059161	46421	107977	0	0	8290	508978	0	0
2024-10-20 13:58:47			0	39443	0	0	0	21737	20270	156982	27802	1059223	46422	107984	0	0	8290	509016	0	0
2024-10-20 13:59:47			0	39439	0	0	0	21745	20280	157054	27568	1059241	46434	107987	0	0	8290	509138	0	0
2024-10-20 14:00:47			0	39444	0	0	0	21740	20280	156962	27360	1059232	46434	107985	0	0	8290	508950	0	0
2024-10-20 14:01:47			0	39481	0	0	0	21753	20290	156794	27393	1059224	46423	107990	0	0	8292	507533	0	0
2024-10-20 14:02:47			0	39496	0	0	0	21766	20280	156654	27569	1059294	46413	107995	0	0	8293	506999	0	0
2024-10-20 14:03:47			0	39555	0	0	0	21763	20290	156442	27687	1059339	46424	107994	0	0	8296	504762	0	0
2024-10-20 14:04:47			0	39622	0	0	0	21745	20290	156326	27260	1059312	46435	107987	0	0	8300	502260	0	0
2024-10-20 14:05:47			0	39648	0	0	0	21758	20290	156202	27682	1059339	46435	107992	0	0	8302	501291	0	0
2024-10-20 14:06:47			0	39677	0	0	0	21761	20310	156026	27784	1059392	46425	107993	0	0	8303	500157	0	0
2024-10-20 14:07:47			0	39714	0	0	0	21766	20300	155902	27633	1059383	46425	107995	0	0	8305	498809	0	0
2024-10-20 14:08:47			0	39758	0	0	0	21771	20300	155866	27308	1059357	46415	107997	0	0	8308	497176	0	0
2024-10-20 14:09:47			0	39778	0	0	0	21768	20300	155606	27379	1059383	46436	107996	0	0	8309	496435	0	0
2024-10-20 14:10:47			0	39835	0	0	0	21774	20320	155438	27549	1059410	46416	107998	0	0	8312	494272	0	0
2024-10-20 14:11:47			0	39834	0	0	0	21784	20310	155362	27358	1059455	46416	108002	0	0	8312	494336	0	0
2024-10-20 14:12:47			0	39880	0	0	0	21774	20310	155210	27691	1059401	46426	107998	0	0	8315	492638	0	0
2024-10-20 14:13:47			0	39909	0	0	0	21779	20310	155066	27547	1059508	46426	108000	0	0	8317	491569	0	0
2024-10-20 14:14:47			0	39955	0	0	0	21786	20320	154926	27656	1059473	46428	108003	0	0	8319	489849	0	0
2024-10-20 14:15:47			0	40000	0	0	0	21779	20320	154814	27538	1059473	46417	108000	0	0	8322	488197	0	0
2024-10-20 14:16:47			0	40004	0	0	0	21784	20330	154654	27559	1059517	46428	108002	0	0	8322	488023	0	0
2024-10-20 14:17:47			0	40010	0	0	0	21784	20330	154718	27604	1059464	46417	108002	0	0	8322	487803	0	0
2024-10-20 14:18:47			0	40019	0	0	0	21784	20330	154694	27597	1059490	46428	108002	0	0	8323	487473	0	0
2024-10-20 14:19:47			0	40057	0	0	0	21786	20340	154642	27345	1059473	46407	108003	0	0	8325	486054	0	0
2024-10-20 14:20:47			0	40039	0	0	0	21786	20330	154626	27549	1059508	46428	108003	0	0	8324	486740	0	0
2024-10-20 14:21:47			0	40050	0	0	0	21797	20340	154450	27429	1059526	46440	108007	0	0	8324	486310	0	0
2024-10-20 14:22:47			0	40063	0	0	0	21789	20340	154546	27395	1059526	46429	108004	0	0	8325	485834	0	0
2024-10-20 14:23:47			0	40068	0	0	0	21797	20340	154538	27550	1059509	46419	108007	0	0	8326	485651	0	0
2024-10-20 14:24:47			0	40045	0	0	0	21784	20350	154634	27241	1059571	46430	108002	0	0	8324	486466	0	0
2024-10-20 14:25:47			0	40064	0	0	0	21799	20340	154586	27400	1059589	46430	108008	0	0	8325	485798	0	0
2024-10-20 14:26:47			0	40062	0	0	0	21792	20350	154626	27244	1059518	46430	108005	0	0	8325	485844	0	0
2024-10-20 14:27:47			0	40060	0	0	0	21786	20350	154614	27433	1059598	46430	108003	0	0	8325	485917	0	0
2024-10-20 14:28:47			0	40044	0	0	0	21799	20350	154482	27329	1059553	46441	108008	0	0	8324	486503	0	0
2024-10-20 14:29:47			0	40038	0	0	0	21802	20350	154590	27192	1059598	46419	108009	0	0	8324	486723	0	0
2024-10-20 14:30:47			0	40045	0	0	0	21805	20340	154666	27497	1059589	46419	108010	0	0	8324	486493	0	0
2024-10-20 14:31:47			0	40021	0	0	0	21810	20340	154698	27601	1059535	46430	108012	0	0	8323	487373	0	0
2024-10-20 14:32:47			0	40026	0	0	0	21815	20360	154714	27239	1059589	46420	108014	0	0	8323	487136	0	0
2024-10-20 14:33:47			0	40040	0	0	0	21799	20360	154706	27440	1059615	46420	108008	0	0	8324	486623	0	0
2024-10-20 14:34:47			0	40041	0	0	0	21815	20370	154666	27486	1059633	46432	108014	0	0	8324	486559	0	0
2024-10-20 14:35:47			0	40038	0	0	0	21805	20370	154654	27372	1059660	46432	108010	0	0	8324	486669	0	0
2024-10-20 14:36:47			0	40020	0	0	0	21810	20360	154658	27010	1059678	46421	108012	0	0	8323	487355	0	0
2024-10-20 14:37:47			0	40021	0	0	0	21812	20370	154610	27355	1059580	46432	108013	0	0	8323	487292	0	0
2024-10-20 14:38:47			0	40030	0	0	0	21807	20360	154650	27293	1059678	46421	108011	0	0	8323	486989	0	0
2024-10-20 14:39:47			0	40024	0	0	0	21812	20360	154690	27365	1059678	46432	108013	0	0	8323	487209	0	0
2024-10-20 14:40:47			0	40048	0	0	0	21815	20360	154646	27440	1059624	46432	108014	0	0	8324	486330	0	0
2024-10-20 14:41:47			0	40045	0	0	0	21815	20370	154614	26944	1059722	46432	108014	0	0	8324	486413	0	0
2024-10-20 14:42:47			0	40070	0	0	0	21815	20380	154442	27062	1059678	46444	108014	0	0	8325	485471	0	0
2024-10-20 14:43:47			0	40100	0	0	0	21810	20380	154399	27156	1059687	46434	108012	0	0	8327	484374	0	0
2024-10-20 14:44:47			0	40100	0	0	0	21820	20380	154419	27621	1059740	46434	108016	0	0	8327	484374	0	0
2024-10-20 14:45:47			0	40135	0	0	0	21828	20380	154247	27343	1059678	46433	108019	0	0	8329	483097	0	0
2024-10-20 14:46:47			0	40173	0	0	0	21823	20380	154095	27410	1059731	46422	108017	0	0	8331	481712	0	0
2024-10-20 14:47:47			0	40197	0	0	0	21820	20380	154171	27460	1059678	46444	108016	0	0	8333	480838	0	0
2024-10-20 14:48:47			0	40197	0	0	0	21820	20380	154095	27433	1059731	46433	108016	0	0	8333	480838	0	0
2024-10-20 14:49:47			0	40182	0	0	0	21820	20380	154079	27296	1059740	46423	108016	0	0	8332	481384	0	0
2024-10-20 14:50:47			0	40204	0	0	0	21818	20380	154023	27313	1059758	46433	108015	0	0	8333	480584	0	0
2024-10-20 14:51:47			0	40178	0	0	0	21820	20380	154095	27410	1059847	46434	108016	0	0	8332	481530	0	0
2024-10-20 14:52:47			0	40181	0	0	0	21823	20390	154095	27376	1059696	46446	108017	0	0	8332	481394	0	0
2024-10-20 14:53:47			0	40150	0	0	0	21818	20380	154243	27142	1059660	46434	108015	0	0	8330	482550	0	0
2024-10-20 14:54:47			0	40148	0	0	0	21823	20390	154255	27237	1059731	46435	108017	0	0	8330	482596	0	0
2024-10-20 14:55:47			0	40134	0	0	0	21812	20400	154263	27300	1059714	46435	108013	0	0	8329	483080	0	0
2024-10-20 14:56:47			0	40136	0	0	0	21818	20380	154303	27206	1059740	46445	108015	0	0	8329	483060	0	0
2024-10-20 14:57:47			0	40109	0	0	0	21828	20400	154215	27364	1059740	46424	108019	0	0	8328	483992	0	0
2024-10-20 14:58:47			0	40124	0	0	0	21820	20390	154383	27267	1059705	46446	108016	0	0	8329	483471	0	0
2024-10-20 14:59:47			0	40136	0	0	0	21820	20400	154211	27542	1059873	46435	108016	0	0	8329	483007	0	0
2024-10-20 15:00:47			0	40131	0	0	0	21823	20390	154283	27713	1059722	46446	108017	0	0	8329	483216	0	0
2024-10-20 15:01:47			0	40114	0	0	0	21818	20380	154443	27268	1059714	46434	108015	0	0	8328	483863	0	0
2024-10-20 15:02:47			0	40104	0	0	0	21820	20390	154459	27599	1059722	46435	108016	0	0	8327	484202	0	0
2024-10-20 15:03:47			0	40110	0	0	0	21823	20390	154483	27777	1059749	46435	108017	0	0	8328	483982	0	0
2024-10-20 15:04:47			0	40084	0	0	0	21823	20390	154522	27441	1059838	46424	108017	0	0	8326	484932	0	0
2024-10-20 15:05:47			0	40045	0	0	0	21820	20390	154566	27649	1059696	46435	108016	0	0	8324	486359	0	0
2024-10-20 15:06:47			0	40041	0	0	0	21820	20390	154686	27568	1059811	46446	108016	0	0	8324	486505	0	0
2024-10-20 15:07:47			0	40009	0	0	0	21818	20380	154806	27564	1059740	46445	108015	0	0	8322	487705	0	0
2024-10-20 15:08:47			0	39981	0	0	0	21825	20390	154866	27684	1059758	46424	108018	0	0	8320	488705	0	0
2024-10-20 15:09:47			0	39968	0	0	0	21823	20390	154914	27497	1059749	46435	108017	0	0	8320	489183	0	0
2024-10-20 15:10:47			0	39971	0	0	0	21828	20390	154918	27391	1059758	46424	108019	0	0	8320	489072	0	0
2024-10-20 15:11:47			0	39899	0	0	0	21825	20400	155114	27398	1059820	46446	108018	0	0	8316	491693	0	0
2024-10-20 15:12:47			0	39836	0	0	0	21815	20390	155458	27183	1059838	46435	108014	0	0	8312	494044	0	0
2024-10-20 15:13:47			0	39774	0	0	0	21812	20380	155606	27646	1059767	46434	108013	0	0	8308	496364	0	0
2024-10-20 15:14:47			0	39682	0	0	0	21815	20380	155842	27180	1059634	46423	108014	0	0	8303	499777	0	0
2024-10-20 15:15:47			0	39616	0	0	0	21812	20390	156058	27704	1059785	46435	108013	0	0	8299	502206	0	0
2024-10-20 15:16:47			0	39583	0	0	0	21812	20390	156282	27448	1059749	46424	108013	0	0	8297	503437	0	0
2024-10-20 15:17:47			0	39537	0	0	0	21825	20390	156454	27402	1059705	46435	108018	0	0	8295	505156	0	0
2024-10-20 15:18:47			0	39531	0	0	0	21820	20390	156458	27197	1059722	46435	108016	0	0	8294	505380	0	0
2024-10-20 15:19:47			0	39513	0	0	0	21815	20390	156514	27365	1059696	46435	108014	0	0	8293	506054	0	0
2024-10-20 15:20:47			0	39482	0	0	0	21818	20390	156690	27272	1059652	46435	108015	0	0	8292	507215	0	0
2024-10-20 15:21:47			0	39483	0	0	0	21818	20380	156598	27680	1059740	46423	108015	0	0	8292	507206	0	0
2024-10-20 15:22:47			0	39472	0	0	0	21841	20380	156718	27713	1059811	46422	108024	0	0	8291	507618	0	0
2024-10-20 15:23:47			0	39496	0	0	0	21838	20390	156730	27433	1059811	46446	108023	0	0	8292	506691	0	0
2024-10-20 15:24:47			0	39513	0	0	0	21846	20400	156574	27476	1059847	46435	108026	0	0	8293	506026	0	0
2024-10-20 15:25:47			0	39476	0	0	0	21841	20390	156742	27473	1059811	46446	108024	0	0	8291	507440	0	0
2024-10-20 15:26:47			0	39436	0	0	0	21828	20390	156882	27493	1059758	46435	108019	0	0	8289	508941	0	0
2024-10-20 15:27:47			0	39352	0	0	0	21831	20390	157145	27447	1059811	46435	108020	0	0	8284	512102	0	0
2024-10-20 15:28:47			0	39312	0	0	0	21820	20390	157349	27651	1059829	46435	108016	0	0	8282	513611	0	0
2024-10-20 15:29:47			0	39229	0	0	0	21812	20400	157589	27528	1059740	46446	108013	0	0	8277	516722	0	0
2024-10-20 15:30:47			0	39137	0	0	0	21820	20400	157981	27566	1059776	46436	108016	0	0	8272	520214	0	0
2024-10-20 15:31:47			0	39131	0	0	0	21810	20400	158041	27464	1059740	46424	108012	0	0	8271	520443	0	0
2024-10-20 15:32:47			0	39057	0	0	0	21818	20390	158369	27748	1059776	46435	108015	0	0	8267	523292	0	0
2024-10-20 15:33:47			0	38982	0	0	0	21818	20390	158641	27455	1059785	46446	108015	0	0	8263	526159	0	0
2024-10-20 15:34:47			0	38923	0	0	0	21807	20390	158829	27597	1059758	46435	108011	0	0	8259	528421	0	0
2024-10-20 15:35:47			0	38869	0	0	0	21815	20380	159045	27476	1059651	46433	108014	0	0	8256	530526	0	0
2024-10-20 15:36:47			0	38831	0	0	0	21812	20380	159141	27381	1059687	46434	108013	0	0	8254	531990	0	0
2024-10-20 15:37:47			0	38794	0	0	0	21810	20380	159353	27287	1059714	46434	108012	0	0	8252	533417	0	0
2024-10-20 15:38:47			0	38802	0	0	0	21815	20390	159309	27369	1059749	46435	108014	0	0	8252	533079	0	0
2024-10-20 15:39:47			0	38766	0	0	0	21807	20390	159557	27351	1059776	46424	108011	0	0	8250	534470	0	0
2024-10-20 15:40:47			0	38717	0	0	0	21815	20380	159544	27319	1059740	46423	108014	0	0	8247	536395	0	0
2024-10-20 15:41:47			0	38735	0	0	0	21823	20380	159677	27436	1059714	46423	108017	0	0	8248	535698	0	0
2024-10-20 15:42:47			0	38684	0	0	0	21807	20380	159736	27594	1059714	46413	108011	0	0	8245	537675	0	0
2024-10-20 15:43:47			0	38698	0	0	0	21820	20390	159780	27486	1059696	46424	108016	0	0	8246	537102	0	0
2024-10-20 15:44:47			0	38745	0	0	0	21823	20380	159473	27284	1059714	46445	108017	0	0	8249	535311	0	0
2024-10-20 15:45:47			0	38821	0	0	0	21818	20380	159249	27666	1059714	46434	108015	0	0	8253	532376	0	0
2024-10-20 15:46:47			0	38813	0	0	0	21820	20380	159273	27405	1059714	46434	108016	0	0	8253	532684	0	0
2024-10-20 15:47:47			0	38810	0	0	0	21815	20390	159221	27332	1059758	46435	108014	0	0	8253	532770	0	0
2024-10-20 15:48:47			0	38784	0	0	0	21815	20380	159309	27379	1059740	46445	108014	0	0	8251	533804	0	0
2024-10-20 15:49:47			0	38790	0	0	0	21815	20380	159233	27691	1059740	46445	108014	0	0	8251	533572	0	0
2024-10-20 15:50:47			0	38803	0	0	0	21807	20380	159157	27616	1059811	46422	108011	0	0	8252	533070	0	0
2024-10-20 15:51:47			0	38764	0	0	0	21815	20390	159373	27377	1059749	46435	108014	0	0	8250	534547	0	0
2024-10-20 15:52:47			0	38834	0	0	0	21823	20380	159301	27428	1059714	46434	108017	0	0	8254	531874	0	0
2024-10-20 15:53:47			0	38892	0	0	0	21815	20390	158945	27727	1059776	46435	108014	0	0	8257	529612	0	0
2024-10-20 15:54:47			0	38937	0	0	0	21825	20380	158833	27696	1059820	46434	108018	0	0	8260	527913	0	0
2024-10-20 15:55:47			0	38988	0	0	0	21833	20380	158569	27750	1059820	46434	108021	0	0	8263	525958	0	0
2024-10-20 15:56:47			0	39026	0	0	0	21828	20380	158397	27409	1059767	46445	108019	0	0	8265	524505	0	0
2024-10-20 15:57:47			0	39015	0	0	0	21820	20390	158497	27852	1059722	46446	108016	0	0	8264	524896	0	0
2024-10-20 15:58:47			0	38977	0	0	0	21815	20390	158573	27509	1059838	46424	108014	0	0	8262	526350	0	0
2024-10-20 15:59:47			0	38996	0	0	0	21825	20380	158553	27443	1059767	46445	108018	0	0	8263	525652	0	0
2024-10-20 16:00:47			0	39013	0	0	0	21823	20390	158445	27758	1059802	46446	108017	0	0	8264	524973	0	0
2024-10-20 16:01:47			0	39052	0	0	0	21838	20380	158381	27518	1059705	46433	108023	0	0	8266	523511	0	0
2024-10-20 16:02:47			0	39123	0	0	0	21841	20390	158177	27390	1059722	46446	108024	0	0	8270	520776	0	0
2024-10-20 16:03:47			0	39126	0	0	0	21833	20400	158085	27301	1059900	46435	108021	0	0	8271	520633	0	0
2024-10-20 16:04:47			0	39167	0	0	0	21844	20390	157857	27488	1059731	46457	108025	0	0	8273	519103	0	0
2024-10-20 16:05:47			0	39185	0	0	0	21833	20390	157777	27540	1059864	46435	108021	0	0	8274	518419	0	0
2024-10-20 16:06:47			0	39186	0	0	0	21851	20400	157833	27883	1059847	46446	108028	0	0	8274	518352	0	0
2024-10-20 16:07:47			0	39199	0	0	0	21849	20390	157757	27568	1059891	46424	108027	0	0	8275	517888	0	0
2024-10-20 16:08:47			0	39223	0	0	0	21849	20390	157693	27734	1059838	46435	108027	0	0	8276	516978	0	0
2024-10-20 16:09:47			0	39222	0	0	0	21846	20400	157601	27497	1059882	46436	108026	0	0	8276	516987	0	0
2024-10-20 16:10:47			0	39212	0	0	0	21849	20390	157617	27492	1059882	46435	108027	0	0	8275	517394	0	0
2024-10-20 16:11:47			0	39214	0	0	0	21836	20390	157609	27614	1059785	46435	108022	0	0	8276	517319	0	0
2024-10-20 16:12:47			0	39224	0	0	0	21836	20400	157617	27535	1059803	46425	108022	0	0	8276	516911	0	0
2024-10-20 16:13:47			0	39223	0	0	0	21841	20400	157649	27625	1059767	46446	108024	0	0	8276	516949	0	0
2024-10-20 16:14:47			0	39237	0	0	0	21833	20400	157553	27469	1059856	46447	108021	0	0	8277	516419	0	0
2024-10-20 16:15:47			0	39207	0	0	0	21846	20400	157633	27580	1059847	46446	108026	0	0	8275	517556	0	0
2024-10-20 16:16:47			0	39183	0	0	0	21836	20400	157837	27561	1059882	46436	108022	0	0	8274	518466	0	0
2024-10-20 16:17:47			0	39178	0	0	0	21841	20400	157861	27678	1059776	46447	108024	0	0	8274	518656	0	0
2024-10-20 16:18:47			0	39229	0	0	0	21849	20410	157577	27557	1059891	46437	108027	0	0	8276	516693	0	0
2024-10-20 16:19:47			0	39249	0	0	0	21851	20400	157481	27580	1059829	46436	108028	0	0	8278	515964	0	0
2024-10-20 16:20:47			0	39315	0	0	0	21844	20400	157305	27507	1059856	46447	108025	0	0	8281	513469	0	0
2024-10-20 16:21:47			0	39343	0	0	0	21851	20400	157089	27301	1059856	46447	108028	0	0	8283	512413	0	0
2024-10-20 16:22:47			0	39361	0	0	0	21857	20410	157105	27559	1059891	46437	108030	0	0	8284	511706	0	0
2024-10-20 16:23:47			0	39394	0	0	0	21859	20410	156905	27164	1059927	46448	108031	0	0	8286	510464	0	0
2024-10-20 16:24:47			0	39412	0	0	0	21851	20400	156998	27438	1059936	46447	108028	0	0	8287	509815	0	0
2024-10-20 16:25:47			0	39454	0	0	0	21859	20410	156706	27312	1059945	46448	108031	0	0	8289	508209	0	0
2024-10-20 16:26:47			0	39473	0	0	0	21844	20410	156698	27338	1059918	46448	108025	0	0	8291	507497	0	0
2024-10-20 16:27:47			0	39481	0	0	0	21841	20410	156570	27379	1059900	46437	108024	0	0	8291	507197	0	0
2024-10-20 16:28:47			0	39474	0	0	0	21841	20410	156554	27523	1059865	46426	108024	0	0	8291	507459	0	0
2024-10-20 16:29:47			0	39485	0	0	0	21849	20420	156686	27587	1059910	46437	108027	0	0	8291	507019	0	0
2024-10-20 16:30:47			0	39494	0	0	0	21831	20410	156510	27713	1059900	46448	108020	0	0	8292	506709	0	0
2024-10-20 16:31:47			0	39483	0	0	0	21836	20410	156586	27583	1059927	46437	108022	0	0	8291	507122	0	0
2024-10-20 16:32:47			0	39530	0	0	0	21836	20420	156442	27668	1059910	46437	108022	0	0	8294	505334	0	0
2024-10-20 16:33:47			0	39521	0	0	0	21823	20410	156518	27511	1059918	46448	108017	0	0	8294	505698	0	0
2024-10-20 16:34:47			0	39534	0	0	0	21818	20410	156334	27405	1059918	46437	108015	0	0	8295	505212	0	0
2024-10-20 16:35:47			0	39536	0	0	0	21841	20410	156330	27421	1059900	46426	108024	0	0	8294	505137	0	0
2024-10-20 16:36:47			0	39594	0	0	0	21838	20410	156150	27286	1059891	46448	108023	0	0	8298	502971	0	0
2024-10-20 16:37:47			0	39634	0	0	0	21825	20400	156078	27497	1059909	46436	108018	0	0	8300	501508	0	0
2024-10-20 16:38:47			0	39644	0	0	0	21846	20420	155890	27448	1059936	46448	108026	0	0	8301	501080	0	0
2024-10-20 16:39:47			0	39675	0	0	0	21851	20420	155878	27478	1059963	46448	108028	0	0	8302	499927	0	0
2024-10-20 16:40:47			0	39720	0	0	0	21851	20410	155642	27244	1059954	46437	108028	0	0	8305	498283	0	0
2024-10-20 16:41:47			0	39750	0	0	0	21854	20420	155514	27597	1059963	46437	108029	0	0	8307	497143	0	0
2024-10-20 16:42:47			0	39766	0	0	0	21859	20420	155442	27473	1059910	46437	108031	0	0	8307	496551	0	0
2024-10-20 16:43:47			0	39791	0	0	0	21854	20420	155458	27711	1059998	46427	108029	0	0	8309	495625	0	0
2024-10-20 16:44:47			0	39813	0	0	0	21859	20420	155298	27350	1059945	46449	108031	0	0	8310	494812	0	0
2024-10-20 16:45:47			0	39838	0	0	0	21857	20420	155322	27156	1059945	46438	108030	0	0	8312	493888	0	0
2024-10-20 16:46:47			0	39845	0	0	0	21859	20420	155202	27284	1059936	46458	108031	0	0	8312	493630	0	0
2024-10-20 16:47:47			0	39858	0	0	0	21854	20420	155182	27298	1060016	46437	108029	0	0	8313	493150	0	0
2024-10-20 16:48:47			0	39873	0	0	0	21872	20430	155138	27563	1059954	46439	108036	0	0	8313	492570	0	0
2024-10-20 16:49:47			0	39896	0	0	0	21870	20420	155010	27497	1059972	46438	108035	0	0	8315	491749	0	0
2024-10-20 16:50:47			0	39939	0	0	0	21870	20440	154898	27412	1060025	46439	108035	0	0	8317	490113	0	0
2024-10-20 16:51:47			0	39966	0	0	0	21862	20430	154766	27429	1060007	46450	108032	0	0	8319	489148	0	0
2024-10-20 16:52:47			0	39962	0	0	0	21862	20430	154718	27440	1059981	46439	108032	0	0	8319	489295	0	0
2024-10-20 16:53:47			0	39941	0	0	0	21862	20430	155026	27696	1060016	46439	108032	0	0	8317	490066	0	0
2024-10-20 16:54:47			0	39897	0	0	0	21849	20430	155158	27699	1059981	46439	108027	0	0	8315	491685	0	0
2024-10-20 16:55:47			0	39836	0	0	0	21838	20430	155282	27371	1059990	46428	108023	0	0	8312	493935	0	0
2024-10-20 16:56:47			0	39791	0	0	0	21838	20440	155506	27937	1059972	46417	108023	0	0	8309	495570	0	0
2024-10-20 16:57:47			0	39770	0	0	0	21825	20420	155630	27248	1059919	46438	108018	0	0	8308	496402	0	0
2024-10-20 16:58:47			0	39723	0	0	0	21823	20410	155642	27438	1059891	46437	108017	0	0	8305	498172	0	0
2024-10-20 16:59:47			0	39715	0	0	0	21823	20420	155654	27317	1059883	46426	108017	0	0	8305	498441	0	0
2024-10-20 17:00:47			0	39653	0	0	0	21807	20410	155998	27215	1059812	46426	108011	0	0	8302	500773	0	0
2024-10-20 17:01:47			0	39600	0	0	0	21812	20410	156022	27736	1059838	46426	108013	0	0	8299	502747	0	0
2024-10-20 17:02:47			0	39589	0	0	0	21818	20400	156254	27523	1059856	46436	108015	0	0	8298	503185	0	0
2024-10-20 17:03:47			0	39623	0	0	0	21836	20400	156158	27396	1059856	46425	108022	0	0	8299	501918	0	0
2024-10-20 17:04:47			0	39658	0	0	0	21825	20400	155958	27599	1059847	46435	108018	0	0	8302	500615	0	0
2024-10-20 17:05:47			0	39669	0	0	0	21836	20410	155894	27637	1059891	46448	108022	0	0	8302	500178	0	0
2024-10-20 17:06:47			0	39653	0	0	0	21828	20400	155950	27251	1059847	46435	108019	0	0	8301	500801	0	0
2024-10-20 17:07:47			0	39656	0	0	0	21815	20400	155962	27447	1059882	46447	108014	0	0	8302	500689	0	0
2024-10-20 17:08:47			0	39619	0	0	0	21823	20400	155990	27303	1059829	46436	108017	0	0	8299	502067	0	0
2024-10-20 17:09:47			0	39627	0	0	0	21818	20400	156074	27680	1059847	46446	108015	0	0	8300	501769	0	0
2024-10-20 17:10:47			0	39653	0	0	0	21825	20400	155962	27371	1059882	46414	108018	0	0	8301	500801	0	0
2024-10-20 17:11:47			0	39677	0	0	0	21836	20400	155874	27873	1059856	46425	108022	0	0	8303	499908	0	0
2024-10-20 17:12:47			0	39684	0	0	0	21828	20400	155930	27322	1059882	46436	108019	0	0	8303	499648	0	0
2024-10-20 17:13:47			0	39706	0	0	0	21841	20400	155738	27272	1059909	46436	108024	0	0	8304	498830	0	0
2024-10-20 17:14:47			0	39779	0	0	0	21851	20410	155418	27407	1059847	46448	108028	0	0	8308	496097	0	0
2024-10-20 17:15:47			0	39830	0	0	0	21849	20400	155354	27471	1059900	46435	108027	0	0	8311	494238	0	0
2024-10-20 17:16:47			0	39862	0	0	0	21851	20410	155282	27478	1059891	46448	108028	0	0	8313	493030	0	0
2024-10-20 17:17:47			0	39883	0	0	0	21846	20410	155070	27554	1059891	46448	108026	0	0	8314	492255	0	0
2024-10-20 17:18:47			0	39913	0	0	0	21849	20410	154970	27422	1059927	46448	108027	0	0	8316	491151	0	0
2024-10-20 17:19:47			0	39933	0	0	0	21857	20410	154974	27448	1059891	46426	108030	0	0	8317	490415	0	0
2024-10-20 17:20:47			0	39944	0	0	0	21849	20410	154974	27582	1059954	46448	108027	0	0	8318	490010	0	0
2024-10-20 17:21:47			0	39921	0	0	0	21844	20400	154950	27362	1059936	46425	108025	0	0	8316	490883	0	0
2024-10-20 17:22:47			0	39941	0	0	0	21846	20420	154998	27783	1059910	46437	108026	0	0	8318	490093	0	0
2024-10-20 17:23:47			0	39946	0	0	0	21841	20410	154942	27466	1059874	46437	108024	0	0	8318	489937	0	0
2024-10-20 17:24:47			0	39943	0	0	0	21846	20410	154890	27445	1059900	46448	108026	0	0	8318	490047	0	0
2024-10-20 17:25:47			0	39952	0	0	0	21844	20410	154846	27086	1059927	46437	108025	0	0	8318	489716	0	0
2024-10-20 17:26:47			0	39951	0	0	0	21833	20410	154926	27523	1059865	46437	108021	0	0	8318	489753	0	0
2024-10-20 17:27:47			0	39944	0	0	0	21833	20400	154854	27414	1059909	46425	108021	0	0	8318	490037	0	0
2024-10-20 17:28:47			0	39943	0	0	0	21838	20400	154914	27320	1059909	46447	108023	0	0	8318	490074	0	0
2024-10-20 17:29:47			0	39958	0	0	0	21831	20410	154954	27464	1059891	46437	108020	0	0	8319	489496	0	0
2024-10-20 17:30:47			0	39964	0	0	0	21841	20410	154854	27135	1059891	46426	108024	0	0	8319	489275	0	0
2024-10-20 17:31:47			0	39982	0	0	0	21841	20400	154914	27067	1059909	46436	108024	0	0	8320	488641	0	0
2024-10-20 17:32:47			0	39972	0	0	0	21836	20400	154894	27131	1059882	46447	108022	0	0	8320	489009	0	0
2024-10-20 17:33:47			0	39997	0	0	0	21841	20400	154834	27239	1059882	46436	108024	0	0	8321	488091	0	0
2024-10-20 17:34:47			0	40000	0	0	0	21841	20400	154834	27367	1059856	46436	108024	0	0	8321	487981	0	0
2024-10-20 17:35:47			0	40006	0	0	0	21846	20400	154814	27812	1059882	46436	108026	0	0	8321	487761	0	0
2024-10-20 17:36:47			0	40024	0	0	0	21851	20410	154626	27403	1059891	46448	108028	0	0	8322	487074	0	0
2024-10-20 17:37:47			0	40000	0	0	0	21836	20410	154702	27336	1059874	46437	108022	0	0	8321	487954	0	0
2024-10-20 17:38:47			0	40006	0	0	0	21838	20400	154722	27289	1059909	46447	108023	0	0	8321	487761	0	0
2024-10-20 17:39:47			0	39990	0	0	0	21831	20400	154826	27256	1059776	46436	108020	0	0	8321	488348	0	0
2024-10-20 17:40:47			0	39992	0	0	0	21825	20410	154850	27360	1059945	46437	108018	0	0	8321	488247	0	0
2024-10-20 17:41:47			0	39981	0	0	0	21828	20400	154682	27396	1059936	46436	108019	0	0	8320	488678	0	0
2024-10-20 17:42:47			0	39986	0	0	0	21833	20410	154806	26981	1059891	46437	108021	0	0	8320	488468	0	0
2024-10-20 17:43:47			0	40004	0	0	0	21833	20400	154770	27391	1059882	46436	108021	0	0	8321	487834	0	0
2024-10-20 17:44:47			0	39973	0	0	0	21838	20400	154750	27479	1059803	46436	108023	0	0	8320	488972	0	0
2024-10-20 17:45:47			0	39974	0	0	0	21836	20400	154834	27571	1059882	46436	108022	0	0	8320	488935	0	0
2024-10-20 17:46:47			0	39979	0	0	0	21831	20400	154790	27395	1059829	46436	108020	0	0	8320	488752	0	0
2024-10-20 17:47:47			0	39948	0	0	0	21825	20400	154858	27573	1059882	46436	108018	0	0	8318	489890	0	0
2024-10-20 17:48:47			0	39951	0	0	0	21828	20400	154910	27543	1059909	46425	108019	0	0	8318	489780	0	0
2024-10-20 17:49:47			0	39926	0	0	0	21820	20400	154986	26951	1059873	46435	108016	0	0	8317	490699	0	0
2024-10-20 17:50:47			0	39903	0	0	0	21825	20400	155002	27313	1059847	46435	108018	0	0	8316	491546	0	0
2024-10-20 17:51:47			0	39881	0	0	0	21818	20390	155070	27090	1059802	46446	108015	0	0	8315	492384	0	0
2024-10-20 17:52:47			0	39890	0	0	0	21828	20390	155046	27112	1059838	46446	108019	0	0	8315	492052	0	0
2024-10-20 17:53:47			0	39894	0	0	0	21820	20390	155082	27353	1059838	46435	108016	0	0	8315	491905	0	0
2024-10-20 17:54:47			0	39898	0	0	0	21818	20390	155158	27296	1059838	46435	108015	0	0	8316	491757	0	0
2024-10-20 17:55:47			0	39889	0	0	0	21810	20390	155302	27324	1059811	46435	108012	0	0	8315	492089	0	0
2024-10-20 17:56:47			0	39882	0	0	0	21807	20390	155314	27118	1059829	46435	108011	0	0	8315	492347	0	0
2024-10-20 17:57:47			0	39861	0	0	0	21815	20390	155298	27365	1059776	46435	108014	0	0	8313	493121	0	0
2024-10-20 17:58:47			0	39871	0	0	0	21807	20380	155442	27149	1059758	46433	108011	0	0	8314	492780	0	0
2024-10-20 17:59:47			0	39868	0	0	0	21810	20390	155266	27175	1059749	46435	108012	0	0	8314	492863	0	0
2024-10-20 18:00:47			0	39863	0	0	0	21802	20380	155250	27301	1059687	46423	108009	0	0	8314	493075	0	0
2024-10-20 18:01:47			0	39812	0	0	0	21807	20380	155430	27573	1059705	46433	108011	0	0	8311	494958	0	0
2024-10-20 18:02:47			0	39787	0	0	0	21805	20380	155446	27422	1059731	46433	108010	0	0	8309	495883	0	0
2024-10-20 18:03:47			0	39777	0	0	0	21807	20380	155634	27222	1059731	46433	108011	0	0	8309	496253	0	0
2024-10-20 18:04:47			0	39746	0	0	0	21799	20380	155566	27428	1059714	46445	108008	0	0	8307	497402	0	0
2024-10-20 18:05:47			0	39751	0	0	0	21805	20370	155734	27225	1059722	46421	108010	0	0	8307	497244	0	0
2024-10-20 18:06:47			0	39742	0	0	0	21807	20370	155742	27405	1059696	46443	108011	0	0	8307	497577	0	0
2024-10-20 18:07:47			0	39702	0	0	0	21794	20380	155814	27362	1059731	46433	108006	0	0	8305	499034	0	0
2024-10-20 18:08:47			0	39692	0	0	0	21797	20370	155926	27670	1059696	46443	108007	0	0	8304	499433	0	0
2024-10-20 18:09:47			0	39695	0	0	0	21789	20370	155898	27189	1059722	46443	108004	0	0	8304	499322	0	0
2024-10-20 18:10:47			0	39709	0	0	0	21797	20370	155882	26984	1059687	46432	108007	0	0	8305	498802	0	0
2024-10-20 18:11:47			0	39668	0	0	0	21786	20370	156098	27222	1059713	46421	108003	0	0	8303	500326	0	0
2024-10-20 18:12:47			0	39622	0	0	0	21797	20360	156206	27407	1059704	46432	108007	0	0	8300	502066	0	0
2024-10-20 18:13:47			0	39625	0	0	0	21797	20370	156194	27329	1059713	46421	108007	0	0	8300	501926	0	0
2024-10-20 18:14:47			0	39630	0	0	0	21797	20360	156150	27052	1059624	46443	108007	0	0	8300	501768	0	0
2024-10-20 18:15:47			0	39638	0	0	0	21792	20360	156166	27263	1059651	46443	108005	0	0	8301	501470	0	0
2024-10-20 18:16:47			0	39613	0	0	0	21794	20370	156294	27100	1059696	46432	108006	0	0	8299	502374	0	0
2024-10-20 18:17:47			0	39564	0	0	0	21784	20360	156358	27131	1059651	46432	108002	0	0	8297	504230	0	0
2024-10-20 18:18:47			0	39569	0	0	0	21794	20360	156390	27015	1059651	46421	108006	0	0	8297	504043	0	0
2024-10-20 18:19:47			0	39562	0	0	0	21784	20360	156350	27537	1059651	46421	108002	0	0	8297	504305	0	0
2024-10-20 18:20:47			0	39580	0	0	0	21781	20360	156502	27395	1059562	46431	108001	0	0	8298	503633	0	0
2024-10-20 18:21:47			0	39587	0	0	0	21781	20360	156338	27253	1059651	46421	108001	0	0	8298	503371	0	0
2024-10-20 18:22:47			0	39583	0	0	0	21776	20360	156402	27293	1059589	46420	107999	0	0	8298	503521	0	0
2024-10-20 18:23:47			0	39588	0	0	0	21774	20360	156294	27156	1059669	46409	107998	0	0	8298	503334	0	0
2024-10-20 18:24:47			0	39590	0	0	0	21763	20350	156358	27331	1059571	46430	107994	0	0	8299	503287	0	0
2024-10-20 18:25:47			0	39597	0	0	0	21771	20360	156270	27490	1059615	46431	107997	0	0	8299	502998	0	0
2024-10-20 18:26:47			0	39597	0	0	0	21766	20340	156366	27244	1059562	46441	107995	0	0	8299	503054	0	0
2024-10-20 18:27:47			0	39588	0	0	0	21755	20350	156270	27360	1059518	46430	107991	0	0	8299	503362	0	0
2024-10-20 18:28:47			0	39603	0	0	0	21755	20340	156274	27300	1059535	46430	107991	0	0	8299	502830	0	0
2024-10-20 18:29:47			0	39591	0	0	0	21766	20340	156382	27242	1059562	46430	107995	0	0	8298	503278	0	0
2024-10-20 18:30:47			0	39604	0	0	0	21755	20340	156206	27029	1059499	46418	107991	0	0	8299	502793	0	0
2024-10-20 18:31:47			0	39597	0	0	0	21763	20320	156358	27540	1059499	46417	107994	0	0	8299	503109	0	0
2024-10-20 18:32:47			0	39585	0	0	0	21758	20340	156306	27196	1059509	46419	107992	0	0	8298	503502	0	0
2024-10-20 18:33:47			0	39573	0	0	0	21761	20330	156398	27235	1059544	46428	107993	0	0	8297	503977	0	0
2024-10-20 18:34:47			0	39588	0	0	0	21737	20330	156318	27391	1059464	46428	107984	0	0	8299	503417	0	0
2024-10-20 18:35:47			0	39585	0	0	0	21745	20320	156318	27282	1059464	46427	107987	0	0	8298	503557	0	0
2024-10-20 18:36:47			0	39581	0	0	0	21748	20310	156314	27147	1059455	46416	107988	0	0	8298	503734	0	0
2024-10-20 18:37:47			0	39555	0	0	0	21748	20320	156286	27388	1059473	46417	107988	0	0	8297	504678	0	0
2024-10-20 18:38:47			0	39562	0	0	0	21750	20330	156310	27043	1059517	46417	107989	0	0	8297	504389	0	0
2024-10-20 18:39:47			0	39547	0	0	0	21748	20320	156430	27126	1059464	46438	107988	0	0	8296	504977	0	0
2024-10-20 18:40:47			0	39547	0	0	0	21742	20320	156322	27312	1059499	46428	107986	0	0	8296	504977	0	0
2024-10-20 18:41:47			0	39543	0	0	0	21745	20320	156390	27131	1059446	46428	107987	0	0	8296	505127	0	0
2024-10-20 18:42:47			0	39537	0	0	0	21745	20320	156506	27039	1059410	46438	107987	0	0	8296	505351	0	0
2024-10-20 18:43:47			0	39521	0	0	0	21748	20310	156550	26826	1059455	46426	107988	0	0	8295	505978	0	0
2024-10-20 18:44:47			0	39523	0	0	0	21750	20310	156518	27090	1059392	46436	107989	0	0	8295	505903	0	0
2024-10-20 18:45:47			0	39505	0	0	0	21737	20300	156550	27161	1059383	46436	107984	0	0	8294	506605	0	0
2024-10-20 18:46:47			0	39496	0	0	0	21737	20310	156430	26987	1059401	46426	107984	0	0	8293	506915	0	0
2024-10-20 18:47:47			0	39476	0	0	0	21732	20310	156602	26961	1059392	46425	107982	0	0	8292	507664	0	0
2024-10-20 18:48:47			0	39463	0	0	0	21740	20310	156750	27173	1059446	46436	107985	0	0	8291	508152	0	0
2024-10-20 18:49:47			0	39462	0	0	0	21737	20310	156666	27057	1059446	46425	107984	0	0	8291	508190	0	0
2024-10-20 18:50:47			0	39444	0	0	0	21732	20310	156842	27008	1059401	46437	107982	0	0	8290	508866	0	0
2024-10-20 18:51:47			0	39414	0	0	0	21727	20300	156889	26817	1059410	46447	107980	0	0	8289	510021	0	0
2024-10-20 18:52:47			0	39420	0	0	0	21732	20300	156962	27107	1059374	46425	107982	0	0	8289	509796	0	0
2024-10-20 18:53:47			0	39384	0	0	0	21732	20310	157061	27029	1059392	46403	107982	0	0	8287	511122	0	0
2024-10-20 18:54:47			0	39346	0	0	0	21732	20300	157125	27291	1059348	46425	107982	0	0	8285	512583	0	0
2024-10-20 18:55:47			0	39329	0	0	0	21727	20300	157245	26963	1059410	46425	107980	0	0	8284	513224	0	0
2024-10-20 18:56:47			0	39324	0	0	0	21724	20300	157241	27286	1059383	46415	107979	0	0	8284	513413	0	0
2024-10-20 18:57:47			0	39280	0	0	0	21722	20300	157213	27255	1059304	46425	107978	0	0	8281	515076	0	0
2024-10-20 18:58:47			0	39268	0	0	0	21722	20290	157397	27019	1059312	46435	107978	0	0	8280	515558	0	0
2024-10-20 18:59:47			0	39276	0	0	0	21716	20300	157453	27100	1059348	46436	107976	0	0	8281	515227	0	0
2024-10-20 19:00:47			0	39253	0	0	0	21714	20300	157421	26729	1059383	46436	107975	0	0	8280	516098	0	0
2024-10-20 19:01:47			0	39226	0	0	0	21716	20290	157597	26809	1059330	46434	107976	0	0	8278	517149	0	0
2024-10-20 19:02:47			0	39217	0	0	0	21711	20290	157637	27350	1059330	46423	107974	0	0	8278	517491	0	0
2024-10-20 19:03:47			0	39222	0	0	0	21714	20290	157725	27203	1059277	46413	107975	0	0	8278	517301	0	0
2024-10-20 19:04:47			0	39197	0	0	0	21706	20280	157673	27121	1059321	46423	107972	0	0	8276	518278	0	0
2024-10-20 19:05:47			0	39172	0	0	0	21711	20280	157793	27057	1059348	46423	107974	0	0	8275	519228	0	0
2024-10-20 19:06:47			0	39177	0	0	0	21711	20280	157817	26873	1059268	46434	107974	0	0	8275	519038	0	0
2024-10-20 19:07:47			0	39157	0	0	0	21714	20280	157921	27222	1059285	46434	107975	0	0	8274	519798	0	0
2024-10-20 19:08:47			0	39139	0	0	0	21711	20280	157969	27227	1059268	46413	107974	0	0	8273	520483	0	0
2024-10-20 19:09:47			0	39127	0	0	0	21722	20280	157965	27583	1059241	46423	107978	0	0	8272	520940	0	0
2024-10-20 19:10:47			0	39129	0	0	0	21714	20280	158013	27338	1059294	46423	107975	0	0	8272	520864	0	0
2024-10-20 19:11:47			0	39101	0	0	0	21703	20270	158149	27026	1059223	46433	107971	0	0	8271	521959	0	0
2024-10-20 19:12:47			0	39111	0	0	0	21701	20270	158149	27239	1059303	46412	107970	0	0	8271	521578	0	0
2024-10-20 19:13:47			0	39082	0	0	0	21703	20280	158341	27348	1059232	46423	107971	0	0	8270	522655	0	0
2024-10-20 19:14:47			0	39067	0	0	0	21706	20280	158221	27334	1059285	46423	107972	0	0	8269	523228	0	0
2024-10-20 19:15:47			0	39049	0	0	0	21716	20270	158321	27357	1059250	46422	107976	0	0	8268	523944	0	0
2024-10-20 19:16:47			0	39033	0	0	0	21709	20280	158357	26918	1059285	46423	107973	0	0	8267	524527	0	0
2024-10-20 19:17:47			0	39034	0	0	0	21709	20270	158377	27317	1059241	46421	107973	0	0	8267	524518	0	0
2024-10-20 19:18:47			0	39011	0	0	0	21709	20280	158405	27015	1059312	46413	107973	0	0	8266	525368	0	0
2024-10-20 19:19:47			0	38993	0	0	0	21709	20280	158349	27232	1059268	46423	107973	0	0	8265	526058	0	0
2024-10-20 19:20:47			0	39008	0	0	0	21709	20280	158517	27062	1059259	46434	107973	0	0	8265	525483	0	0
2024-10-20 19:21:47			0	39001	0	0	0	21716	20270	158585	27306	1059250	46433	107976	0	0	8265	525780	0	0
2024-10-20 19:22:47			0	38970	0	0	0	21711	20280	158709	27327	1059232	46434	107974	0	0	8263	526939	0	0
2024-10-20 19:23:47			0	38959	0	0	0	21711	20280	158713	27135	1059259	46445	107974	0	0	8263	527361	0	0
2024-10-20 19:24:47			0	38922	0	0	0	21711	20270	158721	27041	1059250	46422	107974	0	0	8260	528810	0	0
2024-10-20 19:25:47			0	38928	0	0	0	21709	20280	158865	27237	1059259	46434	107973	0	0	8261	528550	0	0
2024-10-20 19:26:47			0	38910	0	0	0	21706	20270	158829	27059	1059276	46422	107972	0	0	8260	529271	0	0
2024-10-20 19:27:47			0	38922	0	0	0	21703	20270	158833	27182	1059223	46422	107971	0	0	8260	528810	0	0
2024-10-20 19:28:47			0	38932	0	0	0	21698	20270	158749	27351	1059223	46422	107969	0	0	8261	528426	0	0
2024-10-20 19:29:47			0	38946	0	0	0	21690	20270	158773	27092	1059276	46422	107966	0	0	8262	527889	0	0
2024-10-20 19:30:47			0	38919	0	0	0	21693	20270	158765	27293	1059223	46422	107967	0	0	8260	528925	0	0
2024-10-20 19:31:47			0	38900	0	0	0	21706	20260	158837	27272	1059232	46399	107972	0	0	8259	529685	0	0
2024-10-20 19:32:47			0	38901	0	0	0	21701	20270	158801	27329	1059223	46412	107970	0	0	8259	529617	0	0
2024-10-20 19:33:47			0	38923	0	0	0	21709	20270	158825	27057	1059214	46411	107973	0	0	8260	528772	0	0
2024-10-20 19:34:47			0	38898	0	0	0	21709	20260	158893	27208	1059249	46432	107973	0	0	8259	529762	0	0
2024-10-20 19:35:47			0	38898	0	0	0	21719	20270	158961	27138	1059267	46421	107977	0	0	8259	529733	0	0
2024-10-20 19:36:47			0	38894	0	0	0	21719	20260	159145	27140	1059232	46421	107977	0	0	8259	529916	0	0
2024-10-20 19:37:47			0	38895	0	0	0	21696	20270	158953	27216	1059294	46432	107968	0	0	8259	529848	0	0
2024-10-20 19:38:47			0	38893	0	0	0	21701	20270	159017	27253	1059223	46422	107970	0	0	8259	529925	0	0
2024-10-20 19:39:47			0	38887	0	0	0	21693	20260	159049	26788	1059196	46443	107967	0	0	8259	530185	0	0
2024-10-20 19:40:47			0	38889	0	0	0	21703	20270	159133	27353	1059197	46422	107971	0	0	8259	530079	0	0
2024-10-20 19:41:47			0	38865	0	0	0	21690	20250	159037	27147	1059134	46431	107966	0	0	8257	531061	0	0
2024-10-20 19:42:47			0	38836	0	0	0	21685	20270	159209	27180	1059241	46421	107964	0	0	8256	532121	0	0
2024-10-20 19:43:47			0	38848	0	0	0	21690	20260	159209	26934	1059179	46421	107966	0	0	8256	531687	0	0
2024-10-20 19:44:47			0	38819	0	0	0	21688	20260	159253	27111	1059196	46432	107965	0	0	8255	532806	0	0
2024-10-20 19:45:47			0	38833	0	0	0	21690	20260	159369	27178	1059143	46421	107966	0	0	8255	532266	0	0
2024-10-20 19:46:47			0	38795	0	0	0	21690	20260	159325	27248	1059205	46421	107966	0	0	8253	533733	0	0
2024-10-20 19:47:47			0	38788	0	0	0	21680	20260	159425	27348	1059179	46432	107962	0	0	8253	534003	0	0
2024-10-20 19:48:47			0	38774	0	0	0	21680	20260	159433	27319	1059205	46421	107962	0	0	8252	534544	0	0
2024-10-20 19:49:47			0	38772	0	0	0	21680	20250	159561	27066	1059161	46409	107962	0	0	8252	534651	0	0
2024-10-20 19:50:47			0	38769	0	0	0	21680	20250	159541	27010	1059161	46431	107962	0	0	8252	534767	0	0
2024-10-20 19:51:47			0	38735	0	0	0	21677	20250	159549	26965	1059187	46431	107961	0	0	8250	536083	0	0
2024-10-20 19:52:47			0	38748	0	0	0	21670	20240	159577	27203	1059143	46418	107958	0	0	8251	535609	0	0
2024-10-20 19:53:47			0	38725	0	0	0	21670	20240	159576	27294	1059099	46430	107958	0	0	8249	536500	0	0
2024-10-20 19:54:47			0	38722	0	0	0	21685	20240	159776	27187	1059116	46418	107964	0	0	8249	536616	0	0
2024-10-20 19:55:47			0	38734	0	0	0	21685	20250	159652	27133	1059161	46431	107964	0	0	8250	536122	0	0
2024-10-20 19:56:47			0	38726	0	0	0	21683	20250	159736	26960	1059161	46420	107963	0	0	8249	536432	0	0
2024-10-20 19:57:47			0	38731	0	0	0	21677	20240	159649	26925	1059178	46419	107961	0	0	8250	536268	0	0
2024-10-20 19:58:47			0	38724	0	0	0	21672	20240	159673	26987	1059143	46429	107959	0	0	8249	536539	0	0
2024-10-20 19:59:47			0	38725	0	0	0	21675	20230	159740	26913	1059107	46429	107960	0	0	8249	536530	0	0
2024-10-20 20:00:47			0	38681	0	0	0	21662	20250	159848	27170	1059187	46409	107955	0	0	8247	538177	0	0
2024-10-20 20:01:47			0	38682	0	0	0	21667	20230	159936	26871	1059027	46418	107957	0	0	8247	538198	0	0
2024-10-20 20:02:47			0	38664	0	0	0	21667	20240	159872	27213	1059143	46418	107957	0	0	8246	538867	0	0
2024-10-20 20:03:47			0	38671	0	0	0	21670	20240	159944	26956	1059072	46430	107958	0	0	8246	538595	0	0
2024-10-20 20:04:47			0	38668	0	0	0	21672	20240	159896	26956	1059063	46407	107959	0	0	8246	538712	0	0
2024-10-20 20:05:47			0	38683	0	0	0	21670	20230	159936	27202	1059098	46418	107958	0	0	8247	538159	0	0
2024-10-20 20:06:47			0	38674	0	0	0	21662	20230	159944	27312	1059045	46429	107955	0	0	8247	538509	0	0
2024-10-20 20:07:47			0	38680	0	0	0	21664	20230	159928	27300	1059027	46418	107956	0	0	8247	538276	0	0
2024-10-20 20:08:47			0	38684	0	0	0	21657	20230	159940	26866	1059072	46407	107953	0	0	8247	538120	0	0
2024-10-20 20:09:47			0	38663	0	0	0	21654	20230	159992	27090	1059072	46407	107952	0	0	8246	538936	0	0
2024-10-20 20:10:47			0	38672	0	0	0	21659	20230	159980	27364	1059045	46418	107954	0	0	8247	538586	0	0
2024-10-20 20:11:47			0	38652	0	0	0	21659	20220	160056	27074	1059010	46406	107954	0	0	8245	539393	0	0
2024-10-20 20:12:47			0	38637	0	0	0	21646	20220	160124	26956	1059027	46427	107949	0	0	8245	539977	0	0
2024-10-20 20:13:47			0	38641	0	0	0	21654	20230	159988	26963	1058992	46418	107952	0	0	8245	539792	0	0
2024-10-20 20:14:47			0	38614	0	0	0	21651	20240	160052	27019	1059063	46418	107951	0	0	8243	540813	0	0
2024-10-20 20:15:47			0	38628	0	0	0	21646	20220	160036	27005	1058956	46439	107949	0	0	8244	540327	0	0
2024-10-20 20:16:47			0	38620	0	0	0	21631	20220	160052	27235	1059036	46417	107943	0	0	8244	540639	0	0
2024-10-20 20:17:47			0	38629	0	0	0	21628	20210	160144	27138	1058965	46405	107942	0	0	8244	540318	0	0
2024-10-20 20:18:47			0	38635	0	0	0	21599	20220	160172	27001	1058956	46417	107931	0	0	8245	540055	0	0
2024-10-20 20:19:47			0	38642	0	0	0	21573	20210	160000	26960	1058903	46405	107921	0	0	8246	539812	0	0
2024-10-20 20:20:47			0	38670	0	0	0	21563	20200	159900	27128	1058805	46392	107917	0	0	8248	538753	0	0
2024-10-20 20:21:47			0	38693	0	0	0	21566	20200	159744	27013	1058831	46392	107918	0	0	8249	537860	0	0
2024-10-20 20:22:47			0	38737	0	0	0	21558	20180	159629	27339	1058742	46401	107915	0	0	8252	536213	0	0
2024-10-20 20:23:47			0	38768	0	0	0	21550	20180	159593	27138	1058751	46391	107912	0	0	8254	535012	0	0
2024-10-20 20:24:47			0	38771	0	0	0	21568	20160	159573	26941	1058689	46400	107919	0	0	8254	534955	0	0
2024-10-20 20:25:47			0	38768	0	0	0	21563	20170	159493	27027	1058733	46413	107917	0	0	8253	535042	0	0
2024-10-20 20:26:47			0	38788	0	0	0	21566	20160	159633	27013	1058715	46400	107918	0	0	8255	534298	0	0
2024-10-20 20:27:47			0	38793	0	0	0	21558	20150	159541	27060	1058618	46398	107915	0	0	8255	534134	0	0
2024-10-20 20:28:47			0	38805	0	0	0	21553	20150	159585	27402	1058715	46398	107913	0	0	8256	533670	0	0
2024-10-20 20:29:47			0	38806	0	0	0	21550	20150	159525	27265	1058644	46398	107912	0	0	8256	533632	0	0
2024-10-20 20:30:47			0	38813	0	0	0	21545	20150	159457	27135	1058662	46398	107910	0	0	8256	533361	0	0
2024-10-20 20:31:47			0	38804	0	0	0	21561	20140	159501	27274	1058617	46408	107916	0	0	8255	533738	0	0
2024-10-20 20:32:47			0	38832	0	0	0	21558	20130	159457	26994	1058555	46407	107915	0	0	8257	532686	0	0
2024-10-20 20:33:47			0	38810	0	0	0	21563	20130	159553	26991	1058635	46407	107917	0	0	8256	533536	0	0
2024-10-20 20:34:47			0	38816	0	0	0	21558	20130	159409	27111	1058626	46396	107915	0	0	8256	533304	0	0
2024-10-20 20:35:47			0	38824	0	0	0	21561	20140	159401	27341	1058617	46397	107916	0	0	8257	532966	0	0
2024-10-20 20:36:47			0	38829	0	0	0	21573	20130	159421	27473	1058599	46407	107921	0	0	8257	532802	0	0
2024-10-20 20:37:47			0	38806	0	0	0	21568	20120	159441	27057	1058591	46418	107919	0	0	8255	533720	0	0
2024-10-20 20:38:47			0	38827	0	0	0	21576	20130	159541	26805	1058573	46396	107922	0	0	8256	532879	0	0
2024-10-20 20:39:47			0	38805	0	0	0	21558	20120	159461	26984	1058635	46406	107915	0	0	8255	533758	0	0
2024-10-20 20:40:47			0	38794	0	0	0	21566	20130	159525	27260	1058599	46396	107918	0	0	8255	534154	0	0
2024-10-20 20:41:47			0	38789	0	0	0	21571	20120	159485	27367	1058608	46406	107920	0	0	8254	534377	0	0
2024-10-20 20:42:47			0	38795	0	0	0	21568	20130	159521	27329	1058653	46396	107919	0	0	8255	534116	0	0
2024-10-20 20:43:47			0	38778	0	0	0	21573	20140	159645	27170	1058644	46408	107921	0	0	8254	534744	0	0
2024-10-20 20:44:47			0	38759	0	0	0	21576	20130	159593	26994	1058582	46407	107922	0	0	8253	535508	0	0
2024-10-20 20:45:47			0	38744	0	0	0	21563	20130	159673	26788	1058599	46407	107917	0	0	8252	536090	0	0
2024-10-20 20:46:47			0	38756	0	0	0	21563	20130	159733	26986	1058599	46418	107917	0	0	8253	535625	0	0
2024-10-20 20:47:47			0	38756	0	0	0	21563	20130	159677	27072	1058599	46407	107917	0	0	8253	535625	0	0
2024-10-20 20:48:47			0	38752	0	0	0	21568	20120	159745	26909	1058591	46407	107919	0	0	8252	535809	0	0
2024-10-20 20:49:47			0	38752	0	0	0	21566	20120	159677	26972	1058617	46407	107918	0	0	8252	535809	0	0
2024-10-20 20:50:47			0	38748	0	0	0	21571	20130	159737	27203	1058662	46396	107920	0	0	8252	535934	0	0
2024-10-20 20:51:47			0	38729	0	0	0	21558	20130	159749	26981	1058599	46418	107915	0	0	8251	536671	0	0
2024-10-20 20:52:47			0	38740	0	0	0	21563	20130	159845	26949	1058599	46418	107917	0	0	8252	536244	0	0
2024-10-20 20:53:47			0	38735	0	0	0	21571	20120	159785	27229	1058644	46407	107920	0	0	8251	536468	0	0
2024-10-20 20:54:47			0	38715	0	0	0	21571	20120	159848	27308	1058591	46407	107920	0	0	8250	537244	0	0
2024-10-20 20:55:47			0	38706	0	0	0	21571	20120	159972	27464	1058617	46407	107920	0	0	8249	537593	0	0
2024-10-20 20:56:47			0	38691	0	0	0	21566	20120	159892	27157	1058555	46406	107918	0	0	8249	538175	0	0
2024-10-20 20:57:47			0	38672	0	0	0	21576	20130	159940	27088	1058599	46396	107922	0	0	8247	538884	0	0
2024-10-20 20:58:47			0	38685	0	0	0	21555	20120	160096	27154	1058635	46406	107914	0	0	8249	538408	0	0
2024-10-20 20:59:47			0	38680	0	0	0	21563	20120	160056	27256	1058564	46418	107917	0	0	8248	538603	0	0
2024-10-20 21:00:47			0	38655	0	0	0	21555	20120	160056	27377	1058537	46418	107914	0	0	8247	539575	0	0
2024-10-20 21:01:47			0	38630	0	0	0	21563	20110	160092	27024	1058546	46427	107917	0	0	8245	540577	0	0
2024-10-20 21:02:47			0	38618	0	0	0	21563	20120	160124	27306	1058555	46406	107917	0	0	8244	541015	0	0
2024-10-20 21:03:47			0	38633	0	0	0	21550	20120	160220	27163	1058555	46384	107912	0	0	8246	540431	0	0
2024-10-20 21:04:47			0	38643	0	0	0	21548	20120	160156	27059	1058528	46406	107911	0	0	8246	540041	0	0
2024-10-20 21:05:47			0	38656	0	0	0	21540	20120	160124	27194	1058475	46406	107908	0	0	8247	539536	0	0
2024-10-20 21:06:47			0	38652	0	0	0	21524	20110	160036	26958	1058457	46406	107902	0	0	8247	539721	0	0
2024-10-20 21:07:47			0	38641	0	0	0	21535	20100	160124	26996	1058501	46404	107906	0	0	8246	540179	0	0
2024-10-20 21:08:47			0	38654	0	0	0	21535	20110	160148	26892	1058484	46406	107906	0	0	8247	539643	0	0
2024-10-20 21:09:47			0	38633	0	0	0	21522	20100	160040	27003	1058475	46393	107901	0	0	8246	540490	0	0
2024-10-20 21:10:47			0	38643	0	0	0	21514	20110	160036	27026	1058378	46406	107898	0	0	8247	540071	0	0
2024-10-20 21:11:47			0	38657	0	0	0	21516	20090	160024	26904	1058404	46403	107899	0	0	8247	539586	0	0
2024-10-20 21:12:47			0	38644	0	0	0	21529	20100	160004	26870	1058333	46404	107904	0	0	8247	540062	0	0
2024-10-20 21:13:47			0	38629	0	0	0	21516	20090	160044	27130	1058430	46403	107899	0	0	8246	540676	0	0
2024-10-20 21:14:47			0	38655	0	0	0	21522	20090	160048	26819	1058394	46392	107901	0	0	8247	539664	0	0
2024-10-20 21:15:47			0	38650	0	0	0	21516	20080	160048	26960	1058439	46402	107899	0	0	8247	539888	0	0
2024-10-20 21:16:47			0	38660	0	0	0	21514	20090	160216	27197	1058404	46403	107898	0	0	8248	539469	0	0
2024-10-20 21:17:47			0	38640	0	0	0	21522	20090	160096	27422	1058404	46403	107901	0	0	8246	540248	0	0
2024-10-20 21:18:47			0	38643	0	0	0	21522	20080	160104	27370	1058403	46414	107901	0	0	8246	540161	0	0
2024-10-20 21:19:47			0	38623	0	0	0	21519	20080	160164	27319	1058385	46414	107900	0	0	8245	540940	0	0
2024-10-20 21:20:47			0	38635	0	0	0	21519	20090	160172	27112	1058448	46403	107900	0	0	8246	540442	0	0
2024-10-20 21:21:47			0	38624	0	0	0	21522	20080	160200	27071	1058412	46414	107901	0	0	8245	540901	0	0
2024-10-20 21:22:47			0	38613	0	0	0	21524	20090	160228	27007	1058394	46415	107902	0	0	8245	541299	0	0
2024-10-20 21:23:47			0	38628	0	0	0	21506	20080	160312	27431	1058412	46402	107895	0	0	8246	540745	0	0
2024-10-20 21:24:47			0	38619	0	0	0	21506	20080	160284	27358	1058323	46414	107895	0	0	8245	541095	0	0
2024-10-20 21:25:47			0	38609	0	0	0	21511	20080	160300	27479	1058403	46391	107897	0	0	8245	541485	0	0
2024-10-20 21:26:47			0	38601	0	0	0	21516	20080	160280	27298	1058323	46414	107899	0	0	8244	541797	0	0
2024-10-20 21:27:47			0	38611	0	0	0	21503	20070	160208	26724	1058288	46390	107894	0	0	8245	541437	0	0
2024-10-20 21:28:47			0	38590	0	0	0	21506	20080	160384	26963	1058412	46402	107895	0	0	8244	542226	0	0
2024-10-20 21:29:47			0	38606	0	0	0	21498	20070	160376	27249	1058314	46401	107892	0	0	8245	541632	0	0
2024-10-20 21:30:47			0	38582	0	0	0	21501	20070	160440	27041	1058368	46401	107893	0	0	8243	542568	0	0
2024-10-20 21:31:47			0	38595	0	0	0	21509	20070	160448	27130	1058368	46401	107896	0	0	8244	542061	0	0
2024-10-20 21:32:47			0	38575	0	0	0	21509	20070	160468	27371	1058314	46390	107896	0	0	8243	542842	0	0
2024-10-20 21:33:47			0	38582	0	0	0	21509	20080	160416	27353	1058323	46414	107896	0	0	8243	542539	0	0
2024-10-20 21:34:47			0	38574	0	0	0	21514	20070	160396	27095	1058261	46413	107898	0	0	8243	542881	0	0
2024-10-20 21:35:47			0	38576	0	0	0	21522	20070	160412	27334	1058288	46401	107901	0	0	8243	542803	0	0
2024-10-20 21:36:47			0	38560	0	0	0	21509	20070	160580	26949	1058359	46390	107896	0	0	8242	543428	0	0
2024-10-20 21:37:47			0	38564	0	0	0	21524	20080	160596	26915	1058403	46414	107902	0	0	8242	543241	0	0
2024-10-20 21:38:47			0	38543	0	0	0	21527	20070	160588	27154	1058421	46401	107903	0	0	8241	544092	0	0
2024-10-20 21:39:47			0	38528	0	0	0	21532	20080	160632	27072	1058377	46380	107905	0	0	8240	544649	0	0
2024-10-20 21:40:47			0	38514	0	0	0	21548	20080	160636	27097	1058403	46414	107911	0	0	8239	545197	0	0
2024-10-20 21:41:47			0	38510	0	0	0	21537	20080	160708	27296	1058403	46435	107907	0	0	8238	545353	0	0
2024-10-20 21:42:47			0	38513	0	0	0	21532	20080	160736	27587	1058465	46402	107905	0	0	8239	545236	0	0
2024-10-20 21:43:47			0	38491	0	0	0	21535	20080	160816	27590	1058439	46414	107906	0	0	8237	546098	0	0
2024-10-20 21:44:47			0	38480	0	0	0	21535	20070	160796	27156	1058368	46423	107906	0	0	8237	546559	0	0
2024-10-20 21:45:47			0	38476	0	0	0	21522	20080	160844	26755	1058403	46402	107901	0	0	8237	546686	0	0
2024-10-20 21:46:47			0	38476	0	0	0	21509	20090	160736	27180	1058421	46415	107896	0	0	8237	546655	0	0
2024-10-20 21:47:47			0	38495	0	0	0	21503	20080	160772	27274	1058430	46402	107894	0	0	8238	545941	0	0
2024-10-20 21:48:47			0	38497	0	0	0	21503	20080	160784	27376	1058377	46414	107894	0	0	8238	545862	0	0
2024-10-20 21:49:47			0	38497	0	0	0	21496	20080	160732	27582	1058323	46391	107891	0	0	8238	545862	0	0
2024-10-20 21:50:47			0	38509	0	0	0	21496	20080	160684	27313	1058270	46402	107891	0	0	8239	545393	0	0
2024-10-20 21:51:47			0	38511	0	0	0	21493	20080	160688	27164	1058377	46414	107890	0	0	8239	545314	0	0
2024-10-20 21:52:47			0	38531	0	0	0	21498	20080	160688	27071	1058297	46402	107892	0	0	8240	544532	0	0
2024-10-20 21:53:47			0	38525	0	0	0	21506	20080	160592	27118	1058323	46402	107895	0	0	8240	544766	0	0
2024-10-20 21:54:47			0	38516	0	0	0	21511	20080	160620	27293	1058306	46402	107897	0	0	8239	545118	0	0
2024-10-20 21:55:47			0	38527	0	0	0	21514	20070	160592	27289	1058314	46413	107898	0	0	8240	544718	0	0
2024-10-20 21:56:47			0	38534	0	0	0	21516	20070	160608	27185	1058314	46401	107899	0	0	8240	544444	0	0
2024-10-20 21:57:47			0	38527	0	0	0	21511	20070	160616	27258	1058368	46413	107897	0	0	8240	544718	0	0
2024-10-20 21:58:47			0	38559	0	0	0	21511	20070	160648	27557	1058314	46413	107897	0	0	8242	543467	0	0
2024-10-20 21:59:47			0	38529	0	0	0	21503	20070	160652	27367	1058314	46423	107894	0	0	8240	544640	0	0
2024-10-20 22:00:47			0	38517	0	0	0	21509	20070	160660	27369	1058279	46413	107896	0	0	8239	545109	0	0
2024-10-20 22:01:47			0	38525	0	0	0	21506	20070	160736	27502	1058208	46413	107895	0	0	8240	544796	0	0
2024-10-20 22:02:47			0	38518	0	0	0	21506	20070	160748	27284	1058288	46390	107895	0	0	8239	545070	0	0
2024-10-20 22:03:47			0	38487	0	0	0	21506	20060	160700	27701	1058270	46400	107895	0	0	8238	546315	0	0
2024-10-20 22:04:47			0	38508	0	0	0	21506	20070	160676	27027	1058332	46423	107895	0	0	8239	545462	0	0
2024-10-20 22:05:47			0	38476	0	0	0	21509	20070	160788	27398	1058288	46401	107896	0	0	8237	546716	0	0
2024-10-20 22:06:47			0	38489	0	0	0	21506	20060	160776	27322	1058350	46412	107895	0	0	8238	546236	0	0
2024-10-20 22:07:47			0	38479	0	0	0	21511	20070	160876	27088	1058261	46413	107897	0	0	8237	546598	0	0
2024-10-20 22:08:47			0	38465	0	0	0	21503	20070	160848	27020	1058279	46390	107894	0	0	8236	547147	0	0
2024-10-20 22:09:47			0	38471	0	0	0	21496	20070	160884	27407	1058252	46390	107891	0	0	8237	546912	0	0
2024-10-20 22:10:47			0	38479	0	0	0	21501	20070	160972	27064	1058359	46401	107893	0	0	8237	546598	0	0
2024-10-20 22:11:47			0	38465	0	0	0	21501	20060	160980	27460	1058350	46412	107893	0	0	8236	547178	0	0
2024-10-20 22:12:47			0	38468	0	0	0	21519	20070	160920	27374	1058252	46401	107900	0	0	8236	547030	0	0
2024-10-20 22:13:47			0	38475	0	0	0	21532	20070	160952	27059	1058279	46390	107905	0	0	8236	546755	0	0
2024-10-20 22:14:47			0	38450	0	0	0	21529	20070	160972	27535	1058359	46401	107904	0	0	8235	547736	0	0
2024-10-20 22:15:47			0	38470	0	0	0	21524	20070	161012	27305	1058385	46413	107902	0	0	8236	546951	0	0
2024-10-20 22:16:47			0	38464	0	0	0	21519	20080	161020	27102	1058430	46414	107900	0	0	8236	547156	0	0
2024-10-20 22:17:47			0	38452	0	0	0	21514	20080	160956	27072	1058403	46414	107898	0	0	8235	547627	0	0
2024-10-20 22:18:47			0	38459	0	0	0	21509	20080	160932	27479	1058377	46402	107896	0	0	8236	547353	0	0
2024-10-20 22:19:47			0	38483	0	0	0	21516	20070	160904	27258	1058368	46413	107899	0	0	8237	546441	0	0
2024-10-20 22:20:47			0	38472	0	0	0	21509	20080	160936	27576	1058297	46402	107896	0	0	8237	546842	0	0
2024-10-20 22:21:47			0	38468	0	0	0	21501	20080	161052	27488	1058297	46391	107893	0	0	8237	546999	0	0
2024-10-20 22:22:47			0	38448	0	0	0	21498	20080	161016	27365	1058297	46414	107892	0	0	8235	547784	0	0
2024-10-20 22:23:47			0	38453	0	0	0	21516	20070	161024	27563	1058314	46413	107899	0	0	8235	547618	0	0
2024-10-20 22:24:47			0	38446	0	0	0	21493	20070	161052	27653	1058368	46401	107890	0	0	8235	547893	0	0
2024-10-20 22:25:47			0	38450	0	0	0	21501	20070	160968	27319	1058359	46401	107893	0	0	8236	547736	0	0
2024-10-20 22:26:47			0	38436	0	0	0	21511	20070	161100	27576	1058314	46390	107897	0	0	8235	548286	0	0
2024-10-20 22:27:47			0	38444	0	0	0	21519	20070	161128	27336	1058314	46413	107900	0	0	8235	547972	0	0
2024-10-20 22:28:47			0	38435	0	0	0	21496	20080	161044	27327	1058323	46391	107891	0	0	8235	548295	0	0
2024-10-20 22:29:47			0	38425	0	0	0	21496	20070	161116	27469	1058385	46401	107891	0	0	8234	548718	0	0
2024-10-20 22:30:47			0	38434	0	0	0	21503	20070	161072	27324	1058314	46401	107894	0	0	8235	548364	0	0
2024-10-20 22:31:47			0	38410	0	0	0	21506	20060	161112	27187	1058270	46412	107895	0	0	8233	549338	0	0
2024-10-20 22:32:47			0	38430	0	0	0	21503	20070	161128	27396	1058279	46413	107894	0	0	8234	548522	0	0
2024-10-20 22:33:47			0	38419	0	0	0	21511	20070	161060	27415	1058305	46401	107897	0	0	8234	548954	0	0
2024-10-20 22:34:47			0	38414	0	0	0	21501	20070	161124	27071	1058314	46413	107893	0	0	8233	549151	0	0
2024-10-20 22:35:47			0	38422	0	0	0	21493	20070	161112	27479	1058226	46390	107890	0	0	8234	548836	0	0
2024-10-20 22:36:47			0	38420	0	0	0	21498	20070	161068	27364	1058305	46390	107892	0	0	8234	548915	0	0
2024-10-20 22:37:47			0	38411	0	0	0	21496	20060	161056	27187	1058217	46400	107891	0	0	8233	549299	0	0
2024-10-20 22:38:47			0	38408	0	0	0	21490	20070	161144	27253	1058252	46401	107889	0	0	8233	549387	0	0
2024-10-20 22:39:47			0	38425	0	0	0	21496	20060	161112	27206	1058270	46378	107891	0	0	8234	548748	0	0
2024-10-20 22:40:47			0	38399	0	0	0	21503	20060	161224	27402	1058288	46388	107894	0	0	8232	549771	0	0
2024-10-20 22:41:47			0	38413	0	0	0	21496	20070	161184	27222	1058252	46423	107891	0	0	8233	549190	0	0
2024-10-20 22:42:47			0	38401	0	0	0	21506	20060	161140	26883	1058243	46422	107895	0	0	8233	549692	0	0
2024-10-20 22:43:47			0	38399	0	0	0	21503	20060	161088	27223	1058261	46388	107894	0	0	8232	549771	0	0
2024-10-20 22:44:47			0	38376	0	0	0	21498	20060	161148	27137	1058270	46412	107892	0	0	8231	550677	0	0
2024-10-20 22:45:47			0	38398	0	0	0	21496	20050	161144	26797	1058252	46388	107891	0	0	8232	549841	0	0
2024-10-20 22:46:47			0	38390	0	0	0	21496	20060	161264	26861	1058261	46399	107891	0	0	8232	550125	0	0
2024-10-20 22:47:47			0	38383	0	0	0	21514	20070	161240	27445	1058359	46413	107898	0	0	8231	550370	0	0
2024-10-20 22:48:47			0	38384	0	0	0	21506	20060	161172	27384	1058341	46399	107895	0	0	8232	550362	0	0
2024-10-20 22:49:47			0	38385	0	0	0	21506	20070	161352	27225	1058385	46423	107895	0	0	8232	550292	0	0
2024-10-20 22:50:47			0	38389	0	0	0	21503	20070	161344	27317	1058288	46413	107894	0	0	8232	550134	0	0
2024-10-20 22:51:47			0	38377	0	0	0	21514	20070	161260	26778	1058288	46423	107898	0	0	8231	550607	0	0
2024-10-20 22:52:47			0	38368	0	0	0	21511	20060	161260	27010	1058288	46411	107897	0	0	8231	550992	0	0
2024-10-20 22:53:47			0	38396	0	0	0	21532	20070	161248	27008	1058359	46413	107905	0	0	8232	549859	0	0
2024-10-20 22:54:47			0	38377	0	0	0	21524	20070	161296	27202	1058359	46423	107902	0	0	8231	550607	0	0
2024-10-20 22:55:47			0	38374	0	0	0	21522	20070	161272	27326	1058314	46413	107901	0	0	8231	550725	0	0
2024-10-20 22:56:47			0	38359	0	0	0	21527	20070	161340	26967	1058385	46401	107903	0	0	8230	551316	0	0
2024-10-20 22:57:47			0	38364	0	0	0	21516	20080	161304	27251	1058412	46391	107899	0	0	8230	551089	0	0
2024-10-20 22:58:47			0	38336	0	0	0	21519	20080	161492	27175	1058403	46414	107900	0	0	8229	552193	0	0
2024-10-20 22:59:47			0	38341	0	0	0	21511	20080	161432	27175	1058323	46414	107897	0	0	8229	551995	0	0
2024-10-20 23:00:47			0	38333	0	0	0	21509	20070	161484	27220	1058314	46401	107896	0	0	8229	552342	0	0
2024-10-20 23:01:47			0	38306	0	0	0	21509	20080	161424	26949	1058377	46391	107896	0	0	8227	553377	0	0
2024-10-20 23:02:47			0	38320	0	0	0	21527	20090	161500	27339	1058368	46403	107903	0	0	8228	552794	0	0
2024-10-20 23:03:47			0	38322	0	0	0	21524	20090	161436	26986	1058315	46403	107902	0	0	8228	552715	0	0
2024-10-20 23:04:47			0	38322	0	0	0	21540	20080	161432	27057	1058412	46414	107908	0	0	8227	552745	0	0
2024-10-20 23:05:47			0	38328	0	0	0	21522	20080	161532	26752	1058412	46414	107901	0	0	8228	552508	0	0
2024-10-20 23:06:47			0	38341	0	0	0	21524	20080	161548	27197	1058465	46414	107902	0	0	8229	551995	0	0
2024-10-20 23:07:47			0	38298	0	0	0	21519	20080	161448	27183	1058412	46414	107900	0	0	8226	553693	0	0
2024-10-20 23:08:47			0	38314	0	0	0	21511	20080	161572	27270	1058403	46402	107897	0	0	8227	553061	0	0
2024-10-20 23:09:47			0	38303	0	0	0	21519	20080	161616	27163	1058412	46391	107900	0	0	8227	553496	0	0
2024-10-20 23:10:47			0	38276	0	0	0	21509	20080	161612	27294	1058377	46402	107896	0	0	8225	554563	0	0
2024-10-20 23:11:47			0	38278	0	0	0	21509	20080	161688	27046	1058377	46402	107896	0	0	8225	554484	0	0
2024-10-20 23:12:47			0	38266	0	0	0	21506	20080	161740	27010	1058377	46402	107895	0	0	8225	554959	0	0
2024-10-20 23:13:47			0	38263	0	0	0	21496	20080	161812	27272	1058323	46402	107891	0	0	8225	555078	0	0
2024-10-20 23:14:47			0	38251	0	0	0	21498	20090	161824	27039	1058341	46403	107892	0	0	8224	555522	0	0
2024-10-20 23:15:47			0	38211	0	0	0	21488	20090	161792	27351	1058341	46392	107888	0	0	8222	557108	0	0
2024-10-20 23:16:47			0	38210	0	0	0	21490	20080	161888	27124	1058323	46391	107889	0	0	8222	557178	0	0
2024-10-20 23:17:47			0	38200	0	0	0	21493	20070	161936	27017	1058314	46413	107890	0	0	8221	557606	0	0
2024-10-20 23:18:47			0	38217	0	0	0	21485	20070	161992	27358	1058368	46390	107887	0	0	8222	556931	0	0
2024-10-20 23:19:47			0	38184	0	0	0	21490	20070	162028	27422	1058226	46390	107889	0	0	8220	558241	0	0
2024-10-20 23:20:47			0	38180	0	0	0	21475	20060	162012	27062	1058217	46389	107883	0	0	8220	558431	0	0
2024-10-20 23:21:47			0	38161	0	0	0	21480	20070	162144	27171	1058279	46401	107885	0	0	8219	559155	0	0
2024-10-20 23:22:47			0	38159	0	0	0	21472	20060	162156	27209	1058243	46389	107882	0	0	8219	559266	0	0
2024-10-20 23:23:47			0	38159	0	0	0	21477	20060	162252	27185	1058234	46388	107884	0	0	8219	559266	0	0
2024-10-20 23:24:47			0	38168	0	0	0	21490	20050	162264	27270	1058199	46388	107889	0	0	8219	558939	0	0
2024-10-20 23:25:47			0	38171	0	0	0	21493	20050	162096	27414	1058190	46398	107890	0	0	8219	558820	0	0
2024-10-20 23:26:47			0	38157	0	0	0	21488	20060	162212	27024	1058208	46399	107888	0	0	8219	559345	0	0
2024-10-20 23:27:47			0	38178	0	0	0	21472	20060	162112	27156	1058190	46378	107882	0	0	8220	558510	0	0
2024-10-20 23:28:47			0	38173	0	0	0	21472	20050	162196	27543	1058243	46398	107882	0	0	8220	558740	0	0
2024-10-20 23:29:47			0	38165	0	0	0	21483	20050	162128	27303	1058199	46388	107886	0	0	8219	559058	0	0
2024-10-20 23:30:47			0	38173	0	0	0	21485	20060	162140	27241	1058190	46400	107887	0	0	8220	558709	0	0
2024-10-20 23:31:47			0	38170	0	0	0	21472	20040	162100	27698	1058261	46398	107882	0	0	8219	558890	0	0
2024-10-20 23:32:47			0	38163	0	0	0	21480	20050	162128	27320	1058190	46398	107885	0	0	8219	559138	0	0
2024-10-20 23:33:47			0	38156	0	0	0	21472	20040	162192	27138	1058181	46387	107882	0	0	8219	559447	0	0
2024-10-20 23:34:47			0	38141	0	0	0	21462	20050	162200	27140	1058216	46398	107878	0	0	8218	560013	0	0
2024-10-20 23:35:47			0	38130	0	0	0	21467	20050	162304	27138	1058216	46410	107880	0	0	8217	560451	0	0
2024-10-20 23:36:47			0	38140	0	0	0	21472	20050	162260	27137	1058163	46398	107882	0	0	8218	560053	0	0
2024-10-20 23:37:47			0	38139	0	0	0	21472	20040	162208	26920	1058154	46398	107882	0	0	8218	560123	0	0
2024-10-20 23:38:47			0	38133	0	0	0	21472	20050	162192	27062	1058199	46411	107882	0	0	8217	560331	0	0
2024-10-20 23:39:47			0	38155	0	0	0	21470	20050	162168	27147	1058225	46388	107881	0	0	8219	559456	0	0
2024-10-20 23:40:47			0	38168	0	0	0	21457	20050	162184	27131	1058190	46398	107876	0	0	8220	558939	0	0
2024-10-20 23:41:47			0	38154	0	0	0	21470	20050	162156	27364	1058190	46398	107881	0	0	8219	559496	0	0
2024-10-20 23:42:47			0	38143	0	0	0	21467	20040	162172	27274	1058181	46398	107880	0	0	8218	559964	0	0
2024-10-20 23:43:47			0	38162	0	0	0	21483	20040	162216	27109	1058154	46410	107886	0	0	8219	559208	0	0
2024-10-20 23:44:47			0	38157	0	0	0	21483	20050	162248	27152	1058172	46399	107886	0	0	8219	559376	0	0
2024-10-20 23:45:47			0	38153	0	0	0	21488	20050	162080	27248	1058199	46399	107888	0	0	8218	559535	0	0
2024-10-20 23:46:47			0	38187	0	0	0	21483	20040	162064	27078	1058261	46398	107886	0	0	8220	558214	0	0
2024-10-20 23:47:47			0	38178	0	0	0	21490	20050	162048	27133	1058252	46399	107889	0	0	8220	558541	0	0
2024-10-20 23:48:47			0	38204	0	0	0	21501	20050	162048	27140	1058252	46411	107893	0	0	8221	557509	0	0
2024-10-20 23:49:47			0	38202	0	0	0	21509	20060	162016	27225	1058261	46411	107896	0	0	8221	557557	0	0
2024-10-20 23:50:47			0	38226	0	0	0	21509	20060	161988	26979	1058367	46399	107896	0	0	8222	556605	0	0
2024-10-20 23:51:47			0	38228	0	0	0	21514	20060	161984	27350	1058367	46411	107898	0	0	8222	556526	0	0
2024-10-20 23:52:47			0	38235	0	0	0	21501	20060	161808	27114	1058367	46399	107893	0	0	8223	556248	0	0
2024-10-20 23:53:47			0	38239	0	0	0	21514	20050	161812	27388	1058279	46388	107898	0	0	8223	556120	0	0
2024-10-20 23:54:47			0	38239	0	0	0	21501	20060	161876	27422	1058376	46422	107893	0	0	8223	556090	0	0
2024-10-20 23:55:47			0	38230	0	0	0	21501	20060	161952	27324	1058270	46400	107893	0	0	8223	556446	0	0
2024-10-20 23:56:47			0	38230	0	0	0	21506	20060	161928	27320	1058288	46411	107895	0	0	8223	556446	0	0
2024-10-20 23:57:47			0	38223	0	0	0	21514	20070	161884	27050	1058252	46413	107898	0	0	8222	556693	0	0
2024-10-20 23:58:47			0	38246	0	0	0	21509	20070	161856	26981	1058305	46401	107896	0	0	8223	555782	0	0
2024-10-20 23:59:47			0	38242	0	0	0	21490	20070	161720	27402	1058368	46401	107889	0	0	8224	555940	0	0
2024-10-21 00:00:47			0	38232	0	0	0	21514	20070	161832	27421	1058305	46401	107898	0	0	8223	556337	0	0
2024-10-21 00:01:47			0	38233	0	0	0	21516	20070	161844	27447	1058385	46413	107899	0	0	8223	556297	0	0
2024-10-21 00:02:47			0	38235	0	0	0	21511	20070	161812	27317	1058385	46401	107897	0	0	8223	556218	0	0
2024-10-21 00:03:47			0	38251	0	0	0	21511	20060	161800	27118	1058376	46412	107897	0	0	8224	555614	0	0
2024-10-21 00:04:47			0	38246	0	0	0	21514	20070	161892	27211	1058385	46390	107898	0	0	8223	555782	0	0
2024-10-21 00:05:47			0	38236	0	0	0	21509	20070	161804	27396	1058385	46401	107896	0	0	8223	556178	0	0
2024-10-21 00:06:47			0	38230	0	0	0	21503	20060	161876	27390	1058367	46388	107894	0	0	8223	556446	0	0
2024-10-21 00:07:47			0	38238	0	0	0	21503	20060	161836	27545	1058376	46389	107894	0	0	8223	556129	0	0
2024-10-21 00:08:47			0	38244	0	0	0	21503	20070	161796	27128	1058305	46413	107894	0	0	8223	555861	0	0
2024-10-21 00:09:47			0	38241	0	0	0	21509	20070	161756	27274	1058412	46401	107896	0	0	8223	555980	0	0
2024-10-21 00:10:47			0	38231	0	0	0	21511	20060	161812	27107	1058350	46400	107897	0	0	8222	556407	0	0
2024-10-21 00:11:47			0	38245	0	0	0	21509	20070	161792	27081	1058385	46413	107896	0	0	8223	555821	0	0
2024-10-21 00:12:47			0	38257	0	0	0	21496	20060	161832	27156	1058350	46422	107891	0	0	8224	555377	0	0
2024-10-21 00:13:47			0	38244	0	0	0	21496	20070	161792	27473	1058385	46413	107891	0	0	8224	555861	0	0
2024-10-21 00:14:47			0	38242	0	0	0	21496	20070	161748	27272	1058305	46401	107891	0	0	8223	555940	0	0
2024-10-21 00:15:47			0	38257	0	0	0	21493	20060	161748	27225	1058429	46400	107890	0	0	8224	555377	0	0
2024-10-21 00:16:47			0	38240	0	0	0	21498	20070	161796	27417	1058368	46401	107892	0	0	8223	556019	0	0
2024-10-21 00:17:47			0	38235	0	0	0	21493	20070	161704	27296	1058305	46401	107890	0	0	8223	556218	0	0
2024-10-21 00:18:47			0	38238	0	0	0	21496	20070	161716	27352	1058279	46413	107891	0	0	8223	556099	0	0
2024-10-21 00:19:47			0	38238	0	0	0	21493	20060	161840	27130	1058350	46400	107890	0	0	8223	556129	0	0
2024-10-21 00:20:47			0	38224	0	0	0	21488	20060	161860	27159	1058341	46388	107888	0	0	8222	556684	0	0
2024-10-21 00:21:47			0	38245	0	0	0	21493	20070	161792	27209	1058305	46413	107890	0	0	8224	555821	0	0
2024-10-21 00:22:47			0	38230	0	0	0	21498	20070	161924	27303	1058305	46401	107892	0	0	8223	556416	0	0
2024-10-21 00:23:47			0	38230	0	0	0	21483	20070	161828	27248	1058305	46401	107886	0	0	8223	556416	0	0
2024-10-21 00:24:47			0	38210	0	0	0	21488	20060	161856	27320	1058341	46388	107888	0	0	8222	557240	0	0
2024-10-21 00:25:47			0	38236	0	0	0	21490	20060	161828	26897	1058323	46400	107889	0	0	8223	556209	0	0
2024-10-21 00:26:47			0	38224	0	0	0	21485	20060	161892	27171	1058270	46400	107887	0	0	8223	556684	0	0
2024-10-21 00:27:47			0	38223	0	0	0	21488	20050	161904	27199	1058252	46388	107888	0	0	8222	556755	0	0
2024-10-21 00:28:47			0	38206	0	0	0	21480	20060	161932	26949	1058261	46388	107885	0	0	8222	557398	0	0
2024-10-21 00:29:47			0	38205	0	0	0	21480	20060	161880	27022	1058234	46388	107885	0	0	8221	557438	0	0
2024-10-21 00:30:47			0	38212	0	0	0	21480	20060	161992	27145	1058261	46411	107885	0	0	8222	557160	0	0
2024-10-21 00:31:47			0	38194	0	0	0	21472	20050	162024	27377	1058279	46388	107882	0	0	8221	557906	0	0
2024-10-21 00:32:47			0	38204	0	0	0	21475	20050	162004	27213	1058225	46411	107883	0	0	8221	557509	0	0
2024-10-21 00:33:47			0	38213	0	0	0	21475	20050	161984	27177	1058270	46398	107883	0	0	8222	557151	0	0
2024-10-21 00:34:47			0	38201	0	0	0	21477	20050	162048	27112	1058243	46387	107884	0	0	8221	557628	0	0
2024-10-21 00:35:47			0	38180	0	0	0	21475	20040	161992	27081	1058234	46398	107883	0	0	8220	558493	0	0
2024-10-21 00:36:47			0	38195	0	0	0	21470	20040	162096	27320	1058207	46387	107881	0	0	8221	557897	0	0
2024-10-21 00:37:47			0	38173	0	0	0	21464	20040	162044	27150	1058207	46398	107879	0	0	8220	558771	0	0
2024-10-21 00:38:47			0	38175	0	0	0	21472	20040	162116	27490	1058128	46398	107882	0	0	8220	558691	0	0
2024-10-21 00:39:47			0	38179	0	0	0	21467	20050	162136	27320	1058163	46387	107880	0	0	8220	558502	0	0
2024-10-21 00:40:47			0	38179	0	0	0	21480	20040	162184	27274	1058172	46386	107885	0	0	8220	558532	0	0
2024-10-21 00:41:47			0	38156	0	0	0	21472	20040	162244	27568	1058181	46410	107882	0	0	8219	559447	0	0
2024-10-21 00:42:47			0	38159	0	0	0	21475	20040	162148	27339	1058225	46386	107883	0	0	8219	559328	0	0
2024-10-21 00:43:47			0	38154	0	0	0	21477	20040	162200	27105	1058234	46398	107884	0	0	8218	559526	0	0
2024-10-21 00:44:47			0	38152	0	0	0	21477	20040	162188	27393	1058181	46387	107884	0	0	8218	559606	0	0
2024-10-21 00:45:47			0	38145	0	0	0	21472	20040	162208	27083	1058234	46387	107882	0	0	8218	559885	0	0
2024-10-21 00:46:47			0	38158	0	0	0	21462	20030	162332	27260	1058163	46409	107878	0	0	8219	559398	0	0
2024-10-21 00:47:47			0	38137	0	0	0	21457	20050	162292	27225	1058163	46387	107876	0	0	8218	560172	0	0
2024-10-21 00:48:47			0	38147	0	0	0	21457	20030	162284	27428	1058163	46397	107876	0	0	8218	559836	0	0
2024-10-21 00:49:47			0	38123	0	0	0	21464	20030	162404	27358	1058136	46397	107879	0	0	8217	560792	0	0
2024-10-21 00:50:47			0	38125	0	0	0	21451	20040	162284	27301	1058092	46409	107874	0	0	8217	560681	0	0
2024-10-21 00:51:47			0	38129	0	0	0	21459	20030	162272	27353	1058101	46407	107877	0	0	8217	560552	0	0
2024-10-21 00:52:47			0	38123	0	0	0	21454	20030	162268	27267	1058216	46386	107875	0	0	8217	560792	0	0
2024-10-21 00:53:47			0	38122	0	0	0	21459	20030	162164	27300	1058163	46397	107877	0	0	8217	560831	0	0
2024-10-21 00:54:47			0	38137	0	0	0	21457	20020	162172	27237	1058172	46407	107876	0	0	8218	560265	0	0
2024-10-21 00:55:47			0	38132	0	0	0	21467	20040	162232	27419	1058092	46397	107880	0	0	8217	560402	0	0
2024-10-21 00:56:47			0	38147	0	0	0	21467	20020	162236	27275	1058189	46395	107880	0	0	8218	559867	0	0
2024-10-21 00:57:47			0	38119	0	0	0	21464	20030	162288	27114	1058154	46407	107879	0	0	8217	560951	0	0
2024-10-21 00:58:47			0	38133	0	0	0	21462	20030	162276	27319	1058163	46397	107878	0	0	8217	560393	0	0
2024-10-21 00:59:47			0	38146	0	0	0	21462	20030	162176	27357	1058154	46407	107878	0	0	8218	559876	0	0
2024-10-21 01:00:47			0	38125	0	0	0	21459	20020	162276	27386	1058145	46396	107877	0	0	8217	560743	0	0
2024-10-21 01:01:47			0	38122	0	0	0	21464	20040	162284	27171	1058119	46397	107879	0	0	8217	560800	0	0
2024-10-21 01:02:47			0	38143	0	0	0	21464	20030	162268	27400	1058127	46385	107879	0	0	8218	559995	0	0
2024-10-21 01:03:47			0	38122	0	0	0	21457	20040	162332	27147	1058119	46397	107876	0	0	8217	560800	0	0
2024-10-21 01:04:47			0	38122	0	0	0	21457	20030	162272	27045	1058110	46397	107876	0	0	8217	560831	0	0
2024-10-21 01:05:47			0	38119	0	0	0	21459	20030	162204	27048	1058154	46396	107877	0	0	8217	560951	0	0
2024-10-21 01:06:47			0	38108	0	0	0	21459	20030	162212	27072	1058163	46386	107877	0	0	8216	561389	0	0
2024-10-21 01:07:47			0	38122	0	0	0	21467	20030	162260	27081	1058101	46407	107880	0	0	8217	560831	0	0
2024-10-21 01:08:47			0	38130	0	0	0	21462	20030	162292	27417	1058154	46407	107878	0	0	8217	560513	0	0
2024-10-21 01:09:47			0	38110	0	0	0	21454	20030	162444	27189	1058163	46397	107875	0	0	8216	561310	0	0
2024-10-21 01:10:47			0	38110	0	0	0	21459	20020	162392	27095	1058065	46396	107877	0	0	8216	561341	0	0
2024-10-21 01:11:47			0	38119	0	0	0	21470	20020	162244	27251	1058118	46385	107881	0	0	8216	560982	0	0
2024-10-21 01:12:47			0	38128	0	0	0	21459	20030	162300	27095	1058101	46407	107877	0	0	8217	560592	0	0
2024-10-21 01:13:47			0	38106	0	0	0	21467	20030	162224	27102	1058110	46397	107880	0	0	8216	561469	0	0
2024-10-21 01:14:47			0	38107	0	0	0	21462	20030	162296	27199	1058136	46397	107878	0	0	8216	561429	0	0
2024-10-21 01:15:47			0	38084	0	0	0	21449	20030	162380	27308	1058127	46396	107873	0	0	8215	562347	0	0
2024-10-21 01:16:47			0	38108	0	0	0	21449	20030	162360	27310	1058136	46409	107873	0	0	8216	561389	0	0
2024-10-21 01:17:47			0	38083	0	0	0	21457	20020	162484	27280	1058092	46407	107876	0	0	8215	562418	0	0
2024-10-21 01:18:47			0	38069	0	0	0	21467	20030	162420	27365	1058074	46375	107880	0	0	8214	562946	0	0
2024-10-21 01:19:47			0	38070	0	0	0	21457	20030	162592	27140	1058136	46409	107876	0	0	8214	562906	0	0
2024-10-21 01:20:47			0	38056	0	0	0	21462	20020	162568	27415	1058118	46407	107878	0	0	8213	563496	0	0
2024-10-21 01:21:47			0	38073	0	0	0	21457	20030	162436	27185	1058074	46396	107876	0	0	8214	562786	0	0
2024-10-21 01:22:47			0	38087	0	0	0	21454	20020	162512	27090	1058136	46395	107875	0	0	8215	562258	0	0
2024-10-21 01:23:47			0	38087	0	0	0	21457	20020	162400	27154	1058109	46395	107876	0	0	8215	562258	0	0
2024-10-21 01:24:47			0	38068	0	0	0	21459	20020	162444	27362	1058092	46396	107877	0	0	8214	563017	0	0
2024-10-21 01:25:47			0	38079	0	0	0	21457	20030	162444	27135	1058101	46407	107876	0	0	8214	562546	0	0
2024-10-21 01:26:47			0	38076	0	0	0	21457	20020	162476	27324	1058163	46384	107876	0	0	8214	562697	0	0
2024-10-21 01:27:47			0	38069	0	0	0	21451	20030	162512	27220	1058101	46418	107874	0	0	8214	562946	0	0
2024-10-21 01:28:47			0	38077	0	0	0	21457	20030	162412	27244	1058163	46409	107876	0	0	8214	562626	0	0
2024-10-21 01:29:47			0	38054	0	0	0	21451	20020	162472	27178	1058145	46407	107874	0	0	8213	563576	0	0
2024-10-21 01:30:47			0	38087	0	0	0	21451	20020	162468	27369	1058109	46384	107874	0	0	8215	562258	0	0
2024-10-21 01:31:47			0	38058	0	0	0	21457	20020	162448	26902	1058092	46396	107876	0	0	8213	563416	0	0
2024-10-21 01:32:47			0	38058	0	0	0	21451	20010	162544	27268	1058074	46395	107874	0	0	8213	563447	0	0
2024-10-21 01:33:47			0	38063	0	0	0	21444	20020	162456	27268	1058145	46396	107871	0	0	8214	563216	0	0
2024-10-21 01:34:47			0	38053	0	0	0	21454	20020	162440	27027	1058056	46395	107875	0	0	8213	563616	0	0
2024-10-21 01:35:47			0	38045	0	0	0	21444	20020	162600	27220	1058145	46396	107871	0	0	8212	563936	0	0
2024-10-21 01:36:47			0	38062	0	0	0	21451	20010	162616	26911	1057985	46394	107874	0	0	8213	563287	0	0
2024-10-21 01:37:47			0	38037	0	0	0	21444	20020	162532	26906	1058030	46395	107871	0	0	8212	564256	0	0
2024-10-21 01:38:47			0	38039	0	0	0	21436	20010	162584	27189	1057994	46384	107868	0	0	8212	564207	0	0
2024-10-21 01:39:47			0	38027	0	0	0	21446	20010	162623	27268	1058065	46394	107872	0	0	8211	564687	0	0
2024-10-21 01:40:47			0	38033	0	0	0	21436	20020	162720	26946	1058003	46384	107868	0	0	8212	564416	0	0
2024-10-21 01:41:47			0	38040	0	0	0	21433	20010	162572	26941	1058074	46406	107867	0	0	8212	564167	0	0
2024-10-21 01:42:47			0	38027	0	0	0	21438	20010	162643	26868	1058065	46394	107869	0	0	8211	564687	0	0
2024-10-21 01:43:47			0	38035	0	0	0	21428	20020	162636	26935	1058030	46395	107865	0	0	8212	564336	0	0
2024-10-21 01:44:47			0	38011	0	0	0	21431	20000	162659	27441	1058056	46383	107866	0	0	8211	565359	0	0
2024-10-21 01:45:47			0	38016	0	0	0	21431	20010	162659	27154	1058012	46394	107866	0	0	8211	565127	0	0
2024-10-21 01:46:47			0	38009	0	0	0	21433	20010	162723	26733	1057985	46383	107867	0	0	8211	565408	0	0
2024-10-21 01:47:47			0	38006	0	0	0	21431	20000	162823	27112	1057950	46394	107866	0	0	8210	565559	0	0
2024-10-21 01:48:47			0	37997	0	0	0	21428	20010	162775	26805	1057959	46383	107865	0	0	8210	565888	0	0
2024-10-21 01:49:47			0	38015	0	0	0	21423	20010	162751	27301	1057959	46394	107863	0	0	8211	565167	0	0
2024-10-21 01:50:47			0	38002	0	0	0	21438	20000	162727	27197	1057994	46382	107869	0	0	8210	565719	0	0
2024-10-21 01:51:47			0	38002	0	0	0	21431	20000	162771	27235	1057967	46405	107866	0	0	8210	565719	0	0
2024-10-21 01:52:47			0	38024	0	0	0	21425	20000	162831	27154	1057994	46405	107864	0	0	8211	564838	0	0
2024-10-21 01:53:47			0	38022	0	0	0	21420	20000	162759	27204	1057941	46393	107862	0	0	8211	564918	0	0
2024-10-21 01:54:47			0	38003	0	0	0	21423	20000	162843	26837	1057994	46405	107863	0	0	8210	565679	0	0
2024-10-21 01:55:47			0	38013	0	0	0	21420	20000	162767	27116	1057976	46394	107862	0	0	8211	565279	0	0
2024-10-21 01:56:47			0	37996	0	0	0	21423	19990	162791	27171	1057932	46403	107863	0	0	8210	565991	0	0
2024-10-21 01:57:47			0	38009	0	0	0	21431	20000	162759	27255	1057888	46393	107866	0	0	8211	565439	0	0
2024-10-21 01:58:47			0	38002	0	0	0	21428	20000	162827	27119	1058047	46382	107865	0	0	8210	565719	0	0
2024-10-21 01:59:47			0	37997	0	0	0	21423	20000	162727	27116	1057941	46393	107863	0	0	8210	565919	0	0
2024-10-21 02:00:47			0	38018	0	0	0	21420	20000	162843	26658	1058047	46405	107862	0	0	8211	565078	0	0
2024-10-21 02:01:47			0	38005	0	0	0	21418	19990	162739	27024	1057905	46392	107861	0	0	8210	565630	0	0
2024-10-21 02:02:47			0	37995	0	0	0	21423	20000	162787	26809	1057941	46405	107863	0	0	8210	566000	0	0
2024-10-21 02:03:47			0	37993	0	0	0	21425	19990	162767	26951	1057932	46381	107864	0	0	8210	566111	0	0
2024-10-21 02:04:47			0	37992	0	0	0	21420	19990	162795	27026	1057932	46381	107862	0	0	8210	566151	0	0
2024-10-21 02:05:47			0	38003	0	0	0	21418	20000	162887	27272	1057994	46382	107861	0	0	8210	565679	0	0
2024-10-21 02:06:47			0	38001	0	0	0	21397	19990	162787	27234	1057985	46392	107853	0	0	8211	565790	0	0
2024-10-21 02:07:47			0	38014	0	0	0	21412	19990	162716	27048	1057923	46392	107859	0	0	8211	565270	0	0
2024-10-21 02:08:47			0	37999	0	0	0	21397	19990	162743	27317	1057896	46392	107853	0	0	8210	565871	0	0
2024-10-21 02:09:47			0	38011	0	0	0	21399	19990	162775	26880	1057976	46392	107854	0	0	8211	565390	0	0
2024-10-21 02:10:47			0	37995	0	0	0	21402	19980	162827	27138	1057914	46392	107855	0	0	8210	566062	0	0
2024-10-21 02:11:47			0	37997	0	0	0	21405	19980	162723	27244	1057887	46392	107856	0	0	8210	565982	0	0
2024-10-21 02:12:47			0	38005	0	0	0	21405	19980	162783	27265	1057861	46381	107856	0	0	8211	565661	0	0
2024-10-21 02:13:47			0	38022	0	0	0	21402	19990	162699	27320	1057870	46381	107855	0	0	8212	564949	0	0
2024-10-21 02:14:47			0	38022	0	0	0	21405	19980	162651	27166	1057861	46392	107856	0	0	8212	564981	0	0
2024-10-21 02:15:47			0	38035	0	0	0	21410	19970	162660	27060	1057869	46390	107858	0	0	8212	564491	0	0
2024-10-21 02:16:47			0	38059	0	0	0	21407	19970	162500	27100	1057816	46401	107857	0	0	8214	563532	0	0
2024-10-21 02:17:47			0	38068	0	0	0	21412	19990	162564	27220	1057896	46403	107859	0	0	8214	563110	0	0
2024-10-21 02:18:47			0	38076	0	0	0	21412	19980	162448	27405	1057852	46391	107859	0	0	8215	562821	0	0
2024-10-21 02:19:47			0	38098	0	0	0	21418	19980	162412	27197	1057914	46403	107861	0	0	8216	561943	0	0
2024-10-21 02:20:47			0	38105	0	0	0	21405	19970	162432	26955	1057869	46390	107856	0	0	8216	561695	0	0
2024-10-21 02:21:47			0	38083	0	0	0	21402	19980	162356	27365	1057852	46380	107855	0	0	8215	562542	0	0
2024-10-21 02:22:47			0	38089	0	0	0	21402	19980	162464	27277	1057931	46391	107855	0	0	8216	562302	0	0
2024-10-21 02:23:47			0	38085	0	0	0	21405	19980	162408	27362	1057807	46392	107856	0	0	8215	562462	0	0
2024-10-21 02:24:47			0	38110	0	0	0	21399	19970	162300	27348	1057833	46379	107854	0	0	8217	561495	0	0
2024-10-21 02:25:47			0	38097	0	0	0	21405	19990	162400	27334	1057923	46392	107856	0	0	8216	561952	0	0
2024-10-21 02:26:47			0	38110	0	0	0	21405	19980	162400	27189	1057914	46403	107856	0	0	8217	561464	0	0
2024-10-21 02:27:47			0	38124	0	0	0	21405	19970	162316	27201	1057869	46390	107856	0	0	8218	560937	0	0
2024-10-21 02:28:47			0	38116	0	0	0	21412	19980	162320	26949	1057878	46391	107859	0	0	8217	561225	0	0
2024-10-21 02:29:47			0	38123	0	0	0	21418	19980	162200	27071	1057825	46391	107861	0	0	8217	560946	0	0
2024-10-21 02:30:47			0	38139	0	0	0	21412	19970	162192	27126	1057869	46401	107859	0	0	8218	560340	0	0
2024-10-21 02:31:47			0	38141	0	0	0	21420	19980	162200	27355	1057967	46392	107862	0	0	8218	560229	0	0
2024-10-21 02:32:47			0	38157	0	0	0	21412	19970	162180	26961	1057869	46401	107859	0	0	8219	559623	0	0
2024-10-21 02:33:47			0	38162	0	0	0	21405	19980	162088	27540	1057905	46402	107856	0	0	8220	559393	0	0
2024-10-21 02:34:47			0	38174	0	0	0	21407	19980	162164	27102	1057861	46392	107857	0	0	8221	558916	0	0
2024-10-21 02:35:47			0	38171	0	0	0	21405	19980	162064	27310	1057887	46403	107856	0	0	8220	559035	0	0
2024-10-21 02:36:47			0	38185	0	0	0	21405	19980	162008	27286	1057852	46402	107856	0	0	8221	558479	0	0
2024-10-21 02:37:47			0	38176	0	0	0	21418	19980	162032	27171	1057852	46391	107861	0	0	8220	558836	0	0
2024-10-21 02:38:47			0	38179	0	0	0	21412	19980	161964	27239	1057958	46402	107859	0	0	8221	558717	0	0
2024-10-21 02:39:47			0	38179	0	0	0	21418	19990	161988	27360	1057923	46392	107861	0	0	8221	558686	0	0
2024-10-21 02:40:47			0	38178	0	0	0	21415	19980	161928	27060	1057878	46391	107860	0	0	8221	558757	0	0
2024-10-21 02:41:47			0	38181	0	0	0	21412	19980	161920	27239	1057852	46414	107859	0	0	8221	558638	0	0
2024-10-21 02:42:47			0	38208	0	0	0	21415	19980	162008	27053	1057905	46402	107860	0	0	8222	557565	0	0
2024-10-21 02:43:47			0	38198	0	0	0	21407	19990	161968	27123	1057949	46415	107857	0	0	8222	557931	0	0
2024-10-21 02:44:47			0	38205	0	0	0	21407	19980	162044	27088	1057914	46403	107857	0	0	8222	557684	0	0
2024-10-21 02:45:47			0	38219	0	0	0	21412	19980	161916	27383	1057905	46380	107859	0	0	8223	557128	0	0
2024-10-21 02:46:47			0	38207	0	0	0	21418	19980	161984	27215	1057887	46381	107861	0	0	8222	557605	0	0
2024-10-21 02:47:47			0	38212	0	0	0	21410	19990	161980	27163	1057949	46381	107858	0	0	8223	557375	0	0
2024-10-21 02:48:47			0	38200	0	0	0	21410	19970	161964	27364	1057896	46401	107858	0	0	8222	557913	0	0
2024-10-21 02:49:47			0	38209	0	0	0	21412	19980	161960	26831	1057940	46392	107859	0	0	8222	557525	0	0
2024-10-21 02:50:47			0	38211	0	0	0	21410	19980	161912	27296	1057905	46391	107858	0	0	8223	557446	0	0
2024-10-21 02:51:47			0	38222	0	0	0	21418	19980	161944	27395	1057905	46380	107861	0	0	8223	557009	0	0
2024-10-21 02:52:47			0	38231	0	0	0	21415	19970	161944	27235	1057869	46390	107860	0	0	8224	556683	0	0
2024-10-21 02:53:47			0	38220	0	0	0	21407	19980	161928	27013	1057905	46414	107857	0	0	8223	557089	0	0
2024-10-21 02:54:47			0	38207	0	0	0	21410	19980	161880	27310	1057852	46402	107858	0	0	8222	557605	0	0
2024-10-21 02:55:47			0	38203	0	0	0	21402	19990	161900	27248	1057896	46415	107855	0	0	8222	557733	0	0
2024-10-21 02:56:47			0	38206	0	0	0	21402	19990	162052	27369	1057896	46392	107855	0	0	8223	557614	0	0
2024-10-21 02:57:47			0	38206	0	0	0	21407	19980	161972	26845	1057861	46403	107857	0	0	8222	557644	0	0
2024-10-21 02:58:47			0	38202	0	0	0	21412	19980	161928	26944	1057878	46380	107859	0	0	8222	557803	0	0
2024-10-21 02:59:47			0	38215	0	0	0	21410	19980	162036	27150	1057852	46402	107858	0	0	8223	557287	0	0
2024-10-21 03:00:47			0	38205	0	0	0	21405	19980	161920	27145	1057878	46402	107856	0	0	8222	557684	0	0
2024-10-21 03:01:47			0	38216	0	0	0	21410	19980	161968	27053	1057878	46380	107858	0	0	8223	557247	0	0
2024-10-21 03:02:47			0	38228	0	0	0	21407	19990	161820	27319	1057843	46381	107857	0	0	8224	556741	0	0
2024-10-21 03:03:47			0	38238	0	0	0	21410	19980	161928	27282	1057887	46392	107858	0	0	8224	556375	0	0
2024-10-21 03:04:47			0	38246	0	0	0	21410	19990	161824	27300	1057985	46392	107858	0	0	8225	556027	0	0
2024-10-21 03:05:47			0	38245	0	0	0	21415	19980	161876	27199	1057940	46392	107860	0	0	8225	556097	0	0
2024-10-21 03:06:47			0	38262	0	0	0	21420	19980	161812	27396	1057878	46391	107862	0	0	8225	555424	0	0
2024-10-21 03:07:47			0	38257	0	0	0	21420	19980	161708	27457	1057887	46392	107862	0	0	8225	555622	0	0
2024-10-21 03:08:47			0	38256	0	0	0	21420	19980	161844	27022	1057958	46380	107862	0	0	8225	555661	0	0
2024-10-21 03:09:47			0	38250	0	0	0	21412	19980	161792	26989	1057940	46403	107859	0	0	8225	555899	0	0
2024-10-21 03:10:47			0	38259	0	0	0	21415	19990	161736	27183	1057949	46392	107860	0	0	8225	555512	0	0
2024-10-21 03:11:47			0	38258	0	0	0	21410	19980	161740	27331	1057967	46403	107858	0	0	8225	555582	0	0
2024-10-21 03:12:47			0	38259	0	0	0	21420	19980	161720	27360	1057878	46402	107862	0	0	8225	555543	0	0
2024-10-21 03:13:47			0	38259	0	0	0	21412	19980	161724	27203	1057905	46380	107859	0	0	8225	555543	0	0
2024-10-21 03:14:47			0	38263	0	0	0	21410	19980	161844	27412	1057914	46392	107858	0	0	8226	555384	0	0
2024-10-21 03:15:47			0	38248	0	0	0	21412	19980	161740	27339	1057861	46392	107859	0	0	8225	555978	0	0
2024-10-21 03:16:47			0	38251	0	0	0	21405	19970	161816	27334	1057896	46390	107856	0	0	8225	555890	0	0
2024-10-21 03:17:47			0	38255	0	0	0	21399	19980	161804	27512	1057914	46392	107854	0	0	8225	555701	0	0
2024-10-21 03:18:47			0	38230	0	0	0	21405	19980	161832	27388	1057940	46403	107856	0	0	8224	556692	0	0
2024-10-21 03:19:47			0	38236	0	0	0	21405	19970	161812	27424	1057869	46390	107856	0	0	8224	556485	0	0
2024-10-21 03:20:47			0	38244	0	0	0	21410	19970	161752	27209	1057843	46390	107858	0	0	8225	556168	0	0
2024-10-21 03:21:47			0	38247	0	0	0	21394	19980	161788	27391	1057887	46392	107852	0	0	8225	556018	0	0
2024-10-21 03:22:47			0	38258	0	0	0	21392	19980	161876	27216	1057887	46403	107851	0	0	8226	555582	0	0
2024-10-21 03:23:47			0	38240	0	0	0	21394	19970	161908	27272	1057833	46390	107852	0	0	8225	556326	0	0
2024-10-21 03:24:47			0	38215	0	0	0	21389	19970	161888	27203	1057816	46401	107850	0	0	8223	557318	0	0
2024-10-21 03:25:47			0	38231	0	0	0	21397	19970	161792	27270	1057807	46413	107853	0	0	8224	556683	0	0
2024-10-21 03:26:47			0	38245	0	0	0	21397	19970	161856	27229	1057833	46390	107853	0	0	8225	556128	0	0
2024-10-21 03:27:47			0	38228	0	0	0	21386	19970	161996	27322	1057833	46379	107849	0	0	8224	556802	0	0
2024-10-21 03:28:47			0	38225	0	0	0	21399	19970	161828	27334	1057833	46379	107854	0	0	8224	556921	0	0
2024-10-21 03:29:47			0	38224	0	0	0	21397	19970	161860	27038	1057833	46379	107853	0	0	8224	556961	0	0
2024-10-21 03:30:47			0	38241	0	0	0	21397	19970	161848	27005	1057780	46390	107853	0	0	8225	556286	0	0
2024-10-21 03:31:47			0	38226	0	0	0	21397	19970	161800	27024	1057860	46379	107853	0	0	8224	556881	0	0
2024-10-21 03:32:47			0	38223	0	0	0	21399	19970	161892	27267	1057833	46379	107854	0	0	8223	557000	0	0
2024-10-21 03:33:47			0	38235	0	0	0	21394	19950	161916	27362	1057789	46389	107852	0	0	8224	556586	0	0
2024-10-21 03:34:47			0	38233	0	0	0	21405	19970	161880	27298	1057860	46401	107856	0	0	8224	556604	0	0
2024-10-21 03:35:47			0	38234	0	0	0	21397	19970	161872	27232	1057816	46401	107853	0	0	8224	556564	0	0
2024-10-21 03:36:47			0	38254	0	0	0	21405	19970	161908	27452	1057807	46401	107856	0	0	8225	555771	0	0
2024-10-21 03:37:47			0	38243	0	0	0	21392	19960	161852	26991	1057878	46389	107851	0	0	8225	556238	0	0
2024-10-21 03:38:47			0	38255	0	0	0	21389	19950	161912	27377	1057789	46389	107850	0	0	8225	555793	0	0
2024-10-21 03:39:47			0	38253	0	0	0	21397	19970	161964	27156	1057833	46390	107853	0	0	8225	555811	0	0
2024-10-21 03:40:47			0	38255	0	0	0	21402	19970	161980	27267	1057816	46390	107855	0	0	8225	555732	0	0
2024-10-21 03:41:47			0	38239	0	0	0	21386	19970	161928	27093	1057833	46401	107849	0	0	8225	556366	0	0
2024-10-21 03:42:47			0	38232	0	0	0	21389	19960	161860	27012	1057798	46389	107850	0	0	8224	556674	0	0
2024-10-21 03:43:47			0	38237	0	0	0	21389	19960	161880	27206	1057798	46389	107850	0	0	8224	556476	0	0
2024-10-21 03:44:47			0	38249	0	0	0	21386	19970	161876	27209	1057833	46379	107849	0	0	8225	555969	0	0
2024-10-21 03:45:47			0	38247	0	0	0	21386	19960	161836	27086	1057851	46378	107849	0	0	8225	556079	0	0
2024-10-21 03:46:47			0	38248	0	0	0	21397	19950	161852	26859	1057842	46400	107853	0	0	8225	556070	0	0
2024-10-21 03:47:47			0	38252	0	0	0	21394	19970	161928	26942	1057860	46413	107852	0	0	8225	555850	0	0
2024-10-21 03:48:47			0	38250	0	0	0	21399	19950	161912	27086	1057815	46400	107854	0	0	8225	555991	0	0
2024-10-21 03:49:47			0	38275	0	0	0	21397	19950	161788	27274	1057815	46389	107853	0	0	8226	555001	0	0
2024-10-21 03:50:47			0	38269	0	0	0	21394	19970	161868	27542	1057816	46401	107852	0	0	8226	555177	0	0
2024-10-21 03:51:47			0	38263	0	0	0	21405	19950	161832	26887	1057815	46389	107856	0	0	8226	555476	0	0
2024-10-21 03:52:47			0	38258	0	0	0	21384	19970	161952	26965	1057833	46401	107848	0	0	8226	555613	0	0
2024-10-21 03:53:47			0	38253	0	0	0	21392	19970	161920	26923	1057807	46390	107851	0	0	8225	555811	0	0
2024-10-21 03:54:47			0	38246	0	0	0	21392	19960	161856	27216	1057851	46389	107851	0	0	8225	556119	0	0
2024-10-21 03:55:47			0	38255	0	0	0	21394	19950	161828	27121	1057895	46389	107852	0	0	8225	555793	0	0
2024-10-21 03:56:47			0	38250	0	0	0	21389	19960	161840	27116	1057824	46389	107850	0	0	8225	555960	0	0
2024-10-21 03:57:47			0	38259	0	0	0	21386	19960	161880	27261	1057798	46389	107849	0	0	8226	555604	0	0
2024-10-21 03:58:47			0	38265	0	0	0	21379	19960	161784	27265	1057851	46389	107846	0	0	8226	555366	0	0
2024-10-21 03:59:47			0	38261	0	0	0	21384	19960	161792	27114	1057771	46389	107848	0	0	8226	555524	0	0
2024-10-21 04:00:47			0	38274	0	0	0	21384	19950	161800	27124	1057789	46389	107848	0	0	8227	555040	0	0
2024-10-21 04:01:47			0	38260	0	0	0	21386	19950	161896	27152	1057807	46388	107849	0	0	8226	555595	0	0
2024-10-21 04:02:47			0	38274	0	0	0	21386	19960	161664	27229	1057798	46389	107849	0	0	8227	555010	0	0
2024-10-21 04:03:47			0	38273	0	0	0	21389	19960	161704	27322	1057824	46389	107850	0	0	8227	555049	0	0
2024-10-21 04:04:47			0	38295	0	0	0	21389	19950	161732	26887	1057807	46399	107850	0	0	8228	554209	0	0
2024-10-21 04:05:47			0	38274	0	0	0	21394	19950	161584	27189	1057762	46389	107852	0	0	8226	555040	0	0
2024-10-21 04:06:47			0	38296	0	0	0	21386	19960	161704	27092	1057824	46378	107849	0	0	8228	554139	0	0
2024-10-21 04:07:47			0	38272	0	0	0	21379	19960	161768	26955	1057824	46400	107846	0	0	8227	555089	0	0
2024-10-21 04:08:47			0	38285	0	0	0	21381	19960	161732	27154	1057824	46378	107847	0	0	8227	554574	0	0
2024-10-21 04:09:47			0	38287	0	0	0	21379	19950	161708	27100	1057807	46399	107846	0	0	8227	554526	0	0
2024-10-21 04:10:47			0	38293	0	0	0	21384	19960	161672	26955	1057824	46400	107848	0	0	8228	554258	0	0
2024-10-21 04:11:47			0	38266	0	0	0	21381	19950	161704	27015	1057762	46378	107847	0	0	8226	555357	0	0
2024-10-21 04:12:47			0	38283	0	0	0	21371	19950	161660	27180	1057860	46388	107843	0	0	8227	554684	0	0
2024-10-21 04:13:47			0	38285	0	0	0	21384	19940	161676	27119	1057798	46388	107848	0	0	8227	554635	0	0
2024-10-21 04:14:47			0	38293	0	0	0	21379	19950	161712	27121	1057815	46389	107846	0	0	8228	554288	0	0
2024-10-21 04:15:47			0	38303	0	0	0	21384	19950	161708	27388	1057815	46389	107848	0	0	8228	553893	0	0
2024-10-21 04:16:47			0	38290	0	0	0	21376	19950	161696	27332	1057780	46388	107845	0	0	8228	554407	0	0
2024-10-21 04:17:47			0	38282	0	0	0	21384	19940	161708	27154	1057798	46377	107848	0	0	8227	554754	0	0
2024-10-21 04:18:47			0	38278	0	0	0	21384	19950	161664	26993	1057789	46389	107848	0	0	8227	554882	0	0
2024-10-21 04:19:47			0	38269	0	0	0	21384	19950	161748	27081	1057753	46399	107848	0	0	8226	555238	0	0
2024-10-21 04:20:47			0	38275	0	0	0	21379	19950	161648	27339	1057842	46389	107846	0	0	8227	555001	0	0
2024-10-21 04:21:47			0	38271	0	0	0	21376	19950	161696	27036	1057789	46389	107845	0	0	8227	555159	0	0
2024-10-21 04:22:47			0	38292	0	0	0	21379	19940	161680	27036	1057718	46388	107846	0	0	8228	554358	0	0
2024-10-21 04:23:47			0	38291	0	0	0	21381	19950	161704	27277	1057789	46389	107847	0	0	8228	554367	0	0
2024-10-21 04:24:47			0	38271	0	0	0	21379	19940	161692	27223	1057798	46377	107846	0	0	8227	555190	0	0
2024-10-21 04:25:47			0	38282	0	0	0	21376	19940	161724	27235	1057744	46388	107845	0	0	8227	554754	0	0
2024-10-21 04:26:47			0	38293	0	0	0	21379	19950	161684	27320	1057789	46389	107846	0	0	8228	554288	0	0
2024-10-21 04:27:47			0	38270	0	0	0	21379	19950	161628	27405	1057780	46399	107846	0	0	8227	555199	0	0
2024-10-21 04:28:47			0	38287	0	0	0	21381	19950	161720	27208	1057753	46388	107847	0	0	8227	554526	0	0
2024-10-21 04:29:47			0	38283	0	0	0	21386	19940	161728	26934	1057744	46388	107849	0	0	8227	554714	0	0
2024-10-21 04:30:47			0	38293	0	0	0	21368	19950	161632	27112	1057753	46388	107842	0	0	8228	554288	0	0
2024-10-21 04:31:47			0	38276	0	0	0	21376	19940	161824	27280	1057744	46399	107845	0	0	8227	554992	0	0
2024-10-21 04:32:47			0	38260	0	0	0	21384	19940	161760	27261	1057851	46377	107848	0	0	8226	555625	0	0
2024-10-21 04:33:47			0	38273	0	0	0	21381	19950	161664	26975	1057780	46399	107847	0	0	8227	555080	0	0
2024-10-21 04:34:47			0	38282	0	0	0	21371	19950	161728	27069	1057807	46388	107843	0	0	8227	554723	0	0
2024-10-21 04:35:47			0	38274	0	0	0	21376	19950	161760	27223	1057833	46399	107845	0	0	8227	555040	0	0
2024-10-21 04:36:47			0	38276	0	0	0	21368	19940	161756	27256	1057744	46388	107842	0	0	8227	554992	0	0
2024-10-21 04:37:47			0	38269	0	0	0	21374	19940	161744	27208	1057744	46399	107844	0	0	8226	555269	0	0
2024-10-21 04:38:47			0	38264	0	0	0	21363	19940	161752	27260	1057735	46398	107840	0	0	8226	555467	0	0
2024-10-21 04:39:47			0	38239	0	0	0	21366	19940	161764	27272	1057789	46387	107841	0	0	8225	556458	0	0
2024-10-21 04:40:47			0	38255	0	0	0	21371	19940	161832	27036	1057771	46399	107843	0	0	8226	555823	0	0
2024-10-21 04:41:47			0	38244	0	0	0	21361	19930	161880	27118	1057744	46386	107839	0	0	8225	556290	0	0
2024-10-21 04:42:47			0	38241	0	0	0	21363	19940	161860	27133	1057718	46377	107840	0	0	8225	556378	0	0
2024-10-21 04:43:47			0	38251	0	0	0	21363	19940	162012	27287	1057709	46398	107840	0	0	8226	555982	0	0
2024-10-21 04:44:47			0	38237	0	0	0	21366	19940	161916	27692	1057709	46387	107841	0	0	8225	556537	0	0
2024-10-21 04:45:47			0	38241	0	0	0	21353	19930	161944	27296	1057753	46387	107836	0	0	8225	556409	0	0
2024-10-21 04:46:47			0	38235	0	0	0	21366	19930	161848	27279	1057753	46387	107841	0	0	8225	556647	0	0
2024-10-21 04:47:47			0	38246	0	0	0	21361	19930	161820	27358	1057700	46387	107839	0	0	8225	556211	0	0
2024-10-21 04:48:47			0	38236	0	0	0	21355	19940	161792	27060	1057735	46398	107837	0	0	8225	556577	0	0
2024-10-21 04:49:47			0	38243	0	0	0	21348	19930	161992	27118	1057726	46398	107834	0	0	8225	556330	0	0
2024-10-21 04:50:47			0	38223	0	0	0	21345	19930	161844	27282	1057673	46387	107833	0	0	8224	557123	0	0
2024-10-21 04:51:47			0	38229	0	0	0	21350	19930	161900	27154	1057673	46398	107835	0	0	8224	556885	0	0
2024-10-21 04:52:47			0	38229	0	0	0	21350	19920	161888	27405	1057620	46396	107835	0	0	8224	556916	0	0
2024-10-21 04:53:47			0	38214	0	0	0	21342	19920	161976	27287	1057620	46385	107832	0	0	8224	557511	0	0
2024-10-21 04:54:47			0	38223	0	0	0	21345	19910	161960	27498	1057602	46395	107833	0	0	8224	557185	0	0
2024-10-21 04:55:47			0	38222	0	0	0	21340	19920	161956	27307	1057655	46396	107831	0	0	8224	557194	0	0
2024-10-21 04:56:47			0	38228	0	0	0	21353	19920	161940	27272	1057655	46396	107836	0	0	8224	556955	0	0
2024-10-21 04:57:47			0	38245	0	0	0	21342	19920	161856	27502	1057593	46385	107832	0	0	8226	556281	0	0
2024-10-21 04:58:47			0	38225	0	0	0	21353	19920	161908	27416	1057655	46375	107836	0	0	8224	557075	0	0
2024-10-21 04:59:47			0	38249	0	0	0	21350	19920	161816	27242	1057646	46385	107835	0	0	8226	556123	0	0
2024-10-21 05:00:47			0	38254	0	0	0	21348	19910	161856	27343	1057637	46375	107834	0	0	8226	555955	0	0
2024-10-21 05:01:47			0	38238	0	0	0	21355	19920	161820	27076	1057593	46375	107837	0	0	8225	556559	0	0
2024-10-21 05:02:47			0	38238	0	0	0	21345	19910	161868	27478	1057628	46384	107833	0	0	8225	556589	0	0
2024-10-21 05:03:47			0	38241	0	0	0	21342	19920	162044	27277	1057673	46375	107832	0	0	8225	556440	0	0
2024-10-21 05:04:47			0	38230	0	0	0	21345	19910	161980	27055	1057611	46408	107833	0	0	8225	556907	0	0
2024-10-21 05:05:47			0	38245	0	0	0	21332	19910	161900	27055	1057611	46364	107828	0	0	8226	556312	0	0
2024-10-21 05:06:47			0	38232	0	0	0	21337	19910	161944	27402	1057602	46395	107830	0	0	8225	556828	0	0
2024-10-21 05:07:47			0	38232	0	0	0	21337	19910	161960	27203	1057611	46375	107830	0	0	8225	556828	0	0
2024-10-21 05:08:47			0	38236	0	0	0	21335	19910	162020	27381	1057637	46385	107829	0	0	8225	556669	0	0
2024-10-21 05:09:47			0	38227	0	0	0	21337	19910	162056	27149	1057584	46408	107830	0	0	8225	557026	0	0
2024-10-21 05:10:47			0	38221	0	0	0	21332	19900	162004	27079	1057620	46394	107828	0	0	8224	557295	0	0
2024-10-21 05:11:47			0	38224	0	0	0	21337	19900	161956	27403	1057593	46373	107830	0	0	8224	557176	0	0
2024-10-21 05:12:47			0	38224	0	0	0	21337	19900	161892	27301	1057566	46394	107830	0	0	8224	557176	0	0
2024-10-21 05:13:47			0	38222	0	0	0	21329	19920	161980	27566	1057620	46385	107827	0	0	8224	557194	0	0
2024-10-21 05:14:47			0	38219	0	0	0	21327	19900	161976	27235	1057584	46394	107826	0	0	8224	557374	0	0
2024-10-21 05:15:47			0	38215	0	0	0	21324	19900	162120	27234	1057540	46383	107825	0	0	8224	557533	0	0
2024-10-21 05:16:47			0	38213	0	0	0	21327	19900	162112	27027	1057566	46373	107826	0	0	8224	557612	0	0
2024-10-21 05:17:47			0	38204	0	0	0	21329	19900	162036	27104	1057487	46383	107827	0	0	8223	557970	0	0
2024-10-21 05:18:47			0	38200	0	0	0	21322	19900	162016	27178	1057566	46383	107824	0	0	8223	558129	0	0
2024-10-21 05:19:47			0	38221	0	0	0	21327	19900	162012	27180	1057557	46394	107826	0	0	8224	557295	0	0
2024-10-21 05:20:47			0	38202	0	0	0	21324	19890	162064	27022	1057513	46372	107825	0	0	8223	558080	0	0
2024-10-21 05:21:47			0	38198	0	0	0	21322	19900	162140	27317	1057620	46373	107824	0	0	8223	558208	0	0
2024-10-21 05:22:47			0	38195	0	0	0	21324	19900	162132	27033	1057557	46383	107825	0	0	8223	558327	0	0
2024-10-21 05:23:47			0	38200	0	0	0	21332	19900	162112	27235	1057593	46373	107828	0	0	8223	558129	0	0
2024-10-21 05:24:47			0	38204	0	0	0	21324	19900	162096	27272	1057620	46383	107825	0	0	8223	557970	0	0
2024-10-21 05:25:47			0	38208	0	0	0	21324	19900	162104	27286	1057566	46394	107825	0	0	8224	557811	0	0
2024-10-21 05:26:47			0	38184	0	0	0	21319	19890	162220	27222	1057460	46361	107823	0	0	8222	558796	0	0
2024-10-21 05:27:47			0	38181	0	0	0	21322	19890	162200	27428	1057548	46373	107824	0	0	8222	558915	0	0
2024-10-21 05:28:47			0	38180	0	0	0	21322	19890	162188	27225	1057495	46383	107824	0	0	8222	558955	0	0
2024-10-21 05:29:47			0	38197	0	0	0	21316	19890	162080	27265	1057548	46373	107822	0	0	8223	558279	0	0
2024-10-21 05:30:47			0	38198	0	0	0	21319	19890	162012	27326	1057495	46383	107823	0	0	8223	558239	0	0
2024-10-21 05:31:47			0	38181	0	0	0	21311	19890	162168	27488	1057460	46372	107820	0	0	8222	558915	0	0
2024-10-21 05:32:47			0	38193	0	0	0	21319	19900	162180	27022	1057531	46373	107823	0	0	8223	558407	0	0
2024-10-21 05:33:47			0	38166	0	0	0	21319	19890	162120	27140	1057495	46373	107823	0	0	8221	559512	0	0
2024-10-21 05:34:47			0	38184	0	0	0	21319	19890	162140	26974	1057548	46373	107823	0	0	8222	558796	0	0
2024-10-21 05:35:47			0	38181	0	0	0	21322	19890	162244	27033	1057495	46394	107824	0	0	8222	558915	0	0
2024-10-21 05:36:47			0	38184	0	0	0	21319	19890	162172	27249	1057495	46383	107823	0	0	8222	558796	0	0
2024-10-21 05:37:47			0	38185	0	0	0	21309	19890	162200	27248	1057522	46383	107819	0	0	8222	558756	0	0
2024-10-21 05:38:47			0	38156	0	0	0	21316	19890	162384	27145	1057495	46373	107822	0	0	8221	559910	0	0
2024-10-21 05:39:47			0	38174	0	0	0	21316	19880	162320	27029	1057451	46381	107822	0	0	8222	559224	0	0
2024-10-21 05:40:47			0	38147	0	0	0	21316	19890	162160	27228	1057460	46372	107822	0	0	8220	560268	0	0
2024-10-21 05:41:47			0	38166	0	0	0	21322	19890	162324	27053	1057460	46382	107824	0	0	8221	559512	0	0
2024-10-21 05:42:47			0	38162	0	0	0	21314	19890	162152	27095	1057486	46393	107821	0	0	8221	559671	0	0
2024-10-21 05:43:47			0	38158	0	0	0	21311	19890	162252	27372	1057486	46382	107820	0	0	8221	559830	0	0
2024-10-21 05:44:47			0	38157	0	0	0	21319	19890	162264	27230	1057469	46383	107823	0	0	8221	559870	0	0
2024-10-21 05:45:47			0	38174	0	0	0	21319	19880	162328	27308	1057477	46381	107823	0	0	8222	559224	0	0
2024-10-21 05:46:47			0	38156	0	0	0	21314	19890	162204	27431	1057486	46372	107821	0	0	8221	559910	0	0
2024-10-21 05:47:47			0	38160	0	0	0	21322	19890	162208	27013	1057486	46382	107824	0	0	8221	559750	0	0
2024-10-21 05:48:47			0	38184	0	0	0	21322	19880	162336	27209	1057424	46381	107824	0	0	8222	558826	0	0
2024-10-21 05:49:47			0	38178	0	0	0	21327	19890	162104	26965	1057513	46382	107826	0	0	8222	559034	0	0
2024-10-21 05:50:47			0	38174	0	0	0	21324	19890	162160	27064	1057460	46393	107825	0	0	8222	559193	0	0
2024-10-21 05:51:47			0	38171	0	0	0	21316	19880	162144	27235	1057531	46381	107822	0	0	8221	559343	0	0
2024-10-21 05:52:47			0	38186	0	0	0	21309	19890	162216	27282	1057522	46373	107819	0	0	8222	558716	0	0
2024-10-21 05:53:47			0	38169	0	0	0	21309	19890	162160	27052	1057486	46393	107819	0	0	8221	559392	0	0
2024-10-21 05:54:47			0	38169	0	0	0	21311	19880	162248	27182	1057504	46371	107820	0	0	8221	559423	0	0
2024-10-21 05:55:47			0	38168	0	0	0	21314	19880	162216	26968	1057495	46381	107821	0	0	8221	559463	0	0
2024-10-21 05:56:47			0	38174	0	0	0	21316	19880	162076	27308	1057504	46392	107822	0	0	8222	559224	0	0
2024-10-21 05:57:47			0	38178	0	0	0	21319	19880	162188	27426	1057531	46381	107823	0	0	8222	559065	0	0
2024-10-21 05:58:47			0	38184	0	0	0	21329	19880	162188	27253	1057504	46392	107827	0	0	8222	558826	0	0
2024-10-21 05:59:47			0	38195	0	0	0	21335	19890	162076	27048	1057513	46382	107829	0	0	8223	558358	0	0
2024-10-21 06:00:47			0	38171	0	0	0	21332	19890	162136	27090	1057540	46382	107828	0	0	8221	559313	0	0
2024-10-21 06:01:47			0	38179	0	0	0	21319	19880	162140	26953	1057504	46381	107823	0	0	8222	559025	0	0
2024-10-21 06:02:47			0	38185	0	0	0	21316	19880	162172	27015	1057477	46381	107822	0	0	8222	558787	0	0
2024-10-21 06:03:47			0	38179	0	0	0	21327	19880	162116	27229	1057504	46371	107826	0	0	8222	559025	0	0
2024-10-21 06:04:47			0	38183	0	0	0	21324	19880	162104	27358	1057522	46381	107825	0	0	8222	558866	0	0
2024-10-21 06:05:47			0	38185	0	0	0	21319	19890	162180	27215	1057513	46382	107823	0	0	8222	558756	0	0
2024-10-21 06:06:47			0	38180	0	0	0	21327	19880	162192	27072	1057531	46381	107826	0	0	8222	558985	0	0
2024-10-21 06:07:47			0	38171	0	0	0	21319	19890	162220	27388	1057522	46383	107823	0	0	8221	559313	0	0
2024-10-21 06:08:47			0	38157	0	0	0	21316	19880	162252	27144	1057522	46392	107822	0	0	8221	559901	0	0
2024-10-21 06:09:47			0	38159	0	0	0	21314	19880	162328	26928	1057548	46381	107821	0	0	8221	559821	0	0
2024-10-21 06:10:47			0	38171	0	0	0	21314	19890	162312	26795	1057548	46394	107821	0	0	8222	559313	0	0
2024-10-21 06:11:47			0	38151	0	0	0	21306	19880	162280	27190	1057477	46381	107818	0	0	8220	560140	0	0
2024-10-21 06:12:47			0	38155	0	0	0	21324	19890	162268	27270	1057486	46382	107825	0	0	8220	559949	0	0
2024-10-21 06:13:47			0	38143	0	0	0	21314	19880	162356	27081	1057504	46392	107821	0	0	8220	560458	0	0
2024-10-21 06:14:47			0	38152	0	0	0	21314	19890	162348	27111	1057548	46373	107821	0	0	8220	560069	0	0
2024-10-21 06:15:47			0	38136	0	0	0	21309	19890	162272	27017	1057486	46372	107819	0	0	8220	560706	0	0
2024-10-21 06:16:47			0	38132	0	0	0	21319	19880	162484	27192	1057531	46381	107823	0	0	8219	560897	0	0
2024-10-21 06:17:47			0	38139	0	0	0	21314	19880	162332	27140	1057504	46381	107821	0	0	8220	560618	0	0
2024-10-21 06:18:47			0	38125	0	0	0	21314	19890	162352	27067	1057486	46382	107821	0	0	8219	561145	0	0
2024-10-21 06:19:47			0	38135	0	0	0	21319	19880	162480	27419	1057468	46392	107823	0	0	8219	560777	0	0
2024-10-21 06:20:47			0	38152	0	0	0	21306	19880	162380	27374	1057504	46371	107818	0	0	8220	560100	0	0
2024-10-21 06:21:47			0	38137	0	0	0	21311	19880	162388	27519	1057522	46392	107820	0	0	8220	560697	0	0
2024-10-21 06:22:47			0	38138	0	0	0	21319	19880	162468	27164	1057468	46381	107823	0	0	8219	560658	0	0
2024-10-21 06:23:47			0	38147	0	0	0	21306	19880	162268	27393	1057504	46381	107818	0	0	8220	560299	0	0
2024-10-21 06:24:47			0	38146	0	0	0	21311	19880	162308	27374	1057477	46381	107820	0	0	8220	560339	0	0
2024-10-21 06:25:47			0	38150	0	0	0	21309	19870	162308	27405	1057486	46381	107819	0	0	8220	560210	0	0
2024-10-21 06:26:47			0	38137	0	0	0	21314	19880	162316	27083	1057468	46381	107821	0	0	8219	560697	0	0
2024-10-21 06:27:47			0	38143	0	0	0	21309	19880	162364	27177	1057477	46381	107819	0	0	8220	560458	0	0
2024-10-21 06:28:47			0	38143	0	0	0	21301	19880	162320	27254	1057451	46371	107816	0	0	8220	560458	0	0
2024-10-21 06:29:47			0	38130	0	0	0	21303	19880	162384	27213	1057477	46381	107817	0	0	8219	560976	0	0
2024-10-21 06:30:47			0	38133	0	0	0	21306	19870	162384	27353	1057486	46381	107818	0	0	8219	560888	0	0
2024-10-21 06:31:47			0	38132	0	0	0	21314	19880	162472	27263	1057477	46381	107821	0	0	8219	560897	0	0
2024-10-21 06:32:47			0	38129	0	0	0	21306	19880	162412	27306	1057468	46404	107818	0	0	8219	561016	0	0
2024-10-21 06:33:47			0	38116	0	0	0	21309	19870	162436	27319	1057486	46371	107819	0	0	8218	561566	0	0
2024-10-21 06:34:47			0	38123	0	0	0	21309	19870	162428	27114	1057477	46380	107819	0	0	8219	561286	0	0
2024-10-21 06:35:47			0	38126	0	0	0	21303	19880	162472	27235	1057495	46392	107817	0	0	8219	561136	0	0
2024-10-21 06:36:47			0	38118	0	0	0	21303	19880	162552	27192	1057468	46381	107817	0	0	8219	561455	0	0
2024-10-21 06:37:47			0	38107	0	0	0	21306	19880	162468	27237	1057451	46392	107818	0	0	8218	561894	0	0
2024-10-21 06:38:47			0	38092	0	0	0	21301	19880	162532	27234	1057468	46381	107816	0	0	8217	562493	0	0
2024-10-21 06:39:47			0	38102	0	0	0	21293	19880	162556	27267	1057468	46371	107813	0	0	8218	562093	0	0
2024-10-21 06:40:47			0	38097	0	0	0	21298	19870	162524	27213	1057486	46381	107815	0	0	8217	562324	0	0
2024-10-21 06:41:47			0	38116	0	0	0	21298	19880	162468	27064	1057468	46381	107815	0	0	8219	561535	0	0
2024-10-21 06:42:47			0	38086	0	0	0	21298	19870	162648	27338	1057424	46370	107815	0	0	8217	562763	0	0
2024-10-21 06:43:47			0	38114	0	0	0	21290	19870	162600	27435	1057424	46380	107812	0	0	8218	561645	0	0
2024-10-21 06:44:47			0	38092	0	0	0	21293	19870	162588	27071	1057486	46392	107813	0	0	8217	562524	0	0
2024-10-21 06:45:47			0	38097	0	0	0	21303	19870	162652	27185	1057433	46381	107817	0	0	8217	562324	0	0
2024-10-21 06:46:47			0	38102	0	0	0	21306	19860	162580	27126	1057442	46379	107818	0	0	8217	562155	0	0
2024-10-21 06:47:47			0	38098	0	0	0	21306	19870	162588	27419	1057433	46381	107818	0	0	8217	562284	0	0
2024-10-21 06:48:47			0	38100	0	0	0	21306	19870	162600	27457	1057451	46380	107818	0	0	8217	562204	0	0
2024-10-21 06:49:47			0	38101	0	0	0	21298	19870	162624	27346	1057424	46391	107815	0	0	8218	562164	0	0
2024-10-21 06:50:47			0	38106	0	0	0	21298	19860	162608	27505	1057468	46369	107815	0	0	8218	561996	0	0
2024-10-21 06:51:47			0	38093	0	0	0	21293	19870	162656	27185	1057424	46391	107813	0	0	8217	562484	0	0
2024-10-21 06:52:47			0	38094	0	0	0	21296	19880	162696	27350	1057495	46392	107814	0	0	8217	562413	0	0
2024-10-21 06:53:47			0	38107	0	0	0	21293	19860	162624	27007	1057442	46379	107813	0	0	8218	561956	0	0
2024-10-21 06:54:47			0	38085	0	0	0	21285	19870	162600	27118	1057424	46380	107810	0	0	8217	562803	0	0
2024-10-21 06:55:47			0	38086	0	0	0	21290	19860	162636	27360	1057406	46378	107812	0	0	8217	562794	0	0
2024-10-21 06:56:47			0	38078	0	0	0	21293	19860	162704	27421	1057433	46368	107813	0	0	8216	563114	0	0
2024-10-21 06:57:47			0	38096	0	0	0	21280	19860	162728	27029	1057388	46379	107808	0	0	8218	562395	0	0
2024-10-21 06:58:47			0	38055	0	0	0	21277	19860	162744	27362	1057362	46379	107807	0	0	8215	564033	0	0
2024-10-21 06:59:47			0	38100	0	0	0	21283	19860	162688	27168	1057388	46379	107809	0	0	8218	562235	0	0
2024-10-21 07:00:47			0	38079	0	0	0	21283	19860	162696	27319	1057353	46368	107809	0	0	8217	563074	0	0
2024-10-21 07:01:47			0	38072	0	0	0	21280	19860	162704	27322	1057379	46389	107808	0	0	8216	563354	0	0
2024-10-21 07:02:47			0	38068	0	0	0	21277	19860	162752	27274	1057353	46389	107807	0	0	8216	563513	0	0
2024-10-21 07:03:47			0	38072	0	0	0	21277	19860	162660	27365	1057379	46378	107807	0	0	8216	563354	0	0
2024-10-21 07:04:47			0	38071	0	0	0	21283	19850	162664	27229	1057344	46389	107809	0	0	8216	563425	0	0
2024-10-21 07:05:47			0	38069	0	0	0	21277	19850	162744	27270	1057397	46389	107807	0	0	8216	563504	0	0
2024-10-21 07:06:47			0	38075	0	0	0	21288	19850	162572	27109	1057335	46389	107811	0	0	8216	563265	0	0
2024-10-21 07:07:47			0	38049	0	0	0	21277	19860	162688	27294	1057415	46390	107807	0	0	8215	564273	0	0
2024-10-21 07:08:47			0	38071	0	0	0	21293	19850	162668	27090	1057344	46378	107813	0	0	8216	563425	0	0
2024-10-21 07:09:47			0	38061	0	0	0	21280	19850	162672	27346	1057344	46378	107808	0	0	8215	563824	0	0
2024-10-21 07:10:47			0	38055	0	0	0	21290	19850	162732	27326	1057370	46378	107812	0	0	8215	564064	0	0
2024-10-21 07:11:47			0	38050	0	0	0	21272	19860	162768	27126	1057379	46368	107805	0	0	8215	564233	0	0
2024-10-21 07:12:47			0	38048	0	0	0	21270	19850	162808	27265	1057397	46389	107804	0	0	8215	564344	0	0
2024-10-21 07:13:47			0	38052	0	0	0	21270	19840	162812	26935	1057326	46388	107804	0	0	8215	564216	0	0
2024-10-21 07:14:47			0	38048	0	0	0	21277	19850	162776	27015	1057344	46368	107807	0	0	8215	564344	0	0
2024-10-21 07:15:47			0	38051	0	0	0	21257	19850	162836	27046	1057291	46378	107799	0	0	8215	564224	0	0
2024-10-21 07:16:47			0	38048	0	0	0	21262	19850	162860	27140	1057335	46368	107801	0	0	8215	564344	0	0
2024-10-21 07:17:47			0	38034	0	0	0	21264	19840	162840	26819	1057353	46377	107802	0	0	8214	564936	0	0
2024-10-21 07:18:47			0	38040	0	0	0	21267	19840	162828	27140	1057343	46376	107803	0	0	8214	564696	0	0
2024-10-21 07:19:47			0	38041	0	0	0	21267	19840	162784	27293	1057299	46388	107803	0	0	8214	564656	0	0
2024-10-21 07:20:47			0	38049	0	0	0	21264	19840	162884	27175	1057317	46366	107802	0	0	8215	564336	0	0
2024-10-21 07:21:47			0	38037	0	0	0	21267	19840	162848	26937	1057343	46376	107803	0	0	8214	564816	0	0
2024-10-21 07:22:47			0	38051	0	0	0	21267	19830	162772	26960	1057281	46366	107803	0	0	8215	564287	0	0
2024-10-21 07:23:47			0	38031	0	0	0	21272	19830	162812	27282	1057255	46387	107805	0	0	8214	565087	0	0
2024-10-21 07:24:47			0	38034	0	0	0	21272	19830	162832	27227	1057308	46376	107805	0	0	8214	564967	0	0
2024-10-21 07:25:47			0	38050	0	0	0	21267	19840	162772	27173	1057264	46387	107803	0	0	8215	564296	0	0
2024-10-21 07:26:47			0	38052	0	0	0	21267	19850	162724	27362	1057362	46389	107803	0	0	8215	564184	0	0
2024-10-21 07:27:47			0	38042	0	0	0	21259	19840	162744	27222	1057317	46376	107800	0	0	8215	564616	0	0
2024-10-21 07:28:47			0	38046	0	0	0	21259	19840	162744	27170	1057299	46388	107800	0	0	8215	564456	0	0
2024-10-21 07:29:47			0	38039	0	0	0	21259	19840	162816	27249	1057317	46376	107800	0	0	8214	564736	0	0
2024-10-21 07:30:47			0	38052	0	0	0	21264	19830	162816	27190	1057228	46366	107802	0	0	8215	564247	0	0
2024-10-21 07:31:47			0	38046	0	0	0	21270	19830	162892	26918	1057272	46366	107804	0	0	8215	564487	0	0
2024-10-21 07:32:47			0	38049	0	0	0	21267	19830	162792	26970	1057272	46376	107803	0	0	8215	564367	0	0
2024-10-21 07:33:47			0	38044	0	0	0	21259	19820	162844	27154	1057228	46385	107800	0	0	8215	564598	0	0
2024-10-21 07:34:47			0	38053	0	0	0	21262	19830	162812	26925	1057228	46387	107801	0	0	8215	564206	0	0
2024-10-21 07:35:47			0	38056	0	0	0	21259	19830	162864	27355	1057255	46376	107800	0	0	8215	564087	0	0
2024-10-21 07:36:47			0	38038	0	0	0	21251	19830	162912	26809	1057255	46376	107797	0	0	8214	564807	0	0
2024-10-21 07:37:47			0	38029	0	0	0	21262	19830	162903	26890	1057308	46376	107801	0	0	8214	565167	0	0
2024-10-21 07:38:47			0	38039	0	0	0	21257	19830	162852	27019	1057272	46366	107799	0	0	8214	564767	0	0
2024-10-21 07:39:47			0	38046	0	0	0	21257	19840	162836	27145	1057264	46366	107799	0	0	8215	564456	0	0
2024-10-21 07:40:47			0	38015	0	0	0	21264	19820	162895	27060	1057254	46375	107802	0	0	8213	565759	0	0
2024-10-21 07:41:47			0	38018	0	0	0	21254	19830	162919	26918	1057255	46366	107798	0	0	8213	565608	0	0
2024-10-21 07:42:47			0	38027	0	0	0	21251	19830	162940	27488	1057281	46376	107797	0	0	8214	565247	0	0
2024-10-21 07:43:47			0	38032	0	0	0	21249	19830	162959	27230	1057272	46366	107796	0	0	8214	565047	0	0
2024-10-21 07:44:47			0	38025	0	0	0	21251	19810	162888	27180	1057245	46385	107797	0	0	8214	565390	0	0
2024-10-21 07:45:47			0	38037	0	0	0	21254	19820	162944	27223	1057254	46364	107798	0	0	8214	564878	0	0
2024-10-21 07:46:47			0	38037	0	0	0	21262	19820	162924	27310	1057228	46385	107801	0	0	8214	564878	0	0
2024-10-21 07:47:47			0	38040	0	0	0	21259	19820	162960	27350	1057281	46375	107800	0	0	8214	564758	0	0
2024-10-21 07:48:47			0	38050	0	0	0	21264	19820	162876	27303	1057210	46375	107802	0	0	8215	564358	0	0
2024-10-21 07:49:47			0	38068	0	0	0	21267	19830	162884	27126	1057255	46366	107803	0	0	8216	563607	0	0
2024-10-21 07:50:47			0	38062	0	0	0	21251	19830	162776	27166	1057281	46376	107797	0	0	8216	563847	0	0
2024-10-21 07:51:47			0	38061	0	0	0	21254	19810	162712	27305	1057245	46375	107798	0	0	8216	563949	0	0
2024-10-21 07:52:47			0	38078	0	0	0	21246	19830	162712	27320	1057246	46376	107795	0	0	8217	563207	0	0
2024-10-21 07:53:47			0	38058	0	0	0	21249	19820	162716	27280	1057254	46375	107796	0	0	8216	564038	0	0
2024-10-21 07:54:47			0	38088	0	0	0	21249	19830	162684	27263	1057246	46366	107796	0	0	8217	562807	0	0
2024-10-21 07:55:47			0	38078	0	0	0	21259	19840	162772	27013	1057290	46376	107800	0	0	8217	563176	0	0
2024-10-21 07:56:47			0	38087	0	0	0	21257	19810	162668	27066	1057219	46364	107799	0	0	8217	562909	0	0
2024-10-21 07:57:47			0	38078	0	0	0	21257	19820	162652	27282	1057281	46375	107799	0	0	8217	563238	0	0
2024-10-21 07:58:47			0	38079	0	0	0	21254	19820	162548	27327	1057281	46375	107798	0	0	8217	563198	0	0
2024-10-21 07:59:47			0	38091	0	0	0	21264	19820	162504	27182	1057263	46365	107802	0	0	8217	562718	0	0
2024-10-21 08:00:47			0	38086	0	0	0	21272	19820	162548	27182	1057254	46385	107805	0	0	8217	562918	0	0
2024-10-21 08:01:47			0	38082	0	0	0	21254	19820	162556	27486	1057254	46385	107798	0	0	8217	563078	0	0
2024-10-21 08:02:47			0	38092	0	0	0	21262	19820	162692	27114	1057263	46375	107801	0	0	8217	562678	0	0
2024-10-21 08:03:47			0	38090	0	0	0	21257	19830	162584	27504	1057281	46376	107799	0	0	8217	562727	0	0
2024-10-21 08:04:47			0	38078	0	0	0	21264	19830	162648	27298	1057255	46387	107802	0	0	8217	563207	0	0
2024-10-21 08:05:47			0	38080	0	0	0	21270	19830	162768	27265	1057308	46387	107804	0	0	8217	563127	0	0
2024-10-21 08:06:47			0	38082	0	0	0	21259	19830	162768	27332	1057281	46376	107800	0	0	8217	563047	0	0
2024-10-21 08:07:47			0	38075	0	0	0	21264	19840	162716	27256	1057343	46376	107802	0	0	8216	563296	0	0
2024-10-21 08:08:47			0	38081	0	0	0	21264	19820	162572	27474	1057254	46364	107802	0	0	8217	563118	0	0
2024-10-21 08:09:47			0	38101	0	0	0	21267	19820	162652	27353	1057263	46365	107803	0	0	8218	562319	0	0
2024-10-21 08:10:47			0	38097	0	0	0	21272	19820	162580	27242	1057254	46375	107805	0	0	8218	562479	0	0
2024-10-21 08:11:47			0	38089	0	0	0	21267	19820	162532	27012	1057237	46375	107803	0	0	8217	562798	0	0
2024-10-21 08:12:47			0	38098	0	0	0	21275	19830	162580	27431	1057299	46376	107806	0	0	8218	562408	0	0
2024-10-21 08:13:47			0	38115	0	0	0	21259	19840	162496	26955	1057343	46398	107800	0	0	8219	561698	0	0
2024-10-21 08:14:47			0	38074	0	0	0	21259	19840	162580	27436	1057299	46388	107800	0	0	8217	563336	0	0
2024-10-21 08:15:47			0	38105	0	0	0	21272	19830	162548	27346	1057308	46366	107805	0	0	8218	562128	0	0
2024-10-21 08:16:47			0	38101	0	0	0	21262	19840	162648	27374	1057290	46376	107801	0	0	8218	562257	0	0
2024-10-21 08:17:47			0	38090	0	0	0	21272	19830	162544	27422	1057334	46376	107805	0	0	8217	562727	0	0
2024-10-21 08:18:47			0	38107	0	0	0	21272	19830	162608	27045	1057325	46366	107805	0	0	8218	562049	0	0
2024-10-21 08:19:47			0	38087	0	0	0	21267	19840	162636	27111	1057273	46388	107803	0	0	8217	562816	0	0
2024-10-21 08:20:47			0	38095	0	0	0	21270	19830	162652	27376	1057334	46376	107804	0	0	8218	562528	0	0
2024-10-21 08:21:47			0	38092	0	0	0	21267	19820	162572	27414	1057281	46385	107803	0	0	8217	562678	0	0
2024-10-21 08:22:47			0	38093	0	0	0	21262	19830	162652	26987	1057308	46376	107801	0	0	8218	562608	0	0
2024-10-21 08:23:47			0	38086	0	0	0	21262	19830	162564	27301	1057281	46387	107801	0	0	8217	562887	0	0
2024-10-21 08:24:47			0	38105	0	0	0	21257	19820	162580	27092	1057263	46375	107799	0	0	8218	562159	0	0
2024-10-21 08:25:47			0	38097	0	0	0	21264	19840	162580	27033	1057290	46355	107802	0	0	8218	562417	0	0
2024-10-21 08:26:47			0	38084	0	0	0	21259	19840	162588	26991	1057264	46387	107800	0	0	8217	562936	0	0
2024-10-21 08:27:47			0	38106	0	0	0	21259	19830	162596	27121	1057281	46376	107800	0	0	8218	562088	0	0
2024-10-21 08:28:47			0	38099	0	0	0	21254	19840	162616	27517	1057317	46366	107798	0	0	8218	562337	0	0
2024-10-21 08:29:47			0	38096	0	0	0	21249	19830	162624	27149	1057272	46366	107796	0	0	8218	562488	0	0
2024-10-21 08:30:47			0	38091	0	0	0	21264	19840	162648	27362	1057326	46367	107802	0	0	8217	562656	0	0
2024-10-21 08:31:47			0	38114	0	0	0	21257	19830	162528	27126	1057299	46366	107799	0	0	8219	561769	0	0
2024-10-21 08:32:47			0	38099	0	0	0	21259	19830	162556	27175	1057246	46387	107800	0	0	8218	562368	0	0
2024-10-21 08:33:47			0	38100	0	0	0	21264	19820	162536	27544	1057254	46375	107802	0	0	8218	562359	0	0
2024-10-21 08:34:47			0	38106	0	0	0	21264	19830	162560	27294	1057299	46376	107802	0	0	8218	562088	0	0
2024-10-21 08:35:47			0	38093	0	0	0	21262	19830	162556	27164	1057281	46366	107801	0	0	8218	562608	0	0
2024-10-21 08:36:47			0	38136	0	0	0	21257	19820	162448	27476	1057237	46375	107799	0	0	8220	560923	0	0
2024-10-21 08:37:47			0	38100	0	0	0	21267	19830	162460	27249	1057299	46366	107803	0	0	8218	562328	0	0
2024-10-21 08:38:47			0	38123	0	0	0	21259	19820	162444	27424	1057237	46375	107800	0	0	8219	561441	0	0
2024-10-21 08:39:47			0	38110	0	0	0	21262	19830	162480	27175	1057299	46387	107801	0	0	8219	561929	0	0
2024-10-21 08:40:47			0	38117	0	0	0	21262	19830	162504	26909	1057299	46376	107801	0	0	8219	561649	0	0
2024-10-21 08:41:47			0	38112	0	0	0	21251	19830	162432	26994	1057246	46387	107797	0	0	8219	561849	0	0
2024-10-21 08:42:47			0	38123	0	0	0	21257	19820	162452	27124	1057290	46375	107799	0	0	8219	561441	0	0
2024-10-21 08:43:47			0	38100	0	0	0	21259	19840	162364	26996	1057290	46387	107800	0	0	8218	562297	0	0
2024-10-21 08:44:47			0	38126	0	0	0	21254	19820	162480	27100	1057254	46375	107798	0	0	8220	561321	0	0
2024-10-21 08:45:47			0	38134	0	0	0	21264	19830	162412	27370	1057272	46376	107802	0	0	8220	560972	0	0
2024-10-21 08:46:47			0	38137	0	0	0	21267	19830	162448	27237	1057299	46376	107803	0	0	8220	560852	0	0
2024-10-21 08:47:47			0	38139	0	0	0	21264	19820	162380	26998	1057254	46375	107802	0	0	8220	560803	0	0
2024-10-21 08:48:47			0	38115	0	0	0	21257	19830	162416	27398	1057308	46366	107799	0	0	8219	561729	0	0
2024-10-21 08:49:47			0	38138	0	0	0	21251	19830	162364	27206	1057255	46376	107797	0	0	8220	560812	0	0
2024-10-21 08:50:47			0	38125	0	0	0	21254	19820	162476	27149	1057237	46386	107798	0	0	8220	561361	0	0
2024-10-21 08:51:47			0	38139	0	0	0	21257	19830	162456	27352	1057308	46376	107799	0	0	8220	560772	0	0
2024-10-21 08:52:47			0	38121	0	0	0	21251	19830	162384	27109	1057255	46376	107797	0	0	8219	561490	0	0
2024-10-21 08:53:47			0	38131	0	0	0	21254	19820	162508	27343	1057281	46385	107798	0	0	8220	561122	0	0
2024-10-21 08:54:47			0	38141	0	0	0	21251	19830	162456	27190	1057281	46376	107797	0	0	8221	560692	0	0
2024-10-21 08:55:47			0	38132	0	0	0	21262	19820	162412	26941	1057290	46386	107801	0	0	8220	561082	0	0
2024-10-21 08:56:47			0	38164	0	0	0	21267	19830	162348	27105	1057272	46376	107803	0	0	8222	559776	0	0
2024-10-21 08:57:47			0	38180	0	0	0	21275	19830	162344	27412	1057334	46366	107806	0	0	8222	559139	0	0
2024-10-21 08:58:47			0	38190	0	0	0	21272	19840	162300	27133	1057299	46377	107805	0	0	8223	558711	0	0
2024-10-21 08:59:47			0	38188	0	0	0	21275	19840	162248	27041	1057317	46387	107806	0	0	8223	558790	0	0
2024-10-21 09:00:47			0	38179	0	0	0	21272	19840	162196	27154	1057317	46376	107805	0	0	8222	559148	0	0
2024-10-21 09:01:47			0	38188	0	0	0	21285	19840	162236	27218	1057370	46376	107810	0	0	8223	558790	0	0
2024-10-21 09:02:47			0	38185	0	0	0	21267	19830	162220	27154	1057334	46398	107803	0	0	8223	558940	0	0
2024-10-21 09:03:47			0	38208	0	0	0	21272	19830	162128	27180	1057361	46387	107805	0	0	8224	558026	0	0
2024-10-21 09:04:47			0	38204	0	0	0	21264	19850	162092	27230	1057335	46378	107802	0	0	8224	558124	0	0
2024-10-21 09:05:47			0	38203	0	0	0	21272	19840	162128	27196	1057290	46387	107805	0	0	8224	558194	0	0
2024-10-21 09:06:47			0	38190	0	0	0	21280	19840	162220	27204	1057379	46377	107808	0	0	8223	558711	0	0
2024-10-21 09:07:47			0	38203	0	0	0	21275	19850	162224	27331	1057362	46389	107806	0	0	8224	558163	0	0
2024-10-21 09:08:47			0	38206	0	0	0	21280	19850	162208	27242	1057335	46389	107808	0	0	8224	558044	0	0
2024-10-21 09:09:47			0	38184	0	0	0	21267	19840	162160	27286	1057343	46376	107803	0	0	8223	558950	0	0
2024-10-21 09:10:47			0	38202	0	0	0	21270	19850	162264	27294	1057415	46378	107804	0	0	8224	558203	0	0
2024-10-21 09:11:47			0	38201	0	0	0	21272	19840	162224	26984	1057379	46388	107805	0	0	8224	558274	0	0
2024-10-21 09:12:47			0	38206	0	0	0	21280	19840	162176	27223	1057370	46387	107808	0	0	8224	558075	0	0
2024-10-21 09:13:47			0	38211	0	0	0	21275	19850	162180	27338	1057362	46378	107806	0	0	8224	557846	0	0
2024-10-21 09:14:47			0	38206	0	0	0	21280	19850	162276	27164	1057388	46389	107808	0	0	8224	558044	0	0
2024-10-21 09:15:47			0	38208	0	0	0	21285	19850	162176	27246	1057397	46389	107810	0	0	8224	557965	0	0
2024-10-21 09:16:47			0	38218	0	0	0	21288	19840	162124	27253	1057290	46387	107811	0	0	8224	557598	0	0
2024-10-21 09:17:47			0	38238	0	0	0	21290	19850	162076	27391	1057362	46389	107812	0	0	8226	556774	0	0
2024-10-21 09:18:47			0	38244	0	0	0	21285	19850	162012	27128	1057370	46378	107810	0	0	8226	556535	0	0
2024-10-21 09:19:47			0	38253	0	0	0	21290	19850	162008	27114	1057397	46378	107812	0	0	8227	556179	0	0
2024-10-21 09:20:47			0	38258	0	0	0	21296	19850	161940	27059	1057397	46389	107814	0	0	8227	555980	0	0
2024-10-21 09:21:47			0	38269	0	0	0	21296	19840	161896	27248	1057432	46367	107814	0	0	8227	555575	0	0
2024-10-21 09:22:47			0	38261	0	0	0	21285	19860	161872	26991	1057362	46369	107810	0	0	8227	555831	0	0
2024-10-21 09:23:47			0	38272	0	0	0	21277	19850	161804	26960	1057397	46378	107807	0	0	8228	555425	0	0
2024-10-21 09:24:47			0	38264	0	0	0	21288	19860	161880	27345	1057459	46389	107811	0	0	8227	555712	0	0
2024-10-21 09:25:47			0	38265	0	0	0	21298	19860	161908	26807	1057406	46378	107815	0	0	8227	555672	0	0
2024-10-21 09:26:47			0	38288	0	0	0	21293	19860	161944	27034	1057433	46378	107813	0	0	8229	554761	0	0
2024-10-21 09:27:47			0	38282	0	0	0	21298	19860	161908	27246	1057433	46368	107815	0	0	8228	554999	0	0
2024-10-21 09:28:47			0	38284	0	0	0	21298	19860	161780	27138	1057442	46390	107815	0	0	8228	554920	0	0
2024-10-21 09:29:47			0	38289	0	0	0	21301	19850	161864	27137	1057450	46378	107816	0	0	8228	554752	0	0
2024-10-21 09:30:47			0	38290	0	0	0	21301	19860	161812	27116	1057495	46379	107816	0	0	8229	554682	0	0
2024-10-21 09:31:47			0	38306	0	0	0	21306	19870	161856	27235	1057424	46380	107818	0	0	8229	554018	0	0
2024-10-21 09:32:47			0	38286	0	0	0	21303	19860	161816	27279	1057468	46379	107817	0	0	8228	554840	0	0
2024-10-21 09:33:47			0	38288	0	0	0	21306	19860	161740	27447	1057521	46369	107818	0	0	8228	554761	0	0
2024-10-21 09:34:47			0	38295	0	0	0	21303	19870	161828	27241	1057504	46380	107817	0	0	8229	554454	0	0
2024-10-21 09:35:47			0	38307	0	0	0	21306	19870	161744	27197	1057397	46380	107818	0	0	8230	553979	0	0
2024-10-21 09:36:47			0	38330	0	0	0	21309	19870	161648	27230	1057477	46391	107819	0	0	8231	553069	0	0
2024-10-21 09:37:47			0	38329	0	0	0	21322	19870	161724	27000	1057539	46392	107824	0	0	8231	553109	0	0
2024-10-21 09:38:47			0	38333	0	0	0	21309	19870	161732	26828	1057486	46371	107819	0	0	8231	552951	0	0
2024-10-21 09:39:47			0	38326	0	0	0	21311	19870	161636	27481	1057539	46381	107820	0	0	8231	553227	0	0
2024-10-21 09:40:47			0	38326	0	0	0	21309	19880	161732	27360	1057548	46371	107819	0	0	8231	553197	0	0
2024-10-21 09:41:47			0	38315	0	0	0	21298	19880	161684	27142	1057548	46381	107815	0	0	8230	553632	0	0
2024-10-21 09:42:47			0	38322	0	0	0	21314	19870	161780	27431	1057504	46391	107821	0	0	8230	553386	0	0
2024-10-21 09:43:47			0	38307	0	0	0	21319	19880	161776	27124	1057468	46404	107823	0	0	8229	553948	0	0
2024-10-21 09:44:47			0	38312	0	0	0	21319	19870	161812	27090	1057592	46381	107823	0	0	8230	553781	0	0
2024-10-21 09:45:47			0	38316	0	0	0	21314	19870	161748	27388	1057486	46392	107821	0	0	8230	553623	0	0
2024-10-21 09:46:47			0	38334	0	0	0	21319	19880	161680	27171	1057495	46381	107823	0	0	8231	552881	0	0
2024-10-21 09:47:47			0	38348	0	0	0	21322	19880	161616	27083	1057522	46371	107824	0	0	8232	552328	0	0
2024-10-21 09:48:47			0	38354	0	0	0	21324	19880	161592	27248	1057584	46371	107825	0	0	8232	552091	0	0
2024-10-21 09:49:47			0	38348	0	0	0	21335	19880	161560	27431	1057557	46392	107829	0	0	8232	552328	0	0
2024-10-21 09:50:47			0	38381	0	0	0	21327	19870	161620	27164	1057566	46392	107826	0	0	8234	551057	0	0
2024-10-21 09:51:47			0	38378	0	0	0	21337	19880	161536	27253	1057601	46392	107830	0	0	8233	551145	0	0
2024-10-21 09:52:47			0	38373	0	0	0	21329	19880	161432	27369	1057610	46404	107827	0	0	8233	551342	0	0
2024-10-21 09:53:47			0	38389	0	0	0	21342	19880	161420	27072	1057663	46404	107832	0	0	8234	550711	0	0
2024-10-21 09:54:47			0	38401	0	0	0	21342	19890	161312	27170	1057646	46382	107832	0	0	8235	550208	0	0
2024-10-21 09:55:47			0	38395	0	0	0	21345	19900	161424	27336	1057584	46394	107833	0	0	8234	550414	0	0
2024-10-21 09:56:47			0	38420	0	0	0	21353	19890	161368	27213	1057655	46394	107836	0	0	8235	549460	0	0
2024-10-21 09:57:47			0	38421	0	0	0	21350	19890	161300	27222	1057619	46382	107835	0	0	8236	549420	0	0
2024-10-21 09:58:47			0	38423	0	0	0	21358	19900	161236	27253	1057673	46394	107838	0	0	8236	549311	0	0
2024-10-21 09:59:47			0	38421	0	0	0	21353	19900	161284	27400	1057673	46394	107836	0	0	8236	549390	0	0
2024-10-21 10:00:47			0	38431	0	0	0	21358	19890	161140	27152	1057681	46383	107838	0	0	8236	549027	0	0
2024-10-21 10:01:47			0	38453	0	0	0	21358	19910	161132	27306	1057735	46384	107838	0	0	8237	548102	0	0
2024-10-21 10:02:47			0	38458	0	0	0	21355	19910	161124	27255	1057717	46408	107837	0	0	8238	547905	0	0
2024-10-21 10:03:47			0	38445	0	0	0	21361	19920	161216	27396	1057726	46396	107839	0	0	8237	548386	0	0
2024-10-21 10:04:47			0	38462	0	0	0	21366	19910	161240	27322	1057744	46396	107841	0	0	8238	547748	0	0
2024-10-21 10:05:47			0	38457	0	0	0	21363	19910	161188	27490	1057744	46385	107840	0	0	8238	547944	0	0
2024-10-21 10:06:47			0	38477	0	0	0	21363	19910	161132	27336	1057717	46385	107840	0	0	8239	547159	0	0
2024-10-21 10:07:47			0	38446	0	0	0	21368	19920	161088	27601	1057735	46396	107842	0	0	8237	548346	0	0
2024-10-21 10:08:47			0	38469	0	0	0	21363	19910	161116	27312	1057708	46395	107840	0	0	8238	547473	0	0
2024-10-21 10:09:47			0	38466	0	0	0	21371	19930	161112	27490	1057780	46387	107843	0	0	8238	547531	0	0
2024-10-21 10:10:47			0	38451	0	0	0	21374	19920	161140	27246	1057762	46375	107844	0	0	8237	548150	0	0
2024-10-21 10:11:47			0	38455	0	0	0	21363	19930	161132	27419	1057824	46386	107840	0	0	8238	547963	0	0
2024-10-21 10:12:47			0	38454	0	0	0	21371	19930	161064	27386	1057824	46386	107843	0	0	8237	548002	0	0
2024-10-21 10:13:47			0	38453	0	0	0	21368	19920	161024	27498	1057735	46385	107842	0	0	8237	548071	0	0
2024-10-21 10:14:47			0	38446	0	0	0	21376	19930	161104	27142	1057824	46386	107845	0	0	8237	548316	0	0
2024-10-21 10:15:47			0	38450	0	0	0	21384	19930	161128	27448	1057771	46386	107848	0	0	8237	548159	0	0
2024-10-21 10:16:47			0	38436	0	0	0	21376	19940	161160	27256	1057842	46387	107845	0	0	8236	548679	0	0
2024-10-21 10:17:47			0	38463	0	0	0	21374	19930	161144	27393	1057806	46387	107844	0	0	8238	547648	0	0
2024-10-21 10:18:47			0	38465	0	0	0	21386	19940	161104	27367	1057771	46399	107849	0	0	8238	547540	0	0
2024-10-21 10:19:47			0	38468	0	0	0	21381	19940	161072	27291	1057815	46398	107847	0	0	8238	547422	0	0
2024-10-21 10:20:47			0	38455	0	0	0	21389	19930	161132	27362	1057806	46376	107850	0	0	8237	547963	0	0
2024-10-21 10:21:47			0	38461	0	0	0	21384	19940	161152	27658	1057842	46387	107848	0	0	8238	547697	0	0
2024-10-21 10:22:47			0	38453	0	0	0	21392	19940	161152	27433	1057895	46410	107851	0	0	8237	548011	0	0
2024-10-21 10:23:47			0	38455	0	0	0	21397	19940	161060	27478	1057851	46399	107853	0	0	8237	547932	0	0
2024-10-21 10:24:47			0	38475	0	0	0	21399	19940	161096	27156	1057877	46388	107854	0	0	8238	547147	0	0
2024-10-21 10:25:47			0	38485	0	0	0	21397	19950	160972	27289	1057895	46400	107853	0	0	8239	546725	0	0
2024-10-21 10:26:47			0	38487	0	0	0	21389	19950	161028	27416	1057833	46399	107850	0	0	8239	546646	0	0
2024-10-21 10:27:47			0	38481	0	0	0	21386	19950	161072	27435	1057966	46388	107849	0	0	8239	546882	0	0
2024-10-21 10:28:47			0	38474	0	0	0	21394	19950	161108	27362	1057922	46400	107852	0	0	8238	547156	0	0
2024-10-21 10:29:47			0	38502	0	0	0	21399	19970	160952	27272	1057913	46390	107854	0	0	8240	545998	0	0
2024-10-21 10:30:47			0	38494	0	0	0	21399	19950	161004	27436	1057975	46378	107854	0	0	8239	546372	0	0
2024-10-21 10:31:47			0	38498	0	0	0	21405	19950	160976	27478	1058002	46389	107856	0	0	8239	546215	0	0
2024-10-21 10:32:47			0	38501	0	0	0	21405	19960	160900	27298	1057984	46400	107856	0	0	8240	546067	0	0
2024-10-21 10:33:47			0	38486	0	0	0	21405	19950	161048	27303	1057939	46399	107856	0	0	8239	546685	0	0
2024-10-21 10:34:47			0	38479	0	0	0	21407	19970	160988	27623	1057922	46379	107857	0	0	8238	546900	0	0
2024-10-21 10:35:47			0	38478	0	0	0	21407	19950	161060	27436	1057948	46389	107857	0	0	8238	546999	0	0
2024-10-21 10:36:47			0	38487	0	0	0	21405	19960	160988	27549	1058064	46400	107856	0	0	8239	546616	0	0
2024-10-21 10:37:47			0	38475	0	0	0	21415	19950	161052	27568	1058002	46412	107860	0	0	8238	547117	0	0
2024-10-21 10:38:47			0	38463	0	0	0	21415	19980	161040	27362	1058038	46391	107860	0	0	8237	547497	0	0
2024-10-21 10:39:47			0	38485	0	0	0	21415	19970	160968	27590	1057949	46401	107860	0	0	8239	546664	0	0
2024-10-21 10:40:47			0	38495	0	0	0	21423	19970	160960	27493	1058029	46413	107863	0	0	8239	546272	0	0
2024-10-21 10:41:47			0	38499	0	0	0	21423	19990	160928	27197	1058056	46403	107863	0	0	8239	546055	0	0
2024-10-21 10:42:47			0	38493	0	0	0	21425	19980	160872	27346	1058100	46403	107864	0	0	8239	546320	0	0
2024-10-21 10:43:47			0	38499	0	0	0	21425	19980	160924	27237	1058100	46403	107864	0	0	8239	546085	0	0
2024-10-21 10:44:47			0	38503	0	0	0	21428	19980	160836	27419	1058126	46403	107865	0	0	8239	545929	0	0
2024-10-21 10:45:47			0	38508	0	0	0	21433	19970	160884	27486	1058055	46401	107867	0	0	8240	545763	0	0
2024-10-21 10:46:47			0	38521	0	0	0	21433	19980	160828	27462	1058100	46392	107867	0	0	8240	545223	0	0
2024-10-21 10:47:47			0	38531	0	0	0	21433	19990	160828	27421	1058135	46415	107867	0	0	8241	544802	0	0
2024-10-21 10:48:47			0	38544	0	0	0	21441	20000	160776	27360	1058153	46405	107870	0	0	8242	544263	0	0
2024-10-21 10:49:47			0	38531	0	0	0	21436	19990	160720	27348	1058224	46403	107868	0	0	8241	544802	0	0
2024-10-21 10:50:47			0	38530	0	0	0	21433	20000	160664	27379	1058127	46416	107867	0	0	8241	544811	0	0
2024-10-21 10:51:47			0	38522	0	0	0	21446	20000	160768	27190	1058180	46405	107872	0	0	8240	545124	0	0
2024-10-21 10:52:47			0	38530	0	0	0	21446	20000	160756	27215	1058153	46416	107872	0	0	8241	544811	0	0
2024-10-21 10:53:47			0	38544	0	0	0	21457	20000	160696	27345	1058189	46406	107876	0	0	8241	544263	0	0
2024-10-21 10:54:47			0	38532	0	0	0	21449	20010	160776	27668	1058145	46394	107873	0	0	8241	544703	0	0
2024-10-21 10:55:47			0	38535	0	0	0	21454	20010	160708	27308	1058171	46394	107875	0	0	8241	544585	0	0
2024-10-21 10:56:47			0	38540	0	0	0	21454	20000	160716	27386	1058109	46394	107875	0	0	8241	544420	0	0
2024-10-21 10:57:47			0	38527	0	0	0	21472	20010	160668	27516	1058198	46406	107882	0	0	8240	544898	0	0
2024-10-21 10:58:47			0	38540	0	0	0	21475	20010	160620	27481	1058260	46406	107883	0	0	8241	544389	0	0
2024-10-21 10:59:47			0	38559	0	0	0	21464	20010	160648	27495	1058180	46417	107879	0	0	8242	543647	0	0
2024-10-21 11:00:47			0	38557	0	0	0	21467	20020	160628	27614	1058305	46418	107880	0	0	8242	543695	0	0
2024-10-21 11:01:47			0	38544	0	0	0	21467	20020	160640	27625	1058278	46418	107880	0	0	8241	544203	0	0
2024-10-21 11:02:47			0	38559	0	0	0	21470	20020	160540	27557	1058349	46417	107881	0	0	8242	543617	0	0
2024-10-21 11:03:47			0	38558	0	0	0	21462	20030	160620	27293	1058376	46409	107878	0	0	8242	543626	0	0
2024-10-21 11:04:47			0	38543	0	0	0	21467	20030	160616	27556	1058313	46385	107880	0	0	8241	544212	0	0
2024-10-21 11:05:47			0	38548	0	0	0	21467	20020	160612	27701	1058358	46418	107880	0	0	8242	544047	0	0
2024-10-21 11:06:47			0	38572	0	0	0	21464	20020	160548	27431	1058331	46407	107879	0	0	8243	543109	0	0
2024-10-21 11:07:47			0	38586	0	0	0	21477	20030	160560	27692	1058340	46407	107884	0	0	8244	542532	0	0
2024-10-21 11:08:47			0	38589	0	0	0	21475	20030	160528	27784	1058287	46407	107883	0	0	8244	542415	0	0
2024-10-21 11:09:47			0	38596	0	0	0	21477	20030	160492	27569	1058349	46397	107884	0	0	8244	542142	0	0
2024-10-21 11:10:47			0	38585	0	0	0	21485	20030	160592	27367	1058313	46407	107887	0	0	8243	542571	0	0
2024-10-21 11:11:47			0	38593	0	0	0	21483	20030	160488	27362	1058402	46409	107886	0	0	8244	542259	0	0
2024-10-21 11:12:47			0	38578	0	0	0	21485	20040	160524	27505	1058367	46398	107887	0	0	8243	542814	0	0
2024-10-21 11:13:47			0	38600	0	0	0	21480	20040	160424	27680	1058358	46409	107885	0	0	8244	541956	0	0
2024-10-21 11:14:47			0	38598	0	0	0	21480	20040	160416	27511	1058411	46419	107885	0	0	8244	542034	0	0
2024-10-21 11:15:47			0	38609	0	0	0	21488	20040	160420	27166	1058385	46397	107888	0	0	8245	541605	0	0
2024-10-21 11:16:47			0	38605	0	0	0	21490	20040	160504	27185	1058394	46410	107889	0	0	8245	541761	0	0
2024-10-21 11:17:47			0	38624	0	0	0	21490	20050	160380	27396	1058429	46410	107889	0	0	8246	540990	0	0
2024-10-21 11:18:47			0	38619	0	0	0	21493	20050	160296	27498	1058411	46411	107890	0	0	8245	541185	0	0
2024-10-21 11:19:47			0	38597	0	0	0	21490	20040	160480	27705	1058447	46410	107889	0	0	8244	542073	0	0
2024-10-21 11:20:47			0	38621	0	0	0	21490	20050	160324	27435	1058456	46410	107889	0	0	8246	541107	0	0
2024-10-21 11:21:47			0	38632	0	0	0	21490	20050	160372	27538	1058491	46411	107889	0	0	8246	540678	0	0
2024-10-21 11:22:47			0	38618	0	0	0	21485	20050	160296	27847	1058465	46388	107887	0	0	8246	541224	0	0
2024-10-21 11:23:47			0	38616	0	0	0	21493	20050	160296	27393	1058465	46399	107890	0	0	8245	541302	0	0
2024-10-21 11:24:47			0	38619	0	0	0	21501	20050	160356	27412	1058456	46398	107893	0	0	8245	541185	0	0
2024-10-21 11:25:47			0	38633	0	0	0	21506	20050	160264	27729	1058402	46398	107895	0	0	8246	540639	0	0
2024-10-21 11:26:47			0	38630	0	0	0	21503	20060	160240	27376	1058456	46400	107894	0	0	8246	540726	0	0
2024-10-21 11:27:47			0	38645	0	0	0	21503	20060	160236	27270	1058420	46399	107894	0	0	8247	540142	0	0
2024-10-21 11:28:47			0	38655	0	0	0	21498	20070	160244	27642	1058518	46413	107892	0	0	8248	539723	0	0
2024-10-21 11:29:47			0	38652	0	0	0	21503	20060	160128	27334	1058500	46399	107894	0	0	8247	539870	0	0
2024-10-21 11:30:47			0	38666	0	0	0	21503	20070	160128	27256	1058500	46390	107894	0	0	8248	539295	0	0
2024-10-21 11:31:47			0	38649	0	0	0	21506	20060	160172	27649	1058527	46411	107895	0	0	8247	539987	0	0
2024-10-21 11:32:47			0	38668	0	0	0	21498	20070	160088	27479	1058492	46413	107892	0	0	8248	539218	0	0
2024-10-21 11:33:47			0	38666	0	0	0	21514	20060	160176	27403	1058509	46422	107898	0	0	8248	539325	0	0
2024-10-21 11:34:47			0	38676	0	0	0	21514	20060	160112	27348	1058420	46399	107898	0	0	8248	538936	0	0
2024-10-21 11:35:47			0	38680	0	0	0	21516	20060	160200	27431	1058483	46400	107899	0	0	8249	538781	0	0
2024-10-21 11:36:47			0	38660	0	0	0	21519	20070	160116	27455	1058474	46423	107900	0	0	8247	539529	0	0
2024-10-21 11:37:47			0	38640	0	0	0	21516	20070	160172	27640	1058571	46423	107899	0	0	8246	540307	0	0
2024-10-21 11:38:47			0	38657	0	0	0	21519	20070	160080	27415	1058554	46423	107900	0	0	8247	539645	0	0
2024-10-21 11:39:47			0	38681	0	0	0	21514	20080	159996	27696	1058563	46402	107898	0	0	8249	538682	0	0
2024-10-21 11:40:47			0	38676	0	0	0	21509	20080	160020	27868	1058642	46414	107896	0	0	8249	538877	0	0
2024-10-21 11:41:47			0	38706	0	0	0	21503	20080	159900	27684	1058572	46414	107894	0	0	8250	537711	0	0
2024-10-21 11:42:47			0	38700	0	0	0	21516	20080	159928	27554	1058625	46402	107899	0	0	8250	537944	0	0
2024-10-21 11:43:47			0	38697	0	0	0	21537	20080	159936	27656	1058625	46424	107907	0	0	8249	538061	0	0
2024-10-21 11:44:47			0	38717	0	0	0	21524	20080	159912	27642	1058616	46402	107902	0	0	8251	537285	0	0
2024-10-21 11:45:47			0	38694	0	0	0	21537	20080	159876	27564	1058642	46414	107907	0	0	8249	538177	0	0
2024-10-21 11:46:47			0	38713	0	0	0	21542	20090	159952	27450	1058634	46425	107909	0	0	8250	537410	0	0
2024-10-21 11:47:47			0	38722	0	0	0	21555	20080	159972	27376	1058616	46414	107914	0	0	8251	537090	0	0
2024-10-21 11:48:47			0	38707	0	0	0	21555	20090	159816	27507	1058696	46415	107914	0	0	8250	537643	0	0
2024-10-21 11:49:47			0	38718	0	0	0	21519	20100	159840	27315	1058705	46426	107900	0	0	8251	537186	0	0
2024-10-21 11:50:47			0	38713	0	0	0	21529	20090	159880	27805	1058616	46425	107904	0	0	8250	537410	0	0
2024-10-21 11:51:47			0	38710	0	0	0	21519	20100	159852	27397	1058679	46416	107900	0	0	8251	537497	0	0
2024-10-21 11:52:47			0	38707	0	0	0	21511	20100	159888	27518	1058608	46416	107897	0	0	8250	537613	0	0
2024-10-21 11:53:47			0	38723	0	0	0	21516	20090	159865	27498	1058607	46415	107899	0	0	8251	537022	0	0
2024-10-21 11:54:47			0	38731	0	0	0	21516	20100	159789	27592	1058625	46404	107899	0	0	8252	536682	0	0
2024-10-21 11:55:47			0	38755	0	0	0	21511	20100	159697	27705	1058688	46404	107897	0	0	8253	535752	0	0
2024-10-21 11:56:47			0	38750	0	0	0	21519	20080	159661	27894	1058598	46414	107900	0	0	8253	536005	0	0
2024-10-21 11:57:47			0	38759	0	0	0	21519	20090	159605	27710	1058643	46415	107900	0	0	8253	535627	0	0
2024-10-21 11:58:47			0	38785	0	0	0	21532	20090	159597	27511	1058607	46392	107905	0	0	8255	534620	0	0
2024-10-21 11:59:47			0	38780	0	0	0	21540	20100	159569	27414	1058705	46404	107908	0	0	8254	534784	0	0
2024-10-21 12:00:47			0	38804	0	0	0	21529	20100	159517	27729	1058679	46404	107904	0	0	8256	533856	0	0
2024-10-21 12:01:47			0	38820	0	0	0	21532	20100	159445	27512	1058705	46426	107905	0	0	8257	533238	0	0
2024-10-21 12:02:47			0	38787	0	0	0	21537	20100	159489	27542	1058688	46416	107907	0	0	8255	534513	0	0
2024-10-21 12:03:47			0	38805	0	0	0	21535	20100	159561	27410	1058652	46416	107906	0	0	8256	533817	0	0
2024-10-21 12:04:47			0	38820	0	0	0	21522	20110	159485	27315	1058670	46416	107901	0	0	8257	533208	0	0
2024-10-21 12:05:47			0	38818	0	0	0	21532	20110	159441	27230	1058705	46406	107905	0	0	8257	533286	0	0
2024-10-21 12:06:47			0	38837	0	0	0	21524	20100	159337	27261	1058767	46416	107902	0	0	8258	532581	0	0
2024-10-21 12:07:47			0	38822	0	0	0	21514	20100	159453	27403	1058688	46404	107898	0	0	8257	533161	0	0
2024-10-21 12:08:47			0	38823	0	0	0	21514	20100	159409	27495	1058652	46416	107898	0	0	8257	533122	0	0
2024-10-21 12:09:47			0	38820	0	0	0	21522	20100	159409	27511	1058652	46416	107901	0	0	8257	533238	0	0
2024-10-21 12:10:47			0	38842	0	0	0	21516	20100	159381	27294	1058705	46416	107899	0	0	8258	532388	0	0
2024-10-21 12:11:47			0	38839	0	0	0	21529	20110	159333	27412	1058723	46416	107904	0	0	8258	532475	0	0
2024-10-21 12:12:47			0	38846	0	0	0	21532	20110	159321	27112	1058670	46416	107905	0	0	8258	532205	0	0
2024-10-21 12:13:47			0	38878	0	0	0	21542	20100	159285	27310	1058661	46416	107909	0	0	8260	531000	0	0
2024-10-21 12:14:47			0	38860	0	0	0	21532	20110	159309	27374	1058670	46416	107905	0	0	8259	531665	0	0
2024-10-21 12:15:47			0	38865	0	0	0	21535	20100	159297	27483	1058732	46416	107906	0	0	8259	531501	0	0
2024-10-21 12:16:47			0	38885	0	0	0	21524	20090	159261	27628	1058643	46403	107902	0	0	8261	530760	0	0
2024-10-21 12:17:47			0	38864	0	0	0	21527	20100	159129	27203	1058741	46416	107903	0	0	8259	531540	0	0
2024-10-21 12:18:47			0	38877	0	0	0	21529	20100	159229	27222	1058688	46404	107904	0	0	8260	531039	0	0
2024-10-21 12:19:47			0	38876	0	0	0	21542	20100	159157	27152	1058661	46426	107909	0	0	8260	531077	0	0
2024-10-21 12:20:47			0	38878	0	0	0	21540	20100	159241	27279	1058714	46426	107908	0	0	8260	531000	0	0
2024-10-21 12:21:47			0	38865	0	0	0	21542	20100	159405	27422	1058688	46426	107909	0	0	8259	531501	0	0
2024-10-21 12:22:47			0	38876	0	0	0	21548	20110	159245	27519	1058776	46427	107911	0	0	8260	531048	0	0
2024-10-21 12:23:47			0	38882	0	0	0	21532	20110	159125	27362	1058759	46438	107905	0	0	8260	530817	0	0
2024-10-21 12:24:47			0	38887	0	0	0	21529	20110	159109	27533	1058776	46416	107904	0	0	8261	530624	0	0
2024-10-21 12:25:47			0	38898	0	0	0	21529	20110	159233	27398	1058732	46416	107904	0	0	8261	530201	0	0
2024-10-21 12:26:47			0	38909	0	0	0	21540	20100	158989	27533	1058714	46393	107908	0	0	8262	529807	0	0
2024-10-21 12:27:47			0	38902	0	0	0	21524	20110	159029	27421	1058750	46427	107902	0	0	8262	530047	0	0
2024-10-21 12:28:47			0	38904	0	0	0	21527	20100	159073	27564	1058741	46404	107903	0	0	8262	529999	0	0
2024-10-21 12:29:47			0	38890	0	0	0	21532	20120	159101	27175	1058741	46417	107905	0	0	8261	530480	0	0
2024-10-21 12:30:47			0	38911	0	0	0	21529	20120	158909	27637	1058768	46406	107904	0	0	8262	529671	0	0
2024-10-21 12:31:47			0	38927	0	0	0	21527	20110	159057	27258	1058750	46416	107903	0	0	8263	529085	0	0
2024-10-21 12:32:47			0	38909	0	0	0	21529	20090	158961	27416	1058723	46415	107904	0	0	8262	529836	0	0
2024-10-21 12:33:47			0	38909	0	0	0	21537	20110	159085	27512	1058732	46416	107907	0	0	8262	529777	0	0
2024-10-21 12:34:47			0	38918	0	0	0	21535	20110	159025	27396	1058759	46394	107906	0	0	8262	529431	0	0
2024-10-21 12:35:47			0	38925	0	0	0	21537	20110	159025	27384	1058705	46427	107907	0	0	8263	529162	0	0
2024-10-21 12:36:47			0	38930	0	0	0	21545	20110	158997	27576	1058723	46416	107910	0	0	8263	528970	0	0
2024-10-21 12:37:47			0	38961	0	0	0	21542	20110	158941	27436	1058750	46427	107909	0	0	8265	527779	0	0
2024-10-21 12:38:47			0	38950	0	0	0	21545	20110	158773	27455	1058759	46427	107910	0	0	8264	528201	0	0
2024-10-21 12:39:47			0	38952	0	0	0	21566	20110	158825	27464	1058803	46427	107918	0	0	8264	528124	0	0
2024-10-21 12:40:47			0	38969	0	0	0	21553	20110	158737	27203	1058776	46438	107913	0	0	8265	527472	0	0
2024-10-21 12:41:47			0	38977	0	0	0	21553	20120	158749	27140	1058794	46428	107913	0	0	8266	527136	0	0
2024-10-21 12:42:47			0	38974	0	0	0	21563	20120	158721	27190	1058830	46429	107917	0	0	8265	527251	0	0
2024-10-21 12:43:47			0	38999	0	0	0	21568	20130	158697	27602	1058865	46407	107919	0	0	8267	526263	0	0
2024-10-21 12:44:47			0	39015	0	0	0	21594	20130	158625	27216	1058865	46440	107929	0	0	8267	525650	0	0
2024-10-21 12:45:47			0	39033	0	0	0	21571	20140	158529	27573	1058910	46430	107920	0	0	8269	524932	0	0
2024-10-21 12:46:47			0	39000	0	0	0	21548	20130	158621	27585	1058865	46440	107911	0	0	8267	526225	0	0
2024-10-21 12:47:47			0	39010	0	0	0	21545	20130	158621	27557	1058812	46418	107910	0	0	8268	525842	0	0
2024-10-21 12:48:47			0	38988	0	0	0	21545	20150	158713	27317	1058875	46420	107910	0	0	8266	526627	0	0
2024-10-21 12:49:47			0	38986	0	0	0	21540	20130	158697	27308	1058786	46407	107908	0	0	8266	526762	0	0
2024-10-21 12:50:47			0	38988	0	0	0	21540	20130	158685	27391	1058759	46418	107908	0	0	8266	526685	0	0
2024-10-21 12:51:47			0	38975	0	0	0	21550	20130	158657	27331	1058812	46396	107912	0	0	8266	527184	0	0
2024-10-21 12:52:47			0	38977	0	0	0	21535	20120	158657	27338	1058777	46418	107906	0	0	8266	527136	0	0
2024-10-21 12:53:47			0	38979	0	0	0	21545	20120	158721	27611	1058741	46417	107910	0	0	8266	527059	0	0
2024-10-21 12:54:47			0	38985	0	0	0	21550	20130	158689	27540	1058759	46418	107912	0	0	8266	526800	0	0
2024-10-21 12:55:47			0	38991	0	0	0	21553	20120	158605	27524	1058750	46418	107913	0	0	8266	526599	0	0
2024-10-21 12:56:47			0	39000	0	0	0	21542	20120	158545	27519	1058803	46418	107909	0	0	8267	526254	0	0
2024-10-21 12:57:47			0	39021	0	0	0	21555	20130	158465	27398	1058839	46429	107914	0	0	8268	525421	0	0
2024-10-21 12:58:47			0	39037	0	0	0	21563	20120	158481	27725	1058777	46407	107917	0	0	8269	524837	0	0
2024-10-21 12:59:47			0	39033	0	0	0	21579	20130	158457	27628	1058848	46418	107923	0	0	8268	524961	0	0
2024-10-21 13:00:47			0	39056	0	0	0	21579	20120	158433	27407	1058883	46418	107923	0	0	8270	524110	0	0
2024-10-21 13:01:47			0	39073	0	0	0	21579	20120	158437	27071	1058910	46429	107923	0	0	8271	523461	0	0
2024-10-21 13:02:47			0	39071	0	0	0	21589	20130	158301	27326	1058901	46418	107927	0	0	8270	523508	0	0
2024-10-21 13:03:47			0	39083	0	0	0	21579	20130	158369	27305	1058839	46429	107923	0	0	8271	523050	0	0
2024-10-21 13:04:47			0	39077	0	0	0	21571	20140	158341	27488	1058945	46420	107920	0	0	8271	523250	0	0
2024-10-21 13:05:47			0	39072	0	0	0	21576	20140	158461	27750	1058910	46408	107922	0	0	8271	523441	0	0
2024-10-21 13:06:47			0	39107	0	0	0	21594	20140	158241	27516	1058910	46408	107929	0	0	8272	522105	0	0
2024-10-21 13:07:47			0	39110	0	0	0	21602	20150	158177	27327	1058981	46410	107932	0	0	8273	521962	0	0
2024-10-21 13:08:47			0	39128	0	0	0	21610	20140	158129	27628	1059016	46419	107935	0	0	8273	521305	0	0
2024-10-21 13:09:47			0	39140	0	0	0	21599	20160	158089	27367	1059026	46432	107931	0	0	8274	520790	0	0
2024-10-21 13:10:47			0	39149	0	0	0	21584	20160	158105	27663	1058999	46421	107925	0	0	8275	520447	0	0
2024-10-21 13:11:47			0	39113	0	0	0	21584	20160	158093	27689	1058972	46443	107925	0	0	8273	521819	0	0
2024-10-21 13:12:47			0	39154	0	0	0	21584	20160	158197	27632	1058928	46412	107925	0	0	8275	520257	0	0
2024-10-21 13:13:47			0	39150	0	0	0	21599	20160	158037	27928	1059061	46433	107931	0	0	8275	520409	0	0
2024-10-21 13:14:47			0	39130	0	0	0	21610	20160	158185	27644	1058928	46412	107935	0	0	8274	521171	0	0
2024-10-21 13:15:47			0	39156	0	0	0	21599	20170	158141	27357	1059017	46422	107931	0	0	8275	520152	0	0
2024-10-21 13:16:47			0	39126	0	0	0	21599	20170	158261	27493	1058973	46434	107931	0	0	8274	521295	0	0
2024-10-21 13:17:47			0	39126	0	0	0	21592	20170	158209	27403	1059043	46422	107928	0	0	8274	521295	0	0
2024-10-21 13:18:47			0	39148	0	0	0	21602	20170	158221	27163	1059052	46423	107932	0	0	8275	520457	0	0
2024-10-21 13:19:47			0	39156	0	0	0	21633	20160	158049	27303	1059088	46433	107944	0	0	8275	520181	0	0
2024-10-21 13:20:47			0	39183	0	0	0	21605	20180	157953	27547	1059061	46423	107933	0	0	8277	519097	0	0
2024-10-21 13:21:47			0	39166	0	0	0	21605	20180	158025	27377	1059088	46423	107933	0	0	8276	519743	0	0
2024-10-21 13:22:47			0	39187	0	0	0	21620	20170	158013	27748	1059097	46433	107939	0	0	8277	518973	0	0
2024-10-21 13:23:47			0	39204	0	0	0	21654	20190	157821	27409	1059133	46447	107952	0	0	8277	518270	0	0
2024-10-21 13:24:47			0	39235	0	0	0	21636	20180	157817	27140	1059203	46446	107945	0	0	8279	517122	0	0
2024-10-21 13:25:47			0	39238	0	0	0	21657	20200	157637	27293	1059230	46436	107953	0	0	8279	516951	0	0
2024-10-21 13:26:47			0	39266	0	0	0	21662	20200	157605	27268	1059239	46437	107955	0	0	8281	515890	0	0
2024-10-21 13:27:47			0	39266	0	0	0	21654	20210	157649	27689	1059257	46427	107952	0	0	8281	515862	0	0
2024-10-21 13:28:47			0	39297	0	0	0	21667	20220	157485	27630	1059240	46438	107957	0	0	8283	514660	0	0
2024-10-21 13:29:47			0	39307	0	0	0	21649	20220	157457	27495	1059329	46439	107950	0	0	8284	514282	0	0
2024-10-21 13:30:47			0	39286	0	0	0	21651	20220	157421	27358	1059346	46438	107951	0	0	8282	515076	0	0
2024-10-21 13:31:47			0	39308	0	0	0	21685	20210	157401	27516	1059284	46416	107964	0	0	8283	514273	0	0
2024-10-21 13:32:47			0	39376	0	0	0	21722	20230	157213	27434	1059373	46440	107978	0	0	8286	511650	0	0
2024-10-21 13:33:47			0	39400	0	0	0	21698	20230	157101	27150	1059417	46451	107969	0	0	8288	510745	0	0
2024-10-21 13:34:47			0	39433	0	0	0	21719	20240	156922	27312	1059435	46440	107977	0	0	8290	509476	0	0
2024-10-21 13:35:47			0	39442	0	0	0	21711	20260	156906	27490	1059462	46454	107974	0	0	8290	509081	0	0
2024-10-21 13:36:47			0	39429	0	0	0	21693	20260	156914	27474	1059471	46443	107967	0	0	8290	509570	0	0
2024-10-21 13:37:47			0	39432	0	0	0	21677	20260	156986	27447	1059471	46421	107961	0	0	8290	509457	0	0
2024-10-21 13:38:47			0	39402	0	0	0	21701	20260	156981	27717	1059498	46443	107970	0	0	8288	510586	0	0
2024-10-21 13:39:47			0	39411	0	0	0	21680	20260	156985	27516	1059569	46432	107962	0	0	8289	510247	0	0
2024-10-21 13:40:47			0	39391	0	0	0	21690	20260	157049	27614	1059471	46443	107966	0	0	8288	511000	0	0
2024-10-21 13:41:47			0	39388	0	0	0	21714	20270	157041	27352	1059533	46432	107975	0	0	8287	511084	0	0
2024-10-21 13:42:47			0	39425	0	0	0	21732	20270	156878	27678	1059596	46433	107982	0	0	8289	509692	0	0
2024-10-21 13:43:47			0	39434	0	0	0	21753	20280	156982	27490	1059578	46445	107990	0	0	8289	509326	0	0
2024-10-21 13:44:47			0	39460	0	0	0	21753	20280	156922	27585	1059667	46445	107990	0	0	8291	508349	0	0
2024-10-21 13:45:47			0	39430	0	0	0	21761	20290	157026	27606	1059622	46445	107993	0	0	8289	509448	0	0
2024-10-21 13:46:47			0	39460	0	0	0	21776	20290	156946	27710	1059685	46457	107999	0	0	8291	508321	0	0
2024-10-21 13:47:47			0	39480	0	0	0	21797	20290	156782	27315	1059764	46446	108007	0	0	8291	507570	0	0
2024-10-21 13:48:47			0	39493	0	0	0	21784	20300	156746	27202	1059756	46447	108002	0	0	8292	507055	0	0
2024-10-21 13:49:47			0	39468	0	0	0	21812	20320	156782	27509	1059836	46449	108013	0	0	8291	507937	0	0
2024-10-21 13:50:47			0	39495	0	0	0	21820	20320	156926	27514	1059889	46449	108016	0	0	8292	506924	0	0
2024-10-21 13:51:47			0	39474	0	0	0	21831	20320	156938	27159	1059898	46460	108020	0	0	8291	507711	0	0
2024-10-21 13:52:47			0	39473	0	0	0	21833	20330	156818	27464	1059916	46460	108021	0	0	8290	507721	0	0
2024-10-21 13:53:47			0	39476	0	0	0	21838	20340	156718	27156	1060005	46451	108023	0	0	8291	507580	0	0
2024-10-21 13:54:47			0	39488	0	0	0	21849	20350	156762	27547	1060005	46462	108027	0	0	8291	507102	0	0
2024-10-21 13:55:47			0	39502	0	0	0	21836	20370	156762	27116	1060068	46443	108022	0	0	8292	506522	0	0
2024-10-21 13:56:47			0	39528	0	0	0	21841	20350	156530	27339	1060005	46441	108024	0	0	8294	505604	0	0
2024-10-21 13:57:47			0	39580	0	0	0	21851	20370	156434	27324	1060041	46454	108028	0	0	8297	503605	0	0
2024-10-21 13:58:47			0	39594	0	0	0	21831	20380	156354	27322	1060139	46456	108020	0	0	8298	503054	0	0
2024-10-21 13:59:47			0	39580	0	0	0	21849	20380	156418	27417	1060104	46455	108027	0	0	8297	503577	0	0
2024-10-21 14:00:47			0	39548	0	0	0	21833	20390	156486	27196	1060148	46467	108021	0	0	8295	504745	0	0
2024-10-21 14:01:47			0	39525	0	0	0	21846	20380	156670	27206	1060086	46445	108026	0	0	8293	505633	0	0
2024-10-21 14:02:47			0	39507	0	0	0	21859	20400	156598	27353	1060139	46457	108031	0	0	8292	506251	0	0
2024-10-21 14:03:47			0	39475	0	0	0	21867	20390	156778	27473	1060104	46457	108034	0	0	8290	507478	0	0
2024-10-21 14:04:47			0	39474	0	0	0	21859	20390	156702	27585	1060157	46446	108031	0	0	8290	507515	0	0
2024-10-21 14:05:47			0	39510	0	0	0	21864	20400	156638	27618	1060202	46458	108033	0	0	8292	506138	0	0
2024-10-21 14:06:47			0	39523	0	0	0	21859	20400	156654	27424	1060202	46447	108031	0	0	8293	505652	0	0
2024-10-21 14:07:47			0	39491	0	0	0	21880	20410	156694	27547	1060220	46458	108039	0	0	8291	506822	0	0
2024-10-21 14:08:47			0	39462	0	0	0	21880	20420	156878	27281	1060202	46458	108039	0	0	8289	507881	0	0
2024-10-21 14:09:47			0	39466	0	0	0	21896	20410	156838	27623	1060246	46448	108045	0	0	8289	507759	0	0
2024-10-21 14:10:47			0	39435	0	0	0	21896	20420	156974	27466	1060282	46458	108045	0	0	8288	508894	0	0
2024-10-21 14:11:47			0	39451	0	0	0	21898	20420	156902	27493	1060318	46459	108046	0	0	8288	508294	0	0
2024-10-21 14:12:47			0	39448	0	0	0	21880	20430	156850	27611	1060300	46460	108039	0	0	8289	508378	0	0
2024-10-21 14:13:47			0	39432	0	0	0	21877	20420	156874	27377	1060291	46438	108038	0	0	8288	509007	0	0
2024-10-21 14:14:47			0	39464	0	0	0	21896	20430	156666	27358	1060353	46450	108045	0	0	8289	507778	0	0
2024-10-21 14:15:47			0	39463	0	0	0	21901	20430	156794	27414	1060300	46460	108047	0	0	8289	507815	0	0
2024-10-21 14:16:47			0	39468	0	0	0	21903	20440	156762	27711	1060371	46450	108048	0	0	8289	507600	0	0
2024-10-21 14:17:47			0	39444	0	0	0	21901	20440	156854	27575	1060398	46450	108047	0	0	8288	508500	0	0
2024-10-21 14:18:47			0	39448	0	0	0	21909	20450	156786	27523	1060389	46462	108050	0	0	8288	508322	0	0
2024-10-21 14:19:47			0	39462	0	0	0	21911	20450	156654	27428	1060389	46474	108051	0	0	8289	507797	0	0
2024-10-21 14:20:47			0	39476	0	0	0	21927	20460	156670	27523	1060514	46463	108057	0	0	8290	507244	0	0
2024-10-21 14:21:47			0	39469	0	0	0	21919	20460	156738	27324	1060434	46453	108054	0	0	8289	507506	0	0
2024-10-21 14:22:47			0	39459	0	0	0	21914	20460	156706	27322	1060460	46475	108052	0	0	8289	507881	0	0
2024-10-21 14:23:47			0	39468	0	0	0	21932	20460	156734	27452	1060460	46453	108059	0	0	8289	507544	0	0
2024-10-21 14:24:47			0	39477	0	0	0	21927	20460	156746	27417	1060523	46453	108057	0	0	8290	507206	0	0
2024-10-21 14:25:47			0	39459	0	0	0	21932	20480	156726	27753	1060559	46466	108059	0	0	8289	507825	0	0
2024-10-21 14:26:47			0	39475	0	0	0	21929	20480	156610	27599	1060523	46466	108058	0	0	8290	507225	0	0
2024-10-21 14:27:47			0	39498	0	0	0	21932	20490	156594	27138	1060541	46445	108059	0	0	8291	506336	0	0
2024-10-21 14:28:47			0	39483	0	0	0	21955	20480	156578	27526	1060585	46466	108068	0	0	8290	506925	0	0
2024-10-21 14:29:47			0	39485	0	0	0	21940	20480	156598	27473	1060585	46466	108062	0	0	8290	506851	0	0
2024-10-21 14:30:47			0	39504	0	0	0	21937	20490	156514	27350	1060630	46467	108061	0	0	8291	506111	0	0
2024-10-21 14:31:47			0	39509	0	0	0	21940	20490	156634	27317	1060603	46467	108062	0	0	8291	505924	0	0
2024-10-21 14:32:47			0	39505	0	0	0	21961	20500	156494	27464	1060692	46467	108070	0	0	8291	506046	0	0
2024-10-21 14:33:47			0	39494	0	0	0	21968	20500	156526	27358	1060648	46467	108073	0	0	8290	506457	0	0
2024-10-21 14:34:47			0	39495	0	0	0	21984	20500	156522	27607	1060701	46479	108079	0	0	8290	506420	0	0
2024-10-21 14:35:47			0	39512	0	0	0	21986	20510	156526	27433	1060684	46468	108080	0	0	8291	505756	0	0
2024-10-21 14:36:47			0	39517	0	0	0	21968	20520	156514	27324	1060737	46482	108073	0	0	8292	505541	0	0
2024-10-21 14:37:47			0	39520	0	0	0	21973	20520	156450	27661	1060755	46470	108075	0	0	8292	505429	0	0
2024-10-21 14:38:47			0	39503	0	0	0	21986	20520	156562	27298	1060728	46470	108080	0	0	8290	506065	0	0
2024-10-21 14:39:47			0	39453	0	0	0	21997	20530	156682	27350	1060746	46471	108084	0	0	8287	507910	0	0
2024-10-21 14:40:47			0	39454	0	0	0	21997	20530	156774	27360	1060799	46471	108084	0	0	8287	507872	0	0
2024-10-21 14:41:47			0	39453	0	0	0	21994	20530	156654	27194	1060773	46471	108083	0	0	8287	507910	0	0
2024-10-21 14:42:47			0	39436	0	0	0	21997	20520	156770	27206	1060817	46459	108084	0	0	8286	508576	0	0
2024-10-21 14:43:47			0	39466	0	0	0	21997	20550	156642	27274	1060853	46473	108084	0	0	8288	507366	0	0
2024-10-21 14:44:47			0	39479	0	0	0	22005	20530	156554	27450	1060782	46472	108087	0	0	8289	506935	0	0
2024-10-21 14:45:47			0	39524	0	0	0	22012	20540	156550	27145	1060817	46484	108090	0	0	8291	505223	0	0
2024-10-21 14:46:47			0	39536	0	0	0	22005	20540	156382	27293	1060870	46473	108087	0	0	8292	504775	0	0
2024-10-21 14:47:47			0	39573	0	0	0	22012	20550	156314	27549	1060809	46473	108090	0	0	8294	503365	0	0
2024-10-21 14:48:47			0	39516	0	0	0	22018	20550	156418	27516	1060853	46451	108092	0	0	8291	505494	0	0
2024-10-21 14:49:47			0	39457	0	0	0	22010	20560	156770	27587	1060871	46474	108089	0	0	8288	507675	0	0
2024-10-21 14:50:47			0	39406	0	0	0	22018	20570	156761	27488	1060969	46486	108092	0	0	8285	509561	0	0
2024-10-21 14:51:47			0	39468	0	0	0	22025	20570	156666	27294	1060898	46475	108095	0	0	8288	507235	0	0
2024-10-21 14:52:47			0	39444	0	0	0	22018	20570	156822	27291	1060915	46486	108092	0	0	8287	508135	0	0
2024-10-21 14:53:47			0	39421	0	0	0	22012	20570	156738	27741	1060942	46463	108090	0	0	8285	508998	0	0
2024-10-21 14:54:47			0	39394	0	0	0	22023	20580	156809	27526	1061013	46464	108094	0	0	8284	509984	0	0
2024-10-21 14:55:47			0	39402	0	0	0	22015	20580	156945	27480	1060960	46476	108091	0	0	8284	509683	0	0
2024-10-21 14:56:47			0	39340	0	0	0	22020	20580	157113	27301	1060960	46464	108093	0	0	8281	512016	0	0
2024-10-21 14:57:47			0	39317	0	0	0	22020	20570	157165	27592	1060995	46486	108093	0	0	8279	512911	0	0
2024-10-21 14:58:47			0	39283	0	0	0	22028	20580	157337	27215	1060960	46464	108096	0	0	8277	514166	0	0
2024-10-21 14:59:47			0	39255	0	0	0	22018	20580	157357	27443	1060987	46476	108092	0	0	8276	515224	0	0
2024-10-21 15:00:47			0	39241	0	0	0	22020	20580	157421	27274	1060996	46465	108093	0	0	8275	515753	0	0
2024-10-21 15:01:47			0	39216	0	0	0	22033	20590	157485	27081	1061031	46488	108098	0	0	8273	516671	0	0
2024-10-21 15:02:47			0	39204	0	0	0	22033	20590	157617	27441	1061005	46477	108098	0	0	8273	517126	0	0
2024-10-21 15:03:47			0	39196	0	0	0	22054	20590	157697	27090	1061058	46488	108106	0	0	8272	517429	0	0
2024-10-21 15:04:47			0	39206	0	0	0	22044	20590	157625	27303	1061094	46467	108102	0	0	8273	517050	0	0
2024-10-21 15:05:47			0	39192	0	0	0	22044	20600	157569	27312	1061129	46478	108102	0	0	8272	517552	0	0
2024-10-21 15:06:47			0	39179	0	0	0	22051	20600	157705	27478	1061085	46490	108105	0	0	8271	518045	0	0
2024-10-21 15:07:47			0	39191	0	0	0	22054	20590	157625	27521	1061067	46489	108106	0	0	8272	517618	0	0
2024-10-21 15:08:47			0	39205	0	0	0	22059	20610	157617	27374	1061156	46480	108108	0	0	8272	517031	0	0
2024-10-21 15:09:47			0	39201	0	0	0	22054	20600	157573	27486	1061165	46490	108106	0	0	8272	517211	0	0
2024-10-21 15:10:47			0	39211	0	0	0	22044	20610	157493	27346	1061094	46467	108102	0	0	8273	516803	0	0
2024-10-21 15:11:47			0	39251	0	0	0	22059	20600	157441	27530	1061156	46467	108108	0	0	8275	515318	0	0
2024-10-21 15:12:47			0	39239	0	0	0	22057	20600	157357	27642	1061112	46479	108107	0	0	8274	515772	0	0
2024-10-21 15:13:47			0	39258	0	0	0	22059	20610	157297	27104	1061183	46468	108108	0	0	8275	515025	0	0
2024-10-21 15:14:47			0	39243	0	0	0	22070	20620	157389	27284	1061174	46492	108112	0	0	8274	515564	0	0
2024-10-21 15:15:47			0	39259	0	0	0	22075	20620	157285	27320	1061218	46491	108114	0	0	8275	514959	0	0
2024-10-21 15:16:47			0	39271	0	0	0	22072	20620	157293	27402	1061281	46481	108113	0	0	8276	514505	0	0
2024-10-21 15:17:47			0	39263	0	0	0	22085	20620	157349	27611	1061201	46481	108118	0	0	8275	514808	0	0
2024-10-21 15:18:47			0	39286	0	0	0	22085	20630	157281	27523	1061272	46471	108118	0	0	8277	513911	0	0
2024-10-21 15:19:47			0	39288	0	0	0	22088	20630	157209	27211	1061245	46482	108119	0	0	8277	513835	0	0
2024-10-21 15:20:47			0	39341	0	0	0	22090	20630	157109	27419	1061245	46471	108120	0	0	8280	511837	0	0
2024-10-21 15:21:47			0	39374	0	0	0	22083	20640	156957	27097	1061308	46482	108117	0	0	8282	510567	0	0
2024-10-21 15:22:47			0	39440	0	0	0	22101	20650	156606	27547	1061299	46484	108124	0	0	8285	508060	0	0
2024-10-21 15:23:47			0	39472	0	0	0	22111	20640	156534	27443	1061290	46483	108128	0	0	8287	506889	0	0
2024-10-21 15:24:47			0	39583	0	0	0	22122	20650	156178	27093	1061335	46495	108132	0	0	8293	502714	0	0
2024-10-21 15:25:47			0	39659	0	0	0	22116	20650	155890	27303	1061388	46484	108130	0	0	8298	499886	0	0
2024-10-21 15:26:47			0	39738	0	0	0	22116	20660	155622	27145	1061423	46474	108130	0	0	8302	496928	0	0
2024-10-21 15:27:47			0	39774	0	0	0	22124	20650	155438	27312	1061414	46484	108133	0	0	8304	495624	0	0
2024-10-21 15:28:47			0	39820	0	0	0	22132	20670	155282	27471	1061441	46497	108136	0	0	8307	493870	0	0
2024-10-21 15:29:47			0	39857	0	0	0	22122	20670	155102	27246	1061397	46507	108132	0	0	8309	492506	0	0
2024-10-21 15:30:47			0	39805	0	0	0	22103	20670	155270	27537	1061477	46497	108125	0	0	8307	494423	0	0
2024-10-21 15:31:47			0	39760	0	0	0	22093	20670	155446	27315	1061477	46497	108121	0	0	8304	496086	0	0
2024-10-21 15:32:47			0	39693	0	0	0	22088	20670	155610	27013	1061415	46463	108119	0	0	8300	498568	0	0
2024-10-21 15:33:47			0	39661	0	0	0	22093	20670	155790	27149	1061424	46475	108121	0	0	8298	499756	0	0
2024-10-21 15:34:47			0	39658	0	0	0	22098	20670	155782	27190	1061441	46475	108123	0	0	8298	499868	0	0
2024-10-21 15:35:47			0	39650	0	0	0	22103	20670	155818	27324	1061424	46486	108125	0	0	8298	500165	0	0
2024-10-21 15:36:47			0	39656	0	0	0	22101	20660	155786	27095	1061432	46485	108124	0	0	8298	499970	0	0
2024-10-21 15:37:47			0	39668	0	0	0	22114	20670	155786	27190	1061441	46475	108129	0	0	8298	499496	0	0
2024-10-21 15:38:47			0	39679	0	0	0	22116	20670	155750	27376	1061468	46486	108130	0	0	8299	499088	0	0
2024-10-21 15:39:47			0	39716	0	0	0	22124	20670	155578	27320	1061424	46475	108133	0	0	8301	497716	0	0
2024-10-21 15:40:47			0	39723	0	0	0	22109	20680	155550	27277	1061379	46476	108127	0	0	8302	497429	0	0
2024-10-21 15:41:47			0	39685	0	0	0	22109	20670	155626	27357	1061441	46463	108127	0	0	8300	498865	0	0
2024-10-21 15:42:47			0	39672	0	0	0	22109	20680	155766	27500	1061486	46476	108127	0	0	8299	499320	0	0
2024-10-21 15:43:47			0	39670	0	0	0	22114	20690	155794	27078	1061531	46488	108129	0	0	8299	499367	0	0
2024-10-21 15:44:47			0	39631	0	0	0	22101	20680	155886	27263	1061459	46476	108124	0	0	8297	500844	0	0
2024-10-21 15:45:47			0	39643	0	0	0	22106	20680	155862	27495	1061486	46464	108126	0	0	8297	500397	0	0
2024-10-21 15:46:47			0	39653	0	0	0	22106	20680	155838	27381	1061406	46487	108126	0	0	8298	500026	0	0
2024-10-21 15:47:47			0	39635	0	0	0	22088	20680	155902	27234	1061388	46476	108119	0	0	8297	500695	0	0
2024-10-21 15:48:47			0	39637	0	0	0	22098	20670	155942	27415	1061450	46486	108123	0	0	8297	500648	0	0
2024-10-21 15:49:47			0	39634	0	0	0	22096	20680	155810	27339	1061415	46487	108122	0	0	8297	500732	0	0
2024-10-21 15:50:47			0	39668	0	0	0	22093	20680	155698	27467	1061433	46487	108121	0	0	8299	499469	0	0
2024-10-21 15:51:47			0	39674	0	0	0	22085	20670	155762	27272	1061441	46475	108118	0	0	8299	499273	0	0
2024-10-21 15:52:47			0	39666	0	0	0	22083	20680	155706	27322	1061468	46476	108117	0	0	8299	499543	0	0
2024-10-21 15:53:47			0	39677	0	0	0	22083	20680	155742	27398	1061415	46476	108117	0	0	8300	499134	0	0
2024-10-21 15:54:47			0	39677	0	0	0	22090	20670	155794	27306	1061397	46475	108120	0	0	8299	499162	0	0
2024-10-21 15:55:47			0	39687	0	0	0	22103	20680	155718	27537	1061379	46498	108125	0	0	8300	498763	0	0
2024-10-21 15:56:47			0	39715	0	0	0	22101	20680	155582	27521	1061433	46487	108124	0	0	8301	497725	0	0
2024-10-21 15:57:47			0	39719	0	0	0	22109	20680	155482	27260	1061459	46487	108127	0	0	8302	497577	0	0
2024-10-21 15:58:47			0	39669	0	0	0	22088	20680	155786	27526	1061459	46498	108119	0	0	8299	499431	0	0
2024-10-21 15:59:47			0	39661	0	0	0	22083	20680	155814	27183	1061513	46487	108117	0	0	8299	499729	0	0
2024-10-21 16:00:47			0	39637	0	0	0	22090	20680	155778	27469	1061406	46487	108120	0	0	8297	500620	0	0
2024-10-21 16:01:47			0	39649	0	0	0	22080	20680	155706	27149	1061379	46476	108116	0	0	8298	500174	0	0
2024-10-21 16:02:47			0	39699	0	0	0	22098	20690	155554	27417	1061451	46488	108123	0	0	8301	498291	0	0
2024-10-21 16:03:47			0	39712	0	0	0	22101	20670	155490	27419	1061441	46475	108124	0	0	8301	497864	0	0
2024-10-21 16:04:47			0	39743	0	0	0	22093	20670	155490	27646	1061477	46497	108121	0	0	8303	496715	0	0
2024-10-21 16:05:47			0	39738	0	0	0	22070	20680	155518	27393	1061468	46476	108112	0	0	8303	496873	0	0
2024-10-21 16:06:47			0	39701	0	0	0	22088	20670	155486	27530	1061424	46463	108119	0	0	8301	498272	0	0
2024-10-21 16:07:47			0	39729	0	0	0	22096	20670	155462	27235	1061388	46475	108122	0	0	8302	497234	0	0
2024-10-21 16:08:47			0	39725	0	0	0	22085	20670	155438	27632	1061450	46486	108118	0	0	8302	497382	0	0
2024-10-21 16:09:47			0	39714	0	0	0	22090	20690	155534	27300	1061433	46499	108120	0	0	8302	497735	0	0
2024-10-21 16:10:47			0	39702	0	0	0	22106	20670	155598	27192	1061415	46463	108126	0	0	8301	498235	0	0
2024-10-21 16:11:47			0	39687	0	0	0	22085	20670	155602	27320	1061388	46486	108118	0	0	8300	498791	0	0
2024-10-21 16:12:47			0	39693	0	0	0	22093	20670	155546	27445	1061424	46475	108121	0	0	8300	498568	0	0
2024-10-21 16:13:47			0	39695	0	0	0	22098	20670	155638	27464	1061477	46497	108123	0	0	8300	498494	0	0
2024-10-21 16:14:47			0	39749	0	0	0	22101	20680	155386	27412	1061521	46487	108124	0	0	8303	496466	0	0
2024-10-21 16:15:47			0	39765	0	0	0	22103	20670	155346	27661	1061477	46475	108125	0	0	8304	495902	0	0
2024-10-21 16:16:47			0	39801	0	0	0	22109	20680	155222	27417	1061459	46487	108127	0	0	8306	494544	0	0
2024-10-21 16:17:47			0	39838	0	0	0	22109	20690	155014	27542	1061477	46477	108127	0	0	8308	493151	0	0
2024-10-21 16:18:47			0	39877	0	0	0	22111	20680	154894	27296	1061513	46476	108128	0	0	8311	491742	0	0
2024-10-21 16:19:47			0	39896	0	0	0	22093	20680	154866	27409	1061388	46476	108121	0	0	8312	491043	0	0
2024-10-21 16:20:47			0	39870	0	0	0	22101	20670	155010	27229	1061424	46486	108124	0	0	8310	492027	0	0
2024-10-21 16:21:47			0	39824	0	0	0	22101	20690	155054	27369	1061531	46488	108124	0	0	8308	493667	0	0
2024-10-21 16:22:47			0	39856	0	0	0	22103	20670	155002	27630	1061441	46486	108125	0	0	8309	492542	0	0
2024-10-21 16:23:47			0	39899	0	0	0	22114	20690	154858	27156	1061504	46488	108129	0	0	8312	490905	0	0
2024-10-21 16:24:47			0	39921	0	0	0	22116	20680	154878	27332	1061548	46476	108130	0	0	8313	490124	0	0
2024-10-21 16:25:47			0	39982	0	0	0	22129	20690	154618	27557	1061504	46488	108135	0	0	8316	487858	0	0
2024-10-21 16:26:47			0	40003	0	0	0	22124	20700	154406	27336	1061575	46510	108133	0	0	8318	487062	0	0
2024-10-21 16:27:47			0	40029	0	0	0	22127	20690	154342	27642	1061619	46499	108134	0	0	8319	486138	0	0
2024-10-21 16:28:47			0	40044	0	0	0	22119	20690	154258	27194	1061486	46488	108131	0	0	8320	485589	0	0
2024-10-21 16:29:47			0	40038	0	0	0	22119	20690	154358	27559	1061566	46499	108131	0	0	8320	485809	0	0
2024-10-21 16:30:47			0	40044	0	0	0	22111	20700	154386	27604	1061548	46500	108128	0	0	8320	485562	0	0
2024-10-21 16:31:47			0	40060	0	0	0	22122	20710	154374	27498	1061593	46490	108132	0	0	8321	484951	0	0
2024-10-21 16:32:47			0	40061	0	0	0	22119	20690	154290	27313	1061513	46488	108131	0	0	8321	484968	0	0
2024-10-21 16:33:47			0	40078	0	0	0	22122	20700	154198	27305	1061531	46490	108132	0	0	8322	484321	0	0
2024-10-21 16:34:47			0	40152	0	0	0	22127	20690	154051	27332	1061504	46499	108134	0	0	8326	481651	0	0
2024-10-21 16:35:47			0	40200	0	0	0	22135	20690	153799	27460	1061540	46488	108137	0	0	8329	479906	0	0
2024-10-21 16:36:47			0	40229	0	0	0	22135	20690	153687	27072	1061531	46488	108137	0	0	8331	478853	0	0
2024-10-21 16:37:47			0	40268	0	0	0	22137	20690	153607	27303	1061540	46488	108138	0	0	8333	477440	0	0
2024-10-21 16:38:47			0	40290	0	0	0	22132	20700	153399	27566	1061611	46490	108136	0	0	8334	476617	0	0
2024-10-21 16:39:47			0	40267	0	0	0	22129	20700	153499	27417	1061602	46500	108135	0	0	8333	477449	0	0
2024-10-21 16:40:47			0	40256	0	0	0	22119	20700	153547	27329	1061548	46489	108131	0	0	8332	477848	0	0
2024-10-21 16:41:47			0	40245	0	0	0	22124	20700	153471	27585	1061584	46490	108133	0	0	8332	478247	0	0
2024-10-21 16:42:47			0	40268	0	0	0	22122	20700	153467	27265	1061548	46478	108132	0	0	8333	477413	0	0
2024-10-21 16:43:47			0	40299	0	0	0	22127	20690	153371	27377	1061593	46488	108134	0	0	8335	476318	0	0
2024-10-21 16:44:47			0	40317	0	0	0	22132	20710	153303	27407	1061593	46490	108136	0	0	8336	475614	0	0
2024-10-21 16:45:47			0	40326	0	0	0	22124	20700	153187	27377	1061628	46478	108133	0	0	8336	475315	0	0
2024-10-21 16:46:47			0	40357	0	0	0	22137	20700	153127	27327	1061602	46489	108138	0	0	8338	474196	0	0
2024-10-21 16:47:47			0	40407	0	0	0	22135	20700	152987	27175	1061548	46478	108137	0	0	8341	472394	0	0
2024-10-21 16:48:47			0	40440	0	0	0	22132	20700	152935	27419	1061575	46489	108136	0	0	8343	471207	0	0
2024-10-21 16:49:47			0	40454	0	0	0	22137	20700	152811	27367	1061664	46490	108138	0	0	8344	470703	0	0
2024-10-21 16:50:47			0	40474	0	0	0	22142	20710	152851	27197	1061620	46479	108140	0	0	8345	469959	0	0
2024-10-21 16:51:47			0	40440	0	0	0	22132	20700	152935	27272	1061655	46500	108136	0	0	8343	471207	0	0
2024-10-21 16:52:47			0	40441	0	0	0	22127	20700	152911	27308	1061655	46489	108134	0	0	8343	471171	0	0
2024-10-21 16:53:47			0	40429	0	0	0	22129	20700	152927	27398	1061628	46478	108135	0	0	8342	471602	0	0
2024-10-21 16:54:47			0	40416	0	0	0	22119	20700	153027	27244	1061602	46500	108131	0	0	8342	472070	0	0
2024-10-21 16:55:47			0	40400	0	0	0	22116	20700	153079	27194	1061584	46500	108130	0	0	8341	472646	0	0
2024-10-21 16:56:47			0	40344	0	0	0	22119	20700	153151	27164	1061495	46478	108131	0	0	8338	474665	0	0
2024-10-21 16:57:47			0	40348	0	0	0	22127	20700	153299	27124	1061522	46500	108134	0	0	8338	474521	0	0
2024-10-21 16:58:47			0	40356	0	0	0	22135	20700	153175	27611	1061637	46490	108137	0	0	8338	474232	0	0
2024-10-21 16:59:47			0	40377	0	0	0	22122	20700	153203	27486	1061575	46478	108132	0	0	8339	473475	0	0
2024-10-21 17:00:47			0	40367	0	0	0	22132	20700	153211	27518	1061637	46490	108136	0	0	8339	473836	0	0
2024-10-21 17:01:47			0	40373	0	0	0	22135	20690	153191	27159	1061584	46477	108137	0	0	8339	473645	0	0
2024-10-21 17:02:47			0	40375	0	0	0	22135	20710	153135	27400	1061620	46479	108137	0	0	8339	473521	0	0
2024-10-21 17:03:47			0	40373	0	0	0	22122	20700	153183	27194	1061584	46479	108132	0	0	8339	473619	0	0
2024-10-21 17:04:47			0	40374	0	0	0	22124	20700	153223	27327	1061495	46489	108133	0	0	8339	473583	0	0
2024-10-21 17:05:47			0	40394	0	0	0	22124	20700	153079	27223	1061548	46500	108133	0	0	8340	472862	0	0
2024-10-21 17:06:47			0	40418	0	0	0	22119	20700	152907	26902	1061602	46489	108131	0	0	8342	471998	0	0
2024-10-21 17:07:47			0	40421	0	0	0	22119	20690	153027	27116	1061531	46499	108131	0	0	8342	471916	0	0
2024-10-21 17:08:47			0	40442	0	0	0	22122	20690	152967	27298	1061566	46477	108132	0	0	8343	471161	0	0
2024-10-21 17:09:47			0	40323	0	0	0	22064	20690	153411	27228	1061540	46488	108110	0	0	8337	475450	0	0
2024-10-21 17:10:47			0	40072	0	0	0	22046	20680	154258	27319	1061388	46476	108103	0	0	8323	484593	0	0
2024-10-21 17:11:47			0	39943	0	0	0	22064	20680	154730	27112	1061406	46487	108110	0	0	8315	489316	0	0
2024-10-21 17:12:47			0	39953	0	0	0	22088	20670	154758	27289	1061317	46475	108119	0	0	8315	488976	0	0
2024-10-21 17:13:47			0	40080	0	0	0	22106	20660	154414	27097	1061379	46485	108126	0	0	8322	484355	0	0
2024-10-21 17:14:47			0	40153	0	0	0	22103	20660	154119	27490	1061352	46462	108125	0	0	8327	481694	0	0
2024-10-21 17:15:47			0	40236	0	0	0	22119	20670	153819	27215	1061415	46486	108131	0	0	8331	478652	0	0
2024-10-21 17:16:47			0	40300	0	0	0	22116	20670	153547	27248	1061441	46497	108130	0	0	8335	476334	0	0
2024-10-21 17:17:47			0	40339	0	0	0	22109	20670	153355	26883	1061441	46486	108127	0	0	8337	474925	0	0
2024-10-21 17:18:47			0	40333	0	0	0	22098	20660	153207	27116	1061352	46485	108123	0	0	8337	475168	0	0
2024-10-21 17:19:47			0	40279	0	0	0	22075	20660	153427	27274	1061406	46474	108114	0	0	8334	477121	0	0
2024-10-21 17:20:47			0	40242	0	0	0	22085	20670	153687	27170	1061388	46475	108118	0	0	8332	478435	0	0
2024-10-21 17:21:47			0	40284	0	0	0	22096	20660	153591	27218	1061317	46474	108122	0	0	8334	476940	0	0
2024-10-21 17:22:47			0	40299	0	0	0	22096	20660	153415	27409	1061397	46474	108122	0	0	8335	476397	0	0
2024-10-21 17:23:47			0	40333	0	0	0	22098	20660	153387	27015	1061397	46474	108123	0	0	8337	475168	0	0
2024-10-21 17:24:47			0	40347	0	0	0	22098	20650	153355	27052	1061361	46484	108123	0	0	8338	474688	0	0
2024-10-21 17:25:47			0	40377	0	0	0	22106	20660	153251	27371	1061379	46485	108126	0	0	8339	473580	0	0
2024-10-21 17:26:47			0	40383	0	0	0	22096	20660	153127	27261	1061370	46474	108122	0	0	8340	473363	0	0
2024-10-21 17:27:47			0	40382	0	0	0	22093	20660	153135	27362	1061370	46485	108121	0	0	8340	473399	0	0
2024-10-21 17:28:47			0	40393	0	0	0	22096	20660	153127	27414	1061344	46474	108122	0	0	8341	473003	0	0
2024-10-21 17:29:47			0	40370	0	0	0	22083	20650	153187	26906	1061352	46484	108117	0	0	8339	473858	0	0
2024-10-21 17:30:47			0	40391	0	0	0	22090	20650	153207	27293	1061308	46484	108120	0	0	8341	473101	0	0
2024-10-21 17:31:47			0	40384	0	0	0	22093	20650	153067	27137	1061326	46473	108121	0	0	8340	473354	0	0
2024-10-21 17:32:47			0	40380	0	0	0	22090	20640	153139	27390	1061263	46472	108120	0	0	8340	473524	0	0
2024-10-21 17:33:47			0	40391	0	0	0	22096	20640	153091	27303	1061263	46472	108122	0	0	8340	473128	0	0
2024-10-21 17:34:47			0	40411	0	0	0	22098	20650	152995	27345	1061299	46484	108123	0	0	8342	472381	0	0
2024-10-21 17:35:47			0	40438	0	0	0	22098	20630	152983	26795	1061299	46503	108123	0	0	8343	471461	0	0
2024-10-21 17:36:47			0	40467	0	0	0	22103	20650	152859	27455	1061326	46484	108125	0	0	8345	470367	0	0
2024-10-21 17:37:47			0	40475	0	0	0	22096	20650	152779	27222	1061352	46495	108122	0	0	8345	470079	0	0
2024-10-21 17:38:47			0	40497	0	0	0	22106	20650	152779	26961	1061352	46484	108126	0	0	8346	469289	0	0
2024-10-21 17:39:47			0	40517	0	0	0	22114	20650	152615	27251	1061379	46495	108129	0	0	8347	468572	0	0
2024-10-21 17:40:47			0	40532	0	0	0	22116	20650	152559	26989	1061361	46495	108130	0	0	8348	468034	0	0
2024-10-21 17:41:47			0	40575	0	0	0	22098	20650	152415	27350	1061388	46505	108123	0	0	8351	466495	0	0
2024-10-21 17:42:47			0	40574	0	0	0	22106	20660	152435	27076	1061423	46496	108126	0	0	8351	466505	0	0
2024-10-21 17:43:47			0	40563	0	0	0	22109	20660	152419	27163	1061397	46506	108127	0	0	8350	466898	0	0
2024-10-21 17:44:47			0	40583	0	0	0	22103	20660	152407	27187	1061406	46485	108125	0	0	8351	466183	0	0
2024-10-21 17:45:47			0	40590	0	0	0	22103	20650	152343	26878	1061379	46484	108125	0	0	8352	465959	0	0
2024-10-21 17:46:47			0	40592	0	0	0	22101	20640	152383	27177	1061370	46504	108124	0	0	8352	465913	0	0
2024-10-21 17:47:47			0	40579	0	0	0	22098	20660	152343	27203	1061423	46496	108123	0	0	8351	466326	0	0
2024-10-21 17:48:47			0	40558	0	0	0	22103	20660	152423	26922	1061397	46485	108125	0	0	8350	467077	0	0
2024-10-21 17:49:47			0	40558	0	0	0	22103	20650	152467	26856	1061388	46484	108125	0	0	8350	467103	0	0
2024-10-21 17:50:47			0	40540	0	0	0	22103	20660	152511	27426	1061432	46496	108125	0	0	8349	467722	0	0
2024-10-21 17:51:47			0	40535	0	0	0	22093	20660	152487	27171	1061450	46496	108121	0	0	8349	467901	0	0
2024-10-21 17:52:47			0	40525	0	0	0	22096	20660	152483	27376	1061450	46485	108122	0	0	8348	468259	0	0
2024-10-21 17:53:47			0	40543	0	0	0	22103	20670	152563	27161	1061441	46486	108125	0	0	8349	467589	0	0
2024-10-21 17:54:47			0	40537	0	0	0	22111	20660	152583	27064	1061397	46496	108128	0	0	8349	467829	0	0
2024-10-21 17:55:47			0	40560	0	0	0	22098	20660	152575	27060	1061432	46474	108123	0	0	8350	467006	0	0
2024-10-21 17:56:47			0	40555	0	0	0	22101	20650	152471	27235	1061405	46484	108124	0	0	8350	467211	0	0
2024-10-21 17:57:47			0	40546	0	0	0	22096	20660	152515	27298	1061432	46485	108122	0	0	8349	467507	0	0
2024-10-21 17:58:47			0	40548	0	0	0	22103	20650	152555	26909	1061379	46505	108125	0	0	8349	467461	0	0
2024-10-21 17:59:47			0	40517	0	0	0	22093	20660	152563	26847	1061423	46496	108121	0	0	8348	468546	0	0
2024-10-21 18:00:47			0	40527	0	0	0	22096	20650	152663	27111	1061414	46495	108122	0	0	8348	468214	0	0
2024-10-21 18:01:47			0	40470	0	0	0	22098	20660	152759	27313	1061450	46506	108123	0	0	8345	470233	0	0
2024-10-21 18:02:47			0	40422	0	0	0	22093	20660	152807	26719	1061397	46485	108121	0	0	8342	471959	0	0
2024-10-21 18:03:47			0	40423	0	0	0	22090	20660	152867	27138	1061344	46496	108120	0	0	8342	471923	0	0
2024-10-21 18:04:47			0	40409	0	0	0	22090	20660	152995	27085	1061397	46496	108120	0	0	8342	472427	0	0
2024-10-21 18:05:47			0	40411	0	0	0	22080	20670	153103	27197	1061468	46497	108116	0	0	8342	472329	0	0
2024-10-21 18:06:47			0	40418	0	0	0	22090	20660	153071	27192	1061397	46496	108120	0	0	8342	472103	0	0
2024-10-21 18:07:47			0	40421	0	0	0	22093	20650	153007	26870	1061361	46484	108121	0	0	8342	472021	0	0
2024-10-21 18:08:47			0	40432	0	0	0	22083	20650	152883	27263	1061388	46484	108117	0	0	8343	471625	0	0
2024-10-21 18:09:47			0	40446	0	0	0	22083	20660	152943	26859	1061379	46474	108117	0	0	8344	471095	0	0
2024-10-21 18:10:47			0	40418	0	0	0	22088	20650	152991	27071	1061335	46495	108119	0	0	8342	472129	0	0
2024-10-21 18:11:47			0	40414	0	0	0	22075	20660	152943	27242	1061370	46496	108114	0	0	8342	472247	0	0
2024-10-21 18:12:47			0	40420	0	0	0	22080	20640	153067	27060	1061317	46494	108116	0	0	8342	472083	0	0
2024-10-21 18:13:47			0	40387	0	0	0	22077	20640	153063	27133	1061396	46483	108115	0	0	8340	473272	0	0
2024-10-21 18:14:47			0	40366	0	0	0	22083	20650	153131	27163	1061379	46495	108117	0	0	8339	474003	0	0
2024-10-21 18:15:47			0	40351	0	0	0	22080	20640	153171	26830	1061317	46483	108116	0	0	8338	474570	0	0
2024-10-21 18:16:47			0	40351	0	0	0	22072	20650	153147	26935	1061352	46495	108113	0	0	8339	474544	0	0
2024-10-21 18:17:47			0	40354	0	0	0	22083	20650	153179	27100	1061352	46484	108117	0	0	8338	474436	0	0
2024-10-21 18:18:47			0	40358	0	0	0	22075	20650	153151	27119	1061352	46495	108114	0	0	8339	474291	0	0
2024-10-21 18:19:47			0	40387	0	0	0	22077	20630	153119	26960	1061352	46503	108115	0	0	8340	473298	0	0
2024-10-21 18:20:47			0	40388	0	0	0	22077	20640	153063	26864	1061308	46482	108115	0	0	8341	473236	0	0
2024-10-21 18:21:47			0	40393	0	0	0	22072	20650	153167	26981	1061361	46484	108113	0	0	8341	473029	0	0
2024-10-21 18:22:47			0	40356	0	0	0	22075	20650	153243	26916	1061326	46495	108114	0	0	8339	474364	0	0
2024-10-21 18:23:47			0	40332	0	0	0	22072	20650	153227	26986	1061299	46473	108113	0	0	8337	475230	0	0
2024-10-21 18:24:47			0	40331	0	0	0	22070	20650	153299	26738	1061352	46484	108112	0	0	8337	475266	0	0
2024-10-21 18:25:47			0	40352	0	0	0	22067	20640	153223	27137	1061334	46482	108111	0	0	8339	474534	0	0
2024-10-21 18:26:47			0	40337	0	0	0	22070	20640	153335	26923	1061290	46483	108112	0	0	8338	475076	0	0
2024-10-21 18:27:47			0	40328	0	0	0	22070	20640	153339	27107	1061343	46483	108112	0	0	8337	475401	0	0
2024-10-21 18:28:47			0	40315	0	0	0	22075	20650	153311	27196	1061405	46484	108114	0	0	8336	475845	0	0
2024-10-21 18:29:47			0	40319	0	0	0	22067	20650	153423	27159	1061326	46495	108111	0	0	8337	475700	0	0
2024-10-21 18:30:47			0	40282	0	0	0	22067	20640	153411	27178	1061370	46483	108111	0	0	8335	477065	0	0
2024-10-21 18:31:47			0	40269	0	0	0	22075	20640	153531	26953	1061370	46494	108114	0	0	8334	477535	0	0
2024-10-21 18:32:47			0	40238	0	0	0	22067	20650	153627	27402	1061335	46484	108111	0	0	8332	478633	0	0
2024-10-21 18:33:47			0	40263	0	0	0	22072	20640	153591	27241	1061263	46494	108113	0	0	8333	477753	0	0
2024-10-21 18:34:47			0	40249	0	0	0	22070	20640	153503	26965	1061317	46483	108112	0	0	8333	478260	0	0
2024-10-21 18:35:47			0	40243	0	0	0	22072	20640	153659	27196	1061290	46494	108113	0	0	8332	478478	0	0
2024-10-21 18:36:47			0	40204	0	0	0	22072	20650	153779	27086	1061326	46495	108113	0	0	8330	479867	0	0
2024-10-21 18:37:47			0	40183	0	0	0	22070	20640	153807	27097	1061290	46494	108112	0	0	8329	480656	0	0
2024-10-21 18:38:47			0	40163	0	0	0	22070	20640	153871	27145	1061308	46482	108112	0	0	8328	481384	0	0
2024-10-21 18:39:47			0	40133	0	0	0	22067	20640	153931	27222	1061317	46483	108111	0	0	8326	482476	0	0
2024-10-21 18:40:47			0	40117	0	0	0	22054	20630	154035	27173	1061245	46482	108106	0	0	8325	483085	0	0
2024-10-21 18:41:47			0	40083	0	0	0	22051	20640	154030	27012	1061263	46483	108105	0	0	8323	484299	0	0
2024-10-21 18:42:47			0	40066	0	0	0	22054	20630	154242	27339	1061236	46481	108106	0	0	8322	484946	0	0
2024-10-21 18:43:47			0	40067	0	0	0	22064	20630	154286	27064	1061263	46469	108110	0	0	8322	484910	0	0
2024-10-21 18:44:47			0	40056	0	0	0	22054	20630	154346	26838	1061219	46482	108106	0	0	8322	485312	0	0
2024-10-21 18:45:47			0	40024	0	0	0	22057	20630	154394	27100	1061263	46481	108107	0	0	8320	486482	0	0
2024-10-21 18:46:47			0	40036	0	0	0	22059	20630	154374	27296	1061219	46493	108108	0	0	8320	486043	0	0
2024-10-21 18:47:47			0	40034	0	0	0	22062	20620	154394	27019	1061227	46492	108109	0	0	8320	486143	0	0
2024-10-21 18:48:47			0	40026	0	0	0	22067	20630	154442	27209	1061290	46481	108111	0	0	8320	486409	0	0
2024-10-21 18:49:47			0	40006	0	0	0	22067	20630	154510	27088	1061236	46481	108111	0	0	8319	487141	0	0
2024-10-21 18:50:47			0	40005	0	0	0	22064	20630	154530	27005	1061236	46492	108110	0	0	8319	487178	0	0
2024-10-21 18:51:47			0	39987	0	0	0	22067	20630	154690	27249	1061236	46492	108111	0	0	8317	487837	0	0
2024-10-21 18:52:47			0	39977	0	0	0	22064	20630	154618	26977	1061272	46482	108110	0	0	8317	488204	0	0
2024-10-21 18:53:47			0	39973	0	0	0	22064	20630	154698	27296	1061236	46492	108110	0	0	8317	488350	0	0
2024-10-21 18:54:47			0	39965	0	0	0	22075	20630	154590	27426	1061272	46493	108114	0	0	8316	488644	0	0
2024-10-21 18:55:47			0	39983	0	0	0	22067	20620	154638	26979	1061254	46492	108111	0	0	8317	488011	0	0
2024-10-21 18:56:47			0	39978	0	0	0	22067	20620	154690	27098	1061227	46481	108111	0	0	8317	488194	0	0
2024-10-21 18:57:47			0	39965	0	0	0	22057	20630	154670	27287	1061299	46493	108107	0	0	8316	488644	0	0
2024-10-21 18:58:47			0	39966	0	0	0	22067	20630	154646	26956	1061236	46481	108111	0	0	8316	488607	0	0
2024-10-21 18:59:47			0	39954	0	0	0	22057	20630	154702	27331	1061210	46513	108107	0	0	8316	489047	0	0
2024-10-21 19:00:47			0	39973	0	0	0	22062	20630	154598	27453	1061210	46469	108109	0	0	8317	488350	0	0
2024-10-21 19:01:47			0	39959	0	0	0	22064	20620	154754	27220	1061281	46469	108110	0	0	8316	488891	0	0
2024-10-21 19:02:47			0	39973	0	0	0	22070	20630	154614	27086	1061290	46481	108112	0	0	8317	488350	0	0
2024-10-21 19:03:47			0	39990	0	0	0	22070	20630	154594	26866	1061236	46481	108112	0	0	8318	487727	0	0
2024-10-21 19:04:47			0	40022	0	0	0	22083	20630	154330	27104	1061236	46492	108117	0	0	8319	486555	0	0
2024-10-21 19:05:47			0	40088	0	0	0	22067	20620	154194	27336	1061281	46492	108111	0	0	8323	484170	0	0
2024-10-21 19:06:47			0	40078	0	0	0	22064	20630	154246	27112	1061272	46482	108110	0	0	8323	484508	0	0
2024-10-21 19:07:47			0	40064	0	0	0	22064	20630	154346	26974	1061245	46493	108110	0	0	8322	485020	0	0
2024-10-21 19:08:47			0	40040	0	0	0	22077	20620	154378	27138	1061307	46492	108115	0	0	8320	485924	0	0
2024-10-21 19:09:47			0	40028	0	0	0	22072	20630	154354	27412	1061316	46492	108113	0	0	8320	486336	0	0
2024-10-21 19:10:47			0	40035	0	0	0	22070	20630	154346	26868	1061245	46493	108112	0	0	8320	486080	0	0
2024-10-21 19:11:47			0	40039	0	0	0	22072	20630	154422	26979	1061299	46503	108113	0	0	8320	485933	0	0
2024-10-21 19:12:47			0	40028	0	0	0	22057	20640	154474	27213	1061308	46493	108107	0	0	8320	486309	0	0
2024-10-21 19:13:47			0	39980	0	0	0	22054	20630	154570	27403	1061316	46492	108106	0	0	8317	488094	0	0
2024-10-21 19:14:47			0	39972	0	0	0	22059	20620	154670	27223	1061218	46480	108108	0	0	8317	488414	0	0
2024-10-21 19:15:47			0	39986	0	0	0	22057	20620	154526	27053	1061227	46469	108107	0	0	8318	487901	0	0
2024-10-21 19:16:47			0	39972	0	0	0	22057	20620	154654	26939	1061201	46492	108107	0	0	8317	488414	0	0
2024-10-21 19:17:47			0	39963	0	0	0	22049	20630	154646	27112	1061290	46492	108104	0	0	8316	488717	0	0
2024-10-21 19:18:47			0	39970	0	0	0	22041	20620	154698	26896	1061227	46481	108101	0	0	8317	488487	0	0
2024-10-21 19:19:47			0	39971	0	0	0	22051	20620	154738	27152	1061165	46468	108105	0	0	8317	488451	0	0
2024-10-21 19:20:47			0	39976	0	0	0	22054	20620	154594	26935	1061165	46468	108106	0	0	8317	488267	0	0
2024-10-21 19:21:47			0	39978	0	0	0	22054	20620	154662	27421	1061227	46469	108106	0	0	8317	488194	0	0
2024-10-21 19:22:47			0	39962	0	0	0	22051	20620	154662	27157	1061165	46491	108105	0	0	8316	488781	0	0
2024-10-21 19:23:47			0	39959	0	0	0	22054	20620	154714	27126	1061165	46491	108106	0	0	8316	488891	0	0
2024-10-21 19:24:47			0	39932	0	0	0	22054	20610	154714	27060	1061174	46479	108106	0	0	8314	489909	0	0
2024-10-21 19:25:47			0	39909	0	0	0	22067	20620	154886	27124	1061218	46491	108111	0	0	8313	490728	0	0
2024-10-21 19:26:47			0	39882	0	0	0	22070	20620	154942	26981	1061192	46491	108112	0	0	8311	491721	0	0
2024-10-21 19:27:47			0	39864	0	0	0	22054	20620	154950	27265	1061165	46491	108106	0	0	8311	492384	0	0
2024-10-21 19:28:47			0	39853	0	0	0	22059	20610	155130	27010	1061209	46480	108108	0	0	8310	492816	0	0
2024-10-21 19:29:47			0	39853	0	0	0	22057	20620	155078	27417	1061201	46481	108107	0	0	8310	492789	0	0
2024-10-21 19:30:47			0	39835	0	0	0	22057	20620	155114	27027	1061165	46480	108107	0	0	8309	493453	0	0
2024-10-21 19:31:47			0	39863	0	0	0	22070	20610	155154	27312	1061156	46480	108112	0	0	8310	492448	0	0
2024-10-21 19:32:47			0	39837	0	0	0	22054	20610	155186	26928	1061121	46490	108106	0	0	8309	493406	0	0
2024-10-21 19:33:47			0	39834	0	0	0	22054	20610	155138	27235	1061147	46479	108106	0	0	8309	493517	0	0
2024-10-21 19:34:47			0	39831	0	0	0	22049	20610	155134	27010	1061200	46490	108104	0	0	8309	493628	0	0
2024-10-21 19:35:47			0	39847	0	0	0	22041	20610	155066	27024	1061121	46500	108101	0	0	8310	493038	0	0
2024-10-21 19:36:47			0	39881	0	0	0	22036	20610	154954	27124	1061174	46479	108099	0	0	8312	491785	0	0
2024-10-21 19:37:47			0	39896	0	0	0	22015	20600	154894	27429	1061085	46479	108091	0	0	8313	491260	0	0
2024-10-21 19:38:47			0	39949	0	0	0	22007	20600	154654	26993	1061005	46479	108088	0	0	8316	489312	0	0
2024-10-21 19:39:47			0	39966	0	0	0	22002	20590	154602	26955	1061040	46467	108086	0	0	8317	488715	0	0
2024-10-21 19:40:47			0	39942	0	0	0	22002	20590	154750	27272	1061040	46489	108086	0	0	8316	489596	0	0
2024-10-21 19:41:47			0	39926	0	0	0	22018	20580	154866	26873	1061022	46477	108092	0	0	8315	490211	0	0
2024-10-21 19:42:47			0	39901	0	0	0	22025	20590	155066	27000	1061031	46488	108095	0	0	8313	491103	0	0
2024-10-21 19:43:47			0	39879	0	0	0	22031	20580	155006	27007	1061022	46488	108097	0	0	8312	491940	0	0
2024-10-21 19:44:47			0	39869	0	0	0	22028	20590	155066	27220	1061084	46499	108096	0	0	8311	492281	0	0
2024-10-21 19:45:47			0	39857	0	0	0	22038	20590	155182	27447	1061058	46488	108100	0	0	8310	492724	0	0
2024-10-21 19:46:47			0	39830	0	0	0	22033	20600	155186	27345	1061112	46490	108098	0	0	8309	493692	0	0
2024-10-21 19:47:47			0	39808	0	0	0	22023	20580	155210	27124	1061049	46488	108094	0	0	8308	494559	0	0
2024-10-21 19:48:47			0	39800	0	0	0	21999	20590	155334	27180	1061005	46477	108085	0	0	8308	494827	0	0
2024-10-21 19:49:47			0	39767	0	0	0	22012	20580	155474	27057	1061022	46488	108090	0	0	8306	496075	0	0
2024-10-21 19:50:47			0	39758	0	0	0	22020	20580	155574	27123	1060933	46476	108093	0	0	8305	496408	0	0
2024-10-21 19:51:47			0	39723	0	0	0	22025	20570	155550	27003	1060995	46475	108095	0	0	8303	497731	0	0
2024-10-21 19:52:47			0	39672	0	0	0	22023	20580	155734	27076	1060987	46487	108094	0	0	8300	499596	0	0
2024-10-21 19:53:47			0	39679	0	0	0	22015	20570	155722	27149	1060951	46486	108091	0	0	8300	499364	0	0
2024-10-21 19:54:47			0	39672	0	0	0	21992	20570	155814	27060	1060942	46486	108082	0	0	8300	499624	0	0
2024-10-21 19:55:47			0	39649	0	0	0	22005	20570	155946	26847	1060915	46475	108087	0	0	8299	500479	0	0
2024-10-21 19:56:47			0	39642	0	0	0	22015	20560	155790	26837	1060924	46462	108091	0	0	8298	500767	0	0
2024-10-21 19:57:47			0	39627	0	0	0	22020	20570	155894	27111	1060978	46475	108093	0	0	8297	501297	0	0
2024-10-21 19:58:47			0	39628	0	0	0	22033	20560	155946	26970	1060951	46485	108098	0	0	8297	501288	0	0
2024-10-21 19:59:47			0	39619	0	0	0	22028	20580	156034	26923	1060987	46508	108096	0	0	8297	501567	0	0
2024-10-21 20:00:47			0	39615	0	0	0	22010	20580	156038	26842	1061013	46498	108089	0	0	8297	501716	0	0
2024-10-21 20:01:47			0	39621	0	0	0	22007	20560	155954	27092	1061004	46485	108088	0	0	8297	501549	0	0
2024-10-21 20:02:47			0	39635	0	0	0	22012	20570	156018	27277	1060978	46486	108090	0	0	8298	501000	0	0
2024-10-21 20:03:47			0	39634	0	0	0	22015	20570	155966	26918	1060951	46486	108091	0	0	8298	501037	0	0
2024-10-21 20:04:47			0	39631	0	0	0	22007	20560	155994	26786	1060897	46496	108088	0	0	8298	501176	0	0
2024-10-21 20:05:47			0	39619	0	0	0	22005	20560	156030	27220	1060986	46475	108087	0	0	8297	501623	0	0
2024-10-21 20:06:47			0	39640	0	0	0	21971	20560	156010	27041	1060906	46486	108074	0	0	8299	500841	0	0
2024-10-21 20:07:47			0	39642	0	0	0	21932	20550	155930	26934	1060835	46473	108059	0	0	8300	500795	0	0
2024-10-21 20:08:47			0	39647	0	0	0	21919	20540	155834	27000	1060844	46461	108054	0	0	8300	500636	0	0
2024-10-21 20:09:47			0	39665	0	0	0	21940	20530	155922	27100	1060702	46460	108062	0	0	8301	499995	0	0
2024-10-21 20:10:47			0	39661	0	0	0	21989	20530	155942	27157	1060782	46472	108081	0	0	8300	500143	0	0
2024-10-21 20:11:47			0	39646	0	0	0	21992	20530	155986	27039	1060755	46483	108082	0	0	8299	500701	0	0
2024-10-21 20:12:47			0	39653	0	0	0	21999	20530	155998	26871	1060835	46472	108085	0	0	8299	500441	0	0
2024-10-21 20:13:47			0	39650	0	0	0	22002	20530	155998	26955	1060826	46493	108086	0	0	8299	500552	0	0
2024-10-21 20:14:47			0	39657	0	0	0	21986	20550	155938	27279	1060826	46495	108080	0	0	8299	500237	0	0
2024-10-21 20:15:47			0	39659	0	0	0	21973	20530	155986	27121	1060835	46494	108075	0	0	8300	500218	0	0
2024-10-21 20:16:47			0	39663	0	0	0	22005	20540	155950	27253	1060817	46473	108087	0	0	8299	500041	0	0
2024-10-21 20:17:47			0	39644	0	0	0	22012	20530	155950	27097	1060861	46494	108090	0	0	8298	500776	0	0
2024-10-21 20:18:47			0	39621	0	0	0	22012	20540	156086	27012	1060897	46484	108090	0	0	8297	501604	0	0
2024-10-21 20:19:47			0	39613	0	0	0	21994	20550	156066	27223	1060968	46484	108083	0	0	8297	501874	0	0
2024-10-21 20:20:47			0	39620	0	0	0	21966	20540	156034	26705	1060897	46495	108072	0	0	8298	501641	0	0
2024-10-21 20:21:47			0	39639	0	0	0	21984	20530	155974	27109	1060915	46472	108079	0	0	8298	500962	0	0
2024-10-21 20:22:47			0	39630	0	0	0	21994	20540	155926	27246	1060870	46473	108083	0	0	8298	501269	0	0
2024-10-21 20:23:47			0	39617	0	0	0	22007	20540	156114	27490	1060817	46473	108088	0	0	8297	501753	0	0
2024-10-21 20:24:47			0	39589	0	0	0	22005	20550	156198	27092	1060906	46505	108087	0	0	8295	502768	0	0
2024-10-21 20:25:47			0	39607	0	0	0	22018	20550	156118	27303	1060959	46495	108092	0	0	8296	502098	0	0
2024-10-21 20:26:47			0	39571	0	0	0	22015	20550	156230	26956	1060933	46495	108091	0	0	8294	503440	0	0
2024-10-21 20:27:47			0	39574	0	0	0	22012	20550	156194	27067	1060933	46505	108090	0	0	8294	503328	0	0
2024-10-21 20:28:47			0	39574	0	0	0	22015	20550	156222	27145	1060906	46484	108091	0	0	8294	503328	0	0
2024-10-21 20:29:47			0	39599	0	0	0	22023	20550	156286	27133	1060915	46505	108094	0	0	8295	502396	0	0
2024-10-21 20:30:47			0	39579	0	0	0	22015	20560	156218	27050	1060924	46485	108091	0	0	8295	503114	0	0
2024-10-21 20:31:47			0	39581	0	0	0	22020	20550	156194	27166	1060942	46495	108093	0	0	8295	503067	0	0
2024-10-21 20:32:47			0	39600	0	0	0	22015	20560	156258	26833	1061013	46486	108091	0	0	8296	502331	0	0
2024-10-21 20:33:47			0	39605	0	0	0	22025	20560	156150	26894	1060933	46497	108095	0	0	8296	502144	0	0
2024-10-21 20:34:47			0	39620	0	0	0	22015	20560	156086	27138	1060986	46497	108091	0	0	8297	501586	0	0
2024-10-21 20:35:47			0	39633	0	0	0	22020	20570	156162	27235	1061031	46497	108093	0	0	8298	501074	0	0
2024-10-21 20:36:47			0	39619	0	0	0	22007	20570	156082	27300	1060969	46475	108088	0	0	8297	501595	0	0
2024-10-21 20:37:47			0	39629	0	0	0	21999	20570	156030	27012	1060978	46463	108085	0	0	8298	501223	0	0
2024-10-21 20:38:47			0	39613	0	0	0	21997	20570	155950	26942	1060969	46486	108084	0	0	8297	501819	0	0
2024-10-21 20:39:47			0	39633	0	0	0	21992	20570	156118	27204	1060969	46486	108082	0	0	8298	501074	0	0
2024-10-21 20:40:47			0	39638	0	0	0	21986	20570	156110	26961	1060915	46475	108080	0	0	8298	500888	0	0
2024-10-21 20:41:47			0	39640	0	0	0	21976	20570	155998	27202	1060915	46475	108076	0	0	8299	500814	0	0
2024-10-21 20:42:47			0	39631	0	0	0	21963	20550	156010	27131	1060888	46484	108071	0	0	8298	501204	0	0
2024-10-21 20:43:47			0	39615	0	0	0	21963	20570	156050	27164	1060889	46486	108071	0	0	8298	501744	0	0
2024-10-21 20:44:47			0	39606	0	0	0	21968	20550	156054	27086	1060915	46484	108073	0	0	8297	502135	0	0
2024-10-21 20:45:47			0	39586	0	0	0	21976	20550	156086	27119	1060826	46473	108076	0	0	8296	502880	0	0
2024-10-21 20:46:47			0	39567	0	0	0	21968	20550	156170	27300	1060782	46473	108073	0	0	8295	503589	0	0
2024-10-21 20:47:47			0	39572	0	0	0	21971	20550	156318	27053	1060879	46484	108074	0	0	8295	503402	0	0
2024-10-21 20:48:47			0	39561	0	0	0	21971	20530	156322	27156	1060773	46493	108074	0	0	8294	503869	0	0
2024-10-21 20:49:47			0	39573	0	0	0	21979	20550	156346	27287	1060800	46473	108077	0	0	8295	503365	0	0
2024-10-21 20:50:47			0	39557	0	0	0	21966	20550	156346	27196	1060853	46484	108072	0	0	8294	503962	0	0
2024-10-21 20:51:47			0	39537	0	0	0	21971	20550	156482	27428	1060853	46473	108074	0	0	8293	504709	0	0
2024-10-21 20:52:47			0	39520	0	0	0	21986	20530	156434	27052	1060861	46483	108080	0	0	8291	505401	0	0
2024-10-21 20:53:47			0	39515	0	0	0	21979	20550	156418	27003	1060879	46473	108077	0	0	8291	505532	0	0
2024-10-21 20:54:47			0	39495	0	0	0	21986	20550	156486	27274	1060906	46484	108080	0	0	8290	506280	0	0
2024-10-21 20:55:47			0	39493	0	0	0	21984	20530	156538	27130	1060835	46472	108079	0	0	8290	506411	0	0
2024-10-21 20:56:47			0	39474	0	0	0	21986	20530	156550	27213	1060861	46472	108080	0	0	8289	507122	0	0
2024-10-21 20:57:47			0	39470	0	0	0	21984	20550	156646	27194	1060888	46484	108079	0	0	8289	507216	0	0
2024-10-21 20:58:47			0	39458	0	0	0	21984	20550	156750	26993	1060933	46495	108079	0	0	8288	507666	0	0
2024-10-21 20:59:47			0	39420	0	0	0	21973	20550	156778	27253	1060933	46484	108075	0	0	8286	509092	0	0
2024-10-21 21:00:47			0	39411	0	0	0	21971	20550	156805	27062	1060915	46484	108074	0	0	8286	509430	0	0
2024-10-21 21:01:47			0	39411	0	0	0	21955	20550	156813	27182	1060853	46484	108068	0	0	8286	509430	0	0
2024-10-21 21:02:47			0	39421	0	0	0	21945	20550	156765	27194	1060906	46473	108064	0	0	8287	509054	0	0
2024-10-21 21:03:47			0	39473	0	0	0	21927	20550	156754	26883	1060826	46473	108057	0	0	8290	507104	0	0
2024-10-21 21:04:47			0	39428	0	0	0	21922	20540	156766	27362	1060764	46461	108055	0	0	8287	508820	0	0
2024-10-21 21:05:47			0	39457	0	0	0	21919	20520	156686	27170	1060737	46471	108054	0	0	8289	507788	0	0
2024-10-21 21:06:47			0	39450	0	0	0	21909	20520	156658	27312	1060737	46471	108050	0	0	8289	508050	0	0
2024-10-21 21:07:47			0	39410	0	0	0	21927	20520	156774	27081	1060675	46458	108057	0	0	8286	509552	0	0
2024-10-21 21:08:47			0	39372	0	0	0	21942	20510	156965	26887	1060719	46470	108063	0	0	8284	511009	0	0
2024-10-21 21:09:47			0	39307	0	0	0	21942	20500	157217	27197	1060701	46467	108063	0	0	8280	513487	0	0
2024-10-21 21:10:47			0	39265	0	0	0	21937	20510	157421	27390	1060693	46481	108061	0	0	8277	515045	0	0
2024-10-21 21:11:47			0	39252	0	0	0	21942	20510	157369	27261	1060737	46468	108063	0	0	8277	515537	0	0
2024-10-21 21:12:47			0	39240	0	0	0	21937	20510	157437	27303	1060657	46468	108061	0	0	8276	515991	0	0
2024-10-21 21:13:47			0	39245	0	0	0	21924	20510	157445	27227	1060737	46480	108056	0	0	8277	515802	0	0
2024-10-21 21:14:47			0	39260	0	0	0	21929	20510	157513	27358	1060684	46468	108058	0	0	8277	515234	0	0
2024-10-21 21:15:47			0	39239	0	0	0	21932	20500	157469	27313	1060675	46467	108059	0	0	8276	516058	0	0
2024-10-21 21:16:47			0	39241	0	0	0	21916	20500	157509	26963	1060666	46479	108053	0	0	8276	515982	0	0
2024-10-21 21:17:47			0	39257	0	0	0	21916	20490	157505	27176	1060657	46490	108053	0	0	8277	515405	0	0
2024-10-21 21:18:47			0	39230	0	0	0	21932	20500	157505	27422	1060612	46479	108059	0	0	8275	516398	0	0
2024-10-21 21:19:47			0	39225	0	0	0	21940	20490	157649	27046	1060630	46479	108062	0	0	8275	516616	0	0
2024-10-21 21:20:47			0	39189	0	0	0	21940	20490	157765	27107	1060674	46478	108062	0	0	8273	517981	0	0
2024-10-21 21:21:47			0	39169	0	0	0	21935	20490	157849	27176	1060648	46478	108060	0	0	8272	518740	0	0
2024-10-21 21:22:47			0	39154	0	0	0	21914	20500	157881	27303	1060666	46479	108052	0	0	8271	519281	0	0
2024-10-21 21:23:47			0	39148	0	0	0	21903	20490	157909	27256	1060630	46479	108048	0	0	8271	519537	0	0
2024-10-21 21:24:47			0	39124	0	0	0	21903	20490	157957	27209	1060630	46467	108048	0	0	8270	520450	0	0
2024-10-21 21:25:47			0	39123	0	0	0	21909	20480	157949	27007	1060559	46466	108050	0	0	8270	520517	0	0
2024-10-21 21:26:47			0	39120	0	0	0	21906	20490	157969	27081	1060594	46456	108049	0	0	8270	520602	0	0
2024-10-21 21:27:47			0	39109	0	0	0	21914	20490	157965	27093	1060594	46478	108052	0	0	8269	521021	0	0
2024-10-21 21:28:47			0	39108	0	0	0	21916	20490	158093	27147	1060568	46478	108053	0	0	8269	521059	0	0
2024-10-21 21:29:47			0	39088	0	0	0	21927	20490	158197	27020	1060648	46467	108057	0	0	8267	521820	0	0
2024-10-21 21:30:47			0	39076	0	0	0	21927	20480	158177	27379	1060532	46477	108057	0	0	8267	522307	0	0
2024-10-21 21:31:47			0	39065	0	0	0	21937	20490	158177	27029	1060674	46489	108061	0	0	8266	522697	0	0
2024-10-21 21:32:47			0	39061	0	0	0	21927	20490	158269	27526	1060621	46478	108057	0	0	8266	522850	0	0
2024-10-21 21:33:47			0	39033	0	0	0	21916	20470	158293	27282	1060594	46466	108053	0	0	8264	523976	0	0
2024-10-21 21:34:47			0	39048	0	0	0	21901	20480	158285	27464	1060612	46477	108047	0	0	8265	523375	0	0
2024-10-21 21:35:47			0	39054	0	0	0	21880	20480	158281	26970	1060639	46477	108039	0	0	8266	523146	0	0
2024-10-21 21:36:47			0	39058	0	0	0	21883	20480	158165	27093	1060585	46466	108040	0	0	8266	522993	0	0
2024-10-21 21:37:47			0	39074	0	0	0	21867	20470	158249	27440	1060514	46466	108034	0	0	8267	522412	0	0
2024-10-21 21:38:47			0	39056	0	0	0	21862	20470	158153	27294	1060558	46464	108032	0	0	8266	523098	0	0
2024-10-21 21:39:47			0	39052	0	0	0	21859	20450	158249	27230	1060451	46453	108031	0	0	8266	523309	0	0
2024-10-21 21:40:47			0	39047	0	0	0	21880	20470	158213	27235	1060505	46464	108039	0	0	8266	523442	0	0
2024-10-21 21:41:47			0	39041	0	0	0	21880	20450	158261	27310	1060451	46463	108039	0	0	8265	523729	0	0
2024-10-21 21:42:47			0	39051	0	0	0	21880	20470	158249	26868	1060505	46476	108039	0	0	8266	523289	0	0
2024-10-21 21:43:47			0	39050	0	0	0	21880	20470	158289	27242	1060558	46464	108039	0	0	8266	523327	0	0
2024-10-21 21:44:47			0	39062	0	0	0	21883	20450	158245	27144	1060469	46452	108040	0	0	8266	522927	0	0
2024-10-21 21:45:47			0	39041	0	0	0	21888	20450	158273	27253	1060505	46463	108042	0	0	8265	523729	0	0
2024-10-21 21:46:47			0	39026	0	0	0	21875	20450	158321	27300	1060496	46474	108037	0	0	8264	524302	0	0
2024-10-21 21:47:47			0	39028	0	0	0	21883	20450	158317	27057	1060451	46475	108040	0	0	8264	524225	0	0
2024-10-21 21:48:47			0	39035	0	0	0	21890	20460	158449	26953	1060549	46463	108043	0	0	8265	523929	0	0
2024-10-21 21:49:47			0	39023	0	0	0	21880	20450	158409	27234	1060478	46475	108039	0	0	8264	524416	0	0
2024-10-21 21:50:47			0	39005	0	0	0	21888	20450	158505	26923	1060531	46475	108042	0	0	8263	525104	0	0
2024-10-21 21:51:47			0	39009	0	0	0	21883	20460	158497	27270	1060540	46475	108040	0	0	8263	524923	0	0
2024-10-21 21:52:47			0	38962	0	0	0	21880	20450	158509	27326	1060531	46463	108039	0	0	8261	526751	0	0
2024-10-21 21:53:47			0	38983	0	0	0	21870	20450	158521	27365	1060478	46463	108035	0	0	8262	525946	0	0
2024-10-21 21:54:47			0	38964	0	0	0	21877	20440	158593	27251	1060433	46473	108038	0	0	8261	526703	0	0
2024-10-21 21:55:47			0	38972	0	0	0	21862	20440	158605	26955	1060380	46461	108032	0	0	8261	526397	0	0
2024-10-21 21:56:47			0	38964	0	0	0	21875	20450	158637	26993	1060336	46462	108037	0	0	8261	526674	0	0
2024-10-21 21:57:47			0	38958	0	0	0	21875	20440	158625	27024	1060380	46473	108037	0	0	8260	526933	0	0
2024-10-21 21:58:47			0	38960	0	0	0	21870	20440	158597	27284	1060407	46473	108035	0	0	8261	526856	0	0
2024-10-21 21:59:47			0	38956	0	0	0	21872	20440	158677	26994	1060460	46484	108036	0	0	8260	527010	0	0
2024-10-21 22:00:47			0	38946	0	0	0	21872	20440	158633	27383	1060424	46460	108036	0	0	8260	527393	0	0
2024-10-21 22:01:47			0	38938	0	0	0	21862	20440	158813	27140	1060433	46484	108032	0	0	8259	527700	0	0
2024-10-21 22:02:47			0	38933	0	0	0	21854	20430	158785	27171	1060442	46472	108029	0	0	8259	527921	0	0
2024-10-21 22:03:47			0	38916	0	0	0	21854	20440	158837	27234	1060345	46472	108029	0	0	8258	528544	0	0
2024-10-21 22:04:47			0	38908	0	0	0	21862	20430	158889	27213	1060415	46472	108032	0	0	8258	528881	0	0
2024-10-21 22:05:47			0	38890	0	0	0	21851	20430	158921	26934	1060353	46472	108028	0	0	8257	529572	0	0
2024-10-21 22:06:47			0	38881	0	0	0	21859	20430	158861	27147	1060362	46472	108031	0	0	8256	529918	0	0
2024-10-21 22:07:47			0	38897	0	0	0	21857	20430	158829	27109	1060353	46460	108030	0	0	8257	529303	0	0
2024-10-21 22:08:47			0	38915	0	0	0	21857	20430	158805	27369	1060406	46472	108030	0	0	8258	528612	0	0
2024-10-21 22:09:47			0	38922	0	0	0	21846	20430	158753	27008	1060309	46472	108026	0	0	8259	528343	0	0
2024-10-21 22:10:47			0	38905	0	0	0	21849	20420	158781	26967	1060344	46471	108027	0	0	8258	529025	0	0
2024-10-21 22:11:47			0	38939	0	0	0	21844	20420	158705	27331	1060362	46458	108025	0	0	8260	527720	0	0
2024-10-21 22:12:47			0	38968	0	0	0	21844	20420	158697	27157	1060362	46458	108025	0	0	8261	526608	0	0
2024-10-21 22:13:47			0	38962	0	0	0	21841	20430	158697	27131	1060353	46450	108024	0	0	8261	526809	0	0
2024-10-21 22:14:47			0	38964	0	0	0	21844	20420	158705	26998	1060318	46459	108025	0	0	8261	526761	0	0
2024-10-21 22:15:47			0	38947	0	0	0	21841	20430	158641	26960	1060336	46460	108024	0	0	8260	527384	0	0
2024-10-21 22:16:47			0	38926	0	0	0	21854	20420	158749	26989	1060282	46481	108029	0	0	8259	528219	0	0
2024-10-21 22:17:47			0	38916	0	0	0	21857	20420	158749	27178	1060309	46470	108030	0	0	8258	528603	0	0
2024-10-21 22:18:47			0	38902	0	0	0	21867	20410	158893	27131	1060326	46470	108034	0	0	8257	529169	0	0
2024-10-21 22:19:47			0	38896	0	0	0	21872	20420	158869	27201	1060388	46481	108036	0	0	8257	529371	0	0
2024-10-21 22:20:47			0	38897	0	0	0	21862	20420	158901	27322	1060309	46470	108032	0	0	8257	529332	0	0
2024-10-21 22:21:47			0	38868	0	0	0	21862	20430	159089	27112	1060406	46472	108032	0	0	8255	530418	0	0
2024-10-21 22:22:47			0	38869	0	0	0	21859	20430	158941	27066	1060362	46483	108031	0	0	8255	530380	0	0
2024-10-21 22:23:47			0	38890	0	0	0	21862	20430	158901	27015	1060433	46472	108032	0	0	8257	529572	0	0
2024-10-21 22:24:47			0	38897	0	0	0	21862	20420	158937	27296	1060424	46471	108032	0	0	8257	529332	0	0
2024-10-21 22:25:47			0	38892	0	0	0	21859	20420	158929	27085	1060371	46459	108031	0	0	8257	529525	0	0
2024-10-21 22:26:47			0	38902	0	0	0	21857	20420	158849	27114	1060371	46482	108030	0	0	8257	529140	0	0
2024-10-21 22:27:47			0	38899	0	0	0	21851	20420	158913	27206	1060344	46459	108028	0	0	8257	529256	0	0
2024-10-21 22:28:47			0	38893	0	0	0	21836	20420	158833	27150	1060318	46482	108022	0	0	8257	529486	0	0
2024-10-21 22:29:47			0	38874	0	0	0	21841	20420	158929	26885	1060282	46470	108024	0	0	8256	530217	0	0
2024-10-21 22:30:47			0	38872	0	0	0	21841	20430	158989	27192	1060300	46460	108024	0	0	8256	530264	0	0
2024-10-21 22:31:47			0	38882	0	0	0	21836	20410	159005	27287	1060299	46470	108022	0	0	8257	529938	0	0
2024-10-21 22:32:47			0	38847	0	0	0	21836	20400	159045	27364	1060228	46469	108022	0	0	8254	531315	0	0
2024-10-21 22:33:47			0	38849	0	0	0	21838	20420	159049	27166	1060318	46459	108023	0	0	8255	531179	0	0
2024-10-21 22:34:47			0	38848	0	0	0	21828	20410	159109	27197	1060326	46448	108019	0	0	8255	531247	0	0
2024-10-21 22:35:47			0	38842	0	0	0	21818	20410	159045	27137	1060299	46458	108015	0	0	8255	531478	0	0
2024-10-21 22:36:47			0	38833	0	0	0	21831	20410	159197	27351	1060237	46470	108020	0	0	8254	531825	0	0
2024-10-21 22:37:47			0	38808	0	0	0	21820	20410	159321	27287	1060211	46470	108016	0	0	8252	532789	0	0
2024-10-21 22:38:47			0	38759	0	0	0	21851	20410	159425	27362	1060264	46458	108028	0	0	8249	534681	0	0
2024-10-21 22:39:47			0	38717	0	0	0	21854	20400	159556	27248	1060175	46458	108029	0	0	8247	536336	0	0
2024-10-21 22:40:47			0	38706	0	0	0	21841	20410	159544	27327	1060290	46458	108024	0	0	8246	536733	0	0
2024-10-21 22:41:47			0	38714	0	0	0	21838	20420	159688	26916	1060335	46470	108023	0	0	8247	536393	0	0
2024-10-21 22:42:47			0	38682	0	0	0	21838	20400	159708	26989	1060281	46458	108023	0	0	8245	537693	0	0
2024-10-21 22:43:47			0	38676	0	0	0	21838	20400	159756	26958	1060299	46467	108023	0	0	8244	537926	0	0
2024-10-21 22:44:47			0	38677	0	0	0	21841	20400	159720	27284	1060246	46467	108024	0	0	8244	537887	0	0
2024-10-21 22:45:47			0	38662	0	0	0	21844	20410	159828	26996	1060290	46458	108025	0	0	8244	538439	0	0
2024-10-21 22:46:47			0	38655	0	0	0	21849	20410	159728	27133	1060326	46448	108027	0	0	8243	538711	0	0
2024-10-21 22:47:47			0	38651	0	0	0	21854	20410	159800	26961	1060264	46481	108029	0	0	8243	538866	0	0
2024-10-21 22:48:47			0	38652	0	0	0	21849	20410	159892	27343	1060264	46458	108027	0	0	8243	538828	0	0
2024-10-21 22:49:47			0	38643	0	0	0	21838	20400	159908	27048	1060281	46447	108023	0	0	8243	539207	0	0
2024-10-21 22:50:47			0	38634	0	0	0	21841	20400	159968	27052	1060281	46469	108024	0	0	8242	539557	0	0
2024-10-21 22:51:47			0	38625	0	0	0	21833	20410	159976	27248	1060290	46458	108021	0	0	8242	539877	0	0
2024-10-21 22:52:47			0	38603	0	0	0	21838	20400	159988	27163	1060255	46469	108023	0	0	8240	540763	0	0
2024-10-21 22:53:47			0	38610	0	0	0	21838	20400	160000	27301	1060272	46457	108023	0	0	8241	540490	0	0
2024-10-21 22:54:47			0	38600	0	0	0	21833	20400	160104	27079	1060281	46458	108021	0	0	8240	540880	0	0
2024-10-21 22:55:47			0	38592	0	0	0	21828	20410	160072	27412	1060273	46470	108019	0	0	8240	541161	0	0
2024-10-21 22:56:47			0	38590	0	0	0	21833	20400	160248	26880	1060228	46458	108021	0	0	8240	541269	0	0
2024-10-21 22:57:47			0	38586	0	0	0	21833	20400	160060	27298	1060299	46457	108021	0	0	8239	541425	0	0
2024-10-21 22:58:47			0	38577	0	0	0	21828	20400	160104	27372	1060335	46469	108019	0	0	8239	541776	0	0
2024-10-21 22:59:47			0	38592	0	0	0	21828	20410	160096	27265	1060290	46470	108019	0	0	8240	541161	0	0
2024-10-21 23:00:47			0	38579	0	0	0	21825	20400	160104	27218	1060193	46467	108018	0	0	8239	541698	0	0
2024-10-21 23:01:47			0	38555	0	0	0	21815	20400	160168	27170	1060308	46458	108014	0	0	8238	542634	0	0
2024-10-21 23:02:47			0	38529	0	0	0	21831	20410	160300	27241	1060211	46470	108020	0	0	8236	543618	0	0
2024-10-21 23:03:47			0	38525	0	0	0	21818	20400	160336	26902	1060246	46457	108015	0	0	8236	543805	0	0
2024-10-21 23:04:47			0	38527	0	0	0	21831	20390	160360	27383	1060210	46467	108020	0	0	8236	543756	0	0
2024-10-21 23:05:47			0	38524	0	0	0	21828	20390	160384	27048	1060184	46467	108019	0	0	8236	543874	0	0
2024-10-21 23:06:47			0	38531	0	0	0	21831	20390	160320	27367	1060210	46446	108020	0	0	8236	543600	0	0
2024-10-21 23:07:47			0	38526	0	0	0	21833	20390	160284	27495	1060237	46457	108021	0	0	8236	543796	0	0
2024-10-21 23:08:47			0	38530	0	0	0	21838	20390	160272	27294	1060237	46467	108023	0	0	8236	543639	0	0
2024-10-21 23:09:47			0	38520	0	0	0	21833	20400	160320	27083	1060272	46457	108021	0	0	8235	544000	0	0
2024-10-21 23:10:47			0	38534	0	0	0	21825	20400	160284	27395	1060246	46467	108018	0	0	8236	543453	0	0
2024-10-21 23:11:47			0	38526	0	0	0	21825	20390	160368	27315	1060237	46457	108018	0	0	8236	543796	0	0
2024-10-21 23:12:47			0	38529	0	0	0	21823	20400	160328	27244	1060272	46479	108017	0	0	8236	543648	0	0
2024-10-21 23:13:47			0	38533	0	0	0	21823	20400	160444	27357	1060193	46467	108017	0	0	8236	543492	0	0
2024-10-21 23:14:47			0	38534	0	0	0	21820	20400	160416	27187	1060246	46479	108016	0	0	8236	543453	0	0
2024-10-21 23:15:47			0	38526	0	0	0	21823	20390	160348	26909	1060237	46467	108017	0	0	8236	543796	0	0
2024-10-21 23:16:47			0	38502	0	0	0	21818	20390	160372	26837	1060237	46467	108015	0	0	8235	544734	0	0
2024-10-21 23:17:47			0	38492	0	0	0	21810	20390	160460	27362	1060210	46467	108012	0	0	8234	545125	0	0
2024-10-21 23:18:47			0	38479	0	0	0	21812	20390	160516	27041	1060148	46457	108013	0	0	8233	545633	0	0
2024-10-21 23:19:47			0	38488	0	0	0	21810	20400	160504	26949	1060193	46467	108012	0	0	8234	545251	0	0
2024-10-21 23:20:47			0	38476	0	0	0	21818	20390	160556	27220	1060148	46467	108015	0	0	8233	545751	0	0
2024-10-21 23:21:47			0	38463	0	0	0	21810	20380	160612	27329	1060166	46478	108012	0	0	8232	546290	0	0
2024-10-21 23:22:47			0	38469	0	0	0	21802	20380	160600	26984	1060219	46467	108009	0	0	8233	546055	0	0
2024-10-21 23:23:47			0	38461	0	0	0	21810	20390	160688	27260	1060175	46479	108012	0	0	8232	546338	0	0
2024-10-21 23:24:47			0	38456	0	0	0	21812	20380	160680	26831	1060166	46456	108013	0	0	8232	546564	0	0
2024-10-21 23:25:47			0	38445	0	0	0	21818	20390	160844	26994	1060201	46467	108015	0	0	8231	546965	0	0
2024-10-21 23:26:47			0	38454	0	0	0	21815	20380	160644	27164	1060192	46467	108014	0	0	8232	546643	0	0
2024-10-21 23:27:47			0	38446	0	0	0	21815	20380	160736	27140	1060246	46467	108014	0	0	8231	546956	0	0
2024-10-21 23:28:47			0	38455	0	0	0	21818	20380	160768	26767	1060192	46456	108015	0	0	8232	546603	0	0
2024-10-21 23:29:47			0	38446	0	0	0	21818	20390	160696	27005	1060228	46457	108015	0	0	8231	546926	0	0
2024-10-21 23:30:47			0	38420	0	0	0	21812	20390	160808	27064	1060175	46457	108013	0	0	8230	547946	0	0
2024-10-21 23:31:47			0	38422	0	0	0	21820	20390	160872	27012	1060201	46467	108016	0	0	8230	547867	0	0
2024-10-21 23:32:47			0	38421	0	0	0	21815	20370	160800	27074	1060121	46454	108014	0	0	8230	547967	0	0
2024-10-21 23:33:47			0	38420	0	0	0	21818	20390	160868	27227	1060175	46467	108015	0	0	8230	547946	0	0
2024-10-21 23:34:47			0	38404	0	0	0	21807	20380	160856	27213	1060139	46467	108011	0	0	8229	548604	0	0
2024-10-21 23:35:47			0	38409	0	0	0	21797	20380	160836	26896	1060183	46466	108007	0	0	8229	548408	0	0
2024-10-21 23:36:47			0	38399	0	0	0	21807	20390	160916	27353	1060228	46457	108011	0	0	8229	548770	0	0
2024-10-21 23:37:47			0	38402	0	0	0	21807	20380	161000	27173	1060210	46455	108011	0	0	8229	548683	0	0
2024-10-21 23:38:47			0	38375	0	0	0	21815	20380	160888	27234	1060166	46467	108014	0	0	8227	549744	0	0
2024-10-21 23:39:47			0	38365	0	0	0	21810	20380	161120	27107	1060237	46455	108012	0	0	8227	550137	0	0
2024-10-21 23:40:47			0	38372	0	0	0	21810	20370	161140	26809	1060095	46454	108012	0	0	8227	549892	0	0
2024-10-21 23:41:47			0	38371	0	0	0	21805	20370	161148	27154	1060148	46465	108010	0	0	8227	549932	0	0
2024-10-21 23:42:47			0	38377	0	0	0	21792	20380	161040	27223	1060130	46466	108005	0	0	8228	549665	0	0
2024-10-21 23:43:47			0	38383	0	0	0	21794	20370	161168	27112	1060148	46465	108006	0	0	8228	549460	0	0
2024-10-21 23:44:47			0	38353	0	0	0	21802	20380	161132	27241	1060183	46455	108009	0	0	8226	550610	0	0
2024-10-21 23:45:47			0	38318	0	0	0	21799	20360	161252	27144	1060077	46454	108008	0	0	8224	552049	0	0
2024-10-21 23:46:47			0	38303	0	0	0	21794	20370	161400	27031	1060068	46454	108006	0	0	8223	552610	0	0
2024-10-21 23:47:47			0	38291	0	0	0	21786	20370	161380	27346	1060059	46454	108003	0	0	8223	553084	0	0
2024-10-21 23:48:47			0	38276	0	0	0	21776	20370	161448	27062	1060095	46465	107999	0	0	8222	553676	0	0
2024-10-21 23:49:47			0	38260	0	0	0	21771	20360	161608	26873	1060077	46443	107997	0	0	8221	554339	0	0
2024-10-21 23:50:47			0	38238	0	0	0	21774	20370	161620	27053	1060032	46465	107998	0	0	8220	555178	0	0
2024-10-21 23:51:47			0	38242	0	0	0	21763	20360	161524	27118	1060050	46443	107994	0	0	8220	555051	0	0
2024-10-21 23:52:47			0	38235	0	0	0	21771	20360	161528	27043	1060050	46476	107997	0	0	8220	555328	0	0
2024-10-21 23:53:47			0	38230	0	0	0	21761	20360	161568	27033	1060068	46453	107993	0	0	8220	555526	0	0
2024-10-21 23:54:47			0	38242	0	0	0	21753	20350	161628	27277	1060032	46452	107990	0	0	8220	555081	0	0
2024-10-21 23:55:47			0	38223	0	0	0	21742	20340	161552	26767	1059978	46461	107986	0	0	8219	555864	0	0
2024-10-21 23:56:47			0	38244	0	0	0	21745	20340	161604	27152	1059934	46462	107987	0	0	8221	555033	0	0
2024-10-21 23:57:47			0	38253	0	0	0	21745	20340	161624	27223	1059952	46451	107987	0	0	8221	554677	0	0
2024-10-21 23:58:47			0	38276	0	0	0	21755	20330	161568	27227	1059943	46460	107991	0	0	8222	553799	0	0
2024-10-21 23:59:47			0	38264	0	0	0	21750	20340	161528	26819	1059952	46451	107989	0	0	8222	554242	0	0
2024-10-22 00:00:47			0	38281	0	0	0	21748	20340	161504	26984	1059872	46440	107988	0	0	8223	553571	0	0
2024-10-22 00:01:47			0	38296	0	0	0	21742	20330	161460	27100	1059880	46460	107986	0	0	8224	553009	0	0
2024-10-22 00:02:47			0	38284	0	0	0	21753	20320	161364	27046	1059889	46459	107990	0	0	8223	553513	0	0
2024-10-22 00:03:47			0	38301	0	0	0	21750	20320	161404	27176	1059889	46449	107989	0	0	8224	552842	0	0
2024-10-22 00:04:47			0	38299	0	0	0	21735	20330	161284	27196	1059880	46450	107983	0	0	8224	552890	0	0
2024-10-22 00:05:47			0	38294	0	0	0	21732	20330	161436	27067	1059880	46450	107982	0	0	8224	553088	0	0
2024-10-22 00:06:47			0	38319	0	0	0	21724	20320	161336	27043	1059792	46450	107979	0	0	8225	552132	0	0
2024-10-22 00:07:47			0	38312	0	0	0	21729	20310	161272	27403	1059827	46448	107981	0	0	8225	552438	0	0
2024-10-22 00:08:47			0	38323	0	0	0	21732	20310	161200	27414	1059880	46448	107982	0	0	8225	552005	0	0
2024-10-22 00:09:47			0	38327	0	0	0	21732	20310	161084	27348	1059818	46447	107982	0	0	8225	551847	0	0
2024-10-22 00:10:47			0	38339	0	0	0	21727	20310	161048	27338	1059774	46448	107980	0	0	8226	551374	0	0
2024-10-22 00:11:47			0	38347	0	0	0	21727	20310	161128	27410	1059774	46448	107980	0	0	8227	551059	0	0
2024-10-22 00:12:47			0	38381	0	0	0	21740	20310	161072	27201	1059818	46458	107985	0	0	8229	549721	0	0
2024-10-22 00:13:47			0	38386	0	0	0	21735	20300	161184	27552	1059809	46436	107983	0	0	8229	549554	0	0
2024-10-22 00:14:47			0	38365	0	0	0	21742	20300	161156	27448	1059800	46458	107986	0	0	8227	550380	0	0
2024-10-22 00:15:47			0	38383	0	0	0	21740	20310	161072	27322	1059791	46447	107985	0	0	8229	549642	0	0
2024-10-22 00:16:47			0	38378	0	0	0	21737	20310	161008	27223	1059853	46470	107984	0	0	8228	549839	0	0
2024-10-22 00:17:47			0	38379	0	0	0	21735	20300	161132	27390	1059809	46447	107983	0	0	8228	549830	0	0
2024-10-22 00:18:47			0	38383	0	0	0	21755	20300	161148	27081	1059836	46447	107991	0	0	8228	549672	0	0
2024-10-22 00:19:47			0	38392	0	0	0	21753	20300	161164	27364	1059862	46458	107990	0	0	8229	549318	0	0
2024-10-22 00:20:47			0	38383	0	0	0	21753	20310	161076	27332	1059880	46458	107990	0	0	8228	549642	0	0
2024-10-22 00:21:47			0	38380	0	0	0	21742	20310	161100	27171	1059845	46458	107986	0	0	8228	549760	0	0
2024-10-22 00:22:47			0	38392	0	0	0	21748	20310	161084	27145	1059845	46458	107988	0	0	8229	549288	0	0
2024-10-22 00:23:47			0	38383	0	0	0	21740	20310	161168	27048	1059800	46448	107985	0	0	8229	549642	0	0
2024-10-22 00:24:47			0	38377	0	0	0	21732	20310	161132	27267	1059774	46458	107982	0	0	8228	549878	0	0
2024-10-22 00:25:47			0	38376	0	0	0	21740	20310	161060	27033	1059880	46458	107985	0	0	8228	549917	0	0
2024-10-22 00:26:47			0	38361	0	0	0	21735	20310	161184	26918	1059818	46447	107983	0	0	8227	550508	0	0
2024-10-22 00:27:47			0	38367	0	0	0	21740	20320	161156	27173	1059836	46471	107985	0	0	8228	550241	0	0
2024-10-22 00:28:47			0	38374	0	0	0	21740	20310	160980	27105	1059800	46448	107985	0	0	8228	549996	0	0
2024-10-22 00:29:47			0	38368	0	0	0	21740	20310	161096	27083	1059765	46447	107985	0	0	8228	550232	0	0
2024-10-22 00:30:47			0	38368	0	0	0	21750	20300	161108	26902	1059836	46469	107989	0	0	8228	550262	0	0
2024-10-22 00:31:47			0	38359	0	0	0	21758	20310	161196	27123	1059791	46447	107992	0	0	8227	550586	0	0
2024-10-22 00:32:47			0	38364	0	0	0	21750	20310	161124	27109	1059791	46458	107989	0	0	8227	550390	0	0
2024-10-22 00:33:47			0	38372	0	0	0	21742	20310	161120	27192	1059871	46469	107986	0	0	8228	550075	0	0
2024-10-22 00:34:47			0	38373	0	0	0	21737	20300	161140	27133	1059809	46447	107984	0	0	8228	550066	0	0
2024-10-22 00:35:47			0	38351	0	0	0	21732	20300	161228	26955	1059782	46436	107982	0	0	8227	550932	0	0
2024-10-22 00:36:47			0	38352	0	0	0	21742	20310	161276	27003	1059845	46469	107986	0	0	8227	550862	0	0
2024-10-22 00:37:47			0	38349	0	0	0	21735	20300	161284	27300	1059827	46458	107983	0	0	8227	551010	0	0
2024-10-22 00:38:47			0	38331	0	0	0	21740	20300	161272	27163	1059862	46447	107985	0	0	8226	551720	0	0
2024-10-22 00:39:47			0	38333	0	0	0	21735	20310	161276	27189	1059871	46458	107983	0	0	8226	551610	0	0
2024-10-22 00:40:47			0	38337	0	0	0	21740	20310	161160	27185	1059880	46458	107985	0	0	8226	551453	0	0
2024-10-22 00:41:47			0	38331	0	0	0	21735	20310	161328	26859	1059845	46447	107983	0	0	8226	551689	0	0
2024-10-22 00:42:47			0	38329	0	0	0	21735	20310	161292	27053	1059845	46458	107983	0	0	8226	551768	0	0
2024-10-22 00:43:47			0	38339	0	0	0	21737	20300	161268	26913	1059836	46447	107984	0	0	8226	551404	0	0
2024-10-22 00:44:47			0	38326	0	0	0	21735	20300	161252	26642	1059836	46447	107983	0	0	8225	551917	0	0
2024-10-22 00:45:47			0	38323	0	0	0	21740	20300	161152	26816	1059756	46458	107985	0	0	8225	552035	0	0
2024-10-22 00:46:47			0	38331	0	0	0	21735	20300	161220	26871	1059756	46469	107983	0	0	8226	551720	0	0
2024-10-22 00:47:47			0	38317	0	0	0	21750	20300	161228	26941	1059836	46447	107989	0	0	8225	552272	0	0
2024-10-22 00:48:47			0	38327	0	0	0	21740	20310	161196	26677	1059818	46447	107985	0	0	8225	551847	0	0
2024-10-22 00:49:47			0	38324	0	0	0	21740	20300	161304	27131	1059827	46447	107985	0	0	8225	551996	0	0
2024-10-22 00:50:47			0	38330	0	0	0	21742	20300	161280	26802	1059880	46447	107986	0	0	8225	551759	0	0
2024-10-22 00:51:47			0	38321	0	0	0	21740	20300	161244	26871	1059782	46458	107985	0	0	8225	552114	0	0
2024-10-22 00:52:47			0	38325	0	0	0	21737	20310	161252	27022	1059818	46436	107984	0	0	8225	551926	0	0
2024-10-22 00:53:47			0	38309	0	0	0	21737	20300	161260	27017	1059836	46458	107984	0	0	8224	552587	0	0
2024-10-22 00:54:47			0	38294	0	0	0	21735	20300	161288	27111	1059782	46447	107983	0	0	8223	553179	0	0
2024-10-22 00:55:47			0	38316	0	0	0	21737	20300	161312	27201	1059809	46458	107984	0	0	8225	552311	0	0
2024-10-22 00:56:47			0	38295	0	0	0	21745	20290	161404	26956	1059791	46468	107987	0	0	8223	553170	0	0
2024-10-22 00:57:47			0	38294	0	0	0	21729	20310	161300	27222	1059845	46447	107981	0	0	8224	553149	0	0
2024-10-22 00:58:47			0	38289	0	0	0	21740	20310	161392	27211	1059845	46458	107985	0	0	8223	553346	0	0
2024-10-22 00:59:47			0	38266	0	0	0	21735	20310	161456	26908	1059818	46447	107983	0	0	8222	554255	0	0
2024-10-22 01:00:47			0	38268	0	0	0	21729	20300	161544	27053	1059827	46458	107981	0	0	8222	554206	0	0
2024-10-22 01:01:47			0	38271	0	0	0	21735	20300	161472	27036	1059836	46447	107983	0	0	8222	554088	0	0
2024-10-22 01:02:47			0	38254	0	0	0	21729	20300	161416	27012	1059747	46458	107981	0	0	8221	554760	0	0
2024-10-22 01:03:47			0	38254	0	0	0	21735	20310	161552	27163	1059765	46458	107983	0	0	8221	554729	0	0
2024-10-22 01:04:47			0	38257	0	0	0	21740	20300	161432	26909	1059782	46447	107985	0	0	8221	554641	0	0
2024-10-22 01:05:47			0	38275	0	0	0	21729	20290	161520	26982	1059844	46446	107981	0	0	8222	553960	0	0
2024-10-22 01:06:47			0	38275	0	0	0	21729	20300	161432	26778	1059800	46469	107981	0	0	8222	553930	0	0
2024-10-22 01:07:47			0	38267	0	0	0	21735	20300	161416	27017	1059800	46458	107983	0	0	8222	554246	0	0
2024-10-22 01:08:47			0	38278	0	0	0	21737	20290	161436	27150	1059791	46457	107984	0	0	8222	553842	0	0
2024-10-22 01:09:47			0	38270	0	0	0	21735	20300	161424	27215	1059809	46458	107983	0	0	8222	554127	0	0
2024-10-22 01:10:47			0	38277	0	0	0	21727	20300	161468	27246	1059782	46447	107980	0	0	8223	553851	0	0
2024-10-22 01:11:47			0	38271	0	0	0	21727	20300	161644	27123	1059853	46469	107980	0	0	8222	554088	0	0
2024-10-22 01:12:47			0	38268	0	0	0	21732	20290	161564	26904	1059764	46457	107982	0	0	8222	554237	0	0
2024-10-22 01:13:47			0	38253	0	0	0	21727	20300	161572	26923	1059800	46458	107980	0	0	8221	554800	0	0
2024-10-22 01:14:47			0	38265	0	0	0	21727	20300	161580	27232	1059809	46458	107980	0	0	8222	554325	0	0
2024-10-22 01:15:47			0	38244	0	0	0	21729	20290	161568	27067	1059764	46468	107981	0	0	8221	555186	0	0
2024-10-22 01:16:47			0	38232	0	0	0	21722	20290	161640	27237	1059738	46457	107978	0	0	8220	555661	0	0
2024-10-22 01:17:47			0	38231	0	0	0	21722	20290	161736	27145	1059782	46445	107978	0	0	8220	555701	0	0
2024-10-22 01:18:47			0	38244	0	0	0	21722	20290	161632	27081	1059764	46446	107978	0	0	8221	555186	0	0
2024-10-22 01:19:47			0	38229	0	0	0	21732	20300	161632	26956	1059800	46447	107982	0	0	8220	555749	0	0
2024-10-22 01:20:47			0	38234	0	0	0	21729	20290	161660	27170	1059711	46446	107981	0	0	8220	555582	0	0
2024-10-22 01:21:47			0	38220	0	0	0	21722	20290	161716	27007	1059791	46446	107978	0	0	8219	556137	0	0
2024-10-22 01:22:47			0	38222	0	0	0	21719	20290	161716	27346	1059764	46457	107977	0	0	8219	556057	0	0
2024-10-22 01:23:47			0	38219	0	0	0	21719	20300	161768	27142	1059809	46436	107977	0	0	8219	556145	0	0
2024-10-22 01:24:47			0	38207	0	0	0	21714	20300	161712	27270	1059773	46458	107975	0	0	8219	556621	0	0
2024-10-22 01:25:47			0	38226	0	0	0	21716	20290	161820	27112	1059818	46457	107976	0	0	8220	555899	0	0
2024-10-22 01:26:47			0	38197	0	0	0	21714	20290	161712	27078	1059818	46468	107975	0	0	8218	557048	0	0
2024-10-22 01:27:47			0	38220	0	0	0	21722	20290	161764	27083	1059702	46434	107978	0	0	8219	556137	0	0
2024-10-22 01:28:47			0	38208	0	0	0	21724	20290	161720	27253	1059755	46434	107979	0	0	8219	556612	0	0
2024-10-22 01:29:47			0	38237	0	0	0	21719	20290	161632	26928	1059755	46445	107977	0	0	8220	555463	0	0
2024-10-22 01:30:47			0	38218	0	0	0	21719	20290	161640	27064	1059711	46446	107977	0	0	8219	556216	0	0
2024-10-22 01:31:47			0	38238	0	0	0	21719	20290	161652	27107	1059702	46456	107977	0	0	8220	555424	0	0
2024-10-22 01:32:47			0	38229	0	0	0	21724	20290	161688	27156	1059755	46467	107979	0	0	8220	555780	0	0
2024-10-22 01:33:47			0	38247	0	0	0	21722	20280	161688	27234	1059720	46456	107978	0	0	8221	555098	0	0
2024-10-22 01:34:47			0	38229	0	0	0	21722	20300	161636	26736	1059720	46458	107978	0	0	8220	555749	0	0
2024-10-22 01:35:47			0	38219	0	0	0	21722	20280	161656	27301	1059667	46445	107978	0	0	8219	556207	0	0
2024-10-22 01:36:47			0	38240	0	0	0	21716	20290	161788	27277	1059755	46456	107976	0	0	8221	555345	0	0
2024-10-22 01:37:47			0	38223	0	0	0	21722	20290	161756	26871	1059764	46446	107978	0	0	8219	556018	0	0
2024-10-22 01:38:47			0	38194	0	0	0	21716	20280	161788	26863	1059720	46445	107976	0	0	8218	557198	0	0
2024-10-22 01:39:47			0	38204	0	0	0	21714	20280	161676	27216	1059720	46456	107975	0	0	8218	556801	0	0
2024-10-22 01:40:47			0	38185	0	0	0	21711	20290	161820	27052	1059835	46456	107974	0	0	8217	557524	0	0
2024-10-22 01:41:47			0	38202	0	0	0	21714	20290	161812	26942	1059702	46445	107975	0	0	8218	556850	0	0
2024-10-22 01:42:47			0	38204	0	0	0	21714	20280	161844	27159	1059711	46456	107975	0	0	8218	556801	0	0
2024-10-22 01:43:47			0	38211	0	0	0	21714	20280	161876	27178	1059737	46467	107975	0	0	8219	556524	0	0
2024-10-22 01:44:47			0	38199	0	0	0	21716	20280	161772	27147	1059746	46434	107976	0	0	8218	557000	0	0
2024-10-22 01:45:47			0	38189	0	0	0	21719	20270	161800	27105	1059729	46455	107977	0	0	8217	557427	0	0
2024-10-22 01:46:47			0	38197	0	0	0	21711	20280	161824	26795	1059693	46456	107974	0	0	8218	557079	0	0
2024-10-22 01:47:47			0	38188	0	0	0	21714	20270	161904	27005	1059702	46455	107975	0	0	8217	557467	0	0
2024-10-22 01:48:47			0	38178	0	0	0	21711	20290	161736	27142	1059729	46445	107974	0	0	8217	557802	0	0
2024-10-22 01:49:47			0	38200	0	0	0	21716	20290	161848	27027	1059676	46445	107976	0	0	8218	556929	0	0
2024-10-22 01:50:47			0	38197	0	0	0	21719	20280	161908	26955	1059720	46456	107977	0	0	8218	557079	0	0
2024-10-22 01:51:47			0	38183	0	0	0	21706	20280	161972	26779	1059773	46456	107972	0	0	8217	557634	0	0
2024-10-22 01:52:47			0	38179	0	0	0	21714	20280	161848	26724	1059667	46456	107975	0	0	8217	557793	0	0
2024-10-22 01:53:47			0	38173	0	0	0	21706	20270	161788	26679	1059675	46444	107972	0	0	8217	558062	0	0
2024-10-22 01:54:47			0	38172	0	0	0	21706	20280	161868	27015	1059684	46467	107972	0	0	8217	558071	0	0
2024-10-22 01:55:47			0	38171	0	0	0	21701	20280	161908	27076	1059746	46445	107970	0	0	8217	558111	0	0
2024-10-22 01:56:47			0	38168	0	0	0	21701	20280	161852	27364	1059684	46456	107970	0	0	8217	558230	0	0
2024-10-22 01:57:47			0	38168	0	0	0	21706	20270	161924	26925	1059649	46444	107972	0	0	8216	558261	0	0
2024-10-22 01:58:47			0	38190	0	0	0	21701	20270	161836	27015	1059613	46454	107970	0	0	8218	557387	0	0
2024-10-22 01:59:47			0	38200	0	0	0	21709	20270	161832	26892	1059702	46455	107973	0	0	8218	556991	0	0
2024-10-22 02:00:47			0	38228	0	0	0	21706	20270	161792	27282	1059649	46455	107972	0	0	8220	555881	0	0
2024-10-22 02:01:47			0	38231	0	0	0	21706	20280	161820	27043	1059693	46456	107972	0	0	8220	555732	0	0
2024-10-22 02:02:47			0	38229	0	0	0	21711	20270	161824	27204	1059675	46455	107974	0	0	8220	555841	0	0
2024-10-22 02:03:47			0	38237	0	0	0	21701	20280	161748	27222	1059711	46445	107970	0	0	8221	555494	0	0
2024-10-22 02:04:47			0	38239	0	0	0	21703	20280	161744	27133	1059667	46445	107971	0	0	8221	555415	0	0
2024-10-22 02:05:47			0	38217	0	0	0	21696	20280	161776	26731	1059640	46445	107968	0	0	8220	556286	0	0
2024-10-22 02:06:47			0	38219	0	0	0	21698	20270	161904	27350	1059675	46444	107969	0	0	8220	556238	0	0
2024-10-22 02:07:47			0	38176	0	0	0	21690	20270	161908	27145	1059640	46443	107966	0	0	8217	557943	0	0
2024-10-22 02:08:47			0	38180	0	0	0	21696	20280	161964	27241	1059711	46445	107968	0	0	8217	557753	0	0
2024-10-22 02:09:47			0	38188	0	0	0	21701	20270	161832	27246	1059693	46465	107970	0	0	8218	557467	0	0
2024-10-22 02:10:47			0	38190	0	0	0	21696	20270	161928	27422	1059569	46444	107968	0	0	8218	557387	0	0
2024-10-22 02:11:47			0	38186	0	0	0	21693	20260	161832	27284	1059631	46454	107967	0	0	8218	557577	0	0
2024-10-22 02:12:47			0	38198	0	0	0	21685	20270	161888	27293	1059622	46444	107964	0	0	8219	557070	0	0
2024-10-22 02:13:47			0	38178	0	0	0	21701	20280	161920	27415	1059631	46445	107970	0	0	8217	557833	0	0
2024-10-22 02:14:47			0	38180	0	0	0	21698	20270	161852	27024	1059640	46443	107969	0	0	8217	557784	0	0
2024-10-22 02:15:47			0	38179	0	0	0	21693	20270	161992	27182	1059693	46443	107967	0	0	8217	557824	0	0
2024-10-22 02:16:47			0	38157	0	0	0	21693	20270	161860	26996	1059613	46443	107967	0	0	8216	558697	0	0
2024-10-22 02:17:47			0	38185	0	0	0	21696	20270	161940	26833	1059649	46444	107968	0	0	8218	557586	0	0
2024-10-22 02:18:47			0	38178	0	0	0	21693	20260	161844	27223	1059595	46454	107967	0	0	8217	557894	0	0
2024-10-22 02:19:47			0	38194	0	0	0	21685	20260	161788	26901	1059595	46432	107964	0	0	8218	557260	0	0
2024-10-22 02:20:47			0	38207	0	0	0	21685	20260	161844	27166	1059604	46454	107964	0	0	8219	556744	0	0
2024-10-22 02:21:47			0	38188	0	0	0	21688	20270	161860	26941	1059613	46432	107965	0	0	8218	557467	0	0
2024-10-22 02:22:47			0	38199	0	0	0	21685	20280	161840	27180	1059658	46456	107964	0	0	8219	557000	0	0
2024-10-22 02:23:47			0	38191	0	0	0	21690	20260	161864	26856	1059631	46443	107966	0	0	8218	557378	0	0
2024-10-22 02:24:47			0	38219	0	0	0	21683	20260	161896	27227	1059604	46443	107963	0	0	8220	556268	0	0
2024-10-22 02:25:47			0	38220	0	0	0	21688	20260	161780	27031	1059631	46443	107965	0	0	8220	556229	0	0
2024-10-22 02:26:47			0	38200	0	0	0	21685	20260	161788	27140	1059631	46454	107964	0	0	8219	557022	0	0
2024-10-22 02:27:47			0	38210	0	0	0	21685	20260	161720	27310	1059648	46454	107964	0	0	8219	556625	0	0
2024-10-22 02:28:47			0	38195	0	0	0	21685	20260	161848	27261	1059622	46454	107964	0	0	8218	557220	0	0
2024-10-22 02:29:47			0	38208	0	0	0	21677	20260	161932	27177	1059604	46454	107961	0	0	8219	556704	0	0
2024-10-22 02:30:47			0	38197	0	0	0	21683	20260	161876	26949	1059622	46443	107963	0	0	8218	557141	0	0
2024-10-22 02:31:47			0	38200	0	0	0	21685	20270	161880	27190	1059613	46454	107964	0	0	8219	556991	0	0
2024-10-22 02:32:47			0	38197	0	0	0	21683	20260	161800	27303	1059551	46465	107963	0	0	8218	557141	0	0
2024-10-22 02:33:47			0	38204	0	0	0	21690	20240	161820	27376	1059524	46441	107966	0	0	8219	556924	0	0
2024-10-22 02:34:47			0	38200	0	0	0	21685	20260	161820	27190	1059604	46454	107964	0	0	8219	557022	0	0
2024-10-22 02:35:47			0	38210	0	0	0	21683	20260	161812	27242	1059622	46454	107963	0	0	8219	556625	0	0
2024-10-22 02:36:47			0	38210	0	0	0	21670	20260	161812	27521	1059569	46454	107958	0	0	8219	556625	0	0
2024-10-22 02:37:47			0	38213	0	0	0	21667	20260	161764	27187	1059631	46443	107957	0	0	8220	556506	0	0
2024-10-22 02:38:47			0	38225	0	0	0	21675	20250	161744	26899	1059586	46453	107960	0	0	8220	556061	0	0
2024-10-22 02:39:47			0	38209	0	0	0	21680	20250	161808	27274	1059666	46453	107962	0	0	8219	556695	0	0
2024-10-22 02:40:47			0	38211	0	0	0	21680	20240	161780	27232	1059435	46429	107962	0	0	8219	556647	0	0
2024-10-22 02:41:47			0	38210	0	0	0	21677	20240	161828	26977	1059595	46451	107961	0	0	8219	556687	0	0
2024-10-22 02:42:47			0	38200	0	0	0	21677	20250	161820	27410	1059613	46453	107961	0	0	8219	557052	0	0
2024-10-22 02:43:47			0	38212	0	0	0	21688	20240	161936	27396	1059604	46430	107965	0	0	8219	556607	0	0
2024-10-22 02:44:47			0	38229	0	0	0	21688	20240	161800	27104	1059542	46451	107965	0	0	8220	555934	0	0
2024-10-22 02:45:47			0	38205	0	0	0	21680	20250	161784	27331	1059560	46442	107962	0	0	8219	556854	0	0
2024-10-22 02:46:47			0	38196	0	0	0	21688	20240	161852	27410	1059568	46440	107965	0	0	8218	557242	0	0
2024-10-22 02:47:47			0	38186	0	0	0	21675	20240	161920	27170	1059604	46452	107960	0	0	8218	557638	0	0
2024-10-22 02:48:47			0	38176	0	0	0	21664	20240	161836	26861	1059551	46452	107956	0	0	8217	558035	0	0
2024-10-22 02:49:47			0	38178	0	0	0	21654	20240	161968	27249	1059471	46452	107952	0	0	8218	557956	0	0
2024-10-22 02:50:47			0	38148	0	0	0	21654	20240	161960	27086	1059577	46452	107952	0	0	8216	559148	0	0
2024-10-22 02:51:47			0	38138	0	0	0	21657	20230	162112	27215	1059586	46440	107953	0	0	8215	559576	0	0
2024-10-22 02:52:47			0	38146	0	0	0	21651	20240	162036	27310	1059542	46440	107951	0	0	8216	559227	0	0
2024-10-22 02:53:47			0	38134	0	0	0	21659	20240	162160	26963	1059488	46440	107954	0	0	8215	559705	0	0
2024-10-22 02:54:47			0	38128	0	0	0	21662	20240	162108	27307	1059515	46451	107955	0	0	8215	559943	0	0
2024-10-22 02:55:47			0	38119	0	0	0	21664	20240	162160	26946	1059488	46451	107956	0	0	8214	560301	0	0
2024-10-22 02:56:47			0	38121	0	0	0	21662	20240	162008	26783	1059497	46452	107955	0	0	8214	560222	0	0
2024-10-22 02:57:47			0	38122	0	0	0	21662	20230	162196	26759	1059524	46451	107955	0	0	8214	560213	0	0
2024-10-22 02:58:47			0	38109	0	0	0	21659	20230	162248	27336	1059550	46440	107954	0	0	8214	560730	0	0
2024-10-22 02:59:47			0	38103	0	0	0	21657	20230	162232	26956	1059471	46440	107953	0	0	8213	560969	0	0
2024-10-22 03:00:47			0	38093	0	0	0	21651	20240	162276	27017	1059488	46440	107951	0	0	8213	561337	0	0
2024-10-22 03:01:47			0	38088	0	0	0	21649	20230	162368	27137	1059559	46451	107950	0	0	8213	561567	0	0
2024-10-22 03:02:47			0	38095	0	0	0	21651	20230	162304	27164	1059453	46440	107951	0	0	8213	561288	0	0
2024-10-22 03:03:47			0	38081	0	0	0	21659	20230	162280	27017	1059471	46451	107954	0	0	8212	561846	0	0
2024-10-22 03:04:47			0	38088	0	0	0	21644	20230	162348	27071	1059480	46429	107948	0	0	8213	561567	0	0
2024-10-22 03:05:47			0	38102	0	0	0	21633	20210	162364	27312	1059443	46438	107944	0	0	8214	561071	0	0
2024-10-22 03:06:47			0	38116	0	0	0	21633	20220	162200	27324	1059399	46438	107944	0	0	8214	560483	0	0
2024-10-22 03:07:47			0	38117	0	0	0	21638	20230	162136	27119	1059391	46440	107946	0	0	8214	560412	0	0
2024-10-22 03:08:47			0	38129	0	0	0	21631	20210	162168	27261	1059390	46449	107943	0	0	8215	559996	0	0
2024-10-22 03:09:47			0	38108	0	0	0	21638	20220	162172	27327	1059435	46450	107946	0	0	8214	560801	0	0
2024-10-22 03:10:47			0	38147	0	0	0	21644	20220	162172	26963	1059373	46438	107948	0	0	8216	559249	0	0
2024-10-22 03:11:47			0	38120	0	0	0	21641	20220	162220	27287	1059426	46459	107947	0	0	8214	560323	0	0
2024-10-22 03:12:47			0	38133	0	0	0	21644	20220	162188	27150	1059399	46438	107948	0	0	8215	559806	0	0
2024-10-22 03:13:47			0	38120	0	0	0	21638	20210	162128	26968	1059328	46449	107946	0	0	8214	560354	0	0
2024-10-22 03:14:47			0	38122	0	0	0	21644	20210	162020	27168	1059417	46449	107948	0	0	8215	560275	0	0
2024-10-22 03:15:47			0	38140	0	0	0	21636	20220	161964	27027	1059453	46438	107945	0	0	8216	559528	0	0
2024-10-22 03:16:47			0	38158	0	0	0	21636	20210	161988	27189	1059390	46438	107945	0	0	8217	558843	0	0
2024-10-22 03:17:47			0	38153	0	0	0	21638	20210	161980	26807	1059355	46449	107946	0	0	8216	559042	0	0
2024-10-22 03:18:47			0	38167	0	0	0	21633	20210	161924	26932	1059417	46438	107944	0	0	8217	558485	0	0
2024-10-22 03:19:47			0	38163	0	0	0	21631	20210	161908	26960	1059337	46449	107943	0	0	8217	558644	0	0
2024-10-22 03:20:47			0	38169	0	0	0	21625	20200	161932	27249	1059310	46436	107941	0	0	8218	558437	0	0
2024-10-22 03:21:47			0	38158	0	0	0	21625	20210	161948	27036	1059390	46427	107941	0	0	8217	558843	0	0
2024-10-22 03:22:47			0	38160	0	0	0	21636	20200	161924	27223	1059372	46437	107945	0	0	8217	558794	0	0
2024-10-22 03:23:47			0	38187	0	0	0	21623	20200	161984	27095	1059319	46448	107940	0	0	8219	557722	0	0
2024-10-22 03:24:47			0	38183	0	0	0	21623	20200	161844	27114	1059319	46448	107940	0	0	8218	557881	0	0
2024-10-22 03:25:47			0	38177	0	0	0	21628	20200	161912	26941	1059319	46437	107942	0	0	8218	558119	0	0
2024-10-22 03:26:47			0	38198	0	0	0	21623	20210	161932	27317	1059328	46438	107940	0	0	8219	557255	0	0
2024-10-22 03:27:47			0	38184	0	0	0	21620	20200	162088	27154	1059310	46447	107939	0	0	8219	557841	0	0
2024-10-22 03:28:47			0	38174	0	0	0	21620	20200	162112	26890	1059363	46436	107939	0	0	8218	558238	0	0
2024-10-22 03:29:47			0	38184	0	0	0	21631	20200	162028	26955	1059337	46447	107943	0	0	8218	557841	0	0
2024-10-22 03:30:47			0	38182	0	0	0	21631	20190	162064	26809	1059301	46425	107943	0	0	8218	557951	0	0
2024-10-22 03:31:47			0	38174	0	0	0	21623	20190	161968	26882	1059301	46436	107940	0	0	8218	558269	0	0
2024-10-22 03:32:47			0	38169	0	0	0	21628	20190	162056	27223	1059328	46436	107942	0	0	8217	558468	0	0
2024-10-22 03:33:47			0	38189	0	0	0	21620	20180	162072	27230	1059256	46446	107939	0	0	8219	557704	0	0
2024-10-22 03:34:47			0	38192	0	0	0	21610	20190	161960	26918	1059274	46447	107935	0	0	8219	557554	0	0
2024-10-22 03:35:47			0	38173	0	0	0	21618	20180	161988	26802	1059230	46446	107938	0	0	8218	558339	0	0
2024-10-22 03:36:47			0	38177	0	0	0	21612	20190	161944	27128	1059248	46436	107936	0	0	8218	558150	0	0
2024-10-22 03:37:47			0	38180	0	0	0	21615	20200	161972	27467	1059257	46436	107937	0	0	8218	558000	0	0
2024-10-22 03:38:47			0	38175	0	0	0	21612	20200	162040	27062	1059310	46447	107936	0	0	8218	558198	0	0
2024-10-22 03:39:47			0	38185	0	0	0	21610	20180	162028	27043	1059274	46434	107935	0	0	8219	557863	0	0
2024-10-22 03:40:47			0	38189	0	0	0	21607	20190	161888	27258	1059239	46436	107934	0	0	8219	557673	0	0
2024-10-22 03:41:47			0	38213	0	0	0	21602	20190	161888	27235	1059212	46436	107932	0	0	8220	556721	0	0
2024-10-22 03:42:47			0	38208	0	0	0	21605	20180	161848	27100	1059203	46435	107933	0	0	8220	556950	0	0
2024-10-22 03:43:47			0	38199	0	0	0	21597	20180	161884	27156	1059230	46435	107930	0	0	8220	557307	0	0
2024-10-22 03:44:47			0	38203	0	0	0	21610	20190	162000	27206	1059186	46458	107935	0	0	8220	557118	0	0
2024-10-22 03:45:47			0	38170	0	0	0	21597	20180	162012	26824	1059221	46445	107930	0	0	8218	558459	0	0
2024-10-22 03:46:47			0	38160	0	0	0	21602	20170	162148	26802	1059212	46423	107932	0	0	8217	558887	0	0
2024-10-22 03:47:47			0	38139	0	0	0	21599	20170	162188	27079	1059185	46445	107931	0	0	8216	559722	0	0
2024-10-22 03:48:47			0	38142	0	0	0	21602	20170	162216	27260	1059150	46444	107932	0	0	8216	559603	0	0
2024-10-22 03:49:47			0	38139	0	0	0	21605	20170	162188	26755	1059239	46434	107933	0	0	8216	559722	0	0
2024-10-22 03:50:47			0	38118	0	0	0	21602	20170	162272	27187	1059203	46444	107932	0	0	8215	560558	0	0
2024-10-22 03:51:47			0	38108	0	0	0	21610	20170	162348	26977	1059230	46444	107935	0	0	8214	560956	0	0
2024-10-22 03:52:47			0	38117	0	0	0	21605	20170	162304	27118	1059212	46434	107933	0	0	8215	560598	0	0
2024-10-22 03:53:47			0	38105	0	0	0	21597	20170	162324	27076	1059212	46445	107930	0	0	8214	561076	0	0
2024-10-22 03:54:47			0	38101	0	0	0	21599	20170	162284	26850	1059203	46433	107931	0	0	8214	561235	0	0
2024-10-22 03:55:47			0	38094	0	0	0	21602	20170	162364	26960	1059256	46433	107932	0	0	8213	561514	0	0
2024-10-22 03:56:47			0	38126	0	0	0	21597	20170	162280	27206	1059203	46455	107930	0	0	8215	560239	0	0
2024-10-22 03:57:47			0	38129	0	0	0	21599	20170	162280	27223	1059203	46444	107931	0	0	8215	560120	0	0
2024-10-22 03:58:47			0	38116	0	0	0	21597	20170	162324	27152	1059123	46444	107930	0	0	8215	560637	0	0
2024-10-22 03:59:47			0	38113	0	0	0	21605	20170	162320	27092	1059230	46433	107933	0	0	8214	560757	0	0
2024-10-22 04:00:47			0	38107	0	0	0	21605	20170	162364	26866	1059239	46445	107933	0	0	8214	560996	0	0
2024-10-22 04:01:47			0	38095	0	0	0	21592	20160	162368	27138	1059194	46433	107928	0	0	8214	561505	0	0
2024-10-22 04:02:47			0	38102	0	0	0	21592	20170	162396	26733	1059176	46455	107928	0	0	8214	561195	0	0
2024-10-22 04:03:47			0	38074	0	0	0	21594	20160	162488	26852	1059141	46422	107929	0	0	8212	562343	0	0
2024-10-22 04:04:47			0	38078	0	0	0	21592	20160	162448	26844	1059141	46444	107928	0	0	8213	562183	0	0
2024-10-22 04:05:47			0	38068	0	0	0	21594	20170	162612	26864	1059203	46433	107929	0	0	8212	562551	0	0
2024-10-22 04:06:47			0	38052	0	0	0	21592	20160	162484	26646	1059158	46432	107928	0	0	8211	563221	0	0
2024-10-22 04:07:47			0	38048	0	0	0	21599	20160	162588	26847	1059185	46432	107931	0	0	8211	563381	0	0
2024-10-22 04:08:47			0	38038	0	0	0	21594	20170	162668	27256	1059203	46433	107929	0	0	8210	563749	0	0
2024-10-22 04:09:47			0	38010	0	0	0	21584	20160	162763	27095	1059141	46444	107925	0	0	8209	564900	0	0
2024-10-22 04:10:47			0	38004	0	0	0	21594	20170	162659	26805	1059203	46433	107929	0	0	8208	565109	0	0
2024-10-22 04:11:47			0	38021	0	0	0	21592	20160	162799	26935	1059194	46444	107928	0	0	8209	564460	0	0
2024-10-22 04:12:47			0	38013	0	0	0	21592	20160	162707	26609	1059132	46443	107928	0	0	8209	564780	0	0
2024-10-22 04:13:47			0	38013	0	0	0	21586	20160	162695	27076	1059212	46432	107926	0	0	8209	564780	0	0
2024-10-22 04:14:47			0	37989	0	0	0	21592	20160	162767	26904	1059158	46443	107928	0	0	8207	565741	0	0
2024-10-22 04:15:47			0	37988	0	0	0	21592	20160	162779	26811	1059158	46443	107928	0	0	8207	565781	0	0
2024-10-22 04:16:47			0	37983	0	0	0	21586	20150	162863	26824	1059123	46442	107926	0	0	8207	566012	0	0
2024-10-22 04:17:47			0	37973	0	0	0	21586	20160	162899	27003	1059132	46443	107926	0	0	8206	566382	0	0
2024-10-22 04:18:47			0	37973	0	0	0	21589	20160	162919	27050	1059132	46421	107927	0	0	8206	566382	0	0
2024-10-22 04:19:47			0	37957	0	0	0	21584	20160	163031	27123	1059158	46432	107925	0	0	8206	567023	0	0
2024-10-22 04:20:47			0	37949	0	0	0	21581	20150	163007	26713	1059123	46431	107924	0	0	8205	567375	0	0
2024-10-22 04:21:47			0	37938	0	0	0	21579	20150	162999	26989	1059114	46442	107923	0	0	8205	567817	0	0
2024-10-22 04:22:47			0	37939	0	0	0	21576	20150	163051	26831	1059123	46453	107922	0	0	8205	567777	0	0
2024-10-22 04:23:47			0	37939	0	0	0	21581	20160	163035	26899	1059105	46443	107924	0	0	8205	567746	0	0
2024-10-22 04:24:47			0	37921	0	0	0	21576	20140	163187	27144	1059069	46463	107922	0	0	8204	568531	0	0
2024-10-22 04:25:47			0	37922	0	0	0	21581	20150	163131	27192	1059123	46442	107924	0	0	8204	568460	0	0
2024-10-22 04:26:47			0	37913	0	0	0	21576	20150	163123	26675	1059096	46442	107922	0	0	8203	568821	0	0
2024-10-22 04:27:47			0	37922	0	0	0	21576	20150	163071	27220	1059070	46442	107922	0	0	8204	568460	0	0
2024-10-22 04:28:47			0	37934	0	0	0	21573	20160	163083	26809	1059079	46443	107921	0	0	8204	567946	0	0
2024-10-22 04:29:47			0	37926	0	0	0	21581	20150	163019	27081	1059114	46431	107924	0	0	8204	568299	0	0
2024-10-22 04:30:47			0	37929	0	0	0	21571	20160	163011	27166	1059114	46444	107920	0	0	8204	568147	0	0
2024-10-22 04:31:47			0	37929	0	0	0	21568	20140	163159	27090	1059096	46419	107919	0	0	8204	568210	0	0
2024-10-22 04:32:47			0	37949	0	0	0	21571	20150	163127	27159	1059114	46420	107920	0	0	8205	567375	0	0
2024-10-22 04:33:47			0	37931	0	0	0	21563	20150	163011	26769	1059150	46431	107917	0	0	8204	568098	0	0
2024-10-22 04:34:47			0	37916	0	0	0	21563	20140	163083	26819	1059069	46419	107917	0	0	8203	568732	0	0
2024-10-22 04:35:47			0	37929	0	0	0	21558	20150	163023	26776	1059061	46442	107915	0	0	8204	568178	0	0
2024-10-22 04:36:47			0	37930	0	0	0	21555	20150	162987	27062	1059061	46442	107914	0	0	8204	568138	0	0
2024-10-22 04:37:47			0	37952	0	0	0	21555	20130	163003	26965	1059034	46418	107914	0	0	8206	567318	0	0
2024-10-22 04:38:47			0	37952	0	0	0	21558	20130	163055	27133	1059025	46418	107915	0	0	8206	567318	0	0
2024-10-22 04:39:47			0	37935	0	0	0	21545	20130	163215	27097	1058998	46440	107910	0	0	8205	568000	0	0
2024-10-22 04:40:47			0	37943	0	0	0	21550	20120	163095	27003	1058989	46429	107912	0	0	8205	567710	0	0
2024-10-22 04:41:47			0	37941	0	0	0	21550	20130	163067	27156	1058972	46429	107912	0	0	8205	567759	0	0
2024-10-22 04:42:47			0	37936	0	0	0	21555	20120	163095	27272	1058963	46418	107914	0	0	8205	567991	0	0
2024-10-22 04:43:47			0	37952	0	0	0	21555	20130	163063	26974	1058972	46418	107914	0	0	8206	567318	0	0
2024-10-22 04:44:47			0	37950	0	0	0	21550	20120	163027	27001	1058927	46439	107912	0	0	8206	567429	0	0
2024-10-22 04:45:47			0	37944	0	0	0	21545	20130	163103	27286	1058981	46418	107910	0	0	8205	567639	0	0
2024-10-22 04:46:47			0	37927	0	0	0	21558	20120	163011	27097	1058901	46428	107915	0	0	8204	568353	0	0
2024-10-22 04:47:47			0	37945	0	0	0	21545	20120	163015	27234	1058963	46418	107910	0	0	8205	567630	0	0
2024-10-22 04:48:47			0	37938	0	0	0	21553	20120	163043	27270	1058980	46450	107913	0	0	8205	567911	0	0
2024-10-22 04:49:47			0	37931	0	0	0	21537	20130	163071	27017	1059078	46440	107907	0	0	8205	568161	0	0
2024-10-22 04:50:47			0	37945	0	0	0	21529	20120	163107	27107	1058980	46428	107904	0	0	8206	567630	0	0
2024-10-22 04:51:47			0	37958	0	0	0	21542	20110	163071	27067	1058892	46438	107909	0	0	8206	567140	0	0
2024-10-22 04:52:47			0	37935	0	0	0	21537	20120	163087	27079	1058954	46450	107907	0	0	8205	568031	0	0
2024-10-22 04:53:47			0	37938	0	0	0	21532	20110	163051	27086	1058883	46438	107905	0	0	8205	567942	0	0
2024-10-22 04:54:47			0	37937	0	0	0	21535	20110	163115	27531	1058936	46427	107906	0	0	8205	567983	0	0
2024-10-22 04:55:47			0	37937	0	0	0	21537	20110	163167	27105	1058909	46449	107907	0	0	8205	567983	0	0
2024-10-22 04:56:47			0	37926	0	0	0	21537	20100	163063	27019	1058847	46437	107907	0	0	8204	568456	0	0
2024-10-22 04:57:47			0	37915	0	0	0	21542	20110	163187	27284	1058909	46438	107909	0	0	8204	568866	0	0
2024-10-22 04:58:47			0	37934	0	0	0	21537	20110	163139	27239	1058883	46438	107907	0	0	8205	568103	0	0
2024-10-22 04:59:47			0	37908	0	0	0	21519	20100	163203	27182	1058874	46437	107900	0	0	8204	569179	0	0
2024-10-22 05:00:47			0	37915	0	0	0	21529	20110	163175	27086	1058936	46438	107904	0	0	8204	568866	0	0
2024-10-22 05:01:47			0	37919	0	0	0	21524	20100	163227	26982	1058874	46426	107902	0	0	8204	568737	0	0
2024-10-22 05:02:47			0	37896	0	0	0	21529	20110	163227	27055	1058829	46416	107904	0	0	8203	569630	0	0
2024-10-22 05:03:47			0	37904	0	0	0	21529	20100	163159	26793	1058865	46426	107904	0	0	8203	569340	0	0
2024-10-22 05:04:47			0	37908	0	0	0	21527	20100	163283	27123	1058847	46437	107903	0	0	8203	569179	0	0
2024-10-22 05:05:47			0	37905	0	0	0	21527	20090	163363	26996	1058873	46415	107903	0	0	8203	569331	0	0
2024-10-22 05:06:47			0	37886	0	0	0	21524	20090	163255	27109	1058846	46447	107902	0	0	8202	570096	0	0
2024-10-22 05:07:47			0	37882	0	0	0	21514	20100	163419	27019	1058865	46437	107898	0	0	8202	570225	0	0
2024-10-22 05:08:47			0	37891	0	0	0	21524	20080	163375	27322	1058864	46435	107902	0	0	8202	569926	0	0
2024-10-22 05:09:47			0	37896	0	0	0	21524	20100	163279	27126	1058812	46426	107902	0	0	8203	569662	0	0
2024-10-22 05:10:47			0	37886	0	0	0	21524	20090	163383	27258	1058820	46425	107902	0	0	8202	570096	0	0
2024-10-22 05:11:47			0	37891	0	0	0	21524	20090	163339	27265	1058820	46425	107902	0	0	8202	569895	0	0
2024-10-22 05:12:47			0	37886	0	0	0	21516	20090	163347	27001	1058829	46425	107899	0	0	8202	570096	0	0
2024-10-22 05:13:47			0	37893	0	0	0	21522	20090	163339	27112	1058846	46425	107901	0	0	8203	569814	0	0
2024-10-22 05:14:47			0	37873	0	0	0	21519	20100	163283	27170	1058785	46437	107900	0	0	8201	570588	0	0
2024-10-22 05:15:47			0	37879	0	0	0	21519	20090	163375	27303	1058846	46436	107900	0	0	8202	570378	0	0
2024-10-22 05:16:47			0	37872	0	0	0	21514	20080	163355	27448	1058828	46424	107898	0	0	8201	570691	0	0
2024-10-22 05:17:47			0	37876	0	0	0	21519	20090	163327	27315	1058793	46436	107900	0	0	8202	570498	0	0
2024-10-22 05:18:47			0	37894	0	0	0	21511	20090	163331	27119	1058873	46425	107897	0	0	8203	569774	0	0
2024-10-22 05:19:47			0	37888	0	0	0	21506	20080	163275	27275	1058837	46435	107895	0	0	8202	570047	0	0
2024-10-22 05:20:47			0	37886	0	0	0	21511	20080	163235	27067	1058784	46414	107897	0	0	8202	570127	0	0
2024-10-22 05:21:47			0	37880	0	0	0	21509	20080	163279	26925	1058837	46424	107896	0	0	8202	570369	0	0
2024-10-22 05:22:47			0	37866	0	0	0	21509	20070	163347	26937	1058687	46434	107896	0	0	8201	570964	0	0
2024-10-22 05:23:47			0	37860	0	0	0	21506	20080	163339	26899	1058784	46424	107895	0	0	8201	571174	0	0
2024-10-22 05:24:47			0	37854	0	0	0	21501	20070	163527	26968	1058811	46423	107893	0	0	8201	571448	0	0
2024-10-22 05:25:47			0	37860	0	0	0	21501	20070	163447	27005	1058793	46423	107893	0	0	8201	571206	0	0
2024-10-22 05:26:47			0	37843	0	0	0	21501	20070	163315	26951	1058766	46445	107893	0	0	8200	571891	0	0
2024-10-22 05:27:47			0	37887	0	0	0	21503	20070	163235	27220	1058740	46423	107894	0	0	8202	570118	0	0
2024-10-22 05:28:47			0	37942	0	0	0	21514	20070	162951	27079	1058713	46434	107898	0	0	8205	567907	0	0
2024-10-22 05:29:47			0	38002	0	0	0	21509	20070	162911	27081	1058766	46434	107896	0	0	8209	565501	0	0
2024-10-22 05:30:47			0	38058	0	0	0	21516	20070	162600	27175	1058713	46434	107899	0	0	8212	563261	0	0
2024-10-22 05:31:47			0	38102	0	0	0	21511	20080	162416	27287	1058775	46435	107897	0	0	8215	561474	0	0
2024-10-22 05:32:47			0	38105	0	0	0	21509	20060	162344	27164	1058748	46433	107896	0	0	8215	561416	0	0
2024-10-22 05:33:47			0	38153	0	0	0	21509	20080	162180	27177	1058722	46435	107896	0	0	8218	559443	0	0
2024-10-22 05:34:47			0	38168	0	0	0	21509	20080	162204	27072	1058775	46424	107896	0	0	8219	558846	0	0
2024-10-22 05:35:47			0	38182	0	0	0	21503	20080	162148	27093	1058775	46435	107894	0	0	8220	558290	0	0
2024-10-22 05:36:47			0	38205	0	0	0	21506	20080	162068	27277	1058802	46446	107895	0	0	8221	557377	0	0
2024-10-22 05:37:47			0	38214	0	0	0	21506	20070	162064	26819	1058757	46434	107895	0	0	8222	557050	0	0
2024-10-22 05:38:47			0	38227	0	0	0	21503	20070	161920	27033	1058766	46434	107894	0	0	8222	556535	0	0
2024-10-22 05:39:47			0	38248	0	0	0	21498	20080	161896	27085	1058722	46424	107892	0	0	8224	555672	0	0
2024-10-22 05:40:47			0	38248	0	0	0	21506	20070	161928	27031	1058704	46423	107895	0	0	8224	555702	0	0
2024-10-22 05:41:47			0	38256	0	0	0	21506	20060	161952	27078	1058722	46412	107895	0	0	8224	555416	0	0
2024-10-22 05:42:47			0	38271	0	0	0	21514	20070	161868	27124	1058713	46434	107898	0	0	8225	554792	0	0
2024-10-22 05:43:47			0	38268	0	0	0	21498	20060	161864	26913	1058748	46422	107892	0	0	8225	554941	0	0
2024-10-22 05:44:47			0	38295	0	0	0	21503	20070	161792	27154	1058766	46434	107894	0	0	8226	553843	0	0
2024-10-22 05:45:47			0	38287	0	0	0	21503	20070	161744	27157	1058713	46434	107894	0	0	8226	554159	0	0
2024-10-22 05:46:47			0	38279	0	0	0	21503	20070	161784	27230	1058766	46434	107894	0	0	8225	554475	0	0
2024-10-22 05:47:47			0	38283	0	0	0	21501	20080	161776	27289	1058775	46446	107893	0	0	8226	554286	0	0
2024-10-22 05:48:47			0	38289	0	0	0	21490	20070	161780	27244	1058713	46423	107889	0	0	8226	554080	0	0
2024-10-22 05:49:47			0	38286	0	0	0	21498	20070	161624	26942	1058766	46434	107892	0	0	8226	554198	0	0
2024-10-22 05:50:47			0	38302	0	0	0	21506	20070	161740	26856	1058704	46434	107895	0	0	8227	553566	0	0
2024-10-22 05:51:47			0	38283	0	0	0	21496	20070	161736	27178	1058820	46423	107891	0	0	8226	554317	0	0
2024-10-22 05:52:47			0	38301	0	0	0	21496	20060	161608	27187	1058695	46422	107891	0	0	8227	553636	0	0
2024-10-22 05:53:47			0	38277	0	0	0	21498	20080	161792	27338	1058722	46435	107892	0	0	8225	554524	0	0
2024-10-22 05:54:47			0	38282	0	0	0	21501	20060	161596	27194	1058695	46433	107893	0	0	8226	554387	0	0
2024-10-22 05:55:47			0	38309	0	0	0	21498	20070	161704	27324	1058731	46423	107892	0	0	8227	553289	0	0
2024-10-22 05:56:47			0	38296	0	0	0	21503	20070	161688	27166	1058704	46423	107894	0	0	8226	553803	0	0
2024-10-22 05:57:47			0	38282	0	0	0	21501	20070	161656	27046	1058757	46423	107893	0	0	8226	554357	0	0
2024-10-22 05:58:47			0	38274	0	0	0	21493	20070	161700	27038	1058740	46434	107890	0	0	8225	554673	0	0
2024-10-22 05:59:47			0	38279	0	0	0	21498	20060	161712	27168	1058748	46433	107892	0	0	8226	554506	0	0
2024-10-22 06:00:47			0	38256	0	0	0	21493	20070	161760	27326	1058731	46423	107890	0	0	8224	555386	0	0
2024-10-22 06:01:47			0	38262	0	0	0	21488	20070	161836	27135	1058731	46434	107888	0	0	8225	555148	0	0
2024-10-22 06:02:47			0	38261	0	0	0	21493	20060	161852	27253	1058686	46421	107890	0	0	8225	555218	0	0
2024-10-22 06:03:47			0	38241	0	0	0	21498	20070	161880	26955	1058757	46434	107892	0	0	8223	555980	0	0
2024-10-22 06:04:47			0	38246	0	0	0	21490	20060	161872	26880	1058713	46421	107889	0	0	8224	555812	0	0
2024-10-22 06:05:47			0	38231	0	0	0	21498	20060	161932	26996	1058695	46433	107892	0	0	8223	556407	0	0
2024-10-22 06:06:47			0	38218	0	0	0	21496	20060	161972	27429	1058713	46421	107891	0	0	8222	556922	0	0
2024-10-22 06:07:47			0	38193	0	0	0	21483	20070	162144	26896	1058713	46423	107886	0	0	8221	557884	0	0
2024-10-22 06:08:47			0	38152	0	0	0	21485	20060	162240	26974	1058660	46421	107887	0	0	8218	559544	0	0
2024-10-22 06:09:47			0	38135	0	0	0	21490	20050	162396	27055	1058668	46431	107889	0	0	8217	560252	0	0
2024-10-22 06:10:47			0	38105	0	0	0	21488	20050	162404	27301	1058704	46432	107888	0	0	8215	561447	0	0
2024-10-22 06:11:47			0	38121	0	0	0	21483	20050	162476	27208	1058651	46432	107886	0	0	8216	560810	0	0
2024-10-22 06:12:47			0	38102	0	0	0	21493	20050	162344	27277	1058677	46421	107890	0	0	8215	561567	0	0
2024-10-22 06:13:47			0	38117	0	0	0	21480	20050	162420	27138	1058668	46431	107885	0	0	8216	560969	0	0
2024-10-22 06:14:47			0	38106	0	0	0	21477	20060	162404	26927	1058660	46432	107884	0	0	8216	561376	0	0
2024-10-22 06:15:47			0	38128	0	0	0	21477	20050	162344	27059	1058668	46420	107884	0	0	8217	560531	0	0
2024-10-22 06:16:47			0	38131	0	0	0	21475	20050	162372	27048	1058651	46411	107883	0	0	8217	560411	0	0
2024-10-22 06:17:47			0	38158	0	0	0	21472	20050	162344	26835	1058651	46421	107882	0	0	8219	559336	0	0
2024-10-22 06:18:47			0	38157	0	0	0	21477	20040	162188	26776	1058633	46410	107884	0	0	8219	559407	0	0
2024-10-22 06:19:47			0	38174	0	0	0	21475	20040	162192	26908	1058553	46420	107883	0	0	8220	558731	0	0
2024-10-22 06:20:47			0	38188	0	0	0	21472	20050	162084	27015	1058598	46421	107882	0	0	8221	558144	0	0
2024-10-22 06:21:47			0	38212	0	0	0	21470	20050	162060	26994	1058642	46420	107881	0	0	8222	557191	0	0
2024-10-22 06:22:47			0	38211	0	0	0	21470	20050	161940	27062	1058615	46420	107881	0	0	8222	557231	0	0
2024-10-22 06:23:47			0	38235	0	0	0	21467	20050	161976	26844	1058668	46420	107880	0	0	8223	556279	0	0
2024-10-22 06:24:47			0	38236	0	0	0	21467	20040	161956	27060	1058606	46420	107880	0	0	8223	556270	0	0
2024-10-22 06:25:47			0	38250	0	0	0	21470	20030	161828	27281	1058588	46419	107881	0	0	8224	555746	0	0
2024-10-22 06:26:47			0	38253	0	0	0	21464	20050	161796	27156	1058642	46431	107879	0	0	8225	555566	0	0
2024-10-22 06:27:47			0	38265	0	0	0	21470	20040	161764	27209	1058633	46442	107881	0	0	8225	555121	0	0
2024-10-22 06:28:47			0	38271	0	0	0	21462	20040	161852	26923	1058580	46420	107878	0	0	8226	554884	0	0
2024-10-22 06:29:47			0	38280	0	0	0	21459	20030	161748	26894	1058606	46429	107877	0	0	8226	554558	0	0
2024-10-22 06:30:47			0	38267	0	0	0	21462	20030	161916	27204	1058562	46441	107878	0	0	8225	555073	0	0
2024-10-22 06:31:47			0	38263	0	0	0	21454	20040	161764	27019	1058544	46419	107875	0	0	8225	555200	0	0
2024-10-22 06:32:47			0	38266	0	0	0	21464	20040	161888	27066	1058624	46419	107879	0	0	8225	555082	0	0
2024-10-22 06:33:47			0	38269	0	0	0	21470	20030	161904	27154	1058562	46419	107881	0	0	8225	554993	0	0
2024-10-22 06:34:47			0	38263	0	0	0	21462	20030	161892	27071	1058553	46407	107878	0	0	8225	555231	0	0
2024-10-22 06:35:47			0	38263	0	0	0	21470	20040	161836	26949	1058597	46419	107881	0	0	8225	555200	0	0
2024-10-22 06:36:47			0	38273	0	0	0	21451	20020	161804	27067	1058508	46417	107874	0	0	8226	554866	0	0
2024-10-22 06:37:47			0	38281	0	0	0	21464	20020	161768	26800	1058570	46440	107879	0	0	8226	554549	0	0
2024-10-22 06:38:47			0	38262	0	0	0	21467	20030	161736	26760	1058579	46407	107880	0	0	8225	555270	0	0
2024-10-22 06:39:47			0	38275	0	0	0	21459	20020	161804	27001	1058517	46451	107877	0	0	8226	554786	0	0
2024-10-22 06:40:47			0	38272	0	0	0	21454	20030	161796	27261	1058588	46419	107875	0	0	8226	554875	0	0
2024-10-22 06:41:47			0	38252	0	0	0	21457	20020	161756	27157	1058570	46440	107876	0	0	8224	555697	0	0
2024-10-22 06:42:47			0	38256	0	0	0	21449	20020	161884	26765	1058570	46418	107873	0	0	8225	555539	0	0
2024-10-22 06:43:47			0	38258	0	0	0	21462	20030	161760	27154	1058535	46419	107878	0	0	8225	555429	0	0
2024-10-22 06:44:47			0	38260	0	0	0	21464	20030	161932	27010	1058553	46429	107879	0	0	8225	555350	0	0
2024-10-22 06:45:47			0	38266	0	0	0	21454	20020	161764	26852	1058544	46429	107875	0	0	8225	555143	0	0
2024-10-22 06:46:47			0	38287	0	0	0	21462	20020	161820	27043	1058508	46428	107878	0	0	8226	554312	0	0
2024-10-22 06:47:47			0	38287	0	0	0	21457	20030	161800	26972	1058500	46429	107876	0	0	8227	554281	0	0
2024-10-22 06:48:47			0	38298	0	0	0	21462	20030	161744	27274	1058579	46429	107878	0	0	8227	553846	0	0
2024-10-22 06:49:47			0	38295	0	0	0	21462	20030	161640	27222	1058579	46429	107878	0	0	8227	553965	0	0
2024-10-22 06:50:47			0	38305	0	0	0	21462	20020	161792	27124	1058544	46418	107878	0	0	8227	553600	0	0
2024-10-22 06:51:47			0	38278	0	0	0	21459	20030	161784	26993	1058579	46429	107877	0	0	8226	554637	0	0
2024-10-22 06:52:47			0	38287	0	0	0	21459	20030	161716	27178	1058579	46440	107877	0	0	8227	554281	0	0
2024-10-22 06:53:47			0	38269	0	0	0	21459	20040	161760	27010	1058544	46441	107877	0	0	8225	554963	0	0
2024-10-22 06:54:47			0	38279	0	0	0	21446	20030	161748	26701	1058588	46419	107872	0	0	8226	554598	0	0
2024-10-22 06:55:47			0	38303	0	0	0	21454	20020	161636	26875	1058508	46428	107875	0	0	8227	553679	0	0
2024-10-22 06:56:47			0	38295	0	0	0	21451	20030	161728	26795	1058500	46429	107874	0	0	8227	553965	0	0
2024-10-22 06:57:47			0	38279	0	0	0	21451	20030	161648	26831	1058535	46430	107874	0	0	8226	554598	0	0
2024-10-22 06:58:47			0	38270	0	0	0	21451	20030	161760	27043	1058535	46441	107874	0	0	8226	554954	0	0
2024-10-22 06:59:47			0	38257	0	0	0	21444	20020	161848	26809	1058464	46418	107871	0	0	8225	555499	0	0
2024-10-22 07:00:47			0	38264	0	0	0	21444	20030	161888	26726	1058562	46430	107871	0	0	8225	555191	0	0
2024-10-22 07:01:47			0	38252	0	0	0	21446	20020	161856	27185	1058544	46418	107872	0	0	8225	555697	0	0
2024-10-22 07:02:47			0	38244	0	0	0	21441	20020	161888	27053	1058517	46407	107870	0	0	8224	556014	0	0
2024-10-22 07:03:47			0	38251	0	0	0	21441	20020	161916	26916	1058535	46439	107870	0	0	8225	555737	0	0
2024-10-22 07:04:47			0	38264	0	0	0	21444	20020	161964	26873	1058544	46429	107871	0	0	8225	555222	0	0
2024-10-22 07:05:47			0	38255	0	0	0	21449	20020	161972	27020	1058482	46417	107873	0	0	8225	555578	0	0
2024-10-22 07:06:47			0	38237	0	0	0	21444	20030	161848	27180	1058579	46418	107871	0	0	8224	556261	0	0
2024-10-22 07:07:47			0	38247	0	0	0	21446	20020	161932	27093	1058491	46429	107872	0	0	8224	555895	0	0
2024-10-22 07:08:47			0	38235	0	0	0	21438	20010	161964	27074	1058464	46406	107869	0	0	8224	556402	0	0
2024-10-22 07:09:47			0	38232	0	0	0	21441	20020	162024	27046	1058455	46417	107870	0	0	8224	556490	0	0
2024-10-22 07:10:47			0	38235	0	0	0	21441	20020	161908	26987	1058508	46417	107870	0	0	8224	556371	0	0
2024-10-22 07:11:47			0	38234	0	0	0	21441	20020	161956	27031	1058482	46417	107870	0	0	8224	556411	0	0
2024-10-22 07:12:47			0	38202	0	0	0	21457	20020	162008	27339	1058491	46418	107876	0	0	8222	557680	0	0
2024-10-22 07:13:47			0	38203	0	0	0	21449	20020	161872	27085	1058508	46439	107873	0	0	8222	557641	0	0
2024-10-22 07:14:47			0	38214	0	0	0	21436	20010	162140	27260	1058473	46439	107868	0	0	8223	557235	0	0
2024-10-22 07:15:47			0	38207	0	0	0	21444	20020	162132	27301	1058508	46428	107871	0	0	8222	557482	0	0
2024-10-22 07:16:47			0	38203	0	0	0	21451	20010	162188	27270	1058499	46428	107874	0	0	8222	557671	0	0
2024-10-22 07:17:47			0	38197	0	0	0	21438	20010	162216	26866	1058437	46416	107869	0	0	8221	557910	0	0
2024-10-22 07:18:47			0	38182	0	0	0	21441	20010	162196	27059	1058499	46417	107870	0	0	8221	558506	0	0
2024-10-22 07:19:47			0	38179	0	0	0	21438	20010	162112	26878	1058437	46416	107869	0	0	8220	558625	0	0
2024-10-22 07:20:47			0	38187	0	0	0	21436	20020	162104	27177	1058508	46417	107868	0	0	8221	558276	0	0
2024-10-22 07:21:47			0	38182	0	0	0	21449	20000	162192	27045	1058508	46427	107873	0	0	8220	558536	0	0
2024-10-22 07:22:47			0	38226	0	0	0	21449	20020	162136	27274	1058508	46417	107873	0	0	8223	556728	0	0
2024-10-22 07:23:47			0	38200	0	0	0	21446	20010	162176	26830	1058499	46417	107872	0	0	8222	557790	0	0
2024-10-22 07:24:47			0	38220	0	0	0	21444	20020	162128	26800	1058455	46428	107871	0	0	8223	556966	0	0
2024-10-22 07:25:47			0	38221	0	0	0	21441	20020	162116	27093	1058482	46417	107870	0	0	8223	556926	0	0
2024-10-22 07:26:47			0	38211	0	0	0	21441	20010	162132	26932	1058419	46417	107870	0	0	8222	557354	0	0
2024-10-22 07:27:47			0	38215	0	0	0	21433	20010	162136	27163	1058437	46427	107867	0	0	8223	557195	0	0
2024-10-22 07:28:47			0	38216	0	0	0	21438	20010	162212	27066	1058473	46417	107869	0	0	8223	557155	0	0
2024-10-22 07:29:47			0	38199	0	0	0	21436	20010	162240	27145	1058437	46416	107868	0	0	8222	557830	0	0
2024-10-22 07:30:47			0	38207	0	0	0	21431	20010	162124	27135	1058464	46416	107866	0	0	8222	557512	0	0
2024-10-22 07:31:47			0	38197	0	0	0	21438	20010	162152	26932	1058464	46416	107869	0	0	8221	557910	0	0
2024-10-22 07:32:47			0	38186	0	0	0	21436	20000	162276	27171	1058481	46438	107868	0	0	8221	558377	0	0
2024-10-22 07:33:47			0	38180	0	0	0	21425	20020	162192	27405	1058491	46418	107864	0	0	8221	558554	0	0
2024-10-22 07:34:47			0	38179	0	0	0	21425	20000	162252	27069	1058446	46426	107864	0	0	8221	558656	0	0
2024-10-22 07:35:47			0	38191	0	0	0	21433	20010	162240	27008	1058437	46427	107867	0	0	8221	558148	0	0
2024-10-22 07:36:47			0	38177	0	0	0	21425	20010	162268	27223	1058499	46428	107864	0	0	8221	558704	0	0
2024-10-22 07:37:47			0	38170	0	0	0	21423	20000	162268	27166	1058428	46427	107863	0	0	8220	559013	0	0
2024-10-22 07:38:47			0	38175	0	0	0	21428	20000	162204	27279	1058402	46416	107865	0	0	8220	558815	0	0
2024-10-22 07:39:47			0	38173	0	0	0	21420	20000	162208	27395	1058393	46416	107862	0	0	8220	558894	0	0
2024-10-22 07:40:47			0	38174	0	0	0	21425	20000	162148	27436	1058419	46426	107864	0	0	8220	558854	0	0
2024-10-22 07:41:47			0	38173	0	0	0	21423	20000	162340	27164	1058419	46416	107863	0	0	8220	558894	0	0
2024-10-22 07:42:47			0	38176	0	0	0	21420	20000	162316	27074	1058455	46427	107862	0	0	8221	558775	0	0
2024-10-22 07:43:47			0	38168	0	0	0	21425	20000	162292	27098	1058428	46427	107864	0	0	8220	559093	0	0
2024-10-22 07:44:47			0	38156	0	0	0	21428	20000	162248	26804	1058402	46427	107865	0	0	8219	559570	0	0
2024-10-22 07:45:47			0	38179	0	0	0	21425	19990	162312	27144	1058428	46425	107864	0	0	8221	558686	0	0
2024-10-22 07:46:47			0	38178	0	0	0	21415	20000	162260	27289	1058375	46427	107860	0	0	8221	558695	0	0
2024-10-22 07:47:47			0	38158	0	0	0	21423	19990	162320	26890	1058375	46425	107863	0	0	8219	559522	0	0
2024-10-22 07:48:47			0	38171	0	0	0	21410	19990	162332	27161	1058357	46425	107858	0	0	8220	559004	0	0
2024-10-22 07:49:47			0	38167	0	0	0	21412	20000	162300	27173	1058419	46426	107859	0	0	8220	559133	0	0
2024-10-22 07:50:47			0	38163	0	0	0	21420	19990	162344	27298	1058348	46415	107862	0	0	8220	559323	0	0
2024-10-22 07:51:47			0	38158	0	0	0	21423	19990	162256	26975	1058410	46425	107863	0	0	8219	559522	0	0
2024-10-22 07:52:47			0	38166	0	0	0	21420	19990	162276	27173	1058348	46425	107862	0	0	8220	559203	0	0
2024-10-22 07:53:47			0	38160	0	0	0	21418	19990	162276	26981	1058357	46403	107861	0	0	8220	559442	0	0
2024-10-22 07:54:47			0	38168	0	0	0	21428	20000	162260	26769	1058446	46426	107865	0	0	8220	559093	0	0
2024-10-22 07:55:47			0	38177	0	0	0	21415	20000	162248	27208	1058393	46416	107860	0	0	8221	558735	0	0
2024-10-22 07:56:47			0	38224	0	0	0	21418	19990	162004	27048	1058321	46436	107861	0	0	8223	556899	0	0
2024-10-22 07:57:47			0	38231	0	0	0	21415	19990	161920	26961	1058437	46425	107860	0	0	8224	556622	0	0
2024-10-22 07:58:47			0	38251	0	0	0	21428	19990	161856	27050	1058384	46425	107865	0	0	8225	555829	0	0
2024-10-22 07:59:47			0	38273	0	0	0	21428	19990	161732	27265	1058384	46403	107865	0	0	8226	554957	0	0
2024-10-22 08:00:47			0	38261	0	0	0	21433	19980	161692	27005	1058392	46415	107867	0	0	8225	555463	0	0
2024-10-22 08:01:47			0	38289	0	0	0	21433	19990	161620	26892	1058375	46436	107867	0	0	8227	554324	0	0
2024-10-22 08:02:47			0	38309	0	0	0	21436	19990	161544	27133	1058401	46425	107868	0	0	8228	553533	0	0
2024-10-22 08:03:47			0	38342	0	0	0	21425	19980	161504	27088	1058392	46425	107864	0	0	8230	552260	0	0
2024-10-22 08:04:47			0	38351	0	0	0	21428	19990	161536	26889	1058410	46415	107865	0	0	8231	551875	0	0
2024-10-22 08:05:47			0	38351	0	0	0	21428	19990	161452	27396	1058375	46415	107865	0	0	8231	551875	0	0
2024-10-22 08:06:47			0	38349	0	0	0	21433	20000	161360	27131	1058446	46416	107867	0	0	8230	551923	0	0
2024-10-22 08:07:47			0	38344	0	0	0	21438	19990	161396	27064	1058437	46425	107869	0	0	8230	552151	0	0
2024-10-22 08:08:47			0	38376	0	0	0	21436	20000	161488	27197	1058393	46426	107868	0	0	8232	550859	0	0
2024-10-22 08:09:47			0	38378	0	0	0	21433	19990	161420	26961	1058410	46425	107867	0	0	8232	550810	0	0
2024-10-22 08:10:47			0	38347	0	0	0	21431	20000	161332	27147	1058446	46437	107866	0	0	8230	552002	0	0
2024-10-22 08:11:47			0	38351	0	0	0	21431	20000	161404	27187	1058402	46416	107866	0	0	8231	551844	0	0
2024-10-22 08:12:47			0	38359	0	0	0	21433	20000	161340	27398	1058402	46416	107867	0	0	8231	551529	0	0
2024-10-22 08:13:47			0	38350	0	0	0	21428	20000	161356	27062	1058419	46426	107865	0	0	8231	551884	0	0
2024-10-22 08:14:47			0	38357	0	0	0	21431	20000	161388	27201	1058428	46416	107866	0	0	8231	551608	0	0
2024-10-22 08:15:47			0	38358	0	0	0	21431	20000	161388	27111	1058393	46426	107866	0	0	8231	551568	0	0
2024-10-22 08:16:47			0	38371	0	0	0	21436	20010	161328	26890	1058464	46427	107868	0	0	8232	551025	0	0
2024-10-22 08:17:47			0	38359	0	0	0	21431	20000	161388	27130	1058419	46437	107866	0	0	8231	551529	0	0
2024-10-22 08:18:47			0	38353	0	0	0	21428	20000	161300	27045	1058375	46427	107865	0	0	8231	551766	0	0
2024-10-22 08:19:47			0	38359	0	0	0	21436	20000	161312	27078	1058508	46416	107868	0	0	8231	551529	0	0
2024-10-22 08:20:47			0	38357	0	0	0	21441	19990	161416	27346	1058384	46415	107870	0	0	8231	551638	0	0
2024-10-22 08:21:47			0	38357	0	0	0	21438	20000	161360	27241	1058419	46426	107869	0	0	8231	551608	0	0
2024-10-22 08:22:47			0	38349	0	0	0	21433	20000	161484	27067	1058419	46426	107867	0	0	8230	551923	0	0
2024-10-22 08:23:47			0	38344	0	0	0	21436	20000	161544	26715	1058393	46416	107868	0	0	8230	552121	0	0
2024-10-22 08:24:47			0	38354	0	0	0	21438	20010	161448	26998	1058464	46416	107869	0	0	8231	551696	0	0
2024-10-22 08:25:47			0	38347	0	0	0	21423	20000	161444	26698	1058419	46416	107863	0	0	8230	552002	0	0
2024-10-22 08:26:47			0	38352	0	0	0	21431	20000	161456	27031	1058428	46427	107866	0	0	8231	551805	0	0
2024-10-22 08:27:47			0	38337	0	0	0	21428	20010	161504	27000	1058437	46427	107865	0	0	8230	552366	0	0
2024-10-22 08:28:47			0	38348	0	0	0	21420	20000	161520	27007	1058472	46405	107862	0	0	8231	551963	0	0
2024-10-22 08:29:47			0	38318	0	0	0	21433	20000	161536	27064	1058446	46416	107867	0	0	8229	553147	0	0
2024-10-22 08:30:47			0	38340	0	0	0	21428	20000	161588	27199	1058446	46416	107865	0	0	8230	552278	0	0
2024-10-22 08:31:47			0	38339	0	0	0	21428	20000	161500	27118	1058419	46426	107865	0	0	8230	552318	0	0
2024-10-22 08:32:47			0	38324	0	0	0	21428	20000	161460	27190	1058455	46416	107865	0	0	8229	552910	0	0
2024-10-22 08:33:47			0	38334	0	0	0	21433	20000	161512	27098	1058481	46416	107867	0	0	8230	552515	0	0
2024-10-22 08:34:47			0	38336	0	0	0	21433	20000	161556	27071	1058419	46426	107867	0	0	8230	552436	0	0
2024-10-22 08:35:47			0	38347	0	0	0	21438	20000	161596	27467	1058446	46426	107869	0	0	8230	552002	0	0
2024-10-22 08:36:47			0	38340	0	0	0	21436	20000	161572	27445	1058446	46437	107868	0	0	8230	552278	0	0
2024-10-22 08:37:47			0	38342	0	0	0	21433	20000	161508	27308	1058419	46426	107867	0	0	8230	552200	0	0
2024-10-22 08:38:47			0	38337	0	0	0	21428	20000	161536	27391	1058472	46426	107865	0	0	8230	552397	0	0
2024-10-22 08:39:47			0	38324	0	0	0	21438	20000	161528	27365	1058393	46405	107869	0	0	8229	552910	0	0
2024-10-22 08:40:47			0	38320	0	0	0	21425	20000	161620	26778	1058472	46416	107864	0	0	8229	553068	0	0
2024-10-22 08:41:47			0	38330	0	0	0	21433	20000	161532	27345	1058446	46416	107867	0	0	8229	552673	0	0
2024-10-22 08:42:47			0	38325	0	0	0	21425	20000	161568	27310	1058393	46416	107864	0	0	8229	552871	0	0
2024-10-22 08:43:47			0	38321	0	0	0	21433	20000	161588	27557	1058393	46416	107867	0	0	8229	553029	0	0
2024-10-22 08:44:47			0	38327	0	0	0	21420	19990	161644	27275	1058357	46425	107862	0	0	8229	552822	0	0
2024-10-22 08:45:47			0	38312	0	0	0	21428	20000	161672	27204	1058428	46416	107865	0	0	8228	553384	0	0
2024-10-22 08:46:47			0	38306	0	0	0	21433	20000	161760	27341	1058375	46427	107867	0	0	8228	553621	0	0
2024-10-22 08:47:47			0	38294	0	0	0	21425	20000	161804	27065	1058402	46406	107864	0	0	8227	554096	0	0
2024-10-22 08:48:47			0	38292	0	0	0	21433	20000	161756	27279	1058419	46416	107867	0	0	8227	554175	0	0
2024-10-22 08:49:47			0	38264	0	0	0	21428	20000	161744	27150	1058472	46426	107865	0	0	8226	555283	0	0
2024-10-22 08:50:47			0	38279	0	0	0	21428	19990	161760	27388	1058463	46425	107865	0	0	8226	554720	0	0
2024-10-22 08:51:47			0	38278	0	0	0	21425	19990	161796	27140	1058384	46415	107864	0	0	8226	554760	0	0
2024-10-22 08:52:47			0	38286	0	0	0	21428	20000	161836	27402	1058455	46427	107865	0	0	8227	554412	0	0
2024-10-22 08:53:47			0	38265	0	0	0	21425	20000	161884	26923	1058481	46427	107864	0	0	8226	555244	0	0
2024-10-22 08:54:47			0	38279	0	0	0	21423	20010	161888	27383	1058411	46427	107863	0	0	8227	554659	0	0
2024-10-22 08:55:47			0	38265	0	0	0	21425	20000	161840	27339	1058455	46416	107864	0	0	8226	555244	0	0
2024-10-22 08:56:47			0	38266	0	0	0	21423	20000	161848	26937	1058402	46427	107863	0	0	8226	555204	0	0
2024-10-22 08:57:47			0	38251	0	0	0	21425	20010	161832	27095	1058437	46427	107864	0	0	8225	555768	0	0
2024-10-22 08:58:47			0	38272	0	0	0	21428	20000	161876	27109	1058366	46437	107865	0	0	8226	554966	0	0
2024-10-22 08:59:47			0	38271	0	0	0	21423	20000	161920	27121	1058446	46416	107863	0	0	8226	555006	0	0
2024-10-22 09:00:47			0	38267	0	0	0	21431	20000	161772	27100	1058455	46416	107866	0	0	8226	555164	0	0
2024-10-22 09:01:47			0	38272	0	0	0	21428	19990	161824	26927	1058410	46425	107865	0	0	8226	554997	0	0
2024-10-22 09:02:47			0	38254	0	0	0	21425	20000	161808	27159	1058428	46416	107864	0	0	8225	555679	0	0
2024-10-22 09:03:47			0	38257	0	0	0	21423	20000	161848	27150	1058366	46437	107863	0	0	8225	555560	0	0
2024-10-22 09:04:47			0	38261	0	0	0	21428	20000	161896	27085	1058419	46426	107865	0	0	8225	555402	0	0
2024-10-22 09:05:47			0	38254	0	0	0	21423	20000	161860	27189	1058393	46426	107863	0	0	8225	555679	0	0
2024-10-22 09:06:47			0	38261	0	0	0	21431	19990	161912	27325	1058437	46425	107866	0	0	8225	555433	0	0
2024-10-22 09:07:47			0	38252	0	0	0	21420	20000	161908	27204	1058446	46426	107862	0	0	8225	555759	0	0
2024-10-22 09:08:47			0	38254	0	0	0	21433	20000	161932	27232	1058455	46416	107867	0	0	8225	555679	0	0
2024-10-22 09:09:47			0	38247	0	0	0	21431	20000	161844	27150	1058481	46416	107866	0	0	8224	555957	0	0
2024-10-22 09:10:47			0	38253	0	0	0	21431	20010	161880	27526	1058437	46427	107866	0	0	8225	555688	0	0
2024-10-22 09:11:47			0	38254	0	0	0	21431	20000	161908	27149	1058419	46426	107866	0	0	8225	555679	0	0
2024-10-22 09:12:47			0	38253	0	0	0	21428	20000	162000	27123	1058419	46416	107865	0	0	8225	555719	0	0
2024-10-22 09:13:47			0	38253	0	0	0	21420	19990	161872	27305	1058410	46415	107862	0	0	8225	555750	0	0
2024-10-22 09:14:47			0	38256	0	0	0	21428	20000	161864	27338	1058472	46426	107865	0	0	8225	555600	0	0
2024-10-22 09:15:47			0	38262	0	0	0	21428	19990	161828	27346	1058437	46425	107865	0	0	8225	555393	0	0
2024-10-22 09:16:47			0	38261	0	0	0	21431	20000	161872	27218	1058428	46438	107866	0	0	8225	555402	0	0
2024-10-22 09:17:47			0	38279	0	0	0	21425	19990	161888	27055	1058375	46415	107864	0	0	8226	554720	0	0
2024-10-22 09:18:47			0	38265	0	0	0	21433	20000	161776	26922	1058455	46427	107867	0	0	8226	555244	0	0
2024-10-22 09:19:47			0	38278	0	0	0	21428	20000	161808	27187	1058419	46437	107865	0	0	8226	554729	0	0
2024-10-22 09:20:47			0	38277	0	0	0	21431	20000	161748	26880	1058428	46416	107866	0	0	8226	554768	0	0
2024-10-22 09:21:47			0	38279	0	0	0	21428	20000	161852	27256	1058472	46437	107865	0	0	8226	554689	0	0
2024-10-22 09:22:47			0	38293	0	0	0	21436	20010	161776	27012	1058464	46416	107868	0	0	8227	554105	0	0
2024-10-22 09:23:47			0	38280	0	0	0	21431	20000	161824	27164	1058481	46427	107866	0	0	8226	554650	0	0
2024-10-22 09:24:47			0	38290	0	0	0	21436	20000	161716	27365	1058428	46427	107868	0	0	8227	554254	0	0
2024-10-22 09:25:47			0	38282	0	0	0	21436	20000	161728	27341	1058472	46426	107868	0	0	8226	554571	0	0
2024-10-22 09:26:47			0	38296	0	0	0	21436	20000	161804	27345	1058472	46437	107868	0	0	8227	554017	0	0
2024-10-22 09:27:47			0	38280	0	0	0	21433	20000	161808	27059	1058428	46416	107867	0	0	8226	554650	0	0
2024-10-22 09:28:47			0	38285	0	0	0	21436	20010	161724	27287	1058411	46416	107868	0	0	8227	554421	0	0
2024-10-22 09:29:47			0	38308	0	0	0	21436	20000	161676	27220	1058366	46426	107868	0	0	8228	553542	0	0
2024-10-22 09:30:47			0	38287	0	0	0	21425	20000	161728	27445	1058428	46427	107864	0	0	8227	554373	0	0
2024-10-22 09:31:47			0	38300	0	0	0	21444	20010	161684	27241	1058473	46417	107871	0	0	8227	553828	0	0
2024-10-22 09:32:47			0	38295	0	0	0	21436	20000	161676	27102	1058499	46416	107868	0	0	8227	554056	0	0
2024-10-22 09:33:47			0	38308	0	0	0	21438	19990	161604	27428	1058463	46425	107869	0	0	8228	553573	0	0
2024-10-22 09:34:47			0	38301	0	0	0	21433	20000	161676	27069	1058446	46416	107867	0	0	8228	553819	0	0
2024-10-22 09:35:47			0	38304	0	0	0	21431	20000	161648	27336	1058419	46416	107866	0	0	8228	553700	0	0
2024-10-22 09:36:47			0	38306	0	0	0	21438	20000	161652	27229	1058446	46426	107869	0	0	8228	553621	0	0
2024-10-22 09:37:47			0	38311	0	0	0	21436	20000	161648	27338	1058455	46416	107868	0	0	8228	553424	0	0
2024-10-22 09:38:47			0	38329	0	0	0	21433	20010	161624	27377	1058437	46416	107867	0	0	8229	552682	0	0
2024-10-22 09:39:47			0	38318	0	0	0	21433	20010	161640	27345	1058490	46416	107867	0	0	8229	553117	0	0
2024-10-22 09:40:47			0	38316	0	0	0	21446	20000	161552	27414	1058455	46416	107872	0	0	8228	553226	0	0
2024-10-22 09:41:47			0	38326	0	0	0	21433	20010	161624	27280	1058552	46417	107867	0	0	8229	552801	0	0
2024-10-22 09:42:47			0	38311	0	0	0	21436	20000	161716	26889	1058525	46416	107868	0	0	8228	553424	0	0
2024-10-22 09:43:47			0	38331	0	0	0	21444	20000	161628	27291	1058428	46416	107871	0	0	8229	552634	0	0
2024-10-22 09:44:47			0	38333	0	0	0	21438	20010	161572	27386	1058490	46438	107869	0	0	8229	552524	0	0
2024-10-22 09:45:47			0	38348	0	0	0	21433	20000	161652	27234	1058455	46438	107867	0	0	8230	551963	0	0
2024-10-22 09:46:47			0	38338	0	0	0	21441	20010	161556	27220	1058437	46416	107870	0	0	8230	552327	0	0
2024-10-22 09:47:47			0	38340	0	0	0	21436	20010	161456	27327	1058490	46416	107868	0	0	8230	552248	0	0
2024-10-22 09:48:47			0	38347	0	0	0	21454	20010	161476	27111	1058499	46428	107875	0	0	8230	551972	0	0
2024-10-22 09:49:47			0	38358	0	0	0	21444	20010	161564	27152	1058490	46438	107871	0	0	8231	551538	0	0
2024-10-22 09:50:47			0	38357	0	0	0	21438	20010	161448	27175	1058490	46427	107869	0	0	8231	551577	0	0
2024-10-22 09:51:47			0	38360	0	0	0	21444	20010	161448	27026	1058517	46438	107871	0	0	8231	551459	0	0
2024-10-22 09:52:47			0	38367	0	0	0	21454	20020	161468	27072	1058535	46406	107875	0	0	8231	551153	0	0
2024-10-22 09:53:47			0	38351	0	0	0	21446	20010	161532	27019	1058499	46417	107872	0	0	8230	551814	0	0
2024-10-22 09:54:47			0	38354	0	0	0	21441	20020	161488	27076	1058544	46429	107870	0	0	8231	551665	0	0
2024-10-22 09:55:47			0	38345	0	0	0	21444	20010	161432	27029	1058499	46428	107871	0	0	8230	552051	0	0
2024-10-22 09:56:47			0	38363	0	0	0	21433	20010	161536	27241	1058543	46438	107867	0	0	8231	551341	0	0
2024-10-22 09:57:47			0	38359	0	0	0	21449	20010	161428	27019	1058526	46428	107873	0	0	8231	551498	0	0
2024-10-22 09:58:47			0	38367	0	0	0	21444	20020	161476	27168	1058508	46417	107871	0	0	8231	551153	0	0
2024-10-22 09:59:47			0	38365	0	0	0	21446	20020	161388	27306	1058482	46428	107872	0	0	8231	551231	0	0
2024-10-22 10:00:47			0	38392	0	0	0	21454	20010	161448	27235	1058499	46439	107875	0	0	8233	550198	0	0
2024-10-22 10:01:47			0	38385	0	0	0	21449	20020	161424	27282	1058535	46428	107873	0	0	8232	550444	0	0
2024-10-22 10:02:47			0	38396	0	0	0	21441	20020	161332	27272	1058535	46439	107870	0	0	8233	550010	0	0
2024-10-22 10:03:47			0	38384	0	0	0	21449	20020	161332	27180	1058517	46429	107873	0	0	8232	550483	0	0
2024-10-22 10:04:47			0	38385	0	0	0	21451	20020	161296	27145	1058561	46417	107874	0	0	8232	550444	0	0
2024-10-22 10:05:47			0	38387	0	0	0	21444	20010	161308	27071	1058517	46427	107871	0	0	8233	550395	0	0
2024-10-22 10:06:47			0	38389	0	0	0	21454	20020	161372	27409	1058535	46417	107875	0	0	8233	550286	0	0
2024-10-22 10:07:47			0	38388	0	0	0	21457	20020	161348	27441	1058544	46418	107876	0	0	8232	550325	0	0
2024-10-22 10:08:47			0	38412	0	0	0	21459	20010	161232	27383	1058517	46427	107877	0	0	8234	549411	0	0
2024-10-22 10:09:47			0	38405	0	0	0	21449	20010	161208	27201	1058526	46428	107873	0	0	8233	549687	0	0
2024-10-22 10:10:47			0	38395	0	0	0	21457	20020	161228	27114	1058544	46429	107876	0	0	8233	550050	0	0
2024-10-22 10:11:47			0	38390	0	0	0	21459	20020	161264	27498	1058597	46429	107877	0	0	8232	550247	0	0
2024-10-22 10:12:47			0	38404	0	0	0	21451	20020	161236	27307	1058491	46418	107874	0	0	8233	549696	0	0
2024-10-22 10:13:47			0	38412	0	0	0	21457	20020	161360	27242	1058535	46417	107876	0	0	8234	549381	0	0
2024-10-22 10:14:47			0	38424	0	0	0	21462	20020	161232	27348	1058615	46417	107878	0	0	8234	548909	0	0
2024-10-22 10:15:47			0	38412	0	0	0	21459	20030	161264	27209	1058500	46429	107877	0	0	8234	549350	0	0
2024-10-22 10:16:47			0	38416	0	0	0	21462	20020	161172	27497	1058561	46417	107878	0	0	8234	549223	0	0
2024-10-22 10:17:47			0	38416	0	0	0	21470	20020	161256	27137	1058677	46429	107881	0	0	8234	549223	0	0
2024-10-22 10:18:47			0	38422	0	0	0	21459	20030	161180	27164	1058641	46430	107877	0	0	8234	548957	0	0
2024-10-22 10:19:47			0	38414	0	0	0	21470	20030	161188	27384	1058579	46418	107881	0	0	8234	549272	0	0
2024-10-22 10:20:47			0	38437	0	0	0	21464	20030	161112	27485	1058579	46429	107879	0	0	8235	548368	0	0
2024-10-22 10:21:47			0	38428	0	0	0	21464	20030	161112	27322	1058659	46418	107879	0	0	8235	548721	0	0
2024-10-22 10:22:47			0	38453	0	0	0	21470	20030	160984	27440	1058615	46441	107881	0	0	8236	547739	0	0
2024-10-22 10:23:47			0	38459	0	0	0	21470	20040	161004	27374	1058571	46430	107881	0	0	8236	547473	0	0
2024-10-22 10:24:47			0	38474	0	0	0	21462	20030	161064	27469	1058632	46440	107878	0	0	8237	546915	0	0
2024-10-22 10:25:47			0	38459	0	0	0	21462	20030	160992	27124	1058535	46441	107878	0	0	8237	547504	0	0
2024-10-22 10:26:47			0	38464	0	0	0	21467	20040	161056	27379	1058677	46430	107880	0	0	8237	547277	0	0
2024-10-22 10:27:47			0	38493	0	0	0	21470	20040	161012	27317	1058597	46452	107881	0	0	8238	546140	0	0
2024-10-22 10:28:47			0	38491	0	0	0	21477	20040	160952	27623	1058624	46441	107884	0	0	8238	546218	0	0
2024-10-22 10:29:47			0	38511	0	0	0	21470	20030	160888	27414	1058615	46430	107881	0	0	8239	545464	0	0
2024-10-22 10:30:47			0	38510	0	0	0	21480	20040	160868	27583	1058677	46452	107885	0	0	8239	545474	0	0
2024-10-22 10:31:47			0	38533	0	0	0	21475	20050	160660	27386	1058668	46420	107883	0	0	8241	544543	0	0
2024-10-22 10:32:47			0	38536	0	0	0	21477	20040	160664	27154	1058659	46420	107884	0	0	8241	544456	0	0
2024-10-22 10:33:47			0	38552	0	0	0	21475	20040	160712	27206	1058606	46431	107883	0	0	8242	543830	0	0
2024-10-22 10:34:47			0	38535	0	0	0	21477	20030	160704	27332	1058668	46419	107884	0	0	8241	544525	0	0
2024-10-22 10:35:47			0	38555	0	0	0	21480	20040	160680	27312	1058659	46431	107885	0	0	8242	543713	0	0
2024-10-22 10:36:47			0	38548	0	0	0	21485	20040	160568	27031	1058686	46431	107887	0	0	8241	543987	0	0
2024-10-22 10:37:47			0	38566	0	0	0	21477	20040	160628	27383	1058659	46420	107884	0	0	8243	543283	0	0
2024-10-22 10:38:47			0	38535	0	0	0	21488	20050	160704	27543	1058730	46432	107888	0	0	8241	544465	0	0
2024-10-22 10:39:47			0	38546	0	0	0	21488	20050	160684	27095	1058721	46442	107888	0	0	8241	544035	0	0
2024-10-22 10:40:47			0	38550	0	0	0	21483	20050	160628	27220	1058704	46411	107886	0	0	8242	543878	0	0
2024-10-22 10:41:47			0	38567	0	0	0	21480	20050	160544	27348	1058704	46432	107885	0	0	8243	543214	0	0
2024-10-22 10:42:47			0	38564	0	0	0	21488	20040	160500	27161	1058659	46442	107888	0	0	8242	543361	0	0
2024-10-22 10:43:47			0	38562	0	0	0	21488	20050	160476	27228	1058775	46431	107888	0	0	8242	543409	0	0
2024-10-22 10:44:47			0	38587	0	0	0	21485	20050	160396	27166	1058757	46432	107887	0	0	8244	542433	0	0
2024-10-22 10:45:47			0	38585	0	0	0	21485	20040	160440	27204	1058766	46420	107887	0	0	8244	542541	0	0
2024-10-22 10:46:47			0	38578	0	0	0	21490	20060	160432	27128	1058766	46432	107889	0	0	8243	542755	0	0
2024-10-22 10:47:47			0	38574	0	0	0	21480	20050	160496	27339	1058730	46432	107885	0	0	8243	542941	0	0
2024-10-22 10:48:47			0	38580	0	0	0	21488	20040	160420	27486	1058713	46420	107888	0	0	8243	542736	0	0
2024-10-22 10:49:47			0	38569	0	0	0	21483	20050	160516	27540	1058775	46442	107886	0	0	8243	543136	0	0
2024-10-22 10:50:47			0	38571	0	0	0	21488	20050	160468	27588	1058730	46421	107888	0	0	8243	543058	0	0
2024-10-22 10:51:47			0	38571	0	0	0	21490	20050	160420	27177	1058730	46432	107889	0	0	8243	543058	0	0
2024-10-22 10:52:47			0	38591	0	0	0	21490	20050	160376	27180	1058730	46432	107889	0	0	8244	542277	0	0
2024-10-22 10:53:47			0	38610	0	0	0	21496	20060	160440	26955	1058722	46444	107891	0	0	8245	541506	0	0
2024-10-22 10:54:47			0	38602	0	0	0	21490	20060	160380	27239	1058722	46433	107889	0	0	8245	541818	0	0
2024-10-22 10:55:47			0	38582	0	0	0	21493	20060	160400	27343	1058802	46422	107890	0	0	8243	542598	0	0
2024-10-22 10:56:47			0	38590	0	0	0	21488	20060	160352	27303	1058793	46432	107888	0	0	8244	542286	0	0
2024-10-22 10:57:47			0	38585	0	0	0	21483	20060	160456	27185	1058739	46432	107886	0	0	8244	542481	0	0
2024-10-22 10:58:47			0	38573	0	0	0	21477	20050	160508	27230	1058730	46443	107884	0	0	8243	542980	0	0
2024-10-22 10:59:47			0	38583	0	0	0	21483	20060	160532	27078	1058748	46422	107886	0	0	8244	542559	0	0
2024-10-22 11:00:47			0	38581	0	0	0	21485	20070	160440	27027	1058784	46434	107887	0	0	8243	542607	0	0
2024-10-22 11:01:47			0	38573	0	0	0	21490	20070	160424	27369	1058731	46423	107889	0	0	8243	542920	0	0
2024-10-22 11:02:47			0	38593	0	0	0	21498	20060	160376	27218	1058802	46422	107892	0	0	8244	542169	0	0
2024-10-22 11:03:47			0	38588	0	0	0	21493	20060	160412	26925	1058713	46443	107890	0	0	8244	542364	0	0
2024-10-22 11:04:47			0	38599	0	0	0	21496	20060	160376	27400	1058775	46444	107891	0	0	8244	541935	0	0
2024-10-22 11:05:47			0	38603	0	0	0	21488	20060	160340	27597	1058802	46422	107888	0	0	8245	541779	0	0
2024-10-22 11:06:47			0	38585	0	0	0	21498	20060	160356	27204	1058766	46421	107892	0	0	8243	542481	0	0
2024-10-22 11:07:47			0	38595	0	0	0	21501	20080	160316	27355	1058802	46424	107893	0	0	8244	542031	0	0
2024-10-22 11:08:47			0	38590	0	0	0	21496	20060	160372	27431	1058802	46433	107891	0	0	8244	542286	0	0
2024-10-22 11:09:47			0	38589	0	0	0	21501	20060	160376	27452	1058819	46432	107893	0	0	8244	542325	0	0
2024-10-22 11:10:47			0	38592	0	0	0	21498	20070	160416	27445	1058793	46434	107892	0	0	8244	542178	0	0
2024-10-22 11:11:47			0	38592	0	0	0	21506	20070	160296	27592	1058784	46434	107895	0	0	8244	542178	0	0
2024-10-22 11:12:47			0	38620	0	0	0	21501	20060	160412	27488	1058819	46421	107893	0	0	8245	541116	0	0
2024-10-22 11:13:47			0	38614	0	0	0	21501	20060	160220	27306	1058819	46432	107893	0	0	8245	541350	0	0
2024-10-22 11:14:47			0	38611	0	0	0	21501	20060	160288	27277	1058828	46444	107893	0	0	8245	541467	0	0
2024-10-22 11:15:47			0	38606	0	0	0	21496	20060	160316	27384	1058855	46433	107891	0	0	8245	541662	0	0
2024-10-22 11:16:47			0	38607	0	0	0	21498	20070	160168	27362	1058811	46445	107892	0	0	8245	541593	0	0
2024-10-22 11:17:47			0	38606	0	0	0	21503	20070	160260	27462	1058837	46445	107894	0	0	8245	541632	0	0
2024-10-22 11:18:47			0	38620	0	0	0	21506	20060	160196	27523	1058855	46433	107895	0	0	8245	541116	0	0
2024-10-22 11:19:47			0	38620	0	0	0	21511	20070	160280	27223	1058926	46423	107897	0	0	8245	541086	0	0
2024-10-22 11:20:47			0	38615	0	0	0	21514	20080	160308	27293	1058882	46424	107898	0	0	8245	541251	0	0
2024-10-22 11:21:47			0	38628	0	0	0	21511	20070	160312	27121	1058873	46445	107897	0	0	8246	540775	0	0
2024-10-22 11:22:47			0	38614	0	0	0	21509	20070	160388	27280	1058873	46434	107896	0	0	8245	541320	0	0
2024-10-22 11:23:47			0	38617	0	0	0	21516	20070	160184	27424	1058837	46445	107899	0	0	8245	541203	0	0
2024-10-22 11:24:47			0	38629	0	0	0	21519	20080	160196	27234	1058855	46435	107900	0	0	8246	540706	0	0
2024-10-22 11:25:47			0	38650	0	0	0	21527	20080	160208	27130	1058908	46424	107903	0	0	8247	539888	0	0
2024-10-22 11:26:47			0	38650	0	0	0	21522	20080	160208	27249	1058997	46435	107901	0	0	8247	539888	0	0
2024-10-22 11:27:47			0	38649	0	0	0	21514	20080	160160	27372	1058864	46424	107898	0	0	8247	539927	0	0
2024-10-22 11:28:47			0	38638	0	0	0	21516	20080	160160	27327	1058917	46424	107899	0	0	8246	540355	0	0
2024-10-22 11:29:47			0	38651	0	0	0	21516	20080	160204	27265	1058935	46424	107899	0	0	8247	539849	0	0
2024-10-22 11:30:47			0	38627	0	0	0	21516	20080	160204	27199	1058917	46424	107899	0	0	8246	540784	0	0
2024-10-22 11:31:47			0	38619	0	0	0	21511	20080	160196	27396	1058855	46424	107897	0	0	8245	541095	0	0
2024-10-22 11:32:47			0	38608	0	0	0	21519	20080	160208	27182	1058882	46435	107900	0	0	8244	541524	0	0
2024-10-22 11:33:47			0	38609	0	0	0	21524	20080	160264	27305	1058864	46424	107902	0	0	8244	541485	0	0
2024-10-22 11:34:47			0	38601	0	0	0	21516	20080	160296	27507	1058882	46435	107899	0	0	8244	541797	0	0
2024-10-22 11:35:47			0	38593	0	0	0	21529	20080	160316	27324	1058944	46424	107904	0	0	8243	542109	0	0
2024-10-22 11:36:47			0	38587	0	0	0	21524	20080	160356	27230	1058882	46435	107902	0	0	8243	542343	0	0
2024-10-22 11:37:47			0	38601	0	0	0	21519	20080	160400	27241	1058970	46424	107900	0	0	8244	541797	0	0
2024-10-22 11:38:47			0	38592	0	0	0	21532	20080	160268	27083	1058961	46435	107905	0	0	8243	542148	0	0
2024-10-22 11:39:47			0	38582	0	0	0	21529	20080	160276	27362	1058944	46424	107904	0	0	8243	542539	0	0
2024-10-22 11:40:47			0	38604	0	0	0	21529	20090	160292	27381	1058926	46436	107904	0	0	8244	541650	0	0
2024-10-22 11:41:47			0	38603	0	0	0	21532	20090	160308	27202	1058953	46447	107905	0	0	8244	541689	0	0
2024-10-22 11:42:47			0	38596	0	0	0	21540	20090	160308	27274	1058953	46447	107908	0	0	8243	541962	0	0
2024-10-22 11:43:47			0	38637	0	0	0	21545	20090	160272	27291	1058962	46447	107910	0	0	8246	540364	0	0
2024-10-22 11:44:47			0	38621	0	0	0	21548	20090	160228	27460	1058962	46458	107911	0	0	8245	540988	0	0
2024-10-22 11:45:47			0	38634	0	0	0	21542	20100	160192	27116	1058980	46458	107909	0	0	8246	540451	0	0
2024-10-22 11:46:47			0	38630	0	0	0	21550	20100	160232	27301	1059033	46437	107912	0	0	8245	540607	0	0
2024-10-22 11:47:47			0	38645	0	0	0	21540	20100	160208	27672	1059007	46448	107908	0	0	8246	540023	0	0
2024-10-22 11:48:47			0	38639	0	0	0	21553	20100	160168	27509	1059060	46448	107913	0	0	8246	540257	0	0
2024-10-22 11:49:47			0	38649	0	0	0	21553	20110	160188	27209	1059069	46449	107913	0	0	8246	539838	0	0
2024-10-22 11:50:47			0	38654	0	0	0	21566	20110	160096	27319	1059051	46438	107918	0	0	8247	539643	0	0
2024-10-22 11:51:47			0	38677	0	0	0	21581	20110	159960	27680	1059051	46438	107924	0	0	8248	538749	0	0
2024-10-22 11:52:47			0	38704	0	0	0	21571	20120	159824	27556	1059113	46439	107920	0	0	8249	537670	0	0
2024-10-22 11:53:47			0	38716	0	0	0	21571	20120	159896	27256	1059140	46439	107920	0	0	8250	537205	0	0
2024-10-22 11:54:47			0	38704	0	0	0	21573	20120	159920	27462	1059034	46439	107921	0	0	8249	537670	0	0
2024-10-22 11:55:47			0	38719	0	0	0	21555	20120	159848	27267	1059087	46450	107914	0	0	8251	537088	0	0
2024-10-22 11:56:47			0	38711	0	0	0	21573	20120	159936	27498	1059140	46439	107921	0	0	8250	537399	0	0
2024-10-22 11:57:47			0	38725	0	0	0	21581	20120	159761	27357	1059122	46461	107924	0	0	8250	536856	0	0
2024-10-22 11:58:47			0	38735	0	0	0	21584	20130	159805	27346	1059158	46429	107925	0	0	8251	536438	0	0
2024-10-22 11:59:47			0	38753	0	0	0	21589	20130	159685	27478	1059193	46440	107927	0	0	8252	535741	0	0
2024-10-22 12:00:47			0	38762	0	0	0	21589	20140	159689	27343	1059202	46452	107927	0	0	8253	535363	0	0
2024-10-22 12:01:47			0	38776	0	0	0	21586	20140	159633	27547	1059229	46452	107926	0	0	8253	534821	0	0
2024-10-22 12:02:47			0	38789	0	0	0	21594	20140	159589	27441	1059229	46441	107929	0	0	8254	534318	0	0
2024-10-22 12:03:47			0	38789	0	0	0	21605	20150	159609	27422	1059282	46464	107933	0	0	8254	534289	0	0
2024-10-22 12:04:47			0	38793	0	0	0	21607	20150	159537	27312	1059282	46453	107934	0	0	8254	534134	0	0
2024-10-22 12:05:47			0	38804	0	0	0	21620	20160	159489	27260	1059371	46443	107939	0	0	8255	533679	0	0
2024-10-22 12:06:47			0	38843	0	0	0	21633	20160	159405	27381	1059300	46433	107944	0	0	8257	532174	0	0
2024-10-22 12:07:47			0	38861	0	0	0	21633	20170	159281	27225	1059363	46466	107944	0	0	8258	531450	0	0
2024-10-22 12:08:47			0	38898	0	0	0	21654	20180	159161	27431	1059380	46456	107952	0	0	8260	529996	0	0
2024-10-22 12:09:47			0	38911	0	0	0	21646	20180	159073	27426	1059434	46456	107949	0	0	8260	529496	0	0
2024-10-22 12:10:47			0	38927	0	0	0	21651	20190	158969	27438	1059452	46447	107951	0	0	8261	528852	0	0
2024-10-22 12:11:47			0	38957	0	0	0	21649	20180	158893	27419	1059469	46468	107950	0	0	8263	527729	0	0
2024-10-22 12:12:47			0	38951	0	0	0	21654	20180	158993	27383	1059522	46457	107952	0	0	8263	527959	0	0
2024-10-22 12:13:47			0	38959	0	0	0	21667	20200	158877	27346	1059549	46447	107957	0	0	8263	527594	0	0
2024-10-22 12:14:47			0	38984	0	0	0	21654	20200	158837	27711	1059558	46448	107952	0	0	8265	526635	0	0
2024-10-22 12:15:47			0	38980	0	0	0	21659	20210	158905	27305	1059567	46471	107954	0	0	8264	526759	0	0
2024-10-22 12:16:47			0	38992	0	0	0	21657	20200	158701	27445	1059585	46448	107953	0	0	8265	526328	0	0
2024-10-22 12:17:47			0	39002	0	0	0	21667	20210	158673	27294	1059647	46449	107957	0	0	8265	525916	0	0
2024-10-22 12:18:47			0	39007	0	0	0	21667	20220	158613	27178	1059639	46459	107957	0	0	8266	525696	0	0
2024-10-22 12:19:47			0	39022	0	0	0	21690	20210	158685	27208	1059576	46459	107966	0	0	8266	525150	0	0
2024-10-22 12:20:47			0	39028	0	0	0	21693	20210	158573	27279	1059603	46459	107967	0	0	8267	524921	0	0
2024-10-22 12:21:47			0	39030	0	0	0	21706	20230	158573	27066	1059736	46461	107972	0	0	8267	524786	0	0
2024-10-22 12:22:47			0	39027	0	0	0	21696	20230	158561	27263	1059683	46461	107968	0	0	8267	524901	0	0
2024-10-22 12:23:47			0	39050	0	0	0	21709	20240	158569	27388	1059754	46461	107973	0	0	8268	523993	0	0
2024-10-22 12:24:47			0	39064	0	0	0	21696	20250	158509	27353	1059746	46464	107968	0	0	8269	523429	0	0
2024-10-22 12:25:47			0	39030	0	0	0	21701	20260	158389	27175	1059781	46465	107970	0	0	8267	524699	0	0
2024-10-22 12:26:47			0	39047	0	0	0	21703	20260	158461	27081	1059781	46476	107971	0	0	8268	524049	0	0
2024-10-22 12:27:47			0	39049	0	0	0	21690	20260	158413	27422	1059790	46454	107966	0	0	8268	523973	0	0
2024-10-22 12:28:47			0	39063	0	0	0	21685	20260	158473	27417	1059790	46454	107964	0	0	8269	523438	0	0
2024-10-22 12:29:47			0	39027	0	0	0	21693	20260	158517	27628	1059808	46454	107967	0	0	8267	524814	0	0
2024-10-22 12:30:47			0	39040	0	0	0	21685	20260	158581	27211	1059764	46465	107964	0	0	8268	524317	0	0
2024-10-22 12:31:47			0	39035	0	0	0	21685	20260	158577	27490	1059781	46454	107964	0	0	8267	524508	0	0
2024-10-22 12:32:47			0	39038	0	0	0	21690	20260	158481	27332	1059728	46454	107966	0	0	8267	524394	0	0
2024-10-22 12:33:47			0	39038	0	0	0	21696	20260	158405	27235	1059781	46454	107968	0	0	8267	524394	0	0
2024-10-22 12:34:47			0	39041	0	0	0	21716	20270	158405	27376	1059799	46454	107976	0	0	8267	524250	0	0
2024-10-22 12:35:47			0	39046	0	0	0	21709	20270	158509	27274	1059826	46465	107973	0	0	8268	524059	0	0
2024-10-22 12:36:47			0	39014	0	0	0	21732	20260	158581	27355	1059790	46454	107982	0	0	8265	525312	0	0
2024-10-22 12:37:47			0	38980	0	0	0	21724	20270	158737	27279	1059853	46443	107979	0	0	8263	526585	0	0
2024-10-22 12:38:47			0	38958	0	0	0	21729	20270	158881	27376	1059853	46465	107981	0	0	8262	527428	0	0
2024-10-22 12:39:47			0	38959	0	0	0	21724	20270	158793	27156	1059915	46466	107979	0	0	8262	527390	0	0
2024-10-22 12:40:47			0	38958	0	0	0	21719	20280	158677	27267	1059924	46467	107977	0	0	8262	527399	0	0
2024-10-22 12:41:47			0	38964	0	0	0	21737	20280	158741	27324	1059924	46467	107984	0	0	8262	527169	0	0
2024-10-22 12:42:47			0	38945	0	0	0	21740	20280	158897	27665	1059906	46467	107985	0	0	8261	527898	0	0
2024-10-22 12:43:47			0	38973	0	0	0	21745	20290	158813	27552	1059888	46456	107987	0	0	8263	526795	0	0
2024-10-22 12:44:47			0	38968	0	0	0	21758	20280	158769	27218	1059959	46467	107992	0	0	8262	527016	0	0
2024-10-22 12:45:47			0	38994	0	0	0	21758	20290	158645	27350	1059888	46467	107992	0	0	8264	525990	0	0
2024-10-22 12:46:47			0	39007	0	0	0	21745	20300	158553	27426	1059960	46458	107987	0	0	8265	525463	0	0
2024-10-22 12:47:47			0	39004	0	0	0	21750	20310	158545	27485	1060057	46458	107989	0	0	8265	525549	0	0
2024-10-22 12:48:47			0	39022	0	0	0	21750	20300	158481	27428	1060075	46458	107989	0	0	8266	524889	0	0
2024-10-22 12:49:47			0	39034	0	0	0	21755	20290	158577	27360	1059977	46479	107991	0	0	8266	524460	0	0
2024-10-22 12:50:47			0	39025	0	0	0	21758	20300	158481	27365	1060022	46447	107992	0	0	8266	524775	0	0
2024-10-22 12:51:47			0	39048	0	0	0	21763	20310	158573	27542	1060031	46458	107994	0	0	8267	523867	0	0
2024-10-22 12:52:47			0	39025	0	0	0	21755	20310	158533	27653	1060120	46470	107991	0	0	8266	524746	0	0
2024-10-22 12:53:47			0	39050	0	0	0	21763	20300	158425	27635	1059995	46480	107994	0	0	8267	523819	0	0
2024-10-22 12:54:47			0	39085	0	0	0	21768	20320	158277	27403	1060084	46460	107996	0	0	8269	522425	0	0
2024-10-22 12:55:47			0	39114	0	0	0	21774	20310	158117	27587	1060013	46481	107998	0	0	8271	521349	0	0
2024-10-22 12:56:47			0	39145	0	0	0	21766	20320	158021	27471	1060075	46459	107995	0	0	8273	520140	0	0
2024-10-22 12:57:47			0	39172	0	0	0	21774	20320	158033	27486	1060058	46472	107998	0	0	8274	519113	0	0
2024-10-22 12:58:47			0	39170	0	0	0	21776	20310	157909	27367	1060066	46470	107999	0	0	8274	519218	0	0
2024-10-22 12:59:47			0	39203	0	0	0	21789	20330	157873	27268	1060173	46460	108004	0	0	8276	517908	0	0
2024-10-22 13:00:47			0	39206	0	0	0	21781	20330	157761	27353	1060173	46460	108001	0	0	8276	517794	0	0
2024-10-22 13:01:47			0	39224	0	0	0	21781	20320	157733	27312	1060137	46460	108001	0	0	8277	517140	0	0
2024-10-22 13:02:47			0	39222	0	0	0	21794	20330	157637	27372	1060173	46460	108006	0	0	8277	517187	0	0
2024-10-22 13:03:47			0	39243	0	0	0	21792	20340	157637	27471	1060218	46451	108005	0	0	8278	516362	0	0
2024-10-22 13:04:47			0	39272	0	0	0	21799	20340	157597	27588	1060253	46474	108008	0	0	8279	515265	0	0
2024-10-22 13:05:47			0	39288	0	0	0	21812	20340	157513	27202	1060227	46462	108013	0	0	8280	514660	0	0
2024-10-22 13:06:47			0	39288	0	0	0	21823	20350	157493	27473	1060289	46474	108017	0	0	8280	514631	0	0
2024-10-22 13:07:47			0	39296	0	0	0	21823	20360	157473	27345	1060289	46476	108017	0	0	8281	514300	0	0
2024-10-22 13:08:47			0	39316	0	0	0	21815	20370	157349	27462	1060361	46476	108014	0	0	8282	513516	0	0
2024-10-22 13:09:47			0	39311	0	0	0	21820	20360	157413	27457	1060307	46475	108016	0	0	8281	513734	0	0
2024-10-22 13:10:47			0	39269	0	0	0	21818	20360	157549	27317	1060343	46476	108015	0	0	8279	515321	0	0
2024-10-22 13:11:47			0	39231	0	0	0	21802	20370	157561	27300	1060307	46454	108009	0	0	8277	516732	0	0
2024-10-22 13:12:47			0	39178	0	0	0	21805	20360	157905	27088	1060289	46465	108010	0	0	8274	518771	0	0
2024-10-22 13:13:47			0	39162	0	0	0	21807	20360	157961	27088	1060280	46463	108011	0	0	8273	519379	0	0
2024-10-22 13:14:47			0	39153	0	0	0	21815	20370	157989	27229	1060281	46465	108014	0	0	8272	519692	0	0
2024-10-22 13:15:47			0	39148	0	0	0	21815	20370	158013	27163	1060325	46465	108014	0	0	8272	519882	0	0
2024-10-22 13:16:47			0	39167	0	0	0	21825	20380	157941	27300	1060325	46478	108018	0	0	8273	519131	0	0
2024-10-22 13:17:47			0	39220	0	0	0	21831	20380	157749	27237	1060396	46488	108020	0	0	8276	517120	0	0
2024-10-22 13:18:47			0	39222	0	0	0	21833	20370	157621	27445	1060334	46476	108021	0	0	8276	517073	0	0
2024-10-22 13:19:47			0	39160	0	0	0	21815	20380	157873	27393	1060378	46467	108014	0	0	8273	519397	0	0
2024-10-22 13:20:47			0	39124	0	0	0	21838	20380	158073	27287	1060378	46467	108023	0	0	8270	520766	0	0
2024-10-22 13:21:47			0	39080	0	0	0	21838	20380	158281	27360	1060432	46478	108023	0	0	8268	522443	0	0
2024-10-22 13:22:47			0	39009	0	0	0	21859	20390	158477	27093	1060450	46479	108031	0	0	8263	525126	0	0
2024-10-22 13:23:47			0	38937	0	0	0	21867	20400	158813	27296	1060459	46467	108034	0	0	8259	527855	0	0
2024-10-22 13:24:47			0	38891	0	0	0	21862	20410	158921	27261	1060530	46481	108032	0	0	8257	529592	0	0
2024-10-22 13:25:47			0	38845	0	0	0	21849	20410	159117	27415	1060450	46470	108027	0	0	8254	531362	0	0
2024-10-22 13:26:47			0	38817	0	0	0	21841	20410	159169	27317	1060503	46481	108024	0	0	8253	532441	0	0
2024-10-22 13:27:47			0	38795	0	0	0	21831	20420	159225	27932	1060495	46470	108020	0	0	8252	533261	0	0
2024-10-22 13:28:47			0	38789	0	0	0	21815	20420	159229	27331	1060495	46481	108014	0	0	8252	533492	0	0
2024-10-22 13:29:47			0	38770	0	0	0	21820	20410	159305	27258	1060432	46458	108016	0	0	8250	534256	0	0
2024-10-22 13:30:47			0	38797	0	0	0	21812	20410	159221	27630	1060477	46481	108013	0	0	8252	533213	0	0
2024-10-22 13:31:47			0	38795	0	0	0	21812	20410	159305	27649	1060459	46470	108013	0	0	8252	533290	0	0
2024-10-22 13:32:47			0	38783	0	0	0	21797	20410	159285	27268	1060477	46470	108007	0	0	8251	533754	0	0
2024-10-22 13:33:47			0	38770	0	0	0	21820	20410	159301	27452	1060432	46481	108016	0	0	8250	534256	0	0
2024-10-22 13:34:47			0	38793	0	0	0	21818	20400	159301	27346	1060494	46469	108015	0	0	8252	533397	0	0
2024-10-22 13:35:47			0	38779	0	0	0	21828	20410	159237	27362	1060512	46481	108019	0	0	8251	533908	0	0
2024-10-22 13:36:47			0	38788	0	0	0	21854	20410	159249	27490	1060459	46481	108029	0	0	8251	533561	0	0
2024-10-22 13:37:47			0	38811	0	0	0	21862	20420	159369	27339	1060584	46482	108032	0	0	8252	532643	0	0
2024-10-22 13:38:47			0	38796	0	0	0	21911	20420	159269	27466	1060601	46481	108051	0	0	8250	533222	0	0
2024-10-22 13:39:47			0	38835	0	0	0	21929	20420	159077	27138	1060637	46493	108058	0	0	8252	531718	0	0
2024-10-22 13:40:47			0	38842	0	0	0	21906	20440	159057	27524	1060690	46494	108049	0	0	8253	531390	0	0
2024-10-22 13:41:47			0	38860	0	0	0	21857	20450	158981	27533	1060655	46496	108030	0	0	8255	530667	0	0
2024-10-22 13:42:47			0	38842	0	0	0	21854	20440	158905	27469	1060664	46483	108029	0	0	8254	531390	0	0
2024-10-22 13:43:47			0	38870	0	0	0	21867	20430	158829	27303	1060628	46483	108034	0	0	8255	530341	0	0
2024-10-22 13:44:47			0	38899	0	0	0	21870	20450	158805	27346	1060682	46485	108035	0	0	8257	529168	0	0
2024-10-22 13:45:47			0	38915	0	0	0	21877	20440	158681	27436	1060646	46484	108038	0	0	8258	528582	0	0
2024-10-22 13:46:47			0	38934	0	0	0	21927	20450	158613	27270	1060735	46474	108057	0	0	8258	527824	0	0
2024-10-22 13:47:47			0	38982	0	0	0	21929	20450	158325	27498	1060762	46485	108058	0	0	8261	525985	0	0
2024-10-22 13:48:47			0	39036	0	0	0	21927	20450	158393	27682	1060762	46496	108057	0	0	8264	523920	0	0
2024-10-22 13:49:47			0	39062	0	0	0	21906	20460	158313	27414	1060816	46507	108049	0	0	8266	522898	0	0
2024-10-22 13:50:47			0	39055	0	0	0	21911	20470	158177	27819	1060851	46508	108051	0	0	8266	523136	0	0
2024-10-22 13:51:47			0	39062	0	0	0	21929	20470	158269	27336	1060825	46498	108058	0	0	8266	522869	0	0
2024-10-22 13:52:47			0	39042	0	0	0	21935	20480	158337	27613	1060958	46499	108060	0	0	8264	523604	0	0
2024-10-22 13:53:47			0	39085	0	0	0	21953	20480	158129	27743	1060905	46488	108067	0	0	8267	521964	0	0
2024-10-22 13:54:47			0	39092	0	0	0	21935	20490	158085	27097	1060923	46500	108060	0	0	8267	521668	0	0
2024-10-22 13:55:47			0	39088	0	0	0	21929	20500	158037	27336	1060905	46500	108058	0	0	8267	521792	0	0
2024-10-22 13:56:47			0	39095	0	0	0	21761	20510	157557	189005	1060843	46501	107993	0	0	8271	521496	0	0
2024-10-22 13:57:47			0	39030	0	0	0	22259	20520	158333	249853	1061287	46525	108185	0	0	8258	523946	0	0
2024-10-22 13:58:47			0	38951	0	0	0	22493	20570	158689	232745	1061935	46639	108275	0	0	8250	526822	0	0
2024-10-22 13:59:47			0	38907	0	0	0	22275	20620	158601	106413	1062389	46676	108191	0	0	8251	528364	0	0
2024-10-22 14:00:47			0	38810	0	0	0	22527	20700	159141	347881	1062879	46708	108288	0	0	8242	531858	0	0
2024-10-22 14:01:47			0	38811	0	0	0	22864	20820	159577	352867	1064090	46863	108418	0	0	8237	531466	0	0
2024-10-22 14:02:47			0	38830	0	0	0	23228	21010	159909	358289	1065462	47025	108558	0	0	8233	530176	0	0
2024-10-22 14:03:47			0	38839	0	0	0	23586	21220	159977	352737	1066978	47146	108696	0	0	8228	529214	0	0
2024-10-22 14:04:47			0	38896	0	0	0	23898	21470	159673	78983	1068478	47204	108816	0	0	8227	526299	0	0
2024-10-22 14:05:47			0	38889	0	0	0	24275	21670	158949	234505	1069089	47151	108961	0	0	8221	525981	0	0
2024-10-22 14:06:47			0	38893	0	0	0	24298	21840	158541	210787	1069699	47069	108970	0	0	8222	525331	0	0
2024-10-22 14:07:47			0	38839	0	0	0	24410	21960	158737	362322	1070130	47003	109013	0	0	8217	527040	0	0
2024-10-22 14:08:47			0	38814	0	0	0	24755	22090	158825	356952	1070953	47006	109146	0	0	8211	527613	0	0
2024-10-22 14:09:47			0	38780	0	0	0	24797	22230	158589	378739	1071705	47033	109162	0	0	8209	528500	0	0
2024-10-22 14:10:47			0	38762	0	0	0	24831	22380	157965	212645	1072288	47026	109175	0	0	8208	528746	0	0
2024-10-22 14:11:47			0	38695	0	0	0	24927	22500	157988	628955	1072560	46984	109212	0	0	8203	530955	0	0
2024-10-22 14:12:47			0	38705	0	0	0	24786	22570	157668	384788	1072553	46926	109158	0	0	8206	530364	0	0
2024-10-22 14:13:47			0	38730	0	0	0	24225	22620	156656	103741	1072688	46898	108942	0	0	8217	529259	0	0
2024-10-22 14:14:47			0	38724	0	0	0	24516	22650	158173	540584	1072538	46868	109054	0	0	8212	529400	0	0
2024-10-22 14:15:47			0	38713	0	0	0	23768	22670	155920	116199	1072441	46804	108766	0	0	8224	529761	0	0
2024-10-22 14:16:47			0	38686	0	0	0	24911	22690	156512	623372	1072397	46784	109206	0	0	8203	530736	0	0
2024-10-22 14:17:47			0	38686	0	0	0	25264	22710	156688	601994	1072621	46798	109342	0	0	8197	530676	0	0
2024-10-22 14:18:47			0	38710	0	0	0	25519	22730	158424	530038	1073031	46844	109440	0	0	8194	529698	0	0
2024-10-22 14:19:47			0	38571	0	0	0	24116	22780	154500	982357	1073148	46849	108900	0	0	8210	534881	0	0
2024-10-22 14:20:47			1	37611	0	0	0	24303	22790	160031	756034	1072685	46785	108972	0	0	8151	572577	0	0
2024-10-22 14:21:47			1	37228	0	0	0	25623	22810	160926	820034	1072766	46775	109480	0	0	8106	588023	0	0
2024-10-22 14:22:47			1	36216	0	0	0	25727	22850	161357	802146	1073400	46856	109520	0	0	8044	630212	0	0
2024-10-22 14:23:47			1	35563	0	0	0	25550	22900	160500	957349	1073918	46916	109452	0	0	8007	658435	0	0
2024-10-22 14:24:47			1	33052	0	0	0	25059	22970	163189	672235	1074233	46957	109263	0	0	7847	776396	0	0
2024-10-22 14:25:47			0	29719	0	0	0	24649	23020	219097	27029	1073860	46896	109105	0	0	7568	960175	0	0
2024-10-22 14:26:47			0	29694	0	0	0	24706	23000	215741	26868	1073102	46773	109127	0	0	7564	961803	0	0
2024-10-22 14:27:47			0	29718	0	0	0	24698	22930	215057	26986	1072548	46666	109124	0	0	7566	960720	0	0
2024-10-22 14:28:47			0	29720	0	0	0	24688	22860	214997	27078	1071896	46625	109120	0	0	7566	960976	0	0
2024-10-22 14:29:47			0	29731	0	0	0	24633	22760	215017	27178	1071242	46572	109099	0	0	7567	960845	0	0
2024-10-22 14:30:47			0	29721	0	0	0	24542	22680	215037	27128	1070714	46497	109064	0	0	7567	961884	0	0
2024-10-22 14:31:47			0	29743	0	0	0	24438	22590	215069	26837	1070080	46488	109024	0	0	7570	961029	0	0
2024-10-22 14:32:47			0	29757	0	0	0	24332	22490	215049	26849	1069471	46444	108983	0	0	7573	960715	0	0
2024-10-22 14:33:47			0	29773	0	0	0	24205	22390	215005	27090	1068890	46423	108934	0	0	7576	960279	0	0
2024-10-22 14:34:47			0	29777	0	0	0	24132	22300	215265	26817	1068389	46425	108906	0	0	7577	960519	0	0
2024-10-22 14:35:47			0	29790	0	0	0	24072	22210	215229	27157	1068013	46438	108883	0	0	7578	960211	0	0
2024-10-22 14:36:47			0	29806	0	0	0	24007	22130	215289	27118	1067548	46429	108858	0	0	7580	959668	0	0
2024-10-22 14:37:47			0	29796	0	0	0	23945	22040	215377	27161	1067145	46419	108834	0	0	7580	960757	0	0
2024-10-22 14:38:47			0	29812	0	0	0	23890	21960	215501	27001	1066805	46445	108813	0	0	7581	960213	0	0
2024-10-22 14:39:47			0	29814	0	0	0	23823	21880	215373	27010	1066411	46414	108787	0	0	7582	960520	0	0
2024-10-22 14:40:47			0	29827	0	0	0	23773	21800	215493	26967	1066080	46427	108768	0	0	7584	960157	0	0
2024-10-22 14:41:47			0	29831	0	0	0	23709	21730	215677	27223	1065776	46420	108743	0	0	7585	960288	0	0
2024-10-22 14:42:47			0	29840	0	0	0	23677	21650	215677	27062	1065534	46446	108731	0	0	7585	960169	0	0
2024-10-22 14:43:47			0	29842	0	0	0	23644	21600	215737	27300	1065364	46462	108718	0	0	7586	960314	0	0
2024-10-22 14:44:47			0	29858	0	0	0	23633	21550	215665	26972	1065158	46490	108714	0	0	7587	959609	0	0
2024-10-22 14:45:47			0	29861	0	0	0	23623	21510	215785	27043	1064953	46507	108710	0	0	7587	959640	0	0
2024-10-22 14:46:47			0	29867	0	0	0	23620	22670	215657	26225	1065756	45528	108709	0	0	7598	953089	0	0
2024-10-22 14:47:47			0	29852	0	0	0	23610	23280	215425	26225	1066411	44852	108705	0	0	7603	950738	0	0
